<?xml version="1.0" encoding="UTF-8"?>
<gpx version="1.1" creator="https://www.youtrack.es" xsi:schemaLocation="http://www.topografix.com/GPX/1/1 http://www.topografix.com/GPX/1/1/gpx.xsd http://www.garmin.com/xmlschemas/GpxExtensions/v3 http://www.garmin.com/xmlschemas/GpxExtensionsv3.xsd http://www.garmin.com/xmlschemas/TrackPointExtension/v1 http://www.garmin.com/xmlschemas/TrackPointExtensionv1.xsd" xmlns:gpxtpx="http://www.garmin.com/xmlschemas/TrackPointExtension/v1" xmlns:gpxx="http://www.garmin.com/xmlschemas/GpxExtensions/v3" xmlns:xsi="http://www.w3.org/2001/XMLSchema-instance">
  <metadata>
    <author>
      <name>Emilio Durán</name>
      <email id="emilioduranviolin" domain="gmail.com"/>
    </author>
    <link href="https://www.youtrack.es">
      <text>YouTrack.es</text>
    </link>
    <time>2026-05-11T01:30:25Z</time>
  </metadata>
  <trk>
    <src>https://www.youtrack.es</src>
    <link href="https://www.youtrack.es/ruta/23213-picon-santiago-de-compostela">
      <text>YouTrack.es</text>
    </link>
    <trkseg>
      <trkpt lat="39.0511250" lon="-4.0592430">
        <ele>602.9</ele>
        <time>2019-08-11T18:09:25Z</time>
      </trkpt>
      <trkpt lat="39.0510570" lon="-4.0592110">
        <ele>602.8</ele>
        <time>2019-08-11T18:09:26Z</time>
      </trkpt>
      <trkpt lat="39.0510330" lon="-4.0592000">
        <ele>602.8</ele>
        <time>2019-08-11T18:09:27Z</time>
      </trkpt>
      <trkpt lat="39.0509850" lon="-4.0591790">
        <ele>602.8</ele>
        <time>2019-08-11T18:09:28Z</time>
      </trkpt>
      <trkpt lat="39.0509360" lon="-4.0591580">
        <ele>602.7</ele>
        <time>2019-08-11T18:09:29Z</time>
      </trkpt>
      <trkpt lat="39.0508860" lon="-4.0591370">
        <ele>602.7</ele>
        <time>2019-08-11T18:09:30Z</time>
      </trkpt>
      <trkpt lat="39.0508350" lon="-4.0591150">
        <ele>602.7</ele>
        <time>2019-08-11T18:09:31Z</time>
      </trkpt>
      <trkpt lat="39.0507830" lon="-4.0590940">
        <ele>602.6</ele>
        <time>2019-08-11T18:09:32Z</time>
      </trkpt>
      <trkpt lat="39.0507300" lon="-4.0590720">
        <ele>602.6</ele>
        <time>2019-08-11T18:09:33Z</time>
      </trkpt>
      <trkpt lat="39.0506760" lon="-4.0590490">
        <ele>602.5</ele>
        <time>2019-08-11T18:09:34Z</time>
      </trkpt>
      <trkpt lat="39.0506220" lon="-4.0590260">
        <ele>602.5</ele>
        <time>2019-08-11T18:09:35Z</time>
      </trkpt>
      <trkpt lat="39.0505670" lon="-4.0590020">
        <ele>602.5</ele>
        <time>2019-08-11T18:09:36Z</time>
      </trkpt>
      <trkpt lat="39.0505120" lon="-4.0589770">
        <ele>602.4</ele>
        <time>2019-08-11T18:09:37Z</time>
      </trkpt>
      <trkpt lat="39.0504560" lon="-4.0589510">
        <ele>602.4</ele>
        <time>2019-08-11T18:09:38Z</time>
      </trkpt>
      <trkpt lat="39.0503990" lon="-4.0589240">
        <ele>602.3</ele>
        <time>2019-08-11T18:09:39Z</time>
      </trkpt>
      <trkpt lat="39.0503430" lon="-4.0588950">
        <ele>602.3</ele>
        <time>2019-08-11T18:09:40Z</time>
      </trkpt>
      <trkpt lat="39.0502860" lon="-4.0588660">
        <ele>602.3</ele>
        <time>2019-08-11T18:09:41Z</time>
      </trkpt>
      <trkpt lat="39.0502280" lon="-4.0588340">
        <ele>602.3</ele>
        <time>2019-08-11T18:09:42Z</time>
      </trkpt>
      <trkpt lat="39.0501710" lon="-4.0588020">
        <ele>602.2</ele>
        <time>2019-08-11T18:09:43Z</time>
      </trkpt>
      <trkpt lat="39.0501140" lon="-4.0587670">
        <ele>602.2</ele>
        <time>2019-08-11T18:09:44Z</time>
      </trkpt>
      <trkpt lat="39.0500570" lon="-4.0587300">
        <ele>602.2</ele>
        <time>2019-08-11T18:09:45Z</time>
      </trkpt>
      <trkpt lat="39.0500000" lon="-4.0586910">
        <ele>602.1</ele>
        <time>2019-08-11T18:09:46Z</time>
      </trkpt>
      <trkpt lat="39.0499440" lon="-4.0586500">
        <ele>602.1</ele>
        <time>2019-08-11T18:09:47Z</time>
      </trkpt>
      <trkpt lat="39.0498880" lon="-4.0586060">
        <ele>602.0</ele>
        <time>2019-08-11T18:09:48Z</time>
      </trkpt>
      <trkpt lat="39.0498340" lon="-4.0585580">
        <ele>601.9</ele>
        <time>2019-08-11T18:09:49Z</time>
      </trkpt>
      <trkpt lat="39.0497800" lon="-4.0585070">
        <ele>601.8</ele>
        <time>2019-08-11T18:09:50Z</time>
      </trkpt>
      <trkpt lat="39.0497280" lon="-4.0584530">
        <ele>601.7</ele>
        <time>2019-08-11T18:09:51Z</time>
      </trkpt>
      <trkpt lat="39.0496780" lon="-4.0583940">
        <ele>601.7</ele>
        <time>2019-08-11T18:09:52Z</time>
      </trkpt>
      <trkpt lat="39.0496290" lon="-4.0583320">
        <ele>601.6</ele>
        <time>2019-08-11T18:09:53Z</time>
      </trkpt>
      <trkpt lat="39.0495820" lon="-4.0582650">
        <ele>601.5</ele>
        <time>2019-08-11T18:09:54Z</time>
      </trkpt>
      <trkpt lat="39.0495360" lon="-4.0581960">
        <ele>601.4</ele>
        <time>2019-08-11T18:09:55Z</time>
      </trkpt>
      <trkpt lat="39.0494920" lon="-4.0581240">
        <ele>601.2</ele>
        <time>2019-08-11T18:09:56Z</time>
      </trkpt>
      <trkpt lat="39.0494480" lon="-4.0580490">
        <ele>601.1</ele>
        <time>2019-08-11T18:09:57Z</time>
      </trkpt>
      <trkpt lat="39.0494060" lon="-4.0579730">
        <ele>601.0</ele>
        <time>2019-08-11T18:09:58Z</time>
      </trkpt>
      <trkpt lat="39.0493640" lon="-4.0578950">
        <ele>600.8</ele>
        <time>2019-08-11T18:09:59Z</time>
      </trkpt>
      <trkpt lat="39.0493220" lon="-4.0578170">
        <ele>600.7</ele>
        <time>2019-08-11T18:10:00Z</time>
      </trkpt>
      <trkpt lat="39.0492820" lon="-4.0577380">
        <ele>600.6</ele>
        <time>2019-08-11T18:10:01Z</time>
      </trkpt>
      <trkpt lat="39.0492410" lon="-4.0576590">
        <ele>600.4</ele>
        <time>2019-08-11T18:10:02Z</time>
      </trkpt>
      <trkpt lat="39.0492010" lon="-4.0575800">
        <ele>600.3</ele>
        <time>2019-08-11T18:10:03Z</time>
      </trkpt>
      <trkpt lat="39.0491610" lon="-4.0575010">
        <ele>600.2</ele>
        <time>2019-08-11T18:10:04Z</time>
      </trkpt>
      <trkpt lat="39.0491210" lon="-4.0574210">
        <ele>600.1</ele>
        <time>2019-08-11T18:10:05Z</time>
      </trkpt>
      <trkpt lat="39.0490810" lon="-4.0573420">
        <ele>600.1</ele>
        <time>2019-08-11T18:10:06Z</time>
      </trkpt>
      <trkpt lat="39.0490410" lon="-4.0572630">
        <ele>600.1</ele>
        <time>2019-08-11T18:10:07Z</time>
      </trkpt>
      <trkpt lat="39.0490020" lon="-4.0571830">
        <ele>600.1</ele>
        <time>2019-08-11T18:10:08Z</time>
      </trkpt>
      <trkpt lat="39.0489620" lon="-4.0571040">
        <ele>600.1</ele>
        <time>2019-08-11T18:10:09Z</time>
      </trkpt>
      <trkpt lat="39.0489220" lon="-4.0570250">
        <ele>600.1</ele>
        <time>2019-08-11T18:10:10Z</time>
      </trkpt>
      <trkpt lat="39.0488820" lon="-4.0569460">
        <ele>600.1</ele>
        <time>2019-08-11T18:10:11Z</time>
      </trkpt>
      <trkpt lat="39.0488420" lon="-4.0568670">
        <ele>600.1</ele>
        <time>2019-08-11T18:10:12Z</time>
      </trkpt>
      <trkpt lat="39.0488020" lon="-4.0567880">
        <ele>600.1</ele>
        <time>2019-08-11T18:10:13Z</time>
      </trkpt>
      <trkpt lat="39.0487620" lon="-4.0567070">
        <ele>600.1</ele>
        <time>2019-08-11T18:10:14Z</time>
      </trkpt>
      <trkpt lat="39.0487210" lon="-4.0566260">
        <ele>600.1</ele>
        <time>2019-08-11T18:10:15Z</time>
      </trkpt>
      <trkpt lat="39.0486800" lon="-4.0565430">
        <ele>600.0</ele>
        <time>2019-08-11T18:10:16Z</time>
      </trkpt>
      <trkpt lat="39.0486380" lon="-4.0564610">
        <ele>600.0</ele>
        <time>2019-08-11T18:10:17Z</time>
      </trkpt>
      <trkpt lat="39.0485960" lon="-4.0563760">
        <ele>600.0</ele>
        <time>2019-08-11T18:10:18Z</time>
      </trkpt>
      <trkpt lat="39.0485540" lon="-4.0562910">
        <ele>599.9</ele>
        <time>2019-08-11T18:10:19Z</time>
      </trkpt>
      <trkpt lat="39.0485110" lon="-4.0562050">
        <ele>599.9</ele>
        <time>2019-08-11T18:10:20Z</time>
      </trkpt>
      <trkpt lat="39.0484690" lon="-4.0561210">
        <ele>599.9</ele>
        <time>2019-08-11T18:10:21Z</time>
      </trkpt>
      <trkpt lat="39.0484280" lon="-4.0560370">
        <ele>599.8</ele>
        <time>2019-08-11T18:10:22Z</time>
      </trkpt>
      <trkpt lat="39.0483880" lon="-4.0559550">
        <ele>599.8</ele>
        <time>2019-08-11T18:10:23Z</time>
      </trkpt>
      <trkpt lat="39.0483480" lon="-4.0558740">
        <ele>599.7</ele>
        <time>2019-08-11T18:10:24Z</time>
      </trkpt>
      <trkpt lat="39.0483090" lon="-4.0557940">
        <ele>599.6</ele>
        <time>2019-08-11T18:10:25Z</time>
      </trkpt>
      <trkpt lat="39.0482440" lon="-4.0556620">
        <ele>599.7</ele>
        <time>2019-08-11T18:10:26Z</time>
      </trkpt>
      <trkpt lat="39.0482180" lon="-4.0556100">
        <ele>599.7</ele>
        <time>2019-08-11T18:10:27Z</time>
      </trkpt>
      <trkpt lat="39.0481920" lon="-4.0555570">
        <ele>599.7</ele>
        <time>2019-08-11T18:10:28Z</time>
      </trkpt>
      <trkpt lat="39.0481520" lon="-4.0554770">
        <ele>599.7</ele>
        <time>2019-08-11T18:10:29Z</time>
      </trkpt>
      <trkpt lat="39.0481120" lon="-4.0553980">
        <ele>599.6</ele>
        <time>2019-08-11T18:10:30Z</time>
      </trkpt>
      <trkpt lat="39.0480450" lon="-4.0552640">
        <ele>599.4</ele>
        <time>2019-08-11T18:10:31Z</time>
      </trkpt>
      <trkpt lat="39.0480170" lon="-4.0552100">
        <ele>599.4</ele>
        <time>2019-08-11T18:10:32Z</time>
      </trkpt>
      <trkpt lat="39.0479900" lon="-4.0551560">
        <ele>599.3</ele>
        <time>2019-08-11T18:10:33Z</time>
      </trkpt>
      <trkpt lat="39.0479490" lon="-4.0550740">
        <ele>599.1</ele>
        <time>2019-08-11T18:10:34Z</time>
      </trkpt>
      <trkpt lat="39.0479070" lon="-4.0549910">
        <ele>599.0</ele>
        <time>2019-08-11T18:10:35Z</time>
      </trkpt>
      <trkpt lat="39.0478650" lon="-4.0549080">
        <ele>598.9</ele>
        <time>2019-08-11T18:10:36Z</time>
      </trkpt>
      <trkpt lat="39.0478230" lon="-4.0548240">
        <ele>598.8</ele>
        <time>2019-08-11T18:10:37Z</time>
      </trkpt>
      <trkpt lat="39.0477800" lon="-4.0547390">
        <ele>598.7</ele>
        <time>2019-08-11T18:10:38Z</time>
      </trkpt>
      <trkpt lat="39.0477370" lon="-4.0546540">
        <ele>598.7</ele>
        <time>2019-08-11T18:10:39Z</time>
      </trkpt>
      <trkpt lat="39.0476940" lon="-4.0545680">
        <ele>598.6</ele>
        <time>2019-08-11T18:10:40Z</time>
      </trkpt>
      <trkpt lat="39.0476510" lon="-4.0544820">
        <ele>598.6</ele>
        <time>2019-08-11T18:10:41Z</time>
      </trkpt>
      <trkpt lat="39.0476070" lon="-4.0543950">
        <ele>598.6</ele>
        <time>2019-08-11T18:10:42Z</time>
      </trkpt>
      <trkpt lat="39.0475630" lon="-4.0543080">
        <ele>598.6</ele>
        <time>2019-08-11T18:10:43Z</time>
      </trkpt>
      <trkpt lat="39.0475190" lon="-4.0542200">
        <ele>598.6</ele>
        <time>2019-08-11T18:10:44Z</time>
      </trkpt>
      <trkpt lat="39.0474750" lon="-4.0541320">
        <ele>598.6</ele>
        <time>2019-08-11T18:10:45Z</time>
      </trkpt>
      <trkpt lat="39.0474300" lon="-4.0540440">
        <ele>598.5</ele>
        <time>2019-08-11T18:10:46Z</time>
      </trkpt>
      <trkpt lat="39.0473860" lon="-4.0539560">
        <ele>598.5</ele>
        <time>2019-08-11T18:10:47Z</time>
      </trkpt>
      <trkpt lat="39.0473410" lon="-4.0538680">
        <ele>598.5</ele>
        <time>2019-08-11T18:10:48Z</time>
      </trkpt>
      <trkpt lat="39.0472970" lon="-4.0537790">
        <ele>598.4</ele>
        <time>2019-08-11T18:10:49Z</time>
      </trkpt>
      <trkpt lat="39.0472520" lon="-4.0536900">
        <ele>598.3</ele>
        <time>2019-08-11T18:10:50Z</time>
      </trkpt>
      <trkpt lat="39.0472080" lon="-4.0536020">
        <ele>598.3</ele>
        <time>2019-08-11T18:10:51Z</time>
      </trkpt>
      <trkpt lat="39.0471630" lon="-4.0535130">
        <ele>598.2</ele>
        <time>2019-08-11T18:10:52Z</time>
      </trkpt>
      <trkpt lat="39.0471190" lon="-4.0534250">
        <ele>598.1</ele>
        <time>2019-08-11T18:10:53Z</time>
      </trkpt>
      <trkpt lat="39.0470740" lon="-4.0533360">
        <ele>598.0</ele>
        <time>2019-08-11T18:10:54Z</time>
      </trkpt>
      <trkpt lat="39.0470300" lon="-4.0532480">
        <ele>597.8</ele>
        <time>2019-08-11T18:10:55Z</time>
      </trkpt>
      <trkpt lat="39.0469850" lon="-4.0531600">
        <ele>597.7</ele>
        <time>2019-08-11T18:10:56Z</time>
      </trkpt>
      <trkpt lat="39.0469410" lon="-4.0530720">
        <ele>597.6</ele>
        <time>2019-08-11T18:10:57Z</time>
      </trkpt>
      <trkpt lat="39.0468970" lon="-4.0529830">
        <ele>597.5</ele>
        <time>2019-08-11T18:10:58Z</time>
      </trkpt>
      <trkpt lat="39.0468520" lon="-4.0528950">
        <ele>597.4</ele>
        <time>2019-08-11T18:10:59Z</time>
      </trkpt>
      <trkpt lat="39.0468080" lon="-4.0528070">
        <ele>597.3</ele>
        <time>2019-08-11T18:11:00Z</time>
      </trkpt>
      <trkpt lat="39.0467640" lon="-4.0527180">
        <ele>597.3</ele>
        <time>2019-08-11T18:11:01Z</time>
      </trkpt>
      <trkpt lat="39.0467190" lon="-4.0526300">
        <ele>597.2</ele>
        <time>2019-08-11T18:11:02Z</time>
      </trkpt>
      <trkpt lat="39.0466750" lon="-4.0525410">
        <ele>597.2</ele>
        <time>2019-08-11T18:11:03Z</time>
      </trkpt>
      <trkpt lat="39.0466300" lon="-4.0524520">
        <ele>597.1</ele>
        <time>2019-08-11T18:11:04Z</time>
      </trkpt>
      <trkpt lat="39.0465860" lon="-4.0523630">
        <ele>597.0</ele>
        <time>2019-08-11T18:11:05Z</time>
      </trkpt>
      <trkpt lat="39.0465410" lon="-4.0522740">
        <ele>596.9</ele>
        <time>2019-08-11T18:11:06Z</time>
      </trkpt>
      <trkpt lat="39.0464960" lon="-4.0521840">
        <ele>596.8</ele>
        <time>2019-08-11T18:11:07Z</time>
      </trkpt>
      <trkpt lat="39.0464510" lon="-4.0520950">
        <ele>596.7</ele>
        <time>2019-08-11T18:11:08Z</time>
      </trkpt>
      <trkpt lat="39.0464060" lon="-4.0520050">
        <ele>596.6</ele>
        <time>2019-08-11T18:11:09Z</time>
      </trkpt>
      <trkpt lat="39.0463610" lon="-4.0519140">
        <ele>596.5</ele>
        <time>2019-08-11T18:11:10Z</time>
      </trkpt>
      <trkpt lat="39.0463150" lon="-4.0518240">
        <ele>596.4</ele>
        <time>2019-08-11T18:11:11Z</time>
      </trkpt>
      <trkpt lat="39.0462700" lon="-4.0517330">
        <ele>596.3</ele>
        <time>2019-08-11T18:11:12Z</time>
      </trkpt>
      <trkpt lat="39.0462240" lon="-4.0516420">
        <ele>596.2</ele>
        <time>2019-08-11T18:11:13Z</time>
      </trkpt>
      <trkpt lat="39.0461790" lon="-4.0515510">
        <ele>596.1</ele>
        <time>2019-08-11T18:11:14Z</time>
      </trkpt>
      <trkpt lat="39.0461330" lon="-4.0514600">
        <ele>596.0</ele>
        <time>2019-08-11T18:11:15Z</time>
      </trkpt>
      <trkpt lat="39.0460870" lon="-4.0513690">
        <ele>595.9</ele>
        <time>2019-08-11T18:11:16Z</time>
      </trkpt>
      <trkpt lat="39.0460420" lon="-4.0512780">
        <ele>595.8</ele>
        <time>2019-08-11T18:11:17Z</time>
      </trkpt>
      <trkpt lat="39.0459960" lon="-4.0511860">
        <ele>595.7</ele>
        <time>2019-08-11T18:11:18Z</time>
      </trkpt>
      <trkpt lat="39.0459500" lon="-4.0510950">
        <ele>595.5</ele>
        <time>2019-08-11T18:11:19Z</time>
      </trkpt>
      <trkpt lat="39.0459040" lon="-4.0510040">
        <ele>595.4</ele>
        <time>2019-08-11T18:11:20Z</time>
      </trkpt>
      <trkpt lat="39.0458590" lon="-4.0509120">
        <ele>595.2</ele>
        <time>2019-08-11T18:11:21Z</time>
      </trkpt>
      <trkpt lat="39.0458130" lon="-4.0508210">
        <ele>594.9</ele>
        <time>2019-08-11T18:11:22Z</time>
      </trkpt>
      <trkpt lat="39.0457670" lon="-4.0507300">
        <ele>594.7</ele>
        <time>2019-08-11T18:11:23Z</time>
      </trkpt>
      <trkpt lat="39.0457220" lon="-4.0506400">
        <ele>594.4</ele>
        <time>2019-08-11T18:11:24Z</time>
      </trkpt>
      <trkpt lat="39.0456770" lon="-4.0505490">
        <ele>594.2</ele>
        <time>2019-08-11T18:11:25Z</time>
      </trkpt>
      <trkpt lat="39.0456310" lon="-4.0504590">
        <ele>594.1</ele>
        <time>2019-08-11T18:11:26Z</time>
      </trkpt>
      <trkpt lat="39.0455860" lon="-4.0503690">
        <ele>594.0</ele>
        <time>2019-08-11T18:11:27Z</time>
      </trkpt>
      <trkpt lat="39.0455410" lon="-4.0502790">
        <ele>594.0</ele>
        <time>2019-08-11T18:11:28Z</time>
      </trkpt>
      <trkpt lat="39.0454960" lon="-4.0501890">
        <ele>594.0</ele>
        <time>2019-08-11T18:11:29Z</time>
      </trkpt>
      <trkpt lat="39.0454520" lon="-4.0501000">
        <ele>593.9</ele>
        <time>2019-08-11T18:11:30Z</time>
      </trkpt>
      <trkpt lat="39.0454070" lon="-4.0500110">
        <ele>593.9</ele>
        <time>2019-08-11T18:11:31Z</time>
      </trkpt>
      <trkpt lat="39.0453630" lon="-4.0499220">
        <ele>593.9</ele>
        <time>2019-08-11T18:11:32Z</time>
      </trkpt>
      <trkpt lat="39.0453180" lon="-4.0498340">
        <ele>593.9</ele>
        <time>2019-08-11T18:11:33Z</time>
      </trkpt>
      <trkpt lat="39.0452740" lon="-4.0497450">
        <ele>593.9</ele>
        <time>2019-08-11T18:11:34Z</time>
      </trkpt>
      <trkpt lat="39.0452300" lon="-4.0496570">
        <ele>593.9</ele>
        <time>2019-08-11T18:11:35Z</time>
      </trkpt>
      <trkpt lat="39.0451860" lon="-4.0495690">
        <ele>593.9</ele>
        <time>2019-08-11T18:11:36Z</time>
      </trkpt>
      <trkpt lat="39.0451420" lon="-4.0494810">
        <ele>593.9</ele>
        <time>2019-08-11T18:11:37Z</time>
      </trkpt>
      <trkpt lat="39.0450980" lon="-4.0493930">
        <ele>593.9</ele>
        <time>2019-08-11T18:11:38Z</time>
      </trkpt>
      <trkpt lat="39.0450540" lon="-4.0493050">
        <ele>593.9</ele>
        <time>2019-08-11T18:11:39Z</time>
      </trkpt>
      <trkpt lat="39.0450100" lon="-4.0492170">
        <ele>593.9</ele>
        <time>2019-08-11T18:11:40Z</time>
      </trkpt>
      <trkpt lat="39.0449660" lon="-4.0491290">
        <ele>593.9</ele>
        <time>2019-08-11T18:11:41Z</time>
      </trkpt>
      <trkpt lat="39.0449230" lon="-4.0490420">
        <ele>593.9</ele>
        <time>2019-08-11T18:11:42Z</time>
      </trkpt>
      <trkpt lat="39.0448790" lon="-4.0489540">
        <ele>593.9</ele>
        <time>2019-08-11T18:11:43Z</time>
      </trkpt>
      <trkpt lat="39.0448350" lon="-4.0488670">
        <ele>593.9</ele>
        <time>2019-08-11T18:11:44Z</time>
      </trkpt>
      <trkpt lat="39.0447920" lon="-4.0487790">
        <ele>593.9</ele>
        <time>2019-08-11T18:11:45Z</time>
      </trkpt>
      <trkpt lat="39.0447480" lon="-4.0486920">
        <ele>594.0</ele>
        <time>2019-08-11T18:11:46Z</time>
      </trkpt>
      <trkpt lat="39.0447050" lon="-4.0486040">
        <ele>594.0</ele>
        <time>2019-08-11T18:11:47Z</time>
      </trkpt>
      <trkpt lat="39.0446610" lon="-4.0485170">
        <ele>594.0</ele>
        <time>2019-08-11T18:11:48Z</time>
      </trkpt>
      <trkpt lat="39.0446180" lon="-4.0484300">
        <ele>594.0</ele>
        <time>2019-08-11T18:11:49Z</time>
      </trkpt>
      <trkpt lat="39.0445740" lon="-4.0483430">
        <ele>594.0</ele>
        <time>2019-08-11T18:11:50Z</time>
      </trkpt>
      <trkpt lat="39.0445310" lon="-4.0482550">
        <ele>594.0</ele>
        <time>2019-08-11T18:11:51Z</time>
      </trkpt>
      <trkpt lat="39.0444870" lon="-4.0481690">
        <ele>594.0</ele>
        <time>2019-08-11T18:11:52Z</time>
      </trkpt>
      <trkpt lat="39.0444440" lon="-4.0480820">
        <ele>594.1</ele>
        <time>2019-08-11T18:11:53Z</time>
      </trkpt>
      <trkpt lat="39.0444000" lon="-4.0479950">
        <ele>594.0</ele>
        <time>2019-08-11T18:11:54Z</time>
      </trkpt>
      <trkpt lat="39.0443570" lon="-4.0479090">
        <ele>594.0</ele>
        <time>2019-08-11T18:11:55Z</time>
      </trkpt>
      <trkpt lat="39.0443130" lon="-4.0478220">
        <ele>593.9</ele>
        <time>2019-08-11T18:11:56Z</time>
      </trkpt>
      <trkpt lat="39.0442700" lon="-4.0477360">
        <ele>593.9</ele>
        <time>2019-08-11T18:11:57Z</time>
      </trkpt>
      <trkpt lat="39.0442270" lon="-4.0476510">
        <ele>593.8</ele>
        <time>2019-08-11T18:11:58Z</time>
      </trkpt>
      <trkpt lat="39.0441840" lon="-4.0475650">
        <ele>593.8</ele>
        <time>2019-08-11T18:11:59Z</time>
      </trkpt>
      <trkpt lat="39.0441410" lon="-4.0474800">
        <ele>593.7</ele>
        <time>2019-08-11T18:12:00Z</time>
      </trkpt>
      <trkpt lat="39.0440980" lon="-4.0473950">
        <ele>593.6</ele>
        <time>2019-08-11T18:12:01Z</time>
      </trkpt>
      <trkpt lat="39.0440550" lon="-4.0473100">
        <ele>593.6</ele>
        <time>2019-08-11T18:12:02Z</time>
      </trkpt>
      <trkpt lat="39.0440120" lon="-4.0472260">
        <ele>593.5</ele>
        <time>2019-08-11T18:12:03Z</time>
      </trkpt>
      <trkpt lat="39.0439700" lon="-4.0471420">
        <ele>593.4</ele>
        <time>2019-08-11T18:12:04Z</time>
      </trkpt>
      <trkpt lat="39.0439270" lon="-4.0470570">
        <ele>593.4</ele>
        <time>2019-08-11T18:12:05Z</time>
      </trkpt>
      <trkpt lat="39.0438840" lon="-4.0469720">
        <ele>593.3</ele>
        <time>2019-08-11T18:12:06Z</time>
      </trkpt>
      <trkpt lat="39.0438410" lon="-4.0468870">
        <ele>593.2</ele>
        <time>2019-08-11T18:12:07Z</time>
      </trkpt>
      <trkpt lat="39.0437980" lon="-4.0468010">
        <ele>593.1</ele>
        <time>2019-08-11T18:12:08Z</time>
      </trkpt>
      <trkpt lat="39.0437540" lon="-4.0467140">
        <ele>593.1</ele>
        <time>2019-08-11T18:12:09Z</time>
      </trkpt>
      <trkpt lat="39.0437090" lon="-4.0466260">
        <ele>593.0</ele>
        <time>2019-08-11T18:12:10Z</time>
      </trkpt>
      <trkpt lat="39.0436640" lon="-4.0465370">
        <ele>592.9</ele>
        <time>2019-08-11T18:12:11Z</time>
      </trkpt>
      <trkpt lat="39.0436190" lon="-4.0464470">
        <ele>592.8</ele>
        <time>2019-08-11T18:12:12Z</time>
      </trkpt>
      <trkpt lat="39.0435730" lon="-4.0463560">
        <ele>592.7</ele>
        <time>2019-08-11T18:12:13Z</time>
      </trkpt>
      <trkpt lat="39.0435270" lon="-4.0462650">
        <ele>592.6</ele>
        <time>2019-08-11T18:12:14Z</time>
      </trkpt>
      <trkpt lat="39.0434800" lon="-4.0461730">
        <ele>592.2</ele>
        <time>2019-08-11T18:12:15Z</time>
      </trkpt>
      <trkpt lat="39.0434330" lon="-4.0460800">
        <ele>592.0</ele>
        <time>2019-08-11T18:12:16Z</time>
      </trkpt>
      <trkpt lat="39.0433850" lon="-4.0459880">
        <ele>591.8</ele>
        <time>2019-08-11T18:12:17Z</time>
      </trkpt>
      <trkpt lat="39.0433380" lon="-4.0458960">
        <ele>591.7</ele>
        <time>2019-08-11T18:12:18Z</time>
      </trkpt>
      <trkpt lat="39.0432900" lon="-4.0458030">
        <ele>591.5</ele>
        <time>2019-08-11T18:12:19Z</time>
      </trkpt>
      <trkpt lat="39.0432420" lon="-4.0457110">
        <ele>591.3</ele>
        <time>2019-08-11T18:12:20Z</time>
      </trkpt>
      <trkpt lat="39.0431940" lon="-4.0456200">
        <ele>591.1</ele>
        <time>2019-08-11T18:12:21Z</time>
      </trkpt>
      <trkpt lat="39.0431470" lon="-4.0455290">
        <ele>590.9</ele>
        <time>2019-08-11T18:12:22Z</time>
      </trkpt>
      <trkpt lat="39.0431010" lon="-4.0454390">
        <ele>590.7</ele>
        <time>2019-08-11T18:12:23Z</time>
      </trkpt>
      <trkpt lat="39.0430560" lon="-4.0453490">
        <ele>590.5</ele>
        <time>2019-08-11T18:12:24Z</time>
      </trkpt>
      <trkpt lat="39.0430110" lon="-4.0452600">
        <ele>590.3</ele>
        <time>2019-08-11T18:12:25Z</time>
      </trkpt>
      <trkpt lat="39.0429680" lon="-4.0451710">
        <ele>590.1</ele>
        <time>2019-08-11T18:12:26Z</time>
      </trkpt>
      <trkpt lat="39.0429260" lon="-4.0450810">
        <ele>590.0</ele>
        <time>2019-08-11T18:12:27Z</time>
      </trkpt>
      <trkpt lat="39.0428850" lon="-4.0449910">
        <ele>589.8</ele>
        <time>2019-08-11T18:12:28Z</time>
      </trkpt>
      <trkpt lat="39.0428450" lon="-4.0448990">
        <ele>589.7</ele>
        <time>2019-08-11T18:12:29Z</time>
      </trkpt>
      <trkpt lat="39.0428070" lon="-4.0448060">
        <ele>589.6</ele>
        <time>2019-08-11T18:12:30Z</time>
      </trkpt>
      <trkpt lat="39.0427700" lon="-4.0447110">
        <ele>589.5</ele>
        <time>2019-08-11T18:12:31Z</time>
      </trkpt>
      <trkpt lat="39.0427360" lon="-4.0446140">
        <ele>589.4</ele>
        <time>2019-08-11T18:12:32Z</time>
      </trkpt>
      <trkpt lat="39.0427040" lon="-4.0445150">
        <ele>589.4</ele>
        <time>2019-08-11T18:12:33Z</time>
      </trkpt>
      <trkpt lat="39.0426740" lon="-4.0444150">
        <ele>589.3</ele>
        <time>2019-08-11T18:12:34Z</time>
      </trkpt>
      <trkpt lat="39.0426470" lon="-4.0443130">
        <ele>589.1</ele>
        <time>2019-08-11T18:12:35Z</time>
      </trkpt>
      <trkpt lat="39.0426220" lon="-4.0442110">
        <ele>589.0</ele>
        <time>2019-08-11T18:12:36Z</time>
      </trkpt>
      <trkpt lat="39.0425990" lon="-4.0441080">
        <ele>588.9</ele>
        <time>2019-08-11T18:12:37Z</time>
      </trkpt>
      <trkpt lat="39.0425780" lon="-4.0440050">
        <ele>588.7</ele>
        <time>2019-08-11T18:12:38Z</time>
      </trkpt>
      <trkpt lat="39.0425580" lon="-4.0439000">
        <ele>588.6</ele>
        <time>2019-08-11T18:12:39Z</time>
      </trkpt>
      <trkpt lat="39.0425400" lon="-4.0437950">
        <ele>588.4</ele>
        <time>2019-08-11T18:12:40Z</time>
      </trkpt>
      <trkpt lat="39.0425230" lon="-4.0436900">
        <ele>588.2</ele>
        <time>2019-08-11T18:12:41Z</time>
      </trkpt>
      <trkpt lat="39.0425070" lon="-4.0435840">
        <ele>588.1</ele>
        <time>2019-08-11T18:12:42Z</time>
      </trkpt>
      <trkpt lat="39.0424920" lon="-4.0434780">
        <ele>588.0</ele>
        <time>2019-08-11T18:12:43Z</time>
      </trkpt>
      <trkpt lat="39.0424760" lon="-4.0433710">
        <ele>587.8</ele>
        <time>2019-08-11T18:12:44Z</time>
      </trkpt>
      <trkpt lat="39.0424610" lon="-4.0432640">
        <ele>587.7</ele>
        <time>2019-08-11T18:12:45Z</time>
      </trkpt>
      <trkpt lat="39.0424460" lon="-4.0431570">
        <ele>587.6</ele>
        <time>2019-08-11T18:12:46Z</time>
      </trkpt>
      <trkpt lat="39.0424310" lon="-4.0430500">
        <ele>587.5</ele>
        <time>2019-08-11T18:12:47Z</time>
      </trkpt>
      <trkpt lat="39.0424160" lon="-4.0429440">
        <ele>587.3</ele>
        <time>2019-08-11T18:12:48Z</time>
      </trkpt>
      <trkpt lat="39.0424010" lon="-4.0428380">
        <ele>587.2</ele>
        <time>2019-08-11T18:12:49Z</time>
      </trkpt>
      <trkpt lat="39.0423860" lon="-4.0427330">
        <ele>587.1</ele>
        <time>2019-08-11T18:12:50Z</time>
      </trkpt>
      <trkpt lat="39.0423720" lon="-4.0426280">
        <ele>587.0</ele>
        <time>2019-08-11T18:12:51Z</time>
      </trkpt>
      <trkpt lat="39.0423570" lon="-4.0425250">
        <ele>586.9</ele>
        <time>2019-08-11T18:12:52Z</time>
      </trkpt>
      <trkpt lat="39.0423440" lon="-4.0424220">
        <ele>586.8</ele>
        <time>2019-08-11T18:12:53Z</time>
      </trkpt>
      <trkpt lat="39.0423300" lon="-4.0423210">
        <ele>586.7</ele>
        <time>2019-08-11T18:12:54Z</time>
      </trkpt>
      <trkpt lat="39.0423170" lon="-4.0422210">
        <ele>586.6</ele>
        <time>2019-08-11T18:12:55Z</time>
      </trkpt>
      <trkpt lat="39.0423030" lon="-4.0421220">
        <ele>586.6</ele>
        <time>2019-08-11T18:12:56Z</time>
      </trkpt>
      <trkpt lat="39.0422900" lon="-4.0420240">
        <ele>586.5</ele>
        <time>2019-08-11T18:12:57Z</time>
      </trkpt>
      <trkpt lat="39.0422770" lon="-4.0419260">
        <ele>586.5</ele>
        <time>2019-08-11T18:12:58Z</time>
      </trkpt>
      <trkpt lat="39.0422630" lon="-4.0418280">
        <ele>586.5</ele>
        <time>2019-08-11T18:12:59Z</time>
      </trkpt>
      <trkpt lat="39.0422500" lon="-4.0417310">
        <ele>586.5</ele>
        <time>2019-08-11T18:13:00Z</time>
      </trkpt>
      <trkpt lat="39.0422360" lon="-4.0416340">
        <ele>586.5</ele>
        <time>2019-08-11T18:13:01Z</time>
      </trkpt>
      <trkpt lat="39.0422220" lon="-4.0415380">
        <ele>586.5</ele>
        <time>2019-08-11T18:13:02Z</time>
      </trkpt>
      <trkpt lat="39.0422080" lon="-4.0414410">
        <ele>586.5</ele>
        <time>2019-08-11T18:13:03Z</time>
      </trkpt>
      <trkpt lat="39.0421940" lon="-4.0413440">
        <ele>586.6</ele>
        <time>2019-08-11T18:13:04Z</time>
      </trkpt>
      <trkpt lat="39.0421800" lon="-4.0412470">
        <ele>586.7</ele>
        <time>2019-08-11T18:13:05Z</time>
      </trkpt>
      <trkpt lat="39.0421670" lon="-4.0411500">
        <ele>586.8</ele>
        <time>2019-08-11T18:13:06Z</time>
      </trkpt>
      <trkpt lat="39.0421540" lon="-4.0410530">
        <ele>586.8</ele>
        <time>2019-08-11T18:13:07Z</time>
      </trkpt>
      <trkpt lat="39.0421420" lon="-4.0409550">
        <ele>586.9</ele>
        <time>2019-08-11T18:13:08Z</time>
      </trkpt>
      <trkpt lat="39.0421310" lon="-4.0408570">
        <ele>587.0</ele>
        <time>2019-08-11T18:13:09Z</time>
      </trkpt>
      <trkpt lat="39.0421210" lon="-4.0407580">
        <ele>587.1</ele>
        <time>2019-08-11T18:13:10Z</time>
      </trkpt>
      <trkpt lat="39.0421110" lon="-4.0406590">
        <ele>587.2</ele>
        <time>2019-08-11T18:13:11Z</time>
      </trkpt>
      <trkpt lat="39.0421030" lon="-4.0405600">
        <ele>587.3</ele>
        <time>2019-08-11T18:13:12Z</time>
      </trkpt>
      <trkpt lat="39.0420950" lon="-4.0404600">
        <ele>587.3</ele>
        <time>2019-08-11T18:13:13Z</time>
      </trkpt>
      <trkpt lat="39.0420890" lon="-4.0403590">
        <ele>587.4</ele>
        <time>2019-08-11T18:13:14Z</time>
      </trkpt>
      <trkpt lat="39.0420830" lon="-4.0402580">
        <ele>587.5</ele>
        <time>2019-08-11T18:13:15Z</time>
      </trkpt>
      <trkpt lat="39.0420770" lon="-4.0401570">
        <ele>587.6</ele>
        <time>2019-08-11T18:13:16Z</time>
      </trkpt>
      <trkpt lat="39.0420720" lon="-4.0400550">
        <ele>587.6</ele>
        <time>2019-08-11T18:13:17Z</time>
      </trkpt>
      <trkpt lat="39.0420680" lon="-4.0399530">
        <ele>587.7</ele>
        <time>2019-08-11T18:13:18Z</time>
      </trkpt>
      <trkpt lat="39.0420640" lon="-4.0398510">
        <ele>587.7</ele>
        <time>2019-08-11T18:13:19Z</time>
      </trkpt>
      <trkpt lat="39.0420610" lon="-4.0397490">
        <ele>587.8</ele>
        <time>2019-08-11T18:13:20Z</time>
      </trkpt>
      <trkpt lat="39.0420570" lon="-4.0396460">
        <ele>587.8</ele>
        <time>2019-08-11T18:13:21Z</time>
      </trkpt>
      <trkpt lat="39.0420540" lon="-4.0395440">
        <ele>587.8</ele>
        <time>2019-08-11T18:13:22Z</time>
      </trkpt>
      <trkpt lat="39.0420510" lon="-4.0394410">
        <ele>587.8</ele>
        <time>2019-08-11T18:13:23Z</time>
      </trkpt>
      <trkpt lat="39.0420480" lon="-4.0393380">
        <ele>587.8</ele>
        <time>2019-08-11T18:13:24Z</time>
      </trkpt>
      <trkpt lat="39.0420450" lon="-4.0392350">
        <ele>587.9</ele>
        <time>2019-08-11T18:13:25Z</time>
      </trkpt>
      <trkpt lat="39.0420430" lon="-4.0391320">
        <ele>587.9</ele>
        <time>2019-08-11T18:13:26Z</time>
      </trkpt>
      <trkpt lat="39.0420400" lon="-4.0390290">
        <ele>587.9</ele>
        <time>2019-08-11T18:13:27Z</time>
      </trkpt>
      <trkpt lat="39.0420360" lon="-4.0389260">
        <ele>588.0</ele>
        <time>2019-08-11T18:13:28Z</time>
      </trkpt>
      <trkpt lat="39.0420330" lon="-4.0388230">
        <ele>588.0</ele>
        <time>2019-08-11T18:13:29Z</time>
      </trkpt>
      <trkpt lat="39.0420300" lon="-4.0387210">
        <ele>588.0</ele>
        <time>2019-08-11T18:13:30Z</time>
      </trkpt>
      <trkpt lat="39.0420260" lon="-4.0386180">
        <ele>588.1</ele>
        <time>2019-08-11T18:13:31Z</time>
      </trkpt>
      <trkpt lat="39.0420230" lon="-4.0385160">
        <ele>588.1</ele>
        <time>2019-08-11T18:13:32Z</time>
      </trkpt>
      <trkpt lat="39.0420190" lon="-4.0384130">
        <ele>588.1</ele>
        <time>2019-08-11T18:13:33Z</time>
      </trkpt>
      <trkpt lat="39.0420150" lon="-4.0383120">
        <ele>588.2</ele>
        <time>2019-08-11T18:13:34Z</time>
      </trkpt>
      <trkpt lat="39.0420110" lon="-4.0382100">
        <ele>588.2</ele>
        <time>2019-08-11T18:13:35Z</time>
      </trkpt>
      <trkpt lat="39.0420070" lon="-4.0381090">
        <ele>588.3</ele>
        <time>2019-08-11T18:13:36Z</time>
      </trkpt>
      <trkpt lat="39.0420030" lon="-4.0380070">
        <ele>588.3</ele>
        <time>2019-08-11T18:13:37Z</time>
      </trkpt>
      <trkpt lat="39.0419990" lon="-4.0379070">
        <ele>588.3</ele>
        <time>2019-08-11T18:13:38Z</time>
      </trkpt>
      <trkpt lat="39.0419950" lon="-4.0378060">
        <ele>588.4</ele>
        <time>2019-08-11T18:13:39Z</time>
      </trkpt>
      <trkpt lat="39.0419910" lon="-4.0377050">
        <ele>588.4</ele>
        <time>2019-08-11T18:13:40Z</time>
      </trkpt>
      <trkpt lat="39.0419870" lon="-4.0376050">
        <ele>588.5</ele>
        <time>2019-08-11T18:13:41Z</time>
      </trkpt>
      <trkpt lat="39.0419830" lon="-4.0375040">
        <ele>588.5</ele>
        <time>2019-08-11T18:13:42Z</time>
      </trkpt>
      <trkpt lat="39.0419790" lon="-4.0374040">
        <ele>588.6</ele>
        <time>2019-08-11T18:13:43Z</time>
      </trkpt>
      <trkpt lat="39.0419750" lon="-4.0373030">
        <ele>588.7</ele>
        <time>2019-08-11T18:13:44Z</time>
      </trkpt>
      <trkpt lat="39.0419710" lon="-4.0372020">
        <ele>588.8</ele>
        <time>2019-08-11T18:13:45Z</time>
      </trkpt>
      <trkpt lat="39.0419670" lon="-4.0371010">
        <ele>588.9</ele>
        <time>2019-08-11T18:13:46Z</time>
      </trkpt>
      <trkpt lat="39.0419640" lon="-4.0370000">
        <ele>589.0</ele>
        <time>2019-08-11T18:13:47Z</time>
      </trkpt>
      <trkpt lat="39.0419600" lon="-4.0368990">
        <ele>589.0</ele>
        <time>2019-08-11T18:13:48Z</time>
      </trkpt>
      <trkpt lat="39.0419570" lon="-4.0367970">
        <ele>589.1</ele>
        <time>2019-08-11T18:13:49Z</time>
      </trkpt>
      <trkpt lat="39.0419530" lon="-4.0366950">
        <ele>589.2</ele>
        <time>2019-08-11T18:13:50Z</time>
      </trkpt>
      <trkpt lat="39.0419500" lon="-4.0365930">
        <ele>589.3</ele>
        <time>2019-08-11T18:13:51Z</time>
      </trkpt>
      <trkpt lat="39.0419460" lon="-4.0364910">
        <ele>589.3</ele>
        <time>2019-08-11T18:13:52Z</time>
      </trkpt>
      <trkpt lat="39.0419430" lon="-4.0363880">
        <ele>589.4</ele>
        <time>2019-08-11T18:13:53Z</time>
      </trkpt>
      <trkpt lat="39.0419390" lon="-4.0362850">
        <ele>589.4</ele>
        <time>2019-08-11T18:13:54Z</time>
      </trkpt>
      <trkpt lat="39.0419360" lon="-4.0361820">
        <ele>589.4</ele>
        <time>2019-08-11T18:13:55Z</time>
      </trkpt>
      <trkpt lat="39.0419320" lon="-4.0360790">
        <ele>589.4</ele>
        <time>2019-08-11T18:13:56Z</time>
      </trkpt>
      <trkpt lat="39.0419280" lon="-4.0359750">
        <ele>589.4</ele>
        <time>2019-08-11T18:13:57Z</time>
      </trkpt>
      <trkpt lat="39.0419250" lon="-4.0358700">
        <ele>589.4</ele>
        <time>2019-08-11T18:13:58Z</time>
      </trkpt>
      <trkpt lat="39.0419210" lon="-4.0357660">
        <ele>589.4</ele>
        <time>2019-08-11T18:13:59Z</time>
      </trkpt>
      <trkpt lat="39.0419170" lon="-4.0356600">
        <ele>589.4</ele>
        <time>2019-08-11T18:14:00Z</time>
      </trkpt>
      <trkpt lat="39.0419130" lon="-4.0355550">
        <ele>589.4</ele>
        <time>2019-08-11T18:14:01Z</time>
      </trkpt>
      <trkpt lat="39.0419090" lon="-4.0354490">
        <ele>589.3</ele>
        <time>2019-08-11T18:14:02Z</time>
      </trkpt>
      <trkpt lat="39.0419050" lon="-4.0353420">
        <ele>589.3</ele>
        <time>2019-08-11T18:14:03Z</time>
      </trkpt>
      <trkpt lat="39.0419000" lon="-4.0352350">
        <ele>589.2</ele>
        <time>2019-08-11T18:14:04Z</time>
      </trkpt>
      <trkpt lat="39.0418960" lon="-4.0351280">
        <ele>589.2</ele>
        <time>2019-08-11T18:14:05Z</time>
      </trkpt>
      <trkpt lat="39.0418920" lon="-4.0350210">
        <ele>589.1</ele>
        <time>2019-08-11T18:14:06Z</time>
      </trkpt>
      <trkpt lat="39.0418880" lon="-4.0349130">
        <ele>589.0</ele>
        <time>2019-08-11T18:14:07Z</time>
      </trkpt>
      <trkpt lat="39.0418840" lon="-4.0348040">
        <ele>589.0</ele>
        <time>2019-08-11T18:14:08Z</time>
      </trkpt>
      <trkpt lat="39.0418800" lon="-4.0346960">
        <ele>588.9</ele>
        <time>2019-08-11T18:14:09Z</time>
      </trkpt>
      <trkpt lat="39.0418770" lon="-4.0345870">
        <ele>588.9</ele>
        <time>2019-08-11T18:14:10Z</time>
      </trkpt>
      <trkpt lat="39.0418730" lon="-4.0344780">
        <ele>588.9</ele>
        <time>2019-08-11T18:14:11Z</time>
      </trkpt>
      <trkpt lat="39.0418700" lon="-4.0343690">
        <ele>588.8</ele>
        <time>2019-08-11T18:14:12Z</time>
      </trkpt>
      <trkpt lat="39.0418670" lon="-4.0342590">
        <ele>588.8</ele>
        <time>2019-08-11T18:14:13Z</time>
      </trkpt>
      <trkpt lat="39.0418640" lon="-4.0341490">
        <ele>588.8</ele>
        <time>2019-08-11T18:14:14Z</time>
      </trkpt>
      <trkpt lat="39.0418610" lon="-4.0340390">
        <ele>588.8</ele>
        <time>2019-08-11T18:14:15Z</time>
      </trkpt>
      <trkpt lat="39.0418590" lon="-4.0339290">
        <ele>588.8</ele>
        <time>2019-08-11T18:14:16Z</time>
      </trkpt>
      <trkpt lat="39.0418580" lon="-4.0338190">
        <ele>588.7</ele>
        <time>2019-08-11T18:14:17Z</time>
      </trkpt>
      <trkpt lat="39.0418560" lon="-4.0337080">
        <ele>588.7</ele>
        <time>2019-08-11T18:14:18Z</time>
      </trkpt>
      <trkpt lat="39.0418550" lon="-4.0335980">
        <ele>588.6</ele>
        <time>2019-08-11T18:14:19Z</time>
      </trkpt>
      <trkpt lat="39.0418550" lon="-4.0334870">
        <ele>588.6</ele>
        <time>2019-08-11T18:14:20Z</time>
      </trkpt>
      <trkpt lat="39.0418550" lon="-4.0333760">
        <ele>588.5</ele>
        <time>2019-08-11T18:14:21Z</time>
      </trkpt>
      <trkpt lat="39.0418560" lon="-4.0332660">
        <ele>588.5</ele>
        <time>2019-08-11T18:14:22Z</time>
      </trkpt>
      <trkpt lat="39.0418580" lon="-4.0331550">
        <ele>588.4</ele>
        <time>2019-08-11T18:14:23Z</time>
      </trkpt>
      <trkpt lat="39.0418610" lon="-4.0330440">
        <ele>588.4</ele>
        <time>2019-08-11T18:14:24Z</time>
      </trkpt>
      <trkpt lat="39.0418650" lon="-4.0329330">
        <ele>588.4</ele>
        <time>2019-08-11T18:14:25Z</time>
      </trkpt>
      <trkpt lat="39.0418700" lon="-4.0328230">
        <ele>588.3</ele>
        <time>2019-08-11T18:14:26Z</time>
      </trkpt>
      <trkpt lat="39.0418760" lon="-4.0327120">
        <ele>588.3</ele>
        <time>2019-08-11T18:14:27Z</time>
      </trkpt>
      <trkpt lat="39.0418840" lon="-4.0326020">
        <ele>588.3</ele>
        <time>2019-08-11T18:14:28Z</time>
      </trkpt>
      <trkpt lat="39.0418930" lon="-4.0324910">
        <ele>588.2</ele>
        <time>2019-08-11T18:14:29Z</time>
      </trkpt>
      <trkpt lat="39.0419030" lon="-4.0323810">
        <ele>588.2</ele>
        <time>2019-08-11T18:14:30Z</time>
      </trkpt>
      <trkpt lat="39.0419150" lon="-4.0322700">
        <ele>588.2</ele>
        <time>2019-08-11T18:14:31Z</time>
      </trkpt>
      <trkpt lat="39.0419270" lon="-4.0321600">
        <ele>588.2</ele>
        <time>2019-08-11T18:14:32Z</time>
      </trkpt>
      <trkpt lat="39.0419410" lon="-4.0320490">
        <ele>588.2</ele>
        <time>2019-08-11T18:14:33Z</time>
      </trkpt>
      <trkpt lat="39.0419550" lon="-4.0319380">
        <ele>588.2</ele>
        <time>2019-08-11T18:14:34Z</time>
      </trkpt>
      <trkpt lat="39.0419710" lon="-4.0318270">
        <ele>588.2</ele>
        <time>2019-08-11T18:14:35Z</time>
      </trkpt>
      <trkpt lat="39.0419870" lon="-4.0317160">
        <ele>588.2</ele>
        <time>2019-08-11T18:14:36Z</time>
      </trkpt>
      <trkpt lat="39.0420040" lon="-4.0316050">
        <ele>588.2</ele>
        <time>2019-08-11T18:14:37Z</time>
      </trkpt>
      <trkpt lat="39.0420210" lon="-4.0314930">
        <ele>588.1</ele>
        <time>2019-08-11T18:14:38Z</time>
      </trkpt>
      <trkpt lat="39.0420370" lon="-4.0313810">
        <ele>588.1</ele>
        <time>2019-08-11T18:14:39Z</time>
      </trkpt>
      <trkpt lat="39.0420520" lon="-4.0312690">
        <ele>588.1</ele>
        <time>2019-08-11T18:14:40Z</time>
      </trkpt>
      <trkpt lat="39.0420670" lon="-4.0311560">
        <ele>588.0</ele>
        <time>2019-08-11T18:14:41Z</time>
      </trkpt>
      <trkpt lat="39.0420790" lon="-4.0310430">
        <ele>588.0</ele>
        <time>2019-08-11T18:14:42Z</time>
      </trkpt>
      <trkpt lat="39.0420900" lon="-4.0309290">
        <ele>588.0</ele>
        <time>2019-08-11T18:14:43Z</time>
      </trkpt>
      <trkpt lat="39.0420980" lon="-4.0308150">
        <ele>587.9</ele>
        <time>2019-08-11T18:14:44Z</time>
      </trkpt>
      <trkpt lat="39.0421030" lon="-4.0307000">
        <ele>587.9</ele>
        <time>2019-08-11T18:14:45Z</time>
      </trkpt>
      <trkpt lat="39.0421050" lon="-4.0305850">
        <ele>587.8</ele>
        <time>2019-08-11T18:14:46Z</time>
      </trkpt>
      <trkpt lat="39.0421040" lon="-4.0304700">
        <ele>587.8</ele>
        <time>2019-08-11T18:14:47Z</time>
      </trkpt>
      <trkpt lat="39.0420980" lon="-4.0303550">
        <ele>587.7</ele>
        <time>2019-08-11T18:14:48Z</time>
      </trkpt>
      <trkpt lat="39.0420880" lon="-4.0302410">
        <ele>587.6</ele>
        <time>2019-08-11T18:14:49Z</time>
      </trkpt>
      <trkpt lat="39.0420730" lon="-4.0301280">
        <ele>587.5</ele>
        <time>2019-08-11T18:14:50Z</time>
      </trkpt>
      <trkpt lat="39.0420530" lon="-4.0300170">
        <ele>587.4</ele>
        <time>2019-08-11T18:14:51Z</time>
      </trkpt>
      <trkpt lat="39.0420280" lon="-4.0299080">
        <ele>587.3</ele>
        <time>2019-08-11T18:14:52Z</time>
      </trkpt>
      <trkpt lat="39.0419970" lon="-4.0298000">
        <ele>587.2</ele>
        <time>2019-08-11T18:14:53Z</time>
      </trkpt>
      <trkpt lat="39.0419610" lon="-4.0296960">
        <ele>587.1</ele>
        <time>2019-08-11T18:14:54Z</time>
      </trkpt>
      <trkpt lat="39.0419200" lon="-4.0295950">
        <ele>587.0</ele>
        <time>2019-08-11T18:14:55Z</time>
      </trkpt>
      <trkpt lat="39.0418750" lon="-4.0294980">
        <ele>586.9</ele>
        <time>2019-08-11T18:14:56Z</time>
      </trkpt>
      <trkpt lat="39.0418260" lon="-4.0294050">
        <ele>586.8</ele>
        <time>2019-08-11T18:14:57Z</time>
      </trkpt>
      <trkpt lat="39.0417740" lon="-4.0293180">
        <ele>586.6</ele>
        <time>2019-08-11T18:14:58Z</time>
      </trkpt>
      <trkpt lat="39.0417180" lon="-4.0292350">
        <ele>586.6</ele>
        <time>2019-08-11T18:14:59Z</time>
      </trkpt>
      <trkpt lat="39.0416610" lon="-4.0291560">
        <ele>586.3</ele>
        <time>2019-08-11T18:15:00Z</time>
      </trkpt>
      <trkpt lat="39.0416020" lon="-4.0290790">
        <ele>586.0</ele>
        <time>2019-08-11T18:15:01Z</time>
      </trkpt>
      <trkpt lat="39.0415410" lon="-4.0290060">
        <ele>585.7</ele>
        <time>2019-08-11T18:15:02Z</time>
      </trkpt>
      <trkpt lat="39.0414800" lon="-4.0289340">
        <ele>585.4</ele>
        <time>2019-08-11T18:15:03Z</time>
      </trkpt>
      <trkpt lat="39.0414180" lon="-4.0288640">
        <ele>585.0</ele>
        <time>2019-08-11T18:15:04Z</time>
      </trkpt>
      <trkpt lat="39.0413560" lon="-4.0287950">
        <ele>584.6</ele>
        <time>2019-08-11T18:15:05Z</time>
      </trkpt>
      <trkpt lat="39.0412930" lon="-4.0287280">
        <ele>584.5</ele>
        <time>2019-08-11T18:15:06Z</time>
      </trkpt>
      <trkpt lat="39.0412300" lon="-4.0286610">
        <ele>584.7</ele>
        <time>2019-08-11T18:15:07Z</time>
      </trkpt>
      <trkpt lat="39.0411670" lon="-4.0285960">
        <ele>584.7</ele>
        <time>2019-08-11T18:15:08Z</time>
      </trkpt>
      <trkpt lat="39.0411050" lon="-4.0285310">
        <ele>584.8</ele>
        <time>2019-08-11T18:15:09Z</time>
      </trkpt>
      <trkpt lat="39.0410430" lon="-4.0284660">
        <ele>584.8</ele>
        <time>2019-08-11T18:15:10Z</time>
      </trkpt>
      <trkpt lat="39.0409820" lon="-4.0284010">
        <ele>584.6</ele>
        <time>2019-08-11T18:15:11Z</time>
      </trkpt>
      <trkpt lat="39.0409220" lon="-4.0283370">
        <ele>584.4</ele>
        <time>2019-08-11T18:15:12Z</time>
      </trkpt>
      <trkpt lat="39.0408620" lon="-4.0282730">
        <ele>584.0</ele>
        <time>2019-08-11T18:15:13Z</time>
      </trkpt>
      <trkpt lat="39.0408020" lon="-4.0282080">
        <ele>583.4</ele>
        <time>2019-08-11T18:15:14Z</time>
      </trkpt>
      <trkpt lat="39.0407420" lon="-4.0281450">
        <ele>582.8</ele>
        <time>2019-08-11T18:15:15Z</time>
      </trkpt>
      <trkpt lat="39.0406830" lon="-4.0280810">
        <ele>582.2</ele>
        <time>2019-08-11T18:15:16Z</time>
      </trkpt>
      <trkpt lat="39.0406230" lon="-4.0280170">
        <ele>581.6</ele>
        <time>2019-08-11T18:15:17Z</time>
      </trkpt>
      <trkpt lat="39.0405640" lon="-4.0279530">
        <ele>581.2</ele>
        <time>2019-08-11T18:15:18Z</time>
      </trkpt>
      <trkpt lat="39.0405050" lon="-4.0278900">
        <ele>581.0</ele>
        <time>2019-08-11T18:15:19Z</time>
      </trkpt>
      <trkpt lat="39.0404460" lon="-4.0278270">
        <ele>580.9</ele>
        <time>2019-08-11T18:15:20Z</time>
      </trkpt>
      <trkpt lat="39.0403480" lon="-4.0277220">
        <ele>580.8</ele>
        <time>2019-08-11T18:15:21Z</time>
      </trkpt>
      <trkpt lat="39.0403080" lon="-4.0276810">
        <ele>580.9</ele>
        <time>2019-08-11T18:15:22Z</time>
      </trkpt>
      <trkpt lat="39.0402690" lon="-4.0276390">
        <ele>580.9</ele>
        <time>2019-08-11T18:15:23Z</time>
      </trkpt>
      <trkpt lat="39.0402110" lon="-4.0275770">
        <ele>581.1</ele>
        <time>2019-08-11T18:15:24Z</time>
      </trkpt>
      <trkpt lat="39.0401540" lon="-4.0275160">
        <ele>581.9</ele>
        <time>2019-08-11T18:15:25Z</time>
      </trkpt>
      <trkpt lat="39.0400600" lon="-4.0274120">
        <ele>583.3</ele>
        <time>2019-08-11T18:15:26Z</time>
      </trkpt>
      <trkpt lat="39.0400230" lon="-4.0273690">
        <ele>583.7</ele>
        <time>2019-08-11T18:15:27Z</time>
      </trkpt>
      <trkpt lat="39.0399860" lon="-4.0273270">
        <ele>584.1</ele>
        <time>2019-08-11T18:15:28Z</time>
      </trkpt>
      <trkpt lat="39.0399320" lon="-4.0272600">
        <ele>584.7</ele>
        <time>2019-08-11T18:15:29Z</time>
      </trkpt>
      <trkpt lat="39.0398800" lon="-4.0271920">
        <ele>585.4</ele>
        <time>2019-08-11T18:15:30Z</time>
      </trkpt>
      <trkpt lat="39.0398290" lon="-4.0271230">
        <ele>586.5</ele>
        <time>2019-08-11T18:15:31Z</time>
      </trkpt>
      <trkpt lat="39.0397810" lon="-4.0270530">
        <ele>586.7</ele>
        <time>2019-08-11T18:15:32Z</time>
      </trkpt>
      <trkpt lat="39.0397340" lon="-4.0269820">
        <ele>586.8</ele>
        <time>2019-08-11T18:15:33Z</time>
      </trkpt>
      <trkpt lat="39.0396900" lon="-4.0269090">
        <ele>587.0</ele>
        <time>2019-08-11T18:15:34Z</time>
      </trkpt>
      <trkpt lat="39.0396480" lon="-4.0268360">
        <ele>587.2</ele>
        <time>2019-08-11T18:15:35Z</time>
      </trkpt>
      <trkpt lat="39.0396090" lon="-4.0267620">
        <ele>587.4</ele>
        <time>2019-08-11T18:15:36Z</time>
      </trkpt>
      <trkpt lat="39.0395720" lon="-4.0266880">
        <ele>587.6</ele>
        <time>2019-08-11T18:15:37Z</time>
      </trkpt>
      <trkpt lat="39.0395390" lon="-4.0266140">
        <ele>587.7</ele>
        <time>2019-08-11T18:15:38Z</time>
      </trkpt>
      <trkpt lat="39.0395080" lon="-4.0265390">
        <ele>587.9</ele>
        <time>2019-08-11T18:15:39Z</time>
      </trkpt>
      <trkpt lat="39.0394800" lon="-4.0264640">
        <ele>588.1</ele>
        <time>2019-08-11T18:15:40Z</time>
      </trkpt>
      <trkpt lat="39.0394550" lon="-4.0263890">
        <ele>588.3</ele>
        <time>2019-08-11T18:15:41Z</time>
      </trkpt>
      <trkpt lat="39.0394310" lon="-4.0263140">
        <ele>588.5</ele>
        <time>2019-08-11T18:15:42Z</time>
      </trkpt>
      <trkpt lat="39.0394090" lon="-4.0262390">
        <ele>588.8</ele>
        <time>2019-08-11T18:15:43Z</time>
      </trkpt>
      <trkpt lat="39.0393900" lon="-4.0261640">
        <ele>589.0</ele>
        <time>2019-08-11T18:15:44Z</time>
      </trkpt>
      <trkpt lat="39.0393720" lon="-4.0260900">
        <ele>589.3</ele>
        <time>2019-08-11T18:15:45Z</time>
      </trkpt>
      <trkpt lat="39.0393560" lon="-4.0260160">
        <ele>589.5</ele>
        <time>2019-08-11T18:15:46Z</time>
      </trkpt>
      <trkpt lat="39.0393420" lon="-4.0259420">
        <ele>589.7</ele>
        <time>2019-08-11T18:15:47Z</time>
      </trkpt>
      <trkpt lat="39.0393300" lon="-4.0258680">
        <ele>589.9</ele>
        <time>2019-08-11T18:15:48Z</time>
      </trkpt>
      <trkpt lat="39.0393190" lon="-4.0257950">
        <ele>590.0</ele>
        <time>2019-08-11T18:15:49Z</time>
      </trkpt>
      <trkpt lat="39.0393100" lon="-4.0257210">
        <ele>590.2</ele>
        <time>2019-08-11T18:15:50Z</time>
      </trkpt>
      <trkpt lat="39.0393030" lon="-4.0256480">
        <ele>590.4</ele>
        <time>2019-08-11T18:15:51Z</time>
      </trkpt>
      <trkpt lat="39.0392970" lon="-4.0255740">
        <ele>590.6</ele>
        <time>2019-08-11T18:15:52Z</time>
      </trkpt>
      <trkpt lat="39.0392930" lon="-4.0255000">
        <ele>590.8</ele>
        <time>2019-08-11T18:15:53Z</time>
      </trkpt>
      <trkpt lat="39.0392910" lon="-4.0254260">
        <ele>590.9</ele>
        <time>2019-08-11T18:15:54Z</time>
      </trkpt>
      <trkpt lat="39.0392910" lon="-4.0253520">
        <ele>591.1</ele>
        <time>2019-08-11T18:15:55Z</time>
      </trkpt>
      <trkpt lat="39.0392920" lon="-4.0252780">
        <ele>591.3</ele>
        <time>2019-08-11T18:15:56Z</time>
      </trkpt>
      <trkpt lat="39.0392950" lon="-4.0252030">
        <ele>591.5</ele>
        <time>2019-08-11T18:15:57Z</time>
      </trkpt>
      <trkpt lat="39.0393000" lon="-4.0251270">
        <ele>591.7</ele>
        <time>2019-08-11T18:15:58Z</time>
      </trkpt>
      <trkpt lat="39.0393060" lon="-4.0250510">
        <ele>591.9</ele>
        <time>2019-08-11T18:15:59Z</time>
      </trkpt>
      <trkpt lat="39.0393140" lon="-4.0249740">
        <ele>592.1</ele>
        <time>2019-08-11T18:16:00Z</time>
      </trkpt>
      <trkpt lat="39.0393230" lon="-4.0248970">
        <ele>592.4</ele>
        <time>2019-08-11T18:16:01Z</time>
      </trkpt>
      <trkpt lat="39.0393350" lon="-4.0248190">
        <ele>592.6</ele>
        <time>2019-08-11T18:16:02Z</time>
      </trkpt>
      <trkpt lat="39.0393470" lon="-4.0247400">
        <ele>592.8</ele>
        <time>2019-08-11T18:16:03Z</time>
      </trkpt>
      <trkpt lat="39.0393610" lon="-4.0246610">
        <ele>593.1</ele>
        <time>2019-08-11T18:16:04Z</time>
      </trkpt>
      <trkpt lat="39.0393760" lon="-4.0245810">
        <ele>593.3</ele>
        <time>2019-08-11T18:16:05Z</time>
      </trkpt>
      <trkpt lat="39.0393920" lon="-4.0245000">
        <ele>593.5</ele>
        <time>2019-08-11T18:16:06Z</time>
      </trkpt>
      <trkpt lat="39.0394090" lon="-4.0244190">
        <ele>593.7</ele>
        <time>2019-08-11T18:16:07Z</time>
      </trkpt>
      <trkpt lat="39.0394270" lon="-4.0243380">
        <ele>593.9</ele>
        <time>2019-08-11T18:16:08Z</time>
      </trkpt>
      <trkpt lat="39.0394580" lon="-4.0242010">
        <ele>594.0</ele>
        <time>2019-08-11T18:16:09Z</time>
      </trkpt>
      <trkpt lat="39.0394700" lon="-4.0241470">
        <ele>594.0</ele>
        <time>2019-08-11T18:16:10Z</time>
      </trkpt>
      <trkpt lat="39.0394830" lon="-4.0240920">
        <ele>594.1</ele>
        <time>2019-08-11T18:16:11Z</time>
      </trkpt>
      <trkpt lat="39.0395020" lon="-4.0240090">
        <ele>594.1</ele>
        <time>2019-08-11T18:16:12Z</time>
      </trkpt>
      <trkpt lat="39.0395210" lon="-4.0239270">
        <ele>594.1</ele>
        <time>2019-08-11T18:16:13Z</time>
      </trkpt>
      <trkpt lat="39.0395540" lon="-4.0237870">
        <ele>594.2</ele>
        <time>2019-08-11T18:16:14Z</time>
      </trkpt>
      <trkpt lat="39.0395670" lon="-4.0237320">
        <ele>594.2</ele>
        <time>2019-08-11T18:16:15Z</time>
      </trkpt>
      <trkpt lat="39.0395800" lon="-4.0236760">
        <ele>594.2</ele>
        <time>2019-08-11T18:16:16Z</time>
      </trkpt>
      <trkpt lat="39.0396000" lon="-4.0235910">
        <ele>594.3</ele>
        <time>2019-08-11T18:16:17Z</time>
      </trkpt>
      <trkpt lat="39.0396200" lon="-4.0235060">
        <ele>594.3</ele>
        <time>2019-08-11T18:16:18Z</time>
      </trkpt>
      <trkpt lat="39.0396390" lon="-4.0234210">
        <ele>594.4</ele>
        <time>2019-08-11T18:16:19Z</time>
      </trkpt>
      <trkpt lat="39.0396600" lon="-4.0233340">
        <ele>594.4</ele>
        <time>2019-08-11T18:16:20Z</time>
      </trkpt>
      <trkpt lat="39.0396800" lon="-4.0232480">
        <ele>594.5</ele>
        <time>2019-08-11T18:16:21Z</time>
      </trkpt>
      <trkpt lat="39.0397000" lon="-4.0231610">
        <ele>594.5</ele>
        <time>2019-08-11T18:16:22Z</time>
      </trkpt>
      <trkpt lat="39.0397200" lon="-4.0230730">
        <ele>594.6</ele>
        <time>2019-08-11T18:16:23Z</time>
      </trkpt>
      <trkpt lat="39.0397410" lon="-4.0229860">
        <ele>594.7</ele>
        <time>2019-08-11T18:16:24Z</time>
      </trkpt>
      <trkpt lat="39.0397620" lon="-4.0228970">
        <ele>594.8</ele>
        <time>2019-08-11T18:16:25Z</time>
      </trkpt>
      <trkpt lat="39.0397820" lon="-4.0228080">
        <ele>594.9</ele>
        <time>2019-08-11T18:16:26Z</time>
      </trkpt>
      <trkpt lat="39.0398030" lon="-4.0227190">
        <ele>595.0</ele>
        <time>2019-08-11T18:16:27Z</time>
      </trkpt>
      <trkpt lat="39.0398250" lon="-4.0226300">
        <ele>595.2</ele>
        <time>2019-08-11T18:16:28Z</time>
      </trkpt>
      <trkpt lat="39.0398460" lon="-4.0225400">
        <ele>595.3</ele>
        <time>2019-08-11T18:16:29Z</time>
      </trkpt>
      <trkpt lat="39.0398670" lon="-4.0224500">
        <ele>595.4</ele>
        <time>2019-08-11T18:16:30Z</time>
      </trkpt>
      <trkpt lat="39.0398890" lon="-4.0223600">
        <ele>595.5</ele>
        <time>2019-08-11T18:16:31Z</time>
      </trkpt>
      <trkpt lat="39.0399110" lon="-4.0222710">
        <ele>595.5</ele>
        <time>2019-08-11T18:16:32Z</time>
      </trkpt>
      <trkpt lat="39.0399320" lon="-4.0221810">
        <ele>595.6</ele>
        <time>2019-08-11T18:16:33Z</time>
      </trkpt>
      <trkpt lat="39.0399540" lon="-4.0220920">
        <ele>595.6</ele>
        <time>2019-08-11T18:16:34Z</time>
      </trkpt>
      <trkpt lat="39.0399750" lon="-4.0220030">
        <ele>595.7</ele>
        <time>2019-08-11T18:16:35Z</time>
      </trkpt>
      <trkpt lat="39.0399960" lon="-4.0219150">
        <ele>595.8</ele>
        <time>2019-08-11T18:16:36Z</time>
      </trkpt>
      <trkpt lat="39.0400170" lon="-4.0218270">
        <ele>595.8</ele>
        <time>2019-08-11T18:16:37Z</time>
      </trkpt>
      <trkpt lat="39.0400380" lon="-4.0217400">
        <ele>595.9</ele>
        <time>2019-08-11T18:16:38Z</time>
      </trkpt>
      <trkpt lat="39.0400590" lon="-4.0216540">
        <ele>596.0</ele>
        <time>2019-08-11T18:16:39Z</time>
      </trkpt>
      <trkpt lat="39.0400790" lon="-4.0215680">
        <ele>596.1</ele>
        <time>2019-08-11T18:16:40Z</time>
      </trkpt>
      <trkpt lat="39.0401000" lon="-4.0214820">
        <ele>596.2</ele>
        <time>2019-08-11T18:16:41Z</time>
      </trkpt>
      <trkpt lat="39.0401200" lon="-4.0213980">
        <ele>596.3</ele>
        <time>2019-08-11T18:16:42Z</time>
      </trkpt>
      <trkpt lat="39.0401400" lon="-4.0213130">
        <ele>596.4</ele>
        <time>2019-08-11T18:16:43Z</time>
      </trkpt>
      <trkpt lat="39.0401600" lon="-4.0212290">
        <ele>596.5</ele>
        <time>2019-08-11T18:16:44Z</time>
      </trkpt>
      <trkpt lat="39.0401800" lon="-4.0211460">
        <ele>596.6</ele>
        <time>2019-08-11T18:16:45Z</time>
      </trkpt>
      <trkpt lat="39.0402000" lon="-4.0210620">
        <ele>596.7</ele>
        <time>2019-08-11T18:16:46Z</time>
      </trkpt>
      <trkpt lat="39.0402200" lon="-4.0209790">
        <ele>596.8</ele>
        <time>2019-08-11T18:16:47Z</time>
      </trkpt>
      <trkpt lat="39.0402400" lon="-4.0208960">
        <ele>597.0</ele>
        <time>2019-08-11T18:16:48Z</time>
      </trkpt>
      <trkpt lat="39.0402600" lon="-4.0208140">
        <ele>597.1</ele>
        <time>2019-08-11T18:16:49Z</time>
      </trkpt>
      <trkpt lat="39.0402800" lon="-4.0207310">
        <ele>597.2</ele>
        <time>2019-08-11T18:16:50Z</time>
      </trkpt>
      <trkpt lat="39.0403000" lon="-4.0206480">
        <ele>597.3</ele>
        <time>2019-08-11T18:16:51Z</time>
      </trkpt>
      <trkpt lat="39.0403200" lon="-4.0205650">
        <ele>597.4</ele>
        <time>2019-08-11T18:16:52Z</time>
      </trkpt>
      <trkpt lat="39.0403400" lon="-4.0204820">
        <ele>597.5</ele>
        <time>2019-08-11T18:16:53Z</time>
      </trkpt>
      <trkpt lat="39.0403590" lon="-4.0203980">
        <ele>597.6</ele>
        <time>2019-08-11T18:16:54Z</time>
      </trkpt>
      <trkpt lat="39.0403790" lon="-4.0203140">
        <ele>597.7</ele>
        <time>2019-08-11T18:16:55Z</time>
      </trkpt>
      <trkpt lat="39.0403990" lon="-4.0202300">
        <ele>597.8</ele>
        <time>2019-08-11T18:16:56Z</time>
      </trkpt>
      <trkpt lat="39.0404190" lon="-4.0201460">
        <ele>597.8</ele>
        <time>2019-08-11T18:16:57Z</time>
      </trkpt>
      <trkpt lat="39.0404390" lon="-4.0200610">
        <ele>597.9</ele>
        <time>2019-08-11T18:16:58Z</time>
      </trkpt>
      <trkpt lat="39.0404590" lon="-4.0199770">
        <ele>597.9</ele>
        <time>2019-08-11T18:16:59Z</time>
      </trkpt>
      <trkpt lat="39.0404790" lon="-4.0198920">
        <ele>597.9</ele>
        <time>2019-08-11T18:17:00Z</time>
      </trkpt>
      <trkpt lat="39.0404990" lon="-4.0198070">
        <ele>598.0</ele>
        <time>2019-08-11T18:17:01Z</time>
      </trkpt>
      <trkpt lat="39.0405190" lon="-4.0197220">
        <ele>598.0</ele>
        <time>2019-08-11T18:17:02Z</time>
      </trkpt>
      <trkpt lat="39.0405390" lon="-4.0196370">
        <ele>598.1</ele>
        <time>2019-08-11T18:17:03Z</time>
      </trkpt>
      <trkpt lat="39.0405590" lon="-4.0195530">
        <ele>598.1</ele>
        <time>2019-08-11T18:17:04Z</time>
      </trkpt>
      <trkpt lat="39.0405790" lon="-4.0194680">
        <ele>598.2</ele>
        <time>2019-08-11T18:17:05Z</time>
      </trkpt>
      <trkpt lat="39.0405990" lon="-4.0193830">
        <ele>598.2</ele>
        <time>2019-08-11T18:17:06Z</time>
      </trkpt>
      <trkpt lat="39.0406190" lon="-4.0192990">
        <ele>598.3</ele>
        <time>2019-08-11T18:17:07Z</time>
      </trkpt>
      <trkpt lat="39.0406390" lon="-4.0192150">
        <ele>598.4</ele>
        <time>2019-08-11T18:17:08Z</time>
      </trkpt>
      <trkpt lat="39.0406590" lon="-4.0191310">
        <ele>598.4</ele>
        <time>2019-08-11T18:17:09Z</time>
      </trkpt>
      <trkpt lat="39.0406790" lon="-4.0190480">
        <ele>598.5</ele>
        <time>2019-08-11T18:17:10Z</time>
      </trkpt>
      <trkpt lat="39.0406990" lon="-4.0189650">
        <ele>598.5</ele>
        <time>2019-08-11T18:17:11Z</time>
      </trkpt>
      <trkpt lat="39.0407190" lon="-4.0188820">
        <ele>598.6</ele>
        <time>2019-08-11T18:17:12Z</time>
      </trkpt>
      <trkpt lat="39.0407390" lon="-4.0187980">
        <ele>598.6</ele>
        <time>2019-08-11T18:17:13Z</time>
      </trkpt>
      <trkpt lat="39.0407580" lon="-4.0187140">
        <ele>598.7</ele>
        <time>2019-08-11T18:17:14Z</time>
      </trkpt>
      <trkpt lat="39.0407770" lon="-4.0186290">
        <ele>598.8</ele>
        <time>2019-08-11T18:17:15Z</time>
      </trkpt>
      <trkpt lat="39.0407960" lon="-4.0185430">
        <ele>598.8</ele>
        <time>2019-08-11T18:17:16Z</time>
      </trkpt>
      <trkpt lat="39.0408130" lon="-4.0184560">
        <ele>598.9</ele>
        <time>2019-08-11T18:17:17Z</time>
      </trkpt>
      <trkpt lat="39.0408290" lon="-4.0183680">
        <ele>599.0</ele>
        <time>2019-08-11T18:17:18Z</time>
      </trkpt>
      <trkpt lat="39.0408430" lon="-4.0182800">
        <ele>599.1</ele>
        <time>2019-08-11T18:17:19Z</time>
      </trkpt>
      <trkpt lat="39.0408550" lon="-4.0181920">
        <ele>599.1</ele>
        <time>2019-08-11T18:17:20Z</time>
      </trkpt>
      <trkpt lat="39.0408640" lon="-4.0181030">
        <ele>599.2</ele>
        <time>2019-08-11T18:17:21Z</time>
      </trkpt>
      <trkpt lat="39.0408700" lon="-4.0180150">
        <ele>599.3</ele>
        <time>2019-08-11T18:17:22Z</time>
      </trkpt>
      <trkpt lat="39.0408750" lon="-4.0179260">
        <ele>599.4</ele>
        <time>2019-08-11T18:17:23Z</time>
      </trkpt>
      <trkpt lat="39.0408760" lon="-4.0178380">
        <ele>599.5</ele>
        <time>2019-08-11T18:17:24Z</time>
      </trkpt>
      <trkpt lat="39.0408760" lon="-4.0177500">
        <ele>599.7</ele>
        <time>2019-08-11T18:17:25Z</time>
      </trkpt>
      <trkpt lat="39.0408730" lon="-4.0176620">
        <ele>599.8</ele>
        <time>2019-08-11T18:17:26Z</time>
      </trkpt>
      <trkpt lat="39.0408690" lon="-4.0175750">
        <ele>599.9</ele>
        <time>2019-08-11T18:17:27Z</time>
      </trkpt>
      <trkpt lat="39.0408610" lon="-4.0174880">
        <ele>600.0</ele>
        <time>2019-08-11T18:17:28Z</time>
      </trkpt>
      <trkpt lat="39.0408530" lon="-4.0174010">
        <ele>600.1</ele>
        <time>2019-08-11T18:17:29Z</time>
      </trkpt>
      <trkpt lat="39.0408420" lon="-4.0173140">
        <ele>600.2</ele>
        <time>2019-08-11T18:17:30Z</time>
      </trkpt>
      <trkpt lat="39.0408300" lon="-4.0172280">
        <ele>600.3</ele>
        <time>2019-08-11T18:17:31Z</time>
      </trkpt>
      <trkpt lat="39.0408180" lon="-4.0171420">
        <ele>600.4</ele>
        <time>2019-08-11T18:17:32Z</time>
      </trkpt>
      <trkpt lat="39.0408040" lon="-4.0170560">
        <ele>600.5</ele>
        <time>2019-08-11T18:17:33Z</time>
      </trkpt>
      <trkpt lat="39.0407900" lon="-4.0169710">
        <ele>600.7</ele>
        <time>2019-08-11T18:17:34Z</time>
      </trkpt>
      <trkpt lat="39.0407770" lon="-4.0168850">
        <ele>600.8</ele>
        <time>2019-08-11T18:17:35Z</time>
      </trkpt>
      <trkpt lat="39.0407630" lon="-4.0168000">
        <ele>600.9</ele>
        <time>2019-08-11T18:17:36Z</time>
      </trkpt>
      <trkpt lat="39.0407500" lon="-4.0167150">
        <ele>601.0</ele>
        <time>2019-08-11T18:17:37Z</time>
      </trkpt>
      <trkpt lat="39.0407380" lon="-4.0166300">
        <ele>601.1</ele>
        <time>2019-08-11T18:17:38Z</time>
      </trkpt>
      <trkpt lat="39.0407260" lon="-4.0165450">
        <ele>601.2</ele>
        <time>2019-08-11T18:17:39Z</time>
      </trkpt>
      <trkpt lat="39.0407140" lon="-4.0164600">
        <ele>601.3</ele>
        <time>2019-08-11T18:17:40Z</time>
      </trkpt>
      <trkpt lat="39.0407030" lon="-4.0163750">
        <ele>601.5</ele>
        <time>2019-08-11T18:17:41Z</time>
      </trkpt>
      <trkpt lat="39.0406920" lon="-4.0162910">
        <ele>601.6</ele>
        <time>2019-08-11T18:17:42Z</time>
      </trkpt>
      <trkpt lat="39.0406800" lon="-4.0162060">
        <ele>601.8</ele>
        <time>2019-08-11T18:17:43Z</time>
      </trkpt>
      <trkpt lat="39.0406690" lon="-4.0161220">
        <ele>601.9</ele>
        <time>2019-08-11T18:17:44Z</time>
      </trkpt>
      <trkpt lat="39.0406580" lon="-4.0160380">
        <ele>602.1</ele>
        <time>2019-08-11T18:17:45Z</time>
      </trkpt>
      <trkpt lat="39.0406470" lon="-4.0159540">
        <ele>602.3</ele>
        <time>2019-08-11T18:17:46Z</time>
      </trkpt>
      <trkpt lat="39.0406360" lon="-4.0158700">
        <ele>602.6</ele>
        <time>2019-08-11T18:17:47Z</time>
      </trkpt>
      <trkpt lat="39.0406240" lon="-4.0157860">
        <ele>602.8</ele>
        <time>2019-08-11T18:17:48Z</time>
      </trkpt>
      <trkpt lat="39.0406130" lon="-4.0157030">
        <ele>603.0</ele>
        <time>2019-08-11T18:17:49Z</time>
      </trkpt>
      <trkpt lat="39.0406020" lon="-4.0156200">
        <ele>603.1</ele>
        <time>2019-08-11T18:17:50Z</time>
      </trkpt>
      <trkpt lat="39.0405900" lon="-4.0155370">
        <ele>603.3</ele>
        <time>2019-08-11T18:17:51Z</time>
      </trkpt>
      <trkpt lat="39.0405790" lon="-4.0154540">
        <ele>603.5</ele>
        <time>2019-08-11T18:17:52Z</time>
      </trkpt>
      <trkpt lat="39.0405680" lon="-4.0153720">
        <ele>603.7</ele>
        <time>2019-08-11T18:17:53Z</time>
      </trkpt>
      <trkpt lat="39.0405560" lon="-4.0152900">
        <ele>603.9</ele>
        <time>2019-08-11T18:17:54Z</time>
      </trkpt>
      <trkpt lat="39.0405450" lon="-4.0152090">
        <ele>604.1</ele>
        <time>2019-08-11T18:17:55Z</time>
      </trkpt>
      <trkpt lat="39.0405340" lon="-4.0151280">
        <ele>604.3</ele>
        <time>2019-08-11T18:17:56Z</time>
      </trkpt>
      <trkpt lat="39.0405230" lon="-4.0150470">
        <ele>604.4</ele>
        <time>2019-08-11T18:17:57Z</time>
      </trkpt>
      <trkpt lat="39.0405120" lon="-4.0149670">
        <ele>604.6</ele>
        <time>2019-08-11T18:17:58Z</time>
      </trkpt>
      <trkpt lat="39.0405010" lon="-4.0148870">
        <ele>604.7</ele>
        <time>2019-08-11T18:17:59Z</time>
      </trkpt>
      <trkpt lat="39.0404900" lon="-4.0148080">
        <ele>604.9</ele>
        <time>2019-08-11T18:18:00Z</time>
      </trkpt>
      <trkpt lat="39.0404800" lon="-4.0147290">
        <ele>605.0</ele>
        <time>2019-08-11T18:18:01Z</time>
      </trkpt>
      <trkpt lat="39.0404690" lon="-4.0146510">
        <ele>605.2</ele>
        <time>2019-08-11T18:18:02Z</time>
      </trkpt>
      <trkpt lat="39.0404590" lon="-4.0145740">
        <ele>605.3</ele>
        <time>2019-08-11T18:18:03Z</time>
      </trkpt>
      <trkpt lat="39.0404490" lon="-4.0144960">
        <ele>605.5</ele>
        <time>2019-08-11T18:18:04Z</time>
      </trkpt>
      <trkpt lat="39.0404380" lon="-4.0144200">
        <ele>605.6</ele>
        <time>2019-08-11T18:18:05Z</time>
      </trkpt>
      <trkpt lat="39.0404290" lon="-4.0143440">
        <ele>605.7</ele>
        <time>2019-08-11T18:18:06Z</time>
      </trkpt>
      <trkpt lat="39.0404190" lon="-4.0142680">
        <ele>605.9</ele>
        <time>2019-08-11T18:18:07Z</time>
      </trkpt>
      <trkpt lat="39.0404090" lon="-4.0141930">
        <ele>606.0</ele>
        <time>2019-08-11T18:18:08Z</time>
      </trkpt>
      <trkpt lat="39.0403990" lon="-4.0141180">
        <ele>606.1</ele>
        <time>2019-08-11T18:18:09Z</time>
      </trkpt>
      <trkpt lat="39.0403890" lon="-4.0140430">
        <ele>606.2</ele>
        <time>2019-08-11T18:18:10Z</time>
      </trkpt>
      <trkpt lat="39.0403800" lon="-4.0139680">
        <ele>606.3</ele>
        <time>2019-08-11T18:18:11Z</time>
      </trkpt>
      <trkpt lat="39.0403700" lon="-4.0138940">
        <ele>606.4</ele>
        <time>2019-08-11T18:18:12Z</time>
      </trkpt>
      <trkpt lat="39.0403610" lon="-4.0138200">
        <ele>606.5</ele>
        <time>2019-08-11T18:18:13Z</time>
      </trkpt>
      <trkpt lat="39.0403510" lon="-4.0137470">
        <ele>606.7</ele>
        <time>2019-08-11T18:18:14Z</time>
      </trkpt>
      <trkpt lat="39.0403420" lon="-4.0136730">
        <ele>606.8</ele>
        <time>2019-08-11T18:18:15Z</time>
      </trkpt>
      <trkpt lat="39.0403320" lon="-4.0136000">
        <ele>606.9</ele>
        <time>2019-08-11T18:18:16Z</time>
      </trkpt>
      <trkpt lat="39.0403230" lon="-4.0135260">
        <ele>607.0</ele>
        <time>2019-08-11T18:18:17Z</time>
      </trkpt>
      <trkpt lat="39.0403140" lon="-4.0134530">
        <ele>607.1</ele>
        <time>2019-08-11T18:18:18Z</time>
      </trkpt>
      <trkpt lat="39.0403040" lon="-4.0133800">
        <ele>607.2</ele>
        <time>2019-08-11T18:18:19Z</time>
      </trkpt>
      <trkpt lat="39.0402950" lon="-4.0133070">
        <ele>607.3</ele>
        <time>2019-08-11T18:18:20Z</time>
      </trkpt>
      <trkpt lat="39.0402850" lon="-4.0132340">
        <ele>607.4</ele>
        <time>2019-08-11T18:18:21Z</time>
      </trkpt>
      <trkpt lat="39.0402760" lon="-4.0131610">
        <ele>607.6</ele>
        <time>2019-08-11T18:18:22Z</time>
      </trkpt>
      <trkpt lat="39.0402660" lon="-4.0130880">
        <ele>607.7</ele>
        <time>2019-08-11T18:18:23Z</time>
      </trkpt>
      <trkpt lat="39.0402570" lon="-4.0130150">
        <ele>607.8</ele>
        <time>2019-08-11T18:18:24Z</time>
      </trkpt>
      <trkpt lat="39.0402470" lon="-4.0129420">
        <ele>607.9</ele>
        <time>2019-08-11T18:18:25Z</time>
      </trkpt>
      <trkpt lat="39.0402380" lon="-4.0128690">
        <ele>608.0</ele>
        <time>2019-08-11T18:18:26Z</time>
      </trkpt>
      <trkpt lat="39.0402280" lon="-4.0127960">
        <ele>608.1</ele>
        <time>2019-08-11T18:18:27Z</time>
      </trkpt>
      <trkpt lat="39.0402190" lon="-4.0127240">
        <ele>608.2</ele>
        <time>2019-08-11T18:18:28Z</time>
      </trkpt>
      <trkpt lat="39.0402090" lon="-4.0126510">
        <ele>608.3</ele>
        <time>2019-08-11T18:18:29Z</time>
      </trkpt>
      <trkpt lat="39.0401990" lon="-4.0125780">
        <ele>608.3</ele>
        <time>2019-08-11T18:18:30Z</time>
      </trkpt>
      <trkpt lat="39.0401900" lon="-4.0125060">
        <ele>608.4</ele>
        <time>2019-08-11T18:18:31Z</time>
      </trkpt>
      <trkpt lat="39.0401800" lon="-4.0124330">
        <ele>608.4</ele>
        <time>2019-08-11T18:18:32Z</time>
      </trkpt>
      <trkpt lat="39.0401700" lon="-4.0123610">
        <ele>608.5</ele>
        <time>2019-08-11T18:18:33Z</time>
      </trkpt>
      <trkpt lat="39.0401610" lon="-4.0122880">
        <ele>608.5</ele>
        <time>2019-08-11T18:18:34Z</time>
      </trkpt>
      <trkpt lat="39.0401510" lon="-4.0122150">
        <ele>608.6</ele>
        <time>2019-08-11T18:18:35Z</time>
      </trkpt>
      <trkpt lat="39.0401410" lon="-4.0121430">
        <ele>608.6</ele>
        <time>2019-08-11T18:18:36Z</time>
      </trkpt>
      <trkpt lat="39.0401320" lon="-4.0120700">
        <ele>608.6</ele>
        <time>2019-08-11T18:18:37Z</time>
      </trkpt>
      <trkpt lat="39.0401220" lon="-4.0119970">
        <ele>608.7</ele>
        <time>2019-08-11T18:18:38Z</time>
      </trkpt>
      <trkpt lat="39.0401120" lon="-4.0119240">
        <ele>608.7</ele>
        <time>2019-08-11T18:18:39Z</time>
      </trkpt>
      <trkpt lat="39.0401020" lon="-4.0118500">
        <ele>608.7</ele>
        <time>2019-08-11T18:18:40Z</time>
      </trkpt>
      <trkpt lat="39.0400920" lon="-4.0117770">
        <ele>608.7</ele>
        <time>2019-08-11T18:18:41Z</time>
      </trkpt>
      <trkpt lat="39.0400810" lon="-4.0117030">
        <ele>608.7</ele>
        <time>2019-08-11T18:18:42Z</time>
      </trkpt>
      <trkpt lat="39.0400700" lon="-4.0116290">
        <ele>608.7</ele>
        <time>2019-08-11T18:18:43Z</time>
      </trkpt>
      <trkpt lat="39.0400590" lon="-4.0115540">
        <ele>608.7</ele>
        <time>2019-08-11T18:18:44Z</time>
      </trkpt>
      <trkpt lat="39.0400480" lon="-4.0114790">
        <ele>608.7</ele>
        <time>2019-08-11T18:18:45Z</time>
      </trkpt>
      <trkpt lat="39.0400360" lon="-4.0114040">
        <ele>608.7</ele>
        <time>2019-08-11T18:18:46Z</time>
      </trkpt>
      <trkpt lat="39.0400240" lon="-4.0113280">
        <ele>608.7</ele>
        <time>2019-08-11T18:18:47Z</time>
      </trkpt>
      <trkpt lat="39.0400110" lon="-4.0112510">
        <ele>608.7</ele>
        <time>2019-08-11T18:18:48Z</time>
      </trkpt>
      <trkpt lat="39.0399980" lon="-4.0111740">
        <ele>608.7</ele>
        <time>2019-08-11T18:18:49Z</time>
      </trkpt>
      <trkpt lat="39.0399840" lon="-4.0110960">
        <ele>608.8</ele>
        <time>2019-08-11T18:18:50Z</time>
      </trkpt>
      <trkpt lat="39.0399700" lon="-4.0110170">
        <ele>608.8</ele>
        <time>2019-08-11T18:18:51Z</time>
      </trkpt>
      <trkpt lat="39.0399550" lon="-4.0109380">
        <ele>608.9</ele>
        <time>2019-08-11T18:18:52Z</time>
      </trkpt>
      <trkpt lat="39.0399390" lon="-4.0108580">
        <ele>609.0</ele>
        <time>2019-08-11T18:18:53Z</time>
      </trkpt>
      <trkpt lat="39.0399230" lon="-4.0107770">
        <ele>609.1</ele>
        <time>2019-08-11T18:18:54Z</time>
      </trkpt>
      <trkpt lat="39.0399060" lon="-4.0106950">
        <ele>609.1</ele>
        <time>2019-08-11T18:18:55Z</time>
      </trkpt>
      <trkpt lat="39.0398890" lon="-4.0106130">
        <ele>609.2</ele>
        <time>2019-08-11T18:18:56Z</time>
      </trkpt>
      <trkpt lat="39.0398710" lon="-4.0105300">
        <ele>609.3</ele>
        <time>2019-08-11T18:18:57Z</time>
      </trkpt>
      <trkpt lat="39.0398520" lon="-4.0104470">
        <ele>609.4</ele>
        <time>2019-08-11T18:18:58Z</time>
      </trkpt>
      <trkpt lat="39.0398330" lon="-4.0103640">
        <ele>609.5</ele>
        <time>2019-08-11T18:18:59Z</time>
      </trkpt>
      <trkpt lat="39.0398140" lon="-4.0102810">
        <ele>609.7</ele>
        <time>2019-08-11T18:19:00Z</time>
      </trkpt>
      <trkpt lat="39.0397940" lon="-4.0101980">
        <ele>609.8</ele>
        <time>2019-08-11T18:19:01Z</time>
      </trkpt>
      <trkpt lat="39.0397750" lon="-4.0101150">
        <ele>609.9</ele>
        <time>2019-08-11T18:19:02Z</time>
      </trkpt>
      <trkpt lat="39.0397540" lon="-4.0100330">
        <ele>609.9</ele>
        <time>2019-08-11T18:19:03Z</time>
      </trkpt>
      <trkpt lat="39.0397340" lon="-4.0099510">
        <ele>610.0</ele>
        <time>2019-08-11T18:19:04Z</time>
      </trkpt>
      <trkpt lat="39.0397140" lon="-4.0098700">
        <ele>610.1</ele>
        <time>2019-08-11T18:19:05Z</time>
      </trkpt>
      <trkpt lat="39.0396940" lon="-4.0097880">
        <ele>610.1</ele>
        <time>2019-08-11T18:19:06Z</time>
      </trkpt>
      <trkpt lat="39.0396730" lon="-4.0097070">
        <ele>610.2</ele>
        <time>2019-08-11T18:19:07Z</time>
      </trkpt>
      <trkpt lat="39.0396520" lon="-4.0096250">
        <ele>610.2</ele>
        <time>2019-08-11T18:19:08Z</time>
      </trkpt>
      <trkpt lat="39.0396320" lon="-4.0095430">
        <ele>610.2</ele>
        <time>2019-08-11T18:19:09Z</time>
      </trkpt>
      <trkpt lat="39.0396110" lon="-4.0094610">
        <ele>610.2</ele>
        <time>2019-08-11T18:19:10Z</time>
      </trkpt>
      <trkpt lat="39.0395910" lon="-4.0093790">
        <ele>610.2</ele>
        <time>2019-08-11T18:19:11Z</time>
      </trkpt>
      <trkpt lat="39.0395700" lon="-4.0092950">
        <ele>610.1</ele>
        <time>2019-08-11T18:19:12Z</time>
      </trkpt>
      <trkpt lat="39.0395500" lon="-4.0092120">
        <ele>610.1</ele>
        <time>2019-08-11T18:19:13Z</time>
      </trkpt>
      <trkpt lat="39.0395290" lon="-4.0091280">
        <ele>610.0</ele>
        <time>2019-08-11T18:19:14Z</time>
      </trkpt>
      <trkpt lat="39.0395080" lon="-4.0090430">
        <ele>609.9</ele>
        <time>2019-08-11T18:19:15Z</time>
      </trkpt>
      <trkpt lat="39.0394880" lon="-4.0089580">
        <ele>609.8</ele>
        <time>2019-08-11T18:19:16Z</time>
      </trkpt>
      <trkpt lat="39.0394670" lon="-4.0088730">
        <ele>609.7</ele>
        <time>2019-08-11T18:19:17Z</time>
      </trkpt>
      <trkpt lat="39.0394470" lon="-4.0087870">
        <ele>609.6</ele>
        <time>2019-08-11T18:19:18Z</time>
      </trkpt>
      <trkpt lat="39.0394260" lon="-4.0087000">
        <ele>609.4</ele>
        <time>2019-08-11T18:19:19Z</time>
      </trkpt>
      <trkpt lat="39.0394050" lon="-4.0086130">
        <ele>609.3</ele>
        <time>2019-08-11T18:19:20Z</time>
      </trkpt>
      <trkpt lat="39.0393840" lon="-4.0085260">
        <ele>609.2</ele>
        <time>2019-08-11T18:19:21Z</time>
      </trkpt>
      <trkpt lat="39.0393630" lon="-4.0084380">
        <ele>609.1</ele>
        <time>2019-08-11T18:19:22Z</time>
      </trkpt>
      <trkpt lat="39.0393420" lon="-4.0083500">
        <ele>609.0</ele>
        <time>2019-08-11T18:19:23Z</time>
      </trkpt>
      <trkpt lat="39.0393210" lon="-4.0082610">
        <ele>608.9</ele>
        <time>2019-08-11T18:19:24Z</time>
      </trkpt>
      <trkpt lat="39.0393000" lon="-4.0081720">
        <ele>608.8</ele>
        <time>2019-08-11T18:19:25Z</time>
      </trkpt>
      <trkpt lat="39.0392780" lon="-4.0080820">
        <ele>608.8</ele>
        <time>2019-08-11T18:19:26Z</time>
      </trkpt>
      <trkpt lat="39.0392570" lon="-4.0079920">
        <ele>608.8</ele>
        <time>2019-08-11T18:19:27Z</time>
      </trkpt>
      <trkpt lat="39.0392350" lon="-4.0079010">
        <ele>608.8</ele>
        <time>2019-08-11T18:19:28Z</time>
      </trkpt>
      <trkpt lat="39.0392140" lon="-4.0078100">
        <ele>608.9</ele>
        <time>2019-08-11T18:19:29Z</time>
      </trkpt>
      <trkpt lat="39.0391920" lon="-4.0077190">
        <ele>609.0</ele>
        <time>2019-08-11T18:19:30Z</time>
      </trkpt>
      <trkpt lat="39.0391700" lon="-4.0076280">
        <ele>609.1</ele>
        <time>2019-08-11T18:19:31Z</time>
      </trkpt>
      <trkpt lat="39.0391480" lon="-4.0075370">
        <ele>609.3</ele>
        <time>2019-08-11T18:19:32Z</time>
      </trkpt>
      <trkpt lat="39.0391260" lon="-4.0074450">
        <ele>609.6</ele>
        <time>2019-08-11T18:19:33Z</time>
      </trkpt>
      <trkpt lat="39.0391040" lon="-4.0073540">
        <ele>610.0</ele>
        <time>2019-08-11T18:19:34Z</time>
      </trkpt>
      <trkpt lat="39.0390820" lon="-4.0072640">
        <ele>610.4</ele>
        <time>2019-08-11T18:19:35Z</time>
      </trkpt>
      <trkpt lat="39.0390600" lon="-4.0071730">
        <ele>610.8</ele>
        <time>2019-08-11T18:19:36Z</time>
      </trkpt>
      <trkpt lat="39.0390390" lon="-4.0070840">
        <ele>611.3</ele>
        <time>2019-08-11T18:19:37Z</time>
      </trkpt>
      <trkpt lat="39.0390170" lon="-4.0069940">
        <ele>611.8</ele>
        <time>2019-08-11T18:19:38Z</time>
      </trkpt>
      <trkpt lat="39.0389960" lon="-4.0069060">
        <ele>612.3</ele>
        <time>2019-08-11T18:19:39Z</time>
      </trkpt>
      <trkpt lat="39.0389750" lon="-4.0068190">
        <ele>612.6</ele>
        <time>2019-08-11T18:19:40Z</time>
      </trkpt>
      <trkpt lat="39.0389540" lon="-4.0067320">
        <ele>613.0</ele>
        <time>2019-08-11T18:19:41Z</time>
      </trkpt>
      <trkpt lat="39.0389340" lon="-4.0066460">
        <ele>613.3</ele>
        <time>2019-08-11T18:19:42Z</time>
      </trkpt>
      <trkpt lat="39.0389140" lon="-4.0065620">
        <ele>613.6</ele>
        <time>2019-08-11T18:19:43Z</time>
      </trkpt>
      <trkpt lat="39.0388940" lon="-4.0064790">
        <ele>613.8</ele>
        <time>2019-08-11T18:19:44Z</time>
      </trkpt>
      <trkpt lat="39.0388740" lon="-4.0063980">
        <ele>614.1</ele>
        <time>2019-08-11T18:19:45Z</time>
      </trkpt>
      <trkpt lat="39.0388550" lon="-4.0063170">
        <ele>614.3</ele>
        <time>2019-08-11T18:19:46Z</time>
      </trkpt>
      <trkpt lat="39.0388370" lon="-4.0062380">
        <ele>614.5</ele>
        <time>2019-08-11T18:19:47Z</time>
      </trkpt>
      <trkpt lat="39.0388180" lon="-4.0061600">
        <ele>614.6</ele>
        <time>2019-08-11T18:19:48Z</time>
      </trkpt>
      <trkpt lat="39.0388000" lon="-4.0060830">
        <ele>614.8</ele>
        <time>2019-08-11T18:19:49Z</time>
      </trkpt>
      <trkpt lat="39.0387820" lon="-4.0060080">
        <ele>615.0</ele>
        <time>2019-08-11T18:19:50Z</time>
      </trkpt>
      <trkpt lat="39.0387640" lon="-4.0059320">
        <ele>615.1</ele>
        <time>2019-08-11T18:19:51Z</time>
      </trkpt>
      <trkpt lat="39.0387470" lon="-4.0058580">
        <ele>615.3</ele>
        <time>2019-08-11T18:19:52Z</time>
      </trkpt>
      <trkpt lat="39.0387300" lon="-4.0057850">
        <ele>615.4</ele>
        <time>2019-08-11T18:19:53Z</time>
      </trkpt>
      <trkpt lat="39.0387120" lon="-4.0057110">
        <ele>615.5</ele>
        <time>2019-08-11T18:19:54Z</time>
      </trkpt>
      <trkpt lat="39.0386950" lon="-4.0056390">
        <ele>615.5</ele>
        <time>2019-08-11T18:19:55Z</time>
      </trkpt>
      <trkpt lat="39.0386780" lon="-4.0055670">
        <ele>615.5</ele>
        <time>2019-08-11T18:19:56Z</time>
      </trkpt>
      <trkpt lat="39.0386620" lon="-4.0054950">
        <ele>615.6</ele>
        <time>2019-08-11T18:19:57Z</time>
      </trkpt>
      <trkpt lat="39.0386450" lon="-4.0054230">
        <ele>615.6</ele>
        <time>2019-08-11T18:19:58Z</time>
      </trkpt>
      <trkpt lat="39.0386280" lon="-4.0053520">
        <ele>615.5</ele>
        <time>2019-08-11T18:19:59Z</time>
      </trkpt>
      <trkpt lat="39.0386110" lon="-4.0052800">
        <ele>615.5</ele>
        <time>2019-08-11T18:20:00Z</time>
      </trkpt>
      <trkpt lat="39.0385940" lon="-4.0052090">
        <ele>615.5</ele>
        <time>2019-08-11T18:20:01Z</time>
      </trkpt>
      <trkpt lat="39.0385770" lon="-4.0051370">
        <ele>615.3</ele>
        <time>2019-08-11T18:20:02Z</time>
      </trkpt>
      <trkpt lat="39.0385600" lon="-4.0050650">
        <ele>615.3</ele>
        <time>2019-08-11T18:20:03Z</time>
      </trkpt>
      <trkpt lat="39.0385430" lon="-4.0049930">
        <ele>615.2</ele>
        <time>2019-08-11T18:20:04Z</time>
      </trkpt>
      <trkpt lat="39.0385260" lon="-4.0049190">
        <ele>615.1</ele>
        <time>2019-08-11T18:20:05Z</time>
      </trkpt>
      <trkpt lat="39.0385080" lon="-4.0048450">
        <ele>615.1</ele>
        <time>2019-08-11T18:20:06Z</time>
      </trkpt>
      <trkpt lat="39.0384890" lon="-4.0047680">
        <ele>615.1</ele>
        <time>2019-08-11T18:20:07Z</time>
      </trkpt>
      <trkpt lat="39.0384700" lon="-4.0046900">
        <ele>615.2</ele>
        <time>2019-08-11T18:20:08Z</time>
      </trkpt>
      <trkpt lat="39.0384500" lon="-4.0046100">
        <ele>615.2</ele>
        <time>2019-08-11T18:20:09Z</time>
      </trkpt>
      <trkpt lat="39.0384300" lon="-4.0045290">
        <ele>615.3</ele>
        <time>2019-08-11T18:20:10Z</time>
      </trkpt>
      <trkpt lat="39.0384100" lon="-4.0044460">
        <ele>615.3</ele>
        <time>2019-08-11T18:20:11Z</time>
      </trkpt>
      <trkpt lat="39.0383890" lon="-4.0043620">
        <ele>615.4</ele>
        <time>2019-08-11T18:20:12Z</time>
      </trkpt>
      <trkpt lat="39.0383680" lon="-4.0042760">
        <ele>615.4</ele>
        <time>2019-08-11T18:20:13Z</time>
      </trkpt>
      <trkpt lat="39.0383470" lon="-4.0041900">
        <ele>615.5</ele>
        <time>2019-08-11T18:20:14Z</time>
      </trkpt>
      <trkpt lat="39.0383250" lon="-4.0041030">
        <ele>615.5</ele>
        <time>2019-08-11T18:20:15Z</time>
      </trkpt>
      <trkpt lat="39.0383040" lon="-4.0040150">
        <ele>615.5</ele>
        <time>2019-08-11T18:20:16Z</time>
      </trkpt>
      <trkpt lat="39.0382820" lon="-4.0039260">
        <ele>615.4</ele>
        <time>2019-08-11T18:20:17Z</time>
      </trkpt>
      <trkpt lat="39.0382600" lon="-4.0038370">
        <ele>615.4</ele>
        <time>2019-08-11T18:20:18Z</time>
      </trkpt>
      <trkpt lat="39.0382390" lon="-4.0037480">
        <ele>615.4</ele>
        <time>2019-08-11T18:20:19Z</time>
      </trkpt>
      <trkpt lat="39.0382170" lon="-4.0036580">
        <ele>615.4</ele>
        <time>2019-08-11T18:20:20Z</time>
      </trkpt>
      <trkpt lat="39.0381950" lon="-4.0035680">
        <ele>615.5</ele>
        <time>2019-08-11T18:20:21Z</time>
      </trkpt>
      <trkpt lat="39.0381730" lon="-4.0034780">
        <ele>615.5</ele>
        <time>2019-08-11T18:20:22Z</time>
      </trkpt>
      <trkpt lat="39.0381510" lon="-4.0033880">
        <ele>615.5</ele>
        <time>2019-08-11T18:20:23Z</time>
      </trkpt>
      <trkpt lat="39.0381290" lon="-4.0032980">
        <ele>615.6</ele>
        <time>2019-08-11T18:20:24Z</time>
      </trkpt>
      <trkpt lat="39.0381070" lon="-4.0032080">
        <ele>615.6</ele>
        <time>2019-08-11T18:20:25Z</time>
      </trkpt>
      <trkpt lat="39.0380860" lon="-4.0031180">
        <ele>615.7</ele>
        <time>2019-08-11T18:20:26Z</time>
      </trkpt>
      <trkpt lat="39.0380640" lon="-4.0030280">
        <ele>615.8</ele>
        <time>2019-08-11T18:20:27Z</time>
      </trkpt>
      <trkpt lat="39.0380420" lon="-4.0029380">
        <ele>615.9</ele>
        <time>2019-08-11T18:20:28Z</time>
      </trkpt>
      <trkpt lat="39.0380200" lon="-4.0028480">
        <ele>616.0</ele>
        <time>2019-08-11T18:20:29Z</time>
      </trkpt>
      <trkpt lat="39.0379990" lon="-4.0027590">
        <ele>616.0</ele>
        <time>2019-08-11T18:20:30Z</time>
      </trkpt>
      <trkpt lat="39.0379770" lon="-4.0026700">
        <ele>616.1</ele>
        <time>2019-08-11T18:20:31Z</time>
      </trkpt>
      <trkpt lat="39.0379550" lon="-4.0025810">
        <ele>616.2</ele>
        <time>2019-08-11T18:20:32Z</time>
      </trkpt>
      <trkpt lat="39.0379340" lon="-4.0024920">
        <ele>616.3</ele>
        <time>2019-08-11T18:20:33Z</time>
      </trkpt>
      <trkpt lat="39.0379130" lon="-4.0024040">
        <ele>616.4</ele>
        <time>2019-08-11T18:20:34Z</time>
      </trkpt>
      <trkpt lat="39.0378910" lon="-4.0023160">
        <ele>616.6</ele>
        <time>2019-08-11T18:20:35Z</time>
      </trkpt>
      <trkpt lat="39.0378700" lon="-4.0022290">
        <ele>616.7</ele>
        <time>2019-08-11T18:20:36Z</time>
      </trkpt>
      <trkpt lat="39.0378490" lon="-4.0021430">
        <ele>616.8</ele>
        <time>2019-08-11T18:20:37Z</time>
      </trkpt>
      <trkpt lat="39.0378280" lon="-4.0020560">
        <ele>617.0</ele>
        <time>2019-08-11T18:20:38Z</time>
      </trkpt>
      <trkpt lat="39.0378080" lon="-4.0019710">
        <ele>617.1</ele>
        <time>2019-08-11T18:20:39Z</time>
      </trkpt>
      <trkpt lat="39.0377870" lon="-4.0018850">
        <ele>617.2</ele>
        <time>2019-08-11T18:20:40Z</time>
      </trkpt>
      <trkpt lat="39.0377670" lon="-4.0018000">
        <ele>617.4</ele>
        <time>2019-08-11T18:20:41Z</time>
      </trkpt>
      <trkpt lat="39.0377460" lon="-4.0017160">
        <ele>617.5</ele>
        <time>2019-08-11T18:20:42Z</time>
      </trkpt>
      <trkpt lat="39.0377260" lon="-4.0016310">
        <ele>617.6</ele>
        <time>2019-08-11T18:20:43Z</time>
      </trkpt>
      <trkpt lat="39.0377050" lon="-4.0015470">
        <ele>617.7</ele>
        <time>2019-08-11T18:20:44Z</time>
      </trkpt>
      <trkpt lat="39.0376850" lon="-4.0014630">
        <ele>617.9</ele>
        <time>2019-08-11T18:20:45Z</time>
      </trkpt>
      <trkpt lat="39.0376650" lon="-4.0013790">
        <ele>618.0</ele>
        <time>2019-08-11T18:20:46Z</time>
      </trkpt>
      <trkpt lat="39.0376440" lon="-4.0012960">
        <ele>618.1</ele>
        <time>2019-08-11T18:20:47Z</time>
      </trkpt>
      <trkpt lat="39.0376240" lon="-4.0012120">
        <ele>618.2</ele>
        <time>2019-08-11T18:20:48Z</time>
      </trkpt>
      <trkpt lat="39.0376040" lon="-4.0011280">
        <ele>618.4</ele>
        <time>2019-08-11T18:20:49Z</time>
      </trkpt>
      <trkpt lat="39.0375840" lon="-4.0010440">
        <ele>618.5</ele>
        <time>2019-08-11T18:20:50Z</time>
      </trkpt>
      <trkpt lat="39.0375630" lon="-4.0009600">
        <ele>618.6</ele>
        <time>2019-08-11T18:20:51Z</time>
      </trkpt>
      <trkpt lat="39.0375430" lon="-4.0008760">
        <ele>618.7</ele>
        <time>2019-08-11T18:20:52Z</time>
      </trkpt>
      <trkpt lat="39.0375230" lon="-4.0007920">
        <ele>618.8</ele>
        <time>2019-08-11T18:20:53Z</time>
      </trkpt>
      <trkpt lat="39.0375020" lon="-4.0007080">
        <ele>618.9</ele>
        <time>2019-08-11T18:20:54Z</time>
      </trkpt>
      <trkpt lat="39.0374820" lon="-4.0006230">
        <ele>619.1</ele>
        <time>2019-08-11T18:20:55Z</time>
      </trkpt>
      <trkpt lat="39.0374620" lon="-4.0005380">
        <ele>619.2</ele>
        <time>2019-08-11T18:20:56Z</time>
      </trkpt>
      <trkpt lat="39.0374410" lon="-4.0004530">
        <ele>619.4</ele>
        <time>2019-08-11T18:20:57Z</time>
      </trkpt>
      <trkpt lat="39.0374210" lon="-4.0003680">
        <ele>619.5</ele>
        <time>2019-08-11T18:20:58Z</time>
      </trkpt>
      <trkpt lat="39.0374000" lon="-4.0002820">
        <ele>619.7</ele>
        <time>2019-08-11T18:20:59Z</time>
      </trkpt>
      <trkpt lat="39.0373790" lon="-4.0001970">
        <ele>619.8</ele>
        <time>2019-08-11T18:21:00Z</time>
      </trkpt>
      <trkpt lat="39.0373590" lon="-4.0001120">
        <ele>619.9</ele>
        <time>2019-08-11T18:21:01Z</time>
      </trkpt>
      <trkpt lat="39.0373380" lon="-4.0000260">
        <ele>620.0</ele>
        <time>2019-08-11T18:21:02Z</time>
      </trkpt>
      <trkpt lat="39.0373180" lon="-3.9999410">
        <ele>620.1</ele>
        <time>2019-08-11T18:21:03Z</time>
      </trkpt>
      <trkpt lat="39.0372970" lon="-3.9998550">
        <ele>620.2</ele>
        <time>2019-08-11T18:21:04Z</time>
      </trkpt>
      <trkpt lat="39.0372770" lon="-3.9997700">
        <ele>620.3</ele>
        <time>2019-08-11T18:21:05Z</time>
      </trkpt>
      <trkpt lat="39.0372560" lon="-3.9996840">
        <ele>620.4</ele>
        <time>2019-08-11T18:21:06Z</time>
      </trkpt>
      <trkpt lat="39.0372350" lon="-3.9995990">
        <ele>620.5</ele>
        <time>2019-08-11T18:21:07Z</time>
      </trkpt>
      <trkpt lat="39.0372150" lon="-3.9995140">
        <ele>620.7</ele>
        <time>2019-08-11T18:21:08Z</time>
      </trkpt>
      <trkpt lat="39.0371940" lon="-3.9994290">
        <ele>620.9</ele>
        <time>2019-08-11T18:21:09Z</time>
      </trkpt>
      <trkpt lat="39.0371740" lon="-3.9993440">
        <ele>621.1</ele>
        <time>2019-08-11T18:21:10Z</time>
      </trkpt>
      <trkpt lat="39.0371540" lon="-3.9992590">
        <ele>621.3</ele>
        <time>2019-08-11T18:21:11Z</time>
      </trkpt>
      <trkpt lat="39.0371330" lon="-3.9991750">
        <ele>621.5</ele>
        <time>2019-08-11T18:21:12Z</time>
      </trkpt>
      <trkpt lat="39.0371130" lon="-3.9990900">
        <ele>621.6</ele>
        <time>2019-08-11T18:21:13Z</time>
      </trkpt>
      <trkpt lat="39.0370930" lon="-3.9990060">
        <ele>621.8</ele>
        <time>2019-08-11T18:21:14Z</time>
      </trkpt>
      <trkpt lat="39.0370720" lon="-3.9989220">
        <ele>621.9</ele>
        <time>2019-08-11T18:21:15Z</time>
      </trkpt>
      <trkpt lat="39.0370520" lon="-3.9988380">
        <ele>622.1</ele>
        <time>2019-08-11T18:21:16Z</time>
      </trkpt>
      <trkpt lat="39.0370320" lon="-3.9987540">
        <ele>622.2</ele>
        <time>2019-08-11T18:21:17Z</time>
      </trkpt>
      <trkpt lat="39.0370120" lon="-3.9986700">
        <ele>622.3</ele>
        <time>2019-08-11T18:21:18Z</time>
      </trkpt>
      <trkpt lat="39.0369910" lon="-3.9985850">
        <ele>622.4</ele>
        <time>2019-08-11T18:21:19Z</time>
      </trkpt>
      <trkpt lat="39.0369710" lon="-3.9985010">
        <ele>622.5</ele>
        <time>2019-08-11T18:21:20Z</time>
      </trkpt>
      <trkpt lat="39.0369510" lon="-3.9984170">
        <ele>622.5</ele>
        <time>2019-08-11T18:21:21Z</time>
      </trkpt>
      <trkpt lat="39.0369300" lon="-3.9983320">
        <ele>622.6</ele>
        <time>2019-08-11T18:21:22Z</time>
      </trkpt>
      <trkpt lat="39.0369100" lon="-3.9982470">
        <ele>622.6</ele>
        <time>2019-08-11T18:21:23Z</time>
      </trkpt>
      <trkpt lat="39.0368900" lon="-3.9981620">
        <ele>622.6</ele>
        <time>2019-08-11T18:21:24Z</time>
      </trkpt>
      <trkpt lat="39.0368690" lon="-3.9980760">
        <ele>622.7</ele>
        <time>2019-08-11T18:21:25Z</time>
      </trkpt>
      <trkpt lat="39.0368490" lon="-3.9979900">
        <ele>622.7</ele>
        <time>2019-08-11T18:21:26Z</time>
      </trkpt>
      <trkpt lat="39.0368290" lon="-3.9979040">
        <ele>622.7</ele>
        <time>2019-08-11T18:21:27Z</time>
      </trkpt>
      <trkpt lat="39.0368080" lon="-3.9978170">
        <ele>622.7</ele>
        <time>2019-08-11T18:21:28Z</time>
      </trkpt>
      <trkpt lat="39.0367870" lon="-3.9977300">
        <ele>622.8</ele>
        <time>2019-08-11T18:21:29Z</time>
      </trkpt>
      <trkpt lat="39.0367670" lon="-3.9976420">
        <ele>622.8</ele>
        <time>2019-08-11T18:21:30Z</time>
      </trkpt>
      <trkpt lat="39.0367460" lon="-3.9975540">
        <ele>622.8</ele>
        <time>2019-08-11T18:21:31Z</time>
      </trkpt>
      <trkpt lat="39.0367250" lon="-3.9974650">
        <ele>622.8</ele>
        <time>2019-08-11T18:21:32Z</time>
      </trkpt>
      <trkpt lat="39.0367040" lon="-3.9973760">
        <ele>622.9</ele>
        <time>2019-08-11T18:21:33Z</time>
      </trkpt>
      <trkpt lat="39.0366830" lon="-3.9972870">
        <ele>622.9</ele>
        <time>2019-08-11T18:21:34Z</time>
      </trkpt>
      <trkpt lat="39.0366610" lon="-3.9971980">
        <ele>623.0</ele>
        <time>2019-08-11T18:21:35Z</time>
      </trkpt>
      <trkpt lat="39.0366400" lon="-3.9971080">
        <ele>623.0</ele>
        <time>2019-08-11T18:21:36Z</time>
      </trkpt>
      <trkpt lat="39.0366180" lon="-3.9970180">
        <ele>623.1</ele>
        <time>2019-08-11T18:21:37Z</time>
      </trkpt>
      <trkpt lat="39.0365960" lon="-3.9969280">
        <ele>623.1</ele>
        <time>2019-08-11T18:21:38Z</time>
      </trkpt>
      <trkpt lat="39.0365740" lon="-3.9968370">
        <ele>623.2</ele>
        <time>2019-08-11T18:21:39Z</time>
      </trkpt>
      <trkpt lat="39.0365510" lon="-3.9967470">
        <ele>623.2</ele>
        <time>2019-08-11T18:21:40Z</time>
      </trkpt>
      <trkpt lat="39.0365280" lon="-3.9966560">
        <ele>623.3</ele>
        <time>2019-08-11T18:21:41Z</time>
      </trkpt>
      <trkpt lat="39.0365050" lon="-3.9965650">
        <ele>623.3</ele>
        <time>2019-08-11T18:21:42Z</time>
      </trkpt>
      <trkpt lat="39.0364820" lon="-3.9964750">
        <ele>623.4</ele>
        <time>2019-08-11T18:21:43Z</time>
      </trkpt>
      <trkpt lat="39.0364580" lon="-3.9963840">
        <ele>623.4</ele>
        <time>2019-08-11T18:21:44Z</time>
      </trkpt>
      <trkpt lat="39.0364340" lon="-3.9962930">
        <ele>623.4</ele>
        <time>2019-08-11T18:21:45Z</time>
      </trkpt>
      <trkpt lat="39.0364090" lon="-3.9962020">
        <ele>623.5</ele>
        <time>2019-08-11T18:21:46Z</time>
      </trkpt>
      <trkpt lat="39.0363840" lon="-3.9961120">
        <ele>623.5</ele>
        <time>2019-08-11T18:21:47Z</time>
      </trkpt>
      <trkpt lat="39.0363580" lon="-3.9960210">
        <ele>623.5</ele>
        <time>2019-08-11T18:21:48Z</time>
      </trkpt>
      <trkpt lat="39.0363330" lon="-3.9959310">
        <ele>623.5</ele>
        <time>2019-08-11T18:21:49Z</time>
      </trkpt>
      <trkpt lat="39.0363060" lon="-3.9958400">
        <ele>623.5</ele>
        <time>2019-08-11T18:21:50Z</time>
      </trkpt>
      <trkpt lat="39.0362800" lon="-3.9957490">
        <ele>623.5</ele>
        <time>2019-08-11T18:21:51Z</time>
      </trkpt>
      <trkpt lat="39.0362530" lon="-3.9956580">
        <ele>623.6</ele>
        <time>2019-08-11T18:21:52Z</time>
      </trkpt>
      <trkpt lat="39.0362260" lon="-3.9955670">
        <ele>623.6</ele>
        <time>2019-08-11T18:21:53Z</time>
      </trkpt>
      <trkpt lat="39.0361980" lon="-3.9954760">
        <ele>623.6</ele>
        <time>2019-08-11T18:21:54Z</time>
      </trkpt>
      <trkpt lat="39.0361700" lon="-3.9953840">
        <ele>623.7</ele>
        <time>2019-08-11T18:21:55Z</time>
      </trkpt>
      <trkpt lat="39.0361420" lon="-3.9952920">
        <ele>623.7</ele>
        <time>2019-08-11T18:21:56Z</time>
      </trkpt>
      <trkpt lat="39.0361140" lon="-3.9952000">
        <ele>623.8</ele>
        <time>2019-08-11T18:21:57Z</time>
      </trkpt>
      <trkpt lat="39.0360850" lon="-3.9951070">
        <ele>623.8</ele>
        <time>2019-08-11T18:21:58Z</time>
      </trkpt>
      <trkpt lat="39.0360560" lon="-3.9950140">
        <ele>623.9</ele>
        <time>2019-08-11T18:21:59Z</time>
      </trkpt>
      <trkpt lat="39.0360260" lon="-3.9949210">
        <ele>623.9</ele>
        <time>2019-08-11T18:22:00Z</time>
      </trkpt>
      <trkpt lat="39.0359960" lon="-3.9948270">
        <ele>623.9</ele>
        <time>2019-08-11T18:22:01Z</time>
      </trkpt>
      <trkpt lat="39.0359660" lon="-3.9947330">
        <ele>623.8</ele>
        <time>2019-08-11T18:22:02Z</time>
      </trkpt>
      <trkpt lat="39.0359360" lon="-3.9946380">
        <ele>623.8</ele>
        <time>2019-08-11T18:22:03Z</time>
      </trkpt>
      <trkpt lat="39.0359050" lon="-3.9945420">
        <ele>623.7</ele>
        <time>2019-08-11T18:22:04Z</time>
      </trkpt>
      <trkpt lat="39.0358750" lon="-3.9944460">
        <ele>623.6</ele>
        <time>2019-08-11T18:22:05Z</time>
      </trkpt>
      <trkpt lat="39.0358430" lon="-3.9943500">
        <ele>623.5</ele>
        <time>2019-08-11T18:22:06Z</time>
      </trkpt>
      <trkpt lat="39.0358120" lon="-3.9942530">
        <ele>623.4</ele>
        <time>2019-08-11T18:22:07Z</time>
      </trkpt>
      <trkpt lat="39.0357810" lon="-3.9941550">
        <ele>623.3</ele>
        <time>2019-08-11T18:22:08Z</time>
      </trkpt>
      <trkpt lat="39.0357490" lon="-3.9940560">
        <ele>623.2</ele>
        <time>2019-08-11T18:22:09Z</time>
      </trkpt>
      <trkpt lat="39.0357170" lon="-3.9939570">
        <ele>623.1</ele>
        <time>2019-08-11T18:22:10Z</time>
      </trkpt>
      <trkpt lat="39.0356850" lon="-3.9938570">
        <ele>622.9</ele>
        <time>2019-08-11T18:22:11Z</time>
      </trkpt>
      <trkpt lat="39.0356530" lon="-3.9937560">
        <ele>622.8</ele>
        <time>2019-08-11T18:22:12Z</time>
      </trkpt>
      <trkpt lat="39.0356210" lon="-3.9936550">
        <ele>622.7</ele>
        <time>2019-08-11T18:22:13Z</time>
      </trkpt>
      <trkpt lat="39.0355890" lon="-3.9935530">
        <ele>622.6</ele>
        <time>2019-08-11T18:22:14Z</time>
      </trkpt>
      <trkpt lat="39.0355560" lon="-3.9934500">
        <ele>622.5</ele>
        <time>2019-08-11T18:22:15Z</time>
      </trkpt>
      <trkpt lat="39.0355240" lon="-3.9933470">
        <ele>622.4</ele>
        <time>2019-08-11T18:22:16Z</time>
      </trkpt>
      <trkpt lat="39.0354910" lon="-3.9932440">
        <ele>622.3</ele>
        <time>2019-08-11T18:22:17Z</time>
      </trkpt>
      <trkpt lat="39.0354580" lon="-3.9931400">
        <ele>622.2</ele>
        <time>2019-08-11T18:22:18Z</time>
      </trkpt>
      <trkpt lat="39.0354260" lon="-3.9930360">
        <ele>622.2</ele>
        <time>2019-08-11T18:22:19Z</time>
      </trkpt>
      <trkpt lat="39.0353930" lon="-3.9929310">
        <ele>622.1</ele>
        <time>2019-08-11T18:22:20Z</time>
      </trkpt>
      <trkpt lat="39.0353590" lon="-3.9928260">
        <ele>622.0</ele>
        <time>2019-08-11T18:22:21Z</time>
      </trkpt>
      <trkpt lat="39.0353260" lon="-3.9927210">
        <ele>621.9</ele>
        <time>2019-08-11T18:22:22Z</time>
      </trkpt>
      <trkpt lat="39.0352930" lon="-3.9926150">
        <ele>621.8</ele>
        <time>2019-08-11T18:22:23Z</time>
      </trkpt>
      <trkpt lat="39.0352590" lon="-3.9925090">
        <ele>621.7</ele>
        <time>2019-08-11T18:22:24Z</time>
      </trkpt>
      <trkpt lat="39.0352240" lon="-3.9924020">
        <ele>621.6</ele>
        <time>2019-08-11T18:22:25Z</time>
      </trkpt>
      <trkpt lat="39.0351890" lon="-3.9922940">
        <ele>621.5</ele>
        <time>2019-08-11T18:22:26Z</time>
      </trkpt>
      <trkpt lat="39.0351540" lon="-3.9921860">
        <ele>621.4</ele>
        <time>2019-08-11T18:22:27Z</time>
      </trkpt>
      <trkpt lat="39.0351180" lon="-3.9920770">
        <ele>621.3</ele>
        <time>2019-08-11T18:22:28Z</time>
      </trkpt>
      <trkpt lat="39.0350820" lon="-3.9919680">
        <ele>621.2</ele>
        <time>2019-08-11T18:22:29Z</time>
      </trkpt>
      <trkpt lat="39.0350440" lon="-3.9918580">
        <ele>621.1</ele>
        <time>2019-08-11T18:22:30Z</time>
      </trkpt>
      <trkpt lat="39.0350050" lon="-3.9917480">
        <ele>621.0</ele>
        <time>2019-08-11T18:22:31Z</time>
      </trkpt>
      <trkpt lat="39.0349640" lon="-3.9916390">
        <ele>620.8</ele>
        <time>2019-08-11T18:22:32Z</time>
      </trkpt>
      <trkpt lat="39.0349200" lon="-3.9915310">
        <ele>620.7</ele>
        <time>2019-08-11T18:22:33Z</time>
      </trkpt>
      <trkpt lat="39.0348750" lon="-3.9914250">
        <ele>620.5</ele>
        <time>2019-08-11T18:22:34Z</time>
      </trkpt>
      <trkpt lat="39.0348260" lon="-3.9913210">
        <ele>620.3</ele>
        <time>2019-08-11T18:22:35Z</time>
      </trkpt>
      <trkpt lat="39.0347730" lon="-3.9912200">
        <ele>620.2</ele>
        <time>2019-08-11T18:22:36Z</time>
      </trkpt>
      <trkpt lat="39.0347170" lon="-3.9911210">
        <ele>620.1</ele>
        <time>2019-08-11T18:22:37Z</time>
      </trkpt>
      <trkpt lat="39.0346570" lon="-3.9910260">
        <ele>620.0</ele>
        <time>2019-08-11T18:22:38Z</time>
      </trkpt>
      <trkpt lat="39.0345950" lon="-3.9909320">
        <ele>620.0</ele>
        <time>2019-08-11T18:22:39Z</time>
      </trkpt>
      <trkpt lat="39.0345300" lon="-3.9908410">
        <ele>619.9</ele>
        <time>2019-08-11T18:22:40Z</time>
      </trkpt>
      <trkpt lat="39.0344630" lon="-3.9907500">
        <ele>619.8</ele>
        <time>2019-08-11T18:22:41Z</time>
      </trkpt>
      <trkpt lat="39.0343950" lon="-3.9906600">
        <ele>619.7</ele>
        <time>2019-08-11T18:22:42Z</time>
      </trkpt>
      <trkpt lat="39.0343260" lon="-3.9905700">
        <ele>619.5</ele>
        <time>2019-08-11T18:22:43Z</time>
      </trkpt>
      <trkpt lat="39.0342560" lon="-3.9904800">
        <ele>619.3</ele>
        <time>2019-08-11T18:22:44Z</time>
      </trkpt>
      <trkpt lat="39.0341860" lon="-3.9903890">
        <ele>619.1</ele>
        <time>2019-08-11T18:22:45Z</time>
      </trkpt>
      <trkpt lat="39.0341170" lon="-3.9902960">
        <ele>618.8</ele>
        <time>2019-08-11T18:22:46Z</time>
      </trkpt>
      <trkpt lat="39.0340490" lon="-3.9902030">
        <ele>618.5</ele>
        <time>2019-08-11T18:22:47Z</time>
      </trkpt>
      <trkpt lat="39.0339810" lon="-3.9901080">
        <ele>618.1</ele>
        <time>2019-08-11T18:22:48Z</time>
      </trkpt>
      <trkpt lat="39.0339130" lon="-3.9900140">
        <ele>617.7</ele>
        <time>2019-08-11T18:22:49Z</time>
      </trkpt>
      <trkpt lat="39.0338460" lon="-3.9899190">
        <ele>617.3</ele>
        <time>2019-08-11T18:22:50Z</time>
      </trkpt>
      <trkpt lat="39.0337790" lon="-3.9898250">
        <ele>616.9</ele>
        <time>2019-08-11T18:22:51Z</time>
      </trkpt>
      <trkpt lat="39.0337120" lon="-3.9897320">
        <ele>616.5</ele>
        <time>2019-08-11T18:22:52Z</time>
      </trkpt>
      <trkpt lat="39.0336460" lon="-3.9896400">
        <ele>616.1</ele>
        <time>2019-08-11T18:22:53Z</time>
      </trkpt>
      <trkpt lat="39.0335800" lon="-3.9895490">
        <ele>615.9</ele>
        <time>2019-08-11T18:22:54Z</time>
      </trkpt>
      <trkpt lat="39.0335140" lon="-3.9894590">
        <ele>615.8</ele>
        <time>2019-08-11T18:22:55Z</time>
      </trkpt>
      <trkpt lat="39.0334500" lon="-3.9893710">
        <ele>615.8</ele>
        <time>2019-08-11T18:22:56Z</time>
      </trkpt>
      <trkpt lat="39.0333860" lon="-3.9892850">
        <ele>615.9</ele>
        <time>2019-08-11T18:22:57Z</time>
      </trkpt>
      <trkpt lat="39.0333250" lon="-3.9891990">
        <ele>616.2</ele>
        <time>2019-08-11T18:22:58Z</time>
      </trkpt>
      <trkpt lat="39.0332650" lon="-3.9891160">
        <ele>616.4</ele>
        <time>2019-08-11T18:22:59Z</time>
      </trkpt>
      <trkpt lat="39.0332060" lon="-3.9890340">
        <ele>616.6</ele>
        <time>2019-08-11T18:23:00Z</time>
      </trkpt>
      <trkpt lat="39.0331490" lon="-3.9889550">
        <ele>616.9</ele>
        <time>2019-08-11T18:23:01Z</time>
      </trkpt>
      <trkpt lat="39.0330920" lon="-3.9888770">
        <ele>617.0</ele>
        <time>2019-08-11T18:23:02Z</time>
      </trkpt>
      <trkpt lat="39.0330370" lon="-3.9888020">
        <ele>617.2</ele>
        <time>2019-08-11T18:23:03Z</time>
      </trkpt>
      <trkpt lat="39.0329900" lon="-3.9887220">
        <ele>617.3</ele>
        <time>2019-08-11T18:23:04Z</time>
      </trkpt>
      <trkpt lat="39.0329460" lon="-3.9886620">
        <ele>617.4</ele>
        <time>2019-08-11T18:23:05Z</time>
      </trkpt>
      <trkpt lat="39.0329080" lon="-3.9886100">
        <ele>617.5</ele>
        <time>2019-08-11T18:23:06Z</time>
      </trkpt>
      <trkpt lat="39.0330070" lon="-3.9882730">
        <ele>618.0</ele>
        <time>2019-08-11T18:23:23Z</time>
      </trkpt>
      <trkpt lat="39.0330290" lon="-3.9882610">
        <ele>618.0</ele>
        <time>2019-08-11T18:23:24Z</time>
      </trkpt>
      <trkpt lat="39.0330720" lon="-3.9882320">
        <ele>618.0</ele>
        <time>2019-08-11T18:23:25Z</time>
      </trkpt>
      <trkpt lat="39.0331220" lon="-3.9882000">
        <ele>618.0</ele>
        <time>2019-08-11T18:23:26Z</time>
      </trkpt>
      <trkpt lat="39.0331730" lon="-3.9881760">
        <ele>618.1</ele>
        <time>2019-08-11T18:23:27Z</time>
      </trkpt>
      <trkpt lat="39.0332600" lon="-3.9881350">
        <ele>618.2</ele>
        <time>2019-08-11T18:23:28Z</time>
      </trkpt>
      <trkpt lat="39.0332950" lon="-3.9881190">
        <ele>618.2</ele>
        <time>2019-08-11T18:23:29Z</time>
      </trkpt>
      <trkpt lat="39.0333300" lon="-3.9881020">
        <ele>618.3</ele>
        <time>2019-08-11T18:23:30Z</time>
      </trkpt>
      <trkpt lat="39.0333830" lon="-3.9880780">
        <ele>618.3</ele>
        <time>2019-08-11T18:23:31Z</time>
      </trkpt>
      <trkpt lat="39.0334350" lon="-3.9880550">
        <ele>618.4</ele>
        <time>2019-08-11T18:23:32Z</time>
      </trkpt>
      <trkpt lat="39.0334870" lon="-3.9880320">
        <ele>618.4</ele>
        <time>2019-08-11T18:23:33Z</time>
      </trkpt>
      <trkpt lat="39.0335750" lon="-3.9879960">
        <ele>618.6</ele>
        <time>2019-08-11T18:23:34Z</time>
      </trkpt>
      <trkpt lat="39.0336110" lon="-3.9879810">
        <ele>618.7</ele>
        <time>2019-08-11T18:23:35Z</time>
      </trkpt>
      <trkpt lat="39.0336480" lon="-3.9879670">
        <ele>618.7</ele>
        <time>2019-08-11T18:23:36Z</time>
      </trkpt>
      <trkpt lat="39.0336840" lon="-3.9879520">
        <ele>618.7</ele>
        <time>2019-08-11T18:23:37Z</time>
      </trkpt>
      <trkpt lat="39.0337310" lon="-3.9879350">
        <ele>618.8</ele>
        <time>2019-08-11T18:23:38Z</time>
      </trkpt>
      <trkpt lat="39.0337780" lon="-3.9879180">
        <ele>618.8</ele>
        <time>2019-08-11T18:23:39Z</time>
      </trkpt>
      <trkpt lat="39.0338240" lon="-3.9879010">
        <ele>618.9</ele>
        <time>2019-08-11T18:23:40Z</time>
      </trkpt>
      <trkpt lat="39.0338700" lon="-3.9878840">
        <ele>618.9</ele>
        <time>2019-08-11T18:23:41Z</time>
      </trkpt>
      <trkpt lat="39.0339170" lon="-3.9878670">
        <ele>618.9</ele>
        <time>2019-08-11T18:23:42Z</time>
      </trkpt>
      <trkpt lat="39.0339640" lon="-3.9878480">
        <ele>618.9</ele>
        <time>2019-08-11T18:23:43Z</time>
      </trkpt>
      <trkpt lat="39.0340120" lon="-3.9878290">
        <ele>618.9</ele>
        <time>2019-08-11T18:23:44Z</time>
      </trkpt>
      <trkpt lat="39.0340610" lon="-3.9878070">
        <ele>618.9</ele>
        <time>2019-08-11T18:23:45Z</time>
      </trkpt>
      <trkpt lat="39.0341110" lon="-3.9877850">
        <ele>618.9</ele>
        <time>2019-08-11T18:23:46Z</time>
      </trkpt>
      <trkpt lat="39.0341620" lon="-3.9877610">
        <ele>618.9</ele>
        <time>2019-08-11T18:23:47Z</time>
      </trkpt>
      <trkpt lat="39.0342140" lon="-3.9877360">
        <ele>619.0</ele>
        <time>2019-08-11T18:23:48Z</time>
      </trkpt>
      <trkpt lat="39.0342660" lon="-3.9877110">
        <ele>619.0</ele>
        <time>2019-08-11T18:23:49Z</time>
      </trkpt>
      <trkpt lat="39.0343190" lon="-3.9876850">
        <ele>619.1</ele>
        <time>2019-08-11T18:23:50Z</time>
      </trkpt>
      <trkpt lat="39.0343720" lon="-3.9876580">
        <ele>619.1</ele>
        <time>2019-08-11T18:23:51Z</time>
      </trkpt>
      <trkpt lat="39.0344250" lon="-3.9876320">
        <ele>619.1</ele>
        <time>2019-08-11T18:23:52Z</time>
      </trkpt>
      <trkpt lat="39.0344790" lon="-3.9876050">
        <ele>619.2</ele>
        <time>2019-08-11T18:23:53Z</time>
      </trkpt>
      <trkpt lat="39.0345320" lon="-3.9875790">
        <ele>619.2</ele>
        <time>2019-08-11T18:23:54Z</time>
      </trkpt>
      <trkpt lat="39.0345860" lon="-3.9875530">
        <ele>619.3</ele>
        <time>2019-08-11T18:23:55Z</time>
      </trkpt>
      <trkpt lat="39.0346390" lon="-3.9875280">
        <ele>619.3</ele>
        <time>2019-08-11T18:23:56Z</time>
      </trkpt>
      <trkpt lat="39.0347290" lon="-3.9874870">
        <ele>619.3</ele>
        <time>2019-08-11T18:23:57Z</time>
      </trkpt>
      <trkpt lat="39.0347660" lon="-3.9874700">
        <ele>619.3</ele>
        <time>2019-08-11T18:23:58Z</time>
      </trkpt>
      <trkpt lat="39.0348020" lon="-3.9874540">
        <ele>619.3</ele>
        <time>2019-08-11T18:23:59Z</time>
      </trkpt>
      <trkpt lat="39.0348580" lon="-3.9874300">
        <ele>619.4</ele>
        <time>2019-08-11T18:24:00Z</time>
      </trkpt>
      <trkpt lat="39.0349140" lon="-3.9874070">
        <ele>619.4</ele>
        <time>2019-08-11T18:24:01Z</time>
      </trkpt>
      <trkpt lat="39.0350090" lon="-3.9873690">
        <ele>619.5</ele>
        <time>2019-08-11T18:24:02Z</time>
      </trkpt>
      <trkpt lat="39.0350480" lon="-3.9873550">
        <ele>619.6</ele>
        <time>2019-08-11T18:24:03Z</time>
      </trkpt>
      <trkpt lat="39.0350860" lon="-3.9873400">
        <ele>619.6</ele>
        <time>2019-08-11T18:24:04Z</time>
      </trkpt>
      <trkpt lat="39.0351450" lon="-3.9873170">
        <ele>619.7</ele>
        <time>2019-08-11T18:24:05Z</time>
      </trkpt>
      <trkpt lat="39.0352050" lon="-3.9872940">
        <ele>619.8</ele>
        <time>2019-08-11T18:24:06Z</time>
      </trkpt>
      <trkpt lat="39.0352650" lon="-3.9872710">
        <ele>619.9</ele>
        <time>2019-08-11T18:24:07Z</time>
      </trkpt>
      <trkpt lat="39.0353260" lon="-3.9872470">
        <ele>620.0</ele>
        <time>2019-08-11T18:24:08Z</time>
      </trkpt>
      <trkpt lat="39.0353870" lon="-3.9872230">
        <ele>620.1</ele>
        <time>2019-08-11T18:24:09Z</time>
      </trkpt>
      <trkpt lat="39.0354480" lon="-3.9871980">
        <ele>620.2</ele>
        <time>2019-08-11T18:24:10Z</time>
      </trkpt>
      <trkpt lat="39.0355090" lon="-3.9871740">
        <ele>620.3</ele>
        <time>2019-08-11T18:24:11Z</time>
      </trkpt>
      <trkpt lat="39.0355710" lon="-3.9871500">
        <ele>620.3</ele>
        <time>2019-08-11T18:24:12Z</time>
      </trkpt>
      <trkpt lat="39.0356320" lon="-3.9871260">
        <ele>620.3</ele>
        <time>2019-08-11T18:24:13Z</time>
      </trkpt>
      <trkpt lat="39.0356940" lon="-3.9871020">
        <ele>620.3</ele>
        <time>2019-08-11T18:24:14Z</time>
      </trkpt>
      <trkpt lat="39.0357550" lon="-3.9870780">
        <ele>620.2</ele>
        <time>2019-08-11T18:24:15Z</time>
      </trkpt>
      <trkpt lat="39.0358160" lon="-3.9870550">
        <ele>620.0</ele>
        <time>2019-08-11T18:24:16Z</time>
      </trkpt>
      <trkpt lat="39.0358770" lon="-3.9870330">
        <ele>619.9</ele>
        <time>2019-08-11T18:24:17Z</time>
      </trkpt>
      <trkpt lat="39.0359380" lon="-3.9870100">
        <ele>619.8</ele>
        <time>2019-08-11T18:24:18Z</time>
      </trkpt>
      <trkpt lat="39.0359980" lon="-3.9869890">
        <ele>619.7</ele>
        <time>2019-08-11T18:24:19Z</time>
      </trkpt>
      <trkpt lat="39.0360580" lon="-3.9869680">
        <ele>619.5</ele>
        <time>2019-08-11T18:24:20Z</time>
      </trkpt>
      <trkpt lat="39.0361180" lon="-3.9869470">
        <ele>619.4</ele>
        <time>2019-08-11T18:24:21Z</time>
      </trkpt>
      <trkpt lat="39.0361780" lon="-3.9869260">
        <ele>619.3</ele>
        <time>2019-08-11T18:24:22Z</time>
      </trkpt>
      <trkpt lat="39.0362380" lon="-3.9869060">
        <ele>619.2</ele>
        <time>2019-08-11T18:24:23Z</time>
      </trkpt>
      <trkpt lat="39.0362980" lon="-3.9868850">
        <ele>619.0</ele>
        <time>2019-08-11T18:24:24Z</time>
      </trkpt>
      <trkpt lat="39.0363590" lon="-3.9868650">
        <ele>618.9</ele>
        <time>2019-08-11T18:24:25Z</time>
      </trkpt>
      <trkpt lat="39.0364210" lon="-3.9868440">
        <ele>618.8</ele>
        <time>2019-08-11T18:24:26Z</time>
      </trkpt>
      <trkpt lat="39.0364830" lon="-3.9868220">
        <ele>618.8</ele>
        <time>2019-08-11T18:24:27Z</time>
      </trkpt>
      <trkpt lat="39.0365460" lon="-3.9868000">
        <ele>618.7</ele>
        <time>2019-08-11T18:24:28Z</time>
      </trkpt>
      <trkpt lat="39.0366100" lon="-3.9867780">
        <ele>618.7</ele>
        <time>2019-08-11T18:24:29Z</time>
      </trkpt>
      <trkpt lat="39.0366750" lon="-3.9867550">
        <ele>618.7</ele>
        <time>2019-08-11T18:24:30Z</time>
      </trkpt>
      <trkpt lat="39.0367410" lon="-3.9867310">
        <ele>618.7</ele>
        <time>2019-08-11T18:24:31Z</time>
      </trkpt>
      <trkpt lat="39.0368070" lon="-3.9867070">
        <ele>618.6</ele>
        <time>2019-08-11T18:24:32Z</time>
      </trkpt>
      <trkpt lat="39.0368730" lon="-3.9866830">
        <ele>618.6</ele>
        <time>2019-08-11T18:24:33Z</time>
      </trkpt>
      <trkpt lat="39.0369390" lon="-3.9866590">
        <ele>618.6</ele>
        <time>2019-08-11T18:24:34Z</time>
      </trkpt>
      <trkpt lat="39.0370060" lon="-3.9866350">
        <ele>618.5</ele>
        <time>2019-08-11T18:24:35Z</time>
      </trkpt>
      <trkpt lat="39.0370720" lon="-3.9866100">
        <ele>618.5</ele>
        <time>2019-08-11T18:24:36Z</time>
      </trkpt>
      <trkpt lat="39.0371390" lon="-3.9865850">
        <ele>618.5</ele>
        <time>2019-08-11T18:24:37Z</time>
      </trkpt>
      <trkpt lat="39.0372050" lon="-3.9865610">
        <ele>618.4</ele>
        <time>2019-08-11T18:24:38Z</time>
      </trkpt>
      <trkpt lat="39.0372720" lon="-3.9865370">
        <ele>618.4</ele>
        <time>2019-08-11T18:24:39Z</time>
      </trkpt>
      <trkpt lat="39.0373380" lon="-3.9865120">
        <ele>618.3</ele>
        <time>2019-08-11T18:24:40Z</time>
      </trkpt>
      <trkpt lat="39.0374050" lon="-3.9864890">
        <ele>618.3</ele>
        <time>2019-08-11T18:24:41Z</time>
      </trkpt>
      <trkpt lat="39.0374720" lon="-3.9864650">
        <ele>618.2</ele>
        <time>2019-08-11T18:24:42Z</time>
      </trkpt>
      <trkpt lat="39.0375380" lon="-3.9864420">
        <ele>618.2</ele>
        <time>2019-08-11T18:24:43Z</time>
      </trkpt>
      <trkpt lat="39.0376050" lon="-3.9864200">
        <ele>618.1</ele>
        <time>2019-08-11T18:24:44Z</time>
      </trkpt>
      <trkpt lat="39.0376720" lon="-3.9863980">
        <ele>618.1</ele>
        <time>2019-08-11T18:24:45Z</time>
      </trkpt>
      <trkpt lat="39.0377400" lon="-3.9863770">
        <ele>618.0</ele>
        <time>2019-08-11T18:24:46Z</time>
      </trkpt>
      <trkpt lat="39.0378070" lon="-3.9863560">
        <ele>617.9</ele>
        <time>2019-08-11T18:24:47Z</time>
      </trkpt>
      <trkpt lat="39.0378730" lon="-3.9863340">
        <ele>617.9</ele>
        <time>2019-08-11T18:24:48Z</time>
      </trkpt>
      <trkpt lat="39.0379400" lon="-3.9863130">
        <ele>617.8</ele>
        <time>2019-08-11T18:24:49Z</time>
      </trkpt>
      <trkpt lat="39.0380060" lon="-3.9862910">
        <ele>617.7</ele>
        <time>2019-08-11T18:24:50Z</time>
      </trkpt>
      <trkpt lat="39.0380710" lon="-3.9862690">
        <ele>617.6</ele>
        <time>2019-08-11T18:24:51Z</time>
      </trkpt>
      <trkpt lat="39.0381360" lon="-3.9862460">
        <ele>617.5</ele>
        <time>2019-08-11T18:24:52Z</time>
      </trkpt>
      <trkpt lat="39.0381990" lon="-3.9862220">
        <ele>617.5</ele>
        <time>2019-08-11T18:24:53Z</time>
      </trkpt>
      <trkpt lat="39.0382620" lon="-3.9861980">
        <ele>617.4</ele>
        <time>2019-08-11T18:24:54Z</time>
      </trkpt>
      <trkpt lat="39.0383250" lon="-3.9861730">
        <ele>617.4</ele>
        <time>2019-08-11T18:24:55Z</time>
      </trkpt>
      <trkpt lat="39.0383860" lon="-3.9861470">
        <ele>617.4</ele>
        <time>2019-08-11T18:24:56Z</time>
      </trkpt>
      <trkpt lat="39.0384480" lon="-3.9861220">
        <ele>617.4</ele>
        <time>2019-08-11T18:24:57Z</time>
      </trkpt>
      <trkpt lat="39.0385080" lon="-3.9860980">
        <ele>617.4</ele>
        <time>2019-08-11T18:24:58Z</time>
      </trkpt>
      <trkpt lat="39.0385690" lon="-3.9860740">
        <ele>617.4</ele>
        <time>2019-08-11T18:24:59Z</time>
      </trkpt>
      <trkpt lat="39.0386290" lon="-3.9860510">
        <ele>617.4</ele>
        <time>2019-08-11T18:25:00Z</time>
      </trkpt>
      <trkpt lat="39.0386890" lon="-3.9860290">
        <ele>617.4</ele>
        <time>2019-08-11T18:25:01Z</time>
      </trkpt>
      <trkpt lat="39.0387500" lon="-3.9860090">
        <ele>617.4</ele>
        <time>2019-08-11T18:25:02Z</time>
      </trkpt>
      <trkpt lat="39.0388100" lon="-3.9859900">
        <ele>617.4</ele>
        <time>2019-08-11T18:25:03Z</time>
      </trkpt>
      <trkpt lat="39.0388700" lon="-3.9859710">
        <ele>617.4</ele>
        <time>2019-08-11T18:25:04Z</time>
      </trkpt>
      <trkpt lat="39.0389300" lon="-3.9859530">
        <ele>617.4</ele>
        <time>2019-08-11T18:25:05Z</time>
      </trkpt>
      <trkpt lat="39.0389900" lon="-3.9859350">
        <ele>617.5</ele>
        <time>2019-08-11T18:25:06Z</time>
      </trkpt>
      <trkpt lat="39.0390500" lon="-3.9859170">
        <ele>617.5</ele>
        <time>2019-08-11T18:25:07Z</time>
      </trkpt>
      <trkpt lat="39.0391100" lon="-3.9858980">
        <ele>617.5</ele>
        <time>2019-08-11T18:25:08Z</time>
      </trkpt>
      <trkpt lat="39.0391710" lon="-3.9858770">
        <ele>617.6</ele>
        <time>2019-08-11T18:25:09Z</time>
      </trkpt>
      <trkpt lat="39.0392310" lon="-3.9858550">
        <ele>617.6</ele>
        <time>2019-08-11T18:25:10Z</time>
      </trkpt>
      <trkpt lat="39.0392900" lon="-3.9858310">
        <ele>617.6</ele>
        <time>2019-08-11T18:25:11Z</time>
      </trkpt>
      <trkpt lat="39.0393490" lon="-3.9858040">
        <ele>617.6</ele>
        <time>2019-08-11T18:25:12Z</time>
      </trkpt>
      <trkpt lat="39.0394070" lon="-3.9857740">
        <ele>617.6</ele>
        <time>2019-08-11T18:25:13Z</time>
      </trkpt>
      <trkpt lat="39.0394640" lon="-3.9857390">
        <ele>617.6</ele>
        <time>2019-08-11T18:25:14Z</time>
      </trkpt>
      <trkpt lat="39.0395190" lon="-3.9857000">
        <ele>617.6</ele>
        <time>2019-08-11T18:25:15Z</time>
      </trkpt>
      <trkpt lat="39.0395730" lon="-3.9856580">
        <ele>617.6</ele>
        <time>2019-08-11T18:25:16Z</time>
      </trkpt>
      <trkpt lat="39.0396260" lon="-3.9856130">
        <ele>617.6</ele>
        <time>2019-08-11T18:25:17Z</time>
      </trkpt>
      <trkpt lat="39.0396790" lon="-3.9855670">
        <ele>617.6</ele>
        <time>2019-08-11T18:25:18Z</time>
      </trkpt>
      <trkpt lat="39.0397320" lon="-3.9855220">
        <ele>617.6</ele>
        <time>2019-08-11T18:25:19Z</time>
      </trkpt>
      <trkpt lat="39.0397850" lon="-3.9854770">
        <ele>617.6</ele>
        <time>2019-08-11T18:25:20Z</time>
      </trkpt>
      <trkpt lat="39.0398380" lon="-3.9854320">
        <ele>617.6</ele>
        <time>2019-08-11T18:25:21Z</time>
      </trkpt>
      <trkpt lat="39.0398920" lon="-3.9853870">
        <ele>617.6</ele>
        <time>2019-08-11T18:25:22Z</time>
      </trkpt>
      <trkpt lat="39.0399460" lon="-3.9853410">
        <ele>617.6</ele>
        <time>2019-08-11T18:25:23Z</time>
      </trkpt>
      <trkpt lat="39.0400000" lon="-3.9852950">
        <ele>617.6</ele>
        <time>2019-08-11T18:25:24Z</time>
      </trkpt>
      <trkpt lat="39.0400540" lon="-3.9852500">
        <ele>617.6</ele>
        <time>2019-08-11T18:25:25Z</time>
      </trkpt>
      <trkpt lat="39.0401070" lon="-3.9852050">
        <ele>617.6</ele>
        <time>2019-08-11T18:25:26Z</time>
      </trkpt>
      <trkpt lat="39.0401610" lon="-3.9851610">
        <ele>617.6</ele>
        <time>2019-08-11T18:25:27Z</time>
      </trkpt>
      <trkpt lat="39.0402130" lon="-3.9851190">
        <ele>617.6</ele>
        <time>2019-08-11T18:25:28Z</time>
      </trkpt>
      <trkpt lat="39.0402660" lon="-3.9850760">
        <ele>617.6</ele>
        <time>2019-08-11T18:25:29Z</time>
      </trkpt>
      <trkpt lat="39.0403180" lon="-3.9850350">
        <ele>617.6</ele>
        <time>2019-08-11T18:25:30Z</time>
      </trkpt>
      <trkpt lat="39.0403700" lon="-3.9849930">
        <ele>617.7</ele>
        <time>2019-08-11T18:25:31Z</time>
      </trkpt>
      <trkpt lat="39.0404220" lon="-3.9849510">
        <ele>617.7</ele>
        <time>2019-08-11T18:25:32Z</time>
      </trkpt>
      <trkpt lat="39.0404750" lon="-3.9849080">
        <ele>617.7</ele>
        <time>2019-08-11T18:25:33Z</time>
      </trkpt>
      <trkpt lat="39.0405280" lon="-3.9848650">
        <ele>617.7</ele>
        <time>2019-08-11T18:25:34Z</time>
      </trkpt>
      <trkpt lat="39.0405810" lon="-3.9848200">
        <ele>617.8</ele>
        <time>2019-08-11T18:25:35Z</time>
      </trkpt>
      <trkpt lat="39.0406350" lon="-3.9847740">
        <ele>617.8</ele>
        <time>2019-08-11T18:25:36Z</time>
      </trkpt>
      <trkpt lat="39.0406900" lon="-3.9847270">
        <ele>617.8</ele>
        <time>2019-08-11T18:25:37Z</time>
      </trkpt>
      <trkpt lat="39.0407450" lon="-3.9846810">
        <ele>617.8</ele>
        <time>2019-08-11T18:25:38Z</time>
      </trkpt>
      <trkpt lat="39.0408000" lon="-3.9846350">
        <ele>617.8</ele>
        <time>2019-08-11T18:25:39Z</time>
      </trkpt>
      <trkpt lat="39.0408560" lon="-3.9845900">
        <ele>617.9</ele>
        <time>2019-08-11T18:25:40Z</time>
      </trkpt>
      <trkpt lat="39.0409130" lon="-3.9845470">
        <ele>617.9</ele>
        <time>2019-08-11T18:25:41Z</time>
      </trkpt>
      <trkpt lat="39.0409700" lon="-3.9845070">
        <ele>617.9</ele>
        <time>2019-08-11T18:25:42Z</time>
      </trkpt>
      <trkpt lat="39.0410270" lon="-3.9844700">
        <ele>618.0</ele>
        <time>2019-08-11T18:25:43Z</time>
      </trkpt>
      <trkpt lat="39.0410840" lon="-3.9844370">
        <ele>618.0</ele>
        <time>2019-08-11T18:25:44Z</time>
      </trkpt>
      <trkpt lat="39.0411420" lon="-3.9844080">
        <ele>618.0</ele>
        <time>2019-08-11T18:25:45Z</time>
      </trkpt>
      <trkpt lat="39.0412000" lon="-3.9843820">
        <ele>618.1</ele>
        <time>2019-08-11T18:25:46Z</time>
      </trkpt>
      <trkpt lat="39.0412590" lon="-3.9843600">
        <ele>618.1</ele>
        <time>2019-08-11T18:25:47Z</time>
      </trkpt>
      <trkpt lat="39.0413180" lon="-3.9843410">
        <ele>618.1</ele>
        <time>2019-08-11T18:25:48Z</time>
      </trkpt>
      <trkpt lat="39.0413770" lon="-3.9843250">
        <ele>618.1</ele>
        <time>2019-08-11T18:25:49Z</time>
      </trkpt>
      <trkpt lat="39.0414360" lon="-3.9843120">
        <ele>618.2</ele>
        <time>2019-08-11T18:25:50Z</time>
      </trkpt>
      <trkpt lat="39.0414960" lon="-3.9843010">
        <ele>618.2</ele>
        <time>2019-08-11T18:25:51Z</time>
      </trkpt>
      <trkpt lat="39.0415570" lon="-3.9842930">
        <ele>618.2</ele>
        <time>2019-08-11T18:25:52Z</time>
      </trkpt>
      <trkpt lat="39.0416170" lon="-3.9842870">
        <ele>618.2</ele>
        <time>2019-08-11T18:25:53Z</time>
      </trkpt>
      <trkpt lat="39.0416780" lon="-3.9842840">
        <ele>618.3</ele>
        <time>2019-08-11T18:25:54Z</time>
      </trkpt>
      <trkpt lat="39.0417380" lon="-3.9842820">
        <ele>618.3</ele>
        <time>2019-08-11T18:25:55Z</time>
      </trkpt>
      <trkpt lat="39.0417980" lon="-3.9842810">
        <ele>618.3</ele>
        <time>2019-08-11T18:25:56Z</time>
      </trkpt>
      <trkpt lat="39.0418570" lon="-3.9842820">
        <ele>618.3</ele>
        <time>2019-08-11T18:25:57Z</time>
      </trkpt>
      <trkpt lat="39.0419140" lon="-3.9842810">
        <ele>618.4</ele>
        <time>2019-08-11T18:25:58Z</time>
      </trkpt>
      <trkpt lat="39.0419710" lon="-3.9842790">
        <ele>618.4</ele>
        <time>2019-08-11T18:25:59Z</time>
      </trkpt>
      <trkpt lat="39.0420220" lon="-3.9842680">
        <ele>618.4</ele>
        <time>2019-08-11T18:26:00Z</time>
      </trkpt>
      <trkpt lat="39.0420670" lon="-3.9842440">
        <ele>618.4</ele>
        <time>2019-08-11T18:26:01Z</time>
      </trkpt>
      <trkpt lat="39.0421040" lon="-3.9842050">
        <ele>618.4</ele>
        <time>2019-08-11T18:26:02Z</time>
      </trkpt>
      <trkpt lat="39.0421270" lon="-3.9841580">
        <ele>618.3</ele>
        <time>2019-08-11T18:26:03Z</time>
      </trkpt>
      <trkpt lat="39.0421300" lon="-3.9841120">
        <ele>618.3</ele>
        <time>2019-08-11T18:26:04Z</time>
      </trkpt>
      <trkpt lat="39.0421110" lon="-3.9840740">
        <ele>618.3</ele>
        <time>2019-08-11T18:26:05Z</time>
      </trkpt>
      <trkpt lat="39.0420790" lon="-3.9840380">
        <ele>618.3</ele>
        <time>2019-08-11T18:26:06Z</time>
      </trkpt>
      <trkpt lat="39.0420450" lon="-3.9839950">
        <ele>618.3</ele>
        <time>2019-08-11T18:26:07Z</time>
      </trkpt>
      <trkpt lat="39.0420100" lon="-3.9839460">
        <ele>618.3</ele>
        <time>2019-08-11T18:26:08Z</time>
      </trkpt>
      <trkpt lat="39.0419740" lon="-3.9838920">
        <ele>618.3</ele>
        <time>2019-08-11T18:26:09Z</time>
      </trkpt>
      <trkpt lat="39.0419350" lon="-3.9838350">
        <ele>618.2</ele>
        <time>2019-08-11T18:26:10Z</time>
      </trkpt>
      <trkpt lat="39.0418940" lon="-3.9837770">
        <ele>618.2</ele>
        <time>2019-08-11T18:26:11Z</time>
      </trkpt>
      <trkpt lat="39.0418500" lon="-3.9837170">
        <ele>618.2</ele>
        <time>2019-08-11T18:26:12Z</time>
      </trkpt>
      <trkpt lat="39.0418050" lon="-3.9836550">
        <ele>618.2</ele>
        <time>2019-08-11T18:26:13Z</time>
      </trkpt>
      <trkpt lat="39.0417570" lon="-3.9835930">
        <ele>618.2</ele>
        <time>2019-08-11T18:26:14Z</time>
      </trkpt>
      <trkpt lat="39.0417080" lon="-3.9835290">
        <ele>618.2</ele>
        <time>2019-08-11T18:26:15Z</time>
      </trkpt>
      <trkpt lat="39.0416580" lon="-3.9834650">
        <ele>618.2</ele>
        <time>2019-08-11T18:26:16Z</time>
      </trkpt>
      <trkpt lat="39.0416080" lon="-3.9833990">
        <ele>618.3</ele>
        <time>2019-08-11T18:26:17Z</time>
      </trkpt>
      <trkpt lat="39.0415570" lon="-3.9833330">
        <ele>618.3</ele>
        <time>2019-08-11T18:26:18Z</time>
      </trkpt>
      <trkpt lat="39.0415060" lon="-3.9832650">
        <ele>618.4</ele>
        <time>2019-08-11T18:26:19Z</time>
      </trkpt>
      <trkpt lat="39.0414560" lon="-3.9831970">
        <ele>618.4</ele>
        <time>2019-08-11T18:26:20Z</time>
      </trkpt>
      <trkpt lat="39.0414050" lon="-3.9831290">
        <ele>618.5</ele>
        <time>2019-08-11T18:26:21Z</time>
      </trkpt>
      <trkpt lat="39.0413550" lon="-3.9830600">
        <ele>618.5</ele>
        <time>2019-08-11T18:26:22Z</time>
      </trkpt>
      <trkpt lat="39.0413040" lon="-3.9829910">
        <ele>618.6</ele>
        <time>2019-08-11T18:26:23Z</time>
      </trkpt>
      <trkpt lat="39.0412540" lon="-3.9829220">
        <ele>618.7</ele>
        <time>2019-08-11T18:26:24Z</time>
      </trkpt>
      <trkpt lat="39.0412030" lon="-3.9828530">
        <ele>618.8</ele>
        <time>2019-08-11T18:26:25Z</time>
      </trkpt>
      <trkpt lat="39.0411530" lon="-3.9827840">
        <ele>618.8</ele>
        <time>2019-08-11T18:26:26Z</time>
      </trkpt>
      <trkpt lat="39.0411030" lon="-3.9827150">
        <ele>618.9</ele>
        <time>2019-08-11T18:26:27Z</time>
      </trkpt>
      <trkpt lat="39.0410530" lon="-3.9826470">
        <ele>618.9</ele>
        <time>2019-08-11T18:26:28Z</time>
      </trkpt>
      <trkpt lat="39.0410030" lon="-3.9825800">
        <ele>619.0</ele>
        <time>2019-08-11T18:26:29Z</time>
      </trkpt>
      <trkpt lat="39.0409530" lon="-3.9825130">
        <ele>619.0</ele>
        <time>2019-08-11T18:26:30Z</time>
      </trkpt>
      <trkpt lat="39.0409030" lon="-3.9824460">
        <ele>619.0</ele>
        <time>2019-08-11T18:26:31Z</time>
      </trkpt>
      <trkpt lat="39.0408530" lon="-3.9823790">
        <ele>618.9</ele>
        <time>2019-08-11T18:26:32Z</time>
      </trkpt>
      <trkpt lat="39.0408030" lon="-3.9823130">
        <ele>618.9</ele>
        <time>2019-08-11T18:26:33Z</time>
      </trkpt>
      <trkpt lat="39.0407520" lon="-3.9822460">
        <ele>618.9</ele>
        <time>2019-08-11T18:26:34Z</time>
      </trkpt>
      <trkpt lat="39.0406680" lon="-3.9821340">
        <ele>618.9</ele>
        <time>2019-08-11T18:26:35Z</time>
      </trkpt>
      <trkpt lat="39.0406350" lon="-3.9820900">
        <ele>618.9</ele>
        <time>2019-08-11T18:26:36Z</time>
      </trkpt>
      <trkpt lat="39.0406010" lon="-3.9820450">
        <ele>618.8</ele>
        <time>2019-08-11T18:26:37Z</time>
      </trkpt>
      <trkpt lat="39.0405500" lon="-3.9819770">
        <ele>618.8</ele>
        <time>2019-08-11T18:26:38Z</time>
      </trkpt>
      <trkpt lat="39.0404990" lon="-3.9819090">
        <ele>618.8</ele>
        <time>2019-08-11T18:26:39Z</time>
      </trkpt>
      <trkpt lat="39.0404130" lon="-3.9817960">
        <ele>618.8</ele>
        <time>2019-08-11T18:26:40Z</time>
      </trkpt>
      <trkpt lat="39.0403780" lon="-3.9817500">
        <ele>618.7</ele>
        <time>2019-08-11T18:26:41Z</time>
      </trkpt>
      <trkpt lat="39.0403440" lon="-3.9817050">
        <ele>618.7</ele>
        <time>2019-08-11T18:26:42Z</time>
      </trkpt>
      <trkpt lat="39.0402930" lon="-3.9816360">
        <ele>618.6</ele>
        <time>2019-08-11T18:26:43Z</time>
      </trkpt>
      <trkpt lat="39.0402410" lon="-3.9815670">
        <ele>618.6</ele>
        <time>2019-08-11T18:26:44Z</time>
      </trkpt>
      <trkpt lat="39.0401890" lon="-3.9814980">
        <ele>618.5</ele>
        <time>2019-08-11T18:26:45Z</time>
      </trkpt>
      <trkpt lat="39.0401370" lon="-3.9814290">
        <ele>618.4</ele>
        <time>2019-08-11T18:26:46Z</time>
      </trkpt>
      <trkpt lat="39.0400860" lon="-3.9813600">
        <ele>618.3</ele>
        <time>2019-08-11T18:26:47Z</time>
      </trkpt>
      <trkpt lat="39.0400340" lon="-3.9812900">
        <ele>618.2</ele>
        <time>2019-08-11T18:26:48Z</time>
      </trkpt>
      <trkpt lat="39.0399820" lon="-3.9812200">
        <ele>618.1</ele>
        <time>2019-08-11T18:26:49Z</time>
      </trkpt>
      <trkpt lat="39.0399300" lon="-3.9811500">
        <ele>618.0</ele>
        <time>2019-08-11T18:26:50Z</time>
      </trkpt>
      <trkpt lat="39.0398770" lon="-3.9810800">
        <ele>617.9</ele>
        <time>2019-08-11T18:26:51Z</time>
      </trkpt>
      <trkpt lat="39.0398250" lon="-3.9810100">
        <ele>617.9</ele>
        <time>2019-08-11T18:26:52Z</time>
      </trkpt>
      <trkpt lat="39.0397730" lon="-3.9809400">
        <ele>617.8</ele>
        <time>2019-08-11T18:26:53Z</time>
      </trkpt>
      <trkpt lat="39.0397210" lon="-3.9808690">
        <ele>617.7</ele>
        <time>2019-08-11T18:26:54Z</time>
      </trkpt>
      <trkpt lat="39.0396690" lon="-3.9807990">
        <ele>617.7</ele>
        <time>2019-08-11T18:26:55Z</time>
      </trkpt>
      <trkpt lat="39.0396170" lon="-3.9807280">
        <ele>617.6</ele>
        <time>2019-08-11T18:26:56Z</time>
      </trkpt>
      <trkpt lat="39.0395650" lon="-3.9806570">
        <ele>617.6</ele>
        <time>2019-08-11T18:26:57Z</time>
      </trkpt>
      <trkpt lat="39.0395130" lon="-3.9805860">
        <ele>617.5</ele>
        <time>2019-08-11T18:26:58Z</time>
      </trkpt>
      <trkpt lat="39.0394610" lon="-3.9805150">
        <ele>617.5</ele>
        <time>2019-08-11T18:26:59Z</time>
      </trkpt>
      <trkpt lat="39.0394100" lon="-3.9804440">
        <ele>617.5</ele>
        <time>2019-08-11T18:27:00Z</time>
      </trkpt>
      <trkpt lat="39.0393580" lon="-3.9803740">
        <ele>617.5</ele>
        <time>2019-08-11T18:27:01Z</time>
      </trkpt>
      <trkpt lat="39.0393060" lon="-3.9803030">
        <ele>617.5</ele>
        <time>2019-08-11T18:27:02Z</time>
      </trkpt>
      <trkpt lat="39.0392540" lon="-3.9802320">
        <ele>617.5</ele>
        <time>2019-08-11T18:27:03Z</time>
      </trkpt>
      <trkpt lat="39.0392030" lon="-3.9801610">
        <ele>617.4</ele>
        <time>2019-08-11T18:27:04Z</time>
      </trkpt>
      <trkpt lat="39.0391510" lon="-3.9800900">
        <ele>617.4</ele>
        <time>2019-08-11T18:27:05Z</time>
      </trkpt>
      <trkpt lat="39.0391000" lon="-3.9800200">
        <ele>617.4</ele>
        <time>2019-08-11T18:27:06Z</time>
      </trkpt>
      <trkpt lat="39.0390480" lon="-3.9799490">
        <ele>617.4</ele>
        <time>2019-08-11T18:27:07Z</time>
      </trkpt>
      <trkpt lat="39.0389970" lon="-3.9798790">
        <ele>617.3</ele>
        <time>2019-08-11T18:27:08Z</time>
      </trkpt>
      <trkpt lat="39.0389460" lon="-3.9798080">
        <ele>617.3</ele>
        <time>2019-08-11T18:27:09Z</time>
      </trkpt>
      <trkpt lat="39.0388940" lon="-3.9797380">
        <ele>617.3</ele>
        <time>2019-08-11T18:27:10Z</time>
      </trkpt>
      <trkpt lat="39.0388430" lon="-3.9796680">
        <ele>617.2</ele>
        <time>2019-08-11T18:27:11Z</time>
      </trkpt>
      <trkpt lat="39.0387920" lon="-3.9795990">
        <ele>617.1</ele>
        <time>2019-08-11T18:27:12Z</time>
      </trkpt>
      <trkpt lat="39.0387410" lon="-3.9795290">
        <ele>617.1</ele>
        <time>2019-08-11T18:27:13Z</time>
      </trkpt>
      <trkpt lat="39.0386910" lon="-3.9794590">
        <ele>617.0</ele>
        <time>2019-08-11T18:27:14Z</time>
      </trkpt>
      <trkpt lat="39.0386400" lon="-3.9793900">
        <ele>616.9</ele>
        <time>2019-08-11T18:27:15Z</time>
      </trkpt>
      <trkpt lat="39.0385890" lon="-3.9793200">
        <ele>616.9</ele>
        <time>2019-08-11T18:27:16Z</time>
      </trkpt>
      <trkpt lat="39.0385380" lon="-3.9792510">
        <ele>616.9</ele>
        <time>2019-08-11T18:27:17Z</time>
      </trkpt>
      <trkpt lat="39.0384870" lon="-3.9791820">
        <ele>616.8</ele>
        <time>2019-08-11T18:27:18Z</time>
      </trkpt>
      <trkpt lat="39.0384360" lon="-3.9791120">
        <ele>616.8</ele>
        <time>2019-08-11T18:27:19Z</time>
      </trkpt>
      <trkpt lat="39.0383850" lon="-3.9790430">
        <ele>616.8</ele>
        <time>2019-08-11T18:27:20Z</time>
      </trkpt>
      <trkpt lat="39.0383340" lon="-3.9789740">
        <ele>616.8</ele>
        <time>2019-08-11T18:27:21Z</time>
      </trkpt>
      <trkpt lat="39.0382830" lon="-3.9789040">
        <ele>616.8</ele>
        <time>2019-08-11T18:27:22Z</time>
      </trkpt>
      <trkpt lat="39.0382320" lon="-3.9788350">
        <ele>616.7</ele>
        <time>2019-08-11T18:27:23Z</time>
      </trkpt>
      <trkpt lat="39.0381800" lon="-3.9787650">
        <ele>616.7</ele>
        <time>2019-08-11T18:27:24Z</time>
      </trkpt>
      <trkpt lat="39.0381290" lon="-3.9786960">
        <ele>616.7</ele>
        <time>2019-08-11T18:27:25Z</time>
      </trkpt>
      <trkpt lat="39.0380770" lon="-3.9786260">
        <ele>616.6</ele>
        <time>2019-08-11T18:27:26Z</time>
      </trkpt>
      <trkpt lat="39.0380260" lon="-3.9785560">
        <ele>616.6</ele>
        <time>2019-08-11T18:27:27Z</time>
      </trkpt>
      <trkpt lat="39.0379740" lon="-3.9784870">
        <ele>616.5</ele>
        <time>2019-08-11T18:27:28Z</time>
      </trkpt>
      <trkpt lat="39.0379220" lon="-3.9784170">
        <ele>616.5</ele>
        <time>2019-08-11T18:27:29Z</time>
      </trkpt>
      <trkpt lat="39.0378700" lon="-3.9783470">
        <ele>616.4</ele>
        <time>2019-08-11T18:27:30Z</time>
      </trkpt>
      <trkpt lat="39.0378180" lon="-3.9782770">
        <ele>616.4</ele>
        <time>2019-08-11T18:27:31Z</time>
      </trkpt>
      <trkpt lat="39.0377660" lon="-3.9782060">
        <ele>616.4</ele>
        <time>2019-08-11T18:27:32Z</time>
      </trkpt>
      <trkpt lat="39.0377130" lon="-3.9781360">
        <ele>616.4</ele>
        <time>2019-08-11T18:27:33Z</time>
      </trkpt>
      <trkpt lat="39.0376610" lon="-3.9780660">
        <ele>616.4</ele>
        <time>2019-08-11T18:27:34Z</time>
      </trkpt>
      <trkpt lat="39.0376090" lon="-3.9779960">
        <ele>616.4</ele>
        <time>2019-08-11T18:27:35Z</time>
      </trkpt>
      <trkpt lat="39.0375570" lon="-3.9779260">
        <ele>616.5</ele>
        <time>2019-08-11T18:27:36Z</time>
      </trkpt>
      <trkpt lat="39.0375050" lon="-3.9778550">
        <ele>616.6</ele>
        <time>2019-08-11T18:27:37Z</time>
      </trkpt>
      <trkpt lat="39.0374530" lon="-3.9777850">
        <ele>616.6</ele>
        <time>2019-08-11T18:27:38Z</time>
      </trkpt>
      <trkpt lat="39.0374010" lon="-3.9777150">
        <ele>616.7</ele>
        <time>2019-08-11T18:27:39Z</time>
      </trkpt>
      <trkpt lat="39.0373500" lon="-3.9776450">
        <ele>616.7</ele>
        <time>2019-08-11T18:27:40Z</time>
      </trkpt>
      <trkpt lat="39.0372980" lon="-3.9775740">
        <ele>616.8</ele>
        <time>2019-08-11T18:27:41Z</time>
      </trkpt>
      <trkpt lat="39.0372470" lon="-3.9775040">
        <ele>616.8</ele>
        <time>2019-08-11T18:27:42Z</time>
      </trkpt>
      <trkpt lat="39.0371960" lon="-3.9774340">
        <ele>616.7</ele>
        <time>2019-08-11T18:27:43Z</time>
      </trkpt>
      <trkpt lat="39.0371450" lon="-3.9773640">
        <ele>616.7</ele>
        <time>2019-08-11T18:27:44Z</time>
      </trkpt>
      <trkpt lat="39.0370940" lon="-3.9772940">
        <ele>616.6</ele>
        <time>2019-08-11T18:27:45Z</time>
      </trkpt>
      <trkpt lat="39.0370440" lon="-3.9772240">
        <ele>616.5</ele>
        <time>2019-08-11T18:27:46Z</time>
      </trkpt>
      <trkpt lat="39.0369930" lon="-3.9771540">
        <ele>616.5</ele>
        <time>2019-08-11T18:27:47Z</time>
      </trkpt>
      <trkpt lat="39.0369430" lon="-3.9770850">
        <ele>616.4</ele>
        <time>2019-08-11T18:27:48Z</time>
      </trkpt>
      <trkpt lat="39.0368920" lon="-3.9770150">
        <ele>616.4</ele>
        <time>2019-08-11T18:27:49Z</time>
      </trkpt>
      <trkpt lat="39.0368410" lon="-3.9769450">
        <ele>616.3</ele>
        <time>2019-08-11T18:27:50Z</time>
      </trkpt>
      <trkpt lat="39.0367900" lon="-3.9768760">
        <ele>616.3</ele>
        <time>2019-08-11T18:27:51Z</time>
      </trkpt>
      <trkpt lat="39.0367380" lon="-3.9768060">
        <ele>616.3</ele>
        <time>2019-08-11T18:27:52Z</time>
      </trkpt>
      <trkpt lat="39.0366860" lon="-3.9767370">
        <ele>616.3</ele>
        <time>2019-08-11T18:27:53Z</time>
      </trkpt>
      <trkpt lat="39.0366340" lon="-3.9766680">
        <ele>616.3</ele>
        <time>2019-08-11T18:27:54Z</time>
      </trkpt>
      <trkpt lat="39.0365820" lon="-3.9765990">
        <ele>616.3</ele>
        <time>2019-08-11T18:27:55Z</time>
      </trkpt>
      <trkpt lat="39.0365300" lon="-3.9765300">
        <ele>616.4</ele>
        <time>2019-08-11T18:27:56Z</time>
      </trkpt>
      <trkpt lat="39.0364780" lon="-3.9764600">
        <ele>616.4</ele>
        <time>2019-08-11T18:27:57Z</time>
      </trkpt>
      <trkpt lat="39.0364260" lon="-3.9763920">
        <ele>616.4</ele>
        <time>2019-08-11T18:27:58Z</time>
      </trkpt>
      <trkpt lat="39.0363740" lon="-3.9763230">
        <ele>616.5</ele>
        <time>2019-08-11T18:27:59Z</time>
      </trkpt>
      <trkpt lat="39.0363230" lon="-3.9762540">
        <ele>616.5</ele>
        <time>2019-08-11T18:28:00Z</time>
      </trkpt>
      <trkpt lat="39.0362720" lon="-3.9761850">
        <ele>616.6</ele>
        <time>2019-08-11T18:28:01Z</time>
      </trkpt>
      <trkpt lat="39.0362220" lon="-3.9761160">
        <ele>616.6</ele>
        <time>2019-08-11T18:28:02Z</time>
      </trkpt>
      <trkpt lat="39.0361730" lon="-3.9760480">
        <ele>616.7</ele>
        <time>2019-08-11T18:28:03Z</time>
      </trkpt>
      <trkpt lat="39.0361230" lon="-3.9759790">
        <ele>616.8</ele>
        <time>2019-08-11T18:28:04Z</time>
      </trkpt>
      <trkpt lat="39.0360740" lon="-3.9759110">
        <ele>616.8</ele>
        <time>2019-08-11T18:28:05Z</time>
      </trkpt>
      <trkpt lat="39.0360250" lon="-3.9758420">
        <ele>616.9</ele>
        <time>2019-08-11T18:28:06Z</time>
      </trkpt>
      <trkpt lat="39.0359760" lon="-3.9757740">
        <ele>617.0</ele>
        <time>2019-08-11T18:28:07Z</time>
      </trkpt>
      <trkpt lat="39.0359270" lon="-3.9757060">
        <ele>617.0</ele>
        <time>2019-08-11T18:28:08Z</time>
      </trkpt>
      <trkpt lat="39.0358770" lon="-3.9756370">
        <ele>617.1</ele>
        <time>2019-08-11T18:28:09Z</time>
      </trkpt>
      <trkpt lat="39.0358270" lon="-3.9755690">
        <ele>617.2</ele>
        <time>2019-08-11T18:28:10Z</time>
      </trkpt>
      <trkpt lat="39.0357770" lon="-3.9755010">
        <ele>617.2</ele>
        <time>2019-08-11T18:28:11Z</time>
      </trkpt>
      <trkpt lat="39.0357260" lon="-3.9754320">
        <ele>617.3</ele>
        <time>2019-08-11T18:28:12Z</time>
      </trkpt>
      <trkpt lat="39.0356750" lon="-3.9753640">
        <ele>617.4</ele>
        <time>2019-08-11T18:28:13Z</time>
      </trkpt>
      <trkpt lat="39.0356240" lon="-3.9752950">
        <ele>617.5</ele>
        <time>2019-08-11T18:28:14Z</time>
      </trkpt>
      <trkpt lat="39.0355730" lon="-3.9752260">
        <ele>617.5</ele>
        <time>2019-08-11T18:28:15Z</time>
      </trkpt>
      <trkpt lat="39.0355210" lon="-3.9751570">
        <ele>617.5</ele>
        <time>2019-08-11T18:28:16Z</time>
      </trkpt>
      <trkpt lat="39.0354690" lon="-3.9750880">
        <ele>617.6</ele>
        <time>2019-08-11T18:28:17Z</time>
      </trkpt>
      <trkpt lat="39.0354170" lon="-3.9750180">
        <ele>617.6</ele>
        <time>2019-08-11T18:28:18Z</time>
      </trkpt>
      <trkpt lat="39.0353660" lon="-3.9749470">
        <ele>617.6</ele>
        <time>2019-08-11T18:28:19Z</time>
      </trkpt>
      <trkpt lat="39.0353140" lon="-3.9748770">
        <ele>617.6</ele>
        <time>2019-08-11T18:28:20Z</time>
      </trkpt>
      <trkpt lat="39.0352620" lon="-3.9748060">
        <ele>617.6</ele>
        <time>2019-08-11T18:28:21Z</time>
      </trkpt>
      <trkpt lat="39.0352100" lon="-3.9747350">
        <ele>617.5</ele>
        <time>2019-08-11T18:28:22Z</time>
      </trkpt>
      <trkpt lat="39.0351580" lon="-3.9746640">
        <ele>617.5</ele>
        <time>2019-08-11T18:28:23Z</time>
      </trkpt>
      <trkpt lat="39.0351060" lon="-3.9745940">
        <ele>617.4</ele>
        <time>2019-08-11T18:28:24Z</time>
      </trkpt>
      <trkpt lat="39.0350540" lon="-3.9745230">
        <ele>617.4</ele>
        <time>2019-08-11T18:28:25Z</time>
      </trkpt>
      <trkpt lat="39.0350010" lon="-3.9744530">
        <ele>617.4</ele>
        <time>2019-08-11T18:28:26Z</time>
      </trkpt>
      <trkpt lat="39.0349490" lon="-3.9743830">
        <ele>617.3</ele>
        <time>2019-08-11T18:28:27Z</time>
      </trkpt>
      <trkpt lat="39.0348970" lon="-3.9743140">
        <ele>617.3</ele>
        <time>2019-08-11T18:28:28Z</time>
      </trkpt>
      <trkpt lat="39.0348450" lon="-3.9742440">
        <ele>617.3</ele>
        <time>2019-08-11T18:28:29Z</time>
      </trkpt>
      <trkpt lat="39.0347930" lon="-3.9741750">
        <ele>617.3</ele>
        <time>2019-08-11T18:28:30Z</time>
      </trkpt>
      <trkpt lat="39.0347410" lon="-3.9741060">
        <ele>617.3</ele>
        <time>2019-08-11T18:28:31Z</time>
      </trkpt>
      <trkpt lat="39.0346900" lon="-3.9740370">
        <ele>617.3</ele>
        <time>2019-08-11T18:28:32Z</time>
      </trkpt>
      <trkpt lat="39.0346390" lon="-3.9739670">
        <ele>617.3</ele>
        <time>2019-08-11T18:28:33Z</time>
      </trkpt>
      <trkpt lat="39.0345880" lon="-3.9738970">
        <ele>617.4</ele>
        <time>2019-08-11T18:28:34Z</time>
      </trkpt>
      <trkpt lat="39.0345380" lon="-3.9738260">
        <ele>617.4</ele>
        <time>2019-08-11T18:28:35Z</time>
      </trkpt>
      <trkpt lat="39.0344880" lon="-3.9737540">
        <ele>617.5</ele>
        <time>2019-08-11T18:28:36Z</time>
      </trkpt>
      <trkpt lat="39.0344390" lon="-3.9736820">
        <ele>617.5</ele>
        <time>2019-08-11T18:28:37Z</time>
      </trkpt>
      <trkpt lat="39.0343890" lon="-3.9736090">
        <ele>617.6</ele>
        <time>2019-08-11T18:28:38Z</time>
      </trkpt>
      <trkpt lat="39.0343390" lon="-3.9735370">
        <ele>617.6</ele>
        <time>2019-08-11T18:28:39Z</time>
      </trkpt>
      <trkpt lat="39.0342890" lon="-3.9734670">
        <ele>617.6</ele>
        <time>2019-08-11T18:28:40Z</time>
      </trkpt>
      <trkpt lat="39.0342370" lon="-3.9733970">
        <ele>617.6</ele>
        <time>2019-08-11T18:28:41Z</time>
      </trkpt>
      <trkpt lat="39.0341850" lon="-3.9733280">
        <ele>617.6</ele>
        <time>2019-08-11T18:28:42Z</time>
      </trkpt>
      <trkpt lat="39.0341320" lon="-3.9732600">
        <ele>617.6</ele>
        <time>2019-08-11T18:28:43Z</time>
      </trkpt>
      <trkpt lat="39.0340790" lon="-3.9731920">
        <ele>617.6</ele>
        <time>2019-08-11T18:28:44Z</time>
      </trkpt>
      <trkpt lat="39.0340260" lon="-3.9731240">
        <ele>617.6</ele>
        <time>2019-08-11T18:28:45Z</time>
      </trkpt>
      <trkpt lat="39.0339740" lon="-3.9730550">
        <ele>617.6</ele>
        <time>2019-08-11T18:28:46Z</time>
      </trkpt>
      <trkpt lat="39.0339220" lon="-3.9729850">
        <ele>617.6</ele>
        <time>2019-08-11T18:28:47Z</time>
      </trkpt>
      <trkpt lat="39.0338700" lon="-3.9729150">
        <ele>617.6</ele>
        <time>2019-08-11T18:28:48Z</time>
      </trkpt>
      <trkpt lat="39.0338180" lon="-3.9728450">
        <ele>617.6</ele>
        <time>2019-08-11T18:28:49Z</time>
      </trkpt>
      <trkpt lat="39.0337660" lon="-3.9727740">
        <ele>617.6</ele>
        <time>2019-08-11T18:28:50Z</time>
      </trkpt>
      <trkpt lat="39.0337150" lon="-3.9727030">
        <ele>617.6</ele>
        <time>2019-08-11T18:28:51Z</time>
      </trkpt>
      <trkpt lat="39.0336630" lon="-3.9726320">
        <ele>617.6</ele>
        <time>2019-08-11T18:28:52Z</time>
      </trkpt>
      <trkpt lat="39.0336120" lon="-3.9725600">
        <ele>617.6</ele>
        <time>2019-08-11T18:28:53Z</time>
      </trkpt>
      <trkpt lat="39.0335600" lon="-3.9724890">
        <ele>617.6</ele>
        <time>2019-08-11T18:28:54Z</time>
      </trkpt>
      <trkpt lat="39.0335090" lon="-3.9724170">
        <ele>617.6</ele>
        <time>2019-08-11T18:28:55Z</time>
      </trkpt>
      <trkpt lat="39.0334570" lon="-3.9723450">
        <ele>617.6</ele>
        <time>2019-08-11T18:28:56Z</time>
      </trkpt>
      <trkpt lat="39.0334060" lon="-3.9722730">
        <ele>617.6</ele>
        <time>2019-08-11T18:28:57Z</time>
      </trkpt>
      <trkpt lat="39.0333540" lon="-3.9722010">
        <ele>617.5</ele>
        <time>2019-08-11T18:28:58Z</time>
      </trkpt>
      <trkpt lat="39.0333030" lon="-3.9721290">
        <ele>617.5</ele>
        <time>2019-08-11T18:28:59Z</time>
      </trkpt>
      <trkpt lat="39.0332510" lon="-3.9720570">
        <ele>617.5</ele>
        <time>2019-08-11T18:29:00Z</time>
      </trkpt>
      <trkpt lat="39.0332000" lon="-3.9719850">
        <ele>617.4</ele>
        <time>2019-08-11T18:29:01Z</time>
      </trkpt>
      <trkpt lat="39.0331480" lon="-3.9719130">
        <ele>617.4</ele>
        <time>2019-08-11T18:29:02Z</time>
      </trkpt>
      <trkpt lat="39.0330970" lon="-3.9718410">
        <ele>617.4</ele>
        <time>2019-08-11T18:29:03Z</time>
      </trkpt>
      <trkpt lat="39.0330450" lon="-3.9717690">
        <ele>617.3</ele>
        <time>2019-08-11T18:29:04Z</time>
      </trkpt>
      <trkpt lat="39.0329940" lon="-3.9716970">
        <ele>617.3</ele>
        <time>2019-08-11T18:29:05Z</time>
      </trkpt>
      <trkpt lat="39.0329420" lon="-3.9716260">
        <ele>617.3</ele>
        <time>2019-08-11T18:29:06Z</time>
      </trkpt>
      <trkpt lat="39.0328910" lon="-3.9715540">
        <ele>617.2</ele>
        <time>2019-08-11T18:29:07Z</time>
      </trkpt>
      <trkpt lat="39.0328390" lon="-3.9714830">
        <ele>617.2</ele>
        <time>2019-08-11T18:29:08Z</time>
      </trkpt>
      <trkpt lat="39.0327870" lon="-3.9714120">
        <ele>617.2</ele>
        <time>2019-08-11T18:29:09Z</time>
      </trkpt>
      <trkpt lat="39.0327360" lon="-3.9713420">
        <ele>617.2</ele>
        <time>2019-08-11T18:29:10Z</time>
      </trkpt>
      <trkpt lat="39.0326840" lon="-3.9712710">
        <ele>617.2</ele>
        <time>2019-08-11T18:29:11Z</time>
      </trkpt>
      <trkpt lat="39.0326320" lon="-3.9712010">
        <ele>617.3</ele>
        <time>2019-08-11T18:29:12Z</time>
      </trkpt>
      <trkpt lat="39.0325800" lon="-3.9711310">
        <ele>617.3</ele>
        <time>2019-08-11T18:29:13Z</time>
      </trkpt>
      <trkpt lat="39.0325280" lon="-3.9710610">
        <ele>617.4</ele>
        <time>2019-08-11T18:29:14Z</time>
      </trkpt>
      <trkpt lat="39.0324760" lon="-3.9709910">
        <ele>617.5</ele>
        <time>2019-08-11T18:29:15Z</time>
      </trkpt>
      <trkpt lat="39.0324240" lon="-3.9709210">
        <ele>617.5</ele>
        <time>2019-08-11T18:29:16Z</time>
      </trkpt>
      <trkpt lat="39.0323720" lon="-3.9708510">
        <ele>617.6</ele>
        <time>2019-08-11T18:29:17Z</time>
      </trkpt>
      <trkpt lat="39.0323190" lon="-3.9707820">
        <ele>617.6</ele>
        <time>2019-08-11T18:29:18Z</time>
      </trkpt>
      <trkpt lat="39.0322670" lon="-3.9707120">
        <ele>617.7</ele>
        <time>2019-08-11T18:29:19Z</time>
      </trkpt>
      <trkpt lat="39.0322140" lon="-3.9706420">
        <ele>617.7</ele>
        <time>2019-08-11T18:29:20Z</time>
      </trkpt>
      <trkpt lat="39.0321610" lon="-3.9705720">
        <ele>617.7</ele>
        <time>2019-08-11T18:29:21Z</time>
      </trkpt>
      <trkpt lat="39.0321090" lon="-3.9705030">
        <ele>617.7</ele>
        <time>2019-08-11T18:29:22Z</time>
      </trkpt>
      <trkpt lat="39.0320560" lon="-3.9704330">
        <ele>617.6</ele>
        <time>2019-08-11T18:29:23Z</time>
      </trkpt>
      <trkpt lat="39.0320030" lon="-3.9703630">
        <ele>617.6</ele>
        <time>2019-08-11T18:29:24Z</time>
      </trkpt>
      <trkpt lat="39.0319500" lon="-3.9702930">
        <ele>617.6</ele>
        <time>2019-08-11T18:29:25Z</time>
      </trkpt>
      <trkpt lat="39.0318970" lon="-3.9702230">
        <ele>617.5</ele>
        <time>2019-08-11T18:29:26Z</time>
      </trkpt>
      <trkpt lat="39.0318440" lon="-3.9701530">
        <ele>617.5</ele>
        <time>2019-08-11T18:29:27Z</time>
      </trkpt>
      <trkpt lat="39.0317920" lon="-3.9700830">
        <ele>617.4</ele>
        <time>2019-08-11T18:29:28Z</time>
      </trkpt>
      <trkpt lat="39.0317390" lon="-3.9700130">
        <ele>617.4</ele>
        <time>2019-08-11T18:29:29Z</time>
      </trkpt>
      <trkpt lat="39.0316860" lon="-3.9699430">
        <ele>617.4</ele>
        <time>2019-08-11T18:29:30Z</time>
      </trkpt>
      <trkpt lat="39.0316340" lon="-3.9698730">
        <ele>617.4</ele>
        <time>2019-08-11T18:29:31Z</time>
      </trkpt>
      <trkpt lat="39.0315820" lon="-3.9698020">
        <ele>617.4</ele>
        <time>2019-08-11T18:29:32Z</time>
      </trkpt>
      <trkpt lat="39.0315290" lon="-3.9697320">
        <ele>617.5</ele>
        <time>2019-08-11T18:29:33Z</time>
      </trkpt>
      <trkpt lat="39.0314770" lon="-3.9696620">
        <ele>617.5</ele>
        <time>2019-08-11T18:29:34Z</time>
      </trkpt>
      <trkpt lat="39.0314250" lon="-3.9695910">
        <ele>617.6</ele>
        <time>2019-08-11T18:29:35Z</time>
      </trkpt>
      <trkpt lat="39.0313730" lon="-3.9695200">
        <ele>617.7</ele>
        <time>2019-08-11T18:29:36Z</time>
      </trkpt>
      <trkpt lat="39.0313200" lon="-3.9694500">
        <ele>617.7</ele>
        <time>2019-08-11T18:29:37Z</time>
      </trkpt>
      <trkpt lat="39.0312680" lon="-3.9693790">
        <ele>617.8</ele>
        <time>2019-08-11T18:29:38Z</time>
      </trkpt>
      <trkpt lat="39.0312170" lon="-3.9693080">
        <ele>617.9</ele>
        <time>2019-08-11T18:29:39Z</time>
      </trkpt>
      <trkpt lat="39.0311650" lon="-3.9692370">
        <ele>617.9</ele>
        <time>2019-08-11T18:29:40Z</time>
      </trkpt>
      <trkpt lat="39.0311130" lon="-3.9691660">
        <ele>618.0</ele>
        <time>2019-08-11T18:29:41Z</time>
      </trkpt>
      <trkpt lat="39.0310610" lon="-3.9690950">
        <ele>618.0</ele>
        <time>2019-08-11T18:29:42Z</time>
      </trkpt>
      <trkpt lat="39.0310090" lon="-3.9690240">
        <ele>618.1</ele>
        <time>2019-08-11T18:29:43Z</time>
      </trkpt>
      <trkpt lat="39.0309580" lon="-3.9689530">
        <ele>618.1</ele>
        <time>2019-08-11T18:29:44Z</time>
      </trkpt>
      <trkpt lat="39.0309060" lon="-3.9688820">
        <ele>618.1</ele>
        <time>2019-08-11T18:29:45Z</time>
      </trkpt>
      <trkpt lat="39.0308550" lon="-3.9688110">
        <ele>618.1</ele>
        <time>2019-08-11T18:29:46Z</time>
      </trkpt>
      <trkpt lat="39.0308030" lon="-3.9687390">
        <ele>618.2</ele>
        <time>2019-08-11T18:29:47Z</time>
      </trkpt>
      <trkpt lat="39.0307520" lon="-3.9686680">
        <ele>618.2</ele>
        <time>2019-08-11T18:29:48Z</time>
      </trkpt>
      <trkpt lat="39.0307000" lon="-3.9685970">
        <ele>618.1</ele>
        <time>2019-08-11T18:29:49Z</time>
      </trkpt>
      <trkpt lat="39.0306490" lon="-3.9685260">
        <ele>618.1</ele>
        <time>2019-08-11T18:29:50Z</time>
      </trkpt>
      <trkpt lat="39.0305970" lon="-3.9684540">
        <ele>618.1</ele>
        <time>2019-08-11T18:29:51Z</time>
      </trkpt>
      <trkpt lat="39.0305460" lon="-3.9683830">
        <ele>618.1</ele>
        <time>2019-08-11T18:29:52Z</time>
      </trkpt>
      <trkpt lat="39.0304940" lon="-3.9683120">
        <ele>618.1</ele>
        <time>2019-08-11T18:29:53Z</time>
      </trkpt>
      <trkpt lat="39.0304430" lon="-3.9682420">
        <ele>618.1</ele>
        <time>2019-08-11T18:29:54Z</time>
      </trkpt>
      <trkpt lat="39.0303910" lon="-3.9681710">
        <ele>618.1</ele>
        <time>2019-08-11T18:29:55Z</time>
      </trkpt>
      <trkpt lat="39.0303390" lon="-3.9681000">
        <ele>618.1</ele>
        <time>2019-08-11T18:29:56Z</time>
      </trkpt>
      <trkpt lat="39.0302880" lon="-3.9680300">
        <ele>618.2</ele>
        <time>2019-08-11T18:29:57Z</time>
      </trkpt>
      <trkpt lat="39.0302360" lon="-3.9679600">
        <ele>618.2</ele>
        <time>2019-08-11T18:29:58Z</time>
      </trkpt>
      <trkpt lat="39.0301850" lon="-3.9678900">
        <ele>618.2</ele>
        <time>2019-08-11T18:29:59Z</time>
      </trkpt>
      <trkpt lat="39.0301330" lon="-3.9678200">
        <ele>618.2</ele>
        <time>2019-08-11T18:30:00Z</time>
      </trkpt>
      <trkpt lat="39.0300820" lon="-3.9677500">
        <ele>618.3</ele>
        <time>2019-08-11T18:30:01Z</time>
      </trkpt>
      <trkpt lat="39.0300310" lon="-3.9676810">
        <ele>618.3</ele>
        <time>2019-08-11T18:30:02Z</time>
      </trkpt>
      <trkpt lat="39.0299800" lon="-3.9676110">
        <ele>618.3</ele>
        <time>2019-08-11T18:30:03Z</time>
      </trkpt>
      <trkpt lat="39.0299290" lon="-3.9675420">
        <ele>618.4</ele>
        <time>2019-08-11T18:30:04Z</time>
      </trkpt>
      <trkpt lat="39.0298780" lon="-3.9674730">
        <ele>618.4</ele>
        <time>2019-08-11T18:30:05Z</time>
      </trkpt>
      <trkpt lat="39.0298280" lon="-3.9674040">
        <ele>618.4</ele>
        <time>2019-08-11T18:30:06Z</time>
      </trkpt>
      <trkpt lat="39.0297770" lon="-3.9673350">
        <ele>618.4</ele>
        <time>2019-08-11T18:30:07Z</time>
      </trkpt>
      <trkpt lat="39.0297270" lon="-3.9672660">
        <ele>618.4</ele>
        <time>2019-08-11T18:30:08Z</time>
      </trkpt>
      <trkpt lat="39.0296760" lon="-3.9671980">
        <ele>618.4</ele>
        <time>2019-08-11T18:30:09Z</time>
      </trkpt>
      <trkpt lat="39.0296260" lon="-3.9671290">
        <ele>618.5</ele>
        <time>2019-08-11T18:30:10Z</time>
      </trkpt>
      <trkpt lat="39.0295760" lon="-3.9670600">
        <ele>618.5</ele>
        <time>2019-08-11T18:30:11Z</time>
      </trkpt>
      <trkpt lat="39.0295250" lon="-3.9669920">
        <ele>618.6</ele>
        <time>2019-08-11T18:30:12Z</time>
      </trkpt>
      <trkpt lat="39.0294750" lon="-3.9669230">
        <ele>618.6</ele>
        <time>2019-08-11T18:30:13Z</time>
      </trkpt>
      <trkpt lat="39.0294240" lon="-3.9668540">
        <ele>618.7</ele>
        <time>2019-08-11T18:30:14Z</time>
      </trkpt>
      <trkpt lat="39.0293740" lon="-3.9667860">
        <ele>618.8</ele>
        <time>2019-08-11T18:30:15Z</time>
      </trkpt>
      <trkpt lat="39.0293230" lon="-3.9667170">
        <ele>618.9</ele>
        <time>2019-08-11T18:30:16Z</time>
      </trkpt>
      <trkpt lat="39.0292720" lon="-3.9666480">
        <ele>619.0</ele>
        <time>2019-08-11T18:30:17Z</time>
      </trkpt>
      <trkpt lat="39.0292210" lon="-3.9665790">
        <ele>619.1</ele>
        <time>2019-08-11T18:30:18Z</time>
      </trkpt>
      <trkpt lat="39.0291700" lon="-3.9665110">
        <ele>619.1</ele>
        <time>2019-08-11T18:30:19Z</time>
      </trkpt>
      <trkpt lat="39.0291190" lon="-3.9664420">
        <ele>619.2</ele>
        <time>2019-08-11T18:30:20Z</time>
      </trkpt>
      <trkpt lat="39.0290670" lon="-3.9663730">
        <ele>619.2</ele>
        <time>2019-08-11T18:30:21Z</time>
      </trkpt>
      <trkpt lat="39.0290160" lon="-3.9663040">
        <ele>619.3</ele>
        <time>2019-08-11T18:30:22Z</time>
      </trkpt>
      <trkpt lat="39.0289650" lon="-3.9662350">
        <ele>619.3</ele>
        <time>2019-08-11T18:30:23Z</time>
      </trkpt>
      <trkpt lat="39.0289130" lon="-3.9661660">
        <ele>619.3</ele>
        <time>2019-08-11T18:30:24Z</time>
      </trkpt>
      <trkpt lat="39.0288620" lon="-3.9660980">
        <ele>619.4</ele>
        <time>2019-08-11T18:30:25Z</time>
      </trkpt>
      <trkpt lat="39.0288110" lon="-3.9660290">
        <ele>619.4</ele>
        <time>2019-08-11T18:30:26Z</time>
      </trkpt>
      <trkpt lat="39.0287600" lon="-3.9659610">
        <ele>619.5</ele>
        <time>2019-08-11T18:30:27Z</time>
      </trkpt>
      <trkpt lat="39.0287090" lon="-3.9658930">
        <ele>619.5</ele>
        <time>2019-08-11T18:30:28Z</time>
      </trkpt>
      <trkpt lat="39.0286590" lon="-3.9658250">
        <ele>619.6</ele>
        <time>2019-08-11T18:30:29Z</time>
      </trkpt>
      <trkpt lat="39.0286090" lon="-3.9657580">
        <ele>619.6</ele>
        <time>2019-08-11T18:30:30Z</time>
      </trkpt>
      <trkpt lat="39.0285590" lon="-3.9656910">
        <ele>619.7</ele>
        <time>2019-08-11T18:30:31Z</time>
      </trkpt>
      <trkpt lat="39.0285090" lon="-3.9656240">
        <ele>619.7</ele>
        <time>2019-08-11T18:30:32Z</time>
      </trkpt>
      <trkpt lat="39.0284600" lon="-3.9655580">
        <ele>619.8</ele>
        <time>2019-08-11T18:30:33Z</time>
      </trkpt>
      <trkpt lat="39.0284120" lon="-3.9654920">
        <ele>619.9</ele>
        <time>2019-08-11T18:30:34Z</time>
      </trkpt>
      <trkpt lat="39.0283630" lon="-3.9654270">
        <ele>620.0</ele>
        <time>2019-08-11T18:30:35Z</time>
      </trkpt>
      <trkpt lat="39.0283160" lon="-3.9653620">
        <ele>620.0</ele>
        <time>2019-08-11T18:30:36Z</time>
      </trkpt>
      <trkpt lat="39.0282690" lon="-3.9652980">
        <ele>620.1</ele>
        <time>2019-08-11T18:30:37Z</time>
      </trkpt>
      <trkpt lat="39.0282220" lon="-3.9652340">
        <ele>620.2</ele>
        <time>2019-08-11T18:30:38Z</time>
      </trkpt>
      <trkpt lat="39.0281770" lon="-3.9651710">
        <ele>620.3</ele>
        <time>2019-08-11T18:30:39Z</time>
      </trkpt>
      <trkpt lat="39.0281310" lon="-3.9651090">
        <ele>620.4</ele>
        <time>2019-08-11T18:30:40Z</time>
      </trkpt>
      <trkpt lat="39.0280870" lon="-3.9650470">
        <ele>620.6</ele>
        <time>2019-08-11T18:30:41Z</time>
      </trkpt>
      <trkpt lat="39.0280430" lon="-3.9649870">
        <ele>620.7</ele>
        <time>2019-08-11T18:30:42Z</time>
      </trkpt>
      <trkpt lat="39.0280000" lon="-3.9649280">
        <ele>620.9</ele>
        <time>2019-08-11T18:30:43Z</time>
      </trkpt>
      <trkpt lat="39.0279580" lon="-3.9648690">
        <ele>621.0</ele>
        <time>2019-08-11T18:30:44Z</time>
      </trkpt>
      <trkpt lat="39.0279170" lon="-3.9648120">
        <ele>621.2</ele>
        <time>2019-08-11T18:30:45Z</time>
      </trkpt>
      <trkpt lat="39.0278770" lon="-3.9647560">
        <ele>621.4</ele>
        <time>2019-08-11T18:30:46Z</time>
      </trkpt>
      <trkpt lat="39.0278370" lon="-3.9647010">
        <ele>621.7</ele>
        <time>2019-08-11T18:30:47Z</time>
      </trkpt>
      <trkpt lat="39.0277980" lon="-3.9646480">
        <ele>621.9</ele>
        <time>2019-08-11T18:30:48Z</time>
      </trkpt>
      <trkpt lat="39.0277610" lon="-3.9645960">
        <ele>622.2</ele>
        <time>2019-08-11T18:30:49Z</time>
      </trkpt>
      <trkpt lat="39.0277240" lon="-3.9645460">
        <ele>622.4</ele>
        <time>2019-08-11T18:30:50Z</time>
      </trkpt>
      <trkpt lat="39.0276880" lon="-3.9644970">
        <ele>622.6</ele>
        <time>2019-08-11T18:30:51Z</time>
      </trkpt>
      <trkpt lat="39.0276540" lon="-3.9644500">
        <ele>622.9</ele>
        <time>2019-08-11T18:30:52Z</time>
      </trkpt>
      <trkpt lat="39.0276200" lon="-3.9644050">
        <ele>623.1</ele>
        <time>2019-08-11T18:30:53Z</time>
      </trkpt>
      <trkpt lat="39.0275880" lon="-3.9643610">
        <ele>623.4</ele>
        <time>2019-08-11T18:30:54Z</time>
      </trkpt>
      <trkpt lat="39.0275560" lon="-3.9643190">
        <ele>623.6</ele>
        <time>2019-08-11T18:30:55Z</time>
      </trkpt>
      <trkpt lat="39.0275250" lon="-3.9642770">
        <ele>623.8</ele>
        <time>2019-08-11T18:30:56Z</time>
      </trkpt>
      <trkpt lat="39.0274950" lon="-3.9642350">
        <ele>624.1</ele>
        <time>2019-08-11T18:30:57Z</time>
      </trkpt>
      <trkpt lat="39.0274640" lon="-3.9641930">
        <ele>624.3</ele>
        <time>2019-08-11T18:30:58Z</time>
      </trkpt>
      <trkpt lat="39.0274340" lon="-3.9641500">
        <ele>624.6</ele>
        <time>2019-08-11T18:30:59Z</time>
      </trkpt>
      <trkpt lat="39.0274040" lon="-3.9641060">
        <ele>624.8</ele>
        <time>2019-08-11T18:31:00Z</time>
      </trkpt>
      <trkpt lat="39.0273750" lon="-3.9640630">
        <ele>625.1</ele>
        <time>2019-08-11T18:31:01Z</time>
      </trkpt>
      <trkpt lat="39.0273460" lon="-3.9640210">
        <ele>625.3</ele>
        <time>2019-08-11T18:31:02Z</time>
      </trkpt>
      <trkpt lat="39.0273180" lon="-3.9639800">
        <ele>625.6</ele>
        <time>2019-08-11T18:31:03Z</time>
      </trkpt>
      <trkpt lat="39.0272900" lon="-3.9639400">
        <ele>625.8</ele>
        <time>2019-08-11T18:31:04Z</time>
      </trkpt>
      <trkpt lat="39.0272640" lon="-3.9639010">
        <ele>626.1</ele>
        <time>2019-08-11T18:31:05Z</time>
      </trkpt>
      <trkpt lat="39.0272370" lon="-3.9638630">
        <ele>626.4</ele>
        <time>2019-08-11T18:31:06Z</time>
      </trkpt>
      <trkpt lat="39.0272110" lon="-3.9638250">
        <ele>626.6</ele>
        <time>2019-08-11T18:31:07Z</time>
      </trkpt>
      <trkpt lat="39.0271840" lon="-3.9637880">
        <ele>626.9</ele>
        <time>2019-08-11T18:31:08Z</time>
      </trkpt>
      <trkpt lat="39.0271570" lon="-3.9637510">
        <ele>627.2</ele>
        <time>2019-08-11T18:31:09Z</time>
      </trkpt>
      <trkpt lat="39.0271300" lon="-3.9637130">
        <ele>627.5</ele>
        <time>2019-08-11T18:31:10Z</time>
      </trkpt>
      <trkpt lat="39.0271020" lon="-3.9636750">
        <ele>627.7</ele>
        <time>2019-08-11T18:31:11Z</time>
      </trkpt>
      <trkpt lat="39.0270730" lon="-3.9636360">
        <ele>628.0</ele>
        <time>2019-08-11T18:31:12Z</time>
      </trkpt>
      <trkpt lat="39.0270430" lon="-3.9635970">
        <ele>628.3</ele>
        <time>2019-08-11T18:31:13Z</time>
      </trkpt>
      <trkpt lat="39.0270130" lon="-3.9635570">
        <ele>628.5</ele>
        <time>2019-08-11T18:31:14Z</time>
      </trkpt>
      <trkpt lat="39.0269820" lon="-3.9635150">
        <ele>628.7</ele>
        <time>2019-08-11T18:31:15Z</time>
      </trkpt>
      <trkpt lat="39.0269500" lon="-3.9634730">
        <ele>628.9</ele>
        <time>2019-08-11T18:31:16Z</time>
      </trkpt>
      <trkpt lat="39.0269180" lon="-3.9634300">
        <ele>629.1</ele>
        <time>2019-08-11T18:31:17Z</time>
      </trkpt>
      <trkpt lat="39.0268850" lon="-3.9633860">
        <ele>629.2</ele>
        <time>2019-08-11T18:31:18Z</time>
      </trkpt>
      <trkpt lat="39.0268510" lon="-3.9633410">
        <ele>629.3</ele>
        <time>2019-08-11T18:31:19Z</time>
      </trkpt>
      <trkpt lat="39.0268160" lon="-3.9632940">
        <ele>629.3</ele>
        <time>2019-08-11T18:31:20Z</time>
      </trkpt>
      <trkpt lat="39.0267810" lon="-3.9632460">
        <ele>629.3</ele>
        <time>2019-08-11T18:31:21Z</time>
      </trkpt>
      <trkpt lat="39.0267440" lon="-3.9631970">
        <ele>629.3</ele>
        <time>2019-08-11T18:31:22Z</time>
      </trkpt>
      <trkpt lat="39.0267070" lon="-3.9631460">
        <ele>629.3</ele>
        <time>2019-08-11T18:31:23Z</time>
      </trkpt>
      <trkpt lat="39.0266680" lon="-3.9630930">
        <ele>629.3</ele>
        <time>2019-08-11T18:31:24Z</time>
      </trkpt>
      <trkpt lat="39.0266280" lon="-3.9630380">
        <ele>629.2</ele>
        <time>2019-08-11T18:31:25Z</time>
      </trkpt>
      <trkpt lat="39.0265870" lon="-3.9629820">
        <ele>629.1</ele>
        <time>2019-08-11T18:31:26Z</time>
      </trkpt>
      <trkpt lat="39.0265440" lon="-3.9629230">
        <ele>629.0</ele>
        <time>2019-08-11T18:31:27Z</time>
      </trkpt>
      <trkpt lat="39.0264990" lon="-3.9628620">
        <ele>628.9</ele>
        <time>2019-08-11T18:31:28Z</time>
      </trkpt>
      <trkpt lat="39.0264520" lon="-3.9628000">
        <ele>628.7</ele>
        <time>2019-08-11T18:31:29Z</time>
      </trkpt>
      <trkpt lat="39.0264040" lon="-3.9627350">
        <ele>628.6</ele>
        <time>2019-08-11T18:31:30Z</time>
      </trkpt>
      <trkpt lat="39.0263540" lon="-3.9626690">
        <ele>628.4</ele>
        <time>2019-08-11T18:31:31Z</time>
      </trkpt>
      <trkpt lat="39.0263030" lon="-3.9626020">
        <ele>628.2</ele>
        <time>2019-08-11T18:31:32Z</time>
      </trkpt>
      <trkpt lat="39.0262510" lon="-3.9625330">
        <ele>628.0</ele>
        <time>2019-08-11T18:31:33Z</time>
      </trkpt>
      <trkpt lat="39.0261970" lon="-3.9624640">
        <ele>627.8</ele>
        <time>2019-08-11T18:31:34Z</time>
      </trkpt>
      <trkpt lat="39.0261420" lon="-3.9623940">
        <ele>627.6</ele>
        <time>2019-08-11T18:31:35Z</time>
      </trkpt>
      <trkpt lat="39.0260860" lon="-3.9623230">
        <ele>627.5</ele>
        <time>2019-08-11T18:31:36Z</time>
      </trkpt>
      <trkpt lat="39.0260300" lon="-3.9622520">
        <ele>627.3</ele>
        <time>2019-08-11T18:31:37Z</time>
      </trkpt>
      <trkpt lat="39.0259720" lon="-3.9621810">
        <ele>627.1</ele>
        <time>2019-08-11T18:31:38Z</time>
      </trkpt>
      <trkpt lat="39.0259140" lon="-3.9621090">
        <ele>626.9</ele>
        <time>2019-08-11T18:31:39Z</time>
      </trkpt>
      <trkpt lat="39.0258550" lon="-3.9620380">
        <ele>626.7</ele>
        <time>2019-08-11T18:31:40Z</time>
      </trkpt>
      <trkpt lat="39.0257950" lon="-3.9619650">
        <ele>626.5</ele>
        <time>2019-08-11T18:31:41Z</time>
      </trkpt>
      <trkpt lat="39.0257350" lon="-3.9618920">
        <ele>626.3</ele>
        <time>2019-08-11T18:31:42Z</time>
      </trkpt>
      <trkpt lat="39.0256750" lon="-3.9618190">
        <ele>626.1</ele>
        <time>2019-08-11T18:31:43Z</time>
      </trkpt>
      <trkpt lat="39.0256140" lon="-3.9617450">
        <ele>625.9</ele>
        <time>2019-08-11T18:31:44Z</time>
      </trkpt>
      <trkpt lat="39.0255530" lon="-3.9616710">
        <ele>625.7</ele>
        <time>2019-08-11T18:31:45Z</time>
      </trkpt>
      <trkpt lat="39.0254920" lon="-3.9615960">
        <ele>625.5</ele>
        <time>2019-08-11T18:31:46Z</time>
      </trkpt>
      <trkpt lat="39.0254310" lon="-3.9615200">
        <ele>625.3</ele>
        <time>2019-08-11T18:31:47Z</time>
      </trkpt>
      <trkpt lat="39.0253690" lon="-3.9614450">
        <ele>625.1</ele>
        <time>2019-08-11T18:31:48Z</time>
      </trkpt>
      <trkpt lat="39.0253080" lon="-3.9613690">
        <ele>625.0</ele>
        <time>2019-08-11T18:31:49Z</time>
      </trkpt>
      <trkpt lat="39.0252470" lon="-3.9612930">
        <ele>624.8</ele>
        <time>2019-08-11T18:31:50Z</time>
      </trkpt>
      <trkpt lat="39.0251850" lon="-3.9612170">
        <ele>624.7</ele>
        <time>2019-08-11T18:31:51Z</time>
      </trkpt>
      <trkpt lat="39.0251240" lon="-3.9611400">
        <ele>624.5</ele>
        <time>2019-08-11T18:31:52Z</time>
      </trkpt>
      <trkpt lat="39.0250630" lon="-3.9610640">
        <ele>624.4</ele>
        <time>2019-08-11T18:31:53Z</time>
      </trkpt>
      <trkpt lat="39.0250020" lon="-3.9609880">
        <ele>624.3</ele>
        <time>2019-08-11T18:31:54Z</time>
      </trkpt>
      <trkpt lat="39.0249410" lon="-3.9609120">
        <ele>624.1</ele>
        <time>2019-08-11T18:31:55Z</time>
      </trkpt>
      <trkpt lat="39.0248800" lon="-3.9608360">
        <ele>624.0</ele>
        <time>2019-08-11T18:31:56Z</time>
      </trkpt>
      <trkpt lat="39.0248200" lon="-3.9607600">
        <ele>623.9</ele>
        <time>2019-08-11T18:31:57Z</time>
      </trkpt>
      <trkpt lat="39.0247600" lon="-3.9606850">
        <ele>623.8</ele>
        <time>2019-08-11T18:31:58Z</time>
      </trkpt>
      <trkpt lat="39.0247010" lon="-3.9606110">
        <ele>623.7</ele>
        <time>2019-08-11T18:31:59Z</time>
      </trkpt>
      <trkpt lat="39.0246420" lon="-3.9605360">
        <ele>623.6</ele>
        <time>2019-08-11T18:32:00Z</time>
      </trkpt>
      <trkpt lat="39.0245830" lon="-3.9604630">
        <ele>623.5</ele>
        <time>2019-08-11T18:32:01Z</time>
      </trkpt>
      <trkpt lat="39.0245250" lon="-3.9603900">
        <ele>623.4</ele>
        <time>2019-08-11T18:32:02Z</time>
      </trkpt>
      <trkpt lat="39.0244670" lon="-3.9603170">
        <ele>623.3</ele>
        <time>2019-08-11T18:32:03Z</time>
      </trkpt>
      <trkpt lat="39.0244100" lon="-3.9602450">
        <ele>623.2</ele>
        <time>2019-08-11T18:32:04Z</time>
      </trkpt>
      <trkpt lat="39.0243530" lon="-3.9601740">
        <ele>623.2</ele>
        <time>2019-08-11T18:32:05Z</time>
      </trkpt>
      <trkpt lat="39.0242970" lon="-3.9601040">
        <ele>623.1</ele>
        <time>2019-08-11T18:32:06Z</time>
      </trkpt>
      <trkpt lat="39.0242410" lon="-3.9600330">
        <ele>623.0</ele>
        <time>2019-08-11T18:32:07Z</time>
      </trkpt>
      <trkpt lat="39.0241850" lon="-3.9599640">
        <ele>623.0</ele>
        <time>2019-08-11T18:32:08Z</time>
      </trkpt>
      <trkpt lat="39.0241300" lon="-3.9598950">
        <ele>622.9</ele>
        <time>2019-08-11T18:32:09Z</time>
      </trkpt>
      <trkpt lat="39.0240750" lon="-3.9598260">
        <ele>622.9</ele>
        <time>2019-08-11T18:32:10Z</time>
      </trkpt>
      <trkpt lat="39.0240210" lon="-3.9597580">
        <ele>622.9</ele>
        <time>2019-08-11T18:32:11Z</time>
      </trkpt>
      <trkpt lat="39.0239670" lon="-3.9596900">
        <ele>622.9</ele>
        <time>2019-08-11T18:32:12Z</time>
      </trkpt>
      <trkpt lat="39.0239130" lon="-3.9596230">
        <ele>622.9</ele>
        <time>2019-08-11T18:32:13Z</time>
      </trkpt>
      <trkpt lat="39.0238600" lon="-3.9595560">
        <ele>622.8</ele>
        <time>2019-08-11T18:32:14Z</time>
      </trkpt>
      <trkpt lat="39.0238070" lon="-3.9594900">
        <ele>622.8</ele>
        <time>2019-08-11T18:32:15Z</time>
      </trkpt>
      <trkpt lat="39.0237540" lon="-3.9594240">
        <ele>622.9</ele>
        <time>2019-08-11T18:32:16Z</time>
      </trkpt>
      <trkpt lat="39.0237020" lon="-3.9593580">
        <ele>622.9</ele>
        <time>2019-08-11T18:32:17Z</time>
      </trkpt>
      <trkpt lat="39.0236490" lon="-3.9592930">
        <ele>622.9</ele>
        <time>2019-08-11T18:32:18Z</time>
      </trkpt>
      <trkpt lat="39.0235970" lon="-3.9592280">
        <ele>622.9</ele>
        <time>2019-08-11T18:32:19Z</time>
      </trkpt>
      <trkpt lat="39.0235460" lon="-3.9591630">
        <ele>622.9</ele>
        <time>2019-08-11T18:32:20Z</time>
      </trkpt>
      <trkpt lat="39.0234940" lon="-3.9590980">
        <ele>623.0</ele>
        <time>2019-08-11T18:32:21Z</time>
      </trkpt>
      <trkpt lat="39.0234430" lon="-3.9590340">
        <ele>623.0</ele>
        <time>2019-08-11T18:32:22Z</time>
      </trkpt>
      <trkpt lat="39.0233910" lon="-3.9589700">
        <ele>623.0</ele>
        <time>2019-08-11T18:32:23Z</time>
      </trkpt>
      <trkpt lat="39.0233400" lon="-3.9589060">
        <ele>623.1</ele>
        <time>2019-08-11T18:32:24Z</time>
      </trkpt>
      <trkpt lat="39.0232890" lon="-3.9588430">
        <ele>623.1</ele>
        <time>2019-08-11T18:32:25Z</time>
      </trkpt>
      <trkpt lat="39.0232390" lon="-3.9587790">
        <ele>623.2</ele>
        <time>2019-08-11T18:32:26Z</time>
      </trkpt>
      <trkpt lat="39.0231880" lon="-3.9587160">
        <ele>623.2</ele>
        <time>2019-08-11T18:32:27Z</time>
      </trkpt>
      <trkpt lat="39.0231380" lon="-3.9586530">
        <ele>623.2</ele>
        <time>2019-08-11T18:32:28Z</time>
      </trkpt>
      <trkpt lat="39.0230870" lon="-3.9585900">
        <ele>623.3</ele>
        <time>2019-08-11T18:32:29Z</time>
      </trkpt>
      <trkpt lat="39.0230370" lon="-3.9585270">
        <ele>623.3</ele>
        <time>2019-08-11T18:32:30Z</time>
      </trkpt>
      <trkpt lat="39.0229870" lon="-3.9584640">
        <ele>623.4</ele>
        <time>2019-08-11T18:32:31Z</time>
      </trkpt>
      <trkpt lat="39.0229360" lon="-3.9584010">
        <ele>623.4</ele>
        <time>2019-08-11T18:32:32Z</time>
      </trkpt>
      <trkpt lat="39.0228860" lon="-3.9583380">
        <ele>623.5</ele>
        <time>2019-08-11T18:32:33Z</time>
      </trkpt>
      <trkpt lat="39.0228360" lon="-3.9582760">
        <ele>623.5</ele>
        <time>2019-08-11T18:32:34Z</time>
      </trkpt>
      <trkpt lat="39.0227860" lon="-3.9582130">
        <ele>623.6</ele>
        <time>2019-08-11T18:32:35Z</time>
      </trkpt>
      <trkpt lat="39.0227360" lon="-3.9581500">
        <ele>623.6</ele>
        <time>2019-08-11T18:32:36Z</time>
      </trkpt>
      <trkpt lat="39.0226860" lon="-3.9580880">
        <ele>623.6</ele>
        <time>2019-08-11T18:32:37Z</time>
      </trkpt>
      <trkpt lat="39.0226350" lon="-3.9580250">
        <ele>623.7</ele>
        <time>2019-08-11T18:32:38Z</time>
      </trkpt>
      <trkpt lat="39.0225850" lon="-3.9579620">
        <ele>623.7</ele>
        <time>2019-08-11T18:32:39Z</time>
      </trkpt>
      <trkpt lat="39.0225350" lon="-3.9578990">
        <ele>623.7</ele>
        <time>2019-08-11T18:32:40Z</time>
      </trkpt>
      <trkpt lat="39.0224850" lon="-3.9578370">
        <ele>623.7</ele>
        <time>2019-08-11T18:32:41Z</time>
      </trkpt>
      <trkpt lat="39.0224340" lon="-3.9577740">
        <ele>623.7</ele>
        <time>2019-08-11T18:32:42Z</time>
      </trkpt>
      <trkpt lat="39.0223840" lon="-3.9577120">
        <ele>623.7</ele>
        <time>2019-08-11T18:32:43Z</time>
      </trkpt>
      <trkpt lat="39.0223330" lon="-3.9576490">
        <ele>623.7</ele>
        <time>2019-08-11T18:32:44Z</time>
      </trkpt>
      <trkpt lat="39.0222830" lon="-3.9575870">
        <ele>623.7</ele>
        <time>2019-08-11T18:32:45Z</time>
      </trkpt>
      <trkpt lat="39.0222320" lon="-3.9575250">
        <ele>623.6</ele>
        <time>2019-08-11T18:32:46Z</time>
      </trkpt>
      <trkpt lat="39.0221810" lon="-3.9574630">
        <ele>623.6</ele>
        <time>2019-08-11T18:32:47Z</time>
      </trkpt>
      <trkpt lat="39.0221300" lon="-3.9574010">
        <ele>623.6</ele>
        <time>2019-08-11T18:32:48Z</time>
      </trkpt>
      <trkpt lat="39.0220790" lon="-3.9573390">
        <ele>623.6</ele>
        <time>2019-08-11T18:32:49Z</time>
      </trkpt>
      <trkpt lat="39.0220280" lon="-3.9572760">
        <ele>623.6</ele>
        <time>2019-08-11T18:32:50Z</time>
      </trkpt>
      <trkpt lat="39.0219770" lon="-3.9572140">
        <ele>623.6</ele>
        <time>2019-08-11T18:32:51Z</time>
      </trkpt>
      <trkpt lat="39.0219250" lon="-3.9571510">
        <ele>623.7</ele>
        <time>2019-08-11T18:32:52Z</time>
      </trkpt>
      <trkpt lat="39.0218740" lon="-3.9570890">
        <ele>623.7</ele>
        <time>2019-08-11T18:32:53Z</time>
      </trkpt>
      <trkpt lat="39.0218220" lon="-3.9570260">
        <ele>623.8</ele>
        <time>2019-08-11T18:32:54Z</time>
      </trkpt>
      <trkpt lat="39.0217700" lon="-3.9569630">
        <ele>623.8</ele>
        <time>2019-08-11T18:32:55Z</time>
      </trkpt>
      <trkpt lat="39.0217180" lon="-3.9569000">
        <ele>623.9</ele>
        <time>2019-08-11T18:32:56Z</time>
      </trkpt>
      <trkpt lat="39.0216660" lon="-3.9568360">
        <ele>624.0</ele>
        <time>2019-08-11T18:32:57Z</time>
      </trkpt>
      <trkpt lat="39.0216140" lon="-3.9567730">
        <ele>624.1</ele>
        <time>2019-08-11T18:32:58Z</time>
      </trkpt>
      <trkpt lat="39.0215620" lon="-3.9567090">
        <ele>624.1</ele>
        <time>2019-08-11T18:32:59Z</time>
      </trkpt>
      <trkpt lat="39.0215100" lon="-3.9566460">
        <ele>624.2</ele>
        <time>2019-08-11T18:33:00Z</time>
      </trkpt>
      <trkpt lat="39.0214580" lon="-3.9565820">
        <ele>624.3</ele>
        <time>2019-08-11T18:33:01Z</time>
      </trkpt>
      <trkpt lat="39.0214060" lon="-3.9565190">
        <ele>624.3</ele>
        <time>2019-08-11T18:33:02Z</time>
      </trkpt>
      <trkpt lat="39.0213540" lon="-3.9564560">
        <ele>624.4</ele>
        <time>2019-08-11T18:33:03Z</time>
      </trkpt>
      <trkpt lat="39.0213020" lon="-3.9563920">
        <ele>624.4</ele>
        <time>2019-08-11T18:33:04Z</time>
      </trkpt>
      <trkpt lat="39.0212500" lon="-3.9563290">
        <ele>624.5</ele>
        <time>2019-08-11T18:33:05Z</time>
      </trkpt>
      <trkpt lat="39.0211980" lon="-3.9562660">
        <ele>624.6</ele>
        <time>2019-08-11T18:33:06Z</time>
      </trkpt>
      <trkpt lat="39.0211460" lon="-3.9562040">
        <ele>624.6</ele>
        <time>2019-08-11T18:33:07Z</time>
      </trkpt>
      <trkpt lat="39.0210950" lon="-3.9561410">
        <ele>624.7</ele>
        <time>2019-08-11T18:33:08Z</time>
      </trkpt>
      <trkpt lat="39.0210440" lon="-3.9560790">
        <ele>624.7</ele>
        <time>2019-08-11T18:33:09Z</time>
      </trkpt>
      <trkpt lat="39.0209930" lon="-3.9560170">
        <ele>624.8</ele>
        <time>2019-08-11T18:33:10Z</time>
      </trkpt>
      <trkpt lat="39.0209420" lon="-3.9559560">
        <ele>624.8</ele>
        <time>2019-08-11T18:33:11Z</time>
      </trkpt>
      <trkpt lat="39.0208920" lon="-3.9558940">
        <ele>624.9</ele>
        <time>2019-08-11T18:33:12Z</time>
      </trkpt>
      <trkpt lat="39.0208410" lon="-3.9558330">
        <ele>624.9</ele>
        <time>2019-08-11T18:33:13Z</time>
      </trkpt>
      <trkpt lat="39.0207910" lon="-3.9557730">
        <ele>624.9</ele>
        <time>2019-08-11T18:33:14Z</time>
      </trkpt>
      <trkpt lat="39.0207410" lon="-3.9557120">
        <ele>625.0</ele>
        <time>2019-08-11T18:33:15Z</time>
      </trkpt>
      <trkpt lat="39.0206920" lon="-3.9556530">
        <ele>625.0</ele>
        <time>2019-08-11T18:33:16Z</time>
      </trkpt>
      <trkpt lat="39.0206420" lon="-3.9555930">
        <ele>625.1</ele>
        <time>2019-08-11T18:33:17Z</time>
      </trkpt>
      <trkpt lat="39.0205930" lon="-3.9555330">
        <ele>625.1</ele>
        <time>2019-08-11T18:33:18Z</time>
      </trkpt>
      <trkpt lat="39.0205440" lon="-3.9554740">
        <ele>625.2</ele>
        <time>2019-08-11T18:33:19Z</time>
      </trkpt>
      <trkpt lat="39.0204960" lon="-3.9554150">
        <ele>625.2</ele>
        <time>2019-08-11T18:33:20Z</time>
      </trkpt>
      <trkpt lat="39.0204470" lon="-3.9553570">
        <ele>625.3</ele>
        <time>2019-08-11T18:33:21Z</time>
      </trkpt>
      <trkpt lat="39.0203990" lon="-3.9552980">
        <ele>625.3</ele>
        <time>2019-08-11T18:33:22Z</time>
      </trkpt>
      <trkpt lat="39.0203510" lon="-3.9552400">
        <ele>625.4</ele>
        <time>2019-08-11T18:33:23Z</time>
      </trkpt>
      <trkpt lat="39.0203030" lon="-3.9551830">
        <ele>625.4</ele>
        <time>2019-08-11T18:33:24Z</time>
      </trkpt>
      <trkpt lat="39.0202550" lon="-3.9551250">
        <ele>625.5</ele>
        <time>2019-08-11T18:33:25Z</time>
      </trkpt>
      <trkpt lat="39.0202080" lon="-3.9550670">
        <ele>625.6</ele>
        <time>2019-08-11T18:33:26Z</time>
      </trkpt>
      <trkpt lat="39.0201610" lon="-3.9550100">
        <ele>625.7</ele>
        <time>2019-08-11T18:33:27Z</time>
      </trkpt>
      <trkpt lat="39.0201140" lon="-3.9549530">
        <ele>625.7</ele>
        <time>2019-08-11T18:33:28Z</time>
      </trkpt>
      <trkpt lat="39.0200670" lon="-3.9548970">
        <ele>625.8</ele>
        <time>2019-08-11T18:33:29Z</time>
      </trkpt>
      <trkpt lat="39.0200200" lon="-3.9548400">
        <ele>625.9</ele>
        <time>2019-08-11T18:33:30Z</time>
      </trkpt>
      <trkpt lat="39.0199740" lon="-3.9547840">
        <ele>626.0</ele>
        <time>2019-08-11T18:33:31Z</time>
      </trkpt>
      <trkpt lat="39.0199280" lon="-3.9547270">
        <ele>626.0</ele>
        <time>2019-08-11T18:33:32Z</time>
      </trkpt>
      <trkpt lat="39.0198810" lon="-3.9546710">
        <ele>626.1</ele>
        <time>2019-08-11T18:33:33Z</time>
      </trkpt>
      <trkpt lat="39.0198360" lon="-3.9546160">
        <ele>626.2</ele>
        <time>2019-08-11T18:33:34Z</time>
      </trkpt>
      <trkpt lat="39.0197900" lon="-3.9545600">
        <ele>626.3</ele>
        <time>2019-08-11T18:33:35Z</time>
      </trkpt>
      <trkpt lat="39.0197440" lon="-3.9545050">
        <ele>626.5</ele>
        <time>2019-08-11T18:33:36Z</time>
      </trkpt>
      <trkpt lat="39.0196990" lon="-3.9544490">
        <ele>626.6</ele>
        <time>2019-08-11T18:33:37Z</time>
      </trkpt>
      <trkpt lat="39.0196530" lon="-3.9543940">
        <ele>626.7</ele>
        <time>2019-08-11T18:33:38Z</time>
      </trkpt>
      <trkpt lat="39.0196080" lon="-3.9543390">
        <ele>626.8</ele>
        <time>2019-08-11T18:33:39Z</time>
      </trkpt>
      <trkpt lat="39.0195630" lon="-3.9542850">
        <ele>626.9</ele>
        <time>2019-08-11T18:33:40Z</time>
      </trkpt>
      <trkpt lat="39.0195180" lon="-3.9542300">
        <ele>627.0</ele>
        <time>2019-08-11T18:33:41Z</time>
      </trkpt>
      <trkpt lat="39.0194730" lon="-3.9541760">
        <ele>627.2</ele>
        <time>2019-08-11T18:33:42Z</time>
      </trkpt>
      <trkpt lat="39.0194280" lon="-3.9541220">
        <ele>627.3</ele>
        <time>2019-08-11T18:33:43Z</time>
      </trkpt>
      <trkpt lat="39.0193830" lon="-3.9540680">
        <ele>627.4</ele>
        <time>2019-08-11T18:33:44Z</time>
      </trkpt>
      <trkpt lat="39.0193390" lon="-3.9540140">
        <ele>627.4</ele>
        <time>2019-08-11T18:33:45Z</time>
      </trkpt>
      <trkpt lat="39.0192940" lon="-3.9539600">
        <ele>627.5</ele>
        <time>2019-08-11T18:33:46Z</time>
      </trkpt>
      <trkpt lat="39.0192500" lon="-3.9539070">
        <ele>627.6</ele>
        <time>2019-08-11T18:33:47Z</time>
      </trkpt>
      <trkpt lat="39.0192050" lon="-3.9538540">
        <ele>627.7</ele>
        <time>2019-08-11T18:33:48Z</time>
      </trkpt>
      <trkpt lat="39.0191610" lon="-3.9538000">
        <ele>627.8</ele>
        <time>2019-08-11T18:33:49Z</time>
      </trkpt>
      <trkpt lat="39.0191160" lon="-3.9537470">
        <ele>627.9</ele>
        <time>2019-08-11T18:33:50Z</time>
      </trkpt>
      <trkpt lat="39.0190720" lon="-3.9536930">
        <ele>628.0</ele>
        <time>2019-08-11T18:33:51Z</time>
      </trkpt>
      <trkpt lat="39.0190270" lon="-3.9536400">
        <ele>628.1</ele>
        <time>2019-08-11T18:33:52Z</time>
      </trkpt>
      <trkpt lat="39.0189830" lon="-3.9535860">
        <ele>628.2</ele>
        <time>2019-08-11T18:33:53Z</time>
      </trkpt>
      <trkpt lat="39.0189380" lon="-3.9535330">
        <ele>628.3</ele>
        <time>2019-08-11T18:33:54Z</time>
      </trkpt>
      <trkpt lat="39.0188930" lon="-3.9534790">
        <ele>628.4</ele>
        <time>2019-08-11T18:33:55Z</time>
      </trkpt>
      <trkpt lat="39.0188480" lon="-3.9534250">
        <ele>628.5</ele>
        <time>2019-08-11T18:33:56Z</time>
      </trkpt>
      <trkpt lat="39.0188040" lon="-3.9533710">
        <ele>628.6</ele>
        <time>2019-08-11T18:33:57Z</time>
      </trkpt>
      <trkpt lat="39.0187580" lon="-3.9533170">
        <ele>628.7</ele>
        <time>2019-08-11T18:33:58Z</time>
      </trkpt>
      <trkpt lat="39.0187130" lon="-3.9532620">
        <ele>628.8</ele>
        <time>2019-08-11T18:33:59Z</time>
      </trkpt>
      <trkpt lat="39.0186680" lon="-3.9532070">
        <ele>628.8</ele>
        <time>2019-08-11T18:34:00Z</time>
      </trkpt>
      <trkpt lat="39.0186220" lon="-3.9531520">
        <ele>628.9</ele>
        <time>2019-08-11T18:34:01Z</time>
      </trkpt>
      <trkpt lat="39.0185760" lon="-3.9530960">
        <ele>629.0</ele>
        <time>2019-08-11T18:34:02Z</time>
      </trkpt>
      <trkpt lat="39.0185300" lon="-3.9530400">
        <ele>629.0</ele>
        <time>2019-08-11T18:34:03Z</time>
      </trkpt>
      <trkpt lat="39.0184840" lon="-3.9529840">
        <ele>629.1</ele>
        <time>2019-08-11T18:34:04Z</time>
      </trkpt>
      <trkpt lat="39.0184370" lon="-3.9529270">
        <ele>629.1</ele>
        <time>2019-08-11T18:34:05Z</time>
      </trkpt>
      <trkpt lat="39.0183910" lon="-3.9528710">
        <ele>629.2</ele>
        <time>2019-08-11T18:34:06Z</time>
      </trkpt>
      <trkpt lat="39.0183440" lon="-3.9528140">
        <ele>629.2</ele>
        <time>2019-08-11T18:34:07Z</time>
      </trkpt>
      <trkpt lat="39.0182970" lon="-3.9527570">
        <ele>629.3</ele>
        <time>2019-08-11T18:34:08Z</time>
      </trkpt>
      <trkpt lat="39.0182500" lon="-3.9526990">
        <ele>629.3</ele>
        <time>2019-08-11T18:34:09Z</time>
      </trkpt>
      <trkpt lat="39.0182030" lon="-3.9526420">
        <ele>629.3</ele>
        <time>2019-08-11T18:34:10Z</time>
      </trkpt>
      <trkpt lat="39.0181560" lon="-3.9525850">
        <ele>629.4</ele>
        <time>2019-08-11T18:34:11Z</time>
      </trkpt>
      <trkpt lat="39.0181090" lon="-3.9525280">
        <ele>629.4</ele>
        <time>2019-08-11T18:34:12Z</time>
      </trkpt>
      <trkpt lat="39.0180620" lon="-3.9524710">
        <ele>629.5</ele>
        <time>2019-08-11T18:34:13Z</time>
      </trkpt>
      <trkpt lat="39.0180140" lon="-3.9524140">
        <ele>629.5</ele>
        <time>2019-08-11T18:34:14Z</time>
      </trkpt>
      <trkpt lat="39.0179670" lon="-3.9523570">
        <ele>629.6</ele>
        <time>2019-08-11T18:34:15Z</time>
      </trkpt>
      <trkpt lat="39.0179200" lon="-3.9523000">
        <ele>629.6</ele>
        <time>2019-08-11T18:34:16Z</time>
      </trkpt>
      <trkpt lat="39.0178720" lon="-3.9522430">
        <ele>629.7</ele>
        <time>2019-08-11T18:34:17Z</time>
      </trkpt>
      <trkpt lat="39.0178240" lon="-3.9521850">
        <ele>629.7</ele>
        <time>2019-08-11T18:34:18Z</time>
      </trkpt>
      <trkpt lat="39.0177770" lon="-3.9521280">
        <ele>629.8</ele>
        <time>2019-08-11T18:34:19Z</time>
      </trkpt>
      <trkpt lat="39.0177280" lon="-3.9520700">
        <ele>629.8</ele>
        <time>2019-08-11T18:34:20Z</time>
      </trkpt>
      <trkpt lat="39.0176800" lon="-3.9520120">
        <ele>629.9</ele>
        <time>2019-08-11T18:34:21Z</time>
      </trkpt>
      <trkpt lat="39.0176320" lon="-3.9519540">
        <ele>629.9</ele>
        <time>2019-08-11T18:34:22Z</time>
      </trkpt>
      <trkpt lat="39.0175830" lon="-3.9518960">
        <ele>629.9</ele>
        <time>2019-08-11T18:34:23Z</time>
      </trkpt>
      <trkpt lat="39.0175340" lon="-3.9518370">
        <ele>629.9</ele>
        <time>2019-08-11T18:34:24Z</time>
      </trkpt>
      <trkpt lat="39.0174850" lon="-3.9517780">
        <ele>630.0</ele>
        <time>2019-08-11T18:34:25Z</time>
      </trkpt>
      <trkpt lat="39.0174350" lon="-3.9517190">
        <ele>630.0</ele>
        <time>2019-08-11T18:34:26Z</time>
      </trkpt>
      <trkpt lat="39.0173860" lon="-3.9516600">
        <ele>630.0</ele>
        <time>2019-08-11T18:34:27Z</time>
      </trkpt>
      <trkpt lat="39.0173360" lon="-3.9516010">
        <ele>630.0</ele>
        <time>2019-08-11T18:34:28Z</time>
      </trkpt>
      <trkpt lat="39.0172860" lon="-3.9515410">
        <ele>630.1</ele>
        <time>2019-08-11T18:34:29Z</time>
      </trkpt>
      <trkpt lat="39.0172360" lon="-3.9514810">
        <ele>630.1</ele>
        <time>2019-08-11T18:34:30Z</time>
      </trkpt>
      <trkpt lat="39.0171850" lon="-3.9514210">
        <ele>630.1</ele>
        <time>2019-08-11T18:34:31Z</time>
      </trkpt>
      <trkpt lat="39.0171350" lon="-3.9513600">
        <ele>630.1</ele>
        <time>2019-08-11T18:34:32Z</time>
      </trkpt>
      <trkpt lat="39.0170840" lon="-3.9513000">
        <ele>630.2</ele>
        <time>2019-08-11T18:34:33Z</time>
      </trkpt>
      <trkpt lat="39.0170320" lon="-3.9512390">
        <ele>630.2</ele>
        <time>2019-08-11T18:34:34Z</time>
      </trkpt>
      <trkpt lat="39.0169810" lon="-3.9511770">
        <ele>630.2</ele>
        <time>2019-08-11T18:34:35Z</time>
      </trkpt>
      <trkpt lat="39.0169300" lon="-3.9511160">
        <ele>630.2</ele>
        <time>2019-08-11T18:34:36Z</time>
      </trkpt>
      <trkpt lat="39.0168780" lon="-3.9510540">
        <ele>630.2</ele>
        <time>2019-08-11T18:34:37Z</time>
      </trkpt>
      <trkpt lat="39.0168260" lon="-3.9509920">
        <ele>630.2</ele>
        <time>2019-08-11T18:34:38Z</time>
      </trkpt>
      <trkpt lat="39.0167730" lon="-3.9509290">
        <ele>630.2</ele>
        <time>2019-08-11T18:34:39Z</time>
      </trkpt>
      <trkpt lat="39.0167210" lon="-3.9508670">
        <ele>630.3</ele>
        <time>2019-08-11T18:34:40Z</time>
      </trkpt>
      <trkpt lat="39.0166680" lon="-3.9508040">
        <ele>630.3</ele>
        <time>2019-08-11T18:34:41Z</time>
      </trkpt>
      <trkpt lat="39.0166160" lon="-3.9507410">
        <ele>630.3</ele>
        <time>2019-08-11T18:34:42Z</time>
      </trkpt>
      <trkpt lat="39.0165630" lon="-3.9506780">
        <ele>630.3</ele>
        <time>2019-08-11T18:34:43Z</time>
      </trkpt>
      <trkpt lat="39.0165090" lon="-3.9506140">
        <ele>630.3</ele>
        <time>2019-08-11T18:34:44Z</time>
      </trkpt>
      <trkpt lat="39.0164560" lon="-3.9505510">
        <ele>630.3</ele>
        <time>2019-08-11T18:34:45Z</time>
      </trkpt>
      <trkpt lat="39.0164030" lon="-3.9504870">
        <ele>630.3</ele>
        <time>2019-08-11T18:34:46Z</time>
      </trkpt>
      <trkpt lat="39.0163490" lon="-3.9504230">
        <ele>630.4</ele>
        <time>2019-08-11T18:34:47Z</time>
      </trkpt>
      <trkpt lat="39.0162950" lon="-3.9503590">
        <ele>630.4</ele>
        <time>2019-08-11T18:34:48Z</time>
      </trkpt>
      <trkpt lat="39.0162420" lon="-3.9502940">
        <ele>630.4</ele>
        <time>2019-08-11T18:34:49Z</time>
      </trkpt>
      <trkpt lat="39.0161880" lon="-3.9502300">
        <ele>630.4</ele>
        <time>2019-08-11T18:34:50Z</time>
      </trkpt>
      <trkpt lat="39.0161340" lon="-3.9501660">
        <ele>630.3</ele>
        <time>2019-08-11T18:34:51Z</time>
      </trkpt>
      <trkpt lat="39.0160800" lon="-3.9501010">
        <ele>630.3</ele>
        <time>2019-08-11T18:34:52Z</time>
      </trkpt>
      <trkpt lat="39.0160260" lon="-3.9500360">
        <ele>630.3</ele>
        <time>2019-08-11T18:34:53Z</time>
      </trkpt>
      <trkpt lat="39.0159710" lon="-3.9499720">
        <ele>630.2</ele>
        <time>2019-08-11T18:34:54Z</time>
      </trkpt>
      <trkpt lat="39.0159170" lon="-3.9499070">
        <ele>630.2</ele>
        <time>2019-08-11T18:34:55Z</time>
      </trkpt>
      <trkpt lat="39.0158630" lon="-3.9498420">
        <ele>630.1</ele>
        <time>2019-08-11T18:34:56Z</time>
      </trkpt>
      <trkpt lat="39.0158080" lon="-3.9497770">
        <ele>630.1</ele>
        <time>2019-08-11T18:34:57Z</time>
      </trkpt>
      <trkpt lat="39.0157540" lon="-3.9497110">
        <ele>630.0</ele>
        <time>2019-08-11T18:34:58Z</time>
      </trkpt>
      <trkpt lat="39.0156990" lon="-3.9496460">
        <ele>630.0</ele>
        <time>2019-08-11T18:34:59Z</time>
      </trkpt>
      <trkpt lat="39.0156440" lon="-3.9495800">
        <ele>629.9</ele>
        <time>2019-08-11T18:35:00Z</time>
      </trkpt>
      <trkpt lat="39.0155890" lon="-3.9495150">
        <ele>629.8</ele>
        <time>2019-08-11T18:35:01Z</time>
      </trkpt>
      <trkpt lat="39.0155340" lon="-3.9494490">
        <ele>629.8</ele>
        <time>2019-08-11T18:35:02Z</time>
      </trkpt>
      <trkpt lat="39.0154790" lon="-3.9493820">
        <ele>629.7</ele>
        <time>2019-08-11T18:35:03Z</time>
      </trkpt>
      <trkpt lat="39.0154230" lon="-3.9493160">
        <ele>629.6</ele>
        <time>2019-08-11T18:35:04Z</time>
      </trkpt>
      <trkpt lat="39.0153670" lon="-3.9492490">
        <ele>629.6</ele>
        <time>2019-08-11T18:35:05Z</time>
      </trkpt>
      <trkpt lat="39.0153110" lon="-3.9491820">
        <ele>629.5</ele>
        <time>2019-08-11T18:35:06Z</time>
      </trkpt>
      <trkpt lat="39.0152550" lon="-3.9491140">
        <ele>629.4</ele>
        <time>2019-08-11T18:35:07Z</time>
      </trkpt>
      <trkpt lat="39.0151980" lon="-3.9490460">
        <ele>629.3</ele>
        <time>2019-08-11T18:35:08Z</time>
      </trkpt>
      <trkpt lat="39.0151410" lon="-3.9489780">
        <ele>629.2</ele>
        <time>2019-08-11T18:35:09Z</time>
      </trkpt>
      <trkpt lat="39.0150840" lon="-3.9489090">
        <ele>629.2</ele>
        <time>2019-08-11T18:35:10Z</time>
      </trkpt>
      <trkpt lat="39.0150260" lon="-3.9488400">
        <ele>629.1</ele>
        <time>2019-08-11T18:35:11Z</time>
      </trkpt>
      <trkpt lat="39.0149680" lon="-3.9487710">
        <ele>629.0</ele>
        <time>2019-08-11T18:35:12Z</time>
      </trkpt>
      <trkpt lat="39.0149100" lon="-3.9487010">
        <ele>628.9</ele>
        <time>2019-08-11T18:35:13Z</time>
      </trkpt>
      <trkpt lat="39.0148520" lon="-3.9486310">
        <ele>628.8</ele>
        <time>2019-08-11T18:35:14Z</time>
      </trkpt>
      <trkpt lat="39.0147930" lon="-3.9485600">
        <ele>628.8</ele>
        <time>2019-08-11T18:35:15Z</time>
      </trkpt>
      <trkpt lat="39.0147340" lon="-3.9484900">
        <ele>628.7</ele>
        <time>2019-08-11T18:35:16Z</time>
      </trkpt>
      <trkpt lat="39.0146750" lon="-3.9484190">
        <ele>628.6</ele>
        <time>2019-08-11T18:35:17Z</time>
      </trkpt>
      <trkpt lat="39.0146160" lon="-3.9483470">
        <ele>628.5</ele>
        <time>2019-08-11T18:35:18Z</time>
      </trkpt>
      <trkpt lat="39.0145560" lon="-3.9482760">
        <ele>628.4</ele>
        <time>2019-08-11T18:35:19Z</time>
      </trkpt>
      <trkpt lat="39.0144970" lon="-3.9482050">
        <ele>628.4</ele>
        <time>2019-08-11T18:35:20Z</time>
      </trkpt>
      <trkpt lat="39.0144370" lon="-3.9481330">
        <ele>628.3</ele>
        <time>2019-08-11T18:35:21Z</time>
      </trkpt>
      <trkpt lat="39.0143780" lon="-3.9480620">
        <ele>628.3</ele>
        <time>2019-08-11T18:35:22Z</time>
      </trkpt>
      <trkpt lat="39.0143180" lon="-3.9479900">
        <ele>628.3</ele>
        <time>2019-08-11T18:35:23Z</time>
      </trkpt>
      <trkpt lat="39.0142590" lon="-3.9479190">
        <ele>628.2</ele>
        <time>2019-08-11T18:35:24Z</time>
      </trkpt>
      <trkpt lat="39.0141990" lon="-3.9478480">
        <ele>628.2</ele>
        <time>2019-08-11T18:35:25Z</time>
      </trkpt>
      <trkpt lat="39.0141400" lon="-3.9477760">
        <ele>628.2</ele>
        <time>2019-08-11T18:35:26Z</time>
      </trkpt>
      <trkpt lat="39.0140800" lon="-3.9477060">
        <ele>628.1</ele>
        <time>2019-08-11T18:35:27Z</time>
      </trkpt>
      <trkpt lat="39.0140210" lon="-3.9476350">
        <ele>628.1</ele>
        <time>2019-08-11T18:35:28Z</time>
      </trkpt>
      <trkpt lat="39.0139620" lon="-3.9475640">
        <ele>628.0</ele>
        <time>2019-08-11T18:35:29Z</time>
      </trkpt>
      <trkpt lat="39.0139030" lon="-3.9474940">
        <ele>627.9</ele>
        <time>2019-08-11T18:35:30Z</time>
      </trkpt>
      <trkpt lat="39.0138450" lon="-3.9474240">
        <ele>627.8</ele>
        <time>2019-08-11T18:35:31Z</time>
      </trkpt>
      <trkpt lat="39.0137860" lon="-3.9473550">
        <ele>627.8</ele>
        <time>2019-08-11T18:35:32Z</time>
      </trkpt>
      <trkpt lat="39.0137280" lon="-3.9472850">
        <ele>627.7</ele>
        <time>2019-08-11T18:35:33Z</time>
      </trkpt>
      <trkpt lat="39.0136690" lon="-3.9472160">
        <ele>627.6</ele>
        <time>2019-08-11T18:35:34Z</time>
      </trkpt>
      <trkpt lat="39.0136110" lon="-3.9471460">
        <ele>627.6</ele>
        <time>2019-08-11T18:35:35Z</time>
      </trkpt>
      <trkpt lat="39.0135530" lon="-3.9470770">
        <ele>627.5</ele>
        <time>2019-08-11T18:35:36Z</time>
      </trkpt>
      <trkpt lat="39.0134950" lon="-3.9470080">
        <ele>627.5</ele>
        <time>2019-08-11T18:35:37Z</time>
      </trkpt>
      <trkpt lat="39.0134370" lon="-3.9469390">
        <ele>627.4</ele>
        <time>2019-08-11T18:35:38Z</time>
      </trkpt>
      <trkpt lat="39.0133790" lon="-3.9468700">
        <ele>627.4</ele>
        <time>2019-08-11T18:35:39Z</time>
      </trkpt>
      <trkpt lat="39.0133210" lon="-3.9468010">
        <ele>627.4</ele>
        <time>2019-08-11T18:35:40Z</time>
      </trkpt>
      <trkpt lat="39.0132630" lon="-3.9467320">
        <ele>627.3</ele>
        <time>2019-08-11T18:35:41Z</time>
      </trkpt>
      <trkpt lat="39.0132060" lon="-3.9466630">
        <ele>627.3</ele>
        <time>2019-08-11T18:35:42Z</time>
      </trkpt>
      <trkpt lat="39.0131480" lon="-3.9465940">
        <ele>627.2</ele>
        <time>2019-08-11T18:35:43Z</time>
      </trkpt>
      <trkpt lat="39.0130900" lon="-3.9465250">
        <ele>627.1</ele>
        <time>2019-08-11T18:35:44Z</time>
      </trkpt>
      <trkpt lat="39.0130320" lon="-3.9464550">
        <ele>627.0</ele>
        <time>2019-08-11T18:35:45Z</time>
      </trkpt>
      <trkpt lat="39.0129750" lon="-3.9463860">
        <ele>626.9</ele>
        <time>2019-08-11T18:35:46Z</time>
      </trkpt>
      <trkpt lat="39.0129170" lon="-3.9463160">
        <ele>626.8</ele>
        <time>2019-08-11T18:35:47Z</time>
      </trkpt>
      <trkpt lat="39.0128590" lon="-3.9462460">
        <ele>626.7</ele>
        <time>2019-08-11T18:35:48Z</time>
      </trkpt>
      <trkpt lat="39.0128020" lon="-3.9461770">
        <ele>626.7</ele>
        <time>2019-08-11T18:35:49Z</time>
      </trkpt>
      <trkpt lat="39.0127440" lon="-3.9461070">
        <ele>626.7</ele>
        <time>2019-08-11T18:35:50Z</time>
      </trkpt>
      <trkpt lat="39.0126870" lon="-3.9460380">
        <ele>626.7</ele>
        <time>2019-08-11T18:35:51Z</time>
      </trkpt>
      <trkpt lat="39.0126300" lon="-3.9459680">
        <ele>626.7</ele>
        <time>2019-08-11T18:35:52Z</time>
      </trkpt>
      <trkpt lat="39.0125730" lon="-3.9458990">
        <ele>626.7</ele>
        <time>2019-08-11T18:35:53Z</time>
      </trkpt>
      <trkpt lat="39.0125160" lon="-3.9458300">
        <ele>626.8</ele>
        <time>2019-08-11T18:35:54Z</time>
      </trkpt>
      <trkpt lat="39.0124590" lon="-3.9457610">
        <ele>626.8</ele>
        <time>2019-08-11T18:35:55Z</time>
      </trkpt>
      <trkpt lat="39.0124030" lon="-3.9456930">
        <ele>626.8</ele>
        <time>2019-08-11T18:35:56Z</time>
      </trkpt>
      <trkpt lat="39.0123460" lon="-3.9456250">
        <ele>626.8</ele>
        <time>2019-08-11T18:35:57Z</time>
      </trkpt>
      <trkpt lat="39.0122900" lon="-3.9455570">
        <ele>626.8</ele>
        <time>2019-08-11T18:35:58Z</time>
      </trkpt>
      <trkpt lat="39.0122350" lon="-3.9454900">
        <ele>626.8</ele>
        <time>2019-08-11T18:35:59Z</time>
      </trkpt>
      <trkpt lat="39.0121800" lon="-3.9454230">
        <ele>626.8</ele>
        <time>2019-08-11T18:36:00Z</time>
      </trkpt>
      <trkpt lat="39.0121250" lon="-3.9453570">
        <ele>626.8</ele>
        <time>2019-08-11T18:36:01Z</time>
      </trkpt>
      <trkpt lat="39.0120700" lon="-3.9452920">
        <ele>626.8</ele>
        <time>2019-08-11T18:36:02Z</time>
      </trkpt>
      <trkpt lat="39.0120160" lon="-3.9452270">
        <ele>626.8</ele>
        <time>2019-08-11T18:36:03Z</time>
      </trkpt>
      <trkpt lat="39.0119620" lon="-3.9451630">
        <ele>626.8</ele>
        <time>2019-08-11T18:36:04Z</time>
      </trkpt>
      <trkpt lat="39.0119090" lon="-3.9450990">
        <ele>626.8</ele>
        <time>2019-08-11T18:36:05Z</time>
      </trkpt>
      <trkpt lat="39.0118560" lon="-3.9450350">
        <ele>626.8</ele>
        <time>2019-08-11T18:36:06Z</time>
      </trkpt>
      <trkpt lat="39.0118030" lon="-3.9449710">
        <ele>626.8</ele>
        <time>2019-08-11T18:36:07Z</time>
      </trkpt>
      <trkpt lat="39.0117500" lon="-3.9449070">
        <ele>626.8</ele>
        <time>2019-08-11T18:36:08Z</time>
      </trkpt>
      <trkpt lat="39.0116970" lon="-3.9448420">
        <ele>626.8</ele>
        <time>2019-08-11T18:36:09Z</time>
      </trkpt>
      <trkpt lat="39.0116440" lon="-3.9447770">
        <ele>626.8</ele>
        <time>2019-08-11T18:36:10Z</time>
      </trkpt>
      <trkpt lat="39.0115910" lon="-3.9447110">
        <ele>626.8</ele>
        <time>2019-08-11T18:36:11Z</time>
      </trkpt>
      <trkpt lat="39.0115380" lon="-3.9446440">
        <ele>626.8</ele>
        <time>2019-08-11T18:36:12Z</time>
      </trkpt>
      <trkpt lat="39.0114850" lon="-3.9445770">
        <ele>626.8</ele>
        <time>2019-08-11T18:36:13Z</time>
      </trkpt>
      <trkpt lat="39.0114310" lon="-3.9445100">
        <ele>626.8</ele>
        <time>2019-08-11T18:36:14Z</time>
      </trkpt>
      <trkpt lat="39.0113770" lon="-3.9444450">
        <ele>626.8</ele>
        <time>2019-08-11T18:36:15Z</time>
      </trkpt>
      <trkpt lat="39.0113210" lon="-3.9443820">
        <ele>626.8</ele>
        <time>2019-08-11T18:36:16Z</time>
      </trkpt>
      <trkpt lat="39.0112660" lon="-3.9443210">
        <ele>626.8</ele>
        <time>2019-08-11T18:36:17Z</time>
      </trkpt>
      <trkpt lat="39.0112100" lon="-3.9442600">
        <ele>626.8</ele>
        <time>2019-08-11T18:36:18Z</time>
      </trkpt>
      <trkpt lat="39.0111540" lon="-3.9441990">
        <ele>626.8</ele>
        <time>2019-08-11T18:36:19Z</time>
      </trkpt>
      <trkpt lat="39.0110990" lon="-3.9441370">
        <ele>626.8</ele>
        <time>2019-08-11T18:36:20Z</time>
      </trkpt>
      <trkpt lat="39.0110450" lon="-3.9440750">
        <ele>626.8</ele>
        <time>2019-08-11T18:36:21Z</time>
      </trkpt>
      <trkpt lat="39.0109920" lon="-3.9440110">
        <ele>626.8</ele>
        <time>2019-08-11T18:36:22Z</time>
      </trkpt>
      <trkpt lat="39.0109390" lon="-3.9439470">
        <ele>626.8</ele>
        <time>2019-08-11T18:36:23Z</time>
      </trkpt>
      <trkpt lat="39.0108870" lon="-3.9438830">
        <ele>626.8</ele>
        <time>2019-08-11T18:36:24Z</time>
      </trkpt>
      <trkpt lat="39.0108350" lon="-3.9438180">
        <ele>626.8</ele>
        <time>2019-08-11T18:36:25Z</time>
      </trkpt>
      <trkpt lat="39.0107840" lon="-3.9437530">
        <ele>626.8</ele>
        <time>2019-08-11T18:36:26Z</time>
      </trkpt>
      <trkpt lat="39.0107330" lon="-3.9436880">
        <ele>626.8</ele>
        <time>2019-08-11T18:36:27Z</time>
      </trkpt>
      <trkpt lat="39.0106820" lon="-3.9436230">
        <ele>626.8</ele>
        <time>2019-08-11T18:36:28Z</time>
      </trkpt>
      <trkpt lat="39.0106320" lon="-3.9435580">
        <ele>626.8</ele>
        <time>2019-08-11T18:36:29Z</time>
      </trkpt>
      <trkpt lat="39.0105810" lon="-3.9434930">
        <ele>626.8</ele>
        <time>2019-08-11T18:36:30Z</time>
      </trkpt>
      <trkpt lat="39.0105310" lon="-3.9434290">
        <ele>626.8</ele>
        <time>2019-08-11T18:36:31Z</time>
      </trkpt>
      <trkpt lat="39.0104810" lon="-3.9433640">
        <ele>626.8</ele>
        <time>2019-08-11T18:36:32Z</time>
      </trkpt>
      <trkpt lat="39.0104300" lon="-3.9433010">
        <ele>626.8</ele>
        <time>2019-08-11T18:36:33Z</time>
      </trkpt>
      <trkpt lat="39.0103800" lon="-3.9432380">
        <ele>626.8</ele>
        <time>2019-08-11T18:36:34Z</time>
      </trkpt>
      <trkpt lat="39.0103290" lon="-3.9431750">
        <ele>626.8</ele>
        <time>2019-08-11T18:36:35Z</time>
      </trkpt>
      <trkpt lat="39.0102780" lon="-3.9431140">
        <ele>626.8</ele>
        <time>2019-08-11T18:36:36Z</time>
      </trkpt>
      <trkpt lat="39.0102270" lon="-3.9430530">
        <ele>626.8</ele>
        <time>2019-08-11T18:36:37Z</time>
      </trkpt>
      <trkpt lat="39.0101750" lon="-3.9429940">
        <ele>626.8</ele>
        <time>2019-08-11T18:36:38Z</time>
      </trkpt>
      <trkpt lat="39.0101230" lon="-3.9429340">
        <ele>626.8</ele>
        <time>2019-08-11T18:36:39Z</time>
      </trkpt>
      <trkpt lat="39.0100720" lon="-3.9428750">
        <ele>626.8</ele>
        <time>2019-08-11T18:36:40Z</time>
      </trkpt>
      <trkpt lat="39.0100200" lon="-3.9428150">
        <ele>626.8</ele>
        <time>2019-08-11T18:36:41Z</time>
      </trkpt>
      <trkpt lat="39.0099680" lon="-3.9427550">
        <ele>626.8</ele>
        <time>2019-08-11T18:36:42Z</time>
      </trkpt>
      <trkpt lat="39.0099160" lon="-3.9426950">
        <ele>626.8</ele>
        <time>2019-08-11T18:36:43Z</time>
      </trkpt>
      <trkpt lat="39.0098640" lon="-3.9426340">
        <ele>626.8</ele>
        <time>2019-08-11T18:36:44Z</time>
      </trkpt>
      <trkpt lat="39.0098130" lon="-3.9425720">
        <ele>626.8</ele>
        <time>2019-08-11T18:36:45Z</time>
      </trkpt>
      <trkpt lat="39.0097620" lon="-3.9425100">
        <ele>626.8</ele>
        <time>2019-08-11T18:36:46Z</time>
      </trkpt>
      <trkpt lat="39.0097120" lon="-3.9424480">
        <ele>626.8</ele>
        <time>2019-08-11T18:36:47Z</time>
      </trkpt>
      <trkpt lat="39.0096620" lon="-3.9423850">
        <ele>626.8</ele>
        <time>2019-08-11T18:36:48Z</time>
      </trkpt>
      <trkpt lat="39.0096110" lon="-3.9423210">
        <ele>626.8</ele>
        <time>2019-08-11T18:36:49Z</time>
      </trkpt>
      <trkpt lat="39.0095610" lon="-3.9422580">
        <ele>626.8</ele>
        <time>2019-08-11T18:36:50Z</time>
      </trkpt>
      <trkpt lat="39.0095100" lon="-3.9421950">
        <ele>626.7</ele>
        <time>2019-08-11T18:36:51Z</time>
      </trkpt>
      <trkpt lat="39.0094580" lon="-3.9421330">
        <ele>626.7</ele>
        <time>2019-08-11T18:36:52Z</time>
      </trkpt>
      <trkpt lat="39.0094060" lon="-3.9420710">
        <ele>626.7</ele>
        <time>2019-08-11T18:36:53Z</time>
      </trkpt>
      <trkpt lat="39.0093530" lon="-3.9420090">
        <ele>626.7</ele>
        <time>2019-08-11T18:36:54Z</time>
      </trkpt>
      <trkpt lat="39.0092990" lon="-3.9419470">
        <ele>626.7</ele>
        <time>2019-08-11T18:36:55Z</time>
      </trkpt>
      <trkpt lat="39.0092450" lon="-3.9418860">
        <ele>626.7</ele>
        <time>2019-08-11T18:36:56Z</time>
      </trkpt>
      <trkpt lat="39.0091920" lon="-3.9418240">
        <ele>626.7</ele>
        <time>2019-08-11T18:36:57Z</time>
      </trkpt>
      <trkpt lat="39.0091390" lon="-3.9417600">
        <ele>626.7</ele>
        <time>2019-08-11T18:36:58Z</time>
      </trkpt>
      <trkpt lat="39.0090880" lon="-3.9416960">
        <ele>626.7</ele>
        <time>2019-08-11T18:36:59Z</time>
      </trkpt>
      <trkpt lat="39.0090390" lon="-3.9416290">
        <ele>626.7</ele>
        <time>2019-08-11T18:37:00Z</time>
      </trkpt>
      <trkpt lat="39.0089910" lon="-3.9415600">
        <ele>626.7</ele>
        <time>2019-08-11T18:37:01Z</time>
      </trkpt>
      <trkpt lat="39.0089470" lon="-3.9414890">
        <ele>626.7</ele>
        <time>2019-08-11T18:37:02Z</time>
      </trkpt>
      <trkpt lat="39.0089050" lon="-3.9414150">
        <ele>626.7</ele>
        <time>2019-08-11T18:37:03Z</time>
      </trkpt>
      <trkpt lat="39.0088660" lon="-3.9413380">
        <ele>626.7</ele>
        <time>2019-08-11T18:37:04Z</time>
      </trkpt>
      <trkpt lat="39.0088290" lon="-3.9412580">
        <ele>626.7</ele>
        <time>2019-08-11T18:37:05Z</time>
      </trkpt>
      <trkpt lat="39.0087940" lon="-3.9411770">
        <ele>626.7</ele>
        <time>2019-08-11T18:37:06Z</time>
      </trkpt>
      <trkpt lat="39.0087610" lon="-3.9410950">
        <ele>626.7</ele>
        <time>2019-08-11T18:37:07Z</time>
      </trkpt>
      <trkpt lat="39.0087270" lon="-3.9410130">
        <ele>626.7</ele>
        <time>2019-08-11T18:37:08Z</time>
      </trkpt>
      <trkpt lat="39.0086950" lon="-3.9409300">
        <ele>626.7</ele>
        <time>2019-08-11T18:37:09Z</time>
      </trkpt>
      <trkpt lat="39.0086620" lon="-3.9408470">
        <ele>626.7</ele>
        <time>2019-08-11T18:37:10Z</time>
      </trkpt>
      <trkpt lat="39.0086290" lon="-3.9407640">
        <ele>626.7</ele>
        <time>2019-08-11T18:37:11Z</time>
      </trkpt>
      <trkpt lat="39.0085960" lon="-3.9406820">
        <ele>626.7</ele>
        <time>2019-08-11T18:37:12Z</time>
      </trkpt>
      <trkpt lat="39.0085640" lon="-3.9405990">
        <ele>626.7</ele>
        <time>2019-08-11T18:37:13Z</time>
      </trkpt>
      <trkpt lat="39.0085340" lon="-3.9405150">
        <ele>626.7</ele>
        <time>2019-08-11T18:37:14Z</time>
      </trkpt>
      <trkpt lat="39.0085070" lon="-3.9404290">
        <ele>626.7</ele>
        <time>2019-08-11T18:37:15Z</time>
      </trkpt>
      <trkpt lat="39.0084820" lon="-3.9403410">
        <ele>626.7</ele>
        <time>2019-08-11T18:37:16Z</time>
      </trkpt>
      <trkpt lat="39.0084540" lon="-3.9402550">
        <ele>626.7</ele>
        <time>2019-08-11T18:37:17Z</time>
      </trkpt>
      <trkpt lat="39.0084170" lon="-3.9401740">
        <ele>626.7</ele>
        <time>2019-08-11T18:37:18Z</time>
      </trkpt>
      <trkpt lat="39.0083770" lon="-3.9400930">
        <ele>626.7</ele>
        <time>2019-08-11T18:37:19Z</time>
      </trkpt>
      <trkpt lat="39.0083400" lon="-3.9400100">
        <ele>626.7</ele>
        <time>2019-08-11T18:37:20Z</time>
      </trkpt>
      <trkpt lat="39.0083070" lon="-3.9399250">
        <ele>626.6</ele>
        <time>2019-08-11T18:37:21Z</time>
      </trkpt>
      <trkpt lat="39.0082770" lon="-3.9398370">
        <ele>626.5</ele>
        <time>2019-08-11T18:37:22Z</time>
      </trkpt>
      <trkpt lat="39.0082480" lon="-3.9397470">
        <ele>626.3</ele>
        <time>2019-08-11T18:37:23Z</time>
      </trkpt>
      <trkpt lat="39.0082190" lon="-3.9396560">
        <ele>626.1</ele>
        <time>2019-08-11T18:37:24Z</time>
      </trkpt>
      <trkpt lat="39.0081890" lon="-3.9395650">
        <ele>625.8</ele>
        <time>2019-08-11T18:37:25Z</time>
      </trkpt>
      <trkpt lat="39.0081590" lon="-3.9394720">
        <ele>625.6</ele>
        <time>2019-08-11T18:37:26Z</time>
      </trkpt>
      <trkpt lat="39.0081300" lon="-3.9393790">
        <ele>625.4</ele>
        <time>2019-08-11T18:37:27Z</time>
      </trkpt>
      <trkpt lat="39.0081030" lon="-3.9392840">
        <ele>625.3</ele>
        <time>2019-08-11T18:37:28Z</time>
      </trkpt>
      <trkpt lat="39.0080780" lon="-3.9391880">
        <ele>625.2</ele>
        <time>2019-08-11T18:37:29Z</time>
      </trkpt>
      <trkpt lat="39.0080540" lon="-3.9390910">
        <ele>625.2</ele>
        <time>2019-08-11T18:37:30Z</time>
      </trkpt>
      <trkpt lat="39.0080290" lon="-3.9389940">
        <ele>625.2</ele>
        <time>2019-08-11T18:37:31Z</time>
      </trkpt>
      <trkpt lat="39.0080010" lon="-3.9388990">
        <ele>625.2</ele>
        <time>2019-08-11T18:37:32Z</time>
      </trkpt>
      <trkpt lat="39.0079680" lon="-3.9388060">
        <ele>625.2</ele>
        <time>2019-08-11T18:37:33Z</time>
      </trkpt>
      <trkpt lat="39.0079280" lon="-3.9387170">
        <ele>625.2</ele>
        <time>2019-08-11T18:37:34Z</time>
      </trkpt>
      <trkpt lat="39.0078800" lon="-3.9386360">
        <ele>625.2</ele>
        <time>2019-08-11T18:37:35Z</time>
      </trkpt>
      <trkpt lat="39.0078250" lon="-3.9385660">
        <ele>625.4</ele>
        <time>2019-08-11T18:37:36Z</time>
      </trkpt>
      <trkpt lat="39.0077610" lon="-3.9385110">
        <ele>625.6</ele>
        <time>2019-08-11T18:37:37Z</time>
      </trkpt>
      <trkpt lat="39.0076910" lon="-3.9384740">
        <ele>625.8</ele>
        <time>2019-08-11T18:37:38Z</time>
      </trkpt>
      <trkpt lat="39.0076160" lon="-3.9384520">
        <ele>626.0</ele>
        <time>2019-08-11T18:37:39Z</time>
      </trkpt>
      <trkpt lat="39.0075430" lon="-3.9384410">
        <ele>626.1</ele>
        <time>2019-08-11T18:37:40Z</time>
      </trkpt>
      <trkpt lat="39.0074700" lon="-3.9384360">
        <ele>626.1</ele>
        <time>2019-08-11T18:37:41Z</time>
      </trkpt>
      <trkpt lat="39.0073980" lon="-3.9384310">
        <ele>626.1</ele>
        <time>2019-08-11T18:37:42Z</time>
      </trkpt>
      <trkpt lat="39.0073260" lon="-3.9384250">
        <ele>626.1</ele>
        <time>2019-08-11T18:37:43Z</time>
      </trkpt>
      <trkpt lat="39.0072560" lon="-3.9384200">
        <ele>626.1</ele>
        <time>2019-08-11T18:37:44Z</time>
      </trkpt>
      <trkpt lat="39.0071870" lon="-3.9384150">
        <ele>626.1</ele>
        <time>2019-08-11T18:37:45Z</time>
      </trkpt>
      <trkpt lat="39.0071170" lon="-3.9384110">
        <ele>626.1</ele>
        <time>2019-08-11T18:37:46Z</time>
      </trkpt>
      <trkpt lat="39.0070500" lon="-3.9384070">
        <ele>626.0</ele>
        <time>2019-08-11T18:37:47Z</time>
      </trkpt>
      <trkpt lat="39.0069830" lon="-3.9384030">
        <ele>625.8</ele>
        <time>2019-08-11T18:37:48Z</time>
      </trkpt>
      <trkpt lat="39.0069170" lon="-3.9384000">
        <ele>625.6</ele>
        <time>2019-08-11T18:37:49Z</time>
      </trkpt>
      <trkpt lat="39.0068510" lon="-3.9383970">
        <ele>625.5</ele>
        <time>2019-08-11T18:37:50Z</time>
      </trkpt>
      <trkpt lat="39.0067870" lon="-3.9383940">
        <ele>625.3</ele>
        <time>2019-08-11T18:37:51Z</time>
      </trkpt>
      <trkpt lat="39.0067220" lon="-3.9383910">
        <ele>625.3</ele>
        <time>2019-08-11T18:37:52Z</time>
      </trkpt>
      <trkpt lat="39.0066580" lon="-3.9383880">
        <ele>625.2</ele>
        <time>2019-08-11T18:37:53Z</time>
      </trkpt>
      <trkpt lat="39.0065940" lon="-3.9383850">
        <ele>625.2</ele>
        <time>2019-08-11T18:37:54Z</time>
      </trkpt>
      <trkpt lat="39.0065310" lon="-3.9383800">
        <ele>625.2</ele>
        <time>2019-08-11T18:37:55Z</time>
      </trkpt>
      <trkpt lat="39.0064670" lon="-3.9383760">
        <ele>625.2</ele>
        <time>2019-08-11T18:37:56Z</time>
      </trkpt>
      <trkpt lat="39.0064030" lon="-3.9383710">
        <ele>625.2</ele>
        <time>2019-08-11T18:37:57Z</time>
      </trkpt>
      <trkpt lat="39.0063400" lon="-3.9383660">
        <ele>625.2</ele>
        <time>2019-08-11T18:37:58Z</time>
      </trkpt>
      <trkpt lat="39.0062760" lon="-3.9383600">
        <ele>625.2</ele>
        <time>2019-08-11T18:37:59Z</time>
      </trkpt>
      <trkpt lat="39.0062130" lon="-3.9383540">
        <ele>625.2</ele>
        <time>2019-08-11T18:38:00Z</time>
      </trkpt>
      <trkpt lat="39.0061490" lon="-3.9383480">
        <ele>625.2</ele>
        <time>2019-08-11T18:38:01Z</time>
      </trkpt>
      <trkpt lat="39.0060850" lon="-3.9383430">
        <ele>625.2</ele>
        <time>2019-08-11T18:38:02Z</time>
      </trkpt>
      <trkpt lat="39.0060210" lon="-3.9383370">
        <ele>625.2</ele>
        <time>2019-08-11T18:38:03Z</time>
      </trkpt>
      <trkpt lat="39.0059570" lon="-3.9383310">
        <ele>625.2</ele>
        <time>2019-08-11T18:38:04Z</time>
      </trkpt>
      <trkpt lat="39.0058930" lon="-3.9383250">
        <ele>625.2</ele>
        <time>2019-08-11T18:38:05Z</time>
      </trkpt>
      <trkpt lat="39.0057850" lon="-3.9383150">
        <ele>625.2</ele>
        <time>2019-08-11T18:38:06Z</time>
      </trkpt>
      <trkpt lat="39.0057420" lon="-3.9383110">
        <ele>625.2</ele>
        <time>2019-08-11T18:38:07Z</time>
      </trkpt>
      <trkpt lat="39.0056990" lon="-3.9383070">
        <ele>625.2</ele>
        <time>2019-08-11T18:38:08Z</time>
      </trkpt>
      <trkpt lat="39.0056340" lon="-3.9383010">
        <ele>625.2</ele>
        <time>2019-08-11T18:38:09Z</time>
      </trkpt>
      <trkpt lat="39.0055690" lon="-3.9382950">
        <ele>625.2</ele>
        <time>2019-08-11T18:38:10Z</time>
      </trkpt>
      <trkpt lat="39.0054620" lon="-3.9382850">
        <ele>625.2</ele>
        <time>2019-08-11T18:38:11Z</time>
      </trkpt>
      <trkpt lat="39.0054180" lon="-3.9382810">
        <ele>625.2</ele>
        <time>2019-08-11T18:38:12Z</time>
      </trkpt>
      <trkpt lat="39.0053750" lon="-3.9382770">
        <ele>625.2</ele>
        <time>2019-08-11T18:38:13Z</time>
      </trkpt>
      <trkpt lat="39.0053100" lon="-3.9382710">
        <ele>625.2</ele>
        <time>2019-08-11T18:38:14Z</time>
      </trkpt>
      <trkpt lat="39.0052450" lon="-3.9382660">
        <ele>625.2</ele>
        <time>2019-08-11T18:38:15Z</time>
      </trkpt>
      <trkpt lat="39.0051800" lon="-3.9382600">
        <ele>625.2</ele>
        <time>2019-08-11T18:38:16Z</time>
      </trkpt>
      <trkpt lat="39.0051150" lon="-3.9382540">
        <ele>625.2</ele>
        <time>2019-08-11T18:38:17Z</time>
      </trkpt>
      <trkpt lat="39.0050510" lon="-3.9382480">
        <ele>625.1</ele>
        <time>2019-08-11T18:38:18Z</time>
      </trkpt>
      <trkpt lat="39.0049860" lon="-3.9382410">
        <ele>625.0</ele>
        <time>2019-08-11T18:38:19Z</time>
      </trkpt>
      <trkpt lat="39.0049220" lon="-3.9382350">
        <ele>624.9</ele>
        <time>2019-08-11T18:38:20Z</time>
      </trkpt>
      <trkpt lat="39.0048570" lon="-3.9382290">
        <ele>624.7</ele>
        <time>2019-08-11T18:38:21Z</time>
      </trkpt>
      <trkpt lat="39.0047930" lon="-3.9382230">
        <ele>624.5</ele>
        <time>2019-08-11T18:38:22Z</time>
      </trkpt>
      <trkpt lat="39.0047290" lon="-3.9382170">
        <ele>624.4</ele>
        <time>2019-08-11T18:38:23Z</time>
      </trkpt>
      <trkpt lat="39.0046650" lon="-3.9382110">
        <ele>624.5</ele>
        <time>2019-08-11T18:38:24Z</time>
      </trkpt>
      <trkpt lat="39.0046010" lon="-3.9382050">
        <ele>624.7</ele>
        <time>2019-08-11T18:38:25Z</time>
      </trkpt>
      <trkpt lat="39.0045370" lon="-3.9381990">
        <ele>624.9</ele>
        <time>2019-08-11T18:38:26Z</time>
      </trkpt>
      <trkpt lat="39.0044740" lon="-3.9381930">
        <ele>625.1</ele>
        <time>2019-08-11T18:38:27Z</time>
      </trkpt>
      <trkpt lat="39.0044100" lon="-3.9381870">
        <ele>625.2</ele>
        <time>2019-08-11T18:38:28Z</time>
      </trkpt>
      <trkpt lat="39.0043470" lon="-3.9381810">
        <ele>625.2</ele>
        <time>2019-08-11T18:38:29Z</time>
      </trkpt>
      <trkpt lat="39.0042830" lon="-3.9381750">
        <ele>625.2</ele>
        <time>2019-08-11T18:38:30Z</time>
      </trkpt>
      <trkpt lat="39.0042200" lon="-3.9381680">
        <ele>625.2</ele>
        <time>2019-08-11T18:38:31Z</time>
      </trkpt>
      <trkpt lat="39.0041570" lon="-3.9381620">
        <ele>625.2</ele>
        <time>2019-08-11T18:38:32Z</time>
      </trkpt>
      <trkpt lat="39.0040940" lon="-3.9381560">
        <ele>625.2</ele>
        <time>2019-08-11T18:38:33Z</time>
      </trkpt>
      <trkpt lat="39.0040310" lon="-3.9381500">
        <ele>625.2</ele>
        <time>2019-08-11T18:38:34Z</time>
      </trkpt>
      <trkpt lat="39.0039680" lon="-3.9381440">
        <ele>625.2</ele>
        <time>2019-08-11T18:38:35Z</time>
      </trkpt>
      <trkpt lat="39.0039060" lon="-3.9381380">
        <ele>625.2</ele>
        <time>2019-08-11T18:38:36Z</time>
      </trkpt>
      <trkpt lat="39.0038430" lon="-3.9381330">
        <ele>625.2</ele>
        <time>2019-08-11T18:38:37Z</time>
      </trkpt>
      <trkpt lat="39.0037810" lon="-3.9381270">
        <ele>625.2</ele>
        <time>2019-08-11T18:38:38Z</time>
      </trkpt>
      <trkpt lat="39.0037180" lon="-3.9381210">
        <ele>625.2</ele>
        <time>2019-08-11T18:38:39Z</time>
      </trkpt>
      <trkpt lat="39.0036560" lon="-3.9381150">
        <ele>625.2</ele>
        <time>2019-08-11T18:38:40Z</time>
      </trkpt>
      <trkpt lat="39.0035940" lon="-3.9381090">
        <ele>625.2</ele>
        <time>2019-08-11T18:38:41Z</time>
      </trkpt>
      <trkpt lat="39.0035320" lon="-3.9381040">
        <ele>625.2</ele>
        <time>2019-08-11T18:38:42Z</time>
      </trkpt>
      <trkpt lat="39.0034700" lon="-3.9380980">
        <ele>625.2</ele>
        <time>2019-08-11T18:38:43Z</time>
      </trkpt>
      <trkpt lat="39.0034070" lon="-3.9380920">
        <ele>625.2</ele>
        <time>2019-08-11T18:38:44Z</time>
      </trkpt>
      <trkpt lat="39.0033450" lon="-3.9380860">
        <ele>625.1</ele>
        <time>2019-08-11T18:38:45Z</time>
      </trkpt>
      <trkpt lat="39.0032830" lon="-3.9380810">
        <ele>625.0</ele>
        <time>2019-08-11T18:38:46Z</time>
      </trkpt>
      <trkpt lat="39.0032210" lon="-3.9380750">
        <ele>624.9</ele>
        <time>2019-08-11T18:38:47Z</time>
      </trkpt>
      <trkpt lat="39.0031590" lon="-3.9380690">
        <ele>624.9</ele>
        <time>2019-08-11T18:38:48Z</time>
      </trkpt>
      <trkpt lat="39.0030960" lon="-3.9380640">
        <ele>624.9</ele>
        <time>2019-08-11T18:38:49Z</time>
      </trkpt>
      <trkpt lat="39.0030340" lon="-3.9380580">
        <ele>625.0</ele>
        <time>2019-08-11T18:38:50Z</time>
      </trkpt>
      <trkpt lat="39.0029710" lon="-3.9380520">
        <ele>625.1</ele>
        <time>2019-08-11T18:38:51Z</time>
      </trkpt>
      <trkpt lat="39.0029090" lon="-3.9380470">
        <ele>625.2</ele>
        <time>2019-08-11T18:38:52Z</time>
      </trkpt>
      <trkpt lat="39.0028460" lon="-3.9380410">
        <ele>625.2</ele>
        <time>2019-08-11T18:38:53Z</time>
      </trkpt>
      <trkpt lat="39.0027830" lon="-3.9380350">
        <ele>625.2</ele>
        <time>2019-08-11T18:38:54Z</time>
      </trkpt>
      <trkpt lat="39.0027200" lon="-3.9380300">
        <ele>625.2</ele>
        <time>2019-08-11T18:38:55Z</time>
      </trkpt>
      <trkpt lat="39.0026560" lon="-3.9380240">
        <ele>625.2</ele>
        <time>2019-08-11T18:38:56Z</time>
      </trkpt>
      <trkpt lat="39.0025930" lon="-3.9380180">
        <ele>625.2</ele>
        <time>2019-08-11T18:38:57Z</time>
      </trkpt>
      <trkpt lat="39.0025290" lon="-3.9380130">
        <ele>625.1</ele>
        <time>2019-08-11T18:38:58Z</time>
      </trkpt>
      <trkpt lat="39.0024660" lon="-3.9380070">
        <ele>625.0</ele>
        <time>2019-08-11T18:38:59Z</time>
      </trkpt>
      <trkpt lat="39.0024020" lon="-3.9380010">
        <ele>624.8</ele>
        <time>2019-08-11T18:39:00Z</time>
      </trkpt>
      <trkpt lat="39.0023380" lon="-3.9379950">
        <ele>624.6</ele>
        <time>2019-08-11T18:39:01Z</time>
      </trkpt>
      <trkpt lat="39.0022750" lon="-3.9379890">
        <ele>624.4</ele>
        <time>2019-08-11T18:39:02Z</time>
      </trkpt>
      <trkpt lat="39.0022110" lon="-3.9379830">
        <ele>624.2</ele>
        <time>2019-08-11T18:39:03Z</time>
      </trkpt>
      <trkpt lat="39.0021480" lon="-3.9379770">
        <ele>624.2</ele>
        <time>2019-08-11T18:39:04Z</time>
      </trkpt>
      <trkpt lat="39.0020840" lon="-3.9379710">
        <ele>624.1</ele>
        <time>2019-08-11T18:39:05Z</time>
      </trkpt>
      <trkpt lat="39.0020210" lon="-3.9379650">
        <ele>624.1</ele>
        <time>2019-08-11T18:39:06Z</time>
      </trkpt>
      <trkpt lat="39.0019570" lon="-3.9379590">
        <ele>624.1</ele>
        <time>2019-08-11T18:39:07Z</time>
      </trkpt>
      <trkpt lat="39.0018940" lon="-3.9379530">
        <ele>624.1</ele>
        <time>2019-08-11T18:39:08Z</time>
      </trkpt>
      <trkpt lat="39.0018320" lon="-3.9379460">
        <ele>624.1</ele>
        <time>2019-08-11T18:39:09Z</time>
      </trkpt>
      <trkpt lat="39.0017690" lon="-3.9379400">
        <ele>624.1</ele>
        <time>2019-08-11T18:39:10Z</time>
      </trkpt>
      <trkpt lat="39.0017070" lon="-3.9379330">
        <ele>624.1</ele>
        <time>2019-08-11T18:39:11Z</time>
      </trkpt>
      <trkpt lat="39.0016450" lon="-3.9379270">
        <ele>624.1</ele>
        <time>2019-08-11T18:39:12Z</time>
      </trkpt>
      <trkpt lat="39.0015830" lon="-3.9379200">
        <ele>624.1</ele>
        <time>2019-08-11T18:39:13Z</time>
      </trkpt>
      <trkpt lat="39.0015210" lon="-3.9379130">
        <ele>624.1</ele>
        <time>2019-08-11T18:39:14Z</time>
      </trkpt>
      <trkpt lat="39.0014600" lon="-3.9379060">
        <ele>624.1</ele>
        <time>2019-08-11T18:39:15Z</time>
      </trkpt>
      <trkpt lat="39.0013990" lon="-3.9379000">
        <ele>624.1</ele>
        <time>2019-08-11T18:39:16Z</time>
      </trkpt>
      <trkpt lat="39.0013390" lon="-3.9378930">
        <ele>624.1</ele>
        <time>2019-08-11T18:39:17Z</time>
      </trkpt>
      <trkpt lat="39.0012780" lon="-3.9378860">
        <ele>624.1</ele>
        <time>2019-08-11T18:39:18Z</time>
      </trkpt>
      <trkpt lat="39.0012180" lon="-3.9378800">
        <ele>624.1</ele>
        <time>2019-08-11T18:39:19Z</time>
      </trkpt>
      <trkpt lat="39.0011580" lon="-3.9378730">
        <ele>624.1</ele>
        <time>2019-08-11T18:39:20Z</time>
      </trkpt>
      <trkpt lat="39.0010990" lon="-3.9378670">
        <ele>624.2</ele>
        <time>2019-08-11T18:39:21Z</time>
      </trkpt>
      <trkpt lat="39.0010400" lon="-3.9378600">
        <ele>624.2</ele>
        <time>2019-08-11T18:39:22Z</time>
      </trkpt>
      <trkpt lat="39.0009810" lon="-3.9378540">
        <ele>624.3</ele>
        <time>2019-08-11T18:39:23Z</time>
      </trkpt>
      <trkpt lat="39.0009230" lon="-3.9378470">
        <ele>624.5</ele>
        <time>2019-08-11T18:39:24Z</time>
      </trkpt>
      <trkpt lat="39.0008650" lon="-3.9378410">
        <ele>624.8</ele>
        <time>2019-08-11T18:39:25Z</time>
      </trkpt>
      <trkpt lat="39.0008070" lon="-3.9378340">
        <ele>625.1</ele>
        <time>2019-08-11T18:39:26Z</time>
      </trkpt>
      <trkpt lat="39.0007500" lon="-3.9378270">
        <ele>625.4</ele>
        <time>2019-08-11T18:39:27Z</time>
      </trkpt>
      <trkpt lat="39.0006930" lon="-3.9378200">
        <ele>625.7</ele>
        <time>2019-08-11T18:39:28Z</time>
      </trkpt>
      <trkpt lat="39.0006360" lon="-3.9378130">
        <ele>625.9</ele>
        <time>2019-08-11T18:39:29Z</time>
      </trkpt>
      <trkpt lat="39.0005800" lon="-3.9378050">
        <ele>626.0</ele>
        <time>2019-08-11T18:39:30Z</time>
      </trkpt>
      <trkpt lat="39.0005240" lon="-3.9377970">
        <ele>626.0</ele>
        <time>2019-08-11T18:39:31Z</time>
      </trkpt>
      <trkpt lat="39.0004680" lon="-3.9377890">
        <ele>626.0</ele>
        <time>2019-08-11T18:39:32Z</time>
      </trkpt>
      <trkpt lat="39.0004130" lon="-3.9377810">
        <ele>625.9</ele>
        <time>2019-08-11T18:39:33Z</time>
      </trkpt>
      <trkpt lat="39.0003580" lon="-3.9377740">
        <ele>625.8</ele>
        <time>2019-08-11T18:39:34Z</time>
      </trkpt>
      <trkpt lat="39.0003030" lon="-3.9377670">
        <ele>625.7</ele>
        <time>2019-08-11T18:39:35Z</time>
      </trkpt>
      <trkpt lat="39.0002490" lon="-3.9377600">
        <ele>625.6</ele>
        <time>2019-08-11T18:39:36Z</time>
      </trkpt>
      <trkpt lat="39.0001940" lon="-3.9377540">
        <ele>625.6</ele>
        <time>2019-08-11T18:39:37Z</time>
      </trkpt>
      <trkpt lat="39.0001400" lon="-3.9377490">
        <ele>625.6</ele>
        <time>2019-08-11T18:39:38Z</time>
      </trkpt>
      <trkpt lat="39.0000870" lon="-3.9377440">
        <ele>625.8</ele>
        <time>2019-08-11T18:39:39Z</time>
      </trkpt>
      <trkpt lat="39.0000330" lon="-3.9377400">
        <ele>625.9</ele>
        <time>2019-08-11T18:39:40Z</time>
      </trkpt>
      <trkpt lat="38.9999790" lon="-3.9377360">
        <ele>626.0</ele>
        <time>2019-08-11T18:39:41Z</time>
      </trkpt>
      <trkpt lat="38.9999260" lon="-3.9377320">
        <ele>626.1</ele>
        <time>2019-08-11T18:39:42Z</time>
      </trkpt>
      <trkpt lat="38.9998730" lon="-3.9377280">
        <ele>626.1</ele>
        <time>2019-08-11T18:39:43Z</time>
      </trkpt>
      <trkpt lat="38.9998190" lon="-3.9377250">
        <ele>626.1</ele>
        <time>2019-08-11T18:39:44Z</time>
      </trkpt>
      <trkpt lat="38.9997660" lon="-3.9377210">
        <ele>626.1</ele>
        <time>2019-08-11T18:39:45Z</time>
      </trkpt>
      <trkpt lat="38.9997130" lon="-3.9377160">
        <ele>626.1</ele>
        <time>2019-08-11T18:39:46Z</time>
      </trkpt>
      <trkpt lat="38.9996590" lon="-3.9377120">
        <ele>626.1</ele>
        <time>2019-08-11T18:39:47Z</time>
      </trkpt>
      <trkpt lat="38.9996060" lon="-3.9377070">
        <ele>626.1</ele>
        <time>2019-08-11T18:39:48Z</time>
      </trkpt>
      <trkpt lat="38.9995520" lon="-3.9377010">
        <ele>626.1</ele>
        <time>2019-08-11T18:39:49Z</time>
      </trkpt>
      <trkpt lat="38.9994980" lon="-3.9376960">
        <ele>626.1</ele>
        <time>2019-08-11T18:39:50Z</time>
      </trkpt>
      <trkpt lat="38.9994450" lon="-3.9376890">
        <ele>626.1</ele>
        <time>2019-08-11T18:39:51Z</time>
      </trkpt>
      <trkpt lat="38.9993910" lon="-3.9376830">
        <ele>626.1</ele>
        <time>2019-08-11T18:39:52Z</time>
      </trkpt>
      <trkpt lat="38.9993380" lon="-3.9376780">
        <ele>626.1</ele>
        <time>2019-08-11T18:39:53Z</time>
      </trkpt>
      <trkpt lat="38.9992830" lon="-3.9376740">
        <ele>626.0</ele>
        <time>2019-08-11T18:39:54Z</time>
      </trkpt>
      <trkpt lat="38.9992290" lon="-3.9376750">
        <ele>626.0</ele>
        <time>2019-08-11T18:39:55Z</time>
      </trkpt>
      <trkpt lat="38.9991730" lon="-3.9376790">
        <ele>625.9</ele>
        <time>2019-08-11T18:39:56Z</time>
      </trkpt>
      <trkpt lat="38.9991180" lon="-3.9376870">
        <ele>625.9</ele>
        <time>2019-08-11T18:39:57Z</time>
      </trkpt>
      <trkpt lat="38.9990620" lon="-3.9376960">
        <ele>625.9</ele>
        <time>2019-08-11T18:39:58Z</time>
      </trkpt>
      <trkpt lat="38.9990070" lon="-3.9377050">
        <ele>626.0</ele>
        <time>2019-08-11T18:39:59Z</time>
      </trkpt>
      <trkpt lat="38.9989530" lon="-3.9377120">
        <ele>626.2</ele>
        <time>2019-08-11T18:40:00Z</time>
      </trkpt>
      <trkpt lat="38.9989000" lon="-3.9377160">
        <ele>626.5</ele>
        <time>2019-08-11T18:40:01Z</time>
      </trkpt>
      <trkpt lat="38.9988490" lon="-3.9377150">
        <ele>626.8</ele>
        <time>2019-08-11T18:40:02Z</time>
      </trkpt>
      <trkpt lat="38.9988010" lon="-3.9377070">
        <ele>627.3</ele>
        <time>2019-08-11T18:40:03Z</time>
      </trkpt>
      <trkpt lat="38.9987540" lon="-3.9376920">
        <ele>627.5</ele>
        <time>2019-08-11T18:40:04Z</time>
      </trkpt>
      <trkpt lat="38.9987110" lon="-3.9376730">
        <ele>627.6</ele>
        <time>2019-08-11T18:40:05Z</time>
      </trkpt>
      <trkpt lat="38.9986680" lon="-3.9376530">
        <ele>627.9</ele>
        <time>2019-08-11T18:40:06Z</time>
      </trkpt>
      <trkpt lat="38.9986270" lon="-3.9376360">
        <ele>628.3</ele>
        <time>2019-08-11T18:40:07Z</time>
      </trkpt>
      <trkpt lat="38.9985870" lon="-3.9376270">
        <ele>628.7</ele>
        <time>2019-08-11T18:40:08Z</time>
      </trkpt>
      <trkpt lat="38.9985480" lon="-3.9376280">
        <ele>629.0</ele>
        <time>2019-08-11T18:40:09Z</time>
      </trkpt>
      <trkpt lat="38.9985080" lon="-3.9376360">
        <ele>629.4</ele>
        <time>2019-08-11T18:40:10Z</time>
      </trkpt>
      <trkpt lat="38.9984680" lon="-3.9376480">
        <ele>629.8</ele>
        <time>2019-08-11T18:40:11Z</time>
      </trkpt>
      <trkpt lat="38.9984270" lon="-3.9376600">
        <ele>630.1</ele>
        <time>2019-08-11T18:40:12Z</time>
      </trkpt>
      <trkpt lat="38.9983840" lon="-3.9376690">
        <ele>630.5</ele>
        <time>2019-08-11T18:40:13Z</time>
      </trkpt>
      <trkpt lat="38.9983410" lon="-3.9376750">
        <ele>630.7</ele>
        <time>2019-08-11T18:40:14Z</time>
      </trkpt>
      <trkpt lat="38.9982980" lon="-3.9376770">
        <ele>630.8</ele>
        <time>2019-08-11T18:40:15Z</time>
      </trkpt>
      <trkpt lat="38.9982550" lon="-3.9376760">
        <ele>630.9</ele>
        <time>2019-08-11T18:40:16Z</time>
      </trkpt>
      <trkpt lat="38.9982140" lon="-3.9376720">
        <ele>631.0</ele>
        <time>2019-08-11T18:40:17Z</time>
      </trkpt>
      <trkpt lat="38.9981750" lon="-3.9376630">
        <ele>631.1</ele>
        <time>2019-08-11T18:40:18Z</time>
      </trkpt>
      <trkpt lat="38.9981400" lon="-3.9376470">
        <ele>631.1</ele>
        <time>2019-08-11T18:40:19Z</time>
      </trkpt>
      <trkpt lat="38.9981100" lon="-3.9376230">
        <ele>631.1</ele>
        <time>2019-08-11T18:40:20Z</time>
      </trkpt>
      <trkpt lat="38.9980870" lon="-3.9375900">
        <ele>631.2</ele>
        <time>2019-08-11T18:40:21Z</time>
      </trkpt>
      <trkpt lat="38.9980710" lon="-3.9375510">
        <ele>631.3</ele>
        <time>2019-08-11T18:40:22Z</time>
      </trkpt>
      <trkpt lat="38.9980620" lon="-3.9375100">
        <ele>631.4</ele>
        <time>2019-08-11T18:40:23Z</time>
      </trkpt>
      <trkpt lat="38.9980610" lon="-3.9374700">
        <ele>631.4</ele>
        <time>2019-08-11T18:40:24Z</time>
      </trkpt>
      <trkpt lat="38.9980650" lon="-3.9374260">
        <ele>631.4</ele>
        <time>2019-08-11T18:40:25Z</time>
      </trkpt>
      <trkpt lat="38.9980720" lon="-3.9373750">
        <ele>631.5</ele>
        <time>2019-08-11T18:40:26Z</time>
      </trkpt>
      <trkpt lat="38.9980730" lon="-3.9373160">
        <ele>631.5</ele>
        <time>2019-08-11T18:40:27Z</time>
      </trkpt>
      <trkpt lat="38.9980650" lon="-3.9372550">
        <ele>631.6</ele>
        <time>2019-08-11T18:40:28Z</time>
      </trkpt>
      <trkpt lat="38.9980490" lon="-3.9371920">
        <ele>631.6</ele>
        <time>2019-08-11T18:40:29Z</time>
      </trkpt>
      <trkpt lat="38.9980290" lon="-3.9371300">
        <ele>631.7</ele>
        <time>2019-08-11T18:40:30Z</time>
      </trkpt>
      <trkpt lat="38.9980070" lon="-3.9370660">
        <ele>631.7</ele>
        <time>2019-08-11T18:40:31Z</time>
      </trkpt>
      <trkpt lat="38.9979840" lon="-3.9370020">
        <ele>631.7</ele>
        <time>2019-08-11T18:40:32Z</time>
      </trkpt>
      <trkpt lat="38.9979620" lon="-3.9369360">
        <ele>631.7</ele>
        <time>2019-08-11T18:40:33Z</time>
      </trkpt>
      <trkpt lat="38.9979420" lon="-3.9368670">
        <ele>631.6</ele>
        <time>2019-08-11T18:40:34Z</time>
      </trkpt>
      <trkpt lat="38.9979240" lon="-3.9367970">
        <ele>631.6</ele>
        <time>2019-08-11T18:40:35Z</time>
      </trkpt>
      <trkpt lat="38.9979060" lon="-3.9367250">
        <ele>631.6</ele>
        <time>2019-08-11T18:40:36Z</time>
      </trkpt>
      <trkpt lat="38.9978890" lon="-3.9366520">
        <ele>631.7</ele>
        <time>2019-08-11T18:40:37Z</time>
      </trkpt>
      <trkpt lat="38.9978720" lon="-3.9365790">
        <ele>631.7</ele>
        <time>2019-08-11T18:40:38Z</time>
      </trkpt>
      <trkpt lat="38.9978540" lon="-3.9365050">
        <ele>631.8</ele>
        <time>2019-08-11T18:40:39Z</time>
      </trkpt>
      <trkpt lat="38.9978360" lon="-3.9364310">
        <ele>631.9</ele>
        <time>2019-08-11T18:40:40Z</time>
      </trkpt>
      <trkpt lat="38.9978180" lon="-3.9363570">
        <ele>632.1</ele>
        <time>2019-08-11T18:40:41Z</time>
      </trkpt>
      <trkpt lat="38.9978000" lon="-3.9362820">
        <ele>632.2</ele>
        <time>2019-08-11T18:40:42Z</time>
      </trkpt>
      <trkpt lat="38.9977820" lon="-3.9362070">
        <ele>632.3</ele>
        <time>2019-08-11T18:40:43Z</time>
      </trkpt>
      <trkpt lat="38.9977630" lon="-3.9361320">
        <ele>632.3</ele>
        <time>2019-08-11T18:40:44Z</time>
      </trkpt>
      <trkpt lat="38.9977450" lon="-3.9360560">
        <ele>632.4</ele>
        <time>2019-08-11T18:40:45Z</time>
      </trkpt>
      <trkpt lat="38.9977260" lon="-3.9359800">
        <ele>632.6</ele>
        <time>2019-08-11T18:40:46Z</time>
      </trkpt>
      <trkpt lat="38.9977070" lon="-3.9359030">
        <ele>632.7</ele>
        <time>2019-08-11T18:40:47Z</time>
      </trkpt>
      <trkpt lat="38.9976870" lon="-3.9358260">
        <ele>632.9</ele>
        <time>2019-08-11T18:40:48Z</time>
      </trkpt>
      <trkpt lat="38.9976550" lon="-3.9356960">
        <ele>633.0</ele>
        <time>2019-08-11T18:40:49Z</time>
      </trkpt>
      <trkpt lat="38.9976410" lon="-3.9356440">
        <ele>633.1</ele>
        <time>2019-08-11T18:40:50Z</time>
      </trkpt>
      <trkpt lat="38.9976280" lon="-3.9355920">
        <ele>633.1</ele>
        <time>2019-08-11T18:40:51Z</time>
      </trkpt>
      <trkpt lat="38.9976090" lon="-3.9355130">
        <ele>633.1</ele>
        <time>2019-08-11T18:40:52Z</time>
      </trkpt>
      <trkpt lat="38.9975880" lon="-3.9354330">
        <ele>633.1</ele>
        <time>2019-08-11T18:40:53Z</time>
      </trkpt>
      <trkpt lat="38.9975540" lon="-3.9352990">
        <ele>633.1</ele>
        <time>2019-08-11T18:40:54Z</time>
      </trkpt>
      <trkpt lat="38.9975410" lon="-3.9352450">
        <ele>633.1</ele>
        <time>2019-08-11T18:40:55Z</time>
      </trkpt>
      <trkpt lat="38.9975270" lon="-3.9351910">
        <ele>633.1</ele>
        <time>2019-08-11T18:40:56Z</time>
      </trkpt>
      <trkpt lat="38.9975070" lon="-3.9351100">
        <ele>633.1</ele>
        <time>2019-08-11T18:40:57Z</time>
      </trkpt>
      <trkpt lat="38.9974860" lon="-3.9350280">
        <ele>633.1</ele>
        <time>2019-08-11T18:40:58Z</time>
      </trkpt>
      <trkpt lat="38.9974650" lon="-3.9349460">
        <ele>633.0</ele>
        <time>2019-08-11T18:40:59Z</time>
      </trkpt>
      <trkpt lat="38.9974440" lon="-3.9348640">
        <ele>632.9</ele>
        <time>2019-08-11T18:41:00Z</time>
      </trkpt>
      <trkpt lat="38.9974240" lon="-3.9347830">
        <ele>632.7</ele>
        <time>2019-08-11T18:41:01Z</time>
      </trkpt>
      <trkpt lat="38.9974030" lon="-3.9347010">
        <ele>632.6</ele>
        <time>2019-08-11T18:41:02Z</time>
      </trkpt>
      <trkpt lat="38.9973820" lon="-3.9346190">
        <ele>632.5</ele>
        <time>2019-08-11T18:41:03Z</time>
      </trkpt>
      <trkpt lat="38.9973620" lon="-3.9345380">
        <ele>632.4</ele>
        <time>2019-08-11T18:41:04Z</time>
      </trkpt>
      <trkpt lat="38.9973410" lon="-3.9344570">
        <ele>632.4</ele>
        <time>2019-08-11T18:41:05Z</time>
      </trkpt>
      <trkpt lat="38.9973200" lon="-3.9343760">
        <ele>632.3</ele>
        <time>2019-08-11T18:41:06Z</time>
      </trkpt>
      <trkpt lat="38.9973000" lon="-3.9342950">
        <ele>632.3</ele>
        <time>2019-08-11T18:41:07Z</time>
      </trkpt>
      <trkpt lat="38.9972790" lon="-3.9342150">
        <ele>632.3</ele>
        <time>2019-08-11T18:41:08Z</time>
      </trkpt>
      <trkpt lat="38.9972590" lon="-3.9341340">
        <ele>632.3</ele>
        <time>2019-08-11T18:41:09Z</time>
      </trkpt>
      <trkpt lat="38.9972380" lon="-3.9340530">
        <ele>632.3</ele>
        <time>2019-08-11T18:41:10Z</time>
      </trkpt>
      <trkpt lat="38.9972170" lon="-3.9339720">
        <ele>632.3</ele>
        <time>2019-08-11T18:41:11Z</time>
      </trkpt>
      <trkpt lat="38.9971970" lon="-3.9338910">
        <ele>632.3</ele>
        <time>2019-08-11T18:41:12Z</time>
      </trkpt>
      <trkpt lat="38.9971760" lon="-3.9338100">
        <ele>632.3</ele>
        <time>2019-08-11T18:41:13Z</time>
      </trkpt>
      <trkpt lat="38.9971550" lon="-3.9337290">
        <ele>632.3</ele>
        <time>2019-08-11T18:41:14Z</time>
      </trkpt>
      <trkpt lat="38.9971340" lon="-3.9336480">
        <ele>632.3</ele>
        <time>2019-08-11T18:41:15Z</time>
      </trkpt>
      <trkpt lat="38.9971140" lon="-3.9335660">
        <ele>632.2</ele>
        <time>2019-08-11T18:41:16Z</time>
      </trkpt>
      <trkpt lat="38.9970930" lon="-3.9334850">
        <ele>632.2</ele>
        <time>2019-08-11T18:41:17Z</time>
      </trkpt>
      <trkpt lat="38.9970720" lon="-3.9334030">
        <ele>632.3</ele>
        <time>2019-08-11T18:41:18Z</time>
      </trkpt>
      <trkpt lat="38.9970510" lon="-3.9333210">
        <ele>632.5</ele>
        <time>2019-08-11T18:41:19Z</time>
      </trkpt>
      <trkpt lat="38.9970290" lon="-3.9332390">
        <ele>632.8</ele>
        <time>2019-08-11T18:41:20Z</time>
      </trkpt>
      <trkpt lat="38.9970080" lon="-3.9331570">
        <ele>633.0</ele>
        <time>2019-08-11T18:41:21Z</time>
      </trkpt>
      <trkpt lat="38.9969870" lon="-3.9330750">
        <ele>633.2</ele>
        <time>2019-08-11T18:41:22Z</time>
      </trkpt>
      <trkpt lat="38.9969660" lon="-3.9329920">
        <ele>633.4</ele>
        <time>2019-08-11T18:41:23Z</time>
      </trkpt>
      <trkpt lat="38.9969450" lon="-3.9329100">
        <ele>633.4</ele>
        <time>2019-08-11T18:41:24Z</time>
      </trkpt>
      <trkpt lat="38.9969240" lon="-3.9328270">
        <ele>633.7</ele>
        <time>2019-08-11T18:41:25Z</time>
      </trkpt>
      <trkpt lat="38.9969020" lon="-3.9327450">
        <ele>634.2</ele>
        <time>2019-08-11T18:41:26Z</time>
      </trkpt>
      <trkpt lat="38.9968810" lon="-3.9326620">
        <ele>634.5</ele>
        <time>2019-08-11T18:41:27Z</time>
      </trkpt>
      <trkpt lat="38.9968600" lon="-3.9325790">
        <ele>634.8</ele>
        <time>2019-08-11T18:41:28Z</time>
      </trkpt>
      <trkpt lat="38.9968380" lon="-3.9324960">
        <ele>634.9</ele>
        <time>2019-08-11T18:41:29Z</time>
      </trkpt>
      <trkpt lat="38.9968170" lon="-3.9324140">
        <ele>635.0</ele>
        <time>2019-08-11T18:41:30Z</time>
      </trkpt>
      <trkpt lat="38.9967960" lon="-3.9323310">
        <ele>635.0</ele>
        <time>2019-08-11T18:41:31Z</time>
      </trkpt>
      <trkpt lat="38.9967740" lon="-3.9322480">
        <ele>635.0</ele>
        <time>2019-08-11T18:41:32Z</time>
      </trkpt>
      <trkpt lat="38.9967530" lon="-3.9321660">
        <ele>635.0</ele>
        <time>2019-08-11T18:41:33Z</time>
      </trkpt>
      <trkpt lat="38.9967320" lon="-3.9320830">
        <ele>635.0</ele>
        <time>2019-08-11T18:41:34Z</time>
      </trkpt>
      <trkpt lat="38.9967110" lon="-3.9320010">
        <ele>635.0</ele>
        <time>2019-08-11T18:41:35Z</time>
      </trkpt>
      <trkpt lat="38.9966900" lon="-3.9319200">
        <ele>635.0</ele>
        <time>2019-08-11T18:41:36Z</time>
      </trkpt>
      <trkpt lat="38.9966700" lon="-3.9318390">
        <ele>635.0</ele>
        <time>2019-08-11T18:41:37Z</time>
      </trkpt>
      <trkpt lat="38.9966490" lon="-3.9317580">
        <ele>635.0</ele>
        <time>2019-08-11T18:41:38Z</time>
      </trkpt>
      <trkpt lat="38.9966290" lon="-3.9316770">
        <ele>635.0</ele>
        <time>2019-08-11T18:41:39Z</time>
      </trkpt>
      <trkpt lat="38.9966080" lon="-3.9315970">
        <ele>635.0</ele>
        <time>2019-08-11T18:41:40Z</time>
      </trkpt>
      <trkpt lat="38.9965870" lon="-3.9315150">
        <ele>634.9</ele>
        <time>2019-08-11T18:41:41Z</time>
      </trkpt>
      <trkpt lat="38.9965660" lon="-3.9314340">
        <ele>634.6</ele>
        <time>2019-08-11T18:41:42Z</time>
      </trkpt>
      <trkpt lat="38.9965440" lon="-3.9313510">
        <ele>634.4</ele>
        <time>2019-08-11T18:41:43Z</time>
      </trkpt>
      <trkpt lat="38.9965220" lon="-3.9312670">
        <ele>634.2</ele>
        <time>2019-08-11T18:41:44Z</time>
      </trkpt>
      <trkpt lat="38.9964980" lon="-3.9311810">
        <ele>634.0</ele>
        <time>2019-08-11T18:41:45Z</time>
      </trkpt>
      <trkpt lat="38.9964740" lon="-3.9310930">
        <ele>633.8</ele>
        <time>2019-08-11T18:41:46Z</time>
      </trkpt>
      <trkpt lat="38.9964490" lon="-3.9310040">
        <ele>633.6</ele>
        <time>2019-08-11T18:41:47Z</time>
      </trkpt>
      <trkpt lat="38.9964250" lon="-3.9309130">
        <ele>633.3</ele>
        <time>2019-08-11T18:41:48Z</time>
      </trkpt>
      <trkpt lat="38.9964010" lon="-3.9308210">
        <ele>633.1</ele>
        <time>2019-08-11T18:41:49Z</time>
      </trkpt>
      <trkpt lat="38.9963790" lon="-3.9307270">
        <ele>632.9</ele>
        <time>2019-08-11T18:41:50Z</time>
      </trkpt>
      <trkpt lat="38.9963580" lon="-3.9306320">
        <ele>632.7</ele>
        <time>2019-08-11T18:41:51Z</time>
      </trkpt>
      <trkpt lat="38.9963370" lon="-3.9305370">
        <ele>632.5</ele>
        <time>2019-08-11T18:41:52Z</time>
      </trkpt>
      <trkpt lat="38.9963160" lon="-3.9304410">
        <ele>632.3</ele>
        <time>2019-08-11T18:41:53Z</time>
      </trkpt>
      <trkpt lat="38.9962910" lon="-3.9303450">
        <ele>632.1</ele>
        <time>2019-08-11T18:41:54Z</time>
      </trkpt>
      <trkpt lat="38.9962630" lon="-3.9302500">
        <ele>631.8</ele>
        <time>2019-08-11T18:41:55Z</time>
      </trkpt>
      <trkpt lat="38.9962310" lon="-3.9301560">
        <ele>631.5</ele>
        <time>2019-08-11T18:41:56Z</time>
      </trkpt>
      <trkpt lat="38.9961950" lon="-3.9300620">
        <ele>631.2</ele>
        <time>2019-08-11T18:41:57Z</time>
      </trkpt>
      <trkpt lat="38.9961560" lon="-3.9299690">
        <ele>631.0</ele>
        <time>2019-08-11T18:41:58Z</time>
      </trkpt>
      <trkpt lat="38.9961170" lon="-3.9298800">
        <ele>630.8</ele>
        <time>2019-08-11T18:41:59Z</time>
      </trkpt>
      <trkpt lat="38.9960790" lon="-3.9297940">
        <ele>630.6</ele>
        <time>2019-08-11T18:42:00Z</time>
      </trkpt>
      <trkpt lat="38.9960440" lon="-3.9297150">
        <ele>630.4</ele>
        <time>2019-08-11T18:42:01Z</time>
      </trkpt>
      <trkpt lat="38.9960110" lon="-3.9296410">
        <ele>630.3</ele>
        <time>2019-08-11T18:42:02Z</time>
      </trkpt>
      <trkpt lat="38.9959820" lon="-3.9295740">
        <ele>630.2</ele>
        <time>2019-08-11T18:42:03Z</time>
      </trkpt>
      <trkpt lat="38.9959560" lon="-3.9295140">
        <ele>630.1</ele>
        <time>2019-08-11T18:42:04Z</time>
      </trkpt>
      <trkpt lat="38.9959340" lon="-3.9294620">
        <ele>630.1</ele>
        <time>2019-08-11T18:42:05Z</time>
      </trkpt>
      <trkpt lat="38.9959150" lon="-3.9294200">
        <ele>630.0</ele>
        <time>2019-08-11T18:42:06Z</time>
      </trkpt>
      <trkpt lat="38.9958990" lon="-3.9293900">
        <ele>630.0</ele>
        <time>2019-08-11T18:42:07Z</time>
      </trkpt>
      <trkpt lat="38.9958860" lon="-3.9293730">
        <ele>630.0</ele>
        <time>2019-08-11T18:42:08Z</time>
      </trkpt>
      <trkpt lat="38.9958630" lon="-3.9293140">
        <ele>629.9</ele>
        <time>2019-08-11T18:42:09Z</time>
      </trkpt>
      <trkpt lat="38.9958580" lon="-3.9292120">
        <ele>630.0</ele>
        <time>2019-08-11T18:42:10Z</time>
      </trkpt>
      <trkpt lat="38.9958780" lon="-3.9291690">
        <ele>630.1</ele>
        <time>2019-08-11T18:42:24Z</time>
      </trkpt>
      <trkpt lat="38.9958970" lon="-3.9291250">
        <ele>630.1</ele>
        <time>2019-08-11T18:42:25Z</time>
      </trkpt>
      <trkpt lat="38.9959120" lon="-3.9290480">
        <ele>630.2</ele>
        <time>2019-08-11T18:42:26Z</time>
      </trkpt>
      <trkpt lat="38.9959180" lon="-3.9289660">
        <ele>630.2</ele>
        <time>2019-08-11T18:42:27Z</time>
      </trkpt>
      <trkpt lat="38.9959190" lon="-3.9288800">
        <ele>630.2</ele>
        <time>2019-08-11T18:42:28Z</time>
      </trkpt>
      <trkpt lat="38.9959160" lon="-3.9287940">
        <ele>630.2</ele>
        <time>2019-08-11T18:42:29Z</time>
      </trkpt>
      <trkpt lat="38.9959130" lon="-3.9287090">
        <ele>630.1</ele>
        <time>2019-08-11T18:42:30Z</time>
      </trkpt>
      <trkpt lat="38.9959110" lon="-3.9286250">
        <ele>630.0</ele>
        <time>2019-08-11T18:42:31Z</time>
      </trkpt>
      <trkpt lat="38.9959100" lon="-3.9285430">
        <ele>629.8</ele>
        <time>2019-08-11T18:42:32Z</time>
      </trkpt>
      <trkpt lat="38.9959130" lon="-3.9284070">
        <ele>629.5</ele>
        <time>2019-08-11T18:42:33Z</time>
      </trkpt>
      <trkpt lat="38.9959160" lon="-3.9283520">
        <ele>629.3</ele>
        <time>2019-08-11T18:42:34Z</time>
      </trkpt>
      <trkpt lat="38.9959180" lon="-3.9282980">
        <ele>629.2</ele>
        <time>2019-08-11T18:42:35Z</time>
      </trkpt>
      <trkpt lat="38.9959230" lon="-3.9282150">
        <ele>629.0</ele>
        <time>2019-08-11T18:42:36Z</time>
      </trkpt>
      <trkpt lat="38.9959270" lon="-3.9281300">
        <ele>628.9</ele>
        <time>2019-08-11T18:42:37Z</time>
      </trkpt>
      <trkpt lat="38.9959280" lon="-3.9279800">
        <ele>628.9</ele>
        <time>2019-08-11T18:42:38Z</time>
      </trkpt>
      <trkpt lat="38.9959270" lon="-3.9279190">
        <ele>628.9</ele>
        <time>2019-08-11T18:42:39Z</time>
      </trkpt>
      <trkpt lat="38.9959250" lon="-3.9278570">
        <ele>628.9</ele>
        <time>2019-08-11T18:42:40Z</time>
      </trkpt>
      <trkpt lat="38.9959150" lon="-3.9277640">
        <ele>628.8</ele>
        <time>2019-08-11T18:42:41Z</time>
      </trkpt>
      <trkpt lat="38.9958940" lon="-3.9276760">
        <ele>628.7</ele>
        <time>2019-08-11T18:42:42Z</time>
      </trkpt>
      <trkpt lat="38.9958730" lon="-3.9275880">
        <ele>628.7</ele>
        <time>2019-08-11T18:42:43Z</time>
      </trkpt>
      <trkpt lat="38.9958410" lon="-3.9275060">
        <ele>628.7</ele>
        <time>2019-08-11T18:42:44Z</time>
      </trkpt>
      <trkpt lat="38.9958050" lon="-3.9274260">
        <ele>628.6</ele>
        <time>2019-08-11T18:42:45Z</time>
      </trkpt>
      <trkpt lat="38.9957670" lon="-3.9273470">
        <ele>628.6</ele>
        <time>2019-08-11T18:42:46Z</time>
      </trkpt>
      <trkpt lat="38.9957040" lon="-3.9272150">
        <ele>628.6</ele>
        <time>2019-08-11T18:42:47Z</time>
      </trkpt>
      <trkpt lat="38.9956790" lon="-3.9271620">
        <ele>628.5</ele>
        <time>2019-08-11T18:42:48Z</time>
      </trkpt>
      <trkpt lat="38.9956540" lon="-3.9271090">
        <ele>628.5</ele>
        <time>2019-08-11T18:42:49Z</time>
      </trkpt>
      <trkpt lat="38.9956150" lon="-3.9270300">
        <ele>628.4</ele>
        <time>2019-08-11T18:42:50Z</time>
      </trkpt>
      <trkpt lat="38.9955760" lon="-3.9269530">
        <ele>628.4</ele>
        <time>2019-08-11T18:42:51Z</time>
      </trkpt>
      <trkpt lat="38.9955090" lon="-3.9268250">
        <ele>628.3</ele>
        <time>2019-08-11T18:42:52Z</time>
      </trkpt>
      <trkpt lat="38.9954810" lon="-3.9267750">
        <ele>628.3</ele>
        <time>2019-08-11T18:42:53Z</time>
      </trkpt>
      <trkpt lat="38.9954540" lon="-3.9267240">
        <ele>628.3</ele>
        <time>2019-08-11T18:42:54Z</time>
      </trkpt>
      <trkpt lat="38.9954120" lon="-3.9266480">
        <ele>628.3</ele>
        <time>2019-08-11T18:42:55Z</time>
      </trkpt>
      <trkpt lat="38.9953700" lon="-3.9265710">
        <ele>628.3</ele>
        <time>2019-08-11T18:42:56Z</time>
      </trkpt>
      <trkpt lat="38.9953290" lon="-3.9264920">
        <ele>628.3</ele>
        <time>2019-08-11T18:42:57Z</time>
      </trkpt>
      <trkpt lat="38.9952890" lon="-3.9264120">
        <ele>628.2</ele>
        <time>2019-08-11T18:42:58Z</time>
      </trkpt>
      <trkpt lat="38.9952500" lon="-3.9263320">
        <ele>627.7</ele>
        <time>2019-08-11T18:42:59Z</time>
      </trkpt>
      <trkpt lat="38.9952110" lon="-3.9262520">
        <ele>627.3</ele>
        <time>2019-08-11T18:43:00Z</time>
      </trkpt>
      <trkpt lat="38.9951710" lon="-3.9261740">
        <ele>626.9</ele>
        <time>2019-08-11T18:43:01Z</time>
      </trkpt>
      <trkpt lat="38.9951310" lon="-3.9260970">
        <ele>626.6</ele>
        <time>2019-08-11T18:43:02Z</time>
      </trkpt>
      <trkpt lat="38.9950900" lon="-3.9260200">
        <ele>626.3</ele>
        <time>2019-08-11T18:43:03Z</time>
      </trkpt>
      <trkpt lat="38.9950480" lon="-3.9259440">
        <ele>626.3</ele>
        <time>2019-08-11T18:43:04Z</time>
      </trkpt>
      <trkpt lat="38.9950070" lon="-3.9258680">
        <ele>626.2</ele>
        <time>2019-08-11T18:43:05Z</time>
      </trkpt>
      <trkpt lat="38.9949640" lon="-3.9257920">
        <ele>626.2</ele>
        <time>2019-08-11T18:43:06Z</time>
      </trkpt>
      <trkpt lat="38.9949210" lon="-3.9257150">
        <ele>626.3</ele>
        <time>2019-08-11T18:43:07Z</time>
      </trkpt>
      <trkpt lat="38.9948770" lon="-3.9256390">
        <ele>626.3</ele>
        <time>2019-08-11T18:43:08Z</time>
      </trkpt>
      <trkpt lat="38.9948330" lon="-3.9255620">
        <ele>626.4</ele>
        <time>2019-08-11T18:43:09Z</time>
      </trkpt>
      <trkpt lat="38.9947890" lon="-3.9254850">
        <ele>626.4</ele>
        <time>2019-08-11T18:43:10Z</time>
      </trkpt>
      <trkpt lat="38.9947450" lon="-3.9254090">
        <ele>626.5</ele>
        <time>2019-08-11T18:43:11Z</time>
      </trkpt>
      <trkpt lat="38.9947020" lon="-3.9253330">
        <ele>626.5</ele>
        <time>2019-08-11T18:43:12Z</time>
      </trkpt>
      <trkpt lat="38.9946590" lon="-3.9252580">
        <ele>626.6</ele>
        <time>2019-08-11T18:43:13Z</time>
      </trkpt>
      <trkpt lat="38.9946170" lon="-3.9251830">
        <ele>626.6</ele>
        <time>2019-08-11T18:43:14Z</time>
      </trkpt>
      <trkpt lat="38.9945760" lon="-3.9251090">
        <ele>626.6</ele>
        <time>2019-08-11T18:43:15Z</time>
      </trkpt>
      <trkpt lat="38.9945350" lon="-3.9250350">
        <ele>626.7</ele>
        <time>2019-08-11T18:43:16Z</time>
      </trkpt>
      <trkpt lat="38.9944950" lon="-3.9249610">
        <ele>626.8</ele>
        <time>2019-08-11T18:43:17Z</time>
      </trkpt>
      <trkpt lat="38.9944540" lon="-3.9248870">
        <ele>626.8</ele>
        <time>2019-08-11T18:43:18Z</time>
      </trkpt>
      <trkpt lat="38.9944140" lon="-3.9248130">
        <ele>626.9</ele>
        <time>2019-08-11T18:43:19Z</time>
      </trkpt>
      <trkpt lat="38.9943730" lon="-3.9247390">
        <ele>627.0</ele>
        <time>2019-08-11T18:43:20Z</time>
      </trkpt>
      <trkpt lat="38.9943310" lon="-3.9246650">
        <ele>627.0</ele>
        <time>2019-08-11T18:43:21Z</time>
      </trkpt>
      <trkpt lat="38.9942880" lon="-3.9245920">
        <ele>627.1</ele>
        <time>2019-08-11T18:43:22Z</time>
      </trkpt>
      <trkpt lat="38.9942430" lon="-3.9245200">
        <ele>627.1</ele>
        <time>2019-08-11T18:43:23Z</time>
      </trkpt>
      <trkpt lat="38.9941970" lon="-3.9244490">
        <ele>627.1</ele>
        <time>2019-08-11T18:43:24Z</time>
      </trkpt>
      <trkpt lat="38.9941480" lon="-3.9243790">
        <ele>627.1</ele>
        <time>2019-08-11T18:43:25Z</time>
      </trkpt>
      <trkpt lat="38.9940970" lon="-3.9243100">
        <ele>627.1</ele>
        <time>2019-08-11T18:43:26Z</time>
      </trkpt>
      <trkpt lat="38.9940450" lon="-3.9242420">
        <ele>627.1</ele>
        <time>2019-08-11T18:43:27Z</time>
      </trkpt>
      <trkpt lat="38.9939910" lon="-3.9241770">
        <ele>627.2</ele>
        <time>2019-08-11T18:43:28Z</time>
      </trkpt>
      <trkpt lat="38.9939360" lon="-3.9241130">
        <ele>627.2</ele>
        <time>2019-08-11T18:43:29Z</time>
      </trkpt>
      <trkpt lat="38.9938790" lon="-3.9240520">
        <ele>627.3</ele>
        <time>2019-08-11T18:43:30Z</time>
      </trkpt>
      <trkpt lat="38.9938220" lon="-3.9239920">
        <ele>627.3</ele>
        <time>2019-08-11T18:43:31Z</time>
      </trkpt>
      <trkpt lat="38.9937650" lon="-3.9239320">
        <ele>627.4</ele>
        <time>2019-08-11T18:43:32Z</time>
      </trkpt>
      <trkpt lat="38.9937080" lon="-3.9238730">
        <ele>627.4</ele>
        <time>2019-08-11T18:43:33Z</time>
      </trkpt>
      <trkpt lat="38.9936510" lon="-3.9238120">
        <ele>627.5</ele>
        <time>2019-08-11T18:43:34Z</time>
      </trkpt>
      <trkpt lat="38.9935950" lon="-3.9237510">
        <ele>627.5</ele>
        <time>2019-08-11T18:43:35Z</time>
      </trkpt>
      <trkpt lat="38.9935390" lon="-3.9236900">
        <ele>627.6</ele>
        <time>2019-08-11T18:43:36Z</time>
      </trkpt>
      <trkpt lat="38.9934820" lon="-3.9236280">
        <ele>627.7</ele>
        <time>2019-08-11T18:43:37Z</time>
      </trkpt>
      <trkpt lat="38.9934260" lon="-3.9235660">
        <ele>627.8</ele>
        <time>2019-08-11T18:43:38Z</time>
      </trkpt>
      <trkpt lat="38.9933690" lon="-3.9235040">
        <ele>627.9</ele>
        <time>2019-08-11T18:43:39Z</time>
      </trkpt>
      <trkpt lat="38.9933130" lon="-3.9234440">
        <ele>628.1</ele>
        <time>2019-08-11T18:43:40Z</time>
      </trkpt>
      <trkpt lat="38.9932590" lon="-3.9233850">
        <ele>628.2</ele>
        <time>2019-08-11T18:43:41Z</time>
      </trkpt>
      <trkpt lat="38.9932060" lon="-3.9233290">
        <ele>628.4</ele>
        <time>2019-08-11T18:43:42Z</time>
      </trkpt>
      <trkpt lat="38.9931550" lon="-3.9232740">
        <ele>628.5</ele>
        <time>2019-08-11T18:43:43Z</time>
      </trkpt>
      <trkpt lat="38.9931040" lon="-3.9232200">
        <ele>628.7</ele>
        <time>2019-08-11T18:43:44Z</time>
      </trkpt>
      <trkpt lat="38.9930540" lon="-3.9231670">
        <ele>628.9</ele>
        <time>2019-08-11T18:43:45Z</time>
      </trkpt>
      <trkpt lat="38.9930040" lon="-3.9231150">
        <ele>629.1</ele>
        <time>2019-08-11T18:43:46Z</time>
      </trkpt>
      <trkpt lat="38.9929540" lon="-3.9230630">
        <ele>629.2</ele>
        <time>2019-08-11T18:43:47Z</time>
      </trkpt>
      <trkpt lat="38.9929110" lon="-3.9230150">
        <ele>629.3</ele>
        <time>2019-08-11T18:43:48Z</time>
      </trkpt>
      <trkpt lat="38.9928380" lon="-3.9229350">
        <ele>629.3</ele>
        <time>2019-08-11T18:43:49Z</time>
      </trkpt>
      <trkpt lat="38.9926460" lon="-3.9227380">
        <ele>629.4</ele>
        <time>2019-08-11T18:44:25Z</time>
      </trkpt>
      <trkpt lat="38.9926290" lon="-3.9227220">
        <ele>629.4</ele>
        <time>2019-08-11T18:44:26Z</time>
      </trkpt>
      <trkpt lat="38.9925960" lon="-3.9226890">
        <ele>629.4</ele>
        <time>2019-08-11T18:44:27Z</time>
      </trkpt>
      <trkpt lat="38.9925590" lon="-3.9226520">
        <ele>629.5</ele>
        <time>2019-08-11T18:44:28Z</time>
      </trkpt>
      <trkpt lat="38.9925250" lon="-3.9226210">
        <ele>629.5</ele>
        <time>2019-08-11T18:44:29Z</time>
      </trkpt>
      <trkpt lat="38.9924860" lon="-3.9225890">
        <ele>629.6</ele>
        <time>2019-08-11T18:44:30Z</time>
      </trkpt>
      <trkpt lat="38.9924410" lon="-3.9225570">
        <ele>629.7</ele>
        <time>2019-08-11T18:44:31Z</time>
      </trkpt>
      <trkpt lat="38.9923930" lon="-3.9225240">
        <ele>629.9</ele>
        <time>2019-08-11T18:44:32Z</time>
      </trkpt>
      <trkpt lat="38.9923410" lon="-3.9224920">
        <ele>630.0</ele>
        <time>2019-08-11T18:44:33Z</time>
      </trkpt>
      <trkpt lat="38.9922880" lon="-3.9224600">
        <ele>630.2</ele>
        <time>2019-08-11T18:44:34Z</time>
      </trkpt>
      <trkpt lat="38.9921950" lon="-3.9224100">
        <ele>630.4</ele>
        <time>2019-08-11T18:44:35Z</time>
      </trkpt>
      <trkpt lat="38.9921580" lon="-3.9223890">
        <ele>630.4</ele>
        <time>2019-08-11T18:44:36Z</time>
      </trkpt>
      <trkpt lat="38.9921200" lon="-3.9223690">
        <ele>630.4</ele>
        <time>2019-08-11T18:44:37Z</time>
      </trkpt>
      <trkpt lat="38.9920610" lon="-3.9223380">
        <ele>630.4</ele>
        <time>2019-08-11T18:44:38Z</time>
      </trkpt>
      <trkpt lat="38.9920010" lon="-3.9223070">
        <ele>630.5</ele>
        <time>2019-08-11T18:44:39Z</time>
      </trkpt>
      <trkpt lat="38.9918990" lon="-3.9222540">
        <ele>630.5</ele>
        <time>2019-08-11T18:44:40Z</time>
      </trkpt>
      <trkpt lat="38.9918570" lon="-3.9222330">
        <ele>630.5</ele>
        <time>2019-08-11T18:44:41Z</time>
      </trkpt>
      <trkpt lat="38.9918160" lon="-3.9222110">
        <ele>630.5</ele>
        <time>2019-08-11T18:44:42Z</time>
      </trkpt>
      <trkpt lat="38.9917520" lon="-3.9221760">
        <ele>630.5</ele>
        <time>2019-08-11T18:44:43Z</time>
      </trkpt>
      <trkpt lat="38.9916880" lon="-3.9221410">
        <ele>630.5</ele>
        <time>2019-08-11T18:44:44Z</time>
      </trkpt>
      <trkpt lat="38.9915790" lon="-3.9220830">
        <ele>630.5</ele>
        <time>2019-08-11T18:44:45Z</time>
      </trkpt>
      <trkpt lat="38.9915350" lon="-3.9220590">
        <ele>630.5</ele>
        <time>2019-08-11T18:44:46Z</time>
      </trkpt>
      <trkpt lat="38.9914910" lon="-3.9220360">
        <ele>630.5</ele>
        <time>2019-08-11T18:44:47Z</time>
      </trkpt>
      <trkpt lat="38.9914240" lon="-3.9220020">
        <ele>630.5</ele>
        <time>2019-08-11T18:44:48Z</time>
      </trkpt>
      <trkpt lat="38.9913580" lon="-3.9219690">
        <ele>630.5</ele>
        <time>2019-08-11T18:44:49Z</time>
      </trkpt>
      <trkpt lat="38.9912460" lon="-3.9219190">
        <ele>630.5</ele>
        <time>2019-08-11T18:44:50Z</time>
      </trkpt>
      <trkpt lat="38.9912020" lon="-3.9219010">
        <ele>630.5</ele>
        <time>2019-08-11T18:44:51Z</time>
      </trkpt>
      <trkpt lat="38.9911570" lon="-3.9218820">
        <ele>630.5</ele>
        <time>2019-08-11T18:44:52Z</time>
      </trkpt>
      <trkpt lat="38.9910900" lon="-3.9218570">
        <ele>630.5</ele>
        <time>2019-08-11T18:44:53Z</time>
      </trkpt>
      <trkpt lat="38.9910240" lon="-3.9218340">
        <ele>630.5</ele>
        <time>2019-08-11T18:44:54Z</time>
      </trkpt>
      <trkpt lat="38.9909570" lon="-3.9218130">
        <ele>630.5</ele>
        <time>2019-08-11T18:44:55Z</time>
      </trkpt>
      <trkpt lat="38.9908900" lon="-3.9217930">
        <ele>630.5</ele>
        <time>2019-08-11T18:44:56Z</time>
      </trkpt>
      <trkpt lat="38.9908230" lon="-3.9217750">
        <ele>630.5</ele>
        <time>2019-08-11T18:44:57Z</time>
      </trkpt>
      <trkpt lat="38.9907560" lon="-3.9217590">
        <ele>630.5</ele>
        <time>2019-08-11T18:44:58Z</time>
      </trkpt>
      <trkpt lat="38.9906880" lon="-3.9217440">
        <ele>630.5</ele>
        <time>2019-08-11T18:44:59Z</time>
      </trkpt>
      <trkpt lat="38.9906210" lon="-3.9217310">
        <ele>630.5</ele>
        <time>2019-08-11T18:45:00Z</time>
      </trkpt>
      <trkpt lat="38.9905540" lon="-3.9217190">
        <ele>630.5</ele>
        <time>2019-08-11T18:45:01Z</time>
      </trkpt>
      <trkpt lat="38.9904870" lon="-3.9217080">
        <ele>630.5</ele>
        <time>2019-08-11T18:45:02Z</time>
      </trkpt>
      <trkpt lat="38.9904200" lon="-3.9216980">
        <ele>630.5</ele>
        <time>2019-08-11T18:45:03Z</time>
      </trkpt>
      <trkpt lat="38.9903520" lon="-3.9216890">
        <ele>630.5</ele>
        <time>2019-08-11T18:45:04Z</time>
      </trkpt>
      <trkpt lat="38.9902850" lon="-3.9216800">
        <ele>630.5</ele>
        <time>2019-08-11T18:45:05Z</time>
      </trkpt>
      <trkpt lat="38.9902180" lon="-3.9216720">
        <ele>630.6</ele>
        <time>2019-08-11T18:45:06Z</time>
      </trkpt>
      <trkpt lat="38.9901520" lon="-3.9216650">
        <ele>630.6</ele>
        <time>2019-08-11T18:45:07Z</time>
      </trkpt>
      <trkpt lat="38.9900850" lon="-3.9216580">
        <ele>630.7</ele>
        <time>2019-08-11T18:45:08Z</time>
      </trkpt>
      <trkpt lat="38.9900190" lon="-3.9216510">
        <ele>630.8</ele>
        <time>2019-08-11T18:45:09Z</time>
      </trkpt>
      <trkpt lat="38.9899520" lon="-3.9216440">
        <ele>630.8</ele>
        <time>2019-08-11T18:45:10Z</time>
      </trkpt>
      <trkpt lat="38.9898860" lon="-3.9216380">
        <ele>630.9</ele>
        <time>2019-08-11T18:45:11Z</time>
      </trkpt>
      <trkpt lat="38.9898210" lon="-3.9216310">
        <ele>631.0</ele>
        <time>2019-08-11T18:45:12Z</time>
      </trkpt>
      <trkpt lat="38.9897550" lon="-3.9216250">
        <ele>631.1</ele>
        <time>2019-08-11T18:45:13Z</time>
      </trkpt>
      <trkpt lat="38.9896900" lon="-3.9216190">
        <ele>631.2</ele>
        <time>2019-08-11T18:45:14Z</time>
      </trkpt>
      <trkpt lat="38.9896250" lon="-3.9216120">
        <ele>631.3</ele>
        <time>2019-08-11T18:45:15Z</time>
      </trkpt>
      <trkpt lat="38.9895600" lon="-3.9216060">
        <ele>631.4</ele>
        <time>2019-08-11T18:45:16Z</time>
      </trkpt>
      <trkpt lat="38.9894950" lon="-3.9215990">
        <ele>631.5</ele>
        <time>2019-08-11T18:45:17Z</time>
      </trkpt>
      <trkpt lat="38.9894310" lon="-3.9215920">
        <ele>631.6</ele>
        <time>2019-08-11T18:45:18Z</time>
      </trkpt>
      <trkpt lat="38.9893660" lon="-3.9215850">
        <ele>631.7</ele>
        <time>2019-08-11T18:45:19Z</time>
      </trkpt>
      <trkpt lat="38.9893020" lon="-3.9215780">
        <ele>631.8</ele>
        <time>2019-08-11T18:45:20Z</time>
      </trkpt>
      <trkpt lat="38.9892390" lon="-3.9215710">
        <ele>631.9</ele>
        <time>2019-08-11T18:45:21Z</time>
      </trkpt>
      <trkpt lat="38.9891750" lon="-3.9215630">
        <ele>632.0</ele>
        <time>2019-08-11T18:45:22Z</time>
      </trkpt>
      <trkpt lat="38.9891120" lon="-3.9215550">
        <ele>632.0</ele>
        <time>2019-08-11T18:45:23Z</time>
      </trkpt>
      <trkpt lat="38.9890490" lon="-3.9215470">
        <ele>632.0</ele>
        <time>2019-08-11T18:45:24Z</time>
      </trkpt>
      <trkpt lat="38.9889860" lon="-3.9215380">
        <ele>632.1</ele>
        <time>2019-08-11T18:45:25Z</time>
      </trkpt>
      <trkpt lat="38.9889230" lon="-3.9215290">
        <ele>632.1</ele>
        <time>2019-08-11T18:45:26Z</time>
      </trkpt>
      <trkpt lat="38.9888610" lon="-3.9215200">
        <ele>632.1</ele>
        <time>2019-08-11T18:45:27Z</time>
      </trkpt>
      <trkpt lat="38.9887990" lon="-3.9215100">
        <ele>632.1</ele>
        <time>2019-08-11T18:45:28Z</time>
      </trkpt>
      <trkpt lat="38.9887370" lon="-3.9215000">
        <ele>632.0</ele>
        <time>2019-08-11T18:45:29Z</time>
      </trkpt>
      <trkpt lat="38.9886760" lon="-3.9214900">
        <ele>632.0</ele>
        <time>2019-08-11T18:45:30Z</time>
      </trkpt>
      <trkpt lat="38.9886150" lon="-3.9214790">
        <ele>632.0</ele>
        <time>2019-08-11T18:45:31Z</time>
      </trkpt>
      <trkpt lat="38.9885540" lon="-3.9214680">
        <ele>632.0</ele>
        <time>2019-08-11T18:45:32Z</time>
      </trkpt>
      <trkpt lat="38.9884930" lon="-3.9214560">
        <ele>631.9</ele>
        <time>2019-08-11T18:45:33Z</time>
      </trkpt>
      <trkpt lat="38.9884330" lon="-3.9214420">
        <ele>631.8</ele>
        <time>2019-08-11T18:45:34Z</time>
      </trkpt>
      <trkpt lat="38.9883730" lon="-3.9214250">
        <ele>631.8</ele>
        <time>2019-08-11T18:45:35Z</time>
      </trkpt>
      <trkpt lat="38.9883120" lon="-3.9214020">
        <ele>631.8</ele>
        <time>2019-08-11T18:45:36Z</time>
      </trkpt>
      <trkpt lat="38.9882500" lon="-3.9213710">
        <ele>631.8</ele>
        <time>2019-08-11T18:45:37Z</time>
      </trkpt>
      <trkpt lat="38.9881890" lon="-3.9213460">
        <ele>631.8</ele>
        <time>2019-08-11T18:45:38Z</time>
      </trkpt>
      <trkpt lat="38.9881300" lon="-3.9213190">
        <ele>631.9</ele>
        <time>2019-08-11T18:45:39Z</time>
      </trkpt>
      <trkpt lat="38.9880730" lon="-3.9212880">
        <ele>632.1</ele>
        <time>2019-08-11T18:45:40Z</time>
      </trkpt>
      <trkpt lat="38.9880160" lon="-3.9212560">
        <ele>632.3</ele>
        <time>2019-08-11T18:45:41Z</time>
      </trkpt>
      <trkpt lat="38.9879590" lon="-3.9212230">
        <ele>632.4</ele>
        <time>2019-08-11T18:45:42Z</time>
      </trkpt>
      <trkpt lat="38.9879020" lon="-3.9211920">
        <ele>632.4</ele>
        <time>2019-08-11T18:45:43Z</time>
      </trkpt>
      <trkpt lat="38.9878460" lon="-3.9211610">
        <ele>632.5</ele>
        <time>2019-08-11T18:45:44Z</time>
      </trkpt>
      <trkpt lat="38.9877520" lon="-3.9211130">
        <ele>632.5</ele>
        <time>2019-08-11T18:45:45Z</time>
      </trkpt>
      <trkpt lat="38.9877140" lon="-3.9210930">
        <ele>632.6</ele>
        <time>2019-08-11T18:45:46Z</time>
      </trkpt>
      <trkpt lat="38.9876770" lon="-3.9210740">
        <ele>632.6</ele>
        <time>2019-08-11T18:45:47Z</time>
      </trkpt>
      <trkpt lat="38.9876200" lon="-3.9210460">
        <ele>632.6</ele>
        <time>2019-08-11T18:45:48Z</time>
      </trkpt>
      <trkpt lat="38.9875640" lon="-3.9210170">
        <ele>632.7</ele>
        <time>2019-08-11T18:45:49Z</time>
      </trkpt>
      <trkpt lat="38.9875090" lon="-3.9209870">
        <ele>632.8</ele>
        <time>2019-08-11T18:45:50Z</time>
      </trkpt>
      <trkpt lat="38.9874530" lon="-3.9209570">
        <ele>633.0</ele>
        <time>2019-08-11T18:45:51Z</time>
      </trkpt>
      <trkpt lat="38.9873980" lon="-3.9209250">
        <ele>633.2</ele>
        <time>2019-08-11T18:45:52Z</time>
      </trkpt>
      <trkpt lat="38.9873430" lon="-3.9208920">
        <ele>633.4</ele>
        <time>2019-08-11T18:45:53Z</time>
      </trkpt>
      <trkpt lat="38.9872880" lon="-3.9208590">
        <ele>633.6</ele>
        <time>2019-08-11T18:45:54Z</time>
      </trkpt>
      <trkpt lat="38.9872340" lon="-3.9208240">
        <ele>633.8</ele>
        <time>2019-08-11T18:45:55Z</time>
      </trkpt>
      <trkpt lat="38.9871790" lon="-3.9207900">
        <ele>633.9</ele>
        <time>2019-08-11T18:45:56Z</time>
      </trkpt>
      <trkpt lat="38.9871260" lon="-3.9207560">
        <ele>633.9</ele>
        <time>2019-08-11T18:45:57Z</time>
      </trkpt>
      <trkpt lat="38.9870720" lon="-3.9207220">
        <ele>634.0</ele>
        <time>2019-08-11T18:45:58Z</time>
      </trkpt>
      <trkpt lat="38.9870190" lon="-3.9206890">
        <ele>634.0</ele>
        <time>2019-08-11T18:45:59Z</time>
      </trkpt>
      <trkpt lat="38.9869650" lon="-3.9206560">
        <ele>634.1</ele>
        <time>2019-08-11T18:46:00Z</time>
      </trkpt>
      <trkpt lat="38.9869120" lon="-3.9206240">
        <ele>634.1</ele>
        <time>2019-08-11T18:46:01Z</time>
      </trkpt>
      <trkpt lat="38.9868600" lon="-3.9205930">
        <ele>634.0</ele>
        <time>2019-08-11T18:46:02Z</time>
      </trkpt>
      <trkpt lat="38.9868070" lon="-3.9205620">
        <ele>634.0</ele>
        <time>2019-08-11T18:46:03Z</time>
      </trkpt>
      <trkpt lat="38.9867540" lon="-3.9205320">
        <ele>634.1</ele>
        <time>2019-08-11T18:46:04Z</time>
      </trkpt>
      <trkpt lat="38.9867020" lon="-3.9205030">
        <ele>634.1</ele>
        <time>2019-08-11T18:46:05Z</time>
      </trkpt>
      <trkpt lat="38.9866490" lon="-3.9204730">
        <ele>634.1</ele>
        <time>2019-08-11T18:46:06Z</time>
      </trkpt>
      <trkpt lat="38.9865970" lon="-3.9204440">
        <ele>634.1</ele>
        <time>2019-08-11T18:46:07Z</time>
      </trkpt>
      <trkpt lat="38.9865440" lon="-3.9204150">
        <ele>634.2</ele>
        <time>2019-08-11T18:46:08Z</time>
      </trkpt>
      <trkpt lat="38.9864910" lon="-3.9203860">
        <ele>634.2</ele>
        <time>2019-08-11T18:46:09Z</time>
      </trkpt>
      <trkpt lat="38.9864380" lon="-3.9203570">
        <ele>634.2</ele>
        <time>2019-08-11T18:46:10Z</time>
      </trkpt>
      <trkpt lat="38.9863850" lon="-3.9203290">
        <ele>634.3</ele>
        <time>2019-08-11T18:46:11Z</time>
      </trkpt>
      <trkpt lat="38.9863310" lon="-3.9202990">
        <ele>634.3</ele>
        <time>2019-08-11T18:46:12Z</time>
      </trkpt>
      <trkpt lat="38.9862780" lon="-3.9202700">
        <ele>634.4</ele>
        <time>2019-08-11T18:46:13Z</time>
      </trkpt>
      <trkpt lat="38.9862240" lon="-3.9202410">
        <ele>634.4</ele>
        <time>2019-08-11T18:46:14Z</time>
      </trkpt>
      <trkpt lat="38.9861690" lon="-3.9202110">
        <ele>634.5</ele>
        <time>2019-08-11T18:46:15Z</time>
      </trkpt>
      <trkpt lat="38.9861140" lon="-3.9201800">
        <ele>634.5</ele>
        <time>2019-08-11T18:46:16Z</time>
      </trkpt>
      <trkpt lat="38.9860600" lon="-3.9201480">
        <ele>634.5</ele>
        <time>2019-08-11T18:46:17Z</time>
      </trkpt>
      <trkpt lat="38.9860120" lon="-3.9201090">
        <ele>634.5</ele>
        <time>2019-08-11T18:46:18Z</time>
      </trkpt>
      <trkpt lat="38.9859780" lon="-3.9200550">
        <ele>634.3</ele>
        <time>2019-08-11T18:46:19Z</time>
      </trkpt>
      <trkpt lat="38.9859630" lon="-3.9199840">
        <ele>634.2</ele>
        <time>2019-08-11T18:46:20Z</time>
      </trkpt>
      <trkpt lat="38.9859700" lon="-3.9199100">
        <ele>634.1</ele>
        <time>2019-08-11T18:46:21Z</time>
      </trkpt>
      <trkpt lat="38.9859990" lon="-3.9198440">
        <ele>633.9</ele>
        <time>2019-08-11T18:46:22Z</time>
      </trkpt>
      <trkpt lat="38.9860370" lon="-3.9197800">
        <ele>633.7</ele>
        <time>2019-08-11T18:46:23Z</time>
      </trkpt>
      <trkpt lat="38.9860720" lon="-3.9197090">
        <ele>633.5</ele>
        <time>2019-08-11T18:46:24Z</time>
      </trkpt>
      <trkpt lat="38.9861020" lon="-3.9196320">
        <ele>633.3</ele>
        <time>2019-08-11T18:46:25Z</time>
      </trkpt>
      <trkpt lat="38.9861260" lon="-3.9195530">
        <ele>633.2</ele>
        <time>2019-08-11T18:46:26Z</time>
      </trkpt>
      <trkpt lat="38.9861460" lon="-3.9194720">
        <ele>633.0</ele>
        <time>2019-08-11T18:46:27Z</time>
      </trkpt>
      <trkpt lat="38.9861640" lon="-3.9193900">
        <ele>632.8</ele>
        <time>2019-08-11T18:46:28Z</time>
      </trkpt>
      <trkpt lat="38.9861820" lon="-3.9193080">
        <ele>632.6</ele>
        <time>2019-08-11T18:46:29Z</time>
      </trkpt>
      <trkpt lat="38.9862020" lon="-3.9192250">
        <ele>632.4</ele>
        <time>2019-08-11T18:46:30Z</time>
      </trkpt>
      <trkpt lat="38.9862220" lon="-3.9191420">
        <ele>632.2</ele>
        <time>2019-08-11T18:46:31Z</time>
      </trkpt>
      <trkpt lat="38.9862440" lon="-3.9190600">
        <ele>632.1</ele>
        <time>2019-08-11T18:46:32Z</time>
      </trkpt>
      <trkpt lat="38.9862650" lon="-3.9189780">
        <ele>631.9</ele>
        <time>2019-08-11T18:46:33Z</time>
      </trkpt>
      <trkpt lat="38.9862850" lon="-3.9188980">
        <ele>631.8</ele>
        <time>2019-08-11T18:46:34Z</time>
      </trkpt>
      <trkpt lat="38.9863050" lon="-3.9188190">
        <ele>631.7</ele>
        <time>2019-08-11T18:46:35Z</time>
      </trkpt>
      <trkpt lat="38.9863250" lon="-3.9187420">
        <ele>631.6</ele>
        <time>2019-08-11T18:46:36Z</time>
      </trkpt>
      <trkpt lat="38.9863450" lon="-3.9186660">
        <ele>631.6</ele>
        <time>2019-08-11T18:46:37Z</time>
      </trkpt>
      <trkpt lat="38.9863670" lon="-3.9185920">
        <ele>631.5</ele>
        <time>2019-08-11T18:46:38Z</time>
      </trkpt>
      <trkpt lat="38.9863880" lon="-3.9185200">
        <ele>631.5</ele>
        <time>2019-08-11T18:46:39Z</time>
      </trkpt>
      <trkpt lat="38.9864050" lon="-3.9184520">
        <ele>631.5</ele>
        <time>2019-08-11T18:46:40Z</time>
      </trkpt>
      <trkpt lat="38.9864080" lon="-3.9183910">
        <ele>631.5</ele>
        <time>2019-08-11T18:46:41Z</time>
      </trkpt>
      <trkpt lat="38.9863910" lon="-3.9183400">
        <ele>631.5</ele>
        <time>2019-08-11T18:46:42Z</time>
      </trkpt>
      <trkpt lat="38.9863510" lon="-3.9183010">
        <ele>631.5</ele>
        <time>2019-08-11T18:46:43Z</time>
      </trkpt>
      <trkpt lat="38.9862950" lon="-3.9182760">
        <ele>631.5</ele>
        <time>2019-08-11T18:46:44Z</time>
      </trkpt>
      <trkpt lat="38.9862350" lon="-3.9182670">
        <ele>631.5</ele>
        <time>2019-08-11T18:46:45Z</time>
      </trkpt>
      <trkpt lat="38.9861830" lon="-3.9182750">
        <ele>631.5</ele>
        <time>2019-08-11T18:46:46Z</time>
      </trkpt>
      <trkpt lat="38.9861350" lon="-3.9183230">
        <ele>631.5</ele>
        <time>2019-08-11T18:46:47Z</time>
      </trkpt>
      <trkpt lat="38.9861230" lon="-3.9183440">
        <ele>631.5</ele>
        <time>2019-08-11T18:46:48Z</time>
      </trkpt>
      <trkpt lat="38.9861080" lon="-3.9183960">
        <ele>631.5</ele>
        <time>2019-08-11T18:46:49Z</time>
      </trkpt>
      <trkpt lat="38.9860980" lon="-3.9184540">
        <ele>631.6</ele>
        <time>2019-08-11T18:46:50Z</time>
      </trkpt>
      <trkpt lat="38.9860880" lon="-3.9185140">
        <ele>631.6</ele>
        <time>2019-08-11T18:46:51Z</time>
      </trkpt>
      <trkpt lat="38.9860770" lon="-3.9185750">
        <ele>631.6</ele>
        <time>2019-08-11T18:46:52Z</time>
      </trkpt>
      <trkpt lat="38.9860660" lon="-3.9186360">
        <ele>631.6</ele>
        <time>2019-08-11T18:46:53Z</time>
      </trkpt>
      <trkpt lat="38.9860550" lon="-3.9186960">
        <ele>631.7</ele>
        <time>2019-08-11T18:46:54Z</time>
      </trkpt>
      <trkpt lat="38.9860450" lon="-3.9187560">
        <ele>631.7</ele>
        <time>2019-08-11T18:46:55Z</time>
      </trkpt>
      <trkpt lat="38.9860350" lon="-3.9188160">
        <ele>631.7</ele>
        <time>2019-08-11T18:46:56Z</time>
      </trkpt>
      <trkpt lat="38.9860250" lon="-3.9188740">
        <ele>631.8</ele>
        <time>2019-08-11T18:46:57Z</time>
      </trkpt>
      <trkpt lat="38.9860160" lon="-3.9189330">
        <ele>631.8</ele>
        <time>2019-08-11T18:46:58Z</time>
      </trkpt>
      <trkpt lat="38.9860070" lon="-3.9189920">
        <ele>631.9</ele>
        <time>2019-08-11T18:46:59Z</time>
      </trkpt>
      <trkpt lat="38.9859980" lon="-3.9190510">
        <ele>631.9</ele>
        <time>2019-08-11T18:47:00Z</time>
      </trkpt>
      <trkpt lat="38.9859880" lon="-3.9191080">
        <ele>632.0</ele>
        <time>2019-08-11T18:47:01Z</time>
      </trkpt>
      <trkpt lat="38.9859750" lon="-3.9191600">
        <ele>632.1</ele>
        <time>2019-08-11T18:47:02Z</time>
      </trkpt>
      <trkpt lat="38.9859600" lon="-3.9192050">
        <ele>632.1</ele>
        <time>2019-08-11T18:47:03Z</time>
      </trkpt>
      <trkpt lat="38.9859410" lon="-3.9192390">
        <ele>632.2</ele>
        <time>2019-08-11T18:47:04Z</time>
      </trkpt>
      <trkpt lat="38.9859160" lon="-3.9192590">
        <ele>632.2</ele>
        <time>2019-08-11T18:47:05Z</time>
      </trkpt>
      <trkpt lat="38.9858850" lon="-3.9192630">
        <ele>632.3</ele>
        <time>2019-08-11T18:47:06Z</time>
      </trkpt>
      <trkpt lat="38.9858480" lon="-3.9192480">
        <ele>632.3</ele>
        <time>2019-08-11T18:47:07Z</time>
      </trkpt>
      <trkpt lat="38.9855160" lon="-3.9199170">
        <ele>634.5</ele>
        <time>2019-08-12T05:43:44Z</time>
      </trkpt>
      <trkpt lat="38.9855580" lon="-3.9199460">
        <ele>634.4</ele>
        <time>2019-08-12T05:43:45Z</time>
      </trkpt>
      <trkpt lat="38.9855750" lon="-3.9199550">
        <ele>634.4</ele>
        <time>2019-08-12T05:43:46Z</time>
      </trkpt>
      <trkpt lat="38.9856160" lon="-3.9199680">
        <ele>634.3</ele>
        <time>2019-08-12T05:43:47Z</time>
      </trkpt>
      <trkpt lat="38.9856620" lon="-3.9199770">
        <ele>634.3</ele>
        <time>2019-08-12T05:43:48Z</time>
      </trkpt>
      <trkpt lat="38.9857110" lon="-3.9199830">
        <ele>634.3</ele>
        <time>2019-08-12T05:43:49Z</time>
      </trkpt>
      <trkpt lat="38.9857620" lon="-3.9199870">
        <ele>634.3</ele>
        <time>2019-08-12T05:43:50Z</time>
      </trkpt>
      <trkpt lat="38.9858130" lon="-3.9199880">
        <ele>634.2</ele>
        <time>2019-08-12T05:43:51Z</time>
      </trkpt>
      <trkpt lat="38.9858620" lon="-3.9199870">
        <ele>634.2</ele>
        <time>2019-08-12T05:43:52Z</time>
      </trkpt>
      <trkpt lat="38.9859080" lon="-3.9199840">
        <ele>634.2</ele>
        <time>2019-08-12T05:43:53Z</time>
      </trkpt>
      <trkpt lat="38.9859550" lon="-3.9199810">
        <ele>634.1</ele>
        <time>2019-08-12T05:43:54Z</time>
      </trkpt>
      <trkpt lat="38.9860040" lon="-3.9199780">
        <ele>634.1</ele>
        <time>2019-08-12T05:43:55Z</time>
      </trkpt>
      <trkpt lat="38.9860550" lon="-3.9199810">
        <ele>634.1</ele>
        <time>2019-08-12T05:43:56Z</time>
      </trkpt>
      <trkpt lat="38.9861030" lon="-3.9199940">
        <ele>634.0</ele>
        <time>2019-08-12T05:43:57Z</time>
      </trkpt>
      <trkpt lat="38.9861470" lon="-3.9200230">
        <ele>634.0</ele>
        <time>2019-08-12T05:43:58Z</time>
      </trkpt>
      <trkpt lat="38.9861870" lon="-3.9200630">
        <ele>634.1</ele>
        <time>2019-08-12T05:43:59Z</time>
      </trkpt>
      <trkpt lat="38.9862260" lon="-3.9201080">
        <ele>634.1</ele>
        <time>2019-08-12T05:44:00Z</time>
      </trkpt>
      <trkpt lat="38.9862630" lon="-3.9201570">
        <ele>634.2</ele>
        <time>2019-08-12T05:44:01Z</time>
      </trkpt>
      <trkpt lat="38.9863010" lon="-3.9202050">
        <ele>634.4</ele>
        <time>2019-08-12T05:44:02Z</time>
      </trkpt>
      <trkpt lat="38.9863390" lon="-3.9202500">
        <ele>634.4</ele>
        <time>2019-08-12T05:44:03Z</time>
      </trkpt>
      <trkpt lat="38.9863800" lon="-3.9202900">
        <ele>634.4</ele>
        <time>2019-08-12T05:44:04Z</time>
      </trkpt>
      <trkpt lat="38.9864220" lon="-3.9203260">
        <ele>634.4</ele>
        <time>2019-08-12T05:44:05Z</time>
      </trkpt>
      <trkpt lat="38.9864650" lon="-3.9203580">
        <ele>634.4</ele>
        <time>2019-08-12T05:44:06Z</time>
      </trkpt>
      <trkpt lat="38.9865090" lon="-3.9203870">
        <ele>634.4</ele>
        <time>2019-08-12T05:44:07Z</time>
      </trkpt>
      <trkpt lat="38.9865540" lon="-3.9204140">
        <ele>634.5</ele>
        <time>2019-08-12T05:44:08Z</time>
      </trkpt>
      <trkpt lat="38.9865990" lon="-3.9204400">
        <ele>634.3</ele>
        <time>2019-08-12T05:44:09Z</time>
      </trkpt>
      <trkpt lat="38.9866430" lon="-3.9204660">
        <ele>634.0</ele>
        <time>2019-08-12T05:44:10Z</time>
      </trkpt>
      <trkpt lat="38.9866860" lon="-3.9204920">
        <ele>633.8</ele>
        <time>2019-08-12T05:44:11Z</time>
      </trkpt>
      <trkpt lat="38.9867270" lon="-3.9205200">
        <ele>633.7</ele>
        <time>2019-08-12T05:44:12Z</time>
      </trkpt>
      <trkpt lat="38.9867670" lon="-3.9205500">
        <ele>633.5</ele>
        <time>2019-08-12T05:44:13Z</time>
      </trkpt>
      <trkpt lat="38.9868060" lon="-3.9205810">
        <ele>633.4</ele>
        <time>2019-08-12T05:44:14Z</time>
      </trkpt>
      <trkpt lat="38.9868450" lon="-3.9206130">
        <ele>633.3</ele>
        <time>2019-08-12T05:44:15Z</time>
      </trkpt>
      <trkpt lat="38.9868850" lon="-3.9206460">
        <ele>633.2</ele>
        <time>2019-08-12T05:44:16Z</time>
      </trkpt>
      <trkpt lat="38.9869270" lon="-3.9206780">
        <ele>633.1</ele>
        <time>2019-08-12T05:44:17Z</time>
      </trkpt>
      <trkpt lat="38.9869710" lon="-3.9207090">
        <ele>633.1</ele>
        <time>2019-08-12T05:44:18Z</time>
      </trkpt>
      <trkpt lat="38.9870180" lon="-3.9207390">
        <ele>633.0</ele>
        <time>2019-08-12T05:44:19Z</time>
      </trkpt>
      <trkpt lat="38.9870670" lon="-3.9207690">
        <ele>633.0</ele>
        <time>2019-08-12T05:44:20Z</time>
      </trkpt>
      <trkpt lat="38.9871170" lon="-3.9207980">
        <ele>633.0</ele>
        <time>2019-08-12T05:44:21Z</time>
      </trkpt>
      <trkpt lat="38.9871680" lon="-3.9208270">
        <ele>633.0</ele>
        <time>2019-08-12T05:44:22Z</time>
      </trkpt>
      <trkpt lat="38.9872200" lon="-3.9208570">
        <ele>633.0</ele>
        <time>2019-08-12T05:44:23Z</time>
      </trkpt>
      <trkpt lat="38.9872730" lon="-3.9208860">
        <ele>633.0</ele>
        <time>2019-08-12T05:44:24Z</time>
      </trkpt>
      <trkpt lat="38.9873260" lon="-3.9209160">
        <ele>632.9</ele>
        <time>2019-08-12T05:44:25Z</time>
      </trkpt>
      <trkpt lat="38.9873810" lon="-3.9209460">
        <ele>632.9</ele>
        <time>2019-08-12T05:44:26Z</time>
      </trkpt>
      <trkpt lat="38.9874360" lon="-3.9209760">
        <ele>632.9</ele>
        <time>2019-08-12T05:44:27Z</time>
      </trkpt>
      <trkpt lat="38.9874920" lon="-3.9210050">
        <ele>632.9</ele>
        <time>2019-08-12T05:44:28Z</time>
      </trkpt>
      <trkpt lat="38.9875480" lon="-3.9210350">
        <ele>632.9</ele>
        <time>2019-08-12T05:44:29Z</time>
      </trkpt>
      <trkpt lat="38.9876050" lon="-3.9210640">
        <ele>632.8</ele>
        <time>2019-08-12T05:44:30Z</time>
      </trkpt>
      <trkpt lat="38.9876630" lon="-3.9210940">
        <ele>632.6</ele>
        <time>2019-08-12T05:44:31Z</time>
      </trkpt>
      <trkpt lat="38.9877210" lon="-3.9211230">
        <ele>632.3</ele>
        <time>2019-08-12T05:44:32Z</time>
      </trkpt>
      <trkpt lat="38.9877780" lon="-3.9211520">
        <ele>632.1</ele>
        <time>2019-08-12T05:44:33Z</time>
      </trkpt>
      <trkpt lat="38.9878360" lon="-3.9211820">
        <ele>631.9</ele>
        <time>2019-08-12T05:44:34Z</time>
      </trkpt>
      <trkpt lat="38.9878920" lon="-3.9212140">
        <ele>631.7</ele>
        <time>2019-08-12T05:44:35Z</time>
      </trkpt>
      <trkpt lat="38.9879470" lon="-3.9212460">
        <ele>631.6</ele>
        <time>2019-08-12T05:44:36Z</time>
      </trkpt>
      <trkpt lat="38.9880000" lon="-3.9212810">
        <ele>631.6</ele>
        <time>2019-08-12T05:44:37Z</time>
      </trkpt>
      <trkpt lat="38.9880520" lon="-3.9213160">
        <ele>631.6</ele>
        <time>2019-08-12T05:44:38Z</time>
      </trkpt>
      <trkpt lat="38.9881050" lon="-3.9213510">
        <ele>631.5</ele>
        <time>2019-08-12T05:44:39Z</time>
      </trkpt>
      <trkpt lat="38.9881580" lon="-3.9213840">
        <ele>631.8</ele>
        <time>2019-08-12T05:44:40Z</time>
      </trkpt>
      <trkpt lat="38.9882130" lon="-3.9214150">
        <ele>631.8</ele>
        <time>2019-08-12T05:44:41Z</time>
      </trkpt>
      <trkpt lat="38.9882690" lon="-3.9214430">
        <ele>631.8</ele>
        <time>2019-08-12T05:44:42Z</time>
      </trkpt>
      <trkpt lat="38.9883270" lon="-3.9214680">
        <ele>631.8</ele>
        <time>2019-08-12T05:44:43Z</time>
      </trkpt>
      <trkpt lat="38.9883850" lon="-3.9214910">
        <ele>631.8</ele>
        <time>2019-08-12T05:44:44Z</time>
      </trkpt>
      <trkpt lat="38.9884830" lon="-3.9215220">
        <ele>631.9</ele>
        <time>2019-08-12T05:44:45Z</time>
      </trkpt>
      <trkpt lat="38.9885220" lon="-3.9215340">
        <ele>631.9</ele>
        <time>2019-08-12T05:44:46Z</time>
      </trkpt>
      <trkpt lat="38.9885610" lon="-3.9215450">
        <ele>632.0</ele>
        <time>2019-08-12T05:44:47Z</time>
      </trkpt>
      <trkpt lat="38.9886200" lon="-3.9215590">
        <ele>632.0</ele>
        <time>2019-08-12T05:44:48Z</time>
      </trkpt>
      <trkpt lat="38.9886770" lon="-3.9215720">
        <ele>632.0</ele>
        <time>2019-08-12T05:44:49Z</time>
      </trkpt>
      <trkpt lat="38.9887730" lon="-3.9215920">
        <ele>632.1</ele>
        <time>2019-08-12T05:44:50Z</time>
      </trkpt>
      <trkpt lat="38.9888100" lon="-3.9215990">
        <ele>632.1</ele>
        <time>2019-08-12T05:44:51Z</time>
      </trkpt>
      <trkpt lat="38.9888480" lon="-3.9216070">
        <ele>632.1</ele>
        <time>2019-08-12T05:44:52Z</time>
      </trkpt>
      <trkpt lat="38.9889050" lon="-3.9216170">
        <ele>632.1</ele>
        <time>2019-08-12T05:44:53Z</time>
      </trkpt>
      <trkpt lat="38.9889610" lon="-3.9216270">
        <ele>632.1</ele>
        <time>2019-08-12T05:44:54Z</time>
      </trkpt>
      <trkpt lat="38.9890180" lon="-3.9216370">
        <ele>632.1</ele>
        <time>2019-08-12T05:44:55Z</time>
      </trkpt>
      <trkpt lat="38.9890760" lon="-3.9216460">
        <ele>632.0</ele>
        <time>2019-08-12T05:44:56Z</time>
      </trkpt>
      <trkpt lat="38.9891330" lon="-3.9216560">
        <ele>632.0</ele>
        <time>2019-08-12T05:44:57Z</time>
      </trkpt>
      <trkpt lat="38.9891920" lon="-3.9216650">
        <ele>631.9</ele>
        <time>2019-08-12T05:44:58Z</time>
      </trkpt>
      <trkpt lat="38.9892510" lon="-3.9216730">
        <ele>631.9</ele>
        <time>2019-08-12T05:44:59Z</time>
      </trkpt>
      <trkpt lat="38.9893110" lon="-3.9216830">
        <ele>631.8</ele>
        <time>2019-08-12T05:45:00Z</time>
      </trkpt>
      <trkpt lat="38.9893700" lon="-3.9216920">
        <ele>631.7</ele>
        <time>2019-08-12T05:45:01Z</time>
      </trkpt>
      <trkpt lat="38.9894300" lon="-3.9217020">
        <ele>631.6</ele>
        <time>2019-08-12T05:45:02Z</time>
      </trkpt>
      <trkpt lat="38.9894890" lon="-3.9217130">
        <ele>631.5</ele>
        <time>2019-08-12T05:45:03Z</time>
      </trkpt>
      <trkpt lat="38.9895480" lon="-3.9217250">
        <ele>631.4</ele>
        <time>2019-08-12T05:45:04Z</time>
      </trkpt>
      <trkpt lat="38.9896070" lon="-3.9217380">
        <ele>631.3</ele>
        <time>2019-08-12T05:45:05Z</time>
      </trkpt>
      <trkpt lat="38.9896650" lon="-3.9217490">
        <ele>631.2</ele>
        <time>2019-08-12T05:45:06Z</time>
      </trkpt>
      <trkpt lat="38.9897250" lon="-3.9217590">
        <ele>631.1</ele>
        <time>2019-08-12T05:45:07Z</time>
      </trkpt>
      <trkpt lat="38.9897860" lon="-3.9217650">
        <ele>631.0</ele>
        <time>2019-08-12T05:45:08Z</time>
      </trkpt>
      <trkpt lat="38.9898480" lon="-3.9217680">
        <ele>630.9</ele>
        <time>2019-08-12T05:45:09Z</time>
      </trkpt>
      <trkpt lat="38.9899120" lon="-3.9217690">
        <ele>630.8</ele>
        <time>2019-08-12T05:45:10Z</time>
      </trkpt>
      <trkpt lat="38.9899740" lon="-3.9217680">
        <ele>630.8</ele>
        <time>2019-08-12T05:45:11Z</time>
      </trkpt>
      <trkpt lat="38.9900360" lon="-3.9217690">
        <ele>630.7</ele>
        <time>2019-08-12T05:45:12Z</time>
      </trkpt>
      <trkpt lat="38.9900940" lon="-3.9217730">
        <ele>630.7</ele>
        <time>2019-08-12T05:45:13Z</time>
      </trkpt>
      <trkpt lat="38.9901500" lon="-3.9217800">
        <ele>630.6</ele>
        <time>2019-08-12T05:45:14Z</time>
      </trkpt>
      <trkpt lat="38.9902380" lon="-3.9217980">
        <ele>630.6</ele>
        <time>2019-08-12T05:45:15Z</time>
      </trkpt>
      <trkpt lat="38.9902740" lon="-3.9218070">
        <ele>630.5</ele>
        <time>2019-08-12T05:45:16Z</time>
      </trkpt>
      <trkpt lat="38.9903090" lon="-3.9218150">
        <ele>630.5</ele>
        <time>2019-08-12T05:45:17Z</time>
      </trkpt>
      <trkpt lat="38.9903640" lon="-3.9218270">
        <ele>630.5</ele>
        <time>2019-08-12T05:45:18Z</time>
      </trkpt>
      <trkpt lat="38.9904210" lon="-3.9218380">
        <ele>630.5</ele>
        <time>2019-08-12T05:45:19Z</time>
      </trkpt>
      <trkpt lat="38.9904800" lon="-3.9218500">
        <ele>630.5</ele>
        <time>2019-08-12T05:45:20Z</time>
      </trkpt>
      <trkpt lat="38.9905400" lon="-3.9218610">
        <ele>630.5</ele>
        <time>2019-08-12T05:45:21Z</time>
      </trkpt>
      <trkpt lat="38.9906010" lon="-3.9218730">
        <ele>630.5</ele>
        <time>2019-08-12T05:45:22Z</time>
      </trkpt>
      <trkpt lat="38.9906640" lon="-3.9218850">
        <ele>630.5</ele>
        <time>2019-08-12T05:45:23Z</time>
      </trkpt>
      <trkpt lat="38.9907260" lon="-3.9218990">
        <ele>630.5</ele>
        <time>2019-08-12T05:45:24Z</time>
      </trkpt>
      <trkpt lat="38.9907890" lon="-3.9219130">
        <ele>630.5</ele>
        <time>2019-08-12T05:45:25Z</time>
      </trkpt>
      <trkpt lat="38.9908520" lon="-3.9219290">
        <ele>630.5</ele>
        <time>2019-08-12T05:45:26Z</time>
      </trkpt>
      <trkpt lat="38.9909150" lon="-3.9219470">
        <ele>630.5</ele>
        <time>2019-08-12T05:45:27Z</time>
      </trkpt>
      <trkpt lat="38.9909770" lon="-3.9219660">
        <ele>630.5</ele>
        <time>2019-08-12T05:45:28Z</time>
      </trkpt>
      <trkpt lat="38.9910390" lon="-3.9219870">
        <ele>630.5</ele>
        <time>2019-08-12T05:45:29Z</time>
      </trkpt>
      <trkpt lat="38.9911000" lon="-3.9220090">
        <ele>630.5</ele>
        <time>2019-08-12T05:45:30Z</time>
      </trkpt>
      <trkpt lat="38.9911600" lon="-3.9220320">
        <ele>630.5</ele>
        <time>2019-08-12T05:45:31Z</time>
      </trkpt>
      <trkpt lat="38.9912210" lon="-3.9220560">
        <ele>630.5</ele>
        <time>2019-08-12T05:45:32Z</time>
      </trkpt>
      <trkpt lat="38.9912800" lon="-3.9220800">
        <ele>630.5</ele>
        <time>2019-08-12T05:45:33Z</time>
      </trkpt>
      <trkpt lat="38.9913390" lon="-3.9221060">
        <ele>630.5</ele>
        <time>2019-08-12T05:45:34Z</time>
      </trkpt>
      <trkpt lat="38.9913970" lon="-3.9221320">
        <ele>630.5</ele>
        <time>2019-08-12T05:45:35Z</time>
      </trkpt>
      <trkpt lat="38.9914540" lon="-3.9221590">
        <ele>630.5</ele>
        <time>2019-08-12T05:45:36Z</time>
      </trkpt>
      <trkpt lat="38.9915100" lon="-3.9221850">
        <ele>630.5</ele>
        <time>2019-08-12T05:45:37Z</time>
      </trkpt>
      <trkpt lat="38.9915650" lon="-3.9222120">
        <ele>630.5</ele>
        <time>2019-08-12T05:45:38Z</time>
      </trkpt>
      <trkpt lat="38.9916260" lon="-3.9222380">
        <ele>630.5</ele>
        <time>2019-08-12T05:45:39Z</time>
      </trkpt>
      <trkpt lat="38.9916790" lon="-3.9222600">
        <ele>630.5</ele>
        <time>2019-08-12T05:45:40Z</time>
      </trkpt>
      <trkpt lat="38.9918960" lon="-3.9223320">
        <ele>630.5</ele>
        <time>2019-08-12T05:46:06Z</time>
      </trkpt>
      <trkpt lat="38.9920740" lon="-3.9223800">
        <ele>630.4</ele>
        <time>2019-08-12T05:46:07Z</time>
      </trkpt>
      <trkpt lat="38.9922020" lon="-3.9224250">
        <ele>630.4</ele>
        <time>2019-08-12T05:46:08Z</time>
      </trkpt>
      <trkpt lat="38.9922450" lon="-3.9224540">
        <ele>630.3</ele>
        <time>2019-08-12T05:46:09Z</time>
      </trkpt>
      <trkpt lat="38.9922870" lon="-3.9224830">
        <ele>630.2</ele>
        <time>2019-08-12T05:46:10Z</time>
      </trkpt>
      <trkpt lat="38.9923310" lon="-3.9225140">
        <ele>630.0</ele>
        <time>2019-08-12T05:46:11Z</time>
      </trkpt>
      <trkpt lat="38.9923750" lon="-3.9225460">
        <ele>629.9</ele>
        <time>2019-08-12T05:46:12Z</time>
      </trkpt>
      <trkpt lat="38.9924200" lon="-3.9225800">
        <ele>629.8</ele>
        <time>2019-08-12T05:46:13Z</time>
      </trkpt>
      <trkpt lat="38.9924660" lon="-3.9226150">
        <ele>629.6</ele>
        <time>2019-08-12T05:46:14Z</time>
      </trkpt>
      <trkpt lat="38.9925120" lon="-3.9226540">
        <ele>629.5</ele>
        <time>2019-08-12T05:46:15Z</time>
      </trkpt>
      <trkpt lat="38.9925880" lon="-3.9227260">
        <ele>629.4</ele>
        <time>2019-08-12T05:46:16Z</time>
      </trkpt>
      <trkpt lat="38.9926180" lon="-3.9227560">
        <ele>629.4</ele>
        <time>2019-08-12T05:46:17Z</time>
      </trkpt>
      <trkpt lat="38.9926490" lon="-3.9227860">
        <ele>629.4</ele>
        <time>2019-08-12T05:46:18Z</time>
      </trkpt>
      <trkpt lat="38.9926950" lon="-3.9228330">
        <ele>629.3</ele>
        <time>2019-08-12T05:46:19Z</time>
      </trkpt>
      <trkpt lat="38.9927420" lon="-3.9228790">
        <ele>629.3</ele>
        <time>2019-08-12T05:46:20Z</time>
      </trkpt>
      <trkpt lat="38.9928210" lon="-3.9229570">
        <ele>629.3</ele>
        <time>2019-08-12T05:46:21Z</time>
      </trkpt>
      <trkpt lat="38.9928520" lon="-3.9229890">
        <ele>629.3</ele>
        <time>2019-08-12T05:46:22Z</time>
      </trkpt>
      <trkpt lat="38.9928840" lon="-3.9230200">
        <ele>629.3</ele>
        <time>2019-08-12T05:46:23Z</time>
      </trkpt>
      <trkpt lat="38.9929310" lon="-3.9230670">
        <ele>629.3</ele>
        <time>2019-08-12T05:46:24Z</time>
      </trkpt>
      <trkpt lat="38.9929790" lon="-3.9231150">
        <ele>629.2</ele>
        <time>2019-08-12T05:46:25Z</time>
      </trkpt>
      <trkpt lat="38.9930590" lon="-3.9231950">
        <ele>628.8</ele>
        <time>2019-08-12T05:46:26Z</time>
      </trkpt>
      <trkpt lat="38.9930910" lon="-3.9232280">
        <ele>628.7</ele>
        <time>2019-08-12T05:46:27Z</time>
      </trkpt>
      <trkpt lat="38.9931230" lon="-3.9232600">
        <ele>628.6</ele>
        <time>2019-08-12T05:46:28Z</time>
      </trkpt>
      <trkpt lat="38.9931710" lon="-3.9233100">
        <ele>628.5</ele>
        <time>2019-08-12T05:46:29Z</time>
      </trkpt>
      <trkpt lat="38.9932180" lon="-3.9233600">
        <ele>628.3</ele>
        <time>2019-08-12T05:46:30Z</time>
      </trkpt>
      <trkpt lat="38.9932660" lon="-3.9234100">
        <ele>628.2</ele>
        <time>2019-08-12T05:46:31Z</time>
      </trkpt>
      <trkpt lat="38.9933130" lon="-3.9234600">
        <ele>628.1</ele>
        <time>2019-08-12T05:46:32Z</time>
      </trkpt>
      <trkpt lat="38.9933610" lon="-3.9235100">
        <ele>628.0</ele>
        <time>2019-08-12T05:46:33Z</time>
      </trkpt>
      <trkpt lat="38.9934090" lon="-3.9235600">
        <ele>627.8</ele>
        <time>2019-08-12T05:46:34Z</time>
      </trkpt>
      <trkpt lat="38.9934560" lon="-3.9236100">
        <ele>627.7</ele>
        <time>2019-08-12T05:46:35Z</time>
      </trkpt>
      <trkpt lat="38.9935040" lon="-3.9236600">
        <ele>627.7</ele>
        <time>2019-08-12T05:46:36Z</time>
      </trkpt>
      <trkpt lat="38.9935520" lon="-3.9237090">
        <ele>627.6</ele>
        <time>2019-08-12T05:46:37Z</time>
      </trkpt>
      <trkpt lat="38.9936000" lon="-3.9237570">
        <ele>627.6</ele>
        <time>2019-08-12T05:46:38Z</time>
      </trkpt>
      <trkpt lat="38.9936490" lon="-3.9238050">
        <ele>627.5</ele>
        <time>2019-08-12T05:46:39Z</time>
      </trkpt>
      <trkpt lat="38.9936970" lon="-3.9238520">
        <ele>627.5</ele>
        <time>2019-08-12T05:46:40Z</time>
      </trkpt>
      <trkpt lat="38.9937440" lon="-3.9238990">
        <ele>627.4</ele>
        <time>2019-08-12T05:46:41Z</time>
      </trkpt>
      <trkpt lat="38.9937920" lon="-3.9239470">
        <ele>627.4</ele>
        <time>2019-08-12T05:46:42Z</time>
      </trkpt>
      <trkpt lat="38.9938390" lon="-3.9239950">
        <ele>627.3</ele>
        <time>2019-08-12T05:46:43Z</time>
      </trkpt>
      <trkpt lat="38.9938850" lon="-3.9240430">
        <ele>627.3</ele>
        <time>2019-08-12T05:46:44Z</time>
      </trkpt>
      <trkpt lat="38.9939310" lon="-3.9240920">
        <ele>627.3</ele>
        <time>2019-08-12T05:46:45Z</time>
      </trkpt>
      <trkpt lat="38.9939750" lon="-3.9241420">
        <ele>627.2</ele>
        <time>2019-08-12T05:46:46Z</time>
      </trkpt>
      <trkpt lat="38.9940190" lon="-3.9241930">
        <ele>627.1</ele>
        <time>2019-08-12T05:46:47Z</time>
      </trkpt>
      <trkpt lat="38.9940610" lon="-3.9242450">
        <ele>627.1</ele>
        <time>2019-08-12T05:46:48Z</time>
      </trkpt>
      <trkpt lat="38.9941030" lon="-3.9242990">
        <ele>627.2</ele>
        <time>2019-08-12T05:46:49Z</time>
      </trkpt>
      <trkpt lat="38.9941430" lon="-3.9243540">
        <ele>627.1</ele>
        <time>2019-08-12T05:46:50Z</time>
      </trkpt>
      <trkpt lat="38.9941820" lon="-3.9244100">
        <ele>627.1</ele>
        <time>2019-08-12T05:46:51Z</time>
      </trkpt>
      <trkpt lat="38.9942200" lon="-3.9244670">
        <ele>627.0</ele>
        <time>2019-08-12T05:46:52Z</time>
      </trkpt>
      <trkpt lat="38.9942570" lon="-3.9245250">
        <ele>627.0</ele>
        <time>2019-08-12T05:46:53Z</time>
      </trkpt>
      <trkpt lat="38.9942930" lon="-3.9245830">
        <ele>626.9</ele>
        <time>2019-08-12T05:46:54Z</time>
      </trkpt>
      <trkpt lat="38.9943290" lon="-3.9246430">
        <ele>626.8</ele>
        <time>2019-08-12T05:46:55Z</time>
      </trkpt>
      <trkpt lat="38.9943640" lon="-3.9247030">
        <ele>626.8</ele>
        <time>2019-08-12T05:46:56Z</time>
      </trkpt>
      <trkpt lat="38.9943980" lon="-3.9247630">
        <ele>626.8</ele>
        <time>2019-08-12T05:46:57Z</time>
      </trkpt>
      <trkpt lat="38.9944320" lon="-3.9248240">
        <ele>626.8</ele>
        <time>2019-08-12T05:46:58Z</time>
      </trkpt>
      <trkpt lat="38.9944650" lon="-3.9248860">
        <ele>626.8</ele>
        <time>2019-08-12T05:46:59Z</time>
      </trkpt>
      <trkpt lat="38.9944980" lon="-3.9249470">
        <ele>626.9</ele>
        <time>2019-08-12T05:47:00Z</time>
      </trkpt>
      <trkpt lat="38.9945310" lon="-3.9250090">
        <ele>626.9</ele>
        <time>2019-08-12T05:47:01Z</time>
      </trkpt>
      <trkpt lat="38.9945640" lon="-3.9250710">
        <ele>627.0</ele>
        <time>2019-08-12T05:47:02Z</time>
      </trkpt>
      <trkpt lat="38.9945960" lon="-3.9251330">
        <ele>627.0</ele>
        <time>2019-08-12T05:47:03Z</time>
      </trkpt>
      <trkpt lat="38.9946300" lon="-3.9251950">
        <ele>627.1</ele>
        <time>2019-08-12T05:47:04Z</time>
      </trkpt>
      <trkpt lat="38.9946630" lon="-3.9252570">
        <ele>627.2</ele>
        <time>2019-08-12T05:47:05Z</time>
      </trkpt>
      <trkpt lat="38.9946970" lon="-3.9253190">
        <ele>627.2</ele>
        <time>2019-08-12T05:47:06Z</time>
      </trkpt>
      <trkpt lat="38.9947310" lon="-3.9253800">
        <ele>627.3</ele>
        <time>2019-08-12T05:47:07Z</time>
      </trkpt>
      <trkpt lat="38.9947660" lon="-3.9254420">
        <ele>627.3</ele>
        <time>2019-08-12T05:47:08Z</time>
      </trkpt>
      <trkpt lat="38.9948010" lon="-3.9255030">
        <ele>627.3</ele>
        <time>2019-08-12T05:47:09Z</time>
      </trkpt>
      <trkpt lat="38.9948360" lon="-3.9255640">
        <ele>627.3</ele>
        <time>2019-08-12T05:47:10Z</time>
      </trkpt>
      <trkpt lat="38.9948710" lon="-3.9256260">
        <ele>627.4</ele>
        <time>2019-08-12T05:47:11Z</time>
      </trkpt>
      <trkpt lat="38.9949060" lon="-3.9256870">
        <ele>627.5</ele>
        <time>2019-08-12T05:47:12Z</time>
      </trkpt>
      <trkpt lat="38.9949400" lon="-3.9257490">
        <ele>627.6</ele>
        <time>2019-08-12T05:47:13Z</time>
      </trkpt>
      <trkpt lat="38.9949740" lon="-3.9258100">
        <ele>627.7</ele>
        <time>2019-08-12T05:47:14Z</time>
      </trkpt>
      <trkpt lat="38.9950080" lon="-3.9258720">
        <ele>627.8</ele>
        <time>2019-08-12T05:47:15Z</time>
      </trkpt>
      <trkpt lat="38.9950420" lon="-3.9259340">
        <ele>627.9</ele>
        <time>2019-08-12T05:47:16Z</time>
      </trkpt>
      <trkpt lat="38.9950750" lon="-3.9259960">
        <ele>627.9</ele>
        <time>2019-08-12T05:47:17Z</time>
      </trkpt>
      <trkpt lat="38.9951080" lon="-3.9260580">
        <ele>627.9</ele>
        <time>2019-08-12T05:47:18Z</time>
      </trkpt>
      <trkpt lat="38.9951410" lon="-3.9261200">
        <ele>628.0</ele>
        <time>2019-08-12T05:47:19Z</time>
      </trkpt>
      <trkpt lat="38.9951730" lon="-3.9261820">
        <ele>628.0</ele>
        <time>2019-08-12T05:47:20Z</time>
      </trkpt>
      <trkpt lat="38.9952060" lon="-3.9262430">
        <ele>628.0</ele>
        <time>2019-08-12T05:47:21Z</time>
      </trkpt>
      <trkpt lat="38.9952380" lon="-3.9263050">
        <ele>628.1</ele>
        <time>2019-08-12T05:47:22Z</time>
      </trkpt>
      <trkpt lat="38.9952710" lon="-3.9263670">
        <ele>628.1</ele>
        <time>2019-08-12T05:47:23Z</time>
      </trkpt>
      <trkpt lat="38.9953030" lon="-3.9264280">
        <ele>628.2</ele>
        <time>2019-08-12T05:47:24Z</time>
      </trkpt>
      <trkpt lat="38.9953360" lon="-3.9264890">
        <ele>628.3</ele>
        <time>2019-08-12T05:47:25Z</time>
      </trkpt>
      <trkpt lat="38.9953680" lon="-3.9265500">
        <ele>628.3</ele>
        <time>2019-08-12T05:47:26Z</time>
      </trkpt>
      <trkpt lat="38.9954010" lon="-3.9266110">
        <ele>628.5</ele>
        <time>2019-08-12T05:47:27Z</time>
      </trkpt>
      <trkpt lat="38.9954340" lon="-3.9266710">
        <ele>628.6</ele>
        <time>2019-08-12T05:47:28Z</time>
      </trkpt>
      <trkpt lat="38.9954670" lon="-3.9267320">
        <ele>628.7</ele>
        <time>2019-08-12T05:47:29Z</time>
      </trkpt>
      <trkpt lat="38.9955000" lon="-3.9267920">
        <ele>628.8</ele>
        <time>2019-08-12T05:47:30Z</time>
      </trkpt>
      <trkpt lat="38.9955340" lon="-3.9268520">
        <ele>628.8</ele>
        <time>2019-08-12T05:47:31Z</time>
      </trkpt>
      <trkpt lat="38.9955670" lon="-3.9269120">
        <ele>628.9</ele>
        <time>2019-08-12T05:47:32Z</time>
      </trkpt>
      <trkpt lat="38.9956010" lon="-3.9269720">
        <ele>628.9</ele>
        <time>2019-08-12T05:47:33Z</time>
      </trkpt>
      <trkpt lat="38.9956340" lon="-3.9270310">
        <ele>628.9</ele>
        <time>2019-08-12T05:47:34Z</time>
      </trkpt>
      <trkpt lat="38.9956680" lon="-3.9270920">
        <ele>628.9</ele>
        <time>2019-08-12T05:47:35Z</time>
      </trkpt>
      <trkpt lat="38.9957000" lon="-3.9271520">
        <ele>628.9</ele>
        <time>2019-08-12T05:47:36Z</time>
      </trkpt>
      <trkpt lat="38.9957300" lon="-3.9272140">
        <ele>628.8</ele>
        <time>2019-08-12T05:47:37Z</time>
      </trkpt>
      <trkpt lat="38.9957580" lon="-3.9272770">
        <ele>628.8</ele>
        <time>2019-08-12T05:47:38Z</time>
      </trkpt>
      <trkpt lat="38.9957840" lon="-3.9273410">
        <ele>628.7</ele>
        <time>2019-08-12T05:47:39Z</time>
      </trkpt>
      <trkpt lat="38.9958080" lon="-3.9274050">
        <ele>628.7</ele>
        <time>2019-08-12T05:47:40Z</time>
      </trkpt>
      <trkpt lat="38.9958350" lon="-3.9274670">
        <ele>628.6</ele>
        <time>2019-08-12T05:47:41Z</time>
      </trkpt>
      <trkpt lat="38.9958660" lon="-3.9275240">
        <ele>628.5</ele>
        <time>2019-08-12T05:47:42Z</time>
      </trkpt>
      <trkpt lat="38.9959020" lon="-3.9275750">
        <ele>628.6</ele>
        <time>2019-08-12T05:47:43Z</time>
      </trkpt>
      <trkpt lat="38.9959440" lon="-3.9276210">
        <ele>628.6</ele>
        <time>2019-08-12T05:47:44Z</time>
      </trkpt>
      <trkpt lat="38.9959900" lon="-3.9276620">
        <ele>628.6</ele>
        <time>2019-08-12T05:47:45Z</time>
      </trkpt>
      <trkpt lat="38.9960380" lon="-3.9277020">
        <ele>628.6</ele>
        <time>2019-08-12T05:47:46Z</time>
      </trkpt>
      <trkpt lat="38.9960880" lon="-3.9277390">
        <ele>628.6</ele>
        <time>2019-08-12T05:47:47Z</time>
      </trkpt>
      <trkpt lat="38.9961380" lon="-3.9277760">
        <ele>628.6</ele>
        <time>2019-08-12T05:47:48Z</time>
      </trkpt>
      <trkpt lat="38.9961880" lon="-3.9278060">
        <ele>628.6</ele>
        <time>2019-08-12T05:47:49Z</time>
      </trkpt>
      <trkpt lat="38.9962400" lon="-3.9278270">
        <ele>628.5</ele>
        <time>2019-08-12T05:47:50Z</time>
      </trkpt>
      <trkpt lat="38.9962940" lon="-3.9278390">
        <ele>628.5</ele>
        <time>2019-08-12T05:47:51Z</time>
      </trkpt>
      <trkpt lat="38.9963490" lon="-3.9278450">
        <ele>628.5</ele>
        <time>2019-08-12T05:47:52Z</time>
      </trkpt>
      <trkpt lat="38.9964060" lon="-3.9278470">
        <ele>628.5</ele>
        <time>2019-08-12T05:47:53Z</time>
      </trkpt>
      <trkpt lat="38.9964630" lon="-3.9278460">
        <ele>628.5</ele>
        <time>2019-08-12T05:47:54Z</time>
      </trkpt>
      <trkpt lat="38.9965210" lon="-3.9278430">
        <ele>628.5</ele>
        <time>2019-08-12T05:47:55Z</time>
      </trkpt>
      <trkpt lat="38.9965790" lon="-3.9278390">
        <ele>628.4</ele>
        <time>2019-08-12T05:47:56Z</time>
      </trkpt>
      <trkpt lat="38.9966380" lon="-3.9278360">
        <ele>628.4</ele>
        <time>2019-08-12T05:47:57Z</time>
      </trkpt>
      <trkpt lat="38.9966960" lon="-3.9278330">
        <ele>628.4</ele>
        <time>2019-08-12T05:47:58Z</time>
      </trkpt>
      <trkpt lat="38.9967550" lon="-3.9278310">
        <ele>628.3</ele>
        <time>2019-08-12T05:47:59Z</time>
      </trkpt>
      <trkpt lat="38.9968140" lon="-3.9278290">
        <ele>628.3</ele>
        <time>2019-08-12T05:48:00Z</time>
      </trkpt>
      <trkpt lat="38.9968720" lon="-3.9278280">
        <ele>628.3</ele>
        <time>2019-08-12T05:48:01Z</time>
      </trkpt>
      <trkpt lat="38.9969310" lon="-3.9278270">
        <ele>628.2</ele>
        <time>2019-08-12T05:48:02Z</time>
      </trkpt>
      <trkpt lat="38.9969910" lon="-3.9278270">
        <ele>628.2</ele>
        <time>2019-08-12T05:48:03Z</time>
      </trkpt>
      <trkpt lat="38.9970500" lon="-3.9278270">
        <ele>628.2</ele>
        <time>2019-08-12T05:48:04Z</time>
      </trkpt>
      <trkpt lat="38.9971090" lon="-3.9278270">
        <ele>628.1</ele>
        <time>2019-08-12T05:48:05Z</time>
      </trkpt>
      <trkpt lat="38.9971690" lon="-3.9278280">
        <ele>628.1</ele>
        <time>2019-08-12T05:48:06Z</time>
      </trkpt>
      <trkpt lat="38.9972290" lon="-3.9278280">
        <ele>628.1</ele>
        <time>2019-08-12T05:48:07Z</time>
      </trkpt>
      <trkpt lat="38.9972890" lon="-3.9278290">
        <ele>628.0</ele>
        <time>2019-08-12T05:48:08Z</time>
      </trkpt>
      <trkpt lat="38.9973490" lon="-3.9278300">
        <ele>628.0</ele>
        <time>2019-08-12T05:48:09Z</time>
      </trkpt>
      <trkpt lat="38.9974100" lon="-3.9278300">
        <ele>628.0</ele>
        <time>2019-08-12T05:48:10Z</time>
      </trkpt>
      <trkpt lat="38.9974710" lon="-3.9278310">
        <ele>628.0</ele>
        <time>2019-08-12T05:48:11Z</time>
      </trkpt>
      <trkpt lat="38.9975330" lon="-3.9278310">
        <ele>628.0</ele>
        <time>2019-08-12T05:48:12Z</time>
      </trkpt>
      <trkpt lat="38.9975950" lon="-3.9278310">
        <ele>628.0</ele>
        <time>2019-08-12T05:48:13Z</time>
      </trkpt>
      <trkpt lat="38.9976570" lon="-3.9278320">
        <ele>628.1</ele>
        <time>2019-08-12T05:48:14Z</time>
      </trkpt>
      <trkpt lat="38.9977200" lon="-3.9278330">
        <ele>628.0</ele>
        <time>2019-08-12T05:48:15Z</time>
      </trkpt>
      <trkpt lat="38.9977820" lon="-3.9278340">
        <ele>627.9</ele>
        <time>2019-08-12T05:48:16Z</time>
      </trkpt>
      <trkpt lat="38.9978450" lon="-3.9278350">
        <ele>627.8</ele>
        <time>2019-08-12T05:48:17Z</time>
      </trkpt>
      <trkpt lat="38.9979400" lon="-3.9278380">
        <ele>627.8</ele>
        <time>2019-08-12T05:48:18Z</time>
      </trkpt>
      <trkpt lat="38.9979720" lon="-3.9278390">
        <ele>627.8</ele>
        <time>2019-08-12T05:48:19Z</time>
      </trkpt>
      <trkpt lat="38.9980350" lon="-3.9278420">
        <ele>627.8</ele>
        <time>2019-08-12T05:48:20Z</time>
      </trkpt>
      <trkpt lat="38.9980980" lon="-3.9278450">
        <ele>627.8</ele>
        <time>2019-08-12T05:48:21Z</time>
      </trkpt>
      <trkpt lat="38.9981610" lon="-3.9278480">
        <ele>627.8</ele>
        <time>2019-08-12T05:48:22Z</time>
      </trkpt>
      <trkpt lat="38.9982250" lon="-3.9278510">
        <ele>627.9</ele>
        <time>2019-08-12T05:48:23Z</time>
      </trkpt>
      <trkpt lat="38.9982880" lon="-3.9278530">
        <ele>628.1</ele>
        <time>2019-08-12T05:48:24Z</time>
      </trkpt>
      <trkpt lat="38.9983510" lon="-3.9278540">
        <ele>628.6</ele>
        <time>2019-08-12T05:48:25Z</time>
      </trkpt>
      <trkpt lat="38.9984140" lon="-3.9278560">
        <ele>628.0</ele>
        <time>2019-08-12T05:48:26Z</time>
      </trkpt>
      <trkpt lat="38.9984780" lon="-3.9278610">
        <ele>627.6</ele>
        <time>2019-08-12T05:48:27Z</time>
      </trkpt>
      <trkpt lat="38.9985410" lon="-3.9278680">
        <ele>627.4</ele>
        <time>2019-08-12T05:48:28Z</time>
      </trkpt>
      <trkpt lat="38.9986060" lon="-3.9278800">
        <ele>627.3</ele>
        <time>2019-08-12T05:48:29Z</time>
      </trkpt>
      <trkpt lat="38.9986700" lon="-3.9278940">
        <ele>627.3</ele>
        <time>2019-08-12T05:48:30Z</time>
      </trkpt>
      <trkpt lat="38.9987350" lon="-3.9279090">
        <ele>627.3</ele>
        <time>2019-08-12T05:48:31Z</time>
      </trkpt>
      <trkpt lat="38.9987980" lon="-3.9279220">
        <ele>627.3</ele>
        <time>2019-08-12T05:48:32Z</time>
      </trkpt>
      <trkpt lat="38.9988610" lon="-3.9279300">
        <ele>627.3</ele>
        <time>2019-08-12T05:48:33Z</time>
      </trkpt>
      <trkpt lat="38.9989230" lon="-3.9279330">
        <ele>627.4</ele>
        <time>2019-08-12T05:48:34Z</time>
      </trkpt>
      <trkpt lat="38.9989830" lon="-3.9279320">
        <ele>627.5</ele>
        <time>2019-08-12T05:48:35Z</time>
      </trkpt>
      <trkpt lat="38.9990430" lon="-3.9279280">
        <ele>627.6</ele>
        <time>2019-08-12T05:48:36Z</time>
      </trkpt>
      <trkpt lat="38.9991020" lon="-3.9279240">
        <ele>627.7</ele>
        <time>2019-08-12T05:48:37Z</time>
      </trkpt>
      <trkpt lat="38.9991600" lon="-3.9279220">
        <ele>627.8</ele>
        <time>2019-08-12T05:48:38Z</time>
      </trkpt>
      <trkpt lat="38.9992170" lon="-3.9279210">
        <ele>627.9</ele>
        <time>2019-08-12T05:48:39Z</time>
      </trkpt>
      <trkpt lat="38.9992740" lon="-3.9279210">
        <ele>628.0</ele>
        <time>2019-08-12T05:48:40Z</time>
      </trkpt>
      <trkpt lat="38.9993310" lon="-3.9279210">
        <ele>628.1</ele>
        <time>2019-08-12T05:48:41Z</time>
      </trkpt>
      <trkpt lat="38.9993870" lon="-3.9279210">
        <ele>628.3</ele>
        <time>2019-08-12T05:48:42Z</time>
      </trkpt>
      <trkpt lat="38.9994430" lon="-3.9279210">
        <ele>628.4</ele>
        <time>2019-08-12T05:48:43Z</time>
      </trkpt>
      <trkpt lat="38.9994990" lon="-3.9279190">
        <ele>628.6</ele>
        <time>2019-08-12T05:48:44Z</time>
      </trkpt>
      <trkpt lat="38.9995550" lon="-3.9279150">
        <ele>628.7</ele>
        <time>2019-08-12T05:48:45Z</time>
      </trkpt>
      <trkpt lat="38.9996390" lon="-3.9279040">
        <ele>628.8</ele>
        <time>2019-08-12T05:48:46Z</time>
      </trkpt>
      <trkpt lat="38.9996670" lon="-3.9278990">
        <ele>628.8</ele>
        <time>2019-08-12T05:48:47Z</time>
      </trkpt>
      <trkpt lat="38.9997220" lon="-3.9278890">
        <ele>628.8</ele>
        <time>2019-08-12T05:48:48Z</time>
      </trkpt>
      <trkpt lat="38.9997780" lon="-3.9278780">
        <ele>628.9</ele>
        <time>2019-08-12T05:48:49Z</time>
      </trkpt>
      <trkpt lat="38.9998330" lon="-3.9278680">
        <ele>628.9</ele>
        <time>2019-08-12T05:48:50Z</time>
      </trkpt>
      <trkpt lat="38.9998880" lon="-3.9278610">
        <ele>628.9</ele>
        <time>2019-08-12T05:48:51Z</time>
      </trkpt>
      <trkpt lat="38.9999430" lon="-3.9278570">
        <ele>628.9</ele>
        <time>2019-08-12T05:48:52Z</time>
      </trkpt>
      <trkpt lat="38.9999970" lon="-3.9278560">
        <ele>628.9</ele>
        <time>2019-08-12T05:48:53Z</time>
      </trkpt>
      <trkpt lat="39.0000520" lon="-3.9278550">
        <ele>628.9</ele>
        <time>2019-08-12T05:48:54Z</time>
      </trkpt>
      <trkpt lat="39.0001070" lon="-3.9278540">
        <ele>628.9</ele>
        <time>2019-08-12T05:48:55Z</time>
      </trkpt>
      <trkpt lat="39.0001630" lon="-3.9278520">
        <ele>628.8</ele>
        <time>2019-08-12T05:48:56Z</time>
      </trkpt>
      <trkpt lat="39.0002200" lon="-3.9278480">
        <ele>628.8</ele>
        <time>2019-08-12T05:48:57Z</time>
      </trkpt>
      <trkpt lat="39.0002760" lon="-3.9278430">
        <ele>628.8</ele>
        <time>2019-08-12T05:48:58Z</time>
      </trkpt>
      <trkpt lat="39.0003320" lon="-3.9278370">
        <ele>628.8</ele>
        <time>2019-08-12T05:48:59Z</time>
      </trkpt>
      <trkpt lat="39.0003880" lon="-3.9278300">
        <ele>628.8</ele>
        <time>2019-08-12T05:49:00Z</time>
      </trkpt>
      <trkpt lat="39.0004430" lon="-3.9278230">
        <ele>628.7</ele>
        <time>2019-08-12T05:49:01Z</time>
      </trkpt>
      <trkpt lat="39.0004960" lon="-3.9278150">
        <ele>628.7</ele>
        <time>2019-08-12T05:49:02Z</time>
      </trkpt>
      <trkpt lat="39.0005480" lon="-3.9278080">
        <ele>628.7</ele>
        <time>2019-08-12T05:49:03Z</time>
      </trkpt>
      <trkpt lat="39.0005980" lon="-3.9278010">
        <ele>628.7</ele>
        <time>2019-08-12T05:49:04Z</time>
      </trkpt>
      <trkpt lat="39.0006450" lon="-3.9277950">
        <ele>628.6</ele>
        <time>2019-08-12T05:49:05Z</time>
      </trkpt>
      <trkpt lat="39.0006870" lon="-3.9277890">
        <ele>628.6</ele>
        <time>2019-08-12T05:49:06Z</time>
      </trkpt>
      <trkpt lat="39.0007210" lon="-3.9277840">
        <ele>628.6</ele>
        <time>2019-08-12T05:49:07Z</time>
      </trkpt>
      <trkpt lat="39.0007450" lon="-3.9277800">
        <ele>628.6</ele>
        <time>2019-08-12T05:49:08Z</time>
      </trkpt>
      <trkpt lat="39.0007670" lon="-3.9277760">
        <ele>628.6</ele>
        <time>2019-08-12T05:49:09Z</time>
      </trkpt>
      <trkpt lat="39.0007950" lon="-3.9277700">
        <ele>628.6</ele>
        <time>2019-08-12T05:49:10Z</time>
      </trkpt>
      <trkpt lat="39.0008290" lon="-3.9277610">
        <ele>628.5</ele>
        <time>2019-08-12T05:49:11Z</time>
      </trkpt>
      <trkpt lat="39.0008670" lon="-3.9277510">
        <ele>628.5</ele>
        <time>2019-08-12T05:49:12Z</time>
      </trkpt>
      <trkpt lat="39.0009090" lon="-3.9277400">
        <ele>628.5</ele>
        <time>2019-08-12T05:49:13Z</time>
      </trkpt>
      <trkpt lat="39.0009540" lon="-3.9277270">
        <ele>628.4</ele>
        <time>2019-08-12T05:49:14Z</time>
      </trkpt>
      <trkpt lat="39.0010000" lon="-3.9277150">
        <ele>628.3</ele>
        <time>2019-08-12T05:49:15Z</time>
      </trkpt>
      <trkpt lat="39.0010480" lon="-3.9277030">
        <ele>628.2</ele>
        <time>2019-08-12T05:49:16Z</time>
      </trkpt>
      <trkpt lat="39.0010970" lon="-3.9276900">
        <ele>628.1</ele>
        <time>2019-08-12T05:49:17Z</time>
      </trkpt>
      <trkpt lat="39.0011470" lon="-3.9276780">
        <ele>628.1</ele>
        <time>2019-08-12T05:49:18Z</time>
      </trkpt>
      <trkpt lat="39.0011980" lon="-3.9276660">
        <ele>628.0</ele>
        <time>2019-08-12T05:49:19Z</time>
      </trkpt>
      <trkpt lat="39.0012490" lon="-3.9276530">
        <ele>627.9</ele>
        <time>2019-08-12T05:49:20Z</time>
      </trkpt>
      <trkpt lat="39.0013020" lon="-3.9276390">
        <ele>627.9</ele>
        <time>2019-08-12T05:49:21Z</time>
      </trkpt>
      <trkpt lat="39.0013540" lon="-3.9276250">
        <ele>627.9</ele>
        <time>2019-08-12T05:49:22Z</time>
      </trkpt>
      <trkpt lat="39.0014080" lon="-3.9276110">
        <ele>627.9</ele>
        <time>2019-08-12T05:49:23Z</time>
      </trkpt>
      <trkpt lat="39.0014610" lon="-3.9275950">
        <ele>627.9</ele>
        <time>2019-08-12T05:49:24Z</time>
      </trkpt>
      <trkpt lat="39.0015140" lon="-3.9275790">
        <ele>627.9</ele>
        <time>2019-08-12T05:49:25Z</time>
      </trkpt>
      <trkpt lat="39.0015680" lon="-3.9275620">
        <ele>627.9</ele>
        <time>2019-08-12T05:49:26Z</time>
      </trkpt>
      <trkpt lat="39.0016230" lon="-3.9275450">
        <ele>627.8</ele>
        <time>2019-08-12T05:49:27Z</time>
      </trkpt>
      <trkpt lat="39.0016780" lon="-3.9275280">
        <ele>627.8</ele>
        <time>2019-08-12T05:49:28Z</time>
      </trkpt>
      <trkpt lat="39.0017330" lon="-3.9275120">
        <ele>627.8</ele>
        <time>2019-08-12T05:49:29Z</time>
      </trkpt>
      <trkpt lat="39.0017890" lon="-3.9274960">
        <ele>627.7</ele>
        <time>2019-08-12T05:49:30Z</time>
      </trkpt>
      <trkpt lat="39.0018450" lon="-3.9274810">
        <ele>627.7</ele>
        <time>2019-08-12T05:49:31Z</time>
      </trkpt>
      <trkpt lat="39.0019010" lon="-3.9274660">
        <ele>627.7</ele>
        <time>2019-08-12T05:49:32Z</time>
      </trkpt>
      <trkpt lat="39.0019940" lon="-3.9274450">
        <ele>627.6</ele>
        <time>2019-08-12T05:49:33Z</time>
      </trkpt>
      <trkpt lat="39.0020320" lon="-3.9274360">
        <ele>627.6</ele>
        <time>2019-08-12T05:49:34Z</time>
      </trkpt>
      <trkpt lat="39.0020690" lon="-3.9274280">
        <ele>627.6</ele>
        <time>2019-08-12T05:49:35Z</time>
      </trkpt>
      <trkpt lat="39.0021250" lon="-3.9274150">
        <ele>627.5</ele>
        <time>2019-08-12T05:49:36Z</time>
      </trkpt>
      <trkpt lat="39.0021810" lon="-3.9274020">
        <ele>627.5</ele>
        <time>2019-08-12T05:49:37Z</time>
      </trkpt>
      <trkpt lat="39.0022760" lon="-3.9273760">
        <ele>627.4</ele>
        <time>2019-08-12T05:49:38Z</time>
      </trkpt>
      <trkpt lat="39.0023140" lon="-3.9273640">
        <ele>627.4</ele>
        <time>2019-08-12T05:49:39Z</time>
      </trkpt>
      <trkpt lat="39.0023520" lon="-3.9273530">
        <ele>627.4</ele>
        <time>2019-08-12T05:49:40Z</time>
      </trkpt>
      <trkpt lat="39.0024090" lon="-3.9273330">
        <ele>627.3</ele>
        <time>2019-08-12T05:49:41Z</time>
      </trkpt>
      <trkpt lat="39.0024660" lon="-3.9273120">
        <ele>627.3</ele>
        <time>2019-08-12T05:49:42Z</time>
      </trkpt>
      <trkpt lat="39.0025220" lon="-3.9272870">
        <ele>627.2</ele>
        <time>2019-08-12T05:49:43Z</time>
      </trkpt>
      <trkpt lat="39.0025760" lon="-3.9272580">
        <ele>627.1</ele>
        <time>2019-08-12T05:49:44Z</time>
      </trkpt>
      <trkpt lat="39.0026270" lon="-3.9272230">
        <ele>627.0</ele>
        <time>2019-08-12T05:49:45Z</time>
      </trkpt>
      <trkpt lat="39.0026730" lon="-3.9271800">
        <ele>626.9</ele>
        <time>2019-08-12T05:49:46Z</time>
      </trkpt>
      <trkpt lat="39.0027140" lon="-3.9271280">
        <ele>626.8</ele>
        <time>2019-08-12T05:49:47Z</time>
      </trkpt>
      <trkpt lat="39.0027530" lon="-3.9270730">
        <ele>626.9</ele>
        <time>2019-08-12T05:49:48Z</time>
      </trkpt>
      <trkpt lat="39.0027910" lon="-3.9270170">
        <ele>627.0</ele>
        <time>2019-08-12T05:49:49Z</time>
      </trkpt>
      <trkpt lat="39.0028320" lon="-3.9269680">
        <ele>627.1</ele>
        <time>2019-08-12T05:49:50Z</time>
      </trkpt>
      <trkpt lat="39.0028770" lon="-3.9269280">
        <ele>627.2</ele>
        <time>2019-08-12T05:49:51Z</time>
      </trkpt>
      <trkpt lat="39.0029290" lon="-3.9269030">
        <ele>627.3</ele>
        <time>2019-08-12T05:49:52Z</time>
      </trkpt>
      <trkpt lat="39.0029860" lon="-3.9268940">
        <ele>627.4</ele>
        <time>2019-08-12T05:49:53Z</time>
      </trkpt>
      <trkpt lat="39.0030410" lon="-3.9269080">
        <ele>627.5</ele>
        <time>2019-08-12T05:49:54Z</time>
      </trkpt>
      <trkpt lat="39.0030950" lon="-3.9269230">
        <ele>627.5</ele>
        <time>2019-08-12T05:49:55Z</time>
      </trkpt>
      <trkpt lat="39.0031480" lon="-3.9269550">
        <ele>627.4</ele>
        <time>2019-08-12T05:49:56Z</time>
      </trkpt>
      <trkpt lat="39.0032030" lon="-3.9269880">
        <ele>627.5</ele>
        <time>2019-08-12T05:49:57Z</time>
      </trkpt>
      <trkpt lat="39.0032610" lon="-3.9270130">
        <ele>627.6</ele>
        <time>2019-08-12T05:49:58Z</time>
      </trkpt>
      <trkpt lat="39.0033230" lon="-3.9270230">
        <ele>627.7</ele>
        <time>2019-08-12T05:49:59Z</time>
      </trkpt>
      <trkpt lat="39.0033860" lon="-3.9270210">
        <ele>627.9</ele>
        <time>2019-08-12T05:50:00Z</time>
      </trkpt>
      <trkpt lat="39.0034490" lon="-3.9270150">
        <ele>628.0</ele>
        <time>2019-08-12T05:50:01Z</time>
      </trkpt>
      <trkpt lat="39.0035110" lon="-3.9270050">
        <ele>628.1</ele>
        <time>2019-08-12T05:50:02Z</time>
      </trkpt>
      <trkpt lat="39.0035730" lon="-3.9269930">
        <ele>628.2</ele>
        <time>2019-08-12T05:50:03Z</time>
      </trkpt>
      <trkpt lat="39.0036350" lon="-3.9269800">
        <ele>628.2</ele>
        <time>2019-08-12T05:50:04Z</time>
      </trkpt>
      <trkpt lat="39.0036970" lon="-3.9269660">
        <ele>628.1</ele>
        <time>2019-08-12T05:50:05Z</time>
      </trkpt>
      <trkpt lat="39.0037590" lon="-3.9269530">
        <ele>628.0</ele>
        <time>2019-08-12T05:50:06Z</time>
      </trkpt>
      <trkpt lat="39.0038220" lon="-3.9269390">
        <ele>627.9</ele>
        <time>2019-08-12T05:50:07Z</time>
      </trkpt>
      <trkpt lat="39.0038840" lon="-3.9269260">
        <ele>627.9</ele>
        <time>2019-08-12T05:50:08Z</time>
      </trkpt>
      <trkpt lat="39.0039460" lon="-3.9269120">
        <ele>627.8</ele>
        <time>2019-08-12T05:50:09Z</time>
      </trkpt>
      <trkpt lat="39.0040070" lon="-3.9268980">
        <ele>627.7</ele>
        <time>2019-08-12T05:50:10Z</time>
      </trkpt>
      <trkpt lat="39.0040670" lon="-3.9268830">
        <ele>627.7</ele>
        <time>2019-08-12T05:50:11Z</time>
      </trkpt>
      <trkpt lat="39.0041260" lon="-3.9268670">
        <ele>627.7</ele>
        <time>2019-08-12T05:50:12Z</time>
      </trkpt>
      <trkpt lat="39.0041860" lon="-3.9268520">
        <ele>627.6</ele>
        <time>2019-08-12T05:50:13Z</time>
      </trkpt>
      <trkpt lat="39.0042770" lon="-3.9268280">
        <ele>627.6</ele>
        <time>2019-08-12T05:50:14Z</time>
      </trkpt>
      <trkpt lat="39.0043070" lon="-3.9268200">
        <ele>627.6</ele>
        <time>2019-08-12T05:50:15Z</time>
      </trkpt>
      <trkpt lat="39.0043680" lon="-3.9268050">
        <ele>627.6</ele>
        <time>2019-08-12T05:50:16Z</time>
      </trkpt>
      <trkpt lat="39.0044290" lon="-3.9267890">
        <ele>627.5</ele>
        <time>2019-08-12T05:50:17Z</time>
      </trkpt>
      <trkpt lat="39.0044910" lon="-3.9267740">
        <ele>627.5</ele>
        <time>2019-08-12T05:50:18Z</time>
      </trkpt>
      <trkpt lat="39.0045530" lon="-3.9267590">
        <ele>627.5</ele>
        <time>2019-08-12T05:50:19Z</time>
      </trkpt>
      <trkpt lat="39.0046150" lon="-3.9267440">
        <ele>627.5</ele>
        <time>2019-08-12T05:50:20Z</time>
      </trkpt>
      <trkpt lat="39.0046760" lon="-3.9267300">
        <ele>627.5</ele>
        <time>2019-08-12T05:50:21Z</time>
      </trkpt>
      <trkpt lat="39.0047380" lon="-3.9267150">
        <ele>627.5</ele>
        <time>2019-08-12T05:50:22Z</time>
      </trkpt>
      <trkpt lat="39.0048000" lon="-3.9267010">
        <ele>627.5</ele>
        <time>2019-08-12T05:50:23Z</time>
      </trkpt>
      <trkpt lat="39.0048610" lon="-3.9266870">
        <ele>627.4</ele>
        <time>2019-08-12T05:50:24Z</time>
      </trkpt>
      <trkpt lat="39.0049230" lon="-3.9266730">
        <ele>627.4</ele>
        <time>2019-08-12T05:50:25Z</time>
      </trkpt>
      <trkpt lat="39.0049840" lon="-3.9266590">
        <ele>627.4</ele>
        <time>2019-08-12T05:50:26Z</time>
      </trkpt>
      <trkpt lat="39.0050450" lon="-3.9266450">
        <ele>627.4</ele>
        <time>2019-08-12T05:50:27Z</time>
      </trkpt>
      <trkpt lat="39.0051060" lon="-3.9266310">
        <ele>627.4</ele>
        <time>2019-08-12T05:50:28Z</time>
      </trkpt>
      <trkpt lat="39.0051670" lon="-3.9266170">
        <ele>627.4</ele>
        <time>2019-08-12T05:50:29Z</time>
      </trkpt>
      <trkpt lat="39.0052280" lon="-3.9266030">
        <ele>627.4</ele>
        <time>2019-08-12T05:50:30Z</time>
      </trkpt>
      <trkpt lat="39.0052890" lon="-3.9265890">
        <ele>627.4</ele>
        <time>2019-08-12T05:50:31Z</time>
      </trkpt>
      <trkpt lat="39.0053500" lon="-3.9265750">
        <ele>627.3</ele>
        <time>2019-08-12T05:50:32Z</time>
      </trkpt>
      <trkpt lat="39.0054100" lon="-3.9265600">
        <ele>627.3</ele>
        <time>2019-08-12T05:50:33Z</time>
      </trkpt>
      <trkpt lat="39.0054710" lon="-3.9265460">
        <ele>627.3</ele>
        <time>2019-08-12T05:50:34Z</time>
      </trkpt>
      <trkpt lat="39.0055320" lon="-3.9265310">
        <ele>627.3</ele>
        <time>2019-08-12T05:50:35Z</time>
      </trkpt>
      <trkpt lat="39.0055930" lon="-3.9265150">
        <ele>627.3</ele>
        <time>2019-08-12T05:50:36Z</time>
      </trkpt>
      <trkpt lat="39.0056950" lon="-3.9264880">
        <ele>627.3</ele>
        <time>2019-08-12T05:50:37Z</time>
      </trkpt>
      <trkpt lat="39.0057350" lon="-3.9264780">
        <ele>627.3</ele>
        <time>2019-08-12T05:50:38Z</time>
      </trkpt>
      <trkpt lat="39.0057760" lon="-3.9264670">
        <ele>627.3</ele>
        <time>2019-08-12T05:50:39Z</time>
      </trkpt>
      <trkpt lat="39.0058380" lon="-3.9264500">
        <ele>627.4</ele>
        <time>2019-08-12T05:50:40Z</time>
      </trkpt>
      <trkpt lat="39.0059000" lon="-3.9264330">
        <ele>627.4</ele>
        <time>2019-08-12T05:50:41Z</time>
      </trkpt>
      <trkpt lat="39.0060020" lon="-3.9264040">
        <ele>627.4</ele>
        <time>2019-08-12T05:50:42Z</time>
      </trkpt>
      <trkpt lat="39.0060440" lon="-3.9263920">
        <ele>627.5</ele>
        <time>2019-08-12T05:50:43Z</time>
      </trkpt>
      <trkpt lat="39.0060850" lon="-3.9263810">
        <ele>627.5</ele>
        <time>2019-08-12T05:50:44Z</time>
      </trkpt>
      <trkpt lat="39.0061480" lon="-3.9263630">
        <ele>627.5</ele>
        <time>2019-08-12T05:50:45Z</time>
      </trkpt>
      <trkpt lat="39.0062100" lon="-3.9263460">
        <ele>627.6</ele>
        <time>2019-08-12T05:50:46Z</time>
      </trkpt>
      <trkpt lat="39.0062730" lon="-3.9263280">
        <ele>627.6</ele>
        <time>2019-08-12T05:50:47Z</time>
      </trkpt>
      <trkpt lat="39.0063360" lon="-3.9263110">
        <ele>627.6</ele>
        <time>2019-08-12T05:50:48Z</time>
      </trkpt>
      <trkpt lat="39.0063990" lon="-3.9262940">
        <ele>627.7</ele>
        <time>2019-08-12T05:50:49Z</time>
      </trkpt>
      <trkpt lat="39.0064620" lon="-3.9262770">
        <ele>627.7</ele>
        <time>2019-08-12T05:50:50Z</time>
      </trkpt>
      <trkpt lat="39.0065250" lon="-3.9262600">
        <ele>627.7</ele>
        <time>2019-08-12T05:50:51Z</time>
      </trkpt>
      <trkpt lat="39.0065890" lon="-3.9262420">
        <ele>627.8</ele>
        <time>2019-08-12T05:50:52Z</time>
      </trkpt>
      <trkpt lat="39.0066520" lon="-3.9262250">
        <ele>627.8</ele>
        <time>2019-08-12T05:50:53Z</time>
      </trkpt>
      <trkpt lat="39.0067160" lon="-3.9262080">
        <ele>627.9</ele>
        <time>2019-08-12T05:50:54Z</time>
      </trkpt>
      <trkpt lat="39.0067810" lon="-3.9261900">
        <ele>627.9</ele>
        <time>2019-08-12T05:50:55Z</time>
      </trkpt>
      <trkpt lat="39.0068450" lon="-3.9261720">
        <ele>628.0</ele>
        <time>2019-08-12T05:50:56Z</time>
      </trkpt>
      <trkpt lat="39.0069100" lon="-3.9261550">
        <ele>628.0</ele>
        <time>2019-08-12T05:50:57Z</time>
      </trkpt>
      <trkpt lat="39.0069750" lon="-3.9261370">
        <ele>628.0</ele>
        <time>2019-08-12T05:50:58Z</time>
      </trkpt>
      <trkpt lat="39.0070400" lon="-3.9261180">
        <ele>628.1</ele>
        <time>2019-08-12T05:50:59Z</time>
      </trkpt>
      <trkpt lat="39.0071050" lon="-3.9261000">
        <ele>628.1</ele>
        <time>2019-08-12T05:51:00Z</time>
      </trkpt>
      <trkpt lat="39.0071700" lon="-3.9260820">
        <ele>628.2</ele>
        <time>2019-08-12T05:51:01Z</time>
      </trkpt>
      <trkpt lat="39.0072350" lon="-3.9260640">
        <ele>628.2</ele>
        <time>2019-08-12T05:51:02Z</time>
      </trkpt>
      <trkpt lat="39.0073010" lon="-3.9260460">
        <ele>628.2</ele>
        <time>2019-08-12T05:51:03Z</time>
      </trkpt>
      <trkpt lat="39.0073660" lon="-3.9260280">
        <ele>628.2</ele>
        <time>2019-08-12T05:51:04Z</time>
      </trkpt>
      <trkpt lat="39.0074310" lon="-3.9260110">
        <ele>628.2</ele>
        <time>2019-08-12T05:51:05Z</time>
      </trkpt>
      <trkpt lat="39.0074960" lon="-3.9259930">
        <ele>628.2</ele>
        <time>2019-08-12T05:51:06Z</time>
      </trkpt>
      <trkpt lat="39.0075610" lon="-3.9259760">
        <ele>628.2</ele>
        <time>2019-08-12T05:51:07Z</time>
      </trkpt>
      <trkpt lat="39.0076260" lon="-3.9259580">
        <ele>628.2</ele>
        <time>2019-08-12T05:51:08Z</time>
      </trkpt>
      <trkpt lat="39.0076900" lon="-3.9259410">
        <ele>628.2</ele>
        <time>2019-08-12T05:51:09Z</time>
      </trkpt>
      <trkpt lat="39.0077550" lon="-3.9259240">
        <ele>628.2</ele>
        <time>2019-08-12T05:51:10Z</time>
      </trkpt>
      <trkpt lat="39.0078200" lon="-3.9259070">
        <ele>628.2</ele>
        <time>2019-08-12T05:51:11Z</time>
      </trkpt>
      <trkpt lat="39.0078850" lon="-3.9258900">
        <ele>628.2</ele>
        <time>2019-08-12T05:51:12Z</time>
      </trkpt>
      <trkpt lat="39.0079490" lon="-3.9258730">
        <ele>628.2</ele>
        <time>2019-08-12T05:51:13Z</time>
      </trkpt>
      <trkpt lat="39.0080140" lon="-3.9258550">
        <ele>628.1</ele>
        <time>2019-08-12T05:51:14Z</time>
      </trkpt>
      <trkpt lat="39.0080790" lon="-3.9258380">
        <ele>628.1</ele>
        <time>2019-08-12T05:51:15Z</time>
      </trkpt>
      <trkpt lat="39.0081440" lon="-3.9258200">
        <ele>628.1</ele>
        <time>2019-08-12T05:51:16Z</time>
      </trkpt>
      <trkpt lat="39.0082100" lon="-3.9258020">
        <ele>628.0</ele>
        <time>2019-08-12T05:51:17Z</time>
      </trkpt>
      <trkpt lat="39.0082750" lon="-3.9257850">
        <ele>628.0</ele>
        <time>2019-08-12T05:51:18Z</time>
      </trkpt>
      <trkpt lat="39.0083400" lon="-3.9257670">
        <ele>627.9</ele>
        <time>2019-08-12T05:51:19Z</time>
      </trkpt>
      <trkpt lat="39.0084060" lon="-3.9257480">
        <ele>627.8</ele>
        <time>2019-08-12T05:51:20Z</time>
      </trkpt>
      <trkpt lat="39.0084710" lon="-3.9257300">
        <ele>627.6</ele>
        <time>2019-08-12T05:51:21Z</time>
      </trkpt>
      <trkpt lat="39.0085370" lon="-3.9257120">
        <ele>627.5</ele>
        <time>2019-08-12T05:51:22Z</time>
      </trkpt>
      <trkpt lat="39.0086020" lon="-3.9256940">
        <ele>627.4</ele>
        <time>2019-08-12T05:51:23Z</time>
      </trkpt>
      <trkpt lat="39.0086680" lon="-3.9256750">
        <ele>627.3</ele>
        <time>2019-08-12T05:51:24Z</time>
      </trkpt>
      <trkpt lat="39.0087330" lon="-3.9256570">
        <ele>627.2</ele>
        <time>2019-08-12T05:51:25Z</time>
      </trkpt>
      <trkpt lat="39.0087990" lon="-3.9256390">
        <ele>627.1</ele>
        <time>2019-08-12T05:51:26Z</time>
      </trkpt>
      <trkpt lat="39.0088640" lon="-3.9256200">
        <ele>627.0</ele>
        <time>2019-08-12T05:51:27Z</time>
      </trkpt>
      <trkpt lat="39.0089300" lon="-3.9256020">
        <ele>627.0</ele>
        <time>2019-08-12T05:51:28Z</time>
      </trkpt>
      <trkpt lat="39.0089950" lon="-3.9255840">
        <ele>626.9</ele>
        <time>2019-08-12T05:51:29Z</time>
      </trkpt>
      <trkpt lat="39.0090610" lon="-3.9255660">
        <ele>626.9</ele>
        <time>2019-08-12T05:51:30Z</time>
      </trkpt>
      <trkpt lat="39.0091260" lon="-3.9255480">
        <ele>626.9</ele>
        <time>2019-08-12T05:51:31Z</time>
      </trkpt>
      <trkpt lat="39.0091910" lon="-3.9255300">
        <ele>626.8</ele>
        <time>2019-08-12T05:51:32Z</time>
      </trkpt>
      <trkpt lat="39.0092560" lon="-3.9255120">
        <ele>626.8</ele>
        <time>2019-08-12T05:51:33Z</time>
      </trkpt>
      <trkpt lat="39.0093210" lon="-3.9254940">
        <ele>626.8</ele>
        <time>2019-08-12T05:51:34Z</time>
      </trkpt>
      <trkpt lat="39.0093860" lon="-3.9254760">
        <ele>626.7</ele>
        <time>2019-08-12T05:51:35Z</time>
      </trkpt>
      <trkpt lat="39.0094510" lon="-3.9254590">
        <ele>626.7</ele>
        <time>2019-08-12T05:51:36Z</time>
      </trkpt>
      <trkpt lat="39.0095160" lon="-3.9254410">
        <ele>626.7</ele>
        <time>2019-08-12T05:51:37Z</time>
      </trkpt>
      <trkpt lat="39.0095810" lon="-3.9254240">
        <ele>626.7</ele>
        <time>2019-08-12T05:51:38Z</time>
      </trkpt>
      <trkpt lat="39.0096460" lon="-3.9254070">
        <ele>626.6</ele>
        <time>2019-08-12T05:51:39Z</time>
      </trkpt>
      <trkpt lat="39.0097110" lon="-3.9253890">
        <ele>626.6</ele>
        <time>2019-08-12T05:51:40Z</time>
      </trkpt>
      <trkpt lat="39.0097760" lon="-3.9253720">
        <ele>626.6</ele>
        <time>2019-08-12T05:51:41Z</time>
      </trkpt>
      <trkpt lat="39.0098410" lon="-3.9253550">
        <ele>626.6</ele>
        <time>2019-08-12T05:51:42Z</time>
      </trkpt>
      <trkpt lat="39.0099060" lon="-3.9253370">
        <ele>626.5</ele>
        <time>2019-08-12T05:51:43Z</time>
      </trkpt>
      <trkpt lat="39.0099700" lon="-3.9253200">
        <ele>626.5</ele>
        <time>2019-08-12T05:51:44Z</time>
      </trkpt>
      <trkpt lat="39.0100350" lon="-3.9253030">
        <ele>626.5</ele>
        <time>2019-08-12T05:51:45Z</time>
      </trkpt>
      <trkpt lat="39.0101000" lon="-3.9252860">
        <ele>626.4</ele>
        <time>2019-08-12T05:51:46Z</time>
      </trkpt>
      <trkpt lat="39.0101660" lon="-3.9252680">
        <ele>626.4</ele>
        <time>2019-08-12T05:51:47Z</time>
      </trkpt>
      <trkpt lat="39.0102310" lon="-3.9252510">
        <ele>626.4</ele>
        <time>2019-08-12T05:51:48Z</time>
      </trkpt>
      <trkpt lat="39.0102960" lon="-3.9252330">
        <ele>626.3</ele>
        <time>2019-08-12T05:51:49Z</time>
      </trkpt>
      <trkpt lat="39.0103610" lon="-3.9252150">
        <ele>626.3</ele>
        <time>2019-08-12T05:51:50Z</time>
      </trkpt>
      <trkpt lat="39.0104270" lon="-3.9251970">
        <ele>626.3</ele>
        <time>2019-08-12T05:51:51Z</time>
      </trkpt>
      <trkpt lat="39.0104920" lon="-3.9251790">
        <ele>626.2</ele>
        <time>2019-08-12T05:51:52Z</time>
      </trkpt>
      <trkpt lat="39.0105580" lon="-3.9251600">
        <ele>626.2</ele>
        <time>2019-08-12T05:51:53Z</time>
      </trkpt>
      <trkpt lat="39.0106230" lon="-3.9251410">
        <ele>626.1</ele>
        <time>2019-08-12T05:51:54Z</time>
      </trkpt>
      <trkpt lat="39.0106890" lon="-3.9251220">
        <ele>626.0</ele>
        <time>2019-08-12T05:51:55Z</time>
      </trkpt>
      <trkpt lat="39.0107540" lon="-3.9251020">
        <ele>625.9</ele>
        <time>2019-08-12T05:51:56Z</time>
      </trkpt>
      <trkpt lat="39.0108180" lon="-3.9250820">
        <ele>625.9</ele>
        <time>2019-08-12T05:51:57Z</time>
      </trkpt>
      <trkpt lat="39.0108830" lon="-3.9250620">
        <ele>625.8</ele>
        <time>2019-08-12T05:51:58Z</time>
      </trkpt>
      <trkpt lat="39.0109470" lon="-3.9250420">
        <ele>625.7</ele>
        <time>2019-08-12T05:51:59Z</time>
      </trkpt>
      <trkpt lat="39.0110110" lon="-3.9250230">
        <ele>625.6</ele>
        <time>2019-08-12T05:52:00Z</time>
      </trkpt>
      <trkpt lat="39.0110750" lon="-3.9250070">
        <ele>625.6</ele>
        <time>2019-08-12T05:52:01Z</time>
      </trkpt>
      <trkpt lat="39.0111400" lon="-3.9249920">
        <ele>625.5</ele>
        <time>2019-08-12T05:52:02Z</time>
      </trkpt>
      <trkpt lat="39.0112040" lon="-3.9249790">
        <ele>625.5</ele>
        <time>2019-08-12T05:52:03Z</time>
      </trkpt>
      <trkpt lat="39.0112690" lon="-3.9249680">
        <ele>625.5</ele>
        <time>2019-08-12T05:52:04Z</time>
      </trkpt>
      <trkpt lat="39.0113340" lon="-3.9249600">
        <ele>625.5</ele>
        <time>2019-08-12T05:52:05Z</time>
      </trkpt>
      <trkpt lat="39.0113990" lon="-3.9249550">
        <ele>625.4</ele>
        <time>2019-08-12T05:52:06Z</time>
      </trkpt>
      <trkpt lat="39.0114640" lon="-3.9249510">
        <ele>625.4</ele>
        <time>2019-08-12T05:52:07Z</time>
      </trkpt>
      <trkpt lat="39.0115300" lon="-3.9249480">
        <ele>625.4</ele>
        <time>2019-08-12T05:52:08Z</time>
      </trkpt>
      <trkpt lat="39.0115950" lon="-3.9249450">
        <ele>625.4</ele>
        <time>2019-08-12T05:52:09Z</time>
      </trkpt>
      <trkpt lat="39.0116620" lon="-3.9249420">
        <ele>625.4</ele>
        <time>2019-08-12T05:52:10Z</time>
      </trkpt>
      <trkpt lat="39.0117280" lon="-3.9249380">
        <ele>625.4</ele>
        <time>2019-08-12T05:52:11Z</time>
      </trkpt>
      <trkpt lat="39.0117950" lon="-3.9249330">
        <ele>625.4</ele>
        <time>2019-08-12T05:52:12Z</time>
      </trkpt>
      <trkpt lat="39.0119060" lon="-3.9249250">
        <ele>625.4</ele>
        <time>2019-08-12T05:52:13Z</time>
      </trkpt>
      <trkpt lat="39.0119500" lon="-3.9249210">
        <ele>625.4</ele>
        <time>2019-08-12T05:52:14Z</time>
      </trkpt>
      <trkpt lat="39.0119950" lon="-3.9249180">
        <ele>625.4</ele>
        <time>2019-08-12T05:52:15Z</time>
      </trkpt>
      <trkpt lat="39.0120620" lon="-3.9249140">
        <ele>625.4</ele>
        <time>2019-08-12T05:52:16Z</time>
      </trkpt>
      <trkpt lat="39.0121290" lon="-3.9249090">
        <ele>625.4</ele>
        <time>2019-08-12T05:52:17Z</time>
      </trkpt>
      <trkpt lat="39.0122390" lon="-3.9249030">
        <ele>625.4</ele>
        <time>2019-08-12T05:52:18Z</time>
      </trkpt>
      <trkpt lat="39.0122830" lon="-3.9249010">
        <ele>625.4</ele>
        <time>2019-08-12T05:52:19Z</time>
      </trkpt>
      <trkpt lat="39.0123270" lon="-3.9248990">
        <ele>625.4</ele>
        <time>2019-08-12T05:52:20Z</time>
      </trkpt>
      <trkpt lat="39.0123930" lon="-3.9248980">
        <ele>625.4</ele>
        <time>2019-08-12T05:52:21Z</time>
      </trkpt>
      <trkpt lat="39.0124580" lon="-3.9248970">
        <ele>625.4</ele>
        <time>2019-08-12T05:52:22Z</time>
      </trkpt>
      <trkpt lat="39.0125230" lon="-3.9248960">
        <ele>625.5</ele>
        <time>2019-08-12T05:52:23Z</time>
      </trkpt>
      <trkpt lat="39.0125880" lon="-3.9248960">
        <ele>625.5</ele>
        <time>2019-08-12T05:52:24Z</time>
      </trkpt>
      <trkpt lat="39.0126530" lon="-3.9248960">
        <ele>625.5</ele>
        <time>2019-08-12T05:52:25Z</time>
      </trkpt>
      <trkpt lat="39.0127180" lon="-3.9248960">
        <ele>625.5</ele>
        <time>2019-08-12T05:52:26Z</time>
      </trkpt>
      <trkpt lat="39.0127820" lon="-3.9248970">
        <ele>625.6</ele>
        <time>2019-08-12T05:52:27Z</time>
      </trkpt>
      <trkpt lat="39.0128470" lon="-3.9248970">
        <ele>625.6</ele>
        <time>2019-08-12T05:52:28Z</time>
      </trkpt>
      <trkpt lat="39.0129120" lon="-3.9248980">
        <ele>625.6</ele>
        <time>2019-08-12T05:52:29Z</time>
      </trkpt>
      <trkpt lat="39.0129770" lon="-3.9248980">
        <ele>625.6</ele>
        <time>2019-08-12T05:52:30Z</time>
      </trkpt>
      <trkpt lat="39.0130420" lon="-3.9248980">
        <ele>625.6</ele>
        <time>2019-08-12T05:52:31Z</time>
      </trkpt>
      <trkpt lat="39.0131060" lon="-3.9248980">
        <ele>625.5</ele>
        <time>2019-08-12T05:52:32Z</time>
      </trkpt>
      <trkpt lat="39.0131710" lon="-3.9248980">
        <ele>625.5</ele>
        <time>2019-08-12T05:52:33Z</time>
      </trkpt>
      <trkpt lat="39.0132360" lon="-3.9248980">
        <ele>625.4</ele>
        <time>2019-08-12T05:52:34Z</time>
      </trkpt>
      <trkpt lat="39.0133010" lon="-3.9248980">
        <ele>625.4</ele>
        <time>2019-08-12T05:52:35Z</time>
      </trkpt>
      <trkpt lat="39.0133650" lon="-3.9248990">
        <ele>625.3</ele>
        <time>2019-08-12T05:52:36Z</time>
      </trkpt>
      <trkpt lat="39.0134300" lon="-3.9248990">
        <ele>625.2</ele>
        <time>2019-08-12T05:52:37Z</time>
      </trkpt>
      <trkpt lat="39.0134940" lon="-3.9249000">
        <ele>625.1</ele>
        <time>2019-08-12T05:52:38Z</time>
      </trkpt>
      <trkpt lat="39.0135580" lon="-3.9249000">
        <ele>625.0</ele>
        <time>2019-08-12T05:52:39Z</time>
      </trkpt>
      <trkpt lat="39.0136220" lon="-3.9249010">
        <ele>624.9</ele>
        <time>2019-08-12T05:52:40Z</time>
      </trkpt>
      <trkpt lat="39.0136860" lon="-3.9249020">
        <ele>624.9</ele>
        <time>2019-08-12T05:52:41Z</time>
      </trkpt>
      <trkpt lat="39.0137500" lon="-3.9249030">
        <ele>624.8</ele>
        <time>2019-08-12T05:52:42Z</time>
      </trkpt>
      <trkpt lat="39.0138140" lon="-3.9249040">
        <ele>624.7</ele>
        <time>2019-08-12T05:52:43Z</time>
      </trkpt>
      <trkpt lat="39.0138770" lon="-3.9249050">
        <ele>624.7</ele>
        <time>2019-08-12T05:52:44Z</time>
      </trkpt>
      <trkpt lat="39.0139410" lon="-3.9249060">
        <ele>624.7</ele>
        <time>2019-08-12T05:52:45Z</time>
      </trkpt>
      <trkpt lat="39.0140040" lon="-3.9249070">
        <ele>624.7</ele>
        <time>2019-08-12T05:52:46Z</time>
      </trkpt>
      <trkpt lat="39.0140680" lon="-3.9249090">
        <ele>624.6</ele>
        <time>2019-08-12T05:52:47Z</time>
      </trkpt>
      <trkpt lat="39.0141310" lon="-3.9249100">
        <ele>624.6</ele>
        <time>2019-08-12T05:52:48Z</time>
      </trkpt>
      <trkpt lat="39.0141950" lon="-3.9249110">
        <ele>624.6</ele>
        <time>2019-08-12T05:52:49Z</time>
      </trkpt>
      <trkpt lat="39.0142580" lon="-3.9249120">
        <ele>624.6</ele>
        <time>2019-08-12T05:52:50Z</time>
      </trkpt>
      <trkpt lat="39.0143220" lon="-3.9249140">
        <ele>624.6</ele>
        <time>2019-08-12T05:52:51Z</time>
      </trkpt>
      <trkpt lat="39.0143850" lon="-3.9249150">
        <ele>624.5</ele>
        <time>2019-08-12T05:52:52Z</time>
      </trkpt>
      <trkpt lat="39.0144480" lon="-3.9249160">
        <ele>624.5</ele>
        <time>2019-08-12T05:52:53Z</time>
      </trkpt>
      <trkpt lat="39.0145120" lon="-3.9249180">
        <ele>624.5</ele>
        <time>2019-08-12T05:52:54Z</time>
      </trkpt>
      <trkpt lat="39.0145750" lon="-3.9249190">
        <ele>624.5</ele>
        <time>2019-08-12T05:52:55Z</time>
      </trkpt>
      <trkpt lat="39.0146380" lon="-3.9249200">
        <ele>624.4</ele>
        <time>2019-08-12T05:52:56Z</time>
      </trkpt>
      <trkpt lat="39.0147020" lon="-3.9249210">
        <ele>624.4</ele>
        <time>2019-08-12T05:52:57Z</time>
      </trkpt>
      <trkpt lat="39.0147650" lon="-3.9249220">
        <ele>624.4</ele>
        <time>2019-08-12T05:52:58Z</time>
      </trkpt>
      <trkpt lat="39.0148280" lon="-3.9249230">
        <ele>624.4</ele>
        <time>2019-08-12T05:52:59Z</time>
      </trkpt>
      <trkpt lat="39.0148910" lon="-3.9249240">
        <ele>624.4</ele>
        <time>2019-08-12T05:53:00Z</time>
      </trkpt>
      <trkpt lat="39.0149550" lon="-3.9249250">
        <ele>624.4</ele>
        <time>2019-08-12T05:53:01Z</time>
      </trkpt>
      <trkpt lat="39.0150180" lon="-3.9249260">
        <ele>624.4</ele>
        <time>2019-08-12T05:53:02Z</time>
      </trkpt>
      <trkpt lat="39.0150810" lon="-3.9249270">
        <ele>624.4</ele>
        <time>2019-08-12T05:53:03Z</time>
      </trkpt>
      <trkpt lat="39.0151440" lon="-3.9249280">
        <ele>624.5</ele>
        <time>2019-08-12T05:53:04Z</time>
      </trkpt>
      <trkpt lat="39.0152070" lon="-3.9249290">
        <ele>624.5</ele>
        <time>2019-08-12T05:53:05Z</time>
      </trkpt>
      <trkpt lat="39.0152700" lon="-3.9249300">
        <ele>624.5</ele>
        <time>2019-08-12T05:53:06Z</time>
      </trkpt>
      <trkpt lat="39.0153340" lon="-3.9249300">
        <ele>624.6</ele>
        <time>2019-08-12T05:53:07Z</time>
      </trkpt>
      <trkpt lat="39.0153970" lon="-3.9249310">
        <ele>624.6</ele>
        <time>2019-08-12T05:53:08Z</time>
      </trkpt>
      <trkpt lat="39.0154600" lon="-3.9249310">
        <ele>624.7</ele>
        <time>2019-08-12T05:53:09Z</time>
      </trkpt>
      <trkpt lat="39.0155230" lon="-3.9249320">
        <ele>624.7</ele>
        <time>2019-08-12T05:53:10Z</time>
      </trkpt>
      <trkpt lat="39.0155860" lon="-3.9249320">
        <ele>624.7</ele>
        <time>2019-08-12T05:53:11Z</time>
      </trkpt>
      <trkpt lat="39.0156480" lon="-3.9249320">
        <ele>624.8</ele>
        <time>2019-08-12T05:53:12Z</time>
      </trkpt>
      <trkpt lat="39.0157110" lon="-3.9249330">
        <ele>624.8</ele>
        <time>2019-08-12T05:53:13Z</time>
      </trkpt>
      <trkpt lat="39.0157740" lon="-3.9249330">
        <ele>624.8</ele>
        <time>2019-08-12T05:53:14Z</time>
      </trkpt>
      <trkpt lat="39.0158360" lon="-3.9249330">
        <ele>624.8</ele>
        <time>2019-08-12T05:53:15Z</time>
      </trkpt>
      <trkpt lat="39.0158990" lon="-3.9249330">
        <ele>624.8</ele>
        <time>2019-08-12T05:53:16Z</time>
      </trkpt>
      <trkpt lat="39.0159610" lon="-3.9249340">
        <ele>624.8</ele>
        <time>2019-08-12T05:53:17Z</time>
      </trkpt>
      <trkpt lat="39.0160230" lon="-3.9249340">
        <ele>624.8</ele>
        <time>2019-08-12T05:53:18Z</time>
      </trkpt>
      <trkpt lat="39.0160850" lon="-3.9249340">
        <ele>624.9</ele>
        <time>2019-08-12T05:53:19Z</time>
      </trkpt>
      <trkpt lat="39.0161470" lon="-3.9249340">
        <ele>624.9</ele>
        <time>2019-08-12T05:53:20Z</time>
      </trkpt>
      <trkpt lat="39.0162400" lon="-3.9249340">
        <ele>625.0</ele>
        <time>2019-08-12T05:53:21Z</time>
      </trkpt>
      <trkpt lat="39.0162710" lon="-3.9249340">
        <ele>625.0</ele>
        <time>2019-08-12T05:53:22Z</time>
      </trkpt>
      <trkpt lat="39.0163320" lon="-3.9249340">
        <ele>625.0</ele>
        <time>2019-08-12T05:53:23Z</time>
      </trkpt>
      <trkpt lat="39.0163940" lon="-3.9249340">
        <ele>625.1</ele>
        <time>2019-08-12T05:53:24Z</time>
      </trkpt>
      <trkpt lat="39.0164550" lon="-3.9249350">
        <ele>625.1</ele>
        <time>2019-08-12T05:53:25Z</time>
      </trkpt>
      <trkpt lat="39.0165160" lon="-3.9249350">
        <ele>625.2</ele>
        <time>2019-08-12T05:53:26Z</time>
      </trkpt>
      <trkpt lat="39.0165770" lon="-3.9249350">
        <ele>625.2</ele>
        <time>2019-08-12T05:53:27Z</time>
      </trkpt>
      <trkpt lat="39.0166380" lon="-3.9249360">
        <ele>625.2</ele>
        <time>2019-08-12T05:53:28Z</time>
      </trkpt>
      <trkpt lat="39.0167000" lon="-3.9249360">
        <ele>625.2</ele>
        <time>2019-08-12T05:53:29Z</time>
      </trkpt>
      <trkpt lat="39.0167610" lon="-3.9249370">
        <ele>625.2</ele>
        <time>2019-08-12T05:53:30Z</time>
      </trkpt>
      <trkpt lat="39.0168230" lon="-3.9249370">
        <ele>625.2</ele>
        <time>2019-08-12T05:53:31Z</time>
      </trkpt>
      <trkpt lat="39.0168850" lon="-3.9249380">
        <ele>625.3</ele>
        <time>2019-08-12T05:53:32Z</time>
      </trkpt>
      <trkpt lat="39.0169470" lon="-3.9249390">
        <ele>625.3</ele>
        <time>2019-08-12T05:53:33Z</time>
      </trkpt>
      <trkpt lat="39.0170100" lon="-3.9249410">
        <ele>625.3</ele>
        <time>2019-08-12T05:53:34Z</time>
      </trkpt>
      <trkpt lat="39.0170730" lon="-3.9249420">
        <ele>625.3</ele>
        <time>2019-08-12T05:53:35Z</time>
      </trkpt>
      <trkpt lat="39.0171370" lon="-3.9249440">
        <ele>625.4</ele>
        <time>2019-08-12T05:53:36Z</time>
      </trkpt>
      <trkpt lat="39.0172010" lon="-3.9249450">
        <ele>625.4</ele>
        <time>2019-08-12T05:53:37Z</time>
      </trkpt>
      <trkpt lat="39.0172660" lon="-3.9249470">
        <ele>625.4</ele>
        <time>2019-08-12T05:53:38Z</time>
      </trkpt>
      <trkpt lat="39.0173300" lon="-3.9249480">
        <ele>625.4</ele>
        <time>2019-08-12T05:53:39Z</time>
      </trkpt>
      <trkpt lat="39.0173960" lon="-3.9249500">
        <ele>625.4</ele>
        <time>2019-08-12T05:53:40Z</time>
      </trkpt>
      <trkpt lat="39.0174960" lon="-3.9249510">
        <ele>625.4</ele>
        <time>2019-08-12T05:53:41Z</time>
      </trkpt>
      <trkpt lat="39.0175290" lon="-3.9249520">
        <ele>625.4</ele>
        <time>2019-08-12T05:53:42Z</time>
      </trkpt>
      <trkpt lat="39.0175950" lon="-3.9249540">
        <ele>625.4</ele>
        <time>2019-08-12T05:53:43Z</time>
      </trkpt>
      <trkpt lat="39.0176610" lon="-3.9249550">
        <ele>625.4</ele>
        <time>2019-08-12T05:53:44Z</time>
      </trkpt>
      <trkpt lat="39.0177260" lon="-3.9249550">
        <ele>625.4</ele>
        <time>2019-08-12T05:53:45Z</time>
      </trkpt>
      <trkpt lat="39.0177910" lon="-3.9249560">
        <ele>625.4</ele>
        <time>2019-08-12T05:53:46Z</time>
      </trkpt>
      <trkpt lat="39.0178540" lon="-3.9249560">
        <ele>625.4</ele>
        <time>2019-08-12T05:53:47Z</time>
      </trkpt>
      <trkpt lat="39.0179160" lon="-3.9249560">
        <ele>625.4</ele>
        <time>2019-08-12T05:53:48Z</time>
      </trkpt>
      <trkpt lat="39.0179770" lon="-3.9249560">
        <ele>625.4</ele>
        <time>2019-08-12T05:53:49Z</time>
      </trkpt>
      <trkpt lat="39.0180390" lon="-3.9249560">
        <ele>625.4</ele>
        <time>2019-08-12T05:53:50Z</time>
      </trkpt>
      <trkpt lat="39.0181010" lon="-3.9249550">
        <ele>625.4</ele>
        <time>2019-08-12T05:53:51Z</time>
      </trkpt>
      <trkpt lat="39.0181640" lon="-3.9249550">
        <ele>625.4</ele>
        <time>2019-08-12T05:53:52Z</time>
      </trkpt>
      <trkpt lat="39.0182700" lon="-3.9249540">
        <ele>625.4</ele>
        <time>2019-08-12T05:53:53Z</time>
      </trkpt>
      <trkpt lat="39.0183120" lon="-3.9249530">
        <ele>625.4</ele>
        <time>2019-08-12T05:53:54Z</time>
      </trkpt>
      <trkpt lat="39.0183550" lon="-3.9249530">
        <ele>625.4</ele>
        <time>2019-08-12T05:53:55Z</time>
      </trkpt>
      <trkpt lat="39.0184190" lon="-3.9249520">
        <ele>625.4</ele>
        <time>2019-08-12T05:53:56Z</time>
      </trkpt>
      <trkpt lat="39.0184840" lon="-3.9249520">
        <ele>625.4</ele>
        <time>2019-08-12T05:53:57Z</time>
      </trkpt>
      <trkpt lat="39.0185480" lon="-3.9249510">
        <ele>625.4</ele>
        <time>2019-08-12T05:53:58Z</time>
      </trkpt>
      <trkpt lat="39.0186120" lon="-3.9249510">
        <ele>625.3</ele>
        <time>2019-08-12T05:53:59Z</time>
      </trkpt>
      <trkpt lat="39.0186770" lon="-3.9249510">
        <ele>625.3</ele>
        <time>2019-08-12T05:54:00Z</time>
      </trkpt>
      <trkpt lat="39.0187410" lon="-3.9249510">
        <ele>625.3</ele>
        <time>2019-08-12T05:54:01Z</time>
      </trkpt>
      <trkpt lat="39.0188060" lon="-3.9249510">
        <ele>625.3</ele>
        <time>2019-08-12T05:54:02Z</time>
      </trkpt>
      <trkpt lat="39.0188700" lon="-3.9249510">
        <ele>625.2</ele>
        <time>2019-08-12T05:54:03Z</time>
      </trkpt>
      <trkpt lat="39.0189350" lon="-3.9249510">
        <ele>625.2</ele>
        <time>2019-08-12T05:54:04Z</time>
      </trkpt>
      <trkpt lat="39.0189990" lon="-3.9249510">
        <ele>625.2</ele>
        <time>2019-08-12T05:54:05Z</time>
      </trkpt>
      <trkpt lat="39.0190640" lon="-3.9249510">
        <ele>625.2</ele>
        <time>2019-08-12T05:54:06Z</time>
      </trkpt>
      <trkpt lat="39.0191290" lon="-3.9249510">
        <ele>625.2</ele>
        <time>2019-08-12T05:54:07Z</time>
      </trkpt>
      <trkpt lat="39.0191930" lon="-3.9249510">
        <ele>625.1</ele>
        <time>2019-08-12T05:54:08Z</time>
      </trkpt>
      <trkpt lat="39.0192580" lon="-3.9249520">
        <ele>625.1</ele>
        <time>2019-08-12T05:54:09Z</time>
      </trkpt>
      <trkpt lat="39.0193230" lon="-3.9249520">
        <ele>625.1</ele>
        <time>2019-08-12T05:54:10Z</time>
      </trkpt>
      <trkpt lat="39.0193890" lon="-3.9249520">
        <ele>625.0</ele>
        <time>2019-08-12T05:54:11Z</time>
      </trkpt>
      <trkpt lat="39.0194540" lon="-3.9249530">
        <ele>625.0</ele>
        <time>2019-08-12T05:54:12Z</time>
      </trkpt>
      <trkpt lat="39.0195200" lon="-3.9249530">
        <ele>625.0</ele>
        <time>2019-08-12T05:54:13Z</time>
      </trkpt>
      <trkpt lat="39.0195860" lon="-3.9249540">
        <ele>625.0</ele>
        <time>2019-08-12T05:54:14Z</time>
      </trkpt>
      <trkpt lat="39.0196850" lon="-3.9249540">
        <ele>625.0</ele>
        <time>2019-08-12T05:54:15Z</time>
      </trkpt>
      <trkpt lat="39.0197180" lon="-3.9249550">
        <ele>625.0</ele>
        <time>2019-08-12T05:54:16Z</time>
      </trkpt>
      <trkpt lat="39.0197850" lon="-3.9249560">
        <ele>625.0</ele>
        <time>2019-08-12T05:54:17Z</time>
      </trkpt>
      <trkpt lat="39.0198520" lon="-3.9249570">
        <ele>624.9</ele>
        <time>2019-08-12T05:54:18Z</time>
      </trkpt>
      <trkpt lat="39.0199200" lon="-3.9249580">
        <ele>624.9</ele>
        <time>2019-08-12T05:54:19Z</time>
      </trkpt>
      <trkpt lat="39.0199870" lon="-3.9249600">
        <ele>624.9</ele>
        <time>2019-08-12T05:54:20Z</time>
      </trkpt>
      <trkpt lat="39.0200550" lon="-3.9249610">
        <ele>624.9</ele>
        <time>2019-08-12T05:54:21Z</time>
      </trkpt>
      <trkpt lat="39.0201230" lon="-3.9249630">
        <ele>624.8</ele>
        <time>2019-08-12T05:54:22Z</time>
      </trkpt>
      <trkpt lat="39.0201900" lon="-3.9249650">
        <ele>624.8</ele>
        <time>2019-08-12T05:54:23Z</time>
      </trkpt>
      <trkpt lat="39.0202560" lon="-3.9249670">
        <ele>624.7</ele>
        <time>2019-08-12T05:54:24Z</time>
      </trkpt>
      <trkpt lat="39.0203220" lon="-3.9249680">
        <ele>624.7</ele>
        <time>2019-08-12T05:54:25Z</time>
      </trkpt>
      <trkpt lat="39.0203870" lon="-3.9249700">
        <ele>624.7</ele>
        <time>2019-08-12T05:54:26Z</time>
      </trkpt>
      <trkpt lat="39.0204510" lon="-3.9249720">
        <ele>624.6</ele>
        <time>2019-08-12T05:54:27Z</time>
      </trkpt>
      <trkpt lat="39.0205140" lon="-3.9249740">
        <ele>624.6</ele>
        <time>2019-08-12T05:54:28Z</time>
      </trkpt>
      <trkpt lat="39.0205770" lon="-3.9249760">
        <ele>624.6</ele>
        <time>2019-08-12T05:54:29Z</time>
      </trkpt>
      <trkpt lat="39.0206380" lon="-3.9249780">
        <ele>624.5</ele>
        <time>2019-08-12T05:54:30Z</time>
      </trkpt>
      <trkpt lat="39.0206990" lon="-3.9249800">
        <ele>624.5</ele>
        <time>2019-08-12T05:54:31Z</time>
      </trkpt>
      <trkpt lat="39.0207920" lon="-3.9249820">
        <ele>624.5</ele>
        <time>2019-08-12T05:54:32Z</time>
      </trkpt>
      <trkpt lat="39.0208220" lon="-3.9249830">
        <ele>624.4</ele>
        <time>2019-08-12T05:54:33Z</time>
      </trkpt>
      <trkpt lat="39.0208850" lon="-3.9249840">
        <ele>624.4</ele>
        <time>2019-08-12T05:54:34Z</time>
      </trkpt>
      <trkpt lat="39.0209470" lon="-3.9249860">
        <ele>624.4</ele>
        <time>2019-08-12T05:54:35Z</time>
      </trkpt>
      <trkpt lat="39.0210100" lon="-3.9249870">
        <ele>624.4</ele>
        <time>2019-08-12T05:54:36Z</time>
      </trkpt>
      <trkpt lat="39.0210730" lon="-3.9249880">
        <ele>624.4</ele>
        <time>2019-08-12T05:54:37Z</time>
      </trkpt>
      <trkpt lat="39.0211370" lon="-3.9249890">
        <ele>624.4</ele>
        <time>2019-08-12T05:54:38Z</time>
      </trkpt>
      <trkpt lat="39.0212430" lon="-3.9249900">
        <ele>624.4</ele>
        <time>2019-08-12T05:54:39Z</time>
      </trkpt>
      <trkpt lat="39.0212860" lon="-3.9249910">
        <ele>624.4</ele>
        <time>2019-08-12T05:54:40Z</time>
      </trkpt>
      <trkpt lat="39.0213280" lon="-3.9249910">
        <ele>624.5</ele>
        <time>2019-08-12T05:54:41Z</time>
      </trkpt>
      <trkpt lat="39.0213920" lon="-3.9249920">
        <ele>624.6</ele>
        <time>2019-08-12T05:54:42Z</time>
      </trkpt>
      <trkpt lat="39.0214570" lon="-3.9249930">
        <ele>624.7</ele>
        <time>2019-08-12T05:54:43Z</time>
      </trkpt>
      <trkpt lat="39.0215530" lon="-3.9249940">
        <ele>624.9</ele>
        <time>2019-08-12T05:54:44Z</time>
      </trkpt>
      <trkpt lat="39.0215850" lon="-3.9249940">
        <ele>625.0</ele>
        <time>2019-08-12T05:54:45Z</time>
      </trkpt>
      <trkpt lat="39.0216480" lon="-3.9249950">
        <ele>625.1</ele>
        <time>2019-08-12T05:54:46Z</time>
      </trkpt>
      <trkpt lat="39.0217120" lon="-3.9249960">
        <ele>625.2</ele>
        <time>2019-08-12T05:54:47Z</time>
      </trkpt>
      <trkpt lat="39.0217750" lon="-3.9249980">
        <ele>625.2</ele>
        <time>2019-08-12T05:54:48Z</time>
      </trkpt>
      <trkpt lat="39.0218390" lon="-3.9249990">
        <ele>625.3</ele>
        <time>2019-08-12T05:54:49Z</time>
      </trkpt>
      <trkpt lat="39.0219030" lon="-3.9250000">
        <ele>625.3</ele>
        <time>2019-08-12T05:54:50Z</time>
      </trkpt>
      <trkpt lat="39.0219680" lon="-3.9250020">
        <ele>625.3</ele>
        <time>2019-08-12T05:54:51Z</time>
      </trkpt>
      <trkpt lat="39.0220660" lon="-3.9250040">
        <ele>625.3</ele>
        <time>2019-08-12T05:54:52Z</time>
      </trkpt>
      <trkpt lat="39.0220990" lon="-3.9250050">
        <ele>625.3</ele>
        <time>2019-08-12T05:54:53Z</time>
      </trkpt>
      <trkpt lat="39.0221650" lon="-3.9250060">
        <ele>625.3</ele>
        <time>2019-08-12T05:54:54Z</time>
      </trkpt>
      <trkpt lat="39.0222320" lon="-3.9250070">
        <ele>625.2</ele>
        <time>2019-08-12T05:54:55Z</time>
      </trkpt>
      <trkpt lat="39.0222990" lon="-3.9250080">
        <ele>625.2</ele>
        <time>2019-08-12T05:54:56Z</time>
      </trkpt>
      <trkpt lat="39.0223660" lon="-3.9250090">
        <ele>625.2</ele>
        <time>2019-08-12T05:54:57Z</time>
      </trkpt>
      <trkpt lat="39.0224330" lon="-3.9250090">
        <ele>625.2</ele>
        <time>2019-08-12T05:54:58Z</time>
      </trkpt>
      <trkpt lat="39.0225010" lon="-3.9250090">
        <ele>625.2</ele>
        <time>2019-08-12T05:54:59Z</time>
      </trkpt>
      <trkpt lat="39.0226130" lon="-3.9250090">
        <ele>625.2</ele>
        <time>2019-08-12T05:55:00Z</time>
      </trkpt>
      <trkpt lat="39.0226570" lon="-3.9250090">
        <ele>625.3</ele>
        <time>2019-08-12T05:55:01Z</time>
      </trkpt>
      <trkpt lat="39.0227020" lon="-3.9250090">
        <ele>625.3</ele>
        <time>2019-08-12T05:55:02Z</time>
      </trkpt>
      <trkpt lat="39.0227690" lon="-3.9250100">
        <ele>625.4</ele>
        <time>2019-08-12T05:55:03Z</time>
      </trkpt>
      <trkpt lat="39.0228690" lon="-3.9250100">
        <ele>625.6</ele>
        <time>2019-08-12T05:55:04Z</time>
      </trkpt>
      <trkpt lat="39.0229030" lon="-3.9250100">
        <ele>625.6</ele>
        <time>2019-08-12T05:55:05Z</time>
      </trkpt>
      <trkpt lat="39.0229690" lon="-3.9250110">
        <ele>625.8</ele>
        <time>2019-08-12T05:55:06Z</time>
      </trkpt>
      <trkpt lat="39.0230350" lon="-3.9250130">
        <ele>625.9</ele>
        <time>2019-08-12T05:55:07Z</time>
      </trkpt>
      <trkpt lat="39.0231010" lon="-3.9250140">
        <ele>626.0</ele>
        <time>2019-08-12T05:55:08Z</time>
      </trkpt>
      <trkpt lat="39.0231670" lon="-3.9250150">
        <ele>626.2</ele>
        <time>2019-08-12T05:55:09Z</time>
      </trkpt>
      <trkpt lat="39.0232330" lon="-3.9250160">
        <ele>626.3</ele>
        <time>2019-08-12T05:55:10Z</time>
      </trkpt>
      <trkpt lat="39.0232980" lon="-3.9250170">
        <ele>626.4</ele>
        <time>2019-08-12T05:55:11Z</time>
      </trkpt>
      <trkpt lat="39.0233630" lon="-3.9250190">
        <ele>626.5</ele>
        <time>2019-08-12T05:55:12Z</time>
      </trkpt>
      <trkpt lat="39.0234290" lon="-3.9250200">
        <ele>626.6</ele>
        <time>2019-08-12T05:55:13Z</time>
      </trkpt>
      <trkpt lat="39.0234940" lon="-3.9250210">
        <ele>626.6</ele>
        <time>2019-08-12T05:55:14Z</time>
      </trkpt>
      <trkpt lat="39.0235590" lon="-3.9250220">
        <ele>626.7</ele>
        <time>2019-08-12T05:55:15Z</time>
      </trkpt>
      <trkpt lat="39.0236230" lon="-3.9250230">
        <ele>626.7</ele>
        <time>2019-08-12T05:55:16Z</time>
      </trkpt>
      <trkpt lat="39.0236880" lon="-3.9250240">
        <ele>626.7</ele>
        <time>2019-08-12T05:55:17Z</time>
      </trkpt>
      <trkpt lat="39.0237530" lon="-3.9250240">
        <ele>626.7</ele>
        <time>2019-08-12T05:55:18Z</time>
      </trkpt>
      <trkpt lat="39.0238600" lon="-3.9250250">
        <ele>626.6</ele>
        <time>2019-08-12T05:55:19Z</time>
      </trkpt>
      <trkpt lat="39.0239030" lon="-3.9250260">
        <ele>626.6</ele>
        <time>2019-08-12T05:55:20Z</time>
      </trkpt>
      <trkpt lat="39.0239460" lon="-3.9250260">
        <ele>626.5</ele>
        <time>2019-08-12T05:55:21Z</time>
      </trkpt>
      <trkpt lat="39.0240110" lon="-3.9250270">
        <ele>626.5</ele>
        <time>2019-08-12T05:55:22Z</time>
      </trkpt>
      <trkpt lat="39.0241080" lon="-3.9250270">
        <ele>626.3</ele>
        <time>2019-08-12T05:55:23Z</time>
      </trkpt>
      <trkpt lat="39.0241400" lon="-3.9250270">
        <ele>626.2</ele>
        <time>2019-08-12T05:55:24Z</time>
      </trkpt>
      <trkpt lat="39.0242040" lon="-3.9250280">
        <ele>626.1</ele>
        <time>2019-08-12T05:55:25Z</time>
      </trkpt>
      <trkpt lat="39.0242690" lon="-3.9250290">
        <ele>625.9</ele>
        <time>2019-08-12T05:55:26Z</time>
      </trkpt>
      <trkpt lat="39.0243340" lon="-3.9250300">
        <ele>625.7</ele>
        <time>2019-08-12T05:55:27Z</time>
      </trkpt>
      <trkpt lat="39.0243990" lon="-3.9250300">
        <ele>625.5</ele>
        <time>2019-08-12T05:55:28Z</time>
      </trkpt>
      <trkpt lat="39.0244630" lon="-3.9250310">
        <ele>625.3</ele>
        <time>2019-08-12T05:55:29Z</time>
      </trkpt>
      <trkpt lat="39.0245280" lon="-3.9250320">
        <ele>625.1</ele>
        <time>2019-08-12T05:55:30Z</time>
      </trkpt>
      <trkpt lat="39.0245940" lon="-3.9250330">
        <ele>624.8</ele>
        <time>2019-08-12T05:55:31Z</time>
      </trkpt>
      <trkpt lat="39.0246590" lon="-3.9250340">
        <ele>624.7</ele>
        <time>2019-08-12T05:55:32Z</time>
      </trkpt>
      <trkpt lat="39.0247240" lon="-3.9250350">
        <ele>624.6</ele>
        <time>2019-08-12T05:55:33Z</time>
      </trkpt>
      <trkpt lat="39.0247900" lon="-3.9250360">
        <ele>624.4</ele>
        <time>2019-08-12T05:55:34Z</time>
      </trkpt>
      <trkpt lat="39.0248560" lon="-3.9250380">
        <ele>624.4</ele>
        <time>2019-08-12T05:55:35Z</time>
      </trkpt>
      <trkpt lat="39.0249210" lon="-3.9250390">
        <ele>624.4</ele>
        <time>2019-08-12T05:55:36Z</time>
      </trkpt>
      <trkpt lat="39.0249880" lon="-3.9250410">
        <ele>624.4</ele>
        <time>2019-08-12T05:55:37Z</time>
      </trkpt>
      <trkpt lat="39.0250540" lon="-3.9250430">
        <ele>624.5</ele>
        <time>2019-08-12T05:55:38Z</time>
      </trkpt>
      <trkpt lat="39.0251200" lon="-3.9250460">
        <ele>624.5</ele>
        <time>2019-08-12T05:55:39Z</time>
      </trkpt>
      <trkpt lat="39.0251870" lon="-3.9250490">
        <ele>624.8</ele>
        <time>2019-08-12T05:55:40Z</time>
      </trkpt>
      <trkpt lat="39.0252880" lon="-3.9250540">
        <ele>625.2</ele>
        <time>2019-08-12T05:55:41Z</time>
      </trkpt>
      <trkpt lat="39.0253210" lon="-3.9250560">
        <ele>625.4</ele>
        <time>2019-08-12T05:55:42Z</time>
      </trkpt>
      <trkpt lat="39.0253880" lon="-3.9250600">
        <ele>625.7</ele>
        <time>2019-08-12T05:55:43Z</time>
      </trkpt>
      <trkpt lat="39.0254560" lon="-3.9250650">
        <ele>626.1</ele>
        <time>2019-08-12T05:55:44Z</time>
      </trkpt>
      <trkpt lat="39.0255230" lon="-3.9250710">
        <ele>626.5</ele>
        <time>2019-08-12T05:55:45Z</time>
      </trkpt>
      <trkpt lat="39.0255900" lon="-3.9250770">
        <ele>627.0</ele>
        <time>2019-08-12T05:55:46Z</time>
      </trkpt>
      <trkpt lat="39.0256570" lon="-3.9250840">
        <ele>627.5</ele>
        <time>2019-08-12T05:55:47Z</time>
      </trkpt>
      <trkpt lat="39.0257230" lon="-3.9250930">
        <ele>627.9</ele>
        <time>2019-08-12T05:55:48Z</time>
      </trkpt>
      <trkpt lat="39.0257890" lon="-3.9251020">
        <ele>628.4</ele>
        <time>2019-08-12T05:55:49Z</time>
      </trkpt>
      <trkpt lat="39.0258550" lon="-3.9251120">
        <ele>628.9</ele>
        <time>2019-08-12T05:55:50Z</time>
      </trkpt>
      <trkpt lat="39.0259200" lon="-3.9251240">
        <ele>629.3</ele>
        <time>2019-08-12T05:55:51Z</time>
      </trkpt>
      <trkpt lat="39.0259840" lon="-3.9251360">
        <ele>629.7</ele>
        <time>2019-08-12T05:55:52Z</time>
      </trkpt>
      <trkpt lat="39.0260480" lon="-3.9251500">
        <ele>630.0</ele>
        <time>2019-08-12T05:55:53Z</time>
      </trkpt>
      <trkpt lat="39.0261110" lon="-3.9251650">
        <ele>630.2</ele>
        <time>2019-08-12T05:55:54Z</time>
      </trkpt>
      <trkpt lat="39.0261740" lon="-3.9251810">
        <ele>630.4</ele>
        <time>2019-08-12T05:55:55Z</time>
      </trkpt>
      <trkpt lat="39.0262370" lon="-3.9251990">
        <ele>630.6</ele>
        <time>2019-08-12T05:55:56Z</time>
      </trkpt>
      <trkpt lat="39.0262990" lon="-3.9252170">
        <ele>630.7</ele>
        <time>2019-08-12T05:55:57Z</time>
      </trkpt>
      <trkpt lat="39.0263610" lon="-3.9252370">
        <ele>630.8</ele>
        <time>2019-08-12T05:55:58Z</time>
      </trkpt>
      <trkpt lat="39.0264220" lon="-3.9252580">
        <ele>630.9</ele>
        <time>2019-08-12T05:55:59Z</time>
      </trkpt>
      <trkpt lat="39.0264830" lon="-3.9252810">
        <ele>630.9</ele>
        <time>2019-08-12T05:56:00Z</time>
      </trkpt>
      <trkpt lat="39.0265440" lon="-3.9253040">
        <ele>631.0</ele>
        <time>2019-08-12T05:56:01Z</time>
      </trkpt>
      <trkpt lat="39.0266040" lon="-3.9253290">
        <ele>631.0</ele>
        <time>2019-08-12T05:56:02Z</time>
      </trkpt>
      <trkpt lat="39.0266650" lon="-3.9253550">
        <ele>630.9</ele>
        <time>2019-08-12T05:56:03Z</time>
      </trkpt>
      <trkpt lat="39.0267250" lon="-3.9253820">
        <ele>630.9</ele>
        <time>2019-08-12T05:56:04Z</time>
      </trkpt>
      <trkpt lat="39.0267850" lon="-3.9254100">
        <ele>630.8</ele>
        <time>2019-08-12T05:56:05Z</time>
      </trkpt>
      <trkpt lat="39.0268450" lon="-3.9254400">
        <ele>630.7</ele>
        <time>2019-08-12T05:56:06Z</time>
      </trkpt>
      <trkpt lat="39.0269050" lon="-3.9254710">
        <ele>630.5</ele>
        <time>2019-08-12T05:56:07Z</time>
      </trkpt>
      <trkpt lat="39.0270050" lon="-3.9255260">
        <ele>630.2</ele>
        <time>2019-08-12T05:56:08Z</time>
      </trkpt>
      <trkpt lat="39.0270450" lon="-3.9255480">
        <ele>630.1</ele>
        <time>2019-08-12T05:56:09Z</time>
      </trkpt>
      <trkpt lat="39.0270850" lon="-3.9255710">
        <ele>629.9</ele>
        <time>2019-08-12T05:56:10Z</time>
      </trkpt>
      <trkpt lat="39.0271450" lon="-3.9256060">
        <ele>629.7</ele>
        <time>2019-08-12T05:56:11Z</time>
      </trkpt>
      <trkpt lat="39.0272050" lon="-3.9256430">
        <ele>629.4</ele>
        <time>2019-08-12T05:56:12Z</time>
      </trkpt>
      <trkpt lat="39.0273050" lon="-3.9257050">
        <ele>628.9</ele>
        <time>2019-08-12T05:56:13Z</time>
      </trkpt>
      <trkpt lat="39.0273450" lon="-3.9257310">
        <ele>628.8</ele>
        <time>2019-08-12T05:56:14Z</time>
      </trkpt>
      <trkpt lat="39.0273850" lon="-3.9257560">
        <ele>628.6</ele>
        <time>2019-08-12T05:56:15Z</time>
      </trkpt>
      <trkpt lat="39.0274450" lon="-3.9257940">
        <ele>628.3</ele>
        <time>2019-08-12T05:56:16Z</time>
      </trkpt>
      <trkpt lat="39.0275050" lon="-3.9258320">
        <ele>628.2</ele>
        <time>2019-08-12T05:56:17Z</time>
      </trkpt>
      <trkpt lat="39.0275660" lon="-3.9258700">
        <ele>628.0</ele>
        <time>2019-08-12T05:56:18Z</time>
      </trkpt>
      <trkpt lat="39.0276260" lon="-3.9259070">
        <ele>627.8</ele>
        <time>2019-08-12T05:56:19Z</time>
      </trkpt>
      <trkpt lat="39.0276860" lon="-3.9259440">
        <ele>627.8</ele>
        <time>2019-08-12T05:56:20Z</time>
      </trkpt>
      <trkpt lat="39.0277460" lon="-3.9259810">
        <ele>627.7</ele>
        <time>2019-08-12T05:56:21Z</time>
      </trkpt>
      <trkpt lat="39.0278060" lon="-3.9260170">
        <ele>627.7</ele>
        <time>2019-08-12T05:56:22Z</time>
      </trkpt>
      <trkpt lat="39.0278660" lon="-3.9260530">
        <ele>627.6</ele>
        <time>2019-08-12T05:56:23Z</time>
      </trkpt>
      <trkpt lat="39.0279260" lon="-3.9260890">
        <ele>627.7</ele>
        <time>2019-08-12T05:56:24Z</time>
      </trkpt>
      <trkpt lat="39.0279860" lon="-3.9261240">
        <ele>627.7</ele>
        <time>2019-08-12T05:56:25Z</time>
      </trkpt>
      <trkpt lat="39.0280460" lon="-3.9261590">
        <ele>627.8</ele>
        <time>2019-08-12T05:56:26Z</time>
      </trkpt>
      <trkpt lat="39.0281050" lon="-3.9261940">
        <ele>627.9</ele>
        <time>2019-08-12T05:56:27Z</time>
      </trkpt>
      <trkpt lat="39.0281650" lon="-3.9262290">
        <ele>628.0</ele>
        <time>2019-08-12T05:56:28Z</time>
      </trkpt>
      <trkpt lat="39.0282240" lon="-3.9262640">
        <ele>628.2</ele>
        <time>2019-08-12T05:56:29Z</time>
      </trkpt>
      <trkpt lat="39.0282840" lon="-3.9262990">
        <ele>628.3</ele>
        <time>2019-08-12T05:56:30Z</time>
      </trkpt>
      <trkpt lat="39.0283430" lon="-3.9263330">
        <ele>628.5</ele>
        <time>2019-08-12T05:56:31Z</time>
      </trkpt>
      <trkpt lat="39.0284030" lon="-3.9263680">
        <ele>628.7</ele>
        <time>2019-08-12T05:56:32Z</time>
      </trkpt>
      <trkpt lat="39.0284620" lon="-3.9264030">
        <ele>628.9</ele>
        <time>2019-08-12T05:56:33Z</time>
      </trkpt>
      <trkpt lat="39.0285220" lon="-3.9264370">
        <ele>629.1</ele>
        <time>2019-08-12T05:56:34Z</time>
      </trkpt>
      <trkpt lat="39.0285820" lon="-3.9264720">
        <ele>629.3</ele>
        <time>2019-08-12T05:56:35Z</time>
      </trkpt>
      <trkpt lat="39.0286420" lon="-3.9265070">
        <ele>629.5</ele>
        <time>2019-08-12T05:56:36Z</time>
      </trkpt>
      <trkpt lat="39.0287020" lon="-3.9265420">
        <ele>629.7</ele>
        <time>2019-08-12T05:56:37Z</time>
      </trkpt>
      <trkpt lat="39.0287620" lon="-3.9265770">
        <ele>629.9</ele>
        <time>2019-08-12T05:56:38Z</time>
      </trkpt>
      <trkpt lat="39.0288220" lon="-3.9266120">
        <ele>630.2</ele>
        <time>2019-08-12T05:56:39Z</time>
      </trkpt>
      <trkpt lat="39.0288830" lon="-3.9266470">
        <ele>630.4</ele>
        <time>2019-08-12T05:56:40Z</time>
      </trkpt>
      <trkpt lat="39.0289440" lon="-3.9266820">
        <ele>630.7</ele>
        <time>2019-08-12T05:56:41Z</time>
      </trkpt>
      <trkpt lat="39.0290040" lon="-3.9267180">
        <ele>630.9</ele>
        <time>2019-08-12T05:56:42Z</time>
      </trkpt>
      <trkpt lat="39.0290650" lon="-3.9267530">
        <ele>631.2</ele>
        <time>2019-08-12T05:56:43Z</time>
      </trkpt>
      <trkpt lat="39.0291260" lon="-3.9267890">
        <ele>631.4</ele>
        <time>2019-08-12T05:56:44Z</time>
      </trkpt>
      <trkpt lat="39.0291870" lon="-3.9268250">
        <ele>631.7</ele>
        <time>2019-08-12T05:56:45Z</time>
      </trkpt>
      <trkpt lat="39.0292470" lon="-3.9268610">
        <ele>631.9</ele>
        <time>2019-08-12T05:56:46Z</time>
      </trkpt>
      <trkpt lat="39.0293080" lon="-3.9268960">
        <ele>632.2</ele>
        <time>2019-08-12T05:56:47Z</time>
      </trkpt>
      <trkpt lat="39.0293680" lon="-3.9269320">
        <ele>632.4</ele>
        <time>2019-08-12T05:56:48Z</time>
      </trkpt>
      <trkpt lat="39.0294290" lon="-3.9269680">
        <ele>632.7</ele>
        <time>2019-08-12T05:56:49Z</time>
      </trkpt>
      <trkpt lat="39.0294890" lon="-3.9270040">
        <ele>632.9</ele>
        <time>2019-08-12T05:56:50Z</time>
      </trkpt>
      <trkpt lat="39.0295490" lon="-3.9270410">
        <ele>633.1</ele>
        <time>2019-08-12T05:56:51Z</time>
      </trkpt>
      <trkpt lat="39.0296090" lon="-3.9270770">
        <ele>633.3</ele>
        <time>2019-08-12T05:56:52Z</time>
      </trkpt>
      <trkpt lat="39.0296690" lon="-3.9271130">
        <ele>633.5</ele>
        <time>2019-08-12T05:56:53Z</time>
      </trkpt>
      <trkpt lat="39.0297290" lon="-3.9271490">
        <ele>633.7</ele>
        <time>2019-08-12T05:56:54Z</time>
      </trkpt>
      <trkpt lat="39.0297890" lon="-3.9271850">
        <ele>633.9</ele>
        <time>2019-08-12T05:56:55Z</time>
      </trkpt>
      <trkpt lat="39.0298490" lon="-3.9272220">
        <ele>634.1</ele>
        <time>2019-08-12T05:56:56Z</time>
      </trkpt>
      <trkpt lat="39.0299100" lon="-3.9272580">
        <ele>634.3</ele>
        <time>2019-08-12T05:56:57Z</time>
      </trkpt>
      <trkpt lat="39.0299700" lon="-3.9272950">
        <ele>634.5</ele>
        <time>2019-08-12T05:56:58Z</time>
      </trkpt>
      <trkpt lat="39.0300300" lon="-3.9273310">
        <ele>634.6</ele>
        <time>2019-08-12T05:56:59Z</time>
      </trkpt>
      <trkpt lat="39.0300900" lon="-3.9273670">
        <ele>634.8</ele>
        <time>2019-08-12T05:57:00Z</time>
      </trkpt>
      <trkpt lat="39.0301510" lon="-3.9274040">
        <ele>634.9</ele>
        <time>2019-08-12T05:57:01Z</time>
      </trkpt>
      <trkpt lat="39.0302110" lon="-3.9274400">
        <ele>635.0</ele>
        <time>2019-08-12T05:57:02Z</time>
      </trkpt>
      <trkpt lat="39.0302720" lon="-3.9274770">
        <ele>635.0</ele>
        <time>2019-08-12T05:57:03Z</time>
      </trkpt>
      <trkpt lat="39.0303330" lon="-3.9275130">
        <ele>635.0</ele>
        <time>2019-08-12T05:57:04Z</time>
      </trkpt>
      <trkpt lat="39.0303930" lon="-3.9275500">
        <ele>634.9</ele>
        <time>2019-08-12T05:57:05Z</time>
      </trkpt>
      <trkpt lat="39.0304550" lon="-3.9275870">
        <ele>634.9</ele>
        <time>2019-08-12T05:57:06Z</time>
      </trkpt>
      <trkpt lat="39.0305160" lon="-3.9276230">
        <ele>634.8</ele>
        <time>2019-08-12T05:57:07Z</time>
      </trkpt>
      <trkpt lat="39.0305770" lon="-3.9276600">
        <ele>634.7</ele>
        <time>2019-08-12T05:57:08Z</time>
      </trkpt>
      <trkpt lat="39.0306380" lon="-3.9276970">
        <ele>634.5</ele>
        <time>2019-08-12T05:57:09Z</time>
      </trkpt>
      <trkpt lat="39.0307000" lon="-3.9277340">
        <ele>634.4</ele>
        <time>2019-08-12T05:57:10Z</time>
      </trkpt>
      <trkpt lat="39.0307610" lon="-3.9277710">
        <ele>634.3</ele>
        <time>2019-08-12T05:57:11Z</time>
      </trkpt>
      <trkpt lat="39.0308230" lon="-3.9278080">
        <ele>634.1</ele>
        <time>2019-08-12T05:57:12Z</time>
      </trkpt>
      <trkpt lat="39.0308840" lon="-3.9278450">
        <ele>634.0</ele>
        <time>2019-08-12T05:57:13Z</time>
      </trkpt>
      <trkpt lat="39.0309450" lon="-3.9278830">
        <ele>633.8</ele>
        <time>2019-08-12T05:57:14Z</time>
      </trkpt>
      <trkpt lat="39.0310070" lon="-3.9279200">
        <ele>633.7</ele>
        <time>2019-08-12T05:57:15Z</time>
      </trkpt>
      <trkpt lat="39.0310680" lon="-3.9279580">
        <ele>633.5</ele>
        <time>2019-08-12T05:57:16Z</time>
      </trkpt>
      <trkpt lat="39.0311290" lon="-3.9279960">
        <ele>633.4</ele>
        <time>2019-08-12T05:57:17Z</time>
      </trkpt>
      <trkpt lat="39.0311900" lon="-3.9280340">
        <ele>633.2</ele>
        <time>2019-08-12T05:57:18Z</time>
      </trkpt>
      <trkpt lat="39.0312510" lon="-3.9280720">
        <ele>633.1</ele>
        <time>2019-08-12T05:57:19Z</time>
      </trkpt>
      <trkpt lat="39.0313120" lon="-3.9281090">
        <ele>633.0</ele>
        <time>2019-08-12T05:57:20Z</time>
      </trkpt>
      <trkpt lat="39.0313730" lon="-3.9281460">
        <ele>632.9</ele>
        <time>2019-08-12T05:57:21Z</time>
      </trkpt>
      <trkpt lat="39.0314340" lon="-3.9281830">
        <ele>632.7</ele>
        <time>2019-08-12T05:57:22Z</time>
      </trkpt>
      <trkpt lat="39.0314950" lon="-3.9282190">
        <ele>632.7</ele>
        <time>2019-08-12T05:57:23Z</time>
      </trkpt>
      <trkpt lat="39.0315560" lon="-3.9282540">
        <ele>632.6</ele>
        <time>2019-08-12T05:57:24Z</time>
      </trkpt>
      <trkpt lat="39.0316170" lon="-3.9282890">
        <ele>632.6</ele>
        <time>2019-08-12T05:57:25Z</time>
      </trkpt>
      <trkpt lat="39.0316780" lon="-3.9283230">
        <ele>632.6</ele>
        <time>2019-08-12T05:57:26Z</time>
      </trkpt>
      <trkpt lat="39.0317380" lon="-3.9283570">
        <ele>632.6</ele>
        <time>2019-08-12T05:57:27Z</time>
      </trkpt>
      <trkpt lat="39.0317990" lon="-3.9283900">
        <ele>632.6</ele>
        <time>2019-08-12T05:57:28Z</time>
      </trkpt>
      <trkpt lat="39.0318590" lon="-3.9284230">
        <ele>632.7</ele>
        <time>2019-08-12T05:57:29Z</time>
      </trkpt>
      <trkpt lat="39.0319190" lon="-3.9284560">
        <ele>632.8</ele>
        <time>2019-08-12T05:57:30Z</time>
      </trkpt>
      <trkpt lat="39.0319790" lon="-3.9284880">
        <ele>632.9</ele>
        <time>2019-08-12T05:57:31Z</time>
      </trkpt>
      <trkpt lat="39.0320380" lon="-3.9285200">
        <ele>633.1</ele>
        <time>2019-08-12T05:57:32Z</time>
      </trkpt>
      <trkpt lat="39.0320970" lon="-3.9285520">
        <ele>633.3</ele>
        <time>2019-08-12T05:57:33Z</time>
      </trkpt>
      <trkpt lat="39.0321560" lon="-3.9285840">
        <ele>633.5</ele>
        <time>2019-08-12T05:57:34Z</time>
      </trkpt>
      <trkpt lat="39.0322150" lon="-3.9286170">
        <ele>633.8</ele>
        <time>2019-08-12T05:57:35Z</time>
      </trkpt>
      <trkpt lat="39.0322730" lon="-3.9286490">
        <ele>634.1</ele>
        <time>2019-08-12T05:57:36Z</time>
      </trkpt>
      <trkpt lat="39.0323300" lon="-3.9286810">
        <ele>634.4</ele>
        <time>2019-08-12T05:57:37Z</time>
      </trkpt>
      <trkpt lat="39.0323870" lon="-3.9287140">
        <ele>634.7</ele>
        <time>2019-08-12T05:57:38Z</time>
      </trkpt>
      <trkpt lat="39.0324440" lon="-3.9287460">
        <ele>635.0</ele>
        <time>2019-08-12T05:57:39Z</time>
      </trkpt>
      <trkpt lat="39.0325000" lon="-3.9287800">
        <ele>635.3</ele>
        <time>2019-08-12T05:57:40Z</time>
      </trkpt>
      <trkpt lat="39.0325560" lon="-3.9288130">
        <ele>635.6</ele>
        <time>2019-08-12T05:57:41Z</time>
      </trkpt>
      <trkpt lat="39.0326100" lon="-3.9288470">
        <ele>636.0</ele>
        <time>2019-08-12T05:57:42Z</time>
      </trkpt>
      <trkpt lat="39.0326650" lon="-3.9288810">
        <ele>636.3</ele>
        <time>2019-08-12T05:57:43Z</time>
      </trkpt>
      <trkpt lat="39.0327190" lon="-3.9289150">
        <ele>636.6</ele>
        <time>2019-08-12T05:57:44Z</time>
      </trkpt>
      <trkpt lat="39.0327720" lon="-3.9289480">
        <ele>636.9</ele>
        <time>2019-08-12T05:57:45Z</time>
      </trkpt>
      <trkpt lat="39.0328240" lon="-3.9289810">
        <ele>637.2</ele>
        <time>2019-08-12T05:57:46Z</time>
      </trkpt>
      <trkpt lat="39.0328770" lon="-3.9290120">
        <ele>637.5</ele>
        <time>2019-08-12T05:57:47Z</time>
      </trkpt>
      <trkpt lat="39.0329280" lon="-3.9290430">
        <ele>637.8</ele>
        <time>2019-08-12T05:57:48Z</time>
      </trkpt>
      <trkpt lat="39.0329800" lon="-3.9290720">
        <ele>638.0</ele>
        <time>2019-08-12T05:57:49Z</time>
      </trkpt>
      <trkpt lat="39.0330310" lon="-3.9291020">
        <ele>638.2</ele>
        <time>2019-08-12T05:57:50Z</time>
      </trkpt>
      <trkpt lat="39.0330810" lon="-3.9291310">
        <ele>638.5</ele>
        <time>2019-08-12T05:57:51Z</time>
      </trkpt>
      <trkpt lat="39.0331310" lon="-3.9291600">
        <ele>638.7</ele>
        <time>2019-08-12T05:57:52Z</time>
      </trkpt>
      <trkpt lat="39.0331810" lon="-3.9291890">
        <ele>638.9</ele>
        <time>2019-08-12T05:57:53Z</time>
      </trkpt>
      <trkpt lat="39.0332310" lon="-3.9292180">
        <ele>639.1</ele>
        <time>2019-08-12T05:57:54Z</time>
      </trkpt>
      <trkpt lat="39.0332810" lon="-3.9292480">
        <ele>639.3</ele>
        <time>2019-08-12T05:57:55Z</time>
      </trkpt>
      <trkpt lat="39.0333300" lon="-3.9292780">
        <ele>639.5</ele>
        <time>2019-08-12T05:57:56Z</time>
      </trkpt>
      <trkpt lat="39.0333790" lon="-3.9293080">
        <ele>639.6</ele>
        <time>2019-08-12T05:57:57Z</time>
      </trkpt>
      <trkpt lat="39.0334290" lon="-3.9293390">
        <ele>639.8</ele>
        <time>2019-08-12T05:57:58Z</time>
      </trkpt>
      <trkpt lat="39.0334780" lon="-3.9293700">
        <ele>639.9</ele>
        <time>2019-08-12T05:57:59Z</time>
      </trkpt>
      <trkpt lat="39.0335270" lon="-3.9294010">
        <ele>640.0</ele>
        <time>2019-08-12T05:58:00Z</time>
      </trkpt>
      <trkpt lat="39.0335770" lon="-3.9294320">
        <ele>640.1</ele>
        <time>2019-08-12T05:58:01Z</time>
      </trkpt>
      <trkpt lat="39.0336260" lon="-3.9294620">
        <ele>640.2</ele>
        <time>2019-08-12T05:58:02Z</time>
      </trkpt>
      <trkpt lat="39.0336760" lon="-3.9294920">
        <ele>640.2</ele>
        <time>2019-08-12T05:58:03Z</time>
      </trkpt>
      <trkpt lat="39.0337260" lon="-3.9295210">
        <ele>640.2</ele>
        <time>2019-08-12T05:58:04Z</time>
      </trkpt>
      <trkpt lat="39.0337760" lon="-3.9295500">
        <ele>640.2</ele>
        <time>2019-08-12T05:58:05Z</time>
      </trkpt>
      <trkpt lat="39.0338270" lon="-3.9295780">
        <ele>640.2</ele>
        <time>2019-08-12T05:58:06Z</time>
      </trkpt>
      <trkpt lat="39.0338770" lon="-3.9296060">
        <ele>640.1</ele>
        <time>2019-08-12T05:58:07Z</time>
      </trkpt>
      <trkpt lat="39.0339280" lon="-3.9296340">
        <ele>640.0</ele>
        <time>2019-08-12T05:58:08Z</time>
      </trkpt>
      <trkpt lat="39.0339800" lon="-3.9296610">
        <ele>639.9</ele>
        <time>2019-08-12T05:58:09Z</time>
      </trkpt>
      <trkpt lat="39.0340310" lon="-3.9296870">
        <ele>639.8</ele>
        <time>2019-08-12T05:58:10Z</time>
      </trkpt>
      <trkpt lat="39.0340830" lon="-3.9297130">
        <ele>639.7</ele>
        <time>2019-08-12T05:58:11Z</time>
      </trkpt>
      <trkpt lat="39.0341350" lon="-3.9297390">
        <ele>639.6</ele>
        <time>2019-08-12T05:58:12Z</time>
      </trkpt>
      <trkpt lat="39.0341870" lon="-3.9297650">
        <ele>639.5</ele>
        <time>2019-08-12T05:58:13Z</time>
      </trkpt>
      <trkpt lat="39.0342400" lon="-3.9297900">
        <ele>639.4</ele>
        <time>2019-08-12T05:58:14Z</time>
      </trkpt>
      <trkpt lat="39.0342920" lon="-3.9298150">
        <ele>639.3</ele>
        <time>2019-08-12T05:58:15Z</time>
      </trkpt>
      <trkpt lat="39.0343440" lon="-3.9298400">
        <ele>639.2</ele>
        <time>2019-08-12T05:58:16Z</time>
      </trkpt>
      <trkpt lat="39.0343970" lon="-3.9298660">
        <ele>639.1</ele>
        <time>2019-08-12T05:58:17Z</time>
      </trkpt>
      <trkpt lat="39.0344490" lon="-3.9298910">
        <ele>639.0</ele>
        <time>2019-08-12T05:58:18Z</time>
      </trkpt>
      <trkpt lat="39.0345020" lon="-3.9299160">
        <ele>638.9</ele>
        <time>2019-08-12T05:58:19Z</time>
      </trkpt>
      <trkpt lat="39.0345540" lon="-3.9299420">
        <ele>638.9</ele>
        <time>2019-08-12T05:58:20Z</time>
      </trkpt>
      <trkpt lat="39.0346070" lon="-3.9299670">
        <ele>638.8</ele>
        <time>2019-08-12T05:58:21Z</time>
      </trkpt>
      <trkpt lat="39.0346590" lon="-3.9299930">
        <ele>638.7</ele>
        <time>2019-08-12T05:58:22Z</time>
      </trkpt>
      <trkpt lat="39.0347120" lon="-3.9300190">
        <ele>638.7</ele>
        <time>2019-08-12T05:58:23Z</time>
      </trkpt>
      <trkpt lat="39.0347650" lon="-3.9300440">
        <ele>638.6</ele>
        <time>2019-08-12T05:58:24Z</time>
      </trkpt>
      <trkpt lat="39.0348180" lon="-3.9300700">
        <ele>638.6</ele>
        <time>2019-08-12T05:58:25Z</time>
      </trkpt>
      <trkpt lat="39.0348700" lon="-3.9300960">
        <ele>638.5</ele>
        <time>2019-08-12T05:58:26Z</time>
      </trkpt>
      <trkpt lat="39.0349230" lon="-3.9301220">
        <ele>638.5</ele>
        <time>2019-08-12T05:58:27Z</time>
      </trkpt>
      <trkpt lat="39.0349760" lon="-3.9301480">
        <ele>638.4</ele>
        <time>2019-08-12T05:58:28Z</time>
      </trkpt>
      <trkpt lat="39.0350300" lon="-3.9301740">
        <ele>638.4</ele>
        <time>2019-08-12T05:58:29Z</time>
      </trkpt>
      <trkpt lat="39.0350830" lon="-3.9302000">
        <ele>638.3</ele>
        <time>2019-08-12T05:58:30Z</time>
      </trkpt>
      <trkpt lat="39.0351360" lon="-3.9302270">
        <ele>638.3</ele>
        <time>2019-08-12T05:58:31Z</time>
      </trkpt>
      <trkpt lat="39.0351900" lon="-3.9302530">
        <ele>638.2</ele>
        <time>2019-08-12T05:58:32Z</time>
      </trkpt>
      <trkpt lat="39.0352440" lon="-3.9302800">
        <ele>638.1</ele>
        <time>2019-08-12T05:58:33Z</time>
      </trkpt>
      <trkpt lat="39.0352980" lon="-3.9303070">
        <ele>638.0</ele>
        <time>2019-08-12T05:58:34Z</time>
      </trkpt>
      <trkpt lat="39.0353520" lon="-3.9303340">
        <ele>637.8</ele>
        <time>2019-08-12T05:58:35Z</time>
      </trkpt>
      <trkpt lat="39.0354070" lon="-3.9303620">
        <ele>637.6</ele>
        <time>2019-08-12T05:58:36Z</time>
      </trkpt>
      <trkpt lat="39.0354620" lon="-3.9303900">
        <ele>637.4</ele>
        <time>2019-08-12T05:58:37Z</time>
      </trkpt>
      <trkpt lat="39.0355170" lon="-3.9304180">
        <ele>637.1</ele>
        <time>2019-08-12T05:58:38Z</time>
      </trkpt>
      <trkpt lat="39.0355730" lon="-3.9304470">
        <ele>636.8</ele>
        <time>2019-08-12T05:58:39Z</time>
      </trkpt>
      <trkpt lat="39.0356290" lon="-3.9304750">
        <ele>636.5</ele>
        <time>2019-08-12T05:58:40Z</time>
      </trkpt>
      <trkpt lat="39.0356850" lon="-3.9305040">
        <ele>636.2</ele>
        <time>2019-08-12T05:58:41Z</time>
      </trkpt>
      <trkpt lat="39.0357410" lon="-3.9305330">
        <ele>635.9</ele>
        <time>2019-08-12T05:58:42Z</time>
      </trkpt>
      <trkpt lat="39.0357980" lon="-3.9305620">
        <ele>635.5</ele>
        <time>2019-08-12T05:58:43Z</time>
      </trkpt>
      <trkpt lat="39.0358550" lon="-3.9305910">
        <ele>635.2</ele>
        <time>2019-08-12T05:58:44Z</time>
      </trkpt>
      <trkpt lat="39.0359130" lon="-3.9306200">
        <ele>634.9</ele>
        <time>2019-08-12T05:58:45Z</time>
      </trkpt>
      <trkpt lat="39.0359710" lon="-3.9306490">
        <ele>634.6</ele>
        <time>2019-08-12T05:58:46Z</time>
      </trkpt>
      <trkpt lat="39.0360290" lon="-3.9306770">
        <ele>634.2</ele>
        <time>2019-08-12T05:58:47Z</time>
      </trkpt>
      <trkpt lat="39.0360870" lon="-3.9307060">
        <ele>634.0</ele>
        <time>2019-08-12T05:58:48Z</time>
      </trkpt>
      <trkpt lat="39.0361460" lon="-3.9307340">
        <ele>633.7</ele>
        <time>2019-08-12T05:58:49Z</time>
      </trkpt>
      <trkpt lat="39.0362040" lon="-3.9307630">
        <ele>633.4</ele>
        <time>2019-08-12T05:58:50Z</time>
      </trkpt>
      <trkpt lat="39.0362630" lon="-3.9307920">
        <ele>633.2</ele>
        <time>2019-08-12T05:58:51Z</time>
      </trkpt>
      <trkpt lat="39.0363230" lon="-3.9308200">
        <ele>632.9</ele>
        <time>2019-08-12T05:58:52Z</time>
      </trkpt>
      <trkpt lat="39.0363820" lon="-3.9308490">
        <ele>632.7</ele>
        <time>2019-08-12T05:58:53Z</time>
      </trkpt>
      <trkpt lat="39.0364420" lon="-3.9308780">
        <ele>632.5</ele>
        <time>2019-08-12T05:58:54Z</time>
      </trkpt>
      <trkpt lat="39.0365020" lon="-3.9309070">
        <ele>632.3</ele>
        <time>2019-08-12T05:58:55Z</time>
      </trkpt>
      <trkpt lat="39.0365620" lon="-3.9309360">
        <ele>632.1</ele>
        <time>2019-08-12T05:58:56Z</time>
      </trkpt>
      <trkpt lat="39.0366220" lon="-3.9309650">
        <ele>631.9</ele>
        <time>2019-08-12T05:58:57Z</time>
      </trkpt>
      <trkpt lat="39.0366810" lon="-3.9309940">
        <ele>631.8</ele>
        <time>2019-08-12T05:58:58Z</time>
      </trkpt>
      <trkpt lat="39.0367410" lon="-3.9310220">
        <ele>631.7</ele>
        <time>2019-08-12T05:58:59Z</time>
      </trkpt>
      <trkpt lat="39.0368010" lon="-3.9310510">
        <ele>631.6</ele>
        <time>2019-08-12T05:59:00Z</time>
      </trkpt>
      <trkpt lat="39.0368600" lon="-3.9310800">
        <ele>631.6</ele>
        <time>2019-08-12T05:59:01Z</time>
      </trkpt>
      <trkpt lat="39.0369190" lon="-3.9311080">
        <ele>631.6</ele>
        <time>2019-08-12T05:59:02Z</time>
      </trkpt>
      <trkpt lat="39.0369770" lon="-3.9311350">
        <ele>631.6</ele>
        <time>2019-08-12T05:59:03Z</time>
      </trkpt>
      <trkpt lat="39.0370350" lon="-3.9311630">
        <ele>631.7</ele>
        <time>2019-08-12T05:59:04Z</time>
      </trkpt>
      <trkpt lat="39.0370920" lon="-3.9311900">
        <ele>631.7</ele>
        <time>2019-08-12T05:59:05Z</time>
      </trkpt>
      <trkpt lat="39.0371480" lon="-3.9312160">
        <ele>631.9</ele>
        <time>2019-08-12T05:59:06Z</time>
      </trkpt>
      <trkpt lat="39.0372040" lon="-3.9312420">
        <ele>632.1</ele>
        <time>2019-08-12T05:59:07Z</time>
      </trkpt>
      <trkpt lat="39.0372600" lon="-3.9312680">
        <ele>632.3</ele>
        <time>2019-08-12T05:59:08Z</time>
      </trkpt>
      <trkpt lat="39.0373150" lon="-3.9312930">
        <ele>632.4</ele>
        <time>2019-08-12T05:59:09Z</time>
      </trkpt>
      <trkpt lat="39.0373700" lon="-3.9313190">
        <ele>632.7</ele>
        <time>2019-08-12T05:59:10Z</time>
      </trkpt>
      <trkpt lat="39.0374250" lon="-3.9313440">
        <ele>633.0</ele>
        <time>2019-08-12T05:59:11Z</time>
      </trkpt>
      <trkpt lat="39.0374790" lon="-3.9313690">
        <ele>633.2</ele>
        <time>2019-08-12T05:59:12Z</time>
      </trkpt>
      <trkpt lat="39.0375330" lon="-3.9313950">
        <ele>633.5</ele>
        <time>2019-08-12T05:59:13Z</time>
      </trkpt>
      <trkpt lat="39.0375880" lon="-3.9314200">
        <ele>633.8</ele>
        <time>2019-08-12T05:59:14Z</time>
      </trkpt>
      <trkpt lat="39.0376420" lon="-3.9314450">
        <ele>634.1</ele>
        <time>2019-08-12T05:59:15Z</time>
      </trkpt>
      <trkpt lat="39.0376960" lon="-3.9314710">
        <ele>634.3</ele>
        <time>2019-08-12T05:59:16Z</time>
      </trkpt>
      <trkpt lat="39.0377510" lon="-3.9314960">
        <ele>634.6</ele>
        <time>2019-08-12T05:59:17Z</time>
      </trkpt>
      <trkpt lat="39.0378050" lon="-3.9315210">
        <ele>634.8</ele>
        <time>2019-08-12T05:59:18Z</time>
      </trkpt>
      <trkpt lat="39.0378600" lon="-3.9315460">
        <ele>635.1</ele>
        <time>2019-08-12T05:59:19Z</time>
      </trkpt>
      <trkpt lat="39.0379140" lon="-3.9315700">
        <ele>635.3</ele>
        <time>2019-08-12T05:59:20Z</time>
      </trkpt>
      <trkpt lat="39.0379690" lon="-3.9315930">
        <ele>635.4</ele>
        <time>2019-08-12T05:59:21Z</time>
      </trkpt>
      <trkpt lat="39.0380240" lon="-3.9316160">
        <ele>635.6</ele>
        <time>2019-08-12T05:59:22Z</time>
      </trkpt>
      <trkpt lat="39.0380800" lon="-3.9316380">
        <ele>635.8</ele>
        <time>2019-08-12T05:59:23Z</time>
      </trkpt>
      <trkpt lat="39.0381350" lon="-3.9316600">
        <ele>635.8</ele>
        <time>2019-08-12T05:59:24Z</time>
      </trkpt>
      <trkpt lat="39.0381910" lon="-3.9316800">
        <ele>635.9</ele>
        <time>2019-08-12T05:59:25Z</time>
      </trkpt>
      <trkpt lat="39.0382470" lon="-3.9317000">
        <ele>636.0</ele>
        <time>2019-08-12T05:59:26Z</time>
      </trkpt>
      <trkpt lat="39.0383040" lon="-3.9317190">
        <ele>636.1</ele>
        <time>2019-08-12T05:59:27Z</time>
      </trkpt>
      <trkpt lat="39.0383600" lon="-3.9317380">
        <ele>636.1</ele>
        <time>2019-08-12T05:59:28Z</time>
      </trkpt>
      <trkpt lat="39.0384170" lon="-3.9317550">
        <ele>636.1</ele>
        <time>2019-08-12T05:59:29Z</time>
      </trkpt>
      <trkpt lat="39.0384750" lon="-3.9317720">
        <ele>636.1</ele>
        <time>2019-08-12T05:59:30Z</time>
      </trkpt>
      <trkpt lat="39.0385330" lon="-3.9317880">
        <ele>636.1</ele>
        <time>2019-08-12T05:59:31Z</time>
      </trkpt>
      <trkpt lat="39.0385910" lon="-3.9318030">
        <ele>636.0</ele>
        <time>2019-08-12T05:59:32Z</time>
      </trkpt>
      <trkpt lat="39.0386490" lon="-3.9318180">
        <ele>636.0</ele>
        <time>2019-08-12T05:59:33Z</time>
      </trkpt>
      <trkpt lat="39.0387090" lon="-3.9318320">
        <ele>635.8</ele>
        <time>2019-08-12T05:59:34Z</time>
      </trkpt>
      <trkpt lat="39.0387680" lon="-3.9318450">
        <ele>635.6</ele>
        <time>2019-08-12T05:59:35Z</time>
      </trkpt>
      <trkpt lat="39.0388290" lon="-3.9318590">
        <ele>635.2</ele>
        <time>2019-08-12T05:59:36Z</time>
      </trkpt>
      <trkpt lat="39.0388910" lon="-3.9318710">
        <ele>634.9</ele>
        <time>2019-08-12T05:59:37Z</time>
      </trkpt>
      <trkpt lat="39.0389530" lon="-3.9318840">
        <ele>634.4</ele>
        <time>2019-08-12T05:59:38Z</time>
      </trkpt>
      <trkpt lat="39.0390160" lon="-3.9318960">
        <ele>633.9</ele>
        <time>2019-08-12T05:59:39Z</time>
      </trkpt>
      <trkpt lat="39.0390810" lon="-3.9319070">
        <ele>633.3</ele>
        <time>2019-08-12T05:59:40Z</time>
      </trkpt>
      <trkpt lat="39.0391460" lon="-3.9319170">
        <ele>632.8</ele>
        <time>2019-08-12T05:59:41Z</time>
      </trkpt>
      <trkpt lat="39.0392120" lon="-3.9319260">
        <ele>632.2</ele>
        <time>2019-08-12T05:59:42Z</time>
      </trkpt>
      <trkpt lat="39.0392790" lon="-3.9319340">
        <ele>631.7</ele>
        <time>2019-08-12T05:59:43Z</time>
      </trkpt>
      <trkpt lat="39.0393470" lon="-3.9319420">
        <ele>631.2</ele>
        <time>2019-08-12T05:59:44Z</time>
      </trkpt>
      <trkpt lat="39.0394160" lon="-3.9319480">
        <ele>630.7</ele>
        <time>2019-08-12T05:59:45Z</time>
      </trkpt>
      <trkpt lat="39.0394860" lon="-3.9319530">
        <ele>630.4</ele>
        <time>2019-08-12T05:59:46Z</time>
      </trkpt>
      <trkpt lat="39.0395570" lon="-3.9319580">
        <ele>630.0</ele>
        <time>2019-08-12T05:59:47Z</time>
      </trkpt>
      <trkpt lat="39.0396290" lon="-3.9319610">
        <ele>629.7</ele>
        <time>2019-08-12T05:59:48Z</time>
      </trkpt>
      <trkpt lat="39.0397020" lon="-3.9319640">
        <ele>629.6</ele>
        <time>2019-08-12T05:59:49Z</time>
      </trkpt>
      <trkpt lat="39.0397770" lon="-3.9319660">
        <ele>629.5</ele>
        <time>2019-08-12T05:59:50Z</time>
      </trkpt>
      <trkpt lat="39.0398520" lon="-3.9319680">
        <ele>629.3</ele>
        <time>2019-08-12T05:59:51Z</time>
      </trkpt>
      <trkpt lat="39.0399290" lon="-3.9319680">
        <ele>629.5</ele>
        <time>2019-08-12T05:59:52Z</time>
      </trkpt>
      <trkpt lat="39.0400070" lon="-3.9319680">
        <ele>629.6</ele>
        <time>2019-08-12T05:59:53Z</time>
      </trkpt>
      <trkpt lat="39.0400860" lon="-3.9319680">
        <ele>629.8</ele>
        <time>2019-08-12T05:59:54Z</time>
      </trkpt>
      <trkpt lat="39.0401650" lon="-3.9319670">
        <ele>630.1</ele>
        <time>2019-08-12T05:59:55Z</time>
      </trkpt>
      <trkpt lat="39.0402450" lon="-3.9319660">
        <ele>630.4</ele>
        <time>2019-08-12T05:59:56Z</time>
      </trkpt>
      <trkpt lat="39.0403260" lon="-3.9319650">
        <ele>630.8</ele>
        <time>2019-08-12T05:59:57Z</time>
      </trkpt>
      <trkpt lat="39.0404070" lon="-3.9319640">
        <ele>631.2</ele>
        <time>2019-08-12T05:59:58Z</time>
      </trkpt>
      <trkpt lat="39.0404900" lon="-3.9319620">
        <ele>631.6</ele>
        <time>2019-08-12T05:59:59Z</time>
      </trkpt>
      <trkpt lat="39.0405720" lon="-3.9319610">
        <ele>632.0</ele>
        <time>2019-08-12T06:00:00Z</time>
      </trkpt>
      <trkpt lat="39.0406550" lon="-3.9319600">
        <ele>632.3</ele>
        <time>2019-08-12T06:00:01Z</time>
      </trkpt>
      <trkpt lat="39.0407390" lon="-3.9319590">
        <ele>632.7</ele>
        <time>2019-08-12T06:00:02Z</time>
      </trkpt>
      <trkpt lat="39.0408230" lon="-3.9319570">
        <ele>632.9</ele>
        <time>2019-08-12T06:00:03Z</time>
      </trkpt>
      <trkpt lat="39.0409070" lon="-3.9319560">
        <ele>633.2</ele>
        <time>2019-08-12T06:00:04Z</time>
      </trkpt>
      <trkpt lat="39.0409920" lon="-3.9319550">
        <ele>633.4</ele>
        <time>2019-08-12T06:00:05Z</time>
      </trkpt>
      <trkpt lat="39.0410780" lon="-3.9319540">
        <ele>633.6</ele>
        <time>2019-08-12T06:00:06Z</time>
      </trkpt>
      <trkpt lat="39.0411630" lon="-3.9319530">
        <ele>633.8</ele>
        <time>2019-08-12T06:00:07Z</time>
      </trkpt>
      <trkpt lat="39.0412490" lon="-3.9319520">
        <ele>634.0</ele>
        <time>2019-08-12T06:00:08Z</time>
      </trkpt>
      <trkpt lat="39.0413360" lon="-3.9319510">
        <ele>634.1</ele>
        <time>2019-08-12T06:00:09Z</time>
      </trkpt>
      <trkpt lat="39.0414220" lon="-3.9319500">
        <ele>634.3</ele>
        <time>2019-08-12T06:00:10Z</time>
      </trkpt>
      <trkpt lat="39.0415090" lon="-3.9319490">
        <ele>634.3</ele>
        <time>2019-08-12T06:00:11Z</time>
      </trkpt>
      <trkpt lat="39.0415960" lon="-3.9319490">
        <ele>634.4</ele>
        <time>2019-08-12T06:00:12Z</time>
      </trkpt>
      <trkpt lat="39.0416840" lon="-3.9319480">
        <ele>634.3</ele>
        <time>2019-08-12T06:00:13Z</time>
      </trkpt>
      <trkpt lat="39.0417710" lon="-3.9319470">
        <ele>634.2</ele>
        <time>2019-08-12T06:00:14Z</time>
      </trkpt>
      <trkpt lat="39.0418580" lon="-3.9319460">
        <ele>634.1</ele>
        <time>2019-08-12T06:00:15Z</time>
      </trkpt>
      <trkpt lat="39.0419450" lon="-3.9319450">
        <ele>633.9</ele>
        <time>2019-08-12T06:00:16Z</time>
      </trkpt>
      <trkpt lat="39.0420320" lon="-3.9319450">
        <ele>633.6</ele>
        <time>2019-08-12T06:00:17Z</time>
      </trkpt>
      <trkpt lat="39.0421190" lon="-3.9319440">
        <ele>633.4</ele>
        <time>2019-08-12T06:00:18Z</time>
      </trkpt>
      <trkpt lat="39.0422060" lon="-3.9319440">
        <ele>633.1</ele>
        <time>2019-08-12T06:00:19Z</time>
      </trkpt>
      <trkpt lat="39.0422930" lon="-3.9319430">
        <ele>632.8</ele>
        <time>2019-08-12T06:00:20Z</time>
      </trkpt>
      <trkpt lat="39.0423790" lon="-3.9319430">
        <ele>632.5</ele>
        <time>2019-08-12T06:00:21Z</time>
      </trkpt>
      <trkpt lat="39.0424650" lon="-3.9319420">
        <ele>632.1</ele>
        <time>2019-08-12T06:00:22Z</time>
      </trkpt>
      <trkpt lat="39.0425510" lon="-3.9319420">
        <ele>631.7</ele>
        <time>2019-08-12T06:00:23Z</time>
      </trkpt>
      <trkpt lat="39.0426370" lon="-3.9319410">
        <ele>631.2</ele>
        <time>2019-08-12T06:00:24Z</time>
      </trkpt>
      <trkpt lat="39.0427230" lon="-3.9319410">
        <ele>630.6</ele>
        <time>2019-08-12T06:00:25Z</time>
      </trkpt>
      <trkpt lat="39.0428090" lon="-3.9319400">
        <ele>630.0</ele>
        <time>2019-08-12T06:00:26Z</time>
      </trkpt>
      <trkpt lat="39.0428950" lon="-3.9319390">
        <ele>629.4</ele>
        <time>2019-08-12T06:00:27Z</time>
      </trkpt>
      <trkpt lat="39.0430370" lon="-3.9319380">
        <ele>628.3</ele>
        <time>2019-08-12T06:00:28Z</time>
      </trkpt>
      <trkpt lat="39.0430950" lon="-3.9319380">
        <ele>627.8</ele>
        <time>2019-08-12T06:00:29Z</time>
      </trkpt>
      <trkpt lat="39.0431520" lon="-3.9319370">
        <ele>627.4</ele>
        <time>2019-08-12T06:00:30Z</time>
      </trkpt>
      <trkpt lat="39.0432370" lon="-3.9319360">
        <ele>626.7</ele>
        <time>2019-08-12T06:00:31Z</time>
      </trkpt>
      <trkpt lat="39.0433230" lon="-3.9319350">
        <ele>626.0</ele>
        <time>2019-08-12T06:00:32Z</time>
      </trkpt>
      <trkpt lat="39.0434650" lon="-3.9319330">
        <ele>624.9</ele>
        <time>2019-08-12T06:00:33Z</time>
      </trkpt>
      <trkpt lat="39.0435220" lon="-3.9319320">
        <ele>624.4</ele>
        <time>2019-08-12T06:00:34Z</time>
      </trkpt>
      <trkpt lat="39.0435790" lon="-3.9319310">
        <ele>623.9</ele>
        <time>2019-08-12T06:00:35Z</time>
      </trkpt>
      <trkpt lat="39.0436640" lon="-3.9319300">
        <ele>623.3</ele>
        <time>2019-08-12T06:00:36Z</time>
      </trkpt>
      <trkpt lat="39.0437490" lon="-3.9319280">
        <ele>622.6</ele>
        <time>2019-08-12T06:00:37Z</time>
      </trkpt>
      <trkpt lat="39.0438340" lon="-3.9319270">
        <ele>621.9</ele>
        <time>2019-08-12T06:00:38Z</time>
      </trkpt>
      <trkpt lat="39.0439190" lon="-3.9319250">
        <ele>621.3</ele>
        <time>2019-08-12T06:00:39Z</time>
      </trkpt>
      <trkpt lat="39.0440040" lon="-3.9319230">
        <ele>620.7</ele>
        <time>2019-08-12T06:00:40Z</time>
      </trkpt>
      <trkpt lat="39.0440890" lon="-3.9319220">
        <ele>620.2</ele>
        <time>2019-08-12T06:00:41Z</time>
      </trkpt>
      <trkpt lat="39.0441740" lon="-3.9319200">
        <ele>619.8</ele>
        <time>2019-08-12T06:00:42Z</time>
      </trkpt>
      <trkpt lat="39.0442590" lon="-3.9319190">
        <ele>619.4</ele>
        <time>2019-08-12T06:00:43Z</time>
      </trkpt>
      <trkpt lat="39.0443430" lon="-3.9319170">
        <ele>619.1</ele>
        <time>2019-08-12T06:00:44Z</time>
      </trkpt>
      <trkpt lat="39.0444270" lon="-3.9319160">
        <ele>618.8</ele>
        <time>2019-08-12T06:00:45Z</time>
      </trkpt>
      <trkpt lat="39.0445110" lon="-3.9319150">
        <ele>618.6</ele>
        <time>2019-08-12T06:00:46Z</time>
      </trkpt>
      <trkpt lat="39.0445950" lon="-3.9319130">
        <ele>618.4</ele>
        <time>2019-08-12T06:00:47Z</time>
      </trkpt>
      <trkpt lat="39.0446790" lon="-3.9319120">
        <ele>618.2</ele>
        <time>2019-08-12T06:00:48Z</time>
      </trkpt>
      <trkpt lat="39.0447620" lon="-3.9319110">
        <ele>618.3</ele>
        <time>2019-08-12T06:00:49Z</time>
      </trkpt>
      <trkpt lat="39.0448450" lon="-3.9319110">
        <ele>618.5</ele>
        <time>2019-08-12T06:00:50Z</time>
      </trkpt>
      <trkpt lat="39.0449280" lon="-3.9319100">
        <ele>618.6</ele>
        <time>2019-08-12T06:00:51Z</time>
      </trkpt>
      <trkpt lat="39.0450100" lon="-3.9319090">
        <ele>618.7</ele>
        <time>2019-08-12T06:00:52Z</time>
      </trkpt>
      <trkpt lat="39.0450920" lon="-3.9319090">
        <ele>618.8</ele>
        <time>2019-08-12T06:00:53Z</time>
      </trkpt>
      <trkpt lat="39.0452270" lon="-3.9319080">
        <ele>619.0</ele>
        <time>2019-08-12T06:00:54Z</time>
      </trkpt>
      <trkpt lat="39.0452810" lon="-3.9319080">
        <ele>619.0</ele>
        <time>2019-08-12T06:00:55Z</time>
      </trkpt>
      <trkpt lat="39.0453350" lon="-3.9319080">
        <ele>619.1</ele>
        <time>2019-08-12T06:00:56Z</time>
      </trkpt>
      <trkpt lat="39.0454160" lon="-3.9319070">
        <ele>619.2</ele>
        <time>2019-08-12T06:00:57Z</time>
      </trkpt>
      <trkpt lat="39.0454950" lon="-3.9319070">
        <ele>619.4</ele>
        <time>2019-08-12T06:00:58Z</time>
      </trkpt>
      <trkpt lat="39.0456280" lon="-3.9319050">
        <ele>619.7</ele>
        <time>2019-08-12T06:00:59Z</time>
      </trkpt>
      <trkpt lat="39.0456800" lon="-3.9319050">
        <ele>619.8</ele>
        <time>2019-08-12T06:01:00Z</time>
      </trkpt>
      <trkpt lat="39.0457330" lon="-3.9319040">
        <ele>620.0</ele>
        <time>2019-08-12T06:01:01Z</time>
      </trkpt>
      <trkpt lat="39.0458110" lon="-3.9319020">
        <ele>620.3</ele>
        <time>2019-08-12T06:01:02Z</time>
      </trkpt>
      <trkpt lat="39.0458890" lon="-3.9319000">
        <ele>620.6</ele>
        <time>2019-08-12T06:01:03Z</time>
      </trkpt>
      <trkpt lat="39.0459670" lon="-3.9318980">
        <ele>620.9</ele>
        <time>2019-08-12T06:01:04Z</time>
      </trkpt>
      <trkpt lat="39.0460440" lon="-3.9318950">
        <ele>621.2</ele>
        <time>2019-08-12T06:01:05Z</time>
      </trkpt>
      <trkpt lat="39.0461220" lon="-3.9318920">
        <ele>621.5</ele>
        <time>2019-08-12T06:01:06Z</time>
      </trkpt>
      <trkpt lat="39.0461990" lon="-3.9318890">
        <ele>621.7</ele>
        <time>2019-08-12T06:01:07Z</time>
      </trkpt>
      <trkpt lat="39.0462760" lon="-3.9318870">
        <ele>622.0</ele>
        <time>2019-08-12T06:01:08Z</time>
      </trkpt>
      <trkpt lat="39.0463520" lon="-3.9318850">
        <ele>621.9</ele>
        <time>2019-08-12T06:01:09Z</time>
      </trkpt>
      <trkpt lat="39.0464290" lon="-3.9318840">
        <ele>621.9</ele>
        <time>2019-08-12T06:01:10Z</time>
      </trkpt>
      <trkpt lat="39.0465060" lon="-3.9318840">
        <ele>621.9</ele>
        <time>2019-08-12T06:01:11Z</time>
      </trkpt>
      <trkpt lat="39.0465830" lon="-3.9318860">
        <ele>621.9</ele>
        <time>2019-08-12T06:01:12Z</time>
      </trkpt>
      <trkpt lat="39.0466610" lon="-3.9318890">
        <ele>621.8</ele>
        <time>2019-08-12T06:01:13Z</time>
      </trkpt>
      <trkpt lat="39.0467390" lon="-3.9318920">
        <ele>621.8</ele>
        <time>2019-08-12T06:01:14Z</time>
      </trkpt>
      <trkpt lat="39.0468160" lon="-3.9318960">
        <ele>621.8</ele>
        <time>2019-08-12T06:01:15Z</time>
      </trkpt>
      <trkpt lat="39.0468940" lon="-3.9318990">
        <ele>621.7</ele>
        <time>2019-08-12T06:01:16Z</time>
      </trkpt>
      <trkpt lat="39.0469720" lon="-3.9319020">
        <ele>621.7</ele>
        <time>2019-08-12T06:01:17Z</time>
      </trkpt>
      <trkpt lat="39.0470500" lon="-3.9319020">
        <ele>621.7</ele>
        <time>2019-08-12T06:01:18Z</time>
      </trkpt>
      <trkpt lat="39.0471280" lon="-3.9319010">
        <ele>621.7</ele>
        <time>2019-08-12T06:01:19Z</time>
      </trkpt>
      <trkpt lat="39.0472060" lon="-3.9318990">
        <ele>621.6</ele>
        <time>2019-08-12T06:01:20Z</time>
      </trkpt>
      <trkpt lat="39.0472840" lon="-3.9318970">
        <ele>621.6</ele>
        <time>2019-08-12T06:01:21Z</time>
      </trkpt>
      <trkpt lat="39.0473630" lon="-3.9318940">
        <ele>621.5</ele>
        <time>2019-08-12T06:01:22Z</time>
      </trkpt>
      <trkpt lat="39.0474410" lon="-3.9318920">
        <ele>621.5</ele>
        <time>2019-08-12T06:01:23Z</time>
      </trkpt>
      <trkpt lat="39.0475200" lon="-3.9318890">
        <ele>621.4</ele>
        <time>2019-08-12T06:01:24Z</time>
      </trkpt>
      <trkpt lat="39.0475980" lon="-3.9318870">
        <ele>621.3</ele>
        <time>2019-08-12T06:01:25Z</time>
      </trkpt>
      <trkpt lat="39.0476770" lon="-3.9318840">
        <ele>621.3</ele>
        <time>2019-08-12T06:01:26Z</time>
      </trkpt>
      <trkpt lat="39.0477560" lon="-3.9318820">
        <ele>621.2</ele>
        <time>2019-08-12T06:01:27Z</time>
      </trkpt>
      <trkpt lat="39.0478350" lon="-3.9318800">
        <ele>621.1</ele>
        <time>2019-08-12T06:01:28Z</time>
      </trkpt>
      <trkpt lat="39.0479140" lon="-3.9318780">
        <ele>621.0</ele>
        <time>2019-08-12T06:01:29Z</time>
      </trkpt>
      <trkpt lat="39.0479930" lon="-3.9318770">
        <ele>621.0</ele>
        <time>2019-08-12T06:01:30Z</time>
      </trkpt>
      <trkpt lat="39.0480720" lon="-3.9318750">
        <ele>620.9</ele>
        <time>2019-08-12T06:01:31Z</time>
      </trkpt>
      <trkpt lat="39.0481520" lon="-3.9318740">
        <ele>620.8</ele>
        <time>2019-08-12T06:01:32Z</time>
      </trkpt>
      <trkpt lat="39.0482710" lon="-3.9318730">
        <ele>620.7</ele>
        <time>2019-08-12T06:01:33Z</time>
      </trkpt>
      <trkpt lat="39.0483110" lon="-3.9318720">
        <ele>620.6</ele>
        <time>2019-08-12T06:01:34Z</time>
      </trkpt>
      <trkpt lat="39.0483910" lon="-3.9318710">
        <ele>620.5</ele>
        <time>2019-08-12T06:01:35Z</time>
      </trkpt>
      <trkpt lat="39.0484710" lon="-3.9318700">
        <ele>620.3</ele>
        <time>2019-08-12T06:01:36Z</time>
      </trkpt>
      <trkpt lat="39.0485510" lon="-3.9318700">
        <ele>620.0</ele>
        <time>2019-08-12T06:01:37Z</time>
      </trkpt>
      <trkpt lat="39.0486310" lon="-3.9318690">
        <ele>619.7</ele>
        <time>2019-08-12T06:01:38Z</time>
      </trkpt>
      <trkpt lat="39.0487120" lon="-3.9318680">
        <ele>619.2</ele>
        <time>2019-08-12T06:01:39Z</time>
      </trkpt>
      <trkpt lat="39.0487920" lon="-3.9318680">
        <ele>618.7</ele>
        <time>2019-08-12T06:01:40Z</time>
      </trkpt>
      <trkpt lat="39.0488730" lon="-3.9318670">
        <ele>618.1</ele>
        <time>2019-08-12T06:01:41Z</time>
      </trkpt>
      <trkpt lat="39.0489540" lon="-3.9318660">
        <ele>617.5</ele>
        <time>2019-08-12T06:01:42Z</time>
      </trkpt>
      <trkpt lat="39.0490350" lon="-3.9318650">
        <ele>616.9</ele>
        <time>2019-08-12T06:01:43Z</time>
      </trkpt>
      <trkpt lat="39.0491160" lon="-3.9318640">
        <ele>616.3</ele>
        <time>2019-08-12T06:01:44Z</time>
      </trkpt>
      <trkpt lat="39.0491970" lon="-3.9318630">
        <ele>615.9</ele>
        <time>2019-08-12T06:01:45Z</time>
      </trkpt>
      <trkpt lat="39.0492770" lon="-3.9318620">
        <ele>615.5</ele>
        <time>2019-08-12T06:01:46Z</time>
      </trkpt>
      <trkpt lat="39.0493580" lon="-3.9318610">
        <ele>615.1</ele>
        <time>2019-08-12T06:01:47Z</time>
      </trkpt>
      <trkpt lat="39.0494380" lon="-3.9318590">
        <ele>614.9</ele>
        <time>2019-08-12T06:01:48Z</time>
      </trkpt>
      <trkpt lat="39.0495170" lon="-3.9318580">
        <ele>614.7</ele>
        <time>2019-08-12T06:01:49Z</time>
      </trkpt>
      <trkpt lat="39.0495970" lon="-3.9318570">
        <ele>614.5</ele>
        <time>2019-08-12T06:01:50Z</time>
      </trkpt>
      <trkpt lat="39.0496760" lon="-3.9318550">
        <ele>614.4</ele>
        <time>2019-08-12T06:01:51Z</time>
      </trkpt>
      <trkpt lat="39.0497540" lon="-3.9318540">
        <ele>614.2</ele>
        <time>2019-08-12T06:01:52Z</time>
      </trkpt>
      <trkpt lat="39.0498320" lon="-3.9318520">
        <ele>614.1</ele>
        <time>2019-08-12T06:01:53Z</time>
      </trkpt>
      <trkpt lat="39.0499100" lon="-3.9318510">
        <ele>614.0</ele>
        <time>2019-08-12T06:01:54Z</time>
      </trkpt>
      <trkpt lat="39.0500390" lon="-3.9318480">
        <ele>613.9</ele>
        <time>2019-08-12T06:01:55Z</time>
      </trkpt>
      <trkpt lat="39.0500910" lon="-3.9318480">
        <ele>613.8</ele>
        <time>2019-08-12T06:01:56Z</time>
      </trkpt>
      <trkpt lat="39.0501420" lon="-3.9318470">
        <ele>613.7</ele>
        <time>2019-08-12T06:01:57Z</time>
      </trkpt>
      <trkpt lat="39.0502190" lon="-3.9318450">
        <ele>613.6</ele>
        <time>2019-08-12T06:01:58Z</time>
      </trkpt>
      <trkpt lat="39.0502950" lon="-3.9318440">
        <ele>613.5</ele>
        <time>2019-08-12T06:01:59Z</time>
      </trkpt>
      <trkpt lat="39.0504220" lon="-3.9318430">
        <ele>613.4</ele>
        <time>2019-08-12T06:02:00Z</time>
      </trkpt>
      <trkpt lat="39.0504730" lon="-3.9318420">
        <ele>613.3</ele>
        <time>2019-08-12T06:02:01Z</time>
      </trkpt>
      <trkpt lat="39.0505240" lon="-3.9318420">
        <ele>613.2</ele>
        <time>2019-08-12T06:02:02Z</time>
      </trkpt>
      <trkpt lat="39.0506010" lon="-3.9318410">
        <ele>613.1</ele>
        <time>2019-08-12T06:02:03Z</time>
      </trkpt>
      <trkpt lat="39.0506780" lon="-3.9318400">
        <ele>613.0</ele>
        <time>2019-08-12T06:02:04Z</time>
      </trkpt>
      <trkpt lat="39.0507550" lon="-3.9318400">
        <ele>612.9</ele>
        <time>2019-08-12T06:02:05Z</time>
      </trkpt>
      <trkpt lat="39.0508330" lon="-3.9318390">
        <ele>612.8</ele>
        <time>2019-08-12T06:02:06Z</time>
      </trkpt>
      <trkpt lat="39.0509100" lon="-3.9318390">
        <ele>612.8</ele>
        <time>2019-08-12T06:02:07Z</time>
      </trkpt>
      <trkpt lat="39.0509870" lon="-3.9318380">
        <ele>612.7</ele>
        <time>2019-08-12T06:02:08Z</time>
      </trkpt>
      <trkpt lat="39.0510640" lon="-3.9318380">
        <ele>612.7</ele>
        <time>2019-08-12T06:02:09Z</time>
      </trkpt>
      <trkpt lat="39.0511410" lon="-3.9318380">
        <ele>612.6</ele>
        <time>2019-08-12T06:02:10Z</time>
      </trkpt>
      <trkpt lat="39.0512170" lon="-3.9318380">
        <ele>612.6</ele>
        <time>2019-08-12T06:02:11Z</time>
      </trkpt>
      <trkpt lat="39.0512930" lon="-3.9318380">
        <ele>612.6</ele>
        <time>2019-08-12T06:02:12Z</time>
      </trkpt>
      <trkpt lat="39.0513690" lon="-3.9318380">
        <ele>612.6</ele>
        <time>2019-08-12T06:02:13Z</time>
      </trkpt>
      <trkpt lat="39.0514450" lon="-3.9318380">
        <ele>612.5</ele>
        <time>2019-08-12T06:02:14Z</time>
      </trkpt>
      <trkpt lat="39.0515200" lon="-3.9318380">
        <ele>612.5</ele>
        <time>2019-08-12T06:02:15Z</time>
      </trkpt>
      <trkpt lat="39.0515950" lon="-3.9318380">
        <ele>612.5</ele>
        <time>2019-08-12T06:02:16Z</time>
      </trkpt>
      <trkpt lat="39.0516700" lon="-3.9318380">
        <ele>612.4</ele>
        <time>2019-08-12T06:02:17Z</time>
      </trkpt>
      <trkpt lat="39.0517450" lon="-3.9318370">
        <ele>612.4</ele>
        <time>2019-08-12T06:02:18Z</time>
      </trkpt>
      <trkpt lat="39.0518190" lon="-3.9318370">
        <ele>612.4</ele>
        <time>2019-08-12T06:02:19Z</time>
      </trkpt>
      <trkpt lat="39.0518930" lon="-3.9318360">
        <ele>612.3</ele>
        <time>2019-08-12T06:02:20Z</time>
      </trkpt>
      <trkpt lat="39.0519680" lon="-3.9318360">
        <ele>612.3</ele>
        <time>2019-08-12T06:02:21Z</time>
      </trkpt>
      <trkpt lat="39.0520420" lon="-3.9318350">
        <ele>612.3</ele>
        <time>2019-08-12T06:02:22Z</time>
      </trkpt>
      <trkpt lat="39.0521160" lon="-3.9318340">
        <ele>612.3</ele>
        <time>2019-08-12T06:02:23Z</time>
      </trkpt>
      <trkpt lat="39.0521910" lon="-3.9318330">
        <ele>612.3</ele>
        <time>2019-08-12T06:02:24Z</time>
      </trkpt>
      <trkpt lat="39.0522650" lon="-3.9318320">
        <ele>612.3</ele>
        <time>2019-08-12T06:02:25Z</time>
      </trkpt>
      <trkpt lat="39.0523900" lon="-3.9318290">
        <ele>612.3</ele>
        <time>2019-08-12T06:02:26Z</time>
      </trkpt>
      <trkpt lat="39.0524400" lon="-3.9318290">
        <ele>612.3</ele>
        <time>2019-08-12T06:02:27Z</time>
      </trkpt>
      <trkpt lat="39.0524900" lon="-3.9318280">
        <ele>612.3</ele>
        <time>2019-08-12T06:02:28Z</time>
      </trkpt>
      <trkpt lat="39.0525650" lon="-3.9318260">
        <ele>612.2</ele>
        <time>2019-08-12T06:02:29Z</time>
      </trkpt>
      <trkpt lat="39.0526400" lon="-3.9318250">
        <ele>612.2</ele>
        <time>2019-08-12T06:02:30Z</time>
      </trkpt>
      <trkpt lat="39.0527650" lon="-3.9318220">
        <ele>612.1</ele>
        <time>2019-08-12T06:02:31Z</time>
      </trkpt>
      <trkpt lat="39.0528150" lon="-3.9318220">
        <ele>612.1</ele>
        <time>2019-08-12T06:02:32Z</time>
      </trkpt>
      <trkpt lat="39.0528650" lon="-3.9318210">
        <ele>612.0</ele>
        <time>2019-08-12T06:02:33Z</time>
      </trkpt>
      <trkpt lat="39.0529400" lon="-3.9318190">
        <ele>612.0</ele>
        <time>2019-08-12T06:02:34Z</time>
      </trkpt>
      <trkpt lat="39.0530150" lon="-3.9318180">
        <ele>611.9</ele>
        <time>2019-08-12T06:02:35Z</time>
      </trkpt>
      <trkpt lat="39.0530890" lon="-3.9318170">
        <ele>611.8</ele>
        <time>2019-08-12T06:02:36Z</time>
      </trkpt>
      <trkpt lat="39.0531630" lon="-3.9318160">
        <ele>611.8</ele>
        <time>2019-08-12T06:02:37Z</time>
      </trkpt>
      <trkpt lat="39.0532370" lon="-3.9318150">
        <ele>611.7</ele>
        <time>2019-08-12T06:02:38Z</time>
      </trkpt>
      <trkpt lat="39.0533100" lon="-3.9318140">
        <ele>611.6</ele>
        <time>2019-08-12T06:02:39Z</time>
      </trkpt>
      <trkpt lat="39.0533840" lon="-3.9318130">
        <ele>611.5</ele>
        <time>2019-08-12T06:02:40Z</time>
      </trkpt>
      <trkpt lat="39.0534570" lon="-3.9318110">
        <ele>611.4</ele>
        <time>2019-08-12T06:02:41Z</time>
      </trkpt>
      <trkpt lat="39.0535310" lon="-3.9318100">
        <ele>611.4</ele>
        <time>2019-08-12T06:02:42Z</time>
      </trkpt>
      <trkpt lat="39.0536050" lon="-3.9318070">
        <ele>611.3</ele>
        <time>2019-08-12T06:02:43Z</time>
      </trkpt>
      <trkpt lat="39.0536790" lon="-3.9318040">
        <ele>611.1</ele>
        <time>2019-08-12T06:02:44Z</time>
      </trkpt>
      <trkpt lat="39.0537530" lon="-3.9318000">
        <ele>611.0</ele>
        <time>2019-08-12T06:02:45Z</time>
      </trkpt>
      <trkpt lat="39.0538770" lon="-3.9317920">
        <ele>610.8</ele>
        <time>2019-08-12T06:02:46Z</time>
      </trkpt>
      <trkpt lat="39.0539260" lon="-3.9317890">
        <ele>610.7</ele>
        <time>2019-08-12T06:02:47Z</time>
      </trkpt>
      <trkpt lat="39.0539760" lon="-3.9317850">
        <ele>610.6</ele>
        <time>2019-08-12T06:02:48Z</time>
      </trkpt>
      <trkpt lat="39.0540510" lon="-3.9317800">
        <ele>610.4</ele>
        <time>2019-08-12T06:02:49Z</time>
      </trkpt>
      <trkpt lat="39.0541250" lon="-3.9317750">
        <ele>610.3</ele>
        <time>2019-08-12T06:02:50Z</time>
      </trkpt>
      <trkpt lat="39.0542480" lon="-3.9317670">
        <ele>610.1</ele>
        <time>2019-08-12T06:02:51Z</time>
      </trkpt>
      <trkpt lat="39.0542980" lon="-3.9317650">
        <ele>610.0</ele>
        <time>2019-08-12T06:02:52Z</time>
      </trkpt>
      <trkpt lat="39.0543470" lon="-3.9317620">
        <ele>609.9</ele>
        <time>2019-08-12T06:02:53Z</time>
      </trkpt>
      <trkpt lat="39.0544210" lon="-3.9317590">
        <ele>609.8</ele>
        <time>2019-08-12T06:02:54Z</time>
      </trkpt>
      <trkpt lat="39.0544960" lon="-3.9317570">
        <ele>609.6</ele>
        <time>2019-08-12T06:02:55Z</time>
      </trkpt>
      <trkpt lat="39.0545720" lon="-3.9317560">
        <ele>609.5</ele>
        <time>2019-08-12T06:02:56Z</time>
      </trkpt>
      <trkpt lat="39.0546480" lon="-3.9317560">
        <ele>609.4</ele>
        <time>2019-08-12T06:02:57Z</time>
      </trkpt>
      <trkpt lat="39.0547640" lon="-3.9317570">
        <ele>609.3</ele>
        <time>2019-08-12T06:02:58Z</time>
      </trkpt>
      <trkpt lat="39.0548030" lon="-3.9317580">
        <ele>609.3</ele>
        <time>2019-08-12T06:02:59Z</time>
      </trkpt>
      <trkpt lat="39.0548810" lon="-3.9317600">
        <ele>609.2</ele>
        <time>2019-08-12T06:03:00Z</time>
      </trkpt>
      <trkpt lat="39.0549610" lon="-3.9317610">
        <ele>609.1</ele>
        <time>2019-08-12T06:03:01Z</time>
      </trkpt>
      <trkpt lat="39.0550410" lon="-3.9317630">
        <ele>608.9</ele>
        <time>2019-08-12T06:03:02Z</time>
      </trkpt>
      <trkpt lat="39.0551220" lon="-3.9317640">
        <ele>608.7</ele>
        <time>2019-08-12T06:03:03Z</time>
      </trkpt>
      <trkpt lat="39.0552040" lon="-3.9317650">
        <ele>608.5</ele>
        <time>2019-08-12T06:03:04Z</time>
      </trkpt>
      <trkpt lat="39.0552870" lon="-3.9317660">
        <ele>608.3</ele>
        <time>2019-08-12T06:03:05Z</time>
      </trkpt>
      <trkpt lat="39.0553710" lon="-3.9317660">
        <ele>608.1</ele>
        <time>2019-08-12T06:03:06Z</time>
      </trkpt>
      <trkpt lat="39.0554550" lon="-3.9317660">
        <ele>607.9</ele>
        <time>2019-08-12T06:03:07Z</time>
      </trkpt>
      <trkpt lat="39.0555410" lon="-3.9317660">
        <ele>607.7</ele>
        <time>2019-08-12T06:03:08Z</time>
      </trkpt>
      <trkpt lat="39.0556260" lon="-3.9317650">
        <ele>607.4</ele>
        <time>2019-08-12T06:03:09Z</time>
      </trkpt>
      <trkpt lat="39.0557130" lon="-3.9317650">
        <ele>607.1</ele>
        <time>2019-08-12T06:03:10Z</time>
      </trkpt>
      <trkpt lat="39.0558000" lon="-3.9317630">
        <ele>606.8</ele>
        <time>2019-08-12T06:03:11Z</time>
      </trkpt>
      <trkpt lat="39.0558870" lon="-3.9317620">
        <ele>606.5</ele>
        <time>2019-08-12T06:03:12Z</time>
      </trkpt>
      <trkpt lat="39.0559740" lon="-3.9317610">
        <ele>606.2</ele>
        <time>2019-08-12T06:03:13Z</time>
      </trkpt>
      <trkpt lat="39.0560620" lon="-3.9317590">
        <ele>605.8</ele>
        <time>2019-08-12T06:03:14Z</time>
      </trkpt>
      <trkpt lat="39.0561500" lon="-3.9317570">
        <ele>605.4</ele>
        <time>2019-08-12T06:03:15Z</time>
      </trkpt>
      <trkpt lat="39.0562390" lon="-3.9317560">
        <ele>605.1</ele>
        <time>2019-08-12T06:03:16Z</time>
      </trkpt>
      <trkpt lat="39.0563270" lon="-3.9317540">
        <ele>604.8</ele>
        <time>2019-08-12T06:03:17Z</time>
      </trkpt>
      <trkpt lat="39.0564160" lon="-3.9317530">
        <ele>604.5</ele>
        <time>2019-08-12T06:03:18Z</time>
      </trkpt>
      <trkpt lat="39.0565500" lon="-3.9317520">
        <ele>604.1</ele>
        <time>2019-08-12T06:03:19Z</time>
      </trkpt>
      <trkpt lat="39.0565940" lon="-3.9317510">
        <ele>604.1</ele>
        <time>2019-08-12T06:03:20Z</time>
      </trkpt>
      <trkpt lat="39.0566820" lon="-3.9317500">
        <ele>603.9</ele>
        <time>2019-08-12T06:03:21Z</time>
      </trkpt>
      <trkpt lat="39.0567700" lon="-3.9317500">
        <ele>603.7</ele>
        <time>2019-08-12T06:03:22Z</time>
      </trkpt>
      <trkpt lat="39.0568590" lon="-3.9317490">
        <ele>603.6</ele>
        <time>2019-08-12T06:03:23Z</time>
      </trkpt>
      <trkpt lat="39.0569470" lon="-3.9317490">
        <ele>603.5</ele>
        <time>2019-08-12T06:03:24Z</time>
      </trkpt>
      <trkpt lat="39.0570350" lon="-3.9317490">
        <ele>603.4</ele>
        <time>2019-08-12T06:03:25Z</time>
      </trkpt>
      <trkpt lat="39.0571230" lon="-3.9317480">
        <ele>603.4</ele>
        <time>2019-08-12T06:03:26Z</time>
      </trkpt>
      <trkpt lat="39.0572100" lon="-3.9317470">
        <ele>603.3</ele>
        <time>2019-08-12T06:03:27Z</time>
      </trkpt>
      <trkpt lat="39.0572970" lon="-3.9317450">
        <ele>603.3</ele>
        <time>2019-08-12T06:03:28Z</time>
      </trkpt>
      <trkpt lat="39.0573840" lon="-3.9317430">
        <ele>603.3</ele>
        <time>2019-08-12T06:03:29Z</time>
      </trkpt>
      <trkpt lat="39.0574700" lon="-3.9317410">
        <ele>603.2</ele>
        <time>2019-08-12T06:03:30Z</time>
      </trkpt>
      <trkpt lat="39.0575540" lon="-3.9317400">
        <ele>603.0</ele>
        <time>2019-08-12T06:03:31Z</time>
      </trkpt>
      <trkpt lat="39.0576370" lon="-3.9317390">
        <ele>602.8</ele>
        <time>2019-08-12T06:03:32Z</time>
      </trkpt>
      <trkpt lat="39.0577200" lon="-3.9317380">
        <ele>602.5</ele>
        <time>2019-08-12T06:03:33Z</time>
      </trkpt>
      <trkpt lat="39.0578020" lon="-3.9317370">
        <ele>602.3</ele>
        <time>2019-08-12T06:03:34Z</time>
      </trkpt>
      <trkpt lat="39.0578830" lon="-3.9317360">
        <ele>602.1</ele>
        <time>2019-08-12T06:03:35Z</time>
      </trkpt>
      <trkpt lat="39.0579640" lon="-3.9317340">
        <ele>601.9</ele>
        <time>2019-08-12T06:03:36Z</time>
      </trkpt>
      <trkpt lat="39.0580440" lon="-3.9317320">
        <ele>601.6</ele>
        <time>2019-08-12T06:03:37Z</time>
      </trkpt>
      <trkpt lat="39.0581250" lon="-3.9317290">
        <ele>601.4</ele>
        <time>2019-08-12T06:03:38Z</time>
      </trkpt>
      <trkpt lat="39.0582060" lon="-3.9317260">
        <ele>601.2</ele>
        <time>2019-08-12T06:03:39Z</time>
      </trkpt>
      <trkpt lat="39.0582870" lon="-3.9317210">
        <ele>601.0</ele>
        <time>2019-08-12T06:03:40Z</time>
      </trkpt>
      <trkpt lat="39.0583680" lon="-3.9317140">
        <ele>600.8</ele>
        <time>2019-08-12T06:03:41Z</time>
      </trkpt>
      <trkpt lat="39.0584480" lon="-3.9317070">
        <ele>600.6</ele>
        <time>2019-08-12T06:03:42Z</time>
      </trkpt>
      <trkpt lat="39.0585270" lon="-3.9316980">
        <ele>600.4</ele>
        <time>2019-08-12T06:03:43Z</time>
      </trkpt>
      <trkpt lat="39.0586060" lon="-3.9316880">
        <ele>600.2</ele>
        <time>2019-08-12T06:03:44Z</time>
      </trkpt>
      <trkpt lat="39.0586820" lon="-3.9316770">
        <ele>600.0</ele>
        <time>2019-08-12T06:03:45Z</time>
      </trkpt>
      <trkpt lat="39.0587580" lon="-3.9316650">
        <ele>599.8</ele>
        <time>2019-08-12T06:03:46Z</time>
      </trkpt>
      <trkpt lat="39.0588320" lon="-3.9316510">
        <ele>599.6</ele>
        <time>2019-08-12T06:03:47Z</time>
      </trkpt>
      <trkpt lat="39.0589060" lon="-3.9316360">
        <ele>599.5</ele>
        <time>2019-08-12T06:03:48Z</time>
      </trkpt>
      <trkpt lat="39.0589800" lon="-3.9316200">
        <ele>599.3</ele>
        <time>2019-08-12T06:03:49Z</time>
      </trkpt>
      <trkpt lat="39.0590530" lon="-3.9316030">
        <ele>599.1</ele>
        <time>2019-08-12T06:03:50Z</time>
      </trkpt>
      <trkpt lat="39.0591260" lon="-3.9315840">
        <ele>599.0</ele>
        <time>2019-08-12T06:03:51Z</time>
      </trkpt>
      <trkpt lat="39.0591990" lon="-3.9315650">
        <ele>598.8</ele>
        <time>2019-08-12T06:03:52Z</time>
      </trkpt>
      <trkpt lat="39.0592710" lon="-3.9315440">
        <ele>598.7</ele>
        <time>2019-08-12T06:03:53Z</time>
      </trkpt>
      <trkpt lat="39.0593430" lon="-3.9315230">
        <ele>598.5</ele>
        <time>2019-08-12T06:03:54Z</time>
      </trkpt>
      <trkpt lat="39.0594140" lon="-3.9315000">
        <ele>598.4</ele>
        <time>2019-08-12T06:03:55Z</time>
      </trkpt>
      <trkpt lat="39.0594840" lon="-3.9314770">
        <ele>598.3</ele>
        <time>2019-08-12T06:03:56Z</time>
      </trkpt>
      <trkpt lat="39.0595530" lon="-3.9314520">
        <ele>598.1</ele>
        <time>2019-08-12T06:03:57Z</time>
      </trkpt>
      <trkpt lat="39.0596210" lon="-3.9314270">
        <ele>598.0</ele>
        <time>2019-08-12T06:03:58Z</time>
      </trkpt>
      <trkpt lat="39.0596890" lon="-3.9314010">
        <ele>597.8</ele>
        <time>2019-08-12T06:03:59Z</time>
      </trkpt>
      <trkpt lat="39.0597550" lon="-3.9313750">
        <ele>597.7</ele>
        <time>2019-08-12T06:04:00Z</time>
      </trkpt>
      <trkpt lat="39.0598200" lon="-3.9313470">
        <ele>597.6</ele>
        <time>2019-08-12T06:04:01Z</time>
      </trkpt>
      <trkpt lat="39.0599260" lon="-3.9312990">
        <ele>597.4</ele>
        <time>2019-08-12T06:04:02Z</time>
      </trkpt>
      <trkpt lat="39.0599680" lon="-3.9312800">
        <ele>597.3</ele>
        <time>2019-08-12T06:04:03Z</time>
      </trkpt>
      <trkpt lat="39.0600100" lon="-3.9312600">
        <ele>597.1</ele>
        <time>2019-08-12T06:04:04Z</time>
      </trkpt>
      <trkpt lat="39.0600720" lon="-3.9312290">
        <ele>597.1</ele>
        <time>2019-08-12T06:04:05Z</time>
      </trkpt>
      <trkpt lat="39.0601330" lon="-3.9311980">
        <ele>597.1</ele>
        <time>2019-08-12T06:04:06Z</time>
      </trkpt>
      <trkpt lat="39.0602330" lon="-3.9311440">
        <ele>597.1</ele>
        <time>2019-08-12T06:04:07Z</time>
      </trkpt>
      <trkpt lat="39.0602720" lon="-3.9311210">
        <ele>597.1</ele>
        <time>2019-08-12T06:04:08Z</time>
      </trkpt>
      <trkpt lat="39.0603120" lon="-3.9310990">
        <ele>597.0</ele>
        <time>2019-08-12T06:04:09Z</time>
      </trkpt>
      <trkpt lat="39.0603710" lon="-3.9310640">
        <ele>597.0</ele>
        <time>2019-08-12T06:04:10Z</time>
      </trkpt>
      <trkpt lat="39.0604290" lon="-3.9310280">
        <ele>597.0</ele>
        <time>2019-08-12T06:04:11Z</time>
      </trkpt>
      <trkpt lat="39.0604870" lon="-3.9309920">
        <ele>596.9</ele>
        <time>2019-08-12T06:04:12Z</time>
      </trkpt>
      <trkpt lat="39.0605440" lon="-3.9309550">
        <ele>596.9</ele>
        <time>2019-08-12T06:04:13Z</time>
      </trkpt>
      <trkpt lat="39.0606000" lon="-3.9309170">
        <ele>596.8</ele>
        <time>2019-08-12T06:04:14Z</time>
      </trkpt>
      <trkpt lat="39.0606560" lon="-3.9308780">
        <ele>596.8</ele>
        <time>2019-08-12T06:04:15Z</time>
      </trkpt>
      <trkpt lat="39.0607120" lon="-3.9308380">
        <ele>596.8</ele>
        <time>2019-08-12T06:04:16Z</time>
      </trkpt>
      <trkpt lat="39.0607670" lon="-3.9307980">
        <ele>596.7</ele>
        <time>2019-08-12T06:04:17Z</time>
      </trkpt>
      <trkpt lat="39.0608220" lon="-3.9307570">
        <ele>596.7</ele>
        <time>2019-08-12T06:04:18Z</time>
      </trkpt>
      <trkpt lat="39.0608760" lon="-3.9307140">
        <ele>596.7</ele>
        <time>2019-08-12T06:04:19Z</time>
      </trkpt>
      <trkpt lat="39.0609300" lon="-3.9306720">
        <ele>596.7</ele>
        <time>2019-08-12T06:04:20Z</time>
      </trkpt>
      <trkpt lat="39.0609830" lon="-3.9306280">
        <ele>596.6</ele>
        <time>2019-08-12T06:04:21Z</time>
      </trkpt>
      <trkpt lat="39.0610360" lon="-3.9305830">
        <ele>596.6</ele>
        <time>2019-08-12T06:04:22Z</time>
      </trkpt>
      <trkpt lat="39.0610890" lon="-3.9305380">
        <ele>596.6</ele>
        <time>2019-08-12T06:04:23Z</time>
      </trkpt>
      <trkpt lat="39.0611420" lon="-3.9304910">
        <ele>596.6</ele>
        <time>2019-08-12T06:04:24Z</time>
      </trkpt>
      <trkpt lat="39.0611940" lon="-3.9304440">
        <ele>596.6</ele>
        <time>2019-08-12T06:04:25Z</time>
      </trkpt>
      <trkpt lat="39.0612460" lon="-3.9303960">
        <ele>596.6</ele>
        <time>2019-08-12T06:04:26Z</time>
      </trkpt>
      <trkpt lat="39.0612970" lon="-3.9303480">
        <ele>596.7</ele>
        <time>2019-08-12T06:04:27Z</time>
      </trkpt>
      <trkpt lat="39.0613480" lon="-3.9302980">
        <ele>596.7</ele>
        <time>2019-08-12T06:04:28Z</time>
      </trkpt>
      <trkpt lat="39.0613990" lon="-3.9302470">
        <ele>596.7</ele>
        <time>2019-08-12T06:04:29Z</time>
      </trkpt>
      <trkpt lat="39.0614490" lon="-3.9301960">
        <ele>596.6</ele>
        <time>2019-08-12T06:04:30Z</time>
      </trkpt>
      <trkpt lat="39.0614990" lon="-3.9301440">
        <ele>596.6</ele>
        <time>2019-08-12T06:04:31Z</time>
      </trkpt>
      <trkpt lat="39.0615480" lon="-3.9300910">
        <ele>596.6</ele>
        <time>2019-08-12T06:04:32Z</time>
      </trkpt>
      <trkpt lat="39.0615970" lon="-3.9300360">
        <ele>596.6</ele>
        <time>2019-08-12T06:04:33Z</time>
      </trkpt>
      <trkpt lat="39.0616450" lon="-3.9299820">
        <ele>596.6</ele>
        <time>2019-08-12T06:04:34Z</time>
      </trkpt>
      <trkpt lat="39.0616920" lon="-3.9299260">
        <ele>596.5</ele>
        <time>2019-08-12T06:04:35Z</time>
      </trkpt>
      <trkpt lat="39.0617380" lon="-3.9298690">
        <ele>596.5</ele>
        <time>2019-08-12T06:04:36Z</time>
      </trkpt>
      <trkpt lat="39.0617840" lon="-3.9298110">
        <ele>596.7</ele>
        <time>2019-08-12T06:04:37Z</time>
      </trkpt>
      <trkpt lat="39.0618290" lon="-3.9297520">
        <ele>596.8</ele>
        <time>2019-08-12T06:04:38Z</time>
      </trkpt>
      <trkpt lat="39.0618740" lon="-3.9296930">
        <ele>596.9</ele>
        <time>2019-08-12T06:04:39Z</time>
      </trkpt>
      <trkpt lat="39.0619190" lon="-3.9296320">
        <ele>597.0</ele>
        <time>2019-08-12T06:04:40Z</time>
      </trkpt>
      <trkpt lat="39.0619640" lon="-3.9295710">
        <ele>597.0</ele>
        <time>2019-08-12T06:04:41Z</time>
      </trkpt>
      <trkpt lat="39.0620080" lon="-3.9295080">
        <ele>597.1</ele>
        <time>2019-08-12T06:04:42Z</time>
      </trkpt>
      <trkpt lat="39.0620530" lon="-3.9294450">
        <ele>597.1</ele>
        <time>2019-08-12T06:04:43Z</time>
      </trkpt>
      <trkpt lat="39.0620980" lon="-3.9293800">
        <ele>597.0</ele>
        <time>2019-08-12T06:04:44Z</time>
      </trkpt>
      <trkpt lat="39.0621430" lon="-3.9293140">
        <ele>597.0</ele>
        <time>2019-08-12T06:04:45Z</time>
      </trkpt>
      <trkpt lat="39.0621890" lon="-3.9292480">
        <ele>596.9</ele>
        <time>2019-08-12T06:04:46Z</time>
      </trkpt>
      <trkpt lat="39.0622340" lon="-3.9291800">
        <ele>596.9</ele>
        <time>2019-08-12T06:04:47Z</time>
      </trkpt>
      <trkpt lat="39.0622800" lon="-3.9291110">
        <ele>596.8</ele>
        <time>2019-08-12T06:04:48Z</time>
      </trkpt>
      <trkpt lat="39.0623250" lon="-3.9290410">
        <ele>596.8</ele>
        <time>2019-08-12T06:04:49Z</time>
      </trkpt>
      <trkpt lat="39.0623700" lon="-3.9289700">
        <ele>596.7</ele>
        <time>2019-08-12T06:04:50Z</time>
      </trkpt>
      <trkpt lat="39.0624150" lon="-3.9288980">
        <ele>596.7</ele>
        <time>2019-08-12T06:04:51Z</time>
      </trkpt>
      <trkpt lat="39.0624590" lon="-3.9288250">
        <ele>596.7</ele>
        <time>2019-08-12T06:04:52Z</time>
      </trkpt>
      <trkpt lat="39.0625020" lon="-3.9287500">
        <ele>596.7</ele>
        <time>2019-08-12T06:04:53Z</time>
      </trkpt>
      <trkpt lat="39.0625450" lon="-3.9286750">
        <ele>596.8</ele>
        <time>2019-08-12T06:04:54Z</time>
      </trkpt>
      <trkpt lat="39.0625860" lon="-3.9285980">
        <ele>596.9</ele>
        <time>2019-08-12T06:04:55Z</time>
      </trkpt>
      <trkpt lat="39.0626270" lon="-3.9285200">
        <ele>597.0</ele>
        <time>2019-08-12T06:04:56Z</time>
      </trkpt>
      <trkpt lat="39.0626670" lon="-3.9284410">
        <ele>597.2</ele>
        <time>2019-08-12T06:04:57Z</time>
      </trkpt>
      <trkpt lat="39.0627060" lon="-3.9283610">
        <ele>597.4</ele>
        <time>2019-08-12T06:04:58Z</time>
      </trkpt>
      <trkpt lat="39.0627450" lon="-3.9282810">
        <ele>597.6</ele>
        <time>2019-08-12T06:04:59Z</time>
      </trkpt>
      <trkpt lat="39.0627820" lon="-3.9282000">
        <ele>597.8</ele>
        <time>2019-08-12T06:05:00Z</time>
      </trkpt>
      <trkpt lat="39.0628200" lon="-3.9281180">
        <ele>598.0</ele>
        <time>2019-08-12T06:05:01Z</time>
      </trkpt>
      <trkpt lat="39.0628560" lon="-3.9280360">
        <ele>598.2</ele>
        <time>2019-08-12T06:05:02Z</time>
      </trkpt>
      <trkpt lat="39.0628920" lon="-3.9279540">
        <ele>598.4</ele>
        <time>2019-08-12T06:05:03Z</time>
      </trkpt>
      <trkpt lat="39.0629270" lon="-3.9278710">
        <ele>598.6</ele>
        <time>2019-08-12T06:05:04Z</time>
      </trkpt>
      <trkpt lat="39.0629620" lon="-3.9277890">
        <ele>598.8</ele>
        <time>2019-08-12T06:05:05Z</time>
      </trkpt>
      <trkpt lat="39.0629970" lon="-3.9277060">
        <ele>599.0</ele>
        <time>2019-08-12T06:05:06Z</time>
      </trkpt>
      <trkpt lat="39.0630310" lon="-3.9276230">
        <ele>599.2</ele>
        <time>2019-08-12T06:05:07Z</time>
      </trkpt>
      <trkpt lat="39.0630650" lon="-3.9275410">
        <ele>599.3</ele>
        <time>2019-08-12T06:05:08Z</time>
      </trkpt>
      <trkpt lat="39.0630980" lon="-3.9274590">
        <ele>599.4</ele>
        <time>2019-08-12T06:05:09Z</time>
      </trkpt>
      <trkpt lat="39.0631310" lon="-3.9273780">
        <ele>599.6</ele>
        <time>2019-08-12T06:05:10Z</time>
      </trkpt>
      <trkpt lat="39.0631640" lon="-3.9272970">
        <ele>599.7</ele>
        <time>2019-08-12T06:05:11Z</time>
      </trkpt>
      <trkpt lat="39.0631970" lon="-3.9272170">
        <ele>599.7</ele>
        <time>2019-08-12T06:05:12Z</time>
      </trkpt>
      <trkpt lat="39.0632290" lon="-3.9271380">
        <ele>599.8</ele>
        <time>2019-08-12T06:05:13Z</time>
      </trkpt>
      <trkpt lat="39.0632620" lon="-3.9270590">
        <ele>599.9</ele>
        <time>2019-08-12T06:05:14Z</time>
      </trkpt>
      <trkpt lat="39.0632940" lon="-3.9269820">
        <ele>599.9</ele>
        <time>2019-08-12T06:05:15Z</time>
      </trkpt>
      <trkpt lat="39.0633260" lon="-3.9269050">
        <ele>600.0</ele>
        <time>2019-08-12T06:05:16Z</time>
      </trkpt>
      <trkpt lat="39.0633570" lon="-3.9268280">
        <ele>600.0</ele>
        <time>2019-08-12T06:05:17Z</time>
      </trkpt>
      <trkpt lat="39.0633880" lon="-3.9267510">
        <ele>600.1</ele>
        <time>2019-08-12T06:05:18Z</time>
      </trkpt>
      <trkpt lat="39.0634180" lon="-3.9266750">
        <ele>600.1</ele>
        <time>2019-08-12T06:05:19Z</time>
      </trkpt>
      <trkpt lat="39.0634480" lon="-3.9265990">
        <ele>600.1</ele>
        <time>2019-08-12T06:05:20Z</time>
      </trkpt>
      <trkpt lat="39.0634770" lon="-3.9265220">
        <ele>600.1</ele>
        <time>2019-08-12T06:05:21Z</time>
      </trkpt>
      <trkpt lat="39.0635060" lon="-3.9264450">
        <ele>600.1</ele>
        <time>2019-08-12T06:05:22Z</time>
      </trkpt>
      <trkpt lat="39.0635340" lon="-3.9263690">
        <ele>600.1</ele>
        <time>2019-08-12T06:05:23Z</time>
      </trkpt>
      <trkpt lat="39.0635610" lon="-3.9262920">
        <ele>600.0</ele>
        <time>2019-08-12T06:05:24Z</time>
      </trkpt>
      <trkpt lat="39.0635880" lon="-3.9262150">
        <ele>600.0</ele>
        <time>2019-08-12T06:05:25Z</time>
      </trkpt>
      <trkpt lat="39.0636150" lon="-3.9261390">
        <ele>600.0</ele>
        <time>2019-08-12T06:05:26Z</time>
      </trkpt>
      <trkpt lat="39.0636420" lon="-3.9260620">
        <ele>600.0</ele>
        <time>2019-08-12T06:05:27Z</time>
      </trkpt>
      <trkpt lat="39.0636690" lon="-3.9259860">
        <ele>600.0</ele>
        <time>2019-08-12T06:05:28Z</time>
      </trkpt>
      <trkpt lat="39.0636960" lon="-3.9259100">
        <ele>600.0</ele>
        <time>2019-08-12T06:05:29Z</time>
      </trkpt>
      <trkpt lat="39.0637230" lon="-3.9258360">
        <ele>600.0</ele>
        <time>2019-08-12T06:05:30Z</time>
      </trkpt>
      <trkpt lat="39.0637510" lon="-3.9257610">
        <ele>600.0</ele>
        <time>2019-08-12T06:05:31Z</time>
      </trkpt>
      <trkpt lat="39.0637780" lon="-3.9256880">
        <ele>600.0</ele>
        <time>2019-08-12T06:05:32Z</time>
      </trkpt>
      <trkpt lat="39.0638060" lon="-3.9256160">
        <ele>600.1</ele>
        <time>2019-08-12T06:05:33Z</time>
      </trkpt>
      <trkpt lat="39.0638320" lon="-3.9255460">
        <ele>600.1</ele>
        <time>2019-08-12T06:05:34Z</time>
      </trkpt>
      <trkpt lat="39.0638580" lon="-3.9254770">
        <ele>600.2</ele>
        <time>2019-08-12T06:05:35Z</time>
      </trkpt>
      <trkpt lat="39.0638820" lon="-3.9254090">
        <ele>600.3</ele>
        <time>2019-08-12T06:05:36Z</time>
      </trkpt>
      <trkpt lat="39.0639060" lon="-3.9253430">
        <ele>600.4</ele>
        <time>2019-08-12T06:05:37Z</time>
      </trkpt>
      <trkpt lat="39.0639290" lon="-3.9252780">
        <ele>600.5</ele>
        <time>2019-08-12T06:05:38Z</time>
      </trkpt>
      <trkpt lat="39.0639520" lon="-3.9252140">
        <ele>600.6</ele>
        <time>2019-08-12T06:05:39Z</time>
      </trkpt>
      <trkpt lat="39.0639750" lon="-3.9251510">
        <ele>600.7</ele>
        <time>2019-08-12T06:05:40Z</time>
      </trkpt>
      <trkpt lat="39.0639980" lon="-3.9250890">
        <ele>600.8</ele>
        <time>2019-08-12T06:05:41Z</time>
      </trkpt>
      <trkpt lat="39.0640220" lon="-3.9250280">
        <ele>600.9</ele>
        <time>2019-08-12T06:05:42Z</time>
      </trkpt>
      <trkpt lat="39.0640450" lon="-3.9249670">
        <ele>601.1</ele>
        <time>2019-08-12T06:05:43Z</time>
      </trkpt>
      <trkpt lat="39.0640690" lon="-3.9249060">
        <ele>601.2</ele>
        <time>2019-08-12T06:05:44Z</time>
      </trkpt>
      <trkpt lat="39.0640930" lon="-3.9248470">
        <ele>601.4</ele>
        <time>2019-08-12T06:05:45Z</time>
      </trkpt>
      <trkpt lat="39.0641170" lon="-3.9247880">
        <ele>601.5</ele>
        <time>2019-08-12T06:05:46Z</time>
      </trkpt>
      <trkpt lat="39.0641400" lon="-3.9247290">
        <ele>601.7</ele>
        <time>2019-08-12T06:05:47Z</time>
      </trkpt>
      <trkpt lat="39.0641640" lon="-3.9246710">
        <ele>601.8</ele>
        <time>2019-08-12T06:05:48Z</time>
      </trkpt>
      <trkpt lat="39.0641870" lon="-3.9246130">
        <ele>602.0</ele>
        <time>2019-08-12T06:05:49Z</time>
      </trkpt>
      <trkpt lat="39.0642100" lon="-3.9245560">
        <ele>602.2</ele>
        <time>2019-08-12T06:05:50Z</time>
      </trkpt>
      <trkpt lat="39.0642330" lon="-3.9244990">
        <ele>602.3</ele>
        <time>2019-08-12T06:05:51Z</time>
      </trkpt>
      <trkpt lat="39.0642550" lon="-3.9244420">
        <ele>602.5</ele>
        <time>2019-08-12T06:05:52Z</time>
      </trkpt>
      <trkpt lat="39.0642770" lon="-3.9243860">
        <ele>602.7</ele>
        <time>2019-08-12T06:05:53Z</time>
      </trkpt>
      <trkpt lat="39.0642990" lon="-3.9243300">
        <ele>602.8</ele>
        <time>2019-08-12T06:05:54Z</time>
      </trkpt>
      <trkpt lat="39.0643210" lon="-3.9242750">
        <ele>603.0</ele>
        <time>2019-08-12T06:05:55Z</time>
      </trkpt>
      <trkpt lat="39.0643430" lon="-3.9242200">
        <ele>603.2</ele>
        <time>2019-08-12T06:05:56Z</time>
      </trkpt>
      <trkpt lat="39.0643640" lon="-3.9241660">
        <ele>603.4</ele>
        <time>2019-08-12T06:05:57Z</time>
      </trkpt>
      <trkpt lat="39.0643850" lon="-3.9241110">
        <ele>603.6</ele>
        <time>2019-08-12T06:05:58Z</time>
      </trkpt>
      <trkpt lat="39.0644060" lon="-3.9240570">
        <ele>603.8</ele>
        <time>2019-08-12T06:05:59Z</time>
      </trkpt>
      <trkpt lat="39.0644270" lon="-3.9240040">
        <ele>603.9</ele>
        <time>2019-08-12T06:06:00Z</time>
      </trkpt>
      <trkpt lat="39.0644480" lon="-3.9239510">
        <ele>604.1</ele>
        <time>2019-08-12T06:06:01Z</time>
      </trkpt>
      <trkpt lat="39.0644680" lon="-3.9238980">
        <ele>604.3</ele>
        <time>2019-08-12T06:06:02Z</time>
      </trkpt>
      <trkpt lat="39.0644880" lon="-3.9238450">
        <ele>604.5</ele>
        <time>2019-08-12T06:06:03Z</time>
      </trkpt>
      <trkpt lat="39.0645080" lon="-3.9237930">
        <ele>604.7</ele>
        <time>2019-08-12T06:06:04Z</time>
      </trkpt>
      <trkpt lat="39.0645290" lon="-3.9237410">
        <ele>604.9</ele>
        <time>2019-08-12T06:06:05Z</time>
      </trkpt>
      <trkpt lat="39.0645480" lon="-3.9236890">
        <ele>605.1</ele>
        <time>2019-08-12T06:06:06Z</time>
      </trkpt>
      <trkpt lat="39.0645680" lon="-3.9236370">
        <ele>605.2</ele>
        <time>2019-08-12T06:06:07Z</time>
      </trkpt>
      <trkpt lat="39.0645880" lon="-3.9235860">
        <ele>605.4</ele>
        <time>2019-08-12T06:06:08Z</time>
      </trkpt>
      <trkpt lat="39.0646080" lon="-3.9235350">
        <ele>605.6</ele>
        <time>2019-08-12T06:06:09Z</time>
      </trkpt>
      <trkpt lat="39.0646280" lon="-3.9234830">
        <ele>605.8</ele>
        <time>2019-08-12T06:06:10Z</time>
      </trkpt>
      <trkpt lat="39.0646480" lon="-3.9234320">
        <ele>605.9</ele>
        <time>2019-08-12T06:06:11Z</time>
      </trkpt>
      <trkpt lat="39.0646680" lon="-3.9233810">
        <ele>606.1</ele>
        <time>2019-08-12T06:06:12Z</time>
      </trkpt>
      <trkpt lat="39.0646880" lon="-3.9233300">
        <ele>606.2</ele>
        <time>2019-08-12T06:06:13Z</time>
      </trkpt>
      <trkpt lat="39.0647080" lon="-3.9232780">
        <ele>606.4</ele>
        <time>2019-08-12T06:06:14Z</time>
      </trkpt>
      <trkpt lat="39.0647280" lon="-3.9232270">
        <ele>606.5</ele>
        <time>2019-08-12T06:06:15Z</time>
      </trkpt>
      <trkpt lat="39.0647490" lon="-3.9231760">
        <ele>606.7</ele>
        <time>2019-08-12T06:06:16Z</time>
      </trkpt>
      <trkpt lat="39.0647690" lon="-3.9231250">
        <ele>606.8</ele>
        <time>2019-08-12T06:06:17Z</time>
      </trkpt>
      <trkpt lat="39.0647900" lon="-3.9230730">
        <ele>606.9</ele>
        <time>2019-08-12T06:06:18Z</time>
      </trkpt>
      <trkpt lat="39.0648110" lon="-3.9230210">
        <ele>607.0</ele>
        <time>2019-08-12T06:06:19Z</time>
      </trkpt>
      <trkpt lat="39.0648320" lon="-3.9229690">
        <ele>607.1</ele>
        <time>2019-08-12T06:06:20Z</time>
      </trkpt>
      <trkpt lat="39.0648540" lon="-3.9229160">
        <ele>607.3</ele>
        <time>2019-08-12T06:06:21Z</time>
      </trkpt>
      <trkpt lat="39.0648760" lon="-3.9228630">
        <ele>607.4</ele>
        <time>2019-08-12T06:06:22Z</time>
      </trkpt>
      <trkpt lat="39.0648980" lon="-3.9228080">
        <ele>607.5</ele>
        <time>2019-08-12T06:06:23Z</time>
      </trkpt>
      <trkpt lat="39.0649210" lon="-3.9227530">
        <ele>607.6</ele>
        <time>2019-08-12T06:06:24Z</time>
      </trkpt>
      <trkpt lat="39.0649440" lon="-3.9226970">
        <ele>607.7</ele>
        <time>2019-08-12T06:06:25Z</time>
      </trkpt>
      <trkpt lat="39.0649680" lon="-3.9226400">
        <ele>607.7</ele>
        <time>2019-08-12T06:06:26Z</time>
      </trkpt>
      <trkpt lat="39.0649920" lon="-3.9225820">
        <ele>607.8</ele>
        <time>2019-08-12T06:06:27Z</time>
      </trkpt>
      <trkpt lat="39.0650180" lon="-3.9225220">
        <ele>607.9</ele>
        <time>2019-08-12T06:06:28Z</time>
      </trkpt>
      <trkpt lat="39.0650430" lon="-3.9224620">
        <ele>607.9</ele>
        <time>2019-08-12T06:06:29Z</time>
      </trkpt>
      <trkpt lat="39.0650690" lon="-3.9224000">
        <ele>608.0</ele>
        <time>2019-08-12T06:06:30Z</time>
      </trkpt>
      <trkpt lat="39.0650950" lon="-3.9223380">
        <ele>608.0</ele>
        <time>2019-08-12T06:06:31Z</time>
      </trkpt>
      <trkpt lat="39.0651210" lon="-3.9222750">
        <ele>608.0</ele>
        <time>2019-08-12T06:06:32Z</time>
      </trkpt>
      <trkpt lat="39.0651480" lon="-3.9222120">
        <ele>608.0</ele>
        <time>2019-08-12T06:06:33Z</time>
      </trkpt>
      <trkpt lat="39.0651750" lon="-3.9221480">
        <ele>607.9</ele>
        <time>2019-08-12T06:06:34Z</time>
      </trkpt>
      <trkpt lat="39.0652020" lon="-3.9220840">
        <ele>607.8</ele>
        <time>2019-08-12T06:06:35Z</time>
      </trkpt>
      <trkpt lat="39.0652280" lon="-3.9220200">
        <ele>607.8</ele>
        <time>2019-08-12T06:06:36Z</time>
      </trkpt>
      <trkpt lat="39.0652550" lon="-3.9219550">
        <ele>607.7</ele>
        <time>2019-08-12T06:06:37Z</time>
      </trkpt>
      <trkpt lat="39.0652820" lon="-3.9218900">
        <ele>607.5</ele>
        <time>2019-08-12T06:06:38Z</time>
      </trkpt>
      <trkpt lat="39.0653090" lon="-3.9218250">
        <ele>607.4</ele>
        <time>2019-08-12T06:06:39Z</time>
      </trkpt>
      <trkpt lat="39.0653370" lon="-3.9217590">
        <ele>607.2</ele>
        <time>2019-08-12T06:06:40Z</time>
      </trkpt>
      <trkpt lat="39.0653640" lon="-3.9216920">
        <ele>607.1</ele>
        <time>2019-08-12T06:06:41Z</time>
      </trkpt>
      <trkpt lat="39.0653920" lon="-3.9216250">
        <ele>606.9</ele>
        <time>2019-08-12T06:06:42Z</time>
      </trkpt>
      <trkpt lat="39.0654200" lon="-3.9215570">
        <ele>606.8</ele>
        <time>2019-08-12T06:06:43Z</time>
      </trkpt>
      <trkpt lat="39.0654490" lon="-3.9214880">
        <ele>606.6</ele>
        <time>2019-08-12T06:06:44Z</time>
      </trkpt>
      <trkpt lat="39.0654790" lon="-3.9214180">
        <ele>606.4</ele>
        <time>2019-08-12T06:06:45Z</time>
      </trkpt>
      <trkpt lat="39.0655080" lon="-3.9213480">
        <ele>606.3</ele>
        <time>2019-08-12T06:06:46Z</time>
      </trkpt>
      <trkpt lat="39.0655390" lon="-3.9212760">
        <ele>606.1</ele>
        <time>2019-08-12T06:06:47Z</time>
      </trkpt>
      <trkpt lat="39.0655690" lon="-3.9212040">
        <ele>606.0</ele>
        <time>2019-08-12T06:06:48Z</time>
      </trkpt>
      <trkpt lat="39.0656000" lon="-3.9211320">
        <ele>605.8</ele>
        <time>2019-08-12T06:06:49Z</time>
      </trkpt>
      <trkpt lat="39.0656310" lon="-3.9210580">
        <ele>605.7</ele>
        <time>2019-08-12T06:06:50Z</time>
      </trkpt>
      <trkpt lat="39.0656620" lon="-3.9209850">
        <ele>605.6</ele>
        <time>2019-08-12T06:06:51Z</time>
      </trkpt>
      <trkpt lat="39.0656930" lon="-3.9209110">
        <ele>605.5</ele>
        <time>2019-08-12T06:06:52Z</time>
      </trkpt>
      <trkpt lat="39.0657250" lon="-3.9208370">
        <ele>605.3</ele>
        <time>2019-08-12T06:06:53Z</time>
      </trkpt>
      <trkpt lat="39.0657560" lon="-3.9207620">
        <ele>605.2</ele>
        <time>2019-08-12T06:06:54Z</time>
      </trkpt>
      <trkpt lat="39.0657870" lon="-3.9206870">
        <ele>605.1</ele>
        <time>2019-08-12T06:06:55Z</time>
      </trkpt>
      <trkpt lat="39.0658190" lon="-3.9206110">
        <ele>605.0</ele>
        <time>2019-08-12T06:06:56Z</time>
      </trkpt>
      <trkpt lat="39.0658510" lon="-3.9205340">
        <ele>604.9</ele>
        <time>2019-08-12T06:06:57Z</time>
      </trkpt>
      <trkpt lat="39.0658830" lon="-3.9204550">
        <ele>604.8</ele>
        <time>2019-08-12T06:06:58Z</time>
      </trkpt>
      <trkpt lat="39.0659160" lon="-3.9203750">
        <ele>604.7</ele>
        <time>2019-08-12T06:06:59Z</time>
      </trkpt>
      <trkpt lat="39.0659500" lon="-3.9202940">
        <ele>604.7</ele>
        <time>2019-08-12T06:07:00Z</time>
      </trkpt>
      <trkpt lat="39.0659840" lon="-3.9202110">
        <ele>604.6</ele>
        <time>2019-08-12T06:07:01Z</time>
      </trkpt>
      <trkpt lat="39.0660180" lon="-3.9201280">
        <ele>604.5</ele>
        <time>2019-08-12T06:07:02Z</time>
      </trkpt>
      <trkpt lat="39.0660530" lon="-3.9200450">
        <ele>604.5</ele>
        <time>2019-08-12T06:07:03Z</time>
      </trkpt>
      <trkpt lat="39.0660880" lon="-3.9199630">
        <ele>604.5</ele>
        <time>2019-08-12T06:07:04Z</time>
      </trkpt>
      <trkpt lat="39.0661230" lon="-3.9198800">
        <ele>604.5</ele>
        <time>2019-08-12T06:07:05Z</time>
      </trkpt>
      <trkpt lat="39.0661580" lon="-3.9197980">
        <ele>604.4</ele>
        <time>2019-08-12T06:07:06Z</time>
      </trkpt>
      <trkpt lat="39.0661920" lon="-3.9197160">
        <ele>604.5</ele>
        <time>2019-08-12T06:07:07Z</time>
      </trkpt>
      <trkpt lat="39.0662260" lon="-3.9196360">
        <ele>604.5</ele>
        <time>2019-08-12T06:07:08Z</time>
      </trkpt>
      <trkpt lat="39.0662590" lon="-3.9195550">
        <ele>604.5</ele>
        <time>2019-08-12T06:07:09Z</time>
      </trkpt>
      <trkpt lat="39.0662910" lon="-3.9194760">
        <ele>604.5</ele>
        <time>2019-08-12T06:07:10Z</time>
      </trkpt>
      <trkpt lat="39.0663220" lon="-3.9193980">
        <ele>604.6</ele>
        <time>2019-08-12T06:07:11Z</time>
      </trkpt>
      <trkpt lat="39.0663540" lon="-3.9193220">
        <ele>604.7</ele>
        <time>2019-08-12T06:07:12Z</time>
      </trkpt>
      <trkpt lat="39.0663850" lon="-3.9192470">
        <ele>604.8</ele>
        <time>2019-08-12T06:07:13Z</time>
      </trkpt>
      <trkpt lat="39.0664160" lon="-3.9191730">
        <ele>604.8</ele>
        <time>2019-08-12T06:07:14Z</time>
      </trkpt>
      <trkpt lat="39.0664470" lon="-3.9191010">
        <ele>604.9</ele>
        <time>2019-08-12T06:07:15Z</time>
      </trkpt>
      <trkpt lat="39.0664790" lon="-3.9190290">
        <ele>605.1</ele>
        <time>2019-08-12T06:07:16Z</time>
      </trkpt>
      <trkpt lat="39.0665110" lon="-3.9189590">
        <ele>605.3</ele>
        <time>2019-08-12T06:07:17Z</time>
      </trkpt>
      <trkpt lat="39.0665430" lon="-3.9188900">
        <ele>605.4</ele>
        <time>2019-08-12T06:07:18Z</time>
      </trkpt>
      <trkpt lat="39.0665760" lon="-3.9188220">
        <ele>605.6</ele>
        <time>2019-08-12T06:07:19Z</time>
      </trkpt>
      <trkpt lat="39.0666090" lon="-3.9187550">
        <ele>605.9</ele>
        <time>2019-08-12T06:07:20Z</time>
      </trkpt>
      <trkpt lat="39.0666440" lon="-3.9186880">
        <ele>606.1</ele>
        <time>2019-08-12T06:07:21Z</time>
      </trkpt>
      <trkpt lat="39.0666790" lon="-3.9186210">
        <ele>606.3</ele>
        <time>2019-08-12T06:07:22Z</time>
      </trkpt>
      <trkpt lat="39.0667160" lon="-3.9185550">
        <ele>606.6</ele>
        <time>2019-08-12T06:07:23Z</time>
      </trkpt>
      <trkpt lat="39.0667530" lon="-3.9184900">
        <ele>606.8</ele>
        <time>2019-08-12T06:07:24Z</time>
      </trkpt>
      <trkpt lat="39.0667920" lon="-3.9184240">
        <ele>607.1</ele>
        <time>2019-08-12T06:07:25Z</time>
      </trkpt>
      <trkpt lat="39.0668330" lon="-3.9183590">
        <ele>607.3</ele>
        <time>2019-08-12T06:07:26Z</time>
      </trkpt>
      <trkpt lat="39.0668740" lon="-3.9182930">
        <ele>607.6</ele>
        <time>2019-08-12T06:07:27Z</time>
      </trkpt>
      <trkpt lat="39.0669180" lon="-3.9182280">
        <ele>607.8</ele>
        <time>2019-08-12T06:07:28Z</time>
      </trkpt>
      <trkpt lat="39.0669630" lon="-3.9181620">
        <ele>608.0</ele>
        <time>2019-08-12T06:07:29Z</time>
      </trkpt>
      <trkpt lat="39.0670100" lon="-3.9180950">
        <ele>608.1</ele>
        <time>2019-08-12T06:07:30Z</time>
      </trkpt>
      <trkpt lat="39.0670590" lon="-3.9180280">
        <ele>608.2</ele>
        <time>2019-08-12T06:07:31Z</time>
      </trkpt>
      <trkpt lat="39.0671100" lon="-3.9179610">
        <ele>608.1</ele>
        <time>2019-08-12T06:07:32Z</time>
      </trkpt>
      <trkpt lat="39.0671630" lon="-3.9178930">
        <ele>607.9</ele>
        <time>2019-08-12T06:07:33Z</time>
      </trkpt>
      <trkpt lat="39.0672180" lon="-3.9178250">
        <ele>607.7</ele>
        <time>2019-08-12T06:07:34Z</time>
      </trkpt>
      <trkpt lat="39.0672740" lon="-3.9177570">
        <ele>607.4</ele>
        <time>2019-08-12T06:07:35Z</time>
      </trkpt>
      <trkpt lat="39.0673310" lon="-3.9176890">
        <ele>607.0</ele>
        <time>2019-08-12T06:07:36Z</time>
      </trkpt>
      <trkpt lat="39.0673900" lon="-3.9176210">
        <ele>606.7</ele>
        <time>2019-08-12T06:07:37Z</time>
      </trkpt>
      <trkpt lat="39.0674500" lon="-3.9175530">
        <ele>606.3</ele>
        <time>2019-08-12T06:07:38Z</time>
      </trkpt>
      <trkpt lat="39.0675110" lon="-3.9174860">
        <ele>605.9</ele>
        <time>2019-08-12T06:07:39Z</time>
      </trkpt>
      <trkpt lat="39.0675730" lon="-3.9174180">
        <ele>605.5</ele>
        <time>2019-08-12T06:07:40Z</time>
      </trkpt>
      <trkpt lat="39.0676370" lon="-3.9173510">
        <ele>605.1</ele>
        <time>2019-08-12T06:07:41Z</time>
      </trkpt>
      <trkpt lat="39.0677010" lon="-3.9172850">
        <ele>604.6</ele>
        <time>2019-08-12T06:07:42Z</time>
      </trkpt>
      <trkpt lat="39.0677650" lon="-3.9172190">
        <ele>604.2</ele>
        <time>2019-08-12T06:07:43Z</time>
      </trkpt>
      <trkpt lat="39.0678300" lon="-3.9171530">
        <ele>603.7</ele>
        <time>2019-08-12T06:07:44Z</time>
      </trkpt>
      <trkpt lat="39.0678960" lon="-3.9170880">
        <ele>603.1</ele>
        <time>2019-08-12T06:07:45Z</time>
      </trkpt>
      <trkpt lat="39.0679620" lon="-3.9170230">
        <ele>602.6</ele>
        <time>2019-08-12T06:07:46Z</time>
      </trkpt>
      <trkpt lat="39.0680280" lon="-3.9169580">
        <ele>602.0</ele>
        <time>2019-08-12T06:07:47Z</time>
      </trkpt>
      <trkpt lat="39.0680940" lon="-3.9168940">
        <ele>601.5</ele>
        <time>2019-08-12T06:07:48Z</time>
      </trkpt>
      <trkpt lat="39.0681610" lon="-3.9168300">
        <ele>600.9</ele>
        <time>2019-08-12T06:07:49Z</time>
      </trkpt>
      <trkpt lat="39.0682270" lon="-3.9167660">
        <ele>600.3</ele>
        <time>2019-08-12T06:07:50Z</time>
      </trkpt>
      <trkpt lat="39.0682930" lon="-3.9167030">
        <ele>599.8</ele>
        <time>2019-08-12T06:07:51Z</time>
      </trkpt>
      <trkpt lat="39.0683590" lon="-3.9166410">
        <ele>599.2</ele>
        <time>2019-08-12T06:07:52Z</time>
      </trkpt>
      <trkpt lat="39.0684260" lon="-3.9165790">
        <ele>598.5</ele>
        <time>2019-08-12T06:07:53Z</time>
      </trkpt>
      <trkpt lat="39.0684930" lon="-3.9165190">
        <ele>597.8</ele>
        <time>2019-08-12T06:07:54Z</time>
      </trkpt>
      <trkpt lat="39.0685600" lon="-3.9164600">
        <ele>597.0</ele>
        <time>2019-08-12T06:07:55Z</time>
      </trkpt>
      <trkpt lat="39.0686280" lon="-3.9164020">
        <ele>596.1</ele>
        <time>2019-08-12T06:07:56Z</time>
      </trkpt>
      <trkpt lat="39.0686960" lon="-3.9163450">
        <ele>595.0</ele>
        <time>2019-08-12T06:07:57Z</time>
      </trkpt>
      <trkpt lat="39.0687650" lon="-3.9162910">
        <ele>594.0</ele>
        <time>2019-08-12T06:07:58Z</time>
      </trkpt>
      <trkpt lat="39.0688350" lon="-3.9162380">
        <ele>592.9</ele>
        <time>2019-08-12T06:07:59Z</time>
      </trkpt>
      <trkpt lat="39.0689050" lon="-3.9161860">
        <ele>591.9</ele>
        <time>2019-08-12T06:08:00Z</time>
      </trkpt>
      <trkpt lat="39.0689760" lon="-3.9161360">
        <ele>590.8</ele>
        <time>2019-08-12T06:08:01Z</time>
      </trkpt>
      <trkpt lat="39.0690470" lon="-3.9160880">
        <ele>589.7</ele>
        <time>2019-08-12T06:08:02Z</time>
      </trkpt>
      <trkpt lat="39.0691190" lon="-3.9160400">
        <ele>588.7</ele>
        <time>2019-08-12T06:08:03Z</time>
      </trkpt>
      <trkpt lat="39.0691900" lon="-3.9159940">
        <ele>587.8</ele>
        <time>2019-08-12T06:08:04Z</time>
      </trkpt>
      <trkpt lat="39.0692610" lon="-3.9159480">
        <ele>586.9</ele>
        <time>2019-08-12T06:08:05Z</time>
      </trkpt>
      <trkpt lat="39.0693320" lon="-3.9159020">
        <ele>586.2</ele>
        <time>2019-08-12T06:08:06Z</time>
      </trkpt>
      <trkpt lat="39.0694030" lon="-3.9158570">
        <ele>585.6</ele>
        <time>2019-08-12T06:08:07Z</time>
      </trkpt>
      <trkpt lat="39.0694720" lon="-3.9158120">
        <ele>585.1</ele>
        <time>2019-08-12T06:08:08Z</time>
      </trkpt>
      <trkpt lat="39.0695420" lon="-3.9157670">
        <ele>584.6</ele>
        <time>2019-08-12T06:08:09Z</time>
      </trkpt>
      <trkpt lat="39.0696100" lon="-3.9157220">
        <ele>584.3</ele>
        <time>2019-08-12T06:08:10Z</time>
      </trkpt>
      <trkpt lat="39.0696780" lon="-3.9156770">
        <ele>583.9</ele>
        <time>2019-08-12T06:08:11Z</time>
      </trkpt>
      <trkpt lat="39.0697450" lon="-3.9156330">
        <ele>583.6</ele>
        <time>2019-08-12T06:08:12Z</time>
      </trkpt>
      <trkpt lat="39.0698110" lon="-3.9155890">
        <ele>583.3</ele>
        <time>2019-08-12T06:08:13Z</time>
      </trkpt>
      <trkpt lat="39.0698770" lon="-3.9155450">
        <ele>583.1</ele>
        <time>2019-08-12T06:08:14Z</time>
      </trkpt>
      <trkpt lat="39.0699420" lon="-3.9155020">
        <ele>582.8</ele>
        <time>2019-08-12T06:08:15Z</time>
      </trkpt>
      <trkpt lat="39.0700070" lon="-3.9154590">
        <ele>582.5</ele>
        <time>2019-08-12T06:08:16Z</time>
      </trkpt>
      <trkpt lat="39.0700700" lon="-3.9154170">
        <ele>582.3</ele>
        <time>2019-08-12T06:08:17Z</time>
      </trkpt>
      <trkpt lat="39.0701340" lon="-3.9153750">
        <ele>582.1</ele>
        <time>2019-08-12T06:08:18Z</time>
      </trkpt>
      <trkpt lat="39.0701960" lon="-3.9153330">
        <ele>581.8</ele>
        <time>2019-08-12T06:08:19Z</time>
      </trkpt>
      <trkpt lat="39.0702590" lon="-3.9152920">
        <ele>581.6</ele>
        <time>2019-08-12T06:08:20Z</time>
      </trkpt>
      <trkpt lat="39.0703210" lon="-3.9152510">
        <ele>581.3</ele>
        <time>2019-08-12T06:08:21Z</time>
      </trkpt>
      <trkpt lat="39.0703830" lon="-3.9152110">
        <ele>581.1</ele>
        <time>2019-08-12T06:08:22Z</time>
      </trkpt>
      <trkpt lat="39.0704450" lon="-3.9151700">
        <ele>580.9</ele>
        <time>2019-08-12T06:08:23Z</time>
      </trkpt>
      <trkpt lat="39.0705060" lon="-3.9151300">
        <ele>580.7</ele>
        <time>2019-08-12T06:08:24Z</time>
      </trkpt>
      <trkpt lat="39.0705680" lon="-3.9150890">
        <ele>580.5</ele>
        <time>2019-08-12T06:08:25Z</time>
      </trkpt>
      <trkpt lat="39.0706300" lon="-3.9150490">
        <ele>580.3</ele>
        <time>2019-08-12T06:08:26Z</time>
      </trkpt>
      <trkpt lat="39.0706920" lon="-3.9150080">
        <ele>580.1</ele>
        <time>2019-08-12T06:08:27Z</time>
      </trkpt>
      <trkpt lat="39.0707540" lon="-3.9149670">
        <ele>579.9</ele>
        <time>2019-08-12T06:08:28Z</time>
      </trkpt>
      <trkpt lat="39.0708170" lon="-3.9149270">
        <ele>579.7</ele>
        <time>2019-08-12T06:08:29Z</time>
      </trkpt>
      <trkpt lat="39.0708790" lon="-3.9148860">
        <ele>579.6</ele>
        <time>2019-08-12T06:08:30Z</time>
      </trkpt>
      <trkpt lat="39.0709420" lon="-3.9148450">
        <ele>579.4</ele>
        <time>2019-08-12T06:08:31Z</time>
      </trkpt>
      <trkpt lat="39.0710040" lon="-3.9148040">
        <ele>579.4</ele>
        <time>2019-08-12T06:08:32Z</time>
      </trkpt>
      <trkpt lat="39.0710670" lon="-3.9147640">
        <ele>579.3</ele>
        <time>2019-08-12T06:08:33Z</time>
      </trkpt>
      <trkpt lat="39.0711290" lon="-3.9147230">
        <ele>579.2</ele>
        <time>2019-08-12T06:08:34Z</time>
      </trkpt>
      <trkpt lat="39.0711920" lon="-3.9146820">
        <ele>579.2</ele>
        <time>2019-08-12T06:08:35Z</time>
      </trkpt>
      <trkpt lat="39.0712550" lon="-3.9146420">
        <ele>579.3</ele>
        <time>2019-08-12T06:08:36Z</time>
      </trkpt>
      <trkpt lat="39.0713170" lon="-3.9146010">
        <ele>579.3</ele>
        <time>2019-08-12T06:08:37Z</time>
      </trkpt>
      <trkpt lat="39.0713790" lon="-3.9145610">
        <ele>579.4</ele>
        <time>2019-08-12T06:08:38Z</time>
      </trkpt>
      <trkpt lat="39.0714410" lon="-3.9145210">
        <ele>579.5</ele>
        <time>2019-08-12T06:08:39Z</time>
      </trkpt>
      <trkpt lat="39.0715040" lon="-3.9144810">
        <ele>579.6</ele>
        <time>2019-08-12T06:08:40Z</time>
      </trkpt>
      <trkpt lat="39.0715650" lon="-3.9144410">
        <ele>579.7</ele>
        <time>2019-08-12T06:08:41Z</time>
      </trkpt>
      <trkpt lat="39.0716270" lon="-3.9144010">
        <ele>579.9</ele>
        <time>2019-08-12T06:08:42Z</time>
      </trkpt>
      <trkpt lat="39.0716890" lon="-3.9143610">
        <ele>580.2</ele>
        <time>2019-08-12T06:08:43Z</time>
      </trkpt>
      <trkpt lat="39.0717500" lon="-3.9143220">
        <ele>580.4</ele>
        <time>2019-08-12T06:08:44Z</time>
      </trkpt>
      <trkpt lat="39.0718110" lon="-3.9142830">
        <ele>580.7</ele>
        <time>2019-08-12T06:08:45Z</time>
      </trkpt>
      <trkpt lat="39.0718720" lon="-3.9142440">
        <ele>581.0</ele>
        <time>2019-08-12T06:08:46Z</time>
      </trkpt>
      <trkpt lat="39.0719330" lon="-3.9142050">
        <ele>581.4</ele>
        <time>2019-08-12T06:08:47Z</time>
      </trkpt>
      <trkpt lat="39.0719940" lon="-3.9141660">
        <ele>581.8</ele>
        <time>2019-08-12T06:08:48Z</time>
      </trkpt>
      <trkpt lat="39.0720540" lon="-3.9141280">
        <ele>582.2</ele>
        <time>2019-08-12T06:08:49Z</time>
      </trkpt>
      <trkpt lat="39.0721140" lon="-3.9140890">
        <ele>582.7</ele>
        <time>2019-08-12T06:08:50Z</time>
      </trkpt>
      <trkpt lat="39.0721750" lon="-3.9140510">
        <ele>583.2</ele>
        <time>2019-08-12T06:08:51Z</time>
      </trkpt>
      <trkpt lat="39.0722350" lon="-3.9140120">
        <ele>583.7</ele>
        <time>2019-08-12T06:08:52Z</time>
      </trkpt>
      <trkpt lat="39.0722950" lon="-3.9139740">
        <ele>584.2</ele>
        <time>2019-08-12T06:08:53Z</time>
      </trkpt>
      <trkpt lat="39.0723550" lon="-3.9139350">
        <ele>584.7</ele>
        <time>2019-08-12T06:08:54Z</time>
      </trkpt>
      <trkpt lat="39.0724150" lon="-3.9138970">
        <ele>585.2</ele>
        <time>2019-08-12T06:08:55Z</time>
      </trkpt>
      <trkpt lat="39.0724750" lon="-3.9138590">
        <ele>585.6</ele>
        <time>2019-08-12T06:08:56Z</time>
      </trkpt>
      <trkpt lat="39.0725360" lon="-3.9138200">
        <ele>586.1</ele>
        <time>2019-08-12T06:08:57Z</time>
      </trkpt>
      <trkpt lat="39.0725960" lon="-3.9137820">
        <ele>586.5</ele>
        <time>2019-08-12T06:08:58Z</time>
      </trkpt>
      <trkpt lat="39.0726560" lon="-3.9137440">
        <ele>586.8</ele>
        <time>2019-08-12T06:08:59Z</time>
      </trkpt>
      <trkpt lat="39.0727160" lon="-3.9137050">
        <ele>587.2</ele>
        <time>2019-08-12T06:09:00Z</time>
      </trkpt>
      <trkpt lat="39.0727770" lon="-3.9136660">
        <ele>587.5</ele>
        <time>2019-08-12T06:09:01Z</time>
      </trkpt>
      <trkpt lat="39.0728370" lon="-3.9136280">
        <ele>587.7</ele>
        <time>2019-08-12T06:09:02Z</time>
      </trkpt>
      <trkpt lat="39.0728980" lon="-3.9135890">
        <ele>587.9</ele>
        <time>2019-08-12T06:09:03Z</time>
      </trkpt>
      <trkpt lat="39.0729590" lon="-3.9135500">
        <ele>588.1</ele>
        <time>2019-08-12T06:09:04Z</time>
      </trkpt>
      <trkpt lat="39.0730190" lon="-3.9135110">
        <ele>588.3</ele>
        <time>2019-08-12T06:09:05Z</time>
      </trkpt>
      <trkpt lat="39.0730800" lon="-3.9134710">
        <ele>588.4</ele>
        <time>2019-08-12T06:09:06Z</time>
      </trkpt>
      <trkpt lat="39.0731410" lon="-3.9134320">
        <ele>588.6</ele>
        <time>2019-08-12T06:09:07Z</time>
      </trkpt>
      <trkpt lat="39.0732020" lon="-3.9133920">
        <ele>588.8</ele>
        <time>2019-08-12T06:09:08Z</time>
      </trkpt>
      <trkpt lat="39.0732630" lon="-3.9133530">
        <ele>589.0</ele>
        <time>2019-08-12T06:09:09Z</time>
      </trkpt>
      <trkpt lat="39.0733250" lon="-3.9133130">
        <ele>589.2</ele>
        <time>2019-08-12T06:09:10Z</time>
      </trkpt>
      <trkpt lat="39.0733860" lon="-3.9132730">
        <ele>589.4</ele>
        <time>2019-08-12T06:09:11Z</time>
      </trkpt>
      <trkpt lat="39.0734470" lon="-3.9132340">
        <ele>589.7</ele>
        <time>2019-08-12T06:09:12Z</time>
      </trkpt>
      <trkpt lat="39.0735080" lon="-3.9131940">
        <ele>590.0</ele>
        <time>2019-08-12T06:09:13Z</time>
      </trkpt>
      <trkpt lat="39.0735690" lon="-3.9131540">
        <ele>590.3</ele>
        <time>2019-08-12T06:09:14Z</time>
      </trkpt>
      <trkpt lat="39.0736300" lon="-3.9131140">
        <ele>590.7</ele>
        <time>2019-08-12T06:09:15Z</time>
      </trkpt>
      <trkpt lat="39.0736910" lon="-3.9130740">
        <ele>591.0</ele>
        <time>2019-08-12T06:09:16Z</time>
      </trkpt>
      <trkpt lat="39.0737510" lon="-3.9130330">
        <ele>591.4</ele>
        <time>2019-08-12T06:09:17Z</time>
      </trkpt>
      <trkpt lat="39.0738120" lon="-3.9129930">
        <ele>591.9</ele>
        <time>2019-08-12T06:09:18Z</time>
      </trkpt>
      <trkpt lat="39.0738720" lon="-3.9129530">
        <ele>592.3</ele>
        <time>2019-08-12T06:09:19Z</time>
      </trkpt>
      <trkpt lat="39.0739330" lon="-3.9129130">
        <ele>592.8</ele>
        <time>2019-08-12T06:09:20Z</time>
      </trkpt>
      <trkpt lat="39.0739930" lon="-3.9128730">
        <ele>593.3</ele>
        <time>2019-08-12T06:09:21Z</time>
      </trkpt>
      <trkpt lat="39.0740530" lon="-3.9128320">
        <ele>593.8</ele>
        <time>2019-08-12T06:09:22Z</time>
      </trkpt>
      <trkpt lat="39.0741130" lon="-3.9127920">
        <ele>594.3</ele>
        <time>2019-08-12T06:09:23Z</time>
      </trkpt>
      <trkpt lat="39.0741730" lon="-3.9127520">
        <ele>594.8</ele>
        <time>2019-08-12T06:09:24Z</time>
      </trkpt>
      <trkpt lat="39.0742330" lon="-3.9127130">
        <ele>595.3</ele>
        <time>2019-08-12T06:09:25Z</time>
      </trkpt>
      <trkpt lat="39.0742940" lon="-3.9126740">
        <ele>595.7</ele>
        <time>2019-08-12T06:09:26Z</time>
      </trkpt>
      <trkpt lat="39.0743540" lon="-3.9126350">
        <ele>596.2</ele>
        <time>2019-08-12T06:09:27Z</time>
      </trkpt>
      <trkpt lat="39.0744150" lon="-3.9125970">
        <ele>596.6</ele>
        <time>2019-08-12T06:09:28Z</time>
      </trkpt>
      <trkpt lat="39.0744770" lon="-3.9125600">
        <ele>597.0</ele>
        <time>2019-08-12T06:09:29Z</time>
      </trkpt>
      <trkpt lat="39.0745390" lon="-3.9125230">
        <ele>597.4</ele>
        <time>2019-08-12T06:09:30Z</time>
      </trkpt>
      <trkpt lat="39.0746010" lon="-3.9124870">
        <ele>597.7</ele>
        <time>2019-08-12T06:09:31Z</time>
      </trkpt>
      <trkpt lat="39.0746640" lon="-3.9124520">
        <ele>598.0</ele>
        <time>2019-08-12T06:09:32Z</time>
      </trkpt>
      <trkpt lat="39.0747270" lon="-3.9124180">
        <ele>598.3</ele>
        <time>2019-08-12T06:09:33Z</time>
      </trkpt>
      <trkpt lat="39.0747900" lon="-3.9123850">
        <ele>598.6</ele>
        <time>2019-08-12T06:09:34Z</time>
      </trkpt>
      <trkpt lat="39.0748530" lon="-3.9123540">
        <ele>598.9</ele>
        <time>2019-08-12T06:09:35Z</time>
      </trkpt>
      <trkpt lat="39.0749160" lon="-3.9123230">
        <ele>599.1</ele>
        <time>2019-08-12T06:09:36Z</time>
      </trkpt>
      <trkpt lat="39.0749790" lon="-3.9122930">
        <ele>599.3</ele>
        <time>2019-08-12T06:09:37Z</time>
      </trkpt>
      <trkpt lat="39.0750420" lon="-3.9122650">
        <ele>599.5</ele>
        <time>2019-08-12T06:09:38Z</time>
      </trkpt>
      <trkpt lat="39.0751040" lon="-3.9122380">
        <ele>599.7</ele>
        <time>2019-08-12T06:09:39Z</time>
      </trkpt>
      <trkpt lat="39.0751650" lon="-3.9122130">
        <ele>599.8</ele>
        <time>2019-08-12T06:09:40Z</time>
      </trkpt>
      <trkpt lat="39.0752260" lon="-3.9121890">
        <ele>599.9</ele>
        <time>2019-08-12T06:09:41Z</time>
      </trkpt>
      <trkpt lat="39.0752870" lon="-3.9121660">
        <ele>600.0</ele>
        <time>2019-08-12T06:09:42Z</time>
      </trkpt>
      <trkpt lat="39.0753470" lon="-3.9121430">
        <ele>600.1</ele>
        <time>2019-08-12T06:09:43Z</time>
      </trkpt>
      <trkpt lat="39.0754070" lon="-3.9121210">
        <ele>600.1</ele>
        <time>2019-08-12T06:09:44Z</time>
      </trkpt>
      <trkpt lat="39.0754660" lon="-3.9121000">
        <ele>600.1</ele>
        <time>2019-08-12T06:09:45Z</time>
      </trkpt>
      <trkpt lat="39.0755250" lon="-3.9120790">
        <ele>600.2</ele>
        <time>2019-08-12T06:09:46Z</time>
      </trkpt>
      <trkpt lat="39.0755830" lon="-3.9120580">
        <ele>600.2</ele>
        <time>2019-08-12T06:09:47Z</time>
      </trkpt>
      <trkpt lat="39.0756410" lon="-3.9120370">
        <ele>600.2</ele>
        <time>2019-08-12T06:09:48Z</time>
      </trkpt>
      <trkpt lat="39.0756990" lon="-3.9120160">
        <ele>600.3</ele>
        <time>2019-08-12T06:09:49Z</time>
      </trkpt>
      <trkpt lat="39.0757570" lon="-3.9119940">
        <ele>600.3</ele>
        <time>2019-08-12T06:09:50Z</time>
      </trkpt>
      <trkpt lat="39.0758150" lon="-3.9119720">
        <ele>600.4</ele>
        <time>2019-08-12T06:09:51Z</time>
      </trkpt>
      <trkpt lat="39.0758720" lon="-3.9119500">
        <ele>600.4</ele>
        <time>2019-08-12T06:09:52Z</time>
      </trkpt>
      <trkpt lat="39.0759290" lon="-3.9119280">
        <ele>600.5</ele>
        <time>2019-08-12T06:09:53Z</time>
      </trkpt>
      <trkpt lat="39.0759870" lon="-3.9119060">
        <ele>600.5</ele>
        <time>2019-08-12T06:09:54Z</time>
      </trkpt>
      <trkpt lat="39.0760440" lon="-3.9118830">
        <ele>600.6</ele>
        <time>2019-08-12T06:09:55Z</time>
      </trkpt>
      <trkpt lat="39.0761020" lon="-3.9118600">
        <ele>600.6</ele>
        <time>2019-08-12T06:09:56Z</time>
      </trkpt>
      <trkpt lat="39.0761590" lon="-3.9118370">
        <ele>600.6</ele>
        <time>2019-08-12T06:09:57Z</time>
      </trkpt>
      <trkpt lat="39.0762170" lon="-3.9118140">
        <ele>600.6</ele>
        <time>2019-08-12T06:09:58Z</time>
      </trkpt>
      <trkpt lat="39.0762750" lon="-3.9117910">
        <ele>600.6</ele>
        <time>2019-08-12T06:09:59Z</time>
      </trkpt>
      <trkpt lat="39.0763330" lon="-3.9117680">
        <ele>600.6</ele>
        <time>2019-08-12T06:10:00Z</time>
      </trkpt>
      <trkpt lat="39.0763910" lon="-3.9117450">
        <ele>600.7</ele>
        <time>2019-08-12T06:10:01Z</time>
      </trkpt>
      <trkpt lat="39.0764490" lon="-3.9117220">
        <ele>600.7</ele>
        <time>2019-08-12T06:10:02Z</time>
      </trkpt>
      <trkpt lat="39.0765070" lon="-3.9116990">
        <ele>600.7</ele>
        <time>2019-08-12T06:10:03Z</time>
      </trkpt>
      <trkpt lat="39.0765650" lon="-3.9116760">
        <ele>600.7</ele>
        <time>2019-08-12T06:10:04Z</time>
      </trkpt>
      <trkpt lat="39.0766230" lon="-3.9116530">
        <ele>600.7</ele>
        <time>2019-08-12T06:10:05Z</time>
      </trkpt>
      <trkpt lat="39.0766810" lon="-3.9116300">
        <ele>600.8</ele>
        <time>2019-08-12T06:10:06Z</time>
      </trkpt>
      <trkpt lat="39.0767390" lon="-3.9116070">
        <ele>600.8</ele>
        <time>2019-08-12T06:10:07Z</time>
      </trkpt>
      <trkpt lat="39.0767960" lon="-3.9115840">
        <ele>600.8</ele>
        <time>2019-08-12T06:10:08Z</time>
      </trkpt>
      <trkpt lat="39.0768530" lon="-3.9115610">
        <ele>600.8</ele>
        <time>2019-08-12T06:10:09Z</time>
      </trkpt>
      <trkpt lat="39.0769100" lon="-3.9115380">
        <ele>600.8</ele>
        <time>2019-08-12T06:10:10Z</time>
      </trkpt>
      <trkpt lat="39.0769680" lon="-3.9115150">
        <ele>600.9</ele>
        <time>2019-08-12T06:10:11Z</time>
      </trkpt>
      <trkpt lat="39.0770250" lon="-3.9114920">
        <ele>600.9</ele>
        <time>2019-08-12T06:10:12Z</time>
      </trkpt>
      <trkpt lat="39.0770820" lon="-3.9114690">
        <ele>600.9</ele>
        <time>2019-08-12T06:10:13Z</time>
      </trkpt>
      <trkpt lat="39.0771390" lon="-3.9114460">
        <ele>601.0</ele>
        <time>2019-08-12T06:10:14Z</time>
      </trkpt>
      <trkpt lat="39.0771970" lon="-3.9114230">
        <ele>601.0</ele>
        <time>2019-08-12T06:10:15Z</time>
      </trkpt>
      <trkpt lat="39.0772550" lon="-3.9114000">
        <ele>601.1</ele>
        <time>2019-08-12T06:10:16Z</time>
      </trkpt>
      <trkpt lat="39.0773130" lon="-3.9113770">
        <ele>601.2</ele>
        <time>2019-08-12T06:10:17Z</time>
      </trkpt>
      <trkpt lat="39.0773720" lon="-3.9113540">
        <ele>601.3</ele>
        <time>2019-08-12T06:10:18Z</time>
      </trkpt>
      <trkpt lat="39.0774310" lon="-3.9113310">
        <ele>601.3</ele>
        <time>2019-08-12T06:10:19Z</time>
      </trkpt>
      <trkpt lat="39.0774900" lon="-3.9113070">
        <ele>601.4</ele>
        <time>2019-08-12T06:10:20Z</time>
      </trkpt>
      <trkpt lat="39.0775500" lon="-3.9112840">
        <ele>601.5</ele>
        <time>2019-08-12T06:10:21Z</time>
      </trkpt>
      <trkpt lat="39.0776090" lon="-3.9112610">
        <ele>601.5</ele>
        <time>2019-08-12T06:10:22Z</time>
      </trkpt>
      <trkpt lat="39.0776690" lon="-3.9112370">
        <ele>601.5</ele>
        <time>2019-08-12T06:10:23Z</time>
      </trkpt>
      <trkpt lat="39.0777290" lon="-3.9112140">
        <ele>601.5</ele>
        <time>2019-08-12T06:10:24Z</time>
      </trkpt>
      <trkpt lat="39.0777900" lon="-3.9111900">
        <ele>601.5</ele>
        <time>2019-08-12T06:10:25Z</time>
      </trkpt>
      <trkpt lat="39.0778500" lon="-3.9111660">
        <ele>601.5</ele>
        <time>2019-08-12T06:10:26Z</time>
      </trkpt>
      <trkpt lat="39.0779100" lon="-3.9111430">
        <ele>601.5</ele>
        <time>2019-08-12T06:10:27Z</time>
      </trkpt>
      <trkpt lat="39.0779700" lon="-3.9111190">
        <ele>601.4</ele>
        <time>2019-08-12T06:10:28Z</time>
      </trkpt>
      <trkpt lat="39.0780310" lon="-3.9110950">
        <ele>601.3</ele>
        <time>2019-08-12T06:10:29Z</time>
      </trkpt>
      <trkpt lat="39.0780910" lon="-3.9110720">
        <ele>601.3</ele>
        <time>2019-08-12T06:10:30Z</time>
      </trkpt>
      <trkpt lat="39.0781510" lon="-3.9110480">
        <ele>601.2</ele>
        <time>2019-08-12T06:10:31Z</time>
      </trkpt>
      <trkpt lat="39.0782110" lon="-3.9110240">
        <ele>601.2</ele>
        <time>2019-08-12T06:10:32Z</time>
      </trkpt>
      <trkpt lat="39.0782710" lon="-3.9110000">
        <ele>601.1</ele>
        <time>2019-08-12T06:10:33Z</time>
      </trkpt>
      <trkpt lat="39.0783310" lon="-3.9109770">
        <ele>601.1</ele>
        <time>2019-08-12T06:10:34Z</time>
      </trkpt>
      <trkpt lat="39.0783900" lon="-3.9109530">
        <ele>601.0</ele>
        <time>2019-08-12T06:10:35Z</time>
      </trkpt>
      <trkpt lat="39.0784500" lon="-3.9109290">
        <ele>601.0</ele>
        <time>2019-08-12T06:10:36Z</time>
      </trkpt>
      <trkpt lat="39.0785090" lon="-3.9109050">
        <ele>600.9</ele>
        <time>2019-08-12T06:10:37Z</time>
      </trkpt>
      <trkpt lat="39.0785680" lon="-3.9108810">
        <ele>600.8</ele>
        <time>2019-08-12T06:10:38Z</time>
      </trkpt>
      <trkpt lat="39.0786270" lon="-3.9108570">
        <ele>600.8</ele>
        <time>2019-08-12T06:10:39Z</time>
      </trkpt>
      <trkpt lat="39.0786850" lon="-3.9108330">
        <ele>600.7</ele>
        <time>2019-08-12T06:10:40Z</time>
      </trkpt>
      <trkpt lat="39.0787440" lon="-3.9108100">
        <ele>600.7</ele>
        <time>2019-08-12T06:10:41Z</time>
      </trkpt>
      <trkpt lat="39.0788020" lon="-3.9107860">
        <ele>600.6</ele>
        <time>2019-08-12T06:10:42Z</time>
      </trkpt>
      <trkpt lat="39.0788610" lon="-3.9107620">
        <ele>600.6</ele>
        <time>2019-08-12T06:10:43Z</time>
      </trkpt>
      <trkpt lat="39.0789190" lon="-3.9107390">
        <ele>600.6</ele>
        <time>2019-08-12T06:10:44Z</time>
      </trkpt>
      <trkpt lat="39.0789770" lon="-3.9107150">
        <ele>600.5</ele>
        <time>2019-08-12T06:10:45Z</time>
      </trkpt>
      <trkpt lat="39.0790360" lon="-3.9106920">
        <ele>600.5</ele>
        <time>2019-08-12T06:10:46Z</time>
      </trkpt>
      <trkpt lat="39.0790940" lon="-3.9106690">
        <ele>600.5</ele>
        <time>2019-08-12T06:10:47Z</time>
      </trkpt>
      <trkpt lat="39.0791520" lon="-3.9106450">
        <ele>600.5</ele>
        <time>2019-08-12T06:10:48Z</time>
      </trkpt>
      <trkpt lat="39.0792110" lon="-3.9106220">
        <ele>600.5</ele>
        <time>2019-08-12T06:10:49Z</time>
      </trkpt>
      <trkpt lat="39.0792690" lon="-3.9105990">
        <ele>600.5</ele>
        <time>2019-08-12T06:10:50Z</time>
      </trkpt>
      <trkpt lat="39.0793270" lon="-3.9105750">
        <ele>600.5</ele>
        <time>2019-08-12T06:10:51Z</time>
      </trkpt>
      <trkpt lat="39.0793860" lon="-3.9105520">
        <ele>600.6</ele>
        <time>2019-08-12T06:10:52Z</time>
      </trkpt>
      <trkpt lat="39.0794450" lon="-3.9105280">
        <ele>600.6</ele>
        <time>2019-08-12T06:10:53Z</time>
      </trkpt>
      <trkpt lat="39.0795030" lon="-3.9105050">
        <ele>600.6</ele>
        <time>2019-08-12T06:10:54Z</time>
      </trkpt>
      <trkpt lat="39.0795620" lon="-3.9104810">
        <ele>600.7</ele>
        <time>2019-08-12T06:10:55Z</time>
      </trkpt>
      <trkpt lat="39.0796210" lon="-3.9104580">
        <ele>600.7</ele>
        <time>2019-08-12T06:10:56Z</time>
      </trkpt>
      <trkpt lat="39.0796800" lon="-3.9104340">
        <ele>600.7</ele>
        <time>2019-08-12T06:10:57Z</time>
      </trkpt>
      <trkpt lat="39.0797390" lon="-3.9104100">
        <ele>600.7</ele>
        <time>2019-08-12T06:10:58Z</time>
      </trkpt>
      <trkpt lat="39.0797980" lon="-3.9103870">
        <ele>600.7</ele>
        <time>2019-08-12T06:10:59Z</time>
      </trkpt>
      <trkpt lat="39.0798580" lon="-3.9103630">
        <ele>600.8</ele>
        <time>2019-08-12T06:11:00Z</time>
      </trkpt>
      <trkpt lat="39.0799170" lon="-3.9103390">
        <ele>600.8</ele>
        <time>2019-08-12T06:11:01Z</time>
      </trkpt>
      <trkpt lat="39.0799770" lon="-3.9103160">
        <ele>600.8</ele>
        <time>2019-08-12T06:11:02Z</time>
      </trkpt>
      <trkpt lat="39.0800370" lon="-3.9102920">
        <ele>600.8</ele>
        <time>2019-08-12T06:11:03Z</time>
      </trkpt>
      <trkpt lat="39.0800960" lon="-3.9102680">
        <ele>600.9</ele>
        <time>2019-08-12T06:11:04Z</time>
      </trkpt>
      <trkpt lat="39.0801570" lon="-3.9102440">
        <ele>600.9</ele>
        <time>2019-08-12T06:11:05Z</time>
      </trkpt>
      <trkpt lat="39.0802170" lon="-3.9102200">
        <ele>600.9</ele>
        <time>2019-08-12T06:11:06Z</time>
      </trkpt>
      <trkpt lat="39.0802770" lon="-3.9101970">
        <ele>600.9</ele>
        <time>2019-08-12T06:11:07Z</time>
      </trkpt>
      <trkpt lat="39.0803380" lon="-3.9101730">
        <ele>600.9</ele>
        <time>2019-08-12T06:11:08Z</time>
      </trkpt>
      <trkpt lat="39.0803980" lon="-3.9101490">
        <ele>600.9</ele>
        <time>2019-08-12T06:11:09Z</time>
      </trkpt>
      <trkpt lat="39.0804590" lon="-3.9101250">
        <ele>600.9</ele>
        <time>2019-08-12T06:11:10Z</time>
      </trkpt>
      <trkpt lat="39.0805200" lon="-3.9101020">
        <ele>600.9</ele>
        <time>2019-08-12T06:11:11Z</time>
      </trkpt>
      <trkpt lat="39.0805810" lon="-3.9100780">
        <ele>600.9</ele>
        <time>2019-08-12T06:11:12Z</time>
      </trkpt>
      <trkpt lat="39.0806430" lon="-3.9100540">
        <ele>600.9</ele>
        <time>2019-08-12T06:11:13Z</time>
      </trkpt>
      <trkpt lat="39.0807040" lon="-3.9100310">
        <ele>600.9</ele>
        <time>2019-08-12T06:11:14Z</time>
      </trkpt>
      <trkpt lat="39.0807650" lon="-3.9100070">
        <ele>600.9</ele>
        <time>2019-08-12T06:11:15Z</time>
      </trkpt>
      <trkpt lat="39.0808270" lon="-3.9099830">
        <ele>600.9</ele>
        <time>2019-08-12T06:11:16Z</time>
      </trkpt>
      <trkpt lat="39.0808880" lon="-3.9099590">
        <ele>600.9</ele>
        <time>2019-08-12T06:11:17Z</time>
      </trkpt>
      <trkpt lat="39.0809500" lon="-3.9099360">
        <ele>600.9</ele>
        <time>2019-08-12T06:11:18Z</time>
      </trkpt>
      <trkpt lat="39.0810110" lon="-3.9099120">
        <ele>600.9</ele>
        <time>2019-08-12T06:11:19Z</time>
      </trkpt>
      <trkpt lat="39.0810730" lon="-3.9098880">
        <ele>600.9</ele>
        <time>2019-08-12T06:11:20Z</time>
      </trkpt>
      <trkpt lat="39.0811340" lon="-3.9098640">
        <ele>600.8</ele>
        <time>2019-08-12T06:11:21Z</time>
      </trkpt>
      <trkpt lat="39.0811950" lon="-3.9098400">
        <ele>600.8</ele>
        <time>2019-08-12T06:11:22Z</time>
      </trkpt>
      <trkpt lat="39.0812570" lon="-3.9098160">
        <ele>600.8</ele>
        <time>2019-08-12T06:11:23Z</time>
      </trkpt>
      <trkpt lat="39.0813170" lon="-3.9097920">
        <ele>600.8</ele>
        <time>2019-08-12T06:11:24Z</time>
      </trkpt>
      <trkpt lat="39.0813780" lon="-3.9097670">
        <ele>600.7</ele>
        <time>2019-08-12T06:11:25Z</time>
      </trkpt>
      <trkpt lat="39.0814390" lon="-3.9097430">
        <ele>600.7</ele>
        <time>2019-08-12T06:11:26Z</time>
      </trkpt>
      <trkpt lat="39.0814990" lon="-3.9097190">
        <ele>600.7</ele>
        <time>2019-08-12T06:11:27Z</time>
      </trkpt>
      <trkpt lat="39.0815590" lon="-3.9096940">
        <ele>600.7</ele>
        <time>2019-08-12T06:11:28Z</time>
      </trkpt>
      <trkpt lat="39.0816190" lon="-3.9096690">
        <ele>600.7</ele>
        <time>2019-08-12T06:11:29Z</time>
      </trkpt>
      <trkpt lat="39.0816780" lon="-3.9096440">
        <ele>600.7</ele>
        <time>2019-08-12T06:11:30Z</time>
      </trkpt>
      <trkpt lat="39.0817370" lon="-3.9096200">
        <ele>600.7</ele>
        <time>2019-08-12T06:11:31Z</time>
      </trkpt>
      <trkpt lat="39.0817960" lon="-3.9095950">
        <ele>600.7</ele>
        <time>2019-08-12T06:11:32Z</time>
      </trkpt>
      <trkpt lat="39.0818540" lon="-3.9095710">
        <ele>600.7</ele>
        <time>2019-08-12T06:11:33Z</time>
      </trkpt>
      <trkpt lat="39.0819120" lon="-3.9095480">
        <ele>600.7</ele>
        <time>2019-08-12T06:11:34Z</time>
      </trkpt>
      <trkpt lat="39.0819700" lon="-3.9095260">
        <ele>600.7</ele>
        <time>2019-08-12T06:11:35Z</time>
      </trkpt>
      <trkpt lat="39.0820270" lon="-3.9095050">
        <ele>600.7</ele>
        <time>2019-08-12T06:11:36Z</time>
      </trkpt>
      <trkpt lat="39.0820840" lon="-3.9094840">
        <ele>600.7</ele>
        <time>2019-08-12T06:11:37Z</time>
      </trkpt>
      <trkpt lat="39.0821400" lon="-3.9094640">
        <ele>600.7</ele>
        <time>2019-08-12T06:11:38Z</time>
      </trkpt>
      <trkpt lat="39.0821970" lon="-3.9094430">
        <ele>600.7</ele>
        <time>2019-08-12T06:11:39Z</time>
      </trkpt>
      <trkpt lat="39.0822530" lon="-3.9094220">
        <ele>600.7</ele>
        <time>2019-08-12T06:11:40Z</time>
      </trkpt>
      <trkpt lat="39.0823090" lon="-3.9094010">
        <ele>600.8</ele>
        <time>2019-08-12T06:11:41Z</time>
      </trkpt>
      <trkpt lat="39.0823650" lon="-3.9093790">
        <ele>600.8</ele>
        <time>2019-08-12T06:11:42Z</time>
      </trkpt>
      <trkpt lat="39.0824210" lon="-3.9093580">
        <ele>600.9</ele>
        <time>2019-08-12T06:11:43Z</time>
      </trkpt>
      <trkpt lat="39.0824760" lon="-3.9093370">
        <ele>600.9</ele>
        <time>2019-08-12T06:11:44Z</time>
      </trkpt>
      <trkpt lat="39.0825310" lon="-3.9093150">
        <ele>601.0</ele>
        <time>2019-08-12T06:11:45Z</time>
      </trkpt>
      <trkpt lat="39.0825860" lon="-3.9092930">
        <ele>601.0</ele>
        <time>2019-08-12T06:11:46Z</time>
      </trkpt>
      <trkpt lat="39.0826400" lon="-3.9092720">
        <ele>601.1</ele>
        <time>2019-08-12T06:11:47Z</time>
      </trkpt>
      <trkpt lat="39.0826940" lon="-3.9092500">
        <ele>601.1</ele>
        <time>2019-08-12T06:11:48Z</time>
      </trkpt>
      <trkpt lat="39.0827470" lon="-3.9092280">
        <ele>601.1</ele>
        <time>2019-08-12T06:11:49Z</time>
      </trkpt>
      <trkpt lat="39.0828000" lon="-3.9092060">
        <ele>601.2</ele>
        <time>2019-08-12T06:11:50Z</time>
      </trkpt>
      <trkpt lat="39.0828530" lon="-3.9091840">
        <ele>601.2</ele>
        <time>2019-08-12T06:11:51Z</time>
      </trkpt>
      <trkpt lat="39.0829050" lon="-3.9091620">
        <ele>601.3</ele>
        <time>2019-08-12T06:11:52Z</time>
      </trkpt>
      <trkpt lat="39.0829580" lon="-3.9091400">
        <ele>601.3</ele>
        <time>2019-08-12T06:11:53Z</time>
      </trkpt>
      <trkpt lat="39.0830100" lon="-3.9091180">
        <ele>601.3</ele>
        <time>2019-08-12T06:11:54Z</time>
      </trkpt>
      <trkpt lat="39.0830620" lon="-3.9090960">
        <ele>601.4</ele>
        <time>2019-08-12T06:11:55Z</time>
      </trkpt>
      <trkpt lat="39.0831150" lon="-3.9090740">
        <ele>601.4</ele>
        <time>2019-08-12T06:11:56Z</time>
      </trkpt>
      <trkpt lat="39.0831670" lon="-3.9090530">
        <ele>601.5</ele>
        <time>2019-08-12T06:11:57Z</time>
      </trkpt>
      <trkpt lat="39.0832200" lon="-3.9090310">
        <ele>601.5</ele>
        <time>2019-08-12T06:11:58Z</time>
      </trkpt>
      <trkpt lat="39.0832730" lon="-3.9090100">
        <ele>601.6</ele>
        <time>2019-08-12T06:11:59Z</time>
      </trkpt>
      <trkpt lat="39.0833250" lon="-3.9089890">
        <ele>601.6</ele>
        <time>2019-08-12T06:12:00Z</time>
      </trkpt>
      <trkpt lat="39.0833780" lon="-3.9089680">
        <ele>601.7</ele>
        <time>2019-08-12T06:12:01Z</time>
      </trkpt>
      <trkpt lat="39.0834310" lon="-3.9089470">
        <ele>601.8</ele>
        <time>2019-08-12T06:12:02Z</time>
      </trkpt>
      <trkpt lat="39.0834840" lon="-3.9089260">
        <ele>601.8</ele>
        <time>2019-08-12T06:12:03Z</time>
      </trkpt>
      <trkpt lat="39.0835360" lon="-3.9089050">
        <ele>601.9</ele>
        <time>2019-08-12T06:12:04Z</time>
      </trkpt>
      <trkpt lat="39.0835880" lon="-3.9088850">
        <ele>602.0</ele>
        <time>2019-08-12T06:12:05Z</time>
      </trkpt>
      <trkpt lat="39.0836390" lon="-3.9088640">
        <ele>602.1</ele>
        <time>2019-08-12T06:12:06Z</time>
      </trkpt>
      <trkpt lat="39.0836910" lon="-3.9088430">
        <ele>602.1</ele>
        <time>2019-08-12T06:12:07Z</time>
      </trkpt>
      <trkpt lat="39.0837410" lon="-3.9088230">
        <ele>602.2</ele>
        <time>2019-08-12T06:12:08Z</time>
      </trkpt>
      <trkpt lat="39.0837920" lon="-3.9088020">
        <ele>602.2</ele>
        <time>2019-08-12T06:12:09Z</time>
      </trkpt>
      <trkpt lat="39.0838420" lon="-3.9087820">
        <ele>602.3</ele>
        <time>2019-08-12T06:12:10Z</time>
      </trkpt>
      <trkpt lat="39.0838910" lon="-3.9087610">
        <ele>602.3</ele>
        <time>2019-08-12T06:12:11Z</time>
      </trkpt>
      <trkpt lat="39.0839410" lon="-3.9087410">
        <ele>602.4</ele>
        <time>2019-08-12T06:12:12Z</time>
      </trkpt>
      <trkpt lat="39.0839900" lon="-3.9087210">
        <ele>602.4</ele>
        <time>2019-08-12T06:12:13Z</time>
      </trkpt>
      <trkpt lat="39.0840380" lon="-3.9087010">
        <ele>602.5</ele>
        <time>2019-08-12T06:12:14Z</time>
      </trkpt>
      <trkpt lat="39.0840870" lon="-3.9086810">
        <ele>602.5</ele>
        <time>2019-08-12T06:12:15Z</time>
      </trkpt>
      <trkpt lat="39.0841350" lon="-3.9086610">
        <ele>602.6</ele>
        <time>2019-08-12T06:12:16Z</time>
      </trkpt>
      <trkpt lat="39.0841830" lon="-3.9086410">
        <ele>602.6</ele>
        <time>2019-08-12T06:12:17Z</time>
      </trkpt>
      <trkpt lat="39.0842310" lon="-3.9086210">
        <ele>602.6</ele>
        <time>2019-08-12T06:12:18Z</time>
      </trkpt>
      <trkpt lat="39.0842780" lon="-3.9086010">
        <ele>602.7</ele>
        <time>2019-08-12T06:12:19Z</time>
      </trkpt>
      <trkpt lat="39.0843260" lon="-3.9085820">
        <ele>602.7</ele>
        <time>2019-08-12T06:12:20Z</time>
      </trkpt>
      <trkpt lat="39.0843730" lon="-3.9085620">
        <ele>602.8</ele>
        <time>2019-08-12T06:12:21Z</time>
      </trkpt>
      <trkpt lat="39.0844200" lon="-3.9085430">
        <ele>602.8</ele>
        <time>2019-08-12T06:12:22Z</time>
      </trkpt>
      <trkpt lat="39.0844670" lon="-3.9085240">
        <ele>602.8</ele>
        <time>2019-08-12T06:12:23Z</time>
      </trkpt>
      <trkpt lat="39.0845140" lon="-3.9085050">
        <ele>602.9</ele>
        <time>2019-08-12T06:12:24Z</time>
      </trkpt>
      <trkpt lat="39.0845610" lon="-3.9084850">
        <ele>602.9</ele>
        <time>2019-08-12T06:12:25Z</time>
      </trkpt>
      <trkpt lat="39.0846080" lon="-3.9084670">
        <ele>603.0</ele>
        <time>2019-08-12T06:12:26Z</time>
      </trkpt>
      <trkpt lat="39.0846550" lon="-3.9084480">
        <ele>603.0</ele>
        <time>2019-08-12T06:12:27Z</time>
      </trkpt>
      <trkpt lat="39.0847010" lon="-3.9084290">
        <ele>603.1</ele>
        <time>2019-08-12T06:12:28Z</time>
      </trkpt>
      <trkpt lat="39.0847480" lon="-3.9084100">
        <ele>603.1</ele>
        <time>2019-08-12T06:12:29Z</time>
      </trkpt>
      <trkpt lat="39.0847950" lon="-3.9083920">
        <ele>603.2</ele>
        <time>2019-08-12T06:12:30Z</time>
      </trkpt>
      <trkpt lat="39.0848420" lon="-3.9083730">
        <ele>603.2</ele>
        <time>2019-08-12T06:12:31Z</time>
      </trkpt>
      <trkpt lat="39.0848890" lon="-3.9083550">
        <ele>603.3</ele>
        <time>2019-08-12T06:12:32Z</time>
      </trkpt>
      <trkpt lat="39.0849360" lon="-3.9083360">
        <ele>603.4</ele>
        <time>2019-08-12T06:12:33Z</time>
      </trkpt>
      <trkpt lat="39.0849830" lon="-3.9083180">
        <ele>603.4</ele>
        <time>2019-08-12T06:12:34Z</time>
      </trkpt>
      <trkpt lat="39.0850310" lon="-3.9083000">
        <ele>603.5</ele>
        <time>2019-08-12T06:12:35Z</time>
      </trkpt>
      <trkpt lat="39.0850780" lon="-3.9082810">
        <ele>603.6</ele>
        <time>2019-08-12T06:12:36Z</time>
      </trkpt>
      <trkpt lat="39.0851260" lon="-3.9082630">
        <ele>603.6</ele>
        <time>2019-08-12T06:12:37Z</time>
      </trkpt>
      <trkpt lat="39.0851730" lon="-3.9082450">
        <ele>603.7</ele>
        <time>2019-08-12T06:12:38Z</time>
      </trkpt>
      <trkpt lat="39.0852210" lon="-3.9082260">
        <ele>603.8</ele>
        <time>2019-08-12T06:12:39Z</time>
      </trkpt>
      <trkpt lat="39.0852690" lon="-3.9082080">
        <ele>603.9</ele>
        <time>2019-08-12T06:12:40Z</time>
      </trkpt>
      <trkpt lat="39.0853170" lon="-3.9081900">
        <ele>603.9</ele>
        <time>2019-08-12T06:12:41Z</time>
      </trkpt>
      <trkpt lat="39.0853660" lon="-3.9081710">
        <ele>604.1</ele>
        <time>2019-08-12T06:12:42Z</time>
      </trkpt>
      <trkpt lat="39.0854150" lon="-3.9081530">
        <ele>604.2</ele>
        <time>2019-08-12T06:12:43Z</time>
      </trkpt>
      <trkpt lat="39.0854640" lon="-3.9081350">
        <ele>604.3</ele>
        <time>2019-08-12T06:12:44Z</time>
      </trkpt>
      <trkpt lat="39.0855130" lon="-3.9081160">
        <ele>604.4</ele>
        <time>2019-08-12T06:12:45Z</time>
      </trkpt>
      <trkpt lat="39.0855620" lon="-3.9080980">
        <ele>604.5</ele>
        <time>2019-08-12T06:12:46Z</time>
      </trkpt>
      <trkpt lat="39.0856120" lon="-3.9080790">
        <ele>604.6</ele>
        <time>2019-08-12T06:12:47Z</time>
      </trkpt>
      <trkpt lat="39.0856610" lon="-3.9080610">
        <ele>604.7</ele>
        <time>2019-08-12T06:12:48Z</time>
      </trkpt>
      <trkpt lat="39.0857110" lon="-3.9080420">
        <ele>604.7</ele>
        <time>2019-08-12T06:12:49Z</time>
      </trkpt>
      <trkpt lat="39.0857600" lon="-3.9080240">
        <ele>604.8</ele>
        <time>2019-08-12T06:12:50Z</time>
      </trkpt>
      <trkpt lat="39.0858100" lon="-3.9080050">
        <ele>604.9</ele>
        <time>2019-08-12T06:12:51Z</time>
      </trkpt>
      <trkpt lat="39.0858590" lon="-3.9079870">
        <ele>604.9</ele>
        <time>2019-08-12T06:12:52Z</time>
      </trkpt>
      <trkpt lat="39.0859080" lon="-3.9079680">
        <ele>605.0</ele>
        <time>2019-08-12T06:12:53Z</time>
      </trkpt>
      <trkpt lat="39.0859570" lon="-3.9079500">
        <ele>605.1</ele>
        <time>2019-08-12T06:12:54Z</time>
      </trkpt>
      <trkpt lat="39.0860060" lon="-3.9079320">
        <ele>605.1</ele>
        <time>2019-08-12T06:12:55Z</time>
      </trkpt>
      <trkpt lat="39.0860550" lon="-3.9079140">
        <ele>605.2</ele>
        <time>2019-08-12T06:12:56Z</time>
      </trkpt>
      <trkpt lat="39.0861030" lon="-3.9078960">
        <ele>605.3</ele>
        <time>2019-08-12T06:12:57Z</time>
      </trkpt>
      <trkpt lat="39.0861510" lon="-3.9078780">
        <ele>605.3</ele>
        <time>2019-08-12T06:12:58Z</time>
      </trkpt>
      <trkpt lat="39.0861990" lon="-3.9078600">
        <ele>605.4</ele>
        <time>2019-08-12T06:12:59Z</time>
      </trkpt>
      <trkpt lat="39.0862460" lon="-3.9078420">
        <ele>605.5</ele>
        <time>2019-08-12T06:13:00Z</time>
      </trkpt>
      <trkpt lat="39.0862930" lon="-3.9078250">
        <ele>605.6</ele>
        <time>2019-08-12T06:13:01Z</time>
      </trkpt>
      <trkpt lat="39.0863390" lon="-3.9078070">
        <ele>605.7</ele>
        <time>2019-08-12T06:13:02Z</time>
      </trkpt>
      <trkpt lat="39.0863840" lon="-3.9077900">
        <ele>605.9</ele>
        <time>2019-08-12T06:13:03Z</time>
      </trkpt>
      <trkpt lat="39.0864300" lon="-3.9077730">
        <ele>606.0</ele>
        <time>2019-08-12T06:13:04Z</time>
      </trkpt>
      <trkpt lat="39.0864750" lon="-3.9077560">
        <ele>606.2</ele>
        <time>2019-08-12T06:13:05Z</time>
      </trkpt>
      <trkpt lat="39.0865190" lon="-3.9077390">
        <ele>606.4</ele>
        <time>2019-08-12T06:13:06Z</time>
      </trkpt>
      <trkpt lat="39.0865630" lon="-3.9077220">
        <ele>606.6</ele>
        <time>2019-08-12T06:13:07Z</time>
      </trkpt>
      <trkpt lat="39.0866070" lon="-3.9077050">
        <ele>606.7</ele>
        <time>2019-08-12T06:13:08Z</time>
      </trkpt>
      <trkpt lat="39.0866500" lon="-3.9076890">
        <ele>606.9</ele>
        <time>2019-08-12T06:13:09Z</time>
      </trkpt>
      <trkpt lat="39.0866940" lon="-3.9076720">
        <ele>607.1</ele>
        <time>2019-08-12T06:13:10Z</time>
      </trkpt>
      <trkpt lat="39.0867370" lon="-3.9076560">
        <ele>607.3</ele>
        <time>2019-08-12T06:13:11Z</time>
      </trkpt>
      <trkpt lat="39.0867800" lon="-3.9076390">
        <ele>607.4</ele>
        <time>2019-08-12T06:13:12Z</time>
      </trkpt>
      <trkpt lat="39.0868220" lon="-3.9076230">
        <ele>607.6</ele>
        <time>2019-08-12T06:13:13Z</time>
      </trkpt>
      <trkpt lat="39.0868650" lon="-3.9076060">
        <ele>607.8</ele>
        <time>2019-08-12T06:13:14Z</time>
      </trkpt>
      <trkpt lat="39.0869080" lon="-3.9075900">
        <ele>608.0</ele>
        <time>2019-08-12T06:13:15Z</time>
      </trkpt>
      <trkpt lat="39.0869500" lon="-3.9075740">
        <ele>608.1</ele>
        <time>2019-08-12T06:13:16Z</time>
      </trkpt>
      <trkpt lat="39.0869930" lon="-3.9075570">
        <ele>608.3</ele>
        <time>2019-08-12T06:13:17Z</time>
      </trkpt>
      <trkpt lat="39.0870350" lon="-3.9075410">
        <ele>608.4</ele>
        <time>2019-08-12T06:13:18Z</time>
      </trkpt>
      <trkpt lat="39.0870780" lon="-3.9075250">
        <ele>608.6</ele>
        <time>2019-08-12T06:13:19Z</time>
      </trkpt>
      <trkpt lat="39.0871210" lon="-3.9075080">
        <ele>608.7</ele>
        <time>2019-08-12T06:13:20Z</time>
      </trkpt>
      <trkpt lat="39.0871640" lon="-3.9074920">
        <ele>608.8</ele>
        <time>2019-08-12T06:13:21Z</time>
      </trkpt>
      <trkpt lat="39.0872070" lon="-3.9074750">
        <ele>608.9</ele>
        <time>2019-08-12T06:13:22Z</time>
      </trkpt>
      <trkpt lat="39.0872500" lon="-3.9074590">
        <ele>609.0</ele>
        <time>2019-08-12T06:13:23Z</time>
      </trkpt>
      <trkpt lat="39.0872930" lon="-3.9074420">
        <ele>609.2</ele>
        <time>2019-08-12T06:13:24Z</time>
      </trkpt>
      <trkpt lat="39.0873370" lon="-3.9074260">
        <ele>609.3</ele>
        <time>2019-08-12T06:13:25Z</time>
      </trkpt>
      <trkpt lat="39.0873800" lon="-3.9074090">
        <ele>609.4</ele>
        <time>2019-08-12T06:13:26Z</time>
      </trkpt>
      <trkpt lat="39.0874240" lon="-3.9073920">
        <ele>609.5</ele>
        <time>2019-08-12T06:13:27Z</time>
      </trkpt>
      <trkpt lat="39.0874680" lon="-3.9073750">
        <ele>609.6</ele>
        <time>2019-08-12T06:13:28Z</time>
      </trkpt>
      <trkpt lat="39.0875120" lon="-3.9073580">
        <ele>609.8</ele>
        <time>2019-08-12T06:13:29Z</time>
      </trkpt>
      <trkpt lat="39.0875560" lon="-3.9073410">
        <ele>609.9</ele>
        <time>2019-08-12T06:13:30Z</time>
      </trkpt>
      <trkpt lat="39.0876010" lon="-3.9073240">
        <ele>610.0</ele>
        <time>2019-08-12T06:13:31Z</time>
      </trkpt>
      <trkpt lat="39.0876460" lon="-3.9073070">
        <ele>610.1</ele>
        <time>2019-08-12T06:13:32Z</time>
      </trkpt>
      <trkpt lat="39.0876910" lon="-3.9072890">
        <ele>610.2</ele>
        <time>2019-08-12T06:13:33Z</time>
      </trkpt>
      <trkpt lat="39.0877360" lon="-3.9072720">
        <ele>610.3</ele>
        <time>2019-08-12T06:13:34Z</time>
      </trkpt>
      <trkpt lat="39.0877810" lon="-3.9072540">
        <ele>610.4</ele>
        <time>2019-08-12T06:13:35Z</time>
      </trkpt>
      <trkpt lat="39.0878270" lon="-3.9072360">
        <ele>610.5</ele>
        <time>2019-08-12T06:13:36Z</time>
      </trkpt>
      <trkpt lat="39.0878730" lon="-3.9072180">
        <ele>610.6</ele>
        <time>2019-08-12T06:13:37Z</time>
      </trkpt>
      <trkpt lat="39.0879190" lon="-3.9071990">
        <ele>610.6</ele>
        <time>2019-08-12T06:13:38Z</time>
      </trkpt>
      <trkpt lat="39.0879650" lon="-3.9071810">
        <ele>610.7</ele>
        <time>2019-08-12T06:13:39Z</time>
      </trkpt>
      <trkpt lat="39.0880120" lon="-3.9071620">
        <ele>610.8</ele>
        <time>2019-08-12T06:13:40Z</time>
      </trkpt>
      <trkpt lat="39.0880590" lon="-3.9071430">
        <ele>610.8</ele>
        <time>2019-08-12T06:13:41Z</time>
      </trkpt>
      <trkpt lat="39.0881070" lon="-3.9071240">
        <ele>610.9</ele>
        <time>2019-08-12T06:13:42Z</time>
      </trkpt>
      <trkpt lat="39.0881550" lon="-3.9071050">
        <ele>611.0</ele>
        <time>2019-08-12T06:13:43Z</time>
      </trkpt>
      <trkpt lat="39.0882030" lon="-3.9070860">
        <ele>611.1</ele>
        <time>2019-08-12T06:13:44Z</time>
      </trkpt>
      <trkpt lat="39.0882520" lon="-3.9070660">
        <ele>611.1</ele>
        <time>2019-08-12T06:13:45Z</time>
      </trkpt>
      <trkpt lat="39.0883010" lon="-3.9070460">
        <ele>611.2</ele>
        <time>2019-08-12T06:13:46Z</time>
      </trkpt>
      <trkpt lat="39.0883500" lon="-3.9070270">
        <ele>611.2</ele>
        <time>2019-08-12T06:13:47Z</time>
      </trkpt>
      <trkpt lat="39.0884010" lon="-3.9070070">
        <ele>611.3</ele>
        <time>2019-08-12T06:13:48Z</time>
      </trkpt>
      <trkpt lat="39.0884510" lon="-3.9069870">
        <ele>611.3</ele>
        <time>2019-08-12T06:13:49Z</time>
      </trkpt>
      <trkpt lat="39.0885020" lon="-3.9069670">
        <ele>611.4</ele>
        <time>2019-08-12T06:13:50Z</time>
      </trkpt>
      <trkpt lat="39.0885530" lon="-3.9069470">
        <ele>611.4</ele>
        <time>2019-08-12T06:13:51Z</time>
      </trkpt>
      <trkpt lat="39.0886040" lon="-3.9069260">
        <ele>611.5</ele>
        <time>2019-08-12T06:13:52Z</time>
      </trkpt>
      <trkpt lat="39.0886550" lon="-3.9069060">
        <ele>611.5</ele>
        <time>2019-08-12T06:13:53Z</time>
      </trkpt>
      <trkpt lat="39.0887060" lon="-3.9068860">
        <ele>611.6</ele>
        <time>2019-08-12T06:13:54Z</time>
      </trkpt>
      <trkpt lat="39.0887560" lon="-3.9068660">
        <ele>611.6</ele>
        <time>2019-08-12T06:13:55Z</time>
      </trkpt>
      <trkpt lat="39.0888060" lon="-3.9068460">
        <ele>611.7</ele>
        <time>2019-08-12T06:13:56Z</time>
      </trkpt>
      <trkpt lat="39.0888550" lon="-3.9068250">
        <ele>611.8</ele>
        <time>2019-08-12T06:13:57Z</time>
      </trkpt>
      <trkpt lat="39.0889040" lon="-3.9068050">
        <ele>611.8</ele>
        <time>2019-08-12T06:13:58Z</time>
      </trkpt>
      <trkpt lat="39.0889530" lon="-3.9067850">
        <ele>611.9</ele>
        <time>2019-08-12T06:13:59Z</time>
      </trkpt>
      <trkpt lat="39.0890010" lon="-3.9067660">
        <ele>611.9</ele>
        <time>2019-08-12T06:14:00Z</time>
      </trkpt>
      <trkpt lat="39.0890490" lon="-3.9067460">
        <ele>612.0</ele>
        <time>2019-08-12T06:14:01Z</time>
      </trkpt>
      <trkpt lat="39.0890960" lon="-3.9067260">
        <ele>612.0</ele>
        <time>2019-08-12T06:14:02Z</time>
      </trkpt>
      <trkpt lat="39.0891420" lon="-3.9067070">
        <ele>612.1</ele>
        <time>2019-08-12T06:14:03Z</time>
      </trkpt>
      <trkpt lat="39.0891890" lon="-3.9066880">
        <ele>612.2</ele>
        <time>2019-08-12T06:14:04Z</time>
      </trkpt>
      <trkpt lat="39.0892350" lon="-3.9066690">
        <ele>612.2</ele>
        <time>2019-08-12T06:14:05Z</time>
      </trkpt>
      <trkpt lat="39.0892810" lon="-3.9066500">
        <ele>612.3</ele>
        <time>2019-08-12T06:14:06Z</time>
      </trkpt>
      <trkpt lat="39.0893260" lon="-3.9066310">
        <ele>612.4</ele>
        <time>2019-08-12T06:14:07Z</time>
      </trkpt>
      <trkpt lat="39.0893710" lon="-3.9066130">
        <ele>612.4</ele>
        <time>2019-08-12T06:14:08Z</time>
      </trkpt>
      <trkpt lat="39.0894160" lon="-3.9065950">
        <ele>612.5</ele>
        <time>2019-08-12T06:14:09Z</time>
      </trkpt>
      <trkpt lat="39.0894600" lon="-3.9065780">
        <ele>612.6</ele>
        <time>2019-08-12T06:14:10Z</time>
      </trkpt>
      <trkpt lat="39.0895050" lon="-3.9065610">
        <ele>612.6</ele>
        <time>2019-08-12T06:14:11Z</time>
      </trkpt>
      <trkpt lat="39.0895490" lon="-3.9065440">
        <ele>612.7</ele>
        <time>2019-08-12T06:14:12Z</time>
      </trkpt>
      <trkpt lat="39.0895930" lon="-3.9065270">
        <ele>612.7</ele>
        <time>2019-08-12T06:14:13Z</time>
      </trkpt>
      <trkpt lat="39.0896360" lon="-3.9065110">
        <ele>612.7</ele>
        <time>2019-08-12T06:14:14Z</time>
      </trkpt>
      <trkpt lat="39.0896800" lon="-3.9064960">
        <ele>612.8</ele>
        <time>2019-08-12T06:14:15Z</time>
      </trkpt>
      <trkpt lat="39.0897230" lon="-3.9064800">
        <ele>612.8</ele>
        <time>2019-08-12T06:14:16Z</time>
      </trkpt>
      <trkpt lat="39.0897670" lon="-3.9064660">
        <ele>612.9</ele>
        <time>2019-08-12T06:14:17Z</time>
      </trkpt>
      <trkpt lat="39.0898090" lon="-3.9064510">
        <ele>612.9</ele>
        <time>2019-08-12T06:14:18Z</time>
      </trkpt>
      <trkpt lat="39.0898520" lon="-3.9064370">
        <ele>612.9</ele>
        <time>2019-08-12T06:14:19Z</time>
      </trkpt>
      <trkpt lat="39.0898940" lon="-3.9064240">
        <ele>613.0</ele>
        <time>2019-08-12T06:14:20Z</time>
      </trkpt>
      <trkpt lat="39.0899360" lon="-3.9064110">
        <ele>613.0</ele>
        <time>2019-08-12T06:14:21Z</time>
      </trkpt>
      <trkpt lat="39.0899780" lon="-3.9063990">
        <ele>613.1</ele>
        <time>2019-08-12T06:14:22Z</time>
      </trkpt>
      <trkpt lat="39.0900190" lon="-3.9063870">
        <ele>613.2</ele>
        <time>2019-08-12T06:14:23Z</time>
      </trkpt>
      <trkpt lat="39.0900590" lon="-3.9063750">
        <ele>613.3</ele>
        <time>2019-08-12T06:14:24Z</time>
      </trkpt>
      <trkpt lat="39.0900990" lon="-3.9063650">
        <ele>613.4</ele>
        <time>2019-08-12T06:14:25Z</time>
      </trkpt>
      <trkpt lat="39.0901390" lon="-3.9063540">
        <ele>613.5</ele>
        <time>2019-08-12T06:14:26Z</time>
      </trkpt>
      <trkpt lat="39.0901780" lon="-3.9063440">
        <ele>613.6</ele>
        <time>2019-08-12T06:14:27Z</time>
      </trkpt>
      <trkpt lat="39.0902160" lon="-3.9063340">
        <ele>613.7</ele>
        <time>2019-08-12T06:14:28Z</time>
      </trkpt>
      <trkpt lat="39.0902550" lon="-3.9063250">
        <ele>613.8</ele>
        <time>2019-08-12T06:14:29Z</time>
      </trkpt>
      <trkpt lat="39.0902940" lon="-3.9063160">
        <ele>613.9</ele>
        <time>2019-08-12T06:14:30Z</time>
      </trkpt>
      <trkpt lat="39.0903320" lon="-3.9063070">
        <ele>614.0</ele>
        <time>2019-08-12T06:14:31Z</time>
      </trkpt>
      <trkpt lat="39.0903710" lon="-3.9062980">
        <ele>614.2</ele>
        <time>2019-08-12T06:14:32Z</time>
      </trkpt>
      <trkpt lat="39.0904090" lon="-3.9062890">
        <ele>614.3</ele>
        <time>2019-08-12T06:14:33Z</time>
      </trkpt>
      <trkpt lat="39.0904480" lon="-3.9062800">
        <ele>614.5</ele>
        <time>2019-08-12T06:14:34Z</time>
      </trkpt>
      <trkpt lat="39.0904870" lon="-3.9062720">
        <ele>614.7</ele>
        <time>2019-08-12T06:14:35Z</time>
      </trkpt>
      <trkpt lat="39.0905270" lon="-3.9062630">
        <ele>615.0</ele>
        <time>2019-08-12T06:14:36Z</time>
      </trkpt>
      <trkpt lat="39.0905660" lon="-3.9062550">
        <ele>615.2</ele>
        <time>2019-08-12T06:14:37Z</time>
      </trkpt>
      <trkpt lat="39.0906050" lon="-3.9062470">
        <ele>615.4</ele>
        <time>2019-08-12T06:14:38Z</time>
      </trkpt>
      <trkpt lat="39.0906450" lon="-3.9062390">
        <ele>615.7</ele>
        <time>2019-08-12T06:14:39Z</time>
      </trkpt>
      <trkpt lat="39.0906840" lon="-3.9062320">
        <ele>615.9</ele>
        <time>2019-08-12T06:14:40Z</time>
      </trkpt>
      <trkpt lat="39.0907240" lon="-3.9062250">
        <ele>616.1</ele>
        <time>2019-08-12T06:14:41Z</time>
      </trkpt>
      <trkpt lat="39.0907630" lon="-3.9062190">
        <ele>616.4</ele>
        <time>2019-08-12T06:14:42Z</time>
      </trkpt>
      <trkpt lat="39.0908030" lon="-3.9062130">
        <ele>616.6</ele>
        <time>2019-08-12T06:14:43Z</time>
      </trkpt>
      <trkpt lat="39.0908420" lon="-3.9062070">
        <ele>616.8</ele>
        <time>2019-08-12T06:14:44Z</time>
      </trkpt>
      <trkpt lat="39.0908810" lon="-3.9062020">
        <ele>617.0</ele>
        <time>2019-08-12T06:14:45Z</time>
      </trkpt>
      <trkpt lat="39.0909200" lon="-3.9061970">
        <ele>617.1</ele>
        <time>2019-08-12T06:14:46Z</time>
      </trkpt>
      <trkpt lat="39.0909590" lon="-3.9061920">
        <ele>617.3</ele>
        <time>2019-08-12T06:14:47Z</time>
      </trkpt>
      <trkpt lat="39.0909980" lon="-3.9061880">
        <ele>617.4</ele>
        <time>2019-08-12T06:14:48Z</time>
      </trkpt>
      <trkpt lat="39.0910370" lon="-3.9061830">
        <ele>617.6</ele>
        <time>2019-08-12T06:14:49Z</time>
      </trkpt>
      <trkpt lat="39.0910760" lon="-3.9061790">
        <ele>617.7</ele>
        <time>2019-08-12T06:14:50Z</time>
      </trkpt>
      <trkpt lat="39.0911150" lon="-3.9061750">
        <ele>617.9</ele>
        <time>2019-08-12T06:14:51Z</time>
      </trkpt>
      <trkpt lat="39.0911540" lon="-3.9061700">
        <ele>618.1</ele>
        <time>2019-08-12T06:14:52Z</time>
      </trkpt>
      <trkpt lat="39.0911930" lon="-3.9061660">
        <ele>618.3</ele>
        <time>2019-08-12T06:14:53Z</time>
      </trkpt>
      <trkpt lat="39.0912320" lon="-3.9061610">
        <ele>618.4</ele>
        <time>2019-08-12T06:14:54Z</time>
      </trkpt>
      <trkpt lat="39.0912720" lon="-3.9061570">
        <ele>618.6</ele>
        <time>2019-08-12T06:14:55Z</time>
      </trkpt>
      <trkpt lat="39.0913120" lon="-3.9061520">
        <ele>618.8</ele>
        <time>2019-08-12T06:14:56Z</time>
      </trkpt>
      <trkpt lat="39.0913520" lon="-3.9061480">
        <ele>619.0</ele>
        <time>2019-08-12T06:14:57Z</time>
      </trkpt>
      <trkpt lat="39.0913930" lon="-3.9061440">
        <ele>619.2</ele>
        <time>2019-08-12T06:14:58Z</time>
      </trkpt>
      <trkpt lat="39.0914340" lon="-3.9061400">
        <ele>619.4</ele>
        <time>2019-08-12T06:14:59Z</time>
      </trkpt>
      <trkpt lat="39.0914750" lon="-3.9061360">
        <ele>619.6</ele>
        <time>2019-08-12T06:15:00Z</time>
      </trkpt>
      <trkpt lat="39.0915180" lon="-3.9061320">
        <ele>619.7</ele>
        <time>2019-08-12T06:15:01Z</time>
      </trkpt>
      <trkpt lat="39.0915600" lon="-3.9061280">
        <ele>619.9</ele>
        <time>2019-08-12T06:15:02Z</time>
      </trkpt>
      <trkpt lat="39.0916040" lon="-3.9061250">
        <ele>620.1</ele>
        <time>2019-08-12T06:15:03Z</time>
      </trkpt>
      <trkpt lat="39.0916480" lon="-3.9061220">
        <ele>620.2</ele>
        <time>2019-08-12T06:15:04Z</time>
      </trkpt>
      <trkpt lat="39.0916920" lon="-3.9061190">
        <ele>620.4</ele>
        <time>2019-08-12T06:15:05Z</time>
      </trkpt>
      <trkpt lat="39.0917370" lon="-3.9061160">
        <ele>620.5</ele>
        <time>2019-08-12T06:15:06Z</time>
      </trkpt>
      <trkpt lat="39.0917820" lon="-3.9061130">
        <ele>620.6</ele>
        <time>2019-08-12T06:15:07Z</time>
      </trkpt>
      <trkpt lat="39.0918280" lon="-3.9061110">
        <ele>620.7</ele>
        <time>2019-08-12T06:15:08Z</time>
      </trkpt>
      <trkpt lat="39.0918730" lon="-3.9061080">
        <ele>620.9</ele>
        <time>2019-08-12T06:15:09Z</time>
      </trkpt>
      <trkpt lat="39.0919180" lon="-3.9061050">
        <ele>621.0</ele>
        <time>2019-08-12T06:15:10Z</time>
      </trkpt>
      <trkpt lat="39.0919640" lon="-3.9061030">
        <ele>621.0</ele>
        <time>2019-08-12T06:15:11Z</time>
      </trkpt>
      <trkpt lat="39.0920100" lon="-3.9061000">
        <ele>621.1</ele>
        <time>2019-08-12T06:15:12Z</time>
      </trkpt>
      <trkpt lat="39.0920870" lon="-3.9060950">
        <ele>621.2</ele>
        <time>2019-08-12T06:15:13Z</time>
      </trkpt>
      <trkpt lat="39.0921170" lon="-3.9060940">
        <ele>621.3</ele>
        <time>2019-08-12T06:15:14Z</time>
      </trkpt>
      <trkpt lat="39.0921480" lon="-3.9060920">
        <ele>621.3</ele>
        <time>2019-08-12T06:15:15Z</time>
      </trkpt>
      <trkpt lat="39.0921940" lon="-3.9060890">
        <ele>621.3</ele>
        <time>2019-08-12T06:15:16Z</time>
      </trkpt>
      <trkpt lat="39.0922410" lon="-3.9060870">
        <ele>621.4</ele>
        <time>2019-08-12T06:15:17Z</time>
      </trkpt>
      <trkpt lat="39.0923180" lon="-3.9060820">
        <ele>621.4</ele>
        <time>2019-08-12T06:15:18Z</time>
      </trkpt>
      <trkpt lat="39.0923490" lon="-3.9060810">
        <ele>621.4</ele>
        <time>2019-08-12T06:15:19Z</time>
      </trkpt>
      <trkpt lat="39.0923800" lon="-3.9060790">
        <ele>621.4</ele>
        <time>2019-08-12T06:15:20Z</time>
      </trkpt>
      <trkpt lat="39.0924260" lon="-3.9060760">
        <ele>621.5</ele>
        <time>2019-08-12T06:15:21Z</time>
      </trkpt>
      <trkpt lat="39.0924730" lon="-3.9060730">
        <ele>621.5</ele>
        <time>2019-08-12T06:15:22Z</time>
      </trkpt>
      <trkpt lat="39.0925190" lon="-3.9060700">
        <ele>621.5</ele>
        <time>2019-08-12T06:15:23Z</time>
      </trkpt>
      <trkpt lat="39.0925660" lon="-3.9060680">
        <ele>621.5</ele>
        <time>2019-08-12T06:15:24Z</time>
      </trkpt>
      <trkpt lat="39.0926130" lon="-3.9060650">
        <ele>621.5</ele>
        <time>2019-08-12T06:15:25Z</time>
      </trkpt>
      <trkpt lat="39.0926590" lon="-3.9060620">
        <ele>621.6</ele>
        <time>2019-08-12T06:15:26Z</time>
      </trkpt>
      <trkpt lat="39.0927060" lon="-3.9060590">
        <ele>621.6</ele>
        <time>2019-08-12T06:15:27Z</time>
      </trkpt>
      <trkpt lat="39.0927530" lon="-3.9060570">
        <ele>621.6</ele>
        <time>2019-08-12T06:15:28Z</time>
      </trkpt>
      <trkpt lat="39.0927990" lon="-3.9060540">
        <ele>621.6</ele>
        <time>2019-08-12T06:15:29Z</time>
      </trkpt>
      <trkpt lat="39.0928460" lon="-3.9060510">
        <ele>621.6</ele>
        <time>2019-08-12T06:15:30Z</time>
      </trkpt>
      <trkpt lat="39.0928930" lon="-3.9060480">
        <ele>621.6</ele>
        <time>2019-08-12T06:15:31Z</time>
      </trkpt>
      <trkpt lat="39.0929390" lon="-3.9060450">
        <ele>621.6</ele>
        <time>2019-08-12T06:15:32Z</time>
      </trkpt>
      <trkpt lat="39.0929860" lon="-3.9060430">
        <ele>621.6</ele>
        <time>2019-08-12T06:15:33Z</time>
      </trkpt>
      <trkpt lat="39.0930330" lon="-3.9060400">
        <ele>621.6</ele>
        <time>2019-08-12T06:15:34Z</time>
      </trkpt>
      <trkpt lat="39.0930800" lon="-3.9060370">
        <ele>621.6</ele>
        <time>2019-08-12T06:15:35Z</time>
      </trkpt>
      <trkpt lat="39.0931260" lon="-3.9060340">
        <ele>621.6</ele>
        <time>2019-08-12T06:15:36Z</time>
      </trkpt>
      <trkpt lat="39.0931730" lon="-3.9060310">
        <ele>621.6</ele>
        <time>2019-08-12T06:15:37Z</time>
      </trkpt>
      <trkpt lat="39.0932200" lon="-3.9060280">
        <ele>621.6</ele>
        <time>2019-08-12T06:15:38Z</time>
      </trkpt>
      <trkpt lat="39.0932670" lon="-3.9060250">
        <ele>621.6</ele>
        <time>2019-08-12T06:15:39Z</time>
      </trkpt>
      <trkpt lat="39.0933140" lon="-3.9060220">
        <ele>621.6</ele>
        <time>2019-08-12T06:15:40Z</time>
      </trkpt>
      <trkpt lat="39.0933610" lon="-3.9060200">
        <ele>621.6</ele>
        <time>2019-08-12T06:15:41Z</time>
      </trkpt>
      <trkpt lat="39.0934080" lon="-3.9060170">
        <ele>621.6</ele>
        <time>2019-08-12T06:15:42Z</time>
      </trkpt>
      <trkpt lat="39.0934550" lon="-3.9060140">
        <ele>621.6</ele>
        <time>2019-08-12T06:15:43Z</time>
      </trkpt>
      <trkpt lat="39.0935020" lon="-3.9060110">
        <ele>621.6</ele>
        <time>2019-08-12T06:15:44Z</time>
      </trkpt>
      <trkpt lat="39.0935500" lon="-3.9060080">
        <ele>621.6</ele>
        <time>2019-08-12T06:15:45Z</time>
      </trkpt>
      <trkpt lat="39.0935970" lon="-3.9060050">
        <ele>621.6</ele>
        <time>2019-08-12T06:15:46Z</time>
      </trkpt>
      <trkpt lat="39.0936440" lon="-3.9060020">
        <ele>621.6</ele>
        <time>2019-08-12T06:15:47Z</time>
      </trkpt>
      <trkpt lat="39.0936910" lon="-3.9059980">
        <ele>621.6</ele>
        <time>2019-08-12T06:15:48Z</time>
      </trkpt>
      <trkpt lat="39.0937390" lon="-3.9059950">
        <ele>621.7</ele>
        <time>2019-08-12T06:15:49Z</time>
      </trkpt>
      <trkpt lat="39.0937860" lon="-3.9059920">
        <ele>621.7</ele>
        <time>2019-08-12T06:15:50Z</time>
      </trkpt>
      <trkpt lat="39.0938340" lon="-3.9059890">
        <ele>621.7</ele>
        <time>2019-08-12T06:15:51Z</time>
      </trkpt>
      <trkpt lat="39.0938810" lon="-3.9059860">
        <ele>621.7</ele>
        <time>2019-08-12T06:15:52Z</time>
      </trkpt>
      <trkpt lat="39.0939280" lon="-3.9059830">
        <ele>621.7</ele>
        <time>2019-08-12T06:15:53Z</time>
      </trkpt>
      <trkpt lat="39.0939760" lon="-3.9059800">
        <ele>621.7</ele>
        <time>2019-08-12T06:15:54Z</time>
      </trkpt>
      <trkpt lat="39.0940230" lon="-3.9059770">
        <ele>621.8</ele>
        <time>2019-08-12T06:15:55Z</time>
      </trkpt>
      <trkpt lat="39.0940700" lon="-3.9059730">
        <ele>621.8</ele>
        <time>2019-08-12T06:15:56Z</time>
      </trkpt>
      <trkpt lat="39.0941170" lon="-3.9059700">
        <ele>621.9</ele>
        <time>2019-08-12T06:15:57Z</time>
      </trkpt>
      <trkpt lat="39.0941640" lon="-3.9059670">
        <ele>622.0</ele>
        <time>2019-08-12T06:15:58Z</time>
      </trkpt>
      <trkpt lat="39.0942110" lon="-3.9059640">
        <ele>622.1</ele>
        <time>2019-08-12T06:15:59Z</time>
      </trkpt>
      <trkpt lat="39.0942570" lon="-3.9059610">
        <ele>622.2</ele>
        <time>2019-08-12T06:16:00Z</time>
      </trkpt>
      <trkpt lat="39.0943040" lon="-3.9059580">
        <ele>622.3</ele>
        <time>2019-08-12T06:16:01Z</time>
      </trkpt>
      <trkpt lat="39.0943500" lon="-3.9059550">
        <ele>622.4</ele>
        <time>2019-08-12T06:16:02Z</time>
      </trkpt>
      <trkpt lat="39.0943960" lon="-3.9059520">
        <ele>622.6</ele>
        <time>2019-08-12T06:16:03Z</time>
      </trkpt>
      <trkpt lat="39.0944420" lon="-3.9059500">
        <ele>622.7</ele>
        <time>2019-08-12T06:16:04Z</time>
      </trkpt>
      <trkpt lat="39.0944870" lon="-3.9059470">
        <ele>622.8</ele>
        <time>2019-08-12T06:16:05Z</time>
      </trkpt>
      <trkpt lat="39.0945320" lon="-3.9059440">
        <ele>622.9</ele>
        <time>2019-08-12T06:16:06Z</time>
      </trkpt>
      <trkpt lat="39.0945770" lon="-3.9059410">
        <ele>623.0</ele>
        <time>2019-08-12T06:16:07Z</time>
      </trkpt>
      <trkpt lat="39.0946220" lon="-3.9059390">
        <ele>623.1</ele>
        <time>2019-08-12T06:16:08Z</time>
      </trkpt>
      <trkpt lat="39.0946670" lon="-3.9059360">
        <ele>623.2</ele>
        <time>2019-08-12T06:16:09Z</time>
      </trkpt>
      <trkpt lat="39.0947120" lon="-3.9059330">
        <ele>623.3</ele>
        <time>2019-08-12T06:16:10Z</time>
      </trkpt>
      <trkpt lat="39.0947570" lon="-3.9059310">
        <ele>623.5</ele>
        <time>2019-08-12T06:16:11Z</time>
      </trkpt>
      <trkpt lat="39.0948010" lon="-3.9059280">
        <ele>623.6</ele>
        <time>2019-08-12T06:16:12Z</time>
      </trkpt>
      <trkpt lat="39.0948460" lon="-3.9059250">
        <ele>623.7</ele>
        <time>2019-08-12T06:16:13Z</time>
      </trkpt>
      <trkpt lat="39.0948920" lon="-3.9059220">
        <ele>623.9</ele>
        <time>2019-08-12T06:16:14Z</time>
      </trkpt>
      <trkpt lat="39.0949370" lon="-3.9059200">
        <ele>624.0</ele>
        <time>2019-08-12T06:16:15Z</time>
      </trkpt>
      <trkpt lat="39.0949830" lon="-3.9059170">
        <ele>624.1</ele>
        <time>2019-08-12T06:16:16Z</time>
      </trkpt>
      <trkpt lat="39.0950290" lon="-3.9059130">
        <ele>624.2</ele>
        <time>2019-08-12T06:16:17Z</time>
      </trkpt>
      <trkpt lat="39.0950750" lon="-3.9059100">
        <ele>624.3</ele>
        <time>2019-08-12T06:16:18Z</time>
      </trkpt>
      <trkpt lat="39.0951210" lon="-3.9059070">
        <ele>624.4</ele>
        <time>2019-08-12T06:16:19Z</time>
      </trkpt>
      <trkpt lat="39.0951670" lon="-3.9059040">
        <ele>624.5</ele>
        <time>2019-08-12T06:16:20Z</time>
      </trkpt>
      <trkpt lat="39.0952140" lon="-3.9059010">
        <ele>624.6</ele>
        <time>2019-08-12T06:16:21Z</time>
      </trkpt>
      <trkpt lat="39.0952600" lon="-3.9058980">
        <ele>624.7</ele>
        <time>2019-08-12T06:16:22Z</time>
      </trkpt>
      <trkpt lat="39.0953070" lon="-3.9058950">
        <ele>624.8</ele>
        <time>2019-08-12T06:16:23Z</time>
      </trkpt>
      <trkpt lat="39.0953530" lon="-3.9058920">
        <ele>624.9</ele>
        <time>2019-08-12T06:16:24Z</time>
      </trkpt>
      <trkpt lat="39.0953990" lon="-3.9058890">
        <ele>625.0</ele>
        <time>2019-08-12T06:16:25Z</time>
      </trkpt>
      <trkpt lat="39.0954450" lon="-3.9058860">
        <ele>625.2</ele>
        <time>2019-08-12T06:16:26Z</time>
      </trkpt>
      <trkpt lat="39.0954900" lon="-3.9058840">
        <ele>625.3</ele>
        <time>2019-08-12T06:16:27Z</time>
      </trkpt>
      <trkpt lat="39.0955360" lon="-3.9058810">
        <ele>625.4</ele>
        <time>2019-08-12T06:16:28Z</time>
      </trkpt>
      <trkpt lat="39.0955810" lon="-3.9058780">
        <ele>625.5</ele>
        <time>2019-08-12T06:16:29Z</time>
      </trkpt>
      <trkpt lat="39.0956270" lon="-3.9058760">
        <ele>625.6</ele>
        <time>2019-08-12T06:16:30Z</time>
      </trkpt>
      <trkpt lat="39.0956720" lon="-3.9058730">
        <ele>625.7</ele>
        <time>2019-08-12T06:16:31Z</time>
      </trkpt>
      <trkpt lat="39.0957170" lon="-3.9058700">
        <ele>625.7</ele>
        <time>2019-08-12T06:16:32Z</time>
      </trkpt>
      <trkpt lat="39.0957620" lon="-3.9058680">
        <ele>625.7</ele>
        <time>2019-08-12T06:16:33Z</time>
      </trkpt>
      <trkpt lat="39.0958070" lon="-3.9058650">
        <ele>625.8</ele>
        <time>2019-08-12T06:16:34Z</time>
      </trkpt>
      <trkpt lat="39.0958520" lon="-3.9058620">
        <ele>625.8</ele>
        <time>2019-08-12T06:16:35Z</time>
      </trkpt>
      <trkpt lat="39.0958970" lon="-3.9058590">
        <ele>625.8</ele>
        <time>2019-08-12T06:16:36Z</time>
      </trkpt>
      <trkpt lat="39.0959420" lon="-3.9058560">
        <ele>625.8</ele>
        <time>2019-08-12T06:16:37Z</time>
      </trkpt>
      <trkpt lat="39.0959870" lon="-3.9058530">
        <ele>625.9</ele>
        <time>2019-08-12T06:16:38Z</time>
      </trkpt>
      <trkpt lat="39.0960320" lon="-3.9058500">
        <ele>625.9</ele>
        <time>2019-08-12T06:16:39Z</time>
      </trkpt>
      <trkpt lat="39.0960780" lon="-3.9058470">
        <ele>625.9</ele>
        <time>2019-08-12T06:16:40Z</time>
      </trkpt>
      <trkpt lat="39.0961240" lon="-3.9058440">
        <ele>625.9</ele>
        <time>2019-08-12T06:16:41Z</time>
      </trkpt>
      <trkpt lat="39.0961710" lon="-3.9058410">
        <ele>625.9</ele>
        <time>2019-08-12T06:16:42Z</time>
      </trkpt>
      <trkpt lat="39.0962180" lon="-3.9058380">
        <ele>626.0</ele>
        <time>2019-08-12T06:16:43Z</time>
      </trkpt>
      <trkpt lat="39.0962660" lon="-3.9058360">
        <ele>626.0</ele>
        <time>2019-08-12T06:16:44Z</time>
      </trkpt>
      <trkpt lat="39.0963130" lon="-3.9058330">
        <ele>626.1</ele>
        <time>2019-08-12T06:16:45Z</time>
      </trkpt>
      <trkpt lat="39.0963620" lon="-3.9058310">
        <ele>626.1</ele>
        <time>2019-08-12T06:16:46Z</time>
      </trkpt>
      <trkpt lat="39.0964100" lon="-3.9058280">
        <ele>626.2</ele>
        <time>2019-08-12T06:16:47Z</time>
      </trkpt>
      <trkpt lat="39.0964590" lon="-3.9058260">
        <ele>626.2</ele>
        <time>2019-08-12T06:16:48Z</time>
      </trkpt>
      <trkpt lat="39.0965080" lon="-3.9058230">
        <ele>626.2</ele>
        <time>2019-08-12T06:16:49Z</time>
      </trkpt>
      <trkpt lat="39.0965570" lon="-3.9058210">
        <ele>626.3</ele>
        <time>2019-08-12T06:16:50Z</time>
      </trkpt>
      <trkpt lat="39.0966060" lon="-3.9058180">
        <ele>626.3</ele>
        <time>2019-08-12T06:16:51Z</time>
      </trkpt>
      <trkpt lat="39.0966550" lon="-3.9058150">
        <ele>626.3</ele>
        <time>2019-08-12T06:16:52Z</time>
      </trkpt>
      <trkpt lat="39.0967040" lon="-3.9058130">
        <ele>626.3</ele>
        <time>2019-08-12T06:16:53Z</time>
      </trkpt>
      <trkpt lat="39.0967530" lon="-3.9058100">
        <ele>626.4</ele>
        <time>2019-08-12T06:16:54Z</time>
      </trkpt>
      <trkpt lat="39.0968020" lon="-3.9058070">
        <ele>626.4</ele>
        <time>2019-08-12T06:16:55Z</time>
      </trkpt>
      <trkpt lat="39.0968510" lon="-3.9058040">
        <ele>626.4</ele>
        <time>2019-08-12T06:16:56Z</time>
      </trkpt>
      <trkpt lat="39.0969000" lon="-3.9058010">
        <ele>626.4</ele>
        <time>2019-08-12T06:16:57Z</time>
      </trkpt>
      <trkpt lat="39.0969500" lon="-3.9057980">
        <ele>626.4</ele>
        <time>2019-08-12T06:16:58Z</time>
      </trkpt>
      <trkpt lat="39.0969990" lon="-3.9057950">
        <ele>626.4</ele>
        <time>2019-08-12T06:16:59Z</time>
      </trkpt>
      <trkpt lat="39.0970490" lon="-3.9057920">
        <ele>626.4</ele>
        <time>2019-08-12T06:17:00Z</time>
      </trkpt>
      <trkpt lat="39.0970990" lon="-3.9057890">
        <ele>626.4</ele>
        <time>2019-08-12T06:17:01Z</time>
      </trkpt>
      <trkpt lat="39.0971480" lon="-3.9057860">
        <ele>626.4</ele>
        <time>2019-08-12T06:17:02Z</time>
      </trkpt>
      <trkpt lat="39.0971990" lon="-3.9057830">
        <ele>626.4</ele>
        <time>2019-08-12T06:17:03Z</time>
      </trkpt>
      <trkpt lat="39.0972490" lon="-3.9057800">
        <ele>626.4</ele>
        <time>2019-08-12T06:17:04Z</time>
      </trkpt>
      <trkpt lat="39.0973000" lon="-3.9057770">
        <ele>626.4</ele>
        <time>2019-08-12T06:17:05Z</time>
      </trkpt>
      <trkpt lat="39.0973500" lon="-3.9057750">
        <ele>626.4</ele>
        <time>2019-08-12T06:17:06Z</time>
      </trkpt>
      <trkpt lat="39.0974020" lon="-3.9057720">
        <ele>626.4</ele>
        <time>2019-08-12T06:17:07Z</time>
      </trkpt>
      <trkpt lat="39.0974530" lon="-3.9057690">
        <ele>626.4</ele>
        <time>2019-08-12T06:17:08Z</time>
      </trkpt>
      <trkpt lat="39.0975050" lon="-3.9057670">
        <ele>626.4</ele>
        <time>2019-08-12T06:17:09Z</time>
      </trkpt>
      <trkpt lat="39.0975570" lon="-3.9057640">
        <ele>626.4</ele>
        <time>2019-08-12T06:17:10Z</time>
      </trkpt>
      <trkpt lat="39.0976090" lon="-3.9057610">
        <ele>626.3</ele>
        <time>2019-08-12T06:17:11Z</time>
      </trkpt>
      <trkpt lat="39.0976610" lon="-3.9057590">
        <ele>626.3</ele>
        <time>2019-08-12T06:17:12Z</time>
      </trkpt>
      <trkpt lat="39.0977140" lon="-3.9057560">
        <ele>626.3</ele>
        <time>2019-08-12T06:17:13Z</time>
      </trkpt>
      <trkpt lat="39.0977670" lon="-3.9057530">
        <ele>626.3</ele>
        <time>2019-08-12T06:17:14Z</time>
      </trkpt>
      <trkpt lat="39.0978210" lon="-3.9057510">
        <ele>626.2</ele>
        <time>2019-08-12T06:17:15Z</time>
      </trkpt>
      <trkpt lat="39.0978750" lon="-3.9057480">
        <ele>626.2</ele>
        <time>2019-08-12T06:17:16Z</time>
      </trkpt>
      <trkpt lat="39.0979290" lon="-3.9057450">
        <ele>626.2</ele>
        <time>2019-08-12T06:17:17Z</time>
      </trkpt>
      <trkpt lat="39.0979830" lon="-3.9057420">
        <ele>626.1</ele>
        <time>2019-08-12T06:17:18Z</time>
      </trkpt>
      <trkpt lat="39.0980380" lon="-3.9057400">
        <ele>626.1</ele>
        <time>2019-08-12T06:17:19Z</time>
      </trkpt>
      <trkpt lat="39.0980940" lon="-3.9057370">
        <ele>626.0</ele>
        <time>2019-08-12T06:17:20Z</time>
      </trkpt>
      <trkpt lat="39.0981490" lon="-3.9057340">
        <ele>625.9</ele>
        <time>2019-08-12T06:17:21Z</time>
      </trkpt>
      <trkpt lat="39.0982060" lon="-3.9057310">
        <ele>625.8</ele>
        <time>2019-08-12T06:17:22Z</time>
      </trkpt>
      <trkpt lat="39.0982620" lon="-3.9057280">
        <ele>625.8</ele>
        <time>2019-08-12T06:17:23Z</time>
      </trkpt>
      <trkpt lat="39.0983190" lon="-3.9057250">
        <ele>625.7</ele>
        <time>2019-08-12T06:17:24Z</time>
      </trkpt>
      <trkpt lat="39.0983760" lon="-3.9057220">
        <ele>625.6</ele>
        <time>2019-08-12T06:17:25Z</time>
      </trkpt>
      <trkpt lat="39.0984330" lon="-3.9057190">
        <ele>625.6</ele>
        <time>2019-08-12T06:17:26Z</time>
      </trkpt>
      <trkpt lat="39.0984910" lon="-3.9057150">
        <ele>625.5</ele>
        <time>2019-08-12T06:17:27Z</time>
      </trkpt>
      <trkpt lat="39.0985490" lon="-3.9057120">
        <ele>625.5</ele>
        <time>2019-08-12T06:17:28Z</time>
      </trkpt>
      <trkpt lat="39.0986070" lon="-3.9057090">
        <ele>625.4</ele>
        <time>2019-08-12T06:17:29Z</time>
      </trkpt>
      <trkpt lat="39.0986660" lon="-3.9057050">
        <ele>625.4</ele>
        <time>2019-08-12T06:17:30Z</time>
      </trkpt>
      <trkpt lat="39.0987250" lon="-3.9057010">
        <ele>625.4</ele>
        <time>2019-08-12T06:17:31Z</time>
      </trkpt>
      <trkpt lat="39.0987830" lon="-3.9056980">
        <ele>625.3</ele>
        <time>2019-08-12T06:17:32Z</time>
      </trkpt>
      <trkpt lat="39.0988420" lon="-3.9056940">
        <ele>625.3</ele>
        <time>2019-08-12T06:17:33Z</time>
      </trkpt>
      <trkpt lat="39.0989010" lon="-3.9056900">
        <ele>625.3</ele>
        <time>2019-08-12T06:17:34Z</time>
      </trkpt>
      <trkpt lat="39.0989600" lon="-3.9056870">
        <ele>625.3</ele>
        <time>2019-08-12T06:17:35Z</time>
      </trkpt>
      <trkpt lat="39.0990190" lon="-3.9056830">
        <ele>625.2</ele>
        <time>2019-08-12T06:17:36Z</time>
      </trkpt>
      <trkpt lat="39.0990780" lon="-3.9056790">
        <ele>625.2</ele>
        <time>2019-08-12T06:17:37Z</time>
      </trkpt>
      <trkpt lat="39.0991360" lon="-3.9056750">
        <ele>625.2</ele>
        <time>2019-08-12T06:17:38Z</time>
      </trkpt>
      <trkpt lat="39.0991940" lon="-3.9056720">
        <ele>625.2</ele>
        <time>2019-08-12T06:17:39Z</time>
      </trkpt>
      <trkpt lat="39.0992520" lon="-3.9056680">
        <ele>625.3</ele>
        <time>2019-08-12T06:17:40Z</time>
      </trkpt>
      <trkpt lat="39.0993100" lon="-3.9056640">
        <ele>625.4</ele>
        <time>2019-08-12T06:17:41Z</time>
      </trkpt>
      <trkpt lat="39.0993670" lon="-3.9056600">
        <ele>625.5</ele>
        <time>2019-08-12T06:17:42Z</time>
      </trkpt>
      <trkpt lat="39.0994240" lon="-3.9056560">
        <ele>625.7</ele>
        <time>2019-08-12T06:17:43Z</time>
      </trkpt>
      <trkpt lat="39.0994810" lon="-3.9056530">
        <ele>625.9</ele>
        <time>2019-08-12T06:17:44Z</time>
      </trkpt>
      <trkpt lat="39.0995380" lon="-3.9056490">
        <ele>626.2</ele>
        <time>2019-08-12T06:17:45Z</time>
      </trkpt>
      <trkpt lat="39.0995940" lon="-3.9056450">
        <ele>626.4</ele>
        <time>2019-08-12T06:17:46Z</time>
      </trkpt>
      <trkpt lat="39.0996500" lon="-3.9056410">
        <ele>626.6</ele>
        <time>2019-08-12T06:17:47Z</time>
      </trkpt>
      <trkpt lat="39.0997070" lon="-3.9056380">
        <ele>626.7</ele>
        <time>2019-08-12T06:17:48Z</time>
      </trkpt>
      <trkpt lat="39.0997620" lon="-3.9056340">
        <ele>626.7</ele>
        <time>2019-08-12T06:17:49Z</time>
      </trkpt>
      <trkpt lat="39.0998180" lon="-3.9056300">
        <ele>626.7</ele>
        <time>2019-08-12T06:17:50Z</time>
      </trkpt>
      <trkpt lat="39.0998740" lon="-3.9056260">
        <ele>626.6</ele>
        <time>2019-08-12T06:17:51Z</time>
      </trkpt>
      <trkpt lat="39.0999290" lon="-3.9056220">
        <ele>626.4</ele>
        <time>2019-08-12T06:17:52Z</time>
      </trkpt>
      <trkpt lat="39.0999850" lon="-3.9056190">
        <ele>626.0</ele>
        <time>2019-08-12T06:17:53Z</time>
      </trkpt>
      <trkpt lat="39.1000400" lon="-3.9056150">
        <ele>625.4</ele>
        <time>2019-08-12T06:17:54Z</time>
      </trkpt>
      <trkpt lat="39.1000950" lon="-3.9056110">
        <ele>624.7</ele>
        <time>2019-08-12T06:17:55Z</time>
      </trkpt>
      <trkpt lat="39.1001500" lon="-3.9056070">
        <ele>623.8</ele>
        <time>2019-08-12T06:17:56Z</time>
      </trkpt>
      <trkpt lat="39.1002050" lon="-3.9056030">
        <ele>623.0</ele>
        <time>2019-08-12T06:17:57Z</time>
      </trkpt>
      <trkpt lat="39.1002600" lon="-3.9055990">
        <ele>622.2</ele>
        <time>2019-08-12T06:17:58Z</time>
      </trkpt>
      <trkpt lat="39.1003150" lon="-3.9055950">
        <ele>621.6</ele>
        <time>2019-08-12T06:17:59Z</time>
      </trkpt>
      <trkpt lat="39.1003700" lon="-3.9055910">
        <ele>621.1</ele>
        <time>2019-08-12T06:18:00Z</time>
      </trkpt>
      <trkpt lat="39.1004250" lon="-3.9055870">
        <ele>620.6</ele>
        <time>2019-08-12T06:18:01Z</time>
      </trkpt>
      <trkpt lat="39.1004800" lon="-3.9055830">
        <ele>620.2</ele>
        <time>2019-08-12T06:18:02Z</time>
      </trkpt>
      <trkpt lat="39.1005350" lon="-3.9055790">
        <ele>619.9</ele>
        <time>2019-08-12T06:18:03Z</time>
      </trkpt>
      <trkpt lat="39.1005900" lon="-3.9055760">
        <ele>619.7</ele>
        <time>2019-08-12T06:18:04Z</time>
      </trkpt>
      <trkpt lat="39.1006450" lon="-3.9055720">
        <ele>619.5</ele>
        <time>2019-08-12T06:18:05Z</time>
      </trkpt>
      <trkpt lat="39.1007000" lon="-3.9055690">
        <ele>619.3</ele>
        <time>2019-08-12T06:18:06Z</time>
      </trkpt>
      <trkpt lat="39.1007550" lon="-3.9055650">
        <ele>619.3</ele>
        <time>2019-08-12T06:18:07Z</time>
      </trkpt>
      <trkpt lat="39.1008100" lon="-3.9055620">
        <ele>619.2</ele>
        <time>2019-08-12T06:18:08Z</time>
      </trkpt>
      <trkpt lat="39.1008650" lon="-3.9055580">
        <ele>619.2</ele>
        <time>2019-08-12T06:18:09Z</time>
      </trkpt>
      <trkpt lat="39.1009200" lon="-3.9055540">
        <ele>619.2</ele>
        <time>2019-08-12T06:18:10Z</time>
      </trkpt>
      <trkpt lat="39.1009750" lon="-3.9055500">
        <ele>619.2</ele>
        <time>2019-08-12T06:18:11Z</time>
      </trkpt>
      <trkpt lat="39.1010300" lon="-3.9055460">
        <ele>619.3</ele>
        <time>2019-08-12T06:18:12Z</time>
      </trkpt>
      <trkpt lat="39.1010850" lon="-3.9055420">
        <ele>619.4</ele>
        <time>2019-08-12T06:18:13Z</time>
      </trkpt>
      <trkpt lat="39.1011400" lon="-3.9055380">
        <ele>619.6</ele>
        <time>2019-08-12T06:18:14Z</time>
      </trkpt>
      <trkpt lat="39.1011970" lon="-3.9055340">
        <ele>619.8</ele>
        <time>2019-08-12T06:18:15Z</time>
      </trkpt>
      <trkpt lat="39.1012540" lon="-3.9055300">
        <ele>620.1</ele>
        <time>2019-08-12T06:18:16Z</time>
      </trkpt>
      <trkpt lat="39.1013120" lon="-3.9055270">
        <ele>620.3</ele>
        <time>2019-08-12T06:18:17Z</time>
      </trkpt>
      <trkpt lat="39.1013700" lon="-3.9055230">
        <ele>620.5</ele>
        <time>2019-08-12T06:18:18Z</time>
      </trkpt>
      <trkpt lat="39.1014290" lon="-3.9055190">
        <ele>620.6</ele>
        <time>2019-08-12T06:18:19Z</time>
      </trkpt>
      <trkpt lat="39.1014890" lon="-3.9055160">
        <ele>620.8</ele>
        <time>2019-08-12T06:18:20Z</time>
      </trkpt>
      <trkpt lat="39.1015490" lon="-3.9055120">
        <ele>621.0</ele>
        <time>2019-08-12T06:18:21Z</time>
      </trkpt>
      <trkpt lat="39.1016090" lon="-3.9055090">
        <ele>621.2</ele>
        <time>2019-08-12T06:18:22Z</time>
      </trkpt>
      <trkpt lat="39.1016700" lon="-3.9055050">
        <ele>621.5</ele>
        <time>2019-08-12T06:18:23Z</time>
      </trkpt>
      <trkpt lat="39.1017320" lon="-3.9055010">
        <ele>621.8</ele>
        <time>2019-08-12T06:18:24Z</time>
      </trkpt>
      <trkpt lat="39.1017940" lon="-3.9054980">
        <ele>622.1</ele>
        <time>2019-08-12T06:18:25Z</time>
      </trkpt>
      <trkpt lat="39.1018560" lon="-3.9054940">
        <ele>622.3</ele>
        <time>2019-08-12T06:18:26Z</time>
      </trkpt>
      <trkpt lat="39.1019180" lon="-3.9054900">
        <ele>622.4</ele>
        <time>2019-08-12T06:18:27Z</time>
      </trkpt>
      <trkpt lat="39.1019800" lon="-3.9054870">
        <ele>622.6</ele>
        <time>2019-08-12T06:18:28Z</time>
      </trkpt>
      <trkpt lat="39.1020430" lon="-3.9054830">
        <ele>622.8</ele>
        <time>2019-08-12T06:18:29Z</time>
      </trkpt>
      <trkpt lat="39.1021060" lon="-3.9054790">
        <ele>623.0</ele>
        <time>2019-08-12T06:18:30Z</time>
      </trkpt>
      <trkpt lat="39.1021690" lon="-3.9054750">
        <ele>623.2</ele>
        <time>2019-08-12T06:18:31Z</time>
      </trkpt>
      <trkpt lat="39.1022320" lon="-3.9054710">
        <ele>623.4</ele>
        <time>2019-08-12T06:18:32Z</time>
      </trkpt>
      <trkpt lat="39.1022950" lon="-3.9054660">
        <ele>623.6</ele>
        <time>2019-08-12T06:18:33Z</time>
      </trkpt>
      <trkpt lat="39.1023580" lon="-3.9054620">
        <ele>623.8</ele>
        <time>2019-08-12T06:18:34Z</time>
      </trkpt>
      <trkpt lat="39.1024210" lon="-3.9054570">
        <ele>624.0</ele>
        <time>2019-08-12T06:18:35Z</time>
      </trkpt>
      <trkpt lat="39.1024840" lon="-3.9054520">
        <ele>624.1</ele>
        <time>2019-08-12T06:18:36Z</time>
      </trkpt>
      <trkpt lat="39.1025470" lon="-3.9054470">
        <ele>624.3</ele>
        <time>2019-08-12T06:18:37Z</time>
      </trkpt>
      <trkpt lat="39.1026100" lon="-3.9054420">
        <ele>624.5</ele>
        <time>2019-08-12T06:18:38Z</time>
      </trkpt>
      <trkpt lat="39.1026730" lon="-3.9054360">
        <ele>624.6</ele>
        <time>2019-08-12T06:18:39Z</time>
      </trkpt>
      <trkpt lat="39.1027360" lon="-3.9054300">
        <ele>624.8</ele>
        <time>2019-08-12T06:18:40Z</time>
      </trkpt>
      <trkpt lat="39.1027990" lon="-3.9054240">
        <ele>625.0</ele>
        <time>2019-08-12T06:18:41Z</time>
      </trkpt>
      <trkpt lat="39.1028620" lon="-3.9054180">
        <ele>625.2</ele>
        <time>2019-08-12T06:18:42Z</time>
      </trkpt>
      <trkpt lat="39.1029250" lon="-3.9054110">
        <ele>625.4</ele>
        <time>2019-08-12T06:18:43Z</time>
      </trkpt>
      <trkpt lat="39.1029880" lon="-3.9054050">
        <ele>625.6</ele>
        <time>2019-08-12T06:18:44Z</time>
      </trkpt>
      <trkpt lat="39.1030510" lon="-3.9053980">
        <ele>625.7</ele>
        <time>2019-08-12T06:18:45Z</time>
      </trkpt>
      <trkpt lat="39.1031140" lon="-3.9053930">
        <ele>625.9</ele>
        <time>2019-08-12T06:18:46Z</time>
      </trkpt>
      <trkpt lat="39.1031770" lon="-3.9053880">
        <ele>626.1</ele>
        <time>2019-08-12T06:18:47Z</time>
      </trkpt>
      <trkpt lat="39.1032400" lon="-3.9053840">
        <ele>626.2</ele>
        <time>2019-08-12T06:18:48Z</time>
      </trkpt>
      <trkpt lat="39.1033030" lon="-3.9053810">
        <ele>626.3</ele>
        <time>2019-08-12T06:18:49Z</time>
      </trkpt>
      <trkpt lat="39.1033660" lon="-3.9053780">
        <ele>626.4</ele>
        <time>2019-08-12T06:18:50Z</time>
      </trkpt>
      <trkpt lat="39.1034290" lon="-3.9053740">
        <ele>626.4</ele>
        <time>2019-08-12T06:18:51Z</time>
      </trkpt>
      <trkpt lat="39.1034920" lon="-3.9053690">
        <ele>626.5</ele>
        <time>2019-08-12T06:18:52Z</time>
      </trkpt>
      <trkpt lat="39.1035540" lon="-3.9053640">
        <ele>626.5</ele>
        <time>2019-08-12T06:18:53Z</time>
      </trkpt>
      <trkpt lat="39.1036160" lon="-3.9053570">
        <ele>626.6</ele>
        <time>2019-08-12T06:18:54Z</time>
      </trkpt>
      <trkpt lat="39.1036790" lon="-3.9053510">
        <ele>626.6</ele>
        <time>2019-08-12T06:18:55Z</time>
      </trkpt>
      <trkpt lat="39.1037410" lon="-3.9053440">
        <ele>626.7</ele>
        <time>2019-08-12T06:18:56Z</time>
      </trkpt>
      <trkpt lat="39.1038020" lon="-3.9053380">
        <ele>626.7</ele>
        <time>2019-08-12T06:18:57Z</time>
      </trkpt>
      <trkpt lat="39.1038640" lon="-3.9053330">
        <ele>626.2</ele>
        <time>2019-08-12T06:18:58Z</time>
      </trkpt>
      <trkpt lat="39.1039250" lon="-3.9053290">
        <ele>626.0</ele>
        <time>2019-08-12T06:18:59Z</time>
      </trkpt>
      <trkpt lat="39.1039870" lon="-3.9053260">
        <ele>625.8</ele>
        <time>2019-08-12T06:19:00Z</time>
      </trkpt>
      <trkpt lat="39.1040480" lon="-3.9053250">
        <ele>625.7</ele>
        <time>2019-08-12T06:19:01Z</time>
      </trkpt>
      <trkpt lat="39.1041090" lon="-3.9053260">
        <ele>625.5</ele>
        <time>2019-08-12T06:19:02Z</time>
      </trkpt>
      <trkpt lat="39.1041700" lon="-3.9053260">
        <ele>625.4</ele>
        <time>2019-08-12T06:19:03Z</time>
      </trkpt>
      <trkpt lat="39.1042310" lon="-3.9053260">
        <ele>625.2</ele>
        <time>2019-08-12T06:19:04Z</time>
      </trkpt>
      <trkpt lat="39.1042910" lon="-3.9053240">
        <ele>625.1</ele>
        <time>2019-08-12T06:19:05Z</time>
      </trkpt>
      <trkpt lat="39.1043520" lon="-3.9053200">
        <ele>625.0</ele>
        <time>2019-08-12T06:19:06Z</time>
      </trkpt>
      <trkpt lat="39.1044130" lon="-3.9053150">
        <ele>624.9</ele>
        <time>2019-08-12T06:19:07Z</time>
      </trkpt>
      <trkpt lat="39.1044730" lon="-3.9053090">
        <ele>624.7</ele>
        <time>2019-08-12T06:19:08Z</time>
      </trkpt>
      <trkpt lat="39.1045750" lon="-3.9052950">
        <ele>624.6</ele>
        <time>2019-08-12T06:19:09Z</time>
      </trkpt>
      <trkpt lat="39.1046150" lon="-3.9052890">
        <ele>624.5</ele>
        <time>2019-08-12T06:19:10Z</time>
      </trkpt>
      <trkpt lat="39.1046560" lon="-3.9052830">
        <ele>624.4</ele>
        <time>2019-08-12T06:19:11Z</time>
      </trkpt>
      <trkpt lat="39.1047170" lon="-3.9052740">
        <ele>624.3</ele>
        <time>2019-08-12T06:19:12Z</time>
      </trkpt>
      <trkpt lat="39.1047780" lon="-3.9052640">
        <ele>624.2</ele>
        <time>2019-08-12T06:19:13Z</time>
      </trkpt>
      <trkpt lat="39.1048800" lon="-3.9052450">
        <ele>624.1</ele>
        <time>2019-08-12T06:19:14Z</time>
      </trkpt>
      <trkpt lat="39.1049200" lon="-3.9052380">
        <ele>624.0</ele>
        <time>2019-08-12T06:19:15Z</time>
      </trkpt>
      <trkpt lat="39.1049610" lon="-3.9052300">
        <ele>623.9</ele>
        <time>2019-08-12T06:19:16Z</time>
      </trkpt>
      <trkpt lat="39.1050220" lon="-3.9052190">
        <ele>623.8</ele>
        <time>2019-08-12T06:19:17Z</time>
      </trkpt>
      <trkpt lat="39.1050830" lon="-3.9052060">
        <ele>623.7</ele>
        <time>2019-08-12T06:19:18Z</time>
      </trkpt>
      <trkpt lat="39.1051430" lon="-3.9051940">
        <ele>623.6</ele>
        <time>2019-08-12T06:19:19Z</time>
      </trkpt>
      <trkpt lat="39.1052040" lon="-3.9051820">
        <ele>623.4</ele>
        <time>2019-08-12T06:19:20Z</time>
      </trkpt>
      <trkpt lat="39.1052640" lon="-3.9051690">
        <ele>623.3</ele>
        <time>2019-08-12T06:19:21Z</time>
      </trkpt>
      <trkpt lat="39.1053250" lon="-3.9051560">
        <ele>623.1</ele>
        <time>2019-08-12T06:19:22Z</time>
      </trkpt>
      <trkpt lat="39.1053850" lon="-3.9051430">
        <ele>622.9</ele>
        <time>2019-08-12T06:19:23Z</time>
      </trkpt>
      <trkpt lat="39.1054450" lon="-3.9051300">
        <ele>622.6</ele>
        <time>2019-08-12T06:19:24Z</time>
      </trkpt>
      <trkpt lat="39.1055050" lon="-3.9051160">
        <ele>622.4</ele>
        <time>2019-08-12T06:19:25Z</time>
      </trkpt>
      <trkpt lat="39.1055650" lon="-3.9051020">
        <ele>622.1</ele>
        <time>2019-08-12T06:19:26Z</time>
      </trkpt>
      <trkpt lat="39.1056250" lon="-3.9050870">
        <ele>621.7</ele>
        <time>2019-08-12T06:19:27Z</time>
      </trkpt>
      <trkpt lat="39.1056850" lon="-3.9050720">
        <ele>621.5</ele>
        <time>2019-08-12T06:19:28Z</time>
      </trkpt>
      <trkpt lat="39.1057460" lon="-3.9050570">
        <ele>621.3</ele>
        <time>2019-08-12T06:19:29Z</time>
      </trkpt>
      <trkpt lat="39.1058060" lon="-3.9050410">
        <ele>621.1</ele>
        <time>2019-08-12T06:19:30Z</time>
      </trkpt>
      <trkpt lat="39.1058660" lon="-3.9050240">
        <ele>620.9</ele>
        <time>2019-08-12T06:19:31Z</time>
      </trkpt>
      <trkpt lat="39.1059270" lon="-3.9050070">
        <ele>620.7</ele>
        <time>2019-08-12T06:19:32Z</time>
      </trkpt>
      <trkpt lat="39.1059870" lon="-3.9049900">
        <ele>620.5</ele>
        <time>2019-08-12T06:19:33Z</time>
      </trkpt>
      <trkpt lat="39.1060470" lon="-3.9049720">
        <ele>620.3</ele>
        <time>2019-08-12T06:19:34Z</time>
      </trkpt>
      <trkpt lat="39.1061080" lon="-3.9049540">
        <ele>620.1</ele>
        <time>2019-08-12T06:19:35Z</time>
      </trkpt>
      <trkpt lat="39.1061680" lon="-3.9049350">
        <ele>619.9</ele>
        <time>2019-08-12T06:19:36Z</time>
      </trkpt>
      <trkpt lat="39.1062290" lon="-3.9049150">
        <ele>619.6</ele>
        <time>2019-08-12T06:19:37Z</time>
      </trkpt>
      <trkpt lat="39.1062890" lon="-3.9048950">
        <ele>619.5</ele>
        <time>2019-08-12T06:19:38Z</time>
      </trkpt>
      <trkpt lat="39.1063500" lon="-3.9048740">
        <ele>619.3</ele>
        <time>2019-08-12T06:19:39Z</time>
      </trkpt>
      <trkpt lat="39.1064110" lon="-3.9048530">
        <ele>619.2</ele>
        <time>2019-08-12T06:19:40Z</time>
      </trkpt>
      <trkpt lat="39.1064710" lon="-3.9048310">
        <ele>619.0</ele>
        <time>2019-08-12T06:19:41Z</time>
      </trkpt>
      <trkpt lat="39.1065320" lon="-3.9048090">
        <ele>618.9</ele>
        <time>2019-08-12T06:19:42Z</time>
      </trkpt>
      <trkpt lat="39.1065920" lon="-3.9047860">
        <ele>618.7</ele>
        <time>2019-08-12T06:19:43Z</time>
      </trkpt>
      <trkpt lat="39.1066530" lon="-3.9047620">
        <ele>618.6</ele>
        <time>2019-08-12T06:19:44Z</time>
      </trkpt>
      <trkpt lat="39.1067130" lon="-3.9047380">
        <ele>618.5</ele>
        <time>2019-08-12T06:19:45Z</time>
      </trkpt>
      <trkpt lat="39.1067740" lon="-3.9047140">
        <ele>618.3</ele>
        <time>2019-08-12T06:19:46Z</time>
      </trkpt>
      <trkpt lat="39.1068340" lon="-3.9046880">
        <ele>618.2</ele>
        <time>2019-08-12T06:19:47Z</time>
      </trkpt>
      <trkpt lat="39.1068950" lon="-3.9046620">
        <ele>618.1</ele>
        <time>2019-08-12T06:19:48Z</time>
      </trkpt>
      <trkpt lat="39.1069550" lon="-3.9046360">
        <ele>617.9</ele>
        <time>2019-08-12T06:19:49Z</time>
      </trkpt>
      <trkpt lat="39.1070150" lon="-3.9046090">
        <ele>617.8</ele>
        <time>2019-08-12T06:19:50Z</time>
      </trkpt>
      <trkpt lat="39.1070760" lon="-3.9045810">
        <ele>617.6</ele>
        <time>2019-08-12T06:19:51Z</time>
      </trkpt>
      <trkpt lat="39.1071360" lon="-3.9045530">
        <ele>617.4</ele>
        <time>2019-08-12T06:19:52Z</time>
      </trkpt>
      <trkpt lat="39.1071960" lon="-3.9045250">
        <ele>617.3</ele>
        <time>2019-08-12T06:19:53Z</time>
      </trkpt>
      <trkpt lat="39.1072550" lon="-3.9044960">
        <ele>617.1</ele>
        <time>2019-08-12T06:19:54Z</time>
      </trkpt>
      <trkpt lat="39.1073150" lon="-3.9044670">
        <ele>616.9</ele>
        <time>2019-08-12T06:19:55Z</time>
      </trkpt>
      <trkpt lat="39.1073740" lon="-3.9044370">
        <ele>616.7</ele>
        <time>2019-08-12T06:19:56Z</time>
      </trkpt>
      <trkpt lat="39.1074330" lon="-3.9044070">
        <ele>616.5</ele>
        <time>2019-08-12T06:19:57Z</time>
      </trkpt>
      <trkpt lat="39.1074920" lon="-3.9043770">
        <ele>616.5</ele>
        <time>2019-08-12T06:19:58Z</time>
      </trkpt>
      <trkpt lat="39.1075510" lon="-3.9043460">
        <ele>616.4</ele>
        <time>2019-08-12T06:19:59Z</time>
      </trkpt>
      <trkpt lat="39.1076090" lon="-3.9043150">
        <ele>616.4</ele>
        <time>2019-08-12T06:20:00Z</time>
      </trkpt>
      <trkpt lat="39.1076670" lon="-3.9042830">
        <ele>616.4</ele>
        <time>2019-08-12T06:20:01Z</time>
      </trkpt>
      <trkpt lat="39.1077250" lon="-3.9042510">
        <ele>616.5</ele>
        <time>2019-08-12T06:20:02Z</time>
      </trkpt>
      <trkpt lat="39.1077830" lon="-3.9042180">
        <ele>616.5</ele>
        <time>2019-08-12T06:20:03Z</time>
      </trkpt>
      <trkpt lat="39.1078400" lon="-3.9041850">
        <ele>616.5</ele>
        <time>2019-08-12T06:20:04Z</time>
      </trkpt>
      <trkpt lat="39.1078980" lon="-3.9041520">
        <ele>616.6</ele>
        <time>2019-08-12T06:20:05Z</time>
      </trkpt>
      <trkpt lat="39.1079550" lon="-3.9041170">
        <ele>616.6</ele>
        <time>2019-08-12T06:20:06Z</time>
      </trkpt>
      <trkpt lat="39.1080110" lon="-3.9040830">
        <ele>616.7</ele>
        <time>2019-08-12T06:20:07Z</time>
      </trkpt>
      <trkpt lat="39.1080680" lon="-3.9040470">
        <ele>616.7</ele>
        <time>2019-08-12T06:20:08Z</time>
      </trkpt>
      <trkpt lat="39.1081240" lon="-3.9040110">
        <ele>616.8</ele>
        <time>2019-08-12T06:20:09Z</time>
      </trkpt>
      <trkpt lat="39.1081800" lon="-3.9039750">
        <ele>616.9</ele>
        <time>2019-08-12T06:20:10Z</time>
      </trkpt>
      <trkpt lat="39.1082350" lon="-3.9039380">
        <ele>616.9</ele>
        <time>2019-08-12T06:20:11Z</time>
      </trkpt>
      <trkpt lat="39.1082900" lon="-3.9039000">
        <ele>617.0</ele>
        <time>2019-08-12T06:20:12Z</time>
      </trkpt>
      <trkpt lat="39.1083450" lon="-3.9038610">
        <ele>617.1</ele>
        <time>2019-08-12T06:20:13Z</time>
      </trkpt>
      <trkpt lat="39.1084000" lon="-3.9038220">
        <ele>617.1</ele>
        <time>2019-08-12T06:20:14Z</time>
      </trkpt>
      <trkpt lat="39.1084540" lon="-3.9037830">
        <ele>617.2</ele>
        <time>2019-08-12T06:20:15Z</time>
      </trkpt>
      <trkpt lat="39.1085080" lon="-3.9037430">
        <ele>617.2</ele>
        <time>2019-08-12T06:20:16Z</time>
      </trkpt>
      <trkpt lat="39.1085620" lon="-3.9037020">
        <ele>617.2</ele>
        <time>2019-08-12T06:20:17Z</time>
      </trkpt>
      <trkpt lat="39.1086160" lon="-3.9036600">
        <ele>617.3</ele>
        <time>2019-08-12T06:20:18Z</time>
      </trkpt>
      <trkpt lat="39.1086690" lon="-3.9036180">
        <ele>617.3</ele>
        <time>2019-08-12T06:20:19Z</time>
      </trkpt>
      <trkpt lat="39.1087230" lon="-3.9035760">
        <ele>617.4</ele>
        <time>2019-08-12T06:20:20Z</time>
      </trkpt>
      <trkpt lat="39.1087760" lon="-3.9035330">
        <ele>617.4</ele>
        <time>2019-08-12T06:20:21Z</time>
      </trkpt>
      <trkpt lat="39.1088300" lon="-3.9034890">
        <ele>617.5</ele>
        <time>2019-08-12T06:20:22Z</time>
      </trkpt>
      <trkpt lat="39.1088830" lon="-3.9034450">
        <ele>617.7</ele>
        <time>2019-08-12T06:20:23Z</time>
      </trkpt>
      <trkpt lat="39.1089370" lon="-3.9034010">
        <ele>617.8</ele>
        <time>2019-08-12T06:20:24Z</time>
      </trkpt>
      <trkpt lat="39.1089900" lon="-3.9033560">
        <ele>618.0</ele>
        <time>2019-08-12T06:20:25Z</time>
      </trkpt>
      <trkpt lat="39.1090440" lon="-3.9033100">
        <ele>618.2</ele>
        <time>2019-08-12T06:20:26Z</time>
      </trkpt>
      <trkpt lat="39.1090980" lon="-3.9032630">
        <ele>618.2</ele>
        <time>2019-08-12T06:20:27Z</time>
      </trkpt>
      <trkpt lat="39.1091520" lon="-3.9032160">
        <ele>618.1</ele>
        <time>2019-08-12T06:20:28Z</time>
      </trkpt>
      <trkpt lat="39.1092050" lon="-3.9031680">
        <ele>618.1</ele>
        <time>2019-08-12T06:20:29Z</time>
      </trkpt>
      <trkpt lat="39.1092590" lon="-3.9031190">
        <ele>618.1</ele>
        <time>2019-08-12T06:20:30Z</time>
      </trkpt>
      <trkpt lat="39.1093110" lon="-3.9030700">
        <ele>618.1</ele>
        <time>2019-08-12T06:20:31Z</time>
      </trkpt>
      <trkpt lat="39.1093630" lon="-3.9030210">
        <ele>618.1</ele>
        <time>2019-08-12T06:20:32Z</time>
      </trkpt>
      <trkpt lat="39.1094140" lon="-3.9029720">
        <ele>618.1</ele>
        <time>2019-08-12T06:20:33Z</time>
      </trkpt>
      <trkpt lat="39.1094630" lon="-3.9029240">
        <ele>618.0</ele>
        <time>2019-08-12T06:20:34Z</time>
      </trkpt>
      <trkpt lat="39.1095120" lon="-3.9028770">
        <ele>618.0</ele>
        <time>2019-08-12T06:20:35Z</time>
      </trkpt>
      <trkpt lat="39.1095590" lon="-3.9028300">
        <ele>618.0</ele>
        <time>2019-08-12T06:20:36Z</time>
      </trkpt>
      <trkpt lat="39.1096050" lon="-3.9027830">
        <ele>618.0</ele>
        <time>2019-08-12T06:20:37Z</time>
      </trkpt>
      <trkpt lat="39.1096500" lon="-3.9027370">
        <ele>618.0</ele>
        <time>2019-08-12T06:20:38Z</time>
      </trkpt>
      <trkpt lat="39.1096940" lon="-3.9026900">
        <ele>618.0</ele>
        <time>2019-08-12T06:20:39Z</time>
      </trkpt>
      <trkpt lat="39.1097390" lon="-3.9026430">
        <ele>618.0</ele>
        <time>2019-08-12T06:20:40Z</time>
      </trkpt>
      <trkpt lat="39.1097840" lon="-3.9025950">
        <ele>618.0</ele>
        <time>2019-08-12T06:20:41Z</time>
      </trkpt>
      <trkpt lat="39.1098290" lon="-3.9025440">
        <ele>617.9</ele>
        <time>2019-08-12T06:20:42Z</time>
      </trkpt>
      <trkpt lat="39.1098760" lon="-3.9024930">
        <ele>617.9</ele>
        <time>2019-08-12T06:20:43Z</time>
      </trkpt>
      <trkpt lat="39.1099230" lon="-3.9024400">
        <ele>617.9</ele>
        <time>2019-08-12T06:20:44Z</time>
      </trkpt>
      <trkpt lat="39.1099710" lon="-3.9023850">
        <ele>617.9</ele>
        <time>2019-08-12T06:20:45Z</time>
      </trkpt>
      <trkpt lat="39.1100190" lon="-3.9023300">
        <ele>617.9</ele>
        <time>2019-08-12T06:20:46Z</time>
      </trkpt>
      <trkpt lat="39.1100670" lon="-3.9022740">
        <ele>617.9</ele>
        <time>2019-08-12T06:20:47Z</time>
      </trkpt>
      <trkpt lat="39.1101150" lon="-3.9022180">
        <ele>617.9</ele>
        <time>2019-08-12T06:20:48Z</time>
      </trkpt>
      <trkpt lat="39.1101630" lon="-3.9021610">
        <ele>617.9</ele>
        <time>2019-08-12T06:20:49Z</time>
      </trkpt>
      <trkpt lat="39.1102100" lon="-3.9021050">
        <ele>617.9</ele>
        <time>2019-08-12T06:20:50Z</time>
      </trkpt>
      <trkpt lat="39.1102560" lon="-3.9020480">
        <ele>617.9</ele>
        <time>2019-08-12T06:20:51Z</time>
      </trkpt>
      <trkpt lat="39.1103010" lon="-3.9019920">
        <ele>617.9</ele>
        <time>2019-08-12T06:20:52Z</time>
      </trkpt>
      <trkpt lat="39.1103460" lon="-3.9019350">
        <ele>617.9</ele>
        <time>2019-08-12T06:20:53Z</time>
      </trkpt>
      <trkpt lat="39.1103900" lon="-3.9018790">
        <ele>617.9</ele>
        <time>2019-08-12T06:20:54Z</time>
      </trkpt>
      <trkpt lat="39.1104340" lon="-3.9018220">
        <ele>617.9</ele>
        <time>2019-08-12T06:20:55Z</time>
      </trkpt>
      <trkpt lat="39.1104770" lon="-3.9017650">
        <ele>617.9</ele>
        <time>2019-08-12T06:20:56Z</time>
      </trkpt>
      <trkpt lat="39.1105200" lon="-3.9017080">
        <ele>617.9</ele>
        <time>2019-08-12T06:20:57Z</time>
      </trkpt>
      <trkpt lat="39.1105630" lon="-3.9016500">
        <ele>617.9</ele>
        <time>2019-08-12T06:20:58Z</time>
      </trkpt>
      <trkpt lat="39.1106060" lon="-3.9015920">
        <ele>617.9</ele>
        <time>2019-08-12T06:20:59Z</time>
      </trkpt>
      <trkpt lat="39.1106490" lon="-3.9015340">
        <ele>617.9</ele>
        <time>2019-08-12T06:21:00Z</time>
      </trkpt>
      <trkpt lat="39.1106910" lon="-3.9014740">
        <ele>617.9</ele>
        <time>2019-08-12T06:21:01Z</time>
      </trkpt>
      <trkpt lat="39.1107340" lon="-3.9014150">
        <ele>617.8</ele>
        <time>2019-08-12T06:21:02Z</time>
      </trkpt>
      <trkpt lat="39.1107760" lon="-3.9013550">
        <ele>617.8</ele>
        <time>2019-08-12T06:21:03Z</time>
      </trkpt>
      <trkpt lat="39.1108180" lon="-3.9012950">
        <ele>617.8</ele>
        <time>2019-08-12T06:21:04Z</time>
      </trkpt>
      <trkpt lat="39.1108600" lon="-3.9012350">
        <ele>617.8</ele>
        <time>2019-08-12T06:21:05Z</time>
      </trkpt>
      <trkpt lat="39.1109020" lon="-3.9011740">
        <ele>617.8</ele>
        <time>2019-08-12T06:21:06Z</time>
      </trkpt>
      <trkpt lat="39.1109430" lon="-3.9011140">
        <ele>617.8</ele>
        <time>2019-08-12T06:21:07Z</time>
      </trkpt>
      <trkpt lat="39.1109840" lon="-3.9010540">
        <ele>617.8</ele>
        <time>2019-08-12T06:21:08Z</time>
      </trkpt>
      <trkpt lat="39.1110250" lon="-3.9009930">
        <ele>617.8</ele>
        <time>2019-08-12T06:21:09Z</time>
      </trkpt>
      <trkpt lat="39.1110650" lon="-3.9009330">
        <ele>617.8</ele>
        <time>2019-08-12T06:21:10Z</time>
      </trkpt>
      <trkpt lat="39.1111050" lon="-3.9008730">
        <ele>617.7</ele>
        <time>2019-08-12T06:21:11Z</time>
      </trkpt>
      <trkpt lat="39.1111440" lon="-3.9008130">
        <ele>617.7</ele>
        <time>2019-08-12T06:21:12Z</time>
      </trkpt>
      <trkpt lat="39.1111830" lon="-3.9007530">
        <ele>617.7</ele>
        <time>2019-08-12T06:21:13Z</time>
      </trkpt>
      <trkpt lat="39.1112210" lon="-3.9006940">
        <ele>617.7</ele>
        <time>2019-08-12T06:21:14Z</time>
      </trkpt>
      <trkpt lat="39.1112590" lon="-3.9006350">
        <ele>617.7</ele>
        <time>2019-08-12T06:21:15Z</time>
      </trkpt>
      <trkpt lat="39.1112970" lon="-3.9005760">
        <ele>617.7</ele>
        <time>2019-08-12T06:21:16Z</time>
      </trkpt>
      <trkpt lat="39.1113340" lon="-3.9005170">
        <ele>617.7</ele>
        <time>2019-08-12T06:21:17Z</time>
      </trkpt>
      <trkpt lat="39.1113710" lon="-3.9004590">
        <ele>617.7</ele>
        <time>2019-08-12T06:21:18Z</time>
      </trkpt>
      <trkpt lat="39.1114070" lon="-3.9004000">
        <ele>617.7</ele>
        <time>2019-08-12T06:21:19Z</time>
      </trkpt>
      <trkpt lat="39.1114440" lon="-3.9003430">
        <ele>617.7</ele>
        <time>2019-08-12T06:21:20Z</time>
      </trkpt>
      <trkpt lat="39.1114790" lon="-3.9002850">
        <ele>617.7</ele>
        <time>2019-08-12T06:21:21Z</time>
      </trkpt>
      <trkpt lat="39.1115150" lon="-3.9002280">
        <ele>617.8</ele>
        <time>2019-08-12T06:21:22Z</time>
      </trkpt>
      <trkpt lat="39.1115500" lon="-3.9001710">
        <ele>617.8</ele>
        <time>2019-08-12T06:21:23Z</time>
      </trkpt>
      <trkpt lat="39.1115850" lon="-3.9001140">
        <ele>617.8</ele>
        <time>2019-08-12T06:21:24Z</time>
      </trkpt>
      <trkpt lat="39.1116200" lon="-3.9000570">
        <ele>617.8</ele>
        <time>2019-08-12T06:21:25Z</time>
      </trkpt>
      <trkpt lat="39.1116540" lon="-3.9000000">
        <ele>617.9</ele>
        <time>2019-08-12T06:21:26Z</time>
      </trkpt>
      <trkpt lat="39.1116890" lon="-3.8999440">
        <ele>617.9</ele>
        <time>2019-08-12T06:21:27Z</time>
      </trkpt>
      <trkpt lat="39.1117230" lon="-3.8998880">
        <ele>618.0</ele>
        <time>2019-08-12T06:21:28Z</time>
      </trkpt>
      <trkpt lat="39.1117570" lon="-3.8998320">
        <ele>618.0</ele>
        <time>2019-08-12T06:21:29Z</time>
      </trkpt>
      <trkpt lat="39.1117910" lon="-3.8997760">
        <ele>618.1</ele>
        <time>2019-08-12T06:21:30Z</time>
      </trkpt>
      <trkpt lat="39.1118240" lon="-3.8997200">
        <ele>618.2</ele>
        <time>2019-08-12T06:21:31Z</time>
      </trkpt>
      <trkpt lat="39.1118580" lon="-3.8996640">
        <ele>618.2</ele>
        <time>2019-08-12T06:21:32Z</time>
      </trkpt>
      <trkpt lat="39.1118910" lon="-3.8996090">
        <ele>618.3</ele>
        <time>2019-08-12T06:21:33Z</time>
      </trkpt>
      <trkpt lat="39.1119240" lon="-3.8995540">
        <ele>618.4</ele>
        <time>2019-08-12T06:21:34Z</time>
      </trkpt>
      <trkpt lat="39.1119560" lon="-3.8994990">
        <ele>618.5</ele>
        <time>2019-08-12T06:21:35Z</time>
      </trkpt>
      <trkpt lat="39.1119890" lon="-3.8994440">
        <ele>618.5</ele>
        <time>2019-08-12T06:21:36Z</time>
      </trkpt>
      <trkpt lat="39.1120210" lon="-3.8993900">
        <ele>618.6</ele>
        <time>2019-08-12T06:21:37Z</time>
      </trkpt>
      <trkpt lat="39.1120530" lon="-3.8993360">
        <ele>618.7</ele>
        <time>2019-08-12T06:21:38Z</time>
      </trkpt>
      <trkpt lat="39.1120850" lon="-3.8992810">
        <ele>618.8</ele>
        <time>2019-08-12T06:21:39Z</time>
      </trkpt>
      <trkpt lat="39.1121170" lon="-3.8992270">
        <ele>618.8</ele>
        <time>2019-08-12T06:21:40Z</time>
      </trkpt>
      <trkpt lat="39.1121480" lon="-3.8991730">
        <ele>618.9</ele>
        <time>2019-08-12T06:21:41Z</time>
      </trkpt>
      <trkpt lat="39.1121800" lon="-3.8991190">
        <ele>619.0</ele>
        <time>2019-08-12T06:21:42Z</time>
      </trkpt>
      <trkpt lat="39.1122120" lon="-3.8990650">
        <ele>619.1</ele>
        <time>2019-08-12T06:21:43Z</time>
      </trkpt>
      <trkpt lat="39.1122430" lon="-3.8990110">
        <ele>619.1</ele>
        <time>2019-08-12T06:21:44Z</time>
      </trkpt>
      <trkpt lat="39.1122750" lon="-3.8989570">
        <ele>619.2</ele>
        <time>2019-08-12T06:21:45Z</time>
      </trkpt>
      <trkpt lat="39.1123070" lon="-3.8989020">
        <ele>619.3</ele>
        <time>2019-08-12T06:21:46Z</time>
      </trkpt>
      <trkpt lat="39.1123390" lon="-3.8988470">
        <ele>619.3</ele>
        <time>2019-08-12T06:21:47Z</time>
      </trkpt>
      <trkpt lat="39.1123710" lon="-3.8987920">
        <ele>619.4</ele>
        <time>2019-08-12T06:21:48Z</time>
      </trkpt>
      <trkpt lat="39.1124040" lon="-3.8987370">
        <ele>619.5</ele>
        <time>2019-08-12T06:21:49Z</time>
      </trkpt>
      <trkpt lat="39.1124360" lon="-3.8986810">
        <ele>619.6</ele>
        <time>2019-08-12T06:21:50Z</time>
      </trkpt>
      <trkpt lat="39.1124690" lon="-3.8986260">
        <ele>619.7</ele>
        <time>2019-08-12T06:21:51Z</time>
      </trkpt>
      <trkpt lat="39.1125010" lon="-3.8985700">
        <ele>619.8</ele>
        <time>2019-08-12T06:21:52Z</time>
      </trkpt>
      <trkpt lat="39.1125340" lon="-3.8985140">
        <ele>619.9</ele>
        <time>2019-08-12T06:21:53Z</time>
      </trkpt>
      <trkpt lat="39.1125670" lon="-3.8984580">
        <ele>620.0</ele>
        <time>2019-08-12T06:21:54Z</time>
      </trkpt>
      <trkpt lat="39.1125990" lon="-3.8984020">
        <ele>620.1</ele>
        <time>2019-08-12T06:21:55Z</time>
      </trkpt>
      <trkpt lat="39.1126310" lon="-3.8983450">
        <ele>620.1</ele>
        <time>2019-08-12T06:21:56Z</time>
      </trkpt>
      <trkpt lat="39.1126640" lon="-3.8982890">
        <ele>620.2</ele>
        <time>2019-08-12T06:21:57Z</time>
      </trkpt>
      <trkpt lat="39.1126960" lon="-3.8982330">
        <ele>620.3</ele>
        <time>2019-08-12T06:21:58Z</time>
      </trkpt>
      <trkpt lat="39.1127280" lon="-3.8981770">
        <ele>620.4</ele>
        <time>2019-08-12T06:21:59Z</time>
      </trkpt>
      <trkpt lat="39.1127600" lon="-3.8981210">
        <ele>620.5</ele>
        <time>2019-08-12T06:22:00Z</time>
      </trkpt>
      <trkpt lat="39.1127930" lon="-3.8980640">
        <ele>620.6</ele>
        <time>2019-08-12T06:22:01Z</time>
      </trkpt>
      <trkpt lat="39.1128250" lon="-3.8980080">
        <ele>620.7</ele>
        <time>2019-08-12T06:22:02Z</time>
      </trkpt>
      <trkpt lat="39.1128570" lon="-3.8979520">
        <ele>620.8</ele>
        <time>2019-08-12T06:22:03Z</time>
      </trkpt>
      <trkpt lat="39.1128900" lon="-3.8978960">
        <ele>620.9</ele>
        <time>2019-08-12T06:22:04Z</time>
      </trkpt>
      <trkpt lat="39.1129230" lon="-3.8978400">
        <ele>621.0</ele>
        <time>2019-08-12T06:22:05Z</time>
      </trkpt>
      <trkpt lat="39.1129550" lon="-3.8977840">
        <ele>621.2</ele>
        <time>2019-08-12T06:22:06Z</time>
      </trkpt>
      <trkpt lat="39.1129880" lon="-3.8977280">
        <ele>621.3</ele>
        <time>2019-08-12T06:22:07Z</time>
      </trkpt>
      <trkpt lat="39.1130210" lon="-3.8976720">
        <ele>621.4</ele>
        <time>2019-08-12T06:22:08Z</time>
      </trkpt>
      <trkpt lat="39.1130550" lon="-3.8976160">
        <ele>621.6</ele>
        <time>2019-08-12T06:22:09Z</time>
      </trkpt>
      <trkpt lat="39.1130880" lon="-3.8975600">
        <ele>621.7</ele>
        <time>2019-08-12T06:22:10Z</time>
      </trkpt>
      <trkpt lat="39.1131210" lon="-3.8975040">
        <ele>622.0</ele>
        <time>2019-08-12T06:22:11Z</time>
      </trkpt>
      <trkpt lat="39.1131550" lon="-3.8974490">
        <ele>622.2</ele>
        <time>2019-08-12T06:22:12Z</time>
      </trkpt>
      <trkpt lat="39.1131890" lon="-3.8973930">
        <ele>622.4</ele>
        <time>2019-08-12T06:22:13Z</time>
      </trkpt>
      <trkpt lat="39.1132220" lon="-3.8973370">
        <ele>622.6</ele>
        <time>2019-08-12T06:22:14Z</time>
      </trkpt>
      <trkpt lat="39.1132560" lon="-3.8972820">
        <ele>622.7</ele>
        <time>2019-08-12T06:22:15Z</time>
      </trkpt>
      <trkpt lat="39.1132900" lon="-3.8972260">
        <ele>622.9</ele>
        <time>2019-08-12T06:22:16Z</time>
      </trkpt>
      <trkpt lat="39.1133250" lon="-3.8971710">
        <ele>623.0</ele>
        <time>2019-08-12T06:22:17Z</time>
      </trkpt>
      <trkpt lat="39.1133590" lon="-3.8971150">
        <ele>623.1</ele>
        <time>2019-08-12T06:22:18Z</time>
      </trkpt>
      <trkpt lat="39.1133930" lon="-3.8970600">
        <ele>623.3</ele>
        <time>2019-08-12T06:22:19Z</time>
      </trkpt>
      <trkpt lat="39.1134280" lon="-3.8970040">
        <ele>623.4</ele>
        <time>2019-08-12T06:22:20Z</time>
      </trkpt>
      <trkpt lat="39.1134630" lon="-3.8969490">
        <ele>623.5</ele>
        <time>2019-08-12T06:22:21Z</time>
      </trkpt>
      <trkpt lat="39.1134980" lon="-3.8968940">
        <ele>623.7</ele>
        <time>2019-08-12T06:22:22Z</time>
      </trkpt>
      <trkpt lat="39.1135330" lon="-3.8968390">
        <ele>623.8</ele>
        <time>2019-08-12T06:22:23Z</time>
      </trkpt>
      <trkpt lat="39.1135680" lon="-3.8967840">
        <ele>623.9</ele>
        <time>2019-08-12T06:22:24Z</time>
      </trkpt>
      <trkpt lat="39.1136030" lon="-3.8967290">
        <ele>624.0</ele>
        <time>2019-08-12T06:22:25Z</time>
      </trkpt>
      <trkpt lat="39.1136390" lon="-3.8966750">
        <ele>624.1</ele>
        <time>2019-08-12T06:22:26Z</time>
      </trkpt>
      <trkpt lat="39.1136750" lon="-3.8966200">
        <ele>624.2</ele>
        <time>2019-08-12T06:22:27Z</time>
      </trkpt>
      <trkpt lat="39.1137110" lon="-3.8965660">
        <ele>624.3</ele>
        <time>2019-08-12T06:22:28Z</time>
      </trkpt>
      <trkpt lat="39.1137470" lon="-3.8965120">
        <ele>624.4</ele>
        <time>2019-08-12T06:22:29Z</time>
      </trkpt>
      <trkpt lat="39.1137840" lon="-3.8964580">
        <ele>624.5</ele>
        <time>2019-08-12T06:22:30Z</time>
      </trkpt>
      <trkpt lat="39.1138210" lon="-3.8964040">
        <ele>624.6</ele>
        <time>2019-08-12T06:22:31Z</time>
      </trkpt>
      <trkpt lat="39.1138580" lon="-3.8963500">
        <ele>624.7</ele>
        <time>2019-08-12T06:22:32Z</time>
      </trkpt>
      <trkpt lat="39.1138950" lon="-3.8962970">
        <ele>624.8</ele>
        <time>2019-08-12T06:22:33Z</time>
      </trkpt>
      <trkpt lat="39.1139320" lon="-3.8962430">
        <ele>625.0</ele>
        <time>2019-08-12T06:22:34Z</time>
      </trkpt>
      <trkpt lat="39.1139700" lon="-3.8961900">
        <ele>625.1</ele>
        <time>2019-08-12T06:22:35Z</time>
      </trkpt>
      <trkpt lat="39.1140070" lon="-3.8961370">
        <ele>625.3</ele>
        <time>2019-08-12T06:22:36Z</time>
      </trkpt>
      <trkpt lat="39.1140450" lon="-3.8960850">
        <ele>625.4</ele>
        <time>2019-08-12T06:22:37Z</time>
      </trkpt>
      <trkpt lat="39.1140830" lon="-3.8960320">
        <ele>625.5</ele>
        <time>2019-08-12T06:22:38Z</time>
      </trkpt>
      <trkpt lat="39.1141200" lon="-3.8959800">
        <ele>625.6</ele>
        <time>2019-08-12T06:22:39Z</time>
      </trkpt>
      <trkpt lat="39.1141580" lon="-3.8959280">
        <ele>625.7</ele>
        <time>2019-08-12T06:22:40Z</time>
      </trkpt>
      <trkpt lat="39.1141950" lon="-3.8958760">
        <ele>625.8</ele>
        <time>2019-08-12T06:22:41Z</time>
      </trkpt>
      <trkpt lat="39.1142330" lon="-3.8958250">
        <ele>625.9</ele>
        <time>2019-08-12T06:22:42Z</time>
      </trkpt>
      <trkpt lat="39.1142700" lon="-3.8957730">
        <ele>626.0</ele>
        <time>2019-08-12T06:22:43Z</time>
      </trkpt>
      <trkpt lat="39.1143070" lon="-3.8957220">
        <ele>626.0</ele>
        <time>2019-08-12T06:22:44Z</time>
      </trkpt>
      <trkpt lat="39.1143440" lon="-3.8956710">
        <ele>626.1</ele>
        <time>2019-08-12T06:22:45Z</time>
      </trkpt>
      <trkpt lat="39.1143810" lon="-3.8956200">
        <ele>626.2</ele>
        <time>2019-08-12T06:22:46Z</time>
      </trkpt>
      <trkpt lat="39.1144190" lon="-3.8955690">
        <ele>626.2</ele>
        <time>2019-08-12T06:22:47Z</time>
      </trkpt>
      <trkpt lat="39.1144560" lon="-3.8955190">
        <ele>626.3</ele>
        <time>2019-08-12T06:22:48Z</time>
      </trkpt>
      <trkpt lat="39.1144930" lon="-3.8954690">
        <ele>626.3</ele>
        <time>2019-08-12T06:22:49Z</time>
      </trkpt>
      <trkpt lat="39.1145310" lon="-3.8954180">
        <ele>626.4</ele>
        <time>2019-08-12T06:22:50Z</time>
      </trkpt>
      <trkpt lat="39.1145690" lon="-3.8953680">
        <ele>626.5</ele>
        <time>2019-08-12T06:22:51Z</time>
      </trkpt>
      <trkpt lat="39.1146070" lon="-3.8953180">
        <ele>626.5</ele>
        <time>2019-08-12T06:22:52Z</time>
      </trkpt>
      <trkpt lat="39.1146450" lon="-3.8952680">
        <ele>626.6</ele>
        <time>2019-08-12T06:22:53Z</time>
      </trkpt>
      <trkpt lat="39.1146840" lon="-3.8952190">
        <ele>626.6</ele>
        <time>2019-08-12T06:22:54Z</time>
      </trkpt>
      <trkpt lat="39.1147230" lon="-3.8951700">
        <ele>626.6</ele>
        <time>2019-08-12T06:22:55Z</time>
      </trkpt>
      <trkpt lat="39.1147620" lon="-3.8951210">
        <ele>626.6</ele>
        <time>2019-08-12T06:22:56Z</time>
      </trkpt>
      <trkpt lat="39.1148020" lon="-3.8950730">
        <ele>626.6</ele>
        <time>2019-08-12T06:22:57Z</time>
      </trkpt>
      <trkpt lat="39.1148420" lon="-3.8950250">
        <ele>626.6</ele>
        <time>2019-08-12T06:22:58Z</time>
      </trkpt>
      <trkpt lat="39.1148820" lon="-3.8949780">
        <ele>626.6</ele>
        <time>2019-08-12T06:22:59Z</time>
      </trkpt>
      <trkpt lat="39.1149230" lon="-3.8949310">
        <ele>626.6</ele>
        <time>2019-08-12T06:23:00Z</time>
      </trkpt>
      <trkpt lat="39.1149640" lon="-3.8948850">
        <ele>626.6</ele>
        <time>2019-08-12T06:23:01Z</time>
      </trkpt>
      <trkpt lat="39.1150050" lon="-3.8948400">
        <ele>626.6</ele>
        <time>2019-08-12T06:23:02Z</time>
      </trkpt>
      <trkpt lat="39.1150470" lon="-3.8947950">
        <ele>626.6</ele>
        <time>2019-08-12T06:23:03Z</time>
      </trkpt>
      <trkpt lat="39.1150900" lon="-3.8947510">
        <ele>626.6</ele>
        <time>2019-08-12T06:23:04Z</time>
      </trkpt>
      <trkpt lat="39.1151320" lon="-3.8947090">
        <ele>626.6</ele>
        <time>2019-08-12T06:23:05Z</time>
      </trkpt>
      <trkpt lat="39.1151760" lon="-3.8946670">
        <ele>626.5</ele>
        <time>2019-08-12T06:23:06Z</time>
      </trkpt>
      <trkpt lat="39.1152190" lon="-3.8946260">
        <ele>626.5</ele>
        <time>2019-08-12T06:23:07Z</time>
      </trkpt>
      <trkpt lat="39.1152640" lon="-3.8945860">
        <ele>626.5</ele>
        <time>2019-08-12T06:23:08Z</time>
      </trkpt>
      <trkpt lat="39.1153080" lon="-3.8945470">
        <ele>626.5</ele>
        <time>2019-08-12T06:23:09Z</time>
      </trkpt>
      <trkpt lat="39.1153540" lon="-3.8945100">
        <ele>626.5</ele>
        <time>2019-08-12T06:23:10Z</time>
      </trkpt>
      <trkpt lat="39.1154010" lon="-3.8944750">
        <ele>626.5</ele>
        <time>2019-08-12T06:23:11Z</time>
      </trkpt>
      <trkpt lat="39.1154490" lon="-3.8944410">
        <ele>626.5</ele>
        <time>2019-08-12T06:23:12Z</time>
      </trkpt>
      <trkpt lat="39.1154970" lon="-3.8944050">
        <ele>626.6</ele>
        <time>2019-08-12T06:23:13Z</time>
      </trkpt>
      <trkpt lat="39.1155440" lon="-3.8943660">
        <ele>626.6</ele>
        <time>2019-08-12T06:23:14Z</time>
      </trkpt>
      <trkpt lat="39.1155890" lon="-3.8943250">
        <ele>626.7</ele>
        <time>2019-08-12T06:23:15Z</time>
      </trkpt>
      <trkpt lat="39.1156340" lon="-3.8942810">
        <ele>626.7</ele>
        <time>2019-08-12T06:23:16Z</time>
      </trkpt>
      <trkpt lat="39.1156780" lon="-3.8942380">
        <ele>626.7</ele>
        <time>2019-08-12T06:23:17Z</time>
      </trkpt>
      <trkpt lat="39.1157230" lon="-3.8941950">
        <ele>626.7</ele>
        <time>2019-08-12T06:23:18Z</time>
      </trkpt>
      <trkpt lat="39.1157680" lon="-3.8941530">
        <ele>626.7</ele>
        <time>2019-08-12T06:23:19Z</time>
      </trkpt>
      <trkpt lat="39.1158140" lon="-3.8941130">
        <ele>626.7</ele>
        <time>2019-08-12T06:23:20Z</time>
      </trkpt>
      <trkpt lat="39.1158590" lon="-3.8940730">
        <ele>626.7</ele>
        <time>2019-08-12T06:23:21Z</time>
      </trkpt>
      <trkpt lat="39.1159050" lon="-3.8940340">
        <ele>626.7</ele>
        <time>2019-08-12T06:23:22Z</time>
      </trkpt>
      <trkpt lat="39.1159510" lon="-3.8939960">
        <ele>626.7</ele>
        <time>2019-08-12T06:23:23Z</time>
      </trkpt>
      <trkpt lat="39.1159970" lon="-3.8939590">
        <ele>626.6</ele>
        <time>2019-08-12T06:23:24Z</time>
      </trkpt>
      <trkpt lat="39.1160430" lon="-3.8939220">
        <ele>626.5</ele>
        <time>2019-08-12T06:23:25Z</time>
      </trkpt>
      <trkpt lat="39.1160890" lon="-3.8938860">
        <ele>626.4</ele>
        <time>2019-08-12T06:23:26Z</time>
      </trkpt>
      <trkpt lat="39.1161350" lon="-3.8938500">
        <ele>626.3</ele>
        <time>2019-08-12T06:23:27Z</time>
      </trkpt>
      <trkpt lat="39.1161810" lon="-3.8938140">
        <ele>626.1</ele>
        <time>2019-08-12T06:23:28Z</time>
      </trkpt>
      <trkpt lat="39.1162270" lon="-3.8937790">
        <ele>626.0</ele>
        <time>2019-08-12T06:23:29Z</time>
      </trkpt>
      <trkpt lat="39.1162730" lon="-3.8937450">
        <ele>625.9</ele>
        <time>2019-08-12T06:23:30Z</time>
      </trkpt>
      <trkpt lat="39.1163190" lon="-3.8937110">
        <ele>625.9</ele>
        <time>2019-08-12T06:23:31Z</time>
      </trkpt>
      <trkpt lat="39.1163650" lon="-3.8936770">
        <ele>625.9</ele>
        <time>2019-08-12T06:23:32Z</time>
      </trkpt>
      <trkpt lat="39.1164120" lon="-3.8936430">
        <ele>626.0</ele>
        <time>2019-08-12T06:23:33Z</time>
      </trkpt>
      <trkpt lat="39.1164580" lon="-3.8936100">
        <ele>626.2</ele>
        <time>2019-08-12T06:23:34Z</time>
      </trkpt>
      <trkpt lat="39.1165040" lon="-3.8935770">
        <ele>626.3</ele>
        <time>2019-08-12T06:23:35Z</time>
      </trkpt>
      <trkpt lat="39.1165510" lon="-3.8935450">
        <ele>626.5</ele>
        <time>2019-08-12T06:23:36Z</time>
      </trkpt>
      <trkpt lat="39.1165980" lon="-3.8935130">
        <ele>626.6</ele>
        <time>2019-08-12T06:23:37Z</time>
      </trkpt>
      <trkpt lat="39.1166450" lon="-3.8934810">
        <ele>626.8</ele>
        <time>2019-08-12T06:23:38Z</time>
      </trkpt>
      <trkpt lat="39.1166920" lon="-3.8934500">
        <ele>626.9</ele>
        <time>2019-08-12T06:23:39Z</time>
      </trkpt>
      <trkpt lat="39.1167400" lon="-3.8934190">
        <ele>626.9</ele>
        <time>2019-08-12T06:23:40Z</time>
      </trkpt>
      <trkpt lat="39.1167870" lon="-3.8933880">
        <ele>627.0</ele>
        <time>2019-08-12T06:23:41Z</time>
      </trkpt>
      <trkpt lat="39.1168350" lon="-3.8933580">
        <ele>627.0</ele>
        <time>2019-08-12T06:23:42Z</time>
      </trkpt>
      <trkpt lat="39.1168840" lon="-3.8933270">
        <ele>627.0</ele>
        <time>2019-08-12T06:23:43Z</time>
      </trkpt>
      <trkpt lat="39.1169330" lon="-3.8932980">
        <ele>627.0</ele>
        <time>2019-08-12T06:23:44Z</time>
      </trkpt>
      <trkpt lat="39.1169820" lon="-3.8932680">
        <ele>627.0</ele>
        <time>2019-08-12T06:23:45Z</time>
      </trkpt>
      <trkpt lat="39.1170310" lon="-3.8932390">
        <ele>627.0</ele>
        <time>2019-08-12T06:23:46Z</time>
      </trkpt>
      <trkpt lat="39.1170810" lon="-3.8932100">
        <ele>626.9</ele>
        <time>2019-08-12T06:23:47Z</time>
      </trkpt>
      <trkpt lat="39.1171310" lon="-3.8931820">
        <ele>626.9</ele>
        <time>2019-08-12T06:23:48Z</time>
      </trkpt>
      <trkpt lat="39.1171810" lon="-3.8931530">
        <ele>626.9</ele>
        <time>2019-08-12T06:23:49Z</time>
      </trkpt>
      <trkpt lat="39.1172320" lon="-3.8931250">
        <ele>626.9</ele>
        <time>2019-08-12T06:23:50Z</time>
      </trkpt>
      <trkpt lat="39.1172820" lon="-3.8930980">
        <ele>626.9</ele>
        <time>2019-08-12T06:23:51Z</time>
      </trkpt>
      <trkpt lat="39.1173330" lon="-3.8930700">
        <ele>626.9</ele>
        <time>2019-08-12T06:23:52Z</time>
      </trkpt>
      <trkpt lat="39.1173840" lon="-3.8930430">
        <ele>626.9</ele>
        <time>2019-08-12T06:23:53Z</time>
      </trkpt>
      <trkpt lat="39.1174350" lon="-3.8930160">
        <ele>626.9</ele>
        <time>2019-08-12T06:23:54Z</time>
      </trkpt>
      <trkpt lat="39.1174860" lon="-3.8929900">
        <ele>626.9</ele>
        <time>2019-08-12T06:23:55Z</time>
      </trkpt>
      <trkpt lat="39.1175360" lon="-3.8929640">
        <ele>626.9</ele>
        <time>2019-08-12T06:23:56Z</time>
      </trkpt>
      <trkpt lat="39.1175870" lon="-3.8929380">
        <ele>626.9</ele>
        <time>2019-08-12T06:23:57Z</time>
      </trkpt>
      <trkpt lat="39.1176380" lon="-3.8929130">
        <ele>626.9</ele>
        <time>2019-08-12T06:23:58Z</time>
      </trkpt>
      <trkpt lat="39.1176890" lon="-3.8928880">
        <ele>626.9</ele>
        <time>2019-08-12T06:23:59Z</time>
      </trkpt>
      <trkpt lat="39.1177410" lon="-3.8928640">
        <ele>626.8</ele>
        <time>2019-08-12T06:24:00Z</time>
      </trkpt>
      <trkpt lat="39.1177920" lon="-3.8928400">
        <ele>626.8</ele>
        <time>2019-08-12T06:24:01Z</time>
      </trkpt>
      <trkpt lat="39.1178440" lon="-3.8928160">
        <ele>626.8</ele>
        <time>2019-08-12T06:24:02Z</time>
      </trkpt>
      <trkpt lat="39.1178970" lon="-3.8927930">
        <ele>626.8</ele>
        <time>2019-08-12T06:24:03Z</time>
      </trkpt>
      <trkpt lat="39.1179490" lon="-3.8927700">
        <ele>626.7</ele>
        <time>2019-08-12T06:24:04Z</time>
      </trkpt>
      <trkpt lat="39.1180020" lon="-3.8927480">
        <ele>626.7</ele>
        <time>2019-08-12T06:24:05Z</time>
      </trkpt>
      <trkpt lat="39.1180550" lon="-3.8927260">
        <ele>626.8</ele>
        <time>2019-08-12T06:24:06Z</time>
      </trkpt>
      <trkpt lat="39.1181090" lon="-3.8927050">
        <ele>626.8</ele>
        <time>2019-08-12T06:24:07Z</time>
      </trkpt>
      <trkpt lat="39.1181620" lon="-3.8926840">
        <ele>626.8</ele>
        <time>2019-08-12T06:24:08Z</time>
      </trkpt>
      <trkpt lat="39.1182160" lon="-3.8926630">
        <ele>626.8</ele>
        <time>2019-08-12T06:24:09Z</time>
      </trkpt>
      <trkpt lat="39.1182700" lon="-3.8926430">
        <ele>626.8</ele>
        <time>2019-08-12T06:24:10Z</time>
      </trkpt>
      <trkpt lat="39.1183240" lon="-3.8926230">
        <ele>626.9</ele>
        <time>2019-08-12T06:24:11Z</time>
      </trkpt>
      <trkpt lat="39.1183780" lon="-3.8926040">
        <ele>626.9</ele>
        <time>2019-08-12T06:24:12Z</time>
      </trkpt>
      <trkpt lat="39.1184310" lon="-3.8925850">
        <ele>626.9</ele>
        <time>2019-08-12T06:24:13Z</time>
      </trkpt>
      <trkpt lat="39.1184850" lon="-3.8925660">
        <ele>627.0</ele>
        <time>2019-08-12T06:24:14Z</time>
      </trkpt>
      <trkpt lat="39.1185390" lon="-3.8925470">
        <ele>627.0</ele>
        <time>2019-08-12T06:24:15Z</time>
      </trkpt>
      <trkpt lat="39.1185930" lon="-3.8925290">
        <ele>627.0</ele>
        <time>2019-08-12T06:24:16Z</time>
      </trkpt>
      <trkpt lat="39.1186470" lon="-3.8925100">
        <ele>627.0</ele>
        <time>2019-08-12T06:24:17Z</time>
      </trkpt>
      <trkpt lat="39.1187010" lon="-3.8924920">
        <ele>627.0</ele>
        <time>2019-08-12T06:24:18Z</time>
      </trkpt>
      <trkpt lat="39.1187550" lon="-3.8924740">
        <ele>627.0</ele>
        <time>2019-08-12T06:24:19Z</time>
      </trkpt>
      <trkpt lat="39.1188090" lon="-3.8924560">
        <ele>627.0</ele>
        <time>2019-08-12T06:24:20Z</time>
      </trkpt>
      <trkpt lat="39.1188630" lon="-3.8924370">
        <ele>627.0</ele>
        <time>2019-08-12T06:24:21Z</time>
      </trkpt>
      <trkpt lat="39.1189170" lon="-3.8924190">
        <ele>626.9</ele>
        <time>2019-08-12T06:24:22Z</time>
      </trkpt>
      <trkpt lat="39.1189720" lon="-3.8924000">
        <ele>626.8</ele>
        <time>2019-08-12T06:24:23Z</time>
      </trkpt>
      <trkpt lat="39.1190270" lon="-3.8923810">
        <ele>626.7</ele>
        <time>2019-08-12T06:24:24Z</time>
      </trkpt>
      <trkpt lat="39.1190820" lon="-3.8923630">
        <ele>626.6</ele>
        <time>2019-08-12T06:24:25Z</time>
      </trkpt>
      <trkpt lat="39.1191370" lon="-3.8923460">
        <ele>626.4</ele>
        <time>2019-08-12T06:24:26Z</time>
      </trkpt>
      <trkpt lat="39.1191920" lon="-3.8923300">
        <ele>626.1</ele>
        <time>2019-08-12T06:24:27Z</time>
      </trkpt>
      <trkpt lat="39.1192470" lon="-3.8923160">
        <ele>625.9</ele>
        <time>2019-08-12T06:24:28Z</time>
      </trkpt>
      <trkpt lat="39.1193030" lon="-3.8923030">
        <ele>625.7</ele>
        <time>2019-08-12T06:24:29Z</time>
      </trkpt>
      <trkpt lat="39.1193580" lon="-3.8922910">
        <ele>625.4</ele>
        <time>2019-08-12T06:24:30Z</time>
      </trkpt>
      <trkpt lat="39.1194140" lon="-3.8922800">
        <ele>625.4</ele>
        <time>2019-08-12T06:24:31Z</time>
      </trkpt>
      <trkpt lat="39.1194700" lon="-3.8922690">
        <ele>625.5</ele>
        <time>2019-08-12T06:24:32Z</time>
      </trkpt>
      <trkpt lat="39.1195260" lon="-3.8922590">
        <ele>625.5</ele>
        <time>2019-08-12T06:24:33Z</time>
      </trkpt>
      <trkpt lat="39.1195820" lon="-3.8922490">
        <ele>625.6</ele>
        <time>2019-08-12T06:24:34Z</time>
      </trkpt>
      <trkpt lat="39.1196380" lon="-3.8922400">
        <ele>625.6</ele>
        <time>2019-08-12T06:24:35Z</time>
      </trkpt>
      <trkpt lat="39.1196940" lon="-3.8922310">
        <ele>625.6</ele>
        <time>2019-08-12T06:24:36Z</time>
      </trkpt>
      <trkpt lat="39.1197500" lon="-3.8922220">
        <ele>625.6</ele>
        <time>2019-08-12T06:24:37Z</time>
      </trkpt>
      <trkpt lat="39.1198060" lon="-3.8922140">
        <ele>625.6</ele>
        <time>2019-08-12T06:24:38Z</time>
      </trkpt>
      <trkpt lat="39.1198620" lon="-3.8922070">
        <ele>625.6</ele>
        <time>2019-08-12T06:24:39Z</time>
      </trkpt>
      <trkpt lat="39.1199180" lon="-3.8922000">
        <ele>625.6</ele>
        <time>2019-08-12T06:24:40Z</time>
      </trkpt>
      <trkpt lat="39.1199740" lon="-3.8921930">
        <ele>625.6</ele>
        <time>2019-08-12T06:24:41Z</time>
      </trkpt>
      <trkpt lat="39.1200310" lon="-3.8921880">
        <ele>625.5</ele>
        <time>2019-08-12T06:24:42Z</time>
      </trkpt>
      <trkpt lat="39.1200870" lon="-3.8921820">
        <ele>625.5</ele>
        <time>2019-08-12T06:24:43Z</time>
      </trkpt>
      <trkpt lat="39.1201430" lon="-3.8921770">
        <ele>625.5</ele>
        <time>2019-08-12T06:24:44Z</time>
      </trkpt>
      <trkpt lat="39.1201990" lon="-3.8921730">
        <ele>625.4</ele>
        <time>2019-08-12T06:24:45Z</time>
      </trkpt>
      <trkpt lat="39.1202560" lon="-3.8921690">
        <ele>625.4</ele>
        <time>2019-08-12T06:24:46Z</time>
      </trkpt>
      <trkpt lat="39.1203120" lon="-3.8921660">
        <ele>625.3</ele>
        <time>2019-08-12T06:24:47Z</time>
      </trkpt>
      <trkpt lat="39.1203690" lon="-3.8921630">
        <ele>625.3</ele>
        <time>2019-08-12T06:24:48Z</time>
      </trkpt>
      <trkpt lat="39.1204260" lon="-3.8921610">
        <ele>625.2</ele>
        <time>2019-08-12T06:24:49Z</time>
      </trkpt>
      <trkpt lat="39.1204820" lon="-3.8921590">
        <ele>625.2</ele>
        <time>2019-08-12T06:24:50Z</time>
      </trkpt>
      <trkpt lat="39.1205390" lon="-3.8921570">
        <ele>625.1</ele>
        <time>2019-08-12T06:24:51Z</time>
      </trkpt>
      <trkpt lat="39.1205960" lon="-3.8921570">
        <ele>625.0</ele>
        <time>2019-08-12T06:24:52Z</time>
      </trkpt>
      <trkpt lat="39.1206530" lon="-3.8921560">
        <ele>625.0</ele>
        <time>2019-08-12T06:24:53Z</time>
      </trkpt>
      <trkpt lat="39.1207100" lon="-3.8921570">
        <ele>624.9</ele>
        <time>2019-08-12T06:24:54Z</time>
      </trkpt>
      <trkpt lat="39.1207660" lon="-3.8921580">
        <ele>624.9</ele>
        <time>2019-08-12T06:24:55Z</time>
      </trkpt>
      <trkpt lat="39.1208220" lon="-3.8921590">
        <ele>624.8</ele>
        <time>2019-08-12T06:24:56Z</time>
      </trkpt>
      <trkpt lat="39.1208770" lon="-3.8921610">
        <ele>624.8</ele>
        <time>2019-08-12T06:24:57Z</time>
      </trkpt>
      <trkpt lat="39.1209340" lon="-3.8921640">
        <ele>624.7</ele>
        <time>2019-08-12T06:24:58Z</time>
      </trkpt>
      <trkpt lat="39.1209920" lon="-3.8921660">
        <ele>624.7</ele>
        <time>2019-08-12T06:24:59Z</time>
      </trkpt>
      <trkpt lat="39.1210510" lon="-3.8921690">
        <ele>624.6</ele>
        <time>2019-08-12T06:25:00Z</time>
      </trkpt>
      <trkpt lat="39.1211130" lon="-3.8921710">
        <ele>624.6</ele>
        <time>2019-08-12T06:25:01Z</time>
      </trkpt>
      <trkpt lat="39.1211760" lon="-3.8921730">
        <ele>624.5</ele>
        <time>2019-08-12T06:25:02Z</time>
      </trkpt>
      <trkpt lat="39.1212400" lon="-3.8921760">
        <ele>624.5</ele>
        <time>2019-08-12T06:25:03Z</time>
      </trkpt>
      <trkpt lat="39.1213060" lon="-3.8921780">
        <ele>624.4</ele>
        <time>2019-08-12T06:25:04Z</time>
      </trkpt>
      <trkpt lat="39.1213720" lon="-3.8921810">
        <ele>624.4</ele>
        <time>2019-08-12T06:25:05Z</time>
      </trkpt>
      <trkpt lat="39.1214390" lon="-3.8921840">
        <ele>624.3</ele>
        <time>2019-08-12T06:25:06Z</time>
      </trkpt>
      <trkpt lat="39.1215060" lon="-3.8921880">
        <ele>624.3</ele>
        <time>2019-08-12T06:25:07Z</time>
      </trkpt>
      <trkpt lat="39.1215730" lon="-3.8921920">
        <ele>624.2</ele>
        <time>2019-08-12T06:25:08Z</time>
      </trkpt>
      <trkpt lat="39.1216400" lon="-3.8921960">
        <ele>624.2</ele>
        <time>2019-08-12T06:25:09Z</time>
      </trkpt>
      <trkpt lat="39.1217060" lon="-3.8922010">
        <ele>624.1</ele>
        <time>2019-08-12T06:25:10Z</time>
      </trkpt>
      <trkpt lat="39.1217730" lon="-3.8922060">
        <ele>624.1</ele>
        <time>2019-08-12T06:25:11Z</time>
      </trkpt>
      <trkpt lat="39.1218390" lon="-3.8922120">
        <ele>624.0</ele>
        <time>2019-08-12T06:25:12Z</time>
      </trkpt>
      <trkpt lat="39.1219060" lon="-3.8922170">
        <ele>624.0</ele>
        <time>2019-08-12T06:25:13Z</time>
      </trkpt>
      <trkpt lat="39.1219720" lon="-3.8922240">
        <ele>623.9</ele>
        <time>2019-08-12T06:25:14Z</time>
      </trkpt>
      <trkpt lat="39.1220380" lon="-3.8922300">
        <ele>623.9</ele>
        <time>2019-08-12T06:25:15Z</time>
      </trkpt>
      <trkpt lat="39.1221040" lon="-3.8922370">
        <ele>623.9</ele>
        <time>2019-08-12T06:25:16Z</time>
      </trkpt>
      <trkpt lat="39.1221700" lon="-3.8922440">
        <ele>623.8</ele>
        <time>2019-08-12T06:25:17Z</time>
      </trkpt>
      <trkpt lat="39.1222360" lon="-3.8922510">
        <ele>623.8</ele>
        <time>2019-08-12T06:25:18Z</time>
      </trkpt>
      <trkpt lat="39.1223020" lon="-3.8922590">
        <ele>623.7</ele>
        <time>2019-08-12T06:25:19Z</time>
      </trkpt>
      <trkpt lat="39.1223680" lon="-3.8922660">
        <ele>623.7</ele>
        <time>2019-08-12T06:25:20Z</time>
      </trkpt>
      <trkpt lat="39.1224340" lon="-3.8922740">
        <ele>623.7</ele>
        <time>2019-08-12T06:25:21Z</time>
      </trkpt>
      <trkpt lat="39.1224990" lon="-3.8922820">
        <ele>623.6</ele>
        <time>2019-08-12T06:25:22Z</time>
      </trkpt>
      <trkpt lat="39.1225650" lon="-3.8922900">
        <ele>623.6</ele>
        <time>2019-08-12T06:25:23Z</time>
      </trkpt>
      <trkpt lat="39.1226300" lon="-3.8922980">
        <ele>623.6</ele>
        <time>2019-08-12T06:25:24Z</time>
      </trkpt>
      <trkpt lat="39.1226960" lon="-3.8923060">
        <ele>623.5</ele>
        <time>2019-08-12T06:25:25Z</time>
      </trkpt>
      <trkpt lat="39.1227610" lon="-3.8923150">
        <ele>623.5</ele>
        <time>2019-08-12T06:25:26Z</time>
      </trkpt>
      <trkpt lat="39.1228260" lon="-3.8923230">
        <ele>623.5</ele>
        <time>2019-08-12T06:25:27Z</time>
      </trkpt>
      <trkpt lat="39.1228910" lon="-3.8923320">
        <ele>623.4</ele>
        <time>2019-08-12T06:25:28Z</time>
      </trkpt>
      <trkpt lat="39.1229560" lon="-3.8923410">
        <ele>623.4</ele>
        <time>2019-08-12T06:25:29Z</time>
      </trkpt>
      <trkpt lat="39.1230200" lon="-3.8923500">
        <ele>623.4</ele>
        <time>2019-08-12T06:25:30Z</time>
      </trkpt>
      <trkpt lat="39.1230840" lon="-3.8923590">
        <ele>623.3</ele>
        <time>2019-08-12T06:25:31Z</time>
      </trkpt>
      <trkpt lat="39.1231490" lon="-3.8923680">
        <ele>623.3</ele>
        <time>2019-08-12T06:25:32Z</time>
      </trkpt>
      <trkpt lat="39.1232130" lon="-3.8923780">
        <ele>623.2</ele>
        <time>2019-08-12T06:25:33Z</time>
      </trkpt>
      <trkpt lat="39.1232770" lon="-3.8923870">
        <ele>623.2</ele>
        <time>2019-08-12T06:25:34Z</time>
      </trkpt>
      <trkpt lat="39.1233400" lon="-3.8923970">
        <ele>623.1</ele>
        <time>2019-08-12T06:25:35Z</time>
      </trkpt>
      <trkpt lat="39.1234040" lon="-3.8924070">
        <ele>623.1</ele>
        <time>2019-08-12T06:25:36Z</time>
      </trkpt>
      <trkpt lat="39.1234670" lon="-3.8924180">
        <ele>623.0</ele>
        <time>2019-08-12T06:25:37Z</time>
      </trkpt>
      <trkpt lat="39.1235310" lon="-3.8924280">
        <ele>623.0</ele>
        <time>2019-08-12T06:25:38Z</time>
      </trkpt>
      <trkpt lat="39.1235940" lon="-3.8924390">
        <ele>622.9</ele>
        <time>2019-08-12T06:25:39Z</time>
      </trkpt>
      <trkpt lat="39.1236580" lon="-3.8924490">
        <ele>622.9</ele>
        <time>2019-08-12T06:25:40Z</time>
      </trkpt>
      <trkpt lat="39.1237630" lon="-3.8924670">
        <ele>622.8</ele>
        <time>2019-08-12T06:25:41Z</time>
      </trkpt>
      <trkpt lat="39.1238060" lon="-3.8924750">
        <ele>622.7</ele>
        <time>2019-08-12T06:25:42Z</time>
      </trkpt>
      <trkpt lat="39.1238480" lon="-3.8924820">
        <ele>622.7</ele>
        <time>2019-08-12T06:25:43Z</time>
      </trkpt>
      <trkpt lat="39.1239120" lon="-3.8924930">
        <ele>622.6</ele>
        <time>2019-08-12T06:25:44Z</time>
      </trkpt>
      <trkpt lat="39.1239760" lon="-3.8925030">
        <ele>622.6</ele>
        <time>2019-08-12T06:25:45Z</time>
      </trkpt>
      <trkpt lat="39.1240840" lon="-3.8925210">
        <ele>622.5</ele>
        <time>2019-08-12T06:25:46Z</time>
      </trkpt>
      <trkpt lat="39.1241270" lon="-3.8925280">
        <ele>622.4</ele>
        <time>2019-08-12T06:25:47Z</time>
      </trkpt>
      <trkpt lat="39.1241700" lon="-3.8925350">
        <ele>622.4</ele>
        <time>2019-08-12T06:25:48Z</time>
      </trkpt>
      <trkpt lat="39.1242340" lon="-3.8925460">
        <ele>622.4</ele>
        <time>2019-08-12T06:25:49Z</time>
      </trkpt>
      <trkpt lat="39.1242980" lon="-3.8925560">
        <ele>622.3</ele>
        <time>2019-08-12T06:25:50Z</time>
      </trkpt>
      <trkpt lat="39.1243610" lon="-3.8925660">
        <ele>622.2</ele>
        <time>2019-08-12T06:25:51Z</time>
      </trkpt>
      <trkpt lat="39.1244240" lon="-3.8925760">
        <ele>622.2</ele>
        <time>2019-08-12T06:25:52Z</time>
      </trkpt>
      <trkpt lat="39.1244860" lon="-3.8925860">
        <ele>622.1</ele>
        <time>2019-08-12T06:25:53Z</time>
      </trkpt>
      <trkpt lat="39.1245470" lon="-3.8925960">
        <ele>622.1</ele>
        <time>2019-08-12T06:25:54Z</time>
      </trkpt>
      <trkpt lat="39.1246070" lon="-3.8926060">
        <ele>622.0</ele>
        <time>2019-08-12T06:25:55Z</time>
      </trkpt>
      <trkpt lat="39.1246660" lon="-3.8926160">
        <ele>622.0</ele>
        <time>2019-08-12T06:25:56Z</time>
      </trkpt>
      <trkpt lat="39.1247240" lon="-3.8926260">
        <ele>621.9</ele>
        <time>2019-08-12T06:25:57Z</time>
      </trkpt>
      <trkpt lat="39.1247810" lon="-3.8926350">
        <ele>621.8</ele>
        <time>2019-08-12T06:25:58Z</time>
      </trkpt>
      <trkpt lat="39.1248370" lon="-3.8926450">
        <ele>621.8</ele>
        <time>2019-08-12T06:25:59Z</time>
      </trkpt>
      <trkpt lat="39.1248930" lon="-3.8926540">
        <ele>621.7</ele>
        <time>2019-08-12T06:26:00Z</time>
      </trkpt>
      <trkpt lat="39.1249490" lon="-3.8926640">
        <ele>621.7</ele>
        <time>2019-08-12T06:26:01Z</time>
      </trkpt>
      <trkpt lat="39.1250040" lon="-3.8926730">
        <ele>621.6</ele>
        <time>2019-08-12T06:26:02Z</time>
      </trkpt>
      <trkpt lat="39.1250600" lon="-3.8926820">
        <ele>621.6</ele>
        <time>2019-08-12T06:26:03Z</time>
      </trkpt>
      <trkpt lat="39.1251150" lon="-3.8926910">
        <ele>621.5</ele>
        <time>2019-08-12T06:26:04Z</time>
      </trkpt>
      <trkpt lat="39.1251700" lon="-3.8927000">
        <ele>621.4</ele>
        <time>2019-08-12T06:26:05Z</time>
      </trkpt>
      <trkpt lat="39.1252260" lon="-3.8927090">
        <ele>621.4</ele>
        <time>2019-08-12T06:26:06Z</time>
      </trkpt>
      <trkpt lat="39.1252810" lon="-3.8927170">
        <ele>621.3</ele>
        <time>2019-08-12T06:26:07Z</time>
      </trkpt>
      <trkpt lat="39.1253370" lon="-3.8927260">
        <ele>621.2</ele>
        <time>2019-08-12T06:26:08Z</time>
      </trkpt>
      <trkpt lat="39.1253920" lon="-3.8927340">
        <ele>621.2</ele>
        <time>2019-08-12T06:26:09Z</time>
      </trkpt>
      <trkpt lat="39.1254480" lon="-3.8927420">
        <ele>621.1</ele>
        <time>2019-08-12T06:26:10Z</time>
      </trkpt>
      <trkpt lat="39.1255030" lon="-3.8927500">
        <ele>621.0</ele>
        <time>2019-08-12T06:26:11Z</time>
      </trkpt>
      <trkpt lat="39.1255580" lon="-3.8927580">
        <ele>621.0</ele>
        <time>2019-08-12T06:26:12Z</time>
      </trkpt>
      <trkpt lat="39.1256130" lon="-3.8927650">
        <ele>620.9</ele>
        <time>2019-08-12T06:26:13Z</time>
      </trkpt>
      <trkpt lat="39.1256680" lon="-3.8927720">
        <ele>620.8</ele>
        <time>2019-08-12T06:26:14Z</time>
      </trkpt>
      <trkpt lat="39.1257230" lon="-3.8927790">
        <ele>620.8</ele>
        <time>2019-08-12T06:26:15Z</time>
      </trkpt>
      <trkpt lat="39.1257770" lon="-3.8927860">
        <ele>620.7</ele>
        <time>2019-08-12T06:26:16Z</time>
      </trkpt>
      <trkpt lat="39.1258320" lon="-3.8927930">
        <ele>620.6</ele>
        <time>2019-08-12T06:26:17Z</time>
      </trkpt>
      <trkpt lat="39.1258860" lon="-3.8927990">
        <ele>620.6</ele>
        <time>2019-08-12T06:26:18Z</time>
      </trkpt>
      <trkpt lat="39.1259410" lon="-3.8928050">
        <ele>620.5</ele>
        <time>2019-08-12T06:26:19Z</time>
      </trkpt>
      <trkpt lat="39.1259950" lon="-3.8928120">
        <ele>620.5</ele>
        <time>2019-08-12T06:26:20Z</time>
      </trkpt>
      <trkpt lat="39.1260500" lon="-3.8928180">
        <ele>620.4</ele>
        <time>2019-08-12T06:26:21Z</time>
      </trkpt>
      <trkpt lat="39.1261060" lon="-3.8928240">
        <ele>620.4</ele>
        <time>2019-08-12T06:26:22Z</time>
      </trkpt>
      <trkpt lat="39.1261610" lon="-3.8928300">
        <ele>620.3</ele>
        <time>2019-08-12T06:26:23Z</time>
      </trkpt>
      <trkpt lat="39.1262170" lon="-3.8928350">
        <ele>620.3</ele>
        <time>2019-08-12T06:26:24Z</time>
      </trkpt>
      <trkpt lat="39.1262730" lon="-3.8928410">
        <ele>620.3</ele>
        <time>2019-08-12T06:26:25Z</time>
      </trkpt>
      <trkpt lat="39.1263290" lon="-3.8928460">
        <ele>620.2</ele>
        <time>2019-08-12T06:26:26Z</time>
      </trkpt>
      <trkpt lat="39.1263850" lon="-3.8928520">
        <ele>620.2</ele>
        <time>2019-08-12T06:26:27Z</time>
      </trkpt>
      <trkpt lat="39.1264400" lon="-3.8928570">
        <ele>620.2</ele>
        <time>2019-08-12T06:26:28Z</time>
      </trkpt>
      <trkpt lat="39.1264960" lon="-3.8928610">
        <ele>620.1</ele>
        <time>2019-08-12T06:26:29Z</time>
      </trkpt>
      <trkpt lat="39.1265500" lon="-3.8928660">
        <ele>620.1</ele>
        <time>2019-08-12T06:26:30Z</time>
      </trkpt>
      <trkpt lat="39.1266050" lon="-3.8928700">
        <ele>620.1</ele>
        <time>2019-08-12T06:26:31Z</time>
      </trkpt>
      <trkpt lat="39.1266580" lon="-3.8928740">
        <ele>620.1</ele>
        <time>2019-08-12T06:26:32Z</time>
      </trkpt>
      <trkpt lat="39.1267110" lon="-3.8928770">
        <ele>620.1</ele>
        <time>2019-08-12T06:26:33Z</time>
      </trkpt>
      <trkpt lat="39.1267630" lon="-3.8928800">
        <ele>620.1</ele>
        <time>2019-08-12T06:26:34Z</time>
      </trkpt>
      <trkpt lat="39.1268150" lon="-3.8928830">
        <ele>620.1</ele>
        <time>2019-08-12T06:26:35Z</time>
      </trkpt>
      <trkpt lat="39.1268660" lon="-3.8928860">
        <ele>620.1</ele>
        <time>2019-08-12T06:26:36Z</time>
      </trkpt>
      <trkpt lat="39.1269170" lon="-3.8928880">
        <ele>620.1</ele>
        <time>2019-08-12T06:26:37Z</time>
      </trkpt>
      <trkpt lat="39.1269680" lon="-3.8928910">
        <ele>620.1</ele>
        <time>2019-08-12T06:26:38Z</time>
      </trkpt>
      <trkpt lat="39.1270180" lon="-3.8928930">
        <ele>620.1</ele>
        <time>2019-08-12T06:26:39Z</time>
      </trkpt>
      <trkpt lat="39.1270680" lon="-3.8928950">
        <ele>620.1</ele>
        <time>2019-08-12T06:26:40Z</time>
      </trkpt>
      <trkpt lat="39.1271180" lon="-3.8928970">
        <ele>620.1</ele>
        <time>2019-08-12T06:26:41Z</time>
      </trkpt>
      <trkpt lat="39.1271680" lon="-3.8928990">
        <ele>620.1</ele>
        <time>2019-08-12T06:26:42Z</time>
      </trkpt>
      <trkpt lat="39.1272180" lon="-3.8929010">
        <ele>620.1</ele>
        <time>2019-08-12T06:26:43Z</time>
      </trkpt>
      <trkpt lat="39.1272670" lon="-3.8929020">
        <ele>620.1</ele>
        <time>2019-08-12T06:26:44Z</time>
      </trkpt>
      <trkpt lat="39.1273170" lon="-3.8929040">
        <ele>620.1</ele>
        <time>2019-08-12T06:26:45Z</time>
      </trkpt>
      <trkpt lat="39.1273670" lon="-3.8929060">
        <ele>620.1</ele>
        <time>2019-08-12T06:26:46Z</time>
      </trkpt>
      <trkpt lat="39.1274170" lon="-3.8929070">
        <ele>620.1</ele>
        <time>2019-08-12T06:26:47Z</time>
      </trkpt>
      <trkpt lat="39.1274670" lon="-3.8929080">
        <ele>620.1</ele>
        <time>2019-08-12T06:26:48Z</time>
      </trkpt>
      <trkpt lat="39.1275170" lon="-3.8929090">
        <ele>620.1</ele>
        <time>2019-08-12T06:26:49Z</time>
      </trkpt>
      <trkpt lat="39.1275670" lon="-3.8929100">
        <ele>620.1</ele>
        <time>2019-08-12T06:26:50Z</time>
      </trkpt>
      <trkpt lat="39.1276170" lon="-3.8929110">
        <ele>620.1</ele>
        <time>2019-08-12T06:26:51Z</time>
      </trkpt>
      <trkpt lat="39.1276680" lon="-3.8929110">
        <ele>620.1</ele>
        <time>2019-08-12T06:26:52Z</time>
      </trkpt>
      <trkpt lat="39.1277180" lon="-3.8929110">
        <ele>620.1</ele>
        <time>2019-08-12T06:26:53Z</time>
      </trkpt>
      <trkpt lat="39.1277690" lon="-3.8929110">
        <ele>620.0</ele>
        <time>2019-08-12T06:26:54Z</time>
      </trkpt>
      <trkpt lat="39.1278200" lon="-3.8929110">
        <ele>620.0</ele>
        <time>2019-08-12T06:26:55Z</time>
      </trkpt>
      <trkpt lat="39.1278700" lon="-3.8929110">
        <ele>620.0</ele>
        <time>2019-08-12T06:26:56Z</time>
      </trkpt>
      <trkpt lat="39.1279210" lon="-3.8929100">
        <ele>620.0</ele>
        <time>2019-08-12T06:26:57Z</time>
      </trkpt>
      <trkpt lat="39.1279720" lon="-3.8929090">
        <ele>620.0</ele>
        <time>2019-08-12T06:26:58Z</time>
      </trkpt>
      <trkpt lat="39.1280240" lon="-3.8929080">
        <ele>619.9</ele>
        <time>2019-08-12T06:26:59Z</time>
      </trkpt>
      <trkpt lat="39.1280750" lon="-3.8929070">
        <ele>619.9</ele>
        <time>2019-08-12T06:27:00Z</time>
      </trkpt>
      <trkpt lat="39.1281260" lon="-3.8929050">
        <ele>619.9</ele>
        <time>2019-08-12T06:27:01Z</time>
      </trkpt>
      <trkpt lat="39.1281780" lon="-3.8929030">
        <ele>619.9</ele>
        <time>2019-08-12T06:27:02Z</time>
      </trkpt>
      <trkpt lat="39.1282300" lon="-3.8929020">
        <ele>619.8</ele>
        <time>2019-08-12T06:27:03Z</time>
      </trkpt>
      <trkpt lat="39.1282820" lon="-3.8928990">
        <ele>619.8</ele>
        <time>2019-08-12T06:27:04Z</time>
      </trkpt>
      <trkpt lat="39.1283340" lon="-3.8928970">
        <ele>619.8</ele>
        <time>2019-08-12T06:27:05Z</time>
      </trkpt>
      <trkpt lat="39.1283860" lon="-3.8928950">
        <ele>619.7</ele>
        <time>2019-08-12T06:27:06Z</time>
      </trkpt>
      <trkpt lat="39.1284380" lon="-3.8928920">
        <ele>619.7</ele>
        <time>2019-08-12T06:27:07Z</time>
      </trkpt>
      <trkpt lat="39.1284900" lon="-3.8928890">
        <ele>619.7</ele>
        <time>2019-08-12T06:27:08Z</time>
      </trkpt>
      <trkpt lat="39.1285430" lon="-3.8928860">
        <ele>619.6</ele>
        <time>2019-08-12T06:27:09Z</time>
      </trkpt>
      <trkpt lat="39.1285960" lon="-3.8928830">
        <ele>619.6</ele>
        <time>2019-08-12T06:27:10Z</time>
      </trkpt>
      <trkpt lat="39.1286480" lon="-3.8928790">
        <ele>619.6</ele>
        <time>2019-08-12T06:27:11Z</time>
      </trkpt>
      <trkpt lat="39.1287010" lon="-3.8928760">
        <ele>619.6</ele>
        <time>2019-08-12T06:27:12Z</time>
      </trkpt>
      <trkpt lat="39.1287540" lon="-3.8928720">
        <ele>619.5</ele>
        <time>2019-08-12T06:27:13Z</time>
      </trkpt>
      <trkpt lat="39.1288070" lon="-3.8928680">
        <ele>619.5</ele>
        <time>2019-08-12T06:27:14Z</time>
      </trkpt>
      <trkpt lat="39.1288590" lon="-3.8928630">
        <ele>619.5</ele>
        <time>2019-08-12T06:27:15Z</time>
      </trkpt>
      <trkpt lat="39.1289120" lon="-3.8928590">
        <ele>619.5</ele>
        <time>2019-08-12T06:27:16Z</time>
      </trkpt>
      <trkpt lat="39.1289640" lon="-3.8928540">
        <ele>619.4</ele>
        <time>2019-08-12T06:27:17Z</time>
      </trkpt>
      <trkpt lat="39.1290170" lon="-3.8928490">
        <ele>619.4</ele>
        <time>2019-08-12T06:27:18Z</time>
      </trkpt>
      <trkpt lat="39.1290690" lon="-3.8928440">
        <ele>619.4</ele>
        <time>2019-08-12T06:27:19Z</time>
      </trkpt>
      <trkpt lat="39.1291210" lon="-3.8928380">
        <ele>619.4</ele>
        <time>2019-08-12T06:27:20Z</time>
      </trkpt>
      <trkpt lat="39.1291720" lon="-3.8928330">
        <ele>619.4</ele>
        <time>2019-08-12T06:27:21Z</time>
      </trkpt>
      <trkpt lat="39.1292240" lon="-3.8928260">
        <ele>619.4</ele>
        <time>2019-08-12T06:27:22Z</time>
      </trkpt>
      <trkpt lat="39.1292760" lon="-3.8928200">
        <ele>619.4</ele>
        <time>2019-08-12T06:27:23Z</time>
      </trkpt>
      <trkpt lat="39.1293280" lon="-3.8928130">
        <ele>619.4</ele>
        <time>2019-08-12T06:27:24Z</time>
      </trkpt>
      <trkpt lat="39.1293800" lon="-3.8928060">
        <ele>619.3</ele>
        <time>2019-08-12T06:27:25Z</time>
      </trkpt>
      <trkpt lat="39.1294320" lon="-3.8927990">
        <ele>619.3</ele>
        <time>2019-08-12T06:27:26Z</time>
      </trkpt>
      <trkpt lat="39.1294850" lon="-3.8927910">
        <ele>619.4</ele>
        <time>2019-08-12T06:27:27Z</time>
      </trkpt>
      <trkpt lat="39.1295380" lon="-3.8927830">
        <ele>619.4</ele>
        <time>2019-08-12T06:27:28Z</time>
      </trkpt>
      <trkpt lat="39.1295920" lon="-3.8927740">
        <ele>619.5</ele>
        <time>2019-08-12T06:27:29Z</time>
      </trkpt>
      <trkpt lat="39.1296450" lon="-3.8927650">
        <ele>619.5</ele>
        <time>2019-08-12T06:27:30Z</time>
      </trkpt>
      <trkpt lat="39.1296990" lon="-3.8927560">
        <ele>619.6</ele>
        <time>2019-08-12T06:27:31Z</time>
      </trkpt>
      <trkpt lat="39.1297540" lon="-3.8927460">
        <ele>619.6</ele>
        <time>2019-08-12T06:27:32Z</time>
      </trkpt>
      <trkpt lat="39.1298090" lon="-3.8927360">
        <ele>619.7</ele>
        <time>2019-08-12T06:27:33Z</time>
      </trkpt>
      <trkpt lat="39.1298640" lon="-3.8927250">
        <ele>619.8</ele>
        <time>2019-08-12T06:27:34Z</time>
      </trkpt>
      <trkpt lat="39.1299200" lon="-3.8927140">
        <ele>619.9</ele>
        <time>2019-08-12T06:27:35Z</time>
      </trkpt>
      <trkpt lat="39.1299760" lon="-3.8927030">
        <ele>619.9</ele>
        <time>2019-08-12T06:27:36Z</time>
      </trkpt>
      <trkpt lat="39.1300320" lon="-3.8926920">
        <ele>619.9</ele>
        <time>2019-08-12T06:27:37Z</time>
      </trkpt>
      <trkpt lat="39.1300890" lon="-3.8926800">
        <ele>620.0</ele>
        <time>2019-08-12T06:27:38Z</time>
      </trkpt>
      <trkpt lat="39.1301460" lon="-3.8926680">
        <ele>620.0</ele>
        <time>2019-08-12T06:27:39Z</time>
      </trkpt>
      <trkpt lat="39.1302040" lon="-3.8926550">
        <ele>620.0</ele>
        <time>2019-08-12T06:27:40Z</time>
      </trkpt>
      <trkpt lat="39.1302610" lon="-3.8926420">
        <ele>620.1</ele>
        <time>2019-08-12T06:27:41Z</time>
      </trkpt>
      <trkpt lat="39.1303570" lon="-3.8926200">
        <ele>620.1</ele>
        <time>2019-08-12T06:27:42Z</time>
      </trkpt>
      <trkpt lat="39.1303960" lon="-3.8926100">
        <ele>620.1</ele>
        <time>2019-08-12T06:27:43Z</time>
      </trkpt>
      <trkpt lat="39.1304340" lon="-3.8926010">
        <ele>620.1</ele>
        <time>2019-08-12T06:27:44Z</time>
      </trkpt>
      <trkpt lat="39.1304920" lon="-3.8925870">
        <ele>620.1</ele>
        <time>2019-08-12T06:27:45Z</time>
      </trkpt>
      <trkpt lat="39.1305490" lon="-3.8925720">
        <ele>620.1</ele>
        <time>2019-08-12T06:27:46Z</time>
      </trkpt>
      <trkpt lat="39.1306450" lon="-3.8925460">
        <ele>620.1</ele>
        <time>2019-08-12T06:27:47Z</time>
      </trkpt>
      <trkpt lat="39.1306830" lon="-3.8925360">
        <ele>620.1</ele>
        <time>2019-08-12T06:27:48Z</time>
      </trkpt>
      <trkpt lat="39.1307210" lon="-3.8925250">
        <ele>620.1</ele>
        <time>2019-08-12T06:27:49Z</time>
      </trkpt>
      <trkpt lat="39.1307770" lon="-3.8925090">
        <ele>620.1</ele>
        <time>2019-08-12T06:27:50Z</time>
      </trkpt>
      <trkpt lat="39.1308330" lon="-3.8924930">
        <ele>620.1</ele>
        <time>2019-08-12T06:27:51Z</time>
      </trkpt>
      <trkpt lat="39.1308890" lon="-3.8924760">
        <ele>620.0</ele>
        <time>2019-08-12T06:27:52Z</time>
      </trkpt>
      <trkpt lat="39.1309460" lon="-3.8924600">
        <ele>620.0</ele>
        <time>2019-08-12T06:27:53Z</time>
      </trkpt>
      <trkpt lat="39.1310030" lon="-3.8924420">
        <ele>620.0</ele>
        <time>2019-08-12T06:27:54Z</time>
      </trkpt>
      <trkpt lat="39.1310600" lon="-3.8924240">
        <ele>619.9</ele>
        <time>2019-08-12T06:27:55Z</time>
      </trkpt>
      <trkpt lat="39.1311190" lon="-3.8924050">
        <ele>619.9</ele>
        <time>2019-08-12T06:27:56Z</time>
      </trkpt>
      <trkpt lat="39.1311780" lon="-3.8923850">
        <ele>619.8</ele>
        <time>2019-08-12T06:27:57Z</time>
      </trkpt>
      <trkpt lat="39.1312370" lon="-3.8923630">
        <ele>619.7</ele>
        <time>2019-08-12T06:27:58Z</time>
      </trkpt>
      <trkpt lat="39.1312970" lon="-3.8923390">
        <ele>619.6</ele>
        <time>2019-08-12T06:27:59Z</time>
      </trkpt>
      <trkpt lat="39.1313570" lon="-3.8923130">
        <ele>619.5</ele>
        <time>2019-08-12T06:28:00Z</time>
      </trkpt>
      <trkpt lat="39.1314170" lon="-3.8922850">
        <ele>619.4</ele>
        <time>2019-08-12T06:28:01Z</time>
      </trkpt>
      <trkpt lat="39.1314760" lon="-3.8922570">
        <ele>619.3</ele>
        <time>2019-08-12T06:28:02Z</time>
      </trkpt>
      <trkpt lat="39.1315350" lon="-3.8922300">
        <ele>619.2</ele>
        <time>2019-08-12T06:28:03Z</time>
      </trkpt>
      <trkpt lat="39.1315920" lon="-3.8922050">
        <ele>619.1</ele>
        <time>2019-08-12T06:28:04Z</time>
      </trkpt>
      <trkpt lat="39.1316480" lon="-3.8921810">
        <ele>619.0</ele>
        <time>2019-08-12T06:28:05Z</time>
      </trkpt>
      <trkpt lat="39.1317040" lon="-3.8921590">
        <ele>619.0</ele>
        <time>2019-08-12T06:28:06Z</time>
      </trkpt>
      <trkpt lat="39.1317590" lon="-3.8921370">
        <ele>618.9</ele>
        <time>2019-08-12T06:28:07Z</time>
      </trkpt>
      <trkpt lat="39.1318140" lon="-3.8921170">
        <ele>618.8</ele>
        <time>2019-08-12T06:28:08Z</time>
      </trkpt>
      <trkpt lat="39.1318690" lon="-3.8920960">
        <ele>618.7</ele>
        <time>2019-08-12T06:28:09Z</time>
      </trkpt>
      <trkpt lat="39.1319250" lon="-3.8920760">
        <ele>618.6</ele>
        <time>2019-08-12T06:28:10Z</time>
      </trkpt>
      <trkpt lat="39.1319820" lon="-3.8920540">
        <ele>618.6</ele>
        <time>2019-08-12T06:28:11Z</time>
      </trkpt>
      <trkpt lat="39.1320390" lon="-3.8920320">
        <ele>618.5</ele>
        <time>2019-08-12T06:28:12Z</time>
      </trkpt>
      <trkpt lat="39.1320980" lon="-3.8920090">
        <ele>618.4</ele>
        <time>2019-08-12T06:28:13Z</time>
      </trkpt>
      <trkpt lat="39.1321580" lon="-3.8919850">
        <ele>618.3</ele>
        <time>2019-08-12T06:28:14Z</time>
      </trkpt>
      <trkpt lat="39.1322190" lon="-3.8919590">
        <ele>618.3</ele>
        <time>2019-08-12T06:28:15Z</time>
      </trkpt>
      <trkpt lat="39.1322810" lon="-3.8919330">
        <ele>618.3</ele>
        <time>2019-08-12T06:28:16Z</time>
      </trkpt>
      <trkpt lat="39.1323440" lon="-3.8919050">
        <ele>618.3</ele>
        <time>2019-08-12T06:28:17Z</time>
      </trkpt>
      <trkpt lat="39.1324070" lon="-3.8918780">
        <ele>618.3</ele>
        <time>2019-08-12T06:28:18Z</time>
      </trkpt>
      <trkpt lat="39.1324710" lon="-3.8918490">
        <ele>618.3</ele>
        <time>2019-08-12T06:28:19Z</time>
      </trkpt>
      <trkpt lat="39.1325350" lon="-3.8918200">
        <ele>618.3</ele>
        <time>2019-08-12T06:28:20Z</time>
      </trkpt>
      <trkpt lat="39.1325990" lon="-3.8917910">
        <ele>618.2</ele>
        <time>2019-08-12T06:28:21Z</time>
      </trkpt>
      <trkpt lat="39.1326630" lon="-3.8917620">
        <ele>618.1</ele>
        <time>2019-08-12T06:28:22Z</time>
      </trkpt>
      <trkpt lat="39.1327270" lon="-3.8917320">
        <ele>618.1</ele>
        <time>2019-08-12T06:28:23Z</time>
      </trkpt>
      <trkpt lat="39.1327910" lon="-3.8917020">
        <ele>618.0</ele>
        <time>2019-08-12T06:28:24Z</time>
      </trkpt>
      <trkpt lat="39.1328540" lon="-3.8916720">
        <ele>617.9</ele>
        <time>2019-08-12T06:28:25Z</time>
      </trkpt>
      <trkpt lat="39.1329170" lon="-3.8916420">
        <ele>617.7</ele>
        <time>2019-08-12T06:28:26Z</time>
      </trkpt>
      <trkpt lat="39.1329800" lon="-3.8916110">
        <ele>617.6</ele>
        <time>2019-08-12T06:28:27Z</time>
      </trkpt>
      <trkpt lat="39.1330430" lon="-3.8915800">
        <ele>617.5</ele>
        <time>2019-08-12T06:28:28Z</time>
      </trkpt>
      <trkpt lat="39.1331050" lon="-3.8915490">
        <ele>617.4</ele>
        <time>2019-08-12T06:28:29Z</time>
      </trkpt>
      <trkpt lat="39.1331670" lon="-3.8915180">
        <ele>617.3</ele>
        <time>2019-08-12T06:28:30Z</time>
      </trkpt>
      <trkpt lat="39.1332270" lon="-3.8914860">
        <ele>617.2</ele>
        <time>2019-08-12T06:28:31Z</time>
      </trkpt>
      <trkpt lat="39.1332870" lon="-3.8914550">
        <ele>617.1</ele>
        <time>2019-08-12T06:28:32Z</time>
      </trkpt>
      <trkpt lat="39.1333470" lon="-3.8914220">
        <ele>617.0</ele>
        <time>2019-08-12T06:28:33Z</time>
      </trkpt>
      <trkpt lat="39.1334060" lon="-3.8913900">
        <ele>616.9</ele>
        <time>2019-08-12T06:28:34Z</time>
      </trkpt>
      <trkpt lat="39.1334650" lon="-3.8913570">
        <ele>616.8</ele>
        <time>2019-08-12T06:28:35Z</time>
      </trkpt>
      <trkpt lat="39.1335230" lon="-3.8913230">
        <ele>616.7</ele>
        <time>2019-08-12T06:28:36Z</time>
      </trkpt>
      <trkpt lat="39.1335810" lon="-3.8912900">
        <ele>616.5</ele>
        <time>2019-08-12T06:28:37Z</time>
      </trkpt>
      <trkpt lat="39.1336390" lon="-3.8912550">
        <ele>616.4</ele>
        <time>2019-08-12T06:28:38Z</time>
      </trkpt>
      <trkpt lat="39.1336970" lon="-3.8912200">
        <ele>616.3</ele>
        <time>2019-08-12T06:28:39Z</time>
      </trkpt>
      <trkpt lat="39.1337550" lon="-3.8911850">
        <ele>616.2</ele>
        <time>2019-08-12T06:28:40Z</time>
      </trkpt>
      <trkpt lat="39.1338130" lon="-3.8911490">
        <ele>616.1</ele>
        <time>2019-08-12T06:28:41Z</time>
      </trkpt>
      <trkpt lat="39.1338720" lon="-3.8911120">
        <ele>616.0</ele>
        <time>2019-08-12T06:28:42Z</time>
      </trkpt>
      <trkpt lat="39.1339310" lon="-3.8910750">
        <ele>615.9</ele>
        <time>2019-08-12T06:28:43Z</time>
      </trkpt>
      <trkpt lat="39.1339900" lon="-3.8910370">
        <ele>615.8</ele>
        <time>2019-08-12T06:28:44Z</time>
      </trkpt>
      <trkpt lat="39.1340490" lon="-3.8909990">
        <ele>615.7</ele>
        <time>2019-08-12T06:28:45Z</time>
      </trkpt>
      <trkpt lat="39.1341080" lon="-3.8909590">
        <ele>615.7</ele>
        <time>2019-08-12T06:28:46Z</time>
      </trkpt>
      <trkpt lat="39.1341670" lon="-3.8909200">
        <ele>615.6</ele>
        <time>2019-08-12T06:28:47Z</time>
      </trkpt>
      <trkpt lat="39.1342270" lon="-3.8908790">
        <ele>615.5</ele>
        <time>2019-08-12T06:28:48Z</time>
      </trkpt>
      <trkpt lat="39.1342870" lon="-3.8908380">
        <ele>615.5</ele>
        <time>2019-08-12T06:28:49Z</time>
      </trkpt>
      <trkpt lat="39.1343470" lon="-3.8907960">
        <ele>615.4</ele>
        <time>2019-08-12T06:28:50Z</time>
      </trkpt>
      <trkpt lat="39.1344070" lon="-3.8907540">
        <ele>615.3</ele>
        <time>2019-08-12T06:28:51Z</time>
      </trkpt>
      <trkpt lat="39.1344670" lon="-3.8907110">
        <ele>615.3</ele>
        <time>2019-08-12T06:28:52Z</time>
      </trkpt>
      <trkpt lat="39.1345280" lon="-3.8906670">
        <ele>615.2</ele>
        <time>2019-08-12T06:28:53Z</time>
      </trkpt>
      <trkpt lat="39.1345880" lon="-3.8906230">
        <ele>615.2</ele>
        <time>2019-08-12T06:28:54Z</time>
      </trkpt>
      <trkpt lat="39.1346490" lon="-3.8905790">
        <ele>615.1</ele>
        <time>2019-08-12T06:28:55Z</time>
      </trkpt>
      <trkpt lat="39.1347090" lon="-3.8905340">
        <ele>615.0</ele>
        <time>2019-08-12T06:28:56Z</time>
      </trkpt>
      <trkpt lat="39.1347700" lon="-3.8904880">
        <ele>615.0</ele>
        <time>2019-08-12T06:28:57Z</time>
      </trkpt>
      <trkpt lat="39.1348300" lon="-3.8904430">
        <ele>615.0</ele>
        <time>2019-08-12T06:28:58Z</time>
      </trkpt>
      <trkpt lat="39.1348910" lon="-3.8903970">
        <ele>614.9</ele>
        <time>2019-08-12T06:28:59Z</time>
      </trkpt>
      <trkpt lat="39.1349510" lon="-3.8903500">
        <ele>614.9</ele>
        <time>2019-08-12T06:29:00Z</time>
      </trkpt>
      <trkpt lat="39.1350110" lon="-3.8903030">
        <ele>614.9</ele>
        <time>2019-08-12T06:29:01Z</time>
      </trkpt>
      <trkpt lat="39.1350710" lon="-3.8902560">
        <ele>614.9</ele>
        <time>2019-08-12T06:29:02Z</time>
      </trkpt>
      <trkpt lat="39.1351310" lon="-3.8902090">
        <ele>614.9</ele>
        <time>2019-08-12T06:29:03Z</time>
      </trkpt>
      <trkpt lat="39.1351910" lon="-3.8901610">
        <ele>614.8</ele>
        <time>2019-08-12T06:29:04Z</time>
      </trkpt>
      <trkpt lat="39.1352510" lon="-3.8901130">
        <ele>614.8</ele>
        <time>2019-08-12T06:29:05Z</time>
      </trkpt>
      <trkpt lat="39.1353100" lon="-3.8900650">
        <ele>614.8</ele>
        <time>2019-08-12T06:29:06Z</time>
      </trkpt>
      <trkpt lat="39.1353700" lon="-3.8900160">
        <ele>614.8</ele>
        <time>2019-08-12T06:29:07Z</time>
      </trkpt>
      <trkpt lat="39.1354290" lon="-3.8899680">
        <ele>614.7</ele>
        <time>2019-08-12T06:29:08Z</time>
      </trkpt>
      <trkpt lat="39.1354880" lon="-3.8899190">
        <ele>614.7</ele>
        <time>2019-08-12T06:29:09Z</time>
      </trkpt>
      <trkpt lat="39.1355470" lon="-3.8898700">
        <ele>614.7</ele>
        <time>2019-08-12T06:29:10Z</time>
      </trkpt>
      <trkpt lat="39.1356050" lon="-3.8898210">
        <ele>614.7</ele>
        <time>2019-08-12T06:29:11Z</time>
      </trkpt>
      <trkpt lat="39.1356640" lon="-3.8897720">
        <ele>614.7</ele>
        <time>2019-08-12T06:29:12Z</time>
      </trkpt>
      <trkpt lat="39.1357220" lon="-3.8897220">
        <ele>614.7</ele>
        <time>2019-08-12T06:29:13Z</time>
      </trkpt>
      <trkpt lat="39.1357800" lon="-3.8896730">
        <ele>614.7</ele>
        <time>2019-08-12T06:29:14Z</time>
      </trkpt>
      <trkpt lat="39.1358370" lon="-3.8896230">
        <ele>614.7</ele>
        <time>2019-08-12T06:29:15Z</time>
      </trkpt>
      <trkpt lat="39.1358950" lon="-3.8895740">
        <ele>614.6</ele>
        <time>2019-08-12T06:29:16Z</time>
      </trkpt>
      <trkpt lat="39.1359520" lon="-3.8895240">
        <ele>614.6</ele>
        <time>2019-08-12T06:29:17Z</time>
      </trkpt>
      <trkpt lat="39.1360090" lon="-3.8894740">
        <ele>614.6</ele>
        <time>2019-08-12T06:29:18Z</time>
      </trkpt>
      <trkpt lat="39.1360650" lon="-3.8894240">
        <ele>614.6</ele>
        <time>2019-08-12T06:29:19Z</time>
      </trkpt>
      <trkpt lat="39.1361210" lon="-3.8893750">
        <ele>614.6</ele>
        <time>2019-08-12T06:29:20Z</time>
      </trkpt>
      <trkpt lat="39.1361770" lon="-3.8893260">
        <ele>614.5</ele>
        <time>2019-08-12T06:29:21Z</time>
      </trkpt>
      <trkpt lat="39.1362310" lon="-3.8892770">
        <ele>614.5</ele>
        <time>2019-08-12T06:29:22Z</time>
      </trkpt>
      <trkpt lat="39.1362850" lon="-3.8892280">
        <ele>614.5</ele>
        <time>2019-08-12T06:29:23Z</time>
      </trkpt>
      <trkpt lat="39.1363380" lon="-3.8891810">
        <ele>614.5</ele>
        <time>2019-08-12T06:29:24Z</time>
      </trkpt>
      <trkpt lat="39.1363900" lon="-3.8891340">
        <ele>614.5</ele>
        <time>2019-08-12T06:29:25Z</time>
      </trkpt>
      <trkpt lat="39.1364410" lon="-3.8890880">
        <ele>614.5</ele>
        <time>2019-08-12T06:29:26Z</time>
      </trkpt>
      <trkpt lat="39.1364900" lon="-3.8890420">
        <ele>614.5</ele>
        <time>2019-08-12T06:29:27Z</time>
      </trkpt>
      <trkpt lat="39.1365390" lon="-3.8889980">
        <ele>614.5</ele>
        <time>2019-08-12T06:29:28Z</time>
      </trkpt>
      <trkpt lat="39.1365860" lon="-3.8889540">
        <ele>614.5</ele>
        <time>2019-08-12T06:29:29Z</time>
      </trkpt>
      <trkpt lat="39.1366330" lon="-3.8889100">
        <ele>614.5</ele>
        <time>2019-08-12T06:29:30Z</time>
      </trkpt>
      <trkpt lat="39.1366800" lon="-3.8888670">
        <ele>614.5</ele>
        <time>2019-08-12T06:29:31Z</time>
      </trkpt>
      <trkpt lat="39.1367260" lon="-3.8888240">
        <ele>614.5</ele>
        <time>2019-08-12T06:29:32Z</time>
      </trkpt>
      <trkpt lat="39.1367730" lon="-3.8887800">
        <ele>614.5</ele>
        <time>2019-08-12T06:29:33Z</time>
      </trkpt>
      <trkpt lat="39.1368190" lon="-3.8887370">
        <ele>614.5</ele>
        <time>2019-08-12T06:29:34Z</time>
      </trkpt>
      <trkpt lat="39.1368660" lon="-3.8886920">
        <ele>614.5</ele>
        <time>2019-08-12T06:29:35Z</time>
      </trkpt>
      <trkpt lat="39.1369140" lon="-3.8886480">
        <ele>614.6</ele>
        <time>2019-08-12T06:29:36Z</time>
      </trkpt>
      <trkpt lat="39.1369620" lon="-3.8886020">
        <ele>614.6</ele>
        <time>2019-08-12T06:29:37Z</time>
      </trkpt>
      <trkpt lat="39.1370110" lon="-3.8885560">
        <ele>614.7</ele>
        <time>2019-08-12T06:29:38Z</time>
      </trkpt>
      <trkpt lat="39.1370600" lon="-3.8885100">
        <ele>614.8</ele>
        <time>2019-08-12T06:29:39Z</time>
      </trkpt>
      <trkpt lat="39.1371090" lon="-3.8884630">
        <ele>614.9</ele>
        <time>2019-08-12T06:29:40Z</time>
      </trkpt>
      <trkpt lat="39.1371580" lon="-3.8884160">
        <ele>615.0</ele>
        <time>2019-08-12T06:29:41Z</time>
      </trkpt>
      <trkpt lat="39.1372080" lon="-3.8883690">
        <ele>615.2</ele>
        <time>2019-08-12T06:29:42Z</time>
      </trkpt>
      <trkpt lat="39.1372570" lon="-3.8883220">
        <ele>615.3</ele>
        <time>2019-08-12T06:29:43Z</time>
      </trkpt>
      <trkpt lat="39.1373050" lon="-3.8882760">
        <ele>615.4</ele>
        <time>2019-08-12T06:29:44Z</time>
      </trkpt>
      <trkpt lat="39.1373540" lon="-3.8882290">
        <ele>615.6</ele>
        <time>2019-08-12T06:29:45Z</time>
      </trkpt>
      <trkpt lat="39.1374010" lon="-3.8881830">
        <ele>615.7</ele>
        <time>2019-08-12T06:29:46Z</time>
      </trkpt>
      <trkpt lat="39.1374480" lon="-3.8881370">
        <ele>615.8</ele>
        <time>2019-08-12T06:29:47Z</time>
      </trkpt>
      <trkpt lat="39.1374940" lon="-3.8880920">
        <ele>615.9</ele>
        <time>2019-08-12T06:29:48Z</time>
      </trkpt>
      <trkpt lat="39.1375400" lon="-3.8880470">
        <ele>616.1</ele>
        <time>2019-08-12T06:29:49Z</time>
      </trkpt>
      <trkpt lat="39.1375850" lon="-3.8880020">
        <ele>616.2</ele>
        <time>2019-08-12T06:29:50Z</time>
      </trkpt>
      <trkpt lat="39.1376300" lon="-3.8879570">
        <ele>616.3</ele>
        <time>2019-08-12T06:29:51Z</time>
      </trkpt>
      <trkpt lat="39.1376750" lon="-3.8879130">
        <ele>616.4</ele>
        <time>2019-08-12T06:29:52Z</time>
      </trkpt>
      <trkpt lat="39.1377190" lon="-3.8878690">
        <ele>616.5</ele>
        <time>2019-08-12T06:29:53Z</time>
      </trkpt>
      <trkpt lat="39.1377630" lon="-3.8878250">
        <ele>616.6</ele>
        <time>2019-08-12T06:29:54Z</time>
      </trkpt>
      <trkpt lat="39.1378070" lon="-3.8877810">
        <ele>616.7</ele>
        <time>2019-08-12T06:29:55Z</time>
      </trkpt>
      <trkpt lat="39.1378520" lon="-3.8877380">
        <ele>616.8</ele>
        <time>2019-08-12T06:29:56Z</time>
      </trkpt>
      <trkpt lat="39.1378960" lon="-3.8876940">
        <ele>616.9</ele>
        <time>2019-08-12T06:29:57Z</time>
      </trkpt>
      <trkpt lat="39.1379400" lon="-3.8876500">
        <ele>616.9</ele>
        <time>2019-08-12T06:29:58Z</time>
      </trkpt>
      <trkpt lat="39.1379840" lon="-3.8876070">
        <ele>617.0</ele>
        <time>2019-08-12T06:29:59Z</time>
      </trkpt>
      <trkpt lat="39.1380280" lon="-3.8875630">
        <ele>617.1</ele>
        <time>2019-08-12T06:30:00Z</time>
      </trkpt>
      <trkpt lat="39.1380720" lon="-3.8875200">
        <ele>617.1</ele>
        <time>2019-08-12T06:30:01Z</time>
      </trkpt>
      <trkpt lat="39.1381170" lon="-3.8874760">
        <ele>617.2</ele>
        <time>2019-08-12T06:30:02Z</time>
      </trkpt>
      <trkpt lat="39.1381610" lon="-3.8874330">
        <ele>617.2</ele>
        <time>2019-08-12T06:30:03Z</time>
      </trkpt>
      <trkpt lat="39.1382050" lon="-3.8873890">
        <ele>617.2</ele>
        <time>2019-08-12T06:30:04Z</time>
      </trkpt>
      <trkpt lat="39.1382500" lon="-3.8873460">
        <ele>617.2</ele>
        <time>2019-08-12T06:30:05Z</time>
      </trkpt>
      <trkpt lat="39.1382940" lon="-3.8873020">
        <ele>617.3</ele>
        <time>2019-08-12T06:30:06Z</time>
      </trkpt>
      <trkpt lat="39.1383390" lon="-3.8872580">
        <ele>617.3</ele>
        <time>2019-08-12T06:30:07Z</time>
      </trkpt>
      <trkpt lat="39.1383830" lon="-3.8872140">
        <ele>617.3</ele>
        <time>2019-08-12T06:30:08Z</time>
      </trkpt>
      <trkpt lat="39.1384280" lon="-3.8871700">
        <ele>617.3</ele>
        <time>2019-08-12T06:30:09Z</time>
      </trkpt>
      <trkpt lat="39.1384730" lon="-3.8871260">
        <ele>617.3</ele>
        <time>2019-08-12T06:30:10Z</time>
      </trkpt>
      <trkpt lat="39.1385180" lon="-3.8870820">
        <ele>617.4</ele>
        <time>2019-08-12T06:30:11Z</time>
      </trkpt>
      <trkpt lat="39.1385640" lon="-3.8870370">
        <ele>617.4</ele>
        <time>2019-08-12T06:30:12Z</time>
      </trkpt>
      <trkpt lat="39.1386090" lon="-3.8869930">
        <ele>617.4</ele>
        <time>2019-08-12T06:30:13Z</time>
      </trkpt>
      <trkpt lat="39.1386550" lon="-3.8869480">
        <ele>617.4</ele>
        <time>2019-08-12T06:30:14Z</time>
      </trkpt>
      <trkpt lat="39.1387010" lon="-3.8869030">
        <ele>617.5</ele>
        <time>2019-08-12T06:30:15Z</time>
      </trkpt>
      <trkpt lat="39.1387470" lon="-3.8868570">
        <ele>617.5</ele>
        <time>2019-08-12T06:30:16Z</time>
      </trkpt>
      <trkpt lat="39.1387930" lon="-3.8868120">
        <ele>617.5</ele>
        <time>2019-08-12T06:30:17Z</time>
      </trkpt>
      <trkpt lat="39.1388400" lon="-3.8867660">
        <ele>617.5</ele>
        <time>2019-08-12T06:30:18Z</time>
      </trkpt>
      <trkpt lat="39.1388870" lon="-3.8867200">
        <ele>617.6</ele>
        <time>2019-08-12T06:30:19Z</time>
      </trkpt>
      <trkpt lat="39.1389340" lon="-3.8866730">
        <ele>617.6</ele>
        <time>2019-08-12T06:30:20Z</time>
      </trkpt>
      <trkpt lat="39.1389820" lon="-3.8866270">
        <ele>617.7</ele>
        <time>2019-08-12T06:30:21Z</time>
      </trkpt>
      <trkpt lat="39.1390290" lon="-3.8865800">
        <ele>617.7</ele>
        <time>2019-08-12T06:30:22Z</time>
      </trkpt>
      <trkpt lat="39.1390770" lon="-3.8865330">
        <ele>617.8</ele>
        <time>2019-08-12T06:30:23Z</time>
      </trkpt>
      <trkpt lat="39.1391260" lon="-3.8864850">
        <ele>617.8</ele>
        <time>2019-08-12T06:30:24Z</time>
      </trkpt>
      <trkpt lat="39.1391740" lon="-3.8864370">
        <ele>617.9</ele>
        <time>2019-08-12T06:30:25Z</time>
      </trkpt>
      <trkpt lat="39.1392230" lon="-3.8863890">
        <ele>617.9</ele>
        <time>2019-08-12T06:30:26Z</time>
      </trkpt>
      <trkpt lat="39.1392730" lon="-3.8863410">
        <ele>618.0</ele>
        <time>2019-08-12T06:30:27Z</time>
      </trkpt>
      <trkpt lat="39.1393220" lon="-3.8862920">
        <ele>618.0</ele>
        <time>2019-08-12T06:30:28Z</time>
      </trkpt>
      <trkpt lat="39.1393720" lon="-3.8862430">
        <ele>618.0</ele>
        <time>2019-08-12T06:30:29Z</time>
      </trkpt>
      <trkpt lat="39.1394230" lon="-3.8861930">
        <ele>618.1</ele>
        <time>2019-08-12T06:30:30Z</time>
      </trkpt>
      <trkpt lat="39.1394740" lon="-3.8861430">
        <ele>618.1</ele>
        <time>2019-08-12T06:30:31Z</time>
      </trkpt>
      <trkpt lat="39.1395250" lon="-3.8860930">
        <ele>618.1</ele>
        <time>2019-08-12T06:30:32Z</time>
      </trkpt>
      <trkpt lat="39.1395760" lon="-3.8860420">
        <ele>618.2</ele>
        <time>2019-08-12T06:30:33Z</time>
      </trkpt>
      <trkpt lat="39.1396280" lon="-3.8859910">
        <ele>618.2</ele>
        <time>2019-08-12T06:30:34Z</time>
      </trkpt>
      <trkpt lat="39.1396800" lon="-3.8859400">
        <ele>618.2</ele>
        <time>2019-08-12T06:30:35Z</time>
      </trkpt>
      <trkpt lat="39.1397320" lon="-3.8858880">
        <ele>618.2</ele>
        <time>2019-08-12T06:30:36Z</time>
      </trkpt>
      <trkpt lat="39.1397850" lon="-3.8858370">
        <ele>618.3</ele>
        <time>2019-08-12T06:30:37Z</time>
      </trkpt>
      <trkpt lat="39.1398370" lon="-3.8857850">
        <ele>618.3</ele>
        <time>2019-08-12T06:30:38Z</time>
      </trkpt>
      <trkpt lat="39.1398890" lon="-3.8857340">
        <ele>618.3</ele>
        <time>2019-08-12T06:30:39Z</time>
      </trkpt>
      <trkpt lat="39.1399420" lon="-3.8856820">
        <ele>618.3</ele>
        <time>2019-08-12T06:30:40Z</time>
      </trkpt>
      <trkpt lat="39.1399940" lon="-3.8856300">
        <ele>618.4</ele>
        <time>2019-08-12T06:30:41Z</time>
      </trkpt>
      <trkpt lat="39.1400460" lon="-3.8855790">
        <ele>618.4</ele>
        <time>2019-08-12T06:30:42Z</time>
      </trkpt>
      <trkpt lat="39.1400980" lon="-3.8855280">
        <ele>618.4</ele>
        <time>2019-08-12T06:30:43Z</time>
      </trkpt>
      <trkpt lat="39.1401500" lon="-3.8854760">
        <ele>618.4</ele>
        <time>2019-08-12T06:30:44Z</time>
      </trkpt>
      <trkpt lat="39.1402010" lon="-3.8854260">
        <ele>618.4</ele>
        <time>2019-08-12T06:30:45Z</time>
      </trkpt>
      <trkpt lat="39.1402520" lon="-3.8853750">
        <ele>618.4</ele>
        <time>2019-08-12T06:30:46Z</time>
      </trkpt>
      <trkpt lat="39.1403020" lon="-3.8853250">
        <ele>618.4</ele>
        <time>2019-08-12T06:30:47Z</time>
      </trkpt>
      <trkpt lat="39.1403530" lon="-3.8852750">
        <ele>618.4</ele>
        <time>2019-08-12T06:30:48Z</time>
      </trkpt>
      <trkpt lat="39.1404020" lon="-3.8852260">
        <ele>618.4</ele>
        <time>2019-08-12T06:30:49Z</time>
      </trkpt>
      <trkpt lat="39.1404510" lon="-3.8851770">
        <ele>618.4</ele>
        <time>2019-08-12T06:30:50Z</time>
      </trkpt>
      <trkpt lat="39.1404990" lon="-3.8851290">
        <ele>618.3</ele>
        <time>2019-08-12T06:30:51Z</time>
      </trkpt>
      <trkpt lat="39.1405470" lon="-3.8850810">
        <ele>618.3</ele>
        <time>2019-08-12T06:30:52Z</time>
      </trkpt>
      <trkpt lat="39.1405950" lon="-3.8850340">
        <ele>618.3</ele>
        <time>2019-08-12T06:30:53Z</time>
      </trkpt>
      <trkpt lat="39.1406420" lon="-3.8849870">
        <ele>618.3</ele>
        <time>2019-08-12T06:30:54Z</time>
      </trkpt>
      <trkpt lat="39.1406890" lon="-3.8849400">
        <ele>618.2</ele>
        <time>2019-08-12T06:30:55Z</time>
      </trkpt>
      <trkpt lat="39.1407350" lon="-3.8848940">
        <ele>618.2</ele>
        <time>2019-08-12T06:30:56Z</time>
      </trkpt>
      <trkpt lat="39.1407820" lon="-3.8848480">
        <ele>618.2</ele>
        <time>2019-08-12T06:30:57Z</time>
      </trkpt>
      <trkpt lat="39.1408280" lon="-3.8848020">
        <ele>618.2</ele>
        <time>2019-08-12T06:30:58Z</time>
      </trkpt>
      <trkpt lat="39.1408740" lon="-3.8847570">
        <ele>618.1</ele>
        <time>2019-08-12T06:30:59Z</time>
      </trkpt>
      <trkpt lat="39.1409200" lon="-3.8847110">
        <ele>618.1</ele>
        <time>2019-08-12T06:31:00Z</time>
      </trkpt>
      <trkpt lat="39.1409660" lon="-3.8846660">
        <ele>618.1</ele>
        <time>2019-08-12T06:31:01Z</time>
      </trkpt>
      <trkpt lat="39.1410120" lon="-3.8846210">
        <ele>618.1</ele>
        <time>2019-08-12T06:31:02Z</time>
      </trkpt>
      <trkpt lat="39.1410570" lon="-3.8845770">
        <ele>618.1</ele>
        <time>2019-08-12T06:31:03Z</time>
      </trkpt>
      <trkpt lat="39.1411020" lon="-3.8845320">
        <ele>618.0</ele>
        <time>2019-08-12T06:31:04Z</time>
      </trkpt>
      <trkpt lat="39.1411470" lon="-3.8844880">
        <ele>618.0</ele>
        <time>2019-08-12T06:31:05Z</time>
      </trkpt>
      <trkpt lat="39.1411910" lon="-3.8844430">
        <ele>618.0</ele>
        <time>2019-08-12T06:31:06Z</time>
      </trkpt>
      <trkpt lat="39.1412350" lon="-3.8843980">
        <ele>618.0</ele>
        <time>2019-08-12T06:31:07Z</time>
      </trkpt>
      <trkpt lat="39.1412780" lon="-3.8843540">
        <ele>618.0</ele>
        <time>2019-08-12T06:31:08Z</time>
      </trkpt>
      <trkpt lat="39.1413210" lon="-3.8843100">
        <ele>618.0</ele>
        <time>2019-08-12T06:31:09Z</time>
      </trkpt>
      <trkpt lat="39.1413630" lon="-3.8842680">
        <ele>618.0</ele>
        <time>2019-08-12T06:31:10Z</time>
      </trkpt>
      <trkpt lat="39.1414070" lon="-3.8842330">
        <ele>618.0</ele>
        <time>2019-08-12T06:31:11Z</time>
      </trkpt>
      <trkpt lat="39.1414520" lon="-3.8842070">
        <ele>618.0</ele>
        <time>2019-08-12T06:31:12Z</time>
      </trkpt>
      <trkpt lat="39.1415000" lon="-3.8841930">
        <ele>618.1</ele>
        <time>2019-08-12T06:31:13Z</time>
      </trkpt>
      <trkpt lat="39.1415510" lon="-3.8841950">
        <ele>618.2</ele>
        <time>2019-08-12T06:31:14Z</time>
      </trkpt>
      <trkpt lat="39.1415990" lon="-3.8842130">
        <ele>618.3</ele>
        <time>2019-08-12T06:31:15Z</time>
      </trkpt>
      <trkpt lat="39.1416430" lon="-3.8842440">
        <ele>618.3</ele>
        <time>2019-08-12T06:31:16Z</time>
      </trkpt>
      <trkpt lat="39.1416870" lon="-3.8842670">
        <ele>618.4</ele>
        <time>2019-08-12T06:31:17Z</time>
      </trkpt>
      <trkpt lat="39.1417350" lon="-3.8842610">
        <ele>618.5</ele>
        <time>2019-08-12T06:31:18Z</time>
      </trkpt>
      <trkpt lat="39.1417840" lon="-3.8842290">
        <ele>618.5</ele>
        <time>2019-08-12T06:31:19Z</time>
      </trkpt>
      <trkpt lat="39.1418300" lon="-3.8841820">
        <ele>618.5</ele>
        <time>2019-08-12T06:31:20Z</time>
      </trkpt>
      <trkpt lat="39.1418690" lon="-3.8841280">
        <ele>618.4</ele>
        <time>2019-08-12T06:31:21Z</time>
      </trkpt>
      <trkpt lat="39.1419060" lon="-3.8840730">
        <ele>618.4</ele>
        <time>2019-08-12T06:31:22Z</time>
      </trkpt>
      <trkpt lat="39.1419480" lon="-3.8840210">
        <ele>618.4</ele>
        <time>2019-08-12T06:31:23Z</time>
      </trkpt>
      <trkpt lat="39.1419950" lon="-3.8839720">
        <ele>618.3</ele>
        <time>2019-08-12T06:31:24Z</time>
      </trkpt>
      <trkpt lat="39.1420430" lon="-3.8839240">
        <ele>618.3</ele>
        <time>2019-08-12T06:31:25Z</time>
      </trkpt>
      <trkpt lat="39.1420920" lon="-3.8838760">
        <ele>618.2</ele>
        <time>2019-08-12T06:31:26Z</time>
      </trkpt>
      <trkpt lat="39.1421390" lon="-3.8838250">
        <ele>618.2</ele>
        <time>2019-08-12T06:31:27Z</time>
      </trkpt>
      <trkpt lat="39.1421850" lon="-3.8837730">
        <ele>618.1</ele>
        <time>2019-08-12T06:31:28Z</time>
      </trkpt>
      <trkpt lat="39.1422300" lon="-3.8837210">
        <ele>618.1</ele>
        <time>2019-08-12T06:31:29Z</time>
      </trkpt>
      <trkpt lat="39.1422760" lon="-3.8836690">
        <ele>618.0</ele>
        <time>2019-08-12T06:31:30Z</time>
      </trkpt>
      <trkpt lat="39.1423220" lon="-3.8836180">
        <ele>617.9</ele>
        <time>2019-08-12T06:31:31Z</time>
      </trkpt>
      <trkpt lat="39.1423700" lon="-3.8835700">
        <ele>617.9</ele>
        <time>2019-08-12T06:31:32Z</time>
      </trkpt>
      <trkpt lat="39.1424200" lon="-3.8835230">
        <ele>617.8</ele>
        <time>2019-08-12T06:31:33Z</time>
      </trkpt>
      <trkpt lat="39.1424940" lon="-3.8834550">
        <ele>617.7</ele>
        <time>2019-08-12T06:31:34Z</time>
      </trkpt>
      <trkpt lat="39.1425190" lon="-3.8834320">
        <ele>617.7</ele>
        <time>2019-08-12T06:31:35Z</time>
      </trkpt>
      <trkpt lat="39.1425680" lon="-3.8833860">
        <ele>617.7</ele>
        <time>2019-08-12T06:31:36Z</time>
      </trkpt>
      <trkpt lat="39.1426170" lon="-3.8833390">
        <ele>617.6</ele>
        <time>2019-08-12T06:31:37Z</time>
      </trkpt>
      <trkpt lat="39.1426650" lon="-3.8832910">
        <ele>617.6</ele>
        <time>2019-08-12T06:31:38Z</time>
      </trkpt>
      <trkpt lat="39.1427110" lon="-3.8832430">
        <ele>617.5</ele>
        <time>2019-08-12T06:31:39Z</time>
      </trkpt>
      <trkpt lat="39.1427570" lon="-3.8831940">
        <ele>617.6</ele>
        <time>2019-08-12T06:31:40Z</time>
      </trkpt>
      <trkpt lat="39.1428030" lon="-3.8831450">
        <ele>617.6</ele>
        <time>2019-08-12T06:31:41Z</time>
      </trkpt>
      <trkpt lat="39.1428470" lon="-3.8830960">
        <ele>617.6</ele>
        <time>2019-08-12T06:31:42Z</time>
      </trkpt>
      <trkpt lat="39.1428920" lon="-3.8830470">
        <ele>617.6</ele>
        <time>2019-08-12T06:31:43Z</time>
      </trkpt>
      <trkpt lat="39.1429350" lon="-3.8830000">
        <ele>617.6</ele>
        <time>2019-08-12T06:31:44Z</time>
      </trkpt>
      <trkpt lat="39.1429780" lon="-3.8829530">
        <ele>617.7</ele>
        <time>2019-08-12T06:31:45Z</time>
      </trkpt>
      <trkpt lat="39.1430210" lon="-3.8829070">
        <ele>617.7</ele>
        <time>2019-08-12T06:31:46Z</time>
      </trkpt>
      <trkpt lat="39.1430640" lon="-3.8828620">
        <ele>617.8</ele>
        <time>2019-08-12T06:31:47Z</time>
      </trkpt>
      <trkpt lat="39.1431060" lon="-3.8828180">
        <ele>617.8</ele>
        <time>2019-08-12T06:31:48Z</time>
      </trkpt>
      <trkpt lat="39.1431480" lon="-3.8827750">
        <ele>617.9</ele>
        <time>2019-08-12T06:31:49Z</time>
      </trkpt>
      <trkpt lat="39.1432160" lon="-3.8827060">
        <ele>618.1</ele>
        <time>2019-08-12T06:31:50Z</time>
      </trkpt>
      <trkpt lat="39.1432440" lon="-3.8826780">
        <ele>618.1</ele>
        <time>2019-08-12T06:31:51Z</time>
      </trkpt>
      <trkpt lat="39.1432710" lon="-3.8826510">
        <ele>618.2</ele>
        <time>2019-08-12T06:31:52Z</time>
      </trkpt>
      <trkpt lat="39.1433120" lon="-3.8826110">
        <ele>618.3</ele>
        <time>2019-08-12T06:31:53Z</time>
      </trkpt>
      <trkpt lat="39.1433520" lon="-3.8825710">
        <ele>618.4</ele>
        <time>2019-08-12T06:31:54Z</time>
      </trkpt>
      <trkpt lat="39.1434190" lon="-3.8825060">
        <ele>618.6</ele>
        <time>2019-08-12T06:31:55Z</time>
      </trkpt>
      <trkpt lat="39.1434460" lon="-3.8824810">
        <ele>618.7</ele>
        <time>2019-08-12T06:31:56Z</time>
      </trkpt>
      <trkpt lat="39.1434720" lon="-3.8824550">
        <ele>618.8</ele>
        <time>2019-08-12T06:31:57Z</time>
      </trkpt>
      <trkpt lat="39.1435120" lon="-3.8824170">
        <ele>618.9</ele>
        <time>2019-08-12T06:31:58Z</time>
      </trkpt>
      <trkpt lat="39.1435510" lon="-3.8823790">
        <ele>619.0</ele>
        <time>2019-08-12T06:31:59Z</time>
      </trkpt>
      <trkpt lat="39.1435910" lon="-3.8823410">
        <ele>619.2</ele>
        <time>2019-08-12T06:32:00Z</time>
      </trkpt>
      <trkpt lat="39.1436300" lon="-3.8823030">
        <ele>619.3</ele>
        <time>2019-08-12T06:32:01Z</time>
      </trkpt>
      <trkpt lat="39.1436690" lon="-3.8822650">
        <ele>619.4</ele>
        <time>2019-08-12T06:32:02Z</time>
      </trkpt>
      <trkpt lat="39.1437080" lon="-3.8822270">
        <ele>619.5</ele>
        <time>2019-08-12T06:32:03Z</time>
      </trkpt>
      <trkpt lat="39.1437470" lon="-3.8821880">
        <ele>619.6</ele>
        <time>2019-08-12T06:32:04Z</time>
      </trkpt>
      <trkpt lat="39.1437860" lon="-3.8821490">
        <ele>619.7</ele>
        <time>2019-08-12T06:32:05Z</time>
      </trkpt>
      <trkpt lat="39.1438250" lon="-3.8821100">
        <ele>619.8</ele>
        <time>2019-08-12T06:32:06Z</time>
      </trkpt>
      <trkpt lat="39.1438640" lon="-3.8820710">
        <ele>619.9</ele>
        <time>2019-08-12T06:32:07Z</time>
      </trkpt>
      <trkpt lat="39.1439030" lon="-3.8820320">
        <ele>620.0</ele>
        <time>2019-08-12T06:32:08Z</time>
      </trkpt>
      <trkpt lat="39.1439420" lon="-3.8819920">
        <ele>620.1</ele>
        <time>2019-08-12T06:32:09Z</time>
      </trkpt>
      <trkpt lat="39.1439810" lon="-3.8819520">
        <ele>620.2</ele>
        <time>2019-08-12T06:32:10Z</time>
      </trkpt>
      <trkpt lat="39.1440210" lon="-3.8819110">
        <ele>620.2</ele>
        <time>2019-08-12T06:32:11Z</time>
      </trkpt>
      <trkpt lat="39.1440610" lon="-3.8818700">
        <ele>620.3</ele>
        <time>2019-08-12T06:32:12Z</time>
      </trkpt>
      <trkpt lat="39.1441010" lon="-3.8818290">
        <ele>620.3</ele>
        <time>2019-08-12T06:32:13Z</time>
      </trkpt>
      <trkpt lat="39.1441420" lon="-3.8817880">
        <ele>620.4</ele>
        <time>2019-08-12T06:32:14Z</time>
      </trkpt>
      <trkpt lat="39.1441830" lon="-3.8817460">
        <ele>620.4</ele>
        <time>2019-08-12T06:32:15Z</time>
      </trkpt>
      <trkpt lat="39.1442250" lon="-3.8817040">
        <ele>620.4</ele>
        <time>2019-08-12T06:32:16Z</time>
      </trkpt>
      <trkpt lat="39.1442670" lon="-3.8816620">
        <ele>620.5</ele>
        <time>2019-08-12T06:32:17Z</time>
      </trkpt>
      <trkpt lat="39.1443080" lon="-3.8816210">
        <ele>620.5</ele>
        <time>2019-08-12T06:32:18Z</time>
      </trkpt>
      <trkpt lat="39.1443510" lon="-3.8815800">
        <ele>620.5</ele>
        <time>2019-08-12T06:32:19Z</time>
      </trkpt>
      <trkpt lat="39.1443930" lon="-3.8815400">
        <ele>620.5</ele>
        <time>2019-08-12T06:32:20Z</time>
      </trkpt>
      <trkpt lat="39.1444350" lon="-3.8815000">
        <ele>620.5</ele>
        <time>2019-08-12T06:32:21Z</time>
      </trkpt>
      <trkpt lat="39.1444780" lon="-3.8814610">
        <ele>620.5</ele>
        <time>2019-08-12T06:32:22Z</time>
      </trkpt>
      <trkpt lat="39.1445200" lon="-3.8814230">
        <ele>620.5</ele>
        <time>2019-08-12T06:32:23Z</time>
      </trkpt>
      <trkpt lat="39.1445620" lon="-3.8813850">
        <ele>620.5</ele>
        <time>2019-08-12T06:32:24Z</time>
      </trkpt>
      <trkpt lat="39.1446050" lon="-3.8813460">
        <ele>620.6</ele>
        <time>2019-08-12T06:32:25Z</time>
      </trkpt>
      <trkpt lat="39.1446480" lon="-3.8813060">
        <ele>620.6</ele>
        <time>2019-08-12T06:32:26Z</time>
      </trkpt>
      <trkpt lat="39.1446900" lon="-3.8812640">
        <ele>620.6</ele>
        <time>2019-08-12T06:32:27Z</time>
      </trkpt>
      <trkpt lat="39.1447340" lon="-3.8812190">
        <ele>620.6</ele>
        <time>2019-08-12T06:32:28Z</time>
      </trkpt>
      <trkpt lat="39.1447770" lon="-3.8811730">
        <ele>620.6</ele>
        <time>2019-08-12T06:32:29Z</time>
      </trkpt>
      <trkpt lat="39.1448200" lon="-3.8811250">
        <ele>620.6</ele>
        <time>2019-08-12T06:32:30Z</time>
      </trkpt>
      <trkpt lat="39.1448630" lon="-3.8810780">
        <ele>620.6</ele>
        <time>2019-08-12T06:32:31Z</time>
      </trkpt>
      <trkpt lat="39.1449050" lon="-3.8810320">
        <ele>620.6</ele>
        <time>2019-08-12T06:32:32Z</time>
      </trkpt>
      <trkpt lat="39.1449470" lon="-3.8809870">
        <ele>620.5</ele>
        <time>2019-08-12T06:32:33Z</time>
      </trkpt>
      <trkpt lat="39.1449890" lon="-3.8809440">
        <ele>620.5</ele>
        <time>2019-08-12T06:32:34Z</time>
      </trkpt>
      <trkpt lat="39.1450310" lon="-3.8809020">
        <ele>620.5</ele>
        <time>2019-08-12T06:32:35Z</time>
      </trkpt>
      <trkpt lat="39.1450720" lon="-3.8808600">
        <ele>620.5</ele>
        <time>2019-08-12T06:32:36Z</time>
      </trkpt>
      <trkpt lat="39.1451140" lon="-3.8808200">
        <ele>620.5</ele>
        <time>2019-08-12T06:32:37Z</time>
      </trkpt>
      <trkpt lat="39.1451570" lon="-3.8807800">
        <ele>620.4</ele>
        <time>2019-08-12T06:32:38Z</time>
      </trkpt>
      <trkpt lat="39.1452000" lon="-3.8807410">
        <ele>620.4</ele>
        <time>2019-08-12T06:32:39Z</time>
      </trkpt>
      <trkpt lat="39.1452430" lon="-3.8807020">
        <ele>620.3</ele>
        <time>2019-08-12T06:32:40Z</time>
      </trkpt>
      <trkpt lat="39.1452870" lon="-3.8806640">
        <ele>620.3</ele>
        <time>2019-08-12T06:32:41Z</time>
      </trkpt>
      <trkpt lat="39.1453320" lon="-3.8806260">
        <ele>620.3</ele>
        <time>2019-08-12T06:32:42Z</time>
      </trkpt>
      <trkpt lat="39.1453780" lon="-3.8805880">
        <ele>620.3</ele>
        <time>2019-08-12T06:32:43Z</time>
      </trkpt>
      <trkpt lat="39.1454230" lon="-3.8805490">
        <ele>620.2</ele>
        <time>2019-08-12T06:32:44Z</time>
      </trkpt>
      <trkpt lat="39.1454690" lon="-3.8805110">
        <ele>620.2</ele>
        <time>2019-08-12T06:32:45Z</time>
      </trkpt>
      <trkpt lat="39.1455160" lon="-3.8804710">
        <ele>620.2</ele>
        <time>2019-08-12T06:32:46Z</time>
      </trkpt>
      <trkpt lat="39.1455620" lon="-3.8804310">
        <ele>620.2</ele>
        <time>2019-08-12T06:32:47Z</time>
      </trkpt>
      <trkpt lat="39.1456080" lon="-3.8803890">
        <ele>620.2</ele>
        <time>2019-08-12T06:32:48Z</time>
      </trkpt>
      <trkpt lat="39.1456530" lon="-3.8803470">
        <ele>620.2</ele>
        <time>2019-08-12T06:32:49Z</time>
      </trkpt>
      <trkpt lat="39.1456980" lon="-3.8803020">
        <ele>620.2</ele>
        <time>2019-08-12T06:32:50Z</time>
      </trkpt>
      <trkpt lat="39.1457430" lon="-3.8802570">
        <ele>620.2</ele>
        <time>2019-08-12T06:32:51Z</time>
      </trkpt>
      <trkpt lat="39.1457870" lon="-3.8802100">
        <ele>620.2</ele>
        <time>2019-08-12T06:32:52Z</time>
      </trkpt>
      <trkpt lat="39.1458310" lon="-3.8801630">
        <ele>620.2</ele>
        <time>2019-08-12T06:32:53Z</time>
      </trkpt>
      <trkpt lat="39.1458750" lon="-3.8801160">
        <ele>620.2</ele>
        <time>2019-08-12T06:32:54Z</time>
      </trkpt>
      <trkpt lat="39.1459180" lon="-3.8800690">
        <ele>620.2</ele>
        <time>2019-08-12T06:32:55Z</time>
      </trkpt>
      <trkpt lat="39.1459610" lon="-3.8800230">
        <ele>620.2</ele>
        <time>2019-08-12T06:32:56Z</time>
      </trkpt>
      <trkpt lat="39.1460040" lon="-3.8799780">
        <ele>620.2</ele>
        <time>2019-08-12T06:32:57Z</time>
      </trkpt>
      <trkpt lat="39.1460460" lon="-3.8799340">
        <ele>620.2</ele>
        <time>2019-08-12T06:32:58Z</time>
      </trkpt>
      <trkpt lat="39.1460890" lon="-3.8798910">
        <ele>620.2</ele>
        <time>2019-08-12T06:32:59Z</time>
      </trkpt>
      <trkpt lat="39.1461310" lon="-3.8798500">
        <ele>620.2</ele>
        <time>2019-08-12T06:33:00Z</time>
      </trkpt>
      <trkpt lat="39.1461730" lon="-3.8798100">
        <ele>620.3</ele>
        <time>2019-08-12T06:33:01Z</time>
      </trkpt>
      <trkpt lat="39.1462140" lon="-3.8797700">
        <ele>620.3</ele>
        <time>2019-08-12T06:33:02Z</time>
      </trkpt>
      <trkpt lat="39.1462560" lon="-3.8797320">
        <ele>620.4</ele>
        <time>2019-08-12T06:33:03Z</time>
      </trkpt>
      <trkpt lat="39.1462970" lon="-3.8796940">
        <ele>620.5</ele>
        <time>2019-08-12T06:33:04Z</time>
      </trkpt>
      <trkpt lat="39.1463390" lon="-3.8796560">
        <ele>620.7</ele>
        <time>2019-08-12T06:33:05Z</time>
      </trkpt>
      <trkpt lat="39.1463800" lon="-3.8796180">
        <ele>620.8</ele>
        <time>2019-08-12T06:33:06Z</time>
      </trkpt>
      <trkpt lat="39.1464220" lon="-3.8795790">
        <ele>620.9</ele>
        <time>2019-08-12T06:33:07Z</time>
      </trkpt>
      <trkpt lat="39.1464630" lon="-3.8795410">
        <ele>620.9</ele>
        <time>2019-08-12T06:33:08Z</time>
      </trkpt>
      <trkpt lat="39.1465040" lon="-3.8795020">
        <ele>621.0</ele>
        <time>2019-08-12T06:33:09Z</time>
      </trkpt>
      <trkpt lat="39.1465460" lon="-3.8794630">
        <ele>621.0</ele>
        <time>2019-08-12T06:33:10Z</time>
      </trkpt>
      <trkpt lat="39.1465870" lon="-3.8794230">
        <ele>621.1</ele>
        <time>2019-08-12T06:33:11Z</time>
      </trkpt>
      <trkpt lat="39.1466290" lon="-3.8793840">
        <ele>621.1</ele>
        <time>2019-08-12T06:33:12Z</time>
      </trkpt>
      <trkpt lat="39.1466700" lon="-3.8793460">
        <ele>621.1</ele>
        <time>2019-08-12T06:33:13Z</time>
      </trkpt>
      <trkpt lat="39.1467120" lon="-3.8793080">
        <ele>621.1</ele>
        <time>2019-08-12T06:33:14Z</time>
      </trkpt>
      <trkpt lat="39.1467540" lon="-3.8792710">
        <ele>621.1</ele>
        <time>2019-08-12T06:33:15Z</time>
      </trkpt>
      <trkpt lat="39.1467950" lon="-3.8792350">
        <ele>621.1</ele>
        <time>2019-08-12T06:33:16Z</time>
      </trkpt>
      <trkpt lat="39.1468370" lon="-3.8791990">
        <ele>621.1</ele>
        <time>2019-08-12T06:33:17Z</time>
      </trkpt>
      <trkpt lat="39.1468790" lon="-3.8791650">
        <ele>621.2</ele>
        <time>2019-08-12T06:33:18Z</time>
      </trkpt>
      <trkpt lat="39.1469210" lon="-3.8791290">
        <ele>621.3</ele>
        <time>2019-08-12T06:33:19Z</time>
      </trkpt>
      <trkpt lat="39.1469630" lon="-3.8790930">
        <ele>621.4</ele>
        <time>2019-08-12T06:33:20Z</time>
      </trkpt>
      <trkpt lat="39.1470040" lon="-3.8790550">
        <ele>621.5</ele>
        <time>2019-08-12T06:33:21Z</time>
      </trkpt>
      <trkpt lat="39.1470450" lon="-3.8790150">
        <ele>621.6</ele>
        <time>2019-08-12T06:33:22Z</time>
      </trkpt>
      <trkpt lat="39.1470860" lon="-3.8789730">
        <ele>621.7</ele>
        <time>2019-08-12T06:33:23Z</time>
      </trkpt>
      <trkpt lat="39.1471270" lon="-3.8789310">
        <ele>621.8</ele>
        <time>2019-08-12T06:33:24Z</time>
      </trkpt>
      <trkpt lat="39.1471680" lon="-3.8788890">
        <ele>621.9</ele>
        <time>2019-08-12T06:33:25Z</time>
      </trkpt>
      <trkpt lat="39.1472090" lon="-3.8788480">
        <ele>621.9</ele>
        <time>2019-08-12T06:33:26Z</time>
      </trkpt>
      <trkpt lat="39.1472510" lon="-3.8788100">
        <ele>622.0</ele>
        <time>2019-08-12T06:33:27Z</time>
      </trkpt>
      <trkpt lat="39.1472930" lon="-3.8787720">
        <ele>622.0</ele>
        <time>2019-08-12T06:33:28Z</time>
      </trkpt>
      <trkpt lat="39.1473340" lon="-3.8787360">
        <ele>622.0</ele>
        <time>2019-08-12T06:33:29Z</time>
      </trkpt>
      <trkpt lat="39.1473760" lon="-3.8787000">
        <ele>622.0</ele>
        <time>2019-08-12T06:33:30Z</time>
      </trkpt>
      <trkpt lat="39.1474170" lon="-3.8786650">
        <ele>622.0</ele>
        <time>2019-08-12T06:33:31Z</time>
      </trkpt>
      <trkpt lat="39.1474580" lon="-3.8786280">
        <ele>622.0</ele>
        <time>2019-08-12T06:33:32Z</time>
      </trkpt>
      <trkpt lat="39.1474980" lon="-3.8785900">
        <ele>622.0</ele>
        <time>2019-08-12T06:33:33Z</time>
      </trkpt>
      <trkpt lat="39.1475380" lon="-3.8785500">
        <ele>622.0</ele>
        <time>2019-08-12T06:33:34Z</time>
      </trkpt>
      <trkpt lat="39.1475770" lon="-3.8785070">
        <ele>622.0</ele>
        <time>2019-08-12T06:33:35Z</time>
      </trkpt>
      <trkpt lat="39.1476140" lon="-3.8784620">
        <ele>622.0</ele>
        <time>2019-08-12T06:33:36Z</time>
      </trkpt>
      <trkpt lat="39.1476510" lon="-3.8784140">
        <ele>622.0</ele>
        <time>2019-08-12T06:33:37Z</time>
      </trkpt>
      <trkpt lat="39.1476880" lon="-3.8783640">
        <ele>622.0</ele>
        <time>2019-08-12T06:33:38Z</time>
      </trkpt>
      <trkpt lat="39.1477250" lon="-3.8783140">
        <ele>621.9</ele>
        <time>2019-08-12T06:33:39Z</time>
      </trkpt>
      <trkpt lat="39.1477630" lon="-3.8782640">
        <ele>621.9</ele>
        <time>2019-08-12T06:33:40Z</time>
      </trkpt>
      <trkpt lat="39.1478010" lon="-3.8782150">
        <ele>621.9</ele>
        <time>2019-08-12T06:33:41Z</time>
      </trkpt>
      <trkpt lat="39.1478400" lon="-3.8781670">
        <ele>621.9</ele>
        <time>2019-08-12T06:33:42Z</time>
      </trkpt>
      <trkpt lat="39.1478800" lon="-3.8781200">
        <ele>621.9</ele>
        <time>2019-08-12T06:33:43Z</time>
      </trkpt>
      <trkpt lat="39.1479220" lon="-3.8780740">
        <ele>621.9</ele>
        <time>2019-08-12T06:33:44Z</time>
      </trkpt>
      <trkpt lat="39.1479640" lon="-3.8780300">
        <ele>621.8</ele>
        <time>2019-08-12T06:33:45Z</time>
      </trkpt>
      <trkpt lat="39.1480080" lon="-3.8779860">
        <ele>621.7</ele>
        <time>2019-08-12T06:33:46Z</time>
      </trkpt>
      <trkpt lat="39.1480530" lon="-3.8779430">
        <ele>621.6</ele>
        <time>2019-08-12T06:33:47Z</time>
      </trkpt>
      <trkpt lat="39.1480990" lon="-3.8779010">
        <ele>621.5</ele>
        <time>2019-08-12T06:33:48Z</time>
      </trkpt>
      <trkpt lat="39.1481460" lon="-3.8778590">
        <ele>621.4</ele>
        <time>2019-08-12T06:33:49Z</time>
      </trkpt>
      <trkpt lat="39.1481930" lon="-3.8778170">
        <ele>621.3</ele>
        <time>2019-08-12T06:33:50Z</time>
      </trkpt>
      <trkpt lat="39.1482400" lon="-3.8777750">
        <ele>621.2</ele>
        <time>2019-08-12T06:33:51Z</time>
      </trkpt>
      <trkpt lat="39.1482880" lon="-3.8777330">
        <ele>621.1</ele>
        <time>2019-08-12T06:33:52Z</time>
      </trkpt>
      <trkpt lat="39.1483350" lon="-3.8776900">
        <ele>621.1</ele>
        <time>2019-08-12T06:33:53Z</time>
      </trkpt>
      <trkpt lat="39.1483830" lon="-3.8776460">
        <ele>621.2</ele>
        <time>2019-08-12T06:33:54Z</time>
      </trkpt>
      <trkpt lat="39.1484300" lon="-3.8776010">
        <ele>621.3</ele>
        <time>2019-08-12T06:33:55Z</time>
      </trkpt>
      <trkpt lat="39.1484770" lon="-3.8775560">
        <ele>621.5</ele>
        <time>2019-08-12T06:33:56Z</time>
      </trkpt>
      <trkpt lat="39.1485240" lon="-3.8775110">
        <ele>621.6</ele>
        <time>2019-08-12T06:33:57Z</time>
      </trkpt>
      <trkpt lat="39.1485700" lon="-3.8774660">
        <ele>621.7</ele>
        <time>2019-08-12T06:33:58Z</time>
      </trkpt>
      <trkpt lat="39.1486170" lon="-3.8774200">
        <ele>621.7</ele>
        <time>2019-08-12T06:33:59Z</time>
      </trkpt>
      <trkpt lat="39.1486630" lon="-3.8773750">
        <ele>621.8</ele>
        <time>2019-08-12T06:34:00Z</time>
      </trkpt>
      <trkpt lat="39.1487080" lon="-3.8773300">
        <ele>621.8</ele>
        <time>2019-08-12T06:34:01Z</time>
      </trkpt>
      <trkpt lat="39.1487540" lon="-3.8772850">
        <ele>621.8</ele>
        <time>2019-08-12T06:34:02Z</time>
      </trkpt>
      <trkpt lat="39.1487990" lon="-3.8772420">
        <ele>621.8</ele>
        <time>2019-08-12T06:34:03Z</time>
      </trkpt>
      <trkpt lat="39.1488440" lon="-3.8771990">
        <ele>621.8</ele>
        <time>2019-08-12T06:34:04Z</time>
      </trkpt>
      <trkpt lat="39.1488880" lon="-3.8771570">
        <ele>621.8</ele>
        <time>2019-08-12T06:34:05Z</time>
      </trkpt>
      <trkpt lat="39.1489330" lon="-3.8771160">
        <ele>621.8</ele>
        <time>2019-08-12T06:34:06Z</time>
      </trkpt>
      <trkpt lat="39.1489770" lon="-3.8770750">
        <ele>621.8</ele>
        <time>2019-08-12T06:34:07Z</time>
      </trkpt>
      <trkpt lat="39.1490210" lon="-3.8770340">
        <ele>621.8</ele>
        <time>2019-08-12T06:34:08Z</time>
      </trkpt>
      <trkpt lat="39.1490660" lon="-3.8769930">
        <ele>621.8</ele>
        <time>2019-08-12T06:34:09Z</time>
      </trkpt>
      <trkpt lat="39.1491100" lon="-3.8769520">
        <ele>621.8</ele>
        <time>2019-08-12T06:34:10Z</time>
      </trkpt>
      <trkpt lat="39.1491550" lon="-3.8769110">
        <ele>621.8</ele>
        <time>2019-08-12T06:34:11Z</time>
      </trkpt>
      <trkpt lat="39.1491990" lon="-3.8768700">
        <ele>621.8</ele>
        <time>2019-08-12T06:34:12Z</time>
      </trkpt>
      <trkpt lat="39.1492450" lon="-3.8768280">
        <ele>621.8</ele>
        <time>2019-08-12T06:34:13Z</time>
      </trkpt>
      <trkpt lat="39.1492900" lon="-3.8767850">
        <ele>621.7</ele>
        <time>2019-08-12T06:34:14Z</time>
      </trkpt>
      <trkpt lat="39.1493360" lon="-3.8767420">
        <ele>621.7</ele>
        <time>2019-08-12T06:34:15Z</time>
      </trkpt>
      <trkpt lat="39.1493820" lon="-3.8766980">
        <ele>621.7</ele>
        <time>2019-08-12T06:34:16Z</time>
      </trkpt>
      <trkpt lat="39.1494280" lon="-3.8766530">
        <ele>621.7</ele>
        <time>2019-08-12T06:34:17Z</time>
      </trkpt>
      <trkpt lat="39.1494740" lon="-3.8766080">
        <ele>621.7</ele>
        <time>2019-08-12T06:34:18Z</time>
      </trkpt>
      <trkpt lat="39.1495200" lon="-3.8765620">
        <ele>621.8</ele>
        <time>2019-08-12T06:34:19Z</time>
      </trkpt>
      <trkpt lat="39.1495650" lon="-3.8765150">
        <ele>621.8</ele>
        <time>2019-08-12T06:34:20Z</time>
      </trkpt>
      <trkpt lat="39.1496110" lon="-3.8764680">
        <ele>621.8</ele>
        <time>2019-08-12T06:34:21Z</time>
      </trkpt>
      <trkpt lat="39.1496560" lon="-3.8764200">
        <ele>621.9</ele>
        <time>2019-08-12T06:34:22Z</time>
      </trkpt>
      <trkpt lat="39.1497020" lon="-3.8763720">
        <ele>622.0</ele>
        <time>2019-08-12T06:34:23Z</time>
      </trkpt>
      <trkpt lat="39.1497470" lon="-3.8763230">
        <ele>622.1</ele>
        <time>2019-08-12T06:34:24Z</time>
      </trkpt>
      <trkpt lat="39.1497920" lon="-3.8762730">
        <ele>622.3</ele>
        <time>2019-08-12T06:34:25Z</time>
      </trkpt>
      <trkpt lat="39.1498370" lon="-3.8762240">
        <ele>622.4</ele>
        <time>2019-08-12T06:34:26Z</time>
      </trkpt>
      <trkpt lat="39.1498820" lon="-3.8761750">
        <ele>622.6</ele>
        <time>2019-08-12T06:34:27Z</time>
      </trkpt>
      <trkpt lat="39.1499270" lon="-3.8761250">
        <ele>622.7</ele>
        <time>2019-08-12T06:34:28Z</time>
      </trkpt>
      <trkpt lat="39.1499720" lon="-3.8760760">
        <ele>622.8</ele>
        <time>2019-08-12T06:34:29Z</time>
      </trkpt>
      <trkpt lat="39.1500180" lon="-3.8760270">
        <ele>623.0</ele>
        <time>2019-08-12T06:34:30Z</time>
      </trkpt>
      <trkpt lat="39.1500630" lon="-3.8759780">
        <ele>623.1</ele>
        <time>2019-08-12T06:34:31Z</time>
      </trkpt>
      <trkpt lat="39.1501090" lon="-3.8759300">
        <ele>623.3</ele>
        <time>2019-08-12T06:34:32Z</time>
      </trkpt>
      <trkpt lat="39.1501550" lon="-3.8758830">
        <ele>623.4</ele>
        <time>2019-08-12T06:34:33Z</time>
      </trkpt>
      <trkpt lat="39.1502010" lon="-3.8758350">
        <ele>623.5</ele>
        <time>2019-08-12T06:34:34Z</time>
      </trkpt>
      <trkpt lat="39.1502460" lon="-3.8757880">
        <ele>623.5</ele>
        <time>2019-08-12T06:34:35Z</time>
      </trkpt>
      <trkpt lat="39.1502910" lon="-3.8757410">
        <ele>623.6</ele>
        <time>2019-08-12T06:34:36Z</time>
      </trkpt>
      <trkpt lat="39.1503360" lon="-3.8756940">
        <ele>623.6</ele>
        <time>2019-08-12T06:34:37Z</time>
      </trkpt>
      <trkpt lat="39.1503800" lon="-3.8756470">
        <ele>623.6</ele>
        <time>2019-08-12T06:34:38Z</time>
      </trkpt>
      <trkpt lat="39.1504230" lon="-3.8756000">
        <ele>623.6</ele>
        <time>2019-08-12T06:34:39Z</time>
      </trkpt>
      <trkpt lat="39.1504660" lon="-3.8755530">
        <ele>623.6</ele>
        <time>2019-08-12T06:34:40Z</time>
      </trkpt>
      <trkpt lat="39.1505070" lon="-3.8755070">
        <ele>623.6</ele>
        <time>2019-08-12T06:34:41Z</time>
      </trkpt>
      <trkpt lat="39.1505480" lon="-3.8754600">
        <ele>623.6</ele>
        <time>2019-08-12T06:34:42Z</time>
      </trkpt>
      <trkpt lat="39.1505880" lon="-3.8754130">
        <ele>623.6</ele>
        <time>2019-08-12T06:34:43Z</time>
      </trkpt>
      <trkpt lat="39.1506270" lon="-3.8753650">
        <ele>623.6</ele>
        <time>2019-08-12T06:34:44Z</time>
      </trkpt>
      <trkpt lat="39.1506670" lon="-3.8753180">
        <ele>623.6</ele>
        <time>2019-08-12T06:34:45Z</time>
      </trkpt>
      <trkpt lat="39.1507060" lon="-3.8752710">
        <ele>623.6</ele>
        <time>2019-08-12T06:34:46Z</time>
      </trkpt>
      <trkpt lat="39.1507460" lon="-3.8752230">
        <ele>623.6</ele>
        <time>2019-08-12T06:34:47Z</time>
      </trkpt>
      <trkpt lat="39.1507850" lon="-3.8751750">
        <ele>623.6</ele>
        <time>2019-08-12T06:34:48Z</time>
      </trkpt>
      <trkpt lat="39.1508250" lon="-3.8751260">
        <ele>623.6</ele>
        <time>2019-08-12T06:34:49Z</time>
      </trkpt>
      <trkpt lat="39.1508660" lon="-3.8750770">
        <ele>623.7</ele>
        <time>2019-08-12T06:34:50Z</time>
      </trkpt>
      <trkpt lat="39.1509070" lon="-3.8750280">
        <ele>623.8</ele>
        <time>2019-08-12T06:34:51Z</time>
      </trkpt>
      <trkpt lat="39.1509470" lon="-3.8749770">
        <ele>623.9</ele>
        <time>2019-08-12T06:34:52Z</time>
      </trkpt>
      <trkpt lat="39.1509850" lon="-3.8749250">
        <ele>624.0</ele>
        <time>2019-08-12T06:34:53Z</time>
      </trkpt>
      <trkpt lat="39.1510220" lon="-3.8748700">
        <ele>624.1</ele>
        <time>2019-08-12T06:34:54Z</time>
      </trkpt>
      <trkpt lat="39.1510570" lon="-3.8748140">
        <ele>624.3</ele>
        <time>2019-08-12T06:34:55Z</time>
      </trkpt>
      <trkpt lat="39.1510900" lon="-3.8747570">
        <ele>624.4</ele>
        <time>2019-08-12T06:34:56Z</time>
      </trkpt>
      <trkpt lat="39.1511210" lon="-3.8747000">
        <ele>624.4</ele>
        <time>2019-08-12T06:34:57Z</time>
      </trkpt>
      <trkpt lat="39.1511510" lon="-3.8746450">
        <ele>624.5</ele>
        <time>2019-08-12T06:34:58Z</time>
      </trkpt>
      <trkpt lat="39.1511820" lon="-3.8745920">
        <ele>624.5</ele>
        <time>2019-08-12T06:34:59Z</time>
      </trkpt>
      <trkpt lat="39.1512110" lon="-3.8745410">
        <ele>624.5</ele>
        <time>2019-08-12T06:35:00Z</time>
      </trkpt>
      <trkpt lat="39.1512390" lon="-3.8744910">
        <ele>624.5</ele>
        <time>2019-08-12T06:35:01Z</time>
      </trkpt>
      <trkpt lat="39.1512660" lon="-3.8744410">
        <ele>624.5</ele>
        <time>2019-08-12T06:35:02Z</time>
      </trkpt>
      <trkpt lat="39.1512900" lon="-3.8743910">
        <ele>624.5</ele>
        <time>2019-08-12T06:35:03Z</time>
      </trkpt>
      <trkpt lat="39.1513120" lon="-3.8743390">
        <ele>624.5</ele>
        <time>2019-08-12T06:35:04Z</time>
      </trkpt>
      <trkpt lat="39.1513320" lon="-3.8742870">
        <ele>624.5</ele>
        <time>2019-08-12T06:35:05Z</time>
      </trkpt>
      <trkpt lat="39.1513550" lon="-3.8742340">
        <ele>624.5</ele>
        <time>2019-08-12T06:35:06Z</time>
      </trkpt>
      <trkpt lat="39.1513800" lon="-3.8741820">
        <ele>624.5</ele>
        <time>2019-08-12T06:35:07Z</time>
      </trkpt>
      <trkpt lat="39.1514100" lon="-3.8741310">
        <ele>624.4</ele>
        <time>2019-08-12T06:35:08Z</time>
      </trkpt>
      <trkpt lat="39.1514450" lon="-3.8740810">
        <ele>624.3</ele>
        <time>2019-08-12T06:35:09Z</time>
      </trkpt>
      <trkpt lat="39.1514820" lon="-3.8740310">
        <ele>624.3</ele>
        <time>2019-08-12T06:35:10Z</time>
      </trkpt>
      <trkpt lat="39.1515220" lon="-3.8739800">
        <ele>624.2</ele>
        <time>2019-08-12T06:35:11Z</time>
      </trkpt>
      <trkpt lat="39.1515640" lon="-3.8739280">
        <ele>624.1</ele>
        <time>2019-08-12T06:35:12Z</time>
      </trkpt>
      <trkpt lat="39.1516060" lon="-3.8738760">
        <ele>623.9</ele>
        <time>2019-08-12T06:35:13Z</time>
      </trkpt>
      <trkpt lat="39.1516480" lon="-3.8738210">
        <ele>623.8</ele>
        <time>2019-08-12T06:35:14Z</time>
      </trkpt>
      <trkpt lat="39.1516920" lon="-3.8737660">
        <ele>623.6</ele>
        <time>2019-08-12T06:35:15Z</time>
      </trkpt>
      <trkpt lat="39.1517360" lon="-3.8737090">
        <ele>623.4</ele>
        <time>2019-08-12T06:35:16Z</time>
      </trkpt>
      <trkpt lat="39.1517820" lon="-3.8736500">
        <ele>623.2</ele>
        <time>2019-08-12T06:35:17Z</time>
      </trkpt>
      <trkpt lat="39.1518300" lon="-3.8735900">
        <ele>623.0</ele>
        <time>2019-08-12T06:35:18Z</time>
      </trkpt>
      <trkpt lat="39.1518780" lon="-3.8735280">
        <ele>622.7</ele>
        <time>2019-08-12T06:35:19Z</time>
      </trkpt>
      <trkpt lat="39.1519280" lon="-3.8734650">
        <ele>622.4</ele>
        <time>2019-08-12T06:35:20Z</time>
      </trkpt>
      <trkpt lat="39.1519790" lon="-3.8734010">
        <ele>622.2</ele>
        <time>2019-08-12T06:35:21Z</time>
      </trkpt>
      <trkpt lat="39.1520310" lon="-3.8733360">
        <ele>621.9</ele>
        <time>2019-08-12T06:35:22Z</time>
      </trkpt>
      <trkpt lat="39.1520830" lon="-3.8732710">
        <ele>621.7</ele>
        <time>2019-08-12T06:35:23Z</time>
      </trkpt>
      <trkpt lat="39.1521360" lon="-3.8732050">
        <ele>621.5</ele>
        <time>2019-08-12T06:35:24Z</time>
      </trkpt>
      <trkpt lat="39.1521890" lon="-3.8731390">
        <ele>621.5</ele>
        <time>2019-08-12T06:35:25Z</time>
      </trkpt>
      <trkpt lat="39.1522420" lon="-3.8730730">
        <ele>621.5</ele>
        <time>2019-08-12T06:35:26Z</time>
      </trkpt>
      <trkpt lat="39.1522950" lon="-3.8730070">
        <ele>621.5</ele>
        <time>2019-08-12T06:35:27Z</time>
      </trkpt>
      <trkpt lat="39.1523480" lon="-3.8729410">
        <ele>621.4</ele>
        <time>2019-08-12T06:35:28Z</time>
      </trkpt>
      <trkpt lat="39.1524010" lon="-3.8728750">
        <ele>621.4</ele>
        <time>2019-08-12T06:35:29Z</time>
      </trkpt>
      <trkpt lat="39.1524530" lon="-3.8728090">
        <ele>621.3</ele>
        <time>2019-08-12T06:35:30Z</time>
      </trkpt>
      <trkpt lat="39.1525060" lon="-3.8727430">
        <ele>621.2</ele>
        <time>2019-08-12T06:35:31Z</time>
      </trkpt>
      <trkpt lat="39.1525590" lon="-3.8726770">
        <ele>621.1</ele>
        <time>2019-08-12T06:35:32Z</time>
      </trkpt>
      <trkpt lat="39.1526120" lon="-3.8726110">
        <ele>621.0</ele>
        <time>2019-08-12T06:35:33Z</time>
      </trkpt>
      <trkpt lat="39.1526650" lon="-3.8725440">
        <ele>620.8</ele>
        <time>2019-08-12T06:35:34Z</time>
      </trkpt>
      <trkpt lat="39.1527180" lon="-3.8724770">
        <ele>620.7</ele>
        <time>2019-08-12T06:35:35Z</time>
      </trkpt>
      <trkpt lat="39.1527720" lon="-3.8724100">
        <ele>620.6</ele>
        <time>2019-08-12T06:35:36Z</time>
      </trkpt>
      <trkpt lat="39.1528260" lon="-3.8723430">
        <ele>620.4</ele>
        <time>2019-08-12T06:35:37Z</time>
      </trkpt>
      <trkpt lat="39.1528800" lon="-3.8722750">
        <ele>620.3</ele>
        <time>2019-08-12T06:35:38Z</time>
      </trkpt>
      <trkpt lat="39.1529330" lon="-3.8722080">
        <ele>620.2</ele>
        <time>2019-08-12T06:35:39Z</time>
      </trkpt>
      <trkpt lat="39.1529870" lon="-3.8721400">
        <ele>620.1</ele>
        <time>2019-08-12T06:35:40Z</time>
      </trkpt>
      <trkpt lat="39.1530400" lon="-3.8720730">
        <ele>620.1</ele>
        <time>2019-08-12T06:35:41Z</time>
      </trkpt>
      <trkpt lat="39.1530920" lon="-3.8720070">
        <ele>620.2</ele>
        <time>2019-08-12T06:35:42Z</time>
      </trkpt>
      <trkpt lat="39.1531430" lon="-3.8719410">
        <ele>620.2</ele>
        <time>2019-08-12T06:35:43Z</time>
      </trkpt>
      <trkpt lat="39.1531940" lon="-3.8718760">
        <ele>620.3</ele>
        <time>2019-08-12T06:35:44Z</time>
      </trkpt>
      <trkpt lat="39.1532430" lon="-3.8718110">
        <ele>620.3</ele>
        <time>2019-08-12T06:35:45Z</time>
      </trkpt>
      <trkpt lat="39.1532910" lon="-3.8717480">
        <ele>620.4</ele>
        <time>2019-08-12T06:35:46Z</time>
      </trkpt>
      <trkpt lat="39.1533390" lon="-3.8716850">
        <ele>620.4</ele>
        <time>2019-08-12T06:35:47Z</time>
      </trkpt>
      <trkpt lat="39.1533860" lon="-3.8716230">
        <ele>620.4</ele>
        <time>2019-08-12T06:35:48Z</time>
      </trkpt>
      <trkpt lat="39.1534320" lon="-3.8715620">
        <ele>620.5</ele>
        <time>2019-08-12T06:35:49Z</time>
      </trkpt>
      <trkpt lat="39.1534780" lon="-3.8715020">
        <ele>620.5</ele>
        <time>2019-08-12T06:35:50Z</time>
      </trkpt>
      <trkpt lat="39.1535230" lon="-3.8714420">
        <ele>620.5</ele>
        <time>2019-08-12T06:35:51Z</time>
      </trkpt>
      <trkpt lat="39.1535680" lon="-3.8713830">
        <ele>620.5</ele>
        <time>2019-08-12T06:35:52Z</time>
      </trkpt>
      <trkpt lat="39.1536130" lon="-3.8713250">
        <ele>620.4</ele>
        <time>2019-08-12T06:35:53Z</time>
      </trkpt>
      <trkpt lat="39.1536580" lon="-3.8712670">
        <ele>620.4</ele>
        <time>2019-08-12T06:35:54Z</time>
      </trkpt>
      <trkpt lat="39.1537030" lon="-3.8712090">
        <ele>620.4</ele>
        <time>2019-08-12T06:35:55Z</time>
      </trkpt>
      <trkpt lat="39.1537480" lon="-3.8711520">
        <ele>620.4</ele>
        <time>2019-08-12T06:35:56Z</time>
      </trkpt>
      <trkpt lat="39.1537930" lon="-3.8710960">
        <ele>620.5</ele>
        <time>2019-08-12T06:35:57Z</time>
      </trkpt>
      <trkpt lat="39.1538390" lon="-3.8710390">
        <ele>620.5</ele>
        <time>2019-08-12T06:35:58Z</time>
      </trkpt>
      <trkpt lat="39.1538840" lon="-3.8709830">
        <ele>620.5</ele>
        <time>2019-08-12T06:35:59Z</time>
      </trkpt>
      <trkpt lat="39.1539290" lon="-3.8709260">
        <ele>620.5</ele>
        <time>2019-08-12T06:36:00Z</time>
      </trkpt>
      <trkpt lat="39.1539750" lon="-3.8708700">
        <ele>620.6</ele>
        <time>2019-08-12T06:36:01Z</time>
      </trkpt>
      <trkpt lat="39.1540200" lon="-3.8708130">
        <ele>620.6</ele>
        <time>2019-08-12T06:36:02Z</time>
      </trkpt>
      <trkpt lat="39.1540650" lon="-3.8707550">
        <ele>620.6</ele>
        <time>2019-08-12T06:36:03Z</time>
      </trkpt>
      <trkpt lat="39.1541110" lon="-3.8706970">
        <ele>620.6</ele>
        <time>2019-08-12T06:36:04Z</time>
      </trkpt>
      <trkpt lat="39.1541560" lon="-3.8706390">
        <ele>620.7</ele>
        <time>2019-08-12T06:36:05Z</time>
      </trkpt>
      <trkpt lat="39.1542020" lon="-3.8705810">
        <ele>620.7</ele>
        <time>2019-08-12T06:36:06Z</time>
      </trkpt>
      <trkpt lat="39.1542480" lon="-3.8705230">
        <ele>620.8</ele>
        <time>2019-08-12T06:36:07Z</time>
      </trkpt>
      <trkpt lat="39.1542950" lon="-3.8704650">
        <ele>620.9</ele>
        <time>2019-08-12T06:36:08Z</time>
      </trkpt>
      <trkpt lat="39.1543420" lon="-3.8704080">
        <ele>620.9</ele>
        <time>2019-08-12T06:36:09Z</time>
      </trkpt>
      <trkpt lat="39.1543910" lon="-3.8703520">
        <ele>621.0</ele>
        <time>2019-08-12T06:36:10Z</time>
      </trkpt>
      <trkpt lat="39.1544390" lon="-3.8702960">
        <ele>621.0</ele>
        <time>2019-08-12T06:36:11Z</time>
      </trkpt>
      <trkpt lat="39.1544870" lon="-3.8702390">
        <ele>621.0</ele>
        <time>2019-08-12T06:36:12Z</time>
      </trkpt>
      <trkpt lat="39.1545340" lon="-3.8701830">
        <ele>621.0</ele>
        <time>2019-08-12T06:36:13Z</time>
      </trkpt>
      <trkpt lat="39.1545800" lon="-3.8701260">
        <ele>621.0</ele>
        <time>2019-08-12T06:36:14Z</time>
      </trkpt>
      <trkpt lat="39.1546260" lon="-3.8700680">
        <ele>621.0</ele>
        <time>2019-08-12T06:36:15Z</time>
      </trkpt>
      <trkpt lat="39.1546710" lon="-3.8700110">
        <ele>621.0</ele>
        <time>2019-08-12T06:36:16Z</time>
      </trkpt>
      <trkpt lat="39.1547160" lon="-3.8699540">
        <ele>621.0</ele>
        <time>2019-08-12T06:36:17Z</time>
      </trkpt>
      <trkpt lat="39.1547600" lon="-3.8698960">
        <ele>621.0</ele>
        <time>2019-08-12T06:36:18Z</time>
      </trkpt>
      <trkpt lat="39.1548050" lon="-3.8698390">
        <ele>621.1</ele>
        <time>2019-08-12T06:36:19Z</time>
      </trkpt>
      <trkpt lat="39.1548490" lon="-3.8697810">
        <ele>621.1</ele>
        <time>2019-08-12T06:36:20Z</time>
      </trkpt>
      <trkpt lat="39.1548940" lon="-3.8697240">
        <ele>621.1</ele>
        <time>2019-08-12T06:36:21Z</time>
      </trkpt>
      <trkpt lat="39.1549390" lon="-3.8696670">
        <ele>621.1</ele>
        <time>2019-08-12T06:36:22Z</time>
      </trkpt>
      <trkpt lat="39.1549840" lon="-3.8696110">
        <ele>621.2</ele>
        <time>2019-08-12T06:36:23Z</time>
      </trkpt>
      <trkpt lat="39.1550280" lon="-3.8695540">
        <ele>621.2</ele>
        <time>2019-08-12T06:36:24Z</time>
      </trkpt>
      <trkpt lat="39.1550730" lon="-3.8694980">
        <ele>621.3</ele>
        <time>2019-08-12T06:36:25Z</time>
      </trkpt>
      <trkpt lat="39.1551180" lon="-3.8694420">
        <ele>621.4</ele>
        <time>2019-08-12T06:36:26Z</time>
      </trkpt>
      <trkpt lat="39.1551630" lon="-3.8693860">
        <ele>621.5</ele>
        <time>2019-08-12T06:36:27Z</time>
      </trkpt>
      <trkpt lat="39.1552070" lon="-3.8693310">
        <ele>621.5</ele>
        <time>2019-08-12T06:36:28Z</time>
      </trkpt>
      <trkpt lat="39.1552510" lon="-3.8692750">
        <ele>621.6</ele>
        <time>2019-08-12T06:36:29Z</time>
      </trkpt>
      <trkpt lat="39.1552950" lon="-3.8692190">
        <ele>621.6</ele>
        <time>2019-08-12T06:36:30Z</time>
      </trkpt>
      <trkpt lat="39.1553380" lon="-3.8691640">
        <ele>621.7</ele>
        <time>2019-08-12T06:36:31Z</time>
      </trkpt>
      <trkpt lat="39.1553800" lon="-3.8691080">
        <ele>621.8</ele>
        <time>2019-08-12T06:36:32Z</time>
      </trkpt>
      <trkpt lat="39.1554220" lon="-3.8690530">
        <ele>621.8</ele>
        <time>2019-08-12T06:36:33Z</time>
      </trkpt>
      <trkpt lat="39.1554640" lon="-3.8689980">
        <ele>621.9</ele>
        <time>2019-08-12T06:36:34Z</time>
      </trkpt>
      <trkpt lat="39.1555050" lon="-3.8689440">
        <ele>621.9</ele>
        <time>2019-08-12T06:36:35Z</time>
      </trkpt>
      <trkpt lat="39.1555460" lon="-3.8688890">
        <ele>622.0</ele>
        <time>2019-08-12T06:36:36Z</time>
      </trkpt>
      <trkpt lat="39.1555870" lon="-3.8688360">
        <ele>622.0</ele>
        <time>2019-08-12T06:36:37Z</time>
      </trkpt>
      <trkpt lat="39.1556280" lon="-3.8687830">
        <ele>622.1</ele>
        <time>2019-08-12T06:36:38Z</time>
      </trkpt>
      <trkpt lat="39.1556700" lon="-3.8687300">
        <ele>622.1</ele>
        <time>2019-08-12T06:36:39Z</time>
      </trkpt>
      <trkpt lat="39.1557110" lon="-3.8686790">
        <ele>622.1</ele>
        <time>2019-08-12T06:36:40Z</time>
      </trkpt>
      <trkpt lat="39.1557520" lon="-3.8686290">
        <ele>622.1</ele>
        <time>2019-08-12T06:36:41Z</time>
      </trkpt>
      <trkpt lat="39.1557940" lon="-3.8685790">
        <ele>622.1</ele>
        <time>2019-08-12T06:36:42Z</time>
      </trkpt>
      <trkpt lat="39.1558360" lon="-3.8685300">
        <ele>622.2</ele>
        <time>2019-08-12T06:36:43Z</time>
      </trkpt>
      <trkpt lat="39.1558780" lon="-3.8684810">
        <ele>622.2</ele>
        <time>2019-08-12T06:36:44Z</time>
      </trkpt>
      <trkpt lat="39.1559200" lon="-3.8684330">
        <ele>622.3</ele>
        <time>2019-08-12T06:36:45Z</time>
      </trkpt>
      <trkpt lat="39.1559620" lon="-3.8683850">
        <ele>622.5</ele>
        <time>2019-08-12T06:36:46Z</time>
      </trkpt>
      <trkpt lat="39.1560040" lon="-3.8683380">
        <ele>622.6</ele>
        <time>2019-08-12T06:36:47Z</time>
      </trkpt>
      <trkpt lat="39.1560460" lon="-3.8682900">
        <ele>622.7</ele>
        <time>2019-08-12T06:36:48Z</time>
      </trkpt>
      <trkpt lat="39.1560870" lon="-3.8682410">
        <ele>622.8</ele>
        <time>2019-08-12T06:36:49Z</time>
      </trkpt>
      <trkpt lat="39.1561280" lon="-3.8681930">
        <ele>622.9</ele>
        <time>2019-08-12T06:36:50Z</time>
      </trkpt>
      <trkpt lat="39.1561690" lon="-3.8681440">
        <ele>623.0</ele>
        <time>2019-08-12T06:36:51Z</time>
      </trkpt>
      <trkpt lat="39.1562090" lon="-3.8680950">
        <ele>623.0</ele>
        <time>2019-08-12T06:36:52Z</time>
      </trkpt>
      <trkpt lat="39.1562490" lon="-3.8680460">
        <ele>623.0</ele>
        <time>2019-08-12T06:36:53Z</time>
      </trkpt>
      <trkpt lat="39.1562890" lon="-3.8679970">
        <ele>623.0</ele>
        <time>2019-08-12T06:36:54Z</time>
      </trkpt>
      <trkpt lat="39.1563280" lon="-3.8679480">
        <ele>622.9</ele>
        <time>2019-08-12T06:36:55Z</time>
      </trkpt>
      <trkpt lat="39.1563670" lon="-3.8679000">
        <ele>622.9</ele>
        <time>2019-08-12T06:36:56Z</time>
      </trkpt>
      <trkpt lat="39.1564050" lon="-3.8678520">
        <ele>622.9</ele>
        <time>2019-08-12T06:36:57Z</time>
      </trkpt>
      <trkpt lat="39.1564440" lon="-3.8678050">
        <ele>622.9</ele>
        <time>2019-08-12T06:36:58Z</time>
      </trkpt>
      <trkpt lat="39.1564810" lon="-3.8677580">
        <ele>622.9</ele>
        <time>2019-08-12T06:36:59Z</time>
      </trkpt>
      <trkpt lat="39.1565190" lon="-3.8677110">
        <ele>622.9</ele>
        <time>2019-08-12T06:37:00Z</time>
      </trkpt>
      <trkpt lat="39.1565560" lon="-3.8676650">
        <ele>622.9</ele>
        <time>2019-08-12T06:37:01Z</time>
      </trkpt>
      <trkpt lat="39.1565930" lon="-3.8676200">
        <ele>622.9</ele>
        <time>2019-08-12T06:37:02Z</time>
      </trkpt>
      <trkpt lat="39.1566300" lon="-3.8675740">
        <ele>622.9</ele>
        <time>2019-08-12T06:37:03Z</time>
      </trkpt>
      <trkpt lat="39.1566670" lon="-3.8675280">
        <ele>622.9</ele>
        <time>2019-08-12T06:37:04Z</time>
      </trkpt>
      <trkpt lat="39.1567040" lon="-3.8674820">
        <ele>622.9</ele>
        <time>2019-08-12T06:37:05Z</time>
      </trkpt>
      <trkpt lat="39.1567400" lon="-3.8674350">
        <ele>622.9</ele>
        <time>2019-08-12T06:37:06Z</time>
      </trkpt>
      <trkpt lat="39.1567770" lon="-3.8673870">
        <ele>623.0</ele>
        <time>2019-08-12T06:37:07Z</time>
      </trkpt>
      <trkpt lat="39.1568140" lon="-3.8673390">
        <ele>623.0</ele>
        <time>2019-08-12T06:37:08Z</time>
      </trkpt>
      <trkpt lat="39.1568520" lon="-3.8672900">
        <ele>623.1</ele>
        <time>2019-08-12T06:37:09Z</time>
      </trkpt>
      <trkpt lat="39.1568890" lon="-3.8672400">
        <ele>623.3</ele>
        <time>2019-08-12T06:37:10Z</time>
      </trkpt>
      <trkpt lat="39.1569260" lon="-3.8671880">
        <ele>623.4</ele>
        <time>2019-08-12T06:37:11Z</time>
      </trkpt>
      <trkpt lat="39.1569620" lon="-3.8671360">
        <ele>623.6</ele>
        <time>2019-08-12T06:37:12Z</time>
      </trkpt>
      <trkpt lat="39.1569970" lon="-3.8670820">
        <ele>623.8</ele>
        <time>2019-08-12T06:37:13Z</time>
      </trkpt>
      <trkpt lat="39.1570320" lon="-3.8670280">
        <ele>623.9</ele>
        <time>2019-08-12T06:37:14Z</time>
      </trkpt>
      <trkpt lat="39.1570650" lon="-3.8669720">
        <ele>624.1</ele>
        <time>2019-08-12T06:37:15Z</time>
      </trkpt>
      <trkpt lat="39.1570960" lon="-3.8669150">
        <ele>624.2</ele>
        <time>2019-08-12T06:37:16Z</time>
      </trkpt>
      <trkpt lat="39.1571260" lon="-3.8668570">
        <ele>624.3</ele>
        <time>2019-08-12T06:37:17Z</time>
      </trkpt>
      <trkpt lat="39.1571530" lon="-3.8667980">
        <ele>624.4</ele>
        <time>2019-08-12T06:37:18Z</time>
      </trkpt>
      <trkpt lat="39.1571790" lon="-3.8667380">
        <ele>624.5</ele>
        <time>2019-08-12T06:37:19Z</time>
      </trkpt>
      <trkpt lat="39.1572030" lon="-3.8666770">
        <ele>624.6</ele>
        <time>2019-08-12T06:37:20Z</time>
      </trkpt>
      <trkpt lat="39.1572260" lon="-3.8666160">
        <ele>624.7</ele>
        <time>2019-08-12T06:37:21Z</time>
      </trkpt>
      <trkpt lat="39.1572480" lon="-3.8665550">
        <ele>624.9</ele>
        <time>2019-08-12T06:37:22Z</time>
      </trkpt>
      <trkpt lat="39.1572700" lon="-3.8664960">
        <ele>625.0</ele>
        <time>2019-08-12T06:37:23Z</time>
      </trkpt>
      <trkpt lat="39.1572990" lon="-3.8664450">
        <ele>625.1</ele>
        <time>2019-08-12T06:37:24Z</time>
      </trkpt>
      <trkpt lat="39.1573410" lon="-3.8664090">
        <ele>625.0</ele>
        <time>2019-08-12T06:37:25Z</time>
      </trkpt>
      <trkpt lat="39.1573910" lon="-3.8663820">
        <ele>625.0</ele>
        <time>2019-08-12T06:37:26Z</time>
      </trkpt>
      <trkpt lat="39.1574430" lon="-3.8663590">
        <ele>624.9</ele>
        <time>2019-08-12T06:37:27Z</time>
      </trkpt>
      <trkpt lat="39.1574970" lon="-3.8663340">
        <ele>624.9</ele>
        <time>2019-08-12T06:37:28Z</time>
      </trkpt>
      <trkpt lat="39.1575510" lon="-3.8663060">
        <ele>624.8</ele>
        <time>2019-08-12T06:37:29Z</time>
      </trkpt>
      <trkpt lat="39.1576060" lon="-3.8662710">
        <ele>624.8</ele>
        <time>2019-08-12T06:37:30Z</time>
      </trkpt>
      <trkpt lat="39.1576600" lon="-3.8662300">
        <ele>624.7</ele>
        <time>2019-08-12T06:37:31Z</time>
      </trkpt>
      <trkpt lat="39.1577110" lon="-3.8661830">
        <ele>624.7</ele>
        <time>2019-08-12T06:37:32Z</time>
      </trkpt>
      <trkpt lat="39.1577590" lon="-3.8661320">
        <ele>624.7</ele>
        <time>2019-08-12T06:37:33Z</time>
      </trkpt>
      <trkpt lat="39.1578050" lon="-3.8660770">
        <ele>624.7</ele>
        <time>2019-08-12T06:37:34Z</time>
      </trkpt>
      <trkpt lat="39.1578720" lon="-3.8659940">
        <ele>624.8</ele>
        <time>2019-08-12T06:37:35Z</time>
      </trkpt>
      <trkpt lat="39.1578940" lon="-3.8659660">
        <ele>624.8</ele>
        <time>2019-08-12T06:37:36Z</time>
      </trkpt>
      <trkpt lat="39.1579380" lon="-3.8659110">
        <ele>624.9</ele>
        <time>2019-08-12T06:37:37Z</time>
      </trkpt>
      <trkpt lat="39.1579810" lon="-3.8658570">
        <ele>624.9</ele>
        <time>2019-08-12T06:37:38Z</time>
      </trkpt>
      <trkpt lat="39.1580240" lon="-3.8658020">
        <ele>625.0</ele>
        <time>2019-08-12T06:37:39Z</time>
      </trkpt>
      <trkpt lat="39.1580670" lon="-3.8657480">
        <ele>625.1</ele>
        <time>2019-08-12T06:37:40Z</time>
      </trkpt>
      <trkpt lat="39.1581100" lon="-3.8656950">
        <ele>625.1</ele>
        <time>2019-08-12T06:37:41Z</time>
      </trkpt>
      <trkpt lat="39.1581520" lon="-3.8656410">
        <ele>625.2</ele>
        <time>2019-08-12T06:37:42Z</time>
      </trkpt>
      <trkpt lat="39.1581940" lon="-3.8655880">
        <ele>625.3</ele>
        <time>2019-08-12T06:37:43Z</time>
      </trkpt>
      <trkpt lat="39.1582370" lon="-3.8655360">
        <ele>625.3</ele>
        <time>2019-08-12T06:37:44Z</time>
      </trkpt>
      <trkpt lat="39.1582790" lon="-3.8654830">
        <ele>625.4</ele>
        <time>2019-08-12T06:37:45Z</time>
      </trkpt>
      <trkpt lat="39.1583210" lon="-3.8654320">
        <ele>625.4</ele>
        <time>2019-08-12T06:37:46Z</time>
      </trkpt>
      <trkpt lat="39.1583640" lon="-3.8653800">
        <ele>625.5</ele>
        <time>2019-08-12T06:37:47Z</time>
      </trkpt>
      <trkpt lat="39.1584050" lon="-3.8653300">
        <ele>625.5</ele>
        <time>2019-08-12T06:37:48Z</time>
      </trkpt>
      <trkpt lat="39.1584470" lon="-3.8652800">
        <ele>625.5</ele>
        <time>2019-08-12T06:37:49Z</time>
      </trkpt>
      <trkpt lat="39.1584880" lon="-3.8652310">
        <ele>625.6</ele>
        <time>2019-08-12T06:37:50Z</time>
      </trkpt>
      <trkpt lat="39.1585290" lon="-3.8651840">
        <ele>625.6</ele>
        <time>2019-08-12T06:37:51Z</time>
      </trkpt>
      <trkpt lat="39.1585700" lon="-3.8651360">
        <ele>625.7</ele>
        <time>2019-08-12T06:37:52Z</time>
      </trkpt>
      <trkpt lat="39.1586100" lon="-3.8650890">
        <ele>625.7</ele>
        <time>2019-08-12T06:37:53Z</time>
      </trkpt>
      <trkpt lat="39.1586500" lon="-3.8650420">
        <ele>625.8</ele>
        <time>2019-08-12T06:37:54Z</time>
      </trkpt>
      <trkpt lat="39.1586900" lon="-3.8649950">
        <ele>625.8</ele>
        <time>2019-08-12T06:37:55Z</time>
      </trkpt>
      <trkpt lat="39.1587300" lon="-3.8649470">
        <ele>625.8</ele>
        <time>2019-08-12T06:37:56Z</time>
      </trkpt>
      <trkpt lat="39.1587690" lon="-3.8649000">
        <ele>625.9</ele>
        <time>2019-08-12T06:37:57Z</time>
      </trkpt>
      <trkpt lat="39.1588080" lon="-3.8648520">
        <ele>625.9</ele>
        <time>2019-08-12T06:37:58Z</time>
      </trkpt>
      <trkpt lat="39.1588470" lon="-3.8648040">
        <ele>626.0</ele>
        <time>2019-08-12T06:37:59Z</time>
      </trkpt>
      <trkpt lat="39.1588860" lon="-3.8647570">
        <ele>626.0</ele>
        <time>2019-08-12T06:38:00Z</time>
      </trkpt>
      <trkpt lat="39.1589250" lon="-3.8647090">
        <ele>626.1</ele>
        <time>2019-08-12T06:38:01Z</time>
      </trkpt>
      <trkpt lat="39.1589640" lon="-3.8646610">
        <ele>626.1</ele>
        <time>2019-08-12T06:38:02Z</time>
      </trkpt>
      <trkpt lat="39.1590020" lon="-3.8646130">
        <ele>626.2</ele>
        <time>2019-08-12T06:38:03Z</time>
      </trkpt>
      <trkpt lat="39.1590400" lon="-3.8645650">
        <ele>626.3</ele>
        <time>2019-08-12T06:38:04Z</time>
      </trkpt>
      <trkpt lat="39.1590790" lon="-3.8645170">
        <ele>626.3</ele>
        <time>2019-08-12T06:38:05Z</time>
      </trkpt>
      <trkpt lat="39.1591170" lon="-3.8644690">
        <ele>626.4</ele>
        <time>2019-08-12T06:38:06Z</time>
      </trkpt>
      <trkpt lat="39.1591550" lon="-3.8644210">
        <ele>626.4</ele>
        <time>2019-08-12T06:38:07Z</time>
      </trkpt>
      <trkpt lat="39.1591930" lon="-3.8643740">
        <ele>626.5</ele>
        <time>2019-08-12T06:38:08Z</time>
      </trkpt>
      <trkpt lat="39.1592310" lon="-3.8643260">
        <ele>626.5</ele>
        <time>2019-08-12T06:38:09Z</time>
      </trkpt>
      <trkpt lat="39.1592690" lon="-3.8642780">
        <ele>626.6</ele>
        <time>2019-08-12T06:38:10Z</time>
      </trkpt>
      <trkpt lat="39.1593070" lon="-3.8642300">
        <ele>626.6</ele>
        <time>2019-08-12T06:38:11Z</time>
      </trkpt>
      <trkpt lat="39.1593450" lon="-3.8641820">
        <ele>626.6</ele>
        <time>2019-08-12T06:38:12Z</time>
      </trkpt>
      <trkpt lat="39.1593830" lon="-3.8641350">
        <ele>626.6</ele>
        <time>2019-08-12T06:38:13Z</time>
      </trkpt>
      <trkpt lat="39.1594200" lon="-3.8640870">
        <ele>626.6</ele>
        <time>2019-08-12T06:38:14Z</time>
      </trkpt>
      <trkpt lat="39.1594580" lon="-3.8640400">
        <ele>626.6</ele>
        <time>2019-08-12T06:38:15Z</time>
      </trkpt>
      <trkpt lat="39.1594960" lon="-3.8639920">
        <ele>626.6</ele>
        <time>2019-08-12T06:38:16Z</time>
      </trkpt>
      <trkpt lat="39.1595340" lon="-3.8639440">
        <ele>626.5</ele>
        <time>2019-08-12T06:38:17Z</time>
      </trkpt>
      <trkpt lat="39.1595720" lon="-3.8638960">
        <ele>626.5</ele>
        <time>2019-08-12T06:38:18Z</time>
      </trkpt>
      <trkpt lat="39.1596100" lon="-3.8638480">
        <ele>626.5</ele>
        <time>2019-08-12T06:38:19Z</time>
      </trkpt>
      <trkpt lat="39.1596480" lon="-3.8638000">
        <ele>626.4</ele>
        <time>2019-08-12T06:38:20Z</time>
      </trkpt>
      <trkpt lat="39.1596860" lon="-3.8637520">
        <ele>626.4</ele>
        <time>2019-08-12T06:38:21Z</time>
      </trkpt>
      <trkpt lat="39.1597240" lon="-3.8637030">
        <ele>626.4</ele>
        <time>2019-08-12T06:38:22Z</time>
      </trkpt>
      <trkpt lat="39.1597620" lon="-3.8636550">
        <ele>626.4</ele>
        <time>2019-08-12T06:38:23Z</time>
      </trkpt>
      <trkpt lat="39.1598000" lon="-3.8636060">
        <ele>626.4</ele>
        <time>2019-08-12T06:38:24Z</time>
      </trkpt>
      <trkpt lat="39.1598380" lon="-3.8635560">
        <ele>626.4</ele>
        <time>2019-08-12T06:38:25Z</time>
      </trkpt>
      <trkpt lat="39.1598770" lon="-3.8635070">
        <ele>626.3</ele>
        <time>2019-08-12T06:38:26Z</time>
      </trkpt>
      <trkpt lat="39.1599150" lon="-3.8634570">
        <ele>626.3</ele>
        <time>2019-08-12T06:38:27Z</time>
      </trkpt>
      <trkpt lat="39.1599540" lon="-3.8634070">
        <ele>626.3</ele>
        <time>2019-08-12T06:38:28Z</time>
      </trkpt>
      <trkpt lat="39.1599940" lon="-3.8633560">
        <ele>626.3</ele>
        <time>2019-08-12T06:38:29Z</time>
      </trkpt>
      <trkpt lat="39.1600340" lon="-3.8633050">
        <ele>626.3</ele>
        <time>2019-08-12T06:38:30Z</time>
      </trkpt>
      <trkpt lat="39.1600740" lon="-3.8632530">
        <ele>626.2</ele>
        <time>2019-08-12T06:38:31Z</time>
      </trkpt>
      <trkpt lat="39.1601140" lon="-3.8632010">
        <ele>626.2</ele>
        <time>2019-08-12T06:38:32Z</time>
      </trkpt>
      <trkpt lat="39.1601550" lon="-3.8631490">
        <ele>626.1</ele>
        <time>2019-08-12T06:38:33Z</time>
      </trkpt>
      <trkpt lat="39.1601970" lon="-3.8630970">
        <ele>626.0</ele>
        <time>2019-08-12T06:38:34Z</time>
      </trkpt>
      <trkpt lat="39.1602380" lon="-3.8630450">
        <ele>625.8</ele>
        <time>2019-08-12T06:38:35Z</time>
      </trkpt>
      <trkpt lat="39.1602800" lon="-3.8629930">
        <ele>625.7</ele>
        <time>2019-08-12T06:38:36Z</time>
      </trkpt>
      <trkpt lat="39.1603220" lon="-3.8629410">
        <ele>625.5</ele>
        <time>2019-08-12T06:38:37Z</time>
      </trkpt>
      <trkpt lat="39.1603650" lon="-3.8628900">
        <ele>625.3</ele>
        <time>2019-08-12T06:38:38Z</time>
      </trkpt>
      <trkpt lat="39.1604080" lon="-3.8628390">
        <ele>625.0</ele>
        <time>2019-08-12T06:38:39Z</time>
      </trkpt>
      <trkpt lat="39.1604510" lon="-3.8627880">
        <ele>624.8</ele>
        <time>2019-08-12T06:38:40Z</time>
      </trkpt>
      <trkpt lat="39.1604950" lon="-3.8627400">
        <ele>624.6</ele>
        <time>2019-08-12T06:38:41Z</time>
      </trkpt>
      <trkpt lat="39.1605390" lon="-3.8626930">
        <ele>624.3</ele>
        <time>2019-08-12T06:38:42Z</time>
      </trkpt>
      <trkpt lat="39.1605850" lon="-3.8626500">
        <ele>624.1</ele>
        <time>2019-08-12T06:38:43Z</time>
      </trkpt>
      <trkpt lat="39.1606330" lon="-3.8626100">
        <ele>623.9</ele>
        <time>2019-08-12T06:38:44Z</time>
      </trkpt>
      <trkpt lat="39.1606820" lon="-3.8625750">
        <ele>623.6</ele>
        <time>2019-08-12T06:38:45Z</time>
      </trkpt>
      <trkpt lat="39.1607340" lon="-3.8625450">
        <ele>623.4</ele>
        <time>2019-08-12T06:38:46Z</time>
      </trkpt>
      <trkpt lat="39.1607880" lon="-3.8625170">
        <ele>623.2</ele>
        <time>2019-08-12T06:38:47Z</time>
      </trkpt>
      <trkpt lat="39.1608440" lon="-3.8624910">
        <ele>623.0</ele>
        <time>2019-08-12T06:38:48Z</time>
      </trkpt>
      <trkpt lat="39.1609030" lon="-3.8624680">
        <ele>622.9</ele>
        <time>2019-08-12T06:38:49Z</time>
      </trkpt>
      <trkpt lat="39.1609640" lon="-3.8624450">
        <ele>622.7</ele>
        <time>2019-08-12T06:38:50Z</time>
      </trkpt>
      <trkpt lat="39.1610270" lon="-3.8624240">
        <ele>622.7</ele>
        <time>2019-08-12T06:38:51Z</time>
      </trkpt>
      <trkpt lat="39.1610920" lon="-3.8624040">
        <ele>622.6</ele>
        <time>2019-08-12T06:38:52Z</time>
      </trkpt>
      <trkpt lat="39.1611580" lon="-3.8623840">
        <ele>622.6</ele>
        <time>2019-08-12T06:38:53Z</time>
      </trkpt>
      <trkpt lat="39.1612250" lon="-3.8623650">
        <ele>622.6</ele>
        <time>2019-08-12T06:38:54Z</time>
      </trkpt>
      <trkpt lat="39.1612930" lon="-3.8623460">
        <ele>622.6</ele>
        <time>2019-08-12T06:38:55Z</time>
      </trkpt>
      <trkpt lat="39.1613610" lon="-3.8623280">
        <ele>622.6</ele>
        <time>2019-08-12T06:38:56Z</time>
      </trkpt>
      <trkpt lat="39.1614300" lon="-3.8623090">
        <ele>622.6</ele>
        <time>2019-08-12T06:38:57Z</time>
      </trkpt>
      <trkpt lat="39.1614980" lon="-3.8622900">
        <ele>622.6</ele>
        <time>2019-08-12T06:38:58Z</time>
      </trkpt>
      <trkpt lat="39.1615670" lon="-3.8622700">
        <ele>622.6</ele>
        <time>2019-08-12T06:38:59Z</time>
      </trkpt>
      <trkpt lat="39.1616350" lon="-3.8622500">
        <ele>622.6</ele>
        <time>2019-08-12T06:39:00Z</time>
      </trkpt>
      <trkpt lat="39.1617030" lon="-3.8622310">
        <ele>622.6</ele>
        <time>2019-08-12T06:39:01Z</time>
      </trkpt>
      <trkpt lat="39.1617700" lon="-3.8622110">
        <ele>622.6</ele>
        <time>2019-08-12T06:39:02Z</time>
      </trkpt>
      <trkpt lat="39.1618370" lon="-3.8621910">
        <ele>622.6</ele>
        <time>2019-08-12T06:39:03Z</time>
      </trkpt>
      <trkpt lat="39.1619030" lon="-3.8621720">
        <ele>622.6</ele>
        <time>2019-08-12T06:39:04Z</time>
      </trkpt>
      <trkpt lat="39.1619680" lon="-3.8621530">
        <ele>622.6</ele>
        <time>2019-08-12T06:39:05Z</time>
      </trkpt>
      <trkpt lat="39.1620330" lon="-3.8621350">
        <ele>622.6</ele>
        <time>2019-08-12T06:39:06Z</time>
      </trkpt>
      <trkpt lat="39.1620980" lon="-3.8621180">
        <ele>622.6</ele>
        <time>2019-08-12T06:39:07Z</time>
      </trkpt>
      <trkpt lat="39.1621610" lon="-3.8621020">
        <ele>622.6</ele>
        <time>2019-08-12T06:39:08Z</time>
      </trkpt>
      <trkpt lat="39.1622240" lon="-3.8620870">
        <ele>622.6</ele>
        <time>2019-08-12T06:39:09Z</time>
      </trkpt>
      <trkpt lat="39.1622860" lon="-3.8620720">
        <ele>622.6</ele>
        <time>2019-08-12T06:39:10Z</time>
      </trkpt>
      <trkpt lat="39.1623480" lon="-3.8620570">
        <ele>622.6</ele>
        <time>2019-08-12T06:39:11Z</time>
      </trkpt>
      <trkpt lat="39.1624080" lon="-3.8620410">
        <ele>622.6</ele>
        <time>2019-08-12T06:39:12Z</time>
      </trkpt>
      <trkpt lat="39.1624680" lon="-3.8620240">
        <ele>622.7</ele>
        <time>2019-08-12T06:39:13Z</time>
      </trkpt>
      <trkpt lat="39.1625270" lon="-3.8620060">
        <ele>622.7</ele>
        <time>2019-08-12T06:39:14Z</time>
      </trkpt>
      <trkpt lat="39.1625850" lon="-3.8619880">
        <ele>622.7</ele>
        <time>2019-08-12T06:39:15Z</time>
      </trkpt>
      <trkpt lat="39.1626430" lon="-3.8619700">
        <ele>622.8</ele>
        <time>2019-08-12T06:39:16Z</time>
      </trkpt>
      <trkpt lat="39.1627010" lon="-3.8619530">
        <ele>622.9</ele>
        <time>2019-08-12T06:39:17Z</time>
      </trkpt>
      <trkpt lat="39.1627580" lon="-3.8619370">
        <ele>623.0</ele>
        <time>2019-08-12T06:39:18Z</time>
      </trkpt>
      <trkpt lat="39.1628150" lon="-3.8619220">
        <ele>623.1</ele>
        <time>2019-08-12T06:39:19Z</time>
      </trkpt>
      <trkpt lat="39.1628710" lon="-3.8619070">
        <ele>623.2</ele>
        <time>2019-08-12T06:39:20Z</time>
      </trkpt>
      <trkpt lat="39.1629280" lon="-3.8618920">
        <ele>623.3</ele>
        <time>2019-08-12T06:39:21Z</time>
      </trkpt>
      <trkpt lat="39.1629840" lon="-3.8618780">
        <ele>623.5</ele>
        <time>2019-08-12T06:39:22Z</time>
      </trkpt>
      <trkpt lat="39.1630400" lon="-3.8618630">
        <ele>623.7</ele>
        <time>2019-08-12T06:39:23Z</time>
      </trkpt>
      <trkpt lat="39.1630960" lon="-3.8618490">
        <ele>623.8</ele>
        <time>2019-08-12T06:39:24Z</time>
      </trkpt>
      <trkpt lat="39.1631520" lon="-3.8618340">
        <ele>624.0</ele>
        <time>2019-08-12T06:39:25Z</time>
      </trkpt>
      <trkpt lat="39.1632080" lon="-3.8618190">
        <ele>624.1</ele>
        <time>2019-08-12T06:39:26Z</time>
      </trkpt>
      <trkpt lat="39.1632640" lon="-3.8618040">
        <ele>624.3</ele>
        <time>2019-08-12T06:39:27Z</time>
      </trkpt>
      <trkpt lat="39.1633210" lon="-3.8617880">
        <ele>624.4</ele>
        <time>2019-08-12T06:39:28Z</time>
      </trkpt>
      <trkpt lat="39.1633770" lon="-3.8617720">
        <ele>624.5</ele>
        <time>2019-08-12T06:39:29Z</time>
      </trkpt>
      <trkpt lat="39.1634340" lon="-3.8617560">
        <ele>624.6</ele>
        <time>2019-08-12T06:39:30Z</time>
      </trkpt>
      <trkpt lat="39.1634910" lon="-3.8617400">
        <ele>624.7</ele>
        <time>2019-08-12T06:39:31Z</time>
      </trkpt>
      <trkpt lat="39.1635480" lon="-3.8617240">
        <ele>624.8</ele>
        <time>2019-08-12T06:39:32Z</time>
      </trkpt>
      <trkpt lat="39.1636060" lon="-3.8617070">
        <ele>624.8</ele>
        <time>2019-08-12T06:39:33Z</time>
      </trkpt>
      <trkpt lat="39.1636640" lon="-3.8616910">
        <ele>624.9</ele>
        <time>2019-08-12T06:39:34Z</time>
      </trkpt>
      <trkpt lat="39.1637220" lon="-3.8616750">
        <ele>624.9</ele>
        <time>2019-08-12T06:39:35Z</time>
      </trkpt>
      <trkpt lat="39.1637810" lon="-3.8616590">
        <ele>625.0</ele>
        <time>2019-08-12T06:39:36Z</time>
      </trkpt>
      <trkpt lat="39.1638410" lon="-3.8616440">
        <ele>625.0</ele>
        <time>2019-08-12T06:39:37Z</time>
      </trkpt>
      <trkpt lat="39.1639010" lon="-3.8616280">
        <ele>625.0</ele>
        <time>2019-08-12T06:39:38Z</time>
      </trkpt>
      <trkpt lat="39.1639610" lon="-3.8616130">
        <ele>625.0</ele>
        <time>2019-08-12T06:39:39Z</time>
      </trkpt>
      <trkpt lat="39.1640210" lon="-3.8615990">
        <ele>625.0</ele>
        <time>2019-08-12T06:39:40Z</time>
      </trkpt>
      <trkpt lat="39.1640820" lon="-3.8615850">
        <ele>625.0</ele>
        <time>2019-08-12T06:39:41Z</time>
      </trkpt>
      <trkpt lat="39.1641430" lon="-3.8615720">
        <ele>625.0</ele>
        <time>2019-08-12T06:39:42Z</time>
      </trkpt>
      <trkpt lat="39.1642050" lon="-3.8615600">
        <ele>625.0</ele>
        <time>2019-08-12T06:39:43Z</time>
      </trkpt>
      <trkpt lat="39.1642660" lon="-3.8615480">
        <ele>625.0</ele>
        <time>2019-08-12T06:39:44Z</time>
      </trkpt>
      <trkpt lat="39.1643280" lon="-3.8615370">
        <ele>625.0</ele>
        <time>2019-08-12T06:39:45Z</time>
      </trkpt>
      <trkpt lat="39.1643900" lon="-3.8615270">
        <ele>625.0</ele>
        <time>2019-08-12T06:39:46Z</time>
      </trkpt>
      <trkpt lat="39.1644530" lon="-3.8615170">
        <ele>625.0</ele>
        <time>2019-08-12T06:39:47Z</time>
      </trkpt>
      <trkpt lat="39.1645150" lon="-3.8615080">
        <ele>625.1</ele>
        <time>2019-08-12T06:39:48Z</time>
      </trkpt>
      <trkpt lat="39.1645780" lon="-3.8614980">
        <ele>625.1</ele>
        <time>2019-08-12T06:39:49Z</time>
      </trkpt>
      <trkpt lat="39.1646410" lon="-3.8614880">
        <ele>625.1</ele>
        <time>2019-08-12T06:39:50Z</time>
      </trkpt>
      <trkpt lat="39.1647050" lon="-3.8614780">
        <ele>625.1</ele>
        <time>2019-08-12T06:39:51Z</time>
      </trkpt>
      <trkpt lat="39.1647680" lon="-3.8614670">
        <ele>625.1</ele>
        <time>2019-08-12T06:39:52Z</time>
      </trkpt>
      <trkpt lat="39.1648320" lon="-3.8614540">
        <ele>625.2</ele>
        <time>2019-08-12T06:39:53Z</time>
      </trkpt>
      <trkpt lat="39.1648960" lon="-3.8614410">
        <ele>625.2</ele>
        <time>2019-08-12T06:39:54Z</time>
      </trkpt>
      <trkpt lat="39.1649600" lon="-3.8614260">
        <ele>625.3</ele>
        <time>2019-08-12T06:39:55Z</time>
      </trkpt>
      <trkpt lat="39.1650250" lon="-3.8614110">
        <ele>625.3</ele>
        <time>2019-08-12T06:39:56Z</time>
      </trkpt>
      <trkpt lat="39.1650890" lon="-3.8613940">
        <ele>625.3</ele>
        <time>2019-08-12T06:39:57Z</time>
      </trkpt>
      <trkpt lat="39.1651540" lon="-3.8613770">
        <ele>625.4</ele>
        <time>2019-08-12T06:39:58Z</time>
      </trkpt>
      <trkpt lat="39.1652180" lon="-3.8613600">
        <ele>625.4</ele>
        <time>2019-08-12T06:39:59Z</time>
      </trkpt>
      <trkpt lat="39.1652820" lon="-3.8613420">
        <ele>625.4</ele>
        <time>2019-08-12T06:40:00Z</time>
      </trkpt>
      <trkpt lat="39.1653460" lon="-3.8613240">
        <ele>625.4</ele>
        <time>2019-08-12T06:40:01Z</time>
      </trkpt>
      <trkpt lat="39.1654100" lon="-3.8613060">
        <ele>625.5</ele>
        <time>2019-08-12T06:40:02Z</time>
      </trkpt>
      <trkpt lat="39.1654730" lon="-3.8612880">
        <ele>625.5</ele>
        <time>2019-08-12T06:40:03Z</time>
      </trkpt>
      <trkpt lat="39.1655360" lon="-3.8612700">
        <ele>625.5</ele>
        <time>2019-08-12T06:40:04Z</time>
      </trkpt>
      <trkpt lat="39.1655990" lon="-3.8612520">
        <ele>625.5</ele>
        <time>2019-08-12T06:40:05Z</time>
      </trkpt>
      <trkpt lat="39.1656610" lon="-3.8612350">
        <ele>625.5</ele>
        <time>2019-08-12T06:40:06Z</time>
      </trkpt>
      <trkpt lat="39.1657230" lon="-3.8612170">
        <ele>625.6</ele>
        <time>2019-08-12T06:40:07Z</time>
      </trkpt>
      <trkpt lat="39.1657850" lon="-3.8612000">
        <ele>625.6</ele>
        <time>2019-08-12T06:40:08Z</time>
      </trkpt>
      <trkpt lat="39.1658460" lon="-3.8611830">
        <ele>625.6</ele>
        <time>2019-08-12T06:40:09Z</time>
      </trkpt>
      <trkpt lat="39.1659080" lon="-3.8611650">
        <ele>625.6</ele>
        <time>2019-08-12T06:40:10Z</time>
      </trkpt>
      <trkpt lat="39.1659690" lon="-3.8611480">
        <ele>625.6</ele>
        <time>2019-08-12T06:40:11Z</time>
      </trkpt>
      <trkpt lat="39.1660300" lon="-3.8611310">
        <ele>625.7</ele>
        <time>2019-08-12T06:40:12Z</time>
      </trkpt>
      <trkpt lat="39.1660900" lon="-3.8611140">
        <ele>625.7</ele>
        <time>2019-08-12T06:40:13Z</time>
      </trkpt>
      <trkpt lat="39.1661510" lon="-3.8610980">
        <ele>625.7</ele>
        <time>2019-08-12T06:40:14Z</time>
      </trkpt>
      <trkpt lat="39.1662110" lon="-3.8610810">
        <ele>625.7</ele>
        <time>2019-08-12T06:40:15Z</time>
      </trkpt>
      <trkpt lat="39.1662710" lon="-3.8610640">
        <ele>625.7</ele>
        <time>2019-08-12T06:40:16Z</time>
      </trkpt>
      <trkpt lat="39.1663310" lon="-3.8610470">
        <ele>625.7</ele>
        <time>2019-08-12T06:40:17Z</time>
      </trkpt>
      <trkpt lat="39.1663910" lon="-3.8610300">
        <ele>625.7</ele>
        <time>2019-08-12T06:40:18Z</time>
      </trkpt>
      <trkpt lat="39.1664510" lon="-3.8610140">
        <ele>625.7</ele>
        <time>2019-08-12T06:40:19Z</time>
      </trkpt>
      <trkpt lat="39.1665110" lon="-3.8609970">
        <ele>625.7</ele>
        <time>2019-08-12T06:40:20Z</time>
      </trkpt>
      <trkpt lat="39.1665700" lon="-3.8609800">
        <ele>625.7</ele>
        <time>2019-08-12T06:40:21Z</time>
      </trkpt>
      <trkpt lat="39.1666300" lon="-3.8609630">
        <ele>625.7</ele>
        <time>2019-08-12T06:40:22Z</time>
      </trkpt>
      <trkpt lat="39.1666900" lon="-3.8609460">
        <ele>625.8</ele>
        <time>2019-08-12T06:40:23Z</time>
      </trkpt>
      <trkpt lat="39.1667500" lon="-3.8609290">
        <ele>625.8</ele>
        <time>2019-08-12T06:40:24Z</time>
      </trkpt>
      <trkpt lat="39.1668100" lon="-3.8609110">
        <ele>625.8</ele>
        <time>2019-08-12T06:40:25Z</time>
      </trkpt>
      <trkpt lat="39.1668700" lon="-3.8608930">
        <ele>625.9</ele>
        <time>2019-08-12T06:40:26Z</time>
      </trkpt>
      <trkpt lat="39.1669310" lon="-3.8608730">
        <ele>625.9</ele>
        <time>2019-08-12T06:40:27Z</time>
      </trkpt>
      <trkpt lat="39.1669910" lon="-3.8608520">
        <ele>625.9</ele>
        <time>2019-08-12T06:40:28Z</time>
      </trkpt>
      <trkpt lat="39.1670520" lon="-3.8608290">
        <ele>626.0</ele>
        <time>2019-08-12T06:40:29Z</time>
      </trkpt>
      <trkpt lat="39.1671110" lon="-3.8608040">
        <ele>626.0</ele>
        <time>2019-08-12T06:40:30Z</time>
      </trkpt>
      <trkpt lat="39.1671700" lon="-3.8607770">
        <ele>626.1</ele>
        <time>2019-08-12T06:40:31Z</time>
      </trkpt>
      <trkpt lat="39.1672280" lon="-3.8607480">
        <ele>626.1</ele>
        <time>2019-08-12T06:40:32Z</time>
      </trkpt>
      <trkpt lat="39.1672850" lon="-3.8607190">
        <ele>626.2</ele>
        <time>2019-08-12T06:40:33Z</time>
      </trkpt>
      <trkpt lat="39.1673400" lon="-3.8606890">
        <ele>626.2</ele>
        <time>2019-08-12T06:40:34Z</time>
      </trkpt>
      <trkpt lat="39.1673940" lon="-3.8606590">
        <ele>626.3</ele>
        <time>2019-08-12T06:40:35Z</time>
      </trkpt>
      <trkpt lat="39.1674470" lon="-3.8606290">
        <ele>626.3</ele>
        <time>2019-08-12T06:40:36Z</time>
      </trkpt>
      <trkpt lat="39.1674990" lon="-3.8606010">
        <ele>626.3</ele>
        <time>2019-08-12T06:40:37Z</time>
      </trkpt>
      <trkpt lat="39.1675520" lon="-3.8605740">
        <ele>626.3</ele>
        <time>2019-08-12T06:40:38Z</time>
      </trkpt>
      <trkpt lat="39.1676050" lon="-3.8605500">
        <ele>626.3</ele>
        <time>2019-08-12T06:40:39Z</time>
      </trkpt>
      <trkpt lat="39.1676580" lon="-3.8605270">
        <ele>626.3</ele>
        <time>2019-08-12T06:40:40Z</time>
      </trkpt>
      <trkpt lat="39.1677130" lon="-3.8605070">
        <ele>626.3</ele>
        <time>2019-08-12T06:40:41Z</time>
      </trkpt>
      <trkpt lat="39.1677670" lon="-3.8604880">
        <ele>626.3</ele>
        <time>2019-08-12T06:40:42Z</time>
      </trkpt>
      <trkpt lat="39.1678220" lon="-3.8604690">
        <ele>626.3</ele>
        <time>2019-08-12T06:40:43Z</time>
      </trkpt>
      <trkpt lat="39.1678770" lon="-3.8604520">
        <ele>626.2</ele>
        <time>2019-08-12T06:40:44Z</time>
      </trkpt>
      <trkpt lat="39.1679320" lon="-3.8604350">
        <ele>626.2</ele>
        <time>2019-08-12T06:40:45Z</time>
      </trkpt>
      <trkpt lat="39.1679880" lon="-3.8604190">
        <ele>626.1</ele>
        <time>2019-08-12T06:40:46Z</time>
      </trkpt>
      <trkpt lat="39.1680440" lon="-3.8604040">
        <ele>626.0</ele>
        <time>2019-08-12T06:40:47Z</time>
      </trkpt>
      <trkpt lat="39.1681000" lon="-3.8603910">
        <ele>625.8</ele>
        <time>2019-08-12T06:40:48Z</time>
      </trkpt>
      <trkpt lat="39.1681570" lon="-3.8603790">
        <ele>625.7</ele>
        <time>2019-08-12T06:40:49Z</time>
      </trkpt>
      <trkpt lat="39.1682140" lon="-3.8603690">
        <ele>625.5</ele>
        <time>2019-08-12T06:40:50Z</time>
      </trkpt>
      <trkpt lat="39.1682710" lon="-3.8603630">
        <ele>625.3</ele>
        <time>2019-08-12T06:40:51Z</time>
      </trkpt>
      <trkpt lat="39.1683270" lon="-3.8603600">
        <ele>625.2</ele>
        <time>2019-08-12T06:40:52Z</time>
      </trkpt>
      <trkpt lat="39.1683830" lon="-3.8603620">
        <ele>625.0</ele>
        <time>2019-08-12T06:40:53Z</time>
      </trkpt>
      <trkpt lat="39.1684370" lon="-3.8603700">
        <ele>624.9</ele>
        <time>2019-08-12T06:40:54Z</time>
      </trkpt>
      <trkpt lat="39.1684890" lon="-3.8603840">
        <ele>624.7</ele>
        <time>2019-08-12T06:40:55Z</time>
      </trkpt>
      <trkpt lat="39.1685390" lon="-3.8604060">
        <ele>624.6</ele>
        <time>2019-08-12T06:40:56Z</time>
      </trkpt>
      <trkpt lat="39.1685870" lon="-3.8604360">
        <ele>624.6</ele>
        <time>2019-08-12T06:40:57Z</time>
      </trkpt>
      <trkpt lat="39.1686320" lon="-3.8604750">
        <ele>624.5</ele>
        <time>2019-08-12T06:40:58Z</time>
      </trkpt>
      <trkpt lat="39.1686720" lon="-3.8605220">
        <ele>624.4</ele>
        <time>2019-08-12T06:40:59Z</time>
      </trkpt>
      <trkpt lat="39.1687070" lon="-3.8605760">
        <ele>624.3</ele>
        <time>2019-08-12T06:41:00Z</time>
      </trkpt>
      <trkpt lat="39.1687360" lon="-3.8606360">
        <ele>624.2</ele>
        <time>2019-08-12T06:41:01Z</time>
      </trkpt>
      <trkpt lat="39.1687560" lon="-3.8607020">
        <ele>624.1</ele>
        <time>2019-08-12T06:41:02Z</time>
      </trkpt>
      <trkpt lat="39.1687670" lon="-3.8607710">
        <ele>624.1</ele>
        <time>2019-08-12T06:41:03Z</time>
      </trkpt>
      <trkpt lat="39.1687650" lon="-3.8608380">
        <ele>624.1</ele>
        <time>2019-08-12T06:41:04Z</time>
      </trkpt>
      <trkpt lat="39.1687490" lon="-3.8608940">
        <ele>624.0</ele>
        <time>2019-08-12T06:41:05Z</time>
      </trkpt>
      <trkpt lat="39.1687150" lon="-3.8609340">
        <ele>624.0</ele>
        <time>2019-08-12T06:41:06Z</time>
      </trkpt>
      <trkpt lat="39.1686630" lon="-3.8609520">
        <ele>624.1</ele>
        <time>2019-08-12T06:41:07Z</time>
      </trkpt>
      <trkpt lat="39.1686000" lon="-3.8609520">
        <ele>624.2</ele>
        <time>2019-08-12T06:41:08Z</time>
      </trkpt>
      <trkpt lat="39.1685350" lon="-3.8609390">
        <ele>624.3</ele>
        <time>2019-08-12T06:41:09Z</time>
      </trkpt>
      <trkpt lat="39.1684750" lon="-3.8609180">
        <ele>624.3</ele>
        <time>2019-08-12T06:41:10Z</time>
      </trkpt>
      <trkpt lat="39.1684160" lon="-3.8608920">
        <ele>624.3</ele>
        <time>2019-08-12T06:41:11Z</time>
      </trkpt>
      <trkpt lat="39.1683530" lon="-3.8608590">
        <ele>624.4</ele>
        <time>2019-08-12T06:41:12Z</time>
      </trkpt>
      <trkpt lat="39.1682900" lon="-3.8608200">
        <ele>624.5</ele>
        <time>2019-08-12T06:41:13Z</time>
      </trkpt>
      <trkpt lat="39.1682330" lon="-3.8607730">
        <ele>624.6</ele>
        <time>2019-08-12T06:41:14Z</time>
      </trkpt>
      <trkpt lat="39.1681880" lon="-3.8607170">
        <ele>624.7</ele>
        <time>2019-08-12T06:41:15Z</time>
      </trkpt>
      <trkpt lat="39.1681600" lon="-3.8606520">
        <ele>624.8</ele>
        <time>2019-08-12T06:41:16Z</time>
      </trkpt>
      <trkpt lat="39.1681480" lon="-3.8605800">
        <ele>624.9</ele>
        <time>2019-08-12T06:41:17Z</time>
      </trkpt>
      <trkpt lat="39.1681470" lon="-3.8605070">
        <ele>625.1</ele>
        <time>2019-08-12T06:41:18Z</time>
      </trkpt>
      <trkpt lat="39.1681600" lon="-3.8604030">
        <ele>625.2</ele>
        <time>2019-08-12T06:41:19Z</time>
      </trkpt>
      <trkpt lat="39.1681660" lon="-3.8603700">
        <ele>625.2</ele>
        <time>2019-08-12T06:41:20Z</time>
      </trkpt>
      <trkpt lat="39.1681810" lon="-3.8603140">
        <ele>625.2</ele>
        <time>2019-08-12T06:41:21Z</time>
      </trkpt>
      <trkpt lat="39.1681960" lon="-3.8602640">
        <ele>625.1</ele>
        <time>2019-08-12T06:41:22Z</time>
      </trkpt>
      <trkpt lat="39.1682100" lon="-3.8602180">
        <ele>625.1</ele>
        <time>2019-08-12T06:41:23Z</time>
      </trkpt>
      <trkpt lat="39.1682210" lon="-3.8601720">
        <ele>625.1</ele>
        <time>2019-08-12T06:41:24Z</time>
      </trkpt>
      <trkpt lat="39.1682290" lon="-3.8601220">
        <ele>625.1</ele>
        <time>2019-08-12T06:41:25Z</time>
      </trkpt>
      <trkpt lat="39.1682320" lon="-3.8600670">
        <ele>625.2</ele>
        <time>2019-08-12T06:41:26Z</time>
      </trkpt>
      <trkpt lat="39.1682300" lon="-3.8600040">
        <ele>625.2</ele>
        <time>2019-08-12T06:41:27Z</time>
      </trkpt>
      <trkpt lat="39.1682230" lon="-3.8599360">
        <ele>625.2</ele>
        <time>2019-08-12T06:41:28Z</time>
      </trkpt>
      <trkpt lat="39.1682220" lon="-3.8598280">
        <ele>625.2</ele>
        <time>2019-08-12T06:41:29Z</time>
      </trkpt>
      <trkpt lat="39.1682290" lon="-3.8597890">
        <ele>625.2</ele>
        <time>2019-08-12T06:41:30Z</time>
      </trkpt>
      <trkpt lat="39.1682350" lon="-3.8597500">
        <ele>625.3</ele>
        <time>2019-08-12T06:41:31Z</time>
      </trkpt>
      <trkpt lat="39.1682520" lon="-3.8596830">
        <ele>625.3</ele>
        <time>2019-08-12T06:41:32Z</time>
      </trkpt>
      <trkpt lat="39.1682640" lon="-3.8596200">
        <ele>625.3</ele>
        <time>2019-08-12T06:41:33Z</time>
      </trkpt>
      <trkpt lat="39.1682680" lon="-3.8595590">
        <ele>625.4</ele>
        <time>2019-08-12T06:41:34Z</time>
      </trkpt>
      <trkpt lat="39.1682570" lon="-3.8594580">
        <ele>625.6</ele>
        <time>2019-08-12T06:41:35Z</time>
      </trkpt>
      <trkpt lat="39.1682490" lon="-3.8594170">
        <ele>625.7</ele>
        <time>2019-08-12T06:41:36Z</time>
      </trkpt>
      <trkpt lat="39.1682410" lon="-3.8593760">
        <ele>625.8</ele>
        <time>2019-08-12T06:41:37Z</time>
      </trkpt>
      <trkpt lat="39.1682250" lon="-3.8593140">
        <ele>626.0</ele>
        <time>2019-08-12T06:41:38Z</time>
      </trkpt>
      <trkpt lat="39.1682100" lon="-3.8592500">
        <ele>626.1</ele>
        <time>2019-08-12T06:41:39Z</time>
      </trkpt>
      <trkpt lat="39.1681960" lon="-3.8591850">
        <ele>626.5</ele>
        <time>2019-08-12T06:41:40Z</time>
      </trkpt>
      <trkpt lat="39.1681850" lon="-3.8591180">
        <ele>626.7</ele>
        <time>2019-08-12T06:41:41Z</time>
      </trkpt>
      <trkpt lat="39.1681760" lon="-3.8590500">
        <ele>627.0</ele>
        <time>2019-08-12T06:41:42Z</time>
      </trkpt>
      <trkpt lat="39.1681670" lon="-3.8589800">
        <ele>627.3</ele>
        <time>2019-08-12T06:41:43Z</time>
      </trkpt>
      <trkpt lat="39.1681580" lon="-3.8589100">
        <ele>627.6</ele>
        <time>2019-08-12T06:41:44Z</time>
      </trkpt>
      <trkpt lat="39.1681430" lon="-3.8587900">
        <ele>628.0</ele>
        <time>2019-08-12T06:41:45Z</time>
      </trkpt>
      <trkpt lat="39.1681380" lon="-3.8587410">
        <ele>628.2</ele>
        <time>2019-08-12T06:41:46Z</time>
      </trkpt>
      <trkpt lat="39.1681320" lon="-3.8586930">
        <ele>628.3</ele>
        <time>2019-08-12T06:41:47Z</time>
      </trkpt>
      <trkpt lat="39.1681240" lon="-3.8586200">
        <ele>628.6</ele>
        <time>2019-08-12T06:41:48Z</time>
      </trkpt>
      <trkpt lat="39.1681170" lon="-3.8585470">
        <ele>628.8</ele>
        <time>2019-08-12T06:41:49Z</time>
      </trkpt>
      <trkpt lat="39.1681090" lon="-3.8584750">
        <ele>629.1</ele>
        <time>2019-08-12T06:41:50Z</time>
      </trkpt>
      <trkpt lat="39.1681020" lon="-3.8584040">
        <ele>629.3</ele>
        <time>2019-08-12T06:41:51Z</time>
      </trkpt>
      <trkpt lat="39.1680950" lon="-3.8583330">
        <ele>629.5</ele>
        <time>2019-08-12T06:41:52Z</time>
      </trkpt>
      <trkpt lat="39.1680880" lon="-3.8582640">
        <ele>629.7</ele>
        <time>2019-08-12T06:41:53Z</time>
      </trkpt>
      <trkpt lat="39.1680820" lon="-3.8581960">
        <ele>629.9</ele>
        <time>2019-08-12T06:41:54Z</time>
      </trkpt>
      <trkpt lat="39.1680760" lon="-3.8581300">
        <ele>630.1</ele>
        <time>2019-08-12T06:41:55Z</time>
      </trkpt>
      <trkpt lat="39.1680700" lon="-3.8580640">
        <ele>630.3</ele>
        <time>2019-08-12T06:41:56Z</time>
      </trkpt>
      <trkpt lat="39.1680640" lon="-3.8579990">
        <ele>630.5</ele>
        <time>2019-08-12T06:41:57Z</time>
      </trkpt>
      <trkpt lat="39.1680590" lon="-3.8579340">
        <ele>630.7</ele>
        <time>2019-08-12T06:41:58Z</time>
      </trkpt>
      <trkpt lat="39.1680540" lon="-3.8578700">
        <ele>630.9</ele>
        <time>2019-08-12T06:41:59Z</time>
      </trkpt>
      <trkpt lat="39.1680490" lon="-3.8578060">
        <ele>631.0</ele>
        <time>2019-08-12T06:42:00Z</time>
      </trkpt>
      <trkpt lat="39.1680440" lon="-3.8577430">
        <ele>631.2</ele>
        <time>2019-08-12T06:42:01Z</time>
      </trkpt>
      <trkpt lat="39.1680400" lon="-3.8576800">
        <ele>631.4</ele>
        <time>2019-08-12T06:42:02Z</time>
      </trkpt>
      <trkpt lat="39.1680350" lon="-3.8576160">
        <ele>631.7</ele>
        <time>2019-08-12T06:42:03Z</time>
      </trkpt>
      <trkpt lat="39.1680300" lon="-3.8575530">
        <ele>631.9</ele>
        <time>2019-08-12T06:42:04Z</time>
      </trkpt>
      <trkpt lat="39.1680260" lon="-3.8574890">
        <ele>632.1</ele>
        <time>2019-08-12T06:42:05Z</time>
      </trkpt>
      <trkpt lat="39.1680210" lon="-3.8574250">
        <ele>632.3</ele>
        <time>2019-08-12T06:42:06Z</time>
      </trkpt>
      <trkpt lat="39.1680150" lon="-3.8573610">
        <ele>632.5</ele>
        <time>2019-08-12T06:42:07Z</time>
      </trkpt>
      <trkpt lat="39.1680100" lon="-3.8572970">
        <ele>632.7</ele>
        <time>2019-08-12T06:42:08Z</time>
      </trkpt>
      <trkpt lat="39.1680030" lon="-3.8572320">
        <ele>633.0</ele>
        <time>2019-08-12T06:42:09Z</time>
      </trkpt>
      <trkpt lat="39.1679960" lon="-3.8571670">
        <ele>633.4</ele>
        <time>2019-08-12T06:42:10Z</time>
      </trkpt>
      <trkpt lat="39.1679880" lon="-3.8571010">
        <ele>633.9</ele>
        <time>2019-08-12T06:42:11Z</time>
      </trkpt>
      <trkpt lat="39.1679790" lon="-3.8570350">
        <ele>634.3</ele>
        <time>2019-08-12T06:42:12Z</time>
      </trkpt>
      <trkpt lat="39.1679690" lon="-3.8569680">
        <ele>634.7</ele>
        <time>2019-08-12T06:42:13Z</time>
      </trkpt>
      <trkpt lat="39.1679590" lon="-3.8569020">
        <ele>635.2</ele>
        <time>2019-08-12T06:42:14Z</time>
      </trkpt>
      <trkpt lat="39.1679480" lon="-3.8568350">
        <ele>635.6</ele>
        <time>2019-08-12T06:42:15Z</time>
      </trkpt>
      <trkpt lat="39.1679370" lon="-3.8567690">
        <ele>636.2</ele>
        <time>2019-08-12T06:42:16Z</time>
      </trkpt>
      <trkpt lat="39.1679260" lon="-3.8567020">
        <ele>636.2</ele>
        <time>2019-08-12T06:42:17Z</time>
      </trkpt>
      <trkpt lat="39.1679140" lon="-3.8566360">
        <ele>636.6</ele>
        <time>2019-08-12T06:42:18Z</time>
      </trkpt>
      <trkpt lat="39.1679030" lon="-3.8565710">
        <ele>636.8</ele>
        <time>2019-08-12T06:42:19Z</time>
      </trkpt>
      <trkpt lat="39.1678930" lon="-3.8565060">
        <ele>637.1</ele>
        <time>2019-08-12T06:42:20Z</time>
      </trkpt>
      <trkpt lat="39.1678830" lon="-3.8564430">
        <ele>637.3</ele>
        <time>2019-08-12T06:42:21Z</time>
      </trkpt>
      <trkpt lat="39.1678730" lon="-3.8563800">
        <ele>637.5</ele>
        <time>2019-08-12T06:42:22Z</time>
      </trkpt>
      <trkpt lat="39.1678630" lon="-3.8563170">
        <ele>637.9</ele>
        <time>2019-08-12T06:42:23Z</time>
      </trkpt>
      <trkpt lat="39.1678530" lon="-3.8562550">
        <ele>638.2</ele>
        <time>2019-08-12T06:42:24Z</time>
      </trkpt>
      <trkpt lat="39.1678430" lon="-3.8561940">
        <ele>638.5</ele>
        <time>2019-08-12T06:42:25Z</time>
      </trkpt>
      <trkpt lat="39.1678330" lon="-3.8561330">
        <ele>638.7</ele>
        <time>2019-08-12T06:42:26Z</time>
      </trkpt>
      <trkpt lat="39.1678220" lon="-3.8560720">
        <ele>639.0</ele>
        <time>2019-08-12T06:42:27Z</time>
      </trkpt>
      <trkpt lat="39.1678100" lon="-3.8560110">
        <ele>639.1</ele>
        <time>2019-08-12T06:42:28Z</time>
      </trkpt>
      <trkpt lat="39.1677970" lon="-3.8559510">
        <ele>639.1</ele>
        <time>2019-08-12T06:42:29Z</time>
      </trkpt>
      <trkpt lat="39.1677830" lon="-3.8558900">
        <ele>639.2</ele>
        <time>2019-08-12T06:42:30Z</time>
      </trkpt>
      <trkpt lat="39.1677680" lon="-3.8558290">
        <ele>639.3</ele>
        <time>2019-08-12T06:42:31Z</time>
      </trkpt>
      <trkpt lat="39.1677530" lon="-3.8557670">
        <ele>639.4</ele>
        <time>2019-08-12T06:42:32Z</time>
      </trkpt>
      <trkpt lat="39.1677360" lon="-3.8557050">
        <ele>639.5</ele>
        <time>2019-08-12T06:42:33Z</time>
      </trkpt>
      <trkpt lat="39.1677190" lon="-3.8556410">
        <ele>639.5</ele>
        <time>2019-08-12T06:42:34Z</time>
      </trkpt>
      <trkpt lat="39.1677020" lon="-3.8555770">
        <ele>639.6</ele>
        <time>2019-08-12T06:42:35Z</time>
      </trkpt>
      <trkpt lat="39.1676850" lon="-3.8555110">
        <ele>639.6</ele>
        <time>2019-08-12T06:42:36Z</time>
      </trkpt>
      <trkpt lat="39.1676670" lon="-3.8554430">
        <ele>639.7</ele>
        <time>2019-08-12T06:42:37Z</time>
      </trkpt>
      <trkpt lat="39.1676500" lon="-3.8553740">
        <ele>639.7</ele>
        <time>2019-08-12T06:42:38Z</time>
      </trkpt>
      <trkpt lat="39.1676330" lon="-3.8553030">
        <ele>639.8</ele>
        <time>2019-08-12T06:42:39Z</time>
      </trkpt>
      <trkpt lat="39.1676170" lon="-3.8552300">
        <ele>639.9</ele>
        <time>2019-08-12T06:42:40Z</time>
      </trkpt>
      <trkpt lat="39.1676000" lon="-3.8551550">
        <ele>640.0</ele>
        <time>2019-08-12T06:42:41Z</time>
      </trkpt>
      <trkpt lat="39.1675830" lon="-3.8550790">
        <ele>640.1</ele>
        <time>2019-08-12T06:42:42Z</time>
      </trkpt>
      <trkpt lat="39.1675660" lon="-3.8550030">
        <ele>640.1</ele>
        <time>2019-08-12T06:42:43Z</time>
      </trkpt>
      <trkpt lat="39.1675490" lon="-3.8549250">
        <ele>640.2</ele>
        <time>2019-08-12T06:42:44Z</time>
      </trkpt>
      <trkpt lat="39.1675300" lon="-3.8548470">
        <ele>640.2</ele>
        <time>2019-08-12T06:42:45Z</time>
      </trkpt>
      <trkpt lat="39.1675120" lon="-3.8547680">
        <ele>640.2</ele>
        <time>2019-08-12T06:42:46Z</time>
      </trkpt>
      <trkpt lat="39.1674920" lon="-3.8546890">
        <ele>640.3</ele>
        <time>2019-08-12T06:42:47Z</time>
      </trkpt>
      <trkpt lat="39.1674710" lon="-3.8546100">
        <ele>640.3</ele>
        <time>2019-08-12T06:42:48Z</time>
      </trkpt>
      <trkpt lat="39.1674490" lon="-3.8545320">
        <ele>640.3</ele>
        <time>2019-08-12T06:42:49Z</time>
      </trkpt>
      <trkpt lat="39.1674270" lon="-3.8544530">
        <ele>640.2</ele>
        <time>2019-08-12T06:42:50Z</time>
      </trkpt>
      <trkpt lat="39.1674040" lon="-3.8543740">
        <ele>640.2</ele>
        <time>2019-08-12T06:42:51Z</time>
      </trkpt>
      <trkpt lat="39.1673800" lon="-3.8542950">
        <ele>640.3</ele>
        <time>2019-08-12T06:42:52Z</time>
      </trkpt>
      <trkpt lat="39.1673550" lon="-3.8542170">
        <ele>640.3</ele>
        <time>2019-08-12T06:42:53Z</time>
      </trkpt>
      <trkpt lat="39.1673300" lon="-3.8541380">
        <ele>640.3</ele>
        <time>2019-08-12T06:42:54Z</time>
      </trkpt>
      <trkpt lat="39.1673050" lon="-3.8540580">
        <ele>640.4</ele>
        <time>2019-08-12T06:42:55Z</time>
      </trkpt>
      <trkpt lat="39.1672800" lon="-3.8539790">
        <ele>640.4</ele>
        <time>2019-08-12T06:42:56Z</time>
      </trkpt>
      <trkpt lat="39.1672540" lon="-3.8539000">
        <ele>640.4</ele>
        <time>2019-08-12T06:42:57Z</time>
      </trkpt>
      <trkpt lat="39.1672270" lon="-3.8538210">
        <ele>640.4</ele>
        <time>2019-08-12T06:42:58Z</time>
      </trkpt>
      <trkpt lat="39.1671990" lon="-3.8537440">
        <ele>640.4</ele>
        <time>2019-08-12T06:42:59Z</time>
      </trkpt>
      <trkpt lat="39.1671690" lon="-3.8536710">
        <ele>640.3</ele>
        <time>2019-08-12T06:43:00Z</time>
      </trkpt>
      <trkpt lat="39.1671360" lon="-3.8536010">
        <ele>640.2</ele>
        <time>2019-08-12T06:43:01Z</time>
      </trkpt>
      <trkpt lat="39.1671000" lon="-3.8535360">
        <ele>640.2</ele>
        <time>2019-08-12T06:43:02Z</time>
      </trkpt>
      <trkpt lat="39.1670630" lon="-3.8534750">
        <ele>640.1</ele>
        <time>2019-08-12T06:43:03Z</time>
      </trkpt>
      <trkpt lat="39.1670270" lon="-3.8534160">
        <ele>639.9</ele>
        <time>2019-08-12T06:43:04Z</time>
      </trkpt>
      <trkpt lat="39.1669950" lon="-3.8533580">
        <ele>639.8</ele>
        <time>2019-08-12T06:43:05Z</time>
      </trkpt>
      <trkpt lat="39.1669680" lon="-3.8532990">
        <ele>639.6</ele>
        <time>2019-08-12T06:43:06Z</time>
      </trkpt>
      <trkpt lat="39.1669480" lon="-3.8532400">
        <ele>639.5</ele>
        <time>2019-08-12T06:43:07Z</time>
      </trkpt>
      <trkpt lat="39.1669350" lon="-3.8531810">
        <ele>639.4</ele>
        <time>2019-08-12T06:43:08Z</time>
      </trkpt>
      <trkpt lat="39.1669300" lon="-3.8531220">
        <ele>639.4</ele>
        <time>2019-08-12T06:43:09Z</time>
      </trkpt>
      <trkpt lat="39.1669340" lon="-3.8530640">
        <ele>639.5</ele>
        <time>2019-08-12T06:43:10Z</time>
      </trkpt>
      <trkpt lat="39.1669470" lon="-3.8530060">
        <ele>639.6</ele>
        <time>2019-08-12T06:43:11Z</time>
      </trkpt>
      <trkpt lat="39.1669680" lon="-3.8529480">
        <ele>639.7</ele>
        <time>2019-08-12T06:43:12Z</time>
      </trkpt>
      <trkpt lat="39.1669940" lon="-3.8528910">
        <ele>639.7</ele>
        <time>2019-08-12T06:43:13Z</time>
      </trkpt>
      <trkpt lat="39.1670250" lon="-3.8528320">
        <ele>639.8</ele>
        <time>2019-08-12T06:43:14Z</time>
      </trkpt>
      <trkpt lat="39.1670770" lon="-3.8527410">
        <ele>639.9</ele>
        <time>2019-08-12T06:43:15Z</time>
      </trkpt>
      <trkpt lat="39.1670940" lon="-3.8527100">
        <ele>639.9</ele>
        <time>2019-08-12T06:43:16Z</time>
      </trkpt>
      <trkpt lat="39.1671300" lon="-3.8526470">
        <ele>640.0</ele>
        <time>2019-08-12T06:43:17Z</time>
      </trkpt>
      <trkpt lat="39.1671670" lon="-3.8525830">
        <ele>640.0</ele>
        <time>2019-08-12T06:43:18Z</time>
      </trkpt>
      <trkpt lat="39.1672040" lon="-3.8525180">
        <ele>640.1</ele>
        <time>2019-08-12T06:43:19Z</time>
      </trkpt>
      <trkpt lat="39.1672410" lon="-3.8524530">
        <ele>640.1</ele>
        <time>2019-08-12T06:43:20Z</time>
      </trkpt>
      <trkpt lat="39.1672780" lon="-3.8523880">
        <ele>640.2</ele>
        <time>2019-08-12T06:43:21Z</time>
      </trkpt>
      <trkpt lat="39.1673150" lon="-3.8523240">
        <ele>640.2</ele>
        <time>2019-08-12T06:43:22Z</time>
      </trkpt>
      <trkpt lat="39.1673520" lon="-3.8522610">
        <ele>640.2</ele>
        <time>2019-08-12T06:43:23Z</time>
      </trkpt>
      <trkpt lat="39.1673880" lon="-3.8522000">
        <ele>640.2</ele>
        <time>2019-08-12T06:43:24Z</time>
      </trkpt>
      <trkpt lat="39.1674230" lon="-3.8521410">
        <ele>640.2</ele>
        <time>2019-08-12T06:43:25Z</time>
      </trkpt>
      <trkpt lat="39.1674570" lon="-3.8520840">
        <ele>640.2</ele>
        <time>2019-08-12T06:43:26Z</time>
      </trkpt>
      <trkpt lat="39.1674910" lon="-3.8520280">
        <ele>640.1</ele>
        <time>2019-08-12T06:43:27Z</time>
      </trkpt>
      <trkpt lat="39.1675240" lon="-3.8519720">
        <ele>640.1</ele>
        <time>2019-08-12T06:43:28Z</time>
      </trkpt>
      <trkpt lat="39.1675560" lon="-3.8519160">
        <ele>640.1</ele>
        <time>2019-08-12T06:43:29Z</time>
      </trkpt>
      <trkpt lat="39.1675880" lon="-3.8518600">
        <ele>640.1</ele>
        <time>2019-08-12T06:43:30Z</time>
      </trkpt>
      <trkpt lat="39.1676200" lon="-3.8518040">
        <ele>640.2</ele>
        <time>2019-08-12T06:43:31Z</time>
      </trkpt>
      <trkpt lat="39.1676520" lon="-3.8517470">
        <ele>640.2</ele>
        <time>2019-08-12T06:43:32Z</time>
      </trkpt>
      <trkpt lat="39.1676840" lon="-3.8516900">
        <ele>640.3</ele>
        <time>2019-08-12T06:43:33Z</time>
      </trkpt>
      <trkpt lat="39.1677180" lon="-3.8516330">
        <ele>640.4</ele>
        <time>2019-08-12T06:43:34Z</time>
      </trkpt>
      <trkpt lat="39.1677510" lon="-3.8515750">
        <ele>640.5</ele>
        <time>2019-08-12T06:43:35Z</time>
      </trkpt>
      <trkpt lat="39.1677860" lon="-3.8515170">
        <ele>640.7</ele>
        <time>2019-08-12T06:43:36Z</time>
      </trkpt>
      <trkpt lat="39.1678200" lon="-3.8514570">
        <ele>640.9</ele>
        <time>2019-08-12T06:43:37Z</time>
      </trkpt>
      <trkpt lat="39.1678790" lon="-3.8513540">
        <ele>640.9</ele>
        <time>2019-08-12T06:43:38Z</time>
      </trkpt>
      <trkpt lat="39.1679020" lon="-3.8513120">
        <ele>640.9</ele>
        <time>2019-08-12T06:43:39Z</time>
      </trkpt>
      <trkpt lat="39.1679260" lon="-3.8512700">
        <ele>641.0</ele>
        <time>2019-08-12T06:43:40Z</time>
      </trkpt>
      <trkpt lat="39.1679610" lon="-3.8512060">
        <ele>641.0</ele>
        <time>2019-08-12T06:43:41Z</time>
      </trkpt>
      <trkpt lat="39.1679970" lon="-3.8511420">
        <ele>641.0</ele>
        <time>2019-08-12T06:43:42Z</time>
      </trkpt>
      <trkpt lat="39.1680580" lon="-3.8510360">
        <ele>641.1</ele>
        <time>2019-08-12T06:43:43Z</time>
      </trkpt>
      <trkpt lat="39.1680820" lon="-3.8509950">
        <ele>641.1</ele>
        <time>2019-08-12T06:43:44Z</time>
      </trkpt>
      <trkpt lat="39.1681070" lon="-3.8509530">
        <ele>641.0</ele>
        <time>2019-08-12T06:43:45Z</time>
      </trkpt>
      <trkpt lat="39.1681450" lon="-3.8508900">
        <ele>641.0</ele>
        <time>2019-08-12T06:43:46Z</time>
      </trkpt>
      <trkpt lat="39.1681830" lon="-3.8508290">
        <ele>641.0</ele>
        <time>2019-08-12T06:43:47Z</time>
      </trkpt>
      <trkpt lat="39.1682200" lon="-3.8507670">
        <ele>641.0</ele>
        <time>2019-08-12T06:43:48Z</time>
      </trkpt>
      <trkpt lat="39.1682580" lon="-3.8507060">
        <ele>641.0</ele>
        <time>2019-08-12T06:43:49Z</time>
      </trkpt>
      <trkpt lat="39.1682960" lon="-3.8506460">
        <ele>641.0</ele>
        <time>2019-08-12T06:43:50Z</time>
      </trkpt>
      <trkpt lat="39.1683340" lon="-3.8505860">
        <ele>640.9</ele>
        <time>2019-08-12T06:43:51Z</time>
      </trkpt>
      <trkpt lat="39.1683720" lon="-3.8505260">
        <ele>640.9</ele>
        <time>2019-08-12T06:43:52Z</time>
      </trkpt>
      <trkpt lat="39.1684100" lon="-3.8504660">
        <ele>641.0</ele>
        <time>2019-08-12T06:43:53Z</time>
      </trkpt>
      <trkpt lat="39.1684470" lon="-3.8504070">
        <ele>641.0</ele>
        <time>2019-08-12T06:43:54Z</time>
      </trkpt>
      <trkpt lat="39.1684850" lon="-3.8503470">
        <ele>641.0</ele>
        <time>2019-08-12T06:43:55Z</time>
      </trkpt>
      <trkpt lat="39.1685220" lon="-3.8502870">
        <ele>641.0</ele>
        <time>2019-08-12T06:43:56Z</time>
      </trkpt>
      <trkpt lat="39.1685590" lon="-3.8502270">
        <ele>641.0</ele>
        <time>2019-08-12T06:43:57Z</time>
      </trkpt>
      <trkpt lat="39.1685970" lon="-3.8501670">
        <ele>641.1</ele>
        <time>2019-08-12T06:43:58Z</time>
      </trkpt>
      <trkpt lat="39.1686340" lon="-3.8501060">
        <ele>641.1</ele>
        <time>2019-08-12T06:43:59Z</time>
      </trkpt>
      <trkpt lat="39.1686720" lon="-3.8500440">
        <ele>641.1</ele>
        <time>2019-08-12T06:44:00Z</time>
      </trkpt>
      <trkpt lat="39.1687100" lon="-3.8499810">
        <ele>641.2</ele>
        <time>2019-08-12T06:44:01Z</time>
      </trkpt>
      <trkpt lat="39.1687480" lon="-3.8499180">
        <ele>641.2</ele>
        <time>2019-08-12T06:44:02Z</time>
      </trkpt>
      <trkpt lat="39.1687860" lon="-3.8498530">
        <ele>641.2</ele>
        <time>2019-08-12T06:44:03Z</time>
      </trkpt>
      <trkpt lat="39.1688250" lon="-3.8497880">
        <ele>641.2</ele>
        <time>2019-08-12T06:44:04Z</time>
      </trkpt>
      <trkpt lat="39.1688620" lon="-3.8497240">
        <ele>641.2</ele>
        <time>2019-08-12T06:44:05Z</time>
      </trkpt>
      <trkpt lat="39.1688990" lon="-3.8496590">
        <ele>641.2</ele>
        <time>2019-08-12T06:44:06Z</time>
      </trkpt>
      <trkpt lat="39.1689350" lon="-3.8495950">
        <ele>641.2</ele>
        <time>2019-08-12T06:44:07Z</time>
      </trkpt>
      <trkpt lat="39.1689710" lon="-3.8495320">
        <ele>641.2</ele>
        <time>2019-08-12T06:44:08Z</time>
      </trkpt>
      <trkpt lat="39.1690070" lon="-3.8494690">
        <ele>641.2</ele>
        <time>2019-08-12T06:44:09Z</time>
      </trkpt>
      <trkpt lat="39.1690420" lon="-3.8494070">
        <ele>641.4</ele>
        <time>2019-08-12T06:44:10Z</time>
      </trkpt>
      <trkpt lat="39.1690780" lon="-3.8493450">
        <ele>641.5</ele>
        <time>2019-08-12T06:44:11Z</time>
      </trkpt>
      <trkpt lat="39.1691150" lon="-3.8492840">
        <ele>641.6</ele>
        <time>2019-08-12T06:44:12Z</time>
      </trkpt>
      <trkpt lat="39.1691520" lon="-3.8492220">
        <ele>641.6</ele>
        <time>2019-08-12T06:44:13Z</time>
      </trkpt>
      <trkpt lat="39.1691890" lon="-3.8491600">
        <ele>641.7</ele>
        <time>2019-08-12T06:44:14Z</time>
      </trkpt>
      <trkpt lat="39.1692270" lon="-3.8490980">
        <ele>641.7</ele>
        <time>2019-08-12T06:44:15Z</time>
      </trkpt>
      <trkpt lat="39.1692650" lon="-3.8490350">
        <ele>641.7</ele>
        <time>2019-08-12T06:44:16Z</time>
      </trkpt>
      <trkpt lat="39.1693030" lon="-3.8489720">
        <ele>641.7</ele>
        <time>2019-08-12T06:44:17Z</time>
      </trkpt>
      <trkpt lat="39.1693410" lon="-3.8489080">
        <ele>641.5</ele>
        <time>2019-08-12T06:44:18Z</time>
      </trkpt>
      <trkpt lat="39.1693800" lon="-3.8488440">
        <ele>641.4</ele>
        <time>2019-08-12T06:44:19Z</time>
      </trkpt>
      <trkpt lat="39.1694180" lon="-3.8487800">
        <ele>641.2</ele>
        <time>2019-08-12T06:44:20Z</time>
      </trkpt>
      <trkpt lat="39.1694560" lon="-3.8487150">
        <ele>641.0</ele>
        <time>2019-08-12T06:44:21Z</time>
      </trkpt>
      <trkpt lat="39.1694940" lon="-3.8486500">
        <ele>640.8</ele>
        <time>2019-08-12T06:44:22Z</time>
      </trkpt>
      <trkpt lat="39.1695320" lon="-3.8485850">
        <ele>640.7</ele>
        <time>2019-08-12T06:44:23Z</time>
      </trkpt>
      <trkpt lat="39.1695700" lon="-3.8485190">
        <ele>640.6</ele>
        <time>2019-08-12T06:44:24Z</time>
      </trkpt>
      <trkpt lat="39.1696080" lon="-3.8484540">
        <ele>640.4</ele>
        <time>2019-08-12T06:44:25Z</time>
      </trkpt>
      <trkpt lat="39.1696460" lon="-3.8483880">
        <ele>640.3</ele>
        <time>2019-08-12T06:44:26Z</time>
      </trkpt>
      <trkpt lat="39.1696850" lon="-3.8483220">
        <ele>640.1</ele>
        <time>2019-08-12T06:44:27Z</time>
      </trkpt>
      <trkpt lat="39.1697240" lon="-3.8482560">
        <ele>640.0</ele>
        <time>2019-08-12T06:44:28Z</time>
      </trkpt>
      <trkpt lat="39.1697630" lon="-3.8481900">
        <ele>639.9</ele>
        <time>2019-08-12T06:44:29Z</time>
      </trkpt>
      <trkpt lat="39.1698020" lon="-3.8481240">
        <ele>639.8</ele>
        <time>2019-08-12T06:44:30Z</time>
      </trkpt>
      <trkpt lat="39.1698430" lon="-3.8480580">
        <ele>639.6</ele>
        <time>2019-08-12T06:44:31Z</time>
      </trkpt>
      <trkpt lat="39.1698830" lon="-3.8479910">
        <ele>639.6</ele>
        <time>2019-08-12T06:44:32Z</time>
      </trkpt>
      <trkpt lat="39.1699240" lon="-3.8479250">
        <ele>639.6</ele>
        <time>2019-08-12T06:44:33Z</time>
      </trkpt>
      <trkpt lat="39.1699640" lon="-3.8478590">
        <ele>639.6</ele>
        <time>2019-08-12T06:44:34Z</time>
      </trkpt>
      <trkpt lat="39.1700050" lon="-3.8477920">
        <ele>639.6</ele>
        <time>2019-08-12T06:44:35Z</time>
      </trkpt>
      <trkpt lat="39.1700460" lon="-3.8477260">
        <ele>639.5</ele>
        <time>2019-08-12T06:44:36Z</time>
      </trkpt>
      <trkpt lat="39.1700870" lon="-3.8476590">
        <ele>639.5</ele>
        <time>2019-08-12T06:44:37Z</time>
      </trkpt>
      <trkpt lat="39.1701280" lon="-3.8475930">
        <ele>639.6</ele>
        <time>2019-08-12T06:44:38Z</time>
      </trkpt>
      <trkpt lat="39.1701680" lon="-3.8475260">
        <ele>639.6</ele>
        <time>2019-08-12T06:44:39Z</time>
      </trkpt>
      <trkpt lat="39.1702090" lon="-3.8474590">
        <ele>639.7</ele>
        <time>2019-08-12T06:44:40Z</time>
      </trkpt>
      <trkpt lat="39.1702490" lon="-3.8473910">
        <ele>639.8</ele>
        <time>2019-08-12T06:44:41Z</time>
      </trkpt>
      <trkpt lat="39.1702890" lon="-3.8473230">
        <ele>639.8</ele>
        <time>2019-08-12T06:44:42Z</time>
      </trkpt>
      <trkpt lat="39.1703300" lon="-3.8472540">
        <ele>639.9</ele>
        <time>2019-08-12T06:44:43Z</time>
      </trkpt>
      <trkpt lat="39.1703700" lon="-3.8471840">
        <ele>639.9</ele>
        <time>2019-08-12T06:44:44Z</time>
      </trkpt>
      <trkpt lat="39.1704100" lon="-3.8471130">
        <ele>640.1</ele>
        <time>2019-08-12T06:44:45Z</time>
      </trkpt>
      <trkpt lat="39.1704500" lon="-3.8470410">
        <ele>640.1</ele>
        <time>2019-08-12T06:44:46Z</time>
      </trkpt>
      <trkpt lat="39.1704900" lon="-3.8469680">
        <ele>640.1</ele>
        <time>2019-08-12T06:44:47Z</time>
      </trkpt>
      <trkpt lat="39.1705290" lon="-3.8468950">
        <ele>640.1</ele>
        <time>2019-08-12T06:44:48Z</time>
      </trkpt>
      <trkpt lat="39.1705690" lon="-3.8468210">
        <ele>640.1</ele>
        <time>2019-08-12T06:44:49Z</time>
      </trkpt>
      <trkpt lat="39.1706080" lon="-3.8467460">
        <ele>640.1</ele>
        <time>2019-08-12T06:44:50Z</time>
      </trkpt>
      <trkpt lat="39.1706460" lon="-3.8466700">
        <ele>640.2</ele>
        <time>2019-08-12T06:44:51Z</time>
      </trkpt>
      <trkpt lat="39.1706850" lon="-3.8465940">
        <ele>640.2</ele>
        <time>2019-08-12T06:44:52Z</time>
      </trkpt>
      <trkpt lat="39.1707230" lon="-3.8465170">
        <ele>640.4</ele>
        <time>2019-08-12T06:44:53Z</time>
      </trkpt>
      <trkpt lat="39.1707610" lon="-3.8464400">
        <ele>640.4</ele>
        <time>2019-08-12T06:44:54Z</time>
      </trkpt>
      <trkpt lat="39.1707980" lon="-3.8463630">
        <ele>640.5</ele>
        <time>2019-08-12T06:44:55Z</time>
      </trkpt>
      <trkpt lat="39.1708360" lon="-3.8462850">
        <ele>640.6</ele>
        <time>2019-08-12T06:44:56Z</time>
      </trkpt>
      <trkpt lat="39.1708720" lon="-3.8462060">
        <ele>640.6</ele>
        <time>2019-08-12T06:44:57Z</time>
      </trkpt>
      <trkpt lat="39.1709090" lon="-3.8461270">
        <ele>640.7</ele>
        <time>2019-08-12T06:44:58Z</time>
      </trkpt>
      <trkpt lat="39.1709450" lon="-3.8460480">
        <ele>640.7</ele>
        <time>2019-08-12T06:44:59Z</time>
      </trkpt>
      <trkpt lat="39.1709810" lon="-3.8459690">
        <ele>640.7</ele>
        <time>2019-08-12T06:45:00Z</time>
      </trkpt>
      <trkpt lat="39.1710160" lon="-3.8458890">
        <ele>640.8</ele>
        <time>2019-08-12T06:45:01Z</time>
      </trkpt>
      <trkpt lat="39.1710520" lon="-3.8458090">
        <ele>640.7</ele>
        <time>2019-08-12T06:45:02Z</time>
      </trkpt>
      <trkpt lat="39.1710880" lon="-3.8457290">
        <ele>640.7</ele>
        <time>2019-08-12T06:45:03Z</time>
      </trkpt>
      <trkpt lat="39.1711240" lon="-3.8456480">
        <ele>640.7</ele>
        <time>2019-08-12T06:45:04Z</time>
      </trkpt>
      <trkpt lat="39.1711600" lon="-3.8455670">
        <ele>640.6</ele>
        <time>2019-08-12T06:45:05Z</time>
      </trkpt>
      <trkpt lat="39.1711960" lon="-3.8454860">
        <ele>640.6</ele>
        <time>2019-08-12T06:45:06Z</time>
      </trkpt>
      <trkpt lat="39.1712330" lon="-3.8454050">
        <ele>640.6</ele>
        <time>2019-08-12T06:45:07Z</time>
      </trkpt>
      <trkpt lat="39.1712690" lon="-3.8453230">
        <ele>640.5</ele>
        <time>2019-08-12T06:45:08Z</time>
      </trkpt>
      <trkpt lat="39.1713060" lon="-3.8452410">
        <ele>640.5</ele>
        <time>2019-08-12T06:45:09Z</time>
      </trkpt>
      <trkpt lat="39.1713420" lon="-3.8451580">
        <ele>640.4</ele>
        <time>2019-08-12T06:45:10Z</time>
      </trkpt>
      <trkpt lat="39.1713770" lon="-3.8450740">
        <ele>640.4</ele>
        <time>2019-08-12T06:45:11Z</time>
      </trkpt>
      <trkpt lat="39.1714110" lon="-3.8449900">
        <ele>640.3</ele>
        <time>2019-08-12T06:45:12Z</time>
      </trkpt>
      <trkpt lat="39.1714440" lon="-3.8449040">
        <ele>640.2</ele>
        <time>2019-08-12T06:45:13Z</time>
      </trkpt>
      <trkpt lat="39.1714760" lon="-3.8448180">
        <ele>640.2</ele>
        <time>2019-08-12T06:45:14Z</time>
      </trkpt>
      <trkpt lat="39.1715060" lon="-3.8447300">
        <ele>640.2</ele>
        <time>2019-08-12T06:45:15Z</time>
      </trkpt>
      <trkpt lat="39.1715340" lon="-3.8446410">
        <ele>640.2</ele>
        <time>2019-08-12T06:45:16Z</time>
      </trkpt>
      <trkpt lat="39.1715610" lon="-3.8445510">
        <ele>640.2</ele>
        <time>2019-08-12T06:45:17Z</time>
      </trkpt>
      <trkpt lat="39.1715870" lon="-3.8444600">
        <ele>640.2</ele>
        <time>2019-08-12T06:45:18Z</time>
      </trkpt>
      <trkpt lat="39.1716120" lon="-3.8443700">
        <ele>640.2</ele>
        <time>2019-08-12T06:45:19Z</time>
      </trkpt>
      <trkpt lat="39.1716370" lon="-3.8442810">
        <ele>640.2</ele>
        <time>2019-08-12T06:45:20Z</time>
      </trkpt>
      <trkpt lat="39.1716630" lon="-3.8441920">
        <ele>640.3</ele>
        <time>2019-08-12T06:45:21Z</time>
      </trkpt>
      <trkpt lat="39.1716890" lon="-3.8441060">
        <ele>640.3</ele>
        <time>2019-08-12T06:45:22Z</time>
      </trkpt>
      <trkpt lat="39.1717170" lon="-3.8440210">
        <ele>640.3</ele>
        <time>2019-08-12T06:45:23Z</time>
      </trkpt>
      <trkpt lat="39.1717460" lon="-3.8439390">
        <ele>640.3</ele>
        <time>2019-08-12T06:45:24Z</time>
      </trkpt>
      <trkpt lat="39.1717770" lon="-3.8438600">
        <ele>640.3</ele>
        <time>2019-08-12T06:45:25Z</time>
      </trkpt>
      <trkpt lat="39.1718100" lon="-3.8437830">
        <ele>640.2</ele>
        <time>2019-08-12T06:45:26Z</time>
      </trkpt>
      <trkpt lat="39.1718430" lon="-3.8437070">
        <ele>640.1</ele>
        <time>2019-08-12T06:45:27Z</time>
      </trkpt>
      <trkpt lat="39.1718770" lon="-3.8436310">
        <ele>640.1</ele>
        <time>2019-08-12T06:45:28Z</time>
      </trkpt>
      <trkpt lat="39.1719110" lon="-3.8435530">
        <ele>640.2</ele>
        <time>2019-08-12T06:45:29Z</time>
      </trkpt>
      <trkpt lat="39.1719430" lon="-3.8434740">
        <ele>640.2</ele>
        <time>2019-08-12T06:45:30Z</time>
      </trkpt>
      <trkpt lat="39.1719750" lon="-3.8433930">
        <ele>640.2</ele>
        <time>2019-08-12T06:45:31Z</time>
      </trkpt>
      <trkpt lat="39.1720080" lon="-3.8433120">
        <ele>640.2</ele>
        <time>2019-08-12T06:45:32Z</time>
      </trkpt>
      <trkpt lat="39.1720400" lon="-3.8432320">
        <ele>640.2</ele>
        <time>2019-08-12T06:45:33Z</time>
      </trkpt>
      <trkpt lat="39.1720740" lon="-3.8431530">
        <ele>640.2</ele>
        <time>2019-08-12T06:45:34Z</time>
      </trkpt>
      <trkpt lat="39.1721090" lon="-3.8430760">
        <ele>640.2</ele>
        <time>2019-08-12T06:45:35Z</time>
      </trkpt>
      <trkpt lat="39.1721440" lon="-3.8430000">
        <ele>640.2</ele>
        <time>2019-08-12T06:45:36Z</time>
      </trkpt>
      <trkpt lat="39.1721810" lon="-3.8429260">
        <ele>640.2</ele>
        <time>2019-08-12T06:45:37Z</time>
      </trkpt>
      <trkpt lat="39.1722180" lon="-3.8428520">
        <ele>640.2</ele>
        <time>2019-08-12T06:45:38Z</time>
      </trkpt>
      <trkpt lat="39.1722560" lon="-3.8427790">
        <ele>640.3</ele>
        <time>2019-08-12T06:45:39Z</time>
      </trkpt>
      <trkpt lat="39.1722940" lon="-3.8427060">
        <ele>640.2</ele>
        <time>2019-08-12T06:45:40Z</time>
      </trkpt>
      <trkpt lat="39.1723330" lon="-3.8426330">
        <ele>640.1</ele>
        <time>2019-08-12T06:45:41Z</time>
      </trkpt>
      <trkpt lat="39.1723720" lon="-3.8425610">
        <ele>640.1</ele>
        <time>2019-08-12T06:45:42Z</time>
      </trkpt>
      <trkpt lat="39.1724120" lon="-3.8424880">
        <ele>640.0</ele>
        <time>2019-08-12T06:45:43Z</time>
      </trkpt>
      <trkpt lat="39.1724520" lon="-3.8424140">
        <ele>639.9</ele>
        <time>2019-08-12T06:45:44Z</time>
      </trkpt>
      <trkpt lat="39.1724890" lon="-3.8423400">
        <ele>639.9</ele>
        <time>2019-08-12T06:45:45Z</time>
      </trkpt>
      <trkpt lat="39.1725210" lon="-3.8422650">
        <ele>639.8</ele>
        <time>2019-08-12T06:45:46Z</time>
      </trkpt>
      <trkpt lat="39.1725460" lon="-3.8421890">
        <ele>639.8</ele>
        <time>2019-08-12T06:45:47Z</time>
      </trkpt>
      <trkpt lat="39.1725720" lon="-3.8421130">
        <ele>639.7</ele>
        <time>2019-08-12T06:45:48Z</time>
      </trkpt>
      <trkpt lat="39.1726020" lon="-3.8420410">
        <ele>639.7</ele>
        <time>2019-08-12T06:45:49Z</time>
      </trkpt>
      <trkpt lat="39.1726380" lon="-3.8419760">
        <ele>639.5</ele>
        <time>2019-08-12T06:45:50Z</time>
      </trkpt>
      <trkpt lat="39.1726780" lon="-3.8419210">
        <ele>639.4</ele>
        <time>2019-08-12T06:45:51Z</time>
      </trkpt>
      <trkpt lat="39.1727190" lon="-3.8418700">
        <ele>639.4</ele>
        <time>2019-08-12T06:45:52Z</time>
      </trkpt>
      <trkpt lat="39.1727580" lon="-3.8418140">
        <ele>639.4</ele>
        <time>2019-08-12T06:45:53Z</time>
      </trkpt>
      <trkpt lat="39.1727950" lon="-3.8417540">
        <ele>639.5</ele>
        <time>2019-08-12T06:45:54Z</time>
      </trkpt>
      <trkpt lat="39.1728300" lon="-3.8416890">
        <ele>639.6</ele>
        <time>2019-08-12T06:45:55Z</time>
      </trkpt>
      <trkpt lat="39.1728630" lon="-3.8416210">
        <ele>639.6</ele>
        <time>2019-08-12T06:45:56Z</time>
      </trkpt>
      <trkpt lat="39.1728960" lon="-3.8415500">
        <ele>639.6</ele>
        <time>2019-08-12T06:45:57Z</time>
      </trkpt>
      <trkpt lat="39.1729280" lon="-3.8414780">
        <ele>639.6</ele>
        <time>2019-08-12T06:45:58Z</time>
      </trkpt>
      <trkpt lat="39.1729600" lon="-3.8414040">
        <ele>639.5</ele>
        <time>2019-08-12T06:45:59Z</time>
      </trkpt>
      <trkpt lat="39.1729920" lon="-3.8413300">
        <ele>639.5</ele>
        <time>2019-08-12T06:46:00Z</time>
      </trkpt>
      <trkpt lat="39.1730250" lon="-3.8412570">
        <ele>639.4</ele>
        <time>2019-08-12T06:46:01Z</time>
      </trkpt>
      <trkpt lat="39.1730580" lon="-3.8411860">
        <ele>639.3</ele>
        <time>2019-08-12T06:46:02Z</time>
      </trkpt>
      <trkpt lat="39.1730930" lon="-3.8411150">
        <ele>639.3</ele>
        <time>2019-08-12T06:46:03Z</time>
      </trkpt>
      <trkpt lat="39.1731270" lon="-3.8410450">
        <ele>639.5</ele>
        <time>2019-08-12T06:46:04Z</time>
      </trkpt>
      <trkpt lat="39.1731620" lon="-3.8409760">
        <ele>639.7</ele>
        <time>2019-08-12T06:46:05Z</time>
      </trkpt>
      <trkpt lat="39.1731970" lon="-3.8409060">
        <ele>639.9</ele>
        <time>2019-08-12T06:46:06Z</time>
      </trkpt>
      <trkpt lat="39.1732310" lon="-3.8408370">
        <ele>640.1</ele>
        <time>2019-08-12T06:46:07Z</time>
      </trkpt>
      <trkpt lat="39.1732650" lon="-3.8407670">
        <ele>640.2</ele>
        <time>2019-08-12T06:46:08Z</time>
      </trkpt>
      <trkpt lat="39.1732980" lon="-3.8406960">
        <ele>640.4</ele>
        <time>2019-08-12T06:46:09Z</time>
      </trkpt>
      <trkpt lat="39.1733290" lon="-3.8406230">
        <ele>640.6</ele>
        <time>2019-08-12T06:46:10Z</time>
      </trkpt>
      <trkpt lat="39.1733590" lon="-3.8405500">
        <ele>640.6</ele>
        <time>2019-08-12T06:46:11Z</time>
      </trkpt>
      <trkpt lat="39.1733870" lon="-3.8404750">
        <ele>640.7</ele>
        <time>2019-08-12T06:46:12Z</time>
      </trkpt>
      <trkpt lat="39.1734130" lon="-3.8403990">
        <ele>640.7</ele>
        <time>2019-08-12T06:46:13Z</time>
      </trkpt>
      <trkpt lat="39.1734350" lon="-3.8403210">
        <ele>640.7</ele>
        <time>2019-08-12T06:46:14Z</time>
      </trkpt>
      <trkpt lat="39.1734540" lon="-3.8402430">
        <ele>640.7</ele>
        <time>2019-08-12T06:46:15Z</time>
      </trkpt>
      <trkpt lat="39.1734700" lon="-3.8401630">
        <ele>640.7</ele>
        <time>2019-08-12T06:46:16Z</time>
      </trkpt>
      <trkpt lat="39.1734820" lon="-3.8400840">
        <ele>640.7</ele>
        <time>2019-08-12T06:46:17Z</time>
      </trkpt>
      <trkpt lat="39.1734920" lon="-3.8400060">
        <ele>640.7</ele>
        <time>2019-08-12T06:46:18Z</time>
      </trkpt>
      <trkpt lat="39.1735000" lon="-3.8399310">
        <ele>640.7</ele>
        <time>2019-08-12T06:46:19Z</time>
      </trkpt>
      <trkpt lat="39.1735070" lon="-3.8398590">
        <ele>640.8</ele>
        <time>2019-08-12T06:46:20Z</time>
      </trkpt>
      <trkpt lat="39.1735140" lon="-3.8397910">
        <ele>640.8</ele>
        <time>2019-08-12T06:46:21Z</time>
      </trkpt>
      <trkpt lat="39.1735220" lon="-3.8397270">
        <ele>640.8</ele>
        <time>2019-08-12T06:46:22Z</time>
      </trkpt>
      <trkpt lat="39.1735290" lon="-3.8396660">
        <ele>640.8</ele>
        <time>2019-08-12T06:46:23Z</time>
      </trkpt>
      <trkpt lat="39.1735380" lon="-3.8396050">
        <ele>640.8</ele>
        <time>2019-08-12T06:46:24Z</time>
      </trkpt>
      <trkpt lat="39.1735470" lon="-3.8395430">
        <ele>640.8</ele>
        <time>2019-08-12T06:46:25Z</time>
      </trkpt>
      <trkpt lat="39.1735580" lon="-3.8394800">
        <ele>640.8</ele>
        <time>2019-08-12T06:46:26Z</time>
      </trkpt>
      <trkpt lat="39.1735690" lon="-3.8394160">
        <ele>640.8</ele>
        <time>2019-08-12T06:46:27Z</time>
      </trkpt>
      <trkpt lat="39.1735820" lon="-3.8393520">
        <ele>640.8</ele>
        <time>2019-08-12T06:46:28Z</time>
      </trkpt>
      <trkpt lat="39.1735960" lon="-3.8392880">
        <ele>640.8</ele>
        <time>2019-08-12T06:46:29Z</time>
      </trkpt>
      <trkpt lat="39.1736100" lon="-3.8392250">
        <ele>640.8</ele>
        <time>2019-08-12T06:46:30Z</time>
      </trkpt>
      <trkpt lat="39.1736260" lon="-3.8391630">
        <ele>640.8</ele>
        <time>2019-08-12T06:46:31Z</time>
      </trkpt>
      <trkpt lat="39.1736430" lon="-3.8391020">
        <ele>640.8</ele>
        <time>2019-08-12T06:46:32Z</time>
      </trkpt>
      <trkpt lat="39.1736600" lon="-3.8390410">
        <ele>640.8</ele>
        <time>2019-08-12T06:46:33Z</time>
      </trkpt>
      <trkpt lat="39.1736780" lon="-3.8389810">
        <ele>640.8</ele>
        <time>2019-08-12T06:46:34Z</time>
      </trkpt>
      <trkpt lat="39.1736960" lon="-3.8389210">
        <ele>640.7</ele>
        <time>2019-08-12T06:46:35Z</time>
      </trkpt>
      <trkpt lat="39.1737150" lon="-3.8388620">
        <ele>640.7</ele>
        <time>2019-08-12T06:46:36Z</time>
      </trkpt>
      <trkpt lat="39.1737330" lon="-3.8388030">
        <ele>640.7</ele>
        <time>2019-08-12T06:46:37Z</time>
      </trkpt>
      <trkpt lat="39.1737520" lon="-3.8387440">
        <ele>640.6</ele>
        <time>2019-08-12T06:46:38Z</time>
      </trkpt>
      <trkpt lat="39.1737700" lon="-3.8386850">
        <ele>640.6</ele>
        <time>2019-08-12T06:46:39Z</time>
      </trkpt>
      <trkpt lat="39.1737890" lon="-3.8386260">
        <ele>640.5</ele>
        <time>2019-08-12T06:46:40Z</time>
      </trkpt>
      <trkpt lat="39.1738070" lon="-3.8385670">
        <ele>640.5</ele>
        <time>2019-08-12T06:46:41Z</time>
      </trkpt>
      <trkpt lat="39.1738250" lon="-3.8385080">
        <ele>640.4</ele>
        <time>2019-08-12T06:46:42Z</time>
      </trkpt>
      <trkpt lat="39.1738440" lon="-3.8384490">
        <ele>640.3</ele>
        <time>2019-08-12T06:46:43Z</time>
      </trkpt>
      <trkpt lat="39.1738620" lon="-3.8383890">
        <ele>640.3</ele>
        <time>2019-08-12T06:46:44Z</time>
      </trkpt>
      <trkpt lat="39.1738810" lon="-3.8383290">
        <ele>640.3</ele>
        <time>2019-08-12T06:46:45Z</time>
      </trkpt>
      <trkpt lat="39.1738990" lon="-3.8382700">
        <ele>640.3</ele>
        <time>2019-08-12T06:46:46Z</time>
      </trkpt>
      <trkpt lat="39.1739180" lon="-3.8382090">
        <ele>640.3</ele>
        <time>2019-08-12T06:46:47Z</time>
      </trkpt>
      <trkpt lat="39.1739370" lon="-3.8381490">
        <ele>640.3</ele>
        <time>2019-08-12T06:46:48Z</time>
      </trkpt>
      <trkpt lat="39.1739560" lon="-3.8380880">
        <ele>640.3</ele>
        <time>2019-08-12T06:46:49Z</time>
      </trkpt>
      <trkpt lat="39.1739760" lon="-3.8380270">
        <ele>640.3</ele>
        <time>2019-08-12T06:46:50Z</time>
      </trkpt>
      <trkpt lat="39.1739950" lon="-3.8379650">
        <ele>640.3</ele>
        <time>2019-08-12T06:46:51Z</time>
      </trkpt>
      <trkpt lat="39.1740150" lon="-3.8379030">
        <ele>640.4</ele>
        <time>2019-08-12T06:46:52Z</time>
      </trkpt>
      <trkpt lat="39.1740350" lon="-3.8378400">
        <ele>640.5</ele>
        <time>2019-08-12T06:46:53Z</time>
      </trkpt>
      <trkpt lat="39.1740560" lon="-3.8377760">
        <ele>640.6</ele>
        <time>2019-08-12T06:46:54Z</time>
      </trkpt>
      <trkpt lat="39.1740770" lon="-3.8377130">
        <ele>640.7</ele>
        <time>2019-08-12T06:46:55Z</time>
      </trkpt>
      <trkpt lat="39.1740980" lon="-3.8376490">
        <ele>640.8</ele>
        <time>2019-08-12T06:46:56Z</time>
      </trkpt>
      <trkpt lat="39.1741200" lon="-3.8375840">
        <ele>641.0</ele>
        <time>2019-08-12T06:46:57Z</time>
      </trkpt>
      <trkpt lat="39.1741420" lon="-3.8375200">
        <ele>641.1</ele>
        <time>2019-08-12T06:46:58Z</time>
      </trkpt>
      <trkpt lat="39.1741640" lon="-3.8374560">
        <ele>641.2</ele>
        <time>2019-08-12T06:46:59Z</time>
      </trkpt>
      <trkpt lat="39.1741880" lon="-3.8373920">
        <ele>641.3</ele>
        <time>2019-08-12T06:47:00Z</time>
      </trkpt>
      <trkpt lat="39.1742120" lon="-3.8373280">
        <ele>641.4</ele>
        <time>2019-08-12T06:47:01Z</time>
      </trkpt>
      <trkpt lat="39.1742370" lon="-3.8372640">
        <ele>641.5</ele>
        <time>2019-08-12T06:47:02Z</time>
      </trkpt>
      <trkpt lat="39.1742630" lon="-3.8372010">
        <ele>641.6</ele>
        <time>2019-08-12T06:47:03Z</time>
      </trkpt>
      <trkpt lat="39.1742900" lon="-3.8371380">
        <ele>641.7</ele>
        <time>2019-08-12T06:47:04Z</time>
      </trkpt>
      <trkpt lat="39.1743190" lon="-3.8370760">
        <ele>641.8</ele>
        <time>2019-08-12T06:47:05Z</time>
      </trkpt>
      <trkpt lat="39.1743490" lon="-3.8370150">
        <ele>641.9</ele>
        <time>2019-08-12T06:47:06Z</time>
      </trkpt>
      <trkpt lat="39.1743800" lon="-3.8369540">
        <ele>641.9</ele>
        <time>2019-08-12T06:47:07Z</time>
      </trkpt>
      <trkpt lat="39.1744120" lon="-3.8368940">
        <ele>642.0</ele>
        <time>2019-08-12T06:47:08Z</time>
      </trkpt>
      <trkpt lat="39.1744460" lon="-3.8368340">
        <ele>642.0</ele>
        <time>2019-08-12T06:47:09Z</time>
      </trkpt>
      <trkpt lat="39.1744810" lon="-3.8367740">
        <ele>642.1</ele>
        <time>2019-08-12T06:47:10Z</time>
      </trkpt>
      <trkpt lat="39.1745180" lon="-3.8367130">
        <ele>642.1</ele>
        <time>2019-08-12T06:47:11Z</time>
      </trkpt>
      <trkpt lat="39.1745550" lon="-3.8366520">
        <ele>642.1</ele>
        <time>2019-08-12T06:47:12Z</time>
      </trkpt>
      <trkpt lat="39.1745930" lon="-3.8365900">
        <ele>642.1</ele>
        <time>2019-08-12T06:47:13Z</time>
      </trkpt>
      <trkpt lat="39.1746320" lon="-3.8365260">
        <ele>642.1</ele>
        <time>2019-08-12T06:47:14Z</time>
      </trkpt>
      <trkpt lat="39.1746720" lon="-3.8364610">
        <ele>642.1</ele>
        <time>2019-08-12T06:47:15Z</time>
      </trkpt>
      <trkpt lat="39.1747120" lon="-3.8363940">
        <ele>642.1</ele>
        <time>2019-08-12T06:47:16Z</time>
      </trkpt>
      <trkpt lat="39.1747530" lon="-3.8363250">
        <ele>642.1</ele>
        <time>2019-08-12T06:47:17Z</time>
      </trkpt>
      <trkpt lat="39.1747920" lon="-3.8362540">
        <ele>642.1</ele>
        <time>2019-08-12T06:47:18Z</time>
      </trkpt>
      <trkpt lat="39.1748310" lon="-3.8361800">
        <ele>642.0</ele>
        <time>2019-08-12T06:47:19Z</time>
      </trkpt>
      <trkpt lat="39.1748680" lon="-3.8361030">
        <ele>642.0</ele>
        <time>2019-08-12T06:47:20Z</time>
      </trkpt>
      <trkpt lat="39.1749030" lon="-3.8360240">
        <ele>641.9</ele>
        <time>2019-08-12T06:47:21Z</time>
      </trkpt>
      <trkpt lat="39.1749360" lon="-3.8359450">
        <ele>641.8</ele>
        <time>2019-08-12T06:47:22Z</time>
      </trkpt>
      <trkpt lat="39.1749670" lon="-3.8358710">
        <ele>641.7</ele>
        <time>2019-08-12T06:47:23Z</time>
      </trkpt>
      <trkpt lat="39.1749970" lon="-3.8358050">
        <ele>641.7</ele>
        <time>2019-08-12T06:47:24Z</time>
      </trkpt>
      <trkpt lat="39.1750250" lon="-3.8357500">
        <ele>641.6</ele>
        <time>2019-08-12T06:47:25Z</time>
      </trkpt>
      <trkpt lat="39.1750500" lon="-3.8357070">
        <ele>641.5</ele>
        <time>2019-08-12T06:47:26Z</time>
      </trkpt>
      <trkpt lat="39.1750730" lon="-3.8356800">
        <ele>641.5</ele>
        <time>2019-08-12T06:47:27Z</time>
      </trkpt>
      <trkpt lat="39.1750910" lon="-3.8356770">
        <ele>641.5</ele>
        <time>2019-08-12T06:47:28Z</time>
      </trkpt>
      <trkpt lat="39.1751080" lon="-3.8356740">
        <ele>641.5</ele>
        <time>2019-08-12T06:47:29Z</time>
      </trkpt>
      <trkpt lat="39.1751160" lon="-3.8357050">
        <ele>640.5</ele>
        <time>2019-08-12T06:47:30Z</time>
      </trkpt>
      <trkpt lat="39.1751230" lon="-3.8357370">
        <ele>640.5</ele>
        <time>2019-08-12T06:47:31Z</time>
      </trkpt>
      <trkpt lat="39.1751220" lon="-3.8357870">
        <ele>640.3</ele>
        <time>2019-08-12T06:47:32Z</time>
      </trkpt>
      <trkpt lat="39.1751150" lon="-3.8358450">
        <ele>640.3</ele>
        <time>2019-08-12T06:47:33Z</time>
      </trkpt>
      <trkpt lat="39.1751010" lon="-3.8359070">
        <ele>640.2</ele>
        <time>2019-08-12T06:47:34Z</time>
      </trkpt>
      <trkpt lat="39.1750820" lon="-3.8359720">
        <ele>640.1</ele>
        <time>2019-08-12T06:47:35Z</time>
      </trkpt>
      <trkpt lat="39.1750580" lon="-3.8360390">
        <ele>640.1</ele>
        <time>2019-08-12T06:47:36Z</time>
      </trkpt>
      <trkpt lat="39.1750310" lon="-3.8361080">
        <ele>640.0</ele>
        <time>2019-08-12T06:47:37Z</time>
      </trkpt>
      <trkpt lat="39.1750010" lon="-3.8361770">
        <ele>640.0</ele>
        <time>2019-08-12T06:47:38Z</time>
      </trkpt>
      <trkpt lat="39.1749700" lon="-3.8362470">
        <ele>639.9</ele>
        <time>2019-08-12T06:47:39Z</time>
      </trkpt>
      <trkpt lat="39.1749370" lon="-3.8363180">
        <ele>639.9</ele>
        <time>2019-08-12T06:47:40Z</time>
      </trkpt>
      <trkpt lat="39.1749030" lon="-3.8363880">
        <ele>639.8</ele>
        <time>2019-08-12T06:47:41Z</time>
      </trkpt>
      <trkpt lat="39.1748680" lon="-3.8364580">
        <ele>639.8</ele>
        <time>2019-08-12T06:47:42Z</time>
      </trkpt>
      <trkpt lat="39.1748310" lon="-3.8365270">
        <ele>639.7</ele>
        <time>2019-08-12T06:47:43Z</time>
      </trkpt>
      <trkpt lat="39.1747940" lon="-3.8365970">
        <ele>639.6</ele>
        <time>2019-08-12T06:47:44Z</time>
      </trkpt>
      <trkpt lat="39.1747560" lon="-3.8366680">
        <ele>639.5</ele>
        <time>2019-08-12T06:47:45Z</time>
      </trkpt>
      <trkpt lat="39.1747180" lon="-3.8367400">
        <ele>639.5</ele>
        <time>2019-08-12T06:47:46Z</time>
      </trkpt>
      <trkpt lat="39.1746820" lon="-3.8368130">
        <ele>639.5</ele>
        <time>2019-08-12T06:47:47Z</time>
      </trkpt>
      <trkpt lat="39.1746470" lon="-3.8368870">
        <ele>639.4</ele>
        <time>2019-08-12T06:47:48Z</time>
      </trkpt>
      <trkpt lat="39.1746130" lon="-3.8369640">
        <ele>639.4</ele>
        <time>2019-08-12T06:47:49Z</time>
      </trkpt>
      <trkpt lat="39.1745790" lon="-3.8370410">
        <ele>639.3</ele>
        <time>2019-08-12T06:47:50Z</time>
      </trkpt>
      <trkpt lat="39.1745460" lon="-3.8371200">
        <ele>639.3</ele>
        <time>2019-08-12T06:47:51Z</time>
      </trkpt>
      <trkpt lat="39.1745120" lon="-3.8371990">
        <ele>639.2</ele>
        <time>2019-08-12T06:47:52Z</time>
      </trkpt>
      <trkpt lat="39.1744780" lon="-3.8372770">
        <ele>639.2</ele>
        <time>2019-08-12T06:47:53Z</time>
      </trkpt>
      <trkpt lat="39.1744470" lon="-3.8373550">
        <ele>639.2</ele>
        <time>2019-08-12T06:47:54Z</time>
      </trkpt>
      <trkpt lat="39.1744170" lon="-3.8374330">
        <ele>639.2</ele>
        <time>2019-08-12T06:47:55Z</time>
      </trkpt>
      <trkpt lat="39.1743910" lon="-3.8375080">
        <ele>639.2</ele>
        <time>2019-08-12T06:47:56Z</time>
      </trkpt>
      <trkpt lat="39.1743690" lon="-3.8375820">
        <ele>639.2</ele>
        <time>2019-08-12T06:47:57Z</time>
      </trkpt>
      <trkpt lat="39.1743550" lon="-3.8376520">
        <ele>639.2</ele>
        <time>2019-08-12T06:47:58Z</time>
      </trkpt>
      <trkpt lat="39.1743490" lon="-3.8377150">
        <ele>639.2</ele>
        <time>2019-08-12T06:47:59Z</time>
      </trkpt>
      <trkpt lat="39.1743550" lon="-3.8377710">
        <ele>639.2</ele>
        <time>2019-08-12T06:48:00Z</time>
      </trkpt>
      <trkpt lat="39.1743750" lon="-3.8378160">
        <ele>639.1</ele>
        <time>2019-08-12T06:48:01Z</time>
      </trkpt>
      <trkpt lat="39.1744060" lon="-3.8378510">
        <ele>639.1</ele>
        <time>2019-08-12T06:48:02Z</time>
      </trkpt>
      <trkpt lat="39.1744450" lon="-3.8378750">
        <ele>639.1</ele>
        <time>2019-08-12T06:48:03Z</time>
      </trkpt>
      <trkpt lat="39.1744900" lon="-3.8378900">
        <ele>639.1</ele>
        <time>2019-08-12T06:48:04Z</time>
      </trkpt>
      <trkpt lat="39.1745390" lon="-3.8379010">
        <ele>639.1</ele>
        <time>2019-08-12T06:48:05Z</time>
      </trkpt>
      <trkpt lat="39.1745920" lon="-3.8379120">
        <ele>639.1</ele>
        <time>2019-08-12T06:48:06Z</time>
      </trkpt>
      <trkpt lat="39.1746480" lon="-3.8379250">
        <ele>639.1</ele>
        <time>2019-08-12T06:48:07Z</time>
      </trkpt>
      <trkpt lat="39.1747080" lon="-3.8379400">
        <ele>639.1</ele>
        <time>2019-08-12T06:48:08Z</time>
      </trkpt>
      <trkpt lat="39.1747690" lon="-3.8379550">
        <ele>639.2</ele>
        <time>2019-08-12T06:48:09Z</time>
      </trkpt>
      <trkpt lat="39.1748330" lon="-3.8379710">
        <ele>639.2</ele>
        <time>2019-08-12T06:48:10Z</time>
      </trkpt>
      <trkpt lat="39.1748990" lon="-3.8379870">
        <ele>639.2</ele>
        <time>2019-08-12T06:48:11Z</time>
      </trkpt>
      <trkpt lat="39.1749660" lon="-3.8380030">
        <ele>639.2</ele>
        <time>2019-08-12T06:48:12Z</time>
      </trkpt>
      <trkpt lat="39.1750340" lon="-3.8380170">
        <ele>639.2</ele>
        <time>2019-08-12T06:48:13Z</time>
      </trkpt>
      <trkpt lat="39.1751030" lon="-3.8380310">
        <ele>639.2</ele>
        <time>2019-08-12T06:48:14Z</time>
      </trkpt>
      <trkpt lat="39.1751720" lon="-3.8380420">
        <ele>639.2</ele>
        <time>2019-08-12T06:48:15Z</time>
      </trkpt>
      <trkpt lat="39.1752420" lon="-3.8380520">
        <ele>639.2</ele>
        <time>2019-08-12T06:48:16Z</time>
      </trkpt>
      <trkpt lat="39.1753120" lon="-3.8380590">
        <ele>639.2</ele>
        <time>2019-08-12T06:48:17Z</time>
      </trkpt>
      <trkpt lat="39.1753820" lon="-3.8380630">
        <ele>639.2</ele>
        <time>2019-08-12T06:48:18Z</time>
      </trkpt>
      <trkpt lat="39.1754510" lon="-3.8380630">
        <ele>639.2</ele>
        <time>2019-08-12T06:48:19Z</time>
      </trkpt>
      <trkpt lat="39.1755190" lon="-3.8380600">
        <ele>639.2</ele>
        <time>2019-08-12T06:48:20Z</time>
      </trkpt>
      <trkpt lat="39.1755860" lon="-3.8380530">
        <ele>639.2</ele>
        <time>2019-08-12T06:48:21Z</time>
      </trkpt>
      <trkpt lat="39.1756530" lon="-3.8380430">
        <ele>639.2</ele>
        <time>2019-08-12T06:48:22Z</time>
      </trkpt>
      <trkpt lat="39.1757510" lon="-3.8380210">
        <ele>639.2</ele>
        <time>2019-08-12T06:48:23Z</time>
      </trkpt>
      <trkpt lat="39.1757830" lon="-3.8380120">
        <ele>639.3</ele>
        <time>2019-08-12T06:48:24Z</time>
      </trkpt>
      <trkpt lat="39.1758480" lon="-3.8379940">
        <ele>639.3</ele>
        <time>2019-08-12T06:48:25Z</time>
      </trkpt>
      <trkpt lat="39.1759110" lon="-3.8379740">
        <ele>639.3</ele>
        <time>2019-08-12T06:48:26Z</time>
      </trkpt>
      <trkpt lat="39.1759740" lon="-3.8379510">
        <ele>639.4</ele>
        <time>2019-08-12T06:48:27Z</time>
      </trkpt>
      <trkpt lat="39.1760370" lon="-3.8379270">
        <ele>639.4</ele>
        <time>2019-08-12T06:48:28Z</time>
      </trkpt>
      <trkpt lat="39.1760980" lon="-3.8379020">
        <ele>639.4</ele>
        <time>2019-08-12T06:48:29Z</time>
      </trkpt>
      <trkpt lat="39.1761600" lon="-3.8378760">
        <ele>639.4</ele>
        <time>2019-08-12T06:48:30Z</time>
      </trkpt>
      <trkpt lat="39.1762210" lon="-3.8378500">
        <ele>639.5</ele>
        <time>2019-08-12T06:48:31Z</time>
      </trkpt>
      <trkpt lat="39.1762810" lon="-3.8378240">
        <ele>639.5</ele>
        <time>2019-08-12T06:48:32Z</time>
      </trkpt>
      <trkpt lat="39.1763420" lon="-3.8377990">
        <ele>639.5</ele>
        <time>2019-08-12T06:48:33Z</time>
      </trkpt>
      <trkpt lat="39.1764020" lon="-3.8377760">
        <ele>639.5</ele>
        <time>2019-08-12T06:48:34Z</time>
      </trkpt>
      <trkpt lat="39.1764620" lon="-3.8377540">
        <ele>639.5</ele>
        <time>2019-08-12T06:48:35Z</time>
      </trkpt>
      <trkpt lat="39.1765220" lon="-3.8377350">
        <ele>639.5</ele>
        <time>2019-08-12T06:48:36Z</time>
      </trkpt>
      <trkpt lat="39.1765830" lon="-3.8377180">
        <ele>639.4</ele>
        <time>2019-08-12T06:48:37Z</time>
      </trkpt>
      <trkpt lat="39.1766430" lon="-3.8377060">
        <ele>639.4</ele>
        <time>2019-08-12T06:48:38Z</time>
      </trkpt>
      <trkpt lat="39.1767070" lon="-3.8377010">
        <ele>639.4</ele>
        <time>2019-08-12T06:48:39Z</time>
      </trkpt>
      <trkpt lat="39.1767750" lon="-3.8377070">
        <ele>639.2</ele>
        <time>2019-08-12T06:48:40Z</time>
      </trkpt>
      <trkpt lat="39.1768490" lon="-3.8377240">
        <ele>639.0</ele>
        <time>2019-08-12T06:48:41Z</time>
      </trkpt>
      <trkpt lat="39.1769290" lon="-3.8377400">
        <ele>638.4</ele>
        <time>2019-08-12T06:48:42Z</time>
      </trkpt>
      <trkpt lat="39.1770110" lon="-3.8377420">
        <ele>637.9</ele>
        <time>2019-08-12T06:48:43Z</time>
      </trkpt>
      <trkpt lat="39.1770950" lon="-3.8377340">
        <ele>637.1</ele>
        <time>2019-08-12T06:48:44Z</time>
      </trkpt>
      <trkpt lat="39.1771780" lon="-3.8377220">
        <ele>636.5</ele>
        <time>2019-08-12T06:48:45Z</time>
      </trkpt>
      <trkpt lat="39.1772580" lon="-3.8377110">
        <ele>635.6</ele>
        <time>2019-08-12T06:48:46Z</time>
      </trkpt>
      <trkpt lat="39.1773360" lon="-3.8376990">
        <ele>635.1</ele>
        <time>2019-08-12T06:48:47Z</time>
      </trkpt>
      <trkpt lat="39.1774130" lon="-3.8376840">
        <ele>634.7</ele>
        <time>2019-08-12T06:48:48Z</time>
      </trkpt>
      <trkpt lat="39.1774890" lon="-3.8376680">
        <ele>634.2</ele>
        <time>2019-08-12T06:48:49Z</time>
      </trkpt>
      <trkpt lat="39.1775640" lon="-3.8376530">
        <ele>634.0</ele>
        <time>2019-08-12T06:48:50Z</time>
      </trkpt>
      <trkpt lat="39.1776360" lon="-3.8376430">
        <ele>634.0</ele>
        <time>2019-08-12T06:48:51Z</time>
      </trkpt>
      <trkpt lat="39.1777060" lon="-3.8376410">
        <ele>634.0</ele>
        <time>2019-08-12T06:48:52Z</time>
      </trkpt>
      <trkpt lat="39.1777740" lon="-3.8376480">
        <ele>634.1</ele>
        <time>2019-08-12T06:48:53Z</time>
      </trkpt>
      <trkpt lat="39.1778700" lon="-3.8376740">
        <ele>634.2</ele>
        <time>2019-08-12T06:48:54Z</time>
      </trkpt>
      <trkpt lat="39.1779010" lon="-3.8376840">
        <ele>634.2</ele>
        <time>2019-08-12T06:48:55Z</time>
      </trkpt>
      <trkpt lat="39.1779620" lon="-3.8377050">
        <ele>634.4</ele>
        <time>2019-08-12T06:48:56Z</time>
      </trkpt>
      <trkpt lat="39.1780210" lon="-3.8377260">
        <ele>634.4</ele>
        <time>2019-08-12T06:48:57Z</time>
      </trkpt>
      <trkpt lat="39.1780800" lon="-3.8377450">
        <ele>634.5</ele>
        <time>2019-08-12T06:48:58Z</time>
      </trkpt>
      <trkpt lat="39.1781380" lon="-3.8377620">
        <ele>634.5</ele>
        <time>2019-08-12T06:48:59Z</time>
      </trkpt>
      <trkpt lat="39.1781960" lon="-3.8377760">
        <ele>634.6</ele>
        <time>2019-08-12T06:49:00Z</time>
      </trkpt>
      <trkpt lat="39.1782540" lon="-3.8377860">
        <ele>634.7</ele>
        <time>2019-08-12T06:49:01Z</time>
      </trkpt>
      <trkpt lat="39.1783130" lon="-3.8377940">
        <ele>634.7</ele>
        <time>2019-08-12T06:49:02Z</time>
      </trkpt>
      <trkpt lat="39.1783690" lon="-3.8378010">
        <ele>634.8</ele>
        <time>2019-08-12T06:49:03Z</time>
      </trkpt>
      <trkpt lat="39.1784190" lon="-3.8378140">
        <ele>635.0</ele>
        <time>2019-08-12T06:49:04Z</time>
      </trkpt>
      <trkpt lat="39.1784610" lon="-3.8378360">
        <ele>635.0</ele>
        <time>2019-08-12T06:49:05Z</time>
      </trkpt>
      <trkpt lat="39.1784920" lon="-3.8378700">
        <ele>635.1</ele>
        <time>2019-08-12T06:49:06Z</time>
      </trkpt>
      <trkpt lat="39.1785160" lon="-3.8379130">
        <ele>635.1</ele>
        <time>2019-08-12T06:49:07Z</time>
      </trkpt>
      <trkpt lat="39.1785360" lon="-3.8379580">
        <ele>635.1</ele>
        <time>2019-08-12T06:49:08Z</time>
      </trkpt>
      <trkpt lat="39.1785560" lon="-3.8380000">
        <ele>635.1</ele>
        <time>2019-08-12T06:49:09Z</time>
      </trkpt>
      <trkpt lat="39.1785800" lon="-3.8380330">
        <ele>635.1</ele>
        <time>2019-08-12T06:49:10Z</time>
      </trkpt>
      <trkpt lat="39.1786110" lon="-3.8380530">
        <ele>635.1</ele>
        <time>2019-08-12T06:49:11Z</time>
      </trkpt>
      <trkpt lat="39.1786470" lon="-3.8380600">
        <ele>635.2</ele>
        <time>2019-08-12T06:49:12Z</time>
      </trkpt>
      <trkpt lat="39.1786840" lon="-3.8380540">
        <ele>635.3</ele>
        <time>2019-08-12T06:49:13Z</time>
      </trkpt>
      <trkpt lat="39.1787190" lon="-3.8380370">
        <ele>635.4</ele>
        <time>2019-08-12T06:49:14Z</time>
      </trkpt>
      <trkpt lat="39.1787490" lon="-3.8380120">
        <ele>635.4</ele>
        <time>2019-08-12T06:49:15Z</time>
      </trkpt>
      <trkpt lat="39.1787760" lon="-3.8379880">
        <ele>635.5</ele>
        <time>2019-08-12T06:49:16Z</time>
      </trkpt>
      <trkpt lat="39.1788040" lon="-3.8379760">
        <ele>635.5</ele>
        <time>2019-08-12T06:49:17Z</time>
      </trkpt>
      <trkpt lat="39.1788360" lon="-3.8379860">
        <ele>635.6</ele>
        <time>2019-08-12T06:49:18Z</time>
      </trkpt>
      <trkpt lat="39.1788660" lon="-3.8380110">
        <ele>635.6</ele>
        <time>2019-08-12T06:49:19Z</time>
      </trkpt>
      <trkpt lat="39.1788900" lon="-3.8380440">
        <ele>635.6</ele>
        <time>2019-08-12T06:49:20Z</time>
      </trkpt>
      <trkpt lat="39.1789080" lon="-3.8380820">
        <ele>635.6</ele>
        <time>2019-08-12T06:49:21Z</time>
      </trkpt>
      <trkpt lat="39.1789230" lon="-3.8381210">
        <ele>635.6</ele>
        <time>2019-08-12T06:49:22Z</time>
      </trkpt>
      <trkpt lat="39.1789400" lon="-3.8381580">
        <ele>635.5</ele>
        <time>2019-08-12T06:49:23Z</time>
      </trkpt>
      <trkpt lat="39.1789610" lon="-3.8381940">
        <ele>635.5</ele>
        <time>2019-08-12T06:49:24Z</time>
      </trkpt>
      <trkpt lat="39.1789890" lon="-3.8382280">
        <ele>635.5</ele>
        <time>2019-08-12T06:49:25Z</time>
      </trkpt>
      <trkpt lat="39.1790510" lon="-3.8382790">
        <ele>635.4</ele>
        <time>2019-08-12T06:49:26Z</time>
      </trkpt>
      <trkpt lat="39.1790790" lon="-3.8382960">
        <ele>635.4</ele>
        <time>2019-08-12T06:49:27Z</time>
      </trkpt>
      <trkpt lat="39.1791070" lon="-3.8383140">
        <ele>635.4</ele>
        <time>2019-08-12T06:49:28Z</time>
      </trkpt>
      <trkpt lat="39.1791540" lon="-3.8383320">
        <ele>635.4</ele>
        <time>2019-08-12T06:49:29Z</time>
      </trkpt>
      <trkpt lat="39.1792040" lon="-3.8383430">
        <ele>635.4</ele>
        <time>2019-08-12T06:49:30Z</time>
      </trkpt>
      <trkpt lat="39.1792920" lon="-3.8383470">
        <ele>635.5</ele>
        <time>2019-08-12T06:49:31Z</time>
      </trkpt>
      <trkpt lat="39.1793280" lon="-3.8383460">
        <ele>635.5</ele>
        <time>2019-08-12T06:49:32Z</time>
      </trkpt>
      <trkpt lat="39.1793640" lon="-3.8383450">
        <ele>635.5</ele>
        <time>2019-08-12T06:49:33Z</time>
      </trkpt>
      <trkpt lat="39.1794200" lon="-3.8383390">
        <ele>635.5</ele>
        <time>2019-08-12T06:49:34Z</time>
      </trkpt>
      <trkpt lat="39.1794760" lon="-3.8383320">
        <ele>635.5</ele>
        <time>2019-08-12T06:49:35Z</time>
      </trkpt>
      <trkpt lat="39.1795330" lon="-3.8383230">
        <ele>635.6</ele>
        <time>2019-08-12T06:49:36Z</time>
      </trkpt>
      <trkpt lat="39.1795910" lon="-3.8383120">
        <ele>635.6</ele>
        <time>2019-08-12T06:49:37Z</time>
      </trkpt>
      <trkpt lat="39.1796490" lon="-3.8383000">
        <ele>635.6</ele>
        <time>2019-08-12T06:49:38Z</time>
      </trkpt>
      <trkpt lat="39.1797080" lon="-3.8382880">
        <ele>635.7</ele>
        <time>2019-08-12T06:49:39Z</time>
      </trkpt>
      <trkpt lat="39.1797680" lon="-3.8382740">
        <ele>635.7</ele>
        <time>2019-08-12T06:49:40Z</time>
      </trkpt>
      <trkpt lat="39.1798280" lon="-3.8382610">
        <ele>635.7</ele>
        <time>2019-08-12T06:49:41Z</time>
      </trkpt>
      <trkpt lat="39.1798880" lon="-3.8382470">
        <ele>635.7</ele>
        <time>2019-08-12T06:49:42Z</time>
      </trkpt>
      <trkpt lat="39.1799490" lon="-3.8382320">
        <ele>635.7</ele>
        <time>2019-08-12T06:49:43Z</time>
      </trkpt>
      <trkpt lat="39.1800110" lon="-3.8382180">
        <ele>635.8</ele>
        <time>2019-08-12T06:49:44Z</time>
      </trkpt>
      <trkpt lat="39.1800720" lon="-3.8382030">
        <ele>635.8</ele>
        <time>2019-08-12T06:49:45Z</time>
      </trkpt>
      <trkpt lat="39.1801330" lon="-3.8381870">
        <ele>635.8</ele>
        <time>2019-08-12T06:49:46Z</time>
      </trkpt>
      <trkpt lat="39.1801940" lon="-3.8381700">
        <ele>635.8</ele>
        <time>2019-08-12T06:49:47Z</time>
      </trkpt>
      <trkpt lat="39.1802550" lon="-3.8381520">
        <ele>635.8</ele>
        <time>2019-08-12T06:49:48Z</time>
      </trkpt>
      <trkpt lat="39.1803150" lon="-3.8381310">
        <ele>635.8</ele>
        <time>2019-08-12T06:49:49Z</time>
      </trkpt>
      <trkpt lat="39.1803750" lon="-3.8381090">
        <ele>635.8</ele>
        <time>2019-08-12T06:49:50Z</time>
      </trkpt>
      <trkpt lat="39.1804340" lon="-3.8380850">
        <ele>635.9</ele>
        <time>2019-08-12T06:49:51Z</time>
      </trkpt>
      <trkpt lat="39.1804920" lon="-3.8380580">
        <ele>635.9</ele>
        <time>2019-08-12T06:49:52Z</time>
      </trkpt>
      <trkpt lat="39.1805500" lon="-3.8380290">
        <ele>635.9</ele>
        <time>2019-08-12T06:49:53Z</time>
      </trkpt>
      <trkpt lat="39.1806060" lon="-3.8379970">
        <ele>636.0</ele>
        <time>2019-08-12T06:49:54Z</time>
      </trkpt>
      <trkpt lat="39.1806620" lon="-3.8379630">
        <ele>636.0</ele>
        <time>2019-08-12T06:49:55Z</time>
      </trkpt>
      <trkpt lat="39.1807180" lon="-3.8379280">
        <ele>636.0</ele>
        <time>2019-08-12T06:49:56Z</time>
      </trkpt>
      <trkpt lat="39.1807720" lon="-3.8378900">
        <ele>636.1</ele>
        <time>2019-08-12T06:49:57Z</time>
      </trkpt>
      <trkpt lat="39.1808260" lon="-3.8378510">
        <ele>636.1</ele>
        <time>2019-08-12T06:49:58Z</time>
      </trkpt>
      <trkpt lat="39.1808790" lon="-3.8378100">
        <ele>636.1</ele>
        <time>2019-08-12T06:49:59Z</time>
      </trkpt>
      <trkpt lat="39.1809320" lon="-3.8377680">
        <ele>636.1</ele>
        <time>2019-08-12T06:50:00Z</time>
      </trkpt>
      <trkpt lat="39.1809840" lon="-3.8377250">
        <ele>636.2</ele>
        <time>2019-08-12T06:50:01Z</time>
      </trkpt>
      <trkpt lat="39.1810360" lon="-3.8376810">
        <ele>636.2</ele>
        <time>2019-08-12T06:50:02Z</time>
      </trkpt>
      <trkpt lat="39.1810870" lon="-3.8376360">
        <ele>636.2</ele>
        <time>2019-08-12T06:50:03Z</time>
      </trkpt>
      <trkpt lat="39.1811370" lon="-3.8375900">
        <ele>636.2</ele>
        <time>2019-08-12T06:50:04Z</time>
      </trkpt>
      <trkpt lat="39.1811880" lon="-3.8375430">
        <ele>636.2</ele>
        <time>2019-08-12T06:50:05Z</time>
      </trkpt>
      <trkpt lat="39.1812380" lon="-3.8374960">
        <ele>636.2</ele>
        <time>2019-08-12T06:50:06Z</time>
      </trkpt>
      <trkpt lat="39.1812870" lon="-3.8374490">
        <ele>636.2</ele>
        <time>2019-08-12T06:50:07Z</time>
      </trkpt>
      <trkpt lat="39.1813370" lon="-3.8374010">
        <ele>636.1</ele>
        <time>2019-08-12T06:50:08Z</time>
      </trkpt>
      <trkpt lat="39.1813860" lon="-3.8373540">
        <ele>636.1</ele>
        <time>2019-08-12T06:50:09Z</time>
      </trkpt>
      <trkpt lat="39.1814680" lon="-3.8372760">
        <ele>636.1</ele>
        <time>2019-08-12T06:50:10Z</time>
      </trkpt>
      <trkpt lat="39.1815000" lon="-3.8372450">
        <ele>636.1</ele>
        <time>2019-08-12T06:50:11Z</time>
      </trkpt>
      <trkpt lat="39.1815330" lon="-3.8372140">
        <ele>636.1</ele>
        <time>2019-08-12T06:50:12Z</time>
      </trkpt>
      <trkpt lat="39.1815820" lon="-3.8371680">
        <ele>636.1</ele>
        <time>2019-08-12T06:50:13Z</time>
      </trkpt>
      <trkpt lat="39.1816310" lon="-3.8371240">
        <ele>636.1</ele>
        <time>2019-08-12T06:50:14Z</time>
      </trkpt>
      <trkpt lat="39.1817150" lon="-3.8370530">
        <ele>636.0</ele>
        <time>2019-08-12T06:50:15Z</time>
      </trkpt>
      <trkpt lat="39.1817490" lon="-3.8370250">
        <ele>636.0</ele>
        <time>2019-08-12T06:50:16Z</time>
      </trkpt>
      <trkpt lat="39.1817830" lon="-3.8369980">
        <ele>636.0</ele>
        <time>2019-08-12T06:50:17Z</time>
      </trkpt>
      <trkpt lat="39.1818350" lon="-3.8369590">
        <ele>636.0</ele>
        <time>2019-08-12T06:50:18Z</time>
      </trkpt>
      <trkpt lat="39.1818890" lon="-3.8369230">
        <ele>635.9</ele>
        <time>2019-08-12T06:50:19Z</time>
      </trkpt>
      <trkpt lat="39.1819430" lon="-3.8368880">
        <ele>635.8</ele>
        <time>2019-08-12T06:50:20Z</time>
      </trkpt>
      <trkpt lat="39.1819980" lon="-3.8368540">
        <ele>635.8</ele>
        <time>2019-08-12T06:50:21Z</time>
      </trkpt>
      <trkpt lat="39.1820540" lon="-3.8368210">
        <ele>635.8</ele>
        <time>2019-08-12T06:50:22Z</time>
      </trkpt>
      <trkpt lat="39.1821110" lon="-3.8367890">
        <ele>635.7</ele>
        <time>2019-08-12T06:50:23Z</time>
      </trkpt>
      <trkpt lat="39.1821680" lon="-3.8367570">
        <ele>635.7</ele>
        <time>2019-08-12T06:50:24Z</time>
      </trkpt>
      <trkpt lat="39.1822250" lon="-3.8367240">
        <ele>635.6</ele>
        <time>2019-08-12T06:50:25Z</time>
      </trkpt>
      <trkpt lat="39.1822830" lon="-3.8366910">
        <ele>635.6</ele>
        <time>2019-08-12T06:50:26Z</time>
      </trkpt>
      <trkpt lat="39.1823410" lon="-3.8366570">
        <ele>635.6</ele>
        <time>2019-08-12T06:50:27Z</time>
      </trkpt>
      <trkpt lat="39.1823980" lon="-3.8366210">
        <ele>635.6</ele>
        <time>2019-08-12T06:50:28Z</time>
      </trkpt>
      <trkpt lat="39.1824520" lon="-3.8365790">
        <ele>635.6</ele>
        <time>2019-08-12T06:50:29Z</time>
      </trkpt>
      <trkpt lat="39.1824990" lon="-3.8365270">
        <ele>635.6</ele>
        <time>2019-08-12T06:50:30Z</time>
      </trkpt>
      <trkpt lat="39.1825360" lon="-3.8364620">
        <ele>635.6</ele>
        <time>2019-08-12T06:50:31Z</time>
      </trkpt>
      <trkpt lat="39.1825670" lon="-3.8363890">
        <ele>635.6</ele>
        <time>2019-08-12T06:50:32Z</time>
      </trkpt>
      <trkpt lat="39.1825960" lon="-3.8363150">
        <ele>635.6</ele>
        <time>2019-08-12T06:50:33Z</time>
      </trkpt>
      <trkpt lat="39.1826220" lon="-3.8362400">
        <ele>635.6</ele>
        <time>2019-08-12T06:50:34Z</time>
      </trkpt>
      <trkpt lat="39.1826470" lon="-3.8361650">
        <ele>635.6</ele>
        <time>2019-08-12T06:50:35Z</time>
      </trkpt>
      <trkpt lat="39.1826720" lon="-3.8360900">
        <ele>635.6</ele>
        <time>2019-08-12T06:50:36Z</time>
      </trkpt>
      <trkpt lat="39.1826950" lon="-3.8360140">
        <ele>635.7</ele>
        <time>2019-08-12T06:50:37Z</time>
      </trkpt>
      <trkpt lat="39.1827180" lon="-3.8359370">
        <ele>635.8</ele>
        <time>2019-08-12T06:50:38Z</time>
      </trkpt>
      <trkpt lat="39.1827410" lon="-3.8358600">
        <ele>635.8</ele>
        <time>2019-08-12T06:50:39Z</time>
      </trkpt>
      <trkpt lat="39.1827630" lon="-3.8357820">
        <ele>635.9</ele>
        <time>2019-08-12T06:50:40Z</time>
      </trkpt>
      <trkpt lat="39.1827860" lon="-3.8357040">
        <ele>636.0</ele>
        <time>2019-08-12T06:50:41Z</time>
      </trkpt>
      <trkpt lat="39.1828080" lon="-3.8356260">
        <ele>636.1</ele>
        <time>2019-08-12T06:50:42Z</time>
      </trkpt>
      <trkpt lat="39.1828300" lon="-3.8355480">
        <ele>636.2</ele>
        <time>2019-08-12T06:50:43Z</time>
      </trkpt>
      <trkpt lat="39.1828520" lon="-3.8354690">
        <ele>636.4</ele>
        <time>2019-08-12T06:50:44Z</time>
      </trkpt>
      <trkpt lat="39.1828740" lon="-3.8353910">
        <ele>636.5</ele>
        <time>2019-08-12T06:50:45Z</time>
      </trkpt>
      <trkpt lat="39.1828950" lon="-3.8353120">
        <ele>636.6</ele>
        <time>2019-08-12T06:50:46Z</time>
      </trkpt>
      <trkpt lat="39.1829170" lon="-3.8352340">
        <ele>636.9</ele>
        <time>2019-08-12T06:50:47Z</time>
      </trkpt>
      <trkpt lat="39.1829400" lon="-3.8351570">
        <ele>637.1</ele>
        <time>2019-08-12T06:50:48Z</time>
      </trkpt>
      <trkpt lat="39.1829630" lon="-3.8350810">
        <ele>637.3</ele>
        <time>2019-08-12T06:50:49Z</time>
      </trkpt>
      <trkpt lat="39.1829870" lon="-3.8350060">
        <ele>637.5</ele>
        <time>2019-08-12T06:50:50Z</time>
      </trkpt>
      <trkpt lat="39.1830130" lon="-3.8349330">
        <ele>637.7</ele>
        <time>2019-08-12T06:50:51Z</time>
      </trkpt>
      <trkpt lat="39.1830410" lon="-3.8348630">
        <ele>637.9</ele>
        <time>2019-08-12T06:50:52Z</time>
      </trkpt>
      <trkpt lat="39.1830720" lon="-3.8347950">
        <ele>638.0</ele>
        <time>2019-08-12T06:50:53Z</time>
      </trkpt>
      <trkpt lat="39.1831050" lon="-3.8347310">
        <ele>638.2</ele>
        <time>2019-08-12T06:50:54Z</time>
      </trkpt>
      <trkpt lat="39.1831700" lon="-3.8346330">
        <ele>638.3</ele>
        <time>2019-08-12T06:50:55Z</time>
      </trkpt>
      <trkpt lat="39.1831970" lon="-3.8345960">
        <ele>638.4</ele>
        <time>2019-08-12T06:50:56Z</time>
      </trkpt>
      <trkpt lat="39.1832250" lon="-3.8345590">
        <ele>638.5</ele>
        <time>2019-08-12T06:50:57Z</time>
      </trkpt>
      <trkpt lat="39.1832690" lon="-3.8345060">
        <ele>638.5</ele>
        <time>2019-08-12T06:50:58Z</time>
      </trkpt>
      <trkpt lat="39.1833110" lon="-3.8344530">
        <ele>638.6</ele>
        <time>2019-08-12T06:50:59Z</time>
      </trkpt>
      <trkpt lat="39.1833760" lon="-3.8343610">
        <ele>638.7</ele>
        <time>2019-08-12T06:51:00Z</time>
      </trkpt>
      <trkpt lat="39.1834010" lon="-3.8343240">
        <ele>638.7</ele>
        <time>2019-08-12T06:51:01Z</time>
      </trkpt>
      <trkpt lat="39.1834250" lon="-3.8342860">
        <ele>638.7</ele>
        <time>2019-08-12T06:51:02Z</time>
      </trkpt>
      <trkpt lat="39.1834630" lon="-3.8342290">
        <ele>638.7</ele>
        <time>2019-08-12T06:51:03Z</time>
      </trkpt>
      <trkpt lat="39.1835030" lon="-3.8341730">
        <ele>638.6</ele>
        <time>2019-08-12T06:51:04Z</time>
      </trkpt>
      <trkpt lat="39.1835490" lon="-3.8341210">
        <ele>638.6</ele>
        <time>2019-08-12T06:51:05Z</time>
      </trkpt>
      <trkpt lat="39.1835990" lon="-3.8340760">
        <ele>638.6</ele>
        <time>2019-08-12T06:51:06Z</time>
      </trkpt>
      <trkpt lat="39.1836540" lon="-3.8340460">
        <ele>638.6</ele>
        <time>2019-08-12T06:51:07Z</time>
      </trkpt>
      <trkpt lat="39.1837110" lon="-3.8340320">
        <ele>638.6</ele>
        <time>2019-08-12T06:51:08Z</time>
      </trkpt>
      <trkpt lat="39.1837700" lon="-3.8340330">
        <ele>638.6</ele>
        <time>2019-08-12T06:51:09Z</time>
      </trkpt>
      <trkpt lat="39.1838280" lon="-3.8340430">
        <ele>638.6</ele>
        <time>2019-08-12T06:51:10Z</time>
      </trkpt>
      <trkpt lat="39.1838850" lon="-3.8340610">
        <ele>638.7</ele>
        <time>2019-08-12T06:51:11Z</time>
      </trkpt>
      <trkpt lat="39.1839410" lon="-3.8340790">
        <ele>638.7</ele>
        <time>2019-08-12T06:51:12Z</time>
      </trkpt>
      <trkpt lat="39.1839960" lon="-3.8341000">
        <ele>638.7</ele>
        <time>2019-08-12T06:51:13Z</time>
      </trkpt>
      <trkpt lat="39.1840490" lon="-3.8341290">
        <ele>638.7</ele>
        <time>2019-08-12T06:51:14Z</time>
      </trkpt>
      <trkpt lat="39.1841010" lon="-3.8341690">
        <ele>638.8</ele>
        <time>2019-08-12T06:51:15Z</time>
      </trkpt>
      <trkpt lat="39.1841520" lon="-3.8342160">
        <ele>638.9</ele>
        <time>2019-08-12T06:51:16Z</time>
      </trkpt>
      <trkpt lat="39.1842030" lon="-3.8342620">
        <ele>639.0</ele>
        <time>2019-08-12T06:51:17Z</time>
      </trkpt>
      <trkpt lat="39.1842530" lon="-3.8342990">
        <ele>639.1</ele>
        <time>2019-08-12T06:51:18Z</time>
      </trkpt>
      <trkpt lat="39.1843030" lon="-3.8343180">
        <ele>639.2</ele>
        <time>2019-08-12T06:51:19Z</time>
      </trkpt>
      <trkpt lat="39.1843540" lon="-3.8343160">
        <ele>639.2</ele>
        <time>2019-08-12T06:51:20Z</time>
      </trkpt>
      <trkpt lat="39.1844060" lon="-3.8342960">
        <ele>639.0</ele>
        <time>2019-08-12T06:51:21Z</time>
      </trkpt>
      <trkpt lat="39.1844590" lon="-3.8342680">
        <ele>638.9</ele>
        <time>2019-08-12T06:51:22Z</time>
      </trkpt>
      <trkpt lat="39.1845120" lon="-3.8342390">
        <ele>638.8</ele>
        <time>2019-08-12T06:51:23Z</time>
      </trkpt>
      <trkpt lat="39.1845670" lon="-3.8342150">
        <ele>638.6</ele>
        <time>2019-08-12T06:51:24Z</time>
      </trkpt>
      <trkpt lat="39.1846220" lon="-3.8341980">
        <ele>638.6</ele>
        <time>2019-08-12T06:51:25Z</time>
      </trkpt>
      <trkpt lat="39.1846780" lon="-3.8341850">
        <ele>638.5</ele>
        <time>2019-08-12T06:51:26Z</time>
      </trkpt>
      <trkpt lat="39.1847350" lon="-3.8341780">
        <ele>638.5</ele>
        <time>2019-08-12T06:51:27Z</time>
      </trkpt>
      <trkpt lat="39.1847930" lon="-3.8341740">
        <ele>638.5</ele>
        <time>2019-08-12T06:51:28Z</time>
      </trkpt>
      <trkpt lat="39.1848500" lon="-3.8341740">
        <ele>638.6</ele>
        <time>2019-08-12T06:51:29Z</time>
      </trkpt>
      <trkpt lat="39.1849080" lon="-3.8341760">
        <ele>638.7</ele>
        <time>2019-08-12T06:51:30Z</time>
      </trkpt>
      <trkpt lat="39.1849670" lon="-3.8341790">
        <ele>638.7</ele>
        <time>2019-08-12T06:51:31Z</time>
      </trkpt>
      <trkpt lat="39.1850640" lon="-3.8341860">
        <ele>639.0</ele>
        <time>2019-08-12T06:51:32Z</time>
      </trkpt>
      <trkpt lat="39.1851020" lon="-3.8341880">
        <ele>639.2</ele>
        <time>2019-08-12T06:51:33Z</time>
      </trkpt>
      <trkpt lat="39.1851410" lon="-3.8341910">
        <ele>639.3</ele>
        <time>2019-08-12T06:51:34Z</time>
      </trkpt>
      <trkpt lat="39.1851990" lon="-3.8341940">
        <ele>639.3</ele>
        <time>2019-08-12T06:51:35Z</time>
      </trkpt>
      <trkpt lat="39.1852560" lon="-3.8341960">
        <ele>639.5</ele>
        <time>2019-08-12T06:51:36Z</time>
      </trkpt>
      <trkpt lat="39.1853430" lon="-3.8341950">
        <ele>639.8</ele>
        <time>2019-08-12T06:51:37Z</time>
      </trkpt>
      <trkpt lat="39.1853720" lon="-3.8341940">
        <ele>639.9</ele>
        <time>2019-08-12T06:51:38Z</time>
      </trkpt>
      <trkpt lat="39.1854290" lon="-3.8341920">
        <ele>640.0</ele>
        <time>2019-08-12T06:51:39Z</time>
      </trkpt>
      <trkpt lat="39.1854870" lon="-3.8341860">
        <ele>640.2</ele>
        <time>2019-08-12T06:51:40Z</time>
      </trkpt>
      <trkpt lat="39.1855440" lon="-3.8341770">
        <ele>640.3</ele>
        <time>2019-08-12T06:51:41Z</time>
      </trkpt>
      <trkpt lat="39.1856010" lon="-3.8341650">
        <ele>640.5</ele>
        <time>2019-08-12T06:51:42Z</time>
      </trkpt>
      <trkpt lat="39.1856580" lon="-3.8341480">
        <ele>640.5</ele>
        <time>2019-08-12T06:51:43Z</time>
      </trkpt>
      <trkpt lat="39.1857130" lon="-3.8341260">
        <ele>640.6</ele>
        <time>2019-08-12T06:51:44Z</time>
      </trkpt>
      <trkpt lat="39.1857650" lon="-3.8340980">
        <ele>640.6</ele>
        <time>2019-08-12T06:51:45Z</time>
      </trkpt>
      <trkpt lat="39.1858140" lon="-3.8340610">
        <ele>640.7</ele>
        <time>2019-08-12T06:51:46Z</time>
      </trkpt>
      <trkpt lat="39.1858580" lon="-3.8340160">
        <ele>640.7</ele>
        <time>2019-08-12T06:51:47Z</time>
      </trkpt>
      <trkpt lat="39.1859000" lon="-3.8339650">
        <ele>640.7</ele>
        <time>2019-08-12T06:51:48Z</time>
      </trkpt>
      <trkpt lat="39.1859580" lon="-3.8338790">
        <ele>640.7</ele>
        <time>2019-08-12T06:51:49Z</time>
      </trkpt>
      <trkpt lat="39.1859770" lon="-3.8338500">
        <ele>640.7</ele>
        <time>2019-08-12T06:51:50Z</time>
      </trkpt>
      <trkpt lat="39.1860140" lon="-3.8337910">
        <ele>640.6</ele>
        <time>2019-08-12T06:51:51Z</time>
      </trkpt>
      <trkpt lat="39.1860510" lon="-3.8337340">
        <ele>640.5</ele>
        <time>2019-08-12T06:51:52Z</time>
      </trkpt>
      <trkpt lat="39.1860890" lon="-3.8336790">
        <ele>640.5</ele>
        <time>2019-08-12T06:51:53Z</time>
      </trkpt>
      <trkpt lat="39.1861260" lon="-3.8336250">
        <ele>640.4</ele>
        <time>2019-08-12T06:51:54Z</time>
      </trkpt>
      <trkpt lat="39.1861640" lon="-3.8335710">
        <ele>640.4</ele>
        <time>2019-08-12T06:51:55Z</time>
      </trkpt>
      <trkpt lat="39.1862020" lon="-3.8335170">
        <ele>640.3</ele>
        <time>2019-08-12T06:51:56Z</time>
      </trkpt>
      <trkpt lat="39.1862400" lon="-3.8334620">
        <ele>640.3</ele>
        <time>2019-08-12T06:51:57Z</time>
      </trkpt>
      <trkpt lat="39.1862770" lon="-3.8334070">
        <ele>640.2</ele>
        <time>2019-08-12T06:51:58Z</time>
      </trkpt>
      <trkpt lat="39.1863140" lon="-3.8333520">
        <ele>640.2</ele>
        <time>2019-08-12T06:51:59Z</time>
      </trkpt>
      <trkpt lat="39.1863510" lon="-3.8332960">
        <ele>640.2</ele>
        <time>2019-08-12T06:52:00Z</time>
      </trkpt>
      <trkpt lat="39.1863870" lon="-3.8332400">
        <ele>640.3</ele>
        <time>2019-08-12T06:52:01Z</time>
      </trkpt>
      <trkpt lat="39.1864230" lon="-3.8331840">
        <ele>640.3</ele>
        <time>2019-08-12T06:52:02Z</time>
      </trkpt>
      <trkpt lat="39.1864590" lon="-3.8331280">
        <ele>640.4</ele>
        <time>2019-08-12T06:52:03Z</time>
      </trkpt>
      <trkpt lat="39.1864940" lon="-3.8330710">
        <ele>640.5</ele>
        <time>2019-08-12T06:52:04Z</time>
      </trkpt>
      <trkpt lat="39.1865290" lon="-3.8330140">
        <ele>640.7</ele>
        <time>2019-08-12T06:52:05Z</time>
      </trkpt>
      <trkpt lat="39.1865640" lon="-3.8329570">
        <ele>640.8</ele>
        <time>2019-08-12T06:52:06Z</time>
      </trkpt>
      <trkpt lat="39.1865990" lon="-3.8329000">
        <ele>640.9</ele>
        <time>2019-08-12T06:52:07Z</time>
      </trkpt>
      <trkpt lat="39.1866570" lon="-3.8328030">
        <ele>641.2</ele>
        <time>2019-08-12T06:52:08Z</time>
      </trkpt>
      <trkpt lat="39.1866800" lon="-3.8327650">
        <ele>641.3</ele>
        <time>2019-08-12T06:52:09Z</time>
      </trkpt>
      <trkpt lat="39.1867030" lon="-3.8327260">
        <ele>641.4</ele>
        <time>2019-08-12T06:52:10Z</time>
      </trkpt>
      <trkpt lat="39.1867380" lon="-3.8326670">
        <ele>641.5</ele>
        <time>2019-08-12T06:52:11Z</time>
      </trkpt>
      <trkpt lat="39.1867730" lon="-3.8326080">
        <ele>641.5</ele>
        <time>2019-08-12T06:52:12Z</time>
      </trkpt>
      <trkpt lat="39.1868320" lon="-3.8325090">
        <ele>641.6</ele>
        <time>2019-08-12T06:52:13Z</time>
      </trkpt>
      <trkpt lat="39.1868550" lon="-3.8324700">
        <ele>641.6</ele>
        <time>2019-08-12T06:52:14Z</time>
      </trkpt>
      <trkpt lat="39.1868790" lon="-3.8324300">
        <ele>641.7</ele>
        <time>2019-08-12T06:52:15Z</time>
      </trkpt>
      <trkpt lat="39.1869150" lon="-3.8323700">
        <ele>641.7</ele>
        <time>2019-08-12T06:52:16Z</time>
      </trkpt>
      <trkpt lat="39.1869520" lon="-3.8323090">
        <ele>641.7</ele>
        <time>2019-08-12T06:52:17Z</time>
      </trkpt>
      <trkpt lat="39.1869890" lon="-3.8322480">
        <ele>641.8</ele>
        <time>2019-08-12T06:52:18Z</time>
      </trkpt>
      <trkpt lat="39.1870260" lon="-3.8321870">
        <ele>641.8</ele>
        <time>2019-08-12T06:52:19Z</time>
      </trkpt>
      <trkpt lat="39.1870650" lon="-3.8321280">
        <ele>641.7</ele>
        <time>2019-08-12T06:52:20Z</time>
      </trkpt>
      <trkpt lat="39.1871060" lon="-3.8320720">
        <ele>641.8</ele>
        <time>2019-08-12T06:52:21Z</time>
      </trkpt>
      <trkpt lat="39.1871500" lon="-3.8320210">
        <ele>641.8</ele>
        <time>2019-08-12T06:52:22Z</time>
      </trkpt>
      <trkpt lat="39.1871980" lon="-3.8319780">
        <ele>641.9</ele>
        <time>2019-08-12T06:52:23Z</time>
      </trkpt>
      <trkpt lat="39.1872500" lon="-3.8319440">
        <ele>641.9</ele>
        <time>2019-08-12T06:52:24Z</time>
      </trkpt>
      <trkpt lat="39.1873050" lon="-3.8319180">
        <ele>641.9</ele>
        <time>2019-08-12T06:52:25Z</time>
      </trkpt>
      <trkpt lat="39.1873620" lon="-3.8318970">
        <ele>642.0</ele>
        <time>2019-08-12T06:52:26Z</time>
      </trkpt>
      <trkpt lat="39.1874200" lon="-3.8318810">
        <ele>642.0</ele>
        <time>2019-08-12T06:52:27Z</time>
      </trkpt>
      <trkpt lat="39.1874770" lon="-3.8318690">
        <ele>642.1</ele>
        <time>2019-08-12T06:52:28Z</time>
      </trkpt>
      <trkpt lat="39.1875320" lon="-3.8318590">
        <ele>642.2</ele>
        <time>2019-08-12T06:52:29Z</time>
      </trkpt>
      <trkpt lat="39.1875870" lon="-3.8318520">
        <ele>642.3</ele>
        <time>2019-08-12T06:52:30Z</time>
      </trkpt>
      <trkpt lat="39.1876400" lon="-3.8318470">
        <ele>642.4</ele>
        <time>2019-08-12T06:52:31Z</time>
      </trkpt>
      <trkpt lat="39.1876930" lon="-3.8318450">
        <ele>642.5</ele>
        <time>2019-08-12T06:52:32Z</time>
      </trkpt>
      <trkpt lat="39.1877460" lon="-3.8318420">
        <ele>642.6</ele>
        <time>2019-08-12T06:52:33Z</time>
      </trkpt>
      <trkpt lat="39.1878010" lon="-3.8318440">
        <ele>642.8</ele>
        <time>2019-08-12T06:52:34Z</time>
      </trkpt>
      <trkpt lat="39.1878570" lon="-3.8318490">
        <ele>642.9</ele>
        <time>2019-08-12T06:52:35Z</time>
      </trkpt>
      <trkpt lat="39.1879120" lon="-3.8318550">
        <ele>643.0</ele>
        <time>2019-08-12T06:52:36Z</time>
      </trkpt>
      <trkpt lat="39.1879640" lon="-3.8318530">
        <ele>643.2</ele>
        <time>2019-08-12T06:52:37Z</time>
      </trkpt>
      <trkpt lat="39.1880120" lon="-3.8318410">
        <ele>643.2</ele>
        <time>2019-08-12T06:52:38Z</time>
      </trkpt>
      <trkpt lat="39.1880580" lon="-3.8318220">
        <ele>643.3</ele>
        <time>2019-08-12T06:52:39Z</time>
      </trkpt>
      <trkpt lat="39.1881010" lon="-3.8317950">
        <ele>643.4</ele>
        <time>2019-08-12T06:52:40Z</time>
      </trkpt>
      <trkpt lat="39.1881410" lon="-3.8317630">
        <ele>643.4</ele>
        <time>2019-08-12T06:52:41Z</time>
      </trkpt>
      <trkpt lat="39.1881800" lon="-3.8317260">
        <ele>643.5</ele>
        <time>2019-08-12T06:52:42Z</time>
      </trkpt>
      <trkpt lat="39.1882180" lon="-3.8316850">
        <ele>643.5</ele>
        <time>2019-08-12T06:52:43Z</time>
      </trkpt>
      <trkpt lat="39.1882550" lon="-3.8316410">
        <ele>643.6</ele>
        <time>2019-08-12T06:52:44Z</time>
      </trkpt>
      <trkpt lat="39.1882910" lon="-3.8315940">
        <ele>643.7</ele>
        <time>2019-08-12T06:52:45Z</time>
      </trkpt>
      <trkpt lat="39.1883270" lon="-3.8315470">
        <ele>643.7</ele>
        <time>2019-08-12T06:52:46Z</time>
      </trkpt>
      <trkpt lat="39.1883630" lon="-3.8314980">
        <ele>643.8</ele>
        <time>2019-08-12T06:52:47Z</time>
      </trkpt>
      <trkpt lat="39.1883990" lon="-3.8314480">
        <ele>643.8</ele>
        <time>2019-08-12T06:52:48Z</time>
      </trkpt>
      <trkpt lat="39.1884580" lon="-3.8313620">
        <ele>643.8</ele>
        <time>2019-08-12T06:52:49Z</time>
      </trkpt>
      <trkpt lat="39.1884810" lon="-3.8313280">
        <ele>643.8</ele>
        <time>2019-08-12T06:52:50Z</time>
      </trkpt>
      <trkpt lat="39.1885050" lon="-3.8312930">
        <ele>643.8</ele>
        <time>2019-08-12T06:52:51Z</time>
      </trkpt>
      <trkpt lat="39.1885400" lon="-3.8312410">
        <ele>643.7</ele>
        <time>2019-08-12T06:52:52Z</time>
      </trkpt>
      <trkpt lat="39.1885740" lon="-3.8311880">
        <ele>643.7</ele>
        <time>2019-08-12T06:52:53Z</time>
      </trkpt>
      <trkpt lat="39.1886250" lon="-3.8311070">
        <ele>643.7</ele>
        <time>2019-08-12T06:52:54Z</time>
      </trkpt>
      <trkpt lat="39.1886420" lon="-3.8310800">
        <ele>643.7</ele>
        <time>2019-08-12T06:52:55Z</time>
      </trkpt>
      <trkpt lat="39.1886760" lon="-3.8310260">
        <ele>643.7</ele>
        <time>2019-08-12T06:52:56Z</time>
      </trkpt>
      <trkpt lat="39.1887090" lon="-3.8309720">
        <ele>643.7</ele>
        <time>2019-08-12T06:52:57Z</time>
      </trkpt>
      <trkpt lat="39.1887420" lon="-3.8309180">
        <ele>643.8</ele>
        <time>2019-08-12T06:52:58Z</time>
      </trkpt>
      <trkpt lat="39.1887750" lon="-3.8308630">
        <ele>643.8</ele>
        <time>2019-08-12T06:52:59Z</time>
      </trkpt>
      <trkpt lat="39.1888090" lon="-3.8308090">
        <ele>643.8</ele>
        <time>2019-08-12T06:53:00Z</time>
      </trkpt>
      <trkpt lat="39.1888420" lon="-3.8307540">
        <ele>643.9</ele>
        <time>2019-08-12T06:53:01Z</time>
      </trkpt>
      <trkpt lat="39.1888750" lon="-3.8306990">
        <ele>644.0</ele>
        <time>2019-08-12T06:53:02Z</time>
      </trkpt>
      <trkpt lat="39.1889320" lon="-3.8306080">
        <ele>644.1</ele>
        <time>2019-08-12T06:53:03Z</time>
      </trkpt>
      <trkpt lat="39.1889540" lon="-3.8305710">
        <ele>644.1</ele>
        <time>2019-08-12T06:53:04Z</time>
      </trkpt>
      <trkpt lat="39.1889770" lon="-3.8305350">
        <ele>644.2</ele>
        <time>2019-08-12T06:53:05Z</time>
      </trkpt>
      <trkpt lat="39.1890120" lon="-3.8304800">
        <ele>644.2</ele>
        <time>2019-08-12T06:53:06Z</time>
      </trkpt>
      <trkpt lat="39.1890470" lon="-3.8304250">
        <ele>644.3</ele>
        <time>2019-08-12T06:53:07Z</time>
      </trkpt>
      <trkpt lat="39.1891060" lon="-3.8303330">
        <ele>644.4</ele>
        <time>2019-08-12T06:53:08Z</time>
      </trkpt>
      <trkpt lat="39.1891300" lon="-3.8302970">
        <ele>644.5</ele>
        <time>2019-08-12T06:53:09Z</time>
      </trkpt>
      <trkpt lat="39.1891540" lon="-3.8302600">
        <ele>644.5</ele>
        <time>2019-08-12T06:53:10Z</time>
      </trkpt>
      <trkpt lat="39.1891900" lon="-3.8302050">
        <ele>644.6</ele>
        <time>2019-08-12T06:53:11Z</time>
      </trkpt>
      <trkpt lat="39.1892260" lon="-3.8301500">
        <ele>644.7</ele>
        <time>2019-08-12T06:53:12Z</time>
      </trkpt>
      <trkpt lat="39.1892620" lon="-3.8300960">
        <ele>644.7</ele>
        <time>2019-08-12T06:53:13Z</time>
      </trkpt>
      <trkpt lat="39.1892990" lon="-3.8300410">
        <ele>644.8</ele>
        <time>2019-08-12T06:53:14Z</time>
      </trkpt>
      <trkpt lat="39.1893360" lon="-3.8299860">
        <ele>644.9</ele>
        <time>2019-08-12T06:53:15Z</time>
      </trkpt>
      <trkpt lat="39.1893720" lon="-3.8299310">
        <ele>644.9</ele>
        <time>2019-08-12T06:53:16Z</time>
      </trkpt>
      <trkpt lat="39.1894090" lon="-3.8298770">
        <ele>645.0</ele>
        <time>2019-08-12T06:53:17Z</time>
      </trkpt>
      <trkpt lat="39.1894460" lon="-3.8298220">
        <ele>645.1</ele>
        <time>2019-08-12T06:53:18Z</time>
      </trkpt>
      <trkpt lat="39.1894820" lon="-3.8297660">
        <ele>645.1</ele>
        <time>2019-08-12T06:53:19Z</time>
      </trkpt>
      <trkpt lat="39.1895180" lon="-3.8297110">
        <ele>645.1</ele>
        <time>2019-08-12T06:53:20Z</time>
      </trkpt>
      <trkpt lat="39.1895550" lon="-3.8296560">
        <ele>645.1</ele>
        <time>2019-08-12T06:53:21Z</time>
      </trkpt>
      <trkpt lat="39.1895920" lon="-3.8296010">
        <ele>645.1</ele>
        <time>2019-08-12T06:53:22Z</time>
      </trkpt>
      <trkpt lat="39.1896290" lon="-3.8295460">
        <ele>645.1</ele>
        <time>2019-08-12T06:53:23Z</time>
      </trkpt>
      <trkpt lat="39.1896670" lon="-3.8294920">
        <ele>645.1</ele>
        <time>2019-08-12T06:53:24Z</time>
      </trkpt>
      <trkpt lat="39.1897080" lon="-3.8294400">
        <ele>645.0</ele>
        <time>2019-08-12T06:53:25Z</time>
      </trkpt>
      <trkpt lat="39.1897370" lon="-3.8293980">
        <ele>645.0</ele>
        <time>2019-08-12T06:53:26Z</time>
      </trkpt>
      <trkpt lat="39.1897670" lon="-3.8293590">
        <ele>645.0</ele>
        <time>2019-08-12T06:53:27Z</time>
      </trkpt>
      <trkpt lat="39.1899930" lon="-3.8291750">
        <ele>644.9</ele>
        <time>2019-08-12T06:53:54Z</time>
      </trkpt>
      <trkpt lat="39.1900270" lon="-3.8291390">
        <ele>645.0</ele>
        <time>2019-08-12T06:53:55Z</time>
      </trkpt>
      <trkpt lat="39.1900550" lon="-3.8290930">
        <ele>645.0</ele>
        <time>2019-08-12T06:53:56Z</time>
      </trkpt>
      <trkpt lat="39.1900870" lon="-3.8290430">
        <ele>645.1</ele>
        <time>2019-08-12T06:53:57Z</time>
      </trkpt>
      <trkpt lat="39.1901210" lon="-3.8289920">
        <ele>645.2</ele>
        <time>2019-08-12T06:53:58Z</time>
      </trkpt>
      <trkpt lat="39.1901550" lon="-3.8289390">
        <ele>645.3</ele>
        <time>2019-08-12T06:53:59Z</time>
      </trkpt>
      <trkpt lat="39.1901900" lon="-3.8288850">
        <ele>645.4</ele>
        <time>2019-08-12T06:54:00Z</time>
      </trkpt>
      <trkpt lat="39.1902250" lon="-3.8288300">
        <ele>645.5</ele>
        <time>2019-08-12T06:54:01Z</time>
      </trkpt>
      <trkpt lat="39.1902610" lon="-3.8287750">
        <ele>645.6</ele>
        <time>2019-08-12T06:54:02Z</time>
      </trkpt>
      <trkpt lat="39.1903220" lon="-3.8286810">
        <ele>645.7</ele>
        <time>2019-08-12T06:54:03Z</time>
      </trkpt>
      <trkpt lat="39.1903460" lon="-3.8286440">
        <ele>645.8</ele>
        <time>2019-08-12T06:54:04Z</time>
      </trkpt>
      <trkpt lat="39.1903710" lon="-3.8286060">
        <ele>645.8</ele>
        <time>2019-08-12T06:54:05Z</time>
      </trkpt>
      <trkpt lat="39.1904080" lon="-3.8285500">
        <ele>645.8</ele>
        <time>2019-08-12T06:54:06Z</time>
      </trkpt>
      <trkpt lat="39.1904450" lon="-3.8284940">
        <ele>645.9</ele>
        <time>2019-08-12T06:54:07Z</time>
      </trkpt>
      <trkpt lat="39.1905070" lon="-3.8284020">
        <ele>645.9</ele>
        <time>2019-08-12T06:54:08Z</time>
      </trkpt>
      <trkpt lat="39.1905320" lon="-3.8283650">
        <ele>645.9</ele>
        <time>2019-08-12T06:54:09Z</time>
      </trkpt>
      <trkpt lat="39.1905570" lon="-3.8283280">
        <ele>645.9</ele>
        <time>2019-08-12T06:54:10Z</time>
      </trkpt>
      <trkpt lat="39.1905940" lon="-3.8282730">
        <ele>645.9</ele>
        <time>2019-08-12T06:54:11Z</time>
      </trkpt>
      <trkpt lat="39.1906320" lon="-3.8282170">
        <ele>645.9</ele>
        <time>2019-08-12T06:54:12Z</time>
      </trkpt>
      <trkpt lat="39.1906960" lon="-3.8281210">
        <ele>645.9</ele>
        <time>2019-08-12T06:54:13Z</time>
      </trkpt>
      <trkpt lat="39.1907220" lon="-3.8280830">
        <ele>645.9</ele>
        <time>2019-08-12T06:54:14Z</time>
      </trkpt>
      <trkpt lat="39.1907480" lon="-3.8280440">
        <ele>645.9</ele>
        <time>2019-08-12T06:54:15Z</time>
      </trkpt>
      <trkpt lat="39.1907880" lon="-3.8279840">
        <ele>645.9</ele>
        <time>2019-08-12T06:54:16Z</time>
      </trkpt>
      <trkpt lat="39.1908290" lon="-3.8279220">
        <ele>645.9</ele>
        <time>2019-08-12T06:54:17Z</time>
      </trkpt>
      <trkpt lat="39.1908710" lon="-3.8278580">
        <ele>645.9</ele>
        <time>2019-08-12T06:54:18Z</time>
      </trkpt>
      <trkpt lat="39.1909130" lon="-3.8277930">
        <ele>645.9</ele>
        <time>2019-08-12T06:54:19Z</time>
      </trkpt>
      <trkpt lat="39.1909560" lon="-3.8277270">
        <ele>646.0</ele>
        <time>2019-08-12T06:54:20Z</time>
      </trkpt>
      <trkpt lat="39.1909990" lon="-3.8276600">
        <ele>646.0</ele>
        <time>2019-08-12T06:54:21Z</time>
      </trkpt>
      <trkpt lat="39.1910430" lon="-3.8275920">
        <ele>646.0</ele>
        <time>2019-08-12T06:54:22Z</time>
      </trkpt>
      <trkpt lat="39.1910880" lon="-3.8275230">
        <ele>646.0</ele>
        <time>2019-08-12T06:54:23Z</time>
      </trkpt>
      <trkpt lat="39.1911340" lon="-3.8274540">
        <ele>646.1</ele>
        <time>2019-08-12T06:54:24Z</time>
      </trkpt>
      <trkpt lat="39.1911800" lon="-3.8273840">
        <ele>646.1</ele>
        <time>2019-08-12T06:54:25Z</time>
      </trkpt>
      <trkpt lat="39.1912260" lon="-3.8273140">
        <ele>646.2</ele>
        <time>2019-08-12T06:54:26Z</time>
      </trkpt>
      <trkpt lat="39.1912730" lon="-3.8272440">
        <ele>646.3</ele>
        <time>2019-08-12T06:54:27Z</time>
      </trkpt>
      <trkpt lat="39.1913200" lon="-3.8271740">
        <ele>646.4</ele>
        <time>2019-08-12T06:54:28Z</time>
      </trkpt>
      <trkpt lat="39.1913680" lon="-3.8271040">
        <ele>646.5</ele>
        <time>2019-08-12T06:54:29Z</time>
      </trkpt>
      <trkpt lat="39.1914150" lon="-3.8270340">
        <ele>646.6</ele>
        <time>2019-08-12T06:54:30Z</time>
      </trkpt>
      <trkpt lat="39.1914620" lon="-3.8269640">
        <ele>646.7</ele>
        <time>2019-08-12T06:54:31Z</time>
      </trkpt>
      <trkpt lat="39.1915090" lon="-3.8268950">
        <ele>646.8</ele>
        <time>2019-08-12T06:54:32Z</time>
      </trkpt>
      <trkpt lat="39.1915560" lon="-3.8268270">
        <ele>646.9</ele>
        <time>2019-08-12T06:54:33Z</time>
      </trkpt>
      <trkpt lat="39.1916020" lon="-3.8267590">
        <ele>647.1</ele>
        <time>2019-08-12T06:54:34Z</time>
      </trkpt>
      <trkpt lat="39.1916470" lon="-3.8266920">
        <ele>647.2</ele>
        <time>2019-08-12T06:54:35Z</time>
      </trkpt>
      <trkpt lat="39.1916920" lon="-3.8266250">
        <ele>647.2</ele>
        <time>2019-08-12T06:54:36Z</time>
      </trkpt>
      <trkpt lat="39.1917360" lon="-3.8265600">
        <ele>647.3</ele>
        <time>2019-08-12T06:54:37Z</time>
      </trkpt>
      <trkpt lat="39.1917800" lon="-3.8264950">
        <ele>647.4</ele>
        <time>2019-08-12T06:54:38Z</time>
      </trkpt>
      <trkpt lat="39.1918230" lon="-3.8264300">
        <ele>647.4</ele>
        <time>2019-08-12T06:54:39Z</time>
      </trkpt>
      <trkpt lat="39.1918660" lon="-3.8263660">
        <ele>647.3</ele>
        <time>2019-08-12T06:54:40Z</time>
      </trkpt>
      <trkpt lat="39.1919080" lon="-3.8263030">
        <ele>647.3</ele>
        <time>2019-08-12T06:54:41Z</time>
      </trkpt>
      <trkpt lat="39.1919500" lon="-3.8262400">
        <ele>647.4</ele>
        <time>2019-08-12T06:54:42Z</time>
      </trkpt>
      <trkpt lat="39.1919910" lon="-3.8261770">
        <ele>647.4</ele>
        <time>2019-08-12T06:54:43Z</time>
      </trkpt>
      <trkpt lat="39.1920330" lon="-3.8261150">
        <ele>647.4</ele>
        <time>2019-08-12T06:54:44Z</time>
      </trkpt>
      <trkpt lat="39.1920730" lon="-3.8260530">
        <ele>647.5</ele>
        <time>2019-08-12T06:54:45Z</time>
      </trkpt>
      <trkpt lat="39.1921140" lon="-3.8259910">
        <ele>647.6</ele>
        <time>2019-08-12T06:54:46Z</time>
      </trkpt>
      <trkpt lat="39.1921540" lon="-3.8259290">
        <ele>647.6</ele>
        <time>2019-08-12T06:54:47Z</time>
      </trkpt>
      <trkpt lat="39.1921950" lon="-3.8258680">
        <ele>647.7</ele>
        <time>2019-08-12T06:54:48Z</time>
      </trkpt>
      <trkpt lat="39.1922350" lon="-3.8258070">
        <ele>647.8</ele>
        <time>2019-08-12T06:54:49Z</time>
      </trkpt>
      <trkpt lat="39.1922750" lon="-3.8257460">
        <ele>647.8</ele>
        <time>2019-08-12T06:54:50Z</time>
      </trkpt>
      <trkpt lat="39.1923150" lon="-3.8256840">
        <ele>647.9</ele>
        <time>2019-08-12T06:54:51Z</time>
      </trkpt>
      <trkpt lat="39.1923550" lon="-3.8256230">
        <ele>647.9</ele>
        <time>2019-08-12T06:54:52Z</time>
      </trkpt>
      <trkpt lat="39.1923950" lon="-3.8255620">
        <ele>647.9</ele>
        <time>2019-08-12T06:54:53Z</time>
      </trkpt>
      <trkpt lat="39.1924350" lon="-3.8255010">
        <ele>647.9</ele>
        <time>2019-08-12T06:54:54Z</time>
      </trkpt>
      <trkpt lat="39.1924750" lon="-3.8254390">
        <ele>647.9</ele>
        <time>2019-08-12T06:54:55Z</time>
      </trkpt>
      <trkpt lat="39.1925150" lon="-3.8253780">
        <ele>647.9</ele>
        <time>2019-08-12T06:54:56Z</time>
      </trkpt>
      <trkpt lat="39.1925550" lon="-3.8253160">
        <ele>647.9</ele>
        <time>2019-08-12T06:54:57Z</time>
      </trkpt>
      <trkpt lat="39.1925950" lon="-3.8252550">
        <ele>648.0</ele>
        <time>2019-08-12T06:54:58Z</time>
      </trkpt>
      <trkpt lat="39.1926360" lon="-3.8251930">
        <ele>648.0</ele>
        <time>2019-08-12T06:54:59Z</time>
      </trkpt>
      <trkpt lat="39.1926760" lon="-3.8251310">
        <ele>648.1</ele>
        <time>2019-08-12T06:55:00Z</time>
      </trkpt>
      <trkpt lat="39.1927170" lon="-3.8250690">
        <ele>648.2</ele>
        <time>2019-08-12T06:55:01Z</time>
      </trkpt>
      <trkpt lat="39.1927570" lon="-3.8250080">
        <ele>648.2</ele>
        <time>2019-08-12T06:55:02Z</time>
      </trkpt>
      <trkpt lat="39.1927980" lon="-3.8249460">
        <ele>648.3</ele>
        <time>2019-08-12T06:55:03Z</time>
      </trkpt>
      <trkpt lat="39.1928380" lon="-3.8248840">
        <ele>648.3</ele>
        <time>2019-08-12T06:55:04Z</time>
      </trkpt>
      <trkpt lat="39.1928790" lon="-3.8248220">
        <ele>648.3</ele>
        <time>2019-08-12T06:55:05Z</time>
      </trkpt>
      <trkpt lat="39.1929200" lon="-3.8247600">
        <ele>648.3</ele>
        <time>2019-08-12T06:55:06Z</time>
      </trkpt>
      <trkpt lat="39.1929610" lon="-3.8246980">
        <ele>648.3</ele>
        <time>2019-08-12T06:55:07Z</time>
      </trkpt>
      <trkpt lat="39.1930020" lon="-3.8246370">
        <ele>648.3</ele>
        <time>2019-08-12T06:55:08Z</time>
      </trkpt>
      <trkpt lat="39.1930430" lon="-3.8245750">
        <ele>648.3</ele>
        <time>2019-08-12T06:55:09Z</time>
      </trkpt>
      <trkpt lat="39.1930840" lon="-3.8245130">
        <ele>648.3</ele>
        <time>2019-08-12T06:55:10Z</time>
      </trkpt>
      <trkpt lat="39.1931250" lon="-3.8244510">
        <ele>648.3</ele>
        <time>2019-08-12T06:55:11Z</time>
      </trkpt>
      <trkpt lat="39.1931660" lon="-3.8243900">
        <ele>648.3</ele>
        <time>2019-08-12T06:55:12Z</time>
      </trkpt>
      <trkpt lat="39.1932080" lon="-3.8243280">
        <ele>648.4</ele>
        <time>2019-08-12T06:55:13Z</time>
      </trkpt>
      <trkpt lat="39.1932490" lon="-3.8242670">
        <ele>648.4</ele>
        <time>2019-08-12T06:55:14Z</time>
      </trkpt>
      <trkpt lat="39.1932900" lon="-3.8242050">
        <ele>648.4</ele>
        <time>2019-08-12T06:55:15Z</time>
      </trkpt>
      <trkpt lat="39.1933320" lon="-3.8241440">
        <ele>648.4</ele>
        <time>2019-08-12T06:55:16Z</time>
      </trkpt>
      <trkpt lat="39.1933730" lon="-3.8240830">
        <ele>648.4</ele>
        <time>2019-08-12T06:55:17Z</time>
      </trkpt>
      <trkpt lat="39.1934150" lon="-3.8240220">
        <ele>648.4</ele>
        <time>2019-08-12T06:55:18Z</time>
      </trkpt>
      <trkpt lat="39.1934560" lon="-3.8239600">
        <ele>648.4</ele>
        <time>2019-08-12T06:55:19Z</time>
      </trkpt>
      <trkpt lat="39.1934980" lon="-3.8238990">
        <ele>648.4</ele>
        <time>2019-08-12T06:55:20Z</time>
      </trkpt>
      <trkpt lat="39.1935390" lon="-3.8238380">
        <ele>648.4</ele>
        <time>2019-08-12T06:55:21Z</time>
      </trkpt>
      <trkpt lat="39.1935810" lon="-3.8237770">
        <ele>648.5</ele>
        <time>2019-08-12T06:55:22Z</time>
      </trkpt>
      <trkpt lat="39.1936220" lon="-3.8237160">
        <ele>648.5</ele>
        <time>2019-08-12T06:55:23Z</time>
      </trkpt>
      <trkpt lat="39.1936640" lon="-3.8236550">
        <ele>648.5</ele>
        <time>2019-08-12T06:55:24Z</time>
      </trkpt>
      <trkpt lat="39.1937050" lon="-3.8235950">
        <ele>648.6</ele>
        <time>2019-08-12T06:55:25Z</time>
      </trkpt>
      <trkpt lat="39.1937470" lon="-3.8235340">
        <ele>648.6</ele>
        <time>2019-08-12T06:55:26Z</time>
      </trkpt>
      <trkpt lat="39.1937880" lon="-3.8234730">
        <ele>648.6</ele>
        <time>2019-08-12T06:55:27Z</time>
      </trkpt>
      <trkpt lat="39.1938290" lon="-3.8234120">
        <ele>648.6</ele>
        <time>2019-08-12T06:55:28Z</time>
      </trkpt>
      <trkpt lat="39.1938700" lon="-3.8233520">
        <ele>648.7</ele>
        <time>2019-08-12T06:55:29Z</time>
      </trkpt>
      <trkpt lat="39.1939110" lon="-3.8232910">
        <ele>648.7</ele>
        <time>2019-08-12T06:55:30Z</time>
      </trkpt>
      <trkpt lat="39.1939520" lon="-3.8232300">
        <ele>648.7</ele>
        <time>2019-08-12T06:55:31Z</time>
      </trkpt>
      <trkpt lat="39.1939930" lon="-3.8231700">
        <ele>648.8</ele>
        <time>2019-08-12T06:55:32Z</time>
      </trkpt>
      <trkpt lat="39.1940340" lon="-3.8231090">
        <ele>648.8</ele>
        <time>2019-08-12T06:55:33Z</time>
      </trkpt>
      <trkpt lat="39.1940750" lon="-3.8230490">
        <ele>648.8</ele>
        <time>2019-08-12T06:55:34Z</time>
      </trkpt>
      <trkpt lat="39.1941160" lon="-3.8229880">
        <ele>648.9</ele>
        <time>2019-08-12T06:55:35Z</time>
      </trkpt>
      <trkpt lat="39.1941560" lon="-3.8229280">
        <ele>648.9</ele>
        <time>2019-08-12T06:55:36Z</time>
      </trkpt>
      <trkpt lat="39.1941970" lon="-3.8228670">
        <ele>649.0</ele>
        <time>2019-08-12T06:55:37Z</time>
      </trkpt>
      <trkpt lat="39.1942380" lon="-3.8228060">
        <ele>649.0</ele>
        <time>2019-08-12T06:55:38Z</time>
      </trkpt>
      <trkpt lat="39.1942790" lon="-3.8227460">
        <ele>649.0</ele>
        <time>2019-08-12T06:55:39Z</time>
      </trkpt>
      <trkpt lat="39.1943200" lon="-3.8226850">
        <ele>649.1</ele>
        <time>2019-08-12T06:55:40Z</time>
      </trkpt>
      <trkpt lat="39.1943610" lon="-3.8226240">
        <ele>649.1</ele>
        <time>2019-08-12T06:55:41Z</time>
      </trkpt>
      <trkpt lat="39.1944030" lon="-3.8225640">
        <ele>649.2</ele>
        <time>2019-08-12T06:55:42Z</time>
      </trkpt>
      <trkpt lat="39.1944440" lon="-3.8225030">
        <ele>649.3</ele>
        <time>2019-08-12T06:55:43Z</time>
      </trkpt>
      <trkpt lat="39.1944850" lon="-3.8224430">
        <ele>649.3</ele>
        <time>2019-08-12T06:55:44Z</time>
      </trkpt>
      <trkpt lat="39.1945260" lon="-3.8223820">
        <ele>649.4</ele>
        <time>2019-08-12T06:55:45Z</time>
      </trkpt>
      <trkpt lat="39.1945670" lon="-3.8223220">
        <ele>649.5</ele>
        <time>2019-08-12T06:55:46Z</time>
      </trkpt>
      <trkpt lat="39.1946070" lon="-3.8222620">
        <ele>649.5</ele>
        <time>2019-08-12T06:55:47Z</time>
      </trkpt>
      <trkpt lat="39.1946480" lon="-3.8222020">
        <ele>649.6</ele>
        <time>2019-08-12T06:55:48Z</time>
      </trkpt>
      <trkpt lat="39.1946880" lon="-3.8221420">
        <ele>649.7</ele>
        <time>2019-08-12T06:55:49Z</time>
      </trkpt>
      <trkpt lat="39.1947270" lon="-3.8220820">
        <ele>649.8</ele>
        <time>2019-08-12T06:55:50Z</time>
      </trkpt>
      <trkpt lat="39.1947670" lon="-3.8220230">
        <ele>649.9</ele>
        <time>2019-08-12T06:55:51Z</time>
      </trkpt>
      <trkpt lat="39.1948060" lon="-3.8219640">
        <ele>650.0</ele>
        <time>2019-08-12T06:55:52Z</time>
      </trkpt>
      <trkpt lat="39.1948460" lon="-3.8219050">
        <ele>650.0</ele>
        <time>2019-08-12T06:55:53Z</time>
      </trkpt>
      <trkpt lat="39.1948850" lon="-3.8218460">
        <ele>650.1</ele>
        <time>2019-08-12T06:55:54Z</time>
      </trkpt>
      <trkpt lat="39.1949230" lon="-3.8217870">
        <ele>650.2</ele>
        <time>2019-08-12T06:55:55Z</time>
      </trkpt>
      <trkpt lat="39.1949620" lon="-3.8217290">
        <ele>650.3</ele>
        <time>2019-08-12T06:55:56Z</time>
      </trkpt>
      <trkpt lat="39.1950010" lon="-3.8216710">
        <ele>650.4</ele>
        <time>2019-08-12T06:55:57Z</time>
      </trkpt>
      <trkpt lat="39.1950390" lon="-3.8216120">
        <ele>650.5</ele>
        <time>2019-08-12T06:55:58Z</time>
      </trkpt>
      <trkpt lat="39.1950780" lon="-3.8215540">
        <ele>650.6</ele>
        <time>2019-08-12T06:55:59Z</time>
      </trkpt>
      <trkpt lat="39.1951160" lon="-3.8214960">
        <ele>650.7</ele>
        <time>2019-08-12T06:56:00Z</time>
      </trkpt>
      <trkpt lat="39.1951550" lon="-3.8214380">
        <ele>650.8</ele>
        <time>2019-08-12T06:56:01Z</time>
      </trkpt>
      <trkpt lat="39.1951930" lon="-3.8213800">
        <ele>650.9</ele>
        <time>2019-08-12T06:56:02Z</time>
      </trkpt>
      <trkpt lat="39.1952320" lon="-3.8213230">
        <ele>651.0</ele>
        <time>2019-08-12T06:56:03Z</time>
      </trkpt>
      <trkpt lat="39.1952700" lon="-3.8212650">
        <ele>651.1</ele>
        <time>2019-08-12T06:56:04Z</time>
      </trkpt>
      <trkpt lat="39.1953090" lon="-3.8212070">
        <ele>651.1</ele>
        <time>2019-08-12T06:56:05Z</time>
      </trkpt>
      <trkpt lat="39.1953480" lon="-3.8211490">
        <ele>651.2</ele>
        <time>2019-08-12T06:56:06Z</time>
      </trkpt>
      <trkpt lat="39.1953870" lon="-3.8210920">
        <ele>651.2</ele>
        <time>2019-08-12T06:56:07Z</time>
      </trkpt>
      <trkpt lat="39.1954260" lon="-3.8210340">
        <ele>651.2</ele>
        <time>2019-08-12T06:56:08Z</time>
      </trkpt>
      <trkpt lat="39.1954650" lon="-3.8209770">
        <ele>651.2</ele>
        <time>2019-08-12T06:56:09Z</time>
      </trkpt>
      <trkpt lat="39.1955040" lon="-3.8209190">
        <ele>651.2</ele>
        <time>2019-08-12T06:56:10Z</time>
      </trkpt>
      <trkpt lat="39.1955430" lon="-3.8208610">
        <ele>651.2</ele>
        <time>2019-08-12T06:56:11Z</time>
      </trkpt>
      <trkpt lat="39.1955830" lon="-3.8208040">
        <ele>651.2</ele>
        <time>2019-08-12T06:56:12Z</time>
      </trkpt>
      <trkpt lat="39.1956220" lon="-3.8207460">
        <ele>651.3</ele>
        <time>2019-08-12T06:56:13Z</time>
      </trkpt>
      <trkpt lat="39.1956620" lon="-3.8206890">
        <ele>651.3</ele>
        <time>2019-08-12T06:56:14Z</time>
      </trkpt>
      <trkpt lat="39.1957010" lon="-3.8206310">
        <ele>651.3</ele>
        <time>2019-08-12T06:56:15Z</time>
      </trkpt>
      <trkpt lat="39.1957400" lon="-3.8205730">
        <ele>651.4</ele>
        <time>2019-08-12T06:56:16Z</time>
      </trkpt>
      <trkpt lat="39.1957800" lon="-3.8205160">
        <ele>651.4</ele>
        <time>2019-08-12T06:56:17Z</time>
      </trkpt>
      <trkpt lat="39.1958190" lon="-3.8204580">
        <ele>651.6</ele>
        <time>2019-08-12T06:56:18Z</time>
      </trkpt>
      <trkpt lat="39.1958580" lon="-3.8204000">
        <ele>651.7</ele>
        <time>2019-08-12T06:56:19Z</time>
      </trkpt>
      <trkpt lat="39.1958970" lon="-3.8203430">
        <ele>651.9</ele>
        <time>2019-08-12T06:56:20Z</time>
      </trkpt>
      <trkpt lat="39.1959360" lon="-3.8202850">
        <ele>652.0</ele>
        <time>2019-08-12T06:56:21Z</time>
      </trkpt>
      <trkpt lat="39.1959740" lon="-3.8202270">
        <ele>652.1</ele>
        <time>2019-08-12T06:56:22Z</time>
      </trkpt>
      <trkpt lat="39.1960130" lon="-3.8201690">
        <ele>652.3</ele>
        <time>2019-08-12T06:56:23Z</time>
      </trkpt>
      <trkpt lat="39.1960510" lon="-3.8201120">
        <ele>652.3</ele>
        <time>2019-08-12T06:56:24Z</time>
      </trkpt>
      <trkpt lat="39.1960890" lon="-3.8200540">
        <ele>652.4</ele>
        <time>2019-08-12T06:56:25Z</time>
      </trkpt>
      <trkpt lat="39.1961260" lon="-3.8199960">
        <ele>652.5</ele>
        <time>2019-08-12T06:56:26Z</time>
      </trkpt>
      <trkpt lat="39.1961640" lon="-3.8199380">
        <ele>652.6</ele>
        <time>2019-08-12T06:56:27Z</time>
      </trkpt>
      <trkpt lat="39.1962010" lon="-3.8198800">
        <ele>652.7</ele>
        <time>2019-08-12T06:56:28Z</time>
      </trkpt>
      <trkpt lat="39.1962380" lon="-3.8198220">
        <ele>652.7</ele>
        <time>2019-08-12T06:56:29Z</time>
      </trkpt>
      <trkpt lat="39.1962750" lon="-3.8197640">
        <ele>652.8</ele>
        <time>2019-08-12T06:56:30Z</time>
      </trkpt>
      <trkpt lat="39.1963120" lon="-3.8197060">
        <ele>652.8</ele>
        <time>2019-08-12T06:56:31Z</time>
      </trkpt>
      <trkpt lat="39.1963490" lon="-3.8196480">
        <ele>652.9</ele>
        <time>2019-08-12T06:56:32Z</time>
      </trkpt>
      <trkpt lat="39.1963860" lon="-3.8195900">
        <ele>652.9</ele>
        <time>2019-08-12T06:56:33Z</time>
      </trkpt>
      <trkpt lat="39.1964230" lon="-3.8195320">
        <ele>653.0</ele>
        <time>2019-08-12T06:56:34Z</time>
      </trkpt>
      <trkpt lat="39.1964600" lon="-3.8194740">
        <ele>653.0</ele>
        <time>2019-08-12T06:56:35Z</time>
      </trkpt>
      <trkpt lat="39.1964970" lon="-3.8194160">
        <ele>653.1</ele>
        <time>2019-08-12T06:56:36Z</time>
      </trkpt>
      <trkpt lat="39.1965340" lon="-3.8193590">
        <ele>653.1</ele>
        <time>2019-08-12T06:56:37Z</time>
      </trkpt>
      <trkpt lat="39.1965710" lon="-3.8193010">
        <ele>653.2</ele>
        <time>2019-08-12T06:56:38Z</time>
      </trkpt>
      <trkpt lat="39.1966090" lon="-3.8192430">
        <ele>653.2</ele>
        <time>2019-08-12T06:56:39Z</time>
      </trkpt>
      <trkpt lat="39.1966460" lon="-3.8191860">
        <ele>653.3</ele>
        <time>2019-08-12T06:56:40Z</time>
      </trkpt>
      <trkpt lat="39.1966830" lon="-3.8191290">
        <ele>653.3</ele>
        <time>2019-08-12T06:56:41Z</time>
      </trkpt>
      <trkpt lat="39.1967200" lon="-3.8190720">
        <ele>653.4</ele>
        <time>2019-08-12T06:56:42Z</time>
      </trkpt>
      <trkpt lat="39.1967570" lon="-3.8190160">
        <ele>653.4</ele>
        <time>2019-08-12T06:56:43Z</time>
      </trkpt>
      <trkpt lat="39.1967930" lon="-3.8189600">
        <ele>653.4</ele>
        <time>2019-08-12T06:56:44Z</time>
      </trkpt>
      <trkpt lat="39.1968300" lon="-3.8189040">
        <ele>653.5</ele>
        <time>2019-08-12T06:56:45Z</time>
      </trkpt>
      <trkpt lat="39.1968660" lon="-3.8188490">
        <ele>653.5</ele>
        <time>2019-08-12T06:56:46Z</time>
      </trkpt>
      <trkpt lat="39.1969020" lon="-3.8187940">
        <ele>653.6</ele>
        <time>2019-08-12T06:56:47Z</time>
      </trkpt>
      <trkpt lat="39.1969370" lon="-3.8187400">
        <ele>653.6</ele>
        <time>2019-08-12T06:56:48Z</time>
      </trkpt>
      <trkpt lat="39.1969730" lon="-3.8186860">
        <ele>653.7</ele>
        <time>2019-08-12T06:56:49Z</time>
      </trkpt>
      <trkpt lat="39.1970080" lon="-3.8186320">
        <ele>653.7</ele>
        <time>2019-08-12T06:56:50Z</time>
      </trkpt>
      <trkpt lat="39.1970430" lon="-3.8185780">
        <ele>653.8</ele>
        <time>2019-08-12T06:56:51Z</time>
      </trkpt>
      <trkpt lat="39.1970780" lon="-3.8185250">
        <ele>653.8</ele>
        <time>2019-08-12T06:56:52Z</time>
      </trkpt>
      <trkpt lat="39.1971130" lon="-3.8184720">
        <ele>653.9</ele>
        <time>2019-08-12T06:56:53Z</time>
      </trkpt>
      <trkpt lat="39.1971480" lon="-3.8184180">
        <ele>653.9</ele>
        <time>2019-08-12T06:56:54Z</time>
      </trkpt>
      <trkpt lat="39.1971820" lon="-3.8183650">
        <ele>654.0</ele>
        <time>2019-08-12T06:56:55Z</time>
      </trkpt>
      <trkpt lat="39.1972170" lon="-3.8183130">
        <ele>654.0</ele>
        <time>2019-08-12T06:56:56Z</time>
      </trkpt>
      <trkpt lat="39.1972510" lon="-3.8182600">
        <ele>654.0</ele>
        <time>2019-08-12T06:56:57Z</time>
      </trkpt>
      <trkpt lat="39.1972850" lon="-3.8182070">
        <ele>654.1</ele>
        <time>2019-08-12T06:56:58Z</time>
      </trkpt>
      <trkpt lat="39.1973200" lon="-3.8181540">
        <ele>654.1</ele>
        <time>2019-08-12T06:56:59Z</time>
      </trkpt>
      <trkpt lat="39.1973540" lon="-3.8181000">
        <ele>654.1</ele>
        <time>2019-08-12T06:57:00Z</time>
      </trkpt>
      <trkpt lat="39.1973880" lon="-3.8180470">
        <ele>654.1</ele>
        <time>2019-08-12T06:57:01Z</time>
      </trkpt>
      <trkpt lat="39.1974230" lon="-3.8179940">
        <ele>654.1</ele>
        <time>2019-08-12T06:57:02Z</time>
      </trkpt>
      <trkpt lat="39.1974570" lon="-3.8179400">
        <ele>654.1</ele>
        <time>2019-08-12T06:57:03Z</time>
      </trkpt>
      <trkpt lat="39.1974920" lon="-3.8178870">
        <ele>654.1</ele>
        <time>2019-08-12T06:57:04Z</time>
      </trkpt>
      <trkpt lat="39.1975260" lon="-3.8178330">
        <ele>654.1</ele>
        <time>2019-08-12T06:57:05Z</time>
      </trkpt>
      <trkpt lat="39.1975610" lon="-3.8177780">
        <ele>654.1</ele>
        <time>2019-08-12T06:57:06Z</time>
      </trkpt>
      <trkpt lat="39.1975960" lon="-3.8177240">
        <ele>654.0</ele>
        <time>2019-08-12T06:57:07Z</time>
      </trkpt>
      <trkpt lat="39.1976320" lon="-3.8176700">
        <ele>654.0</ele>
        <time>2019-08-12T06:57:08Z</time>
      </trkpt>
      <trkpt lat="39.1976680" lon="-3.8176150">
        <ele>654.0</ele>
        <time>2019-08-12T06:57:09Z</time>
      </trkpt>
      <trkpt lat="39.1977040" lon="-3.8175600">
        <ele>653.9</ele>
        <time>2019-08-12T06:57:10Z</time>
      </trkpt>
      <trkpt lat="39.1977400" lon="-3.8175060">
        <ele>653.9</ele>
        <time>2019-08-12T06:57:11Z</time>
      </trkpt>
      <trkpt lat="39.1977780" lon="-3.8174510">
        <ele>653.8</ele>
        <time>2019-08-12T06:57:12Z</time>
      </trkpt>
      <trkpt lat="39.1978150" lon="-3.8173960">
        <ele>653.8</ele>
        <time>2019-08-12T06:57:13Z</time>
      </trkpt>
      <trkpt lat="39.1978540" lon="-3.8173410">
        <ele>653.8</ele>
        <time>2019-08-12T06:57:14Z</time>
      </trkpt>
      <trkpt lat="39.1978920" lon="-3.8172850">
        <ele>653.8</ele>
        <time>2019-08-12T06:57:15Z</time>
      </trkpt>
      <trkpt lat="39.1979310" lon="-3.8172300">
        <ele>653.8</ele>
        <time>2019-08-12T06:57:16Z</time>
      </trkpt>
      <trkpt lat="39.1979700" lon="-3.8171750">
        <ele>653.8</ele>
        <time>2019-08-12T06:57:17Z</time>
      </trkpt>
      <trkpt lat="39.1980090" lon="-3.8171200">
        <ele>653.8</ele>
        <time>2019-08-12T06:57:18Z</time>
      </trkpt>
      <trkpt lat="39.1980470" lon="-3.8170640">
        <ele>653.9</ele>
        <time>2019-08-12T06:57:19Z</time>
      </trkpt>
      <trkpt lat="39.1980860" lon="-3.8170090">
        <ele>654.0</ele>
        <time>2019-08-12T06:57:20Z</time>
      </trkpt>
      <trkpt lat="39.1981240" lon="-3.8169540">
        <ele>654.1</ele>
        <time>2019-08-12T06:57:21Z</time>
      </trkpt>
      <trkpt lat="39.1981610" lon="-3.8168990">
        <ele>654.2</ele>
        <time>2019-08-12T06:57:22Z</time>
      </trkpt>
      <trkpt lat="39.1981980" lon="-3.8168440">
        <ele>654.3</ele>
        <time>2019-08-12T06:57:23Z</time>
      </trkpt>
      <trkpt lat="39.1982350" lon="-3.8167890">
        <ele>654.5</ele>
        <time>2019-08-12T06:57:24Z</time>
      </trkpt>
      <trkpt lat="39.1982710" lon="-3.8167340">
        <ele>654.6</ele>
        <time>2019-08-12T06:57:25Z</time>
      </trkpt>
      <trkpt lat="39.1983080" lon="-3.8166800">
        <ele>654.7</ele>
        <time>2019-08-12T06:57:26Z</time>
      </trkpt>
      <trkpt lat="39.1983440" lon="-3.8166250">
        <ele>654.9</ele>
        <time>2019-08-12T06:57:27Z</time>
      </trkpt>
      <trkpt lat="39.1983810" lon="-3.8165710">
        <ele>655.0</ele>
        <time>2019-08-12T06:57:28Z</time>
      </trkpt>
      <trkpt lat="39.1984180" lon="-3.8165170">
        <ele>655.1</ele>
        <time>2019-08-12T06:57:29Z</time>
      </trkpt>
      <trkpt lat="39.1984550" lon="-3.8164630">
        <ele>655.2</ele>
        <time>2019-08-12T06:57:30Z</time>
      </trkpt>
      <trkpt lat="39.1984930" lon="-3.8164090">
        <ele>655.3</ele>
        <time>2019-08-12T06:57:31Z</time>
      </trkpt>
      <trkpt lat="39.1985310" lon="-3.8163560">
        <ele>655.4</ele>
        <time>2019-08-12T06:57:32Z</time>
      </trkpt>
      <trkpt lat="39.1985690" lon="-3.8163020">
        <ele>655.4</ele>
        <time>2019-08-12T06:57:33Z</time>
      </trkpt>
      <trkpt lat="39.1986060" lon="-3.8162480">
        <ele>655.5</ele>
        <time>2019-08-12T06:57:34Z</time>
      </trkpt>
      <trkpt lat="39.1986430" lon="-3.8161950">
        <ele>655.5</ele>
        <time>2019-08-12T06:57:35Z</time>
      </trkpt>
      <trkpt lat="39.1986790" lon="-3.8161410">
        <ele>655.5</ele>
        <time>2019-08-12T06:57:36Z</time>
      </trkpt>
      <trkpt lat="39.1987140" lon="-3.8160870">
        <ele>655.5</ele>
        <time>2019-08-12T06:57:37Z</time>
      </trkpt>
      <trkpt lat="39.1987490" lon="-3.8160340">
        <ele>655.6</ele>
        <time>2019-08-12T06:57:38Z</time>
      </trkpt>
      <trkpt lat="39.1987840" lon="-3.8159800">
        <ele>655.6</ele>
        <time>2019-08-12T06:57:39Z</time>
      </trkpt>
      <trkpt lat="39.1988190" lon="-3.8159260">
        <ele>655.6</ele>
        <time>2019-08-12T06:57:40Z</time>
      </trkpt>
      <trkpt lat="39.1988550" lon="-3.8158720">
        <ele>655.7</ele>
        <time>2019-08-12T06:57:41Z</time>
      </trkpt>
      <trkpt lat="39.1988900" lon="-3.8158190">
        <ele>655.7</ele>
        <time>2019-08-12T06:57:42Z</time>
      </trkpt>
      <trkpt lat="39.1989260" lon="-3.8157650">
        <ele>655.8</ele>
        <time>2019-08-12T06:57:43Z</time>
      </trkpt>
      <trkpt lat="39.1989620" lon="-3.8157110">
        <ele>655.8</ele>
        <time>2019-08-12T06:57:44Z</time>
      </trkpt>
      <trkpt lat="39.1989970" lon="-3.8156580">
        <ele>655.9</ele>
        <time>2019-08-12T06:57:45Z</time>
      </trkpt>
      <trkpt lat="39.1990330" lon="-3.8156050">
        <ele>656.0</ele>
        <time>2019-08-12T06:57:46Z</time>
      </trkpt>
      <trkpt lat="39.1990690" lon="-3.8155510">
        <ele>656.0</ele>
        <time>2019-08-12T06:57:47Z</time>
      </trkpt>
      <trkpt lat="39.1991050" lon="-3.8154980">
        <ele>656.1</ele>
        <time>2019-08-12T06:57:48Z</time>
      </trkpt>
      <trkpt lat="39.1991400" lon="-3.8154450">
        <ele>656.2</ele>
        <time>2019-08-12T06:57:49Z</time>
      </trkpt>
      <trkpt lat="39.1991760" lon="-3.8153920">
        <ele>656.3</ele>
        <time>2019-08-12T06:57:50Z</time>
      </trkpt>
      <trkpt lat="39.1992110" lon="-3.8153390">
        <ele>656.4</ele>
        <time>2019-08-12T06:57:51Z</time>
      </trkpt>
      <trkpt lat="39.1992460" lon="-3.8152860">
        <ele>656.5</ele>
        <time>2019-08-12T06:57:52Z</time>
      </trkpt>
      <trkpt lat="39.1992820" lon="-3.8152330">
        <ele>656.6</ele>
        <time>2019-08-12T06:57:53Z</time>
      </trkpt>
      <trkpt lat="39.1993170" lon="-3.8151800">
        <ele>656.8</ele>
        <time>2019-08-12T06:57:54Z</time>
      </trkpt>
      <trkpt lat="39.1993520" lon="-3.8151280">
        <ele>656.9</ele>
        <time>2019-08-12T06:57:55Z</time>
      </trkpt>
      <trkpt lat="39.1993870" lon="-3.8150750">
        <ele>657.1</ele>
        <time>2019-08-12T06:57:56Z</time>
      </trkpt>
      <trkpt lat="39.1994230" lon="-3.8150230">
        <ele>657.3</ele>
        <time>2019-08-12T06:57:57Z</time>
      </trkpt>
      <trkpt lat="39.1994580" lon="-3.8149700">
        <ele>657.5</ele>
        <time>2019-08-12T06:57:58Z</time>
      </trkpt>
      <trkpt lat="39.1994940" lon="-3.8149180">
        <ele>657.6</ele>
        <time>2019-08-12T06:57:59Z</time>
      </trkpt>
      <trkpt lat="39.1995300" lon="-3.8148640">
        <ele>657.7</ele>
        <time>2019-08-12T06:58:00Z</time>
      </trkpt>
      <trkpt lat="39.1995660" lon="-3.8148100">
        <ele>657.8</ele>
        <time>2019-08-12T06:58:01Z</time>
      </trkpt>
      <trkpt lat="39.1996040" lon="-3.8147550">
        <ele>657.9</ele>
        <time>2019-08-12T06:58:02Z</time>
      </trkpt>
      <trkpt lat="39.1996420" lon="-3.8146990">
        <ele>658.0</ele>
        <time>2019-08-12T06:58:03Z</time>
      </trkpt>
      <trkpt lat="39.1996800" lon="-3.8146410">
        <ele>658.1</ele>
        <time>2019-08-12T06:58:04Z</time>
      </trkpt>
      <trkpt lat="39.1997190" lon="-3.8145830">
        <ele>658.1</ele>
        <time>2019-08-12T06:58:05Z</time>
      </trkpt>
      <trkpt lat="39.1997580" lon="-3.8145250">
        <ele>658.2</ele>
        <time>2019-08-12T06:58:06Z</time>
      </trkpt>
      <trkpt lat="39.1997970" lon="-3.8144670">
        <ele>658.2</ele>
        <time>2019-08-12T06:58:07Z</time>
      </trkpt>
      <trkpt lat="39.1998350" lon="-3.8144090">
        <ele>658.2</ele>
        <time>2019-08-12T06:58:08Z</time>
      </trkpt>
      <trkpt lat="39.1998740" lon="-3.8143510">
        <ele>658.2</ele>
        <time>2019-08-12T06:58:09Z</time>
      </trkpt>
      <trkpt lat="39.1999130" lon="-3.8142930">
        <ele>658.2</ele>
        <time>2019-08-12T06:58:10Z</time>
      </trkpt>
      <trkpt lat="39.1999520" lon="-3.8142350">
        <ele>658.2</ele>
        <time>2019-08-12T06:58:11Z</time>
      </trkpt>
      <trkpt lat="39.1999910" lon="-3.8141770">
        <ele>658.2</ele>
        <time>2019-08-12T06:58:12Z</time>
      </trkpt>
      <trkpt lat="39.2000310" lon="-3.8141180">
        <ele>658.1</ele>
        <time>2019-08-12T06:58:13Z</time>
      </trkpt>
      <trkpt lat="39.2000710" lon="-3.8140580">
        <ele>658.1</ele>
        <time>2019-08-12T06:58:14Z</time>
      </trkpt>
      <trkpt lat="39.2001110" lon="-3.8139980">
        <ele>658.1</ele>
        <time>2019-08-12T06:58:15Z</time>
      </trkpt>
      <trkpt lat="39.2001530" lon="-3.8139370">
        <ele>658.0</ele>
        <time>2019-08-12T06:58:16Z</time>
      </trkpt>
      <trkpt lat="39.2001950" lon="-3.8138750">
        <ele>658.0</ele>
        <time>2019-08-12T06:58:17Z</time>
      </trkpt>
      <trkpt lat="39.2002370" lon="-3.8138120">
        <ele>657.9</ele>
        <time>2019-08-12T06:58:18Z</time>
      </trkpt>
      <trkpt lat="39.2002810" lon="-3.8137490">
        <ele>657.9</ele>
        <time>2019-08-12T06:58:19Z</time>
      </trkpt>
      <trkpt lat="39.2003240" lon="-3.8136840">
        <ele>657.8</ele>
        <time>2019-08-12T06:58:20Z</time>
      </trkpt>
      <trkpt lat="39.2003680" lon="-3.8136200">
        <ele>657.7</ele>
        <time>2019-08-12T06:58:21Z</time>
      </trkpt>
      <trkpt lat="39.2004120" lon="-3.8135540">
        <ele>657.7</ele>
        <time>2019-08-12T06:58:22Z</time>
      </trkpt>
      <trkpt lat="39.2004570" lon="-3.8134890">
        <ele>657.6</ele>
        <time>2019-08-12T06:58:23Z</time>
      </trkpt>
      <trkpt lat="39.2005020" lon="-3.8134230">
        <ele>657.5</ele>
        <time>2019-08-12T06:58:24Z</time>
      </trkpt>
      <trkpt lat="39.2005470" lon="-3.8133570">
        <ele>657.5</ele>
        <time>2019-08-12T06:58:25Z</time>
      </trkpt>
      <trkpt lat="39.2005910" lon="-3.8132900">
        <ele>657.4</ele>
        <time>2019-08-12T06:58:26Z</time>
      </trkpt>
      <trkpt lat="39.2006360" lon="-3.8132240">
        <ele>657.4</ele>
        <time>2019-08-12T06:58:27Z</time>
      </trkpt>
      <trkpt lat="39.2006810" lon="-3.8131570">
        <ele>657.3</ele>
        <time>2019-08-12T06:58:28Z</time>
      </trkpt>
      <trkpt lat="39.2007260" lon="-3.8130900">
        <ele>657.3</ele>
        <time>2019-08-12T06:58:29Z</time>
      </trkpt>
      <trkpt lat="39.2007710" lon="-3.8130240">
        <ele>657.3</ele>
        <time>2019-08-12T06:58:30Z</time>
      </trkpt>
      <trkpt lat="39.2008150" lon="-3.8129570">
        <ele>657.4</ele>
        <time>2019-08-12T06:58:31Z</time>
      </trkpt>
      <trkpt lat="39.2008590" lon="-3.8128910">
        <ele>657.4</ele>
        <time>2019-08-12T06:58:32Z</time>
      </trkpt>
      <trkpt lat="39.2009030" lon="-3.8128250">
        <ele>657.4</ele>
        <time>2019-08-12T06:58:33Z</time>
      </trkpt>
      <trkpt lat="39.2009460" lon="-3.8127600">
        <ele>657.5</ele>
        <time>2019-08-12T06:58:34Z</time>
      </trkpt>
      <trkpt lat="39.2009890" lon="-3.8126950">
        <ele>657.5</ele>
        <time>2019-08-12T06:58:35Z</time>
      </trkpt>
      <trkpt lat="39.2010320" lon="-3.8126300">
        <ele>657.6</ele>
        <time>2019-08-12T06:58:36Z</time>
      </trkpt>
      <trkpt lat="39.2010740" lon="-3.8125660">
        <ele>657.6</ele>
        <time>2019-08-12T06:58:37Z</time>
      </trkpt>
      <trkpt lat="39.2011150" lon="-3.8125020">
        <ele>657.7</ele>
        <time>2019-08-12T06:58:38Z</time>
      </trkpt>
      <trkpt lat="39.2011570" lon="-3.8124390">
        <ele>657.7</ele>
        <time>2019-08-12T06:58:39Z</time>
      </trkpt>
      <trkpt lat="39.2011980" lon="-3.8123770">
        <ele>657.7</ele>
        <time>2019-08-12T06:58:40Z</time>
      </trkpt>
      <trkpt lat="39.2012380" lon="-3.8123140">
        <ele>657.8</ele>
        <time>2019-08-12T06:58:41Z</time>
      </trkpt>
      <trkpt lat="39.2012790" lon="-3.8122520">
        <ele>657.9</ele>
        <time>2019-08-12T06:58:42Z</time>
      </trkpt>
      <trkpt lat="39.2013190" lon="-3.8121910">
        <ele>657.9</ele>
        <time>2019-08-12T06:58:43Z</time>
      </trkpt>
      <trkpt lat="39.2013590" lon="-3.8121300">
        <ele>658.0</ele>
        <time>2019-08-12T06:58:44Z</time>
      </trkpt>
      <trkpt lat="39.2013990" lon="-3.8120690">
        <ele>658.0</ele>
        <time>2019-08-12T06:58:45Z</time>
      </trkpt>
      <trkpt lat="39.2014380" lon="-3.8120090">
        <ele>658.1</ele>
        <time>2019-08-12T06:58:46Z</time>
      </trkpt>
      <trkpt lat="39.2014780" lon="-3.8119500">
        <ele>658.2</ele>
        <time>2019-08-12T06:58:47Z</time>
      </trkpt>
      <trkpt lat="39.2015170" lon="-3.8118910">
        <ele>658.2</ele>
        <time>2019-08-12T06:58:48Z</time>
      </trkpt>
      <trkpt lat="39.2015560" lon="-3.8118320">
        <ele>658.2</ele>
        <time>2019-08-12T06:58:49Z</time>
      </trkpt>
      <trkpt lat="39.2015960" lon="-3.8117740">
        <ele>658.3</ele>
        <time>2019-08-12T06:58:50Z</time>
      </trkpt>
      <trkpt lat="39.2016350" lon="-3.8117160">
        <ele>658.3</ele>
        <time>2019-08-12T06:58:51Z</time>
      </trkpt>
      <trkpt lat="39.2016740" lon="-3.8116580">
        <ele>658.3</ele>
        <time>2019-08-12T06:58:52Z</time>
      </trkpt>
      <trkpt lat="39.2017140" lon="-3.8116020">
        <ele>658.3</ele>
        <time>2019-08-12T06:58:53Z</time>
      </trkpt>
      <trkpt lat="39.2017530" lon="-3.8115450">
        <ele>658.4</ele>
        <time>2019-08-12T06:58:54Z</time>
      </trkpt>
      <trkpt lat="39.2017920" lon="-3.8114890">
        <ele>658.4</ele>
        <time>2019-08-12T06:58:55Z</time>
      </trkpt>
      <trkpt lat="39.2018320" lon="-3.8114330">
        <ele>658.4</ele>
        <time>2019-08-12T06:58:56Z</time>
      </trkpt>
      <trkpt lat="39.2018700" lon="-3.8113780">
        <ele>658.5</ele>
        <time>2019-08-12T06:58:57Z</time>
      </trkpt>
      <trkpt lat="39.2019090" lon="-3.8113230">
        <ele>658.5</ele>
        <time>2019-08-12T06:58:58Z</time>
      </trkpt>
      <trkpt lat="39.2019470" lon="-3.8112690">
        <ele>658.6</ele>
        <time>2019-08-12T06:58:59Z</time>
      </trkpt>
      <trkpt lat="39.2019850" lon="-3.8112150">
        <ele>658.7</ele>
        <time>2019-08-12T06:59:00Z</time>
      </trkpt>
      <trkpt lat="39.2020220" lon="-3.8111610">
        <ele>658.8</ele>
        <time>2019-08-12T06:59:01Z</time>
      </trkpt>
      <trkpt lat="39.2020590" lon="-3.8111070">
        <ele>658.8</ele>
        <time>2019-08-12T06:59:02Z</time>
      </trkpt>
      <trkpt lat="39.2020950" lon="-3.8110540">
        <ele>658.9</ele>
        <time>2019-08-12T06:59:03Z</time>
      </trkpt>
      <trkpt lat="39.2021310" lon="-3.8110010">
        <ele>659.0</ele>
        <time>2019-08-12T06:59:04Z</time>
      </trkpt>
      <trkpt lat="39.2021660" lon="-3.8109480">
        <ele>659.2</ele>
        <time>2019-08-12T06:59:05Z</time>
      </trkpt>
      <trkpt lat="39.2022010" lon="-3.8108960">
        <ele>659.3</ele>
        <time>2019-08-12T06:59:06Z</time>
      </trkpt>
      <trkpt lat="39.2022360" lon="-3.8108430">
        <ele>659.4</ele>
        <time>2019-08-12T06:59:07Z</time>
      </trkpt>
      <trkpt lat="39.2022710" lon="-3.8107910">
        <ele>659.5</ele>
        <time>2019-08-12T06:59:08Z</time>
      </trkpt>
      <trkpt lat="39.2023060" lon="-3.8107380">
        <ele>659.6</ele>
        <time>2019-08-12T06:59:09Z</time>
      </trkpt>
      <trkpt lat="39.2023410" lon="-3.8106860">
        <ele>659.7</ele>
        <time>2019-08-12T06:59:10Z</time>
      </trkpt>
      <trkpt lat="39.2023770" lon="-3.8106330">
        <ele>659.8</ele>
        <time>2019-08-12T06:59:11Z</time>
      </trkpt>
      <trkpt lat="39.2024130" lon="-3.8105810">
        <ele>659.9</ele>
        <time>2019-08-12T06:59:12Z</time>
      </trkpt>
      <trkpt lat="39.2024490" lon="-3.8105280">
        <ele>660.0</ele>
        <time>2019-08-12T06:59:13Z</time>
      </trkpt>
      <trkpt lat="39.2024860" lon="-3.8104750">
        <ele>660.1</ele>
        <time>2019-08-12T06:59:14Z</time>
      </trkpt>
      <trkpt lat="39.2025220" lon="-3.8104220">
        <ele>660.2</ele>
        <time>2019-08-12T06:59:15Z</time>
      </trkpt>
      <trkpt lat="39.2025590" lon="-3.8103690">
        <ele>660.3</ele>
        <time>2019-08-12T06:59:16Z</time>
      </trkpt>
      <trkpt lat="39.2025940" lon="-3.8103170">
        <ele>660.4</ele>
        <time>2019-08-12T06:59:17Z</time>
      </trkpt>
      <trkpt lat="39.2026300" lon="-3.8102640">
        <ele>660.5</ele>
        <time>2019-08-12T06:59:18Z</time>
      </trkpt>
      <trkpt lat="39.2026640" lon="-3.8102120">
        <ele>660.6</ele>
        <time>2019-08-12T06:59:19Z</time>
      </trkpt>
      <trkpt lat="39.2026970" lon="-3.8101590">
        <ele>660.6</ele>
        <time>2019-08-12T06:59:20Z</time>
      </trkpt>
      <trkpt lat="39.2027290" lon="-3.8101070">
        <ele>660.7</ele>
        <time>2019-08-12T06:59:21Z</time>
      </trkpt>
      <trkpt lat="39.2027610" lon="-3.8100540">
        <ele>660.8</ele>
        <time>2019-08-12T06:59:22Z</time>
      </trkpt>
      <trkpt lat="39.2027920" lon="-3.8100020">
        <ele>660.8</ele>
        <time>2019-08-12T06:59:23Z</time>
      </trkpt>
      <trkpt lat="39.2028240" lon="-3.8099480">
        <ele>660.8</ele>
        <time>2019-08-12T06:59:24Z</time>
      </trkpt>
      <trkpt lat="39.2028580" lon="-3.8098940">
        <ele>660.9</ele>
        <time>2019-08-12T06:59:25Z</time>
      </trkpt>
      <trkpt lat="39.2028920" lon="-3.8098380">
        <ele>660.9</ele>
        <time>2019-08-12T06:59:26Z</time>
      </trkpt>
      <trkpt lat="39.2029290" lon="-3.8097810">
        <ele>660.9</ele>
        <time>2019-08-12T06:59:27Z</time>
      </trkpt>
      <trkpt lat="39.2029660" lon="-3.8097230">
        <ele>660.9</ele>
        <time>2019-08-12T06:59:28Z</time>
      </trkpt>
      <trkpt lat="39.2030030" lon="-3.8096660">
        <ele>660.9</ele>
        <time>2019-08-12T06:59:29Z</time>
      </trkpt>
      <trkpt lat="39.2030410" lon="-3.8096080">
        <ele>660.9</ele>
        <time>2019-08-12T06:59:30Z</time>
      </trkpt>
      <trkpt lat="39.2030780" lon="-3.8095500">
        <ele>660.9</ele>
        <time>2019-08-12T06:59:31Z</time>
      </trkpt>
      <trkpt lat="39.2031150" lon="-3.8094920">
        <ele>660.9</ele>
        <time>2019-08-12T06:59:32Z</time>
      </trkpt>
      <trkpt lat="39.2031520" lon="-3.8094340">
        <ele>660.8</ele>
        <time>2019-08-12T06:59:33Z</time>
      </trkpt>
      <trkpt lat="39.2031890" lon="-3.8093760">
        <ele>660.8</ele>
        <time>2019-08-12T06:59:34Z</time>
      </trkpt>
      <trkpt lat="39.2032270" lon="-3.8093180">
        <ele>660.8</ele>
        <time>2019-08-12T06:59:35Z</time>
      </trkpt>
      <trkpt lat="39.2032640" lon="-3.8092600">
        <ele>660.7</ele>
        <time>2019-08-12T06:59:36Z</time>
      </trkpt>
      <trkpt lat="39.2033010" lon="-3.8092030">
        <ele>660.7</ele>
        <time>2019-08-12T06:59:37Z</time>
      </trkpt>
      <trkpt lat="39.2033380" lon="-3.8091450">
        <ele>660.6</ele>
        <time>2019-08-12T06:59:38Z</time>
      </trkpt>
      <trkpt lat="39.2033750" lon="-3.8090870">
        <ele>660.6</ele>
        <time>2019-08-12T06:59:39Z</time>
      </trkpt>
      <trkpt lat="39.2034130" lon="-3.8090290">
        <ele>660.5</ele>
        <time>2019-08-12T06:59:40Z</time>
      </trkpt>
      <trkpt lat="39.2034500" lon="-3.8089720">
        <ele>660.5</ele>
        <time>2019-08-12T06:59:41Z</time>
      </trkpt>
      <trkpt lat="39.2034880" lon="-3.8089140">
        <ele>660.5</ele>
        <time>2019-08-12T06:59:42Z</time>
      </trkpt>
      <trkpt lat="39.2035260" lon="-3.8088570">
        <ele>660.4</ele>
        <time>2019-08-12T06:59:43Z</time>
      </trkpt>
      <trkpt lat="39.2035650" lon="-3.8088000">
        <ele>660.4</ele>
        <time>2019-08-12T06:59:44Z</time>
      </trkpt>
      <trkpt lat="39.2036030" lon="-3.8087430">
        <ele>660.4</ele>
        <time>2019-08-12T06:59:45Z</time>
      </trkpt>
      <trkpt lat="39.2036420" lon="-3.8086860">
        <ele>660.4</ele>
        <time>2019-08-12T06:59:46Z</time>
      </trkpt>
      <trkpt lat="39.2036810" lon="-3.8086300">
        <ele>660.4</ele>
        <time>2019-08-12T06:59:47Z</time>
      </trkpt>
      <trkpt lat="39.2037200" lon="-3.8085740">
        <ele>660.4</ele>
        <time>2019-08-12T06:59:48Z</time>
      </trkpt>
      <trkpt lat="39.2037600" lon="-3.8085190">
        <ele>660.4</ele>
        <time>2019-08-12T06:59:49Z</time>
      </trkpt>
      <trkpt lat="39.2038000" lon="-3.8084640">
        <ele>660.4</ele>
        <time>2019-08-12T06:59:50Z</time>
      </trkpt>
      <trkpt lat="39.2038390" lon="-3.8084090">
        <ele>660.4</ele>
        <time>2019-08-12T06:59:51Z</time>
      </trkpt>
      <trkpt lat="39.2038780" lon="-3.8083540">
        <ele>660.4</ele>
        <time>2019-08-12T06:59:52Z</time>
      </trkpt>
      <trkpt lat="39.2039160" lon="-3.8082990">
        <ele>660.4</ele>
        <time>2019-08-12T06:59:53Z</time>
      </trkpt>
      <trkpt lat="39.2039530" lon="-3.8082440">
        <ele>660.4</ele>
        <time>2019-08-12T06:59:54Z</time>
      </trkpt>
      <trkpt lat="39.2039890" lon="-3.8081890">
        <ele>660.4</ele>
        <time>2019-08-12T06:59:55Z</time>
      </trkpt>
      <trkpt lat="39.2040240" lon="-3.8081340">
        <ele>660.3</ele>
        <time>2019-08-12T06:59:56Z</time>
      </trkpt>
      <trkpt lat="39.2040600" lon="-3.8080780">
        <ele>660.3</ele>
        <time>2019-08-12T06:59:57Z</time>
      </trkpt>
      <trkpt lat="39.2040960" lon="-3.8080220">
        <ele>660.2</ele>
        <time>2019-08-12T06:59:58Z</time>
      </trkpt>
      <trkpt lat="39.2041320" lon="-3.8079660">
        <ele>660.2</ele>
        <time>2019-08-12T06:59:59Z</time>
      </trkpt>
      <trkpt lat="39.2041680" lon="-3.8079090">
        <ele>660.1</ele>
        <time>2019-08-12T07:00:00Z</time>
      </trkpt>
      <trkpt lat="39.2042050" lon="-3.8078530">
        <ele>660.1</ele>
        <time>2019-08-12T07:00:01Z</time>
      </trkpt>
      <trkpt lat="39.2042420" lon="-3.8077970">
        <ele>660.0</ele>
        <time>2019-08-12T07:00:02Z</time>
      </trkpt>
      <trkpt lat="39.2042780" lon="-3.8077410">
        <ele>660.0</ele>
        <time>2019-08-12T07:00:03Z</time>
      </trkpt>
      <trkpt lat="39.2043150" lon="-3.8076860">
        <ele>660.0</ele>
        <time>2019-08-12T07:00:04Z</time>
      </trkpt>
      <trkpt lat="39.2043520" lon="-3.8076310">
        <ele>659.9</ele>
        <time>2019-08-12T07:00:05Z</time>
      </trkpt>
      <trkpt lat="39.2043880" lon="-3.8075760">
        <ele>659.9</ele>
        <time>2019-08-12T07:00:06Z</time>
      </trkpt>
      <trkpt lat="39.2044250" lon="-3.8075200">
        <ele>660.0</ele>
        <time>2019-08-12T07:00:07Z</time>
      </trkpt>
      <trkpt lat="39.2044620" lon="-3.8074640">
        <ele>660.0</ele>
        <time>2019-08-12T07:00:08Z</time>
      </trkpt>
      <trkpt lat="39.2044990" lon="-3.8074080">
        <ele>660.0</ele>
        <time>2019-08-12T07:00:09Z</time>
      </trkpt>
      <trkpt lat="39.2045360" lon="-3.8073520">
        <ele>660.1</ele>
        <time>2019-08-12T07:00:10Z</time>
      </trkpt>
      <trkpt lat="39.2045730" lon="-3.8072960">
        <ele>660.2</ele>
        <time>2019-08-12T07:00:11Z</time>
      </trkpt>
      <trkpt lat="39.2046100" lon="-3.8072400">
        <ele>660.3</ele>
        <time>2019-08-12T07:00:12Z</time>
      </trkpt>
      <trkpt lat="39.2046470" lon="-3.8071840">
        <ele>660.4</ele>
        <time>2019-08-12T07:00:13Z</time>
      </trkpt>
      <trkpt lat="39.2046840" lon="-3.8071290">
        <ele>660.5</ele>
        <time>2019-08-12T07:00:14Z</time>
      </trkpt>
      <trkpt lat="39.2047210" lon="-3.8070730">
        <ele>660.5</ele>
        <time>2019-08-12T07:00:15Z</time>
      </trkpt>
      <trkpt lat="39.2047580" lon="-3.8070180">
        <ele>660.6</ele>
        <time>2019-08-12T07:00:16Z</time>
      </trkpt>
      <trkpt lat="39.2047940" lon="-3.8069630">
        <ele>660.7</ele>
        <time>2019-08-12T07:00:17Z</time>
      </trkpt>
      <trkpt lat="39.2048310" lon="-3.8069090">
        <ele>660.7</ele>
        <time>2019-08-12T07:00:18Z</time>
      </trkpt>
      <trkpt lat="39.2048670" lon="-3.8068540">
        <ele>660.8</ele>
        <time>2019-08-12T07:00:19Z</time>
      </trkpt>
      <trkpt lat="39.2049030" lon="-3.8068000">
        <ele>660.8</ele>
        <time>2019-08-12T07:00:20Z</time>
      </trkpt>
      <trkpt lat="39.2049400" lon="-3.8067460">
        <ele>660.8</ele>
        <time>2019-08-12T07:00:21Z</time>
      </trkpt>
      <trkpt lat="39.2049760" lon="-3.8066920">
        <ele>660.8</ele>
        <time>2019-08-12T07:00:22Z</time>
      </trkpt>
      <trkpt lat="39.2050120" lon="-3.8066390">
        <ele>660.8</ele>
        <time>2019-08-12T07:00:23Z</time>
      </trkpt>
      <trkpt lat="39.2050490" lon="-3.8065850">
        <ele>660.8</ele>
        <time>2019-08-12T07:00:24Z</time>
      </trkpt>
      <trkpt lat="39.2050850" lon="-3.8065320">
        <ele>660.8</ele>
        <time>2019-08-12T07:00:25Z</time>
      </trkpt>
      <trkpt lat="39.2051210" lon="-3.8064780">
        <ele>660.8</ele>
        <time>2019-08-12T07:00:26Z</time>
      </trkpt>
      <trkpt lat="39.2051580" lon="-3.8064250">
        <ele>660.8</ele>
        <time>2019-08-12T07:00:27Z</time>
      </trkpt>
      <trkpt lat="39.2051940" lon="-3.8063720">
        <ele>660.8</ele>
        <time>2019-08-12T07:00:28Z</time>
      </trkpt>
      <trkpt lat="39.2052300" lon="-3.8063190">
        <ele>660.8</ele>
        <time>2019-08-12T07:00:29Z</time>
      </trkpt>
      <trkpt lat="39.2052670" lon="-3.8062660">
        <ele>660.8</ele>
        <time>2019-08-12T07:00:30Z</time>
      </trkpt>
      <trkpt lat="39.2053030" lon="-3.8062140">
        <ele>660.8</ele>
        <time>2019-08-12T07:00:31Z</time>
      </trkpt>
      <trkpt lat="39.2053380" lon="-3.8061610">
        <ele>660.8</ele>
        <time>2019-08-12T07:00:32Z</time>
      </trkpt>
      <trkpt lat="39.2053740" lon="-3.8061090">
        <ele>660.8</ele>
        <time>2019-08-12T07:00:33Z</time>
      </trkpt>
      <trkpt lat="39.2054100" lon="-3.8060570">
        <ele>660.8</ele>
        <time>2019-08-12T07:00:34Z</time>
      </trkpt>
      <trkpt lat="39.2054450" lon="-3.8060060">
        <ele>660.8</ele>
        <time>2019-08-12T07:00:35Z</time>
      </trkpt>
      <trkpt lat="39.2054800" lon="-3.8059550">
        <ele>660.9</ele>
        <time>2019-08-12T07:00:36Z</time>
      </trkpt>
      <trkpt lat="39.2055150" lon="-3.8059040">
        <ele>660.9</ele>
        <time>2019-08-12T07:00:37Z</time>
      </trkpt>
      <trkpt lat="39.2055490" lon="-3.8058530">
        <ele>661.0</ele>
        <time>2019-08-12T07:00:38Z</time>
      </trkpt>
      <trkpt lat="39.2055830" lon="-3.8058030">
        <ele>661.0</ele>
        <time>2019-08-12T07:00:39Z</time>
      </trkpt>
      <trkpt lat="39.2056170" lon="-3.8057540">
        <ele>661.1</ele>
        <time>2019-08-12T07:00:40Z</time>
      </trkpt>
      <trkpt lat="39.2056500" lon="-3.8057040">
        <ele>661.1</ele>
        <time>2019-08-12T07:00:41Z</time>
      </trkpt>
      <trkpt lat="39.2056830" lon="-3.8056560">
        <ele>661.2</ele>
        <time>2019-08-12T07:00:42Z</time>
      </trkpt>
      <trkpt lat="39.2057160" lon="-3.8056070">
        <ele>661.3</ele>
        <time>2019-08-12T07:00:43Z</time>
      </trkpt>
      <trkpt lat="39.2057480" lon="-3.8055590">
        <ele>661.3</ele>
        <time>2019-08-12T07:00:44Z</time>
      </trkpt>
      <trkpt lat="39.2057800" lon="-3.8055110">
        <ele>661.4</ele>
        <time>2019-08-12T07:00:45Z</time>
      </trkpt>
      <trkpt lat="39.2058110" lon="-3.8054620">
        <ele>661.5</ele>
        <time>2019-08-12T07:00:46Z</time>
      </trkpt>
      <trkpt lat="39.2058430" lon="-3.8054120">
        <ele>661.6</ele>
        <time>2019-08-12T07:00:47Z</time>
      </trkpt>
      <trkpt lat="39.2058750" lon="-3.8053610">
        <ele>661.7</ele>
        <time>2019-08-12T07:00:48Z</time>
      </trkpt>
      <trkpt lat="39.2059070" lon="-3.8053090">
        <ele>661.8</ele>
        <time>2019-08-12T07:00:49Z</time>
      </trkpt>
      <trkpt lat="39.2059400" lon="-3.8052560">
        <ele>661.9</ele>
        <time>2019-08-12T07:00:50Z</time>
      </trkpt>
      <trkpt lat="39.2059730" lon="-3.8052030">
        <ele>661.9</ele>
        <time>2019-08-12T07:00:51Z</time>
      </trkpt>
      <trkpt lat="39.2060060" lon="-3.8051490">
        <ele>662.0</ele>
        <time>2019-08-12T07:00:52Z</time>
      </trkpt>
      <trkpt lat="39.2060410" lon="-3.8050950">
        <ele>662.0</ele>
        <time>2019-08-12T07:00:53Z</time>
      </trkpt>
      <trkpt lat="39.2060760" lon="-3.8050410">
        <ele>662.0</ele>
        <time>2019-08-12T07:00:54Z</time>
      </trkpt>
      <trkpt lat="39.2061110" lon="-3.8049870">
        <ele>662.1</ele>
        <time>2019-08-12T07:00:55Z</time>
      </trkpt>
      <trkpt lat="39.2061470" lon="-3.8049320">
        <ele>662.1</ele>
        <time>2019-08-12T07:00:56Z</time>
      </trkpt>
      <trkpt lat="39.2061830" lon="-3.8048780">
        <ele>662.2</ele>
        <time>2019-08-12T07:00:57Z</time>
      </trkpt>
      <trkpt lat="39.2062200" lon="-3.8048230">
        <ele>662.2</ele>
        <time>2019-08-12T07:00:58Z</time>
      </trkpt>
      <trkpt lat="39.2062560" lon="-3.8047680">
        <ele>662.2</ele>
        <time>2019-08-12T07:00:59Z</time>
      </trkpt>
      <trkpt lat="39.2062920" lon="-3.8047130">
        <ele>662.3</ele>
        <time>2019-08-12T07:01:00Z</time>
      </trkpt>
      <trkpt lat="39.2063280" lon="-3.8046580">
        <ele>662.3</ele>
        <time>2019-08-12T07:01:01Z</time>
      </trkpt>
      <trkpt lat="39.2063630" lon="-3.8046030">
        <ele>662.3</ele>
        <time>2019-08-12T07:01:02Z</time>
      </trkpt>
      <trkpt lat="39.2063980" lon="-3.8045480">
        <ele>662.3</ele>
        <time>2019-08-12T07:01:03Z</time>
      </trkpt>
      <trkpt lat="39.2064320" lon="-3.8044930">
        <ele>662.3</ele>
        <time>2019-08-12T07:01:04Z</time>
      </trkpt>
      <trkpt lat="39.2064670" lon="-3.8044380">
        <ele>662.3</ele>
        <time>2019-08-12T07:01:05Z</time>
      </trkpt>
      <trkpt lat="39.2065020" lon="-3.8043830">
        <ele>662.3</ele>
        <time>2019-08-12T07:01:06Z</time>
      </trkpt>
      <trkpt lat="39.2065360" lon="-3.8043280">
        <ele>662.3</ele>
        <time>2019-08-12T07:01:07Z</time>
      </trkpt>
      <trkpt lat="39.2065710" lon="-3.8042740">
        <ele>662.3</ele>
        <time>2019-08-12T07:01:08Z</time>
      </trkpt>
      <trkpt lat="39.2066060" lon="-3.8042200">
        <ele>662.3</ele>
        <time>2019-08-12T07:01:09Z</time>
      </trkpt>
      <trkpt lat="39.2066410" lon="-3.8041660">
        <ele>662.3</ele>
        <time>2019-08-12T07:01:10Z</time>
      </trkpt>
      <trkpt lat="39.2066770" lon="-3.8041120">
        <ele>662.3</ele>
        <time>2019-08-12T07:01:11Z</time>
      </trkpt>
      <trkpt lat="39.2067140" lon="-3.8040590">
        <ele>662.3</ele>
        <time>2019-08-12T07:01:12Z</time>
      </trkpt>
      <trkpt lat="39.2067500" lon="-3.8040060">
        <ele>662.4</ele>
        <time>2019-08-12T07:01:13Z</time>
      </trkpt>
      <trkpt lat="39.2067870" lon="-3.8039530">
        <ele>662.4</ele>
        <time>2019-08-12T07:01:14Z</time>
      </trkpt>
      <trkpt lat="39.2068240" lon="-3.8039010">
        <ele>662.4</ele>
        <time>2019-08-12T07:01:15Z</time>
      </trkpt>
      <trkpt lat="39.2068610" lon="-3.8038480">
        <ele>662.5</ele>
        <time>2019-08-12T07:01:16Z</time>
      </trkpt>
      <trkpt lat="39.2068980" lon="-3.8037960">
        <ele>662.5</ele>
        <time>2019-08-12T07:01:17Z</time>
      </trkpt>
      <trkpt lat="39.2069340" lon="-3.8037430">
        <ele>662.6</ele>
        <time>2019-08-12T07:01:18Z</time>
      </trkpt>
      <trkpt lat="39.2069710" lon="-3.8036910">
        <ele>662.6</ele>
        <time>2019-08-12T07:01:19Z</time>
      </trkpt>
      <trkpt lat="39.2070070" lon="-3.8036380">
        <ele>662.6</ele>
        <time>2019-08-12T07:01:20Z</time>
      </trkpt>
      <trkpt lat="39.2070430" lon="-3.8035850">
        <ele>662.7</ele>
        <time>2019-08-12T07:01:21Z</time>
      </trkpt>
      <trkpt lat="39.2070790" lon="-3.8035320">
        <ele>662.7</ele>
        <time>2019-08-12T07:01:22Z</time>
      </trkpt>
      <trkpt lat="39.2071140" lon="-3.8034790">
        <ele>662.7</ele>
        <time>2019-08-12T07:01:23Z</time>
      </trkpt>
      <trkpt lat="39.2071490" lon="-3.8034260">
        <ele>662.7</ele>
        <time>2019-08-12T07:01:24Z</time>
      </trkpt>
      <trkpt lat="39.2071840" lon="-3.8033730">
        <ele>662.7</ele>
        <time>2019-08-12T07:01:25Z</time>
      </trkpt>
      <trkpt lat="39.2072190" lon="-3.8033200">
        <ele>662.7</ele>
        <time>2019-08-12T07:01:26Z</time>
      </trkpt>
      <trkpt lat="39.2072540" lon="-3.8032670">
        <ele>662.7</ele>
        <time>2019-08-12T07:01:27Z</time>
      </trkpt>
      <trkpt lat="39.2072880" lon="-3.8032140">
        <ele>662.7</ele>
        <time>2019-08-12T07:01:28Z</time>
      </trkpt>
      <trkpt lat="39.2073230" lon="-3.8031610">
        <ele>662.7</ele>
        <time>2019-08-12T07:01:29Z</time>
      </trkpt>
      <trkpt lat="39.2073580" lon="-3.8031080">
        <ele>662.7</ele>
        <time>2019-08-12T07:01:30Z</time>
      </trkpt>
      <trkpt lat="39.2073920" lon="-3.8030550">
        <ele>662.7</ele>
        <time>2019-08-12T07:01:31Z</time>
      </trkpt>
      <trkpt lat="39.2074270" lon="-3.8030020">
        <ele>662.8</ele>
        <time>2019-08-12T07:01:32Z</time>
      </trkpt>
      <trkpt lat="39.2074620" lon="-3.8029490">
        <ele>662.8</ele>
        <time>2019-08-12T07:01:33Z</time>
      </trkpt>
      <trkpt lat="39.2074970" lon="-3.8028960">
        <ele>662.8</ele>
        <time>2019-08-12T07:01:34Z</time>
      </trkpt>
      <trkpt lat="39.2075320" lon="-3.8028430">
        <ele>662.9</ele>
        <time>2019-08-12T07:01:35Z</time>
      </trkpt>
      <trkpt lat="39.2075680" lon="-3.8027910">
        <ele>662.9</ele>
        <time>2019-08-12T07:01:36Z</time>
      </trkpt>
      <trkpt lat="39.2076030" lon="-3.8027380">
        <ele>663.0</ele>
        <time>2019-08-12T07:01:37Z</time>
      </trkpt>
      <trkpt lat="39.2076390" lon="-3.8026860">
        <ele>663.0</ele>
        <time>2019-08-12T07:01:38Z</time>
      </trkpt>
      <trkpt lat="39.2076760" lon="-3.8026340">
        <ele>663.2</ele>
        <time>2019-08-12T07:01:39Z</time>
      </trkpt>
      <trkpt lat="39.2077120" lon="-3.8025820">
        <ele>663.3</ele>
        <time>2019-08-12T07:01:40Z</time>
      </trkpt>
      <trkpt lat="39.2077490" lon="-3.8025300">
        <ele>663.4</ele>
        <time>2019-08-12T07:01:41Z</time>
      </trkpt>
      <trkpt lat="39.2077850" lon="-3.8024790">
        <ele>663.5</ele>
        <time>2019-08-12T07:01:42Z</time>
      </trkpt>
      <trkpt lat="39.2078210" lon="-3.8024280">
        <ele>663.6</ele>
        <time>2019-08-12T07:01:43Z</time>
      </trkpt>
      <trkpt lat="39.2078570" lon="-3.8023770">
        <ele>663.7</ele>
        <time>2019-08-12T07:01:44Z</time>
      </trkpt>
      <trkpt lat="39.2078930" lon="-3.8023280">
        <ele>663.8</ele>
        <time>2019-08-12T07:01:45Z</time>
      </trkpt>
      <trkpt lat="39.2079280" lon="-3.8022790">
        <ele>663.9</ele>
        <time>2019-08-12T07:01:46Z</time>
      </trkpt>
      <trkpt lat="39.2079630" lon="-3.8022300">
        <ele>663.9</ele>
        <time>2019-08-12T07:01:47Z</time>
      </trkpt>
      <trkpt lat="39.2079970" lon="-3.8021830">
        <ele>664.0</ele>
        <time>2019-08-12T07:01:48Z</time>
      </trkpt>
      <trkpt lat="39.2080300" lon="-3.8021360">
        <ele>664.0</ele>
        <time>2019-08-12T07:01:49Z</time>
      </trkpt>
      <trkpt lat="39.2080630" lon="-3.8020890">
        <ele>664.0</ele>
        <time>2019-08-12T07:01:50Z</time>
      </trkpt>
      <trkpt lat="39.2080940" lon="-3.8020430">
        <ele>664.0</ele>
        <time>2019-08-12T07:01:51Z</time>
      </trkpt>
      <trkpt lat="39.2081250" lon="-3.8019960">
        <ele>664.0</ele>
        <time>2019-08-12T07:01:52Z</time>
      </trkpt>
      <trkpt lat="39.2081550" lon="-3.8019480">
        <ele>664.0</ele>
        <time>2019-08-12T07:01:53Z</time>
      </trkpt>
      <trkpt lat="39.2081840" lon="-3.8019000">
        <ele>664.0</ele>
        <time>2019-08-12T07:01:54Z</time>
      </trkpt>
      <trkpt lat="39.2082140" lon="-3.8018510">
        <ele>664.1</ele>
        <time>2019-08-12T07:01:55Z</time>
      </trkpt>
      <trkpt lat="39.2082430" lon="-3.8018020">
        <ele>664.1</ele>
        <time>2019-08-12T07:01:56Z</time>
      </trkpt>
      <trkpt lat="39.2082730" lon="-3.8017530">
        <ele>664.1</ele>
        <time>2019-08-12T07:01:57Z</time>
      </trkpt>
      <trkpt lat="39.2083030" lon="-3.8017030">
        <ele>664.1</ele>
        <time>2019-08-12T07:01:58Z</time>
      </trkpt>
      <trkpt lat="39.2083340" lon="-3.8016530">
        <ele>664.1</ele>
        <time>2019-08-12T07:01:59Z</time>
      </trkpt>
      <trkpt lat="39.2083660" lon="-3.8016030">
        <ele>664.1</ele>
        <time>2019-08-12T07:02:00Z</time>
      </trkpt>
      <trkpt lat="39.2083980" lon="-3.8015520">
        <ele>664.2</ele>
        <time>2019-08-12T07:02:01Z</time>
      </trkpt>
      <trkpt lat="39.2084310" lon="-3.8015010">
        <ele>664.2</ele>
        <time>2019-08-12T07:02:02Z</time>
      </trkpt>
      <trkpt lat="39.2084640" lon="-3.8014490">
        <ele>664.2</ele>
        <time>2019-08-12T07:02:03Z</time>
      </trkpt>
      <trkpt lat="39.2084980" lon="-3.8013970">
        <ele>664.3</ele>
        <time>2019-08-12T07:02:04Z</time>
      </trkpt>
      <trkpt lat="39.2085330" lon="-3.8013450">
        <ele>664.3</ele>
        <time>2019-08-12T07:02:05Z</time>
      </trkpt>
      <trkpt lat="39.2085690" lon="-3.8012920">
        <ele>664.4</ele>
        <time>2019-08-12T07:02:06Z</time>
      </trkpt>
      <trkpt lat="39.2086060" lon="-3.8012380">
        <ele>664.4</ele>
        <time>2019-08-12T07:02:07Z</time>
      </trkpt>
      <trkpt lat="39.2086430" lon="-3.8011840">
        <ele>664.4</ele>
        <time>2019-08-12T07:02:08Z</time>
      </trkpt>
      <trkpt lat="39.2086810" lon="-3.8011300">
        <ele>664.4</ele>
        <time>2019-08-12T07:02:09Z</time>
      </trkpt>
      <trkpt lat="39.2087190" lon="-3.8010750">
        <ele>664.5</ele>
        <time>2019-08-12T07:02:10Z</time>
      </trkpt>
      <trkpt lat="39.2087570" lon="-3.8010200">
        <ele>664.5</ele>
        <time>2019-08-12T07:02:11Z</time>
      </trkpt>
      <trkpt lat="39.2087960" lon="-3.8009650">
        <ele>664.5</ele>
        <time>2019-08-12T07:02:12Z</time>
      </trkpt>
      <trkpt lat="39.2088350" lon="-3.8009110">
        <ele>664.6</ele>
        <time>2019-08-12T07:02:13Z</time>
      </trkpt>
      <trkpt lat="39.2088730" lon="-3.8008560">
        <ele>664.6</ele>
        <time>2019-08-12T07:02:14Z</time>
      </trkpt>
      <trkpt lat="39.2089120" lon="-3.8008020">
        <ele>664.7</ele>
        <time>2019-08-12T07:02:15Z</time>
      </trkpt>
      <trkpt lat="39.2089500" lon="-3.8007490">
        <ele>664.7</ele>
        <time>2019-08-12T07:02:16Z</time>
      </trkpt>
      <trkpt lat="39.2089870" lon="-3.8006960">
        <ele>664.8</ele>
        <time>2019-08-12T07:02:17Z</time>
      </trkpt>
      <trkpt lat="39.2090240" lon="-3.8006430">
        <ele>664.9</ele>
        <time>2019-08-12T07:02:18Z</time>
      </trkpt>
      <trkpt lat="39.2090610" lon="-3.8005900">
        <ele>664.9</ele>
        <time>2019-08-12T07:02:19Z</time>
      </trkpt>
      <trkpt lat="39.2090980" lon="-3.8005380">
        <ele>665.0</ele>
        <time>2019-08-12T07:02:20Z</time>
      </trkpt>
      <trkpt lat="39.2091350" lon="-3.8004870">
        <ele>665.0</ele>
        <time>2019-08-12T07:02:21Z</time>
      </trkpt>
      <trkpt lat="39.2091710" lon="-3.8004350">
        <ele>665.1</ele>
        <time>2019-08-12T07:02:22Z</time>
      </trkpt>
      <trkpt lat="39.2092070" lon="-3.8003830">
        <ele>665.1</ele>
        <time>2019-08-12T07:02:23Z</time>
      </trkpt>
      <trkpt lat="39.2092430" lon="-3.8003320">
        <ele>665.1</ele>
        <time>2019-08-12T07:02:24Z</time>
      </trkpt>
      <trkpt lat="39.2092790" lon="-3.8002810">
        <ele>665.2</ele>
        <time>2019-08-12T07:02:25Z</time>
      </trkpt>
      <trkpt lat="39.2093140" lon="-3.8002300">
        <ele>665.2</ele>
        <time>2019-08-12T07:02:26Z</time>
      </trkpt>
      <trkpt lat="39.2093500" lon="-3.8001790">
        <ele>665.3</ele>
        <time>2019-08-12T07:02:27Z</time>
      </trkpt>
      <trkpt lat="39.2093850" lon="-3.8001270">
        <ele>665.3</ele>
        <time>2019-08-12T07:02:28Z</time>
      </trkpt>
      <trkpt lat="39.2094210" lon="-3.8000760">
        <ele>665.4</ele>
        <time>2019-08-12T07:02:29Z</time>
      </trkpt>
      <trkpt lat="39.2094560" lon="-3.8000240">
        <ele>665.4</ele>
        <time>2019-08-12T07:02:30Z</time>
      </trkpt>
      <trkpt lat="39.2094910" lon="-3.7999730">
        <ele>665.5</ele>
        <time>2019-08-12T07:02:31Z</time>
      </trkpt>
      <trkpt lat="39.2095270" lon="-3.7999210">
        <ele>665.6</ele>
        <time>2019-08-12T07:02:32Z</time>
      </trkpt>
      <trkpt lat="39.2095620" lon="-3.7998690">
        <ele>665.6</ele>
        <time>2019-08-12T07:02:33Z</time>
      </trkpt>
      <trkpt lat="39.2095980" lon="-3.7998160">
        <ele>665.7</ele>
        <time>2019-08-12T07:02:34Z</time>
      </trkpt>
      <trkpt lat="39.2096340" lon="-3.7997640">
        <ele>665.7</ele>
        <time>2019-08-12T07:02:35Z</time>
      </trkpt>
      <trkpt lat="39.2096690" lon="-3.7997110">
        <ele>665.8</ele>
        <time>2019-08-12T07:02:36Z</time>
      </trkpt>
      <trkpt lat="39.2097050" lon="-3.7996570">
        <ele>665.9</ele>
        <time>2019-08-12T07:02:37Z</time>
      </trkpt>
      <trkpt lat="39.2097410" lon="-3.7996040">
        <ele>665.9</ele>
        <time>2019-08-12T07:02:38Z</time>
      </trkpt>
      <trkpt lat="39.2097770" lon="-3.7995510">
        <ele>666.0</ele>
        <time>2019-08-12T07:02:39Z</time>
      </trkpt>
      <trkpt lat="39.2098130" lon="-3.7994970">
        <ele>666.0</ele>
        <time>2019-08-12T07:02:40Z</time>
      </trkpt>
      <trkpt lat="39.2098490" lon="-3.7994440">
        <ele>666.1</ele>
        <time>2019-08-12T07:02:41Z</time>
      </trkpt>
      <trkpt lat="39.2098850" lon="-3.7993900">
        <ele>666.1</ele>
        <time>2019-08-12T07:02:42Z</time>
      </trkpt>
      <trkpt lat="39.2099210" lon="-3.7993360">
        <ele>666.1</ele>
        <time>2019-08-12T07:02:43Z</time>
      </trkpt>
      <trkpt lat="39.2099570" lon="-3.7992830">
        <ele>666.2</ele>
        <time>2019-08-12T07:02:44Z</time>
      </trkpt>
      <trkpt lat="39.2099920" lon="-3.7992300">
        <ele>666.2</ele>
        <time>2019-08-12T07:02:45Z</time>
      </trkpt>
      <trkpt lat="39.2100280" lon="-3.7991770">
        <ele>666.2</ele>
        <time>2019-08-12T07:02:46Z</time>
      </trkpt>
      <trkpt lat="39.2100620" lon="-3.7991240">
        <ele>666.2</ele>
        <time>2019-08-12T07:02:47Z</time>
      </trkpt>
      <trkpt lat="39.2100960" lon="-3.7990720">
        <ele>666.2</ele>
        <time>2019-08-12T07:02:48Z</time>
      </trkpt>
      <trkpt lat="39.2101290" lon="-3.7990200">
        <ele>666.2</ele>
        <time>2019-08-12T07:02:49Z</time>
      </trkpt>
      <trkpt lat="39.2101610" lon="-3.7989690">
        <ele>666.2</ele>
        <time>2019-08-12T07:02:50Z</time>
      </trkpt>
      <trkpt lat="39.2101910" lon="-3.7989190">
        <ele>666.3</ele>
        <time>2019-08-12T07:02:51Z</time>
      </trkpt>
      <trkpt lat="39.2102200" lon="-3.7988690">
        <ele>666.3</ele>
        <time>2019-08-12T07:02:52Z</time>
      </trkpt>
      <trkpt lat="39.2102490" lon="-3.7988200">
        <ele>666.3</ele>
        <time>2019-08-12T07:02:53Z</time>
      </trkpt>
      <trkpt lat="39.2102760" lon="-3.7987710">
        <ele>666.3</ele>
        <time>2019-08-12T07:02:54Z</time>
      </trkpt>
      <trkpt lat="39.2103040" lon="-3.7987220">
        <ele>666.3</ele>
        <time>2019-08-12T07:02:55Z</time>
      </trkpt>
      <trkpt lat="39.2103330" lon="-3.7986730">
        <ele>666.3</ele>
        <time>2019-08-12T07:02:56Z</time>
      </trkpt>
      <trkpt lat="39.2103620" lon="-3.7986230">
        <ele>666.3</ele>
        <time>2019-08-12T07:02:57Z</time>
      </trkpt>
      <trkpt lat="39.2103930" lon="-3.7985730">
        <ele>666.4</ele>
        <time>2019-08-12T07:02:58Z</time>
      </trkpt>
      <trkpt lat="39.2104250" lon="-3.7985210">
        <ele>666.4</ele>
        <time>2019-08-12T07:02:59Z</time>
      </trkpt>
      <trkpt lat="39.2104580" lon="-3.7984690">
        <ele>666.4</ele>
        <time>2019-08-12T07:03:00Z</time>
      </trkpt>
      <trkpt lat="39.2104920" lon="-3.7984150">
        <ele>666.4</ele>
        <time>2019-08-12T07:03:01Z</time>
      </trkpt>
      <trkpt lat="39.2105270" lon="-3.7983600">
        <ele>666.4</ele>
        <time>2019-08-12T07:03:02Z</time>
      </trkpt>
      <trkpt lat="39.2105880" lon="-3.7982660">
        <ele>666.5</ele>
        <time>2019-08-12T07:03:03Z</time>
      </trkpt>
      <trkpt lat="39.2106120" lon="-3.7982280">
        <ele>666.5</ele>
        <time>2019-08-12T07:03:04Z</time>
      </trkpt>
      <trkpt lat="39.2106370" lon="-3.7981900">
        <ele>666.5</ele>
        <time>2019-08-12T07:03:05Z</time>
      </trkpt>
      <trkpt lat="39.2106750" lon="-3.7981330">
        <ele>666.6</ele>
        <time>2019-08-12T07:03:06Z</time>
      </trkpt>
      <trkpt lat="39.2107130" lon="-3.7980750">
        <ele>666.6</ele>
        <time>2019-08-12T07:03:07Z</time>
      </trkpt>
      <trkpt lat="39.2107510" lon="-3.7980170">
        <ele>666.6</ele>
        <time>2019-08-12T07:03:08Z</time>
      </trkpt>
      <trkpt lat="39.2107890" lon="-3.7979600">
        <ele>666.7</ele>
        <time>2019-08-12T07:03:09Z</time>
      </trkpt>
      <trkpt lat="39.2108260" lon="-3.7979020">
        <ele>666.7</ele>
        <time>2019-08-12T07:03:10Z</time>
      </trkpt>
      <trkpt lat="39.2108640" lon="-3.7978450">
        <ele>666.8</ele>
        <time>2019-08-12T07:03:11Z</time>
      </trkpt>
      <trkpt lat="39.2109010" lon="-3.7977890">
        <ele>666.8</ele>
        <time>2019-08-12T07:03:12Z</time>
      </trkpt>
      <trkpt lat="39.2109370" lon="-3.7977320">
        <ele>666.8</ele>
        <time>2019-08-12T07:03:13Z</time>
      </trkpt>
      <trkpt lat="39.2109740" lon="-3.7976750">
        <ele>666.8</ele>
        <time>2019-08-12T07:03:14Z</time>
      </trkpt>
      <trkpt lat="39.2110110" lon="-3.7976190">
        <ele>666.8</ele>
        <time>2019-08-12T07:03:15Z</time>
      </trkpt>
      <trkpt lat="39.2110470" lon="-3.7975620">
        <ele>666.8</ele>
        <time>2019-08-12T07:03:16Z</time>
      </trkpt>
      <trkpt lat="39.2110840" lon="-3.7975050">
        <ele>666.8</ele>
        <time>2019-08-12T07:03:17Z</time>
      </trkpt>
      <trkpt lat="39.2111220" lon="-3.7974470">
        <ele>666.8</ele>
        <time>2019-08-12T07:03:18Z</time>
      </trkpt>
      <trkpt lat="39.2111610" lon="-3.7973890">
        <ele>666.8</ele>
        <time>2019-08-12T07:03:19Z</time>
      </trkpt>
      <trkpt lat="39.2112000" lon="-3.7973310">
        <ele>666.8</ele>
        <time>2019-08-12T07:03:20Z</time>
      </trkpt>
      <trkpt lat="39.2112410" lon="-3.7972730">
        <ele>666.9</ele>
        <time>2019-08-12T07:03:21Z</time>
      </trkpt>
      <trkpt lat="39.2112820" lon="-3.7972140">
        <ele>666.9</ele>
        <time>2019-08-12T07:03:22Z</time>
      </trkpt>
      <trkpt lat="39.2113240" lon="-3.7971550">
        <ele>666.9</ele>
        <time>2019-08-12T07:03:23Z</time>
      </trkpt>
      <trkpt lat="39.2113670" lon="-3.7970960">
        <ele>666.9</ele>
        <time>2019-08-12T07:03:24Z</time>
      </trkpt>
      <trkpt lat="39.2114090" lon="-3.7970370">
        <ele>667.0</ele>
        <time>2019-08-12T07:03:25Z</time>
      </trkpt>
      <trkpt lat="39.2114520" lon="-3.7969780">
        <ele>667.0</ele>
        <time>2019-08-12T07:03:26Z</time>
      </trkpt>
      <trkpt lat="39.2114940" lon="-3.7969190">
        <ele>667.0</ele>
        <time>2019-08-12T07:03:27Z</time>
      </trkpt>
      <trkpt lat="39.2115360" lon="-3.7968600">
        <ele>667.1</ele>
        <time>2019-08-12T07:03:28Z</time>
      </trkpt>
      <trkpt lat="39.2115770" lon="-3.7968010">
        <ele>667.1</ele>
        <time>2019-08-12T07:03:29Z</time>
      </trkpt>
      <trkpt lat="39.2116180" lon="-3.7967420">
        <ele>667.1</ele>
        <time>2019-08-12T07:03:30Z</time>
      </trkpt>
      <trkpt lat="39.2116580" lon="-3.7966840">
        <ele>667.2</ele>
        <time>2019-08-12T07:03:31Z</time>
      </trkpt>
      <trkpt lat="39.2116970" lon="-3.7966250">
        <ele>667.2</ele>
        <time>2019-08-12T07:03:32Z</time>
      </trkpt>
      <trkpt lat="39.2117360" lon="-3.7965670">
        <ele>667.2</ele>
        <time>2019-08-12T07:03:33Z</time>
      </trkpt>
      <trkpt lat="39.2117750" lon="-3.7965080">
        <ele>667.3</ele>
        <time>2019-08-12T07:03:34Z</time>
      </trkpt>
      <trkpt lat="39.2118130" lon="-3.7964500">
        <ele>667.3</ele>
        <time>2019-08-12T07:03:35Z</time>
      </trkpt>
      <trkpt lat="39.2118510" lon="-3.7963920">
        <ele>667.3</ele>
        <time>2019-08-12T07:03:36Z</time>
      </trkpt>
      <trkpt lat="39.2118880" lon="-3.7963340">
        <ele>667.4</ele>
        <time>2019-08-12T07:03:37Z</time>
      </trkpt>
      <trkpt lat="39.2119260" lon="-3.7962760">
        <ele>667.4</ele>
        <time>2019-08-12T07:03:38Z</time>
      </trkpt>
      <trkpt lat="39.2119630" lon="-3.7962180">
        <ele>667.5</ele>
        <time>2019-08-12T07:03:39Z</time>
      </trkpt>
      <trkpt lat="39.2120010" lon="-3.7961590">
        <ele>667.6</ele>
        <time>2019-08-12T07:03:40Z</time>
      </trkpt>
      <trkpt lat="39.2120380" lon="-3.7961010">
        <ele>667.7</ele>
        <time>2019-08-12T07:03:41Z</time>
      </trkpt>
      <trkpt lat="39.2120750" lon="-3.7960430">
        <ele>667.8</ele>
        <time>2019-08-12T07:03:42Z</time>
      </trkpt>
      <trkpt lat="39.2121120" lon="-3.7959850">
        <ele>667.8</ele>
        <time>2019-08-12T07:03:43Z</time>
      </trkpt>
      <trkpt lat="39.2121500" lon="-3.7959270">
        <ele>667.9</ele>
        <time>2019-08-12T07:03:44Z</time>
      </trkpt>
      <trkpt lat="39.2121870" lon="-3.7958680">
        <ele>668.0</ele>
        <time>2019-08-12T07:03:45Z</time>
      </trkpt>
      <trkpt lat="39.2122250" lon="-3.7958100">
        <ele>668.0</ele>
        <time>2019-08-12T07:03:46Z</time>
      </trkpt>
      <trkpt lat="39.2122630" lon="-3.7957510">
        <ele>668.1</ele>
        <time>2019-08-12T07:03:47Z</time>
      </trkpt>
      <trkpt lat="39.2123020" lon="-3.7956930">
        <ele>668.1</ele>
        <time>2019-08-12T07:03:48Z</time>
      </trkpt>
      <trkpt lat="39.2123400" lon="-3.7956340">
        <ele>668.2</ele>
        <time>2019-08-12T07:03:49Z</time>
      </trkpt>
      <trkpt lat="39.2123790" lon="-3.7955760">
        <ele>668.2</ele>
        <time>2019-08-12T07:03:50Z</time>
      </trkpt>
      <trkpt lat="39.2124180" lon="-3.7955180">
        <ele>668.3</ele>
        <time>2019-08-12T07:03:51Z</time>
      </trkpt>
      <trkpt lat="39.2124570" lon="-3.7954600">
        <ele>668.3</ele>
        <time>2019-08-12T07:03:52Z</time>
      </trkpt>
      <trkpt lat="39.2124950" lon="-3.7954020">
        <ele>668.3</ele>
        <time>2019-08-12T07:03:53Z</time>
      </trkpt>
      <trkpt lat="39.2125340" lon="-3.7953440">
        <ele>668.4</ele>
        <time>2019-08-12T07:03:54Z</time>
      </trkpt>
      <trkpt lat="39.2125720" lon="-3.7952870">
        <ele>668.4</ele>
        <time>2019-08-12T07:03:55Z</time>
      </trkpt>
      <trkpt lat="39.2126110" lon="-3.7952310">
        <ele>668.5</ele>
        <time>2019-08-12T07:03:56Z</time>
      </trkpt>
      <trkpt lat="39.2126490" lon="-3.7951750">
        <ele>668.5</ele>
        <time>2019-08-12T07:03:57Z</time>
      </trkpt>
      <trkpt lat="39.2126860" lon="-3.7951200">
        <ele>668.6</ele>
        <time>2019-08-12T07:03:58Z</time>
      </trkpt>
      <trkpt lat="39.2127240" lon="-3.7950650">
        <ele>668.7</ele>
        <time>2019-08-12T07:03:59Z</time>
      </trkpt>
      <trkpt lat="39.2127610" lon="-3.7950100">
        <ele>668.7</ele>
        <time>2019-08-12T07:04:00Z</time>
      </trkpt>
      <trkpt lat="39.2127980" lon="-3.7949560">
        <ele>668.8</ele>
        <time>2019-08-12T07:04:01Z</time>
      </trkpt>
      <trkpt lat="39.2128350" lon="-3.7949020">
        <ele>668.9</ele>
        <time>2019-08-12T07:04:02Z</time>
      </trkpt>
      <trkpt lat="39.2128710" lon="-3.7948480">
        <ele>668.9</ele>
        <time>2019-08-12T07:04:03Z</time>
      </trkpt>
      <trkpt lat="39.2129070" lon="-3.7947940">
        <ele>669.0</ele>
        <time>2019-08-12T07:04:04Z</time>
      </trkpt>
      <trkpt lat="39.2129430" lon="-3.7947400">
        <ele>669.0</ele>
        <time>2019-08-12T07:04:05Z</time>
      </trkpt>
      <trkpt lat="39.2129790" lon="-3.7946860">
        <ele>669.1</ele>
        <time>2019-08-12T07:04:06Z</time>
      </trkpt>
      <trkpt lat="39.2130140" lon="-3.7946310">
        <ele>669.1</ele>
        <time>2019-08-12T07:04:07Z</time>
      </trkpt>
      <trkpt lat="39.2130490" lon="-3.7945770">
        <ele>669.1</ele>
        <time>2019-08-12T07:04:08Z</time>
      </trkpt>
      <trkpt lat="39.2130840" lon="-3.7945230">
        <ele>669.1</ele>
        <time>2019-08-12T07:04:09Z</time>
      </trkpt>
      <trkpt lat="39.2131190" lon="-3.7944690">
        <ele>669.1</ele>
        <time>2019-08-12T07:04:10Z</time>
      </trkpt>
      <trkpt lat="39.2131550" lon="-3.7944150">
        <ele>669.1</ele>
        <time>2019-08-12T07:04:11Z</time>
      </trkpt>
      <trkpt lat="39.2131900" lon="-3.7943610">
        <ele>669.1</ele>
        <time>2019-08-12T07:04:12Z</time>
      </trkpt>
      <trkpt lat="39.2132250" lon="-3.7943070">
        <ele>669.1</ele>
        <time>2019-08-12T07:04:13Z</time>
      </trkpt>
      <trkpt lat="39.2132850" lon="-3.7942180">
        <ele>669.1</ele>
        <time>2019-08-12T07:04:14Z</time>
      </trkpt>
      <trkpt lat="39.2133090" lon="-3.7941830">
        <ele>669.1</ele>
        <time>2019-08-12T07:04:15Z</time>
      </trkpt>
      <trkpt lat="39.2133330" lon="-3.7941470">
        <ele>669.0</ele>
        <time>2019-08-12T07:04:16Z</time>
      </trkpt>
      <trkpt lat="39.2133700" lon="-3.7940940">
        <ele>669.0</ele>
        <time>2019-08-12T07:04:17Z</time>
      </trkpt>
      <trkpt lat="39.2134060" lon="-3.7940410">
        <ele>669.0</ele>
        <time>2019-08-12T07:04:18Z</time>
      </trkpt>
      <trkpt lat="39.2134430" lon="-3.7939870">
        <ele>669.0</ele>
        <time>2019-08-12T07:04:19Z</time>
      </trkpt>
      <trkpt lat="39.2134800" lon="-3.7939340">
        <ele>668.9</ele>
        <time>2019-08-12T07:04:20Z</time>
      </trkpt>
      <trkpt lat="39.2135160" lon="-3.7938810">
        <ele>668.9</ele>
        <time>2019-08-12T07:04:21Z</time>
      </trkpt>
      <trkpt lat="39.2135530" lon="-3.7938270">
        <ele>668.8</ele>
        <time>2019-08-12T07:04:22Z</time>
      </trkpt>
      <trkpt lat="39.2136140" lon="-3.7937370">
        <ele>668.8</ele>
        <time>2019-08-12T07:04:23Z</time>
      </trkpt>
      <trkpt lat="39.2136380" lon="-3.7937010">
        <ele>668.8</ele>
        <time>2019-08-12T07:04:24Z</time>
      </trkpt>
      <trkpt lat="39.2136620" lon="-3.7936650">
        <ele>668.8</ele>
        <time>2019-08-12T07:04:25Z</time>
      </trkpt>
      <trkpt lat="39.2136990" lon="-3.7936110">
        <ele>668.8</ele>
        <time>2019-08-12T07:04:26Z</time>
      </trkpt>
      <trkpt lat="39.2137340" lon="-3.7935560">
        <ele>668.8</ele>
        <time>2019-08-12T07:04:27Z</time>
      </trkpt>
      <trkpt lat="39.2137700" lon="-3.7935020">
        <ele>668.8</ele>
        <time>2019-08-12T07:04:28Z</time>
      </trkpt>
      <trkpt lat="39.2138050" lon="-3.7934480">
        <ele>668.9</ele>
        <time>2019-08-12T07:04:29Z</time>
      </trkpt>
      <trkpt lat="39.2138400" lon="-3.7933950">
        <ele>669.0</ele>
        <time>2019-08-12T07:04:30Z</time>
      </trkpt>
      <trkpt lat="39.2138750" lon="-3.7933420">
        <ele>669.0</ele>
        <time>2019-08-12T07:04:31Z</time>
      </trkpt>
      <trkpt lat="39.2139090" lon="-3.7932900">
        <ele>669.1</ele>
        <time>2019-08-12T07:04:32Z</time>
      </trkpt>
      <trkpt lat="39.2139430" lon="-3.7932380">
        <ele>669.1</ele>
        <time>2019-08-12T07:04:33Z</time>
      </trkpt>
      <trkpt lat="39.2139770" lon="-3.7931870">
        <ele>669.2</ele>
        <time>2019-08-12T07:04:34Z</time>
      </trkpt>
      <trkpt lat="39.2140100" lon="-3.7931370">
        <ele>669.2</ele>
        <time>2019-08-12T07:04:35Z</time>
      </trkpt>
      <trkpt lat="39.2140430" lon="-3.7930880">
        <ele>669.3</ele>
        <time>2019-08-12T07:04:36Z</time>
      </trkpt>
      <trkpt lat="39.2140760" lon="-3.7930380">
        <ele>669.3</ele>
        <time>2019-08-12T07:04:37Z</time>
      </trkpt>
      <trkpt lat="39.2141090" lon="-3.7929890">
        <ele>669.4</ele>
        <time>2019-08-12T07:04:38Z</time>
      </trkpt>
      <trkpt lat="39.2141410" lon="-3.7929400">
        <ele>669.4</ele>
        <time>2019-08-12T07:04:39Z</time>
      </trkpt>
      <trkpt lat="39.2141750" lon="-3.7928910">
        <ele>669.5</ele>
        <time>2019-08-12T07:04:40Z</time>
      </trkpt>
      <trkpt lat="39.2142080" lon="-3.7928410">
        <ele>669.6</ele>
        <time>2019-08-12T07:04:41Z</time>
      </trkpt>
      <trkpt lat="39.2142420" lon="-3.7927910">
        <ele>669.6</ele>
        <time>2019-08-12T07:04:42Z</time>
      </trkpt>
      <trkpt lat="39.2142760" lon="-3.7927400">
        <ele>669.7</ele>
        <time>2019-08-12T07:04:43Z</time>
      </trkpt>
      <trkpt lat="39.2143100" lon="-3.7926880">
        <ele>669.7</ele>
        <time>2019-08-12T07:04:44Z</time>
      </trkpt>
      <trkpt lat="39.2143460" lon="-3.7926360">
        <ele>669.7</ele>
        <time>2019-08-12T07:04:45Z</time>
      </trkpt>
      <trkpt lat="39.2143810" lon="-3.7925830">
        <ele>669.7</ele>
        <time>2019-08-12T07:04:46Z</time>
      </trkpt>
      <trkpt lat="39.2144170" lon="-3.7925290">
        <ele>669.7</ele>
        <time>2019-08-12T07:04:47Z</time>
      </trkpt>
      <trkpt lat="39.2144530" lon="-3.7924750">
        <ele>669.7</ele>
        <time>2019-08-12T07:04:48Z</time>
      </trkpt>
      <trkpt lat="39.2144890" lon="-3.7924210">
        <ele>669.7</ele>
        <time>2019-08-12T07:04:49Z</time>
      </trkpt>
      <trkpt lat="39.2145250" lon="-3.7923660">
        <ele>669.7</ele>
        <time>2019-08-12T07:04:50Z</time>
      </trkpt>
      <trkpt lat="39.2145620" lon="-3.7923110">
        <ele>669.7</ele>
        <time>2019-08-12T07:04:51Z</time>
      </trkpt>
      <trkpt lat="39.2145980" lon="-3.7922560">
        <ele>669.7</ele>
        <time>2019-08-12T07:04:52Z</time>
      </trkpt>
      <trkpt lat="39.2146350" lon="-3.7922010">
        <ele>669.7</ele>
        <time>2019-08-12T07:04:53Z</time>
      </trkpt>
      <trkpt lat="39.2146720" lon="-3.7921450">
        <ele>669.8</ele>
        <time>2019-08-12T07:04:54Z</time>
      </trkpt>
      <trkpt lat="39.2147080" lon="-3.7920890">
        <ele>669.9</ele>
        <time>2019-08-12T07:04:55Z</time>
      </trkpt>
      <trkpt lat="39.2147450" lon="-3.7920330">
        <ele>669.9</ele>
        <time>2019-08-12T07:04:56Z</time>
      </trkpt>
      <trkpt lat="39.2147810" lon="-3.7919780">
        <ele>670.0</ele>
        <time>2019-08-12T07:04:57Z</time>
      </trkpt>
      <trkpt lat="39.2148170" lon="-3.7919220">
        <ele>670.1</ele>
        <time>2019-08-12T07:04:58Z</time>
      </trkpt>
      <trkpt lat="39.2148530" lon="-3.7918670">
        <ele>670.2</ele>
        <time>2019-08-12T07:04:59Z</time>
      </trkpt>
      <trkpt lat="39.2148890" lon="-3.7918110">
        <ele>670.2</ele>
        <time>2019-08-12T07:05:00Z</time>
      </trkpt>
      <trkpt lat="39.2149240" lon="-3.7917560">
        <ele>670.3</ele>
        <time>2019-08-12T07:05:01Z</time>
      </trkpt>
      <trkpt lat="39.2149590" lon="-3.7917010">
        <ele>670.4</ele>
        <time>2019-08-12T07:05:02Z</time>
      </trkpt>
      <trkpt lat="39.2149950" lon="-3.7916460">
        <ele>670.4</ele>
        <time>2019-08-12T07:05:03Z</time>
      </trkpt>
      <trkpt lat="39.2150300" lon="-3.7915910">
        <ele>670.5</ele>
        <time>2019-08-12T07:05:04Z</time>
      </trkpt>
      <trkpt lat="39.2150660" lon="-3.7915370">
        <ele>670.6</ele>
        <time>2019-08-12T07:05:05Z</time>
      </trkpt>
      <trkpt lat="39.2151030" lon="-3.7914820">
        <ele>670.7</ele>
        <time>2019-08-12T07:05:06Z</time>
      </trkpt>
      <trkpt lat="39.2151400" lon="-3.7914270">
        <ele>670.7</ele>
        <time>2019-08-12T07:05:07Z</time>
      </trkpt>
      <trkpt lat="39.2151780" lon="-3.7913720">
        <ele>670.8</ele>
        <time>2019-08-12T07:05:08Z</time>
      </trkpt>
      <trkpt lat="39.2152150" lon="-3.7913180">
        <ele>670.9</ele>
        <time>2019-08-12T07:05:09Z</time>
      </trkpt>
      <trkpt lat="39.2152520" lon="-3.7912630">
        <ele>671.0</ele>
        <time>2019-08-12T07:05:10Z</time>
      </trkpt>
      <trkpt lat="39.2152880" lon="-3.7912100">
        <ele>671.0</ele>
        <time>2019-08-12T07:05:11Z</time>
      </trkpt>
      <trkpt lat="39.2153240" lon="-3.7911570">
        <ele>671.1</ele>
        <time>2019-08-12T07:05:12Z</time>
      </trkpt>
      <trkpt lat="39.2153590" lon="-3.7911040">
        <ele>671.2</ele>
        <time>2019-08-12T07:05:13Z</time>
      </trkpt>
      <trkpt lat="39.2153940" lon="-3.7910520">
        <ele>671.2</ele>
        <time>2019-08-12T07:05:14Z</time>
      </trkpt>
      <trkpt lat="39.2154290" lon="-3.7910010">
        <ele>671.3</ele>
        <time>2019-08-12T07:05:15Z</time>
      </trkpt>
      <trkpt lat="39.2154630" lon="-3.7909490">
        <ele>671.3</ele>
        <time>2019-08-12T07:05:16Z</time>
      </trkpt>
      <trkpt lat="39.2154970" lon="-3.7908990">
        <ele>671.4</ele>
        <time>2019-08-12T07:05:17Z</time>
      </trkpt>
      <trkpt lat="39.2155300" lon="-3.7908480">
        <ele>671.4</ele>
        <time>2019-08-12T07:05:18Z</time>
      </trkpt>
      <trkpt lat="39.2155640" lon="-3.7907990">
        <ele>671.5</ele>
        <time>2019-08-12T07:05:19Z</time>
      </trkpt>
      <trkpt lat="39.2155970" lon="-3.7907490">
        <ele>671.5</ele>
        <time>2019-08-12T07:05:20Z</time>
      </trkpt>
      <trkpt lat="39.2156300" lon="-3.7907000">
        <ele>671.6</ele>
        <time>2019-08-12T07:05:21Z</time>
      </trkpt>
      <trkpt lat="39.2156630" lon="-3.7906510">
        <ele>671.6</ele>
        <time>2019-08-12T07:05:22Z</time>
      </trkpt>
      <trkpt lat="39.2156950" lon="-3.7906030">
        <ele>671.7</ele>
        <time>2019-08-12T07:05:23Z</time>
      </trkpt>
      <trkpt lat="39.2157270" lon="-3.7905550">
        <ele>671.7</ele>
        <time>2019-08-12T07:05:24Z</time>
      </trkpt>
      <trkpt lat="39.2157590" lon="-3.7905070">
        <ele>671.7</ele>
        <time>2019-08-12T07:05:25Z</time>
      </trkpt>
      <trkpt lat="39.2157910" lon="-3.7904590">
        <ele>671.8</ele>
        <time>2019-08-12T07:05:26Z</time>
      </trkpt>
      <trkpt lat="39.2158220" lon="-3.7904120">
        <ele>671.8</ele>
        <time>2019-08-12T07:05:27Z</time>
      </trkpt>
      <trkpt lat="39.2158520" lon="-3.7903640">
        <ele>671.8</ele>
        <time>2019-08-12T07:05:28Z</time>
      </trkpt>
      <trkpt lat="39.2158830" lon="-3.7903170">
        <ele>671.9</ele>
        <time>2019-08-12T07:05:29Z</time>
      </trkpt>
      <trkpt lat="39.2159130" lon="-3.7902700">
        <ele>671.9</ele>
        <time>2019-08-12T07:05:30Z</time>
      </trkpt>
      <trkpt lat="39.2159430" lon="-3.7902230">
        <ele>671.9</ele>
        <time>2019-08-12T07:05:31Z</time>
      </trkpt>
      <trkpt lat="39.2159730" lon="-3.7901760">
        <ele>672.0</ele>
        <time>2019-08-12T07:05:32Z</time>
      </trkpt>
      <trkpt lat="39.2160040" lon="-3.7901290">
        <ele>672.0</ele>
        <time>2019-08-12T07:05:33Z</time>
      </trkpt>
      <trkpt lat="39.2160350" lon="-3.7900810">
        <ele>672.0</ele>
        <time>2019-08-12T07:05:34Z</time>
      </trkpt>
      <trkpt lat="39.2160680" lon="-3.7900340">
        <ele>672.0</ele>
        <time>2019-08-12T07:05:35Z</time>
      </trkpt>
      <trkpt lat="39.2161000" lon="-3.7899860">
        <ele>672.1</ele>
        <time>2019-08-12T07:05:36Z</time>
      </trkpt>
      <trkpt lat="39.2161330" lon="-3.7899380">
        <ele>672.1</ele>
        <time>2019-08-12T07:05:37Z</time>
      </trkpt>
      <trkpt lat="39.2161670" lon="-3.7898910">
        <ele>672.2</ele>
        <time>2019-08-12T07:05:38Z</time>
      </trkpt>
      <trkpt lat="39.2162000" lon="-3.7898440">
        <ele>672.2</ele>
        <time>2019-08-12T07:05:39Z</time>
      </trkpt>
      <trkpt lat="39.2162340" lon="-3.7897960">
        <ele>672.2</ele>
        <time>2019-08-12T07:05:40Z</time>
      </trkpt>
      <trkpt lat="39.2162670" lon="-3.7897490">
        <ele>672.3</ele>
        <time>2019-08-12T07:05:41Z</time>
      </trkpt>
      <trkpt lat="39.2163010" lon="-3.7897020">
        <ele>672.3</ele>
        <time>2019-08-12T07:05:42Z</time>
      </trkpt>
      <trkpt lat="39.2163350" lon="-3.7896550">
        <ele>672.3</ele>
        <time>2019-08-12T07:05:43Z</time>
      </trkpt>
      <trkpt lat="39.2163680" lon="-3.7896070">
        <ele>672.4</ele>
        <time>2019-08-12T07:05:44Z</time>
      </trkpt>
      <trkpt lat="39.2164020" lon="-3.7895600">
        <ele>672.4</ele>
        <time>2019-08-12T07:05:45Z</time>
      </trkpt>
      <trkpt lat="39.2164350" lon="-3.7895130">
        <ele>672.5</ele>
        <time>2019-08-12T07:05:46Z</time>
      </trkpt>
      <trkpt lat="39.2164670" lon="-3.7894650">
        <ele>672.5</ele>
        <time>2019-08-12T07:05:47Z</time>
      </trkpt>
      <trkpt lat="39.2165000" lon="-3.7894180">
        <ele>672.6</ele>
        <time>2019-08-12T07:05:48Z</time>
      </trkpt>
      <trkpt lat="39.2165320" lon="-3.7893700">
        <ele>672.6</ele>
        <time>2019-08-12T07:05:49Z</time>
      </trkpt>
      <trkpt lat="39.2165640" lon="-3.7893230">
        <ele>672.6</ele>
        <time>2019-08-12T07:05:50Z</time>
      </trkpt>
      <trkpt lat="39.2165950" lon="-3.7892750">
        <ele>672.7</ele>
        <time>2019-08-12T07:05:51Z</time>
      </trkpt>
      <trkpt lat="39.2166260" lon="-3.7892270">
        <ele>672.7</ele>
        <time>2019-08-12T07:05:52Z</time>
      </trkpt>
      <trkpt lat="39.2166570" lon="-3.7891790">
        <ele>672.8</ele>
        <time>2019-08-12T07:05:53Z</time>
      </trkpt>
      <trkpt lat="39.2166880" lon="-3.7891310">
        <ele>672.8</ele>
        <time>2019-08-12T07:05:54Z</time>
      </trkpt>
      <trkpt lat="39.2167190" lon="-3.7890840">
        <ele>672.9</ele>
        <time>2019-08-12T07:05:55Z</time>
      </trkpt>
      <trkpt lat="39.2167500" lon="-3.7890360">
        <ele>672.9</ele>
        <time>2019-08-12T07:05:56Z</time>
      </trkpt>
      <trkpt lat="39.2167810" lon="-3.7889880">
        <ele>673.0</ele>
        <time>2019-08-12T07:05:57Z</time>
      </trkpt>
      <trkpt lat="39.2168120" lon="-3.7889410">
        <ele>673.0</ele>
        <time>2019-08-12T07:05:58Z</time>
      </trkpt>
      <trkpt lat="39.2168430" lon="-3.7888930">
        <ele>673.1</ele>
        <time>2019-08-12T07:05:59Z</time>
      </trkpt>
      <trkpt lat="39.2168740" lon="-3.7888450">
        <ele>673.1</ele>
        <time>2019-08-12T07:06:00Z</time>
      </trkpt>
      <trkpt lat="39.2169060" lon="-3.7887980">
        <ele>673.2</ele>
        <time>2019-08-12T07:06:01Z</time>
      </trkpt>
      <trkpt lat="39.2169370" lon="-3.7887500">
        <ele>673.2</ele>
        <time>2019-08-12T07:06:02Z</time>
      </trkpt>
      <trkpt lat="39.2169690" lon="-3.7887020">
        <ele>673.3</ele>
        <time>2019-08-12T07:06:03Z</time>
      </trkpt>
      <trkpt lat="39.2170010" lon="-3.7886540">
        <ele>673.3</ele>
        <time>2019-08-12T07:06:04Z</time>
      </trkpt>
      <trkpt lat="39.2170330" lon="-3.7886060">
        <ele>673.3</ele>
        <time>2019-08-12T07:06:05Z</time>
      </trkpt>
      <trkpt lat="39.2170650" lon="-3.7885580">
        <ele>673.4</ele>
        <time>2019-08-12T07:06:06Z</time>
      </trkpt>
      <trkpt lat="39.2170980" lon="-3.7885090">
        <ele>673.4</ele>
        <time>2019-08-12T07:06:07Z</time>
      </trkpt>
      <trkpt lat="39.2171310" lon="-3.7884610">
        <ele>673.5</ele>
        <time>2019-08-12T07:06:08Z</time>
      </trkpt>
      <trkpt lat="39.2171640" lon="-3.7884120">
        <ele>673.5</ele>
        <time>2019-08-12T07:06:09Z</time>
      </trkpt>
      <trkpt lat="39.2171980" lon="-3.7883630">
        <ele>673.6</ele>
        <time>2019-08-12T07:06:10Z</time>
      </trkpt>
      <trkpt lat="39.2172310" lon="-3.7883140">
        <ele>673.6</ele>
        <time>2019-08-12T07:06:11Z</time>
      </trkpt>
      <trkpt lat="39.2172640" lon="-3.7882650">
        <ele>673.6</ele>
        <time>2019-08-12T07:06:12Z</time>
      </trkpt>
      <trkpt lat="39.2172980" lon="-3.7882160">
        <ele>673.7</ele>
        <time>2019-08-12T07:06:13Z</time>
      </trkpt>
      <trkpt lat="39.2173310" lon="-3.7881670">
        <ele>673.7</ele>
        <time>2019-08-12T07:06:14Z</time>
      </trkpt>
      <trkpt lat="39.2173640" lon="-3.7881180">
        <ele>673.7</ele>
        <time>2019-08-12T07:06:15Z</time>
      </trkpt>
      <trkpt lat="39.2173970" lon="-3.7880680">
        <ele>673.8</ele>
        <time>2019-08-12T07:06:16Z</time>
      </trkpt>
      <trkpt lat="39.2174300" lon="-3.7880190">
        <ele>673.8</ele>
        <time>2019-08-12T07:06:17Z</time>
      </trkpt>
      <trkpt lat="39.2174630" lon="-3.7879690">
        <ele>673.9</ele>
        <time>2019-08-12T07:06:18Z</time>
      </trkpt>
      <trkpt lat="39.2174970" lon="-3.7879200">
        <ele>673.9</ele>
        <time>2019-08-12T07:06:19Z</time>
      </trkpt>
      <trkpt lat="39.2175300" lon="-3.7878700">
        <ele>673.9</ele>
        <time>2019-08-12T07:06:20Z</time>
      </trkpt>
      <trkpt lat="39.2175630" lon="-3.7878200">
        <ele>674.0</ele>
        <time>2019-08-12T07:06:21Z</time>
      </trkpt>
      <trkpt lat="39.2175960" lon="-3.7877700">
        <ele>674.0</ele>
        <time>2019-08-12T07:06:22Z</time>
      </trkpt>
      <trkpt lat="39.2176300" lon="-3.7877190">
        <ele>674.1</ele>
        <time>2019-08-12T07:06:23Z</time>
      </trkpt>
      <trkpt lat="39.2176630" lon="-3.7876690">
        <ele>674.1</ele>
        <time>2019-08-12T07:06:24Z</time>
      </trkpt>
      <trkpt lat="39.2176970" lon="-3.7876180">
        <ele>674.1</ele>
        <time>2019-08-12T07:06:25Z</time>
      </trkpt>
      <trkpt lat="39.2177310" lon="-3.7875670">
        <ele>674.2</ele>
        <time>2019-08-12T07:06:26Z</time>
      </trkpt>
      <trkpt lat="39.2177660" lon="-3.7875160">
        <ele>674.2</ele>
        <time>2019-08-12T07:06:27Z</time>
      </trkpt>
      <trkpt lat="39.2178000" lon="-3.7874650">
        <ele>674.2</ele>
        <time>2019-08-12T07:06:28Z</time>
      </trkpt>
      <trkpt lat="39.2178350" lon="-3.7874140">
        <ele>674.3</ele>
        <time>2019-08-12T07:06:29Z</time>
      </trkpt>
      <trkpt lat="39.2178700" lon="-3.7873620">
        <ele>674.3</ele>
        <time>2019-08-12T07:06:30Z</time>
      </trkpt>
      <trkpt lat="39.2179060" lon="-3.7873110">
        <ele>674.3</ele>
        <time>2019-08-12T07:06:31Z</time>
      </trkpt>
      <trkpt lat="39.2179410" lon="-3.7872590">
        <ele>674.4</ele>
        <time>2019-08-12T07:06:32Z</time>
      </trkpt>
      <trkpt lat="39.2179770" lon="-3.7872080">
        <ele>674.4</ele>
        <time>2019-08-12T07:06:33Z</time>
      </trkpt>
      <trkpt lat="39.2180130" lon="-3.7871560">
        <ele>674.4</ele>
        <time>2019-08-12T07:06:34Z</time>
      </trkpt>
      <trkpt lat="39.2180500" lon="-3.7871040">
        <ele>674.4</ele>
        <time>2019-08-12T07:06:35Z</time>
      </trkpt>
      <trkpt lat="39.2180870" lon="-3.7870520">
        <ele>674.5</ele>
        <time>2019-08-12T07:06:36Z</time>
      </trkpt>
      <trkpt lat="39.2181230" lon="-3.7870000">
        <ele>674.5</ele>
        <time>2019-08-12T07:06:37Z</time>
      </trkpt>
      <trkpt lat="39.2181600" lon="-3.7869480">
        <ele>674.5</ele>
        <time>2019-08-12T07:06:38Z</time>
      </trkpt>
      <trkpt lat="39.2181970" lon="-3.7868970">
        <ele>674.5</ele>
        <time>2019-08-12T07:06:39Z</time>
      </trkpt>
      <trkpt lat="39.2182330" lon="-3.7868450">
        <ele>674.6</ele>
        <time>2019-08-12T07:06:40Z</time>
      </trkpt>
      <trkpt lat="39.2182700" lon="-3.7867930">
        <ele>674.6</ele>
        <time>2019-08-12T07:06:41Z</time>
      </trkpt>
      <trkpt lat="39.2183050" lon="-3.7867410">
        <ele>674.6</ele>
        <time>2019-08-12T07:06:42Z</time>
      </trkpt>
      <trkpt lat="39.2183410" lon="-3.7866890">
        <ele>674.6</ele>
        <time>2019-08-12T07:06:43Z</time>
      </trkpt>
      <trkpt lat="39.2183760" lon="-3.7866370">
        <ele>674.6</ele>
        <time>2019-08-12T07:06:44Z</time>
      </trkpt>
      <trkpt lat="39.2184110" lon="-3.7865860">
        <ele>674.7</ele>
        <time>2019-08-12T07:06:45Z</time>
      </trkpt>
      <trkpt lat="39.2184460" lon="-3.7865340">
        <ele>674.7</ele>
        <time>2019-08-12T07:06:46Z</time>
      </trkpt>
      <trkpt lat="39.2184810" lon="-3.7864820">
        <ele>674.7</ele>
        <time>2019-08-12T07:06:47Z</time>
      </trkpt>
      <trkpt lat="39.2185160" lon="-3.7864300">
        <ele>674.7</ele>
        <time>2019-08-12T07:06:48Z</time>
      </trkpt>
      <trkpt lat="39.2185500" lon="-3.7863770">
        <ele>674.7</ele>
        <time>2019-08-12T07:06:49Z</time>
      </trkpt>
      <trkpt lat="39.2185850" lon="-3.7863240">
        <ele>674.7</ele>
        <time>2019-08-12T07:06:50Z</time>
      </trkpt>
      <trkpt lat="39.2186200" lon="-3.7862710">
        <ele>674.8</ele>
        <time>2019-08-12T07:06:51Z</time>
      </trkpt>
      <trkpt lat="39.2186550" lon="-3.7862180">
        <ele>674.8</ele>
        <time>2019-08-12T07:06:52Z</time>
      </trkpt>
      <trkpt lat="39.2186910" lon="-3.7861640">
        <ele>674.8</ele>
        <time>2019-08-12T07:06:53Z</time>
      </trkpt>
      <trkpt lat="39.2187260" lon="-3.7861100">
        <ele>674.8</ele>
        <time>2019-08-12T07:06:54Z</time>
      </trkpt>
      <trkpt lat="39.2187620" lon="-3.7860560">
        <ele>674.9</ele>
        <time>2019-08-12T07:06:55Z</time>
      </trkpt>
      <trkpt lat="39.2187970" lon="-3.7860020">
        <ele>674.9</ele>
        <time>2019-08-12T07:06:56Z</time>
      </trkpt>
      <trkpt lat="39.2188330" lon="-3.7859470">
        <ele>674.9</ele>
        <time>2019-08-12T07:06:57Z</time>
      </trkpt>
      <trkpt lat="39.2188690" lon="-3.7858930">
        <ele>674.9</ele>
        <time>2019-08-12T07:06:58Z</time>
      </trkpt>
      <trkpt lat="39.2189040" lon="-3.7858390">
        <ele>674.9</ele>
        <time>2019-08-12T07:06:59Z</time>
      </trkpt>
      <trkpt lat="39.2189400" lon="-3.7857850">
        <ele>675.0</ele>
        <time>2019-08-12T07:07:00Z</time>
      </trkpt>
      <trkpt lat="39.2189760" lon="-3.7857300">
        <ele>675.0</ele>
        <time>2019-08-12T07:07:01Z</time>
      </trkpt>
      <trkpt lat="39.2190120" lon="-3.7856760">
        <ele>675.0</ele>
        <time>2019-08-12T07:07:02Z</time>
      </trkpt>
      <trkpt lat="39.2190470" lon="-3.7856220">
        <ele>675.0</ele>
        <time>2019-08-12T07:07:03Z</time>
      </trkpt>
      <trkpt lat="39.2190830" lon="-3.7855680">
        <ele>675.0</ele>
        <time>2019-08-12T07:07:04Z</time>
      </trkpt>
      <trkpt lat="39.2191180" lon="-3.7855140">
        <ele>675.1</ele>
        <time>2019-08-12T07:07:05Z</time>
      </trkpt>
      <trkpt lat="39.2191520" lon="-3.7854600">
        <ele>675.1</ele>
        <time>2019-08-12T07:07:06Z</time>
      </trkpt>
      <trkpt lat="39.2191860" lon="-3.7854070">
        <ele>675.1</ele>
        <time>2019-08-12T07:07:07Z</time>
      </trkpt>
      <trkpt lat="39.2192200" lon="-3.7853540">
        <ele>675.1</ele>
        <time>2019-08-12T07:07:08Z</time>
      </trkpt>
      <trkpt lat="39.2192530" lon="-3.7853010">
        <ele>675.1</ele>
        <time>2019-08-12T07:07:09Z</time>
      </trkpt>
      <trkpt lat="39.2192860" lon="-3.7852490">
        <ele>675.1</ele>
        <time>2019-08-12T07:07:10Z</time>
      </trkpt>
      <trkpt lat="39.2193190" lon="-3.7851980">
        <ele>675.2</ele>
        <time>2019-08-12T07:07:11Z</time>
      </trkpt>
      <trkpt lat="39.2193510" lon="-3.7851470">
        <ele>675.2</ele>
        <time>2019-08-12T07:07:12Z</time>
      </trkpt>
      <trkpt lat="39.2193840" lon="-3.7850970">
        <ele>675.2</ele>
        <time>2019-08-12T07:07:13Z</time>
      </trkpt>
      <trkpt lat="39.2194160" lon="-3.7850470">
        <ele>675.2</ele>
        <time>2019-08-12T07:07:14Z</time>
      </trkpt>
      <trkpt lat="39.2194480" lon="-3.7849970">
        <ele>675.2</ele>
        <time>2019-08-12T07:07:15Z</time>
      </trkpt>
      <trkpt lat="39.2194810" lon="-3.7849470">
        <ele>675.2</ele>
        <time>2019-08-12T07:07:16Z</time>
      </trkpt>
      <trkpt lat="39.2195140" lon="-3.7848970">
        <ele>675.3</ele>
        <time>2019-08-12T07:07:17Z</time>
      </trkpt>
      <trkpt lat="39.2195470" lon="-3.7848460">
        <ele>675.3</ele>
        <time>2019-08-12T07:07:18Z</time>
      </trkpt>
      <trkpt lat="39.2195800" lon="-3.7847960">
        <ele>675.3</ele>
        <time>2019-08-12T07:07:19Z</time>
      </trkpt>
      <trkpt lat="39.2196150" lon="-3.7847440">
        <ele>675.3</ele>
        <time>2019-08-12T07:07:20Z</time>
      </trkpt>
      <trkpt lat="39.2196490" lon="-3.7846930">
        <ele>675.3</ele>
        <time>2019-08-12T07:07:21Z</time>
      </trkpt>
      <trkpt lat="39.2196840" lon="-3.7846410">
        <ele>675.3</ele>
        <time>2019-08-12T07:07:22Z</time>
      </trkpt>
      <trkpt lat="39.2197190" lon="-3.7845880">
        <ele>675.3</ele>
        <time>2019-08-12T07:07:23Z</time>
      </trkpt>
      <trkpt lat="39.2197540" lon="-3.7845360">
        <ele>675.3</ele>
        <time>2019-08-12T07:07:24Z</time>
      </trkpt>
      <trkpt lat="39.2197890" lon="-3.7844820">
        <ele>675.3</ele>
        <time>2019-08-12T07:07:25Z</time>
      </trkpt>
      <trkpt lat="39.2198230" lon="-3.7844290">
        <ele>675.4</ele>
        <time>2019-08-12T07:07:26Z</time>
      </trkpt>
      <trkpt lat="39.2198570" lon="-3.7843760">
        <ele>675.4</ele>
        <time>2019-08-12T07:07:27Z</time>
      </trkpt>
      <trkpt lat="39.2198910" lon="-3.7843220">
        <ele>675.4</ele>
        <time>2019-08-12T07:07:28Z</time>
      </trkpt>
      <trkpt lat="39.2199240" lon="-3.7842680">
        <ele>675.4</ele>
        <time>2019-08-12T07:07:29Z</time>
      </trkpt>
      <trkpt lat="39.2199570" lon="-3.7842150">
        <ele>675.4</ele>
        <time>2019-08-12T07:07:30Z</time>
      </trkpt>
      <trkpt lat="39.2199900" lon="-3.7841610">
        <ele>675.4</ele>
        <time>2019-08-12T07:07:31Z</time>
      </trkpt>
      <trkpt lat="39.2200220" lon="-3.7841080">
        <ele>675.4</ele>
        <time>2019-08-12T07:07:32Z</time>
      </trkpt>
      <trkpt lat="39.2200550" lon="-3.7840560">
        <ele>675.4</ele>
        <time>2019-08-12T07:07:33Z</time>
      </trkpt>
      <trkpt lat="39.2200880" lon="-3.7840040">
        <ele>675.4</ele>
        <time>2019-08-12T07:07:34Z</time>
      </trkpt>
      <trkpt lat="39.2201220" lon="-3.7839530">
        <ele>675.4</ele>
        <time>2019-08-12T07:07:35Z</time>
      </trkpt>
      <trkpt lat="39.2201560" lon="-3.7839030">
        <ele>675.4</ele>
        <time>2019-08-12T07:07:36Z</time>
      </trkpt>
      <trkpt lat="39.2201900" lon="-3.7838520">
        <ele>675.4</ele>
        <time>2019-08-12T07:07:37Z</time>
      </trkpt>
      <trkpt lat="39.2202240" lon="-3.7838020">
        <ele>675.4</ele>
        <time>2019-08-12T07:07:38Z</time>
      </trkpt>
      <trkpt lat="39.2202580" lon="-3.7837520">
        <ele>675.4</ele>
        <time>2019-08-12T07:07:39Z</time>
      </trkpt>
      <trkpt lat="39.2202930" lon="-3.7837020">
        <ele>675.4</ele>
        <time>2019-08-12T07:07:40Z</time>
      </trkpt>
      <trkpt lat="39.2203290" lon="-3.7836530">
        <ele>675.4</ele>
        <time>2019-08-12T07:07:41Z</time>
      </trkpt>
      <trkpt lat="39.2203650" lon="-3.7836030">
        <ele>675.5</ele>
        <time>2019-08-12T07:07:42Z</time>
      </trkpt>
      <trkpt lat="39.2204020" lon="-3.7835530">
        <ele>675.5</ele>
        <time>2019-08-12T07:07:43Z</time>
      </trkpt>
      <trkpt lat="39.2204400" lon="-3.7835040">
        <ele>675.5</ele>
        <time>2019-08-12T07:07:44Z</time>
      </trkpt>
      <trkpt lat="39.2204770" lon="-3.7834540">
        <ele>675.5</ele>
        <time>2019-08-12T07:07:45Z</time>
      </trkpt>
      <trkpt lat="39.2205150" lon="-3.7834030">
        <ele>675.5</ele>
        <time>2019-08-12T07:07:46Z</time>
      </trkpt>
      <trkpt lat="39.2205510" lon="-3.7833520">
        <ele>675.5</ele>
        <time>2019-08-12T07:07:47Z</time>
      </trkpt>
      <trkpt lat="39.2205870" lon="-3.7833010">
        <ele>675.5</ele>
        <time>2019-08-12T07:07:48Z</time>
      </trkpt>
      <trkpt lat="39.2206220" lon="-3.7832490">
        <ele>675.5</ele>
        <time>2019-08-12T07:07:49Z</time>
      </trkpt>
      <trkpt lat="39.2206560" lon="-3.7831970">
        <ele>675.5</ele>
        <time>2019-08-12T07:07:50Z</time>
      </trkpt>
      <trkpt lat="39.2206890" lon="-3.7831440">
        <ele>675.5</ele>
        <time>2019-08-12T07:07:51Z</time>
      </trkpt>
      <trkpt lat="39.2207220" lon="-3.7830900">
        <ele>675.5</ele>
        <time>2019-08-12T07:07:52Z</time>
      </trkpt>
      <trkpt lat="39.2207550" lon="-3.7830360">
        <ele>675.6</ele>
        <time>2019-08-12T07:07:53Z</time>
      </trkpt>
      <trkpt lat="39.2207870" lon="-3.7829820">
        <ele>675.6</ele>
        <time>2019-08-12T07:07:54Z</time>
      </trkpt>
      <trkpt lat="39.2208190" lon="-3.7829280">
        <ele>675.6</ele>
        <time>2019-08-12T07:07:55Z</time>
      </trkpt>
      <trkpt lat="39.2208500" lon="-3.7828730">
        <ele>675.6</ele>
        <time>2019-08-12T07:07:56Z</time>
      </trkpt>
      <trkpt lat="39.2208810" lon="-3.7828180">
        <ele>675.6</ele>
        <time>2019-08-12T07:07:57Z</time>
      </trkpt>
      <trkpt lat="39.2209120" lon="-3.7827620">
        <ele>675.6</ele>
        <time>2019-08-12T07:07:58Z</time>
      </trkpt>
      <trkpt lat="39.2209430" lon="-3.7827070">
        <ele>675.6</ele>
        <time>2019-08-12T07:07:59Z</time>
      </trkpt>
      <trkpt lat="39.2209740" lon="-3.7826510">
        <ele>675.6</ele>
        <time>2019-08-12T07:08:00Z</time>
      </trkpt>
      <trkpt lat="39.2210050" lon="-3.7825950">
        <ele>675.6</ele>
        <time>2019-08-12T07:08:01Z</time>
      </trkpt>
      <trkpt lat="39.2210360" lon="-3.7825390">
        <ele>675.7</ele>
        <time>2019-08-12T07:08:02Z</time>
      </trkpt>
      <trkpt lat="39.2210670" lon="-3.7824830">
        <ele>675.7</ele>
        <time>2019-08-12T07:08:03Z</time>
      </trkpt>
      <trkpt lat="39.2210980" lon="-3.7824270">
        <ele>675.7</ele>
        <time>2019-08-12T07:08:04Z</time>
      </trkpt>
      <trkpt lat="39.2211300" lon="-3.7823710">
        <ele>675.7</ele>
        <time>2019-08-12T07:08:05Z</time>
      </trkpt>
      <trkpt lat="39.2211610" lon="-3.7823140">
        <ele>675.7</ele>
        <time>2019-08-12T07:08:06Z</time>
      </trkpt>
      <trkpt lat="39.2211940" lon="-3.7822580">
        <ele>675.7</ele>
        <time>2019-08-12T07:08:07Z</time>
      </trkpt>
      <trkpt lat="39.2212260" lon="-3.7822010">
        <ele>675.7</ele>
        <time>2019-08-12T07:08:08Z</time>
      </trkpt>
      <trkpt lat="39.2212590" lon="-3.7821430">
        <ele>675.7</ele>
        <time>2019-08-12T07:08:09Z</time>
      </trkpt>
      <trkpt lat="39.2212920" lon="-3.7820850">
        <ele>675.7</ele>
        <time>2019-08-12T07:08:10Z</time>
      </trkpt>
      <trkpt lat="39.2213250" lon="-3.7820260">
        <ele>675.7</ele>
        <time>2019-08-12T07:08:11Z</time>
      </trkpt>
      <trkpt lat="39.2213580" lon="-3.7819670">
        <ele>675.7</ele>
        <time>2019-08-12T07:08:12Z</time>
      </trkpt>
      <trkpt lat="39.2213920" lon="-3.7819060">
        <ele>675.7</ele>
        <time>2019-08-12T07:08:13Z</time>
      </trkpt>
      <trkpt lat="39.2214260" lon="-3.7818440">
        <ele>675.6</ele>
        <time>2019-08-12T07:08:14Z</time>
      </trkpt>
      <trkpt lat="39.2214600" lon="-3.7817810">
        <ele>675.5</ele>
        <time>2019-08-12T07:08:15Z</time>
      </trkpt>
      <trkpt lat="39.2214950" lon="-3.7817180">
        <ele>675.4</ele>
        <time>2019-08-12T07:08:16Z</time>
      </trkpt>
      <trkpt lat="39.2215300" lon="-3.7816540">
        <ele>675.3</ele>
        <time>2019-08-12T07:08:17Z</time>
      </trkpt>
      <trkpt lat="39.2215650" lon="-3.7815890">
        <ele>675.2</ele>
        <time>2019-08-12T07:08:18Z</time>
      </trkpt>
      <trkpt lat="39.2216000" lon="-3.7815250">
        <ele>675.1</ele>
        <time>2019-08-12T07:08:19Z</time>
      </trkpt>
      <trkpt lat="39.2216360" lon="-3.7814610">
        <ele>674.9</ele>
        <time>2019-08-12T07:08:20Z</time>
      </trkpt>
      <trkpt lat="39.2216720" lon="-3.7813980">
        <ele>674.8</ele>
        <time>2019-08-12T07:08:21Z</time>
      </trkpt>
      <trkpt lat="39.2217080" lon="-3.7813350">
        <ele>674.7</ele>
        <time>2019-08-12T07:08:22Z</time>
      </trkpt>
      <trkpt lat="39.2217430" lon="-3.7812720">
        <ele>674.6</ele>
        <time>2019-08-12T07:08:23Z</time>
      </trkpt>
      <trkpt lat="39.2217790" lon="-3.7812100">
        <ele>674.4</ele>
        <time>2019-08-12T07:08:24Z</time>
      </trkpt>
      <trkpt lat="39.2218140" lon="-3.7811480">
        <ele>674.3</ele>
        <time>2019-08-12T07:08:25Z</time>
      </trkpt>
      <trkpt lat="39.2218480" lon="-3.7810840">
        <ele>674.2</ele>
        <time>2019-08-12T07:08:26Z</time>
      </trkpt>
      <trkpt lat="39.2218820" lon="-3.7810200">
        <ele>674.1</ele>
        <time>2019-08-12T07:08:27Z</time>
      </trkpt>
      <trkpt lat="39.2219170" lon="-3.7809540">
        <ele>673.9</ele>
        <time>2019-08-12T07:08:28Z</time>
      </trkpt>
      <trkpt lat="39.2219520" lon="-3.7808890">
        <ele>673.8</ele>
        <time>2019-08-12T07:08:29Z</time>
      </trkpt>
      <trkpt lat="39.2219880" lon="-3.7808250">
        <ele>673.8</ele>
        <time>2019-08-12T07:08:30Z</time>
      </trkpt>
      <trkpt lat="39.2220240" lon="-3.7807610">
        <ele>673.7</ele>
        <time>2019-08-12T07:08:31Z</time>
      </trkpt>
      <trkpt lat="39.2220610" lon="-3.7806980">
        <ele>673.6</ele>
        <time>2019-08-12T07:08:32Z</time>
      </trkpt>
      <trkpt lat="39.2220960" lon="-3.7806340">
        <ele>673.6</ele>
        <time>2019-08-12T07:08:33Z</time>
      </trkpt>
      <trkpt lat="39.2221310" lon="-3.7805710">
        <ele>673.6</ele>
        <time>2019-08-12T07:08:34Z</time>
      </trkpt>
      <trkpt lat="39.2221650" lon="-3.7805090">
        <ele>673.7</ele>
        <time>2019-08-12T07:08:35Z</time>
      </trkpt>
      <trkpt lat="39.2221990" lon="-3.7804470">
        <ele>673.7</ele>
        <time>2019-08-12T07:08:36Z</time>
      </trkpt>
      <trkpt lat="39.2222320" lon="-3.7803850">
        <ele>673.9</ele>
        <time>2019-08-12T07:08:37Z</time>
      </trkpt>
      <trkpt lat="39.2222650" lon="-3.7803240">
        <ele>674.1</ele>
        <time>2019-08-12T07:08:38Z</time>
      </trkpt>
      <trkpt lat="39.2222980" lon="-3.7802630">
        <ele>674.2</ele>
        <time>2019-08-12T07:08:39Z</time>
      </trkpt>
      <trkpt lat="39.2223300" lon="-3.7802020">
        <ele>674.4</ele>
        <time>2019-08-12T07:08:40Z</time>
      </trkpt>
      <trkpt lat="39.2223630" lon="-3.7801420">
        <ele>674.5</ele>
        <time>2019-08-12T07:08:41Z</time>
      </trkpt>
      <trkpt lat="39.2223960" lon="-3.7800820">
        <ele>674.7</ele>
        <time>2019-08-12T07:08:42Z</time>
      </trkpt>
      <trkpt lat="39.2224280" lon="-3.7800220">
        <ele>674.8</ele>
        <time>2019-08-12T07:08:43Z</time>
      </trkpt>
      <trkpt lat="39.2224610" lon="-3.7799630">
        <ele>674.9</ele>
        <time>2019-08-12T07:08:44Z</time>
      </trkpt>
      <trkpt lat="39.2224930" lon="-3.7799040">
        <ele>675.0</ele>
        <time>2019-08-12T07:08:45Z</time>
      </trkpt>
      <trkpt lat="39.2225260" lon="-3.7798450">
        <ele>675.1</ele>
        <time>2019-08-12T07:08:46Z</time>
      </trkpt>
      <trkpt lat="39.2225590" lon="-3.7797860">
        <ele>675.2</ele>
        <time>2019-08-12T07:08:47Z</time>
      </trkpt>
      <trkpt lat="39.2225920" lon="-3.7797280">
        <ele>675.2</ele>
        <time>2019-08-12T07:08:48Z</time>
      </trkpt>
      <trkpt lat="39.2226250" lon="-3.7796700">
        <ele>675.2</ele>
        <time>2019-08-12T07:08:49Z</time>
      </trkpt>
      <trkpt lat="39.2226580" lon="-3.7796110">
        <ele>675.2</ele>
        <time>2019-08-12T07:08:50Z</time>
      </trkpt>
      <trkpt lat="39.2226910" lon="-3.7795530">
        <ele>675.2</ele>
        <time>2019-08-12T07:08:51Z</time>
      </trkpt>
      <trkpt lat="39.2227240" lon="-3.7794940">
        <ele>675.3</ele>
        <time>2019-08-12T07:08:52Z</time>
      </trkpt>
      <trkpt lat="39.2227580" lon="-3.7794360">
        <ele>675.3</ele>
        <time>2019-08-12T07:08:53Z</time>
      </trkpt>
      <trkpt lat="39.2227920" lon="-3.7793770">
        <ele>675.3</ele>
        <time>2019-08-12T07:08:54Z</time>
      </trkpt>
      <trkpt lat="39.2228250" lon="-3.7793180">
        <ele>675.2</ele>
        <time>2019-08-12T07:08:55Z</time>
      </trkpt>
      <trkpt lat="39.2228590" lon="-3.7792590">
        <ele>675.3</ele>
        <time>2019-08-12T07:08:56Z</time>
      </trkpt>
      <trkpt lat="39.2228930" lon="-3.7792000">
        <ele>675.4</ele>
        <time>2019-08-12T07:08:57Z</time>
      </trkpt>
      <trkpt lat="39.2229270" lon="-3.7791400">
        <ele>675.5</ele>
        <time>2019-08-12T07:08:58Z</time>
      </trkpt>
      <trkpt lat="39.2229620" lon="-3.7790800">
        <ele>675.6</ele>
        <time>2019-08-12T07:08:59Z</time>
      </trkpt>
      <trkpt lat="39.2229960" lon="-3.7790190">
        <ele>675.7</ele>
        <time>2019-08-12T07:09:00Z</time>
      </trkpt>
      <trkpt lat="39.2230310" lon="-3.7789580">
        <ele>675.8</ele>
        <time>2019-08-12T07:09:01Z</time>
      </trkpt>
      <trkpt lat="39.2230660" lon="-3.7788970">
        <ele>675.9</ele>
        <time>2019-08-12T07:09:02Z</time>
      </trkpt>
      <trkpt lat="39.2231010" lon="-3.7788350">
        <ele>676.0</ele>
        <time>2019-08-12T07:09:03Z</time>
      </trkpt>
      <trkpt lat="39.2231370" lon="-3.7787730">
        <ele>676.0</ele>
        <time>2019-08-12T07:09:04Z</time>
      </trkpt>
      <trkpt lat="39.2231720" lon="-3.7787100">
        <ele>676.1</ele>
        <time>2019-08-12T07:09:05Z</time>
      </trkpt>
      <trkpt lat="39.2232080" lon="-3.7786470">
        <ele>676.2</ele>
        <time>2019-08-12T07:09:06Z</time>
      </trkpt>
      <trkpt lat="39.2232440" lon="-3.7785830">
        <ele>676.3</ele>
        <time>2019-08-12T07:09:07Z</time>
      </trkpt>
      <trkpt lat="39.2232800" lon="-3.7785190">
        <ele>676.3</ele>
        <time>2019-08-12T07:09:08Z</time>
      </trkpt>
      <trkpt lat="39.2233170" lon="-3.7784550">
        <ele>676.3</ele>
        <time>2019-08-12T07:09:09Z</time>
      </trkpt>
      <trkpt lat="39.2233530" lon="-3.7783900">
        <ele>676.4</ele>
        <time>2019-08-12T07:09:10Z</time>
      </trkpt>
      <trkpt lat="39.2233890" lon="-3.7783250">
        <ele>676.3</ele>
        <time>2019-08-12T07:09:11Z</time>
      </trkpt>
      <trkpt lat="39.2234260" lon="-3.7782600">
        <ele>676.4</ele>
        <time>2019-08-12T07:09:12Z</time>
      </trkpt>
      <trkpt lat="39.2234620" lon="-3.7781950">
        <ele>676.4</ele>
        <time>2019-08-12T07:09:13Z</time>
      </trkpt>
      <trkpt lat="39.2234980" lon="-3.7781300">
        <ele>676.4</ele>
        <time>2019-08-12T07:09:14Z</time>
      </trkpt>
      <trkpt lat="39.2235330" lon="-3.7780660">
        <ele>676.4</ele>
        <time>2019-08-12T07:09:15Z</time>
      </trkpt>
      <trkpt lat="39.2235680" lon="-3.7780020">
        <ele>676.4</ele>
        <time>2019-08-12T07:09:16Z</time>
      </trkpt>
      <trkpt lat="39.2236020" lon="-3.7779400">
        <ele>676.4</ele>
        <time>2019-08-12T07:09:17Z</time>
      </trkpt>
      <trkpt lat="39.2236360" lon="-3.7778780">
        <ele>676.4</ele>
        <time>2019-08-12T07:09:18Z</time>
      </trkpt>
      <trkpt lat="39.2236690" lon="-3.7778180">
        <ele>676.3</ele>
        <time>2019-08-12T07:09:19Z</time>
      </trkpt>
      <trkpt lat="39.2237010" lon="-3.7777580">
        <ele>676.3</ele>
        <time>2019-08-12T07:09:20Z</time>
      </trkpt>
      <trkpt lat="39.2237330" lon="-3.7776980">
        <ele>676.3</ele>
        <time>2019-08-12T07:09:21Z</time>
      </trkpt>
      <trkpt lat="39.2237650" lon="-3.7776380">
        <ele>676.3</ele>
        <time>2019-08-12T07:09:22Z</time>
      </trkpt>
      <trkpt lat="39.2237990" lon="-3.7775770">
        <ele>676.3</ele>
        <time>2019-08-12T07:09:23Z</time>
      </trkpt>
      <trkpt lat="39.2238330" lon="-3.7775150">
        <ele>676.2</ele>
        <time>2019-08-12T07:09:24Z</time>
      </trkpt>
      <trkpt lat="39.2238680" lon="-3.7774520">
        <ele>676.1</ele>
        <time>2019-08-12T07:09:25Z</time>
      </trkpt>
      <trkpt lat="39.2239040" lon="-3.7773890">
        <ele>676.1</ele>
        <time>2019-08-12T07:09:26Z</time>
      </trkpt>
      <trkpt lat="39.2239390" lon="-3.7773260">
        <ele>675.9</ele>
        <time>2019-08-12T07:09:27Z</time>
      </trkpt>
      <trkpt lat="39.2239740" lon="-3.7772630">
        <ele>676.0</ele>
        <time>2019-08-12T07:09:28Z</time>
      </trkpt>
      <trkpt lat="39.2240080" lon="-3.7772010">
        <ele>676.0</ele>
        <time>2019-08-12T07:09:29Z</time>
      </trkpt>
      <trkpt lat="39.2240410" lon="-3.7771400">
        <ele>676.0</ele>
        <time>2019-08-12T07:09:30Z</time>
      </trkpt>
      <trkpt lat="39.2240740" lon="-3.7770790">
        <ele>676.0</ele>
        <time>2019-08-12T07:09:31Z</time>
      </trkpt>
      <trkpt lat="39.2241060" lon="-3.7770190">
        <ele>676.0</ele>
        <time>2019-08-12T07:09:32Z</time>
      </trkpt>
      <trkpt lat="39.2241380" lon="-3.7769580">
        <ele>675.9</ele>
        <time>2019-08-12T07:09:33Z</time>
      </trkpt>
      <trkpt lat="39.2241700" lon="-3.7768980">
        <ele>675.8</ele>
        <time>2019-08-12T07:09:34Z</time>
      </trkpt>
      <trkpt lat="39.2242020" lon="-3.7768370">
        <ele>675.7</ele>
        <time>2019-08-12T07:09:35Z</time>
      </trkpt>
      <trkpt lat="39.2242340" lon="-3.7767750">
        <ele>675.6</ele>
        <time>2019-08-12T07:09:36Z</time>
      </trkpt>
      <trkpt lat="39.2242670" lon="-3.7767120">
        <ele>675.5</ele>
        <time>2019-08-12T07:09:37Z</time>
      </trkpt>
      <trkpt lat="39.2243010" lon="-3.7766490">
        <ele>675.5</ele>
        <time>2019-08-12T07:09:38Z</time>
      </trkpt>
      <trkpt lat="39.2243350" lon="-3.7765850">
        <ele>675.6</ele>
        <time>2019-08-12T07:09:39Z</time>
      </trkpt>
      <trkpt lat="39.2243690" lon="-3.7765200">
        <ele>675.6</ele>
        <time>2019-08-12T07:09:40Z</time>
      </trkpt>
      <trkpt lat="39.2244040" lon="-3.7764550">
        <ele>675.7</ele>
        <time>2019-08-12T07:09:41Z</time>
      </trkpt>
      <trkpt lat="39.2244390" lon="-3.7763900">
        <ele>675.8</ele>
        <time>2019-08-12T07:09:42Z</time>
      </trkpt>
      <trkpt lat="39.2244740" lon="-3.7763250">
        <ele>675.8</ele>
        <time>2019-08-12T07:09:43Z</time>
      </trkpt>
      <trkpt lat="39.2245090" lon="-3.7762610">
        <ele>675.9</ele>
        <time>2019-08-12T07:09:44Z</time>
      </trkpt>
      <trkpt lat="39.2245430" lon="-3.7761980">
        <ele>675.9</ele>
        <time>2019-08-12T07:09:45Z</time>
      </trkpt>
      <trkpt lat="39.2245760" lon="-3.7761350">
        <ele>675.9</ele>
        <time>2019-08-12T07:09:46Z</time>
      </trkpt>
      <trkpt lat="39.2246090" lon="-3.7760740">
        <ele>676.0</ele>
        <time>2019-08-12T07:09:47Z</time>
      </trkpt>
      <trkpt lat="39.2246420" lon="-3.7760150">
        <ele>676.0</ele>
        <time>2019-08-12T07:09:48Z</time>
      </trkpt>
      <trkpt lat="39.2246740" lon="-3.7759560">
        <ele>676.0</ele>
        <time>2019-08-12T07:09:49Z</time>
      </trkpt>
      <trkpt lat="39.2247070" lon="-3.7758980">
        <ele>676.0</ele>
        <time>2019-08-12T07:09:50Z</time>
      </trkpt>
      <trkpt lat="39.2247410" lon="-3.7758400">
        <ele>676.0</ele>
        <time>2019-08-12T07:09:51Z</time>
      </trkpt>
      <trkpt lat="39.2247760" lon="-3.7757830">
        <ele>676.0</ele>
        <time>2019-08-12T07:09:52Z</time>
      </trkpt>
      <trkpt lat="39.2248120" lon="-3.7757260">
        <ele>676.0</ele>
        <time>2019-08-12T07:09:53Z</time>
      </trkpt>
      <trkpt lat="39.2248480" lon="-3.7756690">
        <ele>676.0</ele>
        <time>2019-08-12T07:09:54Z</time>
      </trkpt>
      <trkpt lat="39.2248830" lon="-3.7756120">
        <ele>676.0</ele>
        <time>2019-08-12T07:09:55Z</time>
      </trkpt>
      <trkpt lat="39.2249170" lon="-3.7755550">
        <ele>676.0</ele>
        <time>2019-08-12T07:09:56Z</time>
      </trkpt>
      <trkpt lat="39.2249510" lon="-3.7754970">
        <ele>676.0</ele>
        <time>2019-08-12T07:09:57Z</time>
      </trkpt>
      <trkpt lat="39.2249840" lon="-3.7754400">
        <ele>676.0</ele>
        <time>2019-08-12T07:09:58Z</time>
      </trkpt>
      <trkpt lat="39.2250170" lon="-3.7753810">
        <ele>676.1</ele>
        <time>2019-08-12T07:09:59Z</time>
      </trkpt>
      <trkpt lat="39.2250510" lon="-3.7753230">
        <ele>676.1</ele>
        <time>2019-08-12T07:10:00Z</time>
      </trkpt>
      <trkpt lat="39.2250850" lon="-3.7752640">
        <ele>676.1</ele>
        <time>2019-08-12T07:10:01Z</time>
      </trkpt>
      <trkpt lat="39.2251190" lon="-3.7752050">
        <ele>676.2</ele>
        <time>2019-08-12T07:10:02Z</time>
      </trkpt>
      <trkpt lat="39.2251540" lon="-3.7751470">
        <ele>676.2</ele>
        <time>2019-08-12T07:10:03Z</time>
      </trkpt>
      <trkpt lat="39.2251890" lon="-3.7750900">
        <ele>676.3</ele>
        <time>2019-08-12T07:10:04Z</time>
      </trkpt>
      <trkpt lat="39.2252230" lon="-3.7750360">
        <ele>676.4</ele>
        <time>2019-08-12T07:10:05Z</time>
      </trkpt>
      <trkpt lat="39.2252580" lon="-3.7749840">
        <ele>676.5</ele>
        <time>2019-08-12T07:10:06Z</time>
      </trkpt>
      <trkpt lat="39.2252920" lon="-3.7749350">
        <ele>676.6</ele>
        <time>2019-08-12T07:10:07Z</time>
      </trkpt>
      <trkpt lat="39.2253260" lon="-3.7748890">
        <ele>676.7</ele>
        <time>2019-08-12T07:10:08Z</time>
      </trkpt>
      <trkpt lat="39.2253570" lon="-3.7748460">
        <ele>676.7</ele>
        <time>2019-08-12T07:10:09Z</time>
      </trkpt>
      <trkpt lat="39.2253740" lon="-3.7748030">
        <ele>676.7</ele>
        <time>2019-08-12T07:10:10Z</time>
      </trkpt>
      <trkpt lat="39.2253670" lon="-3.7747580">
        <ele>676.7</ele>
        <time>2019-08-12T07:10:11Z</time>
      </trkpt>
      <trkpt lat="39.2253420" lon="-3.7747210">
        <ele>676.7</ele>
        <time>2019-08-12T07:10:12Z</time>
      </trkpt>
      <trkpt lat="39.2253110" lon="-3.7746980">
        <ele>676.7</ele>
        <time>2019-08-12T07:10:13Z</time>
      </trkpt>
      <trkpt lat="39.2252850" lon="-3.7746790">
        <ele>676.7</ele>
        <time>2019-08-12T07:10:14Z</time>
      </trkpt>
      <trkpt lat="39.2252720" lon="-3.7746500">
        <ele>676.7</ele>
        <time>2019-08-12T07:10:15Z</time>
      </trkpt>
      <trkpt lat="39.2252710" lon="-3.7746120">
        <ele>676.9</ele>
        <time>2019-08-12T07:10:16Z</time>
      </trkpt>
      <trkpt lat="39.2252800" lon="-3.7745690">
        <ele>677.0</ele>
        <time>2019-08-12T07:10:17Z</time>
      </trkpt>
      <trkpt lat="39.2252940" lon="-3.7745240">
        <ele>677.0</ele>
        <time>2019-08-12T07:10:18Z</time>
      </trkpt>
      <trkpt lat="39.2253100" lon="-3.7744810">
        <ele>677.1</ele>
        <time>2019-08-12T07:10:19Z</time>
      </trkpt>
      <trkpt lat="39.2253260" lon="-3.7744430">
        <ele>677.2</ele>
        <time>2019-08-12T07:10:20Z</time>
      </trkpt>
      <trkpt lat="39.2253410" lon="-3.7744080">
        <ele>677.2</ele>
        <time>2019-08-12T07:10:21Z</time>
      </trkpt>
      <trkpt lat="39.2253550" lon="-3.7743740">
        <ele>677.3</ele>
        <time>2019-08-12T07:10:22Z</time>
      </trkpt>
      <trkpt lat="39.2253690" lon="-3.7743410">
        <ele>677.3</ele>
        <time>2019-08-12T07:10:23Z</time>
      </trkpt>
      <trkpt lat="39.2253820" lon="-3.7743050">
        <ele>677.4</ele>
        <time>2019-08-12T07:10:24Z</time>
      </trkpt>
      <trkpt lat="39.2253960" lon="-3.7742680">
        <ele>677.4</ele>
        <time>2019-08-12T07:10:25Z</time>
      </trkpt>
      <trkpt lat="39.2254090" lon="-3.7742320">
        <ele>677.4</ele>
        <time>2019-08-12T07:10:26Z</time>
      </trkpt>
      <trkpt lat="39.2254210" lon="-3.7741980">
        <ele>677.4</ele>
        <time>2019-08-12T07:10:27Z</time>
      </trkpt>
      <trkpt lat="39.2254320" lon="-3.7741670">
        <ele>677.5</ele>
        <time>2019-08-12T07:10:28Z</time>
      </trkpt>
      <trkpt lat="39.2254420" lon="-3.7741400">
        <ele>677.5</ele>
        <time>2019-08-12T07:10:29Z</time>
      </trkpt>
      <trkpt lat="39.2254540" lon="-3.7741130">
        <ele>677.5</ele>
        <time>2019-08-12T07:10:30Z</time>
      </trkpt>
      <trkpt lat="39.2254630" lon="-3.7740940">
        <ele>677.5</ele>
        <time>2019-08-12T07:10:31Z</time>
      </trkpt>
      <trkpt lat="39.2254570" lon="-3.7741220">
        <ele>677.5</ele>
        <time>2019-08-12T07:17:56Z</time>
      </trkpt>
      <trkpt lat="39.2254440" lon="-3.7741610">
        <ele>677.6</ele>
        <time>2019-08-12T07:17:57Z</time>
      </trkpt>
      <trkpt lat="39.2254280" lon="-3.7742010">
        <ele>677.6</ele>
        <time>2019-08-12T07:17:58Z</time>
      </trkpt>
      <trkpt lat="39.2254110" lon="-3.7742440">
        <ele>677.5</ele>
        <time>2019-08-12T07:17:59Z</time>
      </trkpt>
      <trkpt lat="39.2253940" lon="-3.7742890">
        <ele>677.5</ele>
        <time>2019-08-12T07:18:00Z</time>
      </trkpt>
      <trkpt lat="39.2253790" lon="-3.7743340">
        <ele>677.4</ele>
        <time>2019-08-12T07:18:01Z</time>
      </trkpt>
      <trkpt lat="39.2253570" lon="-3.7744100">
        <ele>677.4</ele>
        <time>2019-08-12T07:18:02Z</time>
      </trkpt>
      <trkpt lat="39.2253480" lon="-3.7744400">
        <ele>677.3</ele>
        <time>2019-08-12T07:18:03Z</time>
      </trkpt>
      <trkpt lat="39.2253400" lon="-3.7744700">
        <ele>677.3</ele>
        <time>2019-08-12T07:18:04Z</time>
      </trkpt>
      <trkpt lat="39.2253280" lon="-3.7745120">
        <ele>677.2</ele>
        <time>2019-08-12T07:18:05Z</time>
      </trkpt>
      <trkpt lat="39.2253160" lon="-3.7745510">
        <ele>677.1</ele>
        <time>2019-08-12T07:18:06Z</time>
      </trkpt>
      <trkpt lat="39.2253040" lon="-3.7745880">
        <ele>677.0</ele>
        <time>2019-08-12T07:18:07Z</time>
      </trkpt>
      <trkpt lat="39.2252940" lon="-3.7746220">
        <ele>676.9</ele>
        <time>2019-08-12T07:18:08Z</time>
      </trkpt>
      <trkpt lat="39.2252880" lon="-3.7746540">
        <ele>676.9</ele>
        <time>2019-08-12T07:18:09Z</time>
      </trkpt>
      <trkpt lat="39.2252880" lon="-3.7746830">
        <ele>676.8</ele>
        <time>2019-08-12T07:18:10Z</time>
      </trkpt>
      <trkpt lat="39.2252970" lon="-3.7747110">
        <ele>676.8</ele>
        <time>2019-08-12T07:18:11Z</time>
      </trkpt>
      <trkpt lat="39.2253150" lon="-3.7747370">
        <ele>676.7</ele>
        <time>2019-08-12T07:18:12Z</time>
      </trkpt>
      <trkpt lat="39.2253400" lon="-3.7747600">
        <ele>676.7</ele>
        <time>2019-08-12T07:18:13Z</time>
      </trkpt>
      <trkpt lat="39.2253670" lon="-3.7747800">
        <ele>676.7</ele>
        <time>2019-08-12T07:18:14Z</time>
      </trkpt>
      <trkpt lat="39.2253920" lon="-3.7747930">
        <ele>676.7</ele>
        <time>2019-08-12T07:18:15Z</time>
      </trkpt>
      <trkpt lat="39.2254110" lon="-3.7748000">
        <ele>676.7</ele>
        <time>2019-08-12T07:18:16Z</time>
      </trkpt>
      <trkpt lat="39.2254490" lon="-3.7748230">
        <ele>676.8</ele>
        <time>2019-08-12T07:18:17Z</time>
      </trkpt>
      <trkpt lat="39.2254770" lon="-3.7748440">
        <ele>676.8</ele>
        <time>2019-08-12T07:18:18Z</time>
      </trkpt>
      <trkpt lat="39.2255040" lon="-3.7748660">
        <ele>676.8</ele>
        <time>2019-08-12T07:18:30Z</time>
      </trkpt>
      <trkpt lat="39.2255310" lon="-3.7748880">
        <ele>676.8</ele>
        <time>2019-08-12T07:18:31Z</time>
      </trkpt>
      <trkpt lat="39.2255770" lon="-3.7749170">
        <ele>676.9</ele>
        <time>2019-08-12T07:18:32Z</time>
      </trkpt>
      <trkpt lat="39.2256240" lon="-3.7749370">
        <ele>676.9</ele>
        <time>2019-08-12T07:18:33Z</time>
      </trkpt>
      <trkpt lat="39.2256700" lon="-3.7749510">
        <ele>677.0</ele>
        <time>2019-08-12T07:18:34Z</time>
      </trkpt>
      <trkpt lat="39.2257150" lon="-3.7749620">
        <ele>677.0</ele>
        <time>2019-08-12T07:18:35Z</time>
      </trkpt>
      <trkpt lat="39.2257850" lon="-3.7749840">
        <ele>677.1</ele>
        <time>2019-08-12T07:18:36Z</time>
      </trkpt>
      <trkpt lat="39.2258130" lon="-3.7749930">
        <ele>677.1</ele>
        <time>2019-08-12T07:18:37Z</time>
      </trkpt>
      <trkpt lat="39.2258400" lon="-3.7750020">
        <ele>677.1</ele>
        <time>2019-08-12T07:18:38Z</time>
      </trkpt>
      <trkpt lat="39.2258790" lon="-3.7750170">
        <ele>677.2</ele>
        <time>2019-08-12T07:18:39Z</time>
      </trkpt>
      <trkpt lat="39.2259180" lon="-3.7750310">
        <ele>677.2</ele>
        <time>2019-08-12T07:18:40Z</time>
      </trkpt>
      <trkpt lat="39.2259560" lon="-3.7750450">
        <ele>677.3</ele>
        <time>2019-08-12T07:18:41Z</time>
      </trkpt>
      <trkpt lat="39.2260130" lon="-3.7750640">
        <ele>677.3</ele>
        <time>2019-08-12T07:18:42Z</time>
      </trkpt>
      <trkpt lat="39.2260320" lon="-3.7750700">
        <ele>677.4</ele>
        <time>2019-08-12T07:18:43Z</time>
      </trkpt>
      <trkpt lat="39.2260710" lon="-3.7750810">
        <ele>677.4</ele>
        <time>2019-08-12T07:18:44Z</time>
      </trkpt>
      <trkpt lat="39.2261090" lon="-3.7750890">
        <ele>677.5</ele>
        <time>2019-08-12T07:18:45Z</time>
      </trkpt>
      <trkpt lat="39.2261490" lon="-3.7750960">
        <ele>677.5</ele>
        <time>2019-08-12T07:18:46Z</time>
      </trkpt>
      <trkpt lat="39.2261880" lon="-3.7751020">
        <ele>677.6</ele>
        <time>2019-08-12T07:18:47Z</time>
      </trkpt>
      <trkpt lat="39.2262270" lon="-3.7751080">
        <ele>677.6</ele>
        <time>2019-08-12T07:18:48Z</time>
      </trkpt>
      <trkpt lat="39.2262660" lon="-3.7751140">
        <ele>677.7</ele>
        <time>2019-08-12T07:18:49Z</time>
      </trkpt>
      <trkpt lat="39.2263040" lon="-3.7751200">
        <ele>677.7</ele>
        <time>2019-08-12T07:18:50Z</time>
      </trkpt>
      <trkpt lat="39.2263410" lon="-3.7751270">
        <ele>677.8</ele>
        <time>2019-08-12T07:18:51Z</time>
      </trkpt>
      <trkpt lat="39.2263780" lon="-3.7751340">
        <ele>677.9</ele>
        <time>2019-08-12T07:18:52Z</time>
      </trkpt>
      <trkpt lat="39.2264150" lon="-3.7751410">
        <ele>677.9</ele>
        <time>2019-08-12T07:18:53Z</time>
      </trkpt>
      <trkpt lat="39.2264530" lon="-3.7751470">
        <ele>678.0</ele>
        <time>2019-08-12T07:18:54Z</time>
      </trkpt>
      <trkpt lat="39.2264920" lon="-3.7751530">
        <ele>678.0</ele>
        <time>2019-08-12T07:18:55Z</time>
      </trkpt>
      <trkpt lat="39.2265310" lon="-3.7751590">
        <ele>678.1</ele>
        <time>2019-08-12T07:18:56Z</time>
      </trkpt>
      <trkpt lat="39.2265710" lon="-3.7751640">
        <ele>678.2</ele>
        <time>2019-08-12T07:18:57Z</time>
      </trkpt>
      <trkpt lat="39.2266110" lon="-3.7751690">
        <ele>678.3</ele>
        <time>2019-08-12T07:18:58Z</time>
      </trkpt>
      <trkpt lat="39.2266510" lon="-3.7751740">
        <ele>678.4</ele>
        <time>2019-08-12T07:18:59Z</time>
      </trkpt>
      <trkpt lat="39.2266920" lon="-3.7751800">
        <ele>678.5</ele>
        <time>2019-08-12T07:19:00Z</time>
      </trkpt>
      <trkpt lat="39.2267330" lon="-3.7751870">
        <ele>678.6</ele>
        <time>2019-08-12T07:19:01Z</time>
      </trkpt>
      <trkpt lat="39.2267730" lon="-3.7751940">
        <ele>678.7</ele>
        <time>2019-08-12T07:19:02Z</time>
      </trkpt>
      <trkpt lat="39.2268130" lon="-3.7752020">
        <ele>678.7</ele>
        <time>2019-08-12T07:19:03Z</time>
      </trkpt>
      <trkpt lat="39.2268520" lon="-3.7752120">
        <ele>678.8</ele>
        <time>2019-08-12T07:19:04Z</time>
      </trkpt>
      <trkpt lat="39.2268910" lon="-3.7752220">
        <ele>678.9</ele>
        <time>2019-08-12T07:19:05Z</time>
      </trkpt>
      <trkpt lat="39.2269300" lon="-3.7752330">
        <ele>679.0</ele>
        <time>2019-08-12T07:19:06Z</time>
      </trkpt>
      <trkpt lat="39.2269930" lon="-3.7752510">
        <ele>679.2</ele>
        <time>2019-08-12T07:19:07Z</time>
      </trkpt>
      <trkpt lat="39.2270180" lon="-3.7752580">
        <ele>679.4</ele>
        <time>2019-08-12T07:19:08Z</time>
      </trkpt>
      <trkpt lat="39.2270430" lon="-3.7752650">
        <ele>679.5</ele>
        <time>2019-08-12T07:19:09Z</time>
      </trkpt>
      <trkpt lat="39.2270800" lon="-3.7752740">
        <ele>679.8</ele>
        <time>2019-08-12T07:19:10Z</time>
      </trkpt>
      <trkpt lat="39.2271170" lon="-3.7752810">
        <ele>680.1</ele>
        <time>2019-08-12T07:19:11Z</time>
      </trkpt>
      <trkpt lat="39.2271770" lon="-3.7752880">
        <ele>680.5</ele>
        <time>2019-08-12T07:19:12Z</time>
      </trkpt>
      <trkpt lat="39.2272020" lon="-3.7752900">
        <ele>680.8</ele>
        <time>2019-08-12T07:19:13Z</time>
      </trkpt>
      <trkpt lat="39.2272260" lon="-3.7752910">
        <ele>681.1</ele>
        <time>2019-08-12T07:19:14Z</time>
      </trkpt>
      <trkpt lat="39.2272620" lon="-3.7752910">
        <ele>681.3</ele>
        <time>2019-08-12T07:19:15Z</time>
      </trkpt>
      <trkpt lat="39.2272970" lon="-3.7752890">
        <ele>681.4</ele>
        <time>2019-08-12T07:19:16Z</time>
      </trkpt>
      <trkpt lat="39.2273320" lon="-3.7752860">
        <ele>681.6</ele>
        <time>2019-08-12T07:19:17Z</time>
      </trkpt>
      <trkpt lat="39.2273670" lon="-3.7752810">
        <ele>681.7</ele>
        <time>2019-08-12T07:19:18Z</time>
      </trkpt>
      <trkpt lat="39.2274020" lon="-3.7752760">
        <ele>681.9</ele>
        <time>2019-08-12T07:19:19Z</time>
      </trkpt>
      <trkpt lat="39.2274360" lon="-3.7752700">
        <ele>682.0</ele>
        <time>2019-08-12T07:19:20Z</time>
      </trkpt>
      <trkpt lat="39.2274700" lon="-3.7752640">
        <ele>682.2</ele>
        <time>2019-08-12T07:19:21Z</time>
      </trkpt>
      <trkpt lat="39.2275030" lon="-3.7752580">
        <ele>682.3</ele>
        <time>2019-08-12T07:19:22Z</time>
      </trkpt>
      <trkpt lat="39.2275370" lon="-3.7752510">
        <ele>682.5</ele>
        <time>2019-08-12T07:19:23Z</time>
      </trkpt>
      <trkpt lat="39.2275710" lon="-3.7752450">
        <ele>682.6</ele>
        <time>2019-08-12T07:19:24Z</time>
      </trkpt>
      <trkpt lat="39.2276070" lon="-3.7752390">
        <ele>682.9</ele>
        <time>2019-08-12T07:19:25Z</time>
      </trkpt>
      <trkpt lat="39.2276440" lon="-3.7752340">
        <ele>683.1</ele>
        <time>2019-08-12T07:19:26Z</time>
      </trkpt>
      <trkpt lat="39.2276830" lon="-3.7752290">
        <ele>683.4</ele>
        <time>2019-08-12T07:19:27Z</time>
      </trkpt>
      <trkpt lat="39.2277240" lon="-3.7752250">
        <ele>683.7</ele>
        <time>2019-08-12T07:19:28Z</time>
      </trkpt>
      <trkpt lat="39.2277640" lon="-3.7752200">
        <ele>683.9</ele>
        <time>2019-08-12T07:19:29Z</time>
      </trkpt>
      <trkpt lat="39.2278040" lon="-3.7752150">
        <ele>684.2</ele>
        <time>2019-08-12T07:19:30Z</time>
      </trkpt>
      <trkpt lat="39.2278430" lon="-3.7752090">
        <ele>684.3</ele>
        <time>2019-08-12T07:19:31Z</time>
      </trkpt>
      <trkpt lat="39.2278790" lon="-3.7752010">
        <ele>684.4</ele>
        <time>2019-08-12T07:19:32Z</time>
      </trkpt>
      <trkpt lat="39.2279130" lon="-3.7751930">
        <ele>684.5</ele>
        <time>2019-08-12T07:19:33Z</time>
      </trkpt>
      <trkpt lat="39.2279470" lon="-3.7751850">
        <ele>684.6</ele>
        <time>2019-08-12T07:19:34Z</time>
      </trkpt>
      <trkpt lat="39.2279820" lon="-3.7751780">
        <ele>684.7</ele>
        <time>2019-08-12T07:19:35Z</time>
      </trkpt>
      <trkpt lat="39.2280190" lon="-3.7751730">
        <ele>684.8</ele>
        <time>2019-08-12T07:19:36Z</time>
      </trkpt>
      <trkpt lat="39.2280580" lon="-3.7751700">
        <ele>684.9</ele>
        <time>2019-08-12T07:19:37Z</time>
      </trkpt>
      <trkpt lat="39.2281000" lon="-3.7751700">
        <ele>685.0</ele>
        <time>2019-08-12T07:19:38Z</time>
      </trkpt>
      <trkpt lat="39.2281440" lon="-3.7751700">
        <ele>685.1</ele>
        <time>2019-08-12T07:19:39Z</time>
      </trkpt>
      <trkpt lat="39.2281900" lon="-3.7751700">
        <ele>685.3</ele>
        <time>2019-08-12T07:19:40Z</time>
      </trkpt>
      <trkpt lat="39.2282360" lon="-3.7751680">
        <ele>685.4</ele>
        <time>2019-08-12T07:19:41Z</time>
      </trkpt>
      <trkpt lat="39.2282830" lon="-3.7751650">
        <ele>685.5</ele>
        <time>2019-08-12T07:19:42Z</time>
      </trkpt>
      <trkpt lat="39.2283290" lon="-3.7751590">
        <ele>685.6</ele>
        <time>2019-08-12T07:19:43Z</time>
      </trkpt>
      <trkpt lat="39.2283740" lon="-3.7751510">
        <ele>685.8</ele>
        <time>2019-08-12T07:19:44Z</time>
      </trkpt>
      <trkpt lat="39.2284190" lon="-3.7751390">
        <ele>685.9</ele>
        <time>2019-08-12T07:19:45Z</time>
      </trkpt>
      <trkpt lat="39.2284610" lon="-3.7751250">
        <ele>686.0</ele>
        <time>2019-08-12T07:19:46Z</time>
      </trkpt>
      <trkpt lat="39.2285000" lon="-3.7751090">
        <ele>686.2</ele>
        <time>2019-08-12T07:19:47Z</time>
      </trkpt>
      <trkpt lat="39.2285360" lon="-3.7750920">
        <ele>686.3</ele>
        <time>2019-08-12T07:19:48Z</time>
      </trkpt>
      <trkpt lat="39.2285680" lon="-3.7750760">
        <ele>686.3</ele>
        <time>2019-08-12T07:19:49Z</time>
      </trkpt>
      <trkpt lat="39.2285950" lon="-3.7750630">
        <ele>686.4</ele>
        <time>2019-08-12T07:24:53Z</time>
      </trkpt>
      <trkpt lat="39.2286160" lon="-3.7750570">
        <ele>686.5</ele>
        <time>2019-08-12T07:24:54Z</time>
      </trkpt>
      <trkpt lat="39.2286350" lon="-3.7750480">
        <ele>686.5</ele>
        <time>2019-08-12T07:24:55Z</time>
      </trkpt>
      <trkpt lat="39.2286510" lon="-3.7750360">
        <ele>686.7</ele>
        <time>2019-08-12T07:24:56Z</time>
      </trkpt>
      <trkpt lat="39.2286660" lon="-3.7750230">
        <ele>686.7</ele>
        <time>2019-08-12T07:24:57Z</time>
      </trkpt>
      <trkpt lat="39.2286850" lon="-3.7750120">
        <ele>686.7</ele>
        <time>2019-08-12T07:24:58Z</time>
      </trkpt>
      <trkpt lat="39.2287070" lon="-3.7750010">
        <ele>686.8</ele>
        <time>2019-08-12T07:24:59Z</time>
      </trkpt>
      <trkpt lat="39.2287300" lon="-3.7749890">
        <ele>686.8</ele>
        <time>2019-08-12T07:25:00Z</time>
      </trkpt>
      <trkpt lat="39.2287520" lon="-3.7749740">
        <ele>686.9</ele>
        <time>2019-08-12T07:25:01Z</time>
      </trkpt>
      <trkpt lat="39.2287730" lon="-3.7749550">
        <ele>687.0</ele>
        <time>2019-08-12T07:25:02Z</time>
      </trkpt>
      <trkpt lat="39.2287920" lon="-3.7749330">
        <ele>687.0</ele>
        <time>2019-08-12T07:25:03Z</time>
      </trkpt>
      <trkpt lat="39.2288110" lon="-3.7749110">
        <ele>687.1</ele>
        <time>2019-08-12T07:25:04Z</time>
      </trkpt>
      <trkpt lat="39.2288290" lon="-3.7748890">
        <ele>687.2</ele>
        <time>2019-08-12T07:25:05Z</time>
      </trkpt>
      <trkpt lat="39.2288480" lon="-3.7748700">
        <ele>687.3</ele>
        <time>2019-08-12T07:25:06Z</time>
      </trkpt>
      <trkpt lat="39.2288690" lon="-3.7748550">
        <ele>687.4</ele>
        <time>2019-08-12T07:25:07Z</time>
      </trkpt>
      <trkpt lat="39.2288900" lon="-3.7748420">
        <ele>687.4</ele>
        <time>2019-08-12T07:25:08Z</time>
      </trkpt>
      <trkpt lat="39.2289140" lon="-3.7748300">
        <ele>687.5</ele>
        <time>2019-08-12T07:25:09Z</time>
      </trkpt>
      <trkpt lat="39.2289390" lon="-3.7748170">
        <ele>687.6</ele>
        <time>2019-08-12T07:25:10Z</time>
      </trkpt>
      <trkpt lat="39.2289660" lon="-3.7748010">
        <ele>687.7</ele>
        <time>2019-08-12T07:25:11Z</time>
      </trkpt>
      <trkpt lat="39.2289950" lon="-3.7747830">
        <ele>687.9</ele>
        <time>2019-08-12T07:25:12Z</time>
      </trkpt>
      <trkpt lat="39.2290240" lon="-3.7747660">
        <ele>687.9</ele>
        <time>2019-08-12T07:25:13Z</time>
      </trkpt>
      <trkpt lat="39.2290520" lon="-3.7747500">
        <ele>687.9</ele>
        <time>2019-08-12T07:25:14Z</time>
      </trkpt>
      <trkpt lat="39.2290790" lon="-3.7747370">
        <ele>688.0</ele>
        <time>2019-08-12T07:25:15Z</time>
      </trkpt>
      <trkpt lat="39.2291050" lon="-3.7747280">
        <ele>688.0</ele>
        <time>2019-08-12T07:25:16Z</time>
      </trkpt>
      <trkpt lat="39.2291290" lon="-3.7747220">
        <ele>688.0</ele>
        <time>2019-08-12T07:25:17Z</time>
      </trkpt>
      <trkpt lat="39.2291540" lon="-3.7747170">
        <ele>688.1</ele>
        <time>2019-08-12T07:25:18Z</time>
      </trkpt>
      <trkpt lat="39.2291790" lon="-3.7747130">
        <ele>688.1</ele>
        <time>2019-08-12T07:25:19Z</time>
      </trkpt>
      <trkpt lat="39.2292060" lon="-3.7747080">
        <ele>688.1</ele>
        <time>2019-08-12T07:25:20Z</time>
      </trkpt>
      <trkpt lat="39.2292350" lon="-3.7747020">
        <ele>688.2</ele>
        <time>2019-08-12T07:25:21Z</time>
      </trkpt>
      <trkpt lat="39.2292650" lon="-3.7746960">
        <ele>688.2</ele>
        <time>2019-08-12T07:25:22Z</time>
      </trkpt>
      <trkpt lat="39.2292970" lon="-3.7746880">
        <ele>688.2</ele>
        <time>2019-08-12T07:25:23Z</time>
      </trkpt>
      <trkpt lat="39.2293290" lon="-3.7746790">
        <ele>688.3</ele>
        <time>2019-08-12T07:25:24Z</time>
      </trkpt>
      <trkpt lat="39.2293630" lon="-3.7746700">
        <ele>688.3</ele>
        <time>2019-08-12T07:25:25Z</time>
      </trkpt>
      <trkpt lat="39.2293960" lon="-3.7746610">
        <ele>688.4</ele>
        <time>2019-08-12T07:25:26Z</time>
      </trkpt>
      <trkpt lat="39.2294300" lon="-3.7746510">
        <ele>688.5</ele>
        <time>2019-08-12T07:25:27Z</time>
      </trkpt>
      <trkpt lat="39.2294640" lon="-3.7746400">
        <ele>688.6</ele>
        <time>2019-08-12T07:25:28Z</time>
      </trkpt>
      <trkpt lat="39.2294980" lon="-3.7746290">
        <ele>688.7</ele>
        <time>2019-08-12T07:25:29Z</time>
      </trkpt>
      <trkpt lat="39.2295320" lon="-3.7746180">
        <ele>688.8</ele>
        <time>2019-08-12T07:25:30Z</time>
      </trkpt>
      <trkpt lat="39.2295660" lon="-3.7746050">
        <ele>688.8</ele>
        <time>2019-08-12T07:25:31Z</time>
      </trkpt>
      <trkpt lat="39.2296220" lon="-3.7745840">
        <ele>688.9</ele>
        <time>2019-08-12T07:25:32Z</time>
      </trkpt>
      <trkpt lat="39.2296440" lon="-3.7745740">
        <ele>689.0</ele>
        <time>2019-08-12T07:25:33Z</time>
      </trkpt>
      <trkpt lat="39.2296670" lon="-3.7745650">
        <ele>689.0</ele>
        <time>2019-08-12T07:25:34Z</time>
      </trkpt>
      <trkpt lat="39.2297020" lon="-3.7745510">
        <ele>689.1</ele>
        <time>2019-08-12T07:25:35Z</time>
      </trkpt>
      <trkpt lat="39.2297360" lon="-3.7745390">
        <ele>689.1</ele>
        <time>2019-08-12T07:25:36Z</time>
      </trkpt>
      <trkpt lat="39.2297690" lon="-3.7745280">
        <ele>689.2</ele>
        <time>2019-08-12T07:25:37Z</time>
      </trkpt>
      <trkpt lat="39.2298030" lon="-3.7745200">
        <ele>689.4</ele>
        <time>2019-08-12T07:25:38Z</time>
      </trkpt>
      <trkpt lat="39.2298350" lon="-3.7745140">
        <ele>689.5</ele>
        <time>2019-08-12T07:25:39Z</time>
      </trkpt>
      <trkpt lat="39.2298680" lon="-3.7745090">
        <ele>689.6</ele>
        <time>2019-08-12T07:25:40Z</time>
      </trkpt>
      <trkpt lat="39.2299000" lon="-3.7745050">
        <ele>689.6</ele>
        <time>2019-08-12T07:25:41Z</time>
      </trkpt>
      <trkpt lat="39.2299330" lon="-3.7744990">
        <ele>689.7</ele>
        <time>2019-08-12T07:25:42Z</time>
      </trkpt>
      <trkpt lat="39.2299650" lon="-3.7744920">
        <ele>689.8</ele>
        <time>2019-08-12T07:25:43Z</time>
      </trkpt>
      <trkpt lat="39.2299980" lon="-3.7744850">
        <ele>689.9</ele>
        <time>2019-08-12T07:25:44Z</time>
      </trkpt>
      <trkpt lat="39.2300300" lon="-3.7744770">
        <ele>690.0</ele>
        <time>2019-08-12T07:25:45Z</time>
      </trkpt>
      <trkpt lat="39.2300630" lon="-3.7744710">
        <ele>690.2</ele>
        <time>2019-08-12T07:25:46Z</time>
      </trkpt>
      <trkpt lat="39.2300950" lon="-3.7744670">
        <ele>690.3</ele>
        <time>2019-08-12T07:25:47Z</time>
      </trkpt>
      <trkpt lat="39.2301280" lon="-3.7744650">
        <ele>690.5</ele>
        <time>2019-08-12T07:25:48Z</time>
      </trkpt>
      <trkpt lat="39.2301600" lon="-3.7744620">
        <ele>690.6</ele>
        <time>2019-08-12T07:25:49Z</time>
      </trkpt>
      <trkpt lat="39.2301940" lon="-3.7744510">
        <ele>690.8</ele>
        <time>2019-08-12T07:25:50Z</time>
      </trkpt>
      <trkpt lat="39.2302300" lon="-3.7744310">
        <ele>691.0</ele>
        <time>2019-08-12T07:25:51Z</time>
      </trkpt>
      <trkpt lat="39.2302660" lon="-3.7744080">
        <ele>691.1</ele>
        <time>2019-08-12T07:25:52Z</time>
      </trkpt>
      <trkpt lat="39.2302990" lon="-3.7743890">
        <ele>691.3</ele>
        <time>2019-08-12T07:25:53Z</time>
      </trkpt>
      <trkpt lat="39.2303300" lon="-3.7743750">
        <ele>691.5</ele>
        <time>2019-08-12T07:25:54Z</time>
      </trkpt>
      <trkpt lat="39.2303590" lon="-3.7743640">
        <ele>691.6</ele>
        <time>2019-08-12T07:25:55Z</time>
      </trkpt>
      <trkpt lat="39.2303880" lon="-3.7743540">
        <ele>691.8</ele>
        <time>2019-08-12T07:25:56Z</time>
      </trkpt>
      <trkpt lat="39.2304170" lon="-3.7743440">
        <ele>691.9</ele>
        <time>2019-08-12T07:25:57Z</time>
      </trkpt>
      <trkpt lat="39.2304470" lon="-3.7743350">
        <ele>692.1</ele>
        <time>2019-08-12T07:25:58Z</time>
      </trkpt>
      <trkpt lat="39.2304770" lon="-3.7743260">
        <ele>692.2</ele>
        <time>2019-08-12T07:25:59Z</time>
      </trkpt>
      <trkpt lat="39.2305070" lon="-3.7743160">
        <ele>692.4</ele>
        <time>2019-08-12T07:26:00Z</time>
      </trkpt>
      <trkpt lat="39.2305380" lon="-3.7743070">
        <ele>692.6</ele>
        <time>2019-08-12T07:26:01Z</time>
      </trkpt>
      <trkpt lat="39.2305690" lon="-3.7742980">
        <ele>692.8</ele>
        <time>2019-08-12T07:26:02Z</time>
      </trkpt>
      <trkpt lat="39.2306010" lon="-3.7742900">
        <ele>693.1</ele>
        <time>2019-08-12T07:26:03Z</time>
      </trkpt>
      <trkpt lat="39.2306320" lon="-3.7742810">
        <ele>693.3</ele>
        <time>2019-08-12T07:26:04Z</time>
      </trkpt>
      <trkpt lat="39.2306640" lon="-3.7742740">
        <ele>693.5</ele>
        <time>2019-08-12T07:26:05Z</time>
      </trkpt>
      <trkpt lat="39.2307130" lon="-3.7742630">
        <ele>693.8</ele>
        <time>2019-08-12T07:26:06Z</time>
      </trkpt>
      <trkpt lat="39.2307290" lon="-3.7742590">
        <ele>693.8</ele>
        <time>2019-08-12T07:26:07Z</time>
      </trkpt>
      <trkpt lat="39.2307610" lon="-3.7742530">
        <ele>694.0</ele>
        <time>2019-08-12T07:26:08Z</time>
      </trkpt>
      <trkpt lat="39.2307940" lon="-3.7742480">
        <ele>694.2</ele>
        <time>2019-08-12T07:26:09Z</time>
      </trkpt>
      <trkpt lat="39.2308270" lon="-3.7742430">
        <ele>694.3</ele>
        <time>2019-08-12T07:26:10Z</time>
      </trkpt>
      <trkpt lat="39.2308600" lon="-3.7742390">
        <ele>694.5</ele>
        <time>2019-08-12T07:26:11Z</time>
      </trkpt>
      <trkpt lat="39.2308930" lon="-3.7742370">
        <ele>694.7</ele>
        <time>2019-08-12T07:26:12Z</time>
      </trkpt>
      <trkpt lat="39.2309260" lon="-3.7742350">
        <ele>694.8</ele>
        <time>2019-08-12T07:26:13Z</time>
      </trkpt>
      <trkpt lat="39.2309590" lon="-3.7742340">
        <ele>695.0</ele>
        <time>2019-08-12T07:26:14Z</time>
      </trkpt>
      <trkpt lat="39.2309920" lon="-3.7742330">
        <ele>695.2</ele>
        <time>2019-08-12T07:26:15Z</time>
      </trkpt>
      <trkpt lat="39.2310420" lon="-3.7742320">
        <ele>695.4</ele>
        <time>2019-08-12T07:26:16Z</time>
      </trkpt>
      <trkpt lat="39.2310590" lon="-3.7742310">
        <ele>695.5</ele>
        <time>2019-08-12T07:26:17Z</time>
      </trkpt>
      <trkpt lat="39.2310930" lon="-3.7742270">
        <ele>695.7</ele>
        <time>2019-08-12T07:26:18Z</time>
      </trkpt>
      <trkpt lat="39.2311270" lon="-3.7742180">
        <ele>695.8</ele>
        <time>2019-08-12T07:26:19Z</time>
      </trkpt>
      <trkpt lat="39.2311620" lon="-3.7742040">
        <ele>696.0</ele>
        <time>2019-08-12T07:26:20Z</time>
      </trkpt>
      <trkpt lat="39.2311980" lon="-3.7741880">
        <ele>696.1</ele>
        <time>2019-08-12T07:26:21Z</time>
      </trkpt>
      <trkpt lat="39.2312330" lon="-3.7741740">
        <ele>696.3</ele>
        <time>2019-08-12T07:26:22Z</time>
      </trkpt>
      <trkpt lat="39.2312680" lon="-3.7741630">
        <ele>696.4</ele>
        <time>2019-08-12T07:26:23Z</time>
      </trkpt>
      <trkpt lat="39.2313040" lon="-3.7741510">
        <ele>696.6</ele>
        <time>2019-08-12T07:26:24Z</time>
      </trkpt>
      <trkpt lat="39.2313430" lon="-3.7741360">
        <ele>696.7</ele>
        <time>2019-08-12T07:26:25Z</time>
      </trkpt>
      <trkpt lat="39.2313840" lon="-3.7741180">
        <ele>696.9</ele>
        <time>2019-08-12T07:26:26Z</time>
      </trkpt>
      <trkpt lat="39.2314260" lon="-3.7740970">
        <ele>697.1</ele>
        <time>2019-08-12T07:26:27Z</time>
      </trkpt>
      <trkpt lat="39.2314660" lon="-3.7740770">
        <ele>697.4</ele>
        <time>2019-08-12T07:26:28Z</time>
      </trkpt>
      <trkpt lat="39.2315050" lon="-3.7740570">
        <ele>697.3</ele>
        <time>2019-08-12T07:26:29Z</time>
      </trkpt>
      <trkpt lat="39.2315410" lon="-3.7740400">
        <ele>697.3</ele>
        <time>2019-08-12T07:26:30Z</time>
      </trkpt>
      <trkpt lat="39.2315740" lon="-3.7740260">
        <ele>697.2</ele>
        <time>2019-08-12T07:26:31Z</time>
      </trkpt>
      <trkpt lat="39.2316060" lon="-3.7740140">
        <ele>697.2</ele>
        <time>2019-08-12T07:26:32Z</time>
      </trkpt>
      <trkpt lat="39.2316540" lon="-3.7740020">
        <ele>697.1</ele>
        <time>2019-08-12T07:26:33Z</time>
      </trkpt>
      <trkpt lat="39.2316700" lon="-3.7739990">
        <ele>697.1</ele>
        <time>2019-08-12T07:26:34Z</time>
      </trkpt>
      <trkpt lat="39.2317020" lon="-3.7739920">
        <ele>697.0</ele>
        <time>2019-08-12T07:26:35Z</time>
      </trkpt>
      <trkpt lat="39.2317350" lon="-3.7739880">
        <ele>697.0</ele>
        <time>2019-08-12T07:26:36Z</time>
      </trkpt>
      <trkpt lat="39.2317680" lon="-3.7739850">
        <ele>696.9</ele>
        <time>2019-08-12T07:26:37Z</time>
      </trkpt>
      <trkpt lat="39.2318020" lon="-3.7739820">
        <ele>696.9</ele>
        <time>2019-08-12T07:26:38Z</time>
      </trkpt>
      <trkpt lat="39.2318370" lon="-3.7739780">
        <ele>696.9</ele>
        <time>2019-08-12T07:26:39Z</time>
      </trkpt>
      <trkpt lat="39.2318710" lon="-3.7739730">
        <ele>696.8</ele>
        <time>2019-08-12T07:26:40Z</time>
      </trkpt>
      <trkpt lat="39.2319060" lon="-3.7739670">
        <ele>696.8</ele>
        <time>2019-08-12T07:26:41Z</time>
      </trkpt>
      <trkpt lat="39.2319410" lon="-3.7739590">
        <ele>696.7</ele>
        <time>2019-08-12T07:26:42Z</time>
      </trkpt>
      <trkpt lat="39.2319770" lon="-3.7739480">
        <ele>696.7</ele>
        <time>2019-08-12T07:26:43Z</time>
      </trkpt>
      <trkpt lat="39.2320120" lon="-3.7739350">
        <ele>696.7</ele>
        <time>2019-08-12T07:26:44Z</time>
      </trkpt>
      <trkpt lat="39.2320470" lon="-3.7739200">
        <ele>696.6</ele>
        <time>2019-08-12T07:26:45Z</time>
      </trkpt>
      <trkpt lat="39.2320820" lon="-3.7739060">
        <ele>696.6</ele>
        <time>2019-08-12T07:26:46Z</time>
      </trkpt>
      <trkpt lat="39.2321170" lon="-3.7738910">
        <ele>696.6</ele>
        <time>2019-08-12T07:26:47Z</time>
      </trkpt>
      <trkpt lat="39.2321510" lon="-3.7738770">
        <ele>696.6</ele>
        <time>2019-08-12T07:26:48Z</time>
      </trkpt>
      <trkpt lat="39.2321840" lon="-3.7738640">
        <ele>696.6</ele>
        <time>2019-08-12T07:26:49Z</time>
      </trkpt>
      <trkpt lat="39.2322170" lon="-3.7738520">
        <ele>696.6</ele>
        <time>2019-08-12T07:26:50Z</time>
      </trkpt>
      <trkpt lat="39.2322490" lon="-3.7738390">
        <ele>696.6</ele>
        <time>2019-08-12T07:26:51Z</time>
      </trkpt>
      <trkpt lat="39.2322790" lon="-3.7738260">
        <ele>696.6</ele>
        <time>2019-08-12T07:26:52Z</time>
      </trkpt>
      <trkpt lat="39.2323100" lon="-3.7738140">
        <ele>696.7</ele>
        <time>2019-08-12T07:26:53Z</time>
      </trkpt>
      <trkpt lat="39.2323400" lon="-3.7738010">
        <ele>696.7</ele>
        <time>2019-08-12T07:26:54Z</time>
      </trkpt>
      <trkpt lat="39.2323710" lon="-3.7737870">
        <ele>696.7</ele>
        <time>2019-08-12T07:26:55Z</time>
      </trkpt>
      <trkpt lat="39.2324030" lon="-3.7737740">
        <ele>696.7</ele>
        <time>2019-08-12T07:26:56Z</time>
      </trkpt>
      <trkpt lat="39.2324370" lon="-3.7737600">
        <ele>696.8</ele>
        <time>2019-08-12T07:26:57Z</time>
      </trkpt>
      <trkpt lat="39.2324720" lon="-3.7737460">
        <ele>696.8</ele>
        <time>2019-08-12T07:26:58Z</time>
      </trkpt>
      <trkpt lat="39.2325090" lon="-3.7737320">
        <ele>696.8</ele>
        <time>2019-08-12T07:26:59Z</time>
      </trkpt>
      <trkpt lat="39.2325450" lon="-3.7737180">
        <ele>696.7</ele>
        <time>2019-08-12T07:27:00Z</time>
      </trkpt>
      <trkpt lat="39.2325820" lon="-3.7737050">
        <ele>696.7</ele>
        <time>2019-08-12T07:27:01Z</time>
      </trkpt>
      <trkpt lat="39.2326180" lon="-3.7736920">
        <ele>696.7</ele>
        <time>2019-08-12T07:27:02Z</time>
      </trkpt>
      <trkpt lat="39.2326540" lon="-3.7736810">
        <ele>696.7</ele>
        <time>2019-08-12T07:27:03Z</time>
      </trkpt>
      <trkpt lat="39.2326900" lon="-3.7736700">
        <ele>696.7</ele>
        <time>2019-08-12T07:27:04Z</time>
      </trkpt>
      <trkpt lat="39.2327250" lon="-3.7736590">
        <ele>696.6</ele>
        <time>2019-08-12T07:27:05Z</time>
      </trkpt>
      <trkpt lat="39.2327600" lon="-3.7736490">
        <ele>696.6</ele>
        <time>2019-08-12T07:27:06Z</time>
      </trkpt>
      <trkpt lat="39.2327960" lon="-3.7736390">
        <ele>696.6</ele>
        <time>2019-08-12T07:27:07Z</time>
      </trkpt>
      <trkpt lat="39.2328310" lon="-3.7736300">
        <ele>696.7</ele>
        <time>2019-08-12T07:27:08Z</time>
      </trkpt>
      <trkpt lat="39.2328660" lon="-3.7736200">
        <ele>696.7</ele>
        <time>2019-08-12T07:27:09Z</time>
      </trkpt>
      <trkpt lat="39.2329020" lon="-3.7736110">
        <ele>696.8</ele>
        <time>2019-08-12T07:27:10Z</time>
      </trkpt>
      <trkpt lat="39.2329370" lon="-3.7736020">
        <ele>696.8</ele>
        <time>2019-08-12T07:27:11Z</time>
      </trkpt>
      <trkpt lat="39.2329730" lon="-3.7735930">
        <ele>696.8</ele>
        <time>2019-08-12T07:27:12Z</time>
      </trkpt>
      <trkpt lat="39.2330100" lon="-3.7735840">
        <ele>696.9</ele>
        <time>2019-08-12T07:27:13Z</time>
      </trkpt>
      <trkpt lat="39.2330460" lon="-3.7735750">
        <ele>696.9</ele>
        <time>2019-08-12T07:27:14Z</time>
      </trkpt>
      <trkpt lat="39.2330830" lon="-3.7735660">
        <ele>696.9</ele>
        <time>2019-08-12T07:27:15Z</time>
      </trkpt>
      <trkpt lat="39.2331200" lon="-3.7735560">
        <ele>697.0</ele>
        <time>2019-08-12T07:27:16Z</time>
      </trkpt>
      <trkpt lat="39.2331570" lon="-3.7735470">
        <ele>697.0</ele>
        <time>2019-08-12T07:27:17Z</time>
      </trkpt>
      <trkpt lat="39.2331940" lon="-3.7735360">
        <ele>697.0</ele>
        <time>2019-08-12T07:27:18Z</time>
      </trkpt>
      <trkpt lat="39.2332310" lon="-3.7735260">
        <ele>696.9</ele>
        <time>2019-08-12T07:27:19Z</time>
      </trkpt>
      <trkpt lat="39.2332680" lon="-3.7735150">
        <ele>696.9</ele>
        <time>2019-08-12T07:27:20Z</time>
      </trkpt>
      <trkpt lat="39.2333060" lon="-3.7735040">
        <ele>696.9</ele>
        <time>2019-08-12T07:27:21Z</time>
      </trkpt>
      <trkpt lat="39.2333430" lon="-3.7734920">
        <ele>696.8</ele>
        <time>2019-08-12T07:27:22Z</time>
      </trkpt>
      <trkpt lat="39.2333800" lon="-3.7734800">
        <ele>696.7</ele>
        <time>2019-08-12T07:27:23Z</time>
      </trkpt>
      <trkpt lat="39.2334170" lon="-3.7734660">
        <ele>696.6</ele>
        <time>2019-08-12T07:27:24Z</time>
      </trkpt>
      <trkpt lat="39.2334540" lon="-3.7734520">
        <ele>696.5</ele>
        <time>2019-08-12T07:27:25Z</time>
      </trkpt>
      <trkpt lat="39.2334900" lon="-3.7734360">
        <ele>696.4</ele>
        <time>2019-08-12T07:27:26Z</time>
      </trkpt>
      <trkpt lat="39.2335260" lon="-3.7734190">
        <ele>696.4</ele>
        <time>2019-08-12T07:27:27Z</time>
      </trkpt>
      <trkpt lat="39.2335610" lon="-3.7734010">
        <ele>696.3</ele>
        <time>2019-08-12T07:27:28Z</time>
      </trkpt>
      <trkpt lat="39.2335950" lon="-3.7733820">
        <ele>696.2</ele>
        <time>2019-08-12T07:27:29Z</time>
      </trkpt>
      <trkpt lat="39.2336290" lon="-3.7733610">
        <ele>696.1</ele>
        <time>2019-08-12T07:27:30Z</time>
      </trkpt>
      <trkpt lat="39.2336630" lon="-3.7733400">
        <ele>696.0</ele>
        <time>2019-08-12T07:27:31Z</time>
      </trkpt>
      <trkpt lat="39.2336960" lon="-3.7733170">
        <ele>696.0</ele>
        <time>2019-08-12T07:27:32Z</time>
      </trkpt>
      <trkpt lat="39.2337300" lon="-3.7732940">
        <ele>696.1</ele>
        <time>2019-08-12T07:27:33Z</time>
      </trkpt>
      <trkpt lat="39.2337630" lon="-3.7732710">
        <ele>696.1</ele>
        <time>2019-08-12T07:27:34Z</time>
      </trkpt>
      <trkpt lat="39.2337970" lon="-3.7732470">
        <ele>696.1</ele>
        <time>2019-08-12T07:27:35Z</time>
      </trkpt>
      <trkpt lat="39.2338300" lon="-3.7732230">
        <ele>696.2</ele>
        <time>2019-08-12T07:27:36Z</time>
      </trkpt>
      <trkpt lat="39.2338650" lon="-3.7731990">
        <ele>696.2</ele>
        <time>2019-08-12T07:27:37Z</time>
      </trkpt>
      <trkpt lat="39.2339000" lon="-3.7731750">
        <ele>696.3</ele>
        <time>2019-08-12T07:27:38Z</time>
      </trkpt>
      <trkpt lat="39.2339360" lon="-3.7731510">
        <ele>696.3</ele>
        <time>2019-08-12T07:27:39Z</time>
      </trkpt>
      <trkpt lat="39.2339720" lon="-3.7731280">
        <ele>696.4</ele>
        <time>2019-08-12T07:27:40Z</time>
      </trkpt>
      <trkpt lat="39.2340090" lon="-3.7731040">
        <ele>696.5</ele>
        <time>2019-08-12T07:27:41Z</time>
      </trkpt>
      <trkpt lat="39.2340450" lon="-3.7730790">
        <ele>696.6</ele>
        <time>2019-08-12T07:27:42Z</time>
      </trkpt>
      <trkpt lat="39.2340810" lon="-3.7730520">
        <ele>696.6</ele>
        <time>2019-08-12T07:27:43Z</time>
      </trkpt>
      <trkpt lat="39.2341160" lon="-3.7730240">
        <ele>696.7</ele>
        <time>2019-08-12T07:27:44Z</time>
      </trkpt>
      <trkpt lat="39.2341500" lon="-3.7729940">
        <ele>696.8</ele>
        <time>2019-08-12T07:27:45Z</time>
      </trkpt>
      <trkpt lat="39.2341850" lon="-3.7729630">
        <ele>696.9</ele>
        <time>2019-08-12T07:27:46Z</time>
      </trkpt>
      <trkpt lat="39.2342190" lon="-3.7729330">
        <ele>696.9</ele>
        <time>2019-08-12T07:27:47Z</time>
      </trkpt>
      <trkpt lat="39.2342530" lon="-3.7729020">
        <ele>697.0</ele>
        <time>2019-08-12T07:27:48Z</time>
      </trkpt>
      <trkpt lat="39.2342880" lon="-3.7728720">
        <ele>697.1</ele>
        <time>2019-08-12T07:27:49Z</time>
      </trkpt>
      <trkpt lat="39.2343220" lon="-3.7728420">
        <ele>697.1</ele>
        <time>2019-08-12T07:27:50Z</time>
      </trkpt>
      <trkpt lat="39.2343570" lon="-3.7728130">
        <ele>697.2</ele>
        <time>2019-08-12T07:27:51Z</time>
      </trkpt>
      <trkpt lat="39.2343910" lon="-3.7727830">
        <ele>697.3</ele>
        <time>2019-08-12T07:27:52Z</time>
      </trkpt>
      <trkpt lat="39.2344250" lon="-3.7727540">
        <ele>697.3</ele>
        <time>2019-08-12T07:27:53Z</time>
      </trkpt>
      <trkpt lat="39.2344580" lon="-3.7727250">
        <ele>697.4</ele>
        <time>2019-08-12T07:27:54Z</time>
      </trkpt>
      <trkpt lat="39.2344910" lon="-3.7726960">
        <ele>697.5</ele>
        <time>2019-08-12T07:27:55Z</time>
      </trkpt>
      <trkpt lat="39.2345230" lon="-3.7726670">
        <ele>697.6</ele>
        <time>2019-08-12T07:27:56Z</time>
      </trkpt>
      <trkpt lat="39.2345550" lon="-3.7726370">
        <ele>697.6</ele>
        <time>2019-08-12T07:27:57Z</time>
      </trkpt>
      <trkpt lat="39.2345860" lon="-3.7726080">
        <ele>697.7</ele>
        <time>2019-08-12T07:27:58Z</time>
      </trkpt>
      <trkpt lat="39.2346160" lon="-3.7725790">
        <ele>697.8</ele>
        <time>2019-08-12T07:27:59Z</time>
      </trkpt>
      <trkpt lat="39.2346460" lon="-3.7725500">
        <ele>697.9</ele>
        <time>2019-08-12T07:28:00Z</time>
      </trkpt>
      <trkpt lat="39.2346760" lon="-3.7725200">
        <ele>698.0</ele>
        <time>2019-08-12T07:28:01Z</time>
      </trkpt>
      <trkpt lat="39.2347060" lon="-3.7724910">
        <ele>698.1</ele>
        <time>2019-08-12T07:28:02Z</time>
      </trkpt>
      <trkpt lat="39.2347360" lon="-3.7724630">
        <ele>698.1</ele>
        <time>2019-08-12T07:28:03Z</time>
      </trkpt>
      <trkpt lat="39.2347670" lon="-3.7724340">
        <ele>698.2</ele>
        <time>2019-08-12T07:28:04Z</time>
      </trkpt>
      <trkpt lat="39.2347980" lon="-3.7724060">
        <ele>698.3</ele>
        <time>2019-08-12T07:28:05Z</time>
      </trkpt>
      <trkpt lat="39.2348290" lon="-3.7723780">
        <ele>698.4</ele>
        <time>2019-08-12T07:28:06Z</time>
      </trkpt>
      <trkpt lat="39.2348610" lon="-3.7723500">
        <ele>698.5</ele>
        <time>2019-08-12T07:28:07Z</time>
      </trkpt>
      <trkpt lat="39.2348930" lon="-3.7723220">
        <ele>698.6</ele>
        <time>2019-08-12T07:28:08Z</time>
      </trkpt>
      <trkpt lat="39.2349240" lon="-3.7722940">
        <ele>698.6</ele>
        <time>2019-08-12T07:28:09Z</time>
      </trkpt>
      <trkpt lat="39.2349550" lon="-3.7722650">
        <ele>698.7</ele>
        <time>2019-08-12T07:28:10Z</time>
      </trkpt>
      <trkpt lat="39.2349860" lon="-3.7722340">
        <ele>698.7</ele>
        <time>2019-08-12T07:28:11Z</time>
      </trkpt>
      <trkpt lat="39.2350150" lon="-3.7722030">
        <ele>698.8</ele>
        <time>2019-08-12T07:28:12Z</time>
      </trkpt>
      <trkpt lat="39.2350430" lon="-3.7721700">
        <ele>698.8</ele>
        <time>2019-08-12T07:28:13Z</time>
      </trkpt>
      <trkpt lat="39.2350690" lon="-3.7721340">
        <ele>698.9</ele>
        <time>2019-08-12T07:28:14Z</time>
      </trkpt>
      <trkpt lat="39.2350930" lon="-3.7720970">
        <ele>699.0</ele>
        <time>2019-08-12T07:28:15Z</time>
      </trkpt>
      <trkpt lat="39.2351150" lon="-3.7720580">
        <ele>699.0</ele>
        <time>2019-08-12T07:28:16Z</time>
      </trkpt>
      <trkpt lat="39.2351370" lon="-3.7720170">
        <ele>699.1</ele>
        <time>2019-08-12T07:28:17Z</time>
      </trkpt>
      <trkpt lat="39.2351590" lon="-3.7719750">
        <ele>699.2</ele>
        <time>2019-08-12T07:28:18Z</time>
      </trkpt>
      <trkpt lat="39.2351820" lon="-3.7719340">
        <ele>699.2</ele>
        <time>2019-08-12T07:28:19Z</time>
      </trkpt>
      <trkpt lat="39.2352090" lon="-3.7718940">
        <ele>699.3</ele>
        <time>2019-08-12T07:28:20Z</time>
      </trkpt>
      <trkpt lat="39.2352400" lon="-3.7718550">
        <ele>699.3</ele>
        <time>2019-08-12T07:28:21Z</time>
      </trkpt>
      <trkpt lat="39.2352690" lon="-3.7718160">
        <ele>699.4</ele>
        <time>2019-08-12T07:28:22Z</time>
      </trkpt>
      <trkpt lat="39.2352910" lon="-3.7717750">
        <ele>699.5</ele>
        <time>2019-08-12T07:28:23Z</time>
      </trkpt>
      <trkpt lat="39.2353100" lon="-3.7717330">
        <ele>699.6</ele>
        <time>2019-08-12T07:28:24Z</time>
      </trkpt>
      <trkpt lat="39.2353310" lon="-3.7716920">
        <ele>699.8</ele>
        <time>2019-08-12T07:28:25Z</time>
      </trkpt>
      <trkpt lat="39.2353520" lon="-3.7716530">
        <ele>699.9</ele>
        <time>2019-08-12T07:28:26Z</time>
      </trkpt>
      <trkpt lat="39.2353750" lon="-3.7716150">
        <ele>699.9</ele>
        <time>2019-08-12T07:28:27Z</time>
      </trkpt>
      <trkpt lat="39.2353990" lon="-3.7715780">
        <ele>700.0</ele>
        <time>2019-08-12T07:28:28Z</time>
      </trkpt>
      <trkpt lat="39.2354240" lon="-3.7715430">
        <ele>700.1</ele>
        <time>2019-08-12T07:28:29Z</time>
      </trkpt>
      <trkpt lat="39.2354510" lon="-3.7715080">
        <ele>700.2</ele>
        <time>2019-08-12T07:28:30Z</time>
      </trkpt>
      <trkpt lat="39.2354770" lon="-3.7714750">
        <ele>700.3</ele>
        <time>2019-08-12T07:28:31Z</time>
      </trkpt>
      <trkpt lat="39.2355050" lon="-3.7714420">
        <ele>700.3</ele>
        <time>2019-08-12T07:28:32Z</time>
      </trkpt>
      <trkpt lat="39.2355330" lon="-3.7714110">
        <ele>700.4</ele>
        <time>2019-08-12T07:28:33Z</time>
      </trkpt>
      <trkpt lat="39.2355610" lon="-3.7713800">
        <ele>700.5</ele>
        <time>2019-08-12T07:28:34Z</time>
      </trkpt>
      <trkpt lat="39.2355890" lon="-3.7713500">
        <ele>700.7</ele>
        <time>2019-08-12T07:28:35Z</time>
      </trkpt>
      <trkpt lat="39.2356180" lon="-3.7713210">
        <ele>700.8</ele>
        <time>2019-08-12T07:28:36Z</time>
      </trkpt>
      <trkpt lat="39.2356460" lon="-3.7712920">
        <ele>700.9</ele>
        <time>2019-08-12T07:28:37Z</time>
      </trkpt>
      <trkpt lat="39.2356760" lon="-3.7712650">
        <ele>701.0</ele>
        <time>2019-08-12T07:28:38Z</time>
      </trkpt>
      <trkpt lat="39.2357050" lon="-3.7712380">
        <ele>701.2</ele>
        <time>2019-08-12T07:28:39Z</time>
      </trkpt>
      <trkpt lat="39.2357350" lon="-3.7712130">
        <ele>701.3</ele>
        <time>2019-08-12T07:28:40Z</time>
      </trkpt>
      <trkpt lat="39.2357650" lon="-3.7711880">
        <ele>701.4</ele>
        <time>2019-08-12T07:28:41Z</time>
      </trkpt>
      <trkpt lat="39.2357960" lon="-3.7711630">
        <ele>701.6</ele>
        <time>2019-08-12T07:28:42Z</time>
      </trkpt>
      <trkpt lat="39.2358270" lon="-3.7711400">
        <ele>701.7</ele>
        <time>2019-08-12T07:28:43Z</time>
      </trkpt>
      <trkpt lat="39.2358580" lon="-3.7711180">
        <ele>701.8</ele>
        <time>2019-08-12T07:28:44Z</time>
      </trkpt>
      <trkpt lat="39.2358890" lon="-3.7710960">
        <ele>701.9</ele>
        <time>2019-08-12T07:28:45Z</time>
      </trkpt>
      <trkpt lat="39.2359210" lon="-3.7710750">
        <ele>702.0</ele>
        <time>2019-08-12T07:28:46Z</time>
      </trkpt>
      <trkpt lat="39.2359520" lon="-3.7710550">
        <ele>702.1</ele>
        <time>2019-08-12T07:28:47Z</time>
      </trkpt>
      <trkpt lat="39.2359840" lon="-3.7710350">
        <ele>702.2</ele>
        <time>2019-08-12T07:28:48Z</time>
      </trkpt>
      <trkpt lat="39.2360160" lon="-3.7710170">
        <ele>702.3</ele>
        <time>2019-08-12T07:28:49Z</time>
      </trkpt>
      <trkpt lat="39.2360480" lon="-3.7709990">
        <ele>702.4</ele>
        <time>2019-08-12T07:28:50Z</time>
      </trkpt>
      <trkpt lat="39.2360790" lon="-3.7709810">
        <ele>702.5</ele>
        <time>2019-08-12T07:28:51Z</time>
      </trkpt>
      <trkpt lat="39.2361110" lon="-3.7709640">
        <ele>702.6</ele>
        <time>2019-08-12T07:28:52Z</time>
      </trkpt>
      <trkpt lat="39.2361420" lon="-3.7709480">
        <ele>702.8</ele>
        <time>2019-08-12T07:28:53Z</time>
      </trkpt>
      <trkpt lat="39.2361720" lon="-3.7709330">
        <ele>702.9</ele>
        <time>2019-08-12T07:28:54Z</time>
      </trkpt>
      <trkpt lat="39.2362030" lon="-3.7709180">
        <ele>703.0</ele>
        <time>2019-08-12T07:28:55Z</time>
      </trkpt>
      <trkpt lat="39.2362330" lon="-3.7709030">
        <ele>703.1</ele>
        <time>2019-08-12T07:28:56Z</time>
      </trkpt>
      <trkpt lat="39.2362620" lon="-3.7708890">
        <ele>703.2</ele>
        <time>2019-08-12T07:28:57Z</time>
      </trkpt>
      <trkpt lat="39.2362910" lon="-3.7708750">
        <ele>703.4</ele>
        <time>2019-08-12T07:28:58Z</time>
      </trkpt>
      <trkpt lat="39.2363190" lon="-3.7708610">
        <ele>703.5</ele>
        <time>2019-08-12T07:28:59Z</time>
      </trkpt>
      <trkpt lat="39.2363460" lon="-3.7708480">
        <ele>703.7</ele>
        <time>2019-08-12T07:29:00Z</time>
      </trkpt>
      <trkpt lat="39.2363730" lon="-3.7708350">
        <ele>703.8</ele>
        <time>2019-08-12T07:29:01Z</time>
      </trkpt>
      <trkpt lat="39.2363990" lon="-3.7708210">
        <ele>703.9</ele>
        <time>2019-08-12T07:29:02Z</time>
      </trkpt>
      <trkpt lat="39.2364240" lon="-3.7708080">
        <ele>704.1</ele>
        <time>2019-08-12T07:29:03Z</time>
      </trkpt>
      <trkpt lat="39.2364490" lon="-3.7707950">
        <ele>704.2</ele>
        <time>2019-08-12T07:29:04Z</time>
      </trkpt>
      <trkpt lat="39.2364730" lon="-3.7707810">
        <ele>704.4</ele>
        <time>2019-08-12T07:29:05Z</time>
      </trkpt>
      <trkpt lat="39.2364980" lon="-3.7707660">
        <ele>704.5</ele>
        <time>2019-08-12T07:29:06Z</time>
      </trkpt>
      <trkpt lat="39.2365230" lon="-3.7707510">
        <ele>704.7</ele>
        <time>2019-08-12T07:29:07Z</time>
      </trkpt>
      <trkpt lat="39.2365480" lon="-3.7707350">
        <ele>704.9</ele>
        <time>2019-08-12T07:29:08Z</time>
      </trkpt>
      <trkpt lat="39.2365730" lon="-3.7707190">
        <ele>705.0</ele>
        <time>2019-08-12T07:29:09Z</time>
      </trkpt>
      <trkpt lat="39.2365980" lon="-3.7707040">
        <ele>705.2</ele>
        <time>2019-08-12T07:29:10Z</time>
      </trkpt>
      <trkpt lat="39.2366220" lon="-3.7706890">
        <ele>705.3</ele>
        <time>2019-08-12T07:29:11Z</time>
      </trkpt>
      <trkpt lat="39.2366470" lon="-3.7706740">
        <ele>705.5</ele>
        <time>2019-08-12T07:29:12Z</time>
      </trkpt>
      <trkpt lat="39.2366710" lon="-3.7706600">
        <ele>705.9</ele>
        <time>2019-08-12T07:29:13Z</time>
      </trkpt>
      <trkpt lat="39.2366940" lon="-3.7706460">
        <ele>706.1</ele>
        <time>2019-08-12T07:29:14Z</time>
      </trkpt>
      <trkpt lat="39.2367180" lon="-3.7706330">
        <ele>706.3</ele>
        <time>2019-08-12T07:29:15Z</time>
      </trkpt>
      <trkpt lat="39.2367410" lon="-3.7706200">
        <ele>706.5</ele>
        <time>2019-08-12T07:29:16Z</time>
      </trkpt>
      <trkpt lat="39.2367640" lon="-3.7706060">
        <ele>706.7</ele>
        <time>2019-08-12T07:29:17Z</time>
      </trkpt>
      <trkpt lat="39.2367870" lon="-3.7705930">
        <ele>706.9</ele>
        <time>2019-08-12T07:29:18Z</time>
      </trkpt>
      <trkpt lat="39.2368100" lon="-3.7705800">
        <ele>707.1</ele>
        <time>2019-08-12T07:29:19Z</time>
      </trkpt>
      <trkpt lat="39.2368320" lon="-3.7705670">
        <ele>707.2</ele>
        <time>2019-08-12T07:29:20Z</time>
      </trkpt>
      <trkpt lat="39.2368550" lon="-3.7705530">
        <ele>707.4</ele>
        <time>2019-08-12T07:29:21Z</time>
      </trkpt>
      <trkpt lat="39.2368770" lon="-3.7705390">
        <ele>707.6</ele>
        <time>2019-08-12T07:29:22Z</time>
      </trkpt>
      <trkpt lat="39.2368990" lon="-3.7705260">
        <ele>707.8</ele>
        <time>2019-08-12T07:29:23Z</time>
      </trkpt>
      <trkpt lat="39.2369220" lon="-3.7705110">
        <ele>708.0</ele>
        <time>2019-08-12T07:29:24Z</time>
      </trkpt>
      <trkpt lat="39.2369440" lon="-3.7704970">
        <ele>708.2</ele>
        <time>2019-08-12T07:29:25Z</time>
      </trkpt>
      <trkpt lat="39.2369660" lon="-3.7704830">
        <ele>708.4</ele>
        <time>2019-08-12T07:29:26Z</time>
      </trkpt>
      <trkpt lat="39.2369890" lon="-3.7704690">
        <ele>708.7</ele>
        <time>2019-08-12T07:29:27Z</time>
      </trkpt>
      <trkpt lat="39.2370110" lon="-3.7704540">
        <ele>708.9</ele>
        <time>2019-08-12T07:29:28Z</time>
      </trkpt>
      <trkpt lat="39.2370340" lon="-3.7704390">
        <ele>709.1</ele>
        <time>2019-08-12T07:29:29Z</time>
      </trkpt>
      <trkpt lat="39.2370570" lon="-3.7704240">
        <ele>709.3</ele>
        <time>2019-08-12T07:29:30Z</time>
      </trkpt>
      <trkpt lat="39.2370810" lon="-3.7704090">
        <ele>709.5</ele>
        <time>2019-08-12T07:29:31Z</time>
      </trkpt>
      <trkpt lat="39.2371040" lon="-3.7703940">
        <ele>709.7</ele>
        <time>2019-08-12T07:29:32Z</time>
      </trkpt>
      <trkpt lat="39.2371280" lon="-3.7703780">
        <ele>709.9</ele>
        <time>2019-08-12T07:29:33Z</time>
      </trkpt>
      <trkpt lat="39.2371510" lon="-3.7703620">
        <ele>710.1</ele>
        <time>2019-08-12T07:29:34Z</time>
      </trkpt>
      <trkpt lat="39.2371750" lon="-3.7703460">
        <ele>710.3</ele>
        <time>2019-08-12T07:29:35Z</time>
      </trkpt>
      <trkpt lat="39.2371980" lon="-3.7703300">
        <ele>710.5</ele>
        <time>2019-08-12T07:29:36Z</time>
      </trkpt>
      <trkpt lat="39.2372220" lon="-3.7703130">
        <ele>710.7</ele>
        <time>2019-08-12T07:29:37Z</time>
      </trkpt>
      <trkpt lat="39.2372450" lon="-3.7702960">
        <ele>710.8</ele>
        <time>2019-08-12T07:29:38Z</time>
      </trkpt>
      <trkpt lat="39.2372690" lon="-3.7702790">
        <ele>711.0</ele>
        <time>2019-08-12T07:29:39Z</time>
      </trkpt>
      <trkpt lat="39.2372920" lon="-3.7702610">
        <ele>711.1</ele>
        <time>2019-08-12T07:29:40Z</time>
      </trkpt>
      <trkpt lat="39.2373150" lon="-3.7702430">
        <ele>711.2</ele>
        <time>2019-08-12T07:29:41Z</time>
      </trkpt>
      <trkpt lat="39.2373380" lon="-3.7702260">
        <ele>711.3</ele>
        <time>2019-08-12T07:29:42Z</time>
      </trkpt>
      <trkpt lat="39.2373610" lon="-3.7702070">
        <ele>711.4</ele>
        <time>2019-08-12T07:29:43Z</time>
      </trkpt>
      <trkpt lat="39.2373840" lon="-3.7701890">
        <ele>711.5</ele>
        <time>2019-08-12T07:29:44Z</time>
      </trkpt>
      <trkpt lat="39.2374060" lon="-3.7701720">
        <ele>711.7</ele>
        <time>2019-08-12T07:29:45Z</time>
      </trkpt>
      <trkpt lat="39.2374290" lon="-3.7701540">
        <ele>711.8</ele>
        <time>2019-08-12T07:29:46Z</time>
      </trkpt>
      <trkpt lat="39.2374520" lon="-3.7701360">
        <ele>711.9</ele>
        <time>2019-08-12T07:29:47Z</time>
      </trkpt>
      <trkpt lat="39.2374740" lon="-3.7701190">
        <ele>712.0</ele>
        <time>2019-08-12T07:29:48Z</time>
      </trkpt>
      <trkpt lat="39.2374970" lon="-3.7701020">
        <ele>712.1</ele>
        <time>2019-08-12T07:29:49Z</time>
      </trkpt>
      <trkpt lat="39.2375200" lon="-3.7700850">
        <ele>712.2</ele>
        <time>2019-08-12T07:29:50Z</time>
      </trkpt>
      <trkpt lat="39.2375430" lon="-3.7700680">
        <ele>712.3</ele>
        <time>2019-08-12T07:29:51Z</time>
      </trkpt>
      <trkpt lat="39.2375650" lon="-3.7700510">
        <ele>712.4</ele>
        <time>2019-08-12T07:29:52Z</time>
      </trkpt>
      <trkpt lat="39.2375880" lon="-3.7700350">
        <ele>712.5</ele>
        <time>2019-08-12T07:29:53Z</time>
      </trkpt>
      <trkpt lat="39.2376110" lon="-3.7700180">
        <ele>712.7</ele>
        <time>2019-08-12T07:29:54Z</time>
      </trkpt>
      <trkpt lat="39.2376350" lon="-3.7700010">
        <ele>712.8</ele>
        <time>2019-08-12T07:29:55Z</time>
      </trkpt>
      <trkpt lat="39.2376580" lon="-3.7699830">
        <ele>712.9</ele>
        <time>2019-08-12T07:29:56Z</time>
      </trkpt>
      <trkpt lat="39.2376820" lon="-3.7699660">
        <ele>713.0</ele>
        <time>2019-08-12T07:29:57Z</time>
      </trkpt>
      <trkpt lat="39.2377060" lon="-3.7699480">
        <ele>713.2</ele>
        <time>2019-08-12T07:29:58Z</time>
      </trkpt>
      <trkpt lat="39.2377290" lon="-3.7699300">
        <ele>713.3</ele>
        <time>2019-08-12T07:29:59Z</time>
      </trkpt>
      <trkpt lat="39.2377530" lon="-3.7699120">
        <ele>713.5</ele>
        <time>2019-08-12T07:30:00Z</time>
      </trkpt>
      <trkpt lat="39.2377770" lon="-3.7698930">
        <ele>713.6</ele>
        <time>2019-08-12T07:30:01Z</time>
      </trkpt>
      <trkpt lat="39.2378010" lon="-3.7698750">
        <ele>713.8</ele>
        <time>2019-08-12T07:30:02Z</time>
      </trkpt>
      <trkpt lat="39.2378240" lon="-3.7698570">
        <ele>713.9</ele>
        <time>2019-08-12T07:30:03Z</time>
      </trkpt>
      <trkpt lat="39.2378480" lon="-3.7698390">
        <ele>714.1</ele>
        <time>2019-08-12T07:30:04Z</time>
      </trkpt>
      <trkpt lat="39.2378710" lon="-3.7698210">
        <ele>714.2</ele>
        <time>2019-08-12T07:30:05Z</time>
      </trkpt>
      <trkpt lat="39.2378930" lon="-3.7698040">
        <ele>714.3</ele>
        <time>2019-08-12T07:30:06Z</time>
      </trkpt>
      <trkpt lat="39.2379160" lon="-3.7697870">
        <ele>714.5</ele>
        <time>2019-08-12T07:30:07Z</time>
      </trkpt>
      <trkpt lat="39.2379380" lon="-3.7697700">
        <ele>714.6</ele>
        <time>2019-08-12T07:30:08Z</time>
      </trkpt>
      <trkpt lat="39.2379600" lon="-3.7697530">
        <ele>714.8</ele>
        <time>2019-08-12T07:30:09Z</time>
      </trkpt>
      <trkpt lat="39.2379830" lon="-3.7697360">
        <ele>714.9</ele>
        <time>2019-08-12T07:30:10Z</time>
      </trkpt>
      <trkpt lat="39.2380050" lon="-3.7697180">
        <ele>715.0</ele>
        <time>2019-08-12T07:30:11Z</time>
      </trkpt>
      <trkpt lat="39.2380290" lon="-3.7697010">
        <ele>715.2</ele>
        <time>2019-08-12T07:30:12Z</time>
      </trkpt>
      <trkpt lat="39.2380520" lon="-3.7696830">
        <ele>715.3</ele>
        <time>2019-08-12T07:30:13Z</time>
      </trkpt>
      <trkpt lat="39.2380770" lon="-3.7696640">
        <ele>715.4</ele>
        <time>2019-08-12T07:30:14Z</time>
      </trkpt>
      <trkpt lat="39.2381030" lon="-3.7696450">
        <ele>715.6</ele>
        <time>2019-08-12T07:30:15Z</time>
      </trkpt>
      <trkpt lat="39.2381290" lon="-3.7696260">
        <ele>715.7</ele>
        <time>2019-08-12T07:30:16Z</time>
      </trkpt>
      <trkpt lat="39.2381550" lon="-3.7696060">
        <ele>715.8</ele>
        <time>2019-08-12T07:30:17Z</time>
      </trkpt>
      <trkpt lat="39.2381820" lon="-3.7695870">
        <ele>715.9</ele>
        <time>2019-08-12T07:30:18Z</time>
      </trkpt>
      <trkpt lat="39.2382090" lon="-3.7695690">
        <ele>716.1</ele>
        <time>2019-08-12T07:30:19Z</time>
      </trkpt>
      <trkpt lat="39.2382360" lon="-3.7695510">
        <ele>716.2</ele>
        <time>2019-08-12T07:30:20Z</time>
      </trkpt>
      <trkpt lat="39.2382650" lon="-3.7695350">
        <ele>716.3</ele>
        <time>2019-08-12T07:30:21Z</time>
      </trkpt>
      <trkpt lat="39.2382960" lon="-3.7695200">
        <ele>716.5</ele>
        <time>2019-08-12T07:30:22Z</time>
      </trkpt>
      <trkpt lat="39.2383310" lon="-3.7695070">
        <ele>716.6</ele>
        <time>2019-08-12T07:30:23Z</time>
      </trkpt>
      <trkpt lat="39.2383700" lon="-3.7694950">
        <ele>716.8</ele>
        <time>2019-08-12T07:30:24Z</time>
      </trkpt>
      <trkpt lat="39.2384070" lon="-3.7694820">
        <ele>716.9</ele>
        <time>2019-08-12T07:31:45Z</time>
      </trkpt>
      <trkpt lat="39.2384550" lon="-3.7694610">
        <ele>717.2</ele>
        <time>2019-08-12T07:31:46Z</time>
      </trkpt>
      <trkpt lat="39.2385170" lon="-3.7694330">
        <ele>717.4</ele>
        <time>2019-08-12T07:31:47Z</time>
      </trkpt>
      <trkpt lat="39.2385810" lon="-3.7694030">
        <ele>717.7</ele>
        <time>2019-08-12T07:31:48Z</time>
      </trkpt>
      <trkpt lat="39.2386310" lon="-3.7693780">
        <ele>717.9</ele>
        <time>2019-08-12T07:31:49Z</time>
      </trkpt>
      <trkpt lat="39.2386680" lon="-3.7693560">
        <ele>718.0</ele>
        <time>2019-08-12T07:31:50Z</time>
      </trkpt>
      <trkpt lat="39.2386980" lon="-3.7693380">
        <ele>718.1</ele>
        <time>2019-08-12T07:31:51Z</time>
      </trkpt>
      <trkpt lat="39.2387240" lon="-3.7693200">
        <ele>718.1</ele>
        <time>2019-08-12T07:31:52Z</time>
      </trkpt>
      <trkpt lat="39.2387520" lon="-3.7693030">
        <ele>718.2</ele>
        <time>2019-08-12T07:31:53Z</time>
      </trkpt>
      <trkpt lat="39.2387810" lon="-3.7692860">
        <ele>718.3</ele>
        <time>2019-08-12T07:31:54Z</time>
      </trkpt>
      <trkpt lat="39.2388110" lon="-3.7692690">
        <ele>718.3</ele>
        <time>2019-08-12T07:31:55Z</time>
      </trkpt>
      <trkpt lat="39.2388430" lon="-3.7692510">
        <ele>718.4</ele>
        <time>2019-08-12T07:31:56Z</time>
      </trkpt>
      <trkpt lat="39.2388760" lon="-3.7692330">
        <ele>718.4</ele>
        <time>2019-08-12T07:31:57Z</time>
      </trkpt>
      <trkpt lat="39.2389100" lon="-3.7692150">
        <ele>718.5</ele>
        <time>2019-08-12T07:31:58Z</time>
      </trkpt>
      <trkpt lat="39.2389690" lon="-3.7691830">
        <ele>718.5</ele>
        <time>2019-08-12T07:31:59Z</time>
      </trkpt>
      <trkpt lat="39.2389920" lon="-3.7691710">
        <ele>718.5</ele>
        <time>2019-08-12T07:32:00Z</time>
      </trkpt>
      <trkpt lat="39.2390160" lon="-3.7691580">
        <ele>718.5</ele>
        <time>2019-08-12T07:32:01Z</time>
      </trkpt>
      <trkpt lat="39.2390530" lon="-3.7691380">
        <ele>718.6</ele>
        <time>2019-08-12T07:32:02Z</time>
      </trkpt>
      <trkpt lat="39.2390900" lon="-3.7691180">
        <ele>718.6</ele>
        <time>2019-08-12T07:32:03Z</time>
      </trkpt>
      <trkpt lat="39.2391520" lon="-3.7690830">
        <ele>718.6</ele>
        <time>2019-08-12T07:32:04Z</time>
      </trkpt>
      <trkpt lat="39.2391780" lon="-3.7690690">
        <ele>718.6</ele>
        <time>2019-08-12T07:32:05Z</time>
      </trkpt>
      <trkpt lat="39.2392030" lon="-3.7690550">
        <ele>718.6</ele>
        <time>2019-08-12T07:32:06Z</time>
      </trkpt>
      <trkpt lat="39.2392420" lon="-3.7690340">
        <ele>718.6</ele>
        <time>2019-08-12T07:32:07Z</time>
      </trkpt>
      <trkpt lat="39.2392810" lon="-3.7690140">
        <ele>718.6</ele>
        <time>2019-08-12T07:32:08Z</time>
      </trkpt>
      <trkpt lat="39.2393470" lon="-3.7689800">
        <ele>718.5</ele>
        <time>2019-08-12T07:32:09Z</time>
      </trkpt>
      <trkpt lat="39.2393730" lon="-3.7689670">
        <ele>718.4</ele>
        <time>2019-08-12T07:32:10Z</time>
      </trkpt>
      <trkpt lat="39.2394000" lon="-3.7689540">
        <ele>718.4</ele>
        <time>2019-08-12T07:32:11Z</time>
      </trkpt>
      <trkpt lat="39.2394400" lon="-3.7689360">
        <ele>718.3</ele>
        <time>2019-08-12T07:32:12Z</time>
      </trkpt>
      <trkpt lat="39.2394800" lon="-3.7689180">
        <ele>718.2</ele>
        <time>2019-08-12T07:32:13Z</time>
      </trkpt>
      <trkpt lat="39.2395180" lon="-3.7689000">
        <ele>718.2</ele>
        <time>2019-08-12T07:32:14Z</time>
      </trkpt>
      <trkpt lat="39.2395540" lon="-3.7688810">
        <ele>718.1</ele>
        <time>2019-08-12T07:32:15Z</time>
      </trkpt>
      <trkpt lat="39.2395870" lon="-3.7688610">
        <ele>718.0</ele>
        <time>2019-08-12T07:32:16Z</time>
      </trkpt>
      <trkpt lat="39.2396170" lon="-3.7688400">
        <ele>717.9</ele>
        <time>2019-08-12T07:32:17Z</time>
      </trkpt>
      <trkpt lat="39.2396430" lon="-3.7688170">
        <ele>717.5</ele>
        <time>2019-08-12T07:32:18Z</time>
      </trkpt>
      <trkpt lat="39.2396660" lon="-3.7687930">
        <ele>717.5</ele>
        <time>2019-08-12T07:32:19Z</time>
      </trkpt>
      <trkpt lat="39.2396860" lon="-3.7687680">
        <ele>717.5</ele>
        <time>2019-08-12T07:32:20Z</time>
      </trkpt>
      <trkpt lat="39.2397040" lon="-3.7687430">
        <ele>717.5</ele>
        <time>2019-08-12T07:32:21Z</time>
      </trkpt>
      <trkpt lat="39.2397240" lon="-3.7687170">
        <ele>717.5</ele>
        <time>2019-08-12T07:32:22Z</time>
      </trkpt>
      <trkpt lat="39.2397510" lon="-3.7686900">
        <ele>717.5</ele>
        <time>2019-08-12T07:32:23Z</time>
      </trkpt>
      <trkpt lat="39.2397860" lon="-3.7686620">
        <ele>717.5</ele>
        <time>2019-08-12T07:32:24Z</time>
      </trkpt>
      <trkpt lat="39.2398270" lon="-3.7686340">
        <ele>717.4</ele>
        <time>2019-08-12T07:32:25Z</time>
      </trkpt>
      <trkpt lat="39.2398670" lon="-3.7686060">
        <ele>717.4</ele>
        <time>2019-08-12T07:32:26Z</time>
      </trkpt>
      <trkpt lat="39.2399060" lon="-3.7685780">
        <ele>717.3</ele>
        <time>2019-08-12T07:32:27Z</time>
      </trkpt>
      <trkpt lat="39.2399440" lon="-3.7685510">
        <ele>717.3</ele>
        <time>2019-08-12T07:32:28Z</time>
      </trkpt>
      <trkpt lat="39.2400050" lon="-3.7685060">
        <ele>717.1</ele>
        <time>2019-08-12T07:32:29Z</time>
      </trkpt>
      <trkpt lat="39.2400290" lon="-3.7684880">
        <ele>717.0</ele>
        <time>2019-08-12T07:32:30Z</time>
      </trkpt>
      <trkpt lat="39.2400530" lon="-3.7684700">
        <ele>717.0</ele>
        <time>2019-08-12T07:32:31Z</time>
      </trkpt>
      <trkpt lat="39.2400890" lon="-3.7684420">
        <ele>716.9</ele>
        <time>2019-08-12T07:32:32Z</time>
      </trkpt>
      <trkpt lat="39.2401240" lon="-3.7684150">
        <ele>716.8</ele>
        <time>2019-08-12T07:32:33Z</time>
      </trkpt>
      <trkpt lat="39.2401590" lon="-3.7683880">
        <ele>716.7</ele>
        <time>2019-08-12T07:32:34Z</time>
      </trkpt>
      <trkpt lat="39.2401950" lon="-3.7683600">
        <ele>716.6</ele>
        <time>2019-08-12T07:32:35Z</time>
      </trkpt>
      <trkpt lat="39.2402300" lon="-3.7683330">
        <ele>716.6</ele>
        <time>2019-08-12T07:32:36Z</time>
      </trkpt>
      <trkpt lat="39.2402660" lon="-3.7683050">
        <ele>716.5</ele>
        <time>2019-08-12T07:32:37Z</time>
      </trkpt>
      <trkpt lat="39.2403030" lon="-3.7682780">
        <ele>716.5</ele>
        <time>2019-08-12T07:32:38Z</time>
      </trkpt>
      <trkpt lat="39.2403400" lon="-3.7682500">
        <ele>716.5</ele>
        <time>2019-08-12T07:32:39Z</time>
      </trkpt>
      <trkpt lat="39.2403780" lon="-3.7682230">
        <ele>716.4</ele>
        <time>2019-08-12T07:32:40Z</time>
      </trkpt>
      <trkpt lat="39.2404170" lon="-3.7681960">
        <ele>716.4</ele>
        <time>2019-08-12T07:32:41Z</time>
      </trkpt>
      <trkpt lat="39.2404570" lon="-3.7681680">
        <ele>716.4</ele>
        <time>2019-08-12T07:32:42Z</time>
      </trkpt>
      <trkpt lat="39.2404970" lon="-3.7681410">
        <ele>716.4</ele>
        <time>2019-08-12T07:32:43Z</time>
      </trkpt>
      <trkpt lat="39.2405380" lon="-3.7681140">
        <ele>716.4</ele>
        <time>2019-08-12T07:32:44Z</time>
      </trkpt>
      <trkpt lat="39.2405800" lon="-3.7680860">
        <ele>716.4</ele>
        <time>2019-08-12T07:32:45Z</time>
      </trkpt>
      <trkpt lat="39.2406220" lon="-3.7680580">
        <ele>716.4</ele>
        <time>2019-08-12T07:32:46Z</time>
      </trkpt>
      <trkpt lat="39.2406640" lon="-3.7680300">
        <ele>716.4</ele>
        <time>2019-08-12T07:32:47Z</time>
      </trkpt>
      <trkpt lat="39.2407060" lon="-3.7680010">
        <ele>716.4</ele>
        <time>2019-08-12T07:32:48Z</time>
      </trkpt>
      <trkpt lat="39.2407490" lon="-3.7679720">
        <ele>716.3</ele>
        <time>2019-08-12T07:32:49Z</time>
      </trkpt>
      <trkpt lat="39.2407920" lon="-3.7679430">
        <ele>716.3</ele>
        <time>2019-08-12T07:32:50Z</time>
      </trkpt>
      <trkpt lat="39.2408360" lon="-3.7679130">
        <ele>716.2</ele>
        <time>2019-08-12T07:32:51Z</time>
      </trkpt>
      <trkpt lat="39.2408790" lon="-3.7678830">
        <ele>716.1</ele>
        <time>2019-08-12T07:32:52Z</time>
      </trkpt>
      <trkpt lat="39.2409230" lon="-3.7678530">
        <ele>716.0</ele>
        <time>2019-08-12T07:32:53Z</time>
      </trkpt>
      <trkpt lat="39.2409660" lon="-3.7678220">
        <ele>715.9</ele>
        <time>2019-08-12T07:32:54Z</time>
      </trkpt>
      <trkpt lat="39.2410100" lon="-3.7677910">
        <ele>715.8</ele>
        <time>2019-08-12T07:32:55Z</time>
      </trkpt>
      <trkpt lat="39.2410540" lon="-3.7677600">
        <ele>715.8</ele>
        <time>2019-08-12T07:32:56Z</time>
      </trkpt>
      <trkpt lat="39.2410980" lon="-3.7677290">
        <ele>715.7</ele>
        <time>2019-08-12T07:32:57Z</time>
      </trkpt>
      <trkpt lat="39.2411420" lon="-3.7676970">
        <ele>715.7</ele>
        <time>2019-08-12T07:32:58Z</time>
      </trkpt>
      <trkpt lat="39.2411860" lon="-3.7676650">
        <ele>715.7</ele>
        <time>2019-08-12T07:32:59Z</time>
      </trkpt>
      <trkpt lat="39.2412300" lon="-3.7676330">
        <ele>715.7</ele>
        <time>2019-08-12T07:33:00Z</time>
      </trkpt>
      <trkpt lat="39.2412740" lon="-3.7676010">
        <ele>715.7</ele>
        <time>2019-08-12T07:33:01Z</time>
      </trkpt>
      <trkpt lat="39.2413180" lon="-3.7675690">
        <ele>715.8</ele>
        <time>2019-08-12T07:33:02Z</time>
      </trkpt>
      <trkpt lat="39.2413620" lon="-3.7675360">
        <ele>715.9</ele>
        <time>2019-08-12T07:33:03Z</time>
      </trkpt>
      <trkpt lat="39.2414050" lon="-3.7675040">
        <ele>716.1</ele>
        <time>2019-08-12T07:33:04Z</time>
      </trkpt>
      <trkpt lat="39.2414490" lon="-3.7674710">
        <ele>716.2</ele>
        <time>2019-08-12T07:33:05Z</time>
      </trkpt>
      <trkpt lat="39.2414920" lon="-3.7674390">
        <ele>716.4</ele>
        <time>2019-08-12T07:33:06Z</time>
      </trkpt>
      <trkpt lat="39.2415360" lon="-3.7674060">
        <ele>716.6</ele>
        <time>2019-08-12T07:33:07Z</time>
      </trkpt>
      <trkpt lat="39.2415790" lon="-3.7673730">
        <ele>716.8</ele>
        <time>2019-08-12T07:33:08Z</time>
      </trkpt>
      <trkpt lat="39.2416220" lon="-3.7673400">
        <ele>717.0</ele>
        <time>2019-08-12T07:33:09Z</time>
      </trkpt>
      <trkpt lat="39.2416660" lon="-3.7673070">
        <ele>717.1</ele>
        <time>2019-08-12T07:33:10Z</time>
      </trkpt>
      <trkpt lat="39.2417090" lon="-3.7672740">
        <ele>717.2</ele>
        <time>2019-08-12T07:33:11Z</time>
      </trkpt>
      <trkpt lat="39.2417520" lon="-3.7672410">
        <ele>717.3</ele>
        <time>2019-08-12T07:33:12Z</time>
      </trkpt>
      <trkpt lat="39.2417960" lon="-3.7672080">
        <ele>717.4</ele>
        <time>2019-08-12T07:33:13Z</time>
      </trkpt>
      <trkpt lat="39.2418400" lon="-3.7671750">
        <ele>717.4</ele>
        <time>2019-08-12T07:33:14Z</time>
      </trkpt>
      <trkpt lat="39.2418840" lon="-3.7671420">
        <ele>717.5</ele>
        <time>2019-08-12T07:33:15Z</time>
      </trkpt>
      <trkpt lat="39.2419290" lon="-3.7671090">
        <ele>717.5</ele>
        <time>2019-08-12T07:33:16Z</time>
      </trkpt>
      <trkpt lat="39.2419740" lon="-3.7670750">
        <ele>717.5</ele>
        <time>2019-08-12T07:33:17Z</time>
      </trkpt>
      <trkpt lat="39.2420200" lon="-3.7670420">
        <ele>717.5</ele>
        <time>2019-08-12T07:33:18Z</time>
      </trkpt>
      <trkpt lat="39.2420650" lon="-3.7670080">
        <ele>717.5</ele>
        <time>2019-08-12T07:33:19Z</time>
      </trkpt>
      <trkpt lat="39.2421110" lon="-3.7669750">
        <ele>717.5</ele>
        <time>2019-08-12T07:33:20Z</time>
      </trkpt>
      <trkpt lat="39.2421570" lon="-3.7669410">
        <ele>717.6</ele>
        <time>2019-08-12T07:33:21Z</time>
      </trkpt>
      <trkpt lat="39.2422020" lon="-3.7669080">
        <ele>717.6</ele>
        <time>2019-08-12T07:33:22Z</time>
      </trkpt>
      <trkpt lat="39.2422470" lon="-3.7668740">
        <ele>717.7</ele>
        <time>2019-08-12T07:33:23Z</time>
      </trkpt>
      <trkpt lat="39.2422920" lon="-3.7668400">
        <ele>717.7</ele>
        <time>2019-08-12T07:33:24Z</time>
      </trkpt>
      <trkpt lat="39.2423370" lon="-3.7668070">
        <ele>717.9</ele>
        <time>2019-08-12T07:33:25Z</time>
      </trkpt>
      <trkpt lat="39.2423800" lon="-3.7667730">
        <ele>718.0</ele>
        <time>2019-08-12T07:33:26Z</time>
      </trkpt>
      <trkpt lat="39.2424230" lon="-3.7667400">
        <ele>718.1</ele>
        <time>2019-08-12T07:33:27Z</time>
      </trkpt>
      <trkpt lat="39.2424660" lon="-3.7667060">
        <ele>718.2</ele>
        <time>2019-08-12T07:33:28Z</time>
      </trkpt>
      <trkpt lat="39.2425070" lon="-3.7666740">
        <ele>718.3</ele>
        <time>2019-08-12T07:33:29Z</time>
      </trkpt>
      <trkpt lat="39.2425490" lon="-3.7666410">
        <ele>718.4</ele>
        <time>2019-08-12T07:33:30Z</time>
      </trkpt>
      <trkpt lat="39.2425890" lon="-3.7666100">
        <ele>718.4</ele>
        <time>2019-08-12T07:33:31Z</time>
      </trkpt>
      <trkpt lat="39.2426300" lon="-3.7665790">
        <ele>718.5</ele>
        <time>2019-08-12T07:33:32Z</time>
      </trkpt>
      <trkpt lat="39.2426700" lon="-3.7665490">
        <ele>718.5</ele>
        <time>2019-08-12T07:33:33Z</time>
      </trkpt>
      <trkpt lat="39.2427100" lon="-3.7665200">
        <ele>718.5</ele>
        <time>2019-08-12T07:33:34Z</time>
      </trkpt>
      <trkpt lat="39.2427510" lon="-3.7664910">
        <ele>718.6</ele>
        <time>2019-08-12T07:33:35Z</time>
      </trkpt>
      <trkpt lat="39.2427920" lon="-3.7664630">
        <ele>718.6</ele>
        <time>2019-08-12T07:33:36Z</time>
      </trkpt>
      <trkpt lat="39.2428340" lon="-3.7664350">
        <ele>718.6</ele>
        <time>2019-08-12T07:33:37Z</time>
      </trkpt>
      <trkpt lat="39.2428750" lon="-3.7664080">
        <ele>718.6</ele>
        <time>2019-08-12T07:33:38Z</time>
      </trkpt>
      <trkpt lat="39.2429170" lon="-3.7663800">
        <ele>718.6</ele>
        <time>2019-08-12T07:33:39Z</time>
      </trkpt>
      <trkpt lat="39.2429590" lon="-3.7663520">
        <ele>718.6</ele>
        <time>2019-08-12T07:33:40Z</time>
      </trkpt>
      <trkpt lat="39.2430010" lon="-3.7663230">
        <ele>718.6</ele>
        <time>2019-08-12T07:33:41Z</time>
      </trkpt>
      <trkpt lat="39.2430440" lon="-3.7662940">
        <ele>718.6</ele>
        <time>2019-08-12T07:33:42Z</time>
      </trkpt>
      <trkpt lat="39.2430860" lon="-3.7662640">
        <ele>718.6</ele>
        <time>2019-08-12T07:33:43Z</time>
      </trkpt>
      <trkpt lat="39.2431280" lon="-3.7662320">
        <ele>718.6</ele>
        <time>2019-08-12T07:33:44Z</time>
      </trkpt>
      <trkpt lat="39.2431980" lon="-3.7661780">
        <ele>718.5</ele>
        <time>2019-08-12T07:33:45Z</time>
      </trkpt>
      <trkpt lat="39.2432270" lon="-3.7661550">
        <ele>718.5</ele>
        <time>2019-08-12T07:33:46Z</time>
      </trkpt>
      <trkpt lat="39.2432550" lon="-3.7661330">
        <ele>718.5</ele>
        <time>2019-08-12T07:33:47Z</time>
      </trkpt>
      <trkpt lat="39.2432970" lon="-3.7660990">
        <ele>718.4</ele>
        <time>2019-08-12T07:33:48Z</time>
      </trkpt>
      <trkpt lat="39.2433400" lon="-3.7660660">
        <ele>718.4</ele>
        <time>2019-08-12T07:33:49Z</time>
      </trkpt>
      <trkpt lat="39.2433820" lon="-3.7660320">
        <ele>718.3</ele>
        <time>2019-08-12T07:33:50Z</time>
      </trkpt>
      <trkpt lat="39.2434250" lon="-3.7659990">
        <ele>718.2</ele>
        <time>2019-08-12T07:33:51Z</time>
      </trkpt>
      <trkpt lat="39.2434680" lon="-3.7659670">
        <ele>718.1</ele>
        <time>2019-08-12T07:33:52Z</time>
      </trkpt>
      <trkpt lat="39.2435120" lon="-3.7659350">
        <ele>718.0</ele>
        <time>2019-08-12T07:33:53Z</time>
      </trkpt>
      <trkpt lat="39.2435550" lon="-3.7659050">
        <ele>717.9</ele>
        <time>2019-08-12T07:33:54Z</time>
      </trkpt>
      <trkpt lat="39.2435980" lon="-3.7658740">
        <ele>717.8</ele>
        <time>2019-08-12T07:33:55Z</time>
      </trkpt>
      <trkpt lat="39.2436420" lon="-3.7658430">
        <ele>717.7</ele>
        <time>2019-08-12T07:33:56Z</time>
      </trkpt>
      <trkpt lat="39.2436860" lon="-3.7658120">
        <ele>717.7</ele>
        <time>2019-08-12T07:33:57Z</time>
      </trkpt>
      <trkpt lat="39.2437300" lon="-3.7657800">
        <ele>717.6</ele>
        <time>2019-08-12T07:33:58Z</time>
      </trkpt>
      <trkpt lat="39.2437740" lon="-3.7657470">
        <ele>717.6</ele>
        <time>2019-08-12T07:33:59Z</time>
      </trkpt>
      <trkpt lat="39.2438170" lon="-3.7657140">
        <ele>717.7</ele>
        <time>2019-08-12T07:34:00Z</time>
      </trkpt>
      <trkpt lat="39.2438610" lon="-3.7656800">
        <ele>717.7</ele>
        <time>2019-08-12T07:34:01Z</time>
      </trkpt>
      <trkpt lat="39.2439050" lon="-3.7656470">
        <ele>717.8</ele>
        <time>2019-08-12T07:34:02Z</time>
      </trkpt>
      <trkpt lat="39.2439490" lon="-3.7656140">
        <ele>717.9</ele>
        <time>2019-08-12T07:34:03Z</time>
      </trkpt>
      <trkpt lat="39.2439930" lon="-3.7655800">
        <ele>718.0</ele>
        <time>2019-08-12T07:34:04Z</time>
      </trkpt>
      <trkpt lat="39.2440360" lon="-3.7655470">
        <ele>718.1</ele>
        <time>2019-08-12T07:34:05Z</time>
      </trkpt>
      <trkpt lat="39.2440800" lon="-3.7655140">
        <ele>718.2</ele>
        <time>2019-08-12T07:34:06Z</time>
      </trkpt>
      <trkpt lat="39.2441230" lon="-3.7654810">
        <ele>718.3</ele>
        <time>2019-08-12T07:34:07Z</time>
      </trkpt>
      <trkpt lat="39.2441660" lon="-3.7654490">
        <ele>718.4</ele>
        <time>2019-08-12T07:34:08Z</time>
      </trkpt>
      <trkpt lat="39.2442090" lon="-3.7654170">
        <ele>718.4</ele>
        <time>2019-08-12T07:34:09Z</time>
      </trkpt>
      <trkpt lat="39.2442510" lon="-3.7653850">
        <ele>718.4</ele>
        <time>2019-08-12T07:34:10Z</time>
      </trkpt>
      <trkpt lat="39.2442930" lon="-3.7653540">
        <ele>718.4</ele>
        <time>2019-08-12T07:34:11Z</time>
      </trkpt>
      <trkpt lat="39.2443340" lon="-3.7653230">
        <ele>718.4</ele>
        <time>2019-08-12T07:34:12Z</time>
      </trkpt>
      <trkpt lat="39.2443750" lon="-3.7652920">
        <ele>718.4</ele>
        <time>2019-08-12T07:34:13Z</time>
      </trkpt>
      <trkpt lat="39.2444160" lon="-3.7652610">
        <ele>718.3</ele>
        <time>2019-08-12T07:34:14Z</time>
      </trkpt>
      <trkpt lat="39.2444570" lon="-3.7652300">
        <ele>718.2</ele>
        <time>2019-08-12T07:34:15Z</time>
      </trkpt>
      <trkpt lat="39.2444980" lon="-3.7652000">
        <ele>718.1</ele>
        <time>2019-08-12T07:34:16Z</time>
      </trkpt>
      <trkpt lat="39.2445390" lon="-3.7651680">
        <ele>718.0</ele>
        <time>2019-08-12T07:34:17Z</time>
      </trkpt>
      <trkpt lat="39.2445810" lon="-3.7651370">
        <ele>717.9</ele>
        <time>2019-08-12T07:34:18Z</time>
      </trkpt>
      <trkpt lat="39.2446220" lon="-3.7651050">
        <ele>717.8</ele>
        <time>2019-08-12T07:34:19Z</time>
      </trkpt>
      <trkpt lat="39.2446640" lon="-3.7650720">
        <ele>717.7</ele>
        <time>2019-08-12T07:34:20Z</time>
      </trkpt>
      <trkpt lat="39.2447070" lon="-3.7650390">
        <ele>717.6</ele>
        <time>2019-08-12T07:34:21Z</time>
      </trkpt>
      <trkpt lat="39.2447500" lon="-3.7650050">
        <ele>717.6</ele>
        <time>2019-08-12T07:34:22Z</time>
      </trkpt>
      <trkpt lat="39.2447940" lon="-3.7649710">
        <ele>717.6</ele>
        <time>2019-08-12T07:34:23Z</time>
      </trkpt>
      <trkpt lat="39.2448380" lon="-3.7649360">
        <ele>717.5</ele>
        <time>2019-08-12T07:34:24Z</time>
      </trkpt>
      <trkpt lat="39.2448830" lon="-3.7649020">
        <ele>717.5</ele>
        <time>2019-08-12T07:34:25Z</time>
      </trkpt>
      <trkpt lat="39.2449280" lon="-3.7648660">
        <ele>717.5</ele>
        <time>2019-08-12T07:34:26Z</time>
      </trkpt>
      <trkpt lat="39.2449750" lon="-3.7648310">
        <ele>717.5</ele>
        <time>2019-08-12T07:34:27Z</time>
      </trkpt>
      <trkpt lat="39.2450210" lon="-3.7647960">
        <ele>717.5</ele>
        <time>2019-08-12T07:34:28Z</time>
      </trkpt>
      <trkpt lat="39.2450690" lon="-3.7647610">
        <ele>717.5</ele>
        <time>2019-08-12T07:34:29Z</time>
      </trkpt>
      <trkpt lat="39.2451180" lon="-3.7647250">
        <ele>717.6</ele>
        <time>2019-08-12T07:34:30Z</time>
      </trkpt>
      <trkpt lat="39.2451670" lon="-3.7646900">
        <ele>717.6</ele>
        <time>2019-08-12T07:34:31Z</time>
      </trkpt>
      <trkpt lat="39.2452160" lon="-3.7646550">
        <ele>717.7</ele>
        <time>2019-08-12T07:34:32Z</time>
      </trkpt>
      <trkpt lat="39.2452660" lon="-3.7646190">
        <ele>717.8</ele>
        <time>2019-08-12T07:34:33Z</time>
      </trkpt>
      <trkpt lat="39.2453170" lon="-3.7645840">
        <ele>717.9</ele>
        <time>2019-08-12T07:34:34Z</time>
      </trkpt>
      <trkpt lat="39.2453670" lon="-3.7645480">
        <ele>718.0</ele>
        <time>2019-08-12T07:34:35Z</time>
      </trkpt>
      <trkpt lat="39.2454180" lon="-3.7645120">
        <ele>718.1</ele>
        <time>2019-08-12T07:34:36Z</time>
      </trkpt>
      <trkpt lat="39.2454680" lon="-3.7644760">
        <ele>718.3</ele>
        <time>2019-08-12T07:34:37Z</time>
      </trkpt>
      <trkpt lat="39.2455190" lon="-3.7644390">
        <ele>718.4</ele>
        <time>2019-08-12T07:34:38Z</time>
      </trkpt>
      <trkpt lat="39.2455680" lon="-3.7644020">
        <ele>718.4</ele>
        <time>2019-08-12T07:34:39Z</time>
      </trkpt>
      <trkpt lat="39.2456180" lon="-3.7643650">
        <ele>718.5</ele>
        <time>2019-08-12T07:34:40Z</time>
      </trkpt>
      <trkpt lat="39.2456670" lon="-3.7643290">
        <ele>718.5</ele>
        <time>2019-08-12T07:34:41Z</time>
      </trkpt>
      <trkpt lat="39.2457160" lon="-3.7642940">
        <ele>718.5</ele>
        <time>2019-08-12T07:34:42Z</time>
      </trkpt>
      <trkpt lat="39.2457660" lon="-3.7642620">
        <ele>718.6</ele>
        <time>2019-08-12T07:34:43Z</time>
      </trkpt>
      <trkpt lat="39.2458150" lon="-3.7642320">
        <ele>718.6</ele>
        <time>2019-08-12T07:34:44Z</time>
      </trkpt>
      <trkpt lat="39.2458640" lon="-3.7642050">
        <ele>718.6</ele>
        <time>2019-08-12T07:34:45Z</time>
      </trkpt>
      <trkpt lat="39.2459140" lon="-3.7641780">
        <ele>718.6</ele>
        <time>2019-08-12T07:34:46Z</time>
      </trkpt>
      <trkpt lat="39.2459630" lon="-3.7641530">
        <ele>718.6</ele>
        <time>2019-08-12T07:34:47Z</time>
      </trkpt>
      <trkpt lat="39.2460130" lon="-3.7641270">
        <ele>718.6</ele>
        <time>2019-08-12T07:34:48Z</time>
      </trkpt>
      <trkpt lat="39.2460630" lon="-3.7641020">
        <ele>718.6</ele>
        <time>2019-08-12T07:34:49Z</time>
      </trkpt>
      <trkpt lat="39.2461140" lon="-3.7640760">
        <ele>718.6</ele>
        <time>2019-08-12T07:34:50Z</time>
      </trkpt>
      <trkpt lat="39.2461640" lon="-3.7640490">
        <ele>718.6</ele>
        <time>2019-08-12T07:34:51Z</time>
      </trkpt>
      <trkpt lat="39.2462150" lon="-3.7640230">
        <ele>718.6</ele>
        <time>2019-08-12T07:34:52Z</time>
      </trkpt>
      <trkpt lat="39.2462650" lon="-3.7639950">
        <ele>718.6</ele>
        <time>2019-08-12T07:34:53Z</time>
      </trkpt>
      <trkpt lat="39.2463150" lon="-3.7639670">
        <ele>718.6</ele>
        <time>2019-08-12T07:34:54Z</time>
      </trkpt>
      <trkpt lat="39.2463650" lon="-3.7639380">
        <ele>718.6</ele>
        <time>2019-08-12T07:34:55Z</time>
      </trkpt>
      <trkpt lat="39.2464140" lon="-3.7639090">
        <ele>718.6</ele>
        <time>2019-08-12T07:34:56Z</time>
      </trkpt>
      <trkpt lat="39.2464630" lon="-3.7638780">
        <ele>718.6</ele>
        <time>2019-08-12T07:34:57Z</time>
      </trkpt>
      <trkpt lat="39.2465110" lon="-3.7638460">
        <ele>718.6</ele>
        <time>2019-08-12T07:34:58Z</time>
      </trkpt>
      <trkpt lat="39.2465590" lon="-3.7638140">
        <ele>718.6</ele>
        <time>2019-08-12T07:34:59Z</time>
      </trkpt>
      <trkpt lat="39.2466070" lon="-3.7637810">
        <ele>718.6</ele>
        <time>2019-08-12T07:35:00Z</time>
      </trkpt>
      <trkpt lat="39.2466550" lon="-3.7637470">
        <ele>718.6</ele>
        <time>2019-08-12T07:35:01Z</time>
      </trkpt>
      <trkpt lat="39.2467020" lon="-3.7637130">
        <ele>718.6</ele>
        <time>2019-08-12T07:35:02Z</time>
      </trkpt>
      <trkpt lat="39.2467490" lon="-3.7636790">
        <ele>718.6</ele>
        <time>2019-08-12T07:35:03Z</time>
      </trkpt>
      <trkpt lat="39.2467950" lon="-3.7636440">
        <ele>718.6</ele>
        <time>2019-08-12T07:35:04Z</time>
      </trkpt>
      <trkpt lat="39.2468420" lon="-3.7636100">
        <ele>718.6</ele>
        <time>2019-08-12T07:35:05Z</time>
      </trkpt>
      <trkpt lat="39.2468880" lon="-3.7635760">
        <ele>718.6</ele>
        <time>2019-08-12T07:35:06Z</time>
      </trkpt>
      <trkpt lat="39.2469340" lon="-3.7635420">
        <ele>718.6</ele>
        <time>2019-08-12T07:35:07Z</time>
      </trkpt>
      <trkpt lat="39.2469800" lon="-3.7635080">
        <ele>718.7</ele>
        <time>2019-08-12T07:35:08Z</time>
      </trkpt>
      <trkpt lat="39.2470260" lon="-3.7634740">
        <ele>718.8</ele>
        <time>2019-08-12T07:35:09Z</time>
      </trkpt>
      <trkpt lat="39.2470720" lon="-3.7634400">
        <ele>718.8</ele>
        <time>2019-08-12T07:35:10Z</time>
      </trkpt>
      <trkpt lat="39.2471180" lon="-3.7634060">
        <ele>718.9</ele>
        <time>2019-08-12T07:35:11Z</time>
      </trkpt>
      <trkpt lat="39.2471630" lon="-3.7633730">
        <ele>719.0</ele>
        <time>2019-08-12T07:35:12Z</time>
      </trkpt>
      <trkpt lat="39.2472090" lon="-3.7633390">
        <ele>719.1</ele>
        <time>2019-08-12T07:35:13Z</time>
      </trkpt>
      <trkpt lat="39.2472550" lon="-3.7633050">
        <ele>719.2</ele>
        <time>2019-08-12T07:35:14Z</time>
      </trkpt>
      <trkpt lat="39.2473000" lon="-3.7632700">
        <ele>719.3</ele>
        <time>2019-08-12T07:35:15Z</time>
      </trkpt>
      <trkpt lat="39.2473460" lon="-3.7632360">
        <ele>719.4</ele>
        <time>2019-08-12T07:35:16Z</time>
      </trkpt>
      <trkpt lat="39.2473920" lon="-3.7632010">
        <ele>719.5</ele>
        <time>2019-08-12T07:35:17Z</time>
      </trkpt>
      <trkpt lat="39.2474370" lon="-3.7631660">
        <ele>719.6</ele>
        <time>2019-08-12T07:35:18Z</time>
      </trkpt>
      <trkpt lat="39.2474830" lon="-3.7631310">
        <ele>719.7</ele>
        <time>2019-08-12T07:35:19Z</time>
      </trkpt>
      <trkpt lat="39.2475280" lon="-3.7630960">
        <ele>719.9</ele>
        <time>2019-08-12T07:35:20Z</time>
      </trkpt>
      <trkpt lat="39.2475730" lon="-3.7630610">
        <ele>720.1</ele>
        <time>2019-08-12T07:35:21Z</time>
      </trkpt>
      <trkpt lat="39.2476190" lon="-3.7630260">
        <ele>720.3</ele>
        <time>2019-08-12T07:35:22Z</time>
      </trkpt>
      <trkpt lat="39.2476640" lon="-3.7629910">
        <ele>720.6</ele>
        <time>2019-08-12T07:35:23Z</time>
      </trkpt>
      <trkpt lat="39.2477090" lon="-3.7629560">
        <ele>720.9</ele>
        <time>2019-08-12T07:35:24Z</time>
      </trkpt>
      <trkpt lat="39.2477540" lon="-3.7629210">
        <ele>721.3</ele>
        <time>2019-08-12T07:35:25Z</time>
      </trkpt>
      <trkpt lat="39.2477990" lon="-3.7628870">
        <ele>721.5</ele>
        <time>2019-08-12T07:35:26Z</time>
      </trkpt>
      <trkpt lat="39.2478440" lon="-3.7628520">
        <ele>721.8</ele>
        <time>2019-08-12T07:35:27Z</time>
      </trkpt>
      <trkpt lat="39.2478890" lon="-3.7628180">
        <ele>722.0</ele>
        <time>2019-08-12T07:35:28Z</time>
      </trkpt>
      <trkpt lat="39.2479330" lon="-3.7627830">
        <ele>722.2</ele>
        <time>2019-08-12T07:35:29Z</time>
      </trkpt>
      <trkpt lat="39.2479780" lon="-3.7627490">
        <ele>722.3</ele>
        <time>2019-08-12T07:35:30Z</time>
      </trkpt>
      <trkpt lat="39.2480230" lon="-3.7627150">
        <ele>722.3</ele>
        <time>2019-08-12T07:35:31Z</time>
      </trkpt>
      <trkpt lat="39.2480670" lon="-3.7626800">
        <ele>722.4</ele>
        <time>2019-08-12T07:35:32Z</time>
      </trkpt>
      <trkpt lat="39.2481120" lon="-3.7626460">
        <ele>722.4</ele>
        <time>2019-08-12T07:35:33Z</time>
      </trkpt>
      <trkpt lat="39.2481560" lon="-3.7626110">
        <ele>722.4</ele>
        <time>2019-08-12T07:35:34Z</time>
      </trkpt>
      <trkpt lat="39.2482010" lon="-3.7625770">
        <ele>722.5</ele>
        <time>2019-08-12T07:35:35Z</time>
      </trkpt>
      <trkpt lat="39.2482450" lon="-3.7625420">
        <ele>722.5</ele>
        <time>2019-08-12T07:35:36Z</time>
      </trkpt>
      <trkpt lat="39.2482900" lon="-3.7625070">
        <ele>722.5</ele>
        <time>2019-08-12T07:35:37Z</time>
      </trkpt>
      <trkpt lat="39.2483340" lon="-3.7624720">
        <ele>722.5</ele>
        <time>2019-08-12T07:35:38Z</time>
      </trkpt>
      <trkpt lat="39.2483790" lon="-3.7624370">
        <ele>722.5</ele>
        <time>2019-08-12T07:35:39Z</time>
      </trkpt>
      <trkpt lat="39.2484230" lon="-3.7624030">
        <ele>722.5</ele>
        <time>2019-08-12T07:35:40Z</time>
      </trkpt>
      <trkpt lat="39.2484670" lon="-3.7623680">
        <ele>722.5</ele>
        <time>2019-08-12T07:35:41Z</time>
      </trkpt>
      <trkpt lat="39.2485120" lon="-3.7623330">
        <ele>722.5</ele>
        <time>2019-08-12T07:35:42Z</time>
      </trkpt>
      <trkpt lat="39.2485560" lon="-3.7622980">
        <ele>722.5</ele>
        <time>2019-08-12T07:35:43Z</time>
      </trkpt>
      <trkpt lat="39.2486000" lon="-3.7622640">
        <ele>722.5</ele>
        <time>2019-08-12T07:35:44Z</time>
      </trkpt>
      <trkpt lat="39.2486440" lon="-3.7622290">
        <ele>722.5</ele>
        <time>2019-08-12T07:35:45Z</time>
      </trkpt>
      <trkpt lat="39.2486890" lon="-3.7621940">
        <ele>722.5</ele>
        <time>2019-08-12T07:35:46Z</time>
      </trkpt>
      <trkpt lat="39.2487330" lon="-3.7621600">
        <ele>722.5</ele>
        <time>2019-08-12T07:35:47Z</time>
      </trkpt>
      <trkpt lat="39.2487770" lon="-3.7621250">
        <ele>722.5</ele>
        <time>2019-08-12T07:35:48Z</time>
      </trkpt>
      <trkpt lat="39.2488210" lon="-3.7620910">
        <ele>722.5</ele>
        <time>2019-08-12T07:35:49Z</time>
      </trkpt>
      <trkpt lat="39.2488650" lon="-3.7620570">
        <ele>722.5</ele>
        <time>2019-08-12T07:35:50Z</time>
      </trkpt>
      <trkpt lat="39.2489100" lon="-3.7620230">
        <ele>722.5</ele>
        <time>2019-08-12T07:35:51Z</time>
      </trkpt>
      <trkpt lat="39.2489540" lon="-3.7619890">
        <ele>722.5</ele>
        <time>2019-08-12T07:35:52Z</time>
      </trkpt>
      <trkpt lat="39.2489980" lon="-3.7619550">
        <ele>722.4</ele>
        <time>2019-08-12T07:35:53Z</time>
      </trkpt>
      <trkpt lat="39.2490420" lon="-3.7619220">
        <ele>722.4</ele>
        <time>2019-08-12T07:35:54Z</time>
      </trkpt>
      <trkpt lat="39.2490870" lon="-3.7618880">
        <ele>722.4</ele>
        <time>2019-08-12T07:35:55Z</time>
      </trkpt>
      <trkpt lat="39.2491310" lon="-3.7618550">
        <ele>722.4</ele>
        <time>2019-08-12T07:35:56Z</time>
      </trkpt>
      <trkpt lat="39.2491750" lon="-3.7618210">
        <ele>722.4</ele>
        <time>2019-08-12T07:35:57Z</time>
      </trkpt>
      <trkpt lat="39.2492200" lon="-3.7617880">
        <ele>722.3</ele>
        <time>2019-08-12T07:35:58Z</time>
      </trkpt>
      <trkpt lat="39.2492650" lon="-3.7617540">
        <ele>722.3</ele>
        <time>2019-08-12T07:35:59Z</time>
      </trkpt>
      <trkpt lat="39.2493090" lon="-3.7617210">
        <ele>722.2</ele>
        <time>2019-08-12T07:36:00Z</time>
      </trkpt>
      <trkpt lat="39.2493540" lon="-3.7616870">
        <ele>722.1</ele>
        <time>2019-08-12T07:36:01Z</time>
      </trkpt>
      <trkpt lat="39.2493990" lon="-3.7616530">
        <ele>722.0</ele>
        <time>2019-08-12T07:36:02Z</time>
      </trkpt>
      <trkpt lat="39.2494450" lon="-3.7616190">
        <ele>721.8</ele>
        <time>2019-08-12T07:36:03Z</time>
      </trkpt>
      <trkpt lat="39.2494900" lon="-3.7615850">
        <ele>721.7</ele>
        <time>2019-08-12T07:36:04Z</time>
      </trkpt>
      <trkpt lat="39.2495340" lon="-3.7615510">
        <ele>721.7</ele>
        <time>2019-08-12T07:36:05Z</time>
      </trkpt>
      <trkpt lat="39.2495790" lon="-3.7615180">
        <ele>721.6</ele>
        <time>2019-08-12T07:36:06Z</time>
      </trkpt>
      <trkpt lat="39.2496230" lon="-3.7614840">
        <ele>721.5</ele>
        <time>2019-08-12T07:36:07Z</time>
      </trkpt>
      <trkpt lat="39.2496660" lon="-3.7614510">
        <ele>721.5</ele>
        <time>2019-08-12T07:36:08Z</time>
      </trkpt>
      <trkpt lat="39.2497100" lon="-3.7614180">
        <ele>721.4</ele>
        <time>2019-08-12T07:36:09Z</time>
      </trkpt>
      <trkpt lat="39.2497540" lon="-3.7613850">
        <ele>721.3</ele>
        <time>2019-08-12T07:36:10Z</time>
      </trkpt>
      <trkpt lat="39.2497980" lon="-3.7613520">
        <ele>721.3</ele>
        <time>2019-08-12T07:36:11Z</time>
      </trkpt>
      <trkpt lat="39.2498420" lon="-3.7613180">
        <ele>721.2</ele>
        <time>2019-08-12T07:36:12Z</time>
      </trkpt>
      <trkpt lat="39.2498870" lon="-3.7612850">
        <ele>721.1</ele>
        <time>2019-08-12T07:36:13Z</time>
      </trkpt>
      <trkpt lat="39.2499320" lon="-3.7612520">
        <ele>721.0</ele>
        <time>2019-08-12T07:36:14Z</time>
      </trkpt>
      <trkpt lat="39.2499770" lon="-3.7612190">
        <ele>720.9</ele>
        <time>2019-08-12T07:36:15Z</time>
      </trkpt>
      <trkpt lat="39.2500230" lon="-3.7611860">
        <ele>720.8</ele>
        <time>2019-08-12T07:36:16Z</time>
      </trkpt>
      <trkpt lat="39.2500690" lon="-3.7611540">
        <ele>720.7</ele>
        <time>2019-08-12T07:36:17Z</time>
      </trkpt>
      <trkpt lat="39.2501140" lon="-3.7611230">
        <ele>720.7</ele>
        <time>2019-08-12T07:36:18Z</time>
      </trkpt>
      <trkpt lat="39.2501600" lon="-3.7610930">
        <ele>720.6</ele>
        <time>2019-08-12T07:36:19Z</time>
      </trkpt>
      <trkpt lat="39.2502070" lon="-3.7610640">
        <ele>720.6</ele>
        <time>2019-08-12T07:36:20Z</time>
      </trkpt>
      <trkpt lat="39.2502530" lon="-3.7610360">
        <ele>720.6</ele>
        <time>2019-08-12T07:36:21Z</time>
      </trkpt>
      <trkpt lat="39.2502990" lon="-3.7610090">
        <ele>720.6</ele>
        <time>2019-08-12T07:36:22Z</time>
      </trkpt>
      <trkpt lat="39.2503460" lon="-3.7609820">
        <ele>720.6</ele>
        <time>2019-08-12T07:36:23Z</time>
      </trkpt>
      <trkpt lat="39.2503920" lon="-3.7609570">
        <ele>720.6</ele>
        <time>2019-08-12T07:36:24Z</time>
      </trkpt>
      <trkpt lat="39.2504400" lon="-3.7609320">
        <ele>720.6</ele>
        <time>2019-08-12T07:36:25Z</time>
      </trkpt>
      <trkpt lat="39.2504870" lon="-3.7609080">
        <ele>720.6</ele>
        <time>2019-08-12T07:36:26Z</time>
      </trkpt>
      <trkpt lat="39.2505350" lon="-3.7608850">
        <ele>720.6</ele>
        <time>2019-08-12T07:36:27Z</time>
      </trkpt>
      <trkpt lat="39.2505830" lon="-3.7608630">
        <ele>720.6</ele>
        <time>2019-08-12T07:36:28Z</time>
      </trkpt>
      <trkpt lat="39.2506320" lon="-3.7608420">
        <ele>720.6</ele>
        <time>2019-08-12T07:36:29Z</time>
      </trkpt>
      <trkpt lat="39.2506810" lon="-3.7608200">
        <ele>720.7</ele>
        <time>2019-08-12T07:36:30Z</time>
      </trkpt>
      <trkpt lat="39.2507300" lon="-3.7607990">
        <ele>720.7</ele>
        <time>2019-08-12T07:36:31Z</time>
      </trkpt>
      <trkpt lat="39.2507790" lon="-3.7607790">
        <ele>720.8</ele>
        <time>2019-08-12T07:36:32Z</time>
      </trkpt>
      <trkpt lat="39.2508290" lon="-3.7607570">
        <ele>720.8</ele>
        <time>2019-08-12T07:36:33Z</time>
      </trkpt>
      <trkpt lat="39.2508780" lon="-3.7607360">
        <ele>720.9</ele>
        <time>2019-08-12T07:36:34Z</time>
      </trkpt>
      <trkpt lat="39.2509260" lon="-3.7607140">
        <ele>720.9</ele>
        <time>2019-08-12T07:36:35Z</time>
      </trkpt>
      <trkpt lat="39.2509750" lon="-3.7606910">
        <ele>720.9</ele>
        <time>2019-08-12T07:36:36Z</time>
      </trkpt>
      <trkpt lat="39.2510220" lon="-3.7606660">
        <ele>720.9</ele>
        <time>2019-08-12T07:36:37Z</time>
      </trkpt>
      <trkpt lat="39.2510690" lon="-3.7606410">
        <ele>720.8</ele>
        <time>2019-08-12T07:36:38Z</time>
      </trkpt>
      <trkpt lat="39.2511160" lon="-3.7606140">
        <ele>720.8</ele>
        <time>2019-08-12T07:36:39Z</time>
      </trkpt>
      <trkpt lat="39.2511610" lon="-3.7605860">
        <ele>720.7</ele>
        <time>2019-08-12T07:36:40Z</time>
      </trkpt>
      <trkpt lat="39.2512070" lon="-3.7605570">
        <ele>720.7</ele>
        <time>2019-08-12T07:36:41Z</time>
      </trkpt>
      <trkpt lat="39.2512510" lon="-3.7605270">
        <ele>720.6</ele>
        <time>2019-08-12T07:36:42Z</time>
      </trkpt>
      <trkpt lat="39.2512960" lon="-3.7604970">
        <ele>720.6</ele>
        <time>2019-08-12T07:36:43Z</time>
      </trkpt>
      <trkpt lat="39.2513390" lon="-3.7604660">
        <ele>720.6</ele>
        <time>2019-08-12T07:36:44Z</time>
      </trkpt>
      <trkpt lat="39.2513830" lon="-3.7604340">
        <ele>720.6</ele>
        <time>2019-08-12T07:36:45Z</time>
      </trkpt>
      <trkpt lat="39.2514260" lon="-3.7604020">
        <ele>720.6</ele>
        <time>2019-08-12T07:36:46Z</time>
      </trkpt>
      <trkpt lat="39.2514690" lon="-3.7603690">
        <ele>720.6</ele>
        <time>2019-08-12T07:36:47Z</time>
      </trkpt>
      <trkpt lat="39.2515120" lon="-3.7603370">
        <ele>720.6</ele>
        <time>2019-08-12T07:36:48Z</time>
      </trkpt>
      <trkpt lat="39.2515540" lon="-3.7603040">
        <ele>720.7</ele>
        <time>2019-08-12T07:36:49Z</time>
      </trkpt>
      <trkpt lat="39.2515970" lon="-3.7602710">
        <ele>720.7</ele>
        <time>2019-08-12T07:36:50Z</time>
      </trkpt>
      <trkpt lat="39.2516390" lon="-3.7602380">
        <ele>720.8</ele>
        <time>2019-08-12T07:36:51Z</time>
      </trkpt>
      <trkpt lat="39.2516810" lon="-3.7602040">
        <ele>720.9</ele>
        <time>2019-08-12T07:36:52Z</time>
      </trkpt>
      <trkpt lat="39.2517240" lon="-3.7601710">
        <ele>721.0</ele>
        <time>2019-08-12T07:36:53Z</time>
      </trkpt>
      <trkpt lat="39.2517660" lon="-3.7601380">
        <ele>721.1</ele>
        <time>2019-08-12T07:36:54Z</time>
      </trkpt>
      <trkpt lat="39.2518080" lon="-3.7601060">
        <ele>721.2</ele>
        <time>2019-08-12T07:36:55Z</time>
      </trkpt>
      <trkpt lat="39.2518500" lon="-3.7600730">
        <ele>721.3</ele>
        <time>2019-08-12T07:36:56Z</time>
      </trkpt>
      <trkpt lat="39.2518920" lon="-3.7600410">
        <ele>721.3</ele>
        <time>2019-08-12T07:36:57Z</time>
      </trkpt>
      <trkpt lat="39.2519340" lon="-3.7600090">
        <ele>721.4</ele>
        <time>2019-08-12T07:36:58Z</time>
      </trkpt>
      <trkpt lat="39.2519770" lon="-3.7599780">
        <ele>721.4</ele>
        <time>2019-08-12T07:36:59Z</time>
      </trkpt>
      <trkpt lat="39.2520190" lon="-3.7599480">
        <ele>721.4</ele>
        <time>2019-08-12T07:37:00Z</time>
      </trkpt>
      <trkpt lat="39.2520620" lon="-3.7599190">
        <ele>721.4</ele>
        <time>2019-08-12T07:37:01Z</time>
      </trkpt>
      <trkpt lat="39.2521050" lon="-3.7598910">
        <ele>721.5</ele>
        <time>2019-08-12T07:37:02Z</time>
      </trkpt>
      <trkpt lat="39.2521480" lon="-3.7598650">
        <ele>721.5</ele>
        <time>2019-08-12T07:37:03Z</time>
      </trkpt>
      <trkpt lat="39.2521920" lon="-3.7598400">
        <ele>721.5</ele>
        <time>2019-08-12T07:37:04Z</time>
      </trkpt>
      <trkpt lat="39.2522360" lon="-3.7598170">
        <ele>721.6</ele>
        <time>2019-08-12T07:37:05Z</time>
      </trkpt>
      <trkpt lat="39.2522810" lon="-3.7597960">
        <ele>721.7</ele>
        <time>2019-08-12T07:37:06Z</time>
      </trkpt>
      <trkpt lat="39.2523260" lon="-3.7597750">
        <ele>721.8</ele>
        <time>2019-08-12T07:37:07Z</time>
      </trkpt>
      <trkpt lat="39.2523710" lon="-3.7597550">
        <ele>721.8</ele>
        <time>2019-08-12T07:37:08Z</time>
      </trkpt>
      <trkpt lat="39.2524170" lon="-3.7597340">
        <ele>721.9</ele>
        <time>2019-08-12T07:37:09Z</time>
      </trkpt>
      <trkpt lat="39.2524620" lon="-3.7597120">
        <ele>722.1</ele>
        <time>2019-08-12T07:37:10Z</time>
      </trkpt>
      <trkpt lat="39.2525070" lon="-3.7596860">
        <ele>722.1</ele>
        <time>2019-08-12T07:37:11Z</time>
      </trkpt>
      <trkpt lat="39.2525520" lon="-3.7596600">
        <ele>722.2</ele>
        <time>2019-08-12T07:37:12Z</time>
      </trkpt>
      <trkpt lat="39.2525970" lon="-3.7596340">
        <ele>722.3</ele>
        <time>2019-08-12T07:37:13Z</time>
      </trkpt>
      <trkpt lat="39.2526430" lon="-3.7596100">
        <ele>722.3</ele>
        <time>2019-08-12T07:37:14Z</time>
      </trkpt>
      <trkpt lat="39.2526880" lon="-3.7595900">
        <ele>722.3</ele>
        <time>2019-08-12T07:37:15Z</time>
      </trkpt>
      <trkpt lat="39.2527340" lon="-3.7595730">
        <ele>722.3</ele>
        <time>2019-08-12T07:37:16Z</time>
      </trkpt>
      <trkpt lat="39.2527800" lon="-3.7595590">
        <ele>722.3</ele>
        <time>2019-08-12T07:37:17Z</time>
      </trkpt>
      <trkpt lat="39.2528270" lon="-3.7595460">
        <ele>722.3</ele>
        <time>2019-08-12T07:37:18Z</time>
      </trkpt>
      <trkpt lat="39.2528730" lon="-3.7595350">
        <ele>722.3</ele>
        <time>2019-08-12T07:37:19Z</time>
      </trkpt>
      <trkpt lat="39.2529190" lon="-3.7595250">
        <ele>722.3</ele>
        <time>2019-08-12T07:37:20Z</time>
      </trkpt>
      <trkpt lat="39.2529650" lon="-3.7595150">
        <ele>722.3</ele>
        <time>2019-08-12T07:37:21Z</time>
      </trkpt>
      <trkpt lat="39.2530120" lon="-3.7595040">
        <ele>722.4</ele>
        <time>2019-08-12T07:37:22Z</time>
      </trkpt>
      <trkpt lat="39.2530570" lon="-3.7594920">
        <ele>722.4</ele>
        <time>2019-08-12T07:37:23Z</time>
      </trkpt>
      <trkpt lat="39.2531030" lon="-3.7594790">
        <ele>722.4</ele>
        <time>2019-08-12T07:37:24Z</time>
      </trkpt>
      <trkpt lat="39.2531480" lon="-3.7594650">
        <ele>722.5</ele>
        <time>2019-08-12T07:37:25Z</time>
      </trkpt>
      <trkpt lat="39.2531930" lon="-3.7594490">
        <ele>722.5</ele>
        <time>2019-08-12T07:37:26Z</time>
      </trkpt>
      <trkpt lat="39.2532380" lon="-3.7594310">
        <ele>722.5</ele>
        <time>2019-08-12T07:37:27Z</time>
      </trkpt>
      <trkpt lat="39.2532840" lon="-3.7594130">
        <ele>722.6</ele>
        <time>2019-08-12T07:37:28Z</time>
      </trkpt>
      <trkpt lat="39.2533290" lon="-3.7593930">
        <ele>722.7</ele>
        <time>2019-08-12T07:37:29Z</time>
      </trkpt>
      <trkpt lat="39.2533740" lon="-3.7593730">
        <ele>722.9</ele>
        <time>2019-08-12T07:37:30Z</time>
      </trkpt>
      <trkpt lat="39.2534200" lon="-3.7593510">
        <ele>722.9</ele>
        <time>2019-08-12T07:37:31Z</time>
      </trkpt>
      <trkpt lat="39.2534660" lon="-3.7593290">
        <ele>723.1</ele>
        <time>2019-08-12T07:37:32Z</time>
      </trkpt>
      <trkpt lat="39.2535130" lon="-3.7593070">
        <ele>723.3</ele>
        <time>2019-08-12T07:37:33Z</time>
      </trkpt>
      <trkpt lat="39.2535600" lon="-3.7592830">
        <ele>723.5</ele>
        <time>2019-08-12T07:37:34Z</time>
      </trkpt>
      <trkpt lat="39.2536080" lon="-3.7592600">
        <ele>723.6</ele>
        <time>2019-08-12T07:37:35Z</time>
      </trkpt>
      <trkpt lat="39.2536560" lon="-3.7592370">
        <ele>723.7</ele>
        <time>2019-08-12T07:37:36Z</time>
      </trkpt>
      <trkpt lat="39.2537040" lon="-3.7592130">
        <ele>723.9</ele>
        <time>2019-08-12T07:37:37Z</time>
      </trkpt>
      <trkpt lat="39.2537520" lon="-3.7591910">
        <ele>724.0</ele>
        <time>2019-08-12T07:37:38Z</time>
      </trkpt>
      <trkpt lat="39.2538000" lon="-3.7591690">
        <ele>724.2</ele>
        <time>2019-08-12T07:37:39Z</time>
      </trkpt>
      <trkpt lat="39.2538470" lon="-3.7591480">
        <ele>724.2</ele>
        <time>2019-08-12T07:37:40Z</time>
      </trkpt>
      <trkpt lat="39.2538950" lon="-3.7591280">
        <ele>724.3</ele>
        <time>2019-08-12T07:37:41Z</time>
      </trkpt>
      <trkpt lat="39.2539420" lon="-3.7591100">
        <ele>724.4</ele>
        <time>2019-08-12T07:37:42Z</time>
      </trkpt>
      <trkpt lat="39.2539880" lon="-3.7590930">
        <ele>724.4</ele>
        <time>2019-08-12T07:37:43Z</time>
      </trkpt>
      <trkpt lat="39.2540340" lon="-3.7590770">
        <ele>724.5</ele>
        <time>2019-08-12T07:37:44Z</time>
      </trkpt>
      <trkpt lat="39.2540790" lon="-3.7590630">
        <ele>724.5</ele>
        <time>2019-08-12T07:37:45Z</time>
      </trkpt>
      <trkpt lat="39.2541240" lon="-3.7590500">
        <ele>724.5</ele>
        <time>2019-08-12T07:37:46Z</time>
      </trkpt>
      <trkpt lat="39.2541680" lon="-3.7590380">
        <ele>724.5</ele>
        <time>2019-08-12T07:37:47Z</time>
      </trkpt>
      <trkpt lat="39.2542120" lon="-3.7590260">
        <ele>724.5</ele>
        <time>2019-08-12T07:37:48Z</time>
      </trkpt>
      <trkpt lat="39.2542570" lon="-3.7590140">
        <ele>724.5</ele>
        <time>2019-08-12T07:37:49Z</time>
      </trkpt>
      <trkpt lat="39.2543010" lon="-3.7590020">
        <ele>724.4</ele>
        <time>2019-08-12T07:37:50Z</time>
      </trkpt>
      <trkpt lat="39.2543450" lon="-3.7589900">
        <ele>724.4</ele>
        <time>2019-08-12T07:37:51Z</time>
      </trkpt>
      <trkpt lat="39.2543890" lon="-3.7589780">
        <ele>724.4</ele>
        <time>2019-08-12T07:37:52Z</time>
      </trkpt>
      <trkpt lat="39.2544330" lon="-3.7589650">
        <ele>724.4</ele>
        <time>2019-08-12T07:37:53Z</time>
      </trkpt>
      <trkpt lat="39.2544770" lon="-3.7589520">
        <ele>724.4</ele>
        <time>2019-08-12T07:37:54Z</time>
      </trkpt>
      <trkpt lat="39.2545210" lon="-3.7589380">
        <ele>724.3</ele>
        <time>2019-08-12T07:37:55Z</time>
      </trkpt>
      <trkpt lat="39.2545640" lon="-3.7589240">
        <ele>724.3</ele>
        <time>2019-08-12T07:37:56Z</time>
      </trkpt>
      <trkpt lat="39.2546070" lon="-3.7589090">
        <ele>724.3</ele>
        <time>2019-08-12T07:37:57Z</time>
      </trkpt>
      <trkpt lat="39.2546500" lon="-3.7588930">
        <ele>724.3</ele>
        <time>2019-08-12T07:37:58Z</time>
      </trkpt>
      <trkpt lat="39.2546920" lon="-3.7588770">
        <ele>724.3</ele>
        <time>2019-08-12T07:37:59Z</time>
      </trkpt>
      <trkpt lat="39.2547330" lon="-3.7588600">
        <ele>724.3</ele>
        <time>2019-08-12T07:38:00Z</time>
      </trkpt>
      <trkpt lat="39.2547740" lon="-3.7588420">
        <ele>724.2</ele>
        <time>2019-08-12T07:38:01Z</time>
      </trkpt>
      <trkpt lat="39.2548130" lon="-3.7588230">
        <ele>724.2</ele>
        <time>2019-08-12T07:38:02Z</time>
      </trkpt>
      <trkpt lat="39.2548530" lon="-3.7588040">
        <ele>724.2</ele>
        <time>2019-08-12T07:38:03Z</time>
      </trkpt>
      <trkpt lat="39.2548910" lon="-3.7587830">
        <ele>724.2</ele>
        <time>2019-08-12T07:38:04Z</time>
      </trkpt>
      <trkpt lat="39.2549290" lon="-3.7587620">
        <ele>724.2</ele>
        <time>2019-08-12T07:38:05Z</time>
      </trkpt>
      <trkpt lat="39.2549670" lon="-3.7587390">
        <ele>724.2</ele>
        <time>2019-08-12T07:38:06Z</time>
      </trkpt>
      <trkpt lat="39.2550040" lon="-3.7587150">
        <ele>724.3</ele>
        <time>2019-08-12T07:38:07Z</time>
      </trkpt>
      <trkpt lat="39.2550410" lon="-3.7586900">
        <ele>724.3</ele>
        <time>2019-08-12T07:38:08Z</time>
      </trkpt>
      <trkpt lat="39.2550780" lon="-3.7586640">
        <ele>724.2</ele>
        <time>2019-08-12T07:38:09Z</time>
      </trkpt>
      <trkpt lat="39.2551150" lon="-3.7586370">
        <ele>724.3</ele>
        <time>2019-08-12T07:38:10Z</time>
      </trkpt>
      <trkpt lat="39.2551510" lon="-3.7586080">
        <ele>724.3</ele>
        <time>2019-08-12T07:38:11Z</time>
      </trkpt>
      <trkpt lat="39.2551880" lon="-3.7585790">
        <ele>724.2</ele>
        <time>2019-08-12T07:38:12Z</time>
      </trkpt>
      <trkpt lat="39.2552240" lon="-3.7585480">
        <ele>724.2</ele>
        <time>2019-08-12T07:38:13Z</time>
      </trkpt>
      <trkpt lat="39.2552610" lon="-3.7585180">
        <ele>724.2</ele>
        <time>2019-08-12T07:38:14Z</time>
      </trkpt>
      <trkpt lat="39.2552980" lon="-3.7584870">
        <ele>724.2</ele>
        <time>2019-08-12T07:38:15Z</time>
      </trkpt>
      <trkpt lat="39.2553350" lon="-3.7584570">
        <ele>724.2</ele>
        <time>2019-08-12T07:38:16Z</time>
      </trkpt>
      <trkpt lat="39.2553730" lon="-3.7584270">
        <ele>724.2</ele>
        <time>2019-08-12T07:38:17Z</time>
      </trkpt>
      <trkpt lat="39.2554110" lon="-3.7583980">
        <ele>724.2</ele>
        <time>2019-08-12T07:38:18Z</time>
      </trkpt>
      <trkpt lat="39.2554500" lon="-3.7583700">
        <ele>724.2</ele>
        <time>2019-08-12T07:38:19Z</time>
      </trkpt>
      <trkpt lat="39.2554890" lon="-3.7583440">
        <ele>724.2</ele>
        <time>2019-08-12T07:38:20Z</time>
      </trkpt>
      <trkpt lat="39.2555290" lon="-3.7583190">
        <ele>724.2</ele>
        <time>2019-08-12T07:38:21Z</time>
      </trkpt>
      <trkpt lat="39.2555690" lon="-3.7582950">
        <ele>724.3</ele>
        <time>2019-08-12T07:38:22Z</time>
      </trkpt>
      <trkpt lat="39.2556100" lon="-3.7582720">
        <ele>724.3</ele>
        <time>2019-08-12T07:38:23Z</time>
      </trkpt>
      <trkpt lat="39.2556510" lon="-3.7582490">
        <ele>724.3</ele>
        <time>2019-08-12T07:38:24Z</time>
      </trkpt>
      <trkpt lat="39.2556920" lon="-3.7582270">
        <ele>724.3</ele>
        <time>2019-08-12T07:38:25Z</time>
      </trkpt>
      <trkpt lat="39.2557330" lon="-3.7582050">
        <ele>724.4</ele>
        <time>2019-08-12T07:38:26Z</time>
      </trkpt>
      <trkpt lat="39.2557740" lon="-3.7581820">
        <ele>724.5</ele>
        <time>2019-08-12T07:38:27Z</time>
      </trkpt>
      <trkpt lat="39.2558150" lon="-3.7581590">
        <ele>724.5</ele>
        <time>2019-08-12T07:38:28Z</time>
      </trkpt>
      <trkpt lat="39.2558550" lon="-3.7581360">
        <ele>724.7</ele>
        <time>2019-08-12T07:38:29Z</time>
      </trkpt>
      <trkpt lat="39.2558950" lon="-3.7581110">
        <ele>724.7</ele>
        <time>2019-08-12T07:38:30Z</time>
      </trkpt>
      <trkpt lat="39.2559350" lon="-3.7580870">
        <ele>724.8</ele>
        <time>2019-08-12T07:38:31Z</time>
      </trkpt>
      <trkpt lat="39.2559750" lon="-3.7580610">
        <ele>724.9</ele>
        <time>2019-08-12T07:38:32Z</time>
      </trkpt>
      <trkpt lat="39.2560150" lon="-3.7580350">
        <ele>725.0</ele>
        <time>2019-08-12T07:38:33Z</time>
      </trkpt>
      <trkpt lat="39.2560550" lon="-3.7580090">
        <ele>725.2</ele>
        <time>2019-08-12T07:38:34Z</time>
      </trkpt>
      <trkpt lat="39.2560950" lon="-3.7579830">
        <ele>725.2</ele>
        <time>2019-08-12T07:38:35Z</time>
      </trkpt>
      <trkpt lat="39.2561350" lon="-3.7579560">
        <ele>725.4</ele>
        <time>2019-08-12T07:38:36Z</time>
      </trkpt>
      <trkpt lat="39.2561750" lon="-3.7579290">
        <ele>725.4</ele>
        <time>2019-08-12T07:38:37Z</time>
      </trkpt>
      <trkpt lat="39.2562150" lon="-3.7579020">
        <ele>725.6</ele>
        <time>2019-08-12T07:38:38Z</time>
      </trkpt>
      <trkpt lat="39.2562550" lon="-3.7578750">
        <ele>725.8</ele>
        <time>2019-08-12T07:38:39Z</time>
      </trkpt>
      <trkpt lat="39.2562960" lon="-3.7578480">
        <ele>725.8</ele>
        <time>2019-08-12T07:38:40Z</time>
      </trkpt>
      <trkpt lat="39.2563360" lon="-3.7578210">
        <ele>726.0</ele>
        <time>2019-08-12T07:38:41Z</time>
      </trkpt>
      <trkpt lat="39.2563760" lon="-3.7577940">
        <ele>726.1</ele>
        <time>2019-08-12T07:38:42Z</time>
      </trkpt>
      <trkpt lat="39.2564170" lon="-3.7577670">
        <ele>726.2</ele>
        <time>2019-08-12T07:38:43Z</time>
      </trkpt>
      <trkpt lat="39.2564570" lon="-3.7577410">
        <ele>726.3</ele>
        <time>2019-08-12T07:38:44Z</time>
      </trkpt>
      <trkpt lat="39.2564980" lon="-3.7577140">
        <ele>726.3</ele>
        <time>2019-08-12T07:38:45Z</time>
      </trkpt>
      <trkpt lat="39.2565380" lon="-3.7576890">
        <ele>726.4</ele>
        <time>2019-08-12T07:38:46Z</time>
      </trkpt>
      <trkpt lat="39.2565780" lon="-3.7576630">
        <ele>726.5</ele>
        <time>2019-08-12T07:38:47Z</time>
      </trkpt>
      <trkpt lat="39.2566180" lon="-3.7576380">
        <ele>726.6</ele>
        <time>2019-08-12T07:38:48Z</time>
      </trkpt>
      <trkpt lat="39.2566570" lon="-3.7576140">
        <ele>726.7</ele>
        <time>2019-08-12T07:38:49Z</time>
      </trkpt>
      <trkpt lat="39.2566970" lon="-3.7575890">
        <ele>726.7</ele>
        <time>2019-08-12T07:38:50Z</time>
      </trkpt>
      <trkpt lat="39.2567360" lon="-3.7575650">
        <ele>726.8</ele>
        <time>2019-08-12T07:38:51Z</time>
      </trkpt>
      <trkpt lat="39.2567760" lon="-3.7575410">
        <ele>726.9</ele>
        <time>2019-08-12T07:38:52Z</time>
      </trkpt>
      <trkpt lat="39.2568150" lon="-3.7575160">
        <ele>727.0</ele>
        <time>2019-08-12T07:38:53Z</time>
      </trkpt>
      <trkpt lat="39.2568550" lon="-3.7574910">
        <ele>727.0</ele>
        <time>2019-08-12T07:38:54Z</time>
      </trkpt>
      <trkpt lat="39.2568940" lon="-3.7574660">
        <ele>727.0</ele>
        <time>2019-08-12T07:38:55Z</time>
      </trkpt>
      <trkpt lat="39.2569340" lon="-3.7574410">
        <ele>727.1</ele>
        <time>2019-08-12T07:38:56Z</time>
      </trkpt>
      <trkpt lat="39.2569740" lon="-3.7574150">
        <ele>727.1</ele>
        <time>2019-08-12T07:38:57Z</time>
      </trkpt>
      <trkpt lat="39.2570140" lon="-3.7573880">
        <ele>727.2</ele>
        <time>2019-08-12T07:38:58Z</time>
      </trkpt>
      <trkpt lat="39.2570540" lon="-3.7573610">
        <ele>727.2</ele>
        <time>2019-08-12T07:38:59Z</time>
      </trkpt>
      <trkpt lat="39.2570940" lon="-3.7573330">
        <ele>727.2</ele>
        <time>2019-08-12T07:39:00Z</time>
      </trkpt>
      <trkpt lat="39.2571320" lon="-3.7573040">
        <ele>727.3</ele>
        <time>2019-08-12T07:39:01Z</time>
      </trkpt>
      <trkpt lat="39.2571700" lon="-3.7572750">
        <ele>727.3</ele>
        <time>2019-08-12T07:39:02Z</time>
      </trkpt>
      <trkpt lat="39.2572080" lon="-3.7572440">
        <ele>727.3</ele>
        <time>2019-08-12T07:39:03Z</time>
      </trkpt>
      <trkpt lat="39.2572450" lon="-3.7572130">
        <ele>727.4</ele>
        <time>2019-08-12T07:39:04Z</time>
      </trkpt>
      <trkpt lat="39.2572820" lon="-3.7571810">
        <ele>727.4</ele>
        <time>2019-08-12T07:39:05Z</time>
      </trkpt>
      <trkpt lat="39.2573190" lon="-3.7571480">
        <ele>727.4</ele>
        <time>2019-08-12T07:39:06Z</time>
      </trkpt>
      <trkpt lat="39.2573570" lon="-3.7571150">
        <ele>727.4</ele>
        <time>2019-08-12T07:39:07Z</time>
      </trkpt>
      <trkpt lat="39.2573950" lon="-3.7570810">
        <ele>727.5</ele>
        <time>2019-08-12T07:39:08Z</time>
      </trkpt>
      <trkpt lat="39.2574330" lon="-3.7570470">
        <ele>727.5</ele>
        <time>2019-08-12T07:39:09Z</time>
      </trkpt>
      <trkpt lat="39.2574700" lon="-3.7570120">
        <ele>727.5</ele>
        <time>2019-08-12T07:39:10Z</time>
      </trkpt>
      <trkpt lat="39.2575080" lon="-3.7569770">
        <ele>727.5</ele>
        <time>2019-08-12T07:39:11Z</time>
      </trkpt>
      <trkpt lat="39.2575450" lon="-3.7569420">
        <ele>727.5</ele>
        <time>2019-08-12T07:39:12Z</time>
      </trkpt>
      <trkpt lat="39.2575820" lon="-3.7569080">
        <ele>727.5</ele>
        <time>2019-08-12T07:39:13Z</time>
      </trkpt>
      <trkpt lat="39.2576180" lon="-3.7568740">
        <ele>727.5</ele>
        <time>2019-08-12T07:39:14Z</time>
      </trkpt>
      <trkpt lat="39.2576530" lon="-3.7568400">
        <ele>727.5</ele>
        <time>2019-08-12T07:39:15Z</time>
      </trkpt>
      <trkpt lat="39.2576880" lon="-3.7568060">
        <ele>727.5</ele>
        <time>2019-08-12T07:39:16Z</time>
      </trkpt>
      <trkpt lat="39.2577230" lon="-3.7567730">
        <ele>727.6</ele>
        <time>2019-08-12T07:39:17Z</time>
      </trkpt>
      <trkpt lat="39.2577560" lon="-3.7567400">
        <ele>727.6</ele>
        <time>2019-08-12T07:39:18Z</time>
      </trkpt>
      <trkpt lat="39.2577900" lon="-3.7567060">
        <ele>727.6</ele>
        <time>2019-08-12T07:39:19Z</time>
      </trkpt>
      <trkpt lat="39.2578230" lon="-3.7566720">
        <ele>727.6</ele>
        <time>2019-08-12T07:39:20Z</time>
      </trkpt>
      <trkpt lat="39.2578570" lon="-3.7566380">
        <ele>727.6</ele>
        <time>2019-08-12T07:39:21Z</time>
      </trkpt>
      <trkpt lat="39.2578900" lon="-3.7566020">
        <ele>727.6</ele>
        <time>2019-08-12T07:39:22Z</time>
      </trkpt>
      <trkpt lat="39.2579230" lon="-3.7565660">
        <ele>727.6</ele>
        <time>2019-08-12T07:39:23Z</time>
      </trkpt>
      <trkpt lat="39.2579560" lon="-3.7565290">
        <ele>727.7</ele>
        <time>2019-08-12T07:39:24Z</time>
      </trkpt>
      <trkpt lat="39.2579900" lon="-3.7564900">
        <ele>727.7</ele>
        <time>2019-08-12T07:39:25Z</time>
      </trkpt>
      <trkpt lat="39.2580240" lon="-3.7564510">
        <ele>727.7</ele>
        <time>2019-08-12T07:39:26Z</time>
      </trkpt>
      <trkpt lat="39.2580570" lon="-3.7564110">
        <ele>727.8</ele>
        <time>2019-08-12T07:39:27Z</time>
      </trkpt>
      <trkpt lat="39.2580910" lon="-3.7563700">
        <ele>727.8</ele>
        <time>2019-08-12T07:39:28Z</time>
      </trkpt>
      <trkpt lat="39.2581250" lon="-3.7563290">
        <ele>727.8</ele>
        <time>2019-08-12T07:39:29Z</time>
      </trkpt>
      <trkpt lat="39.2581590" lon="-3.7562880">
        <ele>727.9</ele>
        <time>2019-08-12T07:39:30Z</time>
      </trkpt>
      <trkpt lat="39.2581930" lon="-3.7562480">
        <ele>728.0</ele>
        <time>2019-08-12T07:39:31Z</time>
      </trkpt>
      <trkpt lat="39.2582260" lon="-3.7562080">
        <ele>728.0</ele>
        <time>2019-08-12T07:39:32Z</time>
      </trkpt>
      <trkpt lat="39.2582600" lon="-3.7561680">
        <ele>728.0</ele>
        <time>2019-08-12T07:39:33Z</time>
      </trkpt>
      <trkpt lat="39.2582920" lon="-3.7561300">
        <ele>728.1</ele>
        <time>2019-08-12T07:39:34Z</time>
      </trkpt>
      <trkpt lat="39.2583250" lon="-3.7560920">
        <ele>728.1</ele>
        <time>2019-08-12T07:39:35Z</time>
      </trkpt>
      <trkpt lat="39.2583570" lon="-3.7560550">
        <ele>728.2</ele>
        <time>2019-08-12T07:39:36Z</time>
      </trkpt>
      <trkpt lat="39.2583870" lon="-3.7560170">
        <ele>728.3</ele>
        <time>2019-08-12T07:39:37Z</time>
      </trkpt>
      <trkpt lat="39.2584170" lon="-3.7559770">
        <ele>728.3</ele>
        <time>2019-08-12T07:39:38Z</time>
      </trkpt>
      <trkpt lat="39.2584450" lon="-3.7559370">
        <ele>728.4</ele>
        <time>2019-08-12T07:39:39Z</time>
      </trkpt>
      <trkpt lat="39.2584720" lon="-3.7558950">
        <ele>728.4</ele>
        <time>2019-08-12T07:39:40Z</time>
      </trkpt>
      <trkpt lat="39.2584990" lon="-3.7558530">
        <ele>728.5</ele>
        <time>2019-08-12T07:39:41Z</time>
      </trkpt>
      <trkpt lat="39.2585260" lon="-3.7558110">
        <ele>728.6</ele>
        <time>2019-08-12T07:39:42Z</time>
      </trkpt>
      <trkpt lat="39.2585540" lon="-3.7557690">
        <ele>728.6</ele>
        <time>2019-08-12T07:39:43Z</time>
      </trkpt>
      <trkpt lat="39.2585810" lon="-3.7557270">
        <ele>728.7</ele>
        <time>2019-08-12T07:39:44Z</time>
      </trkpt>
      <trkpt lat="39.2586090" lon="-3.7556860">
        <ele>728.8</ele>
        <time>2019-08-12T07:39:45Z</time>
      </trkpt>
      <trkpt lat="39.2586380" lon="-3.7556450">
        <ele>728.8</ele>
        <time>2019-08-12T07:39:46Z</time>
      </trkpt>
      <trkpt lat="39.2586660" lon="-3.7556030">
        <ele>728.9</ele>
        <time>2019-08-12T07:39:47Z</time>
      </trkpt>
      <trkpt lat="39.2586940" lon="-3.7555610">
        <ele>729.0</ele>
        <time>2019-08-12T07:39:48Z</time>
      </trkpt>
      <trkpt lat="39.2587230" lon="-3.7555200">
        <ele>729.0</ele>
        <time>2019-08-12T07:39:49Z</time>
      </trkpt>
      <trkpt lat="39.2587500" lon="-3.7554770">
        <ele>729.1</ele>
        <time>2019-08-12T07:39:50Z</time>
      </trkpt>
      <trkpt lat="39.2587780" lon="-3.7554340">
        <ele>729.1</ele>
        <time>2019-08-12T07:39:51Z</time>
      </trkpt>
      <trkpt lat="39.2588050" lon="-3.7553910">
        <ele>729.2</ele>
        <time>2019-08-12T07:39:52Z</time>
      </trkpt>
      <trkpt lat="39.2588320" lon="-3.7553480">
        <ele>729.3</ele>
        <time>2019-08-12T07:39:53Z</time>
      </trkpt>
      <trkpt lat="39.2588580" lon="-3.7553040">
        <ele>729.3</ele>
        <time>2019-08-12T07:39:54Z</time>
      </trkpt>
      <trkpt lat="39.2588850" lon="-3.7552610">
        <ele>729.4</ele>
        <time>2019-08-12T07:39:55Z</time>
      </trkpt>
      <trkpt lat="39.2589120" lon="-3.7552180">
        <ele>729.4</ele>
        <time>2019-08-12T07:39:56Z</time>
      </trkpt>
      <trkpt lat="39.2589380" lon="-3.7551760">
        <ele>729.5</ele>
        <time>2019-08-12T07:39:57Z</time>
      </trkpt>
      <trkpt lat="39.2589660" lon="-3.7551360">
        <ele>729.5</ele>
        <time>2019-08-12T07:39:58Z</time>
      </trkpt>
      <trkpt lat="39.2589930" lon="-3.7550970">
        <ele>729.5</ele>
        <time>2019-08-12T07:39:59Z</time>
      </trkpt>
      <trkpt lat="39.2590220" lon="-3.7550590">
        <ele>729.5</ele>
        <time>2019-08-12T07:40:00Z</time>
      </trkpt>
      <trkpt lat="39.2590510" lon="-3.7550240">
        <ele>729.6</ele>
        <time>2019-08-12T07:40:01Z</time>
      </trkpt>
      <trkpt lat="39.2590810" lon="-3.7549920">
        <ele>729.6</ele>
        <time>2019-08-12T07:40:02Z</time>
      </trkpt>
      <trkpt lat="39.2591120" lon="-3.7549610">
        <ele>729.6</ele>
        <time>2019-08-12T07:40:03Z</time>
      </trkpt>
      <trkpt lat="39.2591450" lon="-3.7549320">
        <ele>729.6</ele>
        <time>2019-08-12T07:40:04Z</time>
      </trkpt>
      <trkpt lat="39.2591780" lon="-3.7549040">
        <ele>729.6</ele>
        <time>2019-08-12T07:40:05Z</time>
      </trkpt>
      <trkpt lat="39.2592130" lon="-3.7548760">
        <ele>729.6</ele>
        <time>2019-08-12T07:40:06Z</time>
      </trkpt>
      <trkpt lat="39.2592490" lon="-3.7548500">
        <ele>729.6</ele>
        <time>2019-08-12T07:40:07Z</time>
      </trkpt>
      <trkpt lat="39.2592860" lon="-3.7548220">
        <ele>729.6</ele>
        <time>2019-08-12T07:40:08Z</time>
      </trkpt>
      <trkpt lat="39.2593240" lon="-3.7547950">
        <ele>729.6</ele>
        <time>2019-08-12T07:40:09Z</time>
      </trkpt>
      <trkpt lat="39.2593640" lon="-3.7547660">
        <ele>729.7</ele>
        <time>2019-08-12T07:40:10Z</time>
      </trkpt>
      <trkpt lat="39.2594050" lon="-3.7547370">
        <ele>729.7</ele>
        <time>2019-08-12T07:40:11Z</time>
      </trkpt>
      <trkpt lat="39.2594470" lon="-3.7547060">
        <ele>729.7</ele>
        <time>2019-08-12T07:40:12Z</time>
      </trkpt>
      <trkpt lat="39.2594890" lon="-3.7546770">
        <ele>729.7</ele>
        <time>2019-08-12T07:40:13Z</time>
      </trkpt>
      <trkpt lat="39.2595310" lon="-3.7546490">
        <ele>729.7</ele>
        <time>2019-08-12T07:40:14Z</time>
      </trkpt>
      <trkpt lat="39.2595710" lon="-3.7546240">
        <ele>729.7</ele>
        <time>2019-08-12T07:40:15Z</time>
      </trkpt>
      <trkpt lat="39.2596100" lon="-3.7546030">
        <ele>729.8</ele>
        <time>2019-08-12T07:40:16Z</time>
      </trkpt>
      <trkpt lat="39.2596470" lon="-3.7545850">
        <ele>729.8</ele>
        <time>2019-08-12T07:40:17Z</time>
      </trkpt>
      <trkpt lat="39.2596830" lon="-3.7545680">
        <ele>729.8</ele>
        <time>2019-08-12T07:40:18Z</time>
      </trkpt>
      <trkpt lat="39.2597190" lon="-3.7545540">
        <ele>729.8</ele>
        <time>2019-08-12T07:40:19Z</time>
      </trkpt>
      <trkpt lat="39.2597560" lon="-3.7545400">
        <ele>729.8</ele>
        <time>2019-08-12T07:40:20Z</time>
      </trkpt>
      <trkpt lat="39.2597930" lon="-3.7545260">
        <ele>729.8</ele>
        <time>2019-08-12T07:40:21Z</time>
      </trkpt>
      <trkpt lat="39.2598290" lon="-3.7545110">
        <ele>729.9</ele>
        <time>2019-08-12T07:40:22Z</time>
      </trkpt>
      <trkpt lat="39.2598660" lon="-3.7544950">
        <ele>729.9</ele>
        <time>2019-08-12T07:40:23Z</time>
      </trkpt>
      <trkpt lat="39.2599030" lon="-3.7544770">
        <ele>729.9</ele>
        <time>2019-08-12T07:40:24Z</time>
      </trkpt>
      <trkpt lat="39.2599390" lon="-3.7544550">
        <ele>730.0</ele>
        <time>2019-08-12T07:40:25Z</time>
      </trkpt>
      <trkpt lat="39.2599750" lon="-3.7544320">
        <ele>730.0</ele>
        <time>2019-08-12T07:40:26Z</time>
      </trkpt>
      <trkpt lat="39.2600100" lon="-3.7544070">
        <ele>730.1</ele>
        <time>2019-08-12T07:40:27Z</time>
      </trkpt>
      <trkpt lat="39.2600460" lon="-3.7543810">
        <ele>730.2</ele>
        <time>2019-08-12T07:40:28Z</time>
      </trkpt>
      <trkpt lat="39.2600830" lon="-3.7543550">
        <ele>730.3</ele>
        <time>2019-08-12T07:40:29Z</time>
      </trkpt>
      <trkpt lat="39.2601190" lon="-3.7543280">
        <ele>730.3</ele>
        <time>2019-08-12T07:40:30Z</time>
      </trkpt>
      <trkpt lat="39.2601560" lon="-3.7543020">
        <ele>730.4</ele>
        <time>2019-08-12T07:40:31Z</time>
      </trkpt>
      <trkpt lat="39.2601940" lon="-3.7542750">
        <ele>730.6</ele>
        <time>2019-08-12T07:40:32Z</time>
      </trkpt>
      <trkpt lat="39.2602320" lon="-3.7542480">
        <ele>730.6</ele>
        <time>2019-08-12T07:40:33Z</time>
      </trkpt>
      <trkpt lat="39.2602700" lon="-3.7542210">
        <ele>730.8</ele>
        <time>2019-08-12T07:40:34Z</time>
      </trkpt>
      <trkpt lat="39.2603090" lon="-3.7541940">
        <ele>731.0</ele>
        <time>2019-08-12T07:40:35Z</time>
      </trkpt>
      <trkpt lat="39.2603490" lon="-3.7541660">
        <ele>731.1</ele>
        <time>2019-08-12T07:40:36Z</time>
      </trkpt>
      <trkpt lat="39.2603890" lon="-3.7541390">
        <ele>731.3</ele>
        <time>2019-08-12T07:40:37Z</time>
      </trkpt>
      <trkpt lat="39.2604300" lon="-3.7541110">
        <ele>731.4</ele>
        <time>2019-08-12T07:40:38Z</time>
      </trkpt>
      <trkpt lat="39.2604710" lon="-3.7540830">
        <ele>731.6</ele>
        <time>2019-08-12T07:40:39Z</time>
      </trkpt>
      <trkpt lat="39.2605120" lon="-3.7540550">
        <ele>731.7</ele>
        <time>2019-08-12T07:40:40Z</time>
      </trkpt>
      <trkpt lat="39.2605540" lon="-3.7540260">
        <ele>731.8</ele>
        <time>2019-08-12T07:40:41Z</time>
      </trkpt>
      <trkpt lat="39.2605950" lon="-3.7539970">
        <ele>731.9</ele>
        <time>2019-08-12T07:40:42Z</time>
      </trkpt>
      <trkpt lat="39.2606360" lon="-3.7539670">
        <ele>732.1</ele>
        <time>2019-08-12T07:40:43Z</time>
      </trkpt>
      <trkpt lat="39.2606750" lon="-3.7539370">
        <ele>732.2</ele>
        <time>2019-08-12T07:40:44Z</time>
      </trkpt>
      <trkpt lat="39.2607140" lon="-3.7539050">
        <ele>732.3</ele>
        <time>2019-08-12T07:40:45Z</time>
      </trkpt>
      <trkpt lat="39.2607510" lon="-3.7538730">
        <ele>732.3</ele>
        <time>2019-08-12T07:40:46Z</time>
      </trkpt>
      <trkpt lat="39.2607860" lon="-3.7538400">
        <ele>732.4</ele>
        <time>2019-08-12T07:40:47Z</time>
      </trkpt>
      <trkpt lat="39.2608190" lon="-3.7538060">
        <ele>732.5</ele>
        <time>2019-08-12T07:40:48Z</time>
      </trkpt>
      <trkpt lat="39.2608510" lon="-3.7537710">
        <ele>732.6</ele>
        <time>2019-08-12T07:40:49Z</time>
      </trkpt>
      <trkpt lat="39.2608800" lon="-3.7537340">
        <ele>732.6</ele>
        <time>2019-08-12T07:40:50Z</time>
      </trkpt>
      <trkpt lat="39.2609070" lon="-3.7536960">
        <ele>732.6</ele>
        <time>2019-08-12T07:40:51Z</time>
      </trkpt>
      <trkpt lat="39.2609330" lon="-3.7536560">
        <ele>732.6</ele>
        <time>2019-08-12T07:40:52Z</time>
      </trkpt>
      <trkpt lat="39.2609560" lon="-3.7536150">
        <ele>732.6</ele>
        <time>2019-08-12T07:40:53Z</time>
      </trkpt>
      <trkpt lat="39.2609780" lon="-3.7535720">
        <ele>732.6</ele>
        <time>2019-08-12T07:40:54Z</time>
      </trkpt>
      <trkpt lat="39.2609970" lon="-3.7535260">
        <ele>732.5</ele>
        <time>2019-08-12T07:40:55Z</time>
      </trkpt>
      <trkpt lat="39.2610150" lon="-3.7534790">
        <ele>732.5</ele>
        <time>2019-08-12T07:40:56Z</time>
      </trkpt>
      <trkpt lat="39.2610310" lon="-3.7534300">
        <ele>732.4</ele>
        <time>2019-08-12T07:40:57Z</time>
      </trkpt>
      <trkpt lat="39.2610470" lon="-3.7533800">
        <ele>732.3</ele>
        <time>2019-08-12T07:40:58Z</time>
      </trkpt>
      <trkpt lat="39.2610630" lon="-3.7533290">
        <ele>732.2</ele>
        <time>2019-08-12T07:40:59Z</time>
      </trkpt>
      <trkpt lat="39.2610810" lon="-3.7532800">
        <ele>732.1</ele>
        <time>2019-08-12T07:41:00Z</time>
      </trkpt>
      <trkpt lat="39.2611030" lon="-3.7532330">
        <ele>732.0</ele>
        <time>2019-08-12T07:41:01Z</time>
      </trkpt>
      <trkpt lat="39.2611280" lon="-3.7531890">
        <ele>732.0</ele>
        <time>2019-08-12T07:41:02Z</time>
      </trkpt>
      <trkpt lat="39.2611570" lon="-3.7531480">
        <ele>731.9</ele>
        <time>2019-08-12T07:41:03Z</time>
      </trkpt>
      <trkpt lat="39.2611880" lon="-3.7531080">
        <ele>731.8</ele>
        <time>2019-08-12T07:41:04Z</time>
      </trkpt>
      <trkpt lat="39.2612200" lon="-3.7530690">
        <ele>731.7</ele>
        <time>2019-08-12T07:41:05Z</time>
      </trkpt>
      <trkpt lat="39.2612530" lon="-3.7530300">
        <ele>731.6</ele>
        <time>2019-08-12T07:41:06Z</time>
      </trkpt>
      <trkpt lat="39.2612860" lon="-3.7529910">
        <ele>731.6</ele>
        <time>2019-08-12T07:41:07Z</time>
      </trkpt>
      <trkpt lat="39.2613190" lon="-3.7529520">
        <ele>731.6</ele>
        <time>2019-08-12T07:41:08Z</time>
      </trkpt>
      <trkpt lat="39.2613520" lon="-3.7529130">
        <ele>731.6</ele>
        <time>2019-08-12T07:41:09Z</time>
      </trkpt>
      <trkpt lat="39.2613860" lon="-3.7528750">
        <ele>731.6</ele>
        <time>2019-08-12T07:41:10Z</time>
      </trkpt>
      <trkpt lat="39.2614210" lon="-3.7528370">
        <ele>731.7</ele>
        <time>2019-08-12T07:41:11Z</time>
      </trkpt>
      <trkpt lat="39.2614560" lon="-3.7527990">
        <ele>731.8</ele>
        <time>2019-08-12T07:41:12Z</time>
      </trkpt>
      <trkpt lat="39.2614910" lon="-3.7527620">
        <ele>731.9</ele>
        <time>2019-08-12T07:41:13Z</time>
      </trkpt>
      <trkpt lat="39.2615270" lon="-3.7527260">
        <ele>732.1</ele>
        <time>2019-08-12T07:41:14Z</time>
      </trkpt>
      <trkpt lat="39.2615640" lon="-3.7526900">
        <ele>732.3</ele>
        <time>2019-08-12T07:41:15Z</time>
      </trkpt>
      <trkpt lat="39.2616010" lon="-3.7526550">
        <ele>732.4</ele>
        <time>2019-08-12T07:41:16Z</time>
      </trkpt>
      <trkpt lat="39.2616390" lon="-3.7526200">
        <ele>732.6</ele>
        <time>2019-08-12T07:41:17Z</time>
      </trkpt>
      <trkpt lat="39.2616780" lon="-3.7525860">
        <ele>732.8</ele>
        <time>2019-08-12T07:41:18Z</time>
      </trkpt>
      <trkpt lat="39.2617170" lon="-3.7525530">
        <ele>732.9</ele>
        <time>2019-08-12T07:41:19Z</time>
      </trkpt>
      <trkpt lat="39.2617560" lon="-3.7525200">
        <ele>733.0</ele>
        <time>2019-08-12T07:41:20Z</time>
      </trkpt>
      <trkpt lat="39.2617960" lon="-3.7524880">
        <ele>733.1</ele>
        <time>2019-08-12T07:41:21Z</time>
      </trkpt>
      <trkpt lat="39.2618360" lon="-3.7524560">
        <ele>733.2</ele>
        <time>2019-08-12T07:41:22Z</time>
      </trkpt>
      <trkpt lat="39.2618760" lon="-3.7524240">
        <ele>733.3</ele>
        <time>2019-08-12T07:41:23Z</time>
      </trkpt>
      <trkpt lat="39.2619160" lon="-3.7523930">
        <ele>733.3</ele>
        <time>2019-08-12T07:41:24Z</time>
      </trkpt>
      <trkpt lat="39.2619570" lon="-3.7523620">
        <ele>733.3</ele>
        <time>2019-08-12T07:41:25Z</time>
      </trkpt>
      <trkpt lat="39.2619970" lon="-3.7523310">
        <ele>733.4</ele>
        <time>2019-08-12T07:41:26Z</time>
      </trkpt>
      <trkpt lat="39.2620380" lon="-3.7523000">
        <ele>733.4</ele>
        <time>2019-08-12T07:41:27Z</time>
      </trkpt>
      <trkpt lat="39.2620790" lon="-3.7522690">
        <ele>733.4</ele>
        <time>2019-08-12T07:41:28Z</time>
      </trkpt>
      <trkpt lat="39.2621200" lon="-3.7522390">
        <ele>733.4</ele>
        <time>2019-08-12T07:41:29Z</time>
      </trkpt>
      <trkpt lat="39.2621620" lon="-3.7522080">
        <ele>733.4</ele>
        <time>2019-08-12T07:41:30Z</time>
      </trkpt>
      <trkpt lat="39.2622030" lon="-3.7521760">
        <ele>733.4</ele>
        <time>2019-08-12T07:41:31Z</time>
      </trkpt>
      <trkpt lat="39.2622450" lon="-3.7521450">
        <ele>733.4</ele>
        <time>2019-08-12T07:41:32Z</time>
      </trkpt>
      <trkpt lat="39.2622870" lon="-3.7521120">
        <ele>733.4</ele>
        <time>2019-08-12T07:41:33Z</time>
      </trkpt>
      <trkpt lat="39.2623280" lon="-3.7520800">
        <ele>733.5</ele>
        <time>2019-08-12T07:41:34Z</time>
      </trkpt>
      <trkpt lat="39.2623700" lon="-3.7520470">
        <ele>733.5</ele>
        <time>2019-08-12T07:41:35Z</time>
      </trkpt>
      <trkpt lat="39.2624120" lon="-3.7520140">
        <ele>733.6</ele>
        <time>2019-08-12T07:41:36Z</time>
      </trkpt>
      <trkpt lat="39.2624540" lon="-3.7519810">
        <ele>733.7</ele>
        <time>2019-08-12T07:41:37Z</time>
      </trkpt>
      <trkpt lat="39.2624950" lon="-3.7519490">
        <ele>733.8</ele>
        <time>2019-08-12T07:41:38Z</time>
      </trkpt>
      <trkpt lat="39.2625360" lon="-3.7519160">
        <ele>734.0</ele>
        <time>2019-08-12T07:41:39Z</time>
      </trkpt>
      <trkpt lat="39.2625760" lon="-3.7518840">
        <ele>734.1</ele>
        <time>2019-08-12T07:41:40Z</time>
      </trkpt>
      <trkpt lat="39.2626160" lon="-3.7518520">
        <ele>734.2</ele>
        <time>2019-08-12T07:41:41Z</time>
      </trkpt>
      <trkpt lat="39.2626550" lon="-3.7518200">
        <ele>734.3</ele>
        <time>2019-08-12T07:41:42Z</time>
      </trkpt>
      <trkpt lat="39.2626940" lon="-3.7517890">
        <ele>734.3</ele>
        <time>2019-08-12T07:41:43Z</time>
      </trkpt>
      <trkpt lat="39.2627320" lon="-3.7517590">
        <ele>734.4</ele>
        <time>2019-08-12T07:41:44Z</time>
      </trkpt>
      <trkpt lat="39.2627700" lon="-3.7517280">
        <ele>734.4</ele>
        <time>2019-08-12T07:41:45Z</time>
      </trkpt>
      <trkpt lat="39.2628070" lon="-3.7516980">
        <ele>734.4</ele>
        <time>2019-08-12T07:41:46Z</time>
      </trkpt>
      <trkpt lat="39.2628440" lon="-3.7516670">
        <ele>734.5</ele>
        <time>2019-08-12T07:41:47Z</time>
      </trkpt>
      <trkpt lat="39.2628820" lon="-3.7516360">
        <ele>734.5</ele>
        <time>2019-08-12T07:41:48Z</time>
      </trkpt>
      <trkpt lat="39.2629190" lon="-3.7516050">
        <ele>734.5</ele>
        <time>2019-08-12T07:41:49Z</time>
      </trkpt>
      <trkpt lat="39.2629560" lon="-3.7515730">
        <ele>734.6</ele>
        <time>2019-08-12T07:41:50Z</time>
      </trkpt>
      <trkpt lat="39.2629930" lon="-3.7515410">
        <ele>734.7</ele>
        <time>2019-08-12T07:41:51Z</time>
      </trkpt>
      <trkpt lat="39.2630300" lon="-3.7515080">
        <ele>734.7</ele>
        <time>2019-08-12T07:41:52Z</time>
      </trkpt>
      <trkpt lat="39.2630680" lon="-3.7514750">
        <ele>734.8</ele>
        <time>2019-08-12T07:41:53Z</time>
      </trkpt>
      <trkpt lat="39.2631050" lon="-3.7514410">
        <ele>734.9</ele>
        <time>2019-08-12T07:41:54Z</time>
      </trkpt>
      <trkpt lat="39.2631430" lon="-3.7514070">
        <ele>735.0</ele>
        <time>2019-08-12T07:41:55Z</time>
      </trkpt>
      <trkpt lat="39.2631810" lon="-3.7513740">
        <ele>735.1</ele>
        <time>2019-08-12T07:41:56Z</time>
      </trkpt>
      <trkpt lat="39.2632190" lon="-3.7513400">
        <ele>735.2</ele>
        <time>2019-08-12T07:41:57Z</time>
      </trkpt>
      <trkpt lat="39.2632570" lon="-3.7513070">
        <ele>735.2</ele>
        <time>2019-08-12T07:41:58Z</time>
      </trkpt>
      <trkpt lat="39.2632950" lon="-3.7512750">
        <ele>735.3</ele>
        <time>2019-08-12T07:41:59Z</time>
      </trkpt>
      <trkpt lat="39.2633330" lon="-3.7512440">
        <ele>735.3</ele>
        <time>2019-08-12T07:42:00Z</time>
      </trkpt>
      <trkpt lat="39.2633710" lon="-3.7512130">
        <ele>735.3</ele>
        <time>2019-08-12T07:42:01Z</time>
      </trkpt>
      <trkpt lat="39.2634090" lon="-3.7511850">
        <ele>735.3</ele>
        <time>2019-08-12T07:42:02Z</time>
      </trkpt>
      <trkpt lat="39.2634480" lon="-3.7511600">
        <ele>735.4</ele>
        <time>2019-08-12T07:42:03Z</time>
      </trkpt>
      <trkpt lat="39.2634880" lon="-3.7511380">
        <ele>735.4</ele>
        <time>2019-08-12T07:42:04Z</time>
      </trkpt>
      <trkpt lat="39.2635300" lon="-3.7511220">
        <ele>735.6</ele>
        <time>2019-08-12T07:42:05Z</time>
      </trkpt>
      <trkpt lat="39.2635740" lon="-3.7511100">
        <ele>735.8</ele>
        <time>2019-08-12T07:42:06Z</time>
      </trkpt>
      <trkpt lat="39.2636180" lon="-3.7511030">
        <ele>735.9</ele>
        <time>2019-08-12T07:42:07Z</time>
      </trkpt>
      <trkpt lat="39.2636640" lon="-3.7510990">
        <ele>736.1</ele>
        <time>2019-08-12T07:42:08Z</time>
      </trkpt>
      <trkpt lat="39.2637080" lon="-3.7510980">
        <ele>736.2</ele>
        <time>2019-08-12T07:42:09Z</time>
      </trkpt>
      <trkpt lat="39.2637520" lon="-3.7510990">
        <ele>736.4</ele>
        <time>2019-08-12T07:42:10Z</time>
      </trkpt>
      <trkpt lat="39.2637950" lon="-3.7511000">
        <ele>736.7</ele>
        <time>2019-08-12T07:42:11Z</time>
      </trkpt>
      <trkpt lat="39.2638360" lon="-3.7511010">
        <ele>736.8</ele>
        <time>2019-08-12T07:42:12Z</time>
      </trkpt>
      <trkpt lat="39.2638760" lon="-3.7511030">
        <ele>737.2</ele>
        <time>2019-08-12T07:42:13Z</time>
      </trkpt>
      <trkpt lat="39.2639150" lon="-3.7511030">
        <ele>737.3</ele>
        <time>2019-08-12T07:42:14Z</time>
      </trkpt>
      <trkpt lat="39.2639530" lon="-3.7511000">
        <ele>737.2</ele>
        <time>2019-08-12T07:42:15Z</time>
      </trkpt>
      <trkpt lat="39.2639910" lon="-3.7510950">
        <ele>737.4</ele>
        <time>2019-08-12T07:42:16Z</time>
      </trkpt>
      <trkpt lat="39.2640280" lon="-3.7510870">
        <ele>737.6</ele>
        <time>2019-08-12T07:42:17Z</time>
      </trkpt>
      <trkpt lat="39.2640660" lon="-3.7510750">
        <ele>737.7</ele>
        <time>2019-08-12T07:42:18Z</time>
      </trkpt>
      <trkpt lat="39.2641320" lon="-3.7510470">
        <ele>737.6</ele>
        <time>2019-08-12T07:42:19Z</time>
      </trkpt>
      <trkpt lat="39.2641580" lon="-3.7510340">
        <ele>737.7</ele>
        <time>2019-08-12T07:42:20Z</time>
      </trkpt>
      <trkpt lat="39.2641850" lon="-3.7510210">
        <ele>737.8</ele>
        <time>2019-08-12T07:42:21Z</time>
      </trkpt>
      <trkpt lat="39.2642230" lon="-3.7509970">
        <ele>737.7</ele>
        <time>2019-08-12T07:42:22Z</time>
      </trkpt>
      <trkpt lat="39.2642610" lon="-3.7509710">
        <ele>737.6</ele>
        <time>2019-08-12T07:42:23Z</time>
      </trkpt>
      <trkpt lat="39.2643190" lon="-3.7509230">
        <ele>737.5</ele>
        <time>2019-08-12T07:42:24Z</time>
      </trkpt>
      <trkpt lat="39.2643420" lon="-3.7509020">
        <ele>737.6</ele>
        <time>2019-08-12T07:42:25Z</time>
      </trkpt>
      <trkpt lat="39.2643640" lon="-3.7508820">
        <ele>737.5</ele>
        <time>2019-08-12T07:42:26Z</time>
      </trkpt>
      <trkpt lat="39.2643960" lon="-3.7508500">
        <ele>737.6</ele>
        <time>2019-08-12T07:42:27Z</time>
      </trkpt>
      <trkpt lat="39.2644290" lon="-3.7508190">
        <ele>737.5</ele>
        <time>2019-08-12T07:42:28Z</time>
      </trkpt>
      <trkpt lat="39.2644610" lon="-3.7507880">
        <ele>737.5</ele>
        <time>2019-08-12T07:42:29Z</time>
      </trkpt>
      <trkpt lat="39.2644940" lon="-3.7507580">
        <ele>737.4</ele>
        <time>2019-08-12T07:42:30Z</time>
      </trkpt>
      <trkpt lat="39.2645270" lon="-3.7507290">
        <ele>737.5</ele>
        <time>2019-08-12T07:42:31Z</time>
      </trkpt>
      <trkpt lat="39.2645600" lon="-3.7506990">
        <ele>737.4</ele>
        <time>2019-08-12T07:42:32Z</time>
      </trkpt>
      <trkpt lat="39.2645940" lon="-3.7506710">
        <ele>737.4</ele>
        <time>2019-08-12T07:42:33Z</time>
      </trkpt>
      <trkpt lat="39.2646290" lon="-3.7506430">
        <ele>737.5</ele>
        <time>2019-08-12T07:42:34Z</time>
      </trkpt>
      <trkpt lat="39.2646640" lon="-3.7506170">
        <ele>737.4</ele>
        <time>2019-08-12T07:42:35Z</time>
      </trkpt>
      <trkpt lat="39.2647000" lon="-3.7505910">
        <ele>737.5</ele>
        <time>2019-08-12T07:42:36Z</time>
      </trkpt>
      <trkpt lat="39.2647360" lon="-3.7505660">
        <ele>737.5</ele>
        <time>2019-08-12T07:42:37Z</time>
      </trkpt>
      <trkpt lat="39.2647990" lon="-3.7505280">
        <ele>737.5</ele>
        <time>2019-08-12T07:42:38Z</time>
      </trkpt>
      <trkpt lat="39.2648240" lon="-3.7505130">
        <ele>737.6</ele>
        <time>2019-08-12T07:42:39Z</time>
      </trkpt>
      <trkpt lat="39.2648500" lon="-3.7504980">
        <ele>737.6</ele>
        <time>2019-08-12T07:42:40Z</time>
      </trkpt>
      <trkpt lat="39.2648890" lon="-3.7504760">
        <ele>737.7</ele>
        <time>2019-08-12T07:42:41Z</time>
      </trkpt>
      <trkpt lat="39.2649280" lon="-3.7504560">
        <ele>737.8</ele>
        <time>2019-08-12T07:42:42Z</time>
      </trkpt>
      <trkpt lat="39.2649950" lon="-3.7504230">
        <ele>737.9</ele>
        <time>2019-08-12T07:42:43Z</time>
      </trkpt>
      <trkpt lat="39.2650210" lon="-3.7504090">
        <ele>737.9</ele>
        <time>2019-08-12T07:42:44Z</time>
      </trkpt>
      <trkpt lat="39.2650480" lon="-3.7503960">
        <ele>738.0</ele>
        <time>2019-08-12T07:42:45Z</time>
      </trkpt>
      <trkpt lat="39.2650880" lon="-3.7503760">
        <ele>738.1</ele>
        <time>2019-08-12T07:42:46Z</time>
      </trkpt>
      <trkpt lat="39.2651280" lon="-3.7503570">
        <ele>738.2</ele>
        <time>2019-08-12T07:42:47Z</time>
      </trkpt>
      <trkpt lat="39.2651670" lon="-3.7503370">
        <ele>738.3</ele>
        <time>2019-08-12T07:42:48Z</time>
      </trkpt>
      <trkpt lat="39.2652070" lon="-3.7503170">
        <ele>738.4</ele>
        <time>2019-08-12T07:42:49Z</time>
      </trkpt>
      <trkpt lat="39.2652470" lon="-3.7502970">
        <ele>738.5</ele>
        <time>2019-08-12T07:42:50Z</time>
      </trkpt>
      <trkpt lat="39.2652870" lon="-3.7502760">
        <ele>738.6</ele>
        <time>2019-08-12T07:42:51Z</time>
      </trkpt>
      <trkpt lat="39.2653270" lon="-3.7502550">
        <ele>738.7</ele>
        <time>2019-08-12T07:42:52Z</time>
      </trkpt>
      <trkpt lat="39.2653660" lon="-3.7502330">
        <ele>738.8</ele>
        <time>2019-08-12T07:42:53Z</time>
      </trkpt>
      <trkpt lat="39.2654060" lon="-3.7502100">
        <ele>738.8</ele>
        <time>2019-08-12T07:42:54Z</time>
      </trkpt>
      <trkpt lat="39.2654460" lon="-3.7501860">
        <ele>738.9</ele>
        <time>2019-08-12T07:42:55Z</time>
      </trkpt>
      <trkpt lat="39.2654860" lon="-3.7501610">
        <ele>739.0</ele>
        <time>2019-08-12T07:42:56Z</time>
      </trkpt>
      <trkpt lat="39.2655250" lon="-3.7501350">
        <ele>739.1</ele>
        <time>2019-08-12T07:42:57Z</time>
      </trkpt>
      <trkpt lat="39.2655650" lon="-3.7501090">
        <ele>739.2</ele>
        <time>2019-08-12T07:42:58Z</time>
      </trkpt>
      <trkpt lat="39.2656040" lon="-3.7500810">
        <ele>739.3</ele>
        <time>2019-08-12T07:42:59Z</time>
      </trkpt>
      <trkpt lat="39.2656440" lon="-3.7500530">
        <ele>739.4</ele>
        <time>2019-08-12T07:43:00Z</time>
      </trkpt>
      <trkpt lat="39.2656830" lon="-3.7500240">
        <ele>739.4</ele>
        <time>2019-08-12T07:43:01Z</time>
      </trkpt>
      <trkpt lat="39.2657220" lon="-3.7499940">
        <ele>739.5</ele>
        <time>2019-08-12T07:43:02Z</time>
      </trkpt>
      <trkpt lat="39.2657610" lon="-3.7499640">
        <ele>739.6</ele>
        <time>2019-08-12T07:43:03Z</time>
      </trkpt>
      <trkpt lat="39.2657990" lon="-3.7499330">
        <ele>739.7</ele>
        <time>2019-08-12T07:43:04Z</time>
      </trkpt>
      <trkpt lat="39.2658370" lon="-3.7499020">
        <ele>739.8</ele>
        <time>2019-08-12T07:43:05Z</time>
      </trkpt>
      <trkpt lat="39.2658740" lon="-3.7498700">
        <ele>739.8</ele>
        <time>2019-08-12T07:43:06Z</time>
      </trkpt>
      <trkpt lat="39.2659120" lon="-3.7498380">
        <ele>739.9</ele>
        <time>2019-08-12T07:43:07Z</time>
      </trkpt>
      <trkpt lat="39.2659490" lon="-3.7498060">
        <ele>740.0</ele>
        <time>2019-08-12T07:43:08Z</time>
      </trkpt>
      <trkpt lat="39.2659850" lon="-3.7497730">
        <ele>740.1</ele>
        <time>2019-08-12T07:43:09Z</time>
      </trkpt>
      <trkpt lat="39.2660220" lon="-3.7497400">
        <ele>740.2</ele>
        <time>2019-08-12T07:43:10Z</time>
      </trkpt>
      <trkpt lat="39.2660580" lon="-3.7497070">
        <ele>740.2</ele>
        <time>2019-08-12T07:43:11Z</time>
      </trkpt>
      <trkpt lat="39.2660940" lon="-3.7496730">
        <ele>740.3</ele>
        <time>2019-08-12T07:43:12Z</time>
      </trkpt>
      <trkpt lat="39.2661290" lon="-3.7496390">
        <ele>740.3</ele>
        <time>2019-08-12T07:43:13Z</time>
      </trkpt>
      <trkpt lat="39.2661650" lon="-3.7496040">
        <ele>740.3</ele>
        <time>2019-08-12T07:43:14Z</time>
      </trkpt>
      <trkpt lat="39.2662000" lon="-3.7495680">
        <ele>740.3</ele>
        <time>2019-08-12T07:43:15Z</time>
      </trkpt>
      <trkpt lat="39.2662360" lon="-3.7495330">
        <ele>740.3</ele>
        <time>2019-08-12T07:43:16Z</time>
      </trkpt>
      <trkpt lat="39.2662710" lon="-3.7494970">
        <ele>740.3</ele>
        <time>2019-08-12T07:43:17Z</time>
      </trkpt>
      <trkpt lat="39.2663070" lon="-3.7494610">
        <ele>740.3</ele>
        <time>2019-08-12T07:43:18Z</time>
      </trkpt>
      <trkpt lat="39.2663420" lon="-3.7494250">
        <ele>740.3</ele>
        <time>2019-08-12T07:43:19Z</time>
      </trkpt>
      <trkpt lat="39.2663790" lon="-3.7493900">
        <ele>740.3</ele>
        <time>2019-08-12T07:43:20Z</time>
      </trkpt>
      <trkpt lat="39.2664150" lon="-3.7493550">
        <ele>740.3</ele>
        <time>2019-08-12T07:43:21Z</time>
      </trkpt>
      <trkpt lat="39.2664520" lon="-3.7493200">
        <ele>740.3</ele>
        <time>2019-08-12T07:43:22Z</time>
      </trkpt>
      <trkpt lat="39.2664890" lon="-3.7492870">
        <ele>740.3</ele>
        <time>2019-08-12T07:43:23Z</time>
      </trkpt>
      <trkpt lat="39.2665270" lon="-3.7492540">
        <ele>740.3</ele>
        <time>2019-08-12T07:43:24Z</time>
      </trkpt>
      <trkpt lat="39.2665660" lon="-3.7492210">
        <ele>740.3</ele>
        <time>2019-08-12T07:43:25Z</time>
      </trkpt>
      <trkpt lat="39.2666040" lon="-3.7491870">
        <ele>740.3</ele>
        <time>2019-08-12T07:43:26Z</time>
      </trkpt>
      <trkpt lat="39.2666420" lon="-3.7491530">
        <ele>740.3</ele>
        <time>2019-08-12T07:43:27Z</time>
      </trkpt>
      <trkpt lat="39.2666800" lon="-3.7491180">
        <ele>740.3</ele>
        <time>2019-08-12T07:43:28Z</time>
      </trkpt>
      <trkpt lat="39.2667170" lon="-3.7490800">
        <ele>740.3</ele>
        <time>2019-08-12T07:43:29Z</time>
      </trkpt>
      <trkpt lat="39.2667540" lon="-3.7490420">
        <ele>740.4</ele>
        <time>2019-08-12T07:43:30Z</time>
      </trkpt>
      <trkpt lat="39.2667900" lon="-3.7490020">
        <ele>740.4</ele>
        <time>2019-08-12T07:43:31Z</time>
      </trkpt>
      <trkpt lat="39.2668260" lon="-3.7489640">
        <ele>740.4</ele>
        <time>2019-08-12T07:43:32Z</time>
      </trkpt>
      <trkpt lat="39.2668620" lon="-3.7489260">
        <ele>740.4</ele>
        <time>2019-08-12T07:43:33Z</time>
      </trkpt>
      <trkpt lat="39.2668980" lon="-3.7488890">
        <ele>740.4</ele>
        <time>2019-08-12T07:43:34Z</time>
      </trkpt>
      <trkpt lat="39.2669340" lon="-3.7488530">
        <ele>740.5</ele>
        <time>2019-08-12T07:43:35Z</time>
      </trkpt>
      <trkpt lat="39.2669700" lon="-3.7488180">
        <ele>740.5</ele>
        <time>2019-08-12T07:43:36Z</time>
      </trkpt>
      <trkpt lat="39.2670060" lon="-3.7487840">
        <ele>740.6</ele>
        <time>2019-08-12T07:43:37Z</time>
      </trkpt>
      <trkpt lat="39.2670420" lon="-3.7487490">
        <ele>740.7</ele>
        <time>2019-08-12T07:43:38Z</time>
      </trkpt>
      <trkpt lat="39.2670770" lon="-3.7487150">
        <ele>740.7</ele>
        <time>2019-08-12T07:43:39Z</time>
      </trkpt>
      <trkpt lat="39.2671130" lon="-3.7486810">
        <ele>740.8</ele>
        <time>2019-08-12T07:43:40Z</time>
      </trkpt>
      <trkpt lat="39.2671490" lon="-3.7486470">
        <ele>740.9</ele>
        <time>2019-08-12T07:43:41Z</time>
      </trkpt>
      <trkpt lat="39.2671840" lon="-3.7486130">
        <ele>741.0</ele>
        <time>2019-08-12T07:43:42Z</time>
      </trkpt>
      <trkpt lat="39.2672200" lon="-3.7485780">
        <ele>741.0</ele>
        <time>2019-08-12T07:43:43Z</time>
      </trkpt>
      <trkpt lat="39.2672550" lon="-3.7485430">
        <ele>741.1</ele>
        <time>2019-08-12T07:43:44Z</time>
      </trkpt>
      <trkpt lat="39.2672910" lon="-3.7485080">
        <ele>741.1</ele>
        <time>2019-08-12T07:43:45Z</time>
      </trkpt>
      <trkpt lat="39.2673260" lon="-3.7484730">
        <ele>741.2</ele>
        <time>2019-08-12T07:43:46Z</time>
      </trkpt>
      <trkpt lat="39.2673610" lon="-3.7484380">
        <ele>741.2</ele>
        <time>2019-08-12T07:43:47Z</time>
      </trkpt>
      <trkpt lat="39.2673970" lon="-3.7484020">
        <ele>741.2</ele>
        <time>2019-08-12T07:43:48Z</time>
      </trkpt>
      <trkpt lat="39.2674320" lon="-3.7483660">
        <ele>741.2</ele>
        <time>2019-08-12T07:43:49Z</time>
      </trkpt>
      <trkpt lat="39.2674670" lon="-3.7483300">
        <ele>741.2</ele>
        <time>2019-08-12T07:43:50Z</time>
      </trkpt>
      <trkpt lat="39.2675020" lon="-3.7482940">
        <ele>741.2</ele>
        <time>2019-08-12T07:43:51Z</time>
      </trkpt>
      <trkpt lat="39.2675380" lon="-3.7482580">
        <ele>741.2</ele>
        <time>2019-08-12T07:43:52Z</time>
      </trkpt>
      <trkpt lat="39.2675730" lon="-3.7482210">
        <ele>741.2</ele>
        <time>2019-08-12T07:43:53Z</time>
      </trkpt>
      <trkpt lat="39.2676090" lon="-3.7481850">
        <ele>741.2</ele>
        <time>2019-08-12T07:43:54Z</time>
      </trkpt>
      <trkpt lat="39.2676450" lon="-3.7481490">
        <ele>741.2</ele>
        <time>2019-08-12T07:43:55Z</time>
      </trkpt>
      <trkpt lat="39.2676820" lon="-3.7481130">
        <ele>741.2</ele>
        <time>2019-08-12T07:43:56Z</time>
      </trkpt>
      <trkpt lat="39.2677190" lon="-3.7480780">
        <ele>741.2</ele>
        <time>2019-08-12T07:43:57Z</time>
      </trkpt>
      <trkpt lat="39.2677570" lon="-3.7480430">
        <ele>741.2</ele>
        <time>2019-08-12T07:43:58Z</time>
      </trkpt>
      <trkpt lat="39.2677950" lon="-3.7480090">
        <ele>741.2</ele>
        <time>2019-08-12T07:43:59Z</time>
      </trkpt>
      <trkpt lat="39.2678330" lon="-3.7479750">
        <ele>741.2</ele>
        <time>2019-08-12T07:44:00Z</time>
      </trkpt>
      <trkpt lat="39.2678690" lon="-3.7479480">
        <ele>741.2</ele>
        <time>2019-08-12T07:44:01Z</time>
      </trkpt>
      <trkpt lat="39.2679330" lon="-3.7479010">
        <ele>741.2</ele>
        <time>2019-08-12T07:44:02Z</time>
      </trkpt>
      <trkpt lat="39.2680880" lon="-3.7477770">
        <ele>741.2</ele>
        <time>2019-08-12T07:45:04Z</time>
      </trkpt>
      <trkpt lat="39.2681400" lon="-3.7477420">
        <ele>741.2</ele>
        <time>2019-08-12T07:45:05Z</time>
      </trkpt>
      <trkpt lat="39.2681660" lon="-3.7477240">
        <ele>741.2</ele>
        <time>2019-08-12T07:45:06Z</time>
      </trkpt>
      <trkpt lat="39.2681970" lon="-3.7476990">
        <ele>741.2</ele>
        <time>2019-08-12T07:45:07Z</time>
      </trkpt>
      <trkpt lat="39.2682290" lon="-3.7476770">
        <ele>741.2</ele>
        <time>2019-08-12T07:45:08Z</time>
      </trkpt>
      <trkpt lat="39.2682600" lon="-3.7476560">
        <ele>741.2</ele>
        <time>2019-08-12T07:45:09Z</time>
      </trkpt>
      <trkpt lat="39.2682900" lon="-3.7476340">
        <ele>741.2</ele>
        <time>2019-08-12T07:45:10Z</time>
      </trkpt>
      <trkpt lat="39.2683200" lon="-3.7476110">
        <ele>741.2</ele>
        <time>2019-08-12T07:45:11Z</time>
      </trkpt>
      <trkpt lat="39.2683510" lon="-3.7475860">
        <ele>741.2</ele>
        <time>2019-08-12T07:45:12Z</time>
      </trkpt>
      <trkpt lat="39.2684050" lon="-3.7475460">
        <ele>741.2</ele>
        <time>2019-08-12T07:45:13Z</time>
      </trkpt>
      <trkpt lat="39.2684270" lon="-3.7475290">
        <ele>741.2</ele>
        <time>2019-08-12T07:45:14Z</time>
      </trkpt>
      <trkpt lat="39.2684490" lon="-3.7475130">
        <ele>741.2</ele>
        <time>2019-08-12T07:45:15Z</time>
      </trkpt>
      <trkpt lat="39.2684840" lon="-3.7474890">
        <ele>741.2</ele>
        <time>2019-08-12T07:45:16Z</time>
      </trkpt>
      <trkpt lat="39.2685190" lon="-3.7474660">
        <ele>741.2</ele>
        <time>2019-08-12T07:45:17Z</time>
      </trkpt>
      <trkpt lat="39.2685790" lon="-3.7474260">
        <ele>741.2</ele>
        <time>2019-08-12T07:45:18Z</time>
      </trkpt>
      <trkpt lat="39.2686030" lon="-3.7474110">
        <ele>741.2</ele>
        <time>2019-08-12T07:45:19Z</time>
      </trkpt>
      <trkpt lat="39.2686270" lon="-3.7473950">
        <ele>741.2</ele>
        <time>2019-08-12T07:45:20Z</time>
      </trkpt>
      <trkpt lat="39.2686630" lon="-3.7473710">
        <ele>741.2</ele>
        <time>2019-08-12T07:45:21Z</time>
      </trkpt>
      <trkpt lat="39.2686990" lon="-3.7473470">
        <ele>741.2</ele>
        <time>2019-08-12T07:45:22Z</time>
      </trkpt>
      <trkpt lat="39.2687580" lon="-3.7473060">
        <ele>741.2</ele>
        <time>2019-08-12T07:45:23Z</time>
      </trkpt>
      <trkpt lat="39.2687820" lon="-3.7472890">
        <ele>741.2</ele>
        <time>2019-08-12T07:45:24Z</time>
      </trkpt>
      <trkpt lat="39.2688060" lon="-3.7472730">
        <ele>741.2</ele>
        <time>2019-08-12T07:45:25Z</time>
      </trkpt>
      <trkpt lat="39.2688410" lon="-3.7472480">
        <ele>741.2</ele>
        <time>2019-08-12T07:45:26Z</time>
      </trkpt>
      <trkpt lat="39.2688760" lon="-3.7472230">
        <ele>741.2</ele>
        <time>2019-08-12T07:45:27Z</time>
      </trkpt>
      <trkpt lat="39.2689350" lon="-3.7471810">
        <ele>741.3</ele>
        <time>2019-08-12T07:45:28Z</time>
      </trkpt>
      <trkpt lat="39.2689580" lon="-3.7471640">
        <ele>741.3</ele>
        <time>2019-08-12T07:45:29Z</time>
      </trkpt>
      <trkpt lat="39.2689820" lon="-3.7471470">
        <ele>741.3</ele>
        <time>2019-08-12T07:45:30Z</time>
      </trkpt>
      <trkpt lat="39.2690170" lon="-3.7471210">
        <ele>741.3</ele>
        <time>2019-08-12T07:45:31Z</time>
      </trkpt>
      <trkpt lat="39.2690520" lon="-3.7470960">
        <ele>741.4</ele>
        <time>2019-08-12T07:45:32Z</time>
      </trkpt>
      <trkpt lat="39.2690870" lon="-3.7470710">
        <ele>741.4</ele>
        <time>2019-08-12T07:45:33Z</time>
      </trkpt>
      <trkpt lat="39.2691220" lon="-3.7470460">
        <ele>741.4</ele>
        <time>2019-08-12T07:45:34Z</time>
      </trkpt>
      <trkpt lat="39.2691580" lon="-3.7470210">
        <ele>741.5</ele>
        <time>2019-08-12T07:45:35Z</time>
      </trkpt>
      <trkpt lat="39.2691940" lon="-3.7469960">
        <ele>741.5</ele>
        <time>2019-08-12T07:45:36Z</time>
      </trkpt>
      <trkpt lat="39.2692300" lon="-3.7469720">
        <ele>741.5</ele>
        <time>2019-08-12T07:45:37Z</time>
      </trkpt>
      <trkpt lat="39.2692660" lon="-3.7469480">
        <ele>741.5</ele>
        <time>2019-08-12T07:45:38Z</time>
      </trkpt>
      <trkpt lat="39.2693030" lon="-3.7469250">
        <ele>741.4</ele>
        <time>2019-08-12T07:45:39Z</time>
      </trkpt>
      <trkpt lat="39.2693400" lon="-3.7469010">
        <ele>741.3</ele>
        <time>2019-08-12T07:45:40Z</time>
      </trkpt>
      <trkpt lat="39.2693770" lon="-3.7468780">
        <ele>741.2</ele>
        <time>2019-08-12T07:45:41Z</time>
      </trkpt>
      <trkpt lat="39.2694140" lon="-3.7468540">
        <ele>741.1</ele>
        <time>2019-08-12T07:45:42Z</time>
      </trkpt>
      <trkpt lat="39.2694510" lon="-3.7468310">
        <ele>741.0</ele>
        <time>2019-08-12T07:45:43Z</time>
      </trkpt>
      <trkpt lat="39.2694880" lon="-3.7468070">
        <ele>740.9</ele>
        <time>2019-08-12T07:45:44Z</time>
      </trkpt>
      <trkpt lat="39.2695240" lon="-3.7467820">
        <ele>740.8</ele>
        <time>2019-08-12T07:45:45Z</time>
      </trkpt>
      <trkpt lat="39.2695610" lon="-3.7467570">
        <ele>740.7</ele>
        <time>2019-08-12T07:45:46Z</time>
      </trkpt>
      <trkpt lat="39.2695970" lon="-3.7467310">
        <ele>740.6</ele>
        <time>2019-08-12T07:45:47Z</time>
      </trkpt>
      <trkpt lat="39.2696330" lon="-3.7467050">
        <ele>740.6</ele>
        <time>2019-08-12T07:45:48Z</time>
      </trkpt>
      <trkpt lat="39.2696690" lon="-3.7466770">
        <ele>740.6</ele>
        <time>2019-08-12T07:45:49Z</time>
      </trkpt>
      <trkpt lat="39.2697040" lon="-3.7466490">
        <ele>740.6</ele>
        <time>2019-08-12T07:45:50Z</time>
      </trkpt>
      <trkpt lat="39.2697400" lon="-3.7466210">
        <ele>740.7</ele>
        <time>2019-08-12T07:45:51Z</time>
      </trkpt>
      <trkpt lat="39.2697750" lon="-3.7465910">
        <ele>740.7</ele>
        <time>2019-08-12T07:45:52Z</time>
      </trkpt>
      <trkpt lat="39.2698100" lon="-3.7465610">
        <ele>740.8</ele>
        <time>2019-08-12T07:45:53Z</time>
      </trkpt>
      <trkpt lat="39.2698460" lon="-3.7465300">
        <ele>741.0</ele>
        <time>2019-08-12T07:45:54Z</time>
      </trkpt>
      <trkpt lat="39.2698810" lon="-3.7464980">
        <ele>741.1</ele>
        <time>2019-08-12T07:45:55Z</time>
      </trkpt>
      <trkpt lat="39.2699160" lon="-3.7464650">
        <ele>741.3</ele>
        <time>2019-08-12T07:45:56Z</time>
      </trkpt>
      <trkpt lat="39.2699510" lon="-3.7464310">
        <ele>741.5</ele>
        <time>2019-08-12T07:45:57Z</time>
      </trkpt>
      <trkpt lat="39.2699870" lon="-3.7463970">
        <ele>741.7</ele>
        <time>2019-08-12T07:45:58Z</time>
      </trkpt>
      <trkpt lat="39.2700220" lon="-3.7463630">
        <ele>741.8</ele>
        <time>2019-08-12T07:45:59Z</time>
      </trkpt>
      <trkpt lat="39.2700580" lon="-3.7463280">
        <ele>741.9</ele>
        <time>2019-08-12T07:46:00Z</time>
      </trkpt>
      <trkpt lat="39.2700940" lon="-3.7462930">
        <ele>742.0</ele>
        <time>2019-08-12T07:46:01Z</time>
      </trkpt>
      <trkpt lat="39.2701290" lon="-3.7462580">
        <ele>742.1</ele>
        <time>2019-08-12T07:46:02Z</time>
      </trkpt>
      <trkpt lat="39.2701660" lon="-3.7462230">
        <ele>742.2</ele>
        <time>2019-08-12T07:46:03Z</time>
      </trkpt>
      <trkpt lat="39.2702020" lon="-3.7461880">
        <ele>742.2</ele>
        <time>2019-08-12T07:46:04Z</time>
      </trkpt>
      <trkpt lat="39.2702390" lon="-3.7461540">
        <ele>742.3</ele>
        <time>2019-08-12T07:46:05Z</time>
      </trkpt>
      <trkpt lat="39.2702760" lon="-3.7461200">
        <ele>742.3</ele>
        <time>2019-08-12T07:46:06Z</time>
      </trkpt>
      <trkpt lat="39.2703130" lon="-3.7460870">
        <ele>742.4</ele>
        <time>2019-08-12T07:46:07Z</time>
      </trkpt>
      <trkpt lat="39.2703500" lon="-3.7460550">
        <ele>742.4</ele>
        <time>2019-08-12T07:46:08Z</time>
      </trkpt>
      <trkpt lat="39.2703880" lon="-3.7460230">
        <ele>742.4</ele>
        <time>2019-08-12T07:46:09Z</time>
      </trkpt>
      <trkpt lat="39.2704260" lon="-3.7459920">
        <ele>742.5</ele>
        <time>2019-08-12T07:46:10Z</time>
      </trkpt>
      <trkpt lat="39.2704640" lon="-3.7459610">
        <ele>742.6</ele>
        <time>2019-08-12T07:46:11Z</time>
      </trkpt>
      <trkpt lat="39.2705020" lon="-3.7459310">
        <ele>742.7</ele>
        <time>2019-08-12T07:46:12Z</time>
      </trkpt>
      <trkpt lat="39.2705400" lon="-3.7459010">
        <ele>742.7</ele>
        <time>2019-08-12T07:46:13Z</time>
      </trkpt>
      <trkpt lat="39.2705780" lon="-3.7458720">
        <ele>742.8</ele>
        <time>2019-08-12T07:46:14Z</time>
      </trkpt>
      <trkpt lat="39.2706170" lon="-3.7458430">
        <ele>742.9</ele>
        <time>2019-08-12T07:46:15Z</time>
      </trkpt>
      <trkpt lat="39.2706560" lon="-3.7458140">
        <ele>743.0</ele>
        <time>2019-08-12T07:46:16Z</time>
      </trkpt>
      <trkpt lat="39.2706940" lon="-3.7457860">
        <ele>743.1</ele>
        <time>2019-08-12T07:46:17Z</time>
      </trkpt>
      <trkpt lat="39.2707330" lon="-3.7457580">
        <ele>743.2</ele>
        <time>2019-08-12T07:46:18Z</time>
      </trkpt>
      <trkpt lat="39.2707720" lon="-3.7457310">
        <ele>743.2</ele>
        <time>2019-08-12T07:46:19Z</time>
      </trkpt>
      <trkpt lat="39.2708110" lon="-3.7457030">
        <ele>743.3</ele>
        <time>2019-08-12T07:46:20Z</time>
      </trkpt>
      <trkpt lat="39.2708500" lon="-3.7456770">
        <ele>743.3</ele>
        <time>2019-08-12T07:46:21Z</time>
      </trkpt>
      <trkpt lat="39.2708880" lon="-3.7456500">
        <ele>743.4</ele>
        <time>2019-08-12T07:46:22Z</time>
      </trkpt>
      <trkpt lat="39.2709270" lon="-3.7456230">
        <ele>743.4</ele>
        <time>2019-08-12T07:46:23Z</time>
      </trkpt>
      <trkpt lat="39.2709660" lon="-3.7455970">
        <ele>743.4</ele>
        <time>2019-08-12T07:46:24Z</time>
      </trkpt>
      <trkpt lat="39.2710040" lon="-3.7455710">
        <ele>743.4</ele>
        <time>2019-08-12T07:46:25Z</time>
      </trkpt>
      <trkpt lat="39.2710430" lon="-3.7455450">
        <ele>743.4</ele>
        <time>2019-08-12T07:46:26Z</time>
      </trkpt>
      <trkpt lat="39.2710810" lon="-3.7455190">
        <ele>743.4</ele>
        <time>2019-08-12T07:46:27Z</time>
      </trkpt>
      <trkpt lat="39.2711190" lon="-3.7454940">
        <ele>743.4</ele>
        <time>2019-08-12T07:46:28Z</time>
      </trkpt>
      <trkpt lat="39.2711580" lon="-3.7454690">
        <ele>743.4</ele>
        <time>2019-08-12T07:46:29Z</time>
      </trkpt>
      <trkpt lat="39.2711950" lon="-3.7454440">
        <ele>743.4</ele>
        <time>2019-08-12T07:46:30Z</time>
      </trkpt>
      <trkpt lat="39.2712330" lon="-3.7454190">
        <ele>743.4</ele>
        <time>2019-08-12T07:46:31Z</time>
      </trkpt>
      <trkpt lat="39.2712710" lon="-3.7453950">
        <ele>743.4</ele>
        <time>2019-08-12T07:46:32Z</time>
      </trkpt>
      <trkpt lat="39.2713080" lon="-3.7453710">
        <ele>743.4</ele>
        <time>2019-08-12T07:46:33Z</time>
      </trkpt>
      <trkpt lat="39.2713450" lon="-3.7453470">
        <ele>743.4</ele>
        <time>2019-08-12T07:46:34Z</time>
      </trkpt>
      <trkpt lat="39.2713820" lon="-3.7453230">
        <ele>743.4</ele>
        <time>2019-08-12T07:46:35Z</time>
      </trkpt>
      <trkpt lat="39.2714190" lon="-3.7453010">
        <ele>743.4</ele>
        <time>2019-08-12T07:46:36Z</time>
      </trkpt>
      <trkpt lat="39.2714560" lon="-3.7452790">
        <ele>743.4</ele>
        <time>2019-08-12T07:46:37Z</time>
      </trkpt>
      <trkpt lat="39.2714940" lon="-3.7452590">
        <ele>743.4</ele>
        <time>2019-08-12T07:46:38Z</time>
      </trkpt>
      <trkpt lat="39.2715310" lon="-3.7452400">
        <ele>743.4</ele>
        <time>2019-08-12T07:46:39Z</time>
      </trkpt>
      <trkpt lat="39.2715690" lon="-3.7452220">
        <ele>743.4</ele>
        <time>2019-08-12T07:46:40Z</time>
      </trkpt>
      <trkpt lat="39.2716080" lon="-3.7452060">
        <ele>743.5</ele>
        <time>2019-08-12T07:46:41Z</time>
      </trkpt>
      <trkpt lat="39.2716470" lon="-3.7451920">
        <ele>743.5</ele>
        <time>2019-08-12T07:46:42Z</time>
      </trkpt>
      <trkpt lat="39.2716870" lon="-3.7451800">
        <ele>743.5</ele>
        <time>2019-08-12T07:46:43Z</time>
      </trkpt>
      <trkpt lat="39.2717280" lon="-3.7451690">
        <ele>743.6</ele>
        <time>2019-08-12T07:46:44Z</time>
      </trkpt>
      <trkpt lat="39.2717680" lon="-3.7451580">
        <ele>743.6</ele>
        <time>2019-08-12T07:46:45Z</time>
      </trkpt>
      <trkpt lat="39.2718090" lon="-3.7451470">
        <ele>743.7</ele>
        <time>2019-08-12T07:46:46Z</time>
      </trkpt>
      <trkpt lat="39.2718490" lon="-3.7451330">
        <ele>743.8</ele>
        <time>2019-08-12T07:46:47Z</time>
      </trkpt>
      <trkpt lat="39.2718890" lon="-3.7451160">
        <ele>743.9</ele>
        <time>2019-08-12T07:46:48Z</time>
      </trkpt>
      <trkpt lat="39.2719290" lon="-3.7450980">
        <ele>743.9</ele>
        <time>2019-08-12T07:46:49Z</time>
      </trkpt>
      <trkpt lat="39.2719680" lon="-3.7450770">
        <ele>744.0</ele>
        <time>2019-08-12T07:46:50Z</time>
      </trkpt>
      <trkpt lat="39.2720070" lon="-3.7450550">
        <ele>744.1</ele>
        <time>2019-08-12T07:46:51Z</time>
      </trkpt>
      <trkpt lat="39.2720470" lon="-3.7450320">
        <ele>744.1</ele>
        <time>2019-08-12T07:46:52Z</time>
      </trkpt>
      <trkpt lat="39.2720880" lon="-3.7450090">
        <ele>744.2</ele>
        <time>2019-08-12T07:46:53Z</time>
      </trkpt>
      <trkpt lat="39.2721280" lon="-3.7449850">
        <ele>744.2</ele>
        <time>2019-08-12T07:46:54Z</time>
      </trkpt>
      <trkpt lat="39.2721700" lon="-3.7449610">
        <ele>744.2</ele>
        <time>2019-08-12T07:46:55Z</time>
      </trkpt>
      <trkpt lat="39.2722120" lon="-3.7449370">
        <ele>744.3</ele>
        <time>2019-08-12T07:46:56Z</time>
      </trkpt>
      <trkpt lat="39.2722550" lon="-3.7449130">
        <ele>744.3</ele>
        <time>2019-08-12T07:46:57Z</time>
      </trkpt>
      <trkpt lat="39.2722980" lon="-3.7448890">
        <ele>744.3</ele>
        <time>2019-08-12T07:46:58Z</time>
      </trkpt>
      <trkpt lat="39.2723410" lon="-3.7448670">
        <ele>744.3</ele>
        <time>2019-08-12T07:46:59Z</time>
      </trkpt>
      <trkpt lat="39.2723850" lon="-3.7448460">
        <ele>744.3</ele>
        <time>2019-08-12T07:47:00Z</time>
      </trkpt>
      <trkpt lat="39.2724290" lon="-3.7448280">
        <ele>744.3</ele>
        <time>2019-08-12T07:47:01Z</time>
      </trkpt>
      <trkpt lat="39.2724740" lon="-3.7448110">
        <ele>744.3</ele>
        <time>2019-08-12T07:47:02Z</time>
      </trkpt>
      <trkpt lat="39.2725190" lon="-3.7447970">
        <ele>744.3</ele>
        <time>2019-08-12T07:47:03Z</time>
      </trkpt>
      <trkpt lat="39.2725640" lon="-3.7447850">
        <ele>744.4</ele>
        <time>2019-08-12T07:47:04Z</time>
      </trkpt>
      <trkpt lat="39.2726090" lon="-3.7447740">
        <ele>744.4</ele>
        <time>2019-08-12T07:47:05Z</time>
      </trkpt>
      <trkpt lat="39.2726550" lon="-3.7447650">
        <ele>744.5</ele>
        <time>2019-08-12T07:47:06Z</time>
      </trkpt>
      <trkpt lat="39.2727010" lon="-3.7447580">
        <ele>744.5</ele>
        <time>2019-08-12T07:47:07Z</time>
      </trkpt>
      <trkpt lat="39.2727470" lon="-3.7447530">
        <ele>744.6</ele>
        <time>2019-08-12T07:47:08Z</time>
      </trkpt>
      <trkpt lat="39.2727920" lon="-3.7447480">
        <ele>744.7</ele>
        <time>2019-08-12T07:47:09Z</time>
      </trkpt>
      <trkpt lat="39.2728360" lon="-3.7447450">
        <ele>744.8</ele>
        <time>2019-08-12T07:47:10Z</time>
      </trkpt>
      <trkpt lat="39.2728790" lon="-3.7447420">
        <ele>745.0</ele>
        <time>2019-08-12T07:47:11Z</time>
      </trkpt>
      <trkpt lat="39.2729220" lon="-3.7447390">
        <ele>745.1</ele>
        <time>2019-08-12T07:47:12Z</time>
      </trkpt>
      <trkpt lat="39.2729640" lon="-3.7447370">
        <ele>745.3</ele>
        <time>2019-08-12T07:47:13Z</time>
      </trkpt>
      <trkpt lat="39.2730050" lon="-3.7447350">
        <ele>745.4</ele>
        <time>2019-08-12T07:47:14Z</time>
      </trkpt>
      <trkpt lat="39.2730460" lon="-3.7447330">
        <ele>745.5</ele>
        <time>2019-08-12T07:47:15Z</time>
      </trkpt>
      <trkpt lat="39.2730860" lon="-3.7447300">
        <ele>745.7</ele>
        <time>2019-08-12T07:47:16Z</time>
      </trkpt>
      <trkpt lat="39.2731260" lon="-3.7447270">
        <ele>745.8</ele>
        <time>2019-08-12T07:47:17Z</time>
      </trkpt>
      <trkpt lat="39.2731660" lon="-3.7447240">
        <ele>745.9</ele>
        <time>2019-08-12T07:47:18Z</time>
      </trkpt>
      <trkpt lat="39.2732060" lon="-3.7447190">
        <ele>746.1</ele>
        <time>2019-08-12T07:47:19Z</time>
      </trkpt>
      <trkpt lat="39.2732450" lon="-3.7447130">
        <ele>746.2</ele>
        <time>2019-08-12T07:47:20Z</time>
      </trkpt>
      <trkpt lat="39.2732850" lon="-3.7447050">
        <ele>746.3</ele>
        <time>2019-08-12T07:47:21Z</time>
      </trkpt>
      <trkpt lat="39.2733240" lon="-3.7446950">
        <ele>746.4</ele>
        <time>2019-08-12T07:47:22Z</time>
      </trkpt>
      <trkpt lat="39.2733620" lon="-3.7446820">
        <ele>746.5</ele>
        <time>2019-08-12T07:47:23Z</time>
      </trkpt>
      <trkpt lat="39.2734000" lon="-3.7446670">
        <ele>746.6</ele>
        <time>2019-08-12T07:47:24Z</time>
      </trkpt>
      <trkpt lat="39.2734370" lon="-3.7446490">
        <ele>746.7</ele>
        <time>2019-08-12T07:47:25Z</time>
      </trkpt>
      <trkpt lat="39.2734750" lon="-3.7446300">
        <ele>746.8</ele>
        <time>2019-08-12T07:47:26Z</time>
      </trkpt>
      <trkpt lat="39.2735140" lon="-3.7446130">
        <ele>746.9</ele>
        <time>2019-08-12T07:47:27Z</time>
      </trkpt>
      <trkpt lat="39.2735530" lon="-3.7445980">
        <ele>747.0</ele>
        <time>2019-08-12T07:47:28Z</time>
      </trkpt>
      <trkpt lat="39.2735930" lon="-3.7445840">
        <ele>747.1</ele>
        <time>2019-08-12T07:47:29Z</time>
      </trkpt>
      <trkpt lat="39.2736340" lon="-3.7445730">
        <ele>747.2</ele>
        <time>2019-08-12T07:47:30Z</time>
      </trkpt>
      <trkpt lat="39.2736750" lon="-3.7445630">
        <ele>747.3</ele>
        <time>2019-08-12T07:47:31Z</time>
      </trkpt>
      <trkpt lat="39.2737170" lon="-3.7445540">
        <ele>747.4</ele>
        <time>2019-08-12T07:47:32Z</time>
      </trkpt>
      <trkpt lat="39.2737590" lon="-3.7445460">
        <ele>747.5</ele>
        <time>2019-08-12T07:47:33Z</time>
      </trkpt>
      <trkpt lat="39.2738020" lon="-3.7445390">
        <ele>747.6</ele>
        <time>2019-08-12T07:47:34Z</time>
      </trkpt>
      <trkpt lat="39.2738440" lon="-3.7445330">
        <ele>747.7</ele>
        <time>2019-08-12T07:47:35Z</time>
      </trkpt>
      <trkpt lat="39.2738860" lon="-3.7445270">
        <ele>747.9</ele>
        <time>2019-08-12T07:47:36Z</time>
      </trkpt>
      <trkpt lat="39.2739280" lon="-3.7445220">
        <ele>748.0</ele>
        <time>2019-08-12T07:47:37Z</time>
      </trkpt>
      <trkpt lat="39.2739700" lon="-3.7445160">
        <ele>748.2</ele>
        <time>2019-08-12T07:47:38Z</time>
      </trkpt>
      <trkpt lat="39.2740120" lon="-3.7445100">
        <ele>748.3</ele>
        <time>2019-08-12T07:47:39Z</time>
      </trkpt>
      <trkpt lat="39.2740540" lon="-3.7445050">
        <ele>748.5</ele>
        <time>2019-08-12T07:47:40Z</time>
      </trkpt>
      <trkpt lat="39.2740950" lon="-3.7444990">
        <ele>748.6</ele>
        <time>2019-08-12T07:47:41Z</time>
      </trkpt>
      <trkpt lat="39.2741370" lon="-3.7444940">
        <ele>748.8</ele>
        <time>2019-08-12T07:47:42Z</time>
      </trkpt>
      <trkpt lat="39.2741800" lon="-3.7444880">
        <ele>748.9</ele>
        <time>2019-08-12T07:47:43Z</time>
      </trkpt>
      <trkpt lat="39.2742220" lon="-3.7444820">
        <ele>749.0</ele>
        <time>2019-08-12T07:47:44Z</time>
      </trkpt>
      <trkpt lat="39.2742650" lon="-3.7444770">
        <ele>749.1</ele>
        <time>2019-08-12T07:47:45Z</time>
      </trkpt>
      <trkpt lat="39.2743080" lon="-3.7444700">
        <ele>749.1</ele>
        <time>2019-08-12T07:47:46Z</time>
      </trkpt>
      <trkpt lat="39.2743520" lon="-3.7444640">
        <ele>749.2</ele>
        <time>2019-08-12T07:47:47Z</time>
      </trkpt>
      <trkpt lat="39.2743960" lon="-3.7444580">
        <ele>749.2</ele>
        <time>2019-08-12T07:47:48Z</time>
      </trkpt>
      <trkpt lat="39.2744400" lon="-3.7444520">
        <ele>749.2</ele>
        <time>2019-08-12T07:47:49Z</time>
      </trkpt>
      <trkpt lat="39.2744830" lon="-3.7444460">
        <ele>749.3</ele>
        <time>2019-08-12T07:47:50Z</time>
      </trkpt>
      <trkpt lat="39.2745260" lon="-3.7444400">
        <ele>749.3</ele>
        <time>2019-08-12T07:47:51Z</time>
      </trkpt>
      <trkpt lat="39.2745680" lon="-3.7444340">
        <ele>749.3</ele>
        <time>2019-08-12T07:47:52Z</time>
      </trkpt>
      <trkpt lat="39.2746100" lon="-3.7444290">
        <ele>749.3</ele>
        <time>2019-08-12T07:47:53Z</time>
      </trkpt>
      <trkpt lat="39.2746510" lon="-3.7444240">
        <ele>749.3</ele>
        <time>2019-08-12T07:47:54Z</time>
      </trkpt>
      <trkpt lat="39.2746920" lon="-3.7444180">
        <ele>749.3</ele>
        <time>2019-08-12T07:47:55Z</time>
      </trkpt>
      <trkpt lat="39.2747330" lon="-3.7444120">
        <ele>749.3</ele>
        <time>2019-08-12T07:47:56Z</time>
      </trkpt>
      <trkpt lat="39.2747740" lon="-3.7444060">
        <ele>749.4</ele>
        <time>2019-08-12T07:47:57Z</time>
      </trkpt>
      <trkpt lat="39.2748150" lon="-3.7444000">
        <ele>749.4</ele>
        <time>2019-08-12T07:47:58Z</time>
      </trkpt>
      <trkpt lat="39.2748560" lon="-3.7443930">
        <ele>749.5</ele>
        <time>2019-08-12T07:47:59Z</time>
      </trkpt>
      <trkpt lat="39.2748960" lon="-3.7443880">
        <ele>749.6</ele>
        <time>2019-08-12T07:48:00Z</time>
      </trkpt>
      <trkpt lat="39.2749360" lon="-3.7443830">
        <ele>749.7</ele>
        <time>2019-08-12T07:48:01Z</time>
      </trkpt>
      <trkpt lat="39.2749760" lon="-3.7443800">
        <ele>749.8</ele>
        <time>2019-08-12T07:48:02Z</time>
      </trkpt>
      <trkpt lat="39.2750150" lon="-3.7443770">
        <ele>750.0</ele>
        <time>2019-08-12T07:48:03Z</time>
      </trkpt>
      <trkpt lat="39.2750540" lon="-3.7443770">
        <ele>750.1</ele>
        <time>2019-08-12T07:48:04Z</time>
      </trkpt>
      <trkpt lat="39.2750910" lon="-3.7443790">
        <ele>750.3</ele>
        <time>2019-08-12T07:48:05Z</time>
      </trkpt>
      <trkpt lat="39.2751280" lon="-3.7443820">
        <ele>750.4</ele>
        <time>2019-08-12T07:48:06Z</time>
      </trkpt>
      <trkpt lat="39.2751650" lon="-3.7443860">
        <ele>750.6</ele>
        <time>2019-08-12T07:48:07Z</time>
      </trkpt>
      <trkpt lat="39.2752010" lon="-3.7443910">
        <ele>750.7</ele>
        <time>2019-08-12T07:48:08Z</time>
      </trkpt>
      <trkpt lat="39.2752360" lon="-3.7443960">
        <ele>750.8</ele>
        <time>2019-08-12T07:48:09Z</time>
      </trkpt>
      <trkpt lat="39.2752720" lon="-3.7444010">
        <ele>750.9</ele>
        <time>2019-08-12T07:48:10Z</time>
      </trkpt>
      <trkpt lat="39.2753080" lon="-3.7444050">
        <ele>751.0</ele>
        <time>2019-08-12T07:48:11Z</time>
      </trkpt>
      <trkpt lat="39.2753440" lon="-3.7444080">
        <ele>751.1</ele>
        <time>2019-08-12T07:48:12Z</time>
      </trkpt>
      <trkpt lat="39.2753800" lon="-3.7444090">
        <ele>751.1</ele>
        <time>2019-08-12T07:48:13Z</time>
      </trkpt>
      <trkpt lat="39.2754160" lon="-3.7444090">
        <ele>751.2</ele>
        <time>2019-08-12T07:48:14Z</time>
      </trkpt>
      <trkpt lat="39.2754540" lon="-3.7444060">
        <ele>751.2</ele>
        <time>2019-08-12T07:48:15Z</time>
      </trkpt>
      <trkpt lat="39.2754910" lon="-3.7444030">
        <ele>751.2</ele>
        <time>2019-08-12T07:48:16Z</time>
      </trkpt>
      <trkpt lat="39.2755290" lon="-3.7443980">
        <ele>751.2</ele>
        <time>2019-08-12T07:48:17Z</time>
      </trkpt>
      <trkpt lat="39.2755680" lon="-3.7443920">
        <ele>751.3</ele>
        <time>2019-08-12T07:48:18Z</time>
      </trkpt>
      <trkpt lat="39.2756070" lon="-3.7443850">
        <ele>751.3</ele>
        <time>2019-08-12T07:48:19Z</time>
      </trkpt>
      <trkpt lat="39.2756460" lon="-3.7443790">
        <ele>751.3</ele>
        <time>2019-08-12T07:48:20Z</time>
      </trkpt>
      <trkpt lat="39.2756860" lon="-3.7443720">
        <ele>751.3</ele>
        <time>2019-08-12T07:48:21Z</time>
      </trkpt>
      <trkpt lat="39.2757260" lon="-3.7443660">
        <ele>751.3</ele>
        <time>2019-08-12T07:48:22Z</time>
      </trkpt>
      <trkpt lat="39.2757670" lon="-3.7443600">
        <ele>751.3</ele>
        <time>2019-08-12T07:48:23Z</time>
      </trkpt>
      <trkpt lat="39.2758080" lon="-3.7443550">
        <ele>751.3</ele>
        <time>2019-08-12T07:48:24Z</time>
      </trkpt>
      <trkpt lat="39.2758490" lon="-3.7443520">
        <ele>751.3</ele>
        <time>2019-08-12T07:48:25Z</time>
      </trkpt>
      <trkpt lat="39.2758910" lon="-3.7443490">
        <ele>751.3</ele>
        <time>2019-08-12T07:48:26Z</time>
      </trkpt>
      <trkpt lat="39.2759330" lon="-3.7443480">
        <ele>751.3</ele>
        <time>2019-08-12T07:48:27Z</time>
      </trkpt>
      <trkpt lat="39.2759950" lon="-3.7443470">
        <ele>751.3</ele>
        <time>2019-08-12T07:48:28Z</time>
      </trkpt>
      <trkpt lat="39.2760160" lon="-3.7443480">
        <ele>751.3</ele>
        <time>2019-08-12T07:48:29Z</time>
      </trkpt>
      <trkpt lat="39.2760570" lon="-3.7443500">
        <ele>751.3</ele>
        <time>2019-08-12T07:48:30Z</time>
      </trkpt>
      <trkpt lat="39.2760980" lon="-3.7443540">
        <ele>751.3</ele>
        <time>2019-08-12T07:48:31Z</time>
      </trkpt>
      <trkpt lat="39.2761390" lon="-3.7443590">
        <ele>751.3</ele>
        <time>2019-08-12T07:48:32Z</time>
      </trkpt>
      <trkpt lat="39.2761790" lon="-3.7443650">
        <ele>751.3</ele>
        <time>2019-08-12T07:48:33Z</time>
      </trkpt>
      <trkpt lat="39.2762190" lon="-3.7443720">
        <ele>751.3</ele>
        <time>2019-08-12T07:48:34Z</time>
      </trkpt>
      <trkpt lat="39.2762580" lon="-3.7443810">
        <ele>751.3</ele>
        <time>2019-08-12T07:48:35Z</time>
      </trkpt>
      <trkpt lat="39.2763170" lon="-3.7443950">
        <ele>751.3</ele>
        <time>2019-08-12T07:48:36Z</time>
      </trkpt>
      <trkpt lat="39.2763360" lon="-3.7444000">
        <ele>751.3</ele>
        <time>2019-08-12T07:48:37Z</time>
      </trkpt>
      <trkpt lat="39.2763750" lon="-3.7444100">
        <ele>751.3</ele>
        <time>2019-08-12T07:48:38Z</time>
      </trkpt>
      <trkpt lat="39.2764140" lon="-3.7444200">
        <ele>751.3</ele>
        <time>2019-08-12T07:48:39Z</time>
      </trkpt>
      <trkpt lat="39.2764540" lon="-3.7444310">
        <ele>751.4</ele>
        <time>2019-08-12T07:48:40Z</time>
      </trkpt>
      <trkpt lat="39.2764930" lon="-3.7444410">
        <ele>751.4</ele>
        <time>2019-08-12T07:48:41Z</time>
      </trkpt>
      <trkpt lat="39.2765340" lon="-3.7444500">
        <ele>751.4</ele>
        <time>2019-08-12T07:48:42Z</time>
      </trkpt>
      <trkpt lat="39.2765740" lon="-3.7444600">
        <ele>751.5</ele>
        <time>2019-08-12T07:48:43Z</time>
      </trkpt>
      <trkpt lat="39.2766150" lon="-3.7444690">
        <ele>751.6</ele>
        <time>2019-08-12T07:48:44Z</time>
      </trkpt>
      <trkpt lat="39.2766570" lon="-3.7444780">
        <ele>751.7</ele>
        <time>2019-08-12T07:48:45Z</time>
      </trkpt>
      <trkpt lat="39.2766980" lon="-3.7444880">
        <ele>751.9</ele>
        <time>2019-08-12T07:48:46Z</time>
      </trkpt>
      <trkpt lat="39.2767400" lon="-3.7444970">
        <ele>752.0</ele>
        <time>2019-08-12T07:48:47Z</time>
      </trkpt>
      <trkpt lat="39.2767810" lon="-3.7445070">
        <ele>752.2</ele>
        <time>2019-08-12T07:48:48Z</time>
      </trkpt>
      <trkpt lat="39.2768220" lon="-3.7445180">
        <ele>752.3</ele>
        <time>2019-08-12T07:48:49Z</time>
      </trkpt>
      <trkpt lat="39.2768630" lon="-3.7445290">
        <ele>752.5</ele>
        <time>2019-08-12T07:48:50Z</time>
      </trkpt>
      <trkpt lat="39.2769040" lon="-3.7445410">
        <ele>752.7</ele>
        <time>2019-08-12T07:48:51Z</time>
      </trkpt>
      <trkpt lat="39.2769440" lon="-3.7445540">
        <ele>752.8</ele>
        <time>2019-08-12T07:48:52Z</time>
      </trkpt>
      <trkpt lat="39.2769840" lon="-3.7445680">
        <ele>753.0</ele>
        <time>2019-08-12T07:48:53Z</time>
      </trkpt>
      <trkpt lat="39.2770240" lon="-3.7445810">
        <ele>753.2</ele>
        <time>2019-08-12T07:48:54Z</time>
      </trkpt>
      <trkpt lat="39.2770640" lon="-3.7445950">
        <ele>753.3</ele>
        <time>2019-08-12T07:48:55Z</time>
      </trkpt>
      <trkpt lat="39.2771040" lon="-3.7446090">
        <ele>753.5</ele>
        <time>2019-08-12T07:48:56Z</time>
      </trkpt>
      <trkpt lat="39.2771430" lon="-3.7446230">
        <ele>753.7</ele>
        <time>2019-08-12T07:48:57Z</time>
      </trkpt>
      <trkpt lat="39.2771830" lon="-3.7446360">
        <ele>753.9</ele>
        <time>2019-08-12T07:48:58Z</time>
      </trkpt>
      <trkpt lat="39.2772230" lon="-3.7446490">
        <ele>754.1</ele>
        <time>2019-08-12T07:48:59Z</time>
      </trkpt>
      <trkpt lat="39.2772620" lon="-3.7446610">
        <ele>754.2</ele>
        <time>2019-08-12T07:49:00Z</time>
      </trkpt>
      <trkpt lat="39.2773020" lon="-3.7446720">
        <ele>754.4</ele>
        <time>2019-08-12T07:49:01Z</time>
      </trkpt>
      <trkpt lat="39.2773410" lon="-3.7446830">
        <ele>754.6</ele>
        <time>2019-08-12T07:49:02Z</time>
      </trkpt>
      <trkpt lat="39.2773810" lon="-3.7446930">
        <ele>754.7</ele>
        <time>2019-08-12T07:49:03Z</time>
      </trkpt>
      <trkpt lat="39.2774210" lon="-3.7447030">
        <ele>754.9</ele>
        <time>2019-08-12T07:49:04Z</time>
      </trkpt>
      <trkpt lat="39.2774600" lon="-3.7447120">
        <ele>755.0</ele>
        <time>2019-08-12T07:49:05Z</time>
      </trkpt>
      <trkpt lat="39.2775000" lon="-3.7447220">
        <ele>755.1</ele>
        <time>2019-08-12T07:49:06Z</time>
      </trkpt>
      <trkpt lat="39.2775390" lon="-3.7447320">
        <ele>755.3</ele>
        <time>2019-08-12T07:49:07Z</time>
      </trkpt>
      <trkpt lat="39.2775780" lon="-3.7447420">
        <ele>755.4</ele>
        <time>2019-08-12T07:49:08Z</time>
      </trkpt>
      <trkpt lat="39.2776170" lon="-3.7447530">
        <ele>755.5</ele>
        <time>2019-08-12T07:49:09Z</time>
      </trkpt>
      <trkpt lat="39.2776550" lon="-3.7447650">
        <ele>755.6</ele>
        <time>2019-08-12T07:49:10Z</time>
      </trkpt>
      <trkpt lat="39.2777180" lon="-3.7447860">
        <ele>755.7</ele>
        <time>2019-08-12T07:49:11Z</time>
      </trkpt>
      <trkpt lat="39.2777440" lon="-3.7447950">
        <ele>755.8</ele>
        <time>2019-08-12T07:49:12Z</time>
      </trkpt>
      <trkpt lat="39.2777690" lon="-3.7448030">
        <ele>755.9</ele>
        <time>2019-08-12T07:49:13Z</time>
      </trkpt>
      <trkpt lat="39.2778070" lon="-3.7448170">
        <ele>755.9</ele>
        <time>2019-08-12T07:49:14Z</time>
      </trkpt>
      <trkpt lat="39.2778450" lon="-3.7448300">
        <ele>756.0</ele>
        <time>2019-08-12T07:49:15Z</time>
      </trkpt>
      <trkpt lat="39.2779100" lon="-3.7448500">
        <ele>756.1</ele>
        <time>2019-08-12T07:49:16Z</time>
      </trkpt>
      <trkpt lat="39.2779350" lon="-3.7448580">
        <ele>756.1</ele>
        <time>2019-08-12T07:49:17Z</time>
      </trkpt>
      <trkpt lat="39.2779610" lon="-3.7448660">
        <ele>756.1</ele>
        <time>2019-08-12T07:49:18Z</time>
      </trkpt>
      <trkpt lat="39.2780010" lon="-3.7448760">
        <ele>756.2</ele>
        <time>2019-08-12T07:49:19Z</time>
      </trkpt>
      <trkpt lat="39.2780400" lon="-3.7448860">
        <ele>756.2</ele>
        <time>2019-08-12T07:49:20Z</time>
      </trkpt>
      <trkpt lat="39.2780800" lon="-3.7448950">
        <ele>756.2</ele>
        <time>2019-08-12T07:49:21Z</time>
      </trkpt>
      <trkpt lat="39.2781210" lon="-3.7449050">
        <ele>756.3</ele>
        <time>2019-08-12T07:49:22Z</time>
      </trkpt>
      <trkpt lat="39.2781610" lon="-3.7449150">
        <ele>756.3</ele>
        <time>2019-08-12T07:49:23Z</time>
      </trkpt>
      <trkpt lat="39.2782010" lon="-3.7449260">
        <ele>756.3</ele>
        <time>2019-08-12T07:49:24Z</time>
      </trkpt>
      <trkpt lat="39.2782410" lon="-3.7449380">
        <ele>756.3</ele>
        <time>2019-08-12T07:49:25Z</time>
      </trkpt>
      <trkpt lat="39.2782810" lon="-3.7449520">
        <ele>756.4</ele>
        <time>2019-08-12T07:49:26Z</time>
      </trkpt>
      <trkpt lat="39.2783210" lon="-3.7449670">
        <ele>756.4</ele>
        <time>2019-08-12T07:49:27Z</time>
      </trkpt>
      <trkpt lat="39.2783600" lon="-3.7449850">
        <ele>756.5</ele>
        <time>2019-08-12T07:49:28Z</time>
      </trkpt>
      <trkpt lat="39.2783990" lon="-3.7450030">
        <ele>756.6</ele>
        <time>2019-08-12T07:49:29Z</time>
      </trkpt>
      <trkpt lat="39.2784370" lon="-3.7450220">
        <ele>756.7</ele>
        <time>2019-08-12T07:49:30Z</time>
      </trkpt>
      <trkpt lat="39.2784760" lon="-3.7450400">
        <ele>756.8</ele>
        <time>2019-08-12T07:49:31Z</time>
      </trkpt>
      <trkpt lat="39.2785130" lon="-3.7450550">
        <ele>757.0</ele>
        <time>2019-08-12T07:49:32Z</time>
      </trkpt>
      <trkpt lat="39.2785500" lon="-3.7450680">
        <ele>757.1</ele>
        <time>2019-08-12T07:49:33Z</time>
      </trkpt>
      <trkpt lat="39.2785870" lon="-3.7450780">
        <ele>757.3</ele>
        <time>2019-08-12T07:49:34Z</time>
      </trkpt>
      <trkpt lat="39.2786240" lon="-3.7450870">
        <ele>757.4</ele>
        <time>2019-08-12T07:49:35Z</time>
      </trkpt>
      <trkpt lat="39.2786610" lon="-3.7450940">
        <ele>757.6</ele>
        <time>2019-08-12T07:49:36Z</time>
      </trkpt>
      <trkpt lat="39.2786980" lon="-3.7451000">
        <ele>757.8</ele>
        <time>2019-08-12T07:49:37Z</time>
      </trkpt>
      <trkpt lat="39.2787370" lon="-3.7451060">
        <ele>758.0</ele>
        <time>2019-08-12T07:49:38Z</time>
      </trkpt>
      <trkpt lat="39.2787760" lon="-3.7451120">
        <ele>758.2</ele>
        <time>2019-08-12T07:49:39Z</time>
      </trkpt>
      <trkpt lat="39.2788150" lon="-3.7451190">
        <ele>758.4</ele>
        <time>2019-08-12T07:49:40Z</time>
      </trkpt>
      <trkpt lat="39.2788550" lon="-3.7451260">
        <ele>758.6</ele>
        <time>2019-08-12T07:49:41Z</time>
      </trkpt>
      <trkpt lat="39.2788950" lon="-3.7451340">
        <ele>758.8</ele>
        <time>2019-08-12T07:49:42Z</time>
      </trkpt>
      <trkpt lat="39.2789340" lon="-3.7451430">
        <ele>759.1</ele>
        <time>2019-08-12T07:49:43Z</time>
      </trkpt>
      <trkpt lat="39.2789730" lon="-3.7451520">
        <ele>759.3</ele>
        <time>2019-08-12T07:49:44Z</time>
      </trkpt>
      <trkpt lat="39.2790130" lon="-3.7451630">
        <ele>759.6</ele>
        <time>2019-08-12T07:49:45Z</time>
      </trkpt>
      <trkpt lat="39.2790520" lon="-3.7451730">
        <ele>759.8</ele>
        <time>2019-08-12T07:49:46Z</time>
      </trkpt>
      <trkpt lat="39.2790910" lon="-3.7451840">
        <ele>760.1</ele>
        <time>2019-08-12T07:49:47Z</time>
      </trkpt>
      <trkpt lat="39.2791290" lon="-3.7451950">
        <ele>760.3</ele>
        <time>2019-08-12T07:49:48Z</time>
      </trkpt>
      <trkpt lat="39.2791680" lon="-3.7452060">
        <ele>760.5</ele>
        <time>2019-08-12T07:49:49Z</time>
      </trkpt>
      <trkpt lat="39.2792060" lon="-3.7452170">
        <ele>760.7</ele>
        <time>2019-08-12T07:49:50Z</time>
      </trkpt>
      <trkpt lat="39.2792440" lon="-3.7452280">
        <ele>760.8</ele>
        <time>2019-08-12T07:49:51Z</time>
      </trkpt>
      <trkpt lat="39.2792820" lon="-3.7452390">
        <ele>761.0</ele>
        <time>2019-08-12T07:49:52Z</time>
      </trkpt>
      <trkpt lat="39.2793190" lon="-3.7452500">
        <ele>761.1</ele>
        <time>2019-08-12T07:49:53Z</time>
      </trkpt>
      <trkpt lat="39.2793570" lon="-3.7452610">
        <ele>761.2</ele>
        <time>2019-08-12T07:49:54Z</time>
      </trkpt>
      <trkpt lat="39.2793950" lon="-3.7452720">
        <ele>761.3</ele>
        <time>2019-08-12T07:49:55Z</time>
      </trkpt>
      <trkpt lat="39.2794320" lon="-3.7452830">
        <ele>761.4</ele>
        <time>2019-08-12T07:49:56Z</time>
      </trkpt>
      <trkpt lat="39.2794690" lon="-3.7452940">
        <ele>761.4</ele>
        <time>2019-08-12T07:49:57Z</time>
      </trkpt>
      <trkpt lat="39.2795060" lon="-3.7453050">
        <ele>761.5</ele>
        <time>2019-08-12T07:49:58Z</time>
      </trkpt>
      <trkpt lat="39.2795440" lon="-3.7453160">
        <ele>761.6</ele>
        <time>2019-08-12T07:49:59Z</time>
      </trkpt>
      <trkpt lat="39.2795810" lon="-3.7453270">
        <ele>761.8</ele>
        <time>2019-08-12T07:50:00Z</time>
      </trkpt>
      <trkpt lat="39.2796180" lon="-3.7453380">
        <ele>761.9</ele>
        <time>2019-08-12T07:50:01Z</time>
      </trkpt>
      <trkpt lat="39.2796550" lon="-3.7453490">
        <ele>762.0</ele>
        <time>2019-08-12T07:50:02Z</time>
      </trkpt>
      <trkpt lat="39.2796920" lon="-3.7453590">
        <ele>762.2</ele>
        <time>2019-08-12T07:50:03Z</time>
      </trkpt>
      <trkpt lat="39.2797290" lon="-3.7453700">
        <ele>762.4</ele>
        <time>2019-08-12T07:50:04Z</time>
      </trkpt>
      <trkpt lat="39.2797660" lon="-3.7453800">
        <ele>762.6</ele>
        <time>2019-08-12T07:50:05Z</time>
      </trkpt>
      <trkpt lat="39.2798030" lon="-3.7453910">
        <ele>762.9</ele>
        <time>2019-08-12T07:50:06Z</time>
      </trkpt>
      <trkpt lat="39.2798400" lon="-3.7454010">
        <ele>763.1</ele>
        <time>2019-08-12T07:50:07Z</time>
      </trkpt>
      <trkpt lat="39.2798770" lon="-3.7454110">
        <ele>763.4</ele>
        <time>2019-08-12T07:50:08Z</time>
      </trkpt>
      <trkpt lat="39.2799150" lon="-3.7454210">
        <ele>763.6</ele>
        <time>2019-08-12T07:50:09Z</time>
      </trkpt>
      <trkpt lat="39.2799520" lon="-3.7454310">
        <ele>763.9</ele>
        <time>2019-08-12T07:50:10Z</time>
      </trkpt>
      <trkpt lat="39.2799900" lon="-3.7454400">
        <ele>764.1</ele>
        <time>2019-08-12T07:50:11Z</time>
      </trkpt>
      <trkpt lat="39.2800280" lon="-3.7454490">
        <ele>764.3</ele>
        <time>2019-08-12T07:50:12Z</time>
      </trkpt>
      <trkpt lat="39.2800660" lon="-3.7454580">
        <ele>764.5</ele>
        <time>2019-08-12T07:50:13Z</time>
      </trkpt>
      <trkpt lat="39.2801050" lon="-3.7454670">
        <ele>764.7</ele>
        <time>2019-08-12T07:50:14Z</time>
      </trkpt>
      <trkpt lat="39.2801430" lon="-3.7454750">
        <ele>764.8</ele>
        <time>2019-08-12T07:50:15Z</time>
      </trkpt>
      <trkpt lat="39.2801820" lon="-3.7454840">
        <ele>764.9</ele>
        <time>2019-08-12T07:50:16Z</time>
      </trkpt>
      <trkpt lat="39.2802210" lon="-3.7454920">
        <ele>765.0</ele>
        <time>2019-08-12T07:50:17Z</time>
      </trkpt>
      <trkpt lat="39.2802590" lon="-3.7455010">
        <ele>765.1</ele>
        <time>2019-08-12T07:50:18Z</time>
      </trkpt>
      <trkpt lat="39.2802970" lon="-3.7455090">
        <ele>765.1</ele>
        <time>2019-08-12T07:50:19Z</time>
      </trkpt>
      <trkpt lat="39.2803330" lon="-3.7455180">
        <ele>765.2</ele>
        <time>2019-08-12T07:50:20Z</time>
      </trkpt>
      <trkpt lat="39.2803690" lon="-3.7455270">
        <ele>765.2</ele>
        <time>2019-08-12T07:50:21Z</time>
      </trkpt>
      <trkpt lat="39.2804040" lon="-3.7455370">
        <ele>765.2</ele>
        <time>2019-08-12T07:50:22Z</time>
      </trkpt>
      <trkpt lat="39.2804400" lon="-3.7455470">
        <ele>765.2</ele>
        <time>2019-08-12T07:50:23Z</time>
      </trkpt>
      <trkpt lat="39.2804750" lon="-3.7455570">
        <ele>765.2</ele>
        <time>2019-08-12T07:50:24Z</time>
      </trkpt>
      <trkpt lat="39.2805100" lon="-3.7455670">
        <ele>765.2</ele>
        <time>2019-08-12T07:50:25Z</time>
      </trkpt>
      <trkpt lat="39.2805460" lon="-3.7455780">
        <ele>765.2</ele>
        <time>2019-08-12T07:50:26Z</time>
      </trkpt>
      <trkpt lat="39.2805810" lon="-3.7455880">
        <ele>765.2</ele>
        <time>2019-08-12T07:50:27Z</time>
      </trkpt>
      <trkpt lat="39.2806170" lon="-3.7455990">
        <ele>765.2</ele>
        <time>2019-08-12T07:50:28Z</time>
      </trkpt>
      <trkpt lat="39.2806530" lon="-3.7456090">
        <ele>765.3</ele>
        <time>2019-08-12T07:50:29Z</time>
      </trkpt>
      <trkpt lat="39.2806880" lon="-3.7456200">
        <ele>765.3</ele>
        <time>2019-08-12T07:50:30Z</time>
      </trkpt>
      <trkpt lat="39.2807240" lon="-3.7456310">
        <ele>765.3</ele>
        <time>2019-08-12T07:50:31Z</time>
      </trkpt>
      <trkpt lat="39.2807610" lon="-3.7456410">
        <ele>765.3</ele>
        <time>2019-08-12T07:50:32Z</time>
      </trkpt>
      <trkpt lat="39.2807970" lon="-3.7456520">
        <ele>765.3</ele>
        <time>2019-08-12T07:50:33Z</time>
      </trkpt>
      <trkpt lat="39.2808340" lon="-3.7456620">
        <ele>765.3</ele>
        <time>2019-08-12T07:50:34Z</time>
      </trkpt>
      <trkpt lat="39.2808700" lon="-3.7456720">
        <ele>765.3</ele>
        <time>2019-08-12T07:50:35Z</time>
      </trkpt>
      <trkpt lat="39.2809070" lon="-3.7456820">
        <ele>765.3</ele>
        <time>2019-08-12T07:50:36Z</time>
      </trkpt>
      <trkpt lat="39.2809440" lon="-3.7456910">
        <ele>765.4</ele>
        <time>2019-08-12T07:50:37Z</time>
      </trkpt>
      <trkpt lat="39.2809820" lon="-3.7457010">
        <ele>765.4</ele>
        <time>2019-08-12T07:50:38Z</time>
      </trkpt>
      <trkpt lat="39.2810190" lon="-3.7457100">
        <ele>765.5</ele>
        <time>2019-08-12T07:50:39Z</time>
      </trkpt>
      <trkpt lat="39.2810570" lon="-3.7457180">
        <ele>765.6</ele>
        <time>2019-08-12T07:50:40Z</time>
      </trkpt>
      <trkpt lat="39.2810950" lon="-3.7457260">
        <ele>765.7</ele>
        <time>2019-08-12T07:50:41Z</time>
      </trkpt>
      <trkpt lat="39.2811330" lon="-3.7457340">
        <ele>765.7</ele>
        <time>2019-08-12T07:50:42Z</time>
      </trkpt>
      <trkpt lat="39.2811710" lon="-3.7457410">
        <ele>765.9</ele>
        <time>2019-08-12T07:50:43Z</time>
      </trkpt>
      <trkpt lat="39.2812100" lon="-3.7457480">
        <ele>766.0</ele>
        <time>2019-08-12T07:50:44Z</time>
      </trkpt>
      <trkpt lat="39.2812490" lon="-3.7457550">
        <ele>766.1</ele>
        <time>2019-08-12T07:50:45Z</time>
      </trkpt>
      <trkpt lat="39.2812870" lon="-3.7457610">
        <ele>766.3</ele>
        <time>2019-08-12T07:50:46Z</time>
      </trkpt>
      <trkpt lat="39.2813260" lon="-3.7457670">
        <ele>766.5</ele>
        <time>2019-08-12T07:50:47Z</time>
      </trkpt>
      <trkpt lat="39.2813650" lon="-3.7457730">
        <ele>766.6</ele>
        <time>2019-08-12T07:50:48Z</time>
      </trkpt>
      <trkpt lat="39.2814030" lon="-3.7457790">
        <ele>766.8</ele>
        <time>2019-08-12T07:50:49Z</time>
      </trkpt>
      <trkpt lat="39.2814420" lon="-3.7457840">
        <ele>766.9</ele>
        <time>2019-08-12T07:50:50Z</time>
      </trkpt>
      <trkpt lat="39.2814800" lon="-3.7457900">
        <ele>767.1</ele>
        <time>2019-08-12T07:50:51Z</time>
      </trkpt>
      <trkpt lat="39.2815180" lon="-3.7457950">
        <ele>767.2</ele>
        <time>2019-08-12T07:50:52Z</time>
      </trkpt>
      <trkpt lat="39.2815560" lon="-3.7458010">
        <ele>767.4</ele>
        <time>2019-08-12T07:50:53Z</time>
      </trkpt>
      <trkpt lat="39.2815940" lon="-3.7458060">
        <ele>767.5</ele>
        <time>2019-08-12T07:50:54Z</time>
      </trkpt>
      <trkpt lat="39.2816330" lon="-3.7458110">
        <ele>767.7</ele>
        <time>2019-08-12T07:50:55Z</time>
      </trkpt>
      <trkpt lat="39.2816710" lon="-3.7458160">
        <ele>767.8</ele>
        <time>2019-08-12T07:50:56Z</time>
      </trkpt>
      <trkpt lat="39.2817090" lon="-3.7458210">
        <ele>767.9</ele>
        <time>2019-08-12T07:50:57Z</time>
      </trkpt>
      <trkpt lat="39.2817480" lon="-3.7458250">
        <ele>768.0</ele>
        <time>2019-08-12T07:50:58Z</time>
      </trkpt>
      <trkpt lat="39.2817880" lon="-3.7458290">
        <ele>768.1</ele>
        <time>2019-08-12T07:50:59Z</time>
      </trkpt>
      <trkpt lat="39.2818280" lon="-3.7458330">
        <ele>768.2</ele>
        <time>2019-08-12T07:51:00Z</time>
      </trkpt>
      <trkpt lat="39.2818680" lon="-3.7458370">
        <ele>768.2</ele>
        <time>2019-08-12T07:51:01Z</time>
      </trkpt>
      <trkpt lat="39.2819090" lon="-3.7458410">
        <ele>768.2</ele>
        <time>2019-08-12T07:51:02Z</time>
      </trkpt>
      <trkpt lat="39.2819510" lon="-3.7458450">
        <ele>768.3</ele>
        <time>2019-08-12T07:51:03Z</time>
      </trkpt>
      <trkpt lat="39.2819920" lon="-3.7458500">
        <ele>768.3</ele>
        <time>2019-08-12T07:51:04Z</time>
      </trkpt>
      <trkpt lat="39.2820330" lon="-3.7458560">
        <ele>768.3</ele>
        <time>2019-08-12T07:51:05Z</time>
      </trkpt>
      <trkpt lat="39.2820740" lon="-3.7458630">
        <ele>768.3</ele>
        <time>2019-08-12T07:51:06Z</time>
      </trkpt>
      <trkpt lat="39.2821150" lon="-3.7458730">
        <ele>768.3</ele>
        <time>2019-08-12T07:51:07Z</time>
      </trkpt>
      <trkpt lat="39.2821550" lon="-3.7458850">
        <ele>768.3</ele>
        <time>2019-08-12T07:51:08Z</time>
      </trkpt>
      <trkpt lat="39.2821940" lon="-3.7458990">
        <ele>768.3</ele>
        <time>2019-08-12T07:51:09Z</time>
      </trkpt>
      <trkpt lat="39.2822320" lon="-3.7459160">
        <ele>768.3</ele>
        <time>2019-08-12T07:51:10Z</time>
      </trkpt>
      <trkpt lat="39.2822690" lon="-3.7459360">
        <ele>768.3</ele>
        <time>2019-08-12T07:51:11Z</time>
      </trkpt>
      <trkpt lat="39.2823050" lon="-3.7459590">
        <ele>768.6</ele>
        <time>2019-08-12T07:51:12Z</time>
      </trkpt>
      <trkpt lat="39.2823410" lon="-3.7459830">
        <ele>768.6</ele>
        <time>2019-08-12T07:51:13Z</time>
      </trkpt>
      <trkpt lat="39.2823760" lon="-3.7460080">
        <ele>768.9</ele>
        <time>2019-08-12T07:51:14Z</time>
      </trkpt>
      <trkpt lat="39.2824100" lon="-3.7460350">
        <ele>769.0</ele>
        <time>2019-08-12T07:51:15Z</time>
      </trkpt>
      <trkpt lat="39.2824440" lon="-3.7460630">
        <ele>769.3</ele>
        <time>2019-08-12T07:51:16Z</time>
      </trkpt>
      <trkpt lat="39.2824780" lon="-3.7460910">
        <ele>769.7</ele>
        <time>2019-08-12T07:51:17Z</time>
      </trkpt>
      <trkpt lat="39.2825110" lon="-3.7461190">
        <ele>769.7</ele>
        <time>2019-08-12T07:51:18Z</time>
      </trkpt>
      <trkpt lat="39.2825430" lon="-3.7461470">
        <ele>770.1</ele>
        <time>2019-08-12T07:51:19Z</time>
      </trkpt>
      <trkpt lat="39.2825760" lon="-3.7461750">
        <ele>770.4</ele>
        <time>2019-08-12T07:51:20Z</time>
      </trkpt>
      <trkpt lat="39.2826080" lon="-3.7462020">
        <ele>770.5</ele>
        <time>2019-08-12T07:51:21Z</time>
      </trkpt>
      <trkpt lat="39.2826400" lon="-3.7462300">
        <ele>770.8</ele>
        <time>2019-08-12T07:51:22Z</time>
      </trkpt>
      <trkpt lat="39.2826720" lon="-3.7462570">
        <ele>771.0</ele>
        <time>2019-08-12T07:51:23Z</time>
      </trkpt>
      <trkpt lat="39.2827030" lon="-3.7462840">
        <ele>771.0</ele>
        <time>2019-08-12T07:51:24Z</time>
      </trkpt>
      <trkpt lat="39.2827350" lon="-3.7463110">
        <ele>771.2</ele>
        <time>2019-08-12T07:51:25Z</time>
      </trkpt>
      <trkpt lat="39.2827660" lon="-3.7463380">
        <ele>771.5</ele>
        <time>2019-08-12T07:51:26Z</time>
      </trkpt>
      <trkpt lat="39.2827980" lon="-3.7463640">
        <ele>771.5</ele>
        <time>2019-08-12T07:51:27Z</time>
      </trkpt>
      <trkpt lat="39.2828290" lon="-3.7463910">
        <ele>771.7</ele>
        <time>2019-08-12T07:51:28Z</time>
      </trkpt>
      <trkpt lat="39.2828600" lon="-3.7464170">
        <ele>771.7</ele>
        <time>2019-08-12T07:51:29Z</time>
      </trkpt>
      <trkpt lat="39.2828910" lon="-3.7464440">
        <ele>771.8</ele>
        <time>2019-08-12T07:51:30Z</time>
      </trkpt>
      <trkpt lat="39.2829220" lon="-3.7464700">
        <ele>772.0</ele>
        <time>2019-08-12T07:51:31Z</time>
      </trkpt>
      <trkpt lat="39.2829540" lon="-3.7464970">
        <ele>771.9</ele>
        <time>2019-08-12T07:51:32Z</time>
      </trkpt>
      <trkpt lat="39.2829850" lon="-3.7465240">
        <ele>772.1</ele>
        <time>2019-08-12T07:51:33Z</time>
      </trkpt>
      <trkpt lat="39.2830160" lon="-3.7465510">
        <ele>772.0</ele>
        <time>2019-08-12T07:51:34Z</time>
      </trkpt>
      <trkpt lat="39.2830480" lon="-3.7465790">
        <ele>772.2</ele>
        <time>2019-08-12T07:51:35Z</time>
      </trkpt>
      <trkpt lat="39.2830790" lon="-3.7466070">
        <ele>772.3</ele>
        <time>2019-08-12T07:51:36Z</time>
      </trkpt>
      <trkpt lat="39.2831110" lon="-3.7466350">
        <ele>772.2</ele>
        <time>2019-08-12T07:51:37Z</time>
      </trkpt>
      <trkpt lat="39.2831430" lon="-3.7466640">
        <ele>772.3</ele>
        <time>2019-08-12T07:51:38Z</time>
      </trkpt>
      <trkpt lat="39.2831750" lon="-3.7466940">
        <ele>772.5</ele>
        <time>2019-08-12T07:51:39Z</time>
      </trkpt>
      <trkpt lat="39.2832070" lon="-3.7467240">
        <ele>772.4</ele>
        <time>2019-08-12T07:51:40Z</time>
      </trkpt>
      <trkpt lat="39.2832390" lon="-3.7467540">
        <ele>772.5</ele>
        <time>2019-08-12T07:51:41Z</time>
      </trkpt>
      <trkpt lat="39.2832720" lon="-3.7467840">
        <ele>772.7</ele>
        <time>2019-08-12T07:51:42Z</time>
      </trkpt>
      <trkpt lat="39.2833040" lon="-3.7468140">
        <ele>772.7</ele>
        <time>2019-08-12T07:51:43Z</time>
      </trkpt>
      <trkpt lat="39.2833370" lon="-3.7468440">
        <ele>772.7</ele>
        <time>2019-08-12T07:51:44Z</time>
      </trkpt>
      <trkpt lat="39.2833700" lon="-3.7468750">
        <ele>772.8</ele>
        <time>2019-08-12T07:51:45Z</time>
      </trkpt>
      <trkpt lat="39.2834030" lon="-3.7469050">
        <ele>772.9</ele>
        <time>2019-08-12T07:51:46Z</time>
      </trkpt>
      <trkpt lat="39.2834360" lon="-3.7469340">
        <ele>772.9</ele>
        <time>2019-08-12T07:51:47Z</time>
      </trkpt>
      <trkpt lat="39.2834690" lon="-3.7469640">
        <ele>773.1</ele>
        <time>2019-08-12T07:51:48Z</time>
      </trkpt>
      <trkpt lat="39.2835020" lon="-3.7469930">
        <ele>773.3</ele>
        <time>2019-08-12T07:51:49Z</time>
      </trkpt>
      <trkpt lat="39.2835350" lon="-3.7470230">
        <ele>773.3</ele>
        <time>2019-08-12T07:51:50Z</time>
      </trkpt>
      <trkpt lat="39.2835670" lon="-3.7470520">
        <ele>773.5</ele>
        <time>2019-08-12T07:51:51Z</time>
      </trkpt>
      <trkpt lat="39.2836000" lon="-3.7470820">
        <ele>773.8</ele>
        <time>2019-08-12T07:51:52Z</time>
      </trkpt>
      <trkpt lat="39.2836310" lon="-3.7471120">
        <ele>774.0</ele>
        <time>2019-08-12T07:51:53Z</time>
      </trkpt>
      <trkpt lat="39.2836620" lon="-3.7471430">
        <ele>774.0</ele>
        <time>2019-08-12T07:51:54Z</time>
      </trkpt>
      <trkpt lat="39.2836930" lon="-3.7471740">
        <ele>774.3</ele>
        <time>2019-08-12T07:51:55Z</time>
      </trkpt>
      <trkpt lat="39.2837220" lon="-3.7472060">
        <ele>774.6</ele>
        <time>2019-08-12T07:51:56Z</time>
      </trkpt>
      <trkpt lat="39.2837510" lon="-3.7472380">
        <ele>774.6</ele>
        <time>2019-08-12T07:51:57Z</time>
      </trkpt>
      <trkpt lat="39.2837790" lon="-3.7472710">
        <ele>774.8</ele>
        <time>2019-08-12T07:51:58Z</time>
      </trkpt>
      <trkpt lat="39.2838070" lon="-3.7473040">
        <ele>775.0</ele>
        <time>2019-08-12T07:51:59Z</time>
      </trkpt>
      <trkpt lat="39.2838350" lon="-3.7473380">
        <ele>775.1</ele>
        <time>2019-08-12T07:52:00Z</time>
      </trkpt>
      <trkpt lat="39.2838620" lon="-3.7473730">
        <ele>775.3</ele>
        <time>2019-08-12T07:52:01Z</time>
      </trkpt>
      <trkpt lat="39.2838890" lon="-3.7474080">
        <ele>775.3</ele>
        <time>2019-08-12T07:52:02Z</time>
      </trkpt>
      <trkpt lat="39.2839160" lon="-3.7474430">
        <ele>775.4</ele>
        <time>2019-08-12T07:52:03Z</time>
      </trkpt>
      <trkpt lat="39.2839430" lon="-3.7474790">
        <ele>775.6</ele>
        <time>2019-08-12T07:52:04Z</time>
      </trkpt>
      <trkpt lat="39.2839710" lon="-3.7475160">
        <ele>775.7</ele>
        <time>2019-08-12T07:52:05Z</time>
      </trkpt>
      <trkpt lat="39.2839980" lon="-3.7475530">
        <ele>776.0</ele>
        <time>2019-08-12T07:52:06Z</time>
      </trkpt>
      <trkpt lat="39.2840250" lon="-3.7475900">
        <ele>776.2</ele>
        <time>2019-08-12T07:52:07Z</time>
      </trkpt>
      <trkpt lat="39.2840520" lon="-3.7476280">
        <ele>776.4</ele>
        <time>2019-08-12T07:52:08Z</time>
      </trkpt>
      <trkpt lat="39.2840790" lon="-3.7476660">
        <ele>776.4</ele>
        <time>2019-08-12T07:52:09Z</time>
      </trkpt>
      <trkpt lat="39.2841050" lon="-3.7477040">
        <ele>776.6</ele>
        <time>2019-08-12T07:52:10Z</time>
      </trkpt>
      <trkpt lat="39.2841310" lon="-3.7477420">
        <ele>776.8</ele>
        <time>2019-08-12T07:52:11Z</time>
      </trkpt>
      <trkpt lat="39.2841560" lon="-3.7477800">
        <ele>777.0</ele>
        <time>2019-08-12T07:52:12Z</time>
      </trkpt>
      <trkpt lat="39.2841810" lon="-3.7478180">
        <ele>777.2</ele>
        <time>2019-08-12T07:52:13Z</time>
      </trkpt>
      <trkpt lat="39.2842060" lon="-3.7478570">
        <ele>777.3</ele>
        <time>2019-08-12T07:52:14Z</time>
      </trkpt>
      <trkpt lat="39.2842300" lon="-3.7478950">
        <ele>777.4</ele>
        <time>2019-08-12T07:52:15Z</time>
      </trkpt>
      <trkpt lat="39.2842540" lon="-3.7479330">
        <ele>777.7</ele>
        <time>2019-08-12T07:52:16Z</time>
      </trkpt>
      <trkpt lat="39.2842780" lon="-3.7479720">
        <ele>777.8</ele>
        <time>2019-08-12T07:52:17Z</time>
      </trkpt>
      <trkpt lat="39.2843010" lon="-3.7480100">
        <ele>777.7</ele>
        <time>2019-08-12T07:52:18Z</time>
      </trkpt>
      <trkpt lat="39.2843250" lon="-3.7480490">
        <ele>777.8</ele>
        <time>2019-08-12T07:52:19Z</time>
      </trkpt>
      <trkpt lat="39.2843480" lon="-3.7480870">
        <ele>778.0</ele>
        <time>2019-08-12T07:52:20Z</time>
      </trkpt>
      <trkpt lat="39.2843720" lon="-3.7481260">
        <ele>778.2</ele>
        <time>2019-08-12T07:52:21Z</time>
      </trkpt>
      <trkpt lat="39.2843950" lon="-3.7481640">
        <ele>778.3</ele>
        <time>2019-08-12T07:52:22Z</time>
      </trkpt>
      <trkpt lat="39.2844190" lon="-3.7482020">
        <ele>778.4</ele>
        <time>2019-08-12T07:52:23Z</time>
      </trkpt>
      <trkpt lat="39.2844420" lon="-3.7482410">
        <ele>778.5</ele>
        <time>2019-08-12T07:52:24Z</time>
      </trkpt>
      <trkpt lat="39.2844660" lon="-3.7482790">
        <ele>778.6</ele>
        <time>2019-08-12T07:52:25Z</time>
      </trkpt>
      <trkpt lat="39.2844900" lon="-3.7483170">
        <ele>778.7</ele>
        <time>2019-08-12T07:52:26Z</time>
      </trkpt>
      <trkpt lat="39.2845140" lon="-3.7483560">
        <ele>778.9</ele>
        <time>2019-08-12T07:52:27Z</time>
      </trkpt>
      <trkpt lat="39.2845380" lon="-3.7483940">
        <ele>778.8</ele>
        <time>2019-08-12T07:52:28Z</time>
      </trkpt>
      <trkpt lat="39.2845620" lon="-3.7484320">
        <ele>779.0</ele>
        <time>2019-08-12T07:52:29Z</time>
      </trkpt>
      <trkpt lat="39.2845870" lon="-3.7484700">
        <ele>779.1</ele>
        <time>2019-08-12T07:52:30Z</time>
      </trkpt>
      <trkpt lat="39.2846120" lon="-3.7485080">
        <ele>779.3</ele>
        <time>2019-08-12T07:52:31Z</time>
      </trkpt>
      <trkpt lat="39.2846380" lon="-3.7485460">
        <ele>779.4</ele>
        <time>2019-08-12T07:52:32Z</time>
      </trkpt>
      <trkpt lat="39.2846640" lon="-3.7485840">
        <ele>779.6</ele>
        <time>2019-08-12T07:52:33Z</time>
      </trkpt>
      <trkpt lat="39.2846890" lon="-3.7486220">
        <ele>779.7</ele>
        <time>2019-08-12T07:52:34Z</time>
      </trkpt>
      <trkpt lat="39.2847150" lon="-3.7486610">
        <ele>779.9</ele>
        <time>2019-08-12T07:52:35Z</time>
      </trkpt>
      <trkpt lat="39.2847400" lon="-3.7487000">
        <ele>780.0</ele>
        <time>2019-08-12T07:52:36Z</time>
      </trkpt>
      <trkpt lat="39.2847650" lon="-3.7487390">
        <ele>780.0</ele>
        <time>2019-08-12T07:52:37Z</time>
      </trkpt>
      <trkpt lat="39.2847890" lon="-3.7487790">
        <ele>780.2</ele>
        <time>2019-08-12T07:52:38Z</time>
      </trkpt>
      <trkpt lat="39.2848130" lon="-3.7488200">
        <ele>780.3</ele>
        <time>2019-08-12T07:52:39Z</time>
      </trkpt>
      <trkpt lat="39.2848350" lon="-3.7488620">
        <ele>780.4</ele>
        <time>2019-08-12T07:52:40Z</time>
      </trkpt>
      <trkpt lat="39.2848560" lon="-3.7489060">
        <ele>780.6</ele>
        <time>2019-08-12T07:52:41Z</time>
      </trkpt>
      <trkpt lat="39.2848750" lon="-3.7489500">
        <ele>780.7</ele>
        <time>2019-08-12T07:52:42Z</time>
      </trkpt>
      <trkpt lat="39.2848940" lon="-3.7489950">
        <ele>780.9</ele>
        <time>2019-08-12T07:52:43Z</time>
      </trkpt>
      <trkpt lat="39.2849110" lon="-3.7490410">
        <ele>781.0</ele>
        <time>2019-08-12T07:52:44Z</time>
      </trkpt>
      <trkpt lat="39.2849270" lon="-3.7490880">
        <ele>781.2</ele>
        <time>2019-08-12T07:52:45Z</time>
      </trkpt>
      <trkpt lat="39.2849420" lon="-3.7491350">
        <ele>781.4</ele>
        <time>2019-08-12T07:52:46Z</time>
      </trkpt>
      <trkpt lat="39.2849560" lon="-3.7491830">
        <ele>781.5</ele>
        <time>2019-08-12T07:52:47Z</time>
      </trkpt>
      <trkpt lat="39.2849700" lon="-3.7492300">
        <ele>781.6</ele>
        <time>2019-08-12T07:52:48Z</time>
      </trkpt>
      <trkpt lat="39.2849820" lon="-3.7492770">
        <ele>781.7</ele>
        <time>2019-08-12T07:52:49Z</time>
      </trkpt>
      <trkpt lat="39.2849940" lon="-3.7493230">
        <ele>781.9</ele>
        <time>2019-08-12T07:52:50Z</time>
      </trkpt>
      <trkpt lat="39.2850060" lon="-3.7493690">
        <ele>782.0</ele>
        <time>2019-08-12T07:52:51Z</time>
      </trkpt>
      <trkpt lat="39.2850170" lon="-3.7494130">
        <ele>782.1</ele>
        <time>2019-08-12T07:52:52Z</time>
      </trkpt>
      <trkpt lat="39.2850290" lon="-3.7494570">
        <ele>782.3</ele>
        <time>2019-08-12T07:52:53Z</time>
      </trkpt>
      <trkpt lat="39.2850400" lon="-3.7495000">
        <ele>782.4</ele>
        <time>2019-08-12T07:52:54Z</time>
      </trkpt>
      <trkpt lat="39.2850520" lon="-3.7495410">
        <ele>782.4</ele>
        <time>2019-08-12T07:52:55Z</time>
      </trkpt>
      <trkpt lat="39.2850650" lon="-3.7495820">
        <ele>782.6</ele>
        <time>2019-08-12T07:52:56Z</time>
      </trkpt>
      <trkpt lat="39.2850780" lon="-3.7496200">
        <ele>782.7</ele>
        <time>2019-08-12T07:52:57Z</time>
      </trkpt>
      <trkpt lat="39.2850930" lon="-3.7496580">
        <ele>782.9</ele>
        <time>2019-08-12T07:52:58Z</time>
      </trkpt>
      <trkpt lat="39.2851090" lon="-3.7496930">
        <ele>783.0</ele>
        <time>2019-08-12T07:52:59Z</time>
      </trkpt>
      <trkpt lat="39.2851260" lon="-3.7497270">
        <ele>783.1</ele>
        <time>2019-08-12T07:53:00Z</time>
      </trkpt>
      <trkpt lat="39.2851440" lon="-3.7497600">
        <ele>783.2</ele>
        <time>2019-08-12T07:53:01Z</time>
      </trkpt>
      <trkpt lat="39.2851640" lon="-3.7497910">
        <ele>783.4</ele>
        <time>2019-08-12T07:53:02Z</time>
      </trkpt>
      <trkpt lat="39.2851860" lon="-3.7498220">
        <ele>783.5</ele>
        <time>2019-08-12T07:53:03Z</time>
      </trkpt>
      <trkpt lat="39.2852080" lon="-3.7498520">
        <ele>783.6</ele>
        <time>2019-08-12T07:53:04Z</time>
      </trkpt>
      <trkpt lat="39.2852320" lon="-3.7498820">
        <ele>783.9</ele>
        <time>2019-08-12T07:53:05Z</time>
      </trkpt>
      <trkpt lat="39.2852560" lon="-3.7499120">
        <ele>784.1</ele>
        <time>2019-08-12T07:53:06Z</time>
      </trkpt>
      <trkpt lat="39.2852810" lon="-3.7499420">
        <ele>784.1</ele>
        <time>2019-08-12T07:53:07Z</time>
      </trkpt>
      <trkpt lat="39.2853070" lon="-3.7499720">
        <ele>784.3</ele>
        <time>2019-08-12T07:53:08Z</time>
      </trkpt>
      <trkpt lat="39.2853330" lon="-3.7500010">
        <ele>784.5</ele>
        <time>2019-08-12T07:53:09Z</time>
      </trkpt>
      <trkpt lat="39.2853590" lon="-3.7500310">
        <ele>784.7</ele>
        <time>2019-08-12T07:53:10Z</time>
      </trkpt>
      <trkpt lat="39.2853840" lon="-3.7500630">
        <ele>784.7</ele>
        <time>2019-08-12T07:53:11Z</time>
      </trkpt>
      <trkpt lat="39.2854070" lon="-3.7500960">
        <ele>784.8</ele>
        <time>2019-08-12T07:53:12Z</time>
      </trkpt>
      <trkpt lat="39.2854280" lon="-3.7501310">
        <ele>784.9</ele>
        <time>2019-08-12T07:53:13Z</time>
      </trkpt>
      <trkpt lat="39.2854470" lon="-3.7501690">
        <ele>785.0</ele>
        <time>2019-08-12T07:53:14Z</time>
      </trkpt>
      <trkpt lat="39.2854640" lon="-3.7502100">
        <ele>785.1</ele>
        <time>2019-08-12T07:53:15Z</time>
      </trkpt>
      <trkpt lat="39.2854790" lon="-3.7502510">
        <ele>785.1</ele>
        <time>2019-08-12T07:53:16Z</time>
      </trkpt>
      <trkpt lat="39.2854920" lon="-3.7502940">
        <ele>785.2</ele>
        <time>2019-08-12T07:53:17Z</time>
      </trkpt>
      <trkpt lat="39.2855040" lon="-3.7503360">
        <ele>785.2</ele>
        <time>2019-08-12T07:53:18Z</time>
      </trkpt>
      <trkpt lat="39.2855160" lon="-3.7503780">
        <ele>785.2</ele>
        <time>2019-08-12T07:53:19Z</time>
      </trkpt>
      <trkpt lat="39.2855270" lon="-3.7504190">
        <ele>785.3</ele>
        <time>2019-08-12T07:53:20Z</time>
      </trkpt>
      <trkpt lat="39.2855380" lon="-3.7504590">
        <ele>785.3</ele>
        <time>2019-08-12T07:53:21Z</time>
      </trkpt>
      <trkpt lat="39.2855480" lon="-3.7504990">
        <ele>785.3</ele>
        <time>2019-08-12T07:53:22Z</time>
      </trkpt>
      <trkpt lat="39.2855580" lon="-3.7505380">
        <ele>785.3</ele>
        <time>2019-08-12T07:53:23Z</time>
      </trkpt>
      <trkpt lat="39.2855680" lon="-3.7505770">
        <ele>785.3</ele>
        <time>2019-08-12T07:53:24Z</time>
      </trkpt>
      <trkpt lat="39.2855780" lon="-3.7506150">
        <ele>785.4</ele>
        <time>2019-08-12T07:53:25Z</time>
      </trkpt>
      <trkpt lat="39.2855880" lon="-3.7506540">
        <ele>785.5</ele>
        <time>2019-08-12T07:53:26Z</time>
      </trkpt>
      <trkpt lat="39.2855980" lon="-3.7506920">
        <ele>785.6</ele>
        <time>2019-08-12T07:53:27Z</time>
      </trkpt>
      <trkpt lat="39.2856090" lon="-3.7507300">
        <ele>785.7</ele>
        <time>2019-08-12T07:53:28Z</time>
      </trkpt>
      <trkpt lat="39.2856190" lon="-3.7507680">
        <ele>785.8</ele>
        <time>2019-08-12T07:53:29Z</time>
      </trkpt>
      <trkpt lat="39.2856310" lon="-3.7508060">
        <ele>786.0</ele>
        <time>2019-08-12T07:53:30Z</time>
      </trkpt>
      <trkpt lat="39.2856420" lon="-3.7508440">
        <ele>786.0</ele>
        <time>2019-08-12T07:53:31Z</time>
      </trkpt>
      <trkpt lat="39.2856540" lon="-3.7508820">
        <ele>786.1</ele>
        <time>2019-08-12T07:53:32Z</time>
      </trkpt>
      <trkpt lat="39.2856660" lon="-3.7509190">
        <ele>786.2</ele>
        <time>2019-08-12T07:53:33Z</time>
      </trkpt>
      <trkpt lat="39.2856780" lon="-3.7509560">
        <ele>786.4</ele>
        <time>2019-08-12T07:53:34Z</time>
      </trkpt>
      <trkpt lat="39.2856900" lon="-3.7509930">
        <ele>786.5</ele>
        <time>2019-08-12T07:53:35Z</time>
      </trkpt>
      <trkpt lat="39.2857030" lon="-3.7510300">
        <ele>786.6</ele>
        <time>2019-08-12T07:53:36Z</time>
      </trkpt>
      <trkpt lat="39.2857160" lon="-3.7510670">
        <ele>786.7</ele>
        <time>2019-08-12T07:53:37Z</time>
      </trkpt>
      <trkpt lat="39.2857290" lon="-3.7511030">
        <ele>786.8</ele>
        <time>2019-08-12T07:53:38Z</time>
      </trkpt>
      <trkpt lat="39.2857420" lon="-3.7511380">
        <ele>786.8</ele>
        <time>2019-08-12T07:53:39Z</time>
      </trkpt>
      <trkpt lat="39.2857550" lon="-3.7511730">
        <ele>786.9</ele>
        <time>2019-08-12T07:53:40Z</time>
      </trkpt>
      <trkpt lat="39.2857680" lon="-3.7512080">
        <ele>787.1</ele>
        <time>2019-08-12T07:53:41Z</time>
      </trkpt>
      <trkpt lat="39.2857810" lon="-3.7512420">
        <ele>787.3</ele>
        <time>2019-08-12T07:53:42Z</time>
      </trkpt>
      <trkpt lat="39.2857950" lon="-3.7512760">
        <ele>787.5</ele>
        <time>2019-08-12T07:53:43Z</time>
      </trkpt>
      <trkpt lat="39.2858080" lon="-3.7513090">
        <ele>787.5</ele>
        <time>2019-08-12T07:53:44Z</time>
      </trkpt>
      <trkpt lat="39.2858220" lon="-3.7513420">
        <ele>787.7</ele>
        <time>2019-08-12T07:53:45Z</time>
      </trkpt>
      <trkpt lat="39.2858350" lon="-3.7513740">
        <ele>788.0</ele>
        <time>2019-08-12T07:53:46Z</time>
      </trkpt>
      <trkpt lat="39.2858490" lon="-3.7514050">
        <ele>788.2</ele>
        <time>2019-08-12T07:53:47Z</time>
      </trkpt>
      <trkpt lat="39.2858620" lon="-3.7514370">
        <ele>788.2</ele>
        <time>2019-08-12T07:53:48Z</time>
      </trkpt>
      <trkpt lat="39.2858760" lon="-3.7514680">
        <ele>788.5</ele>
        <time>2019-08-12T07:53:49Z</time>
      </trkpt>
      <trkpt lat="39.2858900" lon="-3.7514990">
        <ele>788.8</ele>
        <time>2019-08-12T07:53:50Z</time>
      </trkpt>
      <trkpt lat="39.2859040" lon="-3.7515310">
        <ele>789.2</ele>
        <time>2019-08-12T07:53:51Z</time>
      </trkpt>
      <trkpt lat="39.2859180" lon="-3.7515630">
        <ele>789.2</ele>
        <time>2019-08-12T07:53:52Z</time>
      </trkpt>
      <trkpt lat="39.2859320" lon="-3.7515950">
        <ele>789.6</ele>
        <time>2019-08-12T07:53:53Z</time>
      </trkpt>
      <trkpt lat="39.2859470" lon="-3.7516290">
        <ele>789.9</ele>
        <time>2019-08-12T07:53:54Z</time>
      </trkpt>
      <trkpt lat="39.2859610" lon="-3.7516630">
        <ele>790.3</ele>
        <time>2019-08-12T07:53:55Z</time>
      </trkpt>
      <trkpt lat="39.2859760" lon="-3.7516990">
        <ele>790.3</ele>
        <time>2019-08-12T07:53:56Z</time>
      </trkpt>
      <trkpt lat="39.2859910" lon="-3.7517350">
        <ele>790.6</ele>
        <time>2019-08-12T07:53:57Z</time>
      </trkpt>
      <trkpt lat="39.2860070" lon="-3.7517720">
        <ele>791.0</ele>
        <time>2019-08-12T07:53:58Z</time>
      </trkpt>
      <trkpt lat="39.2860220" lon="-3.7518110">
        <ele>791.2</ele>
        <time>2019-08-12T07:53:59Z</time>
      </trkpt>
      <trkpt lat="39.2860370" lon="-3.7518490">
        <ele>791.5</ele>
        <time>2019-08-12T07:54:00Z</time>
      </trkpt>
      <trkpt lat="39.2860520" lon="-3.7518880">
        <ele>791.8</ele>
        <time>2019-08-12T07:54:01Z</time>
      </trkpt>
      <trkpt lat="39.2860670" lon="-3.7519280">
        <ele>792.1</ele>
        <time>2019-08-12T07:54:02Z</time>
      </trkpt>
      <trkpt lat="39.2860820" lon="-3.7519670">
        <ele>792.4</ele>
        <time>2019-08-12T07:54:03Z</time>
      </trkpt>
      <trkpt lat="39.2860960" lon="-3.7520060">
        <ele>792.6</ele>
        <time>2019-08-12T07:54:04Z</time>
      </trkpt>
      <trkpt lat="39.2861100" lon="-3.7520460">
        <ele>793.0</ele>
        <time>2019-08-12T07:54:05Z</time>
      </trkpt>
      <trkpt lat="39.2861230" lon="-3.7520850">
        <ele>792.9</ele>
        <time>2019-08-12T07:54:06Z</time>
      </trkpt>
      <trkpt lat="39.2861360" lon="-3.7521240">
        <ele>793.3</ele>
        <time>2019-08-12T07:54:07Z</time>
      </trkpt>
      <trkpt lat="39.2861490" lon="-3.7521620">
        <ele>793.6</ele>
        <time>2019-08-12T07:54:08Z</time>
      </trkpt>
      <trkpt lat="39.2861610" lon="-3.7522000">
        <ele>793.9</ele>
        <time>2019-08-12T07:54:09Z</time>
      </trkpt>
      <trkpt lat="39.2861740" lon="-3.7522380">
        <ele>794.2</ele>
        <time>2019-08-12T07:54:10Z</time>
      </trkpt>
      <trkpt lat="39.2861860" lon="-3.7522750">
        <ele>794.5</ele>
        <time>2019-08-12T07:54:11Z</time>
      </trkpt>
      <trkpt lat="39.2861980" lon="-3.7523120">
        <ele>794.8</ele>
        <time>2019-08-12T07:54:12Z</time>
      </trkpt>
      <trkpt lat="39.2862100" lon="-3.7523480">
        <ele>795.1</ele>
        <time>2019-08-12T07:54:13Z</time>
      </trkpt>
      <trkpt lat="39.2862230" lon="-3.7523840">
        <ele>795.0</ele>
        <time>2019-08-12T07:54:14Z</time>
      </trkpt>
      <trkpt lat="39.2862350" lon="-3.7524190">
        <ele>795.3</ele>
        <time>2019-08-12T07:54:15Z</time>
      </trkpt>
      <trkpt lat="39.2862470" lon="-3.7524540">
        <ele>795.6</ele>
        <time>2019-08-12T07:54:16Z</time>
      </trkpt>
      <trkpt lat="39.2862590" lon="-3.7524870">
        <ele>795.7</ele>
        <time>2019-08-12T07:54:17Z</time>
      </trkpt>
      <trkpt lat="39.2862700" lon="-3.7525190">
        <ele>796.0</ele>
        <time>2019-08-12T07:54:18Z</time>
      </trkpt>
      <trkpt lat="39.2862810" lon="-3.7525500">
        <ele>796.0</ele>
        <time>2019-08-12T07:54:19Z</time>
      </trkpt>
      <trkpt lat="39.2862910" lon="-3.7525810">
        <ele>796.2</ele>
        <time>2019-08-12T07:54:20Z</time>
      </trkpt>
      <trkpt lat="39.2863010" lon="-3.7526110">
        <ele>796.4</ele>
        <time>2019-08-12T07:54:21Z</time>
      </trkpt>
      <trkpt lat="39.2863120" lon="-3.7526410">
        <ele>796.4</ele>
        <time>2019-08-12T07:54:22Z</time>
      </trkpt>
      <trkpt lat="39.2863240" lon="-3.7526730">
        <ele>796.5</ele>
        <time>2019-08-12T07:54:23Z</time>
      </trkpt>
      <trkpt lat="39.2863360" lon="-3.7527050">
        <ele>796.7</ele>
        <time>2019-08-12T07:54:24Z</time>
      </trkpt>
      <trkpt lat="39.2863490" lon="-3.7527380">
        <ele>796.9</ele>
        <time>2019-08-12T07:54:25Z</time>
      </trkpt>
      <trkpt lat="39.2863630" lon="-3.7527720">
        <ele>796.7</ele>
        <time>2019-08-12T07:54:26Z</time>
      </trkpt>
      <trkpt lat="39.2863770" lon="-3.7528060">
        <ele>796.9</ele>
        <time>2019-08-12T07:54:27Z</time>
      </trkpt>
      <trkpt lat="39.2863910" lon="-3.7528400">
        <ele>796.9</ele>
        <time>2019-08-12T07:54:28Z</time>
      </trkpt>
      <trkpt lat="39.2864050" lon="-3.7528750">
        <ele>797.1</ele>
        <time>2019-08-12T07:54:29Z</time>
      </trkpt>
      <trkpt lat="39.2864200" lon="-3.7529100">
        <ele>797.1</ele>
        <time>2019-08-12T07:54:30Z</time>
      </trkpt>
      <trkpt lat="39.2864350" lon="-3.7529460">
        <ele>797.2</ele>
        <time>2019-08-12T07:54:31Z</time>
      </trkpt>
      <trkpt lat="39.2864510" lon="-3.7529810">
        <ele>797.2</ele>
        <time>2019-08-12T07:54:32Z</time>
      </trkpt>
      <trkpt lat="39.2864660" lon="-3.7530170">
        <ele>797.4</ele>
        <time>2019-08-12T07:54:33Z</time>
      </trkpt>
      <trkpt lat="39.2864810" lon="-3.7530520">
        <ele>797.7</ele>
        <time>2019-08-12T07:54:34Z</time>
      </trkpt>
      <trkpt lat="39.2864960" lon="-3.7530870">
        <ele>797.7</ele>
        <time>2019-08-12T07:54:35Z</time>
      </trkpt>
      <trkpt lat="39.2865110" lon="-3.7531210">
        <ele>797.9</ele>
        <time>2019-08-12T07:54:36Z</time>
      </trkpt>
      <trkpt lat="39.2865260" lon="-3.7531550">
        <ele>797.8</ele>
        <time>2019-08-12T07:54:37Z</time>
      </trkpt>
      <trkpt lat="39.2865400" lon="-3.7531890">
        <ele>798.0</ele>
        <time>2019-08-12T07:54:38Z</time>
      </trkpt>
      <trkpt lat="39.2865540" lon="-3.7532220">
        <ele>798.2</ele>
        <time>2019-08-12T07:54:39Z</time>
      </trkpt>
      <trkpt lat="39.2865680" lon="-3.7532540">
        <ele>798.3</ele>
        <time>2019-08-12T07:54:40Z</time>
      </trkpt>
      <trkpt lat="39.2865810" lon="-3.7532850">
        <ele>798.3</ele>
        <time>2019-08-12T07:54:41Z</time>
      </trkpt>
      <trkpt lat="39.2865930" lon="-3.7533160">
        <ele>798.5</ele>
        <time>2019-08-12T07:54:42Z</time>
      </trkpt>
      <trkpt lat="39.2866040" lon="-3.7533450">
        <ele>798.7</ele>
        <time>2019-08-12T07:54:43Z</time>
      </trkpt>
      <trkpt lat="39.2866150" lon="-3.7533730">
        <ele>798.7</ele>
        <time>2019-08-12T07:54:44Z</time>
      </trkpt>
      <trkpt lat="39.2866240" lon="-3.7534000">
        <ele>798.9</ele>
        <time>2019-08-12T07:54:45Z</time>
      </trkpt>
      <trkpt lat="39.2866320" lon="-3.7534250">
        <ele>799.1</ele>
        <time>2019-08-12T07:54:46Z</time>
      </trkpt>
      <trkpt lat="39.2866390" lon="-3.7534500">
        <ele>799.1</ele>
        <time>2019-08-12T07:54:47Z</time>
      </trkpt>
      <trkpt lat="39.2866440" lon="-3.7534760">
        <ele>799.3</ele>
        <time>2019-08-12T07:54:48Z</time>
      </trkpt>
      <trkpt lat="39.2866490" lon="-3.7535040">
        <ele>799.4</ele>
        <time>2019-08-12T07:54:49Z</time>
      </trkpt>
      <trkpt lat="39.2866530" lon="-3.7535350">
        <ele>799.6</ele>
        <time>2019-08-12T07:54:50Z</time>
      </trkpt>
      <trkpt lat="39.2866550" lon="-3.7535650">
        <ele>799.8</ele>
        <time>2019-08-12T07:54:51Z</time>
      </trkpt>
      <trkpt lat="39.2866560" lon="-3.7535930">
        <ele>800.0</ele>
        <time>2019-08-12T07:54:52Z</time>
      </trkpt>
      <trkpt lat="39.2866540" lon="-3.7536110">
        <ele>800.0</ele>
        <time>2019-08-12T07:54:53Z</time>
      </trkpt>
      <trkpt lat="39.2866520" lon="-3.7536050">
        <ele>800.0</ele>
        <time>2019-08-12T07:54:54Z</time>
      </trkpt>
      <trkpt lat="39.2866510" lon="-3.7535690">
        <ele>799.8</ele>
        <time>2019-08-12T07:55:42Z</time>
      </trkpt>
      <trkpt lat="39.2866550" lon="-3.7535260">
        <ele>799.6</ele>
        <time>2019-08-12T07:55:43Z</time>
      </trkpt>
      <trkpt lat="39.2866530" lon="-3.7534840">
        <ele>799.4</ele>
        <time>2019-08-12T07:55:44Z</time>
      </trkpt>
      <trkpt lat="39.2866430" lon="-3.7534400">
        <ele>799.1</ele>
        <time>2019-08-12T07:55:45Z</time>
      </trkpt>
      <trkpt lat="39.2866290" lon="-3.7533920">
        <ele>798.9</ele>
        <time>2019-08-12T07:55:46Z</time>
      </trkpt>
      <trkpt lat="39.2865960" lon="-3.7533000">
        <ele>798.5</ele>
        <time>2019-08-12T07:55:47Z</time>
      </trkpt>
      <trkpt lat="39.2865810" lon="-3.7532610">
        <ele>798.4</ele>
        <time>2019-08-12T07:55:48Z</time>
      </trkpt>
      <trkpt lat="39.2865660" lon="-3.7532220">
        <ele>798.2</ele>
        <time>2019-08-12T07:55:49Z</time>
      </trkpt>
      <trkpt lat="39.2865420" lon="-3.7531600">
        <ele>797.9</ele>
        <time>2019-08-12T07:55:50Z</time>
      </trkpt>
      <trkpt lat="39.2865170" lon="-3.7530970">
        <ele>797.7</ele>
        <time>2019-08-12T07:55:51Z</time>
      </trkpt>
      <trkpt lat="39.2864910" lon="-3.7530330">
        <ele>797.6</ele>
        <time>2019-08-12T07:55:52Z</time>
      </trkpt>
      <trkpt lat="39.2864490" lon="-3.7529230">
        <ele>797.2</ele>
        <time>2019-08-12T07:55:53Z</time>
      </trkpt>
      <trkpt lat="39.2864310" lon="-3.7528770">
        <ele>797.0</ele>
        <time>2019-08-12T07:55:54Z</time>
      </trkpt>
      <trkpt lat="39.2864140" lon="-3.7528320">
        <ele>797.0</ele>
        <time>2019-08-12T07:55:55Z</time>
      </trkpt>
      <trkpt lat="39.2863880" lon="-3.7527630">
        <ele>796.6</ele>
        <time>2019-08-12T07:55:56Z</time>
      </trkpt>
      <trkpt lat="39.2863620" lon="-3.7526910">
        <ele>796.6</ele>
        <time>2019-08-12T07:55:57Z</time>
      </trkpt>
      <trkpt lat="39.2863360" lon="-3.7526170">
        <ele>796.3</ele>
        <time>2019-08-12T07:55:58Z</time>
      </trkpt>
      <trkpt lat="39.2863080" lon="-3.7525390">
        <ele>796.0</ele>
        <time>2019-08-12T07:55:59Z</time>
      </trkpt>
      <trkpt lat="39.2862800" lon="-3.7524580">
        <ele>795.6</ele>
        <time>2019-08-12T07:56:00Z</time>
      </trkpt>
      <trkpt lat="39.2862520" lon="-3.7523730">
        <ele>795.0</ele>
        <time>2019-08-12T07:56:01Z</time>
      </trkpt>
      <trkpt lat="39.2862220" lon="-3.7522840">
        <ele>794.5</ele>
        <time>2019-08-12T07:56:02Z</time>
      </trkpt>
      <trkpt lat="39.2861910" lon="-3.7521930">
        <ele>794.0</ele>
        <time>2019-08-12T07:56:03Z</time>
      </trkpt>
      <trkpt lat="39.2861590" lon="-3.7521000">
        <ele>793.4</ele>
        <time>2019-08-12T07:56:04Z</time>
      </trkpt>
      <trkpt lat="39.2861270" lon="-3.7520070">
        <ele>792.8</ele>
        <time>2019-08-12T07:56:05Z</time>
      </trkpt>
      <trkpt lat="39.2860930" lon="-3.7519130">
        <ele>791.9</ele>
        <time>2019-08-12T07:56:06Z</time>
      </trkpt>
      <trkpt lat="39.2860580" lon="-3.7518200">
        <ele>791.4</ele>
        <time>2019-08-12T07:56:07Z</time>
      </trkpt>
      <trkpt lat="39.2860230" lon="-3.7517280">
        <ele>790.8</ele>
        <time>2019-08-12T07:56:08Z</time>
      </trkpt>
      <trkpt lat="39.2859870" lon="-3.7516380">
        <ele>790.1</ele>
        <time>2019-08-12T07:56:09Z</time>
      </trkpt>
      <trkpt lat="39.2859510" lon="-3.7515490">
        <ele>789.4</ele>
        <time>2019-08-12T07:56:10Z</time>
      </trkpt>
      <trkpt lat="39.2859140" lon="-3.7514620">
        <ele>788.8</ele>
        <time>2019-08-12T07:56:11Z</time>
      </trkpt>
      <trkpt lat="39.2858770" lon="-3.7513740">
        <ele>788.2</ele>
        <time>2019-08-12T07:56:12Z</time>
      </trkpt>
      <trkpt lat="39.2858410" lon="-3.7512860">
        <ele>787.8</ele>
        <time>2019-08-12T07:56:13Z</time>
      </trkpt>
      <trkpt lat="39.2858060" lon="-3.7511950">
        <ele>787.4</ele>
        <time>2019-08-12T07:56:14Z</time>
      </trkpt>
      <trkpt lat="39.2857710" lon="-3.7511020">
        <ele>787.1</ele>
        <time>2019-08-12T07:56:15Z</time>
      </trkpt>
      <trkpt lat="39.2857380" lon="-3.7510070">
        <ele>786.7</ele>
        <time>2019-08-12T07:56:16Z</time>
      </trkpt>
      <trkpt lat="39.2857050" lon="-3.7509110">
        <ele>786.5</ele>
        <time>2019-08-12T07:56:17Z</time>
      </trkpt>
      <trkpt lat="39.2856740" lon="-3.7508140">
        <ele>786.2</ele>
        <time>2019-08-12T07:56:18Z</time>
      </trkpt>
      <trkpt lat="39.2856240" lon="-3.7506520">
        <ele>785.8</ele>
        <time>2019-08-12T07:56:19Z</time>
      </trkpt>
      <trkpt lat="39.2856040" lon="-3.7505880">
        <ele>785.7</ele>
        <time>2019-08-12T07:56:20Z</time>
      </trkpt>
      <trkpt lat="39.2855850" lon="-3.7505230">
        <ele>785.6</ele>
        <time>2019-08-12T07:56:21Z</time>
      </trkpt>
      <trkpt lat="39.2855570" lon="-3.7504260">
        <ele>785.6</ele>
        <time>2019-08-12T07:56:22Z</time>
      </trkpt>
      <trkpt lat="39.2855300" lon="-3.7503310">
        <ele>785.6</ele>
        <time>2019-08-12T07:56:23Z</time>
      </trkpt>
      <trkpt lat="39.2854820" lon="-3.7501830">
        <ele>785.4</ele>
        <time>2019-08-12T07:56:24Z</time>
      </trkpt>
      <trkpt lat="39.2854600" lon="-3.7501260">
        <ele>785.4</ele>
        <time>2019-08-12T07:56:25Z</time>
      </trkpt>
      <trkpt lat="39.2854390" lon="-3.7500700">
        <ele>785.2</ele>
        <time>2019-08-12T07:56:26Z</time>
      </trkpt>
      <trkpt lat="39.2853990" lon="-3.7499970">
        <ele>785.1</ele>
        <time>2019-08-12T07:56:27Z</time>
      </trkpt>
      <trkpt lat="39.2853520" lon="-3.7499310">
        <ele>784.7</ele>
        <time>2019-08-12T07:56:28Z</time>
      </trkpt>
      <trkpt lat="39.2853010" lon="-3.7498720">
        <ele>784.5</ele>
        <time>2019-08-12T07:56:29Z</time>
      </trkpt>
      <trkpt lat="39.2852480" lon="-3.7498150">
        <ele>784.1</ele>
        <time>2019-08-12T07:56:30Z</time>
      </trkpt>
      <trkpt lat="39.2851970" lon="-3.7497560">
        <ele>783.8</ele>
        <time>2019-08-12T07:56:31Z</time>
      </trkpt>
      <trkpt lat="39.2851500" lon="-3.7496910">
        <ele>783.5</ele>
        <time>2019-08-12T07:56:32Z</time>
      </trkpt>
      <trkpt lat="39.2851100" lon="-3.7496180">
        <ele>783.2</ele>
        <time>2019-08-12T07:56:33Z</time>
      </trkpt>
      <trkpt lat="39.2850760" lon="-3.7495370">
        <ele>783.0</ele>
        <time>2019-08-12T07:56:34Z</time>
      </trkpt>
      <trkpt lat="39.2850470" lon="-3.7494520">
        <ele>782.7</ele>
        <time>2019-08-12T07:56:35Z</time>
      </trkpt>
      <trkpt lat="39.2850210" lon="-3.7493630">
        <ele>782.5</ele>
        <time>2019-08-12T07:56:36Z</time>
      </trkpt>
      <trkpt lat="39.2849980" lon="-3.7492720">
        <ele>782.3</ele>
        <time>2019-08-12T07:56:37Z</time>
      </trkpt>
      <trkpt lat="39.2849760" lon="-3.7491830">
        <ele>782.0</ele>
        <time>2019-08-12T07:56:38Z</time>
      </trkpt>
      <trkpt lat="39.2849520" lon="-3.7490950">
        <ele>781.7</ele>
        <time>2019-08-12T07:56:39Z</time>
      </trkpt>
      <trkpt lat="39.2849270" lon="-3.7490100">
        <ele>781.5</ele>
        <time>2019-08-12T07:56:40Z</time>
      </trkpt>
      <trkpt lat="39.2848980" lon="-3.7489310">
        <ele>781.2</ele>
        <time>2019-08-12T07:56:41Z</time>
      </trkpt>
      <trkpt lat="39.2848630" lon="-3.7488560">
        <ele>781.0</ele>
        <time>2019-08-12T07:56:42Z</time>
      </trkpt>
      <trkpt lat="39.2848250" lon="-3.7487860">
        <ele>780.8</ele>
        <time>2019-08-12T07:56:43Z</time>
      </trkpt>
      <trkpt lat="39.2847840" lon="-3.7487200">
        <ele>780.5</ele>
        <time>2019-08-12T07:56:44Z</time>
      </trkpt>
      <trkpt lat="39.2847430" lon="-3.7486580">
        <ele>780.4</ele>
        <time>2019-08-12T07:56:45Z</time>
      </trkpt>
      <trkpt lat="39.2847020" lon="-3.7485970">
        <ele>780.0</ele>
        <time>2019-08-12T07:56:46Z</time>
      </trkpt>
      <trkpt lat="39.2846630" lon="-3.7485370">
        <ele>779.9</ele>
        <time>2019-08-12T07:56:47Z</time>
      </trkpt>
      <trkpt lat="39.2846260" lon="-3.7484780">
        <ele>779.5</ele>
        <time>2019-08-12T07:56:48Z</time>
      </trkpt>
      <trkpt lat="39.2845900" lon="-3.7484210">
        <ele>779.4</ele>
        <time>2019-08-12T07:56:49Z</time>
      </trkpt>
      <trkpt lat="39.2845550" lon="-3.7483660">
        <ele>779.4</ele>
        <time>2019-08-12T07:56:50Z</time>
      </trkpt>
      <trkpt lat="39.2845210" lon="-3.7483120">
        <ele>779.3</ele>
        <time>2019-08-12T07:56:51Z</time>
      </trkpt>
      <trkpt lat="39.2844870" lon="-3.7482590">
        <ele>779.0</ele>
        <time>2019-08-12T07:56:52Z</time>
      </trkpt>
      <trkpt lat="39.2844530" lon="-3.7482060">
        <ele>778.9</ele>
        <time>2019-08-12T07:56:53Z</time>
      </trkpt>
      <trkpt lat="39.2844190" lon="-3.7481530">
        <ele>778.8</ele>
        <time>2019-08-12T07:56:54Z</time>
      </trkpt>
      <trkpt lat="39.2843840" lon="-3.7480980">
        <ele>778.7</ele>
        <time>2019-08-12T07:56:55Z</time>
      </trkpt>
      <trkpt lat="39.2843480" lon="-3.7480400">
        <ele>778.4</ele>
        <time>2019-08-12T07:56:56Z</time>
      </trkpt>
      <trkpt lat="39.2843110" lon="-3.7479810">
        <ele>778.2</ele>
        <time>2019-08-12T07:56:57Z</time>
      </trkpt>
      <trkpt lat="39.2842740" lon="-3.7479210">
        <ele>777.9</ele>
        <time>2019-08-12T07:56:58Z</time>
      </trkpt>
      <trkpt lat="39.2842360" lon="-3.7478610">
        <ele>777.8</ele>
        <time>2019-08-12T07:56:59Z</time>
      </trkpt>
      <trkpt lat="39.2841980" lon="-3.7478010">
        <ele>777.7</ele>
        <time>2019-08-12T07:57:00Z</time>
      </trkpt>
      <trkpt lat="39.2841610" lon="-3.7477410">
        <ele>777.3</ele>
        <time>2019-08-12T07:57:01Z</time>
      </trkpt>
      <trkpt lat="39.2841230" lon="-3.7476810">
        <ele>777.2</ele>
        <time>2019-08-12T07:57:02Z</time>
      </trkpt>
      <trkpt lat="39.2840840" lon="-3.7476230">
        <ele>776.7</ele>
        <time>2019-08-12T07:57:03Z</time>
      </trkpt>
      <trkpt lat="39.2840450" lon="-3.7475650">
        <ele>776.5</ele>
        <time>2019-08-12T07:57:04Z</time>
      </trkpt>
      <trkpt lat="39.2840050" lon="-3.7475070">
        <ele>776.3</ele>
        <time>2019-08-12T07:57:05Z</time>
      </trkpt>
      <trkpt lat="39.2839640" lon="-3.7474510">
        <ele>775.9</ele>
        <time>2019-08-12T07:57:06Z</time>
      </trkpt>
      <trkpt lat="39.2839220" lon="-3.7473950">
        <ele>775.8</ele>
        <time>2019-08-12T07:57:07Z</time>
      </trkpt>
      <trkpt lat="39.2838790" lon="-3.7473400">
        <ele>775.7</ele>
        <time>2019-08-12T07:57:08Z</time>
      </trkpt>
      <trkpt lat="39.2838340" lon="-3.7472860">
        <ele>775.6</ele>
        <time>2019-08-12T07:57:09Z</time>
      </trkpt>
      <trkpt lat="39.2837880" lon="-3.7472330">
        <ele>775.2</ele>
        <time>2019-08-12T07:57:10Z</time>
      </trkpt>
      <trkpt lat="39.2837400" lon="-3.7471810">
        <ele>775.0</ele>
        <time>2019-08-12T07:57:11Z</time>
      </trkpt>
      <trkpt lat="39.2836920" lon="-3.7471300">
        <ele>774.7</ele>
        <time>2019-08-12T07:57:12Z</time>
      </trkpt>
      <trkpt lat="39.2836420" lon="-3.7470790">
        <ele>774.4</ele>
        <time>2019-08-12T07:57:13Z</time>
      </trkpt>
      <trkpt lat="39.2835910" lon="-3.7470300">
        <ele>774.2</ele>
        <time>2019-08-12T07:57:14Z</time>
      </trkpt>
      <trkpt lat="39.2835400" lon="-3.7469820">
        <ele>773.9</ele>
        <time>2019-08-12T07:57:15Z</time>
      </trkpt>
      <trkpt lat="39.2834890" lon="-3.7469340">
        <ele>773.6</ele>
        <time>2019-08-12T07:57:16Z</time>
      </trkpt>
      <trkpt lat="39.2834370" lon="-3.7468870">
        <ele>773.4</ele>
        <time>2019-08-12T07:57:17Z</time>
      </trkpt>
      <trkpt lat="39.2833860" lon="-3.7468410">
        <ele>773.3</ele>
        <time>2019-08-12T07:57:18Z</time>
      </trkpt>
      <trkpt lat="39.2833340" lon="-3.7467950">
        <ele>773.2</ele>
        <time>2019-08-12T07:57:19Z</time>
      </trkpt>
      <trkpt lat="39.2832830" lon="-3.7467490">
        <ele>773.2</ele>
        <time>2019-08-12T07:57:20Z</time>
      </trkpt>
      <trkpt lat="39.2832320" lon="-3.7467040">
        <ele>773.1</ele>
        <time>2019-08-12T07:57:21Z</time>
      </trkpt>
      <trkpt lat="39.2831800" lon="-3.7466590">
        <ele>773.0</ele>
        <time>2019-08-12T07:57:22Z</time>
      </trkpt>
      <trkpt lat="39.2831280" lon="-3.7466140">
        <ele>772.9</ele>
        <time>2019-08-12T07:57:23Z</time>
      </trkpt>
      <trkpt lat="39.2830760" lon="-3.7465680">
        <ele>772.8</ele>
        <time>2019-08-12T07:57:24Z</time>
      </trkpt>
      <trkpt lat="39.2830230" lon="-3.7465210">
        <ele>772.8</ele>
        <time>2019-08-12T07:57:25Z</time>
      </trkpt>
      <trkpt lat="39.2829690" lon="-3.7464730">
        <ele>772.7</ele>
        <time>2019-08-12T07:57:26Z</time>
      </trkpt>
      <trkpt lat="39.2829140" lon="-3.7464240">
        <ele>772.5</ele>
        <time>2019-08-12T07:57:27Z</time>
      </trkpt>
      <trkpt lat="39.2828590" lon="-3.7463730">
        <ele>772.2</ele>
        <time>2019-08-12T07:57:28Z</time>
      </trkpt>
      <trkpt lat="39.2828030" lon="-3.7463220">
        <ele>772.0</ele>
        <time>2019-08-12T07:57:29Z</time>
      </trkpt>
      <trkpt lat="39.2827470" lon="-3.7462700">
        <ele>771.8</ele>
        <time>2019-08-12T07:57:30Z</time>
      </trkpt>
      <trkpt lat="39.2826930" lon="-3.7462190">
        <ele>771.6</ele>
        <time>2019-08-12T07:57:31Z</time>
      </trkpt>
      <trkpt lat="39.2826400" lon="-3.7461690">
        <ele>771.3</ele>
        <time>2019-08-12T07:57:32Z</time>
      </trkpt>
      <trkpt lat="39.2825890" lon="-3.7461200">
        <ele>770.7</ele>
        <time>2019-08-12T07:57:33Z</time>
      </trkpt>
      <trkpt lat="39.2825410" lon="-3.7460740">
        <ele>770.3</ele>
        <time>2019-08-12T07:57:34Z</time>
      </trkpt>
      <trkpt lat="39.2824970" lon="-3.7460300">
        <ele>770.0</ele>
        <time>2019-08-12T07:57:35Z</time>
      </trkpt>
      <trkpt lat="39.2824570" lon="-3.7459900">
        <ele>769.6</ele>
        <time>2019-08-12T07:57:36Z</time>
      </trkpt>
      <trkpt lat="39.2824190" lon="-3.7459300">
        <ele>769.2</ele>
        <time>2019-08-12T07:57:37Z</time>
      </trkpt>
      <trkpt lat="39.2823930" lon="-3.7458110">
        <ele>768.3</ele>
        <time>2019-08-12T07:57:38Z</time>
      </trkpt>
      <trkpt lat="39.2824500" lon="-3.7458140">
        <ele>768.3</ele>
        <time>2019-08-12T07:58:56Z</time>
      </trkpt>
      <trkpt lat="39.2824700" lon="-3.7458180">
        <ele>768.3</ele>
        <time>2019-08-12T07:58:57Z</time>
      </trkpt>
      <trkpt lat="39.2825120" lon="-3.7458220">
        <ele>768.3</ele>
        <time>2019-08-12T07:58:58Z</time>
      </trkpt>
      <trkpt lat="39.2825540" lon="-3.7458270">
        <ele>768.3</ele>
        <time>2019-08-12T07:58:59Z</time>
      </trkpt>
      <trkpt lat="39.2825980" lon="-3.7458320">
        <ele>768.3</ele>
        <time>2019-08-12T07:59:00Z</time>
      </trkpt>
      <trkpt lat="39.2826420" lon="-3.7458360">
        <ele>768.3</ele>
        <time>2019-08-12T07:59:01Z</time>
      </trkpt>
      <trkpt lat="39.2827180" lon="-3.7458430">
        <ele>768.3</ele>
        <time>2019-08-12T07:59:02Z</time>
      </trkpt>
      <trkpt lat="39.2827480" lon="-3.7458460">
        <ele>768.3</ele>
        <time>2019-08-12T07:59:03Z</time>
      </trkpt>
      <trkpt lat="39.2827790" lon="-3.7458490">
        <ele>768.3</ele>
        <time>2019-08-12T07:59:04Z</time>
      </trkpt>
      <trkpt lat="39.2828260" lon="-3.7458540">
        <ele>768.3</ele>
        <time>2019-08-12T07:59:05Z</time>
      </trkpt>
      <trkpt lat="39.2828740" lon="-3.7458590">
        <ele>768.3</ele>
        <time>2019-08-12T07:59:06Z</time>
      </trkpt>
      <trkpt lat="39.2829220" lon="-3.7458640">
        <ele>768.3</ele>
        <time>2019-08-12T07:59:07Z</time>
      </trkpt>
      <trkpt lat="39.2829940" lon="-3.7458720">
        <ele>768.3</ele>
        <time>2019-08-12T07:59:08Z</time>
      </trkpt>
      <trkpt lat="39.2830180" lon="-3.7458750">
        <ele>768.3</ele>
        <time>2019-08-12T07:59:09Z</time>
      </trkpt>
      <trkpt lat="39.2830660" lon="-3.7458810">
        <ele>768.3</ele>
        <time>2019-08-12T07:59:10Z</time>
      </trkpt>
      <trkpt lat="39.2831150" lon="-3.7458860">
        <ele>768.3</ele>
        <time>2019-08-12T07:59:11Z</time>
      </trkpt>
      <trkpt lat="39.2831620" lon="-3.7458920">
        <ele>768.3</ele>
        <time>2019-08-12T07:59:12Z</time>
      </trkpt>
      <trkpt lat="39.2832100" lon="-3.7458980">
        <ele>768.3</ele>
        <time>2019-08-12T07:59:13Z</time>
      </trkpt>
      <trkpt lat="39.2832570" lon="-3.7459040">
        <ele>768.3</ele>
        <time>2019-08-12T07:59:14Z</time>
      </trkpt>
      <trkpt lat="39.2833050" lon="-3.7459110">
        <ele>768.3</ele>
        <time>2019-08-12T07:59:15Z</time>
      </trkpt>
      <trkpt lat="39.2833530" lon="-3.7459200">
        <ele>768.3</ele>
        <time>2019-08-12T07:59:16Z</time>
      </trkpt>
      <trkpt lat="39.2834010" lon="-3.7459300">
        <ele>768.3</ele>
        <time>2019-08-12T07:59:17Z</time>
      </trkpt>
      <trkpt lat="39.2834500" lon="-3.7459410">
        <ele>768.4</ele>
        <time>2019-08-12T07:59:18Z</time>
      </trkpt>
      <trkpt lat="39.2834990" lon="-3.7459540">
        <ele>768.4</ele>
        <time>2019-08-12T07:59:19Z</time>
      </trkpt>
      <trkpt lat="39.2835490" lon="-3.7459700">
        <ele>768.4</ele>
        <time>2019-08-12T07:59:20Z</time>
      </trkpt>
      <trkpt lat="39.2836000" lon="-3.7459880">
        <ele>768.4</ele>
        <time>2019-08-12T07:59:21Z</time>
      </trkpt>
      <trkpt lat="39.2836520" lon="-3.7460080">
        <ele>768.5</ele>
        <time>2019-08-12T07:59:22Z</time>
      </trkpt>
      <trkpt lat="39.2837060" lon="-3.7460300">
        <ele>768.5</ele>
        <time>2019-08-12T07:59:23Z</time>
      </trkpt>
      <trkpt lat="39.2837610" lon="-3.7460530">
        <ele>768.6</ele>
        <time>2019-08-12T07:59:24Z</time>
      </trkpt>
      <trkpt lat="39.2838190" lon="-3.7460780">
        <ele>768.7</ele>
        <time>2019-08-12T07:59:25Z</time>
      </trkpt>
      <trkpt lat="39.2838790" lon="-3.7461020">
        <ele>768.8</ele>
        <time>2019-08-12T07:59:26Z</time>
      </trkpt>
      <trkpt lat="39.2839400" lon="-3.7461280">
        <ele>768.9</ele>
        <time>2019-08-12T07:59:27Z</time>
      </trkpt>
      <trkpt lat="39.2840020" lon="-3.7461530">
        <ele>769.0</ele>
        <time>2019-08-12T07:59:28Z</time>
      </trkpt>
      <trkpt lat="39.2840640" lon="-3.7461790">
        <ele>769.1</ele>
        <time>2019-08-12T07:59:29Z</time>
      </trkpt>
      <trkpt lat="39.2841240" lon="-3.7462040">
        <ele>769.2</ele>
        <time>2019-08-12T07:59:30Z</time>
      </trkpt>
      <trkpt lat="39.2841840" lon="-3.7462290">
        <ele>769.2</ele>
        <time>2019-08-12T07:59:31Z</time>
      </trkpt>
      <trkpt lat="39.2842420" lon="-3.7462540">
        <ele>769.2</ele>
        <time>2019-08-12T07:59:32Z</time>
      </trkpt>
      <trkpt lat="39.2842990" lon="-3.7462790">
        <ele>769.2</ele>
        <time>2019-08-12T07:59:33Z</time>
      </trkpt>
      <trkpt lat="39.2843930" lon="-3.7463200">
        <ele>769.3</ele>
        <time>2019-08-12T07:59:34Z</time>
      </trkpt>
      <trkpt lat="39.2844290" lon="-3.7463360">
        <ele>769.4</ele>
        <time>2019-08-12T07:59:35Z</time>
      </trkpt>
      <trkpt lat="39.2844660" lon="-3.7463520">
        <ele>769.4</ele>
        <time>2019-08-12T07:59:36Z</time>
      </trkpt>
      <trkpt lat="39.2845200" lon="-3.7463760">
        <ele>769.5</ele>
        <time>2019-08-12T07:59:37Z</time>
      </trkpt>
      <trkpt lat="39.2845730" lon="-3.7464000">
        <ele>769.6</ele>
        <time>2019-08-12T07:59:38Z</time>
      </trkpt>
      <trkpt lat="39.2846600" lon="-3.7464380">
        <ele>769.8</ele>
        <time>2019-08-12T07:59:39Z</time>
      </trkpt>
      <trkpt lat="39.2846940" lon="-3.7464540">
        <ele>769.8</ele>
        <time>2019-08-12T07:59:40Z</time>
      </trkpt>
      <trkpt lat="39.2847290" lon="-3.7464690">
        <ele>769.9</ele>
        <time>2019-08-12T07:59:41Z</time>
      </trkpt>
      <trkpt lat="39.2847810" lon="-3.7464920">
        <ele>770.0</ele>
        <time>2019-08-12T07:59:42Z</time>
      </trkpt>
      <trkpt lat="39.2848320" lon="-3.7465140">
        <ele>770.1</ele>
        <time>2019-08-12T07:59:43Z</time>
      </trkpt>
      <trkpt lat="39.2848820" lon="-3.7465370">
        <ele>770.1</ele>
        <time>2019-08-12T07:59:44Z</time>
      </trkpt>
      <trkpt lat="39.2849320" lon="-3.7465590">
        <ele>770.2</ele>
        <time>2019-08-12T07:59:45Z</time>
      </trkpt>
      <trkpt lat="39.2849830" lon="-3.7465810">
        <ele>770.2</ele>
        <time>2019-08-12T07:59:46Z</time>
      </trkpt>
      <trkpt lat="39.2850320" lon="-3.7466030">
        <ele>770.2</ele>
        <time>2019-08-12T07:59:47Z</time>
      </trkpt>
      <trkpt lat="39.2850820" lon="-3.7466240">
        <ele>770.2</ele>
        <time>2019-08-12T07:59:48Z</time>
      </trkpt>
      <trkpt lat="39.2851310" lon="-3.7466460">
        <ele>770.2</ele>
        <time>2019-08-12T07:59:49Z</time>
      </trkpt>
      <trkpt lat="39.2851810" lon="-3.7466670">
        <ele>770.2</ele>
        <time>2019-08-12T07:59:50Z</time>
      </trkpt>
      <trkpt lat="39.2852300" lon="-3.7466890">
        <ele>770.2</ele>
        <time>2019-08-12T07:59:51Z</time>
      </trkpt>
      <trkpt lat="39.2852790" lon="-3.7467100">
        <ele>770.2</ele>
        <time>2019-08-12T07:59:52Z</time>
      </trkpt>
      <trkpt lat="39.2853270" lon="-3.7467310">
        <ele>770.3</ele>
        <time>2019-08-12T07:59:53Z</time>
      </trkpt>
      <trkpt lat="39.2853760" lon="-3.7467520">
        <ele>770.3</ele>
        <time>2019-08-12T07:59:54Z</time>
      </trkpt>
      <trkpt lat="39.2854240" lon="-3.7467740">
        <ele>770.3</ele>
        <time>2019-08-12T07:59:55Z</time>
      </trkpt>
      <trkpt lat="39.2854720" lon="-3.7467950">
        <ele>770.4</ele>
        <time>2019-08-12T07:59:56Z</time>
      </trkpt>
      <trkpt lat="39.2855200" lon="-3.7468160">
        <ele>770.5</ele>
        <time>2019-08-12T07:59:57Z</time>
      </trkpt>
      <trkpt lat="39.2855680" lon="-3.7468370">
        <ele>770.5</ele>
        <time>2019-08-12T07:59:58Z</time>
      </trkpt>
      <trkpt lat="39.2856150" lon="-3.7468580">
        <ele>770.6</ele>
        <time>2019-08-12T07:59:59Z</time>
      </trkpt>
      <trkpt lat="39.2856630" lon="-3.7468790">
        <ele>770.7</ele>
        <time>2019-08-12T08:00:00Z</time>
      </trkpt>
      <trkpt lat="39.2857100" lon="-3.7469000">
        <ele>770.9</ele>
        <time>2019-08-12T08:00:01Z</time>
      </trkpt>
      <trkpt lat="39.2857560" lon="-3.7469210">
        <ele>771.0</ele>
        <time>2019-08-12T08:00:02Z</time>
      </trkpt>
      <trkpt lat="39.2858030" lon="-3.7469420">
        <ele>771.1</ele>
        <time>2019-08-12T08:00:03Z</time>
      </trkpt>
      <trkpt lat="39.2858500" lon="-3.7469620">
        <ele>771.2</ele>
        <time>2019-08-12T08:00:04Z</time>
      </trkpt>
      <trkpt lat="39.2858960" lon="-3.7469830">
        <ele>771.3</ele>
        <time>2019-08-12T08:00:05Z</time>
      </trkpt>
      <trkpt lat="39.2859420" lon="-3.7470030">
        <ele>771.4</ele>
        <time>2019-08-12T08:00:06Z</time>
      </trkpt>
      <trkpt lat="39.2859880" lon="-3.7470230">
        <ele>771.6</ele>
        <time>2019-08-12T08:00:07Z</time>
      </trkpt>
      <trkpt lat="39.2860330" lon="-3.7470420">
        <ele>771.8</ele>
        <time>2019-08-12T08:00:08Z</time>
      </trkpt>
      <trkpt lat="39.2860790" lon="-3.7470620">
        <ele>772.1</ele>
        <time>2019-08-12T08:00:09Z</time>
      </trkpt>
      <trkpt lat="39.2861240" lon="-3.7470810">
        <ele>772.3</ele>
        <time>2019-08-12T08:00:10Z</time>
      </trkpt>
      <trkpt lat="39.2861680" lon="-3.7471000">
        <ele>772.6</ele>
        <time>2019-08-12T08:00:11Z</time>
      </trkpt>
      <trkpt lat="39.2862120" lon="-3.7471200">
        <ele>772.9</ele>
        <time>2019-08-12T08:00:12Z</time>
      </trkpt>
      <trkpt lat="39.2862560" lon="-3.7471390">
        <ele>773.2</ele>
        <time>2019-08-12T08:00:13Z</time>
      </trkpt>
      <trkpt lat="39.2862990" lon="-3.7471590">
        <ele>773.6</ele>
        <time>2019-08-12T08:00:14Z</time>
      </trkpt>
      <trkpt lat="39.2863420" lon="-3.7471780">
        <ele>773.9</ele>
        <time>2019-08-12T08:00:15Z</time>
      </trkpt>
      <trkpt lat="39.2863850" lon="-3.7471980">
        <ele>774.1</ele>
        <time>2019-08-12T08:00:16Z</time>
      </trkpt>
      <trkpt lat="39.2864290" lon="-3.7472180">
        <ele>774.4</ele>
        <time>2019-08-12T08:00:17Z</time>
      </trkpt>
      <trkpt lat="39.2864720" lon="-3.7472380">
        <ele>774.6</ele>
        <time>2019-08-12T08:00:18Z</time>
      </trkpt>
      <trkpt lat="39.2865150" lon="-3.7472580">
        <ele>774.8</ele>
        <time>2019-08-12T08:00:19Z</time>
      </trkpt>
      <trkpt lat="39.2865590" lon="-3.7472780">
        <ele>774.9</ele>
        <time>2019-08-12T08:00:20Z</time>
      </trkpt>
      <trkpt lat="39.2866020" lon="-3.7472980">
        <ele>775.1</ele>
        <time>2019-08-12T08:00:21Z</time>
      </trkpt>
      <trkpt lat="39.2866450" lon="-3.7473180">
        <ele>775.1</ele>
        <time>2019-08-12T08:00:22Z</time>
      </trkpt>
      <trkpt lat="39.2866890" lon="-3.7473390">
        <ele>775.2</ele>
        <time>2019-08-12T08:00:23Z</time>
      </trkpt>
      <trkpt lat="39.2867320" lon="-3.7473590">
        <ele>775.2</ele>
        <time>2019-08-12T08:00:24Z</time>
      </trkpt>
      <trkpt lat="39.2867750" lon="-3.7473790">
        <ele>775.3</ele>
        <time>2019-08-12T08:00:25Z</time>
      </trkpt>
      <trkpt lat="39.2868170" lon="-3.7474000">
        <ele>775.3</ele>
        <time>2019-08-12T08:00:26Z</time>
      </trkpt>
      <trkpt lat="39.2868600" lon="-3.7474200">
        <ele>775.3</ele>
        <time>2019-08-12T08:00:27Z</time>
      </trkpt>
      <trkpt lat="39.2869020" lon="-3.7474410">
        <ele>775.3</ele>
        <time>2019-08-12T08:00:28Z</time>
      </trkpt>
      <trkpt lat="39.2869450" lon="-3.7474610">
        <ele>775.3</ele>
        <time>2019-08-12T08:00:29Z</time>
      </trkpt>
      <trkpt lat="39.2869870" lon="-3.7474810">
        <ele>775.3</ele>
        <time>2019-08-12T08:00:30Z</time>
      </trkpt>
      <trkpt lat="39.2870290" lon="-3.7475010">
        <ele>775.3</ele>
        <time>2019-08-12T08:00:31Z</time>
      </trkpt>
      <trkpt lat="39.2870710" lon="-3.7475210">
        <ele>775.3</ele>
        <time>2019-08-12T08:00:32Z</time>
      </trkpt>
      <trkpt lat="39.2871130" lon="-3.7475410">
        <ele>775.3</ele>
        <time>2019-08-12T08:00:33Z</time>
      </trkpt>
      <trkpt lat="39.2871550" lon="-3.7475600">
        <ele>775.3</ele>
        <time>2019-08-12T08:00:34Z</time>
      </trkpt>
      <trkpt lat="39.2871970" lon="-3.7475800">
        <ele>775.3</ele>
        <time>2019-08-12T08:00:35Z</time>
      </trkpt>
      <trkpt lat="39.2872390" lon="-3.7475990">
        <ele>775.3</ele>
        <time>2019-08-12T08:00:36Z</time>
      </trkpt>
      <trkpt lat="39.2872810" lon="-3.7476180">
        <ele>775.3</ele>
        <time>2019-08-12T08:00:37Z</time>
      </trkpt>
      <trkpt lat="39.2873230" lon="-3.7476370">
        <ele>775.3</ele>
        <time>2019-08-12T08:00:38Z</time>
      </trkpt>
      <trkpt lat="39.2873650" lon="-3.7476560">
        <ele>775.4</ele>
        <time>2019-08-12T08:00:39Z</time>
      </trkpt>
      <trkpt lat="39.2874080" lon="-3.7476750">
        <ele>775.4</ele>
        <time>2019-08-12T08:00:40Z</time>
      </trkpt>
      <trkpt lat="39.2874500" lon="-3.7476950">
        <ele>775.4</ele>
        <time>2019-08-12T08:00:41Z</time>
      </trkpt>
      <trkpt lat="39.2874930" lon="-3.7477140">
        <ele>775.5</ele>
        <time>2019-08-12T08:00:42Z</time>
      </trkpt>
      <trkpt lat="39.2875360" lon="-3.7477340">
        <ele>775.5</ele>
        <time>2019-08-12T08:00:43Z</time>
      </trkpt>
      <trkpt lat="39.2875790" lon="-3.7477550">
        <ele>775.6</ele>
        <time>2019-08-12T08:00:44Z</time>
      </trkpt>
      <trkpt lat="39.2876230" lon="-3.7477760">
        <ele>775.7</ele>
        <time>2019-08-12T08:00:45Z</time>
      </trkpt>
      <trkpt lat="39.2876670" lon="-3.7477970">
        <ele>775.8</ele>
        <time>2019-08-12T08:00:46Z</time>
      </trkpt>
      <trkpt lat="39.2877110" lon="-3.7478180">
        <ele>775.9</ele>
        <time>2019-08-12T08:00:47Z</time>
      </trkpt>
      <trkpt lat="39.2877550" lon="-3.7478400">
        <ele>775.9</ele>
        <time>2019-08-12T08:00:48Z</time>
      </trkpt>
      <trkpt lat="39.2878000" lon="-3.7478610">
        <ele>776.0</ele>
        <time>2019-08-12T08:00:49Z</time>
      </trkpt>
      <trkpt lat="39.2878440" lon="-3.7478830">
        <ele>776.1</ele>
        <time>2019-08-12T08:00:50Z</time>
      </trkpt>
      <trkpt lat="39.2878890" lon="-3.7479050">
        <ele>776.1</ele>
        <time>2019-08-12T08:00:51Z</time>
      </trkpt>
      <trkpt lat="39.2879340" lon="-3.7479270">
        <ele>776.1</ele>
        <time>2019-08-12T08:00:52Z</time>
      </trkpt>
      <trkpt lat="39.2879790" lon="-3.7479490">
        <ele>776.2</ele>
        <time>2019-08-12T08:00:53Z</time>
      </trkpt>
      <trkpt lat="39.2880240" lon="-3.7479700">
        <ele>776.2</ele>
        <time>2019-08-12T08:00:54Z</time>
      </trkpt>
      <trkpt lat="39.2880690" lon="-3.7479920">
        <ele>776.2</ele>
        <time>2019-08-12T08:00:55Z</time>
      </trkpt>
      <trkpt lat="39.2881140" lon="-3.7480140">
        <ele>776.2</ele>
        <time>2019-08-12T08:00:56Z</time>
      </trkpt>
      <trkpt lat="39.2881590" lon="-3.7480360">
        <ele>776.1</ele>
        <time>2019-08-12T08:00:57Z</time>
      </trkpt>
      <trkpt lat="39.2882040" lon="-3.7480590">
        <ele>776.1</ele>
        <time>2019-08-12T08:00:58Z</time>
      </trkpt>
      <trkpt lat="39.2882480" lon="-3.7480820">
        <ele>776.0</ele>
        <time>2019-08-12T08:00:59Z</time>
      </trkpt>
      <trkpt lat="39.2882930" lon="-3.7481070">
        <ele>776.0</ele>
        <time>2019-08-12T08:01:00Z</time>
      </trkpt>
      <trkpt lat="39.2883370" lon="-3.7481330">
        <ele>775.9</ele>
        <time>2019-08-12T08:01:01Z</time>
      </trkpt>
      <trkpt lat="39.2883810" lon="-3.7481600">
        <ele>775.8</ele>
        <time>2019-08-12T08:01:02Z</time>
      </trkpt>
      <trkpt lat="39.2884240" lon="-3.7481880">
        <ele>775.7</ele>
        <time>2019-08-12T08:01:03Z</time>
      </trkpt>
      <trkpt lat="39.2884670" lon="-3.7482180">
        <ele>775.6</ele>
        <time>2019-08-12T08:01:04Z</time>
      </trkpt>
      <trkpt lat="39.2885090" lon="-3.7482490">
        <ele>775.6</ele>
        <time>2019-08-12T08:01:05Z</time>
      </trkpt>
      <trkpt lat="39.2885510" lon="-3.7482810">
        <ele>775.5</ele>
        <time>2019-08-12T08:01:06Z</time>
      </trkpt>
      <trkpt lat="39.2885920" lon="-3.7483140">
        <ele>775.4</ele>
        <time>2019-08-12T08:01:07Z</time>
      </trkpt>
      <trkpt lat="39.2886330" lon="-3.7483480">
        <ele>775.4</ele>
        <time>2019-08-12T08:01:08Z</time>
      </trkpt>
      <trkpt lat="39.2886730" lon="-3.7483840">
        <ele>775.3</ele>
        <time>2019-08-12T08:01:09Z</time>
      </trkpt>
      <trkpt lat="39.2887110" lon="-3.7484200">
        <ele>775.3</ele>
        <time>2019-08-12T08:01:10Z</time>
      </trkpt>
      <trkpt lat="39.2887490" lon="-3.7484560">
        <ele>775.2</ele>
        <time>2019-08-12T08:01:11Z</time>
      </trkpt>
      <trkpt lat="39.2887860" lon="-3.7484940">
        <ele>775.2</ele>
        <time>2019-08-12T08:01:12Z</time>
      </trkpt>
      <trkpt lat="39.2888230" lon="-3.7485320">
        <ele>775.1</ele>
        <time>2019-08-12T08:01:13Z</time>
      </trkpt>
      <trkpt lat="39.2888580" lon="-3.7485700">
        <ele>775.0</ele>
        <time>2019-08-12T08:01:14Z</time>
      </trkpt>
      <trkpt lat="39.2888940" lon="-3.7486090">
        <ele>774.9</ele>
        <time>2019-08-12T08:01:15Z</time>
      </trkpt>
      <trkpt lat="39.2889290" lon="-3.7486490">
        <ele>774.8</ele>
        <time>2019-08-12T08:01:16Z</time>
      </trkpt>
      <trkpt lat="39.2889640" lon="-3.7486890">
        <ele>774.7</ele>
        <time>2019-08-12T08:01:17Z</time>
      </trkpt>
      <trkpt lat="39.2889990" lon="-3.7487300">
        <ele>774.6</ele>
        <time>2019-08-12T08:01:18Z</time>
      </trkpt>
      <trkpt lat="39.2890350" lon="-3.7487710">
        <ele>774.5</ele>
        <time>2019-08-12T08:01:19Z</time>
      </trkpt>
      <trkpt lat="39.2890720" lon="-3.7488120">
        <ele>774.4</ele>
        <time>2019-08-12T08:01:20Z</time>
      </trkpt>
      <trkpt lat="39.2891090" lon="-3.7488540">
        <ele>774.4</ele>
        <time>2019-08-12T08:01:21Z</time>
      </trkpt>
      <trkpt lat="39.2891470" lon="-3.7488970">
        <ele>774.3</ele>
        <time>2019-08-12T08:01:22Z</time>
      </trkpt>
      <trkpt lat="39.2891850" lon="-3.7489390">
        <ele>774.3</ele>
        <time>2019-08-12T08:01:23Z</time>
      </trkpt>
      <trkpt lat="39.2892220" lon="-3.7489810">
        <ele>774.3</ele>
        <time>2019-08-12T08:01:24Z</time>
      </trkpt>
      <trkpt lat="39.2892580" lon="-3.7490220">
        <ele>774.3</ele>
        <time>2019-08-12T08:01:25Z</time>
      </trkpt>
      <trkpt lat="39.2892930" lon="-3.7490620">
        <ele>774.3</ele>
        <time>2019-08-12T08:01:26Z</time>
      </trkpt>
      <trkpt lat="39.2893270" lon="-3.7491010">
        <ele>774.3</ele>
        <time>2019-08-12T08:01:27Z</time>
      </trkpt>
      <trkpt lat="39.2893600" lon="-3.7491390">
        <ele>774.3</ele>
        <time>2019-08-12T08:01:28Z</time>
      </trkpt>
      <trkpt lat="39.2893910" lon="-3.7491770">
        <ele>774.3</ele>
        <time>2019-08-12T08:01:29Z</time>
      </trkpt>
      <trkpt lat="39.2894230" lon="-3.7492130">
        <ele>774.4</ele>
        <time>2019-08-12T08:01:30Z</time>
      </trkpt>
      <trkpt lat="39.2894530" lon="-3.7492480">
        <ele>774.5</ele>
        <time>2019-08-12T08:01:31Z</time>
      </trkpt>
      <trkpt lat="39.2894840" lon="-3.7492820">
        <ele>774.6</ele>
        <time>2019-08-12T08:01:32Z</time>
      </trkpt>
      <trkpt lat="39.2895160" lon="-3.7493170">
        <ele>774.7</ele>
        <time>2019-08-12T08:01:33Z</time>
      </trkpt>
      <trkpt lat="39.2895470" lon="-3.7493520">
        <ele>774.8</ele>
        <time>2019-08-12T08:01:34Z</time>
      </trkpt>
      <trkpt lat="39.2895800" lon="-3.7493890">
        <ele>774.9</ele>
        <time>2019-08-12T08:01:35Z</time>
      </trkpt>
      <trkpt lat="39.2896150" lon="-3.7494280">
        <ele>775.1</ele>
        <time>2019-08-12T08:01:36Z</time>
      </trkpt>
      <trkpt lat="39.2896500" lon="-3.7494680">
        <ele>775.3</ele>
        <time>2019-08-12T08:01:37Z</time>
      </trkpt>
      <trkpt lat="39.2896860" lon="-3.7495090">
        <ele>775.4</ele>
        <time>2019-08-12T08:01:38Z</time>
      </trkpt>
      <trkpt lat="39.2897220" lon="-3.7495500">
        <ele>775.6</ele>
        <time>2019-08-12T08:01:39Z</time>
      </trkpt>
      <trkpt lat="39.2897590" lon="-3.7495910">
        <ele>775.7</ele>
        <time>2019-08-12T08:01:40Z</time>
      </trkpt>
      <trkpt lat="39.2897950" lon="-3.7496320">
        <ele>775.8</ele>
        <time>2019-08-12T08:01:41Z</time>
      </trkpt>
      <trkpt lat="39.2898300" lon="-3.7496730">
        <ele>775.9</ele>
        <time>2019-08-12T08:01:42Z</time>
      </trkpt>
      <trkpt lat="39.2898660" lon="-3.7497130">
        <ele>776.0</ele>
        <time>2019-08-12T08:01:43Z</time>
      </trkpt>
      <trkpt lat="39.2899020" lon="-3.7497530">
        <ele>776.1</ele>
        <time>2019-08-12T08:01:44Z</time>
      </trkpt>
      <trkpt lat="39.2899380" lon="-3.7497940">
        <ele>776.1</ele>
        <time>2019-08-12T08:01:45Z</time>
      </trkpt>
      <trkpt lat="39.2899730" lon="-3.7498330">
        <ele>776.1</ele>
        <time>2019-08-12T08:01:46Z</time>
      </trkpt>
      <trkpt lat="39.2900080" lon="-3.7498730">
        <ele>776.2</ele>
        <time>2019-08-12T08:01:47Z</time>
      </trkpt>
      <trkpt lat="39.2900440" lon="-3.7499130">
        <ele>776.2</ele>
        <time>2019-08-12T08:01:48Z</time>
      </trkpt>
      <trkpt lat="39.2900790" lon="-3.7499520">
        <ele>776.2</ele>
        <time>2019-08-12T08:01:49Z</time>
      </trkpt>
      <trkpt lat="39.2901140" lon="-3.7499920">
        <ele>776.3</ele>
        <time>2019-08-12T08:01:50Z</time>
      </trkpt>
      <trkpt lat="39.2901490" lon="-3.7500310">
        <ele>776.3</ele>
        <time>2019-08-12T08:01:51Z</time>
      </trkpt>
      <trkpt lat="39.2901840" lon="-3.7500700">
        <ele>776.4</ele>
        <time>2019-08-12T08:01:52Z</time>
      </trkpt>
      <trkpt lat="39.2902190" lon="-3.7501090">
        <ele>776.4</ele>
        <time>2019-08-12T08:01:53Z</time>
      </trkpt>
      <trkpt lat="39.2902540" lon="-3.7501480">
        <ele>776.5</ele>
        <time>2019-08-12T08:01:54Z</time>
      </trkpt>
      <trkpt lat="39.2902890" lon="-3.7501870">
        <ele>776.6</ele>
        <time>2019-08-12T08:01:55Z</time>
      </trkpt>
      <trkpt lat="39.2903230" lon="-3.7502260">
        <ele>776.7</ele>
        <time>2019-08-12T08:01:56Z</time>
      </trkpt>
      <trkpt lat="39.2903580" lon="-3.7502640">
        <ele>776.7</ele>
        <time>2019-08-12T08:01:57Z</time>
      </trkpt>
      <trkpt lat="39.2903930" lon="-3.7503030">
        <ele>776.8</ele>
        <time>2019-08-12T08:01:58Z</time>
      </trkpt>
      <trkpt lat="39.2904270" lon="-3.7503420">
        <ele>776.9</ele>
        <time>2019-08-12T08:01:59Z</time>
      </trkpt>
      <trkpt lat="39.2904620" lon="-3.7503800">
        <ele>777.0</ele>
        <time>2019-08-12T08:02:00Z</time>
      </trkpt>
      <trkpt lat="39.2904960" lon="-3.7504190">
        <ele>777.1</ele>
        <time>2019-08-12T08:02:01Z</time>
      </trkpt>
      <trkpt lat="39.2905310" lon="-3.7504580">
        <ele>777.1</ele>
        <time>2019-08-12T08:02:02Z</time>
      </trkpt>
      <trkpt lat="39.2905650" lon="-3.7504960">
        <ele>777.2</ele>
        <time>2019-08-12T08:02:03Z</time>
      </trkpt>
      <trkpt lat="39.2905990" lon="-3.7505350">
        <ele>777.3</ele>
        <time>2019-08-12T08:02:04Z</time>
      </trkpt>
      <trkpt lat="39.2906330" lon="-3.7505730">
        <ele>777.3</ele>
        <time>2019-08-12T08:02:05Z</time>
      </trkpt>
      <trkpt lat="39.2906670" lon="-3.7506110">
        <ele>777.4</ele>
        <time>2019-08-12T08:02:06Z</time>
      </trkpt>
      <trkpt lat="39.2907010" lon="-3.7506490">
        <ele>777.5</ele>
        <time>2019-08-12T08:02:07Z</time>
      </trkpt>
      <trkpt lat="39.2907350" lon="-3.7506880">
        <ele>777.6</ele>
        <time>2019-08-12T08:02:08Z</time>
      </trkpt>
      <trkpt lat="39.2907690" lon="-3.7507260">
        <ele>777.7</ele>
        <time>2019-08-12T08:02:09Z</time>
      </trkpt>
      <trkpt lat="39.2908030" lon="-3.7507630">
        <ele>777.8</ele>
        <time>2019-08-12T08:02:10Z</time>
      </trkpt>
      <trkpt lat="39.2908360" lon="-3.7508010">
        <ele>778.0</ele>
        <time>2019-08-12T08:02:11Z</time>
      </trkpt>
      <trkpt lat="39.2908690" lon="-3.7508390">
        <ele>778.2</ele>
        <time>2019-08-12T08:02:12Z</time>
      </trkpt>
      <trkpt lat="39.2909030" lon="-3.7508760">
        <ele>778.4</ele>
        <time>2019-08-12T08:02:13Z</time>
      </trkpt>
      <trkpt lat="39.2909360" lon="-3.7509140">
        <ele>778.7</ele>
        <time>2019-08-12T08:02:14Z</time>
      </trkpt>
      <trkpt lat="39.2909690" lon="-3.7509510">
        <ele>778.9</ele>
        <time>2019-08-12T08:02:15Z</time>
      </trkpt>
      <trkpt lat="39.2910020" lon="-3.7509880">
        <ele>779.2</ele>
        <time>2019-08-12T08:02:16Z</time>
      </trkpt>
      <trkpt lat="39.2910340" lon="-3.7510250">
        <ele>779.6</ele>
        <time>2019-08-12T08:02:17Z</time>
      </trkpt>
      <trkpt lat="39.2910670" lon="-3.7510620">
        <ele>779.9</ele>
        <time>2019-08-12T08:02:18Z</time>
      </trkpt>
      <trkpt lat="39.2910990" lon="-3.7510980">
        <ele>780.3</ele>
        <time>2019-08-12T08:02:19Z</time>
      </trkpt>
      <trkpt lat="39.2911320" lon="-3.7511350">
        <ele>780.7</ele>
        <time>2019-08-12T08:02:20Z</time>
      </trkpt>
      <trkpt lat="39.2911640" lon="-3.7511720">
        <ele>781.0</ele>
        <time>2019-08-12T08:02:21Z</time>
      </trkpt>
      <trkpt lat="39.2911960" lon="-3.7512080">
        <ele>781.5</ele>
        <time>2019-08-12T08:02:22Z</time>
      </trkpt>
      <trkpt lat="39.2912290" lon="-3.7512440">
        <ele>781.9</ele>
        <time>2019-08-12T08:02:23Z</time>
      </trkpt>
      <trkpt lat="39.2912610" lon="-3.7512810">
        <ele>782.3</ele>
        <time>2019-08-12T08:02:24Z</time>
      </trkpt>
      <trkpt lat="39.2912940" lon="-3.7513170">
        <ele>782.7</ele>
        <time>2019-08-12T08:02:25Z</time>
      </trkpt>
      <trkpt lat="39.2913260" lon="-3.7513540">
        <ele>783.1</ele>
        <time>2019-08-12T08:02:26Z</time>
      </trkpt>
      <trkpt lat="39.2913590" lon="-3.7513900">
        <ele>783.5</ele>
        <time>2019-08-12T08:02:27Z</time>
      </trkpt>
      <trkpt lat="39.2913910" lon="-3.7514260">
        <ele>783.8</ele>
        <time>2019-08-12T08:02:28Z</time>
      </trkpt>
      <trkpt lat="39.2914240" lon="-3.7514630">
        <ele>784.1</ele>
        <time>2019-08-12T08:02:29Z</time>
      </trkpt>
      <trkpt lat="39.2914570" lon="-3.7514990">
        <ele>784.4</ele>
        <time>2019-08-12T08:02:30Z</time>
      </trkpt>
      <trkpt lat="39.2914890" lon="-3.7515350">
        <ele>784.5</ele>
        <time>2019-08-12T08:02:31Z</time>
      </trkpt>
      <trkpt lat="39.2915210" lon="-3.7515710">
        <ele>784.7</ele>
        <time>2019-08-12T08:02:32Z</time>
      </trkpt>
      <trkpt lat="39.2915540" lon="-3.7516070">
        <ele>784.8</ele>
        <time>2019-08-12T08:02:33Z</time>
      </trkpt>
      <trkpt lat="39.2915860" lon="-3.7516430">
        <ele>784.9</ele>
        <time>2019-08-12T08:02:34Z</time>
      </trkpt>
      <trkpt lat="39.2916180" lon="-3.7516790">
        <ele>785.0</ele>
        <time>2019-08-12T08:02:35Z</time>
      </trkpt>
      <trkpt lat="39.2916490" lon="-3.7517150">
        <ele>785.1</ele>
        <time>2019-08-12T08:02:36Z</time>
      </trkpt>
      <trkpt lat="39.2916810" lon="-3.7517500">
        <ele>785.1</ele>
        <time>2019-08-12T08:02:37Z</time>
      </trkpt>
      <trkpt lat="39.2917120" lon="-3.7517850">
        <ele>785.1</ele>
        <time>2019-08-12T08:02:38Z</time>
      </trkpt>
      <trkpt lat="39.2917430" lon="-3.7518210">
        <ele>785.2</ele>
        <time>2019-08-12T08:02:39Z</time>
      </trkpt>
      <trkpt lat="39.2917740" lon="-3.7518550">
        <ele>785.2</ele>
        <time>2019-08-12T08:02:40Z</time>
      </trkpt>
      <trkpt lat="39.2918050" lon="-3.7518900">
        <ele>785.3</ele>
        <time>2019-08-12T08:02:41Z</time>
      </trkpt>
      <trkpt lat="39.2918360" lon="-3.7519250">
        <ele>785.3</ele>
        <time>2019-08-12T08:02:42Z</time>
      </trkpt>
      <trkpt lat="39.2918660" lon="-3.7519600">
        <ele>785.4</ele>
        <time>2019-08-12T08:02:43Z</time>
      </trkpt>
      <trkpt lat="39.2918970" lon="-3.7519940">
        <ele>785.4</ele>
        <time>2019-08-12T08:02:44Z</time>
      </trkpt>
      <trkpt lat="39.2919270" lon="-3.7520280">
        <ele>785.5</ele>
        <time>2019-08-12T08:02:45Z</time>
      </trkpt>
      <trkpt lat="39.2919580" lon="-3.7520620">
        <ele>785.5</ele>
        <time>2019-08-12T08:02:46Z</time>
      </trkpt>
      <trkpt lat="39.2919880" lon="-3.7520970">
        <ele>785.6</ele>
        <time>2019-08-12T08:02:47Z</time>
      </trkpt>
      <trkpt lat="39.2920190" lon="-3.7521310">
        <ele>785.7</ele>
        <time>2019-08-12T08:02:48Z</time>
      </trkpt>
      <trkpt lat="39.2920490" lon="-3.7521650">
        <ele>785.8</ele>
        <time>2019-08-12T08:02:49Z</time>
      </trkpt>
      <trkpt lat="39.2920800" lon="-3.7522000">
        <ele>785.8</ele>
        <time>2019-08-12T08:02:50Z</time>
      </trkpt>
      <trkpt lat="39.2921110" lon="-3.7522340">
        <ele>785.9</ele>
        <time>2019-08-12T08:02:51Z</time>
      </trkpt>
      <trkpt lat="39.2921420" lon="-3.7522690">
        <ele>786.0</ele>
        <time>2019-08-12T08:02:52Z</time>
      </trkpt>
      <trkpt lat="39.2921730" lon="-3.7523050">
        <ele>786.0</ele>
        <time>2019-08-12T08:02:53Z</time>
      </trkpt>
      <trkpt lat="39.2922040" lon="-3.7523400">
        <ele>786.1</ele>
        <time>2019-08-12T08:02:54Z</time>
      </trkpt>
      <trkpt lat="39.2922360" lon="-3.7523770">
        <ele>786.1</ele>
        <time>2019-08-12T08:02:55Z</time>
      </trkpt>
      <trkpt lat="39.2922680" lon="-3.7524130">
        <ele>786.1</ele>
        <time>2019-08-12T08:02:56Z</time>
      </trkpt>
      <trkpt lat="39.2923000" lon="-3.7524500">
        <ele>786.1</ele>
        <time>2019-08-12T08:02:57Z</time>
      </trkpt>
      <trkpt lat="39.2923320" lon="-3.7524870">
        <ele>786.1</ele>
        <time>2019-08-12T08:02:58Z</time>
      </trkpt>
      <trkpt lat="39.2923650" lon="-3.7525250">
        <ele>786.2</ele>
        <time>2019-08-12T08:02:59Z</time>
      </trkpt>
      <trkpt lat="39.2923970" lon="-3.7525620">
        <ele>786.2</ele>
        <time>2019-08-12T08:03:00Z</time>
      </trkpt>
      <trkpt lat="39.2924300" lon="-3.7526000">
        <ele>786.2</ele>
        <time>2019-08-12T08:03:01Z</time>
      </trkpt>
      <trkpt lat="39.2924630" lon="-3.7526390">
        <ele>786.2</ele>
        <time>2019-08-12T08:03:02Z</time>
      </trkpt>
      <trkpt lat="39.2924960" lon="-3.7526770">
        <ele>786.2</ele>
        <time>2019-08-12T08:03:03Z</time>
      </trkpt>
      <trkpt lat="39.2925280" lon="-3.7527160">
        <ele>786.2</ele>
        <time>2019-08-12T08:03:04Z</time>
      </trkpt>
      <trkpt lat="39.2925610" lon="-3.7527540">
        <ele>786.2</ele>
        <time>2019-08-12T08:03:05Z</time>
      </trkpt>
      <trkpt lat="39.2925940" lon="-3.7527940">
        <ele>786.2</ele>
        <time>2019-08-12T08:03:06Z</time>
      </trkpt>
      <trkpt lat="39.2926280" lon="-3.7528330">
        <ele>786.2</ele>
        <time>2019-08-12T08:03:07Z</time>
      </trkpt>
      <trkpt lat="39.2926610" lon="-3.7528740">
        <ele>786.2</ele>
        <time>2019-08-12T08:03:08Z</time>
      </trkpt>
      <trkpt lat="39.2926940" lon="-3.7529140">
        <ele>786.2</ele>
        <time>2019-08-12T08:03:09Z</time>
      </trkpt>
      <trkpt lat="39.2927280" lon="-3.7529550">
        <ele>786.2</ele>
        <time>2019-08-12T08:03:10Z</time>
      </trkpt>
      <trkpt lat="39.2927620" lon="-3.7529960">
        <ele>786.2</ele>
        <time>2019-08-12T08:03:11Z</time>
      </trkpt>
      <trkpt lat="39.2927960" lon="-3.7530380">
        <ele>786.2</ele>
        <time>2019-08-12T08:03:12Z</time>
      </trkpt>
      <trkpt lat="39.2928310" lon="-3.7530790">
        <ele>786.2</ele>
        <time>2019-08-12T08:03:13Z</time>
      </trkpt>
      <trkpt lat="39.2928650" lon="-3.7531210">
        <ele>786.2</ele>
        <time>2019-08-12T08:03:14Z</time>
      </trkpt>
      <trkpt lat="39.2929000" lon="-3.7531630">
        <ele>786.2</ele>
        <time>2019-08-12T08:03:15Z</time>
      </trkpt>
      <trkpt lat="39.2929360" lon="-3.7532060">
        <ele>786.2</ele>
        <time>2019-08-12T08:03:16Z</time>
      </trkpt>
      <trkpt lat="39.2929710" lon="-3.7532480">
        <ele>786.1</ele>
        <time>2019-08-12T08:03:17Z</time>
      </trkpt>
      <trkpt lat="39.2930070" lon="-3.7532910">
        <ele>786.1</ele>
        <time>2019-08-12T08:03:18Z</time>
      </trkpt>
      <trkpt lat="39.2930420" lon="-3.7533330">
        <ele>786.0</ele>
        <time>2019-08-12T08:03:19Z</time>
      </trkpt>
      <trkpt lat="39.2930780" lon="-3.7533760">
        <ele>786.0</ele>
        <time>2019-08-12T08:03:20Z</time>
      </trkpt>
      <trkpt lat="39.2931140" lon="-3.7534180">
        <ele>785.9</ele>
        <time>2019-08-12T08:03:21Z</time>
      </trkpt>
      <trkpt lat="39.2931510" lon="-3.7534610">
        <ele>785.8</ele>
        <time>2019-08-12T08:03:22Z</time>
      </trkpt>
      <trkpt lat="39.2931870" lon="-3.7535040">
        <ele>785.6</ele>
        <time>2019-08-12T08:03:23Z</time>
      </trkpt>
      <trkpt lat="39.2932240" lon="-3.7535470">
        <ele>785.5</ele>
        <time>2019-08-12T08:03:24Z</time>
      </trkpt>
      <trkpt lat="39.2932600" lon="-3.7535900">
        <ele>785.3</ele>
        <time>2019-08-12T08:03:25Z</time>
      </trkpt>
      <trkpt lat="39.2932970" lon="-3.7536330">
        <ele>785.1</ele>
        <time>2019-08-12T08:03:26Z</time>
      </trkpt>
      <trkpt lat="39.2933340" lon="-3.7536760">
        <ele>785.0</ele>
        <time>2019-08-12T08:03:27Z</time>
      </trkpt>
      <trkpt lat="39.2933710" lon="-3.7537190">
        <ele>784.9</ele>
        <time>2019-08-12T08:03:28Z</time>
      </trkpt>
      <trkpt lat="39.2934080" lon="-3.7537630">
        <ele>784.8</ele>
        <time>2019-08-12T08:03:29Z</time>
      </trkpt>
      <trkpt lat="39.2934460" lon="-3.7538070">
        <ele>784.8</ele>
        <time>2019-08-12T08:03:30Z</time>
      </trkpt>
      <trkpt lat="39.2934830" lon="-3.7538510">
        <ele>784.9</ele>
        <time>2019-08-12T08:03:31Z</time>
      </trkpt>
      <trkpt lat="39.2935210" lon="-3.7538960">
        <ele>785.0</ele>
        <time>2019-08-12T08:03:32Z</time>
      </trkpt>
      <trkpt lat="39.2935590" lon="-3.7539400">
        <ele>785.1</ele>
        <time>2019-08-12T08:03:33Z</time>
      </trkpt>
      <trkpt lat="39.2935960" lon="-3.7539850">
        <ele>785.3</ele>
        <time>2019-08-12T08:03:34Z</time>
      </trkpt>
      <trkpt lat="39.2936340" lon="-3.7540290">
        <ele>785.4</ele>
        <time>2019-08-12T08:03:35Z</time>
      </trkpt>
      <trkpt lat="39.2936720" lon="-3.7540740">
        <ele>785.6</ele>
        <time>2019-08-12T08:03:36Z</time>
      </trkpt>
      <trkpt lat="39.2937100" lon="-3.7541180">
        <ele>785.7</ele>
        <time>2019-08-12T08:03:37Z</time>
      </trkpt>
      <trkpt lat="39.2937470" lon="-3.7541630">
        <ele>785.7</ele>
        <time>2019-08-12T08:03:38Z</time>
      </trkpt>
      <trkpt lat="39.2937850" lon="-3.7542070">
        <ele>785.8</ele>
        <time>2019-08-12T08:03:39Z</time>
      </trkpt>
      <trkpt lat="39.2938220" lon="-3.7542500">
        <ele>785.8</ele>
        <time>2019-08-12T08:03:40Z</time>
      </trkpt>
      <trkpt lat="39.2938590" lon="-3.7542930">
        <ele>785.7</ele>
        <time>2019-08-12T08:03:41Z</time>
      </trkpt>
      <trkpt lat="39.2938960" lon="-3.7543370">
        <ele>785.7</ele>
        <time>2019-08-12T08:03:42Z</time>
      </trkpt>
      <trkpt lat="39.2939330" lon="-3.7543800">
        <ele>785.7</ele>
        <time>2019-08-12T08:03:43Z</time>
      </trkpt>
      <trkpt lat="39.2939710" lon="-3.7544230">
        <ele>785.6</ele>
        <time>2019-08-12T08:03:44Z</time>
      </trkpt>
      <trkpt lat="39.2940080" lon="-3.7544660">
        <ele>785.6</ele>
        <time>2019-08-12T08:03:45Z</time>
      </trkpt>
      <trkpt lat="39.2940450" lon="-3.7545090">
        <ele>785.6</ele>
        <time>2019-08-12T08:03:46Z</time>
      </trkpt>
      <trkpt lat="39.2940830" lon="-3.7545520">
        <ele>785.7</ele>
        <time>2019-08-12T08:03:47Z</time>
      </trkpt>
      <trkpt lat="39.2941200" lon="-3.7545960">
        <ele>785.8</ele>
        <time>2019-08-12T08:03:48Z</time>
      </trkpt>
      <trkpt lat="39.2941590" lon="-3.7546400">
        <ele>785.9</ele>
        <time>2019-08-12T08:03:49Z</time>
      </trkpt>
      <trkpt lat="39.2941970" lon="-3.7546850">
        <ele>786.1</ele>
        <time>2019-08-12T08:03:50Z</time>
      </trkpt>
      <trkpt lat="39.2942350" lon="-3.7547300">
        <ele>786.4</ele>
        <time>2019-08-12T08:03:51Z</time>
      </trkpt>
      <trkpt lat="39.2942740" lon="-3.7547740">
        <ele>786.6</ele>
        <time>2019-08-12T08:03:52Z</time>
      </trkpt>
      <trkpt lat="39.2943130" lon="-3.7548200">
        <ele>786.9</ele>
        <time>2019-08-12T08:03:53Z</time>
      </trkpt>
      <trkpt lat="39.2943510" lon="-3.7548650">
        <ele>787.1</ele>
        <time>2019-08-12T08:03:54Z</time>
      </trkpt>
      <trkpt lat="39.2943900" lon="-3.7549100">
        <ele>787.4</ele>
        <time>2019-08-12T08:03:55Z</time>
      </trkpt>
      <trkpt lat="39.2944290" lon="-3.7549560">
        <ele>787.6</ele>
        <time>2019-08-12T08:03:56Z</time>
      </trkpt>
      <trkpt lat="39.2944670" lon="-3.7550010">
        <ele>787.7</ele>
        <time>2019-08-12T08:03:57Z</time>
      </trkpt>
      <trkpt lat="39.2945060" lon="-3.7550460">
        <ele>787.9</ele>
        <time>2019-08-12T08:03:58Z</time>
      </trkpt>
      <trkpt lat="39.2945440" lon="-3.7550910">
        <ele>788.0</ele>
        <time>2019-08-12T08:03:59Z</time>
      </trkpt>
      <trkpt lat="39.2945820" lon="-3.7551360">
        <ele>788.0</ele>
        <time>2019-08-12T08:04:00Z</time>
      </trkpt>
      <trkpt lat="39.2946200" lon="-3.7551810">
        <ele>788.1</ele>
        <time>2019-08-12T08:04:01Z</time>
      </trkpt>
      <trkpt lat="39.2946580" lon="-3.7552250">
        <ele>788.1</ele>
        <time>2019-08-12T08:04:02Z</time>
      </trkpt>
      <trkpt lat="39.2946950" lon="-3.7552700">
        <ele>788.1</ele>
        <time>2019-08-12T08:04:03Z</time>
      </trkpt>
      <trkpt lat="39.2947320" lon="-3.7553130">
        <ele>788.2</ele>
        <time>2019-08-12T08:04:04Z</time>
      </trkpt>
      <trkpt lat="39.2947680" lon="-3.7553560">
        <ele>788.2</ele>
        <time>2019-08-12T08:04:05Z</time>
      </trkpt>
      <trkpt lat="39.2948040" lon="-3.7553990">
        <ele>788.3</ele>
        <time>2019-08-12T08:04:06Z</time>
      </trkpt>
      <trkpt lat="39.2948390" lon="-3.7554410">
        <ele>788.3</ele>
        <time>2019-08-12T08:04:07Z</time>
      </trkpt>
      <trkpt lat="39.2948740" lon="-3.7554830">
        <ele>788.4</ele>
        <time>2019-08-12T08:04:08Z</time>
      </trkpt>
      <trkpt lat="39.2949080" lon="-3.7555240">
        <ele>788.4</ele>
        <time>2019-08-12T08:04:09Z</time>
      </trkpt>
      <trkpt lat="39.2949430" lon="-3.7555640">
        <ele>788.5</ele>
        <time>2019-08-12T08:04:10Z</time>
      </trkpt>
      <trkpt lat="39.2949760" lon="-3.7556040">
        <ele>788.6</ele>
        <time>2019-08-12T08:04:11Z</time>
      </trkpt>
      <trkpt lat="39.2950100" lon="-3.7556430">
        <ele>788.7</ele>
        <time>2019-08-12T08:04:12Z</time>
      </trkpt>
      <trkpt lat="39.2950440" lon="-3.7556820">
        <ele>788.7</ele>
        <time>2019-08-12T08:04:13Z</time>
      </trkpt>
      <trkpt lat="39.2950780" lon="-3.7557200">
        <ele>788.8</ele>
        <time>2019-08-12T08:04:14Z</time>
      </trkpt>
      <trkpt lat="39.2951110" lon="-3.7557570">
        <ele>788.9</ele>
        <time>2019-08-12T08:04:15Z</time>
      </trkpt>
      <trkpt lat="39.2951450" lon="-3.7557940">
        <ele>788.9</ele>
        <time>2019-08-12T08:04:16Z</time>
      </trkpt>
      <trkpt lat="39.2951800" lon="-3.7558300">
        <ele>789.0</ele>
        <time>2019-08-12T08:04:17Z</time>
      </trkpt>
      <trkpt lat="39.2952140" lon="-3.7558650">
        <ele>789.0</ele>
        <time>2019-08-12T08:04:18Z</time>
      </trkpt>
      <trkpt lat="39.2952490" lon="-3.7559000">
        <ele>789.1</ele>
        <time>2019-08-12T08:04:19Z</time>
      </trkpt>
      <trkpt lat="39.2952850" lon="-3.7559340">
        <ele>789.1</ele>
        <time>2019-08-12T08:04:20Z</time>
      </trkpt>
      <trkpt lat="39.2953210" lon="-3.7559670">
        <ele>789.2</ele>
        <time>2019-08-12T08:04:21Z</time>
      </trkpt>
      <trkpt lat="39.2953570" lon="-3.7560000">
        <ele>789.2</ele>
        <time>2019-08-12T08:04:22Z</time>
      </trkpt>
      <trkpt lat="39.2953950" lon="-3.7560320">
        <ele>789.3</ele>
        <time>2019-08-12T08:04:23Z</time>
      </trkpt>
      <trkpt lat="39.2954330" lon="-3.7560630">
        <ele>789.4</ele>
        <time>2019-08-12T08:04:24Z</time>
      </trkpt>
      <trkpt lat="39.2954720" lon="-3.7560930">
        <ele>789.5</ele>
        <time>2019-08-12T08:04:25Z</time>
      </trkpt>
      <trkpt lat="39.2955120" lon="-3.7561220">
        <ele>789.5</ele>
        <time>2019-08-12T08:04:26Z</time>
      </trkpt>
      <trkpt lat="39.2955520" lon="-3.7561500">
        <ele>789.7</ele>
        <time>2019-08-12T08:04:27Z</time>
      </trkpt>
      <trkpt lat="39.2955930" lon="-3.7561770">
        <ele>789.8</ele>
        <time>2019-08-12T08:04:28Z</time>
      </trkpt>
      <trkpt lat="39.2956340" lon="-3.7562020">
        <ele>789.9</ele>
        <time>2019-08-12T08:04:29Z</time>
      </trkpt>
      <trkpt lat="39.2956750" lon="-3.7562250">
        <ele>790.0</ele>
        <time>2019-08-12T08:04:30Z</time>
      </trkpt>
      <trkpt lat="39.2957160" lon="-3.7562470">
        <ele>790.1</ele>
        <time>2019-08-12T08:04:31Z</time>
      </trkpt>
      <trkpt lat="39.2957570" lon="-3.7562670">
        <ele>790.2</ele>
        <time>2019-08-12T08:04:32Z</time>
      </trkpt>
      <trkpt lat="39.2957990" lon="-3.7562860">
        <ele>790.3</ele>
        <time>2019-08-12T08:04:33Z</time>
      </trkpt>
      <trkpt lat="39.2958420" lon="-3.7563040">
        <ele>790.4</ele>
        <time>2019-08-12T08:04:34Z</time>
      </trkpt>
      <trkpt lat="39.2958860" lon="-3.7563230">
        <ele>790.5</ele>
        <time>2019-08-12T08:04:35Z</time>
      </trkpt>
      <trkpt lat="39.2959300" lon="-3.7563410">
        <ele>790.6</ele>
        <time>2019-08-12T08:04:36Z</time>
      </trkpt>
      <trkpt lat="39.2959750" lon="-3.7563580">
        <ele>790.7</ele>
        <time>2019-08-12T08:04:37Z</time>
      </trkpt>
      <trkpt lat="39.2960210" lon="-3.7563760">
        <ele>790.8</ele>
        <time>2019-08-12T08:04:38Z</time>
      </trkpt>
      <trkpt lat="39.2960670" lon="-3.7563930">
        <ele>790.9</ele>
        <time>2019-08-12T08:04:39Z</time>
      </trkpt>
      <trkpt lat="39.2961130" lon="-3.7564100">
        <ele>791.1</ele>
        <time>2019-08-12T08:04:40Z</time>
      </trkpt>
      <trkpt lat="39.2961600" lon="-3.7564260">
        <ele>791.2</ele>
        <time>2019-08-12T08:04:41Z</time>
      </trkpt>
      <trkpt lat="39.2962070" lon="-3.7564430">
        <ele>791.3</ele>
        <time>2019-08-12T08:04:42Z</time>
      </trkpt>
      <trkpt lat="39.2962540" lon="-3.7564590">
        <ele>791.4</ele>
        <time>2019-08-12T08:04:43Z</time>
      </trkpt>
      <trkpt lat="39.2963010" lon="-3.7564750">
        <ele>791.5</ele>
        <time>2019-08-12T08:04:44Z</time>
      </trkpt>
      <trkpt lat="39.2963470" lon="-3.7564910">
        <ele>791.6</ele>
        <time>2019-08-12T08:04:45Z</time>
      </trkpt>
      <trkpt lat="39.2963940" lon="-3.7565070">
        <ele>791.7</ele>
        <time>2019-08-12T08:04:46Z</time>
      </trkpt>
      <trkpt lat="39.2964400" lon="-3.7565230">
        <ele>791.8</ele>
        <time>2019-08-12T08:04:47Z</time>
      </trkpt>
      <trkpt lat="39.2964870" lon="-3.7565390">
        <ele>791.9</ele>
        <time>2019-08-12T08:04:48Z</time>
      </trkpt>
      <trkpt lat="39.2965330" lon="-3.7565550">
        <ele>792.0</ele>
        <time>2019-08-12T08:04:49Z</time>
      </trkpt>
      <trkpt lat="39.2965800" lon="-3.7565700">
        <ele>792.1</ele>
        <time>2019-08-12T08:04:50Z</time>
      </trkpt>
      <trkpt lat="39.2966260" lon="-3.7565860">
        <ele>792.2</ele>
        <time>2019-08-12T08:04:51Z</time>
      </trkpt>
      <trkpt lat="39.2966720" lon="-3.7566020">
        <ele>792.3</ele>
        <time>2019-08-12T08:04:52Z</time>
      </trkpt>
      <trkpt lat="39.2967180" lon="-3.7566180">
        <ele>792.5</ele>
        <time>2019-08-12T08:04:53Z</time>
      </trkpt>
      <trkpt lat="39.2967640" lon="-3.7566340">
        <ele>792.6</ele>
        <time>2019-08-12T08:04:54Z</time>
      </trkpt>
      <trkpt lat="39.2968100" lon="-3.7566500">
        <ele>792.8</ele>
        <time>2019-08-12T08:04:55Z</time>
      </trkpt>
      <trkpt lat="39.2968560" lon="-3.7566660">
        <ele>792.9</ele>
        <time>2019-08-12T08:04:56Z</time>
      </trkpt>
      <trkpt lat="39.2969020" lon="-3.7566820">
        <ele>793.1</ele>
        <time>2019-08-12T08:04:57Z</time>
      </trkpt>
      <trkpt lat="39.2969480" lon="-3.7566980">
        <ele>793.4</ele>
        <time>2019-08-12T08:04:58Z</time>
      </trkpt>
      <trkpt lat="39.2969940" lon="-3.7567140">
        <ele>793.6</ele>
        <time>2019-08-12T08:04:59Z</time>
      </trkpt>
      <trkpt lat="39.2970390" lon="-3.7567300">
        <ele>793.8</ele>
        <time>2019-08-12T08:05:00Z</time>
      </trkpt>
      <trkpt lat="39.2970850" lon="-3.7567450">
        <ele>794.1</ele>
        <time>2019-08-12T08:05:01Z</time>
      </trkpt>
      <trkpt lat="39.2971300" lon="-3.7567610">
        <ele>794.3</ele>
        <time>2019-08-12T08:05:02Z</time>
      </trkpt>
      <trkpt lat="39.2971760" lon="-3.7567760">
        <ele>794.6</ele>
        <time>2019-08-12T08:05:03Z</time>
      </trkpt>
      <trkpt lat="39.2972210" lon="-3.7567910">
        <ele>794.8</ele>
        <time>2019-08-12T08:05:04Z</time>
      </trkpt>
      <trkpt lat="39.2972660" lon="-3.7568060">
        <ele>795.1</ele>
        <time>2019-08-12T08:05:05Z</time>
      </trkpt>
      <trkpt lat="39.2973110" lon="-3.7568210">
        <ele>795.3</ele>
        <time>2019-08-12T08:05:06Z</time>
      </trkpt>
      <trkpt lat="39.2973560" lon="-3.7568360">
        <ele>795.5</ele>
        <time>2019-08-12T08:05:07Z</time>
      </trkpt>
      <trkpt lat="39.2974010" lon="-3.7568510">
        <ele>795.7</ele>
        <time>2019-08-12T08:05:08Z</time>
      </trkpt>
      <trkpt lat="39.2974460" lon="-3.7568660">
        <ele>795.8</ele>
        <time>2019-08-12T08:05:09Z</time>
      </trkpt>
      <trkpt lat="39.2974900" lon="-3.7568810">
        <ele>795.9</ele>
        <time>2019-08-12T08:05:10Z</time>
      </trkpt>
      <trkpt lat="39.2975350" lon="-3.7568960">
        <ele>796.0</ele>
        <time>2019-08-12T08:05:11Z</time>
      </trkpt>
      <trkpt lat="39.2975790" lon="-3.7569110">
        <ele>796.0</ele>
        <time>2019-08-12T08:05:12Z</time>
      </trkpt>
      <trkpt lat="39.2976230" lon="-3.7569260">
        <ele>796.1</ele>
        <time>2019-08-12T08:05:13Z</time>
      </trkpt>
      <trkpt lat="39.2976670" lon="-3.7569410">
        <ele>796.1</ele>
        <time>2019-08-12T08:05:14Z</time>
      </trkpt>
      <trkpt lat="39.2977110" lon="-3.7569570">
        <ele>796.1</ele>
        <time>2019-08-12T08:05:15Z</time>
      </trkpt>
      <trkpt lat="39.2977550" lon="-3.7569720">
        <ele>796.2</ele>
        <time>2019-08-12T08:05:16Z</time>
      </trkpt>
      <trkpt lat="39.2977980" lon="-3.7569890">
        <ele>796.2</ele>
        <time>2019-08-12T08:05:17Z</time>
      </trkpt>
      <trkpt lat="39.2978410" lon="-3.7570050">
        <ele>796.3</ele>
        <time>2019-08-12T08:05:18Z</time>
      </trkpt>
      <trkpt lat="39.2978840" lon="-3.7570220">
        <ele>796.3</ele>
        <time>2019-08-12T08:05:19Z</time>
      </trkpt>
      <trkpt lat="39.2979260" lon="-3.7570400">
        <ele>796.4</ele>
        <time>2019-08-12T08:05:20Z</time>
      </trkpt>
      <trkpt lat="39.2979680" lon="-3.7570580">
        <ele>796.4</ele>
        <time>2019-08-12T08:05:21Z</time>
      </trkpt>
      <trkpt lat="39.2980100" lon="-3.7570770">
        <ele>796.5</ele>
        <time>2019-08-12T08:05:22Z</time>
      </trkpt>
      <trkpt lat="39.2980520" lon="-3.7570960">
        <ele>796.6</ele>
        <time>2019-08-12T08:05:23Z</time>
      </trkpt>
      <trkpt lat="39.2980930" lon="-3.7571160">
        <ele>796.7</ele>
        <time>2019-08-12T08:05:24Z</time>
      </trkpt>
      <trkpt lat="39.2981340" lon="-3.7571360">
        <ele>796.7</ele>
        <time>2019-08-12T08:05:25Z</time>
      </trkpt>
      <trkpt lat="39.2981750" lon="-3.7571570">
        <ele>796.8</ele>
        <time>2019-08-12T08:05:26Z</time>
      </trkpt>
      <trkpt lat="39.2982160" lon="-3.7571790">
        <ele>796.9</ele>
        <time>2019-08-12T08:05:27Z</time>
      </trkpt>
      <trkpt lat="39.2982570" lon="-3.7572000">
        <ele>796.9</ele>
        <time>2019-08-12T08:05:28Z</time>
      </trkpt>
      <trkpt lat="39.2982970" lon="-3.7572230">
        <ele>797.0</ele>
        <time>2019-08-12T08:05:29Z</time>
      </trkpt>
      <trkpt lat="39.2983380" lon="-3.7572450">
        <ele>797.0</ele>
        <time>2019-08-12T08:05:30Z</time>
      </trkpt>
      <trkpt lat="39.2983790" lon="-3.7572680">
        <ele>797.1</ele>
        <time>2019-08-12T08:05:31Z</time>
      </trkpt>
      <trkpt lat="39.2984200" lon="-3.7572920">
        <ele>797.1</ele>
        <time>2019-08-12T08:05:32Z</time>
      </trkpt>
      <trkpt lat="39.2984610" lon="-3.7573160">
        <ele>797.1</ele>
        <time>2019-08-12T08:05:33Z</time>
      </trkpt>
      <trkpt lat="39.2985020" lon="-3.7573400">
        <ele>797.1</ele>
        <time>2019-08-12T08:05:34Z</time>
      </trkpt>
      <trkpt lat="39.2985430" lon="-3.7573640">
        <ele>797.1</ele>
        <time>2019-08-12T08:05:35Z</time>
      </trkpt>
      <trkpt lat="39.2985850" lon="-3.7573890">
        <ele>797.1</ele>
        <time>2019-08-12T08:05:36Z</time>
      </trkpt>
      <trkpt lat="39.2986270" lon="-3.7574140">
        <ele>797.1</ele>
        <time>2019-08-12T08:05:37Z</time>
      </trkpt>
      <trkpt lat="39.2986690" lon="-3.7574390">
        <ele>797.1</ele>
        <time>2019-08-12T08:05:38Z</time>
      </trkpt>
      <trkpt lat="39.2987120" lon="-3.7574640">
        <ele>797.1</ele>
        <time>2019-08-12T08:05:39Z</time>
      </trkpt>
      <trkpt lat="39.2987550" lon="-3.7574900">
        <ele>797.1</ele>
        <time>2019-08-12T08:05:40Z</time>
      </trkpt>
      <trkpt lat="39.2987980" lon="-3.7575160">
        <ele>797.1</ele>
        <time>2019-08-12T08:05:41Z</time>
      </trkpt>
      <trkpt lat="39.2988410" lon="-3.7575420">
        <ele>797.1</ele>
        <time>2019-08-12T08:05:42Z</time>
      </trkpt>
      <trkpt lat="39.2988850" lon="-3.7575670">
        <ele>797.1</ele>
        <time>2019-08-12T08:05:43Z</time>
      </trkpt>
      <trkpt lat="39.2989290" lon="-3.7575940">
        <ele>797.1</ele>
        <time>2019-08-12T08:05:44Z</time>
      </trkpt>
      <trkpt lat="39.2989730" lon="-3.7576200">
        <ele>797.1</ele>
        <time>2019-08-12T08:05:45Z</time>
      </trkpt>
      <trkpt lat="39.2990170" lon="-3.7576460">
        <ele>797.1</ele>
        <time>2019-08-12T08:05:46Z</time>
      </trkpt>
      <trkpt lat="39.2990620" lon="-3.7576720">
        <ele>797.1</ele>
        <time>2019-08-12T08:05:47Z</time>
      </trkpt>
      <trkpt lat="39.2991060" lon="-3.7576990">
        <ele>797.1</ele>
        <time>2019-08-12T08:05:48Z</time>
      </trkpt>
      <trkpt lat="39.2991510" lon="-3.7577250">
        <ele>797.1</ele>
        <time>2019-08-12T08:05:49Z</time>
      </trkpt>
      <trkpt lat="39.2991950" lon="-3.7577510">
        <ele>797.1</ele>
        <time>2019-08-12T08:05:50Z</time>
      </trkpt>
      <trkpt lat="39.2992400" lon="-3.7577770">
        <ele>797.1</ele>
        <time>2019-08-12T08:05:51Z</time>
      </trkpt>
      <trkpt lat="39.2992850" lon="-3.7578030">
        <ele>797.1</ele>
        <time>2019-08-12T08:05:52Z</time>
      </trkpt>
      <trkpt lat="39.2993290" lon="-3.7578290">
        <ele>797.1</ele>
        <time>2019-08-12T08:05:53Z</time>
      </trkpt>
      <trkpt lat="39.2993730" lon="-3.7578550">
        <ele>797.1</ele>
        <time>2019-08-12T08:05:54Z</time>
      </trkpt>
      <trkpt lat="39.2994180" lon="-3.7578810">
        <ele>797.1</ele>
        <time>2019-08-12T08:05:55Z</time>
      </trkpt>
      <trkpt lat="39.2994620" lon="-3.7579060">
        <ele>797.1</ele>
        <time>2019-08-12T08:05:56Z</time>
      </trkpt>
      <trkpt lat="39.2995050" lon="-3.7579320">
        <ele>797.1</ele>
        <time>2019-08-12T08:05:57Z</time>
      </trkpt>
      <trkpt lat="39.2995490" lon="-3.7579570">
        <ele>797.1</ele>
        <time>2019-08-12T08:05:58Z</time>
      </trkpt>
      <trkpt lat="39.2995930" lon="-3.7579820">
        <ele>797.1</ele>
        <time>2019-08-12T08:05:59Z</time>
      </trkpt>
      <trkpt lat="39.2996360" lon="-3.7580070">
        <ele>797.2</ele>
        <time>2019-08-12T08:06:00Z</time>
      </trkpt>
      <trkpt lat="39.2996790" lon="-3.7580310">
        <ele>797.2</ele>
        <time>2019-08-12T08:06:01Z</time>
      </trkpt>
      <trkpt lat="39.2997220" lon="-3.7580560">
        <ele>797.2</ele>
        <time>2019-08-12T08:06:02Z</time>
      </trkpt>
      <trkpt lat="39.2997650" lon="-3.7580800">
        <ele>797.2</ele>
        <time>2019-08-12T08:06:03Z</time>
      </trkpt>
      <trkpt lat="39.2998080" lon="-3.7581050">
        <ele>797.3</ele>
        <time>2019-08-12T08:06:04Z</time>
      </trkpt>
      <trkpt lat="39.2998510" lon="-3.7581290">
        <ele>797.3</ele>
        <time>2019-08-12T08:06:05Z</time>
      </trkpt>
      <trkpt lat="39.2998940" lon="-3.7581530">
        <ele>797.4</ele>
        <time>2019-08-12T08:06:06Z</time>
      </trkpt>
      <trkpt lat="39.2999370" lon="-3.7581770">
        <ele>797.5</ele>
        <time>2019-08-12T08:06:07Z</time>
      </trkpt>
      <trkpt lat="39.2999810" lon="-3.7582010">
        <ele>797.6</ele>
        <time>2019-08-12T08:06:08Z</time>
      </trkpt>
      <trkpt lat="39.3000240" lon="-3.7582250">
        <ele>797.7</ele>
        <time>2019-08-12T08:06:09Z</time>
      </trkpt>
      <trkpt lat="39.3000670" lon="-3.7582490">
        <ele>797.8</ele>
        <time>2019-08-12T08:06:10Z</time>
      </trkpt>
      <trkpt lat="39.3001110" lon="-3.7582730">
        <ele>798.0</ele>
        <time>2019-08-12T08:06:11Z</time>
      </trkpt>
      <trkpt lat="39.3001550" lon="-3.7582970">
        <ele>798.1</ele>
        <time>2019-08-12T08:06:12Z</time>
      </trkpt>
      <trkpt lat="39.3001980" lon="-3.7583200">
        <ele>798.2</ele>
        <time>2019-08-12T08:06:13Z</time>
      </trkpt>
      <trkpt lat="39.3002420" lon="-3.7583440">
        <ele>798.3</ele>
        <time>2019-08-12T08:06:14Z</time>
      </trkpt>
      <trkpt lat="39.3002860" lon="-3.7583690">
        <ele>798.4</ele>
        <time>2019-08-12T08:06:15Z</time>
      </trkpt>
      <trkpt lat="39.3003310" lon="-3.7583930">
        <ele>798.5</ele>
        <time>2019-08-12T08:06:16Z</time>
      </trkpt>
      <trkpt lat="39.3003750" lon="-3.7584170">
        <ele>798.6</ele>
        <time>2019-08-12T08:06:17Z</time>
      </trkpt>
      <trkpt lat="39.3004190" lon="-3.7584410">
        <ele>798.7</ele>
        <time>2019-08-12T08:06:18Z</time>
      </trkpt>
      <trkpt lat="39.3004640" lon="-3.7584650">
        <ele>798.8</ele>
        <time>2019-08-12T08:06:19Z</time>
      </trkpt>
      <trkpt lat="39.3005080" lon="-3.7584900">
        <ele>798.9</ele>
        <time>2019-08-12T08:06:20Z</time>
      </trkpt>
      <trkpt lat="39.3005520" lon="-3.7585140">
        <ele>799.0</ele>
        <time>2019-08-12T08:06:21Z</time>
      </trkpt>
      <trkpt lat="39.3005970" lon="-3.7585380">
        <ele>799.1</ele>
        <time>2019-08-12T08:06:22Z</time>
      </trkpt>
      <trkpt lat="39.3006410" lon="-3.7585620">
        <ele>799.2</ele>
        <time>2019-08-12T08:06:23Z</time>
      </trkpt>
      <trkpt lat="39.3006850" lon="-3.7585870">
        <ele>799.3</ele>
        <time>2019-08-12T08:06:24Z</time>
      </trkpt>
      <trkpt lat="39.3007290" lon="-3.7586110">
        <ele>799.4</ele>
        <time>2019-08-12T08:06:25Z</time>
      </trkpt>
      <trkpt lat="39.3007730" lon="-3.7586350">
        <ele>799.5</ele>
        <time>2019-08-12T08:06:26Z</time>
      </trkpt>
      <trkpt lat="39.3008170" lon="-3.7586590">
        <ele>799.6</ele>
        <time>2019-08-12T08:06:27Z</time>
      </trkpt>
      <trkpt lat="39.3008600" lon="-3.7586820">
        <ele>799.8</ele>
        <time>2019-08-12T08:06:28Z</time>
      </trkpt>
      <trkpt lat="39.3009030" lon="-3.7587060">
        <ele>799.9</ele>
        <time>2019-08-12T08:06:29Z</time>
      </trkpt>
      <trkpt lat="39.3009470" lon="-3.7587300">
        <ele>800.0</ele>
        <time>2019-08-12T08:06:30Z</time>
      </trkpt>
      <trkpt lat="39.3009890" lon="-3.7587540">
        <ele>800.1</ele>
        <time>2019-08-12T08:06:31Z</time>
      </trkpt>
      <trkpt lat="39.3010320" lon="-3.7587770">
        <ele>800.2</ele>
        <time>2019-08-12T08:06:32Z</time>
      </trkpt>
      <trkpt lat="39.3010740" lon="-3.7588010">
        <ele>800.3</ele>
        <time>2019-08-12T08:06:33Z</time>
      </trkpt>
      <trkpt lat="39.3011170" lon="-3.7588240">
        <ele>800.4</ele>
        <time>2019-08-12T08:06:34Z</time>
      </trkpt>
      <trkpt lat="39.3011580" lon="-3.7588480">
        <ele>800.5</ele>
        <time>2019-08-12T08:06:35Z</time>
      </trkpt>
      <trkpt lat="39.3012000" lon="-3.7588710">
        <ele>800.5</ele>
        <time>2019-08-12T08:06:36Z</time>
      </trkpt>
      <trkpt lat="39.3012420" lon="-3.7588940">
        <ele>800.6</ele>
        <time>2019-08-12T08:06:37Z</time>
      </trkpt>
      <trkpt lat="39.3012830" lon="-3.7589180">
        <ele>800.7</ele>
        <time>2019-08-12T08:06:38Z</time>
      </trkpt>
      <trkpt lat="39.3013240" lon="-3.7589410">
        <ele>800.8</ele>
        <time>2019-08-12T08:06:39Z</time>
      </trkpt>
      <trkpt lat="39.3013650" lon="-3.7589640">
        <ele>800.9</ele>
        <time>2019-08-12T08:06:40Z</time>
      </trkpt>
      <trkpt lat="39.3014060" lon="-3.7589870">
        <ele>800.9</ele>
        <time>2019-08-12T08:06:41Z</time>
      </trkpt>
      <trkpt lat="39.3014470" lon="-3.7590100">
        <ele>801.0</ele>
        <time>2019-08-12T08:06:42Z</time>
      </trkpt>
      <trkpt lat="39.3014880" lon="-3.7590340">
        <ele>801.0</ele>
        <time>2019-08-12T08:06:43Z</time>
      </trkpt>
      <trkpt lat="39.3015280" lon="-3.7590570">
        <ele>801.0</ele>
        <time>2019-08-12T08:06:44Z</time>
      </trkpt>
      <trkpt lat="39.3015690" lon="-3.7590800">
        <ele>801.1</ele>
        <time>2019-08-12T08:06:45Z</time>
      </trkpt>
      <trkpt lat="39.3016100" lon="-3.7591030">
        <ele>801.1</ele>
        <time>2019-08-12T08:06:46Z</time>
      </trkpt>
      <trkpt lat="39.3016510" lon="-3.7591260">
        <ele>801.1</ele>
        <time>2019-08-12T08:06:47Z</time>
      </trkpt>
      <trkpt lat="39.3016920" lon="-3.7591490">
        <ele>801.1</ele>
        <time>2019-08-12T08:06:48Z</time>
      </trkpt>
      <trkpt lat="39.3017330" lon="-3.7591720">
        <ele>801.1</ele>
        <time>2019-08-12T08:06:49Z</time>
      </trkpt>
      <trkpt lat="39.3017750" lon="-3.7591950">
        <ele>801.1</ele>
        <time>2019-08-12T08:06:50Z</time>
      </trkpt>
      <trkpt lat="39.3018160" lon="-3.7592180">
        <ele>801.1</ele>
        <time>2019-08-12T08:06:51Z</time>
      </trkpt>
      <trkpt lat="39.3018580" lon="-3.7592410">
        <ele>801.1</ele>
        <time>2019-08-12T08:06:52Z</time>
      </trkpt>
      <trkpt lat="39.3019000" lon="-3.7592640">
        <ele>801.1</ele>
        <time>2019-08-12T08:06:53Z</time>
      </trkpt>
      <trkpt lat="39.3019420" lon="-3.7592870">
        <ele>801.1</ele>
        <time>2019-08-12T08:06:54Z</time>
      </trkpt>
      <trkpt lat="39.3019850" lon="-3.7593090">
        <ele>801.1</ele>
        <time>2019-08-12T08:06:55Z</time>
      </trkpt>
      <trkpt lat="39.3020280" lon="-3.7593310">
        <ele>801.1</ele>
        <time>2019-08-12T08:06:56Z</time>
      </trkpt>
      <trkpt lat="39.3020710" lon="-3.7593530">
        <ele>801.1</ele>
        <time>2019-08-12T08:06:57Z</time>
      </trkpt>
      <trkpt lat="39.3021140" lon="-3.7593740">
        <ele>801.1</ele>
        <time>2019-08-12T08:06:58Z</time>
      </trkpt>
      <trkpt lat="39.3021570" lon="-3.7593940">
        <ele>801.1</ele>
        <time>2019-08-12T08:06:59Z</time>
      </trkpt>
      <trkpt lat="39.3022010" lon="-3.7594140">
        <ele>801.1</ele>
        <time>2019-08-12T08:07:00Z</time>
      </trkpt>
      <trkpt lat="39.3022440" lon="-3.7594330">
        <ele>801.1</ele>
        <time>2019-08-12T08:07:01Z</time>
      </trkpt>
      <trkpt lat="39.3022890" lon="-3.7594510">
        <ele>801.1</ele>
        <time>2019-08-12T08:07:02Z</time>
      </trkpt>
      <trkpt lat="39.3023330" lon="-3.7594690">
        <ele>801.1</ele>
        <time>2019-08-12T08:07:03Z</time>
      </trkpt>
      <trkpt lat="39.3023780" lon="-3.7594870">
        <ele>801.1</ele>
        <time>2019-08-12T08:07:04Z</time>
      </trkpt>
      <trkpt lat="39.3024230" lon="-3.7595040">
        <ele>801.1</ele>
        <time>2019-08-12T08:07:05Z</time>
      </trkpt>
      <trkpt lat="39.3024690" lon="-3.7595200">
        <ele>801.1</ele>
        <time>2019-08-12T08:07:06Z</time>
      </trkpt>
      <trkpt lat="39.3025150" lon="-3.7595370">
        <ele>801.1</ele>
        <time>2019-08-12T08:07:07Z</time>
      </trkpt>
      <trkpt lat="39.3025610" lon="-3.7595530">
        <ele>801.1</ele>
        <time>2019-08-12T08:07:08Z</time>
      </trkpt>
      <trkpt lat="39.3026070" lon="-3.7595700">
        <ele>801.1</ele>
        <time>2019-08-12T08:07:09Z</time>
      </trkpt>
      <trkpt lat="39.3026530" lon="-3.7595860">
        <ele>801.1</ele>
        <time>2019-08-12T08:07:10Z</time>
      </trkpt>
      <trkpt lat="39.3026990" lon="-3.7596030">
        <ele>801.1</ele>
        <time>2019-08-12T08:07:11Z</time>
      </trkpt>
      <trkpt lat="39.3027450" lon="-3.7596190">
        <ele>801.2</ele>
        <time>2019-08-12T08:07:12Z</time>
      </trkpt>
      <trkpt lat="39.3027910" lon="-3.7596360">
        <ele>801.2</ele>
        <time>2019-08-12T08:07:13Z</time>
      </trkpt>
      <trkpt lat="39.3028370" lon="-3.7596540">
        <ele>801.2</ele>
        <time>2019-08-12T08:07:14Z</time>
      </trkpt>
      <trkpt lat="39.3028830" lon="-3.7596710">
        <ele>801.3</ele>
        <time>2019-08-12T08:07:15Z</time>
      </trkpt>
      <trkpt lat="39.3029290" lon="-3.7596880">
        <ele>801.4</ele>
        <time>2019-08-12T08:07:16Z</time>
      </trkpt>
      <trkpt lat="39.3029750" lon="-3.7597040">
        <ele>801.5</ele>
        <time>2019-08-12T08:07:17Z</time>
      </trkpt>
      <trkpt lat="39.3030200" lon="-3.7597210">
        <ele>801.7</ele>
        <time>2019-08-12T08:07:18Z</time>
      </trkpt>
      <trkpt lat="39.3030650" lon="-3.7597370">
        <ele>801.8</ele>
        <time>2019-08-12T08:07:19Z</time>
      </trkpt>
      <trkpt lat="39.3031100" lon="-3.7597530">
        <ele>802.0</ele>
        <time>2019-08-12T08:07:20Z</time>
      </trkpt>
      <trkpt lat="39.3031540" lon="-3.7597680">
        <ele>802.2</ele>
        <time>2019-08-12T08:07:21Z</time>
      </trkpt>
      <trkpt lat="39.3031980" lon="-3.7597820">
        <ele>802.3</ele>
        <time>2019-08-12T08:07:22Z</time>
      </trkpt>
      <trkpt lat="39.3032420" lon="-3.7597970">
        <ele>802.5</ele>
        <time>2019-08-12T08:07:23Z</time>
      </trkpt>
      <trkpt lat="39.3032860" lon="-3.7598120">
        <ele>802.6</ele>
        <time>2019-08-12T08:07:24Z</time>
      </trkpt>
      <trkpt lat="39.3033290" lon="-3.7598270">
        <ele>802.7</ele>
        <time>2019-08-12T08:07:25Z</time>
      </trkpt>
      <trkpt lat="39.3033730" lon="-3.7598420">
        <ele>802.8</ele>
        <time>2019-08-12T08:07:26Z</time>
      </trkpt>
      <trkpt lat="39.3034160" lon="-3.7598580">
        <ele>802.9</ele>
        <time>2019-08-12T08:07:27Z</time>
      </trkpt>
      <trkpt lat="39.3034590" lon="-3.7598740">
        <ele>803.0</ele>
        <time>2019-08-12T08:07:28Z</time>
      </trkpt>
      <trkpt lat="39.3035010" lon="-3.7598900">
        <ele>803.0</ele>
        <time>2019-08-12T08:07:29Z</time>
      </trkpt>
      <trkpt lat="39.3035430" lon="-3.7599060">
        <ele>803.1</ele>
        <time>2019-08-12T08:07:30Z</time>
      </trkpt>
      <trkpt lat="39.3035850" lon="-3.7599210">
        <ele>803.1</ele>
        <time>2019-08-12T08:07:31Z</time>
      </trkpt>
      <trkpt lat="39.3036270" lon="-3.7599360">
        <ele>803.1</ele>
        <time>2019-08-12T08:07:32Z</time>
      </trkpt>
      <trkpt lat="39.3036690" lon="-3.7599520">
        <ele>803.2</ele>
        <time>2019-08-12T08:07:33Z</time>
      </trkpt>
      <trkpt lat="39.3037110" lon="-3.7599680">
        <ele>803.3</ele>
        <time>2019-08-12T08:07:34Z</time>
      </trkpt>
      <trkpt lat="39.3037540" lon="-3.7599850">
        <ele>803.3</ele>
        <time>2019-08-12T08:07:35Z</time>
      </trkpt>
      <trkpt lat="39.3037970" lon="-3.7600030">
        <ele>803.5</ele>
        <time>2019-08-12T08:07:36Z</time>
      </trkpt>
      <trkpt lat="39.3038400" lon="-3.7600200">
        <ele>803.6</ele>
        <time>2019-08-12T08:07:37Z</time>
      </trkpt>
      <trkpt lat="39.3038830" lon="-3.7600380">
        <ele>803.8</ele>
        <time>2019-08-12T08:07:38Z</time>
      </trkpt>
      <trkpt lat="39.3039260" lon="-3.7600550">
        <ele>804.0</ele>
        <time>2019-08-12T08:07:39Z</time>
      </trkpt>
      <trkpt lat="39.3039690" lon="-3.7600720">
        <ele>804.3</ele>
        <time>2019-08-12T08:07:40Z</time>
      </trkpt>
      <trkpt lat="39.3040110" lon="-3.7600880">
        <ele>804.5</ele>
        <time>2019-08-12T08:07:41Z</time>
      </trkpt>
      <trkpt lat="39.3040530" lon="-3.7601040">
        <ele>804.7</ele>
        <time>2019-08-12T08:07:42Z</time>
      </trkpt>
      <trkpt lat="39.3040950" lon="-3.7601190">
        <ele>805.0</ele>
        <time>2019-08-12T08:07:43Z</time>
      </trkpt>
      <trkpt lat="39.3041370" lon="-3.7601340">
        <ele>805.2</ele>
        <time>2019-08-12T08:07:44Z</time>
      </trkpt>
      <trkpt lat="39.3041790" lon="-3.7601490">
        <ele>805.4</ele>
        <time>2019-08-12T08:07:45Z</time>
      </trkpt>
      <trkpt lat="39.3042200" lon="-3.7601630">
        <ele>805.5</ele>
        <time>2019-08-12T08:07:46Z</time>
      </trkpt>
      <trkpt lat="39.3042610" lon="-3.7601780">
        <ele>805.7</ele>
        <time>2019-08-12T08:07:47Z</time>
      </trkpt>
      <trkpt lat="39.3043020" lon="-3.7601920">
        <ele>805.8</ele>
        <time>2019-08-12T08:07:48Z</time>
      </trkpt>
      <trkpt lat="39.3043420" lon="-3.7602070">
        <ele>805.9</ele>
        <time>2019-08-12T08:07:49Z</time>
      </trkpt>
      <trkpt lat="39.3043820" lon="-3.7602220">
        <ele>805.9</ele>
        <time>2019-08-12T08:07:50Z</time>
      </trkpt>
      <trkpt lat="39.3044220" lon="-3.7602370">
        <ele>806.0</ele>
        <time>2019-08-12T08:07:51Z</time>
      </trkpt>
      <trkpt lat="39.3044620" lon="-3.7602510">
        <ele>806.0</ele>
        <time>2019-08-12T08:07:52Z</time>
      </trkpt>
      <trkpt lat="39.3045010" lon="-3.7602660">
        <ele>806.1</ele>
        <time>2019-08-12T08:07:53Z</time>
      </trkpt>
      <trkpt lat="39.3045400" lon="-3.7602810">
        <ele>806.1</ele>
        <time>2019-08-12T08:07:54Z</time>
      </trkpt>
      <trkpt lat="39.3045780" lon="-3.7602950">
        <ele>806.1</ele>
        <time>2019-08-12T08:07:55Z</time>
      </trkpt>
      <trkpt lat="39.3046170" lon="-3.7603090">
        <ele>806.1</ele>
        <time>2019-08-12T08:07:56Z</time>
      </trkpt>
      <trkpt lat="39.3046550" lon="-3.7603230">
        <ele>806.2</ele>
        <time>2019-08-12T08:07:57Z</time>
      </trkpt>
      <trkpt lat="39.3046920" lon="-3.7603360">
        <ele>806.2</ele>
        <time>2019-08-12T08:07:58Z</time>
      </trkpt>
      <trkpt lat="39.3047300" lon="-3.7603490">
        <ele>806.3</ele>
        <time>2019-08-12T08:07:59Z</time>
      </trkpt>
      <trkpt lat="39.3047670" lon="-3.7603620">
        <ele>806.3</ele>
        <time>2019-08-12T08:08:00Z</time>
      </trkpt>
      <trkpt lat="39.3048040" lon="-3.7603740">
        <ele>806.4</ele>
        <time>2019-08-12T08:08:01Z</time>
      </trkpt>
      <trkpt lat="39.3048410" lon="-3.7603860">
        <ele>806.5</ele>
        <time>2019-08-12T08:08:02Z</time>
      </trkpt>
      <trkpt lat="39.3048770" lon="-3.7603980">
        <ele>806.5</ele>
        <time>2019-08-12T08:08:03Z</time>
      </trkpt>
      <trkpt lat="39.3049140" lon="-3.7604100">
        <ele>806.6</ele>
        <time>2019-08-12T08:08:04Z</time>
      </trkpt>
      <trkpt lat="39.3049510" lon="-3.7604220">
        <ele>806.7</ele>
        <time>2019-08-12T08:08:05Z</time>
      </trkpt>
      <trkpt lat="39.3049890" lon="-3.7604340">
        <ele>806.9</ele>
        <time>2019-08-12T08:08:06Z</time>
      </trkpt>
      <trkpt lat="39.3050260" lon="-3.7604460">
        <ele>807.0</ele>
        <time>2019-08-12T08:08:07Z</time>
      </trkpt>
      <trkpt lat="39.3050640" lon="-3.7604570">
        <ele>807.1</ele>
        <time>2019-08-12T08:08:08Z</time>
      </trkpt>
      <trkpt lat="39.3051020" lon="-3.7604690">
        <ele>807.2</ele>
        <time>2019-08-12T08:08:09Z</time>
      </trkpt>
      <trkpt lat="39.3051400" lon="-3.7604810">
        <ele>807.3</ele>
        <time>2019-08-12T08:08:10Z</time>
      </trkpt>
      <trkpt lat="39.3051780" lon="-3.7604930">
        <ele>807.4</ele>
        <time>2019-08-12T08:08:11Z</time>
      </trkpt>
      <trkpt lat="39.3052160" lon="-3.7605050">
        <ele>807.5</ele>
        <time>2019-08-12T08:08:12Z</time>
      </trkpt>
      <trkpt lat="39.3052530" lon="-3.7605170">
        <ele>807.6</ele>
        <time>2019-08-12T08:08:13Z</time>
      </trkpt>
      <trkpt lat="39.3052910" lon="-3.7605290">
        <ele>807.7</ele>
        <time>2019-08-12T08:08:14Z</time>
      </trkpt>
      <trkpt lat="39.3053290" lon="-3.7605420">
        <ele>807.8</ele>
        <time>2019-08-12T08:08:15Z</time>
      </trkpt>
      <trkpt lat="39.3053660" lon="-3.7605540">
        <ele>807.9</ele>
        <time>2019-08-12T08:08:16Z</time>
      </trkpt>
      <trkpt lat="39.3054030" lon="-3.7605670">
        <ele>808.0</ele>
        <time>2019-08-12T08:08:17Z</time>
      </trkpt>
      <trkpt lat="39.3054390" lon="-3.7605800">
        <ele>808.1</ele>
        <time>2019-08-12T08:08:18Z</time>
      </trkpt>
      <trkpt lat="39.3054760" lon="-3.7605930">
        <ele>808.2</ele>
        <time>2019-08-12T08:08:19Z</time>
      </trkpt>
      <trkpt lat="39.3055120" lon="-3.7606060">
        <ele>808.2</ele>
        <time>2019-08-12T08:08:20Z</time>
      </trkpt>
      <trkpt lat="39.3055480" lon="-3.7606190">
        <ele>808.3</ele>
        <time>2019-08-12T08:08:21Z</time>
      </trkpt>
      <trkpt lat="39.3055840" lon="-3.7606320">
        <ele>808.4</ele>
        <time>2019-08-12T08:08:22Z</time>
      </trkpt>
      <trkpt lat="39.3056200" lon="-3.7606460">
        <ele>808.5</ele>
        <time>2019-08-12T08:08:23Z</time>
      </trkpt>
      <trkpt lat="39.3056560" lon="-3.7606590">
        <ele>808.6</ele>
        <time>2019-08-12T08:08:24Z</time>
      </trkpt>
      <trkpt lat="39.3056920" lon="-3.7606730">
        <ele>808.7</ele>
        <time>2019-08-12T08:08:25Z</time>
      </trkpt>
      <trkpt lat="39.3057290" lon="-3.7606870">
        <ele>808.7</ele>
        <time>2019-08-12T08:08:26Z</time>
      </trkpt>
      <trkpt lat="39.3057650" lon="-3.7607010">
        <ele>808.8</ele>
        <time>2019-08-12T08:08:27Z</time>
      </trkpt>
      <trkpt lat="39.3058020" lon="-3.7607150">
        <ele>808.9</ele>
        <time>2019-08-12T08:08:28Z</time>
      </trkpt>
      <trkpt lat="39.3058390" lon="-3.7607290">
        <ele>809.0</ele>
        <time>2019-08-12T08:08:29Z</time>
      </trkpt>
      <trkpt lat="39.3058760" lon="-3.7607430">
        <ele>809.1</ele>
        <time>2019-08-12T08:08:30Z</time>
      </trkpt>
      <trkpt lat="39.3059130" lon="-3.7607570">
        <ele>809.1</ele>
        <time>2019-08-12T08:08:31Z</time>
      </trkpt>
      <trkpt lat="39.3059490" lon="-3.7607710">
        <ele>809.2</ele>
        <time>2019-08-12T08:08:32Z</time>
      </trkpt>
      <trkpt lat="39.3059860" lon="-3.7607850">
        <ele>809.3</ele>
        <time>2019-08-12T08:08:33Z</time>
      </trkpt>
      <trkpt lat="39.3060230" lon="-3.7607990">
        <ele>809.4</ele>
        <time>2019-08-12T08:08:34Z</time>
      </trkpt>
      <trkpt lat="39.3060600" lon="-3.7608120">
        <ele>809.5</ele>
        <time>2019-08-12T08:08:35Z</time>
      </trkpt>
      <trkpt lat="39.3060970" lon="-3.7608260">
        <ele>809.6</ele>
        <time>2019-08-12T08:08:36Z</time>
      </trkpt>
      <trkpt lat="39.3061330" lon="-3.7608400">
        <ele>809.7</ele>
        <time>2019-08-12T08:08:37Z</time>
      </trkpt>
      <trkpt lat="39.3061700" lon="-3.7608530">
        <ele>809.8</ele>
        <time>2019-08-12T08:08:38Z</time>
      </trkpt>
      <trkpt lat="39.3062070" lon="-3.7608670">
        <ele>809.9</ele>
        <time>2019-08-12T08:08:39Z</time>
      </trkpt>
      <trkpt lat="39.3062430" lon="-3.7608800">
        <ele>810.0</ele>
        <time>2019-08-12T08:08:40Z</time>
      </trkpt>
      <trkpt lat="39.3062800" lon="-3.7608940">
        <ele>810.1</ele>
        <time>2019-08-12T08:08:41Z</time>
      </trkpt>
      <trkpt lat="39.3063170" lon="-3.7609070">
        <ele>810.2</ele>
        <time>2019-08-12T08:08:42Z</time>
      </trkpt>
      <trkpt lat="39.3063540" lon="-3.7609210">
        <ele>810.3</ele>
        <time>2019-08-12T08:08:43Z</time>
      </trkpt>
      <trkpt lat="39.3063910" lon="-3.7609340">
        <ele>810.4</ele>
        <time>2019-08-12T08:08:44Z</time>
      </trkpt>
      <trkpt lat="39.3064290" lon="-3.7609470">
        <ele>810.6</ele>
        <time>2019-08-12T08:08:45Z</time>
      </trkpt>
      <trkpt lat="39.3064660" lon="-3.7609610">
        <ele>810.7</ele>
        <time>2019-08-12T08:08:46Z</time>
      </trkpt>
      <trkpt lat="39.3065030" lon="-3.7609740">
        <ele>810.8</ele>
        <time>2019-08-12T08:08:47Z</time>
      </trkpt>
      <trkpt lat="39.3065410" lon="-3.7609880">
        <ele>810.9</ele>
        <time>2019-08-12T08:08:48Z</time>
      </trkpt>
      <trkpt lat="39.3065780" lon="-3.7610010">
        <ele>811.0</ele>
        <time>2019-08-12T08:08:49Z</time>
      </trkpt>
      <trkpt lat="39.3066150" lon="-3.7610140">
        <ele>811.1</ele>
        <time>2019-08-12T08:08:50Z</time>
      </trkpt>
      <trkpt lat="39.3066520" lon="-3.7610280">
        <ele>811.3</ele>
        <time>2019-08-12T08:08:51Z</time>
      </trkpt>
      <trkpt lat="39.3066890" lon="-3.7610410">
        <ele>811.4</ele>
        <time>2019-08-12T08:08:52Z</time>
      </trkpt>
      <trkpt lat="39.3067260" lon="-3.7610540">
        <ele>811.5</ele>
        <time>2019-08-12T08:08:53Z</time>
      </trkpt>
      <trkpt lat="39.3067630" lon="-3.7610680">
        <ele>811.7</ele>
        <time>2019-08-12T08:08:54Z</time>
      </trkpt>
      <trkpt lat="39.3068000" lon="-3.7610810">
        <ele>811.8</ele>
        <time>2019-08-12T08:08:55Z</time>
      </trkpt>
      <trkpt lat="39.3068360" lon="-3.7610940">
        <ele>812.0</ele>
        <time>2019-08-12T08:08:56Z</time>
      </trkpt>
      <trkpt lat="39.3068730" lon="-3.7611070">
        <ele>812.2</ele>
        <time>2019-08-12T08:08:57Z</time>
      </trkpt>
      <trkpt lat="39.3069100" lon="-3.7611200">
        <ele>812.3</ele>
        <time>2019-08-12T08:08:58Z</time>
      </trkpt>
      <trkpt lat="39.3069470" lon="-3.7611330">
        <ele>812.5</ele>
        <time>2019-08-12T08:08:59Z</time>
      </trkpt>
      <trkpt lat="39.3069840" lon="-3.7611460">
        <ele>812.7</ele>
        <time>2019-08-12T08:09:00Z</time>
      </trkpt>
      <trkpt lat="39.3070220" lon="-3.7611590">
        <ele>812.8</ele>
        <time>2019-08-12T08:09:01Z</time>
      </trkpt>
      <trkpt lat="39.3070600" lon="-3.7611720">
        <ele>813.0</ele>
        <time>2019-08-12T08:09:02Z</time>
      </trkpt>
      <trkpt lat="39.3070980" lon="-3.7611850">
        <ele>813.2</ele>
        <time>2019-08-12T08:09:03Z</time>
      </trkpt>
      <trkpt lat="39.3071370" lon="-3.7611980">
        <ele>813.4</ele>
        <time>2019-08-12T08:09:04Z</time>
      </trkpt>
      <trkpt lat="39.3071760" lon="-3.7612100">
        <ele>813.6</ele>
        <time>2019-08-12T08:09:05Z</time>
      </trkpt>
      <trkpt lat="39.3072150" lon="-3.7612230">
        <ele>813.8</ele>
        <time>2019-08-12T08:09:06Z</time>
      </trkpt>
      <trkpt lat="39.3072540" lon="-3.7612360">
        <ele>814.0</ele>
        <time>2019-08-12T08:09:07Z</time>
      </trkpt>
      <trkpt lat="39.3072930" lon="-3.7612490">
        <ele>814.2</ele>
        <time>2019-08-12T08:09:08Z</time>
      </trkpt>
      <trkpt lat="39.3073320" lon="-3.7612630">
        <ele>814.4</ele>
        <time>2019-08-12T08:09:09Z</time>
      </trkpt>
      <trkpt lat="39.3073710" lon="-3.7612760">
        <ele>814.7</ele>
        <time>2019-08-12T08:09:10Z</time>
      </trkpt>
      <trkpt lat="39.3074100" lon="-3.7612900">
        <ele>814.9</ele>
        <time>2019-08-12T08:09:11Z</time>
      </trkpt>
      <trkpt lat="39.3074480" lon="-3.7613040">
        <ele>815.1</ele>
        <time>2019-08-12T08:09:12Z</time>
      </trkpt>
      <trkpt lat="39.3074870" lon="-3.7613180">
        <ele>815.3</ele>
        <time>2019-08-12T08:09:13Z</time>
      </trkpt>
      <trkpt lat="39.3075250" lon="-3.7613330">
        <ele>815.5</ele>
        <time>2019-08-12T08:09:14Z</time>
      </trkpt>
      <trkpt lat="39.3075630" lon="-3.7613470">
        <ele>815.8</ele>
        <time>2019-08-12T08:09:15Z</time>
      </trkpt>
      <trkpt lat="39.3076020" lon="-3.7613610">
        <ele>815.9</ele>
        <time>2019-08-12T08:09:16Z</time>
      </trkpt>
      <trkpt lat="39.3076400" lon="-3.7613760">
        <ele>816.1</ele>
        <time>2019-08-12T08:09:17Z</time>
      </trkpt>
      <trkpt lat="39.3076780" lon="-3.7613900">
        <ele>816.3</ele>
        <time>2019-08-12T08:09:18Z</time>
      </trkpt>
      <trkpt lat="39.3077160" lon="-3.7614040">
        <ele>816.4</ele>
        <time>2019-08-12T08:09:19Z</time>
      </trkpt>
      <trkpt lat="39.3077530" lon="-3.7614180">
        <ele>816.5</ele>
        <time>2019-08-12T08:09:20Z</time>
      </trkpt>
      <trkpt lat="39.3077910" lon="-3.7614310">
        <ele>816.6</ele>
        <time>2019-08-12T08:09:21Z</time>
      </trkpt>
      <trkpt lat="39.3078290" lon="-3.7614450">
        <ele>816.7</ele>
        <time>2019-08-12T08:09:22Z</time>
      </trkpt>
      <trkpt lat="39.3078670" lon="-3.7614580">
        <ele>816.8</ele>
        <time>2019-08-12T08:09:23Z</time>
      </trkpt>
      <trkpt lat="39.3079050" lon="-3.7614720">
        <ele>816.9</ele>
        <time>2019-08-12T08:09:24Z</time>
      </trkpt>
      <trkpt lat="39.3079430" lon="-3.7614850">
        <ele>816.9</ele>
        <time>2019-08-12T08:09:25Z</time>
      </trkpt>
      <trkpt lat="39.3079810" lon="-3.7614980">
        <ele>817.0</ele>
        <time>2019-08-12T08:09:26Z</time>
      </trkpt>
      <trkpt lat="39.3080190" lon="-3.7615120">
        <ele>817.0</ele>
        <time>2019-08-12T08:09:27Z</time>
      </trkpt>
      <trkpt lat="39.3080580" lon="-3.7615260">
        <ele>817.0</ele>
        <time>2019-08-12T08:09:28Z</time>
      </trkpt>
      <trkpt lat="39.3080960" lon="-3.7615390">
        <ele>817.0</ele>
        <time>2019-08-12T08:09:29Z</time>
      </trkpt>
      <trkpt lat="39.3081350" lon="-3.7615540">
        <ele>817.0</ele>
        <time>2019-08-12T08:09:30Z</time>
      </trkpt>
      <trkpt lat="39.3081740" lon="-3.7615680">
        <ele>817.1</ele>
        <time>2019-08-12T08:09:31Z</time>
      </trkpt>
      <trkpt lat="39.3082130" lon="-3.7615830">
        <ele>817.1</ele>
        <time>2019-08-12T08:09:32Z</time>
      </trkpt>
      <trkpt lat="39.3082510" lon="-3.7615970">
        <ele>817.1</ele>
        <time>2019-08-12T08:09:33Z</time>
      </trkpt>
      <trkpt lat="39.3082890" lon="-3.7616120">
        <ele>817.1</ele>
        <time>2019-08-12T08:09:34Z</time>
      </trkpt>
      <trkpt lat="39.3083260" lon="-3.7616260">
        <ele>817.1</ele>
        <time>2019-08-12T08:09:35Z</time>
      </trkpt>
      <trkpt lat="39.3083610" lon="-3.7616400">
        <ele>817.1</ele>
        <time>2019-08-12T08:09:36Z</time>
      </trkpt>
      <trkpt lat="39.3083940" lon="-3.7616520">
        <ele>817.1</ele>
        <time>2019-08-12T08:09:37Z</time>
      </trkpt>
      <trkpt lat="39.3084240" lon="-3.7616630">
        <ele>817.1</ele>
        <time>2019-08-12T08:09:38Z</time>
      </trkpt>
      <trkpt lat="39.3084510" lon="-3.7616720">
        <ele>817.1</ele>
        <time>2019-08-12T08:09:39Z</time>
      </trkpt>
      <trkpt lat="39.3084760" lon="-3.7616800">
        <ele>817.1</ele>
        <time>2019-08-12T08:09:40Z</time>
      </trkpt>
      <trkpt lat="39.3085010" lon="-3.7616880">
        <ele>817.1</ele>
        <time>2019-08-12T08:09:41Z</time>
      </trkpt>
      <trkpt lat="39.3085280" lon="-3.7616980">
        <ele>817.1</ele>
        <time>2019-08-12T08:09:42Z</time>
      </trkpt>
      <trkpt lat="39.3085600" lon="-3.7617100">
        <ele>817.1</ele>
        <time>2019-08-12T08:09:43Z</time>
      </trkpt>
      <trkpt lat="39.3085970" lon="-3.7617260">
        <ele>817.0</ele>
        <time>2019-08-12T08:09:44Z</time>
      </trkpt>
      <trkpt lat="39.3086390" lon="-3.7617450">
        <ele>817.0</ele>
        <time>2019-08-12T08:09:45Z</time>
      </trkpt>
      <trkpt lat="39.3086820" lon="-3.7617650">
        <ele>817.0</ele>
        <time>2019-08-12T08:09:46Z</time>
      </trkpt>
      <trkpt lat="39.3087260" lon="-3.7617840">
        <ele>817.0</ele>
        <time>2019-08-12T08:09:47Z</time>
      </trkpt>
      <trkpt lat="39.3087690" lon="-3.7618020">
        <ele>817.0</ele>
        <time>2019-08-12T08:09:48Z</time>
      </trkpt>
      <trkpt lat="39.3088380" lon="-3.7618280">
        <ele>817.0</ele>
        <time>2019-08-12T08:09:49Z</time>
      </trkpt>
      <trkpt lat="39.3088650" lon="-3.7618380">
        <ele>817.0</ele>
        <time>2019-08-12T08:09:50Z</time>
      </trkpt>
      <trkpt lat="39.3088920" lon="-3.7618480">
        <ele>817.0</ele>
        <time>2019-08-12T08:09:51Z</time>
      </trkpt>
      <trkpt lat="39.3089330" lon="-3.7618630">
        <ele>817.0</ele>
        <time>2019-08-12T08:09:52Z</time>
      </trkpt>
      <trkpt lat="39.3089740" lon="-3.7618780">
        <ele>817.0</ele>
        <time>2019-08-12T08:09:53Z</time>
      </trkpt>
      <trkpt lat="39.3090150" lon="-3.7618940">
        <ele>817.0</ele>
        <time>2019-08-12T08:09:54Z</time>
      </trkpt>
      <trkpt lat="39.3090560" lon="-3.7619090">
        <ele>817.0</ele>
        <time>2019-08-12T08:09:55Z</time>
      </trkpt>
      <trkpt lat="39.3090960" lon="-3.7619240">
        <ele>817.0</ele>
        <time>2019-08-12T08:09:56Z</time>
      </trkpt>
      <trkpt lat="39.3091350" lon="-3.7619380">
        <ele>817.1</ele>
        <time>2019-08-12T08:09:57Z</time>
      </trkpt>
      <trkpt lat="39.3091720" lon="-3.7619510">
        <ele>817.1</ele>
        <time>2019-08-12T08:09:58Z</time>
      </trkpt>
      <trkpt lat="39.3092090" lon="-3.7619650">
        <ele>817.1</ele>
        <time>2019-08-12T08:09:59Z</time>
      </trkpt>
      <trkpt lat="39.3092450" lon="-3.7619780">
        <ele>817.1</ele>
        <time>2019-08-12T08:10:00Z</time>
      </trkpt>
      <trkpt lat="39.3092820" lon="-3.7619910">
        <ele>817.1</ele>
        <time>2019-08-12T08:10:01Z</time>
      </trkpt>
      <trkpt lat="39.3093180" lon="-3.7620050">
        <ele>817.1</ele>
        <time>2019-08-12T08:10:02Z</time>
      </trkpt>
      <trkpt lat="39.3093550" lon="-3.7620200">
        <ele>817.1</ele>
        <time>2019-08-12T08:10:03Z</time>
      </trkpt>
      <trkpt lat="39.3093940" lon="-3.7620350">
        <ele>817.2</ele>
        <time>2019-08-12T08:10:04Z</time>
      </trkpt>
      <trkpt lat="39.3094330" lon="-3.7620510">
        <ele>817.2</ele>
        <time>2019-08-12T08:10:05Z</time>
      </trkpt>
      <trkpt lat="39.3094730" lon="-3.7620670">
        <ele>817.2</ele>
        <time>2019-08-12T08:10:06Z</time>
      </trkpt>
      <trkpt lat="39.3095150" lon="-3.7620850">
        <ele>817.2</ele>
        <time>2019-08-12T08:10:07Z</time>
      </trkpt>
      <trkpt lat="39.3095580" lon="-3.7621020">
        <ele>817.2</ele>
        <time>2019-08-12T08:10:08Z</time>
      </trkpt>
      <trkpt lat="39.3096020" lon="-3.7621200">
        <ele>817.3</ele>
        <time>2019-08-12T08:10:09Z</time>
      </trkpt>
      <trkpt lat="39.3096450" lon="-3.7621370">
        <ele>817.3</ele>
        <time>2019-08-12T08:10:10Z</time>
      </trkpt>
      <trkpt lat="39.3096870" lon="-3.7621530">
        <ele>817.3</ele>
        <time>2019-08-12T08:10:11Z</time>
      </trkpt>
      <trkpt lat="39.3097280" lon="-3.7621690">
        <ele>817.4</ele>
        <time>2019-08-12T08:10:12Z</time>
      </trkpt>
      <trkpt lat="39.3097690" lon="-3.7621830">
        <ele>817.4</ele>
        <time>2019-08-12T08:10:13Z</time>
      </trkpt>
      <trkpt lat="39.3098080" lon="-3.7621970">
        <ele>817.5</ele>
        <time>2019-08-12T08:10:14Z</time>
      </trkpt>
      <trkpt lat="39.3098480" lon="-3.7622110">
        <ele>817.5</ele>
        <time>2019-08-12T08:10:15Z</time>
      </trkpt>
      <trkpt lat="39.3098880" lon="-3.7622240">
        <ele>817.6</ele>
        <time>2019-08-12T08:10:16Z</time>
      </trkpt>
      <trkpt lat="39.3099270" lon="-3.7622380">
        <ele>817.7</ele>
        <time>2019-08-12T08:10:17Z</time>
      </trkpt>
      <trkpt lat="39.3099650" lon="-3.7622510">
        <ele>817.7</ele>
        <time>2019-08-12T08:10:18Z</time>
      </trkpt>
      <trkpt lat="39.3100010" lon="-3.7622650">
        <ele>817.8</ele>
        <time>2019-08-12T08:10:19Z</time>
      </trkpt>
      <trkpt lat="39.3100380" lon="-3.7622790">
        <ele>817.9</ele>
        <time>2019-08-12T08:10:20Z</time>
      </trkpt>
      <trkpt lat="39.3100800" lon="-3.7622950">
        <ele>818.0</ele>
        <time>2019-08-12T08:10:21Z</time>
      </trkpt>
      <trkpt lat="39.3101250" lon="-3.7623120">
        <ele>818.1</ele>
        <time>2019-08-12T08:10:22Z</time>
      </trkpt>
      <trkpt lat="39.3101720" lon="-3.7623300">
        <ele>818.2</ele>
        <time>2019-08-12T08:10:23Z</time>
      </trkpt>
      <trkpt lat="39.3102190" lon="-3.7623470">
        <ele>818.2</ele>
        <time>2019-08-12T08:10:24Z</time>
      </trkpt>
      <trkpt lat="39.3102660" lon="-3.7623640">
        <ele>818.3</ele>
        <time>2019-08-12T08:10:25Z</time>
      </trkpt>
      <trkpt lat="39.3103120" lon="-3.7623810">
        <ele>818.4</ele>
        <time>2019-08-12T08:10:26Z</time>
      </trkpt>
      <trkpt lat="39.3103570" lon="-3.7623970">
        <ele>818.5</ele>
        <time>2019-08-12T08:10:27Z</time>
      </trkpt>
      <trkpt lat="39.3104020" lon="-3.7624130">
        <ele>818.6</ele>
        <time>2019-08-12T08:10:28Z</time>
      </trkpt>
      <trkpt lat="39.3104460" lon="-3.7624290">
        <ele>818.7</ele>
        <time>2019-08-12T08:10:29Z</time>
      </trkpt>
      <trkpt lat="39.3104890" lon="-3.7624440">
        <ele>818.7</ele>
        <time>2019-08-12T08:10:30Z</time>
      </trkpt>
      <trkpt lat="39.3105320" lon="-3.7624590">
        <ele>818.8</ele>
        <time>2019-08-12T08:10:31Z</time>
      </trkpt>
      <trkpt lat="39.3105750" lon="-3.7624750">
        <ele>818.9</ele>
        <time>2019-08-12T08:10:32Z</time>
      </trkpt>
      <trkpt lat="39.3106170" lon="-3.7624900">
        <ele>819.0</ele>
        <time>2019-08-12T08:10:33Z</time>
      </trkpt>
      <trkpt lat="39.3106600" lon="-3.7625060">
        <ele>819.1</ele>
        <time>2019-08-12T08:10:34Z</time>
      </trkpt>
      <trkpt lat="39.3107020" lon="-3.7625210">
        <ele>819.2</ele>
        <time>2019-08-12T08:10:35Z</time>
      </trkpt>
      <trkpt lat="39.3107450" lon="-3.7625370">
        <ele>819.2</ele>
        <time>2019-08-12T08:10:36Z</time>
      </trkpt>
      <trkpt lat="39.3107870" lon="-3.7625520">
        <ele>819.3</ele>
        <time>2019-08-12T08:10:37Z</time>
      </trkpt>
      <trkpt lat="39.3108300" lon="-3.7625680">
        <ele>819.4</ele>
        <time>2019-08-12T08:10:38Z</time>
      </trkpt>
      <trkpt lat="39.3108720" lon="-3.7625840">
        <ele>819.5</ele>
        <time>2019-08-12T08:10:39Z</time>
      </trkpt>
      <trkpt lat="39.3109150" lon="-3.7626000">
        <ele>819.6</ele>
        <time>2019-08-12T08:10:40Z</time>
      </trkpt>
      <trkpt lat="39.3109580" lon="-3.7626160">
        <ele>819.7</ele>
        <time>2019-08-12T08:10:41Z</time>
      </trkpt>
      <trkpt lat="39.3110010" lon="-3.7626330">
        <ele>819.8</ele>
        <time>2019-08-12T08:10:42Z</time>
      </trkpt>
      <trkpt lat="39.3110440" lon="-3.7626490">
        <ele>819.9</ele>
        <time>2019-08-12T08:10:43Z</time>
      </trkpt>
      <trkpt lat="39.3110880" lon="-3.7626660">
        <ele>820.0</ele>
        <time>2019-08-12T08:10:44Z</time>
      </trkpt>
      <trkpt lat="39.3111310" lon="-3.7626820">
        <ele>820.1</ele>
        <time>2019-08-12T08:10:45Z</time>
      </trkpt>
      <trkpt lat="39.3111750" lon="-3.7626990">
        <ele>820.2</ele>
        <time>2019-08-12T08:10:46Z</time>
      </trkpt>
      <trkpt lat="39.3112190" lon="-3.7627150">
        <ele>820.3</ele>
        <time>2019-08-12T08:10:47Z</time>
      </trkpt>
      <trkpt lat="39.3112640" lon="-3.7627320">
        <ele>820.4</ele>
        <time>2019-08-12T08:10:48Z</time>
      </trkpt>
      <trkpt lat="39.3113080" lon="-3.7627490">
        <ele>820.5</ele>
        <time>2019-08-12T08:10:49Z</time>
      </trkpt>
      <trkpt lat="39.3113520" lon="-3.7627650">
        <ele>820.6</ele>
        <time>2019-08-12T08:10:50Z</time>
      </trkpt>
      <trkpt lat="39.3113970" lon="-3.7627810">
        <ele>820.6</ele>
        <time>2019-08-12T08:10:51Z</time>
      </trkpt>
      <trkpt lat="39.3114410" lon="-3.7627980">
        <ele>820.7</ele>
        <time>2019-08-12T08:10:52Z</time>
      </trkpt>
      <trkpt lat="39.3114860" lon="-3.7628140">
        <ele>820.8</ele>
        <time>2019-08-12T08:10:53Z</time>
      </trkpt>
      <trkpt lat="39.3115300" lon="-3.7628300">
        <ele>820.9</ele>
        <time>2019-08-12T08:10:54Z</time>
      </trkpt>
      <trkpt lat="39.3115750" lon="-3.7628460">
        <ele>821.0</ele>
        <time>2019-08-12T08:10:55Z</time>
      </trkpt>
      <trkpt lat="39.3116190" lon="-3.7628610">
        <ele>821.0</ele>
        <time>2019-08-12T08:10:56Z</time>
      </trkpt>
      <trkpt lat="39.3116630" lon="-3.7628770">
        <ele>821.1</ele>
        <time>2019-08-12T08:10:57Z</time>
      </trkpt>
      <trkpt lat="39.3117080" lon="-3.7628930">
        <ele>821.1</ele>
        <time>2019-08-12T08:10:58Z</time>
      </trkpt>
      <trkpt lat="39.3117520" lon="-3.7629080">
        <ele>821.2</ele>
        <time>2019-08-12T08:10:59Z</time>
      </trkpt>
      <trkpt lat="39.3117960" lon="-3.7629240">
        <ele>821.2</ele>
        <time>2019-08-12T08:11:00Z</time>
      </trkpt>
      <trkpt lat="39.3118410" lon="-3.7629390">
        <ele>821.2</ele>
        <time>2019-08-12T08:11:01Z</time>
      </trkpt>
      <trkpt lat="39.3118850" lon="-3.7629550">
        <ele>821.3</ele>
        <time>2019-08-12T08:11:02Z</time>
      </trkpt>
      <trkpt lat="39.3119290" lon="-3.7629700">
        <ele>821.3</ele>
        <time>2019-08-12T08:11:03Z</time>
      </trkpt>
      <trkpt lat="39.3119740" lon="-3.7629860">
        <ele>821.3</ele>
        <time>2019-08-12T08:11:04Z</time>
      </trkpt>
      <trkpt lat="39.3120180" lon="-3.7630020">
        <ele>821.4</ele>
        <time>2019-08-12T08:11:05Z</time>
      </trkpt>
      <trkpt lat="39.3120630" lon="-3.7630180">
        <ele>821.4</ele>
        <time>2019-08-12T08:11:06Z</time>
      </trkpt>
      <trkpt lat="39.3121070" lon="-3.7630340">
        <ele>821.5</ele>
        <time>2019-08-12T08:11:07Z</time>
      </trkpt>
      <trkpt lat="39.3121520" lon="-3.7630500">
        <ele>821.5</ele>
        <time>2019-08-12T08:11:08Z</time>
      </trkpt>
      <trkpt lat="39.3121970" lon="-3.7630660">
        <ele>821.6</ele>
        <time>2019-08-12T08:11:09Z</time>
      </trkpt>
      <trkpt lat="39.3122410" lon="-3.7630830">
        <ele>821.6</ele>
        <time>2019-08-12T08:11:10Z</time>
      </trkpt>
      <trkpt lat="39.3122860" lon="-3.7631000">
        <ele>821.7</ele>
        <time>2019-08-12T08:11:11Z</time>
      </trkpt>
      <trkpt lat="39.3123310" lon="-3.7631170">
        <ele>821.7</ele>
        <time>2019-08-12T08:11:12Z</time>
      </trkpt>
      <trkpt lat="39.3123760" lon="-3.7631340">
        <ele>821.8</ele>
        <time>2019-08-12T08:11:13Z</time>
      </trkpt>
      <trkpt lat="39.3124210" lon="-3.7631520">
        <ele>821.9</ele>
        <time>2019-08-12T08:11:14Z</time>
      </trkpt>
      <trkpt lat="39.3124660" lon="-3.7631710">
        <ele>821.9</ele>
        <time>2019-08-12T08:11:15Z</time>
      </trkpt>
      <trkpt lat="39.3125110" lon="-3.7631900">
        <ele>822.0</ele>
        <time>2019-08-12T08:11:16Z</time>
      </trkpt>
      <trkpt lat="39.3125560" lon="-3.7632090">
        <ele>822.1</ele>
        <time>2019-08-12T08:11:17Z</time>
      </trkpt>
      <trkpt lat="39.3126010" lon="-3.7632290">
        <ele>822.2</ele>
        <time>2019-08-12T08:11:18Z</time>
      </trkpt>
      <trkpt lat="39.3126470" lon="-3.7632500">
        <ele>822.3</ele>
        <time>2019-08-12T08:11:19Z</time>
      </trkpt>
      <trkpt lat="39.3126920" lon="-3.7632720">
        <ele>822.4</ele>
        <time>2019-08-12T08:11:20Z</time>
      </trkpt>
      <trkpt lat="39.3127370" lon="-3.7632950">
        <ele>822.5</ele>
        <time>2019-08-12T08:11:21Z</time>
      </trkpt>
      <trkpt lat="39.3127820" lon="-3.7633190">
        <ele>822.7</ele>
        <time>2019-08-12T08:11:22Z</time>
      </trkpt>
      <trkpt lat="39.3128280" lon="-3.7633430">
        <ele>822.8</ele>
        <time>2019-08-12T08:11:23Z</time>
      </trkpt>
      <trkpt lat="39.3128730" lon="-3.7633680">
        <ele>822.9</ele>
        <time>2019-08-12T08:11:24Z</time>
      </trkpt>
      <trkpt lat="39.3129180" lon="-3.7633930">
        <ele>823.0</ele>
        <time>2019-08-12T08:11:25Z</time>
      </trkpt>
      <trkpt lat="39.3129640" lon="-3.7634190">
        <ele>823.1</ele>
        <time>2019-08-12T08:11:26Z</time>
      </trkpt>
      <trkpt lat="39.3130090" lon="-3.7634450">
        <ele>823.1</ele>
        <time>2019-08-12T08:11:27Z</time>
      </trkpt>
      <trkpt lat="39.3130550" lon="-3.7634720">
        <ele>823.2</ele>
        <time>2019-08-12T08:11:28Z</time>
      </trkpt>
      <trkpt lat="39.3131000" lon="-3.7634990">
        <ele>823.3</ele>
        <time>2019-08-12T08:11:29Z</time>
      </trkpt>
      <trkpt lat="39.3131460" lon="-3.7635260">
        <ele>823.3</ele>
        <time>2019-08-12T08:11:30Z</time>
      </trkpt>
      <trkpt lat="39.3131920" lon="-3.7635520">
        <ele>823.4</ele>
        <time>2019-08-12T08:11:31Z</time>
      </trkpt>
      <trkpt lat="39.3132370" lon="-3.7635790">
        <ele>823.4</ele>
        <time>2019-08-12T08:11:32Z</time>
      </trkpt>
      <trkpt lat="39.3132830" lon="-3.7636060">
        <ele>823.5</ele>
        <time>2019-08-12T08:11:33Z</time>
      </trkpt>
      <trkpt lat="39.3133290" lon="-3.7636340">
        <ele>823.5</ele>
        <time>2019-08-12T08:11:34Z</time>
      </trkpt>
      <trkpt lat="39.3133750" lon="-3.7636610">
        <ele>823.6</ele>
        <time>2019-08-12T08:11:35Z</time>
      </trkpt>
      <trkpt lat="39.3134200" lon="-3.7636880">
        <ele>823.6</ele>
        <time>2019-08-12T08:11:36Z</time>
      </trkpt>
      <trkpt lat="39.3134660" lon="-3.7637150">
        <ele>823.6</ele>
        <time>2019-08-12T08:11:37Z</time>
      </trkpt>
      <trkpt lat="39.3135110" lon="-3.7637420">
        <ele>823.6</ele>
        <time>2019-08-12T08:11:38Z</time>
      </trkpt>
      <trkpt lat="39.3135570" lon="-3.7637690">
        <ele>823.6</ele>
        <time>2019-08-12T08:11:39Z</time>
      </trkpt>
      <trkpt lat="39.3136020" lon="-3.7637960">
        <ele>823.6</ele>
        <time>2019-08-12T08:11:40Z</time>
      </trkpt>
      <trkpt lat="39.3136470" lon="-3.7638230">
        <ele>823.6</ele>
        <time>2019-08-12T08:11:41Z</time>
      </trkpt>
      <trkpt lat="39.3136920" lon="-3.7638500">
        <ele>823.7</ele>
        <time>2019-08-12T08:11:42Z</time>
      </trkpt>
      <trkpt lat="39.3137360" lon="-3.7638760">
        <ele>823.7</ele>
        <time>2019-08-12T08:11:43Z</time>
      </trkpt>
      <trkpt lat="39.3137810" lon="-3.7639030">
        <ele>823.7</ele>
        <time>2019-08-12T08:11:44Z</time>
      </trkpt>
      <trkpt lat="39.3138250" lon="-3.7639290">
        <ele>823.7</ele>
        <time>2019-08-12T08:11:45Z</time>
      </trkpt>
      <trkpt lat="39.3138690" lon="-3.7639560">
        <ele>823.8</ele>
        <time>2019-08-12T08:11:46Z</time>
      </trkpt>
      <trkpt lat="39.3139130" lon="-3.7639820">
        <ele>823.8</ele>
        <time>2019-08-12T08:11:47Z</time>
      </trkpt>
      <trkpt lat="39.3139560" lon="-3.7640080">
        <ele>823.9</ele>
        <time>2019-08-12T08:11:48Z</time>
      </trkpt>
      <trkpt lat="39.3139990" lon="-3.7640340">
        <ele>823.9</ele>
        <time>2019-08-12T08:11:49Z</time>
      </trkpt>
      <trkpt lat="39.3140420" lon="-3.7640600">
        <ele>824.0</ele>
        <time>2019-08-12T08:11:50Z</time>
      </trkpt>
      <trkpt lat="39.3140850" lon="-3.7640860">
        <ele>824.1</ele>
        <time>2019-08-12T08:11:51Z</time>
      </trkpt>
      <trkpt lat="39.3141270" lon="-3.7641110">
        <ele>824.2</ele>
        <time>2019-08-12T08:11:52Z</time>
      </trkpt>
      <trkpt lat="39.3141700" lon="-3.7641370">
        <ele>824.3</ele>
        <time>2019-08-12T08:11:53Z</time>
      </trkpt>
      <trkpt lat="39.3142120" lon="-3.7641620">
        <ele>824.4</ele>
        <time>2019-08-12T08:11:54Z</time>
      </trkpt>
      <trkpt lat="39.3142550" lon="-3.7641880">
        <ele>824.5</ele>
        <time>2019-08-12T08:11:55Z</time>
      </trkpt>
      <trkpt lat="39.3142970" lon="-3.7642140">
        <ele>824.6</ele>
        <time>2019-08-12T08:11:56Z</time>
      </trkpt>
      <trkpt lat="39.3143400" lon="-3.7642390">
        <ele>824.7</ele>
        <time>2019-08-12T08:11:57Z</time>
      </trkpt>
      <trkpt lat="39.3143830" lon="-3.7642650">
        <ele>824.8</ele>
        <time>2019-08-12T08:11:58Z</time>
      </trkpt>
      <trkpt lat="39.3144260" lon="-3.7642910">
        <ele>824.9</ele>
        <time>2019-08-12T08:11:59Z</time>
      </trkpt>
      <trkpt lat="39.3144690" lon="-3.7643170">
        <ele>825.0</ele>
        <time>2019-08-12T08:12:00Z</time>
      </trkpt>
      <trkpt lat="39.3145120" lon="-3.7643430">
        <ele>825.2</ele>
        <time>2019-08-12T08:12:01Z</time>
      </trkpt>
      <trkpt lat="39.3145550" lon="-3.7643690">
        <ele>825.3</ele>
        <time>2019-08-12T08:12:02Z</time>
      </trkpt>
      <trkpt lat="39.3145980" lon="-3.7643950">
        <ele>825.4</ele>
        <time>2019-08-12T08:12:03Z</time>
      </trkpt>
      <trkpt lat="39.3146420" lon="-3.7644210">
        <ele>825.6</ele>
        <time>2019-08-12T08:12:04Z</time>
      </trkpt>
      <trkpt lat="39.3146850" lon="-3.7644470">
        <ele>825.7</ele>
        <time>2019-08-12T08:12:05Z</time>
      </trkpt>
      <trkpt lat="39.3147280" lon="-3.7644730">
        <ele>825.9</ele>
        <time>2019-08-12T08:12:06Z</time>
      </trkpt>
      <trkpt lat="39.3147700" lon="-3.7644990">
        <ele>826.0</ele>
        <time>2019-08-12T08:12:07Z</time>
      </trkpt>
      <trkpt lat="39.3148130" lon="-3.7645250">
        <ele>826.2</ele>
        <time>2019-08-12T08:12:08Z</time>
      </trkpt>
      <trkpt lat="39.3148560" lon="-3.7645510">
        <ele>826.3</ele>
        <time>2019-08-12T08:12:09Z</time>
      </trkpt>
      <trkpt lat="39.3148980" lon="-3.7645780">
        <ele>826.5</ele>
        <time>2019-08-12T08:12:10Z</time>
      </trkpt>
      <trkpt lat="39.3149400" lon="-3.7646040">
        <ele>826.6</ele>
        <time>2019-08-12T08:12:11Z</time>
      </trkpt>
      <trkpt lat="39.3149820" lon="-3.7646290">
        <ele>826.7</ele>
        <time>2019-08-12T08:12:12Z</time>
      </trkpt>
      <trkpt lat="39.3150240" lon="-3.7646550">
        <ele>826.8</ele>
        <time>2019-08-12T08:12:13Z</time>
      </trkpt>
      <trkpt lat="39.3150660" lon="-3.7646810">
        <ele>827.0</ele>
        <time>2019-08-12T08:12:14Z</time>
      </trkpt>
      <trkpt lat="39.3151070" lon="-3.7647070">
        <ele>827.1</ele>
        <time>2019-08-12T08:12:15Z</time>
      </trkpt>
      <trkpt lat="39.3151490" lon="-3.7647320">
        <ele>827.2</ele>
        <time>2019-08-12T08:12:16Z</time>
      </trkpt>
      <trkpt lat="39.3151900" lon="-3.7647580">
        <ele>827.3</ele>
        <time>2019-08-12T08:12:17Z</time>
      </trkpt>
      <trkpt lat="39.3152310" lon="-3.7647830">
        <ele>827.4</ele>
        <time>2019-08-12T08:12:18Z</time>
      </trkpt>
      <trkpt lat="39.3152720" lon="-3.7648080">
        <ele>827.4</ele>
        <time>2019-08-12T08:12:19Z</time>
      </trkpt>
      <trkpt lat="39.3153140" lon="-3.7648330">
        <ele>827.5</ele>
        <time>2019-08-12T08:12:20Z</time>
      </trkpt>
      <trkpt lat="39.3153550" lon="-3.7648580">
        <ele>827.6</ele>
        <time>2019-08-12T08:12:21Z</time>
      </trkpt>
      <trkpt lat="39.3153970" lon="-3.7648820">
        <ele>827.7</ele>
        <time>2019-08-12T08:12:22Z</time>
      </trkpt>
      <trkpt lat="39.3154390" lon="-3.7649060">
        <ele>827.8</ele>
        <time>2019-08-12T08:12:23Z</time>
      </trkpt>
      <trkpt lat="39.3154820" lon="-3.7649300">
        <ele>827.9</ele>
        <time>2019-08-12T08:12:24Z</time>
      </trkpt>
      <trkpt lat="39.3155250" lon="-3.7649530">
        <ele>827.9</ele>
        <time>2019-08-12T08:12:25Z</time>
      </trkpt>
      <trkpt lat="39.3155680" lon="-3.7649760">
        <ele>828.0</ele>
        <time>2019-08-12T08:12:26Z</time>
      </trkpt>
      <trkpt lat="39.3156120" lon="-3.7649970">
        <ele>828.0</ele>
        <time>2019-08-12T08:12:27Z</time>
      </trkpt>
      <trkpt lat="39.3156560" lon="-3.7650180">
        <ele>828.1</ele>
        <time>2019-08-12T08:12:28Z</time>
      </trkpt>
      <trkpt lat="39.3156990" lon="-3.7650360">
        <ele>828.1</ele>
        <time>2019-08-12T08:12:29Z</time>
      </trkpt>
      <trkpt lat="39.3157430" lon="-3.7650530">
        <ele>828.2</ele>
        <time>2019-08-12T08:12:30Z</time>
      </trkpt>
      <trkpt lat="39.3157870" lon="-3.7650680">
        <ele>828.2</ele>
        <time>2019-08-12T08:12:31Z</time>
      </trkpt>
      <trkpt lat="39.3158310" lon="-3.7650820">
        <ele>828.2</ele>
        <time>2019-08-12T08:12:32Z</time>
      </trkpt>
      <trkpt lat="39.3158750" lon="-3.7650950">
        <ele>828.3</ele>
        <time>2019-08-12T08:12:33Z</time>
      </trkpt>
      <trkpt lat="39.3159190" lon="-3.7651090">
        <ele>828.3</ele>
        <time>2019-08-12T08:12:34Z</time>
      </trkpt>
      <trkpt lat="39.3159630" lon="-3.7651220">
        <ele>828.3</ele>
        <time>2019-08-12T08:12:35Z</time>
      </trkpt>
      <trkpt lat="39.3160080" lon="-3.7651360">
        <ele>828.3</ele>
        <time>2019-08-12T08:12:36Z</time>
      </trkpt>
      <trkpt lat="39.3160530" lon="-3.7651510">
        <ele>828.4</ele>
        <time>2019-08-12T08:12:37Z</time>
      </trkpt>
      <trkpt lat="39.3160980" lon="-3.7651650">
        <ele>828.4</ele>
        <time>2019-08-12T08:12:38Z</time>
      </trkpt>
      <trkpt lat="39.3161430" lon="-3.7651790">
        <ele>828.5</ele>
        <time>2019-08-12T08:12:39Z</time>
      </trkpt>
      <trkpt lat="39.3161890" lon="-3.7651940">
        <ele>828.5</ele>
        <time>2019-08-12T08:12:40Z</time>
      </trkpt>
      <trkpt lat="39.3162350" lon="-3.7652090">
        <ele>828.5</ele>
        <time>2019-08-12T08:12:41Z</time>
      </trkpt>
      <trkpt lat="39.3162810" lon="-3.7652230">
        <ele>828.6</ele>
        <time>2019-08-12T08:12:42Z</time>
      </trkpt>
      <trkpt lat="39.3163270" lon="-3.7652380">
        <ele>828.6</ele>
        <time>2019-08-12T08:12:43Z</time>
      </trkpt>
      <trkpt lat="39.3163730" lon="-3.7652520">
        <ele>828.6</ele>
        <time>2019-08-12T08:12:44Z</time>
      </trkpt>
      <trkpt lat="39.3164190" lon="-3.7652670">
        <ele>828.7</ele>
        <time>2019-08-12T08:12:45Z</time>
      </trkpt>
      <trkpt lat="39.3164650" lon="-3.7652810">
        <ele>828.7</ele>
        <time>2019-08-12T08:12:46Z</time>
      </trkpt>
      <trkpt lat="39.3165120" lon="-3.7652950">
        <ele>828.7</ele>
        <time>2019-08-12T08:12:47Z</time>
      </trkpt>
      <trkpt lat="39.3165580" lon="-3.7653090">
        <ele>828.8</ele>
        <time>2019-08-12T08:12:48Z</time>
      </trkpt>
      <trkpt lat="39.3166050" lon="-3.7653230">
        <ele>828.8</ele>
        <time>2019-08-12T08:12:49Z</time>
      </trkpt>
      <trkpt lat="39.3166510" lon="-3.7653370">
        <ele>828.8</ele>
        <time>2019-08-12T08:12:50Z</time>
      </trkpt>
      <trkpt lat="39.3166970" lon="-3.7653510">
        <ele>828.9</ele>
        <time>2019-08-12T08:12:51Z</time>
      </trkpt>
      <trkpt lat="39.3167440" lon="-3.7653650">
        <ele>828.9</ele>
        <time>2019-08-12T08:12:52Z</time>
      </trkpt>
      <trkpt lat="39.3167900" lon="-3.7653790">
        <ele>828.9</ele>
        <time>2019-08-12T08:12:53Z</time>
      </trkpt>
      <trkpt lat="39.3168370" lon="-3.7653920">
        <ele>829.0</ele>
        <time>2019-08-12T08:12:54Z</time>
      </trkpt>
      <trkpt lat="39.3168830" lon="-3.7654060">
        <ele>829.1</ele>
        <time>2019-08-12T08:12:55Z</time>
      </trkpt>
      <trkpt lat="39.3169290" lon="-3.7654200">
        <ele>829.2</ele>
        <time>2019-08-12T08:12:56Z</time>
      </trkpt>
      <trkpt lat="39.3169750" lon="-3.7654330">
        <ele>829.2</ele>
        <time>2019-08-12T08:12:57Z</time>
      </trkpt>
      <trkpt lat="39.3170210" lon="-3.7654470">
        <ele>829.3</ele>
        <time>2019-08-12T08:12:58Z</time>
      </trkpt>
      <trkpt lat="39.3170670" lon="-3.7654600">
        <ele>829.4</ele>
        <time>2019-08-12T08:12:59Z</time>
      </trkpt>
      <trkpt lat="39.3171130" lon="-3.7654740">
        <ele>829.5</ele>
        <time>2019-08-12T08:13:00Z</time>
      </trkpt>
      <trkpt lat="39.3171580" lon="-3.7654870">
        <ele>829.6</ele>
        <time>2019-08-12T08:13:01Z</time>
      </trkpt>
      <trkpt lat="39.3172040" lon="-3.7655000">
        <ele>829.7</ele>
        <time>2019-08-12T08:13:02Z</time>
      </trkpt>
      <trkpt lat="39.3172490" lon="-3.7655130">
        <ele>829.7</ele>
        <time>2019-08-12T08:13:03Z</time>
      </trkpt>
      <trkpt lat="39.3172940" lon="-3.7655260">
        <ele>829.8</ele>
        <time>2019-08-12T08:13:04Z</time>
      </trkpt>
      <trkpt lat="39.3173390" lon="-3.7655390">
        <ele>829.9</ele>
        <time>2019-08-12T08:13:05Z</time>
      </trkpt>
      <trkpt lat="39.3173850" lon="-3.7655530">
        <ele>830.0</ele>
        <time>2019-08-12T08:13:06Z</time>
      </trkpt>
      <trkpt lat="39.3174300" lon="-3.7655660">
        <ele>830.1</ele>
        <time>2019-08-12T08:13:07Z</time>
      </trkpt>
      <trkpt lat="39.3174750" lon="-3.7655790">
        <ele>830.1</ele>
        <time>2019-08-12T08:13:08Z</time>
      </trkpt>
      <trkpt lat="39.3175190" lon="-3.7655920">
        <ele>830.2</ele>
        <time>2019-08-12T08:13:09Z</time>
      </trkpt>
      <trkpt lat="39.3175640" lon="-3.7656050">
        <ele>830.3</ele>
        <time>2019-08-12T08:13:10Z</time>
      </trkpt>
      <trkpt lat="39.3176090" lon="-3.7656180">
        <ele>830.4</ele>
        <time>2019-08-12T08:13:11Z</time>
      </trkpt>
      <trkpt lat="39.3176540" lon="-3.7656310">
        <ele>830.5</ele>
        <time>2019-08-12T08:13:12Z</time>
      </trkpt>
      <trkpt lat="39.3176990" lon="-3.7656440">
        <ele>830.6</ele>
        <time>2019-08-12T08:13:13Z</time>
      </trkpt>
      <trkpt lat="39.3177440" lon="-3.7656580">
        <ele>830.8</ele>
        <time>2019-08-12T08:13:14Z</time>
      </trkpt>
      <trkpt lat="39.3177890" lon="-3.7656710">
        <ele>830.9</ele>
        <time>2019-08-12T08:13:15Z</time>
      </trkpt>
      <trkpt lat="39.3178340" lon="-3.7656850">
        <ele>831.0</ele>
        <time>2019-08-12T08:13:16Z</time>
      </trkpt>
      <trkpt lat="39.3178790" lon="-3.7656990">
        <ele>831.1</ele>
        <time>2019-08-12T08:13:17Z</time>
      </trkpt>
      <trkpt lat="39.3179240" lon="-3.7657120">
        <ele>831.2</ele>
        <time>2019-08-12T08:13:18Z</time>
      </trkpt>
      <trkpt lat="39.3179690" lon="-3.7657260">
        <ele>831.3</ele>
        <time>2019-08-12T08:13:19Z</time>
      </trkpt>
      <trkpt lat="39.3180140" lon="-3.7657400">
        <ele>831.4</ele>
        <time>2019-08-12T08:13:20Z</time>
      </trkpt>
      <trkpt lat="39.3180590" lon="-3.7657540">
        <ele>831.4</ele>
        <time>2019-08-12T08:13:21Z</time>
      </trkpt>
      <trkpt lat="39.3181030" lon="-3.7657680">
        <ele>831.5</ele>
        <time>2019-08-12T08:13:22Z</time>
      </trkpt>
      <trkpt lat="39.3181480" lon="-3.7657820">
        <ele>831.6</ele>
        <time>2019-08-12T08:13:23Z</time>
      </trkpt>
      <trkpt lat="39.3181930" lon="-3.7657960">
        <ele>831.7</ele>
        <time>2019-08-12T08:13:24Z</time>
      </trkpt>
      <trkpt lat="39.3182380" lon="-3.7658100">
        <ele>831.8</ele>
        <time>2019-08-12T08:13:25Z</time>
      </trkpt>
      <trkpt lat="39.3182820" lon="-3.7658250">
        <ele>831.8</ele>
        <time>2019-08-12T08:13:26Z</time>
      </trkpt>
      <trkpt lat="39.3183270" lon="-3.7658390">
        <ele>831.9</ele>
        <time>2019-08-12T08:13:27Z</time>
      </trkpt>
      <trkpt lat="39.3183720" lon="-3.7658530">
        <ele>832.0</ele>
        <time>2019-08-12T08:13:28Z</time>
      </trkpt>
      <trkpt lat="39.3184170" lon="-3.7658670">
        <ele>832.0</ele>
        <time>2019-08-12T08:13:29Z</time>
      </trkpt>
      <trkpt lat="39.3184610" lon="-3.7658810">
        <ele>832.1</ele>
        <time>2019-08-12T08:13:30Z</time>
      </trkpt>
      <trkpt lat="39.3185060" lon="-3.7658960">
        <ele>832.2</ele>
        <time>2019-08-12T08:13:31Z</time>
      </trkpt>
      <trkpt lat="39.3185510" lon="-3.7659100">
        <ele>832.2</ele>
        <time>2019-08-12T08:13:32Z</time>
      </trkpt>
      <trkpt lat="39.3185950" lon="-3.7659240">
        <ele>832.3</ele>
        <time>2019-08-12T08:13:33Z</time>
      </trkpt>
      <trkpt lat="39.3186400" lon="-3.7659380">
        <ele>832.4</ele>
        <time>2019-08-12T08:13:34Z</time>
      </trkpt>
      <trkpt lat="39.3186850" lon="-3.7659520">
        <ele>832.5</ele>
        <time>2019-08-12T08:13:35Z</time>
      </trkpt>
      <trkpt lat="39.3187300" lon="-3.7659650">
        <ele>832.6</ele>
        <time>2019-08-12T08:13:36Z</time>
      </trkpt>
      <trkpt lat="39.3187750" lon="-3.7659790">
        <ele>832.7</ele>
        <time>2019-08-12T08:13:37Z</time>
      </trkpt>
      <trkpt lat="39.3188190" lon="-3.7659930">
        <ele>832.8</ele>
        <time>2019-08-12T08:13:38Z</time>
      </trkpt>
      <trkpt lat="39.3188640" lon="-3.7660060">
        <ele>832.9</ele>
        <time>2019-08-12T08:13:39Z</time>
      </trkpt>
      <trkpt lat="39.3189090" lon="-3.7660190">
        <ele>833.0</ele>
        <time>2019-08-12T08:13:40Z</time>
      </trkpt>
      <trkpt lat="39.3189540" lon="-3.7660330">
        <ele>833.1</ele>
        <time>2019-08-12T08:13:41Z</time>
      </trkpt>
      <trkpt lat="39.3189990" lon="-3.7660460">
        <ele>833.2</ele>
        <time>2019-08-12T08:13:42Z</time>
      </trkpt>
      <trkpt lat="39.3190440" lon="-3.7660590">
        <ele>833.4</ele>
        <time>2019-08-12T08:13:43Z</time>
      </trkpt>
      <trkpt lat="39.3190880" lon="-3.7660720">
        <ele>833.5</ele>
        <time>2019-08-12T08:13:44Z</time>
      </trkpt>
      <trkpt lat="39.3191330" lon="-3.7660850">
        <ele>833.6</ele>
        <time>2019-08-12T08:13:45Z</time>
      </trkpt>
      <trkpt lat="39.3191770" lon="-3.7660990">
        <ele>833.7</ele>
        <time>2019-08-12T08:13:46Z</time>
      </trkpt>
      <trkpt lat="39.3192220" lon="-3.7661120">
        <ele>833.9</ele>
        <time>2019-08-12T08:13:47Z</time>
      </trkpt>
      <trkpt lat="39.3192660" lon="-3.7661260">
        <ele>834.0</ele>
        <time>2019-08-12T08:13:48Z</time>
      </trkpt>
      <trkpt lat="39.3193100" lon="-3.7661390">
        <ele>834.1</ele>
        <time>2019-08-12T08:13:49Z</time>
      </trkpt>
      <trkpt lat="39.3193540" lon="-3.7661530">
        <ele>834.2</ele>
        <time>2019-08-12T08:13:50Z</time>
      </trkpt>
      <trkpt lat="39.3193970" lon="-3.7661660">
        <ele>834.3</ele>
        <time>2019-08-12T08:13:51Z</time>
      </trkpt>
      <trkpt lat="39.3194410" lon="-3.7661800">
        <ele>834.4</ele>
        <time>2019-08-12T08:13:52Z</time>
      </trkpt>
      <trkpt lat="39.3194850" lon="-3.7661940">
        <ele>834.6</ele>
        <time>2019-08-12T08:13:53Z</time>
      </trkpt>
      <trkpt lat="39.3195280" lon="-3.7662080">
        <ele>834.7</ele>
        <time>2019-08-12T08:13:54Z</time>
      </trkpt>
      <trkpt lat="39.3195720" lon="-3.7662210">
        <ele>834.8</ele>
        <time>2019-08-12T08:13:55Z</time>
      </trkpt>
      <trkpt lat="39.3196160" lon="-3.7662350">
        <ele>834.9</ele>
        <time>2019-08-12T08:13:56Z</time>
      </trkpt>
      <trkpt lat="39.3196600" lon="-3.7662490">
        <ele>835.0</ele>
        <time>2019-08-12T08:13:57Z</time>
      </trkpt>
      <trkpt lat="39.3197040" lon="-3.7662630">
        <ele>835.1</ele>
        <time>2019-08-12T08:13:58Z</time>
      </trkpt>
      <trkpt lat="39.3197490" lon="-3.7662770">
        <ele>835.3</ele>
        <time>2019-08-12T08:13:59Z</time>
      </trkpt>
      <trkpt lat="39.3197930" lon="-3.7662910">
        <ele>835.4</ele>
        <time>2019-08-12T08:14:00Z</time>
      </trkpt>
      <trkpt lat="39.3198380" lon="-3.7663040">
        <ele>835.5</ele>
        <time>2019-08-12T08:14:01Z</time>
      </trkpt>
      <trkpt lat="39.3198830" lon="-3.7663180">
        <ele>835.6</ele>
        <time>2019-08-12T08:14:02Z</time>
      </trkpt>
      <trkpt lat="39.3199280" lon="-3.7663320">
        <ele>835.8</ele>
        <time>2019-08-12T08:14:03Z</time>
      </trkpt>
      <trkpt lat="39.3199740" lon="-3.7663460">
        <ele>835.9</ele>
        <time>2019-08-12T08:14:04Z</time>
      </trkpt>
      <trkpt lat="39.3200200" lon="-3.7663600">
        <ele>836.1</ele>
        <time>2019-08-12T08:14:05Z</time>
      </trkpt>
      <trkpt lat="39.3200660" lon="-3.7663740">
        <ele>836.2</ele>
        <time>2019-08-12T08:14:06Z</time>
      </trkpt>
      <trkpt lat="39.3201120" lon="-3.7663880">
        <ele>836.3</ele>
        <time>2019-08-12T08:14:07Z</time>
      </trkpt>
      <trkpt lat="39.3201580" lon="-3.7664030">
        <ele>836.5</ele>
        <time>2019-08-12T08:14:08Z</time>
      </trkpt>
      <trkpt lat="39.3202040" lon="-3.7664160">
        <ele>836.6</ele>
        <time>2019-08-12T08:14:09Z</time>
      </trkpt>
      <trkpt lat="39.3202490" lon="-3.7664300">
        <ele>836.7</ele>
        <time>2019-08-12T08:14:10Z</time>
      </trkpt>
      <trkpt lat="39.3202950" lon="-3.7664440">
        <ele>836.8</ele>
        <time>2019-08-12T08:14:11Z</time>
      </trkpt>
      <trkpt lat="39.3203390" lon="-3.7664570">
        <ele>836.9</ele>
        <time>2019-08-12T08:14:12Z</time>
      </trkpt>
      <trkpt lat="39.3203830" lon="-3.7664710">
        <ele>837.0</ele>
        <time>2019-08-12T08:14:13Z</time>
      </trkpt>
      <trkpt lat="39.3204260" lon="-3.7664830">
        <ele>837.1</ele>
        <time>2019-08-12T08:14:14Z</time>
      </trkpt>
      <trkpt lat="39.3204680" lon="-3.7664960">
        <ele>837.2</ele>
        <time>2019-08-12T08:14:15Z</time>
      </trkpt>
      <trkpt lat="39.3205150" lon="-3.7665090">
        <ele>837.3</ele>
        <time>2019-08-12T08:14:16Z</time>
      </trkpt>
      <trkpt lat="39.3205490" lon="-3.7665190">
        <ele>837.4</ele>
        <time>2019-08-12T08:14:17Z</time>
      </trkpt>
      <trkpt lat="39.3205690" lon="-3.7665240">
        <ele>837.4</ele>
        <time>2019-08-12T08:14:18Z</time>
      </trkpt>
      <trkpt lat="39.3207550" lon="-3.7665780">
        <ele>837.7</ele>
        <time>2019-08-12T08:15:26Z</time>
      </trkpt>
      <trkpt lat="39.3207820" lon="-3.7665900">
        <ele>837.8</ele>
        <time>2019-08-12T08:15:27Z</time>
      </trkpt>
      <trkpt lat="39.3208120" lon="-3.7665970">
        <ele>837.8</ele>
        <time>2019-08-12T08:15:28Z</time>
      </trkpt>
      <trkpt lat="39.3208460" lon="-3.7666070">
        <ele>837.9</ele>
        <time>2019-08-12T08:15:29Z</time>
      </trkpt>
      <trkpt lat="39.3208790" lon="-3.7666160">
        <ele>837.9</ele>
        <time>2019-08-12T08:15:30Z</time>
      </trkpt>
      <trkpt lat="39.3209150" lon="-3.7666270">
        <ele>838.0</ele>
        <time>2019-08-12T08:15:31Z</time>
      </trkpt>
      <trkpt lat="39.3209510" lon="-3.7666370">
        <ele>838.1</ele>
        <time>2019-08-12T08:15:32Z</time>
      </trkpt>
      <trkpt lat="39.3209890" lon="-3.7666480">
        <ele>838.1</ele>
        <time>2019-08-12T08:15:33Z</time>
      </trkpt>
      <trkpt lat="39.3210280" lon="-3.7666590">
        <ele>838.2</ele>
        <time>2019-08-12T08:15:34Z</time>
      </trkpt>
      <trkpt lat="39.3210920" lon="-3.7666790">
        <ele>838.3</ele>
        <time>2019-08-12T08:15:35Z</time>
      </trkpt>
      <trkpt lat="39.3211180" lon="-3.7666870">
        <ele>838.3</ele>
        <time>2019-08-12T08:15:36Z</time>
      </trkpt>
      <trkpt lat="39.3211440" lon="-3.7666950">
        <ele>838.4</ele>
        <time>2019-08-12T08:15:37Z</time>
      </trkpt>
      <trkpt lat="39.3211820" lon="-3.7667070">
        <ele>838.4</ele>
        <time>2019-08-12T08:15:38Z</time>
      </trkpt>
      <trkpt lat="39.3212210" lon="-3.7667200">
        <ele>838.5</ele>
        <time>2019-08-12T08:15:39Z</time>
      </trkpt>
      <trkpt lat="39.3212850" lon="-3.7667410">
        <ele>838.5</ele>
        <time>2019-08-12T08:15:40Z</time>
      </trkpt>
      <trkpt lat="39.3213110" lon="-3.7667490">
        <ele>838.5</ele>
        <time>2019-08-12T08:15:41Z</time>
      </trkpt>
      <trkpt lat="39.3213370" lon="-3.7667570">
        <ele>838.6</ele>
        <time>2019-08-12T08:15:42Z</time>
      </trkpt>
      <trkpt lat="39.3213760" lon="-3.7667690">
        <ele>838.6</ele>
        <time>2019-08-12T08:15:43Z</time>
      </trkpt>
      <trkpt lat="39.3214150" lon="-3.7667810">
        <ele>838.6</ele>
        <time>2019-08-12T08:15:44Z</time>
      </trkpt>
      <trkpt lat="39.3214810" lon="-3.7668010">
        <ele>838.7</ele>
        <time>2019-08-12T08:15:45Z</time>
      </trkpt>
      <trkpt lat="39.3215070" lon="-3.7668090">
        <ele>838.7</ele>
        <time>2019-08-12T08:15:46Z</time>
      </trkpt>
      <trkpt lat="39.3215340" lon="-3.7668170">
        <ele>838.7</ele>
        <time>2019-08-12T08:15:47Z</time>
      </trkpt>
      <trkpt lat="39.3215740" lon="-3.7668300">
        <ele>838.7</ele>
        <time>2019-08-12T08:15:48Z</time>
      </trkpt>
      <trkpt lat="39.3216150" lon="-3.7668420">
        <ele>838.8</ele>
        <time>2019-08-12T08:15:49Z</time>
      </trkpt>
      <trkpt lat="39.3216550" lon="-3.7668550">
        <ele>838.8</ele>
        <time>2019-08-12T08:15:50Z</time>
      </trkpt>
      <trkpt lat="39.3216970" lon="-3.7668680">
        <ele>838.9</ele>
        <time>2019-08-12T08:15:51Z</time>
      </trkpt>
      <trkpt lat="39.3217380" lon="-3.7668810">
        <ele>838.9</ele>
        <time>2019-08-12T08:15:52Z</time>
      </trkpt>
      <trkpt lat="39.3217800" lon="-3.7668940">
        <ele>838.9</ele>
        <time>2019-08-12T08:15:53Z</time>
      </trkpt>
      <trkpt lat="39.3218220" lon="-3.7669070">
        <ele>839.0</ele>
        <time>2019-08-12T08:15:54Z</time>
      </trkpt>
      <trkpt lat="39.3218640" lon="-3.7669210">
        <ele>839.0</ele>
        <time>2019-08-12T08:15:55Z</time>
      </trkpt>
      <trkpt lat="39.3219070" lon="-3.7669340">
        <ele>839.1</ele>
        <time>2019-08-12T08:15:56Z</time>
      </trkpt>
      <trkpt lat="39.3219510" lon="-3.7669480">
        <ele>839.2</ele>
        <time>2019-08-12T08:15:57Z</time>
      </trkpt>
      <trkpt lat="39.3219940" lon="-3.7669620">
        <ele>839.2</ele>
        <time>2019-08-12T08:15:58Z</time>
      </trkpt>
      <trkpt lat="39.3220380" lon="-3.7669760">
        <ele>839.3</ele>
        <time>2019-08-12T08:15:59Z</time>
      </trkpt>
      <trkpt lat="39.3220820" lon="-3.7669890">
        <ele>839.4</ele>
        <time>2019-08-12T08:16:00Z</time>
      </trkpt>
      <trkpt lat="39.3221260" lon="-3.7670030">
        <ele>839.5</ele>
        <time>2019-08-12T08:16:01Z</time>
      </trkpt>
      <trkpt lat="39.3221710" lon="-3.7670160">
        <ele>839.6</ele>
        <time>2019-08-12T08:16:02Z</time>
      </trkpt>
      <trkpt lat="39.3222160" lon="-3.7670300">
        <ele>839.6</ele>
        <time>2019-08-12T08:16:03Z</time>
      </trkpt>
      <trkpt lat="39.3222600" lon="-3.7670430">
        <ele>839.7</ele>
        <time>2019-08-12T08:16:04Z</time>
      </trkpt>
      <trkpt lat="39.3223050" lon="-3.7670560">
        <ele>839.8</ele>
        <time>2019-08-12T08:16:05Z</time>
      </trkpt>
      <trkpt lat="39.3223490" lon="-3.7670690">
        <ele>839.9</ele>
        <time>2019-08-12T08:16:06Z</time>
      </trkpt>
      <trkpt lat="39.3223940" lon="-3.7670820">
        <ele>840.1</ele>
        <time>2019-08-12T08:16:07Z</time>
      </trkpt>
      <trkpt lat="39.3224380" lon="-3.7670940">
        <ele>840.2</ele>
        <time>2019-08-12T08:16:08Z</time>
      </trkpt>
      <trkpt lat="39.3224820" lon="-3.7671060">
        <ele>840.4</ele>
        <time>2019-08-12T08:16:09Z</time>
      </trkpt>
      <trkpt lat="39.3225260" lon="-3.7671180">
        <ele>840.6</ele>
        <time>2019-08-12T08:16:10Z</time>
      </trkpt>
      <trkpt lat="39.3225700" lon="-3.7671300">
        <ele>840.8</ele>
        <time>2019-08-12T08:16:11Z</time>
      </trkpt>
      <trkpt lat="39.3226140" lon="-3.7671410">
        <ele>840.8</ele>
        <time>2019-08-12T08:16:12Z</time>
      </trkpt>
      <trkpt lat="39.3226570" lon="-3.7671520">
        <ele>840.8</ele>
        <time>2019-08-12T08:16:13Z</time>
      </trkpt>
      <trkpt lat="39.3227010" lon="-3.7671640">
        <ele>840.9</ele>
        <time>2019-08-12T08:16:14Z</time>
      </trkpt>
      <trkpt lat="39.3227450" lon="-3.7671750">
        <ele>840.9</ele>
        <time>2019-08-12T08:16:15Z</time>
      </trkpt>
      <trkpt lat="39.3227890" lon="-3.7671860">
        <ele>840.9</ele>
        <time>2019-08-12T08:16:16Z</time>
      </trkpt>
      <trkpt lat="39.3228330" lon="-3.7671980">
        <ele>840.9</ele>
        <time>2019-08-12T08:16:17Z</time>
      </trkpt>
      <trkpt lat="39.3228770" lon="-3.7672100">
        <ele>840.9</ele>
        <time>2019-08-12T08:16:18Z</time>
      </trkpt>
      <trkpt lat="39.3229220" lon="-3.7672220">
        <ele>840.9</ele>
        <time>2019-08-12T08:16:19Z</time>
      </trkpt>
      <trkpt lat="39.3229660" lon="-3.7672340">
        <ele>840.9</ele>
        <time>2019-08-12T08:16:20Z</time>
      </trkpt>
      <trkpt lat="39.3230110" lon="-3.7672470">
        <ele>840.9</ele>
        <time>2019-08-12T08:16:21Z</time>
      </trkpt>
      <trkpt lat="39.3230560" lon="-3.7672590">
        <ele>840.9</ele>
        <time>2019-08-12T08:16:22Z</time>
      </trkpt>
      <trkpt lat="39.3231000" lon="-3.7672730">
        <ele>840.9</ele>
        <time>2019-08-12T08:16:23Z</time>
      </trkpt>
      <trkpt lat="39.3231450" lon="-3.7672860">
        <ele>840.9</ele>
        <time>2019-08-12T08:16:24Z</time>
      </trkpt>
      <trkpt lat="39.3231890" lon="-3.7673000">
        <ele>840.9</ele>
        <time>2019-08-12T08:16:25Z</time>
      </trkpt>
      <trkpt lat="39.3232330" lon="-3.7673140">
        <ele>840.9</ele>
        <time>2019-08-12T08:16:26Z</time>
      </trkpt>
      <trkpt lat="39.3232760" lon="-3.7673290">
        <ele>840.9</ele>
        <time>2019-08-12T08:16:27Z</time>
      </trkpt>
      <trkpt lat="39.3233200" lon="-3.7673440">
        <ele>841.0</ele>
        <time>2019-08-12T08:16:28Z</time>
      </trkpt>
      <trkpt lat="39.3233630" lon="-3.7673600">
        <ele>841.0</ele>
        <time>2019-08-12T08:16:29Z</time>
      </trkpt>
      <trkpt lat="39.3234050" lon="-3.7673750">
        <ele>841.0</ele>
        <time>2019-08-12T08:16:30Z</time>
      </trkpt>
      <trkpt lat="39.3234480" lon="-3.7673910">
        <ele>841.0</ele>
        <time>2019-08-12T08:16:31Z</time>
      </trkpt>
      <trkpt lat="39.3234910" lon="-3.7674060">
        <ele>841.0</ele>
        <time>2019-08-12T08:16:32Z</time>
      </trkpt>
      <trkpt lat="39.3235340" lon="-3.7674220">
        <ele>841.1</ele>
        <time>2019-08-12T08:16:33Z</time>
      </trkpt>
      <trkpt lat="39.3235770" lon="-3.7674360">
        <ele>841.1</ele>
        <time>2019-08-12T08:16:34Z</time>
      </trkpt>
      <trkpt lat="39.3236210" lon="-3.7674510">
        <ele>841.1</ele>
        <time>2019-08-12T08:16:35Z</time>
      </trkpt>
      <trkpt lat="39.3236640" lon="-3.7674650">
        <ele>841.2</ele>
        <time>2019-08-12T08:16:36Z</time>
      </trkpt>
      <trkpt lat="39.3237090" lon="-3.7674790">
        <ele>841.2</ele>
        <time>2019-08-12T08:16:37Z</time>
      </trkpt>
      <trkpt lat="39.3237530" lon="-3.7674920">
        <ele>841.2</ele>
        <time>2019-08-12T08:16:38Z</time>
      </trkpt>
      <trkpt lat="39.3237980" lon="-3.7675050">
        <ele>841.3</ele>
        <time>2019-08-12T08:16:39Z</time>
      </trkpt>
      <trkpt lat="39.3238430" lon="-3.7675190">
        <ele>841.3</ele>
        <time>2019-08-12T08:16:40Z</time>
      </trkpt>
      <trkpt lat="39.3238880" lon="-3.7675320">
        <ele>841.2</ele>
        <time>2019-08-12T08:16:41Z</time>
      </trkpt>
      <trkpt lat="39.3239330" lon="-3.7675460">
        <ele>841.2</ele>
        <time>2019-08-12T08:16:42Z</time>
      </trkpt>
      <trkpt lat="39.3239790" lon="-3.7675580">
        <ele>841.2</ele>
        <time>2019-08-12T08:16:43Z</time>
      </trkpt>
      <trkpt lat="39.3240250" lon="-3.7675700">
        <ele>841.1</ele>
        <time>2019-08-12T08:16:44Z</time>
      </trkpt>
      <trkpt lat="39.3240720" lon="-3.7675810">
        <ele>841.1</ele>
        <time>2019-08-12T08:16:45Z</time>
      </trkpt>
      <trkpt lat="39.3241200" lon="-3.7675890">
        <ele>841.1</ele>
        <time>2019-08-12T08:16:46Z</time>
      </trkpt>
      <trkpt lat="39.3241690" lon="-3.7675970">
        <ele>841.0</ele>
        <time>2019-08-12T08:16:47Z</time>
      </trkpt>
      <trkpt lat="39.3242180" lon="-3.7676050">
        <ele>841.0</ele>
        <time>2019-08-12T08:16:48Z</time>
      </trkpt>
      <trkpt lat="39.3242680" lon="-3.7676140">
        <ele>841.0</ele>
        <time>2019-08-12T08:16:49Z</time>
      </trkpt>
      <trkpt lat="39.3243170" lon="-3.7676240">
        <ele>840.9</ele>
        <time>2019-08-12T08:16:50Z</time>
      </trkpt>
      <trkpt lat="39.3243670" lon="-3.7676360">
        <ele>840.9</ele>
        <time>2019-08-12T08:16:51Z</time>
      </trkpt>
      <trkpt lat="39.3244160" lon="-3.7676490">
        <ele>840.8</ele>
        <time>2019-08-12T08:16:52Z</time>
      </trkpt>
      <trkpt lat="39.3244660" lon="-3.7676640">
        <ele>840.8</ele>
        <time>2019-08-12T08:16:53Z</time>
      </trkpt>
      <trkpt lat="39.3245150" lon="-3.7676790">
        <ele>840.7</ele>
        <time>2019-08-12T08:16:54Z</time>
      </trkpt>
      <trkpt lat="39.3245630" lon="-3.7676940">
        <ele>840.6</ele>
        <time>2019-08-12T08:16:55Z</time>
      </trkpt>
      <trkpt lat="39.3246120" lon="-3.7677090">
        <ele>840.6</ele>
        <time>2019-08-12T08:16:56Z</time>
      </trkpt>
      <trkpt lat="39.3246600" lon="-3.7677240">
        <ele>840.5</ele>
        <time>2019-08-12T08:16:57Z</time>
      </trkpt>
      <trkpt lat="39.3247090" lon="-3.7677390">
        <ele>840.5</ele>
        <time>2019-08-12T08:16:58Z</time>
      </trkpt>
      <trkpt lat="39.3247580" lon="-3.7677540">
        <ele>840.5</ele>
        <time>2019-08-12T08:16:59Z</time>
      </trkpt>
      <trkpt lat="39.3248070" lon="-3.7677690">
        <ele>840.5</ele>
        <time>2019-08-12T08:17:00Z</time>
      </trkpt>
      <trkpt lat="39.3248570" lon="-3.7677840">
        <ele>840.5</ele>
        <time>2019-08-12T08:17:01Z</time>
      </trkpt>
      <trkpt lat="39.3249080" lon="-3.7678000">
        <ele>840.5</ele>
        <time>2019-08-12T08:17:02Z</time>
      </trkpt>
      <trkpt lat="39.3249590" lon="-3.7678150">
        <ele>840.5</ele>
        <time>2019-08-12T08:17:03Z</time>
      </trkpt>
      <trkpt lat="39.3250110" lon="-3.7678320">
        <ele>840.6</ele>
        <time>2019-08-12T08:17:04Z</time>
      </trkpt>
      <trkpt lat="39.3250640" lon="-3.7678480">
        <ele>840.7</ele>
        <time>2019-08-12T08:17:05Z</time>
      </trkpt>
      <trkpt lat="39.3251180" lon="-3.7678650">
        <ele>840.7</ele>
        <time>2019-08-12T08:17:06Z</time>
      </trkpt>
      <trkpt lat="39.3251720" lon="-3.7678820">
        <ele>840.8</ele>
        <time>2019-08-12T08:17:07Z</time>
      </trkpt>
      <trkpt lat="39.3252270" lon="-3.7678980">
        <ele>840.8</ele>
        <time>2019-08-12T08:17:08Z</time>
      </trkpt>
      <trkpt lat="39.3252820" lon="-3.7679150">
        <ele>840.8</ele>
        <time>2019-08-12T08:17:09Z</time>
      </trkpt>
      <trkpt lat="39.3253360" lon="-3.7679310">
        <ele>840.7</ele>
        <time>2019-08-12T08:17:10Z</time>
      </trkpt>
      <trkpt lat="39.3253910" lon="-3.7679470">
        <ele>840.7</ele>
        <time>2019-08-12T08:17:11Z</time>
      </trkpt>
      <trkpt lat="39.3254460" lon="-3.7679630">
        <ele>840.5</ele>
        <time>2019-08-12T08:17:12Z</time>
      </trkpt>
      <trkpt lat="39.3255000" lon="-3.7679780">
        <ele>840.4</ele>
        <time>2019-08-12T08:17:13Z</time>
      </trkpt>
      <trkpt lat="39.3255540" lon="-3.7679930">
        <ele>840.2</ele>
        <time>2019-08-12T08:17:14Z</time>
      </trkpt>
      <trkpt lat="39.3256070" lon="-3.7680080">
        <ele>840.1</ele>
        <time>2019-08-12T08:17:15Z</time>
      </trkpt>
      <trkpt lat="39.3256600" lon="-3.7680230">
        <ele>839.9</ele>
        <time>2019-08-12T08:17:16Z</time>
      </trkpt>
      <trkpt lat="39.3257130" lon="-3.7680400">
        <ele>839.8</ele>
        <time>2019-08-12T08:17:17Z</time>
      </trkpt>
      <trkpt lat="39.3257660" lon="-3.7680580">
        <ele>839.7</ele>
        <time>2019-08-12T08:17:18Z</time>
      </trkpt>
      <trkpt lat="39.3258190" lon="-3.7680780">
        <ele>839.6</ele>
        <time>2019-08-12T08:17:19Z</time>
      </trkpt>
      <trkpt lat="39.3258710" lon="-3.7680990">
        <ele>839.4</ele>
        <time>2019-08-12T08:17:20Z</time>
      </trkpt>
      <trkpt lat="39.3259240" lon="-3.7681240">
        <ele>839.2</ele>
        <time>2019-08-12T08:17:21Z</time>
      </trkpt>
      <trkpt lat="39.3259770" lon="-3.7681510">
        <ele>839.1</ele>
        <time>2019-08-12T08:17:22Z</time>
      </trkpt>
      <trkpt lat="39.3260290" lon="-3.7681800">
        <ele>839.1</ele>
        <time>2019-08-12T08:17:23Z</time>
      </trkpt>
      <trkpt lat="39.3260810" lon="-3.7682110">
        <ele>839.2</ele>
        <time>2019-08-12T08:17:24Z</time>
      </trkpt>
      <trkpt lat="39.3261330" lon="-3.7682430">
        <ele>839.3</ele>
        <time>2019-08-12T08:17:25Z</time>
      </trkpt>
      <trkpt lat="39.3261850" lon="-3.7682750">
        <ele>839.5</ele>
        <time>2019-08-12T08:17:26Z</time>
      </trkpt>
      <trkpt lat="39.3262360" lon="-3.7683070">
        <ele>839.8</ele>
        <time>2019-08-12T08:17:27Z</time>
      </trkpt>
      <trkpt lat="39.3262870" lon="-3.7683390">
        <ele>840.1</ele>
        <time>2019-08-12T08:17:28Z</time>
      </trkpt>
      <trkpt lat="39.3263370" lon="-3.7683700">
        <ele>840.1</ele>
        <time>2019-08-12T08:17:29Z</time>
      </trkpt>
      <trkpt lat="39.3263880" lon="-3.7684000">
        <ele>840.1</ele>
        <time>2019-08-12T08:17:30Z</time>
      </trkpt>
      <trkpt lat="39.3264390" lon="-3.7684300">
        <ele>840.1</ele>
        <time>2019-08-12T08:17:31Z</time>
      </trkpt>
      <trkpt lat="39.3264900" lon="-3.7684590">
        <ele>840.1</ele>
        <time>2019-08-12T08:17:32Z</time>
      </trkpt>
      <trkpt lat="39.3265420" lon="-3.7684880">
        <ele>840.1</ele>
        <time>2019-08-12T08:17:33Z</time>
      </trkpt>
      <trkpt lat="39.3265940" lon="-3.7685180">
        <ele>840.1</ele>
        <time>2019-08-12T08:17:34Z</time>
      </trkpt>
      <trkpt lat="39.3266470" lon="-3.7685480">
        <ele>840.1</ele>
        <time>2019-08-12T08:17:35Z</time>
      </trkpt>
      <trkpt lat="39.3267010" lon="-3.7685800">
        <ele>840.1</ele>
        <time>2019-08-12T08:17:36Z</time>
      </trkpt>
      <trkpt lat="39.3267550" lon="-3.7686120">
        <ele>840.1</ele>
        <time>2019-08-12T08:17:37Z</time>
      </trkpt>
      <trkpt lat="39.3268100" lon="-3.7686450">
        <ele>840.1</ele>
        <time>2019-08-12T08:17:38Z</time>
      </trkpt>
      <trkpt lat="39.3268640" lon="-3.7686770">
        <ele>840.1</ele>
        <time>2019-08-12T08:17:39Z</time>
      </trkpt>
      <trkpt lat="39.3269190" lon="-3.7687090">
        <ele>840.1</ele>
        <time>2019-08-12T08:17:40Z</time>
      </trkpt>
      <trkpt lat="39.3269740" lon="-3.7687410">
        <ele>840.1</ele>
        <time>2019-08-12T08:17:41Z</time>
      </trkpt>
      <trkpt lat="39.3270290" lon="-3.7687730">
        <ele>840.1</ele>
        <time>2019-08-12T08:17:42Z</time>
      </trkpt>
      <trkpt lat="39.3270850" lon="-3.7688050">
        <ele>840.1</ele>
        <time>2019-08-12T08:17:43Z</time>
      </trkpt>
      <trkpt lat="39.3271400" lon="-3.7688370">
        <ele>840.1</ele>
        <time>2019-08-12T08:17:44Z</time>
      </trkpt>
      <trkpt lat="39.3271960" lon="-3.7688690">
        <ele>840.1</ele>
        <time>2019-08-12T08:17:45Z</time>
      </trkpt>
      <trkpt lat="39.3272520" lon="-3.7689010">
        <ele>840.1</ele>
        <time>2019-08-12T08:17:46Z</time>
      </trkpt>
      <trkpt lat="39.3273080" lon="-3.7689340">
        <ele>840.1</ele>
        <time>2019-08-12T08:17:47Z</time>
      </trkpt>
      <trkpt lat="39.3273650" lon="-3.7689670">
        <ele>840.1</ele>
        <time>2019-08-12T08:17:48Z</time>
      </trkpt>
      <trkpt lat="39.3274230" lon="-3.7690000">
        <ele>840.2</ele>
        <time>2019-08-12T08:17:49Z</time>
      </trkpt>
      <trkpt lat="39.3274810" lon="-3.7690340">
        <ele>840.2</ele>
        <time>2019-08-12T08:17:50Z</time>
      </trkpt>
      <trkpt lat="39.3275390" lon="-3.7690680">
        <ele>840.1</ele>
        <time>2019-08-12T08:17:51Z</time>
      </trkpt>
      <trkpt lat="39.3275980" lon="-3.7691020">
        <ele>840.1</ele>
        <time>2019-08-12T08:17:52Z</time>
      </trkpt>
      <trkpt lat="39.3276570" lon="-3.7691370">
        <ele>840.1</ele>
        <time>2019-08-12T08:17:53Z</time>
      </trkpt>
      <trkpt lat="39.3277160" lon="-3.7691720">
        <ele>840.0</ele>
        <time>2019-08-12T08:17:54Z</time>
      </trkpt>
      <trkpt lat="39.3277750" lon="-3.7692070">
        <ele>839.8</ele>
        <time>2019-08-12T08:17:55Z</time>
      </trkpt>
      <trkpt lat="39.3278350" lon="-3.7692420">
        <ele>839.7</ele>
        <time>2019-08-12T08:17:56Z</time>
      </trkpt>
      <trkpt lat="39.3278940" lon="-3.7692770">
        <ele>839.6</ele>
        <time>2019-08-12T08:17:57Z</time>
      </trkpt>
      <trkpt lat="39.3279530" lon="-3.7693110">
        <ele>839.5</ele>
        <time>2019-08-12T08:17:58Z</time>
      </trkpt>
      <trkpt lat="39.3280120" lon="-3.7693460">
        <ele>839.4</ele>
        <time>2019-08-12T08:17:59Z</time>
      </trkpt>
      <trkpt lat="39.3280710" lon="-3.7693800">
        <ele>839.4</ele>
        <time>2019-08-12T08:18:00Z</time>
      </trkpt>
      <trkpt lat="39.3281290" lon="-3.7694150">
        <ele>839.3</ele>
        <time>2019-08-12T08:18:01Z</time>
      </trkpt>
      <trkpt lat="39.3281870" lon="-3.7694490">
        <ele>839.3</ele>
        <time>2019-08-12T08:18:02Z</time>
      </trkpt>
      <trkpt lat="39.3282460" lon="-3.7694830">
        <ele>839.3</ele>
        <time>2019-08-12T08:18:03Z</time>
      </trkpt>
      <trkpt lat="39.3283040" lon="-3.7695160">
        <ele>839.3</ele>
        <time>2019-08-12T08:18:04Z</time>
      </trkpt>
      <trkpt lat="39.3283610" lon="-3.7695500">
        <ele>839.3</ele>
        <time>2019-08-12T08:18:05Z</time>
      </trkpt>
      <trkpt lat="39.3284190" lon="-3.7695830">
        <ele>839.3</ele>
        <time>2019-08-12T08:18:06Z</time>
      </trkpt>
      <trkpt lat="39.3284760" lon="-3.7696170">
        <ele>839.3</ele>
        <time>2019-08-12T08:18:07Z</time>
      </trkpt>
      <trkpt lat="39.3285330" lon="-3.7696500">
        <ele>839.3</ele>
        <time>2019-08-12T08:18:08Z</time>
      </trkpt>
      <trkpt lat="39.3285900" lon="-3.7696830">
        <ele>839.3</ele>
        <time>2019-08-12T08:18:09Z</time>
      </trkpt>
      <trkpt lat="39.3286460" lon="-3.7697150">
        <ele>839.2</ele>
        <time>2019-08-12T08:18:10Z</time>
      </trkpt>
      <trkpt lat="39.3287030" lon="-3.7697480">
        <ele>839.1</ele>
        <time>2019-08-12T08:18:11Z</time>
      </trkpt>
      <trkpt lat="39.3287590" lon="-3.7697800">
        <ele>839.0</ele>
        <time>2019-08-12T08:18:12Z</time>
      </trkpt>
      <trkpt lat="39.3288150" lon="-3.7698130">
        <ele>838.8</ele>
        <time>2019-08-12T08:18:13Z</time>
      </trkpt>
      <trkpt lat="39.3288710" lon="-3.7698450">
        <ele>838.7</ele>
        <time>2019-08-12T08:18:14Z</time>
      </trkpt>
      <trkpt lat="39.3289270" lon="-3.7698770">
        <ele>838.6</ele>
        <time>2019-08-12T08:18:15Z</time>
      </trkpt>
      <trkpt lat="39.3289830" lon="-3.7699090">
        <ele>838.5</ele>
        <time>2019-08-12T08:18:16Z</time>
      </trkpt>
      <trkpt lat="39.3290380" lon="-3.7699410">
        <ele>838.4</ele>
        <time>2019-08-12T08:18:17Z</time>
      </trkpt>
      <trkpt lat="39.3290940" lon="-3.7699730">
        <ele>838.4</ele>
        <time>2019-08-12T08:18:18Z</time>
      </trkpt>
      <trkpt lat="39.3291490" lon="-3.7700050">
        <ele>838.3</ele>
        <time>2019-08-12T08:18:19Z</time>
      </trkpt>
      <trkpt lat="39.3292050" lon="-3.7700370">
        <ele>838.3</ele>
        <time>2019-08-12T08:18:20Z</time>
      </trkpt>
      <trkpt lat="39.3292600" lon="-3.7700680">
        <ele>838.3</ele>
        <time>2019-08-12T08:18:21Z</time>
      </trkpt>
      <trkpt lat="39.3293150" lon="-3.7701000">
        <ele>838.3</ele>
        <time>2019-08-12T08:18:22Z</time>
      </trkpt>
      <trkpt lat="39.3293690" lon="-3.7701310">
        <ele>838.2</ele>
        <time>2019-08-12T08:18:23Z</time>
      </trkpt>
      <trkpt lat="39.3294240" lon="-3.7701620">
        <ele>838.1</ele>
        <time>2019-08-12T08:18:24Z</time>
      </trkpt>
      <trkpt lat="39.3294790" lon="-3.7701940">
        <ele>838.0</ele>
        <time>2019-08-12T08:18:25Z</time>
      </trkpt>
      <trkpt lat="39.3295330" lon="-3.7702250">
        <ele>837.9</ele>
        <time>2019-08-12T08:18:26Z</time>
      </trkpt>
      <trkpt lat="39.3295870" lon="-3.7702550">
        <ele>837.7</ele>
        <time>2019-08-12T08:18:27Z</time>
      </trkpt>
      <trkpt lat="39.3296410" lon="-3.7702860">
        <ele>837.6</ele>
        <time>2019-08-12T08:18:28Z</time>
      </trkpt>
      <trkpt lat="39.3296950" lon="-3.7703170">
        <ele>837.5</ele>
        <time>2019-08-12T08:18:29Z</time>
      </trkpt>
      <trkpt lat="39.3297490" lon="-3.7703480">
        <ele>837.4</ele>
        <time>2019-08-12T08:18:30Z</time>
      </trkpt>
      <trkpt lat="39.3298040" lon="-3.7703790">
        <ele>837.4</ele>
        <time>2019-08-12T08:18:31Z</time>
      </trkpt>
      <trkpt lat="39.3298580" lon="-3.7704100">
        <ele>837.5</ele>
        <time>2019-08-12T08:18:32Z</time>
      </trkpt>
      <trkpt lat="39.3299130" lon="-3.7704410">
        <ele>837.6</ele>
        <time>2019-08-12T08:18:33Z</time>
      </trkpt>
      <trkpt lat="39.3299670" lon="-3.7704720">
        <ele>837.7</ele>
        <time>2019-08-12T08:18:34Z</time>
      </trkpt>
      <trkpt lat="39.3300230" lon="-3.7705030">
        <ele>837.9</ele>
        <time>2019-08-12T08:18:35Z</time>
      </trkpt>
      <trkpt lat="39.3300780" lon="-3.7705350">
        <ele>838.1</ele>
        <time>2019-08-12T08:18:36Z</time>
      </trkpt>
      <trkpt lat="39.3301340" lon="-3.7705670">
        <ele>838.3</ele>
        <time>2019-08-12T08:18:37Z</time>
      </trkpt>
      <trkpt lat="39.3301900" lon="-3.7705990">
        <ele>838.5</ele>
        <time>2019-08-12T08:18:38Z</time>
      </trkpt>
      <trkpt lat="39.3302460" lon="-3.7706310">
        <ele>838.7</ele>
        <time>2019-08-12T08:18:39Z</time>
      </trkpt>
      <trkpt lat="39.3303020" lon="-3.7706620">
        <ele>838.9</ele>
        <time>2019-08-12T08:18:40Z</time>
      </trkpt>
      <trkpt lat="39.3303570" lon="-3.7706940">
        <ele>839.1</ele>
        <time>2019-08-12T08:18:41Z</time>
      </trkpt>
      <trkpt lat="39.3304130" lon="-3.7707260">
        <ele>839.2</ele>
        <time>2019-08-12T08:18:42Z</time>
      </trkpt>
      <trkpt lat="39.3304690" lon="-3.7707580">
        <ele>839.3</ele>
        <time>2019-08-12T08:18:43Z</time>
      </trkpt>
      <trkpt lat="39.3305240" lon="-3.7707890">
        <ele>839.4</ele>
        <time>2019-08-12T08:18:44Z</time>
      </trkpt>
      <trkpt lat="39.3305790" lon="-3.7708210">
        <ele>839.5</ele>
        <time>2019-08-12T08:18:45Z</time>
      </trkpt>
      <trkpt lat="39.3306340" lon="-3.7708520">
        <ele>839.5</ele>
        <time>2019-08-12T08:18:46Z</time>
      </trkpt>
      <trkpt lat="39.3306880" lon="-3.7708830">
        <ele>839.5</ele>
        <time>2019-08-12T08:18:47Z</time>
      </trkpt>
      <trkpt lat="39.3307420" lon="-3.7709130">
        <ele>839.5</ele>
        <time>2019-08-12T08:18:48Z</time>
      </trkpt>
      <trkpt lat="39.3307960" lon="-3.7709440">
        <ele>839.5</ele>
        <time>2019-08-12T08:18:49Z</time>
      </trkpt>
      <trkpt lat="39.3308500" lon="-3.7709750">
        <ele>839.6</ele>
        <time>2019-08-12T08:18:50Z</time>
      </trkpt>
      <trkpt lat="39.3309050" lon="-3.7710060">
        <ele>839.6</ele>
        <time>2019-08-12T08:18:51Z</time>
      </trkpt>
      <trkpt lat="39.3309590" lon="-3.7710370">
        <ele>839.6</ele>
        <time>2019-08-12T08:18:52Z</time>
      </trkpt>
      <trkpt lat="39.3310140" lon="-3.7710680">
        <ele>839.6</ele>
        <time>2019-08-12T08:18:53Z</time>
      </trkpt>
      <trkpt lat="39.3310690" lon="-3.7711000">
        <ele>839.6</ele>
        <time>2019-08-12T08:18:54Z</time>
      </trkpt>
      <trkpt lat="39.3311240" lon="-3.7711310">
        <ele>839.6</ele>
        <time>2019-08-12T08:18:55Z</time>
      </trkpt>
      <trkpt lat="39.3311800" lon="-3.7711630">
        <ele>839.6</ele>
        <time>2019-08-12T08:18:56Z</time>
      </trkpt>
      <trkpt lat="39.3312350" lon="-3.7711950">
        <ele>839.6</ele>
        <time>2019-08-12T08:18:57Z</time>
      </trkpt>
      <trkpt lat="39.3312910" lon="-3.7712270">
        <ele>839.6</ele>
        <time>2019-08-12T08:18:58Z</time>
      </trkpt>
      <trkpt lat="39.3313460" lon="-3.7712590">
        <ele>839.6</ele>
        <time>2019-08-12T08:18:59Z</time>
      </trkpt>
      <trkpt lat="39.3314020" lon="-3.7712910">
        <ele>839.6</ele>
        <time>2019-08-12T08:19:00Z</time>
      </trkpt>
      <trkpt lat="39.3314570" lon="-3.7713230">
        <ele>839.6</ele>
        <time>2019-08-12T08:19:01Z</time>
      </trkpt>
      <trkpt lat="39.3315110" lon="-3.7713550">
        <ele>839.6</ele>
        <time>2019-08-12T08:19:02Z</time>
      </trkpt>
      <trkpt lat="39.3315660" lon="-3.7713870">
        <ele>839.6</ele>
        <time>2019-08-12T08:19:03Z</time>
      </trkpt>
      <trkpt lat="39.3316200" lon="-3.7714190">
        <ele>839.6</ele>
        <time>2019-08-12T08:19:04Z</time>
      </trkpt>
      <trkpt lat="39.3316730" lon="-3.7714500">
        <ele>839.6</ele>
        <time>2019-08-12T08:19:05Z</time>
      </trkpt>
      <trkpt lat="39.3317270" lon="-3.7714820">
        <ele>839.6</ele>
        <time>2019-08-12T08:19:06Z</time>
      </trkpt>
      <trkpt lat="39.3317800" lon="-3.7715130">
        <ele>839.6</ele>
        <time>2019-08-12T08:19:07Z</time>
      </trkpt>
      <trkpt lat="39.3318330" lon="-3.7715440">
        <ele>839.6</ele>
        <time>2019-08-12T08:19:08Z</time>
      </trkpt>
      <trkpt lat="39.3318860" lon="-3.7715760">
        <ele>839.7</ele>
        <time>2019-08-12T08:19:09Z</time>
      </trkpt>
      <trkpt lat="39.3319390" lon="-3.7716070">
        <ele>839.7</ele>
        <time>2019-08-12T08:19:10Z</time>
      </trkpt>
      <trkpt lat="39.3319920" lon="-3.7716380">
        <ele>839.7</ele>
        <time>2019-08-12T08:19:11Z</time>
      </trkpt>
      <trkpt lat="39.3320460" lon="-3.7716690">
        <ele>839.7</ele>
        <time>2019-08-12T08:19:12Z</time>
      </trkpt>
      <trkpt lat="39.3320990" lon="-3.7717000">
        <ele>839.7</ele>
        <time>2019-08-12T08:19:13Z</time>
      </trkpt>
      <trkpt lat="39.3321520" lon="-3.7717320">
        <ele>839.7</ele>
        <time>2019-08-12T08:19:14Z</time>
      </trkpt>
      <trkpt lat="39.3322060" lon="-3.7717630">
        <ele>839.7</ele>
        <time>2019-08-12T08:19:15Z</time>
      </trkpt>
      <trkpt lat="39.3322600" lon="-3.7717940">
        <ele>839.7</ele>
        <time>2019-08-12T08:19:16Z</time>
      </trkpt>
      <trkpt lat="39.3323130" lon="-3.7718250">
        <ele>839.6</ele>
        <time>2019-08-12T08:19:17Z</time>
      </trkpt>
      <trkpt lat="39.3323670" lon="-3.7718560">
        <ele>839.6</ele>
        <time>2019-08-12T08:19:18Z</time>
      </trkpt>
      <trkpt lat="39.3324210" lon="-3.7718870">
        <ele>839.6</ele>
        <time>2019-08-12T08:19:19Z</time>
      </trkpt>
      <trkpt lat="39.3324750" lon="-3.7719180">
        <ele>839.6</ele>
        <time>2019-08-12T08:19:20Z</time>
      </trkpt>
      <trkpt lat="39.3325290" lon="-3.7719490">
        <ele>839.6</ele>
        <time>2019-08-12T08:19:21Z</time>
      </trkpt>
      <trkpt lat="39.3325820" lon="-3.7719800">
        <ele>839.6</ele>
        <time>2019-08-12T08:19:22Z</time>
      </trkpt>
      <trkpt lat="39.3326360" lon="-3.7720100">
        <ele>839.6</ele>
        <time>2019-08-12T08:19:23Z</time>
      </trkpt>
      <trkpt lat="39.3326900" lon="-3.7720410">
        <ele>839.5</ele>
        <time>2019-08-12T08:19:24Z</time>
      </trkpt>
      <trkpt lat="39.3327440" lon="-3.7720710">
        <ele>839.4</ele>
        <time>2019-08-12T08:19:25Z</time>
      </trkpt>
      <trkpt lat="39.3327990" lon="-3.7721020">
        <ele>839.2</ele>
        <time>2019-08-12T08:19:26Z</time>
      </trkpt>
      <trkpt lat="39.3328530" lon="-3.7721330">
        <ele>839.0</ele>
        <time>2019-08-12T08:19:27Z</time>
      </trkpt>
      <trkpt lat="39.3329080" lon="-3.7721640">
        <ele>838.8</ele>
        <time>2019-08-12T08:19:28Z</time>
      </trkpt>
      <trkpt lat="39.3329630" lon="-3.7721950">
        <ele>838.5</ele>
        <time>2019-08-12T08:19:29Z</time>
      </trkpt>
      <trkpt lat="39.3330190" lon="-3.7722270">
        <ele>838.3</ele>
        <time>2019-08-12T08:19:30Z</time>
      </trkpt>
      <trkpt lat="39.3330750" lon="-3.7722580">
        <ele>838.1</ele>
        <time>2019-08-12T08:19:31Z</time>
      </trkpt>
      <trkpt lat="39.3331320" lon="-3.7722910">
        <ele>837.9</ele>
        <time>2019-08-12T08:19:32Z</time>
      </trkpt>
      <trkpt lat="39.3331890" lon="-3.7723230">
        <ele>837.7</ele>
        <time>2019-08-12T08:19:33Z</time>
      </trkpt>
      <trkpt lat="39.3332470" lon="-3.7723560">
        <ele>837.7</ele>
        <time>2019-08-12T08:19:34Z</time>
      </trkpt>
      <trkpt lat="39.3333040" lon="-3.7723890">
        <ele>837.6</ele>
        <time>2019-08-12T08:19:35Z</time>
      </trkpt>
      <trkpt lat="39.3333630" lon="-3.7724220">
        <ele>837.6</ele>
        <time>2019-08-12T08:19:36Z</time>
      </trkpt>
      <trkpt lat="39.3334210" lon="-3.7724560">
        <ele>837.6</ele>
        <time>2019-08-12T08:19:37Z</time>
      </trkpt>
      <trkpt lat="39.3334800" lon="-3.7724900">
        <ele>837.6</ele>
        <time>2019-08-12T08:19:38Z</time>
      </trkpt>
      <trkpt lat="39.3335380" lon="-3.7725230">
        <ele>837.6</ele>
        <time>2019-08-12T08:19:39Z</time>
      </trkpt>
      <trkpt lat="39.3335970" lon="-3.7725580">
        <ele>837.6</ele>
        <time>2019-08-12T08:19:40Z</time>
      </trkpt>
      <trkpt lat="39.3336560" lon="-3.7725920">
        <ele>837.6</ele>
        <time>2019-08-12T08:19:41Z</time>
      </trkpt>
      <trkpt lat="39.3337150" lon="-3.7726260">
        <ele>837.6</ele>
        <time>2019-08-12T08:19:42Z</time>
      </trkpt>
      <trkpt lat="39.3337740" lon="-3.7726600">
        <ele>837.6</ele>
        <time>2019-08-12T08:19:43Z</time>
      </trkpt>
      <trkpt lat="39.3338330" lon="-3.7726950">
        <ele>837.5</ele>
        <time>2019-08-12T08:19:44Z</time>
      </trkpt>
      <trkpt lat="39.3338920" lon="-3.7727290">
        <ele>837.5</ele>
        <time>2019-08-12T08:19:45Z</time>
      </trkpt>
      <trkpt lat="39.3339510" lon="-3.7727630">
        <ele>837.5</ele>
        <time>2019-08-12T08:19:46Z</time>
      </trkpt>
      <trkpt lat="39.3340100" lon="-3.7727970">
        <ele>837.5</ele>
        <time>2019-08-12T08:19:47Z</time>
      </trkpt>
      <trkpt lat="39.3340690" lon="-3.7728310">
        <ele>837.5</ele>
        <time>2019-08-12T08:19:48Z</time>
      </trkpt>
      <trkpt lat="39.3341270" lon="-3.7728650">
        <ele>837.5</ele>
        <time>2019-08-12T08:19:49Z</time>
      </trkpt>
      <trkpt lat="39.3341850" lon="-3.7728990">
        <ele>837.5</ele>
        <time>2019-08-12T08:19:50Z</time>
      </trkpt>
      <trkpt lat="39.3342430" lon="-3.7729330">
        <ele>837.5</ele>
        <time>2019-08-12T08:19:51Z</time>
      </trkpt>
      <trkpt lat="39.3343020" lon="-3.7729660">
        <ele>837.5</ele>
        <time>2019-08-12T08:19:52Z</time>
      </trkpt>
      <trkpt lat="39.3343600" lon="-3.7730000">
        <ele>837.4</ele>
        <time>2019-08-12T08:19:53Z</time>
      </trkpt>
      <trkpt lat="39.3344180" lon="-3.7730330">
        <ele>837.4</ele>
        <time>2019-08-12T08:19:54Z</time>
      </trkpt>
      <trkpt lat="39.3344760" lon="-3.7730660">
        <ele>837.2</ele>
        <time>2019-08-12T08:19:55Z</time>
      </trkpt>
      <trkpt lat="39.3345340" lon="-3.7730990">
        <ele>837.1</ele>
        <time>2019-08-12T08:19:56Z</time>
      </trkpt>
      <trkpt lat="39.3345920" lon="-3.7731330">
        <ele>836.9</ele>
        <time>2019-08-12T08:19:57Z</time>
      </trkpt>
      <trkpt lat="39.3346510" lon="-3.7731660">
        <ele>836.7</ele>
        <time>2019-08-12T08:19:58Z</time>
      </trkpt>
      <trkpt lat="39.3347090" lon="-3.7731990">
        <ele>836.5</ele>
        <time>2019-08-12T08:19:59Z</time>
      </trkpt>
      <trkpt lat="39.3347680" lon="-3.7732320">
        <ele>836.3</ele>
        <time>2019-08-12T08:20:00Z</time>
      </trkpt>
      <trkpt lat="39.3348260" lon="-3.7732660">
        <ele>836.1</ele>
        <time>2019-08-12T08:20:01Z</time>
      </trkpt>
      <trkpt lat="39.3348850" lon="-3.7732990">
        <ele>835.9</ele>
        <time>2019-08-12T08:20:02Z</time>
      </trkpt>
      <trkpt lat="39.3349430" lon="-3.7733320">
        <ele>835.8</ele>
        <time>2019-08-12T08:20:03Z</time>
      </trkpt>
      <trkpt lat="39.3350020" lon="-3.7733650">
        <ele>835.6</ele>
        <time>2019-08-12T08:20:04Z</time>
      </trkpt>
      <trkpt lat="39.3350600" lon="-3.7733990">
        <ele>835.6</ele>
        <time>2019-08-12T08:20:05Z</time>
      </trkpt>
      <trkpt lat="39.3351180" lon="-3.7734320">
        <ele>835.5</ele>
        <time>2019-08-12T08:20:06Z</time>
      </trkpt>
      <trkpt lat="39.3351760" lon="-3.7734650">
        <ele>835.5</ele>
        <time>2019-08-12T08:20:07Z</time>
      </trkpt>
      <trkpt lat="39.3352340" lon="-3.7734980">
        <ele>835.5</ele>
        <time>2019-08-12T08:20:08Z</time>
      </trkpt>
      <trkpt lat="39.3352910" lon="-3.7735310">
        <ele>835.5</ele>
        <time>2019-08-12T08:20:09Z</time>
      </trkpt>
      <trkpt lat="39.3353490" lon="-3.7735630">
        <ele>835.5</ele>
        <time>2019-08-12T08:20:10Z</time>
      </trkpt>
      <trkpt lat="39.3354060" lon="-3.7735960">
        <ele>835.5</ele>
        <time>2019-08-12T08:20:11Z</time>
      </trkpt>
      <trkpt lat="39.3354630" lon="-3.7736290">
        <ele>835.4</ele>
        <time>2019-08-12T08:20:12Z</time>
      </trkpt>
      <trkpt lat="39.3355190" lon="-3.7736610">
        <ele>835.4</ele>
        <time>2019-08-12T08:20:13Z</time>
      </trkpt>
      <trkpt lat="39.3355760" lon="-3.7736940">
        <ele>835.4</ele>
        <time>2019-08-12T08:20:14Z</time>
      </trkpt>
      <trkpt lat="39.3356320" lon="-3.7737260">
        <ele>835.4</ele>
        <time>2019-08-12T08:20:15Z</time>
      </trkpt>
      <trkpt lat="39.3356880" lon="-3.7737590">
        <ele>835.4</ele>
        <time>2019-08-12T08:20:16Z</time>
      </trkpt>
      <trkpt lat="39.3357430" lon="-3.7737910">
        <ele>835.4</ele>
        <time>2019-08-12T08:20:17Z</time>
      </trkpt>
      <trkpt lat="39.3357990" lon="-3.7738230">
        <ele>835.4</ele>
        <time>2019-08-12T08:20:18Z</time>
      </trkpt>
      <trkpt lat="39.3358550" lon="-3.7738550">
        <ele>835.4</ele>
        <time>2019-08-12T08:20:19Z</time>
      </trkpt>
      <trkpt lat="39.3359100" lon="-3.7738870">
        <ele>835.4</ele>
        <time>2019-08-12T08:20:20Z</time>
      </trkpt>
      <trkpt lat="39.3359660" lon="-3.7739200">
        <ele>835.4</ele>
        <time>2019-08-12T08:20:21Z</time>
      </trkpt>
      <trkpt lat="39.3360220" lon="-3.7739520">
        <ele>835.4</ele>
        <time>2019-08-12T08:20:22Z</time>
      </trkpt>
      <trkpt lat="39.3360780" lon="-3.7739850">
        <ele>835.4</ele>
        <time>2019-08-12T08:20:23Z</time>
      </trkpt>
      <trkpt lat="39.3361350" lon="-3.7740180">
        <ele>835.4</ele>
        <time>2019-08-12T08:20:24Z</time>
      </trkpt>
      <trkpt lat="39.3361920" lon="-3.7740510">
        <ele>835.4</ele>
        <time>2019-08-12T08:20:25Z</time>
      </trkpt>
      <trkpt lat="39.3362490" lon="-3.7740850">
        <ele>835.4</ele>
        <time>2019-08-12T08:20:26Z</time>
      </trkpt>
      <trkpt lat="39.3363070" lon="-3.7741180">
        <ele>835.4</ele>
        <time>2019-08-12T08:20:27Z</time>
      </trkpt>
      <trkpt lat="39.3363650" lon="-3.7741520">
        <ele>835.4</ele>
        <time>2019-08-12T08:20:28Z</time>
      </trkpt>
      <trkpt lat="39.3364230" lon="-3.7741860">
        <ele>835.4</ele>
        <time>2019-08-12T08:20:29Z</time>
      </trkpt>
      <trkpt lat="39.3364810" lon="-3.7742210">
        <ele>835.4</ele>
        <time>2019-08-12T08:20:30Z</time>
      </trkpt>
      <trkpt lat="39.3365390" lon="-3.7742550">
        <ele>835.4</ele>
        <time>2019-08-12T08:20:31Z</time>
      </trkpt>
      <trkpt lat="39.3365980" lon="-3.7742890">
        <ele>835.4</ele>
        <time>2019-08-12T08:20:32Z</time>
      </trkpt>
      <trkpt lat="39.3366560" lon="-3.7743230">
        <ele>835.4</ele>
        <time>2019-08-12T08:20:33Z</time>
      </trkpt>
      <trkpt lat="39.3367140" lon="-3.7743570">
        <ele>835.4</ele>
        <time>2019-08-12T08:20:34Z</time>
      </trkpt>
      <trkpt lat="39.3367720" lon="-3.7743900">
        <ele>835.4</ele>
        <time>2019-08-12T08:20:35Z</time>
      </trkpt>
      <trkpt lat="39.3368290" lon="-3.7744240">
        <ele>835.4</ele>
        <time>2019-08-12T08:20:36Z</time>
      </trkpt>
      <trkpt lat="39.3368860" lon="-3.7744570">
        <ele>835.4</ele>
        <time>2019-08-12T08:20:37Z</time>
      </trkpt>
      <trkpt lat="39.3369430" lon="-3.7744900">
        <ele>835.3</ele>
        <time>2019-08-12T08:20:38Z</time>
      </trkpt>
      <trkpt lat="39.3370000" lon="-3.7745230">
        <ele>835.3</ele>
        <time>2019-08-12T08:20:39Z</time>
      </trkpt>
      <trkpt lat="39.3370560" lon="-3.7745560">
        <ele>835.3</ele>
        <time>2019-08-12T08:20:40Z</time>
      </trkpt>
      <trkpt lat="39.3371130" lon="-3.7745890">
        <ele>835.3</ele>
        <time>2019-08-12T08:20:41Z</time>
      </trkpt>
      <trkpt lat="39.3371700" lon="-3.7746210">
        <ele>835.3</ele>
        <time>2019-08-12T08:20:42Z</time>
      </trkpt>
      <trkpt lat="39.3372260" lon="-3.7746540">
        <ele>835.2</ele>
        <time>2019-08-12T08:20:43Z</time>
      </trkpt>
      <trkpt lat="39.3372830" lon="-3.7746870">
        <ele>835.1</ele>
        <time>2019-08-12T08:20:44Z</time>
      </trkpt>
      <trkpt lat="39.3373390" lon="-3.7747190">
        <ele>834.9</ele>
        <time>2019-08-12T08:20:45Z</time>
      </trkpt>
      <trkpt lat="39.3373960" lon="-3.7747520">
        <ele>834.8</ele>
        <time>2019-08-12T08:20:46Z</time>
      </trkpt>
      <trkpt lat="39.3374520" lon="-3.7747850">
        <ele>834.6</ele>
        <time>2019-08-12T08:20:47Z</time>
      </trkpt>
      <trkpt lat="39.3375090" lon="-3.7748170">
        <ele>834.5</ele>
        <time>2019-08-12T08:20:48Z</time>
      </trkpt>
      <trkpt lat="39.3375660" lon="-3.7748500">
        <ele>834.4</ele>
        <time>2019-08-12T08:20:49Z</time>
      </trkpt>
      <trkpt lat="39.3376240" lon="-3.7748830">
        <ele>834.4</ele>
        <time>2019-08-12T08:20:50Z</time>
      </trkpt>
      <trkpt lat="39.3376810" lon="-3.7749170">
        <ele>834.3</ele>
        <time>2019-08-12T08:20:51Z</time>
      </trkpt>
      <trkpt lat="39.3377390" lon="-3.7749500">
        <ele>834.3</ele>
        <time>2019-08-12T08:20:52Z</time>
      </trkpt>
      <trkpt lat="39.3377970" lon="-3.7749840">
        <ele>834.3</ele>
        <time>2019-08-12T08:20:53Z</time>
      </trkpt>
      <trkpt lat="39.3378560" lon="-3.7750180">
        <ele>834.3</ele>
        <time>2019-08-12T08:20:54Z</time>
      </trkpt>
      <trkpt lat="39.3379140" lon="-3.7750520">
        <ele>834.3</ele>
        <time>2019-08-12T08:20:55Z</time>
      </trkpt>
      <trkpt lat="39.3379730" lon="-3.7750860">
        <ele>834.2</ele>
        <time>2019-08-12T08:20:56Z</time>
      </trkpt>
      <trkpt lat="39.3380330" lon="-3.7751210">
        <ele>834.2</ele>
        <time>2019-08-12T08:20:57Z</time>
      </trkpt>
      <trkpt lat="39.3380920" lon="-3.7751550">
        <ele>834.1</ele>
        <time>2019-08-12T08:20:58Z</time>
      </trkpt>
      <trkpt lat="39.3381520" lon="-3.7751900">
        <ele>834.0</ele>
        <time>2019-08-12T08:20:59Z</time>
      </trkpt>
      <trkpt lat="39.3382120" lon="-3.7752250">
        <ele>833.8</ele>
        <time>2019-08-12T08:21:00Z</time>
      </trkpt>
      <trkpt lat="39.3382720" lon="-3.7752600">
        <ele>833.6</ele>
        <time>2019-08-12T08:21:01Z</time>
      </trkpt>
      <trkpt lat="39.3383320" lon="-3.7752950">
        <ele>833.5</ele>
        <time>2019-08-12T08:21:02Z</time>
      </trkpt>
      <trkpt lat="39.3383930" lon="-3.7753300">
        <ele>833.4</ele>
        <time>2019-08-12T08:21:03Z</time>
      </trkpt>
      <trkpt lat="39.3384530" lon="-3.7753650">
        <ele>833.3</ele>
        <time>2019-08-12T08:21:04Z</time>
      </trkpt>
      <trkpt lat="39.3385140" lon="-3.7754010">
        <ele>833.3</ele>
        <time>2019-08-12T08:21:05Z</time>
      </trkpt>
      <trkpt lat="39.3385750" lon="-3.7754360">
        <ele>833.3</ele>
        <time>2019-08-12T08:21:06Z</time>
      </trkpt>
      <trkpt lat="39.3386360" lon="-3.7754720">
        <ele>833.2</ele>
        <time>2019-08-12T08:21:07Z</time>
      </trkpt>
      <trkpt lat="39.3386970" lon="-3.7755070">
        <ele>833.2</ele>
        <time>2019-08-12T08:21:08Z</time>
      </trkpt>
      <trkpt lat="39.3387580" lon="-3.7755430">
        <ele>833.2</ele>
        <time>2019-08-12T08:21:09Z</time>
      </trkpt>
      <trkpt lat="39.3388200" lon="-3.7755780">
        <ele>833.2</ele>
        <time>2019-08-12T08:21:10Z</time>
      </trkpt>
      <trkpt lat="39.3388810" lon="-3.7756140">
        <ele>833.2</ele>
        <time>2019-08-12T08:21:11Z</time>
      </trkpt>
      <trkpt lat="39.3389420" lon="-3.7756500">
        <ele>833.2</ele>
        <time>2019-08-12T08:21:12Z</time>
      </trkpt>
      <trkpt lat="39.3390040" lon="-3.7756850">
        <ele>833.2</ele>
        <time>2019-08-12T08:21:13Z</time>
      </trkpt>
      <trkpt lat="39.3390650" lon="-3.7757210">
        <ele>833.2</ele>
        <time>2019-08-12T08:21:14Z</time>
      </trkpt>
      <trkpt lat="39.3391260" lon="-3.7757560">
        <ele>833.1</ele>
        <time>2019-08-12T08:21:15Z</time>
      </trkpt>
      <trkpt lat="39.3391870" lon="-3.7757910">
        <ele>833.1</ele>
        <time>2019-08-12T08:21:16Z</time>
      </trkpt>
      <trkpt lat="39.3392480" lon="-3.7758270">
        <ele>832.9</ele>
        <time>2019-08-12T08:21:17Z</time>
      </trkpt>
      <trkpt lat="39.3393090" lon="-3.7758620">
        <ele>832.8</ele>
        <time>2019-08-12T08:21:18Z</time>
      </trkpt>
      <trkpt lat="39.3393700" lon="-3.7758970">
        <ele>832.6</ele>
        <time>2019-08-12T08:21:19Z</time>
      </trkpt>
      <trkpt lat="39.3394300" lon="-3.7759320">
        <ele>832.5</ele>
        <time>2019-08-12T08:21:20Z</time>
      </trkpt>
      <trkpt lat="39.3394900" lon="-3.7759670">
        <ele>832.4</ele>
        <time>2019-08-12T08:21:21Z</time>
      </trkpt>
      <trkpt lat="39.3395500" lon="-3.7760010">
        <ele>832.3</ele>
        <time>2019-08-12T08:21:22Z</time>
      </trkpt>
      <trkpt lat="39.3396090" lon="-3.7760360">
        <ele>832.2</ele>
        <time>2019-08-12T08:21:23Z</time>
      </trkpt>
      <trkpt lat="39.3396690" lon="-3.7760700">
        <ele>832.2</ele>
        <time>2019-08-12T08:21:24Z</time>
      </trkpt>
      <trkpt lat="39.3397280" lon="-3.7761050">
        <ele>832.2</ele>
        <time>2019-08-12T08:21:25Z</time>
      </trkpt>
      <trkpt lat="39.3397870" lon="-3.7761390">
        <ele>832.2</ele>
        <time>2019-08-12T08:21:26Z</time>
      </trkpt>
      <trkpt lat="39.3398470" lon="-3.7761730">
        <ele>832.2</ele>
        <time>2019-08-12T08:21:27Z</time>
      </trkpt>
      <trkpt lat="39.3399060" lon="-3.7762070">
        <ele>832.2</ele>
        <time>2019-08-12T08:21:28Z</time>
      </trkpt>
      <trkpt lat="39.3399650" lon="-3.7762410">
        <ele>832.2</ele>
        <time>2019-08-12T08:21:29Z</time>
      </trkpt>
      <trkpt lat="39.3400250" lon="-3.7762760">
        <ele>832.1</ele>
        <time>2019-08-12T08:21:30Z</time>
      </trkpt>
      <trkpt lat="39.3400840" lon="-3.7763100">
        <ele>832.1</ele>
        <time>2019-08-12T08:21:31Z</time>
      </trkpt>
      <trkpt lat="39.3401440" lon="-3.7763440">
        <ele>832.1</ele>
        <time>2019-08-12T08:21:32Z</time>
      </trkpt>
      <trkpt lat="39.3402030" lon="-3.7763780">
        <ele>832.1</ele>
        <time>2019-08-12T08:21:33Z</time>
      </trkpt>
      <trkpt lat="39.3402630" lon="-3.7764130">
        <ele>832.1</ele>
        <time>2019-08-12T08:21:34Z</time>
      </trkpt>
      <trkpt lat="39.3403220" lon="-3.7764480">
        <ele>832.0</ele>
        <time>2019-08-12T08:21:35Z</time>
      </trkpt>
      <trkpt lat="39.3403810" lon="-3.7764820">
        <ele>831.9</ele>
        <time>2019-08-12T08:21:36Z</time>
      </trkpt>
      <trkpt lat="39.3404400" lon="-3.7765170">
        <ele>831.8</ele>
        <time>2019-08-12T08:21:37Z</time>
      </trkpt>
      <trkpt lat="39.3404990" lon="-3.7765520">
        <ele>831.6</ele>
        <time>2019-08-12T08:21:38Z</time>
      </trkpt>
      <trkpt lat="39.3405580" lon="-3.7765870">
        <ele>831.5</ele>
        <time>2019-08-12T08:21:39Z</time>
      </trkpt>
      <trkpt lat="39.3406180" lon="-3.7766220">
        <ele>831.4</ele>
        <time>2019-08-12T08:21:40Z</time>
      </trkpt>
      <trkpt lat="39.3406770" lon="-3.7766570">
        <ele>831.3</ele>
        <time>2019-08-12T08:21:41Z</time>
      </trkpt>
      <trkpt lat="39.3407370" lon="-3.7766920">
        <ele>831.2</ele>
        <time>2019-08-12T08:21:42Z</time>
      </trkpt>
      <trkpt lat="39.3407970" lon="-3.7767260">
        <ele>831.2</ele>
        <time>2019-08-12T08:21:43Z</time>
      </trkpt>
      <trkpt lat="39.3408560" lon="-3.7767610">
        <ele>831.2</ele>
        <time>2019-08-12T08:21:44Z</time>
      </trkpt>
      <trkpt lat="39.3409150" lon="-3.7767950">
        <ele>831.2</ele>
        <time>2019-08-12T08:21:45Z</time>
      </trkpt>
      <trkpt lat="39.3409750" lon="-3.7768290">
        <ele>831.2</ele>
        <time>2019-08-12T08:21:46Z</time>
      </trkpt>
      <trkpt lat="39.3410340" lon="-3.7768630">
        <ele>831.2</ele>
        <time>2019-08-12T08:21:47Z</time>
      </trkpt>
      <trkpt lat="39.3410920" lon="-3.7768970">
        <ele>831.2</ele>
        <time>2019-08-12T08:21:48Z</time>
      </trkpt>
      <trkpt lat="39.3411500" lon="-3.7769300">
        <ele>831.2</ele>
        <time>2019-08-12T08:21:49Z</time>
      </trkpt>
      <trkpt lat="39.3412080" lon="-3.7769630">
        <ele>831.2</ele>
        <time>2019-08-12T08:21:50Z</time>
      </trkpt>
      <trkpt lat="39.3412660" lon="-3.7769960">
        <ele>831.2</ele>
        <time>2019-08-12T08:21:51Z</time>
      </trkpt>
      <trkpt lat="39.3413230" lon="-3.7770290">
        <ele>831.2</ele>
        <time>2019-08-12T08:21:52Z</time>
      </trkpt>
      <trkpt lat="39.3413800" lon="-3.7770620">
        <ele>831.2</ele>
        <time>2019-08-12T08:21:53Z</time>
      </trkpt>
      <trkpt lat="39.3414360" lon="-3.7770940">
        <ele>831.2</ele>
        <time>2019-08-12T08:21:54Z</time>
      </trkpt>
      <trkpt lat="39.3414930" lon="-3.7771260">
        <ele>831.1</ele>
        <time>2019-08-12T08:21:55Z</time>
      </trkpt>
      <trkpt lat="39.3415490" lon="-3.7771590">
        <ele>831.1</ele>
        <time>2019-08-12T08:21:56Z</time>
      </trkpt>
      <trkpt lat="39.3416050" lon="-3.7771910">
        <ele>831.1</ele>
        <time>2019-08-12T08:21:57Z</time>
      </trkpt>
      <trkpt lat="39.3416600" lon="-3.7772240">
        <ele>831.1</ele>
        <time>2019-08-12T08:21:58Z</time>
      </trkpt>
      <trkpt lat="39.3417160" lon="-3.7772560">
        <ele>831.1</ele>
        <time>2019-08-12T08:21:59Z</time>
      </trkpt>
      <trkpt lat="39.3417720" lon="-3.7772890">
        <ele>831.1</ele>
        <time>2019-08-12T08:22:00Z</time>
      </trkpt>
      <trkpt lat="39.3418270" lon="-3.7773210">
        <ele>831.1</ele>
        <time>2019-08-12T08:22:01Z</time>
      </trkpt>
      <trkpt lat="39.3418830" lon="-3.7773540">
        <ele>831.1</ele>
        <time>2019-08-12T08:22:02Z</time>
      </trkpt>
      <trkpt lat="39.3419380" lon="-3.7773870">
        <ele>831.1</ele>
        <time>2019-08-12T08:22:03Z</time>
      </trkpt>
      <trkpt lat="39.3419940" lon="-3.7774200">
        <ele>831.1</ele>
        <time>2019-08-12T08:22:04Z</time>
      </trkpt>
      <trkpt lat="39.3420500" lon="-3.7774530">
        <ele>831.1</ele>
        <time>2019-08-12T08:22:05Z</time>
      </trkpt>
      <trkpt lat="39.3421060" lon="-3.7774860">
        <ele>831.1</ele>
        <time>2019-08-12T08:22:06Z</time>
      </trkpt>
      <trkpt lat="39.3421620" lon="-3.7775200">
        <ele>831.1</ele>
        <time>2019-08-12T08:22:07Z</time>
      </trkpt>
      <trkpt lat="39.3422190" lon="-3.7775530">
        <ele>831.1</ele>
        <time>2019-08-12T08:22:08Z</time>
      </trkpt>
      <trkpt lat="39.3422750" lon="-3.7775870">
        <ele>831.1</ele>
        <time>2019-08-12T08:22:09Z</time>
      </trkpt>
      <trkpt lat="39.3423320" lon="-3.7776200">
        <ele>831.1</ele>
        <time>2019-08-12T08:22:10Z</time>
      </trkpt>
      <trkpt lat="39.3423880" lon="-3.7776540">
        <ele>831.1</ele>
        <time>2019-08-12T08:22:11Z</time>
      </trkpt>
      <trkpt lat="39.3424450" lon="-3.7776870">
        <ele>831.1</ele>
        <time>2019-08-12T08:22:12Z</time>
      </trkpt>
      <trkpt lat="39.3425010" lon="-3.7777200">
        <ele>831.1</ele>
        <time>2019-08-12T08:22:13Z</time>
      </trkpt>
      <trkpt lat="39.3425570" lon="-3.7777530">
        <ele>831.1</ele>
        <time>2019-08-12T08:22:14Z</time>
      </trkpt>
      <trkpt lat="39.3426120" lon="-3.7777850">
        <ele>831.1</ele>
        <time>2019-08-12T08:22:15Z</time>
      </trkpt>
      <trkpt lat="39.3426680" lon="-3.7778180">
        <ele>831.1</ele>
        <time>2019-08-12T08:22:16Z</time>
      </trkpt>
      <trkpt lat="39.3427230" lon="-3.7778490">
        <ele>831.1</ele>
        <time>2019-08-12T08:22:17Z</time>
      </trkpt>
      <trkpt lat="39.3427770" lon="-3.7778810">
        <ele>831.1</ele>
        <time>2019-08-12T08:22:18Z</time>
      </trkpt>
      <trkpt lat="39.3428310" lon="-3.7779120">
        <ele>831.1</ele>
        <time>2019-08-12T08:22:19Z</time>
      </trkpt>
      <trkpt lat="39.3428850" lon="-3.7779420">
        <ele>831.1</ele>
        <time>2019-08-12T08:22:20Z</time>
      </trkpt>
      <trkpt lat="39.3429380" lon="-3.7779730">
        <ele>831.1</ele>
        <time>2019-08-12T08:22:21Z</time>
      </trkpt>
      <trkpt lat="39.3429910" lon="-3.7780030">
        <ele>831.1</ele>
        <time>2019-08-12T08:22:22Z</time>
      </trkpt>
      <trkpt lat="39.3430440" lon="-3.7780330">
        <ele>831.1</ele>
        <time>2019-08-12T08:22:23Z</time>
      </trkpt>
      <trkpt lat="39.3430960" lon="-3.7780630">
        <ele>831.2</ele>
        <time>2019-08-12T08:22:24Z</time>
      </trkpt>
      <trkpt lat="39.3431480" lon="-3.7780930">
        <ele>831.3</ele>
        <time>2019-08-12T08:22:25Z</time>
      </trkpt>
      <trkpt lat="39.3432010" lon="-3.7781230">
        <ele>831.4</ele>
        <time>2019-08-12T08:22:26Z</time>
      </trkpt>
      <trkpt lat="39.3432530" lon="-3.7781530">
        <ele>831.5</ele>
        <time>2019-08-12T08:22:27Z</time>
      </trkpt>
      <trkpt lat="39.3433040" lon="-3.7781820">
        <ele>831.6</ele>
        <time>2019-08-12T08:22:28Z</time>
      </trkpt>
      <trkpt lat="39.3433560" lon="-3.7782120">
        <ele>831.7</ele>
        <time>2019-08-12T08:22:29Z</time>
      </trkpt>
      <trkpt lat="39.3434080" lon="-3.7782410">
        <ele>831.8</ele>
        <time>2019-08-12T08:22:30Z</time>
      </trkpt>
      <trkpt lat="39.3434590" lon="-3.7782700">
        <ele>831.8</ele>
        <time>2019-08-12T08:22:31Z</time>
      </trkpt>
      <trkpt lat="39.3435110" lon="-3.7782990">
        <ele>831.9</ele>
        <time>2019-08-12T08:22:32Z</time>
      </trkpt>
      <trkpt lat="39.3435620" lon="-3.7783290">
        <ele>831.9</ele>
        <time>2019-08-12T08:22:33Z</time>
      </trkpt>
      <trkpt lat="39.3436140" lon="-3.7783580">
        <ele>831.9</ele>
        <time>2019-08-12T08:22:34Z</time>
      </trkpt>
      <trkpt lat="39.3436650" lon="-3.7783870">
        <ele>831.9</ele>
        <time>2019-08-12T08:22:35Z</time>
      </trkpt>
      <trkpt lat="39.3437170" lon="-3.7784170">
        <ele>831.9</ele>
        <time>2019-08-12T08:22:36Z</time>
      </trkpt>
      <trkpt lat="39.3437690" lon="-3.7784470">
        <ele>831.9</ele>
        <time>2019-08-12T08:22:37Z</time>
      </trkpt>
      <trkpt lat="39.3438200" lon="-3.7784770">
        <ele>831.9</ele>
        <time>2019-08-12T08:22:38Z</time>
      </trkpt>
      <trkpt lat="39.3438720" lon="-3.7785070">
        <ele>831.9</ele>
        <time>2019-08-12T08:22:39Z</time>
      </trkpt>
      <trkpt lat="39.3439240" lon="-3.7785370">
        <ele>831.9</ele>
        <time>2019-08-12T08:22:40Z</time>
      </trkpt>
      <trkpt lat="39.3439760" lon="-3.7785670">
        <ele>831.9</ele>
        <time>2019-08-12T08:22:41Z</time>
      </trkpt>
      <trkpt lat="39.3440280" lon="-3.7785980">
        <ele>831.9</ele>
        <time>2019-08-12T08:22:42Z</time>
      </trkpt>
      <trkpt lat="39.3440790" lon="-3.7786280">
        <ele>831.9</ele>
        <time>2019-08-12T08:22:43Z</time>
      </trkpt>
      <trkpt lat="39.3441310" lon="-3.7786580">
        <ele>831.9</ele>
        <time>2019-08-12T08:22:44Z</time>
      </trkpt>
      <trkpt lat="39.3441830" lon="-3.7786880">
        <ele>831.9</ele>
        <time>2019-08-12T08:22:45Z</time>
      </trkpt>
      <trkpt lat="39.3442350" lon="-3.7787180">
        <ele>831.9</ele>
        <time>2019-08-12T08:22:46Z</time>
      </trkpt>
      <trkpt lat="39.3442870" lon="-3.7787480">
        <ele>831.9</ele>
        <time>2019-08-12T08:22:47Z</time>
      </trkpt>
      <trkpt lat="39.3443390" lon="-3.7787790">
        <ele>831.9</ele>
        <time>2019-08-12T08:22:48Z</time>
      </trkpt>
      <trkpt lat="39.3443920" lon="-3.7788090">
        <ele>831.9</ele>
        <time>2019-08-12T08:22:49Z</time>
      </trkpt>
      <trkpt lat="39.3444460" lon="-3.7788400">
        <ele>831.9</ele>
        <time>2019-08-12T08:22:50Z</time>
      </trkpt>
      <trkpt lat="39.3445000" lon="-3.7788720">
        <ele>831.9</ele>
        <time>2019-08-12T08:22:51Z</time>
      </trkpt>
      <trkpt lat="39.3445550" lon="-3.7789030">
        <ele>831.8</ele>
        <time>2019-08-12T08:22:52Z</time>
      </trkpt>
      <trkpt lat="39.3446110" lon="-3.7789350">
        <ele>831.8</ele>
        <time>2019-08-12T08:22:53Z</time>
      </trkpt>
      <trkpt lat="39.3446680" lon="-3.7789680">
        <ele>831.8</ele>
        <time>2019-08-12T08:22:54Z</time>
      </trkpt>
      <trkpt lat="39.3447250" lon="-3.7790010">
        <ele>831.7</ele>
        <time>2019-08-12T08:22:55Z</time>
      </trkpt>
      <trkpt lat="39.3447830" lon="-3.7790340">
        <ele>831.5</ele>
        <time>2019-08-12T08:22:56Z</time>
      </trkpt>
      <trkpt lat="39.3448420" lon="-3.7790680">
        <ele>831.4</ele>
        <time>2019-08-12T08:22:57Z</time>
      </trkpt>
      <trkpt lat="39.3449010" lon="-3.7791020">
        <ele>831.3</ele>
        <time>2019-08-12T08:22:58Z</time>
      </trkpt>
      <trkpt lat="39.3449590" lon="-3.7791360">
        <ele>831.1</ele>
        <time>2019-08-12T08:22:59Z</time>
      </trkpt>
      <trkpt lat="39.3450180" lon="-3.7791700">
        <ele>831.0</ele>
        <time>2019-08-12T08:23:00Z</time>
      </trkpt>
      <trkpt lat="39.3450770" lon="-3.7792040">
        <ele>831.0</ele>
        <time>2019-08-12T08:23:01Z</time>
      </trkpt>
      <trkpt lat="39.3451350" lon="-3.7792370">
        <ele>830.9</ele>
        <time>2019-08-12T08:23:02Z</time>
      </trkpt>
      <trkpt lat="39.3451920" lon="-3.7792710">
        <ele>830.9</ele>
        <time>2019-08-12T08:23:03Z</time>
      </trkpt>
      <trkpt lat="39.3452490" lon="-3.7793040">
        <ele>830.9</ele>
        <time>2019-08-12T08:23:04Z</time>
      </trkpt>
      <trkpt lat="39.3453050" lon="-3.7793370">
        <ele>830.9</ele>
        <time>2019-08-12T08:23:05Z</time>
      </trkpt>
      <trkpt lat="39.3453610" lon="-3.7793700">
        <ele>830.9</ele>
        <time>2019-08-12T08:23:06Z</time>
      </trkpt>
      <trkpt lat="39.3454160" lon="-3.7794030">
        <ele>830.9</ele>
        <time>2019-08-12T08:23:07Z</time>
      </trkpt>
      <trkpt lat="39.3454710" lon="-3.7794350">
        <ele>830.9</ele>
        <time>2019-08-12T08:23:08Z</time>
      </trkpt>
      <trkpt lat="39.3455260" lon="-3.7794670">
        <ele>830.8</ele>
        <time>2019-08-12T08:23:09Z</time>
      </trkpt>
      <trkpt lat="39.3455800" lon="-3.7794990">
        <ele>830.8</ele>
        <time>2019-08-12T08:23:10Z</time>
      </trkpt>
      <trkpt lat="39.3456340" lon="-3.7795310">
        <ele>830.6</ele>
        <time>2019-08-12T08:23:11Z</time>
      </trkpt>
      <trkpt lat="39.3456890" lon="-3.7795630">
        <ele>830.5</ele>
        <time>2019-08-12T08:23:12Z</time>
      </trkpt>
      <trkpt lat="39.3457430" lon="-3.7795940">
        <ele>830.3</ele>
        <time>2019-08-12T08:23:13Z</time>
      </trkpt>
      <trkpt lat="39.3457970" lon="-3.7796260">
        <ele>830.1</ele>
        <time>2019-08-12T08:23:14Z</time>
      </trkpt>
      <trkpt lat="39.3458510" lon="-3.7796570">
        <ele>829.9</ele>
        <time>2019-08-12T08:23:15Z</time>
      </trkpt>
      <trkpt lat="39.3459060" lon="-3.7796890">
        <ele>829.7</ele>
        <time>2019-08-12T08:23:16Z</time>
      </trkpt>
      <trkpt lat="39.3459610" lon="-3.7797200">
        <ele>829.6</ele>
        <time>2019-08-12T08:23:17Z</time>
      </trkpt>
      <trkpt lat="39.3460170" lon="-3.7797530">
        <ele>829.4</ele>
        <time>2019-08-12T08:23:18Z</time>
      </trkpt>
      <trkpt lat="39.3460740" lon="-3.7797850">
        <ele>829.2</ele>
        <time>2019-08-12T08:23:19Z</time>
      </trkpt>
      <trkpt lat="39.3461320" lon="-3.7798180">
        <ele>829.0</ele>
        <time>2019-08-12T08:23:20Z</time>
      </trkpt>
      <trkpt lat="39.3461900" lon="-3.7798520">
        <ele>828.9</ele>
        <time>2019-08-12T08:23:21Z</time>
      </trkpt>
      <trkpt lat="39.3462500" lon="-3.7798860">
        <ele>828.8</ele>
        <time>2019-08-12T08:23:22Z</time>
      </trkpt>
      <trkpt lat="39.3463100" lon="-3.7799200">
        <ele>828.6</ele>
        <time>2019-08-12T08:23:23Z</time>
      </trkpt>
      <trkpt lat="39.3463700" lon="-3.7799540">
        <ele>828.4</ele>
        <time>2019-08-12T08:23:24Z</time>
      </trkpt>
      <trkpt lat="39.3464290" lon="-3.7799880">
        <ele>828.2</ele>
        <time>2019-08-12T08:23:25Z</time>
      </trkpt>
      <trkpt lat="39.3464890" lon="-3.7800230">
        <ele>828.0</ele>
        <time>2019-08-12T08:23:26Z</time>
      </trkpt>
      <trkpt lat="39.3465480" lon="-3.7800570">
        <ele>827.8</ele>
        <time>2019-08-12T08:23:27Z</time>
      </trkpt>
      <trkpt lat="39.3466070" lon="-3.7800910">
        <ele>827.6</ele>
        <time>2019-08-12T08:23:28Z</time>
      </trkpt>
      <trkpt lat="39.3466660" lon="-3.7801250">
        <ele>827.4</ele>
        <time>2019-08-12T08:23:29Z</time>
      </trkpt>
      <trkpt lat="39.3467260" lon="-3.7801600">
        <ele>827.2</ele>
        <time>2019-08-12T08:23:30Z</time>
      </trkpt>
      <trkpt lat="39.3467860" lon="-3.7801950">
        <ele>827.0</ele>
        <time>2019-08-12T08:23:31Z</time>
      </trkpt>
      <trkpt lat="39.3468470" lon="-3.7802300">
        <ele>826.8</ele>
        <time>2019-08-12T08:23:32Z</time>
      </trkpt>
      <trkpt lat="39.3469090" lon="-3.7802660">
        <ele>826.7</ele>
        <time>2019-08-12T08:23:33Z</time>
      </trkpt>
      <trkpt lat="39.3469710" lon="-3.7803020">
        <ele>826.6</ele>
        <time>2019-08-12T08:23:34Z</time>
      </trkpt>
      <trkpt lat="39.3470330" lon="-3.7803380">
        <ele>826.6</ele>
        <time>2019-08-12T08:23:35Z</time>
      </trkpt>
      <trkpt lat="39.3470950" lon="-3.7803740">
        <ele>826.6</ele>
        <time>2019-08-12T08:23:36Z</time>
      </trkpt>
      <trkpt lat="39.3471560" lon="-3.7804100">
        <ele>826.6</ele>
        <time>2019-08-12T08:23:37Z</time>
      </trkpt>
      <trkpt lat="39.3472170" lon="-3.7804460">
        <ele>826.6</ele>
        <time>2019-08-12T08:23:38Z</time>
      </trkpt>
      <trkpt lat="39.3472770" lon="-3.7804810">
        <ele>826.7</ele>
        <time>2019-08-12T08:23:39Z</time>
      </trkpt>
      <trkpt lat="39.3473360" lon="-3.7805160">
        <ele>826.8</ele>
        <time>2019-08-12T08:23:40Z</time>
      </trkpt>
      <trkpt lat="39.3473940" lon="-3.7805500">
        <ele>826.9</ele>
        <time>2019-08-12T08:23:41Z</time>
      </trkpt>
      <trkpt lat="39.3474520" lon="-3.7805840">
        <ele>827.0</ele>
        <time>2019-08-12T08:23:42Z</time>
      </trkpt>
      <trkpt lat="39.3475090" lon="-3.7806170">
        <ele>827.2</ele>
        <time>2019-08-12T08:23:43Z</time>
      </trkpt>
      <trkpt lat="39.3475650" lon="-3.7806510">
        <ele>827.3</ele>
        <time>2019-08-12T08:23:44Z</time>
      </trkpt>
      <trkpt lat="39.3476200" lon="-3.7806830">
        <ele>827.4</ele>
        <time>2019-08-12T08:23:45Z</time>
      </trkpt>
      <trkpt lat="39.3476750" lon="-3.7807160">
        <ele>827.4</ele>
        <time>2019-08-12T08:23:46Z</time>
      </trkpt>
      <trkpt lat="39.3477290" lon="-3.7807480">
        <ele>827.5</ele>
        <time>2019-08-12T08:23:47Z</time>
      </trkpt>
      <trkpt lat="39.3477830" lon="-3.7807800">
        <ele>827.5</ele>
        <time>2019-08-12T08:23:48Z</time>
      </trkpt>
      <trkpt lat="39.3478360" lon="-3.7808120">
        <ele>827.5</ele>
        <time>2019-08-12T08:23:49Z</time>
      </trkpt>
      <trkpt lat="39.3478900" lon="-3.7808440">
        <ele>827.5</ele>
        <time>2019-08-12T08:23:50Z</time>
      </trkpt>
      <trkpt lat="39.3479420" lon="-3.7808750">
        <ele>827.5</ele>
        <time>2019-08-12T08:23:51Z</time>
      </trkpt>
      <trkpt lat="39.3479950" lon="-3.7809060">
        <ele>827.5</ele>
        <time>2019-08-12T08:23:52Z</time>
      </trkpt>
      <trkpt lat="39.3480470" lon="-3.7809370">
        <ele>827.5</ele>
        <time>2019-08-12T08:23:53Z</time>
      </trkpt>
      <trkpt lat="39.3480980" lon="-3.7809680">
        <ele>827.5</ele>
        <time>2019-08-12T08:23:54Z</time>
      </trkpt>
      <trkpt lat="39.3481500" lon="-3.7809980">
        <ele>827.5</ele>
        <time>2019-08-12T08:23:55Z</time>
      </trkpt>
      <trkpt lat="39.3482010" lon="-3.7810270">
        <ele>827.6</ele>
        <time>2019-08-12T08:23:56Z</time>
      </trkpt>
      <trkpt lat="39.3482520" lon="-3.7810570">
        <ele>827.6</ele>
        <time>2019-08-12T08:23:57Z</time>
      </trkpt>
      <trkpt lat="39.3483020" lon="-3.7810850">
        <ele>827.7</ele>
        <time>2019-08-12T08:23:58Z</time>
      </trkpt>
      <trkpt lat="39.3483520" lon="-3.7811140">
        <ele>827.8</ele>
        <time>2019-08-12T08:23:59Z</time>
      </trkpt>
      <trkpt lat="39.3484020" lon="-3.7811420">
        <ele>828.0</ele>
        <time>2019-08-12T08:24:00Z</time>
      </trkpt>
      <trkpt lat="39.3484520" lon="-3.7811700">
        <ele>828.1</ele>
        <time>2019-08-12T08:24:01Z</time>
      </trkpt>
      <trkpt lat="39.3485020" lon="-3.7811980">
        <ele>828.1</ele>
        <time>2019-08-12T08:24:02Z</time>
      </trkpt>
      <trkpt lat="39.3485520" lon="-3.7812260">
        <ele>828.2</ele>
        <time>2019-08-12T08:24:03Z</time>
      </trkpt>
      <trkpt lat="39.3486020" lon="-3.7812540">
        <ele>828.3</ele>
        <time>2019-08-12T08:24:04Z</time>
      </trkpt>
      <trkpt lat="39.3486530" lon="-3.7812820">
        <ele>828.3</ele>
        <time>2019-08-12T08:24:05Z</time>
      </trkpt>
      <trkpt lat="39.3487030" lon="-3.7813110">
        <ele>828.3</ele>
        <time>2019-08-12T08:24:06Z</time>
      </trkpt>
      <trkpt lat="39.3487540" lon="-3.7813400">
        <ele>828.3</ele>
        <time>2019-08-12T08:24:07Z</time>
      </trkpt>
      <trkpt lat="39.3488050" lon="-3.7813700">
        <ele>828.3</ele>
        <time>2019-08-12T08:24:08Z</time>
      </trkpt>
      <trkpt lat="39.3488570" lon="-3.7814000">
        <ele>828.3</ele>
        <time>2019-08-12T08:24:09Z</time>
      </trkpt>
      <trkpt lat="39.3489090" lon="-3.7814310">
        <ele>828.3</ele>
        <time>2019-08-12T08:24:10Z</time>
      </trkpt>
      <trkpt lat="39.3489620" lon="-3.7814630">
        <ele>828.3</ele>
        <time>2019-08-12T08:24:11Z</time>
      </trkpt>
      <trkpt lat="39.3490150" lon="-3.7814950">
        <ele>828.2</ele>
        <time>2019-08-12T08:24:12Z</time>
      </trkpt>
      <trkpt lat="39.3490690" lon="-3.7815270">
        <ele>828.2</ele>
        <time>2019-08-12T08:24:13Z</time>
      </trkpt>
      <trkpt lat="39.3491230" lon="-3.7815600">
        <ele>828.1</ele>
        <time>2019-08-12T08:24:14Z</time>
      </trkpt>
      <trkpt lat="39.3491770" lon="-3.7815930">
        <ele>828.0</ele>
        <time>2019-08-12T08:24:15Z</time>
      </trkpt>
      <trkpt lat="39.3492320" lon="-3.7816260">
        <ele>828.0</ele>
        <time>2019-08-12T08:24:16Z</time>
      </trkpt>
      <trkpt lat="39.3492880" lon="-3.7816600">
        <ele>827.9</ele>
        <time>2019-08-12T08:24:17Z</time>
      </trkpt>
      <trkpt lat="39.3493430" lon="-3.7816940">
        <ele>827.8</ele>
        <time>2019-08-12T08:24:18Z</time>
      </trkpt>
      <trkpt lat="39.3494000" lon="-3.7817290">
        <ele>827.7</ele>
        <time>2019-08-12T08:24:19Z</time>
      </trkpt>
      <trkpt lat="39.3494570" lon="-3.7817630">
        <ele>827.7</ele>
        <time>2019-08-12T08:24:20Z</time>
      </trkpt>
      <trkpt lat="39.3495150" lon="-3.7817980">
        <ele>827.6</ele>
        <time>2019-08-12T08:24:21Z</time>
      </trkpt>
      <trkpt lat="39.3495730" lon="-3.7818330">
        <ele>827.5</ele>
        <time>2019-08-12T08:24:22Z</time>
      </trkpt>
      <trkpt lat="39.3496320" lon="-3.7818660">
        <ele>827.4</ele>
        <time>2019-08-12T08:24:23Z</time>
      </trkpt>
      <trkpt lat="39.3496910" lon="-3.7818990">
        <ele>827.3</ele>
        <time>2019-08-12T08:24:24Z</time>
      </trkpt>
      <trkpt lat="39.3497520" lon="-3.7819290">
        <ele>827.3</ele>
        <time>2019-08-12T08:24:25Z</time>
      </trkpt>
      <trkpt lat="39.3498140" lon="-3.7819550">
        <ele>827.3</ele>
        <time>2019-08-12T08:24:26Z</time>
      </trkpt>
      <trkpt lat="39.3498780" lon="-3.7819790">
        <ele>827.3</ele>
        <time>2019-08-12T08:24:27Z</time>
      </trkpt>
      <trkpt lat="39.3499420" lon="-3.7820000">
        <ele>827.3</ele>
        <time>2019-08-12T08:24:28Z</time>
      </trkpt>
      <trkpt lat="39.3500070" lon="-3.7820180">
        <ele>827.2</ele>
        <time>2019-08-12T08:24:29Z</time>
      </trkpt>
      <trkpt lat="39.3500730" lon="-3.7820330">
        <ele>827.2</ele>
        <time>2019-08-12T08:24:30Z</time>
      </trkpt>
      <trkpt lat="39.3501390" lon="-3.7820460">
        <ele>827.2</ele>
        <time>2019-08-12T08:24:31Z</time>
      </trkpt>
      <trkpt lat="39.3502060" lon="-3.7820570">
        <ele>827.2</ele>
        <time>2019-08-12T08:24:32Z</time>
      </trkpt>
      <trkpt lat="39.3502730" lon="-3.7820680">
        <ele>827.1</ele>
        <time>2019-08-12T08:24:33Z</time>
      </trkpt>
      <trkpt lat="39.3503410" lon="-3.7820780">
        <ele>827.0</ele>
        <time>2019-08-12T08:24:34Z</time>
      </trkpt>
      <trkpt lat="39.3504080" lon="-3.7820880">
        <ele>826.8</ele>
        <time>2019-08-12T08:24:35Z</time>
      </trkpt>
      <trkpt lat="39.3504760" lon="-3.7820990">
        <ele>826.6</ele>
        <time>2019-08-12T08:24:36Z</time>
      </trkpt>
      <trkpt lat="39.3505440" lon="-3.7821110">
        <ele>826.4</ele>
        <time>2019-08-12T08:24:37Z</time>
      </trkpt>
      <trkpt lat="39.3506120" lon="-3.7821220">
        <ele>826.2</ele>
        <time>2019-08-12T08:24:38Z</time>
      </trkpt>
      <trkpt lat="39.3506810" lon="-3.7821340">
        <ele>826.0</ele>
        <time>2019-08-12T08:24:39Z</time>
      </trkpt>
      <trkpt lat="39.3507490" lon="-3.7821450">
        <ele>825.8</ele>
        <time>2019-08-12T08:24:40Z</time>
      </trkpt>
      <trkpt lat="39.3508180" lon="-3.7821570">
        <ele>825.6</ele>
        <time>2019-08-12T08:24:41Z</time>
      </trkpt>
      <trkpt lat="39.3508860" lon="-3.7821690">
        <ele>825.4</ele>
        <time>2019-08-12T08:24:42Z</time>
      </trkpt>
      <trkpt lat="39.3509550" lon="-3.7821800">
        <ele>825.2</ele>
        <time>2019-08-12T08:24:43Z</time>
      </trkpt>
      <trkpt lat="39.3510240" lon="-3.7821910">
        <ele>825.0</ele>
        <time>2019-08-12T08:24:44Z</time>
      </trkpt>
      <trkpt lat="39.3510930" lon="-3.7822010">
        <ele>824.8</ele>
        <time>2019-08-12T08:24:45Z</time>
      </trkpt>
      <trkpt lat="39.3511610" lon="-3.7822120">
        <ele>824.6</ele>
        <time>2019-08-12T08:24:46Z</time>
      </trkpt>
      <trkpt lat="39.3512290" lon="-3.7822220">
        <ele>824.3</ele>
        <time>2019-08-12T08:24:47Z</time>
      </trkpt>
      <trkpt lat="39.3512960" lon="-3.7822320">
        <ele>824.2</ele>
        <time>2019-08-12T08:24:48Z</time>
      </trkpt>
      <trkpt lat="39.3513620" lon="-3.7822430">
        <ele>824.0</ele>
        <time>2019-08-12T08:24:49Z</time>
      </trkpt>
      <trkpt lat="39.3514270" lon="-3.7822530">
        <ele>823.8</ele>
        <time>2019-08-12T08:24:50Z</time>
      </trkpt>
      <trkpt lat="39.3514920" lon="-3.7822620">
        <ele>823.6</ele>
        <time>2019-08-12T08:24:51Z</time>
      </trkpt>
      <trkpt lat="39.3515580" lon="-3.7822720">
        <ele>823.4</ele>
        <time>2019-08-12T08:24:52Z</time>
      </trkpt>
      <trkpt lat="39.3516240" lon="-3.7822800">
        <ele>823.2</ele>
        <time>2019-08-12T08:24:53Z</time>
      </trkpt>
      <trkpt lat="39.3516920" lon="-3.7822890">
        <ele>823.0</ele>
        <time>2019-08-12T08:24:54Z</time>
      </trkpt>
      <trkpt lat="39.3517610" lon="-3.7822970">
        <ele>822.6</ele>
        <time>2019-08-12T08:24:55Z</time>
      </trkpt>
      <trkpt lat="39.3518300" lon="-3.7823060">
        <ele>822.2</ele>
        <time>2019-08-12T08:24:56Z</time>
      </trkpt>
      <trkpt lat="39.3519020" lon="-3.7823160">
        <ele>821.6</ele>
        <time>2019-08-12T08:24:57Z</time>
      </trkpt>
      <trkpt lat="39.3519750" lon="-3.7823260">
        <ele>821.0</ele>
        <time>2019-08-12T08:24:58Z</time>
      </trkpt>
      <trkpt lat="39.3520500" lon="-3.7823370">
        <ele>820.6</ele>
        <time>2019-08-12T08:24:59Z</time>
      </trkpt>
      <trkpt lat="39.3521250" lon="-3.7823490">
        <ele>820.2</ele>
        <time>2019-08-12T08:25:00Z</time>
      </trkpt>
      <trkpt lat="39.3522000" lon="-3.7823600">
        <ele>820.1</ele>
        <time>2019-08-12T08:25:01Z</time>
      </trkpt>
      <trkpt lat="39.3522750" lon="-3.7823720">
        <ele>819.9</ele>
        <time>2019-08-12T08:25:02Z</time>
      </trkpt>
      <trkpt lat="39.3523500" lon="-3.7823840">
        <ele>819.7</ele>
        <time>2019-08-12T08:25:03Z</time>
      </trkpt>
      <trkpt lat="39.3524250" lon="-3.7823950">
        <ele>819.4</ele>
        <time>2019-08-12T08:25:04Z</time>
      </trkpt>
      <trkpt lat="39.3524990" lon="-3.7824060">
        <ele>819.0</ele>
        <time>2019-08-12T08:25:05Z</time>
      </trkpt>
      <trkpt lat="39.3525730" lon="-3.7824170">
        <ele>818.7</ele>
        <time>2019-08-12T08:25:06Z</time>
      </trkpt>
      <trkpt lat="39.3526460" lon="-3.7824280">
        <ele>818.4</ele>
        <time>2019-08-12T08:25:07Z</time>
      </trkpt>
      <trkpt lat="39.3527200" lon="-3.7824390">
        <ele>818.2</ele>
        <time>2019-08-12T08:25:08Z</time>
      </trkpt>
      <trkpt lat="39.3527930" lon="-3.7824490">
        <ele>818.1</ele>
        <time>2019-08-12T08:25:09Z</time>
      </trkpt>
      <trkpt lat="39.3528660" lon="-3.7824600">
        <ele>818.0</ele>
        <time>2019-08-12T08:25:10Z</time>
      </trkpt>
      <trkpt lat="39.3529390" lon="-3.7824700">
        <ele>818.0</ele>
        <time>2019-08-12T08:25:11Z</time>
      </trkpt>
      <trkpt lat="39.3530120" lon="-3.7824800">
        <ele>817.9</ele>
        <time>2019-08-12T08:25:12Z</time>
      </trkpt>
      <trkpt lat="39.3530860" lon="-3.7824900">
        <ele>817.9</ele>
        <time>2019-08-12T08:25:13Z</time>
      </trkpt>
      <trkpt lat="39.3531590" lon="-3.7825000">
        <ele>817.9</ele>
        <time>2019-08-12T08:25:14Z</time>
      </trkpt>
      <trkpt lat="39.3532340" lon="-3.7825110">
        <ele>817.8</ele>
        <time>2019-08-12T08:25:15Z</time>
      </trkpt>
      <trkpt lat="39.3533100" lon="-3.7825230">
        <ele>817.7</ele>
        <time>2019-08-12T08:25:16Z</time>
      </trkpt>
      <trkpt lat="39.3533860" lon="-3.7825350">
        <ele>817.4</ele>
        <time>2019-08-12T08:25:17Z</time>
      </trkpt>
      <trkpt lat="39.3534630" lon="-3.7825470">
        <ele>817.2</ele>
        <time>2019-08-12T08:25:18Z</time>
      </trkpt>
      <trkpt lat="39.3535400" lon="-3.7825600">
        <ele>816.9</ele>
        <time>2019-08-12T08:25:19Z</time>
      </trkpt>
      <trkpt lat="39.3536170" lon="-3.7825720">
        <ele>816.7</ele>
        <time>2019-08-12T08:25:20Z</time>
      </trkpt>
      <trkpt lat="39.3536950" lon="-3.7825840">
        <ele>816.4</ele>
        <time>2019-08-12T08:25:21Z</time>
      </trkpt>
      <trkpt lat="39.3537720" lon="-3.7825960">
        <ele>816.1</ele>
        <time>2019-08-12T08:25:22Z</time>
      </trkpt>
      <trkpt lat="39.3538480" lon="-3.7826080">
        <ele>815.8</ele>
        <time>2019-08-12T08:25:23Z</time>
      </trkpt>
      <trkpt lat="39.3539240" lon="-3.7826200">
        <ele>815.4</ele>
        <time>2019-08-12T08:25:24Z</time>
      </trkpt>
      <trkpt lat="39.3539980" lon="-3.7826310">
        <ele>815.1</ele>
        <time>2019-08-12T08:25:25Z</time>
      </trkpt>
      <trkpt lat="39.3540710" lon="-3.7826440">
        <ele>815.0</ele>
        <time>2019-08-12T08:25:26Z</time>
      </trkpt>
      <trkpt lat="39.3541430" lon="-3.7826560">
        <ele>814.9</ele>
        <time>2019-08-12T08:25:27Z</time>
      </trkpt>
      <trkpt lat="39.3542150" lon="-3.7826680">
        <ele>814.8</ele>
        <time>2019-08-12T08:25:28Z</time>
      </trkpt>
      <trkpt lat="39.3542870" lon="-3.7826810">
        <ele>814.7</ele>
        <time>2019-08-12T08:25:29Z</time>
      </trkpt>
      <trkpt lat="39.3543600" lon="-3.7826930">
        <ele>814.5</ele>
        <time>2019-08-12T08:25:30Z</time>
      </trkpt>
      <trkpt lat="39.3544330" lon="-3.7827050">
        <ele>814.3</ele>
        <time>2019-08-12T08:25:31Z</time>
      </trkpt>
      <trkpt lat="39.3545060" lon="-3.7827170">
        <ele>814.1</ele>
        <time>2019-08-12T08:25:32Z</time>
      </trkpt>
      <trkpt lat="39.3545800" lon="-3.7827290">
        <ele>814.0</ele>
        <time>2019-08-12T08:25:33Z</time>
      </trkpt>
      <trkpt lat="39.3546550" lon="-3.7827400">
        <ele>813.9</ele>
        <time>2019-08-12T08:25:34Z</time>
      </trkpt>
      <trkpt lat="39.3547290" lon="-3.7827520">
        <ele>813.7</ele>
        <time>2019-08-12T08:25:35Z</time>
      </trkpt>
      <trkpt lat="39.3548040" lon="-3.7827640">
        <ele>813.5</ele>
        <time>2019-08-12T08:25:36Z</time>
      </trkpt>
      <trkpt lat="39.3548790" lon="-3.7827750">
        <ele>813.2</ele>
        <time>2019-08-12T08:25:37Z</time>
      </trkpt>
      <trkpt lat="39.3549540" lon="-3.7827870">
        <ele>813.0</ele>
        <time>2019-08-12T08:25:38Z</time>
      </trkpt>
      <trkpt lat="39.3550290" lon="-3.7827990">
        <ele>812.7</ele>
        <time>2019-08-12T08:25:39Z</time>
      </trkpt>
      <trkpt lat="39.3551040" lon="-3.7828100">
        <ele>812.5</ele>
        <time>2019-08-12T08:25:40Z</time>
      </trkpt>
      <trkpt lat="39.3551780" lon="-3.7828220">
        <ele>812.3</ele>
        <time>2019-08-12T08:25:41Z</time>
      </trkpt>
      <trkpt lat="39.3552530" lon="-3.7828340">
        <ele>812.1</ele>
        <time>2019-08-12T08:25:42Z</time>
      </trkpt>
      <trkpt lat="39.3553270" lon="-3.7828460">
        <ele>812.0</ele>
        <time>2019-08-12T08:25:43Z</time>
      </trkpt>
      <trkpt lat="39.3554000" lon="-3.7828580">
        <ele>812.0</ele>
        <time>2019-08-12T08:25:44Z</time>
      </trkpt>
      <trkpt lat="39.3554730" lon="-3.7828700">
        <ele>812.0</ele>
        <time>2019-08-12T08:25:45Z</time>
      </trkpt>
      <trkpt lat="39.3555450" lon="-3.7828830">
        <ele>811.9</ele>
        <time>2019-08-12T08:25:46Z</time>
      </trkpt>
      <trkpt lat="39.3556170" lon="-3.7828960">
        <ele>811.9</ele>
        <time>2019-08-12T08:25:47Z</time>
      </trkpt>
      <trkpt lat="39.3556880" lon="-3.7829090">
        <ele>811.9</ele>
        <time>2019-08-12T08:25:48Z</time>
      </trkpt>
      <trkpt lat="39.3557580" lon="-3.7829220">
        <ele>811.9</ele>
        <time>2019-08-12T08:25:49Z</time>
      </trkpt>
      <trkpt lat="39.3558290" lon="-3.7829360">
        <ele>811.9</ele>
        <time>2019-08-12T08:25:50Z</time>
      </trkpt>
      <trkpt lat="39.3559000" lon="-3.7829510">
        <ele>811.8</ele>
        <time>2019-08-12T08:25:51Z</time>
      </trkpt>
      <trkpt lat="39.3559720" lon="-3.7829660">
        <ele>811.6</ele>
        <time>2019-08-12T08:25:52Z</time>
      </trkpt>
      <trkpt lat="39.3560460" lon="-3.7829820">
        <ele>811.3</ele>
        <time>2019-08-12T08:25:53Z</time>
      </trkpt>
      <trkpt lat="39.3561200" lon="-3.7829990">
        <ele>811.1</ele>
        <time>2019-08-12T08:25:54Z</time>
      </trkpt>
      <trkpt lat="39.3561950" lon="-3.7830170">
        <ele>811.0</ele>
        <time>2019-08-12T08:25:55Z</time>
      </trkpt>
      <trkpt lat="39.3562690" lon="-3.7830350">
        <ele>810.9</ele>
        <time>2019-08-12T08:25:56Z</time>
      </trkpt>
      <trkpt lat="39.3563430" lon="-3.7830550">
        <ele>810.9</ele>
        <time>2019-08-12T08:25:57Z</time>
      </trkpt>
      <trkpt lat="39.3564150" lon="-3.7830760">
        <ele>810.9</ele>
        <time>2019-08-12T08:25:58Z</time>
      </trkpt>
      <trkpt lat="39.3564860" lon="-3.7830970">
        <ele>810.9</ele>
        <time>2019-08-12T08:25:59Z</time>
      </trkpt>
      <trkpt lat="39.3565550" lon="-3.7831190">
        <ele>810.9</ele>
        <time>2019-08-12T08:26:00Z</time>
      </trkpt>
      <trkpt lat="39.3566240" lon="-3.7831420">
        <ele>810.9</ele>
        <time>2019-08-12T08:26:01Z</time>
      </trkpt>
      <trkpt lat="39.3566910" lon="-3.7831650">
        <ele>810.9</ele>
        <time>2019-08-12T08:26:02Z</time>
      </trkpt>
      <trkpt lat="39.3567580" lon="-3.7831880">
        <ele>810.9</ele>
        <time>2019-08-12T08:26:03Z</time>
      </trkpt>
      <trkpt lat="39.3568230" lon="-3.7832120">
        <ele>810.9</ele>
        <time>2019-08-12T08:26:04Z</time>
      </trkpt>
      <trkpt lat="39.3568880" lon="-3.7832360">
        <ele>810.9</ele>
        <time>2019-08-12T08:26:05Z</time>
      </trkpt>
      <trkpt lat="39.3569520" lon="-3.7832590">
        <ele>810.9</ele>
        <time>2019-08-12T08:26:06Z</time>
      </trkpt>
      <trkpt lat="39.3570150" lon="-3.7832830">
        <ele>810.9</ele>
        <time>2019-08-12T08:26:07Z</time>
      </trkpt>
      <trkpt lat="39.3570780" lon="-3.7833070">
        <ele>810.9</ele>
        <time>2019-08-12T08:26:08Z</time>
      </trkpt>
      <trkpt lat="39.3571400" lon="-3.7833300">
        <ele>810.9</ele>
        <time>2019-08-12T08:26:09Z</time>
      </trkpt>
      <trkpt lat="39.3572020" lon="-3.7833530">
        <ele>810.9</ele>
        <time>2019-08-12T08:26:10Z</time>
      </trkpt>
      <trkpt lat="39.3572630" lon="-3.7833770">
        <ele>810.9</ele>
        <time>2019-08-12T08:26:11Z</time>
      </trkpt>
      <trkpt lat="39.3573240" lon="-3.7834000">
        <ele>810.8</ele>
        <time>2019-08-12T08:26:12Z</time>
      </trkpt>
      <trkpt lat="39.3573850" lon="-3.7834230">
        <ele>810.8</ele>
        <time>2019-08-12T08:26:13Z</time>
      </trkpt>
      <trkpt lat="39.3574450" lon="-3.7834460">
        <ele>810.6</ele>
        <time>2019-08-12T08:26:14Z</time>
      </trkpt>
      <trkpt lat="39.3575060" lon="-3.7834690">
        <ele>810.5</ele>
        <time>2019-08-12T08:26:15Z</time>
      </trkpt>
      <trkpt lat="39.3575660" lon="-3.7834920">
        <ele>810.3</ele>
        <time>2019-08-12T08:26:16Z</time>
      </trkpt>
      <trkpt lat="39.3576270" lon="-3.7835150">
        <ele>810.1</ele>
        <time>2019-08-12T08:26:17Z</time>
      </trkpt>
      <trkpt lat="39.3576870" lon="-3.7835380">
        <ele>810.0</ele>
        <time>2019-08-12T08:26:18Z</time>
      </trkpt>
      <trkpt lat="39.3577480" lon="-3.7835610">
        <ele>809.9</ele>
        <time>2019-08-12T08:26:19Z</time>
      </trkpt>
      <trkpt lat="39.3578080" lon="-3.7835840">
        <ele>809.9</ele>
        <time>2019-08-12T08:26:20Z</time>
      </trkpt>
      <trkpt lat="39.3578690" lon="-3.7836070">
        <ele>809.9</ele>
        <time>2019-08-12T08:26:21Z</time>
      </trkpt>
      <trkpt lat="39.3579290" lon="-3.7836300">
        <ele>809.9</ele>
        <time>2019-08-12T08:26:22Z</time>
      </trkpt>
      <trkpt lat="39.3579900" lon="-3.7836520">
        <ele>809.9</ele>
        <time>2019-08-12T08:26:23Z</time>
      </trkpt>
      <trkpt lat="39.3580510" lon="-3.7836750">
        <ele>809.9</ele>
        <time>2019-08-12T08:26:24Z</time>
      </trkpt>
      <trkpt lat="39.3581120" lon="-3.7836980">
        <ele>809.8</ele>
        <time>2019-08-12T08:26:25Z</time>
      </trkpt>
      <trkpt lat="39.3581730" lon="-3.7837200">
        <ele>809.7</ele>
        <time>2019-08-12T08:26:26Z</time>
      </trkpt>
      <trkpt lat="39.3582340" lon="-3.7837430">
        <ele>809.6</ele>
        <time>2019-08-12T08:26:27Z</time>
      </trkpt>
      <trkpt lat="39.3582960" lon="-3.7837650">
        <ele>809.3</ele>
        <time>2019-08-12T08:26:28Z</time>
      </trkpt>
      <trkpt lat="39.3583570" lon="-3.7837880">
        <ele>809.1</ele>
        <time>2019-08-12T08:26:29Z</time>
      </trkpt>
      <trkpt lat="39.3584190" lon="-3.7838100">
        <ele>809.0</ele>
        <time>2019-08-12T08:26:30Z</time>
      </trkpt>
      <trkpt lat="39.3584800" lon="-3.7838330">
        <ele>808.9</ele>
        <time>2019-08-12T08:26:31Z</time>
      </trkpt>
      <trkpt lat="39.3585420" lon="-3.7838550">
        <ele>808.9</ele>
        <time>2019-08-12T08:26:32Z</time>
      </trkpt>
      <trkpt lat="39.3586040" lon="-3.7838770">
        <ele>808.9</ele>
        <time>2019-08-12T08:26:33Z</time>
      </trkpt>
      <trkpt lat="39.3586660" lon="-3.7839000">
        <ele>808.9</ele>
        <time>2019-08-12T08:26:34Z</time>
      </trkpt>
      <trkpt lat="39.3587280" lon="-3.7839220">
        <ele>808.9</ele>
        <time>2019-08-12T08:26:35Z</time>
      </trkpt>
      <trkpt lat="39.3587900" lon="-3.7839450">
        <ele>808.9</ele>
        <time>2019-08-12T08:26:36Z</time>
      </trkpt>
      <trkpt lat="39.3588520" lon="-3.7839670">
        <ele>808.9</ele>
        <time>2019-08-12T08:26:37Z</time>
      </trkpt>
      <trkpt lat="39.3589150" lon="-3.7839900">
        <ele>808.9</ele>
        <time>2019-08-12T08:26:38Z</time>
      </trkpt>
      <trkpt lat="39.3589770" lon="-3.7840120">
        <ele>808.9</ele>
        <time>2019-08-12T08:26:39Z</time>
      </trkpt>
      <trkpt lat="39.3590400" lon="-3.7840350">
        <ele>808.9</ele>
        <time>2019-08-12T08:26:40Z</time>
      </trkpt>
      <trkpt lat="39.3591030" lon="-3.7840580">
        <ele>808.9</ele>
        <time>2019-08-12T08:26:41Z</time>
      </trkpt>
      <trkpt lat="39.3591660" lon="-3.7840810">
        <ele>808.9</ele>
        <time>2019-08-12T08:26:42Z</time>
      </trkpt>
      <trkpt lat="39.3592300" lon="-3.7841050">
        <ele>808.9</ele>
        <time>2019-08-12T08:26:43Z</time>
      </trkpt>
      <trkpt lat="39.3592930" lon="-3.7841290">
        <ele>808.9</ele>
        <time>2019-08-12T08:26:44Z</time>
      </trkpt>
      <trkpt lat="39.3593570" lon="-3.7841530">
        <ele>808.9</ele>
        <time>2019-08-12T08:26:45Z</time>
      </trkpt>
      <trkpt lat="39.3594220" lon="-3.7841770">
        <ele>808.8</ele>
        <time>2019-08-12T08:26:46Z</time>
      </trkpt>
      <trkpt lat="39.3594860" lon="-3.7842010">
        <ele>808.7</ele>
        <time>2019-08-12T08:26:47Z</time>
      </trkpt>
      <trkpt lat="39.3595500" lon="-3.7842260">
        <ele>808.5</ele>
        <time>2019-08-12T08:26:48Z</time>
      </trkpt>
      <trkpt lat="39.3596150" lon="-3.7842500">
        <ele>808.3</ele>
        <time>2019-08-12T08:26:49Z</time>
      </trkpt>
      <trkpt lat="39.3596800" lon="-3.7842750">
        <ele>808.2</ele>
        <time>2019-08-12T08:26:50Z</time>
      </trkpt>
      <trkpt lat="39.3597440" lon="-3.7842990">
        <ele>808.0</ele>
        <time>2019-08-12T08:26:51Z</time>
      </trkpt>
      <trkpt lat="39.3598090" lon="-3.7843240">
        <ele>808.0</ele>
        <time>2019-08-12T08:26:52Z</time>
      </trkpt>
      <trkpt lat="39.3598740" lon="-3.7843480">
        <ele>808.0</ele>
        <time>2019-08-12T08:26:53Z</time>
      </trkpt>
      <trkpt lat="39.3599380" lon="-3.7843720">
        <ele>807.9</ele>
        <time>2019-08-12T08:26:54Z</time>
      </trkpt>
      <trkpt lat="39.3600030" lon="-3.7843960">
        <ele>807.9</ele>
        <time>2019-08-12T08:26:55Z</time>
      </trkpt>
      <trkpt lat="39.3600680" lon="-3.7844190">
        <ele>807.9</ele>
        <time>2019-08-12T08:26:56Z</time>
      </trkpt>
      <trkpt lat="39.3601320" lon="-3.7844430">
        <ele>807.9</ele>
        <time>2019-08-12T08:26:57Z</time>
      </trkpt>
      <trkpt lat="39.3601970" lon="-3.7844670">
        <ele>807.9</ele>
        <time>2019-08-12T08:26:58Z</time>
      </trkpt>
      <trkpt lat="39.3602620" lon="-3.7844900">
        <ele>807.9</ele>
        <time>2019-08-12T08:26:59Z</time>
      </trkpt>
      <trkpt lat="39.3603270" lon="-3.7845140">
        <ele>807.9</ele>
        <time>2019-08-12T08:27:00Z</time>
      </trkpt>
      <trkpt lat="39.3603920" lon="-3.7845380">
        <ele>807.9</ele>
        <time>2019-08-12T08:27:01Z</time>
      </trkpt>
      <trkpt lat="39.3604580" lon="-3.7845620">
        <ele>807.9</ele>
        <time>2019-08-12T08:27:02Z</time>
      </trkpt>
      <trkpt lat="39.3605230" lon="-3.7845860">
        <ele>807.8</ele>
        <time>2019-08-12T08:27:03Z</time>
      </trkpt>
      <trkpt lat="39.3605890" lon="-3.7846100">
        <ele>807.7</ele>
        <time>2019-08-12T08:27:04Z</time>
      </trkpt>
      <trkpt lat="39.3606550" lon="-3.7846350">
        <ele>807.5</ele>
        <time>2019-08-12T08:27:05Z</time>
      </trkpt>
      <trkpt lat="39.3607210" lon="-3.7846590">
        <ele>807.3</ele>
        <time>2019-08-12T08:27:06Z</time>
      </trkpt>
      <trkpt lat="39.3607870" lon="-3.7846840">
        <ele>807.2</ele>
        <time>2019-08-12T08:27:07Z</time>
      </trkpt>
      <trkpt lat="39.3608540" lon="-3.7847080">
        <ele>807.1</ele>
        <time>2019-08-12T08:27:08Z</time>
      </trkpt>
      <trkpt lat="39.3609200" lon="-3.7847330">
        <ele>807.1</ele>
        <time>2019-08-12T08:27:09Z</time>
      </trkpt>
      <trkpt lat="39.3609870" lon="-3.7847570">
        <ele>807.1</ele>
        <time>2019-08-12T08:27:10Z</time>
      </trkpt>
      <trkpt lat="39.3610530" lon="-3.7847820">
        <ele>807.1</ele>
        <time>2019-08-12T08:27:11Z</time>
      </trkpt>
      <trkpt lat="39.3611200" lon="-3.7848070">
        <ele>807.1</ele>
        <time>2019-08-12T08:27:12Z</time>
      </trkpt>
      <trkpt lat="39.3611870" lon="-3.7848320">
        <ele>807.1</ele>
        <time>2019-08-12T08:27:13Z</time>
      </trkpt>
      <trkpt lat="39.3612540" lon="-3.7848560">
        <ele>807.1</ele>
        <time>2019-08-12T08:27:14Z</time>
      </trkpt>
      <trkpt lat="39.3613200" lon="-3.7848810">
        <ele>807.0</ele>
        <time>2019-08-12T08:27:15Z</time>
      </trkpt>
      <trkpt lat="39.3613870" lon="-3.7849060">
        <ele>807.0</ele>
        <time>2019-08-12T08:27:16Z</time>
      </trkpt>
      <trkpt lat="39.3614540" lon="-3.7849310">
        <ele>806.9</ele>
        <time>2019-08-12T08:27:17Z</time>
      </trkpt>
      <trkpt lat="39.3615210" lon="-3.7849560">
        <ele>806.7</ele>
        <time>2019-08-12T08:27:18Z</time>
      </trkpt>
      <trkpt lat="39.3615880" lon="-3.7849800">
        <ele>806.5</ele>
        <time>2019-08-12T08:27:19Z</time>
      </trkpt>
      <trkpt lat="39.3616550" lon="-3.7850050">
        <ele>806.3</ele>
        <time>2019-08-12T08:27:20Z</time>
      </trkpt>
      <trkpt lat="39.3617220" lon="-3.7850300">
        <ele>806.1</ele>
        <time>2019-08-12T08:27:21Z</time>
      </trkpt>
      <trkpt lat="39.3617890" lon="-3.7850550">
        <ele>805.9</ele>
        <time>2019-08-12T08:27:22Z</time>
      </trkpt>
      <trkpt lat="39.3618560" lon="-3.7850790">
        <ele>805.7</ele>
        <time>2019-08-12T08:27:23Z</time>
      </trkpt>
      <trkpt lat="39.3619220" lon="-3.7851040">
        <ele>805.4</ele>
        <time>2019-08-12T08:27:24Z</time>
      </trkpt>
      <trkpt lat="39.3619890" lon="-3.7851290">
        <ele>805.2</ele>
        <time>2019-08-12T08:27:25Z</time>
      </trkpt>
      <trkpt lat="39.3620560" lon="-3.7851530">
        <ele>805.1</ele>
        <time>2019-08-12T08:27:26Z</time>
      </trkpt>
      <trkpt lat="39.3621230" lon="-3.7851780">
        <ele>805.1</ele>
        <time>2019-08-12T08:27:27Z</time>
      </trkpt>
      <trkpt lat="39.3621900" lon="-3.7852030">
        <ele>805.4</ele>
        <time>2019-08-12T08:27:28Z</time>
      </trkpt>
      <trkpt lat="39.3622560" lon="-3.7852280">
        <ele>805.6</ele>
        <time>2019-08-12T08:27:29Z</time>
      </trkpt>
      <trkpt lat="39.3623230" lon="-3.7852520">
        <ele>805.8</ele>
        <time>2019-08-12T08:27:30Z</time>
      </trkpt>
      <trkpt lat="39.3623900" lon="-3.7852770">
        <ele>805.9</ele>
        <time>2019-08-12T08:27:31Z</time>
      </trkpt>
      <trkpt lat="39.3624570" lon="-3.7853020">
        <ele>806.0</ele>
        <time>2019-08-12T08:27:32Z</time>
      </trkpt>
      <trkpt lat="39.3625240" lon="-3.7853270">
        <ele>806.0</ele>
        <time>2019-08-12T08:27:33Z</time>
      </trkpt>
      <trkpt lat="39.3625910" lon="-3.7853520">
        <ele>806.0</ele>
        <time>2019-08-12T08:27:34Z</time>
      </trkpt>
      <trkpt lat="39.3626580" lon="-3.7853760">
        <ele>806.0</ele>
        <time>2019-08-12T08:27:35Z</time>
      </trkpt>
      <trkpt lat="39.3627250" lon="-3.7854010">
        <ele>805.9</ele>
        <time>2019-08-12T08:27:36Z</time>
      </trkpt>
      <trkpt lat="39.3627920" lon="-3.7854260">
        <ele>805.9</ele>
        <time>2019-08-12T08:27:37Z</time>
      </trkpt>
      <trkpt lat="39.3628590" lon="-3.7854510">
        <ele>805.8</ele>
        <time>2019-08-12T08:27:38Z</time>
      </trkpt>
      <trkpt lat="39.3629270" lon="-3.7854760">
        <ele>805.6</ele>
        <time>2019-08-12T08:27:39Z</time>
      </trkpt>
      <trkpt lat="39.3629940" lon="-3.7855020">
        <ele>805.4</ele>
        <time>2019-08-12T08:27:40Z</time>
      </trkpt>
      <trkpt lat="39.3630620" lon="-3.7855270">
        <ele>805.2</ele>
        <time>2019-08-12T08:27:41Z</time>
      </trkpt>
      <trkpt lat="39.3631290" lon="-3.7855520">
        <ele>805.2</ele>
        <time>2019-08-12T08:27:42Z</time>
      </trkpt>
      <trkpt lat="39.3631970" lon="-3.7855770">
        <ele>805.1</ele>
        <time>2019-08-12T08:27:43Z</time>
      </trkpt>
      <trkpt lat="39.3632650" lon="-3.7856020">
        <ele>805.0</ele>
        <time>2019-08-12T08:27:44Z</time>
      </trkpt>
      <trkpt lat="39.3633320" lon="-3.7856270">
        <ele>804.8</ele>
        <time>2019-08-12T08:27:45Z</time>
      </trkpt>
      <trkpt lat="39.3634000" lon="-3.7856520">
        <ele>804.6</ele>
        <time>2019-08-12T08:27:46Z</time>
      </trkpt>
      <trkpt lat="39.3634680" lon="-3.7856770">
        <ele>804.4</ele>
        <time>2019-08-12T08:27:47Z</time>
      </trkpt>
      <trkpt lat="39.3635350" lon="-3.7857020">
        <ele>804.2</ele>
        <time>2019-08-12T08:27:48Z</time>
      </trkpt>
      <trkpt lat="39.3636030" lon="-3.7857270">
        <ele>804.1</ele>
        <time>2019-08-12T08:27:49Z</time>
      </trkpt>
      <trkpt lat="39.3636710" lon="-3.7857520">
        <ele>804.0</ele>
        <time>2019-08-12T08:27:50Z</time>
      </trkpt>
      <trkpt lat="39.3637380" lon="-3.7857760">
        <ele>804.0</ele>
        <time>2019-08-12T08:27:51Z</time>
      </trkpt>
      <trkpt lat="39.3638060" lon="-3.7858010">
        <ele>804.0</ele>
        <time>2019-08-12T08:27:52Z</time>
      </trkpt>
      <trkpt lat="39.3638730" lon="-3.7858260">
        <ele>804.0</ele>
        <time>2019-08-12T08:27:53Z</time>
      </trkpt>
      <trkpt lat="39.3639410" lon="-3.7858510">
        <ele>804.0</ele>
        <time>2019-08-12T08:27:54Z</time>
      </trkpt>
      <trkpt lat="39.3640080" lon="-3.7858770">
        <ele>804.0</ele>
        <time>2019-08-12T08:27:55Z</time>
      </trkpt>
      <trkpt lat="39.3640760" lon="-3.7859020">
        <ele>804.0</ele>
        <time>2019-08-12T08:27:56Z</time>
      </trkpt>
      <trkpt lat="39.3641430" lon="-3.7859280">
        <ele>803.8</ele>
        <time>2019-08-12T08:27:57Z</time>
      </trkpt>
      <trkpt lat="39.3642100" lon="-3.7859530">
        <ele>803.6</ele>
        <time>2019-08-12T08:27:58Z</time>
      </trkpt>
      <trkpt lat="39.3642780" lon="-3.7859790">
        <ele>803.5</ele>
        <time>2019-08-12T08:27:59Z</time>
      </trkpt>
      <trkpt lat="39.3643450" lon="-3.7860050">
        <ele>803.3</ele>
        <time>2019-08-12T08:28:00Z</time>
      </trkpt>
      <trkpt lat="39.3644120" lon="-3.7860310">
        <ele>803.2</ele>
        <time>2019-08-12T08:28:01Z</time>
      </trkpt>
      <trkpt lat="39.3644790" lon="-3.7860560">
        <ele>803.1</ele>
        <time>2019-08-12T08:28:02Z</time>
      </trkpt>
      <trkpt lat="39.3645450" lon="-3.7860820">
        <ele>803.0</ele>
        <time>2019-08-12T08:28:03Z</time>
      </trkpt>
      <trkpt lat="39.3646120" lon="-3.7861070">
        <ele>802.9</ele>
        <time>2019-08-12T08:28:04Z</time>
      </trkpt>
      <trkpt lat="39.3646790" lon="-3.7861320">
        <ele>802.9</ele>
        <time>2019-08-12T08:28:05Z</time>
      </trkpt>
      <trkpt lat="39.3647460" lon="-3.7861570">
        <ele>802.9</ele>
        <time>2019-08-12T08:28:06Z</time>
      </trkpt>
      <trkpt lat="39.3648120" lon="-3.7861810">
        <ele>802.9</ele>
        <time>2019-08-12T08:28:07Z</time>
      </trkpt>
      <trkpt lat="39.3648780" lon="-3.7862050">
        <ele>803.0</ele>
        <time>2019-08-12T08:28:08Z</time>
      </trkpt>
      <trkpt lat="39.3649450" lon="-3.7862290">
        <ele>803.1</ele>
        <time>2019-08-12T08:28:09Z</time>
      </trkpt>
      <trkpt lat="39.3650110" lon="-3.7862530">
        <ele>803.1</ele>
        <time>2019-08-12T08:28:10Z</time>
      </trkpt>
      <trkpt lat="39.3650770" lon="-3.7862770">
        <ele>803.2</ele>
        <time>2019-08-12T08:28:11Z</time>
      </trkpt>
      <trkpt lat="39.3651430" lon="-3.7863000">
        <ele>803.2</ele>
        <time>2019-08-12T08:28:12Z</time>
      </trkpt>
      <trkpt lat="39.3652090" lon="-3.7863240">
        <ele>803.1</ele>
        <time>2019-08-12T08:28:13Z</time>
      </trkpt>
      <trkpt lat="39.3652740" lon="-3.7863470">
        <ele>803.1</ele>
        <time>2019-08-12T08:28:14Z</time>
      </trkpt>
      <trkpt lat="39.3653400" lon="-3.7863700">
        <ele>803.1</ele>
        <time>2019-08-12T08:28:15Z</time>
      </trkpt>
      <trkpt lat="39.3654060" lon="-3.7863940">
        <ele>803.1</ele>
        <time>2019-08-12T08:28:16Z</time>
      </trkpt>
      <trkpt lat="39.3654710" lon="-3.7864170">
        <ele>803.1</ele>
        <time>2019-08-12T08:28:17Z</time>
      </trkpt>
      <trkpt lat="39.3655360" lon="-3.7864410">
        <ele>803.0</ele>
        <time>2019-08-12T08:28:18Z</time>
      </trkpt>
      <trkpt lat="39.3656020" lon="-3.7864640">
        <ele>803.0</ele>
        <time>2019-08-12T08:28:19Z</time>
      </trkpt>
      <trkpt lat="39.3656670" lon="-3.7864880">
        <ele>803.0</ele>
        <time>2019-08-12T08:28:20Z</time>
      </trkpt>
      <trkpt lat="39.3657320" lon="-3.7865110">
        <ele>802.9</ele>
        <time>2019-08-12T08:28:21Z</time>
      </trkpt>
      <trkpt lat="39.3657970" lon="-3.7865350">
        <ele>802.9</ele>
        <time>2019-08-12T08:28:22Z</time>
      </trkpt>
      <trkpt lat="39.3658620" lon="-3.7865590">
        <ele>802.8</ele>
        <time>2019-08-12T08:28:23Z</time>
      </trkpt>
      <trkpt lat="39.3659270" lon="-3.7865820">
        <ele>802.8</ele>
        <time>2019-08-12T08:28:24Z</time>
      </trkpt>
      <trkpt lat="39.3659930" lon="-3.7866060">
        <ele>802.8</ele>
        <time>2019-08-12T08:28:25Z</time>
      </trkpt>
      <trkpt lat="39.3660580" lon="-3.7866300">
        <ele>802.7</ele>
        <time>2019-08-12T08:28:26Z</time>
      </trkpt>
      <trkpt lat="39.3661230" lon="-3.7866540">
        <ele>802.6</ele>
        <time>2019-08-12T08:28:27Z</time>
      </trkpt>
      <trkpt lat="39.3661880" lon="-3.7866780">
        <ele>802.5</ele>
        <time>2019-08-12T08:28:28Z</time>
      </trkpt>
      <trkpt lat="39.3662530" lon="-3.7867020">
        <ele>802.4</ele>
        <time>2019-08-12T08:28:29Z</time>
      </trkpt>
      <trkpt lat="39.3663180" lon="-3.7867260">
        <ele>802.3</ele>
        <time>2019-08-12T08:28:30Z</time>
      </trkpt>
      <trkpt lat="39.3663840" lon="-3.7867500">
        <ele>802.2</ele>
        <time>2019-08-12T08:28:31Z</time>
      </trkpt>
      <trkpt lat="39.3664490" lon="-3.7867750">
        <ele>802.1</ele>
        <time>2019-08-12T08:28:32Z</time>
      </trkpt>
      <trkpt lat="39.3665150" lon="-3.7867990">
        <ele>802.0</ele>
        <time>2019-08-12T08:28:33Z</time>
      </trkpt>
      <trkpt lat="39.3665800" lon="-3.7868240">
        <ele>801.9</ele>
        <time>2019-08-12T08:28:34Z</time>
      </trkpt>
      <trkpt lat="39.3666460" lon="-3.7868480">
        <ele>801.7</ele>
        <time>2019-08-12T08:28:35Z</time>
      </trkpt>
      <trkpt lat="39.3667120" lon="-3.7868730">
        <ele>801.6</ele>
        <time>2019-08-12T08:28:36Z</time>
      </trkpt>
      <trkpt lat="39.3667770" lon="-3.7868980">
        <ele>801.5</ele>
        <time>2019-08-12T08:28:37Z</time>
      </trkpt>
      <trkpt lat="39.3668430" lon="-3.7869230">
        <ele>801.4</ele>
        <time>2019-08-12T08:28:38Z</time>
      </trkpt>
      <trkpt lat="39.3669080" lon="-3.7869470">
        <ele>801.3</ele>
        <time>2019-08-12T08:28:39Z</time>
      </trkpt>
      <trkpt lat="39.3669730" lon="-3.7869710">
        <ele>801.2</ele>
        <time>2019-08-12T08:28:40Z</time>
      </trkpt>
      <trkpt lat="39.3670380" lon="-3.7869960">
        <ele>801.2</ele>
        <time>2019-08-12T08:28:41Z</time>
      </trkpt>
      <trkpt lat="39.3671020" lon="-3.7870200">
        <ele>801.2</ele>
        <time>2019-08-12T08:28:42Z</time>
      </trkpt>
      <trkpt lat="39.3671670" lon="-3.7870430">
        <ele>801.2</ele>
        <time>2019-08-12T08:28:43Z</time>
      </trkpt>
      <trkpt lat="39.3672300" lon="-3.7870670">
        <ele>801.2</ele>
        <time>2019-08-12T08:28:44Z</time>
      </trkpt>
      <trkpt lat="39.3672940" lon="-3.7870900">
        <ele>801.1</ele>
        <time>2019-08-12T08:28:45Z</time>
      </trkpt>
      <trkpt lat="39.3673570" lon="-3.7871140">
        <ele>801.1</ele>
        <time>2019-08-12T08:28:46Z</time>
      </trkpt>
      <trkpt lat="39.3674210" lon="-3.7871370">
        <ele>801.0</ele>
        <time>2019-08-12T08:28:47Z</time>
      </trkpt>
      <trkpt lat="39.3674840" lon="-3.7871600">
        <ele>801.0</ele>
        <time>2019-08-12T08:28:48Z</time>
      </trkpt>
      <trkpt lat="39.3675470" lon="-3.7871830">
        <ele>800.9</ele>
        <time>2019-08-12T08:28:49Z</time>
      </trkpt>
      <trkpt lat="39.3676100" lon="-3.7872070">
        <ele>800.9</ele>
        <time>2019-08-12T08:28:50Z</time>
      </trkpt>
      <trkpt lat="39.3676730" lon="-3.7872300">
        <ele>800.8</ele>
        <time>2019-08-12T08:28:51Z</time>
      </trkpt>
      <trkpt lat="39.3677360" lon="-3.7872540">
        <ele>800.7</ele>
        <time>2019-08-12T08:28:52Z</time>
      </trkpt>
      <trkpt lat="39.3677990" lon="-3.7872780">
        <ele>800.7</ele>
        <time>2019-08-12T08:28:53Z</time>
      </trkpt>
      <trkpt lat="39.3678620" lon="-3.7873020">
        <ele>800.6</ele>
        <time>2019-08-12T08:28:54Z</time>
      </trkpt>
      <trkpt lat="39.3679260" lon="-3.7873260">
        <ele>800.6</ele>
        <time>2019-08-12T08:28:55Z</time>
      </trkpt>
      <trkpt lat="39.3679900" lon="-3.7873500">
        <ele>800.6</ele>
        <time>2019-08-12T08:28:56Z</time>
      </trkpt>
      <trkpt lat="39.3680540" lon="-3.7873740">
        <ele>800.5</ele>
        <time>2019-08-12T08:28:57Z</time>
      </trkpt>
      <trkpt lat="39.3681190" lon="-3.7873970">
        <ele>800.5</ele>
        <time>2019-08-12T08:28:58Z</time>
      </trkpt>
      <trkpt lat="39.3681840" lon="-3.7874210">
        <ele>800.5</ele>
        <time>2019-08-12T08:28:59Z</time>
      </trkpt>
      <trkpt lat="39.3682500" lon="-3.7874440">
        <ele>800.5</ele>
        <time>2019-08-12T08:29:00Z</time>
      </trkpt>
      <trkpt lat="39.3683160" lon="-3.7874680">
        <ele>800.4</ele>
        <time>2019-08-12T08:29:01Z</time>
      </trkpt>
      <trkpt lat="39.3683820" lon="-3.7874920">
        <ele>800.4</ele>
        <time>2019-08-12T08:29:02Z</time>
      </trkpt>
      <trkpt lat="39.3684490" lon="-3.7875160">
        <ele>800.3</ele>
        <time>2019-08-12T08:29:03Z</time>
      </trkpt>
      <trkpt lat="39.3685160" lon="-3.7875400">
        <ele>800.3</ele>
        <time>2019-08-12T08:29:04Z</time>
      </trkpt>
      <trkpt lat="39.3685830" lon="-3.7875640">
        <ele>800.2</ele>
        <time>2019-08-12T08:29:05Z</time>
      </trkpt>
      <trkpt lat="39.3686500" lon="-3.7875890">
        <ele>800.2</ele>
        <time>2019-08-12T08:29:06Z</time>
      </trkpt>
      <trkpt lat="39.3687170" lon="-3.7876130">
        <ele>800.2</ele>
        <time>2019-08-12T08:29:07Z</time>
      </trkpt>
      <trkpt lat="39.3687850" lon="-3.7876380">
        <ele>800.1</ele>
        <time>2019-08-12T08:29:08Z</time>
      </trkpt>
      <trkpt lat="39.3688530" lon="-3.7876630">
        <ele>800.1</ele>
        <time>2019-08-12T08:29:09Z</time>
      </trkpt>
      <trkpt lat="39.3689210" lon="-3.7876880">
        <ele>800.0</ele>
        <time>2019-08-12T08:29:10Z</time>
      </trkpt>
      <trkpt lat="39.3689890" lon="-3.7877120">
        <ele>799.9</ele>
        <time>2019-08-12T08:29:11Z</time>
      </trkpt>
      <trkpt lat="39.3690570" lon="-3.7877370">
        <ele>799.8</ele>
        <time>2019-08-12T08:29:12Z</time>
      </trkpt>
      <trkpt lat="39.3691260" lon="-3.7877620">
        <ele>799.6</ele>
        <time>2019-08-12T08:29:13Z</time>
      </trkpt>
      <trkpt lat="39.3691940" lon="-3.7877870">
        <ele>799.5</ele>
        <time>2019-08-12T08:29:14Z</time>
      </trkpt>
      <trkpt lat="39.3692620" lon="-3.7878110">
        <ele>799.4</ele>
        <time>2019-08-12T08:29:15Z</time>
      </trkpt>
      <trkpt lat="39.3693310" lon="-3.7878340">
        <ele>799.4</ele>
        <time>2019-08-12T08:29:16Z</time>
      </trkpt>
      <trkpt lat="39.3693990" lon="-3.7878570">
        <ele>799.3</ele>
        <time>2019-08-12T08:29:17Z</time>
      </trkpt>
      <trkpt lat="39.3694680" lon="-3.7878810">
        <ele>799.3</ele>
        <time>2019-08-12T08:29:18Z</time>
      </trkpt>
      <trkpt lat="39.3695360" lon="-3.7879040">
        <ele>799.2</ele>
        <time>2019-08-12T08:29:19Z</time>
      </trkpt>
      <trkpt lat="39.3696040" lon="-3.7879270">
        <ele>799.2</ele>
        <time>2019-08-12T08:29:20Z</time>
      </trkpt>
      <trkpt lat="39.3696720" lon="-3.7879510">
        <ele>799.2</ele>
        <time>2019-08-12T08:29:21Z</time>
      </trkpt>
      <trkpt lat="39.3697410" lon="-3.7879750">
        <ele>799.2</ele>
        <time>2019-08-12T08:29:22Z</time>
      </trkpt>
      <trkpt lat="39.3698090" lon="-3.7879990">
        <ele>799.1</ele>
        <time>2019-08-12T08:29:23Z</time>
      </trkpt>
      <trkpt lat="39.3698770" lon="-3.7880230">
        <ele>799.1</ele>
        <time>2019-08-12T08:29:24Z</time>
      </trkpt>
      <trkpt lat="39.3699450" lon="-3.7880470">
        <ele>799.0</ele>
        <time>2019-08-12T08:29:25Z</time>
      </trkpt>
      <trkpt lat="39.3700130" lon="-3.7880720">
        <ele>798.9</ele>
        <time>2019-08-12T08:29:26Z</time>
      </trkpt>
      <trkpt lat="39.3700810" lon="-3.7880960">
        <ele>798.9</ele>
        <time>2019-08-12T08:29:27Z</time>
      </trkpt>
      <trkpt lat="39.3701490" lon="-3.7881210">
        <ele>798.8</ele>
        <time>2019-08-12T08:29:28Z</time>
      </trkpt>
      <trkpt lat="39.3702170" lon="-3.7881450">
        <ele>798.7</ele>
        <time>2019-08-12T08:29:29Z</time>
      </trkpt>
      <trkpt lat="39.3702850" lon="-3.7881690">
        <ele>798.7</ele>
        <time>2019-08-12T08:29:30Z</time>
      </trkpt>
      <trkpt lat="39.3703520" lon="-3.7881930">
        <ele>798.6</ele>
        <time>2019-08-12T08:29:31Z</time>
      </trkpt>
      <trkpt lat="39.3704200" lon="-3.7882170">
        <ele>798.6</ele>
        <time>2019-08-12T08:29:32Z</time>
      </trkpt>
      <trkpt lat="39.3704870" lon="-3.7882410">
        <ele>798.6</ele>
        <time>2019-08-12T08:29:33Z</time>
      </trkpt>
      <trkpt lat="39.3705550" lon="-3.7882650">
        <ele>798.6</ele>
        <time>2019-08-12T08:29:34Z</time>
      </trkpt>
      <trkpt lat="39.3706220" lon="-3.7882890">
        <ele>798.6</ele>
        <time>2019-08-12T08:29:35Z</time>
      </trkpt>
      <trkpt lat="39.3706900" lon="-3.7883130">
        <ele>798.6</ele>
        <time>2019-08-12T08:29:36Z</time>
      </trkpt>
      <trkpt lat="39.3707580" lon="-3.7883370">
        <ele>798.6</ele>
        <time>2019-08-12T08:29:37Z</time>
      </trkpt>
      <trkpt lat="39.3708250" lon="-3.7883610">
        <ele>798.5</ele>
        <time>2019-08-12T08:29:38Z</time>
      </trkpt>
      <trkpt lat="39.3708930" lon="-3.7883850">
        <ele>798.5</ele>
        <time>2019-08-12T08:29:39Z</time>
      </trkpt>
      <trkpt lat="39.3709600" lon="-3.7884090">
        <ele>798.4</ele>
        <time>2019-08-12T08:29:40Z</time>
      </trkpt>
      <trkpt lat="39.3710280" lon="-3.7884330">
        <ele>798.3</ele>
        <time>2019-08-12T08:29:41Z</time>
      </trkpt>
      <trkpt lat="39.3710960" lon="-3.7884570">
        <ele>798.2</ele>
        <time>2019-08-12T08:29:42Z</time>
      </trkpt>
      <trkpt lat="39.3711640" lon="-3.7884810">
        <ele>798.1</ele>
        <time>2019-08-12T08:29:43Z</time>
      </trkpt>
      <trkpt lat="39.3712320" lon="-3.7885050">
        <ele>798.0</ele>
        <time>2019-08-12T08:29:44Z</time>
      </trkpt>
      <trkpt lat="39.3713000" lon="-3.7885290">
        <ele>798.0</ele>
        <time>2019-08-12T08:29:45Z</time>
      </trkpt>
      <trkpt lat="39.3713690" lon="-3.7885530">
        <ele>797.9</ele>
        <time>2019-08-12T08:29:46Z</time>
      </trkpt>
      <trkpt lat="39.3714370" lon="-3.7885770">
        <ele>797.8</ele>
        <time>2019-08-12T08:29:47Z</time>
      </trkpt>
      <trkpt lat="39.3715060" lon="-3.7886020">
        <ele>797.7</ele>
        <time>2019-08-12T08:29:48Z</time>
      </trkpt>
      <trkpt lat="39.3715740" lon="-3.7886260">
        <ele>797.6</ele>
        <time>2019-08-12T08:29:49Z</time>
      </trkpt>
      <trkpt lat="39.3716430" lon="-3.7886510">
        <ele>797.5</ele>
        <time>2019-08-12T08:29:50Z</time>
      </trkpt>
      <trkpt lat="39.3717120" lon="-3.7886750">
        <ele>797.5</ele>
        <time>2019-08-12T08:29:51Z</time>
      </trkpt>
      <trkpt lat="39.3717810" lon="-3.7887000">
        <ele>797.4</ele>
        <time>2019-08-12T08:29:52Z</time>
      </trkpt>
      <trkpt lat="39.3718500" lon="-3.7887240">
        <ele>797.3</ele>
        <time>2019-08-12T08:29:53Z</time>
      </trkpt>
      <trkpt lat="39.3719190" lon="-3.7887490">
        <ele>797.3</ele>
        <time>2019-08-12T08:29:54Z</time>
      </trkpt>
      <trkpt lat="39.3719870" lon="-3.7887730">
        <ele>797.3</ele>
        <time>2019-08-12T08:29:55Z</time>
      </trkpt>
      <trkpt lat="39.3720560" lon="-3.7887980">
        <ele>797.3</ele>
        <time>2019-08-12T08:29:56Z</time>
      </trkpt>
      <trkpt lat="39.3721250" lon="-3.7888220">
        <ele>797.3</ele>
        <time>2019-08-12T08:29:57Z</time>
      </trkpt>
      <trkpt lat="39.3721930" lon="-3.7888470">
        <ele>797.2</ele>
        <time>2019-08-12T08:29:58Z</time>
      </trkpt>
      <trkpt lat="39.3722620" lon="-3.7888710">
        <ele>797.2</ele>
        <time>2019-08-12T08:29:59Z</time>
      </trkpt>
      <trkpt lat="39.3723300" lon="-3.7888950">
        <ele>797.2</ele>
        <time>2019-08-12T08:30:00Z</time>
      </trkpt>
      <trkpt lat="39.3723980" lon="-3.7889200">
        <ele>797.1</ele>
        <time>2019-08-12T08:30:01Z</time>
      </trkpt>
      <trkpt lat="39.3724660" lon="-3.7889440">
        <ele>797.1</ele>
        <time>2019-08-12T08:30:02Z</time>
      </trkpt>
      <trkpt lat="39.3725330" lon="-3.7889680">
        <ele>797.0</ele>
        <time>2019-08-12T08:30:03Z</time>
      </trkpt>
      <trkpt lat="39.3726000" lon="-3.7889920">
        <ele>796.9</ele>
        <time>2019-08-12T08:30:04Z</time>
      </trkpt>
      <trkpt lat="39.3726680" lon="-3.7890160">
        <ele>796.8</ele>
        <time>2019-08-12T08:30:05Z</time>
      </trkpt>
      <trkpt lat="39.3727340" lon="-3.7890400">
        <ele>796.6</ele>
        <time>2019-08-12T08:30:06Z</time>
      </trkpt>
      <trkpt lat="39.3728010" lon="-3.7890640">
        <ele>796.4</ele>
        <time>2019-08-12T08:30:07Z</time>
      </trkpt>
      <trkpt lat="39.3728670" lon="-3.7890880">
        <ele>796.3</ele>
        <time>2019-08-12T08:30:08Z</time>
      </trkpt>
      <trkpt lat="39.3729330" lon="-3.7891120">
        <ele>796.1</ele>
        <time>2019-08-12T08:30:09Z</time>
      </trkpt>
      <trkpt lat="39.3730000" lon="-3.7891350">
        <ele>796.0</ele>
        <time>2019-08-12T08:30:10Z</time>
      </trkpt>
      <trkpt lat="39.3730660" lon="-3.7891590">
        <ele>795.9</ele>
        <time>2019-08-12T08:30:11Z</time>
      </trkpt>
      <trkpt lat="39.3731320" lon="-3.7891830">
        <ele>795.7</ele>
        <time>2019-08-12T08:30:12Z</time>
      </trkpt>
      <trkpt lat="39.3731980" lon="-3.7892070">
        <ele>795.6</ele>
        <time>2019-08-12T08:30:13Z</time>
      </trkpt>
      <trkpt lat="39.3732640" lon="-3.7892300">
        <ele>795.5</ele>
        <time>2019-08-12T08:30:14Z</time>
      </trkpt>
      <trkpt lat="39.3733300" lon="-3.7892540">
        <ele>795.4</ele>
        <time>2019-08-12T08:30:15Z</time>
      </trkpt>
      <trkpt lat="39.3733960" lon="-3.7892780">
        <ele>795.3</ele>
        <time>2019-08-12T08:30:16Z</time>
      </trkpt>
      <trkpt lat="39.3734620" lon="-3.7893020">
        <ele>795.1</ele>
        <time>2019-08-12T08:30:17Z</time>
      </trkpt>
      <trkpt lat="39.3735290" lon="-3.7893260">
        <ele>794.9</ele>
        <time>2019-08-12T08:30:18Z</time>
      </trkpt>
      <trkpt lat="39.3735960" lon="-3.7893500">
        <ele>794.8</ele>
        <time>2019-08-12T08:30:19Z</time>
      </trkpt>
      <trkpt lat="39.3736630" lon="-3.7893740">
        <ele>794.6</ele>
        <time>2019-08-12T08:30:20Z</time>
      </trkpt>
      <trkpt lat="39.3737300" lon="-3.7893980">
        <ele>794.4</ele>
        <time>2019-08-12T08:30:21Z</time>
      </trkpt>
      <trkpt lat="39.3737980" lon="-3.7894230">
        <ele>794.2</ele>
        <time>2019-08-12T08:30:22Z</time>
      </trkpt>
      <trkpt lat="39.3738660" lon="-3.7894470">
        <ele>794.0</ele>
        <time>2019-08-12T08:30:23Z</time>
      </trkpt>
      <trkpt lat="39.3739340" lon="-3.7894720">
        <ele>793.9</ele>
        <time>2019-08-12T08:30:24Z</time>
      </trkpt>
      <trkpt lat="39.3740030" lon="-3.7894970">
        <ele>793.8</ele>
        <time>2019-08-12T08:30:25Z</time>
      </trkpt>
      <trkpt lat="39.3740720" lon="-3.7895220">
        <ele>793.8</ele>
        <time>2019-08-12T08:30:26Z</time>
      </trkpt>
      <trkpt lat="39.3741410" lon="-3.7895470">
        <ele>793.7</ele>
        <time>2019-08-12T08:30:27Z</time>
      </trkpt>
      <trkpt lat="39.3742110" lon="-3.7895720">
        <ele>793.7</ele>
        <time>2019-08-12T08:30:28Z</time>
      </trkpt>
      <trkpt lat="39.3742800" lon="-3.7895970">
        <ele>793.6</ele>
        <time>2019-08-12T08:30:29Z</time>
      </trkpt>
      <trkpt lat="39.3743500" lon="-3.7896220">
        <ele>793.6</ele>
        <time>2019-08-12T08:30:30Z</time>
      </trkpt>
      <trkpt lat="39.3744200" lon="-3.7896470">
        <ele>793.7</ele>
        <time>2019-08-12T08:30:31Z</time>
      </trkpt>
      <trkpt lat="39.3744900" lon="-3.7896720">
        <ele>793.7</ele>
        <time>2019-08-12T08:30:32Z</time>
      </trkpt>
      <trkpt lat="39.3745590" lon="-3.7896980">
        <ele>793.7</ele>
        <time>2019-08-12T08:30:33Z</time>
      </trkpt>
      <trkpt lat="39.3746290" lon="-3.7897230">
        <ele>793.7</ele>
        <time>2019-08-12T08:30:34Z</time>
      </trkpt>
      <trkpt lat="39.3746980" lon="-3.7897480">
        <ele>793.7</ele>
        <time>2019-08-12T08:30:35Z</time>
      </trkpt>
      <trkpt lat="39.3747680" lon="-3.7897720">
        <ele>793.6</ele>
        <time>2019-08-12T08:30:36Z</time>
      </trkpt>
      <trkpt lat="39.3748370" lon="-3.7897970">
        <ele>793.6</ele>
        <time>2019-08-12T08:30:37Z</time>
      </trkpt>
      <trkpt lat="39.3749050" lon="-3.7898220">
        <ele>793.5</ele>
        <time>2019-08-12T08:30:38Z</time>
      </trkpt>
      <trkpt lat="39.3749740" lon="-3.7898460">
        <ele>793.5</ele>
        <time>2019-08-12T08:30:39Z</time>
      </trkpt>
      <trkpt lat="39.3750420" lon="-3.7898700">
        <ele>793.4</ele>
        <time>2019-08-12T08:30:40Z</time>
      </trkpt>
      <trkpt lat="39.3751090" lon="-3.7898950">
        <ele>793.4</ele>
        <time>2019-08-12T08:30:41Z</time>
      </trkpt>
      <trkpt lat="39.3751760" lon="-3.7899180">
        <ele>793.4</ele>
        <time>2019-08-12T08:30:42Z</time>
      </trkpt>
      <trkpt lat="39.3752430" lon="-3.7899420">
        <ele>793.3</ele>
        <time>2019-08-12T08:30:43Z</time>
      </trkpt>
      <trkpt lat="39.3753090" lon="-3.7899660">
        <ele>793.3</ele>
        <time>2019-08-12T08:30:44Z</time>
      </trkpt>
      <trkpt lat="39.3753750" lon="-3.7899890">
        <ele>793.2</ele>
        <time>2019-08-12T08:30:45Z</time>
      </trkpt>
      <trkpt lat="39.3754410" lon="-3.7900120">
        <ele>793.2</ele>
        <time>2019-08-12T08:30:46Z</time>
      </trkpt>
      <trkpt lat="39.3755070" lon="-3.7900360">
        <ele>793.1</ele>
        <time>2019-08-12T08:30:47Z</time>
      </trkpt>
      <trkpt lat="39.3755730" lon="-3.7900590">
        <ele>793.0</ele>
        <time>2019-08-12T08:30:48Z</time>
      </trkpt>
      <trkpt lat="39.3756390" lon="-3.7900820">
        <ele>792.9</ele>
        <time>2019-08-12T08:30:49Z</time>
      </trkpt>
      <trkpt lat="39.3757060" lon="-3.7901050">
        <ele>792.9</ele>
        <time>2019-08-12T08:30:50Z</time>
      </trkpt>
      <trkpt lat="39.3757720" lon="-3.7901290">
        <ele>792.8</ele>
        <time>2019-08-12T08:30:51Z</time>
      </trkpt>
      <trkpt lat="39.3758400" lon="-3.7901520">
        <ele>792.7</ele>
        <time>2019-08-12T08:30:52Z</time>
      </trkpt>
      <trkpt lat="39.3759070" lon="-3.7901760">
        <ele>792.7</ele>
        <time>2019-08-12T08:30:53Z</time>
      </trkpt>
      <trkpt lat="39.3759750" lon="-3.7902000">
        <ele>792.6</ele>
        <time>2019-08-12T08:30:54Z</time>
      </trkpt>
      <trkpt lat="39.3760430" lon="-3.7902240">
        <ele>792.6</ele>
        <time>2019-08-12T08:30:55Z</time>
      </trkpt>
      <trkpt lat="39.3761110" lon="-3.7902470">
        <ele>792.5</ele>
        <time>2019-08-12T08:30:56Z</time>
      </trkpt>
      <trkpt lat="39.3761790" lon="-3.7902710">
        <ele>792.5</ele>
        <time>2019-08-12T08:30:57Z</time>
      </trkpt>
      <trkpt lat="39.3762470" lon="-3.7902950">
        <ele>792.4</ele>
        <time>2019-08-12T08:30:58Z</time>
      </trkpt>
      <trkpt lat="39.3763150" lon="-3.7903190">
        <ele>792.4</ele>
        <time>2019-08-12T08:30:59Z</time>
      </trkpt>
      <trkpt lat="39.3763820" lon="-3.7903430">
        <ele>792.4</ele>
        <time>2019-08-12T08:31:00Z</time>
      </trkpt>
      <trkpt lat="39.3764490" lon="-3.7903670">
        <ele>792.4</ele>
        <time>2019-08-12T08:31:01Z</time>
      </trkpt>
      <trkpt lat="39.3765160" lon="-3.7903910">
        <ele>792.4</ele>
        <time>2019-08-12T08:31:02Z</time>
      </trkpt>
      <trkpt lat="39.3765820" lon="-3.7904150">
        <ele>792.4</ele>
        <time>2019-08-12T08:31:03Z</time>
      </trkpt>
      <trkpt lat="39.3766480" lon="-3.7904390">
        <ele>792.5</ele>
        <time>2019-08-12T08:31:04Z</time>
      </trkpt>
      <trkpt lat="39.3767140" lon="-3.7904630">
        <ele>792.5</ele>
        <time>2019-08-12T08:31:05Z</time>
      </trkpt>
      <trkpt lat="39.3767790" lon="-3.7904860">
        <ele>792.5</ele>
        <time>2019-08-12T08:31:06Z</time>
      </trkpt>
      <trkpt lat="39.3768440" lon="-3.7905100">
        <ele>792.5</ele>
        <time>2019-08-12T08:31:07Z</time>
      </trkpt>
      <trkpt lat="39.3769090" lon="-3.7905340">
        <ele>792.5</ele>
        <time>2019-08-12T08:31:08Z</time>
      </trkpt>
      <trkpt lat="39.3769730" lon="-3.7905580">
        <ele>792.4</ele>
        <time>2019-08-12T08:31:09Z</time>
      </trkpt>
      <trkpt lat="39.3770380" lon="-3.7905810">
        <ele>792.4</ele>
        <time>2019-08-12T08:31:10Z</time>
      </trkpt>
      <trkpt lat="39.3771020" lon="-3.7906050">
        <ele>792.4</ele>
        <time>2019-08-12T08:31:11Z</time>
      </trkpt>
      <trkpt lat="39.3771660" lon="-3.7906290">
        <ele>792.3</ele>
        <time>2019-08-12T08:31:12Z</time>
      </trkpt>
      <trkpt lat="39.3772300" lon="-3.7906520">
        <ele>792.3</ele>
        <time>2019-08-12T08:31:13Z</time>
      </trkpt>
      <trkpt lat="39.3772940" lon="-3.7906760">
        <ele>792.2</ele>
        <time>2019-08-12T08:31:14Z</time>
      </trkpt>
      <trkpt lat="39.3773580" lon="-3.7907000">
        <ele>792.2</ele>
        <time>2019-08-12T08:31:15Z</time>
      </trkpt>
      <trkpt lat="39.3774220" lon="-3.7907230">
        <ele>792.1</ele>
        <time>2019-08-12T08:31:16Z</time>
      </trkpt>
      <trkpt lat="39.3774860" lon="-3.7907470">
        <ele>792.0</ele>
        <time>2019-08-12T08:31:17Z</time>
      </trkpt>
      <trkpt lat="39.3775500" lon="-3.7907700">
        <ele>792.0</ele>
        <time>2019-08-12T08:31:18Z</time>
      </trkpt>
      <trkpt lat="39.3776150" lon="-3.7907940">
        <ele>791.9</ele>
        <time>2019-08-12T08:31:19Z</time>
      </trkpt>
      <trkpt lat="39.3776800" lon="-3.7908180">
        <ele>791.8</ele>
        <time>2019-08-12T08:31:20Z</time>
      </trkpt>
      <trkpt lat="39.3777450" lon="-3.7908410">
        <ele>791.7</ele>
        <time>2019-08-12T08:31:21Z</time>
      </trkpt>
      <trkpt lat="39.3778100" lon="-3.7908650">
        <ele>791.7</ele>
        <time>2019-08-12T08:31:22Z</time>
      </trkpt>
      <trkpt lat="39.3778750" lon="-3.7908880">
        <ele>791.7</ele>
        <time>2019-08-12T08:31:23Z</time>
      </trkpt>
      <trkpt lat="39.3779400" lon="-3.7909120">
        <ele>791.6</ele>
        <time>2019-08-12T08:31:24Z</time>
      </trkpt>
      <trkpt lat="39.3780050" lon="-3.7909360">
        <ele>791.6</ele>
        <time>2019-08-12T08:31:25Z</time>
      </trkpt>
      <trkpt lat="39.3780690" lon="-3.7909590">
        <ele>791.6</ele>
        <time>2019-08-12T08:31:26Z</time>
      </trkpt>
      <trkpt lat="39.3781340" lon="-3.7909830">
        <ele>791.6</ele>
        <time>2019-08-12T08:31:27Z</time>
      </trkpt>
      <trkpt lat="39.3781980" lon="-3.7910060">
        <ele>791.6</ele>
        <time>2019-08-12T08:31:28Z</time>
      </trkpt>
      <trkpt lat="39.3782620" lon="-3.7910290">
        <ele>791.6</ele>
        <time>2019-08-12T08:31:29Z</time>
      </trkpt>
      <trkpt lat="39.3783250" lon="-3.7910520">
        <ele>791.6</ele>
        <time>2019-08-12T08:31:30Z</time>
      </trkpt>
      <trkpt lat="39.3783880" lon="-3.7910760">
        <ele>791.6</ele>
        <time>2019-08-12T08:31:31Z</time>
      </trkpt>
      <trkpt lat="39.3784510" lon="-3.7910990">
        <ele>791.6</ele>
        <time>2019-08-12T08:31:32Z</time>
      </trkpt>
      <trkpt lat="39.3785140" lon="-3.7911210">
        <ele>791.6</ele>
        <time>2019-08-12T08:31:33Z</time>
      </trkpt>
      <trkpt lat="39.3785760" lon="-3.7911440">
        <ele>791.7</ele>
        <time>2019-08-12T08:31:34Z</time>
      </trkpt>
      <trkpt lat="39.3786380" lon="-3.7911670">
        <ele>791.7</ele>
        <time>2019-08-12T08:31:35Z</time>
      </trkpt>
      <trkpt lat="39.3787000" lon="-3.7911890">
        <ele>791.7</ele>
        <time>2019-08-12T08:31:36Z</time>
      </trkpt>
      <trkpt lat="39.3787610" lon="-3.7912110">
        <ele>791.6</ele>
        <time>2019-08-12T08:31:37Z</time>
      </trkpt>
      <trkpt lat="39.3788220" lon="-3.7912330">
        <ele>791.6</ele>
        <time>2019-08-12T08:31:38Z</time>
      </trkpt>
      <trkpt lat="39.3788830" lon="-3.7912550">
        <ele>791.6</ele>
        <time>2019-08-12T08:31:39Z</time>
      </trkpt>
      <trkpt lat="39.3789430" lon="-3.7912760">
        <ele>791.6</ele>
        <time>2019-08-12T08:31:40Z</time>
      </trkpt>
      <trkpt lat="39.3790040" lon="-3.7912980">
        <ele>791.6</ele>
        <time>2019-08-12T08:31:41Z</time>
      </trkpt>
      <trkpt lat="39.3790640" lon="-3.7913200">
        <ele>791.6</ele>
        <time>2019-08-12T08:31:42Z</time>
      </trkpt>
      <trkpt lat="39.3791240" lon="-3.7913420">
        <ele>791.6</ele>
        <time>2019-08-12T08:31:43Z</time>
      </trkpt>
      <trkpt lat="39.3791850" lon="-3.7913640">
        <ele>791.6</ele>
        <time>2019-08-12T08:31:44Z</time>
      </trkpt>
      <trkpt lat="39.3792450" lon="-3.7913860">
        <ele>791.7</ele>
        <time>2019-08-12T08:31:45Z</time>
      </trkpt>
      <trkpt lat="39.3793060" lon="-3.7914090">
        <ele>791.7</ele>
        <time>2019-08-12T08:31:46Z</time>
      </trkpt>
      <trkpt lat="39.3793670" lon="-3.7914330">
        <ele>791.7</ele>
        <time>2019-08-12T08:31:47Z</time>
      </trkpt>
      <trkpt lat="39.3794280" lon="-3.7914570">
        <ele>791.7</ele>
        <time>2019-08-12T08:31:48Z</time>
      </trkpt>
      <trkpt lat="39.3794890" lon="-3.7914810">
        <ele>791.8</ele>
        <time>2019-08-12T08:31:49Z</time>
      </trkpt>
      <trkpt lat="39.3795510" lon="-3.7915050">
        <ele>791.8</ele>
        <time>2019-08-12T08:31:50Z</time>
      </trkpt>
      <trkpt lat="39.3796120" lon="-3.7915300">
        <ele>791.8</ele>
        <time>2019-08-12T08:31:51Z</time>
      </trkpt>
      <trkpt lat="39.3796730" lon="-3.7915540">
        <ele>791.9</ele>
        <time>2019-08-12T08:31:52Z</time>
      </trkpt>
      <trkpt lat="39.3797340" lon="-3.7915780">
        <ele>792.0</ele>
        <time>2019-08-12T08:31:53Z</time>
      </trkpt>
      <trkpt lat="39.3797950" lon="-3.7916020">
        <ele>792.1</ele>
        <time>2019-08-12T08:31:54Z</time>
      </trkpt>
      <trkpt lat="39.3798560" lon="-3.7916250">
        <ele>792.2</ele>
        <time>2019-08-12T08:31:55Z</time>
      </trkpt>
      <trkpt lat="39.3799170" lon="-3.7916480">
        <ele>792.2</ele>
        <time>2019-08-12T08:31:56Z</time>
      </trkpt>
      <trkpt lat="39.3799770" lon="-3.7916700">
        <ele>792.3</ele>
        <time>2019-08-12T08:31:57Z</time>
      </trkpt>
      <trkpt lat="39.3800370" lon="-3.7916920">
        <ele>792.3</ele>
        <time>2019-08-12T08:31:58Z</time>
      </trkpt>
      <trkpt lat="39.3800960" lon="-3.7917140">
        <ele>792.4</ele>
        <time>2019-08-12T08:31:59Z</time>
      </trkpt>
      <trkpt lat="39.3801560" lon="-3.7917360">
        <ele>792.4</ele>
        <time>2019-08-12T08:32:00Z</time>
      </trkpt>
      <trkpt lat="39.3802160" lon="-3.7917580">
        <ele>792.4</ele>
        <time>2019-08-12T08:32:01Z</time>
      </trkpt>
      <trkpt lat="39.3802750" lon="-3.7917810">
        <ele>792.5</ele>
        <time>2019-08-12T08:32:02Z</time>
      </trkpt>
      <trkpt lat="39.3803350" lon="-3.7918030">
        <ele>792.5</ele>
        <time>2019-08-12T08:32:03Z</time>
      </trkpt>
      <trkpt lat="39.3803950" lon="-3.7918260">
        <ele>792.5</ele>
        <time>2019-08-12T08:32:04Z</time>
      </trkpt>
      <trkpt lat="39.3804550" lon="-3.7918480">
        <ele>792.4</ele>
        <time>2019-08-12T08:32:05Z</time>
      </trkpt>
      <trkpt lat="39.3805150" lon="-3.7918700">
        <ele>792.4</ele>
        <time>2019-08-12T08:32:06Z</time>
      </trkpt>
      <trkpt lat="39.3805750" lon="-3.7918920">
        <ele>792.4</ele>
        <time>2019-08-12T08:32:07Z</time>
      </trkpt>
      <trkpt lat="39.3806350" lon="-3.7919140">
        <ele>792.3</ele>
        <time>2019-08-12T08:32:08Z</time>
      </trkpt>
      <trkpt lat="39.3806960" lon="-3.7919360">
        <ele>792.3</ele>
        <time>2019-08-12T08:32:09Z</time>
      </trkpt>
      <trkpt lat="39.3807570" lon="-3.7919580">
        <ele>792.3</ele>
        <time>2019-08-12T08:32:10Z</time>
      </trkpt>
      <trkpt lat="39.3808170" lon="-3.7919800">
        <ele>792.3</ele>
        <time>2019-08-12T08:32:11Z</time>
      </trkpt>
      <trkpt lat="39.3808780" lon="-3.7920010">
        <ele>792.3</ele>
        <time>2019-08-12T08:32:12Z</time>
      </trkpt>
      <trkpt lat="39.3809390" lon="-3.7920230">
        <ele>792.3</ele>
        <time>2019-08-12T08:32:13Z</time>
      </trkpt>
      <trkpt lat="39.3810000" lon="-3.7920450">
        <ele>792.3</ele>
        <time>2019-08-12T08:32:14Z</time>
      </trkpt>
      <trkpt lat="39.3810610" lon="-3.7920670">
        <ele>792.3</ele>
        <time>2019-08-12T08:32:15Z</time>
      </trkpt>
      <trkpt lat="39.3811220" lon="-3.7920890">
        <ele>792.3</ele>
        <time>2019-08-12T08:32:16Z</time>
      </trkpt>
      <trkpt lat="39.3811830" lon="-3.7921110">
        <ele>792.3</ele>
        <time>2019-08-12T08:32:17Z</time>
      </trkpt>
      <trkpt lat="39.3812450" lon="-3.7921330">
        <ele>792.3</ele>
        <time>2019-08-12T08:32:18Z</time>
      </trkpt>
      <trkpt lat="39.3813060" lon="-3.7921550">
        <ele>792.3</ele>
        <time>2019-08-12T08:32:19Z</time>
      </trkpt>
      <trkpt lat="39.3813680" lon="-3.7921770">
        <ele>792.3</ele>
        <time>2019-08-12T08:32:20Z</time>
      </trkpt>
      <trkpt lat="39.3814290" lon="-3.7921990">
        <ele>792.3</ele>
        <time>2019-08-12T08:32:21Z</time>
      </trkpt>
      <trkpt lat="39.3814910" lon="-3.7922210">
        <ele>792.3</ele>
        <time>2019-08-12T08:32:22Z</time>
      </trkpt>
      <trkpt lat="39.3815530" lon="-3.7922440">
        <ele>792.3</ele>
        <time>2019-08-12T08:32:23Z</time>
      </trkpt>
      <trkpt lat="39.3816150" lon="-3.7922660">
        <ele>792.2</ele>
        <time>2019-08-12T08:32:24Z</time>
      </trkpt>
      <trkpt lat="39.3816770" lon="-3.7922880">
        <ele>792.2</ele>
        <time>2019-08-12T08:32:25Z</time>
      </trkpt>
      <trkpt lat="39.3817390" lon="-3.7923110">
        <ele>792.2</ele>
        <time>2019-08-12T08:32:26Z</time>
      </trkpt>
      <trkpt lat="39.3818020" lon="-3.7923340">
        <ele>792.2</ele>
        <time>2019-08-12T08:32:27Z</time>
      </trkpt>
      <trkpt lat="39.3818650" lon="-3.7923560">
        <ele>792.2</ele>
        <time>2019-08-12T08:32:28Z</time>
      </trkpt>
      <trkpt lat="39.3819270" lon="-3.7923790">
        <ele>792.3</ele>
        <time>2019-08-12T08:32:29Z</time>
      </trkpt>
      <trkpt lat="39.3819910" lon="-3.7924020">
        <ele>792.3</ele>
        <time>2019-08-12T08:32:30Z</time>
      </trkpt>
      <trkpt lat="39.3820540" lon="-3.7924250">
        <ele>792.3</ele>
        <time>2019-08-12T08:32:31Z</time>
      </trkpt>
      <trkpt lat="39.3821170" lon="-3.7924480">
        <ele>792.3</ele>
        <time>2019-08-12T08:32:32Z</time>
      </trkpt>
      <trkpt lat="39.3821810" lon="-3.7924710">
        <ele>792.3</ele>
        <time>2019-08-12T08:32:33Z</time>
      </trkpt>
      <trkpt lat="39.3822450" lon="-3.7924940">
        <ele>792.3</ele>
        <time>2019-08-12T08:32:34Z</time>
      </trkpt>
      <trkpt lat="39.3823090" lon="-3.7925170">
        <ele>792.2</ele>
        <time>2019-08-12T08:32:35Z</time>
      </trkpt>
      <trkpt lat="39.3823740" lon="-3.7925410">
        <ele>792.2</ele>
        <time>2019-08-12T08:32:36Z</time>
      </trkpt>
      <trkpt lat="39.3824380" lon="-3.7925640">
        <ele>792.1</ele>
        <time>2019-08-12T08:32:37Z</time>
      </trkpt>
      <trkpt lat="39.3825030" lon="-3.7925880">
        <ele>792.1</ele>
        <time>2019-08-12T08:32:38Z</time>
      </trkpt>
      <trkpt lat="39.3825680" lon="-3.7926110">
        <ele>792.0</ele>
        <time>2019-08-12T08:32:39Z</time>
      </trkpt>
      <trkpt lat="39.3826330" lon="-3.7926350">
        <ele>791.9</ele>
        <time>2019-08-12T08:32:40Z</time>
      </trkpt>
      <trkpt lat="39.3826990" lon="-3.7926580">
        <ele>791.9</ele>
        <time>2019-08-12T08:32:41Z</time>
      </trkpt>
      <trkpt lat="39.3827640" lon="-3.7926820">
        <ele>791.8</ele>
        <time>2019-08-12T08:32:42Z</time>
      </trkpt>
      <trkpt lat="39.3828300" lon="-3.7927060">
        <ele>791.7</ele>
        <time>2019-08-12T08:32:43Z</time>
      </trkpt>
      <trkpt lat="39.3828950" lon="-3.7927300">
        <ele>791.7</ele>
        <time>2019-08-12T08:32:44Z</time>
      </trkpt>
      <trkpt lat="39.3829610" lon="-3.7927540">
        <ele>791.6</ele>
        <time>2019-08-12T08:32:45Z</time>
      </trkpt>
      <trkpt lat="39.3830270" lon="-3.7927780">
        <ele>791.5</ele>
        <time>2019-08-12T08:32:46Z</time>
      </trkpt>
      <trkpt lat="39.3830930" lon="-3.7928010">
        <ele>791.5</ele>
        <time>2019-08-12T08:32:47Z</time>
      </trkpt>
      <trkpt lat="39.3831600" lon="-3.7928250">
        <ele>791.5</ele>
        <time>2019-08-12T08:32:48Z</time>
      </trkpt>
      <trkpt lat="39.3832260" lon="-3.7928490">
        <ele>791.4</ele>
        <time>2019-08-12T08:32:49Z</time>
      </trkpt>
      <trkpt lat="39.3832920" lon="-3.7928740">
        <ele>791.4</ele>
        <time>2019-08-12T08:32:50Z</time>
      </trkpt>
      <trkpt lat="39.3833590" lon="-3.7928980">
        <ele>791.3</ele>
        <time>2019-08-12T08:32:51Z</time>
      </trkpt>
      <trkpt lat="39.3834260" lon="-3.7929220">
        <ele>791.3</ele>
        <time>2019-08-12T08:32:52Z</time>
      </trkpt>
      <trkpt lat="39.3834920" lon="-3.7929460">
        <ele>791.2</ele>
        <time>2019-08-12T08:32:53Z</time>
      </trkpt>
      <trkpt lat="39.3835590" lon="-3.7929700">
        <ele>791.1</ele>
        <time>2019-08-12T08:32:54Z</time>
      </trkpt>
      <trkpt lat="39.3836260" lon="-3.7929940">
        <ele>791.0</ele>
        <time>2019-08-12T08:32:55Z</time>
      </trkpt>
      <trkpt lat="39.3836920" lon="-3.7930190">
        <ele>791.0</ele>
        <time>2019-08-12T08:32:56Z</time>
      </trkpt>
      <trkpt lat="39.3837590" lon="-3.7930430">
        <ele>791.0</ele>
        <time>2019-08-12T08:32:57Z</time>
      </trkpt>
      <trkpt lat="39.3838260" lon="-3.7930670">
        <ele>790.9</ele>
        <time>2019-08-12T08:32:58Z</time>
      </trkpt>
      <trkpt lat="39.3838930" lon="-3.7930920">
        <ele>790.9</ele>
        <time>2019-08-12T08:32:59Z</time>
      </trkpt>
      <trkpt lat="39.3839600" lon="-3.7931160">
        <ele>790.8</ele>
        <time>2019-08-12T08:33:00Z</time>
      </trkpt>
      <trkpt lat="39.3840270" lon="-3.7931410">
        <ele>790.7</ele>
        <time>2019-08-12T08:33:01Z</time>
      </trkpt>
      <trkpt lat="39.3840940" lon="-3.7931650">
        <ele>790.7</ele>
        <time>2019-08-12T08:33:02Z</time>
      </trkpt>
      <trkpt lat="39.3841610" lon="-3.7931900">
        <ele>790.7</ele>
        <time>2019-08-12T08:33:03Z</time>
      </trkpt>
      <trkpt lat="39.3842280" lon="-3.7932150">
        <ele>790.6</ele>
        <time>2019-08-12T08:33:04Z</time>
      </trkpt>
      <trkpt lat="39.3842950" lon="-3.7932390">
        <ele>790.6</ele>
        <time>2019-08-12T08:33:05Z</time>
      </trkpt>
      <trkpt lat="39.3843620" lon="-3.7932640">
        <ele>790.5</ele>
        <time>2019-08-12T08:33:06Z</time>
      </trkpt>
      <trkpt lat="39.3844300" lon="-3.7932890">
        <ele>790.4</ele>
        <time>2019-08-12T08:33:07Z</time>
      </trkpt>
      <trkpt lat="39.3844970" lon="-3.7933140">
        <ele>790.2</ele>
        <time>2019-08-12T08:33:08Z</time>
      </trkpt>
      <trkpt lat="39.3845650" lon="-3.7933390">
        <ele>790.0</ele>
        <time>2019-08-12T08:33:09Z</time>
      </trkpt>
      <trkpt lat="39.3846320" lon="-3.7933640">
        <ele>789.9</ele>
        <time>2019-08-12T08:33:10Z</time>
      </trkpt>
      <trkpt lat="39.3847000" lon="-3.7933880">
        <ele>789.7</ele>
        <time>2019-08-12T08:33:11Z</time>
      </trkpt>
      <trkpt lat="39.3847680" lon="-3.7934130">
        <ele>789.6</ele>
        <time>2019-08-12T08:33:12Z</time>
      </trkpt>
      <trkpt lat="39.3848360" lon="-3.7934380">
        <ele>789.4</ele>
        <time>2019-08-12T08:33:13Z</time>
      </trkpt>
      <trkpt lat="39.3849030" lon="-3.7934630">
        <ele>789.2</ele>
        <time>2019-08-12T08:33:14Z</time>
      </trkpt>
      <trkpt lat="39.3849710" lon="-3.7934880">
        <ele>789.1</ele>
        <time>2019-08-12T08:33:15Z</time>
      </trkpt>
      <trkpt lat="39.3850380" lon="-3.7935130">
        <ele>788.9</ele>
        <time>2019-08-12T08:33:16Z</time>
      </trkpt>
      <trkpt lat="39.3851060" lon="-3.7935370">
        <ele>788.8</ele>
        <time>2019-08-12T08:33:17Z</time>
      </trkpt>
      <trkpt lat="39.3851730" lon="-3.7935620">
        <ele>788.6</ele>
        <time>2019-08-12T08:33:18Z</time>
      </trkpt>
      <trkpt lat="39.3852400" lon="-3.7935870">
        <ele>788.5</ele>
        <time>2019-08-12T08:33:19Z</time>
      </trkpt>
      <trkpt lat="39.3853070" lon="-3.7936110">
        <ele>788.4</ele>
        <time>2019-08-12T08:33:20Z</time>
      </trkpt>
      <trkpt lat="39.3853730" lon="-3.7936360">
        <ele>788.3</ele>
        <time>2019-08-12T08:33:21Z</time>
      </trkpt>
      <trkpt lat="39.3854400" lon="-3.7936600">
        <ele>788.2</ele>
        <time>2019-08-12T08:33:22Z</time>
      </trkpt>
      <trkpt lat="39.3855060" lon="-3.7936840">
        <ele>788.2</ele>
        <time>2019-08-12T08:33:23Z</time>
      </trkpt>
      <trkpt lat="39.3855710" lon="-3.7937090">
        <ele>788.2</ele>
        <time>2019-08-12T08:33:24Z</time>
      </trkpt>
      <trkpt lat="39.3856370" lon="-3.7937330">
        <ele>788.1</ele>
        <time>2019-08-12T08:33:25Z</time>
      </trkpt>
      <trkpt lat="39.3857020" lon="-3.7937570">
        <ele>788.1</ele>
        <time>2019-08-12T08:33:26Z</time>
      </trkpt>
      <trkpt lat="39.3857670" lon="-3.7937800">
        <ele>788.1</ele>
        <time>2019-08-12T08:33:27Z</time>
      </trkpt>
      <trkpt lat="39.3858310" lon="-3.7938040">
        <ele>788.0</ele>
        <time>2019-08-12T08:33:28Z</time>
      </trkpt>
      <trkpt lat="39.3858950" lon="-3.7938280">
        <ele>788.0</ele>
        <time>2019-08-12T08:33:29Z</time>
      </trkpt>
      <trkpt lat="39.3859590" lon="-3.7938510">
        <ele>787.9</ele>
        <time>2019-08-12T08:33:30Z</time>
      </trkpt>
      <trkpt lat="39.3860230" lon="-3.7938740">
        <ele>787.8</ele>
        <time>2019-08-12T08:33:31Z</time>
      </trkpt>
      <trkpt lat="39.3860860" lon="-3.7938970">
        <ele>787.7</ele>
        <time>2019-08-12T08:33:32Z</time>
      </trkpt>
      <trkpt lat="39.3861500" lon="-3.7939200">
        <ele>787.6</ele>
        <time>2019-08-12T08:33:33Z</time>
      </trkpt>
      <trkpt lat="39.3862130" lon="-3.7939430">
        <ele>787.5</ele>
        <time>2019-08-12T08:33:34Z</time>
      </trkpt>
      <trkpt lat="39.3862750" lon="-3.7939660">
        <ele>787.4</ele>
        <time>2019-08-12T08:33:35Z</time>
      </trkpt>
      <trkpt lat="39.3863380" lon="-3.7939890">
        <ele>787.3</ele>
        <time>2019-08-12T08:33:36Z</time>
      </trkpt>
      <trkpt lat="39.3864000" lon="-3.7940110">
        <ele>787.1</ele>
        <time>2019-08-12T08:33:37Z</time>
      </trkpt>
      <trkpt lat="39.3864620" lon="-3.7940340">
        <ele>786.9</ele>
        <time>2019-08-12T08:33:38Z</time>
      </trkpt>
      <trkpt lat="39.3865250" lon="-3.7940570">
        <ele>786.8</ele>
        <time>2019-08-12T08:33:39Z</time>
      </trkpt>
      <trkpt lat="39.3865870" lon="-3.7940790">
        <ele>786.7</ele>
        <time>2019-08-12T08:33:40Z</time>
      </trkpt>
      <trkpt lat="39.3866480" lon="-3.7941020">
        <ele>786.5</ele>
        <time>2019-08-12T08:33:41Z</time>
      </trkpt>
      <trkpt lat="39.3867100" lon="-3.7941250">
        <ele>786.4</ele>
        <time>2019-08-12T08:33:42Z</time>
      </trkpt>
      <trkpt lat="39.3867720" lon="-3.7941480">
        <ele>786.3</ele>
        <time>2019-08-12T08:33:43Z</time>
      </trkpt>
      <trkpt lat="39.3868330" lon="-3.7941710">
        <ele>786.3</ele>
        <time>2019-08-12T08:33:44Z</time>
      </trkpt>
      <trkpt lat="39.3868950" lon="-3.7941940">
        <ele>786.2</ele>
        <time>2019-08-12T08:33:45Z</time>
      </trkpt>
      <trkpt lat="39.3869560" lon="-3.7942170">
        <ele>786.1</ele>
        <time>2019-08-12T08:33:46Z</time>
      </trkpt>
      <trkpt lat="39.3870180" lon="-3.7942400">
        <ele>786.0</ele>
        <time>2019-08-12T08:33:47Z</time>
      </trkpt>
      <trkpt lat="39.3870790" lon="-3.7942630">
        <ele>785.9</ele>
        <time>2019-08-12T08:33:48Z</time>
      </trkpt>
      <trkpt lat="39.3871410" lon="-3.7942870">
        <ele>785.8</ele>
        <time>2019-08-12T08:33:49Z</time>
      </trkpt>
      <trkpt lat="39.3872040" lon="-3.7943110">
        <ele>785.7</ele>
        <time>2019-08-12T08:33:50Z</time>
      </trkpt>
      <trkpt lat="39.3872660" lon="-3.7943350">
        <ele>785.5</ele>
        <time>2019-08-12T08:33:51Z</time>
      </trkpt>
      <trkpt lat="39.3873300" lon="-3.7943590">
        <ele>785.4</ele>
        <time>2019-08-12T08:33:52Z</time>
      </trkpt>
      <trkpt lat="39.3873940" lon="-3.7943840">
        <ele>785.2</ele>
        <time>2019-08-12T08:33:53Z</time>
      </trkpt>
      <trkpt lat="39.3874580" lon="-3.7944090">
        <ele>785.1</ele>
        <time>2019-08-12T08:33:54Z</time>
      </trkpt>
      <trkpt lat="39.3875220" lon="-3.7944350">
        <ele>785.0</ele>
        <time>2019-08-12T08:33:55Z</time>
      </trkpt>
      <trkpt lat="39.3875870" lon="-3.7944610">
        <ele>784.8</ele>
        <time>2019-08-12T08:33:56Z</time>
      </trkpt>
      <trkpt lat="39.3876500" lon="-3.7944880">
        <ele>784.7</ele>
        <time>2019-08-12T08:33:57Z</time>
      </trkpt>
      <trkpt lat="39.3877130" lon="-3.7945160">
        <ele>784.6</ele>
        <time>2019-08-12T08:33:58Z</time>
      </trkpt>
      <trkpt lat="39.3877760" lon="-3.7945430">
        <ele>784.6</ele>
        <time>2019-08-12T08:33:59Z</time>
      </trkpt>
      <trkpt lat="39.3878380" lon="-3.7945690">
        <ele>784.5</ele>
        <time>2019-08-12T08:34:00Z</time>
      </trkpt>
      <trkpt lat="39.3879000" lon="-3.7945940">
        <ele>784.5</ele>
        <time>2019-08-12T08:34:01Z</time>
      </trkpt>
      <trkpt lat="39.3879600" lon="-3.7946170">
        <ele>784.5</ele>
        <time>2019-08-12T08:34:02Z</time>
      </trkpt>
      <trkpt lat="39.3880210" lon="-3.7946390">
        <ele>784.4</ele>
        <time>2019-08-12T08:34:03Z</time>
      </trkpt>
      <trkpt lat="39.3880810" lon="-3.7946590">
        <ele>784.3</ele>
        <time>2019-08-12T08:34:04Z</time>
      </trkpt>
      <trkpt lat="39.3881410" lon="-3.7946780">
        <ele>784.2</ele>
        <time>2019-08-12T08:34:05Z</time>
      </trkpt>
      <trkpt lat="39.3882010" lon="-3.7946960">
        <ele>784.1</ele>
        <time>2019-08-12T08:34:06Z</time>
      </trkpt>
      <trkpt lat="39.3882620" lon="-3.7947140">
        <ele>784.1</ele>
        <time>2019-08-12T08:34:07Z</time>
      </trkpt>
      <trkpt lat="39.3883220" lon="-3.7947320">
        <ele>784.0</ele>
        <time>2019-08-12T08:34:08Z</time>
      </trkpt>
      <trkpt lat="39.3883830" lon="-3.7947500">
        <ele>784.0</ele>
        <time>2019-08-12T08:34:09Z</time>
      </trkpt>
      <trkpt lat="39.3884440" lon="-3.7947670">
        <ele>784.0</ele>
        <time>2019-08-12T08:34:10Z</time>
      </trkpt>
      <trkpt lat="39.3885040" lon="-3.7947850">
        <ele>784.1</ele>
        <time>2019-08-12T08:34:11Z</time>
      </trkpt>
      <trkpt lat="39.3885640" lon="-3.7948020">
        <ele>784.1</ele>
        <time>2019-08-12T08:34:12Z</time>
      </trkpt>
      <trkpt lat="39.3886240" lon="-3.7948200">
        <ele>784.1</ele>
        <time>2019-08-12T08:34:13Z</time>
      </trkpt>
      <trkpt lat="39.3886840" lon="-3.7948380">
        <ele>784.1</ele>
        <time>2019-08-12T08:34:14Z</time>
      </trkpt>
      <trkpt lat="39.3887430" lon="-3.7948560">
        <ele>784.2</ele>
        <time>2019-08-12T08:34:15Z</time>
      </trkpt>
      <trkpt lat="39.3888020" lon="-3.7948750">
        <ele>784.2</ele>
        <time>2019-08-12T08:34:16Z</time>
      </trkpt>
      <trkpt lat="39.3888600" lon="-3.7948950">
        <ele>784.2</ele>
        <time>2019-08-12T08:34:17Z</time>
      </trkpt>
      <trkpt lat="39.3889180" lon="-3.7949140">
        <ele>784.2</ele>
        <time>2019-08-12T08:34:18Z</time>
      </trkpt>
      <trkpt lat="39.3889750" lon="-3.7949340">
        <ele>784.2</ele>
        <time>2019-08-12T08:34:19Z</time>
      </trkpt>
      <trkpt lat="39.3890320" lon="-3.7949550">
        <ele>784.2</ele>
        <time>2019-08-12T08:34:20Z</time>
      </trkpt>
      <trkpt lat="39.3890880" lon="-3.7949750">
        <ele>784.2</ele>
        <time>2019-08-12T08:34:21Z</time>
      </trkpt>
      <trkpt lat="39.3891430" lon="-3.7949960">
        <ele>784.2</ele>
        <time>2019-08-12T08:34:22Z</time>
      </trkpt>
      <trkpt lat="39.3891980" lon="-3.7950170">
        <ele>784.2</ele>
        <time>2019-08-12T08:34:23Z</time>
      </trkpt>
      <trkpt lat="39.3892520" lon="-3.7950390">
        <ele>784.1</ele>
        <time>2019-08-12T08:34:24Z</time>
      </trkpt>
      <trkpt lat="39.3893050" lon="-3.7950600">
        <ele>784.1</ele>
        <time>2019-08-12T08:34:25Z</time>
      </trkpt>
      <trkpt lat="39.3893580" lon="-3.7950820">
        <ele>784.1</ele>
        <time>2019-08-12T08:34:26Z</time>
      </trkpt>
      <trkpt lat="39.3894100" lon="-3.7951040">
        <ele>784.1</ele>
        <time>2019-08-12T08:34:27Z</time>
      </trkpt>
      <trkpt lat="39.3894630" lon="-3.7951250">
        <ele>784.2</ele>
        <time>2019-08-12T08:34:28Z</time>
      </trkpt>
      <trkpt lat="39.3895150" lon="-3.7951460">
        <ele>784.2</ele>
        <time>2019-08-12T08:34:29Z</time>
      </trkpt>
      <trkpt lat="39.3895670" lon="-3.7951660">
        <ele>784.3</ele>
        <time>2019-08-12T08:34:30Z</time>
      </trkpt>
      <trkpt lat="39.3896190" lon="-3.7951860">
        <ele>784.3</ele>
        <time>2019-08-12T08:34:31Z</time>
      </trkpt>
      <trkpt lat="39.3896720" lon="-3.7952050">
        <ele>784.4</ele>
        <time>2019-08-12T08:34:32Z</time>
      </trkpt>
      <trkpt lat="39.3897250" lon="-3.7952240">
        <ele>784.4</ele>
        <time>2019-08-12T08:34:33Z</time>
      </trkpt>
      <trkpt lat="39.3897780" lon="-3.7952410">
        <ele>784.5</ele>
        <time>2019-08-12T08:34:34Z</time>
      </trkpt>
      <trkpt lat="39.3898310" lon="-3.7952580">
        <ele>784.5</ele>
        <time>2019-08-12T08:34:35Z</time>
      </trkpt>
      <trkpt lat="39.3898850" lon="-3.7952740">
        <ele>784.5</ele>
        <time>2019-08-12T08:34:36Z</time>
      </trkpt>
      <trkpt lat="39.3899380" lon="-3.7952900">
        <ele>784.5</ele>
        <time>2019-08-12T08:34:37Z</time>
      </trkpt>
      <trkpt lat="39.3899920" lon="-3.7953060">
        <ele>784.6</ele>
        <time>2019-08-12T08:34:38Z</time>
      </trkpt>
      <trkpt lat="39.3900450" lon="-3.7953210">
        <ele>784.6</ele>
        <time>2019-08-12T08:34:39Z</time>
      </trkpt>
      <trkpt lat="39.3900980" lon="-3.7953360">
        <ele>784.7</ele>
        <time>2019-08-12T08:34:40Z</time>
      </trkpt>
      <trkpt lat="39.3901510" lon="-3.7953520">
        <ele>784.7</ele>
        <time>2019-08-12T08:34:41Z</time>
      </trkpt>
      <trkpt lat="39.3902030" lon="-3.7953670">
        <ele>784.8</ele>
        <time>2019-08-12T08:34:42Z</time>
      </trkpt>
      <trkpt lat="39.3902550" lon="-3.7953820">
        <ele>784.8</ele>
        <time>2019-08-12T08:34:43Z</time>
      </trkpt>
      <trkpt lat="39.3903070" lon="-3.7953980">
        <ele>784.8</ele>
        <time>2019-08-12T08:34:44Z</time>
      </trkpt>
      <trkpt lat="39.3903580" lon="-3.7954130">
        <ele>784.9</ele>
        <time>2019-08-12T08:34:45Z</time>
      </trkpt>
      <trkpt lat="39.3904100" lon="-3.7954300">
        <ele>784.9</ele>
        <time>2019-08-12T08:34:46Z</time>
      </trkpt>
      <trkpt lat="39.3904610" lon="-3.7954460">
        <ele>784.9</ele>
        <time>2019-08-12T08:34:47Z</time>
      </trkpt>
      <trkpt lat="39.3905130" lon="-3.7954630">
        <ele>784.9</ele>
        <time>2019-08-12T08:34:48Z</time>
      </trkpt>
      <trkpt lat="39.3905650" lon="-3.7954800">
        <ele>784.9</ele>
        <time>2019-08-12T08:34:49Z</time>
      </trkpt>
      <trkpt lat="39.3906180" lon="-3.7954980">
        <ele>784.9</ele>
        <time>2019-08-12T08:34:50Z</time>
      </trkpt>
      <trkpt lat="39.3906700" lon="-3.7955160">
        <ele>784.9</ele>
        <time>2019-08-12T08:34:51Z</time>
      </trkpt>
      <trkpt lat="39.3907240" lon="-3.7955350">
        <ele>784.8</ele>
        <time>2019-08-12T08:34:52Z</time>
      </trkpt>
      <trkpt lat="39.3907770" lon="-3.7955550">
        <ele>784.8</ele>
        <time>2019-08-12T08:34:53Z</time>
      </trkpt>
      <trkpt lat="39.3908320" lon="-3.7955750">
        <ele>784.8</ele>
        <time>2019-08-12T08:34:54Z</time>
      </trkpt>
      <trkpt lat="39.3908870" lon="-3.7955960">
        <ele>784.8</ele>
        <time>2019-08-12T08:34:55Z</time>
      </trkpt>
      <trkpt lat="39.3909420" lon="-3.7956170">
        <ele>784.8</ele>
        <time>2019-08-12T08:34:56Z</time>
      </trkpt>
      <trkpt lat="39.3909980" lon="-3.7956390">
        <ele>784.7</ele>
        <time>2019-08-12T08:34:57Z</time>
      </trkpt>
      <trkpt lat="39.3910550" lon="-3.7956610">
        <ele>784.7</ele>
        <time>2019-08-12T08:34:58Z</time>
      </trkpt>
      <trkpt lat="39.3911120" lon="-3.7956830">
        <ele>784.7</ele>
        <time>2019-08-12T08:34:59Z</time>
      </trkpt>
      <trkpt lat="39.3911700" lon="-3.7957060">
        <ele>784.6</ele>
        <time>2019-08-12T08:35:00Z</time>
      </trkpt>
      <trkpt lat="39.3912290" lon="-3.7957300">
        <ele>784.6</ele>
        <time>2019-08-12T08:35:01Z</time>
      </trkpt>
      <trkpt lat="39.3912880" lon="-3.7957540">
        <ele>784.5</ele>
        <time>2019-08-12T08:35:02Z</time>
      </trkpt>
      <trkpt lat="39.3913480" lon="-3.7957780">
        <ele>784.5</ele>
        <time>2019-08-12T08:35:03Z</time>
      </trkpt>
      <trkpt lat="39.3914080" lon="-3.7958020">
        <ele>784.5</ele>
        <time>2019-08-12T08:35:04Z</time>
      </trkpt>
      <trkpt lat="39.3914670" lon="-3.7958260">
        <ele>784.5</ele>
        <time>2019-08-12T08:35:05Z</time>
      </trkpt>
      <trkpt lat="39.3915260" lon="-3.7958510">
        <ele>784.5</ele>
        <time>2019-08-12T08:35:06Z</time>
      </trkpt>
      <trkpt lat="39.3915850" lon="-3.7958750">
        <ele>784.4</ele>
        <time>2019-08-12T08:35:07Z</time>
      </trkpt>
      <trkpt lat="39.3916440" lon="-3.7959000">
        <ele>784.4</ele>
        <time>2019-08-12T08:35:08Z</time>
      </trkpt>
      <trkpt lat="39.3917020" lon="-3.7959240">
        <ele>784.4</ele>
        <time>2019-08-12T08:35:09Z</time>
      </trkpt>
      <trkpt lat="39.3917590" lon="-3.7959480">
        <ele>784.4</ele>
        <time>2019-08-12T08:35:10Z</time>
      </trkpt>
      <trkpt lat="39.3918150" lon="-3.7959720">
        <ele>784.4</ele>
        <time>2019-08-12T08:35:11Z</time>
      </trkpt>
      <trkpt lat="39.3918710" lon="-3.7959960">
        <ele>784.4</ele>
        <time>2019-08-12T08:35:12Z</time>
      </trkpt>
      <trkpt lat="39.3919260" lon="-3.7960200">
        <ele>784.4</ele>
        <time>2019-08-12T08:35:13Z</time>
      </trkpt>
      <trkpt lat="39.3919810" lon="-3.7960430">
        <ele>784.3</ele>
        <time>2019-08-12T08:35:14Z</time>
      </trkpt>
      <trkpt lat="39.3920360" lon="-3.7960670">
        <ele>784.3</ele>
        <time>2019-08-12T08:35:15Z</time>
      </trkpt>
      <trkpt lat="39.3920920" lon="-3.7960900">
        <ele>784.3</ele>
        <time>2019-08-12T08:35:16Z</time>
      </trkpt>
      <trkpt lat="39.3921470" lon="-3.7961130">
        <ele>784.3</ele>
        <time>2019-08-12T08:35:17Z</time>
      </trkpt>
      <trkpt lat="39.3922030" lon="-3.7961360">
        <ele>784.3</ele>
        <time>2019-08-12T08:35:18Z</time>
      </trkpt>
      <trkpt lat="39.3922590" lon="-3.7961590">
        <ele>784.3</ele>
        <time>2019-08-12T08:35:19Z</time>
      </trkpt>
      <trkpt lat="39.3923160" lon="-3.7961820">
        <ele>784.3</ele>
        <time>2019-08-12T08:35:20Z</time>
      </trkpt>
      <trkpt lat="39.3923740" lon="-3.7962040">
        <ele>784.5</ele>
        <time>2019-08-12T08:35:21Z</time>
      </trkpt>
      <trkpt lat="39.3924320" lon="-3.7962270">
        <ele>784.5</ele>
        <time>2019-08-12T08:35:22Z</time>
      </trkpt>
      <trkpt lat="39.3924900" lon="-3.7962490">
        <ele>784.6</ele>
        <time>2019-08-12T08:35:23Z</time>
      </trkpt>
      <trkpt lat="39.3925490" lon="-3.7962720">
        <ele>784.6</ele>
        <time>2019-08-12T08:35:24Z</time>
      </trkpt>
      <trkpt lat="39.3926080" lon="-3.7962940">
        <ele>784.6</ele>
        <time>2019-08-12T08:35:25Z</time>
      </trkpt>
      <trkpt lat="39.3926670" lon="-3.7963160">
        <ele>784.7</ele>
        <time>2019-08-12T08:35:26Z</time>
      </trkpt>
      <trkpt lat="39.3927270" lon="-3.7963380">
        <ele>784.7</ele>
        <time>2019-08-12T08:35:27Z</time>
      </trkpt>
      <trkpt lat="39.3927870" lon="-3.7963610">
        <ele>784.7</ele>
        <time>2019-08-12T08:35:28Z</time>
      </trkpt>
      <trkpt lat="39.3928470" lon="-3.7963830">
        <ele>784.7</ele>
        <time>2019-08-12T08:35:29Z</time>
      </trkpt>
      <trkpt lat="39.3929080" lon="-3.7964050">
        <ele>784.6</ele>
        <time>2019-08-12T08:35:30Z</time>
      </trkpt>
      <trkpt lat="39.3929680" lon="-3.7964270">
        <ele>784.6</ele>
        <time>2019-08-12T08:35:31Z</time>
      </trkpt>
      <trkpt lat="39.3930290" lon="-3.7964490">
        <ele>784.6</ele>
        <time>2019-08-12T08:35:32Z</time>
      </trkpt>
      <trkpt lat="39.3930900" lon="-3.7964710">
        <ele>784.6</ele>
        <time>2019-08-12T08:35:33Z</time>
      </trkpt>
      <trkpt lat="39.3931510" lon="-3.7964930">
        <ele>784.5</ele>
        <time>2019-08-12T08:35:34Z</time>
      </trkpt>
      <trkpt lat="39.3932120" lon="-3.7965150">
        <ele>784.4</ele>
        <time>2019-08-12T08:35:35Z</time>
      </trkpt>
      <trkpt lat="39.3932730" lon="-3.7965370">
        <ele>784.4</ele>
        <time>2019-08-12T08:35:36Z</time>
      </trkpt>
      <trkpt lat="39.3933340" lon="-3.7965590">
        <ele>784.3</ele>
        <time>2019-08-12T08:35:37Z</time>
      </trkpt>
      <trkpt lat="39.3933950" lon="-3.7965810">
        <ele>784.2</ele>
        <time>2019-08-12T08:35:38Z</time>
      </trkpt>
      <trkpt lat="39.3934560" lon="-3.7966040">
        <ele>784.1</ele>
        <time>2019-08-12T08:35:39Z</time>
      </trkpt>
      <trkpt lat="39.3935170" lon="-3.7966260">
        <ele>784.0</ele>
        <time>2019-08-12T08:35:40Z</time>
      </trkpt>
      <trkpt lat="39.3935780" lon="-3.7966480">
        <ele>784.0</ele>
        <time>2019-08-12T08:35:41Z</time>
      </trkpt>
      <trkpt lat="39.3936390" lon="-3.7966700">
        <ele>783.9</ele>
        <time>2019-08-12T08:35:42Z</time>
      </trkpt>
      <trkpt lat="39.3937000" lon="-3.7966930">
        <ele>783.8</ele>
        <time>2019-08-12T08:35:43Z</time>
      </trkpt>
      <trkpt lat="39.3937610" lon="-3.7967150">
        <ele>783.8</ele>
        <time>2019-08-12T08:35:44Z</time>
      </trkpt>
      <trkpt lat="39.3938230" lon="-3.7967380">
        <ele>783.7</ele>
        <time>2019-08-12T08:35:45Z</time>
      </trkpt>
      <trkpt lat="39.3938840" lon="-3.7967600">
        <ele>783.7</ele>
        <time>2019-08-12T08:35:46Z</time>
      </trkpt>
      <trkpt lat="39.3939460" lon="-3.7967830">
        <ele>783.6</ele>
        <time>2019-08-12T08:35:47Z</time>
      </trkpt>
      <trkpt lat="39.3940070" lon="-3.7968050">
        <ele>783.6</ele>
        <time>2019-08-12T08:35:48Z</time>
      </trkpt>
      <trkpt lat="39.3940690" lon="-3.7968280">
        <ele>783.5</ele>
        <time>2019-08-12T08:35:49Z</time>
      </trkpt>
      <trkpt lat="39.3941310" lon="-3.7968510">
        <ele>783.5</ele>
        <time>2019-08-12T08:35:50Z</time>
      </trkpt>
      <trkpt lat="39.3941930" lon="-3.7968740">
        <ele>783.4</ele>
        <time>2019-08-12T08:35:51Z</time>
      </trkpt>
      <trkpt lat="39.3942550" lon="-3.7968970">
        <ele>783.4</ele>
        <time>2019-08-12T08:35:52Z</time>
      </trkpt>
      <trkpt lat="39.3943170" lon="-3.7969190">
        <ele>783.3</ele>
        <time>2019-08-12T08:35:53Z</time>
      </trkpt>
      <trkpt lat="39.3943800" lon="-3.7969430">
        <ele>783.3</ele>
        <time>2019-08-12T08:35:54Z</time>
      </trkpt>
      <trkpt lat="39.3944430" lon="-3.7969660">
        <ele>783.2</ele>
        <time>2019-08-12T08:35:55Z</time>
      </trkpt>
      <trkpt lat="39.3945060" lon="-3.7969890">
        <ele>783.2</ele>
        <time>2019-08-12T08:35:56Z</time>
      </trkpt>
      <trkpt lat="39.3945690" lon="-3.7970120">
        <ele>783.2</ele>
        <time>2019-08-12T08:35:57Z</time>
      </trkpt>
      <trkpt lat="39.3946320" lon="-3.7970350">
        <ele>783.1</ele>
        <time>2019-08-12T08:35:58Z</time>
      </trkpt>
      <trkpt lat="39.3946960" lon="-3.7970590">
        <ele>783.1</ele>
        <time>2019-08-12T08:35:59Z</time>
      </trkpt>
      <trkpt lat="39.3947590" lon="-3.7970820">
        <ele>783.0</ele>
        <time>2019-08-12T08:36:00Z</time>
      </trkpt>
      <trkpt lat="39.3948230" lon="-3.7971060">
        <ele>783.0</ele>
        <time>2019-08-12T08:36:01Z</time>
      </trkpt>
      <trkpt lat="39.3948870" lon="-3.7971290">
        <ele>782.9</ele>
        <time>2019-08-12T08:36:02Z</time>
      </trkpt>
      <trkpt lat="39.3949510" lon="-3.7971520">
        <ele>782.9</ele>
        <time>2019-08-12T08:36:03Z</time>
      </trkpt>
      <trkpt lat="39.3950160" lon="-3.7971760">
        <ele>782.8</ele>
        <time>2019-08-12T08:36:04Z</time>
      </trkpt>
      <trkpt lat="39.3950800" lon="-3.7971990">
        <ele>782.7</ele>
        <time>2019-08-12T08:36:05Z</time>
      </trkpt>
      <trkpt lat="39.3951440" lon="-3.7972230">
        <ele>782.7</ele>
        <time>2019-08-12T08:36:06Z</time>
      </trkpt>
      <trkpt lat="39.3952090" lon="-3.7972460">
        <ele>782.7</ele>
        <time>2019-08-12T08:36:07Z</time>
      </trkpt>
      <trkpt lat="39.3952740" lon="-3.7972700">
        <ele>782.6</ele>
        <time>2019-08-12T08:36:08Z</time>
      </trkpt>
      <trkpt lat="39.3953380" lon="-3.7972930">
        <ele>782.6</ele>
        <time>2019-08-12T08:36:09Z</time>
      </trkpt>
      <trkpt lat="39.3954030" lon="-3.7973160">
        <ele>782.6</ele>
        <time>2019-08-12T08:36:10Z</time>
      </trkpt>
      <trkpt lat="39.3954680" lon="-3.7973400">
        <ele>782.6</ele>
        <time>2019-08-12T08:36:11Z</time>
      </trkpt>
      <trkpt lat="39.3955330" lon="-3.7973630">
        <ele>782.6</ele>
        <time>2019-08-12T08:36:12Z</time>
      </trkpt>
      <trkpt lat="39.3955970" lon="-3.7973860">
        <ele>782.6</ele>
        <time>2019-08-12T08:36:13Z</time>
      </trkpt>
      <trkpt lat="39.3956620" lon="-3.7974090">
        <ele>782.5</ele>
        <time>2019-08-12T08:36:14Z</time>
      </trkpt>
      <trkpt lat="39.3957270" lon="-3.7974320">
        <ele>782.5</ele>
        <time>2019-08-12T08:36:15Z</time>
      </trkpt>
      <trkpt lat="39.3957920" lon="-3.7974550">
        <ele>782.4</ele>
        <time>2019-08-12T08:36:16Z</time>
      </trkpt>
      <trkpt lat="39.3958560" lon="-3.7974780">
        <ele>782.4</ele>
        <time>2019-08-12T08:36:17Z</time>
      </trkpt>
      <trkpt lat="39.3959200" lon="-3.7975010">
        <ele>782.3</ele>
        <time>2019-08-12T08:36:18Z</time>
      </trkpt>
      <trkpt lat="39.3959840" lon="-3.7975230">
        <ele>782.2</ele>
        <time>2019-08-12T08:36:19Z</time>
      </trkpt>
      <trkpt lat="39.3960480" lon="-3.7975460">
        <ele>782.2</ele>
        <time>2019-08-12T08:36:20Z</time>
      </trkpt>
      <trkpt lat="39.3961110" lon="-3.7975690">
        <ele>782.1</ele>
        <time>2019-08-12T08:36:21Z</time>
      </trkpt>
      <trkpt lat="39.3961730" lon="-3.7975910">
        <ele>782.1</ele>
        <time>2019-08-12T08:36:22Z</time>
      </trkpt>
      <trkpt lat="39.3962350" lon="-3.7976140">
        <ele>782.0</ele>
        <time>2019-08-12T08:36:23Z</time>
      </trkpt>
      <trkpt lat="39.3962960" lon="-3.7976370">
        <ele>782.0</ele>
        <time>2019-08-12T08:36:24Z</time>
      </trkpt>
      <trkpt lat="39.3963570" lon="-3.7976590">
        <ele>782.0</ele>
        <time>2019-08-12T08:36:25Z</time>
      </trkpt>
      <trkpt lat="39.3964170" lon="-3.7976820">
        <ele>782.0</ele>
        <time>2019-08-12T08:36:26Z</time>
      </trkpt>
      <trkpt lat="39.3964780" lon="-3.7977040">
        <ele>782.0</ele>
        <time>2019-08-12T08:36:27Z</time>
      </trkpt>
      <trkpt lat="39.3965380" lon="-3.7977270">
        <ele>782.0</ele>
        <time>2019-08-12T08:36:28Z</time>
      </trkpt>
      <trkpt lat="39.3966000" lon="-3.7977490">
        <ele>781.9</ele>
        <time>2019-08-12T08:36:29Z</time>
      </trkpt>
      <trkpt lat="39.3966610" lon="-3.7977710">
        <ele>781.9</ele>
        <time>2019-08-12T08:36:30Z</time>
      </trkpt>
      <trkpt lat="39.3967230" lon="-3.7977940">
        <ele>781.8</ele>
        <time>2019-08-12T08:36:31Z</time>
      </trkpt>
      <trkpt lat="39.3967840" lon="-3.7978160">
        <ele>781.8</ele>
        <time>2019-08-12T08:36:32Z</time>
      </trkpt>
      <trkpt lat="39.3968450" lon="-3.7978380">
        <ele>781.7</ele>
        <time>2019-08-12T08:36:33Z</time>
      </trkpt>
      <trkpt lat="39.3969060" lon="-3.7978600">
        <ele>781.6</ele>
        <time>2019-08-12T08:36:34Z</time>
      </trkpt>
      <trkpt lat="39.3969660" lon="-3.7978830">
        <ele>781.6</ele>
        <time>2019-08-12T08:36:35Z</time>
      </trkpt>
      <trkpt lat="39.3970260" lon="-3.7979050">
        <ele>781.5</ele>
        <time>2019-08-12T08:36:36Z</time>
      </trkpt>
      <trkpt lat="39.3970860" lon="-3.7979270">
        <ele>781.4</ele>
        <time>2019-08-12T08:36:37Z</time>
      </trkpt>
      <trkpt lat="39.3971450" lon="-3.7979490">
        <ele>781.4</ele>
        <time>2019-08-12T08:36:38Z</time>
      </trkpt>
      <trkpt lat="39.3972040" lon="-3.7979710">
        <ele>781.4</ele>
        <time>2019-08-12T08:36:39Z</time>
      </trkpt>
      <trkpt lat="39.3972630" lon="-3.7979930">
        <ele>781.3</ele>
        <time>2019-08-12T08:36:40Z</time>
      </trkpt>
      <trkpt lat="39.3973210" lon="-3.7980140">
        <ele>781.3</ele>
        <time>2019-08-12T08:36:41Z</time>
      </trkpt>
      <trkpt lat="39.3973790" lon="-3.7980350">
        <ele>781.4</ele>
        <time>2019-08-12T08:36:42Z</time>
      </trkpt>
      <trkpt lat="39.3974370" lon="-3.7980570">
        <ele>781.4</ele>
        <time>2019-08-12T08:36:43Z</time>
      </trkpt>
      <trkpt lat="39.3974950" lon="-3.7980770">
        <ele>781.5</ele>
        <time>2019-08-12T08:36:44Z</time>
      </trkpt>
      <trkpt lat="39.3975520" lon="-3.7980980">
        <ele>781.5</ele>
        <time>2019-08-12T08:36:45Z</time>
      </trkpt>
      <trkpt lat="39.3976090" lon="-3.7981190">
        <ele>781.6</ele>
        <time>2019-08-12T08:36:46Z</time>
      </trkpt>
      <trkpt lat="39.3976660" lon="-3.7981390">
        <ele>781.6</ele>
        <time>2019-08-12T08:36:47Z</time>
      </trkpt>
      <trkpt lat="39.3977230" lon="-3.7981600">
        <ele>781.5</ele>
        <time>2019-08-12T08:36:48Z</time>
      </trkpt>
      <trkpt lat="39.3977800" lon="-3.7981800">
        <ele>781.5</ele>
        <time>2019-08-12T08:36:49Z</time>
      </trkpt>
      <trkpt lat="39.3978360" lon="-3.7982000">
        <ele>781.4</ele>
        <time>2019-08-12T08:36:50Z</time>
      </trkpt>
      <trkpt lat="39.3978930" lon="-3.7982200">
        <ele>781.3</ele>
        <time>2019-08-12T08:36:51Z</time>
      </trkpt>
      <trkpt lat="39.3979490" lon="-3.7982410">
        <ele>781.2</ele>
        <time>2019-08-12T08:36:52Z</time>
      </trkpt>
      <trkpt lat="39.3980060" lon="-3.7982610">
        <ele>781.2</ele>
        <time>2019-08-12T08:36:53Z</time>
      </trkpt>
      <trkpt lat="39.3980620" lon="-3.7982810">
        <ele>781.1</ele>
        <time>2019-08-12T08:36:54Z</time>
      </trkpt>
      <trkpt lat="39.3981190" lon="-3.7983010">
        <ele>781.0</ele>
        <time>2019-08-12T08:36:55Z</time>
      </trkpt>
      <trkpt lat="39.3981750" lon="-3.7983210">
        <ele>780.9</ele>
        <time>2019-08-12T08:36:56Z</time>
      </trkpt>
      <trkpt lat="39.3982310" lon="-3.7983410">
        <ele>780.9</ele>
        <time>2019-08-12T08:36:57Z</time>
      </trkpt>
      <trkpt lat="39.3982870" lon="-3.7983620">
        <ele>780.8</ele>
        <time>2019-08-12T08:36:58Z</time>
      </trkpt>
      <trkpt lat="39.3983430" lon="-3.7983820">
        <ele>780.6</ele>
        <time>2019-08-12T08:36:59Z</time>
      </trkpt>
      <trkpt lat="39.3984000" lon="-3.7984030">
        <ele>780.6</ele>
        <time>2019-08-12T08:37:00Z</time>
      </trkpt>
      <trkpt lat="39.3984560" lon="-3.7984230">
        <ele>780.6</ele>
        <time>2019-08-12T08:37:01Z</time>
      </trkpt>
      <trkpt lat="39.3985120" lon="-3.7984440">
        <ele>780.5</ele>
        <time>2019-08-12T08:37:02Z</time>
      </trkpt>
      <trkpt lat="39.3985680" lon="-3.7984640">
        <ele>780.5</ele>
        <time>2019-08-12T08:37:03Z</time>
      </trkpt>
      <trkpt lat="39.3986250" lon="-3.7984850">
        <ele>780.5</ele>
        <time>2019-08-12T08:37:04Z</time>
      </trkpt>
      <trkpt lat="39.3986820" lon="-3.7985060">
        <ele>780.5</ele>
        <time>2019-08-12T08:37:05Z</time>
      </trkpt>
      <trkpt lat="39.3987390" lon="-3.7985270">
        <ele>780.5</ele>
        <time>2019-08-12T08:37:06Z</time>
      </trkpt>
      <trkpt lat="39.3987960" lon="-3.7985480">
        <ele>780.5</ele>
        <time>2019-08-12T08:37:07Z</time>
      </trkpt>
      <trkpt lat="39.3988540" lon="-3.7985680">
        <ele>780.5</ele>
        <time>2019-08-12T08:37:08Z</time>
      </trkpt>
      <trkpt lat="39.3989130" lon="-3.7985890">
        <ele>780.4</ele>
        <time>2019-08-12T08:37:09Z</time>
      </trkpt>
      <trkpt lat="39.3989720" lon="-3.7986100">
        <ele>780.3</ele>
        <time>2019-08-12T08:37:10Z</time>
      </trkpt>
      <trkpt lat="39.3990310" lon="-3.7986310">
        <ele>780.2</ele>
        <time>2019-08-12T08:37:11Z</time>
      </trkpt>
      <trkpt lat="39.3990910" lon="-3.7986520">
        <ele>780.2</ele>
        <time>2019-08-12T08:37:12Z</time>
      </trkpt>
      <trkpt lat="39.3991510" lon="-3.7986730">
        <ele>780.1</ele>
        <time>2019-08-12T08:37:13Z</time>
      </trkpt>
      <trkpt lat="39.3992120" lon="-3.7986950">
        <ele>780.0</ele>
        <time>2019-08-12T08:37:14Z</time>
      </trkpt>
      <trkpt lat="39.3992740" lon="-3.7987160">
        <ele>779.9</ele>
        <time>2019-08-12T08:37:15Z</time>
      </trkpt>
      <trkpt lat="39.3993360" lon="-3.7987380">
        <ele>779.9</ele>
        <time>2019-08-12T08:37:16Z</time>
      </trkpt>
      <trkpt lat="39.3993990" lon="-3.7987610">
        <ele>779.8</ele>
        <time>2019-08-12T08:37:17Z</time>
      </trkpt>
      <trkpt lat="39.3994620" lon="-3.7987840">
        <ele>779.7</ele>
        <time>2019-08-12T08:37:18Z</time>
      </trkpt>
      <trkpt lat="39.3995260" lon="-3.7988070">
        <ele>779.7</ele>
        <time>2019-08-12T08:37:19Z</time>
      </trkpt>
      <trkpt lat="39.3995900" lon="-3.7988300">
        <ele>779.6</ele>
        <time>2019-08-12T08:37:20Z</time>
      </trkpt>
      <trkpt lat="39.3996540" lon="-3.7988540">
        <ele>779.5</ele>
        <time>2019-08-12T08:37:21Z</time>
      </trkpt>
      <trkpt lat="39.3997180" lon="-3.7988780">
        <ele>779.5</ele>
        <time>2019-08-12T08:37:22Z</time>
      </trkpt>
      <trkpt lat="39.3997830" lon="-3.7989020">
        <ele>779.4</ele>
        <time>2019-08-12T08:37:23Z</time>
      </trkpt>
      <trkpt lat="39.3998470" lon="-3.7989260">
        <ele>779.3</ele>
        <time>2019-08-12T08:37:24Z</time>
      </trkpt>
      <trkpt lat="39.3999120" lon="-3.7989490">
        <ele>779.2</ele>
        <time>2019-08-12T08:37:25Z</time>
      </trkpt>
      <trkpt lat="39.3999760" lon="-3.7989730">
        <ele>779.1</ele>
        <time>2019-08-12T08:37:26Z</time>
      </trkpt>
      <trkpt lat="39.4000400" lon="-3.7989960">
        <ele>779.0</ele>
        <time>2019-08-12T08:37:27Z</time>
      </trkpt>
      <trkpt lat="39.4001030" lon="-3.7990200">
        <ele>778.9</ele>
        <time>2019-08-12T08:37:28Z</time>
      </trkpt>
      <trkpt lat="39.4001660" lon="-3.7990430">
        <ele>778.8</ele>
        <time>2019-08-12T08:37:29Z</time>
      </trkpt>
      <trkpt lat="39.4002290" lon="-3.7990660">
        <ele>778.8</ele>
        <time>2019-08-12T08:37:30Z</time>
      </trkpt>
      <trkpt lat="39.4002910" lon="-3.7990880">
        <ele>778.7</ele>
        <time>2019-08-12T08:37:31Z</time>
      </trkpt>
      <trkpt lat="39.4003530" lon="-3.7991110">
        <ele>778.7</ele>
        <time>2019-08-12T08:37:32Z</time>
      </trkpt>
      <trkpt lat="39.4004140" lon="-3.7991330">
        <ele>778.7</ele>
        <time>2019-08-12T08:37:33Z</time>
      </trkpt>
      <trkpt lat="39.4004750" lon="-3.7991560">
        <ele>778.7</ele>
        <time>2019-08-12T08:37:34Z</time>
      </trkpt>
      <trkpt lat="39.4005360" lon="-3.7991780">
        <ele>778.7</ele>
        <time>2019-08-12T08:37:35Z</time>
      </trkpt>
      <trkpt lat="39.4005950" lon="-3.7992010">
        <ele>778.7</ele>
        <time>2019-08-12T08:37:36Z</time>
      </trkpt>
      <trkpt lat="39.4006550" lon="-3.7992230">
        <ele>778.7</ele>
        <time>2019-08-12T08:37:37Z</time>
      </trkpt>
      <trkpt lat="39.4007140" lon="-3.7992450">
        <ele>778.7</ele>
        <time>2019-08-12T08:37:38Z</time>
      </trkpt>
      <trkpt lat="39.4007730" lon="-3.7992680">
        <ele>778.7</ele>
        <time>2019-08-12T08:37:39Z</time>
      </trkpt>
      <trkpt lat="39.4008320" lon="-3.7992910">
        <ele>778.7</ele>
        <time>2019-08-12T08:37:40Z</time>
      </trkpt>
      <trkpt lat="39.4008910" lon="-3.7993140">
        <ele>778.8</ele>
        <time>2019-08-12T08:37:41Z</time>
      </trkpt>
      <trkpt lat="39.4009510" lon="-3.7993370">
        <ele>778.8</ele>
        <time>2019-08-12T08:37:42Z</time>
      </trkpt>
      <trkpt lat="39.4010110" lon="-3.7993610">
        <ele>778.8</ele>
        <time>2019-08-12T08:37:43Z</time>
      </trkpt>
      <trkpt lat="39.4010710" lon="-3.7993840">
        <ele>778.9</ele>
        <time>2019-08-12T08:37:44Z</time>
      </trkpt>
      <trkpt lat="39.4011310" lon="-3.7994080">
        <ele>778.9</ele>
        <time>2019-08-12T08:37:45Z</time>
      </trkpt>
      <trkpt lat="39.4011910" lon="-3.7994310">
        <ele>778.9</ele>
        <time>2019-08-12T08:37:46Z</time>
      </trkpt>
      <trkpt lat="39.4012500" lon="-3.7994540">
        <ele>778.9</ele>
        <time>2019-08-12T08:37:47Z</time>
      </trkpt>
      <trkpt lat="39.4013100" lon="-3.7994770">
        <ele>778.9</ele>
        <time>2019-08-12T08:37:48Z</time>
      </trkpt>
      <trkpt lat="39.4013690" lon="-3.7995000">
        <ele>779.0</ele>
        <time>2019-08-12T08:37:49Z</time>
      </trkpt>
      <trkpt lat="39.4014280" lon="-3.7995220">
        <ele>779.0</ele>
        <time>2019-08-12T08:37:50Z</time>
      </trkpt>
      <trkpt lat="39.4014870" lon="-3.7995450">
        <ele>779.0</ele>
        <time>2019-08-12T08:37:51Z</time>
      </trkpt>
      <trkpt lat="39.4015460" lon="-3.7995670">
        <ele>779.1</ele>
        <time>2019-08-12T08:37:52Z</time>
      </trkpt>
      <trkpt lat="39.4016050" lon="-3.7995890">
        <ele>779.1</ele>
        <time>2019-08-12T08:37:53Z</time>
      </trkpt>
      <trkpt lat="39.4016630" lon="-3.7996110">
        <ele>779.2</ele>
        <time>2019-08-12T08:37:54Z</time>
      </trkpt>
      <trkpt lat="39.4017220" lon="-3.7996320">
        <ele>779.2</ele>
        <time>2019-08-12T08:37:55Z</time>
      </trkpt>
      <trkpt lat="39.4017800" lon="-3.7996540">
        <ele>779.3</ele>
        <time>2019-08-12T08:37:56Z</time>
      </trkpt>
      <trkpt lat="39.4018380" lon="-3.7996750">
        <ele>779.3</ele>
        <time>2019-08-12T08:37:57Z</time>
      </trkpt>
      <trkpt lat="39.4018960" lon="-3.7996960">
        <ele>779.4</ele>
        <time>2019-08-12T08:37:58Z</time>
      </trkpt>
      <trkpt lat="39.4019530" lon="-3.7997170">
        <ele>779.4</ele>
        <time>2019-08-12T08:37:59Z</time>
      </trkpt>
      <trkpt lat="39.4020110" lon="-3.7997380">
        <ele>779.5</ele>
        <time>2019-08-12T08:38:00Z</time>
      </trkpt>
      <trkpt lat="39.4020690" lon="-3.7997590">
        <ele>779.5</ele>
        <time>2019-08-12T08:38:01Z</time>
      </trkpt>
      <trkpt lat="39.4021260" lon="-3.7997790">
        <ele>779.6</ele>
        <time>2019-08-12T08:38:02Z</time>
      </trkpt>
      <trkpt lat="39.4021830" lon="-3.7998000">
        <ele>779.6</ele>
        <time>2019-08-12T08:38:03Z</time>
      </trkpt>
      <trkpt lat="39.4022400" lon="-3.7998210">
        <ele>779.7</ele>
        <time>2019-08-12T08:38:04Z</time>
      </trkpt>
      <trkpt lat="39.4022980" lon="-3.7998420">
        <ele>779.7</ele>
        <time>2019-08-12T08:38:05Z</time>
      </trkpt>
      <trkpt lat="39.4023550" lon="-3.7998620">
        <ele>779.7</ele>
        <time>2019-08-12T08:38:06Z</time>
      </trkpt>
      <trkpt lat="39.4024120" lon="-3.7998830">
        <ele>779.7</ele>
        <time>2019-08-12T08:38:07Z</time>
      </trkpt>
      <trkpt lat="39.4024690" lon="-3.7999040">
        <ele>779.8</ele>
        <time>2019-08-12T08:38:08Z</time>
      </trkpt>
      <trkpt lat="39.4025260" lon="-3.7999250">
        <ele>779.8</ele>
        <time>2019-08-12T08:38:09Z</time>
      </trkpt>
      <trkpt lat="39.4025820" lon="-3.7999460">
        <ele>779.9</ele>
        <time>2019-08-12T08:38:10Z</time>
      </trkpt>
      <trkpt lat="39.4026390" lon="-3.7999660">
        <ele>779.9</ele>
        <time>2019-08-12T08:38:11Z</time>
      </trkpt>
      <trkpt lat="39.4026960" lon="-3.7999870">
        <ele>780.0</ele>
        <time>2019-08-12T08:38:12Z</time>
      </trkpt>
      <trkpt lat="39.4027530" lon="-3.8000080">
        <ele>780.1</ele>
        <time>2019-08-12T08:38:13Z</time>
      </trkpt>
      <trkpt lat="39.4028100" lon="-3.8000290">
        <ele>780.1</ele>
        <time>2019-08-12T08:38:14Z</time>
      </trkpt>
      <trkpt lat="39.4028680" lon="-3.8000500">
        <ele>780.2</ele>
        <time>2019-08-12T08:38:15Z</time>
      </trkpt>
      <trkpt lat="39.4029250" lon="-3.8000710">
        <ele>780.2</ele>
        <time>2019-08-12T08:38:16Z</time>
      </trkpt>
      <trkpt lat="39.4029820" lon="-3.8000920">
        <ele>780.2</ele>
        <time>2019-08-12T08:38:17Z</time>
      </trkpt>
      <trkpt lat="39.4030390" lon="-3.8001130">
        <ele>780.2</ele>
        <time>2019-08-12T08:38:18Z</time>
      </trkpt>
      <trkpt lat="39.4030970" lon="-3.8001340">
        <ele>780.3</ele>
        <time>2019-08-12T08:38:19Z</time>
      </trkpt>
      <trkpt lat="39.4031540" lon="-3.8001550">
        <ele>780.3</ele>
        <time>2019-08-12T08:38:20Z</time>
      </trkpt>
      <trkpt lat="39.4032120" lon="-3.8001760">
        <ele>780.3</ele>
        <time>2019-08-12T08:38:21Z</time>
      </trkpt>
      <trkpt lat="39.4032700" lon="-3.8001970">
        <ele>780.3</ele>
        <time>2019-08-12T08:38:22Z</time>
      </trkpt>
      <trkpt lat="39.4033280" lon="-3.8002190">
        <ele>780.4</ele>
        <time>2019-08-12T08:38:23Z</time>
      </trkpt>
      <trkpt lat="39.4033860" lon="-3.8002400">
        <ele>780.4</ele>
        <time>2019-08-12T08:38:24Z</time>
      </trkpt>
      <trkpt lat="39.4034440" lon="-3.8002610">
        <ele>780.4</ele>
        <time>2019-08-12T08:38:25Z</time>
      </trkpt>
      <trkpt lat="39.4035020" lon="-3.8002820">
        <ele>780.4</ele>
        <time>2019-08-12T08:38:26Z</time>
      </trkpt>
      <trkpt lat="39.4035600" lon="-3.8003030">
        <ele>780.5</ele>
        <time>2019-08-12T08:38:27Z</time>
      </trkpt>
      <trkpt lat="39.4036170" lon="-3.8003230">
        <ele>780.5</ele>
        <time>2019-08-12T08:38:28Z</time>
      </trkpt>
      <trkpt lat="39.4036740" lon="-3.8003430">
        <ele>780.5</ele>
        <time>2019-08-12T08:38:29Z</time>
      </trkpt>
      <trkpt lat="39.4037300" lon="-3.8003630">
        <ele>780.5</ele>
        <time>2019-08-12T08:38:30Z</time>
      </trkpt>
      <trkpt lat="39.4037850" lon="-3.8003820">
        <ele>780.5</ele>
        <time>2019-08-12T08:38:31Z</time>
      </trkpt>
      <trkpt lat="39.4038400" lon="-3.8004010">
        <ele>780.6</ele>
        <time>2019-08-12T08:38:32Z</time>
      </trkpt>
      <trkpt lat="39.4038940" lon="-3.8004200">
        <ele>780.6</ele>
        <time>2019-08-12T08:38:33Z</time>
      </trkpt>
      <trkpt lat="39.4039480" lon="-3.8004390">
        <ele>780.6</ele>
        <time>2019-08-12T08:38:34Z</time>
      </trkpt>
      <trkpt lat="39.4040020" lon="-3.8004580">
        <ele>780.6</ele>
        <time>2019-08-12T08:38:35Z</time>
      </trkpt>
      <trkpt lat="39.4040560" lon="-3.8004770">
        <ele>780.6</ele>
        <time>2019-08-12T08:38:36Z</time>
      </trkpt>
      <trkpt lat="39.4041100" lon="-3.8004970">
        <ele>780.6</ele>
        <time>2019-08-12T08:38:37Z</time>
      </trkpt>
      <trkpt lat="39.4041660" lon="-3.8005170">
        <ele>780.7</ele>
        <time>2019-08-12T08:38:38Z</time>
      </trkpt>
      <trkpt lat="39.4042210" lon="-3.8005380">
        <ele>780.7</ele>
        <time>2019-08-12T08:38:39Z</time>
      </trkpt>
      <trkpt lat="39.4042770" lon="-3.8005590">
        <ele>780.7</ele>
        <time>2019-08-12T08:38:40Z</time>
      </trkpt>
      <trkpt lat="39.4043320" lon="-3.8005790">
        <ele>780.7</ele>
        <time>2019-08-12T08:38:41Z</time>
      </trkpt>
      <trkpt lat="39.4043880" lon="-3.8005990">
        <ele>780.7</ele>
        <time>2019-08-12T08:38:42Z</time>
      </trkpt>
      <trkpt lat="39.4044430" lon="-3.8006190">
        <ele>780.7</ele>
        <time>2019-08-12T08:38:43Z</time>
      </trkpt>
      <trkpt lat="39.4044990" lon="-3.8006390">
        <ele>780.7</ele>
        <time>2019-08-12T08:38:44Z</time>
      </trkpt>
      <trkpt lat="39.4045540" lon="-3.8006590">
        <ele>780.7</ele>
        <time>2019-08-12T08:38:45Z</time>
      </trkpt>
      <trkpt lat="39.4046100" lon="-3.8006790">
        <ele>780.7</ele>
        <time>2019-08-12T08:38:46Z</time>
      </trkpt>
      <trkpt lat="39.4046650" lon="-3.8006980">
        <ele>780.7</ele>
        <time>2019-08-12T08:38:47Z</time>
      </trkpt>
      <trkpt lat="39.4047200" lon="-3.8007180">
        <ele>780.7</ele>
        <time>2019-08-12T08:38:48Z</time>
      </trkpt>
      <trkpt lat="39.4047760" lon="-3.8007380">
        <ele>780.8</ele>
        <time>2019-08-12T08:38:49Z</time>
      </trkpt>
      <trkpt lat="39.4048310" lon="-3.8007590">
        <ele>780.8</ele>
        <time>2019-08-12T08:38:50Z</time>
      </trkpt>
      <trkpt lat="39.4048860" lon="-3.8007790">
        <ele>780.8</ele>
        <time>2019-08-12T08:38:51Z</time>
      </trkpt>
      <trkpt lat="39.4049420" lon="-3.8008000">
        <ele>780.8</ele>
        <time>2019-08-12T08:38:52Z</time>
      </trkpt>
      <trkpt lat="39.4049970" lon="-3.8008210">
        <ele>780.8</ele>
        <time>2019-08-12T08:38:53Z</time>
      </trkpt>
      <trkpt lat="39.4050520" lon="-3.8008410">
        <ele>780.8</ele>
        <time>2019-08-12T08:38:54Z</time>
      </trkpt>
      <trkpt lat="39.4051080" lon="-3.8008620">
        <ele>780.8</ele>
        <time>2019-08-12T08:38:55Z</time>
      </trkpt>
      <trkpt lat="39.4051630" lon="-3.8008830">
        <ele>780.8</ele>
        <time>2019-08-12T08:38:56Z</time>
      </trkpt>
      <trkpt lat="39.4052180" lon="-3.8009040">
        <ele>780.8</ele>
        <time>2019-08-12T08:38:57Z</time>
      </trkpt>
      <trkpt lat="39.4052730" lon="-3.8009250">
        <ele>780.8</ele>
        <time>2019-08-12T08:38:58Z</time>
      </trkpt>
      <trkpt lat="39.4053290" lon="-3.8009460">
        <ele>780.8</ele>
        <time>2019-08-12T08:38:59Z</time>
      </trkpt>
      <trkpt lat="39.4053840" lon="-3.8009670">
        <ele>780.8</ele>
        <time>2019-08-12T08:39:00Z</time>
      </trkpt>
      <trkpt lat="39.4054390" lon="-3.8009870">
        <ele>780.8</ele>
        <time>2019-08-12T08:39:01Z</time>
      </trkpt>
      <trkpt lat="39.4054940" lon="-3.8010080">
        <ele>780.8</ele>
        <time>2019-08-12T08:39:02Z</time>
      </trkpt>
      <trkpt lat="39.4055490" lon="-3.8010280">
        <ele>780.8</ele>
        <time>2019-08-12T08:39:03Z</time>
      </trkpt>
      <trkpt lat="39.4056040" lon="-3.8010480">
        <ele>780.8</ele>
        <time>2019-08-12T08:39:04Z</time>
      </trkpt>
      <trkpt lat="39.4056600" lon="-3.8010680">
        <ele>780.8</ele>
        <time>2019-08-12T08:39:05Z</time>
      </trkpt>
      <trkpt lat="39.4057150" lon="-3.8010880">
        <ele>780.8</ele>
        <time>2019-08-12T08:39:06Z</time>
      </trkpt>
      <trkpt lat="39.4057700" lon="-3.8011080">
        <ele>780.7</ele>
        <time>2019-08-12T08:39:07Z</time>
      </trkpt>
      <trkpt lat="39.4058260" lon="-3.8011290">
        <ele>780.7</ele>
        <time>2019-08-12T08:39:08Z</time>
      </trkpt>
      <trkpt lat="39.4058810" lon="-3.8011490">
        <ele>780.7</ele>
        <time>2019-08-12T08:39:09Z</time>
      </trkpt>
      <trkpt lat="39.4059370" lon="-3.8011690">
        <ele>780.7</ele>
        <time>2019-08-12T08:39:10Z</time>
      </trkpt>
      <trkpt lat="39.4059930" lon="-3.8011890">
        <ele>780.7</ele>
        <time>2019-08-12T08:39:11Z</time>
      </trkpt>
      <trkpt lat="39.4060490" lon="-3.8012090">
        <ele>780.7</ele>
        <time>2019-08-12T08:39:12Z</time>
      </trkpt>
      <trkpt lat="39.4061050" lon="-3.8012290">
        <ele>780.7</ele>
        <time>2019-08-12T08:39:13Z</time>
      </trkpt>
      <trkpt lat="39.4061610" lon="-3.8012490">
        <ele>780.7</ele>
        <time>2019-08-12T08:39:14Z</time>
      </trkpt>
      <trkpt lat="39.4062180" lon="-3.8012700">
        <ele>780.7</ele>
        <time>2019-08-12T08:39:15Z</time>
      </trkpt>
      <trkpt lat="39.4062740" lon="-3.8012900">
        <ele>780.7</ele>
        <time>2019-08-12T08:39:16Z</time>
      </trkpt>
      <trkpt lat="39.4063310" lon="-3.8013110">
        <ele>780.7</ele>
        <time>2019-08-12T08:39:17Z</time>
      </trkpt>
      <trkpt lat="39.4063880" lon="-3.8013310">
        <ele>780.7</ele>
        <time>2019-08-12T08:39:18Z</time>
      </trkpt>
      <trkpt lat="39.4064450" lon="-3.8013520">
        <ele>780.8</ele>
        <time>2019-08-12T08:39:19Z</time>
      </trkpt>
      <trkpt lat="39.4065030" lon="-3.8013730">
        <ele>780.8</ele>
        <time>2019-08-12T08:39:20Z</time>
      </trkpt>
      <trkpt lat="39.4065610" lon="-3.8013950">
        <ele>780.8</ele>
        <time>2019-08-12T08:39:21Z</time>
      </trkpt>
      <trkpt lat="39.4066190" lon="-3.8014160">
        <ele>780.8</ele>
        <time>2019-08-12T08:39:22Z</time>
      </trkpt>
      <trkpt lat="39.4066770" lon="-3.8014380">
        <ele>780.8</ele>
        <time>2019-08-12T08:39:23Z</time>
      </trkpt>
      <trkpt lat="39.4067350" lon="-3.8014600">
        <ele>780.8</ele>
        <time>2019-08-12T08:39:24Z</time>
      </trkpt>
      <trkpt lat="39.4067940" lon="-3.8014820">
        <ele>780.8</ele>
        <time>2019-08-12T08:39:25Z</time>
      </trkpt>
      <trkpt lat="39.4068530" lon="-3.8015040">
        <ele>780.8</ele>
        <time>2019-08-12T08:39:26Z</time>
      </trkpt>
      <trkpt lat="39.4069120" lon="-3.8015270">
        <ele>780.8</ele>
        <time>2019-08-12T08:39:27Z</time>
      </trkpt>
      <trkpt lat="39.4069720" lon="-3.8015500">
        <ele>780.8</ele>
        <time>2019-08-12T08:39:28Z</time>
      </trkpt>
      <trkpt lat="39.4070320" lon="-3.8015730">
        <ele>780.9</ele>
        <time>2019-08-12T08:39:29Z</time>
      </trkpt>
      <trkpt lat="39.4070910" lon="-3.8015960">
        <ele>780.9</ele>
        <time>2019-08-12T08:39:30Z</time>
      </trkpt>
      <trkpt lat="39.4071510" lon="-3.8016190">
        <ele>780.9</ele>
        <time>2019-08-12T08:39:31Z</time>
      </trkpt>
      <trkpt lat="39.4072110" lon="-3.8016420">
        <ele>780.9</ele>
        <time>2019-08-12T08:39:32Z</time>
      </trkpt>
      <trkpt lat="39.4072700" lon="-3.8016650">
        <ele>780.9</ele>
        <time>2019-08-12T08:39:33Z</time>
      </trkpt>
      <trkpt lat="39.4073290" lon="-3.8016880">
        <ele>780.9</ele>
        <time>2019-08-12T08:39:34Z</time>
      </trkpt>
      <trkpt lat="39.4073880" lon="-3.8017110">
        <ele>780.9</ele>
        <time>2019-08-12T08:39:35Z</time>
      </trkpt>
      <trkpt lat="39.4074470" lon="-3.8017340">
        <ele>780.9</ele>
        <time>2019-08-12T08:39:36Z</time>
      </trkpt>
      <trkpt lat="39.4075060" lon="-3.8017560">
        <ele>780.9</ele>
        <time>2019-08-12T08:39:37Z</time>
      </trkpt>
      <trkpt lat="39.4075640" lon="-3.8017790">
        <ele>780.9</ele>
        <time>2019-08-12T08:39:38Z</time>
      </trkpt>
      <trkpt lat="39.4076220" lon="-3.8018010">
        <ele>780.9</ele>
        <time>2019-08-12T08:39:39Z</time>
      </trkpt>
      <trkpt lat="39.4076800" lon="-3.8018230">
        <ele>780.9</ele>
        <time>2019-08-12T08:39:40Z</time>
      </trkpt>
      <trkpt lat="39.4077380" lon="-3.8018450">
        <ele>780.9</ele>
        <time>2019-08-12T08:39:41Z</time>
      </trkpt>
      <trkpt lat="39.4077950" lon="-3.8018670">
        <ele>780.9</ele>
        <time>2019-08-12T08:39:42Z</time>
      </trkpt>
      <trkpt lat="39.4078530" lon="-3.8018890">
        <ele>780.9</ele>
        <time>2019-08-12T08:39:43Z</time>
      </trkpt>
      <trkpt lat="39.4079110" lon="-3.8019110">
        <ele>780.9</ele>
        <time>2019-08-12T08:39:44Z</time>
      </trkpt>
      <trkpt lat="39.4079690" lon="-3.8019320">
        <ele>780.8</ele>
        <time>2019-08-12T08:39:45Z</time>
      </trkpt>
      <trkpt lat="39.4080270" lon="-3.8019540">
        <ele>780.8</ele>
        <time>2019-08-12T08:39:46Z</time>
      </trkpt>
      <trkpt lat="39.4080850" lon="-3.8019760">
        <ele>780.8</ele>
        <time>2019-08-12T08:39:47Z</time>
      </trkpt>
      <trkpt lat="39.4081440" lon="-3.8019980">
        <ele>780.8</ele>
        <time>2019-08-12T08:39:48Z</time>
      </trkpt>
      <trkpt lat="39.4082030" lon="-3.8020200">
        <ele>780.7</ele>
        <time>2019-08-12T08:39:49Z</time>
      </trkpt>
      <trkpt lat="39.4082620" lon="-3.8020430">
        <ele>780.7</ele>
        <time>2019-08-12T08:39:50Z</time>
      </trkpt>
      <trkpt lat="39.4083220" lon="-3.8020650">
        <ele>780.7</ele>
        <time>2019-08-12T08:39:51Z</time>
      </trkpt>
      <trkpt lat="39.4083820" lon="-3.8020880">
        <ele>780.7</ele>
        <time>2019-08-12T08:39:52Z</time>
      </trkpt>
      <trkpt lat="39.4084420" lon="-3.8021110">
        <ele>780.6</ele>
        <time>2019-08-12T08:39:53Z</time>
      </trkpt>
      <trkpt lat="39.4085030" lon="-3.8021340">
        <ele>780.6</ele>
        <time>2019-08-12T08:39:54Z</time>
      </trkpt>
      <trkpt lat="39.4085640" lon="-3.8021580">
        <ele>780.6</ele>
        <time>2019-08-12T08:39:55Z</time>
      </trkpt>
      <trkpt lat="39.4086240" lon="-3.8021830">
        <ele>780.5</ele>
        <time>2019-08-12T08:39:56Z</time>
      </trkpt>
      <trkpt lat="39.4086830" lon="-3.8022090">
        <ele>780.5</ele>
        <time>2019-08-12T08:39:57Z</time>
      </trkpt>
      <trkpt lat="39.4087420" lon="-3.8022350">
        <ele>780.5</ele>
        <time>2019-08-12T08:39:58Z</time>
      </trkpt>
      <trkpt lat="39.4088020" lon="-3.8022600">
        <ele>780.4</ele>
        <time>2019-08-12T08:39:59Z</time>
      </trkpt>
      <trkpt lat="39.4088610" lon="-3.8022840">
        <ele>780.4</ele>
        <time>2019-08-12T08:40:00Z</time>
      </trkpt>
      <trkpt lat="39.4089200" lon="-3.8023080">
        <ele>780.3</ele>
        <time>2019-08-12T08:40:01Z</time>
      </trkpt>
      <trkpt lat="39.4089800" lon="-3.8023310">
        <ele>780.3</ele>
        <time>2019-08-12T08:40:02Z</time>
      </trkpt>
      <trkpt lat="39.4090390" lon="-3.8023550">
        <ele>780.3</ele>
        <time>2019-08-12T08:40:03Z</time>
      </trkpt>
      <trkpt lat="39.4090980" lon="-3.8023790">
        <ele>780.2</ele>
        <time>2019-08-12T08:40:04Z</time>
      </trkpt>
      <trkpt lat="39.4091570" lon="-3.8024040">
        <ele>780.2</ele>
        <time>2019-08-12T08:40:05Z</time>
      </trkpt>
      <trkpt lat="39.4092160" lon="-3.8024290">
        <ele>780.1</ele>
        <time>2019-08-12T08:40:06Z</time>
      </trkpt>
      <trkpt lat="39.4092750" lon="-3.8024530">
        <ele>780.1</ele>
        <time>2019-08-12T08:40:07Z</time>
      </trkpt>
      <trkpt lat="39.4093330" lon="-3.8024780">
        <ele>780.0</ele>
        <time>2019-08-12T08:40:08Z</time>
      </trkpt>
      <trkpt lat="39.4093920" lon="-3.8025020">
        <ele>780.0</ele>
        <time>2019-08-12T08:40:09Z</time>
      </trkpt>
      <trkpt lat="39.4094510" lon="-3.8025260">
        <ele>780.0</ele>
        <time>2019-08-12T08:40:10Z</time>
      </trkpt>
      <trkpt lat="39.4095100" lon="-3.8025490">
        <ele>780.0</ele>
        <time>2019-08-12T08:40:11Z</time>
      </trkpt>
      <trkpt lat="39.4095690" lon="-3.8025720">
        <ele>780.0</ele>
        <time>2019-08-12T08:40:12Z</time>
      </trkpt>
      <trkpt lat="39.4096280" lon="-3.8025950">
        <ele>780.0</ele>
        <time>2019-08-12T08:40:13Z</time>
      </trkpt>
      <trkpt lat="39.4096880" lon="-3.8026190">
        <ele>780.0</ele>
        <time>2019-08-12T08:40:14Z</time>
      </trkpt>
      <trkpt lat="39.4097470" lon="-3.8026420">
        <ele>779.9</ele>
        <time>2019-08-12T08:40:15Z</time>
      </trkpt>
      <trkpt lat="39.4098060" lon="-3.8026650">
        <ele>779.9</ele>
        <time>2019-08-12T08:40:16Z</time>
      </trkpt>
      <trkpt lat="39.4098650" lon="-3.8026880">
        <ele>779.9</ele>
        <time>2019-08-12T08:40:17Z</time>
      </trkpt>
      <trkpt lat="39.4099240" lon="-3.8027110">
        <ele>779.8</ele>
        <time>2019-08-12T08:40:18Z</time>
      </trkpt>
      <trkpt lat="39.4099830" lon="-3.8027330">
        <ele>779.8</ele>
        <time>2019-08-12T08:40:19Z</time>
      </trkpt>
      <trkpt lat="39.4100420" lon="-3.8027560">
        <ele>779.8</ele>
        <time>2019-08-12T08:40:20Z</time>
      </trkpt>
      <trkpt lat="39.4101010" lon="-3.8027790">
        <ele>779.8</ele>
        <time>2019-08-12T08:40:21Z</time>
      </trkpt>
      <trkpt lat="39.4101600" lon="-3.8028010">
        <ele>779.7</ele>
        <time>2019-08-12T08:40:22Z</time>
      </trkpt>
      <trkpt lat="39.4102190" lon="-3.8028240">
        <ele>779.7</ele>
        <time>2019-08-12T08:40:23Z</time>
      </trkpt>
      <trkpt lat="39.4102780" lon="-3.8028460">
        <ele>779.7</ele>
        <time>2019-08-12T08:40:24Z</time>
      </trkpt>
      <trkpt lat="39.4103360" lon="-3.8028680">
        <ele>779.7</ele>
        <time>2019-08-12T08:40:25Z</time>
      </trkpt>
      <trkpt lat="39.4103940" lon="-3.8028900">
        <ele>779.8</ele>
        <time>2019-08-12T08:40:26Z</time>
      </trkpt>
      <trkpt lat="39.4104530" lon="-3.8029110">
        <ele>779.8</ele>
        <time>2019-08-12T08:40:27Z</time>
      </trkpt>
      <trkpt lat="39.4105110" lon="-3.8029330">
        <ele>779.8</ele>
        <time>2019-08-12T08:40:28Z</time>
      </trkpt>
      <trkpt lat="39.4105680" lon="-3.8029540">
        <ele>779.8</ele>
        <time>2019-08-12T08:40:29Z</time>
      </trkpt>
      <trkpt lat="39.4106260" lon="-3.8029750">
        <ele>779.8</ele>
        <time>2019-08-12T08:40:30Z</time>
      </trkpt>
      <trkpt lat="39.4106830" lon="-3.8029960">
        <ele>779.8</ele>
        <time>2019-08-12T08:40:31Z</time>
      </trkpt>
      <trkpt lat="39.4107400" lon="-3.8030170">
        <ele>779.9</ele>
        <time>2019-08-12T08:40:32Z</time>
      </trkpt>
      <trkpt lat="39.4107970" lon="-3.8030380">
        <ele>779.9</ele>
        <time>2019-08-12T08:40:33Z</time>
      </trkpt>
      <trkpt lat="39.4108530" lon="-3.8030580">
        <ele>779.9</ele>
        <time>2019-08-12T08:40:34Z</time>
      </trkpt>
      <trkpt lat="39.4109090" lon="-3.8030780">
        <ele>780.0</ele>
        <time>2019-08-12T08:40:35Z</time>
      </trkpt>
      <trkpt lat="39.4109650" lon="-3.8030990">
        <ele>780.0</ele>
        <time>2019-08-12T08:40:36Z</time>
      </trkpt>
      <trkpt lat="39.4110210" lon="-3.8031190">
        <ele>780.1</ele>
        <time>2019-08-12T08:40:37Z</time>
      </trkpt>
      <trkpt lat="39.4110760" lon="-3.8031390">
        <ele>780.1</ele>
        <time>2019-08-12T08:40:38Z</time>
      </trkpt>
      <trkpt lat="39.4111320" lon="-3.8031600">
        <ele>780.1</ele>
        <time>2019-08-12T08:40:39Z</time>
      </trkpt>
      <trkpt lat="39.4111870" lon="-3.8031800">
        <ele>780.0</ele>
        <time>2019-08-12T08:40:40Z</time>
      </trkpt>
      <trkpt lat="39.4112420" lon="-3.8032000">
        <ele>780.0</ele>
        <time>2019-08-12T08:40:41Z</time>
      </trkpt>
      <trkpt lat="39.4112960" lon="-3.8032210">
        <ele>780.0</ele>
        <time>2019-08-12T08:40:42Z</time>
      </trkpt>
      <trkpt lat="39.4113510" lon="-3.8032410">
        <ele>779.9</ele>
        <time>2019-08-12T08:40:43Z</time>
      </trkpt>
      <trkpt lat="39.4114060" lon="-3.8032620">
        <ele>779.9</ele>
        <time>2019-08-12T08:40:44Z</time>
      </trkpt>
      <trkpt lat="39.4114620" lon="-3.8032820">
        <ele>779.8</ele>
        <time>2019-08-12T08:40:45Z</time>
      </trkpt>
      <trkpt lat="39.4115180" lon="-3.8033020">
        <ele>779.8</ele>
        <time>2019-08-12T08:40:46Z</time>
      </trkpt>
      <trkpt lat="39.4115740" lon="-3.8033220">
        <ele>779.7</ele>
        <time>2019-08-12T08:40:47Z</time>
      </trkpt>
      <trkpt lat="39.4116310" lon="-3.8033420">
        <ele>779.7</ele>
        <time>2019-08-12T08:40:48Z</time>
      </trkpt>
      <trkpt lat="39.4116870" lon="-3.8033620">
        <ele>779.6</ele>
        <time>2019-08-12T08:40:49Z</time>
      </trkpt>
      <trkpt lat="39.4117430" lon="-3.8033820">
        <ele>779.5</ele>
        <time>2019-08-12T08:40:50Z</time>
      </trkpt>
      <trkpt lat="39.4117980" lon="-3.8034020">
        <ele>779.5</ele>
        <time>2019-08-12T08:40:51Z</time>
      </trkpt>
      <trkpt lat="39.4118540" lon="-3.8034220">
        <ele>779.4</ele>
        <time>2019-08-12T08:40:52Z</time>
      </trkpt>
      <trkpt lat="39.4119090" lon="-3.8034420">
        <ele>779.4</ele>
        <time>2019-08-12T08:40:53Z</time>
      </trkpt>
      <trkpt lat="39.4119630" lon="-3.8034610">
        <ele>779.3</ele>
        <time>2019-08-12T08:40:54Z</time>
      </trkpt>
      <trkpt lat="39.4120180" lon="-3.8034810">
        <ele>779.3</ele>
        <time>2019-08-12T08:40:55Z</time>
      </trkpt>
      <trkpt lat="39.4120720" lon="-3.8035000">
        <ele>779.3</ele>
        <time>2019-08-12T08:40:56Z</time>
      </trkpt>
      <trkpt lat="39.4121270" lon="-3.8035190">
        <ele>779.3</ele>
        <time>2019-08-12T08:40:57Z</time>
      </trkpt>
      <trkpt lat="39.4121810" lon="-3.8035380">
        <ele>779.2</ele>
        <time>2019-08-12T08:40:58Z</time>
      </trkpt>
      <trkpt lat="39.4122350" lon="-3.8035570">
        <ele>779.2</ele>
        <time>2019-08-12T08:40:59Z</time>
      </trkpt>
      <trkpt lat="39.4122890" lon="-3.8035760">
        <ele>779.2</ele>
        <time>2019-08-12T08:41:00Z</time>
      </trkpt>
      <trkpt lat="39.4123430" lon="-3.8035940">
        <ele>779.2</ele>
        <time>2019-08-12T08:41:01Z</time>
      </trkpt>
      <trkpt lat="39.4123980" lon="-3.8036130">
        <ele>779.2</ele>
        <time>2019-08-12T08:41:02Z</time>
      </trkpt>
      <trkpt lat="39.4124520" lon="-3.8036310">
        <ele>779.2</ele>
        <time>2019-08-12T08:41:03Z</time>
      </trkpt>
      <trkpt lat="39.4125070" lon="-3.8036490">
        <ele>779.1</ele>
        <time>2019-08-12T08:41:04Z</time>
      </trkpt>
      <trkpt lat="39.4125620" lon="-3.8036670">
        <ele>779.1</ele>
        <time>2019-08-12T08:41:05Z</time>
      </trkpt>
      <trkpt lat="39.4126170" lon="-3.8036840">
        <ele>779.1</ele>
        <time>2019-08-12T08:41:06Z</time>
      </trkpt>
      <trkpt lat="39.4126720" lon="-3.8037010">
        <ele>779.1</ele>
        <time>2019-08-12T08:41:07Z</time>
      </trkpt>
      <trkpt lat="39.4127280" lon="-3.8037180">
        <ele>779.0</ele>
        <time>2019-08-12T08:41:08Z</time>
      </trkpt>
      <trkpt lat="39.4127830" lon="-3.8037350">
        <ele>779.0</ele>
        <time>2019-08-12T08:41:09Z</time>
      </trkpt>
      <trkpt lat="39.4128390" lon="-3.8037520">
        <ele>779.0</ele>
        <time>2019-08-12T08:41:10Z</time>
      </trkpt>
      <trkpt lat="39.4128950" lon="-3.8037690">
        <ele>778.9</ele>
        <time>2019-08-12T08:41:11Z</time>
      </trkpt>
      <trkpt lat="39.4129500" lon="-3.8037870">
        <ele>778.9</ele>
        <time>2019-08-12T08:41:12Z</time>
      </trkpt>
      <trkpt lat="39.4130050" lon="-3.8038050">
        <ele>778.8</ele>
        <time>2019-08-12T08:41:13Z</time>
      </trkpt>
      <trkpt lat="39.4130600" lon="-3.8038240">
        <ele>778.8</ele>
        <time>2019-08-12T08:41:14Z</time>
      </trkpt>
      <trkpt lat="39.4131150" lon="-3.8038430">
        <ele>778.8</ele>
        <time>2019-08-12T08:41:15Z</time>
      </trkpt>
      <trkpt lat="39.4131700" lon="-3.8038620">
        <ele>778.8</ele>
        <time>2019-08-12T08:41:16Z</time>
      </trkpt>
      <trkpt lat="39.4132250" lon="-3.8038820">
        <ele>778.8</ele>
        <time>2019-08-12T08:41:17Z</time>
      </trkpt>
      <trkpt lat="39.4132810" lon="-3.8039010">
        <ele>778.8</ele>
        <time>2019-08-12T08:41:18Z</time>
      </trkpt>
      <trkpt lat="39.4133370" lon="-3.8039210">
        <ele>778.8</ele>
        <time>2019-08-12T08:41:19Z</time>
      </trkpt>
      <trkpt lat="39.4133940" lon="-3.8039410">
        <ele>778.8</ele>
        <time>2019-08-12T08:41:20Z</time>
      </trkpt>
      <trkpt lat="39.4134510" lon="-3.8039600">
        <ele>778.8</ele>
        <time>2019-08-12T08:41:21Z</time>
      </trkpt>
      <trkpt lat="39.4135080" lon="-3.8039800">
        <ele>778.8</ele>
        <time>2019-08-12T08:41:22Z</time>
      </trkpt>
      <trkpt lat="39.4135650" lon="-3.8040000">
        <ele>778.8</ele>
        <time>2019-08-12T08:41:23Z</time>
      </trkpt>
      <trkpt lat="39.4136230" lon="-3.8040200">
        <ele>778.8</ele>
        <time>2019-08-12T08:41:24Z</time>
      </trkpt>
      <trkpt lat="39.4136800" lon="-3.8040400">
        <ele>778.8</ele>
        <time>2019-08-12T08:41:25Z</time>
      </trkpt>
      <trkpt lat="39.4137370" lon="-3.8040600">
        <ele>778.8</ele>
        <time>2019-08-12T08:41:26Z</time>
      </trkpt>
      <trkpt lat="39.4137930" lon="-3.8040800">
        <ele>778.7</ele>
        <time>2019-08-12T08:41:27Z</time>
      </trkpt>
      <trkpt lat="39.4138490" lon="-3.8041010">
        <ele>778.7</ele>
        <time>2019-08-12T08:41:28Z</time>
      </trkpt>
      <trkpt lat="39.4139050" lon="-3.8041210">
        <ele>778.7</ele>
        <time>2019-08-12T08:41:29Z</time>
      </trkpt>
      <trkpt lat="39.4139600" lon="-3.8041410">
        <ele>778.7</ele>
        <time>2019-08-12T08:41:30Z</time>
      </trkpt>
      <trkpt lat="39.4140150" lon="-3.8041610">
        <ele>778.6</ele>
        <time>2019-08-12T08:41:31Z</time>
      </trkpt>
      <trkpt lat="39.4140690" lon="-3.8041810">
        <ele>778.6</ele>
        <time>2019-08-12T08:41:32Z</time>
      </trkpt>
      <trkpt lat="39.4141230" lon="-3.8042010">
        <ele>778.5</ele>
        <time>2019-08-12T08:41:33Z</time>
      </trkpt>
      <trkpt lat="39.4141770" lon="-3.8042210">
        <ele>778.5</ele>
        <time>2019-08-12T08:41:34Z</time>
      </trkpt>
      <trkpt lat="39.4142290" lon="-3.8042400">
        <ele>778.4</ele>
        <time>2019-08-12T08:41:35Z</time>
      </trkpt>
      <trkpt lat="39.4142820" lon="-3.8042590">
        <ele>778.4</ele>
        <time>2019-08-12T08:41:36Z</time>
      </trkpt>
      <trkpt lat="39.4143330" lon="-3.8042770">
        <ele>778.4</ele>
        <time>2019-08-12T08:41:37Z</time>
      </trkpt>
      <trkpt lat="39.4143850" lon="-3.8042960">
        <ele>778.4</ele>
        <time>2019-08-12T08:41:38Z</time>
      </trkpt>
      <trkpt lat="39.4144370" lon="-3.8043140">
        <ele>778.4</ele>
        <time>2019-08-12T08:41:39Z</time>
      </trkpt>
      <trkpt lat="39.4144900" lon="-3.8043330">
        <ele>778.3</ele>
        <time>2019-08-12T08:41:40Z</time>
      </trkpt>
      <trkpt lat="39.4145430" lon="-3.8043510">
        <ele>778.3</ele>
        <time>2019-08-12T08:41:41Z</time>
      </trkpt>
      <trkpt lat="39.4145970" lon="-3.8043700">
        <ele>778.3</ele>
        <time>2019-08-12T08:41:42Z</time>
      </trkpt>
      <trkpt lat="39.4146510" lon="-3.8043880">
        <ele>778.2</ele>
        <time>2019-08-12T08:41:43Z</time>
      </trkpt>
      <trkpt lat="39.4147060" lon="-3.8044070">
        <ele>778.1</ele>
        <time>2019-08-12T08:41:44Z</time>
      </trkpt>
      <trkpt lat="39.4147600" lon="-3.8044260">
        <ele>778.1</ele>
        <time>2019-08-12T08:41:45Z</time>
      </trkpt>
      <trkpt lat="39.4148140" lon="-3.8044450">
        <ele>778.0</ele>
        <time>2019-08-12T08:41:46Z</time>
      </trkpt>
      <trkpt lat="39.4148680" lon="-3.8044640">
        <ele>778.0</ele>
        <time>2019-08-12T08:41:47Z</time>
      </trkpt>
      <trkpt lat="39.4149220" lon="-3.8044830">
        <ele>777.9</ele>
        <time>2019-08-12T08:41:48Z</time>
      </trkpt>
      <trkpt lat="39.4149770" lon="-3.8045020">
        <ele>777.9</ele>
        <time>2019-08-12T08:41:49Z</time>
      </trkpt>
      <trkpt lat="39.4150310" lon="-3.8045210">
        <ele>777.9</ele>
        <time>2019-08-12T08:41:50Z</time>
      </trkpt>
      <trkpt lat="39.4150850" lon="-3.8045400">
        <ele>777.9</ele>
        <time>2019-08-12T08:41:51Z</time>
      </trkpt>
      <trkpt lat="39.4151380" lon="-3.8045590">
        <ele>777.9</ele>
        <time>2019-08-12T08:41:52Z</time>
      </trkpt>
      <trkpt lat="39.4151920" lon="-3.8045790">
        <ele>777.9</ele>
        <time>2019-08-12T08:41:53Z</time>
      </trkpt>
      <trkpt lat="39.4152460" lon="-3.8045980">
        <ele>777.9</ele>
        <time>2019-08-12T08:41:54Z</time>
      </trkpt>
      <trkpt lat="39.4153000" lon="-3.8046170">
        <ele>778.0</ele>
        <time>2019-08-12T08:41:55Z</time>
      </trkpt>
      <trkpt lat="39.4153540" lon="-3.8046360">
        <ele>778.1</ele>
        <time>2019-08-12T08:41:56Z</time>
      </trkpt>
      <trkpt lat="39.4154090" lon="-3.8046550">
        <ele>778.1</ele>
        <time>2019-08-12T08:41:57Z</time>
      </trkpt>
      <trkpt lat="39.4154630" lon="-3.8046750">
        <ele>778.1</ele>
        <time>2019-08-12T08:41:58Z</time>
      </trkpt>
      <trkpt lat="39.4155170" lon="-3.8046940">
        <ele>778.2</ele>
        <time>2019-08-12T08:41:59Z</time>
      </trkpt>
      <trkpt lat="39.4155710" lon="-3.8047130">
        <ele>778.2</ele>
        <time>2019-08-12T08:42:00Z</time>
      </trkpt>
      <trkpt lat="39.4156260" lon="-3.8047320">
        <ele>778.2</ele>
        <time>2019-08-12T08:42:01Z</time>
      </trkpt>
      <trkpt lat="39.4156800" lon="-3.8047520">
        <ele>778.2</ele>
        <time>2019-08-12T08:42:02Z</time>
      </trkpt>
      <trkpt lat="39.4157350" lon="-3.8047710">
        <ele>778.2</ele>
        <time>2019-08-12T08:42:03Z</time>
      </trkpt>
      <trkpt lat="39.4157890" lon="-3.8047900">
        <ele>778.2</ele>
        <time>2019-08-12T08:42:04Z</time>
      </trkpt>
      <trkpt lat="39.4158440" lon="-3.8048100">
        <ele>778.2</ele>
        <time>2019-08-12T08:42:05Z</time>
      </trkpt>
      <trkpt lat="39.4158990" lon="-3.8048290">
        <ele>778.2</ele>
        <time>2019-08-12T08:42:06Z</time>
      </trkpt>
      <trkpt lat="39.4159540" lon="-3.8048480">
        <ele>778.2</ele>
        <time>2019-08-12T08:42:07Z</time>
      </trkpt>
      <trkpt lat="39.4160090" lon="-3.8048680">
        <ele>778.2</ele>
        <time>2019-08-12T08:42:08Z</time>
      </trkpt>
      <trkpt lat="39.4160640" lon="-3.8048880">
        <ele>778.2</ele>
        <time>2019-08-12T08:42:09Z</time>
      </trkpt>
      <trkpt lat="39.4161190" lon="-3.8049090">
        <ele>778.3</ele>
        <time>2019-08-12T08:42:10Z</time>
      </trkpt>
      <trkpt lat="39.4161740" lon="-3.8049300">
        <ele>778.3</ele>
        <time>2019-08-12T08:42:11Z</time>
      </trkpt>
      <trkpt lat="39.4162290" lon="-3.8049510">
        <ele>778.3</ele>
        <time>2019-08-12T08:42:12Z</time>
      </trkpt>
      <trkpt lat="39.4162850" lon="-3.8049730">
        <ele>778.4</ele>
        <time>2019-08-12T08:42:13Z</time>
      </trkpt>
      <trkpt lat="39.4163400" lon="-3.8049950">
        <ele>778.5</ele>
        <time>2019-08-12T08:42:14Z</time>
      </trkpt>
      <trkpt lat="39.4163950" lon="-3.8050180">
        <ele>778.5</ele>
        <time>2019-08-12T08:42:15Z</time>
      </trkpt>
      <trkpt lat="39.4164510" lon="-3.8050400">
        <ele>778.6</ele>
        <time>2019-08-12T08:42:16Z</time>
      </trkpt>
      <trkpt lat="39.4165080" lon="-3.8050630">
        <ele>778.6</ele>
        <time>2019-08-12T08:42:17Z</time>
      </trkpt>
      <trkpt lat="39.4165650" lon="-3.8050860">
        <ele>778.7</ele>
        <time>2019-08-12T08:42:18Z</time>
      </trkpt>
      <trkpt lat="39.4166230" lon="-3.8051090">
        <ele>778.7</ele>
        <time>2019-08-12T08:42:19Z</time>
      </trkpt>
      <trkpt lat="39.4166810" lon="-3.8051320">
        <ele>778.7</ele>
        <time>2019-08-12T08:42:20Z</time>
      </trkpt>
      <trkpt lat="39.4167410" lon="-3.8051540">
        <ele>778.7</ele>
        <time>2019-08-12T08:42:21Z</time>
      </trkpt>
      <trkpt lat="39.4168010" lon="-3.8051770">
        <ele>778.6</ele>
        <time>2019-08-12T08:42:22Z</time>
      </trkpt>
      <trkpt lat="39.4168630" lon="-3.8051990">
        <ele>778.6</ele>
        <time>2019-08-12T08:42:23Z</time>
      </trkpt>
      <trkpt lat="39.4169240" lon="-3.8052200">
        <ele>778.5</ele>
        <time>2019-08-12T08:42:24Z</time>
      </trkpt>
      <trkpt lat="39.4169850" lon="-3.8052410">
        <ele>778.5</ele>
        <time>2019-08-12T08:42:25Z</time>
      </trkpt>
      <trkpt lat="39.4170460" lon="-3.8052620">
        <ele>778.5</ele>
        <time>2019-08-12T08:42:26Z</time>
      </trkpt>
      <trkpt lat="39.4171050" lon="-3.8052830">
        <ele>778.4</ele>
        <time>2019-08-12T08:42:27Z</time>
      </trkpt>
      <trkpt lat="39.4171640" lon="-3.8053040">
        <ele>778.4</ele>
        <time>2019-08-12T08:42:28Z</time>
      </trkpt>
      <trkpt lat="39.4172220" lon="-3.8053240">
        <ele>778.3</ele>
        <time>2019-08-12T08:42:29Z</time>
      </trkpt>
      <trkpt lat="39.4172790" lon="-3.8053440">
        <ele>778.3</ele>
        <time>2019-08-12T08:42:30Z</time>
      </trkpt>
      <trkpt lat="39.4173360" lon="-3.8053650">
        <ele>778.2</ele>
        <time>2019-08-12T08:42:31Z</time>
      </trkpt>
      <trkpt lat="39.4173930" lon="-3.8053850">
        <ele>778.2</ele>
        <time>2019-08-12T08:42:32Z</time>
      </trkpt>
      <trkpt lat="39.4174500" lon="-3.8054060">
        <ele>778.2</ele>
        <time>2019-08-12T08:42:33Z</time>
      </trkpt>
      <trkpt lat="39.4175070" lon="-3.8054260">
        <ele>778.1</ele>
        <time>2019-08-12T08:42:34Z</time>
      </trkpt>
      <trkpt lat="39.4175640" lon="-3.8054470">
        <ele>778.1</ele>
        <time>2019-08-12T08:42:35Z</time>
      </trkpt>
      <trkpt lat="39.4176210" lon="-3.8054680">
        <ele>778.1</ele>
        <time>2019-08-12T08:42:36Z</time>
      </trkpt>
      <trkpt lat="39.4176780" lon="-3.8054890">
        <ele>778.1</ele>
        <time>2019-08-12T08:42:37Z</time>
      </trkpt>
      <trkpt lat="39.4177350" lon="-3.8055100">
        <ele>778.1</ele>
        <time>2019-08-12T08:42:38Z</time>
      </trkpt>
      <trkpt lat="39.4177920" lon="-3.8055310">
        <ele>778.1</ele>
        <time>2019-08-12T08:42:39Z</time>
      </trkpt>
      <trkpt lat="39.4178490" lon="-3.8055520">
        <ele>778.1</ele>
        <time>2019-08-12T08:42:40Z</time>
      </trkpt>
      <trkpt lat="39.4179060" lon="-3.8055730">
        <ele>778.0</ele>
        <time>2019-08-12T08:42:41Z</time>
      </trkpt>
      <trkpt lat="39.4179630" lon="-3.8055940">
        <ele>778.0</ele>
        <time>2019-08-12T08:42:42Z</time>
      </trkpt>
      <trkpt lat="39.4180200" lon="-3.8056160">
        <ele>778.0</ele>
        <time>2019-08-12T08:42:43Z</time>
      </trkpt>
      <trkpt lat="39.4180770" lon="-3.8056370">
        <ele>778.0</ele>
        <time>2019-08-12T08:42:44Z</time>
      </trkpt>
      <trkpt lat="39.4181350" lon="-3.8056580">
        <ele>778.0</ele>
        <time>2019-08-12T08:42:45Z</time>
      </trkpt>
      <trkpt lat="39.4181920" lon="-3.8056800">
        <ele>778.0</ele>
        <time>2019-08-12T08:42:46Z</time>
      </trkpt>
      <trkpt lat="39.4182490" lon="-3.8057010">
        <ele>778.0</ele>
        <time>2019-08-12T08:42:47Z</time>
      </trkpt>
      <trkpt lat="39.4183070" lon="-3.8057220">
        <ele>778.0</ele>
        <time>2019-08-12T08:42:48Z</time>
      </trkpt>
      <trkpt lat="39.4183640" lon="-3.8057440">
        <ele>778.0</ele>
        <time>2019-08-12T08:42:49Z</time>
      </trkpt>
      <trkpt lat="39.4184210" lon="-3.8057650">
        <ele>778.0</ele>
        <time>2019-08-12T08:42:50Z</time>
      </trkpt>
      <trkpt lat="39.4184790" lon="-3.8057870">
        <ele>778.0</ele>
        <time>2019-08-12T08:42:51Z</time>
      </trkpt>
      <trkpt lat="39.4185370" lon="-3.8058080">
        <ele>778.0</ele>
        <time>2019-08-12T08:42:52Z</time>
      </trkpt>
      <trkpt lat="39.4185950" lon="-3.8058300">
        <ele>778.0</ele>
        <time>2019-08-12T08:42:53Z</time>
      </trkpt>
      <trkpt lat="39.4186530" lon="-3.8058510">
        <ele>778.0</ele>
        <time>2019-08-12T08:42:54Z</time>
      </trkpt>
      <trkpt lat="39.4187110" lon="-3.8058730">
        <ele>777.9</ele>
        <time>2019-08-12T08:42:55Z</time>
      </trkpt>
      <trkpt lat="39.4187690" lon="-3.8058950">
        <ele>777.9</ele>
        <time>2019-08-12T08:42:56Z</time>
      </trkpt>
      <trkpt lat="39.4188270" lon="-3.8059160">
        <ele>777.8</ele>
        <time>2019-08-12T08:42:57Z</time>
      </trkpt>
      <trkpt lat="39.4188860" lon="-3.8059380">
        <ele>777.8</ele>
        <time>2019-08-12T08:42:58Z</time>
      </trkpt>
      <trkpt lat="39.4189450" lon="-3.8059590">
        <ele>777.7</ele>
        <time>2019-08-12T08:42:59Z</time>
      </trkpt>
      <trkpt lat="39.4190040" lon="-3.8059810">
        <ele>777.7</ele>
        <time>2019-08-12T08:43:00Z</time>
      </trkpt>
      <trkpt lat="39.4190630" lon="-3.8060030">
        <ele>777.6</ele>
        <time>2019-08-12T08:43:01Z</time>
      </trkpt>
      <trkpt lat="39.4191230" lon="-3.8060250">
        <ele>777.5</ele>
        <time>2019-08-12T08:43:02Z</time>
      </trkpt>
      <trkpt lat="39.4191830" lon="-3.8060480">
        <ele>777.5</ele>
        <time>2019-08-12T08:43:03Z</time>
      </trkpt>
      <trkpt lat="39.4192440" lon="-3.8060720">
        <ele>777.4</ele>
        <time>2019-08-12T08:43:04Z</time>
      </trkpt>
      <trkpt lat="39.4193060" lon="-3.8060960">
        <ele>777.4</ele>
        <time>2019-08-12T08:43:05Z</time>
      </trkpt>
      <trkpt lat="39.4193680" lon="-3.8061200">
        <ele>777.3</ele>
        <time>2019-08-12T08:43:06Z</time>
      </trkpt>
      <trkpt lat="39.4194310" lon="-3.8061440">
        <ele>777.3</ele>
        <time>2019-08-12T08:43:07Z</time>
      </trkpt>
      <trkpt lat="39.4194940" lon="-3.8061670">
        <ele>777.2</ele>
        <time>2019-08-12T08:43:08Z</time>
      </trkpt>
      <trkpt lat="39.4195570" lon="-3.8061900">
        <ele>777.1</ele>
        <time>2019-08-12T08:43:09Z</time>
      </trkpt>
      <trkpt lat="39.4196210" lon="-3.8062120">
        <ele>777.0</ele>
        <time>2019-08-12T08:43:10Z</time>
      </trkpt>
      <trkpt lat="39.4196840" lon="-3.8062350">
        <ele>777.0</ele>
        <time>2019-08-12T08:43:11Z</time>
      </trkpt>
      <trkpt lat="39.4197480" lon="-3.8062580">
        <ele>776.9</ele>
        <time>2019-08-12T08:43:12Z</time>
      </trkpt>
      <trkpt lat="39.4198120" lon="-3.8062820">
        <ele>776.8</ele>
        <time>2019-08-12T08:43:13Z</time>
      </trkpt>
      <trkpt lat="39.4198760" lon="-3.8063080">
        <ele>776.8</ele>
        <time>2019-08-12T08:43:14Z</time>
      </trkpt>
      <trkpt lat="39.4199400" lon="-3.8063340">
        <ele>776.8</ele>
        <time>2019-08-12T08:43:15Z</time>
      </trkpt>
      <trkpt lat="39.4200040" lon="-3.8063610">
        <ele>776.8</ele>
        <time>2019-08-12T08:43:16Z</time>
      </trkpt>
      <trkpt lat="39.4200670" lon="-3.8063870">
        <ele>776.8</ele>
        <time>2019-08-12T08:43:17Z</time>
      </trkpt>
      <trkpt lat="39.4201300" lon="-3.8064120">
        <ele>776.7</ele>
        <time>2019-08-12T08:43:18Z</time>
      </trkpt>
      <trkpt lat="39.4201920" lon="-3.8064370">
        <ele>776.7</ele>
        <time>2019-08-12T08:43:19Z</time>
      </trkpt>
      <trkpt lat="39.4202540" lon="-3.8064610">
        <ele>776.7</ele>
        <time>2019-08-12T08:43:20Z</time>
      </trkpt>
      <trkpt lat="39.4203160" lon="-3.8064850">
        <ele>776.6</ele>
        <time>2019-08-12T08:43:21Z</time>
      </trkpt>
      <trkpt lat="39.4203770" lon="-3.8065080">
        <ele>776.6</ele>
        <time>2019-08-12T08:43:22Z</time>
      </trkpt>
      <trkpt lat="39.4204380" lon="-3.8065300">
        <ele>776.6</ele>
        <time>2019-08-12T08:43:23Z</time>
      </trkpt>
      <trkpt lat="39.4204990" lon="-3.8065520">
        <ele>776.6</ele>
        <time>2019-08-12T08:43:24Z</time>
      </trkpt>
      <trkpt lat="39.4205590" lon="-3.8065750">
        <ele>776.6</ele>
        <time>2019-08-12T08:43:25Z</time>
      </trkpt>
      <trkpt lat="39.4206190" lon="-3.8065970">
        <ele>776.6</ele>
        <time>2019-08-12T08:43:26Z</time>
      </trkpt>
      <trkpt lat="39.4206790" lon="-3.8066190">
        <ele>776.5</ele>
        <time>2019-08-12T08:43:27Z</time>
      </trkpt>
      <trkpt lat="39.4207390" lon="-3.8066410">
        <ele>776.5</ele>
        <time>2019-08-12T08:43:28Z</time>
      </trkpt>
      <trkpt lat="39.4207990" lon="-3.8066630">
        <ele>776.5</ele>
        <time>2019-08-12T08:43:29Z</time>
      </trkpt>
      <trkpt lat="39.4208580" lon="-3.8066850">
        <ele>776.4</ele>
        <time>2019-08-12T08:43:30Z</time>
      </trkpt>
      <trkpt lat="39.4209170" lon="-3.8067070">
        <ele>776.4</ele>
        <time>2019-08-12T08:43:31Z</time>
      </trkpt>
      <trkpt lat="39.4209760" lon="-3.8067290">
        <ele>776.3</ele>
        <time>2019-08-12T08:43:32Z</time>
      </trkpt>
      <trkpt lat="39.4210340" lon="-3.8067510">
        <ele>776.3</ele>
        <time>2019-08-12T08:43:33Z</time>
      </trkpt>
      <trkpt lat="39.4210930" lon="-3.8067720">
        <ele>776.2</ele>
        <time>2019-08-12T08:43:34Z</time>
      </trkpt>
      <trkpt lat="39.4211500" lon="-3.8067930">
        <ele>776.1</ele>
        <time>2019-08-12T08:43:35Z</time>
      </trkpt>
      <trkpt lat="39.4212080" lon="-3.8068140">
        <ele>776.1</ele>
        <time>2019-08-12T08:43:36Z</time>
      </trkpt>
      <trkpt lat="39.4212650" lon="-3.8068340">
        <ele>776.0</ele>
        <time>2019-08-12T08:43:37Z</time>
      </trkpt>
      <trkpt lat="39.4213210" lon="-3.8068550">
        <ele>776.0</ele>
        <time>2019-08-12T08:43:38Z</time>
      </trkpt>
      <trkpt lat="39.4213770" lon="-3.8068750">
        <ele>775.9</ele>
        <time>2019-08-12T08:43:39Z</time>
      </trkpt>
      <trkpt lat="39.4214330" lon="-3.8068950">
        <ele>775.9</ele>
        <time>2019-08-12T08:43:40Z</time>
      </trkpt>
      <trkpt lat="39.4214890" lon="-3.8069140">
        <ele>775.8</ele>
        <time>2019-08-12T08:43:41Z</time>
      </trkpt>
      <trkpt lat="39.4215450" lon="-3.8069340">
        <ele>775.8</ele>
        <time>2019-08-12T08:43:42Z</time>
      </trkpt>
      <trkpt lat="39.4216000" lon="-3.8069530">
        <ele>775.7</ele>
        <time>2019-08-12T08:43:43Z</time>
      </trkpt>
      <trkpt lat="39.4216550" lon="-3.8069730">
        <ele>775.7</ele>
        <time>2019-08-12T08:43:44Z</time>
      </trkpt>
      <trkpt lat="39.4217100" lon="-3.8069920">
        <ele>775.6</ele>
        <time>2019-08-12T08:43:45Z</time>
      </trkpt>
      <trkpt lat="39.4217650" lon="-3.8070110">
        <ele>775.6</ele>
        <time>2019-08-12T08:43:46Z</time>
      </trkpt>
      <trkpt lat="39.4218200" lon="-3.8070300">
        <ele>775.6</ele>
        <time>2019-08-12T08:43:47Z</time>
      </trkpt>
      <trkpt lat="39.4218750" lon="-3.8070490">
        <ele>775.6</ele>
        <time>2019-08-12T08:43:48Z</time>
      </trkpt>
      <trkpt lat="39.4219300" lon="-3.8070680">
        <ele>775.6</ele>
        <time>2019-08-12T08:43:49Z</time>
      </trkpt>
      <trkpt lat="39.4219850" lon="-3.8070870">
        <ele>775.7</ele>
        <time>2019-08-12T08:43:50Z</time>
      </trkpt>
      <trkpt lat="39.4220400" lon="-3.8071060">
        <ele>775.7</ele>
        <time>2019-08-12T08:43:51Z</time>
      </trkpt>
      <trkpt lat="39.4220950" lon="-3.8071250">
        <ele>775.8</ele>
        <time>2019-08-12T08:43:52Z</time>
      </trkpt>
      <trkpt lat="39.4221500" lon="-3.8071440">
        <ele>775.8</ele>
        <time>2019-08-12T08:43:53Z</time>
      </trkpt>
      <trkpt lat="39.4222050" lon="-3.8071630">
        <ele>775.8</ele>
        <time>2019-08-12T08:43:54Z</time>
      </trkpt>
      <trkpt lat="39.4222610" lon="-3.8071830">
        <ele>775.9</ele>
        <time>2019-08-12T08:43:55Z</time>
      </trkpt>
      <trkpt lat="39.4223170" lon="-3.8072020">
        <ele>775.9</ele>
        <time>2019-08-12T08:43:56Z</time>
      </trkpt>
      <trkpt lat="39.4223730" lon="-3.8072220">
        <ele>776.0</ele>
        <time>2019-08-12T08:43:57Z</time>
      </trkpt>
      <trkpt lat="39.4224300" lon="-3.8072420">
        <ele>776.1</ele>
        <time>2019-08-12T08:43:58Z</time>
      </trkpt>
      <trkpt lat="39.4224870" lon="-3.8072630">
        <ele>776.2</ele>
        <time>2019-08-12T08:43:59Z</time>
      </trkpt>
      <trkpt lat="39.4225440" lon="-3.8072840">
        <ele>776.3</ele>
        <time>2019-08-12T08:44:00Z</time>
      </trkpt>
      <trkpt lat="39.4226020" lon="-3.8073050">
        <ele>776.4</ele>
        <time>2019-08-12T08:44:01Z</time>
      </trkpt>
      <trkpt lat="39.4226600" lon="-3.8073260">
        <ele>776.5</ele>
        <time>2019-08-12T08:44:02Z</time>
      </trkpt>
      <trkpt lat="39.4227170" lon="-3.8073460">
        <ele>776.6</ele>
        <time>2019-08-12T08:44:03Z</time>
      </trkpt>
      <trkpt lat="39.4227750" lon="-3.8073670">
        <ele>776.7</ele>
        <time>2019-08-12T08:44:04Z</time>
      </trkpt>
      <trkpt lat="39.4228320" lon="-3.8073870">
        <ele>776.7</ele>
        <time>2019-08-12T08:44:05Z</time>
      </trkpt>
      <trkpt lat="39.4228890" lon="-3.8074070">
        <ele>776.8</ele>
        <time>2019-08-12T08:44:06Z</time>
      </trkpt>
      <trkpt lat="39.4229440" lon="-3.8074270">
        <ele>776.9</ele>
        <time>2019-08-12T08:44:07Z</time>
      </trkpt>
      <trkpt lat="39.4229990" lon="-3.8074470">
        <ele>776.9</ele>
        <time>2019-08-12T08:44:08Z</time>
      </trkpt>
      <trkpt lat="39.4230520" lon="-3.8074660">
        <ele>777.0</ele>
        <time>2019-08-12T08:44:09Z</time>
      </trkpt>
      <trkpt lat="39.4231050" lon="-3.8074860">
        <ele>777.1</ele>
        <time>2019-08-12T08:44:10Z</time>
      </trkpt>
      <trkpt lat="39.4231570" lon="-3.8075050">
        <ele>777.1</ele>
        <time>2019-08-12T08:44:11Z</time>
      </trkpt>
      <trkpt lat="39.4232090" lon="-3.8075250">
        <ele>777.2</ele>
        <time>2019-08-12T08:44:12Z</time>
      </trkpt>
      <trkpt lat="39.4232620" lon="-3.8075440">
        <ele>777.3</ele>
        <time>2019-08-12T08:44:13Z</time>
      </trkpt>
      <trkpt lat="39.4233140" lon="-3.8075640">
        <ele>777.3</ele>
        <time>2019-08-12T08:44:14Z</time>
      </trkpt>
      <trkpt lat="39.4233670" lon="-3.8075830">
        <ele>777.4</ele>
        <time>2019-08-12T08:44:15Z</time>
      </trkpt>
      <trkpt lat="39.4234200" lon="-3.8076030">
        <ele>777.5</ele>
        <time>2019-08-12T08:44:16Z</time>
      </trkpt>
      <trkpt lat="39.4234730" lon="-3.8076230">
        <ele>777.5</ele>
        <time>2019-08-12T08:44:17Z</time>
      </trkpt>
      <trkpt lat="39.4235270" lon="-3.8076430">
        <ele>777.5</ele>
        <time>2019-08-12T08:44:18Z</time>
      </trkpt>
      <trkpt lat="39.4235800" lon="-3.8076630">
        <ele>777.5</ele>
        <time>2019-08-12T08:44:19Z</time>
      </trkpt>
      <trkpt lat="39.4236340" lon="-3.8076830">
        <ele>777.5</ele>
        <time>2019-08-12T08:44:20Z</time>
      </trkpt>
      <trkpt lat="39.4236880" lon="-3.8077030">
        <ele>777.5</ele>
        <time>2019-08-12T08:44:21Z</time>
      </trkpt>
      <trkpt lat="39.4237420" lon="-3.8077230">
        <ele>777.5</ele>
        <time>2019-08-12T08:44:22Z</time>
      </trkpt>
      <trkpt lat="39.4237960" lon="-3.8077430">
        <ele>777.5</ele>
        <time>2019-08-12T08:44:23Z</time>
      </trkpt>
      <trkpt lat="39.4238500" lon="-3.8077630">
        <ele>777.5</ele>
        <time>2019-08-12T08:44:24Z</time>
      </trkpt>
      <trkpt lat="39.4239040" lon="-3.8077830">
        <ele>777.5</ele>
        <time>2019-08-12T08:44:25Z</time>
      </trkpt>
      <trkpt lat="39.4239590" lon="-3.8078030">
        <ele>777.5</ele>
        <time>2019-08-12T08:44:26Z</time>
      </trkpt>
      <trkpt lat="39.4240130" lon="-3.8078230">
        <ele>777.5</ele>
        <time>2019-08-12T08:44:27Z</time>
      </trkpt>
      <trkpt lat="39.4240680" lon="-3.8078420">
        <ele>777.5</ele>
        <time>2019-08-12T08:44:28Z</time>
      </trkpt>
      <trkpt lat="39.4241220" lon="-3.8078620">
        <ele>777.5</ele>
        <time>2019-08-12T08:44:29Z</time>
      </trkpt>
      <trkpt lat="39.4241770" lon="-3.8078820">
        <ele>777.5</ele>
        <time>2019-08-12T08:44:30Z</time>
      </trkpt>
      <trkpt lat="39.4242310" lon="-3.8079020">
        <ele>777.4</ele>
        <time>2019-08-12T08:44:31Z</time>
      </trkpt>
      <trkpt lat="39.4242850" lon="-3.8079220">
        <ele>777.4</ele>
        <time>2019-08-12T08:44:32Z</time>
      </trkpt>
      <trkpt lat="39.4243400" lon="-3.8079420">
        <ele>777.4</ele>
        <time>2019-08-12T08:44:33Z</time>
      </trkpt>
      <trkpt lat="39.4243940" lon="-3.8079610">
        <ele>777.4</ele>
        <time>2019-08-12T08:44:34Z</time>
      </trkpt>
      <trkpt lat="39.4244490" lon="-3.8079810">
        <ele>777.4</ele>
        <time>2019-08-12T08:44:35Z</time>
      </trkpt>
      <trkpt lat="39.4245030" lon="-3.8080010">
        <ele>777.4</ele>
        <time>2019-08-12T08:44:36Z</time>
      </trkpt>
      <trkpt lat="39.4245570" lon="-3.8080210">
        <ele>777.4</ele>
        <time>2019-08-12T08:44:37Z</time>
      </trkpt>
      <trkpt lat="39.4246110" lon="-3.8080400">
        <ele>777.3</ele>
        <time>2019-08-12T08:44:38Z</time>
      </trkpt>
      <trkpt lat="39.4246650" lon="-3.8080600">
        <ele>777.3</ele>
        <time>2019-08-12T08:44:39Z</time>
      </trkpt>
      <trkpt lat="39.4247190" lon="-3.8080800">
        <ele>777.2</ele>
        <time>2019-08-12T08:44:40Z</time>
      </trkpt>
      <trkpt lat="39.4247730" lon="-3.8080990">
        <ele>777.1</ele>
        <time>2019-08-12T08:44:41Z</time>
      </trkpt>
      <trkpt lat="39.4248270" lon="-3.8081190">
        <ele>777.0</ele>
        <time>2019-08-12T08:44:42Z</time>
      </trkpt>
      <trkpt lat="39.4248800" lon="-3.8081390">
        <ele>776.9</ele>
        <time>2019-08-12T08:44:43Z</time>
      </trkpt>
      <trkpt lat="39.4249330" lon="-3.8081590">
        <ele>776.8</ele>
        <time>2019-08-12T08:44:44Z</time>
      </trkpt>
      <trkpt lat="39.4249870" lon="-3.8081790">
        <ele>776.7</ele>
        <time>2019-08-12T08:44:45Z</time>
      </trkpt>
      <trkpt lat="39.4250400" lon="-3.8081990">
        <ele>776.7</ele>
        <time>2019-08-12T08:44:46Z</time>
      </trkpt>
      <trkpt lat="39.4250930" lon="-3.8082190">
        <ele>776.6</ele>
        <time>2019-08-12T08:44:47Z</time>
      </trkpt>
      <trkpt lat="39.4251450" lon="-3.8082390">
        <ele>776.6</ele>
        <time>2019-08-12T08:44:48Z</time>
      </trkpt>
      <trkpt lat="39.4251980" lon="-3.8082590">
        <ele>776.6</ele>
        <time>2019-08-12T08:44:49Z</time>
      </trkpt>
      <trkpt lat="39.4252500" lon="-3.8082790">
        <ele>776.6</ele>
        <time>2019-08-12T08:44:50Z</time>
      </trkpt>
      <trkpt lat="39.4253020" lon="-3.8082990">
        <ele>776.7</ele>
        <time>2019-08-12T08:44:51Z</time>
      </trkpt>
      <trkpt lat="39.4253550" lon="-3.8083190">
        <ele>776.7</ele>
        <time>2019-08-12T08:44:52Z</time>
      </trkpt>
      <trkpt lat="39.4254080" lon="-3.8083390">
        <ele>776.8</ele>
        <time>2019-08-12T08:44:53Z</time>
      </trkpt>
      <trkpt lat="39.4254600" lon="-3.8083590">
        <ele>776.8</ele>
        <time>2019-08-12T08:44:54Z</time>
      </trkpt>
      <trkpt lat="39.4255130" lon="-3.8083780">
        <ele>776.9</ele>
        <time>2019-08-12T08:44:55Z</time>
      </trkpt>
      <trkpt lat="39.4255660" lon="-3.8083980">
        <ele>776.9</ele>
        <time>2019-08-12T08:44:56Z</time>
      </trkpt>
      <trkpt lat="39.4256190" lon="-3.8084170">
        <ele>777.0</ele>
        <time>2019-08-12T08:44:57Z</time>
      </trkpt>
      <trkpt lat="39.4256720" lon="-3.8084360">
        <ele>777.1</ele>
        <time>2019-08-12T08:44:58Z</time>
      </trkpt>
      <trkpt lat="39.4257240" lon="-3.8084560">
        <ele>777.2</ele>
        <time>2019-08-12T08:44:59Z</time>
      </trkpt>
      <trkpt lat="39.4257760" lon="-3.8084750">
        <ele>777.2</ele>
        <time>2019-08-12T08:45:00Z</time>
      </trkpt>
      <trkpt lat="39.4258280" lon="-3.8084930">
        <ele>777.3</ele>
        <time>2019-08-12T08:45:01Z</time>
      </trkpt>
      <trkpt lat="39.4258800" lon="-3.8085120">
        <ele>777.3</ele>
        <time>2019-08-12T08:45:02Z</time>
      </trkpt>
      <trkpt lat="39.4259310" lon="-3.8085310">
        <ele>777.4</ele>
        <time>2019-08-12T08:45:03Z</time>
      </trkpt>
      <trkpt lat="39.4259820" lon="-3.8085500">
        <ele>777.4</ele>
        <time>2019-08-12T08:45:04Z</time>
      </trkpt>
      <trkpt lat="39.4260340" lon="-3.8085690">
        <ele>777.4</ele>
        <time>2019-08-12T08:45:05Z</time>
      </trkpt>
      <trkpt lat="39.4260850" lon="-3.8085890">
        <ele>777.4</ele>
        <time>2019-08-12T08:45:06Z</time>
      </trkpt>
      <trkpt lat="39.4261370" lon="-3.8086080">
        <ele>777.3</ele>
        <time>2019-08-12T08:45:07Z</time>
      </trkpt>
      <trkpt lat="39.4261890" lon="-3.8086280">
        <ele>777.3</ele>
        <time>2019-08-12T08:45:08Z</time>
      </trkpt>
      <trkpt lat="39.4262420" lon="-3.8086480">
        <ele>777.3</ele>
        <time>2019-08-12T08:45:09Z</time>
      </trkpt>
      <trkpt lat="39.4262940" lon="-3.8086680">
        <ele>777.2</ele>
        <time>2019-08-12T08:45:10Z</time>
      </trkpt>
      <trkpt lat="39.4263470" lon="-3.8086890">
        <ele>777.2</ele>
        <time>2019-08-12T08:45:11Z</time>
      </trkpt>
      <trkpt lat="39.4264010" lon="-3.8087100">
        <ele>777.1</ele>
        <time>2019-08-12T08:45:12Z</time>
      </trkpt>
      <trkpt lat="39.4264550" lon="-3.8087320">
        <ele>777.1</ele>
        <time>2019-08-12T08:45:13Z</time>
      </trkpt>
      <trkpt lat="39.4265100" lon="-3.8087540">
        <ele>777.0</ele>
        <time>2019-08-12T08:45:14Z</time>
      </trkpt>
      <trkpt lat="39.4265650" lon="-3.8087760">
        <ele>776.9</ele>
        <time>2019-08-12T08:45:15Z</time>
      </trkpt>
      <trkpt lat="39.4266200" lon="-3.8087990">
        <ele>776.9</ele>
        <time>2019-08-12T08:45:16Z</time>
      </trkpt>
      <trkpt lat="39.4266770" lon="-3.8088230">
        <ele>776.8</ele>
        <time>2019-08-12T08:45:17Z</time>
      </trkpt>
      <trkpt lat="39.4267340" lon="-3.8088460">
        <ele>776.7</ele>
        <time>2019-08-12T08:45:18Z</time>
      </trkpt>
      <trkpt lat="39.4267910" lon="-3.8088700">
        <ele>776.6</ele>
        <time>2019-08-12T08:45:19Z</time>
      </trkpt>
      <trkpt lat="39.4268490" lon="-3.8088940">
        <ele>776.5</ele>
        <time>2019-08-12T08:45:20Z</time>
      </trkpt>
      <trkpt lat="39.4269080" lon="-3.8089170">
        <ele>776.4</ele>
        <time>2019-08-12T08:45:21Z</time>
      </trkpt>
      <trkpt lat="39.4269660" lon="-3.8089400">
        <ele>776.3</ele>
        <time>2019-08-12T08:45:22Z</time>
      </trkpt>
      <trkpt lat="39.4270250" lon="-3.8089630">
        <ele>776.2</ele>
        <time>2019-08-12T08:45:23Z</time>
      </trkpt>
      <trkpt lat="39.4270840" lon="-3.8089850">
        <ele>776.2</ele>
        <time>2019-08-12T08:45:24Z</time>
      </trkpt>
      <trkpt lat="39.4271440" lon="-3.8090080">
        <ele>776.1</ele>
        <time>2019-08-12T08:45:25Z</time>
      </trkpt>
      <trkpt lat="39.4272030" lon="-3.8090310">
        <ele>776.0</ele>
        <time>2019-08-12T08:45:26Z</time>
      </trkpt>
      <trkpt lat="39.4272630" lon="-3.8090530">
        <ele>776.0</ele>
        <time>2019-08-12T08:45:27Z</time>
      </trkpt>
      <trkpt lat="39.4273220" lon="-3.8090760">
        <ele>775.9</ele>
        <time>2019-08-12T08:45:28Z</time>
      </trkpt>
      <trkpt lat="39.4273820" lon="-3.8090990">
        <ele>775.9</ele>
        <time>2019-08-12T08:45:29Z</time>
      </trkpt>
      <trkpt lat="39.4274420" lon="-3.8091220">
        <ele>775.8</ele>
        <time>2019-08-12T08:45:30Z</time>
      </trkpt>
      <trkpt lat="39.4275020" lon="-3.8091440">
        <ele>775.8</ele>
        <time>2019-08-12T08:45:31Z</time>
      </trkpt>
      <trkpt lat="39.4275620" lon="-3.8091660">
        <ele>775.7</ele>
        <time>2019-08-12T08:45:32Z</time>
      </trkpt>
      <trkpt lat="39.4276210" lon="-3.8091880">
        <ele>775.6</ele>
        <time>2019-08-12T08:45:33Z</time>
      </trkpt>
      <trkpt lat="39.4276810" lon="-3.8092100">
        <ele>775.5</ele>
        <time>2019-08-12T08:45:34Z</time>
      </trkpt>
      <trkpt lat="39.4277410" lon="-3.8092310">
        <ele>775.4</ele>
        <time>2019-08-12T08:45:35Z</time>
      </trkpt>
      <trkpt lat="39.4278010" lon="-3.8092510">
        <ele>775.3</ele>
        <time>2019-08-12T08:45:36Z</time>
      </trkpt>
      <trkpt lat="39.4278610" lon="-3.8092710">
        <ele>775.2</ele>
        <time>2019-08-12T08:45:37Z</time>
      </trkpt>
      <trkpt lat="39.4279200" lon="-3.8092900">
        <ele>775.0</ele>
        <time>2019-08-12T08:45:38Z</time>
      </trkpt>
      <trkpt lat="39.4279800" lon="-3.8093090">
        <ele>775.0</ele>
        <time>2019-08-12T08:45:39Z</time>
      </trkpt>
      <trkpt lat="39.4280390" lon="-3.8093270">
        <ele>775.0</ele>
        <time>2019-08-12T08:45:40Z</time>
      </trkpt>
      <trkpt lat="39.4280980" lon="-3.8093450">
        <ele>774.9</ele>
        <time>2019-08-12T08:45:41Z</time>
      </trkpt>
      <trkpt lat="39.4281580" lon="-3.8093630">
        <ele>774.9</ele>
        <time>2019-08-12T08:45:42Z</time>
      </trkpt>
      <trkpt lat="39.4282170" lon="-3.8093800">
        <ele>774.9</ele>
        <time>2019-08-12T08:45:43Z</time>
      </trkpt>
      <trkpt lat="39.4282760" lon="-3.8093970">
        <ele>774.9</ele>
        <time>2019-08-12T08:45:44Z</time>
      </trkpt>
      <trkpt lat="39.4283350" lon="-3.8094130">
        <ele>775.0</ele>
        <time>2019-08-12T08:45:45Z</time>
      </trkpt>
      <trkpt lat="39.4283930" lon="-3.8094300">
        <ele>775.0</ele>
        <time>2019-08-12T08:45:46Z</time>
      </trkpt>
      <trkpt lat="39.4284520" lon="-3.8094460">
        <ele>775.0</ele>
        <time>2019-08-12T08:45:47Z</time>
      </trkpt>
      <trkpt lat="39.4285100" lon="-3.8094620">
        <ele>775.0</ele>
        <time>2019-08-12T08:45:48Z</time>
      </trkpt>
      <trkpt lat="39.4285680" lon="-3.8094770">
        <ele>775.1</ele>
        <time>2019-08-12T08:45:49Z</time>
      </trkpt>
      <trkpt lat="39.4286260" lon="-3.8094930">
        <ele>775.1</ele>
        <time>2019-08-12T08:45:50Z</time>
      </trkpt>
      <trkpt lat="39.4286840" lon="-3.8095080">
        <ele>775.2</ele>
        <time>2019-08-12T08:45:51Z</time>
      </trkpt>
      <trkpt lat="39.4287410" lon="-3.8095230">
        <ele>775.2</ele>
        <time>2019-08-12T08:45:52Z</time>
      </trkpt>
      <trkpt lat="39.4287980" lon="-3.8095380">
        <ele>775.3</ele>
        <time>2019-08-12T08:45:53Z</time>
      </trkpt>
      <trkpt lat="39.4288540" lon="-3.8095520">
        <ele>775.4</ele>
        <time>2019-08-12T08:45:54Z</time>
      </trkpt>
      <trkpt lat="39.4289100" lon="-3.8095660">
        <ele>775.4</ele>
        <time>2019-08-12T08:45:55Z</time>
      </trkpt>
      <trkpt lat="39.4289660" lon="-3.8095800">
        <ele>775.5</ele>
        <time>2019-08-12T08:45:56Z</time>
      </trkpt>
      <trkpt lat="39.4290210" lon="-3.8095940">
        <ele>775.6</ele>
        <time>2019-08-12T08:45:57Z</time>
      </trkpt>
      <trkpt lat="39.4290760" lon="-3.8096080">
        <ele>775.6</ele>
        <time>2019-08-12T08:45:58Z</time>
      </trkpt>
      <trkpt lat="39.4291310" lon="-3.8096210">
        <ele>775.7</ele>
        <time>2019-08-12T08:45:59Z</time>
      </trkpt>
      <trkpt lat="39.4291850" lon="-3.8096350">
        <ele>775.8</ele>
        <time>2019-08-12T08:46:00Z</time>
      </trkpt>
      <trkpt lat="39.4292390" lon="-3.8096480">
        <ele>775.8</ele>
        <time>2019-08-12T08:46:01Z</time>
      </trkpt>
      <trkpt lat="39.4292920" lon="-3.8096610">
        <ele>775.9</ele>
        <time>2019-08-12T08:46:02Z</time>
      </trkpt>
      <trkpt lat="39.4293450" lon="-3.8096740">
        <ele>776.0</ele>
        <time>2019-08-12T08:46:03Z</time>
      </trkpt>
      <trkpt lat="39.4293980" lon="-3.8096860">
        <ele>776.0</ele>
        <time>2019-08-12T08:46:04Z</time>
      </trkpt>
      <trkpt lat="39.4294500" lon="-3.8096990">
        <ele>776.1</ele>
        <time>2019-08-12T08:46:05Z</time>
      </trkpt>
      <trkpt lat="39.4295020" lon="-3.8097110">
        <ele>776.1</ele>
        <time>2019-08-12T08:46:06Z</time>
      </trkpt>
      <trkpt lat="39.4295540" lon="-3.8097240">
        <ele>776.2</ele>
        <time>2019-08-12T08:46:07Z</time>
      </trkpt>
      <trkpt lat="39.4296060" lon="-3.8097360">
        <ele>776.2</ele>
        <time>2019-08-12T08:46:08Z</time>
      </trkpt>
      <trkpt lat="39.4296580" lon="-3.8097480">
        <ele>776.2</ele>
        <time>2019-08-12T08:46:09Z</time>
      </trkpt>
      <trkpt lat="39.4297090" lon="-3.8097610">
        <ele>776.3</ele>
        <time>2019-08-12T08:46:10Z</time>
      </trkpt>
      <trkpt lat="39.4297610" lon="-3.8097730">
        <ele>776.3</ele>
        <time>2019-08-12T08:46:11Z</time>
      </trkpt>
      <trkpt lat="39.4298120" lon="-3.8097860">
        <ele>776.3</ele>
        <time>2019-08-12T08:46:12Z</time>
      </trkpt>
      <trkpt lat="39.4298640" lon="-3.8097980">
        <ele>776.3</ele>
        <time>2019-08-12T08:46:13Z</time>
      </trkpt>
      <trkpt lat="39.4299150" lon="-3.8098110">
        <ele>776.3</ele>
        <time>2019-08-12T08:46:14Z</time>
      </trkpt>
      <trkpt lat="39.4299680" lon="-3.8098230">
        <ele>776.3</ele>
        <time>2019-08-12T08:46:15Z</time>
      </trkpt>
      <trkpt lat="39.4300200" lon="-3.8098350">
        <ele>776.3</ele>
        <time>2019-08-12T08:46:16Z</time>
      </trkpt>
      <trkpt lat="39.4300740" lon="-3.8098460">
        <ele>776.2</ele>
        <time>2019-08-12T08:46:17Z</time>
      </trkpt>
      <trkpt lat="39.4301280" lon="-3.8098570">
        <ele>776.2</ele>
        <time>2019-08-12T08:46:18Z</time>
      </trkpt>
      <trkpt lat="39.4301820" lon="-3.8098670">
        <ele>776.1</ele>
        <time>2019-08-12T08:46:19Z</time>
      </trkpt>
      <trkpt lat="39.4302370" lon="-3.8098790">
        <ele>776.1</ele>
        <time>2019-08-12T08:46:20Z</time>
      </trkpt>
      <trkpt lat="39.4302920" lon="-3.8098920">
        <ele>776.0</ele>
        <time>2019-08-12T08:46:21Z</time>
      </trkpt>
      <trkpt lat="39.4303460" lon="-3.8099070">
        <ele>776.0</ele>
        <time>2019-08-12T08:46:22Z</time>
      </trkpt>
      <trkpt lat="39.4304000" lon="-3.8099250">
        <ele>776.0</ele>
        <time>2019-08-12T08:46:23Z</time>
      </trkpt>
      <trkpt lat="39.4304530" lon="-3.8099420">
        <ele>775.9</ele>
        <time>2019-08-12T08:46:24Z</time>
      </trkpt>
      <trkpt lat="39.4305060" lon="-3.8099590">
        <ele>775.9</ele>
        <time>2019-08-12T08:46:25Z</time>
      </trkpt>
      <trkpt lat="39.4305590" lon="-3.8099750">
        <ele>775.8</ele>
        <time>2019-08-12T08:46:26Z</time>
      </trkpt>
      <trkpt lat="39.4306120" lon="-3.8099890">
        <ele>775.8</ele>
        <time>2019-08-12T08:46:27Z</time>
      </trkpt>
      <trkpt lat="39.4306650" lon="-3.8099990">
        <ele>775.7</ele>
        <time>2019-08-12T08:46:28Z</time>
      </trkpt>
      <trkpt lat="39.4307180" lon="-3.8100070">
        <ele>775.6</ele>
        <time>2019-08-12T08:46:29Z</time>
      </trkpt>
      <trkpt lat="39.4307720" lon="-3.8100110">
        <ele>775.5</ele>
        <time>2019-08-12T08:46:30Z</time>
      </trkpt>
      <trkpt lat="39.4308270" lon="-3.8100110">
        <ele>775.4</ele>
        <time>2019-08-12T08:46:31Z</time>
      </trkpt>
      <trkpt lat="39.4308830" lon="-3.8100080">
        <ele>775.3</ele>
        <time>2019-08-12T08:46:32Z</time>
      </trkpt>
      <trkpt lat="39.4309390" lon="-3.8100050">
        <ele>775.1</ele>
        <time>2019-08-12T08:46:33Z</time>
      </trkpt>
      <trkpt lat="39.4309950" lon="-3.8100020">
        <ele>775.0</ele>
        <time>2019-08-12T08:46:34Z</time>
      </trkpt>
      <trkpt lat="39.4310510" lon="-3.8100010">
        <ele>774.9</ele>
        <time>2019-08-12T08:46:35Z</time>
      </trkpt>
      <trkpt lat="39.4311060" lon="-3.8100030">
        <ele>774.8</ele>
        <time>2019-08-12T08:46:36Z</time>
      </trkpt>
      <trkpt lat="39.4311610" lon="-3.8100080">
        <ele>774.8</ele>
        <time>2019-08-12T08:46:37Z</time>
      </trkpt>
      <trkpt lat="39.4312150" lon="-3.8100140">
        <ele>774.7</ele>
        <time>2019-08-12T08:46:38Z</time>
      </trkpt>
      <trkpt lat="39.4312700" lon="-3.8100200">
        <ele>774.6</ele>
        <time>2019-08-12T08:46:39Z</time>
      </trkpt>
      <trkpt lat="39.4313250" lon="-3.8100270">
        <ele>774.5</ele>
        <time>2019-08-12T08:46:40Z</time>
      </trkpt>
      <trkpt lat="39.4313800" lon="-3.8100340">
        <ele>774.5</ele>
        <time>2019-08-12T08:46:41Z</time>
      </trkpt>
      <trkpt lat="39.4314360" lon="-3.8100400">
        <ele>774.4</ele>
        <time>2019-08-12T08:46:42Z</time>
      </trkpt>
      <trkpt lat="39.4314920" lon="-3.8100470">
        <ele>774.4</ele>
        <time>2019-08-12T08:46:43Z</time>
      </trkpt>
      <trkpt lat="39.4315480" lon="-3.8100530">
        <ele>774.3</ele>
        <time>2019-08-12T08:46:44Z</time>
      </trkpt>
      <trkpt lat="39.4316040" lon="-3.8100600">
        <ele>774.3</ele>
        <time>2019-08-12T08:46:45Z</time>
      </trkpt>
      <trkpt lat="39.4316600" lon="-3.8100670">
        <ele>774.2</ele>
        <time>2019-08-12T08:46:46Z</time>
      </trkpt>
      <trkpt lat="39.4317160" lon="-3.8100730">
        <ele>774.1</ele>
        <time>2019-08-12T08:46:47Z</time>
      </trkpt>
      <trkpt lat="39.4317720" lon="-3.8100800">
        <ele>774.1</ele>
        <time>2019-08-12T08:46:48Z</time>
      </trkpt>
      <trkpt lat="39.4318280" lon="-3.8100870">
        <ele>774.2</ele>
        <time>2019-08-12T08:46:49Z</time>
      </trkpt>
      <trkpt lat="39.4318850" lon="-3.8100950">
        <ele>774.2</ele>
        <time>2019-08-12T08:46:50Z</time>
      </trkpt>
      <trkpt lat="39.4319690" lon="-3.8101060">
        <ele>774.3</ele>
        <time>2019-08-12T08:46:51Z</time>
      </trkpt>
      <trkpt lat="39.4319970" lon="-3.8101100">
        <ele>774.4</ele>
        <time>2019-08-12T08:46:52Z</time>
      </trkpt>
      <trkpt lat="39.4320530" lon="-3.8101180">
        <ele>774.4</ele>
        <time>2019-08-12T08:46:53Z</time>
      </trkpt>
      <trkpt lat="39.4321080" lon="-3.8101270">
        <ele>774.5</ele>
        <time>2019-08-12T08:46:54Z</time>
      </trkpt>
      <trkpt lat="39.4321640" lon="-3.8101370">
        <ele>774.6</ele>
        <time>2019-08-12T08:46:55Z</time>
      </trkpt>
      <trkpt lat="39.4322190" lon="-3.8101470">
        <ele>774.6</ele>
        <time>2019-08-12T08:46:56Z</time>
      </trkpt>
      <trkpt lat="39.4322740" lon="-3.8101580">
        <ele>774.7</ele>
        <time>2019-08-12T08:46:57Z</time>
      </trkpt>
      <trkpt lat="39.4323290" lon="-3.8101690">
        <ele>774.7</ele>
        <time>2019-08-12T08:46:58Z</time>
      </trkpt>
      <trkpt lat="39.4323840" lon="-3.8101820">
        <ele>774.9</ele>
        <time>2019-08-12T08:46:59Z</time>
      </trkpt>
      <trkpt lat="39.4324380" lon="-3.8101950">
        <ele>775.0</ele>
        <time>2019-08-12T08:47:00Z</time>
      </trkpt>
      <trkpt lat="39.4324930" lon="-3.8102080">
        <ele>775.1</ele>
        <time>2019-08-12T08:47:01Z</time>
      </trkpt>
      <trkpt lat="39.4325470" lon="-3.8102220">
        <ele>775.3</ele>
        <time>2019-08-12T08:47:02Z</time>
      </trkpt>
      <trkpt lat="39.4326020" lon="-3.8102350">
        <ele>775.5</ele>
        <time>2019-08-12T08:47:03Z</time>
      </trkpt>
      <trkpt lat="39.4326560" lon="-3.8102480">
        <ele>775.6</ele>
        <time>2019-08-12T08:47:04Z</time>
      </trkpt>
      <trkpt lat="39.4327110" lon="-3.8102600">
        <ele>775.8</ele>
        <time>2019-08-12T08:47:05Z</time>
      </trkpt>
      <trkpt lat="39.4327660" lon="-3.8102710">
        <ele>775.9</ele>
        <time>2019-08-12T08:47:06Z</time>
      </trkpt>
      <trkpt lat="39.4328220" lon="-3.8102810">
        <ele>775.9</ele>
        <time>2019-08-12T08:47:07Z</time>
      </trkpt>
      <trkpt lat="39.4328780" lon="-3.8102900">
        <ele>775.9</ele>
        <time>2019-08-12T08:47:08Z</time>
      </trkpt>
      <trkpt lat="39.4329350" lon="-3.8102980">
        <ele>776.0</ele>
        <time>2019-08-12T08:47:09Z</time>
      </trkpt>
      <trkpt lat="39.4330300" lon="-3.8103080">
        <ele>776.1</ele>
        <time>2019-08-12T08:47:10Z</time>
      </trkpt>
      <trkpt lat="39.4330690" lon="-3.8103110">
        <ele>776.2</ele>
        <time>2019-08-12T08:47:11Z</time>
      </trkpt>
      <trkpt lat="39.4331070" lon="-3.8103150">
        <ele>776.3</ele>
        <time>2019-08-12T08:47:12Z</time>
      </trkpt>
      <trkpt lat="39.4331650" lon="-3.8103190">
        <ele>776.3</ele>
        <time>2019-08-12T08:47:13Z</time>
      </trkpt>
      <trkpt lat="39.4332230" lon="-3.8103240">
        <ele>776.3</ele>
        <time>2019-08-12T08:47:14Z</time>
      </trkpt>
      <trkpt lat="39.4333190" lon="-3.8103310">
        <ele>776.3</ele>
        <time>2019-08-12T08:47:15Z</time>
      </trkpt>
      <trkpt lat="39.4333570" lon="-3.8103350">
        <ele>776.3</ele>
        <time>2019-08-12T08:47:16Z</time>
      </trkpt>
      <trkpt lat="39.4333950" lon="-3.8103380">
        <ele>776.3</ele>
        <time>2019-08-12T08:47:17Z</time>
      </trkpt>
      <trkpt lat="39.4334530" lon="-3.8103430">
        <ele>776.3</ele>
        <time>2019-08-12T08:47:18Z</time>
      </trkpt>
      <trkpt lat="39.4335090" lon="-3.8103490">
        <ele>776.3</ele>
        <time>2019-08-12T08:47:19Z</time>
      </trkpt>
      <trkpt lat="39.4335660" lon="-3.8103540">
        <ele>776.3</ele>
        <time>2019-08-12T08:47:20Z</time>
      </trkpt>
      <trkpt lat="39.4336230" lon="-3.8103600">
        <ele>776.4</ele>
        <time>2019-08-12T08:47:21Z</time>
      </trkpt>
      <trkpt lat="39.4336790" lon="-3.8103660">
        <ele>776.4</ele>
        <time>2019-08-12T08:47:22Z</time>
      </trkpt>
      <trkpt lat="39.4337350" lon="-3.8103720">
        <ele>776.4</ele>
        <time>2019-08-12T08:47:23Z</time>
      </trkpt>
      <trkpt lat="39.4337910" lon="-3.8103780">
        <ele>776.4</ele>
        <time>2019-08-12T08:47:24Z</time>
      </trkpt>
      <trkpt lat="39.4338470" lon="-3.8103830">
        <ele>776.5</ele>
        <time>2019-08-12T08:47:25Z</time>
      </trkpt>
      <trkpt lat="39.4339020" lon="-3.8103890">
        <ele>776.5</ele>
        <time>2019-08-12T08:47:26Z</time>
      </trkpt>
      <trkpt lat="39.4339580" lon="-3.8103940">
        <ele>776.5</ele>
        <time>2019-08-12T08:47:27Z</time>
      </trkpt>
      <trkpt lat="39.4340130" lon="-3.8103990">
        <ele>776.5</ele>
        <time>2019-08-12T08:47:28Z</time>
      </trkpt>
      <trkpt lat="39.4340690" lon="-3.8104030">
        <ele>776.5</ele>
        <time>2019-08-12T08:47:29Z</time>
      </trkpt>
      <trkpt lat="39.4341250" lon="-3.8104080">
        <ele>776.5</ele>
        <time>2019-08-12T08:47:30Z</time>
      </trkpt>
      <trkpt lat="39.4341830" lon="-3.8104120">
        <ele>776.5</ele>
        <time>2019-08-12T08:47:31Z</time>
      </trkpt>
      <trkpt lat="39.4342410" lon="-3.8104160">
        <ele>776.4</ele>
        <time>2019-08-12T08:47:32Z</time>
      </trkpt>
      <trkpt lat="39.4343000" lon="-3.8104200">
        <ele>776.4</ele>
        <time>2019-08-12T08:47:33Z</time>
      </trkpt>
      <trkpt lat="39.4343600" lon="-3.8104240">
        <ele>776.4</ele>
        <time>2019-08-12T08:47:34Z</time>
      </trkpt>
      <trkpt lat="39.4344200" lon="-3.8104290">
        <ele>776.4</ele>
        <time>2019-08-12T08:47:35Z</time>
      </trkpt>
      <trkpt lat="39.4344810" lon="-3.8104330">
        <ele>776.4</ele>
        <time>2019-08-12T08:47:36Z</time>
      </trkpt>
      <trkpt lat="39.4345410" lon="-3.8104370">
        <ele>776.4</ele>
        <time>2019-08-12T08:47:37Z</time>
      </trkpt>
      <trkpt lat="39.4346020" lon="-3.8104420">
        <ele>776.5</ele>
        <time>2019-08-12T08:47:38Z</time>
      </trkpt>
      <trkpt lat="39.4346640" lon="-3.8104460">
        <ele>776.5</ele>
        <time>2019-08-12T08:47:39Z</time>
      </trkpt>
      <trkpt lat="39.4347250" lon="-3.8104510">
        <ele>776.5</ele>
        <time>2019-08-12T08:47:40Z</time>
      </trkpt>
      <trkpt lat="39.4347860" lon="-3.8104550">
        <ele>776.4</ele>
        <time>2019-08-12T08:47:41Z</time>
      </trkpt>
      <trkpt lat="39.4348480" lon="-3.8104590">
        <ele>776.4</ele>
        <time>2019-08-12T08:47:42Z</time>
      </trkpt>
      <trkpt lat="39.4349090" lon="-3.8104640">
        <ele>776.4</ele>
        <time>2019-08-12T08:47:43Z</time>
      </trkpt>
      <trkpt lat="39.4349700" lon="-3.8104680">
        <ele>776.4</ele>
        <time>2019-08-12T08:47:44Z</time>
      </trkpt>
      <trkpt lat="39.4350310" lon="-3.8104730">
        <ele>776.3</ele>
        <time>2019-08-12T08:47:45Z</time>
      </trkpt>
      <trkpt lat="39.4350920" lon="-3.8104770">
        <ele>776.3</ele>
        <time>2019-08-12T08:47:46Z</time>
      </trkpt>
      <trkpt lat="39.4351530" lon="-3.8104810">
        <ele>776.3</ele>
        <time>2019-08-12T08:47:47Z</time>
      </trkpt>
      <trkpt lat="39.4352140" lon="-3.8104850">
        <ele>776.3</ele>
        <time>2019-08-12T08:47:48Z</time>
      </trkpt>
      <trkpt lat="39.4352740" lon="-3.8104890">
        <ele>776.4</ele>
        <time>2019-08-12T08:47:49Z</time>
      </trkpt>
      <trkpt lat="39.4353350" lon="-3.8104930">
        <ele>776.4</ele>
        <time>2019-08-12T08:47:50Z</time>
      </trkpt>
      <trkpt lat="39.4353950" lon="-3.8104970">
        <ele>776.4</ele>
        <time>2019-08-12T08:47:51Z</time>
      </trkpt>
      <trkpt lat="39.4354560" lon="-3.8105010">
        <ele>776.4</ele>
        <time>2019-08-12T08:47:52Z</time>
      </trkpt>
      <trkpt lat="39.4355160" lon="-3.8105050">
        <ele>776.5</ele>
        <time>2019-08-12T08:47:53Z</time>
      </trkpt>
      <trkpt lat="39.4355770" lon="-3.8105090">
        <ele>776.5</ele>
        <time>2019-08-12T08:47:54Z</time>
      </trkpt>
      <trkpt lat="39.4356370" lon="-3.8105130">
        <ele>776.5</ele>
        <time>2019-08-12T08:47:55Z</time>
      </trkpt>
      <trkpt lat="39.4356970" lon="-3.8105170">
        <ele>776.5</ele>
        <time>2019-08-12T08:47:56Z</time>
      </trkpt>
      <trkpt lat="39.4357580" lon="-3.8105210">
        <ele>776.6</ele>
        <time>2019-08-12T08:47:57Z</time>
      </trkpt>
      <trkpt lat="39.4358180" lon="-3.8105250">
        <ele>776.6</ele>
        <time>2019-08-12T08:47:58Z</time>
      </trkpt>
      <trkpt lat="39.4358790" lon="-3.8105290">
        <ele>776.6</ele>
        <time>2019-08-12T08:47:59Z</time>
      </trkpt>
      <trkpt lat="39.4359390" lon="-3.8105330">
        <ele>776.7</ele>
        <time>2019-08-12T08:48:00Z</time>
      </trkpt>
      <trkpt lat="39.4359990" lon="-3.8105370">
        <ele>776.7</ele>
        <time>2019-08-12T08:48:01Z</time>
      </trkpt>
      <trkpt lat="39.4360590" lon="-3.8105420">
        <ele>776.7</ele>
        <time>2019-08-12T08:48:02Z</time>
      </trkpt>
      <trkpt lat="39.4361200" lon="-3.8105470">
        <ele>776.8</ele>
        <time>2019-08-12T08:48:03Z</time>
      </trkpt>
      <trkpt lat="39.4361800" lon="-3.8105520">
        <ele>776.8</ele>
        <time>2019-08-12T08:48:04Z</time>
      </trkpt>
      <trkpt lat="39.4362400" lon="-3.8105570">
        <ele>776.8</ele>
        <time>2019-08-12T08:48:05Z</time>
      </trkpt>
      <trkpt lat="39.4363010" lon="-3.8105620">
        <ele>776.9</ele>
        <time>2019-08-12T08:48:06Z</time>
      </trkpt>
      <trkpt lat="39.4363610" lon="-3.8105680">
        <ele>776.9</ele>
        <time>2019-08-12T08:48:07Z</time>
      </trkpt>
      <trkpt lat="39.4364220" lon="-3.8105730">
        <ele>776.9</ele>
        <time>2019-08-12T08:48:08Z</time>
      </trkpt>
      <trkpt lat="39.4364820" lon="-3.8105790">
        <ele>776.9</ele>
        <time>2019-08-12T08:48:09Z</time>
      </trkpt>
      <trkpt lat="39.4365430" lon="-3.8105840">
        <ele>776.9</ele>
        <time>2019-08-12T08:48:10Z</time>
      </trkpt>
      <trkpt lat="39.4366050" lon="-3.8105900">
        <ele>776.9</ele>
        <time>2019-08-12T08:48:11Z</time>
      </trkpt>
      <trkpt lat="39.4366660" lon="-3.8105950">
        <ele>776.9</ele>
        <time>2019-08-12T08:48:12Z</time>
      </trkpt>
      <trkpt lat="39.4367280" lon="-3.8106010">
        <ele>776.9</ele>
        <time>2019-08-12T08:48:13Z</time>
      </trkpt>
      <trkpt lat="39.4367900" lon="-3.8106060">
        <ele>776.9</ele>
        <time>2019-08-12T08:48:14Z</time>
      </trkpt>
      <trkpt lat="39.4368530" lon="-3.8106120">
        <ele>776.9</ele>
        <time>2019-08-12T08:48:15Z</time>
      </trkpt>
      <trkpt lat="39.4369150" lon="-3.8106170">
        <ele>776.9</ele>
        <time>2019-08-12T08:48:16Z</time>
      </trkpt>
      <trkpt lat="39.4369780" lon="-3.8106220">
        <ele>776.9</ele>
        <time>2019-08-12T08:48:17Z</time>
      </trkpt>
      <trkpt lat="39.4370410" lon="-3.8106270">
        <ele>776.9</ele>
        <time>2019-08-12T08:48:18Z</time>
      </trkpt>
      <trkpt lat="39.4371030" lon="-3.8106320">
        <ele>776.9</ele>
        <time>2019-08-12T08:48:19Z</time>
      </trkpt>
      <trkpt lat="39.4371660" lon="-3.8106370">
        <ele>776.9</ele>
        <time>2019-08-12T08:48:20Z</time>
      </trkpt>
      <trkpt lat="39.4372280" lon="-3.8106430">
        <ele>776.9</ele>
        <time>2019-08-12T08:48:21Z</time>
      </trkpt>
      <trkpt lat="39.4372900" lon="-3.8106480">
        <ele>776.9</ele>
        <time>2019-08-12T08:48:22Z</time>
      </trkpt>
      <trkpt lat="39.4373520" lon="-3.8106530">
        <ele>776.9</ele>
        <time>2019-08-12T08:48:23Z</time>
      </trkpt>
      <trkpt lat="39.4374140" lon="-3.8106580">
        <ele>776.9</ele>
        <time>2019-08-12T08:48:24Z</time>
      </trkpt>
      <trkpt lat="39.4374750" lon="-3.8106630">
        <ele>776.9</ele>
        <time>2019-08-12T08:48:25Z</time>
      </trkpt>
      <trkpt lat="39.4375370" lon="-3.8106690">
        <ele>776.9</ele>
        <time>2019-08-12T08:48:26Z</time>
      </trkpt>
      <trkpt lat="39.4375980" lon="-3.8106740">
        <ele>776.9</ele>
        <time>2019-08-12T08:48:27Z</time>
      </trkpt>
      <trkpt lat="39.4376600" lon="-3.8106800">
        <ele>776.8</ele>
        <time>2019-08-12T08:48:28Z</time>
      </trkpt>
      <trkpt lat="39.4377220" lon="-3.8106850">
        <ele>776.8</ele>
        <time>2019-08-12T08:48:29Z</time>
      </trkpt>
      <trkpt lat="39.4377840" lon="-3.8106910">
        <ele>776.8</ele>
        <time>2019-08-12T08:48:30Z</time>
      </trkpt>
      <trkpt lat="39.4378470" lon="-3.8106960">
        <ele>776.7</ele>
        <time>2019-08-12T08:48:31Z</time>
      </trkpt>
      <trkpt lat="39.4379100" lon="-3.8107020">
        <ele>776.7</ele>
        <time>2019-08-12T08:48:32Z</time>
      </trkpt>
      <trkpt lat="39.4379730" lon="-3.8107080">
        <ele>776.7</ele>
        <time>2019-08-12T08:48:33Z</time>
      </trkpt>
      <trkpt lat="39.4380360" lon="-3.8107130">
        <ele>776.7</ele>
        <time>2019-08-12T08:48:34Z</time>
      </trkpt>
      <trkpt lat="39.4380990" lon="-3.8107190">
        <ele>776.7</ele>
        <time>2019-08-12T08:48:35Z</time>
      </trkpt>
      <trkpt lat="39.4381630" lon="-3.8107250">
        <ele>776.7</ele>
        <time>2019-08-12T08:48:36Z</time>
      </trkpt>
      <trkpt lat="39.4382250" lon="-3.8107310">
        <ele>776.7</ele>
        <time>2019-08-12T08:48:37Z</time>
      </trkpt>
      <trkpt lat="39.4382880" lon="-3.8107360">
        <ele>776.7</ele>
        <time>2019-08-12T08:48:38Z</time>
      </trkpt>
      <trkpt lat="39.4383500" lon="-3.8107420">
        <ele>776.7</ele>
        <time>2019-08-12T08:48:39Z</time>
      </trkpt>
      <trkpt lat="39.4384120" lon="-3.8107470">
        <ele>776.7</ele>
        <time>2019-08-12T08:48:40Z</time>
      </trkpt>
      <trkpt lat="39.4384740" lon="-3.8107530">
        <ele>776.7</ele>
        <time>2019-08-12T08:48:41Z</time>
      </trkpt>
      <trkpt lat="39.4385350" lon="-3.8107580">
        <ele>776.7</ele>
        <time>2019-08-12T08:48:42Z</time>
      </trkpt>
      <trkpt lat="39.4385950" lon="-3.8107630">
        <ele>776.7</ele>
        <time>2019-08-12T08:48:43Z</time>
      </trkpt>
      <trkpt lat="39.4386550" lon="-3.8107680">
        <ele>776.7</ele>
        <time>2019-08-12T08:48:44Z</time>
      </trkpt>
      <trkpt lat="39.4387150" lon="-3.8107730">
        <ele>776.7</ele>
        <time>2019-08-12T08:48:45Z</time>
      </trkpt>
      <trkpt lat="39.4387740" lon="-3.8107770">
        <ele>776.7</ele>
        <time>2019-08-12T08:48:46Z</time>
      </trkpt>
      <trkpt lat="39.4388330" lon="-3.8107820">
        <ele>776.7</ele>
        <time>2019-08-12T08:48:47Z</time>
      </trkpt>
      <trkpt lat="39.4388920" lon="-3.8107870">
        <ele>776.7</ele>
        <time>2019-08-12T08:48:48Z</time>
      </trkpt>
      <trkpt lat="39.4389500" lon="-3.8107910">
        <ele>776.7</ele>
        <time>2019-08-12T08:48:49Z</time>
      </trkpt>
      <trkpt lat="39.4390090" lon="-3.8107960">
        <ele>776.7</ele>
        <time>2019-08-12T08:48:50Z</time>
      </trkpt>
      <trkpt lat="39.4390670" lon="-3.8108000">
        <ele>776.8</ele>
        <time>2019-08-12T08:48:51Z</time>
      </trkpt>
      <trkpt lat="39.4391250" lon="-3.8108050">
        <ele>776.8</ele>
        <time>2019-08-12T08:48:52Z</time>
      </trkpt>
      <trkpt lat="39.4391830" lon="-3.8108090">
        <ele>776.8</ele>
        <time>2019-08-12T08:48:53Z</time>
      </trkpt>
      <trkpt lat="39.4392410" lon="-3.8108140">
        <ele>776.8</ele>
        <time>2019-08-12T08:48:54Z</time>
      </trkpt>
      <trkpt lat="39.4392980" lon="-3.8108180">
        <ele>776.8</ele>
        <time>2019-08-12T08:48:55Z</time>
      </trkpt>
      <trkpt lat="39.4393550" lon="-3.8108230">
        <ele>776.8</ele>
        <time>2019-08-12T08:48:56Z</time>
      </trkpt>
      <trkpt lat="39.4394120" lon="-3.8108270">
        <ele>776.8</ele>
        <time>2019-08-12T08:48:57Z</time>
      </trkpt>
      <trkpt lat="39.4394680" lon="-3.8108320">
        <ele>776.8</ele>
        <time>2019-08-12T08:48:58Z</time>
      </trkpt>
      <trkpt lat="39.4395240" lon="-3.8108360">
        <ele>776.8</ele>
        <time>2019-08-12T08:48:59Z</time>
      </trkpt>
      <trkpt lat="39.4395790" lon="-3.8108410">
        <ele>776.7</ele>
        <time>2019-08-12T08:49:00Z</time>
      </trkpt>
      <trkpt lat="39.4396340" lon="-3.8108450">
        <ele>776.7</ele>
        <time>2019-08-12T08:49:01Z</time>
      </trkpt>
      <trkpt lat="39.4396890" lon="-3.8108500">
        <ele>776.7</ele>
        <time>2019-08-12T08:49:02Z</time>
      </trkpt>
      <trkpt lat="39.4397440" lon="-3.8108550">
        <ele>776.6</ele>
        <time>2019-08-12T08:49:03Z</time>
      </trkpt>
      <trkpt lat="39.4397990" lon="-3.8108590">
        <ele>776.6</ele>
        <time>2019-08-12T08:49:04Z</time>
      </trkpt>
      <trkpt lat="39.4398550" lon="-3.8108640">
        <ele>776.6</ele>
        <time>2019-08-12T08:49:05Z</time>
      </trkpt>
      <trkpt lat="39.4399100" lon="-3.8108680">
        <ele>776.6</ele>
        <time>2019-08-12T08:49:06Z</time>
      </trkpt>
      <trkpt lat="39.4399660" lon="-3.8108730">
        <ele>776.6</ele>
        <time>2019-08-12T08:49:07Z</time>
      </trkpt>
      <trkpt lat="39.4400220" lon="-3.8108780">
        <ele>776.5</ele>
        <time>2019-08-12T08:49:08Z</time>
      </trkpt>
      <trkpt lat="39.4400790" lon="-3.8108820">
        <ele>776.5</ele>
        <time>2019-08-12T08:49:09Z</time>
      </trkpt>
      <trkpt lat="39.4401360" lon="-3.8108870">
        <ele>776.5</ele>
        <time>2019-08-12T08:49:10Z</time>
      </trkpt>
      <trkpt lat="39.4401940" lon="-3.8108910">
        <ele>776.5</ele>
        <time>2019-08-12T08:49:11Z</time>
      </trkpt>
      <trkpt lat="39.4402520" lon="-3.8108960">
        <ele>776.5</ele>
        <time>2019-08-12T08:49:12Z</time>
      </trkpt>
      <trkpt lat="39.4403100" lon="-3.8109000">
        <ele>776.4</ele>
        <time>2019-08-12T08:49:13Z</time>
      </trkpt>
      <trkpt lat="39.4403690" lon="-3.8109050">
        <ele>776.4</ele>
        <time>2019-08-12T08:49:14Z</time>
      </trkpt>
      <trkpt lat="39.4404270" lon="-3.8109090">
        <ele>776.4</ele>
        <time>2019-08-12T08:49:15Z</time>
      </trkpt>
      <trkpt lat="39.4404860" lon="-3.8109140">
        <ele>776.4</ele>
        <time>2019-08-12T08:49:16Z</time>
      </trkpt>
      <trkpt lat="39.4405460" lon="-3.8109180">
        <ele>776.3</ele>
        <time>2019-08-12T08:49:17Z</time>
      </trkpt>
      <trkpt lat="39.4406050" lon="-3.8109230">
        <ele>776.3</ele>
        <time>2019-08-12T08:49:18Z</time>
      </trkpt>
      <trkpt lat="39.4406640" lon="-3.8109270">
        <ele>776.3</ele>
        <time>2019-08-12T08:49:19Z</time>
      </trkpt>
      <trkpt lat="39.4407240" lon="-3.8109310">
        <ele>776.3</ele>
        <time>2019-08-12T08:49:20Z</time>
      </trkpt>
      <trkpt lat="39.4407840" lon="-3.8109360">
        <ele>776.3</ele>
        <time>2019-08-12T08:49:21Z</time>
      </trkpt>
      <trkpt lat="39.4408430" lon="-3.8109400">
        <ele>776.3</ele>
        <time>2019-08-12T08:49:22Z</time>
      </trkpt>
      <trkpt lat="39.4409030" lon="-3.8109440">
        <ele>776.3</ele>
        <time>2019-08-12T08:49:23Z</time>
      </trkpt>
      <trkpt lat="39.4409630" lon="-3.8109490">
        <ele>776.3</ele>
        <time>2019-08-12T08:49:24Z</time>
      </trkpt>
      <trkpt lat="39.4410230" lon="-3.8109530">
        <ele>776.3</ele>
        <time>2019-08-12T08:49:25Z</time>
      </trkpt>
      <trkpt lat="39.4410820" lon="-3.8109570">
        <ele>776.3</ele>
        <time>2019-08-12T08:49:26Z</time>
      </trkpt>
      <trkpt lat="39.4411420" lon="-3.8109610">
        <ele>776.3</ele>
        <time>2019-08-12T08:49:27Z</time>
      </trkpt>
      <trkpt lat="39.4412010" lon="-3.8109660">
        <ele>776.3</ele>
        <time>2019-08-12T08:49:28Z</time>
      </trkpt>
      <trkpt lat="39.4412610" lon="-3.8109700">
        <ele>776.3</ele>
        <time>2019-08-12T08:49:29Z</time>
      </trkpt>
      <trkpt lat="39.4413210" lon="-3.8109740">
        <ele>776.3</ele>
        <time>2019-08-12T08:49:30Z</time>
      </trkpt>
      <trkpt lat="39.4413800" lon="-3.8109780">
        <ele>776.3</ele>
        <time>2019-08-12T08:49:31Z</time>
      </trkpt>
      <trkpt lat="39.4414400" lon="-3.8109830">
        <ele>776.3</ele>
        <time>2019-08-12T08:49:32Z</time>
      </trkpt>
      <trkpt lat="39.4415000" lon="-3.8109870">
        <ele>776.2</ele>
        <time>2019-08-12T08:49:33Z</time>
      </trkpt>
      <trkpt lat="39.4415600" lon="-3.8109920">
        <ele>776.2</ele>
        <time>2019-08-12T08:49:34Z</time>
      </trkpt>
      <trkpt lat="39.4416200" lon="-3.8109960">
        <ele>776.2</ele>
        <time>2019-08-12T08:49:35Z</time>
      </trkpt>
      <trkpt lat="39.4416800" lon="-3.8110010">
        <ele>776.2</ele>
        <time>2019-08-12T08:49:36Z</time>
      </trkpt>
      <trkpt lat="39.4417400" lon="-3.8110050">
        <ele>776.2</ele>
        <time>2019-08-12T08:49:37Z</time>
      </trkpt>
      <trkpt lat="39.4418010" lon="-3.8110100">
        <ele>776.2</ele>
        <time>2019-08-12T08:49:38Z</time>
      </trkpt>
      <trkpt lat="39.4418610" lon="-3.8110150">
        <ele>776.2</ele>
        <time>2019-08-12T08:49:39Z</time>
      </trkpt>
      <trkpt lat="39.4419210" lon="-3.8110200">
        <ele>776.2</ele>
        <time>2019-08-12T08:49:40Z</time>
      </trkpt>
      <trkpt lat="39.4419820" lon="-3.8110250">
        <ele>776.3</ele>
        <time>2019-08-12T08:49:41Z</time>
      </trkpt>
      <trkpt lat="39.4420420" lon="-3.8110300">
        <ele>776.3</ele>
        <time>2019-08-12T08:49:42Z</time>
      </trkpt>
      <trkpt lat="39.4421020" lon="-3.8110350">
        <ele>776.3</ele>
        <time>2019-08-12T08:49:43Z</time>
      </trkpt>
      <trkpt lat="39.4421620" lon="-3.8110400">
        <ele>776.3</ele>
        <time>2019-08-12T08:49:44Z</time>
      </trkpt>
      <trkpt lat="39.4422220" lon="-3.8110460">
        <ele>776.3</ele>
        <time>2019-08-12T08:49:45Z</time>
      </trkpt>
      <trkpt lat="39.4422810" lon="-3.8110510">
        <ele>776.3</ele>
        <time>2019-08-12T08:49:46Z</time>
      </trkpt>
      <trkpt lat="39.4423400" lon="-3.8110560">
        <ele>776.2</ele>
        <time>2019-08-12T08:49:47Z</time>
      </trkpt>
      <trkpt lat="39.4423990" lon="-3.8110610">
        <ele>776.2</ele>
        <time>2019-08-12T08:49:48Z</time>
      </trkpt>
      <trkpt lat="39.4424580" lon="-3.8110660">
        <ele>776.1</ele>
        <time>2019-08-12T08:49:49Z</time>
      </trkpt>
      <trkpt lat="39.4425160" lon="-3.8110710">
        <ele>776.1</ele>
        <time>2019-08-12T08:49:50Z</time>
      </trkpt>
      <trkpt lat="39.4425750" lon="-3.8110760">
        <ele>776.1</ele>
        <time>2019-08-12T08:49:51Z</time>
      </trkpt>
      <trkpt lat="39.4426330" lon="-3.8110810">
        <ele>776.0</ele>
        <time>2019-08-12T08:49:52Z</time>
      </trkpt>
      <trkpt lat="39.4426910" lon="-3.8110860">
        <ele>776.0</ele>
        <time>2019-08-12T08:49:53Z</time>
      </trkpt>
      <trkpt lat="39.4427490" lon="-3.8110910">
        <ele>775.9</ele>
        <time>2019-08-12T08:49:54Z</time>
      </trkpt>
      <trkpt lat="39.4428080" lon="-3.8110960">
        <ele>775.8</ele>
        <time>2019-08-12T08:49:55Z</time>
      </trkpt>
      <trkpt lat="39.4428660" lon="-3.8111010">
        <ele>775.8</ele>
        <time>2019-08-12T08:49:56Z</time>
      </trkpt>
      <trkpt lat="39.4429250" lon="-3.8111060">
        <ele>775.7</ele>
        <time>2019-08-12T08:49:57Z</time>
      </trkpt>
      <trkpt lat="39.4429830" lon="-3.8111110">
        <ele>775.6</ele>
        <time>2019-08-12T08:49:58Z</time>
      </trkpt>
      <trkpt lat="39.4430420" lon="-3.8111160">
        <ele>775.6</ele>
        <time>2019-08-12T08:49:59Z</time>
      </trkpt>
      <trkpt lat="39.4431010" lon="-3.8111210">
        <ele>775.5</ele>
        <time>2019-08-12T08:50:00Z</time>
      </trkpt>
      <trkpt lat="39.4431600" lon="-3.8111270">
        <ele>775.5</ele>
        <time>2019-08-12T08:50:01Z</time>
      </trkpt>
      <trkpt lat="39.4432190" lon="-3.8111320">
        <ele>775.5</ele>
        <time>2019-08-12T08:50:02Z</time>
      </trkpt>
      <trkpt lat="39.4432790" lon="-3.8111370">
        <ele>775.4</ele>
        <time>2019-08-12T08:50:03Z</time>
      </trkpt>
      <trkpt lat="39.4433390" lon="-3.8111430">
        <ele>775.4</ele>
        <time>2019-08-12T08:50:04Z</time>
      </trkpt>
      <trkpt lat="39.4433980" lon="-3.8111480">
        <ele>775.3</ele>
        <time>2019-08-12T08:50:05Z</time>
      </trkpt>
      <trkpt lat="39.4434580" lon="-3.8111540">
        <ele>775.3</ele>
        <time>2019-08-12T08:50:06Z</time>
      </trkpt>
      <trkpt lat="39.4435180" lon="-3.8111590">
        <ele>775.3</ele>
        <time>2019-08-12T08:50:07Z</time>
      </trkpt>
      <trkpt lat="39.4435780" lon="-3.8111650">
        <ele>775.2</ele>
        <time>2019-08-12T08:50:08Z</time>
      </trkpt>
      <trkpt lat="39.4436390" lon="-3.8111710">
        <ele>775.2</ele>
        <time>2019-08-12T08:50:09Z</time>
      </trkpt>
      <trkpt lat="39.4436990" lon="-3.8111760">
        <ele>775.2</ele>
        <time>2019-08-12T08:50:10Z</time>
      </trkpt>
      <trkpt lat="39.4437600" lon="-3.8111820">
        <ele>775.1</ele>
        <time>2019-08-12T08:50:11Z</time>
      </trkpt>
      <trkpt lat="39.4438200" lon="-3.8111880">
        <ele>775.1</ele>
        <time>2019-08-12T08:50:12Z</time>
      </trkpt>
      <trkpt lat="39.4438810" lon="-3.8111930">
        <ele>775.0</ele>
        <time>2019-08-12T08:50:13Z</time>
      </trkpt>
      <trkpt lat="39.4439410" lon="-3.8111990">
        <ele>775.0</ele>
        <time>2019-08-12T08:50:14Z</time>
      </trkpt>
      <trkpt lat="39.4440020" lon="-3.8112050">
        <ele>774.9</ele>
        <time>2019-08-12T08:50:15Z</time>
      </trkpt>
      <trkpt lat="39.4440630" lon="-3.8112100">
        <ele>774.9</ele>
        <time>2019-08-12T08:50:16Z</time>
      </trkpt>
      <trkpt lat="39.4441240" lon="-3.8112160">
        <ele>774.8</ele>
        <time>2019-08-12T08:50:17Z</time>
      </trkpt>
      <trkpt lat="39.4441850" lon="-3.8112220">
        <ele>774.7</ele>
        <time>2019-08-12T08:50:18Z</time>
      </trkpt>
      <trkpt lat="39.4442450" lon="-3.8112270">
        <ele>774.6</ele>
        <time>2019-08-12T08:50:19Z</time>
      </trkpt>
      <trkpt lat="39.4443060" lon="-3.8112330">
        <ele>774.5</ele>
        <time>2019-08-12T08:50:20Z</time>
      </trkpt>
      <trkpt lat="39.4443670" lon="-3.8112380">
        <ele>774.4</ele>
        <time>2019-08-12T08:50:21Z</time>
      </trkpt>
      <trkpt lat="39.4444280" lon="-3.8112440">
        <ele>774.3</ele>
        <time>2019-08-12T08:50:22Z</time>
      </trkpt>
      <trkpt lat="39.4444890" lon="-3.8112490">
        <ele>774.1</ele>
        <time>2019-08-12T08:50:23Z</time>
      </trkpt>
      <trkpt lat="39.4445490" lon="-3.8112550">
        <ele>774.0</ele>
        <time>2019-08-12T08:50:24Z</time>
      </trkpt>
      <trkpt lat="39.4446100" lon="-3.8112600">
        <ele>773.9</ele>
        <time>2019-08-12T08:50:25Z</time>
      </trkpt>
      <trkpt lat="39.4446710" lon="-3.8112660">
        <ele>773.8</ele>
        <time>2019-08-12T08:50:26Z</time>
      </trkpt>
      <trkpt lat="39.4447320" lon="-3.8112710">
        <ele>773.7</ele>
        <time>2019-08-12T08:50:27Z</time>
      </trkpt>
      <trkpt lat="39.4447940" lon="-3.8112770">
        <ele>773.6</ele>
        <time>2019-08-12T08:50:28Z</time>
      </trkpt>
      <trkpt lat="39.4448550" lon="-3.8112830">
        <ele>773.5</ele>
        <time>2019-08-12T08:50:29Z</time>
      </trkpt>
      <trkpt lat="39.4449160" lon="-3.8112880">
        <ele>773.5</ele>
        <time>2019-08-12T08:50:30Z</time>
      </trkpt>
      <trkpt lat="39.4449780" lon="-3.8112940">
        <ele>773.4</ele>
        <time>2019-08-12T08:50:31Z</time>
      </trkpt>
      <trkpt lat="39.4450400" lon="-3.8113000">
        <ele>773.3</ele>
        <time>2019-08-12T08:50:32Z</time>
      </trkpt>
      <trkpt lat="39.4451010" lon="-3.8113060">
        <ele>773.2</ele>
        <time>2019-08-12T08:50:33Z</time>
      </trkpt>
      <trkpt lat="39.4451630" lon="-3.8113140">
        <ele>773.2</ele>
        <time>2019-08-12T08:50:34Z</time>
      </trkpt>
      <trkpt lat="39.4452250" lon="-3.8113230">
        <ele>773.2</ele>
        <time>2019-08-12T08:50:35Z</time>
      </trkpt>
      <trkpt lat="39.4452860" lon="-3.8113330">
        <ele>773.2</ele>
        <time>2019-08-12T08:50:36Z</time>
      </trkpt>
      <trkpt lat="39.4453470" lon="-3.8113450">
        <ele>773.2</ele>
        <time>2019-08-12T08:50:37Z</time>
      </trkpt>
      <trkpt lat="39.4454080" lon="-3.8113590">
        <ele>773.2</ele>
        <time>2019-08-12T08:50:38Z</time>
      </trkpt>
      <trkpt lat="39.4454680" lon="-3.8113750">
        <ele>773.2</ele>
        <time>2019-08-12T08:50:39Z</time>
      </trkpt>
      <trkpt lat="39.4455280" lon="-3.8113940">
        <ele>773.2</ele>
        <time>2019-08-12T08:50:40Z</time>
      </trkpt>
      <trkpt lat="39.4455880" lon="-3.8114150">
        <ele>773.2</ele>
        <time>2019-08-12T08:50:41Z</time>
      </trkpt>
      <trkpt lat="39.4456470" lon="-3.8114380">
        <ele>773.2</ele>
        <time>2019-08-12T08:50:42Z</time>
      </trkpt>
      <trkpt lat="39.4457060" lon="-3.8114620">
        <ele>773.2</ele>
        <time>2019-08-12T08:50:43Z</time>
      </trkpt>
      <trkpt lat="39.4457650" lon="-3.8114880">
        <ele>773.2</ele>
        <time>2019-08-12T08:50:44Z</time>
      </trkpt>
      <trkpt lat="39.4458240" lon="-3.8115150">
        <ele>773.2</ele>
        <time>2019-08-12T08:50:45Z</time>
      </trkpt>
      <trkpt lat="39.4458830" lon="-3.8115430">
        <ele>773.2</ele>
        <time>2019-08-12T08:50:46Z</time>
      </trkpt>
      <trkpt lat="39.4459420" lon="-3.8115710">
        <ele>773.2</ele>
        <time>2019-08-12T08:50:47Z</time>
      </trkpt>
      <trkpt lat="39.4460010" lon="-3.8115990">
        <ele>773.1</ele>
        <time>2019-08-12T08:50:48Z</time>
      </trkpt>
      <trkpt lat="39.4460600" lon="-3.8116260">
        <ele>773.0</ele>
        <time>2019-08-12T08:50:49Z</time>
      </trkpt>
      <trkpt lat="39.4461200" lon="-3.8116540">
        <ele>772.8</ele>
        <time>2019-08-12T08:50:50Z</time>
      </trkpt>
      <trkpt lat="39.4461810" lon="-3.8116810">
        <ele>772.7</ele>
        <time>2019-08-12T08:50:51Z</time>
      </trkpt>
      <trkpt lat="39.4462410" lon="-3.8117090">
        <ele>772.6</ele>
        <time>2019-08-12T08:50:52Z</time>
      </trkpt>
      <trkpt lat="39.4463020" lon="-3.8117360">
        <ele>772.5</ele>
        <time>2019-08-12T08:50:53Z</time>
      </trkpt>
      <trkpt lat="39.4463640" lon="-3.8117630">
        <ele>772.4</ele>
        <time>2019-08-12T08:50:54Z</time>
      </trkpt>
      <trkpt lat="39.4464250" lon="-3.8117900">
        <ele>772.3</ele>
        <time>2019-08-12T08:50:55Z</time>
      </trkpt>
      <trkpt lat="39.4464880" lon="-3.8118180">
        <ele>772.2</ele>
        <time>2019-08-12T08:50:56Z</time>
      </trkpt>
      <trkpt lat="39.4465500" lon="-3.8118450">
        <ele>772.1</ele>
        <time>2019-08-12T08:50:57Z</time>
      </trkpt>
      <trkpt lat="39.4466130" lon="-3.8118730">
        <ele>771.9</ele>
        <time>2019-08-12T08:50:58Z</time>
      </trkpt>
      <trkpt lat="39.4466770" lon="-3.8119010">
        <ele>771.7</ele>
        <time>2019-08-12T08:50:59Z</time>
      </trkpt>
      <trkpt lat="39.4467400" lon="-3.8119290">
        <ele>771.6</ele>
        <time>2019-08-12T08:51:00Z</time>
      </trkpt>
      <trkpt lat="39.4468050" lon="-3.8119570">
        <ele>771.4</ele>
        <time>2019-08-12T08:51:01Z</time>
      </trkpt>
      <trkpt lat="39.4468690" lon="-3.8119860">
        <ele>771.3</ele>
        <time>2019-08-12T08:51:02Z</time>
      </trkpt>
      <trkpt lat="39.4469340" lon="-3.8120140">
        <ele>771.3</ele>
        <time>2019-08-12T08:51:03Z</time>
      </trkpt>
      <trkpt lat="39.4469990" lon="-3.8120430">
        <ele>771.3</ele>
        <time>2019-08-12T08:51:04Z</time>
      </trkpt>
      <trkpt lat="39.4470640" lon="-3.8120720">
        <ele>771.3</ele>
        <time>2019-08-12T08:51:05Z</time>
      </trkpt>
      <trkpt lat="39.4471300" lon="-3.8121010">
        <ele>771.3</ele>
        <time>2019-08-12T08:51:06Z</time>
      </trkpt>
      <trkpt lat="39.4471960" lon="-3.8121310">
        <ele>771.2</ele>
        <time>2019-08-12T08:51:07Z</time>
      </trkpt>
      <trkpt lat="39.4472620" lon="-3.8121600">
        <ele>771.2</ele>
        <time>2019-08-12T08:51:08Z</time>
      </trkpt>
      <trkpt lat="39.4473280" lon="-3.8121900">
        <ele>771.0</ele>
        <time>2019-08-12T08:51:09Z</time>
      </trkpt>
      <trkpt lat="39.4473950" lon="-3.8122190">
        <ele>770.9</ele>
        <time>2019-08-12T08:51:10Z</time>
      </trkpt>
      <trkpt lat="39.4474610" lon="-3.8122490">
        <ele>770.7</ele>
        <time>2019-08-12T08:51:11Z</time>
      </trkpt>
      <trkpt lat="39.4475280" lon="-3.8122790">
        <ele>770.6</ele>
        <time>2019-08-12T08:51:12Z</time>
      </trkpt>
      <trkpt lat="39.4475950" lon="-3.8123080">
        <ele>770.5</ele>
        <time>2019-08-12T08:51:13Z</time>
      </trkpt>
      <trkpt lat="39.4476620" lon="-3.8123380">
        <ele>770.5</ele>
        <time>2019-08-12T08:51:14Z</time>
      </trkpt>
      <trkpt lat="39.4477290" lon="-3.8123670">
        <ele>770.4</ele>
        <time>2019-08-12T08:51:15Z</time>
      </trkpt>
      <trkpt lat="39.4477960" lon="-3.8123970">
        <ele>770.4</ele>
        <time>2019-08-12T08:51:16Z</time>
      </trkpt>
      <trkpt lat="39.4478640" lon="-3.8124260">
        <ele>770.4</ele>
        <time>2019-08-12T08:51:17Z</time>
      </trkpt>
      <trkpt lat="39.4479310" lon="-3.8124550">
        <ele>770.4</ele>
        <time>2019-08-12T08:51:18Z</time>
      </trkpt>
      <trkpt lat="39.4479970" lon="-3.8124840">
        <ele>770.4</ele>
        <time>2019-08-12T08:51:19Z</time>
      </trkpt>
      <trkpt lat="39.4480630" lon="-3.8125130">
        <ele>770.4</ele>
        <time>2019-08-12T08:51:20Z</time>
      </trkpt>
      <trkpt lat="39.4481270" lon="-3.8125410">
        <ele>770.4</ele>
        <time>2019-08-12T08:51:21Z</time>
      </trkpt>
      <trkpt lat="39.4481890" lon="-3.8125690">
        <ele>770.5</ele>
        <time>2019-08-12T08:51:22Z</time>
      </trkpt>
      <trkpt lat="39.4482500" lon="-3.8125960">
        <ele>770.5</ele>
        <time>2019-08-12T08:51:23Z</time>
      </trkpt>
      <trkpt lat="39.4483100" lon="-3.8126230">
        <ele>770.5</ele>
        <time>2019-08-12T08:51:24Z</time>
      </trkpt>
      <trkpt lat="39.4483700" lon="-3.8126500">
        <ele>770.5</ele>
        <time>2019-08-12T08:51:25Z</time>
      </trkpt>
      <trkpt lat="39.4484300" lon="-3.8126780">
        <ele>770.5</ele>
        <time>2019-08-12T08:51:26Z</time>
      </trkpt>
      <trkpt lat="39.4484900" lon="-3.8127050">
        <ele>770.5</ele>
        <time>2019-08-12T08:51:27Z</time>
      </trkpt>
      <trkpt lat="39.4485500" lon="-3.8127330">
        <ele>770.5</ele>
        <time>2019-08-12T08:51:28Z</time>
      </trkpt>
      <trkpt lat="39.4486100" lon="-3.8127600">
        <ele>770.5</ele>
        <time>2019-08-12T08:51:29Z</time>
      </trkpt>
      <trkpt lat="39.4486710" lon="-3.8127880">
        <ele>770.4</ele>
        <time>2019-08-12T08:51:30Z</time>
      </trkpt>
      <trkpt lat="39.4487310" lon="-3.8128150">
        <ele>770.4</ele>
        <time>2019-08-12T08:51:31Z</time>
      </trkpt>
      <trkpt lat="39.4487920" lon="-3.8128430">
        <ele>770.3</ele>
        <time>2019-08-12T08:51:32Z</time>
      </trkpt>
      <trkpt lat="39.4488530" lon="-3.8128700">
        <ele>770.2</ele>
        <time>2019-08-12T08:51:33Z</time>
      </trkpt>
      <trkpt lat="39.4489140" lon="-3.8128980">
        <ele>770.0</ele>
        <time>2019-08-12T08:51:34Z</time>
      </trkpt>
      <trkpt lat="39.4489750" lon="-3.8129250">
        <ele>769.8</ele>
        <time>2019-08-12T08:51:35Z</time>
      </trkpt>
      <trkpt lat="39.4490370" lon="-3.8129530">
        <ele>769.6</ele>
        <time>2019-08-12T08:51:36Z</time>
      </trkpt>
      <trkpt lat="39.4490980" lon="-3.8129800">
        <ele>769.5</ele>
        <time>2019-08-12T08:51:37Z</time>
      </trkpt>
      <trkpt lat="39.4491600" lon="-3.8130070">
        <ele>769.5</ele>
        <time>2019-08-12T08:51:38Z</time>
      </trkpt>
      <trkpt lat="39.4492220" lon="-3.8130350">
        <ele>769.4</ele>
        <time>2019-08-12T08:51:39Z</time>
      </trkpt>
      <trkpt lat="39.4492840" lon="-3.8130620">
        <ele>769.4</ele>
        <time>2019-08-12T08:51:40Z</time>
      </trkpt>
      <trkpt lat="39.4493460" lon="-3.8130890">
        <ele>769.4</ele>
        <time>2019-08-12T08:51:41Z</time>
      </trkpt>
      <trkpt lat="39.4494090" lon="-3.8131170">
        <ele>769.4</ele>
        <time>2019-08-12T08:51:42Z</time>
      </trkpt>
      <trkpt lat="39.4494720" lon="-3.8131450">
        <ele>769.4</ele>
        <time>2019-08-12T08:51:43Z</time>
      </trkpt>
      <trkpt lat="39.4495350" lon="-3.8131720">
        <ele>769.4</ele>
        <time>2019-08-12T08:51:44Z</time>
      </trkpt>
      <trkpt lat="39.4495980" lon="-3.8132000">
        <ele>769.4</ele>
        <time>2019-08-12T08:51:45Z</time>
      </trkpt>
      <trkpt lat="39.4496610" lon="-3.8132280">
        <ele>769.4</ele>
        <time>2019-08-12T08:51:46Z</time>
      </trkpt>
      <trkpt lat="39.4497250" lon="-3.8132560">
        <ele>769.4</ele>
        <time>2019-08-12T08:51:47Z</time>
      </trkpt>
      <trkpt lat="39.4497890" lon="-3.8132840">
        <ele>769.4</ele>
        <time>2019-08-12T08:51:48Z</time>
      </trkpt>
      <trkpt lat="39.4498530" lon="-3.8133130">
        <ele>769.4</ele>
        <time>2019-08-12T08:51:49Z</time>
      </trkpt>
      <trkpt lat="39.4499170" lon="-3.8133410">
        <ele>769.4</ele>
        <time>2019-08-12T08:51:50Z</time>
      </trkpt>
      <trkpt lat="39.4499820" lon="-3.8133700">
        <ele>769.4</ele>
        <time>2019-08-12T08:51:51Z</time>
      </trkpt>
      <trkpt lat="39.4500460" lon="-3.8133990">
        <ele>769.4</ele>
        <time>2019-08-12T08:51:52Z</time>
      </trkpt>
      <trkpt lat="39.4501110" lon="-3.8134280">
        <ele>769.4</ele>
        <time>2019-08-12T08:51:53Z</time>
      </trkpt>
      <trkpt lat="39.4501750" lon="-3.8134560">
        <ele>769.5</ele>
        <time>2019-08-12T08:51:54Z</time>
      </trkpt>
      <trkpt lat="39.4502400" lon="-3.8134850">
        <ele>769.5</ele>
        <time>2019-08-12T08:51:55Z</time>
      </trkpt>
      <trkpt lat="39.4503050" lon="-3.8135140">
        <ele>769.5</ele>
        <time>2019-08-12T08:51:56Z</time>
      </trkpt>
      <trkpt lat="39.4503690" lon="-3.8135420">
        <ele>769.5</ele>
        <time>2019-08-12T08:51:57Z</time>
      </trkpt>
      <trkpt lat="39.4504340" lon="-3.8135700">
        <ele>769.5</ele>
        <time>2019-08-12T08:51:58Z</time>
      </trkpt>
      <trkpt lat="39.4504980" lon="-3.8135970">
        <ele>769.5</ele>
        <time>2019-08-12T08:51:59Z</time>
      </trkpt>
      <trkpt lat="39.4505610" lon="-3.8136240">
        <ele>769.5</ele>
        <time>2019-08-12T08:52:00Z</time>
      </trkpt>
      <trkpt lat="39.4506250" lon="-3.8136510">
        <ele>769.5</ele>
        <time>2019-08-12T08:52:01Z</time>
      </trkpt>
      <trkpt lat="39.4506890" lon="-3.8136780">
        <ele>769.5</ele>
        <time>2019-08-12T08:52:02Z</time>
      </trkpt>
      <trkpt lat="39.4507530" lon="-3.8137050">
        <ele>769.5</ele>
        <time>2019-08-12T08:52:03Z</time>
      </trkpt>
      <trkpt lat="39.4508170" lon="-3.8137320">
        <ele>769.5</ele>
        <time>2019-08-12T08:52:04Z</time>
      </trkpt>
      <trkpt lat="39.4508810" lon="-3.8137600">
        <ele>769.5</ele>
        <time>2019-08-12T08:52:05Z</time>
      </trkpt>
      <trkpt lat="39.4509450" lon="-3.8137870">
        <ele>769.5</ele>
        <time>2019-08-12T08:52:06Z</time>
      </trkpt>
      <trkpt lat="39.4510080" lon="-3.8138140">
        <ele>769.4</ele>
        <time>2019-08-12T08:52:07Z</time>
      </trkpt>
      <trkpt lat="39.4510710" lon="-3.8138400">
        <ele>769.4</ele>
        <time>2019-08-12T08:52:08Z</time>
      </trkpt>
      <trkpt lat="39.4511330" lon="-3.8138670">
        <ele>769.3</ele>
        <time>2019-08-12T08:52:09Z</time>
      </trkpt>
      <trkpt lat="39.4511950" lon="-3.8138930">
        <ele>769.2</ele>
        <time>2019-08-12T08:52:10Z</time>
      </trkpt>
      <trkpt lat="39.4512570" lon="-3.8139200">
        <ele>769.1</ele>
        <time>2019-08-12T08:52:11Z</time>
      </trkpt>
      <trkpt lat="39.4513190" lon="-3.8139470">
        <ele>768.9</ele>
        <time>2019-08-12T08:52:12Z</time>
      </trkpt>
      <trkpt lat="39.4513810" lon="-3.8139740">
        <ele>768.8</ele>
        <time>2019-08-12T08:52:13Z</time>
      </trkpt>
      <trkpt lat="39.4514430" lon="-3.8140020">
        <ele>768.7</ele>
        <time>2019-08-12T08:52:14Z</time>
      </trkpt>
      <trkpt lat="39.4515040" lon="-3.8140290">
        <ele>768.7</ele>
        <time>2019-08-12T08:52:15Z</time>
      </trkpt>
      <trkpt lat="39.4515640" lon="-3.8140560">
        <ele>768.6</ele>
        <time>2019-08-12T08:52:16Z</time>
      </trkpt>
      <trkpt lat="39.4516240" lon="-3.8140830">
        <ele>768.6</ele>
        <time>2019-08-12T08:52:17Z</time>
      </trkpt>
      <trkpt lat="39.4516820" lon="-3.8141100">
        <ele>768.6</ele>
        <time>2019-08-12T08:52:18Z</time>
      </trkpt>
      <trkpt lat="39.4517400" lon="-3.8141360">
        <ele>768.6</ele>
        <time>2019-08-12T08:52:19Z</time>
      </trkpt>
      <trkpt lat="39.4517980" lon="-3.8141630">
        <ele>768.6</ele>
        <time>2019-08-12T08:52:20Z</time>
      </trkpt>
      <trkpt lat="39.4518550" lon="-3.8141910">
        <ele>768.6</ele>
        <time>2019-08-12T08:52:21Z</time>
      </trkpt>
      <trkpt lat="39.4519120" lon="-3.8142200">
        <ele>768.6</ele>
        <time>2019-08-12T08:52:22Z</time>
      </trkpt>
      <trkpt lat="39.4519690" lon="-3.8142490">
        <ele>768.6</ele>
        <time>2019-08-12T08:52:23Z</time>
      </trkpt>
      <trkpt lat="39.4520240" lon="-3.8142800">
        <ele>768.6</ele>
        <time>2019-08-12T08:52:24Z</time>
      </trkpt>
      <trkpt lat="39.4520780" lon="-3.8143120">
        <ele>768.6</ele>
        <time>2019-08-12T08:52:25Z</time>
      </trkpt>
      <trkpt lat="39.4521310" lon="-3.8143460">
        <ele>768.6</ele>
        <time>2019-08-12T08:52:26Z</time>
      </trkpt>
      <trkpt lat="39.4521810" lon="-3.8143810">
        <ele>768.6</ele>
        <time>2019-08-12T08:52:27Z</time>
      </trkpt>
      <trkpt lat="39.4522290" lon="-3.8144180">
        <ele>768.6</ele>
        <time>2019-08-12T08:52:28Z</time>
      </trkpt>
      <trkpt lat="39.4522760" lon="-3.8144540">
        <ele>768.6</ele>
        <time>2019-08-12T08:52:29Z</time>
      </trkpt>
      <trkpt lat="39.4523200" lon="-3.8144890">
        <ele>768.7</ele>
        <time>2019-08-12T08:52:30Z</time>
      </trkpt>
      <trkpt lat="39.4523620" lon="-3.8145230">
        <ele>768.7</ele>
        <time>2019-08-12T08:52:31Z</time>
      </trkpt>
      <trkpt lat="39.4524020" lon="-3.8145520">
        <ele>768.7</ele>
        <time>2019-08-12T08:52:32Z</time>
      </trkpt>
      <trkpt lat="39.4524410" lon="-3.8145730">
        <ele>768.7</ele>
        <time>2019-08-12T08:52:33Z</time>
      </trkpt>
      <trkpt lat="39.4524960" lon="-3.8145990">
        <ele>768.7</ele>
        <time>2019-08-12T09:10:34Z</time>
      </trkpt>
      <trkpt lat="39.4525140" lon="-3.8146110">
        <ele>768.7</ele>
        <time>2019-08-12T09:10:35Z</time>
      </trkpt>
      <trkpt lat="39.4525500" lon="-3.8146380">
        <ele>768.7</ele>
        <time>2019-08-12T09:10:36Z</time>
      </trkpt>
      <trkpt lat="39.4525840" lon="-3.8146670">
        <ele>768.7</ele>
        <time>2019-08-12T09:10:37Z</time>
      </trkpt>
      <trkpt lat="39.4526180" lon="-3.8146980">
        <ele>768.7</ele>
        <time>2019-08-12T09:10:38Z</time>
      </trkpt>
      <trkpt lat="39.4526520" lon="-3.8147310">
        <ele>768.7</ele>
        <time>2019-08-12T09:10:39Z</time>
      </trkpt>
      <trkpt lat="39.4526850" lon="-3.8147640">
        <ele>768.7</ele>
        <time>2019-08-12T09:10:40Z</time>
      </trkpt>
      <trkpt lat="39.4527180" lon="-3.8147980">
        <ele>768.7</ele>
        <time>2019-08-12T09:10:41Z</time>
      </trkpt>
      <trkpt lat="39.4527500" lon="-3.8148340">
        <ele>768.7</ele>
        <time>2019-08-12T09:10:42Z</time>
      </trkpt>
      <trkpt lat="39.4527830" lon="-3.8148700">
        <ele>768.7</ele>
        <time>2019-08-12T09:10:43Z</time>
      </trkpt>
      <trkpt lat="39.4528380" lon="-3.8149340">
        <ele>768.7</ele>
        <time>2019-08-12T09:10:44Z</time>
      </trkpt>
      <trkpt lat="39.4528600" lon="-3.8149590">
        <ele>768.7</ele>
        <time>2019-08-12T09:10:45Z</time>
      </trkpt>
      <trkpt lat="39.4528820" lon="-3.8149850">
        <ele>768.7</ele>
        <time>2019-08-12T09:10:46Z</time>
      </trkpt>
      <trkpt lat="39.4529160" lon="-3.8150260">
        <ele>768.7</ele>
        <time>2019-08-12T09:10:47Z</time>
      </trkpt>
      <trkpt lat="39.4529510" lon="-3.8150670">
        <ele>768.7</ele>
        <time>2019-08-12T09:10:48Z</time>
      </trkpt>
      <trkpt lat="39.4530100" lon="-3.8151380">
        <ele>768.7</ele>
        <time>2019-08-12T09:10:49Z</time>
      </trkpt>
      <trkpt lat="39.4530330" lon="-3.8151660">
        <ele>768.7</ele>
        <time>2019-08-12T09:10:50Z</time>
      </trkpt>
      <trkpt lat="39.4530570" lon="-3.8151950">
        <ele>768.7</ele>
        <time>2019-08-12T09:10:51Z</time>
      </trkpt>
      <trkpt lat="39.4530940" lon="-3.8152400">
        <ele>768.7</ele>
        <time>2019-08-12T09:10:52Z</time>
      </trkpt>
      <trkpt lat="39.4531320" lon="-3.8152850">
        <ele>768.7</ele>
        <time>2019-08-12T09:10:53Z</time>
      </trkpt>
      <trkpt lat="39.4531960" lon="-3.8153610">
        <ele>768.7</ele>
        <time>2019-08-12T09:10:54Z</time>
      </trkpt>
      <trkpt lat="39.4532220" lon="-3.8153910">
        <ele>768.7</ele>
        <time>2019-08-12T09:10:55Z</time>
      </trkpt>
      <trkpt lat="39.4532480" lon="-3.8154220">
        <ele>768.7</ele>
        <time>2019-08-12T09:10:56Z</time>
      </trkpt>
      <trkpt lat="39.4532880" lon="-3.8154690">
        <ele>768.7</ele>
        <time>2019-08-12T09:10:57Z</time>
      </trkpt>
      <trkpt lat="39.4533290" lon="-3.8155160">
        <ele>768.7</ele>
        <time>2019-08-12T09:10:58Z</time>
      </trkpt>
      <trkpt lat="39.4533980" lon="-3.8155940">
        <ele>768.8</ele>
        <time>2019-08-12T09:10:59Z</time>
      </trkpt>
      <trkpt lat="39.4534270" lon="-3.8156260">
        <ele>768.8</ele>
        <time>2019-08-12T09:11:00Z</time>
      </trkpt>
      <trkpt lat="39.4534550" lon="-3.8156570">
        <ele>768.8</ele>
        <time>2019-08-12T09:11:01Z</time>
      </trkpt>
      <trkpt lat="39.4534990" lon="-3.8157040">
        <ele>768.8</ele>
        <time>2019-08-12T09:11:02Z</time>
      </trkpt>
      <trkpt lat="39.4535430" lon="-3.8157510">
        <ele>768.9</ele>
        <time>2019-08-12T09:11:03Z</time>
      </trkpt>
      <trkpt lat="39.4536170" lon="-3.8158290">
        <ele>768.9</ele>
        <time>2019-08-12T09:11:04Z</time>
      </trkpt>
      <trkpt lat="39.4536480" lon="-3.8158600">
        <ele>769.0</ele>
        <time>2019-08-12T09:11:05Z</time>
      </trkpt>
      <trkpt lat="39.4536780" lon="-3.8158910">
        <ele>769.0</ele>
        <time>2019-08-12T09:11:06Z</time>
      </trkpt>
      <trkpt lat="39.4537240" lon="-3.8159370">
        <ele>769.1</ele>
        <time>2019-08-12T09:11:07Z</time>
      </trkpt>
      <trkpt lat="39.4537710" lon="-3.8159830">
        <ele>769.1</ele>
        <time>2019-08-12T09:11:08Z</time>
      </trkpt>
      <trkpt lat="39.4538180" lon="-3.8160290">
        <ele>769.2</ele>
        <time>2019-08-12T09:11:09Z</time>
      </trkpt>
      <trkpt lat="39.4538650" lon="-3.8160740">
        <ele>769.3</ele>
        <time>2019-08-12T09:11:10Z</time>
      </trkpt>
      <trkpt lat="39.4539130" lon="-3.8161190">
        <ele>769.4</ele>
        <time>2019-08-12T09:11:11Z</time>
      </trkpt>
      <trkpt lat="39.4539610" lon="-3.8161640">
        <ele>769.5</ele>
        <time>2019-08-12T09:11:12Z</time>
      </trkpt>
      <trkpt lat="39.4540100" lon="-3.8162090">
        <ele>769.5</ele>
        <time>2019-08-12T09:11:13Z</time>
      </trkpt>
      <trkpt lat="39.4540580" lon="-3.8162530">
        <ele>769.6</ele>
        <time>2019-08-12T09:11:14Z</time>
      </trkpt>
      <trkpt lat="39.4541060" lon="-3.8162970">
        <ele>769.7</ele>
        <time>2019-08-12T09:11:15Z</time>
      </trkpt>
      <trkpt lat="39.4541550" lon="-3.8163420">
        <ele>769.8</ele>
        <time>2019-08-12T09:11:16Z</time>
      </trkpt>
      <trkpt lat="39.4542030" lon="-3.8163860">
        <ele>769.8</ele>
        <time>2019-08-12T09:11:17Z</time>
      </trkpt>
      <trkpt lat="39.4542510" lon="-3.8164300">
        <ele>769.9</ele>
        <time>2019-08-12T09:11:18Z</time>
      </trkpt>
      <trkpt lat="39.4542980" lon="-3.8164740">
        <ele>769.9</ele>
        <time>2019-08-12T09:11:19Z</time>
      </trkpt>
      <trkpt lat="39.4543460" lon="-3.8165180">
        <ele>770.0</ele>
        <time>2019-08-12T09:11:20Z</time>
      </trkpt>
      <trkpt lat="39.4543930" lon="-3.8165620">
        <ele>770.0</ele>
        <time>2019-08-12T09:11:21Z</time>
      </trkpt>
      <trkpt lat="39.4544400" lon="-3.8166050">
        <ele>770.0</ele>
        <time>2019-08-12T09:11:22Z</time>
      </trkpt>
      <trkpt lat="39.4544860" lon="-3.8166490">
        <ele>770.1</ele>
        <time>2019-08-12T09:11:23Z</time>
      </trkpt>
      <trkpt lat="39.4545330" lon="-3.8166910">
        <ele>770.1</ele>
        <time>2019-08-12T09:11:24Z</time>
      </trkpt>
      <trkpt lat="39.4545780" lon="-3.8167340">
        <ele>770.1</ele>
        <time>2019-08-12T09:11:25Z</time>
      </trkpt>
      <trkpt lat="39.4546240" lon="-3.8167760">
        <ele>770.2</ele>
        <time>2019-08-12T09:11:26Z</time>
      </trkpt>
      <trkpt lat="39.4546680" lon="-3.8168180">
        <ele>770.2</ele>
        <time>2019-08-12T09:11:27Z</time>
      </trkpt>
      <trkpt lat="39.4547130" lon="-3.8168590">
        <ele>770.2</ele>
        <time>2019-08-12T09:11:28Z</time>
      </trkpt>
      <trkpt lat="39.4547570" lon="-3.8169000">
        <ele>770.2</ele>
        <time>2019-08-12T09:11:29Z</time>
      </trkpt>
      <trkpt lat="39.4548020" lon="-3.8169420">
        <ele>770.2</ele>
        <time>2019-08-12T09:11:30Z</time>
      </trkpt>
      <trkpt lat="39.4548460" lon="-3.8169830">
        <ele>770.2</ele>
        <time>2019-08-12T09:11:31Z</time>
      </trkpt>
      <trkpt lat="39.4548900" lon="-3.8170240">
        <ele>770.2</ele>
        <time>2019-08-12T09:11:32Z</time>
      </trkpt>
      <trkpt lat="39.4549350" lon="-3.8170650">
        <ele>770.2</ele>
        <time>2019-08-12T09:11:33Z</time>
      </trkpt>
      <trkpt lat="39.4549800" lon="-3.8171070">
        <ele>770.3</ele>
        <time>2019-08-12T09:11:34Z</time>
      </trkpt>
      <trkpt lat="39.4550250" lon="-3.8171490">
        <ele>770.3</ele>
        <time>2019-08-12T09:11:35Z</time>
      </trkpt>
      <trkpt lat="39.4550710" lon="-3.8171910">
        <ele>770.3</ele>
        <time>2019-08-12T09:11:36Z</time>
      </trkpt>
      <trkpt lat="39.4551160" lon="-3.8172340">
        <ele>770.3</ele>
        <time>2019-08-12T09:11:37Z</time>
      </trkpt>
      <trkpt lat="39.4551630" lon="-3.8172760">
        <ele>770.3</ele>
        <time>2019-08-12T09:11:38Z</time>
      </trkpt>
      <trkpt lat="39.4552090" lon="-3.8173180">
        <ele>770.3</ele>
        <time>2019-08-12T09:11:39Z</time>
      </trkpt>
      <trkpt lat="39.4552550" lon="-3.8173600">
        <ele>770.3</ele>
        <time>2019-08-12T09:11:40Z</time>
      </trkpt>
      <trkpt lat="39.4553010" lon="-3.8174010">
        <ele>770.3</ele>
        <time>2019-08-12T09:11:41Z</time>
      </trkpt>
      <trkpt lat="39.4553470" lon="-3.8174420">
        <ele>770.3</ele>
        <time>2019-08-12T09:11:42Z</time>
      </trkpt>
      <trkpt lat="39.4553930" lon="-3.8174820">
        <ele>770.3</ele>
        <time>2019-08-12T09:11:43Z</time>
      </trkpt>
      <trkpt lat="39.4554390" lon="-3.8175230">
        <ele>770.3</ele>
        <time>2019-08-12T09:11:44Z</time>
      </trkpt>
      <trkpt lat="39.4554850" lon="-3.8175640">
        <ele>770.3</ele>
        <time>2019-08-12T09:11:45Z</time>
      </trkpt>
      <trkpt lat="39.4555320" lon="-3.8176050">
        <ele>770.3</ele>
        <time>2019-08-12T09:11:46Z</time>
      </trkpt>
      <trkpt lat="39.4555780" lon="-3.8176470">
        <ele>770.3</ele>
        <time>2019-08-12T09:11:47Z</time>
      </trkpt>
      <trkpt lat="39.4556250" lon="-3.8176890">
        <ele>770.2</ele>
        <time>2019-08-12T09:11:48Z</time>
      </trkpt>
      <trkpt lat="39.4556720" lon="-3.8177310">
        <ele>770.2</ele>
        <time>2019-08-12T09:11:49Z</time>
      </trkpt>
      <trkpt lat="39.4557200" lon="-3.8177740">
        <ele>770.2</ele>
        <time>2019-08-12T09:11:50Z</time>
      </trkpt>
      <trkpt lat="39.4557670" lon="-3.8178170">
        <ele>770.2</ele>
        <time>2019-08-12T09:11:51Z</time>
      </trkpt>
      <trkpt lat="39.4558150" lon="-3.8178600">
        <ele>770.2</ele>
        <time>2019-08-12T09:11:52Z</time>
      </trkpt>
      <trkpt lat="39.4558620" lon="-3.8179040">
        <ele>770.2</ele>
        <time>2019-08-12T09:11:53Z</time>
      </trkpt>
      <trkpt lat="39.4559110" lon="-3.8179480">
        <ele>770.2</ele>
        <time>2019-08-12T09:11:54Z</time>
      </trkpt>
      <trkpt lat="39.4559590" lon="-3.8179920">
        <ele>770.1</ele>
        <time>2019-08-12T09:11:55Z</time>
      </trkpt>
      <trkpt lat="39.4560070" lon="-3.8180370">
        <ele>770.1</ele>
        <time>2019-08-12T09:11:56Z</time>
      </trkpt>
      <trkpt lat="39.4560560" lon="-3.8180820">
        <ele>770.1</ele>
        <time>2019-08-12T09:11:57Z</time>
      </trkpt>
      <trkpt lat="39.4561050" lon="-3.8181270">
        <ele>770.0</ele>
        <time>2019-08-12T09:11:58Z</time>
      </trkpt>
      <trkpt lat="39.4561550" lon="-3.8181720">
        <ele>770.0</ele>
        <time>2019-08-12T09:11:59Z</time>
      </trkpt>
      <trkpt lat="39.4562040" lon="-3.8182180">
        <ele>769.9</ele>
        <time>2019-08-12T09:12:00Z</time>
      </trkpt>
      <trkpt lat="39.4562540" lon="-3.8182640">
        <ele>769.9</ele>
        <time>2019-08-12T09:12:01Z</time>
      </trkpt>
      <trkpt lat="39.4563040" lon="-3.8183100">
        <ele>769.8</ele>
        <time>2019-08-12T09:12:02Z</time>
      </trkpt>
      <trkpt lat="39.4563540" lon="-3.8183570">
        <ele>769.8</ele>
        <time>2019-08-12T09:12:03Z</time>
      </trkpt>
      <trkpt lat="39.4564050" lon="-3.8184030">
        <ele>769.7</ele>
        <time>2019-08-12T09:12:04Z</time>
      </trkpt>
      <trkpt lat="39.4564560" lon="-3.8184500">
        <ele>769.7</ele>
        <time>2019-08-12T09:12:05Z</time>
      </trkpt>
      <trkpt lat="39.4565070" lon="-3.8184970">
        <ele>769.7</ele>
        <time>2019-08-12T09:12:06Z</time>
      </trkpt>
      <trkpt lat="39.4565580" lon="-3.8185450">
        <ele>769.7</ele>
        <time>2019-08-12T09:12:07Z</time>
      </trkpt>
      <trkpt lat="39.4566090" lon="-3.8185920">
        <ele>769.7</ele>
        <time>2019-08-12T09:12:08Z</time>
      </trkpt>
      <trkpt lat="39.4566610" lon="-3.8186400">
        <ele>769.7</ele>
        <time>2019-08-12T09:12:09Z</time>
      </trkpt>
      <trkpt lat="39.4567120" lon="-3.8186880">
        <ele>769.7</ele>
        <time>2019-08-12T09:12:10Z</time>
      </trkpt>
      <trkpt lat="39.4567640" lon="-3.8187350">
        <ele>769.6</ele>
        <time>2019-08-12T09:12:11Z</time>
      </trkpt>
      <trkpt lat="39.4568160" lon="-3.8187830">
        <ele>769.6</ele>
        <time>2019-08-12T09:12:12Z</time>
      </trkpt>
      <trkpt lat="39.4568670" lon="-3.8188310">
        <ele>769.5</ele>
        <time>2019-08-12T09:12:13Z</time>
      </trkpt>
      <trkpt lat="39.4569190" lon="-3.8188790">
        <ele>769.5</ele>
        <time>2019-08-12T09:12:14Z</time>
      </trkpt>
      <trkpt lat="39.4569710" lon="-3.8189280">
        <ele>769.4</ele>
        <time>2019-08-12T09:12:15Z</time>
      </trkpt>
      <trkpt lat="39.4570230" lon="-3.8189760">
        <ele>769.4</ele>
        <time>2019-08-12T09:12:16Z</time>
      </trkpt>
      <trkpt lat="39.4570750" lon="-3.8190240">
        <ele>769.3</ele>
        <time>2019-08-12T09:12:17Z</time>
      </trkpt>
      <trkpt lat="39.4571270" lon="-3.8190720">
        <ele>769.2</ele>
        <time>2019-08-12T09:12:18Z</time>
      </trkpt>
      <trkpt lat="39.4571800" lon="-3.8191200">
        <ele>769.1</ele>
        <time>2019-08-12T09:12:19Z</time>
      </trkpt>
      <trkpt lat="39.4572320" lon="-3.8191680">
        <ele>769.0</ele>
        <time>2019-08-12T09:12:20Z</time>
      </trkpt>
      <trkpt lat="39.4572850" lon="-3.8192160">
        <ele>768.9</ele>
        <time>2019-08-12T09:12:21Z</time>
      </trkpt>
      <trkpt lat="39.4573380" lon="-3.8192640">
        <ele>768.7</ele>
        <time>2019-08-12T09:12:22Z</time>
      </trkpt>
      <trkpt lat="39.4573920" lon="-3.8193120">
        <ele>768.6</ele>
        <time>2019-08-12T09:12:23Z</time>
      </trkpt>
      <trkpt lat="39.4574450" lon="-3.8193600">
        <ele>768.4</ele>
        <time>2019-08-12T09:12:24Z</time>
      </trkpt>
      <trkpt lat="39.4574980" lon="-3.8194080">
        <ele>768.2</ele>
        <time>2019-08-12T09:12:25Z</time>
      </trkpt>
      <trkpt lat="39.4575520" lon="-3.8194560">
        <ele>768.0</ele>
        <time>2019-08-12T09:12:26Z</time>
      </trkpt>
      <trkpt lat="39.4576050" lon="-3.8195050">
        <ele>767.9</ele>
        <time>2019-08-12T09:12:27Z</time>
      </trkpt>
      <trkpt lat="39.4576590" lon="-3.8195530">
        <ele>767.7</ele>
        <time>2019-08-12T09:12:28Z</time>
      </trkpt>
      <trkpt lat="39.4577120" lon="-3.8196020">
        <ele>767.5</ele>
        <time>2019-08-12T09:12:29Z</time>
      </trkpt>
      <trkpt lat="39.4577650" lon="-3.8196520">
        <ele>767.3</ele>
        <time>2019-08-12T09:12:30Z</time>
      </trkpt>
      <trkpt lat="39.4578180" lon="-3.8197010">
        <ele>767.2</ele>
        <time>2019-08-12T09:12:31Z</time>
      </trkpt>
      <trkpt lat="39.4578710" lon="-3.8197520">
        <ele>767.0</ele>
        <time>2019-08-12T09:12:32Z</time>
      </trkpt>
      <trkpt lat="39.4579240" lon="-3.8198020">
        <ele>766.9</ele>
        <time>2019-08-12T09:12:33Z</time>
      </trkpt>
      <trkpt lat="39.4579780" lon="-3.8198530">
        <ele>766.7</ele>
        <time>2019-08-12T09:12:34Z</time>
      </trkpt>
      <trkpt lat="39.4580320" lon="-3.8199040">
        <ele>766.5</ele>
        <time>2019-08-12T09:12:35Z</time>
      </trkpt>
      <trkpt lat="39.4580860" lon="-3.8199560">
        <ele>766.3</ele>
        <time>2019-08-12T09:12:36Z</time>
      </trkpt>
      <trkpt lat="39.4581410" lon="-3.8200080">
        <ele>766.2</ele>
        <time>2019-08-12T09:12:37Z</time>
      </trkpt>
      <trkpt lat="39.4581970" lon="-3.8200600">
        <ele>766.0</ele>
        <time>2019-08-12T09:12:38Z</time>
      </trkpt>
      <trkpt lat="39.4582540" lon="-3.8201130">
        <ele>765.8</ele>
        <time>2019-08-12T09:12:39Z</time>
      </trkpt>
      <trkpt lat="39.4583120" lon="-3.8201670">
        <ele>765.6</ele>
        <time>2019-08-12T09:12:40Z</time>
      </trkpt>
      <trkpt lat="39.4583710" lon="-3.8202200">
        <ele>765.4</ele>
        <time>2019-08-12T09:12:41Z</time>
      </trkpt>
      <trkpt lat="39.4584300" lon="-3.8202750">
        <ele>765.2</ele>
        <time>2019-08-12T09:12:42Z</time>
      </trkpt>
      <trkpt lat="39.4584900" lon="-3.8203290">
        <ele>765.0</ele>
        <time>2019-08-12T09:12:43Z</time>
      </trkpt>
      <trkpt lat="39.4585500" lon="-3.8203840">
        <ele>764.7</ele>
        <time>2019-08-12T09:12:44Z</time>
      </trkpt>
      <trkpt lat="39.4586110" lon="-3.8204400">
        <ele>764.4</ele>
        <time>2019-08-12T09:12:45Z</time>
      </trkpt>
      <trkpt lat="39.4586720" lon="-3.8204960">
        <ele>764.1</ele>
        <time>2019-08-12T09:12:46Z</time>
      </trkpt>
      <trkpt lat="39.4587330" lon="-3.8205530">
        <ele>763.8</ele>
        <time>2019-08-12T09:12:47Z</time>
      </trkpt>
      <trkpt lat="39.4587950" lon="-3.8206090">
        <ele>763.5</ele>
        <time>2019-08-12T09:12:48Z</time>
      </trkpt>
      <trkpt lat="39.4588560" lon="-3.8206670">
        <ele>763.2</ele>
        <time>2019-08-12T09:12:49Z</time>
      </trkpt>
      <trkpt lat="39.4589180" lon="-3.8207250">
        <ele>762.9</ele>
        <time>2019-08-12T09:12:50Z</time>
      </trkpt>
      <trkpt lat="39.4589800" lon="-3.8207830">
        <ele>762.6</ele>
        <time>2019-08-12T09:12:51Z</time>
      </trkpt>
      <trkpt lat="39.4590420" lon="-3.8208410">
        <ele>762.3</ele>
        <time>2019-08-12T09:12:52Z</time>
      </trkpt>
      <trkpt lat="39.4591040" lon="-3.8208990">
        <ele>762.0</ele>
        <time>2019-08-12T09:12:53Z</time>
      </trkpt>
      <trkpt lat="39.4591660" lon="-3.8209580">
        <ele>761.8</ele>
        <time>2019-08-12T09:12:54Z</time>
      </trkpt>
      <trkpt lat="39.4592280" lon="-3.8210160">
        <ele>761.5</ele>
        <time>2019-08-12T09:12:55Z</time>
      </trkpt>
      <trkpt lat="39.4592910" lon="-3.8210730">
        <ele>761.4</ele>
        <time>2019-08-12T09:12:56Z</time>
      </trkpt>
      <trkpt lat="39.4593540" lon="-3.8211310">
        <ele>761.2</ele>
        <time>2019-08-12T09:12:57Z</time>
      </trkpt>
      <trkpt lat="39.4594160" lon="-3.8211880">
        <ele>761.1</ele>
        <time>2019-08-12T09:12:58Z</time>
      </trkpt>
      <trkpt lat="39.4594800" lon="-3.8212450">
        <ele>761.0</ele>
        <time>2019-08-12T09:12:59Z</time>
      </trkpt>
      <trkpt lat="39.4595440" lon="-3.8213030">
        <ele>761.0</ele>
        <time>2019-08-12T09:13:00Z</time>
      </trkpt>
      <trkpt lat="39.4596090" lon="-3.8213620">
        <ele>760.9</ele>
        <time>2019-08-12T09:13:01Z</time>
      </trkpt>
      <trkpt lat="39.4596760" lon="-3.8214230">
        <ele>760.9</ele>
        <time>2019-08-12T09:13:02Z</time>
      </trkpt>
      <trkpt lat="39.4597450" lon="-3.8214870">
        <ele>760.8</ele>
        <time>2019-08-12T09:13:03Z</time>
      </trkpt>
      <trkpt lat="39.4598150" lon="-3.8215520">
        <ele>760.7</ele>
        <time>2019-08-12T09:13:04Z</time>
      </trkpt>
      <trkpt lat="39.4598850" lon="-3.8216180">
        <ele>760.6</ele>
        <time>2019-08-12T09:13:05Z</time>
      </trkpt>
      <trkpt lat="39.4599540" lon="-3.8216830">
        <ele>760.4</ele>
        <time>2019-08-12T09:13:06Z</time>
      </trkpt>
      <trkpt lat="39.4600230" lon="-3.8217460">
        <ele>760.3</ele>
        <time>2019-08-12T09:13:07Z</time>
      </trkpt>
      <trkpt lat="39.4600910" lon="-3.8218090">
        <ele>760.1</ele>
        <time>2019-08-12T09:13:08Z</time>
      </trkpt>
      <trkpt lat="39.4601580" lon="-3.8218690">
        <ele>759.9</ele>
        <time>2019-08-12T09:13:09Z</time>
      </trkpt>
      <trkpt lat="39.4602240" lon="-3.8219290">
        <ele>759.8</ele>
        <time>2019-08-12T09:13:10Z</time>
      </trkpt>
      <trkpt lat="39.4602900" lon="-3.8219870">
        <ele>759.8</ele>
        <time>2019-08-12T09:13:11Z</time>
      </trkpt>
      <trkpt lat="39.4603540" lon="-3.8220450">
        <ele>759.7</ele>
        <time>2019-08-12T09:13:12Z</time>
      </trkpt>
      <trkpt lat="39.4604180" lon="-3.8221020">
        <ele>759.7</ele>
        <time>2019-08-12T09:13:13Z</time>
      </trkpt>
      <trkpt lat="39.4604810" lon="-3.8221580">
        <ele>759.7</ele>
        <time>2019-08-12T09:13:14Z</time>
      </trkpt>
      <trkpt lat="39.4605430" lon="-3.8222140">
        <ele>759.7</ele>
        <time>2019-08-12T09:13:15Z</time>
      </trkpt>
      <trkpt lat="39.4606050" lon="-3.8222700">
        <ele>759.7</ele>
        <time>2019-08-12T09:13:16Z</time>
      </trkpt>
      <trkpt lat="39.4606660" lon="-3.8223250">
        <ele>759.7</ele>
        <time>2019-08-12T09:13:17Z</time>
      </trkpt>
      <trkpt lat="39.4607260" lon="-3.8223800">
        <ele>759.7</ele>
        <time>2019-08-12T09:13:18Z</time>
      </trkpt>
      <trkpt lat="39.4607860" lon="-3.8224350">
        <ele>759.8</ele>
        <time>2019-08-12T09:13:19Z</time>
      </trkpt>
      <trkpt lat="39.4608450" lon="-3.8224900">
        <ele>759.8</ele>
        <time>2019-08-12T09:13:20Z</time>
      </trkpt>
      <trkpt lat="39.4609040" lon="-3.8225440">
        <ele>759.8</ele>
        <time>2019-08-12T09:13:21Z</time>
      </trkpt>
      <trkpt lat="39.4609630" lon="-3.8225980">
        <ele>759.9</ele>
        <time>2019-08-12T09:13:22Z</time>
      </trkpt>
      <trkpt lat="39.4610210" lon="-3.8226530">
        <ele>759.9</ele>
        <time>2019-08-12T09:13:23Z</time>
      </trkpt>
      <trkpt lat="39.4610790" lon="-3.8227060">
        <ele>760.0</ele>
        <time>2019-08-12T09:13:24Z</time>
      </trkpt>
      <trkpt lat="39.4611360" lon="-3.8227600">
        <ele>760.0</ele>
        <time>2019-08-12T09:13:25Z</time>
      </trkpt>
      <trkpt lat="39.4611940" lon="-3.8228140">
        <ele>760.1</ele>
        <time>2019-08-12T09:13:26Z</time>
      </trkpt>
      <trkpt lat="39.4612510" lon="-3.8228670">
        <ele>760.1</ele>
        <time>2019-08-12T09:13:27Z</time>
      </trkpt>
      <trkpt lat="39.4613080" lon="-3.8229210">
        <ele>760.2</ele>
        <time>2019-08-12T09:13:28Z</time>
      </trkpt>
      <trkpt lat="39.4613650" lon="-3.8229740">
        <ele>760.3</ele>
        <time>2019-08-12T09:13:29Z</time>
      </trkpt>
      <trkpt lat="39.4614220" lon="-3.8230270">
        <ele>760.3</ele>
        <time>2019-08-12T09:13:30Z</time>
      </trkpt>
      <trkpt lat="39.4614790" lon="-3.8230810">
        <ele>760.4</ele>
        <time>2019-08-12T09:13:31Z</time>
      </trkpt>
      <trkpt lat="39.4615360" lon="-3.8231340">
        <ele>760.4</ele>
        <time>2019-08-12T09:13:32Z</time>
      </trkpt>
      <trkpt lat="39.4615930" lon="-3.8231870">
        <ele>760.4</ele>
        <time>2019-08-12T09:13:33Z</time>
      </trkpt>
      <trkpt lat="39.4616510" lon="-3.8232400">
        <ele>760.5</ele>
        <time>2019-08-12T09:13:34Z</time>
      </trkpt>
      <trkpt lat="39.4617080" lon="-3.8232930">
        <ele>760.5</ele>
        <time>2019-08-12T09:13:35Z</time>
      </trkpt>
      <trkpt lat="39.4617660" lon="-3.8233460">
        <ele>760.5</ele>
        <time>2019-08-12T09:13:36Z</time>
      </trkpt>
      <trkpt lat="39.4618240" lon="-3.8233990">
        <ele>760.5</ele>
        <time>2019-08-12T09:13:37Z</time>
      </trkpt>
      <trkpt lat="39.4618810" lon="-3.8234520">
        <ele>760.5</ele>
        <time>2019-08-12T09:13:38Z</time>
      </trkpt>
      <trkpt lat="39.4619390" lon="-3.8235060">
        <ele>760.4</ele>
        <time>2019-08-12T09:13:39Z</time>
      </trkpt>
      <trkpt lat="39.4619970" lon="-3.8235590">
        <ele>760.4</ele>
        <time>2019-08-12T09:13:40Z</time>
      </trkpt>
      <trkpt lat="39.4620550" lon="-3.8236120">
        <ele>760.3</ele>
        <time>2019-08-12T09:13:41Z</time>
      </trkpt>
      <trkpt lat="39.4621130" lon="-3.8236650">
        <ele>760.3</ele>
        <time>2019-08-12T09:13:42Z</time>
      </trkpt>
      <trkpt lat="39.4621700" lon="-3.8237180">
        <ele>760.2</ele>
        <time>2019-08-12T09:13:43Z</time>
      </trkpt>
      <trkpt lat="39.4622280" lon="-3.8237720">
        <ele>760.1</ele>
        <time>2019-08-12T09:13:44Z</time>
      </trkpt>
      <trkpt lat="39.4622850" lon="-3.8238250">
        <ele>760.1</ele>
        <time>2019-08-12T09:13:45Z</time>
      </trkpt>
      <trkpt lat="39.4623420" lon="-3.8238790">
        <ele>760.1</ele>
        <time>2019-08-12T09:13:46Z</time>
      </trkpt>
      <trkpt lat="39.4623990" lon="-3.8239330">
        <ele>760.0</ele>
        <time>2019-08-12T09:13:47Z</time>
      </trkpt>
      <trkpt lat="39.4624550" lon="-3.8239880">
        <ele>760.0</ele>
        <time>2019-08-12T09:13:48Z</time>
      </trkpt>
      <trkpt lat="39.4625100" lon="-3.8240430">
        <ele>760.0</ele>
        <time>2019-08-12T09:13:49Z</time>
      </trkpt>
      <trkpt lat="39.4625650" lon="-3.8241000">
        <ele>759.9</ele>
        <time>2019-08-12T09:13:50Z</time>
      </trkpt>
      <trkpt lat="39.4626200" lon="-3.8241570">
        <ele>759.9</ele>
        <time>2019-08-12T09:13:51Z</time>
      </trkpt>
      <trkpt lat="39.4626750" lon="-3.8242160">
        <ele>759.8</ele>
        <time>2019-08-12T09:13:52Z</time>
      </trkpt>
      <trkpt lat="39.4627300" lon="-3.8242760">
        <ele>759.8</ele>
        <time>2019-08-12T09:13:53Z</time>
      </trkpt>
      <trkpt lat="39.4627850" lon="-3.8243370">
        <ele>759.7</ele>
        <time>2019-08-12T09:13:54Z</time>
      </trkpt>
      <trkpt lat="39.4628400" lon="-3.8243990">
        <ele>759.6</ele>
        <time>2019-08-12T09:13:55Z</time>
      </trkpt>
      <trkpt lat="39.4628950" lon="-3.8244630">
        <ele>759.5</ele>
        <time>2019-08-12T09:13:56Z</time>
      </trkpt>
      <trkpt lat="39.4629490" lon="-3.8245290">
        <ele>759.4</ele>
        <time>2019-08-12T09:13:57Z</time>
      </trkpt>
      <trkpt lat="39.4630030" lon="-3.8245960">
        <ele>759.4</ele>
        <time>2019-08-12T09:13:58Z</time>
      </trkpt>
      <trkpt lat="39.4630570" lon="-3.8246650">
        <ele>759.3</ele>
        <time>2019-08-12T09:13:59Z</time>
      </trkpt>
      <trkpt lat="39.4631100" lon="-3.8247360">
        <ele>759.3</ele>
        <time>2019-08-12T09:14:00Z</time>
      </trkpt>
      <trkpt lat="39.4631620" lon="-3.8248080">
        <ele>759.2</ele>
        <time>2019-08-12T09:14:01Z</time>
      </trkpt>
      <trkpt lat="39.4632130" lon="-3.8248830">
        <ele>759.2</ele>
        <time>2019-08-12T09:14:02Z</time>
      </trkpt>
      <trkpt lat="39.4632630" lon="-3.8249600">
        <ele>759.2</ele>
        <time>2019-08-12T09:14:03Z</time>
      </trkpt>
      <trkpt lat="39.4633130" lon="-3.8250390">
        <ele>759.1</ele>
        <time>2019-08-12T09:14:04Z</time>
      </trkpt>
      <trkpt lat="39.4633620" lon="-3.8251200">
        <ele>759.1</ele>
        <time>2019-08-12T09:14:05Z</time>
      </trkpt>
      <trkpt lat="39.4634090" lon="-3.8252030">
        <ele>759.0</ele>
        <time>2019-08-12T09:14:06Z</time>
      </trkpt>
      <trkpt lat="39.4634560" lon="-3.8252860">
        <ele>759.0</ele>
        <time>2019-08-12T09:14:07Z</time>
      </trkpt>
      <trkpt lat="39.4635020" lon="-3.8253710">
        <ele>758.9</ele>
        <time>2019-08-12T09:14:08Z</time>
      </trkpt>
      <trkpt lat="39.4635480" lon="-3.8254570">
        <ele>758.8</ele>
        <time>2019-08-12T09:14:09Z</time>
      </trkpt>
      <trkpt lat="39.4635920" lon="-3.8255430">
        <ele>758.7</ele>
        <time>2019-08-12T09:14:10Z</time>
      </trkpt>
      <trkpt lat="39.4636360" lon="-3.8256300">
        <ele>758.6</ele>
        <time>2019-08-12T09:14:11Z</time>
      </trkpt>
      <trkpt lat="39.4636790" lon="-3.8257170">
        <ele>758.5</ele>
        <time>2019-08-12T09:14:12Z</time>
      </trkpt>
      <trkpt lat="39.4637220" lon="-3.8258040">
        <ele>758.4</ele>
        <time>2019-08-12T09:14:13Z</time>
      </trkpt>
      <trkpt lat="39.4637640" lon="-3.8258920">
        <ele>758.3</ele>
        <time>2019-08-12T09:14:14Z</time>
      </trkpt>
      <trkpt lat="39.4638050" lon="-3.8259800">
        <ele>758.2</ele>
        <time>2019-08-12T09:14:15Z</time>
      </trkpt>
      <trkpt lat="39.4638460" lon="-3.8260680">
        <ele>758.1</ele>
        <time>2019-08-12T09:14:16Z</time>
      </trkpt>
      <trkpt lat="39.4638860" lon="-3.8261570">
        <ele>758.1</ele>
        <time>2019-08-12T09:14:17Z</time>
      </trkpt>
      <trkpt lat="39.4639260" lon="-3.8262460">
        <ele>758.0</ele>
        <time>2019-08-12T09:14:18Z</time>
      </trkpt>
      <trkpt lat="39.4639660" lon="-3.8263350">
        <ele>758.0</ele>
        <time>2019-08-12T09:14:19Z</time>
      </trkpt>
      <trkpt lat="39.4640050" lon="-3.8264250">
        <ele>758.0</ele>
        <time>2019-08-12T09:14:20Z</time>
      </trkpt>
      <trkpt lat="39.4640440" lon="-3.8265150">
        <ele>758.0</ele>
        <time>2019-08-12T09:14:21Z</time>
      </trkpt>
      <trkpt lat="39.4640830" lon="-3.8266050">
        <ele>758.0</ele>
        <time>2019-08-12T09:14:22Z</time>
      </trkpt>
      <trkpt lat="39.4641210" lon="-3.8266950">
        <ele>758.0</ele>
        <time>2019-08-12T09:14:23Z</time>
      </trkpt>
      <trkpt lat="39.4641600" lon="-3.8267850">
        <ele>758.0</ele>
        <time>2019-08-12T09:14:24Z</time>
      </trkpt>
      <trkpt lat="39.4641990" lon="-3.8268740">
        <ele>758.0</ele>
        <time>2019-08-12T09:14:25Z</time>
      </trkpt>
      <trkpt lat="39.4642380" lon="-3.8269630">
        <ele>758.1</ele>
        <time>2019-08-12T09:14:26Z</time>
      </trkpt>
      <trkpt lat="39.4642770" lon="-3.8270500">
        <ele>758.1</ele>
        <time>2019-08-12T09:14:27Z</time>
      </trkpt>
      <trkpt lat="39.4643170" lon="-3.8271360">
        <ele>758.0</ele>
        <time>2019-08-12T09:14:28Z</time>
      </trkpt>
      <trkpt lat="39.4643560" lon="-3.8272210">
        <ele>758.0</ele>
        <time>2019-08-12T09:14:29Z</time>
      </trkpt>
      <trkpt lat="39.4643960" lon="-3.8273050">
        <ele>758.0</ele>
        <time>2019-08-12T09:14:30Z</time>
      </trkpt>
      <trkpt lat="39.4644370" lon="-3.8273880">
        <ele>758.0</ele>
        <time>2019-08-12T09:14:31Z</time>
      </trkpt>
      <trkpt lat="39.4644770" lon="-3.8274700">
        <ele>758.0</ele>
        <time>2019-08-12T09:14:32Z</time>
      </trkpt>
      <trkpt lat="39.4645180" lon="-3.8275500">
        <ele>758.0</ele>
        <time>2019-08-12T09:14:33Z</time>
      </trkpt>
      <trkpt lat="39.4645590" lon="-3.8276300">
        <ele>758.0</ele>
        <time>2019-08-12T09:14:34Z</time>
      </trkpt>
      <trkpt lat="39.4646010" lon="-3.8277090">
        <ele>758.0</ele>
        <time>2019-08-12T09:14:35Z</time>
      </trkpt>
      <trkpt lat="39.4646420" lon="-3.8277860">
        <ele>758.0</ele>
        <time>2019-08-12T09:14:36Z</time>
      </trkpt>
      <trkpt lat="39.4646840" lon="-3.8278630">
        <ele>758.0</ele>
        <time>2019-08-12T09:14:37Z</time>
      </trkpt>
      <trkpt lat="39.4647260" lon="-3.8279390">
        <ele>758.0</ele>
        <time>2019-08-12T09:14:38Z</time>
      </trkpt>
      <trkpt lat="39.4647690" lon="-3.8280140">
        <ele>758.0</ele>
        <time>2019-08-12T09:14:39Z</time>
      </trkpt>
      <trkpt lat="39.4648120" lon="-3.8280890">
        <ele>758.0</ele>
        <time>2019-08-12T09:14:40Z</time>
      </trkpt>
      <trkpt lat="39.4648550" lon="-3.8281620">
        <ele>758.0</ele>
        <time>2019-08-12T09:14:41Z</time>
      </trkpt>
      <trkpt lat="39.4648980" lon="-3.8282350">
        <ele>758.0</ele>
        <time>2019-08-12T09:14:42Z</time>
      </trkpt>
      <trkpt lat="39.4649420" lon="-3.8283070">
        <ele>758.0</ele>
        <time>2019-08-12T09:14:43Z</time>
      </trkpt>
      <trkpt lat="39.4649860" lon="-3.8283780">
        <ele>757.9</ele>
        <time>2019-08-12T09:14:44Z</time>
      </trkpt>
      <trkpt lat="39.4650310" lon="-3.8284480">
        <ele>757.9</ele>
        <time>2019-08-12T09:14:45Z</time>
      </trkpt>
      <trkpt lat="39.4650760" lon="-3.8285180">
        <ele>757.9</ele>
        <time>2019-08-12T09:14:46Z</time>
      </trkpt>
      <trkpt lat="39.4651210" lon="-3.8285870">
        <ele>757.9</ele>
        <time>2019-08-12T09:14:47Z</time>
      </trkpt>
      <trkpt lat="39.4651670" lon="-3.8286560">
        <ele>757.9</ele>
        <time>2019-08-12T09:14:48Z</time>
      </trkpt>
      <trkpt lat="39.4652130" lon="-3.8287230">
        <ele>757.9</ele>
        <time>2019-08-12T09:14:49Z</time>
      </trkpt>
      <trkpt lat="39.4652600" lon="-3.8287900">
        <ele>757.9</ele>
        <time>2019-08-12T09:14:50Z</time>
      </trkpt>
      <trkpt lat="39.4653070" lon="-3.8288570">
        <ele>757.9</ele>
        <time>2019-08-12T09:14:51Z</time>
      </trkpt>
      <trkpt lat="39.4653550" lon="-3.8289230">
        <ele>757.9</ele>
        <time>2019-08-12T09:14:52Z</time>
      </trkpt>
      <trkpt lat="39.4654030" lon="-3.8289880">
        <ele>758.0</ele>
        <time>2019-08-12T09:14:53Z</time>
      </trkpt>
      <trkpt lat="39.4654510" lon="-3.8290520">
        <ele>758.0</ele>
        <time>2019-08-12T09:14:54Z</time>
      </trkpt>
      <trkpt lat="39.4655000" lon="-3.8291160">
        <ele>758.1</ele>
        <time>2019-08-12T09:14:55Z</time>
      </trkpt>
      <trkpt lat="39.4655490" lon="-3.8291790">
        <ele>758.2</ele>
        <time>2019-08-12T09:14:56Z</time>
      </trkpt>
      <trkpt lat="39.4655980" lon="-3.8292420">
        <ele>758.3</ele>
        <time>2019-08-12T09:14:57Z</time>
      </trkpt>
      <trkpt lat="39.4656470" lon="-3.8293040">
        <ele>758.5</ele>
        <time>2019-08-12T09:14:58Z</time>
      </trkpt>
      <trkpt lat="39.4656970" lon="-3.8293650">
        <ele>758.6</ele>
        <time>2019-08-12T09:14:59Z</time>
      </trkpt>
      <trkpt lat="39.4657470" lon="-3.8294260">
        <ele>758.7</ele>
        <time>2019-08-12T09:15:00Z</time>
      </trkpt>
      <trkpt lat="39.4657970" lon="-3.8294860">
        <ele>758.8</ele>
        <time>2019-08-12T09:15:01Z</time>
      </trkpt>
      <trkpt lat="39.4658480" lon="-3.8295450">
        <ele>758.9</ele>
        <time>2019-08-12T09:15:02Z</time>
      </trkpt>
      <trkpt lat="39.4658990" lon="-3.8296040">
        <ele>759.0</ele>
        <time>2019-08-12T09:15:03Z</time>
      </trkpt>
      <trkpt lat="39.4659490" lon="-3.8296630">
        <ele>759.0</ele>
        <time>2019-08-12T09:15:04Z</time>
      </trkpt>
      <trkpt lat="39.4660000" lon="-3.8297200">
        <ele>759.1</ele>
        <time>2019-08-12T09:15:05Z</time>
      </trkpt>
      <trkpt lat="39.4660510" lon="-3.8297780">
        <ele>759.1</ele>
        <time>2019-08-12T09:15:06Z</time>
      </trkpt>
      <trkpt lat="39.4661020" lon="-3.8298340">
        <ele>759.2</ele>
        <time>2019-08-12T09:15:07Z</time>
      </trkpt>
      <trkpt lat="39.4661540" lon="-3.8298900">
        <ele>759.3</ele>
        <time>2019-08-12T09:15:08Z</time>
      </trkpt>
      <trkpt lat="39.4662050" lon="-3.8299460">
        <ele>759.3</ele>
        <time>2019-08-12T09:15:09Z</time>
      </trkpt>
      <trkpt lat="39.4662570" lon="-3.8300010">
        <ele>759.4</ele>
        <time>2019-08-12T09:15:10Z</time>
      </trkpt>
      <trkpt lat="39.4663090" lon="-3.8300550">
        <ele>759.4</ele>
        <time>2019-08-12T09:15:11Z</time>
      </trkpt>
      <trkpt lat="39.4663600" lon="-3.8301090">
        <ele>759.4</ele>
        <time>2019-08-12T09:15:12Z</time>
      </trkpt>
      <trkpt lat="39.4664120" lon="-3.8301620">
        <ele>759.4</ele>
        <time>2019-08-12T09:15:13Z</time>
      </trkpt>
      <trkpt lat="39.4664650" lon="-3.8302150">
        <ele>759.4</ele>
        <time>2019-08-12T09:15:14Z</time>
      </trkpt>
      <trkpt lat="39.4665170" lon="-3.8302670">
        <ele>759.4</ele>
        <time>2019-08-12T09:15:15Z</time>
      </trkpt>
      <trkpt lat="39.4665700" lon="-3.8303190">
        <ele>759.3</ele>
        <time>2019-08-12T09:15:16Z</time>
      </trkpt>
      <trkpt lat="39.4666220" lon="-3.8303710">
        <ele>759.3</ele>
        <time>2019-08-12T09:15:17Z</time>
      </trkpt>
      <trkpt lat="39.4666750" lon="-3.8304220">
        <ele>759.3</ele>
        <time>2019-08-12T09:15:18Z</time>
      </trkpt>
      <trkpt lat="39.4667280" lon="-3.8304720">
        <ele>759.3</ele>
        <time>2019-08-12T09:15:19Z</time>
      </trkpt>
      <trkpt lat="39.4667820" lon="-3.8305220">
        <ele>759.2</ele>
        <time>2019-08-12T09:15:20Z</time>
      </trkpt>
      <trkpt lat="39.4668350" lon="-3.8305720">
        <ele>759.2</ele>
        <time>2019-08-12T09:15:21Z</time>
      </trkpt>
      <trkpt lat="39.4668890" lon="-3.8306210">
        <ele>759.1</ele>
        <time>2019-08-12T09:15:22Z</time>
      </trkpt>
      <trkpt lat="39.4669430" lon="-3.8306700">
        <ele>759.1</ele>
        <time>2019-08-12T09:15:23Z</time>
      </trkpt>
      <trkpt lat="39.4669970" lon="-3.8307190">
        <ele>759.0</ele>
        <time>2019-08-12T09:15:24Z</time>
      </trkpt>
      <trkpt lat="39.4670510" lon="-3.8307670">
        <ele>758.9</ele>
        <time>2019-08-12T09:15:25Z</time>
      </trkpt>
      <trkpt lat="39.4671060" lon="-3.8308150">
        <ele>758.9</ele>
        <time>2019-08-12T09:15:26Z</time>
      </trkpt>
      <trkpt lat="39.4671610" lon="-3.8308620">
        <ele>758.8</ele>
        <time>2019-08-12T09:15:27Z</time>
      </trkpt>
      <trkpt lat="39.4672160" lon="-3.8309090">
        <ele>758.7</ele>
        <time>2019-08-12T09:15:28Z</time>
      </trkpt>
      <trkpt lat="39.4672710" lon="-3.8309560">
        <ele>758.7</ele>
        <time>2019-08-12T09:15:29Z</time>
      </trkpt>
      <trkpt lat="39.4673260" lon="-3.8310020">
        <ele>758.6</ele>
        <time>2019-08-12T09:15:30Z</time>
      </trkpt>
      <trkpt lat="39.4673820" lon="-3.8310480">
        <ele>758.5</ele>
        <time>2019-08-12T09:15:31Z</time>
      </trkpt>
      <trkpt lat="39.4674370" lon="-3.8310940">
        <ele>758.5</ele>
        <time>2019-08-12T09:15:32Z</time>
      </trkpt>
      <trkpt lat="39.4674930" lon="-3.8311390">
        <ele>758.4</ele>
        <time>2019-08-12T09:15:33Z</time>
      </trkpt>
      <trkpt lat="39.4675490" lon="-3.8311840">
        <ele>758.4</ele>
        <time>2019-08-12T09:15:34Z</time>
      </trkpt>
      <trkpt lat="39.4676050" lon="-3.8312290">
        <ele>758.3</ele>
        <time>2019-08-12T09:15:35Z</time>
      </trkpt>
      <trkpt lat="39.4676610" lon="-3.8312740">
        <ele>758.3</ele>
        <time>2019-08-12T09:15:36Z</time>
      </trkpt>
      <trkpt lat="39.4677170" lon="-3.8313180">
        <ele>758.2</ele>
        <time>2019-08-12T09:15:37Z</time>
      </trkpt>
      <trkpt lat="39.4677730" lon="-3.8313620">
        <ele>758.1</ele>
        <time>2019-08-12T09:15:38Z</time>
      </trkpt>
      <trkpt lat="39.4678290" lon="-3.8314060">
        <ele>758.1</ele>
        <time>2019-08-12T09:15:39Z</time>
      </trkpt>
      <trkpt lat="39.4678850" lon="-3.8314500">
        <ele>758.0</ele>
        <time>2019-08-12T09:15:40Z</time>
      </trkpt>
      <trkpt lat="39.4679410" lon="-3.8314930">
        <ele>758.0</ele>
        <time>2019-08-12T09:15:41Z</time>
      </trkpt>
      <trkpt lat="39.4679970" lon="-3.8315370">
        <ele>758.0</ele>
        <time>2019-08-12T09:15:42Z</time>
      </trkpt>
      <trkpt lat="39.4680530" lon="-3.8315800">
        <ele>757.9</ele>
        <time>2019-08-12T09:15:43Z</time>
      </trkpt>
      <trkpt lat="39.4681100" lon="-3.8316230">
        <ele>757.9</ele>
        <time>2019-08-12T09:15:44Z</time>
      </trkpt>
      <trkpt lat="39.4681660" lon="-3.8316660">
        <ele>757.9</ele>
        <time>2019-08-12T09:15:45Z</time>
      </trkpt>
      <trkpt lat="39.4682230" lon="-3.8317090">
        <ele>757.8</ele>
        <time>2019-08-12T09:15:46Z</time>
      </trkpt>
      <trkpt lat="39.4682800" lon="-3.8317530">
        <ele>757.8</ele>
        <time>2019-08-12T09:15:47Z</time>
      </trkpt>
      <trkpt lat="39.4683370" lon="-3.8317970">
        <ele>757.7</ele>
        <time>2019-08-12T09:15:48Z</time>
      </trkpt>
      <trkpt lat="39.4683950" lon="-3.8318410">
        <ele>757.6</ele>
        <time>2019-08-12T09:15:49Z</time>
      </trkpt>
      <trkpt lat="39.4684530" lon="-3.8318860">
        <ele>757.5</ele>
        <time>2019-08-12T09:15:50Z</time>
      </trkpt>
      <trkpt lat="39.4685120" lon="-3.8319310">
        <ele>757.4</ele>
        <time>2019-08-12T09:15:51Z</time>
      </trkpt>
      <trkpt lat="39.4685710" lon="-3.8319750">
        <ele>757.3</ele>
        <time>2019-08-12T09:15:52Z</time>
      </trkpt>
      <trkpt lat="39.4686300" lon="-3.8320190">
        <ele>757.1</ele>
        <time>2019-08-12T09:15:53Z</time>
      </trkpt>
      <trkpt lat="39.4686890" lon="-3.8320630">
        <ele>757.0</ele>
        <time>2019-08-12T09:15:54Z</time>
      </trkpt>
      <trkpt lat="39.4687480" lon="-3.8321070">
        <ele>756.8</ele>
        <time>2019-08-12T09:15:55Z</time>
      </trkpt>
      <trkpt lat="39.4688080" lon="-3.8321500">
        <ele>756.7</ele>
        <time>2019-08-12T09:15:56Z</time>
      </trkpt>
      <trkpt lat="39.4688670" lon="-3.8321940">
        <ele>756.5</ele>
        <time>2019-08-12T09:15:57Z</time>
      </trkpt>
      <trkpt lat="39.4689270" lon="-3.8322380">
        <ele>756.3</ele>
        <time>2019-08-12T09:15:58Z</time>
      </trkpt>
      <trkpt lat="39.4689860" lon="-3.8322820">
        <ele>756.2</ele>
        <time>2019-08-12T09:15:59Z</time>
      </trkpt>
      <trkpt lat="39.4690460" lon="-3.8323260">
        <ele>756.0</ele>
        <time>2019-08-12T09:16:00Z</time>
      </trkpt>
      <trkpt lat="39.4691050" lon="-3.8323700">
        <ele>755.8</ele>
        <time>2019-08-12T09:16:01Z</time>
      </trkpt>
      <trkpt lat="39.4691650" lon="-3.8324150">
        <ele>755.6</ele>
        <time>2019-08-12T09:16:02Z</time>
      </trkpt>
      <trkpt lat="39.4692240" lon="-3.8324600">
        <ele>755.4</ele>
        <time>2019-08-12T09:16:03Z</time>
      </trkpt>
      <trkpt lat="39.4692840" lon="-3.8325060">
        <ele>755.2</ele>
        <time>2019-08-12T09:16:04Z</time>
      </trkpt>
      <trkpt lat="39.4693440" lon="-3.8325520">
        <ele>755.0</ele>
        <time>2019-08-12T09:16:05Z</time>
      </trkpt>
      <trkpt lat="39.4694050" lon="-3.8325990">
        <ele>754.8</ele>
        <time>2019-08-12T09:16:06Z</time>
      </trkpt>
      <trkpt lat="39.4694670" lon="-3.8326470">
        <ele>754.7</ele>
        <time>2019-08-12T09:16:07Z</time>
      </trkpt>
      <trkpt lat="39.4695290" lon="-3.8326950">
        <ele>754.6</ele>
        <time>2019-08-12T09:16:08Z</time>
      </trkpt>
      <trkpt lat="39.4695930" lon="-3.8327440">
        <ele>754.4</ele>
        <time>2019-08-12T09:16:09Z</time>
      </trkpt>
      <trkpt lat="39.4696580" lon="-3.8327930">
        <ele>754.3</ele>
        <time>2019-08-12T09:16:10Z</time>
      </trkpt>
      <trkpt lat="39.4697250" lon="-3.8328440">
        <ele>753.7</ele>
        <time>2019-08-12T09:16:11Z</time>
      </trkpt>
      <trkpt lat="39.4697930" lon="-3.8328940">
        <ele>753.4</ele>
        <time>2019-08-12T09:16:12Z</time>
      </trkpt>
      <trkpt lat="39.4698620" lon="-3.8329450">
        <ele>753.2</ele>
        <time>2019-08-12T09:16:13Z</time>
      </trkpt>
      <trkpt lat="39.4699320" lon="-3.8329960">
        <ele>753.0</ele>
        <time>2019-08-12T09:16:14Z</time>
      </trkpt>
      <trkpt lat="39.4700030" lon="-3.8330460">
        <ele>752.9</ele>
        <time>2019-08-12T09:16:15Z</time>
      </trkpt>
      <trkpt lat="39.4700750" lon="-3.8330950">
        <ele>752.8</ele>
        <time>2019-08-12T09:16:16Z</time>
      </trkpt>
      <trkpt lat="39.4701470" lon="-3.8331430">
        <ele>752.6</ele>
        <time>2019-08-12T09:16:17Z</time>
      </trkpt>
      <trkpt lat="39.4702190" lon="-3.8331890">
        <ele>752.5</ele>
        <time>2019-08-12T09:16:18Z</time>
      </trkpt>
      <trkpt lat="39.4702920" lon="-3.8332330">
        <ele>752.4</ele>
        <time>2019-08-12T09:16:19Z</time>
      </trkpt>
      <trkpt lat="39.4703640" lon="-3.8332750">
        <ele>752.2</ele>
        <time>2019-08-12T09:16:20Z</time>
      </trkpt>
      <trkpt lat="39.4704370" lon="-3.8333150">
        <ele>752.0</ele>
        <time>2019-08-12T09:16:21Z</time>
      </trkpt>
      <trkpt lat="39.4705090" lon="-3.8333520">
        <ele>751.8</ele>
        <time>2019-08-12T09:16:22Z</time>
      </trkpt>
      <trkpt lat="39.4705820" lon="-3.8333870">
        <ele>751.7</ele>
        <time>2019-08-12T09:16:23Z</time>
      </trkpt>
      <trkpt lat="39.4706560" lon="-3.8334200">
        <ele>751.5</ele>
        <time>2019-08-12T09:16:24Z</time>
      </trkpt>
      <trkpt lat="39.4707290" lon="-3.8334500">
        <ele>751.3</ele>
        <time>2019-08-12T09:16:25Z</time>
      </trkpt>
      <trkpt lat="39.4708040" lon="-3.8334780">
        <ele>751.1</ele>
        <time>2019-08-12T09:16:26Z</time>
      </trkpt>
      <trkpt lat="39.4708790" lon="-3.8335030">
        <ele>750.9</ele>
        <time>2019-08-12T09:16:27Z</time>
      </trkpt>
      <trkpt lat="39.4709540" lon="-3.8335250">
        <ele>750.7</ele>
        <time>2019-08-12T09:16:28Z</time>
      </trkpt>
      <trkpt lat="39.4710310" lon="-3.8335450">
        <ele>750.5</ele>
        <time>2019-08-12T09:16:29Z</time>
      </trkpt>
      <trkpt lat="39.4711090" lon="-3.8335620">
        <ele>750.2</ele>
        <time>2019-08-12T09:16:30Z</time>
      </trkpt>
      <trkpt lat="39.4711870" lon="-3.8335760">
        <ele>749.9</ele>
        <time>2019-08-12T09:16:31Z</time>
      </trkpt>
      <trkpt lat="39.4712660" lon="-3.8335880">
        <ele>749.6</ele>
        <time>2019-08-12T09:16:32Z</time>
      </trkpt>
      <trkpt lat="39.4713460" lon="-3.8335970">
        <ele>749.3</ele>
        <time>2019-08-12T09:16:33Z</time>
      </trkpt>
      <trkpt lat="39.4714260" lon="-3.8336040">
        <ele>749.0</ele>
        <time>2019-08-12T09:16:34Z</time>
      </trkpt>
      <trkpt lat="39.4715070" lon="-3.8336090">
        <ele>748.7</ele>
        <time>2019-08-12T09:16:35Z</time>
      </trkpt>
      <trkpt lat="39.4715880" lon="-3.8336120">
        <ele>748.5</ele>
        <time>2019-08-12T09:16:36Z</time>
      </trkpt>
      <trkpt lat="39.4716690" lon="-3.8336120">
        <ele>748.3</ele>
        <time>2019-08-12T09:16:37Z</time>
      </trkpt>
      <trkpt lat="39.4717510" lon="-3.8336100">
        <ele>748.2</ele>
        <time>2019-08-12T09:16:38Z</time>
      </trkpt>
      <trkpt lat="39.4718320" lon="-3.8336050">
        <ele>748.0</ele>
        <time>2019-08-12T09:16:39Z</time>
      </trkpt>
      <trkpt lat="39.4719130" lon="-3.8336000">
        <ele>748.0</ele>
        <time>2019-08-12T09:16:40Z</time>
      </trkpt>
      <trkpt lat="39.4719930" lon="-3.8335930">
        <ele>747.9</ele>
        <time>2019-08-12T09:16:41Z</time>
      </trkpt>
      <trkpt lat="39.4720740" lon="-3.8335850">
        <ele>747.8</ele>
        <time>2019-08-12T09:16:42Z</time>
      </trkpt>
      <trkpt lat="39.4721550" lon="-3.8335750">
        <ele>747.7</ele>
        <time>2019-08-12T09:16:43Z</time>
      </trkpt>
      <trkpt lat="39.4722350" lon="-3.8335650">
        <ele>747.7</ele>
        <time>2019-08-12T09:16:44Z</time>
      </trkpt>
      <trkpt lat="39.4723150" lon="-3.8335540">
        <ele>747.6</ele>
        <time>2019-08-12T09:16:45Z</time>
      </trkpt>
      <trkpt lat="39.4723940" lon="-3.8335430">
        <ele>747.6</ele>
        <time>2019-08-12T09:16:46Z</time>
      </trkpt>
      <trkpt lat="39.4724740" lon="-3.8335320">
        <ele>747.6</ele>
        <time>2019-08-12T09:16:47Z</time>
      </trkpt>
      <trkpt lat="39.4725530" lon="-3.8335200">
        <ele>747.5</ele>
        <time>2019-08-12T09:16:48Z</time>
      </trkpt>
      <trkpt lat="39.4726320" lon="-3.8335100">
        <ele>747.5</ele>
        <time>2019-08-12T09:16:49Z</time>
      </trkpt>
      <trkpt lat="39.4727100" lon="-3.8334990">
        <ele>747.5</ele>
        <time>2019-08-12T09:16:50Z</time>
      </trkpt>
      <trkpt lat="39.4727880" lon="-3.8334880">
        <ele>747.5</ele>
        <time>2019-08-12T09:16:51Z</time>
      </trkpt>
      <trkpt lat="39.4728660" lon="-3.8334780">
        <ele>747.5</ele>
        <time>2019-08-12T09:16:52Z</time>
      </trkpt>
      <trkpt lat="39.4729430" lon="-3.8334670">
        <ele>747.5</ele>
        <time>2019-08-12T09:16:53Z</time>
      </trkpt>
      <trkpt lat="39.4730200" lon="-3.8334570">
        <ele>747.5</ele>
        <time>2019-08-12T09:16:54Z</time>
      </trkpt>
      <trkpt lat="39.4730970" lon="-3.8334470">
        <ele>747.4</ele>
        <time>2019-08-12T09:16:55Z</time>
      </trkpt>
      <trkpt lat="39.4731730" lon="-3.8334370">
        <ele>747.4</ele>
        <time>2019-08-12T09:16:56Z</time>
      </trkpt>
      <trkpt lat="39.4732490" lon="-3.8334270">
        <ele>747.3</ele>
        <time>2019-08-12T09:16:57Z</time>
      </trkpt>
      <trkpt lat="39.4733250" lon="-3.8334170">
        <ele>747.3</ele>
        <time>2019-08-12T09:16:58Z</time>
      </trkpt>
      <trkpt lat="39.4734000" lon="-3.8334070">
        <ele>747.2</ele>
        <time>2019-08-12T09:16:59Z</time>
      </trkpt>
      <trkpt lat="39.4734750" lon="-3.8333970">
        <ele>747.2</ele>
        <time>2019-08-12T09:17:00Z</time>
      </trkpt>
      <trkpt lat="39.4735490" lon="-3.8333880">
        <ele>747.1</ele>
        <time>2019-08-12T09:17:01Z</time>
      </trkpt>
      <trkpt lat="39.4736230" lon="-3.8333780">
        <ele>747.0</ele>
        <time>2019-08-12T09:17:02Z</time>
      </trkpt>
      <trkpt lat="39.4736970" lon="-3.8333690">
        <ele>746.9</ele>
        <time>2019-08-12T09:17:03Z</time>
      </trkpt>
      <trkpt lat="39.4737700" lon="-3.8333600">
        <ele>746.8</ele>
        <time>2019-08-12T09:17:04Z</time>
      </trkpt>
      <trkpt lat="39.4738420" lon="-3.8333510">
        <ele>746.8</ele>
        <time>2019-08-12T09:17:05Z</time>
      </trkpt>
      <trkpt lat="39.4739140" lon="-3.8333430">
        <ele>746.7</ele>
        <time>2019-08-12T09:17:06Z</time>
      </trkpt>
      <trkpt lat="39.4739860" lon="-3.8333340">
        <ele>746.6</ele>
        <time>2019-08-12T09:17:07Z</time>
      </trkpt>
      <trkpt lat="39.4740570" lon="-3.8333260">
        <ele>746.6</ele>
        <time>2019-08-12T09:17:08Z</time>
      </trkpt>
      <trkpt lat="39.4741270" lon="-3.8333180">
        <ele>746.5</ele>
        <time>2019-08-12T09:17:09Z</time>
      </trkpt>
      <trkpt lat="39.4741970" lon="-3.8333100">
        <ele>746.5</ele>
        <time>2019-08-12T09:17:10Z</time>
      </trkpt>
      <trkpt lat="39.4742660" lon="-3.8333030">
        <ele>746.5</ele>
        <time>2019-08-12T09:17:11Z</time>
      </trkpt>
      <trkpt lat="39.4743350" lon="-3.8332960">
        <ele>746.4</ele>
        <time>2019-08-12T09:17:12Z</time>
      </trkpt>
      <trkpt lat="39.4744040" lon="-3.8332890">
        <ele>746.4</ele>
        <time>2019-08-12T09:17:13Z</time>
      </trkpt>
      <trkpt lat="39.4744710" lon="-3.8332830">
        <ele>746.3</ele>
        <time>2019-08-12T09:17:14Z</time>
      </trkpt>
      <trkpt lat="39.4745380" lon="-3.8332770">
        <ele>746.3</ele>
        <time>2019-08-12T09:17:15Z</time>
      </trkpt>
      <trkpt lat="39.4746050" lon="-3.8332710">
        <ele>746.3</ele>
        <time>2019-08-12T09:17:16Z</time>
      </trkpt>
      <trkpt lat="39.4746710" lon="-3.8332660">
        <ele>746.3</ele>
        <time>2019-08-12T09:17:17Z</time>
      </trkpt>
      <trkpt lat="39.4747370" lon="-3.8332620">
        <ele>746.2</ele>
        <time>2019-08-12T09:17:18Z</time>
      </trkpt>
      <trkpt lat="39.4748020" lon="-3.8332580">
        <ele>746.2</ele>
        <time>2019-08-12T09:17:19Z</time>
      </trkpt>
      <trkpt lat="39.4748680" lon="-3.8332540">
        <ele>746.2</ele>
        <time>2019-08-12T09:17:20Z</time>
      </trkpt>
      <trkpt lat="39.4749770" lon="-3.8332510">
        <ele>746.1</ele>
        <time>2019-08-12T09:17:21Z</time>
      </trkpt>
      <trkpt lat="39.4750200" lon="-3.8332500">
        <ele>746.1</ele>
        <time>2019-08-12T09:17:22Z</time>
      </trkpt>
      <trkpt lat="39.4750640" lon="-3.8332490">
        <ele>746.1</ele>
        <time>2019-08-12T09:17:23Z</time>
      </trkpt>
      <trkpt lat="39.4751300" lon="-3.8332490">
        <ele>746.1</ele>
        <time>2019-08-12T09:17:24Z</time>
      </trkpt>
      <trkpt lat="39.4752300" lon="-3.8332510">
        <ele>746.1</ele>
        <time>2019-08-12T09:17:25Z</time>
      </trkpt>
      <trkpt lat="39.4752630" lon="-3.8332530">
        <ele>746.1</ele>
        <time>2019-08-12T09:17:26Z</time>
      </trkpt>
      <trkpt lat="39.4753290" lon="-3.8332560">
        <ele>746.1</ele>
        <time>2019-08-12T09:17:27Z</time>
      </trkpt>
      <trkpt lat="39.4753950" lon="-3.8332600">
        <ele>746.1</ele>
        <time>2019-08-12T09:17:28Z</time>
      </trkpt>
      <trkpt lat="39.4754600" lon="-3.8332650">
        <ele>746.0</ele>
        <time>2019-08-12T09:17:29Z</time>
      </trkpt>
      <trkpt lat="39.4755260" lon="-3.8332710">
        <ele>746.0</ele>
        <time>2019-08-12T09:17:30Z</time>
      </trkpt>
      <trkpt lat="39.4755910" lon="-3.8332780">
        <ele>746.0</ele>
        <time>2019-08-12T09:17:31Z</time>
      </trkpt>
      <trkpt lat="39.4756560" lon="-3.8332870">
        <ele>745.9</ele>
        <time>2019-08-12T09:17:32Z</time>
      </trkpt>
      <trkpt lat="39.4757200" lon="-3.8332970">
        <ele>745.9</ele>
        <time>2019-08-12T09:17:33Z</time>
      </trkpt>
      <trkpt lat="39.4757840" lon="-3.8333070">
        <ele>745.9</ele>
        <time>2019-08-12T09:17:34Z</time>
      </trkpt>
      <trkpt lat="39.4758470" lon="-3.8333190">
        <ele>745.9</ele>
        <time>2019-08-12T09:17:35Z</time>
      </trkpt>
      <trkpt lat="39.4759100" lon="-3.8333310">
        <ele>745.9</ele>
        <time>2019-08-12T09:17:36Z</time>
      </trkpt>
      <trkpt lat="39.4759730" lon="-3.8333430">
        <ele>745.8</ele>
        <time>2019-08-12T09:17:37Z</time>
      </trkpt>
      <trkpt lat="39.4760360" lon="-3.8333570">
        <ele>745.8</ele>
        <time>2019-08-12T09:17:38Z</time>
      </trkpt>
      <trkpt lat="39.4760990" lon="-3.8333700">
        <ele>745.7</ele>
        <time>2019-08-12T09:17:39Z</time>
      </trkpt>
      <trkpt lat="39.4761620" lon="-3.8333840">
        <ele>745.7</ele>
        <time>2019-08-12T09:17:40Z</time>
      </trkpt>
      <trkpt lat="39.4762240" lon="-3.8333970">
        <ele>745.6</ele>
        <time>2019-08-12T09:17:41Z</time>
      </trkpt>
      <trkpt lat="39.4762870" lon="-3.8334110">
        <ele>745.5</ele>
        <time>2019-08-12T09:17:42Z</time>
      </trkpt>
      <trkpt lat="39.4763510" lon="-3.8334240">
        <ele>745.4</ele>
        <time>2019-08-12T09:17:43Z</time>
      </trkpt>
      <trkpt lat="39.4764140" lon="-3.8334370">
        <ele>745.3</ele>
        <time>2019-08-12T09:17:44Z</time>
      </trkpt>
      <trkpt lat="39.4764780" lon="-3.8334490">
        <ele>745.2</ele>
        <time>2019-08-12T09:17:45Z</time>
      </trkpt>
      <trkpt lat="39.4765420" lon="-3.8334620">
        <ele>745.1</ele>
        <time>2019-08-12T09:17:46Z</time>
      </trkpt>
      <trkpt lat="39.4766070" lon="-3.8334740">
        <ele>745.0</ele>
        <time>2019-08-12T09:17:47Z</time>
      </trkpt>
      <trkpt lat="39.4766710" lon="-3.8334870">
        <ele>744.9</ele>
        <time>2019-08-12T09:17:48Z</time>
      </trkpt>
      <trkpt lat="39.4767360" lon="-3.8334990">
        <ele>744.8</ele>
        <time>2019-08-12T09:17:49Z</time>
      </trkpt>
      <trkpt lat="39.4768020" lon="-3.8335110">
        <ele>744.7</ele>
        <time>2019-08-12T09:17:50Z</time>
      </trkpt>
      <trkpt lat="39.4768670" lon="-3.8335230">
        <ele>744.7</ele>
        <time>2019-08-12T09:17:51Z</time>
      </trkpt>
      <trkpt lat="39.4769330" lon="-3.8335360">
        <ele>744.6</ele>
        <time>2019-08-12T09:17:52Z</time>
      </trkpt>
      <trkpt lat="39.4770000" lon="-3.8335480">
        <ele>744.6</ele>
        <time>2019-08-12T09:17:53Z</time>
      </trkpt>
      <trkpt lat="39.4770670" lon="-3.8335600">
        <ele>744.5</ele>
        <time>2019-08-12T09:17:54Z</time>
      </trkpt>
      <trkpt lat="39.4771340" lon="-3.8335730">
        <ele>744.4</ele>
        <time>2019-08-12T09:17:55Z</time>
      </trkpt>
      <trkpt lat="39.4772010" lon="-3.8335850">
        <ele>744.4</ele>
        <time>2019-08-12T09:17:56Z</time>
      </trkpt>
      <trkpt lat="39.4772680" lon="-3.8335980">
        <ele>744.3</ele>
        <time>2019-08-12T09:17:57Z</time>
      </trkpt>
      <trkpt lat="39.4773360" lon="-3.8336110">
        <ele>744.3</ele>
        <time>2019-08-12T09:17:58Z</time>
      </trkpt>
      <trkpt lat="39.4774030" lon="-3.8336230">
        <ele>744.2</ele>
        <time>2019-08-12T09:17:59Z</time>
      </trkpt>
      <trkpt lat="39.4774710" lon="-3.8336360">
        <ele>744.2</ele>
        <time>2019-08-12T09:18:00Z</time>
      </trkpt>
      <trkpt lat="39.4775390" lon="-3.8336490">
        <ele>744.2</ele>
        <time>2019-08-12T09:18:01Z</time>
      </trkpt>
      <trkpt lat="39.4776070" lon="-3.8336610">
        <ele>744.1</ele>
        <time>2019-08-12T09:18:02Z</time>
      </trkpt>
      <trkpt lat="39.4776750" lon="-3.8336740">
        <ele>744.1</ele>
        <time>2019-08-12T09:18:03Z</time>
      </trkpt>
      <trkpt lat="39.4777420" lon="-3.8336870">
        <ele>744.1</ele>
        <time>2019-08-12T09:18:04Z</time>
      </trkpt>
      <trkpt lat="39.4778100" lon="-3.8337000">
        <ele>744.1</ele>
        <time>2019-08-12T09:18:05Z</time>
      </trkpt>
      <trkpt lat="39.4778780" lon="-3.8337130">
        <ele>744.1</ele>
        <time>2019-08-12T09:18:06Z</time>
      </trkpt>
      <trkpt lat="39.4779450" lon="-3.8337260">
        <ele>744.0</ele>
        <time>2019-08-12T09:18:07Z</time>
      </trkpt>
      <trkpt lat="39.4780130" lon="-3.8337390">
        <ele>744.0</ele>
        <time>2019-08-12T09:18:08Z</time>
      </trkpt>
      <trkpt lat="39.4781240" lon="-3.8337600">
        <ele>743.9</ele>
        <time>2019-08-12T09:18:09Z</time>
      </trkpt>
      <trkpt lat="39.4781690" lon="-3.8337680">
        <ele>743.9</ele>
        <time>2019-08-12T09:18:10Z</time>
      </trkpt>
      <trkpt lat="39.4782130" lon="-3.8337770">
        <ele>743.8</ele>
        <time>2019-08-12T09:18:11Z</time>
      </trkpt>
      <trkpt lat="39.4782800" lon="-3.8337900">
        <ele>743.8</ele>
        <time>2019-08-12T09:18:12Z</time>
      </trkpt>
      <trkpt lat="39.4783460" lon="-3.8338040">
        <ele>743.7</ele>
        <time>2019-08-12T09:18:13Z</time>
      </trkpt>
      <trkpt lat="39.4784560" lon="-3.8338260">
        <ele>743.6</ele>
        <time>2019-08-12T09:18:14Z</time>
      </trkpt>
      <trkpt lat="39.4785010" lon="-3.8338340">
        <ele>743.6</ele>
        <time>2019-08-12T09:18:15Z</time>
      </trkpt>
      <trkpt lat="39.4785450" lon="-3.8338430">
        <ele>743.5</ele>
        <time>2019-08-12T09:18:16Z</time>
      </trkpt>
      <trkpt lat="39.4786110" lon="-3.8338560">
        <ele>743.4</ele>
        <time>2019-08-12T09:18:17Z</time>
      </trkpt>
      <trkpt lat="39.4786770" lon="-3.8338690">
        <ele>743.3</ele>
        <time>2019-08-12T09:18:18Z</time>
      </trkpt>
      <trkpt lat="39.4787440" lon="-3.8338820">
        <ele>743.2</ele>
        <time>2019-08-12T09:18:19Z</time>
      </trkpt>
      <trkpt lat="39.4788100" lon="-3.8338950">
        <ele>743.1</ele>
        <time>2019-08-12T09:18:20Z</time>
      </trkpt>
      <trkpt lat="39.4788770" lon="-3.8339080">
        <ele>743.0</ele>
        <time>2019-08-12T09:18:21Z</time>
      </trkpt>
      <trkpt lat="39.4789440" lon="-3.8339220">
        <ele>743.0</ele>
        <time>2019-08-12T09:18:22Z</time>
      </trkpt>
      <trkpt lat="39.4790110" lon="-3.8339350">
        <ele>743.0</ele>
        <time>2019-08-12T09:18:23Z</time>
      </trkpt>
      <trkpt lat="39.4790790" lon="-3.8339480">
        <ele>742.9</ele>
        <time>2019-08-12T09:18:24Z</time>
      </trkpt>
      <trkpt lat="39.4791470" lon="-3.8339610">
        <ele>742.9</ele>
        <time>2019-08-12T09:18:25Z</time>
      </trkpt>
      <trkpt lat="39.4792150" lon="-3.8339740">
        <ele>742.8</ele>
        <time>2019-08-12T09:18:26Z</time>
      </trkpt>
      <trkpt lat="39.4792840" lon="-3.8339870">
        <ele>742.7</ele>
        <time>2019-08-12T09:18:27Z</time>
      </trkpt>
      <trkpt lat="39.4793530" lon="-3.8340010">
        <ele>742.7</ele>
        <time>2019-08-12T09:18:28Z</time>
      </trkpt>
      <trkpt lat="39.4794220" lon="-3.8340140">
        <ele>742.6</ele>
        <time>2019-08-12T09:18:29Z</time>
      </trkpt>
      <trkpt lat="39.4794920" lon="-3.8340270">
        <ele>742.5</ele>
        <time>2019-08-12T09:18:30Z</time>
      </trkpt>
      <trkpt lat="39.4795630" lon="-3.8340400">
        <ele>742.4</ele>
        <time>2019-08-12T09:18:31Z</time>
      </trkpt>
      <trkpt lat="39.4796330" lon="-3.8340540">
        <ele>742.3</ele>
        <time>2019-08-12T09:18:32Z</time>
      </trkpt>
      <trkpt lat="39.4797050" lon="-3.8340670">
        <ele>742.3</ele>
        <time>2019-08-12T09:18:33Z</time>
      </trkpt>
      <trkpt lat="39.4797760" lon="-3.8340800">
        <ele>742.2</ele>
        <time>2019-08-12T09:18:34Z</time>
      </trkpt>
      <trkpt lat="39.4798470" lon="-3.8340940">
        <ele>742.1</ele>
        <time>2019-08-12T09:18:35Z</time>
      </trkpt>
      <trkpt lat="39.4799190" lon="-3.8341070">
        <ele>742.1</ele>
        <time>2019-08-12T09:18:36Z</time>
      </trkpt>
      <trkpt lat="39.4799910" lon="-3.8341210">
        <ele>742.0</ele>
        <time>2019-08-12T09:18:37Z</time>
      </trkpt>
      <trkpt lat="39.4800630" lon="-3.8341340">
        <ele>742.0</ele>
        <time>2019-08-12T09:18:38Z</time>
      </trkpt>
      <trkpt lat="39.4801350" lon="-3.8341480">
        <ele>741.9</ele>
        <time>2019-08-12T09:18:39Z</time>
      </trkpt>
      <trkpt lat="39.4802070" lon="-3.8341620">
        <ele>741.9</ele>
        <time>2019-08-12T09:18:40Z</time>
      </trkpt>
      <trkpt lat="39.4802790" lon="-3.8341760">
        <ele>741.9</ele>
        <time>2019-08-12T09:18:41Z</time>
      </trkpt>
      <trkpt lat="39.4803500" lon="-3.8341900">
        <ele>741.9</ele>
        <time>2019-08-12T09:18:42Z</time>
      </trkpt>
      <trkpt lat="39.4804220" lon="-3.8342040">
        <ele>741.8</ele>
        <time>2019-08-12T09:18:43Z</time>
      </trkpt>
      <trkpt lat="39.4804930" lon="-3.8342180">
        <ele>741.8</ele>
        <time>2019-08-12T09:18:44Z</time>
      </trkpt>
      <trkpt lat="39.4805650" lon="-3.8342330">
        <ele>741.7</ele>
        <time>2019-08-12T09:18:45Z</time>
      </trkpt>
      <trkpt lat="39.4806350" lon="-3.8342470">
        <ele>741.6</ele>
        <time>2019-08-12T09:18:46Z</time>
      </trkpt>
      <trkpt lat="39.4807060" lon="-3.8342620">
        <ele>741.5</ele>
        <time>2019-08-12T09:18:47Z</time>
      </trkpt>
      <trkpt lat="39.4807760" lon="-3.8342770">
        <ele>741.5</ele>
        <time>2019-08-12T09:18:48Z</time>
      </trkpt>
      <trkpt lat="39.4808460" lon="-3.8342920">
        <ele>741.4</ele>
        <time>2019-08-12T09:18:49Z</time>
      </trkpt>
      <trkpt lat="39.4809160" lon="-3.8343070">
        <ele>741.3</ele>
        <time>2019-08-12T09:18:50Z</time>
      </trkpt>
      <trkpt lat="39.4809850" lon="-3.8343220">
        <ele>741.2</ele>
        <time>2019-08-12T09:18:51Z</time>
      </trkpt>
      <trkpt lat="39.4810540" lon="-3.8343360">
        <ele>741.1</ele>
        <time>2019-08-12T09:18:52Z</time>
      </trkpt>
      <trkpt lat="39.4811230" lon="-3.8343510">
        <ele>741.0</ele>
        <time>2019-08-12T09:18:53Z</time>
      </trkpt>
      <trkpt lat="39.4811920" lon="-3.8343660">
        <ele>741.0</ele>
        <time>2019-08-12T09:18:54Z</time>
      </trkpt>
      <trkpt lat="39.4812610" lon="-3.8343800">
        <ele>740.9</ele>
        <time>2019-08-12T09:18:55Z</time>
      </trkpt>
      <trkpt lat="39.4813290" lon="-3.8343950">
        <ele>740.8</ele>
        <time>2019-08-12T09:18:56Z</time>
      </trkpt>
      <trkpt lat="39.4813980" lon="-3.8344090">
        <ele>740.8</ele>
        <time>2019-08-12T09:18:57Z</time>
      </trkpt>
      <trkpt lat="39.4814660" lon="-3.8344230">
        <ele>740.8</ele>
        <time>2019-08-12T09:18:58Z</time>
      </trkpt>
      <trkpt lat="39.4815340" lon="-3.8344360">
        <ele>740.8</ele>
        <time>2019-08-12T09:18:59Z</time>
      </trkpt>
      <trkpt lat="39.4816020" lon="-3.8344500">
        <ele>740.7</ele>
        <time>2019-08-12T09:19:00Z</time>
      </trkpt>
      <trkpt lat="39.4816700" lon="-3.8344630">
        <ele>740.7</ele>
        <time>2019-08-12T09:19:01Z</time>
      </trkpt>
      <trkpt lat="39.4817380" lon="-3.8344760">
        <ele>740.7</ele>
        <time>2019-08-12T09:19:02Z</time>
      </trkpt>
      <trkpt lat="39.4818040" lon="-3.8344890">
        <ele>740.7</ele>
        <time>2019-08-12T09:19:03Z</time>
      </trkpt>
      <trkpt lat="39.4818710" lon="-3.8345020">
        <ele>740.7</ele>
        <time>2019-08-12T09:19:04Z</time>
      </trkpt>
      <trkpt lat="39.4819370" lon="-3.8345160">
        <ele>740.6</ele>
        <time>2019-08-12T09:19:05Z</time>
      </trkpt>
      <trkpt lat="39.4820030" lon="-3.8345290">
        <ele>740.6</ele>
        <time>2019-08-12T09:19:06Z</time>
      </trkpt>
      <trkpt lat="39.4820680" lon="-3.8345420">
        <ele>740.5</ele>
        <time>2019-08-12T09:19:07Z</time>
      </trkpt>
      <trkpt lat="39.4821320" lon="-3.8345550">
        <ele>740.5</ele>
        <time>2019-08-12T09:19:08Z</time>
      </trkpt>
      <trkpt lat="39.4821960" lon="-3.8345680">
        <ele>740.4</ele>
        <time>2019-08-12T09:19:09Z</time>
      </trkpt>
      <trkpt lat="39.4822600" lon="-3.8345820">
        <ele>740.3</ele>
        <time>2019-08-12T09:19:10Z</time>
      </trkpt>
      <trkpt lat="39.4823230" lon="-3.8345950">
        <ele>740.3</ele>
        <time>2019-08-12T09:19:11Z</time>
      </trkpt>
      <trkpt lat="39.4823870" lon="-3.8346080">
        <ele>740.2</ele>
        <time>2019-08-12T09:19:12Z</time>
      </trkpt>
      <trkpt lat="39.4824490" lon="-3.8346220">
        <ele>740.2</ele>
        <time>2019-08-12T09:19:13Z</time>
      </trkpt>
      <trkpt lat="39.4825120" lon="-3.8346350">
        <ele>740.1</ele>
        <time>2019-08-12T09:19:14Z</time>
      </trkpt>
      <trkpt lat="39.4825750" lon="-3.8346480">
        <ele>740.1</ele>
        <time>2019-08-12T09:19:15Z</time>
      </trkpt>
      <trkpt lat="39.4826370" lon="-3.8346610">
        <ele>740.0</ele>
        <time>2019-08-12T09:19:16Z</time>
      </trkpt>
      <trkpt lat="39.4827000" lon="-3.8346750">
        <ele>739.9</ele>
        <time>2019-08-12T09:19:17Z</time>
      </trkpt>
      <trkpt lat="39.4827620" lon="-3.8346880">
        <ele>739.8</ele>
        <time>2019-08-12T09:19:18Z</time>
      </trkpt>
      <trkpt lat="39.4828250" lon="-3.8347010">
        <ele>739.8</ele>
        <time>2019-08-12T09:19:19Z</time>
      </trkpt>
      <trkpt lat="39.4828870" lon="-3.8347140">
        <ele>739.8</ele>
        <time>2019-08-12T09:19:20Z</time>
      </trkpt>
      <trkpt lat="39.4829500" lon="-3.8347270">
        <ele>739.7</ele>
        <time>2019-08-12T09:19:21Z</time>
      </trkpt>
      <trkpt lat="39.4830130" lon="-3.8347400">
        <ele>739.7</ele>
        <time>2019-08-12T09:19:22Z</time>
      </trkpt>
      <trkpt lat="39.4830770" lon="-3.8347530">
        <ele>739.7</ele>
        <time>2019-08-12T09:19:23Z</time>
      </trkpt>
      <trkpt lat="39.4831410" lon="-3.8347660">
        <ele>739.7</ele>
        <time>2019-08-12T09:19:24Z</time>
      </trkpt>
      <trkpt lat="39.4832050" lon="-3.8347790">
        <ele>739.6</ele>
        <time>2019-08-12T09:19:25Z</time>
      </trkpt>
      <trkpt lat="39.4832700" lon="-3.8347920">
        <ele>739.6</ele>
        <time>2019-08-12T09:19:26Z</time>
      </trkpt>
      <trkpt lat="39.4833350" lon="-3.8348050">
        <ele>739.5</ele>
        <time>2019-08-12T09:19:27Z</time>
      </trkpt>
      <trkpt lat="39.4834000" lon="-3.8348180">
        <ele>739.5</ele>
        <time>2019-08-12T09:19:28Z</time>
      </trkpt>
      <trkpt lat="39.4834660" lon="-3.8348320">
        <ele>739.4</ele>
        <time>2019-08-12T09:19:29Z</time>
      </trkpt>
      <trkpt lat="39.4835310" lon="-3.8348450">
        <ele>739.3</ele>
        <time>2019-08-12T09:19:30Z</time>
      </trkpt>
      <trkpt lat="39.4835970" lon="-3.8348580">
        <ele>739.2</ele>
        <time>2019-08-12T09:19:31Z</time>
      </trkpt>
      <trkpt lat="39.4836620" lon="-3.8348720">
        <ele>739.2</ele>
        <time>2019-08-12T09:19:32Z</time>
      </trkpt>
      <trkpt lat="39.4837280" lon="-3.8348860">
        <ele>739.1</ele>
        <time>2019-08-12T09:19:33Z</time>
      </trkpt>
      <trkpt lat="39.4837930" lon="-3.8349000">
        <ele>739.0</ele>
        <time>2019-08-12T09:19:34Z</time>
      </trkpt>
      <trkpt lat="39.4838580" lon="-3.8349140">
        <ele>738.9</ele>
        <time>2019-08-12T09:19:35Z</time>
      </trkpt>
      <trkpt lat="39.4839240" lon="-3.8349280">
        <ele>738.7</ele>
        <time>2019-08-12T09:19:36Z</time>
      </trkpt>
      <trkpt lat="39.4839890" lon="-3.8349420">
        <ele>738.6</ele>
        <time>2019-08-12T09:19:37Z</time>
      </trkpt>
      <trkpt lat="39.4840540" lon="-3.8349570">
        <ele>738.5</ele>
        <time>2019-08-12T09:19:38Z</time>
      </trkpt>
      <trkpt lat="39.4841180" lon="-3.8349710">
        <ele>738.5</ele>
        <time>2019-08-12T09:19:39Z</time>
      </trkpt>
      <trkpt lat="39.4841830" lon="-3.8349860">
        <ele>738.4</ele>
        <time>2019-08-12T09:19:40Z</time>
      </trkpt>
      <trkpt lat="39.4842470" lon="-3.8350000">
        <ele>738.4</ele>
        <time>2019-08-12T09:19:41Z</time>
      </trkpt>
      <trkpt lat="39.4843120" lon="-3.8350140">
        <ele>738.4</ele>
        <time>2019-08-12T09:19:42Z</time>
      </trkpt>
      <trkpt lat="39.4843760" lon="-3.8350280">
        <ele>738.3</ele>
        <time>2019-08-12T09:19:43Z</time>
      </trkpt>
      <trkpt lat="39.4844390" lon="-3.8350410">
        <ele>738.3</ele>
        <time>2019-08-12T09:19:44Z</time>
      </trkpt>
      <trkpt lat="39.4845030" lon="-3.8350550">
        <ele>738.3</ele>
        <time>2019-08-12T09:19:45Z</time>
      </trkpt>
      <trkpt lat="39.4845670" lon="-3.8350680">
        <ele>738.2</ele>
        <time>2019-08-12T09:19:46Z</time>
      </trkpt>
      <trkpt lat="39.4846310" lon="-3.8350810">
        <ele>738.2</ele>
        <time>2019-08-12T09:19:47Z</time>
      </trkpt>
      <trkpt lat="39.4846940" lon="-3.8350950">
        <ele>738.2</ele>
        <time>2019-08-12T09:19:48Z</time>
      </trkpt>
      <trkpt lat="39.4847590" lon="-3.8351080">
        <ele>738.1</ele>
        <time>2019-08-12T09:19:49Z</time>
      </trkpt>
      <trkpt lat="39.4848230" lon="-3.8351210">
        <ele>738.1</ele>
        <time>2019-08-12T09:19:50Z</time>
      </trkpt>
      <trkpt lat="39.4848870" lon="-3.8351340">
        <ele>738.0</ele>
        <time>2019-08-12T09:19:51Z</time>
      </trkpt>
      <trkpt lat="39.4849520" lon="-3.8351480">
        <ele>737.9</ele>
        <time>2019-08-12T09:19:52Z</time>
      </trkpt>
      <trkpt lat="39.4850180" lon="-3.8351610">
        <ele>737.9</ele>
        <time>2019-08-12T09:19:53Z</time>
      </trkpt>
      <trkpt lat="39.4850830" lon="-3.8351740">
        <ele>737.8</ele>
        <time>2019-08-12T09:19:54Z</time>
      </trkpt>
      <trkpt lat="39.4851490" lon="-3.8351870">
        <ele>737.8</ele>
        <time>2019-08-12T09:19:55Z</time>
      </trkpt>
      <trkpt lat="39.4852140" lon="-3.8352000">
        <ele>737.7</ele>
        <time>2019-08-12T09:19:56Z</time>
      </trkpt>
      <trkpt lat="39.4852800" lon="-3.8352130">
        <ele>737.6</ele>
        <time>2019-08-12T09:19:57Z</time>
      </trkpt>
      <trkpt lat="39.4853460" lon="-3.8352260">
        <ele>737.6</ele>
        <time>2019-08-12T09:19:58Z</time>
      </trkpt>
      <trkpt lat="39.4854110" lon="-3.8352380">
        <ele>737.6</ele>
        <time>2019-08-12T09:19:59Z</time>
      </trkpt>
      <trkpt lat="39.4854760" lon="-3.8352500">
        <ele>737.5</ele>
        <time>2019-08-12T09:20:00Z</time>
      </trkpt>
      <trkpt lat="39.4855410" lon="-3.8352610">
        <ele>737.5</ele>
        <time>2019-08-12T09:20:01Z</time>
      </trkpt>
      <trkpt lat="39.4856050" lon="-3.8352720">
        <ele>737.4</ele>
        <time>2019-08-12T09:20:02Z</time>
      </trkpt>
      <trkpt lat="39.4856700" lon="-3.8352840">
        <ele>737.4</ele>
        <time>2019-08-12T09:20:03Z</time>
      </trkpt>
      <trkpt lat="39.4857340" lon="-3.8352950">
        <ele>737.3</ele>
        <time>2019-08-12T09:20:04Z</time>
      </trkpt>
      <trkpt lat="39.4858320" lon="-3.8353130">
        <ele>737.3</ele>
        <time>2019-08-12T09:20:05Z</time>
      </trkpt>
      <trkpt lat="39.4858640" lon="-3.8353200">
        <ele>737.2</ele>
        <time>2019-08-12T09:20:06Z</time>
      </trkpt>
      <trkpt lat="39.4859290" lon="-3.8353330">
        <ele>737.2</ele>
        <time>2019-08-12T09:20:07Z</time>
      </trkpt>
      <trkpt lat="39.4859940" lon="-3.8353470">
        <ele>737.1</ele>
        <time>2019-08-12T09:20:08Z</time>
      </trkpt>
      <trkpt lat="39.4860600" lon="-3.8353610">
        <ele>737.1</ele>
        <time>2019-08-12T09:20:09Z</time>
      </trkpt>
      <trkpt lat="39.4861250" lon="-3.8353750">
        <ele>737.0</ele>
        <time>2019-08-12T09:20:10Z</time>
      </trkpt>
      <trkpt lat="39.4861900" lon="-3.8353880">
        <ele>737.0</ele>
        <time>2019-08-12T09:20:11Z</time>
      </trkpt>
      <trkpt lat="39.4862880" lon="-3.8354080">
        <ele>736.9</ele>
        <time>2019-08-12T09:20:12Z</time>
      </trkpt>
      <trkpt lat="39.4863200" lon="-3.8354150">
        <ele>736.8</ele>
        <time>2019-08-12T09:20:13Z</time>
      </trkpt>
      <trkpt lat="39.4863860" lon="-3.8354280">
        <ele>736.8</ele>
        <time>2019-08-12T09:20:14Z</time>
      </trkpt>
      <trkpt lat="39.4864510" lon="-3.8354410">
        <ele>736.8</ele>
        <time>2019-08-12T09:20:15Z</time>
      </trkpt>
      <trkpt lat="39.4865170" lon="-3.8354550">
        <ele>736.7</ele>
        <time>2019-08-12T09:20:16Z</time>
      </trkpt>
      <trkpt lat="39.4865830" lon="-3.8354700">
        <ele>736.7</ele>
        <time>2019-08-12T09:20:17Z</time>
      </trkpt>
      <trkpt lat="39.4866490" lon="-3.8354840">
        <ele>736.7</ele>
        <time>2019-08-12T09:20:18Z</time>
      </trkpt>
      <trkpt lat="39.4867160" lon="-3.8354980">
        <ele>736.6</ele>
        <time>2019-08-12T09:20:19Z</time>
      </trkpt>
      <trkpt lat="39.4867830" lon="-3.8355130">
        <ele>736.6</ele>
        <time>2019-08-12T09:20:20Z</time>
      </trkpt>
      <trkpt lat="39.4868490" lon="-3.8355270">
        <ele>736.5</ele>
        <time>2019-08-12T09:20:21Z</time>
      </trkpt>
      <trkpt lat="39.4869160" lon="-3.8355410">
        <ele>736.5</ele>
        <time>2019-08-12T09:20:22Z</time>
      </trkpt>
      <trkpt lat="39.4869830" lon="-3.8355550">
        <ele>736.4</ele>
        <time>2019-08-12T09:20:23Z</time>
      </trkpt>
      <trkpt lat="39.4870500" lon="-3.8355680">
        <ele>736.3</ele>
        <time>2019-08-12T09:20:24Z</time>
      </trkpt>
      <trkpt lat="39.4871160" lon="-3.8355820">
        <ele>736.3</ele>
        <time>2019-08-12T09:20:25Z</time>
      </trkpt>
      <trkpt lat="39.4871820" lon="-3.8355960">
        <ele>736.2</ele>
        <time>2019-08-12T09:20:26Z</time>
      </trkpt>
      <trkpt lat="39.4872480" lon="-3.8356100">
        <ele>736.1</ele>
        <time>2019-08-12T09:20:27Z</time>
      </trkpt>
      <trkpt lat="39.4873140" lon="-3.8356230">
        <ele>736.0</ele>
        <time>2019-08-12T09:20:28Z</time>
      </trkpt>
      <trkpt lat="39.4873790" lon="-3.8356370">
        <ele>735.9</ele>
        <time>2019-08-12T09:20:29Z</time>
      </trkpt>
      <trkpt lat="39.4874440" lon="-3.8356510">
        <ele>735.8</ele>
        <time>2019-08-12T09:20:30Z</time>
      </trkpt>
      <trkpt lat="39.4875090" lon="-3.8356640">
        <ele>735.7</ele>
        <time>2019-08-12T09:20:31Z</time>
      </trkpt>
      <trkpt lat="39.4875740" lon="-3.8356780">
        <ele>735.6</ele>
        <time>2019-08-12T09:20:32Z</time>
      </trkpt>
      <trkpt lat="39.4876390" lon="-3.8356920">
        <ele>735.6</ele>
        <time>2019-08-12T09:20:33Z</time>
      </trkpt>
      <trkpt lat="39.4877040" lon="-3.8357060">
        <ele>735.5</ele>
        <time>2019-08-12T09:20:34Z</time>
      </trkpt>
      <trkpt lat="39.4877700" lon="-3.8357200">
        <ele>735.5</ele>
        <time>2019-08-12T09:20:35Z</time>
      </trkpt>
      <trkpt lat="39.4878360" lon="-3.8357340">
        <ele>735.4</ele>
        <time>2019-08-12T09:20:36Z</time>
      </trkpt>
      <trkpt lat="39.4879030" lon="-3.8357490">
        <ele>735.4</ele>
        <time>2019-08-12T09:20:37Z</time>
      </trkpt>
      <trkpt lat="39.4879710" lon="-3.8357630">
        <ele>735.4</ele>
        <time>2019-08-12T09:20:38Z</time>
      </trkpt>
      <trkpt lat="39.4880390" lon="-3.8357780">
        <ele>735.3</ele>
        <time>2019-08-12T09:20:39Z</time>
      </trkpt>
      <trkpt lat="39.4881080" lon="-3.8357930">
        <ele>735.3</ele>
        <time>2019-08-12T09:20:40Z</time>
      </trkpt>
      <trkpt lat="39.4881780" lon="-3.8358080">
        <ele>735.2</ele>
        <time>2019-08-12T09:20:41Z</time>
      </trkpt>
      <trkpt lat="39.4882480" lon="-3.8358230">
        <ele>735.2</ele>
        <time>2019-08-12T09:20:42Z</time>
      </trkpt>
      <trkpt lat="39.4883180" lon="-3.8358380">
        <ele>735.1</ele>
        <time>2019-08-12T09:20:43Z</time>
      </trkpt>
      <trkpt lat="39.4883890" lon="-3.8358530">
        <ele>735.0</ele>
        <time>2019-08-12T09:20:44Z</time>
      </trkpt>
      <trkpt lat="39.4884600" lon="-3.8358670">
        <ele>735.0</ele>
        <time>2019-08-12T09:20:45Z</time>
      </trkpt>
      <trkpt lat="39.4885310" lon="-3.8358820">
        <ele>734.9</ele>
        <time>2019-08-12T09:20:46Z</time>
      </trkpt>
      <trkpt lat="39.4886010" lon="-3.8358960">
        <ele>734.9</ele>
        <time>2019-08-12T09:20:47Z</time>
      </trkpt>
      <trkpt lat="39.4886720" lon="-3.8359100">
        <ele>734.8</ele>
        <time>2019-08-12T09:20:48Z</time>
      </trkpt>
      <trkpt lat="39.4887430" lon="-3.8359240">
        <ele>734.8</ele>
        <time>2019-08-12T09:20:49Z</time>
      </trkpt>
      <trkpt lat="39.4888130" lon="-3.8359370">
        <ele>734.8</ele>
        <time>2019-08-12T09:20:50Z</time>
      </trkpt>
      <trkpt lat="39.4888830" lon="-3.8359500">
        <ele>734.7</ele>
        <time>2019-08-12T09:20:51Z</time>
      </trkpt>
      <trkpt lat="39.4889540" lon="-3.8359640">
        <ele>734.7</ele>
        <time>2019-08-12T09:20:52Z</time>
      </trkpt>
      <trkpt lat="39.4890240" lon="-3.8359770">
        <ele>734.6</ele>
        <time>2019-08-12T09:20:53Z</time>
      </trkpt>
      <trkpt lat="39.4890940" lon="-3.8359910">
        <ele>734.6</ele>
        <time>2019-08-12T09:20:54Z</time>
      </trkpt>
      <trkpt lat="39.4891640" lon="-3.8360040">
        <ele>734.5</ele>
        <time>2019-08-12T09:20:55Z</time>
      </trkpt>
      <trkpt lat="39.4892340" lon="-3.8360180">
        <ele>734.5</ele>
        <time>2019-08-12T09:20:56Z</time>
      </trkpt>
      <trkpt lat="39.4893040" lon="-3.8360320">
        <ele>734.4</ele>
        <time>2019-08-12T09:20:57Z</time>
      </trkpt>
      <trkpt lat="39.4893750" lon="-3.8360460">
        <ele>734.3</ele>
        <time>2019-08-12T09:20:58Z</time>
      </trkpt>
      <trkpt lat="39.4894440" lon="-3.8360600">
        <ele>734.2</ele>
        <time>2019-08-12T09:20:59Z</time>
      </trkpt>
      <trkpt lat="39.4895140" lon="-3.8360740">
        <ele>734.2</ele>
        <time>2019-08-12T09:21:00Z</time>
      </trkpt>
      <trkpt lat="39.4895830" lon="-3.8360890">
        <ele>734.1</ele>
        <time>2019-08-12T09:21:01Z</time>
      </trkpt>
      <trkpt lat="39.4896520" lon="-3.8361030">
        <ele>734.1</ele>
        <time>2019-08-12T09:21:02Z</time>
      </trkpt>
      <trkpt lat="39.4897210" lon="-3.8361180">
        <ele>734.0</ele>
        <time>2019-08-12T09:21:03Z</time>
      </trkpt>
      <trkpt lat="39.4897880" lon="-3.8361320">
        <ele>733.9</ele>
        <time>2019-08-12T09:21:04Z</time>
      </trkpt>
      <trkpt lat="39.4898560" lon="-3.8361460">
        <ele>733.9</ele>
        <time>2019-08-12T09:21:05Z</time>
      </trkpt>
      <trkpt lat="39.4899220" lon="-3.8361600">
        <ele>733.8</ele>
        <time>2019-08-12T09:21:06Z</time>
      </trkpt>
      <trkpt lat="39.4899880" lon="-3.8361740">
        <ele>733.8</ele>
        <time>2019-08-12T09:21:07Z</time>
      </trkpt>
      <trkpt lat="39.4900530" lon="-3.8361880">
        <ele>733.8</ele>
        <time>2019-08-12T09:21:08Z</time>
      </trkpt>
      <trkpt lat="39.4901180" lon="-3.8362010">
        <ele>733.8</ele>
        <time>2019-08-12T09:21:09Z</time>
      </trkpt>
      <trkpt lat="39.4901830" lon="-3.8362150">
        <ele>733.7</ele>
        <time>2019-08-12T09:21:10Z</time>
      </trkpt>
      <trkpt lat="39.4902470" lon="-3.8362280">
        <ele>733.7</ele>
        <time>2019-08-12T09:21:11Z</time>
      </trkpt>
      <trkpt lat="39.4903120" lon="-3.8362420">
        <ele>733.7</ele>
        <time>2019-08-12T09:21:12Z</time>
      </trkpt>
      <trkpt lat="39.4903770" lon="-3.8362550">
        <ele>733.7</ele>
        <time>2019-08-12T09:21:13Z</time>
      </trkpt>
      <trkpt lat="39.4904420" lon="-3.8362690">
        <ele>733.7</ele>
        <time>2019-08-12T09:21:14Z</time>
      </trkpt>
      <trkpt lat="39.4905070" lon="-3.8362830">
        <ele>733.6</ele>
        <time>2019-08-12T09:21:15Z</time>
      </trkpt>
      <trkpt lat="39.4905730" lon="-3.8362960">
        <ele>733.6</ele>
        <time>2019-08-12T09:21:16Z</time>
      </trkpt>
      <trkpt lat="39.4906390" lon="-3.8363100">
        <ele>733.6</ele>
        <time>2019-08-12T09:21:17Z</time>
      </trkpt>
      <trkpt lat="39.4907040" lon="-3.8363250">
        <ele>733.5</ele>
        <time>2019-08-12T09:21:18Z</time>
      </trkpt>
      <trkpt lat="39.4907690" lon="-3.8363400">
        <ele>733.5</ele>
        <time>2019-08-12T09:21:19Z</time>
      </trkpt>
      <trkpt lat="39.4908340" lon="-3.8363560">
        <ele>733.4</ele>
        <time>2019-08-12T09:21:20Z</time>
      </trkpt>
      <trkpt lat="39.4908980" lon="-3.8363720">
        <ele>733.4</ele>
        <time>2019-08-12T09:21:21Z</time>
      </trkpt>
      <trkpt lat="39.4909620" lon="-3.8363890">
        <ele>733.3</ele>
        <time>2019-08-12T09:21:22Z</time>
      </trkpt>
      <trkpt lat="39.4910260" lon="-3.8364050">
        <ele>733.2</ele>
        <time>2019-08-12T09:21:23Z</time>
      </trkpt>
      <trkpt lat="39.4910910" lon="-3.8364210">
        <ele>733.1</ele>
        <time>2019-08-12T09:21:24Z</time>
      </trkpt>
      <trkpt lat="39.4911550" lon="-3.8364360">
        <ele>733.1</ele>
        <time>2019-08-12T09:21:25Z</time>
      </trkpt>
      <trkpt lat="39.4912210" lon="-3.8364510">
        <ele>733.0</ele>
        <time>2019-08-12T09:21:26Z</time>
      </trkpt>
      <trkpt lat="39.4912860" lon="-3.8364650">
        <ele>732.9</ele>
        <time>2019-08-12T09:21:27Z</time>
      </trkpt>
      <trkpt lat="39.4913520" lon="-3.8364790">
        <ele>732.9</ele>
        <time>2019-08-12T09:21:28Z</time>
      </trkpt>
      <trkpt lat="39.4914170" lon="-3.8364920">
        <ele>732.8</ele>
        <time>2019-08-12T09:21:29Z</time>
      </trkpt>
      <trkpt lat="39.4914830" lon="-3.8365050">
        <ele>732.7</ele>
        <time>2019-08-12T09:21:30Z</time>
      </trkpt>
      <trkpt lat="39.4915500" lon="-3.8365180">
        <ele>732.6</ele>
        <time>2019-08-12T09:21:31Z</time>
      </trkpt>
      <trkpt lat="39.4916160" lon="-3.8365300">
        <ele>732.5</ele>
        <time>2019-08-12T09:21:32Z</time>
      </trkpt>
      <trkpt lat="39.4916820" lon="-3.8365430">
        <ele>732.5</ele>
        <time>2019-08-12T09:21:33Z</time>
      </trkpt>
      <trkpt lat="39.4917480" lon="-3.8365550">
        <ele>732.4</ele>
        <time>2019-08-12T09:21:34Z</time>
      </trkpt>
      <trkpt lat="39.4918140" lon="-3.8365680">
        <ele>732.4</ele>
        <time>2019-08-12T09:21:35Z</time>
      </trkpt>
      <trkpt lat="39.4918800" lon="-3.8365800">
        <ele>732.3</ele>
        <time>2019-08-12T09:21:36Z</time>
      </trkpt>
      <trkpt lat="39.4919450" lon="-3.8365930">
        <ele>732.3</ele>
        <time>2019-08-12T09:21:37Z</time>
      </trkpt>
      <trkpt lat="39.4920110" lon="-3.8366050">
        <ele>732.2</ele>
        <time>2019-08-12T09:21:38Z</time>
      </trkpt>
      <trkpt lat="39.4920770" lon="-3.8366180">
        <ele>732.2</ele>
        <time>2019-08-12T09:21:39Z</time>
      </trkpt>
      <trkpt lat="39.4921420" lon="-3.8366300">
        <ele>732.2</ele>
        <time>2019-08-12T09:21:40Z</time>
      </trkpt>
      <trkpt lat="39.4922070" lon="-3.8366430">
        <ele>732.1</ele>
        <time>2019-08-12T09:21:41Z</time>
      </trkpt>
      <trkpt lat="39.4922730" lon="-3.8366560">
        <ele>732.1</ele>
        <time>2019-08-12T09:21:42Z</time>
      </trkpt>
      <trkpt lat="39.4923380" lon="-3.8366690">
        <ele>732.0</ele>
        <time>2019-08-12T09:21:43Z</time>
      </trkpt>
      <trkpt lat="39.4924020" lon="-3.8366820">
        <ele>732.0</ele>
        <time>2019-08-12T09:21:44Z</time>
      </trkpt>
      <trkpt lat="39.4924670" lon="-3.8366950">
        <ele>731.9</ele>
        <time>2019-08-12T09:21:45Z</time>
      </trkpt>
      <trkpt lat="39.4925320" lon="-3.8367080">
        <ele>731.9</ele>
        <time>2019-08-12T09:21:46Z</time>
      </trkpt>
      <trkpt lat="39.4925960" lon="-3.8367220">
        <ele>731.8</ele>
        <time>2019-08-12T09:21:47Z</time>
      </trkpt>
      <trkpt lat="39.4926600" lon="-3.8367350">
        <ele>731.8</ele>
        <time>2019-08-12T09:21:48Z</time>
      </trkpt>
      <trkpt lat="39.4927240" lon="-3.8367490">
        <ele>731.8</ele>
        <time>2019-08-12T09:21:49Z</time>
      </trkpt>
      <trkpt lat="39.4927880" lon="-3.8367630">
        <ele>731.8</ele>
        <time>2019-08-12T09:21:50Z</time>
      </trkpt>
      <trkpt lat="39.4928520" lon="-3.8367770">
        <ele>731.8</ele>
        <time>2019-08-12T09:21:51Z</time>
      </trkpt>
      <trkpt lat="39.4929150" lon="-3.8367910">
        <ele>731.8</ele>
        <time>2019-08-12T09:21:52Z</time>
      </trkpt>
      <trkpt lat="39.4929790" lon="-3.8368060">
        <ele>731.8</ele>
        <time>2019-08-12T09:21:53Z</time>
      </trkpt>
      <trkpt lat="39.4930420" lon="-3.8368210">
        <ele>731.8</ele>
        <time>2019-08-12T09:21:54Z</time>
      </trkpt>
      <trkpt lat="39.4931050" lon="-3.8368350">
        <ele>731.8</ele>
        <time>2019-08-12T09:21:55Z</time>
      </trkpt>
      <trkpt lat="39.4931680" lon="-3.8368500">
        <ele>731.8</ele>
        <time>2019-08-12T09:21:56Z</time>
      </trkpt>
      <trkpt lat="39.4932300" lon="-3.8368640">
        <ele>731.8</ele>
        <time>2019-08-12T09:21:57Z</time>
      </trkpt>
      <trkpt lat="39.4932930" lon="-3.8368790">
        <ele>731.8</ele>
        <time>2019-08-12T09:21:58Z</time>
      </trkpt>
      <trkpt lat="39.4933550" lon="-3.8368940">
        <ele>731.8</ele>
        <time>2019-08-12T09:21:59Z</time>
      </trkpt>
      <trkpt lat="39.4934170" lon="-3.8369080">
        <ele>731.8</ele>
        <time>2019-08-12T09:22:00Z</time>
      </trkpt>
      <trkpt lat="39.4934800" lon="-3.8369220">
        <ele>731.8</ele>
        <time>2019-08-12T09:22:01Z</time>
      </trkpt>
      <trkpt lat="39.4935420" lon="-3.8369360">
        <ele>731.8</ele>
        <time>2019-08-12T09:22:02Z</time>
      </trkpt>
      <trkpt lat="39.4936040" lon="-3.8369490">
        <ele>731.8</ele>
        <time>2019-08-12T09:22:03Z</time>
      </trkpt>
      <trkpt lat="39.4936660" lon="-3.8369630">
        <ele>731.8</ele>
        <time>2019-08-12T09:22:04Z</time>
      </trkpt>
      <trkpt lat="39.4937280" lon="-3.8369760">
        <ele>731.8</ele>
        <time>2019-08-12T09:22:05Z</time>
      </trkpt>
      <trkpt lat="39.4937910" lon="-3.8369890">
        <ele>731.8</ele>
        <time>2019-08-12T09:22:06Z</time>
      </trkpt>
      <trkpt lat="39.4938530" lon="-3.8370010">
        <ele>731.8</ele>
        <time>2019-08-12T09:22:07Z</time>
      </trkpt>
      <trkpt lat="39.4939160" lon="-3.8370140">
        <ele>731.8</ele>
        <time>2019-08-12T09:22:08Z</time>
      </trkpt>
      <trkpt lat="39.4939800" lon="-3.8370260">
        <ele>731.8</ele>
        <time>2019-08-12T09:22:09Z</time>
      </trkpt>
      <trkpt lat="39.4940440" lon="-3.8370380">
        <ele>731.8</ele>
        <time>2019-08-12T09:22:10Z</time>
      </trkpt>
      <trkpt lat="39.4941090" lon="-3.8370490">
        <ele>731.8</ele>
        <time>2019-08-12T09:22:11Z</time>
      </trkpt>
      <trkpt lat="39.4941730" lon="-3.8370610">
        <ele>731.8</ele>
        <time>2019-08-12T09:22:12Z</time>
      </trkpt>
      <trkpt lat="39.4942390" lon="-3.8370720">
        <ele>731.8</ele>
        <time>2019-08-12T09:22:13Z</time>
      </trkpt>
      <trkpt lat="39.4943040" lon="-3.8370830">
        <ele>731.8</ele>
        <time>2019-08-12T09:22:14Z</time>
      </trkpt>
      <trkpt lat="39.4943690" lon="-3.8370940">
        <ele>731.8</ele>
        <time>2019-08-12T09:22:15Z</time>
      </trkpt>
      <trkpt lat="39.4944350" lon="-3.8371060">
        <ele>731.8</ele>
        <time>2019-08-12T09:22:16Z</time>
      </trkpt>
      <trkpt lat="39.4945010" lon="-3.8371170">
        <ele>731.8</ele>
        <time>2019-08-12T09:22:17Z</time>
      </trkpt>
      <trkpt lat="39.4945660" lon="-3.8371290">
        <ele>731.8</ele>
        <time>2019-08-12T09:22:18Z</time>
      </trkpt>
      <trkpt lat="39.4946320" lon="-3.8371410">
        <ele>731.8</ele>
        <time>2019-08-12T09:22:19Z</time>
      </trkpt>
      <trkpt lat="39.4946970" lon="-3.8371530">
        <ele>731.8</ele>
        <time>2019-08-12T09:22:20Z</time>
      </trkpt>
      <trkpt lat="39.4947620" lon="-3.8371650">
        <ele>731.7</ele>
        <time>2019-08-12T09:22:21Z</time>
      </trkpt>
      <trkpt lat="39.4948270" lon="-3.8371780">
        <ele>731.7</ele>
        <time>2019-08-12T09:22:22Z</time>
      </trkpt>
      <trkpt lat="39.4948920" lon="-3.8371900">
        <ele>731.7</ele>
        <time>2019-08-12T09:22:23Z</time>
      </trkpt>
      <trkpt lat="39.4949560" lon="-3.8372030">
        <ele>731.6</ele>
        <time>2019-08-12T09:22:24Z</time>
      </trkpt>
      <trkpt lat="39.4950200" lon="-3.8372150">
        <ele>731.5</ele>
        <time>2019-08-12T09:22:25Z</time>
      </trkpt>
      <trkpt lat="39.4950850" lon="-3.8372280">
        <ele>731.4</ele>
        <time>2019-08-12T09:22:26Z</time>
      </trkpt>
      <trkpt lat="39.4951480" lon="-3.8372410">
        <ele>731.4</ele>
        <time>2019-08-12T09:22:27Z</time>
      </trkpt>
      <trkpt lat="39.4952120" lon="-3.8372530">
        <ele>731.3</ele>
        <time>2019-08-12T09:22:28Z</time>
      </trkpt>
      <trkpt lat="39.4952760" lon="-3.8372660">
        <ele>731.2</ele>
        <time>2019-08-12T09:22:29Z</time>
      </trkpt>
      <trkpt lat="39.4953390" lon="-3.8372780">
        <ele>731.1</ele>
        <time>2019-08-12T09:22:30Z</time>
      </trkpt>
      <trkpt lat="39.4954020" lon="-3.8372910">
        <ele>731.0</ele>
        <time>2019-08-12T09:22:31Z</time>
      </trkpt>
      <trkpt lat="39.4954650" lon="-3.8373040">
        <ele>730.9</ele>
        <time>2019-08-12T09:22:32Z</time>
      </trkpt>
      <trkpt lat="39.4955290" lon="-3.8373170">
        <ele>730.9</ele>
        <time>2019-08-12T09:22:33Z</time>
      </trkpt>
      <trkpt lat="39.4955920" lon="-3.8373300">
        <ele>730.8</ele>
        <time>2019-08-12T09:22:34Z</time>
      </trkpt>
      <trkpt lat="39.4956560" lon="-3.8373430">
        <ele>730.7</ele>
        <time>2019-08-12T09:22:35Z</time>
      </trkpt>
      <trkpt lat="39.4957200" lon="-3.8373570">
        <ele>730.7</ele>
        <time>2019-08-12T09:22:36Z</time>
      </trkpt>
      <trkpt lat="39.4957840" lon="-3.8373710">
        <ele>730.6</ele>
        <time>2019-08-12T09:22:37Z</time>
      </trkpt>
      <trkpt lat="39.4958490" lon="-3.8373850">
        <ele>730.5</ele>
        <time>2019-08-12T09:22:38Z</time>
      </trkpt>
      <trkpt lat="39.4959130" lon="-3.8374000">
        <ele>730.4</ele>
        <time>2019-08-12T09:22:39Z</time>
      </trkpt>
      <trkpt lat="39.4959790" lon="-3.8374150">
        <ele>730.3</ele>
        <time>2019-08-12T09:22:40Z</time>
      </trkpt>
      <trkpt lat="39.4960440" lon="-3.8374290">
        <ele>730.2</ele>
        <time>2019-08-12T09:22:41Z</time>
      </trkpt>
      <trkpt lat="39.4961090" lon="-3.8374440">
        <ele>730.1</ele>
        <time>2019-08-12T09:22:42Z</time>
      </trkpt>
      <trkpt lat="39.4961750" lon="-3.8374580">
        <ele>730.0</ele>
        <time>2019-08-12T09:22:43Z</time>
      </trkpt>
      <trkpt lat="39.4962400" lon="-3.8374730">
        <ele>730.0</ele>
        <time>2019-08-12T09:22:44Z</time>
      </trkpt>
      <trkpt lat="39.4963060" lon="-3.8374870">
        <ele>729.9</ele>
        <time>2019-08-12T09:22:45Z</time>
      </trkpt>
      <trkpt lat="39.4963710" lon="-3.8375000">
        <ele>729.9</ele>
        <time>2019-08-12T09:22:46Z</time>
      </trkpt>
      <trkpt lat="39.4964360" lon="-3.8375130">
        <ele>729.9</ele>
        <time>2019-08-12T09:22:47Z</time>
      </trkpt>
      <trkpt lat="39.4965010" lon="-3.8375250">
        <ele>729.8</ele>
        <time>2019-08-12T09:22:48Z</time>
      </trkpt>
      <trkpt lat="39.4965660" lon="-3.8375370">
        <ele>729.8</ele>
        <time>2019-08-12T09:22:49Z</time>
      </trkpt>
      <trkpt lat="39.4966320" lon="-3.8375480">
        <ele>729.8</ele>
        <time>2019-08-12T09:22:50Z</time>
      </trkpt>
      <trkpt lat="39.4966970" lon="-3.8375600">
        <ele>729.8</ele>
        <time>2019-08-12T09:22:51Z</time>
      </trkpt>
      <trkpt lat="39.4967620" lon="-3.8375710">
        <ele>729.7</ele>
        <time>2019-08-12T09:22:52Z</time>
      </trkpt>
      <trkpt lat="39.4968270" lon="-3.8375820">
        <ele>729.7</ele>
        <time>2019-08-12T09:22:53Z</time>
      </trkpt>
      <trkpt lat="39.4968930" lon="-3.8375930">
        <ele>729.6</ele>
        <time>2019-08-12T09:22:54Z</time>
      </trkpt>
      <trkpt lat="39.4969590" lon="-3.8376050">
        <ele>729.5</ele>
        <time>2019-08-12T09:22:55Z</time>
      </trkpt>
      <trkpt lat="39.4970260" lon="-3.8376160">
        <ele>729.4</ele>
        <time>2019-08-12T09:22:56Z</time>
      </trkpt>
      <trkpt lat="39.4970930" lon="-3.8376280">
        <ele>729.4</ele>
        <time>2019-08-12T09:22:57Z</time>
      </trkpt>
      <trkpt lat="39.4971600" lon="-3.8376410">
        <ele>729.3</ele>
        <time>2019-08-12T09:22:58Z</time>
      </trkpt>
      <trkpt lat="39.4972280" lon="-3.8376530">
        <ele>729.2</ele>
        <time>2019-08-12T09:22:59Z</time>
      </trkpt>
      <trkpt lat="39.4972960" lon="-3.8376650">
        <ele>729.1</ele>
        <time>2019-08-12T09:23:00Z</time>
      </trkpt>
      <trkpt lat="39.4973630" lon="-3.8376780">
        <ele>729.0</ele>
        <time>2019-08-12T09:23:01Z</time>
      </trkpt>
      <trkpt lat="39.4974320" lon="-3.8376900">
        <ele>728.9</ele>
        <time>2019-08-12T09:23:02Z</time>
      </trkpt>
      <trkpt lat="39.4975000" lon="-3.8377030">
        <ele>728.9</ele>
        <time>2019-08-12T09:23:03Z</time>
      </trkpt>
      <trkpt lat="39.4975680" lon="-3.8377160">
        <ele>728.8</ele>
        <time>2019-08-12T09:23:04Z</time>
      </trkpt>
      <trkpt lat="39.4976360" lon="-3.8377280">
        <ele>728.8</ele>
        <time>2019-08-12T09:23:05Z</time>
      </trkpt>
      <trkpt lat="39.4977040" lon="-3.8377410">
        <ele>728.8</ele>
        <time>2019-08-12T09:23:06Z</time>
      </trkpt>
      <trkpt lat="39.4977720" lon="-3.8377530">
        <ele>728.7</ele>
        <time>2019-08-12T09:23:07Z</time>
      </trkpt>
      <trkpt lat="39.4978400" lon="-3.8377660">
        <ele>728.6</ele>
        <time>2019-08-12T09:23:08Z</time>
      </trkpt>
      <trkpt lat="39.4979080" lon="-3.8377790">
        <ele>728.6</ele>
        <time>2019-08-12T09:23:09Z</time>
      </trkpt>
      <trkpt lat="39.4979760" lon="-3.8377920">
        <ele>728.5</ele>
        <time>2019-08-12T09:23:10Z</time>
      </trkpt>
      <trkpt lat="39.4980450" lon="-3.8378050">
        <ele>728.4</ele>
        <time>2019-08-12T09:23:11Z</time>
      </trkpt>
      <trkpt lat="39.4981130" lon="-3.8378180">
        <ele>728.3</ele>
        <time>2019-08-12T09:23:12Z</time>
      </trkpt>
      <trkpt lat="39.4981810" lon="-3.8378310">
        <ele>728.2</ele>
        <time>2019-08-12T09:23:13Z</time>
      </trkpt>
      <trkpt lat="39.4982490" lon="-3.8378450">
        <ele>728.1</ele>
        <time>2019-08-12T09:23:14Z</time>
      </trkpt>
      <trkpt lat="39.4983180" lon="-3.8378590">
        <ele>728.1</ele>
        <time>2019-08-12T09:23:15Z</time>
      </trkpt>
      <trkpt lat="39.4983860" lon="-3.8378730">
        <ele>728.0</ele>
        <time>2019-08-12T09:23:16Z</time>
      </trkpt>
      <trkpt lat="39.4984550" lon="-3.8378870">
        <ele>728.0</ele>
        <time>2019-08-12T09:23:17Z</time>
      </trkpt>
      <trkpt lat="39.4985230" lon="-3.8379010">
        <ele>727.9</ele>
        <time>2019-08-12T09:23:18Z</time>
      </trkpt>
      <trkpt lat="39.4985920" lon="-3.8379150">
        <ele>727.9</ele>
        <time>2019-08-12T09:23:19Z</time>
      </trkpt>
      <trkpt lat="39.4986610" lon="-3.8379300">
        <ele>727.9</ele>
        <time>2019-08-12T09:23:20Z</time>
      </trkpt>
      <trkpt lat="39.4987310" lon="-3.8379440">
        <ele>727.8</ele>
        <time>2019-08-12T09:23:21Z</time>
      </trkpt>
      <trkpt lat="39.4988010" lon="-3.8379590">
        <ele>727.8</ele>
        <time>2019-08-12T09:23:22Z</time>
      </trkpt>
      <trkpt lat="39.4988710" lon="-3.8379730">
        <ele>727.8</ele>
        <time>2019-08-12T09:23:23Z</time>
      </trkpt>
      <trkpt lat="39.4989410" lon="-3.8379870">
        <ele>727.8</ele>
        <time>2019-08-12T09:23:24Z</time>
      </trkpt>
      <trkpt lat="39.4990120" lon="-3.8380010">
        <ele>727.8</ele>
        <time>2019-08-12T09:23:25Z</time>
      </trkpt>
      <trkpt lat="39.4990830" lon="-3.8380140">
        <ele>727.8</ele>
        <time>2019-08-12T09:23:26Z</time>
      </trkpt>
      <trkpt lat="39.4991530" lon="-3.8380280">
        <ele>727.8</ele>
        <time>2019-08-12T09:23:27Z</time>
      </trkpt>
      <trkpt lat="39.4992240" lon="-3.8380410">
        <ele>727.8</ele>
        <time>2019-08-12T09:23:28Z</time>
      </trkpt>
      <trkpt lat="39.4992950" lon="-3.8380550">
        <ele>727.8</ele>
        <time>2019-08-12T09:23:29Z</time>
      </trkpt>
      <trkpt lat="39.4993650" lon="-3.8380680">
        <ele>727.8</ele>
        <time>2019-08-12T09:23:30Z</time>
      </trkpt>
      <trkpt lat="39.4994360" lon="-3.8380810">
        <ele>727.8</ele>
        <time>2019-08-12T09:23:31Z</time>
      </trkpt>
      <trkpt lat="39.4995050" lon="-3.8380940">
        <ele>727.8</ele>
        <time>2019-08-12T09:23:32Z</time>
      </trkpt>
      <trkpt lat="39.4995740" lon="-3.8381070">
        <ele>727.8</ele>
        <time>2019-08-12T09:23:33Z</time>
      </trkpt>
      <trkpt lat="39.4996430" lon="-3.8381200">
        <ele>727.8</ele>
        <time>2019-08-12T09:23:34Z</time>
      </trkpt>
      <trkpt lat="39.4997110" lon="-3.8381330">
        <ele>727.8</ele>
        <time>2019-08-12T09:23:35Z</time>
      </trkpt>
      <trkpt lat="39.4997780" lon="-3.8381460">
        <ele>727.8</ele>
        <time>2019-08-12T09:23:36Z</time>
      </trkpt>
      <trkpt lat="39.4998440" lon="-3.8381590">
        <ele>727.8</ele>
        <time>2019-08-12T09:23:37Z</time>
      </trkpt>
      <trkpt lat="39.4999090" lon="-3.8381720">
        <ele>727.8</ele>
        <time>2019-08-12T09:23:38Z</time>
      </trkpt>
      <trkpt lat="39.4999730" lon="-3.8381850">
        <ele>727.8</ele>
        <time>2019-08-12T09:23:39Z</time>
      </trkpt>
      <trkpt lat="39.5000350" lon="-3.8381980">
        <ele>727.8</ele>
        <time>2019-08-12T09:23:40Z</time>
      </trkpt>
      <trkpt lat="39.5000970" lon="-3.8382110">
        <ele>727.8</ele>
        <time>2019-08-12T09:23:41Z</time>
      </trkpt>
      <trkpt lat="39.5001570" lon="-3.8382240">
        <ele>727.8</ele>
        <time>2019-08-12T09:23:42Z</time>
      </trkpt>
      <trkpt lat="39.5002160" lon="-3.8382370">
        <ele>727.8</ele>
        <time>2019-08-12T09:23:43Z</time>
      </trkpt>
      <trkpt lat="39.5002750" lon="-3.8382510">
        <ele>727.8</ele>
        <time>2019-08-12T09:23:44Z</time>
      </trkpt>
      <trkpt lat="39.5003350" lon="-3.8382640">
        <ele>727.8</ele>
        <time>2019-08-12T09:23:45Z</time>
      </trkpt>
      <trkpt lat="39.5003960" lon="-3.8382780">
        <ele>727.8</ele>
        <time>2019-08-12T09:23:46Z</time>
      </trkpt>
      <trkpt lat="39.5004590" lon="-3.8382920">
        <ele>727.7</ele>
        <time>2019-08-12T09:23:47Z</time>
      </trkpt>
      <trkpt lat="39.5005230" lon="-3.8383070">
        <ele>727.7</ele>
        <time>2019-08-12T09:23:48Z</time>
      </trkpt>
      <trkpt lat="39.5005890" lon="-3.8383210">
        <ele>727.6</ele>
        <time>2019-08-12T09:23:49Z</time>
      </trkpt>
      <trkpt lat="39.5006550" lon="-3.8383360">
        <ele>727.4</ele>
        <time>2019-08-12T09:23:50Z</time>
      </trkpt>
      <trkpt lat="39.5007210" lon="-3.8383500">
        <ele>727.3</ele>
        <time>2019-08-12T09:23:51Z</time>
      </trkpt>
      <trkpt lat="39.5007880" lon="-3.8383640">
        <ele>727.2</ele>
        <time>2019-08-12T09:23:52Z</time>
      </trkpt>
      <trkpt lat="39.5008540" lon="-3.8383780">
        <ele>727.1</ele>
        <time>2019-08-12T09:23:53Z</time>
      </trkpt>
      <trkpt lat="39.5009200" lon="-3.8383920">
        <ele>727.0</ele>
        <time>2019-08-12T09:23:54Z</time>
      </trkpt>
      <trkpt lat="39.5009860" lon="-3.8384060">
        <ele>726.9</ele>
        <time>2019-08-12T09:23:55Z</time>
      </trkpt>
      <trkpt lat="39.5010520" lon="-3.8384190">
        <ele>726.9</ele>
        <time>2019-08-12T09:23:56Z</time>
      </trkpt>
      <trkpt lat="39.5011170" lon="-3.8384320">
        <ele>726.8</ele>
        <time>2019-08-12T09:23:57Z</time>
      </trkpt>
      <trkpt lat="39.5011820" lon="-3.8384450">
        <ele>726.7</ele>
        <time>2019-08-12T09:23:58Z</time>
      </trkpt>
      <trkpt lat="39.5012480" lon="-3.8384580">
        <ele>726.6</ele>
        <time>2019-08-12T09:23:59Z</time>
      </trkpt>
      <trkpt lat="39.5013120" lon="-3.8384700">
        <ele>726.5</ele>
        <time>2019-08-12T09:24:00Z</time>
      </trkpt>
      <trkpt lat="39.5013770" lon="-3.8384820">
        <ele>726.3</ele>
        <time>2019-08-12T09:24:01Z</time>
      </trkpt>
      <trkpt lat="39.5014410" lon="-3.8384940">
        <ele>726.2</ele>
        <time>2019-08-12T09:24:02Z</time>
      </trkpt>
      <trkpt lat="39.5015060" lon="-3.8385060">
        <ele>726.1</ele>
        <time>2019-08-12T09:24:03Z</time>
      </trkpt>
      <trkpt lat="39.5015700" lon="-3.8385180">
        <ele>726.1</ele>
        <time>2019-08-12T09:24:04Z</time>
      </trkpt>
      <trkpt lat="39.5016340" lon="-3.8385300">
        <ele>726.0</ele>
        <time>2019-08-12T09:24:05Z</time>
      </trkpt>
      <trkpt lat="39.5016980" lon="-3.8385420">
        <ele>726.0</ele>
        <time>2019-08-12T09:24:06Z</time>
      </trkpt>
      <trkpt lat="39.5017620" lon="-3.8385540">
        <ele>725.9</ele>
        <time>2019-08-12T09:24:07Z</time>
      </trkpt>
      <trkpt lat="39.5018260" lon="-3.8385660">
        <ele>725.9</ele>
        <time>2019-08-12T09:24:08Z</time>
      </trkpt>
      <trkpt lat="39.5018900" lon="-3.8385780">
        <ele>725.9</ele>
        <time>2019-08-12T09:24:09Z</time>
      </trkpt>
      <trkpt lat="39.5019540" lon="-3.8385910">
        <ele>725.9</ele>
        <time>2019-08-12T09:24:10Z</time>
      </trkpt>
      <trkpt lat="39.5020190" lon="-3.8386040">
        <ele>725.9</ele>
        <time>2019-08-12T09:24:11Z</time>
      </trkpt>
      <trkpt lat="39.5020830" lon="-3.8386170">
        <ele>725.9</ele>
        <time>2019-08-12T09:24:12Z</time>
      </trkpt>
      <trkpt lat="39.5021470" lon="-3.8386300">
        <ele>725.9</ele>
        <time>2019-08-12T09:24:13Z</time>
      </trkpt>
      <trkpt lat="39.5022120" lon="-3.8386440">
        <ele>725.8</ele>
        <time>2019-08-12T09:24:14Z</time>
      </trkpt>
      <trkpt lat="39.5022760" lon="-3.8386580">
        <ele>725.8</ele>
        <time>2019-08-12T09:24:15Z</time>
      </trkpt>
      <trkpt lat="39.5023400" lon="-3.8386720">
        <ele>725.8</ele>
        <time>2019-08-12T09:24:16Z</time>
      </trkpt>
      <trkpt lat="39.5024040" lon="-3.8386860">
        <ele>725.8</ele>
        <time>2019-08-12T09:24:17Z</time>
      </trkpt>
      <trkpt lat="39.5024670" lon="-3.8387010">
        <ele>725.7</ele>
        <time>2019-08-12T09:24:18Z</time>
      </trkpt>
      <trkpt lat="39.5025310" lon="-3.8387150">
        <ele>725.7</ele>
        <time>2019-08-12T09:24:19Z</time>
      </trkpt>
      <trkpt lat="39.5025950" lon="-3.8387300">
        <ele>725.6</ele>
        <time>2019-08-12T09:24:20Z</time>
      </trkpt>
      <trkpt lat="39.5026610" lon="-3.8387450">
        <ele>725.5</ele>
        <time>2019-08-12T09:24:21Z</time>
      </trkpt>
      <trkpt lat="39.5027300" lon="-3.8387600">
        <ele>725.4</ele>
        <time>2019-08-12T09:24:22Z</time>
      </trkpt>
      <trkpt lat="39.5028020" lon="-3.8387740">
        <ele>725.3</ele>
        <time>2019-08-12T09:24:23Z</time>
      </trkpt>
      <trkpt lat="39.5028780" lon="-3.8387880">
        <ele>725.2</ele>
        <time>2019-08-12T09:24:24Z</time>
      </trkpt>
      <trkpt lat="39.5029570" lon="-3.8388020">
        <ele>725.1</ele>
        <time>2019-08-12T09:24:25Z</time>
      </trkpt>
      <trkpt lat="39.5030370" lon="-3.8388160">
        <ele>725.0</ele>
        <time>2019-08-12T09:24:26Z</time>
      </trkpt>
      <trkpt lat="39.5031160" lon="-3.8388290">
        <ele>724.9</ele>
        <time>2019-08-12T09:24:27Z</time>
      </trkpt>
      <trkpt lat="39.5031950" lon="-3.8388430">
        <ele>724.9</ele>
        <time>2019-08-12T09:24:28Z</time>
      </trkpt>
      <trkpt lat="39.5032720" lon="-3.8388570">
        <ele>724.9</ele>
        <time>2019-08-12T09:24:29Z</time>
      </trkpt>
      <trkpt lat="39.5033470" lon="-3.8388710">
        <ele>724.9</ele>
        <time>2019-08-12T09:24:30Z</time>
      </trkpt>
      <trkpt lat="39.5034220" lon="-3.8388850">
        <ele>724.9</ele>
        <time>2019-08-12T09:24:31Z</time>
      </trkpt>
      <trkpt lat="39.5034950" lon="-3.8388990">
        <ele>724.9</ele>
        <time>2019-08-12T09:24:32Z</time>
      </trkpt>
      <trkpt lat="39.5035690" lon="-3.8389140">
        <ele>724.9</ele>
        <time>2019-08-12T09:24:33Z</time>
      </trkpt>
      <trkpt lat="39.5036420" lon="-3.8389280">
        <ele>724.8</ele>
        <time>2019-08-12T09:24:34Z</time>
      </trkpt>
      <trkpt lat="39.5037150" lon="-3.8389430">
        <ele>724.8</ele>
        <time>2019-08-12T09:24:35Z</time>
      </trkpt>
      <trkpt lat="39.5037880" lon="-3.8389570">
        <ele>724.7</ele>
        <time>2019-08-12T09:24:36Z</time>
      </trkpt>
      <trkpt lat="39.5038610" lon="-3.8389720">
        <ele>724.6</ele>
        <time>2019-08-12T09:24:37Z</time>
      </trkpt>
      <trkpt lat="39.5039350" lon="-3.8389870">
        <ele>724.5</ele>
        <time>2019-08-12T09:24:38Z</time>
      </trkpt>
      <trkpt lat="39.5040090" lon="-3.8390010">
        <ele>724.4</ele>
        <time>2019-08-12T09:24:39Z</time>
      </trkpt>
      <trkpt lat="39.5040830" lon="-3.8390160">
        <ele>724.3</ele>
        <time>2019-08-12T09:24:40Z</time>
      </trkpt>
      <trkpt lat="39.5041560" lon="-3.8390310">
        <ele>724.1</ele>
        <time>2019-08-12T09:24:41Z</time>
      </trkpt>
      <trkpt lat="39.5042290" lon="-3.8390460">
        <ele>724.0</ele>
        <time>2019-08-12T09:24:42Z</time>
      </trkpt>
      <trkpt lat="39.5043010" lon="-3.8390610">
        <ele>724.0</ele>
        <time>2019-08-12T09:24:43Z</time>
      </trkpt>
      <trkpt lat="39.5043720" lon="-3.8390760">
        <ele>723.9</ele>
        <time>2019-08-12T09:24:44Z</time>
      </trkpt>
      <trkpt lat="39.5044430" lon="-3.8390900">
        <ele>723.9</ele>
        <time>2019-08-12T09:24:45Z</time>
      </trkpt>
      <trkpt lat="39.5045130" lon="-3.8391040">
        <ele>723.9</ele>
        <time>2019-08-12T09:24:46Z</time>
      </trkpt>
      <trkpt lat="39.5045830" lon="-3.8391180">
        <ele>723.9</ele>
        <time>2019-08-12T09:24:47Z</time>
      </trkpt>
      <trkpt lat="39.5046520" lon="-3.8391320">
        <ele>723.9</ele>
        <time>2019-08-12T09:24:48Z</time>
      </trkpt>
      <trkpt lat="39.5047210" lon="-3.8391460">
        <ele>723.9</ele>
        <time>2019-08-12T09:24:49Z</time>
      </trkpt>
      <trkpt lat="39.5047890" lon="-3.8391600">
        <ele>723.9</ele>
        <time>2019-08-12T09:24:50Z</time>
      </trkpt>
      <trkpt lat="39.5048570" lon="-3.8391740">
        <ele>723.9</ele>
        <time>2019-08-12T09:24:51Z</time>
      </trkpt>
      <trkpt lat="39.5049250" lon="-3.8391880">
        <ele>723.9</ele>
        <time>2019-08-12T09:24:52Z</time>
      </trkpt>
      <trkpt lat="39.5049920" lon="-3.8392020">
        <ele>723.9</ele>
        <time>2019-08-12T09:24:53Z</time>
      </trkpt>
      <trkpt lat="39.5050590" lon="-3.8392160">
        <ele>723.9</ele>
        <time>2019-08-12T09:24:54Z</time>
      </trkpt>
      <trkpt lat="39.5051260" lon="-3.8392310">
        <ele>723.9</ele>
        <time>2019-08-12T09:24:55Z</time>
      </trkpt>
      <trkpt lat="39.5051930" lon="-3.8392450">
        <ele>723.9</ele>
        <time>2019-08-12T09:24:56Z</time>
      </trkpt>
      <trkpt lat="39.5052610" lon="-3.8392590">
        <ele>723.9</ele>
        <time>2019-08-12T09:24:57Z</time>
      </trkpt>
      <trkpt lat="39.5053280" lon="-3.8392720">
        <ele>723.9</ele>
        <time>2019-08-12T09:24:58Z</time>
      </trkpt>
      <trkpt lat="39.5053950" lon="-3.8392860">
        <ele>723.9</ele>
        <time>2019-08-12T09:24:59Z</time>
      </trkpt>
      <trkpt lat="39.5054610" lon="-3.8393000">
        <ele>723.9</ele>
        <time>2019-08-12T09:25:00Z</time>
      </trkpt>
      <trkpt lat="39.5055280" lon="-3.8393140">
        <ele>723.9</ele>
        <time>2019-08-12T09:25:01Z</time>
      </trkpt>
      <trkpt lat="39.5055950" lon="-3.8393270">
        <ele>723.9</ele>
        <time>2019-08-12T09:25:02Z</time>
      </trkpt>
      <trkpt lat="39.5056620" lon="-3.8393410">
        <ele>723.9</ele>
        <time>2019-08-12T09:25:03Z</time>
      </trkpt>
      <trkpt lat="39.5057280" lon="-3.8393540">
        <ele>723.9</ele>
        <time>2019-08-12T09:25:04Z</time>
      </trkpt>
      <trkpt lat="39.5057940" lon="-3.8393680">
        <ele>723.9</ele>
        <time>2019-08-12T09:25:05Z</time>
      </trkpt>
      <trkpt lat="39.5058600" lon="-3.8393810">
        <ele>723.9</ele>
        <time>2019-08-12T09:25:06Z</time>
      </trkpt>
      <trkpt lat="39.5059260" lon="-3.8393950">
        <ele>723.9</ele>
        <time>2019-08-12T09:25:07Z</time>
      </trkpt>
      <trkpt lat="39.5059920" lon="-3.8394080">
        <ele>723.9</ele>
        <time>2019-08-12T09:25:08Z</time>
      </trkpt>
      <trkpt lat="39.5060580" lon="-3.8394210">
        <ele>723.9</ele>
        <time>2019-08-12T09:25:09Z</time>
      </trkpt>
      <trkpt lat="39.5061230" lon="-3.8394350">
        <ele>723.9</ele>
        <time>2019-08-12T09:25:10Z</time>
      </trkpt>
      <trkpt lat="39.5061890" lon="-3.8394480">
        <ele>723.9</ele>
        <time>2019-08-12T09:25:11Z</time>
      </trkpt>
      <trkpt lat="39.5062540" lon="-3.8394620">
        <ele>723.9</ele>
        <time>2019-08-12T09:25:12Z</time>
      </trkpt>
      <trkpt lat="39.5063180" lon="-3.8394750">
        <ele>723.9</ele>
        <time>2019-08-12T09:25:13Z</time>
      </trkpt>
      <trkpt lat="39.5063830" lon="-3.8394890">
        <ele>723.9</ele>
        <time>2019-08-12T09:25:14Z</time>
      </trkpt>
      <trkpt lat="39.5064470" lon="-3.8395020">
        <ele>723.9</ele>
        <time>2019-08-12T09:25:15Z</time>
      </trkpt>
      <trkpt lat="39.5065110" lon="-3.8395160">
        <ele>723.9</ele>
        <time>2019-08-12T09:25:16Z</time>
      </trkpt>
      <trkpt lat="39.5065750" lon="-3.8395290">
        <ele>723.9</ele>
        <time>2019-08-12T09:25:17Z</time>
      </trkpt>
      <trkpt lat="39.5066390" lon="-3.8395430">
        <ele>723.9</ele>
        <time>2019-08-12T09:25:18Z</time>
      </trkpt>
      <trkpt lat="39.5067020" lon="-3.8395560">
        <ele>723.9</ele>
        <time>2019-08-12T09:25:19Z</time>
      </trkpt>
      <trkpt lat="39.5067650" lon="-3.8395700">
        <ele>723.9</ele>
        <time>2019-08-12T09:25:20Z</time>
      </trkpt>
      <trkpt lat="39.5068280" lon="-3.8395830">
        <ele>723.9</ele>
        <time>2019-08-12T09:25:21Z</time>
      </trkpt>
      <trkpt lat="39.5068900" lon="-3.8395960">
        <ele>723.9</ele>
        <time>2019-08-12T09:25:22Z</time>
      </trkpt>
      <trkpt lat="39.5069530" lon="-3.8396100">
        <ele>723.9</ele>
        <time>2019-08-12T09:25:23Z</time>
      </trkpt>
      <trkpt lat="39.5070150" lon="-3.8396230">
        <ele>723.9</ele>
        <time>2019-08-12T09:25:24Z</time>
      </trkpt>
      <trkpt lat="39.5070760" lon="-3.8396360">
        <ele>723.9</ele>
        <time>2019-08-12T09:25:25Z</time>
      </trkpt>
      <trkpt lat="39.5071380" lon="-3.8396490">
        <ele>723.9</ele>
        <time>2019-08-12T09:25:26Z</time>
      </trkpt>
      <trkpt lat="39.5071990" lon="-3.8396610">
        <ele>723.9</ele>
        <time>2019-08-12T09:25:27Z</time>
      </trkpt>
      <trkpt lat="39.5072600" lon="-3.8396740">
        <ele>723.9</ele>
        <time>2019-08-12T09:25:28Z</time>
      </trkpt>
      <trkpt lat="39.5073210" lon="-3.8396860">
        <ele>723.9</ele>
        <time>2019-08-12T09:25:29Z</time>
      </trkpt>
      <trkpt lat="39.5073810" lon="-3.8396990">
        <ele>723.9</ele>
        <time>2019-08-12T09:25:30Z</time>
      </trkpt>
      <trkpt lat="39.5074410" lon="-3.8397110">
        <ele>723.9</ele>
        <time>2019-08-12T09:25:31Z</time>
      </trkpt>
      <trkpt lat="39.5075010" lon="-3.8397230">
        <ele>723.9</ele>
        <time>2019-08-12T09:25:32Z</time>
      </trkpt>
      <trkpt lat="39.5075610" lon="-3.8397340">
        <ele>723.9</ele>
        <time>2019-08-12T09:25:33Z</time>
      </trkpt>
      <trkpt lat="39.5076210" lon="-3.8397460">
        <ele>723.9</ele>
        <time>2019-08-12T09:25:34Z</time>
      </trkpt>
      <trkpt lat="39.5076800" lon="-3.8397570">
        <ele>723.9</ele>
        <time>2019-08-12T09:25:35Z</time>
      </trkpt>
      <trkpt lat="39.5077390" lon="-3.8397680">
        <ele>723.9</ele>
        <time>2019-08-12T09:25:36Z</time>
      </trkpt>
      <trkpt lat="39.5077980" lon="-3.8397790">
        <ele>723.9</ele>
        <time>2019-08-12T09:25:37Z</time>
      </trkpt>
      <trkpt lat="39.5078570" lon="-3.8397900">
        <ele>723.9</ele>
        <time>2019-08-12T09:25:38Z</time>
      </trkpt>
      <trkpt lat="39.5079150" lon="-3.8398010">
        <ele>723.9</ele>
        <time>2019-08-12T09:25:39Z</time>
      </trkpt>
      <trkpt lat="39.5079740" lon="-3.8398120">
        <ele>723.9</ele>
        <time>2019-08-12T09:25:40Z</time>
      </trkpt>
      <trkpt lat="39.5080320" lon="-3.8398220">
        <ele>723.9</ele>
        <time>2019-08-12T09:25:41Z</time>
      </trkpt>
      <trkpt lat="39.5080910" lon="-3.8398330">
        <ele>723.9</ele>
        <time>2019-08-12T09:25:42Z</time>
      </trkpt>
      <trkpt lat="39.5081490" lon="-3.8398430">
        <ele>723.9</ele>
        <time>2019-08-12T09:25:43Z</time>
      </trkpt>
      <trkpt lat="39.5082070" lon="-3.8398540">
        <ele>723.9</ele>
        <time>2019-08-12T09:25:44Z</time>
      </trkpt>
      <trkpt lat="39.5082650" lon="-3.8398640">
        <ele>723.9</ele>
        <time>2019-08-12T09:25:45Z</time>
      </trkpt>
      <trkpt lat="39.5083230" lon="-3.8398750">
        <ele>723.9</ele>
        <time>2019-08-12T09:25:46Z</time>
      </trkpt>
      <trkpt lat="39.5083810" lon="-3.8398850">
        <ele>723.9</ele>
        <time>2019-08-12T09:25:47Z</time>
      </trkpt>
      <trkpt lat="39.5084390" lon="-3.8398960">
        <ele>723.9</ele>
        <time>2019-08-12T09:25:48Z</time>
      </trkpt>
      <trkpt lat="39.5084970" lon="-3.8399060">
        <ele>723.9</ele>
        <time>2019-08-12T09:25:49Z</time>
      </trkpt>
      <trkpt lat="39.5085540" lon="-3.8399170">
        <ele>723.9</ele>
        <time>2019-08-12T09:25:50Z</time>
      </trkpt>
      <trkpt lat="39.5086120" lon="-3.8399280">
        <ele>723.9</ele>
        <time>2019-08-12T09:25:51Z</time>
      </trkpt>
      <trkpt lat="39.5086690" lon="-3.8399390">
        <ele>723.9</ele>
        <time>2019-08-12T09:25:52Z</time>
      </trkpt>
      <trkpt lat="39.5087270" lon="-3.8399500">
        <ele>723.9</ele>
        <time>2019-08-12T09:25:53Z</time>
      </trkpt>
      <trkpt lat="39.5087840" lon="-3.8399610">
        <ele>723.9</ele>
        <time>2019-08-12T09:25:54Z</time>
      </trkpt>
      <trkpt lat="39.5088410" lon="-3.8399720">
        <ele>723.9</ele>
        <time>2019-08-12T09:25:55Z</time>
      </trkpt>
      <trkpt lat="39.5088980" lon="-3.8399830">
        <ele>723.9</ele>
        <time>2019-08-12T09:25:56Z</time>
      </trkpt>
      <trkpt lat="39.5089550" lon="-3.8399940">
        <ele>723.9</ele>
        <time>2019-08-12T09:25:57Z</time>
      </trkpt>
      <trkpt lat="39.5090110" lon="-3.8400060">
        <ele>723.9</ele>
        <time>2019-08-12T09:25:58Z</time>
      </trkpt>
      <trkpt lat="39.5090680" lon="-3.8400170">
        <ele>724.0</ele>
        <time>2019-08-12T09:25:59Z</time>
      </trkpt>
      <trkpt lat="39.5091250" lon="-3.8400280">
        <ele>724.0</ele>
        <time>2019-08-12T09:26:00Z</time>
      </trkpt>
      <trkpt lat="39.5091810" lon="-3.8400390">
        <ele>724.0</ele>
        <time>2019-08-12T09:26:01Z</time>
      </trkpt>
      <trkpt lat="39.5092380" lon="-3.8400510">
        <ele>724.0</ele>
        <time>2019-08-12T09:26:02Z</time>
      </trkpt>
      <trkpt lat="39.5092940" lon="-3.8400620">
        <ele>724.0</ele>
        <time>2019-08-12T09:26:03Z</time>
      </trkpt>
      <trkpt lat="39.5093510" lon="-3.8400730">
        <ele>724.1</ele>
        <time>2019-08-12T09:26:04Z</time>
      </trkpt>
      <trkpt lat="39.5094070" lon="-3.8400840">
        <ele>724.1</ele>
        <time>2019-08-12T09:26:05Z</time>
      </trkpt>
      <trkpt lat="39.5094640" lon="-3.8400950">
        <ele>724.2</ele>
        <time>2019-08-12T09:26:06Z</time>
      </trkpt>
      <trkpt lat="39.5095200" lon="-3.8401050">
        <ele>724.3</ele>
        <time>2019-08-12T09:26:07Z</time>
      </trkpt>
      <trkpt lat="39.5095770" lon="-3.8401160">
        <ele>724.4</ele>
        <time>2019-08-12T09:26:08Z</time>
      </trkpt>
      <trkpt lat="39.5096330" lon="-3.8401260">
        <ele>724.4</ele>
        <time>2019-08-12T09:26:09Z</time>
      </trkpt>
      <trkpt lat="39.5096890" lon="-3.8401370">
        <ele>724.5</ele>
        <time>2019-08-12T09:26:10Z</time>
      </trkpt>
      <trkpt lat="39.5097450" lon="-3.8401470">
        <ele>724.6</ele>
        <time>2019-08-12T09:26:11Z</time>
      </trkpt>
      <trkpt lat="39.5098010" lon="-3.8401570">
        <ele>724.7</ele>
        <time>2019-08-12T09:26:12Z</time>
      </trkpt>
      <trkpt lat="39.5098570" lon="-3.8401680">
        <ele>724.8</ele>
        <time>2019-08-12T09:26:13Z</time>
      </trkpt>
      <trkpt lat="39.5099120" lon="-3.8401780">
        <ele>724.9</ele>
        <time>2019-08-12T09:26:14Z</time>
      </trkpt>
      <trkpt lat="39.5099670" lon="-3.8401880">
        <ele>725.0</ele>
        <time>2019-08-12T09:26:15Z</time>
      </trkpt>
      <trkpt lat="39.5100220" lon="-3.8401990">
        <ele>725.0</ele>
        <time>2019-08-12T09:26:16Z</time>
      </trkpt>
      <trkpt lat="39.5100760" lon="-3.8402100">
        <ele>725.1</ele>
        <time>2019-08-12T09:26:17Z</time>
      </trkpt>
      <trkpt lat="39.5101290" lon="-3.8402210">
        <ele>725.3</ele>
        <time>2019-08-12T09:26:18Z</time>
      </trkpt>
      <trkpt lat="39.5101820" lon="-3.8402320">
        <ele>725.4</ele>
        <time>2019-08-12T09:26:19Z</time>
      </trkpt>
      <trkpt lat="39.5102340" lon="-3.8402430">
        <ele>725.6</ele>
        <time>2019-08-12T09:26:20Z</time>
      </trkpt>
      <trkpt lat="39.5102860" lon="-3.8402550">
        <ele>725.7</ele>
        <time>2019-08-12T09:26:21Z</time>
      </trkpt>
      <trkpt lat="39.5103370" lon="-3.8402660">
        <ele>725.9</ele>
        <time>2019-08-12T09:26:22Z</time>
      </trkpt>
      <trkpt lat="39.5103890" lon="-3.8402770">
        <ele>726.1</ele>
        <time>2019-08-12T09:26:23Z</time>
      </trkpt>
      <trkpt lat="39.5104410" lon="-3.8402880">
        <ele>726.2</ele>
        <time>2019-08-12T09:26:24Z</time>
      </trkpt>
      <trkpt lat="39.5104920" lon="-3.8402980">
        <ele>726.3</ele>
        <time>2019-08-12T09:26:25Z</time>
      </trkpt>
      <trkpt lat="39.5105440" lon="-3.8403080">
        <ele>726.5</ele>
        <time>2019-08-12T09:26:26Z</time>
      </trkpt>
      <trkpt lat="39.5105960" lon="-3.8403180">
        <ele>726.6</ele>
        <time>2019-08-12T09:26:27Z</time>
      </trkpt>
      <trkpt lat="39.5106490" lon="-3.8403280">
        <ele>726.8</ele>
        <time>2019-08-12T09:26:28Z</time>
      </trkpt>
      <trkpt lat="39.5107010" lon="-3.8403380">
        <ele>726.9</ele>
        <time>2019-08-12T09:26:29Z</time>
      </trkpt>
      <trkpt lat="39.5107530" lon="-3.8403480">
        <ele>726.9</ele>
        <time>2019-08-12T09:26:30Z</time>
      </trkpt>
      <trkpt lat="39.5108060" lon="-3.8403590">
        <ele>727.0</ele>
        <time>2019-08-12T09:26:31Z</time>
      </trkpt>
      <trkpt lat="39.5108580" lon="-3.8403690">
        <ele>727.1</ele>
        <time>2019-08-12T09:26:32Z</time>
      </trkpt>
      <trkpt lat="39.5109110" lon="-3.8403790">
        <ele>727.2</ele>
        <time>2019-08-12T09:26:33Z</time>
      </trkpt>
      <trkpt lat="39.5109650" lon="-3.8403890">
        <ele>727.3</ele>
        <time>2019-08-12T09:26:34Z</time>
      </trkpt>
      <trkpt lat="39.5110190" lon="-3.8404000">
        <ele>727.4</ele>
        <time>2019-08-12T09:26:35Z</time>
      </trkpt>
      <trkpt lat="39.5110730" lon="-3.8404100">
        <ele>727.6</ele>
        <time>2019-08-12T09:26:36Z</time>
      </trkpt>
      <trkpt lat="39.5111270" lon="-3.8404210">
        <ele>727.7</ele>
        <time>2019-08-12T09:26:37Z</time>
      </trkpt>
      <trkpt lat="39.5111820" lon="-3.8404310">
        <ele>727.7</ele>
        <time>2019-08-12T09:26:38Z</time>
      </trkpt>
      <trkpt lat="39.5112380" lon="-3.8404420">
        <ele>727.8</ele>
        <time>2019-08-12T09:26:39Z</time>
      </trkpt>
      <trkpt lat="39.5112930" lon="-3.8404520">
        <ele>727.8</ele>
        <time>2019-08-12T09:26:40Z</time>
      </trkpt>
      <trkpt lat="39.5113490" lon="-3.8404630">
        <ele>727.9</ele>
        <time>2019-08-12T09:26:41Z</time>
      </trkpt>
      <trkpt lat="39.5114060" lon="-3.8404730">
        <ele>727.9</ele>
        <time>2019-08-12T09:26:42Z</time>
      </trkpt>
      <trkpt lat="39.5114620" lon="-3.8404840">
        <ele>727.9</ele>
        <time>2019-08-12T09:26:43Z</time>
      </trkpt>
      <trkpt lat="39.5115180" lon="-3.8404940">
        <ele>727.9</ele>
        <time>2019-08-12T09:26:44Z</time>
      </trkpt>
      <trkpt lat="39.5115750" lon="-3.8405040">
        <ele>727.9</ele>
        <time>2019-08-12T09:26:45Z</time>
      </trkpt>
      <trkpt lat="39.5116320" lon="-3.8405140">
        <ele>727.9</ele>
        <time>2019-08-12T09:26:46Z</time>
      </trkpt>
      <trkpt lat="39.5116880" lon="-3.8405240">
        <ele>728.0</ele>
        <time>2019-08-12T09:26:47Z</time>
      </trkpt>
      <trkpt lat="39.5117450" lon="-3.8405340">
        <ele>728.0</ele>
        <time>2019-08-12T09:26:48Z</time>
      </trkpt>
      <trkpt lat="39.5118020" lon="-3.8405440">
        <ele>728.0</ele>
        <time>2019-08-12T09:26:49Z</time>
      </trkpt>
      <trkpt lat="39.5118590" lon="-3.8405540">
        <ele>728.0</ele>
        <time>2019-08-12T09:26:50Z</time>
      </trkpt>
      <trkpt lat="39.5119160" lon="-3.8405640">
        <ele>728.0</ele>
        <time>2019-08-12T09:26:51Z</time>
      </trkpt>
      <trkpt lat="39.5119730" lon="-3.8405740">
        <ele>728.0</ele>
        <time>2019-08-12T09:26:52Z</time>
      </trkpt>
      <trkpt lat="39.5120300" lon="-3.8405840">
        <ele>728.0</ele>
        <time>2019-08-12T09:26:53Z</time>
      </trkpt>
      <trkpt lat="39.5120870" lon="-3.8405950">
        <ele>728.0</ele>
        <time>2019-08-12T09:26:54Z</time>
      </trkpt>
      <trkpt lat="39.5121440" lon="-3.8406050">
        <ele>728.0</ele>
        <time>2019-08-12T09:26:55Z</time>
      </trkpt>
      <trkpt lat="39.5122020" lon="-3.8406160">
        <ele>728.0</ele>
        <time>2019-08-12T09:26:56Z</time>
      </trkpt>
      <trkpt lat="39.5122600" lon="-3.8406270">
        <ele>728.0</ele>
        <time>2019-08-12T09:26:57Z</time>
      </trkpt>
      <trkpt lat="39.5123170" lon="-3.8406380">
        <ele>728.0</ele>
        <time>2019-08-12T09:26:58Z</time>
      </trkpt>
      <trkpt lat="39.5123750" lon="-3.8406500">
        <ele>728.0</ele>
        <time>2019-08-12T09:26:59Z</time>
      </trkpt>
      <trkpt lat="39.5124340" lon="-3.8406620">
        <ele>728.0</ele>
        <time>2019-08-12T09:27:00Z</time>
      </trkpt>
      <trkpt lat="39.5124920" lon="-3.8406740">
        <ele>728.0</ele>
        <time>2019-08-12T09:27:01Z</time>
      </trkpt>
      <trkpt lat="39.5125510" lon="-3.8406870">
        <ele>728.0</ele>
        <time>2019-08-12T09:27:02Z</time>
      </trkpt>
      <trkpt lat="39.5126090" lon="-3.8407000">
        <ele>728.0</ele>
        <time>2019-08-12T09:27:03Z</time>
      </trkpt>
      <trkpt lat="39.5126680" lon="-3.8407140">
        <ele>728.0</ele>
        <time>2019-08-12T09:27:04Z</time>
      </trkpt>
      <trkpt lat="39.5127280" lon="-3.8407280">
        <ele>728.0</ele>
        <time>2019-08-12T09:27:05Z</time>
      </trkpt>
      <trkpt lat="39.5127870" lon="-3.8407420">
        <ele>728.0</ele>
        <time>2019-08-12T09:27:06Z</time>
      </trkpt>
      <trkpt lat="39.5128470" lon="-3.8407570">
        <ele>728.0</ele>
        <time>2019-08-12T09:27:07Z</time>
      </trkpt>
      <trkpt lat="39.5129070" lon="-3.8407710">
        <ele>728.0</ele>
        <time>2019-08-12T09:27:08Z</time>
      </trkpt>
      <trkpt lat="39.5129680" lon="-3.8407860">
        <ele>728.0</ele>
        <time>2019-08-12T09:27:09Z</time>
      </trkpt>
      <trkpt lat="39.5130290" lon="-3.8408010">
        <ele>728.0</ele>
        <time>2019-08-12T09:27:10Z</time>
      </trkpt>
      <trkpt lat="39.5130900" lon="-3.8408160">
        <ele>728.0</ele>
        <time>2019-08-12T09:27:11Z</time>
      </trkpt>
      <trkpt lat="39.5131520" lon="-3.8408300">
        <ele>728.0</ele>
        <time>2019-08-12T09:27:12Z</time>
      </trkpt>
      <trkpt lat="39.5132140" lon="-3.8408450">
        <ele>728.0</ele>
        <time>2019-08-12T09:27:13Z</time>
      </trkpt>
      <trkpt lat="39.5132770" lon="-3.8408590">
        <ele>728.0</ele>
        <time>2019-08-12T09:27:14Z</time>
      </trkpt>
      <trkpt lat="39.5133410" lon="-3.8408730">
        <ele>728.0</ele>
        <time>2019-08-12T09:27:15Z</time>
      </trkpt>
      <trkpt lat="39.5134040" lon="-3.8408870">
        <ele>728.0</ele>
        <time>2019-08-12T09:27:16Z</time>
      </trkpt>
      <trkpt lat="39.5134680" lon="-3.8409000">
        <ele>728.0</ele>
        <time>2019-08-12T09:27:17Z</time>
      </trkpt>
      <trkpt lat="39.5135320" lon="-3.8409140">
        <ele>728.0</ele>
        <time>2019-08-12T09:27:18Z</time>
      </trkpt>
      <trkpt lat="39.5135960" lon="-3.8409280">
        <ele>728.0</ele>
        <time>2019-08-12T09:27:19Z</time>
      </trkpt>
      <trkpt lat="39.5136600" lon="-3.8409410">
        <ele>728.0</ele>
        <time>2019-08-12T09:27:20Z</time>
      </trkpt>
      <trkpt lat="39.5137240" lon="-3.8409550">
        <ele>728.0</ele>
        <time>2019-08-12T09:27:21Z</time>
      </trkpt>
      <trkpt lat="39.5137870" lon="-3.8409690">
        <ele>728.0</ele>
        <time>2019-08-12T09:27:22Z</time>
      </trkpt>
      <trkpt lat="39.5138510" lon="-3.8409830">
        <ele>728.0</ele>
        <time>2019-08-12T09:27:23Z</time>
      </trkpt>
      <trkpt lat="39.5139150" lon="-3.8409970">
        <ele>727.9</ele>
        <time>2019-08-12T09:27:24Z</time>
      </trkpt>
      <trkpt lat="39.5139800" lon="-3.8410110">
        <ele>727.9</ele>
        <time>2019-08-12T09:27:25Z</time>
      </trkpt>
      <trkpt lat="39.5140450" lon="-3.8410250">
        <ele>727.9</ele>
        <time>2019-08-12T09:27:26Z</time>
      </trkpt>
      <trkpt lat="39.5141110" lon="-3.8410390">
        <ele>727.8</ele>
        <time>2019-08-12T09:27:27Z</time>
      </trkpt>
      <trkpt lat="39.5141780" lon="-3.8410540">
        <ele>727.8</ele>
        <time>2019-08-12T09:27:28Z</time>
      </trkpt>
      <trkpt lat="39.5142460" lon="-3.8410690">
        <ele>727.7</ele>
        <time>2019-08-12T09:27:29Z</time>
      </trkpt>
      <trkpt lat="39.5143150" lon="-3.8410840">
        <ele>727.6</ele>
        <time>2019-08-12T09:27:30Z</time>
      </trkpt>
      <trkpt lat="39.5143860" lon="-3.8411000">
        <ele>727.5</ele>
        <time>2019-08-12T09:27:31Z</time>
      </trkpt>
      <trkpt lat="39.5144580" lon="-3.8411160">
        <ele>727.3</ele>
        <time>2019-08-12T09:27:32Z</time>
      </trkpt>
      <trkpt lat="39.5145320" lon="-3.8411320">
        <ele>727.1</ele>
        <time>2019-08-12T09:27:33Z</time>
      </trkpt>
      <trkpt lat="39.5146080" lon="-3.8411490">
        <ele>726.8</ele>
        <time>2019-08-12T09:27:34Z</time>
      </trkpt>
      <trkpt lat="39.5146840" lon="-3.8411660">
        <ele>726.5</ele>
        <time>2019-08-12T09:27:35Z</time>
      </trkpt>
      <trkpt lat="39.5147620" lon="-3.8411840">
        <ele>726.1</ele>
        <time>2019-08-12T09:27:36Z</time>
      </trkpt>
      <trkpt lat="39.5148410" lon="-3.8412010">
        <ele>725.8</ele>
        <time>2019-08-12T09:27:37Z</time>
      </trkpt>
      <trkpt lat="39.5149210" lon="-3.8412200">
        <ele>725.5</ele>
        <time>2019-08-12T09:27:38Z</time>
      </trkpt>
      <trkpt lat="39.5150020" lon="-3.8412380">
        <ele>725.1</ele>
        <time>2019-08-12T09:27:39Z</time>
      </trkpt>
      <trkpt lat="39.5150830" lon="-3.8412570">
        <ele>724.8</ele>
        <time>2019-08-12T09:27:40Z</time>
      </trkpt>
      <trkpt lat="39.5151650" lon="-3.8412760">
        <ele>724.5</ele>
        <time>2019-08-12T09:27:41Z</time>
      </trkpt>
      <trkpt lat="39.5152480" lon="-3.8412960">
        <ele>724.1</ele>
        <time>2019-08-12T09:27:42Z</time>
      </trkpt>
      <trkpt lat="39.5153300" lon="-3.8413150">
        <ele>723.6</ele>
        <time>2019-08-12T09:27:43Z</time>
      </trkpt>
      <trkpt lat="39.5154130" lon="-3.8413350">
        <ele>723.2</ele>
        <time>2019-08-12T09:27:44Z</time>
      </trkpt>
      <trkpt lat="39.5154960" lon="-3.8413550">
        <ele>722.8</ele>
        <time>2019-08-12T09:27:45Z</time>
      </trkpt>
      <trkpt lat="39.5155800" lon="-3.8413750">
        <ele>722.4</ele>
        <time>2019-08-12T09:27:46Z</time>
      </trkpt>
      <trkpt lat="39.5156630" lon="-3.8413950">
        <ele>721.9</ele>
        <time>2019-08-12T09:27:47Z</time>
      </trkpt>
      <trkpt lat="39.5157460" lon="-3.8414150">
        <ele>721.6</ele>
        <time>2019-08-12T09:27:48Z</time>
      </trkpt>
      <trkpt lat="39.5158290" lon="-3.8414340">
        <ele>721.3</ele>
        <time>2019-08-12T09:27:49Z</time>
      </trkpt>
      <trkpt lat="39.5159110" lon="-3.8414540">
        <ele>721.0</ele>
        <time>2019-08-12T09:27:50Z</time>
      </trkpt>
      <trkpt lat="39.5159930" lon="-3.8414730">
        <ele>720.8</ele>
        <time>2019-08-12T09:27:51Z</time>
      </trkpt>
      <trkpt lat="39.5160750" lon="-3.8414920">
        <ele>720.6</ele>
        <time>2019-08-12T09:27:52Z</time>
      </trkpt>
      <trkpt lat="39.5161560" lon="-3.8415110">
        <ele>720.4</ele>
        <time>2019-08-12T09:27:53Z</time>
      </trkpt>
      <trkpt lat="39.5162360" lon="-3.8415290">
        <ele>720.3</ele>
        <time>2019-08-12T09:27:54Z</time>
      </trkpt>
      <trkpt lat="39.5163150" lon="-3.8415460">
        <ele>720.1</ele>
        <time>2019-08-12T09:27:55Z</time>
      </trkpt>
      <trkpt lat="39.5163940" lon="-3.8415630">
        <ele>720.1</ele>
        <time>2019-08-12T09:27:56Z</time>
      </trkpt>
      <trkpt lat="39.5164710" lon="-3.8415800">
        <ele>720.0</ele>
        <time>2019-08-12T09:27:57Z</time>
      </trkpt>
      <trkpt lat="39.5165480" lon="-3.8415950">
        <ele>720.0</ele>
        <time>2019-08-12T09:27:58Z</time>
      </trkpt>
      <trkpt lat="39.5166230" lon="-3.8416100">
        <ele>720.0</ele>
        <time>2019-08-12T09:27:59Z</time>
      </trkpt>
      <trkpt lat="39.5166970" lon="-3.8416250">
        <ele>720.0</ele>
        <time>2019-08-12T09:28:00Z</time>
      </trkpt>
      <trkpt lat="39.5167700" lon="-3.8416380">
        <ele>720.0</ele>
        <time>2019-08-12T09:28:01Z</time>
      </trkpt>
      <trkpt lat="39.5168420" lon="-3.8416520">
        <ele>720.0</ele>
        <time>2019-08-12T09:28:02Z</time>
      </trkpt>
      <trkpt lat="39.5169140" lon="-3.8416650">
        <ele>720.0</ele>
        <time>2019-08-12T09:28:03Z</time>
      </trkpt>
      <trkpt lat="39.5169850" lon="-3.8416770">
        <ele>720.0</ele>
        <time>2019-08-12T09:28:04Z</time>
      </trkpt>
      <trkpt lat="39.5170550" lon="-3.8416900">
        <ele>720.0</ele>
        <time>2019-08-12T09:28:05Z</time>
      </trkpt>
      <trkpt lat="39.5171240" lon="-3.8417020">
        <ele>720.0</ele>
        <time>2019-08-12T09:28:06Z</time>
      </trkpt>
      <trkpt lat="39.5171930" lon="-3.8417140">
        <ele>720.0</ele>
        <time>2019-08-12T09:28:07Z</time>
      </trkpt>
      <trkpt lat="39.5172620" lon="-3.8417260">
        <ele>720.0</ele>
        <time>2019-08-12T09:28:08Z</time>
      </trkpt>
      <trkpt lat="39.5173300" lon="-3.8417390">
        <ele>720.0</ele>
        <time>2019-08-12T09:28:09Z</time>
      </trkpt>
      <trkpt lat="39.5173990" lon="-3.8417510">
        <ele>720.0</ele>
        <time>2019-08-12T09:28:10Z</time>
      </trkpt>
      <trkpt lat="39.5174660" lon="-3.8417640">
        <ele>720.0</ele>
        <time>2019-08-12T09:28:11Z</time>
      </trkpt>
      <trkpt lat="39.5175340" lon="-3.8417760">
        <ele>720.0</ele>
        <time>2019-08-12T09:28:12Z</time>
      </trkpt>
      <trkpt lat="39.5176010" lon="-3.8417890">
        <ele>720.0</ele>
        <time>2019-08-12T09:28:13Z</time>
      </trkpt>
      <trkpt lat="39.5176680" lon="-3.8418010">
        <ele>720.0</ele>
        <time>2019-08-12T09:28:14Z</time>
      </trkpt>
      <trkpt lat="39.5177340" lon="-3.8418140">
        <ele>720.0</ele>
        <time>2019-08-12T09:28:15Z</time>
      </trkpt>
      <trkpt lat="39.5178000" lon="-3.8418260">
        <ele>720.0</ele>
        <time>2019-08-12T09:28:16Z</time>
      </trkpt>
      <trkpt lat="39.5178660" lon="-3.8418390">
        <ele>720.0</ele>
        <time>2019-08-12T09:28:17Z</time>
      </trkpt>
      <trkpt lat="39.5179310" lon="-3.8418510">
        <ele>720.0</ele>
        <time>2019-08-12T09:28:18Z</time>
      </trkpt>
      <trkpt lat="39.5179950" lon="-3.8418630">
        <ele>720.0</ele>
        <time>2019-08-12T09:28:19Z</time>
      </trkpt>
      <trkpt lat="39.5180590" lon="-3.8418750">
        <ele>720.0</ele>
        <time>2019-08-12T09:28:20Z</time>
      </trkpt>
      <trkpt lat="39.5181220" lon="-3.8418870">
        <ele>720.0</ele>
        <time>2019-08-12T09:28:21Z</time>
      </trkpt>
      <trkpt lat="39.5181840" lon="-3.8418990">
        <ele>720.0</ele>
        <time>2019-08-12T09:28:22Z</time>
      </trkpt>
      <trkpt lat="39.5182460" lon="-3.8419110">
        <ele>720.0</ele>
        <time>2019-08-12T09:28:23Z</time>
      </trkpt>
      <trkpt lat="39.5183070" lon="-3.8419230">
        <ele>720.0</ele>
        <time>2019-08-12T09:28:24Z</time>
      </trkpt>
      <trkpt lat="39.5183670" lon="-3.8419360">
        <ele>720.0</ele>
        <time>2019-08-12T09:28:25Z</time>
      </trkpt>
      <trkpt lat="39.5184260" lon="-3.8419490">
        <ele>720.0</ele>
        <time>2019-08-12T09:28:26Z</time>
      </trkpt>
      <trkpt lat="39.5184850" lon="-3.8419620">
        <ele>720.0</ele>
        <time>2019-08-12T09:28:27Z</time>
      </trkpt>
      <trkpt lat="39.5185430" lon="-3.8419750">
        <ele>720.0</ele>
        <time>2019-08-12T09:28:28Z</time>
      </trkpt>
      <trkpt lat="39.5186000" lon="-3.8419880">
        <ele>720.0</ele>
        <time>2019-08-12T09:28:29Z</time>
      </trkpt>
      <trkpt lat="39.5186570" lon="-3.8420010">
        <ele>720.0</ele>
        <time>2019-08-12T09:28:30Z</time>
      </trkpt>
      <trkpt lat="39.5187140" lon="-3.8420140">
        <ele>720.0</ele>
        <time>2019-08-12T09:28:31Z</time>
      </trkpt>
      <trkpt lat="39.5187710" lon="-3.8420260">
        <ele>720.0</ele>
        <time>2019-08-12T09:28:32Z</time>
      </trkpt>
      <trkpt lat="39.5188280" lon="-3.8420380">
        <ele>720.0</ele>
        <time>2019-08-12T09:28:33Z</time>
      </trkpt>
      <trkpt lat="39.5188850" lon="-3.8420500">
        <ele>720.0</ele>
        <time>2019-08-12T09:28:34Z</time>
      </trkpt>
      <trkpt lat="39.5189430" lon="-3.8420600">
        <ele>720.0</ele>
        <time>2019-08-12T09:28:35Z</time>
      </trkpt>
      <trkpt lat="39.5190010" lon="-3.8420700">
        <ele>720.0</ele>
        <time>2019-08-12T09:28:36Z</time>
      </trkpt>
      <trkpt lat="39.5190600" lon="-3.8420790">
        <ele>720.0</ele>
        <time>2019-08-12T09:28:37Z</time>
      </trkpt>
      <trkpt lat="39.5191200" lon="-3.8420870">
        <ele>720.0</ele>
        <time>2019-08-12T09:28:38Z</time>
      </trkpt>
      <trkpt lat="39.5191790" lon="-3.8420950">
        <ele>720.0</ele>
        <time>2019-08-12T09:28:39Z</time>
      </trkpt>
      <trkpt lat="39.5192390" lon="-3.8421030">
        <ele>720.0</ele>
        <time>2019-08-12T09:28:40Z</time>
      </trkpt>
      <trkpt lat="39.5192980" lon="-3.8421110">
        <ele>720.0</ele>
        <time>2019-08-12T09:28:41Z</time>
      </trkpt>
      <trkpt lat="39.5193570" lon="-3.8421190">
        <ele>720.0</ele>
        <time>2019-08-12T09:28:42Z</time>
      </trkpt>
      <trkpt lat="39.5194160" lon="-3.8421270">
        <ele>720.0</ele>
        <time>2019-08-12T09:28:43Z</time>
      </trkpt>
      <trkpt lat="39.5194730" lon="-3.8421360">
        <ele>720.0</ele>
        <time>2019-08-12T09:28:44Z</time>
      </trkpt>
      <trkpt lat="39.5195300" lon="-3.8421460">
        <ele>720.0</ele>
        <time>2019-08-12T09:28:45Z</time>
      </trkpt>
      <trkpt lat="39.5195850" lon="-3.8421560">
        <ele>720.0</ele>
        <time>2019-08-12T09:28:46Z</time>
      </trkpt>
      <trkpt lat="39.5196400" lon="-3.8421670">
        <ele>720.0</ele>
        <time>2019-08-12T09:28:47Z</time>
      </trkpt>
      <trkpt lat="39.5196940" lon="-3.8421780">
        <ele>720.0</ele>
        <time>2019-08-12T09:28:48Z</time>
      </trkpt>
      <trkpt lat="39.5197470" lon="-3.8421890">
        <ele>720.0</ele>
        <time>2019-08-12T09:28:49Z</time>
      </trkpt>
      <trkpt lat="39.5198000" lon="-3.8421990">
        <ele>720.0</ele>
        <time>2019-08-12T09:28:50Z</time>
      </trkpt>
      <trkpt lat="39.5198530" lon="-3.8422090">
        <ele>720.0</ele>
        <time>2019-08-12T09:28:51Z</time>
      </trkpt>
      <trkpt lat="39.5199060" lon="-3.8422180">
        <ele>720.0</ele>
        <time>2019-08-12T09:28:52Z</time>
      </trkpt>
      <trkpt lat="39.5199580" lon="-3.8422270">
        <ele>720.0</ele>
        <time>2019-08-12T09:28:53Z</time>
      </trkpt>
      <trkpt lat="39.5200100" lon="-3.8422350">
        <ele>720.0</ele>
        <time>2019-08-12T09:28:54Z</time>
      </trkpt>
      <trkpt lat="39.5200610" lon="-3.8422440">
        <ele>720.0</ele>
        <time>2019-08-12T09:28:55Z</time>
      </trkpt>
      <trkpt lat="39.5201110" lon="-3.8422540">
        <ele>720.1</ele>
        <time>2019-08-12T09:28:56Z</time>
      </trkpt>
      <trkpt lat="39.5201600" lon="-3.8422640">
        <ele>720.1</ele>
        <time>2019-08-12T09:28:57Z</time>
      </trkpt>
      <trkpt lat="39.5202090" lon="-3.8422730">
        <ele>720.1</ele>
        <time>2019-08-12T09:28:58Z</time>
      </trkpt>
      <trkpt lat="39.5202570" lon="-3.8422840">
        <ele>720.1</ele>
        <time>2019-08-12T09:28:59Z</time>
      </trkpt>
      <trkpt lat="39.5203050" lon="-3.8422940">
        <ele>720.1</ele>
        <time>2019-08-12T09:29:00Z</time>
      </trkpt>
      <trkpt lat="39.5203520" lon="-3.8423050">
        <ele>720.2</ele>
        <time>2019-08-12T09:29:01Z</time>
      </trkpt>
      <trkpt lat="39.5203990" lon="-3.8423150">
        <ele>720.2</ele>
        <time>2019-08-12T09:29:02Z</time>
      </trkpt>
      <trkpt lat="39.5204450" lon="-3.8423260">
        <ele>720.3</ele>
        <time>2019-08-12T09:29:03Z</time>
      </trkpt>
      <trkpt lat="39.5204920" lon="-3.8423370">
        <ele>720.4</ele>
        <time>2019-08-12T09:29:04Z</time>
      </trkpt>
      <trkpt lat="39.5205380" lon="-3.8423480">
        <ele>720.5</ele>
        <time>2019-08-12T09:29:05Z</time>
      </trkpt>
      <trkpt lat="39.5205840" lon="-3.8423580">
        <ele>720.6</ele>
        <time>2019-08-12T09:29:06Z</time>
      </trkpt>
      <trkpt lat="39.5206300" lon="-3.8423690">
        <ele>720.7</ele>
        <time>2019-08-12T09:29:07Z</time>
      </trkpt>
      <trkpt lat="39.5206760" lon="-3.8423800">
        <ele>720.9</ele>
        <time>2019-08-12T09:29:08Z</time>
      </trkpt>
      <trkpt lat="39.5207220" lon="-3.8423900">
        <ele>721.0</ele>
        <time>2019-08-12T09:29:09Z</time>
      </trkpt>
      <trkpt lat="39.5207680" lon="-3.8424010">
        <ele>721.1</ele>
        <time>2019-08-12T09:29:10Z</time>
      </trkpt>
      <trkpt lat="39.5208140" lon="-3.8424110">
        <ele>721.3</ele>
        <time>2019-08-12T09:29:11Z</time>
      </trkpt>
      <trkpt lat="39.5208610" lon="-3.8424210">
        <ele>721.4</ele>
        <time>2019-08-12T09:29:12Z</time>
      </trkpt>
      <trkpt lat="39.5209080" lon="-3.8424300">
        <ele>721.5</ele>
        <time>2019-08-12T09:29:13Z</time>
      </trkpt>
      <trkpt lat="39.5209550" lon="-3.8424400">
        <ele>721.7</ele>
        <time>2019-08-12T09:29:14Z</time>
      </trkpt>
      <trkpt lat="39.5210020" lon="-3.8424490">
        <ele>721.8</ele>
        <time>2019-08-12T09:29:15Z</time>
      </trkpt>
      <trkpt lat="39.5210500" lon="-3.8424580">
        <ele>721.9</ele>
        <time>2019-08-12T09:29:16Z</time>
      </trkpt>
      <trkpt lat="39.5210970" lon="-3.8424670">
        <ele>722.0</ele>
        <time>2019-08-12T09:29:17Z</time>
      </trkpt>
      <trkpt lat="39.5211450" lon="-3.8424760">
        <ele>722.5</ele>
        <time>2019-08-12T09:29:18Z</time>
      </trkpt>
      <trkpt lat="39.5211930" lon="-3.8424850">
        <ele>722.9</ele>
        <time>2019-08-12T09:29:19Z</time>
      </trkpt>
      <trkpt lat="39.5212410" lon="-3.8424940">
        <ele>723.2</ele>
        <time>2019-08-12T09:29:20Z</time>
      </trkpt>
      <trkpt lat="39.5212890" lon="-3.8425030">
        <ele>723.5</ele>
        <time>2019-08-12T09:29:21Z</time>
      </trkpt>
      <trkpt lat="39.5213370" lon="-3.8425120">
        <ele>723.7</ele>
        <time>2019-08-12T09:29:22Z</time>
      </trkpt>
      <trkpt lat="39.5213850" lon="-3.8425210">
        <ele>723.8</ele>
        <time>2019-08-12T09:29:23Z</time>
      </trkpt>
      <trkpt lat="39.5214340" lon="-3.8425300">
        <ele>723.8</ele>
        <time>2019-08-12T09:29:24Z</time>
      </trkpt>
      <trkpt lat="39.5214820" lon="-3.8425400">
        <ele>723.7</ele>
        <time>2019-08-12T09:29:25Z</time>
      </trkpt>
      <trkpt lat="39.5215300" lon="-3.8425500">
        <ele>723.5</ele>
        <time>2019-08-12T09:29:26Z</time>
      </trkpt>
      <trkpt lat="39.5215790" lon="-3.8425600">
        <ele>723.2</ele>
        <time>2019-08-12T09:29:27Z</time>
      </trkpt>
      <trkpt lat="39.5216270" lon="-3.8425700">
        <ele>722.8</ele>
        <time>2019-08-12T09:29:28Z</time>
      </trkpt>
      <trkpt lat="39.5216760" lon="-3.8425810">
        <ele>722.4</ele>
        <time>2019-08-12T09:29:29Z</time>
      </trkpt>
      <trkpt lat="39.5217260" lon="-3.8425920">
        <ele>722.0</ele>
        <time>2019-08-12T09:29:30Z</time>
      </trkpt>
      <trkpt lat="39.5217750" lon="-3.8426040">
        <ele>721.7</ele>
        <time>2019-08-12T09:29:31Z</time>
      </trkpt>
      <trkpt lat="39.5218250" lon="-3.8426160">
        <ele>721.6</ele>
        <time>2019-08-12T09:29:32Z</time>
      </trkpt>
      <trkpt lat="39.5218750" lon="-3.8426290">
        <ele>721.5</ele>
        <time>2019-08-12T09:29:33Z</time>
      </trkpt>
      <trkpt lat="39.5219260" lon="-3.8426420">
        <ele>721.5</ele>
        <time>2019-08-12T09:29:34Z</time>
      </trkpt>
      <trkpt lat="39.5219770" lon="-3.8426550">
        <ele>721.7</ele>
        <time>2019-08-12T09:29:35Z</time>
      </trkpt>
      <trkpt lat="39.5220280" lon="-3.8426690">
        <ele>721.8</ele>
        <time>2019-08-12T09:29:36Z</time>
      </trkpt>
      <trkpt lat="39.5220800" lon="-3.8426830">
        <ele>721.9</ele>
        <time>2019-08-12T09:29:37Z</time>
      </trkpt>
      <trkpt lat="39.5221310" lon="-3.8426970">
        <ele>722.1</ele>
        <time>2019-08-12T09:29:38Z</time>
      </trkpt>
      <trkpt lat="39.5221830" lon="-3.8427110">
        <ele>722.2</ele>
        <time>2019-08-12T09:29:39Z</time>
      </trkpt>
      <trkpt lat="39.5222350" lon="-3.8427260">
        <ele>722.3</ele>
        <time>2019-08-12T09:29:40Z</time>
      </trkpt>
      <trkpt lat="39.5222870" lon="-3.8427400">
        <ele>722.3</ele>
        <time>2019-08-12T09:29:41Z</time>
      </trkpt>
      <trkpt lat="39.5223390" lon="-3.8427550">
        <ele>722.3</ele>
        <time>2019-08-12T09:29:42Z</time>
      </trkpt>
      <trkpt lat="39.5223920" lon="-3.8427700">
        <ele>722.4</ele>
        <time>2019-08-12T09:29:43Z</time>
      </trkpt>
      <trkpt lat="39.5224450" lon="-3.8427850">
        <ele>722.4</ele>
        <time>2019-08-12T09:29:44Z</time>
      </trkpt>
      <trkpt lat="39.5224990" lon="-3.8428000">
        <ele>722.4</ele>
        <time>2019-08-12T09:29:45Z</time>
      </trkpt>
      <trkpt lat="39.5225530" lon="-3.8428160">
        <ele>722.4</ele>
        <time>2019-08-12T09:29:46Z</time>
      </trkpt>
      <trkpt lat="39.5226090" lon="-3.8428320">
        <ele>722.4</ele>
        <time>2019-08-12T09:29:47Z</time>
      </trkpt>
      <trkpt lat="39.5226650" lon="-3.8428490">
        <ele>722.4</ele>
        <time>2019-08-12T09:29:48Z</time>
      </trkpt>
      <trkpt lat="39.5227230" lon="-3.8428660">
        <ele>722.4</ele>
        <time>2019-08-12T09:29:49Z</time>
      </trkpt>
      <trkpt lat="39.5227820" lon="-3.8428840">
        <ele>722.3</ele>
        <time>2019-08-12T09:29:50Z</time>
      </trkpt>
      <trkpt lat="39.5228420" lon="-3.8429030">
        <ele>722.2</ele>
        <time>2019-08-12T09:29:51Z</time>
      </trkpt>
      <trkpt lat="39.5229030" lon="-3.8429230">
        <ele>722.1</ele>
        <time>2019-08-12T09:29:52Z</time>
      </trkpt>
      <trkpt lat="39.5229650" lon="-3.8429450">
        <ele>722.0</ele>
        <time>2019-08-12T09:29:53Z</time>
      </trkpt>
      <trkpt lat="39.5230270" lon="-3.8429680">
        <ele>721.7</ele>
        <time>2019-08-12T09:29:54Z</time>
      </trkpt>
      <trkpt lat="39.5230890" lon="-3.8429930">
        <ele>721.5</ele>
        <time>2019-08-12T09:29:55Z</time>
      </trkpt>
      <trkpt lat="39.5231520" lon="-3.8430200">
        <ele>721.3</ele>
        <time>2019-08-12T09:29:56Z</time>
      </trkpt>
      <trkpt lat="39.5232150" lon="-3.8430490">
        <ele>721.0</ele>
        <time>2019-08-12T09:29:57Z</time>
      </trkpt>
      <trkpt lat="39.5232780" lon="-3.8430790">
        <ele>720.8</ele>
        <time>2019-08-12T09:29:58Z</time>
      </trkpt>
      <trkpt lat="39.5233420" lon="-3.8431120">
        <ele>720.6</ele>
        <time>2019-08-12T09:29:59Z</time>
      </trkpt>
      <trkpt lat="39.5234060" lon="-3.8431460">
        <ele>720.5</ele>
        <time>2019-08-12T09:30:00Z</time>
      </trkpt>
      <trkpt lat="39.5234720" lon="-3.8431820">
        <ele>720.3</ele>
        <time>2019-08-12T09:30:01Z</time>
      </trkpt>
      <trkpt lat="39.5235380" lon="-3.8432190">
        <ele>720.1</ele>
        <time>2019-08-12T09:30:02Z</time>
      </trkpt>
      <trkpt lat="39.5236040" lon="-3.8432570">
        <ele>719.9</ele>
        <time>2019-08-12T09:30:03Z</time>
      </trkpt>
      <trkpt lat="39.5236710" lon="-3.8432970">
        <ele>719.7</ele>
        <time>2019-08-12T09:30:04Z</time>
      </trkpt>
      <trkpt lat="39.5237380" lon="-3.8433380">
        <ele>719.5</ele>
        <time>2019-08-12T09:30:05Z</time>
      </trkpt>
      <trkpt lat="39.5238060" lon="-3.8433790">
        <ele>719.4</ele>
        <time>2019-08-12T09:30:06Z</time>
      </trkpt>
      <trkpt lat="39.5238730" lon="-3.8434220">
        <ele>719.3</ele>
        <time>2019-08-12T09:30:07Z</time>
      </trkpt>
      <trkpt lat="39.5239410" lon="-3.8434640">
        <ele>719.2</ele>
        <time>2019-08-12T09:30:08Z</time>
      </trkpt>
      <trkpt lat="39.5240090" lon="-3.8435080">
        <ele>719.1</ele>
        <time>2019-08-12T09:30:09Z</time>
      </trkpt>
      <trkpt lat="39.5240770" lon="-3.8435510">
        <ele>718.9</ele>
        <time>2019-08-12T09:30:10Z</time>
      </trkpt>
      <trkpt lat="39.5241450" lon="-3.8435950">
        <ele>718.7</ele>
        <time>2019-08-12T09:30:11Z</time>
      </trkpt>
      <trkpt lat="39.5242130" lon="-3.8436390">
        <ele>718.5</ele>
        <time>2019-08-12T09:30:12Z</time>
      </trkpt>
      <trkpt lat="39.5242810" lon="-3.8436840">
        <ele>718.2</ele>
        <time>2019-08-12T09:30:13Z</time>
      </trkpt>
      <trkpt lat="39.5243500" lon="-3.8437290">
        <ele>717.9</ele>
        <time>2019-08-12T09:30:14Z</time>
      </trkpt>
      <trkpt lat="39.5244180" lon="-3.8437740">
        <ele>717.6</ele>
        <time>2019-08-12T09:30:15Z</time>
      </trkpt>
      <trkpt lat="39.5244860" lon="-3.8438190">
        <ele>717.2</ele>
        <time>2019-08-12T09:30:16Z</time>
      </trkpt>
      <trkpt lat="39.5245540" lon="-3.8438640">
        <ele>716.9</ele>
        <time>2019-08-12T09:30:17Z</time>
      </trkpt>
      <trkpt lat="39.5246230" lon="-3.8439100">
        <ele>716.6</ele>
        <time>2019-08-12T09:30:18Z</time>
      </trkpt>
      <trkpt lat="39.5246910" lon="-3.8439550">
        <ele>716.5</ele>
        <time>2019-08-12T09:30:19Z</time>
      </trkpt>
      <trkpt lat="39.5247600" lon="-3.8440010">
        <ele>716.4</ele>
        <time>2019-08-12T09:30:20Z</time>
      </trkpt>
      <trkpt lat="39.5248280" lon="-3.8440460">
        <ele>716.3</ele>
        <time>2019-08-12T09:30:21Z</time>
      </trkpt>
      <trkpt lat="39.5248960" lon="-3.8440920">
        <ele>716.3</ele>
        <time>2019-08-12T09:30:22Z</time>
      </trkpt>
      <trkpt lat="39.5249650" lon="-3.8441380">
        <ele>716.3</ele>
        <time>2019-08-12T09:30:23Z</time>
      </trkpt>
      <trkpt lat="39.5250340" lon="-3.8441830">
        <ele>716.2</ele>
        <time>2019-08-12T09:30:24Z</time>
      </trkpt>
      <trkpt lat="39.5251020" lon="-3.8442290">
        <ele>716.2</ele>
        <time>2019-08-12T09:30:25Z</time>
      </trkpt>
      <trkpt lat="39.5251710" lon="-3.8442740">
        <ele>716.2</ele>
        <time>2019-08-12T09:30:26Z</time>
      </trkpt>
      <trkpt lat="39.5252390" lon="-3.8443190">
        <ele>716.1</ele>
        <time>2019-08-12T09:30:27Z</time>
      </trkpt>
      <trkpt lat="39.5253080" lon="-3.8443640">
        <ele>715.9</ele>
        <time>2019-08-12T09:30:28Z</time>
      </trkpt>
      <trkpt lat="39.5253760" lon="-3.8444090">
        <ele>715.7</ele>
        <time>2019-08-12T09:30:29Z</time>
      </trkpt>
      <trkpt lat="39.5254450" lon="-3.8444540">
        <ele>715.6</ele>
        <time>2019-08-12T09:30:30Z</time>
      </trkpt>
      <trkpt lat="39.5255120" lon="-3.8444980">
        <ele>715.4</ele>
        <time>2019-08-12T09:30:31Z</time>
      </trkpt>
      <trkpt lat="39.5255800" lon="-3.8445410">
        <ele>715.4</ele>
        <time>2019-08-12T09:30:32Z</time>
      </trkpt>
      <trkpt lat="39.5256460" lon="-3.8445850">
        <ele>715.5</ele>
        <time>2019-08-12T09:30:33Z</time>
      </trkpt>
      <trkpt lat="39.5257120" lon="-3.8446270">
        <ele>715.6</ele>
        <time>2019-08-12T09:30:34Z</time>
      </trkpt>
      <trkpt lat="39.5257780" lon="-3.8446700">
        <ele>715.8</ele>
        <time>2019-08-12T09:30:35Z</time>
      </trkpt>
      <trkpt lat="39.5258420" lon="-3.8447110">
        <ele>716.0</ele>
        <time>2019-08-12T09:30:36Z</time>
      </trkpt>
      <trkpt lat="39.5259060" lon="-3.8447520">
        <ele>716.1</ele>
        <time>2019-08-12T09:30:37Z</time>
      </trkpt>
      <trkpt lat="39.5259680" lon="-3.8447930">
        <ele>716.2</ele>
        <time>2019-08-12T09:30:38Z</time>
      </trkpt>
      <trkpt lat="39.5260300" lon="-3.8448330">
        <ele>716.2</ele>
        <time>2019-08-12T09:30:39Z</time>
      </trkpt>
      <trkpt lat="39.5260920" lon="-3.8448720">
        <ele>716.2</ele>
        <time>2019-08-12T09:30:40Z</time>
      </trkpt>
      <trkpt lat="39.5261530" lon="-3.8449110">
        <ele>716.2</ele>
        <time>2019-08-12T09:30:41Z</time>
      </trkpt>
      <trkpt lat="39.5262140" lon="-3.8449500">
        <ele>716.2</ele>
        <time>2019-08-12T09:30:42Z</time>
      </trkpt>
      <trkpt lat="39.5262760" lon="-3.8449890">
        <ele>716.3</ele>
        <time>2019-08-12T09:30:43Z</time>
      </trkpt>
      <trkpt lat="39.5263370" lon="-3.8450280">
        <ele>716.3</ele>
        <time>2019-08-12T09:30:44Z</time>
      </trkpt>
      <trkpt lat="39.5263980" lon="-3.8450670">
        <ele>716.3</ele>
        <time>2019-08-12T09:30:45Z</time>
      </trkpt>
      <trkpt lat="39.5264600" lon="-3.8451060">
        <ele>716.3</ele>
        <time>2019-08-12T09:30:46Z</time>
      </trkpt>
      <trkpt lat="39.5265220" lon="-3.8451450">
        <ele>716.3</ele>
        <time>2019-08-12T09:30:47Z</time>
      </trkpt>
      <trkpt lat="39.5265850" lon="-3.8451830">
        <ele>716.3</ele>
        <time>2019-08-12T09:30:48Z</time>
      </trkpt>
      <trkpt lat="39.5266470" lon="-3.8452220">
        <ele>716.3</ele>
        <time>2019-08-12T09:30:49Z</time>
      </trkpt>
      <trkpt lat="39.5267090" lon="-3.8452610">
        <ele>716.3</ele>
        <time>2019-08-12T09:30:50Z</time>
      </trkpt>
      <trkpt lat="39.5267710" lon="-3.8452990">
        <ele>716.3</ele>
        <time>2019-08-12T09:30:51Z</time>
      </trkpt>
      <trkpt lat="39.5268330" lon="-3.8453380">
        <ele>716.3</ele>
        <time>2019-08-12T09:30:52Z</time>
      </trkpt>
      <trkpt lat="39.5268930" lon="-3.8453760">
        <ele>716.3</ele>
        <time>2019-08-12T09:30:53Z</time>
      </trkpt>
      <trkpt lat="39.5269530" lon="-3.8454130">
        <ele>716.3</ele>
        <time>2019-08-12T09:30:54Z</time>
      </trkpt>
      <trkpt lat="39.5270120" lon="-3.8454500">
        <ele>716.3</ele>
        <time>2019-08-12T09:30:55Z</time>
      </trkpt>
      <trkpt lat="39.5270710" lon="-3.8454870">
        <ele>716.3</ele>
        <time>2019-08-12T09:30:56Z</time>
      </trkpt>
      <trkpt lat="39.5271290" lon="-3.8455230">
        <ele>716.3</ele>
        <time>2019-08-12T09:30:57Z</time>
      </trkpt>
      <trkpt lat="39.5271860" lon="-3.8455600">
        <ele>716.3</ele>
        <time>2019-08-12T09:30:58Z</time>
      </trkpt>
      <trkpt lat="39.5272440" lon="-3.8455960">
        <ele>716.3</ele>
        <time>2019-08-12T09:30:59Z</time>
      </trkpt>
      <trkpt lat="39.5273010" lon="-3.8456320">
        <ele>716.3</ele>
        <time>2019-08-12T09:31:00Z</time>
      </trkpt>
      <trkpt lat="39.5273590" lon="-3.8456690">
        <ele>716.3</ele>
        <time>2019-08-12T09:31:01Z</time>
      </trkpt>
      <trkpt lat="39.5274170" lon="-3.8457060">
        <ele>716.2</ele>
        <time>2019-08-12T09:31:02Z</time>
      </trkpt>
      <trkpt lat="39.5274760" lon="-3.8457430">
        <ele>716.2</ele>
        <time>2019-08-12T09:31:03Z</time>
      </trkpt>
      <trkpt lat="39.5275360" lon="-3.8457810">
        <ele>716.2</ele>
        <time>2019-08-12T09:31:04Z</time>
      </trkpt>
      <trkpt lat="39.5275970" lon="-3.8458190">
        <ele>716.2</ele>
        <time>2019-08-12T09:31:05Z</time>
      </trkpt>
      <trkpt lat="39.5276580" lon="-3.8458580">
        <ele>716.1</ele>
        <time>2019-08-12T09:31:06Z</time>
      </trkpt>
      <trkpt lat="39.5277200" lon="-3.8458960">
        <ele>715.9</ele>
        <time>2019-08-12T09:31:07Z</time>
      </trkpt>
      <trkpt lat="39.5277830" lon="-3.8459360">
        <ele>715.8</ele>
        <time>2019-08-12T09:31:08Z</time>
      </trkpt>
      <trkpt lat="39.5278460" lon="-3.8459750">
        <ele>715.6</ele>
        <time>2019-08-12T09:31:09Z</time>
      </trkpt>
      <trkpt lat="39.5279090" lon="-3.8460140">
        <ele>715.4</ele>
        <time>2019-08-12T09:31:10Z</time>
      </trkpt>
      <trkpt lat="39.5279720" lon="-3.8460540">
        <ele>715.4</ele>
        <time>2019-08-12T09:31:11Z</time>
      </trkpt>
      <trkpt lat="39.5280350" lon="-3.8460930">
        <ele>715.3</ele>
        <time>2019-08-12T09:31:12Z</time>
      </trkpt>
      <trkpt lat="39.5280980" lon="-3.8461330">
        <ele>715.3</ele>
        <time>2019-08-12T09:31:13Z</time>
      </trkpt>
      <trkpt lat="39.5281600" lon="-3.8461720">
        <ele>715.3</ele>
        <time>2019-08-12T09:31:14Z</time>
      </trkpt>
      <trkpt lat="39.5282230" lon="-3.8462110">
        <ele>715.3</ele>
        <time>2019-08-12T09:31:15Z</time>
      </trkpt>
      <trkpt lat="39.5282850" lon="-3.8462500">
        <ele>715.3</ele>
        <time>2019-08-12T09:31:16Z</time>
      </trkpt>
      <trkpt lat="39.5283470" lon="-3.8462880">
        <ele>715.3</ele>
        <time>2019-08-12T09:31:17Z</time>
      </trkpt>
      <trkpt lat="39.5284090" lon="-3.8463260">
        <ele>715.3</ele>
        <time>2019-08-12T09:31:18Z</time>
      </trkpt>
      <trkpt lat="39.5284710" lon="-3.8463630">
        <ele>715.3</ele>
        <time>2019-08-12T09:31:19Z</time>
      </trkpt>
      <trkpt lat="39.5285330" lon="-3.8463980">
        <ele>715.3</ele>
        <time>2019-08-12T09:31:20Z</time>
      </trkpt>
      <trkpt lat="39.5285940" lon="-3.8464330">
        <ele>715.3</ele>
        <time>2019-08-12T09:31:21Z</time>
      </trkpt>
      <trkpt lat="39.5286560" lon="-3.8464670">
        <ele>715.3</ele>
        <time>2019-08-12T09:31:22Z</time>
      </trkpt>
      <trkpt lat="39.5287180" lon="-3.8464990">
        <ele>715.3</ele>
        <time>2019-08-12T09:31:23Z</time>
      </trkpt>
      <trkpt lat="39.5287800" lon="-3.8465300">
        <ele>715.3</ele>
        <time>2019-08-12T09:31:24Z</time>
      </trkpt>
      <trkpt lat="39.5288420" lon="-3.8465600">
        <ele>715.3</ele>
        <time>2019-08-12T09:31:25Z</time>
      </trkpt>
      <trkpt lat="39.5289040" lon="-3.8465900">
        <ele>715.3</ele>
        <time>2019-08-12T09:31:26Z</time>
      </trkpt>
      <trkpt lat="39.5289660" lon="-3.8466190">
        <ele>715.3</ele>
        <time>2019-08-12T09:31:27Z</time>
      </trkpt>
      <trkpt lat="39.5290280" lon="-3.8466470">
        <ele>715.3</ele>
        <time>2019-08-12T09:31:28Z</time>
      </trkpt>
      <trkpt lat="39.5290910" lon="-3.8466750">
        <ele>715.3</ele>
        <time>2019-08-12T09:31:29Z</time>
      </trkpt>
      <trkpt lat="39.5291540" lon="-3.8467030">
        <ele>715.3</ele>
        <time>2019-08-12T09:31:30Z</time>
      </trkpt>
      <trkpt lat="39.5292180" lon="-3.8467320">
        <ele>715.3</ele>
        <time>2019-08-12T09:31:31Z</time>
      </trkpt>
      <trkpt lat="39.5292810" lon="-3.8467600">
        <ele>715.3</ele>
        <time>2019-08-12T09:31:32Z</time>
      </trkpt>
      <trkpt lat="39.5293450" lon="-3.8467890">
        <ele>715.3</ele>
        <time>2019-08-12T09:31:33Z</time>
      </trkpt>
      <trkpt lat="39.5294100" lon="-3.8468180">
        <ele>715.3</ele>
        <time>2019-08-12T09:31:34Z</time>
      </trkpt>
      <trkpt lat="39.5294740" lon="-3.8468470">
        <ele>715.3</ele>
        <time>2019-08-12T09:31:35Z</time>
      </trkpt>
      <trkpt lat="39.5295390" lon="-3.8468760">
        <ele>715.3</ele>
        <time>2019-08-12T09:31:36Z</time>
      </trkpt>
      <trkpt lat="39.5296030" lon="-3.8469060">
        <ele>715.3</ele>
        <time>2019-08-12T09:31:37Z</time>
      </trkpt>
      <trkpt lat="39.5296680" lon="-3.8469350">
        <ele>715.3</ele>
        <time>2019-08-12T09:31:38Z</time>
      </trkpt>
      <trkpt lat="39.5297320" lon="-3.8469640">
        <ele>715.3</ele>
        <time>2019-08-12T09:31:39Z</time>
      </trkpt>
      <trkpt lat="39.5297960" lon="-3.8469930">
        <ele>715.3</ele>
        <time>2019-08-12T09:31:40Z</time>
      </trkpt>
      <trkpt lat="39.5298600" lon="-3.8470220">
        <ele>715.3</ele>
        <time>2019-08-12T09:31:41Z</time>
      </trkpt>
      <trkpt lat="39.5299240" lon="-3.8470500">
        <ele>715.3</ele>
        <time>2019-08-12T09:31:42Z</time>
      </trkpt>
      <trkpt lat="39.5299870" lon="-3.8470780">
        <ele>715.3</ele>
        <time>2019-08-12T09:31:43Z</time>
      </trkpt>
      <trkpt lat="39.5300490" lon="-3.8471060">
        <ele>715.3</ele>
        <time>2019-08-12T09:31:44Z</time>
      </trkpt>
      <trkpt lat="39.5301100" lon="-3.8471330">
        <ele>715.2</ele>
        <time>2019-08-12T09:31:45Z</time>
      </trkpt>
      <trkpt lat="39.5301700" lon="-3.8471590">
        <ele>715.2</ele>
        <time>2019-08-12T09:31:46Z</time>
      </trkpt>
      <trkpt lat="39.5302290" lon="-3.8471840">
        <ele>715.1</ele>
        <time>2019-08-12T09:31:47Z</time>
      </trkpt>
      <trkpt lat="39.5302870" lon="-3.8472100">
        <ele>715.0</ele>
        <time>2019-08-12T09:31:48Z</time>
      </trkpt>
      <trkpt lat="39.5303460" lon="-3.8472350">
        <ele>714.8</ele>
        <time>2019-08-12T09:31:49Z</time>
      </trkpt>
      <trkpt lat="39.5304050" lon="-3.8472610">
        <ele>714.7</ele>
        <time>2019-08-12T09:31:50Z</time>
      </trkpt>
      <trkpt lat="39.5304640" lon="-3.8472870">
        <ele>714.5</ele>
        <time>2019-08-12T09:31:51Z</time>
      </trkpt>
      <trkpt lat="39.5305240" lon="-3.8473130">
        <ele>714.4</ele>
        <time>2019-08-12T09:31:52Z</time>
      </trkpt>
      <trkpt lat="39.5305830" lon="-3.8473400">
        <ele>714.3</ele>
        <time>2019-08-12T09:31:53Z</time>
      </trkpt>
      <trkpt lat="39.5306430" lon="-3.8473670">
        <ele>714.3</ele>
        <time>2019-08-12T09:31:54Z</time>
      </trkpt>
      <trkpt lat="39.5307030" lon="-3.8473940">
        <ele>714.3</ele>
        <time>2019-08-12T09:31:55Z</time>
      </trkpt>
      <trkpt lat="39.5307630" lon="-3.8474210">
        <ele>714.3</ele>
        <time>2019-08-12T09:31:56Z</time>
      </trkpt>
      <trkpt lat="39.5308220" lon="-3.8474480">
        <ele>714.3</ele>
        <time>2019-08-12T09:31:57Z</time>
      </trkpt>
      <trkpt lat="39.5308820" lon="-3.8474750">
        <ele>714.3</ele>
        <time>2019-08-12T09:31:58Z</time>
      </trkpt>
      <trkpt lat="39.5309410" lon="-3.8475010">
        <ele>714.3</ele>
        <time>2019-08-12T09:31:59Z</time>
      </trkpt>
      <trkpt lat="39.5309990" lon="-3.8475280">
        <ele>714.3</ele>
        <time>2019-08-12T09:32:00Z</time>
      </trkpt>
      <trkpt lat="39.5310580" lon="-3.8475550">
        <ele>714.3</ele>
        <time>2019-08-12T09:32:01Z</time>
      </trkpt>
      <trkpt lat="39.5311160" lon="-3.8475810">
        <ele>714.3</ele>
        <time>2019-08-12T09:32:02Z</time>
      </trkpt>
      <trkpt lat="39.5311740" lon="-3.8476070">
        <ele>714.3</ele>
        <time>2019-08-12T09:32:03Z</time>
      </trkpt>
      <trkpt lat="39.5312330" lon="-3.8476340">
        <ele>714.4</ele>
        <time>2019-08-12T09:32:04Z</time>
      </trkpt>
      <trkpt lat="39.5312910" lon="-3.8476600">
        <ele>714.5</ele>
        <time>2019-08-12T09:32:05Z</time>
      </trkpt>
      <trkpt lat="39.5313500" lon="-3.8476860">
        <ele>714.6</ele>
        <time>2019-08-12T09:32:06Z</time>
      </trkpt>
      <trkpt lat="39.5314090" lon="-3.8477110">
        <ele>714.8</ele>
        <time>2019-08-12T09:32:07Z</time>
      </trkpt>
      <trkpt lat="39.5314680" lon="-3.8477370">
        <ele>715.0</ele>
        <time>2019-08-12T09:32:08Z</time>
      </trkpt>
      <trkpt lat="39.5315270" lon="-3.8477620">
        <ele>715.1</ele>
        <time>2019-08-12T09:32:09Z</time>
      </trkpt>
      <trkpt lat="39.5315860" lon="-3.8477870">
        <ele>715.2</ele>
        <time>2019-08-12T09:32:10Z</time>
      </trkpt>
      <trkpt lat="39.5316430" lon="-3.8478120">
        <ele>715.3</ele>
        <time>2019-08-12T09:32:11Z</time>
      </trkpt>
      <trkpt lat="39.5316980" lon="-3.8478360">
        <ele>715.3</ele>
        <time>2019-08-12T09:32:12Z</time>
      </trkpt>
      <trkpt lat="39.5317510" lon="-3.8478590">
        <ele>715.4</ele>
        <time>2019-08-12T09:32:13Z</time>
      </trkpt>
      <trkpt lat="39.5318020" lon="-3.8478820">
        <ele>715.6</ele>
        <time>2019-08-12T09:32:14Z</time>
      </trkpt>
      <trkpt lat="39.5318520" lon="-3.8479040">
        <ele>715.8</ele>
        <time>2019-08-12T09:32:15Z</time>
      </trkpt>
      <trkpt lat="39.5319010" lon="-3.8479260">
        <ele>715.9</ele>
        <time>2019-08-12T09:32:16Z</time>
      </trkpt>
      <trkpt lat="39.5319500" lon="-3.8479480">
        <ele>716.0</ele>
        <time>2019-08-12T09:32:17Z</time>
      </trkpt>
      <trkpt lat="39.5319980" lon="-3.8479690">
        <ele>716.1</ele>
        <time>2019-08-12T09:32:18Z</time>
      </trkpt>
      <trkpt lat="39.5320470" lon="-3.8479900">
        <ele>716.2</ele>
        <time>2019-08-12T09:32:19Z</time>
      </trkpt>
      <trkpt lat="39.5320950" lon="-3.8480110">
        <ele>716.2</ele>
        <time>2019-08-12T09:32:20Z</time>
      </trkpt>
      <trkpt lat="39.5321430" lon="-3.8480310">
        <ele>716.3</ele>
        <time>2019-08-12T09:32:21Z</time>
      </trkpt>
      <trkpt lat="39.5321900" lon="-3.8480520">
        <ele>716.3</ele>
        <time>2019-08-12T09:32:22Z</time>
      </trkpt>
      <trkpt lat="39.5322370" lon="-3.8480720">
        <ele>716.4</ele>
        <time>2019-08-12T09:32:23Z</time>
      </trkpt>
      <trkpt lat="39.5322830" lon="-3.8480910">
        <ele>716.5</ele>
        <time>2019-08-12T09:32:24Z</time>
      </trkpt>
      <trkpt lat="39.5323280" lon="-3.8481110">
        <ele>716.6</ele>
        <time>2019-08-12T09:32:25Z</time>
      </trkpt>
      <trkpt lat="39.5323730" lon="-3.8481310">
        <ele>716.7</ele>
        <time>2019-08-12T09:32:26Z</time>
      </trkpt>
      <trkpt lat="39.5324170" lon="-3.8481500">
        <ele>716.9</ele>
        <time>2019-08-12T09:32:27Z</time>
      </trkpt>
      <trkpt lat="39.5324610" lon="-3.8481690">
        <ele>717.0</ele>
        <time>2019-08-12T09:32:28Z</time>
      </trkpt>
      <trkpt lat="39.5325030" lon="-3.8481890">
        <ele>717.2</ele>
        <time>2019-08-12T09:32:29Z</time>
      </trkpt>
      <trkpt lat="39.5325460" lon="-3.8482080">
        <ele>717.4</ele>
        <time>2019-08-12T09:32:30Z</time>
      </trkpt>
      <trkpt lat="39.5325870" lon="-3.8482270">
        <ele>717.5</ele>
        <time>2019-08-12T09:32:31Z</time>
      </trkpt>
      <trkpt lat="39.5326290" lon="-3.8482460">
        <ele>717.7</ele>
        <time>2019-08-12T09:32:32Z</time>
      </trkpt>
      <trkpt lat="39.5326700" lon="-3.8482650">
        <ele>717.8</ele>
        <time>2019-08-12T09:32:33Z</time>
      </trkpt>
      <trkpt lat="39.5327110" lon="-3.8482840">
        <ele>718.0</ele>
        <time>2019-08-12T09:32:34Z</time>
      </trkpt>
      <trkpt lat="39.5327520" lon="-3.8483020">
        <ele>718.2</ele>
        <time>2019-08-12T09:32:35Z</time>
      </trkpt>
      <trkpt lat="39.5327930" lon="-3.8483210">
        <ele>718.4</ele>
        <time>2019-08-12T09:32:36Z</time>
      </trkpt>
      <trkpt lat="39.5328340" lon="-3.8483400">
        <ele>718.6</ele>
        <time>2019-08-12T09:32:37Z</time>
      </trkpt>
      <trkpt lat="39.5328750" lon="-3.8483590">
        <ele>718.9</ele>
        <time>2019-08-12T09:32:38Z</time>
      </trkpt>
      <trkpt lat="39.5329170" lon="-3.8483770">
        <ele>719.3</ele>
        <time>2019-08-12T09:32:39Z</time>
      </trkpt>
      <trkpt lat="39.5329580" lon="-3.8483960">
        <ele>719.6</ele>
        <time>2019-08-12T09:32:40Z</time>
      </trkpt>
      <trkpt lat="39.5329980" lon="-3.8484140">
        <ele>719.9</ele>
        <time>2019-08-12T09:32:41Z</time>
      </trkpt>
      <trkpt lat="39.5330390" lon="-3.8484320">
        <ele>720.1</ele>
        <time>2019-08-12T09:32:42Z</time>
      </trkpt>
      <trkpt lat="39.5330800" lon="-3.8484510">
        <ele>720.4</ele>
        <time>2019-08-12T09:32:43Z</time>
      </trkpt>
      <trkpt lat="39.5331210" lon="-3.8484690">
        <ele>720.6</ele>
        <time>2019-08-12T09:32:44Z</time>
      </trkpt>
      <trkpt lat="39.5331610" lon="-3.8484870">
        <ele>720.9</ele>
        <time>2019-08-12T09:32:45Z</time>
      </trkpt>
      <trkpt lat="39.5332010" lon="-3.8485050">
        <ele>721.1</ele>
        <time>2019-08-12T09:32:46Z</time>
      </trkpt>
      <trkpt lat="39.5332410" lon="-3.8485230">
        <ele>721.2</ele>
        <time>2019-08-12T09:32:47Z</time>
      </trkpt>
      <trkpt lat="39.5332810" lon="-3.8485410">
        <ele>721.4</ele>
        <time>2019-08-12T09:32:48Z</time>
      </trkpt>
      <trkpt lat="39.5333210" lon="-3.8485590">
        <ele>721.5</ele>
        <time>2019-08-12T09:32:49Z</time>
      </trkpt>
      <trkpt lat="39.5333600" lon="-3.8485760">
        <ele>721.6</ele>
        <time>2019-08-12T09:32:50Z</time>
      </trkpt>
      <trkpt lat="39.5333990" lon="-3.8485940">
        <ele>721.8</ele>
        <time>2019-08-12T09:32:51Z</time>
      </trkpt>
      <trkpt lat="39.5334370" lon="-3.8486110">
        <ele>722.0</ele>
        <time>2019-08-12T09:32:52Z</time>
      </trkpt>
      <trkpt lat="39.5334760" lon="-3.8486280">
        <ele>722.1</ele>
        <time>2019-08-12T09:32:53Z</time>
      </trkpt>
      <trkpt lat="39.5335140" lon="-3.8486450">
        <ele>722.2</ele>
        <time>2019-08-12T09:32:54Z</time>
      </trkpt>
      <trkpt lat="39.5335510" lon="-3.8486620">
        <ele>722.3</ele>
        <time>2019-08-12T09:32:55Z</time>
      </trkpt>
      <trkpt lat="39.5335890" lon="-3.8486790">
        <ele>722.4</ele>
        <time>2019-08-12T09:32:56Z</time>
      </trkpt>
      <trkpt lat="39.5336260" lon="-3.8486960">
        <ele>722.5</ele>
        <time>2019-08-12T09:32:57Z</time>
      </trkpt>
      <trkpt lat="39.5336620" lon="-3.8487120">
        <ele>722.6</ele>
        <time>2019-08-12T09:32:58Z</time>
      </trkpt>
      <trkpt lat="39.5336990" lon="-3.8487280">
        <ele>722.7</ele>
        <time>2019-08-12T09:32:59Z</time>
      </trkpt>
      <trkpt lat="39.5337350" lon="-3.8487440">
        <ele>722.8</ele>
        <time>2019-08-12T09:33:00Z</time>
      </trkpt>
      <trkpt lat="39.5337710" lon="-3.8487600">
        <ele>722.9</ele>
        <time>2019-08-12T09:33:01Z</time>
      </trkpt>
      <trkpt lat="39.5338060" lon="-3.8487760">
        <ele>723.0</ele>
        <time>2019-08-12T09:33:02Z</time>
      </trkpt>
      <trkpt lat="39.5338420" lon="-3.8487910">
        <ele>723.1</ele>
        <time>2019-08-12T09:33:03Z</time>
      </trkpt>
      <trkpt lat="39.5338770" lon="-3.8488060">
        <ele>723.3</ele>
        <time>2019-08-12T09:33:04Z</time>
      </trkpt>
      <trkpt lat="39.5339120" lon="-3.8488200">
        <ele>723.4</ele>
        <time>2019-08-12T09:33:05Z</time>
      </trkpt>
      <trkpt lat="39.5339470" lon="-3.8488350">
        <ele>723.5</ele>
        <time>2019-08-12T09:33:06Z</time>
      </trkpt>
      <trkpt lat="39.5339820" lon="-3.8488490">
        <ele>723.6</ele>
        <time>2019-08-12T09:33:07Z</time>
      </trkpt>
      <trkpt lat="39.5340160" lon="-3.8488640">
        <ele>723.7</ele>
        <time>2019-08-12T09:33:08Z</time>
      </trkpt>
      <trkpt lat="39.5340510" lon="-3.8488780">
        <ele>723.9</ele>
        <time>2019-08-12T09:33:09Z</time>
      </trkpt>
      <trkpt lat="39.5340850" lon="-3.8488930">
        <ele>724.0</ele>
        <time>2019-08-12T09:33:10Z</time>
      </trkpt>
      <trkpt lat="39.5341200" lon="-3.8489080">
        <ele>724.1</ele>
        <time>2019-08-12T09:33:11Z</time>
      </trkpt>
      <trkpt lat="39.5341550" lon="-3.8489230">
        <ele>724.2</ele>
        <time>2019-08-12T09:33:12Z</time>
      </trkpt>
      <trkpt lat="39.5341900" lon="-3.8489380">
        <ele>724.3</ele>
        <time>2019-08-12T09:33:13Z</time>
      </trkpt>
      <trkpt lat="39.5342240" lon="-3.8489540">
        <ele>724.4</ele>
        <time>2019-08-12T09:33:14Z</time>
      </trkpt>
      <trkpt lat="39.5342590" lon="-3.8489700">
        <ele>724.5</ele>
        <time>2019-08-12T09:33:15Z</time>
      </trkpt>
      <trkpt lat="39.5342940" lon="-3.8489870">
        <ele>724.6</ele>
        <time>2019-08-12T09:33:16Z</time>
      </trkpt>
      <trkpt lat="39.5343300" lon="-3.8490030">
        <ele>724.7</ele>
        <time>2019-08-12T09:33:17Z</time>
      </trkpt>
      <trkpt lat="39.5343650" lon="-3.8490200">
        <ele>724.8</ele>
        <time>2019-08-12T09:33:18Z</time>
      </trkpt>
      <trkpt lat="39.5344000" lon="-3.8490370">
        <ele>724.9</ele>
        <time>2019-08-12T09:33:19Z</time>
      </trkpt>
      <trkpt lat="39.5344350" lon="-3.8490540">
        <ele>725.0</ele>
        <time>2019-08-12T09:33:20Z</time>
      </trkpt>
      <trkpt lat="39.5344700" lon="-3.8490710">
        <ele>725.1</ele>
        <time>2019-08-12T09:33:21Z</time>
      </trkpt>
      <trkpt lat="39.5345050" lon="-3.8490880">
        <ele>725.1</ele>
        <time>2019-08-12T09:33:22Z</time>
      </trkpt>
      <trkpt lat="39.5345410" lon="-3.8491050">
        <ele>725.2</ele>
        <time>2019-08-12T09:33:23Z</time>
      </trkpt>
      <trkpt lat="39.5345760" lon="-3.8491220">
        <ele>725.2</ele>
        <time>2019-08-12T09:33:24Z</time>
      </trkpt>
      <trkpt lat="39.5346120" lon="-3.8491400">
        <ele>725.2</ele>
        <time>2019-08-12T09:33:25Z</time>
      </trkpt>
      <trkpt lat="39.5346470" lon="-3.8491560">
        <ele>725.3</ele>
        <time>2019-08-12T09:33:26Z</time>
      </trkpt>
      <trkpt lat="39.5346830" lon="-3.8491730">
        <ele>725.4</ele>
        <time>2019-08-12T09:33:27Z</time>
      </trkpt>
      <trkpt lat="39.5347190" lon="-3.8491900">
        <ele>725.5</ele>
        <time>2019-08-12T09:33:28Z</time>
      </trkpt>
      <trkpt lat="39.5347560" lon="-3.8492070">
        <ele>725.7</ele>
        <time>2019-08-12T09:33:29Z</time>
      </trkpt>
      <trkpt lat="39.5347930" lon="-3.8492230">
        <ele>725.9</ele>
        <time>2019-08-12T09:33:30Z</time>
      </trkpt>
      <trkpt lat="39.5348300" lon="-3.8492390">
        <ele>726.0</ele>
        <time>2019-08-12T09:33:31Z</time>
      </trkpt>
      <trkpt lat="39.5348670" lon="-3.8492560">
        <ele>726.2</ele>
        <time>2019-08-12T09:33:32Z</time>
      </trkpt>
      <trkpt lat="39.5349040" lon="-3.8492720">
        <ele>726.4</ele>
        <time>2019-08-12T09:33:33Z</time>
      </trkpt>
      <trkpt lat="39.5349410" lon="-3.8492880">
        <ele>726.5</ele>
        <time>2019-08-12T09:33:34Z</time>
      </trkpt>
      <trkpt lat="39.5349760" lon="-3.8493050">
        <ele>726.7</ele>
        <time>2019-08-12T09:33:35Z</time>
      </trkpt>
      <trkpt lat="39.5350090" lon="-3.8493220">
        <ele>726.9</ele>
        <time>2019-08-12T09:33:36Z</time>
      </trkpt>
      <trkpt lat="39.5350420" lon="-3.8493400">
        <ele>727.0</ele>
        <time>2019-08-12T09:33:37Z</time>
      </trkpt>
      <trkpt lat="39.5350730" lon="-3.8493570">
        <ele>727.1</ele>
        <time>2019-08-12T09:33:38Z</time>
      </trkpt>
      <trkpt lat="39.5351040" lon="-3.8493730">
        <ele>727.2</ele>
        <time>2019-08-12T09:33:39Z</time>
      </trkpt>
      <trkpt lat="39.5351340" lon="-3.8493890">
        <ele>727.3</ele>
        <time>2019-08-12T09:33:40Z</time>
      </trkpt>
      <trkpt lat="39.5351640" lon="-3.8494030">
        <ele>727.4</ele>
        <time>2019-08-12T09:33:41Z</time>
      </trkpt>
      <trkpt lat="39.5351940" lon="-3.8494160">
        <ele>727.5</ele>
        <time>2019-08-12T09:33:42Z</time>
      </trkpt>
      <trkpt lat="39.5352250" lon="-3.8494290">
        <ele>727.6</ele>
        <time>2019-08-12T09:33:43Z</time>
      </trkpt>
      <trkpt lat="39.5352560" lon="-3.8494420">
        <ele>727.7</ele>
        <time>2019-08-12T09:33:44Z</time>
      </trkpt>
      <trkpt lat="39.5352890" lon="-3.8494560">
        <ele>727.8</ele>
        <time>2019-08-12T09:33:45Z</time>
      </trkpt>
      <trkpt lat="39.5353240" lon="-3.8494710">
        <ele>727.9</ele>
        <time>2019-08-12T09:33:46Z</time>
      </trkpt>
      <trkpt lat="39.5353600" lon="-3.8494870">
        <ele>728.0</ele>
        <time>2019-08-12T09:33:47Z</time>
      </trkpt>
      <trkpt lat="39.5353960" lon="-3.8495040">
        <ele>728.0</ele>
        <time>2019-08-12T09:33:48Z</time>
      </trkpt>
      <trkpt lat="39.5354330" lon="-3.8495220">
        <ele>728.1</ele>
        <time>2019-08-12T09:33:49Z</time>
      </trkpt>
      <trkpt lat="39.5354690" lon="-3.8495400">
        <ele>728.2</ele>
        <time>2019-08-12T09:33:50Z</time>
      </trkpt>
      <trkpt lat="39.5355050" lon="-3.8495580">
        <ele>728.3</ele>
        <time>2019-08-12T09:33:51Z</time>
      </trkpt>
      <trkpt lat="39.5355410" lon="-3.8495760">
        <ele>728.4</ele>
        <time>2019-08-12T09:33:52Z</time>
      </trkpt>
      <trkpt lat="39.5355760" lon="-3.8495950">
        <ele>728.5</ele>
        <time>2019-08-12T09:33:53Z</time>
      </trkpt>
      <trkpt lat="39.5356110" lon="-3.8496130">
        <ele>728.5</ele>
        <time>2019-08-12T09:33:54Z</time>
      </trkpt>
      <trkpt lat="39.5356460" lon="-3.8496310">
        <ele>728.7</ele>
        <time>2019-08-12T09:33:55Z</time>
      </trkpt>
      <trkpt lat="39.5356800" lon="-3.8496500">
        <ele>728.8</ele>
        <time>2019-08-12T09:33:56Z</time>
      </trkpt>
      <trkpt lat="39.5357150" lon="-3.8496670">
        <ele>728.9</ele>
        <time>2019-08-12T09:33:57Z</time>
      </trkpt>
      <trkpt lat="39.5357490" lon="-3.8496850">
        <ele>729.0</ele>
        <time>2019-08-12T09:33:58Z</time>
      </trkpt>
      <trkpt lat="39.5357830" lon="-3.8497020">
        <ele>729.1</ele>
        <time>2019-08-12T09:33:59Z</time>
      </trkpt>
      <trkpt lat="39.5358180" lon="-3.8497180">
        <ele>729.2</ele>
        <time>2019-08-12T09:34:00Z</time>
      </trkpt>
      <trkpt lat="39.5358530" lon="-3.8497350">
        <ele>729.3</ele>
        <time>2019-08-12T09:34:01Z</time>
      </trkpt>
      <trkpt lat="39.5358870" lon="-3.8497510">
        <ele>729.4</ele>
        <time>2019-08-12T09:34:02Z</time>
      </trkpt>
      <trkpt lat="39.5359220" lon="-3.8497670">
        <ele>729.4</ele>
        <time>2019-08-12T09:34:03Z</time>
      </trkpt>
      <trkpt lat="39.5359570" lon="-3.8497830">
        <ele>729.5</ele>
        <time>2019-08-12T09:34:04Z</time>
      </trkpt>
      <trkpt lat="39.5359930" lon="-3.8497980">
        <ele>729.7</ele>
        <time>2019-08-12T09:34:05Z</time>
      </trkpt>
      <trkpt lat="39.5360290" lon="-3.8498140">
        <ele>729.8</ele>
        <time>2019-08-12T09:34:06Z</time>
      </trkpt>
      <trkpt lat="39.5360650" lon="-3.8498310">
        <ele>729.9</ele>
        <time>2019-08-12T09:34:07Z</time>
      </trkpt>
      <trkpt lat="39.5361010" lon="-3.8498470">
        <ele>730.1</ele>
        <time>2019-08-12T09:34:08Z</time>
      </trkpt>
      <trkpt lat="39.5361380" lon="-3.8498640">
        <ele>730.2</ele>
        <time>2019-08-12T09:34:09Z</time>
      </trkpt>
      <trkpt lat="39.5361750" lon="-3.8498810">
        <ele>730.3</ele>
        <time>2019-08-12T09:34:10Z</time>
      </trkpt>
      <trkpt lat="39.5362130" lon="-3.8498980">
        <ele>730.4</ele>
        <time>2019-08-12T09:34:11Z</time>
      </trkpt>
      <trkpt lat="39.5362500" lon="-3.8499150">
        <ele>730.6</ele>
        <time>2019-08-12T09:34:12Z</time>
      </trkpt>
      <trkpt lat="39.5362880" lon="-3.8499320">
        <ele>730.8</ele>
        <time>2019-08-12T09:34:13Z</time>
      </trkpt>
      <trkpt lat="39.5363260" lon="-3.8499490">
        <ele>731.0</ele>
        <time>2019-08-12T09:34:14Z</time>
      </trkpt>
      <trkpt lat="39.5363630" lon="-3.8499670">
        <ele>731.2</ele>
        <time>2019-08-12T09:34:15Z</time>
      </trkpt>
      <trkpt lat="39.5364010" lon="-3.8499840">
        <ele>731.4</ele>
        <time>2019-08-12T09:34:16Z</time>
      </trkpt>
      <trkpt lat="39.5364380" lon="-3.8500010">
        <ele>731.6</ele>
        <time>2019-08-12T09:34:17Z</time>
      </trkpt>
      <trkpt lat="39.5364760" lon="-3.8500180">
        <ele>731.8</ele>
        <time>2019-08-12T09:34:18Z</time>
      </trkpt>
      <trkpt lat="39.5365130" lon="-3.8500350">
        <ele>731.9</ele>
        <time>2019-08-12T09:34:19Z</time>
      </trkpt>
      <trkpt lat="39.5365500" lon="-3.8500520">
        <ele>732.1</ele>
        <time>2019-08-12T09:34:20Z</time>
      </trkpt>
      <trkpt lat="39.5365880" lon="-3.8500690">
        <ele>732.2</ele>
        <time>2019-08-12T09:34:21Z</time>
      </trkpt>
      <trkpt lat="39.5366260" lon="-3.8500860">
        <ele>732.3</ele>
        <time>2019-08-12T09:34:22Z</time>
      </trkpt>
      <trkpt lat="39.5366640" lon="-3.8501040">
        <ele>732.5</ele>
        <time>2019-08-12T09:34:23Z</time>
      </trkpt>
      <trkpt lat="39.5367020" lon="-3.8501210">
        <ele>732.6</ele>
        <time>2019-08-12T09:34:24Z</time>
      </trkpt>
      <trkpt lat="39.5367410" lon="-3.8501390">
        <ele>732.8</ele>
        <time>2019-08-12T09:34:25Z</time>
      </trkpt>
      <trkpt lat="39.5367800" lon="-3.8501560">
        <ele>732.9</ele>
        <time>2019-08-12T09:34:26Z</time>
      </trkpt>
      <trkpt lat="39.5368200" lon="-3.8501740">
        <ele>733.0</ele>
        <time>2019-08-12T09:34:27Z</time>
      </trkpt>
      <trkpt lat="39.5368600" lon="-3.8501930">
        <ele>733.1</ele>
        <time>2019-08-12T09:34:28Z</time>
      </trkpt>
      <trkpt lat="39.5369010" lon="-3.8502110">
        <ele>733.2</ele>
        <time>2019-08-12T09:34:29Z</time>
      </trkpt>
      <trkpt lat="39.5369430" lon="-3.8502300">
        <ele>733.2</ele>
        <time>2019-08-12T09:34:30Z</time>
      </trkpt>
      <trkpt lat="39.5369840" lon="-3.8502480">
        <ele>733.1</ele>
        <time>2019-08-12T09:34:31Z</time>
      </trkpt>
      <trkpt lat="39.5370270" lon="-3.8502670">
        <ele>733.0</ele>
        <time>2019-08-12T09:34:32Z</time>
      </trkpt>
      <trkpt lat="39.5370700" lon="-3.8502860">
        <ele>732.8</ele>
        <time>2019-08-12T09:34:33Z</time>
      </trkpt>
      <trkpt lat="39.5371140" lon="-3.8503050">
        <ele>732.6</ele>
        <time>2019-08-12T09:34:34Z</time>
      </trkpt>
      <trkpt lat="39.5371580" lon="-3.8503250">
        <ele>732.3</ele>
        <time>2019-08-12T09:34:35Z</time>
      </trkpt>
      <trkpt lat="39.5372020" lon="-3.8503440">
        <ele>732.1</ele>
        <time>2019-08-12T09:34:36Z</time>
      </trkpt>
      <trkpt lat="39.5372470" lon="-3.8503640">
        <ele>731.8</ele>
        <time>2019-08-12T09:34:37Z</time>
      </trkpt>
      <trkpt lat="39.5372930" lon="-3.8503840">
        <ele>731.6</ele>
        <time>2019-08-12T09:34:38Z</time>
      </trkpt>
      <trkpt lat="39.5373390" lon="-3.8504040">
        <ele>731.5</ele>
        <time>2019-08-12T09:34:39Z</time>
      </trkpt>
      <trkpt lat="39.5373860" lon="-3.8504230">
        <ele>731.5</ele>
        <time>2019-08-12T09:34:40Z</time>
      </trkpt>
      <trkpt lat="39.5374340" lon="-3.8504440">
        <ele>731.6</ele>
        <time>2019-08-12T09:34:41Z</time>
      </trkpt>
      <trkpt lat="39.5375060" lon="-3.8504740">
        <ele>731.8</ele>
        <time>2019-08-12T09:34:42Z</time>
      </trkpt>
      <trkpt lat="39.5375300" lon="-3.8504840">
        <ele>731.8</ele>
        <time>2019-08-12T09:34:43Z</time>
      </trkpt>
      <trkpt lat="39.5375790" lon="-3.8505040">
        <ele>732.0</ele>
        <time>2019-08-12T09:34:44Z</time>
      </trkpt>
      <trkpt lat="39.5376280" lon="-3.8505250">
        <ele>732.1</ele>
        <time>2019-08-12T09:34:45Z</time>
      </trkpt>
      <trkpt lat="39.5376770" lon="-3.8505460">
        <ele>732.2</ele>
        <time>2019-08-12T09:34:46Z</time>
      </trkpt>
      <trkpt lat="39.5377260" lon="-3.8505680">
        <ele>732.2</ele>
        <time>2019-08-12T09:34:47Z</time>
      </trkpt>
      <trkpt lat="39.5377730" lon="-3.8505920">
        <ele>732.3</ele>
        <time>2019-08-12T09:34:48Z</time>
      </trkpt>
      <trkpt lat="39.5378190" lon="-3.8506160">
        <ele>732.3</ele>
        <time>2019-08-12T09:34:49Z</time>
      </trkpt>
      <trkpt lat="39.5378660" lon="-3.8506420">
        <ele>732.3</ele>
        <time>2019-08-12T09:34:50Z</time>
      </trkpt>
      <trkpt lat="39.5379150" lon="-3.8506680">
        <ele>732.3</ele>
        <time>2019-08-12T09:34:51Z</time>
      </trkpt>
      <trkpt lat="39.5379690" lon="-3.8506930">
        <ele>732.3</ele>
        <time>2019-08-12T09:34:52Z</time>
      </trkpt>
      <trkpt lat="39.5380250" lon="-3.8507190">
        <ele>732.3</ele>
        <time>2019-08-12T09:34:53Z</time>
      </trkpt>
      <trkpt lat="39.5380800" lon="-3.8507430">
        <ele>732.3</ele>
        <time>2019-08-12T09:34:54Z</time>
      </trkpt>
      <trkpt lat="39.5381350" lon="-3.8507680">
        <ele>732.3</ele>
        <time>2019-08-12T09:34:55Z</time>
      </trkpt>
      <trkpt lat="39.5381890" lon="-3.8507920">
        <ele>732.3</ele>
        <time>2019-08-12T09:34:56Z</time>
      </trkpt>
      <trkpt lat="39.5382430" lon="-3.8508160">
        <ele>732.3</ele>
        <time>2019-08-12T09:34:57Z</time>
      </trkpt>
      <trkpt lat="39.5382960" lon="-3.8508400">
        <ele>732.3</ele>
        <time>2019-08-12T09:34:58Z</time>
      </trkpt>
      <trkpt lat="39.5383490" lon="-3.8508640">
        <ele>732.3</ele>
        <time>2019-08-12T09:34:59Z</time>
      </trkpt>
      <trkpt lat="39.5384020" lon="-3.8508880">
        <ele>732.2</ele>
        <time>2019-08-12T09:35:00Z</time>
      </trkpt>
      <trkpt lat="39.5384550" lon="-3.8509130">
        <ele>732.1</ele>
        <time>2019-08-12T09:35:01Z</time>
      </trkpt>
      <trkpt lat="39.5385080" lon="-3.8509370">
        <ele>732.0</ele>
        <time>2019-08-12T09:35:02Z</time>
      </trkpt>
      <trkpt lat="39.5385620" lon="-3.8509620">
        <ele>731.8</ele>
        <time>2019-08-12T09:35:03Z</time>
      </trkpt>
      <trkpt lat="39.5386150" lon="-3.8509870">
        <ele>731.5</ele>
        <time>2019-08-12T09:35:04Z</time>
      </trkpt>
      <trkpt lat="39.5386690" lon="-3.8510120">
        <ele>731.2</ele>
        <time>2019-08-12T09:35:05Z</time>
      </trkpt>
      <trkpt lat="39.5387230" lon="-3.8510380">
        <ele>730.9</ele>
        <time>2019-08-12T09:35:06Z</time>
      </trkpt>
      <trkpt lat="39.5387770" lon="-3.8510630">
        <ele>730.7</ele>
        <time>2019-08-12T09:35:07Z</time>
      </trkpt>
      <trkpt lat="39.5388310" lon="-3.8510890">
        <ele>730.5</ele>
        <time>2019-08-12T09:35:08Z</time>
      </trkpt>
      <trkpt lat="39.5388850" lon="-3.8511150">
        <ele>730.4</ele>
        <time>2019-08-12T09:35:09Z</time>
      </trkpt>
      <trkpt lat="39.5389400" lon="-3.8511400">
        <ele>730.3</ele>
        <time>2019-08-12T09:35:10Z</time>
      </trkpt>
      <trkpt lat="39.5389940" lon="-3.8511660">
        <ele>730.3</ele>
        <time>2019-08-12T09:35:11Z</time>
      </trkpt>
      <trkpt lat="39.5390490" lon="-3.8511910">
        <ele>730.3</ele>
        <time>2019-08-12T09:35:12Z</time>
      </trkpt>
      <trkpt lat="39.5391040" lon="-3.8512160">
        <ele>730.3</ele>
        <time>2019-08-12T09:35:13Z</time>
      </trkpt>
      <trkpt lat="39.5391580" lon="-3.8512420">
        <ele>730.3</ele>
        <time>2019-08-12T09:35:14Z</time>
      </trkpt>
      <trkpt lat="39.5392130" lon="-3.8512670">
        <ele>730.3</ele>
        <time>2019-08-12T09:35:15Z</time>
      </trkpt>
      <trkpt lat="39.5392680" lon="-3.8512920">
        <ele>730.3</ele>
        <time>2019-08-12T09:35:16Z</time>
      </trkpt>
      <trkpt lat="39.5393230" lon="-3.8513170">
        <ele>730.3</ele>
        <time>2019-08-12T09:35:17Z</time>
      </trkpt>
      <trkpt lat="39.5393780" lon="-3.8513420">
        <ele>730.3</ele>
        <time>2019-08-12T09:35:18Z</time>
      </trkpt>
      <trkpt lat="39.5394330" lon="-3.8513670">
        <ele>730.3</ele>
        <time>2019-08-12T09:35:19Z</time>
      </trkpt>
      <trkpt lat="39.5394880" lon="-3.8513930">
        <ele>730.3</ele>
        <time>2019-08-12T09:35:20Z</time>
      </trkpt>
      <trkpt lat="39.5395430" lon="-3.8514180">
        <ele>730.3</ele>
        <time>2019-08-12T09:35:21Z</time>
      </trkpt>
      <trkpt lat="39.5395980" lon="-3.8514440">
        <ele>730.3</ele>
        <time>2019-08-12T09:35:22Z</time>
      </trkpt>
      <trkpt lat="39.5396540" lon="-3.8514690">
        <ele>730.3</ele>
        <time>2019-08-12T09:35:23Z</time>
      </trkpt>
      <trkpt lat="39.5397090" lon="-3.8514950">
        <ele>730.3</ele>
        <time>2019-08-12T09:35:24Z</time>
      </trkpt>
      <trkpt lat="39.5397650" lon="-3.8515210">
        <ele>730.3</ele>
        <time>2019-08-12T09:35:25Z</time>
      </trkpt>
      <trkpt lat="39.5398220" lon="-3.8515470">
        <ele>730.3</ele>
        <time>2019-08-12T09:35:26Z</time>
      </trkpt>
      <trkpt lat="39.5398790" lon="-3.8515730">
        <ele>730.3</ele>
        <time>2019-08-12T09:35:27Z</time>
      </trkpt>
      <trkpt lat="39.5399370" lon="-3.8516000">
        <ele>730.3</ele>
        <time>2019-08-12T09:35:28Z</time>
      </trkpt>
      <trkpt lat="39.5399950" lon="-3.8516270">
        <ele>730.3</ele>
        <time>2019-08-12T09:35:29Z</time>
      </trkpt>
      <trkpt lat="39.5400540" lon="-3.8516540">
        <ele>730.3</ele>
        <time>2019-08-12T09:35:30Z</time>
      </trkpt>
      <trkpt lat="39.5401150" lon="-3.8516810">
        <ele>730.3</ele>
        <time>2019-08-12T09:35:31Z</time>
      </trkpt>
      <trkpt lat="39.5401760" lon="-3.8517080">
        <ele>730.3</ele>
        <time>2019-08-12T09:35:32Z</time>
      </trkpt>
      <trkpt lat="39.5402380" lon="-3.8517360">
        <ele>730.3</ele>
        <time>2019-08-12T09:35:33Z</time>
      </trkpt>
      <trkpt lat="39.5403000" lon="-3.8517640">
        <ele>730.3</ele>
        <time>2019-08-12T09:35:34Z</time>
      </trkpt>
      <trkpt lat="39.5403630" lon="-3.8517930">
        <ele>730.2</ele>
        <time>2019-08-12T09:35:35Z</time>
      </trkpt>
      <trkpt lat="39.5404270" lon="-3.8518220">
        <ele>730.1</ele>
        <time>2019-08-12T09:35:36Z</time>
      </trkpt>
      <trkpt lat="39.5404910" lon="-3.8518510">
        <ele>730.0</ele>
        <time>2019-08-12T09:35:37Z</time>
      </trkpt>
      <trkpt lat="39.5405550" lon="-3.8518800">
        <ele>729.7</ele>
        <time>2019-08-12T09:35:38Z</time>
      </trkpt>
      <trkpt lat="39.5406190" lon="-3.8519100">
        <ele>729.4</ele>
        <time>2019-08-12T09:35:39Z</time>
      </trkpt>
      <trkpt lat="39.5406830" lon="-3.8519410">
        <ele>729.1</ele>
        <time>2019-08-12T09:35:40Z</time>
      </trkpt>
      <trkpt lat="39.5407480" lon="-3.8519710">
        <ele>728.8</ele>
        <time>2019-08-12T09:35:41Z</time>
      </trkpt>
      <trkpt lat="39.5408120" lon="-3.8520030">
        <ele>728.6</ele>
        <time>2019-08-12T09:35:42Z</time>
      </trkpt>
      <trkpt lat="39.5408770" lon="-3.8520340">
        <ele>728.4</ele>
        <time>2019-08-12T09:35:43Z</time>
      </trkpt>
      <trkpt lat="39.5409420" lon="-3.8520660">
        <ele>728.4</ele>
        <time>2019-08-12T09:35:44Z</time>
      </trkpt>
      <trkpt lat="39.5410080" lon="-3.8520980">
        <ele>728.3</ele>
        <time>2019-08-12T09:35:45Z</time>
      </trkpt>
      <trkpt lat="39.5410730" lon="-3.8521300">
        <ele>728.3</ele>
        <time>2019-08-12T09:35:46Z</time>
      </trkpt>
      <trkpt lat="39.5411400" lon="-3.8521620">
        <ele>728.2</ele>
        <time>2019-08-12T09:35:47Z</time>
      </trkpt>
      <trkpt lat="39.5412060" lon="-3.8521940">
        <ele>728.2</ele>
        <time>2019-08-12T09:35:48Z</time>
      </trkpt>
      <trkpt lat="39.5412740" lon="-3.8522260">
        <ele>728.1</ele>
        <time>2019-08-12T09:35:49Z</time>
      </trkpt>
      <trkpt lat="39.5413420" lon="-3.8522580">
        <ele>727.9</ele>
        <time>2019-08-12T09:35:50Z</time>
      </trkpt>
      <trkpt lat="39.5414100" lon="-3.8522910">
        <ele>727.7</ele>
        <time>2019-08-12T09:35:51Z</time>
      </trkpt>
      <trkpt lat="39.5414790" lon="-3.8523230">
        <ele>727.4</ele>
        <time>2019-08-12T09:35:52Z</time>
      </trkpt>
      <trkpt lat="39.5415480" lon="-3.8523550">
        <ele>727.1</ele>
        <time>2019-08-12T09:35:53Z</time>
      </trkpt>
      <trkpt lat="39.5416180" lon="-3.8523870">
        <ele>726.8</ele>
        <time>2019-08-12T09:35:54Z</time>
      </trkpt>
      <trkpt lat="39.5416880" lon="-3.8524200">
        <ele>726.5</ele>
        <time>2019-08-12T09:35:55Z</time>
      </trkpt>
      <trkpt lat="39.5417590" lon="-3.8524520">
        <ele>726.3</ele>
        <time>2019-08-12T09:35:56Z</time>
      </trkpt>
      <trkpt lat="39.5418310" lon="-3.8524840">
        <ele>726.0</ele>
        <time>2019-08-12T09:35:57Z</time>
      </trkpt>
      <trkpt lat="39.5419030" lon="-3.8525170">
        <ele>725.7</ele>
        <time>2019-08-12T09:35:58Z</time>
      </trkpt>
      <trkpt lat="39.5419750" lon="-3.8525500">
        <ele>725.3</ele>
        <time>2019-08-12T09:35:59Z</time>
      </trkpt>
      <trkpt lat="39.5420470" lon="-3.8525830">
        <ele>725.0</ele>
        <time>2019-08-12T09:36:00Z</time>
      </trkpt>
      <trkpt lat="39.5421200" lon="-3.8526160">
        <ele>724.7</ele>
        <time>2019-08-12T09:36:01Z</time>
      </trkpt>
      <trkpt lat="39.5421930" lon="-3.8526500">
        <ele>724.5</ele>
        <time>2019-08-12T09:36:02Z</time>
      </trkpt>
      <trkpt lat="39.5422650" lon="-3.8526850">
        <ele>724.4</ele>
        <time>2019-08-12T09:36:03Z</time>
      </trkpt>
      <trkpt lat="39.5423380" lon="-3.8527200">
        <ele>724.3</ele>
        <time>2019-08-12T09:36:04Z</time>
      </trkpt>
      <trkpt lat="39.5424110" lon="-3.8527560">
        <ele>724.1</ele>
        <time>2019-08-12T09:36:05Z</time>
      </trkpt>
      <trkpt lat="39.5424830" lon="-3.8527920">
        <ele>724.0</ele>
        <time>2019-08-12T09:36:06Z</time>
      </trkpt>
      <trkpt lat="39.5425550" lon="-3.8528290">
        <ele>723.8</ele>
        <time>2019-08-12T09:36:07Z</time>
      </trkpt>
      <trkpt lat="39.5426270" lon="-3.8528650">
        <ele>723.6</ele>
        <time>2019-08-12T09:36:08Z</time>
      </trkpt>
      <trkpt lat="39.5426990" lon="-3.8529020">
        <ele>723.4</ele>
        <time>2019-08-12T09:36:09Z</time>
      </trkpt>
      <trkpt lat="39.5427710" lon="-3.8529380">
        <ele>723.2</ele>
        <time>2019-08-12T09:36:10Z</time>
      </trkpt>
      <trkpt lat="39.5428420" lon="-3.8529750">
        <ele>723.0</ele>
        <time>2019-08-12T09:36:11Z</time>
      </trkpt>
      <trkpt lat="39.5429130" lon="-3.8530110">
        <ele>722.8</ele>
        <time>2019-08-12T09:36:12Z</time>
      </trkpt>
      <trkpt lat="39.5429850" lon="-3.8530460">
        <ele>722.6</ele>
        <time>2019-08-12T09:36:13Z</time>
      </trkpt>
      <trkpt lat="39.5430560" lon="-3.8530810">
        <ele>722.4</ele>
        <time>2019-08-12T09:36:14Z</time>
      </trkpt>
      <trkpt lat="39.5431260" lon="-3.8531150">
        <ele>722.4</ele>
        <time>2019-08-12T09:36:15Z</time>
      </trkpt>
      <trkpt lat="39.5431970" lon="-3.8531490">
        <ele>722.3</ele>
        <time>2019-08-12T09:36:16Z</time>
      </trkpt>
      <trkpt lat="39.5432680" lon="-3.8531810">
        <ele>722.3</ele>
        <time>2019-08-12T09:36:17Z</time>
      </trkpt>
      <trkpt lat="39.5433380" lon="-3.8532130">
        <ele>722.3</ele>
        <time>2019-08-12T09:36:18Z</time>
      </trkpt>
      <trkpt lat="39.5434090" lon="-3.8532440">
        <ele>722.2</ele>
        <time>2019-08-12T09:36:19Z</time>
      </trkpt>
      <trkpt lat="39.5434780" lon="-3.8532740">
        <ele>722.2</ele>
        <time>2019-08-12T09:36:20Z</time>
      </trkpt>
      <trkpt lat="39.5435480" lon="-3.8533040">
        <ele>722.2</ele>
        <time>2019-08-12T09:36:21Z</time>
      </trkpt>
      <trkpt lat="39.5436160" lon="-3.8533330">
        <ele>722.2</ele>
        <time>2019-08-12T09:36:22Z</time>
      </trkpt>
      <trkpt lat="39.5436840" lon="-3.8533610">
        <ele>722.2</ele>
        <time>2019-08-12T09:36:23Z</time>
      </trkpt>
      <trkpt lat="39.5437500" lon="-3.8533890">
        <ele>722.2</ele>
        <time>2019-08-12T09:36:24Z</time>
      </trkpt>
      <trkpt lat="39.5438160" lon="-3.8534170">
        <ele>722.3</ele>
        <time>2019-08-12T09:36:25Z</time>
      </trkpt>
      <trkpt lat="39.5438800" lon="-3.8534440">
        <ele>722.3</ele>
        <time>2019-08-12T09:36:26Z</time>
      </trkpt>
      <trkpt lat="39.5439430" lon="-3.8534700">
        <ele>722.3</ele>
        <time>2019-08-12T09:36:27Z</time>
      </trkpt>
      <trkpt lat="39.5440060" lon="-3.8534970">
        <ele>722.3</ele>
        <time>2019-08-12T09:36:28Z</time>
      </trkpt>
      <trkpt lat="39.5440670" lon="-3.8535240">
        <ele>722.3</ele>
        <time>2019-08-12T09:36:29Z</time>
      </trkpt>
      <trkpt lat="39.5441290" lon="-3.8535510">
        <ele>722.3</ele>
        <time>2019-08-12T09:36:30Z</time>
      </trkpt>
      <trkpt lat="39.5441910" lon="-3.8535790">
        <ele>722.3</ele>
        <time>2019-08-12T09:36:31Z</time>
      </trkpt>
      <trkpt lat="39.5442520" lon="-3.8536070">
        <ele>722.3</ele>
        <time>2019-08-12T09:36:32Z</time>
      </trkpt>
      <trkpt lat="39.5443120" lon="-3.8536350">
        <ele>722.4</ele>
        <time>2019-08-12T09:36:33Z</time>
      </trkpt>
      <trkpt lat="39.5443710" lon="-3.8536620">
        <ele>722.4</ele>
        <time>2019-08-12T09:36:34Z</time>
      </trkpt>
      <trkpt lat="39.5444280" lon="-3.8536890">
        <ele>722.5</ele>
        <time>2019-08-12T09:36:35Z</time>
      </trkpt>
      <trkpt lat="39.5444850" lon="-3.8537160">
        <ele>722.5</ele>
        <time>2019-08-12T09:36:36Z</time>
      </trkpt>
      <trkpt lat="39.5445400" lon="-3.8537410">
        <ele>722.6</ele>
        <time>2019-08-12T09:36:37Z</time>
      </trkpt>
      <trkpt lat="39.5445940" lon="-3.8537670">
        <ele>722.7</ele>
        <time>2019-08-12T09:36:38Z</time>
      </trkpt>
      <trkpt lat="39.5446470" lon="-3.8537920">
        <ele>722.7</ele>
        <time>2019-08-12T09:36:39Z</time>
      </trkpt>
      <trkpt lat="39.5447000" lon="-3.8538160">
        <ele>722.7</ele>
        <time>2019-08-12T09:36:40Z</time>
      </trkpt>
      <trkpt lat="39.5447530" lon="-3.8538410">
        <ele>722.7</ele>
        <time>2019-08-12T09:36:41Z</time>
      </trkpt>
      <trkpt lat="39.5448060" lon="-3.8538650">
        <ele>722.7</ele>
        <time>2019-08-12T09:36:42Z</time>
      </trkpt>
      <trkpt lat="39.5448590" lon="-3.8538880">
        <ele>722.7</ele>
        <time>2019-08-12T09:36:43Z</time>
      </trkpt>
      <trkpt lat="39.5449120" lon="-3.8539120">
        <ele>722.7</ele>
        <time>2019-08-12T09:36:44Z</time>
      </trkpt>
      <trkpt lat="39.5449660" lon="-3.8539360">
        <ele>722.7</ele>
        <time>2019-08-12T09:36:45Z</time>
      </trkpt>
      <trkpt lat="39.5450190" lon="-3.8539590">
        <ele>722.7</ele>
        <time>2019-08-12T09:36:46Z</time>
      </trkpt>
      <trkpt lat="39.5450730" lon="-3.8539820">
        <ele>722.7</ele>
        <time>2019-08-12T09:36:47Z</time>
      </trkpt>
      <trkpt lat="39.5451270" lon="-3.8540060">
        <ele>722.8</ele>
        <time>2019-08-12T09:36:48Z</time>
      </trkpt>
      <trkpt lat="39.5451810" lon="-3.8540290">
        <ele>722.9</ele>
        <time>2019-08-12T09:36:49Z</time>
      </trkpt>
      <trkpt lat="39.5452350" lon="-3.8540520">
        <ele>723.1</ele>
        <time>2019-08-12T09:36:50Z</time>
      </trkpt>
      <trkpt lat="39.5452890" lon="-3.8540750">
        <ele>723.2</ele>
        <time>2019-08-12T09:36:51Z</time>
      </trkpt>
      <trkpt lat="39.5453420" lon="-3.8540990">
        <ele>723.4</ele>
        <time>2019-08-12T09:36:52Z</time>
      </trkpt>
      <trkpt lat="39.5453950" lon="-3.8541220">
        <ele>723.5</ele>
        <time>2019-08-12T09:36:53Z</time>
      </trkpt>
      <trkpt lat="39.5454480" lon="-3.8541460">
        <ele>723.7</ele>
        <time>2019-08-12T09:36:54Z</time>
      </trkpt>
      <trkpt lat="39.5455010" lon="-3.8541700">
        <ele>723.7</ele>
        <time>2019-08-12T09:36:55Z</time>
      </trkpt>
      <trkpt lat="39.5455530" lon="-3.8541930">
        <ele>723.8</ele>
        <time>2019-08-12T09:36:56Z</time>
      </trkpt>
      <trkpt lat="39.5456050" lon="-3.8542170">
        <ele>723.8</ele>
        <time>2019-08-12T09:36:57Z</time>
      </trkpt>
      <trkpt lat="39.5456560" lon="-3.8542410">
        <ele>723.8</ele>
        <time>2019-08-12T09:36:58Z</time>
      </trkpt>
      <trkpt lat="39.5457070" lon="-3.8542650">
        <ele>723.8</ele>
        <time>2019-08-12T09:36:59Z</time>
      </trkpt>
      <trkpt lat="39.5457580" lon="-3.8542890">
        <ele>723.9</ele>
        <time>2019-08-12T09:37:00Z</time>
      </trkpt>
      <trkpt lat="39.5458090" lon="-3.8543130">
        <ele>723.9</ele>
        <time>2019-08-12T09:37:01Z</time>
      </trkpt>
      <trkpt lat="39.5458600" lon="-3.8543370">
        <ele>723.9</ele>
        <time>2019-08-12T09:37:02Z</time>
      </trkpt>
      <trkpt lat="39.5459100" lon="-3.8543610">
        <ele>724.0</ele>
        <time>2019-08-12T09:37:03Z</time>
      </trkpt>
      <trkpt lat="39.5459600" lon="-3.8543850">
        <ele>724.0</ele>
        <time>2019-08-12T09:37:04Z</time>
      </trkpt>
      <trkpt lat="39.5460100" lon="-3.8544090">
        <ele>724.1</ele>
        <time>2019-08-12T09:37:05Z</time>
      </trkpt>
      <trkpt lat="39.5460590" lon="-3.8544330">
        <ele>724.2</ele>
        <time>2019-08-12T09:37:06Z</time>
      </trkpt>
      <trkpt lat="39.5461090" lon="-3.8544570">
        <ele>724.3</ele>
        <time>2019-08-12T09:37:07Z</time>
      </trkpt>
      <trkpt lat="39.5461580" lon="-3.8544810">
        <ele>724.4</ele>
        <time>2019-08-12T09:37:08Z</time>
      </trkpt>
      <trkpt lat="39.5462070" lon="-3.8545050">
        <ele>724.5</ele>
        <time>2019-08-12T09:37:09Z</time>
      </trkpt>
      <trkpt lat="39.5462560" lon="-3.8545290">
        <ele>724.6</ele>
        <time>2019-08-12T09:37:10Z</time>
      </trkpt>
      <trkpt lat="39.5463050" lon="-3.8545530">
        <ele>724.7</ele>
        <time>2019-08-12T09:37:11Z</time>
      </trkpt>
      <trkpt lat="39.5463540" lon="-3.8545770">
        <ele>724.8</ele>
        <time>2019-08-12T09:37:12Z</time>
      </trkpt>
      <trkpt lat="39.5464020" lon="-3.8546010">
        <ele>724.9</ele>
        <time>2019-08-12T09:37:13Z</time>
      </trkpt>
      <trkpt lat="39.5464510" lon="-3.8546240">
        <ele>725.0</ele>
        <time>2019-08-12T09:37:14Z</time>
      </trkpt>
      <trkpt lat="39.5465000" lon="-3.8546470">
        <ele>725.2</ele>
        <time>2019-08-12T09:37:15Z</time>
      </trkpt>
      <trkpt lat="39.5465490" lon="-3.8546700">
        <ele>725.3</ele>
        <time>2019-08-12T09:37:16Z</time>
      </trkpt>
      <trkpt lat="39.5465970" lon="-3.8546930">
        <ele>725.4</ele>
        <time>2019-08-12T09:37:17Z</time>
      </trkpt>
      <trkpt lat="39.5466460" lon="-3.8547160">
        <ele>725.6</ele>
        <time>2019-08-12T09:37:18Z</time>
      </trkpt>
      <trkpt lat="39.5466950" lon="-3.8547380">
        <ele>725.7</ele>
        <time>2019-08-12T09:37:19Z</time>
      </trkpt>
      <trkpt lat="39.5467440" lon="-3.8547600">
        <ele>725.9</ele>
        <time>2019-08-12T09:37:20Z</time>
      </trkpt>
      <trkpt lat="39.5467930" lon="-3.8547820">
        <ele>726.0</ele>
        <time>2019-08-12T09:37:21Z</time>
      </trkpt>
      <trkpt lat="39.5468410" lon="-3.8548040">
        <ele>726.2</ele>
        <time>2019-08-12T09:37:22Z</time>
      </trkpt>
      <trkpt lat="39.5468900" lon="-3.8548260">
        <ele>726.4</ele>
        <time>2019-08-12T09:37:23Z</time>
      </trkpt>
      <trkpt lat="39.5469380" lon="-3.8548470">
        <ele>726.6</ele>
        <time>2019-08-12T09:37:24Z</time>
      </trkpt>
      <trkpt lat="39.5469870" lon="-3.8548690">
        <ele>726.8</ele>
        <time>2019-08-12T09:37:25Z</time>
      </trkpt>
      <trkpt lat="39.5470350" lon="-3.8548900">
        <ele>727.0</ele>
        <time>2019-08-12T09:37:26Z</time>
      </trkpt>
      <trkpt lat="39.5470840" lon="-3.8549120">
        <ele>727.3</ele>
        <time>2019-08-12T09:37:27Z</time>
      </trkpt>
      <trkpt lat="39.5471320" lon="-3.8549330">
        <ele>727.5</ele>
        <time>2019-08-12T09:37:28Z</time>
      </trkpt>
      <trkpt lat="39.5471810" lon="-3.8549550">
        <ele>727.7</ele>
        <time>2019-08-12T09:37:29Z</time>
      </trkpt>
      <trkpt lat="39.5472300" lon="-3.8549770">
        <ele>727.9</ele>
        <time>2019-08-12T09:37:30Z</time>
      </trkpt>
      <trkpt lat="39.5472780" lon="-3.8549980">
        <ele>728.0</ele>
        <time>2019-08-12T09:37:31Z</time>
      </trkpt>
      <trkpt lat="39.5473270" lon="-3.8550200">
        <ele>728.2</ele>
        <time>2019-08-12T09:37:32Z</time>
      </trkpt>
      <trkpt lat="39.5473760" lon="-3.8550410">
        <ele>728.3</ele>
        <time>2019-08-12T09:37:33Z</time>
      </trkpt>
      <trkpt lat="39.5474250" lon="-3.8550630">
        <ele>728.6</ele>
        <time>2019-08-12T09:37:34Z</time>
      </trkpt>
      <trkpt lat="39.5474740" lon="-3.8550850">
        <ele>728.8</ele>
        <time>2019-08-12T09:37:35Z</time>
      </trkpt>
      <trkpt lat="39.5475230" lon="-3.8551060">
        <ele>729.1</ele>
        <time>2019-08-12T09:37:36Z</time>
      </trkpt>
      <trkpt lat="39.5475720" lon="-3.8551280">
        <ele>729.2</ele>
        <time>2019-08-12T09:37:37Z</time>
      </trkpt>
      <trkpt lat="39.5476210" lon="-3.8551500">
        <ele>729.4</ele>
        <time>2019-08-12T09:37:38Z</time>
      </trkpt>
      <trkpt lat="39.5476700" lon="-3.8551710">
        <ele>729.7</ele>
        <time>2019-08-12T09:37:39Z</time>
      </trkpt>
      <trkpt lat="39.5477190" lon="-3.8551930">
        <ele>730.0</ele>
        <time>2019-08-12T09:37:40Z</time>
      </trkpt>
      <trkpt lat="39.5477680" lon="-3.8552150">
        <ele>730.1</ele>
        <time>2019-08-12T09:37:41Z</time>
      </trkpt>
      <trkpt lat="39.5478170" lon="-3.8552360">
        <ele>730.3</ele>
        <time>2019-08-12T09:37:42Z</time>
      </trkpt>
      <trkpt lat="39.5478660" lon="-3.8552580">
        <ele>730.5</ele>
        <time>2019-08-12T09:37:43Z</time>
      </trkpt>
      <trkpt lat="39.5479150" lon="-3.8552790">
        <ele>730.7</ele>
        <time>2019-08-12T09:37:44Z</time>
      </trkpt>
      <trkpt lat="39.5479640" lon="-3.8553010">
        <ele>730.9</ele>
        <time>2019-08-12T09:37:45Z</time>
      </trkpt>
      <trkpt lat="39.5480130" lon="-3.8553220">
        <ele>731.1</ele>
        <time>2019-08-12T09:37:46Z</time>
      </trkpt>
      <trkpt lat="39.5480620" lon="-3.8553440">
        <ele>731.2</ele>
        <time>2019-08-12T09:37:47Z</time>
      </trkpt>
      <trkpt lat="39.5481100" lon="-3.8553650">
        <ele>731.3</ele>
        <time>2019-08-12T09:37:48Z</time>
      </trkpt>
      <trkpt lat="39.5481590" lon="-3.8553870">
        <ele>731.5</ele>
        <time>2019-08-12T09:37:49Z</time>
      </trkpt>
      <trkpt lat="39.5482080" lon="-3.8554080">
        <ele>731.6</ele>
        <time>2019-08-12T09:37:50Z</time>
      </trkpt>
      <trkpt lat="39.5482570" lon="-3.8554300">
        <ele>731.7</ele>
        <time>2019-08-12T09:37:51Z</time>
      </trkpt>
      <trkpt lat="39.5483060" lon="-3.8554510">
        <ele>731.9</ele>
        <time>2019-08-12T09:37:52Z</time>
      </trkpt>
      <trkpt lat="39.5483550" lon="-3.8554730">
        <ele>731.9</ele>
        <time>2019-08-12T09:37:53Z</time>
      </trkpt>
      <trkpt lat="39.5484050" lon="-3.8554940">
        <ele>732.0</ele>
        <time>2019-08-12T09:37:54Z</time>
      </trkpt>
      <trkpt lat="39.5484550" lon="-3.8555160">
        <ele>732.1</ele>
        <time>2019-08-12T09:37:55Z</time>
      </trkpt>
      <trkpt lat="39.5485050" lon="-3.8555370">
        <ele>732.2</ele>
        <time>2019-08-12T09:37:56Z</time>
      </trkpt>
      <trkpt lat="39.5485550" lon="-3.8555590">
        <ele>732.2</ele>
        <time>2019-08-12T09:37:57Z</time>
      </trkpt>
      <trkpt lat="39.5486060" lon="-3.8555810">
        <ele>732.3</ele>
        <time>2019-08-12T09:37:58Z</time>
      </trkpt>
      <trkpt lat="39.5486570" lon="-3.8556030">
        <ele>732.3</ele>
        <time>2019-08-12T09:37:59Z</time>
      </trkpt>
      <trkpt lat="39.5487090" lon="-3.8556250">
        <ele>732.4</ele>
        <time>2019-08-12T09:38:00Z</time>
      </trkpt>
      <trkpt lat="39.5487610" lon="-3.8556470">
        <ele>732.5</ele>
        <time>2019-08-12T09:38:01Z</time>
      </trkpt>
      <trkpt lat="39.5488130" lon="-3.8556690">
        <ele>732.5</ele>
        <time>2019-08-12T09:38:02Z</time>
      </trkpt>
      <trkpt lat="39.5488660" lon="-3.8556910">
        <ele>732.6</ele>
        <time>2019-08-12T09:38:03Z</time>
      </trkpt>
      <trkpt lat="39.5489190" lon="-3.8557120">
        <ele>732.6</ele>
        <time>2019-08-12T09:38:04Z</time>
      </trkpt>
      <trkpt lat="39.5489730" lon="-3.8557340">
        <ele>732.7</ele>
        <time>2019-08-12T09:38:05Z</time>
      </trkpt>
      <trkpt lat="39.5490260" lon="-3.8557550">
        <ele>732.8</ele>
        <time>2019-08-12T09:38:06Z</time>
      </trkpt>
      <trkpt lat="39.5490800" lon="-3.8557760">
        <ele>732.9</ele>
        <time>2019-08-12T09:38:07Z</time>
      </trkpt>
      <trkpt lat="39.5491350" lon="-3.8557980">
        <ele>733.0</ele>
        <time>2019-08-12T09:38:08Z</time>
      </trkpt>
      <trkpt lat="39.5491890" lon="-3.8558180">
        <ele>733.1</ele>
        <time>2019-08-12T09:38:09Z</time>
      </trkpt>
      <trkpt lat="39.5492440" lon="-3.8558390">
        <ele>733.2</ele>
        <time>2019-08-12T09:38:10Z</time>
      </trkpt>
      <trkpt lat="39.5492980" lon="-3.8558600">
        <ele>733.2</ele>
        <time>2019-08-12T09:38:11Z</time>
      </trkpt>
      <trkpt lat="39.5493530" lon="-3.8558810">
        <ele>733.3</ele>
        <time>2019-08-12T09:38:12Z</time>
      </trkpt>
      <trkpt lat="39.5494070" lon="-3.8559020">
        <ele>733.4</ele>
        <time>2019-08-12T09:38:13Z</time>
      </trkpt>
      <trkpt lat="39.5494620" lon="-3.8559230">
        <ele>733.5</ele>
        <time>2019-08-12T09:38:14Z</time>
      </trkpt>
      <trkpt lat="39.5495160" lon="-3.8559440">
        <ele>733.6</ele>
        <time>2019-08-12T09:38:15Z</time>
      </trkpt>
      <trkpt lat="39.5495700" lon="-3.8559650">
        <ele>733.6</ele>
        <time>2019-08-12T09:38:16Z</time>
      </trkpt>
      <trkpt lat="39.5496240" lon="-3.8559860">
        <ele>733.7</ele>
        <time>2019-08-12T09:38:17Z</time>
      </trkpt>
      <trkpt lat="39.5496770" lon="-3.8560080">
        <ele>733.7</ele>
        <time>2019-08-12T09:38:18Z</time>
      </trkpt>
      <trkpt lat="39.5497300" lon="-3.8560300">
        <ele>733.8</ele>
        <time>2019-08-12T09:38:19Z</time>
      </trkpt>
      <trkpt lat="39.5497820" lon="-3.8560520">
        <ele>733.8</ele>
        <time>2019-08-12T09:38:20Z</time>
      </trkpt>
      <trkpt lat="39.5498340" lon="-3.8560740">
        <ele>733.7</ele>
        <time>2019-08-12T09:38:21Z</time>
      </trkpt>
      <trkpt lat="39.5498850" lon="-3.8560970">
        <ele>733.5</ele>
        <time>2019-08-12T09:38:22Z</time>
      </trkpt>
      <trkpt lat="39.5499360" lon="-3.8561200">
        <ele>733.4</ele>
        <time>2019-08-12T09:38:23Z</time>
      </trkpt>
      <trkpt lat="39.5499860" lon="-3.8561440">
        <ele>733.3</ele>
        <time>2019-08-12T09:38:24Z</time>
      </trkpt>
      <trkpt lat="39.5500350" lon="-3.8561680">
        <ele>733.1</ele>
        <time>2019-08-12T09:38:25Z</time>
      </trkpt>
      <trkpt lat="39.5500830" lon="-3.8561920">
        <ele>732.9</ele>
        <time>2019-08-12T09:38:26Z</time>
      </trkpt>
      <trkpt lat="39.5501320" lon="-3.8562160">
        <ele>732.6</ele>
        <time>2019-08-12T09:38:27Z</time>
      </trkpt>
      <trkpt lat="39.5501810" lon="-3.8562390">
        <ele>732.4</ele>
        <time>2019-08-12T09:38:28Z</time>
      </trkpt>
      <trkpt lat="39.5502300" lon="-3.8562610">
        <ele>732.3</ele>
        <time>2019-08-12T09:38:29Z</time>
      </trkpt>
      <trkpt lat="39.5502800" lon="-3.8562810">
        <ele>731.9</ele>
        <time>2019-08-12T09:38:30Z</time>
      </trkpt>
      <trkpt lat="39.5503310" lon="-3.8562990">
        <ele>731.6</ele>
        <time>2019-08-12T09:38:31Z</time>
      </trkpt>
      <trkpt lat="39.5503820" lon="-3.8563170">
        <ele>731.5</ele>
        <time>2019-08-12T09:38:32Z</time>
      </trkpt>
      <trkpt lat="39.5504320" lon="-3.8563350">
        <ele>731.4</ele>
        <time>2019-08-12T09:38:33Z</time>
      </trkpt>
      <trkpt lat="39.5504830" lon="-3.8563530">
        <ele>731.3</ele>
        <time>2019-08-12T09:38:34Z</time>
      </trkpt>
      <trkpt lat="39.5505320" lon="-3.8563730">
        <ele>731.3</ele>
        <time>2019-08-12T09:38:35Z</time>
      </trkpt>
      <trkpt lat="39.5505810" lon="-3.8563930">
        <ele>731.3</ele>
        <time>2019-08-12T09:38:36Z</time>
      </trkpt>
      <trkpt lat="39.5506620" lon="-3.8564270">
        <ele>731.2</ele>
        <time>2019-08-12T09:38:37Z</time>
      </trkpt>
      <trkpt lat="39.5506940" lon="-3.8564410">
        <ele>731.2</ele>
        <time>2019-08-12T09:38:38Z</time>
      </trkpt>
      <trkpt lat="39.5507260" lon="-3.8564550">
        <ele>731.2</ele>
        <time>2019-08-12T09:38:39Z</time>
      </trkpt>
      <trkpt lat="39.5507750" lon="-3.8564760">
        <ele>731.2</ele>
        <time>2019-08-12T09:38:40Z</time>
      </trkpt>
      <trkpt lat="39.5508240" lon="-3.8564970">
        <ele>731.2</ele>
        <time>2019-08-12T09:38:41Z</time>
      </trkpt>
      <trkpt lat="39.5508740" lon="-3.8565170">
        <ele>731.2</ele>
        <time>2019-08-12T09:38:42Z</time>
      </trkpt>
      <trkpt lat="39.5509250" lon="-3.8565370">
        <ele>731.3</ele>
        <time>2019-08-12T09:38:43Z</time>
      </trkpt>
      <trkpt lat="39.5509770" lon="-3.8565560">
        <ele>731.3</ele>
        <time>2019-08-12T09:38:44Z</time>
      </trkpt>
      <trkpt lat="39.5510290" lon="-3.8565740">
        <ele>731.3</ele>
        <time>2019-08-12T09:38:45Z</time>
      </trkpt>
      <trkpt lat="39.5510830" lon="-3.8565910">
        <ele>731.5</ele>
        <time>2019-08-12T09:38:46Z</time>
      </trkpt>
      <trkpt lat="39.5511370" lon="-3.8566080">
        <ele>731.5</ele>
        <time>2019-08-12T09:38:47Z</time>
      </trkpt>
      <trkpt lat="39.5511920" lon="-3.8566240">
        <ele>731.5</ele>
        <time>2019-08-12T09:38:48Z</time>
      </trkpt>
      <trkpt lat="39.5512470" lon="-3.8566390">
        <ele>731.5</ele>
        <time>2019-08-12T09:38:49Z</time>
      </trkpt>
      <trkpt lat="39.5513010" lon="-3.8566540">
        <ele>731.5</ele>
        <time>2019-08-12T09:38:50Z</time>
      </trkpt>
      <trkpt lat="39.5513560" lon="-3.8566690">
        <ele>731.5</ele>
        <time>2019-08-12T09:38:51Z</time>
      </trkpt>
      <trkpt lat="39.5514100" lon="-3.8566830">
        <ele>731.5</ele>
        <time>2019-08-12T09:38:52Z</time>
      </trkpt>
      <trkpt lat="39.5514640" lon="-3.8566970">
        <ele>731.5</ele>
        <time>2019-08-12T09:38:53Z</time>
      </trkpt>
      <trkpt lat="39.5515170" lon="-3.8567110">
        <ele>731.5</ele>
        <time>2019-08-12T09:38:54Z</time>
      </trkpt>
      <trkpt lat="39.5515690" lon="-3.8567240">
        <ele>731.5</ele>
        <time>2019-08-12T09:38:55Z</time>
      </trkpt>
      <trkpt lat="39.5516220" lon="-3.8567380">
        <ele>731.5</ele>
        <time>2019-08-12T09:38:56Z</time>
      </trkpt>
      <trkpt lat="39.5516740" lon="-3.8567510">
        <ele>731.5</ele>
        <time>2019-08-12T09:38:57Z</time>
      </trkpt>
      <trkpt lat="39.5517260" lon="-3.8567640">
        <ele>731.5</ele>
        <time>2019-08-12T09:38:58Z</time>
      </trkpt>
      <trkpt lat="39.5517770" lon="-3.8567780">
        <ele>731.5</ele>
        <time>2019-08-12T09:38:59Z</time>
      </trkpt>
      <trkpt lat="39.5518290" lon="-3.8567910">
        <ele>731.6</ele>
        <time>2019-08-12T09:39:00Z</time>
      </trkpt>
      <trkpt lat="39.5518810" lon="-3.8568050">
        <ele>731.7</ele>
        <time>2019-08-12T09:39:01Z</time>
      </trkpt>
      <trkpt lat="39.5519340" lon="-3.8568190">
        <ele>731.8</ele>
        <time>2019-08-12T09:39:02Z</time>
      </trkpt>
      <trkpt lat="39.5519860" lon="-3.8568330">
        <ele>731.9</ele>
        <time>2019-08-12T09:39:03Z</time>
      </trkpt>
      <trkpt lat="39.5520390" lon="-3.8568470">
        <ele>732.0</ele>
        <time>2019-08-12T09:39:04Z</time>
      </trkpt>
      <trkpt lat="39.5520910" lon="-3.8568620">
        <ele>732.2</ele>
        <time>2019-08-12T09:39:05Z</time>
      </trkpt>
      <trkpt lat="39.5521440" lon="-3.8568760">
        <ele>732.3</ele>
        <time>2019-08-12T09:39:06Z</time>
      </trkpt>
      <trkpt lat="39.5521960" lon="-3.8568900">
        <ele>732.3</ele>
        <time>2019-08-12T09:39:07Z</time>
      </trkpt>
      <trkpt lat="39.5522490" lon="-3.8569040">
        <ele>732.4</ele>
        <time>2019-08-12T09:39:08Z</time>
      </trkpt>
      <trkpt lat="39.5523010" lon="-3.8569180">
        <ele>732.4</ele>
        <time>2019-08-12T09:39:09Z</time>
      </trkpt>
      <trkpt lat="39.5523530" lon="-3.8569320">
        <ele>732.4</ele>
        <time>2019-08-12T09:39:10Z</time>
      </trkpt>
      <trkpt lat="39.5524050" lon="-3.8569450">
        <ele>732.4</ele>
        <time>2019-08-12T09:39:11Z</time>
      </trkpt>
      <trkpt lat="39.5524560" lon="-3.8569580">
        <ele>732.4</ele>
        <time>2019-08-12T09:39:12Z</time>
      </trkpt>
      <trkpt lat="39.5525070" lon="-3.8569700">
        <ele>732.4</ele>
        <time>2019-08-12T09:39:13Z</time>
      </trkpt>
      <trkpt lat="39.5525590" lon="-3.8569820">
        <ele>732.4</ele>
        <time>2019-08-12T09:39:14Z</time>
      </trkpt>
      <trkpt lat="39.5526100" lon="-3.8569940">
        <ele>732.4</ele>
        <time>2019-08-12T09:39:15Z</time>
      </trkpt>
      <trkpt lat="39.5526610" lon="-3.8570040">
        <ele>732.4</ele>
        <time>2019-08-12T09:39:16Z</time>
      </trkpt>
      <trkpt lat="39.5527120" lon="-3.8570150">
        <ele>732.4</ele>
        <time>2019-08-12T09:39:17Z</time>
      </trkpt>
      <trkpt lat="39.5527630" lon="-3.8570240">
        <ele>732.4</ele>
        <time>2019-08-12T09:39:18Z</time>
      </trkpt>
      <trkpt lat="39.5528140" lon="-3.8570330">
        <ele>732.4</ele>
        <time>2019-08-12T09:39:19Z</time>
      </trkpt>
      <trkpt lat="39.5528660" lon="-3.8570420">
        <ele>732.4</ele>
        <time>2019-08-12T09:39:20Z</time>
      </trkpt>
      <trkpt lat="39.5529180" lon="-3.8570490">
        <ele>732.4</ele>
        <time>2019-08-12T09:39:21Z</time>
      </trkpt>
      <trkpt lat="39.5529700" lon="-3.8570560">
        <ele>732.4</ele>
        <time>2019-08-12T09:39:22Z</time>
      </trkpt>
      <trkpt lat="39.5530230" lon="-3.8570630">
        <ele>732.4</ele>
        <time>2019-08-12T09:39:23Z</time>
      </trkpt>
      <trkpt lat="39.5530750" lon="-3.8570690">
        <ele>732.4</ele>
        <time>2019-08-12T09:39:24Z</time>
      </trkpt>
      <trkpt lat="39.5531280" lon="-3.8570750">
        <ele>732.4</ele>
        <time>2019-08-12T09:39:25Z</time>
      </trkpt>
      <trkpt lat="39.5531810" lon="-3.8570820">
        <ele>732.4</ele>
        <time>2019-08-12T09:39:26Z</time>
      </trkpt>
      <trkpt lat="39.5532340" lon="-3.8570880">
        <ele>732.4</ele>
        <time>2019-08-12T09:39:27Z</time>
      </trkpt>
      <trkpt lat="39.5532860" lon="-3.8570950">
        <ele>732.4</ele>
        <time>2019-08-12T09:39:28Z</time>
      </trkpt>
      <trkpt lat="39.5533390" lon="-3.8571020">
        <ele>732.4</ele>
        <time>2019-08-12T09:39:29Z</time>
      </trkpt>
      <trkpt lat="39.5533910" lon="-3.8571100">
        <ele>732.4</ele>
        <time>2019-08-12T09:39:30Z</time>
      </trkpt>
      <trkpt lat="39.5534430" lon="-3.8571180">
        <ele>732.4</ele>
        <time>2019-08-12T09:39:31Z</time>
      </trkpt>
      <trkpt lat="39.5534950" lon="-3.8571260">
        <ele>732.4</ele>
        <time>2019-08-12T09:39:32Z</time>
      </trkpt>
      <trkpt lat="39.5535470" lon="-3.8571350">
        <ele>732.4</ele>
        <time>2019-08-12T09:39:33Z</time>
      </trkpt>
      <trkpt lat="39.5535990" lon="-3.8571440">
        <ele>732.4</ele>
        <time>2019-08-12T09:39:34Z</time>
      </trkpt>
      <trkpt lat="39.5536510" lon="-3.8571530">
        <ele>732.4</ele>
        <time>2019-08-12T09:39:35Z</time>
      </trkpt>
      <trkpt lat="39.5537030" lon="-3.8571610">
        <ele>732.4</ele>
        <time>2019-08-12T09:39:36Z</time>
      </trkpt>
      <trkpt lat="39.5537560" lon="-3.8571690">
        <ele>732.4</ele>
        <time>2019-08-12T09:39:37Z</time>
      </trkpt>
      <trkpt lat="39.5538080" lon="-3.8571770">
        <ele>732.4</ele>
        <time>2019-08-12T09:39:38Z</time>
      </trkpt>
      <trkpt lat="39.5538610" lon="-3.8571840">
        <ele>732.4</ele>
        <time>2019-08-12T09:39:39Z</time>
      </trkpt>
      <trkpt lat="39.5539140" lon="-3.8571900">
        <ele>732.4</ele>
        <time>2019-08-12T09:39:40Z</time>
      </trkpt>
      <trkpt lat="39.5539670" lon="-3.8571970">
        <ele>732.5</ele>
        <time>2019-08-12T09:39:41Z</time>
      </trkpt>
      <trkpt lat="39.5540190" lon="-3.8572030">
        <ele>732.5</ele>
        <time>2019-08-12T09:39:42Z</time>
      </trkpt>
      <trkpt lat="39.5540710" lon="-3.8572100">
        <ele>732.5</ele>
        <time>2019-08-12T09:39:43Z</time>
      </trkpt>
      <trkpt lat="39.5541220" lon="-3.8572170">
        <ele>732.5</ele>
        <time>2019-08-12T09:39:44Z</time>
      </trkpt>
      <trkpt lat="39.5541720" lon="-3.8572250">
        <ele>732.5</ele>
        <time>2019-08-12T09:39:45Z</time>
      </trkpt>
      <trkpt lat="39.5542220" lon="-3.8572330">
        <ele>732.5</ele>
        <time>2019-08-12T09:39:46Z</time>
      </trkpt>
      <trkpt lat="39.5542710" lon="-3.8572400">
        <ele>732.5</ele>
        <time>2019-08-12T09:39:47Z</time>
      </trkpt>
      <trkpt lat="39.5543470" lon="-3.8572500">
        <ele>732.6</ele>
        <time>2019-08-12T09:39:48Z</time>
      </trkpt>
      <trkpt lat="39.5543720" lon="-3.8572530">
        <ele>732.7</ele>
        <time>2019-08-12T09:39:49Z</time>
      </trkpt>
      <trkpt lat="39.5544220" lon="-3.8572580">
        <ele>733.0</ele>
        <time>2019-08-12T09:39:50Z</time>
      </trkpt>
      <trkpt lat="39.5544740" lon="-3.8572630">
        <ele>733.1</ele>
        <time>2019-08-12T09:39:51Z</time>
      </trkpt>
      <trkpt lat="39.5545250" lon="-3.8572670">
        <ele>733.3</ele>
        <time>2019-08-12T09:39:52Z</time>
      </trkpt>
      <trkpt lat="39.5545780" lon="-3.8572700">
        <ele>733.4</ele>
        <time>2019-08-12T09:39:53Z</time>
      </trkpt>
      <trkpt lat="39.5546300" lon="-3.8572730">
        <ele>733.4</ele>
        <time>2019-08-12T09:39:54Z</time>
      </trkpt>
      <trkpt lat="39.5546830" lon="-3.8572760">
        <ele>733.5</ele>
        <time>2019-08-12T09:39:55Z</time>
      </trkpt>
      <trkpt lat="39.5547360" lon="-3.8572780">
        <ele>733.5</ele>
        <time>2019-08-12T09:39:56Z</time>
      </trkpt>
      <trkpt lat="39.5547890" lon="-3.8572800">
        <ele>733.5</ele>
        <time>2019-08-12T09:39:57Z</time>
      </trkpt>
      <trkpt lat="39.5548430" lon="-3.8572810">
        <ele>733.5</ele>
        <time>2019-08-12T09:39:58Z</time>
      </trkpt>
      <trkpt lat="39.5548970" lon="-3.8572820">
        <ele>733.5</ele>
        <time>2019-08-12T09:39:59Z</time>
      </trkpt>
      <trkpt lat="39.5549510" lon="-3.8572830">
        <ele>733.5</ele>
        <time>2019-08-12T09:40:00Z</time>
      </trkpt>
      <trkpt lat="39.5550050" lon="-3.8572840">
        <ele>733.5</ele>
        <time>2019-08-12T09:40:01Z</time>
      </trkpt>
      <trkpt lat="39.5550590" lon="-3.8572840">
        <ele>733.5</ele>
        <time>2019-08-12T09:40:02Z</time>
      </trkpt>
      <trkpt lat="39.5551130" lon="-3.8572840">
        <ele>733.6</ele>
        <time>2019-08-12T09:40:03Z</time>
      </trkpt>
      <trkpt lat="39.5551670" lon="-3.8572840">
        <ele>733.6</ele>
        <time>2019-08-12T09:40:04Z</time>
      </trkpt>
      <trkpt lat="39.5552210" lon="-3.8572840">
        <ele>733.6</ele>
        <time>2019-08-12T09:40:05Z</time>
      </trkpt>
      <trkpt lat="39.5552750" lon="-3.8572830">
        <ele>733.6</ele>
        <time>2019-08-12T09:40:06Z</time>
      </trkpt>
      <trkpt lat="39.5553290" lon="-3.8572820">
        <ele>733.6</ele>
        <time>2019-08-12T09:40:07Z</time>
      </trkpt>
      <trkpt lat="39.5553830" lon="-3.8572800">
        <ele>733.6</ele>
        <time>2019-08-12T09:40:08Z</time>
      </trkpt>
      <trkpt lat="39.5554370" lon="-3.8572780">
        <ele>733.6</ele>
        <time>2019-08-12T09:40:09Z</time>
      </trkpt>
      <trkpt lat="39.5554900" lon="-3.8572760">
        <ele>733.6</ele>
        <time>2019-08-12T09:40:10Z</time>
      </trkpt>
      <trkpt lat="39.5555430" lon="-3.8572740">
        <ele>733.6</ele>
        <time>2019-08-12T09:40:11Z</time>
      </trkpt>
      <trkpt lat="39.5555960" lon="-3.8572710">
        <ele>733.6</ele>
        <time>2019-08-12T09:40:12Z</time>
      </trkpt>
      <trkpt lat="39.5556490" lon="-3.8572680">
        <ele>733.6</ele>
        <time>2019-08-12T09:40:13Z</time>
      </trkpt>
      <trkpt lat="39.5557010" lon="-3.8572650">
        <ele>733.6</ele>
        <time>2019-08-12T09:40:14Z</time>
      </trkpt>
      <trkpt lat="39.5557530" lon="-3.8572610">
        <ele>733.6</ele>
        <time>2019-08-12T09:40:15Z</time>
      </trkpt>
      <trkpt lat="39.5558040" lon="-3.8572570">
        <ele>733.6</ele>
        <time>2019-08-12T09:40:16Z</time>
      </trkpt>
      <trkpt lat="39.5558550" lon="-3.8572530">
        <ele>733.7</ele>
        <time>2019-08-12T09:40:17Z</time>
      </trkpt>
      <trkpt lat="39.5559050" lon="-3.8572480">
        <ele>733.7</ele>
        <time>2019-08-12T09:40:18Z</time>
      </trkpt>
      <trkpt lat="39.5559560" lon="-3.8572430">
        <ele>733.7</ele>
        <time>2019-08-12T09:40:19Z</time>
      </trkpt>
      <trkpt lat="39.5560060" lon="-3.8572370">
        <ele>733.8</ele>
        <time>2019-08-12T09:40:20Z</time>
      </trkpt>
      <trkpt lat="39.5560560" lon="-3.8572320">
        <ele>734.0</ele>
        <time>2019-08-12T09:40:21Z</time>
      </trkpt>
      <trkpt lat="39.5561060" lon="-3.8572260">
        <ele>734.1</ele>
        <time>2019-08-12T09:40:22Z</time>
      </trkpt>
      <trkpt lat="39.5561560" lon="-3.8572200">
        <ele>734.2</ele>
        <time>2019-08-12T09:40:23Z</time>
      </trkpt>
      <trkpt lat="39.5562060" lon="-3.8572130">
        <ele>734.3</ele>
        <time>2019-08-12T09:40:24Z</time>
      </trkpt>
      <trkpt lat="39.5562560" lon="-3.8572060">
        <ele>734.4</ele>
        <time>2019-08-12T09:40:25Z</time>
      </trkpt>
      <trkpt lat="39.5563060" lon="-3.8571990">
        <ele>734.5</ele>
        <time>2019-08-12T09:40:26Z</time>
      </trkpt>
      <trkpt lat="39.5563560" lon="-3.8571920">
        <ele>734.5</ele>
        <time>2019-08-12T09:40:27Z</time>
      </trkpt>
      <trkpt lat="39.5564070" lon="-3.8571850">
        <ele>734.6</ele>
        <time>2019-08-12T09:40:28Z</time>
      </trkpt>
      <trkpt lat="39.5564570" lon="-3.8571770">
        <ele>734.6</ele>
        <time>2019-08-12T09:40:29Z</time>
      </trkpt>
      <trkpt lat="39.5565070" lon="-3.8571690">
        <ele>734.7</ele>
        <time>2019-08-12T09:40:30Z</time>
      </trkpt>
      <trkpt lat="39.5565570" lon="-3.8571610">
        <ele>734.7</ele>
        <time>2019-08-12T09:40:31Z</time>
      </trkpt>
      <trkpt lat="39.5566390" lon="-3.8571470">
        <ele>735.0</ele>
        <time>2019-08-12T09:40:32Z</time>
      </trkpt>
      <trkpt lat="39.5566710" lon="-3.8571410">
        <ele>735.1</ele>
        <time>2019-08-12T09:40:33Z</time>
      </trkpt>
      <trkpt lat="39.5567040" lon="-3.8571350">
        <ele>735.2</ele>
        <time>2019-08-12T09:40:34Z</time>
      </trkpt>
      <trkpt lat="39.5567530" lon="-3.8571260">
        <ele>735.3</ele>
        <time>2019-08-12T09:40:35Z</time>
      </trkpt>
      <trkpt lat="39.5568250" lon="-3.8571130">
        <ele>735.6</ele>
        <time>2019-08-12T09:40:36Z</time>
      </trkpt>
      <trkpt lat="39.5568480" lon="-3.8571080">
        <ele>735.6</ele>
        <time>2019-08-12T09:40:37Z</time>
      </trkpt>
      <trkpt lat="39.5568960" lon="-3.8570990">
        <ele>735.8</ele>
        <time>2019-08-12T09:40:38Z</time>
      </trkpt>
      <trkpt lat="39.5569430" lon="-3.8570890">
        <ele>735.9</ele>
        <time>2019-08-12T09:40:39Z</time>
      </trkpt>
      <trkpt lat="39.5569910" lon="-3.8570790">
        <ele>736.1</ele>
        <time>2019-08-12T09:40:40Z</time>
      </trkpt>
      <trkpt lat="39.5570390" lon="-3.8570690">
        <ele>736.2</ele>
        <time>2019-08-12T09:40:41Z</time>
      </trkpt>
      <trkpt lat="39.5570860" lon="-3.8570590">
        <ele>736.4</ele>
        <time>2019-08-12T09:40:42Z</time>
      </trkpt>
      <trkpt lat="39.5571350" lon="-3.8570490">
        <ele>736.5</ele>
        <time>2019-08-12T09:40:43Z</time>
      </trkpt>
      <trkpt lat="39.5571840" lon="-3.8570390">
        <ele>736.7</ele>
        <time>2019-08-12T09:40:44Z</time>
      </trkpt>
      <trkpt lat="39.5572330" lon="-3.8570290">
        <ele>736.7</ele>
        <time>2019-08-12T09:40:45Z</time>
      </trkpt>
      <trkpt lat="39.5572830" lon="-3.8570180">
        <ele>736.8</ele>
        <time>2019-08-12T09:40:46Z</time>
      </trkpt>
      <trkpt lat="39.5573680" lon="-3.8570000">
        <ele>736.8</ele>
        <time>2019-08-12T09:40:47Z</time>
      </trkpt>
      <trkpt lat="39.5574020" lon="-3.8569920">
        <ele>736.8</ele>
        <time>2019-08-12T09:40:48Z</time>
      </trkpt>
      <trkpt lat="39.5574360" lon="-3.8569850">
        <ele>736.8</ele>
        <time>2019-08-12T09:40:49Z</time>
      </trkpt>
      <trkpt lat="39.5574880" lon="-3.8569730">
        <ele>736.9</ele>
        <time>2019-08-12T09:40:50Z</time>
      </trkpt>
      <trkpt lat="39.5575410" lon="-3.8569610">
        <ele>736.9</ele>
        <time>2019-08-12T09:40:51Z</time>
      </trkpt>
      <trkpt lat="39.5576290" lon="-3.8569390">
        <ele>736.9</ele>
        <time>2019-08-12T09:40:52Z</time>
      </trkpt>
      <trkpt lat="39.5576650" lon="-3.8569310">
        <ele>736.9</ele>
        <time>2019-08-12T09:40:53Z</time>
      </trkpt>
      <trkpt lat="39.5577000" lon="-3.8569220">
        <ele>736.9</ele>
        <time>2019-08-12T09:40:54Z</time>
      </trkpt>
      <trkpt lat="39.5577540" lon="-3.8569080">
        <ele>736.9</ele>
        <time>2019-08-12T09:40:55Z</time>
      </trkpt>
      <trkpt lat="39.5578080" lon="-3.8568940">
        <ele>736.9</ele>
        <time>2019-08-12T09:40:56Z</time>
      </trkpt>
      <trkpt lat="39.5578620" lon="-3.8568790">
        <ele>736.9</ele>
        <time>2019-08-12T09:40:57Z</time>
      </trkpt>
      <trkpt lat="39.5579150" lon="-3.8568650">
        <ele>736.9</ele>
        <time>2019-08-12T09:40:58Z</time>
      </trkpt>
      <trkpt lat="39.5579690" lon="-3.8568500">
        <ele>736.9</ele>
        <time>2019-08-12T09:40:59Z</time>
      </trkpt>
      <trkpt lat="39.5580210" lon="-3.8568340">
        <ele>736.9</ele>
        <time>2019-08-12T09:41:00Z</time>
      </trkpt>
      <trkpt lat="39.5580740" lon="-3.8568190">
        <ele>736.9</ele>
        <time>2019-08-12T09:41:01Z</time>
      </trkpt>
      <trkpt lat="39.5581250" lon="-3.8568040">
        <ele>736.9</ele>
        <time>2019-08-12T09:41:02Z</time>
      </trkpt>
      <trkpt lat="39.5581760" lon="-3.8567880">
        <ele>736.9</ele>
        <time>2019-08-12T09:41:03Z</time>
      </trkpt>
      <trkpt lat="39.5582260" lon="-3.8567730">
        <ele>736.9</ele>
        <time>2019-08-12T09:41:04Z</time>
      </trkpt>
      <trkpt lat="39.5582750" lon="-3.8567570">
        <ele>736.9</ele>
        <time>2019-08-12T09:41:05Z</time>
      </trkpt>
      <trkpt lat="39.5583240" lon="-3.8567420">
        <ele>736.9</ele>
        <time>2019-08-12T09:41:06Z</time>
      </trkpt>
      <trkpt lat="39.5583720" lon="-3.8567260">
        <ele>736.9</ele>
        <time>2019-08-12T09:41:07Z</time>
      </trkpt>
      <trkpt lat="39.5584200" lon="-3.8567110">
        <ele>736.9</ele>
        <time>2019-08-12T09:41:08Z</time>
      </trkpt>
      <trkpt lat="39.5584670" lon="-3.8566950">
        <ele>737.0</ele>
        <time>2019-08-12T09:41:09Z</time>
      </trkpt>
      <trkpt lat="39.5585140" lon="-3.8566800">
        <ele>737.0</ele>
        <time>2019-08-12T09:41:10Z</time>
      </trkpt>
      <trkpt lat="39.5585610" lon="-3.8566640">
        <ele>737.0</ele>
        <time>2019-08-12T09:41:11Z</time>
      </trkpt>
      <trkpt lat="39.5586080" lon="-3.8566490">
        <ele>737.0</ele>
        <time>2019-08-12T09:41:12Z</time>
      </trkpt>
      <trkpt lat="39.5586550" lon="-3.8566330">
        <ele>737.0</ele>
        <time>2019-08-12T09:41:13Z</time>
      </trkpt>
      <trkpt lat="39.5587010" lon="-3.8566180">
        <ele>737.0</ele>
        <time>2019-08-12T09:41:14Z</time>
      </trkpt>
      <trkpt lat="39.5587480" lon="-3.8566020">
        <ele>737.0</ele>
        <time>2019-08-12T09:41:15Z</time>
      </trkpt>
      <trkpt lat="39.5587940" lon="-3.8565870">
        <ele>737.0</ele>
        <time>2019-08-12T09:41:16Z</time>
      </trkpt>
      <trkpt lat="39.5588410" lon="-3.8565710">
        <ele>737.0</ele>
        <time>2019-08-12T09:41:17Z</time>
      </trkpt>
      <trkpt lat="39.5588880" lon="-3.8565550">
        <ele>737.0</ele>
        <time>2019-08-12T09:41:18Z</time>
      </trkpt>
      <trkpt lat="39.5589350" lon="-3.8565380">
        <ele>737.0</ele>
        <time>2019-08-12T09:41:19Z</time>
      </trkpt>
      <trkpt lat="39.5589820" lon="-3.8565210">
        <ele>737.0</ele>
        <time>2019-08-12T09:41:20Z</time>
      </trkpt>
      <trkpt lat="39.5590290" lon="-3.8565040">
        <ele>737.0</ele>
        <time>2019-08-12T09:41:21Z</time>
      </trkpt>
      <trkpt lat="39.5590770" lon="-3.8564860">
        <ele>737.0</ele>
        <time>2019-08-12T09:41:22Z</time>
      </trkpt>
      <trkpt lat="39.5591240" lon="-3.8564680">
        <ele>737.0</ele>
        <time>2019-08-12T09:41:23Z</time>
      </trkpt>
      <trkpt lat="39.5591720" lon="-3.8564500">
        <ele>737.1</ele>
        <time>2019-08-12T09:41:24Z</time>
      </trkpt>
      <trkpt lat="39.5592200" lon="-3.8564320">
        <ele>737.1</ele>
        <time>2019-08-12T09:41:25Z</time>
      </trkpt>
      <trkpt lat="39.5592670" lon="-3.8564130">
        <ele>737.2</ele>
        <time>2019-08-12T09:41:26Z</time>
      </trkpt>
      <trkpt lat="39.5593150" lon="-3.8563940">
        <ele>737.3</ele>
        <time>2019-08-12T09:41:27Z</time>
      </trkpt>
      <trkpt lat="39.5593620" lon="-3.8563750">
        <ele>737.4</ele>
        <time>2019-08-12T09:41:28Z</time>
      </trkpt>
      <trkpt lat="39.5594090" lon="-3.8563560">
        <ele>737.6</ele>
        <time>2019-08-12T09:41:29Z</time>
      </trkpt>
      <trkpt lat="39.5594550" lon="-3.8563370">
        <ele>737.7</ele>
        <time>2019-08-12T09:41:30Z</time>
      </trkpt>
      <trkpt lat="39.5595020" lon="-3.8563180">
        <ele>737.8</ele>
        <time>2019-08-12T09:41:31Z</time>
      </trkpt>
      <trkpt lat="39.5595480" lon="-3.8562980">
        <ele>737.8</ele>
        <time>2019-08-12T09:41:32Z</time>
      </trkpt>
      <trkpt lat="39.5595940" lon="-3.8562790">
        <ele>737.9</ele>
        <time>2019-08-12T09:41:33Z</time>
      </trkpt>
      <trkpt lat="39.5596390" lon="-3.8562600">
        <ele>737.9</ele>
        <time>2019-08-12T09:41:34Z</time>
      </trkpt>
      <trkpt lat="39.5596840" lon="-3.8562410">
        <ele>737.9</ele>
        <time>2019-08-12T09:41:35Z</time>
      </trkpt>
      <trkpt lat="39.5597290" lon="-3.8562210">
        <ele>738.0</ele>
        <time>2019-08-12T09:41:36Z</time>
      </trkpt>
      <trkpt lat="39.5597740" lon="-3.8562020">
        <ele>738.0</ele>
        <time>2019-08-12T09:41:37Z</time>
      </trkpt>
      <trkpt lat="39.5598190" lon="-3.8561820">
        <ele>738.0</ele>
        <time>2019-08-12T09:41:38Z</time>
      </trkpt>
      <trkpt lat="39.5598630" lon="-3.8561630">
        <ele>738.0</ele>
        <time>2019-08-12T09:41:39Z</time>
      </trkpt>
      <trkpt lat="39.5599070" lon="-3.8561430">
        <ele>738.0</ele>
        <time>2019-08-12T09:41:40Z</time>
      </trkpt>
      <trkpt lat="39.5599510" lon="-3.8561230">
        <ele>738.0</ele>
        <time>2019-08-12T09:41:41Z</time>
      </trkpt>
      <trkpt lat="39.5599950" lon="-3.8561040">
        <ele>738.0</ele>
        <time>2019-08-12T09:41:42Z</time>
      </trkpt>
      <trkpt lat="39.5600380" lon="-3.8560840">
        <ele>738.0</ele>
        <time>2019-08-12T09:41:43Z</time>
      </trkpt>
      <trkpt lat="39.5600820" lon="-3.8560640">
        <ele>738.0</ele>
        <time>2019-08-12T09:41:44Z</time>
      </trkpt>
      <trkpt lat="39.5601250" lon="-3.8560440">
        <ele>738.0</ele>
        <time>2019-08-12T09:41:45Z</time>
      </trkpt>
      <trkpt lat="39.5601680" lon="-3.8560240">
        <ele>738.0</ele>
        <time>2019-08-12T09:41:46Z</time>
      </trkpt>
      <trkpt lat="39.5602110" lon="-3.8560040">
        <ele>738.0</ele>
        <time>2019-08-12T09:41:47Z</time>
      </trkpt>
      <trkpt lat="39.5602540" lon="-3.8559830">
        <ele>738.0</ele>
        <time>2019-08-12T09:41:48Z</time>
      </trkpt>
      <trkpt lat="39.5602960" lon="-3.8559630">
        <ele>738.0</ele>
        <time>2019-08-12T09:41:49Z</time>
      </trkpt>
      <trkpt lat="39.5603390" lon="-3.8559420">
        <ele>738.0</ele>
        <time>2019-08-12T09:41:50Z</time>
      </trkpt>
      <trkpt lat="39.5603820" lon="-3.8559220">
        <ele>738.0</ele>
        <time>2019-08-12T09:41:51Z</time>
      </trkpt>
      <trkpt lat="39.5604240" lon="-3.8559010">
        <ele>738.1</ele>
        <time>2019-08-12T09:41:52Z</time>
      </trkpt>
      <trkpt lat="39.5604670" lon="-3.8558800">
        <ele>738.1</ele>
        <time>2019-08-12T09:41:53Z</time>
      </trkpt>
      <trkpt lat="39.5605100" lon="-3.8558600">
        <ele>738.1</ele>
        <time>2019-08-12T09:41:54Z</time>
      </trkpt>
      <trkpt lat="39.5605520" lon="-3.8558390">
        <ele>738.2</ele>
        <time>2019-08-12T09:41:55Z</time>
      </trkpt>
      <trkpt lat="39.5605950" lon="-3.8558180">
        <ele>738.2</ele>
        <time>2019-08-12T09:41:56Z</time>
      </trkpt>
      <trkpt lat="39.5606380" lon="-3.8557980">
        <ele>738.4</ele>
        <time>2019-08-12T09:41:57Z</time>
      </trkpt>
      <trkpt lat="39.5606810" lon="-3.8557770">
        <ele>738.5</ele>
        <time>2019-08-12T09:41:58Z</time>
      </trkpt>
      <trkpt lat="39.5607240" lon="-3.8557560">
        <ele>738.6</ele>
        <time>2019-08-12T09:41:59Z</time>
      </trkpt>
      <trkpt lat="39.5607670" lon="-3.8557360">
        <ele>738.8</ele>
        <time>2019-08-12T09:42:00Z</time>
      </trkpt>
      <trkpt lat="39.5608090" lon="-3.8557150">
        <ele>738.9</ele>
        <time>2019-08-12T09:42:01Z</time>
      </trkpt>
      <trkpt lat="39.5608520" lon="-3.8556940">
        <ele>739.0</ele>
        <time>2019-08-12T09:42:02Z</time>
      </trkpt>
      <trkpt lat="39.5608950" lon="-3.8556730">
        <ele>739.1</ele>
        <time>2019-08-12T09:42:03Z</time>
      </trkpt>
      <trkpt lat="39.5609370" lon="-3.8556520">
        <ele>739.1</ele>
        <time>2019-08-12T09:42:04Z</time>
      </trkpt>
      <trkpt lat="39.5609790" lon="-3.8556310">
        <ele>739.2</ele>
        <time>2019-08-12T09:42:05Z</time>
      </trkpt>
      <trkpt lat="39.5610210" lon="-3.8556090">
        <ele>739.2</ele>
        <time>2019-08-12T09:42:06Z</time>
      </trkpt>
      <trkpt lat="39.5610630" lon="-3.8555880">
        <ele>739.2</ele>
        <time>2019-08-12T09:42:07Z</time>
      </trkpt>
      <trkpt lat="39.5611040" lon="-3.8555660">
        <ele>739.2</ele>
        <time>2019-08-12T09:42:08Z</time>
      </trkpt>
      <trkpt lat="39.5611460" lon="-3.8555440">
        <ele>739.2</ele>
        <time>2019-08-12T09:42:09Z</time>
      </trkpt>
      <trkpt lat="39.5611870" lon="-3.8555220">
        <ele>739.2</ele>
        <time>2019-08-12T09:42:10Z</time>
      </trkpt>
      <trkpt lat="39.5612290" lon="-3.8555000">
        <ele>739.2</ele>
        <time>2019-08-12T09:42:11Z</time>
      </trkpt>
      <trkpt lat="39.5612710" lon="-3.8554780">
        <ele>739.2</ele>
        <time>2019-08-12T09:42:12Z</time>
      </trkpt>
      <trkpt lat="39.5613130" lon="-3.8554570">
        <ele>739.3</ele>
        <time>2019-08-12T09:42:13Z</time>
      </trkpt>
      <trkpt lat="39.5613550" lon="-3.8554350">
        <ele>739.3</ele>
        <time>2019-08-12T09:42:14Z</time>
      </trkpt>
      <trkpt lat="39.5613970" lon="-3.8554130">
        <ele>739.3</ele>
        <time>2019-08-12T09:42:15Z</time>
      </trkpt>
      <trkpt lat="39.5614400" lon="-3.8553910">
        <ele>739.4</ele>
        <time>2019-08-12T09:42:16Z</time>
      </trkpt>
      <trkpt lat="39.5614820" lon="-3.8553690">
        <ele>739.5</ele>
        <time>2019-08-12T09:42:17Z</time>
      </trkpt>
      <trkpt lat="39.5615260" lon="-3.8553470">
        <ele>739.6</ele>
        <time>2019-08-12T09:42:18Z</time>
      </trkpt>
      <trkpt lat="39.5615690" lon="-3.8553250">
        <ele>739.8</ele>
        <time>2019-08-12T09:42:19Z</time>
      </trkpt>
      <trkpt lat="39.5616120" lon="-3.8553030">
        <ele>739.9</ele>
        <time>2019-08-12T09:42:20Z</time>
      </trkpt>
      <trkpt lat="39.5616560" lon="-3.8552810">
        <ele>740.0</ele>
        <time>2019-08-12T09:42:21Z</time>
      </trkpt>
      <trkpt lat="39.5616990" lon="-3.8552600">
        <ele>740.0</ele>
        <time>2019-08-12T09:42:22Z</time>
      </trkpt>
      <trkpt lat="39.5617420" lon="-3.8552380">
        <ele>740.1</ele>
        <time>2019-08-12T09:42:23Z</time>
      </trkpt>
      <trkpt lat="39.5617860" lon="-3.8552160">
        <ele>740.1</ele>
        <time>2019-08-12T09:42:24Z</time>
      </trkpt>
      <trkpt lat="39.5618280" lon="-3.8551950">
        <ele>740.1</ele>
        <time>2019-08-12T09:42:25Z</time>
      </trkpt>
      <trkpt lat="39.5618710" lon="-3.8551730">
        <ele>740.2</ele>
        <time>2019-08-12T09:42:26Z</time>
      </trkpt>
      <trkpt lat="39.5619140" lon="-3.8551510">
        <ele>740.2</ele>
        <time>2019-08-12T09:42:27Z</time>
      </trkpt>
      <trkpt lat="39.5619560" lon="-3.8551290">
        <ele>740.2</ele>
        <time>2019-08-12T09:42:28Z</time>
      </trkpt>
      <trkpt lat="39.5619990" lon="-3.8551080">
        <ele>740.2</ele>
        <time>2019-08-12T09:42:29Z</time>
      </trkpt>
      <trkpt lat="39.5620410" lon="-3.8550860">
        <ele>740.2</ele>
        <time>2019-08-12T09:42:30Z</time>
      </trkpt>
      <trkpt lat="39.5620830" lon="-3.8550640">
        <ele>740.2</ele>
        <time>2019-08-12T09:42:31Z</time>
      </trkpt>
      <trkpt lat="39.5621260" lon="-3.8550420">
        <ele>740.2</ele>
        <time>2019-08-12T09:42:32Z</time>
      </trkpt>
      <trkpt lat="39.5621680" lon="-3.8550190">
        <ele>740.3</ele>
        <time>2019-08-12T09:42:33Z</time>
      </trkpt>
      <trkpt lat="39.5622110" lon="-3.8549970">
        <ele>740.3</ele>
        <time>2019-08-12T09:42:34Z</time>
      </trkpt>
      <trkpt lat="39.5622530" lon="-3.8549740">
        <ele>740.4</ele>
        <time>2019-08-12T09:42:35Z</time>
      </trkpt>
      <trkpt lat="39.5622960" lon="-3.8549510">
        <ele>740.5</ele>
        <time>2019-08-12T09:42:36Z</time>
      </trkpt>
      <trkpt lat="39.5623390" lon="-3.8549280">
        <ele>740.6</ele>
        <time>2019-08-12T09:42:37Z</time>
      </trkpt>
      <trkpt lat="39.5623810" lon="-3.8549060">
        <ele>740.8</ele>
        <time>2019-08-12T09:42:38Z</time>
      </trkpt>
      <trkpt lat="39.5624240" lon="-3.8548830">
        <ele>740.9</ele>
        <time>2019-08-12T09:42:39Z</time>
      </trkpt>
      <trkpt lat="39.5624660" lon="-3.8548600">
        <ele>741.0</ele>
        <time>2019-08-12T09:42:40Z</time>
      </trkpt>
      <trkpt lat="39.5625090" lon="-3.8548380">
        <ele>741.1</ele>
        <time>2019-08-12T09:42:41Z</time>
      </trkpt>
      <trkpt lat="39.5625510" lon="-3.8548150">
        <ele>741.1</ele>
        <time>2019-08-12T09:42:42Z</time>
      </trkpt>
      <trkpt lat="39.5625940" lon="-3.8547930">
        <ele>741.2</ele>
        <time>2019-08-12T09:42:43Z</time>
      </trkpt>
      <trkpt lat="39.5626360" lon="-3.8547710">
        <ele>741.2</ele>
        <time>2019-08-12T09:42:44Z</time>
      </trkpt>
      <trkpt lat="39.5626780" lon="-3.8547490">
        <ele>741.2</ele>
        <time>2019-08-12T09:42:45Z</time>
      </trkpt>
      <trkpt lat="39.5627200" lon="-3.8547270">
        <ele>741.2</ele>
        <time>2019-08-12T09:42:46Z</time>
      </trkpt>
      <trkpt lat="39.5627630" lon="-3.8547050">
        <ele>741.3</ele>
        <time>2019-08-12T09:42:47Z</time>
      </trkpt>
      <trkpt lat="39.5628050" lon="-3.8546830">
        <ele>741.3</ele>
        <time>2019-08-12T09:42:48Z</time>
      </trkpt>
      <trkpt lat="39.5628470" lon="-3.8546600">
        <ele>741.3</ele>
        <time>2019-08-12T09:42:49Z</time>
      </trkpt>
      <trkpt lat="39.5628900" lon="-3.8546380">
        <ele>741.3</ele>
        <time>2019-08-12T09:42:50Z</time>
      </trkpt>
      <trkpt lat="39.5629320" lon="-3.8546150">
        <ele>741.3</ele>
        <time>2019-08-12T09:42:51Z</time>
      </trkpt>
      <trkpt lat="39.5629740" lon="-3.8545920">
        <ele>741.3</ele>
        <time>2019-08-12T09:42:52Z</time>
      </trkpt>
      <trkpt lat="39.5630170" lon="-3.8545690">
        <ele>741.3</ele>
        <time>2019-08-12T09:42:53Z</time>
      </trkpt>
      <trkpt lat="39.5630590" lon="-3.8545460">
        <ele>741.3</ele>
        <time>2019-08-12T09:42:54Z</time>
      </trkpt>
      <trkpt lat="39.5631020" lon="-3.8545230">
        <ele>741.3</ele>
        <time>2019-08-12T09:42:55Z</time>
      </trkpt>
      <trkpt lat="39.5631440" lon="-3.8544990">
        <ele>741.3</ele>
        <time>2019-08-12T09:42:56Z</time>
      </trkpt>
      <trkpt lat="39.5631870" lon="-3.8544760">
        <ele>741.3</ele>
        <time>2019-08-12T09:42:57Z</time>
      </trkpt>
      <trkpt lat="39.5632300" lon="-3.8544520">
        <ele>741.4</ele>
        <time>2019-08-12T09:42:58Z</time>
      </trkpt>
      <trkpt lat="39.5632730" lon="-3.8544280">
        <ele>741.4</ele>
        <time>2019-08-12T09:42:59Z</time>
      </trkpt>
      <trkpt lat="39.5633170" lon="-3.8544030">
        <ele>741.5</ele>
        <time>2019-08-12T09:43:00Z</time>
      </trkpt>
      <trkpt lat="39.5633610" lon="-3.8543790">
        <ele>741.6</ele>
        <time>2019-08-12T09:43:01Z</time>
      </trkpt>
      <trkpt lat="39.5634050" lon="-3.8543550">
        <ele>741.8</ele>
        <time>2019-08-12T09:43:02Z</time>
      </trkpt>
      <trkpt lat="39.5634500" lon="-3.8543300">
        <ele>741.9</ele>
        <time>2019-08-12T09:43:03Z</time>
      </trkpt>
      <trkpt lat="39.5634940" lon="-3.8543050">
        <ele>742.1</ele>
        <time>2019-08-12T09:43:04Z</time>
      </trkpt>
      <trkpt lat="39.5635390" lon="-3.8542800">
        <ele>742.3</ele>
        <time>2019-08-12T09:43:05Z</time>
      </trkpt>
      <trkpt lat="39.5635840" lon="-3.8542550">
        <ele>742.5</ele>
        <time>2019-08-12T09:43:06Z</time>
      </trkpt>
      <trkpt lat="39.5636290" lon="-3.8542310">
        <ele>742.7</ele>
        <time>2019-08-12T09:43:07Z</time>
      </trkpt>
      <trkpt lat="39.5636730" lon="-3.8542060">
        <ele>742.8</ele>
        <time>2019-08-12T09:43:08Z</time>
      </trkpt>
      <trkpt lat="39.5637170" lon="-3.8541810">
        <ele>742.9</ele>
        <time>2019-08-12T09:43:09Z</time>
      </trkpt>
      <trkpt lat="39.5637610" lon="-3.8541570">
        <ele>742.9</ele>
        <time>2019-08-12T09:43:10Z</time>
      </trkpt>
      <trkpt lat="39.5638050" lon="-3.8541330">
        <ele>742.9</ele>
        <time>2019-08-12T09:43:11Z</time>
      </trkpt>
      <trkpt lat="39.5638480" lon="-3.8541090">
        <ele>742.9</ele>
        <time>2019-08-12T09:43:12Z</time>
      </trkpt>
      <trkpt lat="39.5638910" lon="-3.8540860">
        <ele>742.7</ele>
        <time>2019-08-12T09:43:13Z</time>
      </trkpt>
      <trkpt lat="39.5639330" lon="-3.8540620">
        <ele>742.6</ele>
        <time>2019-08-12T09:43:14Z</time>
      </trkpt>
      <trkpt lat="39.5639760" lon="-3.8540390">
        <ele>742.5</ele>
        <time>2019-08-12T09:43:15Z</time>
      </trkpt>
      <trkpt lat="39.5640180" lon="-3.8540150">
        <ele>742.4</ele>
        <time>2019-08-12T09:43:16Z</time>
      </trkpt>
      <trkpt lat="39.5640600" lon="-3.8539920">
        <ele>742.4</ele>
        <time>2019-08-12T09:43:17Z</time>
      </trkpt>
      <trkpt lat="39.5641030" lon="-3.8539690">
        <ele>742.4</ele>
        <time>2019-08-12T09:43:18Z</time>
      </trkpt>
      <trkpt lat="39.5641450" lon="-3.8539460">
        <ele>742.4</ele>
        <time>2019-08-12T09:43:19Z</time>
      </trkpt>
      <trkpt lat="39.5641880" lon="-3.8539230">
        <ele>742.4</ele>
        <time>2019-08-12T09:43:20Z</time>
      </trkpt>
      <trkpt lat="39.5642310" lon="-3.8539000">
        <ele>742.5</ele>
        <time>2019-08-12T09:43:21Z</time>
      </trkpt>
      <trkpt lat="39.5642740" lon="-3.8538760">
        <ele>742.6</ele>
        <time>2019-08-12T09:43:22Z</time>
      </trkpt>
      <trkpt lat="39.5643180" lon="-3.8538530">
        <ele>742.8</ele>
        <time>2019-08-12T09:43:23Z</time>
      </trkpt>
      <trkpt lat="39.5643610" lon="-3.8538300">
        <ele>742.9</ele>
        <time>2019-08-12T09:43:24Z</time>
      </trkpt>
      <trkpt lat="39.5644050" lon="-3.8538070">
        <ele>743.1</ele>
        <time>2019-08-12T09:43:25Z</time>
      </trkpt>
      <trkpt lat="39.5644490" lon="-3.8537840">
        <ele>743.2</ele>
        <time>2019-08-12T09:43:26Z</time>
      </trkpt>
      <trkpt lat="39.5644920" lon="-3.8537600">
        <ele>743.3</ele>
        <time>2019-08-12T09:43:27Z</time>
      </trkpt>
      <trkpt lat="39.5645360" lon="-3.8537370">
        <ele>743.4</ele>
        <time>2019-08-12T09:43:28Z</time>
      </trkpt>
      <trkpt lat="39.5645800" lon="-3.8537130">
        <ele>743.4</ele>
        <time>2019-08-12T09:43:29Z</time>
      </trkpt>
      <trkpt lat="39.5646240" lon="-3.8536900">
        <ele>743.4</ele>
        <time>2019-08-12T09:43:30Z</time>
      </trkpt>
      <trkpt lat="39.5646680" lon="-3.8536660">
        <ele>743.4</ele>
        <time>2019-08-12T09:43:31Z</time>
      </trkpt>
      <trkpt lat="39.5647110" lon="-3.8536420">
        <ele>743.4</ele>
        <time>2019-08-12T09:43:32Z</time>
      </trkpt>
      <trkpt lat="39.5647550" lon="-3.8536180">
        <ele>743.5</ele>
        <time>2019-08-12T09:43:33Z</time>
      </trkpt>
      <trkpt lat="39.5647990" lon="-3.8535950">
        <ele>743.5</ele>
        <time>2019-08-12T09:43:34Z</time>
      </trkpt>
      <trkpt lat="39.5648430" lon="-3.8535710">
        <ele>743.5</ele>
        <time>2019-08-12T09:43:35Z</time>
      </trkpt>
      <trkpt lat="39.5648860" lon="-3.8535470">
        <ele>743.5</ele>
        <time>2019-08-12T09:43:36Z</time>
      </trkpt>
      <trkpt lat="39.5649300" lon="-3.8535240">
        <ele>743.5</ele>
        <time>2019-08-12T09:43:37Z</time>
      </trkpt>
      <trkpt lat="39.5649730" lon="-3.8535000">
        <ele>743.6</ele>
        <time>2019-08-12T09:43:38Z</time>
      </trkpt>
      <trkpt lat="39.5650170" lon="-3.8534770">
        <ele>743.7</ele>
        <time>2019-08-12T09:43:39Z</time>
      </trkpt>
      <trkpt lat="39.5650610" lon="-3.8534540">
        <ele>743.8</ele>
        <time>2019-08-12T09:43:40Z</time>
      </trkpt>
      <trkpt lat="39.5651040" lon="-3.8534310">
        <ele>743.9</ele>
        <time>2019-08-12T09:43:41Z</time>
      </trkpt>
      <trkpt lat="39.5651480" lon="-3.8534080">
        <ele>744.0</ele>
        <time>2019-08-12T09:43:42Z</time>
      </trkpt>
      <trkpt lat="39.5651910" lon="-3.8533850">
        <ele>744.2</ele>
        <time>2019-08-12T09:43:43Z</time>
      </trkpt>
      <trkpt lat="39.5652340" lon="-3.8533620">
        <ele>744.3</ele>
        <time>2019-08-12T09:43:44Z</time>
      </trkpt>
      <trkpt lat="39.5652770" lon="-3.8533400">
        <ele>744.3</ele>
        <time>2019-08-12T09:43:45Z</time>
      </trkpt>
      <trkpt lat="39.5653200" lon="-3.8533170">
        <ele>744.4</ele>
        <time>2019-08-12T09:43:46Z</time>
      </trkpt>
      <trkpt lat="39.5653630" lon="-3.8532950">
        <ele>744.4</ele>
        <time>2019-08-12T09:43:47Z</time>
      </trkpt>
      <trkpt lat="39.5654060" lon="-3.8532730">
        <ele>744.4</ele>
        <time>2019-08-12T09:43:48Z</time>
      </trkpt>
      <trkpt lat="39.5654490" lon="-3.8532510">
        <ele>744.5</ele>
        <time>2019-08-12T09:43:49Z</time>
      </trkpt>
      <trkpt lat="39.5654910" lon="-3.8532290">
        <ele>744.5</ele>
        <time>2019-08-12T09:43:50Z</time>
      </trkpt>
      <trkpt lat="39.5655340" lon="-3.8532080">
        <ele>744.6</ele>
        <time>2019-08-12T09:43:51Z</time>
      </trkpt>
      <trkpt lat="39.5655760" lon="-3.8531860">
        <ele>744.7</ele>
        <time>2019-08-12T09:43:52Z</time>
      </trkpt>
      <trkpt lat="39.5656180" lon="-3.8531650">
        <ele>744.8</ele>
        <time>2019-08-12T09:43:53Z</time>
      </trkpt>
      <trkpt lat="39.5656590" lon="-3.8531440">
        <ele>745.0</ele>
        <time>2019-08-12T09:43:54Z</time>
      </trkpt>
      <trkpt lat="39.5657010" lon="-3.8531230">
        <ele>745.1</ele>
        <time>2019-08-12T09:43:55Z</time>
      </trkpt>
      <trkpt lat="39.5657420" lon="-3.8531030">
        <ele>745.3</ele>
        <time>2019-08-12T09:43:56Z</time>
      </trkpt>
      <trkpt lat="39.5657830" lon="-3.8530820">
        <ele>745.4</ele>
        <time>2019-08-12T09:43:57Z</time>
      </trkpt>
      <trkpt lat="39.5658240" lon="-3.8530620">
        <ele>745.4</ele>
        <time>2019-08-12T09:43:58Z</time>
      </trkpt>
      <trkpt lat="39.5658650" lon="-3.8530410">
        <ele>745.5</ele>
        <time>2019-08-12T09:43:59Z</time>
      </trkpt>
      <trkpt lat="39.5659060" lon="-3.8530210">
        <ele>745.5</ele>
        <time>2019-08-12T09:44:00Z</time>
      </trkpt>
      <trkpt lat="39.5659470" lon="-3.8530020">
        <ele>745.5</ele>
        <time>2019-08-12T09:44:01Z</time>
      </trkpt>
      <trkpt lat="39.5659880" lon="-3.8529820">
        <ele>745.6</ele>
        <time>2019-08-12T09:44:02Z</time>
      </trkpt>
      <trkpt lat="39.5660290" lon="-3.8529620">
        <ele>745.6</ele>
        <time>2019-08-12T09:44:03Z</time>
      </trkpt>
      <trkpt lat="39.5660700" lon="-3.8529430">
        <ele>745.6</ele>
        <time>2019-08-12T09:44:04Z</time>
      </trkpt>
      <trkpt lat="39.5661110" lon="-3.8529230">
        <ele>745.6</ele>
        <time>2019-08-12T09:44:05Z</time>
      </trkpt>
      <trkpt lat="39.5661530" lon="-3.8529040">
        <ele>745.6</ele>
        <time>2019-08-12T09:44:06Z</time>
      </trkpt>
      <trkpt lat="39.5661950" lon="-3.8528850">
        <ele>745.6</ele>
        <time>2019-08-12T09:44:07Z</time>
      </trkpt>
      <trkpt lat="39.5662380" lon="-3.8528660">
        <ele>745.6</ele>
        <time>2019-08-12T09:44:08Z</time>
      </trkpt>
      <trkpt lat="39.5662800" lon="-3.8528470">
        <ele>745.6</ele>
        <time>2019-08-12T09:44:09Z</time>
      </trkpt>
      <trkpt lat="39.5663230" lon="-3.8528280">
        <ele>745.6</ele>
        <time>2019-08-12T09:44:10Z</time>
      </trkpt>
      <trkpt lat="39.5663650" lon="-3.8528090">
        <ele>745.6</ele>
        <time>2019-08-12T09:44:11Z</time>
      </trkpt>
      <trkpt lat="39.5664080" lon="-3.8527900">
        <ele>745.6</ele>
        <time>2019-08-12T09:44:12Z</time>
      </trkpt>
      <trkpt lat="39.5664500" lon="-3.8527720">
        <ele>745.6</ele>
        <time>2019-08-12T09:44:13Z</time>
      </trkpt>
      <trkpt lat="39.5664910" lon="-3.8527530">
        <ele>745.6</ele>
        <time>2019-08-12T09:44:14Z</time>
      </trkpt>
      <trkpt lat="39.5665330" lon="-3.8527350">
        <ele>745.6</ele>
        <time>2019-08-12T09:44:15Z</time>
      </trkpt>
      <trkpt lat="39.5665730" lon="-3.8527160">
        <ele>745.6</ele>
        <time>2019-08-12T09:44:16Z</time>
      </trkpt>
      <trkpt lat="39.5666130" lon="-3.8526980">
        <ele>745.6</ele>
        <time>2019-08-12T09:44:17Z</time>
      </trkpt>
      <trkpt lat="39.5666530" lon="-3.8526790">
        <ele>745.6</ele>
        <time>2019-08-12T09:44:18Z</time>
      </trkpt>
      <trkpt lat="39.5666920" lon="-3.8526610">
        <ele>745.6</ele>
        <time>2019-08-12T09:44:19Z</time>
      </trkpt>
      <trkpt lat="39.5667310" lon="-3.8526430">
        <ele>745.6</ele>
        <time>2019-08-12T09:44:20Z</time>
      </trkpt>
      <trkpt lat="39.5667700" lon="-3.8526240">
        <ele>745.7</ele>
        <time>2019-08-12T09:44:21Z</time>
      </trkpt>
      <trkpt lat="39.5668090" lon="-3.8526060">
        <ele>745.7</ele>
        <time>2019-08-12T09:44:22Z</time>
      </trkpt>
      <trkpt lat="39.5668490" lon="-3.8525880">
        <ele>745.7</ele>
        <time>2019-08-12T09:44:23Z</time>
      </trkpt>
      <trkpt lat="39.5668880" lon="-3.8525700">
        <ele>745.7</ele>
        <time>2019-08-12T09:44:24Z</time>
      </trkpt>
      <trkpt lat="39.5669280" lon="-3.8525520">
        <ele>745.7</ele>
        <time>2019-08-12T09:44:25Z</time>
      </trkpt>
      <trkpt lat="39.5669680" lon="-3.8525340">
        <ele>745.8</ele>
        <time>2019-08-12T09:44:26Z</time>
      </trkpt>
      <trkpt lat="39.5670090" lon="-3.8525160">
        <ele>745.9</ele>
        <time>2019-08-12T09:44:27Z</time>
      </trkpt>
      <trkpt lat="39.5670490" lon="-3.8524980">
        <ele>746.0</ele>
        <time>2019-08-12T09:44:28Z</time>
      </trkpt>
      <trkpt lat="39.5670910" lon="-3.8524800">
        <ele>746.1</ele>
        <time>2019-08-12T09:44:29Z</time>
      </trkpt>
      <trkpt lat="39.5671320" lon="-3.8524620">
        <ele>746.3</ele>
        <time>2019-08-12T09:44:30Z</time>
      </trkpt>
      <trkpt lat="39.5671730" lon="-3.8524440">
        <ele>746.4</ele>
        <time>2019-08-12T09:44:31Z</time>
      </trkpt>
      <trkpt lat="39.5672150" lon="-3.8524260">
        <ele>746.5</ele>
        <time>2019-08-12T09:44:32Z</time>
      </trkpt>
      <trkpt lat="39.5672570" lon="-3.8524080">
        <ele>746.7</ele>
        <time>2019-08-12T09:44:33Z</time>
      </trkpt>
      <trkpt lat="39.5672990" lon="-3.8523910">
        <ele>746.8</ele>
        <time>2019-08-12T09:44:34Z</time>
      </trkpt>
      <trkpt lat="39.5673410" lon="-3.8523730">
        <ele>746.9</ele>
        <time>2019-08-12T09:44:35Z</time>
      </trkpt>
      <trkpt lat="39.5673830" lon="-3.8523560">
        <ele>747.0</ele>
        <time>2019-08-12T09:44:36Z</time>
      </trkpt>
      <trkpt lat="39.5674250" lon="-3.8523390">
        <ele>747.1</ele>
        <time>2019-08-12T09:44:37Z</time>
      </trkpt>
      <trkpt lat="39.5674670" lon="-3.8523210">
        <ele>747.3</ele>
        <time>2019-08-12T09:44:38Z</time>
      </trkpt>
      <trkpt lat="39.5675090" lon="-3.8523040">
        <ele>747.5</ele>
        <time>2019-08-12T09:44:39Z</time>
      </trkpt>
      <trkpt lat="39.5675510" lon="-3.8522870">
        <ele>747.6</ele>
        <time>2019-08-12T09:44:40Z</time>
      </trkpt>
      <trkpt lat="39.5675930" lon="-3.8522710">
        <ele>747.8</ele>
        <time>2019-08-12T09:44:41Z</time>
      </trkpt>
      <trkpt lat="39.5676340" lon="-3.8522540">
        <ele>747.9</ele>
        <time>2019-08-12T09:44:42Z</time>
      </trkpt>
      <trkpt lat="39.5676750" lon="-3.8522370">
        <ele>748.1</ele>
        <time>2019-08-12T09:44:43Z</time>
      </trkpt>
      <trkpt lat="39.5677160" lon="-3.8522210">
        <ele>748.3</ele>
        <time>2019-08-12T09:44:44Z</time>
      </trkpt>
      <trkpt lat="39.5677570" lon="-3.8522050">
        <ele>748.4</ele>
        <time>2019-08-12T09:44:45Z</time>
      </trkpt>
      <trkpt lat="39.5677970" lon="-3.8521890">
        <ele>748.5</ele>
        <time>2019-08-12T09:44:46Z</time>
      </trkpt>
      <trkpt lat="39.5678370" lon="-3.8521730">
        <ele>748.6</ele>
        <time>2019-08-12T09:44:47Z</time>
      </trkpt>
      <trkpt lat="39.5678770" lon="-3.8521580">
        <ele>748.7</ele>
        <time>2019-08-12T09:44:48Z</time>
      </trkpt>
      <trkpt lat="39.5679160" lon="-3.8521420">
        <ele>748.7</ele>
        <time>2019-08-12T09:44:49Z</time>
      </trkpt>
      <trkpt lat="39.5679560" lon="-3.8521270">
        <ele>748.7</ele>
        <time>2019-08-12T09:44:50Z</time>
      </trkpt>
      <trkpt lat="39.5679960" lon="-3.8521110">
        <ele>748.8</ele>
        <time>2019-08-12T09:44:51Z</time>
      </trkpt>
      <trkpt lat="39.5680350" lon="-3.8520960">
        <ele>748.8</ele>
        <time>2019-08-12T09:44:52Z</time>
      </trkpt>
      <trkpt lat="39.5680750" lon="-3.8520810">
        <ele>748.8</ele>
        <time>2019-08-12T09:44:53Z</time>
      </trkpt>
      <trkpt lat="39.5681150" lon="-3.8520650">
        <ele>748.9</ele>
        <time>2019-08-12T09:44:54Z</time>
      </trkpt>
      <trkpt lat="39.5681550" lon="-3.8520500">
        <ele>749.0</ele>
        <time>2019-08-12T09:44:55Z</time>
      </trkpt>
      <trkpt lat="39.5681950" lon="-3.8520350">
        <ele>749.1</ele>
        <time>2019-08-12T09:44:56Z</time>
      </trkpt>
      <trkpt lat="39.5682350" lon="-3.8520200">
        <ele>749.2</ele>
        <time>2019-08-12T09:44:57Z</time>
      </trkpt>
      <trkpt lat="39.5682750" lon="-3.8520050">
        <ele>749.3</ele>
        <time>2019-08-12T09:44:58Z</time>
      </trkpt>
      <trkpt lat="39.5683150" lon="-3.8519900">
        <ele>749.5</ele>
        <time>2019-08-12T09:44:59Z</time>
      </trkpt>
      <trkpt lat="39.5683560" lon="-3.8519750">
        <ele>749.6</ele>
        <time>2019-08-12T09:45:00Z</time>
      </trkpt>
      <trkpt lat="39.5683960" lon="-3.8519600">
        <ele>749.7</ele>
        <time>2019-08-12T09:45:01Z</time>
      </trkpt>
      <trkpt lat="39.5684360" lon="-3.8519450">
        <ele>749.7</ele>
        <time>2019-08-12T09:45:02Z</time>
      </trkpt>
      <trkpt lat="39.5684770" lon="-3.8519310">
        <ele>749.8</ele>
        <time>2019-08-12T09:45:03Z</time>
      </trkpt>
      <trkpt lat="39.5685170" lon="-3.8519160">
        <ele>749.8</ele>
        <time>2019-08-12T09:45:04Z</time>
      </trkpt>
      <trkpt lat="39.5685570" lon="-3.8519020">
        <ele>749.9</ele>
        <time>2019-08-12T09:45:05Z</time>
      </trkpt>
      <trkpt lat="39.5685980" lon="-3.8518870">
        <ele>750.0</ele>
        <time>2019-08-12T09:45:06Z</time>
      </trkpt>
      <trkpt lat="39.5686380" lon="-3.8518730">
        <ele>750.1</ele>
        <time>2019-08-12T09:45:07Z</time>
      </trkpt>
      <trkpt lat="39.5686790" lon="-3.8518590">
        <ele>750.2</ele>
        <time>2019-08-12T09:45:08Z</time>
      </trkpt>
      <trkpt lat="39.5687190" lon="-3.8518440">
        <ele>750.4</ele>
        <time>2019-08-12T09:45:09Z</time>
      </trkpt>
      <trkpt lat="39.5687590" lon="-3.8518300">
        <ele>750.5</ele>
        <time>2019-08-12T09:45:10Z</time>
      </trkpt>
      <trkpt lat="39.5688000" lon="-3.8518160">
        <ele>750.6</ele>
        <time>2019-08-12T09:45:11Z</time>
      </trkpt>
      <trkpt lat="39.5688400" lon="-3.8518030">
        <ele>750.7</ele>
        <time>2019-08-12T09:45:12Z</time>
      </trkpt>
      <trkpt lat="39.5688800" lon="-3.8517890">
        <ele>750.7</ele>
        <time>2019-08-12T09:45:13Z</time>
      </trkpt>
      <trkpt lat="39.5689210" lon="-3.8517750">
        <ele>750.8</ele>
        <time>2019-08-12T09:45:14Z</time>
      </trkpt>
      <trkpt lat="39.5689610" lon="-3.8517620">
        <ele>750.8</ele>
        <time>2019-08-12T09:45:15Z</time>
      </trkpt>
      <trkpt lat="39.5690010" lon="-3.8517490">
        <ele>750.8</ele>
        <time>2019-08-12T09:45:16Z</time>
      </trkpt>
      <trkpt lat="39.5690410" lon="-3.8517350">
        <ele>750.9</ele>
        <time>2019-08-12T09:45:17Z</time>
      </trkpt>
      <trkpt lat="39.5690810" lon="-3.8517220">
        <ele>750.9</ele>
        <time>2019-08-12T09:45:18Z</time>
      </trkpt>
      <trkpt lat="39.5691210" lon="-3.8517090">
        <ele>750.9</ele>
        <time>2019-08-12T09:45:19Z</time>
      </trkpt>
      <trkpt lat="39.5691610" lon="-3.8516970">
        <ele>750.9</ele>
        <time>2019-08-12T09:45:20Z</time>
      </trkpt>
      <trkpt lat="39.5692000" lon="-3.8516840">
        <ele>750.9</ele>
        <time>2019-08-12T09:45:21Z</time>
      </trkpt>
      <trkpt lat="39.5692400" lon="-3.8516710">
        <ele>750.9</ele>
        <time>2019-08-12T09:45:22Z</time>
      </trkpt>
      <trkpt lat="39.5692790" lon="-3.8516590">
        <ele>750.9</ele>
        <time>2019-08-12T09:45:23Z</time>
      </trkpt>
      <trkpt lat="39.5693190" lon="-3.8516470">
        <ele>750.9</ele>
        <time>2019-08-12T09:45:24Z</time>
      </trkpt>
      <trkpt lat="39.5693580" lon="-3.8516350">
        <ele>750.9</ele>
        <time>2019-08-12T09:45:25Z</time>
      </trkpt>
      <trkpt lat="39.5693970" lon="-3.8516230">
        <ele>750.9</ele>
        <time>2019-08-12T09:45:26Z</time>
      </trkpt>
      <trkpt lat="39.5694370" lon="-3.8516110">
        <ele>750.9</ele>
        <time>2019-08-12T09:45:27Z</time>
      </trkpt>
      <trkpt lat="39.5694760" lon="-3.8516000">
        <ele>750.9</ele>
        <time>2019-08-12T09:45:28Z</time>
      </trkpt>
      <trkpt lat="39.5695160" lon="-3.8515880">
        <ele>750.9</ele>
        <time>2019-08-12T09:45:29Z</time>
      </trkpt>
      <trkpt lat="39.5695560" lon="-3.8515770">
        <ele>750.9</ele>
        <time>2019-08-12T09:45:30Z</time>
      </trkpt>
      <trkpt lat="39.5695960" lon="-3.8515660">
        <ele>751.0</ele>
        <time>2019-08-12T09:45:31Z</time>
      </trkpt>
      <trkpt lat="39.5696360" lon="-3.8515550">
        <ele>751.2</ele>
        <time>2019-08-12T09:45:32Z</time>
      </trkpt>
      <trkpt lat="39.5696760" lon="-3.8515430">
        <ele>751.4</ele>
        <time>2019-08-12T09:45:33Z</time>
      </trkpt>
      <trkpt lat="39.5697170" lon="-3.8515320">
        <ele>751.5</ele>
        <time>2019-08-12T09:45:34Z</time>
      </trkpt>
      <trkpt lat="39.5697580" lon="-3.8515210">
        <ele>751.7</ele>
        <time>2019-08-12T09:45:35Z</time>
      </trkpt>
      <trkpt lat="39.5697990" lon="-3.8515100">
        <ele>751.8</ele>
        <time>2019-08-12T09:45:36Z</time>
      </trkpt>
      <trkpt lat="39.5698400" lon="-3.8514980">
        <ele>751.9</ele>
        <time>2019-08-12T09:45:37Z</time>
      </trkpt>
      <trkpt lat="39.5698820" lon="-3.8514860">
        <ele>752.0</ele>
        <time>2019-08-12T09:45:38Z</time>
      </trkpt>
      <trkpt lat="39.5699250" lon="-3.8514740">
        <ele>752.1</ele>
        <time>2019-08-12T09:45:39Z</time>
      </trkpt>
      <trkpt lat="39.5699670" lon="-3.8514620">
        <ele>752.1</ele>
        <time>2019-08-12T09:45:40Z</time>
      </trkpt>
      <trkpt lat="39.5700100" lon="-3.8514490">
        <ele>752.1</ele>
        <time>2019-08-12T09:45:41Z</time>
      </trkpt>
      <trkpt lat="39.5700530" lon="-3.8514340">
        <ele>752.2</ele>
        <time>2019-08-12T09:45:42Z</time>
      </trkpt>
      <trkpt lat="39.5700950" lon="-3.8514190">
        <ele>752.2</ele>
        <time>2019-08-12T09:45:43Z</time>
      </trkpt>
      <trkpt lat="39.5701380" lon="-3.8514020">
        <ele>752.3</ele>
        <time>2019-08-12T09:45:44Z</time>
      </trkpt>
      <trkpt lat="39.5701800" lon="-3.8513840">
        <ele>752.3</ele>
        <time>2019-08-12T09:45:45Z</time>
      </trkpt>
      <trkpt lat="39.5702220" lon="-3.8513640">
        <ele>752.3</ele>
        <time>2019-08-12T09:45:46Z</time>
      </trkpt>
      <trkpt lat="39.5702630" lon="-3.8513420">
        <ele>752.4</ele>
        <time>2019-08-12T09:45:47Z</time>
      </trkpt>
      <trkpt lat="39.5703040" lon="-3.8513170">
        <ele>752.4</ele>
        <time>2019-08-12T09:45:48Z</time>
      </trkpt>
      <trkpt lat="39.5703430" lon="-3.8512910">
        <ele>752.5</ele>
        <time>2019-08-12T09:45:49Z</time>
      </trkpt>
      <trkpt lat="39.5703810" lon="-3.8512630">
        <ele>752.6</ele>
        <time>2019-08-12T09:45:50Z</time>
      </trkpt>
      <trkpt lat="39.5704180" lon="-3.8512330">
        <ele>752.7</ele>
        <time>2019-08-12T09:45:51Z</time>
      </trkpt>
      <trkpt lat="39.5704520" lon="-3.8512030">
        <ele>752.8</ele>
        <time>2019-08-12T09:45:52Z</time>
      </trkpt>
      <trkpt lat="39.5704850" lon="-3.8511720">
        <ele>752.9</ele>
        <time>2019-08-12T09:45:53Z</time>
      </trkpt>
      <trkpt lat="39.5705150" lon="-3.8511400">
        <ele>752.9</ele>
        <time>2019-08-12T09:45:54Z</time>
      </trkpt>
      <trkpt lat="39.5705430" lon="-3.8511070">
        <ele>753.2</ele>
        <time>2019-08-12T09:45:55Z</time>
      </trkpt>
      <trkpt lat="39.5705680" lon="-3.8510740">
        <ele>753.4</ele>
        <time>2019-08-12T09:45:56Z</time>
      </trkpt>
      <trkpt lat="39.5705920" lon="-3.8510410">
        <ele>753.6</ele>
        <time>2019-08-12T09:45:57Z</time>
      </trkpt>
      <trkpt lat="39.5706140" lon="-3.8510070">
        <ele>753.8</ele>
        <time>2019-08-12T09:45:58Z</time>
      </trkpt>
      <trkpt lat="39.5706350" lon="-3.8509740">
        <ele>754.0</ele>
        <time>2019-08-12T09:45:59Z</time>
      </trkpt>
      <trkpt lat="39.5706530" lon="-3.8509400">
        <ele>754.3</ele>
        <time>2019-08-12T09:46:00Z</time>
      </trkpt>
      <trkpt lat="39.5706710" lon="-3.8509050">
        <ele>754.5</ele>
        <time>2019-08-12T09:46:01Z</time>
      </trkpt>
      <trkpt lat="39.5706870" lon="-3.8508710">
        <ele>754.7</ele>
        <time>2019-08-12T09:46:02Z</time>
      </trkpt>
      <trkpt lat="39.5707020" lon="-3.8508360">
        <ele>755.0</ele>
        <time>2019-08-12T09:46:03Z</time>
      </trkpt>
      <trkpt lat="39.5707160" lon="-3.8508000">
        <ele>755.3</ele>
        <time>2019-08-12T09:46:04Z</time>
      </trkpt>
      <trkpt lat="39.5707280" lon="-3.8507640">
        <ele>755.4</ele>
        <time>2019-08-12T09:46:05Z</time>
      </trkpt>
      <trkpt lat="39.5707410" lon="-3.8507270">
        <ele>755.6</ele>
        <time>2019-08-12T09:46:06Z</time>
      </trkpt>
      <trkpt lat="39.5707520" lon="-3.8506900">
        <ele>755.8</ele>
        <time>2019-08-12T09:46:07Z</time>
      </trkpt>
      <trkpt lat="39.5707630" lon="-3.8506520">
        <ele>755.9</ele>
        <time>2019-08-12T09:46:08Z</time>
      </trkpt>
      <trkpt lat="39.5707730" lon="-3.8506140">
        <ele>756.1</ele>
        <time>2019-08-12T09:46:09Z</time>
      </trkpt>
      <trkpt lat="39.5707820" lon="-3.8505750">
        <ele>756.3</ele>
        <time>2019-08-12T09:46:10Z</time>
      </trkpt>
      <trkpt lat="39.5707900" lon="-3.8505350">
        <ele>756.4</ele>
        <time>2019-08-12T09:46:11Z</time>
      </trkpt>
      <trkpt lat="39.5707980" lon="-3.8504950">
        <ele>756.5</ele>
        <time>2019-08-12T09:46:12Z</time>
      </trkpt>
      <trkpt lat="39.5708040" lon="-3.8504540">
        <ele>756.6</ele>
        <time>2019-08-12T09:46:13Z</time>
      </trkpt>
      <trkpt lat="39.5708100" lon="-3.8504120">
        <ele>756.7</ele>
        <time>2019-08-12T09:46:14Z</time>
      </trkpt>
      <trkpt lat="39.5708150" lon="-3.8503700">
        <ele>756.7</ele>
        <time>2019-08-12T09:46:15Z</time>
      </trkpt>
      <trkpt lat="39.5708180" lon="-3.8503270">
        <ele>756.8</ele>
        <time>2019-08-12T09:46:16Z</time>
      </trkpt>
      <trkpt lat="39.5708210" lon="-3.8502840">
        <ele>756.9</ele>
        <time>2019-08-12T09:46:17Z</time>
      </trkpt>
      <trkpt lat="39.5708220" lon="-3.8502400">
        <ele>756.9</ele>
        <time>2019-08-12T09:46:18Z</time>
      </trkpt>
      <trkpt lat="39.5708230" lon="-3.8501950">
        <ele>757.0</ele>
        <time>2019-08-12T09:46:19Z</time>
      </trkpt>
      <trkpt lat="39.5708220" lon="-3.8501500">
        <ele>757.0</ele>
        <time>2019-08-12T09:46:20Z</time>
      </trkpt>
      <trkpt lat="39.5708190" lon="-3.8501040">
        <ele>756.9</ele>
        <time>2019-08-12T09:46:21Z</time>
      </trkpt>
      <trkpt lat="39.5708160" lon="-3.8500570">
        <ele>756.9</ele>
        <time>2019-08-12T09:46:22Z</time>
      </trkpt>
      <trkpt lat="39.5708110" lon="-3.8500100">
        <ele>756.8</ele>
        <time>2019-08-12T09:46:23Z</time>
      </trkpt>
      <trkpt lat="39.5708050" lon="-3.8499620">
        <ele>756.7</ele>
        <time>2019-08-12T09:46:24Z</time>
      </trkpt>
      <trkpt lat="39.5707970" lon="-3.8499140">
        <ele>756.6</ele>
        <time>2019-08-12T09:46:25Z</time>
      </trkpt>
      <trkpt lat="39.5707910" lon="-3.8498700">
        <ele>756.5</ele>
        <time>2019-08-12T09:46:26Z</time>
      </trkpt>
      <trkpt lat="39.5707880" lon="-3.8498330">
        <ele>756.4</ele>
        <time>2019-08-12T09:46:27Z</time>
      </trkpt>
      <trkpt lat="39.5707900" lon="-3.8498080">
        <ele>756.3</ele>
        <time>2019-08-12T09:46:28Z</time>
      </trkpt>
      <trkpt lat="39.5708010" lon="-3.8497990">
        <ele>756.3</ele>
        <time>2019-08-12T09:46:29Z</time>
      </trkpt>
      <trkpt lat="39.5708790" lon="-3.8499040">
        <ele>753.6</ele>
        <time>2019-08-12T09:46:30Z</time>
      </trkpt>
      <trkpt lat="39.5709560" lon="-3.8500290">
        <ele>753.7</ele>
        <time>2019-08-12T09:46:31Z</time>
      </trkpt>
      <trkpt lat="39.5710320" lon="-3.8501530">
        <ele>753.7</ele>
        <time>2019-08-12T09:46:57Z</time>
      </trkpt>
      <trkpt lat="39.5711090" lon="-3.8502780">
        <ele>753.8</ele>
        <time>2019-08-12T09:46:58Z</time>
      </trkpt>
      <trkpt lat="39.5711300" lon="-3.8503220">
        <ele>753.8</ele>
        <time>2019-08-12T09:46:59Z</time>
      </trkpt>
      <trkpt lat="39.5711510" lon="-3.8503620">
        <ele>753.8</ele>
        <time>2019-08-12T09:47:00Z</time>
      </trkpt>
      <trkpt lat="39.5711760" lon="-3.8504030">
        <ele>753.8</ele>
        <time>2019-08-12T09:47:01Z</time>
      </trkpt>
      <trkpt lat="39.5712020" lon="-3.8504420">
        <ele>753.8</ele>
        <time>2019-08-12T09:47:02Z</time>
      </trkpt>
      <trkpt lat="39.5712460" lon="-3.8505100">
        <ele>753.9</ele>
        <time>2019-08-12T09:47:03Z</time>
      </trkpt>
      <trkpt lat="39.5712630" lon="-3.8505380">
        <ele>753.9</ele>
        <time>2019-08-12T09:47:04Z</time>
      </trkpt>
      <trkpt lat="39.5712810" lon="-3.8505670">
        <ele>753.9</ele>
        <time>2019-08-12T09:47:05Z</time>
      </trkpt>
      <trkpt lat="39.5713080" lon="-3.8506140">
        <ele>753.9</ele>
        <time>2019-08-12T09:47:06Z</time>
      </trkpt>
      <trkpt lat="39.5713340" lon="-3.8506630">
        <ele>753.9</ele>
        <time>2019-08-12T09:47:07Z</time>
      </trkpt>
      <trkpt lat="39.5713620" lon="-3.8507110">
        <ele>753.9</ele>
        <time>2019-08-12T09:47:08Z</time>
      </trkpt>
      <trkpt lat="39.5713900" lon="-3.8507600">
        <ele>753.8</ele>
        <time>2019-08-12T09:47:09Z</time>
      </trkpt>
      <trkpt lat="39.5714190" lon="-3.8508090">
        <ele>753.8</ele>
        <time>2019-08-12T09:47:10Z</time>
      </trkpt>
      <trkpt lat="39.5714480" lon="-3.8508590">
        <ele>753.7</ele>
        <time>2019-08-12T09:47:11Z</time>
      </trkpt>
      <trkpt lat="39.5714770" lon="-3.8509090">
        <ele>753.7</ele>
        <time>2019-08-12T09:47:12Z</time>
      </trkpt>
      <trkpt lat="39.5715070" lon="-3.8509590">
        <ele>753.6</ele>
        <time>2019-08-12T09:47:13Z</time>
      </trkpt>
      <trkpt lat="39.5715380" lon="-3.8510100">
        <ele>753.8</ele>
        <time>2019-08-12T09:47:14Z</time>
      </trkpt>
      <trkpt lat="39.5715690" lon="-3.8510620">
        <ele>753.9</ele>
        <time>2019-08-12T09:47:15Z</time>
      </trkpt>
      <trkpt lat="39.5716000" lon="-3.8511150">
        <ele>754.0</ele>
        <time>2019-08-12T09:47:16Z</time>
      </trkpt>
      <trkpt lat="39.5716310" lon="-3.8511680">
        <ele>754.2</ele>
        <time>2019-08-12T09:47:17Z</time>
      </trkpt>
      <trkpt lat="39.5716630" lon="-3.8512230">
        <ele>754.2</ele>
        <time>2019-08-12T09:47:18Z</time>
      </trkpt>
      <trkpt lat="39.5716950" lon="-3.8512780">
        <ele>754.3</ele>
        <time>2019-08-12T09:47:19Z</time>
      </trkpt>
      <trkpt lat="39.5717280" lon="-3.8513350">
        <ele>754.4</ele>
        <time>2019-08-12T09:47:20Z</time>
      </trkpt>
      <trkpt lat="39.5717610" lon="-3.8513920">
        <ele>754.5</ele>
        <time>2019-08-12T09:47:21Z</time>
      </trkpt>
      <trkpt lat="39.5717940" lon="-3.8514510">
        <ele>754.6</ele>
        <time>2019-08-12T09:47:22Z</time>
      </trkpt>
      <trkpt lat="39.5718280" lon="-3.8515110">
        <ele>754.7</ele>
        <time>2019-08-12T09:47:23Z</time>
      </trkpt>
      <trkpt lat="39.5718630" lon="-3.8515720">
        <ele>754.9</ele>
        <time>2019-08-12T09:47:24Z</time>
      </trkpt>
      <trkpt lat="39.5718980" lon="-3.8516340">
        <ele>755.1</ele>
        <time>2019-08-12T09:47:25Z</time>
      </trkpt>
      <trkpt lat="39.5719340" lon="-3.8516970">
        <ele>755.3</ele>
        <time>2019-08-12T09:47:26Z</time>
      </trkpt>
      <trkpt lat="39.5719700" lon="-3.8517610">
        <ele>755.5</ele>
        <time>2019-08-12T09:47:27Z</time>
      </trkpt>
      <trkpt lat="39.5720070" lon="-3.8518270">
        <ele>755.7</ele>
        <time>2019-08-12T09:47:28Z</time>
      </trkpt>
      <trkpt lat="39.5720440" lon="-3.8518930">
        <ele>756.0</ele>
        <time>2019-08-12T09:47:29Z</time>
      </trkpt>
      <trkpt lat="39.5720820" lon="-3.8519600">
        <ele>756.2</ele>
        <time>2019-08-12T09:47:30Z</time>
      </trkpt>
      <trkpt lat="39.5721200" lon="-3.8520280">
        <ele>756.3</ele>
        <time>2019-08-12T09:47:31Z</time>
      </trkpt>
      <trkpt lat="39.5721590" lon="-3.8520960">
        <ele>756.3</ele>
        <time>2019-08-12T09:47:32Z</time>
      </trkpt>
      <trkpt lat="39.5721980" lon="-3.8521650">
        <ele>756.3</ele>
        <time>2019-08-12T09:47:33Z</time>
      </trkpt>
      <trkpt lat="39.5722370" lon="-3.8522340">
        <ele>756.4</ele>
        <time>2019-08-12T09:47:34Z</time>
      </trkpt>
      <trkpt lat="39.5722760" lon="-3.8523030">
        <ele>756.4</ele>
        <time>2019-08-12T09:47:35Z</time>
      </trkpt>
      <trkpt lat="39.5723150" lon="-3.8523720">
        <ele>756.5</ele>
        <time>2019-08-12T09:47:36Z</time>
      </trkpt>
      <trkpt lat="39.5723540" lon="-3.8524410">
        <ele>756.5</ele>
        <time>2019-08-12T09:47:37Z</time>
      </trkpt>
      <trkpt lat="39.5724190" lon="-3.8525560">
        <ele>756.7</ele>
        <time>2019-08-12T09:47:38Z</time>
      </trkpt>
      <trkpt lat="39.5724450" lon="-3.8526010">
        <ele>756.7</ele>
        <time>2019-08-12T09:47:39Z</time>
      </trkpt>
      <trkpt lat="39.5724710" lon="-3.8526470">
        <ele>756.8</ele>
        <time>2019-08-12T09:47:40Z</time>
      </trkpt>
      <trkpt lat="39.5725100" lon="-3.8527150">
        <ele>756.9</ele>
        <time>2019-08-12T09:47:41Z</time>
      </trkpt>
      <trkpt lat="39.5725490" lon="-3.8527820">
        <ele>757.0</ele>
        <time>2019-08-12T09:47:42Z</time>
      </trkpt>
      <trkpt lat="39.5726120" lon="-3.8528910">
        <ele>757.3</ele>
        <time>2019-08-12T09:47:43Z</time>
      </trkpt>
      <trkpt lat="39.5726370" lon="-3.8529340">
        <ele>757.4</ele>
        <time>2019-08-12T09:47:44Z</time>
      </trkpt>
      <trkpt lat="39.5726620" lon="-3.8529770">
        <ele>757.5</ele>
        <time>2019-08-12T09:47:45Z</time>
      </trkpt>
      <trkpt lat="39.5726990" lon="-3.8530410">
        <ele>757.6</ele>
        <time>2019-08-12T09:47:46Z</time>
      </trkpt>
      <trkpt lat="39.5727360" lon="-3.8531030">
        <ele>757.8</ele>
        <time>2019-08-12T09:47:47Z</time>
      </trkpt>
      <trkpt lat="39.5727720" lon="-3.8531650">
        <ele>758.0</ele>
        <time>2019-08-12T09:47:48Z</time>
      </trkpt>
      <trkpt lat="39.5728080" lon="-3.8532260">
        <ele>758.1</ele>
        <time>2019-08-12T09:47:49Z</time>
      </trkpt>
      <trkpt lat="39.5728440" lon="-3.8532860">
        <ele>758.3</ele>
        <time>2019-08-12T09:47:50Z</time>
      </trkpt>
      <trkpt lat="39.5728790" lon="-3.8533460">
        <ele>758.4</ele>
        <time>2019-08-12T09:47:51Z</time>
      </trkpt>
      <trkpt lat="39.5729140" lon="-3.8534050">
        <ele>758.6</ele>
        <time>2019-08-12T09:47:52Z</time>
      </trkpt>
      <trkpt lat="39.5729490" lon="-3.8534640">
        <ele>758.7</ele>
        <time>2019-08-12T09:47:53Z</time>
      </trkpt>
      <trkpt lat="39.5729840" lon="-3.8535220">
        <ele>758.8</ele>
        <time>2019-08-12T09:47:54Z</time>
      </trkpt>
      <trkpt lat="39.5730190" lon="-3.8535800">
        <ele>759.0</ele>
        <time>2019-08-12T09:47:55Z</time>
      </trkpt>
      <trkpt lat="39.5730530" lon="-3.8536380">
        <ele>759.1</ele>
        <time>2019-08-12T09:47:56Z</time>
      </trkpt>
      <trkpt lat="39.5730870" lon="-3.8536950">
        <ele>759.3</ele>
        <time>2019-08-12T09:47:57Z</time>
      </trkpt>
      <trkpt lat="39.5731210" lon="-3.8537530">
        <ele>759.5</ele>
        <time>2019-08-12T09:47:58Z</time>
      </trkpt>
      <trkpt lat="39.5731550" lon="-3.8538100">
        <ele>759.6</ele>
        <time>2019-08-12T09:47:59Z</time>
      </trkpt>
      <trkpt lat="39.5731890" lon="-3.8538680">
        <ele>759.8</ele>
        <time>2019-08-12T09:48:00Z</time>
      </trkpt>
      <trkpt lat="39.5732230" lon="-3.8539250">
        <ele>760.0</ele>
        <time>2019-08-12T09:48:01Z</time>
      </trkpt>
      <trkpt lat="39.5732570" lon="-3.8539830">
        <ele>760.1</ele>
        <time>2019-08-12T09:48:02Z</time>
      </trkpt>
      <trkpt lat="39.5732910" lon="-3.8540410">
        <ele>760.3</ele>
        <time>2019-08-12T09:48:03Z</time>
      </trkpt>
      <trkpt lat="39.5733240" lon="-3.8540990">
        <ele>760.4</ele>
        <time>2019-08-12T09:48:04Z</time>
      </trkpt>
      <trkpt lat="39.5733580" lon="-3.8541570">
        <ele>760.6</ele>
        <time>2019-08-12T09:48:05Z</time>
      </trkpt>
      <trkpt lat="39.5733910" lon="-3.8542140">
        <ele>760.7</ele>
        <time>2019-08-12T09:48:06Z</time>
      </trkpt>
      <trkpt lat="39.5734250" lon="-3.8542710">
        <ele>760.8</ele>
        <time>2019-08-12T09:48:07Z</time>
      </trkpt>
      <trkpt lat="39.5734580" lon="-3.8543280">
        <ele>760.9</ele>
        <time>2019-08-12T09:48:08Z</time>
      </trkpt>
      <trkpt lat="39.5734910" lon="-3.8543840">
        <ele>761.0</ele>
        <time>2019-08-12T09:48:09Z</time>
      </trkpt>
      <trkpt lat="39.5735230" lon="-3.8544390">
        <ele>761.1</ele>
        <time>2019-08-12T09:48:10Z</time>
      </trkpt>
      <trkpt lat="39.5735560" lon="-3.8544930">
        <ele>761.2</ele>
        <time>2019-08-12T09:48:11Z</time>
      </trkpt>
      <trkpt lat="39.5735870" lon="-3.8545450">
        <ele>761.3</ele>
        <time>2019-08-12T09:48:12Z</time>
      </trkpt>
      <trkpt lat="39.5736190" lon="-3.8545960">
        <ele>761.4</ele>
        <time>2019-08-12T09:48:13Z</time>
      </trkpt>
      <trkpt lat="39.5736500" lon="-3.8546460">
        <ele>761.4</ele>
        <time>2019-08-12T09:48:14Z</time>
      </trkpt>
      <trkpt lat="39.5736810" lon="-3.8546950">
        <ele>761.5</ele>
        <time>2019-08-12T09:48:15Z</time>
      </trkpt>
      <trkpt lat="39.5737110" lon="-3.8547430">
        <ele>761.6</ele>
        <time>2019-08-12T09:48:16Z</time>
      </trkpt>
      <trkpt lat="39.5737410" lon="-3.8547900">
        <ele>761.7</ele>
        <time>2019-08-12T09:48:17Z</time>
      </trkpt>
      <trkpt lat="39.5737710" lon="-3.8548360">
        <ele>761.7</ele>
        <time>2019-08-12T09:48:18Z</time>
      </trkpt>
      <trkpt lat="39.5738000" lon="-3.8548820">
        <ele>761.8</ele>
        <time>2019-08-12T09:48:19Z</time>
      </trkpt>
      <trkpt lat="39.5738290" lon="-3.8549270">
        <ele>761.9</ele>
        <time>2019-08-12T09:48:20Z</time>
      </trkpt>
      <trkpt lat="39.5738570" lon="-3.8549720">
        <ele>762.0</ele>
        <time>2019-08-12T09:48:21Z</time>
      </trkpt>
      <trkpt lat="39.5738850" lon="-3.8550170">
        <ele>762.1</ele>
        <time>2019-08-12T09:48:22Z</time>
      </trkpt>
      <trkpt lat="39.5739130" lon="-3.8550610">
        <ele>762.2</ele>
        <time>2019-08-12T09:48:23Z</time>
      </trkpt>
      <trkpt lat="39.5739400" lon="-3.8551060">
        <ele>762.3</ele>
        <time>2019-08-12T09:48:24Z</time>
      </trkpt>
      <trkpt lat="39.5739670" lon="-3.8551500">
        <ele>762.4</ele>
        <time>2019-08-12T09:48:25Z</time>
      </trkpt>
      <trkpt lat="39.5739940" lon="-3.8551950">
        <ele>762.5</ele>
        <time>2019-08-12T09:48:26Z</time>
      </trkpt>
      <trkpt lat="39.5740210" lon="-3.8552390">
        <ele>762.7</ele>
        <time>2019-08-12T09:48:27Z</time>
      </trkpt>
      <trkpt lat="39.5740480" lon="-3.8552840">
        <ele>762.8</ele>
        <time>2019-08-12T09:48:28Z</time>
      </trkpt>
      <trkpt lat="39.5740750" lon="-3.8553290">
        <ele>762.9</ele>
        <time>2019-08-12T09:48:29Z</time>
      </trkpt>
      <trkpt lat="39.5741010" lon="-3.8553740">
        <ele>763.1</ele>
        <time>2019-08-12T09:48:30Z</time>
      </trkpt>
      <trkpt lat="39.5741280" lon="-3.8554200">
        <ele>763.2</ele>
        <time>2019-08-12T09:48:31Z</time>
      </trkpt>
      <trkpt lat="39.5741550" lon="-3.8554660">
        <ele>763.3</ele>
        <time>2019-08-12T09:48:32Z</time>
      </trkpt>
      <trkpt lat="39.5741820" lon="-3.8555120">
        <ele>763.5</ele>
        <time>2019-08-12T09:48:33Z</time>
      </trkpt>
      <trkpt lat="39.5742080" lon="-3.8555570">
        <ele>763.6</ele>
        <time>2019-08-12T09:48:34Z</time>
      </trkpt>
      <trkpt lat="39.5742350" lon="-3.8556030">
        <ele>763.7</ele>
        <time>2019-08-12T09:48:35Z</time>
      </trkpt>
      <trkpt lat="39.5742620" lon="-3.8556480">
        <ele>763.8</ele>
        <time>2019-08-12T09:48:36Z</time>
      </trkpt>
      <trkpt lat="39.5742880" lon="-3.8556920">
        <ele>763.9</ele>
        <time>2019-08-12T09:48:37Z</time>
      </trkpt>
      <trkpt lat="39.5743150" lon="-3.8557350">
        <ele>764.1</ele>
        <time>2019-08-12T09:48:38Z</time>
      </trkpt>
      <trkpt lat="39.5743410" lon="-3.8557770">
        <ele>764.2</ele>
        <time>2019-08-12T09:48:39Z</time>
      </trkpt>
      <trkpt lat="39.5743680" lon="-3.8558170">
        <ele>764.3</ele>
        <time>2019-08-12T09:48:40Z</time>
      </trkpt>
      <trkpt lat="39.5743970" lon="-3.8558520">
        <ele>764.4</ele>
        <time>2019-08-12T09:48:41Z</time>
      </trkpt>
      <trkpt lat="39.5744300" lon="-3.8558760">
        <ele>764.5</ele>
        <time>2019-08-12T09:48:42Z</time>
      </trkpt>
      <trkpt lat="39.5744700" lon="-3.8558880">
        <ele>764.6</ele>
        <time>2019-08-12T09:48:43Z</time>
      </trkpt>
      <trkpt lat="39.5745110" lon="-3.8558980">
        <ele>764.7</ele>
        <time>2019-08-12T09:48:44Z</time>
      </trkpt>
      <trkpt lat="39.5745490" lon="-3.8559160">
        <ele>764.6</ele>
        <time>2019-08-12T09:48:45Z</time>
      </trkpt>
      <trkpt lat="39.5745810" lon="-3.8559430">
        <ele>764.6</ele>
        <time>2019-08-12T09:48:46Z</time>
      </trkpt>
      <trkpt lat="39.5746070" lon="-3.8559780">
        <ele>764.6</ele>
        <time>2019-08-12T09:48:47Z</time>
      </trkpt>
      <trkpt lat="39.5746250" lon="-3.8560190">
        <ele>764.6</ele>
        <time>2019-08-12T09:48:48Z</time>
      </trkpt>
      <trkpt lat="39.5746350" lon="-3.8560660">
        <ele>764.5</ele>
        <time>2019-08-12T09:48:49Z</time>
      </trkpt>
      <trkpt lat="39.5746370" lon="-3.8561170">
        <ele>764.5</ele>
        <time>2019-08-12T09:48:50Z</time>
      </trkpt>
      <trkpt lat="39.5746360" lon="-3.8561700">
        <ele>764.5</ele>
        <time>2019-08-12T09:48:51Z</time>
      </trkpt>
      <trkpt lat="39.5746330" lon="-3.8562230">
        <ele>764.5</ele>
        <time>2019-08-12T09:48:52Z</time>
      </trkpt>
      <trkpt lat="39.5746340" lon="-3.8562770">
        <ele>764.5</ele>
        <time>2019-08-12T09:48:53Z</time>
      </trkpt>
      <trkpt lat="39.5746390" lon="-3.8563280">
        <ele>764.5</ele>
        <time>2019-08-12T09:48:54Z</time>
      </trkpt>
      <trkpt lat="39.5746530" lon="-3.8563750">
        <ele>764.6</ele>
        <time>2019-08-12T09:48:55Z</time>
      </trkpt>
      <trkpt lat="39.5746740" lon="-3.8564200">
        <ele>764.6</ele>
        <time>2019-08-12T09:48:56Z</time>
      </trkpt>
      <trkpt lat="39.5746990" lon="-3.8564620">
        <ele>764.7</ele>
        <time>2019-08-12T09:48:57Z</time>
      </trkpt>
      <trkpt lat="39.5747250" lon="-3.8565010">
        <ele>764.7</ele>
        <time>2019-08-12T09:48:58Z</time>
      </trkpt>
      <trkpt lat="39.5747520" lon="-3.8565390">
        <ele>764.8</ele>
        <time>2019-08-12T09:48:59Z</time>
      </trkpt>
      <trkpt lat="39.5747780" lon="-3.8565750">
        <ele>764.8</ele>
        <time>2019-08-12T09:49:00Z</time>
      </trkpt>
      <trkpt lat="39.5748030" lon="-3.8566110">
        <ele>764.9</ele>
        <time>2019-08-12T09:49:01Z</time>
      </trkpt>
      <trkpt lat="39.5748270" lon="-3.8566460">
        <ele>765.0</ele>
        <time>2019-08-12T09:49:02Z</time>
      </trkpt>
      <trkpt lat="39.5748500" lon="-3.8566810">
        <ele>765.0</ele>
        <time>2019-08-12T09:49:03Z</time>
      </trkpt>
      <trkpt lat="39.5748720" lon="-3.8567170">
        <ele>765.1</ele>
        <time>2019-08-12T09:49:04Z</time>
      </trkpt>
      <trkpt lat="39.5748910" lon="-3.8567540">
        <ele>765.2</ele>
        <time>2019-08-12T09:49:05Z</time>
      </trkpt>
      <trkpt lat="39.5749100" lon="-3.8567930">
        <ele>765.3</ele>
        <time>2019-08-12T09:49:06Z</time>
      </trkpt>
      <trkpt lat="39.5749260" lon="-3.8568340">
        <ele>765.4</ele>
        <time>2019-08-12T09:49:07Z</time>
      </trkpt>
      <trkpt lat="39.5749400" lon="-3.8568780">
        <ele>765.5</ele>
        <time>2019-08-12T09:49:08Z</time>
      </trkpt>
      <trkpt lat="39.5749530" lon="-3.8569230">
        <ele>765.6</ele>
        <time>2019-08-12T09:49:09Z</time>
      </trkpt>
      <trkpt lat="39.5749660" lon="-3.8569700">
        <ele>765.7</ele>
        <time>2019-08-12T09:49:10Z</time>
      </trkpt>
      <trkpt lat="39.5749800" lon="-3.8570160">
        <ele>765.8</ele>
        <time>2019-08-12T09:49:11Z</time>
      </trkpt>
      <trkpt lat="39.5749960" lon="-3.8570610">
        <ele>765.8</ele>
        <time>2019-08-12T09:49:12Z</time>
      </trkpt>
      <trkpt lat="39.5750150" lon="-3.8571040">
        <ele>765.9</ele>
        <time>2019-08-12T09:49:13Z</time>
      </trkpt>
      <trkpt lat="39.5750360" lon="-3.8571460">
        <ele>766.0</ele>
        <time>2019-08-12T09:49:14Z</time>
      </trkpt>
      <trkpt lat="39.5750590" lon="-3.8571870">
        <ele>766.0</ele>
        <time>2019-08-12T09:49:15Z</time>
      </trkpt>
      <trkpt lat="39.5750820" lon="-3.8572280">
        <ele>766.1</ele>
        <time>2019-08-12T09:49:16Z</time>
      </trkpt>
      <trkpt lat="39.5751060" lon="-3.8572680">
        <ele>766.1</ele>
        <time>2019-08-12T09:49:17Z</time>
      </trkpt>
      <trkpt lat="39.5751290" lon="-3.8573080">
        <ele>766.2</ele>
        <time>2019-08-12T09:49:18Z</time>
      </trkpt>
      <trkpt lat="39.5751530" lon="-3.8573480">
        <ele>766.2</ele>
        <time>2019-08-12T09:49:19Z</time>
      </trkpt>
      <trkpt lat="39.5751760" lon="-3.8573880">
        <ele>766.3</ele>
        <time>2019-08-12T09:49:20Z</time>
      </trkpt>
      <trkpt lat="39.5752000" lon="-3.8574270">
        <ele>766.4</ele>
        <time>2019-08-12T09:49:21Z</time>
      </trkpt>
      <trkpt lat="39.5752240" lon="-3.8574660">
        <ele>766.5</ele>
        <time>2019-08-12T09:49:22Z</time>
      </trkpt>
      <trkpt lat="39.5752480" lon="-3.8575040">
        <ele>766.6</ele>
        <time>2019-08-12T09:49:23Z</time>
      </trkpt>
      <trkpt lat="39.5752730" lon="-3.8575420">
        <ele>766.7</ele>
        <time>2019-08-12T09:49:24Z</time>
      </trkpt>
      <trkpt lat="39.5752980" lon="-3.8575800">
        <ele>766.9</ele>
        <time>2019-08-12T09:49:25Z</time>
      </trkpt>
      <trkpt lat="39.5753230" lon="-3.8576180">
        <ele>767.0</ele>
        <time>2019-08-12T09:49:26Z</time>
      </trkpt>
      <trkpt lat="39.5753490" lon="-3.8576560">
        <ele>767.2</ele>
        <time>2019-08-12T09:49:27Z</time>
      </trkpt>
      <trkpt lat="39.5753750" lon="-3.8576950">
        <ele>767.1</ele>
        <time>2019-08-12T09:49:28Z</time>
      </trkpt>
      <trkpt lat="39.5754010" lon="-3.8577330">
        <ele>767.1</ele>
        <time>2019-08-12T09:49:29Z</time>
      </trkpt>
      <trkpt lat="39.5754270" lon="-3.8577730">
        <ele>767.1</ele>
        <time>2019-08-12T09:49:30Z</time>
      </trkpt>
      <trkpt lat="39.5754530" lon="-3.8578120">
        <ele>767.1</ele>
        <time>2019-08-12T09:49:31Z</time>
      </trkpt>
      <trkpt lat="39.5754800" lon="-3.8578520">
        <ele>767.1</ele>
        <time>2019-08-12T09:49:32Z</time>
      </trkpt>
      <trkpt lat="39.5755060" lon="-3.8578930">
        <ele>767.1</ele>
        <time>2019-08-12T09:49:33Z</time>
      </trkpt>
      <trkpt lat="39.5755320" lon="-3.8579340">
        <ele>767.4</ele>
        <time>2019-08-12T09:49:34Z</time>
      </trkpt>
      <trkpt lat="39.5755590" lon="-3.8579750">
        <ele>767.6</ele>
        <time>2019-08-12T09:49:35Z</time>
      </trkpt>
      <trkpt lat="39.5755840" lon="-3.8580170">
        <ele>767.7</ele>
        <time>2019-08-12T09:49:36Z</time>
      </trkpt>
      <trkpt lat="39.5756100" lon="-3.8580590">
        <ele>767.9</ele>
        <time>2019-08-12T09:49:37Z</time>
      </trkpt>
      <trkpt lat="39.5756360" lon="-3.8581020">
        <ele>768.1</ele>
        <time>2019-08-12T09:49:38Z</time>
      </trkpt>
      <trkpt lat="39.5756610" lon="-3.8581450">
        <ele>768.3</ele>
        <time>2019-08-12T09:49:39Z</time>
      </trkpt>
      <trkpt lat="39.5756870" lon="-3.8581880">
        <ele>768.4</ele>
        <time>2019-08-12T09:49:40Z</time>
      </trkpt>
      <trkpt lat="39.5757120" lon="-3.8582320">
        <ele>768.6</ele>
        <time>2019-08-12T09:49:41Z</time>
      </trkpt>
      <trkpt lat="39.5757370" lon="-3.8582760">
        <ele>768.7</ele>
        <time>2019-08-12T09:49:42Z</time>
      </trkpt>
      <trkpt lat="39.5757630" lon="-3.8583200">
        <ele>768.9</ele>
        <time>2019-08-12T09:49:43Z</time>
      </trkpt>
      <trkpt lat="39.5757880" lon="-3.8583630">
        <ele>769.0</ele>
        <time>2019-08-12T09:49:44Z</time>
      </trkpt>
      <trkpt lat="39.5758140" lon="-3.8584070">
        <ele>769.1</ele>
        <time>2019-08-12T09:49:45Z</time>
      </trkpt>
      <trkpt lat="39.5758400" lon="-3.8584510">
        <ele>769.2</ele>
        <time>2019-08-12T09:49:46Z</time>
      </trkpt>
      <trkpt lat="39.5758650" lon="-3.8584950">
        <ele>769.2</ele>
        <time>2019-08-12T09:49:47Z</time>
      </trkpt>
      <trkpt lat="39.5758910" lon="-3.8585390">
        <ele>769.3</ele>
        <time>2019-08-12T09:49:48Z</time>
      </trkpt>
      <trkpt lat="39.5759170" lon="-3.8585830">
        <ele>769.4</ele>
        <time>2019-08-12T09:49:49Z</time>
      </trkpt>
      <trkpt lat="39.5759440" lon="-3.8586270">
        <ele>769.5</ele>
        <time>2019-08-12T09:49:50Z</time>
      </trkpt>
      <trkpt lat="39.5759700" lon="-3.8586710">
        <ele>769.5</ele>
        <time>2019-08-12T09:49:51Z</time>
      </trkpt>
      <trkpt lat="39.5759960" lon="-3.8587160">
        <ele>769.6</ele>
        <time>2019-08-12T09:49:52Z</time>
      </trkpt>
      <trkpt lat="39.5760220" lon="-3.8587600">
        <ele>769.7</ele>
        <time>2019-08-12T09:49:53Z</time>
      </trkpt>
      <trkpt lat="39.5760490" lon="-3.8588050">
        <ele>769.7</ele>
        <time>2019-08-12T09:49:54Z</time>
      </trkpt>
      <trkpt lat="39.5760750" lon="-3.8588490">
        <ele>769.8</ele>
        <time>2019-08-12T09:49:55Z</time>
      </trkpt>
      <trkpt lat="39.5761020" lon="-3.8588940">
        <ele>769.9</ele>
        <time>2019-08-12T09:49:56Z</time>
      </trkpt>
      <trkpt lat="39.5761290" lon="-3.8589390">
        <ele>769.9</ele>
        <time>2019-08-12T09:49:57Z</time>
      </trkpt>
      <trkpt lat="39.5761550" lon="-3.8589830">
        <ele>770.0</ele>
        <time>2019-08-12T09:49:58Z</time>
      </trkpt>
      <trkpt lat="39.5761820" lon="-3.8590280">
        <ele>770.1</ele>
        <time>2019-08-12T09:49:59Z</time>
      </trkpt>
      <trkpt lat="39.5762100" lon="-3.8590720">
        <ele>770.2</ele>
        <time>2019-08-12T09:50:00Z</time>
      </trkpt>
      <trkpt lat="39.5762370" lon="-3.8591160">
        <ele>770.2</ele>
        <time>2019-08-12T09:50:01Z</time>
      </trkpt>
      <trkpt lat="39.5762650" lon="-3.8591600">
        <ele>770.3</ele>
        <time>2019-08-12T09:50:02Z</time>
      </trkpt>
      <trkpt lat="39.5762920" lon="-3.8592040">
        <ele>770.4</ele>
        <time>2019-08-12T09:50:03Z</time>
      </trkpt>
      <trkpt lat="39.5763210" lon="-3.8592480">
        <ele>770.4</ele>
        <time>2019-08-12T09:50:04Z</time>
      </trkpt>
      <trkpt lat="39.5763490" lon="-3.8592920">
        <ele>770.5</ele>
        <time>2019-08-12T09:50:05Z</time>
      </trkpt>
      <trkpt lat="39.5764190" lon="-3.8593990">
        <ele>770.7</ele>
        <time>2019-08-12T09:50:06Z</time>
      </trkpt>
      <trkpt lat="39.5765800" lon="-3.8596430">
        <ele>771.1</ele>
        <time>2019-08-12T09:50:07Z</time>
      </trkpt>
      <trkpt lat="39.5766100" lon="-3.8596910">
        <ele>771.2</ele>
        <time>2019-08-12T09:50:08Z</time>
      </trkpt>
      <trkpt lat="39.5769260" lon="-3.8601980">
        <ele>773.6</ele>
        <time>2019-08-12T09:51:58Z</time>
      </trkpt>
      <trkpt lat="39.5769480" lon="-3.8602370">
        <ele>773.9</ele>
        <time>2019-08-12T09:51:59Z</time>
      </trkpt>
      <trkpt lat="39.5770720" lon="-3.8604360">
        <ele>775.3</ele>
        <time>2019-08-12T09:52:00Z</time>
      </trkpt>
      <trkpt lat="39.5771290" lon="-3.8605210">
        <ele>775.8</ele>
        <time>2019-08-12T09:52:01Z</time>
      </trkpt>
      <trkpt lat="39.5771530" lon="-3.8605550">
        <ele>775.9</ele>
        <time>2019-08-12T09:52:02Z</time>
      </trkpt>
      <trkpt lat="39.5771770" lon="-3.8605930">
        <ele>776.1</ele>
        <time>2019-08-12T09:52:03Z</time>
      </trkpt>
      <trkpt lat="39.5772010" lon="-3.8606330">
        <ele>776.2</ele>
        <time>2019-08-12T09:52:04Z</time>
      </trkpt>
      <trkpt lat="39.5772240" lon="-3.8606750">
        <ele>776.4</ele>
        <time>2019-08-12T09:52:05Z</time>
      </trkpt>
      <trkpt lat="39.5772480" lon="-3.8607180">
        <ele>776.5</ele>
        <time>2019-08-12T09:52:06Z</time>
      </trkpt>
      <trkpt lat="39.5772720" lon="-3.8607630">
        <ele>776.6</ele>
        <time>2019-08-12T09:52:07Z</time>
      </trkpt>
      <trkpt lat="39.5773120" lon="-3.8608380">
        <ele>776.6</ele>
        <time>2019-08-12T09:52:08Z</time>
      </trkpt>
      <trkpt lat="39.5773280" lon="-3.8608690">
        <ele>776.6</ele>
        <time>2019-08-12T09:52:09Z</time>
      </trkpt>
      <trkpt lat="39.5773440" lon="-3.8608990">
        <ele>776.6</ele>
        <time>2019-08-12T09:52:10Z</time>
      </trkpt>
      <trkpt lat="39.5773690" lon="-3.8609430">
        <ele>776.6</ele>
        <time>2019-08-12T09:52:11Z</time>
      </trkpt>
      <trkpt lat="39.5773950" lon="-3.8609870">
        <ele>776.6</ele>
        <time>2019-08-12T09:52:12Z</time>
      </trkpt>
      <trkpt lat="39.5774380" lon="-3.8610580">
        <ele>776.6</ele>
        <time>2019-08-12T09:52:13Z</time>
      </trkpt>
      <trkpt lat="39.5774560" lon="-3.8610870">
        <ele>776.6</ele>
        <time>2019-08-12T09:52:14Z</time>
      </trkpt>
      <trkpt lat="39.5774730" lon="-3.8611150">
        <ele>776.6</ele>
        <time>2019-08-12T09:52:15Z</time>
      </trkpt>
      <trkpt lat="39.5775000" lon="-3.8611570">
        <ele>776.7</ele>
        <time>2019-08-12T09:52:16Z</time>
      </trkpt>
      <trkpt lat="39.5775260" lon="-3.8611990">
        <ele>776.7</ele>
        <time>2019-08-12T09:52:17Z</time>
      </trkpt>
      <trkpt lat="39.5775690" lon="-3.8612690">
        <ele>776.8</ele>
        <time>2019-08-12T09:52:18Z</time>
      </trkpt>
      <trkpt lat="39.5775860" lon="-3.8612980">
        <ele>776.8</ele>
        <time>2019-08-12T09:52:19Z</time>
      </trkpt>
      <trkpt lat="39.5776030" lon="-3.8613260">
        <ele>776.9</ele>
        <time>2019-08-12T09:52:20Z</time>
      </trkpt>
      <trkpt lat="39.5776290" lon="-3.8613680">
        <ele>777.0</ele>
        <time>2019-08-12T09:52:21Z</time>
      </trkpt>
      <trkpt lat="39.5776540" lon="-3.8614110">
        <ele>777.1</ele>
        <time>2019-08-12T09:52:22Z</time>
      </trkpt>
      <trkpt lat="39.5776940" lon="-3.8614830">
        <ele>777.4</ele>
        <time>2019-08-12T09:52:23Z</time>
      </trkpt>
      <trkpt lat="39.5777110" lon="-3.8615110">
        <ele>777.5</ele>
        <time>2019-08-12T09:52:24Z</time>
      </trkpt>
      <trkpt lat="39.5777270" lon="-3.8615400">
        <ele>777.6</ele>
        <time>2019-08-12T09:52:25Z</time>
      </trkpt>
      <trkpt lat="39.5777510" lon="-3.8615840">
        <ele>777.7</ele>
        <time>2019-08-12T09:52:26Z</time>
      </trkpt>
      <trkpt lat="39.5777750" lon="-3.8616270">
        <ele>777.9</ele>
        <time>2019-08-12T09:52:27Z</time>
      </trkpt>
      <trkpt lat="39.5777990" lon="-3.8616710">
        <ele>778.1</ele>
        <time>2019-08-12T09:52:28Z</time>
      </trkpt>
      <trkpt lat="39.5778230" lon="-3.8617140">
        <ele>778.2</ele>
        <time>2019-08-12T09:52:29Z</time>
      </trkpt>
      <trkpt lat="39.5778470" lon="-3.8617580">
        <ele>778.3</ele>
        <time>2019-08-12T09:52:30Z</time>
      </trkpt>
      <trkpt lat="39.5778710" lon="-3.8618020">
        <ele>778.4</ele>
        <time>2019-08-12T09:52:31Z</time>
      </trkpt>
      <trkpt lat="39.5778950" lon="-3.8618460">
        <ele>778.6</ele>
        <time>2019-08-12T09:52:32Z</time>
      </trkpt>
      <trkpt lat="39.5779190" lon="-3.8618900">
        <ele>778.6</ele>
        <time>2019-08-12T09:52:33Z</time>
      </trkpt>
      <trkpt lat="39.5779430" lon="-3.8619340">
        <ele>778.7</ele>
        <time>2019-08-12T09:52:34Z</time>
      </trkpt>
      <trkpt lat="39.5779670" lon="-3.8619780">
        <ele>778.8</ele>
        <time>2019-08-12T09:52:35Z</time>
      </trkpt>
      <trkpt lat="39.5779920" lon="-3.8620220">
        <ele>778.9</ele>
        <time>2019-08-12T09:52:36Z</time>
      </trkpt>
      <trkpt lat="39.5780170" lon="-3.8620670">
        <ele>778.9</ele>
        <time>2019-08-12T09:52:37Z</time>
      </trkpt>
      <trkpt lat="39.5780420" lon="-3.8621110">
        <ele>779.0</ele>
        <time>2019-08-12T09:52:38Z</time>
      </trkpt>
      <trkpt lat="39.5780670" lon="-3.8621550">
        <ele>779.1</ele>
        <time>2019-08-12T09:52:39Z</time>
      </trkpt>
      <trkpt lat="39.5780920" lon="-3.8621990">
        <ele>779.1</ele>
        <time>2019-08-12T09:52:40Z</time>
      </trkpt>
      <trkpt lat="39.5781180" lon="-3.8622420">
        <ele>779.2</ele>
        <time>2019-08-12T09:52:41Z</time>
      </trkpt>
      <trkpt lat="39.5781430" lon="-3.8622860">
        <ele>779.3</ele>
        <time>2019-08-12T09:52:42Z</time>
      </trkpt>
      <trkpt lat="39.5781680" lon="-3.8623290">
        <ele>779.5</ele>
        <time>2019-08-12T09:52:43Z</time>
      </trkpt>
      <trkpt lat="39.5781930" lon="-3.8623710">
        <ele>779.6</ele>
        <time>2019-08-12T09:52:44Z</time>
      </trkpt>
      <trkpt lat="39.5782180" lon="-3.8624130">
        <ele>779.8</ele>
        <time>2019-08-12T09:52:45Z</time>
      </trkpt>
      <trkpt lat="39.5782420" lon="-3.8624550">
        <ele>780.0</ele>
        <time>2019-08-12T09:52:46Z</time>
      </trkpt>
      <trkpt lat="39.5782660" lon="-3.8624960">
        <ele>780.2</ele>
        <time>2019-08-12T09:52:47Z</time>
      </trkpt>
      <trkpt lat="39.5782890" lon="-3.8625360">
        <ele>780.4</ele>
        <time>2019-08-12T09:52:48Z</time>
      </trkpt>
      <trkpt lat="39.5783110" lon="-3.8625750">
        <ele>780.5</ele>
        <time>2019-08-12T09:52:49Z</time>
      </trkpt>
      <trkpt lat="39.5783330" lon="-3.8626130">
        <ele>780.7</ele>
        <time>2019-08-12T09:52:50Z</time>
      </trkpt>
      <trkpt lat="39.5783550" lon="-3.8626520">
        <ele>780.9</ele>
        <time>2019-08-12T09:52:51Z</time>
      </trkpt>
      <trkpt lat="39.5783760" lon="-3.8626900">
        <ele>781.1</ele>
        <time>2019-08-12T09:52:52Z</time>
      </trkpt>
      <trkpt lat="39.5783980" lon="-3.8627270">
        <ele>781.3</ele>
        <time>2019-08-12T09:52:53Z</time>
      </trkpt>
      <trkpt lat="39.5784190" lon="-3.8627650">
        <ele>781.4</ele>
        <time>2019-08-12T09:52:54Z</time>
      </trkpt>
      <trkpt lat="39.5784410" lon="-3.8628020">
        <ele>781.6</ele>
        <time>2019-08-12T09:52:55Z</time>
      </trkpt>
      <trkpt lat="39.5784630" lon="-3.8628390">
        <ele>781.7</ele>
        <time>2019-08-12T09:52:56Z</time>
      </trkpt>
      <trkpt lat="39.5784860" lon="-3.8628770">
        <ele>781.9</ele>
        <time>2019-08-12T09:52:57Z</time>
      </trkpt>
      <trkpt lat="39.5785080" lon="-3.8629150">
        <ele>782.0</ele>
        <time>2019-08-12T09:52:58Z</time>
      </trkpt>
      <trkpt lat="39.5785320" lon="-3.8629530">
        <ele>782.2</ele>
        <time>2019-08-12T09:52:59Z</time>
      </trkpt>
      <trkpt lat="39.5785550" lon="-3.8629910">
        <ele>782.4</ele>
        <time>2019-08-12T09:53:00Z</time>
      </trkpt>
      <trkpt lat="39.5785790" lon="-3.8630290">
        <ele>782.6</ele>
        <time>2019-08-12T09:53:01Z</time>
      </trkpt>
      <trkpt lat="39.5786020" lon="-3.8630670">
        <ele>782.7</ele>
        <time>2019-08-12T09:53:02Z</time>
      </trkpt>
      <trkpt lat="39.5786260" lon="-3.8631050">
        <ele>782.9</ele>
        <time>2019-08-12T09:53:03Z</time>
      </trkpt>
      <trkpt lat="39.5786490" lon="-3.8631430">
        <ele>783.1</ele>
        <time>2019-08-12T09:53:04Z</time>
      </trkpt>
      <trkpt lat="39.5786720" lon="-3.8631810">
        <ele>783.3</ele>
        <time>2019-08-12T09:53:05Z</time>
      </trkpt>
      <trkpt lat="39.5786950" lon="-3.8632190">
        <ele>783.5</ele>
        <time>2019-08-12T09:53:06Z</time>
      </trkpt>
      <trkpt lat="39.5787180" lon="-3.8632560">
        <ele>783.6</ele>
        <time>2019-08-12T09:53:07Z</time>
      </trkpt>
      <trkpt lat="39.5787400" lon="-3.8632940">
        <ele>783.8</ele>
        <time>2019-08-12T09:53:08Z</time>
      </trkpt>
      <trkpt lat="39.5787620" lon="-3.8633320">
        <ele>783.9</ele>
        <time>2019-08-12T09:53:09Z</time>
      </trkpt>
      <trkpt lat="39.5787840" lon="-3.8633690">
        <ele>784.0</ele>
        <time>2019-08-12T09:53:10Z</time>
      </trkpt>
      <trkpt lat="39.5788060" lon="-3.8634070">
        <ele>784.1</ele>
        <time>2019-08-12T09:53:11Z</time>
      </trkpt>
      <trkpt lat="39.5788270" lon="-3.8634440">
        <ele>784.3</ele>
        <time>2019-08-12T09:53:12Z</time>
      </trkpt>
      <trkpt lat="39.5788490" lon="-3.8634820">
        <ele>784.5</ele>
        <time>2019-08-12T09:53:13Z</time>
      </trkpt>
      <trkpt lat="39.5788710" lon="-3.8635190">
        <ele>784.6</ele>
        <time>2019-08-12T09:53:14Z</time>
      </trkpt>
      <trkpt lat="39.5788940" lon="-3.8635570">
        <ele>784.8</ele>
        <time>2019-08-12T09:53:15Z</time>
      </trkpt>
      <trkpt lat="39.5789160" lon="-3.8635940">
        <ele>785.0</ele>
        <time>2019-08-12T09:53:16Z</time>
      </trkpt>
      <trkpt lat="39.5789390" lon="-3.8636320">
        <ele>785.1</ele>
        <time>2019-08-12T09:53:17Z</time>
      </trkpt>
      <trkpt lat="39.5789620" lon="-3.8636690">
        <ele>785.3</ele>
        <time>2019-08-12T09:53:18Z</time>
      </trkpt>
      <trkpt lat="39.5789840" lon="-3.8637070">
        <ele>785.5</ele>
        <time>2019-08-12T09:53:19Z</time>
      </trkpt>
      <trkpt lat="39.5790070" lon="-3.8637440">
        <ele>785.6</ele>
        <time>2019-08-12T09:53:20Z</time>
      </trkpt>
      <trkpt lat="39.5790290" lon="-3.8637820">
        <ele>785.8</ele>
        <time>2019-08-12T09:53:21Z</time>
      </trkpt>
      <trkpt lat="39.5790510" lon="-3.8638190">
        <ele>786.0</ele>
        <time>2019-08-12T09:53:22Z</time>
      </trkpt>
      <trkpt lat="39.5790720" lon="-3.8638560">
        <ele>786.2</ele>
        <time>2019-08-12T09:53:23Z</time>
      </trkpt>
      <trkpt lat="39.5790930" lon="-3.8638930">
        <ele>786.4</ele>
        <time>2019-08-12T09:53:24Z</time>
      </trkpt>
      <trkpt lat="39.5791140" lon="-3.8639290">
        <ele>786.6</ele>
        <time>2019-08-12T09:53:25Z</time>
      </trkpt>
      <trkpt lat="39.5791340" lon="-3.8639650">
        <ele>786.8</ele>
        <time>2019-08-12T09:53:26Z</time>
      </trkpt>
      <trkpt lat="39.5791550" lon="-3.8640000">
        <ele>787.1</ele>
        <time>2019-08-12T09:53:27Z</time>
      </trkpt>
      <trkpt lat="39.5791750" lon="-3.8640360">
        <ele>787.3</ele>
        <time>2019-08-12T09:53:28Z</time>
      </trkpt>
      <trkpt lat="39.5791940" lon="-3.8640710">
        <ele>787.5</ele>
        <time>2019-08-12T09:53:29Z</time>
      </trkpt>
      <trkpt lat="39.5792140" lon="-3.8641060">
        <ele>787.7</ele>
        <time>2019-08-12T09:53:30Z</time>
      </trkpt>
      <trkpt lat="39.5792340" lon="-3.8641400">
        <ele>787.9</ele>
        <time>2019-08-12T09:53:31Z</time>
      </trkpt>
      <trkpt lat="39.5792540" lon="-3.8641750">
        <ele>788.1</ele>
        <time>2019-08-12T09:53:32Z</time>
      </trkpt>
      <trkpt lat="39.5792740" lon="-3.8642100">
        <ele>788.3</ele>
        <time>2019-08-12T09:53:33Z</time>
      </trkpt>
      <trkpt lat="39.5792940" lon="-3.8642450">
        <ele>788.5</ele>
        <time>2019-08-12T09:53:34Z</time>
      </trkpt>
      <trkpt lat="39.5793140" lon="-3.8642800">
        <ele>788.7</ele>
        <time>2019-08-12T09:53:35Z</time>
      </trkpt>
      <trkpt lat="39.5793350" lon="-3.8643160">
        <ele>788.9</ele>
        <time>2019-08-12T09:53:36Z</time>
      </trkpt>
      <trkpt lat="39.5793560" lon="-3.8643510">
        <ele>789.0</ele>
        <time>2019-08-12T09:53:37Z</time>
      </trkpt>
      <trkpt lat="39.5793770" lon="-3.8643870">
        <ele>789.2</ele>
        <time>2019-08-12T09:53:38Z</time>
      </trkpt>
      <trkpt lat="39.5793980" lon="-3.8644230">
        <ele>789.4</ele>
        <time>2019-08-12T09:53:39Z</time>
      </trkpt>
      <trkpt lat="39.5794190" lon="-3.8644590">
        <ele>789.6</ele>
        <time>2019-08-12T09:53:40Z</time>
      </trkpt>
      <trkpt lat="39.5794410" lon="-3.8644950">
        <ele>789.8</ele>
        <time>2019-08-12T09:53:41Z</time>
      </trkpt>
      <trkpt lat="39.5794620" lon="-3.8645310">
        <ele>790.0</ele>
        <time>2019-08-12T09:53:42Z</time>
      </trkpt>
      <trkpt lat="39.5794830" lon="-3.8645670">
        <ele>790.2</ele>
        <time>2019-08-12T09:53:43Z</time>
      </trkpt>
      <trkpt lat="39.5795050" lon="-3.8646040">
        <ele>790.4</ele>
        <time>2019-08-12T09:53:44Z</time>
      </trkpt>
      <trkpt lat="39.5795260" lon="-3.8646410">
        <ele>790.6</ele>
        <time>2019-08-12T09:53:45Z</time>
      </trkpt>
      <trkpt lat="39.5795480" lon="-3.8646780">
        <ele>790.8</ele>
        <time>2019-08-12T09:53:46Z</time>
      </trkpt>
      <trkpt lat="39.5795690" lon="-3.8647150">
        <ele>791.0</ele>
        <time>2019-08-12T09:53:47Z</time>
      </trkpt>
      <trkpt lat="39.5795910" lon="-3.8647520">
        <ele>791.2</ele>
        <time>2019-08-12T09:53:48Z</time>
      </trkpt>
      <trkpt lat="39.5796120" lon="-3.8647890">
        <ele>791.4</ele>
        <time>2019-08-12T09:53:49Z</time>
      </trkpt>
      <trkpt lat="39.5796330" lon="-3.8648270">
        <ele>791.7</ele>
        <time>2019-08-12T09:53:50Z</time>
      </trkpt>
      <trkpt lat="39.5796550" lon="-3.8648650">
        <ele>791.9</ele>
        <time>2019-08-12T09:53:51Z</time>
      </trkpt>
      <trkpt lat="39.5796760" lon="-3.8649030">
        <ele>792.2</ele>
        <time>2019-08-12T09:53:52Z</time>
      </trkpt>
      <trkpt lat="39.5796970" lon="-3.8649410">
        <ele>792.4</ele>
        <time>2019-08-12T09:53:53Z</time>
      </trkpt>
      <trkpt lat="39.5797180" lon="-3.8649780">
        <ele>792.6</ele>
        <time>2019-08-12T09:53:54Z</time>
      </trkpt>
      <trkpt lat="39.5797400" lon="-3.8650160">
        <ele>792.8</ele>
        <time>2019-08-12T09:53:55Z</time>
      </trkpt>
      <trkpt lat="39.5797620" lon="-3.8650530">
        <ele>793.1</ele>
        <time>2019-08-12T09:53:56Z</time>
      </trkpt>
      <trkpt lat="39.5797840" lon="-3.8650890">
        <ele>793.3</ele>
        <time>2019-08-12T09:53:57Z</time>
      </trkpt>
      <trkpt lat="39.5798060" lon="-3.8651260">
        <ele>793.5</ele>
        <time>2019-08-12T09:53:58Z</time>
      </trkpt>
      <trkpt lat="39.5798270" lon="-3.8651640">
        <ele>793.7</ele>
        <time>2019-08-12T09:53:59Z</time>
      </trkpt>
      <trkpt lat="39.5798460" lon="-3.8652030">
        <ele>793.9</ele>
        <time>2019-08-12T09:54:00Z</time>
      </trkpt>
      <trkpt lat="39.5798630" lon="-3.8652450">
        <ele>794.1</ele>
        <time>2019-08-12T09:54:01Z</time>
      </trkpt>
      <trkpt lat="39.5798790" lon="-3.8652890">
        <ele>794.2</ele>
        <time>2019-08-12T09:54:02Z</time>
      </trkpt>
      <trkpt lat="39.5798920" lon="-3.8653340">
        <ele>794.3</ele>
        <time>2019-08-12T09:54:03Z</time>
      </trkpt>
      <trkpt lat="39.5799040" lon="-3.8653780">
        <ele>794.4</ele>
        <time>2019-08-12T09:54:04Z</time>
      </trkpt>
      <trkpt lat="39.5799150" lon="-3.8654210">
        <ele>794.6</ele>
        <time>2019-08-12T09:54:05Z</time>
      </trkpt>
      <trkpt lat="39.5799250" lon="-3.8654630">
        <ele>794.7</ele>
        <time>2019-08-12T09:54:06Z</time>
      </trkpt>
      <trkpt lat="39.5799340" lon="-3.8655040">
        <ele>795.1</ele>
        <time>2019-08-12T09:54:07Z</time>
      </trkpt>
      <trkpt lat="39.5799440" lon="-3.8655440">
        <ele>795.3</ele>
        <time>2019-08-12T09:54:08Z</time>
      </trkpt>
      <trkpt lat="39.5799530" lon="-3.8655830">
        <ele>795.4</ele>
        <time>2019-08-12T09:54:09Z</time>
      </trkpt>
      <trkpt lat="39.5799630" lon="-3.8656220">
        <ele>795.6</ele>
        <time>2019-08-12T09:54:10Z</time>
      </trkpt>
      <trkpt lat="39.5799720" lon="-3.8656600">
        <ele>795.8</ele>
        <time>2019-08-12T09:54:11Z</time>
      </trkpt>
      <trkpt lat="39.5799820" lon="-3.8656990">
        <ele>795.9</ele>
        <time>2019-08-12T09:54:12Z</time>
      </trkpt>
      <trkpt lat="39.5799930" lon="-3.8657380">
        <ele>796.1</ele>
        <time>2019-08-12T09:54:13Z</time>
      </trkpt>
      <trkpt lat="39.5800030" lon="-3.8657760">
        <ele>796.2</ele>
        <time>2019-08-12T09:54:14Z</time>
      </trkpt>
      <trkpt lat="39.5800130" lon="-3.8658150">
        <ele>796.3</ele>
        <time>2019-08-12T09:54:15Z</time>
      </trkpt>
      <trkpt lat="39.5800240" lon="-3.8658530">
        <ele>796.5</ele>
        <time>2019-08-12T09:54:16Z</time>
      </trkpt>
      <trkpt lat="39.5800350" lon="-3.8658920">
        <ele>796.7</ele>
        <time>2019-08-12T09:54:17Z</time>
      </trkpt>
      <trkpt lat="39.5800460" lon="-3.8659300">
        <ele>796.9</ele>
        <time>2019-08-12T09:54:18Z</time>
      </trkpt>
      <trkpt lat="39.5800560" lon="-3.8659680">
        <ele>797.1</ele>
        <time>2019-08-12T09:54:19Z</time>
      </trkpt>
      <trkpt lat="39.5800670" lon="-3.8660060">
        <ele>797.3</ele>
        <time>2019-08-12T09:54:20Z</time>
      </trkpt>
      <trkpt lat="39.5800780" lon="-3.8660440">
        <ele>797.5</ele>
        <time>2019-08-12T09:54:21Z</time>
      </trkpt>
      <trkpt lat="39.5800890" lon="-3.8660820">
        <ele>797.8</ele>
        <time>2019-08-12T09:54:22Z</time>
      </trkpt>
      <trkpt lat="39.5801000" lon="-3.8661200">
        <ele>798.0</ele>
        <time>2019-08-12T09:54:23Z</time>
      </trkpt>
      <trkpt lat="39.5801110" lon="-3.8661570">
        <ele>798.3</ele>
        <time>2019-08-12T09:54:24Z</time>
      </trkpt>
      <trkpt lat="39.5801220" lon="-3.8661950">
        <ele>798.5</ele>
        <time>2019-08-12T09:54:25Z</time>
      </trkpt>
      <trkpt lat="39.5801330" lon="-3.8662320">
        <ele>798.6</ele>
        <time>2019-08-12T09:54:26Z</time>
      </trkpt>
      <trkpt lat="39.5801440" lon="-3.8662700">
        <ele>798.8</ele>
        <time>2019-08-12T09:54:27Z</time>
      </trkpt>
      <trkpt lat="39.5801550" lon="-3.8663070">
        <ele>798.9</ele>
        <time>2019-08-12T09:54:28Z</time>
      </trkpt>
      <trkpt lat="39.5801650" lon="-3.8663440">
        <ele>799.0</ele>
        <time>2019-08-12T09:54:29Z</time>
      </trkpt>
      <trkpt lat="39.5801760" lon="-3.8663810">
        <ele>799.2</ele>
        <time>2019-08-12T09:54:30Z</time>
      </trkpt>
      <trkpt lat="39.5801860" lon="-3.8664180">
        <ele>799.3</ele>
        <time>2019-08-12T09:54:31Z</time>
      </trkpt>
      <trkpt lat="39.5801970" lon="-3.8664540">
        <ele>799.4</ele>
        <time>2019-08-12T09:54:32Z</time>
      </trkpt>
      <trkpt lat="39.5802070" lon="-3.8664910">
        <ele>799.5</ele>
        <time>2019-08-12T09:54:33Z</time>
      </trkpt>
      <trkpt lat="39.5802170" lon="-3.8665280">
        <ele>799.6</ele>
        <time>2019-08-12T09:54:34Z</time>
      </trkpt>
      <trkpt lat="39.5802280" lon="-3.8665650">
        <ele>799.8</ele>
        <time>2019-08-12T09:54:35Z</time>
      </trkpt>
      <trkpt lat="39.5802380" lon="-3.8666010">
        <ele>799.9</ele>
        <time>2019-08-12T09:54:36Z</time>
      </trkpt>
      <trkpt lat="39.5802490" lon="-3.8666380">
        <ele>800.0</ele>
        <time>2019-08-12T09:54:37Z</time>
      </trkpt>
      <trkpt lat="39.5802600" lon="-3.8666750">
        <ele>800.2</ele>
        <time>2019-08-12T09:54:38Z</time>
      </trkpt>
      <trkpt lat="39.5802700" lon="-3.8667120">
        <ele>800.3</ele>
        <time>2019-08-12T09:54:39Z</time>
      </trkpt>
      <trkpt lat="39.5802810" lon="-3.8667490">
        <ele>800.5</ele>
        <time>2019-08-12T09:54:40Z</time>
      </trkpt>
      <trkpt lat="39.5802920" lon="-3.8667860">
        <ele>800.7</ele>
        <time>2019-08-12T09:54:41Z</time>
      </trkpt>
      <trkpt lat="39.5803040" lon="-3.8668240">
        <ele>800.9</ele>
        <time>2019-08-12T09:54:42Z</time>
      </trkpt>
      <trkpt lat="39.5803150" lon="-3.8668610">
        <ele>801.0</ele>
        <time>2019-08-12T09:54:43Z</time>
      </trkpt>
      <trkpt lat="39.5803270" lon="-3.8668990">
        <ele>801.2</ele>
        <time>2019-08-12T09:54:44Z</time>
      </trkpt>
      <trkpt lat="39.5803390" lon="-3.8669370">
        <ele>801.3</ele>
        <time>2019-08-12T09:54:45Z</time>
      </trkpt>
      <trkpt lat="39.5803510" lon="-3.8669740">
        <ele>801.5</ele>
        <time>2019-08-12T09:54:46Z</time>
      </trkpt>
      <trkpt lat="39.5803630" lon="-3.8670100">
        <ele>801.6</ele>
        <time>2019-08-12T09:54:47Z</time>
      </trkpt>
      <trkpt lat="39.5803740" lon="-3.8670450">
        <ele>801.8</ele>
        <time>2019-08-12T09:54:48Z</time>
      </trkpt>
      <trkpt lat="39.5803860" lon="-3.8670800">
        <ele>801.9</ele>
        <time>2019-08-12T09:54:49Z</time>
      </trkpt>
      <trkpt lat="39.5803980" lon="-3.8671140">
        <ele>802.1</ele>
        <time>2019-08-12T09:54:50Z</time>
      </trkpt>
      <trkpt lat="39.5804100" lon="-3.8671470">
        <ele>802.3</ele>
        <time>2019-08-12T09:54:51Z</time>
      </trkpt>
      <trkpt lat="39.5804220" lon="-3.8671800">
        <ele>802.4</ele>
        <time>2019-08-12T09:54:52Z</time>
      </trkpt>
      <trkpt lat="39.5804350" lon="-3.8672130">
        <ele>802.6</ele>
        <time>2019-08-12T09:54:53Z</time>
      </trkpt>
      <trkpt lat="39.5804470" lon="-3.8672450">
        <ele>802.8</ele>
        <time>2019-08-12T09:54:54Z</time>
      </trkpt>
      <trkpt lat="39.5804590" lon="-3.8672770">
        <ele>803.0</ele>
        <time>2019-08-12T09:54:55Z</time>
      </trkpt>
      <trkpt lat="39.5804720" lon="-3.8673080">
        <ele>803.2</ele>
        <time>2019-08-12T09:54:56Z</time>
      </trkpt>
      <trkpt lat="39.5804850" lon="-3.8673390">
        <ele>803.4</ele>
        <time>2019-08-12T09:54:57Z</time>
      </trkpt>
      <trkpt lat="39.5804970" lon="-3.8673700">
        <ele>803.6</ele>
        <time>2019-08-12T09:54:58Z</time>
      </trkpt>
      <trkpt lat="39.5805100" lon="-3.8674010">
        <ele>803.8</ele>
        <time>2019-08-12T09:54:59Z</time>
      </trkpt>
      <trkpt lat="39.5805240" lon="-3.8674310">
        <ele>804.0</ele>
        <time>2019-08-12T09:55:00Z</time>
      </trkpt>
      <trkpt lat="39.5805370" lon="-3.8674620">
        <ele>804.2</ele>
        <time>2019-08-12T09:55:01Z</time>
      </trkpt>
      <trkpt lat="39.5805510" lon="-3.8674920">
        <ele>804.3</ele>
        <time>2019-08-12T09:55:02Z</time>
      </trkpt>
      <trkpt lat="39.5805650" lon="-3.8675230">
        <ele>804.5</ele>
        <time>2019-08-12T09:55:03Z</time>
      </trkpt>
      <trkpt lat="39.5805790" lon="-3.8675530">
        <ele>804.6</ele>
        <time>2019-08-12T09:55:04Z</time>
      </trkpt>
      <trkpt lat="39.5805940" lon="-3.8675840">
        <ele>804.8</ele>
        <time>2019-08-12T09:55:05Z</time>
      </trkpt>
      <trkpt lat="39.5806090" lon="-3.8676150">
        <ele>804.9</ele>
        <time>2019-08-12T09:55:06Z</time>
      </trkpt>
      <trkpt lat="39.5806240" lon="-3.8676460">
        <ele>805.0</ele>
        <time>2019-08-12T09:55:07Z</time>
      </trkpt>
      <trkpt lat="39.5806390" lon="-3.8676780">
        <ele>805.1</ele>
        <time>2019-08-12T09:55:08Z</time>
      </trkpt>
      <trkpt lat="39.5806540" lon="-3.8677090">
        <ele>805.2</ele>
        <time>2019-08-12T09:55:09Z</time>
      </trkpt>
      <trkpt lat="39.5806690" lon="-3.8677410">
        <ele>805.3</ele>
        <time>2019-08-12T09:55:10Z</time>
      </trkpt>
      <trkpt lat="39.5806840" lon="-3.8677720">
        <ele>805.4</ele>
        <time>2019-08-12T09:55:11Z</time>
      </trkpt>
      <trkpt lat="39.5806980" lon="-3.8678040">
        <ele>805.4</ele>
        <time>2019-08-12T09:55:12Z</time>
      </trkpt>
      <trkpt lat="39.5807120" lon="-3.8678360">
        <ele>805.5</ele>
        <time>2019-08-12T09:55:13Z</time>
      </trkpt>
      <trkpt lat="39.5807250" lon="-3.8678670">
        <ele>805.5</ele>
        <time>2019-08-12T09:55:14Z</time>
      </trkpt>
      <trkpt lat="39.5807380" lon="-3.8678990">
        <ele>805.5</ele>
        <time>2019-08-12T09:55:15Z</time>
      </trkpt>
      <trkpt lat="39.5807500" lon="-3.8679310">
        <ele>805.6</ele>
        <time>2019-08-12T09:55:16Z</time>
      </trkpt>
      <trkpt lat="39.5807610" lon="-3.8679630">
        <ele>805.8</ele>
        <time>2019-08-12T09:55:17Z</time>
      </trkpt>
      <trkpt lat="39.5807700" lon="-3.8679950">
        <ele>806.0</ele>
        <time>2019-08-12T09:55:18Z</time>
      </trkpt>
      <trkpt lat="39.5807790" lon="-3.8680260">
        <ele>806.2</ele>
        <time>2019-08-12T09:55:19Z</time>
      </trkpt>
      <trkpt lat="39.5807870" lon="-3.8680580">
        <ele>806.4</ele>
        <time>2019-08-12T09:55:20Z</time>
      </trkpt>
      <trkpt lat="39.5807930" lon="-3.8680890">
        <ele>806.6</ele>
        <time>2019-08-12T09:55:21Z</time>
      </trkpt>
      <trkpt lat="39.5807980" lon="-3.8681210">
        <ele>806.7</ele>
        <time>2019-08-12T09:55:22Z</time>
      </trkpt>
      <trkpt lat="39.5808010" lon="-3.8681520">
        <ele>806.9</ele>
        <time>2019-08-12T09:55:23Z</time>
      </trkpt>
      <trkpt lat="39.5808020" lon="-3.8681830">
        <ele>807.0</ele>
        <time>2019-08-12T09:55:24Z</time>
      </trkpt>
      <trkpt lat="39.5808030" lon="-3.8682140">
        <ele>807.1</ele>
        <time>2019-08-12T09:55:25Z</time>
      </trkpt>
      <trkpt lat="39.5808030" lon="-3.8682450">
        <ele>807.1</ele>
        <time>2019-08-12T09:55:26Z</time>
      </trkpt>
      <trkpt lat="39.5808040" lon="-3.8682770">
        <ele>807.3</ele>
        <time>2019-08-12T09:55:27Z</time>
      </trkpt>
      <trkpt lat="39.5808070" lon="-3.8683080">
        <ele>807.5</ele>
        <time>2019-08-12T09:55:28Z</time>
      </trkpt>
      <trkpt lat="39.5808110" lon="-3.8683400">
        <ele>807.7</ele>
        <time>2019-08-12T09:55:29Z</time>
      </trkpt>
      <trkpt lat="39.5808170" lon="-3.8683720">
        <ele>807.9</ele>
        <time>2019-08-12T09:55:30Z</time>
      </trkpt>
      <trkpt lat="39.5808230" lon="-3.8684030">
        <ele>808.0</ele>
        <time>2019-08-12T09:55:31Z</time>
      </trkpt>
      <trkpt lat="39.5808300" lon="-3.8684320">
        <ele>808.1</ele>
        <time>2019-08-12T09:55:32Z</time>
      </trkpt>
      <trkpt lat="39.5808360" lon="-3.8684580">
        <ele>808.1</ele>
        <time>2019-08-12T09:55:33Z</time>
      </trkpt>
      <trkpt lat="39.5808410" lon="-3.8684810">
        <ele>808.2</ele>
        <time>2019-08-12T09:55:34Z</time>
      </trkpt>
      <trkpt lat="39.5808440" lon="-3.8685000">
        <ele>808.2</ele>
        <time>2019-08-12T09:55:35Z</time>
      </trkpt>
      <trkpt lat="39.5808460" lon="-3.8685170">
        <ele>808.3</ele>
        <time>2019-08-12T09:55:36Z</time>
      </trkpt>
      <trkpt lat="39.5808470" lon="-3.8685210">
        <ele>808.3</ele>
        <time>2019-08-12T09:55:37Z</time>
      </trkpt>
      <trkpt lat="39.5808470" lon="-3.8685250">
        <ele>808.3</ele>
        <time>2019-08-12T09:55:38Z</time>
      </trkpt>
      <trkpt lat="39.5808490" lon="-3.8685310">
        <ele>808.3</ele>
        <time>2019-08-12T09:55:39Z</time>
      </trkpt>
      <trkpt lat="39.5808510" lon="-3.8685380">
        <ele>808.3</ele>
        <time>2019-08-12T09:55:40Z</time>
      </trkpt>
      <trkpt lat="39.5808540" lon="-3.8685480">
        <ele>808.4</ele>
        <time>2019-08-12T09:55:41Z</time>
      </trkpt>
      <trkpt lat="39.5808580" lon="-3.8685590">
        <ele>808.4</ele>
        <time>2019-08-12T09:55:42Z</time>
      </trkpt>
      <trkpt lat="39.5808620" lon="-3.8685730">
        <ele>808.4</ele>
        <time>2019-08-12T09:55:43Z</time>
      </trkpt>
      <trkpt lat="39.5808670" lon="-3.8685880">
        <ele>808.5</ele>
        <time>2019-08-12T09:55:44Z</time>
      </trkpt>
      <trkpt lat="39.5808730" lon="-3.8686050">
        <ele>808.5</ele>
        <time>2019-08-12T09:55:45Z</time>
      </trkpt>
      <trkpt lat="39.5808790" lon="-3.8686240">
        <ele>808.6</ele>
        <time>2019-08-12T09:55:46Z</time>
      </trkpt>
      <trkpt lat="39.5808860" lon="-3.8686450">
        <ele>808.7</ele>
        <time>2019-08-12T09:55:47Z</time>
      </trkpt>
      <trkpt lat="39.5808930" lon="-3.8686670">
        <ele>808.8</ele>
        <time>2019-08-12T09:55:48Z</time>
      </trkpt>
      <trkpt lat="39.5809010" lon="-3.8686900">
        <ele>808.9</ele>
        <time>2019-08-12T09:55:49Z</time>
      </trkpt>
      <trkpt lat="39.5809090" lon="-3.8687150">
        <ele>809.0</ele>
        <time>2019-08-12T09:55:50Z</time>
      </trkpt>
      <trkpt lat="39.5809170" lon="-3.8687410">
        <ele>809.1</ele>
        <time>2019-08-12T09:55:51Z</time>
      </trkpt>
      <trkpt lat="39.5809260" lon="-3.8687680">
        <ele>809.3</ele>
        <time>2019-08-12T09:55:52Z</time>
      </trkpt>
      <trkpt lat="39.5809350" lon="-3.8687950">
        <ele>809.4</ele>
        <time>2019-08-12T09:55:53Z</time>
      </trkpt>
      <trkpt lat="39.5809450" lon="-3.8688230">
        <ele>809.7</ele>
        <time>2019-08-12T09:55:54Z</time>
      </trkpt>
      <trkpt lat="39.5809550" lon="-3.8688520">
        <ele>809.9</ele>
        <time>2019-08-12T09:55:55Z</time>
      </trkpt>
      <trkpt lat="39.5809650" lon="-3.8688810">
        <ele>810.1</ele>
        <time>2019-08-12T09:55:56Z</time>
      </trkpt>
      <trkpt lat="39.5809750" lon="-3.8689110">
        <ele>810.4</ele>
        <time>2019-08-12T09:55:57Z</time>
      </trkpt>
      <trkpt lat="39.5809850" lon="-3.8689400">
        <ele>810.7</ele>
        <time>2019-08-12T09:55:58Z</time>
      </trkpt>
      <trkpt lat="39.5809960" lon="-3.8689700">
        <ele>811.2</ele>
        <time>2019-08-12T09:55:59Z</time>
      </trkpt>
      <trkpt lat="39.5810060" lon="-3.8689990">
        <ele>811.5</ele>
        <time>2019-08-12T09:56:00Z</time>
      </trkpt>
      <trkpt lat="39.5810170" lon="-3.8690290">
        <ele>811.8</ele>
        <time>2019-08-12T09:56:01Z</time>
      </trkpt>
      <trkpt lat="39.5810280" lon="-3.8690580">
        <ele>812.1</ele>
        <time>2019-08-12T09:56:02Z</time>
      </trkpt>
      <trkpt lat="39.5810380" lon="-3.8690870">
        <ele>812.5</ele>
        <time>2019-08-12T09:56:03Z</time>
      </trkpt>
      <trkpt lat="39.5810490" lon="-3.8691170">
        <ele>812.8</ele>
        <time>2019-08-12T09:56:04Z</time>
      </trkpt>
      <trkpt lat="39.5810600" lon="-3.8691470">
        <ele>813.1</ele>
        <time>2019-08-12T09:56:05Z</time>
      </trkpt>
      <trkpt lat="39.5810710" lon="-3.8691770">
        <ele>813.4</ele>
        <time>2019-08-12T09:56:06Z</time>
      </trkpt>
      <trkpt lat="39.5810820" lon="-3.8692080">
        <ele>813.8</ele>
        <time>2019-08-12T09:56:07Z</time>
      </trkpt>
      <trkpt lat="39.5810920" lon="-3.8692400">
        <ele>814.1</ele>
        <time>2019-08-12T09:56:08Z</time>
      </trkpt>
      <trkpt lat="39.5811030" lon="-3.8692730">
        <ele>814.4</ele>
        <time>2019-08-12T09:56:09Z</time>
      </trkpt>
      <trkpt lat="39.5811140" lon="-3.8693060">
        <ele>814.7</ele>
        <time>2019-08-12T09:56:10Z</time>
      </trkpt>
      <trkpt lat="39.5811250" lon="-3.8693400">
        <ele>815.0</ele>
        <time>2019-08-12T09:56:11Z</time>
      </trkpt>
      <trkpt lat="39.5811370" lon="-3.8693730">
        <ele>815.4</ele>
        <time>2019-08-12T09:56:12Z</time>
      </trkpt>
      <trkpt lat="39.5811520" lon="-3.8694040">
        <ele>815.7</ele>
        <time>2019-08-12T09:56:13Z</time>
      </trkpt>
      <trkpt lat="39.5811680" lon="-3.8694320">
        <ele>815.9</ele>
        <time>2019-08-12T09:56:14Z</time>
      </trkpt>
      <trkpt lat="39.5811880" lon="-3.8694560">
        <ele>816.2</ele>
        <time>2019-08-12T09:56:15Z</time>
      </trkpt>
      <trkpt lat="39.5812090" lon="-3.8694780">
        <ele>816.4</ele>
        <time>2019-08-12T09:56:16Z</time>
      </trkpt>
      <trkpt lat="39.5812310" lon="-3.8694980">
        <ele>816.7</ele>
        <time>2019-08-12T09:56:17Z</time>
      </trkpt>
      <trkpt lat="39.5812540" lon="-3.8695190">
        <ele>817.0</ele>
        <time>2019-08-12T09:56:18Z</time>
      </trkpt>
      <trkpt lat="39.5812750" lon="-3.8695410">
        <ele>817.3</ele>
        <time>2019-08-12T09:56:19Z</time>
      </trkpt>
      <trkpt lat="39.5812960" lon="-3.8695650">
        <ele>817.5</ele>
        <time>2019-08-12T09:56:20Z</time>
      </trkpt>
      <trkpt lat="39.5813160" lon="-3.8695880">
        <ele>817.8</ele>
        <time>2019-08-12T09:56:21Z</time>
      </trkpt>
      <trkpt lat="39.5813370" lon="-3.8696100">
        <ele>818.0</ele>
        <time>2019-08-12T09:56:22Z</time>
      </trkpt>
      <trkpt lat="39.5813540" lon="-3.8696290">
        <ele>818.2</ele>
        <time>2019-08-12T09:56:23Z</time>
      </trkpt>
      <trkpt lat="39.5813650" lon="-3.8696430">
        <ele>818.3</ele>
        <time>2019-08-12T09:56:24Z</time>
      </trkpt>
      <trkpt lat="39.5813740" lon="-3.8696610">
        <ele>818.5</ele>
        <time>2019-08-12T09:56:25Z</time>
      </trkpt>
      <trkpt lat="39.5813760" lon="-3.8696700">
        <ele>818.6</ele>
        <time>2019-08-12T09:56:26Z</time>
      </trkpt>
      <trkpt lat="39.5813770" lon="-3.8696780">
        <ele>818.6</ele>
        <time>2019-08-12T09:56:27Z</time>
      </trkpt>
      <trkpt lat="39.5813790" lon="-3.8696870">
        <ele>818.7</ele>
        <time>2019-08-12T09:56:28Z</time>
      </trkpt>
      <trkpt lat="39.5813810" lon="-3.8696960">
        <ele>818.8</ele>
        <time>2019-08-12T09:56:29Z</time>
      </trkpt>
      <trkpt lat="39.5813820" lon="-3.8697200">
        <ele>818.9</ele>
        <time>2019-08-12T09:56:30Z</time>
      </trkpt>
      <trkpt lat="39.5813810" lon="-3.8697470">
        <ele>819.0</ele>
        <time>2019-08-12T09:56:31Z</time>
      </trkpt>
      <trkpt lat="39.5813760" lon="-3.8697760">
        <ele>819.0</ele>
        <time>2019-08-12T09:56:32Z</time>
      </trkpt>
      <trkpt lat="39.5813670" lon="-3.8698050">
        <ele>819.1</ele>
        <time>2019-08-12T09:56:33Z</time>
      </trkpt>
      <trkpt lat="39.5813560" lon="-3.8698340">
        <ele>819.2</ele>
        <time>2019-08-12T09:56:34Z</time>
      </trkpt>
      <trkpt lat="39.5813430" lon="-3.8698630">
        <ele>819.2</ele>
        <time>2019-08-12T09:56:35Z</time>
      </trkpt>
      <trkpt lat="39.5813310" lon="-3.8698930">
        <ele>819.3</ele>
        <time>2019-08-12T09:56:36Z</time>
      </trkpt>
      <trkpt lat="39.5813220" lon="-3.8699220">
        <ele>819.4</ele>
        <time>2019-08-12T09:56:37Z</time>
      </trkpt>
      <trkpt lat="39.5813160" lon="-3.8699520">
        <ele>819.5</ele>
        <time>2019-08-12T09:56:38Z</time>
      </trkpt>
      <trkpt lat="39.5813140" lon="-3.8699800">
        <ele>819.5</ele>
        <time>2019-08-12T09:56:39Z</time>
      </trkpt>
      <trkpt lat="39.5813190" lon="-3.8700070">
        <ele>819.7</ele>
        <time>2019-08-12T09:56:40Z</time>
      </trkpt>
      <trkpt lat="39.5813300" lon="-3.8700300">
        <ele>819.8</ele>
        <time>2019-08-12T09:56:41Z</time>
      </trkpt>
      <trkpt lat="39.5813480" lon="-3.8700500">
        <ele>820.0</ele>
        <time>2019-08-12T09:56:42Z</time>
      </trkpt>
      <trkpt lat="39.5813720" lon="-3.8700670">
        <ele>820.3</ele>
        <time>2019-08-12T09:56:43Z</time>
      </trkpt>
      <trkpt lat="39.5813990" lon="-3.8700810">
        <ele>820.5</ele>
        <time>2019-08-12T09:56:44Z</time>
      </trkpt>
      <trkpt lat="39.5814280" lon="-3.8700940">
        <ele>820.7</ele>
        <time>2019-08-12T09:56:45Z</time>
      </trkpt>
      <trkpt lat="39.5814540" lon="-3.8701070">
        <ele>821.0</ele>
        <time>2019-08-12T09:56:46Z</time>
      </trkpt>
      <trkpt lat="39.5814770" lon="-3.8701190">
        <ele>821.6</ele>
        <time>2019-08-12T09:56:47Z</time>
      </trkpt>
      <trkpt lat="39.5814970" lon="-3.8701330">
        <ele>821.6</ele>
        <time>2019-08-12T09:56:48Z</time>
      </trkpt>
      <trkpt lat="39.5815130" lon="-3.8701470">
        <ele>821.7</ele>
        <time>2019-08-12T09:56:49Z</time>
      </trkpt>
      <trkpt lat="39.5815270" lon="-3.8701640">
        <ele>821.8</ele>
        <time>2019-08-12T09:56:50Z</time>
      </trkpt>
      <trkpt lat="39.5815340" lon="-3.8701980">
        <ele>821.9</ele>
        <time>2019-08-12T09:56:51Z</time>
      </trkpt>
      <trkpt lat="39.5815320" lon="-3.8702120">
        <ele>821.9</ele>
        <time>2019-08-12T09:56:52Z</time>
      </trkpt>
      <trkpt lat="39.5815290" lon="-3.8702260">
        <ele>822.0</ele>
        <time>2019-08-12T09:56:53Z</time>
      </trkpt>
      <trkpt lat="39.5815260" lon="-3.8702400">
        <ele>822.0</ele>
        <time>2019-08-12T09:56:54Z</time>
      </trkpt>
      <trkpt lat="39.5815000" lon="-3.8702520">
        <ele>822.0</ele>
        <time>2019-08-12T09:56:55Z</time>
      </trkpt>
      <trkpt lat="39.5814710" lon="-3.8702660">
        <ele>821.9</ele>
        <time>2019-08-12T09:56:56Z</time>
      </trkpt>
      <trkpt lat="39.5814430" lon="-3.8702830">
        <ele>821.8</ele>
        <time>2019-08-12T09:56:57Z</time>
      </trkpt>
      <trkpt lat="39.5814180" lon="-3.8703040">
        <ele>821.7</ele>
        <time>2019-08-12T09:56:58Z</time>
      </trkpt>
      <trkpt lat="39.5813980" lon="-3.8703280">
        <ele>821.6</ele>
        <time>2019-08-12T09:56:59Z</time>
      </trkpt>
      <trkpt lat="39.5813860" lon="-3.8703550">
        <ele>821.6</ele>
        <time>2019-08-12T09:57:00Z</time>
      </trkpt>
      <trkpt lat="39.5813820" lon="-3.8703860">
        <ele>821.5</ele>
        <time>2019-08-12T09:57:01Z</time>
      </trkpt>
      <trkpt lat="39.5813850" lon="-3.8704190">
        <ele>821.5</ele>
        <time>2019-08-12T09:57:02Z</time>
      </trkpt>
      <trkpt lat="39.5813930" lon="-3.8704520">
        <ele>821.7</ele>
        <time>2019-08-12T09:57:03Z</time>
      </trkpt>
      <trkpt lat="39.5814080" lon="-3.8705000">
        <ele>821.8</ele>
        <time>2019-08-12T09:57:04Z</time>
      </trkpt>
      <trkpt lat="39.5814120" lon="-3.8705160">
        <ele>821.9</ele>
        <time>2019-08-12T09:57:05Z</time>
      </trkpt>
      <trkpt lat="39.5814210" lon="-3.8705440">
        <ele>821.9</ele>
        <time>2019-08-12T09:57:06Z</time>
      </trkpt>
      <trkpt lat="39.5814310" lon="-3.8705690">
        <ele>822.0</ele>
        <time>2019-08-12T09:57:07Z</time>
      </trkpt>
      <trkpt lat="39.5814410" lon="-3.8705910">
        <ele>822.1</ele>
        <time>2019-08-12T09:57:08Z</time>
      </trkpt>
      <trkpt lat="39.5814510" lon="-3.8706110">
        <ele>822.1</ele>
        <time>2019-08-12T09:57:09Z</time>
      </trkpt>
      <trkpt lat="39.5814640" lon="-3.8706270">
        <ele>822.2</ele>
        <time>2019-08-12T09:57:10Z</time>
      </trkpt>
      <trkpt lat="39.5814770" lon="-3.8706390">
        <ele>822.2</ele>
        <time>2019-08-12T09:57:11Z</time>
      </trkpt>
      <trkpt lat="39.5814930" lon="-3.8706480">
        <ele>822.3</ele>
        <time>2019-08-12T09:57:12Z</time>
      </trkpt>
      <trkpt lat="39.5815120" lon="-3.8706520">
        <ele>822.8</ele>
        <time>2019-08-12T09:57:13Z</time>
      </trkpt>
      <trkpt lat="39.5815330" lon="-3.8706530">
        <ele>822.9</ele>
        <time>2019-08-12T09:57:14Z</time>
      </trkpt>
      <trkpt lat="39.5815560" lon="-3.8706500">
        <ele>823.1</ele>
        <time>2019-08-12T09:57:15Z</time>
      </trkpt>
      <trkpt lat="39.5815800" lon="-3.8706460">
        <ele>823.2</ele>
        <time>2019-08-12T09:57:16Z</time>
      </trkpt>
      <trkpt lat="39.5816050" lon="-3.8706410">
        <ele>823.4</ele>
        <time>2019-08-12T09:57:17Z</time>
      </trkpt>
      <trkpt lat="39.5816300" lon="-3.8706370">
        <ele>823.6</ele>
        <time>2019-08-12T09:57:18Z</time>
      </trkpt>
      <trkpt lat="39.5816530" lon="-3.8706340">
        <ele>823.7</ele>
        <time>2019-08-12T09:57:19Z</time>
      </trkpt>
      <trkpt lat="39.5816750" lon="-3.8706340">
        <ele>823.9</ele>
        <time>2019-08-12T09:57:20Z</time>
      </trkpt>
      <trkpt lat="39.5816940" lon="-3.8706380">
        <ele>824.0</ele>
        <time>2019-08-12T09:57:21Z</time>
      </trkpt>
      <trkpt lat="39.5817090" lon="-3.8706480">
        <ele>824.1</ele>
        <time>2019-08-12T09:57:22Z</time>
      </trkpt>
      <trkpt lat="39.5817200" lon="-3.8706630">
        <ele>824.2</ele>
        <time>2019-08-12T09:57:23Z</time>
      </trkpt>
      <trkpt lat="39.5817260" lon="-3.8706860">
        <ele>824.2</ele>
        <time>2019-08-12T09:57:24Z</time>
      </trkpt>
      <trkpt lat="39.5817280" lon="-3.8707150">
        <ele>824.2</ele>
        <time>2019-08-12T09:57:25Z</time>
      </trkpt>
      <trkpt lat="39.5817280" lon="-3.8707460">
        <ele>824.3</ele>
        <time>2019-08-12T09:57:26Z</time>
      </trkpt>
      <trkpt lat="39.5817270" lon="-3.8707790">
        <ele>824.3</ele>
        <time>2019-08-12T09:57:27Z</time>
      </trkpt>
      <trkpt lat="39.5817270" lon="-3.8708110">
        <ele>824.3</ele>
        <time>2019-08-12T09:57:28Z</time>
      </trkpt>
      <trkpt lat="39.5817290" lon="-3.8708400">
        <ele>824.4</ele>
        <time>2019-08-12T09:57:29Z</time>
      </trkpt>
      <trkpt lat="39.5817320" lon="-3.8708660">
        <ele>824.4</ele>
        <time>2019-08-12T09:57:30Z</time>
      </trkpt>
      <trkpt lat="39.5817390" lon="-3.8708910">
        <ele>824.4</ele>
        <time>2019-08-12T09:57:31Z</time>
      </trkpt>
      <trkpt lat="39.5817470" lon="-3.8709160">
        <ele>824.5</ele>
        <time>2019-08-12T09:57:32Z</time>
      </trkpt>
      <trkpt lat="39.5817580" lon="-3.8709400">
        <ele>824.5</ele>
        <time>2019-08-12T09:57:33Z</time>
      </trkpt>
      <trkpt lat="39.5817740" lon="-3.8709800">
        <ele>824.6</ele>
        <time>2019-08-12T09:57:34Z</time>
      </trkpt>
      <trkpt lat="39.5817780" lon="-3.8709950">
        <ele>824.6</ele>
        <time>2019-08-12T09:57:35Z</time>
      </trkpt>
      <trkpt lat="39.5817830" lon="-3.8710280">
        <ele>824.6</ele>
        <time>2019-08-12T09:57:36Z</time>
      </trkpt>
      <trkpt lat="39.5817820" lon="-3.8710660">
        <ele>824.6</ele>
        <time>2019-08-12T09:57:37Z</time>
      </trkpt>
      <trkpt lat="39.5817740" lon="-3.8711100">
        <ele>824.6</ele>
        <time>2019-08-12T09:57:38Z</time>
      </trkpt>
      <trkpt lat="39.5817610" lon="-3.8711590">
        <ele>824.6</ele>
        <time>2019-08-12T09:57:39Z</time>
      </trkpt>
      <trkpt lat="39.5817490" lon="-3.8712100">
        <ele>824.5</ele>
        <time>2019-08-12T09:57:40Z</time>
      </trkpt>
      <trkpt lat="39.5817410" lon="-3.8712610">
        <ele>824.5</ele>
        <time>2019-08-12T09:57:41Z</time>
      </trkpt>
      <trkpt lat="39.5817410" lon="-3.8713100">
        <ele>824.5</ele>
        <time>2019-08-12T09:57:42Z</time>
      </trkpt>
      <trkpt lat="39.5817480" lon="-3.8713560">
        <ele>824.5</ele>
        <time>2019-08-12T09:57:43Z</time>
      </trkpt>
      <trkpt lat="39.5817590" lon="-3.8714020">
        <ele>824.5</ele>
        <time>2019-08-12T09:57:44Z</time>
      </trkpt>
      <trkpt lat="39.5817720" lon="-3.8714470">
        <ele>824.5</ele>
        <time>2019-08-12T09:57:45Z</time>
      </trkpt>
      <trkpt lat="39.5817840" lon="-3.8714920">
        <ele>824.5</ele>
        <time>2019-08-12T09:57:46Z</time>
      </trkpt>
      <trkpt lat="39.5817930" lon="-3.8715380">
        <ele>824.5</ele>
        <time>2019-08-12T09:57:47Z</time>
      </trkpt>
      <trkpt lat="39.5818010" lon="-3.8715840">
        <ele>824.6</ele>
        <time>2019-08-12T09:57:48Z</time>
      </trkpt>
      <trkpt lat="39.5818080" lon="-3.8716290">
        <ele>824.6</ele>
        <time>2019-08-12T09:57:49Z</time>
      </trkpt>
      <trkpt lat="39.5818140" lon="-3.8716720">
        <ele>824.6</ele>
        <time>2019-08-12T09:57:50Z</time>
      </trkpt>
      <trkpt lat="39.5818200" lon="-3.8717140">
        <ele>824.6</ele>
        <time>2019-08-12T09:57:51Z</time>
      </trkpt>
      <trkpt lat="39.5818270" lon="-3.8717530">
        <ele>824.6</ele>
        <time>2019-08-12T09:57:52Z</time>
      </trkpt>
      <trkpt lat="39.5818350" lon="-3.8717890">
        <ele>824.7</ele>
        <time>2019-08-12T09:57:53Z</time>
      </trkpt>
      <trkpt lat="39.5818420" lon="-3.8718220">
        <ele>824.8</ele>
        <time>2019-08-12T09:57:54Z</time>
      </trkpt>
      <trkpt lat="39.5818500" lon="-3.8718530">
        <ele>825.0</ele>
        <time>2019-08-12T09:57:55Z</time>
      </trkpt>
      <trkpt lat="39.5818570" lon="-3.8718810">
        <ele>825.2</ele>
        <time>2019-08-12T09:57:56Z</time>
      </trkpt>
      <trkpt lat="39.5818640" lon="-3.8719060">
        <ele>825.3</ele>
        <time>2019-08-12T09:57:57Z</time>
      </trkpt>
      <trkpt lat="39.5818710" lon="-3.8719280">
        <ele>825.5</ele>
        <time>2019-08-12T09:57:58Z</time>
      </trkpt>
      <trkpt lat="39.5818780" lon="-3.8719470">
        <ele>825.6</ele>
        <time>2019-08-12T09:57:59Z</time>
      </trkpt>
      <trkpt lat="39.5818830" lon="-3.8719640">
        <ele>825.6</ele>
        <time>2019-08-12T09:58:00Z</time>
      </trkpt>
      <trkpt lat="39.5818880" lon="-3.8719760">
        <ele>825.6</ele>
        <time>2019-08-12T09:58:01Z</time>
      </trkpt>
      <trkpt lat="39.5818920" lon="-3.8719870">
        <ele>825.5</ele>
        <time>2019-08-12T09:58:02Z</time>
      </trkpt>
      <trkpt lat="39.5818960" lon="-3.8719940">
        <ele>825.5</ele>
        <time>2019-08-12T09:58:03Z</time>
      </trkpt>
      <trkpt lat="39.5818980" lon="-3.8720000">
        <ele>825.5</ele>
        <time>2019-08-12T09:58:04Z</time>
      </trkpt>
      <trkpt lat="39.5819010" lon="-3.8720040">
        <ele>825.5</ele>
        <time>2019-08-12T09:58:05Z</time>
      </trkpt>
      <trkpt lat="39.5819030" lon="-3.8720060">
        <ele>825.4</ele>
        <time>2019-08-12T09:58:06Z</time>
      </trkpt>
      <trkpt lat="39.5819040" lon="-3.8720080">
        <ele>825.4</ele>
        <time>2019-08-12T09:58:07Z</time>
      </trkpt>
      <trkpt lat="39.5819050" lon="-3.8720090">
        <ele>825.4</ele>
        <time>2019-08-12T09:58:08Z</time>
      </trkpt>
      <trkpt lat="39.5819060" lon="-3.8720090">
        <ele>825.4</ele>
        <time>2019-08-12T09:58:09Z</time>
      </trkpt>
      <trkpt lat="39.5819070" lon="-3.8720100">
        <ele>825.4</ele>
        <time>2019-08-12T09:58:10Z</time>
      </trkpt>
      <trkpt lat="39.5819080" lon="-3.8720100">
        <ele>825.4</ele>
        <time>2019-08-12T09:58:11Z</time>
      </trkpt>
      <trkpt lat="39.5819080" lon="-3.8720110">
        <ele>825.4</ele>
        <time>2019-08-12T09:58:12Z</time>
      </trkpt>
      <trkpt lat="39.5819080" lon="-3.8720110">
        <ele>825.4</ele>
        <time>2019-08-12T09:58:13Z</time>
      </trkpt>
      <trkpt lat="39.5819080" lon="-3.8720120">
        <ele>825.4</ele>
        <time>2019-08-12T09:58:14Z</time>
      </trkpt>
      <trkpt lat="39.5819080" lon="-3.8720120">
        <ele>825.4</ele>
        <time>2019-08-12T09:58:15Z</time>
      </trkpt>
      <trkpt lat="39.5819080" lon="-3.8720120">
        <ele>825.4</ele>
        <time>2019-08-12T09:58:16Z</time>
      </trkpt>
      <trkpt lat="39.5819080" lon="-3.8720120">
        <ele>825.4</ele>
        <time>2019-08-12T09:58:17Z</time>
      </trkpt>
      <trkpt lat="39.5819080" lon="-3.8720120">
        <ele>825.4</ele>
        <time>2019-08-12T09:58:18Z</time>
      </trkpt>
      <trkpt lat="39.5819080" lon="-3.8720110">
        <ele>825.4</ele>
        <time>2019-08-12T09:58:19Z</time>
      </trkpt>
      <trkpt lat="39.5819080" lon="-3.8720110">
        <ele>825.4</ele>
        <time>2019-08-12T09:58:20Z</time>
      </trkpt>
      <trkpt lat="39.5819080" lon="-3.8720100">
        <ele>825.4</ele>
        <time>2019-08-12T09:58:21Z</time>
      </trkpt>
      <trkpt lat="39.5819080" lon="-3.8720100">
        <ele>825.4</ele>
        <time>2019-08-12T09:58:22Z</time>
      </trkpt>
      <trkpt lat="39.5819080" lon="-3.8720090">
        <ele>825.4</ele>
        <time>2019-08-12T09:58:23Z</time>
      </trkpt>
      <trkpt lat="39.5819080" lon="-3.8720090">
        <ele>825.4</ele>
        <time>2019-08-12T09:58:24Z</time>
      </trkpt>
      <trkpt lat="39.5819080" lon="-3.8720100">
        <ele>825.4</ele>
        <time>2019-08-12T09:58:25Z</time>
      </trkpt>
      <trkpt lat="39.5819080" lon="-3.8720110">
        <ele>825.4</ele>
        <time>2019-08-12T09:58:26Z</time>
      </trkpt>
      <trkpt lat="39.5819080" lon="-3.8720130">
        <ele>825.4</ele>
        <time>2019-08-12T09:58:27Z</time>
      </trkpt>
      <trkpt lat="39.5819090" lon="-3.8720150">
        <ele>825.4</ele>
        <time>2019-08-12T09:58:28Z</time>
      </trkpt>
      <trkpt lat="39.5819090" lon="-3.8720170">
        <ele>825.4</ele>
        <time>2019-08-12T09:58:29Z</time>
      </trkpt>
      <trkpt lat="39.5819110" lon="-3.8720190">
        <ele>825.3</ele>
        <time>2019-08-12T09:58:30Z</time>
      </trkpt>
      <trkpt lat="39.5819140" lon="-3.8720180">
        <ele>825.3</ele>
        <time>2019-08-12T09:58:31Z</time>
      </trkpt>
      <trkpt lat="39.5819180" lon="-3.8720150">
        <ele>825.3</ele>
        <time>2019-08-12T09:58:32Z</time>
      </trkpt>
      <trkpt lat="39.5819240" lon="-3.8720080">
        <ele>825.3</ele>
        <time>2019-08-12T09:58:33Z</time>
      </trkpt>
      <trkpt lat="39.5819290" lon="-3.8719970">
        <ele>825.2</ele>
        <time>2019-08-12T09:58:34Z</time>
      </trkpt>
      <trkpt lat="39.5819300" lon="-3.8719810">
        <ele>825.1</ele>
        <time>2019-08-12T09:58:35Z</time>
      </trkpt>
      <trkpt lat="39.5819250" lon="-3.8719590">
        <ele>825.0</ele>
        <time>2019-08-12T09:58:36Z</time>
      </trkpt>
      <trkpt lat="39.5819110" lon="-3.8719310">
        <ele>824.9</ele>
        <time>2019-08-12T09:58:37Z</time>
      </trkpt>
      <trkpt lat="39.5818920" lon="-3.8718990">
        <ele>824.7</ele>
        <time>2019-08-12T09:58:38Z</time>
      </trkpt>
      <trkpt lat="39.5818690" lon="-3.8718640">
        <ele>824.6</ele>
        <time>2019-08-12T09:58:39Z</time>
      </trkpt>
      <trkpt lat="39.5818460" lon="-3.8718290">
        <ele>824.6</ele>
        <time>2019-08-12T09:58:40Z</time>
      </trkpt>
      <trkpt lat="39.5818270" lon="-3.8717950">
        <ele>824.6</ele>
        <time>2019-08-12T09:58:41Z</time>
      </trkpt>
      <trkpt lat="39.5818130" lon="-3.8717630">
        <ele>824.6</ele>
        <time>2019-08-12T09:58:42Z</time>
      </trkpt>
      <trkpt lat="39.5818040" lon="-3.8717330">
        <ele>824.6</ele>
        <time>2019-08-12T09:58:43Z</time>
      </trkpt>
      <trkpt lat="39.5817990" lon="-3.8717040">
        <ele>824.6</ele>
        <time>2019-08-12T09:58:44Z</time>
      </trkpt>
      <trkpt lat="39.5817950" lon="-3.8716730">
        <ele>824.6</ele>
        <time>2019-08-12T09:58:45Z</time>
      </trkpt>
      <trkpt lat="39.5817910" lon="-3.8716410">
        <ele>824.5</ele>
        <time>2019-08-12T09:58:46Z</time>
      </trkpt>
      <trkpt lat="39.5817880" lon="-3.8716070">
        <ele>824.5</ele>
        <time>2019-08-12T09:58:47Z</time>
      </trkpt>
      <trkpt lat="39.5817840" lon="-3.8715720">
        <ele>824.5</ele>
        <time>2019-08-12T09:58:48Z</time>
      </trkpt>
      <trkpt lat="39.5817790" lon="-3.8715370">
        <ele>824.5</ele>
        <time>2019-08-12T09:58:49Z</time>
      </trkpt>
      <trkpt lat="39.5817740" lon="-3.8715010">
        <ele>824.5</ele>
        <time>2019-08-12T09:58:50Z</time>
      </trkpt>
      <trkpt lat="39.5817680" lon="-3.8714660">
        <ele>824.5</ele>
        <time>2019-08-12T09:58:51Z</time>
      </trkpt>
      <trkpt lat="39.5817620" lon="-3.8714310">
        <ele>824.5</ele>
        <time>2019-08-12T09:58:52Z</time>
      </trkpt>
      <trkpt lat="39.5817560" lon="-3.8713960">
        <ele>824.5</ele>
        <time>2019-08-12T09:58:53Z</time>
      </trkpt>
      <trkpt lat="39.5817520" lon="-3.8713610">
        <ele>824.5</ele>
        <time>2019-08-12T09:58:54Z</time>
      </trkpt>
      <trkpt lat="39.5817490" lon="-3.8713250">
        <ele>824.5</ele>
        <time>2019-08-12T09:58:55Z</time>
      </trkpt>
      <trkpt lat="39.5817490" lon="-3.8712890">
        <ele>824.5</ele>
        <time>2019-08-12T09:58:56Z</time>
      </trkpt>
      <trkpt lat="39.5817510" lon="-3.8712540">
        <ele>824.5</ele>
        <time>2019-08-12T09:58:57Z</time>
      </trkpt>
      <trkpt lat="39.5817550" lon="-3.8712210">
        <ele>824.5</ele>
        <time>2019-08-12T09:58:58Z</time>
      </trkpt>
      <trkpt lat="39.5817610" lon="-3.8711910">
        <ele>824.6</ele>
        <time>2019-08-12T09:58:59Z</time>
      </trkpt>
      <trkpt lat="39.5817700" lon="-3.8711650">
        <ele>824.6</ele>
        <time>2019-08-12T09:59:00Z</time>
      </trkpt>
      <trkpt lat="39.5817820" lon="-3.8711440">
        <ele>824.7</ele>
        <time>2019-08-12T09:59:01Z</time>
      </trkpt>
      <trkpt lat="39.5817970" lon="-3.8711280">
        <ele>824.8</ele>
        <time>2019-08-12T09:59:02Z</time>
      </trkpt>
      <trkpt lat="39.5818140" lon="-3.8711190">
        <ele>824.9</ele>
        <time>2019-08-12T09:59:03Z</time>
      </trkpt>
      <trkpt lat="39.5818350" lon="-3.8711180">
        <ele>824.9</ele>
        <time>2019-08-12T09:59:04Z</time>
      </trkpt>
      <trkpt lat="39.5818590" lon="-3.8711230">
        <ele>825.0</ele>
        <time>2019-08-12T09:59:05Z</time>
      </trkpt>
      <trkpt lat="39.5818860" lon="-3.8711360">
        <ele>825.1</ele>
        <time>2019-08-12T09:59:06Z</time>
      </trkpt>
      <trkpt lat="39.5819150" lon="-3.8711540">
        <ele>825.2</ele>
        <time>2019-08-12T09:59:07Z</time>
      </trkpt>
      <trkpt lat="39.5819430" lon="-3.8711670">
        <ele>825.3</ele>
        <time>2019-08-12T09:59:08Z</time>
      </trkpt>
      <trkpt lat="39.5819660" lon="-3.8711670">
        <ele>825.4</ele>
        <time>2019-08-12T09:59:09Z</time>
      </trkpt>
      <trkpt lat="39.5819830" lon="-3.8711560">
        <ele>825.4</ele>
        <time>2019-08-12T09:59:10Z</time>
      </trkpt>
      <trkpt lat="39.5819960" lon="-3.8711410">
        <ele>825.5</ele>
        <time>2019-08-12T09:59:11Z</time>
      </trkpt>
      <trkpt lat="39.5820060" lon="-3.8711240">
        <ele>825.5</ele>
        <time>2019-08-12T09:59:12Z</time>
      </trkpt>
      <trkpt lat="39.5820160" lon="-3.8711100">
        <ele>825.6</ele>
        <time>2019-08-12T09:59:13Z</time>
      </trkpt>
      <trkpt lat="39.5820290" lon="-3.8711010">
        <ele>825.6</ele>
        <time>2019-08-12T09:59:14Z</time>
      </trkpt>
      <trkpt lat="39.5820450" lon="-3.8710980">
        <ele>825.7</ele>
        <time>2019-08-12T09:59:15Z</time>
      </trkpt>
      <trkpt lat="39.5820620" lon="-3.8711000">
        <ele>826.2</ele>
        <time>2019-08-12T09:59:16Z</time>
      </trkpt>
      <trkpt lat="39.5820810" lon="-3.8711080">
        <ele>826.3</ele>
        <time>2019-08-12T09:59:17Z</time>
      </trkpt>
      <trkpt lat="39.5821020" lon="-3.8711230">
        <ele>826.4</ele>
        <time>2019-08-12T09:59:18Z</time>
      </trkpt>
      <trkpt lat="39.5821230" lon="-3.8711440">
        <ele>826.5</ele>
        <time>2019-08-12T09:59:19Z</time>
      </trkpt>
      <trkpt lat="39.5821440" lon="-3.8711700">
        <ele>826.7</ele>
        <time>2019-08-12T09:59:20Z</time>
      </trkpt>
      <trkpt lat="39.5821660" lon="-3.8711980">
        <ele>826.8</ele>
        <time>2019-08-12T09:59:21Z</time>
      </trkpt>
      <trkpt lat="39.5821880" lon="-3.8712250">
        <ele>827.0</ele>
        <time>2019-08-12T09:59:22Z</time>
      </trkpt>
      <trkpt lat="39.5822100" lon="-3.8712490">
        <ele>827.1</ele>
        <time>2019-08-12T09:59:23Z</time>
      </trkpt>
      <trkpt lat="39.5822320" lon="-3.8712700">
        <ele>827.2</ele>
        <time>2019-08-12T09:59:24Z</time>
      </trkpt>
      <trkpt lat="39.5822530" lon="-3.8712880">
        <ele>827.4</ele>
        <time>2019-08-12T09:59:25Z</time>
      </trkpt>
      <trkpt lat="39.5822720" lon="-3.8713030">
        <ele>827.5</ele>
        <time>2019-08-12T09:59:26Z</time>
      </trkpt>
      <trkpt lat="39.5822890" lon="-3.8713150">
        <ele>827.6</ele>
        <time>2019-08-12T09:59:27Z</time>
      </trkpt>
      <trkpt lat="39.5823040" lon="-3.8713240">
        <ele>827.7</ele>
        <time>2019-08-12T09:59:28Z</time>
      </trkpt>
      <trkpt lat="39.5823160" lon="-3.8713310">
        <ele>827.7</ele>
        <time>2019-08-12T09:59:29Z</time>
      </trkpt>
      <trkpt lat="39.5823270" lon="-3.8713360">
        <ele>827.7</ele>
        <time>2019-08-12T09:59:30Z</time>
      </trkpt>
      <trkpt lat="39.5823350" lon="-3.8713400">
        <ele>827.7</ele>
        <time>2019-08-12T09:59:31Z</time>
      </trkpt>
      <trkpt lat="39.5823420" lon="-3.8713440">
        <ele>827.7</ele>
        <time>2019-08-12T09:59:32Z</time>
      </trkpt>
      <trkpt lat="39.5823490" lon="-3.8713480">
        <ele>827.7</ele>
        <time>2019-08-12T09:59:33Z</time>
      </trkpt>
      <trkpt lat="39.5823600" lon="-3.8713510">
        <ele>827.7</ele>
        <time>2019-08-12T09:59:45Z</time>
      </trkpt>
      <trkpt lat="39.5823770" lon="-3.8713560">
        <ele>827.7</ele>
        <time>2019-08-12T09:59:46Z</time>
      </trkpt>
      <trkpt lat="39.5823970" lon="-3.8713630">
        <ele>827.7</ele>
        <time>2019-08-12T09:59:47Z</time>
      </trkpt>
      <trkpt lat="39.5824180" lon="-3.8713750">
        <ele>827.9</ele>
        <time>2019-08-12T09:59:48Z</time>
      </trkpt>
      <trkpt lat="39.5824410" lon="-3.8713900">
        <ele>828.1</ele>
        <time>2019-08-12T09:59:49Z</time>
      </trkpt>
      <trkpt lat="39.5824640" lon="-3.8714080">
        <ele>828.3</ele>
        <time>2019-08-12T09:59:50Z</time>
      </trkpt>
      <trkpt lat="39.5824870" lon="-3.8714280">
        <ele>828.6</ele>
        <time>2019-08-12T09:59:51Z</time>
      </trkpt>
      <trkpt lat="39.5825100" lon="-3.8714470">
        <ele>828.9</ele>
        <time>2019-08-12T09:59:52Z</time>
      </trkpt>
      <trkpt lat="39.5825320" lon="-3.8714670">
        <ele>829.1</ele>
        <time>2019-08-12T09:59:53Z</time>
      </trkpt>
      <trkpt lat="39.5825550" lon="-3.8714860">
        <ele>829.4</ele>
        <time>2019-08-12T09:59:54Z</time>
      </trkpt>
      <trkpt lat="39.5825770" lon="-3.8715050">
        <ele>829.8</ele>
        <time>2019-08-12T09:59:55Z</time>
      </trkpt>
      <trkpt lat="39.5826100" lon="-3.8715330">
        <ele>830.3</ele>
        <time>2019-08-12T09:59:56Z</time>
      </trkpt>
      <trkpt lat="39.5826210" lon="-3.8715430">
        <ele>830.4</ele>
        <time>2019-08-12T09:59:57Z</time>
      </trkpt>
      <trkpt lat="39.5826420" lon="-3.8715610">
        <ele>830.7</ele>
        <time>2019-08-12T09:59:58Z</time>
      </trkpt>
      <trkpt lat="39.5826640" lon="-3.8715790">
        <ele>830.9</ele>
        <time>2019-08-12T09:59:59Z</time>
      </trkpt>
      <trkpt lat="39.5826850" lon="-3.8715980">
        <ele>831.0</ele>
        <time>2019-08-12T10:00:00Z</time>
      </trkpt>
      <trkpt lat="39.5827060" lon="-3.8716150">
        <ele>831.3</ele>
        <time>2019-08-12T10:00:01Z</time>
      </trkpt>
      <trkpt lat="39.5827270" lon="-3.8716330">
        <ele>831.6</ele>
        <time>2019-08-12T10:00:02Z</time>
      </trkpt>
      <trkpt lat="39.5827480" lon="-3.8716500">
        <ele>831.9</ele>
        <time>2019-08-12T10:00:03Z</time>
      </trkpt>
      <trkpt lat="39.5827690" lon="-3.8716670">
        <ele>832.2</ele>
        <time>2019-08-12T10:00:04Z</time>
      </trkpt>
      <trkpt lat="39.5827890" lon="-3.8716830">
        <ele>832.6</ele>
        <time>2019-08-12T10:00:05Z</time>
      </trkpt>
      <trkpt lat="39.5828100" lon="-3.8716990">
        <ele>832.9</ele>
        <time>2019-08-12T10:00:06Z</time>
      </trkpt>
      <trkpt lat="39.5828300" lon="-3.8717140">
        <ele>833.2</ele>
        <time>2019-08-12T10:00:07Z</time>
      </trkpt>
      <trkpt lat="39.5828500" lon="-3.8717300">
        <ele>833.5</ele>
        <time>2019-08-12T10:00:08Z</time>
      </trkpt>
      <trkpt lat="39.5828700" lon="-3.8717440">
        <ele>833.7</ele>
        <time>2019-08-12T10:00:09Z</time>
      </trkpt>
      <trkpt lat="39.5828900" lon="-3.8717580">
        <ele>834.0</ele>
        <time>2019-08-12T10:00:10Z</time>
      </trkpt>
      <trkpt lat="39.5829090" lon="-3.8717720">
        <ele>834.2</ele>
        <time>2019-08-12T10:00:11Z</time>
      </trkpt>
      <trkpt lat="39.5829290" lon="-3.8717850">
        <ele>834.5</ele>
        <time>2019-08-12T10:00:12Z</time>
      </trkpt>
      <trkpt lat="39.5829490" lon="-3.8717980">
        <ele>834.7</ele>
        <time>2019-08-12T10:00:13Z</time>
      </trkpt>
      <trkpt lat="39.5829680" lon="-3.8718110">
        <ele>834.9</ele>
        <time>2019-08-12T10:00:14Z</time>
      </trkpt>
      <trkpt lat="39.5829870" lon="-3.8718250">
        <ele>835.1</ele>
        <time>2019-08-12T10:00:15Z</time>
      </trkpt>
      <trkpt lat="39.5830060" lon="-3.8718380">
        <ele>835.2</ele>
        <time>2019-08-12T10:00:16Z</time>
      </trkpt>
      <trkpt lat="39.5830250" lon="-3.8718530">
        <ele>835.5</ele>
        <time>2019-08-12T10:00:17Z</time>
      </trkpt>
      <trkpt lat="39.5830430" lon="-3.8718680">
        <ele>835.8</ele>
        <time>2019-08-12T10:00:18Z</time>
      </trkpt>
      <trkpt lat="39.5830610" lon="-3.8718840">
        <ele>836.1</ele>
        <time>2019-08-12T10:00:19Z</time>
      </trkpt>
      <trkpt lat="39.5830790" lon="-3.8719010">
        <ele>836.4</ele>
        <time>2019-08-12T10:00:20Z</time>
      </trkpt>
      <trkpt lat="39.5830950" lon="-3.8719180">
        <ele>836.7</ele>
        <time>2019-08-12T10:00:21Z</time>
      </trkpt>
      <trkpt lat="39.5831100" lon="-3.8719350">
        <ele>837.0</ele>
        <time>2019-08-12T10:00:22Z</time>
      </trkpt>
      <trkpt lat="39.5831230" lon="-3.8719500">
        <ele>837.2</ele>
        <time>2019-08-12T10:00:23Z</time>
      </trkpt>
      <trkpt lat="39.5831320" lon="-3.8719630">
        <ele>837.4</ele>
        <time>2019-08-12T10:00:24Z</time>
      </trkpt>
      <trkpt lat="39.5831390" lon="-3.8719740">
        <ele>837.5</ele>
        <time>2019-08-12T10:00:25Z</time>
      </trkpt>
      <trkpt lat="39.5831490" lon="-3.8719830">
        <ele>837.7</ele>
        <time>2019-08-12T10:00:26Z</time>
      </trkpt>
      <trkpt lat="39.5831670" lon="-3.8719930">
        <ele>838.0</ele>
        <time>2019-08-12T10:00:27Z</time>
      </trkpt>
      <trkpt lat="39.5831900" lon="-3.8720030">
        <ele>838.3</ele>
        <time>2019-08-12T10:00:28Z</time>
      </trkpt>
      <trkpt lat="39.5832130" lon="-3.8720140">
        <ele>838.6</ele>
        <time>2019-08-12T10:00:29Z</time>
      </trkpt>
      <trkpt lat="39.5832360" lon="-3.8720260">
        <ele>838.9</ele>
        <time>2019-08-12T10:00:30Z</time>
      </trkpt>
      <trkpt lat="39.5832580" lon="-3.8720390">
        <ele>839.1</ele>
        <time>2019-08-12T10:00:31Z</time>
      </trkpt>
      <trkpt lat="39.5832800" lon="-3.8720520">
        <ele>839.4</ele>
        <time>2019-08-12T10:00:32Z</time>
      </trkpt>
      <trkpt lat="39.5833010" lon="-3.8720660">
        <ele>839.8</ele>
        <time>2019-08-12T10:00:33Z</time>
      </trkpt>
      <trkpt lat="39.5833220" lon="-3.8720810">
        <ele>840.2</ele>
        <time>2019-08-12T10:00:34Z</time>
      </trkpt>
      <trkpt lat="39.5833420" lon="-3.8720950">
        <ele>840.6</ele>
        <time>2019-08-12T10:00:35Z</time>
      </trkpt>
      <trkpt lat="39.5833630" lon="-3.8721090">
        <ele>840.9</ele>
        <time>2019-08-12T10:00:36Z</time>
      </trkpt>
      <trkpt lat="39.5833830" lon="-3.8721240">
        <ele>841.2</ele>
        <time>2019-08-12T10:00:37Z</time>
      </trkpt>
      <trkpt lat="39.5834030" lon="-3.8721380">
        <ele>841.5</ele>
        <time>2019-08-12T10:00:38Z</time>
      </trkpt>
      <trkpt lat="39.5834230" lon="-3.8721510">
        <ele>841.8</ele>
        <time>2019-08-12T10:00:39Z</time>
      </trkpt>
      <trkpt lat="39.5834420" lon="-3.8721640">
        <ele>842.1</ele>
        <time>2019-08-12T10:00:40Z</time>
      </trkpt>
      <trkpt lat="39.5834620" lon="-3.8721770">
        <ele>842.5</ele>
        <time>2019-08-12T10:00:41Z</time>
      </trkpt>
      <trkpt lat="39.5834810" lon="-3.8721890">
        <ele>842.8</ele>
        <time>2019-08-12T10:00:42Z</time>
      </trkpt>
      <trkpt lat="39.5835010" lon="-3.8722010">
        <ele>843.1</ele>
        <time>2019-08-12T10:00:43Z</time>
      </trkpt>
      <trkpt lat="39.5835200" lon="-3.8722130">
        <ele>843.4</ele>
        <time>2019-08-12T10:00:44Z</time>
      </trkpt>
      <trkpt lat="39.5835390" lon="-3.8722240">
        <ele>843.6</ele>
        <time>2019-08-12T10:00:45Z</time>
      </trkpt>
      <trkpt lat="39.5835570" lon="-3.8722360">
        <ele>843.8</ele>
        <time>2019-08-12T10:00:46Z</time>
      </trkpt>
      <trkpt lat="39.5835750" lon="-3.8722460">
        <ele>844.0</ele>
        <time>2019-08-12T10:00:47Z</time>
      </trkpt>
      <trkpt lat="39.5835930" lon="-3.8722570">
        <ele>844.3</ele>
        <time>2019-08-12T10:00:48Z</time>
      </trkpt>
      <trkpt lat="39.5836110" lon="-3.8722680">
        <ele>844.5</ele>
        <time>2019-08-12T10:00:49Z</time>
      </trkpt>
      <trkpt lat="39.5836280" lon="-3.8722790">
        <ele>844.7</ele>
        <time>2019-08-12T10:00:50Z</time>
      </trkpt>
      <trkpt lat="39.5836450" lon="-3.8722900">
        <ele>844.9</ele>
        <time>2019-08-12T10:00:51Z</time>
      </trkpt>
      <trkpt lat="39.5836620" lon="-3.8723020">
        <ele>845.1</ele>
        <time>2019-08-12T10:00:52Z</time>
      </trkpt>
      <trkpt lat="39.5836780" lon="-3.8723140">
        <ele>845.3</ele>
        <time>2019-08-12T10:00:53Z</time>
      </trkpt>
      <trkpt lat="39.5836950" lon="-3.8723280">
        <ele>845.5</ele>
        <time>2019-08-12T10:00:54Z</time>
      </trkpt>
      <trkpt lat="39.5837110" lon="-3.8723430">
        <ele>845.7</ele>
        <time>2019-08-12T10:00:55Z</time>
      </trkpt>
      <trkpt lat="39.5837270" lon="-3.8723590">
        <ele>845.9</ele>
        <time>2019-08-12T10:00:56Z</time>
      </trkpt>
      <trkpt lat="39.5837430" lon="-3.8723770">
        <ele>846.2</ele>
        <time>2019-08-12T10:00:57Z</time>
      </trkpt>
      <trkpt lat="39.5837580" lon="-3.8723950">
        <ele>846.3</ele>
        <time>2019-08-12T10:00:58Z</time>
      </trkpt>
      <trkpt lat="39.5837740" lon="-3.8724140">
        <ele>846.5</ele>
        <time>2019-08-12T10:00:59Z</time>
      </trkpt>
      <trkpt lat="39.5837880" lon="-3.8724330">
        <ele>846.7</ele>
        <time>2019-08-12T10:01:00Z</time>
      </trkpt>
      <trkpt lat="39.5838030" lon="-3.8724510">
        <ele>846.8</ele>
        <time>2019-08-12T10:01:01Z</time>
      </trkpt>
      <trkpt lat="39.5838170" lon="-3.8724670">
        <ele>846.9</ele>
        <time>2019-08-12T10:01:02Z</time>
      </trkpt>
      <trkpt lat="39.5838310" lon="-3.8724800">
        <ele>846.9</ele>
        <time>2019-08-12T10:01:03Z</time>
      </trkpt>
      <trkpt lat="39.5838450" lon="-3.8724900">
        <ele>846.9</ele>
        <time>2019-08-12T10:01:04Z</time>
      </trkpt>
      <trkpt lat="39.5838620" lon="-3.8724940">
        <ele>846.9</ele>
        <time>2019-08-12T10:01:05Z</time>
      </trkpt>
      <trkpt lat="39.5838810" lon="-3.8724940">
        <ele>846.9</ele>
        <time>2019-08-12T10:01:06Z</time>
      </trkpt>
      <trkpt lat="39.5839010" lon="-3.8724880">
        <ele>846.9</ele>
        <time>2019-08-12T10:01:07Z</time>
      </trkpt>
      <trkpt lat="39.5839230" lon="-3.8724800">
        <ele>846.9</ele>
        <time>2019-08-12T10:01:08Z</time>
      </trkpt>
      <trkpt lat="39.5839450" lon="-3.8724690">
        <ele>846.9</ele>
        <time>2019-08-12T10:01:09Z</time>
      </trkpt>
      <trkpt lat="39.5839680" lon="-3.8724590">
        <ele>846.9</ele>
        <time>2019-08-12T10:01:10Z</time>
      </trkpt>
      <trkpt lat="39.5839900" lon="-3.8724490">
        <ele>847.0</ele>
        <time>2019-08-12T10:01:11Z</time>
      </trkpt>
      <trkpt lat="39.5840120" lon="-3.8724400">
        <ele>847.0</ele>
        <time>2019-08-12T10:01:12Z</time>
      </trkpt>
      <trkpt lat="39.5840350" lon="-3.8724320">
        <ele>847.0</ele>
        <time>2019-08-12T10:01:13Z</time>
      </trkpt>
      <trkpt lat="39.5840570" lon="-3.8724230">
        <ele>847.1</ele>
        <time>2019-08-12T10:01:14Z</time>
      </trkpt>
      <trkpt lat="39.5840810" lon="-3.8724140">
        <ele>847.1</ele>
        <time>2019-08-12T10:01:15Z</time>
      </trkpt>
      <trkpt lat="39.5841050" lon="-3.8724030">
        <ele>847.1</ele>
        <time>2019-08-12T10:01:16Z</time>
      </trkpt>
      <trkpt lat="39.5841310" lon="-3.8723910">
        <ele>847.2</ele>
        <time>2019-08-12T10:01:17Z</time>
      </trkpt>
      <trkpt lat="39.5841570" lon="-3.8723780">
        <ele>847.2</ele>
        <time>2019-08-12T10:01:18Z</time>
      </trkpt>
      <trkpt lat="39.5841830" lon="-3.8723620">
        <ele>847.3</ele>
        <time>2019-08-12T10:01:19Z</time>
      </trkpt>
      <trkpt lat="39.5842100" lon="-3.8723460">
        <ele>847.4</ele>
        <time>2019-08-12T10:01:20Z</time>
      </trkpt>
      <trkpt lat="39.5842370" lon="-3.8723270">
        <ele>847.4</ele>
        <time>2019-08-12T10:01:21Z</time>
      </trkpt>
      <trkpt lat="39.5842630" lon="-3.8723060">
        <ele>847.5</ele>
        <time>2019-08-12T10:01:22Z</time>
      </trkpt>
      <trkpt lat="39.5842900" lon="-3.8722830">
        <ele>847.6</ele>
        <time>2019-08-12T10:01:23Z</time>
      </trkpt>
      <trkpt lat="39.5843160" lon="-3.8722580">
        <ele>847.7</ele>
        <time>2019-08-12T10:01:24Z</time>
      </trkpt>
      <trkpt lat="39.5843420" lon="-3.8722300">
        <ele>847.7</ele>
        <time>2019-08-12T10:01:25Z</time>
      </trkpt>
      <trkpt lat="39.5843670" lon="-3.8722000">
        <ele>847.8</ele>
        <time>2019-08-12T10:01:26Z</time>
      </trkpt>
      <trkpt lat="39.5843910" lon="-3.8721690">
        <ele>847.9</ele>
        <time>2019-08-12T10:01:27Z</time>
      </trkpt>
      <trkpt lat="39.5844150" lon="-3.8721370">
        <ele>847.9</ele>
        <time>2019-08-12T10:01:28Z</time>
      </trkpt>
      <trkpt lat="39.5844370" lon="-3.8721050">
        <ele>848.0</ele>
        <time>2019-08-12T10:01:29Z</time>
      </trkpt>
      <trkpt lat="39.5844590" lon="-3.8720730">
        <ele>848.0</ele>
        <time>2019-08-12T10:01:30Z</time>
      </trkpt>
      <trkpt lat="39.5844810" lon="-3.8720420">
        <ele>848.0</ele>
        <time>2019-08-12T10:01:31Z</time>
      </trkpt>
      <trkpt lat="39.5845010" lon="-3.8720120">
        <ele>848.2</ele>
        <time>2019-08-12T10:01:32Z</time>
      </trkpt>
      <trkpt lat="39.5845200" lon="-3.8719840">
        <ele>848.3</ele>
        <time>2019-08-12T10:01:33Z</time>
      </trkpt>
      <trkpt lat="39.5845390" lon="-3.8719590">
        <ele>848.5</ele>
        <time>2019-08-12T10:01:34Z</time>
      </trkpt>
      <trkpt lat="39.5845570" lon="-3.8719380">
        <ele>848.6</ele>
        <time>2019-08-12T10:01:35Z</time>
      </trkpt>
      <trkpt lat="39.5845760" lon="-3.8719220">
        <ele>848.7</ele>
        <time>2019-08-12T10:01:36Z</time>
      </trkpt>
      <trkpt lat="39.5845970" lon="-3.8719140">
        <ele>848.8</ele>
        <time>2019-08-12T10:01:37Z</time>
      </trkpt>
      <trkpt lat="39.5846200" lon="-3.8719150">
        <ele>848.9</ele>
        <time>2019-08-12T10:01:38Z</time>
      </trkpt>
      <trkpt lat="39.5846440" lon="-3.8719240">
        <ele>849.4</ele>
        <time>2019-08-12T10:01:39Z</time>
      </trkpt>
      <trkpt lat="39.5846720" lon="-3.8719470">
        <ele>849.4</ele>
        <time>2019-08-12T10:01:40Z</time>
      </trkpt>
      <trkpt lat="39.5846780" lon="-3.8719550">
        <ele>849.4</ele>
        <time>2019-08-12T10:01:41Z</time>
      </trkpt>
      <trkpt lat="39.5846840" lon="-3.8719690">
        <ele>849.4</ele>
        <time>2019-08-12T10:01:42Z</time>
      </trkpt>
      <trkpt lat="39.5846890" lon="-3.8719780">
        <ele>849.4</ele>
        <time>2019-08-12T10:01:43Z</time>
      </trkpt>
      <trkpt lat="39.5846910" lon="-3.8719830">
        <ele>849.4</ele>
        <time>2019-08-12T10:01:44Z</time>
      </trkpt>
      <trkpt lat="39.5846930" lon="-3.8719840">
        <ele>849.4</ele>
        <time>2019-08-12T10:01:45Z</time>
      </trkpt>
      <trkpt lat="39.5846930" lon="-3.8719840">
        <ele>849.4</ele>
        <time>2019-08-12T10:01:46Z</time>
      </trkpt>
      <trkpt lat="39.5846910" lon="-3.8719840">
        <ele>849.4</ele>
        <time>2019-08-12T10:01:47Z</time>
      </trkpt>
      <trkpt lat="39.5846880" lon="-3.8719840">
        <ele>849.4</ele>
        <time>2019-08-12T10:01:48Z</time>
      </trkpt>
      <trkpt lat="39.5846840" lon="-3.8719820">
        <ele>849.4</ele>
        <time>2019-08-12T10:01:49Z</time>
      </trkpt>
      <trkpt lat="39.5846770" lon="-3.8719770">
        <ele>849.4</ele>
        <time>2019-08-12T10:01:50Z</time>
      </trkpt>
      <trkpt lat="39.5846690" lon="-3.8719660">
        <ele>849.4</ele>
        <time>2019-08-12T10:01:51Z</time>
      </trkpt>
      <trkpt lat="39.5846590" lon="-3.8719470">
        <ele>849.4</ele>
        <time>2019-08-12T10:01:52Z</time>
      </trkpt>
      <trkpt lat="39.5846460" lon="-3.8719190">
        <ele>849.4</ele>
        <time>2019-08-12T10:01:53Z</time>
      </trkpt>
      <trkpt lat="39.5846330" lon="-3.8718850">
        <ele>849.1</ele>
        <time>2019-08-12T10:01:54Z</time>
      </trkpt>
      <trkpt lat="39.5846200" lon="-3.8718490">
        <ele>849.0</ele>
        <time>2019-08-12T10:01:55Z</time>
      </trkpt>
      <trkpt lat="39.5845970" lon="-3.8717830">
        <ele>848.7</ele>
        <time>2019-08-12T10:01:56Z</time>
      </trkpt>
      <trkpt lat="39.5845860" lon="-3.8717530">
        <ele>848.6</ele>
        <time>2019-08-12T10:01:57Z</time>
      </trkpt>
      <trkpt lat="39.5845750" lon="-3.8717220">
        <ele>848.5</ele>
        <time>2019-08-12T10:01:58Z</time>
      </trkpt>
      <trkpt lat="39.5845630" lon="-3.8716920">
        <ele>848.4</ele>
        <time>2019-08-12T10:01:59Z</time>
      </trkpt>
      <trkpt lat="39.5845520" lon="-3.8716610">
        <ele>848.3</ele>
        <time>2019-08-12T10:02:47Z</time>
      </trkpt>
      <trkpt lat="39.5845410" lon="-3.8716310">
        <ele>848.0</ele>
        <time>2019-08-12T10:02:48Z</time>
      </trkpt>
      <trkpt lat="39.5845180" lon="-3.8715810">
        <ele>847.7</ele>
        <time>2019-08-12T10:02:49Z</time>
      </trkpt>
      <trkpt lat="39.5844960" lon="-3.8715360">
        <ele>847.5</ele>
        <time>2019-08-12T10:02:50Z</time>
      </trkpt>
      <trkpt lat="39.5844760" lon="-3.8714960">
        <ele>847.3</ele>
        <time>2019-08-12T10:02:51Z</time>
      </trkpt>
      <trkpt lat="39.5844560" lon="-3.8714600">
        <ele>847.1</ele>
        <time>2019-08-12T10:02:52Z</time>
      </trkpt>
      <trkpt lat="39.5844380" lon="-3.8714270">
        <ele>847.0</ele>
        <time>2019-08-12T10:02:53Z</time>
      </trkpt>
      <trkpt lat="39.5844210" lon="-3.8713970">
        <ele>846.7</ele>
        <time>2019-08-12T10:02:54Z</time>
      </trkpt>
      <trkpt lat="39.5844040" lon="-3.8713680">
        <ele>846.7</ele>
        <time>2019-08-12T10:02:55Z</time>
      </trkpt>
      <trkpt lat="39.5843870" lon="-3.8713410">
        <ele>846.7</ele>
        <time>2019-08-12T10:02:56Z</time>
      </trkpt>
      <trkpt lat="39.5843710" lon="-3.8713150">
        <ele>846.7</ele>
        <time>2019-08-12T10:02:57Z</time>
      </trkpt>
      <trkpt lat="39.5843550" lon="-3.8712890">
        <ele>846.6</ele>
        <time>2019-08-12T10:02:58Z</time>
      </trkpt>
      <trkpt lat="39.5843390" lon="-3.8712630">
        <ele>846.5</ele>
        <time>2019-08-12T10:02:59Z</time>
      </trkpt>
      <trkpt lat="39.5843240" lon="-3.8712390">
        <ele>846.4</ele>
        <time>2019-08-12T10:03:00Z</time>
      </trkpt>
      <trkpt lat="39.5843090" lon="-3.8712170">
        <ele>846.3</ele>
        <time>2019-08-12T10:03:01Z</time>
      </trkpt>
      <trkpt lat="39.5842950" lon="-3.8711980">
        <ele>846.3</ele>
        <time>2019-08-12T10:03:02Z</time>
      </trkpt>
      <trkpt lat="39.5842820" lon="-3.8711810">
        <ele>846.3</ele>
        <time>2019-08-12T10:03:03Z</time>
      </trkpt>
      <trkpt lat="39.5842680" lon="-3.8711640">
        <ele>846.3</ele>
        <time>2019-08-12T10:03:04Z</time>
      </trkpt>
      <trkpt lat="39.5842530" lon="-3.8711440">
        <ele>846.2</ele>
        <time>2019-08-12T10:03:05Z</time>
      </trkpt>
      <trkpt lat="39.5842350" lon="-3.8711170">
        <ele>846.1</ele>
        <time>2019-08-12T10:03:06Z</time>
      </trkpt>
      <trkpt lat="39.5841950" lon="-3.8710520">
        <ele>845.7</ele>
        <time>2019-08-12T10:03:07Z</time>
      </trkpt>
      <trkpt lat="39.5841780" lon="-3.8710210">
        <ele>845.5</ele>
        <time>2019-08-12T10:03:08Z</time>
      </trkpt>
      <trkpt lat="39.5841610" lon="-3.8709910">
        <ele>845.3</ele>
        <time>2019-08-12T10:03:09Z</time>
      </trkpt>
      <trkpt lat="39.5841330" lon="-3.8709410">
        <ele>845.0</ele>
        <time>2019-08-12T10:03:10Z</time>
      </trkpt>
      <trkpt lat="39.5841070" lon="-3.8708910">
        <ele>844.8</ele>
        <time>2019-08-12T10:03:11Z</time>
      </trkpt>
      <trkpt lat="39.5840650" lon="-3.8708120">
        <ele>844.2</ele>
        <time>2019-08-12T10:03:12Z</time>
      </trkpt>
      <trkpt lat="39.5840500" lon="-3.8707800">
        <ele>844.0</ele>
        <time>2019-08-12T10:03:13Z</time>
      </trkpt>
      <trkpt lat="39.5840340" lon="-3.8707490">
        <ele>843.8</ele>
        <time>2019-08-12T10:03:14Z</time>
      </trkpt>
      <trkpt lat="39.5840120" lon="-3.8707010">
        <ele>843.4</ele>
        <time>2019-08-12T10:03:15Z</time>
      </trkpt>
      <trkpt lat="39.5839900" lon="-3.8706510">
        <ele>843.0</ele>
        <time>2019-08-12T10:03:16Z</time>
      </trkpt>
      <trkpt lat="39.5839530" lon="-3.8705600">
        <ele>842.3</ele>
        <time>2019-08-12T10:03:17Z</time>
      </trkpt>
      <trkpt lat="39.5839390" lon="-3.8705230">
        <ele>842.0</ele>
        <time>2019-08-12T10:03:18Z</time>
      </trkpt>
      <trkpt lat="39.5839240" lon="-3.8704860">
        <ele>841.6</ele>
        <time>2019-08-12T10:03:19Z</time>
      </trkpt>
      <trkpt lat="39.5839030" lon="-3.8704310">
        <ele>840.9</ele>
        <time>2019-08-12T10:03:20Z</time>
      </trkpt>
      <trkpt lat="39.5838840" lon="-3.8703810">
        <ele>840.4</ele>
        <time>2019-08-12T10:03:21Z</time>
      </trkpt>
      <trkpt lat="39.5838660" lon="-3.8703340">
        <ele>839.9</ele>
        <time>2019-08-12T10:03:22Z</time>
      </trkpt>
      <trkpt lat="39.5838500" lon="-3.8702920">
        <ele>839.6</ele>
        <time>2019-08-12T10:03:23Z</time>
      </trkpt>
      <trkpt lat="39.5838350" lon="-3.8702530">
        <ele>839.4</ele>
        <time>2019-08-12T10:03:24Z</time>
      </trkpt>
      <trkpt lat="39.5838220" lon="-3.8702160">
        <ele>839.2</ele>
        <time>2019-08-12T10:03:25Z</time>
      </trkpt>
      <trkpt lat="39.5838100" lon="-3.8701810">
        <ele>839.1</ele>
        <time>2019-08-12T10:03:26Z</time>
      </trkpt>
      <trkpt lat="39.5838020" lon="-3.8701430">
        <ele>839.1</ele>
        <time>2019-08-12T10:03:27Z</time>
      </trkpt>
      <trkpt lat="39.5838000" lon="-3.8701000">
        <ele>838.7</ele>
        <time>2019-08-12T10:03:28Z</time>
      </trkpt>
      <trkpt lat="39.5838030" lon="-3.8700490">
        <ele>838.3</ele>
        <time>2019-08-12T10:03:29Z</time>
      </trkpt>
      <trkpt lat="39.5838030" lon="-3.8699940">
        <ele>837.7</ele>
        <time>2019-08-12T10:03:30Z</time>
      </trkpt>
      <trkpt lat="39.5837930" lon="-3.8699400">
        <ele>837.0</ele>
        <time>2019-08-12T10:03:31Z</time>
      </trkpt>
      <trkpt lat="39.5837580" lon="-3.8698570">
        <ele>836.0</ele>
        <time>2019-08-12T10:03:32Z</time>
      </trkpt>
      <trkpt lat="39.5837430" lon="-3.8698290">
        <ele>835.7</ele>
        <time>2019-08-12T10:03:33Z</time>
      </trkpt>
      <trkpt lat="39.5837100" lon="-3.8697700">
        <ele>834.9</ele>
        <time>2019-08-12T10:03:34Z</time>
      </trkpt>
      <trkpt lat="39.5836730" lon="-3.8697070">
        <ele>834.0</ele>
        <time>2019-08-12T10:03:35Z</time>
      </trkpt>
      <trkpt lat="39.5836360" lon="-3.8696420">
        <ele>833.3</ele>
        <time>2019-08-12T10:03:36Z</time>
      </trkpt>
      <trkpt lat="39.5835750" lon="-3.8695410">
        <ele>831.7</ele>
        <time>2019-08-12T10:03:37Z</time>
      </trkpt>
      <trkpt lat="39.5835510" lon="-3.8695030">
        <ele>831.2</ele>
        <time>2019-08-12T10:03:38Z</time>
      </trkpt>
      <trkpt lat="39.5835280" lon="-3.8694650">
        <ele>830.7</ele>
        <time>2019-08-12T10:03:39Z</time>
      </trkpt>
      <trkpt lat="39.5834980" lon="-3.8694200">
        <ele>830.3</ele>
        <time>2019-08-12T10:03:40Z</time>
      </trkpt>
      <trkpt lat="39.5834730" lon="-3.8693810">
        <ele>829.9</ele>
        <time>2019-08-12T10:03:41Z</time>
      </trkpt>
      <trkpt lat="39.5834560" lon="-3.8693480">
        <ele>829.7</ele>
        <time>2019-08-12T10:03:42Z</time>
      </trkpt>
      <trkpt lat="39.5834470" lon="-3.8693170">
        <ele>829.7</ele>
        <time>2019-08-12T10:03:43Z</time>
      </trkpt>
      <trkpt lat="39.5834490" lon="-3.8692880">
        <ele>829.7</ele>
        <time>2019-08-12T10:03:44Z</time>
      </trkpt>
      <trkpt lat="39.5834590" lon="-3.8692600">
        <ele>829.7</ele>
        <time>2019-08-12T10:03:45Z</time>
      </trkpt>
      <trkpt lat="39.5834760" lon="-3.8692340">
        <ele>830.3</ele>
        <time>2019-08-12T10:03:46Z</time>
      </trkpt>
      <trkpt lat="39.5834990" lon="-3.8692120">
        <ele>830.5</ele>
        <time>2019-08-12T10:03:47Z</time>
      </trkpt>
      <trkpt lat="39.5835210" lon="-3.8691900">
        <ele>830.7</ele>
        <time>2019-08-12T10:03:48Z</time>
      </trkpt>
      <trkpt lat="39.5835470" lon="-3.8691710">
        <ele>830.9</ele>
        <time>2019-08-12T10:03:49Z</time>
      </trkpt>
      <trkpt lat="39.5835720" lon="-3.8691550">
        <ele>831.1</ele>
        <time>2019-08-12T10:03:50Z</time>
      </trkpt>
      <trkpt lat="39.5835980" lon="-3.8691400">
        <ele>831.3</ele>
        <time>2019-08-12T10:03:51Z</time>
      </trkpt>
      <trkpt lat="39.5836240" lon="-3.8691240">
        <ele>831.5</ele>
        <time>2019-08-12T10:03:52Z</time>
      </trkpt>
      <trkpt lat="39.5836510" lon="-3.8691070">
        <ele>831.7</ele>
        <time>2019-08-12T10:03:53Z</time>
      </trkpt>
      <trkpt lat="39.5836770" lon="-3.8690880">
        <ele>831.9</ele>
        <time>2019-08-12T10:03:54Z</time>
      </trkpt>
      <trkpt lat="39.5837040" lon="-3.8690660">
        <ele>832.1</ele>
        <time>2019-08-12T10:03:55Z</time>
      </trkpt>
      <trkpt lat="39.5837310" lon="-3.8690430">
        <ele>832.3</ele>
        <time>2019-08-12T10:03:56Z</time>
      </trkpt>
      <trkpt lat="39.5837590" lon="-3.8690190">
        <ele>832.5</ele>
        <time>2019-08-12T10:03:57Z</time>
      </trkpt>
      <trkpt lat="39.5837870" lon="-3.8689950">
        <ele>832.8</ele>
        <time>2019-08-12T10:03:58Z</time>
      </trkpt>
      <trkpt lat="39.5838160" lon="-3.8689710">
        <ele>833.0</ele>
        <time>2019-08-12T10:03:59Z</time>
      </trkpt>
      <trkpt lat="39.5838450" lon="-3.8689490">
        <ele>833.2</ele>
        <time>2019-08-12T10:04:00Z</time>
      </trkpt>
      <trkpt lat="39.5838720" lon="-3.8689300">
        <ele>833.4</ele>
        <time>2019-08-12T10:04:01Z</time>
      </trkpt>
      <trkpt lat="39.5838950" lon="-3.8689170">
        <ele>833.5</ele>
        <time>2019-08-12T10:04:02Z</time>
      </trkpt>
      <trkpt lat="39.5839150" lon="-3.8689100">
        <ele>833.7</ele>
        <time>2019-08-12T10:04:03Z</time>
      </trkpt>
      <trkpt lat="39.5839320" lon="-3.8689040">
        <ele>833.8</ele>
        <time>2019-08-12T10:04:04Z</time>
      </trkpt>
      <trkpt lat="39.5839510" lon="-3.8688940">
        <ele>834.0</ele>
        <time>2019-08-12T10:04:05Z</time>
      </trkpt>
      <trkpt lat="39.5839750" lon="-3.8688750">
        <ele>834.2</ele>
        <time>2019-08-12T10:04:06Z</time>
      </trkpt>
      <trkpt lat="39.5840010" lon="-3.8688530">
        <ele>834.4</ele>
        <time>2019-08-12T10:04:07Z</time>
      </trkpt>
      <trkpt lat="39.5840280" lon="-3.8688310">
        <ele>834.7</ele>
        <time>2019-08-12T10:04:08Z</time>
      </trkpt>
      <trkpt lat="39.5840560" lon="-3.8688100">
        <ele>834.9</ele>
        <time>2019-08-12T10:04:09Z</time>
      </trkpt>
      <trkpt lat="39.5840830" lon="-3.8687890">
        <ele>835.2</ele>
        <time>2019-08-12T10:04:10Z</time>
      </trkpt>
      <trkpt lat="39.5841110" lon="-3.8687640">
        <ele>835.5</ele>
        <time>2019-08-12T10:04:11Z</time>
      </trkpt>
      <trkpt lat="39.5841390" lon="-3.8687360">
        <ele>835.9</ele>
        <time>2019-08-12T10:04:12Z</time>
      </trkpt>
      <trkpt lat="39.5841660" lon="-3.8687060">
        <ele>836.2</ele>
        <time>2019-08-12T10:04:13Z</time>
      </trkpt>
      <trkpt lat="39.5841940" lon="-3.8686750">
        <ele>836.6</ele>
        <time>2019-08-12T10:04:14Z</time>
      </trkpt>
      <trkpt lat="39.5842220" lon="-3.8686450">
        <ele>837.0</ele>
        <time>2019-08-12T10:04:15Z</time>
      </trkpt>
      <trkpt lat="39.5842490" lon="-3.8686190">
        <ele>837.4</ele>
        <time>2019-08-12T10:04:16Z</time>
      </trkpt>
      <trkpt lat="39.5842780" lon="-3.8685990">
        <ele>837.7</ele>
        <time>2019-08-12T10:04:17Z</time>
      </trkpt>
      <trkpt lat="39.5843060" lon="-3.8685820">
        <ele>838.0</ele>
        <time>2019-08-12T10:04:18Z</time>
      </trkpt>
      <trkpt lat="39.5843330" lon="-3.8685660">
        <ele>838.3</ele>
        <time>2019-08-12T10:04:19Z</time>
      </trkpt>
      <trkpt lat="39.5843610" lon="-3.8685510">
        <ele>838.5</ele>
        <time>2019-08-12T10:04:20Z</time>
      </trkpt>
      <trkpt lat="39.5843870" lon="-3.8685350">
        <ele>838.8</ele>
        <time>2019-08-12T10:04:21Z</time>
      </trkpt>
      <trkpt lat="39.5844130" lon="-3.8685170">
        <ele>839.0</ele>
        <time>2019-08-12T10:04:22Z</time>
      </trkpt>
      <trkpt lat="39.5844380" lon="-3.8684990">
        <ele>839.1</ele>
        <time>2019-08-12T10:04:23Z</time>
      </trkpt>
      <trkpt lat="39.5844630" lon="-3.8684790">
        <ele>839.3</ele>
        <time>2019-08-12T10:04:24Z</time>
      </trkpt>
      <trkpt lat="39.5844880" lon="-3.8684580">
        <ele>839.4</ele>
        <time>2019-08-12T10:04:25Z</time>
      </trkpt>
      <trkpt lat="39.5845120" lon="-3.8684370">
        <ele>839.5</ele>
        <time>2019-08-12T10:04:26Z</time>
      </trkpt>
      <trkpt lat="39.5845370" lon="-3.8684160">
        <ele>839.5</ele>
        <time>2019-08-12T10:04:27Z</time>
      </trkpt>
      <trkpt lat="39.5845610" lon="-3.8683940">
        <ele>839.6</ele>
        <time>2019-08-12T10:04:28Z</time>
      </trkpt>
      <trkpt lat="39.5845860" lon="-3.8683730">
        <ele>839.7</ele>
        <time>2019-08-12T10:04:29Z</time>
      </trkpt>
      <trkpt lat="39.5846110" lon="-3.8683530">
        <ele>839.8</ele>
        <time>2019-08-12T10:04:30Z</time>
      </trkpt>
      <trkpt lat="39.5846360" lon="-3.8683320">
        <ele>839.9</ele>
        <time>2019-08-12T10:04:31Z</time>
      </trkpt>
      <trkpt lat="39.5846620" lon="-3.8683120">
        <ele>840.0</ele>
        <time>2019-08-12T10:04:32Z</time>
      </trkpt>
      <trkpt lat="39.5846880" lon="-3.8682920">
        <ele>840.2</ele>
        <time>2019-08-12T10:04:33Z</time>
      </trkpt>
      <trkpt lat="39.5847130" lon="-3.8682730">
        <ele>840.3</ele>
        <time>2019-08-12T10:04:34Z</time>
      </trkpt>
      <trkpt lat="39.5847390" lon="-3.8682530">
        <ele>840.5</ele>
        <time>2019-08-12T10:04:35Z</time>
      </trkpt>
      <trkpt lat="39.5847650" lon="-3.8682340">
        <ele>840.7</ele>
        <time>2019-08-12T10:04:36Z</time>
      </trkpt>
      <trkpt lat="39.5847910" lon="-3.8682140">
        <ele>840.9</ele>
        <time>2019-08-12T10:04:37Z</time>
      </trkpt>
      <trkpt lat="39.5848160" lon="-3.8681950">
        <ele>841.1</ele>
        <time>2019-08-12T10:04:38Z</time>
      </trkpt>
      <trkpt lat="39.5848420" lon="-3.8681760">
        <ele>841.4</ele>
        <time>2019-08-12T10:04:39Z</time>
      </trkpt>
      <trkpt lat="39.5848670" lon="-3.8681560">
        <ele>841.7</ele>
        <time>2019-08-12T10:04:40Z</time>
      </trkpt>
      <trkpt lat="39.5848930" lon="-3.8681370">
        <ele>842.0</ele>
        <time>2019-08-12T10:04:41Z</time>
      </trkpt>
      <trkpt lat="39.5849180" lon="-3.8681180">
        <ele>842.2</ele>
        <time>2019-08-12T10:04:42Z</time>
      </trkpt>
      <trkpt lat="39.5849430" lon="-3.8680990">
        <ele>842.6</ele>
        <time>2019-08-12T10:04:43Z</time>
      </trkpt>
      <trkpt lat="39.5849670" lon="-3.8680800">
        <ele>842.9</ele>
        <time>2019-08-12T10:04:44Z</time>
      </trkpt>
      <trkpt lat="39.5849920" lon="-3.8680620">
        <ele>843.3</ele>
        <time>2019-08-12T10:04:45Z</time>
      </trkpt>
      <trkpt lat="39.5850160" lon="-3.8680440">
        <ele>843.6</ele>
        <time>2019-08-12T10:04:46Z</time>
      </trkpt>
      <trkpt lat="39.5850400" lon="-3.8680270">
        <ele>843.8</ele>
        <time>2019-08-12T10:04:47Z</time>
      </trkpt>
      <trkpt lat="39.5850640" lon="-3.8680100">
        <ele>843.9</ele>
        <time>2019-08-12T10:04:48Z</time>
      </trkpt>
      <trkpt lat="39.5850880" lon="-3.8679930">
        <ele>843.9</ele>
        <time>2019-08-12T10:04:49Z</time>
      </trkpt>
      <trkpt lat="39.5851120" lon="-3.8679770">
        <ele>844.0</ele>
        <time>2019-08-12T10:04:50Z</time>
      </trkpt>
      <trkpt lat="39.5851350" lon="-3.8679610">
        <ele>844.1</ele>
        <time>2019-08-12T10:04:51Z</time>
      </trkpt>
      <trkpt lat="39.5851580" lon="-3.8679460">
        <ele>844.2</ele>
        <time>2019-08-12T10:04:52Z</time>
      </trkpt>
      <trkpt lat="39.5851810" lon="-3.8679300">
        <ele>844.3</ele>
        <time>2019-08-12T10:04:53Z</time>
      </trkpt>
      <trkpt lat="39.5852030" lon="-3.8679150">
        <ele>844.4</ele>
        <time>2019-08-12T10:04:54Z</time>
      </trkpt>
      <trkpt lat="39.5852250" lon="-3.8678990">
        <ele>844.5</ele>
        <time>2019-08-12T10:04:55Z</time>
      </trkpt>
      <trkpt lat="39.5852470" lon="-3.8678840">
        <ele>844.6</ele>
        <time>2019-08-12T10:04:56Z</time>
      </trkpt>
      <trkpt lat="39.5852680" lon="-3.8678680">
        <ele>844.7</ele>
        <time>2019-08-12T10:04:57Z</time>
      </trkpt>
      <trkpt lat="39.5852890" lon="-3.8678520">
        <ele>844.8</ele>
        <time>2019-08-12T10:04:58Z</time>
      </trkpt>
      <trkpt lat="39.5853100" lon="-3.8678360">
        <ele>844.9</ele>
        <time>2019-08-12T10:04:59Z</time>
      </trkpt>
      <trkpt lat="39.5853300" lon="-3.8678200">
        <ele>845.0</ele>
        <time>2019-08-12T10:05:00Z</time>
      </trkpt>
      <trkpt lat="39.5853500" lon="-3.8678040">
        <ele>845.2</ele>
        <time>2019-08-12T10:05:01Z</time>
      </trkpt>
      <trkpt lat="39.5853710" lon="-3.8677880">
        <ele>845.3</ele>
        <time>2019-08-12T10:05:02Z</time>
      </trkpt>
      <trkpt lat="39.5853910" lon="-3.8677720">
        <ele>845.4</ele>
        <time>2019-08-12T10:05:03Z</time>
      </trkpt>
      <trkpt lat="39.5854110" lon="-3.8677560">
        <ele>845.5</ele>
        <time>2019-08-12T10:05:04Z</time>
      </trkpt>
      <trkpt lat="39.5854320" lon="-3.8677410">
        <ele>845.6</ele>
        <time>2019-08-12T10:05:05Z</time>
      </trkpt>
      <trkpt lat="39.5854520" lon="-3.8677260">
        <ele>845.8</ele>
        <time>2019-08-12T10:05:06Z</time>
      </trkpt>
      <trkpt lat="39.5854730" lon="-3.8677110">
        <ele>845.9</ele>
        <time>2019-08-12T10:05:07Z</time>
      </trkpt>
      <trkpt lat="39.5854950" lon="-3.8676960">
        <ele>846.0</ele>
        <time>2019-08-12T10:05:08Z</time>
      </trkpt>
      <trkpt lat="39.5855160" lon="-3.8676810">
        <ele>846.2</ele>
        <time>2019-08-12T10:05:09Z</time>
      </trkpt>
      <trkpt lat="39.5855380" lon="-3.8676670">
        <ele>846.3</ele>
        <time>2019-08-12T10:05:10Z</time>
      </trkpt>
      <trkpt lat="39.5855590" lon="-3.8676520">
        <ele>846.4</ele>
        <time>2019-08-12T10:05:11Z</time>
      </trkpt>
      <trkpt lat="39.5855810" lon="-3.8676380">
        <ele>846.6</ele>
        <time>2019-08-12T10:05:12Z</time>
      </trkpt>
      <trkpt lat="39.5856030" lon="-3.8676230">
        <ele>846.7</ele>
        <time>2019-08-12T10:05:13Z</time>
      </trkpt>
      <trkpt lat="39.5856250" lon="-3.8676080">
        <ele>846.9</ele>
        <time>2019-08-12T10:05:14Z</time>
      </trkpt>
      <trkpt lat="39.5856460" lon="-3.8675930">
        <ele>847.0</ele>
        <time>2019-08-12T10:05:15Z</time>
      </trkpt>
      <trkpt lat="39.5856680" lon="-3.8675770">
        <ele>847.2</ele>
        <time>2019-08-12T10:05:16Z</time>
      </trkpt>
      <trkpt lat="39.5856890" lon="-3.8675610">
        <ele>847.3</ele>
        <time>2019-08-12T10:05:17Z</time>
      </trkpt>
      <trkpt lat="39.5857100" lon="-3.8675440">
        <ele>847.5</ele>
        <time>2019-08-12T10:05:18Z</time>
      </trkpt>
      <trkpt lat="39.5857320" lon="-3.8675270">
        <ele>847.5</ele>
        <time>2019-08-12T10:05:19Z</time>
      </trkpt>
      <trkpt lat="39.5857530" lon="-3.8675110">
        <ele>847.4</ele>
        <time>2019-08-12T10:05:20Z</time>
      </trkpt>
      <trkpt lat="39.5857740" lon="-3.8674940">
        <ele>847.4</ele>
        <time>2019-08-12T10:05:21Z</time>
      </trkpt>
      <trkpt lat="39.5857950" lon="-3.8674770">
        <ele>847.3</ele>
        <time>2019-08-12T10:05:22Z</time>
      </trkpt>
      <trkpt lat="39.5858160" lon="-3.8674590">
        <ele>847.5</ele>
        <time>2019-08-12T10:05:23Z</time>
      </trkpt>
      <trkpt lat="39.5858370" lon="-3.8674430">
        <ele>847.7</ele>
        <time>2019-08-12T10:05:24Z</time>
      </trkpt>
      <trkpt lat="39.5858580" lon="-3.8674260">
        <ele>847.8</ele>
        <time>2019-08-12T10:05:25Z</time>
      </trkpt>
      <trkpt lat="39.5858800" lon="-3.8674090">
        <ele>848.0</ele>
        <time>2019-08-12T10:05:26Z</time>
      </trkpt>
      <trkpt lat="39.5859010" lon="-3.8673920">
        <ele>848.2</ele>
        <time>2019-08-12T10:05:27Z</time>
      </trkpt>
      <trkpt lat="39.5859220" lon="-3.8673760">
        <ele>848.3</ele>
        <time>2019-08-12T10:05:28Z</time>
      </trkpt>
      <trkpt lat="39.5859430" lon="-3.8673590">
        <ele>848.5</ele>
        <time>2019-08-12T10:05:29Z</time>
      </trkpt>
      <trkpt lat="39.5859650" lon="-3.8673430">
        <ele>848.6</ele>
        <time>2019-08-12T10:05:30Z</time>
      </trkpt>
      <trkpt lat="39.5859860" lon="-3.8673270">
        <ele>848.8</ele>
        <time>2019-08-12T10:05:31Z</time>
      </trkpt>
      <trkpt lat="39.5860070" lon="-3.8673110">
        <ele>849.0</ele>
        <time>2019-08-12T10:05:32Z</time>
      </trkpt>
      <trkpt lat="39.5860280" lon="-3.8672950">
        <ele>849.1</ele>
        <time>2019-08-12T10:05:33Z</time>
      </trkpt>
      <trkpt lat="39.5860500" lon="-3.8672800">
        <ele>849.3</ele>
        <time>2019-08-12T10:05:34Z</time>
      </trkpt>
      <trkpt lat="39.5860710" lon="-3.8672640">
        <ele>849.4</ele>
        <time>2019-08-12T10:05:35Z</time>
      </trkpt>
      <trkpt lat="39.5860920" lon="-3.8672490">
        <ele>849.6</ele>
        <time>2019-08-12T10:05:36Z</time>
      </trkpt>
      <trkpt lat="39.5861130" lon="-3.8672330">
        <ele>849.8</ele>
        <time>2019-08-12T10:05:37Z</time>
      </trkpt>
      <trkpt lat="39.5861350" lon="-3.8672180">
        <ele>849.9</ele>
        <time>2019-08-12T10:05:38Z</time>
      </trkpt>
      <trkpt lat="39.5861560" lon="-3.8672030">
        <ele>850.1</ele>
        <time>2019-08-12T10:05:39Z</time>
      </trkpt>
      <trkpt lat="39.5861780" lon="-3.8671880">
        <ele>850.2</ele>
        <time>2019-08-12T10:05:40Z</time>
      </trkpt>
      <trkpt lat="39.5861990" lon="-3.8671730">
        <ele>850.4</ele>
        <time>2019-08-12T10:05:41Z</time>
      </trkpt>
      <trkpt lat="39.5862210" lon="-3.8671580">
        <ele>850.5</ele>
        <time>2019-08-12T10:05:42Z</time>
      </trkpt>
      <trkpt lat="39.5862430" lon="-3.8671430">
        <ele>850.7</ele>
        <time>2019-08-12T10:05:43Z</time>
      </trkpt>
      <trkpt lat="39.5862650" lon="-3.8671280">
        <ele>850.8</ele>
        <time>2019-08-12T10:05:44Z</time>
      </trkpt>
      <trkpt lat="39.5862880" lon="-3.8671130">
        <ele>851.0</ele>
        <time>2019-08-12T10:05:45Z</time>
      </trkpt>
      <trkpt lat="39.5863110" lon="-3.8670980">
        <ele>851.1</ele>
        <time>2019-08-12T10:05:46Z</time>
      </trkpt>
      <trkpt lat="39.5863330" lon="-3.8670840">
        <ele>851.2</ele>
        <time>2019-08-12T10:05:47Z</time>
      </trkpt>
      <trkpt lat="39.5863560" lon="-3.8670700">
        <ele>851.4</ele>
        <time>2019-08-12T10:05:48Z</time>
      </trkpt>
      <trkpt lat="39.5863800" lon="-3.8670570">
        <ele>851.5</ele>
        <time>2019-08-12T10:05:49Z</time>
      </trkpt>
      <trkpt lat="39.5864030" lon="-3.8670450">
        <ele>851.6</ele>
        <time>2019-08-12T10:05:50Z</time>
      </trkpt>
      <trkpt lat="39.5864270" lon="-3.8670330">
        <ele>851.8</ele>
        <time>2019-08-12T10:05:51Z</time>
      </trkpt>
      <trkpt lat="39.5864510" lon="-3.8670220">
        <ele>851.9</ele>
        <time>2019-08-12T10:05:52Z</time>
      </trkpt>
      <trkpt lat="39.5864750" lon="-3.8670120">
        <ele>852.0</ele>
        <time>2019-08-12T10:05:53Z</time>
      </trkpt>
      <trkpt lat="39.5864990" lon="-3.8670030">
        <ele>852.1</ele>
        <time>2019-08-12T10:05:54Z</time>
      </trkpt>
      <trkpt lat="39.5865230" lon="-3.8669940">
        <ele>852.2</ele>
        <time>2019-08-12T10:05:55Z</time>
      </trkpt>
      <trkpt lat="39.5865480" lon="-3.8669850">
        <ele>852.3</ele>
        <time>2019-08-12T10:05:56Z</time>
      </trkpt>
      <trkpt lat="39.5865720" lon="-3.8669760">
        <ele>852.4</ele>
        <time>2019-08-12T10:05:57Z</time>
      </trkpt>
      <trkpt lat="39.5865960" lon="-3.8669660">
        <ele>852.5</ele>
        <time>2019-08-12T10:05:58Z</time>
      </trkpt>
      <trkpt lat="39.5866200" lon="-3.8669550">
        <ele>852.6</ele>
        <time>2019-08-12T10:05:59Z</time>
      </trkpt>
      <trkpt lat="39.5866440" lon="-3.8669440">
        <ele>852.7</ele>
        <time>2019-08-12T10:06:00Z</time>
      </trkpt>
      <trkpt lat="39.5866680" lon="-3.8669320">
        <ele>852.8</ele>
        <time>2019-08-12T10:06:01Z</time>
      </trkpt>
      <trkpt lat="39.5866920" lon="-3.8669200">
        <ele>852.9</ele>
        <time>2019-08-12T10:06:02Z</time>
      </trkpt>
      <trkpt lat="39.5867170" lon="-3.8669070">
        <ele>853.0</ele>
        <time>2019-08-12T10:06:03Z</time>
      </trkpt>
      <trkpt lat="39.5867420" lon="-3.8668940">
        <ele>853.1</ele>
        <time>2019-08-12T10:06:04Z</time>
      </trkpt>
      <trkpt lat="39.5867670" lon="-3.8668820">
        <ele>853.2</ele>
        <time>2019-08-12T10:06:05Z</time>
      </trkpt>
      <trkpt lat="39.5867920" lon="-3.8668690">
        <ele>853.3</ele>
        <time>2019-08-12T10:06:06Z</time>
      </trkpt>
      <trkpt lat="39.5868170" lon="-3.8668570">
        <ele>853.4</ele>
        <time>2019-08-12T10:06:07Z</time>
      </trkpt>
      <trkpt lat="39.5868430" lon="-3.8668450">
        <ele>853.5</ele>
        <time>2019-08-12T10:06:08Z</time>
      </trkpt>
      <trkpt lat="39.5868680" lon="-3.8668340">
        <ele>853.5</ele>
        <time>2019-08-12T10:06:09Z</time>
      </trkpt>
      <trkpt lat="39.5868940" lon="-3.8668240">
        <ele>853.6</ele>
        <time>2019-08-12T10:06:10Z</time>
      </trkpt>
      <trkpt lat="39.5869200" lon="-3.8668140">
        <ele>853.7</ele>
        <time>2019-08-12T10:06:11Z</time>
      </trkpt>
      <trkpt lat="39.5869470" lon="-3.8668060">
        <ele>853.8</ele>
        <time>2019-08-12T10:06:12Z</time>
      </trkpt>
      <trkpt lat="39.5869730" lon="-3.8667990">
        <ele>853.9</ele>
        <time>2019-08-12T10:06:13Z</time>
      </trkpt>
      <trkpt lat="39.5870000" lon="-3.8667930">
        <ele>854.0</ele>
        <time>2019-08-12T10:06:14Z</time>
      </trkpt>
      <trkpt lat="39.5870260" lon="-3.8667880">
        <ele>854.1</ele>
        <time>2019-08-12T10:06:15Z</time>
      </trkpt>
      <trkpt lat="39.5870530" lon="-3.8667840">
        <ele>854.1</ele>
        <time>2019-08-12T10:06:16Z</time>
      </trkpt>
      <trkpt lat="39.5870800" lon="-3.8667810">
        <ele>854.2</ele>
        <time>2019-08-12T10:06:17Z</time>
      </trkpt>
      <trkpt lat="39.5871070" lon="-3.8667790">
        <ele>854.3</ele>
        <time>2019-08-12T10:06:18Z</time>
      </trkpt>
      <trkpt lat="39.5871350" lon="-3.8667780">
        <ele>854.4</ele>
        <time>2019-08-12T10:06:19Z</time>
      </trkpt>
      <trkpt lat="39.5871620" lon="-3.8667780">
        <ele>854.5</ele>
        <time>2019-08-12T10:06:20Z</time>
      </trkpt>
      <trkpt lat="39.5871900" lon="-3.8667790">
        <ele>854.5</ele>
        <time>2019-08-12T10:06:21Z</time>
      </trkpt>
      <trkpt lat="39.5872170" lon="-3.8667800">
        <ele>854.6</ele>
        <time>2019-08-12T10:06:22Z</time>
      </trkpt>
      <trkpt lat="39.5872450" lon="-3.8667830">
        <ele>854.7</ele>
        <time>2019-08-12T10:06:23Z</time>
      </trkpt>
      <trkpt lat="39.5872720" lon="-3.8667860">
        <ele>854.8</ele>
        <time>2019-08-12T10:06:24Z</time>
      </trkpt>
      <trkpt lat="39.5873000" lon="-3.8667900">
        <ele>854.9</ele>
        <time>2019-08-12T10:06:25Z</time>
      </trkpt>
      <trkpt lat="39.5873280" lon="-3.8667950">
        <ele>854.9</ele>
        <time>2019-08-12T10:06:26Z</time>
      </trkpt>
      <trkpt lat="39.5873560" lon="-3.8667990">
        <ele>855.0</ele>
        <time>2019-08-12T10:06:27Z</time>
      </trkpt>
      <trkpt lat="39.5873840" lon="-3.8668040">
        <ele>855.1</ele>
        <time>2019-08-12T10:06:28Z</time>
      </trkpt>
      <trkpt lat="39.5874130" lon="-3.8668090">
        <ele>855.2</ele>
        <time>2019-08-12T10:06:29Z</time>
      </trkpt>
      <trkpt lat="39.5874410" lon="-3.8668140">
        <ele>855.3</ele>
        <time>2019-08-12T10:06:30Z</time>
      </trkpt>
      <trkpt lat="39.5874700" lon="-3.8668190">
        <ele>855.3</ele>
        <time>2019-08-12T10:06:31Z</time>
      </trkpt>
      <trkpt lat="39.5874980" lon="-3.8668240">
        <ele>855.4</ele>
        <time>2019-08-12T10:06:32Z</time>
      </trkpt>
      <trkpt lat="39.5875270" lon="-3.8668290">
        <ele>855.5</ele>
        <time>2019-08-12T10:06:33Z</time>
      </trkpt>
      <trkpt lat="39.5875560" lon="-3.8668330">
        <ele>855.6</ele>
        <time>2019-08-12T10:06:34Z</time>
      </trkpt>
      <trkpt lat="39.5875850" lon="-3.8668370">
        <ele>855.7</ele>
        <time>2019-08-12T10:06:35Z</time>
      </trkpt>
      <trkpt lat="39.5876140" lon="-3.8668400">
        <ele>855.8</ele>
        <time>2019-08-12T10:06:36Z</time>
      </trkpt>
      <trkpt lat="39.5876430" lon="-3.8668430">
        <ele>856.0</ele>
        <time>2019-08-12T10:06:37Z</time>
      </trkpt>
      <trkpt lat="39.5876720" lon="-3.8668450">
        <ele>856.2</ele>
        <time>2019-08-12T10:06:38Z</time>
      </trkpt>
      <trkpt lat="39.5877010" lon="-3.8668460">
        <ele>856.4</ele>
        <time>2019-08-12T10:06:39Z</time>
      </trkpt>
      <trkpt lat="39.5877310" lon="-3.8668460">
        <ele>856.8</ele>
        <time>2019-08-12T10:06:40Z</time>
      </trkpt>
      <trkpt lat="39.5877600" lon="-3.8668450">
        <ele>857.1</ele>
        <time>2019-08-12T10:06:41Z</time>
      </trkpt>
      <trkpt lat="39.5877890" lon="-3.8668430">
        <ele>857.5</ele>
        <time>2019-08-12T10:06:42Z</time>
      </trkpt>
      <trkpt lat="39.5878180" lon="-3.8668390">
        <ele>857.8</ele>
        <time>2019-08-12T10:06:43Z</time>
      </trkpt>
      <trkpt lat="39.5878470" lon="-3.8668340">
        <ele>858.1</ele>
        <time>2019-08-12T10:06:44Z</time>
      </trkpt>
      <trkpt lat="39.5878890" lon="-3.8668240">
        <ele>858.5</ele>
        <time>2019-08-12T10:06:45Z</time>
      </trkpt>
      <trkpt lat="39.5879030" lon="-3.8668190">
        <ele>858.7</ele>
        <time>2019-08-12T10:06:46Z</time>
      </trkpt>
      <trkpt lat="39.5879300" lon="-3.8668090">
        <ele>859.0</ele>
        <time>2019-08-12T10:06:47Z</time>
      </trkpt>
      <trkpt lat="39.5879570" lon="-3.8667970">
        <ele>859.2</ele>
        <time>2019-08-12T10:06:48Z</time>
      </trkpt>
      <trkpt lat="39.5879830" lon="-3.8667830">
        <ele>859.5</ele>
        <time>2019-08-12T10:06:49Z</time>
      </trkpt>
      <trkpt lat="39.5880080" lon="-3.8667680">
        <ele>859.8</ele>
        <time>2019-08-12T10:06:50Z</time>
      </trkpt>
      <trkpt lat="39.5880320" lon="-3.8667500">
        <ele>860.0</ele>
        <time>2019-08-12T10:06:51Z</time>
      </trkpt>
      <trkpt lat="39.5880550" lon="-3.8667310">
        <ele>860.2</ele>
        <time>2019-08-12T10:06:52Z</time>
      </trkpt>
      <trkpt lat="39.5880770" lon="-3.8667100">
        <ele>860.3</ele>
        <time>2019-08-12T10:06:53Z</time>
      </trkpt>
      <trkpt lat="39.5880990" lon="-3.8666870">
        <ele>860.5</ele>
        <time>2019-08-12T10:06:54Z</time>
      </trkpt>
      <trkpt lat="39.5881190" lon="-3.8666630">
        <ele>860.7</ele>
        <time>2019-08-12T10:06:55Z</time>
      </trkpt>
      <trkpt lat="39.5881380" lon="-3.8666360">
        <ele>860.8</ele>
        <time>2019-08-12T10:06:56Z</time>
      </trkpt>
      <trkpt lat="39.5881550" lon="-3.8666090">
        <ele>861.0</ele>
        <time>2019-08-12T10:06:57Z</time>
      </trkpt>
      <trkpt lat="39.5881720" lon="-3.8665800">
        <ele>861.1</ele>
        <time>2019-08-12T10:06:58Z</time>
      </trkpt>
      <trkpt lat="39.5881870" lon="-3.8665490">
        <ele>861.2</ele>
        <time>2019-08-12T10:06:59Z</time>
      </trkpt>
      <trkpt lat="39.5882000" lon="-3.8665180">
        <ele>861.3</ele>
        <time>2019-08-12T10:07:00Z</time>
      </trkpt>
      <trkpt lat="39.5882130" lon="-3.8664850">
        <ele>861.4</ele>
        <time>2019-08-12T10:07:01Z</time>
      </trkpt>
      <trkpt lat="39.5882240" lon="-3.8664520">
        <ele>861.4</ele>
        <time>2019-08-12T10:07:02Z</time>
      </trkpt>
      <trkpt lat="39.5882330" lon="-3.8664180">
        <ele>861.5</ele>
        <time>2019-08-12T10:07:03Z</time>
      </trkpt>
      <trkpt lat="39.5882410" lon="-3.8663830">
        <ele>861.5</ele>
        <time>2019-08-12T10:07:04Z</time>
      </trkpt>
      <trkpt lat="39.5882470" lon="-3.8663480">
        <ele>861.6</ele>
        <time>2019-08-12T10:07:05Z</time>
      </trkpt>
      <trkpt lat="39.5882520" lon="-3.8663130">
        <ele>861.6</ele>
        <time>2019-08-12T10:07:06Z</time>
      </trkpt>
      <trkpt lat="39.5882550" lon="-3.8662770">
        <ele>861.6</ele>
        <time>2019-08-12T10:07:07Z</time>
      </trkpt>
      <trkpt lat="39.5882570" lon="-3.8662420">
        <ele>861.6</ele>
        <time>2019-08-12T10:07:08Z</time>
      </trkpt>
      <trkpt lat="39.5882580" lon="-3.8662060">
        <ele>861.6</ele>
        <time>2019-08-12T10:07:09Z</time>
      </trkpt>
      <trkpt lat="39.5882580" lon="-3.8661700">
        <ele>861.6</ele>
        <time>2019-08-12T10:07:10Z</time>
      </trkpt>
      <trkpt lat="39.5882580" lon="-3.8661340">
        <ele>861.6</ele>
        <time>2019-08-12T10:07:11Z</time>
      </trkpt>
      <trkpt lat="39.5882570" lon="-3.8660980">
        <ele>861.6</ele>
        <time>2019-08-12T10:07:12Z</time>
      </trkpt>
      <trkpt lat="39.5882550" lon="-3.8660620">
        <ele>861.6</ele>
        <time>2019-08-12T10:07:13Z</time>
      </trkpt>
      <trkpt lat="39.5882540" lon="-3.8660270">
        <ele>861.6</ele>
        <time>2019-08-12T10:07:14Z</time>
      </trkpt>
      <trkpt lat="39.5882520" lon="-3.8659910">
        <ele>861.6</ele>
        <time>2019-08-12T10:07:15Z</time>
      </trkpt>
      <trkpt lat="39.5882510" lon="-3.8659560">
        <ele>861.6</ele>
        <time>2019-08-12T10:07:16Z</time>
      </trkpt>
      <trkpt lat="39.5882500" lon="-3.8659210">
        <ele>861.6</ele>
        <time>2019-08-12T10:07:17Z</time>
      </trkpt>
      <trkpt lat="39.5882490" lon="-3.8658850">
        <ele>861.6</ele>
        <time>2019-08-12T10:07:18Z</time>
      </trkpt>
      <trkpt lat="39.5882480" lon="-3.8658500">
        <ele>861.6</ele>
        <time>2019-08-12T10:07:19Z</time>
      </trkpt>
      <trkpt lat="39.5882470" lon="-3.8658150">
        <ele>861.6</ele>
        <time>2019-08-12T10:07:20Z</time>
      </trkpt>
      <trkpt lat="39.5882460" lon="-3.8657790">
        <ele>861.6</ele>
        <time>2019-08-12T10:07:21Z</time>
      </trkpt>
      <trkpt lat="39.5882450" lon="-3.8657430">
        <ele>861.6</ele>
        <time>2019-08-12T10:07:22Z</time>
      </trkpt>
      <trkpt lat="39.5882450" lon="-3.8657070">
        <ele>861.6</ele>
        <time>2019-08-12T10:07:23Z</time>
      </trkpt>
      <trkpt lat="39.5882450" lon="-3.8656710">
        <ele>861.7</ele>
        <time>2019-08-12T10:07:24Z</time>
      </trkpt>
      <trkpt lat="39.5882450" lon="-3.8656350">
        <ele>861.7</ele>
        <time>2019-08-12T10:07:25Z</time>
      </trkpt>
      <trkpt lat="39.5882460" lon="-3.8655980">
        <ele>861.7</ele>
        <time>2019-08-12T10:07:26Z</time>
      </trkpt>
      <trkpt lat="39.5882470" lon="-3.8655610">
        <ele>861.7</ele>
        <time>2019-08-12T10:07:27Z</time>
      </trkpt>
      <trkpt lat="39.5882490" lon="-3.8655230">
        <ele>861.7</ele>
        <time>2019-08-12T10:07:28Z</time>
      </trkpt>
      <trkpt lat="39.5882520" lon="-3.8654860">
        <ele>861.7</ele>
        <time>2019-08-12T10:07:29Z</time>
      </trkpt>
      <trkpt lat="39.5882560" lon="-3.8654480">
        <ele>861.8</ele>
        <time>2019-08-12T10:07:30Z</time>
      </trkpt>
      <trkpt lat="39.5882610" lon="-3.8654110">
        <ele>861.8</ele>
        <time>2019-08-12T10:07:31Z</time>
      </trkpt>
      <trkpt lat="39.5882680" lon="-3.8653730">
        <ele>861.9</ele>
        <time>2019-08-12T10:07:32Z</time>
      </trkpt>
      <trkpt lat="39.5882760" lon="-3.8653350">
        <ele>861.9</ele>
        <time>2019-08-12T10:07:33Z</time>
      </trkpt>
      <trkpt lat="39.5882850" lon="-3.8652980">
        <ele>862.0</ele>
        <time>2019-08-12T10:07:34Z</time>
      </trkpt>
      <trkpt lat="39.5882950" lon="-3.8652600">
        <ele>862.0</ele>
        <time>2019-08-12T10:07:35Z</time>
      </trkpt>
      <trkpt lat="39.5883070" lon="-3.8652230">
        <ele>862.1</ele>
        <time>2019-08-12T10:07:36Z</time>
      </trkpt>
      <trkpt lat="39.5883190" lon="-3.8651870">
        <ele>862.2</ele>
        <time>2019-08-12T10:07:37Z</time>
      </trkpt>
      <trkpt lat="39.5883310" lon="-3.8651510">
        <ele>862.3</ele>
        <time>2019-08-12T10:07:38Z</time>
      </trkpt>
      <trkpt lat="39.5883420" lon="-3.8651160">
        <ele>862.3</ele>
        <time>2019-08-12T10:07:39Z</time>
      </trkpt>
      <trkpt lat="39.5883540" lon="-3.8650820">
        <ele>862.4</ele>
        <time>2019-08-12T10:07:40Z</time>
      </trkpt>
      <trkpt lat="39.5883670" lon="-3.8650490">
        <ele>862.5</ele>
        <time>2019-08-12T10:07:41Z</time>
      </trkpt>
      <trkpt lat="39.5883800" lon="-3.8650170">
        <ele>862.6</ele>
        <time>2019-08-12T10:07:42Z</time>
      </trkpt>
      <trkpt lat="39.5883950" lon="-3.8649860">
        <ele>862.6</ele>
        <time>2019-08-12T10:07:43Z</time>
      </trkpt>
      <trkpt lat="39.5884110" lon="-3.8649560">
        <ele>862.7</ele>
        <time>2019-08-12T10:07:44Z</time>
      </trkpt>
      <trkpt lat="39.5884290" lon="-3.8649270">
        <ele>862.8</ele>
        <time>2019-08-12T10:07:45Z</time>
      </trkpt>
      <trkpt lat="39.5884470" lon="-3.8648990">
        <ele>862.9</ele>
        <time>2019-08-12T10:07:46Z</time>
      </trkpt>
      <trkpt lat="39.5884670" lon="-3.8648720">
        <ele>863.0</ele>
        <time>2019-08-12T10:07:47Z</time>
      </trkpt>
      <trkpt lat="39.5884890" lon="-3.8648470">
        <ele>863.1</ele>
        <time>2019-08-12T10:07:48Z</time>
      </trkpt>
      <trkpt lat="39.5885110" lon="-3.8648230">
        <ele>863.2</ele>
        <time>2019-08-12T10:07:49Z</time>
      </trkpt>
      <trkpt lat="39.5885340" lon="-3.8648000">
        <ele>863.3</ele>
        <time>2019-08-12T10:07:50Z</time>
      </trkpt>
      <trkpt lat="39.5885590" lon="-3.8647790">
        <ele>863.4</ele>
        <time>2019-08-12T10:07:51Z</time>
      </trkpt>
      <trkpt lat="39.5885840" lon="-3.8647590">
        <ele>863.5</ele>
        <time>2019-08-12T10:07:52Z</time>
      </trkpt>
      <trkpt lat="39.5886100" lon="-3.8647410">
        <ele>863.5</ele>
        <time>2019-08-12T10:07:53Z</time>
      </trkpt>
      <trkpt lat="39.5886370" lon="-3.8647240">
        <ele>863.7</ele>
        <time>2019-08-12T10:07:54Z</time>
      </trkpt>
      <trkpt lat="39.5886650" lon="-3.8647090">
        <ele>863.8</ele>
        <time>2019-08-12T10:07:55Z</time>
      </trkpt>
      <trkpt lat="39.5886920" lon="-3.8646950">
        <ele>863.9</ele>
        <time>2019-08-12T10:07:56Z</time>
      </trkpt>
      <trkpt lat="39.5887200" lon="-3.8646830">
        <ele>864.0</ele>
        <time>2019-08-12T10:07:57Z</time>
      </trkpt>
      <trkpt lat="39.5887480" lon="-3.8646720">
        <ele>864.2</ele>
        <time>2019-08-12T10:07:58Z</time>
      </trkpt>
      <trkpt lat="39.5887750" lon="-3.8646620">
        <ele>864.3</ele>
        <time>2019-08-12T10:07:59Z</time>
      </trkpt>
      <trkpt lat="39.5888020" lon="-3.8646540">
        <ele>864.5</ele>
        <time>2019-08-12T10:08:00Z</time>
      </trkpt>
      <trkpt lat="39.5888290" lon="-3.8646470">
        <ele>864.6</ele>
        <time>2019-08-12T10:08:01Z</time>
      </trkpt>
      <trkpt lat="39.5888560" lon="-3.8646420">
        <ele>864.8</ele>
        <time>2019-08-12T10:08:02Z</time>
      </trkpt>
      <trkpt lat="39.5888820" lon="-3.8646370">
        <ele>865.0</ele>
        <time>2019-08-12T10:08:03Z</time>
      </trkpt>
      <trkpt lat="39.5889090" lon="-3.8646320">
        <ele>865.1</ele>
        <time>2019-08-12T10:08:04Z</time>
      </trkpt>
      <trkpt lat="39.5889370" lon="-3.8646280">
        <ele>865.3</ele>
        <time>2019-08-12T10:08:05Z</time>
      </trkpt>
      <trkpt lat="39.5889650" lon="-3.8646240">
        <ele>865.5</ele>
        <time>2019-08-12T10:08:06Z</time>
      </trkpt>
      <trkpt lat="39.5889950" lon="-3.8646200">
        <ele>865.7</ele>
        <time>2019-08-12T10:08:07Z</time>
      </trkpt>
      <trkpt lat="39.5890240" lon="-3.8646150">
        <ele>865.9</ele>
        <time>2019-08-12T10:08:08Z</time>
      </trkpt>
      <trkpt lat="39.5890550" lon="-3.8646090">
        <ele>866.2</ele>
        <time>2019-08-12T10:08:09Z</time>
      </trkpt>
      <trkpt lat="39.5890850" lon="-3.8646010">
        <ele>866.4</ele>
        <time>2019-08-12T10:08:10Z</time>
      </trkpt>
      <trkpt lat="39.5891150" lon="-3.8645920">
        <ele>866.6</ele>
        <time>2019-08-12T10:08:11Z</time>
      </trkpt>
      <trkpt lat="39.5891450" lon="-3.8645810">
        <ele>866.9</ele>
        <time>2019-08-12T10:08:12Z</time>
      </trkpt>
      <trkpt lat="39.5891740" lon="-3.8645680">
        <ele>867.1</ele>
        <time>2019-08-12T10:08:13Z</time>
      </trkpt>
      <trkpt lat="39.5892040" lon="-3.8645530">
        <ele>867.3</ele>
        <time>2019-08-12T10:08:14Z</time>
      </trkpt>
      <trkpt lat="39.5892320" lon="-3.8645370">
        <ele>867.6</ele>
        <time>2019-08-12T10:08:15Z</time>
      </trkpt>
      <trkpt lat="39.5892600" lon="-3.8645190">
        <ele>867.8</ele>
        <time>2019-08-12T10:08:16Z</time>
      </trkpt>
      <trkpt lat="39.5892870" lon="-3.8645000">
        <ele>868.0</ele>
        <time>2019-08-12T10:08:17Z</time>
      </trkpt>
      <trkpt lat="39.5893130" lon="-3.8644780">
        <ele>868.2</ele>
        <time>2019-08-12T10:08:18Z</time>
      </trkpt>
      <trkpt lat="39.5893370" lon="-3.8644550">
        <ele>868.4</ele>
        <time>2019-08-12T10:08:19Z</time>
      </trkpt>
      <trkpt lat="39.5893610" lon="-3.8644300">
        <ele>868.6</ele>
        <time>2019-08-12T10:08:20Z</time>
      </trkpt>
      <trkpt lat="39.5893830" lon="-3.8644040">
        <ele>868.7</ele>
        <time>2019-08-12T10:08:21Z</time>
      </trkpt>
      <trkpt lat="39.5894040" lon="-3.8643760">
        <ele>868.9</ele>
        <time>2019-08-12T10:08:22Z</time>
      </trkpt>
      <trkpt lat="39.5894240" lon="-3.8643470">
        <ele>869.1</ele>
        <time>2019-08-12T10:08:23Z</time>
      </trkpt>
      <trkpt lat="39.5894430" lon="-3.8643160">
        <ele>869.3</ele>
        <time>2019-08-12T10:08:24Z</time>
      </trkpt>
      <trkpt lat="39.5894600" lon="-3.8642850">
        <ele>869.4</ele>
        <time>2019-08-12T10:08:25Z</time>
      </trkpt>
      <trkpt lat="39.5894770" lon="-3.8642520">
        <ele>869.6</ele>
        <time>2019-08-12T10:08:26Z</time>
      </trkpt>
      <trkpt lat="39.5894910" lon="-3.8642190">
        <ele>869.7</ele>
        <time>2019-08-12T10:08:27Z</time>
      </trkpt>
      <trkpt lat="39.5895040" lon="-3.8641850">
        <ele>869.9</ele>
        <time>2019-08-12T10:08:28Z</time>
      </trkpt>
      <trkpt lat="39.5895130" lon="-3.8641510">
        <ele>870.0</ele>
        <time>2019-08-12T10:08:29Z</time>
      </trkpt>
      <trkpt lat="39.5895210" lon="-3.8641160">
        <ele>870.1</ele>
        <time>2019-08-12T10:08:30Z</time>
      </trkpt>
      <trkpt lat="39.5895260" lon="-3.8640800">
        <ele>870.3</ele>
        <time>2019-08-12T10:08:31Z</time>
      </trkpt>
      <trkpt lat="39.5895300" lon="-3.8640440">
        <ele>870.4</ele>
        <time>2019-08-12T10:08:32Z</time>
      </trkpt>
      <trkpt lat="39.5895310" lon="-3.8640070">
        <ele>870.6</ele>
        <time>2019-08-12T10:08:33Z</time>
      </trkpt>
      <trkpt lat="39.5895320" lon="-3.8639700">
        <ele>870.7</ele>
        <time>2019-08-12T10:08:34Z</time>
      </trkpt>
      <trkpt lat="39.5895310" lon="-3.8639330">
        <ele>870.9</ele>
        <time>2019-08-12T10:08:35Z</time>
      </trkpt>
      <trkpt lat="39.5895300" lon="-3.8638950">
        <ele>871.0</ele>
        <time>2019-08-12T10:08:36Z</time>
      </trkpt>
      <trkpt lat="39.5895280" lon="-3.8638570">
        <ele>871.2</ele>
        <time>2019-08-12T10:08:37Z</time>
      </trkpt>
      <trkpt lat="39.5895260" lon="-3.8638180">
        <ele>871.4</ele>
        <time>2019-08-12T10:08:38Z</time>
      </trkpt>
      <trkpt lat="39.5895230" lon="-3.8637790">
        <ele>871.5</ele>
        <time>2019-08-12T10:08:39Z</time>
      </trkpt>
      <trkpt lat="39.5895200" lon="-3.8637400">
        <ele>871.7</ele>
        <time>2019-08-12T10:08:40Z</time>
      </trkpt>
      <trkpt lat="39.5895170" lon="-3.8637010">
        <ele>871.9</ele>
        <time>2019-08-12T10:08:41Z</time>
      </trkpt>
      <trkpt lat="39.5895140" lon="-3.8636620">
        <ele>872.0</ele>
        <time>2019-08-12T10:08:42Z</time>
      </trkpt>
      <trkpt lat="39.5895110" lon="-3.8636220">
        <ele>872.2</ele>
        <time>2019-08-12T10:08:43Z</time>
      </trkpt>
      <trkpt lat="39.5895070" lon="-3.8635830">
        <ele>872.4</ele>
        <time>2019-08-12T10:08:44Z</time>
      </trkpt>
      <trkpt lat="39.5895040" lon="-3.8635440">
        <ele>872.5</ele>
        <time>2019-08-12T10:08:45Z</time>
      </trkpt>
      <trkpt lat="39.5895000" lon="-3.8635040">
        <ele>872.7</ele>
        <time>2019-08-12T10:08:46Z</time>
      </trkpt>
      <trkpt lat="39.5894970" lon="-3.8634650">
        <ele>872.9</ele>
        <time>2019-08-12T10:08:47Z</time>
      </trkpt>
      <trkpt lat="39.5894930" lon="-3.8634270">
        <ele>873.1</ele>
        <time>2019-08-12T10:08:48Z</time>
      </trkpt>
      <trkpt lat="39.5894900" lon="-3.8633880">
        <ele>873.2</ele>
        <time>2019-08-12T10:08:49Z</time>
      </trkpt>
      <trkpt lat="39.5894870" lon="-3.8633500">
        <ele>873.4</ele>
        <time>2019-08-12T10:08:50Z</time>
      </trkpt>
      <trkpt lat="39.5894840" lon="-3.8633110">
        <ele>873.6</ele>
        <time>2019-08-12T10:08:51Z</time>
      </trkpt>
      <trkpt lat="39.5894810" lon="-3.8632730">
        <ele>873.7</ele>
        <time>2019-08-12T10:08:52Z</time>
      </trkpt>
      <trkpt lat="39.5894780" lon="-3.8632350">
        <ele>873.9</ele>
        <time>2019-08-12T10:08:53Z</time>
      </trkpt>
      <trkpt lat="39.5894760" lon="-3.8631980">
        <ele>874.1</ele>
        <time>2019-08-12T10:08:54Z</time>
      </trkpt>
      <trkpt lat="39.5894740" lon="-3.8631600">
        <ele>874.2</ele>
        <time>2019-08-12T10:08:55Z</time>
      </trkpt>
      <trkpt lat="39.5894720" lon="-3.8631230">
        <ele>874.4</ele>
        <time>2019-08-12T10:08:56Z</time>
      </trkpt>
      <trkpt lat="39.5894710" lon="-3.8630860">
        <ele>874.5</ele>
        <time>2019-08-12T10:08:57Z</time>
      </trkpt>
      <trkpt lat="39.5894700" lon="-3.8630490">
        <ele>874.7</ele>
        <time>2019-08-12T10:08:58Z</time>
      </trkpt>
      <trkpt lat="39.5894700" lon="-3.8630120">
        <ele>874.8</ele>
        <time>2019-08-12T10:08:59Z</time>
      </trkpt>
      <trkpt lat="39.5894700" lon="-3.8629750">
        <ele>874.9</ele>
        <time>2019-08-12T10:09:00Z</time>
      </trkpt>
      <trkpt lat="39.5894710" lon="-3.8629390">
        <ele>875.0</ele>
        <time>2019-08-12T10:09:01Z</time>
      </trkpt>
      <trkpt lat="39.5894720" lon="-3.8629030">
        <ele>875.1</ele>
        <time>2019-08-12T10:09:02Z</time>
      </trkpt>
      <trkpt lat="39.5894740" lon="-3.8628670">
        <ele>875.2</ele>
        <time>2019-08-12T10:09:03Z</time>
      </trkpt>
      <trkpt lat="39.5894770" lon="-3.8628320">
        <ele>875.3</ele>
        <time>2019-08-12T10:09:04Z</time>
      </trkpt>
      <trkpt lat="39.5894800" lon="-3.8627970">
        <ele>875.3</ele>
        <time>2019-08-12T10:09:05Z</time>
      </trkpt>
      <trkpt lat="39.5894830" lon="-3.8627620">
        <ele>875.4</ele>
        <time>2019-08-12T10:09:06Z</time>
      </trkpt>
      <trkpt lat="39.5894870" lon="-3.8627280">
        <ele>875.4</ele>
        <time>2019-08-12T10:09:07Z</time>
      </trkpt>
      <trkpt lat="39.5894920" lon="-3.8626950">
        <ele>875.5</ele>
        <time>2019-08-12T10:09:08Z</time>
      </trkpt>
      <trkpt lat="39.5894980" lon="-3.8626610">
        <ele>875.5</ele>
        <time>2019-08-12T10:09:09Z</time>
      </trkpt>
      <trkpt lat="39.5895030" lon="-3.8626280">
        <ele>875.5</ele>
        <time>2019-08-12T10:09:10Z</time>
      </trkpt>
      <trkpt lat="39.5895100" lon="-3.8625940">
        <ele>875.6</ele>
        <time>2019-08-12T10:09:11Z</time>
      </trkpt>
      <trkpt lat="39.5895170" lon="-3.8625610">
        <ele>875.6</ele>
        <time>2019-08-12T10:09:12Z</time>
      </trkpt>
      <trkpt lat="39.5895240" lon="-3.8625270">
        <ele>875.6</ele>
        <time>2019-08-12T10:09:13Z</time>
      </trkpt>
      <trkpt lat="39.5895320" lon="-3.8624930">
        <ele>875.6</ele>
        <time>2019-08-12T10:09:14Z</time>
      </trkpt>
      <trkpt lat="39.5895410" lon="-3.8624580">
        <ele>875.6</ele>
        <time>2019-08-12T10:09:15Z</time>
      </trkpt>
      <trkpt lat="39.5895490" lon="-3.8624240">
        <ele>875.6</ele>
        <time>2019-08-12T10:09:16Z</time>
      </trkpt>
      <trkpt lat="39.5895590" lon="-3.8623890">
        <ele>875.6</ele>
        <time>2019-08-12T10:09:17Z</time>
      </trkpt>
      <trkpt lat="39.5895690" lon="-3.8623540">
        <ele>875.6</ele>
        <time>2019-08-12T10:09:18Z</time>
      </trkpt>
      <trkpt lat="39.5895790" lon="-3.8623200">
        <ele>875.6</ele>
        <time>2019-08-12T10:09:19Z</time>
      </trkpt>
      <trkpt lat="39.5895900" lon="-3.8622850">
        <ele>875.7</ele>
        <time>2019-08-12T10:09:20Z</time>
      </trkpt>
      <trkpt lat="39.5896010" lon="-3.8622510">
        <ele>875.7</ele>
        <time>2019-08-12T10:09:21Z</time>
      </trkpt>
      <trkpt lat="39.5896130" lon="-3.8622180">
        <ele>875.7</ele>
        <time>2019-08-12T10:09:22Z</time>
      </trkpt>
      <trkpt lat="39.5896250" lon="-3.8621850">
        <ele>875.7</ele>
        <time>2019-08-12T10:09:23Z</time>
      </trkpt>
      <trkpt lat="39.5896380" lon="-3.8621530">
        <ele>875.7</ele>
        <time>2019-08-12T10:09:24Z</time>
      </trkpt>
      <trkpt lat="39.5896520" lon="-3.8621210">
        <ele>875.7</ele>
        <time>2019-08-12T10:09:25Z</time>
      </trkpt>
      <trkpt lat="39.5896660" lon="-3.8620910">
        <ele>875.8</ele>
        <time>2019-08-12T10:09:26Z</time>
      </trkpt>
      <trkpt lat="39.5896800" lon="-3.8620600">
        <ele>875.8</ele>
        <time>2019-08-12T10:09:27Z</time>
      </trkpt>
      <trkpt lat="39.5896950" lon="-3.8620300">
        <ele>875.8</ele>
        <time>2019-08-12T10:09:28Z</time>
      </trkpt>
      <trkpt lat="39.5897100" lon="-3.8620010">
        <ele>875.9</ele>
        <time>2019-08-12T10:09:29Z</time>
      </trkpt>
      <trkpt lat="39.5897260" lon="-3.8619710">
        <ele>875.9</ele>
        <time>2019-08-12T10:09:30Z</time>
      </trkpt>
      <trkpt lat="39.5897410" lon="-3.8619420">
        <ele>876.0</ele>
        <time>2019-08-12T10:09:31Z</time>
      </trkpt>
      <trkpt lat="39.5897570" lon="-3.8619130">
        <ele>876.0</ele>
        <time>2019-08-12T10:09:32Z</time>
      </trkpt>
      <trkpt lat="39.5897720" lon="-3.8618840">
        <ele>876.0</ele>
        <time>2019-08-12T10:09:33Z</time>
      </trkpt>
      <trkpt lat="39.5897880" lon="-3.8618560">
        <ele>876.1</ele>
        <time>2019-08-12T10:09:34Z</time>
      </trkpt>
      <trkpt lat="39.5898040" lon="-3.8618270">
        <ele>876.1</ele>
        <time>2019-08-12T10:09:35Z</time>
      </trkpt>
      <trkpt lat="39.5898200" lon="-3.8617980">
        <ele>876.1</ele>
        <time>2019-08-12T10:09:36Z</time>
      </trkpt>
      <trkpt lat="39.5898360" lon="-3.8617690">
        <ele>876.2</ele>
        <time>2019-08-12T10:09:37Z</time>
      </trkpt>
      <trkpt lat="39.5898510" lon="-3.8617400">
        <ele>876.2</ele>
        <time>2019-08-12T10:09:38Z</time>
      </trkpt>
      <trkpt lat="39.5898670" lon="-3.8617110">
        <ele>876.2</ele>
        <time>2019-08-12T10:09:39Z</time>
      </trkpt>
      <trkpt lat="39.5898820" lon="-3.8616830">
        <ele>876.2</ele>
        <time>2019-08-12T10:09:40Z</time>
      </trkpt>
      <trkpt lat="39.5898970" lon="-3.8616540">
        <ele>876.3</ele>
        <time>2019-08-12T10:09:41Z</time>
      </trkpt>
      <trkpt lat="39.5899120" lon="-3.8616250">
        <ele>876.3</ele>
        <time>2019-08-12T10:09:42Z</time>
      </trkpt>
      <trkpt lat="39.5899260" lon="-3.8615950">
        <ele>876.3</ele>
        <time>2019-08-12T10:09:43Z</time>
      </trkpt>
      <trkpt lat="39.5899410" lon="-3.8615660">
        <ele>876.3</ele>
        <time>2019-08-12T10:09:44Z</time>
      </trkpt>
      <trkpt lat="39.5899560" lon="-3.8615370">
        <ele>876.3</ele>
        <time>2019-08-12T10:09:45Z</time>
      </trkpt>
      <trkpt lat="39.5899710" lon="-3.8615080">
        <ele>876.3</ele>
        <time>2019-08-12T10:09:46Z</time>
      </trkpt>
      <trkpt lat="39.5899860" lon="-3.8614790">
        <ele>876.3</ele>
        <time>2019-08-12T10:09:47Z</time>
      </trkpt>
      <trkpt lat="39.5900020" lon="-3.8614510">
        <ele>876.3</ele>
        <time>2019-08-12T10:09:48Z</time>
      </trkpt>
      <trkpt lat="39.5900190" lon="-3.8614220">
        <ele>876.3</ele>
        <time>2019-08-12T10:09:49Z</time>
      </trkpt>
      <trkpt lat="39.5900360" lon="-3.8613930">
        <ele>876.3</ele>
        <time>2019-08-12T10:09:50Z</time>
      </trkpt>
      <trkpt lat="39.5900550" lon="-3.8613650">
        <ele>876.2</ele>
        <time>2019-08-12T10:09:51Z</time>
      </trkpt>
      <trkpt lat="39.5900750" lon="-3.8613380">
        <ele>876.2</ele>
        <time>2019-08-12T10:09:52Z</time>
      </trkpt>
      <trkpt lat="39.5900950" lon="-3.8613100">
        <ele>876.2</ele>
        <time>2019-08-12T10:09:53Z</time>
      </trkpt>
      <trkpt lat="39.5901180" lon="-3.8612840">
        <ele>876.3</ele>
        <time>2019-08-12T10:09:54Z</time>
      </trkpt>
      <trkpt lat="39.5901410" lon="-3.8612580">
        <ele>876.3</ele>
        <time>2019-08-12T10:09:55Z</time>
      </trkpt>
      <trkpt lat="39.5901670" lon="-3.8612340">
        <ele>876.3</ele>
        <time>2019-08-12T10:09:56Z</time>
      </trkpt>
      <trkpt lat="39.5901930" lon="-3.8612120">
        <ele>876.3</ele>
        <time>2019-08-12T10:09:57Z</time>
      </trkpt>
      <trkpt lat="39.5902210" lon="-3.8611910">
        <ele>876.4</ele>
        <time>2019-08-12T10:09:58Z</time>
      </trkpt>
      <trkpt lat="39.5902490" lon="-3.8611730">
        <ele>876.5</ele>
        <time>2019-08-12T10:09:59Z</time>
      </trkpt>
      <trkpt lat="39.5902790" lon="-3.8611580">
        <ele>876.5</ele>
        <time>2019-08-12T10:10:00Z</time>
      </trkpt>
      <trkpt lat="39.5903080" lon="-3.8611470">
        <ele>876.6</ele>
        <time>2019-08-12T10:10:01Z</time>
      </trkpt>
      <trkpt lat="39.5903370" lon="-3.8611400">
        <ele>876.7</ele>
        <time>2019-08-12T10:10:02Z</time>
      </trkpt>
      <trkpt lat="39.5903660" lon="-3.8611360">
        <ele>876.9</ele>
        <time>2019-08-12T10:10:03Z</time>
      </trkpt>
      <trkpt lat="39.5903950" lon="-3.8611360">
        <ele>877.0</ele>
        <time>2019-08-12T10:10:04Z</time>
      </trkpt>
      <trkpt lat="39.5904230" lon="-3.8611400">
        <ele>877.1</ele>
        <time>2019-08-12T10:10:05Z</time>
      </trkpt>
      <trkpt lat="39.5904500" lon="-3.8611480">
        <ele>877.3</ele>
        <time>2019-08-12T10:10:06Z</time>
      </trkpt>
      <trkpt lat="39.5904750" lon="-3.8611600">
        <ele>877.4</ele>
        <time>2019-08-12T10:10:07Z</time>
      </trkpt>
      <trkpt lat="39.5904990" lon="-3.8611760">
        <ele>877.6</ele>
        <time>2019-08-12T10:10:08Z</time>
      </trkpt>
      <trkpt lat="39.5905200" lon="-3.8611970">
        <ele>877.7</ele>
        <time>2019-08-12T10:10:09Z</time>
      </trkpt>
      <trkpt lat="39.5905400" lon="-3.8612210">
        <ele>877.8</ele>
        <time>2019-08-12T10:10:10Z</time>
      </trkpt>
      <trkpt lat="39.5905570" lon="-3.8612490">
        <ele>877.8</ele>
        <time>2019-08-12T10:10:11Z</time>
      </trkpt>
      <trkpt lat="39.5905730" lon="-3.8612810">
        <ele>877.9</ele>
        <time>2019-08-12T10:10:12Z</time>
      </trkpt>
      <trkpt lat="39.5905870" lon="-3.8613160">
        <ele>878.0</ele>
        <time>2019-08-12T10:10:13Z</time>
      </trkpt>
      <trkpt lat="39.5905990" lon="-3.8613530">
        <ele>878.2</ele>
        <time>2019-08-12T10:10:14Z</time>
      </trkpt>
      <trkpt lat="39.5906090" lon="-3.8613920">
        <ele>878.3</ele>
        <time>2019-08-12T10:10:15Z</time>
      </trkpt>
      <trkpt lat="39.5906180" lon="-3.8614340">
        <ele>878.4</ele>
        <time>2019-08-12T10:10:16Z</time>
      </trkpt>
      <trkpt lat="39.5906260" lon="-3.8614760">
        <ele>878.6</ele>
        <time>2019-08-12T10:10:17Z</time>
      </trkpt>
      <trkpt lat="39.5906330" lon="-3.8615200">
        <ele>878.7</ele>
        <time>2019-08-12T10:10:18Z</time>
      </trkpt>
      <trkpt lat="39.5906380" lon="-3.8615640">
        <ele>878.9</ele>
        <time>2019-08-12T10:10:19Z</time>
      </trkpt>
      <trkpt lat="39.5906430" lon="-3.8616090">
        <ele>879.1</ele>
        <time>2019-08-12T10:10:20Z</time>
      </trkpt>
      <trkpt lat="39.5906470" lon="-3.8616540">
        <ele>879.3</ele>
        <time>2019-08-12T10:10:21Z</time>
      </trkpt>
      <trkpt lat="39.5906500" lon="-3.8616990">
        <ele>879.5</ele>
        <time>2019-08-12T10:10:22Z</time>
      </trkpt>
      <trkpt lat="39.5906530" lon="-3.8617450">
        <ele>879.8</ele>
        <time>2019-08-12T10:10:23Z</time>
      </trkpt>
      <trkpt lat="39.5906570" lon="-3.8617910">
        <ele>880.0</ele>
        <time>2019-08-12T10:10:24Z</time>
      </trkpt>
      <trkpt lat="39.5906600" lon="-3.8618380">
        <ele>880.2</ele>
        <time>2019-08-12T10:10:25Z</time>
      </trkpt>
      <trkpt lat="39.5906640" lon="-3.8618840">
        <ele>880.5</ele>
        <time>2019-08-12T10:10:26Z</time>
      </trkpt>
      <trkpt lat="39.5906680" lon="-3.8619310">
        <ele>880.8</ele>
        <time>2019-08-12T10:10:27Z</time>
      </trkpt>
      <trkpt lat="39.5906730" lon="-3.8619780">
        <ele>881.0</ele>
        <time>2019-08-12T10:10:28Z</time>
      </trkpt>
      <trkpt lat="39.5906790" lon="-3.8620250">
        <ele>881.3</ele>
        <time>2019-08-12T10:10:29Z</time>
      </trkpt>
      <trkpt lat="39.5906850" lon="-3.8620710">
        <ele>881.5</ele>
        <time>2019-08-12T10:10:30Z</time>
      </trkpt>
      <trkpt lat="39.5906900" lon="-3.8621180">
        <ele>881.8</ele>
        <time>2019-08-12T10:10:31Z</time>
      </trkpt>
      <trkpt lat="39.5906950" lon="-3.8621640">
        <ele>882.1</ele>
        <time>2019-08-12T10:10:32Z</time>
      </trkpt>
      <trkpt lat="39.5907000" lon="-3.8622090">
        <ele>882.4</ele>
        <time>2019-08-12T10:10:33Z</time>
      </trkpt>
      <trkpt lat="39.5907030" lon="-3.8622540">
        <ele>882.6</ele>
        <time>2019-08-12T10:10:34Z</time>
      </trkpt>
      <trkpt lat="39.5907060" lon="-3.8622990">
        <ele>882.9</ele>
        <time>2019-08-12T10:10:35Z</time>
      </trkpt>
      <trkpt lat="39.5907100" lon="-3.8623440">
        <ele>883.2</ele>
        <time>2019-08-12T10:10:36Z</time>
      </trkpt>
      <trkpt lat="39.5907130" lon="-3.8623880">
        <ele>883.4</ele>
        <time>2019-08-12T10:10:37Z</time>
      </trkpt>
      <trkpt lat="39.5907170" lon="-3.8624320">
        <ele>883.7</ele>
        <time>2019-08-12T10:10:38Z</time>
      </trkpt>
      <trkpt lat="39.5907210" lon="-3.8624770">
        <ele>883.9</ele>
        <time>2019-08-12T10:10:39Z</time>
      </trkpt>
      <trkpt lat="39.5907260" lon="-3.8625210">
        <ele>884.2</ele>
        <time>2019-08-12T10:10:40Z</time>
      </trkpt>
      <trkpt lat="39.5907310" lon="-3.8625650">
        <ele>884.5</ele>
        <time>2019-08-12T10:10:41Z</time>
      </trkpt>
      <trkpt lat="39.5907360" lon="-3.8626090">
        <ele>884.7</ele>
        <time>2019-08-12T10:10:42Z</time>
      </trkpt>
      <trkpt lat="39.5907420" lon="-3.8626520">
        <ele>884.9</ele>
        <time>2019-08-12T10:10:43Z</time>
      </trkpt>
      <trkpt lat="39.5907470" lon="-3.8626960">
        <ele>885.2</ele>
        <time>2019-08-12T10:10:44Z</time>
      </trkpt>
      <trkpt lat="39.5907530" lon="-3.8627390">
        <ele>885.4</ele>
        <time>2019-08-12T10:10:45Z</time>
      </trkpt>
      <trkpt lat="39.5907590" lon="-3.8627820">
        <ele>885.7</ele>
        <time>2019-08-12T10:10:46Z</time>
      </trkpt>
      <trkpt lat="39.5907650" lon="-3.8628240">
        <ele>885.9</ele>
        <time>2019-08-12T10:10:47Z</time>
      </trkpt>
      <trkpt lat="39.5907710" lon="-3.8628660">
        <ele>886.1</ele>
        <time>2019-08-12T10:10:48Z</time>
      </trkpt>
      <trkpt lat="39.5907780" lon="-3.8629070">
        <ele>886.3</ele>
        <time>2019-08-12T10:10:49Z</time>
      </trkpt>
      <trkpt lat="39.5907850" lon="-3.8629480">
        <ele>886.6</ele>
        <time>2019-08-12T10:10:50Z</time>
      </trkpt>
      <trkpt lat="39.5907930" lon="-3.8629880">
        <ele>886.8</ele>
        <time>2019-08-12T10:10:51Z</time>
      </trkpt>
      <trkpt lat="39.5908020" lon="-3.8630260">
        <ele>887.0</ele>
        <time>2019-08-12T10:10:52Z</time>
      </trkpt>
      <trkpt lat="39.5908130" lon="-3.8630630">
        <ele>887.2</ele>
        <time>2019-08-12T10:10:53Z</time>
      </trkpt>
      <trkpt lat="39.5908250" lon="-3.8630990">
        <ele>887.4</ele>
        <time>2019-08-12T10:10:54Z</time>
      </trkpt>
      <trkpt lat="39.5908390" lon="-3.8631330">
        <ele>887.6</ele>
        <time>2019-08-12T10:10:55Z</time>
      </trkpt>
      <trkpt lat="39.5908550" lon="-3.8631660">
        <ele>887.8</ele>
        <time>2019-08-12T10:10:56Z</time>
      </trkpt>
      <trkpt lat="39.5908730" lon="-3.8631970">
        <ele>888.0</ele>
        <time>2019-08-12T10:10:57Z</time>
      </trkpt>
      <trkpt lat="39.5908920" lon="-3.8632260">
        <ele>888.2</ele>
        <time>2019-08-12T10:10:58Z</time>
      </trkpt>
      <trkpt lat="39.5909130" lon="-3.8632540">
        <ele>888.4</ele>
        <time>2019-08-12T10:10:59Z</time>
      </trkpt>
      <trkpt lat="39.5909350" lon="-3.8632810">
        <ele>888.6</ele>
        <time>2019-08-12T10:11:00Z</time>
      </trkpt>
      <trkpt lat="39.5909580" lon="-3.8633070">
        <ele>888.8</ele>
        <time>2019-08-12T10:11:01Z</time>
      </trkpt>
      <trkpt lat="39.5909820" lon="-3.8633320">
        <ele>888.9</ele>
        <time>2019-08-12T10:11:02Z</time>
      </trkpt>
      <trkpt lat="39.5910070" lon="-3.8633560">
        <ele>889.1</ele>
        <time>2019-08-12T10:11:03Z</time>
      </trkpt>
      <trkpt lat="39.5910320" lon="-3.8633790">
        <ele>889.3</ele>
        <time>2019-08-12T10:11:04Z</time>
      </trkpt>
      <trkpt lat="39.5910580" lon="-3.8634010">
        <ele>889.5</ele>
        <time>2019-08-12T10:11:05Z</time>
      </trkpt>
      <trkpt lat="39.5910840" lon="-3.8634230">
        <ele>889.7</ele>
        <time>2019-08-12T10:11:06Z</time>
      </trkpt>
      <trkpt lat="39.5911090" lon="-3.8634450">
        <ele>889.9</ele>
        <time>2019-08-12T10:11:07Z</time>
      </trkpt>
      <trkpt lat="39.5911350" lon="-3.8634660">
        <ele>890.1</ele>
        <time>2019-08-12T10:11:08Z</time>
      </trkpt>
      <trkpt lat="39.5911610" lon="-3.8634870">
        <ele>890.3</ele>
        <time>2019-08-12T10:11:09Z</time>
      </trkpt>
      <trkpt lat="39.5911870" lon="-3.8635070">
        <ele>890.5</ele>
        <time>2019-08-12T10:11:10Z</time>
      </trkpt>
      <trkpt lat="39.5912140" lon="-3.8635270">
        <ele>890.7</ele>
        <time>2019-08-12T10:11:11Z</time>
      </trkpt>
      <trkpt lat="39.5912400" lon="-3.8635470">
        <ele>890.9</ele>
        <time>2019-08-12T10:11:12Z</time>
      </trkpt>
      <trkpt lat="39.5912660" lon="-3.8635670">
        <ele>891.1</ele>
        <time>2019-08-12T10:11:13Z</time>
      </trkpt>
      <trkpt lat="39.5912910" lon="-3.8635860">
        <ele>891.3</ele>
        <time>2019-08-12T10:11:14Z</time>
      </trkpt>
      <trkpt lat="39.5913170" lon="-3.8636060">
        <ele>891.5</ele>
        <time>2019-08-12T10:11:15Z</time>
      </trkpt>
      <trkpt lat="39.5913420" lon="-3.8636250">
        <ele>891.7</ele>
        <time>2019-08-12T10:11:16Z</time>
      </trkpt>
      <trkpt lat="39.5913680" lon="-3.8636440">
        <ele>891.9</ele>
        <time>2019-08-12T10:11:17Z</time>
      </trkpt>
      <trkpt lat="39.5913930" lon="-3.8636630">
        <ele>892.1</ele>
        <time>2019-08-12T10:11:18Z</time>
      </trkpt>
      <trkpt lat="39.5914190" lon="-3.8636800">
        <ele>892.3</ele>
        <time>2019-08-12T10:11:19Z</time>
      </trkpt>
      <trkpt lat="39.5914450" lon="-3.8636970">
        <ele>892.4</ele>
        <time>2019-08-12T10:11:20Z</time>
      </trkpt>
      <trkpt lat="39.5914710" lon="-3.8637120">
        <ele>892.6</ele>
        <time>2019-08-12T10:11:21Z</time>
      </trkpt>
      <trkpt lat="39.5914970" lon="-3.8637260">
        <ele>892.8</ele>
        <time>2019-08-12T10:11:22Z</time>
      </trkpt>
      <trkpt lat="39.5915240" lon="-3.8637380">
        <ele>893.0</ele>
        <time>2019-08-12T10:11:23Z</time>
      </trkpt>
      <trkpt lat="39.5915510" lon="-3.8637480">
        <ele>893.2</ele>
        <time>2019-08-12T10:11:24Z</time>
      </trkpt>
      <trkpt lat="39.5915780" lon="-3.8637570">
        <ele>893.4</ele>
        <time>2019-08-12T10:11:25Z</time>
      </trkpt>
      <trkpt lat="39.5916060" lon="-3.8637640">
        <ele>893.5</ele>
        <time>2019-08-12T10:11:26Z</time>
      </trkpt>
      <trkpt lat="39.5916340" lon="-3.8637690">
        <ele>893.7</ele>
        <time>2019-08-12T10:11:27Z</time>
      </trkpt>
      <trkpt lat="39.5916620" lon="-3.8637710">
        <ele>893.8</ele>
        <time>2019-08-12T10:11:28Z</time>
      </trkpt>
      <trkpt lat="39.5917040" lon="-3.8637720">
        <ele>894.1</ele>
        <time>2019-08-12T10:11:29Z</time>
      </trkpt>
      <trkpt lat="39.5917180" lon="-3.8637710">
        <ele>894.1</ele>
        <time>2019-08-12T10:11:30Z</time>
      </trkpt>
      <trkpt lat="39.5917460" lon="-3.8637680">
        <ele>894.3</ele>
        <time>2019-08-12T10:11:31Z</time>
      </trkpt>
      <trkpt lat="39.5917740" lon="-3.8637630">
        <ele>894.4</ele>
        <time>2019-08-12T10:11:32Z</time>
      </trkpt>
      <trkpt lat="39.5918020" lon="-3.8637560">
        <ele>894.5</ele>
        <time>2019-08-12T10:11:33Z</time>
      </trkpt>
      <trkpt lat="39.5918290" lon="-3.8637470">
        <ele>894.7</ele>
        <time>2019-08-12T10:11:34Z</time>
      </trkpt>
      <trkpt lat="39.5918560" lon="-3.8637370">
        <ele>894.8</ele>
        <time>2019-08-12T10:11:35Z</time>
      </trkpt>
      <trkpt lat="39.5918830" lon="-3.8637250">
        <ele>894.9</ele>
        <time>2019-08-12T10:11:36Z</time>
      </trkpt>
      <trkpt lat="39.5919090" lon="-3.8637120">
        <ele>895.0</ele>
        <time>2019-08-12T10:11:37Z</time>
      </trkpt>
      <trkpt lat="39.5919360" lon="-3.8636970">
        <ele>895.1</ele>
        <time>2019-08-12T10:11:38Z</time>
      </trkpt>
      <trkpt lat="39.5919620" lon="-3.8636820">
        <ele>895.2</ele>
        <time>2019-08-12T10:11:39Z</time>
      </trkpt>
      <trkpt lat="39.5919880" lon="-3.8636660">
        <ele>895.3</ele>
        <time>2019-08-12T10:11:40Z</time>
      </trkpt>
      <trkpt lat="39.5920140" lon="-3.8636490">
        <ele>895.4</ele>
        <time>2019-08-12T10:11:41Z</time>
      </trkpt>
      <trkpt lat="39.5920400" lon="-3.8636320">
        <ele>895.5</ele>
        <time>2019-08-12T10:11:42Z</time>
      </trkpt>
      <trkpt lat="39.5920650" lon="-3.8636150">
        <ele>895.5</ele>
        <time>2019-08-12T10:11:43Z</time>
      </trkpt>
      <trkpt lat="39.5920910" lon="-3.8635970">
        <ele>895.6</ele>
        <time>2019-08-12T10:11:44Z</time>
      </trkpt>
      <trkpt lat="39.5921170" lon="-3.8635790">
        <ele>895.7</ele>
        <time>2019-08-12T10:11:45Z</time>
      </trkpt>
      <trkpt lat="39.5921430" lon="-3.8635610">
        <ele>895.8</ele>
        <time>2019-08-12T10:11:46Z</time>
      </trkpt>
      <trkpt lat="39.5921690" lon="-3.8635430">
        <ele>895.8</ele>
        <time>2019-08-12T10:11:47Z</time>
      </trkpt>
      <trkpt lat="39.5921950" lon="-3.8635240">
        <ele>895.9</ele>
        <time>2019-08-12T10:11:48Z</time>
      </trkpt>
      <trkpt lat="39.5922210" lon="-3.8635060">
        <ele>895.9</ele>
        <time>2019-08-12T10:11:49Z</time>
      </trkpt>
      <trkpt lat="39.5922480" lon="-3.8634880">
        <ele>896.0</ele>
        <time>2019-08-12T10:11:50Z</time>
      </trkpt>
      <trkpt lat="39.5922750" lon="-3.8634690">
        <ele>896.0</ele>
        <time>2019-08-12T10:11:51Z</time>
      </trkpt>
      <trkpt lat="39.5923020" lon="-3.8634510">
        <ele>896.1</ele>
        <time>2019-08-12T10:11:52Z</time>
      </trkpt>
      <trkpt lat="39.5923290" lon="-3.8634320">
        <ele>896.1</ele>
        <time>2019-08-12T10:11:53Z</time>
      </trkpt>
      <trkpt lat="39.5923570" lon="-3.8634140">
        <ele>896.2</ele>
        <time>2019-08-12T10:11:54Z</time>
      </trkpt>
      <trkpt lat="39.5923850" lon="-3.8633960">
        <ele>896.2</ele>
        <time>2019-08-12T10:11:55Z</time>
      </trkpt>
      <trkpt lat="39.5924140" lon="-3.8633770">
        <ele>896.3</ele>
        <time>2019-08-12T10:11:56Z</time>
      </trkpt>
      <trkpt lat="39.5924420" lon="-3.8633590">
        <ele>896.3</ele>
        <time>2019-08-12T10:11:57Z</time>
      </trkpt>
      <trkpt lat="39.5924710" lon="-3.8633410">
        <ele>896.4</ele>
        <time>2019-08-12T10:11:58Z</time>
      </trkpt>
      <trkpt lat="39.5924990" lon="-3.8633220">
        <ele>896.5</ele>
        <time>2019-08-12T10:11:59Z</time>
      </trkpt>
      <trkpt lat="39.5925280" lon="-3.8633040">
        <ele>896.5</ele>
        <time>2019-08-12T10:12:00Z</time>
      </trkpt>
      <trkpt lat="39.5925560" lon="-3.8632860">
        <ele>896.6</ele>
        <time>2019-08-12T10:12:01Z</time>
      </trkpt>
      <trkpt lat="39.5925850" lon="-3.8632670">
        <ele>896.7</ele>
        <time>2019-08-12T10:12:02Z</time>
      </trkpt>
      <trkpt lat="39.5926130" lon="-3.8632490">
        <ele>896.8</ele>
        <time>2019-08-12T10:12:03Z</time>
      </trkpt>
      <trkpt lat="39.5926420" lon="-3.8632310">
        <ele>896.9</ele>
        <time>2019-08-12T10:12:04Z</time>
      </trkpt>
      <trkpt lat="39.5926700" lon="-3.8632120">
        <ele>897.0</ele>
        <time>2019-08-12T10:12:05Z</time>
      </trkpt>
      <trkpt lat="39.5926990" lon="-3.8631940">
        <ele>897.1</ele>
        <time>2019-08-12T10:12:06Z</time>
      </trkpt>
      <trkpt lat="39.5927280" lon="-3.8631750">
        <ele>897.2</ele>
        <time>2019-08-12T10:12:07Z</time>
      </trkpt>
      <trkpt lat="39.5927560" lon="-3.8631560">
        <ele>897.4</ele>
        <time>2019-08-12T10:12:08Z</time>
      </trkpt>
      <trkpt lat="39.5927850" lon="-3.8631380">
        <ele>897.5</ele>
        <time>2019-08-12T10:12:09Z</time>
      </trkpt>
      <trkpt lat="39.5928140" lon="-3.8631190">
        <ele>897.7</ele>
        <time>2019-08-12T10:12:10Z</time>
      </trkpt>
      <trkpt lat="39.5928420" lon="-3.8631000">
        <ele>897.8</ele>
        <time>2019-08-12T10:12:11Z</time>
      </trkpt>
      <trkpt lat="39.5928710" lon="-3.8630810">
        <ele>898.0</ele>
        <time>2019-08-12T10:12:12Z</time>
      </trkpt>
      <trkpt lat="39.5929000" lon="-3.8630620">
        <ele>898.2</ele>
        <time>2019-08-12T10:12:13Z</time>
      </trkpt>
      <trkpt lat="39.5929300" lon="-3.8630430">
        <ele>898.5</ele>
        <time>2019-08-12T10:12:14Z</time>
      </trkpt>
      <trkpt lat="39.5929590" lon="-3.8630240">
        <ele>898.7</ele>
        <time>2019-08-12T10:12:15Z</time>
      </trkpt>
      <trkpt lat="39.5929880" lon="-3.8630050">
        <ele>899.0</ele>
        <time>2019-08-12T10:12:16Z</time>
      </trkpt>
      <trkpt lat="39.5930180" lon="-3.8629860">
        <ele>899.3</ele>
        <time>2019-08-12T10:12:17Z</time>
      </trkpt>
      <trkpt lat="39.5930470" lon="-3.8629670">
        <ele>899.6</ele>
        <time>2019-08-12T10:12:18Z</time>
      </trkpt>
      <trkpt lat="39.5930770" lon="-3.8629470">
        <ele>899.9</ele>
        <time>2019-08-12T10:12:19Z</time>
      </trkpt>
      <trkpt lat="39.5931070" lon="-3.8629280">
        <ele>900.2</ele>
        <time>2019-08-12T10:12:20Z</time>
      </trkpt>
      <trkpt lat="39.5931370" lon="-3.8629080">
        <ele>900.6</ele>
        <time>2019-08-12T10:12:21Z</time>
      </trkpt>
      <trkpt lat="39.5931680" lon="-3.8628890">
        <ele>900.9</ele>
        <time>2019-08-12T10:12:22Z</time>
      </trkpt>
      <trkpt lat="39.5931980" lon="-3.8628690">
        <ele>901.3</ele>
        <time>2019-08-12T10:12:23Z</time>
      </trkpt>
      <trkpt lat="39.5932290" lon="-3.8628500">
        <ele>901.6</ele>
        <time>2019-08-12T10:12:24Z</time>
      </trkpt>
      <trkpt lat="39.5932590" lon="-3.8628300">
        <ele>902.0</ele>
        <time>2019-08-12T10:12:25Z</time>
      </trkpt>
      <trkpt lat="39.5932900" lon="-3.8628110">
        <ele>902.3</ele>
        <time>2019-08-12T10:12:26Z</time>
      </trkpt>
      <trkpt lat="39.5933210" lon="-3.8627910">
        <ele>902.7</ele>
        <time>2019-08-12T10:12:27Z</time>
      </trkpt>
      <trkpt lat="39.5933530" lon="-3.8627720">
        <ele>903.0</ele>
        <time>2019-08-12T10:12:28Z</time>
      </trkpt>
      <trkpt lat="39.5933840" lon="-3.8627520">
        <ele>903.4</ele>
        <time>2019-08-12T10:12:29Z</time>
      </trkpt>
      <trkpt lat="39.5934150" lon="-3.8627330">
        <ele>903.7</ele>
        <time>2019-08-12T10:12:30Z</time>
      </trkpt>
      <trkpt lat="39.5934460" lon="-3.8627140">
        <ele>904.0</ele>
        <time>2019-08-12T10:12:31Z</time>
      </trkpt>
      <trkpt lat="39.5934760" lon="-3.8626950">
        <ele>904.4</ele>
        <time>2019-08-12T10:12:32Z</time>
      </trkpt>
      <trkpt lat="39.5935060" lon="-3.8626750">
        <ele>904.7</ele>
        <time>2019-08-12T10:12:33Z</time>
      </trkpt>
      <trkpt lat="39.5935350" lon="-3.8626560">
        <ele>905.0</ele>
        <time>2019-08-12T10:12:34Z</time>
      </trkpt>
      <trkpt lat="39.5935620" lon="-3.8626360">
        <ele>905.3</ele>
        <time>2019-08-12T10:12:35Z</time>
      </trkpt>
      <trkpt lat="39.5935890" lon="-3.8626170">
        <ele>905.6</ele>
        <time>2019-08-12T10:12:36Z</time>
      </trkpt>
      <trkpt lat="39.5936150" lon="-3.8625990">
        <ele>905.8</ele>
        <time>2019-08-12T10:12:37Z</time>
      </trkpt>
      <trkpt lat="39.5936400" lon="-3.8625810">
        <ele>906.1</ele>
        <time>2019-08-12T10:12:38Z</time>
      </trkpt>
      <trkpt lat="39.5936650" lon="-3.8625640">
        <ele>906.3</ele>
        <time>2019-08-12T10:12:39Z</time>
      </trkpt>
      <trkpt lat="39.5936890" lon="-3.8625470">
        <ele>906.6</ele>
        <time>2019-08-12T10:12:40Z</time>
      </trkpt>
      <trkpt lat="39.5937130" lon="-3.8625320">
        <ele>906.8</ele>
        <time>2019-08-12T10:12:41Z</time>
      </trkpt>
      <trkpt lat="39.5937360" lon="-3.8625170">
        <ele>907.0</ele>
        <time>2019-08-12T10:12:42Z</time>
      </trkpt>
      <trkpt lat="39.5937590" lon="-3.8625020">
        <ele>907.2</ele>
        <time>2019-08-12T10:12:43Z</time>
      </trkpt>
      <trkpt lat="39.5937810" lon="-3.8624880">
        <ele>907.4</ele>
        <time>2019-08-12T10:12:44Z</time>
      </trkpt>
      <trkpt lat="39.5938040" lon="-3.8624750">
        <ele>907.6</ele>
        <time>2019-08-12T10:12:45Z</time>
      </trkpt>
      <trkpt lat="39.5938260" lon="-3.8624610">
        <ele>907.8</ele>
        <time>2019-08-12T10:12:46Z</time>
      </trkpt>
      <trkpt lat="39.5938480" lon="-3.8624490">
        <ele>908.0</ele>
        <time>2019-08-12T10:12:47Z</time>
      </trkpt>
      <trkpt lat="39.5938690" lon="-3.8624360">
        <ele>908.2</ele>
        <time>2019-08-12T10:12:48Z</time>
      </trkpt>
      <trkpt lat="39.5938910" lon="-3.8624240">
        <ele>908.4</ele>
        <time>2019-08-12T10:12:49Z</time>
      </trkpt>
      <trkpt lat="39.5939120" lon="-3.8624120">
        <ele>908.5</ele>
        <time>2019-08-12T10:12:50Z</time>
      </trkpt>
      <trkpt lat="39.5939340" lon="-3.8623990">
        <ele>908.7</ele>
        <time>2019-08-12T10:12:51Z</time>
      </trkpt>
      <trkpt lat="39.5939550" lon="-3.8623870">
        <ele>908.8</ele>
        <time>2019-08-12T10:12:52Z</time>
      </trkpt>
      <trkpt lat="39.5939770" lon="-3.8623750">
        <ele>909.0</ele>
        <time>2019-08-12T10:12:53Z</time>
      </trkpt>
      <trkpt lat="39.5939980" lon="-3.8623620">
        <ele>909.2</ele>
        <time>2019-08-12T10:12:54Z</time>
      </trkpt>
      <trkpt lat="39.5940190" lon="-3.8623490">
        <ele>909.3</ele>
        <time>2019-08-12T10:12:55Z</time>
      </trkpt>
      <trkpt lat="39.5940400" lon="-3.8623360">
        <ele>909.5</ele>
        <time>2019-08-12T10:12:56Z</time>
      </trkpt>
      <trkpt lat="39.5940620" lon="-3.8623220">
        <ele>909.6</ele>
        <time>2019-08-12T10:12:57Z</time>
      </trkpt>
      <trkpt lat="39.5940830" lon="-3.8623080">
        <ele>909.7</ele>
        <time>2019-08-12T10:12:58Z</time>
      </trkpt>
      <trkpt lat="39.5941040" lon="-3.8622940">
        <ele>909.9</ele>
        <time>2019-08-12T10:12:59Z</time>
      </trkpt>
      <trkpt lat="39.5941250" lon="-3.8622790">
        <ele>910.0</ele>
        <time>2019-08-12T10:13:00Z</time>
      </trkpt>
      <trkpt lat="39.5941460" lon="-3.8622640">
        <ele>910.1</ele>
        <time>2019-08-12T10:13:01Z</time>
      </trkpt>
      <trkpt lat="39.5941670" lon="-3.8622500">
        <ele>910.3</ele>
        <time>2019-08-12T10:13:02Z</time>
      </trkpt>
      <trkpt lat="39.5941880" lon="-3.8622350">
        <ele>910.4</ele>
        <time>2019-08-12T10:13:03Z</time>
      </trkpt>
      <trkpt lat="39.5942090" lon="-3.8622210">
        <ele>910.5</ele>
        <time>2019-08-12T10:13:04Z</time>
      </trkpt>
      <trkpt lat="39.5942300" lon="-3.8622060">
        <ele>910.7</ele>
        <time>2019-08-12T10:13:05Z</time>
      </trkpt>
      <trkpt lat="39.5942510" lon="-3.8621920">
        <ele>910.8</ele>
        <time>2019-08-12T10:13:06Z</time>
      </trkpt>
      <trkpt lat="39.5942710" lon="-3.8621780">
        <ele>910.9</ele>
        <time>2019-08-12T10:13:07Z</time>
      </trkpt>
      <trkpt lat="39.5942920" lon="-3.8621640">
        <ele>911.1</ele>
        <time>2019-08-12T10:13:08Z</time>
      </trkpt>
      <trkpt lat="39.5943130" lon="-3.8621500">
        <ele>911.2</ele>
        <time>2019-08-12T10:13:09Z</time>
      </trkpt>
      <trkpt lat="39.5943330" lon="-3.8621360">
        <ele>911.3</ele>
        <time>2019-08-12T10:13:10Z</time>
      </trkpt>
      <trkpt lat="39.5943530" lon="-3.8621220">
        <ele>911.4</ele>
        <time>2019-08-12T10:13:11Z</time>
      </trkpt>
      <trkpt lat="39.5943740" lon="-3.8621080">
        <ele>911.6</ele>
        <time>2019-08-12T10:13:12Z</time>
      </trkpt>
      <trkpt lat="39.5943940" lon="-3.8620930">
        <ele>911.7</ele>
        <time>2019-08-12T10:13:13Z</time>
      </trkpt>
      <trkpt lat="39.5944140" lon="-3.8620780">
        <ele>911.8</ele>
        <time>2019-08-12T10:13:14Z</time>
      </trkpt>
      <trkpt lat="39.5944340" lon="-3.8620630">
        <ele>911.9</ele>
        <time>2019-08-12T10:13:15Z</time>
      </trkpt>
      <trkpt lat="39.5944550" lon="-3.8620470">
        <ele>912.1</ele>
        <time>2019-08-12T10:13:16Z</time>
      </trkpt>
      <trkpt lat="39.5944750" lon="-3.8620310">
        <ele>912.2</ele>
        <time>2019-08-12T10:13:17Z</time>
      </trkpt>
      <trkpt lat="39.5944950" lon="-3.8620150">
        <ele>912.3</ele>
        <time>2019-08-12T10:13:18Z</time>
      </trkpt>
      <trkpt lat="39.5945150" lon="-3.8619980">
        <ele>912.5</ele>
        <time>2019-08-12T10:13:19Z</time>
      </trkpt>
      <trkpt lat="39.5945350" lon="-3.8619800">
        <ele>912.6</ele>
        <time>2019-08-12T10:13:20Z</time>
      </trkpt>
      <trkpt lat="39.5945550" lon="-3.8619620">
        <ele>912.7</ele>
        <time>2019-08-12T10:13:21Z</time>
      </trkpt>
      <trkpt lat="39.5945740" lon="-3.8619430">
        <ele>912.8</ele>
        <time>2019-08-12T10:13:22Z</time>
      </trkpt>
      <trkpt lat="39.5945940" lon="-3.8619240">
        <ele>913.0</ele>
        <time>2019-08-12T10:13:23Z</time>
      </trkpt>
      <trkpt lat="39.5946130" lon="-3.8619040">
        <ele>913.1</ele>
        <time>2019-08-12T10:13:24Z</time>
      </trkpt>
      <trkpt lat="39.5946320" lon="-3.8618840">
        <ele>913.2</ele>
        <time>2019-08-12T10:13:25Z</time>
      </trkpt>
      <trkpt lat="39.5946510" lon="-3.8618630">
        <ele>913.3</ele>
        <time>2019-08-12T10:13:26Z</time>
      </trkpt>
      <trkpt lat="39.5946700" lon="-3.8618410">
        <ele>913.5</ele>
        <time>2019-08-12T10:13:27Z</time>
      </trkpt>
      <trkpt lat="39.5946880" lon="-3.8618190">
        <ele>913.6</ele>
        <time>2019-08-12T10:13:28Z</time>
      </trkpt>
      <trkpt lat="39.5947070" lon="-3.8617970">
        <ele>913.7</ele>
        <time>2019-08-12T10:13:29Z</time>
      </trkpt>
      <trkpt lat="39.5947250" lon="-3.8617740">
        <ele>913.8</ele>
        <time>2019-08-12T10:13:30Z</time>
      </trkpt>
      <trkpt lat="39.5947430" lon="-3.8617510">
        <ele>914.0</ele>
        <time>2019-08-12T10:13:31Z</time>
      </trkpt>
      <trkpt lat="39.5947600" lon="-3.8617270">
        <ele>914.1</ele>
        <time>2019-08-12T10:13:32Z</time>
      </trkpt>
      <trkpt lat="39.5947780" lon="-3.8617030">
        <ele>914.2</ele>
        <time>2019-08-12T10:13:33Z</time>
      </trkpt>
      <trkpt lat="39.5947960" lon="-3.8616790">
        <ele>914.3</ele>
        <time>2019-08-12T10:13:34Z</time>
      </trkpt>
      <trkpt lat="39.5948130" lon="-3.8616540">
        <ele>914.4</ele>
        <time>2019-08-12T10:13:35Z</time>
      </trkpt>
      <trkpt lat="39.5948300" lon="-3.8616290">
        <ele>914.6</ele>
        <time>2019-08-12T10:13:36Z</time>
      </trkpt>
      <trkpt lat="39.5948480" lon="-3.8616040">
        <ele>914.7</ele>
        <time>2019-08-12T10:13:37Z</time>
      </trkpt>
      <trkpt lat="39.5948650" lon="-3.8615780">
        <ele>914.8</ele>
        <time>2019-08-12T10:13:38Z</time>
      </trkpt>
      <trkpt lat="39.5948830" lon="-3.8615520">
        <ele>914.9</ele>
        <time>2019-08-12T10:13:39Z</time>
      </trkpt>
      <trkpt lat="39.5949010" lon="-3.8615250">
        <ele>915.1</ele>
        <time>2019-08-12T10:13:40Z</time>
      </trkpt>
      <trkpt lat="39.5949190" lon="-3.8614980">
        <ele>915.2</ele>
        <time>2019-08-12T10:13:41Z</time>
      </trkpt>
      <trkpt lat="39.5949380" lon="-3.8614700">
        <ele>915.3</ele>
        <time>2019-08-12T10:13:42Z</time>
      </trkpt>
      <trkpt lat="39.5949570" lon="-3.8614430">
        <ele>915.5</ele>
        <time>2019-08-12T10:13:43Z</time>
      </trkpt>
      <trkpt lat="39.5949760" lon="-3.8614140">
        <ele>915.6</ele>
        <time>2019-08-12T10:13:44Z</time>
      </trkpt>
      <trkpt lat="39.5949960" lon="-3.8613860">
        <ele>915.8</ele>
        <time>2019-08-12T10:13:45Z</time>
      </trkpt>
      <trkpt lat="39.5950150" lon="-3.8613570">
        <ele>916.0</ele>
        <time>2019-08-12T10:13:46Z</time>
      </trkpt>
      <trkpt lat="39.5950350" lon="-3.8613290">
        <ele>916.1</ele>
        <time>2019-08-12T10:13:47Z</time>
      </trkpt>
      <trkpt lat="39.5950560" lon="-3.8613000">
        <ele>916.3</ele>
        <time>2019-08-12T10:13:48Z</time>
      </trkpt>
      <trkpt lat="39.5950760" lon="-3.8612710">
        <ele>916.5</ele>
        <time>2019-08-12T10:13:49Z</time>
      </trkpt>
      <trkpt lat="39.5950960" lon="-3.8612420">
        <ele>916.6</ele>
        <time>2019-08-12T10:13:50Z</time>
      </trkpt>
      <trkpt lat="39.5951170" lon="-3.8612130">
        <ele>916.8</ele>
        <time>2019-08-12T10:13:51Z</time>
      </trkpt>
      <trkpt lat="39.5951370" lon="-3.8611850">
        <ele>917.0</ele>
        <time>2019-08-12T10:13:52Z</time>
      </trkpt>
      <trkpt lat="39.5951570" lon="-3.8611570">
        <ele>917.1</ele>
        <time>2019-08-12T10:13:53Z</time>
      </trkpt>
      <trkpt lat="39.5951780" lon="-3.8611280">
        <ele>917.3</ele>
        <time>2019-08-12T10:13:54Z</time>
      </trkpt>
      <trkpt lat="39.5951980" lon="-3.8611000">
        <ele>917.5</ele>
        <time>2019-08-12T10:13:55Z</time>
      </trkpt>
      <trkpt lat="39.5952180" lon="-3.8610720">
        <ele>917.6</ele>
        <time>2019-08-12T10:13:56Z</time>
      </trkpt>
      <trkpt lat="39.5952390" lon="-3.8610450">
        <ele>917.8</ele>
        <time>2019-08-12T10:13:57Z</time>
      </trkpt>
      <trkpt lat="39.5952590" lon="-3.8610170">
        <ele>918.0</ele>
        <time>2019-08-12T10:13:58Z</time>
      </trkpt>
      <trkpt lat="39.5952790" lon="-3.8609890">
        <ele>918.1</ele>
        <time>2019-08-12T10:13:59Z</time>
      </trkpt>
      <trkpt lat="39.5953000" lon="-3.8609610">
        <ele>918.3</ele>
        <time>2019-08-12T10:14:00Z</time>
      </trkpt>
      <trkpt lat="39.5953200" lon="-3.8609330">
        <ele>918.4</ele>
        <time>2019-08-12T10:14:01Z</time>
      </trkpt>
      <trkpt lat="39.5953400" lon="-3.8609050">
        <ele>918.6</ele>
        <time>2019-08-12T10:14:02Z</time>
      </trkpt>
      <trkpt lat="39.5953610" lon="-3.8608770">
        <ele>918.8</ele>
        <time>2019-08-12T10:14:03Z</time>
      </trkpt>
      <trkpt lat="39.5953810" lon="-3.8608490">
        <ele>918.9</ele>
        <time>2019-08-12T10:14:04Z</time>
      </trkpt>
      <trkpt lat="39.5954020" lon="-3.8608200">
        <ele>919.1</ele>
        <time>2019-08-12T10:14:05Z</time>
      </trkpt>
      <trkpt lat="39.5954220" lon="-3.8607920">
        <ele>919.2</ele>
        <time>2019-08-12T10:14:06Z</time>
      </trkpt>
      <trkpt lat="39.5954420" lon="-3.8607650">
        <ele>919.4</ele>
        <time>2019-08-12T10:14:07Z</time>
      </trkpt>
      <trkpt lat="39.5954630" lon="-3.8607370">
        <ele>919.5</ele>
        <time>2019-08-12T10:14:08Z</time>
      </trkpt>
      <trkpt lat="39.5954830" lon="-3.8607090">
        <ele>919.6</ele>
        <time>2019-08-12T10:14:09Z</time>
      </trkpt>
      <trkpt lat="39.5955040" lon="-3.8606820">
        <ele>919.8</ele>
        <time>2019-08-12T10:14:10Z</time>
      </trkpt>
      <trkpt lat="39.5955240" lon="-3.8606540">
        <ele>919.9</ele>
        <time>2019-08-12T10:14:11Z</time>
      </trkpt>
      <trkpt lat="39.5955450" lon="-3.8606270">
        <ele>920.1</ele>
        <time>2019-08-12T10:14:12Z</time>
      </trkpt>
      <trkpt lat="39.5955650" lon="-3.8606000">
        <ele>920.2</ele>
        <time>2019-08-12T10:14:13Z</time>
      </trkpt>
      <trkpt lat="39.5955860" lon="-3.8605730">
        <ele>920.4</ele>
        <time>2019-08-12T10:14:14Z</time>
      </trkpt>
      <trkpt lat="39.5956070" lon="-3.8605460">
        <ele>920.5</ele>
        <time>2019-08-12T10:14:15Z</time>
      </trkpt>
      <trkpt lat="39.5956270" lon="-3.8605190">
        <ele>920.7</ele>
        <time>2019-08-12T10:14:16Z</time>
      </trkpt>
      <trkpt lat="39.5956480" lon="-3.8604930">
        <ele>920.8</ele>
        <time>2019-08-12T10:14:17Z</time>
      </trkpt>
      <trkpt lat="39.5956700" lon="-3.8604660">
        <ele>921.0</ele>
        <time>2019-08-12T10:14:18Z</time>
      </trkpt>
      <trkpt lat="39.5956910" lon="-3.8604390">
        <ele>921.1</ele>
        <time>2019-08-12T10:14:19Z</time>
      </trkpt>
      <trkpt lat="39.5957120" lon="-3.8604130">
        <ele>921.3</ele>
        <time>2019-08-12T10:14:20Z</time>
      </trkpt>
      <trkpt lat="39.5957340" lon="-3.8603860">
        <ele>921.5</ele>
        <time>2019-08-12T10:14:21Z</time>
      </trkpt>
      <trkpt lat="39.5957560" lon="-3.8603600">
        <ele>921.6</ele>
        <time>2019-08-12T10:14:22Z</time>
      </trkpt>
      <trkpt lat="39.5957780" lon="-3.8603330">
        <ele>921.8</ele>
        <time>2019-08-12T10:14:23Z</time>
      </trkpt>
      <trkpt lat="39.5958000" lon="-3.8603070">
        <ele>921.9</ele>
        <time>2019-08-12T10:14:24Z</time>
      </trkpt>
      <trkpt lat="39.5958220" lon="-3.8602810">
        <ele>922.1</ele>
        <time>2019-08-12T10:14:25Z</time>
      </trkpt>
      <trkpt lat="39.5958450" lon="-3.8602550">
        <ele>922.2</ele>
        <time>2019-08-12T10:14:26Z</time>
      </trkpt>
      <trkpt lat="39.5958680" lon="-3.8602300">
        <ele>922.4</ele>
        <time>2019-08-12T10:14:27Z</time>
      </trkpt>
      <trkpt lat="39.5958910" lon="-3.8602050">
        <ele>922.5</ele>
        <time>2019-08-12T10:14:28Z</time>
      </trkpt>
      <trkpt lat="39.5959140" lon="-3.8601800">
        <ele>922.6</ele>
        <time>2019-08-12T10:14:29Z</time>
      </trkpt>
      <trkpt lat="39.5959380" lon="-3.8601550">
        <ele>922.8</ele>
        <time>2019-08-12T10:14:30Z</time>
      </trkpt>
      <trkpt lat="39.5959610" lon="-3.8601310">
        <ele>922.9</ele>
        <time>2019-08-12T10:14:31Z</time>
      </trkpt>
      <trkpt lat="39.5959850" lon="-3.8601070">
        <ele>923.1</ele>
        <time>2019-08-12T10:14:32Z</time>
      </trkpt>
      <trkpt lat="39.5960090" lon="-3.8600830">
        <ele>923.2</ele>
        <time>2019-08-12T10:14:33Z</time>
      </trkpt>
      <trkpt lat="39.5960330" lon="-3.8600590">
        <ele>923.3</ele>
        <time>2019-08-12T10:14:34Z</time>
      </trkpt>
      <trkpt lat="39.5960570" lon="-3.8600350">
        <ele>923.5</ele>
        <time>2019-08-12T10:14:35Z</time>
      </trkpt>
      <trkpt lat="39.5960820" lon="-3.8600120">
        <ele>923.6</ele>
        <time>2019-08-12T10:14:36Z</time>
      </trkpt>
      <trkpt lat="39.5961060" lon="-3.8599890">
        <ele>923.8</ele>
        <time>2019-08-12T10:14:37Z</time>
      </trkpt>
      <trkpt lat="39.5961310" lon="-3.8599660">
        <ele>923.9</ele>
        <time>2019-08-12T10:14:38Z</time>
      </trkpt>
      <trkpt lat="39.5961550" lon="-3.8599430">
        <ele>924.1</ele>
        <time>2019-08-12T10:14:39Z</time>
      </trkpt>
      <trkpt lat="39.5961800" lon="-3.8599200">
        <ele>924.2</ele>
        <time>2019-08-12T10:14:40Z</time>
      </trkpt>
      <trkpt lat="39.5962050" lon="-3.8598970">
        <ele>924.4</ele>
        <time>2019-08-12T10:14:41Z</time>
      </trkpt>
      <trkpt lat="39.5962290" lon="-3.8598740">
        <ele>924.5</ele>
        <time>2019-08-12T10:14:42Z</time>
      </trkpt>
      <trkpt lat="39.5962540" lon="-3.8598510">
        <ele>924.7</ele>
        <time>2019-08-12T10:14:43Z</time>
      </trkpt>
      <trkpt lat="39.5962780" lon="-3.8598280">
        <ele>924.8</ele>
        <time>2019-08-12T10:14:44Z</time>
      </trkpt>
      <trkpt lat="39.5963030" lon="-3.8598060">
        <ele>925.0</ele>
        <time>2019-08-12T10:14:45Z</time>
      </trkpt>
      <trkpt lat="39.5963280" lon="-3.8597830">
        <ele>925.1</ele>
        <time>2019-08-12T10:14:46Z</time>
      </trkpt>
      <trkpt lat="39.5963520" lon="-3.8597600">
        <ele>925.2</ele>
        <time>2019-08-12T10:14:47Z</time>
      </trkpt>
      <trkpt lat="39.5963770" lon="-3.8597370">
        <ele>925.4</ele>
        <time>2019-08-12T10:14:48Z</time>
      </trkpt>
      <trkpt lat="39.5964010" lon="-3.8597150">
        <ele>925.5</ele>
        <time>2019-08-12T10:14:49Z</time>
      </trkpt>
      <trkpt lat="39.5964260" lon="-3.8596920">
        <ele>925.7</ele>
        <time>2019-08-12T10:14:50Z</time>
      </trkpt>
      <trkpt lat="39.5964500" lon="-3.8596700">
        <ele>925.8</ele>
        <time>2019-08-12T10:14:51Z</time>
      </trkpt>
      <trkpt lat="39.5964750" lon="-3.8596470">
        <ele>926.0</ele>
        <time>2019-08-12T10:14:52Z</time>
      </trkpt>
      <trkpt lat="39.5964990" lon="-3.8596250">
        <ele>926.1</ele>
        <time>2019-08-12T10:14:53Z</time>
      </trkpt>
      <trkpt lat="39.5965240" lon="-3.8596030">
        <ele>926.2</ele>
        <time>2019-08-12T10:14:54Z</time>
      </trkpt>
      <trkpt lat="39.5965480" lon="-3.8595810">
        <ele>926.4</ele>
        <time>2019-08-12T10:14:55Z</time>
      </trkpt>
      <trkpt lat="39.5965730" lon="-3.8595590">
        <ele>926.5</ele>
        <time>2019-08-12T10:14:56Z</time>
      </trkpt>
      <trkpt lat="39.5965970" lon="-3.8595380">
        <ele>926.6</ele>
        <time>2019-08-12T10:14:57Z</time>
      </trkpt>
      <trkpt lat="39.5966220" lon="-3.8595170">
        <ele>926.8</ele>
        <time>2019-08-12T10:14:58Z</time>
      </trkpt>
      <trkpt lat="39.5966460" lon="-3.8594960">
        <ele>926.9</ele>
        <time>2019-08-12T10:14:59Z</time>
      </trkpt>
      <trkpt lat="39.5966710" lon="-3.8594750">
        <ele>927.1</ele>
        <time>2019-08-12T10:15:00Z</time>
      </trkpt>
      <trkpt lat="39.5966960" lon="-3.8594550">
        <ele>927.2</ele>
        <time>2019-08-12T10:15:01Z</time>
      </trkpt>
      <trkpt lat="39.5967200" lon="-3.8594350">
        <ele>927.4</ele>
        <time>2019-08-12T10:15:02Z</time>
      </trkpt>
      <trkpt lat="39.5967450" lon="-3.8594150">
        <ele>927.5</ele>
        <time>2019-08-12T10:15:03Z</time>
      </trkpt>
      <trkpt lat="39.5967700" lon="-3.8593960">
        <ele>927.7</ele>
        <time>2019-08-12T10:15:04Z</time>
      </trkpt>
      <trkpt lat="39.5967950" lon="-3.8593770">
        <ele>927.8</ele>
        <time>2019-08-12T10:15:05Z</time>
      </trkpt>
      <trkpt lat="39.5968190" lon="-3.8593590">
        <ele>928.0</ele>
        <time>2019-08-12T10:15:06Z</time>
      </trkpt>
      <trkpt lat="39.5968440" lon="-3.8593410">
        <ele>928.2</ele>
        <time>2019-08-12T10:15:07Z</time>
      </trkpt>
      <trkpt lat="39.5968690" lon="-3.8593240">
        <ele>928.3</ele>
        <time>2019-08-12T10:15:08Z</time>
      </trkpt>
      <trkpt lat="39.5968950" lon="-3.8593070">
        <ele>928.5</ele>
        <time>2019-08-12T10:15:09Z</time>
      </trkpt>
      <trkpt lat="39.5969200" lon="-3.8592910">
        <ele>928.7</ele>
        <time>2019-08-12T10:15:10Z</time>
      </trkpt>
      <trkpt lat="39.5969450" lon="-3.8592750">
        <ele>928.9</ele>
        <time>2019-08-12T10:15:11Z</time>
      </trkpt>
      <trkpt lat="39.5969710" lon="-3.8592600">
        <ele>929.0</ele>
        <time>2019-08-12T10:15:12Z</time>
      </trkpt>
      <trkpt lat="39.5969970" lon="-3.8592460">
        <ele>929.2</ele>
        <time>2019-08-12T10:15:13Z</time>
      </trkpt>
      <trkpt lat="39.5970230" lon="-3.8592330">
        <ele>929.5</ele>
        <time>2019-08-12T10:15:14Z</time>
      </trkpt>
      <trkpt lat="39.5970490" lon="-3.8592200">
        <ele>929.7</ele>
        <time>2019-08-12T10:15:15Z</time>
      </trkpt>
      <trkpt lat="39.5970750" lon="-3.8592080">
        <ele>930.0</ele>
        <time>2019-08-12T10:15:16Z</time>
      </trkpt>
      <trkpt lat="39.5971020" lon="-3.8591970">
        <ele>930.2</ele>
        <time>2019-08-12T10:15:17Z</time>
      </trkpt>
      <trkpt lat="39.5971290" lon="-3.8591860">
        <ele>930.5</ele>
        <time>2019-08-12T10:15:18Z</time>
      </trkpt>
      <trkpt lat="39.5971560" lon="-3.8591770">
        <ele>930.8</ele>
        <time>2019-08-12T10:15:19Z</time>
      </trkpt>
      <trkpt lat="39.5971840" lon="-3.8591690">
        <ele>931.1</ele>
        <time>2019-08-12T10:15:20Z</time>
      </trkpt>
      <trkpt lat="39.5972110" lon="-3.8591610">
        <ele>931.3</ele>
        <time>2019-08-12T10:15:21Z</time>
      </trkpt>
      <trkpt lat="39.5972400" lon="-3.8591550">
        <ele>931.4</ele>
        <time>2019-08-12T10:15:22Z</time>
      </trkpt>
      <trkpt lat="39.5972680" lon="-3.8591490">
        <ele>931.5</ele>
        <time>2019-08-12T10:15:23Z</time>
      </trkpt>
      <trkpt lat="39.5972970" lon="-3.8591450">
        <ele>931.6</ele>
        <time>2019-08-12T10:15:24Z</time>
      </trkpt>
      <trkpt lat="39.5973250" lon="-3.8591420">
        <ele>931.7</ele>
        <time>2019-08-12T10:15:25Z</time>
      </trkpt>
      <trkpt lat="39.5973540" lon="-3.8591390">
        <ele>931.8</ele>
        <time>2019-08-12T10:15:26Z</time>
      </trkpt>
      <trkpt lat="39.5973830" lon="-3.8591370">
        <ele>931.8</ele>
        <time>2019-08-12T10:15:27Z</time>
      </trkpt>
      <trkpt lat="39.5974110" lon="-3.8591370">
        <ele>931.9</ele>
        <time>2019-08-12T10:15:28Z</time>
      </trkpt>
      <trkpt lat="39.5974390" lon="-3.8591360">
        <ele>931.9</ele>
        <time>2019-08-12T10:15:29Z</time>
      </trkpt>
      <trkpt lat="39.5974670" lon="-3.8591370">
        <ele>932.0</ele>
        <time>2019-08-12T10:15:30Z</time>
      </trkpt>
      <trkpt lat="39.5975070" lon="-3.8591390">
        <ele>932.0</ele>
        <time>2019-08-12T10:15:31Z</time>
      </trkpt>
      <trkpt lat="39.5975200" lon="-3.8591400">
        <ele>932.0</ele>
        <time>2019-08-12T10:15:32Z</time>
      </trkpt>
      <trkpt lat="39.5975460" lon="-3.8591430">
        <ele>932.0</ele>
        <time>2019-08-12T10:15:33Z</time>
      </trkpt>
      <trkpt lat="39.5975710" lon="-3.8591460">
        <ele>932.1</ele>
        <time>2019-08-12T10:15:34Z</time>
      </trkpt>
      <trkpt lat="39.5975970" lon="-3.8591500">
        <ele>932.1</ele>
        <time>2019-08-12T10:15:35Z</time>
      </trkpt>
      <trkpt lat="39.5976230" lon="-3.8591540">
        <ele>932.0</ele>
        <time>2019-08-12T10:15:36Z</time>
      </trkpt>
      <trkpt lat="39.5976510" lon="-3.8591590">
        <ele>932.0</ele>
        <time>2019-08-12T10:15:37Z</time>
      </trkpt>
      <trkpt lat="39.5976760" lon="-3.8591620">
        <ele>932.0</ele>
        <time>2019-08-12T10:15:38Z</time>
      </trkpt>
      <trkpt lat="39.5977060" lon="-3.8591720">
        <ele>932.0</ele>
        <time>2019-08-12T10:15:39Z</time>
      </trkpt>
      <trkpt lat="39.5977940" lon="-3.8592240">
        <ele>931.8</ele>
        <time>2019-08-12T10:17:36Z</time>
      </trkpt>
      <trkpt lat="39.5978380" lon="-3.8592430">
        <ele>931.6</ele>
        <time>2019-08-12T10:17:37Z</time>
      </trkpt>
      <trkpt lat="39.5978660" lon="-3.8592510">
        <ele>931.5</ele>
        <time>2019-08-12T10:17:38Z</time>
      </trkpt>
      <trkpt lat="39.5978960" lon="-3.8592570">
        <ele>931.4</ele>
        <time>2019-08-12T10:17:39Z</time>
      </trkpt>
      <trkpt lat="39.5979260" lon="-3.8592630">
        <ele>931.2</ele>
        <time>2019-08-12T10:17:40Z</time>
      </trkpt>
      <trkpt lat="39.5979570" lon="-3.8592700">
        <ele>931.1</ele>
        <time>2019-08-12T10:17:41Z</time>
      </trkpt>
      <trkpt lat="39.5979890" lon="-3.8592770">
        <ele>930.9</ele>
        <time>2019-08-12T10:17:42Z</time>
      </trkpt>
      <trkpt lat="39.5980230" lon="-3.8592850">
        <ele>930.7</ele>
        <time>2019-08-12T10:17:43Z</time>
      </trkpt>
      <trkpt lat="39.5980590" lon="-3.8592950">
        <ele>930.5</ele>
        <time>2019-08-12T10:17:44Z</time>
      </trkpt>
      <trkpt lat="39.5980960" lon="-3.8593080">
        <ele>930.2</ele>
        <time>2019-08-12T10:17:45Z</time>
      </trkpt>
      <trkpt lat="39.5981340" lon="-3.8593240">
        <ele>929.9</ele>
        <time>2019-08-12T10:17:46Z</time>
      </trkpt>
      <trkpt lat="39.5981950" lon="-3.8593570">
        <ele>929.4</ele>
        <time>2019-08-12T10:17:47Z</time>
      </trkpt>
      <trkpt lat="39.5982150" lon="-3.8593700">
        <ele>929.3</ele>
        <time>2019-08-12T10:17:48Z</time>
      </trkpt>
      <trkpt lat="39.5982540" lon="-3.8594030">
        <ele>928.9</ele>
        <time>2019-08-12T10:17:49Z</time>
      </trkpt>
      <trkpt lat="39.5982920" lon="-3.8594430">
        <ele>928.5</ele>
        <time>2019-08-12T10:17:50Z</time>
      </trkpt>
      <trkpt lat="39.5983270" lon="-3.8594930">
        <ele>928.1</ele>
        <time>2019-08-12T10:17:51Z</time>
      </trkpt>
      <trkpt lat="39.5983590" lon="-3.8595530">
        <ele>926.5</ele>
        <time>2019-08-12T10:17:52Z</time>
      </trkpt>
      <trkpt lat="39.5983850" lon="-3.8596230">
        <ele>924.9</ele>
        <time>2019-08-12T10:17:53Z</time>
      </trkpt>
      <trkpt lat="39.5984040" lon="-3.8597010">
        <ele>923.5</ele>
        <time>2019-08-12T10:17:54Z</time>
      </trkpt>
      <trkpt lat="39.5984150" lon="-3.8597860">
        <ele>922.2</ele>
        <time>2019-08-12T10:17:55Z</time>
      </trkpt>
      <trkpt lat="39.5984170" lon="-3.8598780">
        <ele>921.2</ele>
        <time>2019-08-12T10:17:56Z</time>
      </trkpt>
      <trkpt lat="39.5984100" lon="-3.8599750">
        <ele>920.0</ele>
        <time>2019-08-12T10:17:57Z</time>
      </trkpt>
      <trkpt lat="39.5983970" lon="-3.8600770">
        <ele>918.8</ele>
        <time>2019-08-12T10:17:58Z</time>
      </trkpt>
      <trkpt lat="39.5983790" lon="-3.8601820">
        <ele>917.5</ele>
        <time>2019-08-12T10:17:59Z</time>
      </trkpt>
      <trkpt lat="39.5983580" lon="-3.8602900">
        <ele>916.5</ele>
        <time>2019-08-12T10:18:00Z</time>
      </trkpt>
      <trkpt lat="39.5983340" lon="-3.8603990">
        <ele>916.2</ele>
        <time>2019-08-12T10:18:01Z</time>
      </trkpt>
      <trkpt lat="39.5982900" lon="-3.8605890">
        <ele>915.7</ele>
        <time>2019-08-12T10:18:02Z</time>
      </trkpt>
      <trkpt lat="39.5982720" lon="-3.8606660">
        <ele>915.5</ele>
        <time>2019-08-12T10:18:03Z</time>
      </trkpt>
      <trkpt lat="39.5982530" lon="-3.8607440">
        <ele>915.3</ele>
        <time>2019-08-12T10:18:04Z</time>
      </trkpt>
      <trkpt lat="39.5982230" lon="-3.8608620">
        <ele>915.1</ele>
        <time>2019-08-12T10:18:05Z</time>
      </trkpt>
      <trkpt lat="39.5981930" lon="-3.8609810">
        <ele>914.8</ele>
        <time>2019-08-12T10:18:06Z</time>
      </trkpt>
      <trkpt lat="39.5981610" lon="-3.8611060">
        <ele>914.5</ele>
        <time>2019-08-12T10:18:07Z</time>
      </trkpt>
      <trkpt lat="39.5981280" lon="-3.8612330">
        <ele>914.2</ele>
        <time>2019-08-12T10:18:08Z</time>
      </trkpt>
      <trkpt lat="39.5980940" lon="-3.8613620">
        <ele>914.0</ele>
        <time>2019-08-12T10:18:09Z</time>
      </trkpt>
      <trkpt lat="39.5980600" lon="-3.8614940">
        <ele>913.7</ele>
        <time>2019-08-12T10:18:10Z</time>
      </trkpt>
      <trkpt lat="39.5980250" lon="-3.8616270">
        <ele>913.4</ele>
        <time>2019-08-12T10:18:11Z</time>
      </trkpt>
      <trkpt lat="39.5979900" lon="-3.8617620">
        <ele>913.0</ele>
        <time>2019-08-12T10:18:12Z</time>
      </trkpt>
      <trkpt lat="39.5979560" lon="-3.8618990">
        <ele>912.5</ele>
        <time>2019-08-12T10:18:13Z</time>
      </trkpt>
      <trkpt lat="39.5979210" lon="-3.8620370">
        <ele>912.1</ele>
        <time>2019-08-12T10:18:14Z</time>
      </trkpt>
      <trkpt lat="39.5978870" lon="-3.8621760">
        <ele>911.6</ele>
        <time>2019-08-12T10:18:15Z</time>
      </trkpt>
      <trkpt lat="39.5978530" lon="-3.8623170">
        <ele>911.2</ele>
        <time>2019-08-12T10:18:16Z</time>
      </trkpt>
      <trkpt lat="39.5978190" lon="-3.8624580">
        <ele>910.8</ele>
        <time>2019-08-12T10:18:17Z</time>
      </trkpt>
      <trkpt lat="39.5977820" lon="-3.8626000">
        <ele>910.4</ele>
        <time>2019-08-12T10:18:18Z</time>
      </trkpt>
      <trkpt lat="39.5977440" lon="-3.8627430">
        <ele>910.0</ele>
        <time>2019-08-12T10:18:19Z</time>
      </trkpt>
      <trkpt lat="39.5977030" lon="-3.8628870">
        <ele>909.6</ele>
        <time>2019-08-12T10:18:20Z</time>
      </trkpt>
      <trkpt lat="39.5976600" lon="-3.8630310">
        <ele>909.1</ele>
        <time>2019-08-12T10:18:21Z</time>
      </trkpt>
      <trkpt lat="39.5976160" lon="-3.8631760">
        <ele>908.6</ele>
        <time>2019-08-12T10:18:22Z</time>
      </trkpt>
      <trkpt lat="39.5975700" lon="-3.8633200">
        <ele>908.2</ele>
        <time>2019-08-12T10:18:23Z</time>
      </trkpt>
      <trkpt lat="39.5974950" lon="-3.8635580">
        <ele>907.3</ele>
        <time>2019-08-12T10:18:24Z</time>
      </trkpt>
      <trkpt lat="39.5974640" lon="-3.8636520">
        <ele>906.9</ele>
        <time>2019-08-12T10:18:25Z</time>
      </trkpt>
      <trkpt lat="39.5974340" lon="-3.8637470">
        <ele>906.4</ele>
        <time>2019-08-12T10:18:26Z</time>
      </trkpt>
      <trkpt lat="39.5973880" lon="-3.8638880">
        <ele>905.6</ele>
        <time>2019-08-12T10:18:27Z</time>
      </trkpt>
      <trkpt lat="39.5973440" lon="-3.8640270">
        <ele>905.0</ele>
        <time>2019-08-12T10:18:28Z</time>
      </trkpt>
      <trkpt lat="39.5972730" lon="-3.8642550">
        <ele>904.1</ele>
        <time>2019-08-12T10:18:29Z</time>
      </trkpt>
      <trkpt lat="39.5972450" lon="-3.8643450">
        <ele>903.8</ele>
        <time>2019-08-12T10:18:30Z</time>
      </trkpt>
      <trkpt lat="39.5972180" lon="-3.8644350">
        <ele>903.5</ele>
        <time>2019-08-12T10:18:31Z</time>
      </trkpt>
      <trkpt lat="39.5971770" lon="-3.8645680">
        <ele>903.0</ele>
        <time>2019-08-12T10:18:32Z</time>
      </trkpt>
      <trkpt lat="39.5971380" lon="-3.8646990">
        <ele>902.4</ele>
        <time>2019-08-12T10:18:33Z</time>
      </trkpt>
      <trkpt lat="39.5971010" lon="-3.8648260">
        <ele>901.7</ele>
        <time>2019-08-12T10:18:34Z</time>
      </trkpt>
      <trkpt lat="39.5970630" lon="-3.8649500">
        <ele>901.0</ele>
        <time>2019-08-12T10:18:35Z</time>
      </trkpt>
      <trkpt lat="39.5970250" lon="-3.8650690">
        <ele>900.4</ele>
        <time>2019-08-12T10:18:36Z</time>
      </trkpt>
      <trkpt lat="39.5969850" lon="-3.8651830">
        <ele>899.9</ele>
        <time>2019-08-12T10:18:37Z</time>
      </trkpt>
      <trkpt lat="39.5969420" lon="-3.8652890">
        <ele>899.3</ele>
        <time>2019-08-12T10:18:38Z</time>
      </trkpt>
      <trkpt lat="39.5968960" lon="-3.8653880">
        <ele>898.7</ele>
        <time>2019-08-12T10:18:39Z</time>
      </trkpt>
      <trkpt lat="39.5968450" lon="-3.8654780">
        <ele>898.1</ele>
        <time>2019-08-12T10:18:40Z</time>
      </trkpt>
      <trkpt lat="39.5967890" lon="-3.8655580">
        <ele>897.3</ele>
        <time>2019-08-12T10:18:41Z</time>
      </trkpt>
      <trkpt lat="39.5967280" lon="-3.8656280">
        <ele>896.5</ele>
        <time>2019-08-12T10:18:42Z</time>
      </trkpt>
      <trkpt lat="39.5966640" lon="-3.8656910">
        <ele>895.7</ele>
        <time>2019-08-12T10:18:43Z</time>
      </trkpt>
      <trkpt lat="39.5966010" lon="-3.8657510">
        <ele>895.1</ele>
        <time>2019-08-12T10:18:44Z</time>
      </trkpt>
      <trkpt lat="39.5965420" lon="-3.8658100">
        <ele>894.5</ele>
        <time>2019-08-12T10:18:45Z</time>
      </trkpt>
      <trkpt lat="39.5964900" lon="-3.8658730">
        <ele>894.0</ele>
        <time>2019-08-12T10:18:46Z</time>
      </trkpt>
      <trkpt lat="39.5964500" lon="-3.8659420">
        <ele>893.7</ele>
        <time>2019-08-12T10:18:47Z</time>
      </trkpt>
      <trkpt lat="39.5964320" lon="-3.8660140">
        <ele>893.4</ele>
        <time>2019-08-12T10:18:48Z</time>
      </trkpt>
      <trkpt lat="39.5964430" lon="-3.8660850">
        <ele>893.1</ele>
        <time>2019-08-12T10:18:49Z</time>
      </trkpt>
      <trkpt lat="39.5964750" lon="-3.8661390">
        <ele>892.6</ele>
        <time>2019-08-12T10:18:50Z</time>
      </trkpt>
      <trkpt lat="39.5965170" lon="-3.8661620">
        <ele>892.3</ele>
        <time>2019-08-12T10:18:51Z</time>
      </trkpt>
      <trkpt lat="39.5965650" lon="-3.8661540">
        <ele>892.1</ele>
        <time>2019-08-12T10:18:52Z</time>
      </trkpt>
      <trkpt lat="39.5966160" lon="-3.8661240">
        <ele>891.8</ele>
        <time>2019-08-12T10:18:53Z</time>
      </trkpt>
      <trkpt lat="39.5966670" lon="-3.8660750">
        <ele>891.5</ele>
        <time>2019-08-12T10:18:54Z</time>
      </trkpt>
      <trkpt lat="39.5967150" lon="-3.8660160">
        <ele>891.1</ele>
        <time>2019-08-12T10:18:55Z</time>
      </trkpt>
      <trkpt lat="39.5967590" lon="-3.8659500">
        <ele>890.8</ele>
        <time>2019-08-12T10:18:56Z</time>
      </trkpt>
      <trkpt lat="39.5968030" lon="-3.8658850">
        <ele>890.5</ele>
        <time>2019-08-12T10:18:57Z</time>
      </trkpt>
      <trkpt lat="39.5968500" lon="-3.8658250">
        <ele>890.1</ele>
        <time>2019-08-12T10:18:58Z</time>
      </trkpt>
      <trkpt lat="39.5969000" lon="-3.8657660">
        <ele>889.7</ele>
        <time>2019-08-12T10:18:59Z</time>
      </trkpt>
      <trkpt lat="39.5969490" lon="-3.8657060">
        <ele>889.3</ele>
        <time>2019-08-12T10:19:00Z</time>
      </trkpt>
      <trkpt lat="39.5969990" lon="-3.8656450">
        <ele>888.7</ele>
        <time>2019-08-12T10:19:01Z</time>
      </trkpt>
      <trkpt lat="39.5970500" lon="-3.8655820">
        <ele>888.2</ele>
        <time>2019-08-12T10:19:02Z</time>
      </trkpt>
      <trkpt lat="39.5971030" lon="-3.8655190">
        <ele>887.7</ele>
        <time>2019-08-12T10:19:03Z</time>
      </trkpt>
      <trkpt lat="39.5971610" lon="-3.8654570">
        <ele>887.1</ele>
        <time>2019-08-12T10:19:04Z</time>
      </trkpt>
      <trkpt lat="39.5972240" lon="-3.8653950">
        <ele>886.3</ele>
        <time>2019-08-12T10:19:05Z</time>
      </trkpt>
      <trkpt lat="39.5972920" lon="-3.8653330">
        <ele>885.8</ele>
        <time>2019-08-12T10:19:06Z</time>
      </trkpt>
      <trkpt lat="39.5973640" lon="-3.8652720">
        <ele>885.3</ele>
        <time>2019-08-12T10:19:07Z</time>
      </trkpt>
      <trkpt lat="39.5974380" lon="-3.8652100">
        <ele>884.9</ele>
        <time>2019-08-12T10:19:08Z</time>
      </trkpt>
      <trkpt lat="39.5975150" lon="-3.8651470">
        <ele>884.5</ele>
        <time>2019-08-12T10:19:09Z</time>
      </trkpt>
      <trkpt lat="39.5975940" lon="-3.8650830">
        <ele>884.0</ele>
        <time>2019-08-12T10:19:10Z</time>
      </trkpt>
      <trkpt lat="39.5976740" lon="-3.8650170">
        <ele>883.6</ele>
        <time>2019-08-12T10:19:11Z</time>
      </trkpt>
      <trkpt lat="39.5977540" lon="-3.8649490">
        <ele>883.2</ele>
        <time>2019-08-12T10:19:12Z</time>
      </trkpt>
      <trkpt lat="39.5978330" lon="-3.8648780">
        <ele>882.8</ele>
        <time>2019-08-12T10:19:13Z</time>
      </trkpt>
      <trkpt lat="39.5979120" lon="-3.8648040">
        <ele>882.3</ele>
        <time>2019-08-12T10:19:14Z</time>
      </trkpt>
      <trkpt lat="39.5979890" lon="-3.8647270">
        <ele>881.7</ele>
        <time>2019-08-12T10:19:15Z</time>
      </trkpt>
      <trkpt lat="39.5980640" lon="-3.8646450">
        <ele>881.0</ele>
        <time>2019-08-12T10:19:16Z</time>
      </trkpt>
      <trkpt lat="39.5981360" lon="-3.8645590">
        <ele>880.3</ele>
        <time>2019-08-12T10:19:17Z</time>
      </trkpt>
      <trkpt lat="39.5982050" lon="-3.8644690">
        <ele>879.7</ele>
        <time>2019-08-12T10:19:18Z</time>
      </trkpt>
      <trkpt lat="39.5982690" lon="-3.8643730">
        <ele>879.1</ele>
        <time>2019-08-12T10:19:19Z</time>
      </trkpt>
      <trkpt lat="39.5983310" lon="-3.8642730">
        <ele>878.5</ele>
        <time>2019-08-12T10:19:20Z</time>
      </trkpt>
      <trkpt lat="39.5983900" lon="-3.8641700">
        <ele>877.9</ele>
        <time>2019-08-12T10:19:21Z</time>
      </trkpt>
      <trkpt lat="39.5984460" lon="-3.8640660">
        <ele>877.3</ele>
        <time>2019-08-12T10:19:22Z</time>
      </trkpt>
      <trkpt lat="39.5985020" lon="-3.8639620">
        <ele>876.7</ele>
        <time>2019-08-12T10:19:23Z</time>
      </trkpt>
      <trkpt lat="39.5985580" lon="-3.8638600">
        <ele>876.0</ele>
        <time>2019-08-12T10:19:24Z</time>
      </trkpt>
      <trkpt lat="39.5986130" lon="-3.8637590">
        <ele>875.4</ele>
        <time>2019-08-12T10:19:25Z</time>
      </trkpt>
      <trkpt lat="39.5986700" lon="-3.8636590">
        <ele>874.8</ele>
        <time>2019-08-12T10:19:26Z</time>
      </trkpt>
      <trkpt lat="39.5987270" lon="-3.8635600">
        <ele>874.2</ele>
        <time>2019-08-12T10:19:27Z</time>
      </trkpt>
      <trkpt lat="39.5987860" lon="-3.8634620">
        <ele>873.6</ele>
        <time>2019-08-12T10:19:28Z</time>
      </trkpt>
      <trkpt lat="39.5988480" lon="-3.8633670">
        <ele>873.0</ele>
        <time>2019-08-12T10:19:29Z</time>
      </trkpt>
      <trkpt lat="39.5989630" lon="-3.8632250">
        <ele>872.0</ele>
        <time>2019-08-12T10:19:30Z</time>
      </trkpt>
      <trkpt lat="39.5990130" lon="-3.8631720">
        <ele>871.6</ele>
        <time>2019-08-12T10:19:31Z</time>
      </trkpt>
      <trkpt lat="39.5990620" lon="-3.8631200">
        <ele>871.2</ele>
        <time>2019-08-12T10:19:32Z</time>
      </trkpt>
      <trkpt lat="39.5991470" lon="-3.8630550">
        <ele>870.4</ele>
        <time>2019-08-12T10:19:33Z</time>
      </trkpt>
      <trkpt lat="39.5992350" lon="-3.8629960">
        <ele>869.8</ele>
        <time>2019-08-12T10:19:34Z</time>
      </trkpt>
      <trkpt lat="39.5993810" lon="-3.8628840">
        <ele>868.7</ele>
        <time>2019-08-12T10:19:35Z</time>
      </trkpt>
      <trkpt lat="39.5994360" lon="-3.8628320">
        <ele>868.2</ele>
        <time>2019-08-12T10:19:36Z</time>
      </trkpt>
      <trkpt lat="39.5994920" lon="-3.8627810">
        <ele>867.6</ele>
        <time>2019-08-12T10:19:37Z</time>
      </trkpt>
      <trkpt lat="39.5995720" lon="-3.8626950">
        <ele>866.8</ele>
        <time>2019-08-12T10:19:38Z</time>
      </trkpt>
      <trkpt lat="39.5996490" lon="-3.8625980">
        <ele>866.0</ele>
        <time>2019-08-12T10:19:39Z</time>
      </trkpt>
      <trkpt lat="39.5997250" lon="-3.8624980">
        <ele>865.1</ele>
        <time>2019-08-12T10:19:40Z</time>
      </trkpt>
      <trkpt lat="39.5998030" lon="-3.8623980">
        <ele>864.3</ele>
        <time>2019-08-12T10:19:41Z</time>
      </trkpt>
      <trkpt lat="39.5998840" lon="-3.8623020">
        <ele>863.5</ele>
        <time>2019-08-12T10:19:42Z</time>
      </trkpt>
      <trkpt lat="39.5999690" lon="-3.8622080">
        <ele>862.6</ele>
        <time>2019-08-12T10:19:43Z</time>
      </trkpt>
      <trkpt lat="39.6000550" lon="-3.8621160">
        <ele>861.9</ele>
        <time>2019-08-12T10:19:44Z</time>
      </trkpt>
      <trkpt lat="39.6001430" lon="-3.8620250">
        <ele>861.2</ele>
        <time>2019-08-12T10:19:45Z</time>
      </trkpt>
      <trkpt lat="39.6002310" lon="-3.8619330">
        <ele>860.5</ele>
        <time>2019-08-12T10:19:46Z</time>
      </trkpt>
      <trkpt lat="39.6003200" lon="-3.8618440">
        <ele>859.8</ele>
        <time>2019-08-12T10:19:47Z</time>
      </trkpt>
      <trkpt lat="39.6004110" lon="-3.8617600">
        <ele>859.0</ele>
        <time>2019-08-12T10:19:48Z</time>
      </trkpt>
      <trkpt lat="39.6005030" lon="-3.8616860">
        <ele>858.4</ele>
        <time>2019-08-12T10:19:49Z</time>
      </trkpt>
      <trkpt lat="39.6005970" lon="-3.8616250">
        <ele>857.6</ele>
        <time>2019-08-12T10:19:50Z</time>
      </trkpt>
      <trkpt lat="39.6006940" lon="-3.8615790">
        <ele>856.9</ele>
        <time>2019-08-12T10:19:51Z</time>
      </trkpt>
      <trkpt lat="39.6007930" lon="-3.8615450">
        <ele>856.2</ele>
        <time>2019-08-12T10:19:52Z</time>
      </trkpt>
      <trkpt lat="39.6008940" lon="-3.8615190">
        <ele>855.5</ele>
        <time>2019-08-12T10:19:53Z</time>
      </trkpt>
      <trkpt lat="39.6009950" lon="-3.8614960">
        <ele>854.7</ele>
        <time>2019-08-12T10:19:54Z</time>
      </trkpt>
      <trkpt lat="39.6010960" lon="-3.8614740">
        <ele>854.0</ele>
        <time>2019-08-12T10:19:55Z</time>
      </trkpt>
      <trkpt lat="39.6011960" lon="-3.8614490">
        <ele>853.2</ele>
        <time>2019-08-12T10:19:56Z</time>
      </trkpt>
      <trkpt lat="39.6012960" lon="-3.8614200">
        <ele>852.3</ele>
        <time>2019-08-12T10:19:57Z</time>
      </trkpt>
      <trkpt lat="39.6013950" lon="-3.8613880">
        <ele>851.6</ele>
        <time>2019-08-12T10:19:58Z</time>
      </trkpt>
      <trkpt lat="39.6014940" lon="-3.8613550">
        <ele>850.9</ele>
        <time>2019-08-12T10:19:59Z</time>
      </trkpt>
      <trkpt lat="39.6015920" lon="-3.8613210">
        <ele>850.2</ele>
        <time>2019-08-12T10:20:00Z</time>
      </trkpt>
      <trkpt lat="39.6016900" lon="-3.8612870">
        <ele>849.5</ele>
        <time>2019-08-12T10:20:01Z</time>
      </trkpt>
      <trkpt lat="39.6017870" lon="-3.8612540">
        <ele>848.9</ele>
        <time>2019-08-12T10:20:02Z</time>
      </trkpt>
      <trkpt lat="39.6018840" lon="-3.8612220">
        <ele>848.2</ele>
        <time>2019-08-12T10:20:03Z</time>
      </trkpt>
      <trkpt lat="39.6019820" lon="-3.8611910">
        <ele>847.5</ele>
        <time>2019-08-12T10:20:04Z</time>
      </trkpt>
      <trkpt lat="39.6020790" lon="-3.8611620">
        <ele>846.6</ele>
        <time>2019-08-12T10:20:05Z</time>
      </trkpt>
      <trkpt lat="39.6021770" lon="-3.8611350">
        <ele>845.8</ele>
        <time>2019-08-12T10:20:06Z</time>
      </trkpt>
      <trkpt lat="39.6022750" lon="-3.8611100">
        <ele>844.9</ele>
        <time>2019-08-12T10:20:07Z</time>
      </trkpt>
      <trkpt lat="39.6023730" lon="-3.8610860">
        <ele>844.2</ele>
        <time>2019-08-12T10:20:08Z</time>
      </trkpt>
      <trkpt lat="39.6024720" lon="-3.8610630">
        <ele>843.4</ele>
        <time>2019-08-12T10:20:09Z</time>
      </trkpt>
      <trkpt lat="39.6025710" lon="-3.8610410">
        <ele>842.6</ele>
        <time>2019-08-12T10:20:10Z</time>
      </trkpt>
      <trkpt lat="39.6026710" lon="-3.8610190">
        <ele>841.8</ele>
        <time>2019-08-12T10:20:11Z</time>
      </trkpt>
      <trkpt lat="39.6027710" lon="-3.8609980">
        <ele>840.9</ele>
        <time>2019-08-12T10:20:12Z</time>
      </trkpt>
      <trkpt lat="39.6028720" lon="-3.8609770">
        <ele>840.1</ele>
        <time>2019-08-12T10:20:13Z</time>
      </trkpt>
      <trkpt lat="39.6029730" lon="-3.8609570">
        <ele>839.3</ele>
        <time>2019-08-12T10:20:14Z</time>
      </trkpt>
      <trkpt lat="39.6030750" lon="-3.8609360">
        <ele>838.4</ele>
        <time>2019-08-12T10:20:15Z</time>
      </trkpt>
      <trkpt lat="39.6031770" lon="-3.8609160">
        <ele>837.6</ele>
        <time>2019-08-12T10:20:16Z</time>
      </trkpt>
      <trkpt lat="39.6032800" lon="-3.8608970">
        <ele>836.8</ele>
        <time>2019-08-12T10:20:17Z</time>
      </trkpt>
      <trkpt lat="39.6033840" lon="-3.8608780">
        <ele>836.2</ele>
        <time>2019-08-12T10:20:18Z</time>
      </trkpt>
      <trkpt lat="39.6034890" lon="-3.8608600">
        <ele>835.6</ele>
        <time>2019-08-12T10:20:19Z</time>
      </trkpt>
      <trkpt lat="39.6035950" lon="-3.8608440">
        <ele>835.0</ele>
        <time>2019-08-12T10:20:20Z</time>
      </trkpt>
      <trkpt lat="39.6037010" lon="-3.8608290">
        <ele>834.3</ele>
        <time>2019-08-12T10:20:21Z</time>
      </trkpt>
      <trkpt lat="39.6038090" lon="-3.8608160">
        <ele>833.6</ele>
        <time>2019-08-12T10:20:22Z</time>
      </trkpt>
      <trkpt lat="39.6039170" lon="-3.8608040">
        <ele>832.7</ele>
        <time>2019-08-12T10:20:23Z</time>
      </trkpt>
      <trkpt lat="39.6040260" lon="-3.8607930">
        <ele>831.9</ele>
        <time>2019-08-12T10:20:24Z</time>
      </trkpt>
      <trkpt lat="39.6041350" lon="-3.8607790">
        <ele>831.1</ele>
        <time>2019-08-12T10:20:25Z</time>
      </trkpt>
      <trkpt lat="39.6042440" lon="-3.8607620">
        <ele>830.3</ele>
        <time>2019-08-12T10:20:26Z</time>
      </trkpt>
      <trkpt lat="39.6043510" lon="-3.8607380">
        <ele>829.4</ele>
        <time>2019-08-12T10:20:27Z</time>
      </trkpt>
      <trkpt lat="39.6044580" lon="-3.8607070">
        <ele>828.4</ele>
        <time>2019-08-12T10:20:28Z</time>
      </trkpt>
      <trkpt lat="39.6045630" lon="-3.8606680">
        <ele>827.7</ele>
        <time>2019-08-12T10:20:29Z</time>
      </trkpt>
      <trkpt lat="39.6046660" lon="-3.8606230">
        <ele>827.0</ele>
        <time>2019-08-12T10:20:30Z</time>
      </trkpt>
      <trkpt lat="39.6047680" lon="-3.8605720">
        <ele>826.1</ele>
        <time>2019-08-12T10:20:31Z</time>
      </trkpt>
      <trkpt lat="39.6048700" lon="-3.8605180">
        <ele>825.2</ele>
        <time>2019-08-12T10:20:32Z</time>
      </trkpt>
      <trkpt lat="39.6049730" lon="-3.8604640">
        <ele>824.3</ele>
        <time>2019-08-12T10:20:33Z</time>
      </trkpt>
      <trkpt lat="39.6050790" lon="-3.8604130">
        <ele>823.3</ele>
        <time>2019-08-12T10:20:34Z</time>
      </trkpt>
      <trkpt lat="39.6051860" lon="-3.8603660">
        <ele>822.3</ele>
        <time>2019-08-12T10:20:35Z</time>
      </trkpt>
      <trkpt lat="39.6052960" lon="-3.8603270">
        <ele>821.4</ele>
        <time>2019-08-12T10:20:36Z</time>
      </trkpt>
      <trkpt lat="39.6054080" lon="-3.8602970">
        <ele>820.4</ele>
        <time>2019-08-12T10:20:37Z</time>
      </trkpt>
      <trkpt lat="39.6055220" lon="-3.8602800">
        <ele>819.3</ele>
        <time>2019-08-12T10:20:38Z</time>
      </trkpt>
      <trkpt lat="39.6056370" lon="-3.8602740">
        <ele>818.3</ele>
        <time>2019-08-12T10:20:39Z</time>
      </trkpt>
      <trkpt lat="39.6057540" lon="-3.8602790">
        <ele>817.3</ele>
        <time>2019-08-12T10:20:40Z</time>
      </trkpt>
      <trkpt lat="39.6058710" lon="-3.8603010">
        <ele>816.1</ele>
        <time>2019-08-12T10:20:41Z</time>
      </trkpt>
      <trkpt lat="39.6059880" lon="-3.8603230">
        <ele>814.9</ele>
        <time>2019-08-12T10:20:42Z</time>
      </trkpt>
      <trkpt lat="39.6061050" lon="-3.8603580">
        <ele>813.6</ele>
        <time>2019-08-12T10:20:43Z</time>
      </trkpt>
      <trkpt lat="39.6062210" lon="-3.8604000">
        <ele>812.5</ele>
        <time>2019-08-12T10:20:44Z</time>
      </trkpt>
      <trkpt lat="39.6063370" lon="-3.8604470">
        <ele>811.4</ele>
        <time>2019-08-12T10:20:45Z</time>
      </trkpt>
      <trkpt lat="39.6064520" lon="-3.8604960">
        <ele>810.3</ele>
        <time>2019-08-12T10:20:46Z</time>
      </trkpt>
      <trkpt lat="39.6065670" lon="-3.8605450">
        <ele>809.3</ele>
        <time>2019-08-12T10:20:47Z</time>
      </trkpt>
      <trkpt lat="39.6066820" lon="-3.8605950">
        <ele>808.3</ele>
        <time>2019-08-12T10:20:48Z</time>
      </trkpt>
      <trkpt lat="39.6067960" lon="-3.8606440">
        <ele>807.3</ele>
        <time>2019-08-12T10:20:49Z</time>
      </trkpt>
      <trkpt lat="39.6069090" lon="-3.8606940">
        <ele>806.4</ele>
        <time>2019-08-12T10:20:50Z</time>
      </trkpt>
      <trkpt lat="39.6070220" lon="-3.8607430">
        <ele>805.5</ele>
        <time>2019-08-12T10:20:51Z</time>
      </trkpt>
      <trkpt lat="39.6071340" lon="-3.8607910">
        <ele>804.7</ele>
        <time>2019-08-12T10:20:52Z</time>
      </trkpt>
      <trkpt lat="39.6072460" lon="-3.8608390">
        <ele>804.0</ele>
        <time>2019-08-12T10:20:53Z</time>
      </trkpt>
      <trkpt lat="39.6073570" lon="-3.8608860">
        <ele>803.3</ele>
        <time>2019-08-12T10:20:54Z</time>
      </trkpt>
      <trkpt lat="39.6074680" lon="-3.8609330">
        <ele>802.7</ele>
        <time>2019-08-12T10:20:55Z</time>
      </trkpt>
      <trkpt lat="39.6075770" lon="-3.8609800">
        <ele>802.1</ele>
        <time>2019-08-12T10:20:56Z</time>
      </trkpt>
      <trkpt lat="39.6076860" lon="-3.8610260">
        <ele>801.5</ele>
        <time>2019-08-12T10:20:57Z</time>
      </trkpt>
      <trkpt lat="39.6077940" lon="-3.8610720">
        <ele>800.8</ele>
        <time>2019-08-12T10:20:58Z</time>
      </trkpt>
      <trkpt lat="39.6079010" lon="-3.8611180">
        <ele>800.1</ele>
        <time>2019-08-12T10:20:59Z</time>
      </trkpt>
      <trkpt lat="39.6080060" lon="-3.8611630">
        <ele>799.5</ele>
        <time>2019-08-12T10:21:00Z</time>
      </trkpt>
      <trkpt lat="39.6081110" lon="-3.8612080">
        <ele>798.9</ele>
        <time>2019-08-12T10:21:01Z</time>
      </trkpt>
      <trkpt lat="39.6082140" lon="-3.8612530">
        <ele>798.3</ele>
        <time>2019-08-12T10:21:02Z</time>
      </trkpt>
      <trkpt lat="39.6083170" lon="-3.8612970">
        <ele>797.8</ele>
        <time>2019-08-12T10:21:03Z</time>
      </trkpt>
      <trkpt lat="39.6084180" lon="-3.8613410">
        <ele>797.5</ele>
        <time>2019-08-12T10:21:04Z</time>
      </trkpt>
      <trkpt lat="39.6085190" lon="-3.8613840">
        <ele>797.1</ele>
        <time>2019-08-12T10:21:05Z</time>
      </trkpt>
      <trkpt lat="39.6086180" lon="-3.8614260">
        <ele>796.8</ele>
        <time>2019-08-12T10:21:06Z</time>
      </trkpt>
      <trkpt lat="39.6087160" lon="-3.8614680">
        <ele>796.4</ele>
        <time>2019-08-12T10:21:07Z</time>
      </trkpt>
      <trkpt lat="39.6088140" lon="-3.8615090">
        <ele>796.0</ele>
        <time>2019-08-12T10:21:08Z</time>
      </trkpt>
      <trkpt lat="39.6089100" lon="-3.8615500">
        <ele>795.6</ele>
        <time>2019-08-12T10:21:09Z</time>
      </trkpt>
      <trkpt lat="39.6090050" lon="-3.8615890">
        <ele>795.3</ele>
        <time>2019-08-12T10:21:10Z</time>
      </trkpt>
      <trkpt lat="39.6091000" lon="-3.8616290">
        <ele>794.9</ele>
        <time>2019-08-12T10:21:11Z</time>
      </trkpt>
      <trkpt lat="39.6091940" lon="-3.8616670">
        <ele>794.5</ele>
        <time>2019-08-12T10:21:12Z</time>
      </trkpt>
      <trkpt lat="39.6092880" lon="-3.8617060">
        <ele>794.1</ele>
        <time>2019-08-12T10:21:13Z</time>
      </trkpt>
      <trkpt lat="39.6093810" lon="-3.8617450">
        <ele>793.8</ele>
        <time>2019-08-12T10:21:14Z</time>
      </trkpt>
      <trkpt lat="39.6094730" lon="-3.8617830">
        <ele>793.5</ele>
        <time>2019-08-12T10:21:15Z</time>
      </trkpt>
      <trkpt lat="39.6095660" lon="-3.8618220">
        <ele>793.2</ele>
        <time>2019-08-12T10:21:16Z</time>
      </trkpt>
      <trkpt lat="39.6096580" lon="-3.8618610">
        <ele>792.9</ele>
        <time>2019-08-12T10:21:17Z</time>
      </trkpt>
      <trkpt lat="39.6097500" lon="-3.8619000">
        <ele>792.6</ele>
        <time>2019-08-12T10:21:18Z</time>
      </trkpt>
      <trkpt lat="39.6098420" lon="-3.8619400">
        <ele>792.3</ele>
        <time>2019-08-12T10:21:19Z</time>
      </trkpt>
      <trkpt lat="39.6099340" lon="-3.8619800">
        <ele>792.0</ele>
        <time>2019-08-12T10:21:20Z</time>
      </trkpt>
      <trkpt lat="39.6100260" lon="-3.8620200">
        <ele>791.7</ele>
        <time>2019-08-12T10:21:21Z</time>
      </trkpt>
      <trkpt lat="39.6101180" lon="-3.8620600">
        <ele>791.4</ele>
        <time>2019-08-12T10:21:22Z</time>
      </trkpt>
      <trkpt lat="39.6102090" lon="-3.8620990">
        <ele>791.0</ele>
        <time>2019-08-12T10:21:23Z</time>
      </trkpt>
      <trkpt lat="39.6103620" lon="-3.8621640">
        <ele>790.4</ele>
        <time>2019-08-12T10:21:24Z</time>
      </trkpt>
      <trkpt lat="39.6104220" lon="-3.8621900">
        <ele>790.2</ele>
        <time>2019-08-12T10:21:25Z</time>
      </trkpt>
      <trkpt lat="39.6104830" lon="-3.8622150">
        <ele>790.0</ele>
        <time>2019-08-12T10:21:26Z</time>
      </trkpt>
      <trkpt lat="39.6105730" lon="-3.8622530">
        <ele>789.7</ele>
        <time>2019-08-12T10:21:27Z</time>
      </trkpt>
      <trkpt lat="39.6106630" lon="-3.8622890">
        <ele>789.4</ele>
        <time>2019-08-12T10:21:28Z</time>
      </trkpt>
      <trkpt lat="39.6108090" lon="-3.8623490">
        <ele>789.0</ele>
        <time>2019-08-12T10:21:29Z</time>
      </trkpt>
      <trkpt lat="39.6108660" lon="-3.8623740">
        <ele>788.8</ele>
        <time>2019-08-12T10:21:30Z</time>
      </trkpt>
      <trkpt lat="39.6109230" lon="-3.8623980">
        <ele>788.7</ele>
        <time>2019-08-12T10:21:31Z</time>
      </trkpt>
      <trkpt lat="39.6110060" lon="-3.8624340">
        <ele>788.5</ele>
        <time>2019-08-12T10:21:32Z</time>
      </trkpt>
      <trkpt lat="39.6110870" lon="-3.8624700">
        <ele>788.3</ele>
        <time>2019-08-12T10:21:33Z</time>
      </trkpt>
      <trkpt lat="39.6111660" lon="-3.8625060">
        <ele>788.1</ele>
        <time>2019-08-12T10:21:34Z</time>
      </trkpt>
      <trkpt lat="39.6112460" lon="-3.8625430">
        <ele>787.8</ele>
        <time>2019-08-12T10:21:35Z</time>
      </trkpt>
      <trkpt lat="39.6113250" lon="-3.8625790">
        <ele>787.5</ele>
        <time>2019-08-12T10:21:36Z</time>
      </trkpt>
      <trkpt lat="39.6114050" lon="-3.8626160">
        <ele>787.1</ele>
        <time>2019-08-12T10:21:37Z</time>
      </trkpt>
      <trkpt lat="39.6114850" lon="-3.8626520">
        <ele>786.8</ele>
        <time>2019-08-12T10:21:38Z</time>
      </trkpt>
      <trkpt lat="39.6115660" lon="-3.8626870">
        <ele>786.5</ele>
        <time>2019-08-12T10:21:39Z</time>
      </trkpt>
      <trkpt lat="39.6116460" lon="-3.8627220">
        <ele>786.2</ele>
        <time>2019-08-12T10:21:40Z</time>
      </trkpt>
      <trkpt lat="39.6117280" lon="-3.8627570">
        <ele>785.9</ele>
        <time>2019-08-12T10:21:41Z</time>
      </trkpt>
      <trkpt lat="39.6118090" lon="-3.8627900">
        <ele>785.5</ele>
        <time>2019-08-12T10:21:42Z</time>
      </trkpt>
      <trkpt lat="39.6118910" lon="-3.8628230">
        <ele>785.1</ele>
        <time>2019-08-12T10:21:43Z</time>
      </trkpt>
      <trkpt lat="39.6119730" lon="-3.8628540">
        <ele>784.6</ele>
        <time>2019-08-12T10:21:44Z</time>
      </trkpt>
      <trkpt lat="39.6120560" lon="-3.8628840">
        <ele>784.3</ele>
        <time>2019-08-12T10:21:45Z</time>
      </trkpt>
      <trkpt lat="39.6121380" lon="-3.8629120">
        <ele>784.0</ele>
        <time>2019-08-12T10:21:46Z</time>
      </trkpt>
      <trkpt lat="39.6122210" lon="-3.8629370">
        <ele>783.9</ele>
        <time>2019-08-12T10:21:47Z</time>
      </trkpt>
      <trkpt lat="39.6123030" lon="-3.8629590">
        <ele>783.8</ele>
        <time>2019-08-12T10:21:48Z</time>
      </trkpt>
      <trkpt lat="39.6123850" lon="-3.8629760">
        <ele>783.8</ele>
        <time>2019-08-12T10:21:49Z</time>
      </trkpt>
      <trkpt lat="39.6124650" lon="-3.8629870">
        <ele>783.8</ele>
        <time>2019-08-12T10:21:50Z</time>
      </trkpt>
      <trkpt lat="39.6125440" lon="-3.8629910">
        <ele>783.7</ele>
        <time>2019-08-12T10:21:51Z</time>
      </trkpt>
      <trkpt lat="39.6126210" lon="-3.8629920">
        <ele>783.7</ele>
        <time>2019-08-12T10:21:52Z</time>
      </trkpt>
      <trkpt lat="39.6126970" lon="-3.8629940">
        <ele>783.7</ele>
        <time>2019-08-12T10:21:53Z</time>
      </trkpt>
      <trkpt lat="39.6127720" lon="-3.8630000">
        <ele>783.7</ele>
        <time>2019-08-12T10:21:54Z</time>
      </trkpt>
      <trkpt lat="39.6128440" lon="-3.8630150">
        <ele>783.6</ele>
        <time>2019-08-12T10:21:55Z</time>
      </trkpt>
      <trkpt lat="39.6129130" lon="-3.8630400">
        <ele>783.6</ele>
        <time>2019-08-12T10:21:56Z</time>
      </trkpt>
      <trkpt lat="39.6129770" lon="-3.8630760">
        <ele>783.6</ele>
        <time>2019-08-12T10:21:57Z</time>
      </trkpt>
      <trkpt lat="39.6130320" lon="-3.8631260">
        <ele>783.3</ele>
        <time>2019-08-12T10:21:58Z</time>
      </trkpt>
      <trkpt lat="39.6130780" lon="-3.8631900">
        <ele>783.1</ele>
        <time>2019-08-12T10:21:59Z</time>
      </trkpt>
      <trkpt lat="39.6131140" lon="-3.8632680">
        <ele>782.9</ele>
        <time>2019-08-12T10:22:00Z</time>
      </trkpt>
      <trkpt lat="39.6131500" lon="-3.8633450">
        <ele>782.7</ele>
        <time>2019-08-12T10:22:01Z</time>
      </trkpt>
      <trkpt lat="39.6131960" lon="-3.8634090">
        <ele>782.6</ele>
        <time>2019-08-12T10:22:02Z</time>
      </trkpt>
      <trkpt lat="39.6132490" lon="-3.8634590">
        <ele>782.5</ele>
        <time>2019-08-12T10:22:03Z</time>
      </trkpt>
      <trkpt lat="39.6133070" lon="-3.8634980">
        <ele>782.5</ele>
        <time>2019-08-12T10:22:04Z</time>
      </trkpt>
      <trkpt lat="39.6133680" lon="-3.8635290">
        <ele>782.4</ele>
        <time>2019-08-12T10:22:05Z</time>
      </trkpt>
      <trkpt lat="39.6134320" lon="-3.8635540">
        <ele>782.4</ele>
        <time>2019-08-12T10:22:06Z</time>
      </trkpt>
      <trkpt lat="39.6134980" lon="-3.8635770">
        <ele>782.3</ele>
        <time>2019-08-12T10:22:07Z</time>
      </trkpt>
      <trkpt lat="39.6135640" lon="-3.8635990">
        <ele>782.1</ele>
        <time>2019-08-12T10:22:08Z</time>
      </trkpt>
      <trkpt lat="39.6136300" lon="-3.8636240">
        <ele>781.9</ele>
        <time>2019-08-12T10:22:09Z</time>
      </trkpt>
      <trkpt lat="39.6136950" lon="-3.8636510">
        <ele>781.8</ele>
        <time>2019-08-12T10:22:10Z</time>
      </trkpt>
      <trkpt lat="39.6137590" lon="-3.8636800">
        <ele>781.7</ele>
        <time>2019-08-12T10:22:11Z</time>
      </trkpt>
      <trkpt lat="39.6138200" lon="-3.8637100">
        <ele>781.6</ele>
        <time>2019-08-12T10:22:12Z</time>
      </trkpt>
      <trkpt lat="39.6138790" lon="-3.8637400">
        <ele>781.6</ele>
        <time>2019-08-12T10:22:13Z</time>
      </trkpt>
      <trkpt lat="39.6139350" lon="-3.8637710">
        <ele>781.6</ele>
        <time>2019-08-12T10:22:14Z</time>
      </trkpt>
      <trkpt lat="39.6139910" lon="-3.8638000">
        <ele>781.6</ele>
        <time>2019-08-12T10:22:15Z</time>
      </trkpt>
      <trkpt lat="39.6140460" lon="-3.8638290">
        <ele>781.6</ele>
        <time>2019-08-12T10:22:16Z</time>
      </trkpt>
      <trkpt lat="39.6141030" lon="-3.8638570">
        <ele>781.6</ele>
        <time>2019-08-12T10:22:17Z</time>
      </trkpt>
      <trkpt lat="39.6141620" lon="-3.8638820">
        <ele>781.6</ele>
        <time>2019-08-12T10:22:18Z</time>
      </trkpt>
      <trkpt lat="39.6142230" lon="-3.8639070">
        <ele>781.6</ele>
        <time>2019-08-12T10:22:19Z</time>
      </trkpt>
      <trkpt lat="39.6142850" lon="-3.8639310">
        <ele>781.6</ele>
        <time>2019-08-12T10:22:20Z</time>
      </trkpt>
      <trkpt lat="39.6143480" lon="-3.8639560">
        <ele>781.5</ele>
        <time>2019-08-12T10:22:21Z</time>
      </trkpt>
      <trkpt lat="39.6144120" lon="-3.8639820">
        <ele>781.5</ele>
        <time>2019-08-12T10:22:22Z</time>
      </trkpt>
      <trkpt lat="39.6144750" lon="-3.8640110">
        <ele>781.5</ele>
        <time>2019-08-12T10:22:23Z</time>
      </trkpt>
      <trkpt lat="39.6145390" lon="-3.8640410">
        <ele>781.4</ele>
        <time>2019-08-12T10:22:24Z</time>
      </trkpt>
      <trkpt lat="39.6146020" lon="-3.8640710">
        <ele>781.2</ele>
        <time>2019-08-12T10:22:25Z</time>
      </trkpt>
      <trkpt lat="39.6146640" lon="-3.8641000">
        <ele>781.0</ele>
        <time>2019-08-12T10:22:26Z</time>
      </trkpt>
      <trkpt lat="39.6147260" lon="-3.8641280">
        <ele>780.8</ele>
        <time>2019-08-12T10:22:27Z</time>
      </trkpt>
      <trkpt lat="39.6147870" lon="-3.8641530">
        <ele>780.7</ele>
        <time>2019-08-12T10:22:28Z</time>
      </trkpt>
      <trkpt lat="39.6148470" lon="-3.8641760">
        <ele>780.6</ele>
        <time>2019-08-12T10:22:29Z</time>
      </trkpt>
      <trkpt lat="39.6149070" lon="-3.8641980">
        <ele>780.6</ele>
        <time>2019-08-12T10:22:30Z</time>
      </trkpt>
      <trkpt lat="39.6149670" lon="-3.8642200">
        <ele>780.6</ele>
        <time>2019-08-12T10:22:31Z</time>
      </trkpt>
      <trkpt lat="39.6150280" lon="-3.8642430">
        <ele>780.6</ele>
        <time>2019-08-12T10:22:32Z</time>
      </trkpt>
      <trkpt lat="39.6150890" lon="-3.8642670">
        <ele>780.6</ele>
        <time>2019-08-12T10:22:33Z</time>
      </trkpt>
      <trkpt lat="39.6151500" lon="-3.8642920">
        <ele>780.6</ele>
        <time>2019-08-12T10:22:34Z</time>
      </trkpt>
      <trkpt lat="39.6152110" lon="-3.8643170">
        <ele>780.5</ele>
        <time>2019-08-12T10:22:35Z</time>
      </trkpt>
      <trkpt lat="39.6152720" lon="-3.8643420">
        <ele>780.5</ele>
        <time>2019-08-12T10:22:36Z</time>
      </trkpt>
      <trkpt lat="39.6153330" lon="-3.8643670">
        <ele>780.5</ele>
        <time>2019-08-12T10:22:37Z</time>
      </trkpt>
      <trkpt lat="39.6153930" lon="-3.8643930">
        <ele>780.5</ele>
        <time>2019-08-12T10:22:38Z</time>
      </trkpt>
      <trkpt lat="39.6154530" lon="-3.8644180">
        <ele>780.4</ele>
        <time>2019-08-12T10:22:39Z</time>
      </trkpt>
      <trkpt lat="39.6155120" lon="-3.8644420">
        <ele>780.3</ele>
        <time>2019-08-12T10:22:40Z</time>
      </trkpt>
      <trkpt lat="39.6155700" lon="-3.8644670">
        <ele>780.2</ele>
        <time>2019-08-12T10:22:41Z</time>
      </trkpt>
      <trkpt lat="39.6156270" lon="-3.8644900">
        <ele>780.0</ele>
        <time>2019-08-12T10:22:42Z</time>
      </trkpt>
      <trkpt lat="39.6156840" lon="-3.8645130">
        <ele>779.9</ele>
        <time>2019-08-12T10:22:43Z</time>
      </trkpt>
      <trkpt lat="39.6157400" lon="-3.8645360">
        <ele>779.7</ele>
        <time>2019-08-12T10:22:44Z</time>
      </trkpt>
      <trkpt lat="39.6157960" lon="-3.8645590">
        <ele>779.6</ele>
        <time>2019-08-12T10:22:45Z</time>
      </trkpt>
      <trkpt lat="39.6158520" lon="-3.8645820">
        <ele>779.4</ele>
        <time>2019-08-12T10:22:46Z</time>
      </trkpt>
      <trkpt lat="39.6159080" lon="-3.8646050">
        <ele>779.3</ele>
        <time>2019-08-12T10:22:47Z</time>
      </trkpt>
      <trkpt lat="39.6159630" lon="-3.8646280">
        <ele>779.1</ele>
        <time>2019-08-12T10:22:48Z</time>
      </trkpt>
      <trkpt lat="39.6160190" lon="-3.8646510">
        <ele>778.9</ele>
        <time>2019-08-12T10:22:49Z</time>
      </trkpt>
      <trkpt lat="39.6160750" lon="-3.8646740">
        <ele>778.8</ele>
        <time>2019-08-12T10:22:50Z</time>
      </trkpt>
      <trkpt lat="39.6161320" lon="-3.8646980">
        <ele>778.7</ele>
        <time>2019-08-12T10:22:51Z</time>
      </trkpt>
      <trkpt lat="39.6161890" lon="-3.8647220">
        <ele>778.6</ele>
        <time>2019-08-12T10:22:52Z</time>
      </trkpt>
      <trkpt lat="39.6162460" lon="-3.8647470">
        <ele>778.6</ele>
        <time>2019-08-12T10:22:53Z</time>
      </trkpt>
      <trkpt lat="39.6163030" lon="-3.8647720">
        <ele>778.5</ele>
        <time>2019-08-12T10:22:54Z</time>
      </trkpt>
      <trkpt lat="39.6163600" lon="-3.8647970">
        <ele>778.5</ele>
        <time>2019-08-12T10:22:55Z</time>
      </trkpt>
      <trkpt lat="39.6164180" lon="-3.8648220">
        <ele>778.4</ele>
        <time>2019-08-12T10:22:56Z</time>
      </trkpt>
      <trkpt lat="39.6164760" lon="-3.8648470">
        <ele>778.3</ele>
        <time>2019-08-12T10:22:57Z</time>
      </trkpt>
      <trkpt lat="39.6165340" lon="-3.8648730">
        <ele>778.2</ele>
        <time>2019-08-12T10:22:58Z</time>
      </trkpt>
      <trkpt lat="39.6165930" lon="-3.8648990">
        <ele>778.0</ele>
        <time>2019-08-12T10:22:59Z</time>
      </trkpt>
      <trkpt lat="39.6166520" lon="-3.8649250">
        <ele>777.9</ele>
        <time>2019-08-12T10:23:00Z</time>
      </trkpt>
      <trkpt lat="39.6167110" lon="-3.8649510">
        <ele>777.8</ele>
        <time>2019-08-12T10:23:01Z</time>
      </trkpt>
      <trkpt lat="39.6167700" lon="-3.8649780">
        <ele>777.7</ele>
        <time>2019-08-12T10:23:02Z</time>
      </trkpt>
      <trkpt lat="39.6168290" lon="-3.8650040">
        <ele>777.7</ele>
        <time>2019-08-12T10:23:03Z</time>
      </trkpt>
      <trkpt lat="39.6168890" lon="-3.8650300">
        <ele>777.6</ele>
        <time>2019-08-12T10:23:04Z</time>
      </trkpt>
      <trkpt lat="39.6169480" lon="-3.8650570">
        <ele>777.6</ele>
        <time>2019-08-12T10:23:05Z</time>
      </trkpt>
      <trkpt lat="39.6170080" lon="-3.8650830">
        <ele>777.5</ele>
        <time>2019-08-12T10:23:06Z</time>
      </trkpt>
      <trkpt lat="39.6170690" lon="-3.8651100">
        <ele>777.4</ele>
        <time>2019-08-12T10:23:07Z</time>
      </trkpt>
      <trkpt lat="39.6171290" lon="-3.8651370">
        <ele>777.2</ele>
        <time>2019-08-12T10:23:08Z</time>
      </trkpt>
      <trkpt lat="39.6171890" lon="-3.8651630">
        <ele>777.0</ele>
        <time>2019-08-12T10:23:09Z</time>
      </trkpt>
      <trkpt lat="39.6172500" lon="-3.8651900">
        <ele>776.8</ele>
        <time>2019-08-12T10:23:10Z</time>
      </trkpt>
      <trkpt lat="39.6173110" lon="-3.8652160">
        <ele>776.7</ele>
        <time>2019-08-12T10:23:11Z</time>
      </trkpt>
      <trkpt lat="39.6173710" lon="-3.8652420">
        <ele>776.6</ele>
        <time>2019-08-12T10:23:12Z</time>
      </trkpt>
      <trkpt lat="39.6174320" lon="-3.8652690">
        <ele>776.6</ele>
        <time>2019-08-12T10:23:13Z</time>
      </trkpt>
      <trkpt lat="39.6174930" lon="-3.8652950">
        <ele>776.6</ele>
        <time>2019-08-12T10:23:14Z</time>
      </trkpt>
      <trkpt lat="39.6175540" lon="-3.8653220">
        <ele>776.6</ele>
        <time>2019-08-12T10:23:15Z</time>
      </trkpt>
      <trkpt lat="39.6176140" lon="-3.8653480">
        <ele>776.6</ele>
        <time>2019-08-12T10:23:16Z</time>
      </trkpt>
      <trkpt lat="39.6176750" lon="-3.8653740">
        <ele>776.6</ele>
        <time>2019-08-12T10:23:17Z</time>
      </trkpt>
      <trkpt lat="39.6177350" lon="-3.8654010">
        <ele>776.6</ele>
        <time>2019-08-12T10:23:18Z</time>
      </trkpt>
      <trkpt lat="39.6177950" lon="-3.8654270">
        <ele>776.6</ele>
        <time>2019-08-12T10:23:19Z</time>
      </trkpt>
      <trkpt lat="39.6178540" lon="-3.8654530">
        <ele>776.6</ele>
        <time>2019-08-12T10:23:20Z</time>
      </trkpt>
      <trkpt lat="39.6179130" lon="-3.8654790">
        <ele>776.6</ele>
        <time>2019-08-12T10:23:21Z</time>
      </trkpt>
      <trkpt lat="39.6179700" lon="-3.8655040">
        <ele>776.6</ele>
        <time>2019-08-12T10:23:22Z</time>
      </trkpt>
      <trkpt lat="39.6180260" lon="-3.8655290">
        <ele>776.6</ele>
        <time>2019-08-12T10:23:23Z</time>
      </trkpt>
      <trkpt lat="39.6180800" lon="-3.8655530">
        <ele>776.6</ele>
        <time>2019-08-12T10:23:24Z</time>
      </trkpt>
      <trkpt lat="39.6181330" lon="-3.8655770">
        <ele>776.6</ele>
        <time>2019-08-12T10:23:25Z</time>
      </trkpt>
      <trkpt lat="39.6181830" lon="-3.8655990">
        <ele>776.6</ele>
        <time>2019-08-12T10:23:26Z</time>
      </trkpt>
      <trkpt lat="39.6182310" lon="-3.8656210">
        <ele>776.5</ele>
        <time>2019-08-12T10:23:27Z</time>
      </trkpt>
      <trkpt lat="39.6182780" lon="-3.8656420">
        <ele>776.5</ele>
        <time>2019-08-12T10:23:28Z</time>
      </trkpt>
      <trkpt lat="39.6183220" lon="-3.8656630">
        <ele>776.4</ele>
        <time>2019-08-12T10:23:29Z</time>
      </trkpt>
      <trkpt lat="39.6183640" lon="-3.8656830">
        <ele>776.3</ele>
        <time>2019-08-12T10:23:30Z</time>
      </trkpt>
      <trkpt lat="39.6184060" lon="-3.8657030">
        <ele>776.2</ele>
        <time>2019-08-12T10:23:31Z</time>
      </trkpt>
      <trkpt lat="39.6184450" lon="-3.8657240">
        <ele>776.0</ele>
        <time>2019-08-12T10:23:32Z</time>
      </trkpt>
      <trkpt lat="39.6184820" lon="-3.8657430">
        <ele>775.8</ele>
        <time>2019-08-12T10:23:33Z</time>
      </trkpt>
      <trkpt lat="39.6185130" lon="-3.8657590">
        <ele>775.7</ele>
        <time>2019-08-12T10:23:34Z</time>
      </trkpt>
      <trkpt lat="39.6185370" lon="-3.8657710">
        <ele>775.7</ele>
        <time>2019-08-12T10:23:35Z</time>
      </trkpt>
      <trkpt lat="39.6185520" lon="-3.8657780">
        <ele>775.7</ele>
        <time>2019-08-12T10:23:36Z</time>
      </trkpt>
      <trkpt lat="39.6185560" lon="-3.8657790">
        <ele>775.7</ele>
        <time>2019-08-12T10:23:37Z</time>
      </trkpt>
      <trkpt lat="39.6185600" lon="-3.8657810">
        <ele>775.7</ele>
        <time>2019-08-12T10:23:38Z</time>
      </trkpt>
      <trkpt lat="39.6185970" lon="-3.8657940">
        <ele>775.7</ele>
        <time>2019-08-12T10:23:53Z</time>
      </trkpt>
      <trkpt lat="39.6186470" lon="-3.8658140">
        <ele>775.7</ele>
        <time>2019-08-12T10:23:54Z</time>
      </trkpt>
      <trkpt lat="39.6186830" lon="-3.8658280">
        <ele>775.7</ele>
        <time>2019-08-12T10:23:55Z</time>
      </trkpt>
      <trkpt lat="39.6187220" lon="-3.8658430">
        <ele>775.7</ele>
        <time>2019-08-12T10:23:56Z</time>
      </trkpt>
      <trkpt lat="39.6187680" lon="-3.8658600">
        <ele>775.7</ele>
        <time>2019-08-12T10:23:57Z</time>
      </trkpt>
      <trkpt lat="39.6188180" lon="-3.8658790">
        <ele>775.7</ele>
        <time>2019-08-12T10:23:58Z</time>
      </trkpt>
      <trkpt lat="39.6188700" lon="-3.8659000">
        <ele>775.7</ele>
        <time>2019-08-12T10:23:59Z</time>
      </trkpt>
      <trkpt lat="39.6189220" lon="-3.8659210">
        <ele>775.7</ele>
        <time>2019-08-12T10:24:00Z</time>
      </trkpt>
      <trkpt lat="39.6189730" lon="-3.8659430">
        <ele>775.8</ele>
        <time>2019-08-12T10:24:01Z</time>
      </trkpt>
      <trkpt lat="39.6190250" lon="-3.8659660">
        <ele>775.8</ele>
        <time>2019-08-12T10:24:02Z</time>
      </trkpt>
      <trkpt lat="39.6191120" lon="-3.8660050">
        <ele>775.8</ele>
        <time>2019-08-12T10:24:03Z</time>
      </trkpt>
      <trkpt lat="39.6191460" lon="-3.8660200">
        <ele>775.8</ele>
        <time>2019-08-12T10:24:04Z</time>
      </trkpt>
      <trkpt lat="39.6191810" lon="-3.8660360">
        <ele>775.8</ele>
        <time>2019-08-12T10:24:05Z</time>
      </trkpt>
      <trkpt lat="39.6192330" lon="-3.8660600">
        <ele>775.7</ele>
        <time>2019-08-12T10:24:06Z</time>
      </trkpt>
      <trkpt lat="39.6192860" lon="-3.8660830">
        <ele>775.6</ele>
        <time>2019-08-12T10:24:07Z</time>
      </trkpt>
      <trkpt lat="39.6193760" lon="-3.8661210">
        <ele>775.5</ele>
        <time>2019-08-12T10:24:08Z</time>
      </trkpt>
      <trkpt lat="39.6194130" lon="-3.8661350">
        <ele>775.5</ele>
        <time>2019-08-12T10:24:09Z</time>
      </trkpt>
      <trkpt lat="39.6194490" lon="-3.8661500">
        <ele>775.5</ele>
        <time>2019-08-12T10:24:10Z</time>
      </trkpt>
      <trkpt lat="39.6195040" lon="-3.8661720">
        <ele>775.4</ele>
        <time>2019-08-12T10:24:11Z</time>
      </trkpt>
      <trkpt lat="39.6195600" lon="-3.8661940">
        <ele>775.4</ele>
        <time>2019-08-12T10:24:12Z</time>
      </trkpt>
      <trkpt lat="39.6196540" lon="-3.8662320">
        <ele>775.4</ele>
        <time>2019-08-12T10:24:13Z</time>
      </trkpt>
      <trkpt lat="39.6196910" lon="-3.8662470">
        <ele>775.3</ele>
        <time>2019-08-12T10:24:14Z</time>
      </trkpt>
      <trkpt lat="39.6197290" lon="-3.8662630">
        <ele>775.3</ele>
        <time>2019-08-12T10:24:15Z</time>
      </trkpt>
      <trkpt lat="39.6197850" lon="-3.8662870">
        <ele>775.3</ele>
        <time>2019-08-12T10:24:16Z</time>
      </trkpt>
      <trkpt lat="39.6198410" lon="-3.8663130">
        <ele>775.2</ele>
        <time>2019-08-12T10:24:17Z</time>
      </trkpt>
      <trkpt lat="39.6198970" lon="-3.8663390">
        <ele>775.2</ele>
        <time>2019-08-12T10:24:18Z</time>
      </trkpt>
      <trkpt lat="39.6199520" lon="-3.8663660">
        <ele>775.1</ele>
        <time>2019-08-12T10:24:19Z</time>
      </trkpt>
      <trkpt lat="39.6200070" lon="-3.8663930">
        <ele>775.0</ele>
        <time>2019-08-12T10:24:20Z</time>
      </trkpt>
      <trkpt lat="39.6200620" lon="-3.8664190">
        <ele>775.0</ele>
        <time>2019-08-12T10:24:21Z</time>
      </trkpt>
      <trkpt lat="39.6201150" lon="-3.8664430">
        <ele>774.9</ele>
        <time>2019-08-12T10:24:22Z</time>
      </trkpt>
      <trkpt lat="39.6201680" lon="-3.8664640">
        <ele>774.9</ele>
        <time>2019-08-12T10:24:23Z</time>
      </trkpt>
      <trkpt lat="39.6202210" lon="-3.8664840">
        <ele>774.8</ele>
        <time>2019-08-12T10:24:24Z</time>
      </trkpt>
      <trkpt lat="39.6202730" lon="-3.8665020">
        <ele>774.8</ele>
        <time>2019-08-12T10:24:25Z</time>
      </trkpt>
      <trkpt lat="39.6203260" lon="-3.8665190">
        <ele>774.8</ele>
        <time>2019-08-12T10:24:26Z</time>
      </trkpt>
      <trkpt lat="39.6203790" lon="-3.8665350">
        <ele>774.7</ele>
        <time>2019-08-12T10:24:27Z</time>
      </trkpt>
      <trkpt lat="39.6204330" lon="-3.8665520">
        <ele>774.7</ele>
        <time>2019-08-12T10:24:28Z</time>
      </trkpt>
      <trkpt lat="39.6204880" lon="-3.8665700">
        <ele>774.6</ele>
        <time>2019-08-12T10:24:29Z</time>
      </trkpt>
      <trkpt lat="39.6205440" lon="-3.8665870">
        <ele>774.5</ele>
        <time>2019-08-12T10:24:30Z</time>
      </trkpt>
      <trkpt lat="39.6206000" lon="-3.8666040">
        <ele>774.5</ele>
        <time>2019-08-12T10:24:31Z</time>
      </trkpt>
      <trkpt lat="39.6206560" lon="-3.8666200">
        <ele>774.4</ele>
        <time>2019-08-12T10:24:32Z</time>
      </trkpt>
      <trkpt lat="39.6207120" lon="-3.8666360">
        <ele>774.2</ele>
        <time>2019-08-12T10:24:33Z</time>
      </trkpt>
      <trkpt lat="39.6207680" lon="-3.8666510">
        <ele>774.1</ele>
        <time>2019-08-12T10:24:34Z</time>
      </trkpt>
      <trkpt lat="39.6208240" lon="-3.8666650">
        <ele>773.9</ele>
        <time>2019-08-12T10:24:35Z</time>
      </trkpt>
      <trkpt lat="39.6208800" lon="-3.8666780">
        <ele>773.9</ele>
        <time>2019-08-12T10:24:36Z</time>
      </trkpt>
      <trkpt lat="39.6209340" lon="-3.8666890">
        <ele>773.8</ele>
        <time>2019-08-12T10:24:37Z</time>
      </trkpt>
      <trkpt lat="39.6209890" lon="-3.8667000">
        <ele>773.8</ele>
        <time>2019-08-12T10:24:38Z</time>
      </trkpt>
      <trkpt lat="39.6210430" lon="-3.8667110">
        <ele>773.7</ele>
        <time>2019-08-12T10:24:39Z</time>
      </trkpt>
      <trkpt lat="39.6210990" lon="-3.8667230">
        <ele>773.7</ele>
        <time>2019-08-12T10:24:40Z</time>
      </trkpt>
      <trkpt lat="39.6211550" lon="-3.8667370">
        <ele>773.7</ele>
        <time>2019-08-12T10:24:41Z</time>
      </trkpt>
      <trkpt lat="39.6212130" lon="-3.8667530">
        <ele>773.6</ele>
        <time>2019-08-12T10:24:42Z</time>
      </trkpt>
      <trkpt lat="39.6212710" lon="-3.8667700">
        <ele>773.6</ele>
        <time>2019-08-12T10:24:43Z</time>
      </trkpt>
      <trkpt lat="39.6213300" lon="-3.8667890">
        <ele>773.5</ele>
        <time>2019-08-12T10:24:44Z</time>
      </trkpt>
      <trkpt lat="39.6213890" lon="-3.8668070">
        <ele>773.4</ele>
        <time>2019-08-12T10:24:45Z</time>
      </trkpt>
      <trkpt lat="39.6214470" lon="-3.8668260">
        <ele>773.4</ele>
        <time>2019-08-12T10:24:46Z</time>
      </trkpt>
      <trkpt lat="39.6215040" lon="-3.8668440">
        <ele>773.3</ele>
        <time>2019-08-12T10:24:47Z</time>
      </trkpt>
      <trkpt lat="39.6215600" lon="-3.8668620">
        <ele>773.2</ele>
        <time>2019-08-12T10:24:48Z</time>
      </trkpt>
      <trkpt lat="39.6216160" lon="-3.8668800">
        <ele>773.2</ele>
        <time>2019-08-12T10:24:49Z</time>
      </trkpt>
      <trkpt lat="39.6216720" lon="-3.8668990">
        <ele>773.1</ele>
        <time>2019-08-12T10:24:50Z</time>
      </trkpt>
      <trkpt lat="39.6217280" lon="-3.8669180">
        <ele>773.1</ele>
        <time>2019-08-12T10:24:51Z</time>
      </trkpt>
      <trkpt lat="39.6217840" lon="-3.8669380">
        <ele>773.1</ele>
        <time>2019-08-12T10:24:52Z</time>
      </trkpt>
      <trkpt lat="39.6218400" lon="-3.8669590">
        <ele>773.0</ele>
        <time>2019-08-12T10:24:53Z</time>
      </trkpt>
      <trkpt lat="39.6218960" lon="-3.8669810">
        <ele>773.0</ele>
        <time>2019-08-12T10:24:54Z</time>
      </trkpt>
      <trkpt lat="39.6219520" lon="-3.8670050">
        <ele>772.9</ele>
        <time>2019-08-12T10:24:55Z</time>
      </trkpt>
      <trkpt lat="39.6220090" lon="-3.8670300">
        <ele>772.9</ele>
        <time>2019-08-12T10:24:56Z</time>
      </trkpt>
      <trkpt lat="39.6220660" lon="-3.8670560">
        <ele>772.8</ele>
        <time>2019-08-12T10:24:57Z</time>
      </trkpt>
      <trkpt lat="39.6221230" lon="-3.8670820">
        <ele>772.7</ele>
        <time>2019-08-12T10:24:58Z</time>
      </trkpt>
      <trkpt lat="39.6221790" lon="-3.8671090">
        <ele>772.7</ele>
        <time>2019-08-12T10:24:59Z</time>
      </trkpt>
      <trkpt lat="39.6222340" lon="-3.8671350">
        <ele>772.6</ele>
        <time>2019-08-12T10:25:00Z</time>
      </trkpt>
      <trkpt lat="39.6222880" lon="-3.8671610">
        <ele>772.6</ele>
        <time>2019-08-12T10:25:01Z</time>
      </trkpt>
      <trkpt lat="39.6223410" lon="-3.8671860">
        <ele>772.5</ele>
        <time>2019-08-12T10:25:02Z</time>
      </trkpt>
      <trkpt lat="39.6223930" lon="-3.8672090">
        <ele>772.4</ele>
        <time>2019-08-12T10:25:03Z</time>
      </trkpt>
      <trkpt lat="39.6224420" lon="-3.8672310">
        <ele>772.4</ele>
        <time>2019-08-12T10:25:04Z</time>
      </trkpt>
      <trkpt lat="39.6224910" lon="-3.8672510">
        <ele>772.3</ele>
        <time>2019-08-12T10:25:05Z</time>
      </trkpt>
      <trkpt lat="39.6225400" lon="-3.8672690">
        <ele>772.3</ele>
        <time>2019-08-12T10:25:06Z</time>
      </trkpt>
      <trkpt lat="39.6225930" lon="-3.8672820">
        <ele>772.3</ele>
        <time>2019-08-12T10:25:07Z</time>
      </trkpt>
      <trkpt lat="39.6226510" lon="-3.8672930">
        <ele>772.3</ele>
        <time>2019-08-12T10:25:08Z</time>
      </trkpt>
      <trkpt lat="39.6227140" lon="-3.8673080">
        <ele>772.3</ele>
        <time>2019-08-12T10:25:09Z</time>
      </trkpt>
      <trkpt lat="39.6227790" lon="-3.8673350">
        <ele>772.2</ele>
        <time>2019-08-12T10:25:10Z</time>
      </trkpt>
      <trkpt lat="39.6228450" lon="-3.8673720">
        <ele>772.2</ele>
        <time>2019-08-12T10:25:11Z</time>
      </trkpt>
      <trkpt lat="39.6229120" lon="-3.8674140">
        <ele>772.2</ele>
        <time>2019-08-12T10:25:12Z</time>
      </trkpt>
      <trkpt lat="39.6230120" lon="-3.8674810">
        <ele>772.2</ele>
        <time>2019-08-12T10:25:13Z</time>
      </trkpt>
      <trkpt lat="39.6230450" lon="-3.8675040">
        <ele>772.2</ele>
        <time>2019-08-12T10:25:14Z</time>
      </trkpt>
      <trkpt lat="39.6231120" lon="-3.8675460">
        <ele>772.2</ele>
        <time>2019-08-12T10:25:15Z</time>
      </trkpt>
      <trkpt lat="39.6231780" lon="-3.8675880">
        <ele>772.1</ele>
        <time>2019-08-12T10:25:16Z</time>
      </trkpt>
      <trkpt lat="39.6232430" lon="-3.8676290">
        <ele>772.1</ele>
        <time>2019-08-12T10:25:17Z</time>
      </trkpt>
      <trkpt lat="39.6233080" lon="-3.8676680">
        <ele>772.0</ele>
        <time>2019-08-12T10:25:18Z</time>
      </trkpt>
      <trkpt lat="39.6233730" lon="-3.8677060">
        <ele>772.0</ele>
        <time>2019-08-12T10:25:19Z</time>
      </trkpt>
      <trkpt lat="39.6234380" lon="-3.8677440">
        <ele>771.9</ele>
        <time>2019-08-12T10:25:20Z</time>
      </trkpt>
      <trkpt lat="39.6235020" lon="-3.8677800">
        <ele>771.9</ele>
        <time>2019-08-12T10:25:21Z</time>
      </trkpt>
      <trkpt lat="39.6235660" lon="-3.8678160">
        <ele>771.8</ele>
        <time>2019-08-12T10:25:22Z</time>
      </trkpt>
      <trkpt lat="39.6236300" lon="-3.8678510">
        <ele>771.6</ele>
        <time>2019-08-12T10:25:23Z</time>
      </trkpt>
      <trkpt lat="39.6236940" lon="-3.8678850">
        <ele>771.5</ele>
        <time>2019-08-12T10:25:24Z</time>
      </trkpt>
      <trkpt lat="39.6237570" lon="-3.8679190">
        <ele>771.3</ele>
        <time>2019-08-12T10:25:25Z</time>
      </trkpt>
      <trkpt lat="39.6238200" lon="-3.8679520">
        <ele>771.1</ele>
        <time>2019-08-12T10:25:26Z</time>
      </trkpt>
      <trkpt lat="39.6238830" lon="-3.8679850">
        <ele>771.0</ele>
        <time>2019-08-12T10:25:27Z</time>
      </trkpt>
      <trkpt lat="39.6239460" lon="-3.8680170">
        <ele>770.8</ele>
        <time>2019-08-12T10:25:28Z</time>
      </trkpt>
      <trkpt lat="39.6240080" lon="-3.8680490">
        <ele>770.7</ele>
        <time>2019-08-12T10:25:29Z</time>
      </trkpt>
      <trkpt lat="39.6240710" lon="-3.8680800">
        <ele>770.6</ele>
        <time>2019-08-12T10:25:30Z</time>
      </trkpt>
      <trkpt lat="39.6241330" lon="-3.8681120">
        <ele>770.5</ele>
        <time>2019-08-12T10:25:31Z</time>
      </trkpt>
      <trkpt lat="39.6241950" lon="-3.8681430">
        <ele>770.4</ele>
        <time>2019-08-12T10:25:32Z</time>
      </trkpt>
      <trkpt lat="39.6242570" lon="-3.8681740">
        <ele>770.4</ele>
        <time>2019-08-12T10:25:33Z</time>
      </trkpt>
      <trkpt lat="39.6243190" lon="-3.8682050">
        <ele>770.3</ele>
        <time>2019-08-12T10:25:34Z</time>
      </trkpt>
      <trkpt lat="39.6243810" lon="-3.8682350">
        <ele>770.2</ele>
        <time>2019-08-12T10:25:35Z</time>
      </trkpt>
      <trkpt lat="39.6244430" lon="-3.8682660">
        <ele>770.1</ele>
        <time>2019-08-12T10:25:36Z</time>
      </trkpt>
      <trkpt lat="39.6245040" lon="-3.8682960">
        <ele>770.0</ele>
        <time>2019-08-12T10:25:37Z</time>
      </trkpt>
      <trkpt lat="39.6245660" lon="-3.8683260">
        <ele>769.9</ele>
        <time>2019-08-12T10:25:38Z</time>
      </trkpt>
      <trkpt lat="39.6246280" lon="-3.8683560">
        <ele>769.9</ele>
        <time>2019-08-12T10:25:39Z</time>
      </trkpt>
      <trkpt lat="39.6246900" lon="-3.8683850">
        <ele>769.8</ele>
        <time>2019-08-12T10:25:40Z</time>
      </trkpt>
      <trkpt lat="39.6247510" lon="-3.8684140">
        <ele>769.8</ele>
        <time>2019-08-12T10:25:41Z</time>
      </trkpt>
      <trkpt lat="39.6248130" lon="-3.8684430">
        <ele>769.7</ele>
        <time>2019-08-12T10:25:42Z</time>
      </trkpt>
      <trkpt lat="39.6248750" lon="-3.8684720">
        <ele>769.6</ele>
        <time>2019-08-12T10:25:43Z</time>
      </trkpt>
      <trkpt lat="39.6249370" lon="-3.8685000">
        <ele>769.5</ele>
        <time>2019-08-12T10:25:44Z</time>
      </trkpt>
      <trkpt lat="39.6249990" lon="-3.8685280">
        <ele>769.5</ele>
        <time>2019-08-12T10:25:45Z</time>
      </trkpt>
      <trkpt lat="39.6250620" lon="-3.8685560">
        <ele>769.4</ele>
        <time>2019-08-12T10:25:46Z</time>
      </trkpt>
      <trkpt lat="39.6251240" lon="-3.8685840">
        <ele>769.3</ele>
        <time>2019-08-12T10:25:47Z</time>
      </trkpt>
      <trkpt lat="39.6251870" lon="-3.8686120">
        <ele>769.3</ele>
        <time>2019-08-12T10:25:48Z</time>
      </trkpt>
      <trkpt lat="39.6252500" lon="-3.8686400">
        <ele>769.2</ele>
        <time>2019-08-12T10:25:49Z</time>
      </trkpt>
      <trkpt lat="39.6253130" lon="-3.8686680">
        <ele>769.2</ele>
        <time>2019-08-12T10:25:50Z</time>
      </trkpt>
      <trkpt lat="39.6253770" lon="-3.8686950">
        <ele>769.2</ele>
        <time>2019-08-12T10:25:51Z</time>
      </trkpt>
      <trkpt lat="39.6254400" lon="-3.8687230">
        <ele>769.1</ele>
        <time>2019-08-12T10:25:52Z</time>
      </trkpt>
      <trkpt lat="39.6255040" lon="-3.8687510">
        <ele>769.1</ele>
        <time>2019-08-12T10:25:53Z</time>
      </trkpt>
      <trkpt lat="39.6255680" lon="-3.8687790">
        <ele>769.1</ele>
        <time>2019-08-12T10:25:54Z</time>
      </trkpt>
      <trkpt lat="39.6256320" lon="-3.8688060">
        <ele>769.0</ele>
        <time>2019-08-12T10:25:55Z</time>
      </trkpt>
      <trkpt lat="39.6256960" lon="-3.8688330">
        <ele>769.0</ele>
        <time>2019-08-12T10:25:56Z</time>
      </trkpt>
      <trkpt lat="39.6257590" lon="-3.8688590">
        <ele>769.0</ele>
        <time>2019-08-12T10:25:57Z</time>
      </trkpt>
      <trkpt lat="39.6258230" lon="-3.8688850">
        <ele>768.9</ele>
        <time>2019-08-12T10:25:58Z</time>
      </trkpt>
      <trkpt lat="39.6258870" lon="-3.8689100">
        <ele>768.9</ele>
        <time>2019-08-12T10:25:59Z</time>
      </trkpt>
      <trkpt lat="39.6259500" lon="-3.8689350">
        <ele>768.8</ele>
        <time>2019-08-12T10:26:00Z</time>
      </trkpt>
      <trkpt lat="39.6260130" lon="-3.8689580">
        <ele>768.6</ele>
        <time>2019-08-12T10:26:01Z</time>
      </trkpt>
      <trkpt lat="39.6260760" lon="-3.8689820">
        <ele>768.5</ele>
        <time>2019-08-12T10:26:02Z</time>
      </trkpt>
      <trkpt lat="39.6261380" lon="-3.8690050">
        <ele>768.3</ele>
        <time>2019-08-12T10:26:03Z</time>
      </trkpt>
      <trkpt lat="39.6262010" lon="-3.8690270">
        <ele>768.2</ele>
        <time>2019-08-12T10:26:04Z</time>
      </trkpt>
      <trkpt lat="39.6262630" lon="-3.8690500">
        <ele>768.0</ele>
        <time>2019-08-12T10:26:05Z</time>
      </trkpt>
      <trkpt lat="39.6263260" lon="-3.8690720">
        <ele>767.8</ele>
        <time>2019-08-12T10:26:06Z</time>
      </trkpt>
      <trkpt lat="39.6263890" lon="-3.8690940">
        <ele>767.7</ele>
        <time>2019-08-12T10:26:07Z</time>
      </trkpt>
      <trkpt lat="39.6264520" lon="-3.8691170">
        <ele>767.5</ele>
        <time>2019-08-12T10:26:08Z</time>
      </trkpt>
      <trkpt lat="39.6265140" lon="-3.8691400">
        <ele>767.4</ele>
        <time>2019-08-12T10:26:09Z</time>
      </trkpt>
      <trkpt lat="39.6265770" lon="-3.8691630">
        <ele>767.2</ele>
        <time>2019-08-12T10:26:10Z</time>
      </trkpt>
      <trkpt lat="39.6266400" lon="-3.8691880">
        <ele>767.0</ele>
        <time>2019-08-12T10:26:11Z</time>
      </trkpt>
      <trkpt lat="39.6267030" lon="-3.8692140">
        <ele>766.8</ele>
        <time>2019-08-12T10:26:12Z</time>
      </trkpt>
      <trkpt lat="39.6267650" lon="-3.8692420">
        <ele>766.6</ele>
        <time>2019-08-12T10:26:13Z</time>
      </trkpt>
      <trkpt lat="39.6268270" lon="-3.8692730">
        <ele>766.5</ele>
        <time>2019-08-12T10:26:14Z</time>
      </trkpt>
      <trkpt lat="39.6268890" lon="-3.8693050">
        <ele>766.3</ele>
        <time>2019-08-12T10:26:15Z</time>
      </trkpt>
      <trkpt lat="39.6269520" lon="-3.8693370">
        <ele>766.0</ele>
        <time>2019-08-12T10:26:16Z</time>
      </trkpt>
      <trkpt lat="39.6270170" lon="-3.8693680">
        <ele>765.8</ele>
        <time>2019-08-12T10:26:17Z</time>
      </trkpt>
      <trkpt lat="39.6270850" lon="-3.8693970">
        <ele>765.6</ele>
        <time>2019-08-12T10:26:18Z</time>
      </trkpt>
      <trkpt lat="39.6271540" lon="-3.8694260">
        <ele>765.4</ele>
        <time>2019-08-12T10:26:19Z</time>
      </trkpt>
      <trkpt lat="39.6272260" lon="-3.8694540">
        <ele>765.2</ele>
        <time>2019-08-12T10:26:20Z</time>
      </trkpt>
      <trkpt lat="39.6272970" lon="-3.8694820">
        <ele>765.1</ele>
        <time>2019-08-12T10:26:21Z</time>
      </trkpt>
      <trkpt lat="39.6273690" lon="-3.8695120">
        <ele>764.9</ele>
        <time>2019-08-12T10:26:22Z</time>
      </trkpt>
      <trkpt lat="39.6274390" lon="-3.8695430">
        <ele>764.8</ele>
        <time>2019-08-12T10:26:23Z</time>
      </trkpt>
      <trkpt lat="39.6275100" lon="-3.8695760">
        <ele>764.6</ele>
        <time>2019-08-12T10:26:24Z</time>
      </trkpt>
      <trkpt lat="39.6275790" lon="-3.8696100">
        <ele>764.4</ele>
        <time>2019-08-12T10:26:25Z</time>
      </trkpt>
      <trkpt lat="39.6276490" lon="-3.8696430">
        <ele>764.1</ele>
        <time>2019-08-12T10:26:26Z</time>
      </trkpt>
      <trkpt lat="39.6277190" lon="-3.8696760">
        <ele>763.9</ele>
        <time>2019-08-12T10:26:27Z</time>
      </trkpt>
      <trkpt lat="39.6277900" lon="-3.8697070">
        <ele>763.6</ele>
        <time>2019-08-12T10:26:28Z</time>
      </trkpt>
      <trkpt lat="39.6278600" lon="-3.8697380">
        <ele>763.4</ele>
        <time>2019-08-12T10:26:29Z</time>
      </trkpt>
      <trkpt lat="39.6279300" lon="-3.8697690">
        <ele>763.1</ele>
        <time>2019-08-12T10:26:30Z</time>
      </trkpt>
      <trkpt lat="39.6280010" lon="-3.8697990">
        <ele>762.8</ele>
        <time>2019-08-12T10:26:31Z</time>
      </trkpt>
      <trkpt lat="39.6280710" lon="-3.8698280">
        <ele>762.6</ele>
        <time>2019-08-12T10:26:32Z</time>
      </trkpt>
      <trkpt lat="39.6281410" lon="-3.8698580">
        <ele>762.3</ele>
        <time>2019-08-12T10:26:33Z</time>
      </trkpt>
      <trkpt lat="39.6282100" lon="-3.8698880">
        <ele>762.0</ele>
        <time>2019-08-12T10:26:34Z</time>
      </trkpt>
      <trkpt lat="39.6282800" lon="-3.8699180">
        <ele>761.8</ele>
        <time>2019-08-12T10:26:35Z</time>
      </trkpt>
      <trkpt lat="39.6283480" lon="-3.8699490">
        <ele>761.8</ele>
        <time>2019-08-12T10:26:36Z</time>
      </trkpt>
      <trkpt lat="39.6284170" lon="-3.8699800">
        <ele>761.8</ele>
        <time>2019-08-12T10:26:37Z</time>
      </trkpt>
      <trkpt lat="39.6284840" lon="-3.8700110">
        <ele>761.8</ele>
        <time>2019-08-12T10:26:38Z</time>
      </trkpt>
      <trkpt lat="39.6285510" lon="-3.8700420">
        <ele>761.8</ele>
        <time>2019-08-12T10:26:39Z</time>
      </trkpt>
      <trkpt lat="39.6286180" lon="-3.8700740">
        <ele>761.8</ele>
        <time>2019-08-12T10:26:40Z</time>
      </trkpt>
      <trkpt lat="39.6286840" lon="-3.8701060">
        <ele>761.8</ele>
        <time>2019-08-12T10:26:41Z</time>
      </trkpt>
      <trkpt lat="39.6287500" lon="-3.8701370">
        <ele>761.8</ele>
        <time>2019-08-12T10:26:42Z</time>
      </trkpt>
      <trkpt lat="39.6288160" lon="-3.8701690">
        <ele>761.8</ele>
        <time>2019-08-12T10:26:43Z</time>
      </trkpt>
      <trkpt lat="39.6288810" lon="-3.8702000">
        <ele>761.8</ele>
        <time>2019-08-12T10:26:44Z</time>
      </trkpt>
      <trkpt lat="39.6289450" lon="-3.8702310">
        <ele>761.8</ele>
        <time>2019-08-12T10:26:45Z</time>
      </trkpt>
      <trkpt lat="39.6290090" lon="-3.8702620">
        <ele>761.8</ele>
        <time>2019-08-12T10:26:46Z</time>
      </trkpt>
      <trkpt lat="39.6290730" lon="-3.8702920">
        <ele>761.8</ele>
        <time>2019-08-12T10:26:47Z</time>
      </trkpt>
      <trkpt lat="39.6291370" lon="-3.8703220">
        <ele>761.8</ele>
        <time>2019-08-12T10:26:48Z</time>
      </trkpt>
      <trkpt lat="39.6292000" lon="-3.8703520">
        <ele>761.8</ele>
        <time>2019-08-12T10:26:49Z</time>
      </trkpt>
      <trkpt lat="39.6292640" lon="-3.8703810">
        <ele>761.8</ele>
        <time>2019-08-12T10:26:50Z</time>
      </trkpt>
      <trkpt lat="39.6293270" lon="-3.8704100">
        <ele>761.8</ele>
        <time>2019-08-12T10:26:51Z</time>
      </trkpt>
      <trkpt lat="39.6293900" lon="-3.8704390">
        <ele>761.7</ele>
        <time>2019-08-12T10:26:52Z</time>
      </trkpt>
      <trkpt lat="39.6294530" lon="-3.8704670">
        <ele>761.6</ele>
        <time>2019-08-12T10:26:53Z</time>
      </trkpt>
      <trkpt lat="39.6295160" lon="-3.8704950">
        <ele>761.5</ele>
        <time>2019-08-12T10:26:54Z</time>
      </trkpt>
      <trkpt lat="39.6295790" lon="-3.8705230">
        <ele>761.4</ele>
        <time>2019-08-12T10:26:55Z</time>
      </trkpt>
      <trkpt lat="39.6296420" lon="-3.8705500">
        <ele>761.3</ele>
        <time>2019-08-12T10:26:56Z</time>
      </trkpt>
      <trkpt lat="39.6297050" lon="-3.8705770">
        <ele>761.1</ele>
        <time>2019-08-12T10:26:57Z</time>
      </trkpt>
      <trkpt lat="39.6297680" lon="-3.8706040">
        <ele>761.1</ele>
        <time>2019-08-12T10:26:58Z</time>
      </trkpt>
      <trkpt lat="39.6298310" lon="-3.8706300">
        <ele>761.0</ele>
        <time>2019-08-12T10:26:59Z</time>
      </trkpt>
      <trkpt lat="39.6298930" lon="-3.8706560">
        <ele>761.0</ele>
        <time>2019-08-12T10:27:00Z</time>
      </trkpt>
      <trkpt lat="39.6299550" lon="-3.8706820">
        <ele>761.0</ele>
        <time>2019-08-12T10:27:01Z</time>
      </trkpt>
      <trkpt lat="39.6300170" lon="-3.8707080">
        <ele>761.0</ele>
        <time>2019-08-12T10:27:02Z</time>
      </trkpt>
      <trkpt lat="39.6300790" lon="-3.8707340">
        <ele>761.1</ele>
        <time>2019-08-12T10:27:03Z</time>
      </trkpt>
      <trkpt lat="39.6301400" lon="-3.8707590">
        <ele>761.2</ele>
        <time>2019-08-12T10:27:04Z</time>
      </trkpt>
      <trkpt lat="39.6302010" lon="-3.8707850">
        <ele>761.3</ele>
        <time>2019-08-12T10:27:05Z</time>
      </trkpt>
      <trkpt lat="39.6302610" lon="-3.8708100">
        <ele>761.5</ele>
        <time>2019-08-12T10:27:06Z</time>
      </trkpt>
      <trkpt lat="39.6303210" lon="-3.8708350">
        <ele>761.6</ele>
        <time>2019-08-12T10:27:07Z</time>
      </trkpt>
      <trkpt lat="39.6303810" lon="-3.8708600">
        <ele>761.7</ele>
        <time>2019-08-12T10:27:08Z</time>
      </trkpt>
      <trkpt lat="39.6304400" lon="-3.8708850">
        <ele>761.8</ele>
        <time>2019-08-12T10:27:09Z</time>
      </trkpt>
      <trkpt lat="39.6304980" lon="-3.8709090">
        <ele>761.8</ele>
        <time>2019-08-12T10:27:10Z</time>
      </trkpt>
      <trkpt lat="39.6305560" lon="-3.8709340">
        <ele>761.9</ele>
        <time>2019-08-12T10:27:11Z</time>
      </trkpt>
      <trkpt lat="39.6306130" lon="-3.8709570">
        <ele>762.0</ele>
        <time>2019-08-12T10:27:12Z</time>
      </trkpt>
      <trkpt lat="39.6306700" lon="-3.8709810">
        <ele>762.1</ele>
        <time>2019-08-12T10:27:13Z</time>
      </trkpt>
      <trkpt lat="39.6307260" lon="-3.8710040">
        <ele>762.2</ele>
        <time>2019-08-12T10:27:14Z</time>
      </trkpt>
      <trkpt lat="39.6307820" lon="-3.8710270">
        <ele>762.3</ele>
        <time>2019-08-12T10:27:15Z</time>
      </trkpt>
      <trkpt lat="39.6308370" lon="-3.8710490">
        <ele>762.4</ele>
        <time>2019-08-12T10:27:16Z</time>
      </trkpt>
      <trkpt lat="39.6308920" lon="-3.8710710">
        <ele>762.5</ele>
        <time>2019-08-12T10:27:17Z</time>
      </trkpt>
      <trkpt lat="39.6309460" lon="-3.8710930">
        <ele>762.6</ele>
        <time>2019-08-12T10:27:18Z</time>
      </trkpt>
      <trkpt lat="39.6309990" lon="-3.8711150">
        <ele>762.8</ele>
        <time>2019-08-12T10:27:19Z</time>
      </trkpt>
      <trkpt lat="39.6310520" lon="-3.8711360">
        <ele>762.8</ele>
        <time>2019-08-12T10:27:20Z</time>
      </trkpt>
      <trkpt lat="39.6311040" lon="-3.8711570">
        <ele>762.9</ele>
        <time>2019-08-12T10:27:21Z</time>
      </trkpt>
      <trkpt lat="39.6311560" lon="-3.8711780">
        <ele>762.9</ele>
        <time>2019-08-12T10:27:22Z</time>
      </trkpt>
      <trkpt lat="39.6312070" lon="-3.8711990">
        <ele>763.0</ele>
        <time>2019-08-12T10:27:23Z</time>
      </trkpt>
      <trkpt lat="39.6312580" lon="-3.8712200">
        <ele>763.0</ele>
        <time>2019-08-12T10:27:24Z</time>
      </trkpt>
      <trkpt lat="39.6313080" lon="-3.8712400">
        <ele>763.0</ele>
        <time>2019-08-12T10:27:25Z</time>
      </trkpt>
      <trkpt lat="39.6313590" lon="-3.8712610">
        <ele>763.0</ele>
        <time>2019-08-12T10:27:26Z</time>
      </trkpt>
      <trkpt lat="39.6314080" lon="-3.8712810">
        <ele>763.0</ele>
        <time>2019-08-12T10:27:27Z</time>
      </trkpt>
      <trkpt lat="39.6314580" lon="-3.8713020">
        <ele>763.0</ele>
        <time>2019-08-12T10:27:28Z</time>
      </trkpt>
      <trkpt lat="39.6315070" lon="-3.8713220">
        <ele>763.1</ele>
        <time>2019-08-12T10:27:29Z</time>
      </trkpt>
      <trkpt lat="39.6315570" lon="-3.8713430">
        <ele>763.1</ele>
        <time>2019-08-12T10:27:30Z</time>
      </trkpt>
      <trkpt lat="39.6316060" lon="-3.8713630">
        <ele>763.2</ele>
        <time>2019-08-12T10:27:31Z</time>
      </trkpt>
      <trkpt lat="39.6316550" lon="-3.8713840">
        <ele>763.2</ele>
        <time>2019-08-12T10:27:32Z</time>
      </trkpt>
      <trkpt lat="39.6317040" lon="-3.8714040">
        <ele>763.4</ele>
        <time>2019-08-12T10:27:33Z</time>
      </trkpt>
      <trkpt lat="39.6317540" lon="-3.8714250">
        <ele>763.5</ele>
        <time>2019-08-12T10:27:34Z</time>
      </trkpt>
      <trkpt lat="39.6318030" lon="-3.8714460">
        <ele>763.6</ele>
        <time>2019-08-12T10:27:35Z</time>
      </trkpt>
      <trkpt lat="39.6318530" lon="-3.8714670">
        <ele>763.7</ele>
        <time>2019-08-12T10:27:36Z</time>
      </trkpt>
      <trkpt lat="39.6319030" lon="-3.8714880">
        <ele>763.8</ele>
        <time>2019-08-12T10:27:37Z</time>
      </trkpt>
      <trkpt lat="39.6319530" lon="-3.8715100">
        <ele>763.9</ele>
        <time>2019-08-12T10:27:38Z</time>
      </trkpt>
      <trkpt lat="39.6320040" lon="-3.8715320">
        <ele>763.9</ele>
        <time>2019-08-12T10:27:39Z</time>
      </trkpt>
      <trkpt lat="39.6320550" lon="-3.8715540">
        <ele>764.0</ele>
        <time>2019-08-12T10:27:40Z</time>
      </trkpt>
      <trkpt lat="39.6321060" lon="-3.8715760">
        <ele>764.0</ele>
        <time>2019-08-12T10:27:41Z</time>
      </trkpt>
      <trkpt lat="39.6321580" lon="-3.8715990">
        <ele>764.0</ele>
        <time>2019-08-12T10:27:42Z</time>
      </trkpt>
      <trkpt lat="39.6322110" lon="-3.8716220">
        <ele>764.0</ele>
        <time>2019-08-12T10:27:43Z</time>
      </trkpt>
      <trkpt lat="39.6322630" lon="-3.8716450">
        <ele>764.0</ele>
        <time>2019-08-12T10:27:44Z</time>
      </trkpt>
      <trkpt lat="39.6323160" lon="-3.8716680">
        <ele>764.0</ele>
        <time>2019-08-12T10:27:45Z</time>
      </trkpt>
      <trkpt lat="39.6323690" lon="-3.8716920">
        <ele>764.0</ele>
        <time>2019-08-12T10:27:46Z</time>
      </trkpt>
      <trkpt lat="39.6324230" lon="-3.8717160">
        <ele>764.0</ele>
        <time>2019-08-12T10:27:47Z</time>
      </trkpt>
      <trkpt lat="39.6324770" lon="-3.8717390">
        <ele>764.0</ele>
        <time>2019-08-12T10:27:48Z</time>
      </trkpt>
      <trkpt lat="39.6325300" lon="-3.8717630">
        <ele>764.0</ele>
        <time>2019-08-12T10:27:49Z</time>
      </trkpt>
      <trkpt lat="39.6325840" lon="-3.8717870">
        <ele>764.0</ele>
        <time>2019-08-12T10:27:50Z</time>
      </trkpt>
      <trkpt lat="39.6326380" lon="-3.8718110">
        <ele>764.0</ele>
        <time>2019-08-12T10:27:51Z</time>
      </trkpt>
      <trkpt lat="39.6326920" lon="-3.8718360">
        <ele>764.0</ele>
        <time>2019-08-12T10:27:52Z</time>
      </trkpt>
      <trkpt lat="39.6327470" lon="-3.8718600">
        <ele>764.0</ele>
        <time>2019-08-12T10:27:53Z</time>
      </trkpt>
      <trkpt lat="39.6328020" lon="-3.8718850">
        <ele>764.0</ele>
        <time>2019-08-12T10:27:54Z</time>
      </trkpt>
      <trkpt lat="39.6328570" lon="-3.8719100">
        <ele>764.0</ele>
        <time>2019-08-12T10:27:55Z</time>
      </trkpt>
      <trkpt lat="39.6329120" lon="-3.8719350">
        <ele>764.0</ele>
        <time>2019-08-12T10:27:56Z</time>
      </trkpt>
      <trkpt lat="39.6329680" lon="-3.8719600">
        <ele>764.0</ele>
        <time>2019-08-12T10:27:57Z</time>
      </trkpt>
      <trkpt lat="39.6330240" lon="-3.8719860">
        <ele>764.0</ele>
        <time>2019-08-12T10:27:58Z</time>
      </trkpt>
      <trkpt lat="39.6330810" lon="-3.8720120">
        <ele>763.9</ele>
        <time>2019-08-12T10:27:59Z</time>
      </trkpt>
      <trkpt lat="39.6331390" lon="-3.8720390">
        <ele>763.9</ele>
        <time>2019-08-12T10:28:00Z</time>
      </trkpt>
      <trkpt lat="39.6331970" lon="-3.8720650">
        <ele>763.8</ele>
        <time>2019-08-12T10:28:01Z</time>
      </trkpt>
      <trkpt lat="39.6332550" lon="-3.8720920">
        <ele>763.7</ele>
        <time>2019-08-12T10:28:02Z</time>
      </trkpt>
      <trkpt lat="39.6333140" lon="-3.8721180">
        <ele>763.5</ele>
        <time>2019-08-12T10:28:03Z</time>
      </trkpt>
      <trkpt lat="39.6333740" lon="-3.8721440">
        <ele>763.4</ele>
        <time>2019-08-12T10:28:04Z</time>
      </trkpt>
      <trkpt lat="39.6334340" lon="-3.8721700">
        <ele>763.3</ele>
        <time>2019-08-12T10:28:05Z</time>
      </trkpt>
      <trkpt lat="39.6334940" lon="-3.8721950">
        <ele>763.2</ele>
        <time>2019-08-12T10:28:06Z</time>
      </trkpt>
      <trkpt lat="39.6335550" lon="-3.8722210">
        <ele>763.1</ele>
        <time>2019-08-12T10:28:07Z</time>
      </trkpt>
      <trkpt lat="39.6336150" lon="-3.8722470">
        <ele>763.1</ele>
        <time>2019-08-12T10:28:08Z</time>
      </trkpt>
      <trkpt lat="39.6336760" lon="-3.8722730">
        <ele>763.1</ele>
        <time>2019-08-12T10:28:09Z</time>
      </trkpt>
      <trkpt lat="39.6337360" lon="-3.8722990">
        <ele>763.1</ele>
        <time>2019-08-12T10:28:10Z</time>
      </trkpt>
      <trkpt lat="39.6337960" lon="-3.8723250">
        <ele>763.0</ele>
        <time>2019-08-12T10:28:11Z</time>
      </trkpt>
      <trkpt lat="39.6338560" lon="-3.8723520">
        <ele>763.0</ele>
        <time>2019-08-12T10:28:12Z</time>
      </trkpt>
      <trkpt lat="39.6339160" lon="-3.8723790">
        <ele>763.0</ele>
        <time>2019-08-12T10:28:13Z</time>
      </trkpt>
      <trkpt lat="39.6339760" lon="-3.8724060">
        <ele>762.9</ele>
        <time>2019-08-12T10:28:14Z</time>
      </trkpt>
      <trkpt lat="39.6340370" lon="-3.8724330">
        <ele>762.7</ele>
        <time>2019-08-12T10:28:15Z</time>
      </trkpt>
      <trkpt lat="39.6340970" lon="-3.8724600">
        <ele>762.5</ele>
        <time>2019-08-12T10:28:16Z</time>
      </trkpt>
      <trkpt lat="39.6341580" lon="-3.8724870">
        <ele>762.3</ele>
        <time>2019-08-12T10:28:17Z</time>
      </trkpt>
      <trkpt lat="39.6342190" lon="-3.8725140">
        <ele>762.1</ele>
        <time>2019-08-12T10:28:18Z</time>
      </trkpt>
      <trkpt lat="39.6342810" lon="-3.8725420">
        <ele>761.9</ele>
        <time>2019-08-12T10:28:19Z</time>
      </trkpt>
      <trkpt lat="39.6343420" lon="-3.8725690">
        <ele>761.6</ele>
        <time>2019-08-12T10:28:20Z</time>
      </trkpt>
      <trkpt lat="39.6344050" lon="-3.8725970">
        <ele>761.5</ele>
        <time>2019-08-12T10:28:21Z</time>
      </trkpt>
      <trkpt lat="39.6344670" lon="-3.8726240">
        <ele>761.3</ele>
        <time>2019-08-12T10:28:22Z</time>
      </trkpt>
      <trkpt lat="39.6345300" lon="-3.8726520">
        <ele>761.2</ele>
        <time>2019-08-12T10:28:23Z</time>
      </trkpt>
      <trkpt lat="39.6345930" lon="-3.8726800">
        <ele>761.2</ele>
        <time>2019-08-12T10:28:24Z</time>
      </trkpt>
      <trkpt lat="39.6346560" lon="-3.8727080">
        <ele>761.2</ele>
        <time>2019-08-12T10:28:25Z</time>
      </trkpt>
      <trkpt lat="39.6347200" lon="-3.8727360">
        <ele>761.1</ele>
        <time>2019-08-12T10:28:26Z</time>
      </trkpt>
      <trkpt lat="39.6347840" lon="-3.8727640">
        <ele>761.1</ele>
        <time>2019-08-12T10:28:27Z</time>
      </trkpt>
      <trkpt lat="39.6348480" lon="-3.8727920">
        <ele>761.1</ele>
        <time>2019-08-12T10:28:28Z</time>
      </trkpt>
      <trkpt lat="39.6349130" lon="-3.8728210">
        <ele>761.0</ele>
        <time>2019-08-12T10:28:29Z</time>
      </trkpt>
      <trkpt lat="39.6349780" lon="-3.8728490">
        <ele>760.9</ele>
        <time>2019-08-12T10:28:30Z</time>
      </trkpt>
      <trkpt lat="39.6350430" lon="-3.8728780">
        <ele>760.8</ele>
        <time>2019-08-12T10:28:31Z</time>
      </trkpt>
      <trkpt lat="39.6351090" lon="-3.8729070">
        <ele>760.6</ele>
        <time>2019-08-12T10:28:32Z</time>
      </trkpt>
      <trkpt lat="39.6351750" lon="-3.8729370">
        <ele>760.4</ele>
        <time>2019-08-12T10:28:33Z</time>
      </trkpt>
      <trkpt lat="39.6352410" lon="-3.8729660">
        <ele>760.2</ele>
        <time>2019-08-12T10:28:34Z</time>
      </trkpt>
      <trkpt lat="39.6353070" lon="-3.8729960">
        <ele>760.1</ele>
        <time>2019-08-12T10:28:35Z</time>
      </trkpt>
      <trkpt lat="39.6353740" lon="-3.8730260">
        <ele>759.9</ele>
        <time>2019-08-12T10:28:36Z</time>
      </trkpt>
      <trkpt lat="39.6354410" lon="-3.8730560">
        <ele>759.8</ele>
        <time>2019-08-12T10:28:37Z</time>
      </trkpt>
      <trkpt lat="39.6355080" lon="-3.8730860">
        <ele>759.6</ele>
        <time>2019-08-12T10:28:38Z</time>
      </trkpt>
      <trkpt lat="39.6355760" lon="-3.8731170">
        <ele>759.4</ele>
        <time>2019-08-12T10:28:39Z</time>
      </trkpt>
      <trkpt lat="39.6356440" lon="-3.8731480">
        <ele>759.2</ele>
        <time>2019-08-12T10:28:40Z</time>
      </trkpt>
      <trkpt lat="39.6357120" lon="-3.8731780">
        <ele>759.1</ele>
        <time>2019-08-12T10:28:41Z</time>
      </trkpt>
      <trkpt lat="39.6357810" lon="-3.8732090">
        <ele>758.9</ele>
        <time>2019-08-12T10:28:42Z</time>
      </trkpt>
      <trkpt lat="39.6358500" lon="-3.8732400">
        <ele>758.7</ele>
        <time>2019-08-12T10:28:43Z</time>
      </trkpt>
      <trkpt lat="39.6359190" lon="-3.8732700">
        <ele>758.5</ele>
        <time>2019-08-12T10:28:44Z</time>
      </trkpt>
      <trkpt lat="39.6359890" lon="-3.8733010">
        <ele>758.4</ele>
        <time>2019-08-12T10:28:45Z</time>
      </trkpt>
      <trkpt lat="39.6360600" lon="-3.8733320">
        <ele>758.3</ele>
        <time>2019-08-12T10:28:46Z</time>
      </trkpt>
      <trkpt lat="39.6361300" lon="-3.8733620">
        <ele>758.2</ele>
        <time>2019-08-12T10:28:47Z</time>
      </trkpt>
      <trkpt lat="39.6362010" lon="-3.8733920">
        <ele>758.1</ele>
        <time>2019-08-12T10:28:48Z</time>
      </trkpt>
      <trkpt lat="39.6362720" lon="-3.8734230">
        <ele>758.1</ele>
        <time>2019-08-12T10:28:49Z</time>
      </trkpt>
      <trkpt lat="39.6363440" lon="-3.8734530">
        <ele>758.0</ele>
        <time>2019-08-12T10:28:50Z</time>
      </trkpt>
      <trkpt lat="39.6364150" lon="-3.8734830">
        <ele>757.9</ele>
        <time>2019-08-12T10:28:51Z</time>
      </trkpt>
      <trkpt lat="39.6364860" lon="-3.8735130">
        <ele>757.7</ele>
        <time>2019-08-12T10:28:52Z</time>
      </trkpt>
      <trkpt lat="39.6365570" lon="-3.8735430">
        <ele>757.5</ele>
        <time>2019-08-12T10:28:53Z</time>
      </trkpt>
      <trkpt lat="39.6366280" lon="-3.8735730">
        <ele>757.4</ele>
        <time>2019-08-12T10:28:54Z</time>
      </trkpt>
      <trkpt lat="39.6366980" lon="-3.8736030">
        <ele>757.3</ele>
        <time>2019-08-12T10:28:55Z</time>
      </trkpt>
      <trkpt lat="39.6367690" lon="-3.8736340">
        <ele>757.1</ele>
        <time>2019-08-12T10:28:56Z</time>
      </trkpt>
      <trkpt lat="39.6368390" lon="-3.8736640">
        <ele>756.9</ele>
        <time>2019-08-12T10:28:57Z</time>
      </trkpt>
      <trkpt lat="39.6369080" lon="-3.8736940">
        <ele>756.7</ele>
        <time>2019-08-12T10:28:58Z</time>
      </trkpt>
      <trkpt lat="39.6369780" lon="-3.8737240">
        <ele>756.5</ele>
        <time>2019-08-12T10:28:59Z</time>
      </trkpt>
      <trkpt lat="39.6370470" lon="-3.8737540">
        <ele>756.4</ele>
        <time>2019-08-12T10:29:00Z</time>
      </trkpt>
      <trkpt lat="39.6371170" lon="-3.8737840">
        <ele>756.2</ele>
        <time>2019-08-12T10:29:01Z</time>
      </trkpt>
      <trkpt lat="39.6371860" lon="-3.8738150">
        <ele>756.1</ele>
        <time>2019-08-12T10:29:02Z</time>
      </trkpt>
      <trkpt lat="39.6372550" lon="-3.8738450">
        <ele>755.9</ele>
        <time>2019-08-12T10:29:03Z</time>
      </trkpt>
      <trkpt lat="39.6373240" lon="-3.8738760">
        <ele>755.6</ele>
        <time>2019-08-12T10:29:04Z</time>
      </trkpt>
      <trkpt lat="39.6373930" lon="-3.8739060">
        <ele>755.3</ele>
        <time>2019-08-12T10:29:05Z</time>
      </trkpt>
      <trkpt lat="39.6374630" lon="-3.8739370">
        <ele>755.0</ele>
        <time>2019-08-12T10:29:06Z</time>
      </trkpt>
      <trkpt lat="39.6375320" lon="-3.8739670">
        <ele>754.6</ele>
        <time>2019-08-12T10:29:07Z</time>
      </trkpt>
      <trkpt lat="39.6376010" lon="-3.8739980">
        <ele>754.4</ele>
        <time>2019-08-12T10:29:08Z</time>
      </trkpt>
      <trkpt lat="39.6376710" lon="-3.8740290">
        <ele>754.3</ele>
        <time>2019-08-12T10:29:09Z</time>
      </trkpt>
      <trkpt lat="39.6377400" lon="-3.8740600">
        <ele>754.3</ele>
        <time>2019-08-12T10:29:10Z</time>
      </trkpt>
      <trkpt lat="39.6378100" lon="-3.8740910">
        <ele>754.3</ele>
        <time>2019-08-12T10:29:11Z</time>
      </trkpt>
      <trkpt lat="39.6378800" lon="-3.8741230">
        <ele>754.2</ele>
        <time>2019-08-12T10:29:12Z</time>
      </trkpt>
      <trkpt lat="39.6379510" lon="-3.8741540">
        <ele>754.2</ele>
        <time>2019-08-12T10:29:13Z</time>
      </trkpt>
      <trkpt lat="39.6380210" lon="-3.8741860">
        <ele>754.2</ele>
        <time>2019-08-12T10:29:14Z</time>
      </trkpt>
      <trkpt lat="39.6380920" lon="-3.8742170">
        <ele>754.2</ele>
        <time>2019-08-12T10:29:15Z</time>
      </trkpt>
      <trkpt lat="39.6381630" lon="-3.8742490">
        <ele>754.2</ele>
        <time>2019-08-12T10:29:16Z</time>
      </trkpt>
      <trkpt lat="39.6382350" lon="-3.8742810">
        <ele>754.2</ele>
        <time>2019-08-12T10:29:17Z</time>
      </trkpt>
      <trkpt lat="39.6383060" lon="-3.8743130">
        <ele>754.1</ele>
        <time>2019-08-12T10:29:18Z</time>
      </trkpt>
      <trkpt lat="39.6383780" lon="-3.8743450">
        <ele>754.0</ele>
        <time>2019-08-12T10:29:19Z</time>
      </trkpt>
      <trkpt lat="39.6384490" lon="-3.8743770">
        <ele>753.8</ele>
        <time>2019-08-12T10:29:20Z</time>
      </trkpt>
      <trkpt lat="39.6385210" lon="-3.8744090">
        <ele>753.6</ele>
        <time>2019-08-12T10:29:21Z</time>
      </trkpt>
      <trkpt lat="39.6385930" lon="-3.8744410">
        <ele>753.4</ele>
        <time>2019-08-12T10:29:22Z</time>
      </trkpt>
      <trkpt lat="39.6386660" lon="-3.8744740">
        <ele>753.3</ele>
        <time>2019-08-12T10:29:23Z</time>
      </trkpt>
      <trkpt lat="39.6387380" lon="-3.8745060">
        <ele>753.2</ele>
        <time>2019-08-12T10:29:24Z</time>
      </trkpt>
      <trkpt lat="39.6388100" lon="-3.8745380">
        <ele>753.1</ele>
        <time>2019-08-12T10:29:25Z</time>
      </trkpt>
      <trkpt lat="39.6388830" lon="-3.8745700">
        <ele>753.0</ele>
        <time>2019-08-12T10:29:26Z</time>
      </trkpt>
      <trkpt lat="39.6389550" lon="-3.8746030">
        <ele>752.9</ele>
        <time>2019-08-12T10:29:27Z</time>
      </trkpt>
      <trkpt lat="39.6390280" lon="-3.8746350">
        <ele>752.8</ele>
        <time>2019-08-12T10:29:28Z</time>
      </trkpt>
      <trkpt lat="39.6391000" lon="-3.8746670">
        <ele>752.6</ele>
        <time>2019-08-12T10:29:29Z</time>
      </trkpt>
      <trkpt lat="39.6391730" lon="-3.8746990">
        <ele>752.4</ele>
        <time>2019-08-12T10:29:30Z</time>
      </trkpt>
      <trkpt lat="39.6392460" lon="-3.8747320">
        <ele>752.1</ele>
        <time>2019-08-12T10:29:31Z</time>
      </trkpt>
      <trkpt lat="39.6393180" lon="-3.8747640">
        <ele>751.9</ele>
        <time>2019-08-12T10:29:32Z</time>
      </trkpt>
      <trkpt lat="39.6393910" lon="-3.8747960">
        <ele>751.7</ele>
        <time>2019-08-12T10:29:33Z</time>
      </trkpt>
      <trkpt lat="39.6394630" lon="-3.8748280">
        <ele>751.5</ele>
        <time>2019-08-12T10:29:34Z</time>
      </trkpt>
      <trkpt lat="39.6395360" lon="-3.8748590">
        <ele>751.3</ele>
        <time>2019-08-12T10:29:35Z</time>
      </trkpt>
      <trkpt lat="39.6396070" lon="-3.8748910">
        <ele>751.3</ele>
        <time>2019-08-12T10:29:36Z</time>
      </trkpt>
      <trkpt lat="39.6396790" lon="-3.8749220">
        <ele>751.2</ele>
        <time>2019-08-12T10:29:37Z</time>
      </trkpt>
      <trkpt lat="39.6397500" lon="-3.8749530">
        <ele>751.2</ele>
        <time>2019-08-12T10:29:38Z</time>
      </trkpt>
      <trkpt lat="39.6398210" lon="-3.8749840">
        <ele>751.2</ele>
        <time>2019-08-12T10:29:39Z</time>
      </trkpt>
      <trkpt lat="39.6398910" lon="-3.8750150">
        <ele>751.2</ele>
        <time>2019-08-12T10:29:40Z</time>
      </trkpt>
      <trkpt lat="39.6399600" lon="-3.8750450">
        <ele>751.2</ele>
        <time>2019-08-12T10:29:41Z</time>
      </trkpt>
      <trkpt lat="39.6400290" lon="-3.8750750">
        <ele>751.3</ele>
        <time>2019-08-12T10:29:42Z</time>
      </trkpt>
      <trkpt lat="39.6400970" lon="-3.8751050">
        <ele>751.3</ele>
        <time>2019-08-12T10:29:43Z</time>
      </trkpt>
      <trkpt lat="39.6401640" lon="-3.8751340">
        <ele>751.4</ele>
        <time>2019-08-12T10:29:44Z</time>
      </trkpt>
      <trkpt lat="39.6402300" lon="-3.8751630">
        <ele>751.6</ele>
        <time>2019-08-12T10:29:45Z</time>
      </trkpt>
      <trkpt lat="39.6402950" lon="-3.8751910">
        <ele>751.7</ele>
        <time>2019-08-12T10:29:46Z</time>
      </trkpt>
      <trkpt lat="39.6403590" lon="-3.8752190">
        <ele>751.9</ele>
        <time>2019-08-12T10:29:47Z</time>
      </trkpt>
      <trkpt lat="39.6404220" lon="-3.8752460">
        <ele>752.0</ele>
        <time>2019-08-12T10:29:48Z</time>
      </trkpt>
      <trkpt lat="39.6404840" lon="-3.8752730">
        <ele>752.2</ele>
        <time>2019-08-12T10:29:49Z</time>
      </trkpt>
      <trkpt lat="39.6405450" lon="-3.8752990">
        <ele>752.3</ele>
        <time>2019-08-12T10:29:50Z</time>
      </trkpt>
      <trkpt lat="39.6406040" lon="-3.8753240">
        <ele>752.4</ele>
        <time>2019-08-12T10:29:51Z</time>
      </trkpt>
      <trkpt lat="39.6406620" lon="-3.8753490">
        <ele>752.5</ele>
        <time>2019-08-12T10:29:52Z</time>
      </trkpt>
      <trkpt lat="39.6407190" lon="-3.8753740">
        <ele>752.6</ele>
        <time>2019-08-12T10:29:53Z</time>
      </trkpt>
      <trkpt lat="39.6407750" lon="-3.8753980">
        <ele>752.7</ele>
        <time>2019-08-12T10:29:54Z</time>
      </trkpt>
      <trkpt lat="39.6408290" lon="-3.8754210">
        <ele>752.8</ele>
        <time>2019-08-12T10:29:55Z</time>
      </trkpt>
      <trkpt lat="39.6408820" lon="-3.8754440">
        <ele>753.0</ele>
        <time>2019-08-12T10:29:56Z</time>
      </trkpt>
      <trkpt lat="39.6409350" lon="-3.8754660">
        <ele>753.1</ele>
        <time>2019-08-12T10:29:57Z</time>
      </trkpt>
      <trkpt lat="39.6409860" lon="-3.8754880">
        <ele>753.3</ele>
        <time>2019-08-12T10:29:58Z</time>
      </trkpt>
      <trkpt lat="39.6410350" lon="-3.8755100">
        <ele>753.4</ele>
        <time>2019-08-12T10:29:59Z</time>
      </trkpt>
      <trkpt lat="39.6410840" lon="-3.8755300">
        <ele>753.6</ele>
        <time>2019-08-12T10:30:00Z</time>
      </trkpt>
      <trkpt lat="39.6411320" lon="-3.8755510">
        <ele>753.7</ele>
        <time>2019-08-12T10:30:01Z</time>
      </trkpt>
      <trkpt lat="39.6411800" lon="-3.8755710">
        <ele>753.9</ele>
        <time>2019-08-12T10:30:02Z</time>
      </trkpt>
      <trkpt lat="39.6412280" lon="-3.8755920">
        <ele>754.1</ele>
        <time>2019-08-12T10:30:03Z</time>
      </trkpt>
      <trkpt lat="39.6412770" lon="-3.8756120">
        <ele>754.2</ele>
        <time>2019-08-12T10:30:04Z</time>
      </trkpt>
      <trkpt lat="39.6413260" lon="-3.8756330">
        <ele>754.4</ele>
        <time>2019-08-12T10:30:05Z</time>
      </trkpt>
      <trkpt lat="39.6413760" lon="-3.8756540">
        <ele>754.5</ele>
        <time>2019-08-12T10:30:06Z</time>
      </trkpt>
      <trkpt lat="39.6414270" lon="-3.8756750">
        <ele>754.7</ele>
        <time>2019-08-12T10:30:07Z</time>
      </trkpt>
      <trkpt lat="39.6414780" lon="-3.8756960">
        <ele>754.8</ele>
        <time>2019-08-12T10:30:08Z</time>
      </trkpt>
      <trkpt lat="39.6415290" lon="-3.8757170">
        <ele>754.9</ele>
        <time>2019-08-12T10:30:09Z</time>
      </trkpt>
      <trkpt lat="39.6415800" lon="-3.8757390">
        <ele>755.0</ele>
        <time>2019-08-12T10:30:10Z</time>
      </trkpt>
      <trkpt lat="39.6416320" lon="-3.8757600">
        <ele>755.1</ele>
        <time>2019-08-12T10:30:11Z</time>
      </trkpt>
      <trkpt lat="39.6416830" lon="-3.8757810">
        <ele>755.3</ele>
        <time>2019-08-12T10:30:12Z</time>
      </trkpt>
      <trkpt lat="39.6417350" lon="-3.8758030">
        <ele>755.4</ele>
        <time>2019-08-12T10:30:13Z</time>
      </trkpt>
      <trkpt lat="39.6417870" lon="-3.8758240">
        <ele>755.5</ele>
        <time>2019-08-12T10:30:14Z</time>
      </trkpt>
      <trkpt lat="39.6418390" lon="-3.8758460">
        <ele>755.7</ele>
        <time>2019-08-12T10:30:15Z</time>
      </trkpt>
      <trkpt lat="39.6418910" lon="-3.8758670">
        <ele>755.9</ele>
        <time>2019-08-12T10:30:16Z</time>
      </trkpt>
      <trkpt lat="39.6419440" lon="-3.8758890">
        <ele>756.0</ele>
        <time>2019-08-12T10:30:17Z</time>
      </trkpt>
      <trkpt lat="39.6419970" lon="-3.8759110">
        <ele>756.2</ele>
        <time>2019-08-12T10:30:18Z</time>
      </trkpt>
      <trkpt lat="39.6420510" lon="-3.8759340">
        <ele>756.3</ele>
        <time>2019-08-12T10:30:19Z</time>
      </trkpt>
      <trkpt lat="39.6421050" lon="-3.8759560">
        <ele>756.3</ele>
        <time>2019-08-12T10:30:20Z</time>
      </trkpt>
      <trkpt lat="39.6421600" lon="-3.8759790">
        <ele>756.4</ele>
        <time>2019-08-12T10:30:21Z</time>
      </trkpt>
      <trkpt lat="39.6422150" lon="-3.8760020">
        <ele>756.4</ele>
        <time>2019-08-12T10:30:22Z</time>
      </trkpt>
      <trkpt lat="39.6422710" lon="-3.8760250">
        <ele>756.4</ele>
        <time>2019-08-12T10:30:23Z</time>
      </trkpt>
      <trkpt lat="39.6423270" lon="-3.8760490">
        <ele>756.4</ele>
        <time>2019-08-12T10:30:24Z</time>
      </trkpt>
      <trkpt lat="39.6423840" lon="-3.8760730">
        <ele>756.4</ele>
        <time>2019-08-12T10:30:25Z</time>
      </trkpt>
      <trkpt lat="39.6424410" lon="-3.8760980">
        <ele>756.4</ele>
        <time>2019-08-12T10:30:26Z</time>
      </trkpt>
      <trkpt lat="39.6425000" lon="-3.8761220">
        <ele>756.4</ele>
        <time>2019-08-12T10:30:27Z</time>
      </trkpt>
      <trkpt lat="39.6425590" lon="-3.8761470">
        <ele>756.4</ele>
        <time>2019-08-12T10:30:28Z</time>
      </trkpt>
      <trkpt lat="39.6426190" lon="-3.8761730">
        <ele>756.4</ele>
        <time>2019-08-12T10:30:29Z</time>
      </trkpt>
      <trkpt lat="39.6426790" lon="-3.8761990">
        <ele>756.4</ele>
        <time>2019-08-12T10:30:30Z</time>
      </trkpt>
      <trkpt lat="39.6427400" lon="-3.8762250">
        <ele>756.4</ele>
        <time>2019-08-12T10:30:31Z</time>
      </trkpt>
      <trkpt lat="39.6428020" lon="-3.8762520">
        <ele>756.4</ele>
        <time>2019-08-12T10:30:32Z</time>
      </trkpt>
      <trkpt lat="39.6428650" lon="-3.8762790">
        <ele>756.3</ele>
        <time>2019-08-12T10:30:33Z</time>
      </trkpt>
      <trkpt lat="39.6429280" lon="-3.8763070">
        <ele>756.1</ele>
        <time>2019-08-12T10:30:34Z</time>
      </trkpt>
      <trkpt lat="39.6429930" lon="-3.8763350">
        <ele>755.9</ele>
        <time>2019-08-12T10:30:35Z</time>
      </trkpt>
      <trkpt lat="39.6430570" lon="-3.8763640">
        <ele>755.8</ele>
        <time>2019-08-12T10:30:36Z</time>
      </trkpt>
      <trkpt lat="39.6431230" lon="-3.8763930">
        <ele>755.6</ele>
        <time>2019-08-12T10:30:37Z</time>
      </trkpt>
      <trkpt lat="39.6431900" lon="-3.8764230">
        <ele>755.4</ele>
        <time>2019-08-12T10:30:38Z</time>
      </trkpt>
      <trkpt lat="39.6432570" lon="-3.8764530">
        <ele>755.3</ele>
        <time>2019-08-12T10:30:39Z</time>
      </trkpt>
      <trkpt lat="39.6433250" lon="-3.8764830">
        <ele>755.1</ele>
        <time>2019-08-12T10:30:40Z</time>
      </trkpt>
      <trkpt lat="39.6433930" lon="-3.8765140">
        <ele>754.9</ele>
        <time>2019-08-12T10:30:41Z</time>
      </trkpt>
      <trkpt lat="39.6434620" lon="-3.8765450">
        <ele>754.7</ele>
        <time>2019-08-12T10:30:42Z</time>
      </trkpt>
      <trkpt lat="39.6435310" lon="-3.8765760">
        <ele>754.4</ele>
        <time>2019-08-12T10:30:43Z</time>
      </trkpt>
      <trkpt lat="39.6436000" lon="-3.8766070">
        <ele>754.2</ele>
        <time>2019-08-12T10:30:44Z</time>
      </trkpt>
      <trkpt lat="39.6436700" lon="-3.8766380">
        <ele>753.9</ele>
        <time>2019-08-12T10:30:45Z</time>
      </trkpt>
      <trkpt lat="39.6437400" lon="-3.8766690">
        <ele>753.6</ele>
        <time>2019-08-12T10:30:46Z</time>
      </trkpt>
      <trkpt lat="39.6438110" lon="-3.8767000">
        <ele>753.3</ele>
        <time>2019-08-12T10:30:47Z</time>
      </trkpt>
      <trkpt lat="39.6438810" lon="-3.8767320">
        <ele>753.0</ele>
        <time>2019-08-12T10:30:48Z</time>
      </trkpt>
      <trkpt lat="39.6439520" lon="-3.8767630">
        <ele>752.7</ele>
        <time>2019-08-12T10:30:49Z</time>
      </trkpt>
      <trkpt lat="39.6440240" lon="-3.8767940">
        <ele>752.3</ele>
        <time>2019-08-12T10:30:50Z</time>
      </trkpt>
      <trkpt lat="39.6440950" lon="-3.8768260">
        <ele>752.0</ele>
        <time>2019-08-12T10:30:51Z</time>
      </trkpt>
      <trkpt lat="39.6441670" lon="-3.8768580">
        <ele>751.8</ele>
        <time>2019-08-12T10:30:52Z</time>
      </trkpt>
      <trkpt lat="39.6442390" lon="-3.8768900">
        <ele>751.5</ele>
        <time>2019-08-12T10:30:53Z</time>
      </trkpt>
      <trkpt lat="39.6443110" lon="-3.8769220">
        <ele>751.2</ele>
        <time>2019-08-12T10:30:54Z</time>
      </trkpt>
      <trkpt lat="39.6443840" lon="-3.8769540">
        <ele>751.0</ele>
        <time>2019-08-12T10:30:55Z</time>
      </trkpt>
      <trkpt lat="39.6444570" lon="-3.8769870">
        <ele>750.7</ele>
        <time>2019-08-12T10:30:56Z</time>
      </trkpt>
      <trkpt lat="39.6445300" lon="-3.8770200">
        <ele>750.4</ele>
        <time>2019-08-12T10:30:57Z</time>
      </trkpt>
      <trkpt lat="39.6446040" lon="-3.8770530">
        <ele>750.1</ele>
        <time>2019-08-12T10:30:58Z</time>
      </trkpt>
      <trkpt lat="39.6446780" lon="-3.8770860">
        <ele>749.9</ele>
        <time>2019-08-12T10:30:59Z</time>
      </trkpt>
      <trkpt lat="39.6447520" lon="-3.8771200">
        <ele>749.7</ele>
        <time>2019-08-12T10:31:00Z</time>
      </trkpt>
      <trkpt lat="39.6448270" lon="-3.8771550">
        <ele>749.5</ele>
        <time>2019-08-12T10:31:01Z</time>
      </trkpt>
      <trkpt lat="39.6449020" lon="-3.8771890">
        <ele>749.4</ele>
        <time>2019-08-12T10:31:02Z</time>
      </trkpt>
      <trkpt lat="39.6449770" lon="-3.8772240">
        <ele>749.2</ele>
        <time>2019-08-12T10:31:03Z</time>
      </trkpt>
      <trkpt lat="39.6450530" lon="-3.8772600">
        <ele>749.1</ele>
        <time>2019-08-12T10:31:04Z</time>
      </trkpt>
      <trkpt lat="39.6451290" lon="-3.8772960">
        <ele>749.0</ele>
        <time>2019-08-12T10:31:05Z</time>
      </trkpt>
      <trkpt lat="39.6452050" lon="-3.8773310">
        <ele>748.8</ele>
        <time>2019-08-12T10:31:06Z</time>
      </trkpt>
      <trkpt lat="39.6452810" lon="-3.8773660">
        <ele>748.6</ele>
        <time>2019-08-12T10:31:07Z</time>
      </trkpt>
      <trkpt lat="39.6453580" lon="-3.8774010">
        <ele>748.4</ele>
        <time>2019-08-12T10:31:08Z</time>
      </trkpt>
      <trkpt lat="39.6454340" lon="-3.8774340">
        <ele>748.1</ele>
        <time>2019-08-12T10:31:09Z</time>
      </trkpt>
      <trkpt lat="39.6455100" lon="-3.8774650">
        <ele>747.8</ele>
        <time>2019-08-12T10:31:10Z</time>
      </trkpt>
      <trkpt lat="39.6455860" lon="-3.8774950">
        <ele>747.5</ele>
        <time>2019-08-12T10:31:11Z</time>
      </trkpt>
      <trkpt lat="39.6456610" lon="-3.8775230">
        <ele>747.3</ele>
        <time>2019-08-12T10:31:12Z</time>
      </trkpt>
      <trkpt lat="39.6457360" lon="-3.8775480">
        <ele>747.0</ele>
        <time>2019-08-12T10:31:13Z</time>
      </trkpt>
      <trkpt lat="39.6458100" lon="-3.8775670">
        <ele>746.6</ele>
        <time>2019-08-12T10:31:14Z</time>
      </trkpt>
      <trkpt lat="39.6458830" lon="-3.8775780">
        <ele>746.8</ele>
        <time>2019-08-12T10:31:15Z</time>
      </trkpt>
      <trkpt lat="39.6459550" lon="-3.8775800">
        <ele>746.9</ele>
        <time>2019-08-12T10:31:16Z</time>
      </trkpt>
      <trkpt lat="39.6460250" lon="-3.8775760">
        <ele>747.1</ele>
        <time>2019-08-12T10:31:17Z</time>
      </trkpt>
      <trkpt lat="39.6460930" lon="-3.8775730">
        <ele>747.3</ele>
        <time>2019-08-12T10:31:18Z</time>
      </trkpt>
      <trkpt lat="39.6461590" lon="-3.8775730">
        <ele>747.4</ele>
        <time>2019-08-12T10:31:19Z</time>
      </trkpt>
      <trkpt lat="39.6462250" lon="-3.8775740">
        <ele>747.5</ele>
        <time>2019-08-12T10:31:20Z</time>
      </trkpt>
      <trkpt lat="39.6462900" lon="-3.8775740">
        <ele>747.6</ele>
        <time>2019-08-12T10:31:21Z</time>
      </trkpt>
      <trkpt lat="39.6463540" lon="-3.8775720">
        <ele>747.8</ele>
        <time>2019-08-12T10:31:22Z</time>
      </trkpt>
      <trkpt lat="39.6464150" lon="-3.8775670">
        <ele>747.9</ele>
        <time>2019-08-12T10:31:23Z</time>
      </trkpt>
      <trkpt lat="39.6464760" lon="-3.8775630">
        <ele>748.1</ele>
        <time>2019-08-12T10:31:24Z</time>
      </trkpt>
      <trkpt lat="39.6465370" lon="-3.8775610">
        <ele>748.2</ele>
        <time>2019-08-12T10:31:25Z</time>
      </trkpt>
      <trkpt lat="39.6465980" lon="-3.8775630">
        <ele>748.3</ele>
        <time>2019-08-12T10:31:26Z</time>
      </trkpt>
      <trkpt lat="39.6466580" lon="-3.8775700">
        <ele>748.5</ele>
        <time>2019-08-12T10:31:27Z</time>
      </trkpt>
      <trkpt lat="39.6467180" lon="-3.8775850">
        <ele>748.6</ele>
        <time>2019-08-12T10:31:28Z</time>
      </trkpt>
      <trkpt lat="39.6467750" lon="-3.8776090">
        <ele>748.8</ele>
        <time>2019-08-12T10:31:29Z</time>
      </trkpt>
      <trkpt lat="39.6468270" lon="-3.8776410">
        <ele>748.8</ele>
        <time>2019-08-12T10:31:30Z</time>
      </trkpt>
      <trkpt lat="39.6468740" lon="-3.8776830">
        <ele>748.8</ele>
        <time>2019-08-12T10:31:31Z</time>
      </trkpt>
      <trkpt lat="39.6469170" lon="-3.8777310">
        <ele>748.7</ele>
        <time>2019-08-12T10:31:32Z</time>
      </trkpt>
      <trkpt lat="39.6469550" lon="-3.8777830">
        <ele>748.7</ele>
        <time>2019-08-12T10:31:33Z</time>
      </trkpt>
      <trkpt lat="39.6469910" lon="-3.8778360">
        <ele>748.7</ele>
        <time>2019-08-12T10:31:34Z</time>
      </trkpt>
      <trkpt lat="39.6470260" lon="-3.8778850">
        <ele>748.7</ele>
        <time>2019-08-12T10:31:35Z</time>
      </trkpt>
      <trkpt lat="39.6470600" lon="-3.8779290">
        <ele>748.7</ele>
        <time>2019-08-12T10:31:36Z</time>
      </trkpt>
      <trkpt lat="39.6470930" lon="-3.8779670">
        <ele>748.7</ele>
        <time>2019-08-12T10:31:37Z</time>
      </trkpt>
      <trkpt lat="39.6471270" lon="-3.8780010">
        <ele>748.8</ele>
        <time>2019-08-12T10:31:38Z</time>
      </trkpt>
      <trkpt lat="39.6471790" lon="-3.8780460">
        <ele>748.8</ele>
        <time>2019-08-12T10:31:39Z</time>
      </trkpt>
      <trkpt lat="39.6471960" lon="-3.8780600">
        <ele>748.8</ele>
        <time>2019-08-12T10:31:40Z</time>
      </trkpt>
      <trkpt lat="39.6472310" lon="-3.8780860">
        <ele>748.9</ele>
        <time>2019-08-12T10:31:41Z</time>
      </trkpt>
      <trkpt lat="39.6472670" lon="-3.8781110">
        <ele>748.9</ele>
        <time>2019-08-12T10:31:42Z</time>
      </trkpt>
      <trkpt lat="39.6473040" lon="-3.8781340">
        <ele>748.9</ele>
        <time>2019-08-12T10:31:43Z</time>
      </trkpt>
      <trkpt lat="39.6473410" lon="-3.8781570">
        <ele>749.0</ele>
        <time>2019-08-12T10:31:44Z</time>
      </trkpt>
      <trkpt lat="39.6473790" lon="-3.8781790">
        <ele>749.0</ele>
        <time>2019-08-12T10:31:45Z</time>
      </trkpt>
      <trkpt lat="39.6474160" lon="-3.8782010">
        <ele>749.1</ele>
        <time>2019-08-12T10:31:46Z</time>
      </trkpt>
      <trkpt lat="39.6474530" lon="-3.8782210">
        <ele>749.1</ele>
        <time>2019-08-12T10:31:47Z</time>
      </trkpt>
      <trkpt lat="39.6474890" lon="-3.8782390">
        <ele>749.1</ele>
        <time>2019-08-12T10:31:48Z</time>
      </trkpt>
      <trkpt lat="39.6475230" lon="-3.8782550">
        <ele>749.2</ele>
        <time>2019-08-12T10:31:49Z</time>
      </trkpt>
      <trkpt lat="39.6475560" lon="-3.8782680">
        <ele>749.2</ele>
        <time>2019-08-12T10:31:50Z</time>
      </trkpt>
      <trkpt lat="39.6475850" lon="-3.8782780">
        <ele>749.2</ele>
        <time>2019-08-12T10:31:51Z</time>
      </trkpt>
      <trkpt lat="39.6476060" lon="-3.8782840">
        <ele>749.2</ele>
        <time>2019-08-12T10:31:52Z</time>
      </trkpt>
      <trkpt lat="39.6476180" lon="-3.8782860">
        <ele>749.2</ele>
        <time>2019-08-12T10:31:53Z</time>
      </trkpt>
      <trkpt lat="39.6476230" lon="-3.8782860">
        <ele>749.2</ele>
        <time>2019-08-12T10:31:54Z</time>
      </trkpt>
      <trkpt lat="39.6476320" lon="-3.8783110">
        <ele>749.2</ele>
        <time>2019-08-12T11:00:17Z</time>
      </trkpt>
      <trkpt lat="39.6476480" lon="-3.8783410">
        <ele>749.2</ele>
        <time>2019-08-12T11:00:18Z</time>
      </trkpt>
      <trkpt lat="39.6476580" lon="-3.8783670">
        <ele>749.3</ele>
        <time>2019-08-12T11:00:19Z</time>
      </trkpt>
      <trkpt lat="39.6476630" lon="-3.8783940">
        <ele>749.3</ele>
        <time>2019-08-12T11:00:20Z</time>
      </trkpt>
      <trkpt lat="39.6476720" lon="-3.8784280">
        <ele>749.3</ele>
        <time>2019-08-12T11:00:21Z</time>
      </trkpt>
      <trkpt lat="39.6476830" lon="-3.8784680">
        <ele>749.4</ele>
        <time>2019-08-12T11:00:22Z</time>
      </trkpt>
      <trkpt lat="39.6476980" lon="-3.8785110">
        <ele>749.4</ele>
        <time>2019-08-12T11:00:23Z</time>
      </trkpt>
      <trkpt lat="39.6477150" lon="-3.8785550">
        <ele>749.4</ele>
        <time>2019-08-12T11:00:24Z</time>
      </trkpt>
      <trkpt lat="39.6477340" lon="-3.8785980">
        <ele>749.5</ele>
        <time>2019-08-12T11:00:25Z</time>
      </trkpt>
      <trkpt lat="39.6477560" lon="-3.8786370">
        <ele>749.5</ele>
        <time>2019-08-12T11:00:26Z</time>
      </trkpt>
      <trkpt lat="39.6477950" lon="-3.8786990">
        <ele>749.7</ele>
        <time>2019-08-12T11:00:27Z</time>
      </trkpt>
      <trkpt lat="39.6478120" lon="-3.8787240">
        <ele>749.7</ele>
        <time>2019-08-12T11:00:28Z</time>
      </trkpt>
      <trkpt lat="39.6478280" lon="-3.8787500">
        <ele>749.8</ele>
        <time>2019-08-12T11:00:29Z</time>
      </trkpt>
      <trkpt lat="39.6478540" lon="-3.8787930">
        <ele>749.9</ele>
        <time>2019-08-12T11:00:30Z</time>
      </trkpt>
      <trkpt lat="39.6478800" lon="-3.8788400">
        <ele>750.0</ele>
        <time>2019-08-12T11:00:31Z</time>
      </trkpt>
      <trkpt lat="39.6479190" lon="-3.8789160">
        <ele>750.1</ele>
        <time>2019-08-12T11:00:32Z</time>
      </trkpt>
      <trkpt lat="39.6479320" lon="-3.8789420">
        <ele>750.2</ele>
        <time>2019-08-12T11:00:33Z</time>
      </trkpt>
      <trkpt lat="39.6479580" lon="-3.8789950">
        <ele>750.2</ele>
        <time>2019-08-12T11:00:34Z</time>
      </trkpt>
      <trkpt lat="39.6479830" lon="-3.8790480">
        <ele>750.3</ele>
        <time>2019-08-12T11:00:35Z</time>
      </trkpt>
      <trkpt lat="39.6480080" lon="-3.8791000">
        <ele>750.3</ele>
        <time>2019-08-12T11:00:36Z</time>
      </trkpt>
      <trkpt lat="39.6480310" lon="-3.8791500">
        <ele>750.4</ele>
        <time>2019-08-12T11:00:37Z</time>
      </trkpt>
      <trkpt lat="39.6480540" lon="-3.8791970">
        <ele>750.4</ele>
        <time>2019-08-12T11:00:38Z</time>
      </trkpt>
      <trkpt lat="39.6480750" lon="-3.8792420">
        <ele>750.5</ele>
        <time>2019-08-12T11:00:39Z</time>
      </trkpt>
      <trkpt lat="39.6480950" lon="-3.8792830">
        <ele>750.5</ele>
        <time>2019-08-12T11:00:40Z</time>
      </trkpt>
      <trkpt lat="39.6481150" lon="-3.8793220">
        <ele>750.5</ele>
        <time>2019-08-12T11:00:41Z</time>
      </trkpt>
      <trkpt lat="39.6481330" lon="-3.8793600">
        <ele>750.5</ele>
        <time>2019-08-12T11:00:42Z</time>
      </trkpt>
      <trkpt lat="39.6481500" lon="-3.8793970">
        <ele>750.6</ele>
        <time>2019-08-12T11:00:43Z</time>
      </trkpt>
      <trkpt lat="39.6481670" lon="-3.8794340">
        <ele>750.6</ele>
        <time>2019-08-12T11:00:44Z</time>
      </trkpt>
      <trkpt lat="39.6481840" lon="-3.8794720">
        <ele>750.6</ele>
        <time>2019-08-12T11:00:45Z</time>
      </trkpt>
      <trkpt lat="39.6482010" lon="-3.8795100">
        <ele>750.6</ele>
        <time>2019-08-12T11:00:46Z</time>
      </trkpt>
      <trkpt lat="39.6482190" lon="-3.8795490">
        <ele>750.7</ele>
        <time>2019-08-12T11:00:47Z</time>
      </trkpt>
      <trkpt lat="39.6482390" lon="-3.8795890">
        <ele>750.7</ele>
        <time>2019-08-12T11:00:48Z</time>
      </trkpt>
      <trkpt lat="39.6482600" lon="-3.8796310">
        <ele>750.7</ele>
        <time>2019-08-12T11:00:49Z</time>
      </trkpt>
      <trkpt lat="39.6482830" lon="-3.8796740">
        <ele>750.6</ele>
        <time>2019-08-12T11:00:50Z</time>
      </trkpt>
      <trkpt lat="39.6483070" lon="-3.8797170">
        <ele>750.6</ele>
        <time>2019-08-12T11:00:51Z</time>
      </trkpt>
      <trkpt lat="39.6483310" lon="-3.8797610">
        <ele>750.6</ele>
        <time>2019-08-12T11:00:52Z</time>
      </trkpt>
      <trkpt lat="39.6483540" lon="-3.8798050">
        <ele>750.6</ele>
        <time>2019-08-12T11:00:53Z</time>
      </trkpt>
      <trkpt lat="39.6483760" lon="-3.8798480">
        <ele>750.6</ele>
        <time>2019-08-12T11:00:54Z</time>
      </trkpt>
      <trkpt lat="39.6483970" lon="-3.8798900">
        <ele>750.7</ele>
        <time>2019-08-12T11:00:55Z</time>
      </trkpt>
      <trkpt lat="39.6484170" lon="-3.8799330">
        <ele>750.7</ele>
        <time>2019-08-12T11:00:56Z</time>
      </trkpt>
      <trkpt lat="39.6484370" lon="-3.8799760">
        <ele>750.8</ele>
        <time>2019-08-12T11:00:57Z</time>
      </trkpt>
      <trkpt lat="39.6484560" lon="-3.8800190">
        <ele>750.9</ele>
        <time>2019-08-12T11:00:58Z</time>
      </trkpt>
      <trkpt lat="39.6484750" lon="-3.8800630">
        <ele>751.0</ele>
        <time>2019-08-12T11:00:59Z</time>
      </trkpt>
      <trkpt lat="39.6484940" lon="-3.8801070">
        <ele>751.0</ele>
        <time>2019-08-12T11:01:00Z</time>
      </trkpt>
      <trkpt lat="39.6485140" lon="-3.8801500">
        <ele>751.1</ele>
        <time>2019-08-12T11:01:01Z</time>
      </trkpt>
      <trkpt lat="39.6485330" lon="-3.8801940">
        <ele>751.2</ele>
        <time>2019-08-12T11:01:02Z</time>
      </trkpt>
      <trkpt lat="39.6485540" lon="-3.8802370">
        <ele>751.3</ele>
        <time>2019-08-12T11:01:03Z</time>
      </trkpt>
      <trkpt lat="39.6485740" lon="-3.8802790">
        <ele>751.3</ele>
        <time>2019-08-12T11:01:04Z</time>
      </trkpt>
      <trkpt lat="39.6485950" lon="-3.8803210">
        <ele>751.4</ele>
        <time>2019-08-12T11:01:05Z</time>
      </trkpt>
      <trkpt lat="39.6486150" lon="-3.8803630">
        <ele>751.4</ele>
        <time>2019-08-12T11:01:06Z</time>
      </trkpt>
      <trkpt lat="39.6486350" lon="-3.8804040">
        <ele>751.5</ele>
        <time>2019-08-12T11:01:07Z</time>
      </trkpt>
      <trkpt lat="39.6486540" lon="-3.8804440">
        <ele>751.5</ele>
        <time>2019-08-12T11:01:08Z</time>
      </trkpt>
      <trkpt lat="39.6486720" lon="-3.8804850">
        <ele>751.5</ele>
        <time>2019-08-12T11:01:09Z</time>
      </trkpt>
      <trkpt lat="39.6486900" lon="-3.8805250">
        <ele>751.5</ele>
        <time>2019-08-12T11:01:10Z</time>
      </trkpt>
      <trkpt lat="39.6487080" lon="-3.8805660">
        <ele>751.6</ele>
        <time>2019-08-12T11:01:11Z</time>
      </trkpt>
      <trkpt lat="39.6487260" lon="-3.8806060">
        <ele>751.6</ele>
        <time>2019-08-12T11:01:12Z</time>
      </trkpt>
      <trkpt lat="39.6487440" lon="-3.8806470">
        <ele>751.6</ele>
        <time>2019-08-12T11:01:13Z</time>
      </trkpt>
      <trkpt lat="39.6487620" lon="-3.8806890">
        <ele>751.7</ele>
        <time>2019-08-12T11:01:14Z</time>
      </trkpt>
      <trkpt lat="39.6487800" lon="-3.8807310">
        <ele>751.7</ele>
        <time>2019-08-12T11:01:15Z</time>
      </trkpt>
      <trkpt lat="39.6487980" lon="-3.8807730">
        <ele>751.7</ele>
        <time>2019-08-12T11:01:16Z</time>
      </trkpt>
      <trkpt lat="39.6488170" lon="-3.8808170">
        <ele>751.7</ele>
        <time>2019-08-12T11:01:17Z</time>
      </trkpt>
      <trkpt lat="39.6488350" lon="-3.8808610">
        <ele>751.8</ele>
        <time>2019-08-12T11:01:18Z</time>
      </trkpt>
      <trkpt lat="39.6488550" lon="-3.8809050">
        <ele>751.8</ele>
        <time>2019-08-12T11:01:19Z</time>
      </trkpt>
      <trkpt lat="39.6488740" lon="-3.8809500">
        <ele>751.9</ele>
        <time>2019-08-12T11:01:20Z</time>
      </trkpt>
      <trkpt lat="39.6488940" lon="-3.8809960">
        <ele>751.9</ele>
        <time>2019-08-12T11:01:21Z</time>
      </trkpt>
      <trkpt lat="39.6489140" lon="-3.8810420">
        <ele>752.0</ele>
        <time>2019-08-12T11:01:22Z</time>
      </trkpt>
      <trkpt lat="39.6489340" lon="-3.8810880">
        <ele>752.0</ele>
        <time>2019-08-12T11:01:23Z</time>
      </trkpt>
      <trkpt lat="39.6489550" lon="-3.8811350">
        <ele>752.1</ele>
        <time>2019-08-12T11:01:24Z</time>
      </trkpt>
      <trkpt lat="39.6489750" lon="-3.8811820">
        <ele>752.2</ele>
        <time>2019-08-12T11:01:25Z</time>
      </trkpt>
      <trkpt lat="39.6489960" lon="-3.8812300">
        <ele>752.2</ele>
        <time>2019-08-12T11:01:26Z</time>
      </trkpt>
      <trkpt lat="39.6490180" lon="-3.8812770">
        <ele>752.3</ele>
        <time>2019-08-12T11:01:27Z</time>
      </trkpt>
      <trkpt lat="39.6490390" lon="-3.8813250">
        <ele>752.4</ele>
        <time>2019-08-12T11:01:28Z</time>
      </trkpt>
      <trkpt lat="39.6490600" lon="-3.8813730">
        <ele>752.4</ele>
        <time>2019-08-12T11:01:29Z</time>
      </trkpt>
      <trkpt lat="39.6490820" lon="-3.8814220">
        <ele>752.5</ele>
        <time>2019-08-12T11:01:30Z</time>
      </trkpt>
      <trkpt lat="39.6491030" lon="-3.8814710">
        <ele>752.6</ele>
        <time>2019-08-12T11:01:31Z</time>
      </trkpt>
      <trkpt lat="39.6491250" lon="-3.8815210">
        <ele>752.7</ele>
        <time>2019-08-12T11:01:32Z</time>
      </trkpt>
      <trkpt lat="39.6491470" lon="-3.8815700">
        <ele>752.8</ele>
        <time>2019-08-12T11:01:33Z</time>
      </trkpt>
      <trkpt lat="39.6491690" lon="-3.8816210">
        <ele>752.9</ele>
        <time>2019-08-12T11:01:34Z</time>
      </trkpt>
      <trkpt lat="39.6491910" lon="-3.8816720">
        <ele>753.0</ele>
        <time>2019-08-12T11:01:35Z</time>
      </trkpt>
      <trkpt lat="39.6492120" lon="-3.8817230">
        <ele>753.1</ele>
        <time>2019-08-12T11:01:36Z</time>
      </trkpt>
      <trkpt lat="39.6492340" lon="-3.8817750">
        <ele>753.2</ele>
        <time>2019-08-12T11:01:37Z</time>
      </trkpt>
      <trkpt lat="39.6492560" lon="-3.8818280">
        <ele>753.3</ele>
        <time>2019-08-12T11:01:38Z</time>
      </trkpt>
      <trkpt lat="39.6492770" lon="-3.8818830">
        <ele>753.4</ele>
        <time>2019-08-12T11:01:39Z</time>
      </trkpt>
      <trkpt lat="39.6492980" lon="-3.8819380">
        <ele>753.5</ele>
        <time>2019-08-12T11:01:40Z</time>
      </trkpt>
      <trkpt lat="39.6493190" lon="-3.8819940">
        <ele>753.6</ele>
        <time>2019-08-12T11:01:41Z</time>
      </trkpt>
      <trkpt lat="39.6493390" lon="-3.8820520">
        <ele>753.7</ele>
        <time>2019-08-12T11:01:42Z</time>
      </trkpt>
      <trkpt lat="39.6493590" lon="-3.8821120">
        <ele>753.8</ele>
        <time>2019-08-12T11:01:43Z</time>
      </trkpt>
      <trkpt lat="39.6493780" lon="-3.8821730">
        <ele>753.9</ele>
        <time>2019-08-12T11:01:44Z</time>
      </trkpt>
      <trkpt lat="39.6493970" lon="-3.8822350">
        <ele>754.0</ele>
        <time>2019-08-12T11:01:45Z</time>
      </trkpt>
      <trkpt lat="39.6494160" lon="-3.8822970">
        <ele>754.0</ele>
        <time>2019-08-12T11:01:46Z</time>
      </trkpt>
      <trkpt lat="39.6494340" lon="-3.8823600">
        <ele>754.0</ele>
        <time>2019-08-12T11:01:47Z</time>
      </trkpt>
      <trkpt lat="39.6494530" lon="-3.8824210">
        <ele>754.1</ele>
        <time>2019-08-12T11:01:48Z</time>
      </trkpt>
      <trkpt lat="39.6494720" lon="-3.8824800">
        <ele>754.1</ele>
        <time>2019-08-12T11:01:49Z</time>
      </trkpt>
      <trkpt lat="39.6494910" lon="-3.8825380">
        <ele>754.1</ele>
        <time>2019-08-12T11:01:50Z</time>
      </trkpt>
      <trkpt lat="39.6495090" lon="-3.8825960">
        <ele>754.2</ele>
        <time>2019-08-12T11:01:51Z</time>
      </trkpt>
      <trkpt lat="39.6495280" lon="-3.8826540">
        <ele>754.2</ele>
        <time>2019-08-12T11:01:52Z</time>
      </trkpt>
      <trkpt lat="39.6495460" lon="-3.8827120">
        <ele>754.3</ele>
        <time>2019-08-12T11:01:53Z</time>
      </trkpt>
      <trkpt lat="39.6495630" lon="-3.8827710">
        <ele>754.3</ele>
        <time>2019-08-12T11:01:54Z</time>
      </trkpt>
      <trkpt lat="39.6495800" lon="-3.8828300">
        <ele>754.4</ele>
        <time>2019-08-12T11:01:55Z</time>
      </trkpt>
      <trkpt lat="39.6495960" lon="-3.8828900">
        <ele>754.4</ele>
        <time>2019-08-12T11:01:56Z</time>
      </trkpt>
      <trkpt lat="39.6496120" lon="-3.8829490">
        <ele>754.5</ele>
        <time>2019-08-12T11:01:57Z</time>
      </trkpt>
      <trkpt lat="39.6496270" lon="-3.8830080">
        <ele>754.5</ele>
        <time>2019-08-12T11:01:58Z</time>
      </trkpt>
      <trkpt lat="39.6496420" lon="-3.8830670">
        <ele>754.5</ele>
        <time>2019-08-12T11:01:59Z</time>
      </trkpt>
      <trkpt lat="39.6496560" lon="-3.8831260">
        <ele>754.6</ele>
        <time>2019-08-12T11:02:00Z</time>
      </trkpt>
      <trkpt lat="39.6496700" lon="-3.8831840">
        <ele>754.6</ele>
        <time>2019-08-12T11:02:01Z</time>
      </trkpt>
      <trkpt lat="39.6496830" lon="-3.8832420">
        <ele>754.7</ele>
        <time>2019-08-12T11:02:02Z</time>
      </trkpt>
      <trkpt lat="39.6496960" lon="-3.8832990">
        <ele>754.7</ele>
        <time>2019-08-12T11:02:03Z</time>
      </trkpt>
      <trkpt lat="39.6497090" lon="-3.8833560">
        <ele>754.8</ele>
        <time>2019-08-12T11:02:04Z</time>
      </trkpt>
      <trkpt lat="39.6497220" lon="-3.8834110">
        <ele>754.8</ele>
        <time>2019-08-12T11:02:05Z</time>
      </trkpt>
      <trkpt lat="39.6497360" lon="-3.8834660">
        <ele>754.9</ele>
        <time>2019-08-12T11:02:06Z</time>
      </trkpt>
      <trkpt lat="39.6497500" lon="-3.8835190">
        <ele>754.9</ele>
        <time>2019-08-12T11:02:07Z</time>
      </trkpt>
      <trkpt lat="39.6497650" lon="-3.8835710">
        <ele>755.0</ele>
        <time>2019-08-12T11:02:08Z</time>
      </trkpt>
      <trkpt lat="39.6497810" lon="-3.8836230">
        <ele>755.0</ele>
        <time>2019-08-12T11:02:09Z</time>
      </trkpt>
      <trkpt lat="39.6497960" lon="-3.8836740">
        <ele>755.1</ele>
        <time>2019-08-12T11:02:10Z</time>
      </trkpt>
      <trkpt lat="39.6498110" lon="-3.8837260">
        <ele>755.1</ele>
        <time>2019-08-12T11:02:11Z</time>
      </trkpt>
      <trkpt lat="39.6498260" lon="-3.8837800">
        <ele>755.2</ele>
        <time>2019-08-12T11:02:12Z</time>
      </trkpt>
      <trkpt lat="39.6498400" lon="-3.8838350">
        <ele>755.2</ele>
        <time>2019-08-12T11:02:13Z</time>
      </trkpt>
      <trkpt lat="39.6498540" lon="-3.8838910">
        <ele>755.3</ele>
        <time>2019-08-12T11:02:14Z</time>
      </trkpt>
      <trkpt lat="39.6498690" lon="-3.8839470">
        <ele>755.3</ele>
        <time>2019-08-12T11:02:15Z</time>
      </trkpt>
      <trkpt lat="39.6498860" lon="-3.8840050">
        <ele>755.4</ele>
        <time>2019-08-12T11:02:16Z</time>
      </trkpt>
      <trkpt lat="39.6499050" lon="-3.8840630">
        <ele>755.4</ele>
        <time>2019-08-12T11:02:17Z</time>
      </trkpt>
      <trkpt lat="39.6499260" lon="-3.8841210">
        <ele>755.5</ele>
        <time>2019-08-12T11:02:18Z</time>
      </trkpt>
      <trkpt lat="39.6499470" lon="-3.8841780">
        <ele>755.6</ele>
        <time>2019-08-12T11:02:19Z</time>
      </trkpt>
      <trkpt lat="39.6499690" lon="-3.8842340">
        <ele>755.7</ele>
        <time>2019-08-12T11:02:20Z</time>
      </trkpt>
      <trkpt lat="39.6499900" lon="-3.8842880">
        <ele>755.8</ele>
        <time>2019-08-12T11:02:21Z</time>
      </trkpt>
      <trkpt lat="39.6500100" lon="-3.8843420">
        <ele>755.8</ele>
        <time>2019-08-12T11:02:22Z</time>
      </trkpt>
      <trkpt lat="39.6500290" lon="-3.8843940">
        <ele>755.9</ele>
        <time>2019-08-12T11:02:23Z</time>
      </trkpt>
      <trkpt lat="39.6500470" lon="-3.8844450">
        <ele>756.0</ele>
        <time>2019-08-12T11:02:24Z</time>
      </trkpt>
      <trkpt lat="39.6500620" lon="-3.8844960">
        <ele>756.1</ele>
        <time>2019-08-12T11:02:25Z</time>
      </trkpt>
      <trkpt lat="39.6500760" lon="-3.8845470">
        <ele>756.2</ele>
        <time>2019-08-12T11:02:26Z</time>
      </trkpt>
      <trkpt lat="39.6500890" lon="-3.8845980">
        <ele>756.2</ele>
        <time>2019-08-12T11:02:27Z</time>
      </trkpt>
      <trkpt lat="39.6501020" lon="-3.8846490">
        <ele>756.3</ele>
        <time>2019-08-12T11:02:28Z</time>
      </trkpt>
      <trkpt lat="39.6501140" lon="-3.8847010">
        <ele>756.4</ele>
        <time>2019-08-12T11:02:29Z</time>
      </trkpt>
      <trkpt lat="39.6501280" lon="-3.8847540">
        <ele>756.4</ele>
        <time>2019-08-12T11:02:30Z</time>
      </trkpt>
      <trkpt lat="39.6501420" lon="-3.8848080">
        <ele>756.5</ele>
        <time>2019-08-12T11:02:31Z</time>
      </trkpt>
      <trkpt lat="39.6501570" lon="-3.8848620">
        <ele>756.6</ele>
        <time>2019-08-12T11:02:32Z</time>
      </trkpt>
      <trkpt lat="39.6501720" lon="-3.8849170">
        <ele>756.7</ele>
        <time>2019-08-12T11:02:33Z</time>
      </trkpt>
      <trkpt lat="39.6501880" lon="-3.8849720">
        <ele>756.7</ele>
        <time>2019-08-12T11:02:34Z</time>
      </trkpt>
      <trkpt lat="39.6502040" lon="-3.8850280">
        <ele>756.8</ele>
        <time>2019-08-12T11:02:35Z</time>
      </trkpt>
      <trkpt lat="39.6502200" lon="-3.8850840">
        <ele>756.9</ele>
        <time>2019-08-12T11:02:36Z</time>
      </trkpt>
      <trkpt lat="39.6502370" lon="-3.8851410">
        <ele>756.9</ele>
        <time>2019-08-12T11:02:37Z</time>
      </trkpt>
      <trkpt lat="39.6502530" lon="-3.8851970">
        <ele>757.0</ele>
        <time>2019-08-12T11:02:38Z</time>
      </trkpt>
      <trkpt lat="39.6502690" lon="-3.8852530">
        <ele>757.1</ele>
        <time>2019-08-12T11:02:39Z</time>
      </trkpt>
      <trkpt lat="39.6502840" lon="-3.8853090">
        <ele>757.1</ele>
        <time>2019-08-12T11:02:40Z</time>
      </trkpt>
      <trkpt lat="39.6502990" lon="-3.8853650">
        <ele>757.2</ele>
        <time>2019-08-12T11:02:41Z</time>
      </trkpt>
      <trkpt lat="39.6503140" lon="-3.8854210">
        <ele>757.3</ele>
        <time>2019-08-12T11:02:42Z</time>
      </trkpt>
      <trkpt lat="39.6503290" lon="-3.8854770">
        <ele>757.5</ele>
        <time>2019-08-12T11:02:43Z</time>
      </trkpt>
      <trkpt lat="39.6503440" lon="-3.8855330">
        <ele>757.6</ele>
        <time>2019-08-12T11:02:44Z</time>
      </trkpt>
      <trkpt lat="39.6503580" lon="-3.8855890">
        <ele>757.7</ele>
        <time>2019-08-12T11:02:45Z</time>
      </trkpt>
      <trkpt lat="39.6503730" lon="-3.8856450">
        <ele>757.8</ele>
        <time>2019-08-12T11:02:46Z</time>
      </trkpt>
      <trkpt lat="39.6503870" lon="-3.8857000">
        <ele>757.9</ele>
        <time>2019-08-12T11:02:47Z</time>
      </trkpt>
      <trkpt lat="39.6504010" lon="-3.8857570">
        <ele>758.0</ele>
        <time>2019-08-12T11:02:48Z</time>
      </trkpt>
      <trkpt lat="39.6504160" lon="-3.8858130">
        <ele>758.1</ele>
        <time>2019-08-12T11:02:49Z</time>
      </trkpt>
      <trkpt lat="39.6504300" lon="-3.8858690">
        <ele>758.3</ele>
        <time>2019-08-12T11:02:50Z</time>
      </trkpt>
      <trkpt lat="39.6504440" lon="-3.8859250">
        <ele>758.4</ele>
        <time>2019-08-12T11:02:51Z</time>
      </trkpt>
      <trkpt lat="39.6504590" lon="-3.8859810">
        <ele>758.5</ele>
        <time>2019-08-12T11:02:52Z</time>
      </trkpt>
      <trkpt lat="39.6504730" lon="-3.8860370">
        <ele>758.6</ele>
        <time>2019-08-12T11:02:53Z</time>
      </trkpt>
      <trkpt lat="39.6504870" lon="-3.8860930">
        <ele>758.7</ele>
        <time>2019-08-12T11:02:54Z</time>
      </trkpt>
      <trkpt lat="39.6505010" lon="-3.8861490">
        <ele>758.8</ele>
        <time>2019-08-12T11:02:55Z</time>
      </trkpt>
      <trkpt lat="39.6505150" lon="-3.8862050">
        <ele>758.8</ele>
        <time>2019-08-12T11:02:56Z</time>
      </trkpt>
      <trkpt lat="39.6505280" lon="-3.8862600">
        <ele>758.8</ele>
        <time>2019-08-12T11:02:57Z</time>
      </trkpt>
      <trkpt lat="39.6505410" lon="-3.8863140">
        <ele>758.9</ele>
        <time>2019-08-12T11:02:58Z</time>
      </trkpt>
      <trkpt lat="39.6505540" lon="-3.8863690">
        <ele>758.9</ele>
        <time>2019-08-12T11:02:59Z</time>
      </trkpt>
      <trkpt lat="39.6505670" lon="-3.8864230">
        <ele>758.9</ele>
        <time>2019-08-12T11:03:00Z</time>
      </trkpt>
      <trkpt lat="39.6505800" lon="-3.8864770">
        <ele>758.9</ele>
        <time>2019-08-12T11:03:01Z</time>
      </trkpt>
      <trkpt lat="39.6505930" lon="-3.8865300">
        <ele>758.9</ele>
        <time>2019-08-12T11:03:02Z</time>
      </trkpt>
      <trkpt lat="39.6506070" lon="-3.8865840">
        <ele>758.9</ele>
        <time>2019-08-12T11:03:03Z</time>
      </trkpt>
      <trkpt lat="39.6506210" lon="-3.8866370">
        <ele>758.9</ele>
        <time>2019-08-12T11:03:04Z</time>
      </trkpt>
      <trkpt lat="39.6506350" lon="-3.8866900">
        <ele>759.0</ele>
        <time>2019-08-12T11:03:05Z</time>
      </trkpt>
      <trkpt lat="39.6506500" lon="-3.8867430">
        <ele>759.0</ele>
        <time>2019-08-12T11:03:06Z</time>
      </trkpt>
      <trkpt lat="39.6506660" lon="-3.8867960">
        <ele>759.0</ele>
        <time>2019-08-12T11:03:07Z</time>
      </trkpt>
      <trkpt lat="39.6506830" lon="-3.8868490">
        <ele>759.0</ele>
        <time>2019-08-12T11:03:08Z</time>
      </trkpt>
      <trkpt lat="39.6506990" lon="-3.8869030">
        <ele>759.0</ele>
        <time>2019-08-12T11:03:09Z</time>
      </trkpt>
      <trkpt lat="39.6507150" lon="-3.8869590">
        <ele>759.0</ele>
        <time>2019-08-12T11:03:10Z</time>
      </trkpt>
      <trkpt lat="39.6507310" lon="-3.8870150">
        <ele>759.0</ele>
        <time>2019-08-12T11:03:11Z</time>
      </trkpt>
      <trkpt lat="39.6507460" lon="-3.8870730">
        <ele>759.0</ele>
        <time>2019-08-12T11:03:12Z</time>
      </trkpt>
      <trkpt lat="39.6507590" lon="-3.8871320">
        <ele>759.0</ele>
        <time>2019-08-12T11:03:13Z</time>
      </trkpt>
      <trkpt lat="39.6507730" lon="-3.8871930">
        <ele>759.2</ele>
        <time>2019-08-12T11:03:14Z</time>
      </trkpt>
      <trkpt lat="39.6507860" lon="-3.8872530">
        <ele>759.3</ele>
        <time>2019-08-12T11:03:15Z</time>
      </trkpt>
      <trkpt lat="39.6507990" lon="-3.8873130">
        <ele>759.4</ele>
        <time>2019-08-12T11:03:16Z</time>
      </trkpt>
      <trkpt lat="39.6508130" lon="-3.8873730">
        <ele>759.5</ele>
        <time>2019-08-12T11:03:17Z</time>
      </trkpt>
      <trkpt lat="39.6508270" lon="-3.8874320">
        <ele>759.6</ele>
        <time>2019-08-12T11:03:18Z</time>
      </trkpt>
      <trkpt lat="39.6508410" lon="-3.8874890">
        <ele>759.7</ele>
        <time>2019-08-12T11:03:19Z</time>
      </trkpt>
      <trkpt lat="39.6508550" lon="-3.8875460">
        <ele>759.8</ele>
        <time>2019-08-12T11:03:20Z</time>
      </trkpt>
      <trkpt lat="39.6508700" lon="-3.8876010">
        <ele>759.8</ele>
        <time>2019-08-12T11:03:21Z</time>
      </trkpt>
      <trkpt lat="39.6508840" lon="-3.8876550">
        <ele>759.9</ele>
        <time>2019-08-12T11:03:22Z</time>
      </trkpt>
      <trkpt lat="39.6509000" lon="-3.8877080">
        <ele>759.9</ele>
        <time>2019-08-12T11:03:23Z</time>
      </trkpt>
      <trkpt lat="39.6509150" lon="-3.8877620">
        <ele>760.0</ele>
        <time>2019-08-12T11:03:24Z</time>
      </trkpt>
      <trkpt lat="39.6509290" lon="-3.8878160">
        <ele>760.0</ele>
        <time>2019-08-12T11:03:25Z</time>
      </trkpt>
      <trkpt lat="39.6509440" lon="-3.8878710">
        <ele>760.1</ele>
        <time>2019-08-12T11:03:26Z</time>
      </trkpt>
      <trkpt lat="39.6509580" lon="-3.8879280">
        <ele>760.1</ele>
        <time>2019-08-12T11:03:27Z</time>
      </trkpt>
      <trkpt lat="39.6509720" lon="-3.8879840">
        <ele>760.2</ele>
        <time>2019-08-12T11:03:28Z</time>
      </trkpt>
      <trkpt lat="39.6509870" lon="-3.8880410">
        <ele>760.2</ele>
        <time>2019-08-12T11:03:29Z</time>
      </trkpt>
      <trkpt lat="39.6510020" lon="-3.8880970">
        <ele>760.3</ele>
        <time>2019-08-12T11:03:30Z</time>
      </trkpt>
      <trkpt lat="39.6510180" lon="-3.8881520">
        <ele>760.4</ele>
        <time>2019-08-12T11:03:31Z</time>
      </trkpt>
      <trkpt lat="39.6510350" lon="-3.8882060">
        <ele>760.4</ele>
        <time>2019-08-12T11:03:32Z</time>
      </trkpt>
      <trkpt lat="39.6510510" lon="-3.8882600">
        <ele>760.5</ele>
        <time>2019-08-12T11:03:33Z</time>
      </trkpt>
      <trkpt lat="39.6510660" lon="-3.8883160">
        <ele>760.6</ele>
        <time>2019-08-12T11:03:34Z</time>
      </trkpt>
      <trkpt lat="39.6510810" lon="-3.8883730">
        <ele>760.7</ele>
        <time>2019-08-12T11:03:35Z</time>
      </trkpt>
      <trkpt lat="39.6510950" lon="-3.8884310">
        <ele>760.8</ele>
        <time>2019-08-12T11:03:36Z</time>
      </trkpt>
      <trkpt lat="39.6511080" lon="-3.8884900">
        <ele>760.8</ele>
        <time>2019-08-12T11:03:37Z</time>
      </trkpt>
      <trkpt lat="39.6511220" lon="-3.8885500">
        <ele>760.9</ele>
        <time>2019-08-12T11:03:38Z</time>
      </trkpt>
      <trkpt lat="39.6511370" lon="-3.8886100">
        <ele>761.0</ele>
        <time>2019-08-12T11:03:39Z</time>
      </trkpt>
      <trkpt lat="39.6511530" lon="-3.8886700">
        <ele>761.0</ele>
        <time>2019-08-12T11:03:40Z</time>
      </trkpt>
      <trkpt lat="39.6511690" lon="-3.8887300">
        <ele>761.1</ele>
        <time>2019-08-12T11:03:41Z</time>
      </trkpt>
      <trkpt lat="39.6511860" lon="-3.8887900">
        <ele>761.1</ele>
        <time>2019-08-12T11:03:42Z</time>
      </trkpt>
      <trkpt lat="39.6512030" lon="-3.8888490">
        <ele>761.2</ele>
        <time>2019-08-12T11:03:43Z</time>
      </trkpt>
      <trkpt lat="39.6512200" lon="-3.8889080">
        <ele>761.2</ele>
        <time>2019-08-12T11:03:44Z</time>
      </trkpt>
      <trkpt lat="39.6512360" lon="-3.8889670">
        <ele>761.3</ele>
        <time>2019-08-12T11:03:45Z</time>
      </trkpt>
      <trkpt lat="39.6512530" lon="-3.8890260">
        <ele>761.3</ele>
        <time>2019-08-12T11:03:46Z</time>
      </trkpt>
      <trkpt lat="39.6512690" lon="-3.8890840">
        <ele>761.3</ele>
        <time>2019-08-12T11:03:47Z</time>
      </trkpt>
      <trkpt lat="39.6512840" lon="-3.8891410">
        <ele>761.4</ele>
        <time>2019-08-12T11:03:48Z</time>
      </trkpt>
      <trkpt lat="39.6513000" lon="-3.8891990">
        <ele>761.4</ele>
        <time>2019-08-12T11:03:49Z</time>
      </trkpt>
      <trkpt lat="39.6513160" lon="-3.8892550">
        <ele>761.4</ele>
        <time>2019-08-12T11:03:50Z</time>
      </trkpt>
      <trkpt lat="39.6513310" lon="-3.8893110">
        <ele>761.5</ele>
        <time>2019-08-12T11:03:51Z</time>
      </trkpt>
      <trkpt lat="39.6513470" lon="-3.8893670">
        <ele>761.7</ele>
        <time>2019-08-12T11:03:52Z</time>
      </trkpt>
      <trkpt lat="39.6513620" lon="-3.8894220">
        <ele>761.8</ele>
        <time>2019-08-12T11:03:53Z</time>
      </trkpt>
      <trkpt lat="39.6513770" lon="-3.8894760">
        <ele>761.9</ele>
        <time>2019-08-12T11:03:54Z</time>
      </trkpt>
      <trkpt lat="39.6513930" lon="-3.8895300">
        <ele>762.0</ele>
        <time>2019-08-12T11:03:55Z</time>
      </trkpt>
      <trkpt lat="39.6514080" lon="-3.8895840">
        <ele>762.1</ele>
        <time>2019-08-12T11:03:56Z</time>
      </trkpt>
      <trkpt lat="39.6514240" lon="-3.8896370">
        <ele>762.2</ele>
        <time>2019-08-12T11:03:57Z</time>
      </trkpt>
      <trkpt lat="39.6514390" lon="-3.8896900">
        <ele>762.3</ele>
        <time>2019-08-12T11:03:58Z</time>
      </trkpt>
      <trkpt lat="39.6514540" lon="-3.8897430">
        <ele>762.4</ele>
        <time>2019-08-12T11:03:59Z</time>
      </trkpt>
      <trkpt lat="39.6514700" lon="-3.8897960">
        <ele>762.5</ele>
        <time>2019-08-12T11:04:00Z</time>
      </trkpt>
      <trkpt lat="39.6514850" lon="-3.8898500">
        <ele>762.6</ele>
        <time>2019-08-12T11:04:01Z</time>
      </trkpt>
      <trkpt lat="39.6515000" lon="-3.8899040">
        <ele>762.7</ele>
        <time>2019-08-12T11:04:02Z</time>
      </trkpt>
      <trkpt lat="39.6515160" lon="-3.8899590">
        <ele>762.8</ele>
        <time>2019-08-12T11:04:03Z</time>
      </trkpt>
      <trkpt lat="39.6515310" lon="-3.8900140">
        <ele>762.9</ele>
        <time>2019-08-12T11:04:04Z</time>
      </trkpt>
      <trkpt lat="39.6515460" lon="-3.8900690">
        <ele>762.9</ele>
        <time>2019-08-12T11:04:05Z</time>
      </trkpt>
      <trkpt lat="39.6515610" lon="-3.8901250">
        <ele>763.0</ele>
        <time>2019-08-12T11:04:06Z</time>
      </trkpt>
      <trkpt lat="39.6515760" lon="-3.8901810">
        <ele>763.1</ele>
        <time>2019-08-12T11:04:07Z</time>
      </trkpt>
      <trkpt lat="39.6515920" lon="-3.8902380">
        <ele>763.1</ele>
        <time>2019-08-12T11:04:08Z</time>
      </trkpt>
      <trkpt lat="39.6516070" lon="-3.8902940">
        <ele>763.2</ele>
        <time>2019-08-12T11:04:09Z</time>
      </trkpt>
      <trkpt lat="39.6516220" lon="-3.8903510">
        <ele>763.3</ele>
        <time>2019-08-12T11:04:10Z</time>
      </trkpt>
      <trkpt lat="39.6516370" lon="-3.8904070">
        <ele>763.4</ele>
        <time>2019-08-12T11:04:11Z</time>
      </trkpt>
      <trkpt lat="39.6516520" lon="-3.8904640">
        <ele>763.5</ele>
        <time>2019-08-12T11:04:12Z</time>
      </trkpt>
      <trkpt lat="39.6516670" lon="-3.8905200">
        <ele>763.6</ele>
        <time>2019-08-12T11:04:13Z</time>
      </trkpt>
      <trkpt lat="39.6516830" lon="-3.8905770">
        <ele>763.6</ele>
        <time>2019-08-12T11:04:14Z</time>
      </trkpt>
      <trkpt lat="39.6516980" lon="-3.8906360">
        <ele>763.7</ele>
        <time>2019-08-12T11:04:15Z</time>
      </trkpt>
      <trkpt lat="39.6517140" lon="-3.8906950">
        <ele>763.7</ele>
        <time>2019-08-12T11:04:16Z</time>
      </trkpt>
      <trkpt lat="39.6517300" lon="-3.8907560">
        <ele>763.8</ele>
        <time>2019-08-12T11:04:17Z</time>
      </trkpt>
      <trkpt lat="39.6517460" lon="-3.8908170">
        <ele>763.8</ele>
        <time>2019-08-12T11:04:18Z</time>
      </trkpt>
      <trkpt lat="39.6517620" lon="-3.8908790">
        <ele>763.8</ele>
        <time>2019-08-12T11:04:19Z</time>
      </trkpt>
      <trkpt lat="39.6517780" lon="-3.8909400">
        <ele>763.9</ele>
        <time>2019-08-12T11:04:20Z</time>
      </trkpt>
      <trkpt lat="39.6517940" lon="-3.8910000">
        <ele>763.9</ele>
        <time>2019-08-12T11:04:21Z</time>
      </trkpt>
      <trkpt lat="39.6518100" lon="-3.8910590">
        <ele>763.9</ele>
        <time>2019-08-12T11:04:22Z</time>
      </trkpt>
      <trkpt lat="39.6518260" lon="-3.8911170">
        <ele>764.0</ele>
        <time>2019-08-12T11:04:23Z</time>
      </trkpt>
      <trkpt lat="39.6518410" lon="-3.8911770">
        <ele>764.0</ele>
        <time>2019-08-12T11:04:24Z</time>
      </trkpt>
      <trkpt lat="39.6518580" lon="-3.8912380">
        <ele>764.1</ele>
        <time>2019-08-12T11:04:25Z</time>
      </trkpt>
      <trkpt lat="39.6518740" lon="-3.8913000">
        <ele>764.2</ele>
        <time>2019-08-12T11:04:26Z</time>
      </trkpt>
      <trkpt lat="39.6518910" lon="-3.8913640">
        <ele>764.3</ele>
        <time>2019-08-12T11:04:27Z</time>
      </trkpt>
      <trkpt lat="39.6519080" lon="-3.8914290">
        <ele>764.4</ele>
        <time>2019-08-12T11:04:28Z</time>
      </trkpt>
      <trkpt lat="39.6519250" lon="-3.8914930">
        <ele>764.4</ele>
        <time>2019-08-12T11:04:29Z</time>
      </trkpt>
      <trkpt lat="39.6519420" lon="-3.8915570">
        <ele>764.5</ele>
        <time>2019-08-12T11:04:30Z</time>
      </trkpt>
      <trkpt lat="39.6519600" lon="-3.8916200">
        <ele>764.6</ele>
        <time>2019-08-12T11:04:31Z</time>
      </trkpt>
      <trkpt lat="39.6519780" lon="-3.8916830">
        <ele>764.7</ele>
        <time>2019-08-12T11:04:32Z</time>
      </trkpt>
      <trkpt lat="39.6519960" lon="-3.8917450">
        <ele>764.7</ele>
        <time>2019-08-12T11:04:33Z</time>
      </trkpt>
      <trkpt lat="39.6520130" lon="-3.8918070">
        <ele>764.7</ele>
        <time>2019-08-12T11:04:34Z</time>
      </trkpt>
      <trkpt lat="39.6520310" lon="-3.8918690">
        <ele>764.7</ele>
        <time>2019-08-12T11:04:35Z</time>
      </trkpt>
      <trkpt lat="39.6520490" lon="-3.8919310">
        <ele>764.7</ele>
        <time>2019-08-12T11:04:36Z</time>
      </trkpt>
      <trkpt lat="39.6520670" lon="-3.8919930">
        <ele>764.7</ele>
        <time>2019-08-12T11:04:37Z</time>
      </trkpt>
      <trkpt lat="39.6520850" lon="-3.8920550">
        <ele>764.7</ele>
        <time>2019-08-12T11:04:38Z</time>
      </trkpt>
      <trkpt lat="39.6521030" lon="-3.8921170">
        <ele>764.7</ele>
        <time>2019-08-12T11:04:39Z</time>
      </trkpt>
      <trkpt lat="39.6521210" lon="-3.8921800">
        <ele>764.7</ele>
        <time>2019-08-12T11:04:40Z</time>
      </trkpt>
      <trkpt lat="39.6521380" lon="-3.8922420">
        <ele>764.7</ele>
        <time>2019-08-12T11:04:41Z</time>
      </trkpt>
      <trkpt lat="39.6521560" lon="-3.8923060">
        <ele>764.7</ele>
        <time>2019-08-12T11:04:42Z</time>
      </trkpt>
      <trkpt lat="39.6521730" lon="-3.8923690">
        <ele>764.7</ele>
        <time>2019-08-12T11:04:43Z</time>
      </trkpt>
      <trkpt lat="39.6521910" lon="-3.8924330">
        <ele>764.7</ele>
        <time>2019-08-12T11:04:44Z</time>
      </trkpt>
      <trkpt lat="39.6522080" lon="-3.8924970">
        <ele>764.7</ele>
        <time>2019-08-12T11:04:45Z</time>
      </trkpt>
      <trkpt lat="39.6522250" lon="-3.8925610">
        <ele>764.7</ele>
        <time>2019-08-12T11:04:46Z</time>
      </trkpt>
      <trkpt lat="39.6522430" lon="-3.8926250">
        <ele>764.7</ele>
        <time>2019-08-12T11:04:47Z</time>
      </trkpt>
      <trkpt lat="39.6522600" lon="-3.8926890">
        <ele>764.7</ele>
        <time>2019-08-12T11:04:48Z</time>
      </trkpt>
      <trkpt lat="39.6522770" lon="-3.8927540">
        <ele>764.7</ele>
        <time>2019-08-12T11:04:49Z</time>
      </trkpt>
      <trkpt lat="39.6522950" lon="-3.8928180">
        <ele>764.7</ele>
        <time>2019-08-12T11:04:50Z</time>
      </trkpt>
      <trkpt lat="39.6523120" lon="-3.8928830">
        <ele>764.6</ele>
        <time>2019-08-12T11:04:51Z</time>
      </trkpt>
      <trkpt lat="39.6523300" lon="-3.8929480">
        <ele>764.6</ele>
        <time>2019-08-12T11:04:52Z</time>
      </trkpt>
      <trkpt lat="39.6523470" lon="-3.8930130">
        <ele>764.6</ele>
        <time>2019-08-12T11:04:53Z</time>
      </trkpt>
      <trkpt lat="39.6523650" lon="-3.8930780">
        <ele>764.5</ele>
        <time>2019-08-12T11:04:54Z</time>
      </trkpt>
      <trkpt lat="39.6523830" lon="-3.8931430">
        <ele>764.5</ele>
        <time>2019-08-12T11:04:55Z</time>
      </trkpt>
      <trkpt lat="39.6524010" lon="-3.8932080">
        <ele>764.5</ele>
        <time>2019-08-12T11:04:56Z</time>
      </trkpt>
      <trkpt lat="39.6524190" lon="-3.8932730">
        <ele>764.5</ele>
        <time>2019-08-12T11:04:57Z</time>
      </trkpt>
      <trkpt lat="39.6524370" lon="-3.8933380">
        <ele>764.5</ele>
        <time>2019-08-12T11:04:58Z</time>
      </trkpt>
      <trkpt lat="39.6524550" lon="-3.8934030">
        <ele>764.5</ele>
        <time>2019-08-12T11:04:59Z</time>
      </trkpt>
      <trkpt lat="39.6524730" lon="-3.8934680">
        <ele>764.5</ele>
        <time>2019-08-12T11:05:00Z</time>
      </trkpt>
      <trkpt lat="39.6524910" lon="-3.8935340">
        <ele>764.4</ele>
        <time>2019-08-12T11:05:01Z</time>
      </trkpt>
      <trkpt lat="39.6525090" lon="-3.8935990">
        <ele>764.4</ele>
        <time>2019-08-12T11:05:02Z</time>
      </trkpt>
      <trkpt lat="39.6525280" lon="-3.8936640">
        <ele>764.4</ele>
        <time>2019-08-12T11:05:03Z</time>
      </trkpt>
      <trkpt lat="39.6525460" lon="-3.8937290">
        <ele>764.3</ele>
        <time>2019-08-12T11:05:04Z</time>
      </trkpt>
      <trkpt lat="39.6525640" lon="-3.8937950">
        <ele>764.3</ele>
        <time>2019-08-12T11:05:05Z</time>
      </trkpt>
      <trkpt lat="39.6525820" lon="-3.8938600">
        <ele>764.3</ele>
        <time>2019-08-12T11:05:06Z</time>
      </trkpt>
      <trkpt lat="39.6526000" lon="-3.8939250">
        <ele>764.2</ele>
        <time>2019-08-12T11:05:07Z</time>
      </trkpt>
      <trkpt lat="39.6526170" lon="-3.8939910">
        <ele>764.2</ele>
        <time>2019-08-12T11:05:08Z</time>
      </trkpt>
      <trkpt lat="39.6526350" lon="-3.8940570">
        <ele>764.2</ele>
        <time>2019-08-12T11:05:09Z</time>
      </trkpt>
      <trkpt lat="39.6526520" lon="-3.8941220">
        <ele>764.1</ele>
        <time>2019-08-12T11:05:10Z</time>
      </trkpt>
      <trkpt lat="39.6526690" lon="-3.8941880">
        <ele>764.1</ele>
        <time>2019-08-12T11:05:11Z</time>
      </trkpt>
      <trkpt lat="39.6526860" lon="-3.8942540">
        <ele>764.1</ele>
        <time>2019-08-12T11:05:12Z</time>
      </trkpt>
      <trkpt lat="39.6527020" lon="-3.8943200">
        <ele>764.1</ele>
        <time>2019-08-12T11:05:13Z</time>
      </trkpt>
      <trkpt lat="39.6527180" lon="-3.8943860">
        <ele>764.2</ele>
        <time>2019-08-12T11:05:14Z</time>
      </trkpt>
      <trkpt lat="39.6527340" lon="-3.8944530">
        <ele>764.2</ele>
        <time>2019-08-12T11:05:15Z</time>
      </trkpt>
      <trkpt lat="39.6527500" lon="-3.8945190">
        <ele>764.2</ele>
        <time>2019-08-12T11:05:16Z</time>
      </trkpt>
      <trkpt lat="39.6527650" lon="-3.8945860">
        <ele>764.3</ele>
        <time>2019-08-12T11:05:17Z</time>
      </trkpt>
      <trkpt lat="39.6527800" lon="-3.8946520">
        <ele>764.3</ele>
        <time>2019-08-12T11:05:18Z</time>
      </trkpt>
      <trkpt lat="39.6527950" lon="-3.8947190">
        <ele>764.3</ele>
        <time>2019-08-12T11:05:19Z</time>
      </trkpt>
      <trkpt lat="39.6528090" lon="-3.8947850">
        <ele>764.4</ele>
        <time>2019-08-12T11:05:20Z</time>
      </trkpt>
      <trkpt lat="39.6528240" lon="-3.8948520">
        <ele>764.4</ele>
        <time>2019-08-12T11:05:21Z</time>
      </trkpt>
      <trkpt lat="39.6528380" lon="-3.8949180">
        <ele>764.5</ele>
        <time>2019-08-12T11:05:22Z</time>
      </trkpt>
      <trkpt lat="39.6528520" lon="-3.8949850">
        <ele>764.5</ele>
        <time>2019-08-12T11:05:23Z</time>
      </trkpt>
      <trkpt lat="39.6528660" lon="-3.8950510">
        <ele>764.5</ele>
        <time>2019-08-12T11:05:24Z</time>
      </trkpt>
      <trkpt lat="39.6528790" lon="-3.8951170">
        <ele>764.6</ele>
        <time>2019-08-12T11:05:25Z</time>
      </trkpt>
      <trkpt lat="39.6528930" lon="-3.8951830">
        <ele>764.7</ele>
        <time>2019-08-12T11:05:26Z</time>
      </trkpt>
      <trkpt lat="39.6529070" lon="-3.8952480">
        <ele>764.7</ele>
        <time>2019-08-12T11:05:27Z</time>
      </trkpt>
      <trkpt lat="39.6529200" lon="-3.8953140">
        <ele>764.8</ele>
        <time>2019-08-12T11:05:28Z</time>
      </trkpt>
      <trkpt lat="39.6529340" lon="-3.8953800">
        <ele>764.8</ele>
        <time>2019-08-12T11:05:29Z</time>
      </trkpt>
      <trkpt lat="39.6529470" lon="-3.8954460">
        <ele>764.8</ele>
        <time>2019-08-12T11:05:30Z</time>
      </trkpt>
      <trkpt lat="39.6529590" lon="-3.8955120">
        <ele>764.9</ele>
        <time>2019-08-12T11:05:31Z</time>
      </trkpt>
      <trkpt lat="39.6529720" lon="-3.8955780">
        <ele>764.9</ele>
        <time>2019-08-12T11:05:32Z</time>
      </trkpt>
      <trkpt lat="39.6529840" lon="-3.8956450">
        <ele>764.9</ele>
        <time>2019-08-12T11:05:33Z</time>
      </trkpt>
      <trkpt lat="39.6529960" lon="-3.8957120">
        <ele>764.9</ele>
        <time>2019-08-12T11:05:34Z</time>
      </trkpt>
      <trkpt lat="39.6530080" lon="-3.8957800">
        <ele>764.9</ele>
        <time>2019-08-12T11:05:35Z</time>
      </trkpt>
      <trkpt lat="39.6530200" lon="-3.8958470">
        <ele>764.9</ele>
        <time>2019-08-12T11:05:36Z</time>
      </trkpt>
      <trkpt lat="39.6530330" lon="-3.8959140">
        <ele>764.9</ele>
        <time>2019-08-12T11:05:37Z</time>
      </trkpt>
      <trkpt lat="39.6530460" lon="-3.8959810">
        <ele>764.9</ele>
        <time>2019-08-12T11:05:38Z</time>
      </trkpt>
      <trkpt lat="39.6530600" lon="-3.8960470">
        <ele>764.9</ele>
        <time>2019-08-12T11:05:39Z</time>
      </trkpt>
      <trkpt lat="39.6530750" lon="-3.8961130">
        <ele>764.8</ele>
        <time>2019-08-12T11:05:40Z</time>
      </trkpt>
      <trkpt lat="39.6530900" lon="-3.8961800">
        <ele>764.8</ele>
        <time>2019-08-12T11:05:41Z</time>
      </trkpt>
      <trkpt lat="39.6531050" lon="-3.8962480">
        <ele>764.7</ele>
        <time>2019-08-12T11:05:42Z</time>
      </trkpt>
      <trkpt lat="39.6531200" lon="-3.8963170">
        <ele>764.7</ele>
        <time>2019-08-12T11:05:43Z</time>
      </trkpt>
      <trkpt lat="39.6531340" lon="-3.8963880">
        <ele>764.6</ele>
        <time>2019-08-12T11:05:44Z</time>
      </trkpt>
      <trkpt lat="39.6531470" lon="-3.8964600">
        <ele>764.5</ele>
        <time>2019-08-12T11:05:45Z</time>
      </trkpt>
      <trkpt lat="39.6531610" lon="-3.8965320">
        <ele>764.5</ele>
        <time>2019-08-12T11:05:46Z</time>
      </trkpt>
      <trkpt lat="39.6531740" lon="-3.8966050">
        <ele>764.4</ele>
        <time>2019-08-12T11:05:47Z</time>
      </trkpt>
      <trkpt lat="39.6531880" lon="-3.8966750">
        <ele>764.4</ele>
        <time>2019-08-12T11:05:48Z</time>
      </trkpt>
      <trkpt lat="39.6532020" lon="-3.8967450">
        <ele>764.3</ele>
        <time>2019-08-12T11:05:49Z</time>
      </trkpt>
      <trkpt lat="39.6532160" lon="-3.8968130">
        <ele>764.3</ele>
        <time>2019-08-12T11:05:50Z</time>
      </trkpt>
      <trkpt lat="39.6532300" lon="-3.8968800">
        <ele>764.3</ele>
        <time>2019-08-12T11:05:51Z</time>
      </trkpt>
      <trkpt lat="39.6532450" lon="-3.8969470">
        <ele>764.3</ele>
        <time>2019-08-12T11:05:52Z</time>
      </trkpt>
      <trkpt lat="39.6532600" lon="-3.8970160">
        <ele>764.2</ele>
        <time>2019-08-12T11:05:53Z</time>
      </trkpt>
      <trkpt lat="39.6532740" lon="-3.8970850">
        <ele>764.2</ele>
        <time>2019-08-12T11:05:54Z</time>
      </trkpt>
      <trkpt lat="39.6532890" lon="-3.8971540">
        <ele>764.2</ele>
        <time>2019-08-12T11:05:55Z</time>
      </trkpt>
      <trkpt lat="39.6533040" lon="-3.8972240">
        <ele>764.1</ele>
        <time>2019-08-12T11:05:56Z</time>
      </trkpt>
      <trkpt lat="39.6533180" lon="-3.8972950">
        <ele>764.1</ele>
        <time>2019-08-12T11:05:57Z</time>
      </trkpt>
      <trkpt lat="39.6533330" lon="-3.8973660">
        <ele>764.1</ele>
        <time>2019-08-12T11:05:58Z</time>
      </trkpt>
      <trkpt lat="39.6533480" lon="-3.8974380">
        <ele>764.1</ele>
        <time>2019-08-12T11:05:59Z</time>
      </trkpt>
      <trkpt lat="39.6533630" lon="-3.8975090">
        <ele>764.1</ele>
        <time>2019-08-12T11:06:00Z</time>
      </trkpt>
      <trkpt lat="39.6533780" lon="-3.8975810">
        <ele>764.1</ele>
        <time>2019-08-12T11:06:01Z</time>
      </trkpt>
      <trkpt lat="39.6533920" lon="-3.8976520">
        <ele>764.1</ele>
        <time>2019-08-12T11:06:02Z</time>
      </trkpt>
      <trkpt lat="39.6534070" lon="-3.8977240">
        <ele>764.1</ele>
        <time>2019-08-12T11:06:03Z</time>
      </trkpt>
      <trkpt lat="39.6534220" lon="-3.8977950">
        <ele>764.1</ele>
        <time>2019-08-12T11:06:04Z</time>
      </trkpt>
      <trkpt lat="39.6534370" lon="-3.8978660">
        <ele>764.1</ele>
        <time>2019-08-12T11:06:05Z</time>
      </trkpt>
      <trkpt lat="39.6534530" lon="-3.8979380">
        <ele>764.1</ele>
        <time>2019-08-12T11:06:06Z</time>
      </trkpt>
      <trkpt lat="39.6534680" lon="-3.8980090">
        <ele>764.1</ele>
        <time>2019-08-12T11:06:07Z</time>
      </trkpt>
      <trkpt lat="39.6534830" lon="-3.8980790">
        <ele>764.0</ele>
        <time>2019-08-12T11:06:08Z</time>
      </trkpt>
      <trkpt lat="39.6534980" lon="-3.8981500">
        <ele>764.0</ele>
        <time>2019-08-12T11:06:09Z</time>
      </trkpt>
      <trkpt lat="39.6535130" lon="-3.8982200">
        <ele>764.0</ele>
        <time>2019-08-12T11:06:10Z</time>
      </trkpt>
      <trkpt lat="39.6535290" lon="-3.8982900">
        <ele>764.0</ele>
        <time>2019-08-12T11:06:11Z</time>
      </trkpt>
      <trkpt lat="39.6535440" lon="-3.8983600">
        <ele>763.9</ele>
        <time>2019-08-12T11:06:12Z</time>
      </trkpt>
      <trkpt lat="39.6535600" lon="-3.8984300">
        <ele>763.9</ele>
        <time>2019-08-12T11:06:13Z</time>
      </trkpt>
      <trkpt lat="39.6535760" lon="-3.8985000">
        <ele>763.9</ele>
        <time>2019-08-12T11:06:14Z</time>
      </trkpt>
      <trkpt lat="39.6535910" lon="-3.8985700">
        <ele>763.9</ele>
        <time>2019-08-12T11:06:15Z</time>
      </trkpt>
      <trkpt lat="39.6536070" lon="-3.8986400">
        <ele>763.9</ele>
        <time>2019-08-12T11:06:16Z</time>
      </trkpt>
      <trkpt lat="39.6536230" lon="-3.8987100">
        <ele>763.9</ele>
        <time>2019-08-12T11:06:17Z</time>
      </trkpt>
      <trkpt lat="39.6536390" lon="-3.8987810">
        <ele>763.9</ele>
        <time>2019-08-12T11:06:18Z</time>
      </trkpt>
      <trkpt lat="39.6536550" lon="-3.8988520">
        <ele>763.9</ele>
        <time>2019-08-12T11:06:19Z</time>
      </trkpt>
      <trkpt lat="39.6536720" lon="-3.8989230">
        <ele>763.9</ele>
        <time>2019-08-12T11:06:20Z</time>
      </trkpt>
      <trkpt lat="39.6536880" lon="-3.8989950">
        <ele>763.9</ele>
        <time>2019-08-12T11:06:21Z</time>
      </trkpt>
      <trkpt lat="39.6537040" lon="-3.8990670">
        <ele>763.9</ele>
        <time>2019-08-12T11:06:22Z</time>
      </trkpt>
      <trkpt lat="39.6537210" lon="-3.8991400">
        <ele>763.8</ele>
        <time>2019-08-12T11:06:23Z</time>
      </trkpt>
      <trkpt lat="39.6537380" lon="-3.8992130">
        <ele>763.8</ele>
        <time>2019-08-12T11:06:24Z</time>
      </trkpt>
      <trkpt lat="39.6537540" lon="-3.8992860">
        <ele>763.8</ele>
        <time>2019-08-12T11:06:25Z</time>
      </trkpt>
      <trkpt lat="39.6537710" lon="-3.8993600">
        <ele>763.7</ele>
        <time>2019-08-12T11:06:26Z</time>
      </trkpt>
      <trkpt lat="39.6537880" lon="-3.8994330">
        <ele>763.7</ele>
        <time>2019-08-12T11:06:27Z</time>
      </trkpt>
      <trkpt lat="39.6538050" lon="-3.8995060">
        <ele>763.7</ele>
        <time>2019-08-12T11:06:28Z</time>
      </trkpt>
      <trkpt lat="39.6538210" lon="-3.8995790">
        <ele>763.7</ele>
        <time>2019-08-12T11:06:29Z</time>
      </trkpt>
      <trkpt lat="39.6538380" lon="-3.8996520">
        <ele>763.6</ele>
        <time>2019-08-12T11:06:30Z</time>
      </trkpt>
      <trkpt lat="39.6538550" lon="-3.8997250">
        <ele>763.6</ele>
        <time>2019-08-12T11:06:31Z</time>
      </trkpt>
      <trkpt lat="39.6538720" lon="-3.8997970">
        <ele>763.5</ele>
        <time>2019-08-12T11:06:32Z</time>
      </trkpt>
      <trkpt lat="39.6538880" lon="-3.8998700">
        <ele>763.5</ele>
        <time>2019-08-12T11:06:33Z</time>
      </trkpt>
      <trkpt lat="39.6539050" lon="-3.8999430">
        <ele>763.4</ele>
        <time>2019-08-12T11:06:34Z</time>
      </trkpt>
      <trkpt lat="39.6539210" lon="-3.9000150">
        <ele>763.4</ele>
        <time>2019-08-12T11:06:35Z</time>
      </trkpt>
      <trkpt lat="39.6539380" lon="-3.9000880">
        <ele>763.4</ele>
        <time>2019-08-12T11:06:36Z</time>
      </trkpt>
      <trkpt lat="39.6539540" lon="-3.9001610">
        <ele>763.4</ele>
        <time>2019-08-12T11:06:37Z</time>
      </trkpt>
      <trkpt lat="39.6539700" lon="-3.9002350">
        <ele>763.3</ele>
        <time>2019-08-12T11:06:38Z</time>
      </trkpt>
      <trkpt lat="39.6539860" lon="-3.9003090">
        <ele>763.3</ele>
        <time>2019-08-12T11:06:39Z</time>
      </trkpt>
      <trkpt lat="39.6540020" lon="-3.9003830">
        <ele>763.3</ele>
        <time>2019-08-12T11:06:40Z</time>
      </trkpt>
      <trkpt lat="39.6540170" lon="-3.9004570">
        <ele>763.3</ele>
        <time>2019-08-12T11:06:41Z</time>
      </trkpt>
      <trkpt lat="39.6540330" lon="-3.9005320">
        <ele>763.3</ele>
        <time>2019-08-12T11:06:42Z</time>
      </trkpt>
      <trkpt lat="39.6540490" lon="-3.9006080">
        <ele>763.3</ele>
        <time>2019-08-12T11:06:43Z</time>
      </trkpt>
      <trkpt lat="39.6540640" lon="-3.9006830">
        <ele>763.2</ele>
        <time>2019-08-12T11:06:44Z</time>
      </trkpt>
      <trkpt lat="39.6540800" lon="-3.9007590">
        <ele>763.2</ele>
        <time>2019-08-12T11:06:45Z</time>
      </trkpt>
      <trkpt lat="39.6540950" lon="-3.9008350">
        <ele>763.2</ele>
        <time>2019-08-12T11:06:46Z</time>
      </trkpt>
      <trkpt lat="39.6541110" lon="-3.9009120">
        <ele>763.2</ele>
        <time>2019-08-12T11:06:47Z</time>
      </trkpt>
      <trkpt lat="39.6541260" lon="-3.9009880">
        <ele>763.2</ele>
        <time>2019-08-12T11:06:48Z</time>
      </trkpt>
      <trkpt lat="39.6541420" lon="-3.9010650">
        <ele>763.1</ele>
        <time>2019-08-12T11:06:49Z</time>
      </trkpt>
      <trkpt lat="39.6541580" lon="-3.9011430">
        <ele>763.1</ele>
        <time>2019-08-12T11:06:50Z</time>
      </trkpt>
      <trkpt lat="39.6541730" lon="-3.9012200">
        <ele>763.1</ele>
        <time>2019-08-12T11:06:51Z</time>
      </trkpt>
      <trkpt lat="39.6541890" lon="-3.9012980">
        <ele>763.1</ele>
        <time>2019-08-12T11:06:52Z</time>
      </trkpt>
      <trkpt lat="39.6542050" lon="-3.9013760">
        <ele>763.1</ele>
        <time>2019-08-12T11:06:53Z</time>
      </trkpt>
      <trkpt lat="39.6542210" lon="-3.9014540">
        <ele>763.1</ele>
        <time>2019-08-12T11:06:54Z</time>
      </trkpt>
      <trkpt lat="39.6542370" lon="-3.9015320">
        <ele>763.1</ele>
        <time>2019-08-12T11:06:55Z</time>
      </trkpt>
      <trkpt lat="39.6542540" lon="-3.9016110">
        <ele>763.1</ele>
        <time>2019-08-12T11:06:56Z</time>
      </trkpt>
      <trkpt lat="39.6542700" lon="-3.9016890">
        <ele>763.0</ele>
        <time>2019-08-12T11:06:57Z</time>
      </trkpt>
      <trkpt lat="39.6542860" lon="-3.9017680">
        <ele>763.0</ele>
        <time>2019-08-12T11:06:58Z</time>
      </trkpt>
      <trkpt lat="39.6543030" lon="-3.9018470">
        <ele>763.0</ele>
        <time>2019-08-12T11:06:59Z</time>
      </trkpt>
      <trkpt lat="39.6543190" lon="-3.9019260">
        <ele>763.0</ele>
        <time>2019-08-12T11:07:00Z</time>
      </trkpt>
      <trkpt lat="39.6543360" lon="-3.9020050">
        <ele>762.9</ele>
        <time>2019-08-12T11:07:01Z</time>
      </trkpt>
      <trkpt lat="39.6543530" lon="-3.9020840">
        <ele>762.9</ele>
        <time>2019-08-12T11:07:02Z</time>
      </trkpt>
      <trkpt lat="39.6543700" lon="-3.9021630">
        <ele>762.9</ele>
        <time>2019-08-12T11:07:03Z</time>
      </trkpt>
      <trkpt lat="39.6543870" lon="-3.9022430">
        <ele>762.8</ele>
        <time>2019-08-12T11:07:04Z</time>
      </trkpt>
      <trkpt lat="39.6544040" lon="-3.9023220">
        <ele>762.8</ele>
        <time>2019-08-12T11:07:05Z</time>
      </trkpt>
      <trkpt lat="39.6544210" lon="-3.9024020">
        <ele>762.7</ele>
        <time>2019-08-12T11:07:06Z</time>
      </trkpt>
      <trkpt lat="39.6544390" lon="-3.9024810">
        <ele>762.6</ele>
        <time>2019-08-12T11:07:07Z</time>
      </trkpt>
      <trkpt lat="39.6544560" lon="-3.9025610">
        <ele>762.6</ele>
        <time>2019-08-12T11:07:08Z</time>
      </trkpt>
      <trkpt lat="39.6544730" lon="-3.9026420">
        <ele>762.5</ele>
        <time>2019-08-12T11:07:09Z</time>
      </trkpt>
      <trkpt lat="39.6544910" lon="-3.9027230">
        <ele>762.5</ele>
        <time>2019-08-12T11:07:10Z</time>
      </trkpt>
      <trkpt lat="39.6545080" lon="-3.9028050">
        <ele>762.4</ele>
        <time>2019-08-12T11:07:11Z</time>
      </trkpt>
      <trkpt lat="39.6545250" lon="-3.9028870">
        <ele>762.3</ele>
        <time>2019-08-12T11:07:12Z</time>
      </trkpt>
      <trkpt lat="39.6545420" lon="-3.9029690">
        <ele>762.2</ele>
        <time>2019-08-12T11:07:13Z</time>
      </trkpt>
      <trkpt lat="39.6545580" lon="-3.9030510">
        <ele>762.1</ele>
        <time>2019-08-12T11:07:14Z</time>
      </trkpt>
      <trkpt lat="39.6545740" lon="-3.9031330">
        <ele>762.0</ele>
        <time>2019-08-12T11:07:15Z</time>
      </trkpt>
      <trkpt lat="39.6545890" lon="-3.9032140">
        <ele>761.9</ele>
        <time>2019-08-12T11:07:16Z</time>
      </trkpt>
      <trkpt lat="39.6546050" lon="-3.9032950">
        <ele>761.9</ele>
        <time>2019-08-12T11:07:17Z</time>
      </trkpt>
      <trkpt lat="39.6546200" lon="-3.9033760">
        <ele>761.8</ele>
        <time>2019-08-12T11:07:18Z</time>
      </trkpt>
      <trkpt lat="39.6546360" lon="-3.9034560">
        <ele>761.7</ele>
        <time>2019-08-12T11:07:19Z</time>
      </trkpt>
      <trkpt lat="39.6546520" lon="-3.9035360">
        <ele>761.7</ele>
        <time>2019-08-12T11:07:20Z</time>
      </trkpt>
      <trkpt lat="39.6546680" lon="-3.9036170">
        <ele>761.6</ele>
        <time>2019-08-12T11:07:21Z</time>
      </trkpt>
      <trkpt lat="39.6546850" lon="-3.9036970">
        <ele>761.6</ele>
        <time>2019-08-12T11:07:22Z</time>
      </trkpt>
      <trkpt lat="39.6547020" lon="-3.9037780">
        <ele>761.5</ele>
        <time>2019-08-12T11:07:23Z</time>
      </trkpt>
      <trkpt lat="39.6547190" lon="-3.9038580">
        <ele>761.4</ele>
        <time>2019-08-12T11:07:24Z</time>
      </trkpt>
      <trkpt lat="39.6547360" lon="-3.9039390">
        <ele>761.3</ele>
        <time>2019-08-12T11:07:25Z</time>
      </trkpt>
      <trkpt lat="39.6547540" lon="-3.9040210">
        <ele>761.1</ele>
        <time>2019-08-12T11:07:26Z</time>
      </trkpt>
      <trkpt lat="39.6547720" lon="-3.9041020">
        <ele>761.0</ele>
        <time>2019-08-12T11:07:27Z</time>
      </trkpt>
      <trkpt lat="39.6547890" lon="-3.9041840">
        <ele>760.8</ele>
        <time>2019-08-12T11:07:28Z</time>
      </trkpt>
      <trkpt lat="39.6548070" lon="-3.9042660">
        <ele>760.7</ele>
        <time>2019-08-12T11:07:29Z</time>
      </trkpt>
      <trkpt lat="39.6548250" lon="-3.9043480">
        <ele>760.6</ele>
        <time>2019-08-12T11:07:30Z</time>
      </trkpt>
      <trkpt lat="39.6548430" lon="-3.9044310">
        <ele>760.6</ele>
        <time>2019-08-12T11:07:31Z</time>
      </trkpt>
      <trkpt lat="39.6548610" lon="-3.9045140">
        <ele>760.5</ele>
        <time>2019-08-12T11:07:32Z</time>
      </trkpt>
      <trkpt lat="39.6548790" lon="-3.9045980">
        <ele>760.4</ele>
        <time>2019-08-12T11:07:33Z</time>
      </trkpt>
      <trkpt lat="39.6548970" lon="-3.9046820">
        <ele>760.4</ele>
        <time>2019-08-12T11:07:34Z</time>
      </trkpt>
      <trkpt lat="39.6549150" lon="-3.9047650">
        <ele>760.3</ele>
        <time>2019-08-12T11:07:35Z</time>
      </trkpt>
      <trkpt lat="39.6549320" lon="-3.9048490">
        <ele>760.2</ele>
        <time>2019-08-12T11:07:36Z</time>
      </trkpt>
      <trkpt lat="39.6549490" lon="-3.9049310">
        <ele>760.1</ele>
        <time>2019-08-12T11:07:37Z</time>
      </trkpt>
      <trkpt lat="39.6549650" lon="-3.9050130">
        <ele>760.0</ele>
        <time>2019-08-12T11:07:38Z</time>
      </trkpt>
      <trkpt lat="39.6549810" lon="-3.9050930">
        <ele>759.9</ele>
        <time>2019-08-12T11:07:39Z</time>
      </trkpt>
      <trkpt lat="39.6549960" lon="-3.9051720">
        <ele>759.8</ele>
        <time>2019-08-12T11:07:40Z</time>
      </trkpt>
      <trkpt lat="39.6550120" lon="-3.9052510">
        <ele>759.6</ele>
        <time>2019-08-12T11:07:41Z</time>
      </trkpt>
      <trkpt lat="39.6550270" lon="-3.9053300">
        <ele>759.5</ele>
        <time>2019-08-12T11:07:42Z</time>
      </trkpt>
      <trkpt lat="39.6550420" lon="-3.9054080">
        <ele>759.4</ele>
        <time>2019-08-12T11:07:43Z</time>
      </trkpt>
      <trkpt lat="39.6550570" lon="-3.9054870">
        <ele>759.3</ele>
        <time>2019-08-12T11:07:44Z</time>
      </trkpt>
      <trkpt lat="39.6550720" lon="-3.9055670">
        <ele>759.2</ele>
        <time>2019-08-12T11:07:45Z</time>
      </trkpt>
      <trkpt lat="39.6550870" lon="-3.9056460">
        <ele>759.1</ele>
        <time>2019-08-12T11:07:46Z</time>
      </trkpt>
      <trkpt lat="39.6551020" lon="-3.9057250">
        <ele>759.1</ele>
        <time>2019-08-12T11:07:47Z</time>
      </trkpt>
      <trkpt lat="39.6551170" lon="-3.9058050">
        <ele>759.0</ele>
        <time>2019-08-12T11:07:48Z</time>
      </trkpt>
      <trkpt lat="39.6551330" lon="-3.9058850">
        <ele>758.9</ele>
        <time>2019-08-12T11:07:49Z</time>
      </trkpt>
      <trkpt lat="39.6551480" lon="-3.9059640">
        <ele>758.9</ele>
        <time>2019-08-12T11:07:50Z</time>
      </trkpt>
      <trkpt lat="39.6551630" lon="-3.9060430">
        <ele>758.8</ele>
        <time>2019-08-12T11:07:51Z</time>
      </trkpt>
      <trkpt lat="39.6551790" lon="-3.9061220">
        <ele>758.8</ele>
        <time>2019-08-12T11:07:52Z</time>
      </trkpt>
      <trkpt lat="39.6551940" lon="-3.9062010">
        <ele>758.7</ele>
        <time>2019-08-12T11:07:53Z</time>
      </trkpt>
      <trkpt lat="39.6552100" lon="-3.9062800">
        <ele>758.7</ele>
        <time>2019-08-12T11:07:54Z</time>
      </trkpt>
      <trkpt lat="39.6552260" lon="-3.9063590">
        <ele>758.6</ele>
        <time>2019-08-12T11:07:55Z</time>
      </trkpt>
      <trkpt lat="39.6552410" lon="-3.9064370">
        <ele>758.6</ele>
        <time>2019-08-12T11:07:56Z</time>
      </trkpt>
      <trkpt lat="39.6552570" lon="-3.9065150">
        <ele>758.6</ele>
        <time>2019-08-12T11:07:57Z</time>
      </trkpt>
      <trkpt lat="39.6552730" lon="-3.9065930">
        <ele>758.6</ele>
        <time>2019-08-12T11:07:58Z</time>
      </trkpt>
      <trkpt lat="39.6552890" lon="-3.9066710">
        <ele>758.6</ele>
        <time>2019-08-12T11:07:59Z</time>
      </trkpt>
      <trkpt lat="39.6553050" lon="-3.9067490">
        <ele>758.6</ele>
        <time>2019-08-12T11:08:00Z</time>
      </trkpt>
      <trkpt lat="39.6553210" lon="-3.9068270">
        <ele>758.6</ele>
        <time>2019-08-12T11:08:01Z</time>
      </trkpt>
      <trkpt lat="39.6553370" lon="-3.9069050">
        <ele>758.6</ele>
        <time>2019-08-12T11:08:02Z</time>
      </trkpt>
      <trkpt lat="39.6553530" lon="-3.9069830">
        <ele>758.6</ele>
        <time>2019-08-12T11:08:03Z</time>
      </trkpt>
      <trkpt lat="39.6553690" lon="-3.9070610">
        <ele>758.6</ele>
        <time>2019-08-12T11:08:04Z</time>
      </trkpt>
      <trkpt lat="39.6553850" lon="-3.9071390">
        <ele>758.6</ele>
        <time>2019-08-12T11:08:05Z</time>
      </trkpt>
      <trkpt lat="39.6554010" lon="-3.9072180">
        <ele>758.6</ele>
        <time>2019-08-12T11:08:06Z</time>
      </trkpt>
      <trkpt lat="39.6554170" lon="-3.9072960">
        <ele>758.6</ele>
        <time>2019-08-12T11:08:07Z</time>
      </trkpt>
      <trkpt lat="39.6554320" lon="-3.9073750">
        <ele>758.6</ele>
        <time>2019-08-12T11:08:08Z</time>
      </trkpt>
      <trkpt lat="39.6554480" lon="-3.9074540">
        <ele>758.5</ele>
        <time>2019-08-12T11:08:09Z</time>
      </trkpt>
      <trkpt lat="39.6554630" lon="-3.9075320">
        <ele>758.5</ele>
        <time>2019-08-12T11:08:10Z</time>
      </trkpt>
      <trkpt lat="39.6554790" lon="-3.9076100">
        <ele>758.5</ele>
        <time>2019-08-12T11:08:11Z</time>
      </trkpt>
      <trkpt lat="39.6554950" lon="-3.9076880">
        <ele>758.5</ele>
        <time>2019-08-12T11:08:12Z</time>
      </trkpt>
      <trkpt lat="39.6555110" lon="-3.9077650">
        <ele>758.4</ele>
        <time>2019-08-12T11:08:13Z</time>
      </trkpt>
      <trkpt lat="39.6555270" lon="-3.9078430">
        <ele>758.4</ele>
        <time>2019-08-12T11:08:14Z</time>
      </trkpt>
      <trkpt lat="39.6555430" lon="-3.9079200">
        <ele>758.4</ele>
        <time>2019-08-12T11:08:15Z</time>
      </trkpt>
      <trkpt lat="39.6555590" lon="-3.9079980">
        <ele>758.4</ele>
        <time>2019-08-12T11:08:16Z</time>
      </trkpt>
      <trkpt lat="39.6555740" lon="-3.9080760">
        <ele>758.4</ele>
        <time>2019-08-12T11:08:17Z</time>
      </trkpt>
      <trkpt lat="39.6555900" lon="-3.9081550">
        <ele>758.4</ele>
        <time>2019-08-12T11:08:18Z</time>
      </trkpt>
      <trkpt lat="39.6556050" lon="-3.9082340">
        <ele>758.4</ele>
        <time>2019-08-12T11:08:19Z</time>
      </trkpt>
      <trkpt lat="39.6556210" lon="-3.9083140">
        <ele>758.4</ele>
        <time>2019-08-12T11:08:20Z</time>
      </trkpt>
      <trkpt lat="39.6556360" lon="-3.9083940">
        <ele>758.4</ele>
        <time>2019-08-12T11:08:21Z</time>
      </trkpt>
      <trkpt lat="39.6556510" lon="-3.9084750">
        <ele>758.4</ele>
        <time>2019-08-12T11:08:22Z</time>
      </trkpt>
      <trkpt lat="39.6556660" lon="-3.9085560">
        <ele>758.4</ele>
        <time>2019-08-12T11:08:23Z</time>
      </trkpt>
      <trkpt lat="39.6556810" lon="-3.9086370">
        <ele>758.4</ele>
        <time>2019-08-12T11:08:24Z</time>
      </trkpt>
      <trkpt lat="39.6556970" lon="-3.9087180">
        <ele>758.4</ele>
        <time>2019-08-12T11:08:25Z</time>
      </trkpt>
      <trkpt lat="39.6557130" lon="-3.9087990">
        <ele>758.4</ele>
        <time>2019-08-12T11:08:26Z</time>
      </trkpt>
      <trkpt lat="39.6557290" lon="-3.9088790">
        <ele>758.5</ele>
        <time>2019-08-12T11:08:27Z</time>
      </trkpt>
      <trkpt lat="39.6557460" lon="-3.9089600">
        <ele>758.5</ele>
        <time>2019-08-12T11:08:28Z</time>
      </trkpt>
      <trkpt lat="39.6557630" lon="-3.9090390">
        <ele>758.5</ele>
        <time>2019-08-12T11:08:29Z</time>
      </trkpt>
      <trkpt lat="39.6557810" lon="-3.9091180">
        <ele>758.6</ele>
        <time>2019-08-12T11:08:30Z</time>
      </trkpt>
      <trkpt lat="39.6557980" lon="-3.9091970">
        <ele>758.6</ele>
        <time>2019-08-12T11:08:31Z</time>
      </trkpt>
      <trkpt lat="39.6558160" lon="-3.9092750">
        <ele>758.6</ele>
        <time>2019-08-12T11:08:32Z</time>
      </trkpt>
      <trkpt lat="39.6558330" lon="-3.9093530">
        <ele>758.6</ele>
        <time>2019-08-12T11:08:33Z</time>
      </trkpt>
      <trkpt lat="39.6558500" lon="-3.9094300">
        <ele>758.6</ele>
        <time>2019-08-12T11:08:34Z</time>
      </trkpt>
      <trkpt lat="39.6558660" lon="-3.9095060">
        <ele>758.6</ele>
        <time>2019-08-12T11:08:35Z</time>
      </trkpt>
      <trkpt lat="39.6558810" lon="-3.9095810">
        <ele>758.6</ele>
        <time>2019-08-12T11:08:36Z</time>
      </trkpt>
      <trkpt lat="39.6558970" lon="-3.9096550">
        <ele>758.7</ele>
        <time>2019-08-12T11:08:37Z</time>
      </trkpt>
      <trkpt lat="39.6559120" lon="-3.9097270">
        <ele>758.7</ele>
        <time>2019-08-12T11:08:38Z</time>
      </trkpt>
      <trkpt lat="39.6559280" lon="-3.9097990">
        <ele>758.8</ele>
        <time>2019-08-12T11:08:39Z</time>
      </trkpt>
      <trkpt lat="39.6559430" lon="-3.9098690">
        <ele>758.8</ele>
        <time>2019-08-12T11:08:40Z</time>
      </trkpt>
      <trkpt lat="39.6559590" lon="-3.9099370">
        <ele>758.9</ele>
        <time>2019-08-12T11:08:41Z</time>
      </trkpt>
      <trkpt lat="39.6559740" lon="-3.9100050">
        <ele>758.9</ele>
        <time>2019-08-12T11:08:42Z</time>
      </trkpt>
      <trkpt lat="39.6559900" lon="-3.9100720">
        <ele>759.0</ele>
        <time>2019-08-12T11:08:43Z</time>
      </trkpt>
      <trkpt lat="39.6560050" lon="-3.9101380">
        <ele>759.1</ele>
        <time>2019-08-12T11:08:44Z</time>
      </trkpt>
      <trkpt lat="39.6560210" lon="-3.9102020">
        <ele>759.2</ele>
        <time>2019-08-12T11:08:45Z</time>
      </trkpt>
      <trkpt lat="39.6560360" lon="-3.9102670">
        <ele>759.3</ele>
        <time>2019-08-12T11:08:46Z</time>
      </trkpt>
      <trkpt lat="39.6560510" lon="-3.9103300">
        <ele>759.5</ele>
        <time>2019-08-12T11:08:47Z</time>
      </trkpt>
      <trkpt lat="39.6560670" lon="-3.9103930">
        <ele>759.8</ele>
        <time>2019-08-12T11:08:48Z</time>
      </trkpt>
      <trkpt lat="39.6560820" lon="-3.9104560">
        <ele>760.0</ele>
        <time>2019-08-12T11:08:49Z</time>
      </trkpt>
      <trkpt lat="39.6560970" lon="-3.9105180">
        <ele>760.3</ele>
        <time>2019-08-12T11:08:50Z</time>
      </trkpt>
      <trkpt lat="39.6561110" lon="-3.9105800">
        <ele>760.5</ele>
        <time>2019-08-12T11:08:51Z</time>
      </trkpt>
      <trkpt lat="39.6561260" lon="-3.9106420">
        <ele>760.8</ele>
        <time>2019-08-12T11:08:52Z</time>
      </trkpt>
      <trkpt lat="39.6561400" lon="-3.9107040">
        <ele>761.0</ele>
        <time>2019-08-12T11:08:53Z</time>
      </trkpt>
      <trkpt lat="39.6561550" lon="-3.9107650">
        <ele>761.2</ele>
        <time>2019-08-12T11:08:54Z</time>
      </trkpt>
      <trkpt lat="39.6561690" lon="-3.9108270">
        <ele>761.5</ele>
        <time>2019-08-12T11:08:55Z</time>
      </trkpt>
      <trkpt lat="39.6561820" lon="-3.9108890">
        <ele>761.7</ele>
        <time>2019-08-12T11:08:56Z</time>
      </trkpt>
      <trkpt lat="39.6561960" lon="-3.9109510">
        <ele>761.9</ele>
        <time>2019-08-12T11:08:57Z</time>
      </trkpt>
      <trkpt lat="39.6562090" lon="-3.9110130">
        <ele>762.1</ele>
        <time>2019-08-12T11:08:58Z</time>
      </trkpt>
      <trkpt lat="39.6562220" lon="-3.9110750">
        <ele>762.3</ele>
        <time>2019-08-12T11:08:59Z</time>
      </trkpt>
      <trkpt lat="39.6562350" lon="-3.9111370">
        <ele>762.5</ele>
        <time>2019-08-12T11:09:00Z</time>
      </trkpt>
      <trkpt lat="39.6562480" lon="-3.9111980">
        <ele>762.7</ele>
        <time>2019-08-12T11:09:01Z</time>
      </trkpt>
      <trkpt lat="39.6562600" lon="-3.9112580">
        <ele>762.8</ele>
        <time>2019-08-12T11:09:02Z</time>
      </trkpt>
      <trkpt lat="39.6562730" lon="-3.9113180">
        <ele>763.0</ele>
        <time>2019-08-12T11:09:03Z</time>
      </trkpt>
      <trkpt lat="39.6562850" lon="-3.9113770">
        <ele>763.1</ele>
        <time>2019-08-12T11:09:04Z</time>
      </trkpt>
      <trkpt lat="39.6562960" lon="-3.9114370">
        <ele>763.3</ele>
        <time>2019-08-12T11:09:05Z</time>
      </trkpt>
      <trkpt lat="39.6563080" lon="-3.9114960">
        <ele>763.5</ele>
        <time>2019-08-12T11:09:06Z</time>
      </trkpt>
      <trkpt lat="39.6563190" lon="-3.9115550">
        <ele>763.7</ele>
        <time>2019-08-12T11:09:07Z</time>
      </trkpt>
      <trkpt lat="39.6563300" lon="-3.9116150">
        <ele>763.9</ele>
        <time>2019-08-12T11:09:08Z</time>
      </trkpt>
      <trkpt lat="39.6563400" lon="-3.9116740">
        <ele>764.0</ele>
        <time>2019-08-12T11:09:09Z</time>
      </trkpt>
      <trkpt lat="39.6563510" lon="-3.9117330">
        <ele>764.1</ele>
        <time>2019-08-12T11:09:10Z</time>
      </trkpt>
      <trkpt lat="39.6563620" lon="-3.9117910">
        <ele>764.2</ele>
        <time>2019-08-12T11:09:11Z</time>
      </trkpt>
      <trkpt lat="39.6563730" lon="-3.9118490">
        <ele>764.3</ele>
        <time>2019-08-12T11:09:12Z</time>
      </trkpt>
      <trkpt lat="39.6563840" lon="-3.9119060">
        <ele>764.5</ele>
        <time>2019-08-12T11:09:13Z</time>
      </trkpt>
      <trkpt lat="39.6563960" lon="-3.9119620">
        <ele>764.6</ele>
        <time>2019-08-12T11:09:14Z</time>
      </trkpt>
      <trkpt lat="39.6564080" lon="-3.9120170">
        <ele>764.8</ele>
        <time>2019-08-12T11:09:15Z</time>
      </trkpt>
      <trkpt lat="39.6564200" lon="-3.9120710">
        <ele>764.9</ele>
        <time>2019-08-12T11:09:16Z</time>
      </trkpt>
      <trkpt lat="39.6564320" lon="-3.9121250">
        <ele>765.1</ele>
        <time>2019-08-12T11:09:17Z</time>
      </trkpt>
      <trkpt lat="39.6564440" lon="-3.9121780">
        <ele>765.3</ele>
        <time>2019-08-12T11:09:18Z</time>
      </trkpt>
      <trkpt lat="39.6564560" lon="-3.9122300">
        <ele>765.4</ele>
        <time>2019-08-12T11:09:19Z</time>
      </trkpt>
      <trkpt lat="39.6564680" lon="-3.9122830">
        <ele>765.6</ele>
        <time>2019-08-12T11:09:20Z</time>
      </trkpt>
      <trkpt lat="39.6564790" lon="-3.9123350">
        <ele>765.7</ele>
        <time>2019-08-12T11:09:21Z</time>
      </trkpt>
      <trkpt lat="39.6564910" lon="-3.9123870">
        <ele>765.9</ele>
        <time>2019-08-12T11:09:22Z</time>
      </trkpt>
      <trkpt lat="39.6565020" lon="-3.9124390">
        <ele>766.1</ele>
        <time>2019-08-12T11:09:23Z</time>
      </trkpt>
      <trkpt lat="39.6565140" lon="-3.9124920">
        <ele>766.2</ele>
        <time>2019-08-12T11:09:24Z</time>
      </trkpt>
      <trkpt lat="39.6565260" lon="-3.9125450">
        <ele>766.4</ele>
        <time>2019-08-12T11:09:25Z</time>
      </trkpt>
      <trkpt lat="39.6565380" lon="-3.9125990">
        <ele>766.5</ele>
        <time>2019-08-12T11:09:26Z</time>
      </trkpt>
      <trkpt lat="39.6565510" lon="-3.9126530">
        <ele>766.7</ele>
        <time>2019-08-12T11:09:27Z</time>
      </trkpt>
      <trkpt lat="39.6565630" lon="-3.9127080">
        <ele>766.8</ele>
        <time>2019-08-12T11:09:28Z</time>
      </trkpt>
      <trkpt lat="39.6565750" lon="-3.9127640">
        <ele>767.0</ele>
        <time>2019-08-12T11:09:29Z</time>
      </trkpt>
      <trkpt lat="39.6565860" lon="-3.9128200">
        <ele>767.1</ele>
        <time>2019-08-12T11:09:30Z</time>
      </trkpt>
      <trkpt lat="39.6565970" lon="-3.9128780">
        <ele>767.3</ele>
        <time>2019-08-12T11:09:31Z</time>
      </trkpt>
      <trkpt lat="39.6566080" lon="-3.9129360">
        <ele>767.4</ele>
        <time>2019-08-12T11:09:32Z</time>
      </trkpt>
      <trkpt lat="39.6566170" lon="-3.9129950">
        <ele>767.6</ele>
        <time>2019-08-12T11:09:33Z</time>
      </trkpt>
      <trkpt lat="39.6566270" lon="-3.9130550">
        <ele>767.9</ele>
        <time>2019-08-12T11:09:34Z</time>
      </trkpt>
      <trkpt lat="39.6566370" lon="-3.9131150">
        <ele>768.1</ele>
        <time>2019-08-12T11:09:35Z</time>
      </trkpt>
      <trkpt lat="39.6566470" lon="-3.9131740">
        <ele>768.3</ele>
        <time>2019-08-12T11:09:36Z</time>
      </trkpt>
      <trkpt lat="39.6566580" lon="-3.9132320">
        <ele>768.5</ele>
        <time>2019-08-12T11:09:37Z</time>
      </trkpt>
      <trkpt lat="39.6566700" lon="-3.9132880">
        <ele>768.6</ele>
        <time>2019-08-12T11:09:38Z</time>
      </trkpt>
      <trkpt lat="39.6566840" lon="-3.9133440">
        <ele>768.8</ele>
        <time>2019-08-12T11:09:39Z</time>
      </trkpt>
      <trkpt lat="39.6566970" lon="-3.9133990">
        <ele>769.0</ele>
        <time>2019-08-12T11:09:40Z</time>
      </trkpt>
      <trkpt lat="39.6567110" lon="-3.9134540">
        <ele>769.1</ele>
        <time>2019-08-12T11:09:41Z</time>
      </trkpt>
      <trkpt lat="39.6567240" lon="-3.9135100">
        <ele>769.2</ele>
        <time>2019-08-12T11:09:42Z</time>
      </trkpt>
      <trkpt lat="39.6567370" lon="-3.9135670">
        <ele>769.3</ele>
        <time>2019-08-12T11:09:43Z</time>
      </trkpt>
      <trkpt lat="39.6567500" lon="-3.9136240">
        <ele>769.4</ele>
        <time>2019-08-12T11:09:44Z</time>
      </trkpt>
      <trkpt lat="39.6567620" lon="-3.9136820">
        <ele>769.5</ele>
        <time>2019-08-12T11:09:45Z</time>
      </trkpt>
      <trkpt lat="39.6567750" lon="-3.9137390">
        <ele>769.5</ele>
        <time>2019-08-12T11:09:46Z</time>
      </trkpt>
      <trkpt lat="39.6567870" lon="-3.9137980">
        <ele>769.6</ele>
        <time>2019-08-12T11:09:47Z</time>
      </trkpt>
      <trkpt lat="39.6568000" lon="-3.9138560">
        <ele>769.6</ele>
        <time>2019-08-12T11:09:48Z</time>
      </trkpt>
      <trkpt lat="39.6568120" lon="-3.9139140">
        <ele>769.7</ele>
        <time>2019-08-12T11:09:49Z</time>
      </trkpt>
      <trkpt lat="39.6568250" lon="-3.9139710">
        <ele>769.7</ele>
        <time>2019-08-12T11:09:50Z</time>
      </trkpt>
      <trkpt lat="39.6568370" lon="-3.9140290">
        <ele>769.7</ele>
        <time>2019-08-12T11:09:51Z</time>
      </trkpt>
      <trkpt lat="39.6568510" lon="-3.9140860">
        <ele>769.8</ele>
        <time>2019-08-12T11:09:52Z</time>
      </trkpt>
      <trkpt lat="39.6568640" lon="-3.9141430">
        <ele>769.8</ele>
        <time>2019-08-12T11:09:53Z</time>
      </trkpt>
      <trkpt lat="39.6568770" lon="-3.9142010">
        <ele>769.8</ele>
        <time>2019-08-12T11:09:54Z</time>
      </trkpt>
      <trkpt lat="39.6568900" lon="-3.9142580">
        <ele>769.9</ele>
        <time>2019-08-12T11:09:55Z</time>
      </trkpt>
      <trkpt lat="39.6569030" lon="-3.9143160">
        <ele>769.9</ele>
        <time>2019-08-12T11:09:56Z</time>
      </trkpt>
      <trkpt lat="39.6569160" lon="-3.9143740">
        <ele>770.0</ele>
        <time>2019-08-12T11:09:57Z</time>
      </trkpt>
      <trkpt lat="39.6569290" lon="-3.9144320">
        <ele>770.0</ele>
        <time>2019-08-12T11:09:58Z</time>
      </trkpt>
      <trkpt lat="39.6569410" lon="-3.9144910">
        <ele>770.1</ele>
        <time>2019-08-12T11:09:59Z</time>
      </trkpt>
      <trkpt lat="39.6569530" lon="-3.9145510">
        <ele>770.2</ele>
        <time>2019-08-12T11:10:00Z</time>
      </trkpt>
      <trkpt lat="39.6569650" lon="-3.9146120">
        <ele>770.3</ele>
        <time>2019-08-12T11:10:01Z</time>
      </trkpt>
      <trkpt lat="39.6569760" lon="-3.9146740">
        <ele>770.4</ele>
        <time>2019-08-12T11:10:02Z</time>
      </trkpt>
      <trkpt lat="39.6569870" lon="-3.9147360">
        <ele>770.6</ele>
        <time>2019-08-12T11:10:03Z</time>
      </trkpt>
      <trkpt lat="39.6569970" lon="-3.9147980">
        <ele>770.8</ele>
        <time>2019-08-12T11:10:04Z</time>
      </trkpt>
      <trkpt lat="39.6570070" lon="-3.9148600">
        <ele>771.0</ele>
        <time>2019-08-12T11:10:05Z</time>
      </trkpt>
      <trkpt lat="39.6570180" lon="-3.9149230">
        <ele>771.2</ele>
        <time>2019-08-12T11:10:06Z</time>
      </trkpt>
      <trkpt lat="39.6570280" lon="-3.9149850">
        <ele>771.4</ele>
        <time>2019-08-12T11:10:07Z</time>
      </trkpt>
      <trkpt lat="39.6570380" lon="-3.9150480">
        <ele>771.6</ele>
        <time>2019-08-12T11:10:08Z</time>
      </trkpt>
      <trkpt lat="39.6570490" lon="-3.9151100">
        <ele>771.8</ele>
        <time>2019-08-12T11:10:09Z</time>
      </trkpt>
      <trkpt lat="39.6570600" lon="-3.9151730">
        <ele>772.0</ele>
        <time>2019-08-12T11:10:10Z</time>
      </trkpt>
      <trkpt lat="39.6570720" lon="-3.9152350">
        <ele>772.2</ele>
        <time>2019-08-12T11:10:11Z</time>
      </trkpt>
      <trkpt lat="39.6570840" lon="-3.9152980">
        <ele>772.3</ele>
        <time>2019-08-12T11:10:12Z</time>
      </trkpt>
      <trkpt lat="39.6570970" lon="-3.9153610">
        <ele>772.4</ele>
        <time>2019-08-12T11:10:13Z</time>
      </trkpt>
      <trkpt lat="39.6571090" lon="-3.9154240">
        <ele>772.5</ele>
        <time>2019-08-12T11:10:14Z</time>
      </trkpt>
      <trkpt lat="39.6571220" lon="-3.9154870">
        <ele>772.6</ele>
        <time>2019-08-12T11:10:15Z</time>
      </trkpt>
      <trkpt lat="39.6571350" lon="-3.9155500">
        <ele>772.7</ele>
        <time>2019-08-12T11:10:16Z</time>
      </trkpt>
      <trkpt lat="39.6571480" lon="-3.9156140">
        <ele>772.8</ele>
        <time>2019-08-12T11:10:17Z</time>
      </trkpt>
      <trkpt lat="39.6571620" lon="-3.9156780">
        <ele>772.9</ele>
        <time>2019-08-12T11:10:18Z</time>
      </trkpt>
      <trkpt lat="39.6571750" lon="-3.9157430">
        <ele>773.0</ele>
        <time>2019-08-12T11:10:19Z</time>
      </trkpt>
      <trkpt lat="39.6571880" lon="-3.9158080">
        <ele>773.1</ele>
        <time>2019-08-12T11:10:20Z</time>
      </trkpt>
      <trkpt lat="39.6572010" lon="-3.9158730">
        <ele>773.1</ele>
        <time>2019-08-12T11:10:21Z</time>
      </trkpt>
      <trkpt lat="39.6572140" lon="-3.9159380">
        <ele>773.2</ele>
        <time>2019-08-12T11:10:22Z</time>
      </trkpt>
      <trkpt lat="39.6572270" lon="-3.9160030">
        <ele>773.3</ele>
        <time>2019-08-12T11:10:23Z</time>
      </trkpt>
      <trkpt lat="39.6572400" lon="-3.9160680">
        <ele>773.4</ele>
        <time>2019-08-12T11:10:24Z</time>
      </trkpt>
      <trkpt lat="39.6572530" lon="-3.9161320">
        <ele>773.5</ele>
        <time>2019-08-12T11:10:25Z</time>
      </trkpt>
      <trkpt lat="39.6572670" lon="-3.9161970">
        <ele>773.6</ele>
        <time>2019-08-12T11:10:26Z</time>
      </trkpt>
      <trkpt lat="39.6572800" lon="-3.9162610">
        <ele>773.7</ele>
        <time>2019-08-12T11:10:27Z</time>
      </trkpt>
      <trkpt lat="39.6572930" lon="-3.9163240">
        <ele>773.7</ele>
        <time>2019-08-12T11:10:28Z</time>
      </trkpt>
      <trkpt lat="39.6573060" lon="-3.9163880">
        <ele>773.8</ele>
        <time>2019-08-12T11:10:29Z</time>
      </trkpt>
      <trkpt lat="39.6573200" lon="-3.9164510">
        <ele>773.8</ele>
        <time>2019-08-12T11:10:30Z</time>
      </trkpt>
      <trkpt lat="39.6573330" lon="-3.9165150">
        <ele>773.8</ele>
        <time>2019-08-12T11:10:31Z</time>
      </trkpt>
      <trkpt lat="39.6573460" lon="-3.9165800">
        <ele>773.9</ele>
        <time>2019-08-12T11:10:32Z</time>
      </trkpt>
      <trkpt lat="39.6573600" lon="-3.9166460">
        <ele>773.9</ele>
        <time>2019-08-12T11:10:33Z</time>
      </trkpt>
      <trkpt lat="39.6573730" lon="-3.9167120">
        <ele>773.9</ele>
        <time>2019-08-12T11:10:34Z</time>
      </trkpt>
      <trkpt lat="39.6573860" lon="-3.9167780">
        <ele>774.0</ele>
        <time>2019-08-12T11:10:35Z</time>
      </trkpt>
      <trkpt lat="39.6573980" lon="-3.9168450">
        <ele>774.0</ele>
        <time>2019-08-12T11:10:36Z</time>
      </trkpt>
      <trkpt lat="39.6574100" lon="-3.9169110">
        <ele>774.0</ele>
        <time>2019-08-12T11:10:37Z</time>
      </trkpt>
      <trkpt lat="39.6574220" lon="-3.9169770">
        <ele>774.0</ele>
        <time>2019-08-12T11:10:38Z</time>
      </trkpt>
      <trkpt lat="39.6574330" lon="-3.9170420">
        <ele>774.0</ele>
        <time>2019-08-12T11:10:39Z</time>
      </trkpt>
      <trkpt lat="39.6574440" lon="-3.9171070">
        <ele>774.0</ele>
        <time>2019-08-12T11:10:40Z</time>
      </trkpt>
      <trkpt lat="39.6574560" lon="-3.9171730">
        <ele>774.0</ele>
        <time>2019-08-12T11:10:41Z</time>
      </trkpt>
      <trkpt lat="39.6574690" lon="-3.9172390">
        <ele>774.0</ele>
        <time>2019-08-12T11:10:42Z</time>
      </trkpt>
      <trkpt lat="39.6574840" lon="-3.9173060">
        <ele>774.0</ele>
        <time>2019-08-12T11:10:43Z</time>
      </trkpt>
      <trkpt lat="39.6575000" lon="-3.9173740">
        <ele>774.0</ele>
        <time>2019-08-12T11:10:44Z</time>
      </trkpt>
      <trkpt lat="39.6575160" lon="-3.9174430">
        <ele>773.9</ele>
        <time>2019-08-12T11:10:45Z</time>
      </trkpt>
      <trkpt lat="39.6575320" lon="-3.9175130">
        <ele>773.9</ele>
        <time>2019-08-12T11:10:46Z</time>
      </trkpt>
      <trkpt lat="39.6575470" lon="-3.9175830">
        <ele>773.8</ele>
        <time>2019-08-12T11:10:47Z</time>
      </trkpt>
      <trkpt lat="39.6575620" lon="-3.9176540">
        <ele>773.7</ele>
        <time>2019-08-12T11:10:48Z</time>
      </trkpt>
      <trkpt lat="39.6575760" lon="-3.9177240">
        <ele>773.6</ele>
        <time>2019-08-12T11:10:49Z</time>
      </trkpt>
      <trkpt lat="39.6575900" lon="-3.9177930">
        <ele>773.4</ele>
        <time>2019-08-12T11:10:50Z</time>
      </trkpt>
      <trkpt lat="39.6576030" lon="-3.9178610">
        <ele>773.3</ele>
        <time>2019-08-12T11:10:51Z</time>
      </trkpt>
      <trkpt lat="39.6576160" lon="-3.9179270">
        <ele>773.2</ele>
        <time>2019-08-12T11:10:52Z</time>
      </trkpt>
      <trkpt lat="39.6576290" lon="-3.9179930">
        <ele>773.0</ele>
        <time>2019-08-12T11:10:53Z</time>
      </trkpt>
      <trkpt lat="39.6576430" lon="-3.9180580">
        <ele>772.9</ele>
        <time>2019-08-12T11:10:54Z</time>
      </trkpt>
      <trkpt lat="39.6576560" lon="-3.9181240">
        <ele>772.8</ele>
        <time>2019-08-12T11:10:55Z</time>
      </trkpt>
      <trkpt lat="39.6576710" lon="-3.9181920">
        <ele>772.7</ele>
        <time>2019-08-12T11:10:56Z</time>
      </trkpt>
      <trkpt lat="39.6576860" lon="-3.9182610">
        <ele>772.6</ele>
        <time>2019-08-12T11:10:57Z</time>
      </trkpt>
      <trkpt lat="39.6577010" lon="-3.9183320">
        <ele>772.5</ele>
        <time>2019-08-12T11:10:58Z</time>
      </trkpt>
      <trkpt lat="39.6577170" lon="-3.9184040">
        <ele>772.4</ele>
        <time>2019-08-12T11:10:59Z</time>
      </trkpt>
      <trkpt lat="39.6577330" lon="-3.9184770">
        <ele>772.4</ele>
        <time>2019-08-12T11:11:00Z</time>
      </trkpt>
      <trkpt lat="39.6577490" lon="-3.9185530">
        <ele>772.3</ele>
        <time>2019-08-12T11:11:01Z</time>
      </trkpt>
      <trkpt lat="39.6577660" lon="-3.9186290">
        <ele>772.2</ele>
        <time>2019-08-12T11:11:02Z</time>
      </trkpt>
      <trkpt lat="39.6577820" lon="-3.9187070">
        <ele>772.1</ele>
        <time>2019-08-12T11:11:03Z</time>
      </trkpt>
      <trkpt lat="39.6577980" lon="-3.9187860">
        <ele>772.0</ele>
        <time>2019-08-12T11:11:04Z</time>
      </trkpt>
      <trkpt lat="39.6578140" lon="-3.9188660">
        <ele>771.9</ele>
        <time>2019-08-12T11:11:05Z</time>
      </trkpt>
      <trkpt lat="39.6578300" lon="-3.9189470">
        <ele>771.8</ele>
        <time>2019-08-12T11:11:06Z</time>
      </trkpt>
      <trkpt lat="39.6578460" lon="-3.9190290">
        <ele>771.6</ele>
        <time>2019-08-12T11:11:07Z</time>
      </trkpt>
      <trkpt lat="39.6578630" lon="-3.9191100">
        <ele>771.5</ele>
        <time>2019-08-12T11:11:08Z</time>
      </trkpt>
      <trkpt lat="39.6578810" lon="-3.9191920">
        <ele>771.3</ele>
        <time>2019-08-12T11:11:09Z</time>
      </trkpt>
      <trkpt lat="39.6578990" lon="-3.9192720">
        <ele>771.1</ele>
        <time>2019-08-12T11:11:10Z</time>
      </trkpt>
      <trkpt lat="39.6579180" lon="-3.9193520">
        <ele>770.9</ele>
        <time>2019-08-12T11:11:11Z</time>
      </trkpt>
      <trkpt lat="39.6579390" lon="-3.9194330">
        <ele>770.7</ele>
        <time>2019-08-12T11:11:12Z</time>
      </trkpt>
      <trkpt lat="39.6579610" lon="-3.9195160">
        <ele>770.6</ele>
        <time>2019-08-12T11:11:13Z</time>
      </trkpt>
      <trkpt lat="39.6579840" lon="-3.9196010">
        <ele>770.4</ele>
        <time>2019-08-12T11:11:14Z</time>
      </trkpt>
      <trkpt lat="39.6580090" lon="-3.9196880">
        <ele>770.2</ele>
        <time>2019-08-12T11:11:15Z</time>
      </trkpt>
      <trkpt lat="39.6580360" lon="-3.9197790">
        <ele>770.0</ele>
        <time>2019-08-12T11:11:16Z</time>
      </trkpt>
      <trkpt lat="39.6580640" lon="-3.9198720">
        <ele>769.8</ele>
        <time>2019-08-12T11:11:17Z</time>
      </trkpt>
      <trkpt lat="39.6580940" lon="-3.9199660">
        <ele>769.5</ele>
        <time>2019-08-12T11:11:18Z</time>
      </trkpt>
      <trkpt lat="39.6581250" lon="-3.9200630">
        <ele>769.2</ele>
        <time>2019-08-12T11:11:19Z</time>
      </trkpt>
      <trkpt lat="39.6581580" lon="-3.9201600">
        <ele>768.8</ele>
        <time>2019-08-12T11:11:20Z</time>
      </trkpt>
      <trkpt lat="39.6581920" lon="-3.9202590">
        <ele>768.5</ele>
        <time>2019-08-12T11:11:21Z</time>
      </trkpt>
      <trkpt lat="39.6582280" lon="-3.9203570">
        <ele>768.2</ele>
        <time>2019-08-12T11:11:22Z</time>
      </trkpt>
      <trkpt lat="39.6582640" lon="-3.9204560">
        <ele>767.8</ele>
        <time>2019-08-12T11:11:23Z</time>
      </trkpt>
      <trkpt lat="39.6583020" lon="-3.9205550">
        <ele>767.5</ele>
        <time>2019-08-12T11:11:24Z</time>
      </trkpt>
      <trkpt lat="39.6583420" lon="-3.9206530">
        <ele>767.2</ele>
        <time>2019-08-12T11:11:25Z</time>
      </trkpt>
      <trkpt lat="39.6583830" lon="-3.9207510">
        <ele>767.0</ele>
        <time>2019-08-12T11:11:26Z</time>
      </trkpt>
      <trkpt lat="39.6584250" lon="-3.9208490">
        <ele>766.7</ele>
        <time>2019-08-12T11:11:27Z</time>
      </trkpt>
      <trkpt lat="39.6584690" lon="-3.9209460">
        <ele>766.4</ele>
        <time>2019-08-12T11:11:28Z</time>
      </trkpt>
      <trkpt lat="39.6585150" lon="-3.9210430">
        <ele>766.0</ele>
        <time>2019-08-12T11:11:29Z</time>
      </trkpt>
      <trkpt lat="39.6585620" lon="-3.9211390">
        <ele>765.4</ele>
        <time>2019-08-12T11:11:30Z</time>
      </trkpt>
      <trkpt lat="39.6586110" lon="-3.9212350">
        <ele>764.9</ele>
        <time>2019-08-12T11:11:31Z</time>
      </trkpt>
      <trkpt lat="39.6586620" lon="-3.9213300">
        <ele>764.5</ele>
        <time>2019-08-12T11:11:32Z</time>
      </trkpt>
      <trkpt lat="39.6587140" lon="-3.9214250">
        <ele>764.1</ele>
        <time>2019-08-12T11:11:33Z</time>
      </trkpt>
      <trkpt lat="39.6587690" lon="-3.9215190">
        <ele>763.6</ele>
        <time>2019-08-12T11:11:34Z</time>
      </trkpt>
      <trkpt lat="39.6588250" lon="-3.9216120">
        <ele>763.1</ele>
        <time>2019-08-12T11:11:35Z</time>
      </trkpt>
      <trkpt lat="39.6588830" lon="-3.9217050">
        <ele>762.5</ele>
        <time>2019-08-12T11:11:36Z</time>
      </trkpt>
      <trkpt lat="39.6589410" lon="-3.9217980">
        <ele>762.1</ele>
        <time>2019-08-12T11:11:37Z</time>
      </trkpt>
      <trkpt lat="39.6590010" lon="-3.9218890">
        <ele>761.7</ele>
        <time>2019-08-12T11:11:38Z</time>
      </trkpt>
      <trkpt lat="39.6590610" lon="-3.9219800">
        <ele>761.4</ele>
        <time>2019-08-12T11:11:39Z</time>
      </trkpt>
      <trkpt lat="39.6591220" lon="-3.9220710">
        <ele>761.0</ele>
        <time>2019-08-12T11:11:40Z</time>
      </trkpt>
      <trkpt lat="39.6591840" lon="-3.9221610">
        <ele>760.5</ele>
        <time>2019-08-12T11:11:41Z</time>
      </trkpt>
      <trkpt lat="39.6592450" lon="-3.9222500">
        <ele>760.0</ele>
        <time>2019-08-12T11:11:42Z</time>
      </trkpt>
      <trkpt lat="39.6593070" lon="-3.9223380">
        <ele>759.5</ele>
        <time>2019-08-12T11:11:43Z</time>
      </trkpt>
      <trkpt lat="39.6593680" lon="-3.9224250">
        <ele>759.0</ele>
        <time>2019-08-12T11:11:44Z</time>
      </trkpt>
      <trkpt lat="39.6594280" lon="-3.9225100">
        <ele>758.5</ele>
        <time>2019-08-12T11:11:45Z</time>
      </trkpt>
      <trkpt lat="39.6594880" lon="-3.9225930">
        <ele>757.9</ele>
        <time>2019-08-12T11:11:46Z</time>
      </trkpt>
      <trkpt lat="39.6595460" lon="-3.9226730">
        <ele>757.4</ele>
        <time>2019-08-12T11:11:47Z</time>
      </trkpt>
      <trkpt lat="39.6596030" lon="-3.9227520">
        <ele>756.9</ele>
        <time>2019-08-12T11:11:48Z</time>
      </trkpt>
      <trkpt lat="39.6596600" lon="-3.9228290">
        <ele>756.4</ele>
        <time>2019-08-12T11:11:49Z</time>
      </trkpt>
      <trkpt lat="39.6597170" lon="-3.9229070">
        <ele>756.0</ele>
        <time>2019-08-12T11:11:50Z</time>
      </trkpt>
      <trkpt lat="39.6597750" lon="-3.9229860">
        <ele>755.6</ele>
        <time>2019-08-12T11:11:51Z</time>
      </trkpt>
      <trkpt lat="39.6598350" lon="-3.9230670">
        <ele>755.2</ele>
        <time>2019-08-12T11:11:52Z</time>
      </trkpt>
      <trkpt lat="39.6598950" lon="-3.9231490">
        <ele>754.8</ele>
        <time>2019-08-12T11:11:53Z</time>
      </trkpt>
      <trkpt lat="39.6599570" lon="-3.9232330">
        <ele>754.3</ele>
        <time>2019-08-12T11:11:54Z</time>
      </trkpt>
      <trkpt lat="39.6600200" lon="-3.9233190">
        <ele>753.8</ele>
        <time>2019-08-12T11:11:55Z</time>
      </trkpt>
      <trkpt lat="39.6600840" lon="-3.9234060">
        <ele>753.3</ele>
        <time>2019-08-12T11:11:56Z</time>
      </trkpt>
      <trkpt lat="39.6601490" lon="-3.9234940">
        <ele>752.8</ele>
        <time>2019-08-12T11:11:57Z</time>
      </trkpt>
      <trkpt lat="39.6602150" lon="-3.9235830">
        <ele>752.3</ele>
        <time>2019-08-12T11:11:58Z</time>
      </trkpt>
      <trkpt lat="39.6602810" lon="-3.9236730">
        <ele>751.8</ele>
        <time>2019-08-12T11:11:59Z</time>
      </trkpt>
      <trkpt lat="39.6603480" lon="-3.9237630">
        <ele>751.3</ele>
        <time>2019-08-12T11:12:00Z</time>
      </trkpt>
      <trkpt lat="39.6604140" lon="-3.9238520">
        <ele>751.0</ele>
        <time>2019-08-12T11:12:01Z</time>
      </trkpt>
      <trkpt lat="39.6604790" lon="-3.9239420">
        <ele>750.7</ele>
        <time>2019-08-12T11:12:02Z</time>
      </trkpt>
      <trkpt lat="39.6605450" lon="-3.9240300">
        <ele>750.6</ele>
        <time>2019-08-12T11:12:03Z</time>
      </trkpt>
      <trkpt lat="39.6606100" lon="-3.9241180">
        <ele>750.4</ele>
        <time>2019-08-12T11:12:04Z</time>
      </trkpt>
      <trkpt lat="39.6606740" lon="-3.9242060">
        <ele>750.2</ele>
        <time>2019-08-12T11:12:05Z</time>
      </trkpt>
      <trkpt lat="39.6607380" lon="-3.9242920">
        <ele>750.1</ele>
        <time>2019-08-12T11:12:06Z</time>
      </trkpt>
      <trkpt lat="39.6608020" lon="-3.9243770">
        <ele>750.0</ele>
        <time>2019-08-12T11:12:07Z</time>
      </trkpt>
      <trkpt lat="39.6608650" lon="-3.9244610">
        <ele>749.8</ele>
        <time>2019-08-12T11:12:08Z</time>
      </trkpt>
      <trkpt lat="39.6609270" lon="-3.9245440">
        <ele>749.7</ele>
        <time>2019-08-12T11:12:09Z</time>
      </trkpt>
      <trkpt lat="39.6609880" lon="-3.9246250">
        <ele>749.6</ele>
        <time>2019-08-12T11:12:10Z</time>
      </trkpt>
      <trkpt lat="39.6610490" lon="-3.9247050">
        <ele>749.5</ele>
        <time>2019-08-12T11:12:11Z</time>
      </trkpt>
      <trkpt lat="39.6611090" lon="-3.9247840">
        <ele>749.4</ele>
        <time>2019-08-12T11:12:12Z</time>
      </trkpt>
      <trkpt lat="39.6611680" lon="-3.9248610">
        <ele>749.3</ele>
        <time>2019-08-12T11:12:13Z</time>
      </trkpt>
      <trkpt lat="39.6612270" lon="-3.9249380">
        <ele>749.2</ele>
        <time>2019-08-12T11:12:14Z</time>
      </trkpt>
      <trkpt lat="39.6612850" lon="-3.9250130">
        <ele>749.1</ele>
        <time>2019-08-12T11:12:15Z</time>
      </trkpt>
      <trkpt lat="39.6613420" lon="-3.9250880">
        <ele>749.1</ele>
        <time>2019-08-12T11:12:16Z</time>
      </trkpt>
      <trkpt lat="39.6613990" lon="-3.9251620">
        <ele>749.0</ele>
        <time>2019-08-12T11:12:17Z</time>
      </trkpt>
      <trkpt lat="39.6614550" lon="-3.9252350">
        <ele>748.9</ele>
        <time>2019-08-12T11:12:18Z</time>
      </trkpt>
      <trkpt lat="39.6615100" lon="-3.9253080">
        <ele>748.9</ele>
        <time>2019-08-12T11:12:19Z</time>
      </trkpt>
      <trkpt lat="39.6615650" lon="-3.9253810">
        <ele>748.8</ele>
        <time>2019-08-12T11:12:20Z</time>
      </trkpt>
      <trkpt lat="39.6616190" lon="-3.9254530">
        <ele>748.7</ele>
        <time>2019-08-12T11:12:21Z</time>
      </trkpt>
      <trkpt lat="39.6616730" lon="-3.9255240">
        <ele>748.7</ele>
        <time>2019-08-12T11:12:22Z</time>
      </trkpt>
      <trkpt lat="39.6617260" lon="-3.9255950">
        <ele>748.6</ele>
        <time>2019-08-12T11:12:23Z</time>
      </trkpt>
      <trkpt lat="39.6617790" lon="-3.9256650">
        <ele>748.5</ele>
        <time>2019-08-12T11:12:24Z</time>
      </trkpt>
      <trkpt lat="39.6618310" lon="-3.9257350">
        <ele>748.5</ele>
        <time>2019-08-12T11:12:25Z</time>
      </trkpt>
      <trkpt lat="39.6618820" lon="-3.9258040">
        <ele>748.4</ele>
        <time>2019-08-12T11:12:26Z</time>
      </trkpt>
      <trkpt lat="39.6619330" lon="-3.9258720">
        <ele>748.4</ele>
        <time>2019-08-12T11:12:27Z</time>
      </trkpt>
      <trkpt lat="39.6619840" lon="-3.9259390">
        <ele>748.3</ele>
        <time>2019-08-12T11:12:28Z</time>
      </trkpt>
      <trkpt lat="39.6620340" lon="-3.9260060">
        <ele>748.2</ele>
        <time>2019-08-12T11:12:29Z</time>
      </trkpt>
      <trkpt lat="39.6620840" lon="-3.9260720">
        <ele>748.2</ele>
        <time>2019-08-12T11:12:30Z</time>
      </trkpt>
      <trkpt lat="39.6621330" lon="-3.9261380">
        <ele>748.1</ele>
        <time>2019-08-12T11:12:31Z</time>
      </trkpt>
      <trkpt lat="39.6621820" lon="-3.9262020">
        <ele>748.0</ele>
        <time>2019-08-12T11:12:32Z</time>
      </trkpt>
      <trkpt lat="39.6622310" lon="-3.9262660">
        <ele>747.9</ele>
        <time>2019-08-12T11:12:33Z</time>
      </trkpt>
      <trkpt lat="39.6622780" lon="-3.9263300">
        <ele>747.8</ele>
        <time>2019-08-12T11:12:34Z</time>
      </trkpt>
      <trkpt lat="39.6623260" lon="-3.9263920">
        <ele>747.6</ele>
        <time>2019-08-12T11:12:35Z</time>
      </trkpt>
      <trkpt lat="39.6623720" lon="-3.9264540">
        <ele>747.5</ele>
        <time>2019-08-12T11:12:36Z</time>
      </trkpt>
      <trkpt lat="39.6624180" lon="-3.9265150">
        <ele>747.3</ele>
        <time>2019-08-12T11:12:37Z</time>
      </trkpt>
      <trkpt lat="39.6624640" lon="-3.9265760">
        <ele>747.2</ele>
        <time>2019-08-12T11:12:38Z</time>
      </trkpt>
      <trkpt lat="39.6625090" lon="-3.9266360">
        <ele>747.0</ele>
        <time>2019-08-12T11:12:39Z</time>
      </trkpt>
      <trkpt lat="39.6625540" lon="-3.9266960">
        <ele>746.8</ele>
        <time>2019-08-12T11:12:40Z</time>
      </trkpt>
      <trkpt lat="39.6625990" lon="-3.9267560">
        <ele>746.6</ele>
        <time>2019-08-12T11:12:41Z</time>
      </trkpt>
      <trkpt lat="39.6626430" lon="-3.9268160">
        <ele>746.4</ele>
        <time>2019-08-12T11:12:42Z</time>
      </trkpt>
      <trkpt lat="39.6626880" lon="-3.9268760">
        <ele>746.2</ele>
        <time>2019-08-12T11:12:43Z</time>
      </trkpt>
      <trkpt lat="39.6627320" lon="-3.9269360">
        <ele>746.0</ele>
        <time>2019-08-12T11:12:44Z</time>
      </trkpt>
      <trkpt lat="39.6627780" lon="-3.9269960">
        <ele>745.8</ele>
        <time>2019-08-12T11:12:45Z</time>
      </trkpt>
      <trkpt lat="39.6628230" lon="-3.9270580">
        <ele>745.5</ele>
        <time>2019-08-12T11:12:46Z</time>
      </trkpt>
      <trkpt lat="39.6628690" lon="-3.9271200">
        <ele>745.3</ele>
        <time>2019-08-12T11:12:47Z</time>
      </trkpt>
      <trkpt lat="39.6629160" lon="-3.9271820">
        <ele>745.1</ele>
        <time>2019-08-12T11:12:48Z</time>
      </trkpt>
      <trkpt lat="39.6629630" lon="-3.9272460">
        <ele>744.9</ele>
        <time>2019-08-12T11:12:49Z</time>
      </trkpt>
      <trkpt lat="39.6630100" lon="-3.9273090">
        <ele>744.7</ele>
        <time>2019-08-12T11:12:50Z</time>
      </trkpt>
      <trkpt lat="39.6630580" lon="-3.9273730">
        <ele>744.5</ele>
        <time>2019-08-12T11:12:51Z</time>
      </trkpt>
      <trkpt lat="39.6631050" lon="-3.9274370">
        <ele>744.3</ele>
        <time>2019-08-12T11:12:52Z</time>
      </trkpt>
      <trkpt lat="39.6631530" lon="-3.9275010">
        <ele>744.1</ele>
        <time>2019-08-12T11:12:53Z</time>
      </trkpt>
      <trkpt lat="39.6632010" lon="-3.9275650">
        <ele>743.9</ele>
        <time>2019-08-12T11:12:54Z</time>
      </trkpt>
      <trkpt lat="39.6632480" lon="-3.9276280">
        <ele>743.7</ele>
        <time>2019-08-12T11:12:55Z</time>
      </trkpt>
      <trkpt lat="39.6632960" lon="-3.9276910">
        <ele>743.6</ele>
        <time>2019-08-12T11:12:56Z</time>
      </trkpt>
      <trkpt lat="39.6633430" lon="-3.9277540">
        <ele>743.5</ele>
        <time>2019-08-12T11:12:57Z</time>
      </trkpt>
      <trkpt lat="39.6633890" lon="-3.9278170">
        <ele>743.4</ele>
        <time>2019-08-12T11:12:58Z</time>
      </trkpt>
      <trkpt lat="39.6634360" lon="-3.9278800">
        <ele>743.3</ele>
        <time>2019-08-12T11:12:59Z</time>
      </trkpt>
      <trkpt lat="39.6634820" lon="-3.9279430">
        <ele>743.1</ele>
        <time>2019-08-12T11:13:00Z</time>
      </trkpt>
      <trkpt lat="39.6635280" lon="-3.9280060">
        <ele>743.0</ele>
        <time>2019-08-12T11:13:01Z</time>
      </trkpt>
      <trkpt lat="39.6635730" lon="-3.9280690">
        <ele>742.8</ele>
        <time>2019-08-12T11:13:02Z</time>
      </trkpt>
      <trkpt lat="39.6636190" lon="-3.9281320">
        <ele>742.6</ele>
        <time>2019-08-12T11:13:03Z</time>
      </trkpt>
      <trkpt lat="39.6636640" lon="-3.9281950">
        <ele>742.5</ele>
        <time>2019-08-12T11:13:04Z</time>
      </trkpt>
      <trkpt lat="39.6637090" lon="-3.9282570">
        <ele>742.3</ele>
        <time>2019-08-12T11:13:05Z</time>
      </trkpt>
      <trkpt lat="39.6637550" lon="-3.9283190">
        <ele>742.2</ele>
        <time>2019-08-12T11:13:06Z</time>
      </trkpt>
      <trkpt lat="39.6638010" lon="-3.9283810">
        <ele>742.1</ele>
        <time>2019-08-12T11:13:07Z</time>
      </trkpt>
      <trkpt lat="39.6638470" lon="-3.9284430">
        <ele>742.0</ele>
        <time>2019-08-12T11:13:08Z</time>
      </trkpt>
      <trkpt lat="39.6638930" lon="-3.9285050">
        <ele>741.8</ele>
        <time>2019-08-12T11:13:09Z</time>
      </trkpt>
      <trkpt lat="39.6639390" lon="-3.9285670">
        <ele>741.7</ele>
        <time>2019-08-12T11:13:10Z</time>
      </trkpt>
      <trkpt lat="39.6639860" lon="-3.9286290">
        <ele>741.5</ele>
        <time>2019-08-12T11:13:11Z</time>
      </trkpt>
      <trkpt lat="39.6640330" lon="-3.9286910">
        <ele>741.4</ele>
        <time>2019-08-12T11:13:12Z</time>
      </trkpt>
      <trkpt lat="39.6640810" lon="-3.9287540">
        <ele>741.2</ele>
        <time>2019-08-12T11:13:13Z</time>
      </trkpt>
      <trkpt lat="39.6641290" lon="-3.9288170">
        <ele>740.9</ele>
        <time>2019-08-12T11:13:14Z</time>
      </trkpt>
      <trkpt lat="39.6641770" lon="-3.9288810">
        <ele>740.7</ele>
        <time>2019-08-12T11:13:15Z</time>
      </trkpt>
      <trkpt lat="39.6642260" lon="-3.9289460">
        <ele>740.5</ele>
        <time>2019-08-12T11:13:16Z</time>
      </trkpt>
      <trkpt lat="39.6642750" lon="-3.9290110">
        <ele>740.3</ele>
        <time>2019-08-12T11:13:17Z</time>
      </trkpt>
      <trkpt lat="39.6643240" lon="-3.9290770">
        <ele>740.0</ele>
        <time>2019-08-12T11:13:18Z</time>
      </trkpt>
      <trkpt lat="39.6643740" lon="-3.9291430">
        <ele>739.8</ele>
        <time>2019-08-12T11:13:19Z</time>
      </trkpt>
      <trkpt lat="39.6644240" lon="-3.9292100">
        <ele>739.6</ele>
        <time>2019-08-12T11:13:20Z</time>
      </trkpt>
      <trkpt lat="39.6644740" lon="-3.9292770">
        <ele>739.4</ele>
        <time>2019-08-12T11:13:21Z</time>
      </trkpt>
      <trkpt lat="39.6645250" lon="-3.9293450">
        <ele>739.2</ele>
        <time>2019-08-12T11:13:22Z</time>
      </trkpt>
      <trkpt lat="39.6645750" lon="-3.9294120">
        <ele>739.0</ele>
        <time>2019-08-12T11:13:23Z</time>
      </trkpt>
      <trkpt lat="39.6646260" lon="-3.9294800">
        <ele>738.7</ele>
        <time>2019-08-12T11:13:24Z</time>
      </trkpt>
      <trkpt lat="39.6646780" lon="-3.9295480">
        <ele>738.5</ele>
        <time>2019-08-12T11:13:25Z</time>
      </trkpt>
      <trkpt lat="39.6647290" lon="-3.9296160">
        <ele>738.4</ele>
        <time>2019-08-12T11:13:26Z</time>
      </trkpt>
      <trkpt lat="39.6647810" lon="-3.9296840">
        <ele>738.3</ele>
        <time>2019-08-12T11:13:27Z</time>
      </trkpt>
      <trkpt lat="39.6648320" lon="-3.9297510">
        <ele>738.1</ele>
        <time>2019-08-12T11:13:28Z</time>
      </trkpt>
      <trkpt lat="39.6648840" lon="-3.9298190">
        <ele>738.1</ele>
        <time>2019-08-12T11:13:29Z</time>
      </trkpt>
      <trkpt lat="39.6649360" lon="-3.9298860">
        <ele>738.0</ele>
        <time>2019-08-12T11:13:30Z</time>
      </trkpt>
      <trkpt lat="39.6649880" lon="-3.9299530">
        <ele>737.9</ele>
        <time>2019-08-12T11:13:31Z</time>
      </trkpt>
      <trkpt lat="39.6650390" lon="-3.9300200">
        <ele>737.9</ele>
        <time>2019-08-12T11:13:32Z</time>
      </trkpt>
      <trkpt lat="39.6650910" lon="-3.9300860">
        <ele>737.8</ele>
        <time>2019-08-12T11:13:33Z</time>
      </trkpt>
      <trkpt lat="39.6651430" lon="-3.9301520">
        <ele>737.7</ele>
        <time>2019-08-12T11:13:34Z</time>
      </trkpt>
      <trkpt lat="39.6651950" lon="-3.9302180">
        <ele>737.6</ele>
        <time>2019-08-12T11:13:35Z</time>
      </trkpt>
      <trkpt lat="39.6652470" lon="-3.9302830">
        <ele>737.5</ele>
        <time>2019-08-12T11:13:36Z</time>
      </trkpt>
      <trkpt lat="39.6652990" lon="-3.9303480">
        <ele>737.5</ele>
        <time>2019-08-12T11:13:37Z</time>
      </trkpt>
      <trkpt lat="39.6653510" lon="-3.9304130">
        <ele>737.4</ele>
        <time>2019-08-12T11:13:38Z</time>
      </trkpt>
      <trkpt lat="39.6654030" lon="-3.9304780">
        <ele>737.3</ele>
        <time>2019-08-12T11:13:39Z</time>
      </trkpt>
      <trkpt lat="39.6654550" lon="-3.9305430">
        <ele>737.3</ele>
        <time>2019-08-12T11:13:40Z</time>
      </trkpt>
      <trkpt lat="39.6655070" lon="-3.9306080">
        <ele>737.2</ele>
        <time>2019-08-12T11:13:41Z</time>
      </trkpt>
      <trkpt lat="39.6655590" lon="-3.9306740">
        <ele>737.1</ele>
        <time>2019-08-12T11:13:42Z</time>
      </trkpt>
      <trkpt lat="39.6656120" lon="-3.9307390">
        <ele>737.1</ele>
        <time>2019-08-12T11:13:43Z</time>
      </trkpt>
      <trkpt lat="39.6656630" lon="-3.9308040">
        <ele>737.0</ele>
        <time>2019-08-12T11:13:44Z</time>
      </trkpt>
      <trkpt lat="39.6657150" lon="-3.9308690">
        <ele>737.0</ele>
        <time>2019-08-12T11:13:45Z</time>
      </trkpt>
      <trkpt lat="39.6657670" lon="-3.9309330">
        <ele>736.9</ele>
        <time>2019-08-12T11:13:46Z</time>
      </trkpt>
      <trkpt lat="39.6658180" lon="-3.9309970">
        <ele>736.9</ele>
        <time>2019-08-12T11:13:47Z</time>
      </trkpt>
      <trkpt lat="39.6658690" lon="-3.9310590">
        <ele>736.8</ele>
        <time>2019-08-12T11:13:48Z</time>
      </trkpt>
      <trkpt lat="39.6659190" lon="-3.9311210">
        <ele>736.8</ele>
        <time>2019-08-12T11:13:49Z</time>
      </trkpt>
      <trkpt lat="39.6659680" lon="-3.9311810">
        <ele>736.7</ele>
        <time>2019-08-12T11:13:50Z</time>
      </trkpt>
      <trkpt lat="39.6660170" lon="-3.9312390">
        <ele>736.7</ele>
        <time>2019-08-12T11:13:51Z</time>
      </trkpt>
      <trkpt lat="39.6660650" lon="-3.9312960">
        <ele>736.6</ele>
        <time>2019-08-12T11:13:52Z</time>
      </trkpt>
      <trkpt lat="39.6661130" lon="-3.9313510">
        <ele>736.5</ele>
        <time>2019-08-12T11:13:53Z</time>
      </trkpt>
      <trkpt lat="39.6661600" lon="-3.9314050">
        <ele>736.5</ele>
        <time>2019-08-12T11:13:54Z</time>
      </trkpt>
      <trkpt lat="39.6662060" lon="-3.9314570">
        <ele>736.4</ele>
        <time>2019-08-12T11:13:55Z</time>
      </trkpt>
      <trkpt lat="39.6662520" lon="-3.9315090">
        <ele>736.3</ele>
        <time>2019-08-12T11:13:56Z</time>
      </trkpt>
      <trkpt lat="39.6662970" lon="-3.9315600">
        <ele>736.3</ele>
        <time>2019-08-12T11:13:57Z</time>
      </trkpt>
      <trkpt lat="39.6663420" lon="-3.9316110">
        <ele>736.2</ele>
        <time>2019-08-12T11:13:58Z</time>
      </trkpt>
      <trkpt lat="39.6663870" lon="-3.9316610">
        <ele>736.1</ele>
        <time>2019-08-12T11:13:59Z</time>
      </trkpt>
      <trkpt lat="39.6664320" lon="-3.9317120">
        <ele>736.0</ele>
        <time>2019-08-12T11:14:00Z</time>
      </trkpt>
      <trkpt lat="39.6664770" lon="-3.9317630">
        <ele>736.0</ele>
        <time>2019-08-12T11:14:01Z</time>
      </trkpt>
      <trkpt lat="39.6665220" lon="-3.9318140">
        <ele>735.9</ele>
        <time>2019-08-12T11:14:02Z</time>
      </trkpt>
      <trkpt lat="39.6665670" lon="-3.9318650">
        <ele>735.8</ele>
        <time>2019-08-12T11:14:03Z</time>
      </trkpt>
      <trkpt lat="39.6666120" lon="-3.9319160">
        <ele>735.7</ele>
        <time>2019-08-12T11:14:04Z</time>
      </trkpt>
      <trkpt lat="39.6666560" lon="-3.9319670">
        <ele>735.7</ele>
        <time>2019-08-12T11:14:05Z</time>
      </trkpt>
      <trkpt lat="39.6667000" lon="-3.9320170">
        <ele>735.6</ele>
        <time>2019-08-12T11:14:06Z</time>
      </trkpt>
      <trkpt lat="39.6667440" lon="-3.9320670">
        <ele>735.5</ele>
        <time>2019-08-12T11:14:07Z</time>
      </trkpt>
      <trkpt lat="39.6667880" lon="-3.9321160">
        <ele>735.4</ele>
        <time>2019-08-12T11:14:08Z</time>
      </trkpt>
      <trkpt lat="39.6668310" lon="-3.9321640">
        <ele>735.3</ele>
        <time>2019-08-12T11:14:09Z</time>
      </trkpt>
      <trkpt lat="39.6668740" lon="-3.9322110">
        <ele>735.2</ele>
        <time>2019-08-12T11:14:10Z</time>
      </trkpt>
      <trkpt lat="39.6669160" lon="-3.9322570">
        <ele>735.1</ele>
        <time>2019-08-12T11:14:11Z</time>
      </trkpt>
      <trkpt lat="39.6669580" lon="-3.9323020">
        <ele>735.1</ele>
        <time>2019-08-12T11:14:12Z</time>
      </trkpt>
      <trkpt lat="39.6669990" lon="-3.9323460">
        <ele>735.0</ele>
        <time>2019-08-12T11:14:13Z</time>
      </trkpt>
      <trkpt lat="39.6670400" lon="-3.9323910">
        <ele>734.9</ele>
        <time>2019-08-12T11:14:14Z</time>
      </trkpt>
      <trkpt lat="39.6670820" lon="-3.9324350">
        <ele>734.8</ele>
        <time>2019-08-12T11:14:15Z</time>
      </trkpt>
      <trkpt lat="39.6671230" lon="-3.9324780">
        <ele>734.7</ele>
        <time>2019-08-12T11:14:16Z</time>
      </trkpt>
      <trkpt lat="39.6671640" lon="-3.9325220">
        <ele>734.6</ele>
        <time>2019-08-12T11:14:17Z</time>
      </trkpt>
      <trkpt lat="39.6672050" lon="-3.9325660">
        <ele>734.5</ele>
        <time>2019-08-12T11:14:18Z</time>
      </trkpt>
      <trkpt lat="39.6672470" lon="-3.9326110">
        <ele>734.4</ele>
        <time>2019-08-12T11:14:19Z</time>
      </trkpt>
      <trkpt lat="39.6672880" lon="-3.9326560">
        <ele>734.4</ele>
        <time>2019-08-12T11:14:20Z</time>
      </trkpt>
      <trkpt lat="39.6673300" lon="-3.9327010">
        <ele>734.3</ele>
        <time>2019-08-12T11:14:21Z</time>
      </trkpt>
      <trkpt lat="39.6673720" lon="-3.9327460">
        <ele>734.2</ele>
        <time>2019-08-12T11:14:22Z</time>
      </trkpt>
      <trkpt lat="39.6674140" lon="-3.9327910">
        <ele>734.1</ele>
        <time>2019-08-12T11:14:23Z</time>
      </trkpt>
      <trkpt lat="39.6674570" lon="-3.9328370">
        <ele>734.1</ele>
        <time>2019-08-12T11:14:24Z</time>
      </trkpt>
      <trkpt lat="39.6674990" lon="-3.9328820">
        <ele>734.0</ele>
        <time>2019-08-12T11:14:25Z</time>
      </trkpt>
      <trkpt lat="39.6675420" lon="-3.9329270">
        <ele>734.0</ele>
        <time>2019-08-12T11:14:26Z</time>
      </trkpt>
      <trkpt lat="39.6675860" lon="-3.9329720">
        <ele>733.9</ele>
        <time>2019-08-12T11:14:27Z</time>
      </trkpt>
      <trkpt lat="39.6676290" lon="-3.9330170">
        <ele>733.9</ele>
        <time>2019-08-12T11:14:28Z</time>
      </trkpt>
      <trkpt lat="39.6676730" lon="-3.9330610">
        <ele>733.9</ele>
        <time>2019-08-12T11:14:29Z</time>
      </trkpt>
      <trkpt lat="39.6677170" lon="-3.9331060">
        <ele>733.8</ele>
        <time>2019-08-12T11:14:30Z</time>
      </trkpt>
      <trkpt lat="39.6677610" lon="-3.9331500">
        <ele>733.8</ele>
        <time>2019-08-12T11:14:31Z</time>
      </trkpt>
      <trkpt lat="39.6678060" lon="-3.9331930">
        <ele>733.8</ele>
        <time>2019-08-12T11:14:32Z</time>
      </trkpt>
      <trkpt lat="39.6678510" lon="-3.9332370">
        <ele>733.7</ele>
        <time>2019-08-12T11:14:33Z</time>
      </trkpt>
      <trkpt lat="39.6678960" lon="-3.9332810">
        <ele>733.7</ele>
        <time>2019-08-12T11:14:34Z</time>
      </trkpt>
      <trkpt lat="39.6679410" lon="-3.9333240">
        <ele>733.7</ele>
        <time>2019-08-12T11:14:35Z</time>
      </trkpt>
      <trkpt lat="39.6679870" lon="-3.9333680">
        <ele>733.6</ele>
        <time>2019-08-12T11:14:36Z</time>
      </trkpt>
      <trkpt lat="39.6680330" lon="-3.9334110">
        <ele>733.6</ele>
        <time>2019-08-12T11:14:37Z</time>
      </trkpt>
      <trkpt lat="39.6680790" lon="-3.9334540">
        <ele>733.6</ele>
        <time>2019-08-12T11:14:38Z</time>
      </trkpt>
      <trkpt lat="39.6681250" lon="-3.9334970">
        <ele>733.5</ele>
        <time>2019-08-12T11:14:39Z</time>
      </trkpt>
      <trkpt lat="39.6681710" lon="-3.9335410">
        <ele>733.5</ele>
        <time>2019-08-12T11:14:40Z</time>
      </trkpt>
      <trkpt lat="39.6682180" lon="-3.9335840">
        <ele>733.5</ele>
        <time>2019-08-12T11:14:41Z</time>
      </trkpt>
      <trkpt lat="39.6682650" lon="-3.9336270">
        <ele>733.5</ele>
        <time>2019-08-12T11:14:42Z</time>
      </trkpt>
      <trkpt lat="39.6683120" lon="-3.9336700">
        <ele>733.4</ele>
        <time>2019-08-12T11:14:43Z</time>
      </trkpt>
      <trkpt lat="39.6683590" lon="-3.9337140">
        <ele>733.4</ele>
        <time>2019-08-12T11:14:44Z</time>
      </trkpt>
      <trkpt lat="39.6684060" lon="-3.9337580">
        <ele>733.3</ele>
        <time>2019-08-12T11:14:45Z</time>
      </trkpt>
      <trkpt lat="39.6684540" lon="-3.9338010">
        <ele>733.3</ele>
        <time>2019-08-12T11:14:46Z</time>
      </trkpt>
      <trkpt lat="39.6685010" lon="-3.9338450">
        <ele>733.2</ele>
        <time>2019-08-12T11:14:47Z</time>
      </trkpt>
      <trkpt lat="39.6685490" lon="-3.9338890">
        <ele>733.2</ele>
        <time>2019-08-12T11:14:48Z</time>
      </trkpt>
      <trkpt lat="39.6685960" lon="-3.9339330">
        <ele>733.1</ele>
        <time>2019-08-12T11:14:49Z</time>
      </trkpt>
      <trkpt lat="39.6686440" lon="-3.9339770">
        <ele>733.1</ele>
        <time>2019-08-12T11:14:50Z</time>
      </trkpt>
      <trkpt lat="39.6686910" lon="-3.9340200">
        <ele>733.1</ele>
        <time>2019-08-12T11:14:51Z</time>
      </trkpt>
      <trkpt lat="39.6687380" lon="-3.9340640">
        <ele>733.0</ele>
        <time>2019-08-12T11:14:52Z</time>
      </trkpt>
      <trkpt lat="39.6687850" lon="-3.9341080">
        <ele>733.0</ele>
        <time>2019-08-12T11:14:53Z</time>
      </trkpt>
      <trkpt lat="39.6688320" lon="-3.9341510">
        <ele>732.9</ele>
        <time>2019-08-12T11:14:54Z</time>
      </trkpt>
      <trkpt lat="39.6688780" lon="-3.9341940">
        <ele>732.9</ele>
        <time>2019-08-12T11:14:55Z</time>
      </trkpt>
      <trkpt lat="39.6689230" lon="-3.9342360">
        <ele>732.9</ele>
        <time>2019-08-12T11:14:56Z</time>
      </trkpt>
      <trkpt lat="39.6689680" lon="-3.9342790">
        <ele>732.8</ele>
        <time>2019-08-12T11:14:57Z</time>
      </trkpt>
      <trkpt lat="39.6690130" lon="-3.9343210">
        <ele>732.8</ele>
        <time>2019-08-12T11:14:58Z</time>
      </trkpt>
      <trkpt lat="39.6690570" lon="-3.9343630">
        <ele>732.8</ele>
        <time>2019-08-12T11:14:59Z</time>
      </trkpt>
      <trkpt lat="39.6691010" lon="-3.9344050">
        <ele>732.7</ele>
        <time>2019-08-12T11:15:00Z</time>
      </trkpt>
      <trkpt lat="39.6691450" lon="-3.9344460">
        <ele>732.7</ele>
        <time>2019-08-12T11:15:01Z</time>
      </trkpt>
      <trkpt lat="39.6691890" lon="-3.9344880">
        <ele>732.7</ele>
        <time>2019-08-12T11:15:02Z</time>
      </trkpt>
      <trkpt lat="39.6692330" lon="-3.9345290">
        <ele>732.7</ele>
        <time>2019-08-12T11:15:03Z</time>
      </trkpt>
      <trkpt lat="39.6692770" lon="-3.9345700">
        <ele>732.7</ele>
        <time>2019-08-12T11:15:04Z</time>
      </trkpt>
      <trkpt lat="39.6693210" lon="-3.9346110">
        <ele>732.8</ele>
        <time>2019-08-12T11:15:05Z</time>
      </trkpt>
      <trkpt lat="39.6693650" lon="-3.9346530">
        <ele>732.8</ele>
        <time>2019-08-12T11:15:06Z</time>
      </trkpt>
      <trkpt lat="39.6694090" lon="-3.9346930">
        <ele>732.9</ele>
        <time>2019-08-12T11:15:07Z</time>
      </trkpt>
      <trkpt lat="39.6694530" lon="-3.9347340">
        <ele>732.9</ele>
        <time>2019-08-12T11:15:08Z</time>
      </trkpt>
      <trkpt lat="39.6694970" lon="-3.9347750">
        <ele>733.0</ele>
        <time>2019-08-12T11:15:09Z</time>
      </trkpt>
      <trkpt lat="39.6695420" lon="-3.9348160">
        <ele>733.1</ele>
        <time>2019-08-12T11:15:10Z</time>
      </trkpt>
      <trkpt lat="39.6695860" lon="-3.9348560">
        <ele>733.2</ele>
        <time>2019-08-12T11:15:11Z</time>
      </trkpt>
      <trkpt lat="39.6696310" lon="-3.9348960">
        <ele>733.3</ele>
        <time>2019-08-12T11:15:12Z</time>
      </trkpt>
      <trkpt lat="39.6696760" lon="-3.9349370">
        <ele>733.3</ele>
        <time>2019-08-12T11:15:13Z</time>
      </trkpt>
      <trkpt lat="39.6697210" lon="-3.9349770">
        <ele>733.4</ele>
        <time>2019-08-12T11:15:14Z</time>
      </trkpt>
      <trkpt lat="39.6697670" lon="-3.9350170">
        <ele>733.5</ele>
        <time>2019-08-12T11:15:15Z</time>
      </trkpt>
      <trkpt lat="39.6698130" lon="-3.9350560">
        <ele>733.6</ele>
        <time>2019-08-12T11:15:16Z</time>
      </trkpt>
      <trkpt lat="39.6698590" lon="-3.9350960">
        <ele>733.6</ele>
        <time>2019-08-12T11:15:17Z</time>
      </trkpt>
      <trkpt lat="39.6699060" lon="-3.9351350">
        <ele>733.7</ele>
        <time>2019-08-12T11:15:18Z</time>
      </trkpt>
      <trkpt lat="39.6699530" lon="-3.9351750">
        <ele>733.7</ele>
        <time>2019-08-12T11:15:19Z</time>
      </trkpt>
      <trkpt lat="39.6700000" lon="-3.9352140">
        <ele>733.8</ele>
        <time>2019-08-12T11:15:20Z</time>
      </trkpt>
      <trkpt lat="39.6700480" lon="-3.9352530">
        <ele>733.8</ele>
        <time>2019-08-12T11:15:21Z</time>
      </trkpt>
      <trkpt lat="39.6700960" lon="-3.9352910">
        <ele>733.8</ele>
        <time>2019-08-12T11:15:22Z</time>
      </trkpt>
      <trkpt lat="39.6701450" lon="-3.9353300">
        <ele>733.9</ele>
        <time>2019-08-12T11:15:23Z</time>
      </trkpt>
      <trkpt lat="39.6701940" lon="-3.9353680">
        <ele>733.9</ele>
        <time>2019-08-12T11:15:24Z</time>
      </trkpt>
      <trkpt lat="39.6702440" lon="-3.9354070">
        <ele>733.9</ele>
        <time>2019-08-12T11:15:25Z</time>
      </trkpt>
      <trkpt lat="39.6702940" lon="-3.9354450">
        <ele>734.0</ele>
        <time>2019-08-12T11:15:26Z</time>
      </trkpt>
      <trkpt lat="39.6703440" lon="-3.9354830">
        <ele>734.0</ele>
        <time>2019-08-12T11:15:27Z</time>
      </trkpt>
      <trkpt lat="39.6703940" lon="-3.9355210">
        <ele>734.0</ele>
        <time>2019-08-12T11:15:28Z</time>
      </trkpt>
      <trkpt lat="39.6704440" lon="-3.9355590">
        <ele>734.0</ele>
        <time>2019-08-12T11:15:29Z</time>
      </trkpt>
      <trkpt lat="39.6704950" lon="-3.9355970">
        <ele>734.0</ele>
        <time>2019-08-12T11:15:30Z</time>
      </trkpt>
      <trkpt lat="39.6705450" lon="-3.9356350">
        <ele>734.1</ele>
        <time>2019-08-12T11:15:31Z</time>
      </trkpt>
      <trkpt lat="39.6705950" lon="-3.9356740">
        <ele>734.1</ele>
        <time>2019-08-12T11:15:32Z</time>
      </trkpt>
      <trkpt lat="39.6706460" lon="-3.9357120">
        <ele>734.1</ele>
        <time>2019-08-12T11:15:33Z</time>
      </trkpt>
      <trkpt lat="39.6706960" lon="-3.9357510">
        <ele>734.1</ele>
        <time>2019-08-12T11:15:34Z</time>
      </trkpt>
      <trkpt lat="39.6707460" lon="-3.9357890">
        <ele>734.1</ele>
        <time>2019-08-12T11:15:35Z</time>
      </trkpt>
      <trkpt lat="39.6707960" lon="-3.9358280">
        <ele>734.1</ele>
        <time>2019-08-12T11:15:36Z</time>
      </trkpt>
      <trkpt lat="39.6708460" lon="-3.9358670">
        <ele>734.2</ele>
        <time>2019-08-12T11:15:37Z</time>
      </trkpt>
      <trkpt lat="39.6708960" lon="-3.9359060">
        <ele>734.2</ele>
        <time>2019-08-12T11:15:38Z</time>
      </trkpt>
      <trkpt lat="39.6709460" lon="-3.9359450">
        <ele>734.2</ele>
        <time>2019-08-12T11:15:39Z</time>
      </trkpt>
      <trkpt lat="39.6709950" lon="-3.9359840">
        <ele>734.2</ele>
        <time>2019-08-12T11:15:40Z</time>
      </trkpt>
      <trkpt lat="39.6710450" lon="-3.9360220">
        <ele>734.2</ele>
        <time>2019-08-12T11:15:41Z</time>
      </trkpt>
      <trkpt lat="39.6710940" lon="-3.9360610">
        <ele>734.2</ele>
        <time>2019-08-12T11:15:42Z</time>
      </trkpt>
      <trkpt lat="39.6711430" lon="-3.9361000">
        <ele>734.3</ele>
        <time>2019-08-12T11:15:43Z</time>
      </trkpt>
      <trkpt lat="39.6711930" lon="-3.9361380">
        <ele>734.3</ele>
        <time>2019-08-12T11:15:44Z</time>
      </trkpt>
      <trkpt lat="39.6712420" lon="-3.9361770">
        <ele>734.3</ele>
        <time>2019-08-12T11:15:45Z</time>
      </trkpt>
      <trkpt lat="39.6712920" lon="-3.9362150">
        <ele>734.4</ele>
        <time>2019-08-12T11:15:46Z</time>
      </trkpt>
      <trkpt lat="39.6713420" lon="-3.9362530">
        <ele>734.4</ele>
        <time>2019-08-12T11:15:47Z</time>
      </trkpt>
      <trkpt lat="39.6713930" lon="-3.9362910">
        <ele>734.4</ele>
        <time>2019-08-12T11:15:48Z</time>
      </trkpt>
      <trkpt lat="39.6714440" lon="-3.9363290">
        <ele>734.5</ele>
        <time>2019-08-12T11:15:49Z</time>
      </trkpt>
      <trkpt lat="39.6714960" lon="-3.9363670">
        <ele>734.5</ele>
        <time>2019-08-12T11:15:50Z</time>
      </trkpt>
      <trkpt lat="39.6715490" lon="-3.9364050">
        <ele>734.5</ele>
        <time>2019-08-12T11:15:51Z</time>
      </trkpt>
      <trkpt lat="39.6716030" lon="-3.9364420">
        <ele>734.5</ele>
        <time>2019-08-12T11:15:52Z</time>
      </trkpt>
      <trkpt lat="39.6716570" lon="-3.9364790">
        <ele>734.5</ele>
        <time>2019-08-12T11:15:53Z</time>
      </trkpt>
      <trkpt lat="39.6717110" lon="-3.9365170">
        <ele>734.6</ele>
        <time>2019-08-12T11:15:54Z</time>
      </trkpt>
      <trkpt lat="39.6717660" lon="-3.9365540">
        <ele>734.6</ele>
        <time>2019-08-12T11:15:55Z</time>
      </trkpt>
      <trkpt lat="39.6718200" lon="-3.9365920">
        <ele>734.6</ele>
        <time>2019-08-12T11:15:56Z</time>
      </trkpt>
      <trkpt lat="39.6718750" lon="-3.9366300">
        <ele>734.6</ele>
        <time>2019-08-12T11:15:57Z</time>
      </trkpt>
      <trkpt lat="39.6719290" lon="-3.9366680">
        <ele>734.7</ele>
        <time>2019-08-12T11:15:58Z</time>
      </trkpt>
      <trkpt lat="39.6719830" lon="-3.9367050">
        <ele>734.7</ele>
        <time>2019-08-12T11:15:59Z</time>
      </trkpt>
      <trkpt lat="39.6720380" lon="-3.9367420">
        <ele>734.8</ele>
        <time>2019-08-12T11:16:00Z</time>
      </trkpt>
      <trkpt lat="39.6720920" lon="-3.9367800">
        <ele>734.9</ele>
        <time>2019-08-12T11:16:01Z</time>
      </trkpt>
      <trkpt lat="39.6721450" lon="-3.9368170">
        <ele>734.9</ele>
        <time>2019-08-12T11:16:02Z</time>
      </trkpt>
      <trkpt lat="39.6721990" lon="-3.9368530">
        <ele>735.0</ele>
        <time>2019-08-12T11:16:03Z</time>
      </trkpt>
      <trkpt lat="39.6722530" lon="-3.9368900">
        <ele>735.1</ele>
        <time>2019-08-12T11:16:04Z</time>
      </trkpt>
      <trkpt lat="39.6723080" lon="-3.9369270">
        <ele>735.1</ele>
        <time>2019-08-12T11:16:05Z</time>
      </trkpt>
      <trkpt lat="39.6723620" lon="-3.9369640">
        <ele>735.2</ele>
        <time>2019-08-12T11:16:06Z</time>
      </trkpt>
      <trkpt lat="39.6724160" lon="-3.9370020">
        <ele>735.2</ele>
        <time>2019-08-12T11:16:07Z</time>
      </trkpt>
      <trkpt lat="39.6724710" lon="-3.9370390">
        <ele>735.2</ele>
        <time>2019-08-12T11:16:08Z</time>
      </trkpt>
      <trkpt lat="39.6725270" lon="-3.9370770">
        <ele>735.3</ele>
        <time>2019-08-12T11:16:09Z</time>
      </trkpt>
      <trkpt lat="39.6725820" lon="-3.9371160">
        <ele>735.3</ele>
        <time>2019-08-12T11:16:10Z</time>
      </trkpt>
      <trkpt lat="39.6726380" lon="-3.9371550">
        <ele>735.4</ele>
        <time>2019-08-12T11:16:11Z</time>
      </trkpt>
      <trkpt lat="39.6726950" lon="-3.9371940">
        <ele>735.5</ele>
        <time>2019-08-12T11:16:12Z</time>
      </trkpt>
      <trkpt lat="39.6727510" lon="-3.9372330">
        <ele>735.5</ele>
        <time>2019-08-12T11:16:13Z</time>
      </trkpt>
      <trkpt lat="39.6728070" lon="-3.9372730">
        <ele>735.6</ele>
        <time>2019-08-12T11:16:14Z</time>
      </trkpt>
      <trkpt lat="39.6728630" lon="-3.9373130">
        <ele>735.7</ele>
        <time>2019-08-12T11:16:15Z</time>
      </trkpt>
      <trkpt lat="39.6729180" lon="-3.9373530">
        <ele>735.8</ele>
        <time>2019-08-12T11:16:16Z</time>
      </trkpt>
      <trkpt lat="39.6729730" lon="-3.9373930">
        <ele>735.9</ele>
        <time>2019-08-12T11:16:17Z</time>
      </trkpt>
      <trkpt lat="39.6730270" lon="-3.9374340">
        <ele>736.0</ele>
        <time>2019-08-12T11:16:18Z</time>
      </trkpt>
      <trkpt lat="39.6730800" lon="-3.9374740">
        <ele>736.1</ele>
        <time>2019-08-12T11:16:19Z</time>
      </trkpt>
      <trkpt lat="39.6731330" lon="-3.9375150">
        <ele>736.2</ele>
        <time>2019-08-12T11:16:20Z</time>
      </trkpt>
      <trkpt lat="39.6731850" lon="-3.9375560">
        <ele>736.3</ele>
        <time>2019-08-12T11:16:21Z</time>
      </trkpt>
      <trkpt lat="39.6732370" lon="-3.9375960">
        <ele>736.4</ele>
        <time>2019-08-12T11:16:22Z</time>
      </trkpt>
      <trkpt lat="39.6732900" lon="-3.9376370">
        <ele>736.5</ele>
        <time>2019-08-12T11:16:23Z</time>
      </trkpt>
      <trkpt lat="39.6733420" lon="-3.9376780">
        <ele>736.6</ele>
        <time>2019-08-12T11:16:24Z</time>
      </trkpt>
      <trkpt lat="39.6733950" lon="-3.9377180">
        <ele>736.7</ele>
        <time>2019-08-12T11:16:25Z</time>
      </trkpt>
      <trkpt lat="39.6734490" lon="-3.9377590">
        <ele>736.8</ele>
        <time>2019-08-12T11:16:26Z</time>
      </trkpt>
      <trkpt lat="39.6735040" lon="-3.9377990">
        <ele>736.9</ele>
        <time>2019-08-12T11:16:27Z</time>
      </trkpt>
      <trkpt lat="39.6735600" lon="-3.9378400">
        <ele>737.0</ele>
        <time>2019-08-12T11:16:28Z</time>
      </trkpt>
      <trkpt lat="39.6736180" lon="-3.9378800">
        <ele>737.1</ele>
        <time>2019-08-12T11:16:29Z</time>
      </trkpt>
      <trkpt lat="39.6736760" lon="-3.9379210">
        <ele>737.3</ele>
        <time>2019-08-12T11:16:30Z</time>
      </trkpt>
      <trkpt lat="39.6737350" lon="-3.9379610">
        <ele>737.4</ele>
        <time>2019-08-12T11:16:31Z</time>
      </trkpt>
      <trkpt lat="39.6737950" lon="-3.9380020">
        <ele>737.6</ele>
        <time>2019-08-12T11:16:32Z</time>
      </trkpt>
      <trkpt lat="39.6738550" lon="-3.9380430">
        <ele>737.7</ele>
        <time>2019-08-12T11:16:33Z</time>
      </trkpt>
      <trkpt lat="39.6739150" lon="-3.9380850">
        <ele>737.9</ele>
        <time>2019-08-12T11:16:34Z</time>
      </trkpt>
      <trkpt lat="39.6739760" lon="-3.9381260">
        <ele>738.0</ele>
        <time>2019-08-12T11:16:35Z</time>
      </trkpt>
      <trkpt lat="39.6740370" lon="-3.9381690">
        <ele>738.2</ele>
        <time>2019-08-12T11:16:36Z</time>
      </trkpt>
      <trkpt lat="39.6740980" lon="-3.9382110">
        <ele>738.3</ele>
        <time>2019-08-12T11:16:37Z</time>
      </trkpt>
      <trkpt lat="39.6741590" lon="-3.9382550">
        <ele>738.5</ele>
        <time>2019-08-12T11:16:38Z</time>
      </trkpt>
      <trkpt lat="39.6742210" lon="-3.9382980">
        <ele>738.6</ele>
        <time>2019-08-12T11:16:39Z</time>
      </trkpt>
      <trkpt lat="39.6742820" lon="-3.9383420">
        <ele>738.8</ele>
        <time>2019-08-12T11:16:40Z</time>
      </trkpt>
      <trkpt lat="39.6743430" lon="-3.9383870">
        <ele>738.9</ele>
        <time>2019-08-12T11:16:41Z</time>
      </trkpt>
      <trkpt lat="39.6744050" lon="-3.9384310">
        <ele>739.1</ele>
        <time>2019-08-12T11:16:42Z</time>
      </trkpt>
      <trkpt lat="39.6744670" lon="-3.9384760">
        <ele>739.2</ele>
        <time>2019-08-12T11:16:43Z</time>
      </trkpt>
      <trkpt lat="39.6745290" lon="-3.9385210">
        <ele>739.4</ele>
        <time>2019-08-12T11:16:44Z</time>
      </trkpt>
      <trkpt lat="39.6745910" lon="-3.9385660">
        <ele>739.5</ele>
        <time>2019-08-12T11:16:45Z</time>
      </trkpt>
      <trkpt lat="39.6746540" lon="-3.9386110">
        <ele>739.6</ele>
        <time>2019-08-12T11:16:46Z</time>
      </trkpt>
      <trkpt lat="39.6747180" lon="-3.9386570">
        <ele>739.8</ele>
        <time>2019-08-12T11:16:47Z</time>
      </trkpt>
      <trkpt lat="39.6747820" lon="-3.9387010">
        <ele>739.9</ele>
        <time>2019-08-12T11:16:48Z</time>
      </trkpt>
      <trkpt lat="39.6748460" lon="-3.9387460">
        <ele>740.0</ele>
        <time>2019-08-12T11:16:49Z</time>
      </trkpt>
      <trkpt lat="39.6749120" lon="-3.9387890">
        <ele>740.2</ele>
        <time>2019-08-12T11:16:50Z</time>
      </trkpt>
      <trkpt lat="39.6749770" lon="-3.9388320">
        <ele>740.3</ele>
        <time>2019-08-12T11:16:51Z</time>
      </trkpt>
      <trkpt lat="39.6750430" lon="-3.9388740">
        <ele>740.5</ele>
        <time>2019-08-12T11:16:52Z</time>
      </trkpt>
      <trkpt lat="39.6751090" lon="-3.9389160">
        <ele>740.6</ele>
        <time>2019-08-12T11:16:53Z</time>
      </trkpt>
      <trkpt lat="39.6751730" lon="-3.9389590">
        <ele>740.8</ele>
        <time>2019-08-12T11:16:54Z</time>
      </trkpt>
      <trkpt lat="39.6752370" lon="-3.9390020">
        <ele>740.9</ele>
        <time>2019-08-12T11:16:55Z</time>
      </trkpt>
      <trkpt lat="39.6753000" lon="-3.9390470">
        <ele>741.0</ele>
        <time>2019-08-12T11:16:56Z</time>
      </trkpt>
      <trkpt lat="39.6753610" lon="-3.9390910">
        <ele>741.1</ele>
        <time>2019-08-12T11:16:57Z</time>
      </trkpt>
      <trkpt lat="39.6754220" lon="-3.9391360">
        <ele>741.2</ele>
        <time>2019-08-12T11:16:58Z</time>
      </trkpt>
      <trkpt lat="39.6754810" lon="-3.9391810">
        <ele>741.3</ele>
        <time>2019-08-12T11:16:59Z</time>
      </trkpt>
      <trkpt lat="39.6755400" lon="-3.9392260">
        <ele>741.3</ele>
        <time>2019-08-12T11:17:00Z</time>
      </trkpt>
      <trkpt lat="39.6755990" lon="-3.9392710">
        <ele>741.2</ele>
        <time>2019-08-12T11:17:01Z</time>
      </trkpt>
      <trkpt lat="39.6756560" lon="-3.9393150">
        <ele>741.1</ele>
        <time>2019-08-12T11:17:02Z</time>
      </trkpt>
      <trkpt lat="39.6757140" lon="-3.9393590">
        <ele>741.1</ele>
        <time>2019-08-12T11:17:03Z</time>
      </trkpt>
      <trkpt lat="39.6757710" lon="-3.9394020">
        <ele>741.0</ele>
        <time>2019-08-12T11:17:04Z</time>
      </trkpt>
      <trkpt lat="39.6758270" lon="-3.9394440">
        <ele>741.0</ele>
        <time>2019-08-12T11:17:05Z</time>
      </trkpt>
      <trkpt lat="39.6758830" lon="-3.9394860">
        <ele>740.9</ele>
        <time>2019-08-12T11:17:06Z</time>
      </trkpt>
      <trkpt lat="39.6759380" lon="-3.9395270">
        <ele>740.8</ele>
        <time>2019-08-12T11:17:07Z</time>
      </trkpt>
      <trkpt lat="39.6759930" lon="-3.9395690">
        <ele>740.7</ele>
        <time>2019-08-12T11:17:08Z</time>
      </trkpt>
      <trkpt lat="39.6760480" lon="-3.9396110">
        <ele>740.7</ele>
        <time>2019-08-12T11:17:09Z</time>
      </trkpt>
      <trkpt lat="39.6761020" lon="-3.9396530">
        <ele>740.6</ele>
        <time>2019-08-12T11:17:10Z</time>
      </trkpt>
      <trkpt lat="39.6761560" lon="-3.9396950">
        <ele>740.4</ele>
        <time>2019-08-12T11:17:11Z</time>
      </trkpt>
      <trkpt lat="39.6762120" lon="-3.9397380">
        <ele>740.3</ele>
        <time>2019-08-12T11:17:12Z</time>
      </trkpt>
      <trkpt lat="39.6762690" lon="-3.9397810">
        <ele>740.2</ele>
        <time>2019-08-12T11:17:13Z</time>
      </trkpt>
      <trkpt lat="39.6763270" lon="-3.9398240">
        <ele>740.1</ele>
        <time>2019-08-12T11:17:14Z</time>
      </trkpt>
      <trkpt lat="39.6763850" lon="-3.9398680">
        <ele>740.1</ele>
        <time>2019-08-12T11:17:15Z</time>
      </trkpt>
      <trkpt lat="39.6764440" lon="-3.9399120">
        <ele>740.0</ele>
        <time>2019-08-12T11:17:16Z</time>
      </trkpt>
      <trkpt lat="39.6765020" lon="-3.9399570">
        <ele>739.9</ele>
        <time>2019-08-12T11:17:17Z</time>
      </trkpt>
      <trkpt lat="39.6765600" lon="-3.9400020">
        <ele>739.9</ele>
        <time>2019-08-12T11:17:18Z</time>
      </trkpt>
      <trkpt lat="39.6766170" lon="-3.9400480">
        <ele>739.9</ele>
        <time>2019-08-12T11:17:19Z</time>
      </trkpt>
      <trkpt lat="39.6766740" lon="-3.9400930">
        <ele>739.8</ele>
        <time>2019-08-12T11:17:20Z</time>
      </trkpt>
      <trkpt lat="39.6767310" lon="-3.9401390">
        <ele>739.8</ele>
        <time>2019-08-12T11:17:21Z</time>
      </trkpt>
      <trkpt lat="39.6767880" lon="-3.9401850">
        <ele>739.7</ele>
        <time>2019-08-12T11:17:22Z</time>
      </trkpt>
      <trkpt lat="39.6768460" lon="-3.9402300">
        <ele>739.7</ele>
        <time>2019-08-12T11:17:23Z</time>
      </trkpt>
      <trkpt lat="39.6769040" lon="-3.9402740">
        <ele>739.6</ele>
        <time>2019-08-12T11:17:24Z</time>
      </trkpt>
      <trkpt lat="39.6769630" lon="-3.9403190">
        <ele>739.6</ele>
        <time>2019-08-12T11:17:25Z</time>
      </trkpt>
      <trkpt lat="39.6770220" lon="-3.9403630">
        <ele>739.5</ele>
        <time>2019-08-12T11:17:26Z</time>
      </trkpt>
      <trkpt lat="39.6770810" lon="-3.9404060">
        <ele>739.5</ele>
        <time>2019-08-12T11:17:27Z</time>
      </trkpt>
      <trkpt lat="39.6771400" lon="-3.9404500">
        <ele>739.4</ele>
        <time>2019-08-12T11:17:28Z</time>
      </trkpt>
      <trkpt lat="39.6772000" lon="-3.9404930">
        <ele>739.4</ele>
        <time>2019-08-12T11:17:29Z</time>
      </trkpt>
      <trkpt lat="39.6772590" lon="-3.9405360">
        <ele>739.4</ele>
        <time>2019-08-12T11:17:30Z</time>
      </trkpt>
      <trkpt lat="39.6773180" lon="-3.9405790">
        <ele>739.3</ele>
        <time>2019-08-12T11:17:31Z</time>
      </trkpt>
      <trkpt lat="39.6773760" lon="-3.9406220">
        <ele>739.3</ele>
        <time>2019-08-12T11:17:32Z</time>
      </trkpt>
      <trkpt lat="39.6774350" lon="-3.9406650">
        <ele>739.3</ele>
        <time>2019-08-12T11:17:33Z</time>
      </trkpt>
      <trkpt lat="39.6774930" lon="-3.9407080">
        <ele>739.2</ele>
        <time>2019-08-12T11:17:34Z</time>
      </trkpt>
      <trkpt lat="39.6775510" lon="-3.9407510">
        <ele>739.2</ele>
        <time>2019-08-12T11:17:35Z</time>
      </trkpt>
      <trkpt lat="39.6776090" lon="-3.9407940">
        <ele>739.2</ele>
        <time>2019-08-12T11:17:36Z</time>
      </trkpt>
      <trkpt lat="39.6776670" lon="-3.9408370">
        <ele>739.2</ele>
        <time>2019-08-12T11:17:37Z</time>
      </trkpt>
      <trkpt lat="39.6777250" lon="-3.9408800">
        <ele>739.1</ele>
        <time>2019-08-12T11:17:38Z</time>
      </trkpt>
      <trkpt lat="39.6777830" lon="-3.9409230">
        <ele>739.1</ele>
        <time>2019-08-12T11:17:39Z</time>
      </trkpt>
      <trkpt lat="39.6778420" lon="-3.9409660">
        <ele>739.0</ele>
        <time>2019-08-12T11:17:40Z</time>
      </trkpt>
      <trkpt lat="39.6779010" lon="-3.9410090">
        <ele>738.9</ele>
        <time>2019-08-12T11:17:41Z</time>
      </trkpt>
      <trkpt lat="39.6779600" lon="-3.9410520">
        <ele>738.8</ele>
        <time>2019-08-12T11:17:42Z</time>
      </trkpt>
      <trkpt lat="39.6780190" lon="-3.9410950">
        <ele>738.8</ele>
        <time>2019-08-12T11:17:43Z</time>
      </trkpt>
      <trkpt lat="39.6780790" lon="-3.9411380">
        <ele>738.7</ele>
        <time>2019-08-12T11:17:44Z</time>
      </trkpt>
      <trkpt lat="39.6781380" lon="-3.9411820">
        <ele>738.6</ele>
        <time>2019-08-12T11:17:45Z</time>
      </trkpt>
      <trkpt lat="39.6781980" lon="-3.9412250">
        <ele>738.5</ele>
        <time>2019-08-12T11:17:46Z</time>
      </trkpt>
      <trkpt lat="39.6782580" lon="-3.9412690">
        <ele>738.4</ele>
        <time>2019-08-12T11:17:47Z</time>
      </trkpt>
      <trkpt lat="39.6783180" lon="-3.9413120">
        <ele>738.4</ele>
        <time>2019-08-12T11:17:48Z</time>
      </trkpt>
      <trkpt lat="39.6783780" lon="-3.9413560">
        <ele>738.3</ele>
        <time>2019-08-12T11:17:49Z</time>
      </trkpt>
      <trkpt lat="39.6784390" lon="-3.9414000">
        <ele>738.2</ele>
        <time>2019-08-12T11:17:50Z</time>
      </trkpt>
      <trkpt lat="39.6784990" lon="-3.9414440">
        <ele>738.1</ele>
        <time>2019-08-12T11:17:51Z</time>
      </trkpt>
      <trkpt lat="39.6785590" lon="-3.9414880">
        <ele>738.0</ele>
        <time>2019-08-12T11:17:52Z</time>
      </trkpt>
      <trkpt lat="39.6786200" lon="-3.9415320">
        <ele>737.9</ele>
        <time>2019-08-12T11:17:53Z</time>
      </trkpt>
      <trkpt lat="39.6786800" lon="-3.9415770">
        <ele>737.8</ele>
        <time>2019-08-12T11:17:54Z</time>
      </trkpt>
      <trkpt lat="39.6787410" lon="-3.9416210">
        <ele>737.7</ele>
        <time>2019-08-12T11:17:55Z</time>
      </trkpt>
      <trkpt lat="39.6788020" lon="-3.9416660">
        <ele>737.6</ele>
        <time>2019-08-12T11:17:56Z</time>
      </trkpt>
      <trkpt lat="39.6788630" lon="-3.9417110">
        <ele>737.5</ele>
        <time>2019-08-12T11:17:57Z</time>
      </trkpt>
      <trkpt lat="39.6789250" lon="-3.9417560">
        <ele>737.3</ele>
        <time>2019-08-12T11:17:58Z</time>
      </trkpt>
      <trkpt lat="39.6789860" lon="-3.9418010">
        <ele>737.2</ele>
        <time>2019-08-12T11:17:59Z</time>
      </trkpt>
      <trkpt lat="39.6790490" lon="-3.9418460">
        <ele>737.1</ele>
        <time>2019-08-12T11:18:00Z</time>
      </trkpt>
      <trkpt lat="39.6791110" lon="-3.9418910">
        <ele>737.0</ele>
        <time>2019-08-12T11:18:01Z</time>
      </trkpt>
      <trkpt lat="39.6791730" lon="-3.9419370">
        <ele>736.9</ele>
        <time>2019-08-12T11:18:02Z</time>
      </trkpt>
      <trkpt lat="39.6792360" lon="-3.9419820">
        <ele>736.8</ele>
        <time>2019-08-12T11:18:03Z</time>
      </trkpt>
      <trkpt lat="39.6792980" lon="-3.9420270">
        <ele>736.7</ele>
        <time>2019-08-12T11:18:04Z</time>
      </trkpt>
      <trkpt lat="39.6793600" lon="-3.9420710">
        <ele>736.6</ele>
        <time>2019-08-12T11:18:05Z</time>
      </trkpt>
      <trkpt lat="39.6794220" lon="-3.9421160">
        <ele>736.5</ele>
        <time>2019-08-12T11:18:06Z</time>
      </trkpt>
      <trkpt lat="39.6794840" lon="-3.9421610">
        <ele>736.5</ele>
        <time>2019-08-12T11:18:07Z</time>
      </trkpt>
      <trkpt lat="39.6795460" lon="-3.9422060">
        <ele>736.4</ele>
        <time>2019-08-12T11:18:08Z</time>
      </trkpt>
      <trkpt lat="39.6796080" lon="-3.9422510">
        <ele>736.3</ele>
        <time>2019-08-12T11:18:09Z</time>
      </trkpt>
      <trkpt lat="39.6796700" lon="-3.9422960">
        <ele>736.2</ele>
        <time>2019-08-12T11:18:10Z</time>
      </trkpt>
      <trkpt lat="39.6797320" lon="-3.9423410">
        <ele>736.1</ele>
        <time>2019-08-12T11:18:11Z</time>
      </trkpt>
      <trkpt lat="39.6797940" lon="-3.9423860">
        <ele>736.0</ele>
        <time>2019-08-12T11:18:12Z</time>
      </trkpt>
      <trkpt lat="39.6798560" lon="-3.9424310">
        <ele>735.9</ele>
        <time>2019-08-12T11:18:13Z</time>
      </trkpt>
      <trkpt lat="39.6799180" lon="-3.9424760">
        <ele>735.8</ele>
        <time>2019-08-12T11:18:14Z</time>
      </trkpt>
      <trkpt lat="39.6799790" lon="-3.9425210">
        <ele>735.8</ele>
        <time>2019-08-12T11:18:15Z</time>
      </trkpt>
      <trkpt lat="39.6800400" lon="-3.9425650">
        <ele>735.7</ele>
        <time>2019-08-12T11:18:16Z</time>
      </trkpt>
      <trkpt lat="39.6801000" lon="-3.9426090">
        <ele>735.6</ele>
        <time>2019-08-12T11:18:17Z</time>
      </trkpt>
      <trkpt lat="39.6801600" lon="-3.9426520">
        <ele>735.5</ele>
        <time>2019-08-12T11:18:18Z</time>
      </trkpt>
      <trkpt lat="39.6802200" lon="-3.9426950">
        <ele>735.5</ele>
        <time>2019-08-12T11:18:19Z</time>
      </trkpt>
      <trkpt lat="39.6802790" lon="-3.9427380">
        <ele>735.5</ele>
        <time>2019-08-12T11:18:20Z</time>
      </trkpt>
      <trkpt lat="39.6803380" lon="-3.9427810">
        <ele>735.4</ele>
        <time>2019-08-12T11:18:21Z</time>
      </trkpt>
      <trkpt lat="39.6803960" lon="-3.9428240">
        <ele>735.4</ele>
        <time>2019-08-12T11:18:22Z</time>
      </trkpt>
      <trkpt lat="39.6804540" lon="-3.9428670">
        <ele>735.3</ele>
        <time>2019-08-12T11:18:23Z</time>
      </trkpt>
      <trkpt lat="39.6805120" lon="-3.9429110">
        <ele>735.3</ele>
        <time>2019-08-12T11:18:24Z</time>
      </trkpt>
      <trkpt lat="39.6805700" lon="-3.9429540">
        <ele>735.3</ele>
        <time>2019-08-12T11:18:25Z</time>
      </trkpt>
      <trkpt lat="39.6806270" lon="-3.9429990">
        <ele>735.2</ele>
        <time>2019-08-12T11:18:26Z</time>
      </trkpt>
      <trkpt lat="39.6806840" lon="-3.9430430">
        <ele>735.1</ele>
        <time>2019-08-12T11:18:27Z</time>
      </trkpt>
      <trkpt lat="39.6807410" lon="-3.9430880">
        <ele>735.1</ele>
        <time>2019-08-12T11:18:28Z</time>
      </trkpt>
      <trkpt lat="39.6807980" lon="-3.9431330">
        <ele>735.0</ele>
        <time>2019-08-12T11:18:29Z</time>
      </trkpt>
      <trkpt lat="39.6808550" lon="-3.9431780">
        <ele>734.9</ele>
        <time>2019-08-12T11:18:30Z</time>
      </trkpt>
      <trkpt lat="39.6809110" lon="-3.9432240">
        <ele>734.9</ele>
        <time>2019-08-12T11:18:31Z</time>
      </trkpt>
      <trkpt lat="39.6809670" lon="-3.9432690">
        <ele>734.8</ele>
        <time>2019-08-12T11:18:32Z</time>
      </trkpt>
      <trkpt lat="39.6810230" lon="-3.9433150">
        <ele>734.8</ele>
        <time>2019-08-12T11:18:33Z</time>
      </trkpt>
      <trkpt lat="39.6810790" lon="-3.9433600">
        <ele>734.8</ele>
        <time>2019-08-12T11:18:34Z</time>
      </trkpt>
      <trkpt lat="39.6811350" lon="-3.9434060">
        <ele>734.8</ele>
        <time>2019-08-12T11:18:35Z</time>
      </trkpt>
      <trkpt lat="39.6811900" lon="-3.9434520">
        <ele>734.9</ele>
        <time>2019-08-12T11:18:36Z</time>
      </trkpt>
      <trkpt lat="39.6812460" lon="-3.9434980">
        <ele>734.9</ele>
        <time>2019-08-12T11:18:37Z</time>
      </trkpt>
      <trkpt lat="39.6813010" lon="-3.9435440">
        <ele>735.0</ele>
        <time>2019-08-12T11:18:38Z</time>
      </trkpt>
      <trkpt lat="39.6813550" lon="-3.9435900">
        <ele>735.0</ele>
        <time>2019-08-12T11:18:39Z</time>
      </trkpt>
      <trkpt lat="39.6814100" lon="-3.9436360">
        <ele>735.0</ele>
        <time>2019-08-12T11:18:40Z</time>
      </trkpt>
      <trkpt lat="39.6814640" lon="-3.9436820">
        <ele>735.0</ele>
        <time>2019-08-12T11:18:41Z</time>
      </trkpt>
      <trkpt lat="39.6815180" lon="-3.9437290">
        <ele>735.0</ele>
        <time>2019-08-12T11:18:42Z</time>
      </trkpt>
      <trkpt lat="39.6815720" lon="-3.9437760">
        <ele>734.9</ele>
        <time>2019-08-12T11:18:43Z</time>
      </trkpt>
      <trkpt lat="39.6816250" lon="-3.9438240">
        <ele>734.8</ele>
        <time>2019-08-12T11:18:44Z</time>
      </trkpt>
      <trkpt lat="39.6816780" lon="-3.9438720">
        <ele>734.7</ele>
        <time>2019-08-12T11:18:45Z</time>
      </trkpt>
      <trkpt lat="39.6817300" lon="-3.9439210">
        <ele>734.6</ele>
        <time>2019-08-12T11:18:46Z</time>
      </trkpt>
      <trkpt lat="39.6817820" lon="-3.9439700">
        <ele>734.5</ele>
        <time>2019-08-12T11:18:47Z</time>
      </trkpt>
      <trkpt lat="39.6818340" lon="-3.9440200">
        <ele>734.3</ele>
        <time>2019-08-12T11:18:48Z</time>
      </trkpt>
      <trkpt lat="39.6818850" lon="-3.9440710">
        <ele>734.2</ele>
        <time>2019-08-12T11:18:49Z</time>
      </trkpt>
      <trkpt lat="39.6819360" lon="-3.9441210">
        <ele>734.1</ele>
        <time>2019-08-12T11:18:50Z</time>
      </trkpt>
      <trkpt lat="39.6819860" lon="-3.9441720">
        <ele>734.0</ele>
        <time>2019-08-12T11:18:51Z</time>
      </trkpt>
      <trkpt lat="39.6820360" lon="-3.9442240">
        <ele>734.0</ele>
        <time>2019-08-12T11:18:52Z</time>
      </trkpt>
      <trkpt lat="39.6820860" lon="-3.9442760">
        <ele>733.9</ele>
        <time>2019-08-12T11:18:53Z</time>
      </trkpt>
      <trkpt lat="39.6821350" lon="-3.9443270">
        <ele>734.0</ele>
        <time>2019-08-12T11:18:54Z</time>
      </trkpt>
      <trkpt lat="39.6821840" lon="-3.9443790">
        <ele>734.0</ele>
        <time>2019-08-12T11:18:55Z</time>
      </trkpt>
      <trkpt lat="39.6822330" lon="-3.9444310">
        <ele>734.1</ele>
        <time>2019-08-12T11:18:56Z</time>
      </trkpt>
      <trkpt lat="39.6822810" lon="-3.9444840">
        <ele>734.2</ele>
        <time>2019-08-12T11:18:57Z</time>
      </trkpt>
      <trkpt lat="39.6823290" lon="-3.9445360">
        <ele>734.3</ele>
        <time>2019-08-12T11:18:58Z</time>
      </trkpt>
      <trkpt lat="39.6823770" lon="-3.9445890">
        <ele>734.3</ele>
        <time>2019-08-12T11:18:59Z</time>
      </trkpt>
      <trkpt lat="39.6824240" lon="-3.9446420">
        <ele>734.3</ele>
        <time>2019-08-12T11:19:00Z</time>
      </trkpt>
      <trkpt lat="39.6824710" lon="-3.9446950">
        <ele>734.4</ele>
        <time>2019-08-12T11:19:01Z</time>
      </trkpt>
      <trkpt lat="39.6825180" lon="-3.9447490">
        <ele>734.4</ele>
        <time>2019-08-12T11:19:02Z</time>
      </trkpt>
      <trkpt lat="39.6825650" lon="-3.9448030">
        <ele>734.3</ele>
        <time>2019-08-12T11:19:03Z</time>
      </trkpt>
      <trkpt lat="39.6826110" lon="-3.9448580">
        <ele>734.3</ele>
        <time>2019-08-12T11:19:04Z</time>
      </trkpt>
      <trkpt lat="39.6826570" lon="-3.9449130">
        <ele>734.3</ele>
        <time>2019-08-12T11:19:05Z</time>
      </trkpt>
      <trkpt lat="39.6827030" lon="-3.9449690">
        <ele>734.3</ele>
        <time>2019-08-12T11:19:06Z</time>
      </trkpt>
      <trkpt lat="39.6827490" lon="-3.9450250">
        <ele>734.3</ele>
        <time>2019-08-12T11:19:07Z</time>
      </trkpt>
      <trkpt lat="39.6827940" lon="-3.9450820">
        <ele>734.3</ele>
        <time>2019-08-12T11:19:08Z</time>
      </trkpt>
      <trkpt lat="39.6828390" lon="-3.9451390">
        <ele>734.3</ele>
        <time>2019-08-12T11:19:09Z</time>
      </trkpt>
      <trkpt lat="39.6828850" lon="-3.9451970">
        <ele>734.4</ele>
        <time>2019-08-12T11:19:10Z</time>
      </trkpt>
      <trkpt lat="39.6829300" lon="-3.9452550">
        <ele>734.4</ele>
        <time>2019-08-12T11:19:11Z</time>
      </trkpt>
      <trkpt lat="39.6829750" lon="-3.9453140">
        <ele>734.4</ele>
        <time>2019-08-12T11:19:12Z</time>
      </trkpt>
      <trkpt lat="39.6830200" lon="-3.9453730">
        <ele>734.4</ele>
        <time>2019-08-12T11:19:13Z</time>
      </trkpt>
      <trkpt lat="39.6830650" lon="-3.9454320">
        <ele>734.4</ele>
        <time>2019-08-12T11:19:14Z</time>
      </trkpt>
      <trkpt lat="39.6831100" lon="-3.9454920">
        <ele>734.4</ele>
        <time>2019-08-12T11:19:15Z</time>
      </trkpt>
      <trkpt lat="39.6831560" lon="-3.9455530">
        <ele>734.4</ele>
        <time>2019-08-12T11:19:16Z</time>
      </trkpt>
      <trkpt lat="39.6832010" lon="-3.9456140">
        <ele>734.4</ele>
        <time>2019-08-12T11:19:17Z</time>
      </trkpt>
      <trkpt lat="39.6832450" lon="-3.9456750">
        <ele>734.3</ele>
        <time>2019-08-12T11:19:18Z</time>
      </trkpt>
      <trkpt lat="39.6832900" lon="-3.9457370">
        <ele>734.2</ele>
        <time>2019-08-12T11:19:19Z</time>
      </trkpt>
      <trkpt lat="39.6833350" lon="-3.9458000">
        <ele>734.1</ele>
        <time>2019-08-12T11:19:20Z</time>
      </trkpt>
      <trkpt lat="39.6833800" lon="-3.9458630">
        <ele>734.0</ele>
        <time>2019-08-12T11:19:21Z</time>
      </trkpt>
      <trkpt lat="39.6834240" lon="-3.9459260">
        <ele>733.9</ele>
        <time>2019-08-12T11:19:22Z</time>
      </trkpt>
      <trkpt lat="39.6834690" lon="-3.9459900">
        <ele>733.8</ele>
        <time>2019-08-12T11:19:23Z</time>
      </trkpt>
      <trkpt lat="39.6835130" lon="-3.9460550">
        <ele>733.7</ele>
        <time>2019-08-12T11:19:24Z</time>
      </trkpt>
      <trkpt lat="39.6835570" lon="-3.9461190">
        <ele>733.6</ele>
        <time>2019-08-12T11:19:25Z</time>
      </trkpt>
      <trkpt lat="39.6836010" lon="-3.9461850">
        <ele>733.6</ele>
        <time>2019-08-12T11:19:26Z</time>
      </trkpt>
      <trkpt lat="39.6836450" lon="-3.9462510">
        <ele>733.5</ele>
        <time>2019-08-12T11:19:27Z</time>
      </trkpt>
      <trkpt lat="39.6836880" lon="-3.9463170">
        <ele>733.5</ele>
        <time>2019-08-12T11:19:28Z</time>
      </trkpt>
      <trkpt lat="39.6837320" lon="-3.9463840">
        <ele>733.4</ele>
        <time>2019-08-12T11:19:29Z</time>
      </trkpt>
      <trkpt lat="39.6837750" lon="-3.9464510">
        <ele>733.4</ele>
        <time>2019-08-12T11:19:30Z</time>
      </trkpt>
      <trkpt lat="39.6838180" lon="-3.9465180">
        <ele>733.4</ele>
        <time>2019-08-12T11:19:31Z</time>
      </trkpt>
      <trkpt lat="39.6838600" lon="-3.9465860">
        <ele>733.4</ele>
        <time>2019-08-12T11:19:32Z</time>
      </trkpt>
      <trkpt lat="39.6839030" lon="-3.9466550">
        <ele>733.4</ele>
        <time>2019-08-12T11:19:33Z</time>
      </trkpt>
      <trkpt lat="39.6839450" lon="-3.9467240">
        <ele>733.4</ele>
        <time>2019-08-12T11:19:34Z</time>
      </trkpt>
      <trkpt lat="39.6839870" lon="-3.9467930">
        <ele>733.4</ele>
        <time>2019-08-12T11:19:35Z</time>
      </trkpt>
      <trkpt lat="39.6840280" lon="-3.9468630">
        <ele>733.3</ele>
        <time>2019-08-12T11:19:36Z</time>
      </trkpt>
      <trkpt lat="39.6840690" lon="-3.9469330">
        <ele>733.3</ele>
        <time>2019-08-12T11:19:37Z</time>
      </trkpt>
      <trkpt lat="39.6841100" lon="-3.9470040">
        <ele>733.3</ele>
        <time>2019-08-12T11:19:38Z</time>
      </trkpt>
      <trkpt lat="39.6841510" lon="-3.9470750">
        <ele>733.3</ele>
        <time>2019-08-12T11:19:39Z</time>
      </trkpt>
      <trkpt lat="39.6841910" lon="-3.9471470">
        <ele>733.3</ele>
        <time>2019-08-12T11:19:40Z</time>
      </trkpt>
      <trkpt lat="39.6842300" lon="-3.9472190">
        <ele>733.4</ele>
        <time>2019-08-12T11:19:41Z</time>
      </trkpt>
      <trkpt lat="39.6842680" lon="-3.9472910">
        <ele>733.4</ele>
        <time>2019-08-12T11:19:42Z</time>
      </trkpt>
      <trkpt lat="39.6843040" lon="-3.9473640">
        <ele>733.4</ele>
        <time>2019-08-12T11:19:43Z</time>
      </trkpt>
      <trkpt lat="39.6843400" lon="-3.9474370">
        <ele>733.4</ele>
        <time>2019-08-12T11:19:44Z</time>
      </trkpt>
      <trkpt lat="39.6843770" lon="-3.9475080">
        <ele>733.5</ele>
        <time>2019-08-12T11:19:45Z</time>
      </trkpt>
      <trkpt lat="39.6844130" lon="-3.9475800">
        <ele>733.5</ele>
        <time>2019-08-12T11:19:46Z</time>
      </trkpt>
      <trkpt lat="39.6844500" lon="-3.9476510">
        <ele>733.5</ele>
        <time>2019-08-12T11:19:47Z</time>
      </trkpt>
      <trkpt lat="39.6844860" lon="-3.9477220">
        <ele>733.6</ele>
        <time>2019-08-12T11:19:48Z</time>
      </trkpt>
      <trkpt lat="39.6845210" lon="-3.9477940">
        <ele>733.7</ele>
        <time>2019-08-12T11:19:49Z</time>
      </trkpt>
      <trkpt lat="39.6845560" lon="-3.9478660">
        <ele>733.8</ele>
        <time>2019-08-12T11:19:50Z</time>
      </trkpt>
      <trkpt lat="39.6845900" lon="-3.9479390">
        <ele>733.9</ele>
        <time>2019-08-12T11:19:51Z</time>
      </trkpt>
      <trkpt lat="39.6846230" lon="-3.9480120">
        <ele>734.0</ele>
        <time>2019-08-12T11:19:52Z</time>
      </trkpt>
      <trkpt lat="39.6846560" lon="-3.9480860">
        <ele>734.0</ele>
        <time>2019-08-12T11:19:53Z</time>
      </trkpt>
      <trkpt lat="39.6846880" lon="-3.9481590">
        <ele>734.1</ele>
        <time>2019-08-12T11:19:54Z</time>
      </trkpt>
      <trkpt lat="39.6847200" lon="-3.9482330">
        <ele>734.1</ele>
        <time>2019-08-12T11:19:55Z</time>
      </trkpt>
      <trkpt lat="39.6847510" lon="-3.9483060">
        <ele>734.1</ele>
        <time>2019-08-12T11:19:56Z</time>
      </trkpt>
      <trkpt lat="39.6847820" lon="-3.9483790">
        <ele>734.1</ele>
        <time>2019-08-12T11:19:57Z</time>
      </trkpt>
      <trkpt lat="39.6848130" lon="-3.9484510">
        <ele>734.1</ele>
        <time>2019-08-12T11:19:58Z</time>
      </trkpt>
      <trkpt lat="39.6848440" lon="-3.9485220">
        <ele>734.1</ele>
        <time>2019-08-12T11:19:59Z</time>
      </trkpt>
      <trkpt lat="39.6848750" lon="-3.9485920">
        <ele>734.1</ele>
        <time>2019-08-12T11:20:00Z</time>
      </trkpt>
      <trkpt lat="39.6849050" lon="-3.9486620">
        <ele>734.1</ele>
        <time>2019-08-12T11:20:01Z</time>
      </trkpt>
      <trkpt lat="39.6849360" lon="-3.9487310">
        <ele>734.1</ele>
        <time>2019-08-12T11:20:02Z</time>
      </trkpt>
      <trkpt lat="39.6849660" lon="-3.9488000">
        <ele>734.0</ele>
        <time>2019-08-12T11:20:03Z</time>
      </trkpt>
      <trkpt lat="39.6849950" lon="-3.9488690">
        <ele>734.0</ele>
        <time>2019-08-12T11:20:04Z</time>
      </trkpt>
      <trkpt lat="39.6850240" lon="-3.9489370">
        <ele>733.9</ele>
        <time>2019-08-12T11:20:05Z</time>
      </trkpt>
      <trkpt lat="39.6850530" lon="-3.9490050">
        <ele>733.9</ele>
        <time>2019-08-12T11:20:06Z</time>
      </trkpt>
      <trkpt lat="39.6850810" lon="-3.9490720">
        <ele>733.8</ele>
        <time>2019-08-12T11:20:07Z</time>
      </trkpt>
      <trkpt lat="39.6851080" lon="-3.9491400">
        <ele>733.8</ele>
        <time>2019-08-12T11:20:08Z</time>
      </trkpt>
      <trkpt lat="39.6851350" lon="-3.9492080">
        <ele>733.7</ele>
        <time>2019-08-12T11:20:09Z</time>
      </trkpt>
      <trkpt lat="39.6851610" lon="-3.9492760">
        <ele>733.7</ele>
        <time>2019-08-12T11:20:10Z</time>
      </trkpt>
      <trkpt lat="39.6851870" lon="-3.9493440">
        <ele>733.6</ele>
        <time>2019-08-12T11:20:11Z</time>
      </trkpt>
      <trkpt lat="39.6852120" lon="-3.9494110">
        <ele>733.6</ele>
        <time>2019-08-12T11:20:12Z</time>
      </trkpt>
      <trkpt lat="39.6852370" lon="-3.9494790">
        <ele>733.6</ele>
        <time>2019-08-12T11:20:13Z</time>
      </trkpt>
      <trkpt lat="39.6852620" lon="-3.9495460">
        <ele>733.5</ele>
        <time>2019-08-12T11:20:14Z</time>
      </trkpt>
      <trkpt lat="39.6852870" lon="-3.9496130">
        <ele>733.5</ele>
        <time>2019-08-12T11:20:15Z</time>
      </trkpt>
      <trkpt lat="39.6853120" lon="-3.9496800">
        <ele>733.5</ele>
        <time>2019-08-12T11:20:16Z</time>
      </trkpt>
      <trkpt lat="39.6853370" lon="-3.9497470">
        <ele>733.5</ele>
        <time>2019-08-12T11:20:17Z</time>
      </trkpt>
      <trkpt lat="39.6853610" lon="-3.9498130">
        <ele>733.6</ele>
        <time>2019-08-12T11:20:18Z</time>
      </trkpt>
      <trkpt lat="39.6853860" lon="-3.9498800">
        <ele>733.6</ele>
        <time>2019-08-12T11:20:19Z</time>
      </trkpt>
      <trkpt lat="39.6854110" lon="-3.9499460">
        <ele>733.6</ele>
        <time>2019-08-12T11:20:20Z</time>
      </trkpt>
      <trkpt lat="39.6854360" lon="-3.9500120">
        <ele>733.7</ele>
        <time>2019-08-12T11:20:21Z</time>
      </trkpt>
      <trkpt lat="39.6854610" lon="-3.9500780">
        <ele>733.8</ele>
        <time>2019-08-12T11:20:22Z</time>
      </trkpt>
      <trkpt lat="39.6854860" lon="-3.9501430">
        <ele>733.8</ele>
        <time>2019-08-12T11:20:23Z</time>
      </trkpt>
      <trkpt lat="39.6855110" lon="-3.9502090">
        <ele>733.9</ele>
        <time>2019-08-12T11:20:24Z</time>
      </trkpt>
      <trkpt lat="39.6855350" lon="-3.9502740">
        <ele>734.0</ele>
        <time>2019-08-12T11:20:25Z</time>
      </trkpt>
      <trkpt lat="39.6855600" lon="-3.9503400">
        <ele>734.1</ele>
        <time>2019-08-12T11:20:26Z</time>
      </trkpt>
      <trkpt lat="39.6855850" lon="-3.9504050">
        <ele>734.2</ele>
        <time>2019-08-12T11:20:27Z</time>
      </trkpt>
      <trkpt lat="39.6856100" lon="-3.9504700">
        <ele>734.3</ele>
        <time>2019-08-12T11:20:28Z</time>
      </trkpt>
      <trkpt lat="39.6856350" lon="-3.9505350">
        <ele>734.5</ele>
        <time>2019-08-12T11:20:29Z</time>
      </trkpt>
      <trkpt lat="39.6856600" lon="-3.9506000">
        <ele>734.6</ele>
        <time>2019-08-12T11:20:30Z</time>
      </trkpt>
      <trkpt lat="39.6856840" lon="-3.9506650">
        <ele>734.7</ele>
        <time>2019-08-12T11:20:31Z</time>
      </trkpt>
      <trkpt lat="39.6857090" lon="-3.9507290">
        <ele>734.9</ele>
        <time>2019-08-12T11:20:32Z</time>
      </trkpt>
      <trkpt lat="39.6857340" lon="-3.9507940">
        <ele>735.0</ele>
        <time>2019-08-12T11:20:33Z</time>
      </trkpt>
      <trkpt lat="39.6857580" lon="-3.9508590">
        <ele>735.1</ele>
        <time>2019-08-12T11:20:34Z</time>
      </trkpt>
      <trkpt lat="39.6857830" lon="-3.9509240">
        <ele>735.2</ele>
        <time>2019-08-12T11:20:35Z</time>
      </trkpt>
      <trkpt lat="39.6858070" lon="-3.9509880">
        <ele>735.3</ele>
        <time>2019-08-12T11:20:36Z</time>
      </trkpt>
      <trkpt lat="39.6858320" lon="-3.9510530">
        <ele>735.3</ele>
        <time>2019-08-12T11:20:37Z</time>
      </trkpt>
      <trkpt lat="39.6858570" lon="-3.9511180">
        <ele>735.3</ele>
        <time>2019-08-12T11:20:38Z</time>
      </trkpt>
      <trkpt lat="39.6858830" lon="-3.9511830">
        <ele>735.4</ele>
        <time>2019-08-12T11:20:39Z</time>
      </trkpt>
      <trkpt lat="39.6859100" lon="-3.9512470">
        <ele>735.4</ele>
        <time>2019-08-12T11:20:40Z</time>
      </trkpt>
      <trkpt lat="39.6859360" lon="-3.9513100">
        <ele>735.4</ele>
        <time>2019-08-12T11:20:41Z</time>
      </trkpt>
      <trkpt lat="39.6859620" lon="-3.9513730">
        <ele>735.4</ele>
        <time>2019-08-12T11:20:42Z</time>
      </trkpt>
      <trkpt lat="39.6859880" lon="-3.9514350">
        <ele>735.4</ele>
        <time>2019-08-12T11:20:43Z</time>
      </trkpt>
      <trkpt lat="39.6860140" lon="-3.9514980">
        <ele>735.5</ele>
        <time>2019-08-12T11:20:44Z</time>
      </trkpt>
      <trkpt lat="39.6860390" lon="-3.9515610">
        <ele>735.5</ele>
        <time>2019-08-12T11:20:45Z</time>
      </trkpt>
      <trkpt lat="39.6860640" lon="-3.9516250">
        <ele>735.5</ele>
        <time>2019-08-12T11:20:46Z</time>
      </trkpt>
      <trkpt lat="39.6860890" lon="-3.9516900">
        <ele>735.5</ele>
        <time>2019-08-12T11:20:47Z</time>
      </trkpt>
      <trkpt lat="39.6861140" lon="-3.9517550">
        <ele>735.5</ele>
        <time>2019-08-12T11:20:48Z</time>
      </trkpt>
      <trkpt lat="39.6861390" lon="-3.9518200">
        <ele>735.6</ele>
        <time>2019-08-12T11:20:49Z</time>
      </trkpt>
      <trkpt lat="39.6861640" lon="-3.9518850">
        <ele>735.6</ele>
        <time>2019-08-12T11:20:50Z</time>
      </trkpt>
      <trkpt lat="39.6861890" lon="-3.9519510">
        <ele>735.7</ele>
        <time>2019-08-12T11:20:51Z</time>
      </trkpt>
      <trkpt lat="39.6862140" lon="-3.9520160">
        <ele>735.8</ele>
        <time>2019-08-12T11:20:52Z</time>
      </trkpt>
      <trkpt lat="39.6862400" lon="-3.9520810">
        <ele>735.8</ele>
        <time>2019-08-12T11:20:53Z</time>
      </trkpt>
      <trkpt lat="39.6862660" lon="-3.9521460">
        <ele>735.9</ele>
        <time>2019-08-12T11:20:54Z</time>
      </trkpt>
      <trkpt lat="39.6862930" lon="-3.9522110">
        <ele>736.0</ele>
        <time>2019-08-12T11:20:55Z</time>
      </trkpt>
      <trkpt lat="39.6863200" lon="-3.9522750">
        <ele>736.0</ele>
        <time>2019-08-12T11:20:56Z</time>
      </trkpt>
      <trkpt lat="39.6863470" lon="-3.9523400">
        <ele>736.1</ele>
        <time>2019-08-12T11:20:57Z</time>
      </trkpt>
      <trkpt lat="39.6863750" lon="-3.9524040">
        <ele>736.1</ele>
        <time>2019-08-12T11:20:58Z</time>
      </trkpt>
      <trkpt lat="39.6864020" lon="-3.9524680">
        <ele>736.2</ele>
        <time>2019-08-12T11:20:59Z</time>
      </trkpt>
      <trkpt lat="39.6864300" lon="-3.9525330">
        <ele>736.2</ele>
        <time>2019-08-12T11:21:00Z</time>
      </trkpt>
      <trkpt lat="39.6864570" lon="-3.9525970">
        <ele>736.2</ele>
        <time>2019-08-12T11:21:01Z</time>
      </trkpt>
      <trkpt lat="39.6864850" lon="-3.9526620">
        <ele>736.3</ele>
        <time>2019-08-12T11:21:02Z</time>
      </trkpt>
      <trkpt lat="39.6865120" lon="-3.9527270">
        <ele>736.4</ele>
        <time>2019-08-12T11:21:03Z</time>
      </trkpt>
      <trkpt lat="39.6865390" lon="-3.9527930">
        <ele>736.4</ele>
        <time>2019-08-12T11:21:04Z</time>
      </trkpt>
      <trkpt lat="39.6865650" lon="-3.9528580">
        <ele>736.5</ele>
        <time>2019-08-12T11:21:05Z</time>
      </trkpt>
      <trkpt lat="39.6865910" lon="-3.9529250">
        <ele>736.6</ele>
        <time>2019-08-12T11:21:06Z</time>
      </trkpt>
      <trkpt lat="39.6866180" lon="-3.9529910">
        <ele>736.7</ele>
        <time>2019-08-12T11:21:07Z</time>
      </trkpt>
      <trkpt lat="39.6866430" lon="-3.9530580">
        <ele>736.7</ele>
        <time>2019-08-12T11:21:08Z</time>
      </trkpt>
      <trkpt lat="39.6866690" lon="-3.9531250">
        <ele>736.7</ele>
        <time>2019-08-12T11:21:09Z</time>
      </trkpt>
      <trkpt lat="39.6866940" lon="-3.9531920">
        <ele>736.8</ele>
        <time>2019-08-12T11:21:10Z</time>
      </trkpt>
      <trkpt lat="39.6867190" lon="-3.9532590">
        <ele>736.8</ele>
        <time>2019-08-12T11:21:11Z</time>
      </trkpt>
      <trkpt lat="39.6867440" lon="-3.9533260">
        <ele>736.9</ele>
        <time>2019-08-12T11:21:12Z</time>
      </trkpt>
      <trkpt lat="39.6867680" lon="-3.9533930">
        <ele>736.9</ele>
        <time>2019-08-12T11:21:13Z</time>
      </trkpt>
      <trkpt lat="39.6867930" lon="-3.9534610">
        <ele>737.0</ele>
        <time>2019-08-12T11:21:14Z</time>
      </trkpt>
      <trkpt lat="39.6868170" lon="-3.9535290">
        <ele>737.1</ele>
        <time>2019-08-12T11:21:15Z</time>
      </trkpt>
      <trkpt lat="39.6868410" lon="-3.9535960">
        <ele>737.2</ele>
        <time>2019-08-12T11:21:16Z</time>
      </trkpt>
      <trkpt lat="39.6868660" lon="-3.9536640">
        <ele>737.3</ele>
        <time>2019-08-12T11:21:17Z</time>
      </trkpt>
      <trkpt lat="39.6868900" lon="-3.9537320">
        <ele>737.4</ele>
        <time>2019-08-12T11:21:18Z</time>
      </trkpt>
      <trkpt lat="39.6869140" lon="-3.9538000">
        <ele>737.5</ele>
        <time>2019-08-12T11:21:19Z</time>
      </trkpt>
      <trkpt lat="39.6869390" lon="-3.9538680">
        <ele>737.6</ele>
        <time>2019-08-12T11:21:20Z</time>
      </trkpt>
      <trkpt lat="39.6869630" lon="-3.9539350">
        <ele>737.7</ele>
        <time>2019-08-12T11:21:21Z</time>
      </trkpt>
      <trkpt lat="39.6869860" lon="-3.9540020">
        <ele>737.8</ele>
        <time>2019-08-12T11:21:22Z</time>
      </trkpt>
      <trkpt lat="39.6870100" lon="-3.9540690">
        <ele>737.9</ele>
        <time>2019-08-12T11:21:23Z</time>
      </trkpt>
      <trkpt lat="39.6870340" lon="-3.9541350">
        <ele>738.0</ele>
        <time>2019-08-12T11:21:24Z</time>
      </trkpt>
      <trkpt lat="39.6870580" lon="-3.9542000">
        <ele>738.1</ele>
        <time>2019-08-12T11:21:25Z</time>
      </trkpt>
      <trkpt lat="39.6870820" lon="-3.9542650">
        <ele>738.2</ele>
        <time>2019-08-12T11:21:26Z</time>
      </trkpt>
      <trkpt lat="39.6871070" lon="-3.9543280">
        <ele>738.3</ele>
        <time>2019-08-12T11:21:27Z</time>
      </trkpt>
      <trkpt lat="39.6871320" lon="-3.9543910">
        <ele>738.4</ele>
        <time>2019-08-12T11:21:28Z</time>
      </trkpt>
      <trkpt lat="39.6871570" lon="-3.9544530">
        <ele>738.5</ele>
        <time>2019-08-12T11:21:29Z</time>
      </trkpt>
      <trkpt lat="39.6871820" lon="-3.9545150">
        <ele>738.6</ele>
        <time>2019-08-12T11:21:30Z</time>
      </trkpt>
      <trkpt lat="39.6872070" lon="-3.9545760">
        <ele>738.7</ele>
        <time>2019-08-12T11:21:31Z</time>
      </trkpt>
      <trkpt lat="39.6872310" lon="-3.9546360">
        <ele>738.7</ele>
        <time>2019-08-12T11:21:32Z</time>
      </trkpt>
      <trkpt lat="39.6872550" lon="-3.9546950">
        <ele>738.8</ele>
        <time>2019-08-12T11:21:33Z</time>
      </trkpt>
      <trkpt lat="39.6872780" lon="-3.9547550">
        <ele>738.9</ele>
        <time>2019-08-12T11:21:34Z</time>
      </trkpt>
      <trkpt lat="39.6873020" lon="-3.9548130">
        <ele>739.0</ele>
        <time>2019-08-12T11:21:35Z</time>
      </trkpt>
      <trkpt lat="39.6873250" lon="-3.9548720">
        <ele>739.1</ele>
        <time>2019-08-12T11:21:36Z</time>
      </trkpt>
      <trkpt lat="39.6873490" lon="-3.9549300">
        <ele>739.2</ele>
        <time>2019-08-12T11:21:37Z</time>
      </trkpt>
      <trkpt lat="39.6873720" lon="-3.9549880">
        <ele>739.3</ele>
        <time>2019-08-12T11:21:38Z</time>
      </trkpt>
      <trkpt lat="39.6873960" lon="-3.9550470">
        <ele>739.3</ele>
        <time>2019-08-12T11:21:39Z</time>
      </trkpt>
      <trkpt lat="39.6874190" lon="-3.9551050">
        <ele>739.4</ele>
        <time>2019-08-12T11:21:40Z</time>
      </trkpt>
      <trkpt lat="39.6874430" lon="-3.9551630">
        <ele>739.4</ele>
        <time>2019-08-12T11:21:41Z</time>
      </trkpt>
      <trkpt lat="39.6874680" lon="-3.9552210">
        <ele>739.5</ele>
        <time>2019-08-12T11:21:42Z</time>
      </trkpt>
      <trkpt lat="39.6874920" lon="-3.9552800">
        <ele>739.5</ele>
        <time>2019-08-12T11:21:43Z</time>
      </trkpt>
      <trkpt lat="39.6875160" lon="-3.9553390">
        <ele>739.5</ele>
        <time>2019-08-12T11:21:44Z</time>
      </trkpt>
      <trkpt lat="39.6875410" lon="-3.9553970">
        <ele>739.6</ele>
        <time>2019-08-12T11:21:45Z</time>
      </trkpt>
      <trkpt lat="39.6875650" lon="-3.9554570">
        <ele>739.6</ele>
        <time>2019-08-12T11:21:46Z</time>
      </trkpt>
      <trkpt lat="39.6875890" lon="-3.9555160">
        <ele>739.6</ele>
        <time>2019-08-12T11:21:47Z</time>
      </trkpt>
      <trkpt lat="39.6876130" lon="-3.9555750">
        <ele>739.6</ele>
        <time>2019-08-12T11:21:48Z</time>
      </trkpt>
      <trkpt lat="39.6876370" lon="-3.9556350">
        <ele>739.7</ele>
        <time>2019-08-12T11:21:49Z</time>
      </trkpt>
      <trkpt lat="39.6876610" lon="-3.9556950">
        <ele>739.7</ele>
        <time>2019-08-12T11:21:50Z</time>
      </trkpt>
      <trkpt lat="39.6876840" lon="-3.9557550">
        <ele>739.7</ele>
        <time>2019-08-12T11:21:51Z</time>
      </trkpt>
      <trkpt lat="39.6877080" lon="-3.9558160">
        <ele>739.7</ele>
        <time>2019-08-12T11:21:52Z</time>
      </trkpt>
      <trkpt lat="39.6877320" lon="-3.9558760">
        <ele>739.8</ele>
        <time>2019-08-12T11:21:53Z</time>
      </trkpt>
      <trkpt lat="39.6877570" lon="-3.9559360">
        <ele>739.8</ele>
        <time>2019-08-12T11:21:54Z</time>
      </trkpt>
      <trkpt lat="39.6877820" lon="-3.9559960">
        <ele>739.9</ele>
        <time>2019-08-12T11:21:55Z</time>
      </trkpt>
      <trkpt lat="39.6878080" lon="-3.9560560">
        <ele>739.9</ele>
        <time>2019-08-12T11:21:56Z</time>
      </trkpt>
      <trkpt lat="39.6878350" lon="-3.9561160">
        <ele>739.9</ele>
        <time>2019-08-12T11:21:57Z</time>
      </trkpt>
      <trkpt lat="39.6878620" lon="-3.9561750">
        <ele>740.0</ele>
        <time>2019-08-12T11:21:58Z</time>
      </trkpt>
      <trkpt lat="39.6878910" lon="-3.9562350">
        <ele>740.1</ele>
        <time>2019-08-12T11:21:59Z</time>
      </trkpt>
      <trkpt lat="39.6879190" lon="-3.9562940">
        <ele>740.1</ele>
        <time>2019-08-12T11:22:00Z</time>
      </trkpt>
      <trkpt lat="39.6879470" lon="-3.9563540">
        <ele>740.2</ele>
        <time>2019-08-12T11:22:01Z</time>
      </trkpt>
      <trkpt lat="39.6879750" lon="-3.9564140">
        <ele>740.3</ele>
        <time>2019-08-12T11:22:02Z</time>
      </trkpt>
      <trkpt lat="39.6880000" lon="-3.9564740">
        <ele>740.3</ele>
        <time>2019-08-12T11:22:03Z</time>
      </trkpt>
      <trkpt lat="39.6880240" lon="-3.9565350">
        <ele>740.4</ele>
        <time>2019-08-12T11:22:04Z</time>
      </trkpt>
      <trkpt lat="39.6880470" lon="-3.9565960">
        <ele>740.5</ele>
        <time>2019-08-12T11:22:05Z</time>
      </trkpt>
      <trkpt lat="39.6880690" lon="-3.9566570">
        <ele>740.6</ele>
        <time>2019-08-12T11:22:06Z</time>
      </trkpt>
      <trkpt lat="39.6880910" lon="-3.9567170">
        <ele>740.7</ele>
        <time>2019-08-12T11:22:07Z</time>
      </trkpt>
      <trkpt lat="39.6881150" lon="-3.9567770">
        <ele>740.7</ele>
        <time>2019-08-12T11:22:08Z</time>
      </trkpt>
      <trkpt lat="39.6881390" lon="-3.9568370">
        <ele>740.7</ele>
        <time>2019-08-12T11:22:09Z</time>
      </trkpt>
      <trkpt lat="39.6881640" lon="-3.9568960">
        <ele>740.8</ele>
        <time>2019-08-12T11:22:10Z</time>
      </trkpt>
      <trkpt lat="39.6881900" lon="-3.9569550">
        <ele>740.8</ele>
        <time>2019-08-12T11:22:11Z</time>
      </trkpt>
      <trkpt lat="39.6882150" lon="-3.9570140">
        <ele>740.9</ele>
        <time>2019-08-12T11:22:12Z</time>
      </trkpt>
      <trkpt lat="39.6882400" lon="-3.9570730">
        <ele>741.0</ele>
        <time>2019-08-12T11:22:13Z</time>
      </trkpt>
      <trkpt lat="39.6882640" lon="-3.9571320">
        <ele>741.1</ele>
        <time>2019-08-12T11:22:14Z</time>
      </trkpt>
      <trkpt lat="39.6882890" lon="-3.9571910">
        <ele>741.1</ele>
        <time>2019-08-12T11:22:15Z</time>
      </trkpt>
      <trkpt lat="39.6883130" lon="-3.9572500">
        <ele>741.2</ele>
        <time>2019-08-12T11:22:16Z</time>
      </trkpt>
      <trkpt lat="39.6883370" lon="-3.9573090">
        <ele>741.3</ele>
        <time>2019-08-12T11:22:17Z</time>
      </trkpt>
      <trkpt lat="39.6883610" lon="-3.9573680">
        <ele>741.4</ele>
        <time>2019-08-12T11:22:18Z</time>
      </trkpt>
      <trkpt lat="39.6883850" lon="-3.9574270">
        <ele>741.4</ele>
        <time>2019-08-12T11:22:19Z</time>
      </trkpt>
      <trkpt lat="39.6884080" lon="-3.9574860">
        <ele>741.4</ele>
        <time>2019-08-12T11:22:20Z</time>
      </trkpt>
      <trkpt lat="39.6884320" lon="-3.9575440">
        <ele>741.5</ele>
        <time>2019-08-12T11:22:21Z</time>
      </trkpt>
      <trkpt lat="39.6884560" lon="-3.9576030">
        <ele>741.5</ele>
        <time>2019-08-12T11:22:22Z</time>
      </trkpt>
      <trkpt lat="39.6884790" lon="-3.9576620">
        <ele>741.6</ele>
        <time>2019-08-12T11:22:23Z</time>
      </trkpt>
      <trkpt lat="39.6885030" lon="-3.9577200">
        <ele>741.6</ele>
        <time>2019-08-12T11:22:24Z</time>
      </trkpt>
      <trkpt lat="39.6885260" lon="-3.9577790">
        <ele>741.7</ele>
        <time>2019-08-12T11:22:25Z</time>
      </trkpt>
      <trkpt lat="39.6885490" lon="-3.9578380">
        <ele>741.7</ele>
        <time>2019-08-12T11:22:26Z</time>
      </trkpt>
      <trkpt lat="39.6885720" lon="-3.9578970">
        <ele>741.8</ele>
        <time>2019-08-12T11:22:27Z</time>
      </trkpt>
      <trkpt lat="39.6885950" lon="-3.9579560">
        <ele>741.9</ele>
        <time>2019-08-12T11:22:28Z</time>
      </trkpt>
      <trkpt lat="39.6886180" lon="-3.9580150">
        <ele>741.9</ele>
        <time>2019-08-12T11:22:29Z</time>
      </trkpt>
      <trkpt lat="39.6886400" lon="-3.9580750">
        <ele>742.0</ele>
        <time>2019-08-12T11:22:30Z</time>
      </trkpt>
      <trkpt lat="39.6886630" lon="-3.9581340">
        <ele>742.1</ele>
        <time>2019-08-12T11:22:31Z</time>
      </trkpt>
      <trkpt lat="39.6886850" lon="-3.9581930">
        <ele>742.2</ele>
        <time>2019-08-12T11:22:32Z</time>
      </trkpt>
      <trkpt lat="39.6887080" lon="-3.9582520">
        <ele>742.3</ele>
        <time>2019-08-12T11:22:33Z</time>
      </trkpt>
      <trkpt lat="39.6887300" lon="-3.9583120">
        <ele>742.4</ele>
        <time>2019-08-12T11:22:34Z</time>
      </trkpt>
      <trkpt lat="39.6887530" lon="-3.9583710">
        <ele>742.5</ele>
        <time>2019-08-12T11:22:35Z</time>
      </trkpt>
      <trkpt lat="39.6887750" lon="-3.9584300">
        <ele>742.5</ele>
        <time>2019-08-12T11:22:36Z</time>
      </trkpt>
      <trkpt lat="39.6887980" lon="-3.9584890">
        <ele>742.6</ele>
        <time>2019-08-12T11:22:37Z</time>
      </trkpt>
      <trkpt lat="39.6888210" lon="-3.9585490">
        <ele>742.7</ele>
        <time>2019-08-12T11:22:38Z</time>
      </trkpt>
      <trkpt lat="39.6888440" lon="-3.9586090">
        <ele>742.8</ele>
        <time>2019-08-12T11:22:39Z</time>
      </trkpt>
      <trkpt lat="39.6888670" lon="-3.9586690">
        <ele>742.8</ele>
        <time>2019-08-12T11:22:40Z</time>
      </trkpt>
      <trkpt lat="39.6888910" lon="-3.9587310">
        <ele>742.9</ele>
        <time>2019-08-12T11:22:41Z</time>
      </trkpt>
      <trkpt lat="39.6889160" lon="-3.9587940">
        <ele>743.0</ele>
        <time>2019-08-12T11:22:42Z</time>
      </trkpt>
      <trkpt lat="39.6889410" lon="-3.9588590">
        <ele>743.1</ele>
        <time>2019-08-12T11:22:43Z</time>
      </trkpt>
      <trkpt lat="39.6889670" lon="-3.9589250">
        <ele>743.1</ele>
        <time>2019-08-12T11:22:44Z</time>
      </trkpt>
      <trkpt lat="39.6889930" lon="-3.9589920">
        <ele>743.2</ele>
        <time>2019-08-12T11:22:45Z</time>
      </trkpt>
      <trkpt lat="39.6890210" lon="-3.9590610">
        <ele>743.3</ele>
        <time>2019-08-12T11:22:46Z</time>
      </trkpt>
      <trkpt lat="39.6890490" lon="-3.9591310">
        <ele>743.4</ele>
        <time>2019-08-12T11:22:47Z</time>
      </trkpt>
      <trkpt lat="39.6890770" lon="-3.9592010">
        <ele>743.5</ele>
        <time>2019-08-12T11:22:48Z</time>
      </trkpt>
      <trkpt lat="39.6891060" lon="-3.9592710">
        <ele>743.5</ele>
        <time>2019-08-12T11:22:49Z</time>
      </trkpt>
      <trkpt lat="39.6891350" lon="-3.9593400">
        <ele>743.6</ele>
        <time>2019-08-12T11:22:50Z</time>
      </trkpt>
      <trkpt lat="39.6891630" lon="-3.9594090">
        <ele>743.7</ele>
        <time>2019-08-12T11:22:51Z</time>
      </trkpt>
      <trkpt lat="39.6891920" lon="-3.9594770">
        <ele>743.8</ele>
        <time>2019-08-12T11:22:52Z</time>
      </trkpt>
      <trkpt lat="39.6892200" lon="-3.9595450">
        <ele>743.9</ele>
        <time>2019-08-12T11:22:53Z</time>
      </trkpt>
      <trkpt lat="39.6892490" lon="-3.9596140">
        <ele>744.0</ele>
        <time>2019-08-12T11:22:54Z</time>
      </trkpt>
      <trkpt lat="39.6892760" lon="-3.9596830">
        <ele>744.0</ele>
        <time>2019-08-12T11:22:55Z</time>
      </trkpt>
      <trkpt lat="39.6893040" lon="-3.9597530">
        <ele>744.1</ele>
        <time>2019-08-12T11:22:56Z</time>
      </trkpt>
      <trkpt lat="39.6893310" lon="-3.9598240">
        <ele>744.2</ele>
        <time>2019-08-12T11:22:57Z</time>
      </trkpt>
      <trkpt lat="39.6893580" lon="-3.9598940">
        <ele>744.3</ele>
        <time>2019-08-12T11:22:58Z</time>
      </trkpt>
      <trkpt lat="39.6893840" lon="-3.9599650">
        <ele>744.4</ele>
        <time>2019-08-12T11:22:59Z</time>
      </trkpt>
      <trkpt lat="39.6894110" lon="-3.9600350">
        <ele>744.5</ele>
        <time>2019-08-12T11:23:00Z</time>
      </trkpt>
      <trkpt lat="39.6894370" lon="-3.9601060">
        <ele>744.6</ele>
        <time>2019-08-12T11:23:01Z</time>
      </trkpt>
      <trkpt lat="39.6894640" lon="-3.9601750">
        <ele>744.7</ele>
        <time>2019-08-12T11:23:02Z</time>
      </trkpt>
      <trkpt lat="39.6894900" lon="-3.9602440">
        <ele>744.9</ele>
        <time>2019-08-12T11:23:03Z</time>
      </trkpt>
      <trkpt lat="39.6895170" lon="-3.9603120">
        <ele>745.0</ele>
        <time>2019-08-12T11:23:04Z</time>
      </trkpt>
      <trkpt lat="39.6895440" lon="-3.9603800">
        <ele>745.1</ele>
        <time>2019-08-12T11:23:05Z</time>
      </trkpt>
      <trkpt lat="39.6895700" lon="-3.9604470">
        <ele>745.2</ele>
        <time>2019-08-12T11:23:06Z</time>
      </trkpt>
      <trkpt lat="39.6895970" lon="-3.9605130">
        <ele>745.3</ele>
        <time>2019-08-12T11:23:07Z</time>
      </trkpt>
      <trkpt lat="39.6896240" lon="-3.9605790">
        <ele>745.4</ele>
        <time>2019-08-12T11:23:08Z</time>
      </trkpt>
      <trkpt lat="39.6896500" lon="-3.9606450">
        <ele>745.6</ele>
        <time>2019-08-12T11:23:09Z</time>
      </trkpt>
      <trkpt lat="39.6896760" lon="-3.9607100">
        <ele>745.7</ele>
        <time>2019-08-12T11:23:10Z</time>
      </trkpt>
      <trkpt lat="39.6897020" lon="-3.9607760">
        <ele>745.8</ele>
        <time>2019-08-12T11:23:11Z</time>
      </trkpt>
      <trkpt lat="39.6897280" lon="-3.9608420">
        <ele>746.0</ele>
        <time>2019-08-12T11:23:12Z</time>
      </trkpt>
      <trkpt lat="39.6897540" lon="-3.9609080">
        <ele>746.1</ele>
        <time>2019-08-12T11:23:13Z</time>
      </trkpt>
      <trkpt lat="39.6897790" lon="-3.9609740">
        <ele>746.2</ele>
        <time>2019-08-12T11:23:14Z</time>
      </trkpt>
      <trkpt lat="39.6898040" lon="-3.9610410">
        <ele>746.4</ele>
        <time>2019-08-12T11:23:15Z</time>
      </trkpt>
      <trkpt lat="39.6898290" lon="-3.9611070">
        <ele>746.5</ele>
        <time>2019-08-12T11:23:16Z</time>
      </trkpt>
      <trkpt lat="39.6898540" lon="-3.9611740">
        <ele>746.6</ele>
        <time>2019-08-12T11:23:17Z</time>
      </trkpt>
      <trkpt lat="39.6898790" lon="-3.9612410">
        <ele>746.7</ele>
        <time>2019-08-12T11:23:18Z</time>
      </trkpt>
      <trkpt lat="39.6899050" lon="-3.9613080">
        <ele>746.8</ele>
        <time>2019-08-12T11:23:19Z</time>
      </trkpt>
      <trkpt lat="39.6899310" lon="-3.9613750">
        <ele>746.9</ele>
        <time>2019-08-12T11:23:20Z</time>
      </trkpt>
      <trkpt lat="39.6899570" lon="-3.9614420">
        <ele>747.0</ele>
        <time>2019-08-12T11:23:21Z</time>
      </trkpt>
      <trkpt lat="39.6899840" lon="-3.9615090">
        <ele>747.1</ele>
        <time>2019-08-12T11:23:22Z</time>
      </trkpt>
      <trkpt lat="39.6900110" lon="-3.9615760">
        <ele>747.2</ele>
        <time>2019-08-12T11:23:23Z</time>
      </trkpt>
      <trkpt lat="39.6900390" lon="-3.9616420">
        <ele>747.3</ele>
        <time>2019-08-12T11:23:24Z</time>
      </trkpt>
      <trkpt lat="39.6900680" lon="-3.9617090">
        <ele>747.5</ele>
        <time>2019-08-12T11:23:25Z</time>
      </trkpt>
      <trkpt lat="39.6900960" lon="-3.9617750">
        <ele>747.6</ele>
        <time>2019-08-12T11:23:26Z</time>
      </trkpt>
      <trkpt lat="39.6901250" lon="-3.9618420">
        <ele>747.7</ele>
        <time>2019-08-12T11:23:27Z</time>
      </trkpt>
      <trkpt lat="39.6901550" lon="-3.9619070">
        <ele>747.8</ele>
        <time>2019-08-12T11:23:28Z</time>
      </trkpt>
      <trkpt lat="39.6901840" lon="-3.9619730">
        <ele>747.9</ele>
        <time>2019-08-12T11:23:29Z</time>
      </trkpt>
      <trkpt lat="39.6902140" lon="-3.9620380">
        <ele>747.9</ele>
        <time>2019-08-12T11:23:30Z</time>
      </trkpt>
      <trkpt lat="39.6902440" lon="-3.9621030">
        <ele>748.0</ele>
        <time>2019-08-12T11:23:31Z</time>
      </trkpt>
      <trkpt lat="39.6902740" lon="-3.9621670">
        <ele>748.1</ele>
        <time>2019-08-12T11:23:32Z</time>
      </trkpt>
      <trkpt lat="39.6903040" lon="-3.9622310">
        <ele>748.2</ele>
        <time>2019-08-12T11:23:33Z</time>
      </trkpt>
      <trkpt lat="39.6903340" lon="-3.9622950">
        <ele>748.3</ele>
        <time>2019-08-12T11:23:34Z</time>
      </trkpt>
      <trkpt lat="39.6903650" lon="-3.9623580">
        <ele>748.3</ele>
        <time>2019-08-12T11:23:35Z</time>
      </trkpt>
      <trkpt lat="39.6903960" lon="-3.9624220">
        <ele>748.5</ele>
        <time>2019-08-12T11:23:36Z</time>
      </trkpt>
      <trkpt lat="39.6904270" lon="-3.9624850">
        <ele>748.5</ele>
        <time>2019-08-12T11:23:37Z</time>
      </trkpt>
      <trkpt lat="39.6904580" lon="-3.9625480">
        <ele>748.6</ele>
        <time>2019-08-12T11:23:38Z</time>
      </trkpt>
      <trkpt lat="39.6904900" lon="-3.9626110">
        <ele>748.7</ele>
        <time>2019-08-12T11:23:39Z</time>
      </trkpt>
      <trkpt lat="39.6905220" lon="-3.9626750">
        <ele>748.8</ele>
        <time>2019-08-12T11:23:40Z</time>
      </trkpt>
      <trkpt lat="39.6905550" lon="-3.9627380">
        <ele>748.9</ele>
        <time>2019-08-12T11:23:41Z</time>
      </trkpt>
      <trkpt lat="39.6905880" lon="-3.9628020">
        <ele>749.0</ele>
        <time>2019-08-12T11:23:42Z</time>
      </trkpt>
      <trkpt lat="39.6906220" lon="-3.9628660">
        <ele>749.1</ele>
        <time>2019-08-12T11:23:43Z</time>
      </trkpt>
      <trkpt lat="39.6906560" lon="-3.9629290">
        <ele>749.2</ele>
        <time>2019-08-12T11:23:44Z</time>
      </trkpt>
      <trkpt lat="39.6906900" lon="-3.9629930">
        <ele>749.3</ele>
        <time>2019-08-12T11:23:45Z</time>
      </trkpt>
      <trkpt lat="39.6907250" lon="-3.9630560">
        <ele>749.4</ele>
        <time>2019-08-12T11:23:46Z</time>
      </trkpt>
      <trkpt lat="39.6907600" lon="-3.9631190">
        <ele>749.5</ele>
        <time>2019-08-12T11:23:47Z</time>
      </trkpt>
      <trkpt lat="39.6907940" lon="-3.9631820">
        <ele>749.6</ele>
        <time>2019-08-12T11:23:48Z</time>
      </trkpt>
      <trkpt lat="39.6908290" lon="-3.9632440">
        <ele>749.7</ele>
        <time>2019-08-12T11:23:49Z</time>
      </trkpt>
      <trkpt lat="39.6908640" lon="-3.9633060">
        <ele>749.7</ele>
        <time>2019-08-12T11:23:50Z</time>
      </trkpt>
      <trkpt lat="39.6909000" lon="-3.9633670">
        <ele>749.8</ele>
        <time>2019-08-12T11:23:51Z</time>
      </trkpt>
      <trkpt lat="39.6909350" lon="-3.9634280">
        <ele>749.9</ele>
        <time>2019-08-12T11:23:52Z</time>
      </trkpt>
      <trkpt lat="39.6909700" lon="-3.9634880">
        <ele>749.9</ele>
        <time>2019-08-12T11:23:53Z</time>
      </trkpt>
      <trkpt lat="39.6910050" lon="-3.9635470">
        <ele>749.9</ele>
        <time>2019-08-12T11:23:54Z</time>
      </trkpt>
      <trkpt lat="39.6910400" lon="-3.9636070">
        <ele>750.0</ele>
        <time>2019-08-12T11:23:55Z</time>
      </trkpt>
      <trkpt lat="39.6910740" lon="-3.9636650">
        <ele>750.0</ele>
        <time>2019-08-12T11:23:56Z</time>
      </trkpt>
      <trkpt lat="39.6911090" lon="-3.9637230">
        <ele>750.1</ele>
        <time>2019-08-12T11:23:57Z</time>
      </trkpt>
      <trkpt lat="39.6911430" lon="-3.9637810">
        <ele>750.1</ele>
        <time>2019-08-12T11:23:58Z</time>
      </trkpt>
      <trkpt lat="39.6911780" lon="-3.9638380">
        <ele>750.1</ele>
        <time>2019-08-12T11:23:59Z</time>
      </trkpt>
      <trkpt lat="39.6912120" lon="-3.9638950">
        <ele>750.2</ele>
        <time>2019-08-12T11:24:00Z</time>
      </trkpt>
      <trkpt lat="39.6912460" lon="-3.9639510">
        <ele>750.2</ele>
        <time>2019-08-12T11:24:01Z</time>
      </trkpt>
      <trkpt lat="39.6912800" lon="-3.9640070">
        <ele>750.3</ele>
        <time>2019-08-12T11:24:02Z</time>
      </trkpt>
      <trkpt lat="39.6913130" lon="-3.9640630">
        <ele>750.4</ele>
        <time>2019-08-12T11:24:03Z</time>
      </trkpt>
      <trkpt lat="39.6913470" lon="-3.9641190">
        <ele>750.4</ele>
        <time>2019-08-12T11:24:04Z</time>
      </trkpt>
      <trkpt lat="39.6913820" lon="-3.9641760">
        <ele>750.5</ele>
        <time>2019-08-12T11:24:05Z</time>
      </trkpt>
      <trkpt lat="39.6914160" lon="-3.9642320">
        <ele>750.6</ele>
        <time>2019-08-12T11:24:06Z</time>
      </trkpt>
      <trkpt lat="39.6914500" lon="-3.9642890">
        <ele>750.7</ele>
        <time>2019-08-12T11:24:07Z</time>
      </trkpt>
      <trkpt lat="39.6914850" lon="-3.9643450">
        <ele>750.7</ele>
        <time>2019-08-12T11:24:08Z</time>
      </trkpt>
      <trkpt lat="39.6915200" lon="-3.9644030">
        <ele>750.8</ele>
        <time>2019-08-12T11:24:09Z</time>
      </trkpt>
      <trkpt lat="39.6915560" lon="-3.9644600">
        <ele>750.9</ele>
        <time>2019-08-12T11:24:10Z</time>
      </trkpt>
      <trkpt lat="39.6915910" lon="-3.9645170">
        <ele>751.0</ele>
        <time>2019-08-12T11:24:11Z</time>
      </trkpt>
      <trkpt lat="39.6916270" lon="-3.9645740">
        <ele>751.1</ele>
        <time>2019-08-12T11:24:12Z</time>
      </trkpt>
      <trkpt lat="39.6916630" lon="-3.9646310">
        <ele>751.2</ele>
        <time>2019-08-12T11:24:13Z</time>
      </trkpt>
      <trkpt lat="39.6917000" lon="-3.9646870">
        <ele>751.3</ele>
        <time>2019-08-12T11:24:14Z</time>
      </trkpt>
      <trkpt lat="39.6917360" lon="-3.9647430">
        <ele>751.4</ele>
        <time>2019-08-12T11:24:15Z</time>
      </trkpt>
      <trkpt lat="39.6917730" lon="-3.9647980">
        <ele>751.5</ele>
        <time>2019-08-12T11:24:16Z</time>
      </trkpt>
      <trkpt lat="39.6918110" lon="-3.9648520">
        <ele>751.7</ele>
        <time>2019-08-12T11:24:17Z</time>
      </trkpt>
      <trkpt lat="39.6918480" lon="-3.9649050">
        <ele>751.8</ele>
        <time>2019-08-12T11:24:18Z</time>
      </trkpt>
      <trkpt lat="39.6918860" lon="-3.9649590">
        <ele>752.0</ele>
        <time>2019-08-12T11:24:19Z</time>
      </trkpt>
      <trkpt lat="39.6919240" lon="-3.9650110">
        <ele>752.1</ele>
        <time>2019-08-12T11:24:20Z</time>
      </trkpt>
      <trkpt lat="39.6919630" lon="-3.9650640">
        <ele>752.3</ele>
        <time>2019-08-12T11:24:21Z</time>
      </trkpt>
      <trkpt lat="39.6920030" lon="-3.9651180">
        <ele>752.5</ele>
        <time>2019-08-12T11:24:22Z</time>
      </trkpt>
      <trkpt lat="39.6920430" lon="-3.9651710">
        <ele>752.6</ele>
        <time>2019-08-12T11:24:23Z</time>
      </trkpt>
      <trkpt lat="39.6920830" lon="-3.9652240">
        <ele>752.8</ele>
        <time>2019-08-12T11:24:24Z</time>
      </trkpt>
      <trkpt lat="39.6921240" lon="-3.9652780">
        <ele>752.9</ele>
        <time>2019-08-12T11:24:25Z</time>
      </trkpt>
      <trkpt lat="39.6921640" lon="-3.9653310">
        <ele>753.0</ele>
        <time>2019-08-12T11:24:26Z</time>
      </trkpt>
      <trkpt lat="39.6922050" lon="-3.9653840">
        <ele>753.1</ele>
        <time>2019-08-12T11:24:27Z</time>
      </trkpt>
      <trkpt lat="39.6922450" lon="-3.9654370">
        <ele>753.2</ele>
        <time>2019-08-12T11:24:28Z</time>
      </trkpt>
      <trkpt lat="39.6922860" lon="-3.9654900">
        <ele>753.3</ele>
        <time>2019-08-12T11:24:29Z</time>
      </trkpt>
      <trkpt lat="39.6923270" lon="-3.9655420">
        <ele>753.3</ele>
        <time>2019-08-12T11:24:30Z</time>
      </trkpt>
      <trkpt lat="39.6923670" lon="-3.9655940">
        <ele>753.4</ele>
        <time>2019-08-12T11:24:31Z</time>
      </trkpt>
      <trkpt lat="39.6924080" lon="-3.9656450">
        <ele>753.5</ele>
        <time>2019-08-12T11:24:32Z</time>
      </trkpt>
      <trkpt lat="39.6924480" lon="-3.9656950">
        <ele>753.5</ele>
        <time>2019-08-12T11:24:33Z</time>
      </trkpt>
      <trkpt lat="39.6924880" lon="-3.9657450">
        <ele>753.6</ele>
        <time>2019-08-12T11:24:34Z</time>
      </trkpt>
      <trkpt lat="39.6925290" lon="-3.9657940">
        <ele>753.7</ele>
        <time>2019-08-12T11:24:35Z</time>
      </trkpt>
      <trkpt lat="39.6925690" lon="-3.9658430">
        <ele>753.7</ele>
        <time>2019-08-12T11:24:36Z</time>
      </trkpt>
      <trkpt lat="39.6926090" lon="-3.9658910">
        <ele>753.8</ele>
        <time>2019-08-12T11:24:37Z</time>
      </trkpt>
      <trkpt lat="39.6926490" lon="-3.9659380">
        <ele>753.8</ele>
        <time>2019-08-12T11:24:38Z</time>
      </trkpt>
      <trkpt lat="39.6926900" lon="-3.9659850">
        <ele>753.9</ele>
        <time>2019-08-12T11:24:39Z</time>
      </trkpt>
      <trkpt lat="39.6927300" lon="-3.9660320">
        <ele>753.9</ele>
        <time>2019-08-12T11:24:40Z</time>
      </trkpt>
      <trkpt lat="39.6927710" lon="-3.9660780">
        <ele>753.9</ele>
        <time>2019-08-12T11:24:41Z</time>
      </trkpt>
      <trkpt lat="39.6928110" lon="-3.9661240">
        <ele>754.0</ele>
        <time>2019-08-12T11:24:42Z</time>
      </trkpt>
      <trkpt lat="39.6928520" lon="-3.9661700">
        <ele>754.0</ele>
        <time>2019-08-12T11:24:43Z</time>
      </trkpt>
      <trkpt lat="39.6928930" lon="-3.9662160">
        <ele>754.0</ele>
        <time>2019-08-12T11:24:44Z</time>
      </trkpt>
      <trkpt lat="39.6929350" lon="-3.9662620">
        <ele>754.1</ele>
        <time>2019-08-12T11:24:45Z</time>
      </trkpt>
      <trkpt lat="39.6929760" lon="-3.9663070">
        <ele>754.1</ele>
        <time>2019-08-12T11:24:46Z</time>
      </trkpt>
      <trkpt lat="39.6930180" lon="-3.9663530">
        <ele>754.2</ele>
        <time>2019-08-12T11:24:47Z</time>
      </trkpt>
      <trkpt lat="39.6930600" lon="-3.9663990">
        <ele>754.2</ele>
        <time>2019-08-12T11:24:48Z</time>
      </trkpt>
      <trkpt lat="39.6931020" lon="-3.9664450">
        <ele>754.2</ele>
        <time>2019-08-12T11:24:49Z</time>
      </trkpt>
      <trkpt lat="39.6931450" lon="-3.9664910">
        <ele>754.3</ele>
        <time>2019-08-12T11:24:50Z</time>
      </trkpt>
      <trkpt lat="39.6931870" lon="-3.9665370">
        <ele>754.3</ele>
        <time>2019-08-12T11:24:51Z</time>
      </trkpt>
      <trkpt lat="39.6932300" lon="-3.9665830">
        <ele>754.4</ele>
        <time>2019-08-12T11:24:52Z</time>
      </trkpt>
      <trkpt lat="39.6932730" lon="-3.9666290">
        <ele>754.5</ele>
        <time>2019-08-12T11:24:53Z</time>
      </trkpt>
      <trkpt lat="39.6933160" lon="-3.9666750">
        <ele>754.6</ele>
        <time>2019-08-12T11:24:54Z</time>
      </trkpt>
      <trkpt lat="39.6933590" lon="-3.9667210">
        <ele>754.7</ele>
        <time>2019-08-12T11:24:55Z</time>
      </trkpt>
      <trkpt lat="39.6934020" lon="-3.9667670">
        <ele>754.8</ele>
        <time>2019-08-12T11:24:56Z</time>
      </trkpt>
      <trkpt lat="39.6934450" lon="-3.9668130">
        <ele>754.9</ele>
        <time>2019-08-12T11:24:57Z</time>
      </trkpt>
      <trkpt lat="39.6934890" lon="-3.9668590">
        <ele>755.0</ele>
        <time>2019-08-12T11:24:58Z</time>
      </trkpt>
      <trkpt lat="39.6935320" lon="-3.9669050">
        <ele>755.1</ele>
        <time>2019-08-12T11:24:59Z</time>
      </trkpt>
      <trkpt lat="39.6935760" lon="-3.9669510">
        <ele>755.2</ele>
        <time>2019-08-12T11:25:00Z</time>
      </trkpt>
      <trkpt lat="39.6936200" lon="-3.9669980">
        <ele>755.3</ele>
        <time>2019-08-12T11:25:01Z</time>
      </trkpt>
      <trkpt lat="39.6936640" lon="-3.9670440">
        <ele>755.5</ele>
        <time>2019-08-12T11:25:02Z</time>
      </trkpt>
      <trkpt lat="39.6937090" lon="-3.9670900">
        <ele>755.6</ele>
        <time>2019-08-12T11:25:03Z</time>
      </trkpt>
      <trkpt lat="39.6937530" lon="-3.9671360">
        <ele>755.7</ele>
        <time>2019-08-12T11:25:04Z</time>
      </trkpt>
      <trkpt lat="39.6937980" lon="-3.9671820">
        <ele>755.8</ele>
        <time>2019-08-12T11:25:05Z</time>
      </trkpt>
      <trkpt lat="39.6938430" lon="-3.9672280">
        <ele>755.9</ele>
        <time>2019-08-12T11:25:06Z</time>
      </trkpt>
      <trkpt lat="39.6938890" lon="-3.9672740">
        <ele>755.9</ele>
        <time>2019-08-12T11:25:07Z</time>
      </trkpt>
      <trkpt lat="39.6939340" lon="-3.9673200">
        <ele>756.0</ele>
        <time>2019-08-12T11:25:08Z</time>
      </trkpt>
      <trkpt lat="39.6939800" lon="-3.9673660">
        <ele>756.1</ele>
        <time>2019-08-12T11:25:09Z</time>
      </trkpt>
      <trkpt lat="39.6940260" lon="-3.9674110">
        <ele>756.1</ele>
        <time>2019-08-12T11:25:10Z</time>
      </trkpt>
      <trkpt lat="39.6940730" lon="-3.9674570">
        <ele>756.2</ele>
        <time>2019-08-12T11:25:11Z</time>
      </trkpt>
      <trkpt lat="39.6941200" lon="-3.9675030">
        <ele>756.2</ele>
        <time>2019-08-12T11:25:12Z</time>
      </trkpt>
      <trkpt lat="39.6941670" lon="-3.9675480">
        <ele>756.3</ele>
        <time>2019-08-12T11:25:13Z</time>
      </trkpt>
      <trkpt lat="39.6942140" lon="-3.9675940">
        <ele>756.4</ele>
        <time>2019-08-12T11:25:14Z</time>
      </trkpt>
      <trkpt lat="39.6942620" lon="-3.9676390">
        <ele>756.5</ele>
        <time>2019-08-12T11:25:15Z</time>
      </trkpt>
      <trkpt lat="39.6943090" lon="-3.9676840">
        <ele>756.6</ele>
        <time>2019-08-12T11:25:16Z</time>
      </trkpt>
      <trkpt lat="39.6943580" lon="-3.9677290">
        <ele>756.6</ele>
        <time>2019-08-12T11:25:17Z</time>
      </trkpt>
      <trkpt lat="39.6944060" lon="-3.9677740">
        <ele>756.7</ele>
        <time>2019-08-12T11:25:18Z</time>
      </trkpt>
      <trkpt lat="39.6944550" lon="-3.9678190">
        <ele>756.8</ele>
        <time>2019-08-12T11:25:19Z</time>
      </trkpt>
      <trkpt lat="39.6945030" lon="-3.9678630">
        <ele>756.9</ele>
        <time>2019-08-12T11:25:20Z</time>
      </trkpt>
      <trkpt lat="39.6945530" lon="-3.9679070">
        <ele>757.0</ele>
        <time>2019-08-12T11:25:21Z</time>
      </trkpt>
      <trkpt lat="39.6946020" lon="-3.9679510">
        <ele>757.0</ele>
        <time>2019-08-12T11:25:22Z</time>
      </trkpt>
      <trkpt lat="39.6946520" lon="-3.9679950">
        <ele>757.1</ele>
        <time>2019-08-12T11:25:23Z</time>
      </trkpt>
      <trkpt lat="39.6947010" lon="-3.9680390">
        <ele>757.1</ele>
        <time>2019-08-12T11:25:24Z</time>
      </trkpt>
      <trkpt lat="39.6947520" lon="-3.9680820">
        <ele>757.2</ele>
        <time>2019-08-12T11:25:25Z</time>
      </trkpt>
      <trkpt lat="39.6948020" lon="-3.9681260">
        <ele>757.3</ele>
        <time>2019-08-12T11:25:26Z</time>
      </trkpt>
      <trkpt lat="39.6948520" lon="-3.9681680">
        <ele>757.3</ele>
        <time>2019-08-12T11:25:27Z</time>
      </trkpt>
      <trkpt lat="39.6949030" lon="-3.9682110">
        <ele>757.4</ele>
        <time>2019-08-12T11:25:28Z</time>
      </trkpt>
      <trkpt lat="39.6949540" lon="-3.9682530">
        <ele>757.5</ele>
        <time>2019-08-12T11:25:29Z</time>
      </trkpt>
      <trkpt lat="39.6950050" lon="-3.9682950">
        <ele>757.6</ele>
        <time>2019-08-12T11:25:30Z</time>
      </trkpt>
      <trkpt lat="39.6950570" lon="-3.9683370">
        <ele>757.7</ele>
        <time>2019-08-12T11:25:31Z</time>
      </trkpt>
      <trkpt lat="39.6951080" lon="-3.9683780">
        <ele>757.8</ele>
        <time>2019-08-12T11:25:32Z</time>
      </trkpt>
      <trkpt lat="39.6951600" lon="-3.9684190">
        <ele>757.9</ele>
        <time>2019-08-12T11:25:33Z</time>
      </trkpt>
      <trkpt lat="39.6952120" lon="-3.9684600">
        <ele>758.0</ele>
        <time>2019-08-12T11:25:34Z</time>
      </trkpt>
      <trkpt lat="39.6952630" lon="-3.9685000">
        <ele>758.1</ele>
        <time>2019-08-12T11:25:35Z</time>
      </trkpt>
      <trkpt lat="39.6953150" lon="-3.9685400">
        <ele>758.2</ele>
        <time>2019-08-12T11:25:36Z</time>
      </trkpt>
      <trkpt lat="39.6953670" lon="-3.9685800">
        <ele>758.3</ele>
        <time>2019-08-12T11:25:37Z</time>
      </trkpt>
      <trkpt lat="39.6954190" lon="-3.9686190">
        <ele>758.4</ele>
        <time>2019-08-12T11:25:38Z</time>
      </trkpt>
      <trkpt lat="39.6954710" lon="-3.9686580">
        <ele>758.5</ele>
        <time>2019-08-12T11:25:39Z</time>
      </trkpt>
      <trkpt lat="39.6955230" lon="-3.9686970">
        <ele>758.6</ele>
        <time>2019-08-12T11:25:40Z</time>
      </trkpt>
      <trkpt lat="39.6955740" lon="-3.9687350">
        <ele>758.7</ele>
        <time>2019-08-12T11:25:41Z</time>
      </trkpt>
      <trkpt lat="39.6956260" lon="-3.9687730">
        <ele>758.8</ele>
        <time>2019-08-12T11:25:42Z</time>
      </trkpt>
      <trkpt lat="39.6956780" lon="-3.9688110">
        <ele>758.9</ele>
        <time>2019-08-12T11:25:43Z</time>
      </trkpt>
      <trkpt lat="39.6957290" lon="-3.9688480">
        <ele>759.0</ele>
        <time>2019-08-12T11:25:44Z</time>
      </trkpt>
      <trkpt lat="39.6957800" lon="-3.9688840">
        <ele>759.0</ele>
        <time>2019-08-12T11:25:45Z</time>
      </trkpt>
      <trkpt lat="39.6958310" lon="-3.9689210">
        <ele>759.1</ele>
        <time>2019-08-12T11:25:46Z</time>
      </trkpt>
      <trkpt lat="39.6958810" lon="-3.9689570">
        <ele>759.2</ele>
        <time>2019-08-12T11:25:47Z</time>
      </trkpt>
      <trkpt lat="39.6959310" lon="-3.9689920">
        <ele>759.2</ele>
        <time>2019-08-12T11:25:48Z</time>
      </trkpt>
      <trkpt lat="39.6959810" lon="-3.9690270">
        <ele>759.3</ele>
        <time>2019-08-12T11:25:49Z</time>
      </trkpt>
      <trkpt lat="39.6960310" lon="-3.9690620">
        <ele>759.4</ele>
        <time>2019-08-12T11:25:50Z</time>
      </trkpt>
      <trkpt lat="39.6960800" lon="-3.9690960">
        <ele>759.5</ele>
        <time>2019-08-12T11:25:51Z</time>
      </trkpt>
      <trkpt lat="39.6961290" lon="-3.9691300">
        <ele>759.5</ele>
        <time>2019-08-12T11:25:52Z</time>
      </trkpt>
      <trkpt lat="39.6961780" lon="-3.9691630">
        <ele>759.6</ele>
        <time>2019-08-12T11:25:53Z</time>
      </trkpt>
      <trkpt lat="39.6962260" lon="-3.9691950">
        <ele>759.7</ele>
        <time>2019-08-12T11:25:54Z</time>
      </trkpt>
      <trkpt lat="39.6962750" lon="-3.9692270">
        <ele>759.8</ele>
        <time>2019-08-12T11:25:55Z</time>
      </trkpt>
      <trkpt lat="39.6963230" lon="-3.9692580">
        <ele>759.9</ele>
        <time>2019-08-12T11:25:56Z</time>
      </trkpt>
      <trkpt lat="39.6963720" lon="-3.9692890">
        <ele>760.0</ele>
        <time>2019-08-12T11:25:57Z</time>
      </trkpt>
      <trkpt lat="39.6964210" lon="-3.9693190">
        <ele>760.1</ele>
        <time>2019-08-12T11:25:58Z</time>
      </trkpt>
      <trkpt lat="39.6964710" lon="-3.9693490">
        <ele>760.2</ele>
        <time>2019-08-12T11:25:59Z</time>
      </trkpt>
      <trkpt lat="39.6965210" lon="-3.9693790">
        <ele>760.3</ele>
        <time>2019-08-12T11:26:00Z</time>
      </trkpt>
      <trkpt lat="39.6965710" lon="-3.9694090">
        <ele>760.4</ele>
        <time>2019-08-12T11:26:01Z</time>
      </trkpt>
      <trkpt lat="39.6966210" lon="-3.9694380">
        <ele>760.5</ele>
        <time>2019-08-12T11:26:02Z</time>
      </trkpt>
      <trkpt lat="39.6966710" lon="-3.9694670">
        <ele>760.6</ele>
        <time>2019-08-12T11:26:03Z</time>
      </trkpt>
      <trkpt lat="39.6967200" lon="-3.9694960">
        <ele>760.6</ele>
        <time>2019-08-12T11:26:04Z</time>
      </trkpt>
      <trkpt lat="39.6967690" lon="-3.9695250">
        <ele>760.7</ele>
        <time>2019-08-12T11:26:05Z</time>
      </trkpt>
      <trkpt lat="39.6968180" lon="-3.9695530">
        <ele>760.8</ele>
        <time>2019-08-12T11:26:06Z</time>
      </trkpt>
      <trkpt lat="39.6968660" lon="-3.9695820">
        <ele>760.8</ele>
        <time>2019-08-12T11:26:07Z</time>
      </trkpt>
      <trkpt lat="39.6969160" lon="-3.9696100">
        <ele>760.9</ele>
        <time>2019-08-12T11:26:08Z</time>
      </trkpt>
      <trkpt lat="39.6969650" lon="-3.9696370">
        <ele>760.9</ele>
        <time>2019-08-12T11:26:09Z</time>
      </trkpt>
      <trkpt lat="39.6970150" lon="-3.9696650">
        <ele>761.0</ele>
        <time>2019-08-12T11:26:10Z</time>
      </trkpt>
      <trkpt lat="39.6970650" lon="-3.9696920">
        <ele>761.0</ele>
        <time>2019-08-12T11:26:11Z</time>
      </trkpt>
      <trkpt lat="39.6971150" lon="-3.9697190">
        <ele>761.1</ele>
        <time>2019-08-12T11:26:12Z</time>
      </trkpt>
      <trkpt lat="39.6971640" lon="-3.9697450">
        <ele>761.1</ele>
        <time>2019-08-12T11:26:13Z</time>
      </trkpt>
      <trkpt lat="39.6972130" lon="-3.9697710">
        <ele>761.1</ele>
        <time>2019-08-12T11:26:14Z</time>
      </trkpt>
      <trkpt lat="39.6972610" lon="-3.9697970">
        <ele>761.2</ele>
        <time>2019-08-12T11:26:15Z</time>
      </trkpt>
      <trkpt lat="39.6973090" lon="-3.9698210">
        <ele>761.2</ele>
        <time>2019-08-12T11:26:16Z</time>
      </trkpt>
      <trkpt lat="39.6973560" lon="-3.9698460">
        <ele>761.3</ele>
        <time>2019-08-12T11:26:17Z</time>
      </trkpt>
      <trkpt lat="39.6974020" lon="-3.9698690">
        <ele>761.3</ele>
        <time>2019-08-12T11:26:18Z</time>
      </trkpt>
      <trkpt lat="39.6974480" lon="-3.9698920">
        <ele>761.3</ele>
        <time>2019-08-12T11:26:19Z</time>
      </trkpt>
      <trkpt lat="39.6974930" lon="-3.9699150">
        <ele>761.4</ele>
        <time>2019-08-12T11:26:20Z</time>
      </trkpt>
      <trkpt lat="39.6975380" lon="-3.9699370">
        <ele>761.4</ele>
        <time>2019-08-12T11:26:21Z</time>
      </trkpt>
      <trkpt lat="39.6975820" lon="-3.9699600">
        <ele>761.4</ele>
        <time>2019-08-12T11:26:22Z</time>
      </trkpt>
      <trkpt lat="39.6976260" lon="-3.9699820">
        <ele>761.5</ele>
        <time>2019-08-12T11:26:23Z</time>
      </trkpt>
      <trkpt lat="39.6976710" lon="-3.9700040">
        <ele>761.5</ele>
        <time>2019-08-12T11:26:24Z</time>
      </trkpt>
      <trkpt lat="39.6977150" lon="-3.9700260">
        <ele>761.6</ele>
        <time>2019-08-12T11:26:25Z</time>
      </trkpt>
      <trkpt lat="39.6977600" lon="-3.9700480">
        <ele>761.6</ele>
        <time>2019-08-12T11:26:26Z</time>
      </trkpt>
      <trkpt lat="39.6978050" lon="-3.9700700">
        <ele>761.6</ele>
        <time>2019-08-12T11:26:27Z</time>
      </trkpt>
      <trkpt lat="39.6978510" lon="-3.9700920">
        <ele>761.7</ele>
        <time>2019-08-12T11:26:28Z</time>
      </trkpt>
      <trkpt lat="39.6978960" lon="-3.9701140">
        <ele>761.7</ele>
        <time>2019-08-12T11:26:29Z</time>
      </trkpt>
      <trkpt lat="39.6979410" lon="-3.9701360">
        <ele>761.7</ele>
        <time>2019-08-12T11:26:30Z</time>
      </trkpt>
      <trkpt lat="39.6979870" lon="-3.9701580">
        <ele>761.8</ele>
        <time>2019-08-12T11:26:31Z</time>
      </trkpt>
      <trkpt lat="39.6980320" lon="-3.9701790">
        <ele>761.8</ele>
        <time>2019-08-12T11:26:32Z</time>
      </trkpt>
      <trkpt lat="39.6980780" lon="-3.9702010">
        <ele>761.8</ele>
        <time>2019-08-12T11:26:33Z</time>
      </trkpt>
      <trkpt lat="39.6981230" lon="-3.9702220">
        <ele>761.9</ele>
        <time>2019-08-12T11:26:34Z</time>
      </trkpt>
      <trkpt lat="39.6981680" lon="-3.9702430">
        <ele>761.9</ele>
        <time>2019-08-12T11:26:35Z</time>
      </trkpt>
      <trkpt lat="39.6982120" lon="-3.9702630">
        <ele>761.9</ele>
        <time>2019-08-12T11:26:36Z</time>
      </trkpt>
      <trkpt lat="39.6982570" lon="-3.9702840">
        <ele>762.0</ele>
        <time>2019-08-12T11:26:37Z</time>
      </trkpt>
      <trkpt lat="39.6983010" lon="-3.9703040">
        <ele>762.0</ele>
        <time>2019-08-12T11:26:38Z</time>
      </trkpt>
      <trkpt lat="39.6983460" lon="-3.9703240">
        <ele>762.0</ele>
        <time>2019-08-12T11:26:39Z</time>
      </trkpt>
      <trkpt lat="39.6983900" lon="-3.9703450">
        <ele>762.1</ele>
        <time>2019-08-12T11:26:40Z</time>
      </trkpt>
      <trkpt lat="39.6984350" lon="-3.9703650">
        <ele>762.1</ele>
        <time>2019-08-12T11:26:41Z</time>
      </trkpt>
      <trkpt lat="39.6984800" lon="-3.9703850">
        <ele>762.1</ele>
        <time>2019-08-12T11:26:42Z</time>
      </trkpt>
      <trkpt lat="39.6985250" lon="-3.9704060">
        <ele>762.1</ele>
        <time>2019-08-12T11:26:43Z</time>
      </trkpt>
      <trkpt lat="39.6985710" lon="-3.9704260">
        <ele>762.2</ele>
        <time>2019-08-12T11:26:44Z</time>
      </trkpt>
      <trkpt lat="39.6986160" lon="-3.9704470">
        <ele>762.2</ele>
        <time>2019-08-12T11:26:45Z</time>
      </trkpt>
      <trkpt lat="39.6986620" lon="-3.9704680">
        <ele>762.2</ele>
        <time>2019-08-12T11:26:46Z</time>
      </trkpt>
      <trkpt lat="39.6987080" lon="-3.9704890">
        <ele>762.3</ele>
        <time>2019-08-12T11:26:47Z</time>
      </trkpt>
      <trkpt lat="39.6987550" lon="-3.9705100">
        <ele>762.3</ele>
        <time>2019-08-12T11:26:48Z</time>
      </trkpt>
      <trkpt lat="39.6988010" lon="-3.9705320">
        <ele>762.3</ele>
        <time>2019-08-12T11:26:49Z</time>
      </trkpt>
      <trkpt lat="39.6988470" lon="-3.9705540">
        <ele>762.4</ele>
        <time>2019-08-12T11:26:50Z</time>
      </trkpt>
      <trkpt lat="39.6988930" lon="-3.9705760">
        <ele>762.4</ele>
        <time>2019-08-12T11:26:51Z</time>
      </trkpt>
      <trkpt lat="39.6989390" lon="-3.9705980">
        <ele>762.4</ele>
        <time>2019-08-12T11:26:52Z</time>
      </trkpt>
      <trkpt lat="39.6989850" lon="-3.9706200">
        <ele>762.5</ele>
        <time>2019-08-12T11:26:53Z</time>
      </trkpt>
      <trkpt lat="39.6990310" lon="-3.9706430">
        <ele>762.6</ele>
        <time>2019-08-12T11:26:54Z</time>
      </trkpt>
      <trkpt lat="39.6990770" lon="-3.9706660">
        <ele>762.6</ele>
        <time>2019-08-12T11:26:55Z</time>
      </trkpt>
      <trkpt lat="39.6991230" lon="-3.9706880">
        <ele>762.7</ele>
        <time>2019-08-12T11:26:56Z</time>
      </trkpt>
      <trkpt lat="39.6991700" lon="-3.9707100">
        <ele>762.8</ele>
        <time>2019-08-12T11:26:57Z</time>
      </trkpt>
      <trkpt lat="39.6992160" lon="-3.9707320">
        <ele>762.9</ele>
        <time>2019-08-12T11:26:58Z</time>
      </trkpt>
      <trkpt lat="39.6992630" lon="-3.9707530">
        <ele>762.9</ele>
        <time>2019-08-12T11:26:59Z</time>
      </trkpt>
      <trkpt lat="39.6993100" lon="-3.9707740">
        <ele>763.0</ele>
        <time>2019-08-12T11:27:00Z</time>
      </trkpt>
      <trkpt lat="39.6993570" lon="-3.9707950">
        <ele>763.1</ele>
        <time>2019-08-12T11:27:01Z</time>
      </trkpt>
      <trkpt lat="39.6994040" lon="-3.9708160">
        <ele>763.2</ele>
        <time>2019-08-12T11:27:02Z</time>
      </trkpt>
      <trkpt lat="39.6994510" lon="-3.9708370">
        <ele>763.3</ele>
        <time>2019-08-12T11:27:03Z</time>
      </trkpt>
      <trkpt lat="39.6994980" lon="-3.9708570">
        <ele>763.4</ele>
        <time>2019-08-12T11:27:04Z</time>
      </trkpt>
      <trkpt lat="39.6995440" lon="-3.9708780">
        <ele>763.5</ele>
        <time>2019-08-12T11:27:05Z</time>
      </trkpt>
      <trkpt lat="39.6995910" lon="-3.9708990">
        <ele>763.6</ele>
        <time>2019-08-12T11:27:06Z</time>
      </trkpt>
      <trkpt lat="39.6996380" lon="-3.9709200">
        <ele>763.8</ele>
        <time>2019-08-12T11:27:07Z</time>
      </trkpt>
      <trkpt lat="39.6996850" lon="-3.9709410">
        <ele>763.9</ele>
        <time>2019-08-12T11:27:08Z</time>
      </trkpt>
      <trkpt lat="39.6997320" lon="-3.9709620">
        <ele>764.0</ele>
        <time>2019-08-12T11:27:09Z</time>
      </trkpt>
      <trkpt lat="39.6997790" lon="-3.9709830">
        <ele>764.1</ele>
        <time>2019-08-12T11:27:10Z</time>
      </trkpt>
      <trkpt lat="39.6998260" lon="-3.9710050">
        <ele>764.2</ele>
        <time>2019-08-12T11:27:11Z</time>
      </trkpt>
      <trkpt lat="39.6998730" lon="-3.9710270">
        <ele>764.2</ele>
        <time>2019-08-12T11:27:12Z</time>
      </trkpt>
      <trkpt lat="39.6999210" lon="-3.9710490">
        <ele>764.3</ele>
        <time>2019-08-12T11:27:13Z</time>
      </trkpt>
      <trkpt lat="39.6999680" lon="-3.9710710">
        <ele>764.4</ele>
        <time>2019-08-12T11:27:14Z</time>
      </trkpt>
      <trkpt lat="39.7000160" lon="-3.9710930">
        <ele>764.5</ele>
        <time>2019-08-12T11:27:15Z</time>
      </trkpt>
      <trkpt lat="39.7000630" lon="-3.9711150">
        <ele>764.6</ele>
        <time>2019-08-12T11:27:16Z</time>
      </trkpt>
      <trkpt lat="39.7001110" lon="-3.9711370">
        <ele>764.6</ele>
        <time>2019-08-12T11:27:17Z</time>
      </trkpt>
      <trkpt lat="39.7001580" lon="-3.9711590">
        <ele>764.7</ele>
        <time>2019-08-12T11:27:18Z</time>
      </trkpt>
      <trkpt lat="39.7002060" lon="-3.9711810">
        <ele>764.8</ele>
        <time>2019-08-12T11:27:19Z</time>
      </trkpt>
      <trkpt lat="39.7002530" lon="-3.9712030">
        <ele>764.9</ele>
        <time>2019-08-12T11:27:20Z</time>
      </trkpt>
      <trkpt lat="39.7003010" lon="-3.9712240">
        <ele>764.9</ele>
        <time>2019-08-12T11:27:21Z</time>
      </trkpt>
      <trkpt lat="39.7003480" lon="-3.9712450">
        <ele>765.0</ele>
        <time>2019-08-12T11:27:22Z</time>
      </trkpt>
      <trkpt lat="39.7003950" lon="-3.9712660">
        <ele>765.1</ele>
        <time>2019-08-12T11:27:23Z</time>
      </trkpt>
      <trkpt lat="39.7004420" lon="-3.9712870">
        <ele>765.2</ele>
        <time>2019-08-12T11:27:24Z</time>
      </trkpt>
      <trkpt lat="39.7004890" lon="-3.9713070">
        <ele>765.2</ele>
        <time>2019-08-12T11:27:25Z</time>
      </trkpt>
      <trkpt lat="39.7005360" lon="-3.9713280">
        <ele>765.3</ele>
        <time>2019-08-12T11:27:26Z</time>
      </trkpt>
      <trkpt lat="39.7005830" lon="-3.9713480">
        <ele>765.4</ele>
        <time>2019-08-12T11:27:27Z</time>
      </trkpt>
      <trkpt lat="39.7006300" lon="-3.9713690">
        <ele>765.4</ele>
        <time>2019-08-12T11:27:28Z</time>
      </trkpt>
      <trkpt lat="39.7006770" lon="-3.9713890">
        <ele>765.5</ele>
        <time>2019-08-12T11:27:29Z</time>
      </trkpt>
      <trkpt lat="39.7007240" lon="-3.9714100">
        <ele>765.6</ele>
        <time>2019-08-12T11:27:30Z</time>
      </trkpt>
      <trkpt lat="39.7007720" lon="-3.9714310">
        <ele>765.6</ele>
        <time>2019-08-12T11:27:31Z</time>
      </trkpt>
      <trkpt lat="39.7008190" lon="-3.9714510">
        <ele>765.6</ele>
        <time>2019-08-12T11:27:32Z</time>
      </trkpt>
      <trkpt lat="39.7008660" lon="-3.9714720">
        <ele>765.7</ele>
        <time>2019-08-12T11:27:33Z</time>
      </trkpt>
      <trkpt lat="39.7009140" lon="-3.9714930">
        <ele>765.7</ele>
        <time>2019-08-12T11:27:34Z</time>
      </trkpt>
      <trkpt lat="39.7009610" lon="-3.9715140">
        <ele>765.8</ele>
        <time>2019-08-12T11:27:35Z</time>
      </trkpt>
      <trkpt lat="39.7010090" lon="-3.9715350">
        <ele>765.8</ele>
        <time>2019-08-12T11:27:36Z</time>
      </trkpt>
      <trkpt lat="39.7010560" lon="-3.9715570">
        <ele>765.8</ele>
        <time>2019-08-12T11:27:37Z</time>
      </trkpt>
      <trkpt lat="39.7011040" lon="-3.9715780">
        <ele>765.9</ele>
        <time>2019-08-12T11:27:38Z</time>
      </trkpt>
      <trkpt lat="39.7011520" lon="-3.9715990">
        <ele>765.9</ele>
        <time>2019-08-12T11:27:39Z</time>
      </trkpt>
      <trkpt lat="39.7011990" lon="-3.9716210">
        <ele>765.9</ele>
        <time>2019-08-12T11:27:40Z</time>
      </trkpt>
      <trkpt lat="39.7012470" lon="-3.9716420">
        <ele>766.0</ele>
        <time>2019-08-12T11:27:41Z</time>
      </trkpt>
      <trkpt lat="39.7012950" lon="-3.9716630">
        <ele>766.1</ele>
        <time>2019-08-12T11:27:42Z</time>
      </trkpt>
      <trkpt lat="39.7013420" lon="-3.9716850">
        <ele>766.1</ele>
        <time>2019-08-12T11:27:43Z</time>
      </trkpt>
      <trkpt lat="39.7013900" lon="-3.9717060">
        <ele>766.2</ele>
        <time>2019-08-12T11:27:44Z</time>
      </trkpt>
      <trkpt lat="39.7014380" lon="-3.9717270">
        <ele>766.3</ele>
        <time>2019-08-12T11:27:45Z</time>
      </trkpt>
      <trkpt lat="39.7014860" lon="-3.9717480">
        <ele>766.4</ele>
        <time>2019-08-12T11:27:46Z</time>
      </trkpt>
      <trkpt lat="39.7015340" lon="-3.9717680">
        <ele>766.5</ele>
        <time>2019-08-12T11:27:47Z</time>
      </trkpt>
      <trkpt lat="39.7015810" lon="-3.9717890">
        <ele>766.6</ele>
        <time>2019-08-12T11:27:48Z</time>
      </trkpt>
      <trkpt lat="39.7016290" lon="-3.9718090">
        <ele>766.7</ele>
        <time>2019-08-12T11:27:49Z</time>
      </trkpt>
      <trkpt lat="39.7016770" lon="-3.9718290">
        <ele>766.8</ele>
        <time>2019-08-12T11:27:50Z</time>
      </trkpt>
      <trkpt lat="39.7017250" lon="-3.9718490">
        <ele>766.9</ele>
        <time>2019-08-12T11:27:51Z</time>
      </trkpt>
      <trkpt lat="39.7017730" lon="-3.9718690">
        <ele>767.0</ele>
        <time>2019-08-12T11:27:52Z</time>
      </trkpt>
      <trkpt lat="39.7018210" lon="-3.9718890">
        <ele>767.0</ele>
        <time>2019-08-12T11:27:53Z</time>
      </trkpt>
      <trkpt lat="39.7018690" lon="-3.9719080">
        <ele>767.1</ele>
        <time>2019-08-12T11:27:54Z</time>
      </trkpt>
      <trkpt lat="39.7019170" lon="-3.9719280">
        <ele>767.1</ele>
        <time>2019-08-12T11:27:55Z</time>
      </trkpt>
      <trkpt lat="39.7019660" lon="-3.9719470">
        <ele>767.2</ele>
        <time>2019-08-12T11:27:56Z</time>
      </trkpt>
      <trkpt lat="39.7020150" lon="-3.9719670">
        <ele>767.2</ele>
        <time>2019-08-12T11:27:57Z</time>
      </trkpt>
      <trkpt lat="39.7020640" lon="-3.9719860">
        <ele>767.3</ele>
        <time>2019-08-12T11:27:58Z</time>
      </trkpt>
      <trkpt lat="39.7021130" lon="-3.9720060">
        <ele>767.3</ele>
        <time>2019-08-12T11:27:59Z</time>
      </trkpt>
      <trkpt lat="39.7021630" lon="-3.9720260">
        <ele>767.3</ele>
        <time>2019-08-12T11:28:00Z</time>
      </trkpt>
      <trkpt lat="39.7022120" lon="-3.9720460">
        <ele>767.4</ele>
        <time>2019-08-12T11:28:01Z</time>
      </trkpt>
      <trkpt lat="39.7022620" lon="-3.9720660">
        <ele>767.4</ele>
        <time>2019-08-12T11:28:02Z</time>
      </trkpt>
      <trkpt lat="39.7023130" lon="-3.9720850">
        <ele>767.4</ele>
        <time>2019-08-12T11:28:03Z</time>
      </trkpt>
      <trkpt lat="39.7023630" lon="-3.9721050">
        <ele>767.5</ele>
        <time>2019-08-12T11:28:04Z</time>
      </trkpt>
      <trkpt lat="39.7024140" lon="-3.9721260">
        <ele>767.5</ele>
        <time>2019-08-12T11:28:05Z</time>
      </trkpt>
      <trkpt lat="39.7024650" lon="-3.9721460">
        <ele>767.5</ele>
        <time>2019-08-12T11:28:06Z</time>
      </trkpt>
      <trkpt lat="39.7025160" lon="-3.9721660">
        <ele>767.6</ele>
        <time>2019-08-12T11:28:07Z</time>
      </trkpt>
      <trkpt lat="39.7025670" lon="-3.9721860">
        <ele>767.6</ele>
        <time>2019-08-12T11:28:08Z</time>
      </trkpt>
      <trkpt lat="39.7026180" lon="-3.9722060">
        <ele>767.7</ele>
        <time>2019-08-12T11:28:09Z</time>
      </trkpt>
      <trkpt lat="39.7026700" lon="-3.9722270">
        <ele>767.7</ele>
        <time>2019-08-12T11:28:10Z</time>
      </trkpt>
      <trkpt lat="39.7027220" lon="-3.9722470">
        <ele>767.8</ele>
        <time>2019-08-12T11:28:11Z</time>
      </trkpt>
      <trkpt lat="39.7027740" lon="-3.9722680">
        <ele>767.9</ele>
        <time>2019-08-12T11:28:12Z</time>
      </trkpt>
      <trkpt lat="39.7028270" lon="-3.9722880">
        <ele>767.9</ele>
        <time>2019-08-12T11:28:13Z</time>
      </trkpt>
      <trkpt lat="39.7028790" lon="-3.9723090">
        <ele>768.0</ele>
        <time>2019-08-12T11:28:14Z</time>
      </trkpt>
      <trkpt lat="39.7029320" lon="-3.9723290">
        <ele>768.1</ele>
        <time>2019-08-12T11:28:15Z</time>
      </trkpt>
      <trkpt lat="39.7029860" lon="-3.9723500">
        <ele>768.2</ele>
        <time>2019-08-12T11:28:16Z</time>
      </trkpt>
      <trkpt lat="39.7030390" lon="-3.9723710">
        <ele>768.3</ele>
        <time>2019-08-12T11:28:17Z</time>
      </trkpt>
      <trkpt lat="39.7030930" lon="-3.9723920">
        <ele>768.4</ele>
        <time>2019-08-12T11:28:18Z</time>
      </trkpt>
      <trkpt lat="39.7031470" lon="-3.9724120">
        <ele>768.5</ele>
        <time>2019-08-12T11:28:19Z</time>
      </trkpt>
      <trkpt lat="39.7032010" lon="-3.9724330">
        <ele>768.5</ele>
        <time>2019-08-12T11:28:20Z</time>
      </trkpt>
      <trkpt lat="39.7032560" lon="-3.9724540">
        <ele>768.6</ele>
        <time>2019-08-12T11:28:21Z</time>
      </trkpt>
      <trkpt lat="39.7033100" lon="-3.9724750">
        <ele>768.7</ele>
        <time>2019-08-12T11:28:22Z</time>
      </trkpt>
      <trkpt lat="39.7033650" lon="-3.9724960">
        <ele>768.8</ele>
        <time>2019-08-12T11:28:23Z</time>
      </trkpt>
      <trkpt lat="39.7034200" lon="-3.9725160">
        <ele>768.9</ele>
        <time>2019-08-12T11:28:24Z</time>
      </trkpt>
      <trkpt lat="39.7034750" lon="-3.9725370">
        <ele>769.0</ele>
        <time>2019-08-12T11:28:25Z</time>
      </trkpt>
      <trkpt lat="39.7035300" lon="-3.9725580">
        <ele>769.1</ele>
        <time>2019-08-12T11:28:26Z</time>
      </trkpt>
      <trkpt lat="39.7035850" lon="-3.9725790">
        <ele>769.2</ele>
        <time>2019-08-12T11:28:27Z</time>
      </trkpt>
      <trkpt lat="39.7036400" lon="-3.9726000">
        <ele>769.3</ele>
        <time>2019-08-12T11:28:28Z</time>
      </trkpt>
      <trkpt lat="39.7036950" lon="-3.9726210">
        <ele>769.4</ele>
        <time>2019-08-12T11:28:29Z</time>
      </trkpt>
      <trkpt lat="39.7037500" lon="-3.9726410">
        <ele>769.5</ele>
        <time>2019-08-12T11:28:30Z</time>
      </trkpt>
      <trkpt lat="39.7038050" lon="-3.9726620">
        <ele>769.6</ele>
        <time>2019-08-12T11:28:31Z</time>
      </trkpt>
      <trkpt lat="39.7038600" lon="-3.9726830">
        <ele>769.7</ele>
        <time>2019-08-12T11:28:32Z</time>
      </trkpt>
      <trkpt lat="39.7039150" lon="-3.9727040">
        <ele>769.8</ele>
        <time>2019-08-12T11:28:33Z</time>
      </trkpt>
      <trkpt lat="39.7039700" lon="-3.9727240">
        <ele>769.8</ele>
        <time>2019-08-12T11:28:34Z</time>
      </trkpt>
      <trkpt lat="39.7040240" lon="-3.9727450">
        <ele>769.9</ele>
        <time>2019-08-12T11:28:35Z</time>
      </trkpt>
      <trkpt lat="39.7040790" lon="-3.9727660">
        <ele>770.0</ele>
        <time>2019-08-12T11:28:36Z</time>
      </trkpt>
      <trkpt lat="39.7041330" lon="-3.9727860">
        <ele>770.0</ele>
        <time>2019-08-12T11:28:37Z</time>
      </trkpt>
      <trkpt lat="39.7041870" lon="-3.9728060">
        <ele>770.1</ele>
        <time>2019-08-12T11:28:38Z</time>
      </trkpt>
      <trkpt lat="39.7042420" lon="-3.9728260">
        <ele>770.2</ele>
        <time>2019-08-12T11:28:39Z</time>
      </trkpt>
      <trkpt lat="39.7042960" lon="-3.9728460">
        <ele>770.3</ele>
        <time>2019-08-12T11:28:40Z</time>
      </trkpt>
      <trkpt lat="39.7043500" lon="-3.9728650">
        <ele>770.4</ele>
        <time>2019-08-12T11:28:41Z</time>
      </trkpt>
      <trkpt lat="39.7044030" lon="-3.9728840">
        <ele>770.5</ele>
        <time>2019-08-12T11:28:42Z</time>
      </trkpt>
      <trkpt lat="39.7044570" lon="-3.9729020">
        <ele>770.6</ele>
        <time>2019-08-12T11:28:43Z</time>
      </trkpt>
      <trkpt lat="39.7045110" lon="-3.9729200">
        <ele>770.7</ele>
        <time>2019-08-12T11:28:44Z</time>
      </trkpt>
      <trkpt lat="39.7045650" lon="-3.9729370">
        <ele>770.8</ele>
        <time>2019-08-12T11:28:45Z</time>
      </trkpt>
      <trkpt lat="39.7046180" lon="-3.9729540">
        <ele>770.9</ele>
        <time>2019-08-12T11:28:46Z</time>
      </trkpt>
      <trkpt lat="39.7046720" lon="-3.9729710">
        <ele>771.0</ele>
        <time>2019-08-12T11:28:47Z</time>
      </trkpt>
      <trkpt lat="39.7047260" lon="-3.9729880">
        <ele>771.1</ele>
        <time>2019-08-12T11:28:48Z</time>
      </trkpt>
      <trkpt lat="39.7047790" lon="-3.9730040">
        <ele>771.2</ele>
        <time>2019-08-12T11:28:49Z</time>
      </trkpt>
      <trkpt lat="39.7048330" lon="-3.9730210">
        <ele>771.3</ele>
        <time>2019-08-12T11:28:50Z</time>
      </trkpt>
      <trkpt lat="39.7048870" lon="-3.9730380">
        <ele>771.3</ele>
        <time>2019-08-12T11:28:51Z</time>
      </trkpt>
      <trkpt lat="39.7049410" lon="-3.9730550">
        <ele>771.4</ele>
        <time>2019-08-12T11:28:52Z</time>
      </trkpt>
      <trkpt lat="39.7049950" lon="-3.9730720">
        <ele>771.5</ele>
        <time>2019-08-12T11:28:53Z</time>
      </trkpt>
      <trkpt lat="39.7050490" lon="-3.9730900">
        <ele>771.5</ele>
        <time>2019-08-12T11:28:54Z</time>
      </trkpt>
      <trkpt lat="39.7051030" lon="-3.9731080">
        <ele>771.6</ele>
        <time>2019-08-12T11:28:55Z</time>
      </trkpt>
      <trkpt lat="39.7051560" lon="-3.9731250">
        <ele>771.7</ele>
        <time>2019-08-12T11:28:56Z</time>
      </trkpt>
      <trkpt lat="39.7052090" lon="-3.9731430">
        <ele>771.7</ele>
        <time>2019-08-12T11:28:57Z</time>
      </trkpt>
      <trkpt lat="39.7052600" lon="-3.9731610">
        <ele>771.8</ele>
        <time>2019-08-12T11:28:58Z</time>
      </trkpt>
      <trkpt lat="39.7053100" lon="-3.9731780">
        <ele>771.8</ele>
        <time>2019-08-12T11:28:59Z</time>
      </trkpt>
      <trkpt lat="39.7053590" lon="-3.9731950">
        <ele>771.9</ele>
        <time>2019-08-12T11:29:00Z</time>
      </trkpt>
      <trkpt lat="39.7054060" lon="-3.9732120">
        <ele>771.9</ele>
        <time>2019-08-12T11:29:01Z</time>
      </trkpt>
      <trkpt lat="39.7054510" lon="-3.9732280">
        <ele>771.9</ele>
        <time>2019-08-12T11:29:02Z</time>
      </trkpt>
      <trkpt lat="39.7054940" lon="-3.9732440">
        <ele>772.0</ele>
        <time>2019-08-12T11:29:03Z</time>
      </trkpt>
      <trkpt lat="39.7055360" lon="-3.9732590">
        <ele>772.0</ele>
        <time>2019-08-12T11:29:04Z</time>
      </trkpt>
      <trkpt lat="39.7055770" lon="-3.9732740">
        <ele>772.1</ele>
        <time>2019-08-12T11:29:05Z</time>
      </trkpt>
      <trkpt lat="39.7056170" lon="-3.9732880">
        <ele>772.1</ele>
        <time>2019-08-12T11:29:06Z</time>
      </trkpt>
      <trkpt lat="39.7056560" lon="-3.9733030">
        <ele>772.2</ele>
        <time>2019-08-12T11:29:07Z</time>
      </trkpt>
      <trkpt lat="39.7056960" lon="-3.9733180">
        <ele>772.3</ele>
        <time>2019-08-12T11:29:08Z</time>
      </trkpt>
      <trkpt lat="39.7057350" lon="-3.9733330">
        <ele>772.3</ele>
        <time>2019-08-12T11:29:09Z</time>
      </trkpt>
      <trkpt lat="39.7057740" lon="-3.9733480">
        <ele>772.4</ele>
        <time>2019-08-12T11:29:10Z</time>
      </trkpt>
      <trkpt lat="39.7058140" lon="-3.9733640">
        <ele>772.5</ele>
        <time>2019-08-12T11:29:11Z</time>
      </trkpt>
      <trkpt lat="39.7058550" lon="-3.9733800">
        <ele>772.6</ele>
        <time>2019-08-12T11:29:12Z</time>
      </trkpt>
      <trkpt lat="39.7058960" lon="-3.9733960">
        <ele>772.8</ele>
        <time>2019-08-12T11:29:13Z</time>
      </trkpt>
      <trkpt lat="39.7059380" lon="-3.9734110">
        <ele>772.9</ele>
        <time>2019-08-12T11:29:14Z</time>
      </trkpt>
      <trkpt lat="39.7059810" lon="-3.9734270">
        <ele>773.0</ele>
        <time>2019-08-12T11:29:15Z</time>
      </trkpt>
      <trkpt lat="39.7060240" lon="-3.9734430">
        <ele>773.1</ele>
        <time>2019-08-12T11:29:16Z</time>
      </trkpt>
      <trkpt lat="39.7060680" lon="-3.9734580">
        <ele>773.3</ele>
        <time>2019-08-12T11:29:17Z</time>
      </trkpt>
      <trkpt lat="39.7061130" lon="-3.9734720">
        <ele>773.4</ele>
        <time>2019-08-12T11:29:18Z</time>
      </trkpt>
      <trkpt lat="39.7061580" lon="-3.9734850">
        <ele>773.5</ele>
        <time>2019-08-12T11:29:19Z</time>
      </trkpt>
      <trkpt lat="39.7062040" lon="-3.9734980">
        <ele>773.7</ele>
        <time>2019-08-12T11:29:20Z</time>
      </trkpt>
      <trkpt lat="39.7062510" lon="-3.9735090">
        <ele>773.8</ele>
        <time>2019-08-12T11:29:21Z</time>
      </trkpt>
      <trkpt lat="39.7062990" lon="-3.9735190">
        <ele>773.9</ele>
        <time>2019-08-12T11:29:22Z</time>
      </trkpt>
      <trkpt lat="39.7063470" lon="-3.9735260">
        <ele>774.1</ele>
        <time>2019-08-12T11:29:23Z</time>
      </trkpt>
      <trkpt lat="39.7063950" lon="-3.9735310">
        <ele>774.1</ele>
        <time>2019-08-12T11:29:24Z</time>
      </trkpt>
      <trkpt lat="39.7064440" lon="-3.9735330">
        <ele>774.2</ele>
        <time>2019-08-12T11:29:25Z</time>
      </trkpt>
      <trkpt lat="39.7064930" lon="-3.9735300">
        <ele>774.3</ele>
        <time>2019-08-12T11:29:26Z</time>
      </trkpt>
      <trkpt lat="39.7065420" lon="-3.9735270">
        <ele>774.3</ele>
        <time>2019-08-12T11:29:27Z</time>
      </trkpt>
      <trkpt lat="39.7065920" lon="-3.9735180">
        <ele>774.4</ele>
        <time>2019-08-12T11:29:28Z</time>
      </trkpt>
      <trkpt lat="39.7066420" lon="-3.9735050">
        <ele>774.4</ele>
        <time>2019-08-12T11:29:29Z</time>
      </trkpt>
      <trkpt lat="39.7066910" lon="-3.9734880">
        <ele>774.4</ele>
        <time>2019-08-12T11:29:30Z</time>
      </trkpt>
      <trkpt lat="39.7067420" lon="-3.9734670">
        <ele>774.4</ele>
        <time>2019-08-12T11:29:31Z</time>
      </trkpt>
      <trkpt lat="39.7067920" lon="-3.9734430">
        <ele>774.4</ele>
        <time>2019-08-12T11:29:32Z</time>
      </trkpt>
      <trkpt lat="39.7068440" lon="-3.9734170">
        <ele>774.3</ele>
        <time>2019-08-12T11:29:33Z</time>
      </trkpt>
      <trkpt lat="39.7068960" lon="-3.9733880">
        <ele>774.2</ele>
        <time>2019-08-12T11:29:34Z</time>
      </trkpt>
      <trkpt lat="39.7069480" lon="-3.9733570">
        <ele>774.1</ele>
        <time>2019-08-12T11:29:35Z</time>
      </trkpt>
      <trkpt lat="39.7070020" lon="-3.9733250">
        <ele>774.0</ele>
        <time>2019-08-12T11:29:36Z</time>
      </trkpt>
      <trkpt lat="39.7070570" lon="-3.9732930">
        <ele>773.9</ele>
        <time>2019-08-12T11:29:37Z</time>
      </trkpt>
      <trkpt lat="39.7071130" lon="-3.9732600">
        <ele>773.7</ele>
        <time>2019-08-12T11:29:38Z</time>
      </trkpt>
      <trkpt lat="39.7071710" lon="-3.9732270">
        <ele>773.5</ele>
        <time>2019-08-12T11:29:39Z</time>
      </trkpt>
      <trkpt lat="39.7072300" lon="-3.9731950">
        <ele>773.3</ele>
        <time>2019-08-12T11:29:40Z</time>
      </trkpt>
      <trkpt lat="39.7072900" lon="-3.9731670">
        <ele>773.1</ele>
        <time>2019-08-12T11:29:41Z</time>
      </trkpt>
      <trkpt lat="39.7073510" lon="-3.9731420">
        <ele>772.9</ele>
        <time>2019-08-12T11:29:42Z</time>
      </trkpt>
      <trkpt lat="39.7074130" lon="-3.9731230">
        <ele>772.7</ele>
        <time>2019-08-12T11:29:43Z</time>
      </trkpt>
      <trkpt lat="39.7074750" lon="-3.9731110">
        <ele>772.5</ele>
        <time>2019-08-12T11:29:44Z</time>
      </trkpt>
      <trkpt lat="39.7075390" lon="-3.9731040">
        <ele>772.3</ele>
        <time>2019-08-12T11:29:45Z</time>
      </trkpt>
      <trkpt lat="39.7076040" lon="-3.9731010">
        <ele>772.1</ele>
        <time>2019-08-12T11:29:46Z</time>
      </trkpt>
      <trkpt lat="39.7076700" lon="-3.9731000">
        <ele>772.0</ele>
        <time>2019-08-12T11:29:47Z</time>
      </trkpt>
      <trkpt lat="39.7077370" lon="-3.9731010">
        <ele>771.7</ele>
        <time>2019-08-12T11:29:48Z</time>
      </trkpt>
      <trkpt lat="39.7078050" lon="-3.9731010">
        <ele>771.5</ele>
        <time>2019-08-12T11:29:49Z</time>
      </trkpt>
      <trkpt lat="39.7078730" lon="-3.9731000">
        <ele>771.3</ele>
        <time>2019-08-12T11:29:50Z</time>
      </trkpt>
      <trkpt lat="39.7079400" lon="-3.9730960">
        <ele>771.0</ele>
        <time>2019-08-12T11:29:51Z</time>
      </trkpt>
      <trkpt lat="39.7080070" lon="-3.9730920">
        <ele>770.8</ele>
        <time>2019-08-12T11:29:52Z</time>
      </trkpt>
      <trkpt lat="39.7080740" lon="-3.9730900">
        <ele>770.6</ele>
        <time>2019-08-12T11:29:53Z</time>
      </trkpt>
      <trkpt lat="39.7081380" lon="-3.9730930">
        <ele>770.4</ele>
        <time>2019-08-12T11:29:54Z</time>
      </trkpt>
      <trkpt lat="39.7081960" lon="-3.9731060">
        <ele>770.2</ele>
        <time>2019-08-12T11:29:55Z</time>
      </trkpt>
      <trkpt lat="39.7082460" lon="-3.9731320">
        <ele>770.1</ele>
        <time>2019-08-12T11:29:56Z</time>
      </trkpt>
      <trkpt lat="39.7082970" lon="-3.9731990">
        <ele>770.3</ele>
        <time>2019-08-12T11:29:57Z</time>
      </trkpt>
      <trkpt lat="39.7083100" lon="-3.9732250">
        <ele>770.3</ele>
        <time>2019-08-12T11:29:58Z</time>
      </trkpt>
      <trkpt lat="39.7083240" lon="-3.9732810">
        <ele>770.4</ele>
        <time>2019-08-12T11:29:59Z</time>
      </trkpt>
      <trkpt lat="39.7083270" lon="-3.9733370">
        <ele>770.5</ele>
        <time>2019-08-12T11:30:00Z</time>
      </trkpt>
      <trkpt lat="39.7083270" lon="-3.9733910">
        <ele>770.6</ele>
        <time>2019-08-12T11:30:01Z</time>
      </trkpt>
      <trkpt lat="39.7083310" lon="-3.9734430">
        <ele>770.6</ele>
        <time>2019-08-12T11:30:02Z</time>
      </trkpt>
      <trkpt lat="39.7083480" lon="-3.9735300">
        <ele>770.7</ele>
        <time>2019-08-12T11:30:03Z</time>
      </trkpt>
      <trkpt lat="39.7083560" lon="-3.9735650">
        <ele>770.8</ele>
        <time>2019-08-12T11:30:04Z</time>
      </trkpt>
      <trkpt lat="39.7083640" lon="-3.9736000">
        <ele>770.8</ele>
        <time>2019-08-12T11:30:05Z</time>
      </trkpt>
      <trkpt lat="39.7083770" lon="-3.9736570">
        <ele>770.9</ele>
        <time>2019-08-12T11:30:06Z</time>
      </trkpt>
      <trkpt lat="39.7083950" lon="-3.9737460">
        <ele>771.0</ele>
        <time>2019-08-12T11:30:07Z</time>
      </trkpt>
      <trkpt lat="39.7084000" lon="-3.9737770">
        <ele>771.1</ele>
        <time>2019-08-12T11:30:08Z</time>
      </trkpt>
      <trkpt lat="39.7084120" lon="-3.9738420">
        <ele>771.2</ele>
        <time>2019-08-12T11:30:09Z</time>
      </trkpt>
      <trkpt lat="39.7084230" lon="-3.9739090">
        <ele>771.3</ele>
        <time>2019-08-12T11:30:10Z</time>
      </trkpt>
      <trkpt lat="39.7084340" lon="-3.9739790">
        <ele>771.5</ele>
        <time>2019-08-12T11:30:11Z</time>
      </trkpt>
      <trkpt lat="39.7084440" lon="-3.9740500">
        <ele>771.7</ele>
        <time>2019-08-12T11:30:12Z</time>
      </trkpt>
      <trkpt lat="39.7084550" lon="-3.9741220">
        <ele>771.9</ele>
        <time>2019-08-12T11:30:13Z</time>
      </trkpt>
      <trkpt lat="39.7084660" lon="-3.9741940">
        <ele>772.1</ele>
        <time>2019-08-12T11:30:14Z</time>
      </trkpt>
      <trkpt lat="39.7084770" lon="-3.9742660">
        <ele>772.2</ele>
        <time>2019-08-12T11:30:15Z</time>
      </trkpt>
      <trkpt lat="39.7084880" lon="-3.9743360">
        <ele>772.3</ele>
        <time>2019-08-12T11:30:16Z</time>
      </trkpt>
      <trkpt lat="39.7084990" lon="-3.9744050">
        <ele>772.4</ele>
        <time>2019-08-12T11:30:17Z</time>
      </trkpt>
      <trkpt lat="39.7085110" lon="-3.9744730">
        <ele>772.5</ele>
        <time>2019-08-12T11:30:18Z</time>
      </trkpt>
      <trkpt lat="39.7085240" lon="-3.9745390">
        <ele>772.6</ele>
        <time>2019-08-12T11:30:19Z</time>
      </trkpt>
      <trkpt lat="39.7085370" lon="-3.9746060">
        <ele>772.6</ele>
        <time>2019-08-12T11:30:20Z</time>
      </trkpt>
      <trkpt lat="39.7085520" lon="-3.9746710">
        <ele>772.7</ele>
        <time>2019-08-12T11:30:21Z</time>
      </trkpt>
      <trkpt lat="39.7085670" lon="-3.9747350">
        <ele>772.8</ele>
        <time>2019-08-12T11:30:22Z</time>
      </trkpt>
      <trkpt lat="39.7085810" lon="-3.9747990">
        <ele>772.9</ele>
        <time>2019-08-12T11:30:23Z</time>
      </trkpt>
      <trkpt lat="39.7085950" lon="-3.9748610">
        <ele>773.1</ele>
        <time>2019-08-12T11:30:24Z</time>
      </trkpt>
      <trkpt lat="39.7086080" lon="-3.9749220">
        <ele>773.2</ele>
        <time>2019-08-12T11:30:25Z</time>
      </trkpt>
      <trkpt lat="39.7086200" lon="-3.9749810">
        <ele>773.3</ele>
        <time>2019-08-12T11:30:26Z</time>
      </trkpt>
      <trkpt lat="39.7086310" lon="-3.9750390">
        <ele>773.4</ele>
        <time>2019-08-12T11:30:27Z</time>
      </trkpt>
      <trkpt lat="39.7086420" lon="-3.9750960">
        <ele>773.5</ele>
        <time>2019-08-12T11:30:28Z</time>
      </trkpt>
      <trkpt lat="39.7086520" lon="-3.9751520">
        <ele>773.5</ele>
        <time>2019-08-12T11:30:29Z</time>
      </trkpt>
      <trkpt lat="39.7086620" lon="-3.9752080">
        <ele>773.6</ele>
        <time>2019-08-12T11:30:30Z</time>
      </trkpt>
      <trkpt lat="39.7086710" lon="-3.9752620">
        <ele>773.6</ele>
        <time>2019-08-12T11:30:31Z</time>
      </trkpt>
      <trkpt lat="39.7086810" lon="-3.9753170">
        <ele>773.7</ele>
        <time>2019-08-12T11:30:32Z</time>
      </trkpt>
      <trkpt lat="39.7086980" lon="-3.9754070">
        <ele>773.8</ele>
        <time>2019-08-12T11:30:33Z</time>
      </trkpt>
      <trkpt lat="39.7087050" lon="-3.9754420">
        <ele>773.8</ele>
        <time>2019-08-12T11:30:34Z</time>
      </trkpt>
      <trkpt lat="39.7087120" lon="-3.9754780">
        <ele>773.8</ele>
        <time>2019-08-12T11:30:35Z</time>
      </trkpt>
      <trkpt lat="39.7087230" lon="-3.9755310">
        <ele>773.9</ele>
        <time>2019-08-12T11:30:36Z</time>
      </trkpt>
      <trkpt lat="39.7087340" lon="-3.9755850">
        <ele>774.0</ele>
        <time>2019-08-12T11:30:37Z</time>
      </trkpt>
      <trkpt lat="39.7087520" lon="-3.9756740">
        <ele>774.2</ele>
        <time>2019-08-12T11:30:38Z</time>
      </trkpt>
      <trkpt lat="39.7087590" lon="-3.9757110">
        <ele>774.3</ele>
        <time>2019-08-12T11:30:39Z</time>
      </trkpt>
      <trkpt lat="39.7087660" lon="-3.9757470">
        <ele>774.3</ele>
        <time>2019-08-12T11:30:40Z</time>
      </trkpt>
      <trkpt lat="39.7087760" lon="-3.9758010">
        <ele>774.5</ele>
        <time>2019-08-12T11:30:41Z</time>
      </trkpt>
      <trkpt lat="39.7087860" lon="-3.9758570">
        <ele>774.6</ele>
        <time>2019-08-12T11:30:42Z</time>
      </trkpt>
      <trkpt lat="39.7087950" lon="-3.9759120">
        <ele>774.8</ele>
        <time>2019-08-12T11:30:43Z</time>
      </trkpt>
      <trkpt lat="39.7088040" lon="-3.9759680">
        <ele>775.0</ele>
        <time>2019-08-12T11:30:44Z</time>
      </trkpt>
      <trkpt lat="39.7088120" lon="-3.9760220">
        <ele>775.1</ele>
        <time>2019-08-12T11:30:45Z</time>
      </trkpt>
      <trkpt lat="39.7088200" lon="-3.9760740">
        <ele>775.3</ele>
        <time>2019-08-12T11:30:46Z</time>
      </trkpt>
      <trkpt lat="39.7088290" lon="-3.9761230">
        <ele>775.4</ele>
        <time>2019-08-12T11:30:47Z</time>
      </trkpt>
      <trkpt lat="39.7088380" lon="-3.9761680">
        <ele>775.6</ele>
        <time>2019-08-12T11:30:48Z</time>
      </trkpt>
      <trkpt lat="39.7088470" lon="-3.9762100">
        <ele>775.7</ele>
        <time>2019-08-12T11:30:49Z</time>
      </trkpt>
      <trkpt lat="39.7088560" lon="-3.9762500">
        <ele>775.8</ele>
        <time>2019-08-12T11:30:50Z</time>
      </trkpt>
      <trkpt lat="39.7088650" lon="-3.9762900">
        <ele>775.9</ele>
        <time>2019-08-12T11:30:51Z</time>
      </trkpt>
      <trkpt lat="39.7088740" lon="-3.9763290">
        <ele>776.0</ele>
        <time>2019-08-12T11:30:52Z</time>
      </trkpt>
      <trkpt lat="39.7088820" lon="-3.9763690">
        <ele>776.1</ele>
        <time>2019-08-12T11:30:53Z</time>
      </trkpt>
      <trkpt lat="39.7088900" lon="-3.9764100">
        <ele>776.2</ele>
        <time>2019-08-12T11:30:54Z</time>
      </trkpt>
      <trkpt lat="39.7088980" lon="-3.9764510">
        <ele>776.3</ele>
        <time>2019-08-12T11:30:55Z</time>
      </trkpt>
      <trkpt lat="39.7089050" lon="-3.9764940">
        <ele>776.4</ele>
        <time>2019-08-12T11:30:56Z</time>
      </trkpt>
      <trkpt lat="39.7089120" lon="-3.9765370">
        <ele>776.5</ele>
        <time>2019-08-12T11:30:57Z</time>
      </trkpt>
      <trkpt lat="39.7089200" lon="-3.9765810">
        <ele>776.6</ele>
        <time>2019-08-12T11:30:58Z</time>
      </trkpt>
      <trkpt lat="39.7089270" lon="-3.9766260">
        <ele>776.6</ele>
        <time>2019-08-12T11:30:59Z</time>
      </trkpt>
      <trkpt lat="39.7089350" lon="-3.9766720">
        <ele>776.7</ele>
        <time>2019-08-12T11:31:00Z</time>
      </trkpt>
      <trkpt lat="39.7089420" lon="-3.9767170">
        <ele>776.7</ele>
        <time>2019-08-12T11:31:01Z</time>
      </trkpt>
      <trkpt lat="39.7089510" lon="-3.9767640">
        <ele>776.8</ele>
        <time>2019-08-12T11:31:02Z</time>
      </trkpt>
      <trkpt lat="39.7089590" lon="-3.9768100">
        <ele>776.8</ele>
        <time>2019-08-12T11:31:03Z</time>
      </trkpt>
      <trkpt lat="39.7089700" lon="-3.9768550">
        <ele>776.8</ele>
        <time>2019-08-12T11:31:04Z</time>
      </trkpt>
      <trkpt lat="39.7089810" lon="-3.9768990">
        <ele>776.9</ele>
        <time>2019-08-12T11:31:05Z</time>
      </trkpt>
      <trkpt lat="39.7089950" lon="-3.9769400">
        <ele>776.9</ele>
        <time>2019-08-12T11:31:06Z</time>
      </trkpt>
      <trkpt lat="39.7090100" lon="-3.9769770">
        <ele>776.9</ele>
        <time>2019-08-12T11:31:07Z</time>
      </trkpt>
      <trkpt lat="39.7090290" lon="-3.9770110">
        <ele>776.9</ele>
        <time>2019-08-12T11:31:08Z</time>
      </trkpt>
      <trkpt lat="39.7090500" lon="-3.9770400">
        <ele>776.9</ele>
        <time>2019-08-12T11:31:09Z</time>
      </trkpt>
      <trkpt lat="39.7090760" lon="-3.9770640">
        <ele>777.2</ele>
        <time>2019-08-12T11:31:10Z</time>
      </trkpt>
      <trkpt lat="39.7091040" lon="-3.9770810">
        <ele>777.2</ele>
        <time>2019-08-12T11:31:11Z</time>
      </trkpt>
      <trkpt lat="39.7091360" lon="-3.9770930">
        <ele>777.3</ele>
        <time>2019-08-12T11:31:12Z</time>
      </trkpt>
      <trkpt lat="39.7091710" lon="-3.9770990">
        <ele>777.4</ele>
        <time>2019-08-12T11:31:13Z</time>
      </trkpt>
      <trkpt lat="39.7092070" lon="-3.9770980">
        <ele>777.5</ele>
        <time>2019-08-12T11:31:14Z</time>
      </trkpt>
      <trkpt lat="39.7092440" lon="-3.9770930">
        <ele>777.6</ele>
        <time>2019-08-12T11:31:15Z</time>
      </trkpt>
      <trkpt lat="39.7092820" lon="-3.9770810">
        <ele>777.7</ele>
        <time>2019-08-12T11:31:16Z</time>
      </trkpt>
      <trkpt lat="39.7093200" lon="-3.9770660">
        <ele>777.8</ele>
        <time>2019-08-12T11:31:17Z</time>
      </trkpt>
      <trkpt lat="39.7093580" lon="-3.9770470">
        <ele>777.9</ele>
        <time>2019-08-12T11:31:18Z</time>
      </trkpt>
      <trkpt lat="39.7093970" lon="-3.9770260">
        <ele>778.0</ele>
        <time>2019-08-12T11:31:19Z</time>
      </trkpt>
      <trkpt lat="39.7094370" lon="-3.9770040">
        <ele>778.1</ele>
        <time>2019-08-12T11:31:20Z</time>
      </trkpt>
      <trkpt lat="39.7094770" lon="-3.9769810">
        <ele>778.2</ele>
        <time>2019-08-12T11:31:21Z</time>
      </trkpt>
      <trkpt lat="39.7095170" lon="-3.9769580">
        <ele>778.5</ele>
        <time>2019-08-12T11:31:22Z</time>
      </trkpt>
      <trkpt lat="39.7095590" lon="-3.9769340">
        <ele>778.5</ele>
        <time>2019-08-12T11:31:23Z</time>
      </trkpt>
      <trkpt lat="39.7096020" lon="-3.9769100">
        <ele>778.5</ele>
        <time>2019-08-12T11:31:24Z</time>
      </trkpt>
      <trkpt lat="39.7096460" lon="-3.9768870">
        <ele>778.5</ele>
        <time>2019-08-12T11:31:25Z</time>
      </trkpt>
      <trkpt lat="39.7096910" lon="-3.9768630">
        <ele>778.5</ele>
        <time>2019-08-12T11:31:26Z</time>
      </trkpt>
      <trkpt lat="39.7097360" lon="-3.9768400">
        <ele>778.5</ele>
        <time>2019-08-12T11:31:27Z</time>
      </trkpt>
      <trkpt lat="39.7097820" lon="-3.9768170">
        <ele>778.5</ele>
        <time>2019-08-12T11:31:28Z</time>
      </trkpt>
      <trkpt lat="39.7098270" lon="-3.9767950">
        <ele>778.5</ele>
        <time>2019-08-12T11:31:29Z</time>
      </trkpt>
      <trkpt lat="39.7098720" lon="-3.9767750">
        <ele>778.5</ele>
        <time>2019-08-12T11:31:30Z</time>
      </trkpt>
      <trkpt lat="39.7099170" lon="-3.9767540">
        <ele>778.5</ele>
        <time>2019-08-12T11:31:31Z</time>
      </trkpt>
      <trkpt lat="39.7099610" lon="-3.9767340">
        <ele>778.5</ele>
        <time>2019-08-12T11:31:32Z</time>
      </trkpt>
      <trkpt lat="39.7100060" lon="-3.9767130">
        <ele>778.5</ele>
        <time>2019-08-12T11:31:33Z</time>
      </trkpt>
      <trkpt lat="39.7100500" lon="-3.9766920">
        <ele>778.6</ele>
        <time>2019-08-12T11:31:34Z</time>
      </trkpt>
      <trkpt lat="39.7100940" lon="-3.9766690">
        <ele>778.6</ele>
        <time>2019-08-12T11:31:35Z</time>
      </trkpt>
      <trkpt lat="39.7101390" lon="-3.9766460">
        <ele>778.6</ele>
        <time>2019-08-12T11:31:36Z</time>
      </trkpt>
      <trkpt lat="39.7101840" lon="-3.9766220">
        <ele>778.6</ele>
        <time>2019-08-12T11:31:37Z</time>
      </trkpt>
      <trkpt lat="39.7102300" lon="-3.9765980">
        <ele>778.6</ele>
        <time>2019-08-12T11:31:38Z</time>
      </trkpt>
      <trkpt lat="39.7102760" lon="-3.9765750">
        <ele>778.6</ele>
        <time>2019-08-12T11:31:39Z</time>
      </trkpt>
      <trkpt lat="39.7103230" lon="-3.9765520">
        <ele>778.5</ele>
        <time>2019-08-12T11:31:40Z</time>
      </trkpt>
      <trkpt lat="39.7103710" lon="-3.9765300">
        <ele>778.5</ele>
        <time>2019-08-12T11:31:41Z</time>
      </trkpt>
      <trkpt lat="39.7104180" lon="-3.9765080">
        <ele>778.5</ele>
        <time>2019-08-12T11:31:42Z</time>
      </trkpt>
      <trkpt lat="39.7104660" lon="-3.9764870">
        <ele>778.5</ele>
        <time>2019-08-12T11:31:43Z</time>
      </trkpt>
      <trkpt lat="39.7105140" lon="-3.9764660">
        <ele>778.5</ele>
        <time>2019-08-12T11:31:44Z</time>
      </trkpt>
      <trkpt lat="39.7105610" lon="-3.9764460">
        <ele>778.5</ele>
        <time>2019-08-12T11:31:45Z</time>
      </trkpt>
      <trkpt lat="39.7106080" lon="-3.9764270">
        <ele>778.5</ele>
        <time>2019-08-12T11:31:46Z</time>
      </trkpt>
      <trkpt lat="39.7106550" lon="-3.9764080">
        <ele>778.5</ele>
        <time>2019-08-12T11:31:47Z</time>
      </trkpt>
      <trkpt lat="39.7107000" lon="-3.9763900">
        <ele>778.5</ele>
        <time>2019-08-12T11:31:48Z</time>
      </trkpt>
      <trkpt lat="39.7107450" lon="-3.9763720">
        <ele>778.5</ele>
        <time>2019-08-12T11:31:49Z</time>
      </trkpt>
      <trkpt lat="39.7107890" lon="-3.9763550">
        <ele>778.5</ele>
        <time>2019-08-12T11:31:50Z</time>
      </trkpt>
      <trkpt lat="39.7108310" lon="-3.9763390">
        <ele>778.5</ele>
        <time>2019-08-12T11:31:51Z</time>
      </trkpt>
      <trkpt lat="39.7108720" lon="-3.9763230">
        <ele>778.5</ele>
        <time>2019-08-12T11:31:52Z</time>
      </trkpt>
      <trkpt lat="39.7109120" lon="-3.9763070">
        <ele>778.5</ele>
        <time>2019-08-12T11:31:53Z</time>
      </trkpt>
      <trkpt lat="39.7109510" lon="-3.9762920">
        <ele>778.6</ele>
        <time>2019-08-12T11:31:54Z</time>
      </trkpt>
      <trkpt lat="39.7109870" lon="-3.9762770">
        <ele>778.6</ele>
        <time>2019-08-12T11:31:55Z</time>
      </trkpt>
      <trkpt lat="39.7110220" lon="-3.9762630">
        <ele>778.6</ele>
        <time>2019-08-12T11:31:56Z</time>
      </trkpt>
      <trkpt lat="39.7110560" lon="-3.9762500">
        <ele>778.6</ele>
        <time>2019-08-12T11:31:57Z</time>
      </trkpt>
      <trkpt lat="39.7111110" lon="-3.9762260">
        <ele>778.6</ele>
        <time>2019-08-12T11:31:58Z</time>
      </trkpt>
      <trkpt lat="39.7111330" lon="-3.9762170">
        <ele>778.6</ele>
        <time>2019-08-12T11:31:59Z</time>
      </trkpt>
      <trkpt lat="39.7111560" lon="-3.9762070">
        <ele>778.6</ele>
        <time>2019-08-12T11:32:00Z</time>
      </trkpt>
      <trkpt lat="39.7111930" lon="-3.9761910">
        <ele>778.6</ele>
        <time>2019-08-12T11:32:01Z</time>
      </trkpt>
      <trkpt lat="39.7112340" lon="-3.9761740">
        <ele>778.6</ele>
        <time>2019-08-12T11:32:02Z</time>
      </trkpt>
      <trkpt lat="39.7113050" lon="-3.9761460">
        <ele>778.6</ele>
        <time>2019-08-12T11:32:03Z</time>
      </trkpt>
      <trkpt lat="39.7113350" lon="-3.9761350">
        <ele>778.6</ele>
        <time>2019-08-12T11:32:04Z</time>
      </trkpt>
      <trkpt lat="39.7113640" lon="-3.9761250">
        <ele>778.6</ele>
        <time>2019-08-12T11:32:05Z</time>
      </trkpt>
      <trkpt lat="39.7114060" lon="-3.9761130">
        <ele>778.6</ele>
        <time>2019-08-12T11:32:06Z</time>
      </trkpt>
      <trkpt lat="39.7114450" lon="-3.9761060">
        <ele>778.6</ele>
        <time>2019-08-12T11:32:07Z</time>
      </trkpt>
      <trkpt lat="39.7114960" lon="-3.9761190">
        <ele>778.5</ele>
        <time>2019-08-12T11:32:08Z</time>
      </trkpt>
      <trkpt lat="39.7115110" lon="-3.9761310">
        <ele>778.5</ele>
        <time>2019-08-12T11:32:09Z</time>
      </trkpt>
      <trkpt lat="39.7115400" lon="-3.9761550">
        <ele>778.5</ele>
        <time>2019-08-12T11:32:10Z</time>
      </trkpt>
      <trkpt lat="39.7115640" lon="-3.9762010">
        <ele>778.4</ele>
        <time>2019-08-12T11:32:11Z</time>
      </trkpt>
      <trkpt lat="39.7115840" lon="-3.9762550">
        <ele>778.4</ele>
        <time>2019-08-12T11:32:12Z</time>
      </trkpt>
      <trkpt lat="39.7116010" lon="-3.9763150">
        <ele>778.3</ele>
        <time>2019-08-12T11:32:13Z</time>
      </trkpt>
      <trkpt lat="39.7116160" lon="-3.9763790">
        <ele>778.3</ele>
        <time>2019-08-12T11:32:14Z</time>
      </trkpt>
      <trkpt lat="39.7116300" lon="-3.9764440">
        <ele>778.2</ele>
        <time>2019-08-12T11:32:15Z</time>
      </trkpt>
      <trkpt lat="39.7116440" lon="-3.9765080">
        <ele>778.1</ele>
        <time>2019-08-12T11:32:16Z</time>
      </trkpt>
      <trkpt lat="39.7116590" lon="-3.9765700">
        <ele>778.0</ele>
        <time>2019-08-12T11:32:17Z</time>
      </trkpt>
      <trkpt lat="39.7116750" lon="-3.9766320">
        <ele>777.9</ele>
        <time>2019-08-12T11:32:18Z</time>
      </trkpt>
      <trkpt lat="39.7116920" lon="-3.9766910">
        <ele>777.8</ele>
        <time>2019-08-12T11:32:19Z</time>
      </trkpt>
      <trkpt lat="39.7117100" lon="-3.9767500">
        <ele>777.7</ele>
        <time>2019-08-12T11:32:20Z</time>
      </trkpt>
      <trkpt lat="39.7117310" lon="-3.9768080">
        <ele>777.6</ele>
        <time>2019-08-12T11:32:21Z</time>
      </trkpt>
      <trkpt lat="39.7117520" lon="-3.9768650">
        <ele>777.5</ele>
        <time>2019-08-12T11:32:22Z</time>
      </trkpt>
      <trkpt lat="39.7117740" lon="-3.9769230">
        <ele>777.4</ele>
        <time>2019-08-12T11:32:23Z</time>
      </trkpt>
      <trkpt lat="39.7117950" lon="-3.9769820">
        <ele>777.3</ele>
        <time>2019-08-12T11:32:24Z</time>
      </trkpt>
      <trkpt lat="39.7118170" lon="-3.9770430">
        <ele>777.2</ele>
        <time>2019-08-12T11:32:25Z</time>
      </trkpt>
      <trkpt lat="39.7118370" lon="-3.9771060">
        <ele>777.1</ele>
        <time>2019-08-12T11:32:26Z</time>
      </trkpt>
      <trkpt lat="39.7118580" lon="-3.9771710">
        <ele>777.0</ele>
        <time>2019-08-12T11:32:27Z</time>
      </trkpt>
      <trkpt lat="39.7118780" lon="-3.9772360">
        <ele>776.9</ele>
        <time>2019-08-12T11:32:28Z</time>
      </trkpt>
      <trkpt lat="39.7118990" lon="-3.9773020">
        <ele>776.9</ele>
        <time>2019-08-12T11:32:29Z</time>
      </trkpt>
      <trkpt lat="39.7119190" lon="-3.9773690">
        <ele>776.8</ele>
        <time>2019-08-12T11:32:30Z</time>
      </trkpt>
      <trkpt lat="39.7119400" lon="-3.9774360">
        <ele>776.8</ele>
        <time>2019-08-12T11:32:31Z</time>
      </trkpt>
      <trkpt lat="39.7119610" lon="-3.9775020">
        <ele>776.8</ele>
        <time>2019-08-12T11:32:32Z</time>
      </trkpt>
      <trkpt lat="39.7119830" lon="-3.9775680">
        <ele>776.8</ele>
        <time>2019-08-12T11:32:33Z</time>
      </trkpt>
      <trkpt lat="39.7120060" lon="-3.9776340">
        <ele>776.9</ele>
        <time>2019-08-12T11:32:34Z</time>
      </trkpt>
      <trkpt lat="39.7120290" lon="-3.9776980">
        <ele>777.0</ele>
        <time>2019-08-12T11:32:35Z</time>
      </trkpt>
      <trkpt lat="39.7120530" lon="-3.9777610">
        <ele>777.0</ele>
        <time>2019-08-12T11:32:36Z</time>
      </trkpt>
      <trkpt lat="39.7120760" lon="-3.9778230">
        <ele>777.1</ele>
        <time>2019-08-12T11:32:37Z</time>
      </trkpt>
      <trkpt lat="39.7120980" lon="-3.9778840">
        <ele>777.1</ele>
        <time>2019-08-12T11:32:38Z</time>
      </trkpt>
      <trkpt lat="39.7121200" lon="-3.9779440">
        <ele>777.2</ele>
        <time>2019-08-12T11:32:39Z</time>
      </trkpt>
      <trkpt lat="39.7121410" lon="-3.9780020">
        <ele>777.3</ele>
        <time>2019-08-12T11:32:40Z</time>
      </trkpt>
      <trkpt lat="39.7121650" lon="-3.9780580">
        <ele>777.4</ele>
        <time>2019-08-12T11:32:41Z</time>
      </trkpt>
      <trkpt lat="39.7121910" lon="-3.9781120">
        <ele>777.4</ele>
        <time>2019-08-12T11:32:42Z</time>
      </trkpt>
      <trkpt lat="39.7122220" lon="-3.9781620">
        <ele>777.5</ele>
        <time>2019-08-12T11:32:43Z</time>
      </trkpt>
      <trkpt lat="39.7122590" lon="-3.9782080">
        <ele>777.6</ele>
        <time>2019-08-12T11:32:44Z</time>
      </trkpt>
      <trkpt lat="39.7123000" lon="-3.9782490">
        <ele>777.6</ele>
        <time>2019-08-12T11:32:45Z</time>
      </trkpt>
      <trkpt lat="39.7123440" lon="-3.9782850">
        <ele>777.6</ele>
        <time>2019-08-12T11:32:46Z</time>
      </trkpt>
      <trkpt lat="39.7123880" lon="-3.9783140">
        <ele>777.6</ele>
        <time>2019-08-12T11:32:47Z</time>
      </trkpt>
      <trkpt lat="39.7124330" lon="-3.9783360">
        <ele>777.7</ele>
        <time>2019-08-12T11:32:48Z</time>
      </trkpt>
      <trkpt lat="39.7124750" lon="-3.9783520">
        <ele>777.7</ele>
        <time>2019-08-12T11:32:49Z</time>
      </trkpt>
      <trkpt lat="39.7125100" lon="-3.9783710">
        <ele>777.7</ele>
        <time>2019-08-12T11:32:50Z</time>
      </trkpt>
      <trkpt lat="39.7125360" lon="-3.9784010">
        <ele>777.7</ele>
        <time>2019-08-12T11:32:51Z</time>
      </trkpt>
      <trkpt lat="39.7125540" lon="-3.9784380">
        <ele>777.7</ele>
        <time>2019-08-12T11:32:52Z</time>
      </trkpt>
      <trkpt lat="39.7125680" lon="-3.9784710">
        <ele>777.7</ele>
        <time>2019-08-12T11:32:53Z</time>
      </trkpt>
      <trkpt lat="39.7125800" lon="-3.9784990">
        <ele>777.7</ele>
        <time>2019-08-12T11:32:54Z</time>
      </trkpt>
      <trkpt lat="39.7125920" lon="-3.9785190">
        <ele>777.7</ele>
        <time>2019-08-12T11:32:55Z</time>
      </trkpt>
      <trkpt lat="39.7126040" lon="-3.9785300">
        <ele>777.7</ele>
        <time>2019-08-12T11:32:56Z</time>
      </trkpt>
      <trkpt lat="39.7126200" lon="-3.9785310">
        <ele>777.7</ele>
        <time>2019-08-12T11:32:57Z</time>
      </trkpt>
      <trkpt lat="39.7126410" lon="-3.9785210">
        <ele>777.7</ele>
        <time>2019-08-12T11:32:58Z</time>
      </trkpt>
      <trkpt lat="39.7126660" lon="-3.9785040">
        <ele>777.7</ele>
        <time>2019-08-12T11:32:59Z</time>
      </trkpt>
      <trkpt lat="39.7127150" lon="-3.9784800">
        <ele>777.7</ele>
        <time>2019-08-12T11:33:00Z</time>
      </trkpt>
      <trkpt lat="39.7127330" lon="-3.9784730">
        <ele>777.7</ele>
        <time>2019-08-12T11:33:01Z</time>
      </trkpt>
      <trkpt lat="39.7127740" lon="-3.9784670">
        <ele>777.7</ele>
        <time>2019-08-12T11:33:02Z</time>
      </trkpt>
      <trkpt lat="39.7128170" lon="-3.9784720">
        <ele>777.7</ele>
        <time>2019-08-12T11:33:03Z</time>
      </trkpt>
      <trkpt lat="39.7128570" lon="-3.9784860">
        <ele>777.7</ele>
        <time>2019-08-12T11:33:04Z</time>
      </trkpt>
      <trkpt lat="39.7128930" lon="-3.9785110">
        <ele>777.6</ele>
        <time>2019-08-12T11:33:05Z</time>
      </trkpt>
      <trkpt lat="39.7129180" lon="-3.9785470">
        <ele>777.5</ele>
        <time>2019-08-12T11:33:06Z</time>
      </trkpt>
      <trkpt lat="39.7129310" lon="-3.9785930">
        <ele>777.5</ele>
        <time>2019-08-12T11:33:07Z</time>
      </trkpt>
      <trkpt lat="39.7129350" lon="-3.9786460">
        <ele>777.4</ele>
        <time>2019-08-12T11:33:08Z</time>
      </trkpt>
      <trkpt lat="39.7129340" lon="-3.9787020">
        <ele>777.3</ele>
        <time>2019-08-12T11:33:09Z</time>
      </trkpt>
      <trkpt lat="39.7129330" lon="-3.9787580">
        <ele>777.2</ele>
        <time>2019-08-12T11:33:10Z</time>
      </trkpt>
      <trkpt lat="39.7129340" lon="-3.9788110">
        <ele>777.1</ele>
        <time>2019-08-12T11:33:11Z</time>
      </trkpt>
      <trkpt lat="39.7129380" lon="-3.9788610">
        <ele>777.0</ele>
        <time>2019-08-12T11:33:12Z</time>
      </trkpt>
      <trkpt lat="39.7129420" lon="-3.9789090">
        <ele>777.0</ele>
        <time>2019-08-12T11:33:13Z</time>
      </trkpt>
      <trkpt lat="39.7129460" lon="-3.9789570">
        <ele>776.9</ele>
        <time>2019-08-12T11:33:14Z</time>
      </trkpt>
      <trkpt lat="39.7129470" lon="-3.9790050">
        <ele>776.8</ele>
        <time>2019-08-12T11:33:15Z</time>
      </trkpt>
      <trkpt lat="39.7129440" lon="-3.9790530">
        <ele>776.7</ele>
        <time>2019-08-12T11:33:16Z</time>
      </trkpt>
      <trkpt lat="39.7129360" lon="-3.9791000">
        <ele>776.6</ele>
        <time>2019-08-12T11:33:17Z</time>
      </trkpt>
      <trkpt lat="39.7129220" lon="-3.9791420">
        <ele>776.6</ele>
        <time>2019-08-12T11:33:18Z</time>
      </trkpt>
      <trkpt lat="39.7129000" lon="-3.9791750">
        <ele>776.6</ele>
        <time>2019-08-12T11:33:19Z</time>
      </trkpt>
      <trkpt lat="39.7128520" lon="-3.9792000">
        <ele>776.6</ele>
        <time>2019-08-12T11:33:20Z</time>
      </trkpt>
      <trkpt lat="39.7128330" lon="-3.9792040">
        <ele>776.6</ele>
        <time>2019-08-12T11:33:21Z</time>
      </trkpt>
      <trkpt lat="39.7127920" lon="-3.9792040">
        <ele>776.6</ele>
        <time>2019-08-12T11:33:22Z</time>
      </trkpt>
      <trkpt lat="39.7127510" lon="-3.9792030">
        <ele>776.6</ele>
        <time>2019-08-12T11:33:23Z</time>
      </trkpt>
      <trkpt lat="39.7127160" lon="-3.9792100">
        <ele>776.7</ele>
        <time>2019-08-12T11:33:24Z</time>
      </trkpt>
      <trkpt lat="39.7126910" lon="-3.9792340">
        <ele>776.6</ele>
        <time>2019-08-12T11:33:25Z</time>
      </trkpt>
      <trkpt lat="39.7126750" lon="-3.9792830">
        <ele>776.6</ele>
        <time>2019-08-12T11:33:26Z</time>
      </trkpt>
      <trkpt lat="39.7126640" lon="-3.9793400">
        <ele>776.5</ele>
        <time>2019-08-12T11:33:27Z</time>
      </trkpt>
      <trkpt lat="39.7126490" lon="-3.9794240">
        <ele>776.4</ele>
        <time>2019-08-12T11:33:28Z</time>
      </trkpt>
      <trkpt lat="39.7126460" lon="-3.9794550">
        <ele>776.4</ele>
        <time>2019-08-12T11:33:29Z</time>
      </trkpt>
      <trkpt lat="39.7126430" lon="-3.9794870">
        <ele>776.4</ele>
        <time>2019-08-12T11:33:30Z</time>
      </trkpt>
      <trkpt lat="39.7126500" lon="-3.9795350">
        <ele>776.3</ele>
        <time>2019-08-12T11:33:31Z</time>
      </trkpt>
      <trkpt lat="39.7126620" lon="-3.9795850">
        <ele>776.2</ele>
        <time>2019-08-12T11:33:32Z</time>
      </trkpt>
      <trkpt lat="39.7126790" lon="-3.9796390">
        <ele>776.1</ele>
        <time>2019-08-12T11:33:33Z</time>
      </trkpt>
      <trkpt lat="39.7126960" lon="-3.9796960">
        <ele>775.9</ele>
        <time>2019-08-12T11:33:34Z</time>
      </trkpt>
      <trkpt lat="39.7127140" lon="-3.9797570">
        <ele>775.8</ele>
        <time>2019-08-12T11:33:35Z</time>
      </trkpt>
      <trkpt lat="39.7127320" lon="-3.9798200">
        <ele>775.6</ele>
        <time>2019-08-12T11:33:36Z</time>
      </trkpt>
      <trkpt lat="39.7127510" lon="-3.9798850">
        <ele>775.5</ele>
        <time>2019-08-12T11:33:37Z</time>
      </trkpt>
      <trkpt lat="39.7127860" lon="-3.9799900">
        <ele>775.4</ele>
        <time>2019-08-12T11:33:38Z</time>
      </trkpt>
      <trkpt lat="39.7128010" lon="-3.9800310">
        <ele>775.4</ele>
        <time>2019-08-12T11:33:39Z</time>
      </trkpt>
      <trkpt lat="39.7128160" lon="-3.9800710">
        <ele>775.3</ele>
        <time>2019-08-12T11:33:40Z</time>
      </trkpt>
      <trkpt lat="39.7128440" lon="-3.9801270">
        <ele>775.2</ele>
        <time>2019-08-12T11:33:41Z</time>
      </trkpt>
      <trkpt lat="39.7128790" lon="-3.9801750">
        <ele>775.1</ele>
        <time>2019-08-12T11:33:42Z</time>
      </trkpt>
      <trkpt lat="39.7129130" lon="-3.9802230">
        <ele>775.0</ele>
        <time>2019-08-12T11:33:43Z</time>
      </trkpt>
      <trkpt lat="39.7129560" lon="-3.9802620">
        <ele>774.9</ele>
        <time>2019-08-12T11:33:44Z</time>
      </trkpt>
      <trkpt lat="39.7130020" lon="-3.9802970">
        <ele>774.8</ele>
        <time>2019-08-12T11:33:45Z</time>
      </trkpt>
      <trkpt lat="39.7130490" lon="-3.9803280">
        <ele>774.8</ele>
        <time>2019-08-12T11:33:46Z</time>
      </trkpt>
      <trkpt lat="39.7130950" lon="-3.9803590">
        <ele>774.7</ele>
        <time>2019-08-12T11:33:47Z</time>
      </trkpt>
      <trkpt lat="39.7131380" lon="-3.9803890">
        <ele>774.7</ele>
        <time>2019-08-12T11:33:48Z</time>
      </trkpt>
      <trkpt lat="39.7131760" lon="-3.9804210">
        <ele>774.7</ele>
        <time>2019-08-12T11:33:49Z</time>
      </trkpt>
      <trkpt lat="39.7132120" lon="-3.9804540">
        <ele>774.7</ele>
        <time>2019-08-12T11:33:50Z</time>
      </trkpt>
      <trkpt lat="39.7132450" lon="-3.9804890">
        <ele>774.7</ele>
        <time>2019-08-12T11:33:51Z</time>
      </trkpt>
      <trkpt lat="39.7132760" lon="-3.9805260">
        <ele>774.7</ele>
        <time>2019-08-12T11:33:52Z</time>
      </trkpt>
      <trkpt lat="39.7133060" lon="-3.9805660">
        <ele>774.7</ele>
        <time>2019-08-12T11:33:53Z</time>
      </trkpt>
      <trkpt lat="39.7133330" lon="-3.9806100">
        <ele>774.7</ele>
        <time>2019-08-12T11:33:54Z</time>
      </trkpt>
      <trkpt lat="39.7133580" lon="-3.9806560">
        <ele>774.7</ele>
        <time>2019-08-12T11:33:55Z</time>
      </trkpt>
      <trkpt lat="39.7133800" lon="-3.9807070">
        <ele>774.7</ele>
        <time>2019-08-12T11:33:56Z</time>
      </trkpt>
      <trkpt lat="39.7133990" lon="-3.9807620">
        <ele>774.7</ele>
        <time>2019-08-12T11:33:57Z</time>
      </trkpt>
      <trkpt lat="39.7134140" lon="-3.9808200">
        <ele>774.7</ele>
        <time>2019-08-12T11:33:58Z</time>
      </trkpt>
      <trkpt lat="39.7134260" lon="-3.9808790">
        <ele>774.7</ele>
        <time>2019-08-12T11:33:59Z</time>
      </trkpt>
      <trkpt lat="39.7134350" lon="-3.9809370">
        <ele>774.7</ele>
        <time>2019-08-12T11:34:00Z</time>
      </trkpt>
      <trkpt lat="39.7134420" lon="-3.9809930">
        <ele>774.7</ele>
        <time>2019-08-12T11:34:01Z</time>
      </trkpt>
      <trkpt lat="39.7134470" lon="-3.9810450">
        <ele>774.7</ele>
        <time>2019-08-12T11:34:02Z</time>
      </trkpt>
      <trkpt lat="39.7134500" lon="-3.9810950">
        <ele>774.7</ele>
        <time>2019-08-12T11:34:03Z</time>
      </trkpt>
      <trkpt lat="39.7134550" lon="-3.9811780">
        <ele>774.7</ele>
        <time>2019-08-12T11:34:04Z</time>
      </trkpt>
      <trkpt lat="39.7134570" lon="-3.9812130">
        <ele>774.7</ele>
        <time>2019-08-12T11:34:05Z</time>
      </trkpt>
      <trkpt lat="39.7134590" lon="-3.9812470">
        <ele>774.7</ele>
        <time>2019-08-12T11:34:06Z</time>
      </trkpt>
      <trkpt lat="39.7134630" lon="-3.9813010">
        <ele>774.6</ele>
        <time>2019-08-12T11:34:07Z</time>
      </trkpt>
      <trkpt lat="39.7134660" lon="-3.9813550">
        <ele>774.6</ele>
        <time>2019-08-12T11:34:08Z</time>
      </trkpt>
      <trkpt lat="39.7134680" lon="-3.9814460">
        <ele>774.6</ele>
        <time>2019-08-12T11:34:09Z</time>
      </trkpt>
      <trkpt lat="39.7134680" lon="-3.9814810">
        <ele>774.6</ele>
        <time>2019-08-12T11:34:10Z</time>
      </trkpt>
      <trkpt lat="39.7134680" lon="-3.9815170">
        <ele>774.5</ele>
        <time>2019-08-12T11:34:11Z</time>
      </trkpt>
      <trkpt lat="39.7134650" lon="-3.9815690">
        <ele>774.5</ele>
        <time>2019-08-12T11:34:12Z</time>
      </trkpt>
      <trkpt lat="39.7134610" lon="-3.9816210">
        <ele>774.5</ele>
        <time>2019-08-12T11:34:13Z</time>
      </trkpt>
      <trkpt lat="39.7134550" lon="-3.9816720">
        <ele>774.5</ele>
        <time>2019-08-12T11:34:14Z</time>
      </trkpt>
      <trkpt lat="39.7134480" lon="-3.9817250">
        <ele>774.5</ele>
        <time>2019-08-12T11:34:15Z</time>
      </trkpt>
      <trkpt lat="39.7134410" lon="-3.9817770">
        <ele>774.5</ele>
        <time>2019-08-12T11:34:16Z</time>
      </trkpt>
      <trkpt lat="39.7134350" lon="-3.9818280">
        <ele>773.8</ele>
        <time>2019-08-12T11:34:17Z</time>
      </trkpt>
      <trkpt lat="39.7134310" lon="-3.9818760">
        <ele>773.8</ele>
        <time>2019-08-12T11:34:18Z</time>
      </trkpt>
      <trkpt lat="39.7134320" lon="-3.9819210">
        <ele>773.8</ele>
        <time>2019-08-12T11:34:19Z</time>
      </trkpt>
      <trkpt lat="39.7134360" lon="-3.9819600">
        <ele>773.8</ele>
        <time>2019-08-12T11:34:20Z</time>
      </trkpt>
      <trkpt lat="39.7134370" lon="-3.9819820">
        <ele>773.8</ele>
        <time>2019-08-12T11:34:21Z</time>
      </trkpt>
      <trkpt lat="39.7134380" lon="-3.9819860">
        <ele>773.8</ele>
        <time>2019-08-12T11:34:22Z</time>
      </trkpt>
      <trkpt lat="39.7134710" lon="-3.9820030">
        <ele>773.8</ele>
        <time>2019-08-12T11:36:40Z</time>
      </trkpt>
      <trkpt lat="39.7135070" lon="-3.9820240">
        <ele>773.7</ele>
        <time>2019-08-12T11:36:41Z</time>
      </trkpt>
      <trkpt lat="39.7135380" lon="-3.9820400">
        <ele>773.7</ele>
        <time>2019-08-12T11:36:42Z</time>
      </trkpt>
      <trkpt lat="39.7135670" lon="-3.9820490">
        <ele>773.7</ele>
        <time>2019-08-12T11:36:43Z</time>
      </trkpt>
      <trkpt lat="39.7135940" lon="-3.9820600">
        <ele>773.7</ele>
        <time>2019-08-12T11:36:44Z</time>
      </trkpt>
      <trkpt lat="39.7136220" lon="-3.9820720">
        <ele>773.7</ele>
        <time>2019-08-12T11:36:45Z</time>
      </trkpt>
      <trkpt lat="39.7136500" lon="-3.9820790">
        <ele>773.6</ele>
        <time>2019-08-12T11:36:46Z</time>
      </trkpt>
      <trkpt lat="39.7136780" lon="-3.9820830">
        <ele>773.6</ele>
        <time>2019-08-12T11:36:47Z</time>
      </trkpt>
      <trkpt lat="39.7137060" lon="-3.9820880">
        <ele>773.6</ele>
        <time>2019-08-12T11:36:48Z</time>
      </trkpt>
      <trkpt lat="39.7137360" lon="-3.9820970">
        <ele>773.5</ele>
        <time>2019-08-12T11:36:49Z</time>
      </trkpt>
      <trkpt lat="39.7137670" lon="-3.9821140">
        <ele>773.5</ele>
        <time>2019-08-12T11:36:50Z</time>
      </trkpt>
      <trkpt lat="39.7138000" lon="-3.9821390">
        <ele>773.4</ele>
        <time>2019-08-12T11:36:51Z</time>
      </trkpt>
      <trkpt lat="39.7138610" lon="-3.9821800">
        <ele>773.3</ele>
        <time>2019-08-12T11:36:52Z</time>
      </trkpt>
      <trkpt lat="39.7138870" lon="-3.9821920">
        <ele>773.3</ele>
        <time>2019-08-12T11:36:53Z</time>
      </trkpt>
      <trkpt lat="39.7139130" lon="-3.9822050">
        <ele>773.2</ele>
        <time>2019-08-12T11:36:54Z</time>
      </trkpt>
      <trkpt lat="39.7139550" lon="-3.9822120">
        <ele>773.1</ele>
        <time>2019-08-12T11:36:55Z</time>
      </trkpt>
      <trkpt lat="39.7139990" lon="-3.9822180">
        <ele>773.1</ele>
        <time>2019-08-12T11:36:56Z</time>
      </trkpt>
      <trkpt lat="39.7140440" lon="-3.9822240">
        <ele>773.0</ele>
        <time>2019-08-12T11:36:57Z</time>
      </trkpt>
      <trkpt lat="39.7141100" lon="-3.9822310">
        <ele>772.8</ele>
        <time>2019-08-12T11:36:58Z</time>
      </trkpt>
      <trkpt lat="39.7141320" lon="-3.9822340">
        <ele>772.8</ele>
        <time>2019-08-12T11:36:59Z</time>
      </trkpt>
      <trkpt lat="39.7141730" lon="-3.9822380">
        <ele>772.7</ele>
        <time>2019-08-12T11:37:00Z</time>
      </trkpt>
      <trkpt lat="39.7142140" lon="-3.9822420">
        <ele>772.7</ele>
        <time>2019-08-12T11:37:01Z</time>
      </trkpt>
      <trkpt lat="39.7142530" lon="-3.9822450">
        <ele>772.6</ele>
        <time>2019-08-12T11:37:02Z</time>
      </trkpt>
      <trkpt lat="39.7142930" lon="-3.9822460">
        <ele>772.2</ele>
        <time>2019-08-12T11:37:03Z</time>
      </trkpt>
      <trkpt lat="39.7143320" lon="-3.9822470">
        <ele>772.1</ele>
        <time>2019-08-12T11:37:04Z</time>
      </trkpt>
      <trkpt lat="39.7143930" lon="-3.9822480">
        <ele>771.9</ele>
        <time>2019-08-12T11:37:05Z</time>
      </trkpt>
      <trkpt lat="39.7144140" lon="-3.9822470">
        <ele>771.7</ele>
        <time>2019-08-12T11:37:06Z</time>
      </trkpt>
      <trkpt lat="39.7144570" lon="-3.9822460">
        <ele>771.5</ele>
        <time>2019-08-12T11:37:07Z</time>
      </trkpt>
      <trkpt lat="39.7145030" lon="-3.9822430">
        <ele>771.4</ele>
        <time>2019-08-12T11:37:08Z</time>
      </trkpt>
      <trkpt lat="39.7145510" lon="-3.9822400">
        <ele>771.2</ele>
        <time>2019-08-12T11:37:09Z</time>
      </trkpt>
      <trkpt lat="39.7146030" lon="-3.9822370">
        <ele>771.0</ele>
        <time>2019-08-12T11:37:10Z</time>
      </trkpt>
      <trkpt lat="39.7146570" lon="-3.9822360">
        <ele>770.8</ele>
        <time>2019-08-12T11:37:11Z</time>
      </trkpt>
      <trkpt lat="39.7147130" lon="-3.9822380">
        <ele>770.6</ele>
        <time>2019-08-12T11:37:12Z</time>
      </trkpt>
      <trkpt lat="39.7147730" lon="-3.9822440">
        <ele>770.4</ele>
        <time>2019-08-12T11:37:13Z</time>
      </trkpt>
      <trkpt lat="39.7148350" lon="-3.9822550">
        <ele>770.2</ele>
        <time>2019-08-12T11:37:14Z</time>
      </trkpt>
      <trkpt lat="39.7148980" lon="-3.9822690">
        <ele>770.0</ele>
        <time>2019-08-12T11:37:15Z</time>
      </trkpt>
      <trkpt lat="39.7149640" lon="-3.9822840">
        <ele>769.8</ele>
        <time>2019-08-12T11:37:16Z</time>
      </trkpt>
      <trkpt lat="39.7150290" lon="-3.9822980">
        <ele>769.6</ele>
        <time>2019-08-12T11:37:17Z</time>
      </trkpt>
      <trkpt lat="39.7150950" lon="-3.9823100">
        <ele>769.5</ele>
        <time>2019-08-12T11:37:18Z</time>
      </trkpt>
      <trkpt lat="39.7151610" lon="-3.9823180">
        <ele>769.3</ele>
        <time>2019-08-12T11:37:19Z</time>
      </trkpt>
      <trkpt lat="39.7152270" lon="-3.9823240">
        <ele>769.2</ele>
        <time>2019-08-12T11:37:20Z</time>
      </trkpt>
      <trkpt lat="39.7152920" lon="-3.9823280">
        <ele>769.0</ele>
        <time>2019-08-12T11:37:21Z</time>
      </trkpt>
      <trkpt lat="39.7153570" lon="-3.9823300">
        <ele>768.9</ele>
        <time>2019-08-12T11:37:22Z</time>
      </trkpt>
      <trkpt lat="39.7154210" lon="-3.9823300">
        <ele>768.7</ele>
        <time>2019-08-12T11:37:23Z</time>
      </trkpt>
      <trkpt lat="39.7154840" lon="-3.9823290">
        <ele>768.6</ele>
        <time>2019-08-12T11:37:24Z</time>
      </trkpt>
      <trkpt lat="39.7155470" lon="-3.9823260">
        <ele>768.5</ele>
        <time>2019-08-12T11:37:25Z</time>
      </trkpt>
      <trkpt lat="39.7156090" lon="-3.9823220">
        <ele>768.4</ele>
        <time>2019-08-12T11:37:26Z</time>
      </trkpt>
      <trkpt lat="39.7156690" lon="-3.9823170">
        <ele>768.4</ele>
        <time>2019-08-12T11:37:27Z</time>
      </trkpt>
      <trkpt lat="39.7157290" lon="-3.9823120">
        <ele>768.4</ele>
        <time>2019-08-12T11:37:28Z</time>
      </trkpt>
      <trkpt lat="39.7157870" lon="-3.9823060">
        <ele>768.3</ele>
        <time>2019-08-12T11:37:29Z</time>
      </trkpt>
      <trkpt lat="39.7158450" lon="-3.9823000">
        <ele>768.2</ele>
        <time>2019-08-12T11:37:30Z</time>
      </trkpt>
      <trkpt lat="39.7159030" lon="-3.9822940">
        <ele>768.2</ele>
        <time>2019-08-12T11:37:31Z</time>
      </trkpt>
      <trkpt lat="39.7159600" lon="-3.9822880">
        <ele>768.1</ele>
        <time>2019-08-12T11:37:32Z</time>
      </trkpt>
      <trkpt lat="39.7160170" lon="-3.9822820">
        <ele>768.0</ele>
        <time>2019-08-12T11:37:33Z</time>
      </trkpt>
      <trkpt lat="39.7160740" lon="-3.9822760">
        <ele>768.0</ele>
        <time>2019-08-12T11:37:34Z</time>
      </trkpt>
      <trkpt lat="39.7161320" lon="-3.9822710">
        <ele>767.9</ele>
        <time>2019-08-12T11:37:35Z</time>
      </trkpt>
      <trkpt lat="39.7161910" lon="-3.9822660">
        <ele>767.9</ele>
        <time>2019-08-12T11:37:36Z</time>
      </trkpt>
      <trkpt lat="39.7162500" lon="-3.9822620">
        <ele>767.9</ele>
        <time>2019-08-12T11:37:37Z</time>
      </trkpt>
      <trkpt lat="39.7163100" lon="-3.9822590">
        <ele>767.9</ele>
        <time>2019-08-12T11:37:38Z</time>
      </trkpt>
      <trkpt lat="39.7163710" lon="-3.9822550">
        <ele>767.9</ele>
        <time>2019-08-12T11:37:39Z</time>
      </trkpt>
      <trkpt lat="39.7164320" lon="-3.9822520">
        <ele>767.9</ele>
        <time>2019-08-12T11:37:40Z</time>
      </trkpt>
      <trkpt lat="39.7164930" lon="-3.9822480">
        <ele>767.9</ele>
        <time>2019-08-12T11:37:41Z</time>
      </trkpt>
      <trkpt lat="39.7165540" lon="-3.9822440">
        <ele>767.9</ele>
        <time>2019-08-12T11:37:42Z</time>
      </trkpt>
      <trkpt lat="39.7166150" lon="-3.9822390">
        <ele>767.8</ele>
        <time>2019-08-12T11:37:43Z</time>
      </trkpt>
      <trkpt lat="39.7166760" lon="-3.9822330">
        <ele>767.7</ele>
        <time>2019-08-12T11:37:44Z</time>
      </trkpt>
      <trkpt lat="39.7167360" lon="-3.9822270">
        <ele>767.6</ele>
        <time>2019-08-12T11:37:45Z</time>
      </trkpt>
      <trkpt lat="39.7167960" lon="-3.9822190">
        <ele>767.5</ele>
        <time>2019-08-12T11:37:46Z</time>
      </trkpt>
      <trkpt lat="39.7168550" lon="-3.9822100">
        <ele>767.5</ele>
        <time>2019-08-12T11:37:47Z</time>
      </trkpt>
      <trkpt lat="39.7169140" lon="-3.9822010">
        <ele>767.4</ele>
        <time>2019-08-12T11:37:48Z</time>
      </trkpt>
      <trkpt lat="39.7169730" lon="-3.9821920">
        <ele>767.4</ele>
        <time>2019-08-12T11:37:49Z</time>
      </trkpt>
      <trkpt lat="39.7170320" lon="-3.9821830">
        <ele>767.4</ele>
        <time>2019-08-12T11:37:50Z</time>
      </trkpt>
      <trkpt lat="39.7170910" lon="-3.9821750">
        <ele>767.3</ele>
        <time>2019-08-12T11:37:51Z</time>
      </trkpt>
      <trkpt lat="39.7171500" lon="-3.9821710">
        <ele>767.3</ele>
        <time>2019-08-12T11:37:52Z</time>
      </trkpt>
      <trkpt lat="39.7172060" lon="-3.9821740">
        <ele>767.3</ele>
        <time>2019-08-12T11:37:53Z</time>
      </trkpt>
      <trkpt lat="39.7172590" lon="-3.9821880">
        <ele>767.2</ele>
        <time>2019-08-12T11:37:54Z</time>
      </trkpt>
      <trkpt lat="39.7173070" lon="-3.9822140">
        <ele>767.3</ele>
        <time>2019-08-12T11:37:55Z</time>
      </trkpt>
      <trkpt lat="39.7173700" lon="-3.9822740">
        <ele>767.3</ele>
        <time>2019-08-12T11:37:56Z</time>
      </trkpt>
      <trkpt lat="39.7173890" lon="-3.9822980">
        <ele>767.3</ele>
        <time>2019-08-12T11:37:57Z</time>
      </trkpt>
      <trkpt lat="39.7174240" lon="-3.9823510">
        <ele>767.3</ele>
        <time>2019-08-12T11:37:58Z</time>
      </trkpt>
      <trkpt lat="39.7174560" lon="-3.9824090">
        <ele>767.3</ele>
        <time>2019-08-12T11:37:59Z</time>
      </trkpt>
      <trkpt lat="39.7174850" lon="-3.9824690">
        <ele>767.3</ele>
        <time>2019-08-12T11:38:00Z</time>
      </trkpt>
      <trkpt lat="39.7175130" lon="-3.9825300">
        <ele>767.3</ele>
        <time>2019-08-12T11:38:01Z</time>
      </trkpt>
      <trkpt lat="39.7175400" lon="-3.9825910">
        <ele>767.2</ele>
        <time>2019-08-12T11:38:02Z</time>
      </trkpt>
      <trkpt lat="39.7175690" lon="-3.9826510">
        <ele>767.1</ele>
        <time>2019-08-12T11:38:03Z</time>
      </trkpt>
      <trkpt lat="39.7175990" lon="-3.9827080">
        <ele>767.0</ele>
        <time>2019-08-12T11:38:04Z</time>
      </trkpt>
      <trkpt lat="39.7176320" lon="-3.9827610">
        <ele>766.8</ele>
        <time>2019-08-12T11:38:05Z</time>
      </trkpt>
      <trkpt lat="39.7176640" lon="-3.9828110">
        <ele>766.6</ele>
        <time>2019-08-12T11:38:06Z</time>
      </trkpt>
      <trkpt lat="39.7176900" lon="-3.9828570">
        <ele>766.3</ele>
        <time>2019-08-12T11:38:07Z</time>
      </trkpt>
      <trkpt lat="39.7177090" lon="-3.9829010">
        <ele>766.1</ele>
        <time>2019-08-12T11:38:08Z</time>
      </trkpt>
      <trkpt lat="39.7177250" lon="-3.9829400">
        <ele>765.8</ele>
        <time>2019-08-12T11:38:09Z</time>
      </trkpt>
      <trkpt lat="39.7177470" lon="-3.9829730">
        <ele>765.7</ele>
        <time>2019-08-12T11:38:10Z</time>
      </trkpt>
      <trkpt lat="39.7177730" lon="-3.9830040">
        <ele>765.6</ele>
        <time>2019-08-12T11:38:11Z</time>
      </trkpt>
      <trkpt lat="39.7178030" lon="-3.9830340">
        <ele>765.5</ele>
        <time>2019-08-12T11:38:12Z</time>
      </trkpt>
      <trkpt lat="39.7178350" lon="-3.9830680">
        <ele>765.3</ele>
        <time>2019-08-12T11:38:13Z</time>
      </trkpt>
      <trkpt lat="39.7178680" lon="-3.9831060">
        <ele>765.2</ele>
        <time>2019-08-12T11:38:14Z</time>
      </trkpt>
      <trkpt lat="39.7179000" lon="-3.9831490">
        <ele>765.1</ele>
        <time>2019-08-12T11:38:15Z</time>
      </trkpt>
      <trkpt lat="39.7179330" lon="-3.9831960">
        <ele>765.0</ele>
        <time>2019-08-12T11:38:16Z</time>
      </trkpt>
      <trkpt lat="39.7179650" lon="-3.9832480">
        <ele>764.8</ele>
        <time>2019-08-12T11:38:17Z</time>
      </trkpt>
      <trkpt lat="39.7179980" lon="-3.9833030">
        <ele>764.7</ele>
        <time>2019-08-12T11:38:18Z</time>
      </trkpt>
      <trkpt lat="39.7180300" lon="-3.9833610">
        <ele>764.7</ele>
        <time>2019-08-12T11:38:19Z</time>
      </trkpt>
      <trkpt lat="39.7180620" lon="-3.9834220">
        <ele>764.6</ele>
        <time>2019-08-12T11:38:20Z</time>
      </trkpt>
      <trkpt lat="39.7180940" lon="-3.9834860">
        <ele>764.5</ele>
        <time>2019-08-12T11:38:21Z</time>
      </trkpt>
      <trkpt lat="39.7181260" lon="-3.9835530">
        <ele>764.4</ele>
        <time>2019-08-12T11:38:22Z</time>
      </trkpt>
      <trkpt lat="39.7181590" lon="-3.9836220">
        <ele>764.3</ele>
        <time>2019-08-12T11:38:23Z</time>
      </trkpt>
      <trkpt lat="39.7181910" lon="-3.9836920">
        <ele>764.2</ele>
        <time>2019-08-12T11:38:24Z</time>
      </trkpt>
      <trkpt lat="39.7182250" lon="-3.9837630">
        <ele>764.0</ele>
        <time>2019-08-12T11:38:25Z</time>
      </trkpt>
      <trkpt lat="39.7182590" lon="-3.9838330">
        <ele>763.8</ele>
        <time>2019-08-12T11:38:26Z</time>
      </trkpt>
      <trkpt lat="39.7182950" lon="-3.9839010">
        <ele>763.6</ele>
        <time>2019-08-12T11:38:27Z</time>
      </trkpt>
      <trkpt lat="39.7183320" lon="-3.9839650">
        <ele>763.4</ele>
        <time>2019-08-12T11:38:28Z</time>
      </trkpt>
      <trkpt lat="39.7183710" lon="-3.9840260">
        <ele>763.1</ele>
        <time>2019-08-12T11:38:29Z</time>
      </trkpt>
      <trkpt lat="39.7184100" lon="-3.9840860">
        <ele>762.9</ele>
        <time>2019-08-12T11:38:30Z</time>
      </trkpt>
      <trkpt lat="39.7184480" lon="-3.9841450">
        <ele>762.6</ele>
        <time>2019-08-12T11:38:31Z</time>
      </trkpt>
      <trkpt lat="39.7184860" lon="-3.9842050">
        <ele>762.3</ele>
        <time>2019-08-12T11:38:32Z</time>
      </trkpt>
      <trkpt lat="39.7185240" lon="-3.9842650">
        <ele>761.9</ele>
        <time>2019-08-12T11:38:33Z</time>
      </trkpt>
      <trkpt lat="39.7185610" lon="-3.9843270">
        <ele>761.6</ele>
        <time>2019-08-12T11:38:34Z</time>
      </trkpt>
      <trkpt lat="39.7185990" lon="-3.9843900">
        <ele>761.3</ele>
        <time>2019-08-12T11:38:35Z</time>
      </trkpt>
      <trkpt lat="39.7186640" lon="-3.9845030">
        <ele>760.8</ele>
        <time>2019-08-12T11:38:36Z</time>
      </trkpt>
      <trkpt lat="39.7186900" lon="-3.9845490">
        <ele>760.6</ele>
        <time>2019-08-12T11:38:37Z</time>
      </trkpt>
      <trkpt lat="39.7187170" lon="-3.9845960">
        <ele>760.5</ele>
        <time>2019-08-12T11:38:38Z</time>
      </trkpt>
      <trkpt lat="39.7187580" lon="-3.9846690">
        <ele>760.3</ele>
        <time>2019-08-12T11:38:39Z</time>
      </trkpt>
      <trkpt lat="39.7187980" lon="-3.9847420">
        <ele>760.2</ele>
        <time>2019-08-12T11:38:40Z</time>
      </trkpt>
      <trkpt lat="39.7188650" lon="-3.9848650">
        <ele>760.0</ele>
        <time>2019-08-12T11:38:41Z</time>
      </trkpt>
      <trkpt lat="39.7188920" lon="-3.9849130">
        <ele>760.0</ele>
        <time>2019-08-12T11:38:42Z</time>
      </trkpt>
      <trkpt lat="39.7189180" lon="-3.9849620">
        <ele>760.0</ele>
        <time>2019-08-12T11:38:43Z</time>
      </trkpt>
      <trkpt lat="39.7189570" lon="-3.9850340">
        <ele>759.9</ele>
        <time>2019-08-12T11:38:44Z</time>
      </trkpt>
      <trkpt lat="39.7189950" lon="-3.9851050">
        <ele>759.9</ele>
        <time>2019-08-12T11:38:45Z</time>
      </trkpt>
      <trkpt lat="39.7190330" lon="-3.9851760">
        <ele>759.8</ele>
        <time>2019-08-12T11:38:46Z</time>
      </trkpt>
      <trkpt lat="39.7190700" lon="-3.9852460">
        <ele>759.8</ele>
        <time>2019-08-12T11:38:47Z</time>
      </trkpt>
      <trkpt lat="39.7191070" lon="-3.9853150">
        <ele>759.8</ele>
        <time>2019-08-12T11:38:48Z</time>
      </trkpt>
      <trkpt lat="39.7191430" lon="-3.9853830">
        <ele>759.8</ele>
        <time>2019-08-12T11:38:49Z</time>
      </trkpt>
      <trkpt lat="39.7191790" lon="-3.9854510">
        <ele>759.8</ele>
        <time>2019-08-12T11:38:50Z</time>
      </trkpt>
      <trkpt lat="39.7192150" lon="-3.9855190">
        <ele>759.8</ele>
        <time>2019-08-12T11:38:51Z</time>
      </trkpt>
      <trkpt lat="39.7192500" lon="-3.9855850">
        <ele>759.8</ele>
        <time>2019-08-12T11:38:52Z</time>
      </trkpt>
      <trkpt lat="39.7192850" lon="-3.9856510">
        <ele>759.7</ele>
        <time>2019-08-12T11:38:53Z</time>
      </trkpt>
      <trkpt lat="39.7193200" lon="-3.9857170">
        <ele>759.7</ele>
        <time>2019-08-12T11:38:54Z</time>
      </trkpt>
      <trkpt lat="39.7193550" lon="-3.9857810">
        <ele>759.7</ele>
        <time>2019-08-12T11:38:55Z</time>
      </trkpt>
      <trkpt lat="39.7193900" lon="-3.9858460">
        <ele>759.6</ele>
        <time>2019-08-12T11:38:56Z</time>
      </trkpt>
      <trkpt lat="39.7194250" lon="-3.9859100">
        <ele>759.6</ele>
        <time>2019-08-12T11:38:57Z</time>
      </trkpt>
      <trkpt lat="39.7194610" lon="-3.9859740">
        <ele>759.5</ele>
        <time>2019-08-12T11:38:58Z</time>
      </trkpt>
      <trkpt lat="39.7194980" lon="-3.9860380">
        <ele>759.4</ele>
        <time>2019-08-12T11:38:59Z</time>
      </trkpt>
      <trkpt lat="39.7195350" lon="-3.9861010">
        <ele>759.4</ele>
        <time>2019-08-12T11:39:00Z</time>
      </trkpt>
      <trkpt lat="39.7195720" lon="-3.9861640">
        <ele>759.3</ele>
        <time>2019-08-12T11:39:01Z</time>
      </trkpt>
      <trkpt lat="39.7196110" lon="-3.9862250">
        <ele>759.2</ele>
        <time>2019-08-12T11:39:02Z</time>
      </trkpt>
      <trkpt lat="39.7196510" lon="-3.9862860">
        <ele>759.1</ele>
        <time>2019-08-12T11:39:03Z</time>
      </trkpt>
      <trkpt lat="39.7196930" lon="-3.9863440">
        <ele>759.1</ele>
        <time>2019-08-12T11:39:04Z</time>
      </trkpt>
      <trkpt lat="39.7197350" lon="-3.9864010">
        <ele>759.0</ele>
        <time>2019-08-12T11:39:05Z</time>
      </trkpt>
      <trkpt lat="39.7197790" lon="-3.9864550">
        <ele>758.9</ele>
        <time>2019-08-12T11:39:06Z</time>
      </trkpt>
      <trkpt lat="39.7198240" lon="-3.9865080">
        <ele>758.9</ele>
        <time>2019-08-12T11:39:07Z</time>
      </trkpt>
      <trkpt lat="39.7198700" lon="-3.9865600">
        <ele>758.8</ele>
        <time>2019-08-12T11:39:08Z</time>
      </trkpt>
      <trkpt lat="39.7199150" lon="-3.9866110">
        <ele>758.7</ele>
        <time>2019-08-12T11:39:09Z</time>
      </trkpt>
      <trkpt lat="39.7199620" lon="-3.9866620">
        <ele>758.6</ele>
        <time>2019-08-12T11:39:10Z</time>
      </trkpt>
      <trkpt lat="39.7200080" lon="-3.9867120">
        <ele>758.5</ele>
        <time>2019-08-12T11:39:11Z</time>
      </trkpt>
      <trkpt lat="39.7200540" lon="-3.9867620">
        <ele>758.4</ele>
        <time>2019-08-12T11:39:12Z</time>
      </trkpt>
      <trkpt lat="39.7201010" lon="-3.9868120">
        <ele>758.3</ele>
        <time>2019-08-12T11:39:13Z</time>
      </trkpt>
      <trkpt lat="39.7201470" lon="-3.9868610">
        <ele>758.2</ele>
        <time>2019-08-12T11:39:14Z</time>
      </trkpt>
      <trkpt lat="39.7201930" lon="-3.9869110">
        <ele>758.2</ele>
        <time>2019-08-12T11:39:15Z</time>
      </trkpt>
      <trkpt lat="39.7202390" lon="-3.9869600">
        <ele>758.2</ele>
        <time>2019-08-12T11:39:16Z</time>
      </trkpt>
      <trkpt lat="39.7202840" lon="-3.9870100">
        <ele>758.2</ele>
        <time>2019-08-12T11:39:17Z</time>
      </trkpt>
      <trkpt lat="39.7203290" lon="-3.9870590">
        <ele>758.2</ele>
        <time>2019-08-12T11:39:18Z</time>
      </trkpt>
      <trkpt lat="39.7203740" lon="-3.9871090">
        <ele>758.3</ele>
        <time>2019-08-12T11:39:19Z</time>
      </trkpt>
      <trkpt lat="39.7204180" lon="-3.9871600">
        <ele>758.3</ele>
        <time>2019-08-12T11:39:20Z</time>
      </trkpt>
      <trkpt lat="39.7204610" lon="-3.9872100">
        <ele>758.2</ele>
        <time>2019-08-12T11:39:21Z</time>
      </trkpt>
      <trkpt lat="39.7205040" lon="-3.9872610">
        <ele>758.1</ele>
        <time>2019-08-12T11:39:22Z</time>
      </trkpt>
      <trkpt lat="39.7205470" lon="-3.9873120">
        <ele>758.1</ele>
        <time>2019-08-12T11:39:23Z</time>
      </trkpt>
      <trkpt lat="39.7205900" lon="-3.9873630">
        <ele>758.1</ele>
        <time>2019-08-12T11:39:24Z</time>
      </trkpt>
      <trkpt lat="39.7206320" lon="-3.9874150">
        <ele>758.1</ele>
        <time>2019-08-12T11:39:25Z</time>
      </trkpt>
      <trkpt lat="39.7206750" lon="-3.9874660">
        <ele>758.1</ele>
        <time>2019-08-12T11:39:26Z</time>
      </trkpt>
      <trkpt lat="39.7207170" lon="-3.9875180">
        <ele>758.1</ele>
        <time>2019-08-12T11:39:27Z</time>
      </trkpt>
      <trkpt lat="39.7207600" lon="-3.9875700">
        <ele>758.2</ele>
        <time>2019-08-12T11:39:28Z</time>
      </trkpt>
      <trkpt lat="39.7208020" lon="-3.9876220">
        <ele>758.2</ele>
        <time>2019-08-12T11:39:29Z</time>
      </trkpt>
      <trkpt lat="39.7208450" lon="-3.9876750">
        <ele>758.2</ele>
        <time>2019-08-12T11:39:30Z</time>
      </trkpt>
      <trkpt lat="39.7208880" lon="-3.9877270">
        <ele>758.2</ele>
        <time>2019-08-12T11:39:31Z</time>
      </trkpt>
      <trkpt lat="39.7209300" lon="-3.9877790">
        <ele>758.3</ele>
        <time>2019-08-12T11:39:32Z</time>
      </trkpt>
      <trkpt lat="39.7209720" lon="-3.9878320">
        <ele>758.3</ele>
        <time>2019-08-12T11:39:33Z</time>
      </trkpt>
      <trkpt lat="39.7210140" lon="-3.9878840">
        <ele>758.3</ele>
        <time>2019-08-12T11:39:34Z</time>
      </trkpt>
      <trkpt lat="39.7210560" lon="-3.9879370">
        <ele>758.4</ele>
        <time>2019-08-12T11:39:35Z</time>
      </trkpt>
      <trkpt lat="39.7210970" lon="-3.9879890">
        <ele>758.4</ele>
        <time>2019-08-12T11:39:36Z</time>
      </trkpt>
      <trkpt lat="39.7211380" lon="-3.9880410">
        <ele>758.4</ele>
        <time>2019-08-12T11:39:37Z</time>
      </trkpt>
      <trkpt lat="39.7211790" lon="-3.9880940">
        <ele>758.5</ele>
        <time>2019-08-12T11:39:38Z</time>
      </trkpt>
      <trkpt lat="39.7212190" lon="-3.9881460">
        <ele>758.6</ele>
        <time>2019-08-12T11:39:39Z</time>
      </trkpt>
      <trkpt lat="39.7212590" lon="-3.9881970">
        <ele>758.6</ele>
        <time>2019-08-12T11:39:40Z</time>
      </trkpt>
      <trkpt lat="39.7212980" lon="-3.9882480">
        <ele>758.7</ele>
        <time>2019-08-12T11:39:41Z</time>
      </trkpt>
      <trkpt lat="39.7213370" lon="-3.9882990">
        <ele>758.8</ele>
        <time>2019-08-12T11:39:42Z</time>
      </trkpt>
      <trkpt lat="39.7213750" lon="-3.9883480">
        <ele>758.9</ele>
        <time>2019-08-12T11:39:43Z</time>
      </trkpt>
      <trkpt lat="39.7214130" lon="-3.9883970">
        <ele>758.9</ele>
        <time>2019-08-12T11:39:44Z</time>
      </trkpt>
      <trkpt lat="39.7214500" lon="-3.9884450">
        <ele>759.0</ele>
        <time>2019-08-12T11:39:45Z</time>
      </trkpt>
      <trkpt lat="39.7214860" lon="-3.9884910">
        <ele>759.1</ele>
        <time>2019-08-12T11:39:46Z</time>
      </trkpt>
      <trkpt lat="39.7215220" lon="-3.9885370">
        <ele>759.2</ele>
        <time>2019-08-12T11:39:47Z</time>
      </trkpt>
      <trkpt lat="39.7215580" lon="-3.9885820">
        <ele>759.4</ele>
        <time>2019-08-12T11:39:48Z</time>
      </trkpt>
      <trkpt lat="39.7215930" lon="-3.9886250">
        <ele>759.5</ele>
        <time>2019-08-12T11:39:49Z</time>
      </trkpt>
      <trkpt lat="39.7216280" lon="-3.9886690">
        <ele>759.6</ele>
        <time>2019-08-12T11:39:50Z</time>
      </trkpt>
      <trkpt lat="39.7216630" lon="-3.9887110">
        <ele>759.8</ele>
        <time>2019-08-12T11:39:51Z</time>
      </trkpt>
      <trkpt lat="39.7216980" lon="-3.9887530">
        <ele>759.9</ele>
        <time>2019-08-12T11:39:52Z</time>
      </trkpt>
      <trkpt lat="39.7217320" lon="-3.9887950">
        <ele>760.1</ele>
        <time>2019-08-12T11:39:53Z</time>
      </trkpt>
      <trkpt lat="39.7217670" lon="-3.9888360">
        <ele>760.2</ele>
        <time>2019-08-12T11:39:54Z</time>
      </trkpt>
      <trkpt lat="39.7218020" lon="-3.9888780">
        <ele>760.4</ele>
        <time>2019-08-12T11:39:55Z</time>
      </trkpt>
      <trkpt lat="39.7218370" lon="-3.9889190">
        <ele>760.5</ele>
        <time>2019-08-12T11:39:56Z</time>
      </trkpt>
      <trkpt lat="39.7218720" lon="-3.9889600">
        <ele>760.6</ele>
        <time>2019-08-12T11:39:57Z</time>
      </trkpt>
      <trkpt lat="39.7219080" lon="-3.9890010">
        <ele>760.7</ele>
        <time>2019-08-12T11:39:58Z</time>
      </trkpt>
      <trkpt lat="39.7219430" lon="-3.9890420">
        <ele>760.8</ele>
        <time>2019-08-12T11:39:59Z</time>
      </trkpt>
      <trkpt lat="39.7219790" lon="-3.9890840">
        <ele>760.9</ele>
        <time>2019-08-12T11:40:00Z</time>
      </trkpt>
      <trkpt lat="39.7220150" lon="-3.9891250">
        <ele>761.0</ele>
        <time>2019-08-12T11:40:01Z</time>
      </trkpt>
      <trkpt lat="39.7220510" lon="-3.9891660">
        <ele>761.1</ele>
        <time>2019-08-12T11:40:02Z</time>
      </trkpt>
      <trkpt lat="39.7220870" lon="-3.9892070">
        <ele>761.2</ele>
        <time>2019-08-12T11:40:03Z</time>
      </trkpt>
      <trkpt lat="39.7221230" lon="-3.9892480">
        <ele>761.3</ele>
        <time>2019-08-12T11:40:04Z</time>
      </trkpt>
      <trkpt lat="39.7221590" lon="-3.9892900">
        <ele>761.4</ele>
        <time>2019-08-12T11:40:05Z</time>
      </trkpt>
      <trkpt lat="39.7221960" lon="-3.9893310">
        <ele>761.5</ele>
        <time>2019-08-12T11:40:06Z</time>
      </trkpt>
      <trkpt lat="39.7222320" lon="-3.9893730">
        <ele>761.6</ele>
        <time>2019-08-12T11:40:07Z</time>
      </trkpt>
      <trkpt lat="39.7222680" lon="-3.9894150">
        <ele>761.7</ele>
        <time>2019-08-12T11:40:08Z</time>
      </trkpt>
      <trkpt lat="39.7223040" lon="-3.9894580">
        <ele>761.8</ele>
        <time>2019-08-12T11:40:09Z</time>
      </trkpt>
      <trkpt lat="39.7223390" lon="-3.9895010">
        <ele>762.0</ele>
        <time>2019-08-12T11:40:10Z</time>
      </trkpt>
      <trkpt lat="39.7223750" lon="-3.9895450">
        <ele>762.1</ele>
        <time>2019-08-12T11:40:11Z</time>
      </trkpt>
      <trkpt lat="39.7224100" lon="-3.9895890">
        <ele>762.2</ele>
        <time>2019-08-12T11:40:12Z</time>
      </trkpt>
      <trkpt lat="39.7224460" lon="-3.9896330">
        <ele>762.3</ele>
        <time>2019-08-12T11:40:13Z</time>
      </trkpt>
      <trkpt lat="39.7224800" lon="-3.9896760">
        <ele>762.4</ele>
        <time>2019-08-12T11:40:14Z</time>
      </trkpt>
      <trkpt lat="39.7225150" lon="-3.9897190">
        <ele>762.5</ele>
        <time>2019-08-12T11:40:15Z</time>
      </trkpt>
      <trkpt lat="39.7225490" lon="-3.9897610">
        <ele>762.7</ele>
        <time>2019-08-12T11:40:16Z</time>
      </trkpt>
      <trkpt lat="39.7225830" lon="-3.9898030">
        <ele>762.8</ele>
        <time>2019-08-12T11:40:17Z</time>
      </trkpt>
      <trkpt lat="39.7226170" lon="-3.9898460">
        <ele>762.9</ele>
        <time>2019-08-12T11:40:18Z</time>
      </trkpt>
      <trkpt lat="39.7226510" lon="-3.9898880">
        <ele>763.0</ele>
        <time>2019-08-12T11:40:19Z</time>
      </trkpt>
      <trkpt lat="39.7226840" lon="-3.9899310">
        <ele>763.1</ele>
        <time>2019-08-12T11:40:20Z</time>
      </trkpt>
      <trkpt lat="39.7227180" lon="-3.9899740">
        <ele>763.1</ele>
        <time>2019-08-12T11:40:21Z</time>
      </trkpt>
      <trkpt lat="39.7227510" lon="-3.9900180">
        <ele>763.2</ele>
        <time>2019-08-12T11:40:22Z</time>
      </trkpt>
      <trkpt lat="39.7227840" lon="-3.9900630">
        <ele>763.3</ele>
        <time>2019-08-12T11:40:23Z</time>
      </trkpt>
      <trkpt lat="39.7228170" lon="-3.9901080">
        <ele>763.3</ele>
        <time>2019-08-12T11:40:24Z</time>
      </trkpt>
      <trkpt lat="39.7228500" lon="-3.9901550">
        <ele>763.3</ele>
        <time>2019-08-12T11:40:25Z</time>
      </trkpt>
      <trkpt lat="39.7228840" lon="-3.9902020">
        <ele>763.3</ele>
        <time>2019-08-12T11:40:26Z</time>
      </trkpt>
      <trkpt lat="39.7229170" lon="-3.9902490">
        <ele>763.4</ele>
        <time>2019-08-12T11:40:27Z</time>
      </trkpt>
      <trkpt lat="39.7229510" lon="-3.9902960">
        <ele>763.4</ele>
        <time>2019-08-12T11:40:28Z</time>
      </trkpt>
      <trkpt lat="39.7229850" lon="-3.9903440">
        <ele>763.4</ele>
        <time>2019-08-12T11:40:29Z</time>
      </trkpt>
      <trkpt lat="39.7230190" lon="-3.9903930">
        <ele>763.4</ele>
        <time>2019-08-12T11:40:30Z</time>
      </trkpt>
      <trkpt lat="39.7230540" lon="-3.9904410">
        <ele>763.4</ele>
        <time>2019-08-12T11:40:31Z</time>
      </trkpt>
      <trkpt lat="39.7230900" lon="-3.9904890">
        <ele>763.4</ele>
        <time>2019-08-12T11:40:32Z</time>
      </trkpt>
      <trkpt lat="39.7231260" lon="-3.9905380">
        <ele>763.4</ele>
        <time>2019-08-12T11:40:33Z</time>
      </trkpt>
      <trkpt lat="39.7231630" lon="-3.9905860">
        <ele>763.4</ele>
        <time>2019-08-12T11:40:34Z</time>
      </trkpt>
      <trkpt lat="39.7232000" lon="-3.9906340">
        <ele>763.4</ele>
        <time>2019-08-12T11:40:35Z</time>
      </trkpt>
      <trkpt lat="39.7232370" lon="-3.9906830">
        <ele>763.3</ele>
        <time>2019-08-12T11:40:36Z</time>
      </trkpt>
      <trkpt lat="39.7232740" lon="-3.9907320">
        <ele>763.3</ele>
        <time>2019-08-12T11:40:37Z</time>
      </trkpt>
      <trkpt lat="39.7233110" lon="-3.9907820">
        <ele>763.3</ele>
        <time>2019-08-12T11:40:38Z</time>
      </trkpt>
      <trkpt lat="39.7233480" lon="-3.9908320">
        <ele>763.2</ele>
        <time>2019-08-12T11:40:39Z</time>
      </trkpt>
      <trkpt lat="39.7233850" lon="-3.9908830">
        <ele>763.1</ele>
        <time>2019-08-12T11:40:40Z</time>
      </trkpt>
      <trkpt lat="39.7234200" lon="-3.9909340">
        <ele>763.1</ele>
        <time>2019-08-12T11:40:41Z</time>
      </trkpt>
      <trkpt lat="39.7234560" lon="-3.9909860">
        <ele>763.0</ele>
        <time>2019-08-12T11:40:42Z</time>
      </trkpt>
      <trkpt lat="39.7234910" lon="-3.9910400">
        <ele>763.0</ele>
        <time>2019-08-12T11:40:43Z</time>
      </trkpt>
      <trkpt lat="39.7235250" lon="-3.9910940">
        <ele>762.9</ele>
        <time>2019-08-12T11:40:44Z</time>
      </trkpt>
      <trkpt lat="39.7235580" lon="-3.9911490">
        <ele>762.9</ele>
        <time>2019-08-12T11:40:45Z</time>
      </trkpt>
      <trkpt lat="39.7235910" lon="-3.9912050">
        <ele>762.9</ele>
        <time>2019-08-12T11:40:46Z</time>
      </trkpt>
      <trkpt lat="39.7236240" lon="-3.9912620">
        <ele>762.8</ele>
        <time>2019-08-12T11:40:47Z</time>
      </trkpt>
      <trkpt lat="39.7236560" lon="-3.9913190">
        <ele>762.8</ele>
        <time>2019-08-12T11:40:48Z</time>
      </trkpt>
      <trkpt lat="39.7236890" lon="-3.9913760">
        <ele>762.7</ele>
        <time>2019-08-12T11:40:49Z</time>
      </trkpt>
      <trkpt lat="39.7237220" lon="-3.9914330">
        <ele>762.7</ele>
        <time>2019-08-12T11:40:50Z</time>
      </trkpt>
      <trkpt lat="39.7237560" lon="-3.9914890">
        <ele>762.7</ele>
        <time>2019-08-12T11:40:51Z</time>
      </trkpt>
      <trkpt lat="39.7237910" lon="-3.9915440">
        <ele>762.6</ele>
        <time>2019-08-12T11:40:52Z</time>
      </trkpt>
      <trkpt lat="39.7238260" lon="-3.9915980">
        <ele>762.6</ele>
        <time>2019-08-12T11:40:53Z</time>
      </trkpt>
      <trkpt lat="39.7238630" lon="-3.9916520">
        <ele>762.5</ele>
        <time>2019-08-12T11:40:54Z</time>
      </trkpt>
      <trkpt lat="39.7239010" lon="-3.9917050">
        <ele>762.5</ele>
        <time>2019-08-12T11:40:55Z</time>
      </trkpt>
      <trkpt lat="39.7239400" lon="-3.9917580">
        <ele>762.4</ele>
        <time>2019-08-12T11:40:56Z</time>
      </trkpt>
      <trkpt lat="39.7239790" lon="-3.9918120">
        <ele>762.4</ele>
        <time>2019-08-12T11:40:57Z</time>
      </trkpt>
      <trkpt lat="39.7240170" lon="-3.9918650">
        <ele>762.4</ele>
        <time>2019-08-12T11:40:58Z</time>
      </trkpt>
      <trkpt lat="39.7240550" lon="-3.9919190">
        <ele>762.4</ele>
        <time>2019-08-12T11:40:59Z</time>
      </trkpt>
      <trkpt lat="39.7240900" lon="-3.9919730">
        <ele>762.4</ele>
        <time>2019-08-12T11:41:00Z</time>
      </trkpt>
      <trkpt lat="39.7241240" lon="-3.9920280">
        <ele>762.4</ele>
        <time>2019-08-12T11:41:01Z</time>
      </trkpt>
      <trkpt lat="39.7241570" lon="-3.9920840">
        <ele>762.3</ele>
        <time>2019-08-12T11:41:02Z</time>
      </trkpt>
      <trkpt lat="39.7241900" lon="-3.9921390">
        <ele>762.3</ele>
        <time>2019-08-12T11:41:03Z</time>
      </trkpt>
      <trkpt lat="39.7242230" lon="-3.9921940">
        <ele>762.3</ele>
        <time>2019-08-12T11:41:04Z</time>
      </trkpt>
      <trkpt lat="39.7242560" lon="-3.9922490">
        <ele>762.3</ele>
        <time>2019-08-12T11:41:05Z</time>
      </trkpt>
      <trkpt lat="39.7242910" lon="-3.9923040">
        <ele>762.2</ele>
        <time>2019-08-12T11:41:06Z</time>
      </trkpt>
      <trkpt lat="39.7243250" lon="-3.9923580">
        <ele>762.2</ele>
        <time>2019-08-12T11:41:07Z</time>
      </trkpt>
      <trkpt lat="39.7243610" lon="-3.9924120">
        <ele>762.2</ele>
        <time>2019-08-12T11:41:08Z</time>
      </trkpt>
      <trkpt lat="39.7243970" lon="-3.9924660">
        <ele>762.2</ele>
        <time>2019-08-12T11:41:09Z</time>
      </trkpt>
      <trkpt lat="39.7244330" lon="-3.9925200">
        <ele>762.2</ele>
        <time>2019-08-12T11:41:10Z</time>
      </trkpt>
      <trkpt lat="39.7244700" lon="-3.9925740">
        <ele>762.2</ele>
        <time>2019-08-12T11:41:11Z</time>
      </trkpt>
      <trkpt lat="39.7245080" lon="-3.9926280">
        <ele>762.3</ele>
        <time>2019-08-12T11:41:12Z</time>
      </trkpt>
      <trkpt lat="39.7245460" lon="-3.9926810">
        <ele>762.3</ele>
        <time>2019-08-12T11:41:13Z</time>
      </trkpt>
      <trkpt lat="39.7245840" lon="-3.9927340">
        <ele>762.3</ele>
        <time>2019-08-12T11:41:14Z</time>
      </trkpt>
      <trkpt lat="39.7246240" lon="-3.9927860">
        <ele>762.4</ele>
        <time>2019-08-12T11:41:15Z</time>
      </trkpt>
      <trkpt lat="39.7246630" lon="-3.9928380">
        <ele>762.4</ele>
        <time>2019-08-12T11:41:16Z</time>
      </trkpt>
      <trkpt lat="39.7247030" lon="-3.9928890">
        <ele>762.4</ele>
        <time>2019-08-12T11:41:17Z</time>
      </trkpt>
      <trkpt lat="39.7247440" lon="-3.9929390">
        <ele>762.4</ele>
        <time>2019-08-12T11:41:18Z</time>
      </trkpt>
      <trkpt lat="39.7247850" lon="-3.9929880">
        <ele>762.4</ele>
        <time>2019-08-12T11:41:19Z</time>
      </trkpt>
      <trkpt lat="39.7248260" lon="-3.9930360">
        <ele>762.4</ele>
        <time>2019-08-12T11:41:20Z</time>
      </trkpt>
      <trkpt lat="39.7248670" lon="-3.9930830">
        <ele>762.4</ele>
        <time>2019-08-12T11:41:21Z</time>
      </trkpt>
      <trkpt lat="39.7249090" lon="-3.9931290">
        <ele>762.4</ele>
        <time>2019-08-12T11:41:22Z</time>
      </trkpt>
      <trkpt lat="39.7249520" lon="-3.9931740">
        <ele>762.4</ele>
        <time>2019-08-12T11:41:23Z</time>
      </trkpt>
      <trkpt lat="39.7249940" lon="-3.9932180">
        <ele>762.4</ele>
        <time>2019-08-12T11:41:24Z</time>
      </trkpt>
      <trkpt lat="39.7250360" lon="-3.9932610">
        <ele>762.4</ele>
        <time>2019-08-12T11:41:25Z</time>
      </trkpt>
      <trkpt lat="39.7250790" lon="-3.9933040">
        <ele>762.5</ele>
        <time>2019-08-12T11:41:26Z</time>
      </trkpt>
      <trkpt lat="39.7251210" lon="-3.9933480">
        <ele>762.5</ele>
        <time>2019-08-12T11:41:27Z</time>
      </trkpt>
      <trkpt lat="39.7251630" lon="-3.9933910">
        <ele>762.5</ele>
        <time>2019-08-12T11:41:28Z</time>
      </trkpt>
      <trkpt lat="39.7252050" lon="-3.9934350">
        <ele>762.4</ele>
        <time>2019-08-12T11:41:29Z</time>
      </trkpt>
      <trkpt lat="39.7252470" lon="-3.9934790">
        <ele>762.4</ele>
        <time>2019-08-12T11:41:30Z</time>
      </trkpt>
      <trkpt lat="39.7252890" lon="-3.9935240">
        <ele>762.4</ele>
        <time>2019-08-12T11:41:31Z</time>
      </trkpt>
      <trkpt lat="39.7253300" lon="-3.9935680">
        <ele>762.3</ele>
        <time>2019-08-12T11:41:32Z</time>
      </trkpt>
      <trkpt lat="39.7253720" lon="-3.9936130">
        <ele>762.3</ele>
        <time>2019-08-12T11:41:33Z</time>
      </trkpt>
      <trkpt lat="39.7254140" lon="-3.9936580">
        <ele>762.2</ele>
        <time>2019-08-12T11:41:34Z</time>
      </trkpt>
      <trkpt lat="39.7254570" lon="-3.9937030">
        <ele>762.2</ele>
        <time>2019-08-12T11:41:35Z</time>
      </trkpt>
      <trkpt lat="39.7254990" lon="-3.9937490">
        <ele>762.1</ele>
        <time>2019-08-12T11:41:36Z</time>
      </trkpt>
      <trkpt lat="39.7255420" lon="-3.9937940">
        <ele>762.0</ele>
        <time>2019-08-12T11:41:37Z</time>
      </trkpt>
      <trkpt lat="39.7255840" lon="-3.9938410">
        <ele>762.0</ele>
        <time>2019-08-12T11:41:38Z</time>
      </trkpt>
      <trkpt lat="39.7256270" lon="-3.9938870">
        <ele>761.9</ele>
        <time>2019-08-12T11:41:39Z</time>
      </trkpt>
      <trkpt lat="39.7256700" lon="-3.9939340">
        <ele>761.9</ele>
        <time>2019-08-12T11:41:40Z</time>
      </trkpt>
      <trkpt lat="39.7257130" lon="-3.9939820">
        <ele>761.9</ele>
        <time>2019-08-12T11:41:41Z</time>
      </trkpt>
      <trkpt lat="39.7257550" lon="-3.9940300">
        <ele>761.8</ele>
        <time>2019-08-12T11:41:42Z</time>
      </trkpt>
      <trkpt lat="39.7257970" lon="-3.9940790">
        <ele>761.8</ele>
        <time>2019-08-12T11:41:43Z</time>
      </trkpt>
      <trkpt lat="39.7258390" lon="-3.9941290">
        <ele>761.8</ele>
        <time>2019-08-12T11:41:44Z</time>
      </trkpt>
      <trkpt lat="39.7258810" lon="-3.9941800">
        <ele>761.8</ele>
        <time>2019-08-12T11:41:45Z</time>
      </trkpt>
      <trkpt lat="39.7259220" lon="-3.9942310">
        <ele>761.8</ele>
        <time>2019-08-12T11:41:46Z</time>
      </trkpt>
      <trkpt lat="39.7259630" lon="-3.9942830">
        <ele>761.8</ele>
        <time>2019-08-12T11:41:47Z</time>
      </trkpt>
      <trkpt lat="39.7260050" lon="-3.9943350">
        <ele>761.8</ele>
        <time>2019-08-12T11:41:48Z</time>
      </trkpt>
      <trkpt lat="39.7260460" lon="-3.9943860">
        <ele>761.8</ele>
        <time>2019-08-12T11:41:49Z</time>
      </trkpt>
      <trkpt lat="39.7260890" lon="-3.9944350">
        <ele>761.8</ele>
        <time>2019-08-12T11:41:50Z</time>
      </trkpt>
      <trkpt lat="39.7261320" lon="-3.9944840">
        <ele>761.8</ele>
        <time>2019-08-12T11:41:51Z</time>
      </trkpt>
      <trkpt lat="39.7261750" lon="-3.9945310">
        <ele>761.8</ele>
        <time>2019-08-12T11:41:52Z</time>
      </trkpt>
      <trkpt lat="39.7262190" lon="-3.9945780">
        <ele>761.8</ele>
        <time>2019-08-12T11:41:53Z</time>
      </trkpt>
      <trkpt lat="39.7262620" lon="-3.9946250">
        <ele>761.9</ele>
        <time>2019-08-12T11:41:54Z</time>
      </trkpt>
      <trkpt lat="39.7263040" lon="-3.9946750">
        <ele>761.9</ele>
        <time>2019-08-12T11:41:55Z</time>
      </trkpt>
      <trkpt lat="39.7263440" lon="-3.9947250">
        <ele>761.9</ele>
        <time>2019-08-12T11:41:56Z</time>
      </trkpt>
      <trkpt lat="39.7263840" lon="-3.9947760">
        <ele>762.0</ele>
        <time>2019-08-12T11:41:57Z</time>
      </trkpt>
      <trkpt lat="39.7264230" lon="-3.9948290">
        <ele>762.0</ele>
        <time>2019-08-12T11:41:58Z</time>
      </trkpt>
      <trkpt lat="39.7264610" lon="-3.9948820">
        <ele>762.0</ele>
        <time>2019-08-12T11:41:59Z</time>
      </trkpt>
      <trkpt lat="39.7264990" lon="-3.9949350">
        <ele>762.1</ele>
        <time>2019-08-12T11:42:00Z</time>
      </trkpt>
      <trkpt lat="39.7265350" lon="-3.9949880">
        <ele>762.1</ele>
        <time>2019-08-12T11:42:01Z</time>
      </trkpt>
      <trkpt lat="39.7265720" lon="-3.9950420">
        <ele>762.2</ele>
        <time>2019-08-12T11:42:02Z</time>
      </trkpt>
      <trkpt lat="39.7266070" lon="-3.9950940">
        <ele>762.2</ele>
        <time>2019-08-12T11:42:03Z</time>
      </trkpt>
      <trkpt lat="39.7266420" lon="-3.9951470">
        <ele>762.3</ele>
        <time>2019-08-12T11:42:04Z</time>
      </trkpt>
      <trkpt lat="39.7266770" lon="-3.9951980">
        <ele>762.3</ele>
        <time>2019-08-12T11:42:05Z</time>
      </trkpt>
      <trkpt lat="39.7267130" lon="-3.9952490">
        <ele>762.4</ele>
        <time>2019-08-12T11:42:06Z</time>
      </trkpt>
      <trkpt lat="39.7267480" lon="-3.9953000">
        <ele>762.4</ele>
        <time>2019-08-12T11:42:07Z</time>
      </trkpt>
      <trkpt lat="39.7267840" lon="-3.9953490">
        <ele>762.5</ele>
        <time>2019-08-12T11:42:08Z</time>
      </trkpt>
      <trkpt lat="39.7268210" lon="-3.9953980">
        <ele>762.5</ele>
        <time>2019-08-12T11:42:09Z</time>
      </trkpt>
      <trkpt lat="39.7268590" lon="-3.9954470">
        <ele>762.6</ele>
        <time>2019-08-12T11:42:10Z</time>
      </trkpt>
      <trkpt lat="39.7268960" lon="-3.9954950">
        <ele>762.7</ele>
        <time>2019-08-12T11:42:11Z</time>
      </trkpt>
      <trkpt lat="39.7269330" lon="-3.9955420">
        <ele>762.7</ele>
        <time>2019-08-12T11:42:12Z</time>
      </trkpt>
      <trkpt lat="39.7269690" lon="-3.9955890">
        <ele>762.8</ele>
        <time>2019-08-12T11:42:13Z</time>
      </trkpt>
      <trkpt lat="39.7270040" lon="-3.9956350">
        <ele>762.8</ele>
        <time>2019-08-12T11:42:14Z</time>
      </trkpt>
      <trkpt lat="39.7270380" lon="-3.9956810">
        <ele>762.9</ele>
        <time>2019-08-12T11:42:15Z</time>
      </trkpt>
      <trkpt lat="39.7270720" lon="-3.9957260">
        <ele>763.0</ele>
        <time>2019-08-12T11:42:16Z</time>
      </trkpt>
      <trkpt lat="39.7271050" lon="-3.9957710">
        <ele>763.1</ele>
        <time>2019-08-12T11:42:17Z</time>
      </trkpt>
      <trkpt lat="39.7271380" lon="-3.9958160">
        <ele>763.1</ele>
        <time>2019-08-12T11:42:18Z</time>
      </trkpt>
      <trkpt lat="39.7271700" lon="-3.9958610">
        <ele>763.2</ele>
        <time>2019-08-12T11:42:19Z</time>
      </trkpt>
      <trkpt lat="39.7272020" lon="-3.9959060">
        <ele>763.3</ele>
        <time>2019-08-12T11:42:20Z</time>
      </trkpt>
      <trkpt lat="39.7272350" lon="-3.9959510">
        <ele>763.4</ele>
        <time>2019-08-12T11:42:21Z</time>
      </trkpt>
      <trkpt lat="39.7272670" lon="-3.9959960">
        <ele>763.5</ele>
        <time>2019-08-12T11:42:22Z</time>
      </trkpt>
      <trkpt lat="39.7273000" lon="-3.9960420">
        <ele>763.6</ele>
        <time>2019-08-12T11:42:23Z</time>
      </trkpt>
      <trkpt lat="39.7273330" lon="-3.9960870">
        <ele>763.6</ele>
        <time>2019-08-12T11:42:24Z</time>
      </trkpt>
      <trkpt lat="39.7273660" lon="-3.9961320">
        <ele>763.7</ele>
        <time>2019-08-12T11:42:25Z</time>
      </trkpt>
      <trkpt lat="39.7274000" lon="-3.9961770">
        <ele>763.8</ele>
        <time>2019-08-12T11:42:26Z</time>
      </trkpt>
      <trkpt lat="39.7274350" lon="-3.9962220">
        <ele>763.9</ele>
        <time>2019-08-12T11:42:27Z</time>
      </trkpt>
      <trkpt lat="39.7274700" lon="-3.9962660">
        <ele>764.0</ele>
        <time>2019-08-12T11:42:28Z</time>
      </trkpt>
      <trkpt lat="39.7275050" lon="-3.9963090">
        <ele>764.0</ele>
        <time>2019-08-12T11:42:29Z</time>
      </trkpt>
      <trkpt lat="39.7275420" lon="-3.9963510">
        <ele>764.1</ele>
        <time>2019-08-12T11:42:30Z</time>
      </trkpt>
      <trkpt lat="39.7275790" lon="-3.9963930">
        <ele>764.2</ele>
        <time>2019-08-12T11:42:31Z</time>
      </trkpt>
      <trkpt lat="39.7276170" lon="-3.9964330">
        <ele>764.3</ele>
        <time>2019-08-12T11:42:32Z</time>
      </trkpt>
      <trkpt lat="39.7276560" lon="-3.9964720">
        <ele>764.4</ele>
        <time>2019-08-12T11:42:33Z</time>
      </trkpt>
      <trkpt lat="39.7276950" lon="-3.9965110">
        <ele>764.4</ele>
        <time>2019-08-12T11:42:34Z</time>
      </trkpt>
      <trkpt lat="39.7277340" lon="-3.9965480">
        <ele>764.5</ele>
        <time>2019-08-12T11:42:35Z</time>
      </trkpt>
      <trkpt lat="39.7277730" lon="-3.9965840">
        <ele>764.6</ele>
        <time>2019-08-12T11:42:36Z</time>
      </trkpt>
      <trkpt lat="39.7278120" lon="-3.9966200">
        <ele>764.7</ele>
        <time>2019-08-12T11:42:37Z</time>
      </trkpt>
      <trkpt lat="39.7278500" lon="-3.9966540">
        <ele>764.8</ele>
        <time>2019-08-12T11:42:38Z</time>
      </trkpt>
      <trkpt lat="39.7278880" lon="-3.9966880">
        <ele>764.9</ele>
        <time>2019-08-12T11:42:39Z</time>
      </trkpt>
      <trkpt lat="39.7279240" lon="-3.9967220">
        <ele>765.0</ele>
        <time>2019-08-12T11:42:40Z</time>
      </trkpt>
      <trkpt lat="39.7279600" lon="-3.9967540">
        <ele>765.1</ele>
        <time>2019-08-12T11:42:41Z</time>
      </trkpt>
      <trkpt lat="39.7279940" lon="-3.9967860">
        <ele>765.2</ele>
        <time>2019-08-12T11:42:42Z</time>
      </trkpt>
      <trkpt lat="39.7280270" lon="-3.9968180">
        <ele>765.2</ele>
        <time>2019-08-12T11:42:43Z</time>
      </trkpt>
      <trkpt lat="39.7280600" lon="-3.9968500">
        <ele>765.3</ele>
        <time>2019-08-12T11:42:44Z</time>
      </trkpt>
      <trkpt lat="39.7280920" lon="-3.9968810">
        <ele>765.4</ele>
        <time>2019-08-12T11:42:45Z</time>
      </trkpt>
      <trkpt lat="39.7281240" lon="-3.9969110">
        <ele>765.5</ele>
        <time>2019-08-12T11:42:46Z</time>
      </trkpt>
      <trkpt lat="39.7281560" lon="-3.9969420">
        <ele>765.6</ele>
        <time>2019-08-12T11:42:47Z</time>
      </trkpt>
      <trkpt lat="39.7281870" lon="-3.9969730">
        <ele>765.7</ele>
        <time>2019-08-12T11:42:48Z</time>
      </trkpt>
      <trkpt lat="39.7282190" lon="-3.9970040">
        <ele>765.8</ele>
        <time>2019-08-12T11:42:49Z</time>
      </trkpt>
      <trkpt lat="39.7282520" lon="-3.9970340">
        <ele>765.9</ele>
        <time>2019-08-12T11:42:50Z</time>
      </trkpt>
      <trkpt lat="39.7282850" lon="-3.9970650">
        <ele>766.0</ele>
        <time>2019-08-12T11:42:51Z</time>
      </trkpt>
      <trkpt lat="39.7283180" lon="-3.9970960">
        <ele>766.1</ele>
        <time>2019-08-12T11:42:52Z</time>
      </trkpt>
      <trkpt lat="39.7283510" lon="-3.9971270">
        <ele>766.2</ele>
        <time>2019-08-12T11:42:53Z</time>
      </trkpt>
      <trkpt lat="39.7283850" lon="-3.9971580">
        <ele>766.2</ele>
        <time>2019-08-12T11:42:54Z</time>
      </trkpt>
      <trkpt lat="39.7284180" lon="-3.9971900">
        <ele>766.3</ele>
        <time>2019-08-12T11:42:55Z</time>
      </trkpt>
      <trkpt lat="39.7284520" lon="-3.9972210">
        <ele>766.4</ele>
        <time>2019-08-12T11:42:56Z</time>
      </trkpt>
      <trkpt lat="39.7284850" lon="-3.9972520">
        <ele>766.5</ele>
        <time>2019-08-12T11:42:57Z</time>
      </trkpt>
      <trkpt lat="39.7285190" lon="-3.9972830">
        <ele>766.6</ele>
        <time>2019-08-12T11:42:58Z</time>
      </trkpt>
      <trkpt lat="39.7285520" lon="-3.9973140">
        <ele>766.7</ele>
        <time>2019-08-12T11:42:59Z</time>
      </trkpt>
      <trkpt lat="39.7285840" lon="-3.9973450">
        <ele>766.8</ele>
        <time>2019-08-12T11:43:00Z</time>
      </trkpt>
      <trkpt lat="39.7286170" lon="-3.9973760">
        <ele>766.9</ele>
        <time>2019-08-12T11:43:01Z</time>
      </trkpt>
      <trkpt lat="39.7286490" lon="-3.9974060">
        <ele>766.9</ele>
        <time>2019-08-12T11:43:02Z</time>
      </trkpt>
      <trkpt lat="39.7286810" lon="-3.9974370">
        <ele>767.0</ele>
        <time>2019-08-12T11:43:03Z</time>
      </trkpt>
      <trkpt lat="39.7287130" lon="-3.9974670">
        <ele>767.0</ele>
        <time>2019-08-12T11:43:04Z</time>
      </trkpt>
      <trkpt lat="39.7287450" lon="-3.9974980">
        <ele>767.1</ele>
        <time>2019-08-12T11:43:05Z</time>
      </trkpt>
      <trkpt lat="39.7287780" lon="-3.9975280">
        <ele>767.1</ele>
        <time>2019-08-12T11:43:06Z</time>
      </trkpt>
      <trkpt lat="39.7288100" lon="-3.9975580">
        <ele>767.1</ele>
        <time>2019-08-12T11:43:07Z</time>
      </trkpt>
      <trkpt lat="39.7288430" lon="-3.9975870">
        <ele>767.2</ele>
        <time>2019-08-12T11:43:08Z</time>
      </trkpt>
      <trkpt lat="39.7288770" lon="-3.9976160">
        <ele>767.2</ele>
        <time>2019-08-12T11:43:09Z</time>
      </trkpt>
      <trkpt lat="39.7289100" lon="-3.9976460">
        <ele>767.2</ele>
        <time>2019-08-12T11:43:10Z</time>
      </trkpt>
      <trkpt lat="39.7289440" lon="-3.9976740">
        <ele>767.3</ele>
        <time>2019-08-12T11:43:11Z</time>
      </trkpt>
      <trkpt lat="39.7289780" lon="-3.9977030">
        <ele>767.3</ele>
        <time>2019-08-12T11:43:12Z</time>
      </trkpt>
      <trkpt lat="39.7290120" lon="-3.9977320">
        <ele>767.4</ele>
        <time>2019-08-12T11:43:13Z</time>
      </trkpt>
      <trkpt lat="39.7290460" lon="-3.9977610">
        <ele>767.5</ele>
        <time>2019-08-12T11:43:14Z</time>
      </trkpt>
      <trkpt lat="39.7290800" lon="-3.9977890">
        <ele>767.6</ele>
        <time>2019-08-12T11:43:15Z</time>
      </trkpt>
      <trkpt lat="39.7291140" lon="-3.9978180">
        <ele>767.7</ele>
        <time>2019-08-12T11:43:16Z</time>
      </trkpt>
      <trkpt lat="39.7291470" lon="-3.9978470">
        <ele>767.8</ele>
        <time>2019-08-12T11:43:17Z</time>
      </trkpt>
      <trkpt lat="39.7291800" lon="-3.9978760">
        <ele>767.9</ele>
        <time>2019-08-12T11:43:18Z</time>
      </trkpt>
      <trkpt lat="39.7292130" lon="-3.9979050">
        <ele>768.0</ele>
        <time>2019-08-12T11:43:19Z</time>
      </trkpt>
      <trkpt lat="39.7292450" lon="-3.9979340">
        <ele>768.1</ele>
        <time>2019-08-12T11:43:20Z</time>
      </trkpt>
      <trkpt lat="39.7292770" lon="-3.9979630">
        <ele>768.2</ele>
        <time>2019-08-12T11:43:21Z</time>
      </trkpt>
      <trkpt lat="39.7293080" lon="-3.9979920">
        <ele>768.3</ele>
        <time>2019-08-12T11:43:22Z</time>
      </trkpt>
      <trkpt lat="39.7293400" lon="-3.9980220">
        <ele>768.4</ele>
        <time>2019-08-12T11:43:23Z</time>
      </trkpt>
      <trkpt lat="39.7293710" lon="-3.9980520">
        <ele>768.5</ele>
        <time>2019-08-12T11:43:24Z</time>
      </trkpt>
      <trkpt lat="39.7294020" lon="-3.9980810">
        <ele>768.6</ele>
        <time>2019-08-12T11:43:25Z</time>
      </trkpt>
      <trkpt lat="39.7294320" lon="-3.9981110">
        <ele>768.7</ele>
        <time>2019-08-12T11:43:26Z</time>
      </trkpt>
      <trkpt lat="39.7294630" lon="-3.9981410">
        <ele>768.8</ele>
        <time>2019-08-12T11:43:27Z</time>
      </trkpt>
      <trkpt lat="39.7294930" lon="-3.9981710">
        <ele>769.0</ele>
        <time>2019-08-12T11:43:28Z</time>
      </trkpt>
      <trkpt lat="39.7295230" lon="-3.9982020">
        <ele>769.1</ele>
        <time>2019-08-12T11:43:29Z</time>
      </trkpt>
      <trkpt lat="39.7295520" lon="-3.9982320">
        <ele>769.2</ele>
        <time>2019-08-12T11:43:30Z</time>
      </trkpt>
      <trkpt lat="39.7295820" lon="-3.9982630">
        <ele>769.3</ele>
        <time>2019-08-12T11:43:31Z</time>
      </trkpt>
      <trkpt lat="39.7296110" lon="-3.9982940">
        <ele>769.5</ele>
        <time>2019-08-12T11:43:32Z</time>
      </trkpt>
      <trkpt lat="39.7296400" lon="-3.9983240">
        <ele>769.6</ele>
        <time>2019-08-12T11:43:33Z</time>
      </trkpt>
      <trkpt lat="39.7296690" lon="-3.9983550">
        <ele>769.7</ele>
        <time>2019-08-12T11:43:34Z</time>
      </trkpt>
      <trkpt lat="39.7296980" lon="-3.9983850">
        <ele>769.9</ele>
        <time>2019-08-12T11:43:35Z</time>
      </trkpt>
      <trkpt lat="39.7297270" lon="-3.9984140">
        <ele>770.0</ele>
        <time>2019-08-12T11:43:36Z</time>
      </trkpt>
      <trkpt lat="39.7297570" lon="-3.9984430">
        <ele>770.2</ele>
        <time>2019-08-12T11:43:37Z</time>
      </trkpt>
      <trkpt lat="39.7297870" lon="-3.9984700">
        <ele>770.3</ele>
        <time>2019-08-12T11:43:38Z</time>
      </trkpt>
      <trkpt lat="39.7298160" lon="-3.9984970">
        <ele>770.5</ele>
        <time>2019-08-12T11:43:39Z</time>
      </trkpt>
      <trkpt lat="39.7298460" lon="-3.9985240">
        <ele>770.7</ele>
        <time>2019-08-12T11:43:40Z</time>
      </trkpt>
      <trkpt lat="39.7298760" lon="-3.9985510">
        <ele>770.8</ele>
        <time>2019-08-12T11:43:41Z</time>
      </trkpt>
      <trkpt lat="39.7299060" lon="-3.9985780">
        <ele>771.0</ele>
        <time>2019-08-12T11:43:42Z</time>
      </trkpt>
      <trkpt lat="39.7299360" lon="-3.9986060">
        <ele>771.2</ele>
        <time>2019-08-12T11:43:43Z</time>
      </trkpt>
      <trkpt lat="39.7299660" lon="-3.9986350">
        <ele>771.3</ele>
        <time>2019-08-12T11:43:44Z</time>
      </trkpt>
      <trkpt lat="39.7299950" lon="-3.9986650">
        <ele>771.5</ele>
        <time>2019-08-12T11:43:45Z</time>
      </trkpt>
      <trkpt lat="39.7300240" lon="-3.9986960">
        <ele>771.6</ele>
        <time>2019-08-12T11:43:46Z</time>
      </trkpt>
      <trkpt lat="39.7300530" lon="-3.9987270">
        <ele>771.8</ele>
        <time>2019-08-12T11:43:47Z</time>
      </trkpt>
      <trkpt lat="39.7300820" lon="-3.9987590">
        <ele>772.0</ele>
        <time>2019-08-12T11:43:48Z</time>
      </trkpt>
      <trkpt lat="39.7301120" lon="-3.9987910">
        <ele>772.1</ele>
        <time>2019-08-12T11:43:49Z</time>
      </trkpt>
      <trkpt lat="39.7301410" lon="-3.9988210">
        <ele>772.2</ele>
        <time>2019-08-12T11:43:50Z</time>
      </trkpt>
      <trkpt lat="39.7301710" lon="-3.9988500">
        <ele>772.4</ele>
        <time>2019-08-12T11:43:51Z</time>
      </trkpt>
      <trkpt lat="39.7302010" lon="-3.9988780">
        <ele>772.5</ele>
        <time>2019-08-12T11:43:52Z</time>
      </trkpt>
      <trkpt lat="39.7302300" lon="-3.9989060">
        <ele>772.6</ele>
        <time>2019-08-12T11:43:53Z</time>
      </trkpt>
      <trkpt lat="39.7302590" lon="-3.9989350">
        <ele>772.7</ele>
        <time>2019-08-12T11:43:54Z</time>
      </trkpt>
      <trkpt lat="39.7302880" lon="-3.9989650">
        <ele>772.8</ele>
        <time>2019-08-12T11:43:55Z</time>
      </trkpt>
      <trkpt lat="39.7303160" lon="-3.9989960">
        <ele>772.9</ele>
        <time>2019-08-12T11:43:56Z</time>
      </trkpt>
      <trkpt lat="39.7303430" lon="-3.9990280">
        <ele>773.1</ele>
        <time>2019-08-12T11:43:57Z</time>
      </trkpt>
      <trkpt lat="39.7303710" lon="-3.9990610">
        <ele>773.2</ele>
        <time>2019-08-12T11:43:58Z</time>
      </trkpt>
      <trkpt lat="39.7303980" lon="-3.9990950">
        <ele>773.3</ele>
        <time>2019-08-12T11:43:59Z</time>
      </trkpt>
      <trkpt lat="39.7304270" lon="-3.9991300">
        <ele>773.4</ele>
        <time>2019-08-12T11:44:00Z</time>
      </trkpt>
      <trkpt lat="39.7304560" lon="-3.9991660">
        <ele>773.5</ele>
        <time>2019-08-12T11:44:01Z</time>
      </trkpt>
      <trkpt lat="39.7304850" lon="-3.9992030">
        <ele>773.6</ele>
        <time>2019-08-12T11:44:02Z</time>
      </trkpt>
      <trkpt lat="39.7305150" lon="-3.9992400">
        <ele>773.7</ele>
        <time>2019-08-12T11:44:03Z</time>
      </trkpt>
      <trkpt lat="39.7305450" lon="-3.9992780">
        <ele>773.8</ele>
        <time>2019-08-12T11:44:04Z</time>
      </trkpt>
      <trkpt lat="39.7305750" lon="-3.9993170">
        <ele>773.9</ele>
        <time>2019-08-12T11:44:05Z</time>
      </trkpt>
      <trkpt lat="39.7306050" lon="-3.9993570">
        <ele>773.9</ele>
        <time>2019-08-12T11:44:06Z</time>
      </trkpt>
      <trkpt lat="39.7306360" lon="-3.9993980">
        <ele>774.0</ele>
        <time>2019-08-12T11:44:07Z</time>
      </trkpt>
      <trkpt lat="39.7306660" lon="-3.9994410">
        <ele>774.1</ele>
        <time>2019-08-12T11:44:08Z</time>
      </trkpt>
      <trkpt lat="39.7306950" lon="-3.9994860">
        <ele>774.1</ele>
        <time>2019-08-12T11:44:09Z</time>
      </trkpt>
      <trkpt lat="39.7307250" lon="-3.9995330">
        <ele>774.1</ele>
        <time>2019-08-12T11:44:10Z</time>
      </trkpt>
      <trkpt lat="39.7307540" lon="-3.9995800">
        <ele>774.2</ele>
        <time>2019-08-12T11:44:11Z</time>
      </trkpt>
      <trkpt lat="39.7307840" lon="-3.9996280">
        <ele>774.2</ele>
        <time>2019-08-12T11:44:12Z</time>
      </trkpt>
      <trkpt lat="39.7308140" lon="-3.9996760">
        <ele>774.2</ele>
        <time>2019-08-12T11:44:13Z</time>
      </trkpt>
      <trkpt lat="39.7308450" lon="-3.9997240">
        <ele>774.2</ele>
        <time>2019-08-12T11:44:14Z</time>
      </trkpt>
      <trkpt lat="39.7308770" lon="-3.9997720">
        <ele>774.1</ele>
        <time>2019-08-12T11:44:15Z</time>
      </trkpt>
      <trkpt lat="39.7309090" lon="-3.9998210">
        <ele>774.1</ele>
        <time>2019-08-12T11:44:16Z</time>
      </trkpt>
      <trkpt lat="39.7309420" lon="-3.9998700">
        <ele>774.0</ele>
        <time>2019-08-12T11:44:17Z</time>
      </trkpt>
      <trkpt lat="39.7309750" lon="-3.9999200">
        <ele>774.0</ele>
        <time>2019-08-12T11:44:18Z</time>
      </trkpt>
      <trkpt lat="39.7310090" lon="-3.9999710">
        <ele>773.9</ele>
        <time>2019-08-12T11:44:19Z</time>
      </trkpt>
      <trkpt lat="39.7310430" lon="-4.0000240">
        <ele>773.8</ele>
        <time>2019-08-12T11:44:20Z</time>
      </trkpt>
      <trkpt lat="39.7310770" lon="-4.0000790">
        <ele>773.7</ele>
        <time>2019-08-12T11:44:21Z</time>
      </trkpt>
      <trkpt lat="39.7311120" lon="-4.0001360">
        <ele>773.6</ele>
        <time>2019-08-12T11:44:22Z</time>
      </trkpt>
      <trkpt lat="39.7311460" lon="-4.0001950">
        <ele>773.5</ele>
        <time>2019-08-12T11:44:23Z</time>
      </trkpt>
      <trkpt lat="39.7311810" lon="-4.0002570">
        <ele>773.4</ele>
        <time>2019-08-12T11:44:24Z</time>
      </trkpt>
      <trkpt lat="39.7312160" lon="-4.0003200">
        <ele>773.2</ele>
        <time>2019-08-12T11:44:25Z</time>
      </trkpt>
      <trkpt lat="39.7312510" lon="-4.0003840">
        <ele>773.1</ele>
        <time>2019-08-12T11:44:26Z</time>
      </trkpt>
      <trkpt lat="39.7312870" lon="-4.0004480">
        <ele>773.0</ele>
        <time>2019-08-12T11:44:27Z</time>
      </trkpt>
      <trkpt lat="39.7313230" lon="-4.0005120">
        <ele>772.9</ele>
        <time>2019-08-12T11:44:28Z</time>
      </trkpt>
      <trkpt lat="39.7313610" lon="-4.0005750">
        <ele>772.8</ele>
        <time>2019-08-12T11:44:29Z</time>
      </trkpt>
      <trkpt lat="39.7313990" lon="-4.0006380">
        <ele>772.7</ele>
        <time>2019-08-12T11:44:30Z</time>
      </trkpt>
      <trkpt lat="39.7314380" lon="-4.0006980">
        <ele>772.5</ele>
        <time>2019-08-12T11:44:31Z</time>
      </trkpt>
      <trkpt lat="39.7314790" lon="-4.0007570">
        <ele>772.4</ele>
        <time>2019-08-12T11:44:32Z</time>
      </trkpt>
      <trkpt lat="39.7315200" lon="-4.0008140">
        <ele>772.2</ele>
        <time>2019-08-12T11:44:33Z</time>
      </trkpt>
      <trkpt lat="39.7315630" lon="-4.0008720">
        <ele>772.1</ele>
        <time>2019-08-12T11:44:34Z</time>
      </trkpt>
      <trkpt lat="39.7316070" lon="-4.0009310">
        <ele>771.9</ele>
        <time>2019-08-12T11:44:35Z</time>
      </trkpt>
      <trkpt lat="39.7316530" lon="-4.0009930">
        <ele>771.7</ele>
        <time>2019-08-12T11:44:36Z</time>
      </trkpt>
      <trkpt lat="39.7316990" lon="-4.0010570">
        <ele>771.5</ele>
        <time>2019-08-12T11:44:37Z</time>
      </trkpt>
      <trkpt lat="39.7317470" lon="-4.0011240">
        <ele>771.4</ele>
        <time>2019-08-12T11:44:38Z</time>
      </trkpt>
      <trkpt lat="39.7317960" lon="-4.0011920">
        <ele>771.2</ele>
        <time>2019-08-12T11:44:39Z</time>
      </trkpt>
      <trkpt lat="39.7318450" lon="-4.0012580">
        <ele>771.0</ele>
        <time>2019-08-12T11:44:40Z</time>
      </trkpt>
      <trkpt lat="39.7318950" lon="-4.0013230">
        <ele>770.9</ele>
        <time>2019-08-12T11:44:41Z</time>
      </trkpt>
      <trkpt lat="39.7319460" lon="-4.0013850">
        <ele>770.8</ele>
        <time>2019-08-12T11:44:42Z</time>
      </trkpt>
      <trkpt lat="39.7319970" lon="-4.0014470">
        <ele>770.6</ele>
        <time>2019-08-12T11:44:43Z</time>
      </trkpt>
      <trkpt lat="39.7320490" lon="-4.0015070">
        <ele>770.5</ele>
        <time>2019-08-12T11:44:44Z</time>
      </trkpt>
      <trkpt lat="39.7321010" lon="-4.0015660">
        <ele>770.4</ele>
        <time>2019-08-12T11:44:45Z</time>
      </trkpt>
      <trkpt lat="39.7321530" lon="-4.0016250">
        <ele>770.3</ele>
        <time>2019-08-12T11:44:46Z</time>
      </trkpt>
      <trkpt lat="39.7322060" lon="-4.0016840">
        <ele>770.2</ele>
        <time>2019-08-12T11:44:47Z</time>
      </trkpt>
      <trkpt lat="39.7322580" lon="-4.0017430">
        <ele>770.1</ele>
        <time>2019-08-12T11:44:48Z</time>
      </trkpt>
      <trkpt lat="39.7323100" lon="-4.0018030">
        <ele>770.0</ele>
        <time>2019-08-12T11:44:49Z</time>
      </trkpt>
      <trkpt lat="39.7323630" lon="-4.0018640">
        <ele>769.9</ele>
        <time>2019-08-12T11:44:50Z</time>
      </trkpt>
      <trkpt lat="39.7324150" lon="-4.0019270">
        <ele>769.8</ele>
        <time>2019-08-12T11:44:51Z</time>
      </trkpt>
      <trkpt lat="39.7324670" lon="-4.0019910">
        <ele>769.7</ele>
        <time>2019-08-12T11:44:52Z</time>
      </trkpt>
      <trkpt lat="39.7325190" lon="-4.0020560">
        <ele>769.5</ele>
        <time>2019-08-12T11:44:53Z</time>
      </trkpt>
      <trkpt lat="39.7325700" lon="-4.0021210">
        <ele>769.4</ele>
        <time>2019-08-12T11:44:54Z</time>
      </trkpt>
      <trkpt lat="39.7326220" lon="-4.0021860">
        <ele>769.3</ele>
        <time>2019-08-12T11:44:55Z</time>
      </trkpt>
      <trkpt lat="39.7326730" lon="-4.0022510">
        <ele>769.1</ele>
        <time>2019-08-12T11:44:56Z</time>
      </trkpt>
      <trkpt lat="39.7327240" lon="-4.0023160">
        <ele>769.0</ele>
        <time>2019-08-12T11:44:57Z</time>
      </trkpt>
      <trkpt lat="39.7327740" lon="-4.0023800">
        <ele>768.9</ele>
        <time>2019-08-12T11:44:58Z</time>
      </trkpt>
      <trkpt lat="39.7328230" lon="-4.0024450">
        <ele>768.8</ele>
        <time>2019-08-12T11:44:59Z</time>
      </trkpt>
      <trkpt lat="39.7328710" lon="-4.0025110">
        <ele>768.7</ele>
        <time>2019-08-12T11:45:00Z</time>
      </trkpt>
      <trkpt lat="39.7329180" lon="-4.0025760">
        <ele>768.6</ele>
        <time>2019-08-12T11:45:01Z</time>
      </trkpt>
      <trkpt lat="39.7329640" lon="-4.0026420">
        <ele>768.5</ele>
        <time>2019-08-12T11:45:02Z</time>
      </trkpt>
      <trkpt lat="39.7330090" lon="-4.0027080">
        <ele>768.4</ele>
        <time>2019-08-12T11:45:03Z</time>
      </trkpt>
      <trkpt lat="39.7330540" lon="-4.0027750">
        <ele>768.4</ele>
        <time>2019-08-12T11:45:04Z</time>
      </trkpt>
      <trkpt lat="39.7331000" lon="-4.0028410">
        <ele>768.3</ele>
        <time>2019-08-12T11:45:05Z</time>
      </trkpt>
      <trkpt lat="39.7331450" lon="-4.0029070">
        <ele>768.3</ele>
        <time>2019-08-12T11:45:06Z</time>
      </trkpt>
      <trkpt lat="39.7331910" lon="-4.0029730">
        <ele>768.2</ele>
        <time>2019-08-12T11:45:07Z</time>
      </trkpt>
      <trkpt lat="39.7332370" lon="-4.0030390">
        <ele>768.2</ele>
        <time>2019-08-12T11:45:08Z</time>
      </trkpt>
      <trkpt lat="39.7332840" lon="-4.0031040">
        <ele>768.1</ele>
        <time>2019-08-12T11:45:09Z</time>
      </trkpt>
      <trkpt lat="39.7333320" lon="-4.0031690">
        <ele>768.1</ele>
        <time>2019-08-12T11:45:10Z</time>
      </trkpt>
      <trkpt lat="39.7333810" lon="-4.0032340">
        <ele>768.1</ele>
        <time>2019-08-12T11:45:11Z</time>
      </trkpt>
      <trkpt lat="39.7334310" lon="-4.0032980">
        <ele>768.0</ele>
        <time>2019-08-12T11:45:12Z</time>
      </trkpt>
      <trkpt lat="39.7334810" lon="-4.0033610">
        <ele>768.0</ele>
        <time>2019-08-12T11:45:13Z</time>
      </trkpt>
      <trkpt lat="39.7335320" lon="-4.0034240">
        <ele>767.9</ele>
        <time>2019-08-12T11:45:14Z</time>
      </trkpt>
      <trkpt lat="39.7335840" lon="-4.0034870">
        <ele>767.8</ele>
        <time>2019-08-12T11:45:15Z</time>
      </trkpt>
      <trkpt lat="39.7336360" lon="-4.0035490">
        <ele>767.7</ele>
        <time>2019-08-12T11:45:16Z</time>
      </trkpt>
      <trkpt lat="39.7336890" lon="-4.0036100">
        <ele>767.7</ele>
        <time>2019-08-12T11:45:17Z</time>
      </trkpt>
      <trkpt lat="39.7337420" lon="-4.0036710">
        <ele>767.6</ele>
        <time>2019-08-12T11:45:18Z</time>
      </trkpt>
      <trkpt lat="39.7337960" lon="-4.0037310">
        <ele>767.5</ele>
        <time>2019-08-12T11:45:19Z</time>
      </trkpt>
      <trkpt lat="39.7338510" lon="-4.0037900">
        <ele>767.4</ele>
        <time>2019-08-12T11:45:20Z</time>
      </trkpt>
      <trkpt lat="39.7339060" lon="-4.0038490">
        <ele>767.3</ele>
        <time>2019-08-12T11:45:21Z</time>
      </trkpt>
      <trkpt lat="39.7339610" lon="-4.0039060">
        <ele>767.2</ele>
        <time>2019-08-12T11:45:22Z</time>
      </trkpt>
      <trkpt lat="39.7340170" lon="-4.0039630">
        <ele>767.2</ele>
        <time>2019-08-12T11:45:23Z</time>
      </trkpt>
      <trkpt lat="39.7340740" lon="-4.0040180">
        <ele>767.1</ele>
        <time>2019-08-12T11:45:24Z</time>
      </trkpt>
      <trkpt lat="39.7341310" lon="-4.0040720">
        <ele>767.1</ele>
        <time>2019-08-12T11:45:25Z</time>
      </trkpt>
      <trkpt lat="39.7341880" lon="-4.0041240">
        <ele>767.0</ele>
        <time>2019-08-12T11:45:26Z</time>
      </trkpt>
      <trkpt lat="39.7342460" lon="-4.0041750">
        <ele>767.0</ele>
        <time>2019-08-12T11:45:27Z</time>
      </trkpt>
      <trkpt lat="39.7343040" lon="-4.0042240">
        <ele>766.9</ele>
        <time>2019-08-12T11:45:28Z</time>
      </trkpt>
      <trkpt lat="39.7343620" lon="-4.0042720">
        <ele>766.8</ele>
        <time>2019-08-12T11:45:29Z</time>
      </trkpt>
      <trkpt lat="39.7344210" lon="-4.0043180">
        <ele>766.8</ele>
        <time>2019-08-12T11:45:30Z</time>
      </trkpt>
      <trkpt lat="39.7344800" lon="-4.0043620">
        <ele>766.7</ele>
        <time>2019-08-12T11:45:31Z</time>
      </trkpt>
      <trkpt lat="39.7345400" lon="-4.0044050">
        <ele>766.7</ele>
        <time>2019-08-12T11:45:32Z</time>
      </trkpt>
      <trkpt lat="39.7345990" lon="-4.0044460">
        <ele>766.6</ele>
        <time>2019-08-12T11:45:33Z</time>
      </trkpt>
      <trkpt lat="39.7346590" lon="-4.0044850">
        <ele>766.6</ele>
        <time>2019-08-12T11:45:34Z</time>
      </trkpt>
      <trkpt lat="39.7347190" lon="-4.0045230">
        <ele>766.6</ele>
        <time>2019-08-12T11:45:35Z</time>
      </trkpt>
      <trkpt lat="39.7347790" lon="-4.0045590">
        <ele>766.6</ele>
        <time>2019-08-12T11:45:36Z</time>
      </trkpt>
      <trkpt lat="39.7348390" lon="-4.0045930">
        <ele>766.6</ele>
        <time>2019-08-12T11:45:37Z</time>
      </trkpt>
      <trkpt lat="39.7348990" lon="-4.0046260">
        <ele>766.6</ele>
        <time>2019-08-12T11:45:38Z</time>
      </trkpt>
      <trkpt lat="39.7349590" lon="-4.0046580">
        <ele>766.7</ele>
        <time>2019-08-12T11:45:39Z</time>
      </trkpt>
      <trkpt lat="39.7350200" lon="-4.0046890">
        <ele>766.7</ele>
        <time>2019-08-12T11:45:40Z</time>
      </trkpt>
      <trkpt lat="39.7350800" lon="-4.0047190">
        <ele>766.7</ele>
        <time>2019-08-12T11:45:41Z</time>
      </trkpt>
      <trkpt lat="39.7351410" lon="-4.0047490">
        <ele>766.7</ele>
        <time>2019-08-12T11:45:42Z</time>
      </trkpt>
      <trkpt lat="39.7352020" lon="-4.0047800">
        <ele>766.8</ele>
        <time>2019-08-12T11:45:43Z</time>
      </trkpt>
      <trkpt lat="39.7352630" lon="-4.0048100">
        <ele>766.8</ele>
        <time>2019-08-12T11:45:44Z</time>
      </trkpt>
      <trkpt lat="39.7353240" lon="-4.0048400">
        <ele>766.8</ele>
        <time>2019-08-12T11:45:45Z</time>
      </trkpt>
      <trkpt lat="39.7353860" lon="-4.0048720">
        <ele>766.9</ele>
        <time>2019-08-12T11:45:46Z</time>
      </trkpt>
      <trkpt lat="39.7354480" lon="-4.0049040">
        <ele>766.9</ele>
        <time>2019-08-12T11:45:47Z</time>
      </trkpt>
      <trkpt lat="39.7355100" lon="-4.0049360">
        <ele>766.9</ele>
        <time>2019-08-12T11:45:48Z</time>
      </trkpt>
      <trkpt lat="39.7355720" lon="-4.0049700">
        <ele>767.0</ele>
        <time>2019-08-12T11:45:49Z</time>
      </trkpt>
      <trkpt lat="39.7356340" lon="-4.0050040">
        <ele>767.0</ele>
        <time>2019-08-12T11:45:50Z</time>
      </trkpt>
      <trkpt lat="39.7356960" lon="-4.0050380">
        <ele>767.0</ele>
        <time>2019-08-12T11:45:51Z</time>
      </trkpt>
      <trkpt lat="39.7357580" lon="-4.0050730">
        <ele>767.0</ele>
        <time>2019-08-12T11:45:52Z</time>
      </trkpt>
      <trkpt lat="39.7358190" lon="-4.0051080">
        <ele>767.0</ele>
        <time>2019-08-12T11:45:53Z</time>
      </trkpt>
      <trkpt lat="39.7358800" lon="-4.0051440">
        <ele>767.0</ele>
        <time>2019-08-12T11:45:54Z</time>
      </trkpt>
      <trkpt lat="39.7359410" lon="-4.0051810">
        <ele>767.0</ele>
        <time>2019-08-12T11:45:55Z</time>
      </trkpt>
      <trkpt lat="39.7360020" lon="-4.0052170">
        <ele>767.0</ele>
        <time>2019-08-12T11:45:56Z</time>
      </trkpt>
      <trkpt lat="39.7360630" lon="-4.0052540">
        <ele>767.0</ele>
        <time>2019-08-12T11:45:57Z</time>
      </trkpt>
      <trkpt lat="39.7361230" lon="-4.0052910">
        <ele>767.0</ele>
        <time>2019-08-12T11:45:58Z</time>
      </trkpt>
      <trkpt lat="39.7361840" lon="-4.0053280">
        <ele>766.9</ele>
        <time>2019-08-12T11:45:59Z</time>
      </trkpt>
      <trkpt lat="39.7362440" lon="-4.0053650">
        <ele>766.9</ele>
        <time>2019-08-12T11:46:00Z</time>
      </trkpt>
      <trkpt lat="39.7363050" lon="-4.0054020">
        <ele>766.8</ele>
        <time>2019-08-12T11:46:01Z</time>
      </trkpt>
      <trkpt lat="39.7363670" lon="-4.0054380">
        <ele>766.8</ele>
        <time>2019-08-12T11:46:02Z</time>
      </trkpt>
      <trkpt lat="39.7364280" lon="-4.0054750">
        <ele>766.7</ele>
        <time>2019-08-12T11:46:03Z</time>
      </trkpt>
      <trkpt lat="39.7364910" lon="-4.0055100">
        <ele>766.7</ele>
        <time>2019-08-12T11:46:04Z</time>
      </trkpt>
      <trkpt lat="39.7365540" lon="-4.0055460">
        <ele>766.6</ele>
        <time>2019-08-12T11:46:05Z</time>
      </trkpt>
      <trkpt lat="39.7366170" lon="-4.0055810">
        <ele>766.5</ele>
        <time>2019-08-12T11:46:06Z</time>
      </trkpt>
      <trkpt lat="39.7366800" lon="-4.0056170">
        <ele>766.4</ele>
        <time>2019-08-12T11:46:07Z</time>
      </trkpt>
      <trkpt lat="39.7367440" lon="-4.0056520">
        <ele>766.4</ele>
        <time>2019-08-12T11:46:08Z</time>
      </trkpt>
      <trkpt lat="39.7368070" lon="-4.0056880">
        <ele>766.3</ele>
        <time>2019-08-12T11:46:09Z</time>
      </trkpt>
      <trkpt lat="39.7368700" lon="-4.0057240">
        <ele>766.2</ele>
        <time>2019-08-12T11:46:10Z</time>
      </trkpt>
      <trkpt lat="39.7369330" lon="-4.0057600">
        <ele>766.2</ele>
        <time>2019-08-12T11:46:11Z</time>
      </trkpt>
      <trkpt lat="39.7369950" lon="-4.0057970">
        <ele>766.1</ele>
        <time>2019-08-12T11:46:12Z</time>
      </trkpt>
      <trkpt lat="39.7370560" lon="-4.0058350">
        <ele>766.0</ele>
        <time>2019-08-12T11:46:13Z</time>
      </trkpt>
      <trkpt lat="39.7371170" lon="-4.0058730">
        <ele>766.0</ele>
        <time>2019-08-12T11:46:14Z</time>
      </trkpt>
      <trkpt lat="39.7371770" lon="-4.0059120">
        <ele>765.9</ele>
        <time>2019-08-12T11:46:15Z</time>
      </trkpt>
      <trkpt lat="39.7372370" lon="-4.0059500">
        <ele>765.9</ele>
        <time>2019-08-12T11:46:16Z</time>
      </trkpt>
      <trkpt lat="39.7372950" lon="-4.0059880">
        <ele>765.8</ele>
        <time>2019-08-12T11:46:17Z</time>
      </trkpt>
      <trkpt lat="39.7373530" lon="-4.0060270">
        <ele>765.7</ele>
        <time>2019-08-12T11:46:18Z</time>
      </trkpt>
      <trkpt lat="39.7374110" lon="-4.0060650">
        <ele>765.6</ele>
        <time>2019-08-12T11:46:19Z</time>
      </trkpt>
      <trkpt lat="39.7374680" lon="-4.0061050">
        <ele>765.5</ele>
        <time>2019-08-12T11:46:20Z</time>
      </trkpt>
      <trkpt lat="39.7375240" lon="-4.0061480">
        <ele>765.4</ele>
        <time>2019-08-12T11:46:21Z</time>
      </trkpt>
      <trkpt lat="39.7375810" lon="-4.0061930">
        <ele>765.2</ele>
        <time>2019-08-12T11:46:22Z</time>
      </trkpt>
      <trkpt lat="39.7376370" lon="-4.0062420">
        <ele>765.1</ele>
        <time>2019-08-12T11:46:23Z</time>
      </trkpt>
      <trkpt lat="39.7376930" lon="-4.0062930">
        <ele>764.9</ele>
        <time>2019-08-12T11:46:24Z</time>
      </trkpt>
      <trkpt lat="39.7377490" lon="-4.0063460">
        <ele>764.8</ele>
        <time>2019-08-12T11:46:25Z</time>
      </trkpt>
      <trkpt lat="39.7378060" lon="-4.0064010">
        <ele>764.6</ele>
        <time>2019-08-12T11:46:26Z</time>
      </trkpt>
      <trkpt lat="39.7378620" lon="-4.0064570">
        <ele>764.5</ele>
        <time>2019-08-12T11:46:27Z</time>
      </trkpt>
      <trkpt lat="39.7379180" lon="-4.0065150">
        <ele>764.3</ele>
        <time>2019-08-12T11:46:28Z</time>
      </trkpt>
      <trkpt lat="39.7379740" lon="-4.0065720">
        <ele>764.1</ele>
        <time>2019-08-12T11:46:29Z</time>
      </trkpt>
      <trkpt lat="39.7380310" lon="-4.0066300">
        <ele>763.9</ele>
        <time>2019-08-12T11:46:30Z</time>
      </trkpt>
      <trkpt lat="39.7380870" lon="-4.0066870">
        <ele>763.8</ele>
        <time>2019-08-12T11:46:31Z</time>
      </trkpt>
      <trkpt lat="39.7381430" lon="-4.0067440">
        <ele>763.5</ele>
        <time>2019-08-12T11:46:32Z</time>
      </trkpt>
      <trkpt lat="39.7382000" lon="-4.0068000">
        <ele>763.3</ele>
        <time>2019-08-12T11:46:33Z</time>
      </trkpt>
      <trkpt lat="39.7382570" lon="-4.0068560">
        <ele>763.1</ele>
        <time>2019-08-12T11:46:34Z</time>
      </trkpt>
      <trkpt lat="39.7383130" lon="-4.0069130">
        <ele>762.9</ele>
        <time>2019-08-12T11:46:35Z</time>
      </trkpt>
      <trkpt lat="39.7383700" lon="-4.0069680">
        <ele>762.7</ele>
        <time>2019-08-12T11:46:36Z</time>
      </trkpt>
      <trkpt lat="39.7384260" lon="-4.0070240">
        <ele>762.6</ele>
        <time>2019-08-12T11:46:37Z</time>
      </trkpt>
      <trkpt lat="39.7384820" lon="-4.0070800">
        <ele>762.4</ele>
        <time>2019-08-12T11:46:38Z</time>
      </trkpt>
      <trkpt lat="39.7385380" lon="-4.0071360">
        <ele>762.3</ele>
        <time>2019-08-12T11:46:39Z</time>
      </trkpt>
      <trkpt lat="39.7385940" lon="-4.0071920">
        <ele>762.1</ele>
        <time>2019-08-12T11:46:40Z</time>
      </trkpt>
      <trkpt lat="39.7386500" lon="-4.0072470">
        <ele>762.0</ele>
        <time>2019-08-12T11:46:41Z</time>
      </trkpt>
      <trkpt lat="39.7387060" lon="-4.0073030">
        <ele>761.9</ele>
        <time>2019-08-12T11:46:42Z</time>
      </trkpt>
      <trkpt lat="39.7387610" lon="-4.0073590">
        <ele>761.8</ele>
        <time>2019-08-12T11:46:43Z</time>
      </trkpt>
      <trkpt lat="39.7388160" lon="-4.0074150">
        <ele>761.7</ele>
        <time>2019-08-12T11:46:44Z</time>
      </trkpt>
      <trkpt lat="39.7388710" lon="-4.0074700">
        <ele>761.6</ele>
        <time>2019-08-12T11:46:45Z</time>
      </trkpt>
      <trkpt lat="39.7389260" lon="-4.0075260">
        <ele>761.5</ele>
        <time>2019-08-12T11:46:46Z</time>
      </trkpt>
      <trkpt lat="39.7389800" lon="-4.0075810">
        <ele>761.4</ele>
        <time>2019-08-12T11:46:47Z</time>
      </trkpt>
      <trkpt lat="39.7390340" lon="-4.0076350">
        <ele>761.3</ele>
        <time>2019-08-12T11:46:48Z</time>
      </trkpt>
      <trkpt lat="39.7390880" lon="-4.0076890">
        <ele>761.2</ele>
        <time>2019-08-12T11:46:49Z</time>
      </trkpt>
      <trkpt lat="39.7391410" lon="-4.0077430">
        <ele>761.1</ele>
        <time>2019-08-12T11:46:50Z</time>
      </trkpt>
      <trkpt lat="39.7391940" lon="-4.0077970">
        <ele>761.0</ele>
        <time>2019-08-12T11:46:51Z</time>
      </trkpt>
      <trkpt lat="39.7392460" lon="-4.0078500">
        <ele>761.0</ele>
        <time>2019-08-12T11:46:52Z</time>
      </trkpt>
      <trkpt lat="39.7392990" lon="-4.0079030">
        <ele>760.9</ele>
        <time>2019-08-12T11:46:53Z</time>
      </trkpt>
      <trkpt lat="39.7393510" lon="-4.0079560">
        <ele>760.9</ele>
        <time>2019-08-12T11:46:54Z</time>
      </trkpt>
      <trkpt lat="39.7394040" lon="-4.0080090">
        <ele>761.0</ele>
        <time>2019-08-12T11:46:55Z</time>
      </trkpt>
      <trkpt lat="39.7394570" lon="-4.0080620">
        <ele>761.0</ele>
        <time>2019-08-12T11:46:56Z</time>
      </trkpt>
      <trkpt lat="39.7395090" lon="-4.0081150">
        <ele>761.0</ele>
        <time>2019-08-12T11:46:57Z</time>
      </trkpt>
      <trkpt lat="39.7395630" lon="-4.0081690">
        <ele>761.0</ele>
        <time>2019-08-12T11:46:58Z</time>
      </trkpt>
      <trkpt lat="39.7396160" lon="-4.0082230">
        <ele>761.1</ele>
        <time>2019-08-12T11:46:59Z</time>
      </trkpt>
      <trkpt lat="39.7396700" lon="-4.0082770">
        <ele>761.1</ele>
        <time>2019-08-12T11:47:00Z</time>
      </trkpt>
      <trkpt lat="39.7397240" lon="-4.0083320">
        <ele>761.2</ele>
        <time>2019-08-12T11:47:01Z</time>
      </trkpt>
      <trkpt lat="39.7397790" lon="-4.0083860">
        <ele>761.3</ele>
        <time>2019-08-12T11:47:02Z</time>
      </trkpt>
      <trkpt lat="39.7398330" lon="-4.0084410">
        <ele>761.4</ele>
        <time>2019-08-12T11:47:03Z</time>
      </trkpt>
      <trkpt lat="39.7398880" lon="-4.0084950">
        <ele>761.5</ele>
        <time>2019-08-12T11:47:04Z</time>
      </trkpt>
      <trkpt lat="39.7399430" lon="-4.0085480">
        <ele>761.5</ele>
        <time>2019-08-12T11:47:05Z</time>
      </trkpt>
      <trkpt lat="39.7399980" lon="-4.0086010">
        <ele>761.6</ele>
        <time>2019-08-12T11:47:06Z</time>
      </trkpt>
      <trkpt lat="39.7400530" lon="-4.0086530">
        <ele>761.5</ele>
        <time>2019-08-12T11:47:07Z</time>
      </trkpt>
      <trkpt lat="39.7401080" lon="-4.0087040">
        <ele>761.4</ele>
        <time>2019-08-12T11:47:08Z</time>
      </trkpt>
      <trkpt lat="39.7401620" lon="-4.0087550">
        <ele>761.3</ele>
        <time>2019-08-12T11:47:09Z</time>
      </trkpt>
      <trkpt lat="39.7402170" lon="-4.0088040">
        <ele>761.1</ele>
        <time>2019-08-12T11:47:10Z</time>
      </trkpt>
      <trkpt lat="39.7402720" lon="-4.0088520">
        <ele>760.9</ele>
        <time>2019-08-12T11:47:11Z</time>
      </trkpt>
      <trkpt lat="39.7403260" lon="-4.0089000">
        <ele>760.7</ele>
        <time>2019-08-12T11:47:12Z</time>
      </trkpt>
      <trkpt lat="39.7403810" lon="-4.0089480">
        <ele>760.6</ele>
        <time>2019-08-12T11:47:13Z</time>
      </trkpt>
      <trkpt lat="39.7404350" lon="-4.0089950">
        <ele>760.6</ele>
        <time>2019-08-12T11:47:14Z</time>
      </trkpt>
      <trkpt lat="39.7404890" lon="-4.0090410">
        <ele>760.6</ele>
        <time>2019-08-12T11:47:15Z</time>
      </trkpt>
      <trkpt lat="39.7405420" lon="-4.0090870">
        <ele>760.7</ele>
        <time>2019-08-12T11:47:16Z</time>
      </trkpt>
      <trkpt lat="39.7405960" lon="-4.0091330">
        <ele>760.9</ele>
        <time>2019-08-12T11:47:17Z</time>
      </trkpt>
      <trkpt lat="39.7406490" lon="-4.0091780">
        <ele>761.0</ele>
        <time>2019-08-12T11:47:18Z</time>
      </trkpt>
      <trkpt lat="39.7407020" lon="-4.0092240">
        <ele>761.1</ele>
        <time>2019-08-12T11:47:19Z</time>
      </trkpt>
      <trkpt lat="39.7407540" lon="-4.0092690">
        <ele>761.2</ele>
        <time>2019-08-12T11:47:20Z</time>
      </trkpt>
      <trkpt lat="39.7408070" lon="-4.0093140">
        <ele>761.3</ele>
        <time>2019-08-12T11:47:21Z</time>
      </trkpt>
      <trkpt lat="39.7408590" lon="-4.0093590">
        <ele>761.2</ele>
        <time>2019-08-12T11:47:22Z</time>
      </trkpt>
      <trkpt lat="39.7409110" lon="-4.0094050">
        <ele>761.1</ele>
        <time>2019-08-12T11:47:23Z</time>
      </trkpt>
      <trkpt lat="39.7409630" lon="-4.0094500">
        <ele>761.0</ele>
        <time>2019-08-12T11:47:24Z</time>
      </trkpt>
      <trkpt lat="39.7410150" lon="-4.0094950">
        <ele>760.9</ele>
        <time>2019-08-12T11:47:25Z</time>
      </trkpt>
      <trkpt lat="39.7410670" lon="-4.0095410">
        <ele>760.8</ele>
        <time>2019-08-12T11:47:26Z</time>
      </trkpt>
      <trkpt lat="39.7411180" lon="-4.0095870">
        <ele>760.7</ele>
        <time>2019-08-12T11:47:27Z</time>
      </trkpt>
      <trkpt lat="39.7411700" lon="-4.0096330">
        <ele>760.6</ele>
        <time>2019-08-12T11:47:28Z</time>
      </trkpt>
      <trkpt lat="39.7412220" lon="-4.0096800">
        <ele>760.6</ele>
        <time>2019-08-12T11:47:29Z</time>
      </trkpt>
      <trkpt lat="39.7412730" lon="-4.0097270">
        <ele>760.6</ele>
        <time>2019-08-12T11:47:30Z</time>
      </trkpt>
      <trkpt lat="39.7413230" lon="-4.0097740">
        <ele>760.6</ele>
        <time>2019-08-12T11:47:31Z</time>
      </trkpt>
      <trkpt lat="39.7413740" lon="-4.0098220">
        <ele>760.6</ele>
        <time>2019-08-12T11:47:32Z</time>
      </trkpt>
      <trkpt lat="39.7414240" lon="-4.0098700">
        <ele>760.6</ele>
        <time>2019-08-12T11:47:33Z</time>
      </trkpt>
      <trkpt lat="39.7414730" lon="-4.0099190">
        <ele>760.6</ele>
        <time>2019-08-12T11:47:34Z</time>
      </trkpt>
      <trkpt lat="39.7415220" lon="-4.0099680">
        <ele>760.6</ele>
        <time>2019-08-12T11:47:35Z</time>
      </trkpt>
      <trkpt lat="39.7415690" lon="-4.0100180">
        <ele>760.6</ele>
        <time>2019-08-12T11:47:36Z</time>
      </trkpt>
      <trkpt lat="39.7416170" lon="-4.0100680">
        <ele>760.6</ele>
        <time>2019-08-12T11:47:37Z</time>
      </trkpt>
      <trkpt lat="39.7416630" lon="-4.0101180">
        <ele>760.7</ele>
        <time>2019-08-12T11:47:38Z</time>
      </trkpt>
      <trkpt lat="39.7417090" lon="-4.0101690">
        <ele>760.7</ele>
        <time>2019-08-12T11:47:39Z</time>
      </trkpt>
      <trkpt lat="39.7417550" lon="-4.0102190">
        <ele>760.8</ele>
        <time>2019-08-12T11:47:40Z</time>
      </trkpt>
      <trkpt lat="39.7418010" lon="-4.0102680">
        <ele>760.8</ele>
        <time>2019-08-12T11:47:41Z</time>
      </trkpt>
      <trkpt lat="39.7418460" lon="-4.0103170">
        <ele>760.9</ele>
        <time>2019-08-12T11:47:42Z</time>
      </trkpt>
      <trkpt lat="39.7418920" lon="-4.0103650">
        <ele>760.9</ele>
        <time>2019-08-12T11:47:43Z</time>
      </trkpt>
      <trkpt lat="39.7419370" lon="-4.0104110">
        <ele>760.9</ele>
        <time>2019-08-12T11:47:44Z</time>
      </trkpt>
      <trkpt lat="39.7419830" lon="-4.0104560">
        <ele>761.0</ele>
        <time>2019-08-12T11:47:45Z</time>
      </trkpt>
      <trkpt lat="39.7420280" lon="-4.0105000">
        <ele>761.0</ele>
        <time>2019-08-12T11:47:46Z</time>
      </trkpt>
      <trkpt lat="39.7420740" lon="-4.0105420">
        <ele>761.1</ele>
        <time>2019-08-12T11:47:47Z</time>
      </trkpt>
      <trkpt lat="39.7421190" lon="-4.0105830">
        <ele>761.3</ele>
        <time>2019-08-12T11:47:48Z</time>
      </trkpt>
      <trkpt lat="39.7421640" lon="-4.0106230">
        <ele>761.4</ele>
        <time>2019-08-12T11:47:49Z</time>
      </trkpt>
      <trkpt lat="39.7422090" lon="-4.0106610">
        <ele>761.5</ele>
        <time>2019-08-12T11:47:50Z</time>
      </trkpt>
      <trkpt lat="39.7422540" lon="-4.0106990">
        <ele>761.7</ele>
        <time>2019-08-12T11:47:51Z</time>
      </trkpt>
      <trkpt lat="39.7422970" lon="-4.0107360">
        <ele>761.8</ele>
        <time>2019-08-12T11:47:52Z</time>
      </trkpt>
      <trkpt lat="39.7423410" lon="-4.0107720">
        <ele>761.9</ele>
        <time>2019-08-12T11:47:53Z</time>
      </trkpt>
      <trkpt lat="39.7423830" lon="-4.0108070">
        <ele>762.0</ele>
        <time>2019-08-12T11:47:54Z</time>
      </trkpt>
      <trkpt lat="39.7424250" lon="-4.0108410">
        <ele>762.2</ele>
        <time>2019-08-12T11:47:55Z</time>
      </trkpt>
      <trkpt lat="39.7424660" lon="-4.0108760">
        <ele>762.3</ele>
        <time>2019-08-12T11:47:56Z</time>
      </trkpt>
      <trkpt lat="39.7425070" lon="-4.0109100">
        <ele>762.4</ele>
        <time>2019-08-12T11:47:57Z</time>
      </trkpt>
      <trkpt lat="39.7425480" lon="-4.0109460">
        <ele>762.5</ele>
        <time>2019-08-12T11:47:58Z</time>
      </trkpt>
      <trkpt lat="39.7425890" lon="-4.0109830">
        <ele>762.6</ele>
        <time>2019-08-12T11:47:59Z</time>
      </trkpt>
      <trkpt lat="39.7426310" lon="-4.0110220">
        <ele>762.7</ele>
        <time>2019-08-12T11:48:00Z</time>
      </trkpt>
      <trkpt lat="39.7426730" lon="-4.0110620">
        <ele>762.8</ele>
        <time>2019-08-12T11:48:01Z</time>
      </trkpt>
      <trkpt lat="39.7427150" lon="-4.0111020">
        <ele>762.9</ele>
        <time>2019-08-12T11:48:02Z</time>
      </trkpt>
      <trkpt lat="39.7427560" lon="-4.0111420">
        <ele>763.0</ele>
        <time>2019-08-12T11:48:03Z</time>
      </trkpt>
      <trkpt lat="39.7427960" lon="-4.0111810">
        <ele>763.0</ele>
        <time>2019-08-12T11:48:04Z</time>
      </trkpt>
      <trkpt lat="39.7428350" lon="-4.0112180">
        <ele>763.0</ele>
        <time>2019-08-12T11:48:05Z</time>
      </trkpt>
      <trkpt lat="39.7428740" lon="-4.0112540">
        <ele>763.1</ele>
        <time>2019-08-12T11:48:06Z</time>
      </trkpt>
      <trkpt lat="39.7429120" lon="-4.0112900">
        <ele>763.1</ele>
        <time>2019-08-12T11:48:07Z</time>
      </trkpt>
      <trkpt lat="39.7429510" lon="-4.0113250">
        <ele>763.1</ele>
        <time>2019-08-12T11:48:08Z</time>
      </trkpt>
      <trkpt lat="39.7429890" lon="-4.0113590">
        <ele>763.2</ele>
        <time>2019-08-12T11:48:09Z</time>
      </trkpt>
      <trkpt lat="39.7430270" lon="-4.0113930">
        <ele>763.3</ele>
        <time>2019-08-12T11:48:10Z</time>
      </trkpt>
      <trkpt lat="39.7430640" lon="-4.0114280">
        <ele>763.3</ele>
        <time>2019-08-12T11:48:11Z</time>
      </trkpt>
      <trkpt lat="39.7431000" lon="-4.0114640">
        <ele>763.4</ele>
        <time>2019-08-12T11:48:12Z</time>
      </trkpt>
      <trkpt lat="39.7431350" lon="-4.0115000">
        <ele>763.5</ele>
        <time>2019-08-12T11:48:13Z</time>
      </trkpt>
      <trkpt lat="39.7431690" lon="-4.0115380">
        <ele>763.6</ele>
        <time>2019-08-12T11:48:14Z</time>
      </trkpt>
      <trkpt lat="39.7432020" lon="-4.0115770">
        <ele>763.7</ele>
        <time>2019-08-12T11:48:15Z</time>
      </trkpt>
      <trkpt lat="39.7432350" lon="-4.0116160">
        <ele>763.7</ele>
        <time>2019-08-12T11:48:16Z</time>
      </trkpt>
      <trkpt lat="39.7432690" lon="-4.0116560">
        <ele>763.8</ele>
        <time>2019-08-12T11:48:17Z</time>
      </trkpt>
      <trkpt lat="39.7433040" lon="-4.0116950">
        <ele>763.8</ele>
        <time>2019-08-12T11:48:18Z</time>
      </trkpt>
      <trkpt lat="39.7433400" lon="-4.0117350">
        <ele>763.9</ele>
        <time>2019-08-12T11:48:19Z</time>
      </trkpt>
      <trkpt lat="39.7433760" lon="-4.0117740">
        <ele>763.9</ele>
        <time>2019-08-12T11:48:20Z</time>
      </trkpt>
      <trkpt lat="39.7434130" lon="-4.0118120">
        <ele>763.9</ele>
        <time>2019-08-12T11:48:21Z</time>
      </trkpt>
      <trkpt lat="39.7434490" lon="-4.0118500">
        <ele>764.0</ele>
        <time>2019-08-12T11:48:22Z</time>
      </trkpt>
      <trkpt lat="39.7434850" lon="-4.0118870">
        <ele>764.0</ele>
        <time>2019-08-12T11:48:23Z</time>
      </trkpt>
      <trkpt lat="39.7435210" lon="-4.0119240">
        <ele>764.1</ele>
        <time>2019-08-12T11:48:24Z</time>
      </trkpt>
      <trkpt lat="39.7435570" lon="-4.0119600">
        <ele>764.2</ele>
        <time>2019-08-12T11:48:25Z</time>
      </trkpt>
      <trkpt lat="39.7435920" lon="-4.0119960">
        <ele>764.3</ele>
        <time>2019-08-12T11:48:26Z</time>
      </trkpt>
      <trkpt lat="39.7436280" lon="-4.0120320">
        <ele>764.4</ele>
        <time>2019-08-12T11:48:27Z</time>
      </trkpt>
      <trkpt lat="39.7436640" lon="-4.0120690">
        <ele>764.5</ele>
        <time>2019-08-12T11:48:28Z</time>
      </trkpt>
      <trkpt lat="39.7437000" lon="-4.0121050">
        <ele>764.6</ele>
        <time>2019-08-12T11:48:29Z</time>
      </trkpt>
      <trkpt lat="39.7437350" lon="-4.0121430">
        <ele>764.6</ele>
        <time>2019-08-12T11:48:30Z</time>
      </trkpt>
      <trkpt lat="39.7437720" lon="-4.0121810">
        <ele>764.7</ele>
        <time>2019-08-12T11:48:31Z</time>
      </trkpt>
      <trkpt lat="39.7438080" lon="-4.0122190">
        <ele>764.7</ele>
        <time>2019-08-12T11:48:32Z</time>
      </trkpt>
      <trkpt lat="39.7438450" lon="-4.0122570">
        <ele>764.8</ele>
        <time>2019-08-12T11:48:33Z</time>
      </trkpt>
      <trkpt lat="39.7438820" lon="-4.0122960">
        <ele>764.8</ele>
        <time>2019-08-12T11:48:34Z</time>
      </trkpt>
      <trkpt lat="39.7439190" lon="-4.0123340">
        <ele>764.9</ele>
        <time>2019-08-12T11:48:35Z</time>
      </trkpt>
      <trkpt lat="39.7439580" lon="-4.0123710">
        <ele>765.0</ele>
        <time>2019-08-12T11:48:36Z</time>
      </trkpt>
      <trkpt lat="39.7439970" lon="-4.0124070">
        <ele>765.1</ele>
        <time>2019-08-12T11:48:37Z</time>
      </trkpt>
      <trkpt lat="39.7440370" lon="-4.0124420">
        <ele>765.1</ele>
        <time>2019-08-12T11:48:38Z</time>
      </trkpt>
      <trkpt lat="39.7440780" lon="-4.0124760">
        <ele>765.2</ele>
        <time>2019-08-12T11:48:39Z</time>
      </trkpt>
      <trkpt lat="39.7441200" lon="-4.0125080">
        <ele>765.3</ele>
        <time>2019-08-12T11:48:40Z</time>
      </trkpt>
      <trkpt lat="39.7441630" lon="-4.0125380">
        <ele>765.4</ele>
        <time>2019-08-12T11:48:41Z</time>
      </trkpt>
      <trkpt lat="39.7442070" lon="-4.0125670">
        <ele>765.5</ele>
        <time>2019-08-12T11:48:42Z</time>
      </trkpt>
      <trkpt lat="39.7442510" lon="-4.0125940">
        <ele>765.5</ele>
        <time>2019-08-12T11:48:43Z</time>
      </trkpt>
      <trkpt lat="39.7442960" lon="-4.0126210">
        <ele>765.6</ele>
        <time>2019-08-12T11:48:44Z</time>
      </trkpt>
      <trkpt lat="39.7443410" lon="-4.0126460">
        <ele>765.7</ele>
        <time>2019-08-12T11:48:45Z</time>
      </trkpt>
      <trkpt lat="39.7443860" lon="-4.0126710">
        <ele>765.8</ele>
        <time>2019-08-12T11:48:46Z</time>
      </trkpt>
      <trkpt lat="39.7444320" lon="-4.0126950">
        <ele>765.8</ele>
        <time>2019-08-12T11:48:47Z</time>
      </trkpt>
      <trkpt lat="39.7444770" lon="-4.0127180">
        <ele>765.9</ele>
        <time>2019-08-12T11:48:48Z</time>
      </trkpt>
      <trkpt lat="39.7445210" lon="-4.0127410">
        <ele>766.0</ele>
        <time>2019-08-12T11:48:49Z</time>
      </trkpt>
      <trkpt lat="39.7445660" lon="-4.0127640">
        <ele>766.1</ele>
        <time>2019-08-12T11:48:50Z</time>
      </trkpt>
      <trkpt lat="39.7446100" lon="-4.0127860">
        <ele>766.2</ele>
        <time>2019-08-12T11:48:51Z</time>
      </trkpt>
      <trkpt lat="39.7446530" lon="-4.0128090">
        <ele>766.3</ele>
        <time>2019-08-12T11:48:52Z</time>
      </trkpt>
      <trkpt lat="39.7446970" lon="-4.0128310">
        <ele>766.4</ele>
        <time>2019-08-12T11:48:53Z</time>
      </trkpt>
      <trkpt lat="39.7447400" lon="-4.0128530">
        <ele>766.5</ele>
        <time>2019-08-12T11:48:54Z</time>
      </trkpt>
      <trkpt lat="39.7447840" lon="-4.0128750">
        <ele>766.7</ele>
        <time>2019-08-12T11:48:55Z</time>
      </trkpt>
      <trkpt lat="39.7448270" lon="-4.0128970">
        <ele>766.8</ele>
        <time>2019-08-12T11:48:56Z</time>
      </trkpt>
      <trkpt lat="39.7448690" lon="-4.0129190">
        <ele>767.0</ele>
        <time>2019-08-12T11:48:57Z</time>
      </trkpt>
      <trkpt lat="39.7449120" lon="-4.0129400">
        <ele>767.1</ele>
        <time>2019-08-12T11:48:58Z</time>
      </trkpt>
      <trkpt lat="39.7449550" lon="-4.0129620">
        <ele>767.3</ele>
        <time>2019-08-12T11:48:59Z</time>
      </trkpt>
      <trkpt lat="39.7449980" lon="-4.0129840">
        <ele>767.4</ele>
        <time>2019-08-12T11:49:00Z</time>
      </trkpt>
      <trkpt lat="39.7450400" lon="-4.0130060">
        <ele>767.6</ele>
        <time>2019-08-12T11:49:01Z</time>
      </trkpt>
      <trkpt lat="39.7450820" lon="-4.0130280">
        <ele>767.7</ele>
        <time>2019-08-12T11:49:02Z</time>
      </trkpt>
      <trkpt lat="39.7451250" lon="-4.0130500">
        <ele>767.9</ele>
        <time>2019-08-12T11:49:03Z</time>
      </trkpt>
      <trkpt lat="39.7451670" lon="-4.0130710">
        <ele>768.0</ele>
        <time>2019-08-12T11:49:04Z</time>
      </trkpt>
      <trkpt lat="39.7452090" lon="-4.0130920">
        <ele>768.1</ele>
        <time>2019-08-12T11:49:05Z</time>
      </trkpt>
      <trkpt lat="39.7452510" lon="-4.0131140">
        <ele>768.2</ele>
        <time>2019-08-12T11:49:06Z</time>
      </trkpt>
      <trkpt lat="39.7452920" lon="-4.0131350">
        <ele>768.3</ele>
        <time>2019-08-12T11:49:07Z</time>
      </trkpt>
      <trkpt lat="39.7453340" lon="-4.0131550">
        <ele>768.4</ele>
        <time>2019-08-12T11:49:08Z</time>
      </trkpt>
      <trkpt lat="39.7453750" lon="-4.0131760">
        <ele>768.6</ele>
        <time>2019-08-12T11:49:09Z</time>
      </trkpt>
      <trkpt lat="39.7454170" lon="-4.0131970">
        <ele>768.7</ele>
        <time>2019-08-12T11:49:10Z</time>
      </trkpt>
      <trkpt lat="39.7454590" lon="-4.0132180">
        <ele>768.8</ele>
        <time>2019-08-12T11:49:11Z</time>
      </trkpt>
      <trkpt lat="39.7455010" lon="-4.0132400">
        <ele>768.9</ele>
        <time>2019-08-12T11:49:12Z</time>
      </trkpt>
      <trkpt lat="39.7455440" lon="-4.0132630">
        <ele>769.1</ele>
        <time>2019-08-12T11:49:13Z</time>
      </trkpt>
      <trkpt lat="39.7455870" lon="-4.0132870">
        <ele>769.2</ele>
        <time>2019-08-12T11:49:14Z</time>
      </trkpt>
      <trkpt lat="39.7456310" lon="-4.0133100">
        <ele>769.4</ele>
        <time>2019-08-12T11:49:15Z</time>
      </trkpt>
      <trkpt lat="39.7456750" lon="-4.0133330">
        <ele>769.6</ele>
        <time>2019-08-12T11:49:16Z</time>
      </trkpt>
      <trkpt lat="39.7457200" lon="-4.0133550">
        <ele>769.8</ele>
        <time>2019-08-12T11:49:17Z</time>
      </trkpt>
      <trkpt lat="39.7457650" lon="-4.0133760">
        <ele>770.0</ele>
        <time>2019-08-12T11:49:18Z</time>
      </trkpt>
      <trkpt lat="39.7458090" lon="-4.0133960">
        <ele>770.1</ele>
        <time>2019-08-12T11:49:19Z</time>
      </trkpt>
      <trkpt lat="39.7458520" lon="-4.0134170">
        <ele>770.3</ele>
        <time>2019-08-12T11:49:20Z</time>
      </trkpt>
      <trkpt lat="39.7458950" lon="-4.0134380">
        <ele>770.5</ele>
        <time>2019-08-12T11:49:21Z</time>
      </trkpt>
      <trkpt lat="39.7459350" lon="-4.0134590">
        <ele>770.7</ele>
        <time>2019-08-12T11:49:22Z</time>
      </trkpt>
      <trkpt lat="39.7459740" lon="-4.0134810">
        <ele>770.8</ele>
        <time>2019-08-12T11:49:23Z</time>
      </trkpt>
      <trkpt lat="39.7460130" lon="-4.0135020">
        <ele>771.0</ele>
        <time>2019-08-12T11:49:24Z</time>
      </trkpt>
      <trkpt lat="39.7460520" lon="-4.0135240">
        <ele>771.1</ele>
        <time>2019-08-12T11:49:25Z</time>
      </trkpt>
      <trkpt lat="39.7460910" lon="-4.0135450">
        <ele>771.2</ele>
        <time>2019-08-12T11:49:26Z</time>
      </trkpt>
      <trkpt lat="39.7461300" lon="-4.0135660">
        <ele>771.3</ele>
        <time>2019-08-12T11:49:27Z</time>
      </trkpt>
      <trkpt lat="39.7461690" lon="-4.0135870">
        <ele>771.4</ele>
        <time>2019-08-12T11:49:28Z</time>
      </trkpt>
      <trkpt lat="39.7462090" lon="-4.0136070">
        <ele>771.5</ele>
        <time>2019-08-12T11:49:29Z</time>
      </trkpt>
      <trkpt lat="39.7462490" lon="-4.0136280">
        <ele>771.6</ele>
        <time>2019-08-12T11:49:30Z</time>
      </trkpt>
      <trkpt lat="39.7462890" lon="-4.0136480">
        <ele>771.7</ele>
        <time>2019-08-12T11:49:31Z</time>
      </trkpt>
      <trkpt lat="39.7463300" lon="-4.0136680">
        <ele>771.8</ele>
        <time>2019-08-12T11:49:32Z</time>
      </trkpt>
      <trkpt lat="39.7463700" lon="-4.0136890">
        <ele>771.9</ele>
        <time>2019-08-12T11:49:33Z</time>
      </trkpt>
      <trkpt lat="39.7464100" lon="-4.0137090">
        <ele>772.0</ele>
        <time>2019-08-12T11:49:34Z</time>
      </trkpt>
      <trkpt lat="39.7464510" lon="-4.0137300">
        <ele>772.1</ele>
        <time>2019-08-12T11:49:35Z</time>
      </trkpt>
      <trkpt lat="39.7464910" lon="-4.0137510">
        <ele>772.2</ele>
        <time>2019-08-12T11:49:36Z</time>
      </trkpt>
      <trkpt lat="39.7465310" lon="-4.0137720">
        <ele>772.3</ele>
        <time>2019-08-12T11:49:37Z</time>
      </trkpt>
      <trkpt lat="39.7465720" lon="-4.0137930">
        <ele>772.4</ele>
        <time>2019-08-12T11:49:38Z</time>
      </trkpt>
      <trkpt lat="39.7466120" lon="-4.0138140">
        <ele>772.4</ele>
        <time>2019-08-12T11:49:39Z</time>
      </trkpt>
      <trkpt lat="39.7466520" lon="-4.0138350">
        <ele>772.5</ele>
        <time>2019-08-12T11:49:40Z</time>
      </trkpt>
      <trkpt lat="39.7466920" lon="-4.0138560">
        <ele>772.6</ele>
        <time>2019-08-12T11:49:41Z</time>
      </trkpt>
      <trkpt lat="39.7467330" lon="-4.0138770">
        <ele>772.7</ele>
        <time>2019-08-12T11:49:42Z</time>
      </trkpt>
      <trkpt lat="39.7467730" lon="-4.0138980">
        <ele>772.7</ele>
        <time>2019-08-12T11:49:43Z</time>
      </trkpt>
      <trkpt lat="39.7468130" lon="-4.0139190">
        <ele>772.8</ele>
        <time>2019-08-12T11:49:44Z</time>
      </trkpt>
      <trkpt lat="39.7468530" lon="-4.0139400">
        <ele>772.9</ele>
        <time>2019-08-12T11:49:45Z</time>
      </trkpt>
      <trkpt lat="39.7468940" lon="-4.0139600">
        <ele>773.0</ele>
        <time>2019-08-12T11:49:46Z</time>
      </trkpt>
      <trkpt lat="39.7469340" lon="-4.0139810">
        <ele>773.1</ele>
        <time>2019-08-12T11:49:47Z</time>
      </trkpt>
      <trkpt lat="39.7469740" lon="-4.0140010">
        <ele>773.2</ele>
        <time>2019-08-12T11:49:48Z</time>
      </trkpt>
      <trkpt lat="39.7470140" lon="-4.0140210">
        <ele>773.3</ele>
        <time>2019-08-12T11:49:49Z</time>
      </trkpt>
      <trkpt lat="39.7470550" lon="-4.0140410">
        <ele>773.5</ele>
        <time>2019-08-12T11:49:50Z</time>
      </trkpt>
      <trkpt lat="39.7470950" lon="-4.0140600">
        <ele>773.6</ele>
        <time>2019-08-12T11:49:51Z</time>
      </trkpt>
      <trkpt lat="39.7471350" lon="-4.0140790">
        <ele>773.8</ele>
        <time>2019-08-12T11:49:52Z</time>
      </trkpt>
      <trkpt lat="39.7471750" lon="-4.0140980">
        <ele>773.9</ele>
        <time>2019-08-12T11:49:53Z</time>
      </trkpt>
      <trkpt lat="39.7472160" lon="-4.0141160">
        <ele>774.1</ele>
        <time>2019-08-12T11:49:54Z</time>
      </trkpt>
      <trkpt lat="39.7472560" lon="-4.0141350">
        <ele>774.2</ele>
        <time>2019-08-12T11:49:55Z</time>
      </trkpt>
      <trkpt lat="39.7472960" lon="-4.0141520">
        <ele>774.4</ele>
        <time>2019-08-12T11:49:56Z</time>
      </trkpt>
      <trkpt lat="39.7473360" lon="-4.0141690">
        <ele>774.6</ele>
        <time>2019-08-12T11:49:57Z</time>
      </trkpt>
      <trkpt lat="39.7473760" lon="-4.0141860">
        <ele>774.7</ele>
        <time>2019-08-12T11:49:58Z</time>
      </trkpt>
      <trkpt lat="39.7474160" lon="-4.0142030">
        <ele>774.8</ele>
        <time>2019-08-12T11:49:59Z</time>
      </trkpt>
      <trkpt lat="39.7474560" lon="-4.0142190">
        <ele>774.9</ele>
        <time>2019-08-12T11:50:00Z</time>
      </trkpt>
      <trkpt lat="39.7474950" lon="-4.0142340">
        <ele>774.9</ele>
        <time>2019-08-12T11:50:01Z</time>
      </trkpt>
      <trkpt lat="39.7475340" lon="-4.0142490">
        <ele>775.0</ele>
        <time>2019-08-12T11:50:02Z</time>
      </trkpt>
      <trkpt lat="39.7475730" lon="-4.0142640">
        <ele>775.0</ele>
        <time>2019-08-12T11:50:03Z</time>
      </trkpt>
      <trkpt lat="39.7476110" lon="-4.0142790">
        <ele>775.1</ele>
        <time>2019-08-12T11:50:04Z</time>
      </trkpt>
      <trkpt lat="39.7476490" lon="-4.0142930">
        <ele>775.2</ele>
        <time>2019-08-12T11:50:05Z</time>
      </trkpt>
      <trkpt lat="39.7476870" lon="-4.0143070">
        <ele>775.2</ele>
        <time>2019-08-12T11:50:06Z</time>
      </trkpt>
      <trkpt lat="39.7477240" lon="-4.0143210">
        <ele>775.3</ele>
        <time>2019-08-12T11:50:07Z</time>
      </trkpt>
      <trkpt lat="39.7477600" lon="-4.0143350">
        <ele>775.4</ele>
        <time>2019-08-12T11:50:08Z</time>
      </trkpt>
      <trkpt lat="39.7477960" lon="-4.0143490">
        <ele>775.5</ele>
        <time>2019-08-12T11:50:09Z</time>
      </trkpt>
      <trkpt lat="39.7478300" lon="-4.0143630">
        <ele>775.6</ele>
        <time>2019-08-12T11:50:10Z</time>
      </trkpt>
      <trkpt lat="39.7478640" lon="-4.0143770">
        <ele>775.6</ele>
        <time>2019-08-12T11:50:11Z</time>
      </trkpt>
      <trkpt lat="39.7478970" lon="-4.0143920">
        <ele>775.7</ele>
        <time>2019-08-12T11:50:12Z</time>
      </trkpt>
      <trkpt lat="39.7479290" lon="-4.0144070">
        <ele>775.8</ele>
        <time>2019-08-12T11:50:13Z</time>
      </trkpt>
      <trkpt lat="39.7479600" lon="-4.0144230">
        <ele>775.9</ele>
        <time>2019-08-12T11:50:14Z</time>
      </trkpt>
      <trkpt lat="39.7479900" lon="-4.0144380">
        <ele>775.9</ele>
        <time>2019-08-12T11:50:15Z</time>
      </trkpt>
      <trkpt lat="39.7480200" lon="-4.0144550">
        <ele>776.0</ele>
        <time>2019-08-12T11:50:16Z</time>
      </trkpt>
      <trkpt lat="39.7480480" lon="-4.0144710">
        <ele>776.1</ele>
        <time>2019-08-12T11:50:17Z</time>
      </trkpt>
      <trkpt lat="39.7480770" lon="-4.0144890">
        <ele>776.1</ele>
        <time>2019-08-12T11:50:18Z</time>
      </trkpt>
      <trkpt lat="39.7481040" lon="-4.0145060">
        <ele>776.2</ele>
        <time>2019-08-12T11:50:19Z</time>
      </trkpt>
      <trkpt lat="39.7481310" lon="-4.0145250">
        <ele>776.2</ele>
        <time>2019-08-12T11:50:20Z</time>
      </trkpt>
      <trkpt lat="39.7481580" lon="-4.0145430">
        <ele>776.3</ele>
        <time>2019-08-12T11:50:21Z</time>
      </trkpt>
      <trkpt lat="39.7481840" lon="-4.0145630">
        <ele>776.3</ele>
        <time>2019-08-12T11:50:22Z</time>
      </trkpt>
      <trkpt lat="39.7482110" lon="-4.0145820">
        <ele>776.4</ele>
        <time>2019-08-12T11:50:23Z</time>
      </trkpt>
      <trkpt lat="39.7482360" lon="-4.0146030">
        <ele>776.4</ele>
        <time>2019-08-12T11:50:24Z</time>
      </trkpt>
      <trkpt lat="39.7482620" lon="-4.0146230">
        <ele>776.4</ele>
        <time>2019-08-12T11:50:25Z</time>
      </trkpt>
      <trkpt lat="39.7482880" lon="-4.0146440">
        <ele>776.5</ele>
        <time>2019-08-12T11:50:26Z</time>
      </trkpt>
      <trkpt lat="39.7483150" lon="-4.0146660">
        <ele>776.5</ele>
        <time>2019-08-12T11:50:27Z</time>
      </trkpt>
      <trkpt lat="39.7483410" lon="-4.0146870">
        <ele>776.5</ele>
        <time>2019-08-12T11:50:28Z</time>
      </trkpt>
      <trkpt lat="39.7483680" lon="-4.0147090">
        <ele>776.5</ele>
        <time>2019-08-12T11:50:29Z</time>
      </trkpt>
      <trkpt lat="39.7483960" lon="-4.0147310">
        <ele>776.6</ele>
        <time>2019-08-12T11:50:30Z</time>
      </trkpt>
      <trkpt lat="39.7484240" lon="-4.0147540">
        <ele>776.6</ele>
        <time>2019-08-12T11:50:31Z</time>
      </trkpt>
      <trkpt lat="39.7484530" lon="-4.0147760">
        <ele>776.6</ele>
        <time>2019-08-12T11:50:32Z</time>
      </trkpt>
      <trkpt lat="39.7484820" lon="-4.0147990">
        <ele>776.6</ele>
        <time>2019-08-12T11:50:33Z</time>
      </trkpt>
      <trkpt lat="39.7485120" lon="-4.0148220">
        <ele>776.5</ele>
        <time>2019-08-12T11:50:34Z</time>
      </trkpt>
      <trkpt lat="39.7485410" lon="-4.0148450">
        <ele>776.5</ele>
        <time>2019-08-12T11:50:35Z</time>
      </trkpt>
      <trkpt lat="39.7485710" lon="-4.0148700">
        <ele>776.4</ele>
        <time>2019-08-12T11:50:36Z</time>
      </trkpt>
      <trkpt lat="39.7486020" lon="-4.0148950">
        <ele>776.4</ele>
        <time>2019-08-12T11:50:37Z</time>
      </trkpt>
      <trkpt lat="39.7486340" lon="-4.0149220">
        <ele>776.2</ele>
        <time>2019-08-12T11:50:38Z</time>
      </trkpt>
      <trkpt lat="39.7486670" lon="-4.0149510">
        <ele>776.1</ele>
        <time>2019-08-12T11:50:39Z</time>
      </trkpt>
      <trkpt lat="39.7487030" lon="-4.0149830">
        <ele>775.8</ele>
        <time>2019-08-12T11:50:40Z</time>
      </trkpt>
      <trkpt lat="39.7487410" lon="-4.0150170">
        <ele>775.5</ele>
        <time>2019-08-12T11:50:41Z</time>
      </trkpt>
      <trkpt lat="39.7487810" lon="-4.0150540">
        <ele>775.2</ele>
        <time>2019-08-12T11:50:42Z</time>
      </trkpt>
      <trkpt lat="39.7488220" lon="-4.0150940">
        <ele>774.8</ele>
        <time>2019-08-12T11:50:43Z</time>
      </trkpt>
      <trkpt lat="39.7488660" lon="-4.0151370">
        <ele>774.4</ele>
        <time>2019-08-12T11:50:44Z</time>
      </trkpt>
      <trkpt lat="39.7489110" lon="-4.0151840">
        <ele>774.0</ele>
        <time>2019-08-12T11:50:45Z</time>
      </trkpt>
      <trkpt lat="39.7489910" lon="-4.0152730">
        <ele>773.3</ele>
        <time>2019-08-12T11:50:46Z</time>
      </trkpt>
      <trkpt lat="39.7490230" lon="-4.0153100">
        <ele>773.1</ele>
        <time>2019-08-12T11:50:47Z</time>
      </trkpt>
      <trkpt lat="39.7490560" lon="-4.0153480">
        <ele>772.8</ele>
        <time>2019-08-12T11:50:48Z</time>
      </trkpt>
      <trkpt lat="39.7491070" lon="-4.0154120">
        <ele>772.4</ele>
        <time>2019-08-12T11:50:49Z</time>
      </trkpt>
      <trkpt lat="39.7491590" lon="-4.0154790">
        <ele>772.0</ele>
        <time>2019-08-12T11:50:50Z</time>
      </trkpt>
      <trkpt lat="39.7492120" lon="-4.0155500">
        <ele>771.6</ele>
        <time>2019-08-12T11:50:51Z</time>
      </trkpt>
      <trkpt lat="39.7492640" lon="-4.0156240">
        <ele>771.2</ele>
        <time>2019-08-12T11:50:52Z</time>
      </trkpt>
      <trkpt lat="39.7493160" lon="-4.0157010">
        <ele>770.8</ele>
        <time>2019-08-12T11:50:53Z</time>
      </trkpt>
      <trkpt lat="39.7493680" lon="-4.0157810">
        <ele>770.5</ele>
        <time>2019-08-12T11:50:54Z</time>
      </trkpt>
      <trkpt lat="39.7494170" lon="-4.0158620">
        <ele>770.2</ele>
        <time>2019-08-12T11:50:55Z</time>
      </trkpt>
      <trkpt lat="39.7494660" lon="-4.0159460">
        <ele>770.0</ele>
        <time>2019-08-12T11:50:56Z</time>
      </trkpt>
      <trkpt lat="39.7495120" lon="-4.0160300">
        <ele>769.8</ele>
        <time>2019-08-12T11:50:57Z</time>
      </trkpt>
      <trkpt lat="39.7495560" lon="-4.0161160">
        <ele>769.5</ele>
        <time>2019-08-12T11:50:58Z</time>
      </trkpt>
      <trkpt lat="39.7495970" lon="-4.0162020">
        <ele>769.3</ele>
        <time>2019-08-12T11:50:59Z</time>
      </trkpt>
      <trkpt lat="39.7496370" lon="-4.0162890">
        <ele>769.1</ele>
        <time>2019-08-12T11:51:00Z</time>
      </trkpt>
      <trkpt lat="39.7496740" lon="-4.0163760">
        <ele>768.9</ele>
        <time>2019-08-12T11:51:01Z</time>
      </trkpt>
      <trkpt lat="39.7497110" lon="-4.0164630">
        <ele>768.6</ele>
        <time>2019-08-12T11:51:02Z</time>
      </trkpt>
      <trkpt lat="39.7497460" lon="-4.0165500">
        <ele>768.4</ele>
        <time>2019-08-12T11:51:03Z</time>
      </trkpt>
      <trkpt lat="39.7497800" lon="-4.0166370">
        <ele>768.3</ele>
        <time>2019-08-12T11:51:04Z</time>
      </trkpt>
      <trkpt lat="39.7498140" lon="-4.0167230">
        <ele>768.1</ele>
        <time>2019-08-12T11:51:05Z</time>
      </trkpt>
      <trkpt lat="39.7498480" lon="-4.0168090">
        <ele>768.0</ele>
        <time>2019-08-12T11:51:06Z</time>
      </trkpt>
      <trkpt lat="39.7498810" lon="-4.0168940">
        <ele>767.9</ele>
        <time>2019-08-12T11:51:07Z</time>
      </trkpt>
      <trkpt lat="39.7499140" lon="-4.0169780">
        <ele>767.8</ele>
        <time>2019-08-12T11:51:08Z</time>
      </trkpt>
      <trkpt lat="39.7499470" lon="-4.0170620">
        <ele>767.7</ele>
        <time>2019-08-12T11:51:09Z</time>
      </trkpt>
      <trkpt lat="39.7499800" lon="-4.0171460">
        <ele>767.6</ele>
        <time>2019-08-12T11:51:10Z</time>
      </trkpt>
      <trkpt lat="39.7500130" lon="-4.0172310">
        <ele>767.5</ele>
        <time>2019-08-12T11:51:11Z</time>
      </trkpt>
      <trkpt lat="39.7500450" lon="-4.0173160">
        <ele>767.4</ele>
        <time>2019-08-12T11:51:12Z</time>
      </trkpt>
      <trkpt lat="39.7500770" lon="-4.0174020">
        <ele>767.3</ele>
        <time>2019-08-12T11:51:13Z</time>
      </trkpt>
      <trkpt lat="39.7501090" lon="-4.0174890">
        <ele>767.2</ele>
        <time>2019-08-12T11:51:14Z</time>
      </trkpt>
      <trkpt lat="39.7501400" lon="-4.0175780">
        <ele>767.1</ele>
        <time>2019-08-12T11:51:15Z</time>
      </trkpt>
      <trkpt lat="39.7501700" lon="-4.0176680">
        <ele>767.1</ele>
        <time>2019-08-12T11:51:16Z</time>
      </trkpt>
      <trkpt lat="39.7501990" lon="-4.0177600">
        <ele>767.0</ele>
        <time>2019-08-12T11:51:17Z</time>
      </trkpt>
      <trkpt lat="39.7502260" lon="-4.0178520">
        <ele>766.9</ele>
        <time>2019-08-12T11:51:18Z</time>
      </trkpt>
      <trkpt lat="39.7502480" lon="-4.0179450">
        <ele>766.7</ele>
        <time>2019-08-12T11:51:19Z</time>
      </trkpt>
      <trkpt lat="39.7502660" lon="-4.0180380">
        <ele>766.6</ele>
        <time>2019-08-12T11:51:20Z</time>
      </trkpt>
      <trkpt lat="39.7502790" lon="-4.0181300">
        <ele>766.4</ele>
        <time>2019-08-12T11:51:21Z</time>
      </trkpt>
      <trkpt lat="39.7502890" lon="-4.0182220">
        <ele>766.2</ele>
        <time>2019-08-12T11:51:22Z</time>
      </trkpt>
      <trkpt lat="39.7502970" lon="-4.0183130">
        <ele>766.0</ele>
        <time>2019-08-12T11:51:23Z</time>
      </trkpt>
      <trkpt lat="39.7503060" lon="-4.0184020">
        <ele>765.8</ele>
        <time>2019-08-12T11:51:24Z</time>
      </trkpt>
      <trkpt lat="39.7503170" lon="-4.0184910">
        <ele>765.6</ele>
        <time>2019-08-12T11:51:25Z</time>
      </trkpt>
      <trkpt lat="39.7503300" lon="-4.0185780">
        <ele>765.3</ele>
        <time>2019-08-12T11:51:26Z</time>
      </trkpt>
      <trkpt lat="39.7503460" lon="-4.0186650">
        <ele>765.1</ele>
        <time>2019-08-12T11:51:27Z</time>
      </trkpt>
      <trkpt lat="39.7503650" lon="-4.0187510">
        <ele>764.8</ele>
        <time>2019-08-12T11:51:28Z</time>
      </trkpt>
      <trkpt lat="39.7503850" lon="-4.0188360">
        <ele>764.6</ele>
        <time>2019-08-12T11:51:29Z</time>
      </trkpt>
      <trkpt lat="39.7504080" lon="-4.0189220">
        <ele>764.3</ele>
        <time>2019-08-12T11:51:30Z</time>
      </trkpt>
      <trkpt lat="39.7504320" lon="-4.0190070">
        <ele>764.0</ele>
        <time>2019-08-12T11:51:31Z</time>
      </trkpt>
      <trkpt lat="39.7504580" lon="-4.0190920">
        <ele>763.8</ele>
        <time>2019-08-12T11:51:32Z</time>
      </trkpt>
      <trkpt lat="39.7504860" lon="-4.0191770">
        <ele>763.6</ele>
        <time>2019-08-12T11:51:33Z</time>
      </trkpt>
      <trkpt lat="39.7505150" lon="-4.0192630">
        <ele>763.4</ele>
        <time>2019-08-12T11:51:34Z</time>
      </trkpt>
      <trkpt lat="39.7505450" lon="-4.0193490">
        <ele>763.2</ele>
        <time>2019-08-12T11:51:35Z</time>
      </trkpt>
      <trkpt lat="39.7505750" lon="-4.0194350">
        <ele>763.1</ele>
        <time>2019-08-12T11:51:36Z</time>
      </trkpt>
      <trkpt lat="39.7506050" lon="-4.0195210">
        <ele>763.1</ele>
        <time>2019-08-12T11:51:37Z</time>
      </trkpt>
      <trkpt lat="39.7506350" lon="-4.0196060">
        <ele>763.1</ele>
        <time>2019-08-12T11:51:38Z</time>
      </trkpt>
      <trkpt lat="39.7506630" lon="-4.0196900">
        <ele>763.0</ele>
        <time>2019-08-12T11:51:39Z</time>
      </trkpt>
      <trkpt lat="39.7506880" lon="-4.0197710">
        <ele>763.0</ele>
        <time>2019-08-12T11:51:40Z</time>
      </trkpt>
      <trkpt lat="39.7507130" lon="-4.0198500">
        <ele>762.9</ele>
        <time>2019-08-12T11:51:41Z</time>
      </trkpt>
      <trkpt lat="39.7507360" lon="-4.0199260">
        <ele>762.8</ele>
        <time>2019-08-12T11:51:42Z</time>
      </trkpt>
      <trkpt lat="39.7507590" lon="-4.0200000">
        <ele>762.7</ele>
        <time>2019-08-12T11:51:43Z</time>
      </trkpt>
      <trkpt lat="39.7507840" lon="-4.0200700">
        <ele>762.5</ele>
        <time>2019-08-12T11:51:44Z</time>
      </trkpt>
      <trkpt lat="39.7508090" lon="-4.0201370">
        <ele>762.3</ele>
        <time>2019-08-12T11:51:45Z</time>
      </trkpt>
      <trkpt lat="39.7508340" lon="-4.0202050">
        <ele>762.1</ele>
        <time>2019-08-12T11:51:46Z</time>
      </trkpt>
      <trkpt lat="39.7508600" lon="-4.0202740">
        <ele>762.0</ele>
        <time>2019-08-12T11:51:47Z</time>
      </trkpt>
      <trkpt lat="39.7508870" lon="-4.0203470">
        <ele>761.9</ele>
        <time>2019-08-12T11:51:48Z</time>
      </trkpt>
      <trkpt lat="39.7509140" lon="-4.0204230">
        <ele>761.8</ele>
        <time>2019-08-12T11:51:49Z</time>
      </trkpt>
      <trkpt lat="39.7509410" lon="-4.0205030">
        <ele>761.7</ele>
        <time>2019-08-12T11:51:50Z</time>
      </trkpt>
      <trkpt lat="39.7509680" lon="-4.0205830">
        <ele>761.7</ele>
        <time>2019-08-12T11:51:51Z</time>
      </trkpt>
      <trkpt lat="39.7509930" lon="-4.0206630">
        <ele>761.7</ele>
        <time>2019-08-12T11:51:52Z</time>
      </trkpt>
      <trkpt lat="39.7510180" lon="-4.0207410">
        <ele>761.7</ele>
        <time>2019-08-12T11:51:53Z</time>
      </trkpt>
      <trkpt lat="39.7510420" lon="-4.0208170">
        <ele>761.7</ele>
        <time>2019-08-12T11:51:54Z</time>
      </trkpt>
      <trkpt lat="39.7510660" lon="-4.0208910">
        <ele>761.7</ele>
        <time>2019-08-12T11:51:55Z</time>
      </trkpt>
      <trkpt lat="39.7510900" lon="-4.0209630">
        <ele>761.6</ele>
        <time>2019-08-12T11:51:56Z</time>
      </trkpt>
      <trkpt lat="39.7511150" lon="-4.0210340">
        <ele>761.6</ele>
        <time>2019-08-12T11:51:57Z</time>
      </trkpt>
      <trkpt lat="39.7511410" lon="-4.0211030">
        <ele>761.5</ele>
        <time>2019-08-12T11:51:58Z</time>
      </trkpt>
      <trkpt lat="39.7511680" lon="-4.0211710">
        <ele>761.5</ele>
        <time>2019-08-12T11:51:59Z</time>
      </trkpt>
      <trkpt lat="39.7511940" lon="-4.0212380">
        <ele>761.4</ele>
        <time>2019-08-12T11:52:00Z</time>
      </trkpt>
      <trkpt lat="39.7512180" lon="-4.0213030">
        <ele>761.4</ele>
        <time>2019-08-12T11:52:01Z</time>
      </trkpt>
      <trkpt lat="39.7512390" lon="-4.0213690">
        <ele>761.4</ele>
        <time>2019-08-12T11:52:02Z</time>
      </trkpt>
      <trkpt lat="39.7512580" lon="-4.0214340">
        <ele>761.3</ele>
        <time>2019-08-12T11:52:03Z</time>
      </trkpt>
      <trkpt lat="39.7512770" lon="-4.0215010">
        <ele>761.3</ele>
        <time>2019-08-12T11:52:04Z</time>
      </trkpt>
      <trkpt lat="39.7512960" lon="-4.0215680">
        <ele>761.3</ele>
        <time>2019-08-12T11:52:05Z</time>
      </trkpt>
      <trkpt lat="39.7513160" lon="-4.0216390">
        <ele>761.3</ele>
        <time>2019-08-12T11:52:06Z</time>
      </trkpt>
      <trkpt lat="39.7513370" lon="-4.0217110">
        <ele>761.3</ele>
        <time>2019-08-12T11:52:07Z</time>
      </trkpt>
      <trkpt lat="39.7513600" lon="-4.0217860">
        <ele>761.3</ele>
        <time>2019-08-12T11:52:08Z</time>
      </trkpt>
      <trkpt lat="39.7513830" lon="-4.0218610">
        <ele>761.3</ele>
        <time>2019-08-12T11:52:09Z</time>
      </trkpt>
      <trkpt lat="39.7514060" lon="-4.0219340">
        <ele>761.4</ele>
        <time>2019-08-12T11:52:10Z</time>
      </trkpt>
      <trkpt lat="39.7514270" lon="-4.0220060">
        <ele>761.4</ele>
        <time>2019-08-12T11:52:11Z</time>
      </trkpt>
      <trkpt lat="39.7514450" lon="-4.0220740">
        <ele>761.4</ele>
        <time>2019-08-12T11:52:12Z</time>
      </trkpt>
      <trkpt lat="39.7514610" lon="-4.0221390">
        <ele>761.5</ele>
        <time>2019-08-12T11:52:13Z</time>
      </trkpt>
      <trkpt lat="39.7514780" lon="-4.0222040">
        <ele>761.5</ele>
        <time>2019-08-12T11:52:14Z</time>
      </trkpt>
      <trkpt lat="39.7514950" lon="-4.0222680">
        <ele>761.5</ele>
        <time>2019-08-12T11:52:15Z</time>
      </trkpt>
      <trkpt lat="39.7515130" lon="-4.0223340">
        <ele>761.5</ele>
        <time>2019-08-12T11:52:16Z</time>
      </trkpt>
      <trkpt lat="39.7515340" lon="-4.0224030">
        <ele>761.5</ele>
        <time>2019-08-12T11:52:17Z</time>
      </trkpt>
      <trkpt lat="39.7515580" lon="-4.0224730">
        <ele>761.6</ele>
        <time>2019-08-12T11:52:18Z</time>
      </trkpt>
      <trkpt lat="39.7515830" lon="-4.0225450">
        <ele>761.6</ele>
        <time>2019-08-12T11:52:19Z</time>
      </trkpt>
      <trkpt lat="39.7516080" lon="-4.0226160">
        <ele>761.7</ele>
        <time>2019-08-12T11:52:20Z</time>
      </trkpt>
      <trkpt lat="39.7516330" lon="-4.0226870">
        <ele>761.7</ele>
        <time>2019-08-12T11:52:21Z</time>
      </trkpt>
      <trkpt lat="39.7516580" lon="-4.0227570">
        <ele>761.8</ele>
        <time>2019-08-12T11:52:22Z</time>
      </trkpt>
      <trkpt lat="39.7516830" lon="-4.0228260">
        <ele>761.8</ele>
        <time>2019-08-12T11:52:23Z</time>
      </trkpt>
      <trkpt lat="39.7517070" lon="-4.0228940">
        <ele>761.9</ele>
        <time>2019-08-12T11:52:24Z</time>
      </trkpt>
      <trkpt lat="39.7517320" lon="-4.0229620">
        <ele>762.0</ele>
        <time>2019-08-12T11:52:25Z</time>
      </trkpt>
      <trkpt lat="39.7517560" lon="-4.0230290">
        <ele>762.1</ele>
        <time>2019-08-12T11:52:26Z</time>
      </trkpt>
      <trkpt lat="39.7517800" lon="-4.0230960">
        <ele>762.2</ele>
        <time>2019-08-12T11:52:27Z</time>
      </trkpt>
      <trkpt lat="39.7518040" lon="-4.0231630">
        <ele>762.3</ele>
        <time>2019-08-12T11:52:28Z</time>
      </trkpt>
      <trkpt lat="39.7518280" lon="-4.0232300">
        <ele>762.4</ele>
        <time>2019-08-12T11:52:29Z</time>
      </trkpt>
      <trkpt lat="39.7518520" lon="-4.0232970">
        <ele>762.6</ele>
        <time>2019-08-12T11:52:30Z</time>
      </trkpt>
      <trkpt lat="39.7518770" lon="-4.0233630">
        <ele>762.7</ele>
        <time>2019-08-12T11:52:31Z</time>
      </trkpt>
      <trkpt lat="39.7519010" lon="-4.0234290">
        <ele>762.8</ele>
        <time>2019-08-12T11:52:32Z</time>
      </trkpt>
      <trkpt lat="39.7519250" lon="-4.0234950">
        <ele>763.0</ele>
        <time>2019-08-12T11:52:33Z</time>
      </trkpt>
      <trkpt lat="39.7519490" lon="-4.0235610">
        <ele>763.1</ele>
        <time>2019-08-12T11:52:34Z</time>
      </trkpt>
      <trkpt lat="39.7519730" lon="-4.0236260">
        <ele>763.3</ele>
        <time>2019-08-12T11:52:35Z</time>
      </trkpt>
      <trkpt lat="39.7519970" lon="-4.0236900">
        <ele>763.4</ele>
        <time>2019-08-12T11:52:36Z</time>
      </trkpt>
      <trkpt lat="39.7520210" lon="-4.0237540">
        <ele>763.6</ele>
        <time>2019-08-12T11:52:37Z</time>
      </trkpt>
      <trkpt lat="39.7520460" lon="-4.0238160">
        <ele>763.8</ele>
        <time>2019-08-12T11:52:38Z</time>
      </trkpt>
      <trkpt lat="39.7520700" lon="-4.0238780">
        <ele>763.9</ele>
        <time>2019-08-12T11:52:39Z</time>
      </trkpt>
      <trkpt lat="39.7520940" lon="-4.0239390">
        <ele>764.1</ele>
        <time>2019-08-12T11:52:40Z</time>
      </trkpt>
      <trkpt lat="39.7521190" lon="-4.0239990">
        <ele>764.4</ele>
        <time>2019-08-12T11:52:41Z</time>
      </trkpt>
      <trkpt lat="39.7521430" lon="-4.0240580">
        <ele>764.6</ele>
        <time>2019-08-12T11:52:42Z</time>
      </trkpt>
      <trkpt lat="39.7521670" lon="-4.0241160">
        <ele>764.8</ele>
        <time>2019-08-12T11:52:43Z</time>
      </trkpt>
      <trkpt lat="39.7521920" lon="-4.0241720">
        <ele>765.0</ele>
        <time>2019-08-12T11:52:44Z</time>
      </trkpt>
      <trkpt lat="39.7522160" lon="-4.0242270">
        <ele>765.2</ele>
        <time>2019-08-12T11:52:45Z</time>
      </trkpt>
      <trkpt lat="39.7522410" lon="-4.0242810">
        <ele>765.4</ele>
        <time>2019-08-12T11:52:46Z</time>
      </trkpt>
      <trkpt lat="39.7522660" lon="-4.0243340">
        <ele>765.6</ele>
        <time>2019-08-12T11:52:47Z</time>
      </trkpt>
      <trkpt lat="39.7522900" lon="-4.0243850">
        <ele>765.8</ele>
        <time>2019-08-12T11:52:48Z</time>
      </trkpt>
      <trkpt lat="39.7523150" lon="-4.0244350">
        <ele>766.0</ele>
        <time>2019-08-12T11:52:49Z</time>
      </trkpt>
      <trkpt lat="39.7523400" lon="-4.0244830">
        <ele>766.1</ele>
        <time>2019-08-12T11:52:50Z</time>
      </trkpt>
      <trkpt lat="39.7523640" lon="-4.0245300">
        <ele>766.3</ele>
        <time>2019-08-12T11:52:51Z</time>
      </trkpt>
      <trkpt lat="39.7523880" lon="-4.0245750">
        <ele>766.4</ele>
        <time>2019-08-12T11:52:52Z</time>
      </trkpt>
      <trkpt lat="39.7524120" lon="-4.0246200">
        <ele>766.6</ele>
        <time>2019-08-12T11:52:53Z</time>
      </trkpt>
      <trkpt lat="39.7524360" lon="-4.0246630">
        <ele>766.7</ele>
        <time>2019-08-12T11:52:54Z</time>
      </trkpt>
      <trkpt lat="39.7524590" lon="-4.0247060">
        <ele>766.8</ele>
        <time>2019-08-12T11:52:55Z</time>
      </trkpt>
      <trkpt lat="39.7524810" lon="-4.0247490">
        <ele>766.9</ele>
        <time>2019-08-12T11:52:56Z</time>
      </trkpt>
      <trkpt lat="39.7525030" lon="-4.0247910">
        <ele>767.0</ele>
        <time>2019-08-12T11:52:57Z</time>
      </trkpt>
      <trkpt lat="39.7525230" lon="-4.0248340">
        <ele>767.1</ele>
        <time>2019-08-12T11:52:58Z</time>
      </trkpt>
      <trkpt lat="39.7525430" lon="-4.0248770">
        <ele>767.2</ele>
        <time>2019-08-12T11:52:59Z</time>
      </trkpt>
      <trkpt lat="39.7525620" lon="-4.0249200">
        <ele>767.3</ele>
        <time>2019-08-12T11:53:00Z</time>
      </trkpt>
      <trkpt lat="39.7525810" lon="-4.0249620">
        <ele>767.4</ele>
        <time>2019-08-12T11:53:01Z</time>
      </trkpt>
      <trkpt lat="39.7525990" lon="-4.0250030">
        <ele>767.5</ele>
        <time>2019-08-12T11:53:02Z</time>
      </trkpt>
      <trkpt lat="39.7526180" lon="-4.0250440">
        <ele>767.6</ele>
        <time>2019-08-12T11:53:03Z</time>
      </trkpt>
      <trkpt lat="39.7526370" lon="-4.0250830">
        <ele>767.7</ele>
        <time>2019-08-12T11:53:04Z</time>
      </trkpt>
      <trkpt lat="39.7526560" lon="-4.0251220">
        <ele>767.8</ele>
        <time>2019-08-12T11:53:05Z</time>
      </trkpt>
      <trkpt lat="39.7526750" lon="-4.0251610">
        <ele>767.9</ele>
        <time>2019-08-12T11:53:06Z</time>
      </trkpt>
      <trkpt lat="39.7526940" lon="-4.0252010">
        <ele>768.0</ele>
        <time>2019-08-12T11:53:07Z</time>
      </trkpt>
      <trkpt lat="39.7527130" lon="-4.0252410">
        <ele>768.2</ele>
        <time>2019-08-12T11:53:08Z</time>
      </trkpt>
      <trkpt lat="39.7527320" lon="-4.0252800">
        <ele>768.3</ele>
        <time>2019-08-12T11:53:09Z</time>
      </trkpt>
      <trkpt lat="39.7527500" lon="-4.0253190">
        <ele>768.4</ele>
        <time>2019-08-12T11:53:10Z</time>
      </trkpt>
      <trkpt lat="39.7527690" lon="-4.0253570">
        <ele>768.6</ele>
        <time>2019-08-12T11:53:11Z</time>
      </trkpt>
      <trkpt lat="39.7527870" lon="-4.0253930">
        <ele>768.7</ele>
        <time>2019-08-12T11:53:12Z</time>
      </trkpt>
      <trkpt lat="39.7528050" lon="-4.0254290">
        <ele>768.8</ele>
        <time>2019-08-12T11:53:13Z</time>
      </trkpt>
      <trkpt lat="39.7528220" lon="-4.0254640">
        <ele>769.0</ele>
        <time>2019-08-12T11:53:14Z</time>
      </trkpt>
      <trkpt lat="39.7528380" lon="-4.0254990">
        <ele>769.1</ele>
        <time>2019-08-12T11:53:15Z</time>
      </trkpt>
      <trkpt lat="39.7528540" lon="-4.0255340">
        <ele>769.2</ele>
        <time>2019-08-12T11:53:16Z</time>
      </trkpt>
      <trkpt lat="39.7528690" lon="-4.0255700">
        <ele>769.4</ele>
        <time>2019-08-12T11:53:17Z</time>
      </trkpt>
      <trkpt lat="39.7528840" lon="-4.0256060">
        <ele>769.5</ele>
        <time>2019-08-12T11:53:18Z</time>
      </trkpt>
      <trkpt lat="39.7528980" lon="-4.0256420">
        <ele>769.7</ele>
        <time>2019-08-12T11:53:19Z</time>
      </trkpt>
      <trkpt lat="39.7529120" lon="-4.0256780">
        <ele>769.8</ele>
        <time>2019-08-12T11:53:20Z</time>
      </trkpt>
      <trkpt lat="39.7529260" lon="-4.0257140">
        <ele>770.0</ele>
        <time>2019-08-12T11:53:21Z</time>
      </trkpt>
      <trkpt lat="39.7529410" lon="-4.0257490">
        <ele>770.1</ele>
        <time>2019-08-12T11:53:22Z</time>
      </trkpt>
      <trkpt lat="39.7529560" lon="-4.0257850">
        <ele>770.3</ele>
        <time>2019-08-12T11:53:23Z</time>
      </trkpt>
      <trkpt lat="39.7529720" lon="-4.0258200">
        <ele>770.5</ele>
        <time>2019-08-12T11:53:24Z</time>
      </trkpt>
      <trkpt lat="39.7529890" lon="-4.0258550">
        <ele>770.6</ele>
        <time>2019-08-12T11:53:25Z</time>
      </trkpt>
      <trkpt lat="39.7530070" lon="-4.0258890">
        <ele>770.8</ele>
        <time>2019-08-12T11:53:26Z</time>
      </trkpt>
      <trkpt lat="39.7530250" lon="-4.0259230">
        <ele>770.8</ele>
        <time>2019-08-12T11:53:27Z</time>
      </trkpt>
      <trkpt lat="39.7530450" lon="-4.0259570">
        <ele>771.1</ele>
        <time>2019-08-12T11:53:28Z</time>
      </trkpt>
      <trkpt lat="39.7530650" lon="-4.0259900">
        <ele>771.3</ele>
        <time>2019-08-12T11:53:29Z</time>
      </trkpt>
      <trkpt lat="39.7530850" lon="-4.0260240">
        <ele>771.5</ele>
        <time>2019-08-12T11:53:30Z</time>
      </trkpt>
      <trkpt lat="39.7531050" lon="-4.0260590">
        <ele>771.7</ele>
        <time>2019-08-12T11:53:31Z</time>
      </trkpt>
      <trkpt lat="39.7531260" lon="-4.0260940">
        <ele>771.8</ele>
        <time>2019-08-12T11:53:32Z</time>
      </trkpt>
      <trkpt lat="39.7531460" lon="-4.0261290">
        <ele>772.0</ele>
        <time>2019-08-12T11:53:33Z</time>
      </trkpt>
      <trkpt lat="39.7531650" lon="-4.0261650">
        <ele>772.2</ele>
        <time>2019-08-12T11:53:34Z</time>
      </trkpt>
      <trkpt lat="39.7531830" lon="-4.0262020">
        <ele>772.3</ele>
        <time>2019-08-12T11:53:35Z</time>
      </trkpt>
      <trkpt lat="39.7532000" lon="-4.0262400">
        <ele>772.5</ele>
        <time>2019-08-12T11:53:36Z</time>
      </trkpt>
      <trkpt lat="39.7532160" lon="-4.0262780">
        <ele>772.7</ele>
        <time>2019-08-12T11:53:37Z</time>
      </trkpt>
      <trkpt lat="39.7532330" lon="-4.0263170">
        <ele>772.8</ele>
        <time>2019-08-12T11:53:38Z</time>
      </trkpt>
      <trkpt lat="39.7532510" lon="-4.0263560">
        <ele>773.0</ele>
        <time>2019-08-12T11:53:39Z</time>
      </trkpt>
      <trkpt lat="39.7532690" lon="-4.0263950">
        <ele>773.2</ele>
        <time>2019-08-12T11:53:40Z</time>
      </trkpt>
      <trkpt lat="39.7532880" lon="-4.0264330">
        <ele>773.3</ele>
        <time>2019-08-12T11:53:41Z</time>
      </trkpt>
      <trkpt lat="39.7533090" lon="-4.0264710">
        <ele>773.5</ele>
        <time>2019-08-12T11:53:42Z</time>
      </trkpt>
      <trkpt lat="39.7533310" lon="-4.0265080">
        <ele>773.6</ele>
        <time>2019-08-12T11:53:43Z</time>
      </trkpt>
      <trkpt lat="39.7533550" lon="-4.0265430">
        <ele>773.8</ele>
        <time>2019-08-12T11:53:44Z</time>
      </trkpt>
      <trkpt lat="39.7533810" lon="-4.0265770">
        <ele>773.8</ele>
        <time>2019-08-12T11:53:45Z</time>
      </trkpt>
      <trkpt lat="39.7534080" lon="-4.0266100">
        <ele>773.7</ele>
        <time>2019-08-12T11:53:46Z</time>
      </trkpt>
      <trkpt lat="39.7534360" lon="-4.0266410">
        <ele>773.7</ele>
        <time>2019-08-12T11:53:47Z</time>
      </trkpt>
      <trkpt lat="39.7534660" lon="-4.0266720">
        <ele>773.6</ele>
        <time>2019-08-12T11:53:48Z</time>
      </trkpt>
      <trkpt lat="39.7534970" lon="-4.0267020">
        <ele>773.5</ele>
        <time>2019-08-12T11:53:49Z</time>
      </trkpt>
      <trkpt lat="39.7535290" lon="-4.0267310">
        <ele>773.4</ele>
        <time>2019-08-12T11:53:50Z</time>
      </trkpt>
      <trkpt lat="39.7535620" lon="-4.0267590">
        <ele>773.4</ele>
        <time>2019-08-12T11:53:51Z</time>
      </trkpt>
      <trkpt lat="39.7535970" lon="-4.0267870">
        <ele>773.3</ele>
        <time>2019-08-12T11:53:52Z</time>
      </trkpt>
      <trkpt lat="39.7536320" lon="-4.0268150">
        <ele>773.2</ele>
        <time>2019-08-12T11:53:53Z</time>
      </trkpt>
      <trkpt lat="39.7536680" lon="-4.0268420">
        <ele>773.1</ele>
        <time>2019-08-12T11:53:54Z</time>
      </trkpt>
      <trkpt lat="39.7537060" lon="-4.0268690">
        <ele>773.1</ele>
        <time>2019-08-12T11:53:55Z</time>
      </trkpt>
      <trkpt lat="39.7537450" lon="-4.0268950">
        <ele>773.0</ele>
        <time>2019-08-12T11:53:56Z</time>
      </trkpt>
      <trkpt lat="39.7537870" lon="-4.0269220">
        <ele>772.9</ele>
        <time>2019-08-12T11:53:57Z</time>
      </trkpt>
      <trkpt lat="39.7538300" lon="-4.0269480">
        <ele>772.9</ele>
        <time>2019-08-12T11:53:58Z</time>
      </trkpt>
      <trkpt lat="39.7538740" lon="-4.0269740">
        <ele>772.8</ele>
        <time>2019-08-12T11:53:59Z</time>
      </trkpt>
      <trkpt lat="39.7539160" lon="-4.0270010">
        <ele>772.8</ele>
        <time>2019-08-12T11:54:00Z</time>
      </trkpt>
      <trkpt lat="39.7539570" lon="-4.0270270">
        <ele>772.8</ele>
        <time>2019-08-12T11:54:01Z</time>
      </trkpt>
      <trkpt lat="39.7539980" lon="-4.0270540">
        <ele>772.7</ele>
        <time>2019-08-12T11:54:02Z</time>
      </trkpt>
      <trkpt lat="39.7540400" lon="-4.0270810">
        <ele>772.8</ele>
        <time>2019-08-12T11:54:03Z</time>
      </trkpt>
      <trkpt lat="39.7540850" lon="-4.0271100">
        <ele>772.8</ele>
        <time>2019-08-12T11:54:04Z</time>
      </trkpt>
      <trkpt lat="39.7541310" lon="-4.0271390">
        <ele>772.8</ele>
        <time>2019-08-12T11:54:05Z</time>
      </trkpt>
      <trkpt lat="39.7541780" lon="-4.0271710">
        <ele>772.8</ele>
        <time>2019-08-12T11:54:06Z</time>
      </trkpt>
      <trkpt lat="39.7542260" lon="-4.0272050">
        <ele>772.9</ele>
        <time>2019-08-12T11:54:07Z</time>
      </trkpt>
      <trkpt lat="39.7542740" lon="-4.0272410">
        <ele>772.9</ele>
        <time>2019-08-12T11:54:08Z</time>
      </trkpt>
      <trkpt lat="39.7543210" lon="-4.0272780">
        <ele>772.9</ele>
        <time>2019-08-12T11:54:09Z</time>
      </trkpt>
      <trkpt lat="39.7543700" lon="-4.0273160">
        <ele>773.0</ele>
        <time>2019-08-12T11:54:10Z</time>
      </trkpt>
      <trkpt lat="39.7544180" lon="-4.0273520">
        <ele>773.0</ele>
        <time>2019-08-12T11:54:11Z</time>
      </trkpt>
      <trkpt lat="39.7544670" lon="-4.0273870">
        <ele>772.9</ele>
        <time>2019-08-12T11:54:12Z</time>
      </trkpt>
      <trkpt lat="39.7545150" lon="-4.0274190">
        <ele>772.9</ele>
        <time>2019-08-12T11:54:13Z</time>
      </trkpt>
      <trkpt lat="39.7545640" lon="-4.0274500">
        <ele>772.9</ele>
        <time>2019-08-12T11:54:14Z</time>
      </trkpt>
      <trkpt lat="39.7546120" lon="-4.0274810">
        <ele>772.9</ele>
        <time>2019-08-12T11:54:15Z</time>
      </trkpt>
      <trkpt lat="39.7546590" lon="-4.0275130">
        <ele>772.8</ele>
        <time>2019-08-12T11:54:16Z</time>
      </trkpt>
      <trkpt lat="39.7547060" lon="-4.0275460">
        <ele>772.8</ele>
        <time>2019-08-12T11:54:17Z</time>
      </trkpt>
      <trkpt lat="39.7547520" lon="-4.0275800">
        <ele>772.7</ele>
        <time>2019-08-12T11:54:18Z</time>
      </trkpt>
      <trkpt lat="39.7547980" lon="-4.0276140">
        <ele>772.6</ele>
        <time>2019-08-12T11:54:19Z</time>
      </trkpt>
      <trkpt lat="39.7548450" lon="-4.0276460">
        <ele>772.5</ele>
        <time>2019-08-12T11:54:20Z</time>
      </trkpt>
      <trkpt lat="39.7548930" lon="-4.0276770">
        <ele>772.5</ele>
        <time>2019-08-12T11:54:21Z</time>
      </trkpt>
      <trkpt lat="39.7549410" lon="-4.0277060">
        <ele>772.4</ele>
        <time>2019-08-12T11:54:22Z</time>
      </trkpt>
      <trkpt lat="39.7549910" lon="-4.0277350">
        <ele>772.4</ele>
        <time>2019-08-12T11:54:23Z</time>
      </trkpt>
      <trkpt lat="39.7550410" lon="-4.0277640">
        <ele>772.3</ele>
        <time>2019-08-12T11:54:24Z</time>
      </trkpt>
      <trkpt lat="39.7550900" lon="-4.0277930">
        <ele>772.2</ele>
        <time>2019-08-12T11:54:25Z</time>
      </trkpt>
      <trkpt lat="39.7551400" lon="-4.0278240">
        <ele>772.2</ele>
        <time>2019-08-12T11:54:26Z</time>
      </trkpt>
      <trkpt lat="39.7551890" lon="-4.0278550">
        <ele>772.1</ele>
        <time>2019-08-12T11:54:27Z</time>
      </trkpt>
      <trkpt lat="39.7552390" lon="-4.0278870">
        <ele>772.1</ele>
        <time>2019-08-12T11:54:28Z</time>
      </trkpt>
      <trkpt lat="39.7552900" lon="-4.0279200">
        <ele>772.0</ele>
        <time>2019-08-12T11:54:29Z</time>
      </trkpt>
      <trkpt lat="39.7553410" lon="-4.0279530">
        <ele>771.9</ele>
        <time>2019-08-12T11:54:30Z</time>
      </trkpt>
      <trkpt lat="39.7553930" lon="-4.0279860">
        <ele>771.9</ele>
        <time>2019-08-12T11:54:31Z</time>
      </trkpt>
      <trkpt lat="39.7554460" lon="-4.0280190">
        <ele>771.8</ele>
        <time>2019-08-12T11:54:32Z</time>
      </trkpt>
      <trkpt lat="39.7555000" lon="-4.0280520">
        <ele>771.6</ele>
        <time>2019-08-12T11:54:33Z</time>
      </trkpt>
      <trkpt lat="39.7555550" lon="-4.0280860">
        <ele>771.5</ele>
        <time>2019-08-12T11:54:34Z</time>
      </trkpt>
      <trkpt lat="39.7556100" lon="-4.0281200">
        <ele>771.4</ele>
        <time>2019-08-12T11:54:35Z</time>
      </trkpt>
      <trkpt lat="39.7556660" lon="-4.0281540">
        <ele>771.2</ele>
        <time>2019-08-12T11:54:36Z</time>
      </trkpt>
      <trkpt lat="39.7557220" lon="-4.0281890">
        <ele>771.1</ele>
        <time>2019-08-12T11:54:37Z</time>
      </trkpt>
      <trkpt lat="39.7557780" lon="-4.0282250">
        <ele>771.0</ele>
        <time>2019-08-12T11:54:38Z</time>
      </trkpt>
      <trkpt lat="39.7558350" lon="-4.0282620">
        <ele>770.9</ele>
        <time>2019-08-12T11:54:39Z</time>
      </trkpt>
      <trkpt lat="39.7558920" lon="-4.0282990">
        <ele>770.8</ele>
        <time>2019-08-12T11:54:40Z</time>
      </trkpt>
      <trkpt lat="39.7559490" lon="-4.0283370">
        <ele>770.7</ele>
        <time>2019-08-12T11:54:41Z</time>
      </trkpt>
      <trkpt lat="39.7560060" lon="-4.0283760">
        <ele>770.7</ele>
        <time>2019-08-12T11:54:42Z</time>
      </trkpt>
      <trkpt lat="39.7560620" lon="-4.0284170">
        <ele>770.7</ele>
        <time>2019-08-12T11:54:43Z</time>
      </trkpt>
      <trkpt lat="39.7561190" lon="-4.0284580">
        <ele>770.7</ele>
        <time>2019-08-12T11:54:44Z</time>
      </trkpt>
      <trkpt lat="39.7561740" lon="-4.0285000">
        <ele>770.8</ele>
        <time>2019-08-12T11:54:45Z</time>
      </trkpt>
      <trkpt lat="39.7562280" lon="-4.0285440">
        <ele>770.8</ele>
        <time>2019-08-12T11:54:46Z</time>
      </trkpt>
      <trkpt lat="39.7562820" lon="-4.0285890">
        <ele>770.9</ele>
        <time>2019-08-12T11:54:47Z</time>
      </trkpt>
      <trkpt lat="39.7563340" lon="-4.0286350">
        <ele>770.9</ele>
        <time>2019-08-12T11:54:48Z</time>
      </trkpt>
      <trkpt lat="39.7563860" lon="-4.0286830">
        <ele>771.0</ele>
        <time>2019-08-12T11:54:49Z</time>
      </trkpt>
      <trkpt lat="39.7564350" lon="-4.0287320">
        <ele>771.0</ele>
        <time>2019-08-12T11:54:50Z</time>
      </trkpt>
      <trkpt lat="39.7564840" lon="-4.0287820">
        <ele>771.1</ele>
        <time>2019-08-12T11:54:51Z</time>
      </trkpt>
      <trkpt lat="39.7565320" lon="-4.0288330">
        <ele>771.1</ele>
        <time>2019-08-12T11:54:52Z</time>
      </trkpt>
      <trkpt lat="39.7565790" lon="-4.0288850">
        <ele>771.2</ele>
        <time>2019-08-12T11:54:53Z</time>
      </trkpt>
      <trkpt lat="39.7566260" lon="-4.0289370">
        <ele>771.3</ele>
        <time>2019-08-12T11:54:54Z</time>
      </trkpt>
      <trkpt lat="39.7566710" lon="-4.0289900">
        <ele>771.3</ele>
        <time>2019-08-12T11:54:55Z</time>
      </trkpt>
      <trkpt lat="39.7567170" lon="-4.0290430">
        <ele>771.4</ele>
        <time>2019-08-12T11:54:56Z</time>
      </trkpt>
      <trkpt lat="39.7567620" lon="-4.0290950">
        <ele>771.4</ele>
        <time>2019-08-12T11:54:57Z</time>
      </trkpt>
      <trkpt lat="39.7568070" lon="-4.0291480">
        <ele>771.5</ele>
        <time>2019-08-12T11:54:58Z</time>
      </trkpt>
      <trkpt lat="39.7568520" lon="-4.0292010">
        <ele>771.5</ele>
        <time>2019-08-12T11:54:59Z</time>
      </trkpt>
      <trkpt lat="39.7568960" lon="-4.0292540">
        <ele>771.5</ele>
        <time>2019-08-12T11:55:00Z</time>
      </trkpt>
      <trkpt lat="39.7569410" lon="-4.0293070">
        <ele>771.6</ele>
        <time>2019-08-12T11:55:01Z</time>
      </trkpt>
      <trkpt lat="39.7569860" lon="-4.0293600">
        <ele>771.6</ele>
        <time>2019-08-12T11:55:02Z</time>
      </trkpt>
      <trkpt lat="39.7570310" lon="-4.0294130">
        <ele>771.6</ele>
        <time>2019-08-12T11:55:03Z</time>
      </trkpt>
      <trkpt lat="39.7570770" lon="-4.0294670">
        <ele>771.6</ele>
        <time>2019-08-12T11:55:04Z</time>
      </trkpt>
      <trkpt lat="39.7571230" lon="-4.0295210">
        <ele>771.6</ele>
        <time>2019-08-12T11:55:05Z</time>
      </trkpt>
      <trkpt lat="39.7571690" lon="-4.0295760">
        <ele>771.5</ele>
        <time>2019-08-12T11:55:06Z</time>
      </trkpt>
      <trkpt lat="39.7572160" lon="-4.0296320">
        <ele>771.4</ele>
        <time>2019-08-12T11:55:07Z</time>
      </trkpt>
      <trkpt lat="39.7572630" lon="-4.0296880">
        <ele>771.3</ele>
        <time>2019-08-12T11:55:08Z</time>
      </trkpt>
      <trkpt lat="39.7573100" lon="-4.0297450">
        <ele>771.1</ele>
        <time>2019-08-12T11:55:09Z</time>
      </trkpt>
      <trkpt lat="39.7573580" lon="-4.0298020">
        <ele>770.9</ele>
        <time>2019-08-12T11:55:10Z</time>
      </trkpt>
      <trkpt lat="39.7574070" lon="-4.0298600">
        <ele>770.8</ele>
        <time>2019-08-12T11:55:11Z</time>
      </trkpt>
      <trkpt lat="39.7574560" lon="-4.0299190">
        <ele>770.6</ele>
        <time>2019-08-12T11:55:12Z</time>
      </trkpt>
      <trkpt lat="39.7575040" lon="-4.0299770">
        <ele>770.4</ele>
        <time>2019-08-12T11:55:13Z</time>
      </trkpt>
      <trkpt lat="39.7575540" lon="-4.0300370">
        <ele>770.2</ele>
        <time>2019-08-12T11:55:14Z</time>
      </trkpt>
      <trkpt lat="39.7576030" lon="-4.0300960">
        <ele>770.0</ele>
        <time>2019-08-12T11:55:15Z</time>
      </trkpt>
      <trkpt lat="39.7576520" lon="-4.0301570">
        <ele>769.9</ele>
        <time>2019-08-12T11:55:16Z</time>
      </trkpt>
      <trkpt lat="39.7577020" lon="-4.0302170">
        <ele>769.7</ele>
        <time>2019-08-12T11:55:17Z</time>
      </trkpt>
      <trkpt lat="39.7577510" lon="-4.0302780">
        <ele>769.6</ele>
        <time>2019-08-12T11:55:18Z</time>
      </trkpt>
      <trkpt lat="39.7578010" lon="-4.0303390">
        <ele>769.4</ele>
        <time>2019-08-12T11:55:19Z</time>
      </trkpt>
      <trkpt lat="39.7578510" lon="-4.0304000">
        <ele>769.3</ele>
        <time>2019-08-12T11:55:20Z</time>
      </trkpt>
      <trkpt lat="39.7579010" lon="-4.0304610">
        <ele>769.1</ele>
        <time>2019-08-12T11:55:21Z</time>
      </trkpt>
      <trkpt lat="39.7579510" lon="-4.0305230">
        <ele>769.0</ele>
        <time>2019-08-12T11:55:22Z</time>
      </trkpt>
      <trkpt lat="39.7580010" lon="-4.0305840">
        <ele>768.8</ele>
        <time>2019-08-12T11:55:23Z</time>
      </trkpt>
      <trkpt lat="39.7580520" lon="-4.0306460">
        <ele>768.6</ele>
        <time>2019-08-12T11:55:24Z</time>
      </trkpt>
      <trkpt lat="39.7581030" lon="-4.0307080">
        <ele>768.5</ele>
        <time>2019-08-12T11:55:25Z</time>
      </trkpt>
      <trkpt lat="39.7581540" lon="-4.0307700">
        <ele>768.3</ele>
        <time>2019-08-12T11:55:26Z</time>
      </trkpt>
      <trkpt lat="39.7582050" lon="-4.0308320">
        <ele>768.1</ele>
        <time>2019-08-12T11:55:27Z</time>
      </trkpt>
      <trkpt lat="39.7582560" lon="-4.0308950">
        <ele>767.8</ele>
        <time>2019-08-12T11:55:28Z</time>
      </trkpt>
      <trkpt lat="39.7583090" lon="-4.0309580">
        <ele>767.6</ele>
        <time>2019-08-12T11:55:29Z</time>
      </trkpt>
      <trkpt lat="39.7583610" lon="-4.0310210">
        <ele>767.4</ele>
        <time>2019-08-12T11:55:30Z</time>
      </trkpt>
      <trkpt lat="39.7584140" lon="-4.0310850">
        <ele>767.1</ele>
        <time>2019-08-12T11:55:31Z</time>
      </trkpt>
      <trkpt lat="39.7584680" lon="-4.0311500">
        <ele>766.8</ele>
        <time>2019-08-12T11:55:32Z</time>
      </trkpt>
      <trkpt lat="39.7585230" lon="-4.0312150">
        <ele>766.6</ele>
        <time>2019-08-12T11:55:33Z</time>
      </trkpt>
      <trkpt lat="39.7585780" lon="-4.0312810">
        <ele>766.4</ele>
        <time>2019-08-12T11:55:34Z</time>
      </trkpt>
      <trkpt lat="39.7586340" lon="-4.0313480">
        <ele>766.1</ele>
        <time>2019-08-12T11:55:35Z</time>
      </trkpt>
      <trkpt lat="39.7586910" lon="-4.0314160">
        <ele>765.9</ele>
        <time>2019-08-12T11:55:36Z</time>
      </trkpt>
      <trkpt lat="39.7587480" lon="-4.0314850">
        <ele>765.7</ele>
        <time>2019-08-12T11:55:37Z</time>
      </trkpt>
      <trkpt lat="39.7588050" lon="-4.0315540">
        <ele>765.5</ele>
        <time>2019-08-12T11:55:38Z</time>
      </trkpt>
      <trkpt lat="39.7588620" lon="-4.0316240">
        <ele>765.3</ele>
        <time>2019-08-12T11:55:39Z</time>
      </trkpt>
      <trkpt lat="39.7589200" lon="-4.0316930">
        <ele>765.1</ele>
        <time>2019-08-12T11:55:40Z</time>
      </trkpt>
      <trkpt lat="39.7589770" lon="-4.0317620">
        <ele>764.9</ele>
        <time>2019-08-12T11:55:41Z</time>
      </trkpt>
      <trkpt lat="39.7590330" lon="-4.0318310">
        <ele>764.7</ele>
        <time>2019-08-12T11:55:42Z</time>
      </trkpt>
      <trkpt lat="39.7590880" lon="-4.0319000">
        <ele>764.5</ele>
        <time>2019-08-12T11:55:43Z</time>
      </trkpt>
      <trkpt lat="39.7591430" lon="-4.0319670">
        <ele>764.3</ele>
        <time>2019-08-12T11:55:44Z</time>
      </trkpt>
      <trkpt lat="39.7591970" lon="-4.0320340">
        <ele>764.1</ele>
        <time>2019-08-12T11:55:45Z</time>
      </trkpt>
      <trkpt lat="39.7592500" lon="-4.0321010">
        <ele>763.9</ele>
        <time>2019-08-12T11:55:46Z</time>
      </trkpt>
      <trkpt lat="39.7593030" lon="-4.0321670">
        <ele>763.7</ele>
        <time>2019-08-12T11:55:47Z</time>
      </trkpt>
      <trkpt lat="39.7593560" lon="-4.0322330">
        <ele>763.5</ele>
        <time>2019-08-12T11:55:48Z</time>
      </trkpt>
      <trkpt lat="39.7594090" lon="-4.0322990">
        <ele>763.3</ele>
        <time>2019-08-12T11:55:49Z</time>
      </trkpt>
      <trkpt lat="39.7594620" lon="-4.0323650">
        <ele>763.2</ele>
        <time>2019-08-12T11:55:50Z</time>
      </trkpt>
      <trkpt lat="39.7595160" lon="-4.0324310">
        <ele>763.0</ele>
        <time>2019-08-12T11:55:51Z</time>
      </trkpt>
      <trkpt lat="39.7595710" lon="-4.0324980">
        <ele>762.8</ele>
        <time>2019-08-12T11:55:52Z</time>
      </trkpt>
      <trkpt lat="39.7596260" lon="-4.0325640">
        <ele>762.7</ele>
        <time>2019-08-12T11:55:53Z</time>
      </trkpt>
      <trkpt lat="39.7596820" lon="-4.0326310">
        <ele>762.5</ele>
        <time>2019-08-12T11:55:54Z</time>
      </trkpt>
      <trkpt lat="39.7597380" lon="-4.0326980">
        <ele>762.4</ele>
        <time>2019-08-12T11:55:55Z</time>
      </trkpt>
      <trkpt lat="39.7597940" lon="-4.0327650">
        <ele>762.3</ele>
        <time>2019-08-12T11:55:56Z</time>
      </trkpt>
      <trkpt lat="39.7598490" lon="-4.0328310">
        <ele>762.2</ele>
        <time>2019-08-12T11:55:57Z</time>
      </trkpt>
      <trkpt lat="39.7599020" lon="-4.0328970">
        <ele>762.1</ele>
        <time>2019-08-12T11:55:58Z</time>
      </trkpt>
      <trkpt lat="39.7599550" lon="-4.0329620">
        <ele>762.1</ele>
        <time>2019-08-12T11:55:59Z</time>
      </trkpt>
      <trkpt lat="39.7600070" lon="-4.0330260">
        <ele>762.0</ele>
        <time>2019-08-12T11:56:00Z</time>
      </trkpt>
      <trkpt lat="39.7600590" lon="-4.0330910">
        <ele>761.9</ele>
        <time>2019-08-12T11:56:01Z</time>
      </trkpt>
      <trkpt lat="39.7601110" lon="-4.0331560">
        <ele>761.8</ele>
        <time>2019-08-12T11:56:02Z</time>
      </trkpt>
      <trkpt lat="39.7601630" lon="-4.0332210">
        <ele>761.6</ele>
        <time>2019-08-12T11:56:03Z</time>
      </trkpt>
      <trkpt lat="39.7602160" lon="-4.0332860">
        <ele>761.5</ele>
        <time>2019-08-12T11:56:04Z</time>
      </trkpt>
      <trkpt lat="39.7602680" lon="-4.0333510">
        <ele>761.3</ele>
        <time>2019-08-12T11:56:05Z</time>
      </trkpt>
      <trkpt lat="39.7603210" lon="-4.0334160">
        <ele>761.2</ele>
        <time>2019-08-12T11:56:06Z</time>
      </trkpt>
      <trkpt lat="39.7603730" lon="-4.0334820">
        <ele>761.0</ele>
        <time>2019-08-12T11:56:07Z</time>
      </trkpt>
      <trkpt lat="39.7604260" lon="-4.0335480">
        <ele>760.9</ele>
        <time>2019-08-12T11:56:08Z</time>
      </trkpt>
      <trkpt lat="39.7604790" lon="-4.0336140">
        <ele>760.7</ele>
        <time>2019-08-12T11:56:09Z</time>
      </trkpt>
      <trkpt lat="39.7605330" lon="-4.0336800">
        <ele>760.6</ele>
        <time>2019-08-12T11:56:10Z</time>
      </trkpt>
      <trkpt lat="39.7605870" lon="-4.0337470">
        <ele>760.4</ele>
        <time>2019-08-12T11:56:11Z</time>
      </trkpt>
      <trkpt lat="39.7606410" lon="-4.0338140">
        <ele>760.3</ele>
        <time>2019-08-12T11:56:12Z</time>
      </trkpt>
      <trkpt lat="39.7606950" lon="-4.0338820">
        <ele>760.2</ele>
        <time>2019-08-12T11:56:13Z</time>
      </trkpt>
      <trkpt lat="39.7607490" lon="-4.0339500">
        <ele>760.0</ele>
        <time>2019-08-12T11:56:14Z</time>
      </trkpt>
      <trkpt lat="39.7608040" lon="-4.0340180">
        <ele>759.9</ele>
        <time>2019-08-12T11:56:15Z</time>
      </trkpt>
      <trkpt lat="39.7608590" lon="-4.0340870">
        <ele>759.8</ele>
        <time>2019-08-12T11:56:16Z</time>
      </trkpt>
      <trkpt lat="39.7609150" lon="-4.0341560">
        <ele>759.6</ele>
        <time>2019-08-12T11:56:17Z</time>
      </trkpt>
      <trkpt lat="39.7609710" lon="-4.0342250">
        <ele>759.5</ele>
        <time>2019-08-12T11:56:18Z</time>
      </trkpt>
      <trkpt lat="39.7610270" lon="-4.0342960">
        <ele>759.3</ele>
        <time>2019-08-12T11:56:19Z</time>
      </trkpt>
      <trkpt lat="39.7610830" lon="-4.0343660">
        <ele>759.2</ele>
        <time>2019-08-12T11:56:20Z</time>
      </trkpt>
      <trkpt lat="39.7611400" lon="-4.0344370">
        <ele>759.0</ele>
        <time>2019-08-12T11:56:21Z</time>
      </trkpt>
      <trkpt lat="39.7611980" lon="-4.0345090">
        <ele>758.8</ele>
        <time>2019-08-12T11:56:22Z</time>
      </trkpt>
      <trkpt lat="39.7612550" lon="-4.0345810">
        <ele>758.6</ele>
        <time>2019-08-12T11:56:23Z</time>
      </trkpt>
      <trkpt lat="39.7613130" lon="-4.0346530">
        <ele>758.5</ele>
        <time>2019-08-12T11:56:24Z</time>
      </trkpt>
      <trkpt lat="39.7613710" lon="-4.0347250">
        <ele>758.3</ele>
        <time>2019-08-12T11:56:25Z</time>
      </trkpt>
      <trkpt lat="39.7614290" lon="-4.0347980">
        <ele>758.3</ele>
        <time>2019-08-12T11:56:26Z</time>
      </trkpt>
      <trkpt lat="39.7614870" lon="-4.0348710">
        <ele>758.2</ele>
        <time>2019-08-12T11:56:27Z</time>
      </trkpt>
      <trkpt lat="39.7615450" lon="-4.0349440">
        <ele>758.1</ele>
        <time>2019-08-12T11:56:28Z</time>
      </trkpt>
      <trkpt lat="39.7616030" lon="-4.0350170">
        <ele>758.0</ele>
        <time>2019-08-12T11:56:29Z</time>
      </trkpt>
      <trkpt lat="39.7616610" lon="-4.0350890">
        <ele>758.0</ele>
        <time>2019-08-12T11:56:30Z</time>
      </trkpt>
      <trkpt lat="39.7617190" lon="-4.0351620">
        <ele>757.8</ele>
        <time>2019-08-12T11:56:31Z</time>
      </trkpt>
      <trkpt lat="39.7617770" lon="-4.0352350">
        <ele>757.6</ele>
        <time>2019-08-12T11:56:32Z</time>
      </trkpt>
      <trkpt lat="39.7618350" lon="-4.0353070">
        <ele>757.3</ele>
        <time>2019-08-12T11:56:33Z</time>
      </trkpt>
      <trkpt lat="39.7618930" lon="-4.0353800">
        <ele>756.9</ele>
        <time>2019-08-12T11:56:34Z</time>
      </trkpt>
      <trkpt lat="39.7619500" lon="-4.0354520">
        <ele>756.6</ele>
        <time>2019-08-12T11:56:35Z</time>
      </trkpt>
      <trkpt lat="39.7620070" lon="-4.0355230">
        <ele>756.4</ele>
        <time>2019-08-12T11:56:36Z</time>
      </trkpt>
      <trkpt lat="39.7620640" lon="-4.0355950">
        <ele>756.1</ele>
        <time>2019-08-12T11:56:37Z</time>
      </trkpt>
      <trkpt lat="39.7621200" lon="-4.0356650">
        <ele>755.9</ele>
        <time>2019-08-12T11:56:38Z</time>
      </trkpt>
      <trkpt lat="39.7621760" lon="-4.0357360">
        <ele>755.7</ele>
        <time>2019-08-12T11:56:39Z</time>
      </trkpt>
      <trkpt lat="39.7622320" lon="-4.0358060">
        <ele>755.6</ele>
        <time>2019-08-12T11:56:40Z</time>
      </trkpt>
      <trkpt lat="39.7622870" lon="-4.0358750">
        <ele>755.4</ele>
        <time>2019-08-12T11:56:41Z</time>
      </trkpt>
      <trkpt lat="39.7623420" lon="-4.0359450">
        <ele>755.2</ele>
        <time>2019-08-12T11:56:42Z</time>
      </trkpt>
      <trkpt lat="39.7623970" lon="-4.0360140">
        <ele>755.1</ele>
        <time>2019-08-12T11:56:43Z</time>
      </trkpt>
      <trkpt lat="39.7624510" lon="-4.0360830">
        <ele>754.9</ele>
        <time>2019-08-12T11:56:44Z</time>
      </trkpt>
      <trkpt lat="39.7625060" lon="-4.0361520">
        <ele>754.7</ele>
        <time>2019-08-12T11:56:45Z</time>
      </trkpt>
      <trkpt lat="39.7625600" lon="-4.0362210">
        <ele>754.5</ele>
        <time>2019-08-12T11:56:46Z</time>
      </trkpt>
      <trkpt lat="39.7626150" lon="-4.0362910">
        <ele>754.3</ele>
        <time>2019-08-12T11:56:47Z</time>
      </trkpt>
      <trkpt lat="39.7626690" lon="-4.0363610">
        <ele>754.1</ele>
        <time>2019-08-12T11:56:48Z</time>
      </trkpt>
      <trkpt lat="39.7627240" lon="-4.0364310">
        <ele>753.9</ele>
        <time>2019-08-12T11:56:49Z</time>
      </trkpt>
      <trkpt lat="39.7627790" lon="-4.0365010">
        <ele>753.6</ele>
        <time>2019-08-12T11:56:50Z</time>
      </trkpt>
      <trkpt lat="39.7628340" lon="-4.0365710">
        <ele>753.4</ele>
        <time>2019-08-12T11:56:51Z</time>
      </trkpt>
      <trkpt lat="39.7628890" lon="-4.0366400">
        <ele>753.2</ele>
        <time>2019-08-12T11:56:52Z</time>
      </trkpt>
      <trkpt lat="39.7629450" lon="-4.0367090">
        <ele>753.0</ele>
        <time>2019-08-12T11:56:53Z</time>
      </trkpt>
      <trkpt lat="39.7630020" lon="-4.0367760">
        <ele>752.7</ele>
        <time>2019-08-12T11:56:54Z</time>
      </trkpt>
      <trkpt lat="39.7630610" lon="-4.0368400">
        <ele>752.5</ele>
        <time>2019-08-12T11:56:55Z</time>
      </trkpt>
      <trkpt lat="39.7631200" lon="-4.0369010">
        <ele>752.2</ele>
        <time>2019-08-12T11:56:56Z</time>
      </trkpt>
      <trkpt lat="39.7631820" lon="-4.0369570">
        <ele>752.0</ele>
        <time>2019-08-12T11:56:57Z</time>
      </trkpt>
      <trkpt lat="39.7632440" lon="-4.0370090">
        <ele>751.8</ele>
        <time>2019-08-12T11:56:58Z</time>
      </trkpt>
      <trkpt lat="39.7633080" lon="-4.0370570">
        <ele>751.7</ele>
        <time>2019-08-12T11:56:59Z</time>
      </trkpt>
      <trkpt lat="39.7633720" lon="-4.0371020">
        <ele>751.5</ele>
        <time>2019-08-12T11:57:00Z</time>
      </trkpt>
      <trkpt lat="39.7634360" lon="-4.0371440">
        <ele>751.4</ele>
        <time>2019-08-12T11:57:01Z</time>
      </trkpt>
      <trkpt lat="39.7634990" lon="-4.0371840">
        <ele>751.3</ele>
        <time>2019-08-12T11:57:02Z</time>
      </trkpt>
      <trkpt lat="39.7635620" lon="-4.0372220">
        <ele>751.2</ele>
        <time>2019-08-12T11:57:03Z</time>
      </trkpt>
      <trkpt lat="39.7636240" lon="-4.0372590">
        <ele>751.2</ele>
        <time>2019-08-12T11:57:04Z</time>
      </trkpt>
      <trkpt lat="39.7636860" lon="-4.0372950">
        <ele>751.1</ele>
        <time>2019-08-12T11:57:05Z</time>
      </trkpt>
      <trkpt lat="39.7637470" lon="-4.0373310">
        <ele>751.1</ele>
        <time>2019-08-12T11:57:06Z</time>
      </trkpt>
      <trkpt lat="39.7638080" lon="-4.0373660">
        <ele>751.1</ele>
        <time>2019-08-12T11:57:07Z</time>
      </trkpt>
      <trkpt lat="39.7638680" lon="-4.0374020">
        <ele>751.1</ele>
        <time>2019-08-12T11:57:08Z</time>
      </trkpt>
      <trkpt lat="39.7639280" lon="-4.0374380">
        <ele>751.0</ele>
        <time>2019-08-12T11:57:09Z</time>
      </trkpt>
      <trkpt lat="39.7639880" lon="-4.0374740">
        <ele>751.0</ele>
        <time>2019-08-12T11:57:10Z</time>
      </trkpt>
      <trkpt lat="39.7640470" lon="-4.0375110">
        <ele>750.9</ele>
        <time>2019-08-12T11:57:11Z</time>
      </trkpt>
      <trkpt lat="39.7641060" lon="-4.0375470">
        <ele>750.8</ele>
        <time>2019-08-12T11:57:12Z</time>
      </trkpt>
      <trkpt lat="39.7641660" lon="-4.0375840">
        <ele>750.7</ele>
        <time>2019-08-12T11:57:13Z</time>
      </trkpt>
      <trkpt lat="39.7642250" lon="-4.0376210">
        <ele>750.6</ele>
        <time>2019-08-12T11:57:14Z</time>
      </trkpt>
      <trkpt lat="39.7642840" lon="-4.0376590">
        <ele>750.5</ele>
        <time>2019-08-12T11:57:15Z</time>
      </trkpt>
      <trkpt lat="39.7643430" lon="-4.0376960">
        <ele>750.4</ele>
        <time>2019-08-12T11:57:16Z</time>
      </trkpt>
      <trkpt lat="39.7644020" lon="-4.0377340">
        <ele>750.3</ele>
        <time>2019-08-12T11:57:17Z</time>
      </trkpt>
      <trkpt lat="39.7644610" lon="-4.0377720">
        <ele>750.1</ele>
        <time>2019-08-12T11:57:18Z</time>
      </trkpt>
      <trkpt lat="39.7645190" lon="-4.0378100">
        <ele>750.0</ele>
        <time>2019-08-12T11:57:19Z</time>
      </trkpt>
      <trkpt lat="39.7645770" lon="-4.0378480">
        <ele>749.8</ele>
        <time>2019-08-12T11:57:20Z</time>
      </trkpt>
      <trkpt lat="39.7646340" lon="-4.0378860">
        <ele>749.6</ele>
        <time>2019-08-12T11:57:21Z</time>
      </trkpt>
      <trkpt lat="39.7646910" lon="-4.0379230">
        <ele>749.5</ele>
        <time>2019-08-12T11:57:22Z</time>
      </trkpt>
      <trkpt lat="39.7647490" lon="-4.0379600">
        <ele>749.3</ele>
        <time>2019-08-12T11:57:23Z</time>
      </trkpt>
      <trkpt lat="39.7648060" lon="-4.0379970">
        <ele>749.1</ele>
        <time>2019-08-12T11:57:24Z</time>
      </trkpt>
      <trkpt lat="39.7648650" lon="-4.0380340">
        <ele>748.9</ele>
        <time>2019-08-12T11:57:25Z</time>
      </trkpt>
      <trkpt lat="39.7649250" lon="-4.0380710">
        <ele>748.7</ele>
        <time>2019-08-12T11:57:26Z</time>
      </trkpt>
      <trkpt lat="39.7649860" lon="-4.0381080">
        <ele>748.5</ele>
        <time>2019-08-12T11:57:27Z</time>
      </trkpt>
      <trkpt lat="39.7650470" lon="-4.0381450">
        <ele>748.3</ele>
        <time>2019-08-12T11:57:28Z</time>
      </trkpt>
      <trkpt lat="39.7651100" lon="-4.0381830">
        <ele>748.1</ele>
        <time>2019-08-12T11:57:29Z</time>
      </trkpt>
      <trkpt lat="39.7651730" lon="-4.0382200">
        <ele>748.0</ele>
        <time>2019-08-12T11:57:30Z</time>
      </trkpt>
      <trkpt lat="39.7652370" lon="-4.0382580">
        <ele>747.8</ele>
        <time>2019-08-12T11:57:31Z</time>
      </trkpt>
      <trkpt lat="39.7653010" lon="-4.0382970">
        <ele>747.7</ele>
        <time>2019-08-12T11:57:32Z</time>
      </trkpt>
      <trkpt lat="39.7653660" lon="-4.0383360">
        <ele>747.6</ele>
        <time>2019-08-12T11:57:33Z</time>
      </trkpt>
      <trkpt lat="39.7654310" lon="-4.0383750">
        <ele>747.5</ele>
        <time>2019-08-12T11:57:34Z</time>
      </trkpt>
      <trkpt lat="39.7654970" lon="-4.0384150">
        <ele>747.3</ele>
        <time>2019-08-12T11:57:35Z</time>
      </trkpt>
      <trkpt lat="39.7655630" lon="-4.0384550">
        <ele>747.2</ele>
        <time>2019-08-12T11:57:36Z</time>
      </trkpt>
      <trkpt lat="39.7656290" lon="-4.0384950">
        <ele>747.1</ele>
        <time>2019-08-12T11:57:37Z</time>
      </trkpt>
      <trkpt lat="39.7656960" lon="-4.0385360">
        <ele>746.9</ele>
        <time>2019-08-12T11:57:38Z</time>
      </trkpt>
      <trkpt lat="39.7657610" lon="-4.0385770">
        <ele>746.7</ele>
        <time>2019-08-12T11:57:39Z</time>
      </trkpt>
      <trkpt lat="39.7658270" lon="-4.0386170">
        <ele>746.5</ele>
        <time>2019-08-12T11:57:40Z</time>
      </trkpt>
      <trkpt lat="39.7658920" lon="-4.0386580">
        <ele>746.3</ele>
        <time>2019-08-12T11:57:41Z</time>
      </trkpt>
      <trkpt lat="39.7659570" lon="-4.0386990">
        <ele>746.1</ele>
        <time>2019-08-12T11:57:42Z</time>
      </trkpt>
      <trkpt lat="39.7660200" lon="-4.0387390">
        <ele>745.9</ele>
        <time>2019-08-12T11:57:43Z</time>
      </trkpt>
      <trkpt lat="39.7660830" lon="-4.0387790">
        <ele>745.7</ele>
        <time>2019-08-12T11:57:44Z</time>
      </trkpt>
      <trkpt lat="39.7661450" lon="-4.0388190">
        <ele>745.5</ele>
        <time>2019-08-12T11:57:45Z</time>
      </trkpt>
      <trkpt lat="39.7662070" lon="-4.0388590">
        <ele>745.3</ele>
        <time>2019-08-12T11:57:46Z</time>
      </trkpt>
      <trkpt lat="39.7662670" lon="-4.0388990">
        <ele>745.2</ele>
        <time>2019-08-12T11:57:47Z</time>
      </trkpt>
      <trkpt lat="39.7663280" lon="-4.0389390">
        <ele>745.0</ele>
        <time>2019-08-12T11:57:48Z</time>
      </trkpt>
      <trkpt lat="39.7663870" lon="-4.0389780">
        <ele>744.9</ele>
        <time>2019-08-12T11:57:49Z</time>
      </trkpt>
      <trkpt lat="39.7664470" lon="-4.0390180">
        <ele>744.7</ele>
        <time>2019-08-12T11:57:50Z</time>
      </trkpt>
      <trkpt lat="39.7665060" lon="-4.0390580">
        <ele>744.6</ele>
        <time>2019-08-12T11:57:51Z</time>
      </trkpt>
      <trkpt lat="39.7665650" lon="-4.0390970">
        <ele>744.4</ele>
        <time>2019-08-12T11:57:52Z</time>
      </trkpt>
      <trkpt lat="39.7666240" lon="-4.0391370">
        <ele>744.3</ele>
        <time>2019-08-12T11:57:53Z</time>
      </trkpt>
      <trkpt lat="39.7666830" lon="-4.0391780">
        <ele>744.1</ele>
        <time>2019-08-12T11:57:54Z</time>
      </trkpt>
      <trkpt lat="39.7667410" lon="-4.0392190">
        <ele>744.0</ele>
        <time>2019-08-12T11:57:55Z</time>
      </trkpt>
      <trkpt lat="39.7667980" lon="-4.0392620">
        <ele>743.8</ele>
        <time>2019-08-12T11:57:56Z</time>
      </trkpt>
      <trkpt lat="39.7668530" lon="-4.0393070">
        <ele>743.7</ele>
        <time>2019-08-12T11:57:57Z</time>
      </trkpt>
      <trkpt lat="39.7669050" lon="-4.0393540">
        <ele>743.5</ele>
        <time>2019-08-12T11:57:58Z</time>
      </trkpt>
      <trkpt lat="39.7669520" lon="-4.0394030">
        <ele>743.3</ele>
        <time>2019-08-12T11:57:59Z</time>
      </trkpt>
      <trkpt lat="39.7669890" lon="-4.0394570">
        <ele>743.2</ele>
        <time>2019-08-12T11:58:00Z</time>
      </trkpt>
      <trkpt lat="39.7670140" lon="-4.0395160">
        <ele>742.8</ele>
        <time>2019-08-12T11:58:01Z</time>
      </trkpt>
      <trkpt lat="39.7670240" lon="-4.0395810">
        <ele>742.7</ele>
        <time>2019-08-12T11:58:02Z</time>
      </trkpt>
      <trkpt lat="39.7670220" lon="-4.0396510">
        <ele>742.6</ele>
        <time>2019-08-12T11:58:03Z</time>
      </trkpt>
      <trkpt lat="39.7670150" lon="-4.0397260">
        <ele>742.5</ele>
        <time>2019-08-12T11:58:04Z</time>
      </trkpt>
      <trkpt lat="39.7670080" lon="-4.0398070">
        <ele>742.4</ele>
        <time>2019-08-12T11:58:05Z</time>
      </trkpt>
      <trkpt lat="39.7670060" lon="-4.0398910">
        <ele>742.2</ele>
        <time>2019-08-12T11:58:06Z</time>
      </trkpt>
      <trkpt lat="39.7670180" lon="-4.0399820">
        <ele>742.0</ele>
        <time>2019-08-12T11:58:07Z</time>
      </trkpt>
      <trkpt lat="39.7670300" lon="-4.0400730">
        <ele>741.7</ele>
        <time>2019-08-12T11:58:08Z</time>
      </trkpt>
      <trkpt lat="39.7670530" lon="-4.0401670">
        <ele>741.3</ele>
        <time>2019-08-12T11:58:09Z</time>
      </trkpt>
      <trkpt lat="39.7670810" lon="-4.0402620">
        <ele>740.8</ele>
        <time>2019-08-12T11:58:10Z</time>
      </trkpt>
      <trkpt lat="39.7671120" lon="-4.0403580">
        <ele>740.4</ele>
        <time>2019-08-12T11:58:11Z</time>
      </trkpt>
      <trkpt lat="39.7671460" lon="-4.0404540">
        <ele>739.9</ele>
        <time>2019-08-12T11:58:12Z</time>
      </trkpt>
      <trkpt lat="39.7671810" lon="-4.0405510">
        <ele>739.3</ele>
        <time>2019-08-12T11:58:13Z</time>
      </trkpt>
      <trkpt lat="39.7672180" lon="-4.0406500">
        <ele>738.8</ele>
        <time>2019-08-12T11:58:14Z</time>
      </trkpt>
      <trkpt lat="39.7672560" lon="-4.0407530">
        <ele>738.1</ele>
        <time>2019-08-12T11:58:15Z</time>
      </trkpt>
      <trkpt lat="39.7672940" lon="-4.0408580">
        <ele>737.5</ele>
        <time>2019-08-12T11:58:16Z</time>
      </trkpt>
      <trkpt lat="39.7673320" lon="-4.0409660">
        <ele>736.8</ele>
        <time>2019-08-12T11:58:17Z</time>
      </trkpt>
      <trkpt lat="39.7673690" lon="-4.0410750">
        <ele>736.0</ele>
        <time>2019-08-12T11:58:18Z</time>
      </trkpt>
      <trkpt lat="39.7674070" lon="-4.0411840">
        <ele>735.2</ele>
        <time>2019-08-12T11:58:19Z</time>
      </trkpt>
      <trkpt lat="39.7674430" lon="-4.0412920">
        <ele>734.4</ele>
        <time>2019-08-12T11:58:20Z</time>
      </trkpt>
      <trkpt lat="39.7674770" lon="-4.0414000">
        <ele>733.5</ele>
        <time>2019-08-12T11:58:21Z</time>
      </trkpt>
      <trkpt lat="39.7675060" lon="-4.0415080">
        <ele>732.7</ele>
        <time>2019-08-12T11:58:22Z</time>
      </trkpt>
      <trkpt lat="39.7675270" lon="-4.0416170">
        <ele>731.9</ele>
        <time>2019-08-12T11:58:23Z</time>
      </trkpt>
      <trkpt lat="39.7675360" lon="-4.0418040">
        <ele>730.6</ele>
        <time>2019-08-12T11:58:24Z</time>
      </trkpt>
      <trkpt lat="39.7675340" lon="-4.0418800">
        <ele>730.2</ele>
        <time>2019-08-12T11:58:25Z</time>
      </trkpt>
      <trkpt lat="39.7675310" lon="-4.0419560">
        <ele>729.7</ele>
        <time>2019-08-12T11:58:26Z</time>
      </trkpt>
      <trkpt lat="39.7675130" lon="-4.0420700">
        <ele>729.0</ele>
        <time>2019-08-12T11:58:27Z</time>
      </trkpt>
      <trkpt lat="39.7674860" lon="-4.0421830">
        <ele>728.3</ele>
        <time>2019-08-12T11:58:28Z</time>
      </trkpt>
      <trkpt lat="39.7674270" lon="-4.0423670">
        <ele>727.1</ele>
        <time>2019-08-12T11:58:29Z</time>
      </trkpt>
      <trkpt lat="39.7674020" lon="-4.0424410">
        <ele>726.6</ele>
        <time>2019-08-12T11:58:30Z</time>
      </trkpt>
      <trkpt lat="39.7673770" lon="-4.0425140">
        <ele>726.1</ele>
        <time>2019-08-12T11:58:31Z</time>
      </trkpt>
      <trkpt lat="39.7673400" lon="-4.0426260">
        <ele>725.4</ele>
        <time>2019-08-12T11:58:32Z</time>
      </trkpt>
      <trkpt lat="39.7673090" lon="-4.0427410">
        <ele>724.6</ele>
        <time>2019-08-12T11:58:33Z</time>
      </trkpt>
      <trkpt lat="39.7672850" lon="-4.0428600">
        <ele>723.9</ele>
        <time>2019-08-12T11:58:34Z</time>
      </trkpt>
      <trkpt lat="39.7672710" lon="-4.0429830">
        <ele>723.1</ele>
        <time>2019-08-12T11:58:35Z</time>
      </trkpt>
      <trkpt lat="39.7672680" lon="-4.0431090">
        <ele>722.3</ele>
        <time>2019-08-12T11:58:36Z</time>
      </trkpt>
      <trkpt lat="39.7672760" lon="-4.0432360">
        <ele>721.5</ele>
        <time>2019-08-12T11:58:37Z</time>
      </trkpt>
      <trkpt lat="39.7672970" lon="-4.0433650">
        <ele>720.6</ele>
        <time>2019-08-12T11:58:38Z</time>
      </trkpt>
      <trkpt lat="39.7673300" lon="-4.0434950">
        <ele>719.7</ele>
        <time>2019-08-12T11:58:39Z</time>
      </trkpt>
      <trkpt lat="39.7673730" lon="-4.0436240">
        <ele>718.8</ele>
        <time>2019-08-12T11:58:40Z</time>
      </trkpt>
      <trkpt lat="39.7674260" lon="-4.0437520">
        <ele>717.9</ele>
        <time>2019-08-12T11:58:41Z</time>
      </trkpt>
      <trkpt lat="39.7674850" lon="-4.0438780">
        <ele>717.0</ele>
        <time>2019-08-12T11:58:42Z</time>
      </trkpt>
      <trkpt lat="39.7675510" lon="-4.0440010">
        <ele>716.0</ele>
        <time>2019-08-12T11:58:43Z</time>
      </trkpt>
      <trkpt lat="39.7676210" lon="-4.0441220">
        <ele>715.1</ele>
        <time>2019-08-12T11:58:44Z</time>
      </trkpt>
      <trkpt lat="39.7676950" lon="-4.0442380">
        <ele>714.2</ele>
        <time>2019-08-12T11:58:45Z</time>
      </trkpt>
      <trkpt lat="39.7677700" lon="-4.0443490">
        <ele>713.3</ele>
        <time>2019-08-12T11:58:46Z</time>
      </trkpt>
      <trkpt lat="39.7678450" lon="-4.0444550">
        <ele>712.4</ele>
        <time>2019-08-12T11:58:47Z</time>
      </trkpt>
      <trkpt lat="39.7679210" lon="-4.0445570">
        <ele>711.6</ele>
        <time>2019-08-12T11:58:48Z</time>
      </trkpt>
      <trkpt lat="39.7679970" lon="-4.0446530">
        <ele>710.7</ele>
        <time>2019-08-12T11:58:49Z</time>
      </trkpt>
      <trkpt lat="39.7680740" lon="-4.0447460">
        <ele>709.8</ele>
        <time>2019-08-12T11:58:50Z</time>
      </trkpt>
      <trkpt lat="39.7681510" lon="-4.0448340">
        <ele>709.0</ele>
        <time>2019-08-12T11:58:51Z</time>
      </trkpt>
      <trkpt lat="39.7682270" lon="-4.0449230">
        <ele>708.1</ele>
        <time>2019-08-12T11:58:52Z</time>
      </trkpt>
      <trkpt lat="39.7683040" lon="-4.0450090">
        <ele>707.1</ele>
        <time>2019-08-12T11:58:53Z</time>
      </trkpt>
      <trkpt lat="39.7683790" lon="-4.0450970">
        <ele>706.1</ele>
        <time>2019-08-12T11:58:54Z</time>
      </trkpt>
      <trkpt lat="39.7684540" lon="-4.0451870">
        <ele>705.1</ele>
        <time>2019-08-12T11:58:55Z</time>
      </trkpt>
      <trkpt lat="39.7685270" lon="-4.0452840">
        <ele>704.2</ele>
        <time>2019-08-12T11:58:56Z</time>
      </trkpt>
      <trkpt lat="39.7685970" lon="-4.0453870">
        <ele>703.4</ele>
        <time>2019-08-12T11:58:57Z</time>
      </trkpt>
      <trkpt lat="39.7686650" lon="-4.0454960">
        <ele>702.5</ele>
        <time>2019-08-12T11:58:58Z</time>
      </trkpt>
      <trkpt lat="39.7687300" lon="-4.0456100">
        <ele>701.7</ele>
        <time>2019-08-12T11:58:59Z</time>
      </trkpt>
      <trkpt lat="39.7687920" lon="-4.0457280">
        <ele>700.8</ele>
        <time>2019-08-12T11:59:00Z</time>
      </trkpt>
      <trkpt lat="39.7688490" lon="-4.0458470">
        <ele>700.0</ele>
        <time>2019-08-12T11:59:01Z</time>
      </trkpt>
      <trkpt lat="39.7689030" lon="-4.0459670">
        <ele>699.2</ele>
        <time>2019-08-12T11:59:02Z</time>
      </trkpt>
      <trkpt lat="39.7689530" lon="-4.0460860">
        <ele>698.4</ele>
        <time>2019-08-12T11:59:03Z</time>
      </trkpt>
      <trkpt lat="39.7690000" lon="-4.0462050">
        <ele>697.6</ele>
        <time>2019-08-12T11:59:04Z</time>
      </trkpt>
      <trkpt lat="39.7690770" lon="-4.0463980">
        <ele>696.5</ele>
        <time>2019-08-12T11:59:05Z</time>
      </trkpt>
      <trkpt lat="39.7691070" lon="-4.0464730">
        <ele>696.2</ele>
        <time>2019-08-12T11:59:06Z</time>
      </trkpt>
      <trkpt lat="39.7691370" lon="-4.0465490">
        <ele>695.9</ele>
        <time>2019-08-12T11:59:07Z</time>
      </trkpt>
      <trkpt lat="39.7691810" lon="-4.0466600">
        <ele>695.7</ele>
        <time>2019-08-12T11:59:08Z</time>
      </trkpt>
      <trkpt lat="39.7692250" lon="-4.0467690">
        <ele>695.5</ele>
        <time>2019-08-12T11:59:09Z</time>
      </trkpt>
      <trkpt lat="39.7692980" lon="-4.0469490">
        <ele>695.1</ele>
        <time>2019-08-12T11:59:10Z</time>
      </trkpt>
      <trkpt lat="39.7693260" lon="-4.0470200">
        <ele>695.0</ele>
        <time>2019-08-12T11:59:11Z</time>
      </trkpt>
      <trkpt lat="39.7693550" lon="-4.0470920">
        <ele>694.9</ele>
        <time>2019-08-12T11:59:12Z</time>
      </trkpt>
      <trkpt lat="39.7693970" lon="-4.0472000">
        <ele>694.7</ele>
        <time>2019-08-12T11:59:13Z</time>
      </trkpt>
      <trkpt lat="39.7694390" lon="-4.0473080">
        <ele>694.4</ele>
        <time>2019-08-12T11:59:14Z</time>
      </trkpt>
      <trkpt lat="39.7694810" lon="-4.0474160">
        <ele>694.1</ele>
        <time>2019-08-12T11:59:15Z</time>
      </trkpt>
      <trkpt lat="39.7695230" lon="-4.0475250">
        <ele>693.8</ele>
        <time>2019-08-12T11:59:16Z</time>
      </trkpt>
      <trkpt lat="39.7695640" lon="-4.0476340">
        <ele>693.5</ele>
        <time>2019-08-12T11:59:17Z</time>
      </trkpt>
      <trkpt lat="39.7696060" lon="-4.0477440">
        <ele>693.2</ele>
        <time>2019-08-12T11:59:18Z</time>
      </trkpt>
      <trkpt lat="39.7696470" lon="-4.0478540">
        <ele>692.9</ele>
        <time>2019-08-12T11:59:19Z</time>
      </trkpt>
      <trkpt lat="39.7696880" lon="-4.0479630">
        <ele>692.6</ele>
        <time>2019-08-12T11:59:20Z</time>
      </trkpt>
      <trkpt lat="39.7697300" lon="-4.0480730">
        <ele>692.3</ele>
        <time>2019-08-12T11:59:21Z</time>
      </trkpt>
      <trkpt lat="39.7697710" lon="-4.0481820">
        <ele>692.0</ele>
        <time>2019-08-12T11:59:22Z</time>
      </trkpt>
      <trkpt lat="39.7698120" lon="-4.0482900">
        <ele>691.6</ele>
        <time>2019-08-12T11:59:23Z</time>
      </trkpt>
      <trkpt lat="39.7698530" lon="-4.0483980">
        <ele>691.2</ele>
        <time>2019-08-12T11:59:24Z</time>
      </trkpt>
      <trkpt lat="39.7698950" lon="-4.0485050">
        <ele>690.8</ele>
        <time>2019-08-12T11:59:25Z</time>
      </trkpt>
      <trkpt lat="39.7699360" lon="-4.0486120">
        <ele>690.2</ele>
        <time>2019-08-12T11:59:26Z</time>
      </trkpt>
      <trkpt lat="39.7699770" lon="-4.0487180">
        <ele>689.6</ele>
        <time>2019-08-12T11:59:27Z</time>
      </trkpt>
      <trkpt lat="39.7700170" lon="-4.0488230">
        <ele>689.0</ele>
        <time>2019-08-12T11:59:28Z</time>
      </trkpt>
      <trkpt lat="39.7700580" lon="-4.0489270">
        <ele>688.4</ele>
        <time>2019-08-12T11:59:29Z</time>
      </trkpt>
      <trkpt lat="39.7700980" lon="-4.0490300">
        <ele>687.7</ele>
        <time>2019-08-12T11:59:30Z</time>
      </trkpt>
      <trkpt lat="39.7701370" lon="-4.0491330">
        <ele>687.2</ele>
        <time>2019-08-12T11:59:31Z</time>
      </trkpt>
      <trkpt lat="39.7701760" lon="-4.0492350">
        <ele>686.6</ele>
        <time>2019-08-12T11:59:32Z</time>
      </trkpt>
      <trkpt lat="39.7702140" lon="-4.0493360">
        <ele>686.1</ele>
        <time>2019-08-12T11:59:33Z</time>
      </trkpt>
      <trkpt lat="39.7702520" lon="-4.0494360">
        <ele>685.7</ele>
        <time>2019-08-12T11:59:34Z</time>
      </trkpt>
      <trkpt lat="39.7702890" lon="-4.0495340">
        <ele>685.2</ele>
        <time>2019-08-12T11:59:35Z</time>
      </trkpt>
      <trkpt lat="39.7703250" lon="-4.0496320">
        <ele>684.9</ele>
        <time>2019-08-12T11:59:36Z</time>
      </trkpt>
      <trkpt lat="39.7703620" lon="-4.0497270">
        <ele>684.5</ele>
        <time>2019-08-12T11:59:37Z</time>
      </trkpt>
      <trkpt lat="39.7703990" lon="-4.0498190">
        <ele>684.2</ele>
        <time>2019-08-12T11:59:38Z</time>
      </trkpt>
      <trkpt lat="39.7704360" lon="-4.0499090">
        <ele>683.9</ele>
        <time>2019-08-12T11:59:39Z</time>
      </trkpt>
      <trkpt lat="39.7704740" lon="-4.0499980">
        <ele>683.7</ele>
        <time>2019-08-12T11:59:40Z</time>
      </trkpt>
      <trkpt lat="39.7705120" lon="-4.0500870">
        <ele>683.4</ele>
        <time>2019-08-12T11:59:41Z</time>
      </trkpt>
      <trkpt lat="39.7705510" lon="-4.0501770">
        <ele>683.3</ele>
        <time>2019-08-12T11:59:42Z</time>
      </trkpt>
      <trkpt lat="39.7705890" lon="-4.0502700">
        <ele>683.2</ele>
        <time>2019-08-12T11:59:43Z</time>
      </trkpt>
      <trkpt lat="39.7706280" lon="-4.0503660">
        <ele>683.1</ele>
        <time>2019-08-12T11:59:44Z</time>
      </trkpt>
      <trkpt lat="39.7706670" lon="-4.0504640">
        <ele>682.9</ele>
        <time>2019-08-12T11:59:45Z</time>
      </trkpt>
      <trkpt lat="39.7707060" lon="-4.0505630">
        <ele>682.7</ele>
        <time>2019-08-12T11:59:46Z</time>
      </trkpt>
      <trkpt lat="39.7707450" lon="-4.0506640">
        <ele>682.5</ele>
        <time>2019-08-12T11:59:47Z</time>
      </trkpt>
      <trkpt lat="39.7707840" lon="-4.0507650">
        <ele>682.2</ele>
        <time>2019-08-12T11:59:48Z</time>
      </trkpt>
      <trkpt lat="39.7708230" lon="-4.0508670">
        <ele>681.9</ele>
        <time>2019-08-12T11:59:49Z</time>
      </trkpt>
      <trkpt lat="39.7708620" lon="-4.0509680">
        <ele>681.6</ele>
        <time>2019-08-12T11:59:50Z</time>
      </trkpt>
      <trkpt lat="39.7709010" lon="-4.0510680">
        <ele>681.3</ele>
        <time>2019-08-12T11:59:51Z</time>
      </trkpt>
      <trkpt lat="39.7709400" lon="-4.0511670">
        <ele>681.1</ele>
        <time>2019-08-12T11:59:52Z</time>
      </trkpt>
      <trkpt lat="39.7709780" lon="-4.0512640">
        <ele>680.8</ele>
        <time>2019-08-12T11:59:53Z</time>
      </trkpt>
      <trkpt lat="39.7710170" lon="-4.0513600">
        <ele>680.5</ele>
        <time>2019-08-12T11:59:54Z</time>
      </trkpt>
      <trkpt lat="39.7710550" lon="-4.0514550">
        <ele>680.2</ele>
        <time>2019-08-12T11:59:55Z</time>
      </trkpt>
      <trkpt lat="39.7710920" lon="-4.0515480">
        <ele>679.8</ele>
        <time>2019-08-12T11:59:56Z</time>
      </trkpt>
      <trkpt lat="39.7711280" lon="-4.0516400">
        <ele>679.4</ele>
        <time>2019-08-12T11:59:57Z</time>
      </trkpt>
      <trkpt lat="39.7711640" lon="-4.0517310">
        <ele>679.0</ele>
        <time>2019-08-12T11:59:58Z</time>
      </trkpt>
      <trkpt lat="39.7711990" lon="-4.0518200">
        <ele>678.6</ele>
        <time>2019-08-12T11:59:59Z</time>
      </trkpt>
      <trkpt lat="39.7712320" lon="-4.0519070">
        <ele>678.2</ele>
        <time>2019-08-12T12:00:00Z</time>
      </trkpt>
      <trkpt lat="39.7712650" lon="-4.0519930">
        <ele>677.8</ele>
        <time>2019-08-12T12:00:01Z</time>
      </trkpt>
      <trkpt lat="39.7712970" lon="-4.0520780">
        <ele>677.4</ele>
        <time>2019-08-12T12:00:02Z</time>
      </trkpt>
      <trkpt lat="39.7713280" lon="-4.0521610">
        <ele>677.1</ele>
        <time>2019-08-12T12:00:03Z</time>
      </trkpt>
      <trkpt lat="39.7713600" lon="-4.0522430">
        <ele>676.7</ele>
        <time>2019-08-12T12:00:04Z</time>
      </trkpt>
      <trkpt lat="39.7713920" lon="-4.0523230">
        <ele>676.4</ele>
        <time>2019-08-12T12:00:05Z</time>
      </trkpt>
      <trkpt lat="39.7714240" lon="-4.0524030">
        <ele>676.2</ele>
        <time>2019-08-12T12:00:06Z</time>
      </trkpt>
      <trkpt lat="39.7714580" lon="-4.0524820">
        <ele>676.1</ele>
        <time>2019-08-12T12:00:07Z</time>
      </trkpt>
      <trkpt lat="39.7714910" lon="-4.0525600">
        <ele>676.0</ele>
        <time>2019-08-12T12:00:08Z</time>
      </trkpt>
      <trkpt lat="39.7715250" lon="-4.0526400">
        <ele>675.9</ele>
        <time>2019-08-12T12:00:09Z</time>
      </trkpt>
      <trkpt lat="39.7715580" lon="-4.0527210">
        <ele>675.7</ele>
        <time>2019-08-12T12:00:10Z</time>
      </trkpt>
      <trkpt lat="39.7715900" lon="-4.0528050">
        <ele>675.6</ele>
        <time>2019-08-12T12:00:11Z</time>
      </trkpt>
      <trkpt lat="39.7716210" lon="-4.0528890">
        <ele>675.5</ele>
        <time>2019-08-12T12:00:12Z</time>
      </trkpt>
      <trkpt lat="39.7716520" lon="-4.0529740">
        <ele>675.4</ele>
        <time>2019-08-12T12:00:13Z</time>
      </trkpt>
      <trkpt lat="39.7716820" lon="-4.0530590">
        <ele>675.3</ele>
        <time>2019-08-12T12:00:14Z</time>
      </trkpt>
      <trkpt lat="39.7717100" lon="-4.0531420">
        <ele>675.2</ele>
        <time>2019-08-12T12:00:15Z</time>
      </trkpt>
      <trkpt lat="39.7717380" lon="-4.0532240">
        <ele>675.1</ele>
        <time>2019-08-12T12:00:16Z</time>
      </trkpt>
      <trkpt lat="39.7717650" lon="-4.0533030">
        <ele>675.0</ele>
        <time>2019-08-12T12:00:17Z</time>
      </trkpt>
      <trkpt lat="39.7717900" lon="-4.0533780">
        <ele>674.9</ele>
        <time>2019-08-12T12:00:18Z</time>
      </trkpt>
      <trkpt lat="39.7718150" lon="-4.0534480">
        <ele>674.9</ele>
        <time>2019-08-12T12:00:19Z</time>
      </trkpt>
      <trkpt lat="39.7718390" lon="-4.0535140">
        <ele>674.8</ele>
        <time>2019-08-12T12:00:20Z</time>
      </trkpt>
      <trkpt lat="39.7718620" lon="-4.0535750">
        <ele>674.7</ele>
        <time>2019-08-12T12:00:21Z</time>
      </trkpt>
      <trkpt lat="39.7718840" lon="-4.0536340">
        <ele>674.7</ele>
        <time>2019-08-12T12:00:22Z</time>
      </trkpt>
      <trkpt lat="39.7719070" lon="-4.0536910">
        <ele>674.6</ele>
        <time>2019-08-12T12:00:23Z</time>
      </trkpt>
      <trkpt lat="39.7719310" lon="-4.0537490">
        <ele>674.6</ele>
        <time>2019-08-12T12:00:24Z</time>
      </trkpt>
      <trkpt lat="39.7719560" lon="-4.0538080">
        <ele>674.5</ele>
        <time>2019-08-12T12:00:25Z</time>
      </trkpt>
      <trkpt lat="39.7719820" lon="-4.0538680">
        <ele>674.5</ele>
        <time>2019-08-12T12:00:26Z</time>
      </trkpt>
      <trkpt lat="39.7720080" lon="-4.0539290">
        <ele>674.4</ele>
        <time>2019-08-12T12:00:27Z</time>
      </trkpt>
      <trkpt lat="39.7720350" lon="-4.0539910">
        <ele>674.3</ele>
        <time>2019-08-12T12:00:28Z</time>
      </trkpt>
      <trkpt lat="39.7720630" lon="-4.0540530">
        <ele>674.3</ele>
        <time>2019-08-12T12:00:29Z</time>
      </trkpt>
      <trkpt lat="39.7720900" lon="-4.0541170">
        <ele>674.2</ele>
        <time>2019-08-12T12:00:30Z</time>
      </trkpt>
      <trkpt lat="39.7721170" lon="-4.0541820">
        <ele>674.2</ele>
        <time>2019-08-12T12:00:31Z</time>
      </trkpt>
      <trkpt lat="39.7721430" lon="-4.0542490">
        <ele>674.2</ele>
        <time>2019-08-12T12:00:32Z</time>
      </trkpt>
      <trkpt lat="39.7721690" lon="-4.0543180">
        <ele>674.1</ele>
        <time>2019-08-12T12:00:33Z</time>
      </trkpt>
      <trkpt lat="39.7721930" lon="-4.0543880">
        <ele>674.1</ele>
        <time>2019-08-12T12:00:34Z</time>
      </trkpt>
      <trkpt lat="39.7722160" lon="-4.0544590">
        <ele>674.1</ele>
        <time>2019-08-12T12:00:35Z</time>
      </trkpt>
      <trkpt lat="39.7722400" lon="-4.0545300">
        <ele>674.0</ele>
        <time>2019-08-12T12:00:36Z</time>
      </trkpt>
      <trkpt lat="39.7722630" lon="-4.0546010">
        <ele>674.0</ele>
        <time>2019-08-12T12:00:37Z</time>
      </trkpt>
      <trkpt lat="39.7722880" lon="-4.0546690">
        <ele>673.9</ele>
        <time>2019-08-12T12:00:38Z</time>
      </trkpt>
      <trkpt lat="39.7723140" lon="-4.0547350">
        <ele>673.9</ele>
        <time>2019-08-12T12:00:39Z</time>
      </trkpt>
      <trkpt lat="39.7723410" lon="-4.0548000">
        <ele>673.9</ele>
        <time>2019-08-12T12:00:40Z</time>
      </trkpt>
      <trkpt lat="39.7723690" lon="-4.0548630">
        <ele>673.9</ele>
        <time>2019-08-12T12:00:41Z</time>
      </trkpt>
      <trkpt lat="39.7723970" lon="-4.0549240">
        <ele>673.9</ele>
        <time>2019-08-12T12:00:42Z</time>
      </trkpt>
      <trkpt lat="39.7724260" lon="-4.0549840">
        <ele>673.9</ele>
        <time>2019-08-12T12:00:43Z</time>
      </trkpt>
      <trkpt lat="39.7724550" lon="-4.0550420">
        <ele>673.9</ele>
        <time>2019-08-12T12:00:44Z</time>
      </trkpt>
      <trkpt lat="39.7724850" lon="-4.0550990">
        <ele>673.9</ele>
        <time>2019-08-12T12:00:45Z</time>
      </trkpt>
      <trkpt lat="39.7725140" lon="-4.0551550">
        <ele>674.0</ele>
        <time>2019-08-12T12:00:46Z</time>
      </trkpt>
      <trkpt lat="39.7725440" lon="-4.0552110">
        <ele>674.0</ele>
        <time>2019-08-12T12:00:47Z</time>
      </trkpt>
      <trkpt lat="39.7725740" lon="-4.0552650">
        <ele>673.9</ele>
        <time>2019-08-12T12:00:48Z</time>
      </trkpt>
      <trkpt lat="39.7726040" lon="-4.0553190">
        <ele>673.9</ele>
        <time>2019-08-12T12:00:49Z</time>
      </trkpt>
      <trkpt lat="39.7726340" lon="-4.0553730">
        <ele>673.9</ele>
        <time>2019-08-12T12:00:50Z</time>
      </trkpt>
      <trkpt lat="39.7726640" lon="-4.0554270">
        <ele>673.8</ele>
        <time>2019-08-12T12:00:51Z</time>
      </trkpt>
      <trkpt lat="39.7726950" lon="-4.0554820">
        <ele>673.7</ele>
        <time>2019-08-12T12:00:52Z</time>
      </trkpt>
      <trkpt lat="39.7727250" lon="-4.0555380">
        <ele>673.5</ele>
        <time>2019-08-12T12:00:53Z</time>
      </trkpt>
      <trkpt lat="39.7727560" lon="-4.0555950">
        <ele>673.4</ele>
        <time>2019-08-12T12:00:54Z</time>
      </trkpt>
      <trkpt lat="39.7727870" lon="-4.0556530">
        <ele>673.3</ele>
        <time>2019-08-12T12:00:55Z</time>
      </trkpt>
      <trkpt lat="39.7728190" lon="-4.0557130">
        <ele>673.1</ele>
        <time>2019-08-12T12:00:56Z</time>
      </trkpt>
      <trkpt lat="39.7728500" lon="-4.0557740">
        <ele>672.9</ele>
        <time>2019-08-12T12:00:57Z</time>
      </trkpt>
      <trkpt lat="39.7728820" lon="-4.0558380">
        <ele>672.7</ele>
        <time>2019-08-12T12:00:58Z</time>
      </trkpt>
      <trkpt lat="39.7729140" lon="-4.0559020">
        <ele>672.5</ele>
        <time>2019-08-12T12:00:59Z</time>
      </trkpt>
      <trkpt lat="39.7729460" lon="-4.0559680">
        <ele>672.4</ele>
        <time>2019-08-12T12:01:00Z</time>
      </trkpt>
      <trkpt lat="39.7729790" lon="-4.0560350">
        <ele>672.2</ele>
        <time>2019-08-12T12:01:01Z</time>
      </trkpt>
      <trkpt lat="39.7730120" lon="-4.0561030">
        <ele>672.0</ele>
        <time>2019-08-12T12:01:02Z</time>
      </trkpt>
      <trkpt lat="39.7730440" lon="-4.0561710">
        <ele>671.7</ele>
        <time>2019-08-12T12:01:03Z</time>
      </trkpt>
      <trkpt lat="39.7730780" lon="-4.0562410">
        <ele>671.5</ele>
        <time>2019-08-12T12:01:04Z</time>
      </trkpt>
      <trkpt lat="39.7731110" lon="-4.0563110">
        <ele>671.3</ele>
        <time>2019-08-12T12:01:05Z</time>
      </trkpt>
      <trkpt lat="39.7731450" lon="-4.0563820">
        <ele>671.0</ele>
        <time>2019-08-12T12:01:06Z</time>
      </trkpt>
      <trkpt lat="39.7731790" lon="-4.0564530">
        <ele>670.8</ele>
        <time>2019-08-12T12:01:07Z</time>
      </trkpt>
      <trkpt lat="39.7732130" lon="-4.0565250">
        <ele>670.6</ele>
        <time>2019-08-12T12:01:08Z</time>
      </trkpt>
      <trkpt lat="39.7732490" lon="-4.0565970">
        <ele>670.4</ele>
        <time>2019-08-12T12:01:09Z</time>
      </trkpt>
      <trkpt lat="39.7732850" lon="-4.0566690">
        <ele>670.2</ele>
        <time>2019-08-12T12:01:10Z</time>
      </trkpt>
      <trkpt lat="39.7733220" lon="-4.0567420">
        <ele>669.9</ele>
        <time>2019-08-12T12:01:11Z</time>
      </trkpt>
      <trkpt lat="39.7733590" lon="-4.0568150">
        <ele>669.7</ele>
        <time>2019-08-12T12:01:12Z</time>
      </trkpt>
      <trkpt lat="39.7733960" lon="-4.0568890">
        <ele>669.4</ele>
        <time>2019-08-12T12:01:13Z</time>
      </trkpt>
      <trkpt lat="39.7734330" lon="-4.0569640">
        <ele>669.2</ele>
        <time>2019-08-12T12:01:14Z</time>
      </trkpt>
      <trkpt lat="39.7734700" lon="-4.0570390">
        <ele>669.0</ele>
        <time>2019-08-12T12:01:15Z</time>
      </trkpt>
      <trkpt lat="39.7735060" lon="-4.0571150">
        <ele>668.8</ele>
        <time>2019-08-12T12:01:16Z</time>
      </trkpt>
      <trkpt lat="39.7735430" lon="-4.0571910">
        <ele>668.7</ele>
        <time>2019-08-12T12:01:17Z</time>
      </trkpt>
      <trkpt lat="39.7735790" lon="-4.0572680">
        <ele>668.5</ele>
        <time>2019-08-12T12:01:18Z</time>
      </trkpt>
      <trkpt lat="39.7736150" lon="-4.0573450">
        <ele>668.3</ele>
        <time>2019-08-12T12:01:19Z</time>
      </trkpt>
      <trkpt lat="39.7736500" lon="-4.0574210">
        <ele>668.1</ele>
        <time>2019-08-12T12:01:20Z</time>
      </trkpt>
      <trkpt lat="39.7736860" lon="-4.0574980">
        <ele>668.0</ele>
        <time>2019-08-12T12:01:21Z</time>
      </trkpt>
      <trkpt lat="39.7737220" lon="-4.0575740">
        <ele>667.9</ele>
        <time>2019-08-12T12:01:22Z</time>
      </trkpt>
      <trkpt lat="39.7737570" lon="-4.0576490">
        <ele>667.8</ele>
        <time>2019-08-12T12:01:23Z</time>
      </trkpt>
      <trkpt lat="39.7737920" lon="-4.0577240">
        <ele>667.7</ele>
        <time>2019-08-12T12:01:24Z</time>
      </trkpt>
      <trkpt lat="39.7738280" lon="-4.0577980">
        <ele>667.7</ele>
        <time>2019-08-12T12:01:25Z</time>
      </trkpt>
      <trkpt lat="39.7738620" lon="-4.0578720">
        <ele>667.7</ele>
        <time>2019-08-12T12:01:26Z</time>
      </trkpt>
      <trkpt lat="39.7738970" lon="-4.0579450">
        <ele>667.7</ele>
        <time>2019-08-12T12:01:27Z</time>
      </trkpt>
      <trkpt lat="39.7739310" lon="-4.0580170">
        <ele>667.8</ele>
        <time>2019-08-12T12:01:28Z</time>
      </trkpt>
      <trkpt lat="39.7739640" lon="-4.0580880">
        <ele>667.8</ele>
        <time>2019-08-12T12:01:29Z</time>
      </trkpt>
      <trkpt lat="39.7739970" lon="-4.0581590">
        <ele>667.9</ele>
        <time>2019-08-12T12:01:30Z</time>
      </trkpt>
      <trkpt lat="39.7740290" lon="-4.0582300">
        <ele>668.1</ele>
        <time>2019-08-12T12:01:31Z</time>
      </trkpt>
      <trkpt lat="39.7740600" lon="-4.0583000">
        <ele>668.2</ele>
        <time>2019-08-12T12:01:32Z</time>
      </trkpt>
      <trkpt lat="39.7740900" lon="-4.0583690">
        <ele>668.4</ele>
        <time>2019-08-12T12:01:33Z</time>
      </trkpt>
      <trkpt lat="39.7741190" lon="-4.0584370">
        <ele>668.6</ele>
        <time>2019-08-12T12:01:34Z</time>
      </trkpt>
      <trkpt lat="39.7741460" lon="-4.0585040">
        <ele>668.7</ele>
        <time>2019-08-12T12:01:35Z</time>
      </trkpt>
      <trkpt lat="39.7741720" lon="-4.0585690">
        <ele>668.9</ele>
        <time>2019-08-12T12:01:36Z</time>
      </trkpt>
      <trkpt lat="39.7741970" lon="-4.0586330">
        <ele>669.0</ele>
        <time>2019-08-12T12:01:37Z</time>
      </trkpt>
      <trkpt lat="39.7742200" lon="-4.0586950">
        <ele>669.1</ele>
        <time>2019-08-12T12:01:38Z</time>
      </trkpt>
      <trkpt lat="39.7742410" lon="-4.0587560">
        <ele>669.1</ele>
        <time>2019-08-12T12:01:39Z</time>
      </trkpt>
      <trkpt lat="39.7742610" lon="-4.0588170">
        <ele>669.1</ele>
        <time>2019-08-12T12:01:40Z</time>
      </trkpt>
      <trkpt lat="39.7742800" lon="-4.0588810">
        <ele>669.1</ele>
        <time>2019-08-12T12:01:41Z</time>
      </trkpt>
      <trkpt lat="39.7742970" lon="-4.0589470">
        <ele>669.0</ele>
        <time>2019-08-12T12:01:42Z</time>
      </trkpt>
      <trkpt lat="39.7743130" lon="-4.0590170">
        <ele>668.9</ele>
        <time>2019-08-12T12:01:43Z</time>
      </trkpt>
      <trkpt lat="39.7743280" lon="-4.0590890">
        <ele>668.8</ele>
        <time>2019-08-12T12:01:44Z</time>
      </trkpt>
      <trkpt lat="39.7743420" lon="-4.0591630">
        <ele>668.7</ele>
        <time>2019-08-12T12:01:45Z</time>
      </trkpt>
      <trkpt lat="39.7743550" lon="-4.0592380">
        <ele>668.6</ele>
        <time>2019-08-12T12:01:46Z</time>
      </trkpt>
      <trkpt lat="39.7743670" lon="-4.0593150">
        <ele>668.4</ele>
        <time>2019-08-12T12:01:47Z</time>
      </trkpt>
      <trkpt lat="39.7743780" lon="-4.0593920">
        <ele>668.3</ele>
        <time>2019-08-12T12:01:48Z</time>
      </trkpt>
      <trkpt lat="39.7743890" lon="-4.0594680">
        <ele>668.2</ele>
        <time>2019-08-12T12:01:49Z</time>
      </trkpt>
      <trkpt lat="39.7744010" lon="-4.0595450">
        <ele>668.1</ele>
        <time>2019-08-12T12:01:50Z</time>
      </trkpt>
      <trkpt lat="39.7744130" lon="-4.0596200">
        <ele>668.1</ele>
        <time>2019-08-12T12:01:51Z</time>
      </trkpt>
      <trkpt lat="39.7744250" lon="-4.0596950">
        <ele>668.0</ele>
        <time>2019-08-12T12:01:52Z</time>
      </trkpt>
      <trkpt lat="39.7744370" lon="-4.0597680">
        <ele>667.9</ele>
        <time>2019-08-12T12:01:53Z</time>
      </trkpt>
      <trkpt lat="39.7744500" lon="-4.0598410">
        <ele>667.8</ele>
        <time>2019-08-12T12:01:54Z</time>
      </trkpt>
      <trkpt lat="39.7744630" lon="-4.0599140">
        <ele>667.7</ele>
        <time>2019-08-12T12:01:55Z</time>
      </trkpt>
      <trkpt lat="39.7744770" lon="-4.0599860">
        <ele>667.6</ele>
        <time>2019-08-12T12:01:56Z</time>
      </trkpt>
      <trkpt lat="39.7744910" lon="-4.0600570">
        <ele>667.4</ele>
        <time>2019-08-12T12:01:57Z</time>
      </trkpt>
      <trkpt lat="39.7745050" lon="-4.0601280">
        <ele>667.3</ele>
        <time>2019-08-12T12:01:58Z</time>
      </trkpt>
      <trkpt lat="39.7745190" lon="-4.0601980">
        <ele>667.1</ele>
        <time>2019-08-12T12:01:59Z</time>
      </trkpt>
      <trkpt lat="39.7745340" lon="-4.0602680">
        <ele>667.0</ele>
        <time>2019-08-12T12:02:00Z</time>
      </trkpt>
      <trkpt lat="39.7745490" lon="-4.0603380">
        <ele>666.8</ele>
        <time>2019-08-12T12:02:01Z</time>
      </trkpt>
      <trkpt lat="39.7745650" lon="-4.0604090">
        <ele>666.7</ele>
        <time>2019-08-12T12:02:02Z</time>
      </trkpt>
      <trkpt lat="39.7745800" lon="-4.0604790">
        <ele>666.5</ele>
        <time>2019-08-12T12:02:03Z</time>
      </trkpt>
      <trkpt lat="39.7745950" lon="-4.0605500">
        <ele>666.4</ele>
        <time>2019-08-12T12:02:04Z</time>
      </trkpt>
      <trkpt lat="39.7746100" lon="-4.0606220">
        <ele>666.2</ele>
        <time>2019-08-12T12:02:05Z</time>
      </trkpt>
      <trkpt lat="39.7746240" lon="-4.0606950">
        <ele>666.0</ele>
        <time>2019-08-12T12:02:06Z</time>
      </trkpt>
      <trkpt lat="39.7746380" lon="-4.0607700">
        <ele>665.8</ele>
        <time>2019-08-12T12:02:07Z</time>
      </trkpt>
      <trkpt lat="39.7746510" lon="-4.0608470">
        <ele>665.6</ele>
        <time>2019-08-12T12:02:08Z</time>
      </trkpt>
      <trkpt lat="39.7746630" lon="-4.0609250">
        <ele>665.4</ele>
        <time>2019-08-12T12:02:09Z</time>
      </trkpt>
      <trkpt lat="39.7746740" lon="-4.0610060">
        <ele>665.1</ele>
        <time>2019-08-12T12:02:10Z</time>
      </trkpt>
      <trkpt lat="39.7746840" lon="-4.0610890">
        <ele>664.9</ele>
        <time>2019-08-12T12:02:11Z</time>
      </trkpt>
      <trkpt lat="39.7746940" lon="-4.0611730">
        <ele>664.6</ele>
        <time>2019-08-12T12:02:12Z</time>
      </trkpt>
      <trkpt lat="39.7747040" lon="-4.0612590">
        <ele>664.3</ele>
        <time>2019-08-12T12:02:13Z</time>
      </trkpt>
      <trkpt lat="39.7747140" lon="-4.0613450">
        <ele>664.0</ele>
        <time>2019-08-12T12:02:14Z</time>
      </trkpt>
      <trkpt lat="39.7747250" lon="-4.0614320">
        <ele>663.8</ele>
        <time>2019-08-12T12:02:15Z</time>
      </trkpt>
      <trkpt lat="39.7747370" lon="-4.0615190">
        <ele>663.5</ele>
        <time>2019-08-12T12:02:16Z</time>
      </trkpt>
      <trkpt lat="39.7747510" lon="-4.0616060">
        <ele>663.3</ele>
        <time>2019-08-12T12:02:17Z</time>
      </trkpt>
      <trkpt lat="39.7747660" lon="-4.0616930">
        <ele>663.1</ele>
        <time>2019-08-12T12:02:18Z</time>
      </trkpt>
      <trkpt lat="39.7747830" lon="-4.0617790">
        <ele>662.9</ele>
        <time>2019-08-12T12:02:19Z</time>
      </trkpt>
      <trkpt lat="39.7748020" lon="-4.0618630">
        <ele>662.6</ele>
        <time>2019-08-12T12:02:20Z</time>
      </trkpt>
      <trkpt lat="39.7748240" lon="-4.0619480">
        <ele>662.3</ele>
        <time>2019-08-12T12:02:21Z</time>
      </trkpt>
      <trkpt lat="39.7748470" lon="-4.0620310">
        <ele>662.0</ele>
        <time>2019-08-12T12:02:22Z</time>
      </trkpt>
      <trkpt lat="39.7748710" lon="-4.0621140">
        <ele>661.7</ele>
        <time>2019-08-12T12:02:23Z</time>
      </trkpt>
      <trkpt lat="39.7748980" lon="-4.0621960">
        <ele>661.3</ele>
        <time>2019-08-12T12:02:24Z</time>
      </trkpt>
      <trkpt lat="39.7749250" lon="-4.0622780">
        <ele>660.9</ele>
        <time>2019-08-12T12:02:25Z</time>
      </trkpt>
      <trkpt lat="39.7749540" lon="-4.0623590">
        <ele>660.6</ele>
        <time>2019-08-12T12:02:26Z</time>
      </trkpt>
      <trkpt lat="39.7749850" lon="-4.0624400">
        <ele>660.1</ele>
        <time>2019-08-12T12:02:27Z</time>
      </trkpt>
      <trkpt lat="39.7750170" lon="-4.0625210">
        <ele>659.6</ele>
        <time>2019-08-12T12:02:28Z</time>
      </trkpt>
      <trkpt lat="39.7750510" lon="-4.0626010">
        <ele>659.2</ele>
        <time>2019-08-12T12:02:29Z</time>
      </trkpt>
      <trkpt lat="39.7750880" lon="-4.0626780">
        <ele>658.8</ele>
        <time>2019-08-12T12:02:30Z</time>
      </trkpt>
      <trkpt lat="39.7751290" lon="-4.0627520">
        <ele>658.5</ele>
        <time>2019-08-12T12:02:31Z</time>
      </trkpt>
      <trkpt lat="39.7751760" lon="-4.0628210">
        <ele>658.3</ele>
        <time>2019-08-12T12:02:32Z</time>
      </trkpt>
      <trkpt lat="39.7752280" lon="-4.0628860">
        <ele>658.0</ele>
        <time>2019-08-12T12:02:33Z</time>
      </trkpt>
      <trkpt lat="39.7752850" lon="-4.0629460">
        <ele>657.8</ele>
        <time>2019-08-12T12:02:34Z</time>
      </trkpt>
      <trkpt lat="39.7753460" lon="-4.0630010">
        <ele>657.5</ele>
        <time>2019-08-12T12:02:35Z</time>
      </trkpt>
      <trkpt lat="39.7754080" lon="-4.0630520">
        <ele>657.2</ele>
        <time>2019-08-12T12:02:36Z</time>
      </trkpt>
      <trkpt lat="39.7754710" lon="-4.0630990">
        <ele>656.9</ele>
        <time>2019-08-12T12:02:37Z</time>
      </trkpt>
      <trkpt lat="39.7755330" lon="-4.0631430">
        <ele>656.7</ele>
        <time>2019-08-12T12:02:38Z</time>
      </trkpt>
      <trkpt lat="39.7755940" lon="-4.0631850">
        <ele>656.5</ele>
        <time>2019-08-12T12:02:39Z</time>
      </trkpt>
      <trkpt lat="39.7756550" lon="-4.0632260">
        <ele>656.3</ele>
        <time>2019-08-12T12:02:40Z</time>
      </trkpt>
      <trkpt lat="39.7757170" lon="-4.0632690">
        <ele>656.2</ele>
        <time>2019-08-12T12:02:41Z</time>
      </trkpt>
      <trkpt lat="39.7757780" lon="-4.0633130">
        <ele>656.0</ele>
        <time>2019-08-12T12:02:42Z</time>
      </trkpt>
      <trkpt lat="39.7758410" lon="-4.0633610">
        <ele>655.8</ele>
        <time>2019-08-12T12:02:43Z</time>
      </trkpt>
      <trkpt lat="39.7759020" lon="-4.0634090">
        <ele>655.5</ele>
        <time>2019-08-12T12:02:44Z</time>
      </trkpt>
      <trkpt lat="39.7759570" lon="-4.0634530">
        <ele>655.2</ele>
        <time>2019-08-12T12:02:45Z</time>
      </trkpt>
      <trkpt lat="39.7760050" lon="-4.0634910">
        <ele>654.9</ele>
        <time>2019-08-12T12:02:46Z</time>
      </trkpt>
      <trkpt lat="39.7760460" lon="-4.0635240">
        <ele>654.6</ele>
        <time>2019-08-12T12:02:47Z</time>
      </trkpt>
      <trkpt lat="39.7761080" lon="-4.0635810">
        <ele>654.2</ele>
        <time>2019-08-12T12:02:48Z</time>
      </trkpt>
      <trkpt lat="39.7762220" lon="-4.0636960">
        <ele>653.3</ele>
        <time>2019-08-12T12:02:49Z</time>
      </trkpt>
      <trkpt lat="39.7763610" lon="-4.0638420">
        <ele>652.5</ele>
        <time>2019-08-12T12:02:50Z</time>
      </trkpt>
      <trkpt lat="39.7763720" lon="-4.0638570">
        <ele>652.4</ele>
        <time>2019-08-12T12:03:45Z</time>
      </trkpt>
      <trkpt lat="39.7763880" lon="-4.0638840">
        <ele>652.3</ele>
        <time>2019-08-12T12:03:46Z</time>
      </trkpt>
      <trkpt lat="39.7764020" lon="-4.0639110">
        <ele>652.2</ele>
        <time>2019-08-12T12:03:47Z</time>
      </trkpt>
      <trkpt lat="39.7764190" lon="-4.0639450">
        <ele>652.1</ele>
        <time>2019-08-12T12:03:48Z</time>
      </trkpt>
      <trkpt lat="39.7764420" lon="-4.0639870">
        <ele>652.0</ele>
        <time>2019-08-12T12:03:49Z</time>
      </trkpt>
      <trkpt lat="39.7764690" lon="-4.0640300">
        <ele>651.8</ele>
        <time>2019-08-12T12:03:50Z</time>
      </trkpt>
      <trkpt lat="39.7764980" lon="-4.0640730">
        <ele>651.6</ele>
        <time>2019-08-12T12:03:51Z</time>
      </trkpt>
      <trkpt lat="39.7765300" lon="-4.0641170">
        <ele>651.5</ele>
        <time>2019-08-12T12:03:52Z</time>
      </trkpt>
      <trkpt lat="39.7765630" lon="-4.0641620">
        <ele>651.4</ele>
        <time>2019-08-12T12:03:53Z</time>
      </trkpt>
      <trkpt lat="39.7765980" lon="-4.0642090">
        <ele>651.2</ele>
        <time>2019-08-12T12:03:54Z</time>
      </trkpt>
      <trkpt lat="39.7766560" lon="-4.0642970">
        <ele>651.2</ele>
        <time>2019-08-12T12:03:55Z</time>
      </trkpt>
      <trkpt lat="39.7766800" lon="-4.0643340">
        <ele>651.1</ele>
        <time>2019-08-12T12:03:56Z</time>
      </trkpt>
      <trkpt lat="39.7767030" lon="-4.0643720">
        <ele>651.1</ele>
        <time>2019-08-12T12:03:57Z</time>
      </trkpt>
      <trkpt lat="39.7767380" lon="-4.0644360">
        <ele>651.0</ele>
        <time>2019-08-12T12:03:58Z</time>
      </trkpt>
      <trkpt lat="39.7767710" lon="-4.0645050">
        <ele>650.8</ele>
        <time>2019-08-12T12:03:59Z</time>
      </trkpt>
      <trkpt lat="39.7768240" lon="-4.0646240">
        <ele>650.5</ele>
        <time>2019-08-12T12:04:00Z</time>
      </trkpt>
      <trkpt lat="39.7768460" lon="-4.0646720">
        <ele>650.3</ele>
        <time>2019-08-12T12:04:01Z</time>
      </trkpt>
      <trkpt lat="39.7768670" lon="-4.0647190">
        <ele>650.2</ele>
        <time>2019-08-12T12:04:02Z</time>
      </trkpt>
      <trkpt lat="39.7768990" lon="-4.0647830">
        <ele>650.0</ele>
        <time>2019-08-12T12:04:03Z</time>
      </trkpt>
      <trkpt lat="39.7769330" lon="-4.0648390">
        <ele>649.8</ele>
        <time>2019-08-12T12:04:04Z</time>
      </trkpt>
      <trkpt lat="39.7769940" lon="-4.0649020">
        <ele>649.7</ele>
        <time>2019-08-12T12:04:05Z</time>
      </trkpt>
      <trkpt lat="39.7770210" lon="-4.0649200">
        <ele>649.6</ele>
        <time>2019-08-12T12:04:06Z</time>
      </trkpt>
      <trkpt lat="39.7770470" lon="-4.0649380">
        <ele>649.6</ele>
        <time>2019-08-12T12:04:07Z</time>
      </trkpt>
      <trkpt lat="39.7770910" lon="-4.0649430">
        <ele>649.4</ele>
        <time>2019-08-12T12:04:08Z</time>
      </trkpt>
      <trkpt lat="39.7771410" lon="-4.0649330">
        <ele>649.4</ele>
        <time>2019-08-12T12:04:09Z</time>
      </trkpt>
      <trkpt lat="39.7771930" lon="-4.0649120">
        <ele>649.4</ele>
        <time>2019-08-12T12:04:10Z</time>
      </trkpt>
      <trkpt lat="39.7772470" lon="-4.0648850">
        <ele>649.4</ele>
        <time>2019-08-12T12:04:11Z</time>
      </trkpt>
      <trkpt lat="39.7773020" lon="-4.0648560">
        <ele>649.5</ele>
        <time>2019-08-12T12:04:12Z</time>
      </trkpt>
      <trkpt lat="39.7773550" lon="-4.0648310">
        <ele>649.4</ele>
        <time>2019-08-12T12:04:13Z</time>
      </trkpt>
      <trkpt lat="39.7774070" lon="-4.0648140">
        <ele>649.3</ele>
        <time>2019-08-12T12:04:14Z</time>
      </trkpt>
      <trkpt lat="39.7774570" lon="-4.0648030">
        <ele>649.2</ele>
        <time>2019-08-12T12:04:15Z</time>
      </trkpt>
      <trkpt lat="39.7775080" lon="-4.0647930">
        <ele>648.9</ele>
        <time>2019-08-12T12:04:16Z</time>
      </trkpt>
      <trkpt lat="39.7775600" lon="-4.0647830">
        <ele>648.6</ele>
        <time>2019-08-12T12:04:17Z</time>
      </trkpt>
      <trkpt lat="39.7776150" lon="-4.0647680">
        <ele>648.3</ele>
        <time>2019-08-12T12:04:18Z</time>
      </trkpt>
      <trkpt lat="39.7776720" lon="-4.0647490">
        <ele>648.0</ele>
        <time>2019-08-12T12:04:19Z</time>
      </trkpt>
      <trkpt lat="39.7777310" lon="-4.0647260">
        <ele>647.7</ele>
        <time>2019-08-12T12:04:20Z</time>
      </trkpt>
      <trkpt lat="39.7777900" lon="-4.0646970">
        <ele>647.4</ele>
        <time>2019-08-12T12:04:21Z</time>
      </trkpt>
      <trkpt lat="39.7778500" lon="-4.0646640">
        <ele>647.1</ele>
        <time>2019-08-12T12:04:22Z</time>
      </trkpt>
      <trkpt lat="39.7779090" lon="-4.0646260">
        <ele>646.9</ele>
        <time>2019-08-12T12:04:23Z</time>
      </trkpt>
      <trkpt lat="39.7779680" lon="-4.0645860">
        <ele>646.7</ele>
        <time>2019-08-12T12:04:24Z</time>
      </trkpt>
      <trkpt lat="39.7780260" lon="-4.0645440">
        <ele>646.6</ele>
        <time>2019-08-12T12:04:25Z</time>
      </trkpt>
      <trkpt lat="39.7780830" lon="-4.0645040">
        <ele>646.4</ele>
        <time>2019-08-12T12:04:26Z</time>
      </trkpt>
      <trkpt lat="39.7781410" lon="-4.0644670">
        <ele>646.3</ele>
        <time>2019-08-12T12:04:27Z</time>
      </trkpt>
      <trkpt lat="39.7781970" lon="-4.0644330">
        <ele>646.4</ele>
        <time>2019-08-12T12:04:28Z</time>
      </trkpt>
      <trkpt lat="39.7782540" lon="-4.0644020">
        <ele>646.4</ele>
        <time>2019-08-12T12:04:29Z</time>
      </trkpt>
      <trkpt lat="39.7783110" lon="-4.0643740">
        <ele>646.4</ele>
        <time>2019-08-12T12:04:30Z</time>
      </trkpt>
      <trkpt lat="39.7783670" lon="-4.0643480">
        <ele>646.4</ele>
        <time>2019-08-12T12:04:31Z</time>
      </trkpt>
      <trkpt lat="39.7784240" lon="-4.0643250">
        <ele>646.5</ele>
        <time>2019-08-12T12:04:32Z</time>
      </trkpt>
      <trkpt lat="39.7784810" lon="-4.0643040">
        <ele>646.5</ele>
        <time>2019-08-12T12:04:33Z</time>
      </trkpt>
      <trkpt lat="39.7785380" lon="-4.0642860">
        <ele>646.6</ele>
        <time>2019-08-12T12:04:34Z</time>
      </trkpt>
      <trkpt lat="39.7785960" lon="-4.0642690">
        <ele>646.7</ele>
        <time>2019-08-12T12:04:35Z</time>
      </trkpt>
      <trkpt lat="39.7786540" lon="-4.0642550">
        <ele>646.7</ele>
        <time>2019-08-12T12:04:36Z</time>
      </trkpt>
      <trkpt lat="39.7787140" lon="-4.0642410">
        <ele>646.6</ele>
        <time>2019-08-12T12:04:37Z</time>
      </trkpt>
      <trkpt lat="39.7787730" lon="-4.0642290">
        <ele>646.6</ele>
        <time>2019-08-12T12:04:38Z</time>
      </trkpt>
      <trkpt lat="39.7788340" lon="-4.0642170">
        <ele>646.7</ele>
        <time>2019-08-12T12:04:39Z</time>
      </trkpt>
      <trkpt lat="39.7788960" lon="-4.0642060">
        <ele>646.7</ele>
        <time>2019-08-12T12:04:40Z</time>
      </trkpt>
      <trkpt lat="39.7789590" lon="-4.0641950">
        <ele>646.8</ele>
        <time>2019-08-12T12:04:41Z</time>
      </trkpt>
      <trkpt lat="39.7790220" lon="-4.0641840">
        <ele>646.8</ele>
        <time>2019-08-12T12:04:42Z</time>
      </trkpt>
      <trkpt lat="39.7790860" lon="-4.0641730">
        <ele>646.9</ele>
        <time>2019-08-12T12:04:43Z</time>
      </trkpt>
      <trkpt lat="39.7791500" lon="-4.0641620">
        <ele>647.0</ele>
        <time>2019-08-12T12:04:44Z</time>
      </trkpt>
      <trkpt lat="39.7792120" lon="-4.0641520">
        <ele>647.0</ele>
        <time>2019-08-12T12:04:45Z</time>
      </trkpt>
      <trkpt lat="39.7792740" lon="-4.0641410">
        <ele>647.0</ele>
        <time>2019-08-12T12:04:46Z</time>
      </trkpt>
      <trkpt lat="39.7793340" lon="-4.0641310">
        <ele>647.1</ele>
        <time>2019-08-12T12:04:47Z</time>
      </trkpt>
      <trkpt lat="39.7793950" lon="-4.0641210">
        <ele>647.1</ele>
        <time>2019-08-12T12:04:48Z</time>
      </trkpt>
      <trkpt lat="39.7794550" lon="-4.0641100">
        <ele>647.1</ele>
        <time>2019-08-12T12:04:49Z</time>
      </trkpt>
      <trkpt lat="39.7795160" lon="-4.0641000">
        <ele>647.1</ele>
        <time>2019-08-12T12:04:50Z</time>
      </trkpt>
      <trkpt lat="39.7795770" lon="-4.0640890">
        <ele>647.0</ele>
        <time>2019-08-12T12:04:51Z</time>
      </trkpt>
      <trkpt lat="39.7796390" lon="-4.0640770">
        <ele>647.0</ele>
        <time>2019-08-12T12:04:52Z</time>
      </trkpt>
      <trkpt lat="39.7797000" lon="-4.0640660">
        <ele>647.0</ele>
        <time>2019-08-12T12:04:53Z</time>
      </trkpt>
      <trkpt lat="39.7797620" lon="-4.0640550">
        <ele>647.0</ele>
        <time>2019-08-12T12:04:54Z</time>
      </trkpt>
      <trkpt lat="39.7798220" lon="-4.0640450">
        <ele>647.0</ele>
        <time>2019-08-12T12:04:55Z</time>
      </trkpt>
      <trkpt lat="39.7798820" lon="-4.0640350">
        <ele>647.0</ele>
        <time>2019-08-12T12:04:56Z</time>
      </trkpt>
      <trkpt lat="39.7799420" lon="-4.0640250">
        <ele>647.1</ele>
        <time>2019-08-12T12:04:57Z</time>
      </trkpt>
      <trkpt lat="39.7800410" lon="-4.0640100">
        <ele>647.1</ele>
        <time>2019-08-12T12:04:58Z</time>
      </trkpt>
      <trkpt lat="39.7800800" lon="-4.0640040">
        <ele>647.2</ele>
        <time>2019-08-12T12:04:59Z</time>
      </trkpt>
      <trkpt lat="39.7801200" lon="-4.0639980">
        <ele>647.2</ele>
        <time>2019-08-12T12:05:00Z</time>
      </trkpt>
      <trkpt lat="39.7801790" lon="-4.0639890">
        <ele>647.3</ele>
        <time>2019-08-12T12:05:01Z</time>
      </trkpt>
      <trkpt lat="39.7802390" lon="-4.0639810">
        <ele>647.4</ele>
        <time>2019-08-12T12:05:02Z</time>
      </trkpt>
      <trkpt lat="39.7803400" lon="-4.0639660">
        <ele>647.5</ele>
        <time>2019-08-12T12:05:03Z</time>
      </trkpt>
      <trkpt lat="39.7803810" lon="-4.0639600">
        <ele>647.5</ele>
        <time>2019-08-12T12:05:04Z</time>
      </trkpt>
      <trkpt lat="39.7804220" lon="-4.0639540">
        <ele>647.6</ele>
        <time>2019-08-12T12:05:05Z</time>
      </trkpt>
      <trkpt lat="39.7804840" lon="-4.0639450">
        <ele>647.6</ele>
        <time>2019-08-12T12:05:06Z</time>
      </trkpt>
      <trkpt lat="39.7805460" lon="-4.0639360">
        <ele>647.7</ele>
        <time>2019-08-12T12:05:07Z</time>
      </trkpt>
      <trkpt lat="39.7806090" lon="-4.0639280">
        <ele>647.8</ele>
        <time>2019-08-12T12:05:08Z</time>
      </trkpt>
      <trkpt lat="39.7806720" lon="-4.0639190">
        <ele>647.8</ele>
        <time>2019-08-12T12:05:09Z</time>
      </trkpt>
      <trkpt lat="39.7807350" lon="-4.0639110">
        <ele>647.9</ele>
        <time>2019-08-12T12:05:10Z</time>
      </trkpt>
      <trkpt lat="39.7807980" lon="-4.0639030">
        <ele>648.1</ele>
        <time>2019-08-12T12:05:11Z</time>
      </trkpt>
      <trkpt lat="39.7808610" lon="-4.0638950">
        <ele>648.2</ele>
        <time>2019-08-12T12:05:12Z</time>
      </trkpt>
      <trkpt lat="39.7809230" lon="-4.0638880">
        <ele>648.4</ele>
        <time>2019-08-12T12:05:13Z</time>
      </trkpt>
      <trkpt lat="39.7809850" lon="-4.0638810">
        <ele>648.6</ele>
        <time>2019-08-12T12:05:14Z</time>
      </trkpt>
      <trkpt lat="39.7810480" lon="-4.0638730">
        <ele>648.8</ele>
        <time>2019-08-12T12:05:15Z</time>
      </trkpt>
      <trkpt lat="39.7811100" lon="-4.0638660">
        <ele>649.0</ele>
        <time>2019-08-12T12:05:16Z</time>
      </trkpt>
      <trkpt lat="39.7811720" lon="-4.0638570">
        <ele>649.3</ele>
        <time>2019-08-12T12:05:17Z</time>
      </trkpt>
      <trkpt lat="39.7812330" lon="-4.0638480">
        <ele>649.6</ele>
        <time>2019-08-12T12:05:18Z</time>
      </trkpt>
      <trkpt lat="39.7812950" lon="-4.0638390">
        <ele>649.9</ele>
        <time>2019-08-12T12:05:19Z</time>
      </trkpt>
      <trkpt lat="39.7813550" lon="-4.0638280">
        <ele>650.2</ele>
        <time>2019-08-12T12:05:20Z</time>
      </trkpt>
      <trkpt lat="39.7814150" lon="-4.0638180">
        <ele>650.5</ele>
        <time>2019-08-12T12:05:21Z</time>
      </trkpt>
      <trkpt lat="39.7814730" lon="-4.0638070">
        <ele>650.7</ele>
        <time>2019-08-12T12:05:22Z</time>
      </trkpt>
      <trkpt lat="39.7815300" lon="-4.0637970">
        <ele>650.9</ele>
        <time>2019-08-12T12:05:23Z</time>
      </trkpt>
      <trkpt lat="39.7815860" lon="-4.0637860">
        <ele>651.1</ele>
        <time>2019-08-12T12:05:24Z</time>
      </trkpt>
      <trkpt lat="39.7816400" lon="-4.0637750">
        <ele>651.2</ele>
        <time>2019-08-12T12:05:25Z</time>
      </trkpt>
      <trkpt lat="39.7816930" lon="-4.0637650">
        <ele>651.4</ele>
        <time>2019-08-12T12:05:26Z</time>
      </trkpt>
      <trkpt lat="39.7817460" lon="-4.0637550">
        <ele>651.5</ele>
        <time>2019-08-12T12:05:27Z</time>
      </trkpt>
      <trkpt lat="39.7817980" lon="-4.0637450">
        <ele>651.6</ele>
        <time>2019-08-12T12:05:28Z</time>
      </trkpt>
      <trkpt lat="39.7818500" lon="-4.0637360">
        <ele>651.8</ele>
        <time>2019-08-12T12:05:29Z</time>
      </trkpt>
      <trkpt lat="39.7819020" lon="-4.0637260">
        <ele>651.9</ele>
        <time>2019-08-12T12:05:30Z</time>
      </trkpt>
      <trkpt lat="39.7819530" lon="-4.0637180">
        <ele>652.1</ele>
        <time>2019-08-12T12:05:31Z</time>
      </trkpt>
      <trkpt lat="39.7820050" lon="-4.0637100">
        <ele>652.2</ele>
        <time>2019-08-12T12:05:32Z</time>
      </trkpt>
      <trkpt lat="39.7820570" lon="-4.0637020">
        <ele>652.4</ele>
        <time>2019-08-12T12:05:33Z</time>
      </trkpt>
      <trkpt lat="39.7821100" lon="-4.0636950">
        <ele>652.5</ele>
        <time>2019-08-12T12:05:34Z</time>
      </trkpt>
      <trkpt lat="39.7821620" lon="-4.0636880">
        <ele>652.6</ele>
        <time>2019-08-12T12:05:35Z</time>
      </trkpt>
      <trkpt lat="39.7822150" lon="-4.0636810">
        <ele>652.8</ele>
        <time>2019-08-12T12:05:36Z</time>
      </trkpt>
      <trkpt lat="39.7822680" lon="-4.0636750">
        <ele>652.9</ele>
        <time>2019-08-12T12:05:37Z</time>
      </trkpt>
      <trkpt lat="39.7823210" lon="-4.0636690">
        <ele>653.1</ele>
        <time>2019-08-12T12:05:38Z</time>
      </trkpt>
      <trkpt lat="39.7823740" lon="-4.0636620">
        <ele>653.3</ele>
        <time>2019-08-12T12:05:39Z</time>
      </trkpt>
      <trkpt lat="39.7824280" lon="-4.0636560">
        <ele>653.5</ele>
        <time>2019-08-12T12:05:40Z</time>
      </trkpt>
      <trkpt lat="39.7824810" lon="-4.0636500">
        <ele>653.6</ele>
        <time>2019-08-12T12:05:41Z</time>
      </trkpt>
      <trkpt lat="39.7825340" lon="-4.0636440">
        <ele>653.8</ele>
        <time>2019-08-12T12:05:42Z</time>
      </trkpt>
      <trkpt lat="39.7825880" lon="-4.0636370">
        <ele>654.0</ele>
        <time>2019-08-12T12:05:43Z</time>
      </trkpt>
      <trkpt lat="39.7826410" lon="-4.0636300">
        <ele>654.1</ele>
        <time>2019-08-12T12:05:44Z</time>
      </trkpt>
      <trkpt lat="39.7826950" lon="-4.0636230">
        <ele>654.2</ele>
        <time>2019-08-12T12:05:45Z</time>
      </trkpt>
      <trkpt lat="39.7827480" lon="-4.0636160">
        <ele>654.3</ele>
        <time>2019-08-12T12:05:46Z</time>
      </trkpt>
      <trkpt lat="39.7828020" lon="-4.0636080">
        <ele>654.4</ele>
        <time>2019-08-12T12:05:47Z</time>
      </trkpt>
      <trkpt lat="39.7828550" lon="-4.0635990">
        <ele>654.5</ele>
        <time>2019-08-12T12:05:48Z</time>
      </trkpt>
      <trkpt lat="39.7829080" lon="-4.0635900">
        <ele>654.6</ele>
        <time>2019-08-12T12:05:49Z</time>
      </trkpt>
      <trkpt lat="39.7829610" lon="-4.0635810">
        <ele>654.7</ele>
        <time>2019-08-12T12:05:50Z</time>
      </trkpt>
      <trkpt lat="39.7830140" lon="-4.0635700">
        <ele>654.7</ele>
        <time>2019-08-12T12:05:51Z</time>
      </trkpt>
      <trkpt lat="39.7830670" lon="-4.0635600">
        <ele>654.8</ele>
        <time>2019-08-12T12:05:52Z</time>
      </trkpt>
      <trkpt lat="39.7831210" lon="-4.0635480">
        <ele>654.9</ele>
        <time>2019-08-12T12:05:53Z</time>
      </trkpt>
      <trkpt lat="39.7831740" lon="-4.0635360">
        <ele>654.9</ele>
        <time>2019-08-12T12:05:54Z</time>
      </trkpt>
      <trkpt lat="39.7832270" lon="-4.0635240">
        <ele>655.0</ele>
        <time>2019-08-12T12:05:55Z</time>
      </trkpt>
      <trkpt lat="39.7832810" lon="-4.0635110">
        <ele>655.0</ele>
        <time>2019-08-12T12:05:56Z</time>
      </trkpt>
      <trkpt lat="39.7833350" lon="-4.0634970">
        <ele>655.0</ele>
        <time>2019-08-12T12:05:57Z</time>
      </trkpt>
      <trkpt lat="39.7833890" lon="-4.0634830">
        <ele>655.1</ele>
        <time>2019-08-12T12:05:58Z</time>
      </trkpt>
      <trkpt lat="39.7834440" lon="-4.0634680">
        <ele>655.1</ele>
        <time>2019-08-12T12:05:59Z</time>
      </trkpt>
      <trkpt lat="39.7834990" lon="-4.0634530">
        <ele>655.1</ele>
        <time>2019-08-12T12:06:00Z</time>
      </trkpt>
      <trkpt lat="39.7835550" lon="-4.0634380">
        <ele>655.1</ele>
        <time>2019-08-12T12:06:01Z</time>
      </trkpt>
      <trkpt lat="39.7836110" lon="-4.0634220">
        <ele>655.1</ele>
        <time>2019-08-12T12:06:02Z</time>
      </trkpt>
      <trkpt lat="39.7836660" lon="-4.0634060">
        <ele>655.1</ele>
        <time>2019-08-12T12:06:03Z</time>
      </trkpt>
      <trkpt lat="39.7837220" lon="-4.0633900">
        <ele>655.1</ele>
        <time>2019-08-12T12:06:04Z</time>
      </trkpt>
      <trkpt lat="39.7837770" lon="-4.0633740">
        <ele>655.1</ele>
        <time>2019-08-12T12:06:05Z</time>
      </trkpt>
      <trkpt lat="39.7838320" lon="-4.0633580">
        <ele>655.1</ele>
        <time>2019-08-12T12:06:06Z</time>
      </trkpt>
      <trkpt lat="39.7838860" lon="-4.0633420">
        <ele>655.1</ele>
        <time>2019-08-12T12:06:07Z</time>
      </trkpt>
      <trkpt lat="39.7839390" lon="-4.0633260">
        <ele>655.1</ele>
        <time>2019-08-12T12:06:08Z</time>
      </trkpt>
      <trkpt lat="39.7839910" lon="-4.0633100">
        <ele>655.1</ele>
        <time>2019-08-12T12:06:09Z</time>
      </trkpt>
      <trkpt lat="39.7840420" lon="-4.0632940">
        <ele>655.1</ele>
        <time>2019-08-12T12:06:10Z</time>
      </trkpt>
      <trkpt lat="39.7840930" lon="-4.0632790">
        <ele>655.2</ele>
        <time>2019-08-12T12:06:11Z</time>
      </trkpt>
      <trkpt lat="39.7841430" lon="-4.0632640">
        <ele>655.2</ele>
        <time>2019-08-12T12:06:12Z</time>
      </trkpt>
      <trkpt lat="39.7841930" lon="-4.0632490">
        <ele>655.2</ele>
        <time>2019-08-12T12:06:13Z</time>
      </trkpt>
      <trkpt lat="39.7842430" lon="-4.0632340">
        <ele>655.3</ele>
        <time>2019-08-12T12:06:14Z</time>
      </trkpt>
      <trkpt lat="39.7842930" lon="-4.0632190">
        <ele>655.3</ele>
        <time>2019-08-12T12:06:15Z</time>
      </trkpt>
      <trkpt lat="39.7843430" lon="-4.0632040">
        <ele>655.3</ele>
        <time>2019-08-12T12:06:16Z</time>
      </trkpt>
      <trkpt lat="39.7843940" lon="-4.0631890">
        <ele>655.3</ele>
        <time>2019-08-12T12:06:17Z</time>
      </trkpt>
      <trkpt lat="39.7844450" lon="-4.0631740">
        <ele>655.4</ele>
        <time>2019-08-12T12:06:18Z</time>
      </trkpt>
      <trkpt lat="39.7844970" lon="-4.0631580">
        <ele>655.4</ele>
        <time>2019-08-12T12:06:19Z</time>
      </trkpt>
      <trkpt lat="39.7845490" lon="-4.0631430">
        <ele>655.5</ele>
        <time>2019-08-12T12:06:20Z</time>
      </trkpt>
      <trkpt lat="39.7846020" lon="-4.0631280">
        <ele>655.5</ele>
        <time>2019-08-12T12:06:21Z</time>
      </trkpt>
      <trkpt lat="39.7846550" lon="-4.0631120">
        <ele>655.5</ele>
        <time>2019-08-12T12:06:22Z</time>
      </trkpt>
      <trkpt lat="39.7847090" lon="-4.0630970">
        <ele>655.6</ele>
        <time>2019-08-12T12:06:23Z</time>
      </trkpt>
      <trkpt lat="39.7847620" lon="-4.0630810">
        <ele>655.7</ele>
        <time>2019-08-12T12:06:24Z</time>
      </trkpt>
      <trkpt lat="39.7848150" lon="-4.0630650">
        <ele>655.7</ele>
        <time>2019-08-12T12:06:25Z</time>
      </trkpt>
      <trkpt lat="39.7848690" lon="-4.0630490">
        <ele>655.8</ele>
        <time>2019-08-12T12:06:26Z</time>
      </trkpt>
      <trkpt lat="39.7849220" lon="-4.0630330">
        <ele>655.9</ele>
        <time>2019-08-12T12:06:27Z</time>
      </trkpt>
      <trkpt lat="39.7849750" lon="-4.0630170">
        <ele>656.0</ele>
        <time>2019-08-12T12:06:28Z</time>
      </trkpt>
      <trkpt lat="39.7850280" lon="-4.0630000">
        <ele>656.0</ele>
        <time>2019-08-12T12:06:29Z</time>
      </trkpt>
      <trkpt lat="39.7850800" lon="-4.0629830">
        <ele>656.1</ele>
        <time>2019-08-12T12:06:30Z</time>
      </trkpt>
      <trkpt lat="39.7851330" lon="-4.0629670">
        <ele>656.1</ele>
        <time>2019-08-12T12:06:31Z</time>
      </trkpt>
      <trkpt lat="39.7851850" lon="-4.0629490">
        <ele>656.2</ele>
        <time>2019-08-12T12:06:32Z</time>
      </trkpt>
      <trkpt lat="39.7852380" lon="-4.0629320">
        <ele>656.2</ele>
        <time>2019-08-12T12:06:33Z</time>
      </trkpt>
      <trkpt lat="39.7852900" lon="-4.0629150">
        <ele>656.2</ele>
        <time>2019-08-12T12:06:34Z</time>
      </trkpt>
      <trkpt lat="39.7853420" lon="-4.0628970">
        <ele>656.2</ele>
        <time>2019-08-12T12:06:35Z</time>
      </trkpt>
      <trkpt lat="39.7853940" lon="-4.0628790">
        <ele>656.2</ele>
        <time>2019-08-12T12:06:36Z</time>
      </trkpt>
      <trkpt lat="39.7854460" lon="-4.0628600">
        <ele>656.2</ele>
        <time>2019-08-12T12:06:37Z</time>
      </trkpt>
      <trkpt lat="39.7854980" lon="-4.0628420">
        <ele>656.2</ele>
        <time>2019-08-12T12:06:38Z</time>
      </trkpt>
      <trkpt lat="39.7855500" lon="-4.0628220">
        <ele>656.2</ele>
        <time>2019-08-12T12:06:39Z</time>
      </trkpt>
      <trkpt lat="39.7856020" lon="-4.0628030">
        <ele>656.2</ele>
        <time>2019-08-12T12:06:40Z</time>
      </trkpt>
      <trkpt lat="39.7856540" lon="-4.0627830">
        <ele>656.3</ele>
        <time>2019-08-12T12:06:41Z</time>
      </trkpt>
      <trkpt lat="39.7857050" lon="-4.0627630">
        <ele>656.3</ele>
        <time>2019-08-12T12:06:42Z</time>
      </trkpt>
      <trkpt lat="39.7857570" lon="-4.0627420">
        <ele>656.3</ele>
        <time>2019-08-12T12:06:43Z</time>
      </trkpt>
      <trkpt lat="39.7858090" lon="-4.0627210">
        <ele>656.3</ele>
        <time>2019-08-12T12:06:44Z</time>
      </trkpt>
      <trkpt lat="39.7858610" lon="-4.0627000">
        <ele>656.4</ele>
        <time>2019-08-12T12:06:45Z</time>
      </trkpt>
      <trkpt lat="39.7859130" lon="-4.0626780">
        <ele>656.4</ele>
        <time>2019-08-12T12:06:46Z</time>
      </trkpt>
      <trkpt lat="39.7859640" lon="-4.0626560">
        <ele>656.5</ele>
        <time>2019-08-12T12:06:47Z</time>
      </trkpt>
      <trkpt lat="39.7860160" lon="-4.0626340">
        <ele>656.5</ele>
        <time>2019-08-12T12:06:48Z</time>
      </trkpt>
      <trkpt lat="39.7860680" lon="-4.0626110">
        <ele>656.6</ele>
        <time>2019-08-12T12:06:49Z</time>
      </trkpt>
      <trkpt lat="39.7861200" lon="-4.0625880">
        <ele>656.6</ele>
        <time>2019-08-12T12:06:50Z</time>
      </trkpt>
      <trkpt lat="39.7861710" lon="-4.0625650">
        <ele>656.7</ele>
        <time>2019-08-12T12:06:51Z</time>
      </trkpt>
      <trkpt lat="39.7862230" lon="-4.0625410">
        <ele>656.7</ele>
        <time>2019-08-12T12:06:52Z</time>
      </trkpt>
      <trkpt lat="39.7862740" lon="-4.0625180">
        <ele>656.8</ele>
        <time>2019-08-12T12:06:53Z</time>
      </trkpt>
      <trkpt lat="39.7863260" lon="-4.0624940">
        <ele>656.8</ele>
        <time>2019-08-12T12:06:54Z</time>
      </trkpt>
      <trkpt lat="39.7863770" lon="-4.0624710">
        <ele>656.9</ele>
        <time>2019-08-12T12:06:55Z</time>
      </trkpt>
      <trkpt lat="39.7864280" lon="-4.0624470">
        <ele>656.9</ele>
        <time>2019-08-12T12:06:56Z</time>
      </trkpt>
      <trkpt lat="39.7864790" lon="-4.0624230">
        <ele>657.0</ele>
        <time>2019-08-12T12:06:57Z</time>
      </trkpt>
      <trkpt lat="39.7865300" lon="-4.0624000">
        <ele>657.0</ele>
        <time>2019-08-12T12:06:58Z</time>
      </trkpt>
      <trkpt lat="39.7865810" lon="-4.0623760">
        <ele>657.1</ele>
        <time>2019-08-12T12:06:59Z</time>
      </trkpt>
      <trkpt lat="39.7866320" lon="-4.0623520">
        <ele>657.1</ele>
        <time>2019-08-12T12:07:00Z</time>
      </trkpt>
      <trkpt lat="39.7866820" lon="-4.0623280">
        <ele>657.2</ele>
        <time>2019-08-12T12:07:01Z</time>
      </trkpt>
      <trkpt lat="39.7867330" lon="-4.0623040">
        <ele>657.2</ele>
        <time>2019-08-12T12:07:02Z</time>
      </trkpt>
      <trkpt lat="39.7867830" lon="-4.0622800">
        <ele>657.2</ele>
        <time>2019-08-12T12:07:03Z</time>
      </trkpt>
      <trkpt lat="39.7868330" lon="-4.0622560">
        <ele>657.3</ele>
        <time>2019-08-12T12:07:04Z</time>
      </trkpt>
      <trkpt lat="39.7868840" lon="-4.0622320">
        <ele>657.3</ele>
        <time>2019-08-12T12:07:05Z</time>
      </trkpt>
      <trkpt lat="39.7869340" lon="-4.0622080">
        <ele>657.4</ele>
        <time>2019-08-12T12:07:06Z</time>
      </trkpt>
      <trkpt lat="39.7869830" lon="-4.0621840">
        <ele>657.4</ele>
        <time>2019-08-12T12:07:07Z</time>
      </trkpt>
      <trkpt lat="39.7870330" lon="-4.0621600">
        <ele>657.5</ele>
        <time>2019-08-12T12:07:08Z</time>
      </trkpt>
      <trkpt lat="39.7870820" lon="-4.0621360">
        <ele>657.5</ele>
        <time>2019-08-12T12:07:09Z</time>
      </trkpt>
      <trkpt lat="39.7871310" lon="-4.0621130">
        <ele>657.6</ele>
        <time>2019-08-12T12:07:10Z</time>
      </trkpt>
      <trkpt lat="39.7871800" lon="-4.0620900">
        <ele>657.6</ele>
        <time>2019-08-12T12:07:11Z</time>
      </trkpt>
      <trkpt lat="39.7872280" lon="-4.0620660">
        <ele>657.7</ele>
        <time>2019-08-12T12:07:12Z</time>
      </trkpt>
      <trkpt lat="39.7872760" lon="-4.0620430">
        <ele>657.8</ele>
        <time>2019-08-12T12:07:13Z</time>
      </trkpt>
      <trkpt lat="39.7873230" lon="-4.0620210">
        <ele>657.9</ele>
        <time>2019-08-12T12:07:14Z</time>
      </trkpt>
      <trkpt lat="39.7873700" lon="-4.0619980">
        <ele>658.0</ele>
        <time>2019-08-12T12:07:15Z</time>
      </trkpt>
      <trkpt lat="39.7874170" lon="-4.0619760">
        <ele>658.1</ele>
        <time>2019-08-12T12:07:16Z</time>
      </trkpt>
      <trkpt lat="39.7874640" lon="-4.0619540">
        <ele>658.2</ele>
        <time>2019-08-12T12:07:17Z</time>
      </trkpt>
      <trkpt lat="39.7875100" lon="-4.0619330">
        <ele>658.3</ele>
        <time>2019-08-12T12:07:18Z</time>
      </trkpt>
      <trkpt lat="39.7875560" lon="-4.0619110">
        <ele>658.5</ele>
        <time>2019-08-12T12:07:19Z</time>
      </trkpt>
      <trkpt lat="39.7876020" lon="-4.0618900">
        <ele>658.6</ele>
        <time>2019-08-12T12:07:20Z</time>
      </trkpt>
      <trkpt lat="39.7876470" lon="-4.0618690">
        <ele>658.7</ele>
        <time>2019-08-12T12:07:21Z</time>
      </trkpt>
      <trkpt lat="39.7876930" lon="-4.0618480">
        <ele>658.8</ele>
        <time>2019-08-12T12:07:22Z</time>
      </trkpt>
      <trkpt lat="39.7877380" lon="-4.0618270">
        <ele>658.8</ele>
        <time>2019-08-12T12:07:23Z</time>
      </trkpt>
      <trkpt lat="39.7877830" lon="-4.0618070">
        <ele>658.9</ele>
        <time>2019-08-12T12:07:24Z</time>
      </trkpt>
      <trkpt lat="39.7878270" lon="-4.0617870">
        <ele>659.0</ele>
        <time>2019-08-12T12:07:25Z</time>
      </trkpt>
      <trkpt lat="39.7878720" lon="-4.0617660">
        <ele>659.1</ele>
        <time>2019-08-12T12:07:26Z</time>
      </trkpt>
      <trkpt lat="39.7879160" lon="-4.0617470">
        <ele>659.2</ele>
        <time>2019-08-12T12:07:27Z</time>
      </trkpt>
      <trkpt lat="39.7879600" lon="-4.0617270">
        <ele>659.3</ele>
        <time>2019-08-12T12:07:28Z</time>
      </trkpt>
      <trkpt lat="39.7880040" lon="-4.0617070">
        <ele>659.4</ele>
        <time>2019-08-12T12:07:29Z</time>
      </trkpt>
      <trkpt lat="39.7880480" lon="-4.0616870">
        <ele>659.6</ele>
        <time>2019-08-12T12:07:30Z</time>
      </trkpt>
      <trkpt lat="39.7880910" lon="-4.0616680">
        <ele>659.7</ele>
        <time>2019-08-12T12:07:31Z</time>
      </trkpt>
      <trkpt lat="39.7881350" lon="-4.0616480">
        <ele>659.9</ele>
        <time>2019-08-12T12:07:32Z</time>
      </trkpt>
      <trkpt lat="39.7881780" lon="-4.0616290">
        <ele>660.1</ele>
        <time>2019-08-12T12:07:33Z</time>
      </trkpt>
      <trkpt lat="39.7882210" lon="-4.0616100">
        <ele>660.3</ele>
        <time>2019-08-12T12:07:34Z</time>
      </trkpt>
      <trkpt lat="39.7882630" lon="-4.0615900">
        <ele>660.5</ele>
        <time>2019-08-12T12:07:35Z</time>
      </trkpt>
      <trkpt lat="39.7883060" lon="-4.0615710">
        <ele>660.6</ele>
        <time>2019-08-12T12:07:36Z</time>
      </trkpt>
      <trkpt lat="39.7883490" lon="-4.0615520">
        <ele>660.8</ele>
        <time>2019-08-12T12:07:37Z</time>
      </trkpt>
      <trkpt lat="39.7883910" lon="-4.0615330">
        <ele>661.0</ele>
        <time>2019-08-12T12:07:38Z</time>
      </trkpt>
      <trkpt lat="39.7884330" lon="-4.0615130">
        <ele>661.1</ele>
        <time>2019-08-12T12:07:39Z</time>
      </trkpt>
      <trkpt lat="39.7884750" lon="-4.0614940">
        <ele>661.3</ele>
        <time>2019-08-12T12:07:40Z</time>
      </trkpt>
      <trkpt lat="39.7885160" lon="-4.0614750">
        <ele>661.5</ele>
        <time>2019-08-12T12:07:41Z</time>
      </trkpt>
      <trkpt lat="39.7885580" lon="-4.0614560">
        <ele>661.7</ele>
        <time>2019-08-12T12:07:42Z</time>
      </trkpt>
      <trkpt lat="39.7885990" lon="-4.0614360">
        <ele>661.9</ele>
        <time>2019-08-12T12:07:43Z</time>
      </trkpt>
      <trkpt lat="39.7886400" lon="-4.0614170">
        <ele>662.2</ele>
        <time>2019-08-12T12:07:44Z</time>
      </trkpt>
      <trkpt lat="39.7886800" lon="-4.0613980">
        <ele>662.4</ele>
        <time>2019-08-12T12:07:45Z</time>
      </trkpt>
      <trkpt lat="39.7887200" lon="-4.0613780">
        <ele>662.6</ele>
        <time>2019-08-12T12:07:46Z</time>
      </trkpt>
      <trkpt lat="39.7887600" lon="-4.0613590">
        <ele>662.9</ele>
        <time>2019-08-12T12:07:47Z</time>
      </trkpt>
      <trkpt lat="39.7887990" lon="-4.0613390">
        <ele>663.1</ele>
        <time>2019-08-12T12:07:48Z</time>
      </trkpt>
      <trkpt lat="39.7888370" lon="-4.0613200">
        <ele>663.3</ele>
        <time>2019-08-12T12:07:49Z</time>
      </trkpt>
      <trkpt lat="39.7888750" lon="-4.0613010">
        <ele>663.5</ele>
        <time>2019-08-12T12:07:50Z</time>
      </trkpt>
      <trkpt lat="39.7889130" lon="-4.0612810">
        <ele>663.7</ele>
        <time>2019-08-12T12:07:51Z</time>
      </trkpt>
      <trkpt lat="39.7889510" lon="-4.0612620">
        <ele>663.9</ele>
        <time>2019-08-12T12:07:52Z</time>
      </trkpt>
      <trkpt lat="39.7889890" lon="-4.0612420">
        <ele>664.1</ele>
        <time>2019-08-12T12:07:53Z</time>
      </trkpt>
      <trkpt lat="39.7890270" lon="-4.0612230">
        <ele>664.4</ele>
        <time>2019-08-12T12:07:54Z</time>
      </trkpt>
      <trkpt lat="39.7890660" lon="-4.0612040">
        <ele>664.6</ele>
        <time>2019-08-12T12:07:55Z</time>
      </trkpt>
      <trkpt lat="39.7891060" lon="-4.0611840">
        <ele>664.9</ele>
        <time>2019-08-12T12:07:56Z</time>
      </trkpt>
      <trkpt lat="39.7891480" lon="-4.0611650">
        <ele>665.1</ele>
        <time>2019-08-12T12:07:57Z</time>
      </trkpt>
      <trkpt lat="39.7891910" lon="-4.0611460">
        <ele>665.4</ele>
        <time>2019-08-12T12:07:58Z</time>
      </trkpt>
      <trkpt lat="39.7892350" lon="-4.0611270">
        <ele>665.6</ele>
        <time>2019-08-12T12:07:59Z</time>
      </trkpt>
      <trkpt lat="39.7892810" lon="-4.0611080">
        <ele>665.8</ele>
        <time>2019-08-12T12:08:00Z</time>
      </trkpt>
      <trkpt lat="39.7893280" lon="-4.0610890">
        <ele>666.1</ele>
        <time>2019-08-12T12:08:01Z</time>
      </trkpt>
      <trkpt lat="39.7893740" lon="-4.0610700">
        <ele>666.3</ele>
        <time>2019-08-12T12:08:02Z</time>
      </trkpt>
      <trkpt lat="39.7894190" lon="-4.0610510">
        <ele>666.5</ele>
        <time>2019-08-12T12:08:03Z</time>
      </trkpt>
      <trkpt lat="39.7894620" lon="-4.0610320">
        <ele>666.7</ele>
        <time>2019-08-12T12:08:04Z</time>
      </trkpt>
      <trkpt lat="39.7895040" lon="-4.0610120">
        <ele>666.8</ele>
        <time>2019-08-12T12:08:05Z</time>
      </trkpt>
      <trkpt lat="39.7895460" lon="-4.0609930">
        <ele>667.0</ele>
        <time>2019-08-12T12:08:06Z</time>
      </trkpt>
      <trkpt lat="39.7895870" lon="-4.0609740">
        <ele>667.2</ele>
        <time>2019-08-12T12:08:07Z</time>
      </trkpt>
      <trkpt lat="39.7896280" lon="-4.0609540">
        <ele>667.3</ele>
        <time>2019-08-12T12:08:08Z</time>
      </trkpt>
      <trkpt lat="39.7896700" lon="-4.0609350">
        <ele>667.5</ele>
        <time>2019-08-12T12:08:09Z</time>
      </trkpt>
      <trkpt lat="39.7897120" lon="-4.0609160">
        <ele>667.6</ele>
        <time>2019-08-12T12:08:10Z</time>
      </trkpt>
      <trkpt lat="39.7897540" lon="-4.0608970">
        <ele>667.7</ele>
        <time>2019-08-12T12:08:11Z</time>
      </trkpt>
      <trkpt lat="39.7897960" lon="-4.0608780">
        <ele>667.8</ele>
        <time>2019-08-12T12:08:12Z</time>
      </trkpt>
      <trkpt lat="39.7898390" lon="-4.0608590">
        <ele>668.0</ele>
        <time>2019-08-12T12:08:13Z</time>
      </trkpt>
      <trkpt lat="39.7898820" lon="-4.0608400">
        <ele>668.1</ele>
        <time>2019-08-12T12:08:14Z</time>
      </trkpt>
      <trkpt lat="39.7899250" lon="-4.0608210">
        <ele>668.2</ele>
        <time>2019-08-12T12:08:15Z</time>
      </trkpt>
      <trkpt lat="39.7899680" lon="-4.0608020">
        <ele>668.3</ele>
        <time>2019-08-12T12:08:16Z</time>
      </trkpt>
      <trkpt lat="39.7900120" lon="-4.0607830">
        <ele>668.4</ele>
        <time>2019-08-12T12:08:17Z</time>
      </trkpt>
      <trkpt lat="39.7900560" lon="-4.0607630">
        <ele>668.5</ele>
        <time>2019-08-12T12:08:18Z</time>
      </trkpt>
      <trkpt lat="39.7901000" lon="-4.0607440">
        <ele>668.6</ele>
        <time>2019-08-12T12:08:19Z</time>
      </trkpt>
      <trkpt lat="39.7901450" lon="-4.0607240">
        <ele>668.7</ele>
        <time>2019-08-12T12:08:20Z</time>
      </trkpt>
      <trkpt lat="39.7901890" lon="-4.0607040">
        <ele>668.8</ele>
        <time>2019-08-12T12:08:21Z</time>
      </trkpt>
      <trkpt lat="39.7902340" lon="-4.0606840">
        <ele>668.8</ele>
        <time>2019-08-12T12:08:22Z</time>
      </trkpt>
      <trkpt lat="39.7902780" lon="-4.0606640">
        <ele>668.9</ele>
        <time>2019-08-12T12:08:23Z</time>
      </trkpt>
      <trkpt lat="39.7903230" lon="-4.0606440">
        <ele>668.9</ele>
        <time>2019-08-12T12:08:24Z</time>
      </trkpt>
      <trkpt lat="39.7903670" lon="-4.0606240">
        <ele>669.0</ele>
        <time>2019-08-12T12:08:25Z</time>
      </trkpt>
      <trkpt lat="39.7904110" lon="-4.0606030">
        <ele>669.0</ele>
        <time>2019-08-12T12:08:26Z</time>
      </trkpt>
      <trkpt lat="39.7904550" lon="-4.0605830">
        <ele>669.1</ele>
        <time>2019-08-12T12:08:27Z</time>
      </trkpt>
      <trkpt lat="39.7904990" lon="-4.0605620">
        <ele>669.2</ele>
        <time>2019-08-12T12:08:28Z</time>
      </trkpt>
      <trkpt lat="39.7905420" lon="-4.0605420">
        <ele>669.2</ele>
        <time>2019-08-12T12:08:29Z</time>
      </trkpt>
      <trkpt lat="39.7905860" lon="-4.0605210">
        <ele>669.3</ele>
        <time>2019-08-12T12:08:30Z</time>
      </trkpt>
      <trkpt lat="39.7906300" lon="-4.0605000">
        <ele>669.4</ele>
        <time>2019-08-12T12:08:31Z</time>
      </trkpt>
      <trkpt lat="39.7906740" lon="-4.0604800">
        <ele>669.5</ele>
        <time>2019-08-12T12:08:32Z</time>
      </trkpt>
      <trkpt lat="39.7907180" lon="-4.0604590">
        <ele>669.6</ele>
        <time>2019-08-12T12:08:33Z</time>
      </trkpt>
      <trkpt lat="39.7907630" lon="-4.0604380">
        <ele>669.7</ele>
        <time>2019-08-12T12:08:34Z</time>
      </trkpt>
      <trkpt lat="39.7908080" lon="-4.0604170">
        <ele>669.8</ele>
        <time>2019-08-12T12:08:35Z</time>
      </trkpt>
      <trkpt lat="39.7908540" lon="-4.0603960">
        <ele>669.9</ele>
        <time>2019-08-12T12:08:36Z</time>
      </trkpt>
      <trkpt lat="39.7909000" lon="-4.0603760">
        <ele>670.1</ele>
        <time>2019-08-12T12:08:37Z</time>
      </trkpt>
      <trkpt lat="39.7909460" lon="-4.0603550">
        <ele>670.2</ele>
        <time>2019-08-12T12:08:38Z</time>
      </trkpt>
      <trkpt lat="39.7909930" lon="-4.0603340">
        <ele>670.3</ele>
        <time>2019-08-12T12:08:39Z</time>
      </trkpt>
      <trkpt lat="39.7910400" lon="-4.0603130">
        <ele>670.5</ele>
        <time>2019-08-12T12:08:40Z</time>
      </trkpt>
      <trkpt lat="39.7910870" lon="-4.0602920">
        <ele>670.6</ele>
        <time>2019-08-12T12:08:41Z</time>
      </trkpt>
      <trkpt lat="39.7911340" lon="-4.0602710">
        <ele>670.7</ele>
        <time>2019-08-12T12:08:42Z</time>
      </trkpt>
      <trkpt lat="39.7911810" lon="-4.0602500">
        <ele>670.9</ele>
        <time>2019-08-12T12:08:43Z</time>
      </trkpt>
      <trkpt lat="39.7912290" lon="-4.0602290">
        <ele>671.0</ele>
        <time>2019-08-12T12:08:44Z</time>
      </trkpt>
      <trkpt lat="39.7912760" lon="-4.0602080">
        <ele>671.1</ele>
        <time>2019-08-12T12:08:45Z</time>
      </trkpt>
      <trkpt lat="39.7913230" lon="-4.0601870">
        <ele>671.3</ele>
        <time>2019-08-12T12:08:46Z</time>
      </trkpt>
      <trkpt lat="39.7913700" lon="-4.0601650">
        <ele>671.4</ele>
        <time>2019-08-12T12:08:47Z</time>
      </trkpt>
      <trkpt lat="39.7914170" lon="-4.0601440">
        <ele>671.6</ele>
        <time>2019-08-12T12:08:48Z</time>
      </trkpt>
      <trkpt lat="39.7914630" lon="-4.0601230">
        <ele>671.8</ele>
        <time>2019-08-12T12:08:49Z</time>
      </trkpt>
      <trkpt lat="39.7915090" lon="-4.0601010">
        <ele>672.0</ele>
        <time>2019-08-12T12:08:50Z</time>
      </trkpt>
      <trkpt lat="39.7915540" lon="-4.0600800">
        <ele>672.1</ele>
        <time>2019-08-12T12:08:51Z</time>
      </trkpt>
      <trkpt lat="39.7915990" lon="-4.0600580">
        <ele>672.3</ele>
        <time>2019-08-12T12:08:52Z</time>
      </trkpt>
      <trkpt lat="39.7916440" lon="-4.0600370">
        <ele>672.4</ele>
        <time>2019-08-12T12:08:53Z</time>
      </trkpt>
      <trkpt lat="39.7916870" lon="-4.0600150">
        <ele>672.6</ele>
        <time>2019-08-12T12:08:54Z</time>
      </trkpt>
      <trkpt lat="39.7917310" lon="-4.0599930">
        <ele>672.7</ele>
        <time>2019-08-12T12:08:55Z</time>
      </trkpt>
      <trkpt lat="39.7917730" lon="-4.0599710">
        <ele>672.9</ele>
        <time>2019-08-12T12:08:56Z</time>
      </trkpt>
      <trkpt lat="39.7918160" lon="-4.0599500">
        <ele>673.0</ele>
        <time>2019-08-12T12:08:57Z</time>
      </trkpt>
      <trkpt lat="39.7918580" lon="-4.0599290">
        <ele>673.1</ele>
        <time>2019-08-12T12:08:58Z</time>
      </trkpt>
      <trkpt lat="39.7919010" lon="-4.0599080">
        <ele>673.3</ele>
        <time>2019-08-12T12:08:59Z</time>
      </trkpt>
      <trkpt lat="39.7919440" lon="-4.0598870">
        <ele>673.4</ele>
        <time>2019-08-12T12:09:00Z</time>
      </trkpt>
      <trkpt lat="39.7919870" lon="-4.0598670">
        <ele>673.6</ele>
        <time>2019-08-12T12:09:01Z</time>
      </trkpt>
      <trkpt lat="39.7920300" lon="-4.0598470">
        <ele>673.7</ele>
        <time>2019-08-12T12:09:02Z</time>
      </trkpt>
      <trkpt lat="39.7920750" lon="-4.0598280">
        <ele>673.9</ele>
        <time>2019-08-12T12:09:03Z</time>
      </trkpt>
      <trkpt lat="39.7921190" lon="-4.0598090">
        <ele>674.0</ele>
        <time>2019-08-12T12:09:04Z</time>
      </trkpt>
      <trkpt lat="39.7921640" lon="-4.0597900">
        <ele>674.1</ele>
        <time>2019-08-12T12:09:05Z</time>
      </trkpt>
      <trkpt lat="39.7922090" lon="-4.0597710">
        <ele>674.3</ele>
        <time>2019-08-12T12:09:06Z</time>
      </trkpt>
      <trkpt lat="39.7922540" lon="-4.0597520">
        <ele>674.4</ele>
        <time>2019-08-12T12:09:07Z</time>
      </trkpt>
      <trkpt lat="39.7922990" lon="-4.0597310">
        <ele>674.5</ele>
        <time>2019-08-12T12:09:08Z</time>
      </trkpt>
      <trkpt lat="39.7923440" lon="-4.0597100">
        <ele>674.7</ele>
        <time>2019-08-12T12:09:09Z</time>
      </trkpt>
      <trkpt lat="39.7923880" lon="-4.0596880">
        <ele>674.8</ele>
        <time>2019-08-12T12:09:10Z</time>
      </trkpt>
      <trkpt lat="39.7924310" lon="-4.0596640">
        <ele>675.0</ele>
        <time>2019-08-12T12:09:11Z</time>
      </trkpt>
      <trkpt lat="39.7924740" lon="-4.0596390">
        <ele>675.2</ele>
        <time>2019-08-12T12:09:12Z</time>
      </trkpt>
      <trkpt lat="39.7925160" lon="-4.0596120">
        <ele>675.3</ele>
        <time>2019-08-12T12:09:13Z</time>
      </trkpt>
      <trkpt lat="39.7925580" lon="-4.0595830">
        <ele>675.5</ele>
        <time>2019-08-12T12:09:14Z</time>
      </trkpt>
      <trkpt lat="39.7925990" lon="-4.0595540">
        <ele>675.6</ele>
        <time>2019-08-12T12:09:15Z</time>
      </trkpt>
      <trkpt lat="39.7926410" lon="-4.0595230">
        <ele>675.7</ele>
        <time>2019-08-12T12:09:16Z</time>
      </trkpt>
      <trkpt lat="39.7926830" lon="-4.0594920">
        <ele>675.8</ele>
        <time>2019-08-12T12:09:17Z</time>
      </trkpt>
      <trkpt lat="39.7927260" lon="-4.0594600">
        <ele>675.8</ele>
        <time>2019-08-12T12:09:18Z</time>
      </trkpt>
      <trkpt lat="39.7927700" lon="-4.0594280">
        <ele>675.8</ele>
        <time>2019-08-12T12:09:19Z</time>
      </trkpt>
      <trkpt lat="39.7928150" lon="-4.0593950">
        <ele>675.8</ele>
        <time>2019-08-12T12:09:20Z</time>
      </trkpt>
      <trkpt lat="39.7928610" lon="-4.0593630">
        <ele>675.8</ele>
        <time>2019-08-12T12:09:21Z</time>
      </trkpt>
      <trkpt lat="39.7929090" lon="-4.0593290">
        <ele>675.7</ele>
        <time>2019-08-12T12:09:22Z</time>
      </trkpt>
      <trkpt lat="39.7929590" lon="-4.0592940">
        <ele>675.7</ele>
        <time>2019-08-12T12:09:23Z</time>
      </trkpt>
      <trkpt lat="39.7930100" lon="-4.0592560">
        <ele>675.6</ele>
        <time>2019-08-12T12:09:24Z</time>
      </trkpt>
      <trkpt lat="39.7930640" lon="-4.0592140">
        <ele>675.4</ele>
        <time>2019-08-12T12:09:25Z</time>
      </trkpt>
      <trkpt lat="39.7931210" lon="-4.0591690">
        <ele>675.2</ele>
        <time>2019-08-12T12:09:26Z</time>
      </trkpt>
      <trkpt lat="39.7931790" lon="-4.0591200">
        <ele>675.0</ele>
        <time>2019-08-12T12:09:27Z</time>
      </trkpt>
      <trkpt lat="39.7932380" lon="-4.0590690">
        <ele>674.8</ele>
        <time>2019-08-12T12:09:28Z</time>
      </trkpt>
      <trkpt lat="39.7932970" lon="-4.0590180">
        <ele>674.6</ele>
        <time>2019-08-12T12:09:29Z</time>
      </trkpt>
      <trkpt lat="39.7933560" lon="-4.0589680">
        <ele>674.4</ele>
        <time>2019-08-12T12:09:30Z</time>
      </trkpt>
      <trkpt lat="39.7934140" lon="-4.0589190">
        <ele>674.2</ele>
        <time>2019-08-12T12:09:31Z</time>
      </trkpt>
      <trkpt lat="39.7934720" lon="-4.0588710">
        <ele>674.0</ele>
        <time>2019-08-12T12:09:32Z</time>
      </trkpt>
      <trkpt lat="39.7935290" lon="-4.0588240">
        <ele>673.9</ele>
        <time>2019-08-12T12:09:33Z</time>
      </trkpt>
      <trkpt lat="39.7935870" lon="-4.0587790">
        <ele>673.8</ele>
        <time>2019-08-12T12:09:34Z</time>
      </trkpt>
      <trkpt lat="39.7936440" lon="-4.0587360">
        <ele>673.7</ele>
        <time>2019-08-12T12:09:35Z</time>
      </trkpt>
      <trkpt lat="39.7937010" lon="-4.0586940">
        <ele>673.7</ele>
        <time>2019-08-12T12:09:36Z</time>
      </trkpt>
      <trkpt lat="39.7937560" lon="-4.0586530">
        <ele>673.7</ele>
        <time>2019-08-12T12:09:37Z</time>
      </trkpt>
      <trkpt lat="39.7938110" lon="-4.0586130">
        <ele>673.7</ele>
        <time>2019-08-12T12:09:38Z</time>
      </trkpt>
      <trkpt lat="39.7938630" lon="-4.0585730">
        <ele>673.7</ele>
        <time>2019-08-12T12:09:39Z</time>
      </trkpt>
      <trkpt lat="39.7939140" lon="-4.0585320">
        <ele>673.6</ele>
        <time>2019-08-12T12:09:40Z</time>
      </trkpt>
      <trkpt lat="39.7939630" lon="-4.0584910">
        <ele>673.6</ele>
        <time>2019-08-12T12:09:41Z</time>
      </trkpt>
      <trkpt lat="39.7940100" lon="-4.0584500">
        <ele>673.6</ele>
        <time>2019-08-12T12:09:42Z</time>
      </trkpt>
      <trkpt lat="39.7940560" lon="-4.0584090">
        <ele>673.6</ele>
        <time>2019-08-12T12:09:43Z</time>
      </trkpt>
      <trkpt lat="39.7941010" lon="-4.0583680">
        <ele>673.6</ele>
        <time>2019-08-12T12:09:44Z</time>
      </trkpt>
      <trkpt lat="39.7941460" lon="-4.0583260">
        <ele>673.6</ele>
        <time>2019-08-12T12:09:45Z</time>
      </trkpt>
      <trkpt lat="39.7941910" lon="-4.0582850">
        <ele>673.5</ele>
        <time>2019-08-12T12:09:46Z</time>
      </trkpt>
      <trkpt lat="39.7942360" lon="-4.0582440">
        <ele>673.5</ele>
        <time>2019-08-12T12:09:47Z</time>
      </trkpt>
      <trkpt lat="39.7942820" lon="-4.0582030">
        <ele>673.5</ele>
        <time>2019-08-12T12:09:48Z</time>
      </trkpt>
      <trkpt lat="39.7943300" lon="-4.0581630">
        <ele>673.5</ele>
        <time>2019-08-12T12:09:49Z</time>
      </trkpt>
      <trkpt lat="39.7943780" lon="-4.0581230">
        <ele>673.5</ele>
        <time>2019-08-12T12:09:50Z</time>
      </trkpt>
      <trkpt lat="39.7944270" lon="-4.0580840">
        <ele>673.5</ele>
        <time>2019-08-12T12:09:51Z</time>
      </trkpt>
      <trkpt lat="39.7944760" lon="-4.0580450">
        <ele>673.5</ele>
        <time>2019-08-12T12:09:52Z</time>
      </trkpt>
      <trkpt lat="39.7945260" lon="-4.0580070">
        <ele>673.5</ele>
        <time>2019-08-12T12:09:53Z</time>
      </trkpt>
      <trkpt lat="39.7945760" lon="-4.0579690">
        <ele>673.5</ele>
        <time>2019-08-12T12:09:54Z</time>
      </trkpt>
      <trkpt lat="39.7946260" lon="-4.0579330">
        <ele>673.5</ele>
        <time>2019-08-12T12:09:55Z</time>
      </trkpt>
      <trkpt lat="39.7946760" lon="-4.0578970">
        <ele>673.5</ele>
        <time>2019-08-12T12:09:56Z</time>
      </trkpt>
      <trkpt lat="39.7947250" lon="-4.0578620">
        <ele>673.5</ele>
        <time>2019-08-12T12:09:57Z</time>
      </trkpt>
      <trkpt lat="39.7947740" lon="-4.0578290">
        <ele>673.5</ele>
        <time>2019-08-12T12:09:58Z</time>
      </trkpt>
      <trkpt lat="39.7948230" lon="-4.0577960">
        <ele>673.5</ele>
        <time>2019-08-12T12:09:59Z</time>
      </trkpt>
      <trkpt lat="39.7948710" lon="-4.0577650">
        <ele>673.5</ele>
        <time>2019-08-12T12:10:00Z</time>
      </trkpt>
      <trkpt lat="39.7949190" lon="-4.0577350">
        <ele>673.5</ele>
        <time>2019-08-12T12:10:01Z</time>
      </trkpt>
      <trkpt lat="39.7949670" lon="-4.0577060">
        <ele>673.5</ele>
        <time>2019-08-12T12:10:02Z</time>
      </trkpt>
      <trkpt lat="39.7950160" lon="-4.0576780">
        <ele>673.5</ele>
        <time>2019-08-12T12:10:03Z</time>
      </trkpt>
      <trkpt lat="39.7950640" lon="-4.0576510">
        <ele>673.4</ele>
        <time>2019-08-12T12:10:04Z</time>
      </trkpt>
      <trkpt lat="39.7951130" lon="-4.0576250">
        <ele>673.4</ele>
        <time>2019-08-12T12:10:05Z</time>
      </trkpt>
      <trkpt lat="39.7951620" lon="-4.0576010">
        <ele>673.4</ele>
        <time>2019-08-12T12:10:06Z</time>
      </trkpt>
      <trkpt lat="39.7952120" lon="-4.0575780">
        <ele>673.4</ele>
        <time>2019-08-12T12:10:07Z</time>
      </trkpt>
      <trkpt lat="39.7952630" lon="-4.0575560">
        <ele>673.4</ele>
        <time>2019-08-12T12:10:08Z</time>
      </trkpt>
      <trkpt lat="39.7953140" lon="-4.0575360">
        <ele>673.4</ele>
        <time>2019-08-12T12:10:09Z</time>
      </trkpt>
      <trkpt lat="39.7953660" lon="-4.0575170">
        <ele>673.4</ele>
        <time>2019-08-12T12:10:10Z</time>
      </trkpt>
      <trkpt lat="39.7954180" lon="-4.0574990">
        <ele>673.4</ele>
        <time>2019-08-12T12:10:11Z</time>
      </trkpt>
      <trkpt lat="39.7954700" lon="-4.0574820">
        <ele>673.5</ele>
        <time>2019-08-12T12:10:12Z</time>
      </trkpt>
      <trkpt lat="39.7955230" lon="-4.0574680">
        <ele>673.5</ele>
        <time>2019-08-12T12:10:13Z</time>
      </trkpt>
      <trkpt lat="39.7955770" lon="-4.0574540">
        <ele>673.6</ele>
        <time>2019-08-12T12:10:14Z</time>
      </trkpt>
      <trkpt lat="39.7956300" lon="-4.0574420">
        <ele>673.6</ele>
        <time>2019-08-12T12:10:15Z</time>
      </trkpt>
      <trkpt lat="39.7956840" lon="-4.0574320">
        <ele>673.7</ele>
        <time>2019-08-12T12:10:16Z</time>
      </trkpt>
      <trkpt lat="39.7957380" lon="-4.0574230">
        <ele>673.7</ele>
        <time>2019-08-12T12:10:17Z</time>
      </trkpt>
      <trkpt lat="39.7957930" lon="-4.0574160">
        <ele>673.7</ele>
        <time>2019-08-12T12:10:18Z</time>
      </trkpt>
      <trkpt lat="39.7958470" lon="-4.0574100">
        <ele>673.7</ele>
        <time>2019-08-12T12:10:19Z</time>
      </trkpt>
      <trkpt lat="39.7959010" lon="-4.0574050">
        <ele>673.7</ele>
        <time>2019-08-12T12:10:20Z</time>
      </trkpt>
      <trkpt lat="39.7959550" lon="-4.0574020">
        <ele>673.7</ele>
        <time>2019-08-12T12:10:21Z</time>
      </trkpt>
      <trkpt lat="39.7960090" lon="-4.0573990">
        <ele>673.7</ele>
        <time>2019-08-12T12:10:22Z</time>
      </trkpt>
      <trkpt lat="39.7960620" lon="-4.0573970">
        <ele>673.7</ele>
        <time>2019-08-12T12:10:23Z</time>
      </trkpt>
      <trkpt lat="39.7961150" lon="-4.0573960">
        <ele>673.7</ele>
        <time>2019-08-12T12:10:24Z</time>
      </trkpt>
      <trkpt lat="39.7961670" lon="-4.0573950">
        <ele>673.8</ele>
        <time>2019-08-12T12:10:25Z</time>
      </trkpt>
      <trkpt lat="39.7962180" lon="-4.0573940">
        <ele>673.8</ele>
        <time>2019-08-12T12:10:26Z</time>
      </trkpt>
      <trkpt lat="39.7962690" lon="-4.0573940">
        <ele>673.9</ele>
        <time>2019-08-12T12:10:27Z</time>
      </trkpt>
      <trkpt lat="39.7963190" lon="-4.0573940">
        <ele>674.0</ele>
        <time>2019-08-12T12:10:28Z</time>
      </trkpt>
      <trkpt lat="39.7963680" lon="-4.0573940">
        <ele>674.1</ele>
        <time>2019-08-12T12:10:29Z</time>
      </trkpt>
      <trkpt lat="39.7964170" lon="-4.0573950">
        <ele>674.2</ele>
        <time>2019-08-12T12:10:30Z</time>
      </trkpt>
      <trkpt lat="39.7964650" lon="-4.0573950">
        <ele>674.3</ele>
        <time>2019-08-12T12:10:31Z</time>
      </trkpt>
      <trkpt lat="39.7965120" lon="-4.0573960">
        <ele>674.4</ele>
        <time>2019-08-12T12:10:32Z</time>
      </trkpt>
      <trkpt lat="39.7965600" lon="-4.0573970">
        <ele>674.5</ele>
        <time>2019-08-12T12:10:33Z</time>
      </trkpt>
      <trkpt lat="39.7966070" lon="-4.0573990">
        <ele>674.7</ele>
        <time>2019-08-12T12:10:34Z</time>
      </trkpt>
      <trkpt lat="39.7966530" lon="-4.0574000">
        <ele>674.8</ele>
        <time>2019-08-12T12:10:35Z</time>
      </trkpt>
      <trkpt lat="39.7966990" lon="-4.0574020">
        <ele>674.9</ele>
        <time>2019-08-12T12:10:36Z</time>
      </trkpt>
      <trkpt lat="39.7967450" lon="-4.0574030">
        <ele>675.0</ele>
        <time>2019-08-12T12:10:37Z</time>
      </trkpt>
      <trkpt lat="39.7967910" lon="-4.0574050">
        <ele>675.1</ele>
        <time>2019-08-12T12:10:38Z</time>
      </trkpt>
      <trkpt lat="39.7968370" lon="-4.0574070">
        <ele>675.2</ele>
        <time>2019-08-12T12:10:39Z</time>
      </trkpt>
      <trkpt lat="39.7968820" lon="-4.0574080">
        <ele>675.3</ele>
        <time>2019-08-12T12:10:40Z</time>
      </trkpt>
      <trkpt lat="39.7969280" lon="-4.0574100">
        <ele>675.3</ele>
        <time>2019-08-12T12:10:41Z</time>
      </trkpt>
      <trkpt lat="39.7969730" lon="-4.0574120">
        <ele>675.4</ele>
        <time>2019-08-12T12:10:42Z</time>
      </trkpt>
      <trkpt lat="39.7970190" lon="-4.0574140">
        <ele>675.5</ele>
        <time>2019-08-12T12:10:43Z</time>
      </trkpt>
      <trkpt lat="39.7970650" lon="-4.0574150">
        <ele>675.5</ele>
        <time>2019-08-12T12:10:44Z</time>
      </trkpt>
      <trkpt lat="39.7971110" lon="-4.0574170">
        <ele>675.5</ele>
        <time>2019-08-12T12:10:45Z</time>
      </trkpt>
      <trkpt lat="39.7971580" lon="-4.0574190">
        <ele>675.5</ele>
        <time>2019-08-12T12:10:46Z</time>
      </trkpt>
      <trkpt lat="39.7972060" lon="-4.0574210">
        <ele>675.5</ele>
        <time>2019-08-12T12:10:47Z</time>
      </trkpt>
      <trkpt lat="39.7972550" lon="-4.0574230">
        <ele>675.4</ele>
        <time>2019-08-12T12:10:48Z</time>
      </trkpt>
      <trkpt lat="39.7973070" lon="-4.0574260">
        <ele>675.4</ele>
        <time>2019-08-12T12:10:49Z</time>
      </trkpt>
      <trkpt lat="39.7973600" lon="-4.0574280">
        <ele>675.3</ele>
        <time>2019-08-12T12:10:50Z</time>
      </trkpt>
      <trkpt lat="39.7974140" lon="-4.0574300">
        <ele>675.2</ele>
        <time>2019-08-12T12:10:51Z</time>
      </trkpt>
      <trkpt lat="39.7974690" lon="-4.0574320">
        <ele>675.0</ele>
        <time>2019-08-12T12:10:52Z</time>
      </trkpt>
      <trkpt lat="39.7975240" lon="-4.0574320">
        <ele>674.9</ele>
        <time>2019-08-12T12:10:53Z</time>
      </trkpt>
      <trkpt lat="39.7975790" lon="-4.0574310">
        <ele>674.7</ele>
        <time>2019-08-12T12:10:54Z</time>
      </trkpt>
      <trkpt lat="39.7976340" lon="-4.0574300">
        <ele>674.6</ele>
        <time>2019-08-12T12:10:55Z</time>
      </trkpt>
      <trkpt lat="39.7976890" lon="-4.0574280">
        <ele>674.4</ele>
        <time>2019-08-12T12:10:56Z</time>
      </trkpt>
      <trkpt lat="39.7977440" lon="-4.0574270">
        <ele>674.3</ele>
        <time>2019-08-12T12:10:57Z</time>
      </trkpt>
      <trkpt lat="39.7978000" lon="-4.0574270">
        <ele>674.1</ele>
        <time>2019-08-12T12:10:58Z</time>
      </trkpt>
      <trkpt lat="39.7978550" lon="-4.0574290">
        <ele>674.0</ele>
        <time>2019-08-12T12:10:59Z</time>
      </trkpt>
      <trkpt lat="39.7979110" lon="-4.0574320">
        <ele>673.8</ele>
        <time>2019-08-12T12:11:00Z</time>
      </trkpt>
      <trkpt lat="39.7979680" lon="-4.0574360">
        <ele>673.7</ele>
        <time>2019-08-12T12:11:01Z</time>
      </trkpt>
      <trkpt lat="39.7980540" lon="-4.0574380">
        <ele>673.4</ele>
        <time>2019-08-12T12:11:02Z</time>
      </trkpt>
      <trkpt lat="39.7980830" lon="-4.0574380">
        <ele>673.4</ele>
        <time>2019-08-12T12:11:03Z</time>
      </trkpt>
      <trkpt lat="39.7981420" lon="-4.0574360">
        <ele>673.2</ele>
        <time>2019-08-12T12:11:04Z</time>
      </trkpt>
      <trkpt lat="39.7982010" lon="-4.0574310">
        <ele>673.1</ele>
        <time>2019-08-12T12:11:05Z</time>
      </trkpt>
      <trkpt lat="39.7982610" lon="-4.0574260">
        <ele>672.9</ele>
        <time>2019-08-12T12:11:06Z</time>
      </trkpt>
      <trkpt lat="39.7983220" lon="-4.0574180">
        <ele>672.7</ele>
        <time>2019-08-12T12:11:07Z</time>
      </trkpt>
      <trkpt lat="39.7983840" lon="-4.0574080">
        <ele>672.5</ele>
        <time>2019-08-12T12:11:08Z</time>
      </trkpt>
      <trkpt lat="39.7984460" lon="-4.0573970">
        <ele>672.3</ele>
        <time>2019-08-12T12:11:09Z</time>
      </trkpt>
      <trkpt lat="39.7985090" lon="-4.0573850">
        <ele>672.1</ele>
        <time>2019-08-12T12:11:10Z</time>
      </trkpt>
      <trkpt lat="39.7985720" lon="-4.0573710">
        <ele>671.8</ele>
        <time>2019-08-12T12:11:11Z</time>
      </trkpt>
      <trkpt lat="39.7986360" lon="-4.0573560">
        <ele>671.6</ele>
        <time>2019-08-12T12:11:12Z</time>
      </trkpt>
      <trkpt lat="39.7987000" lon="-4.0573400">
        <ele>671.4</ele>
        <time>2019-08-12T12:11:13Z</time>
      </trkpt>
      <trkpt lat="39.7987640" lon="-4.0573230">
        <ele>671.2</ele>
        <time>2019-08-12T12:11:14Z</time>
      </trkpt>
      <trkpt lat="39.7988290" lon="-4.0573050">
        <ele>671.0</ele>
        <time>2019-08-12T12:11:15Z</time>
      </trkpt>
      <trkpt lat="39.7988940" lon="-4.0572870">
        <ele>670.9</ele>
        <time>2019-08-12T12:11:16Z</time>
      </trkpt>
      <trkpt lat="39.7989590" lon="-4.0572680">
        <ele>670.7</ele>
        <time>2019-08-12T12:11:17Z</time>
      </trkpt>
      <trkpt lat="39.7990240" lon="-4.0572490">
        <ele>670.6</ele>
        <time>2019-08-12T12:11:18Z</time>
      </trkpt>
      <trkpt lat="39.7990900" lon="-4.0572300">
        <ele>670.5</ele>
        <time>2019-08-12T12:11:19Z</time>
      </trkpt>
      <trkpt lat="39.7991550" lon="-4.0572110">
        <ele>670.4</ele>
        <time>2019-08-12T12:11:20Z</time>
      </trkpt>
      <trkpt lat="39.7992210" lon="-4.0571920">
        <ele>670.3</ele>
        <time>2019-08-12T12:11:21Z</time>
      </trkpt>
      <trkpt lat="39.7992860" lon="-4.0571730">
        <ele>670.1</ele>
        <time>2019-08-12T12:11:22Z</time>
      </trkpt>
      <trkpt lat="39.7993520" lon="-4.0571540">
        <ele>670.0</ele>
        <time>2019-08-12T12:11:23Z</time>
      </trkpt>
      <trkpt lat="39.7994170" lon="-4.0571360">
        <ele>669.8</ele>
        <time>2019-08-12T12:11:24Z</time>
      </trkpt>
      <trkpt lat="39.7994830" lon="-4.0571170">
        <ele>669.6</ele>
        <time>2019-08-12T12:11:25Z</time>
      </trkpt>
      <trkpt lat="39.7995480" lon="-4.0570970">
        <ele>669.5</ele>
        <time>2019-08-12T12:11:26Z</time>
      </trkpt>
      <trkpt lat="39.7996130" lon="-4.0570780">
        <ele>669.3</ele>
        <time>2019-08-12T12:11:27Z</time>
      </trkpt>
      <trkpt lat="39.7996780" lon="-4.0570580">
        <ele>669.1</ele>
        <time>2019-08-12T12:11:28Z</time>
      </trkpt>
      <trkpt lat="39.7997430" lon="-4.0570370">
        <ele>668.9</ele>
        <time>2019-08-12T12:11:29Z</time>
      </trkpt>
      <trkpt lat="39.7998070" lon="-4.0570160">
        <ele>668.8</ele>
        <time>2019-08-12T12:11:30Z</time>
      </trkpt>
      <trkpt lat="39.7998710" lon="-4.0569910">
        <ele>668.6</ele>
        <time>2019-08-12T12:11:31Z</time>
      </trkpt>
      <trkpt lat="39.7999340" lon="-4.0569610">
        <ele>668.4</ele>
        <time>2019-08-12T12:11:32Z</time>
      </trkpt>
      <trkpt lat="39.7999950" lon="-4.0569240">
        <ele>668.2</ele>
        <time>2019-08-12T12:11:33Z</time>
      </trkpt>
      <trkpt lat="39.8000540" lon="-4.0568760">
        <ele>667.9</ele>
        <time>2019-08-12T12:11:34Z</time>
      </trkpt>
      <trkpt lat="39.8001100" lon="-4.0568190">
        <ele>668.0</ele>
        <time>2019-08-12T12:11:35Z</time>
      </trkpt>
      <trkpt lat="39.8001660" lon="-4.0567610">
        <ele>668.0</ele>
        <time>2019-08-12T12:11:36Z</time>
      </trkpt>
      <trkpt lat="39.8002230" lon="-4.0567130">
        <ele>668.0</ele>
        <time>2019-08-12T12:11:37Z</time>
      </trkpt>
      <trkpt lat="39.8002830" lon="-4.0566860">
        <ele>668.0</ele>
        <time>2019-08-12T12:11:38Z</time>
      </trkpt>
      <trkpt lat="39.8003460" lon="-4.0566900">
        <ele>668.0</ele>
        <time>2019-08-12T12:11:39Z</time>
      </trkpt>
      <trkpt lat="39.8004270" lon="-4.0567490">
        <ele>667.9</ele>
        <time>2019-08-12T12:11:40Z</time>
      </trkpt>
      <trkpt lat="39.8004490" lon="-4.0567770">
        <ele>667.9</ele>
        <time>2019-08-12T12:11:41Z</time>
      </trkpt>
      <trkpt lat="39.8004720" lon="-4.0568490">
        <ele>667.7</ele>
        <time>2019-08-12T12:11:42Z</time>
      </trkpt>
      <trkpt lat="39.8004750" lon="-4.0569270">
        <ele>667.7</ele>
        <time>2019-08-12T12:11:43Z</time>
      </trkpt>
      <trkpt lat="39.8004640" lon="-4.0570000">
        <ele>667.7</ele>
        <time>2019-08-12T12:11:44Z</time>
      </trkpt>
      <trkpt lat="39.8004460" lon="-4.0570690">
        <ele>667.7</ele>
        <time>2019-08-12T12:11:45Z</time>
      </trkpt>
      <trkpt lat="39.8004260" lon="-4.0571340">
        <ele>667.4</ele>
        <time>2019-08-12T12:11:46Z</time>
      </trkpt>
      <trkpt lat="39.8004090" lon="-4.0571960">
        <ele>667.3</ele>
        <time>2019-08-12T12:11:47Z</time>
      </trkpt>
      <trkpt lat="39.8004010" lon="-4.0572560">
        <ele>667.2</ele>
        <time>2019-08-12T12:11:48Z</time>
      </trkpt>
      <trkpt lat="39.8004010" lon="-4.0573130">
        <ele>667.0</ele>
        <time>2019-08-12T12:11:49Z</time>
      </trkpt>
      <trkpt lat="39.8004070" lon="-4.0573660">
        <ele>666.9</ele>
        <time>2019-08-12T12:11:50Z</time>
      </trkpt>
      <trkpt lat="39.8004170" lon="-4.0574140">
        <ele>666.9</ele>
        <time>2019-08-12T12:11:51Z</time>
      </trkpt>
      <trkpt lat="39.8004280" lon="-4.0574550">
        <ele>666.8</ele>
        <time>2019-08-12T12:11:52Z</time>
      </trkpt>
      <trkpt lat="39.8004400" lon="-4.0574880">
        <ele>666.8</ele>
        <time>2019-08-12T12:11:53Z</time>
      </trkpt>
      <trkpt lat="39.8004490" lon="-4.0575120">
        <ele>666.7</ele>
        <time>2019-08-12T12:11:54Z</time>
      </trkpt>
      <trkpt lat="39.8004550" lon="-4.0575260">
        <ele>666.7</ele>
        <time>2019-08-12T12:11:55Z</time>
      </trkpt>
      <trkpt lat="39.8004540" lon="-4.0575280">
        <ele>666.7</ele>
        <time>2019-08-12T12:11:56Z</time>
      </trkpt>
      <trkpt lat="39.8004400" lon="-4.0575380">
        <ele>666.7</ele>
        <time>2019-08-13T05:51:31Z</time>
      </trkpt>
      <trkpt lat="39.8004430" lon="-4.0575470">
        <ele>666.7</ele>
        <time>2019-08-13T05:51:35Z</time>
      </trkpt>
      <trkpt lat="39.8004140" lon="-4.0575160">
        <ele>666.8</ele>
        <time>2019-08-13T05:52:45Z</time>
      </trkpt>
      <trkpt lat="39.8003830" lon="-4.0574960">
        <ele>666.8</ele>
        <time>2019-08-13T05:52:47Z</time>
      </trkpt>
      <trkpt lat="39.8003630" lon="-4.0574460">
        <ele>666.9</ele>
        <time>2019-08-13T05:52:49Z</time>
      </trkpt>
      <trkpt lat="39.8003470" lon="-4.0573860">
        <ele>667.0</ele>
        <time>2019-08-13T05:52:51Z</time>
      </trkpt>
      <trkpt lat="39.8003330" lon="-4.0573210">
        <ele>667.1</ele>
        <time>2019-08-13T05:52:53Z</time>
      </trkpt>
      <trkpt lat="39.8003220" lon="-4.0572620">
        <ele>667.2</ele>
        <time>2019-08-13T05:52:55Z</time>
      </trkpt>
      <trkpt lat="39.8002990" lon="-4.0572070">
        <ele>667.4</ele>
        <time>2019-08-13T05:52:57Z</time>
      </trkpt>
      <trkpt lat="39.8002710" lon="-4.0571590">
        <ele>667.8</ele>
        <time>2019-08-13T05:52:59Z</time>
      </trkpt>
      <trkpt lat="39.8002440" lon="-4.0571120">
        <ele>667.8</ele>
        <time>2019-08-13T05:53:01Z</time>
      </trkpt>
      <trkpt lat="39.8002110" lon="-4.0570690">
        <ele>667.8</ele>
        <time>2019-08-13T05:53:03Z</time>
      </trkpt>
      <trkpt lat="39.8001780" lon="-4.0570260">
        <ele>667.8</ele>
        <time>2019-08-13T05:53:05Z</time>
      </trkpt>
      <trkpt lat="39.8001480" lon="-4.0569750">
        <ele>667.9</ele>
        <time>2019-08-13T05:53:07Z</time>
      </trkpt>
      <trkpt lat="39.8001270" lon="-4.0569130">
        <ele>667.9</ele>
        <time>2019-08-13T05:53:09Z</time>
      </trkpt>
      <trkpt lat="39.8001210" lon="-4.0568760">
        <ele>667.9</ele>
        <time>2019-08-13T05:53:10Z</time>
      </trkpt>
      <trkpt lat="39.8001190" lon="-4.0568380">
        <ele>667.9</ele>
        <time>2019-08-13T05:53:11Z</time>
      </trkpt>
      <trkpt lat="39.8001230" lon="-4.0567980">
        <ele>667.9</ele>
        <time>2019-08-13T05:53:12Z</time>
      </trkpt>
      <trkpt lat="39.8001360" lon="-4.0567610">
        <ele>668.0</ele>
        <time>2019-08-13T05:53:13Z</time>
      </trkpt>
      <trkpt lat="39.8001550" lon="-4.0567260">
        <ele>668.0</ele>
        <time>2019-08-13T05:53:14Z</time>
      </trkpt>
      <trkpt lat="39.8001800" lon="-4.0566970">
        <ele>668.0</ele>
        <time>2019-08-13T05:53:15Z</time>
      </trkpt>
      <trkpt lat="39.8002110" lon="-4.0566740">
        <ele>668.0</ele>
        <time>2019-08-13T05:53:16Z</time>
      </trkpt>
      <trkpt lat="39.8002440" lon="-4.0566550">
        <ele>668.1</ele>
        <time>2019-08-13T05:53:17Z</time>
      </trkpt>
      <trkpt lat="39.8002780" lon="-4.0566440">
        <ele>668.0</ele>
        <time>2019-08-13T05:53:18Z</time>
      </trkpt>
      <trkpt lat="39.8003140" lon="-4.0566410">
        <ele>668.0</ele>
        <time>2019-08-13T05:53:19Z</time>
      </trkpt>
      <trkpt lat="39.8003520" lon="-4.0566460">
        <ele>668.0</ele>
        <time>2019-08-13T05:53:20Z</time>
      </trkpt>
      <trkpt lat="39.8003900" lon="-4.0566600">
        <ele>667.9</ele>
        <time>2019-08-13T05:53:21Z</time>
      </trkpt>
      <trkpt lat="39.8004290" lon="-4.0566790">
        <ele>667.9</ele>
        <time>2019-08-13T05:53:22Z</time>
      </trkpt>
      <trkpt lat="39.8004680" lon="-4.0567010">
        <ele>667.9</ele>
        <time>2019-08-13T05:53:23Z</time>
      </trkpt>
      <trkpt lat="39.8005080" lon="-4.0567200">
        <ele>667.6</ele>
        <time>2019-08-13T05:53:24Z</time>
      </trkpt>
      <trkpt lat="39.8005500" lon="-4.0567330">
        <ele>667.5</ele>
        <time>2019-08-13T05:53:25Z</time>
      </trkpt>
      <trkpt lat="39.8005930" lon="-4.0567400">
        <ele>667.4</ele>
        <time>2019-08-13T05:53:26Z</time>
      </trkpt>
      <trkpt lat="39.8006370" lon="-4.0567430">
        <ele>667.3</ele>
        <time>2019-08-13T05:53:27Z</time>
      </trkpt>
      <trkpt lat="39.8006800" lon="-4.0567420">
        <ele>667.2</ele>
        <time>2019-08-13T05:53:28Z</time>
      </trkpt>
      <trkpt lat="39.8007230" lon="-4.0567380">
        <ele>667.1</ele>
        <time>2019-08-13T05:53:29Z</time>
      </trkpt>
      <trkpt lat="39.8007670" lon="-4.0567320">
        <ele>667.0</ele>
        <time>2019-08-13T05:53:30Z</time>
      </trkpt>
      <trkpt lat="39.8008090" lon="-4.0567250">
        <ele>666.8</ele>
        <time>2019-08-13T05:53:31Z</time>
      </trkpt>
      <trkpt lat="39.8008500" lon="-4.0567160">
        <ele>666.7</ele>
        <time>2019-08-13T05:53:32Z</time>
      </trkpt>
      <trkpt lat="39.8008930" lon="-4.0567100">
        <ele>666.6</ele>
        <time>2019-08-13T05:53:33Z</time>
      </trkpt>
      <trkpt lat="39.8009330" lon="-4.0567030">
        <ele>666.5</ele>
        <time>2019-08-13T05:53:34Z</time>
      </trkpt>
      <trkpt lat="39.8009770" lon="-4.0566940">
        <ele>666.3</ele>
        <time>2019-08-13T05:53:35Z</time>
      </trkpt>
      <trkpt lat="39.8010220" lon="-4.0566850">
        <ele>666.2</ele>
        <time>2019-08-13T05:53:36Z</time>
      </trkpt>
      <trkpt lat="39.8010680" lon="-4.0566790">
        <ele>666.0</ele>
        <time>2019-08-13T05:53:37Z</time>
      </trkpt>
      <trkpt lat="39.8011170" lon="-4.0566750">
        <ele>665.9</ele>
        <time>2019-08-13T05:53:38Z</time>
      </trkpt>
      <trkpt lat="39.8011670" lon="-4.0566710">
        <ele>665.7</ele>
        <time>2019-08-13T05:53:39Z</time>
      </trkpt>
      <trkpt lat="39.8012180" lon="-4.0566710">
        <ele>665.6</ele>
        <time>2019-08-13T05:53:40Z</time>
      </trkpt>
      <trkpt lat="39.8012720" lon="-4.0566680">
        <ele>665.4</ele>
        <time>2019-08-13T05:53:41Z</time>
      </trkpt>
      <trkpt lat="39.8013270" lon="-4.0566660">
        <ele>665.2</ele>
        <time>2019-08-13T05:53:42Z</time>
      </trkpt>
      <trkpt lat="39.8013840" lon="-4.0566660">
        <ele>665.0</ele>
        <time>2019-08-13T05:53:43Z</time>
      </trkpt>
      <trkpt lat="39.8014450" lon="-4.0566670">
        <ele>664.8</ele>
        <time>2019-08-13T05:53:44Z</time>
      </trkpt>
      <trkpt lat="39.8015060" lon="-4.0566710">
        <ele>664.6</ele>
        <time>2019-08-13T05:53:45Z</time>
      </trkpt>
      <trkpt lat="39.8015660" lon="-4.0566770">
        <ele>664.4</ele>
        <time>2019-08-13T05:53:46Z</time>
      </trkpt>
      <trkpt lat="39.8016290" lon="-4.0566830">
        <ele>664.1</ele>
        <time>2019-08-13T05:53:47Z</time>
      </trkpt>
      <trkpt lat="39.8016940" lon="-4.0566890">
        <ele>663.8</ele>
        <time>2019-08-13T05:53:48Z</time>
      </trkpt>
      <trkpt lat="39.8017590" lon="-4.0566950">
        <ele>663.6</ele>
        <time>2019-08-13T05:53:49Z</time>
      </trkpt>
      <trkpt lat="39.8018250" lon="-4.0567020">
        <ele>663.1</ele>
        <time>2019-08-13T05:53:50Z</time>
      </trkpt>
      <trkpt lat="39.8018920" lon="-4.0567070">
        <ele>662.9</ele>
        <time>2019-08-13T05:53:51Z</time>
      </trkpt>
      <trkpt lat="39.8019590" lon="-4.0567150">
        <ele>662.6</ele>
        <time>2019-08-13T05:53:52Z</time>
      </trkpt>
      <trkpt lat="39.8020280" lon="-4.0567230">
        <ele>662.4</ele>
        <time>2019-08-13T05:53:53Z</time>
      </trkpt>
      <trkpt lat="39.8020960" lon="-4.0567310">
        <ele>662.2</ele>
        <time>2019-08-13T05:53:54Z</time>
      </trkpt>
      <trkpt lat="39.8021660" lon="-4.0567380">
        <ele>662.0</ele>
        <time>2019-08-13T05:53:55Z</time>
      </trkpt>
      <trkpt lat="39.8022360" lon="-4.0567460">
        <ele>661.9</ele>
        <time>2019-08-13T05:53:56Z</time>
      </trkpt>
      <trkpt lat="39.8023060" lon="-4.0567500">
        <ele>661.6</ele>
        <time>2019-08-13T05:53:57Z</time>
      </trkpt>
      <trkpt lat="39.8023750" lon="-4.0567540">
        <ele>661.4</ele>
        <time>2019-08-13T05:53:58Z</time>
      </trkpt>
      <trkpt lat="39.8024450" lon="-4.0567570">
        <ele>661.1</ele>
        <time>2019-08-13T05:53:59Z</time>
      </trkpt>
      <trkpt lat="39.8025130" lon="-4.0567620">
        <ele>661.0</ele>
        <time>2019-08-13T05:54:00Z</time>
      </trkpt>
      <trkpt lat="39.8025800" lon="-4.0567680">
        <ele>660.8</ele>
        <time>2019-08-13T05:54:01Z</time>
      </trkpt>
      <trkpt lat="39.8026460" lon="-4.0567740">
        <ele>660.7</ele>
        <time>2019-08-13T05:54:02Z</time>
      </trkpt>
      <trkpt lat="39.8027100" lon="-4.0567810">
        <ele>660.6</ele>
        <time>2019-08-13T05:54:03Z</time>
      </trkpt>
      <trkpt lat="39.8027720" lon="-4.0567850">
        <ele>660.5</ele>
        <time>2019-08-13T05:54:04Z</time>
      </trkpt>
      <trkpt lat="39.8028320" lon="-4.0567880">
        <ele>660.5</ele>
        <time>2019-08-13T05:54:05Z</time>
      </trkpt>
      <trkpt lat="39.8028860" lon="-4.0567920">
        <ele>660.5</ele>
        <time>2019-08-13T05:54:06Z</time>
      </trkpt>
      <trkpt lat="39.8029380" lon="-4.0567960">
        <ele>660.5</ele>
        <time>2019-08-13T05:54:07Z</time>
      </trkpt>
      <trkpt lat="39.8029890" lon="-4.0567960">
        <ele>660.6</ele>
        <time>2019-08-13T05:54:08Z</time>
      </trkpt>
      <trkpt lat="39.8030400" lon="-4.0567930">
        <ele>660.5</ele>
        <time>2019-08-13T05:54:09Z</time>
      </trkpt>
      <trkpt lat="39.8030910" lon="-4.0567890">
        <ele>660.4</ele>
        <time>2019-08-13T05:54:10Z</time>
      </trkpt>
      <trkpt lat="39.8031430" lon="-4.0567880">
        <ele>660.3</ele>
        <time>2019-08-13T05:54:11Z</time>
      </trkpt>
      <trkpt lat="39.8031940" lon="-4.0567920">
        <ele>660.3</ele>
        <time>2019-08-13T05:54:12Z</time>
      </trkpt>
      <trkpt lat="39.8032450" lon="-4.0568020">
        <ele>660.3</ele>
        <time>2019-08-13T05:54:13Z</time>
      </trkpt>
      <trkpt lat="39.8032960" lon="-4.0568170">
        <ele>660.2</ele>
        <time>2019-08-13T05:54:14Z</time>
      </trkpt>
      <trkpt lat="39.8033490" lon="-4.0568340">
        <ele>660.1</ele>
        <time>2019-08-13T05:54:15Z</time>
      </trkpt>
      <trkpt lat="39.8034020" lon="-4.0568490">
        <ele>660.0</ele>
        <time>2019-08-13T05:54:16Z</time>
      </trkpt>
      <trkpt lat="39.8034550" lon="-4.0568600">
        <ele>659.9</ele>
        <time>2019-08-13T05:54:17Z</time>
      </trkpt>
      <trkpt lat="39.8035090" lon="-4.0568650">
        <ele>659.8</ele>
        <time>2019-08-13T05:54:18Z</time>
      </trkpt>
      <trkpt lat="39.8035620" lon="-4.0568670">
        <ele>659.7</ele>
        <time>2019-08-13T05:54:19Z</time>
      </trkpt>
      <trkpt lat="39.8036160" lon="-4.0568690">
        <ele>659.6</ele>
        <time>2019-08-13T05:54:20Z</time>
      </trkpt>
      <trkpt lat="39.8036690" lon="-4.0568690">
        <ele>659.4</ele>
        <time>2019-08-13T05:54:21Z</time>
      </trkpt>
      <trkpt lat="39.8037240" lon="-4.0568690">
        <ele>659.2</ele>
        <time>2019-08-13T05:54:22Z</time>
      </trkpt>
      <trkpt lat="39.8037800" lon="-4.0568680">
        <ele>659.0</ele>
        <time>2019-08-13T05:54:23Z</time>
      </trkpt>
      <trkpt lat="39.8038370" lon="-4.0568650">
        <ele>658.8</ele>
        <time>2019-08-13T05:54:24Z</time>
      </trkpt>
      <trkpt lat="39.8038970" lon="-4.0568640">
        <ele>658.5</ele>
        <time>2019-08-13T05:54:25Z</time>
      </trkpt>
      <trkpt lat="39.8039570" lon="-4.0568660">
        <ele>658.3</ele>
        <time>2019-08-13T05:54:26Z</time>
      </trkpt>
      <trkpt lat="39.8040170" lon="-4.0568690">
        <ele>658.1</ele>
        <time>2019-08-13T05:54:27Z</time>
      </trkpt>
      <trkpt lat="39.8040780" lon="-4.0568690">
        <ele>657.9</ele>
        <time>2019-08-13T05:54:28Z</time>
      </trkpt>
      <trkpt lat="39.8041400" lon="-4.0568690">
        <ele>657.6</ele>
        <time>2019-08-13T05:54:29Z</time>
      </trkpt>
      <trkpt lat="39.8042030" lon="-4.0568700">
        <ele>657.3</ele>
        <time>2019-08-13T05:54:30Z</time>
      </trkpt>
      <trkpt lat="39.8042650" lon="-4.0568710">
        <ele>657.1</ele>
        <time>2019-08-13T05:54:31Z</time>
      </trkpt>
      <trkpt lat="39.8043270" lon="-4.0568700">
        <ele>656.9</ele>
        <time>2019-08-13T05:54:32Z</time>
      </trkpt>
      <trkpt lat="39.8043870" lon="-4.0568710">
        <ele>656.8</ele>
        <time>2019-08-13T05:54:33Z</time>
      </trkpt>
      <trkpt lat="39.8044440" lon="-4.0568710">
        <ele>656.6</ele>
        <time>2019-08-13T05:54:34Z</time>
      </trkpt>
      <trkpt lat="39.8044990" lon="-4.0568710">
        <ele>656.5</ele>
        <time>2019-08-13T05:54:35Z</time>
      </trkpt>
      <trkpt lat="39.8045490" lon="-4.0568740">
        <ele>656.3</ele>
        <time>2019-08-13T05:54:36Z</time>
      </trkpt>
      <trkpt lat="39.8046000" lon="-4.0568780">
        <ele>656.2</ele>
        <time>2019-08-13T05:54:37Z</time>
      </trkpt>
      <trkpt lat="39.8046520" lon="-4.0568860">
        <ele>656.0</ele>
        <time>2019-08-13T05:54:38Z</time>
      </trkpt>
      <trkpt lat="39.8047040" lon="-4.0568920">
        <ele>655.8</ele>
        <time>2019-08-13T05:54:39Z</time>
      </trkpt>
      <trkpt lat="39.8047570" lon="-4.0568990">
        <ele>655.6</ele>
        <time>2019-08-13T05:54:40Z</time>
      </trkpt>
      <trkpt lat="39.8048120" lon="-4.0569090">
        <ele>655.4</ele>
        <time>2019-08-13T05:54:41Z</time>
      </trkpt>
      <trkpt lat="39.8048670" lon="-4.0569210">
        <ele>655.2</ele>
        <time>2019-08-13T05:54:42Z</time>
      </trkpt>
      <trkpt lat="39.8049240" lon="-4.0569370">
        <ele>655.0</ele>
        <time>2019-08-13T05:54:43Z</time>
      </trkpt>
      <trkpt lat="39.8049820" lon="-4.0569560">
        <ele>654.6</ele>
        <time>2019-08-13T05:54:44Z</time>
      </trkpt>
      <trkpt lat="39.8050390" lon="-4.0569800">
        <ele>654.3</ele>
        <time>2019-08-13T05:54:45Z</time>
      </trkpt>
      <trkpt lat="39.8050960" lon="-4.0570070">
        <ele>654.0</ele>
        <time>2019-08-13T05:54:46Z</time>
      </trkpt>
      <trkpt lat="39.8051530" lon="-4.0570370">
        <ele>653.8</ele>
        <time>2019-08-13T05:54:47Z</time>
      </trkpt>
      <trkpt lat="39.8052100" lon="-4.0570660">
        <ele>653.5</ele>
        <time>2019-08-13T05:54:48Z</time>
      </trkpt>
      <trkpt lat="39.8052660" lon="-4.0570980">
        <ele>653.4</ele>
        <time>2019-08-13T05:54:49Z</time>
      </trkpt>
      <trkpt lat="39.8053220" lon="-4.0571320">
        <ele>653.4</ele>
        <time>2019-08-13T05:54:50Z</time>
      </trkpt>
      <trkpt lat="39.8053780" lon="-4.0571670">
        <ele>653.4</ele>
        <time>2019-08-13T05:54:51Z</time>
      </trkpt>
      <trkpt lat="39.8054320" lon="-4.0572000">
        <ele>653.4</ele>
        <time>2019-08-13T05:54:52Z</time>
      </trkpt>
      <trkpt lat="39.8054860" lon="-4.0572270">
        <ele>653.4</ele>
        <time>2019-08-13T05:54:53Z</time>
      </trkpt>
      <trkpt lat="39.8055400" lon="-4.0572490">
        <ele>653.4</ele>
        <time>2019-08-13T05:54:54Z</time>
      </trkpt>
      <trkpt lat="39.8055950" lon="-4.0572680">
        <ele>653.4</ele>
        <time>2019-08-13T05:54:55Z</time>
      </trkpt>
      <trkpt lat="39.8056490" lon="-4.0572860">
        <ele>653.4</ele>
        <time>2019-08-13T05:54:56Z</time>
      </trkpt>
      <trkpt lat="39.8057030" lon="-4.0573030">
        <ele>653.4</ele>
        <time>2019-08-13T05:54:57Z</time>
      </trkpt>
      <trkpt lat="39.8057580" lon="-4.0573150">
        <ele>653.5</ele>
        <time>2019-08-13T05:54:58Z</time>
      </trkpt>
      <trkpt lat="39.8058150" lon="-4.0573220">
        <ele>653.5</ele>
        <time>2019-08-13T05:54:59Z</time>
      </trkpt>
      <trkpt lat="39.8058700" lon="-4.0573250">
        <ele>653.5</ele>
        <time>2019-08-13T05:55:00Z</time>
      </trkpt>
      <trkpt lat="39.8059240" lon="-4.0573180">
        <ele>653.5</ele>
        <time>2019-08-13T05:55:01Z</time>
      </trkpt>
      <trkpt lat="39.8059790" lon="-4.0573020">
        <ele>653.6</ele>
        <time>2019-08-13T05:55:02Z</time>
      </trkpt>
      <trkpt lat="39.8060340" lon="-4.0572840">
        <ele>653.6</ele>
        <time>2019-08-13T05:55:03Z</time>
      </trkpt>
      <trkpt lat="39.8060870" lon="-4.0572660">
        <ele>653.7</ele>
        <time>2019-08-13T05:55:04Z</time>
      </trkpt>
      <trkpt lat="39.8061380" lon="-4.0572510">
        <ele>653.8</ele>
        <time>2019-08-13T05:55:05Z</time>
      </trkpt>
      <trkpt lat="39.8061890" lon="-4.0572360">
        <ele>653.9</ele>
        <time>2019-08-13T05:55:06Z</time>
      </trkpt>
      <trkpt lat="39.8062390" lon="-4.0572230">
        <ele>653.9</ele>
        <time>2019-08-13T05:55:07Z</time>
      </trkpt>
      <trkpt lat="39.8062890" lon="-4.0572070">
        <ele>654.0</ele>
        <time>2019-08-13T05:55:08Z</time>
      </trkpt>
      <trkpt lat="39.8063390" lon="-4.0571940">
        <ele>654.1</ele>
        <time>2019-08-13T05:55:09Z</time>
      </trkpt>
      <trkpt lat="39.8063870" lon="-4.0571810">
        <ele>654.2</ele>
        <time>2019-08-13T05:55:10Z</time>
      </trkpt>
      <trkpt lat="39.8064330" lon="-4.0571660">
        <ele>654.2</ele>
        <time>2019-08-13T05:55:11Z</time>
      </trkpt>
      <trkpt lat="39.8064800" lon="-4.0571510">
        <ele>654.3</ele>
        <time>2019-08-13T05:55:12Z</time>
      </trkpt>
      <trkpt lat="39.8065280" lon="-4.0571400">
        <ele>654.4</ele>
        <time>2019-08-13T05:55:13Z</time>
      </trkpt>
      <trkpt lat="39.8065740" lon="-4.0571290">
        <ele>654.4</ele>
        <time>2019-08-13T05:55:14Z</time>
      </trkpt>
      <trkpt lat="39.8066200" lon="-4.0571170">
        <ele>654.5</ele>
        <time>2019-08-13T05:55:15Z</time>
      </trkpt>
      <trkpt lat="39.8066650" lon="-4.0571090">
        <ele>654.6</ele>
        <time>2019-08-13T05:55:16Z</time>
      </trkpt>
      <trkpt lat="39.8067110" lon="-4.0571070">
        <ele>654.8</ele>
        <time>2019-08-13T05:55:17Z</time>
      </trkpt>
      <trkpt lat="39.8067570" lon="-4.0571120">
        <ele>654.8</ele>
        <time>2019-08-13T05:55:18Z</time>
      </trkpt>
      <trkpt lat="39.8068000" lon="-4.0571240">
        <ele>654.9</ele>
        <time>2019-08-13T05:55:19Z</time>
      </trkpt>
      <trkpt lat="39.8068410" lon="-4.0571440">
        <ele>655.0</ele>
        <time>2019-08-13T05:55:20Z</time>
      </trkpt>
      <trkpt lat="39.8068820" lon="-4.0571700">
        <ele>655.0</ele>
        <time>2019-08-13T05:55:21Z</time>
      </trkpt>
      <trkpt lat="39.8069220" lon="-4.0571960">
        <ele>655.1</ele>
        <time>2019-08-13T05:55:22Z</time>
      </trkpt>
      <trkpt lat="39.8069610" lon="-4.0572220">
        <ele>655.2</ele>
        <time>2019-08-13T05:55:23Z</time>
      </trkpt>
      <trkpt lat="39.8069990" lon="-4.0572460">
        <ele>655.2</ele>
        <time>2019-08-13T05:55:24Z</time>
      </trkpt>
      <trkpt lat="39.8070360" lon="-4.0572610">
        <ele>655.3</ele>
        <time>2019-08-13T05:55:25Z</time>
      </trkpt>
      <trkpt lat="39.8070740" lon="-4.0572630">
        <ele>655.4</ele>
        <time>2019-08-13T05:55:26Z</time>
      </trkpt>
      <trkpt lat="39.8071120" lon="-4.0572610">
        <ele>655.6</ele>
        <time>2019-08-13T05:55:27Z</time>
      </trkpt>
      <trkpt lat="39.8071490" lon="-4.0572610">
        <ele>655.8</ele>
        <time>2019-08-13T05:55:28Z</time>
      </trkpt>
      <trkpt lat="39.8071850" lon="-4.0572610">
        <ele>655.9</ele>
        <time>2019-08-13T05:55:29Z</time>
      </trkpt>
      <trkpt lat="39.8072210" lon="-4.0572630">
        <ele>656.1</ele>
        <time>2019-08-13T05:55:30Z</time>
      </trkpt>
      <trkpt lat="39.8072570" lon="-4.0572740">
        <ele>656.3</ele>
        <time>2019-08-13T05:55:31Z</time>
      </trkpt>
      <trkpt lat="39.8072940" lon="-4.0572880">
        <ele>656.4</ele>
        <time>2019-08-13T05:55:32Z</time>
      </trkpt>
      <trkpt lat="39.8073270" lon="-4.0573050">
        <ele>656.6</ele>
        <time>2019-08-13T05:55:33Z</time>
      </trkpt>
      <trkpt lat="39.8073590" lon="-4.0573250">
        <ele>656.7</ele>
        <time>2019-08-13T05:55:34Z</time>
      </trkpt>
      <trkpt lat="39.8073900" lon="-4.0573470">
        <ele>656.8</ele>
        <time>2019-08-13T05:55:35Z</time>
      </trkpt>
      <trkpt lat="39.8074210" lon="-4.0573690">
        <ele>656.8</ele>
        <time>2019-08-13T05:55:36Z</time>
      </trkpt>
      <trkpt lat="39.8074500" lon="-4.0573940">
        <ele>656.8</ele>
        <time>2019-08-13T05:55:37Z</time>
      </trkpt>
      <trkpt lat="39.8074800" lon="-4.0574150">
        <ele>656.9</ele>
        <time>2019-08-13T05:55:38Z</time>
      </trkpt>
      <trkpt lat="39.8075110" lon="-4.0574340">
        <ele>656.8</ele>
        <time>2019-08-13T05:55:39Z</time>
      </trkpt>
      <trkpt lat="39.8075420" lon="-4.0574510">
        <ele>656.8</ele>
        <time>2019-08-13T05:55:40Z</time>
      </trkpt>
      <trkpt lat="39.8075730" lon="-4.0574670">
        <ele>656.7</ele>
        <time>2019-08-13T05:55:41Z</time>
      </trkpt>
      <trkpt lat="39.8076020" lon="-4.0574830">
        <ele>656.6</ele>
        <time>2019-08-13T05:55:42Z</time>
      </trkpt>
      <trkpt lat="39.8076300" lon="-4.0575000">
        <ele>656.5</ele>
        <time>2019-08-13T05:55:43Z</time>
      </trkpt>
      <trkpt lat="39.8076560" lon="-4.0575160">
        <ele>656.3</ele>
        <time>2019-08-13T05:55:44Z</time>
      </trkpt>
      <trkpt lat="39.8076820" lon="-4.0575320">
        <ele>656.2</ele>
        <time>2019-08-13T05:55:45Z</time>
      </trkpt>
      <trkpt lat="39.8077100" lon="-4.0575480">
        <ele>656.1</ele>
        <time>2019-08-13T05:55:46Z</time>
      </trkpt>
      <trkpt lat="39.8077380" lon="-4.0575640">
        <ele>655.9</ele>
        <time>2019-08-13T05:55:47Z</time>
      </trkpt>
      <trkpt lat="39.8077690" lon="-4.0575810">
        <ele>655.8</ele>
        <time>2019-08-13T05:55:48Z</time>
      </trkpt>
      <trkpt lat="39.8078020" lon="-4.0575990">
        <ele>655.6</ele>
        <time>2019-08-13T05:55:49Z</time>
      </trkpt>
      <trkpt lat="39.8078380" lon="-4.0576180">
        <ele>655.5</ele>
        <time>2019-08-13T05:55:50Z</time>
      </trkpt>
      <trkpt lat="39.8078760" lon="-4.0576360">
        <ele>655.4</ele>
        <time>2019-08-13T05:55:51Z</time>
      </trkpt>
      <trkpt lat="39.8079160" lon="-4.0576540">
        <ele>655.3</ele>
        <time>2019-08-13T05:55:52Z</time>
      </trkpt>
      <trkpt lat="39.8079570" lon="-4.0576710">
        <ele>655.3</ele>
        <time>2019-08-13T05:55:53Z</time>
      </trkpt>
      <trkpt lat="39.8080000" lon="-4.0576870">
        <ele>655.1</ele>
        <time>2019-08-13T05:55:54Z</time>
      </trkpt>
      <trkpt lat="39.8080430" lon="-4.0577010">
        <ele>655.0</ele>
        <time>2019-08-13T05:55:55Z</time>
      </trkpt>
      <trkpt lat="39.8080880" lon="-4.0577110">
        <ele>654.9</ele>
        <time>2019-08-13T05:55:56Z</time>
      </trkpt>
      <trkpt lat="39.8081360" lon="-4.0577180">
        <ele>654.8</ele>
        <time>2019-08-13T05:55:57Z</time>
      </trkpt>
      <trkpt lat="39.8081840" lon="-4.0577240">
        <ele>654.7</ele>
        <time>2019-08-13T05:55:58Z</time>
      </trkpt>
      <trkpt lat="39.8082330" lon="-4.0577290">
        <ele>654.6</ele>
        <time>2019-08-13T05:55:59Z</time>
      </trkpt>
      <trkpt lat="39.8082810" lon="-4.0577310">
        <ele>654.5</ele>
        <time>2019-08-13T05:56:00Z</time>
      </trkpt>
      <trkpt lat="39.8083280" lon="-4.0577350">
        <ele>654.3</ele>
        <time>2019-08-13T05:56:01Z</time>
      </trkpt>
      <trkpt lat="39.8083760" lon="-4.0577350">
        <ele>654.1</ele>
        <time>2019-08-13T05:56:02Z</time>
      </trkpt>
      <trkpt lat="39.8084240" lon="-4.0577330">
        <ele>654.0</ele>
        <time>2019-08-13T05:56:03Z</time>
      </trkpt>
      <trkpt lat="39.8084760" lon="-4.0577310">
        <ele>653.8</ele>
        <time>2019-08-13T05:56:04Z</time>
      </trkpt>
      <trkpt lat="39.8085290" lon="-4.0577310">
        <ele>653.7</ele>
        <time>2019-08-13T05:56:05Z</time>
      </trkpt>
      <trkpt lat="39.8085840" lon="-4.0577320">
        <ele>653.5</ele>
        <time>2019-08-13T05:56:06Z</time>
      </trkpt>
      <trkpt lat="39.8086420" lon="-4.0577310">
        <ele>653.2</ele>
        <time>2019-08-13T05:56:07Z</time>
      </trkpt>
      <trkpt lat="39.8087020" lon="-4.0577290">
        <ele>653.0</ele>
        <time>2019-08-13T05:56:08Z</time>
      </trkpt>
      <trkpt lat="39.8087620" lon="-4.0577300">
        <ele>652.9</ele>
        <time>2019-08-13T05:56:09Z</time>
      </trkpt>
      <trkpt lat="39.8088240" lon="-4.0577300">
        <ele>652.8</ele>
        <time>2019-08-13T05:56:10Z</time>
      </trkpt>
      <trkpt lat="39.8088860" lon="-4.0577280">
        <ele>652.7</ele>
        <time>2019-08-13T05:56:11Z</time>
      </trkpt>
      <trkpt lat="39.8089470" lon="-4.0577270">
        <ele>652.6</ele>
        <time>2019-08-13T05:56:12Z</time>
      </trkpt>
      <trkpt lat="39.8090090" lon="-4.0577260">
        <ele>652.5</ele>
        <time>2019-08-13T05:56:13Z</time>
      </trkpt>
      <trkpt lat="39.8090690" lon="-4.0577280">
        <ele>652.5</ele>
        <time>2019-08-13T05:56:14Z</time>
      </trkpt>
      <trkpt lat="39.8091270" lon="-4.0577290">
        <ele>652.5</ele>
        <time>2019-08-13T05:56:15Z</time>
      </trkpt>
      <trkpt lat="39.8091840" lon="-4.0577260">
        <ele>652.4</ele>
        <time>2019-08-13T05:56:16Z</time>
      </trkpt>
      <trkpt lat="39.8092410" lon="-4.0577230">
        <ele>652.4</ele>
        <time>2019-08-13T05:56:17Z</time>
      </trkpt>
      <trkpt lat="39.8092980" lon="-4.0577210">
        <ele>652.4</ele>
        <time>2019-08-13T05:56:18Z</time>
      </trkpt>
      <trkpt lat="39.8093500" lon="-4.0577240">
        <ele>652.4</ele>
        <time>2019-08-13T05:56:19Z</time>
      </trkpt>
      <trkpt lat="39.8093990" lon="-4.0577250">
        <ele>652.4</ele>
        <time>2019-08-13T05:56:20Z</time>
      </trkpt>
      <trkpt lat="39.8094490" lon="-4.0577250">
        <ele>652.4</ele>
        <time>2019-08-13T05:56:21Z</time>
      </trkpt>
      <trkpt lat="39.8094990" lon="-4.0577230">
        <ele>652.4</ele>
        <time>2019-08-13T05:56:22Z</time>
      </trkpt>
      <trkpt lat="39.8095480" lon="-4.0577210">
        <ele>652.4</ele>
        <time>2019-08-13T05:56:23Z</time>
      </trkpt>
      <trkpt lat="39.8095990" lon="-4.0577210">
        <ele>652.4</ele>
        <time>2019-08-13T05:56:24Z</time>
      </trkpt>
      <trkpt lat="39.8096490" lon="-4.0577190">
        <ele>652.5</ele>
        <time>2019-08-13T05:56:25Z</time>
      </trkpt>
      <trkpt lat="39.8096990" lon="-4.0577190">
        <ele>652.5</ele>
        <time>2019-08-13T05:56:26Z</time>
      </trkpt>
      <trkpt lat="39.8097480" lon="-4.0577170">
        <ele>652.6</ele>
        <time>2019-08-13T05:56:27Z</time>
      </trkpt>
      <trkpt lat="39.8097980" lon="-4.0577080">
        <ele>652.6</ele>
        <time>2019-08-13T05:56:28Z</time>
      </trkpt>
      <trkpt lat="39.8098490" lon="-4.0576970">
        <ele>652.6</ele>
        <time>2019-08-13T05:56:29Z</time>
      </trkpt>
      <trkpt lat="39.8098990" lon="-4.0576910">
        <ele>652.5</ele>
        <time>2019-08-13T05:56:30Z</time>
      </trkpt>
      <trkpt lat="39.8099500" lon="-4.0576920">
        <ele>652.5</ele>
        <time>2019-08-13T05:56:31Z</time>
      </trkpt>
      <trkpt lat="39.8100010" lon="-4.0576980">
        <ele>652.5</ele>
        <time>2019-08-13T05:56:32Z</time>
      </trkpt>
      <trkpt lat="39.8100520" lon="-4.0577050">
        <ele>652.5</ele>
        <time>2019-08-13T05:56:33Z</time>
      </trkpt>
      <trkpt lat="39.8101030" lon="-4.0577100">
        <ele>652.4</ele>
        <time>2019-08-13T05:56:34Z</time>
      </trkpt>
      <trkpt lat="39.8101540" lon="-4.0577120">
        <ele>652.4</ele>
        <time>2019-08-13T05:56:35Z</time>
      </trkpt>
      <trkpt lat="39.8102040" lon="-4.0577090">
        <ele>652.4</ele>
        <time>2019-08-13T05:56:36Z</time>
      </trkpt>
      <trkpt lat="39.8102530" lon="-4.0577050">
        <ele>652.4</ele>
        <time>2019-08-13T05:56:37Z</time>
      </trkpt>
      <trkpt lat="39.8103010" lon="-4.0577010">
        <ele>652.4</ele>
        <time>2019-08-13T05:56:38Z</time>
      </trkpt>
      <trkpt lat="39.8103460" lon="-4.0577000">
        <ele>652.3</ele>
        <time>2019-08-13T05:56:39Z</time>
      </trkpt>
      <trkpt lat="39.8103920" lon="-4.0576980">
        <ele>652.3</ele>
        <time>2019-08-13T05:56:40Z</time>
      </trkpt>
      <trkpt lat="39.8104360" lon="-4.0576950">
        <ele>652.3</ele>
        <time>2019-08-13T05:56:41Z</time>
      </trkpt>
      <trkpt lat="39.8104820" lon="-4.0576900">
        <ele>652.3</ele>
        <time>2019-08-13T05:56:42Z</time>
      </trkpt>
      <trkpt lat="39.8105280" lon="-4.0576840">
        <ele>652.3</ele>
        <time>2019-08-13T05:56:43Z</time>
      </trkpt>
      <trkpt lat="39.8105760" lon="-4.0576760">
        <ele>652.3</ele>
        <time>2019-08-13T05:56:44Z</time>
      </trkpt>
      <trkpt lat="39.8106240" lon="-4.0576650">
        <ele>652.2</ele>
        <time>2019-08-13T05:56:45Z</time>
      </trkpt>
      <trkpt lat="39.8106720" lon="-4.0576520">
        <ele>652.2</ele>
        <time>2019-08-13T05:56:46Z</time>
      </trkpt>
      <trkpt lat="39.8107200" lon="-4.0576370">
        <ele>652.2</ele>
        <time>2019-08-13T05:56:47Z</time>
      </trkpt>
      <trkpt lat="39.8107660" lon="-4.0576230">
        <ele>652.2</ele>
        <time>2019-08-13T05:56:48Z</time>
      </trkpt>
      <trkpt lat="39.8108130" lon="-4.0576080">
        <ele>652.2</ele>
        <time>2019-08-13T05:56:49Z</time>
      </trkpt>
      <trkpt lat="39.8108600" lon="-4.0575900">
        <ele>652.2</ele>
        <time>2019-08-13T05:56:50Z</time>
      </trkpt>
      <trkpt lat="39.8109070" lon="-4.0575730">
        <ele>652.2</ele>
        <time>2019-08-13T05:56:51Z</time>
      </trkpt>
      <trkpt lat="39.8109550" lon="-4.0575540">
        <ele>652.2</ele>
        <time>2019-08-13T05:56:52Z</time>
      </trkpt>
      <trkpt lat="39.8110030" lon="-4.0575370">
        <ele>652.2</ele>
        <time>2019-08-13T05:56:53Z</time>
      </trkpt>
      <trkpt lat="39.8110510" lon="-4.0575210">
        <ele>652.2</ele>
        <time>2019-08-13T05:56:54Z</time>
      </trkpt>
      <trkpt lat="39.8111000" lon="-4.0575020">
        <ele>652.2</ele>
        <time>2019-08-13T05:56:55Z</time>
      </trkpt>
      <trkpt lat="39.8111470" lon="-4.0574840">
        <ele>652.2</ele>
        <time>2019-08-13T05:56:56Z</time>
      </trkpt>
      <trkpt lat="39.8111960" lon="-4.0574660">
        <ele>652.2</ele>
        <time>2019-08-13T05:56:57Z</time>
      </trkpt>
      <trkpt lat="39.8112440" lon="-4.0574480">
        <ele>652.2</ele>
        <time>2019-08-13T05:56:58Z</time>
      </trkpt>
      <trkpt lat="39.8112910" lon="-4.0574300">
        <ele>652.2</ele>
        <time>2019-08-13T05:56:59Z</time>
      </trkpt>
      <trkpt lat="39.8113390" lon="-4.0574110">
        <ele>652.2</ele>
        <time>2019-08-13T05:57:00Z</time>
      </trkpt>
      <trkpt lat="39.8113860" lon="-4.0573940">
        <ele>652.2</ele>
        <time>2019-08-13T05:57:01Z</time>
      </trkpt>
      <trkpt lat="39.8114310" lon="-4.0573770">
        <ele>652.2</ele>
        <time>2019-08-13T05:57:02Z</time>
      </trkpt>
      <trkpt lat="39.8114740" lon="-4.0573590">
        <ele>652.2</ele>
        <time>2019-08-13T05:57:03Z</time>
      </trkpt>
      <trkpt lat="39.8115160" lon="-4.0573420">
        <ele>652.2</ele>
        <time>2019-08-13T05:57:04Z</time>
      </trkpt>
      <trkpt lat="39.8115570" lon="-4.0573270">
        <ele>652.2</ele>
        <time>2019-08-13T05:57:05Z</time>
      </trkpt>
      <trkpt lat="39.8115970" lon="-4.0573110">
        <ele>652.2</ele>
        <time>2019-08-13T05:57:06Z</time>
      </trkpt>
      <trkpt lat="39.8116390" lon="-4.0572970">
        <ele>652.2</ele>
        <time>2019-08-13T05:57:07Z</time>
      </trkpt>
      <trkpt lat="39.8116820" lon="-4.0572820">
        <ele>652.2</ele>
        <time>2019-08-13T05:57:08Z</time>
      </trkpt>
      <trkpt lat="39.8117260" lon="-4.0572660">
        <ele>652.2</ele>
        <time>2019-08-13T05:57:09Z</time>
      </trkpt>
      <trkpt lat="39.8117710" lon="-4.0572490">
        <ele>652.2</ele>
        <time>2019-08-13T05:57:10Z</time>
      </trkpt>
      <trkpt lat="39.8118150" lon="-4.0572330">
        <ele>652.2</ele>
        <time>2019-08-13T05:57:11Z</time>
      </trkpt>
      <trkpt lat="39.8118600" lon="-4.0572170">
        <ele>652.2</ele>
        <time>2019-08-13T05:57:12Z</time>
      </trkpt>
      <trkpt lat="39.8119050" lon="-4.0572010">
        <ele>652.2</ele>
        <time>2019-08-13T05:57:13Z</time>
      </trkpt>
      <trkpt lat="39.8119500" lon="-4.0571850">
        <ele>652.2</ele>
        <time>2019-08-13T05:57:14Z</time>
      </trkpt>
      <trkpt lat="39.8119940" lon="-4.0571690">
        <ele>652.2</ele>
        <time>2019-08-13T05:57:15Z</time>
      </trkpt>
      <trkpt lat="39.8120390" lon="-4.0571520">
        <ele>652.2</ele>
        <time>2019-08-13T05:57:16Z</time>
      </trkpt>
      <trkpt lat="39.8120840" lon="-4.0571360">
        <ele>652.2</ele>
        <time>2019-08-13T05:57:17Z</time>
      </trkpt>
      <trkpt lat="39.8121280" lon="-4.0571190">
        <ele>652.2</ele>
        <time>2019-08-13T05:57:18Z</time>
      </trkpt>
      <trkpt lat="39.8121740" lon="-4.0571020">
        <ele>652.2</ele>
        <time>2019-08-13T05:57:19Z</time>
      </trkpt>
      <trkpt lat="39.8122190" lon="-4.0570830">
        <ele>652.2</ele>
        <time>2019-08-13T05:57:20Z</time>
      </trkpt>
      <trkpt lat="39.8122640" lon="-4.0570660">
        <ele>652.2</ele>
        <time>2019-08-13T05:57:21Z</time>
      </trkpt>
      <trkpt lat="39.8123090" lon="-4.0570500">
        <ele>652.2</ele>
        <time>2019-08-13T05:57:22Z</time>
      </trkpt>
      <trkpt lat="39.8123540" lon="-4.0570320">
        <ele>652.2</ele>
        <time>2019-08-13T05:57:23Z</time>
      </trkpt>
      <trkpt lat="39.8123980" lon="-4.0570150">
        <ele>652.2</ele>
        <time>2019-08-13T05:57:24Z</time>
      </trkpt>
      <trkpt lat="39.8124420" lon="-4.0569980">
        <ele>652.2</ele>
        <time>2019-08-13T05:57:25Z</time>
      </trkpt>
      <trkpt lat="39.8124850" lon="-4.0569820">
        <ele>652.2</ele>
        <time>2019-08-13T05:57:26Z</time>
      </trkpt>
      <trkpt lat="39.8125280" lon="-4.0569660">
        <ele>652.2</ele>
        <time>2019-08-13T05:57:27Z</time>
      </trkpt>
      <trkpt lat="39.8125700" lon="-4.0569490">
        <ele>652.3</ele>
        <time>2019-08-13T05:57:28Z</time>
      </trkpt>
      <trkpt lat="39.8126120" lon="-4.0569360">
        <ele>652.3</ele>
        <time>2019-08-13T05:57:29Z</time>
      </trkpt>
      <trkpt lat="39.8126520" lon="-4.0569220">
        <ele>652.3</ele>
        <time>2019-08-13T05:57:30Z</time>
      </trkpt>
      <trkpt lat="39.8126930" lon="-4.0569070">
        <ele>652.3</ele>
        <time>2019-08-13T05:57:31Z</time>
      </trkpt>
      <trkpt lat="39.8127330" lon="-4.0568930">
        <ele>652.3</ele>
        <time>2019-08-13T05:57:32Z</time>
      </trkpt>
      <trkpt lat="39.8127740" lon="-4.0568790">
        <ele>652.3</ele>
        <time>2019-08-13T05:57:33Z</time>
      </trkpt>
      <trkpt lat="39.8128150" lon="-4.0568650">
        <ele>652.3</ele>
        <time>2019-08-13T05:57:34Z</time>
      </trkpt>
      <trkpt lat="39.8128560" lon="-4.0568520">
        <ele>652.4</ele>
        <time>2019-08-13T05:57:35Z</time>
      </trkpt>
      <trkpt lat="39.8128950" lon="-4.0568370">
        <ele>652.4</ele>
        <time>2019-08-13T05:57:36Z</time>
      </trkpt>
      <trkpt lat="39.8129330" lon="-4.0568230">
        <ele>652.4</ele>
        <time>2019-08-13T05:57:37Z</time>
      </trkpt>
      <trkpt lat="39.8129700" lon="-4.0568110">
        <ele>652.5</ele>
        <time>2019-08-13T05:57:38Z</time>
      </trkpt>
      <trkpt lat="39.8130080" lon="-4.0568070">
        <ele>652.5</ele>
        <time>2019-08-13T05:57:39Z</time>
      </trkpt>
      <trkpt lat="39.8130430" lon="-4.0568150">
        <ele>652.6</ele>
        <time>2019-08-13T05:57:40Z</time>
      </trkpt>
      <trkpt lat="39.8130700" lon="-4.0568380">
        <ele>652.6</ele>
        <time>2019-08-13T05:57:41Z</time>
      </trkpt>
      <trkpt lat="39.8130890" lon="-4.0568670">
        <ele>652.7</ele>
        <time>2019-08-13T05:57:42Z</time>
      </trkpt>
      <trkpt lat="39.8131030" lon="-4.0568970">
        <ele>652.7</ele>
        <time>2019-08-13T05:57:43Z</time>
      </trkpt>
      <trkpt lat="39.8131270" lon="-4.0569480">
        <ele>652.8</ele>
        <time>2019-08-13T05:57:45Z</time>
      </trkpt>
      <trkpt lat="39.8131590" lon="-4.0569730">
        <ele>652.8</ele>
        <time>2019-08-13T05:57:47Z</time>
      </trkpt>
      <trkpt lat="39.8131970" lon="-4.0569710">
        <ele>652.9</ele>
        <time>2019-08-13T05:57:49Z</time>
      </trkpt>
      <trkpt lat="39.8132240" lon="-4.0569740">
        <ele>652.9</ele>
        <time>2019-08-13T05:57:51Z</time>
      </trkpt>
      <trkpt lat="39.8132240" lon="-4.0569910">
        <ele>653.0</ele>
        <time>2019-08-13T05:57:56Z</time>
      </trkpt>
      <trkpt lat="39.8131910" lon="-4.0570000">
        <ele>653.0</ele>
        <time>2019-08-13T05:57:59Z</time>
      </trkpt>
      <trkpt lat="39.8131640" lon="-4.0569900">
        <ele>653.1</ele>
        <time>2019-08-13T05:58:00Z</time>
      </trkpt>
      <trkpt lat="39.8131350" lon="-4.0569960">
        <ele>653.1</ele>
        <time>2019-08-13T05:58:03Z</time>
      </trkpt>
      <trkpt lat="39.8131020" lon="-4.0569750">
        <ele>653.2</ele>
        <time>2019-08-13T05:58:06Z</time>
      </trkpt>
      <trkpt lat="39.8131080" lon="-4.0569230">
        <ele>653.2</ele>
        <time>2019-08-13T05:58:08Z</time>
      </trkpt>
      <trkpt lat="39.8131260" lon="-4.0568970">
        <ele>653.2</ele>
        <time>2019-08-13T05:58:09Z</time>
      </trkpt>
      <trkpt lat="39.8131500" lon="-4.0568760">
        <ele>653.3</ele>
        <time>2019-08-13T05:58:10Z</time>
      </trkpt>
      <trkpt lat="39.8131790" lon="-4.0568610">
        <ele>653.3</ele>
        <time>2019-08-13T05:58:11Z</time>
      </trkpt>
      <trkpt lat="39.8132090" lon="-4.0568490">
        <ele>653.3</ele>
        <time>2019-08-13T05:58:12Z</time>
      </trkpt>
      <trkpt lat="39.8132390" lon="-4.0568400">
        <ele>653.4</ele>
        <time>2019-08-13T05:58:13Z</time>
      </trkpt>
      <trkpt lat="39.8132680" lon="-4.0568320">
        <ele>653.4</ele>
        <time>2019-08-13T05:58:14Z</time>
      </trkpt>
      <trkpt lat="39.8132980" lon="-4.0568260">
        <ele>653.4</ele>
        <time>2019-08-13T05:58:15Z</time>
      </trkpt>
      <trkpt lat="39.8133250" lon="-4.0568200">
        <ele>653.5</ele>
        <time>2019-08-13T05:58:16Z</time>
      </trkpt>
      <trkpt lat="39.8133510" lon="-4.0568100">
        <ele>653.5</ele>
        <time>2019-08-13T05:58:17Z</time>
      </trkpt>
      <trkpt lat="39.8133940" lon="-4.0567770">
        <ele>653.5</ele>
        <time>2019-08-13T05:58:19Z</time>
      </trkpt>
      <trkpt lat="39.8134360" lon="-4.0567270">
        <ele>653.6</ele>
        <time>2019-08-13T05:58:21Z</time>
      </trkpt>
      <trkpt lat="39.8134680" lon="-4.0567000">
        <ele>653.6</ele>
        <time>2019-08-13T05:58:22Z</time>
      </trkpt>
      <trkpt lat="39.8135050" lon="-4.0566660">
        <ele>653.7</ele>
        <time>2019-08-13T05:58:23Z</time>
      </trkpt>
      <trkpt lat="39.8135370" lon="-4.0566160">
        <ele>653.8</ele>
        <time>2019-08-13T05:58:24Z</time>
      </trkpt>
      <trkpt lat="39.8135660" lon="-4.0565590">
        <ele>653.9</ele>
        <time>2019-08-13T05:58:25Z</time>
      </trkpt>
      <trkpt lat="39.8136010" lon="-4.0565080">
        <ele>654.1</ele>
        <time>2019-08-13T05:58:26Z</time>
      </trkpt>
      <trkpt lat="39.8136450" lon="-4.0564730">
        <ele>654.0</ele>
        <time>2019-08-13T05:58:27Z</time>
      </trkpt>
      <trkpt lat="39.8136980" lon="-4.0564580">
        <ele>653.9</ele>
        <time>2019-08-13T05:58:28Z</time>
      </trkpt>
      <trkpt lat="39.8137520" lon="-4.0564580">
        <ele>653.8</ele>
        <time>2019-08-13T05:58:29Z</time>
      </trkpt>
      <trkpt lat="39.8138060" lon="-4.0564670">
        <ele>653.5</ele>
        <time>2019-08-13T05:58:30Z</time>
      </trkpt>
      <trkpt lat="39.8138590" lon="-4.0564700">
        <ele>653.5</ele>
        <time>2019-08-13T05:58:31Z</time>
      </trkpt>
      <trkpt lat="39.8139120" lon="-4.0564610">
        <ele>653.6</ele>
        <time>2019-08-13T05:58:32Z</time>
      </trkpt>
      <trkpt lat="39.8139630" lon="-4.0564430">
        <ele>653.7</ele>
        <time>2019-08-13T05:58:33Z</time>
      </trkpt>
      <trkpt lat="39.8140130" lon="-4.0564220">
        <ele>653.7</ele>
        <time>2019-08-13T05:58:34Z</time>
      </trkpt>
      <trkpt lat="39.8140630" lon="-4.0564030">
        <ele>653.8</ele>
        <time>2019-08-13T05:58:35Z</time>
      </trkpt>
      <trkpt lat="39.8141140" lon="-4.0563830">
        <ele>653.8</ele>
        <time>2019-08-13T05:58:36Z</time>
      </trkpt>
      <trkpt lat="39.8141650" lon="-4.0563640">
        <ele>653.9</ele>
        <time>2019-08-13T05:58:37Z</time>
      </trkpt>
      <trkpt lat="39.8142140" lon="-4.0563450">
        <ele>653.9</ele>
        <time>2019-08-13T05:58:38Z</time>
      </trkpt>
      <trkpt lat="39.8142620" lon="-4.0563250">
        <ele>654.0</ele>
        <time>2019-08-13T05:58:39Z</time>
      </trkpt>
      <trkpt lat="39.8143090" lon="-4.0563070">
        <ele>654.0</ele>
        <time>2019-08-13T05:58:40Z</time>
      </trkpt>
      <trkpt lat="39.8143550" lon="-4.0562890">
        <ele>654.0</ele>
        <time>2019-08-13T05:58:41Z</time>
      </trkpt>
      <trkpt lat="39.8144020" lon="-4.0562720">
        <ele>654.0</ele>
        <time>2019-08-13T05:58:42Z</time>
      </trkpt>
      <trkpt lat="39.8144500" lon="-4.0562560">
        <ele>654.0</ele>
        <time>2019-08-13T05:58:43Z</time>
      </trkpt>
      <trkpt lat="39.8144980" lon="-4.0562390">
        <ele>654.0</ele>
        <time>2019-08-13T05:58:44Z</time>
      </trkpt>
      <trkpt lat="39.8145470" lon="-4.0562220">
        <ele>654.0</ele>
        <time>2019-08-13T05:58:45Z</time>
      </trkpt>
      <trkpt lat="39.8145960" lon="-4.0562070">
        <ele>654.0</ele>
        <time>2019-08-13T05:58:46Z</time>
      </trkpt>
      <trkpt lat="39.8146450" lon="-4.0561930">
        <ele>654.0</ele>
        <time>2019-08-13T05:58:47Z</time>
      </trkpt>
      <trkpt lat="39.8146940" lon="-4.0561800">
        <ele>653.9</ele>
        <time>2019-08-13T05:58:48Z</time>
      </trkpt>
      <trkpt lat="39.8147430" lon="-4.0561660">
        <ele>653.9</ele>
        <time>2019-08-13T05:58:49Z</time>
      </trkpt>
      <trkpt lat="39.8147920" lon="-4.0561550">
        <ele>653.8</ele>
        <time>2019-08-13T05:58:50Z</time>
      </trkpt>
      <trkpt lat="39.8148420" lon="-4.0561440">
        <ele>653.7</ele>
        <time>2019-08-13T05:58:51Z</time>
      </trkpt>
      <trkpt lat="39.8148920" lon="-4.0561350">
        <ele>653.6</ele>
        <time>2019-08-13T05:58:52Z</time>
      </trkpt>
      <trkpt lat="39.8149420" lon="-4.0561280">
        <ele>653.5</ele>
        <time>2019-08-13T05:58:53Z</time>
      </trkpt>
      <trkpt lat="39.8149940" lon="-4.0561230">
        <ele>653.4</ele>
        <time>2019-08-13T05:58:54Z</time>
      </trkpt>
      <trkpt lat="39.8150460" lon="-4.0561190">
        <ele>653.2</ele>
        <time>2019-08-13T05:58:55Z</time>
      </trkpt>
      <trkpt lat="39.8150970" lon="-4.0561180">
        <ele>653.1</ele>
        <time>2019-08-13T05:58:56Z</time>
      </trkpt>
      <trkpt lat="39.8151500" lon="-4.0561170">
        <ele>652.9</ele>
        <time>2019-08-13T05:58:57Z</time>
      </trkpt>
      <trkpt lat="39.8152030" lon="-4.0561170">
        <ele>652.7</ele>
        <time>2019-08-13T05:58:58Z</time>
      </trkpt>
      <trkpt lat="39.8152570" lon="-4.0561180">
        <ele>652.5</ele>
        <time>2019-08-13T05:58:59Z</time>
      </trkpt>
      <trkpt lat="39.8153100" lon="-4.0561200">
        <ele>652.3</ele>
        <time>2019-08-13T05:59:00Z</time>
      </trkpt>
      <trkpt lat="39.8153640" lon="-4.0561250">
        <ele>652.2</ele>
        <time>2019-08-13T05:59:01Z</time>
      </trkpt>
      <trkpt lat="39.8154170" lon="-4.0561310">
        <ele>652.0</ele>
        <time>2019-08-13T05:59:02Z</time>
      </trkpt>
      <trkpt lat="39.8154700" lon="-4.0561380">
        <ele>651.9</ele>
        <time>2019-08-13T05:59:03Z</time>
      </trkpt>
      <trkpt lat="39.8155250" lon="-4.0561440">
        <ele>651.8</ele>
        <time>2019-08-13T05:59:04Z</time>
      </trkpt>
      <trkpt lat="39.8155770" lon="-4.0561510">
        <ele>651.7</ele>
        <time>2019-08-13T05:59:05Z</time>
      </trkpt>
      <trkpt lat="39.8156300" lon="-4.0561570">
        <ele>651.6</ele>
        <time>2019-08-13T05:59:06Z</time>
      </trkpt>
      <trkpt lat="39.8156830" lon="-4.0561640">
        <ele>651.5</ele>
        <time>2019-08-13T05:59:07Z</time>
      </trkpt>
      <trkpt lat="39.8157350" lon="-4.0561720">
        <ele>651.4</ele>
        <time>2019-08-13T05:59:08Z</time>
      </trkpt>
      <trkpt lat="39.8157870" lon="-4.0561780">
        <ele>651.3</ele>
        <time>2019-08-13T05:59:09Z</time>
      </trkpt>
      <trkpt lat="39.8158370" lon="-4.0561810">
        <ele>651.2</ele>
        <time>2019-08-13T05:59:10Z</time>
      </trkpt>
      <trkpt lat="39.8158870" lon="-4.0561740">
        <ele>651.1</ele>
        <time>2019-08-13T05:59:11Z</time>
      </trkpt>
      <trkpt lat="39.8159330" lon="-4.0561550">
        <ele>651.0</ele>
        <time>2019-08-13T05:59:12Z</time>
      </trkpt>
      <trkpt lat="39.8159780" lon="-4.0561250">
        <ele>651.0</ele>
        <time>2019-08-13T05:59:13Z</time>
      </trkpt>
      <trkpt lat="39.8160210" lon="-4.0560910">
        <ele>651.1</ele>
        <time>2019-08-13T05:59:14Z</time>
      </trkpt>
      <trkpt lat="39.8160640" lon="-4.0560580">
        <ele>651.2</ele>
        <time>2019-08-13T05:59:15Z</time>
      </trkpt>
      <trkpt lat="39.8161100" lon="-4.0560330">
        <ele>651.3</ele>
        <time>2019-08-13T05:59:16Z</time>
      </trkpt>
      <trkpt lat="39.8161580" lon="-4.0560230">
        <ele>651.3</ele>
        <time>2019-08-13T05:59:17Z</time>
      </trkpt>
      <trkpt lat="39.8162070" lon="-4.0560320">
        <ele>651.2</ele>
        <time>2019-08-13T05:59:18Z</time>
      </trkpt>
      <trkpt lat="39.8162530" lon="-4.0560550">
        <ele>651.0</ele>
        <time>2019-08-13T05:59:19Z</time>
      </trkpt>
      <trkpt lat="39.8162970" lon="-4.0560920">
        <ele>650.7</ele>
        <time>2019-08-13T05:59:20Z</time>
      </trkpt>
      <trkpt lat="39.8163370" lon="-4.0561400">
        <ele>650.7</ele>
        <time>2019-08-13T05:59:21Z</time>
      </trkpt>
      <trkpt lat="39.8163790" lon="-4.0561880">
        <ele>650.5</ele>
        <time>2019-08-13T05:59:22Z</time>
      </trkpt>
      <trkpt lat="39.8164260" lon="-4.0562270">
        <ele>650.5</ele>
        <time>2019-08-13T05:59:23Z</time>
      </trkpt>
      <trkpt lat="39.8164790" lon="-4.0562570">
        <ele>650.5</ele>
        <time>2019-08-13T05:59:24Z</time>
      </trkpt>
      <trkpt lat="39.8165370" lon="-4.0562750">
        <ele>650.5</ele>
        <time>2019-08-13T05:59:25Z</time>
      </trkpt>
      <trkpt lat="39.8165950" lon="-4.0562860">
        <ele>650.5</ele>
        <time>2019-08-13T05:59:26Z</time>
      </trkpt>
      <trkpt lat="39.8166530" lon="-4.0562940">
        <ele>650.5</ele>
        <time>2019-08-13T05:59:27Z</time>
      </trkpt>
      <trkpt lat="39.8167110" lon="-4.0562980">
        <ele>650.5</ele>
        <time>2019-08-13T05:59:28Z</time>
      </trkpt>
      <trkpt lat="39.8167700" lon="-4.0563040">
        <ele>650.6</ele>
        <time>2019-08-13T05:59:29Z</time>
      </trkpt>
      <trkpt lat="39.8168290" lon="-4.0563090">
        <ele>650.6</ele>
        <time>2019-08-13T05:59:30Z</time>
      </trkpt>
      <trkpt lat="39.8168880" lon="-4.0563160">
        <ele>650.6</ele>
        <time>2019-08-13T05:59:31Z</time>
      </trkpt>
      <trkpt lat="39.8169450" lon="-4.0563230">
        <ele>650.6</ele>
        <time>2019-08-13T05:59:32Z</time>
      </trkpt>
      <trkpt lat="39.8170010" lon="-4.0563290">
        <ele>650.6</ele>
        <time>2019-08-13T05:59:33Z</time>
      </trkpt>
      <trkpt lat="39.8170540" lon="-4.0563340">
        <ele>650.6</ele>
        <time>2019-08-13T05:59:34Z</time>
      </trkpt>
      <trkpt lat="39.8171080" lon="-4.0563400">
        <ele>650.6</ele>
        <time>2019-08-13T05:59:35Z</time>
      </trkpt>
      <trkpt lat="39.8171600" lon="-4.0563460">
        <ele>650.6</ele>
        <time>2019-08-13T05:59:36Z</time>
      </trkpt>
      <trkpt lat="39.8172110" lon="-4.0563530">
        <ele>650.6</ele>
        <time>2019-08-13T05:59:37Z</time>
      </trkpt>
      <trkpt lat="39.8172600" lon="-4.0563600">
        <ele>650.6</ele>
        <time>2019-08-13T05:59:38Z</time>
      </trkpt>
      <trkpt lat="39.8173090" lon="-4.0563640">
        <ele>650.6</ele>
        <time>2019-08-13T05:59:39Z</time>
      </trkpt>
      <trkpt lat="39.8173590" lon="-4.0563690">
        <ele>650.6</ele>
        <time>2019-08-13T05:59:40Z</time>
      </trkpt>
      <trkpt lat="39.8174090" lon="-4.0563730">
        <ele>650.6</ele>
        <time>2019-08-13T05:59:41Z</time>
      </trkpt>
      <trkpt lat="39.8174600" lon="-4.0563790">
        <ele>650.6</ele>
        <time>2019-08-13T05:59:42Z</time>
      </trkpt>
      <trkpt lat="39.8175110" lon="-4.0563840">
        <ele>650.6</ele>
        <time>2019-08-13T05:59:43Z</time>
      </trkpt>
      <trkpt lat="39.8175620" lon="-4.0563910">
        <ele>650.7</ele>
        <time>2019-08-13T05:59:44Z</time>
      </trkpt>
      <trkpt lat="39.8176140" lon="-4.0563980">
        <ele>650.7</ele>
        <time>2019-08-13T05:59:45Z</time>
      </trkpt>
      <trkpt lat="39.8176670" lon="-4.0564040">
        <ele>650.7</ele>
        <time>2019-08-13T05:59:46Z</time>
      </trkpt>
      <trkpt lat="39.8177200" lon="-4.0564110">
        <ele>650.7</ele>
        <time>2019-08-13T05:59:47Z</time>
      </trkpt>
      <trkpt lat="39.8177730" lon="-4.0564190">
        <ele>650.7</ele>
        <time>2019-08-13T05:59:48Z</time>
      </trkpt>
      <trkpt lat="39.8178260" lon="-4.0564240">
        <ele>650.7</ele>
        <time>2019-08-13T05:59:49Z</time>
      </trkpt>
      <trkpt lat="39.8178790" lon="-4.0564300">
        <ele>650.7</ele>
        <time>2019-08-13T05:59:50Z</time>
      </trkpt>
      <trkpt lat="39.8179320" lon="-4.0564350">
        <ele>650.7</ele>
        <time>2019-08-13T05:59:51Z</time>
      </trkpt>
      <trkpt lat="39.8179850" lon="-4.0564420">
        <ele>650.7</ele>
        <time>2019-08-13T05:59:52Z</time>
      </trkpt>
      <trkpt lat="39.8180370" lon="-4.0564490">
        <ele>650.7</ele>
        <time>2019-08-13T05:59:53Z</time>
      </trkpt>
      <trkpt lat="39.8180900" lon="-4.0564570">
        <ele>650.7</ele>
        <time>2019-08-13T05:59:54Z</time>
      </trkpt>
      <trkpt lat="39.8181440" lon="-4.0564640">
        <ele>650.7</ele>
        <time>2019-08-13T05:59:55Z</time>
      </trkpt>
      <trkpt lat="39.8181970" lon="-4.0564700">
        <ele>650.7</ele>
        <time>2019-08-13T05:59:56Z</time>
      </trkpt>
      <trkpt lat="39.8182500" lon="-4.0564770">
        <ele>650.7</ele>
        <time>2019-08-13T05:59:57Z</time>
      </trkpt>
      <trkpt lat="39.8183040" lon="-4.0564840">
        <ele>650.7</ele>
        <time>2019-08-13T05:59:58Z</time>
      </trkpt>
      <trkpt lat="39.8183580" lon="-4.0564910">
        <ele>650.7</ele>
        <time>2019-08-13T05:59:59Z</time>
      </trkpt>
      <trkpt lat="39.8184110" lon="-4.0564970">
        <ele>650.7</ele>
        <time>2019-08-13T06:00:00Z</time>
      </trkpt>
      <trkpt lat="39.8184630" lon="-4.0565040">
        <ele>650.7</ele>
        <time>2019-08-13T06:00:01Z</time>
      </trkpt>
      <trkpt lat="39.8185110" lon="-4.0565040">
        <ele>650.7</ele>
        <time>2019-08-13T06:00:02Z</time>
      </trkpt>
      <trkpt lat="39.8185570" lon="-4.0564950">
        <ele>650.7</ele>
        <time>2019-08-13T06:00:03Z</time>
      </trkpt>
      <trkpt lat="39.8186010" lon="-4.0564840">
        <ele>650.7</ele>
        <time>2019-08-13T06:00:04Z</time>
      </trkpt>
      <trkpt lat="39.8186450" lon="-4.0564790">
        <ele>650.7</ele>
        <time>2019-08-13T06:00:05Z</time>
      </trkpt>
      <trkpt lat="39.8186920" lon="-4.0564790">
        <ele>650.7</ele>
        <time>2019-08-13T06:00:06Z</time>
      </trkpt>
      <trkpt lat="39.8187400" lon="-4.0564850">
        <ele>650.7</ele>
        <time>2019-08-13T06:00:07Z</time>
      </trkpt>
      <trkpt lat="39.8187890" lon="-4.0564910">
        <ele>650.7</ele>
        <time>2019-08-13T06:00:08Z</time>
      </trkpt>
      <trkpt lat="39.8188390" lon="-4.0564980">
        <ele>650.7</ele>
        <time>2019-08-13T06:00:09Z</time>
      </trkpt>
      <trkpt lat="39.8188890" lon="-4.0565050">
        <ele>650.7</ele>
        <time>2019-08-13T06:00:10Z</time>
      </trkpt>
      <trkpt lat="39.8189400" lon="-4.0565120">
        <ele>650.7</ele>
        <time>2019-08-13T06:00:11Z</time>
      </trkpt>
      <trkpt lat="39.8189910" lon="-4.0565170">
        <ele>650.7</ele>
        <time>2019-08-13T06:00:12Z</time>
      </trkpt>
      <trkpt lat="39.8190410" lon="-4.0565230">
        <ele>650.7</ele>
        <time>2019-08-13T06:00:13Z</time>
      </trkpt>
      <trkpt lat="39.8190900" lon="-4.0565280">
        <ele>650.7</ele>
        <time>2019-08-13T06:00:14Z</time>
      </trkpt>
      <trkpt lat="39.8191420" lon="-4.0565350">
        <ele>650.7</ele>
        <time>2019-08-13T06:00:15Z</time>
      </trkpt>
      <trkpt lat="39.8191930" lon="-4.0565410">
        <ele>650.8</ele>
        <time>2019-08-13T06:00:16Z</time>
      </trkpt>
      <trkpt lat="39.8192440" lon="-4.0565490">
        <ele>650.8</ele>
        <time>2019-08-13T06:00:17Z</time>
      </trkpt>
      <trkpt lat="39.8192960" lon="-4.0565560">
        <ele>650.9</ele>
        <time>2019-08-13T06:00:18Z</time>
      </trkpt>
      <trkpt lat="39.8193480" lon="-4.0565640">
        <ele>650.9</ele>
        <time>2019-08-13T06:00:19Z</time>
      </trkpt>
      <trkpt lat="39.8193990" lon="-4.0565720">
        <ele>651.0</ele>
        <time>2019-08-13T06:00:20Z</time>
      </trkpt>
      <trkpt lat="39.8194510" lon="-4.0565810">
        <ele>651.1</ele>
        <time>2019-08-13T06:00:21Z</time>
      </trkpt>
      <trkpt lat="39.8195020" lon="-4.0565880">
        <ele>651.2</ele>
        <time>2019-08-13T06:00:22Z</time>
      </trkpt>
      <trkpt lat="39.8195530" lon="-4.0565940">
        <ele>651.4</ele>
        <time>2019-08-13T06:00:23Z</time>
      </trkpt>
      <trkpt lat="39.8196030" lon="-4.0565980">
        <ele>651.5</ele>
        <time>2019-08-13T06:00:24Z</time>
      </trkpt>
      <trkpt lat="39.8196530" lon="-4.0565990">
        <ele>651.7</ele>
        <time>2019-08-13T06:00:25Z</time>
      </trkpt>
      <trkpt lat="39.8197030" lon="-4.0566000">
        <ele>651.9</ele>
        <time>2019-08-13T06:00:26Z</time>
      </trkpt>
      <trkpt lat="39.8197500" lon="-4.0566030">
        <ele>652.1</ele>
        <time>2019-08-13T06:00:27Z</time>
      </trkpt>
      <trkpt lat="39.8197950" lon="-4.0566130">
        <ele>652.3</ele>
        <time>2019-08-13T06:00:28Z</time>
      </trkpt>
      <trkpt lat="39.8198370" lon="-4.0566330">
        <ele>652.6</ele>
        <time>2019-08-13T06:00:29Z</time>
      </trkpt>
      <trkpt lat="39.8198800" lon="-4.0566480">
        <ele>652.8</ele>
        <time>2019-08-13T06:00:30Z</time>
      </trkpt>
      <trkpt lat="39.8199270" lon="-4.0566530">
        <ele>653.0</ele>
        <time>2019-08-13T06:00:31Z</time>
      </trkpt>
      <trkpt lat="39.8199750" lon="-4.0566560">
        <ele>653.3</ele>
        <time>2019-08-13T06:00:32Z</time>
      </trkpt>
      <trkpt lat="39.8200240" lon="-4.0566580">
        <ele>653.6</ele>
        <time>2019-08-13T06:00:33Z</time>
      </trkpt>
      <trkpt lat="39.8200720" lon="-4.0566610">
        <ele>653.9</ele>
        <time>2019-08-13T06:00:34Z</time>
      </trkpt>
      <trkpt lat="39.8201220" lon="-4.0566660">
        <ele>654.2</ele>
        <time>2019-08-13T06:00:35Z</time>
      </trkpt>
      <trkpt lat="39.8201720" lon="-4.0566700">
        <ele>654.5</ele>
        <time>2019-08-13T06:00:36Z</time>
      </trkpt>
      <trkpt lat="39.8202200" lon="-4.0566770">
        <ele>654.8</ele>
        <time>2019-08-13T06:00:37Z</time>
      </trkpt>
      <trkpt lat="39.8202680" lon="-4.0566840">
        <ele>655.1</ele>
        <time>2019-08-13T06:00:38Z</time>
      </trkpt>
      <trkpt lat="39.8203160" lon="-4.0566900">
        <ele>655.5</ele>
        <time>2019-08-13T06:00:39Z</time>
      </trkpt>
      <trkpt lat="39.8203630" lon="-4.0566970">
        <ele>655.8</ele>
        <time>2019-08-13T06:00:40Z</time>
      </trkpt>
      <trkpt lat="39.8204110" lon="-4.0567030">
        <ele>656.1</ele>
        <time>2019-08-13T06:00:41Z</time>
      </trkpt>
      <trkpt lat="39.8204590" lon="-4.0567080">
        <ele>656.3</ele>
        <time>2019-08-13T06:00:42Z</time>
      </trkpt>
      <trkpt lat="39.8205060" lon="-4.0567140">
        <ele>656.4</ele>
        <time>2019-08-13T06:00:43Z</time>
      </trkpt>
      <trkpt lat="39.8205530" lon="-4.0567210">
        <ele>656.6</ele>
        <time>2019-08-13T06:00:44Z</time>
      </trkpt>
      <trkpt lat="39.8205980" lon="-4.0567290">
        <ele>656.7</ele>
        <time>2019-08-13T06:00:45Z</time>
      </trkpt>
      <trkpt lat="39.8206430" lon="-4.0567370">
        <ele>656.8</ele>
        <time>2019-08-13T06:00:46Z</time>
      </trkpt>
      <trkpt lat="39.8206860" lon="-4.0567450">
        <ele>656.9</ele>
        <time>2019-08-13T06:00:47Z</time>
      </trkpt>
      <trkpt lat="39.8207300" lon="-4.0567530">
        <ele>657.0</ele>
        <time>2019-08-13T06:00:48Z</time>
      </trkpt>
      <trkpt lat="39.8207730" lon="-4.0567610">
        <ele>657.1</ele>
        <time>2019-08-13T06:00:49Z</time>
      </trkpt>
      <trkpt lat="39.8208170" lon="-4.0567680">
        <ele>657.2</ele>
        <time>2019-08-13T06:00:50Z</time>
      </trkpt>
      <trkpt lat="39.8208590" lon="-4.0567760">
        <ele>657.3</ele>
        <time>2019-08-13T06:00:51Z</time>
      </trkpt>
      <trkpt lat="39.8209020" lon="-4.0567830">
        <ele>657.4</ele>
        <time>2019-08-13T06:00:52Z</time>
      </trkpt>
      <trkpt lat="39.8209450" lon="-4.0567920">
        <ele>657.5</ele>
        <time>2019-08-13T06:00:53Z</time>
      </trkpt>
      <trkpt lat="39.8209870" lon="-4.0568020">
        <ele>657.5</ele>
        <time>2019-08-13T06:00:54Z</time>
      </trkpt>
      <trkpt lat="39.8210300" lon="-4.0568110">
        <ele>657.6</ele>
        <time>2019-08-13T06:00:55Z</time>
      </trkpt>
      <trkpt lat="39.8210730" lon="-4.0568200">
        <ele>657.7</ele>
        <time>2019-08-13T06:00:56Z</time>
      </trkpt>
      <trkpt lat="39.8211170" lon="-4.0568290">
        <ele>657.8</ele>
        <time>2019-08-13T06:00:57Z</time>
      </trkpt>
      <trkpt lat="39.8211600" lon="-4.0568350">
        <ele>657.9</ele>
        <time>2019-08-13T06:00:58Z</time>
      </trkpt>
      <trkpt lat="39.8212020" lon="-4.0568420">
        <ele>658.1</ele>
        <time>2019-08-13T06:00:59Z</time>
      </trkpt>
      <trkpt lat="39.8212420" lon="-4.0568480">
        <ele>658.2</ele>
        <time>2019-08-13T06:01:00Z</time>
      </trkpt>
      <trkpt lat="39.8212830" lon="-4.0568520">
        <ele>658.4</ele>
        <time>2019-08-13T06:01:01Z</time>
      </trkpt>
      <trkpt lat="39.8213240" lon="-4.0568560">
        <ele>658.6</ele>
        <time>2019-08-13T06:01:02Z</time>
      </trkpt>
      <trkpt lat="39.8213650" lon="-4.0568620">
        <ele>658.8</ele>
        <time>2019-08-13T06:01:03Z</time>
      </trkpt>
      <trkpt lat="39.8214040" lon="-4.0568660">
        <ele>659.1</ele>
        <time>2019-08-13T06:01:04Z</time>
      </trkpt>
      <trkpt lat="39.8214400" lon="-4.0568710">
        <ele>659.3</ele>
        <time>2019-08-13T06:01:05Z</time>
      </trkpt>
      <trkpt lat="39.8214760" lon="-4.0568750">
        <ele>659.5</ele>
        <time>2019-08-13T06:01:06Z</time>
      </trkpt>
      <trkpt lat="39.8215120" lon="-4.0568780">
        <ele>659.7</ele>
        <time>2019-08-13T06:01:07Z</time>
      </trkpt>
      <trkpt lat="39.8215460" lon="-4.0568830">
        <ele>659.9</ele>
        <time>2019-08-13T06:01:08Z</time>
      </trkpt>
      <trkpt lat="39.8215820" lon="-4.0568860">
        <ele>660.1</ele>
        <time>2019-08-13T06:01:09Z</time>
      </trkpt>
      <trkpt lat="39.8216170" lon="-4.0568890">
        <ele>660.2</ele>
        <time>2019-08-13T06:01:10Z</time>
      </trkpt>
      <trkpt lat="39.8216520" lon="-4.0568920">
        <ele>660.4</ele>
        <time>2019-08-13T06:01:11Z</time>
      </trkpt>
      <trkpt lat="39.8216860" lon="-4.0568950">
        <ele>660.6</ele>
        <time>2019-08-13T06:01:12Z</time>
      </trkpt>
      <trkpt lat="39.8217200" lon="-4.0568980">
        <ele>660.8</ele>
        <time>2019-08-13T06:01:13Z</time>
      </trkpt>
      <trkpt lat="39.8217530" lon="-4.0569030">
        <ele>661.0</ele>
        <time>2019-08-13T06:01:14Z</time>
      </trkpt>
      <trkpt lat="39.8217860" lon="-4.0569070">
        <ele>661.2</ele>
        <time>2019-08-13T06:01:15Z</time>
      </trkpt>
      <trkpt lat="39.8218190" lon="-4.0569120">
        <ele>661.3</ele>
        <time>2019-08-13T06:01:16Z</time>
      </trkpt>
      <trkpt lat="39.8218510" lon="-4.0569170">
        <ele>661.5</ele>
        <time>2019-08-13T06:01:17Z</time>
      </trkpt>
      <trkpt lat="39.8218840" lon="-4.0569210">
        <ele>661.7</ele>
        <time>2019-08-13T06:01:18Z</time>
      </trkpt>
      <trkpt lat="39.8219160" lon="-4.0569250">
        <ele>661.8</ele>
        <time>2019-08-13T06:01:19Z</time>
      </trkpt>
      <trkpt lat="39.8219480" lon="-4.0569280">
        <ele>662.0</ele>
        <time>2019-08-13T06:01:20Z</time>
      </trkpt>
      <trkpt lat="39.8219790" lon="-4.0569310">
        <ele>662.2</ele>
        <time>2019-08-13T06:01:21Z</time>
      </trkpt>
      <trkpt lat="39.8220090" lon="-4.0569330">
        <ele>662.3</ele>
        <time>2019-08-13T06:01:22Z</time>
      </trkpt>
      <trkpt lat="39.8220390" lon="-4.0569360">
        <ele>662.5</ele>
        <time>2019-08-13T06:01:23Z</time>
      </trkpt>
      <trkpt lat="39.8220680" lon="-4.0569390">
        <ele>662.7</ele>
        <time>2019-08-13T06:01:24Z</time>
      </trkpt>
      <trkpt lat="39.8220970" lon="-4.0569410">
        <ele>662.8</ele>
        <time>2019-08-13T06:01:25Z</time>
      </trkpt>
      <trkpt lat="39.8221260" lon="-4.0569440">
        <ele>663.0</ele>
        <time>2019-08-13T06:01:26Z</time>
      </trkpt>
      <trkpt lat="39.8221540" lon="-4.0569460">
        <ele>663.2</ele>
        <time>2019-08-13T06:01:27Z</time>
      </trkpt>
      <trkpt lat="39.8221830" lon="-4.0569500">
        <ele>663.3</ele>
        <time>2019-08-13T06:01:28Z</time>
      </trkpt>
      <trkpt lat="39.8222110" lon="-4.0569530">
        <ele>663.5</ele>
        <time>2019-08-13T06:01:29Z</time>
      </trkpt>
      <trkpt lat="39.8222390" lon="-4.0569550">
        <ele>663.6</ele>
        <time>2019-08-13T06:01:30Z</time>
      </trkpt>
      <trkpt lat="39.8222670" lon="-4.0569570">
        <ele>663.7</ele>
        <time>2019-08-13T06:01:31Z</time>
      </trkpt>
      <trkpt lat="39.8222940" lon="-4.0569570">
        <ele>663.9</ele>
        <time>2019-08-13T06:01:32Z</time>
      </trkpt>
      <trkpt lat="39.8223220" lon="-4.0569570">
        <ele>664.0</ele>
        <time>2019-08-13T06:01:33Z</time>
      </trkpt>
      <trkpt lat="39.8223490" lon="-4.0569560">
        <ele>664.1</ele>
        <time>2019-08-13T06:01:34Z</time>
      </trkpt>
      <trkpt lat="39.8224030" lon="-4.0569480">
        <ele>664.4</ele>
        <time>2019-08-13T06:01:36Z</time>
      </trkpt>
      <trkpt lat="39.8224300" lon="-4.0569430">
        <ele>664.4</ele>
        <time>2019-08-13T06:01:37Z</time>
      </trkpt>
      <trkpt lat="39.8224570" lon="-4.0569370">
        <ele>664.5</ele>
        <time>2019-08-13T06:01:38Z</time>
      </trkpt>
      <trkpt lat="39.8224830" lon="-4.0569290">
        <ele>664.5</ele>
        <time>2019-08-13T06:01:39Z</time>
      </trkpt>
      <trkpt lat="39.8225100" lon="-4.0569200">
        <ele>664.6</ele>
        <time>2019-08-13T06:01:40Z</time>
      </trkpt>
      <trkpt lat="39.8225600" lon="-4.0568980">
        <ele>664.7</ele>
        <time>2019-08-13T06:01:42Z</time>
      </trkpt>
      <trkpt lat="39.8226090" lon="-4.0568710">
        <ele>664.8</ele>
        <time>2019-08-13T06:01:44Z</time>
      </trkpt>
      <trkpt lat="39.8226550" lon="-4.0568400">
        <ele>664.9</ele>
        <time>2019-08-13T06:01:46Z</time>
      </trkpt>
      <trkpt lat="39.8227000" lon="-4.0568040">
        <ele>665.1</ele>
        <time>2019-08-13T06:01:48Z</time>
      </trkpt>
      <trkpt lat="39.8227430" lon="-4.0567630">
        <ele>665.2</ele>
        <time>2019-08-13T06:01:50Z</time>
      </trkpt>
      <trkpt lat="39.8227640" lon="-4.0567390">
        <ele>665.3</ele>
        <time>2019-08-13T06:01:51Z</time>
      </trkpt>
      <trkpt lat="39.8227840" lon="-4.0567120">
        <ele>665.4</ele>
        <time>2019-08-13T06:01:52Z</time>
      </trkpt>
      <trkpt lat="39.8228010" lon="-4.0566810">
        <ele>665.4</ele>
        <time>2019-08-13T06:01:53Z</time>
      </trkpt>
      <trkpt lat="39.8228160" lon="-4.0566430">
        <ele>665.5</ele>
        <time>2019-08-13T06:01:54Z</time>
      </trkpt>
      <trkpt lat="39.8228240" lon="-4.0566010">
        <ele>665.6</ele>
        <time>2019-08-13T06:01:55Z</time>
      </trkpt>
      <trkpt lat="39.8228270" lon="-4.0565570">
        <ele>665.7</ele>
        <time>2019-08-13T06:01:56Z</time>
      </trkpt>
      <trkpt lat="39.8228280" lon="-4.0565120">
        <ele>665.8</ele>
        <time>2019-08-13T06:01:57Z</time>
      </trkpt>
      <trkpt lat="39.8228270" lon="-4.0564630">
        <ele>665.9</ele>
        <time>2019-08-13T06:01:58Z</time>
      </trkpt>
      <trkpt lat="39.8228250" lon="-4.0564130">
        <ele>665.8</ele>
        <time>2019-08-13T06:01:59Z</time>
      </trkpt>
      <trkpt lat="39.8228240" lon="-4.0563620">
        <ele>665.7</ele>
        <time>2019-08-13T06:02:00Z</time>
      </trkpt>
      <trkpt lat="39.8228250" lon="-4.0563090">
        <ele>665.6</ele>
        <time>2019-08-13T06:02:01Z</time>
      </trkpt>
      <trkpt lat="39.8228290" lon="-4.0562530">
        <ele>665.5</ele>
        <time>2019-08-13T06:02:02Z</time>
      </trkpt>
      <trkpt lat="39.8228360" lon="-4.0561980">
        <ele>665.5</ele>
        <time>2019-08-13T06:02:03Z</time>
      </trkpt>
      <trkpt lat="39.8228450" lon="-4.0561440">
        <ele>665.6</ele>
        <time>2019-08-13T06:02:04Z</time>
      </trkpt>
      <trkpt lat="39.8228580" lon="-4.0560920">
        <ele>665.6</ele>
        <time>2019-08-13T06:02:05Z</time>
      </trkpt>
      <trkpt lat="39.8228720" lon="-4.0560420">
        <ele>665.7</ele>
        <time>2019-08-13T06:02:06Z</time>
      </trkpt>
      <trkpt lat="39.8228880" lon="-4.0559920">
        <ele>665.7</ele>
        <time>2019-08-13T06:02:07Z</time>
      </trkpt>
      <trkpt lat="39.8229050" lon="-4.0559420">
        <ele>665.8</ele>
        <time>2019-08-13T06:02:08Z</time>
      </trkpt>
      <trkpt lat="39.8229260" lon="-4.0558940">
        <ele>665.8</ele>
        <time>2019-08-13T06:02:09Z</time>
      </trkpt>
      <trkpt lat="39.8229490" lon="-4.0558500">
        <ele>665.9</ele>
        <time>2019-08-13T06:02:10Z</time>
      </trkpt>
      <trkpt lat="39.8229720" lon="-4.0558070">
        <ele>665.9</ele>
        <time>2019-08-13T06:02:11Z</time>
      </trkpt>
      <trkpt lat="39.8229980" lon="-4.0557650">
        <ele>666.1</ele>
        <time>2019-08-13T06:02:12Z</time>
      </trkpt>
      <trkpt lat="39.8230250" lon="-4.0557240">
        <ele>666.2</ele>
        <time>2019-08-13T06:02:13Z</time>
      </trkpt>
      <trkpt lat="39.8230520" lon="-4.0556850">
        <ele>666.5</ele>
        <time>2019-08-13T06:02:14Z</time>
      </trkpt>
      <trkpt lat="39.8230830" lon="-4.0556480">
        <ele>666.9</ele>
        <time>2019-08-13T06:02:15Z</time>
      </trkpt>
      <trkpt lat="39.8231150" lon="-4.0556150">
        <ele>667.2</ele>
        <time>2019-08-13T06:02:16Z</time>
      </trkpt>
      <trkpt lat="39.8231490" lon="-4.0555820">
        <ele>667.6</ele>
        <time>2019-08-13T06:02:17Z</time>
      </trkpt>
      <trkpt lat="39.8231840" lon="-4.0555530">
        <ele>667.9</ele>
        <time>2019-08-13T06:02:18Z</time>
      </trkpt>
      <trkpt lat="39.8232220" lon="-4.0555250">
        <ele>668.2</ele>
        <time>2019-08-13T06:02:19Z</time>
      </trkpt>
      <trkpt lat="39.8232620" lon="-4.0555010">
        <ele>668.4</ele>
        <time>2019-08-13T06:02:20Z</time>
      </trkpt>
      <trkpt lat="39.8233040" lon="-4.0554790">
        <ele>668.7</ele>
        <time>2019-08-13T06:02:21Z</time>
      </trkpt>
      <trkpt lat="39.8233480" lon="-4.0554600">
        <ele>669.1</ele>
        <time>2019-08-13T06:02:22Z</time>
      </trkpt>
      <trkpt lat="39.8233930" lon="-4.0554450">
        <ele>669.4</ele>
        <time>2019-08-13T06:02:23Z</time>
      </trkpt>
      <trkpt lat="39.8234380" lon="-4.0554340">
        <ele>669.7</ele>
        <time>2019-08-13T06:02:24Z</time>
      </trkpt>
      <trkpt lat="39.8234810" lon="-4.0554280">
        <ele>670.0</ele>
        <time>2019-08-13T06:02:25Z</time>
      </trkpt>
      <trkpt lat="39.8235220" lon="-4.0554240">
        <ele>670.3</ele>
        <time>2019-08-13T06:02:26Z</time>
      </trkpt>
      <trkpt lat="39.8235610" lon="-4.0554210">
        <ele>670.6</ele>
        <time>2019-08-13T06:02:27Z</time>
      </trkpt>
      <trkpt lat="39.8236010" lon="-4.0554190">
        <ele>670.9</ele>
        <time>2019-08-13T06:02:28Z</time>
      </trkpt>
      <trkpt lat="39.8236430" lon="-4.0554200">
        <ele>671.3</ele>
        <time>2019-08-13T06:02:29Z</time>
      </trkpt>
      <trkpt lat="39.8236880" lon="-4.0554280">
        <ele>671.8</ele>
        <time>2019-08-13T06:02:30Z</time>
      </trkpt>
      <trkpt lat="39.8237340" lon="-4.0554400">
        <ele>672.2</ele>
        <time>2019-08-13T06:02:31Z</time>
      </trkpt>
      <trkpt lat="39.8237790" lon="-4.0554580">
        <ele>672.6</ele>
        <time>2019-08-13T06:02:32Z</time>
      </trkpt>
      <trkpt lat="39.8238250" lon="-4.0554800">
        <ele>672.9</ele>
        <time>2019-08-13T06:02:33Z</time>
      </trkpt>
      <trkpt lat="39.8238700" lon="-4.0555050">
        <ele>673.3</ele>
        <time>2019-08-13T06:02:34Z</time>
      </trkpt>
      <trkpt lat="39.8239140" lon="-4.0555340">
        <ele>673.6</ele>
        <time>2019-08-13T06:02:35Z</time>
      </trkpt>
      <trkpt lat="39.8239570" lon="-4.0555670">
        <ele>673.9</ele>
        <time>2019-08-13T06:02:36Z</time>
      </trkpt>
      <trkpt lat="39.8240000" lon="-4.0556060">
        <ele>674.3</ele>
        <time>2019-08-13T06:02:37Z</time>
      </trkpt>
      <trkpt lat="39.8240400" lon="-4.0556480">
        <ele>674.9</ele>
        <time>2019-08-13T06:02:38Z</time>
      </trkpt>
      <trkpt lat="39.8240800" lon="-4.0556940">
        <ele>674.5</ele>
        <time>2019-08-13T06:02:39Z</time>
      </trkpt>
      <trkpt lat="39.8241180" lon="-4.0557440">
        <ele>674.1</ele>
        <time>2019-08-13T06:02:40Z</time>
      </trkpt>
      <trkpt lat="39.8241540" lon="-4.0557990">
        <ele>673.6</ele>
        <time>2019-08-13T06:02:41Z</time>
      </trkpt>
      <trkpt lat="39.8241880" lon="-4.0558570">
        <ele>673.2</ele>
        <time>2019-08-13T06:02:42Z</time>
      </trkpt>
      <trkpt lat="39.8242200" lon="-4.0559190">
        <ele>672.8</ele>
        <time>2019-08-13T06:02:43Z</time>
      </trkpt>
      <trkpt lat="39.8242470" lon="-4.0559860">
        <ele>672.3</ele>
        <time>2019-08-13T06:02:44Z</time>
      </trkpt>
      <trkpt lat="39.8242700" lon="-4.0560570">
        <ele>671.9</ele>
        <time>2019-08-13T06:02:45Z</time>
      </trkpt>
      <trkpt lat="39.8242880" lon="-4.0561310">
        <ele>671.6</ele>
        <time>2019-08-13T06:02:46Z</time>
      </trkpt>
      <trkpt lat="39.8243020" lon="-4.0562040">
        <ele>671.3</ele>
        <time>2019-08-13T06:02:47Z</time>
      </trkpt>
      <trkpt lat="39.8243120" lon="-4.0562770">
        <ele>671.0</ele>
        <time>2019-08-13T06:02:48Z</time>
      </trkpt>
      <trkpt lat="39.8243180" lon="-4.0563480">
        <ele>670.7</ele>
        <time>2019-08-13T06:02:49Z</time>
      </trkpt>
      <trkpt lat="39.8243230" lon="-4.0564220">
        <ele>670.5</ele>
        <time>2019-08-13T06:02:50Z</time>
      </trkpt>
      <trkpt lat="39.8243300" lon="-4.0564920">
        <ele>669.6</ele>
        <time>2019-08-13T06:02:51Z</time>
      </trkpt>
      <trkpt lat="39.8243450" lon="-4.0565620">
        <ele>669.0</ele>
        <time>2019-08-13T06:02:52Z</time>
      </trkpt>
      <trkpt lat="39.8243660" lon="-4.0566290">
        <ele>668.4</ele>
        <time>2019-08-13T06:02:53Z</time>
      </trkpt>
      <trkpt lat="39.8243960" lon="-4.0566910">
        <ele>667.9</ele>
        <time>2019-08-13T06:02:54Z</time>
      </trkpt>
      <trkpt lat="39.8244330" lon="-4.0567460">
        <ele>667.4</ele>
        <time>2019-08-13T06:02:55Z</time>
      </trkpt>
      <trkpt lat="39.8244740" lon="-4.0567970">
        <ele>666.9</ele>
        <time>2019-08-13T06:02:56Z</time>
      </trkpt>
      <trkpt lat="39.8245200" lon="-4.0568470">
        <ele>666.4</ele>
        <time>2019-08-13T06:02:57Z</time>
      </trkpt>
      <trkpt lat="39.8245680" lon="-4.0568960">
        <ele>665.8</ele>
        <time>2019-08-13T06:02:58Z</time>
      </trkpt>
      <trkpt lat="39.8246200" lon="-4.0569430">
        <ele>665.6</ele>
        <time>2019-08-13T06:02:59Z</time>
      </trkpt>
      <trkpt lat="39.8246710" lon="-4.0569880">
        <ele>665.5</ele>
        <time>2019-08-13T06:03:00Z</time>
      </trkpt>
      <trkpt lat="39.8247230" lon="-4.0570340">
        <ele>665.5</ele>
        <time>2019-08-13T06:03:01Z</time>
      </trkpt>
      <trkpt lat="39.8247770" lon="-4.0570800">
        <ele>665.4</ele>
        <time>2019-08-13T06:03:02Z</time>
      </trkpt>
      <trkpt lat="39.8248300" lon="-4.0571290">
        <ele>665.4</ele>
        <time>2019-08-13T06:03:03Z</time>
      </trkpt>
      <trkpt lat="39.8248850" lon="-4.0571830">
        <ele>665.4</ele>
        <time>2019-08-13T06:03:04Z</time>
      </trkpt>
      <trkpt lat="39.8249410" lon="-4.0572390">
        <ele>665.3</ele>
        <time>2019-08-13T06:03:05Z</time>
      </trkpt>
      <trkpt lat="39.8249980" lon="-4.0572970">
        <ele>665.3</ele>
        <time>2019-08-13T06:03:06Z</time>
      </trkpt>
      <trkpt lat="39.8250560" lon="-4.0573550">
        <ele>665.3</ele>
        <time>2019-08-13T06:03:07Z</time>
      </trkpt>
      <trkpt lat="39.8251150" lon="-4.0574110">
        <ele>665.2</ele>
        <time>2019-08-13T06:03:08Z</time>
      </trkpt>
      <trkpt lat="39.8251760" lon="-4.0574640">
        <ele>665.2</ele>
        <time>2019-08-13T06:03:09Z</time>
      </trkpt>
      <trkpt lat="39.8252370" lon="-4.0575130">
        <ele>665.2</ele>
        <time>2019-08-13T06:03:10Z</time>
      </trkpt>
      <trkpt lat="39.8252970" lon="-4.0575570">
        <ele>665.2</ele>
        <time>2019-08-13T06:03:11Z</time>
      </trkpt>
      <trkpt lat="39.8253580" lon="-4.0575970">
        <ele>665.1</ele>
        <time>2019-08-13T06:03:12Z</time>
      </trkpt>
      <trkpt lat="39.8254190" lon="-4.0576300">
        <ele>665.1</ele>
        <time>2019-08-13T06:03:13Z</time>
      </trkpt>
      <trkpt lat="39.8254800" lon="-4.0576570">
        <ele>665.1</ele>
        <time>2019-08-13T06:03:14Z</time>
      </trkpt>
      <trkpt lat="39.8255390" lon="-4.0576790">
        <ele>665.1</ele>
        <time>2019-08-13T06:03:15Z</time>
      </trkpt>
      <trkpt lat="39.8255980" lon="-4.0576950">
        <ele>665.0</ele>
        <time>2019-08-13T06:03:16Z</time>
      </trkpt>
      <trkpt lat="39.8256570" lon="-4.0577080">
        <ele>665.0</ele>
        <time>2019-08-13T06:03:17Z</time>
      </trkpt>
      <trkpt lat="39.8257160" lon="-4.0577190">
        <ele>665.0</ele>
        <time>2019-08-13T06:03:18Z</time>
      </trkpt>
      <trkpt lat="39.8257710" lon="-4.0577260">
        <ele>665.0</ele>
        <time>2019-08-13T06:03:19Z</time>
      </trkpt>
      <trkpt lat="39.8258270" lon="-4.0577300">
        <ele>665.0</ele>
        <time>2019-08-13T06:03:20Z</time>
      </trkpt>
      <trkpt lat="39.8258840" lon="-4.0577300">
        <ele>665.0</ele>
        <time>2019-08-13T06:03:21Z</time>
      </trkpt>
      <trkpt lat="39.8259420" lon="-4.0577290">
        <ele>665.0</ele>
        <time>2019-08-13T06:03:22Z</time>
      </trkpt>
      <trkpt lat="39.8260030" lon="-4.0577250">
        <ele>665.0</ele>
        <time>2019-08-13T06:03:23Z</time>
      </trkpt>
      <trkpt lat="39.8260640" lon="-4.0577190">
        <ele>665.0</ele>
        <time>2019-08-13T06:03:24Z</time>
      </trkpt>
      <trkpt lat="39.8261260" lon="-4.0577120">
        <ele>665.0</ele>
        <time>2019-08-13T06:03:25Z</time>
      </trkpt>
      <trkpt lat="39.8261880" lon="-4.0577030">
        <ele>665.0</ele>
        <time>2019-08-13T06:03:26Z</time>
      </trkpt>
      <trkpt lat="39.8262490" lon="-4.0576920">
        <ele>665.0</ele>
        <time>2019-08-13T06:03:27Z</time>
      </trkpt>
      <trkpt lat="39.8263100" lon="-4.0576800">
        <ele>664.9</ele>
        <time>2019-08-13T06:03:28Z</time>
      </trkpt>
      <trkpt lat="39.8263720" lon="-4.0576660">
        <ele>664.9</ele>
        <time>2019-08-13T06:03:29Z</time>
      </trkpt>
      <trkpt lat="39.8264350" lon="-4.0576500">
        <ele>664.9</ele>
        <time>2019-08-13T06:03:30Z</time>
      </trkpt>
      <trkpt lat="39.8264960" lon="-4.0576360">
        <ele>664.9</ele>
        <time>2019-08-13T06:03:31Z</time>
      </trkpt>
      <trkpt lat="39.8265570" lon="-4.0576190">
        <ele>664.8</ele>
        <time>2019-08-13T06:03:32Z</time>
      </trkpt>
      <trkpt lat="39.8266180" lon="-4.0576010">
        <ele>664.8</ele>
        <time>2019-08-13T06:03:33Z</time>
      </trkpt>
      <trkpt lat="39.8266790" lon="-4.0575840">
        <ele>664.8</ele>
        <time>2019-08-13T06:03:34Z</time>
      </trkpt>
      <trkpt lat="39.8267420" lon="-4.0575660">
        <ele>664.8</ele>
        <time>2019-08-13T06:03:35Z</time>
      </trkpt>
      <trkpt lat="39.8268040" lon="-4.0575500">
        <ele>664.8</ele>
        <time>2019-08-13T06:03:36Z</time>
      </trkpt>
      <trkpt lat="39.8268650" lon="-4.0575360">
        <ele>664.8</ele>
        <time>2019-08-13T06:03:37Z</time>
      </trkpt>
      <trkpt lat="39.8269270" lon="-4.0575210">
        <ele>664.8</ele>
        <time>2019-08-13T06:03:38Z</time>
      </trkpt>
      <trkpt lat="39.8269870" lon="-4.0575050">
        <ele>664.8</ele>
        <time>2019-08-13T06:03:39Z</time>
      </trkpt>
      <trkpt lat="39.8270440" lon="-4.0574900">
        <ele>664.8</ele>
        <time>2019-08-13T06:03:40Z</time>
      </trkpt>
      <trkpt lat="39.8270990" lon="-4.0574770">
        <ele>664.8</ele>
        <time>2019-08-13T06:03:41Z</time>
      </trkpt>
      <trkpt lat="39.8271520" lon="-4.0574630">
        <ele>664.8</ele>
        <time>2019-08-13T06:03:42Z</time>
      </trkpt>
      <trkpt lat="39.8272070" lon="-4.0574500">
        <ele>664.8</ele>
        <time>2019-08-13T06:03:43Z</time>
      </trkpt>
      <trkpt lat="39.8272610" lon="-4.0574350">
        <ele>664.7</ele>
        <time>2019-08-13T06:03:44Z</time>
      </trkpt>
      <trkpt lat="39.8273160" lon="-4.0574190">
        <ele>664.7</ele>
        <time>2019-08-13T06:03:45Z</time>
      </trkpt>
      <trkpt lat="39.8273720" lon="-4.0574050">
        <ele>664.7</ele>
        <time>2019-08-13T06:03:46Z</time>
      </trkpt>
      <trkpt lat="39.8274280" lon="-4.0573900">
        <ele>664.6</ele>
        <time>2019-08-13T06:03:47Z</time>
      </trkpt>
      <trkpt lat="39.8274850" lon="-4.0573770">
        <ele>664.6</ele>
        <time>2019-08-13T06:03:48Z</time>
      </trkpt>
      <trkpt lat="39.8275420" lon="-4.0573610">
        <ele>664.5</ele>
        <time>2019-08-13T06:03:49Z</time>
      </trkpt>
      <trkpt lat="39.8275990" lon="-4.0573480">
        <ele>664.4</ele>
        <time>2019-08-13T06:03:50Z</time>
      </trkpt>
      <trkpt lat="39.8276550" lon="-4.0573330">
        <ele>664.3</ele>
        <time>2019-08-13T06:03:51Z</time>
      </trkpt>
      <trkpt lat="39.8277110" lon="-4.0573170">
        <ele>664.2</ele>
        <time>2019-08-13T06:03:52Z</time>
      </trkpt>
      <trkpt lat="39.8277670" lon="-4.0573020">
        <ele>664.1</ele>
        <time>2019-08-13T06:03:53Z</time>
      </trkpt>
      <trkpt lat="39.8278210" lon="-4.0572880">
        <ele>663.9</ele>
        <time>2019-08-13T06:03:54Z</time>
      </trkpt>
      <trkpt lat="39.8278770" lon="-4.0572740">
        <ele>663.8</ele>
        <time>2019-08-13T06:03:55Z</time>
      </trkpt>
      <trkpt lat="39.8279340" lon="-4.0572600">
        <ele>663.6</ele>
        <time>2019-08-13T06:03:56Z</time>
      </trkpt>
      <trkpt lat="39.8279910" lon="-4.0572460">
        <ele>663.5</ele>
        <time>2019-08-13T06:03:57Z</time>
      </trkpt>
      <trkpt lat="39.8280510" lon="-4.0572320">
        <ele>663.3</ele>
        <time>2019-08-13T06:03:58Z</time>
      </trkpt>
      <trkpt lat="39.8281100" lon="-4.0572180">
        <ele>663.1</ele>
        <time>2019-08-13T06:03:59Z</time>
      </trkpt>
      <trkpt lat="39.8281720" lon="-4.0572040">
        <ele>662.9</ele>
        <time>2019-08-13T06:04:00Z</time>
      </trkpt>
      <trkpt lat="39.8282340" lon="-4.0571890">
        <ele>662.7</ele>
        <time>2019-08-13T06:04:01Z</time>
      </trkpt>
      <trkpt lat="39.8282960" lon="-4.0571740">
        <ele>662.5</ele>
        <time>2019-08-13T06:04:02Z</time>
      </trkpt>
      <trkpt lat="39.8283590" lon="-4.0571580">
        <ele>662.3</ele>
        <time>2019-08-13T06:04:03Z</time>
      </trkpt>
      <trkpt lat="39.8284250" lon="-4.0571420">
        <ele>662.1</ele>
        <time>2019-08-13T06:04:04Z</time>
      </trkpt>
      <trkpt lat="39.8284920" lon="-4.0571260">
        <ele>661.9</ele>
        <time>2019-08-13T06:04:05Z</time>
      </trkpt>
      <trkpt lat="39.8285590" lon="-4.0571110">
        <ele>661.7</ele>
        <time>2019-08-13T06:04:06Z</time>
      </trkpt>
      <trkpt lat="39.8286260" lon="-4.0570950">
        <ele>661.5</ele>
        <time>2019-08-13T06:04:07Z</time>
      </trkpt>
      <trkpt lat="39.8286930" lon="-4.0570800">
        <ele>661.2</ele>
        <time>2019-08-13T06:04:08Z</time>
      </trkpt>
      <trkpt lat="39.8287590" lon="-4.0570650">
        <ele>661.0</ele>
        <time>2019-08-13T06:04:09Z</time>
      </trkpt>
      <trkpt lat="39.8288250" lon="-4.0570510">
        <ele>660.8</ele>
        <time>2019-08-13T06:04:10Z</time>
      </trkpt>
      <trkpt lat="39.8288890" lon="-4.0570380">
        <ele>660.6</ele>
        <time>2019-08-13T06:04:11Z</time>
      </trkpt>
      <trkpt lat="39.8289540" lon="-4.0570250">
        <ele>660.4</ele>
        <time>2019-08-13T06:04:12Z</time>
      </trkpt>
      <trkpt lat="39.8290180" lon="-4.0570130">
        <ele>660.3</ele>
        <time>2019-08-13T06:04:13Z</time>
      </trkpt>
      <trkpt lat="39.8290830" lon="-4.0570050">
        <ele>660.1</ele>
        <time>2019-08-13T06:04:14Z</time>
      </trkpt>
      <trkpt lat="39.8291500" lon="-4.0569960">
        <ele>660.0</ele>
        <time>2019-08-13T06:04:15Z</time>
      </trkpt>
      <trkpt lat="39.8292170" lon="-4.0569880">
        <ele>659.8</ele>
        <time>2019-08-13T06:04:16Z</time>
      </trkpt>
      <trkpt lat="39.8292850" lon="-4.0569810">
        <ele>659.6</ele>
        <time>2019-08-13T06:04:17Z</time>
      </trkpt>
      <trkpt lat="39.8293540" lon="-4.0569760">
        <ele>659.4</ele>
        <time>2019-08-13T06:04:18Z</time>
      </trkpt>
      <trkpt lat="39.8294220" lon="-4.0569740">
        <ele>659.2</ele>
        <time>2019-08-13T06:04:19Z</time>
      </trkpt>
      <trkpt lat="39.8294910" lon="-4.0569710">
        <ele>658.9</ele>
        <time>2019-08-13T06:04:20Z</time>
      </trkpt>
      <trkpt lat="39.8295590" lon="-4.0569670">
        <ele>658.7</ele>
        <time>2019-08-13T06:04:21Z</time>
      </trkpt>
      <trkpt lat="39.8296280" lon="-4.0569640">
        <ele>658.3</ele>
        <time>2019-08-13T06:04:22Z</time>
      </trkpt>
      <trkpt lat="39.8296970" lon="-4.0569610">
        <ele>657.7</ele>
        <time>2019-08-13T06:04:23Z</time>
      </trkpt>
      <trkpt lat="39.8297660" lon="-4.0569550">
        <ele>657.3</ele>
        <time>2019-08-13T06:04:24Z</time>
      </trkpt>
      <trkpt lat="39.8298350" lon="-4.0569490">
        <ele>656.9</ele>
        <time>2019-08-13T06:04:25Z</time>
      </trkpt>
      <trkpt lat="39.8299040" lon="-4.0569440">
        <ele>656.5</ele>
        <time>2019-08-13T06:04:26Z</time>
      </trkpt>
      <trkpt lat="39.8299730" lon="-4.0569390">
        <ele>656.1</ele>
        <time>2019-08-13T06:04:27Z</time>
      </trkpt>
      <trkpt lat="39.8300440" lon="-4.0569330">
        <ele>655.7</ele>
        <time>2019-08-13T06:04:28Z</time>
      </trkpt>
      <trkpt lat="39.8301160" lon="-4.0569270">
        <ele>655.3</ele>
        <time>2019-08-13T06:04:29Z</time>
      </trkpt>
      <trkpt lat="39.8301910" lon="-4.0569170">
        <ele>655.0</ele>
        <time>2019-08-13T06:04:30Z</time>
      </trkpt>
      <trkpt lat="39.8302670" lon="-4.0569070">
        <ele>654.8</ele>
        <time>2019-08-13T06:04:31Z</time>
      </trkpt>
      <trkpt lat="39.8303450" lon="-4.0568920">
        <ele>654.5</ele>
        <time>2019-08-13T06:04:32Z</time>
      </trkpt>
      <trkpt lat="39.8304260" lon="-4.0568780">
        <ele>654.2</ele>
        <time>2019-08-13T06:04:33Z</time>
      </trkpt>
      <trkpt lat="39.8305080" lon="-4.0568620">
        <ele>653.9</ele>
        <time>2019-08-13T06:04:34Z</time>
      </trkpt>
      <trkpt lat="39.8305920" lon="-4.0568480">
        <ele>653.6</ele>
        <time>2019-08-13T06:04:35Z</time>
      </trkpt>
      <trkpt lat="39.8306780" lon="-4.0568310">
        <ele>653.3</ele>
        <time>2019-08-13T06:04:36Z</time>
      </trkpt>
      <trkpt lat="39.8307660" lon="-4.0568150">
        <ele>653.0</ele>
        <time>2019-08-13T06:04:37Z</time>
      </trkpt>
      <trkpt lat="39.8308540" lon="-4.0567970">
        <ele>652.7</ele>
        <time>2019-08-13T06:04:38Z</time>
      </trkpt>
      <trkpt lat="39.8309460" lon="-4.0567780">
        <ele>652.3</ele>
        <time>2019-08-13T06:04:39Z</time>
      </trkpt>
      <trkpt lat="39.8310390" lon="-4.0567600">
        <ele>651.9</ele>
        <time>2019-08-13T06:04:40Z</time>
      </trkpt>
      <trkpt lat="39.8311340" lon="-4.0567410">
        <ele>651.4</ele>
        <time>2019-08-13T06:04:41Z</time>
      </trkpt>
      <trkpt lat="39.8312290" lon="-4.0567230">
        <ele>650.9</ele>
        <time>2019-08-13T06:04:42Z</time>
      </trkpt>
      <trkpt lat="39.8313250" lon="-4.0567020">
        <ele>650.3</ele>
        <time>2019-08-13T06:04:43Z</time>
      </trkpt>
      <trkpt lat="39.8314210" lon="-4.0566840">
        <ele>649.7</ele>
        <time>2019-08-13T06:04:44Z</time>
      </trkpt>
      <trkpt lat="39.8315190" lon="-4.0566650">
        <ele>649.1</ele>
        <time>2019-08-13T06:04:45Z</time>
      </trkpt>
      <trkpt lat="39.8316170" lon="-4.0566470">
        <ele>648.4</ele>
        <time>2019-08-13T06:04:46Z</time>
      </trkpt>
      <trkpt lat="39.8317150" lon="-4.0566280">
        <ele>647.8</ele>
        <time>2019-08-13T06:04:47Z</time>
      </trkpt>
      <trkpt lat="39.8318120" lon="-4.0566100">
        <ele>647.2</ele>
        <time>2019-08-13T06:04:48Z</time>
      </trkpt>
      <trkpt lat="39.8319110" lon="-4.0565930">
        <ele>646.6</ele>
        <time>2019-08-13T06:04:49Z</time>
      </trkpt>
      <trkpt lat="39.8320110" lon="-4.0565740">
        <ele>646.0</ele>
        <time>2019-08-13T06:04:50Z</time>
      </trkpt>
      <trkpt lat="39.8321090" lon="-4.0565540">
        <ele>645.4</ele>
        <time>2019-08-13T06:04:51Z</time>
      </trkpt>
      <trkpt lat="39.8322060" lon="-4.0565340">
        <ele>644.8</ele>
        <time>2019-08-13T06:04:52Z</time>
      </trkpt>
      <trkpt lat="39.8323020" lon="-4.0565150">
        <ele>644.3</ele>
        <time>2019-08-13T06:04:53Z</time>
      </trkpt>
      <trkpt lat="39.8323980" lon="-4.0564960">
        <ele>643.8</ele>
        <time>2019-08-13T06:04:54Z</time>
      </trkpt>
      <trkpt lat="39.8324910" lon="-4.0564780">
        <ele>643.3</ele>
        <time>2019-08-13T06:04:55Z</time>
      </trkpt>
      <trkpt lat="39.8325840" lon="-4.0564600">
        <ele>642.9</ele>
        <time>2019-08-13T06:04:56Z</time>
      </trkpt>
      <trkpt lat="39.8326760" lon="-4.0564430">
        <ele>642.6</ele>
        <time>2019-08-13T06:04:57Z</time>
      </trkpt>
      <trkpt lat="39.8327670" lon="-4.0564280">
        <ele>642.2</ele>
        <time>2019-08-13T06:04:58Z</time>
      </trkpt>
      <trkpt lat="39.8328570" lon="-4.0564100">
        <ele>641.9</ele>
        <time>2019-08-13T06:04:59Z</time>
      </trkpt>
      <trkpt lat="39.8329450" lon="-4.0563940">
        <ele>641.6</ele>
        <time>2019-08-13T06:05:00Z</time>
      </trkpt>
      <trkpt lat="39.8330330" lon="-4.0563770">
        <ele>641.3</ele>
        <time>2019-08-13T06:05:01Z</time>
      </trkpt>
      <trkpt lat="39.8331190" lon="-4.0563600">
        <ele>641.1</ele>
        <time>2019-08-13T06:05:02Z</time>
      </trkpt>
      <trkpt lat="39.8332040" lon="-4.0563450">
        <ele>640.9</ele>
        <time>2019-08-13T06:05:03Z</time>
      </trkpt>
      <trkpt lat="39.8332870" lon="-4.0563320">
        <ele>640.7</ele>
        <time>2019-08-13T06:05:04Z</time>
      </trkpt>
      <trkpt lat="39.8333690" lon="-4.0563200">
        <ele>640.4</ele>
        <time>2019-08-13T06:05:05Z</time>
      </trkpt>
      <trkpt lat="39.8334520" lon="-4.0563120">
        <ele>640.2</ele>
        <time>2019-08-13T06:05:06Z</time>
      </trkpt>
      <trkpt lat="39.8335350" lon="-4.0563080">
        <ele>639.8</ele>
        <time>2019-08-13T06:05:07Z</time>
      </trkpt>
      <trkpt lat="39.8336180" lon="-4.0563050">
        <ele>639.5</ele>
        <time>2019-08-13T06:05:08Z</time>
      </trkpt>
      <trkpt lat="39.8337030" lon="-4.0563050">
        <ele>639.1</ele>
        <time>2019-08-13T06:05:09Z</time>
      </trkpt>
      <trkpt lat="39.8337920" lon="-4.0563090">
        <ele>638.6</ele>
        <time>2019-08-13T06:05:10Z</time>
      </trkpt>
      <trkpt lat="39.8338830" lon="-4.0563130">
        <ele>638.1</ele>
        <time>2019-08-13T06:05:11Z</time>
      </trkpt>
      <trkpt lat="39.8339760" lon="-4.0563180">
        <ele>637.6</ele>
        <time>2019-08-13T06:05:12Z</time>
      </trkpt>
      <trkpt lat="39.8340710" lon="-4.0563250">
        <ele>637.0</ele>
        <time>2019-08-13T06:05:13Z</time>
      </trkpt>
      <trkpt lat="39.8341670" lon="-4.0563320">
        <ele>636.5</ele>
        <time>2019-08-13T06:05:14Z</time>
      </trkpt>
      <trkpt lat="39.8342630" lon="-4.0563400">
        <ele>635.9</ele>
        <time>2019-08-13T06:05:15Z</time>
      </trkpt>
      <trkpt lat="39.8343620" lon="-4.0563490">
        <ele>635.3</ele>
        <time>2019-08-13T06:05:16Z</time>
      </trkpt>
      <trkpt lat="39.8344610" lon="-4.0563580">
        <ele>634.7</ele>
        <time>2019-08-13T06:05:17Z</time>
      </trkpt>
      <trkpt lat="39.8345620" lon="-4.0563670">
        <ele>634.2</ele>
        <time>2019-08-13T06:05:18Z</time>
      </trkpt>
      <trkpt lat="39.8346630" lon="-4.0563760">
        <ele>633.6</ele>
        <time>2019-08-13T06:05:19Z</time>
      </trkpt>
      <trkpt lat="39.8347630" lon="-4.0563850">
        <ele>633.0</ele>
        <time>2019-08-13T06:05:20Z</time>
      </trkpt>
      <trkpt lat="39.8348650" lon="-4.0563940">
        <ele>632.5</ele>
        <time>2019-08-13T06:05:21Z</time>
      </trkpt>
      <trkpt lat="39.8349680" lon="-4.0564020">
        <ele>632.0</ele>
        <time>2019-08-13T06:05:22Z</time>
      </trkpt>
      <trkpt lat="39.8350730" lon="-4.0564120">
        <ele>631.4</ele>
        <time>2019-08-13T06:05:23Z</time>
      </trkpt>
      <trkpt lat="39.8351760" lon="-4.0564210">
        <ele>630.9</ele>
        <time>2019-08-13T06:05:24Z</time>
      </trkpt>
      <trkpt lat="39.8352800" lon="-4.0564290">
        <ele>630.4</ele>
        <time>2019-08-13T06:05:25Z</time>
      </trkpt>
      <trkpt lat="39.8353840" lon="-4.0564380">
        <ele>630.0</ele>
        <time>2019-08-13T06:05:26Z</time>
      </trkpt>
      <trkpt lat="39.8354880" lon="-4.0564480">
        <ele>629.7</ele>
        <time>2019-08-13T06:05:27Z</time>
      </trkpt>
      <trkpt lat="39.8355910" lon="-4.0564570">
        <ele>629.3</ele>
        <time>2019-08-13T06:05:28Z</time>
      </trkpt>
      <trkpt lat="39.8356930" lon="-4.0564660">
        <ele>628.9</ele>
        <time>2019-08-13T06:05:29Z</time>
      </trkpt>
      <trkpt lat="39.8357930" lon="-4.0564750">
        <ele>628.4</ele>
        <time>2019-08-13T06:05:30Z</time>
      </trkpt>
      <trkpt lat="39.8358950" lon="-4.0564840">
        <ele>628.0</ele>
        <time>2019-08-13T06:05:31Z</time>
      </trkpt>
      <trkpt lat="39.8359970" lon="-4.0564890">
        <ele>627.6</ele>
        <time>2019-08-13T06:05:32Z</time>
      </trkpt>
      <trkpt lat="39.8360990" lon="-4.0564910">
        <ele>627.3</ele>
        <time>2019-08-13T06:05:33Z</time>
      </trkpt>
      <trkpt lat="39.8362010" lon="-4.0564870">
        <ele>626.9</ele>
        <time>2019-08-13T06:05:34Z</time>
      </trkpt>
      <trkpt lat="39.8363030" lon="-4.0564760">
        <ele>626.5</ele>
        <time>2019-08-13T06:05:35Z</time>
      </trkpt>
      <trkpt lat="39.8364040" lon="-4.0564600">
        <ele>626.2</ele>
        <time>2019-08-13T06:05:36Z</time>
      </trkpt>
      <trkpt lat="39.8365020" lon="-4.0564380">
        <ele>625.9</ele>
        <time>2019-08-13T06:05:37Z</time>
      </trkpt>
      <trkpt lat="39.8365980" lon="-4.0564120">
        <ele>625.5</ele>
        <time>2019-08-13T06:05:38Z</time>
      </trkpt>
      <trkpt lat="39.8366920" lon="-4.0563820">
        <ele>625.1</ele>
        <time>2019-08-13T06:05:39Z</time>
      </trkpt>
      <trkpt lat="39.8367840" lon="-4.0563480">
        <ele>624.7</ele>
        <time>2019-08-13T06:05:40Z</time>
      </trkpt>
      <trkpt lat="39.8368750" lon="-4.0563070">
        <ele>624.3</ele>
        <time>2019-08-13T06:05:41Z</time>
      </trkpt>
      <trkpt lat="39.8369640" lon="-4.0562590">
        <ele>623.9</ele>
        <time>2019-08-13T06:05:42Z</time>
      </trkpt>
      <trkpt lat="39.8370500" lon="-4.0562090">
        <ele>623.6</ele>
        <time>2019-08-13T06:05:43Z</time>
      </trkpt>
      <trkpt lat="39.8371310" lon="-4.0561530">
        <ele>623.3</ele>
        <time>2019-08-13T06:05:44Z</time>
      </trkpt>
      <trkpt lat="39.8372090" lon="-4.0560930">
        <ele>623.1</ele>
        <time>2019-08-13T06:05:45Z</time>
      </trkpt>
      <trkpt lat="39.8372830" lon="-4.0560300">
        <ele>623.0</ele>
        <time>2019-08-13T06:05:46Z</time>
      </trkpt>
      <trkpt lat="39.8373520" lon="-4.0559640">
        <ele>622.9</ele>
        <time>2019-08-13T06:05:47Z</time>
      </trkpt>
      <trkpt lat="39.8374180" lon="-4.0558960">
        <ele>622.8</ele>
        <time>2019-08-13T06:05:48Z</time>
      </trkpt>
      <trkpt lat="39.8374820" lon="-4.0558310">
        <ele>622.7</ele>
        <time>2019-08-13T06:05:49Z</time>
      </trkpt>
      <trkpt lat="39.8375450" lon="-4.0557690">
        <ele>622.6</ele>
        <time>2019-08-13T06:05:50Z</time>
      </trkpt>
      <trkpt lat="39.8376050" lon="-4.0557110">
        <ele>622.4</ele>
        <time>2019-08-13T06:05:51Z</time>
      </trkpt>
      <trkpt lat="39.8376660" lon="-4.0556550">
        <ele>622.1</ele>
        <time>2019-08-13T06:05:52Z</time>
      </trkpt>
      <trkpt lat="39.8377240" lon="-4.0556030">
        <ele>621.9</ele>
        <time>2019-08-13T06:05:53Z</time>
      </trkpt>
      <trkpt lat="39.8377820" lon="-4.0555530">
        <ele>621.6</ele>
        <time>2019-08-13T06:05:54Z</time>
      </trkpt>
      <trkpt lat="39.8378410" lon="-4.0555050">
        <ele>621.3</ele>
        <time>2019-08-13T06:05:55Z</time>
      </trkpt>
      <trkpt lat="39.8379020" lon="-4.0554560">
        <ele>620.9</ele>
        <time>2019-08-13T06:05:56Z</time>
      </trkpt>
      <trkpt lat="39.8379670" lon="-4.0554110">
        <ele>620.5</ele>
        <time>2019-08-13T06:05:57Z</time>
      </trkpt>
      <trkpt lat="39.8380330" lon="-4.0553680">
        <ele>620.1</ele>
        <time>2019-08-13T06:05:58Z</time>
      </trkpt>
      <trkpt lat="39.8381010" lon="-4.0553320">
        <ele>619.7</ele>
        <time>2019-08-13T06:05:59Z</time>
      </trkpt>
      <trkpt lat="39.8381720" lon="-4.0553010">
        <ele>619.3</ele>
        <time>2019-08-13T06:06:00Z</time>
      </trkpt>
      <trkpt lat="39.8382450" lon="-4.0552740">
        <ele>618.9</ele>
        <time>2019-08-13T06:06:01Z</time>
      </trkpt>
      <trkpt lat="39.8383210" lon="-4.0552500">
        <ele>618.4</ele>
        <time>2019-08-13T06:06:02Z</time>
      </trkpt>
      <trkpt lat="39.8384010" lon="-4.0552280">
        <ele>618.0</ele>
        <time>2019-08-13T06:06:03Z</time>
      </trkpt>
      <trkpt lat="39.8384830" lon="-4.0552080">
        <ele>617.5</ele>
        <time>2019-08-13T06:06:04Z</time>
      </trkpt>
      <trkpt lat="39.8385670" lon="-4.0551900">
        <ele>617.0</ele>
        <time>2019-08-13T06:06:05Z</time>
      </trkpt>
      <trkpt lat="39.8386530" lon="-4.0551750">
        <ele>616.5</ele>
        <time>2019-08-13T06:06:06Z</time>
      </trkpt>
      <trkpt lat="39.8387380" lon="-4.0551590">
        <ele>615.9</ele>
        <time>2019-08-13T06:06:07Z</time>
      </trkpt>
      <trkpt lat="39.8388270" lon="-4.0551430">
        <ele>615.4</ele>
        <time>2019-08-13T06:06:08Z</time>
      </trkpt>
      <trkpt lat="39.8389180" lon="-4.0551250">
        <ele>614.8</ele>
        <time>2019-08-13T06:06:09Z</time>
      </trkpt>
      <trkpt lat="39.8390090" lon="-4.0551070">
        <ele>614.2</ele>
        <time>2019-08-13T06:06:10Z</time>
      </trkpt>
      <trkpt lat="39.8391010" lon="-4.0550890">
        <ele>613.6</ele>
        <time>2019-08-13T06:06:11Z</time>
      </trkpt>
      <trkpt lat="39.8391950" lon="-4.0550700">
        <ele>613.1</ele>
        <time>2019-08-13T06:06:12Z</time>
      </trkpt>
      <trkpt lat="39.8392890" lon="-4.0550500">
        <ele>612.5</ele>
        <time>2019-08-13T06:06:13Z</time>
      </trkpt>
      <trkpt lat="39.8393830" lon="-4.0550310">
        <ele>611.7</ele>
        <time>2019-08-13T06:06:14Z</time>
      </trkpt>
      <trkpt lat="39.8394810" lon="-4.0550130">
        <ele>611.0</ele>
        <time>2019-08-13T06:06:15Z</time>
      </trkpt>
      <trkpt lat="39.8395820" lon="-4.0549950">
        <ele>610.3</ele>
        <time>2019-08-13T06:06:16Z</time>
      </trkpt>
      <trkpt lat="39.8396820" lon="-4.0549760">
        <ele>609.5</ele>
        <time>2019-08-13T06:06:17Z</time>
      </trkpt>
      <trkpt lat="39.8397810" lon="-4.0549570">
        <ele>608.8</ele>
        <time>2019-08-13T06:06:18Z</time>
      </trkpt>
      <trkpt lat="39.8398810" lon="-4.0549380">
        <ele>608.2</ele>
        <time>2019-08-13T06:06:19Z</time>
      </trkpt>
      <trkpt lat="39.8399820" lon="-4.0549200">
        <ele>607.9</ele>
        <time>2019-08-13T06:06:20Z</time>
      </trkpt>
      <trkpt lat="39.8400820" lon="-4.0549020">
        <ele>607.7</ele>
        <time>2019-08-13T06:06:21Z</time>
      </trkpt>
      <trkpt lat="39.8401800" lon="-4.0548840">
        <ele>607.5</ele>
        <time>2019-08-13T06:06:22Z</time>
      </trkpt>
      <trkpt lat="39.8402740" lon="-4.0548670">
        <ele>607.3</ele>
        <time>2019-08-13T06:06:23Z</time>
      </trkpt>
      <trkpt lat="39.8403640" lon="-4.0548500">
        <ele>607.1</ele>
        <time>2019-08-13T06:06:24Z</time>
      </trkpt>
      <trkpt lat="39.8404530" lon="-4.0548340">
        <ele>607.1</ele>
        <time>2019-08-13T06:06:25Z</time>
      </trkpt>
      <trkpt lat="39.8405380" lon="-4.0548190">
        <ele>607.0</ele>
        <time>2019-08-13T06:06:26Z</time>
      </trkpt>
      <trkpt lat="39.8406200" lon="-4.0548030">
        <ele>607.0</ele>
        <time>2019-08-13T06:06:27Z</time>
      </trkpt>
      <trkpt lat="39.8406990" lon="-4.0547890">
        <ele>607.0</ele>
        <time>2019-08-13T06:06:28Z</time>
      </trkpt>
      <trkpt lat="39.8407770" lon="-4.0547750">
        <ele>607.0</ele>
        <time>2019-08-13T06:06:29Z</time>
      </trkpt>
      <trkpt lat="39.8408530" lon="-4.0547620">
        <ele>606.9</ele>
        <time>2019-08-13T06:06:30Z</time>
      </trkpt>
      <trkpt lat="39.8409270" lon="-4.0547490">
        <ele>606.8</ele>
        <time>2019-08-13T06:06:31Z</time>
      </trkpt>
      <trkpt lat="39.8410000" lon="-4.0547350">
        <ele>606.7</ele>
        <time>2019-08-13T06:06:32Z</time>
      </trkpt>
      <trkpt lat="39.8410710" lon="-4.0547210">
        <ele>606.6</ele>
        <time>2019-08-13T06:06:33Z</time>
      </trkpt>
      <trkpt lat="39.8411390" lon="-4.0547070">
        <ele>606.5</ele>
        <time>2019-08-13T06:06:34Z</time>
      </trkpt>
      <trkpt lat="39.8412050" lon="-4.0546960">
        <ele>606.5</ele>
        <time>2019-08-13T06:06:35Z</time>
      </trkpt>
      <trkpt lat="39.8412710" lon="-4.0546850">
        <ele>606.5</ele>
        <time>2019-08-13T06:06:36Z</time>
      </trkpt>
      <trkpt lat="39.8413350" lon="-4.0546740">
        <ele>606.6</ele>
        <time>2019-08-13T06:06:37Z</time>
      </trkpt>
      <trkpt lat="39.8413970" lon="-4.0546610">
        <ele>606.7</ele>
        <time>2019-08-13T06:06:38Z</time>
      </trkpt>
      <trkpt lat="39.8414570" lon="-4.0546490">
        <ele>606.8</ele>
        <time>2019-08-13T06:06:39Z</time>
      </trkpt>
      <trkpt lat="39.8415150" lon="-4.0546370">
        <ele>607.0</ele>
        <time>2019-08-13T06:06:40Z</time>
      </trkpt>
      <trkpt lat="39.8415730" lon="-4.0546250">
        <ele>607.1</ele>
        <time>2019-08-13T06:06:41Z</time>
      </trkpt>
      <trkpt lat="39.8416290" lon="-4.0546130">
        <ele>607.2</ele>
        <time>2019-08-13T06:06:42Z</time>
      </trkpt>
      <trkpt lat="39.8416850" lon="-4.0546010">
        <ele>607.3</ele>
        <time>2019-08-13T06:06:43Z</time>
      </trkpt>
      <trkpt lat="39.8417400" lon="-4.0545910">
        <ele>607.4</ele>
        <time>2019-08-13T06:06:44Z</time>
      </trkpt>
      <trkpt lat="39.8417940" lon="-4.0545810">
        <ele>607.5</ele>
        <time>2019-08-13T06:06:45Z</time>
      </trkpt>
      <trkpt lat="39.8418460" lon="-4.0545710">
        <ele>607.6</ele>
        <time>2019-08-13T06:06:46Z</time>
      </trkpt>
      <trkpt lat="39.8418970" lon="-4.0545620">
        <ele>607.7</ele>
        <time>2019-08-13T06:06:47Z</time>
      </trkpt>
      <trkpt lat="39.8419470" lon="-4.0545510">
        <ele>607.8</ele>
        <time>2019-08-13T06:06:48Z</time>
      </trkpt>
      <trkpt lat="39.8419960" lon="-4.0545390">
        <ele>607.9</ele>
        <time>2019-08-13T06:06:49Z</time>
      </trkpt>
      <trkpt lat="39.8420460" lon="-4.0545270">
        <ele>608.0</ele>
        <time>2019-08-13T06:06:50Z</time>
      </trkpt>
      <trkpt lat="39.8420970" lon="-4.0545160">
        <ele>608.1</ele>
        <time>2019-08-13T06:06:51Z</time>
      </trkpt>
      <trkpt lat="39.8421480" lon="-4.0545080">
        <ele>608.2</ele>
        <time>2019-08-13T06:06:52Z</time>
      </trkpt>
      <trkpt lat="39.8421990" lon="-4.0545020">
        <ele>608.2</ele>
        <time>2019-08-13T06:06:53Z</time>
      </trkpt>
      <trkpt lat="39.8422490" lon="-4.0545010">
        <ele>608.3</ele>
        <time>2019-08-13T06:06:54Z</time>
      </trkpt>
      <trkpt lat="39.8422990" lon="-4.0545050">
        <ele>608.3</ele>
        <time>2019-08-13T06:06:55Z</time>
      </trkpt>
      <trkpt lat="39.8423500" lon="-4.0545140">
        <ele>608.2</ele>
        <time>2019-08-13T06:06:56Z</time>
      </trkpt>
      <trkpt lat="39.8424010" lon="-4.0545300">
        <ele>608.3</ele>
        <time>2019-08-13T06:06:57Z</time>
      </trkpt>
      <trkpt lat="39.8424520" lon="-4.0545500">
        <ele>608.3</ele>
        <time>2019-08-13T06:06:58Z</time>
      </trkpt>
      <trkpt lat="39.8425030" lon="-4.0545740">
        <ele>608.3</ele>
        <time>2019-08-13T06:06:59Z</time>
      </trkpt>
      <trkpt lat="39.8425540" lon="-4.0545950">
        <ele>608.3</ele>
        <time>2019-08-13T06:07:00Z</time>
      </trkpt>
      <trkpt lat="39.8426060" lon="-4.0546090">
        <ele>608.4</ele>
        <time>2019-08-13T06:07:01Z</time>
      </trkpt>
      <trkpt lat="39.8426580" lon="-4.0546120">
        <ele>608.4</ele>
        <time>2019-08-13T06:07:02Z</time>
      </trkpt>
      <trkpt lat="39.8427080" lon="-4.0546050">
        <ele>608.5</ele>
        <time>2019-08-13T06:07:03Z</time>
      </trkpt>
      <trkpt lat="39.8427580" lon="-4.0545930">
        <ele>608.6</ele>
        <time>2019-08-13T06:07:04Z</time>
      </trkpt>
      <trkpt lat="39.8428100" lon="-4.0545820">
        <ele>608.8</ele>
        <time>2019-08-13T06:07:05Z</time>
      </trkpt>
      <trkpt lat="39.8428610" lon="-4.0545720">
        <ele>608.9</ele>
        <time>2019-08-13T06:07:06Z</time>
      </trkpt>
      <trkpt lat="39.8429140" lon="-4.0545640">
        <ele>609.0</ele>
        <time>2019-08-13T06:07:07Z</time>
      </trkpt>
      <trkpt lat="39.8429680" lon="-4.0545570">
        <ele>608.9</ele>
        <time>2019-08-13T06:07:08Z</time>
      </trkpt>
      <trkpt lat="39.8430230" lon="-4.0545470">
        <ele>608.9</ele>
        <time>2019-08-13T06:07:09Z</time>
      </trkpt>
      <trkpt lat="39.8430760" lon="-4.0545340">
        <ele>608.9</ele>
        <time>2019-08-13T06:07:10Z</time>
      </trkpt>
      <trkpt lat="39.8431270" lon="-4.0545150">
        <ele>608.9</ele>
        <time>2019-08-13T06:07:11Z</time>
      </trkpt>
      <trkpt lat="39.8431760" lon="-4.0544920">
        <ele>608.9</ele>
        <time>2019-08-13T06:07:12Z</time>
      </trkpt>
      <trkpt lat="39.8432230" lon="-4.0544610">
        <ele>608.9</ele>
        <time>2019-08-13T06:07:13Z</time>
      </trkpt>
      <trkpt lat="39.8432660" lon="-4.0544240">
        <ele>608.9</ele>
        <time>2019-08-13T06:07:14Z</time>
      </trkpt>
      <trkpt lat="39.8433080" lon="-4.0543820">
        <ele>608.9</ele>
        <time>2019-08-13T06:07:15Z</time>
      </trkpt>
      <trkpt lat="39.8433480" lon="-4.0543400">
        <ele>608.9</ele>
        <time>2019-08-13T06:07:16Z</time>
      </trkpt>
      <trkpt lat="39.8433880" lon="-4.0542980">
        <ele>608.9</ele>
        <time>2019-08-13T06:07:17Z</time>
      </trkpt>
      <trkpt lat="39.8434270" lon="-4.0542550">
        <ele>608.9</ele>
        <time>2019-08-13T06:07:18Z</time>
      </trkpt>
      <trkpt lat="39.8434680" lon="-4.0542130">
        <ele>608.9</ele>
        <time>2019-08-13T06:07:19Z</time>
      </trkpt>
      <trkpt lat="39.8435080" lon="-4.0541690">
        <ele>608.9</ele>
        <time>2019-08-13T06:07:20Z</time>
      </trkpt>
      <trkpt lat="39.8435500" lon="-4.0541250">
        <ele>609.0</ele>
        <time>2019-08-13T06:07:21Z</time>
      </trkpt>
      <trkpt lat="39.8435930" lon="-4.0540810">
        <ele>609.1</ele>
        <time>2019-08-13T06:07:22Z</time>
      </trkpt>
      <trkpt lat="39.8436370" lon="-4.0540350">
        <ele>609.2</ele>
        <time>2019-08-13T06:07:23Z</time>
      </trkpt>
      <trkpt lat="39.8436810" lon="-4.0539890">
        <ele>609.4</ele>
        <time>2019-08-13T06:07:24Z</time>
      </trkpt>
      <trkpt lat="39.8437270" lon="-4.0539400">
        <ele>609.6</ele>
        <time>2019-08-13T06:07:25Z</time>
      </trkpt>
      <trkpt lat="39.8437730" lon="-4.0538930">
        <ele>609.8</ele>
        <time>2019-08-13T06:07:26Z</time>
      </trkpt>
      <trkpt lat="39.8438210" lon="-4.0538460">
        <ele>610.0</ele>
        <time>2019-08-13T06:07:27Z</time>
      </trkpt>
      <trkpt lat="39.8438690" lon="-4.0537980">
        <ele>610.2</ele>
        <time>2019-08-13T06:07:28Z</time>
      </trkpt>
      <trkpt lat="39.8439170" lon="-4.0537500">
        <ele>610.4</ele>
        <time>2019-08-13T06:07:29Z</time>
      </trkpt>
      <trkpt lat="39.8439640" lon="-4.0537000">
        <ele>610.5</ele>
        <time>2019-08-13T06:07:30Z</time>
      </trkpt>
      <trkpt lat="39.8440110" lon="-4.0536470">
        <ele>610.5</ele>
        <time>2019-08-13T06:07:31Z</time>
      </trkpt>
      <trkpt lat="39.8440590" lon="-4.0535920">
        <ele>610.4</ele>
        <time>2019-08-13T06:07:32Z</time>
      </trkpt>
      <trkpt lat="39.8441090" lon="-4.0535360">
        <ele>610.3</ele>
        <time>2019-08-13T06:07:33Z</time>
      </trkpt>
      <trkpt lat="39.8441590" lon="-4.0534780">
        <ele>610.1</ele>
        <time>2019-08-13T06:07:34Z</time>
      </trkpt>
      <trkpt lat="39.8442070" lon="-4.0534180">
        <ele>609.9</ele>
        <time>2019-08-13T06:07:35Z</time>
      </trkpt>
      <trkpt lat="39.8442560" lon="-4.0533550">
        <ele>609.6</ele>
        <time>2019-08-13T06:07:36Z</time>
      </trkpt>
      <trkpt lat="39.8443060" lon="-4.0532880">
        <ele>609.2</ele>
        <time>2019-08-13T06:07:37Z</time>
      </trkpt>
      <trkpt lat="39.8443570" lon="-4.0532210">
        <ele>608.9</ele>
        <time>2019-08-13T06:07:38Z</time>
      </trkpt>
      <trkpt lat="39.8444080" lon="-4.0531550">
        <ele>608.5</ele>
        <time>2019-08-13T06:07:39Z</time>
      </trkpt>
      <trkpt lat="39.8444610" lon="-4.0530880">
        <ele>608.1</ele>
        <time>2019-08-13T06:07:40Z</time>
      </trkpt>
      <trkpt lat="39.8445140" lon="-4.0530160">
        <ele>607.6</ele>
        <time>2019-08-13T06:07:41Z</time>
      </trkpt>
      <trkpt lat="39.8445700" lon="-4.0529460">
        <ele>607.2</ele>
        <time>2019-08-13T06:07:42Z</time>
      </trkpt>
      <trkpt lat="39.8446270" lon="-4.0528740">
        <ele>606.6</ele>
        <time>2019-08-13T06:07:43Z</time>
      </trkpt>
      <trkpt lat="39.8446860" lon="-4.0527990">
        <ele>606.0</ele>
        <time>2019-08-13T06:07:44Z</time>
      </trkpt>
      <trkpt lat="39.8447460" lon="-4.0527220">
        <ele>605.4</ele>
        <time>2019-08-13T06:07:45Z</time>
      </trkpt>
      <trkpt lat="39.8448060" lon="-4.0526420">
        <ele>604.8</ele>
        <time>2019-08-13T06:07:46Z</time>
      </trkpt>
      <trkpt lat="39.8448680" lon="-4.0525620">
        <ele>604.1</ele>
        <time>2019-08-13T06:07:47Z</time>
      </trkpt>
      <trkpt lat="39.8449310" lon="-4.0524810">
        <ele>603.4</ele>
        <time>2019-08-13T06:07:48Z</time>
      </trkpt>
      <trkpt lat="39.8449950" lon="-4.0524000">
        <ele>602.7</ele>
        <time>2019-08-13T06:07:49Z</time>
      </trkpt>
      <trkpt lat="39.8450590" lon="-4.0523180">
        <ele>602.1</ele>
        <time>2019-08-13T06:07:50Z</time>
      </trkpt>
      <trkpt lat="39.8451230" lon="-4.0522320">
        <ele>601.4</ele>
        <time>2019-08-13T06:07:51Z</time>
      </trkpt>
      <trkpt lat="39.8451900" lon="-4.0521450">
        <ele>600.7</ele>
        <time>2019-08-13T06:07:52Z</time>
      </trkpt>
      <trkpt lat="39.8452590" lon="-4.0520550">
        <ele>600.1</ele>
        <time>2019-08-13T06:07:53Z</time>
      </trkpt>
      <trkpt lat="39.8453300" lon="-4.0519640">
        <ele>599.5</ele>
        <time>2019-08-13T06:07:54Z</time>
      </trkpt>
      <trkpt lat="39.8454000" lon="-4.0518740">
        <ele>598.9</ele>
        <time>2019-08-13T06:07:55Z</time>
      </trkpt>
      <trkpt lat="39.8454710" lon="-4.0517830">
        <ele>598.3</ele>
        <time>2019-08-13T06:07:56Z</time>
      </trkpt>
      <trkpt lat="39.8455430" lon="-4.0516890">
        <ele>597.7</ele>
        <time>2019-08-13T06:07:57Z</time>
      </trkpt>
      <trkpt lat="39.8456150" lon="-4.0515920">
        <ele>597.1</ele>
        <time>2019-08-13T06:07:58Z</time>
      </trkpt>
      <trkpt lat="39.8456880" lon="-4.0514910">
        <ele>596.5</ele>
        <time>2019-08-13T06:07:59Z</time>
      </trkpt>
      <trkpt lat="39.8457580" lon="-4.0513860">
        <ele>595.8</ele>
        <time>2019-08-13T06:08:00Z</time>
      </trkpt>
      <trkpt lat="39.8458250" lon="-4.0512790">
        <ele>595.2</ele>
        <time>2019-08-13T06:08:01Z</time>
      </trkpt>
      <trkpt lat="39.8458880" lon="-4.0511700">
        <ele>594.6</ele>
        <time>2019-08-13T06:08:02Z</time>
      </trkpt>
      <trkpt lat="39.8459470" lon="-4.0510590">
        <ele>594.0</ele>
        <time>2019-08-13T06:08:03Z</time>
      </trkpt>
      <trkpt lat="39.8460010" lon="-4.0509480">
        <ele>593.4</ele>
        <time>2019-08-13T06:08:04Z</time>
      </trkpt>
      <trkpt lat="39.8460520" lon="-4.0508400">
        <ele>592.9</ele>
        <time>2019-08-13T06:08:05Z</time>
      </trkpt>
      <trkpt lat="39.8460990" lon="-4.0507330">
        <ele>592.5</ele>
        <time>2019-08-13T06:08:06Z</time>
      </trkpt>
      <trkpt lat="39.8461450" lon="-4.0506270">
        <ele>592.2</ele>
        <time>2019-08-13T06:08:07Z</time>
      </trkpt>
      <trkpt lat="39.8461880" lon="-4.0505220">
        <ele>592.0</ele>
        <time>2019-08-13T06:08:08Z</time>
      </trkpt>
      <trkpt lat="39.8462310" lon="-4.0504190">
        <ele>591.8</ele>
        <time>2019-08-13T06:08:09Z</time>
      </trkpt>
      <trkpt lat="39.8462720" lon="-4.0503180">
        <ele>591.6</ele>
        <time>2019-08-13T06:08:10Z</time>
      </trkpt>
      <trkpt lat="39.8463140" lon="-4.0502200">
        <ele>591.4</ele>
        <time>2019-08-13T06:08:11Z</time>
      </trkpt>
      <trkpt lat="39.8463540" lon="-4.0501280">
        <ele>591.2</ele>
        <time>2019-08-13T06:08:12Z</time>
      </trkpt>
      <trkpt lat="39.8463920" lon="-4.0500380">
        <ele>590.9</ele>
        <time>2019-08-13T06:08:13Z</time>
      </trkpt>
      <trkpt lat="39.8464300" lon="-4.0499520">
        <ele>590.7</ele>
        <time>2019-08-13T06:08:14Z</time>
      </trkpt>
      <trkpt lat="39.8464670" lon="-4.0498670">
        <ele>590.5</ele>
        <time>2019-08-13T06:08:15Z</time>
      </trkpt>
      <trkpt lat="39.8465030" lon="-4.0497850">
        <ele>590.3</ele>
        <time>2019-08-13T06:08:16Z</time>
      </trkpt>
      <trkpt lat="39.8465380" lon="-4.0497040">
        <ele>590.1</ele>
        <time>2019-08-13T06:08:17Z</time>
      </trkpt>
      <trkpt lat="39.8465720" lon="-4.0496230">
        <ele>590.0</ele>
        <time>2019-08-13T06:08:18Z</time>
      </trkpt>
      <trkpt lat="39.8466060" lon="-4.0495410">
        <ele>589.9</ele>
        <time>2019-08-13T06:08:19Z</time>
      </trkpt>
      <trkpt lat="39.8466400" lon="-4.0494620">
        <ele>589.8</ele>
        <time>2019-08-13T06:08:20Z</time>
      </trkpt>
      <trkpt lat="39.8466750" lon="-4.0493820">
        <ele>589.8</ele>
        <time>2019-08-13T06:08:21Z</time>
      </trkpt>
      <trkpt lat="39.8467110" lon="-4.0493000">
        <ele>589.8</ele>
        <time>2019-08-13T06:08:22Z</time>
      </trkpt>
      <trkpt lat="39.8467450" lon="-4.0492180">
        <ele>589.8</ele>
        <time>2019-08-13T06:08:23Z</time>
      </trkpt>
      <trkpt lat="39.8467780" lon="-4.0491330">
        <ele>589.8</ele>
        <time>2019-08-13T06:08:24Z</time>
      </trkpt>
      <trkpt lat="39.8468090" lon="-4.0490480">
        <ele>589.8</ele>
        <time>2019-08-13T06:08:25Z</time>
      </trkpt>
      <trkpt lat="39.8468390" lon="-4.0489630">
        <ele>589.8</ele>
        <time>2019-08-13T06:08:26Z</time>
      </trkpt>
      <trkpt lat="39.8468680" lon="-4.0488770">
        <ele>589.8</ele>
        <time>2019-08-13T06:08:27Z</time>
      </trkpt>
      <trkpt lat="39.8468940" lon="-4.0487920">
        <ele>589.8</ele>
        <time>2019-08-13T06:08:28Z</time>
      </trkpt>
      <trkpt lat="39.8469190" lon="-4.0487080">
        <ele>589.8</ele>
        <time>2019-08-13T06:08:29Z</time>
      </trkpt>
      <trkpt lat="39.8469430" lon="-4.0486270">
        <ele>589.8</ele>
        <time>2019-08-13T06:08:30Z</time>
      </trkpt>
      <trkpt lat="39.8469670" lon="-4.0485470">
        <ele>589.8</ele>
        <time>2019-08-13T06:08:31Z</time>
      </trkpt>
      <trkpt lat="39.8469890" lon="-4.0484700">
        <ele>589.9</ele>
        <time>2019-08-13T06:08:32Z</time>
      </trkpt>
      <trkpt lat="39.8470120" lon="-4.0483940">
        <ele>589.9</ele>
        <time>2019-08-13T06:08:33Z</time>
      </trkpt>
      <trkpt lat="39.8470350" lon="-4.0483210">
        <ele>590.1</ele>
        <time>2019-08-13T06:08:34Z</time>
      </trkpt>
      <trkpt lat="39.8470580" lon="-4.0482490">
        <ele>590.2</ele>
        <time>2019-08-13T06:08:35Z</time>
      </trkpt>
      <trkpt lat="39.8470810" lon="-4.0481780">
        <ele>590.4</ele>
        <time>2019-08-13T06:08:36Z</time>
      </trkpt>
      <trkpt lat="39.8471040" lon="-4.0481080">
        <ele>590.6</ele>
        <time>2019-08-13T06:08:37Z</time>
      </trkpt>
      <trkpt lat="39.8471300" lon="-4.0480400">
        <ele>590.8</ele>
        <time>2019-08-13T06:08:38Z</time>
      </trkpt>
      <trkpt lat="39.8471570" lon="-4.0479740">
        <ele>591.0</ele>
        <time>2019-08-13T06:08:39Z</time>
      </trkpt>
      <trkpt lat="39.8471840" lon="-4.0479060">
        <ele>591.2</ele>
        <time>2019-08-13T06:08:40Z</time>
      </trkpt>
      <trkpt lat="39.8472110" lon="-4.0478400">
        <ele>591.4</ele>
        <time>2019-08-13T06:08:41Z</time>
      </trkpt>
      <trkpt lat="39.8472400" lon="-4.0477730">
        <ele>591.5</ele>
        <time>2019-08-13T06:08:42Z</time>
      </trkpt>
      <trkpt lat="39.8472720" lon="-4.0477060">
        <ele>591.7</ele>
        <time>2019-08-13T06:08:43Z</time>
      </trkpt>
      <trkpt lat="39.8473040" lon="-4.0476400">
        <ele>591.8</ele>
        <time>2019-08-13T06:08:44Z</time>
      </trkpt>
      <trkpt lat="39.8473390" lon="-4.0475760">
        <ele>591.8</ele>
        <time>2019-08-13T06:08:45Z</time>
      </trkpt>
      <trkpt lat="39.8473740" lon="-4.0475140">
        <ele>591.9</ele>
        <time>2019-08-13T06:08:46Z</time>
      </trkpt>
      <trkpt lat="39.8474110" lon="-4.0474550">
        <ele>591.9</ele>
        <time>2019-08-13T06:08:47Z</time>
      </trkpt>
      <trkpt lat="39.8474500" lon="-4.0473970">
        <ele>591.9</ele>
        <time>2019-08-13T06:08:48Z</time>
      </trkpt>
      <trkpt lat="39.8474920" lon="-4.0473400">
        <ele>591.9</ele>
        <time>2019-08-13T06:08:49Z</time>
      </trkpt>
      <trkpt lat="39.8475350" lon="-4.0472830">
        <ele>591.9</ele>
        <time>2019-08-13T06:08:50Z</time>
      </trkpt>
      <trkpt lat="39.8475830" lon="-4.0472260">
        <ele>591.8</ele>
        <time>2019-08-13T06:08:51Z</time>
      </trkpt>
      <trkpt lat="39.8476330" lon="-4.0471710">
        <ele>591.7</ele>
        <time>2019-08-13T06:08:52Z</time>
      </trkpt>
      <trkpt lat="39.8476860" lon="-4.0471160">
        <ele>591.5</ele>
        <time>2019-08-13T06:08:53Z</time>
      </trkpt>
      <trkpt lat="39.8477440" lon="-4.0470630">
        <ele>591.3</ele>
        <time>2019-08-13T06:08:54Z</time>
      </trkpt>
      <trkpt lat="39.8478020" lon="-4.0470100">
        <ele>591.1</ele>
        <time>2019-08-13T06:08:55Z</time>
      </trkpt>
      <trkpt lat="39.8478620" lon="-4.0469560">
        <ele>590.8</ele>
        <time>2019-08-13T06:08:56Z</time>
      </trkpt>
      <trkpt lat="39.8479240" lon="-4.0469020">
        <ele>590.4</ele>
        <time>2019-08-13T06:08:57Z</time>
      </trkpt>
      <trkpt lat="39.8479870" lon="-4.0468480">
        <ele>590.0</ele>
        <time>2019-08-13T06:08:58Z</time>
      </trkpt>
      <trkpt lat="39.8480530" lon="-4.0467940">
        <ele>589.6</ele>
        <time>2019-08-13T06:08:59Z</time>
      </trkpt>
      <trkpt lat="39.8481210" lon="-4.0467380">
        <ele>589.1</ele>
        <time>2019-08-13T06:09:00Z</time>
      </trkpt>
      <trkpt lat="39.8481920" lon="-4.0466780">
        <ele>588.5</ele>
        <time>2019-08-13T06:09:01Z</time>
      </trkpt>
      <trkpt lat="39.8482660" lon="-4.0466100">
        <ele>587.8</ele>
        <time>2019-08-13T06:09:02Z</time>
      </trkpt>
      <trkpt lat="39.8483400" lon="-4.0465380">
        <ele>587.1</ele>
        <time>2019-08-13T06:09:03Z</time>
      </trkpt>
      <trkpt lat="39.8484120" lon="-4.0464610">
        <ele>586.3</ele>
        <time>2019-08-13T06:09:04Z</time>
      </trkpt>
      <trkpt lat="39.8484840" lon="-4.0463800">
        <ele>585.5</ele>
        <time>2019-08-13T06:09:05Z</time>
      </trkpt>
      <trkpt lat="39.8485540" lon="-4.0462960">
        <ele>584.6</ele>
        <time>2019-08-13T06:09:06Z</time>
      </trkpt>
      <trkpt lat="39.8486230" lon="-4.0462090">
        <ele>583.7</ele>
        <time>2019-08-13T06:09:07Z</time>
      </trkpt>
      <trkpt lat="39.8486910" lon="-4.0461200">
        <ele>582.9</ele>
        <time>2019-08-13T06:09:08Z</time>
      </trkpt>
      <trkpt lat="39.8487600" lon="-4.0460260">
        <ele>582.2</ele>
        <time>2019-08-13T06:09:09Z</time>
      </trkpt>
      <trkpt lat="39.8488310" lon="-4.0459300">
        <ele>581.6</ele>
        <time>2019-08-13T06:09:10Z</time>
      </trkpt>
      <trkpt lat="39.8489030" lon="-4.0458300">
        <ele>581.0</ele>
        <time>2019-08-13T06:09:11Z</time>
      </trkpt>
      <trkpt lat="39.8489730" lon="-4.0457260">
        <ele>580.6</ele>
        <time>2019-08-13T06:09:12Z</time>
      </trkpt>
      <trkpt lat="39.8490410" lon="-4.0456170">
        <ele>580.1</ele>
        <time>2019-08-13T06:09:13Z</time>
      </trkpt>
      <trkpt lat="39.8491070" lon="-4.0455030">
        <ele>579.6</ele>
        <time>2019-08-13T06:09:14Z</time>
      </trkpt>
      <trkpt lat="39.8491700" lon="-4.0453850">
        <ele>579.1</ele>
        <time>2019-08-13T06:09:15Z</time>
      </trkpt>
      <trkpt lat="39.8492280" lon="-4.0452610">
        <ele>578.5</ele>
        <time>2019-08-13T06:09:16Z</time>
      </trkpt>
      <trkpt lat="39.8492830" lon="-4.0451330">
        <ele>577.9</ele>
        <time>2019-08-13T06:09:17Z</time>
      </trkpt>
      <trkpt lat="39.8493340" lon="-4.0449990">
        <ele>577.3</ele>
        <time>2019-08-13T06:09:18Z</time>
      </trkpt>
      <trkpt lat="39.8493820" lon="-4.0448600">
        <ele>576.7</ele>
        <time>2019-08-13T06:09:19Z</time>
      </trkpt>
      <trkpt lat="39.8494230" lon="-4.0447160">
        <ele>576.2</ele>
        <time>2019-08-13T06:09:20Z</time>
      </trkpt>
      <trkpt lat="39.8494590" lon="-4.0445680">
        <ele>575.6</ele>
        <time>2019-08-13T06:09:21Z</time>
      </trkpt>
      <trkpt lat="39.8494920" lon="-4.0444190">
        <ele>575.1</ele>
        <time>2019-08-13T06:09:22Z</time>
      </trkpt>
      <trkpt lat="39.8495230" lon="-4.0442680">
        <ele>574.5</ele>
        <time>2019-08-13T06:09:23Z</time>
      </trkpt>
      <trkpt lat="39.8495560" lon="-4.0441160">
        <ele>574.0</ele>
        <time>2019-08-13T06:09:24Z</time>
      </trkpt>
      <trkpt lat="39.8495900" lon="-4.0439630">
        <ele>573.4</ele>
        <time>2019-08-13T06:09:25Z</time>
      </trkpt>
      <trkpt lat="39.8496260" lon="-4.0438100">
        <ele>572.9</ele>
        <time>2019-08-13T06:09:26Z</time>
      </trkpt>
      <trkpt lat="39.8496620" lon="-4.0436550">
        <ele>572.3</ele>
        <time>2019-08-13T06:09:27Z</time>
      </trkpt>
      <trkpt lat="39.8496990" lon="-4.0434990">
        <ele>571.6</ele>
        <time>2019-08-13T06:09:28Z</time>
      </trkpt>
      <trkpt lat="39.8497340" lon="-4.0433430">
        <ele>571.0</ele>
        <time>2019-08-13T06:09:29Z</time>
      </trkpt>
      <trkpt lat="39.8497720" lon="-4.0431850">
        <ele>570.3</ele>
        <time>2019-08-13T06:09:30Z</time>
      </trkpt>
      <trkpt lat="39.8498080" lon="-4.0430280">
        <ele>569.6</ele>
        <time>2019-08-13T06:09:31Z</time>
      </trkpt>
      <trkpt lat="39.8498440" lon="-4.0428710">
        <ele>568.9</ele>
        <time>2019-08-13T06:09:32Z</time>
      </trkpt>
      <trkpt lat="39.8498800" lon="-4.0427130">
        <ele>568.1</ele>
        <time>2019-08-13T06:09:33Z</time>
      </trkpt>
      <trkpt lat="39.8499150" lon="-4.0425550">
        <ele>567.4</ele>
        <time>2019-08-13T06:09:34Z</time>
      </trkpt>
      <trkpt lat="39.8499500" lon="-4.0423950">
        <ele>566.6</ele>
        <time>2019-08-13T06:09:35Z</time>
      </trkpt>
      <trkpt lat="39.8499850" lon="-4.0422340">
        <ele>565.8</ele>
        <time>2019-08-13T06:09:36Z</time>
      </trkpt>
      <trkpt lat="39.8500190" lon="-4.0420720">
        <ele>564.9</ele>
        <time>2019-08-13T06:09:37Z</time>
      </trkpt>
      <trkpt lat="39.8500550" lon="-4.0419100">
        <ele>564.0</ele>
        <time>2019-08-13T06:09:38Z</time>
      </trkpt>
      <trkpt lat="39.8500920" lon="-4.0417480">
        <ele>563.0</ele>
        <time>2019-08-13T06:09:39Z</time>
      </trkpt>
      <trkpt lat="39.8501300" lon="-4.0415900">
        <ele>562.0</ele>
        <time>2019-08-13T06:09:40Z</time>
      </trkpt>
      <trkpt lat="39.8501650" lon="-4.0414370">
        <ele>561.0</ele>
        <time>2019-08-13T06:09:41Z</time>
      </trkpt>
      <trkpt lat="39.8501990" lon="-4.0412880">
        <ele>559.9</ele>
        <time>2019-08-13T06:09:42Z</time>
      </trkpt>
      <trkpt lat="39.8502330" lon="-4.0411400">
        <ele>558.7</ele>
        <time>2019-08-13T06:09:43Z</time>
      </trkpt>
      <trkpt lat="39.8502680" lon="-4.0409940">
        <ele>557.5</ele>
        <time>2019-08-13T06:09:44Z</time>
      </trkpt>
      <trkpt lat="39.8503040" lon="-4.0408540">
        <ele>556.2</ele>
        <time>2019-08-13T06:09:45Z</time>
      </trkpt>
      <trkpt lat="39.8503440" lon="-4.0407140">
        <ele>554.6</ele>
        <time>2019-08-13T06:09:46Z</time>
      </trkpt>
      <trkpt lat="39.8503870" lon="-4.0405760">
        <ele>552.9</ele>
        <time>2019-08-13T06:09:47Z</time>
      </trkpt>
      <trkpt lat="39.8504370" lon="-4.0404360">
        <ele>551.9</ele>
        <time>2019-08-13T06:09:48Z</time>
      </trkpt>
      <trkpt lat="39.8504920" lon="-4.0402960">
        <ele>551.2</ele>
        <time>2019-08-13T06:09:49Z</time>
      </trkpt>
      <trkpt lat="39.8505520" lon="-4.0401560">
        <ele>550.4</ele>
        <time>2019-08-13T06:09:50Z</time>
      </trkpt>
      <trkpt lat="39.8506180" lon="-4.0400180">
        <ele>549.7</ele>
        <time>2019-08-13T06:09:51Z</time>
      </trkpt>
      <trkpt lat="39.8506880" lon="-4.0398810">
        <ele>548.9</ele>
        <time>2019-08-13T06:09:52Z</time>
      </trkpt>
      <trkpt lat="39.8507580" lon="-4.0397490">
        <ele>548.0</ele>
        <time>2019-08-13T06:09:53Z</time>
      </trkpt>
      <trkpt lat="39.8508280" lon="-4.0396240">
        <ele>547.1</ele>
        <time>2019-08-13T06:09:54Z</time>
      </trkpt>
      <trkpt lat="39.8509000" lon="-4.0395090">
        <ele>546.1</ele>
        <time>2019-08-13T06:09:55Z</time>
      </trkpt>
      <trkpt lat="39.8509740" lon="-4.0394100">
        <ele>545.2</ele>
        <time>2019-08-13T06:09:56Z</time>
      </trkpt>
      <trkpt lat="39.8510520" lon="-4.0393270">
        <ele>544.1</ele>
        <time>2019-08-13T06:09:57Z</time>
      </trkpt>
      <trkpt lat="39.8511330" lon="-4.0392590">
        <ele>543.2</ele>
        <time>2019-08-13T06:09:58Z</time>
      </trkpt>
      <trkpt lat="39.8512180" lon="-4.0392040">
        <ele>542.2</ele>
        <time>2019-08-13T06:09:59Z</time>
      </trkpt>
      <trkpt lat="39.8513080" lon="-4.0391610">
        <ele>541.3</ele>
        <time>2019-08-13T06:10:00Z</time>
      </trkpt>
      <trkpt lat="39.8514000" lon="-4.0391270">
        <ele>540.5</ele>
        <time>2019-08-13T06:10:01Z</time>
      </trkpt>
      <trkpt lat="39.8514950" lon="-4.0391060">
        <ele>539.6</ele>
        <time>2019-08-13T06:10:02Z</time>
      </trkpt>
      <trkpt lat="39.8515880" lon="-4.0390910">
        <ele>538.8</ele>
        <time>2019-08-13T06:10:03Z</time>
      </trkpt>
      <trkpt lat="39.8516810" lon="-4.0390820">
        <ele>537.9</ele>
        <time>2019-08-13T06:10:04Z</time>
      </trkpt>
      <trkpt lat="39.8517730" lon="-4.0390730">
        <ele>537.1</ele>
        <time>2019-08-13T06:10:05Z</time>
      </trkpt>
      <trkpt lat="39.8518610" lon="-4.0390630">
        <ele>536.4</ele>
        <time>2019-08-13T06:10:06Z</time>
      </trkpt>
      <trkpt lat="39.8519430" lon="-4.0390460">
        <ele>535.6</ele>
        <time>2019-08-13T06:10:07Z</time>
      </trkpt>
      <trkpt lat="39.8520210" lon="-4.0390200">
        <ele>535.0</ele>
        <time>2019-08-13T06:10:08Z</time>
      </trkpt>
      <trkpt lat="39.8520960" lon="-4.0389820">
        <ele>534.3</ele>
        <time>2019-08-13T06:10:09Z</time>
      </trkpt>
      <trkpt lat="39.8521660" lon="-4.0389300">
        <ele>533.6</ele>
        <time>2019-08-13T06:10:10Z</time>
      </trkpt>
      <trkpt lat="39.8522310" lon="-4.0388650">
        <ele>532.9</ele>
        <time>2019-08-13T06:10:11Z</time>
      </trkpt>
      <trkpt lat="39.8522890" lon="-4.0387870">
        <ele>532.2</ele>
        <time>2019-08-13T06:10:12Z</time>
      </trkpt>
      <trkpt lat="39.8523390" lon="-4.0386980">
        <ele>531.4</ele>
        <time>2019-08-13T06:10:13Z</time>
      </trkpt>
      <trkpt lat="39.8523820" lon="-4.0385940">
        <ele>530.7</ele>
        <time>2019-08-13T06:10:14Z</time>
      </trkpt>
      <trkpt lat="39.8524150" lon="-4.0384790">
        <ele>529.8</ele>
        <time>2019-08-13T06:10:15Z</time>
      </trkpt>
      <trkpt lat="39.8524400" lon="-4.0383550">
        <ele>529.0</ele>
        <time>2019-08-13T06:10:16Z</time>
      </trkpt>
      <trkpt lat="39.8524600" lon="-4.0382310">
        <ele>528.1</ele>
        <time>2019-08-13T06:10:17Z</time>
      </trkpt>
      <trkpt lat="39.8524790" lon="-4.0381070">
        <ele>527.3</ele>
        <time>2019-08-13T06:10:18Z</time>
      </trkpt>
      <trkpt lat="39.8525000" lon="-4.0379830">
        <ele>526.4</ele>
        <time>2019-08-13T06:10:19Z</time>
      </trkpt>
      <trkpt lat="39.8525180" lon="-4.0378610">
        <ele>525.5</ele>
        <time>2019-08-13T06:10:20Z</time>
      </trkpt>
      <trkpt lat="39.8525410" lon="-4.0377360">
        <ele>524.6</ele>
        <time>2019-08-13T06:10:21Z</time>
      </trkpt>
      <trkpt lat="39.8525620" lon="-4.0376130">
        <ele>523.6</ele>
        <time>2019-08-13T06:10:22Z</time>
      </trkpt>
      <trkpt lat="39.8525830" lon="-4.0374900">
        <ele>522.7</ele>
        <time>2019-08-13T06:10:23Z</time>
      </trkpt>
      <trkpt lat="39.8526010" lon="-4.0373690">
        <ele>521.7</ele>
        <time>2019-08-13T06:10:24Z</time>
      </trkpt>
      <trkpt lat="39.8526180" lon="-4.0372520">
        <ele>520.8</ele>
        <time>2019-08-13T06:10:25Z</time>
      </trkpt>
      <trkpt lat="39.8526310" lon="-4.0371320">
        <ele>519.9</ele>
        <time>2019-08-13T06:10:26Z</time>
      </trkpt>
      <trkpt lat="39.8526390" lon="-4.0370050">
        <ele>519.1</ele>
        <time>2019-08-13T06:10:27Z</time>
      </trkpt>
      <trkpt lat="39.8526380" lon="-4.0368750">
        <ele>518.2</ele>
        <time>2019-08-13T06:10:28Z</time>
      </trkpt>
      <trkpt lat="39.8526300" lon="-4.0367400">
        <ele>517.4</ele>
        <time>2019-08-13T06:10:29Z</time>
      </trkpt>
      <trkpt lat="39.8526180" lon="-4.0366030">
        <ele>516.6</ele>
        <time>2019-08-13T06:10:30Z</time>
      </trkpt>
      <trkpt lat="39.8526010" lon="-4.0364660">
        <ele>515.8</ele>
        <time>2019-08-13T06:10:31Z</time>
      </trkpt>
      <trkpt lat="39.8525840" lon="-4.0363290">
        <ele>515.1</ele>
        <time>2019-08-13T06:10:32Z</time>
      </trkpt>
      <trkpt lat="39.8525680" lon="-4.0361950">
        <ele>514.3</ele>
        <time>2019-08-13T06:10:33Z</time>
      </trkpt>
      <trkpt lat="39.8525560" lon="-4.0360710">
        <ele>513.7</ele>
        <time>2019-08-13T06:10:34Z</time>
      </trkpt>
      <trkpt lat="39.8525490" lon="-4.0359610">
        <ele>513.1</ele>
        <time>2019-08-13T06:10:35Z</time>
      </trkpt>
      <trkpt lat="39.8525490" lon="-4.0358600">
        <ele>512.5</ele>
        <time>2019-08-13T06:10:36Z</time>
      </trkpt>
      <trkpt lat="39.8525560" lon="-4.0357620">
        <ele>512.0</ele>
        <time>2019-08-13T06:10:37Z</time>
      </trkpt>
      <trkpt lat="39.8525700" lon="-4.0356660">
        <ele>511.4</ele>
        <time>2019-08-13T06:10:38Z</time>
      </trkpt>
      <trkpt lat="39.8525900" lon="-4.0355730">
        <ele>510.8</ele>
        <time>2019-08-13T06:10:39Z</time>
      </trkpt>
      <trkpt lat="39.8526140" lon="-4.0354830">
        <ele>510.2</ele>
        <time>2019-08-13T06:10:40Z</time>
      </trkpt>
      <trkpt lat="39.8526420" lon="-4.0353960">
        <ele>509.6</ele>
        <time>2019-08-13T06:10:41Z</time>
      </trkpt>
      <trkpt lat="39.8526770" lon="-4.0353130">
        <ele>509.0</ele>
        <time>2019-08-13T06:10:42Z</time>
      </trkpt>
      <trkpt lat="39.8527140" lon="-4.0352360">
        <ele>508.3</ele>
        <time>2019-08-13T06:10:43Z</time>
      </trkpt>
      <trkpt lat="39.8527520" lon="-4.0351630">
        <ele>507.7</ele>
        <time>2019-08-13T06:10:44Z</time>
      </trkpt>
      <trkpt lat="39.8527870" lon="-4.0350940">
        <ele>507.0</ele>
        <time>2019-08-13T06:10:45Z</time>
      </trkpt>
      <trkpt lat="39.8528190" lon="-4.0350250">
        <ele>506.4</ele>
        <time>2019-08-13T06:10:46Z</time>
      </trkpt>
      <trkpt lat="39.8528440" lon="-4.0349590">
        <ele>505.7</ele>
        <time>2019-08-13T06:10:47Z</time>
      </trkpt>
      <trkpt lat="39.8528580" lon="-4.0348950">
        <ele>505.0</ele>
        <time>2019-08-13T06:10:48Z</time>
      </trkpt>
      <trkpt lat="39.8528610" lon="-4.0348310">
        <ele>504.4</ele>
        <time>2019-08-13T06:10:49Z</time>
      </trkpt>
      <trkpt lat="39.8528590" lon="-4.0347640">
        <ele>503.5</ele>
        <time>2019-08-13T06:10:50Z</time>
      </trkpt>
      <trkpt lat="39.8528510" lon="-4.0346940">
        <ele>502.5</ele>
        <time>2019-08-13T06:10:51Z</time>
      </trkpt>
      <trkpt lat="39.8528370" lon="-4.0346210">
        <ele>501.7</ele>
        <time>2019-08-13T06:10:52Z</time>
      </trkpt>
      <trkpt lat="39.8528200" lon="-4.0345470">
        <ele>500.9</ele>
        <time>2019-08-13T06:10:53Z</time>
      </trkpt>
      <trkpt lat="39.8528050" lon="-4.0344680">
        <ele>500.0</ele>
        <time>2019-08-13T06:10:54Z</time>
      </trkpt>
      <trkpt lat="39.8527930" lon="-4.0343850">
        <ele>499.1</ele>
        <time>2019-08-13T06:10:55Z</time>
      </trkpt>
      <trkpt lat="39.8527850" lon="-4.0342990">
        <ele>498.2</ele>
        <time>2019-08-13T06:10:56Z</time>
      </trkpt>
      <trkpt lat="39.8527870" lon="-4.0342100">
        <ele>497.3</ele>
        <time>2019-08-13T06:10:57Z</time>
      </trkpt>
      <trkpt lat="39.8527970" lon="-4.0341200">
        <ele>496.5</ele>
        <time>2019-08-13T06:10:58Z</time>
      </trkpt>
      <trkpt lat="39.8528120" lon="-4.0340260">
        <ele>496.1</ele>
        <time>2019-08-13T06:10:59Z</time>
      </trkpt>
      <trkpt lat="39.8528250" lon="-4.0339280">
        <ele>495.7</ele>
        <time>2019-08-13T06:11:00Z</time>
      </trkpt>
      <trkpt lat="39.8528350" lon="-4.0338260">
        <ele>495.2</ele>
        <time>2019-08-13T06:11:01Z</time>
      </trkpt>
      <trkpt lat="39.8528450" lon="-4.0337230">
        <ele>494.8</ele>
        <time>2019-08-13T06:11:02Z</time>
      </trkpt>
      <trkpt lat="39.8528630" lon="-4.0336270">
        <ele>492.9</ele>
        <time>2019-08-13T06:11:03Z</time>
      </trkpt>
      <trkpt lat="39.8528900" lon="-4.0335380">
        <ele>491.4</ele>
        <time>2019-08-13T06:11:04Z</time>
      </trkpt>
      <trkpt lat="39.8529260" lon="-4.0334610">
        <ele>490.4</ele>
        <time>2019-08-13T06:11:05Z</time>
      </trkpt>
      <trkpt lat="39.8529700" lon="-4.0333970">
        <ele>490.0</ele>
        <time>2019-08-13T06:11:06Z</time>
      </trkpt>
      <trkpt lat="39.8530210" lon="-4.0333450">
        <ele>490.1</ele>
        <time>2019-08-13T06:11:07Z</time>
      </trkpt>
      <trkpt lat="39.8530760" lon="-4.0333050">
        <ele>490.4</ele>
        <time>2019-08-13T06:11:08Z</time>
      </trkpt>
      <trkpt lat="39.8531360" lon="-4.0332810">
        <ele>491.1</ele>
        <time>2019-08-13T06:11:09Z</time>
      </trkpt>
      <trkpt lat="39.8531950" lon="-4.0332690">
        <ele>492.1</ele>
        <time>2019-08-13T06:11:10Z</time>
      </trkpt>
      <trkpt lat="39.8532540" lon="-4.0332730">
        <ele>493.4</ele>
        <time>2019-08-13T06:11:11Z</time>
      </trkpt>
      <trkpt lat="39.8533160" lon="-4.0332900">
        <ele>495.0</ele>
        <time>2019-08-13T06:11:12Z</time>
      </trkpt>
      <trkpt lat="39.8533810" lon="-4.0333210">
        <ele>496.9</ele>
        <time>2019-08-13T06:11:13Z</time>
      </trkpt>
      <trkpt lat="39.8534480" lon="-4.0333610">
        <ele>497.1</ele>
        <time>2019-08-13T06:11:14Z</time>
      </trkpt>
      <trkpt lat="39.8535200" lon="-4.0334080">
        <ele>496.2</ele>
        <time>2019-08-13T06:11:15Z</time>
      </trkpt>
      <trkpt lat="39.8535920" lon="-4.0334610">
        <ele>495.4</ele>
        <time>2019-08-13T06:11:16Z</time>
      </trkpt>
      <trkpt lat="39.8536690" lon="-4.0335090">
        <ele>494.7</ele>
        <time>2019-08-13T06:11:17Z</time>
      </trkpt>
      <trkpt lat="39.8537480" lon="-4.0335580">
        <ele>493.9</ele>
        <time>2019-08-13T06:11:18Z</time>
      </trkpt>
      <trkpt lat="39.8538190" lon="-4.0336070">
        <ele>493.2</ele>
        <time>2019-08-13T06:11:19Z</time>
      </trkpt>
      <trkpt lat="39.8538860" lon="-4.0336560">
        <ele>492.5</ele>
        <time>2019-08-13T06:11:20Z</time>
      </trkpt>
      <trkpt lat="39.8539520" lon="-4.0337040">
        <ele>491.7</ele>
        <time>2019-08-13T06:11:21Z</time>
      </trkpt>
      <trkpt lat="39.8540220" lon="-4.0337530">
        <ele>490.7</ele>
        <time>2019-08-13T06:11:22Z</time>
      </trkpt>
      <trkpt lat="39.8540940" lon="-4.0337990">
        <ele>489.8</ele>
        <time>2019-08-13T06:11:23Z</time>
      </trkpt>
      <trkpt lat="39.8541700" lon="-4.0338410">
        <ele>488.9</ele>
        <time>2019-08-13T06:11:24Z</time>
      </trkpt>
      <trkpt lat="39.8542470" lon="-4.0338780">
        <ele>488.0</ele>
        <time>2019-08-13T06:11:25Z</time>
      </trkpt>
      <trkpt lat="39.8543260" lon="-4.0339090">
        <ele>486.9</ele>
        <time>2019-08-13T06:11:26Z</time>
      </trkpt>
      <trkpt lat="39.8544080" lon="-4.0339360">
        <ele>485.7</ele>
        <time>2019-08-13T06:11:27Z</time>
      </trkpt>
      <trkpt lat="39.8544940" lon="-4.0339580">
        <ele>484.8</ele>
        <time>2019-08-13T06:11:28Z</time>
      </trkpt>
      <trkpt lat="39.8545820" lon="-4.0339730">
        <ele>483.4</ele>
        <time>2019-08-13T06:11:29Z</time>
      </trkpt>
      <trkpt lat="39.8546680" lon="-4.0339810">
        <ele>481.4</ele>
        <time>2019-08-13T06:11:30Z</time>
      </trkpt>
      <trkpt lat="39.8547470" lon="-4.0339810">
        <ele>479.5</ele>
        <time>2019-08-13T06:11:31Z</time>
      </trkpt>
      <trkpt lat="39.8548230" lon="-4.0339790">
        <ele>477.7</ele>
        <time>2019-08-13T06:11:32Z</time>
      </trkpt>
      <trkpt lat="39.8549000" lon="-4.0339790">
        <ele>475.8</ele>
        <time>2019-08-13T06:11:33Z</time>
      </trkpt>
      <trkpt lat="39.8549800" lon="-4.0339820">
        <ele>473.9</ele>
        <time>2019-08-13T06:11:34Z</time>
      </trkpt>
      <trkpt lat="39.8550600" lon="-4.0339900">
        <ele>472.9</ele>
        <time>2019-08-13T06:11:35Z</time>
      </trkpt>
      <trkpt lat="39.8551370" lon="-4.0340050">
        <ele>472.3</ele>
        <time>2019-08-13T06:11:36Z</time>
      </trkpt>
      <trkpt lat="39.8552120" lon="-4.0340240">
        <ele>471.8</ele>
        <time>2019-08-13T06:11:37Z</time>
      </trkpt>
      <trkpt lat="39.8552850" lon="-4.0340460">
        <ele>471.1</ele>
        <time>2019-08-13T06:11:38Z</time>
      </trkpt>
      <trkpt lat="39.8553530" lon="-4.0340680">
        <ele>470.6</ele>
        <time>2019-08-13T06:11:39Z</time>
      </trkpt>
      <trkpt lat="39.8554170" lon="-4.0340900">
        <ele>470.0</ele>
        <time>2019-08-13T06:11:40Z</time>
      </trkpt>
      <trkpt lat="39.8554780" lon="-4.0341070">
        <ele>469.4</ele>
        <time>2019-08-13T06:11:41Z</time>
      </trkpt>
      <trkpt lat="39.8555340" lon="-4.0341240">
        <ele>468.9</ele>
        <time>2019-08-13T06:11:42Z</time>
      </trkpt>
      <trkpt lat="39.8555820" lon="-4.0341430">
        <ele>468.5</ele>
        <time>2019-08-13T06:11:43Z</time>
      </trkpt>
      <trkpt lat="39.8556210" lon="-4.0341640">
        <ele>468.1</ele>
        <time>2019-08-13T06:11:44Z</time>
      </trkpt>
      <trkpt lat="39.8556520" lon="-4.0341870">
        <ele>467.8</ele>
        <time>2019-08-13T06:11:45Z</time>
      </trkpt>
      <trkpt lat="39.8556800" lon="-4.0342080">
        <ele>467.6</ele>
        <time>2019-08-13T06:11:46Z</time>
      </trkpt>
      <trkpt lat="39.8557040" lon="-4.0342270">
        <ele>467.3</ele>
        <time>2019-08-13T06:11:47Z</time>
      </trkpt>
      <trkpt lat="39.8557440" lon="-4.0342610">
        <ele>466.9</ele>
        <time>2019-08-13T06:11:49Z</time>
      </trkpt>
      <trkpt lat="39.8557820" lon="-4.0342970">
        <ele>466.5</ele>
        <time>2019-08-13T06:11:51Z</time>
      </trkpt>
      <trkpt lat="39.8558040" lon="-4.0343200">
        <ele>466.3</ele>
        <time>2019-08-13T06:11:54Z</time>
      </trkpt>
      <trkpt lat="39.8558270" lon="-4.0343520">
        <ele>466.0</ele>
        <time>2019-08-13T06:15:16Z</time>
      </trkpt>
      <trkpt lat="39.8558610" lon="-4.0344020">
        <ele>465.7</ele>
        <time>2019-08-13T06:15:18Z</time>
      </trkpt>
      <trkpt lat="39.8558810" lon="-4.0344310">
        <ele>465.4</ele>
        <time>2019-08-13T06:15:19Z</time>
      </trkpt>
      <trkpt lat="39.8559020" lon="-4.0344650">
        <ele>465.2</ele>
        <time>2019-08-13T06:15:20Z</time>
      </trkpt>
      <trkpt lat="39.8559240" lon="-4.0345030">
        <ele>464.9</ele>
        <time>2019-08-13T06:15:21Z</time>
      </trkpt>
      <trkpt lat="39.8559480" lon="-4.0345450">
        <ele>464.6</ele>
        <time>2019-08-13T06:15:22Z</time>
      </trkpt>
      <trkpt lat="39.8559730" lon="-4.0345880">
        <ele>464.4</ele>
        <time>2019-08-13T06:15:23Z</time>
      </trkpt>
      <trkpt lat="39.8560020" lon="-4.0346320">
        <ele>464.1</ele>
        <time>2019-08-13T06:15:24Z</time>
      </trkpt>
      <trkpt lat="39.8560300" lon="-4.0346780">
        <ele>463.8</ele>
        <time>2019-08-13T06:15:25Z</time>
      </trkpt>
      <trkpt lat="39.8560580" lon="-4.0347260">
        <ele>463.5</ele>
        <time>2019-08-13T06:15:26Z</time>
      </trkpt>
      <trkpt lat="39.8560880" lon="-4.0347770">
        <ele>463.2</ele>
        <time>2019-08-13T06:15:27Z</time>
      </trkpt>
      <trkpt lat="39.8561220" lon="-4.0348270">
        <ele>462.8</ele>
        <time>2019-08-13T06:15:28Z</time>
      </trkpt>
      <trkpt lat="39.8561590" lon="-4.0348780">
        <ele>462.5</ele>
        <time>2019-08-13T06:15:29Z</time>
      </trkpt>
      <trkpt lat="39.8561990" lon="-4.0349330">
        <ele>462.6</ele>
        <time>2019-08-13T06:15:30Z</time>
      </trkpt>
      <trkpt lat="39.8562410" lon="-4.0349930">
        <ele>462.6</ele>
        <time>2019-08-13T06:15:31Z</time>
      </trkpt>
      <trkpt lat="39.8562840" lon="-4.0350560">
        <ele>462.4</ele>
        <time>2019-08-13T06:15:32Z</time>
      </trkpt>
      <trkpt lat="39.8563280" lon="-4.0351230">
        <ele>462.1</ele>
        <time>2019-08-13T06:15:33Z</time>
      </trkpt>
      <trkpt lat="39.8563720" lon="-4.0351920">
        <ele>461.8</ele>
        <time>2019-08-13T06:15:34Z</time>
      </trkpt>
      <trkpt lat="39.8564190" lon="-4.0352600">
        <ele>461.4</ele>
        <time>2019-08-13T06:15:35Z</time>
      </trkpt>
      <trkpt lat="39.8564680" lon="-4.0353260">
        <ele>461.1</ele>
        <time>2019-08-13T06:15:36Z</time>
      </trkpt>
      <trkpt lat="39.8565180" lon="-4.0353890">
        <ele>460.7</ele>
        <time>2019-08-13T06:15:37Z</time>
      </trkpt>
      <trkpt lat="39.8565710" lon="-4.0354510">
        <ele>460.2</ele>
        <time>2019-08-13T06:15:38Z</time>
      </trkpt>
      <trkpt lat="39.8566240" lon="-4.0355130">
        <ele>459.8</ele>
        <time>2019-08-13T06:15:39Z</time>
      </trkpt>
      <trkpt lat="39.8566760" lon="-4.0355730">
        <ele>459.4</ele>
        <time>2019-08-13T06:15:40Z</time>
      </trkpt>
      <trkpt lat="39.8567280" lon="-4.0356330">
        <ele>459.0</ele>
        <time>2019-08-13T06:15:41Z</time>
      </trkpt>
      <trkpt lat="39.8567810" lon="-4.0356910">
        <ele>458.6</ele>
        <time>2019-08-13T06:15:42Z</time>
      </trkpt>
      <trkpt lat="39.8568340" lon="-4.0357490">
        <ele>458.2</ele>
        <time>2019-08-13T06:15:43Z</time>
      </trkpt>
      <trkpt lat="39.8568850" lon="-4.0358050">
        <ele>457.8</ele>
        <time>2019-08-13T06:15:44Z</time>
      </trkpt>
      <trkpt lat="39.8569330" lon="-4.0358600">
        <ele>457.5</ele>
        <time>2019-08-13T06:15:45Z</time>
      </trkpt>
      <trkpt lat="39.8569780" lon="-4.0359140">
        <ele>457.3</ele>
        <time>2019-08-13T06:15:46Z</time>
      </trkpt>
      <trkpt lat="39.8570260" lon="-4.0359660">
        <ele>457.0</ele>
        <time>2019-08-13T06:15:47Z</time>
      </trkpt>
      <trkpt lat="39.8570760" lon="-4.0360160">
        <ele>456.9</ele>
        <time>2019-08-13T06:15:48Z</time>
      </trkpt>
      <trkpt lat="39.8571250" lon="-4.0360640">
        <ele>457.2</ele>
        <time>2019-08-13T06:15:49Z</time>
      </trkpt>
      <trkpt lat="39.8571740" lon="-4.0361130">
        <ele>457.4</ele>
        <time>2019-08-13T06:15:50Z</time>
      </trkpt>
      <trkpt lat="39.8572250" lon="-4.0361610">
        <ele>457.7</ele>
        <time>2019-08-13T06:15:51Z</time>
      </trkpt>
      <trkpt lat="39.8572740" lon="-4.0362080">
        <ele>457.9</ele>
        <time>2019-08-13T06:15:52Z</time>
      </trkpt>
      <trkpt lat="39.8573230" lon="-4.0362550">
        <ele>458.2</ele>
        <time>2019-08-13T06:15:53Z</time>
      </trkpt>
      <trkpt lat="39.8573740" lon="-4.0362990">
        <ele>458.4</ele>
        <time>2019-08-13T06:15:54Z</time>
      </trkpt>
      <trkpt lat="39.8574250" lon="-4.0363410">
        <ele>458.7</ele>
        <time>2019-08-13T06:15:55Z</time>
      </trkpt>
      <trkpt lat="39.8574750" lon="-4.0363840">
        <ele>458.6</ele>
        <time>2019-08-13T06:15:56Z</time>
      </trkpt>
      <trkpt lat="39.8575270" lon="-4.0364270">
        <ele>458.5</ele>
        <time>2019-08-13T06:15:57Z</time>
      </trkpt>
      <trkpt lat="39.8575780" lon="-4.0364690">
        <ele>458.4</ele>
        <time>2019-08-13T06:15:58Z</time>
      </trkpt>
      <trkpt lat="39.8576320" lon="-4.0365100">
        <ele>458.4</ele>
        <time>2019-08-13T06:15:59Z</time>
      </trkpt>
      <trkpt lat="39.8576860" lon="-4.0365500">
        <ele>458.4</ele>
        <time>2019-08-13T06:16:00Z</time>
      </trkpt>
      <trkpt lat="39.8577400" lon="-4.0365890">
        <ele>458.4</ele>
        <time>2019-08-13T06:16:01Z</time>
      </trkpt>
      <trkpt lat="39.8577920" lon="-4.0366270">
        <ele>458.0</ele>
        <time>2019-08-13T06:16:02Z</time>
      </trkpt>
      <trkpt lat="39.8578460" lon="-4.0366650">
        <ele>457.6</ele>
        <time>2019-08-13T06:16:03Z</time>
      </trkpt>
      <trkpt lat="39.8579020" lon="-4.0367000">
        <ele>457.1</ele>
        <time>2019-08-13T06:16:04Z</time>
      </trkpt>
      <trkpt lat="39.8579600" lon="-4.0367250">
        <ele>456.7</ele>
        <time>2019-08-13T06:16:05Z</time>
      </trkpt>
      <trkpt lat="39.8580220" lon="-4.0367310">
        <ele>455.4</ele>
        <time>2019-08-13T06:16:06Z</time>
      </trkpt>
      <trkpt lat="39.8580840" lon="-4.0367150">
        <ele>454.6</ele>
        <time>2019-08-13T06:16:07Z</time>
      </trkpt>
      <trkpt lat="39.8581400" lon="-4.0366760">
        <ele>453.8</ele>
        <time>2019-08-13T06:16:08Z</time>
      </trkpt>
      <trkpt lat="39.8581830" lon="-4.0366140">
        <ele>452.2</ele>
        <time>2019-08-13T06:16:09Z</time>
      </trkpt>
      <trkpt lat="39.8582150" lon="-4.0365350">
        <ele>451.7</ele>
        <time>2019-08-13T06:16:10Z</time>
      </trkpt>
      <trkpt lat="39.8582410" lon="-4.0364550">
        <ele>451.3</ele>
        <time>2019-08-13T06:16:11Z</time>
      </trkpt>
      <trkpt lat="39.8582670" lon="-4.0363750">
        <ele>451.4</ele>
        <time>2019-08-13T06:16:12Z</time>
      </trkpt>
      <trkpt lat="39.8582960" lon="-4.0362930">
        <ele>451.4</ele>
        <time>2019-08-13T06:16:13Z</time>
      </trkpt>
      <trkpt lat="39.8583270" lon="-4.0362120">
        <ele>451.5</ele>
        <time>2019-08-13T06:16:14Z</time>
      </trkpt>
      <trkpt lat="39.8583570" lon="-4.0361290">
        <ele>451.5</ele>
        <time>2019-08-13T06:16:15Z</time>
      </trkpt>
      <trkpt lat="39.8583890" lon="-4.0360450">
        <ele>451.6</ele>
        <time>2019-08-13T06:16:16Z</time>
      </trkpt>
      <trkpt lat="39.8584200" lon="-4.0359620">
        <ele>451.6</ele>
        <time>2019-08-13T06:16:17Z</time>
      </trkpt>
      <trkpt lat="39.8584510" lon="-4.0358790">
        <ele>451.7</ele>
        <time>2019-08-13T06:16:18Z</time>
      </trkpt>
      <trkpt lat="39.8584830" lon="-4.0357960">
        <ele>451.8</ele>
        <time>2019-08-13T06:16:19Z</time>
      </trkpt>
      <trkpt lat="39.8585150" lon="-4.0357130">
        <ele>451.9</ele>
        <time>2019-08-13T06:16:20Z</time>
      </trkpt>
      <trkpt lat="39.8585490" lon="-4.0356310">
        <ele>452.0</ele>
        <time>2019-08-13T06:16:21Z</time>
      </trkpt>
      <trkpt lat="39.8585810" lon="-4.0355470">
        <ele>452.1</ele>
        <time>2019-08-13T06:16:22Z</time>
      </trkpt>
      <trkpt lat="39.8586140" lon="-4.0354640">
        <ele>452.2</ele>
        <time>2019-08-13T06:16:23Z</time>
      </trkpt>
      <trkpt lat="39.8586460" lon="-4.0353810">
        <ele>452.2</ele>
        <time>2019-08-13T06:16:24Z</time>
      </trkpt>
      <trkpt lat="39.8586760" lon="-4.0352970">
        <ele>452.3</ele>
        <time>2019-08-13T06:16:25Z</time>
      </trkpt>
      <trkpt lat="39.8587070" lon="-4.0352150">
        <ele>452.3</ele>
        <time>2019-08-13T06:16:26Z</time>
      </trkpt>
      <trkpt lat="39.8587380" lon="-4.0351330">
        <ele>452.2</ele>
        <time>2019-08-13T06:16:27Z</time>
      </trkpt>
      <trkpt lat="39.8587690" lon="-4.0350510">
        <ele>452.2</ele>
        <time>2019-08-13T06:16:28Z</time>
      </trkpt>
      <trkpt lat="39.8588010" lon="-4.0349670">
        <ele>452.1</ele>
        <time>2019-08-13T06:16:29Z</time>
      </trkpt>
      <trkpt lat="39.8588340" lon="-4.0348870">
        <ele>452.0</ele>
        <time>2019-08-13T06:16:30Z</time>
      </trkpt>
      <trkpt lat="39.8588640" lon="-4.0348040">
        <ele>451.9</ele>
        <time>2019-08-13T06:16:31Z</time>
      </trkpt>
      <trkpt lat="39.8588950" lon="-4.0347220">
        <ele>453.0</ele>
        <time>2019-08-13T06:16:32Z</time>
      </trkpt>
      <trkpt lat="39.8589250" lon="-4.0346400">
        <ele>454.1</ele>
        <time>2019-08-13T06:16:33Z</time>
      </trkpt>
      <trkpt lat="39.8589550" lon="-4.0345580">
        <ele>455.2</ele>
        <time>2019-08-13T06:16:34Z</time>
      </trkpt>
      <trkpt lat="39.8589850" lon="-4.0344760">
        <ele>456.3</ele>
        <time>2019-08-13T06:16:35Z</time>
      </trkpt>
      <trkpt lat="39.8590180" lon="-4.0343950">
        <ele>455.9</ele>
        <time>2019-08-13T06:16:36Z</time>
      </trkpt>
      <trkpt lat="39.8590500" lon="-4.0343150">
        <ele>455.7</ele>
        <time>2019-08-13T06:16:37Z</time>
      </trkpt>
      <trkpt lat="39.8590830" lon="-4.0342360">
        <ele>455.5</ele>
        <time>2019-08-13T06:16:38Z</time>
      </trkpt>
      <trkpt lat="39.8591180" lon="-4.0341580">
        <ele>455.4</ele>
        <time>2019-08-13T06:16:39Z</time>
      </trkpt>
      <trkpt lat="39.8591540" lon="-4.0340810">
        <ele>455.4</ele>
        <time>2019-08-13T06:16:40Z</time>
      </trkpt>
      <trkpt lat="39.8591920" lon="-4.0340070">
        <ele>455.4</ele>
        <time>2019-08-13T06:16:41Z</time>
      </trkpt>
      <trkpt lat="39.8592300" lon="-4.0339340">
        <ele>455.4</ele>
        <time>2019-08-13T06:16:42Z</time>
      </trkpt>
      <trkpt lat="39.8592710" lon="-4.0338620">
        <ele>455.5</ele>
        <time>2019-08-13T06:16:43Z</time>
      </trkpt>
      <trkpt lat="39.8593130" lon="-4.0337980">
        <ele>455.7</ele>
        <time>2019-08-13T06:16:44Z</time>
      </trkpt>
      <trkpt lat="39.8593540" lon="-4.0337400">
        <ele>455.8</ele>
        <time>2019-08-13T06:16:45Z</time>
      </trkpt>
      <trkpt lat="39.8593960" lon="-4.0336840">
        <ele>455.9</ele>
        <time>2019-08-13T06:16:46Z</time>
      </trkpt>
      <trkpt lat="39.8594390" lon="-4.0336270">
        <ele>456.0</ele>
        <time>2019-08-13T06:16:47Z</time>
      </trkpt>
      <trkpt lat="39.8594860" lon="-4.0335720">
        <ele>456.0</ele>
        <time>2019-08-13T06:16:48Z</time>
      </trkpt>
      <trkpt lat="39.8595340" lon="-4.0335170">
        <ele>456.0</ele>
        <time>2019-08-13T06:16:49Z</time>
      </trkpt>
      <trkpt lat="39.8595830" lon="-4.0334670">
        <ele>456.0</ele>
        <time>2019-08-13T06:16:50Z</time>
      </trkpt>
      <trkpt lat="39.8596350" lon="-4.0334200">
        <ele>455.9</ele>
        <time>2019-08-13T06:16:51Z</time>
      </trkpt>
      <trkpt lat="39.8596860" lon="-4.0333750">
        <ele>455.9</ele>
        <time>2019-08-13T06:16:52Z</time>
      </trkpt>
      <trkpt lat="39.8597330" lon="-4.0333350">
        <ele>455.9</ele>
        <time>2019-08-13T06:16:53Z</time>
      </trkpt>
      <trkpt lat="39.8597850" lon="-4.0332940">
        <ele>455.9</ele>
        <time>2019-08-13T06:16:54Z</time>
      </trkpt>
      <trkpt lat="39.8598410" lon="-4.0332520">
        <ele>455.9</ele>
        <time>2019-08-13T06:16:55Z</time>
      </trkpt>
      <trkpt lat="39.8599000" lon="-4.0332110">
        <ele>456.0</ele>
        <time>2019-08-13T06:16:56Z</time>
      </trkpt>
      <trkpt lat="39.8599600" lon="-4.0331680">
        <ele>456.2</ele>
        <time>2019-08-13T06:16:57Z</time>
      </trkpt>
      <trkpt lat="39.8600210" lon="-4.0331240">
        <ele>456.4</ele>
        <time>2019-08-13T06:16:58Z</time>
      </trkpt>
      <trkpt lat="39.8600780" lon="-4.0330810">
        <ele>456.6</ele>
        <time>2019-08-13T06:16:59Z</time>
      </trkpt>
      <trkpt lat="39.8601360" lon="-4.0330420">
        <ele>456.7</ele>
        <time>2019-08-13T06:17:00Z</time>
      </trkpt>
      <trkpt lat="39.8601930" lon="-4.0330020">
        <ele>456.8</ele>
        <time>2019-08-13T06:17:01Z</time>
      </trkpt>
      <trkpt lat="39.8602530" lon="-4.0329610">
        <ele>456.8</ele>
        <time>2019-08-13T06:17:02Z</time>
      </trkpt>
      <trkpt lat="39.8603100" lon="-4.0329160">
        <ele>456.8</ele>
        <time>2019-08-13T06:17:03Z</time>
      </trkpt>
      <trkpt lat="39.8603680" lon="-4.0328740">
        <ele>456.9</ele>
        <time>2019-08-13T06:17:04Z</time>
      </trkpt>
      <trkpt lat="39.8604270" lon="-4.0328340">
        <ele>457.0</ele>
        <time>2019-08-13T06:17:05Z</time>
      </trkpt>
      <trkpt lat="39.8604830" lon="-4.0327910">
        <ele>457.1</ele>
        <time>2019-08-13T06:17:06Z</time>
      </trkpt>
      <trkpt lat="39.8605370" lon="-4.0327450">
        <ele>457.2</ele>
        <time>2019-08-13T06:17:07Z</time>
      </trkpt>
      <trkpt lat="39.8605900" lon="-4.0326980">
        <ele>457.3</ele>
        <time>2019-08-13T06:17:08Z</time>
      </trkpt>
      <trkpt lat="39.8606420" lon="-4.0326500">
        <ele>457.4</ele>
        <time>2019-08-13T06:17:09Z</time>
      </trkpt>
      <trkpt lat="39.8606900" lon="-4.0325970">
        <ele>457.5</ele>
        <time>2019-08-13T06:17:10Z</time>
      </trkpt>
      <trkpt lat="39.8607390" lon="-4.0325420">
        <ele>457.5</ele>
        <time>2019-08-13T06:17:11Z</time>
      </trkpt>
      <trkpt lat="39.8607860" lon="-4.0324840">
        <ele>457.6</ele>
        <time>2019-08-13T06:17:12Z</time>
      </trkpt>
      <trkpt lat="39.8608310" lon="-4.0324260">
        <ele>457.6</ele>
        <time>2019-08-13T06:17:13Z</time>
      </trkpt>
      <trkpt lat="39.8608740" lon="-4.0323670">
        <ele>457.7</ele>
        <time>2019-08-13T06:17:14Z</time>
      </trkpt>
      <trkpt lat="39.8609170" lon="-4.0323070">
        <ele>457.9</ele>
        <time>2019-08-13T06:17:15Z</time>
      </trkpt>
      <trkpt lat="39.8609570" lon="-4.0322460">
        <ele>458.0</ele>
        <time>2019-08-13T06:17:16Z</time>
      </trkpt>
      <trkpt lat="39.8609970" lon="-4.0321850">
        <ele>458.2</ele>
        <time>2019-08-13T06:17:17Z</time>
      </trkpt>
      <trkpt lat="39.8610350" lon="-4.0321220">
        <ele>458.4</ele>
        <time>2019-08-13T06:17:18Z</time>
      </trkpt>
      <trkpt lat="39.8610720" lon="-4.0320580">
        <ele>458.5</ele>
        <time>2019-08-13T06:17:19Z</time>
      </trkpt>
      <trkpt lat="39.8611090" lon="-4.0319940">
        <ele>458.5</ele>
        <time>2019-08-13T06:17:20Z</time>
      </trkpt>
      <trkpt lat="39.8611420" lon="-4.0319270">
        <ele>458.5</ele>
        <time>2019-08-13T06:17:21Z</time>
      </trkpt>
      <trkpt lat="39.8611740" lon="-4.0318600">
        <ele>458.5</ele>
        <time>2019-08-13T06:17:22Z</time>
      </trkpt>
      <trkpt lat="39.8612040" lon="-4.0317910">
        <ele>458.4</ele>
        <time>2019-08-13T06:17:23Z</time>
      </trkpt>
      <trkpt lat="39.8612320" lon="-4.0317210">
        <ele>458.4</ele>
        <time>2019-08-13T06:17:24Z</time>
      </trkpt>
      <trkpt lat="39.8612590" lon="-4.0316490">
        <ele>458.3</ele>
        <time>2019-08-13T06:17:25Z</time>
      </trkpt>
      <trkpt lat="39.8612840" lon="-4.0315760">
        <ele>458.3</ele>
        <time>2019-08-13T06:17:26Z</time>
      </trkpt>
      <trkpt lat="39.8613080" lon="-4.0315030">
        <ele>458.3</ele>
        <time>2019-08-13T06:17:27Z</time>
      </trkpt>
      <trkpt lat="39.8613320" lon="-4.0314310">
        <ele>458.4</ele>
        <time>2019-08-13T06:17:28Z</time>
      </trkpt>
      <trkpt lat="39.8613540" lon="-4.0313560">
        <ele>458.5</ele>
        <time>2019-08-13T06:17:29Z</time>
      </trkpt>
      <trkpt lat="39.8613750" lon="-4.0312820">
        <ele>458.6</ele>
        <time>2019-08-13T06:17:30Z</time>
      </trkpt>
      <trkpt lat="39.8613950" lon="-4.0312080">
        <ele>458.6</ele>
        <time>2019-08-13T06:17:31Z</time>
      </trkpt>
      <trkpt lat="39.8614150" lon="-4.0311320">
        <ele>458.7</ele>
        <time>2019-08-13T06:17:32Z</time>
      </trkpt>
      <trkpt lat="39.8614340" lon="-4.0310580">
        <ele>458.7</ele>
        <time>2019-08-13T06:17:33Z</time>
      </trkpt>
      <trkpt lat="39.8614540" lon="-4.0309860">
        <ele>458.9</ele>
        <time>2019-08-13T06:17:34Z</time>
      </trkpt>
      <trkpt lat="39.8614720" lon="-4.0309160">
        <ele>459.0</ele>
        <time>2019-08-13T06:17:35Z</time>
      </trkpt>
      <trkpt lat="39.8614880" lon="-4.0308510">
        <ele>459.1</ele>
        <time>2019-08-13T06:17:36Z</time>
      </trkpt>
      <trkpt lat="39.8615040" lon="-4.0307880">
        <ele>459.4</ele>
        <time>2019-08-13T06:17:37Z</time>
      </trkpt>
      <trkpt lat="39.8615210" lon="-4.0307240">
        <ele>459.6</ele>
        <time>2019-08-13T06:17:38Z</time>
      </trkpt>
      <trkpt lat="39.8615380" lon="-4.0306610">
        <ele>459.9</ele>
        <time>2019-08-13T06:17:39Z</time>
      </trkpt>
      <trkpt lat="39.8615520" lon="-4.0305990">
        <ele>460.2</ele>
        <time>2019-08-13T06:17:40Z</time>
      </trkpt>
      <trkpt lat="39.8615660" lon="-4.0305370">
        <ele>460.4</ele>
        <time>2019-08-13T06:17:41Z</time>
      </trkpt>
      <trkpt lat="39.8615810" lon="-4.0304780">
        <ele>460.6</ele>
        <time>2019-08-13T06:17:42Z</time>
      </trkpt>
      <trkpt lat="39.8615970" lon="-4.0304200">
        <ele>460.9</ele>
        <time>2019-08-13T06:17:43Z</time>
      </trkpt>
      <trkpt lat="39.8616130" lon="-4.0303630">
        <ele>461.1</ele>
        <time>2019-08-13T06:17:44Z</time>
      </trkpt>
      <trkpt lat="39.8616260" lon="-4.0303050">
        <ele>461.3</ele>
        <time>2019-08-13T06:17:45Z</time>
      </trkpt>
      <trkpt lat="39.8616400" lon="-4.0302470">
        <ele>461.5</ele>
        <time>2019-08-13T06:17:46Z</time>
      </trkpt>
      <trkpt lat="39.8616550" lon="-4.0301900">
        <ele>461.7</ele>
        <time>2019-08-13T06:17:47Z</time>
      </trkpt>
      <trkpt lat="39.8616700" lon="-4.0301330">
        <ele>461.8</ele>
        <time>2019-08-13T06:17:48Z</time>
      </trkpt>
      <trkpt lat="39.8616840" lon="-4.0300760">
        <ele>461.9</ele>
        <time>2019-08-13T06:17:49Z</time>
      </trkpt>
      <trkpt lat="39.8616980" lon="-4.0300210">
        <ele>462.1</ele>
        <time>2019-08-13T06:17:50Z</time>
      </trkpt>
      <trkpt lat="39.8617090" lon="-4.0299670">
        <ele>462.2</ele>
        <time>2019-08-13T06:17:51Z</time>
      </trkpt>
      <trkpt lat="39.8617230" lon="-4.0299140">
        <ele>462.4</ele>
        <time>2019-08-13T06:17:52Z</time>
      </trkpt>
      <trkpt lat="39.8617370" lon="-4.0298630">
        <ele>462.6</ele>
        <time>2019-08-13T06:17:53Z</time>
      </trkpt>
      <trkpt lat="39.8617510" lon="-4.0298140">
        <ele>462.7</ele>
        <time>2019-08-13T06:17:54Z</time>
      </trkpt>
      <trkpt lat="39.8617640" lon="-4.0297650">
        <ele>462.9</ele>
        <time>2019-08-13T06:17:55Z</time>
      </trkpt>
      <trkpt lat="39.8617750" lon="-4.0297130">
        <ele>463.1</ele>
        <time>2019-08-13T06:17:56Z</time>
      </trkpt>
      <trkpt lat="39.8617870" lon="-4.0296620">
        <ele>463.2</ele>
        <time>2019-08-13T06:17:57Z</time>
      </trkpt>
      <trkpt lat="39.8618000" lon="-4.0296110">
        <ele>463.4</ele>
        <time>2019-08-13T06:17:58Z</time>
      </trkpt>
      <trkpt lat="39.8618140" lon="-4.0295590">
        <ele>463.7</ele>
        <time>2019-08-13T06:17:59Z</time>
      </trkpt>
      <trkpt lat="39.8618280" lon="-4.0295090">
        <ele>463.9</ele>
        <time>2019-08-13T06:18:00Z</time>
      </trkpt>
      <trkpt lat="39.8618400" lon="-4.0294610">
        <ele>464.1</ele>
        <time>2019-08-13T06:18:01Z</time>
      </trkpt>
      <trkpt lat="39.8618510" lon="-4.0294150">
        <ele>464.4</ele>
        <time>2019-08-13T06:18:02Z</time>
      </trkpt>
      <trkpt lat="39.8618620" lon="-4.0293710">
        <ele>464.6</ele>
        <time>2019-08-13T06:18:03Z</time>
      </trkpt>
      <trkpt lat="39.8618740" lon="-4.0293290">
        <ele>464.8</ele>
        <time>2019-08-13T06:18:04Z</time>
      </trkpt>
      <trkpt lat="39.8618850" lon="-4.0292830">
        <ele>465.0</ele>
        <time>2019-08-13T06:18:05Z</time>
      </trkpt>
      <trkpt lat="39.8618980" lon="-4.0292360">
        <ele>465.2</ele>
        <time>2019-08-13T06:18:06Z</time>
      </trkpt>
      <trkpt lat="39.8619110" lon="-4.0291910">
        <ele>465.4</ele>
        <time>2019-08-13T06:18:07Z</time>
      </trkpt>
      <trkpt lat="39.8619220" lon="-4.0291460">
        <ele>465.7</ele>
        <time>2019-08-13T06:18:08Z</time>
      </trkpt>
      <trkpt lat="39.8619310" lon="-4.0291010">
        <ele>465.9</ele>
        <time>2019-08-13T06:18:09Z</time>
      </trkpt>
      <trkpt lat="39.8619420" lon="-4.0290570">
        <ele>466.0</ele>
        <time>2019-08-13T06:18:10Z</time>
      </trkpt>
      <trkpt lat="39.8619560" lon="-4.0290140">
        <ele>466.2</ele>
        <time>2019-08-13T06:18:11Z</time>
      </trkpt>
      <trkpt lat="39.8619690" lon="-4.0289700">
        <ele>466.4</ele>
        <time>2019-08-13T06:18:12Z</time>
      </trkpt>
      <trkpt lat="39.8619810" lon="-4.0289280">
        <ele>466.5</ele>
        <time>2019-08-13T06:18:13Z</time>
      </trkpt>
      <trkpt lat="39.8619930" lon="-4.0288850">
        <ele>466.7</ele>
        <time>2019-08-13T06:18:14Z</time>
      </trkpt>
      <trkpt lat="39.8620060" lon="-4.0288420">
        <ele>466.8</ele>
        <time>2019-08-13T06:18:15Z</time>
      </trkpt>
      <trkpt lat="39.8620180" lon="-4.0287990">
        <ele>467.0</ele>
        <time>2019-08-13T06:18:16Z</time>
      </trkpt>
      <trkpt lat="39.8620290" lon="-4.0287560">
        <ele>467.1</ele>
        <time>2019-08-13T06:18:17Z</time>
      </trkpt>
      <trkpt lat="39.8620400" lon="-4.0287160">
        <ele>467.2</ele>
        <time>2019-08-13T06:18:18Z</time>
      </trkpt>
      <trkpt lat="39.8620530" lon="-4.0286750">
        <ele>467.4</ele>
        <time>2019-08-13T06:18:19Z</time>
      </trkpt>
      <trkpt lat="39.8620700" lon="-4.0286330">
        <ele>467.5</ele>
        <time>2019-08-13T06:18:20Z</time>
      </trkpt>
      <trkpt lat="39.8620850" lon="-4.0285900">
        <ele>467.7</ele>
        <time>2019-08-13T06:18:21Z</time>
      </trkpt>
      <trkpt lat="39.8620990" lon="-4.0285480">
        <ele>467.9</ele>
        <time>2019-08-13T06:18:22Z</time>
      </trkpt>
      <trkpt lat="39.8621140" lon="-4.0285040">
        <ele>468.0</ele>
        <time>2019-08-13T06:18:23Z</time>
      </trkpt>
      <trkpt lat="39.8621290" lon="-4.0284610">
        <ele>468.2</ele>
        <time>2019-08-13T06:18:24Z</time>
      </trkpt>
      <trkpt lat="39.8621430" lon="-4.0284190">
        <ele>468.4</ele>
        <time>2019-08-13T06:18:25Z</time>
      </trkpt>
      <trkpt lat="39.8621560" lon="-4.0283780">
        <ele>468.6</ele>
        <time>2019-08-13T06:18:26Z</time>
      </trkpt>
      <trkpt lat="39.8621720" lon="-4.0283370">
        <ele>468.7</ele>
        <time>2019-08-13T06:18:27Z</time>
      </trkpt>
      <trkpt lat="39.8621860" lon="-4.0282970">
        <ele>468.9</ele>
        <time>2019-08-13T06:18:28Z</time>
      </trkpt>
      <trkpt lat="39.8621980" lon="-4.0282570">
        <ele>469.0</ele>
        <time>2019-08-13T06:18:29Z</time>
      </trkpt>
      <trkpt lat="39.8622130" lon="-4.0282170">
        <ele>469.2</ele>
        <time>2019-08-13T06:18:30Z</time>
      </trkpt>
      <trkpt lat="39.8622280" lon="-4.0281750">
        <ele>469.3</ele>
        <time>2019-08-13T06:18:31Z</time>
      </trkpt>
      <trkpt lat="39.8622410" lon="-4.0281340">
        <ele>469.5</ele>
        <time>2019-08-13T06:18:32Z</time>
      </trkpt>
      <trkpt lat="39.8622540" lon="-4.0280930">
        <ele>469.7</ele>
        <time>2019-08-13T06:18:33Z</time>
      </trkpt>
      <trkpt lat="39.8622650" lon="-4.0280490">
        <ele>469.9</ele>
        <time>2019-08-13T06:18:34Z</time>
      </trkpt>
      <trkpt lat="39.8622780" lon="-4.0280080">
        <ele>470.1</ele>
        <time>2019-08-13T06:18:35Z</time>
      </trkpt>
      <trkpt lat="39.8622930" lon="-4.0279690">
        <ele>470.3</ele>
        <time>2019-08-13T06:18:36Z</time>
      </trkpt>
      <trkpt lat="39.8623080" lon="-4.0279300">
        <ele>470.5</ele>
        <time>2019-08-13T06:18:37Z</time>
      </trkpt>
      <trkpt lat="39.8623210" lon="-4.0278940">
        <ele>470.8</ele>
        <time>2019-08-13T06:18:38Z</time>
      </trkpt>
      <trkpt lat="39.8623330" lon="-4.0278610">
        <ele>471.0</ele>
        <time>2019-08-13T06:18:39Z</time>
      </trkpt>
      <trkpt lat="39.8623530" lon="-4.0278020">
        <ele>471.4</ele>
        <time>2019-08-13T06:18:41Z</time>
      </trkpt>
      <trkpt lat="39.8623670" lon="-4.0277530">
        <ele>471.8</ele>
        <time>2019-08-13T06:18:43Z</time>
      </trkpt>
      <trkpt lat="39.8623610" lon="-4.0277140">
        <ele>472.0</ele>
        <time>2019-08-13T06:18:45Z</time>
      </trkpt>
      <trkpt lat="39.8623410" lon="-4.0276650">
        <ele>472.4</ele>
        <time>2019-08-13T06:18:47Z</time>
      </trkpt>
      <trkpt lat="39.8623280" lon="-4.0276320">
        <ele>472.6</ele>
        <time>2019-08-13T06:18:48Z</time>
      </trkpt>
      <trkpt lat="39.8623160" lon="-4.0275960">
        <ele>473.3</ele>
        <time>2019-08-13T06:18:49Z</time>
      </trkpt>
      <trkpt lat="39.8623080" lon="-4.0275580">
        <ele>473.5</ele>
        <time>2019-08-13T06:18:50Z</time>
      </trkpt>
      <trkpt lat="39.8623020" lon="-4.0275220">
        <ele>473.6</ele>
        <time>2019-08-13T06:18:51Z</time>
      </trkpt>
      <trkpt lat="39.8622950" lon="-4.0274870">
        <ele>473.8</ele>
        <time>2019-08-13T06:18:52Z</time>
      </trkpt>
      <trkpt lat="39.8622840" lon="-4.0274530">
        <ele>473.9</ele>
        <time>2019-08-13T06:18:53Z</time>
      </trkpt>
      <trkpt lat="39.8622750" lon="-4.0274160">
        <ele>474.1</ele>
        <time>2019-08-13T06:18:54Z</time>
      </trkpt>
      <trkpt lat="39.8622690" lon="-4.0273800">
        <ele>474.2</ele>
        <time>2019-08-13T06:18:55Z</time>
      </trkpt>
      <trkpt lat="39.8622660" lon="-4.0273450">
        <ele>474.4</ele>
        <time>2019-08-13T06:18:56Z</time>
      </trkpt>
      <trkpt lat="39.8622680" lon="-4.0273100">
        <ele>474.5</ele>
        <time>2019-08-13T06:18:57Z</time>
      </trkpt>
      <trkpt lat="39.8622730" lon="-4.0272750">
        <ele>474.7</ele>
        <time>2019-08-13T06:18:58Z</time>
      </trkpt>
      <trkpt lat="39.8622900" lon="-4.0272110">
        <ele>475.4</ele>
        <time>2019-08-13T06:19:00Z</time>
      </trkpt>
      <trkpt lat="39.8623110" lon="-4.0271520">
        <ele>475.7</ele>
        <time>2019-08-13T06:19:02Z</time>
      </trkpt>
      <trkpt lat="39.8623310" lon="-4.0270920">
        <ele>476.4</ele>
        <time>2019-08-13T06:19:04Z</time>
      </trkpt>
      <trkpt lat="39.8623520" lon="-4.0270330">
        <ele>476.8</ele>
        <time>2019-08-13T06:19:06Z</time>
      </trkpt>
      <trkpt lat="39.8623710" lon="-4.0269720">
        <ele>477.2</ele>
        <time>2019-08-13T06:19:08Z</time>
      </trkpt>
      <trkpt lat="39.8623760" lon="-4.0269120">
        <ele>477.9</ele>
        <time>2019-08-13T06:19:10Z</time>
      </trkpt>
      <trkpt lat="39.8623660" lon="-4.0268530">
        <ele>478.4</ele>
        <time>2019-08-13T06:19:12Z</time>
      </trkpt>
      <trkpt lat="39.8623740" lon="-4.0267940">
        <ele>478.9</ele>
        <time>2019-08-13T06:19:14Z</time>
      </trkpt>
      <trkpt lat="39.8623890" lon="-4.0267360">
        <ele>479.3</ele>
        <time>2019-08-13T06:19:16Z</time>
      </trkpt>
      <trkpt lat="39.8624030" lon="-4.0266770">
        <ele>479.8</ele>
        <time>2019-08-13T06:19:18Z</time>
      </trkpt>
      <trkpt lat="39.8624200" lon="-4.0266200">
        <ele>480.4</ele>
        <time>2019-08-13T06:19:20Z</time>
      </trkpt>
      <trkpt lat="39.8624430" lon="-4.0265690">
        <ele>480.9</ele>
        <time>2019-08-13T06:19:22Z</time>
      </trkpt>
      <trkpt lat="39.8624700" lon="-4.0265180">
        <ele>481.4</ele>
        <time>2019-08-13T06:19:24Z</time>
      </trkpt>
      <trkpt lat="39.8624880" lon="-4.0264650">
        <ele>481.8</ele>
        <time>2019-08-13T06:19:26Z</time>
      </trkpt>
      <trkpt lat="39.8625010" lon="-4.0264060">
        <ele>482.2</ele>
        <time>2019-08-13T06:19:28Z</time>
      </trkpt>
      <trkpt lat="39.8625080" lon="-4.0263410">
        <ele>482.6</ele>
        <time>2019-08-13T06:19:30Z</time>
      </trkpt>
      <trkpt lat="39.8625230" lon="-4.0262800">
        <ele>483.1</ele>
        <time>2019-08-13T06:19:32Z</time>
      </trkpt>
      <trkpt lat="39.8625380" lon="-4.0262200">
        <ele>483.5</ele>
        <time>2019-08-13T06:19:34Z</time>
      </trkpt>
      <trkpt lat="39.8625470" lon="-4.0261620">
        <ele>483.9</ele>
        <time>2019-08-13T06:19:36Z</time>
      </trkpt>
      <trkpt lat="39.8625580" lon="-4.0261040">
        <ele>484.3</ele>
        <time>2019-08-13T06:19:38Z</time>
      </trkpt>
      <trkpt lat="39.8625690" lon="-4.0260490">
        <ele>484.6</ele>
        <time>2019-08-13T06:19:40Z</time>
      </trkpt>
      <trkpt lat="39.8625780" lon="-4.0259930">
        <ele>485.0</ele>
        <time>2019-08-13T06:19:42Z</time>
      </trkpt>
      <trkpt lat="39.8625900" lon="-4.0259390">
        <ele>485.5</ele>
        <time>2019-08-13T06:19:44Z</time>
      </trkpt>
      <trkpt lat="39.8626020" lon="-4.0258830">
        <ele>486.0</ele>
        <time>2019-08-13T06:19:46Z</time>
      </trkpt>
      <trkpt lat="39.8626080" lon="-4.0258280">
        <ele>486.5</ele>
        <time>2019-08-13T06:19:48Z</time>
      </trkpt>
      <trkpt lat="39.8626090" lon="-4.0257740">
        <ele>487.0</ele>
        <time>2019-08-13T06:19:50Z</time>
      </trkpt>
      <trkpt lat="39.8626030" lon="-4.0257190">
        <ele>487.4</ele>
        <time>2019-08-13T06:19:52Z</time>
      </trkpt>
      <trkpt lat="39.8625930" lon="-4.0256630">
        <ele>487.9</ele>
        <time>2019-08-13T06:19:54Z</time>
      </trkpt>
      <trkpt lat="39.8625800" lon="-4.0256090">
        <ele>488.3</ele>
        <time>2019-08-13T06:19:56Z</time>
      </trkpt>
      <trkpt lat="39.8625700" lon="-4.0255550">
        <ele>489.3</ele>
        <time>2019-08-13T06:19:58Z</time>
      </trkpt>
      <trkpt lat="39.8625670" lon="-4.0254850">
        <ele>489.3</ele>
        <time>2019-08-13T06:20:00Z</time>
      </trkpt>
      <trkpt lat="39.8625680" lon="-4.0254410">
        <ele>489.3</ele>
        <time>2019-08-13T06:20:01Z</time>
      </trkpt>
      <trkpt lat="39.8625780" lon="-4.0253990">
        <ele>489.5</ele>
        <time>2019-08-13T06:20:02Z</time>
      </trkpt>
      <trkpt lat="39.8625950" lon="-4.0253650">
        <ele>489.6</ele>
        <time>2019-08-13T06:20:03Z</time>
      </trkpt>
      <trkpt lat="39.8626160" lon="-4.0253400">
        <ele>489.7</ele>
        <time>2019-08-13T06:20:04Z</time>
      </trkpt>
      <trkpt lat="39.8626400" lon="-4.0253210">
        <ele>489.8</ele>
        <time>2019-08-13T06:20:05Z</time>
      </trkpt>
      <trkpt lat="39.8626610" lon="-4.0252970">
        <ele>489.8</ele>
        <time>2019-08-13T06:20:06Z</time>
      </trkpt>
      <trkpt lat="39.8626840" lon="-4.0252720">
        <ele>490.1</ele>
        <time>2019-08-13T06:20:07Z</time>
      </trkpt>
      <trkpt lat="39.8627060" lon="-4.0252460">
        <ele>490.1</ele>
        <time>2019-08-13T06:20:08Z</time>
      </trkpt>
      <trkpt lat="39.8627200" lon="-4.0252160">
        <ele>490.2</ele>
        <time>2019-08-13T06:20:09Z</time>
      </trkpt>
      <trkpt lat="39.8627310" lon="-4.0251620">
        <ele>490.2</ele>
        <time>2019-08-13T06:20:11Z</time>
      </trkpt>
      <trkpt lat="39.8627260" lon="-4.0251180">
        <ele>490.3</ele>
        <time>2019-08-13T06:20:13Z</time>
      </trkpt>
      <trkpt lat="39.8627200" lon="-4.0250830">
        <ele>490.3</ele>
        <time>2019-08-13T06:20:16Z</time>
      </trkpt>
      <trkpt lat="39.8627120" lon="-4.0250500">
        <ele>490.4</ele>
        <time>2019-08-13T06:22:34Z</time>
      </trkpt>
      <trkpt lat="39.8627210" lon="-4.0250140">
        <ele>490.4</ele>
        <time>2019-08-13T06:22:43Z</time>
      </trkpt>
      <trkpt lat="39.8627490" lon="-4.0249470">
        <ele>490.5</ele>
        <time>2019-08-13T06:22:46Z</time>
      </trkpt>
      <trkpt lat="39.8627670" lon="-4.0249120">
        <ele>490.5</ele>
        <time>2019-08-13T06:22:47Z</time>
      </trkpt>
      <trkpt lat="39.8627890" lon="-4.0248740">
        <ele>490.5</ele>
        <time>2019-08-13T06:22:48Z</time>
      </trkpt>
      <trkpt lat="39.8628150" lon="-4.0248350">
        <ele>490.5</ele>
        <time>2019-08-13T06:22:49Z</time>
      </trkpt>
      <trkpt lat="39.8628450" lon="-4.0247990">
        <ele>490.4</ele>
        <time>2019-08-13T06:22:50Z</time>
      </trkpt>
      <trkpt lat="39.8628800" lon="-4.0247710">
        <ele>490.4</ele>
        <time>2019-08-13T06:22:51Z</time>
      </trkpt>
      <trkpt lat="39.8629230" lon="-4.0247530">
        <ele>490.4</ele>
        <time>2019-08-13T06:22:52Z</time>
      </trkpt>
      <trkpt lat="39.8629720" lon="-4.0247490">
        <ele>490.4</ele>
        <time>2019-08-13T06:22:53Z</time>
      </trkpt>
      <trkpt lat="39.8630210" lon="-4.0247590">
        <ele>490.4</ele>
        <time>2019-08-13T06:22:54Z</time>
      </trkpt>
      <trkpt lat="39.8630670" lon="-4.0247830">
        <ele>490.5</ele>
        <time>2019-08-13T06:22:55Z</time>
      </trkpt>
      <trkpt lat="39.8631040" lon="-4.0248210">
        <ele>490.5</ele>
        <time>2019-08-13T06:22:56Z</time>
      </trkpt>
      <trkpt lat="39.8631310" lon="-4.0248720">
        <ele>490.5</ele>
        <time>2019-08-13T06:22:57Z</time>
      </trkpt>
      <trkpt lat="39.8631480" lon="-4.0249270">
        <ele>490.5</ele>
        <time>2019-08-13T06:22:58Z</time>
      </trkpt>
      <trkpt lat="39.8631520" lon="-4.0249850">
        <ele>490.5</ele>
        <time>2019-08-13T06:22:59Z</time>
      </trkpt>
      <trkpt lat="39.8631430" lon="-4.0250420">
        <ele>490.5</ele>
        <time>2019-08-13T06:23:00Z</time>
      </trkpt>
      <trkpt lat="39.8631240" lon="-4.0250900">
        <ele>490.5</ele>
        <time>2019-08-13T06:23:01Z</time>
      </trkpt>
      <trkpt lat="39.8630970" lon="-4.0251270">
        <ele>490.4</ele>
        <time>2019-08-13T06:23:02Z</time>
      </trkpt>
      <trkpt lat="39.8630670" lon="-4.0251580">
        <ele>490.4</ele>
        <time>2019-08-13T06:23:03Z</time>
      </trkpt>
      <trkpt lat="39.8630370" lon="-4.0251880">
        <ele>490.4</ele>
        <time>2019-08-13T06:23:04Z</time>
      </trkpt>
      <trkpt lat="39.8630070" lon="-4.0252200">
        <ele>490.4</ele>
        <time>2019-08-13T06:23:05Z</time>
      </trkpt>
      <trkpt lat="39.8629770" lon="-4.0252520">
        <ele>490.3</ele>
        <time>2019-08-13T06:23:06Z</time>
      </trkpt>
      <trkpt lat="39.8629470" lon="-4.0252870">
        <ele>490.3</ele>
        <time>2019-08-13T06:23:07Z</time>
      </trkpt>
      <trkpt lat="39.8629170" lon="-4.0253220">
        <ele>490.1</ele>
        <time>2019-08-13T06:23:08Z</time>
      </trkpt>
      <trkpt lat="39.8628900" lon="-4.0253570">
        <ele>490.0</ele>
        <time>2019-08-13T06:23:09Z</time>
      </trkpt>
      <trkpt lat="39.8628670" lon="-4.0254040">
        <ele>489.9</ele>
        <time>2019-08-13T06:23:10Z</time>
      </trkpt>
      <trkpt lat="39.8628500" lon="-4.0254600">
        <ele>489.7</ele>
        <time>2019-08-13T06:23:11Z</time>
      </trkpt>
      <trkpt lat="39.8628350" lon="-4.0255260">
        <ele>489.2</ele>
        <time>2019-08-13T06:23:12Z</time>
      </trkpt>
      <trkpt lat="39.8628200" lon="-4.0255980">
        <ele>488.9</ele>
        <time>2019-08-13T06:23:13Z</time>
      </trkpt>
      <trkpt lat="39.8628070" lon="-4.0256770">
        <ele>488.6</ele>
        <time>2019-08-13T06:23:14Z</time>
      </trkpt>
      <trkpt lat="39.8627940" lon="-4.0257640">
        <ele>488.3</ele>
        <time>2019-08-13T06:23:15Z</time>
      </trkpt>
      <trkpt lat="39.8627800" lon="-4.0258550">
        <ele>487.9</ele>
        <time>2019-08-13T06:23:16Z</time>
      </trkpt>
      <trkpt lat="39.8627640" lon="-4.0259480">
        <ele>487.2</ele>
        <time>2019-08-13T06:23:17Z</time>
      </trkpt>
      <trkpt lat="39.8627460" lon="-4.0260440">
        <ele>486.6</ele>
        <time>2019-08-13T06:23:18Z</time>
      </trkpt>
      <trkpt lat="39.8627270" lon="-4.0261450">
        <ele>486.1</ele>
        <time>2019-08-13T06:23:19Z</time>
      </trkpt>
      <trkpt lat="39.8627080" lon="-4.0262490">
        <ele>485.4</ele>
        <time>2019-08-13T06:23:20Z</time>
      </trkpt>
      <trkpt lat="39.8626880" lon="-4.0263540">
        <ele>484.5</ele>
        <time>2019-08-13T06:23:21Z</time>
      </trkpt>
      <trkpt lat="39.8626690" lon="-4.0264540">
        <ele>483.6</ele>
        <time>2019-08-13T06:23:22Z</time>
      </trkpt>
      <trkpt lat="39.8626520" lon="-4.0265440">
        <ele>482.7</ele>
        <time>2019-08-13T06:23:23Z</time>
      </trkpt>
      <trkpt lat="39.8626370" lon="-4.0266280">
        <ele>481.4</ele>
        <time>2019-08-13T06:23:24Z</time>
      </trkpt>
      <trkpt lat="39.8626230" lon="-4.0267080">
        <ele>480.0</ele>
        <time>2019-08-13T06:23:25Z</time>
      </trkpt>
      <trkpt lat="39.8626100" lon="-4.0267820">
        <ele>479.4</ele>
        <time>2019-08-13T06:23:26Z</time>
      </trkpt>
      <trkpt lat="39.8626030" lon="-4.0268530">
        <ele>478.8</ele>
        <time>2019-08-13T06:23:27Z</time>
      </trkpt>
      <trkpt lat="39.8626060" lon="-4.0269250">
        <ele>477.7</ele>
        <time>2019-08-13T06:23:28Z</time>
      </trkpt>
      <trkpt lat="39.8626200" lon="-4.0270000">
        <ele>477.0</ele>
        <time>2019-08-13T06:23:29Z</time>
      </trkpt>
      <trkpt lat="39.8626420" lon="-4.0270800">
        <ele>476.0</ele>
        <time>2019-08-13T06:23:30Z</time>
      </trkpt>
      <trkpt lat="39.8626780" lon="-4.0271620">
        <ele>475.3</ele>
        <time>2019-08-13T06:23:31Z</time>
      </trkpt>
      <trkpt lat="39.8627280" lon="-4.0272490">
        <ele>474.5</ele>
        <time>2019-08-13T06:23:32Z</time>
      </trkpt>
      <trkpt lat="39.8627870" lon="-4.0273390">
        <ele>473.8</ele>
        <time>2019-08-13T06:23:33Z</time>
      </trkpt>
      <trkpt lat="39.8628580" lon="-4.0274290">
        <ele>473.1</ele>
        <time>2019-08-13T06:23:34Z</time>
      </trkpt>
      <trkpt lat="39.8629390" lon="-4.0275060">
        <ele>472.5</ele>
        <time>2019-08-13T06:23:35Z</time>
      </trkpt>
      <trkpt lat="39.8630300" lon="-4.0275650">
        <ele>471.8</ele>
        <time>2019-08-13T06:23:36Z</time>
      </trkpt>
      <trkpt lat="39.8631240" lon="-4.0276090">
        <ele>471.0</ele>
        <time>2019-08-13T06:23:37Z</time>
      </trkpt>
      <trkpt lat="39.8632190" lon="-4.0276450">
        <ele>470.2</ele>
        <time>2019-08-13T06:23:38Z</time>
      </trkpt>
      <trkpt lat="39.8633140" lon="-4.0276810">
        <ele>469.6</ele>
        <time>2019-08-13T06:23:39Z</time>
      </trkpt>
      <trkpt lat="39.8634120" lon="-4.0277180">
        <ele>469.0</ele>
        <time>2019-08-13T06:23:40Z</time>
      </trkpt>
      <trkpt lat="39.8635110" lon="-4.0277550">
        <ele>468.3</ele>
        <time>2019-08-13T06:23:41Z</time>
      </trkpt>
      <trkpt lat="39.8636090" lon="-4.0277930">
        <ele>467.6</ele>
        <time>2019-08-13T06:23:42Z</time>
      </trkpt>
      <trkpt lat="39.8637060" lon="-4.0278320">
        <ele>466.9</ele>
        <time>2019-08-13T06:23:43Z</time>
      </trkpt>
      <trkpt lat="39.8638030" lon="-4.0278700">
        <ele>466.2</ele>
        <time>2019-08-13T06:23:44Z</time>
      </trkpt>
      <trkpt lat="39.8638990" lon="-4.0279080">
        <ele>465.5</ele>
        <time>2019-08-13T06:23:45Z</time>
      </trkpt>
      <trkpt lat="39.8639930" lon="-4.0279450">
        <ele>465.0</ele>
        <time>2019-08-13T06:23:46Z</time>
      </trkpt>
      <trkpt lat="39.8640870" lon="-4.0279810">
        <ele>464.5</ele>
        <time>2019-08-13T06:23:47Z</time>
      </trkpt>
      <trkpt lat="39.8641830" lon="-4.0280150">
        <ele>464.0</ele>
        <time>2019-08-13T06:23:48Z</time>
      </trkpt>
      <trkpt lat="39.8642790" lon="-4.0280510">
        <ele>463.3</ele>
        <time>2019-08-13T06:23:49Z</time>
      </trkpt>
      <trkpt lat="39.8643740" lon="-4.0280900">
        <ele>462.8</ele>
        <time>2019-08-13T06:23:50Z</time>
      </trkpt>
      <trkpt lat="39.8644670" lon="-4.0281260">
        <ele>462.6</ele>
        <time>2019-08-13T06:23:51Z</time>
      </trkpt>
      <trkpt lat="39.8645590" lon="-4.0281630">
        <ele>462.4</ele>
        <time>2019-08-13T06:23:52Z</time>
      </trkpt>
      <trkpt lat="39.8646490" lon="-4.0281980">
        <ele>462.0</ele>
        <time>2019-08-13T06:23:53Z</time>
      </trkpt>
      <trkpt lat="39.8647370" lon="-4.0282350">
        <ele>461.7</ele>
        <time>2019-08-13T06:23:54Z</time>
      </trkpt>
      <trkpt lat="39.8648240" lon="-4.0282670">
        <ele>461.3</ele>
        <time>2019-08-13T06:23:55Z</time>
      </trkpt>
      <trkpt lat="39.8649090" lon="-4.0283000">
        <ele>460.9</ele>
        <time>2019-08-13T06:23:56Z</time>
      </trkpt>
      <trkpt lat="39.8649950" lon="-4.0283310">
        <ele>460.5</ele>
        <time>2019-08-13T06:23:57Z</time>
      </trkpt>
      <trkpt lat="39.8650790" lon="-4.0283640">
        <ele>460.2</ele>
        <time>2019-08-13T06:23:58Z</time>
      </trkpt>
      <trkpt lat="39.8651600" lon="-4.0283950">
        <ele>460.0</ele>
        <time>2019-08-13T06:23:59Z</time>
      </trkpt>
      <trkpt lat="39.8652400" lon="-4.0284260">
        <ele>459.8</ele>
        <time>2019-08-13T06:24:00Z</time>
      </trkpt>
      <trkpt lat="39.8653190" lon="-4.0284540">
        <ele>459.7</ele>
        <time>2019-08-13T06:24:01Z</time>
      </trkpt>
      <trkpt lat="39.8653960" lon="-4.0284830">
        <ele>459.6</ele>
        <time>2019-08-13T06:24:02Z</time>
      </trkpt>
      <trkpt lat="39.8654710" lon="-4.0285140">
        <ele>459.6</ele>
        <time>2019-08-13T06:24:03Z</time>
      </trkpt>
      <trkpt lat="39.8655440" lon="-4.0285440">
        <ele>459.7</ele>
        <time>2019-08-13T06:24:04Z</time>
      </trkpt>
      <trkpt lat="39.8656180" lon="-4.0285720">
        <ele>459.7</ele>
        <time>2019-08-13T06:24:05Z</time>
      </trkpt>
      <trkpt lat="39.8656900" lon="-4.0285980">
        <ele>459.9</ele>
        <time>2019-08-13T06:24:06Z</time>
      </trkpt>
      <trkpt lat="39.8657590" lon="-4.0286230">
        <ele>460.0</ele>
        <time>2019-08-13T06:24:07Z</time>
      </trkpt>
      <trkpt lat="39.8658280" lon="-4.0286460">
        <ele>460.3</ele>
        <time>2019-08-13T06:24:08Z</time>
      </trkpt>
      <trkpt lat="39.8658960" lon="-4.0286700">
        <ele>460.4</ele>
        <time>2019-08-13T06:24:09Z</time>
      </trkpt>
      <trkpt lat="39.8659630" lon="-4.0286960">
        <ele>460.5</ele>
        <time>2019-08-13T06:24:10Z</time>
      </trkpt>
      <trkpt lat="39.8660300" lon="-4.0287230">
        <ele>460.7</ele>
        <time>2019-08-13T06:24:11Z</time>
      </trkpt>
      <trkpt lat="39.8660970" lon="-4.0287500">
        <ele>460.8</ele>
        <time>2019-08-13T06:24:12Z</time>
      </trkpt>
      <trkpt lat="39.8661630" lon="-4.0287750">
        <ele>460.9</ele>
        <time>2019-08-13T06:24:13Z</time>
      </trkpt>
      <trkpt lat="39.8662290" lon="-4.0288020">
        <ele>461.1</ele>
        <time>2019-08-13T06:24:14Z</time>
      </trkpt>
      <trkpt lat="39.8662950" lon="-4.0288280">
        <ele>461.3</ele>
        <time>2019-08-13T06:24:15Z</time>
      </trkpt>
      <trkpt lat="39.8663610" lon="-4.0288530">
        <ele>461.4</ele>
        <time>2019-08-13T06:24:16Z</time>
      </trkpt>
      <trkpt lat="39.8664280" lon="-4.0288810">
        <ele>461.5</ele>
        <time>2019-08-13T06:24:17Z</time>
      </trkpt>
      <trkpt lat="39.8664910" lon="-4.0289110">
        <ele>461.6</ele>
        <time>2019-08-13T06:24:18Z</time>
      </trkpt>
      <trkpt lat="39.8665560" lon="-4.0289360">
        <ele>461.8</ele>
        <time>2019-08-13T06:24:19Z</time>
      </trkpt>
      <trkpt lat="39.8666220" lon="-4.0289610">
        <ele>461.9</ele>
        <time>2019-08-13T06:24:20Z</time>
      </trkpt>
      <trkpt lat="39.8666890" lon="-4.0289830">
        <ele>461.8</ele>
        <time>2019-08-13T06:24:21Z</time>
      </trkpt>
      <trkpt lat="39.8667560" lon="-4.0290000">
        <ele>461.7</ele>
        <time>2019-08-13T06:24:22Z</time>
      </trkpt>
      <trkpt lat="39.8668210" lon="-4.0290200">
        <ele>461.5</ele>
        <time>2019-08-13T06:24:23Z</time>
      </trkpt>
      <trkpt lat="39.8668870" lon="-4.0290450">
        <ele>461.3</ele>
        <time>2019-08-13T06:24:24Z</time>
      </trkpt>
      <trkpt lat="39.8669530" lon="-4.0290730">
        <ele>461.1</ele>
        <time>2019-08-13T06:24:25Z</time>
      </trkpt>
      <trkpt lat="39.8670190" lon="-4.0291010">
        <ele>461.0</ele>
        <time>2019-08-13T06:24:26Z</time>
      </trkpt>
      <trkpt lat="39.8670850" lon="-4.0291290">
        <ele>460.9</ele>
        <time>2019-08-13T06:24:27Z</time>
      </trkpt>
      <trkpt lat="39.8671470" lon="-4.0291600">
        <ele>460.9</ele>
        <time>2019-08-13T06:24:28Z</time>
      </trkpt>
      <trkpt lat="39.8672090" lon="-4.0291860">
        <ele>460.9</ele>
        <time>2019-08-13T06:24:29Z</time>
      </trkpt>
      <trkpt lat="39.8672700" lon="-4.0292060">
        <ele>460.9</ele>
        <time>2019-08-13T06:24:30Z</time>
      </trkpt>
      <trkpt lat="39.8673310" lon="-4.0292290">
        <ele>460.7</ele>
        <time>2019-08-13T06:24:31Z</time>
      </trkpt>
      <trkpt lat="39.8673910" lon="-4.0292510">
        <ele>460.6</ele>
        <time>2019-08-13T06:24:32Z</time>
      </trkpt>
      <trkpt lat="39.8674530" lon="-4.0292730">
        <ele>460.5</ele>
        <time>2019-08-13T06:24:33Z</time>
      </trkpt>
      <trkpt lat="39.8675140" lon="-4.0292980">
        <ele>460.4</ele>
        <time>2019-08-13T06:24:34Z</time>
      </trkpt>
      <trkpt lat="39.8675750" lon="-4.0293230">
        <ele>460.4</ele>
        <time>2019-08-13T06:24:35Z</time>
      </trkpt>
      <trkpt lat="39.8676360" lon="-4.0293460">
        <ele>460.3</ele>
        <time>2019-08-13T06:24:36Z</time>
      </trkpt>
      <trkpt lat="39.8676970" lon="-4.0293700">
        <ele>460.2</ele>
        <time>2019-08-13T06:24:37Z</time>
      </trkpt>
      <trkpt lat="39.8677540" lon="-4.0293930">
        <ele>460.2</ele>
        <time>2019-08-13T06:24:38Z</time>
      </trkpt>
      <trkpt lat="39.8678100" lon="-4.0294150">
        <ele>460.1</ele>
        <time>2019-08-13T06:24:39Z</time>
      </trkpt>
      <trkpt lat="39.8678650" lon="-4.0294330">
        <ele>460.1</ele>
        <time>2019-08-13T06:24:40Z</time>
      </trkpt>
      <trkpt lat="39.8679160" lon="-4.0294470">
        <ele>460.0</ele>
        <time>2019-08-13T06:24:41Z</time>
      </trkpt>
      <trkpt lat="39.8679660" lon="-4.0294450">
        <ele>460.0</ele>
        <time>2019-08-13T06:24:42Z</time>
      </trkpt>
      <trkpt lat="39.8680110" lon="-4.0294290">
        <ele>460.0</ele>
        <time>2019-08-13T06:24:43Z</time>
      </trkpt>
      <trkpt lat="39.8680550" lon="-4.0294030">
        <ele>459.9</ele>
        <time>2019-08-13T06:24:44Z</time>
      </trkpt>
      <trkpt lat="39.8680970" lon="-4.0293700">
        <ele>459.9</ele>
        <time>2019-08-13T06:24:45Z</time>
      </trkpt>
      <trkpt lat="39.8681370" lon="-4.0293320">
        <ele>459.9</ele>
        <time>2019-08-13T06:24:46Z</time>
      </trkpt>
      <trkpt lat="39.8681770" lon="-4.0292950">
        <ele>459.8</ele>
        <time>2019-08-13T06:24:47Z</time>
      </trkpt>
      <trkpt lat="39.8682180" lon="-4.0292640">
        <ele>459.8</ele>
        <time>2019-08-13T06:24:48Z</time>
      </trkpt>
      <trkpt lat="39.8682630" lon="-4.0292410">
        <ele>459.9</ele>
        <time>2019-08-13T06:24:49Z</time>
      </trkpt>
      <trkpt lat="39.8683110" lon="-4.0292310">
        <ele>459.9</ele>
        <time>2019-08-13T06:24:50Z</time>
      </trkpt>
      <trkpt lat="39.8683610" lon="-4.0292350">
        <ele>460.2</ele>
        <time>2019-08-13T06:24:51Z</time>
      </trkpt>
      <trkpt lat="39.8684110" lon="-4.0292540">
        <ele>460.4</ele>
        <time>2019-08-13T06:24:52Z</time>
      </trkpt>
      <trkpt lat="39.8684590" lon="-4.0292890">
        <ele>460.7</ele>
        <time>2019-08-13T06:24:53Z</time>
      </trkpt>
      <trkpt lat="39.8684990" lon="-4.0293400">
        <ele>461.0</ele>
        <time>2019-08-13T06:24:54Z</time>
      </trkpt>
      <trkpt lat="39.8685280" lon="-4.0294040">
        <ele>461.3</ele>
        <time>2019-08-13T06:24:55Z</time>
      </trkpt>
      <trkpt lat="39.8685470" lon="-4.0294760">
        <ele>462.1</ele>
        <time>2019-08-13T06:24:56Z</time>
      </trkpt>
      <trkpt lat="39.8685590" lon="-4.0295510">
        <ele>462.1</ele>
        <time>2019-08-13T06:24:57Z</time>
      </trkpt>
      <trkpt lat="39.8685680" lon="-4.0296290">
        <ele>462.5</ele>
        <time>2019-08-13T06:24:58Z</time>
      </trkpt>
      <trkpt lat="39.8685750" lon="-4.0297090">
        <ele>462.5</ele>
        <time>2019-08-13T06:24:59Z</time>
      </trkpt>
      <trkpt lat="39.8685840" lon="-4.0297900">
        <ele>462.5</ele>
        <time>2019-08-13T06:25:00Z</time>
      </trkpt>
      <trkpt lat="39.8685950" lon="-4.0298700">
        <ele>462.3</ele>
        <time>2019-08-13T06:25:01Z</time>
      </trkpt>
      <trkpt lat="39.8686110" lon="-4.0299420">
        <ele>462.2</ele>
        <time>2019-08-13T06:25:02Z</time>
      </trkpt>
      <trkpt lat="39.8686290" lon="-4.0299990">
        <ele>462.2</ele>
        <time>2019-08-13T06:25:03Z</time>
      </trkpt>
      <trkpt lat="39.8686450" lon="-4.0300450">
        <ele>462.2</ele>
        <time>2019-08-13T06:25:04Z</time>
      </trkpt>
      <trkpt lat="39.8686570" lon="-4.0300800">
        <ele>462.3</ele>
        <time>2019-08-13T06:25:05Z</time>
      </trkpt>
      <trkpt lat="39.8686760" lon="-4.0301250">
        <ele>462.5</ele>
        <time>2019-08-13T06:25:07Z</time>
      </trkpt>
      <trkpt lat="39.8686950" lon="-4.0301730">
        <ele>462.7</ele>
        <time>2019-08-13T06:25:10Z</time>
      </trkpt>
      <trkpt lat="39.8687190" lon="-4.0302310">
        <ele>463.0</ele>
        <time>2019-08-13T06:25:12Z</time>
      </trkpt>
      <trkpt lat="39.8687350" lon="-4.0302680">
        <ele>463.2</ele>
        <time>2019-08-13T06:25:13Z</time>
      </trkpt>
      <trkpt lat="39.8687500" lon="-4.0303100">
        <ele>463.4</ele>
        <time>2019-08-13T06:25:14Z</time>
      </trkpt>
      <trkpt lat="39.8687690" lon="-4.0303540">
        <ele>463.6</ele>
        <time>2019-08-13T06:25:15Z</time>
      </trkpt>
      <trkpt lat="39.8687890" lon="-4.0304010">
        <ele>463.8</ele>
        <time>2019-08-13T06:25:16Z</time>
      </trkpt>
      <trkpt lat="39.8688070" lon="-4.0304510">
        <ele>463.9</ele>
        <time>2019-08-13T06:25:17Z</time>
      </trkpt>
      <trkpt lat="39.8688270" lon="-4.0305040">
        <ele>464.0</ele>
        <time>2019-08-13T06:25:18Z</time>
      </trkpt>
      <trkpt lat="39.8688480" lon="-4.0305590">
        <ele>464.0</ele>
        <time>2019-08-13T06:25:19Z</time>
      </trkpt>
      <trkpt lat="39.8688700" lon="-4.0306150">
        <ele>464.1</ele>
        <time>2019-08-13T06:25:20Z</time>
      </trkpt>
      <trkpt lat="39.8688930" lon="-4.0306730">
        <ele>464.1</ele>
        <time>2019-08-13T06:25:21Z</time>
      </trkpt>
      <trkpt lat="39.8689160" lon="-4.0307320">
        <ele>464.0</ele>
        <time>2019-08-13T06:25:22Z</time>
      </trkpt>
      <trkpt lat="39.8689390" lon="-4.0307900">
        <ele>464.0</ele>
        <time>2019-08-13T06:25:23Z</time>
      </trkpt>
      <trkpt lat="39.8689630" lon="-4.0308480">
        <ele>463.9</ele>
        <time>2019-08-13T06:25:24Z</time>
      </trkpt>
      <trkpt lat="39.8689870" lon="-4.0309030">
        <ele>463.9</ele>
        <time>2019-08-13T06:25:25Z</time>
      </trkpt>
      <trkpt lat="39.8690090" lon="-4.0309590">
        <ele>463.8</ele>
        <time>2019-08-13T06:25:26Z</time>
      </trkpt>
      <trkpt lat="39.8690330" lon="-4.0310130">
        <ele>463.7</ele>
        <time>2019-08-13T06:25:27Z</time>
      </trkpt>
      <trkpt lat="39.8690560" lon="-4.0310680">
        <ele>463.7</ele>
        <time>2019-08-13T06:25:28Z</time>
      </trkpt>
      <trkpt lat="39.8690780" lon="-4.0311270">
        <ele>463.6</ele>
        <time>2019-08-13T06:25:29Z</time>
      </trkpt>
      <trkpt lat="39.8691010" lon="-4.0311830">
        <ele>463.6</ele>
        <time>2019-08-13T06:25:30Z</time>
      </trkpt>
      <trkpt lat="39.8691210" lon="-4.0312420">
        <ele>463.6</ele>
        <time>2019-08-13T06:25:31Z</time>
      </trkpt>
      <trkpt lat="39.8691430" lon="-4.0313130">
        <ele>463.5</ele>
        <time>2019-08-13T06:25:32Z</time>
      </trkpt>
      <trkpt lat="39.8691720" lon="-4.0313760">
        <ele>463.4</ele>
        <time>2019-08-13T06:25:33Z</time>
      </trkpt>
      <trkpt lat="39.8691980" lon="-4.0314360">
        <ele>463.4</ele>
        <time>2019-08-13T06:25:34Z</time>
      </trkpt>
      <trkpt lat="39.8692210" lon="-4.0314950">
        <ele>463.3</ele>
        <time>2019-08-13T06:25:35Z</time>
      </trkpt>
      <trkpt lat="39.8692460" lon="-4.0315540">
        <ele>463.2</ele>
        <time>2019-08-13T06:25:36Z</time>
      </trkpt>
      <trkpt lat="39.8692720" lon="-4.0316150">
        <ele>463.1</ele>
        <time>2019-08-13T06:25:37Z</time>
      </trkpt>
      <trkpt lat="39.8692970" lon="-4.0316780">
        <ele>463.0</ele>
        <time>2019-08-13T06:25:38Z</time>
      </trkpt>
      <trkpt lat="39.8693220" lon="-4.0317380">
        <ele>462.8</ele>
        <time>2019-08-13T06:25:39Z</time>
      </trkpt>
      <trkpt lat="39.8693460" lon="-4.0317970">
        <ele>462.7</ele>
        <time>2019-08-13T06:25:40Z</time>
      </trkpt>
      <trkpt lat="39.8693720" lon="-4.0318570">
        <ele>462.7</ele>
        <time>2019-08-13T06:25:41Z</time>
      </trkpt>
      <trkpt lat="39.8693960" lon="-4.0319170">
        <ele>462.7</ele>
        <time>2019-08-13T06:25:42Z</time>
      </trkpt>
      <trkpt lat="39.8694200" lon="-4.0319790">
        <ele>462.7</ele>
        <time>2019-08-13T06:25:43Z</time>
      </trkpt>
      <trkpt lat="39.8694460" lon="-4.0320450">
        <ele>462.6</ele>
        <time>2019-08-13T06:25:44Z</time>
      </trkpt>
      <trkpt lat="39.8694680" lon="-4.0321090">
        <ele>462.6</ele>
        <time>2019-08-13T06:25:45Z</time>
      </trkpt>
      <trkpt lat="39.8694920" lon="-4.0321730">
        <ele>462.5</ele>
        <time>2019-08-13T06:25:46Z</time>
      </trkpt>
      <trkpt lat="39.8695160" lon="-4.0322410">
        <ele>462.3</ele>
        <time>2019-08-13T06:25:47Z</time>
      </trkpt>
      <trkpt lat="39.8695420" lon="-4.0323070">
        <ele>462.1</ele>
        <time>2019-08-13T06:25:48Z</time>
      </trkpt>
      <trkpt lat="39.8695670" lon="-4.0323740">
        <ele>461.9</ele>
        <time>2019-08-13T06:25:49Z</time>
      </trkpt>
      <trkpt lat="39.8695960" lon="-4.0324380">
        <ele>461.7</ele>
        <time>2019-08-13T06:25:50Z</time>
      </trkpt>
      <trkpt lat="39.8696230" lon="-4.0325000">
        <ele>461.6</ele>
        <time>2019-08-13T06:25:51Z</time>
      </trkpt>
      <trkpt lat="39.8696510" lon="-4.0325610">
        <ele>461.4</ele>
        <time>2019-08-13T06:25:52Z</time>
      </trkpt>
      <trkpt lat="39.8696720" lon="-4.0326220">
        <ele>461.3</ele>
        <time>2019-08-13T06:25:53Z</time>
      </trkpt>
      <trkpt lat="39.8696960" lon="-4.0326850">
        <ele>460.7</ele>
        <time>2019-08-13T06:25:54Z</time>
      </trkpt>
      <trkpt lat="39.8697210" lon="-4.0327480">
        <ele>460.5</ele>
        <time>2019-08-13T06:25:55Z</time>
      </trkpt>
      <trkpt lat="39.8697470" lon="-4.0328130">
        <ele>460.3</ele>
        <time>2019-08-13T06:25:56Z</time>
      </trkpt>
      <trkpt lat="39.8697720" lon="-4.0328780">
        <ele>460.2</ele>
        <time>2019-08-13T06:25:57Z</time>
      </trkpt>
      <trkpt lat="39.8697970" lon="-4.0329430">
        <ele>460.2</ele>
        <time>2019-08-13T06:25:58Z</time>
      </trkpt>
      <trkpt lat="39.8698230" lon="-4.0330080">
        <ele>460.1</ele>
        <time>2019-08-13T06:25:59Z</time>
      </trkpt>
      <trkpt lat="39.8698540" lon="-4.0330730">
        <ele>460.0</ele>
        <time>2019-08-13T06:26:00Z</time>
      </trkpt>
      <trkpt lat="39.8698820" lon="-4.0331370">
        <ele>459.8</ele>
        <time>2019-08-13T06:26:01Z</time>
      </trkpt>
      <trkpt lat="39.8699120" lon="-4.0332020">
        <ele>459.5</ele>
        <time>2019-08-13T06:26:02Z</time>
      </trkpt>
      <trkpt lat="39.8699370" lon="-4.0332660">
        <ele>459.2</ele>
        <time>2019-08-13T06:26:03Z</time>
      </trkpt>
      <trkpt lat="39.8699630" lon="-4.0333270">
        <ele>458.9</ele>
        <time>2019-08-13T06:26:04Z</time>
      </trkpt>
      <trkpt lat="39.8699880" lon="-4.0333840">
        <ele>458.6</ele>
        <time>2019-08-13T06:26:05Z</time>
      </trkpt>
      <trkpt lat="39.8700140" lon="-4.0334470">
        <ele>458.6</ele>
        <time>2019-08-13T06:26:06Z</time>
      </trkpt>
      <trkpt lat="39.8700370" lon="-4.0335090">
        <ele>458.5</ele>
        <time>2019-08-13T06:26:07Z</time>
      </trkpt>
      <trkpt lat="39.8700630" lon="-4.0335670">
        <ele>458.5</ele>
        <time>2019-08-13T06:26:08Z</time>
      </trkpt>
      <trkpt lat="39.8700850" lon="-4.0336260">
        <ele>458.5</ele>
        <time>2019-08-13T06:26:09Z</time>
      </trkpt>
      <trkpt lat="39.8701070" lon="-4.0336830">
        <ele>458.5</ele>
        <time>2019-08-13T06:26:10Z</time>
      </trkpt>
      <trkpt lat="39.8701270" lon="-4.0337380">
        <ele>458.5</ele>
        <time>2019-08-13T06:26:11Z</time>
      </trkpt>
      <trkpt lat="39.8701480" lon="-4.0337860">
        <ele>458.9</ele>
        <time>2019-08-13T06:26:12Z</time>
      </trkpt>
      <trkpt lat="39.8701690" lon="-4.0338350">
        <ele>459.0</ele>
        <time>2019-08-13T06:26:13Z</time>
      </trkpt>
      <trkpt lat="39.8701900" lon="-4.0338880">
        <ele>459.1</ele>
        <time>2019-08-13T06:26:14Z</time>
      </trkpt>
      <trkpt lat="39.8702120" lon="-4.0339390">
        <ele>459.2</ele>
        <time>2019-08-13T06:26:15Z</time>
      </trkpt>
      <trkpt lat="39.8702360" lon="-4.0339930">
        <ele>459.3</ele>
        <time>2019-08-13T06:26:16Z</time>
      </trkpt>
      <trkpt lat="39.8702570" lon="-4.0340490">
        <ele>459.4</ele>
        <time>2019-08-13T06:26:17Z</time>
      </trkpt>
      <trkpt lat="39.8702800" lon="-4.0341040">
        <ele>459.4</ele>
        <time>2019-08-13T06:26:18Z</time>
      </trkpt>
      <trkpt lat="39.8703030" lon="-4.0341580">
        <ele>459.5</ele>
        <time>2019-08-13T06:26:19Z</time>
      </trkpt>
      <trkpt lat="39.8703230" lon="-4.0342100">
        <ele>459.5</ele>
        <time>2019-08-13T06:26:20Z</time>
      </trkpt>
      <trkpt lat="39.8703420" lon="-4.0342560">
        <ele>459.6</ele>
        <time>2019-08-13T06:26:21Z</time>
      </trkpt>
      <trkpt lat="39.8703570" lon="-4.0342980">
        <ele>459.8</ele>
        <time>2019-08-13T06:26:22Z</time>
      </trkpt>
      <trkpt lat="39.8703710" lon="-4.0343310">
        <ele>459.9</ele>
        <time>2019-08-13T06:26:23Z</time>
      </trkpt>
      <trkpt lat="39.8703900" lon="-4.0343780">
        <ele>460.1</ele>
        <time>2019-08-13T06:26:25Z</time>
      </trkpt>
      <trkpt lat="39.8704030" lon="-4.0344090">
        <ele>460.2</ele>
        <time>2019-08-13T06:26:27Z</time>
      </trkpt>
      <trkpt lat="39.8704160" lon="-4.0344400">
        <ele>460.4</ele>
        <time>2019-08-13T06:26:30Z</time>
      </trkpt>
      <trkpt lat="39.8704260" lon="-4.0344770">
        <ele>460.5</ele>
        <time>2019-08-13T06:26:33Z</time>
      </trkpt>
      <trkpt lat="39.8704430" lon="-4.0345270">
        <ele>460.7</ele>
        <time>2019-08-13T06:26:35Z</time>
      </trkpt>
      <trkpt lat="39.8704570" lon="-4.0345570">
        <ele>460.8</ele>
        <time>2019-08-13T06:26:36Z</time>
      </trkpt>
      <trkpt lat="39.8704740" lon="-4.0345920">
        <ele>460.9</ele>
        <time>2019-08-13T06:26:37Z</time>
      </trkpt>
      <trkpt lat="39.8704910" lon="-4.0346320">
        <ele>460.9</ele>
        <time>2019-08-13T06:26:38Z</time>
      </trkpt>
      <trkpt lat="39.8705070" lon="-4.0346790">
        <ele>460.8</ele>
        <time>2019-08-13T06:26:39Z</time>
      </trkpt>
      <trkpt lat="39.8705230" lon="-4.0347270">
        <ele>460.8</ele>
        <time>2019-08-13T06:26:40Z</time>
      </trkpt>
      <trkpt lat="39.8705430" lon="-4.0347790">
        <ele>460.7</ele>
        <time>2019-08-13T06:26:41Z</time>
      </trkpt>
      <trkpt lat="39.8705640" lon="-4.0348310">
        <ele>460.7</ele>
        <time>2019-08-13T06:26:42Z</time>
      </trkpt>
      <trkpt lat="39.8705870" lon="-4.0348840">
        <ele>460.6</ele>
        <time>2019-08-13T06:26:43Z</time>
      </trkpt>
      <trkpt lat="39.8706100" lon="-4.0349380">
        <ele>460.5</ele>
        <time>2019-08-13T06:26:44Z</time>
      </trkpt>
      <trkpt lat="39.8706340" lon="-4.0349930">
        <ele>460.5</ele>
        <time>2019-08-13T06:26:45Z</time>
      </trkpt>
      <trkpt lat="39.8706570" lon="-4.0350510">
        <ele>460.4</ele>
        <time>2019-08-13T06:26:46Z</time>
      </trkpt>
      <trkpt lat="39.8706810" lon="-4.0351100">
        <ele>460.4</ele>
        <time>2019-08-13T06:26:47Z</time>
      </trkpt>
      <trkpt lat="39.8707050" lon="-4.0351690">
        <ele>460.3</ele>
        <time>2019-08-13T06:26:48Z</time>
      </trkpt>
      <trkpt lat="39.8707290" lon="-4.0352280">
        <ele>460.2</ele>
        <time>2019-08-13T06:26:49Z</time>
      </trkpt>
      <trkpt lat="39.8707530" lon="-4.0352860">
        <ele>460.2</ele>
        <time>2019-08-13T06:26:50Z</time>
      </trkpt>
      <trkpt lat="39.8707780" lon="-4.0353450">
        <ele>460.1</ele>
        <time>2019-08-13T06:26:51Z</time>
      </trkpt>
      <trkpt lat="39.8708020" lon="-4.0354010">
        <ele>460.1</ele>
        <time>2019-08-13T06:26:52Z</time>
      </trkpt>
      <trkpt lat="39.8708230" lon="-4.0354600">
        <ele>460.0</ele>
        <time>2019-08-13T06:26:53Z</time>
      </trkpt>
      <trkpt lat="39.8708410" lon="-4.0355190">
        <ele>460.0</ele>
        <time>2019-08-13T06:26:54Z</time>
      </trkpt>
      <trkpt lat="39.8708580" lon="-4.0355790">
        <ele>459.9</ele>
        <time>2019-08-13T06:26:55Z</time>
      </trkpt>
      <trkpt lat="39.8708760" lon="-4.0356410">
        <ele>459.9</ele>
        <time>2019-08-13T06:26:56Z</time>
      </trkpt>
      <trkpt lat="39.8708960" lon="-4.0357020">
        <ele>459.9</ele>
        <time>2019-08-13T06:26:57Z</time>
      </trkpt>
      <trkpt lat="39.8709200" lon="-4.0357620">
        <ele>459.8</ele>
        <time>2019-08-13T06:26:58Z</time>
      </trkpt>
      <trkpt lat="39.8709460" lon="-4.0358210">
        <ele>459.8</ele>
        <time>2019-08-13T06:26:59Z</time>
      </trkpt>
      <trkpt lat="39.8709730" lon="-4.0358820">
        <ele>459.7</ele>
        <time>2019-08-13T06:27:00Z</time>
      </trkpt>
      <trkpt lat="39.8709990" lon="-4.0359420">
        <ele>459.7</ele>
        <time>2019-08-13T06:27:01Z</time>
      </trkpt>
      <trkpt lat="39.8710250" lon="-4.0360010">
        <ele>459.6</ele>
        <time>2019-08-13T06:27:02Z</time>
      </trkpt>
      <trkpt lat="39.8710510" lon="-4.0360590">
        <ele>459.6</ele>
        <time>2019-08-13T06:27:03Z</time>
      </trkpt>
      <trkpt lat="39.8710790" lon="-4.0361150">
        <ele>459.5</ele>
        <time>2019-08-13T06:27:04Z</time>
      </trkpt>
      <trkpt lat="39.8711060" lon="-4.0361670">
        <ele>459.5</ele>
        <time>2019-08-13T06:27:05Z</time>
      </trkpt>
      <trkpt lat="39.8711310" lon="-4.0362160">
        <ele>459.5</ele>
        <time>2019-08-13T06:27:06Z</time>
      </trkpt>
      <trkpt lat="39.8711540" lon="-4.0362690">
        <ele>459.4</ele>
        <time>2019-08-13T06:27:07Z</time>
      </trkpt>
      <trkpt lat="39.8711750" lon="-4.0363200">
        <ele>459.4</ele>
        <time>2019-08-13T06:27:08Z</time>
      </trkpt>
      <trkpt lat="39.8711970" lon="-4.0363720">
        <ele>459.3</ele>
        <time>2019-08-13T06:27:09Z</time>
      </trkpt>
      <trkpt lat="39.8712230" lon="-4.0364290">
        <ele>459.2</ele>
        <time>2019-08-13T06:27:10Z</time>
      </trkpt>
      <trkpt lat="39.8712470" lon="-4.0364890">
        <ele>459.1</ele>
        <time>2019-08-13T06:27:11Z</time>
      </trkpt>
      <trkpt lat="39.8712710" lon="-4.0365520">
        <ele>459.0</ele>
        <time>2019-08-13T06:27:12Z</time>
      </trkpt>
      <trkpt lat="39.8712970" lon="-4.0366140">
        <ele>458.8</ele>
        <time>2019-08-13T06:27:13Z</time>
      </trkpt>
      <trkpt lat="39.8713240" lon="-4.0366740">
        <ele>458.7</ele>
        <time>2019-08-13T06:27:14Z</time>
      </trkpt>
      <trkpt lat="39.8713500" lon="-4.0367390">
        <ele>458.5</ele>
        <time>2019-08-13T06:27:15Z</time>
      </trkpt>
      <trkpt lat="39.8713750" lon="-4.0368020">
        <ele>458.3</ele>
        <time>2019-08-13T06:27:16Z</time>
      </trkpt>
      <trkpt lat="39.8713990" lon="-4.0368610">
        <ele>458.2</ele>
        <time>2019-08-13T06:27:17Z</time>
      </trkpt>
      <trkpt lat="39.8714230" lon="-4.0369190">
        <ele>458.0</ele>
        <time>2019-08-13T06:27:18Z</time>
      </trkpt>
      <trkpt lat="39.8714460" lon="-4.0369730">
        <ele>457.8</ele>
        <time>2019-08-13T06:27:19Z</time>
      </trkpt>
      <trkpt lat="39.8714680" lon="-4.0370260">
        <ele>457.6</ele>
        <time>2019-08-13T06:27:20Z</time>
      </trkpt>
      <trkpt lat="39.8714920" lon="-4.0370850">
        <ele>457.5</ele>
        <time>2019-08-13T06:27:21Z</time>
      </trkpt>
      <trkpt lat="39.8715160" lon="-4.0371420">
        <ele>457.4</ele>
        <time>2019-08-13T06:27:22Z</time>
      </trkpt>
      <trkpt lat="39.8715400" lon="-4.0372010">
        <ele>457.3</ele>
        <time>2019-08-13T06:27:23Z</time>
      </trkpt>
      <trkpt lat="39.8715650" lon="-4.0372610">
        <ele>457.3</ele>
        <time>2019-08-13T06:27:24Z</time>
      </trkpt>
      <trkpt lat="39.8715880" lon="-4.0373210">
        <ele>457.2</ele>
        <time>2019-08-13T06:27:25Z</time>
      </trkpt>
      <trkpt lat="39.8716100" lon="-4.0373820">
        <ele>457.1</ele>
        <time>2019-08-13T06:27:26Z</time>
      </trkpt>
      <trkpt lat="39.8716370" lon="-4.0374410">
        <ele>456.9</ele>
        <time>2019-08-13T06:27:27Z</time>
      </trkpt>
      <trkpt lat="39.8716630" lon="-4.0375010">
        <ele>456.8</ele>
        <time>2019-08-13T06:27:28Z</time>
      </trkpt>
      <trkpt lat="39.8716880" lon="-4.0375610">
        <ele>456.7</ele>
        <time>2019-08-13T06:27:29Z</time>
      </trkpt>
      <trkpt lat="39.8717120" lon="-4.0376210">
        <ele>456.8</ele>
        <time>2019-08-13T06:27:30Z</time>
      </trkpt>
      <trkpt lat="39.8717360" lon="-4.0376780">
        <ele>456.9</ele>
        <time>2019-08-13T06:27:31Z</time>
      </trkpt>
      <trkpt lat="39.8717580" lon="-4.0377370">
        <ele>457.0</ele>
        <time>2019-08-13T06:27:32Z</time>
      </trkpt>
      <trkpt lat="39.8717810" lon="-4.0377930">
        <ele>457.1</ele>
        <time>2019-08-13T06:27:33Z</time>
      </trkpt>
      <trkpt lat="39.8718040" lon="-4.0378480">
        <ele>457.4</ele>
        <time>2019-08-13T06:27:34Z</time>
      </trkpt>
      <trkpt lat="39.8718250" lon="-4.0379040">
        <ele>457.8</ele>
        <time>2019-08-13T06:27:35Z</time>
      </trkpt>
      <trkpt lat="39.8718490" lon="-4.0379590">
        <ele>458.1</ele>
        <time>2019-08-13T06:27:36Z</time>
      </trkpt>
      <trkpt lat="39.8718710" lon="-4.0380150">
        <ele>458.4</ele>
        <time>2019-08-13T06:27:37Z</time>
      </trkpt>
      <trkpt lat="39.8718940" lon="-4.0380720">
        <ele>458.5</ele>
        <time>2019-08-13T06:27:38Z</time>
      </trkpt>
      <trkpt lat="39.8719170" lon="-4.0381310">
        <ele>458.6</ele>
        <time>2019-08-13T06:27:39Z</time>
      </trkpt>
      <trkpt lat="39.8719400" lon="-4.0381910">
        <ele>458.7</ele>
        <time>2019-08-13T06:27:40Z</time>
      </trkpt>
      <trkpt lat="39.8719650" lon="-4.0382520">
        <ele>458.8</ele>
        <time>2019-08-13T06:27:41Z</time>
      </trkpt>
      <trkpt lat="39.8719900" lon="-4.0383120">
        <ele>458.9</ele>
        <time>2019-08-13T06:27:42Z</time>
      </trkpt>
      <trkpt lat="39.8720160" lon="-4.0383700">
        <ele>459.0</ele>
        <time>2019-08-13T06:27:43Z</time>
      </trkpt>
      <trkpt lat="39.8720400" lon="-4.0384290">
        <ele>459.0</ele>
        <time>2019-08-13T06:27:44Z</time>
      </trkpt>
      <trkpt lat="39.8720640" lon="-4.0384870">
        <ele>459.0</ele>
        <time>2019-08-13T06:27:45Z</time>
      </trkpt>
      <trkpt lat="39.8720890" lon="-4.0385450">
        <ele>459.0</ele>
        <time>2019-08-13T06:27:46Z</time>
      </trkpt>
      <trkpt lat="39.8721120" lon="-4.0386030">
        <ele>459.1</ele>
        <time>2019-08-13T06:27:47Z</time>
      </trkpt>
      <trkpt lat="39.8721350" lon="-4.0386580">
        <ele>459.1</ele>
        <time>2019-08-13T06:27:48Z</time>
      </trkpt>
      <trkpt lat="39.8721560" lon="-4.0387110">
        <ele>459.1</ele>
        <time>2019-08-13T06:27:49Z</time>
      </trkpt>
      <trkpt lat="39.8721770" lon="-4.0387630">
        <ele>459.1</ele>
        <time>2019-08-13T06:27:50Z</time>
      </trkpt>
      <trkpt lat="39.8721970" lon="-4.0388150">
        <ele>459.1</ele>
        <time>2019-08-13T06:27:51Z</time>
      </trkpt>
      <trkpt lat="39.8722160" lon="-4.0388670">
        <ele>459.1</ele>
        <time>2019-08-13T06:27:52Z</time>
      </trkpt>
      <trkpt lat="39.8722350" lon="-4.0389180">
        <ele>459.1</ele>
        <time>2019-08-13T06:27:53Z</time>
      </trkpt>
      <trkpt lat="39.8722560" lon="-4.0389690">
        <ele>459.1</ele>
        <time>2019-08-13T06:27:54Z</time>
      </trkpt>
      <trkpt lat="39.8722790" lon="-4.0390170">
        <ele>459.1</ele>
        <time>2019-08-13T06:27:55Z</time>
      </trkpt>
      <trkpt lat="39.8723050" lon="-4.0390560">
        <ele>459.1</ele>
        <time>2019-08-13T06:27:56Z</time>
      </trkpt>
      <trkpt lat="39.8723290" lon="-4.0390820">
        <ele>459.1</ele>
        <time>2019-08-13T06:27:57Z</time>
      </trkpt>
      <trkpt lat="39.8723750" lon="-4.0391080">
        <ele>459.2</ele>
        <time>2019-08-13T06:27:59Z</time>
      </trkpt>
      <trkpt lat="39.8724050" lon="-4.0391260">
        <ele>459.2</ele>
        <time>2019-08-13T06:28:00Z</time>
      </trkpt>
      <trkpt lat="39.8724420" lon="-4.0391510">
        <ele>459.3</ele>
        <time>2019-08-13T06:28:01Z</time>
      </trkpt>
      <trkpt lat="39.8724800" lon="-4.0391800">
        <ele>459.3</ele>
        <time>2019-08-13T06:28:02Z</time>
      </trkpt>
      <trkpt lat="39.8725170" lon="-4.0392140">
        <ele>459.3</ele>
        <time>2019-08-13T06:28:03Z</time>
      </trkpt>
      <trkpt lat="39.8725510" lon="-4.0392510">
        <ele>459.4</ele>
        <time>2019-08-13T06:28:04Z</time>
      </trkpt>
      <trkpt lat="39.8725800" lon="-4.0392950">
        <ele>459.3</ele>
        <time>2019-08-13T06:28:05Z</time>
      </trkpt>
      <trkpt lat="39.8726040" lon="-4.0393430">
        <ele>459.2</ele>
        <time>2019-08-13T06:28:06Z</time>
      </trkpt>
      <trkpt lat="39.8726240" lon="-4.0393970">
        <ele>459.1</ele>
        <time>2019-08-13T06:28:07Z</time>
      </trkpt>
      <trkpt lat="39.8726380" lon="-4.0394560">
        <ele>459.0</ele>
        <time>2019-08-13T06:28:08Z</time>
      </trkpt>
      <trkpt lat="39.8726490" lon="-4.0395190">
        <ele>458.9</ele>
        <time>2019-08-13T06:28:09Z</time>
      </trkpt>
      <trkpt lat="39.8726610" lon="-4.0395850">
        <ele>458.7</ele>
        <time>2019-08-13T06:28:10Z</time>
      </trkpt>
      <trkpt lat="39.8726760" lon="-4.0396520">
        <ele>458.6</ele>
        <time>2019-08-13T06:28:11Z</time>
      </trkpt>
      <trkpt lat="39.8726940" lon="-4.0397210">
        <ele>458.5</ele>
        <time>2019-08-13T06:28:12Z</time>
      </trkpt>
      <trkpt lat="39.8727140" lon="-4.0397880">
        <ele>458.4</ele>
        <time>2019-08-13T06:28:13Z</time>
      </trkpt>
      <trkpt lat="39.8727360" lon="-4.0398540">
        <ele>458.2</ele>
        <time>2019-08-13T06:28:14Z</time>
      </trkpt>
      <trkpt lat="39.8727610" lon="-4.0399210">
        <ele>458.1</ele>
        <time>2019-08-13T06:28:15Z</time>
      </trkpt>
      <trkpt lat="39.8727870" lon="-4.0399870">
        <ele>457.6</ele>
        <time>2019-08-13T06:28:16Z</time>
      </trkpt>
      <trkpt lat="39.8728140" lon="-4.0400520">
        <ele>457.3</ele>
        <time>2019-08-13T06:28:17Z</time>
      </trkpt>
      <trkpt lat="39.8728460" lon="-4.0401160">
        <ele>457.0</ele>
        <time>2019-08-13T06:28:18Z</time>
      </trkpt>
      <trkpt lat="39.8728800" lon="-4.0401770">
        <ele>456.8</ele>
        <time>2019-08-13T06:28:19Z</time>
      </trkpt>
      <trkpt lat="39.8729150" lon="-4.0402370">
        <ele>456.4</ele>
        <time>2019-08-13T06:28:20Z</time>
      </trkpt>
      <trkpt lat="39.8729540" lon="-4.0402970">
        <ele>456.2</ele>
        <time>2019-08-13T06:28:21Z</time>
      </trkpt>
      <trkpt lat="39.8729900" lon="-4.0403580">
        <ele>456.0</ele>
        <time>2019-08-13T06:28:22Z</time>
      </trkpt>
      <trkpt lat="39.8730270" lon="-4.0404190">
        <ele>455.7</ele>
        <time>2019-08-13T06:28:23Z</time>
      </trkpt>
      <trkpt lat="39.8730650" lon="-4.0404740">
        <ele>455.3</ele>
        <time>2019-08-13T06:28:24Z</time>
      </trkpt>
      <trkpt lat="39.8731040" lon="-4.0405260">
        <ele>455.0</ele>
        <time>2019-08-13T06:28:25Z</time>
      </trkpt>
      <trkpt lat="39.8731440" lon="-4.0405740">
        <ele>454.6</ele>
        <time>2019-08-13T06:28:26Z</time>
      </trkpt>
      <trkpt lat="39.8731820" lon="-4.0406170">
        <ele>454.3</ele>
        <time>2019-08-13T06:28:27Z</time>
      </trkpt>
      <trkpt lat="39.8732170" lon="-4.0406550">
        <ele>454.0</ele>
        <time>2019-08-13T06:28:28Z</time>
      </trkpt>
      <trkpt lat="39.8732490" lon="-4.0406870">
        <ele>453.8</ele>
        <time>2019-08-13T06:28:29Z</time>
      </trkpt>
      <trkpt lat="39.8732770" lon="-4.0407150">
        <ele>453.6</ele>
        <time>2019-08-13T06:28:30Z</time>
      </trkpt>
      <trkpt lat="39.8733000" lon="-4.0407390">
        <ele>453.4</ele>
        <time>2019-08-13T06:28:31Z</time>
      </trkpt>
      <trkpt lat="39.8733290" lon="-4.0407700">
        <ele>453.1</ele>
        <time>2019-08-13T06:28:33Z</time>
      </trkpt>
      <trkpt lat="39.8733520" lon="-4.0408060">
        <ele>453.1</ele>
        <time>2019-08-13T06:28:35Z</time>
      </trkpt>
      <trkpt lat="39.8733550" lon="-4.0408720">
        <ele>452.7</ele>
        <time>2019-08-13T06:28:37Z</time>
      </trkpt>
      <trkpt lat="39.8733340" lon="-4.0409000">
        <ele>452.5</ele>
        <time>2019-08-13T06:28:38Z</time>
      </trkpt>
      <trkpt lat="39.8733020" lon="-4.0409140">
        <ele>452.2</ele>
        <time>2019-08-13T06:28:39Z</time>
      </trkpt>
      <trkpt lat="39.8732710" lon="-4.0409260">
        <ele>452.0</ele>
        <time>2019-08-13T06:28:40Z</time>
      </trkpt>
      <trkpt lat="39.8732460" lon="-4.0409430">
        <ele>451.8</ele>
        <time>2019-08-13T06:28:41Z</time>
      </trkpt>
      <trkpt lat="39.8732240" lon="-4.0409660">
        <ele>451.5</ele>
        <time>2019-08-13T06:28:42Z</time>
      </trkpt>
      <trkpt lat="39.8732020" lon="-4.0409980">
        <ele>451.3</ele>
        <time>2019-08-13T06:28:43Z</time>
      </trkpt>
      <trkpt lat="39.8731770" lon="-4.0410350">
        <ele>451.0</ele>
        <time>2019-08-13T06:28:44Z</time>
      </trkpt>
      <trkpt lat="39.8731540" lon="-4.0410740">
        <ele>450.7</ele>
        <time>2019-08-13T06:28:45Z</time>
      </trkpt>
      <trkpt lat="39.8731370" lon="-4.0411080">
        <ele>450.5</ele>
        <time>2019-08-13T06:28:46Z</time>
      </trkpt>
      <trkpt lat="39.8731190" lon="-4.0411610">
        <ele>450.1</ele>
        <time>2019-08-13T06:28:48Z</time>
      </trkpt>
      <trkpt lat="39.8731170" lon="-4.0412160">
        <ele>449.5</ele>
        <time>2019-08-13T06:28:50Z</time>
      </trkpt>
      <trkpt lat="39.8731130" lon="-4.0412870">
        <ele>449.5</ele>
        <time>2019-08-13T06:28:52Z</time>
      </trkpt>
      <trkpt lat="39.8731070" lon="-4.0413270">
        <ele>449.5</ele>
        <time>2019-08-13T06:28:53Z</time>
      </trkpt>
      <trkpt lat="39.8730970" lon="-4.0413700">
        <ele>449.5</ele>
        <time>2019-08-13T06:28:54Z</time>
      </trkpt>
      <trkpt lat="39.8730840" lon="-4.0414140">
        <ele>448.0</ele>
        <time>2019-08-13T06:28:55Z</time>
      </trkpt>
      <trkpt lat="39.8730690" lon="-4.0414570">
        <ele>447.9</ele>
        <time>2019-08-13T06:28:56Z</time>
      </trkpt>
      <trkpt lat="39.8730530" lon="-4.0414960">
        <ele>447.8</ele>
        <time>2019-08-13T06:28:57Z</time>
      </trkpt>
      <trkpt lat="39.8730380" lon="-4.0415360">
        <ele>447.7</ele>
        <time>2019-08-13T06:28:58Z</time>
      </trkpt>
      <trkpt lat="39.8730190" lon="-4.0415740">
        <ele>447.6</ele>
        <time>2019-08-13T06:28:59Z</time>
      </trkpt>
      <trkpt lat="39.8729990" lon="-4.0416110">
        <ele>447.5</ele>
        <time>2019-08-13T06:29:00Z</time>
      </trkpt>
      <trkpt lat="39.8729810" lon="-4.0416480">
        <ele>446.9</ele>
        <time>2019-08-13T06:29:01Z</time>
      </trkpt>
      <trkpt lat="39.8729680" lon="-4.0416850">
        <ele>446.9</ele>
        <time>2019-08-13T06:29:02Z</time>
      </trkpt>
      <trkpt lat="39.8729570" lon="-4.0417220">
        <ele>446.9</ele>
        <time>2019-08-13T06:29:03Z</time>
      </trkpt>
      <trkpt lat="39.8729510" lon="-4.0417580">
        <ele>446.9</ele>
        <time>2019-08-13T06:29:04Z</time>
      </trkpt>
      <trkpt lat="39.8729540" lon="-4.0418170">
        <ele>445.9</ele>
        <time>2019-08-13T06:29:06Z</time>
      </trkpt>
      <trkpt lat="39.8729920" lon="-4.0418580">
        <ele>445.8</ele>
        <time>2019-08-13T06:29:08Z</time>
      </trkpt>
      <trkpt lat="39.8730180" lon="-4.0418730">
        <ele>445.8</ele>
        <time>2019-08-13T06:29:09Z</time>
      </trkpt>
      <trkpt lat="39.8730600" lon="-4.0419170">
        <ele>445.8</ele>
        <time>2019-08-13T06:29:11Z</time>
      </trkpt>
      <trkpt lat="39.8730820" lon="-4.0419410">
        <ele>445.8</ele>
        <time>2019-08-13T06:29:12Z</time>
      </trkpt>
      <trkpt lat="39.8731120" lon="-4.0419590">
        <ele>445.8</ele>
        <time>2019-08-13T06:29:13Z</time>
      </trkpt>
      <trkpt lat="39.8731420" lon="-4.0419690">
        <ele>445.8</ele>
        <time>2019-08-13T06:29:14Z</time>
      </trkpt>
      <trkpt lat="39.8731720" lon="-4.0419810">
        <ele>445.8</ele>
        <time>2019-08-13T06:29:15Z</time>
      </trkpt>
      <trkpt lat="39.8731980" lon="-4.0420000">
        <ele>445.8</ele>
        <time>2019-08-13T06:29:16Z</time>
      </trkpt>
      <trkpt lat="39.8732180" lon="-4.0420270">
        <ele>445.9</ele>
        <time>2019-08-13T06:29:17Z</time>
      </trkpt>
      <trkpt lat="39.8732400" lon="-4.0420890">
        <ele>445.9</ele>
        <time>2019-08-13T06:29:19Z</time>
      </trkpt>
      <trkpt lat="39.8732510" lon="-4.0421210">
        <ele>445.9</ele>
        <time>2019-08-13T06:29:20Z</time>
      </trkpt>
      <trkpt lat="39.8732670" lon="-4.0421550">
        <ele>445.6</ele>
        <time>2019-08-13T06:29:21Z</time>
      </trkpt>
      <trkpt lat="39.8732870" lon="-4.0421910">
        <ele>445.4</ele>
        <time>2019-08-13T06:29:22Z</time>
      </trkpt>
      <trkpt lat="39.8733100" lon="-4.0422280">
        <ele>445.3</ele>
        <time>2019-08-13T06:29:23Z</time>
      </trkpt>
      <trkpt lat="39.8733290" lon="-4.0422590">
        <ele>445.2</ele>
        <time>2019-08-13T06:29:24Z</time>
      </trkpt>
      <trkpt lat="39.8733500" lon="-4.0422990">
        <ele>445.0</ele>
        <time>2019-08-13T06:29:26Z</time>
      </trkpt>
      <trkpt lat="39.8733520" lon="-4.0423560">
        <ele>444.9</ele>
        <time>2019-08-13T06:29:28Z</time>
      </trkpt>
      <trkpt lat="39.8733340" lon="-4.0423920">
        <ele>444.7</ele>
        <time>2019-08-13T06:29:29Z</time>
      </trkpt>
      <trkpt lat="39.8733070" lon="-4.0424240">
        <ele>444.6</ele>
        <time>2019-08-13T06:29:30Z</time>
      </trkpt>
      <trkpt lat="39.8732810" lon="-4.0424580">
        <ele>444.4</ele>
        <time>2019-08-13T06:29:31Z</time>
      </trkpt>
      <trkpt lat="39.8732670" lon="-4.0424940">
        <ele>444.3</ele>
        <time>2019-08-13T06:29:32Z</time>
      </trkpt>
      <trkpt lat="39.8732680" lon="-4.0425310">
        <ele>444.2</ele>
        <time>2019-08-13T06:29:33Z</time>
      </trkpt>
      <trkpt lat="39.8732840" lon="-4.0425680">
        <ele>444.1</ele>
        <time>2019-08-13T06:29:34Z</time>
      </trkpt>
      <trkpt lat="39.8733090" lon="-4.0426030">
        <ele>444.0</ele>
        <time>2019-08-13T06:29:35Z</time>
      </trkpt>
      <trkpt lat="39.8733380" lon="-4.0426410">
        <ele>443.9</ele>
        <time>2019-08-13T06:29:36Z</time>
      </trkpt>
      <trkpt lat="39.8733690" lon="-4.0426820">
        <ele>443.8</ele>
        <time>2019-08-13T06:29:37Z</time>
      </trkpt>
      <trkpt lat="39.8734020" lon="-4.0427280">
        <ele>443.6</ele>
        <time>2019-08-13T06:29:38Z</time>
      </trkpt>
      <trkpt lat="39.8734330" lon="-4.0427740">
        <ele>443.5</ele>
        <time>2019-08-13T06:29:39Z</time>
      </trkpt>
      <trkpt lat="39.8734640" lon="-4.0428180">
        <ele>443.4</ele>
        <time>2019-08-13T06:29:40Z</time>
      </trkpt>
      <trkpt lat="39.8734930" lon="-4.0428620">
        <ele>443.2</ele>
        <time>2019-08-13T06:29:41Z</time>
      </trkpt>
      <trkpt lat="39.8735190" lon="-4.0429060">
        <ele>443.1</ele>
        <time>2019-08-13T06:29:42Z</time>
      </trkpt>
      <trkpt lat="39.8735420" lon="-4.0429510">
        <ele>443.0</ele>
        <time>2019-08-13T06:29:43Z</time>
      </trkpt>
      <trkpt lat="39.8735640" lon="-4.0429930">
        <ele>442.9</ele>
        <time>2019-08-13T06:29:44Z</time>
      </trkpt>
      <trkpt lat="39.8735830" lon="-4.0430370">
        <ele>442.8</ele>
        <time>2019-08-13T06:29:45Z</time>
      </trkpt>
      <trkpt lat="39.8736000" lon="-4.0430810">
        <ele>442.7</ele>
        <time>2019-08-13T06:29:46Z</time>
      </trkpt>
      <trkpt lat="39.8736140" lon="-4.0431230">
        <ele>442.6</ele>
        <time>2019-08-13T06:29:47Z</time>
      </trkpt>
      <trkpt lat="39.8736250" lon="-4.0431640">
        <ele>442.6</ele>
        <time>2019-08-13T06:29:48Z</time>
      </trkpt>
      <trkpt lat="39.8736320" lon="-4.0432040">
        <ele>442.5</ele>
        <time>2019-08-13T06:29:49Z</time>
      </trkpt>
      <trkpt lat="39.8736370" lon="-4.0432400">
        <ele>442.5</ele>
        <time>2019-08-13T06:29:50Z</time>
      </trkpt>
      <trkpt lat="39.8736440" lon="-4.0433020">
        <ele>442.4</ele>
        <time>2019-08-13T06:29:52Z</time>
      </trkpt>
      <trkpt lat="39.8736530" lon="-4.0433470">
        <ele>442.3</ele>
        <time>2019-08-13T06:29:54Z</time>
      </trkpt>
      <trkpt lat="39.8736540" lon="-4.0433820">
        <ele>442.3</ele>
        <time>2019-08-13T06:29:57Z</time>
      </trkpt>
      <trkpt lat="39.8736960" lon="-4.0433570">
        <ele>442.2</ele>
        <time>2019-08-13T06:30:59Z</time>
      </trkpt>
      <trkpt lat="39.8736920" lon="-4.0433200">
        <ele>442.2</ele>
        <time>2019-08-13T06:31:01Z</time>
      </trkpt>
      <trkpt lat="39.8736750" lon="-4.0432590">
        <ele>442.1</ele>
        <time>2019-08-13T06:31:03Z</time>
      </trkpt>
      <trkpt lat="39.8736700" lon="-4.0432230">
        <ele>442.1</ele>
        <time>2019-08-13T06:31:04Z</time>
      </trkpt>
      <trkpt lat="39.8736600" lon="-4.0431860">
        <ele>442.1</ele>
        <time>2019-08-13T06:31:05Z</time>
      </trkpt>
      <trkpt lat="39.8736470" lon="-4.0431490">
        <ele>442.1</ele>
        <time>2019-08-13T06:31:06Z</time>
      </trkpt>
      <trkpt lat="39.8736340" lon="-4.0431110">
        <ele>442.1</ele>
        <time>2019-08-13T06:31:07Z</time>
      </trkpt>
      <trkpt lat="39.8736210" lon="-4.0430720">
        <ele>442.0</ele>
        <time>2019-08-13T06:31:08Z</time>
      </trkpt>
      <trkpt lat="39.8736060" lon="-4.0430340">
        <ele>442.0</ele>
        <time>2019-08-13T06:31:09Z</time>
      </trkpt>
      <trkpt lat="39.8735900" lon="-4.0429950">
        <ele>442.0</ele>
        <time>2019-08-13T06:31:10Z</time>
      </trkpt>
      <trkpt lat="39.8735720" lon="-4.0429570">
        <ele>442.0</ele>
        <time>2019-08-13T06:31:11Z</time>
      </trkpt>
      <trkpt lat="39.8735550" lon="-4.0429250">
        <ele>442.0</ele>
        <time>2019-08-13T06:31:12Z</time>
      </trkpt>
      <trkpt lat="39.8735280" lon="-4.0428830">
        <ele>441.9</ele>
        <time>2019-08-13T06:31:14Z</time>
      </trkpt>
      <trkpt lat="39.8735010" lon="-4.0429080">
        <ele>441.9</ele>
        <time>2019-08-13T06:31:17Z</time>
      </trkpt>
      <trkpt lat="39.8735130" lon="-4.0429660">
        <ele>441.9</ele>
        <time>2019-08-13T06:31:19Z</time>
      </trkpt>
      <trkpt lat="39.8735250" lon="-4.0430000">
        <ele>441.9</ele>
        <time>2019-08-13T06:31:20Z</time>
      </trkpt>
      <trkpt lat="39.8735400" lon="-4.0430400">
        <ele>441.8</ele>
        <time>2019-08-13T06:31:21Z</time>
      </trkpt>
      <trkpt lat="39.8735540" lon="-4.0430870">
        <ele>441.8</ele>
        <time>2019-08-13T06:31:22Z</time>
      </trkpt>
      <trkpt lat="39.8735680" lon="-4.0431400">
        <ele>441.8</ele>
        <time>2019-08-13T06:31:23Z</time>
      </trkpt>
      <trkpt lat="39.8735800" lon="-4.0431950">
        <ele>441.8</ele>
        <time>2019-08-13T06:31:24Z</time>
      </trkpt>
      <trkpt lat="39.8735910" lon="-4.0432470">
        <ele>441.7</ele>
        <time>2019-08-13T06:31:25Z</time>
      </trkpt>
      <trkpt lat="39.8736000" lon="-4.0432930">
        <ele>441.7</ele>
        <time>2019-08-13T06:31:26Z</time>
      </trkpt>
      <trkpt lat="39.8736070" lon="-4.0433340">
        <ele>441.7</ele>
        <time>2019-08-13T06:31:27Z</time>
      </trkpt>
      <trkpt lat="39.8736110" lon="-4.0433690">
        <ele>441.6</ele>
        <time>2019-08-13T06:31:28Z</time>
      </trkpt>
      <trkpt lat="39.8736000" lon="-4.0434190">
        <ele>441.6</ele>
        <time>2019-08-13T06:31:30Z</time>
      </trkpt>
      <trkpt lat="39.8735890" lon="-4.0434590">
        <ele>441.6</ele>
        <time>2019-08-13T06:31:32Z</time>
      </trkpt>
      <trkpt lat="39.8736090" lon="-4.0434940">
        <ele>441.6</ele>
        <time>2019-08-13T06:31:34Z</time>
      </trkpt>
      <trkpt lat="39.8736560" lon="-4.0434950">
        <ele>441.6</ele>
        <time>2019-08-13T06:31:36Z</time>
      </trkpt>
      <trkpt lat="39.8736860" lon="-4.0434790">
        <ele>441.6</ele>
        <time>2019-08-13T06:31:37Z</time>
      </trkpt>
      <trkpt lat="39.8737190" lon="-4.0434530">
        <ele>441.6</ele>
        <time>2019-08-13T06:31:38Z</time>
      </trkpt>
      <trkpt lat="39.8737530" lon="-4.0434310">
        <ele>441.6</ele>
        <time>2019-08-13T06:31:39Z</time>
      </trkpt>
      <trkpt lat="39.8737820" lon="-4.0434080">
        <ele>441.5</ele>
        <time>2019-08-13T06:31:40Z</time>
      </trkpt>
      <trkpt lat="39.8738020" lon="-4.0433820">
        <ele>441.6</ele>
        <time>2019-08-13T06:31:41Z</time>
      </trkpt>
      <trkpt lat="39.8738340" lon="-4.0433710">
        <ele>441.6</ele>
        <time>2019-08-13T06:31:43Z</time>
      </trkpt>
      <trkpt lat="39.8738600" lon="-4.0434030">
        <ele>441.5</ele>
        <time>2019-08-13T06:31:44Z</time>
      </trkpt>
      <trkpt lat="39.8739190" lon="-4.0434290">
        <ele>441.6</ele>
        <time>2019-08-13T06:31:45Z</time>
      </trkpt>
      <trkpt lat="39.8740190" lon="-4.0434840">
        <ele>441.4</ele>
        <time>2019-08-13T06:31:46Z</time>
      </trkpt>
      <trkpt lat="39.8740860" lon="-4.0434940">
        <ele>441.3</ele>
        <time>2019-08-13T06:31:47Z</time>
      </trkpt>
      <trkpt lat="39.8741370" lon="-4.0435030">
        <ele>441.2</ele>
        <time>2019-08-13T06:31:48Z</time>
      </trkpt>
      <trkpt lat="39.8741810" lon="-4.0435060">
        <ele>441.1</ele>
        <time>2019-08-13T06:31:49Z</time>
      </trkpt>
      <trkpt lat="39.8742240" lon="-4.0435010">
        <ele>441.1</ele>
        <time>2019-08-13T06:31:50Z</time>
      </trkpt>
      <trkpt lat="39.8742670" lon="-4.0434980">
        <ele>441.0</ele>
        <time>2019-08-13T06:31:51Z</time>
      </trkpt>
      <trkpt lat="39.8743120" lon="-4.0434940">
        <ele>440.9</ele>
        <time>2019-08-13T06:31:52Z</time>
      </trkpt>
      <trkpt lat="39.8743550" lon="-4.0434930">
        <ele>440.9</ele>
        <time>2019-08-13T06:31:53Z</time>
      </trkpt>
      <trkpt lat="39.8743930" lon="-4.0434930">
        <ele>440.8</ele>
        <time>2019-08-13T06:31:54Z</time>
      </trkpt>
      <trkpt lat="39.8744400" lon="-4.0434860">
        <ele>440.8</ele>
        <time>2019-08-13T06:31:55Z</time>
      </trkpt>
      <trkpt lat="39.8744850" lon="-4.0434760">
        <ele>440.8</ele>
        <time>2019-08-13T06:31:56Z</time>
      </trkpt>
      <trkpt lat="39.8745290" lon="-4.0434670">
        <ele>440.7</ele>
        <time>2019-08-13T06:31:57Z</time>
      </trkpt>
      <trkpt lat="39.8745680" lon="-4.0434600">
        <ele>440.7</ele>
        <time>2019-08-13T06:31:58Z</time>
      </trkpt>
      <trkpt lat="39.8746050" lon="-4.0434550">
        <ele>440.7</ele>
        <time>2019-08-13T06:31:59Z</time>
      </trkpt>
      <trkpt lat="39.8746440" lon="-4.0434520">
        <ele>440.7</ele>
        <time>2019-08-13T06:32:00Z</time>
      </trkpt>
      <trkpt lat="39.8746770" lon="-4.0434450">
        <ele>440.7</ele>
        <time>2019-08-13T06:32:01Z</time>
      </trkpt>
      <trkpt lat="39.8747120" lon="-4.0434430">
        <ele>440.7</ele>
        <time>2019-08-13T06:32:02Z</time>
      </trkpt>
      <trkpt lat="39.8747440" lon="-4.0434450">
        <ele>440.7</ele>
        <time>2019-08-13T06:32:03Z</time>
      </trkpt>
      <trkpt lat="39.8747780" lon="-4.0434490">
        <ele>440.7</ele>
        <time>2019-08-13T06:32:04Z</time>
      </trkpt>
      <trkpt lat="39.8748130" lon="-4.0434490">
        <ele>440.7</ele>
        <time>2019-08-13T06:32:05Z</time>
      </trkpt>
      <trkpt lat="39.8748500" lon="-4.0434500">
        <ele>440.7</ele>
        <time>2019-08-13T06:32:06Z</time>
      </trkpt>
      <trkpt lat="39.8748850" lon="-4.0434530">
        <ele>440.8</ele>
        <time>2019-08-13T06:32:07Z</time>
      </trkpt>
      <trkpt lat="39.8749170" lon="-4.0434540">
        <ele>440.8</ele>
        <time>2019-08-13T06:32:08Z</time>
      </trkpt>
      <trkpt lat="39.8749450" lon="-4.0434550">
        <ele>440.8</ele>
        <time>2019-08-13T06:32:09Z</time>
      </trkpt>
      <trkpt lat="39.8749980" lon="-4.0434390">
        <ele>440.8</ele>
        <time>2019-08-13T06:32:11Z</time>
      </trkpt>
      <trkpt lat="39.8750190" lon="-4.0434140">
        <ele>440.9</ele>
        <time>2019-08-13T06:32:12Z</time>
      </trkpt>
      <trkpt lat="39.8750400" lon="-4.0433880">
        <ele>440.9</ele>
        <time>2019-08-13T06:32:14Z</time>
      </trkpt>
      <trkpt lat="39.8750690" lon="-4.0434030">
        <ele>440.9</ele>
        <time>2019-08-13T06:32:18Z</time>
      </trkpt>
      <trkpt lat="39.8750840" lon="-4.0433910">
        <ele>441.0</ele>
        <time>2019-08-13T06:32:26Z</time>
      </trkpt>
      <trkpt lat="39.8751240" lon="-4.0433910">
        <ele>441.1</ele>
        <time>2019-08-13T06:32:30Z</time>
      </trkpt>
      <trkpt lat="39.8751640" lon="-4.0434130">
        <ele>441.1</ele>
        <time>2019-08-13T06:32:32Z</time>
      </trkpt>
      <trkpt lat="39.8752060" lon="-4.0434370">
        <ele>441.2</ele>
        <time>2019-08-13T06:32:34Z</time>
      </trkpt>
      <trkpt lat="39.8752520" lon="-4.0434640">
        <ele>441.2</ele>
        <time>2019-08-13T06:32:36Z</time>
      </trkpt>
      <trkpt lat="39.8753010" lon="-4.0434880">
        <ele>441.2</ele>
        <time>2019-08-13T06:32:38Z</time>
      </trkpt>
      <trkpt lat="39.8753260" lon="-4.0435010">
        <ele>441.3</ele>
        <time>2019-08-13T06:32:39Z</time>
      </trkpt>
      <trkpt lat="39.8753760" lon="-4.0435290">
        <ele>441.3</ele>
        <time>2019-08-13T06:32:41Z</time>
      </trkpt>
      <trkpt lat="39.8754040" lon="-4.0435440">
        <ele>441.3</ele>
        <time>2019-08-13T06:32:42Z</time>
      </trkpt>
      <trkpt lat="39.8754310" lon="-4.0435600">
        <ele>441.3</ele>
        <time>2019-08-13T06:32:43Z</time>
      </trkpt>
      <trkpt lat="39.8754600" lon="-4.0435760">
        <ele>441.3</ele>
        <time>2019-08-13T06:32:44Z</time>
      </trkpt>
      <trkpt lat="39.8754910" lon="-4.0435930">
        <ele>441.3</ele>
        <time>2019-08-13T06:32:45Z</time>
      </trkpt>
      <trkpt lat="39.8755240" lon="-4.0436120">
        <ele>441.3</ele>
        <time>2019-08-13T06:32:46Z</time>
      </trkpt>
      <trkpt lat="39.8755580" lon="-4.0436330">
        <ele>441.3</ele>
        <time>2019-08-13T06:32:47Z</time>
      </trkpt>
      <trkpt lat="39.8755920" lon="-4.0436550">
        <ele>441.3</ele>
        <time>2019-08-13T06:32:48Z</time>
      </trkpt>
      <trkpt lat="39.8756330" lon="-4.0436790">
        <ele>441.3</ele>
        <time>2019-08-13T06:32:49Z</time>
      </trkpt>
      <trkpt lat="39.8756730" lon="-4.0437070">
        <ele>441.3</ele>
        <time>2019-08-13T06:32:50Z</time>
      </trkpt>
      <trkpt lat="39.8757110" lon="-4.0437330">
        <ele>441.3</ele>
        <time>2019-08-13T06:32:51Z</time>
      </trkpt>
      <trkpt lat="39.8757490" lon="-4.0437550">
        <ele>441.3</ele>
        <time>2019-08-13T06:32:52Z</time>
      </trkpt>
      <trkpt lat="39.8757860" lon="-4.0437780">
        <ele>441.3</ele>
        <time>2019-08-13T06:32:53Z</time>
      </trkpt>
      <trkpt lat="39.8758250" lon="-4.0438000">
        <ele>441.3</ele>
        <time>2019-08-13T06:32:54Z</time>
      </trkpt>
      <trkpt lat="39.8758650" lon="-4.0438230">
        <ele>441.3</ele>
        <time>2019-08-13T06:32:55Z</time>
      </trkpt>
      <trkpt lat="39.8759060" lon="-4.0438460">
        <ele>441.4</ele>
        <time>2019-08-13T06:32:56Z</time>
      </trkpt>
      <trkpt lat="39.8759480" lon="-4.0438710">
        <ele>441.4</ele>
        <time>2019-08-13T06:32:57Z</time>
      </trkpt>
      <trkpt lat="39.8759910" lon="-4.0438960">
        <ele>441.4</ele>
        <time>2019-08-13T06:32:58Z</time>
      </trkpt>
      <trkpt lat="39.8760340" lon="-4.0439230">
        <ele>441.4</ele>
        <time>2019-08-13T06:32:59Z</time>
      </trkpt>
      <trkpt lat="39.8760770" lon="-4.0439530">
        <ele>441.4</ele>
        <time>2019-08-13T06:33:00Z</time>
      </trkpt>
      <trkpt lat="39.8761200" lon="-4.0439800">
        <ele>441.4</ele>
        <time>2019-08-13T06:33:01Z</time>
      </trkpt>
      <trkpt lat="39.8761630" lon="-4.0440080">
        <ele>441.4</ele>
        <time>2019-08-13T06:33:02Z</time>
      </trkpt>
      <trkpt lat="39.8762060" lon="-4.0440380">
        <ele>441.4</ele>
        <time>2019-08-13T06:33:03Z</time>
      </trkpt>
      <trkpt lat="39.8762490" lon="-4.0440690">
        <ele>441.4</ele>
        <time>2019-08-13T06:33:04Z</time>
      </trkpt>
      <trkpt lat="39.8762910" lon="-4.0441050">
        <ele>441.4</ele>
        <time>2019-08-13T06:33:05Z</time>
      </trkpt>
      <trkpt lat="39.8763310" lon="-4.0441420">
        <ele>441.4</ele>
        <time>2019-08-13T06:33:06Z</time>
      </trkpt>
      <trkpt lat="39.8763700" lon="-4.0441820">
        <ele>441.4</ele>
        <time>2019-08-13T06:33:07Z</time>
      </trkpt>
      <trkpt lat="39.8764070" lon="-4.0442260">
        <ele>441.4</ele>
        <time>2019-08-13T06:33:08Z</time>
      </trkpt>
      <trkpt lat="39.8764440" lon="-4.0442700">
        <ele>441.4</ele>
        <time>2019-08-13T06:33:09Z</time>
      </trkpt>
      <trkpt lat="39.8764820" lon="-4.0443140">
        <ele>441.5</ele>
        <time>2019-08-13T06:33:10Z</time>
      </trkpt>
      <trkpt lat="39.8765190" lon="-4.0443560">
        <ele>441.5</ele>
        <time>2019-08-13T06:33:11Z</time>
      </trkpt>
      <trkpt lat="39.8765590" lon="-4.0443990">
        <ele>441.5</ele>
        <time>2019-08-13T06:33:12Z</time>
      </trkpt>
      <trkpt lat="39.8765990" lon="-4.0444440">
        <ele>441.5</ele>
        <time>2019-08-13T06:33:13Z</time>
      </trkpt>
      <trkpt lat="39.8766390" lon="-4.0444890">
        <ele>441.5</ele>
        <time>2019-08-13T06:33:14Z</time>
      </trkpt>
      <trkpt lat="39.8766790" lon="-4.0445350">
        <ele>441.5</ele>
        <time>2019-08-13T06:33:15Z</time>
      </trkpt>
      <trkpt lat="39.8767150" lon="-4.0445780">
        <ele>441.5</ele>
        <time>2019-08-13T06:33:16Z</time>
      </trkpt>
      <trkpt lat="39.8767500" lon="-4.0446190">
        <ele>441.5</ele>
        <time>2019-08-13T06:33:17Z</time>
      </trkpt>
      <trkpt lat="39.8767880" lon="-4.0446590">
        <ele>441.5</ele>
        <time>2019-08-13T06:33:18Z</time>
      </trkpt>
      <trkpt lat="39.8768280" lon="-4.0447000">
        <ele>441.5</ele>
        <time>2019-08-13T06:33:19Z</time>
      </trkpt>
      <trkpt lat="39.8768660" lon="-4.0447410">
        <ele>441.5</ele>
        <time>2019-08-13T06:33:20Z</time>
      </trkpt>
      <trkpt lat="39.8769060" lon="-4.0447840">
        <ele>441.5</ele>
        <time>2019-08-13T06:33:21Z</time>
      </trkpt>
      <trkpt lat="39.8769470" lon="-4.0448270">
        <ele>441.6</ele>
        <time>2019-08-13T06:33:22Z</time>
      </trkpt>
      <trkpt lat="39.8769880" lon="-4.0448700">
        <ele>441.6</ele>
        <time>2019-08-13T06:33:23Z</time>
      </trkpt>
      <trkpt lat="39.8770280" lon="-4.0449150">
        <ele>441.6</ele>
        <time>2019-08-13T06:33:24Z</time>
      </trkpt>
      <trkpt lat="39.8770660" lon="-4.0449610">
        <ele>441.6</ele>
        <time>2019-08-13T06:33:25Z</time>
      </trkpt>
      <trkpt lat="39.8771040" lon="-4.0450110">
        <ele>441.6</ele>
        <time>2019-08-13T06:33:26Z</time>
      </trkpt>
      <trkpt lat="39.8771390" lon="-4.0450600">
        <ele>441.6</ele>
        <time>2019-08-13T06:33:27Z</time>
      </trkpt>
      <trkpt lat="39.8771730" lon="-4.0451100">
        <ele>441.5</ele>
        <time>2019-08-13T06:33:28Z</time>
      </trkpt>
      <trkpt lat="39.8772060" lon="-4.0451600">
        <ele>441.5</ele>
        <time>2019-08-13T06:33:29Z</time>
      </trkpt>
      <trkpt lat="39.8772400" lon="-4.0452130">
        <ele>441.5</ele>
        <time>2019-08-13T06:33:30Z</time>
      </trkpt>
      <trkpt lat="39.8772740" lon="-4.0452680">
        <ele>441.5</ele>
        <time>2019-08-13T06:33:31Z</time>
      </trkpt>
      <trkpt lat="39.8773080" lon="-4.0453210">
        <ele>441.5</ele>
        <time>2019-08-13T06:33:32Z</time>
      </trkpt>
      <trkpt lat="39.8773430" lon="-4.0453760">
        <ele>441.5</ele>
        <time>2019-08-13T06:33:33Z</time>
      </trkpt>
      <trkpt lat="39.8773770" lon="-4.0454300">
        <ele>441.5</ele>
        <time>2019-08-13T06:33:34Z</time>
      </trkpt>
      <trkpt lat="39.8774130" lon="-4.0454820">
        <ele>441.5</ele>
        <time>2019-08-13T06:33:35Z</time>
      </trkpt>
      <trkpt lat="39.8774490" lon="-4.0455330">
        <ele>441.5</ele>
        <time>2019-08-13T06:33:36Z</time>
      </trkpt>
      <trkpt lat="39.8774830" lon="-4.0455830">
        <ele>441.5</ele>
        <time>2019-08-13T06:33:37Z</time>
      </trkpt>
      <trkpt lat="39.8775160" lon="-4.0456340">
        <ele>441.5</ele>
        <time>2019-08-13T06:33:38Z</time>
      </trkpt>
      <trkpt lat="39.8775460" lon="-4.0456860">
        <ele>441.5</ele>
        <time>2019-08-13T06:33:39Z</time>
      </trkpt>
      <trkpt lat="39.8775730" lon="-4.0457350">
        <ele>441.6</ele>
        <time>2019-08-13T06:33:40Z</time>
      </trkpt>
      <trkpt lat="39.8775980" lon="-4.0457840">
        <ele>441.6</ele>
        <time>2019-08-13T06:33:41Z</time>
      </trkpt>
      <trkpt lat="39.8776220" lon="-4.0458310">
        <ele>441.7</ele>
        <time>2019-08-13T06:33:42Z</time>
      </trkpt>
      <trkpt lat="39.8776460" lon="-4.0458770">
        <ele>441.9</ele>
        <time>2019-08-13T06:33:43Z</time>
      </trkpt>
      <trkpt lat="39.8776700" lon="-4.0459200">
        <ele>442.0</ele>
        <time>2019-08-13T06:33:44Z</time>
      </trkpt>
      <trkpt lat="39.8776940" lon="-4.0459630">
        <ele>442.3</ele>
        <time>2019-08-13T06:33:45Z</time>
      </trkpt>
      <trkpt lat="39.8777180" lon="-4.0460040">
        <ele>442.7</ele>
        <time>2019-08-13T06:33:46Z</time>
      </trkpt>
      <trkpt lat="39.8777430" lon="-4.0460440">
        <ele>443.1</ele>
        <time>2019-08-13T06:33:47Z</time>
      </trkpt>
      <trkpt lat="39.8777680" lon="-4.0460830">
        <ele>443.5</ele>
        <time>2019-08-13T06:33:48Z</time>
      </trkpt>
      <trkpt lat="39.8777910" lon="-4.0461220">
        <ele>444.0</ele>
        <time>2019-08-13T06:33:49Z</time>
      </trkpt>
      <trkpt lat="39.8778130" lon="-4.0461640">
        <ele>444.4</ele>
        <time>2019-08-13T06:33:50Z</time>
      </trkpt>
      <trkpt lat="39.8778310" lon="-4.0462050">
        <ele>444.8</ele>
        <time>2019-08-13T06:33:51Z</time>
      </trkpt>
      <trkpt lat="39.8778480" lon="-4.0462470">
        <ele>445.3</ele>
        <time>2019-08-13T06:33:52Z</time>
      </trkpt>
      <trkpt lat="39.8778630" lon="-4.0462870">
        <ele>445.6</ele>
        <time>2019-08-13T06:33:53Z</time>
      </trkpt>
      <trkpt lat="39.8778800" lon="-4.0463270">
        <ele>445.8</ele>
        <time>2019-08-13T06:33:54Z</time>
      </trkpt>
      <trkpt lat="39.8778990" lon="-4.0463680">
        <ele>445.8</ele>
        <time>2019-08-13T06:33:55Z</time>
      </trkpt>
      <trkpt lat="39.8779210" lon="-4.0464080">
        <ele>445.8</ele>
        <time>2019-08-13T06:33:56Z</time>
      </trkpt>
      <trkpt lat="39.8779470" lon="-4.0464550">
        <ele>445.8</ele>
        <time>2019-08-13T06:33:57Z</time>
      </trkpt>
      <trkpt lat="39.8779690" lon="-4.0465020">
        <ele>445.8</ele>
        <time>2019-08-13T06:33:58Z</time>
      </trkpt>
      <trkpt lat="39.8779900" lon="-4.0465510">
        <ele>445.8</ele>
        <time>2019-08-13T06:33:59Z</time>
      </trkpt>
      <trkpt lat="39.8780090" lon="-4.0466020">
        <ele>445.8</ele>
        <time>2019-08-13T06:34:00Z</time>
      </trkpt>
      <trkpt lat="39.8780240" lon="-4.0466540">
        <ele>445.8</ele>
        <time>2019-08-13T06:34:01Z</time>
      </trkpt>
      <trkpt lat="39.8780370" lon="-4.0467040">
        <ele>445.8</ele>
        <time>2019-08-13T06:34:02Z</time>
      </trkpt>
      <trkpt lat="39.8780490" lon="-4.0467600">
        <ele>445.8</ele>
        <time>2019-08-13T06:34:03Z</time>
      </trkpt>
      <trkpt lat="39.8780590" lon="-4.0468190">
        <ele>445.8</ele>
        <time>2019-08-13T06:34:04Z</time>
      </trkpt>
      <trkpt lat="39.8780660" lon="-4.0468820">
        <ele>445.8</ele>
        <time>2019-08-13T06:34:05Z</time>
      </trkpt>
      <trkpt lat="39.8780700" lon="-4.0469470">
        <ele>445.8</ele>
        <time>2019-08-13T06:34:06Z</time>
      </trkpt>
      <trkpt lat="39.8780740" lon="-4.0470120">
        <ele>445.8</ele>
        <time>2019-08-13T06:34:07Z</time>
      </trkpt>
      <trkpt lat="39.8780760" lon="-4.0470750">
        <ele>445.8</ele>
        <time>2019-08-13T06:34:08Z</time>
      </trkpt>
      <trkpt lat="39.8780770" lon="-4.0471390">
        <ele>445.8</ele>
        <time>2019-08-13T06:34:09Z</time>
      </trkpt>
      <trkpt lat="39.8780780" lon="-4.0472030">
        <ele>445.8</ele>
        <time>2019-08-13T06:34:10Z</time>
      </trkpt>
      <trkpt lat="39.8780790" lon="-4.0472660">
        <ele>445.8</ele>
        <time>2019-08-13T06:34:11Z</time>
      </trkpt>
      <trkpt lat="39.8780790" lon="-4.0473320">
        <ele>445.8</ele>
        <time>2019-08-13T06:34:12Z</time>
      </trkpt>
      <trkpt lat="39.8780810" lon="-4.0473970">
        <ele>445.8</ele>
        <time>2019-08-13T06:34:13Z</time>
      </trkpt>
      <trkpt lat="39.8780820" lon="-4.0474620">
        <ele>445.8</ele>
        <time>2019-08-13T06:34:14Z</time>
      </trkpt>
      <trkpt lat="39.8780800" lon="-4.0475280">
        <ele>445.8</ele>
        <time>2019-08-13T06:34:15Z</time>
      </trkpt>
      <trkpt lat="39.8780780" lon="-4.0475930">
        <ele>445.8</ele>
        <time>2019-08-13T06:34:16Z</time>
      </trkpt>
      <trkpt lat="39.8780760" lon="-4.0476590">
        <ele>445.8</ele>
        <time>2019-08-13T06:34:17Z</time>
      </trkpt>
      <trkpt lat="39.8780770" lon="-4.0477260">
        <ele>445.8</ele>
        <time>2019-08-13T06:34:18Z</time>
      </trkpt>
      <trkpt lat="39.8780780" lon="-4.0477900">
        <ele>445.8</ele>
        <time>2019-08-13T06:34:19Z</time>
      </trkpt>
      <trkpt lat="39.8780790" lon="-4.0478540">
        <ele>445.8</ele>
        <time>2019-08-13T06:34:20Z</time>
      </trkpt>
      <trkpt lat="39.8780820" lon="-4.0479210">
        <ele>445.8</ele>
        <time>2019-08-13T06:34:21Z</time>
      </trkpt>
      <trkpt lat="39.8780850" lon="-4.0479860">
        <ele>445.8</ele>
        <time>2019-08-13T06:34:22Z</time>
      </trkpt>
      <trkpt lat="39.8780870" lon="-4.0480540">
        <ele>445.8</ele>
        <time>2019-08-13T06:34:23Z</time>
      </trkpt>
      <trkpt lat="39.8780890" lon="-4.0481220">
        <ele>445.8</ele>
        <time>2019-08-13T06:34:24Z</time>
      </trkpt>
      <trkpt lat="39.8780910" lon="-4.0481880">
        <ele>445.8</ele>
        <time>2019-08-13T06:34:25Z</time>
      </trkpt>
      <trkpt lat="39.8780910" lon="-4.0482540">
        <ele>445.8</ele>
        <time>2019-08-13T06:34:26Z</time>
      </trkpt>
      <trkpt lat="39.8780910" lon="-4.0483200">
        <ele>445.8</ele>
        <time>2019-08-13T06:34:27Z</time>
      </trkpt>
      <trkpt lat="39.8780890" lon="-4.0483860">
        <ele>445.8</ele>
        <time>2019-08-13T06:34:28Z</time>
      </trkpt>
      <trkpt lat="39.8780870" lon="-4.0484520">
        <ele>445.8</ele>
        <time>2019-08-13T06:34:29Z</time>
      </trkpt>
      <trkpt lat="39.8780830" lon="-4.0485190">
        <ele>445.8</ele>
        <time>2019-08-13T06:34:30Z</time>
      </trkpt>
      <trkpt lat="39.8780800" lon="-4.0485830">
        <ele>445.8</ele>
        <time>2019-08-13T06:34:31Z</time>
      </trkpt>
      <trkpt lat="39.8780780" lon="-4.0486490">
        <ele>445.8</ele>
        <time>2019-08-13T06:34:32Z</time>
      </trkpt>
      <trkpt lat="39.8780770" lon="-4.0487120">
        <ele>445.8</ele>
        <time>2019-08-13T06:34:33Z</time>
      </trkpt>
      <trkpt lat="39.8780800" lon="-4.0487720">
        <ele>445.8</ele>
        <time>2019-08-13T06:34:34Z</time>
      </trkpt>
      <trkpt lat="39.8780820" lon="-4.0488320">
        <ele>445.8</ele>
        <time>2019-08-13T06:34:35Z</time>
      </trkpt>
      <trkpt lat="39.8780820" lon="-4.0488950">
        <ele>445.8</ele>
        <time>2019-08-13T06:34:36Z</time>
      </trkpt>
      <trkpt lat="39.8780800" lon="-4.0489560">
        <ele>445.8</ele>
        <time>2019-08-13T06:34:37Z</time>
      </trkpt>
      <trkpt lat="39.8780720" lon="-4.0490130">
        <ele>445.8</ele>
        <time>2019-08-13T06:34:38Z</time>
      </trkpt>
      <trkpt lat="39.8780640" lon="-4.0490680">
        <ele>445.8</ele>
        <time>2019-08-13T06:34:39Z</time>
      </trkpt>
      <trkpt lat="39.8780560" lon="-4.0491240">
        <ele>445.8</ele>
        <time>2019-08-13T06:34:40Z</time>
      </trkpt>
      <trkpt lat="39.8780500" lon="-4.0491800">
        <ele>445.8</ele>
        <time>2019-08-13T06:34:41Z</time>
      </trkpt>
      <trkpt lat="39.8780460" lon="-4.0492340">
        <ele>445.8</ele>
        <time>2019-08-13T06:34:42Z</time>
      </trkpt>
      <trkpt lat="39.8780430" lon="-4.0492890">
        <ele>445.8</ele>
        <time>2019-08-13T06:34:43Z</time>
      </trkpt>
      <trkpt lat="39.8780390" lon="-4.0493400">
        <ele>445.9</ele>
        <time>2019-08-13T06:34:44Z</time>
      </trkpt>
      <trkpt lat="39.8780360" lon="-4.0493870">
        <ele>445.9</ele>
        <time>2019-08-13T06:34:45Z</time>
      </trkpt>
      <trkpt lat="39.8780300" lon="-4.0494320">
        <ele>445.9</ele>
        <time>2019-08-13T06:34:46Z</time>
      </trkpt>
      <trkpt lat="39.8780230" lon="-4.0494760">
        <ele>445.9</ele>
        <time>2019-08-13T06:34:47Z</time>
      </trkpt>
      <trkpt lat="39.8780160" lon="-4.0495240">
        <ele>445.9</ele>
        <time>2019-08-13T06:34:48Z</time>
      </trkpt>
      <trkpt lat="39.8780080" lon="-4.0495710">
        <ele>445.9</ele>
        <time>2019-08-13T06:34:49Z</time>
      </trkpt>
      <trkpt lat="39.8779990" lon="-4.0496170">
        <ele>445.9</ele>
        <time>2019-08-13T06:34:50Z</time>
      </trkpt>
      <trkpt lat="39.8779870" lon="-4.0496610">
        <ele>446.0</ele>
        <time>2019-08-13T06:34:51Z</time>
      </trkpt>
      <trkpt lat="39.8779740" lon="-4.0497040">
        <ele>446.0</ele>
        <time>2019-08-13T06:34:52Z</time>
      </trkpt>
      <trkpt lat="39.8779660" lon="-4.0497460">
        <ele>446.1</ele>
        <time>2019-08-13T06:34:53Z</time>
      </trkpt>
      <trkpt lat="39.8779600" lon="-4.0497870">
        <ele>446.1</ele>
        <time>2019-08-13T06:34:54Z</time>
      </trkpt>
      <trkpt lat="39.8779570" lon="-4.0498280">
        <ele>446.1</ele>
        <time>2019-08-13T06:34:55Z</time>
      </trkpt>
      <trkpt lat="39.8779500" lon="-4.0498700">
        <ele>446.2</ele>
        <time>2019-08-13T06:34:56Z</time>
      </trkpt>
      <trkpt lat="39.8779390" lon="-4.0499090">
        <ele>446.1</ele>
        <time>2019-08-13T06:34:57Z</time>
      </trkpt>
      <trkpt lat="39.8779270" lon="-4.0499460">
        <ele>446.1</ele>
        <time>2019-08-13T06:34:58Z</time>
      </trkpt>
      <trkpt lat="39.8779110" lon="-4.0499850">
        <ele>446.1</ele>
        <time>2019-08-13T06:34:59Z</time>
      </trkpt>
      <trkpt lat="39.8778920" lon="-4.0500290">
        <ele>446.1</ele>
        <time>2019-08-13T06:35:00Z</time>
      </trkpt>
      <trkpt lat="39.8778700" lon="-4.0500800">
        <ele>446.0</ele>
        <time>2019-08-13T06:35:01Z</time>
      </trkpt>
      <trkpt lat="39.8778460" lon="-4.0501340">
        <ele>446.0</ele>
        <time>2019-08-13T06:35:02Z</time>
      </trkpt>
      <trkpt lat="39.8778230" lon="-4.0501920">
        <ele>446.0</ele>
        <time>2019-08-13T06:35:03Z</time>
      </trkpt>
      <trkpt lat="39.8778050" lon="-4.0502520">
        <ele>445.9</ele>
        <time>2019-08-13T06:35:04Z</time>
      </trkpt>
      <trkpt lat="39.8777900" lon="-4.0503150">
        <ele>445.9</ele>
        <time>2019-08-13T06:35:05Z</time>
      </trkpt>
      <trkpt lat="39.8777790" lon="-4.0503780">
        <ele>446.0</ele>
        <time>2019-08-13T06:35:06Z</time>
      </trkpt>
      <trkpt lat="39.8777730" lon="-4.0504390">
        <ele>446.0</ele>
        <time>2019-08-13T06:35:07Z</time>
      </trkpt>
      <trkpt lat="39.8777730" lon="-4.0504960">
        <ele>446.0</ele>
        <time>2019-08-13T06:35:08Z</time>
      </trkpt>
      <trkpt lat="39.8777740" lon="-4.0505530">
        <ele>446.0</ele>
        <time>2019-08-13T06:35:09Z</time>
      </trkpt>
      <trkpt lat="39.8777770" lon="-4.0506120">
        <ele>446.0</ele>
        <time>2019-08-13T06:35:10Z</time>
      </trkpt>
      <trkpt lat="39.8777830" lon="-4.0506710">
        <ele>446.0</ele>
        <time>2019-08-13T06:35:11Z</time>
      </trkpt>
      <trkpt lat="39.8777950" lon="-4.0507360">
        <ele>446.0</ele>
        <time>2019-08-13T06:35:12Z</time>
      </trkpt>
      <trkpt lat="39.8778070" lon="-4.0508040">
        <ele>446.0</ele>
        <time>2019-08-13T06:35:13Z</time>
      </trkpt>
      <trkpt lat="39.8778170" lon="-4.0508740">
        <ele>446.0</ele>
        <time>2019-08-13T06:35:14Z</time>
      </trkpt>
      <trkpt lat="39.8778260" lon="-4.0509410">
        <ele>446.1</ele>
        <time>2019-08-13T06:35:15Z</time>
      </trkpt>
      <trkpt lat="39.8778290" lon="-4.0510090">
        <ele>446.1</ele>
        <time>2019-08-13T06:35:16Z</time>
      </trkpt>
      <trkpt lat="39.8778300" lon="-4.0510770">
        <ele>446.1</ele>
        <time>2019-08-13T06:35:17Z</time>
      </trkpt>
      <trkpt lat="39.8778340" lon="-4.0511470">
        <ele>446.1</ele>
        <time>2019-08-13T06:35:18Z</time>
      </trkpt>
      <trkpt lat="39.8778410" lon="-4.0512170">
        <ele>446.1</ele>
        <time>2019-08-13T06:35:19Z</time>
      </trkpt>
      <trkpt lat="39.8778480" lon="-4.0512850">
        <ele>446.1</ele>
        <time>2019-08-13T06:35:20Z</time>
      </trkpt>
      <trkpt lat="39.8778560" lon="-4.0513550">
        <ele>446.2</ele>
        <time>2019-08-13T06:35:21Z</time>
      </trkpt>
      <trkpt lat="39.8778650" lon="-4.0514220">
        <ele>446.2</ele>
        <time>2019-08-13T06:35:22Z</time>
      </trkpt>
      <trkpt lat="39.8778720" lon="-4.0514890">
        <ele>446.3</ele>
        <time>2019-08-13T06:35:23Z</time>
      </trkpt>
      <trkpt lat="39.8778790" lon="-4.0515550">
        <ele>446.3</ele>
        <time>2019-08-13T06:35:24Z</time>
      </trkpt>
      <trkpt lat="39.8778830" lon="-4.0516210">
        <ele>446.4</ele>
        <time>2019-08-13T06:35:25Z</time>
      </trkpt>
      <trkpt lat="39.8778910" lon="-4.0516870">
        <ele>446.5</ele>
        <time>2019-08-13T06:35:26Z</time>
      </trkpt>
      <trkpt lat="39.8778990" lon="-4.0517520">
        <ele>446.6</ele>
        <time>2019-08-13T06:35:27Z</time>
      </trkpt>
      <trkpt lat="39.8779050" lon="-4.0518170">
        <ele>446.7</ele>
        <time>2019-08-13T06:35:28Z</time>
      </trkpt>
      <trkpt lat="39.8779100" lon="-4.0518850">
        <ele>446.7</ele>
        <time>2019-08-13T06:35:29Z</time>
      </trkpt>
      <trkpt lat="39.8779170" lon="-4.0519530">
        <ele>446.8</ele>
        <time>2019-08-13T06:35:30Z</time>
      </trkpt>
      <trkpt lat="39.8779300" lon="-4.0520180">
        <ele>446.8</ele>
        <time>2019-08-13T06:35:31Z</time>
      </trkpt>
      <trkpt lat="39.8779420" lon="-4.0520820">
        <ele>446.8</ele>
        <time>2019-08-13T06:35:32Z</time>
      </trkpt>
      <trkpt lat="39.8779530" lon="-4.0521460">
        <ele>446.8</ele>
        <time>2019-08-13T06:35:33Z</time>
      </trkpt>
      <trkpt lat="39.8779640" lon="-4.0522140">
        <ele>446.8</ele>
        <time>2019-08-13T06:35:34Z</time>
      </trkpt>
      <trkpt lat="39.8779750" lon="-4.0522820">
        <ele>446.8</ele>
        <time>2019-08-13T06:35:35Z</time>
      </trkpt>
      <trkpt lat="39.8779860" lon="-4.0523520">
        <ele>446.9</ele>
        <time>2019-08-13T06:35:36Z</time>
      </trkpt>
      <trkpt lat="39.8779960" lon="-4.0524230">
        <ele>446.9</ele>
        <time>2019-08-13T06:35:37Z</time>
      </trkpt>
      <trkpt lat="39.8780070" lon="-4.0524930">
        <ele>446.9</ele>
        <time>2019-08-13T06:35:38Z</time>
      </trkpt>
      <trkpt lat="39.8780160" lon="-4.0525620">
        <ele>447.0</ele>
        <time>2019-08-13T06:35:39Z</time>
      </trkpt>
      <trkpt lat="39.8780280" lon="-4.0526310">
        <ele>447.0</ele>
        <time>2019-08-13T06:35:40Z</time>
      </trkpt>
      <trkpt lat="39.8780410" lon="-4.0526990">
        <ele>447.1</ele>
        <time>2019-08-13T06:35:41Z</time>
      </trkpt>
      <trkpt lat="39.8780540" lon="-4.0527680">
        <ele>447.2</ele>
        <time>2019-08-13T06:35:42Z</time>
      </trkpt>
      <trkpt lat="39.8780670" lon="-4.0528360">
        <ele>447.3</ele>
        <time>2019-08-13T06:35:43Z</time>
      </trkpt>
      <trkpt lat="39.8780790" lon="-4.0529010">
        <ele>447.4</ele>
        <time>2019-08-13T06:35:44Z</time>
      </trkpt>
      <trkpt lat="39.8780900" lon="-4.0529650">
        <ele>447.5</ele>
        <time>2019-08-13T06:35:45Z</time>
      </trkpt>
      <trkpt lat="39.8781010" lon="-4.0530310">
        <ele>447.6</ele>
        <time>2019-08-13T06:35:46Z</time>
      </trkpt>
      <trkpt lat="39.8781130" lon="-4.0530990">
        <ele>447.7</ele>
        <time>2019-08-13T06:35:47Z</time>
      </trkpt>
      <trkpt lat="39.8781250" lon="-4.0531680">
        <ele>447.7</ele>
        <time>2019-08-13T06:35:48Z</time>
      </trkpt>
      <trkpt lat="39.8781380" lon="-4.0532370">
        <ele>447.8</ele>
        <time>2019-08-13T06:35:49Z</time>
      </trkpt>
      <trkpt lat="39.8781520" lon="-4.0533060">
        <ele>447.8</ele>
        <time>2019-08-13T06:35:50Z</time>
      </trkpt>
      <trkpt lat="39.8781650" lon="-4.0533750">
        <ele>447.8</ele>
        <time>2019-08-13T06:35:51Z</time>
      </trkpt>
      <trkpt lat="39.8781770" lon="-4.0534420">
        <ele>447.8</ele>
        <time>2019-08-13T06:35:52Z</time>
      </trkpt>
      <trkpt lat="39.8781930" lon="-4.0535100">
        <ele>447.8</ele>
        <time>2019-08-13T06:35:53Z</time>
      </trkpt>
      <trkpt lat="39.8782070" lon="-4.0535790">
        <ele>447.8</ele>
        <time>2019-08-13T06:35:54Z</time>
      </trkpt>
      <trkpt lat="39.8782210" lon="-4.0536450">
        <ele>447.8</ele>
        <time>2019-08-13T06:35:55Z</time>
      </trkpt>
      <trkpt lat="39.8782350" lon="-4.0537100">
        <ele>447.8</ele>
        <time>2019-08-13T06:35:56Z</time>
      </trkpt>
      <trkpt lat="39.8782470" lon="-4.0537770">
        <ele>447.8</ele>
        <time>2019-08-13T06:35:57Z</time>
      </trkpt>
      <trkpt lat="39.8782630" lon="-4.0538440">
        <ele>447.7</ele>
        <time>2019-08-13T06:35:58Z</time>
      </trkpt>
      <trkpt lat="39.8782770" lon="-4.0539120">
        <ele>447.7</ele>
        <time>2019-08-13T06:35:59Z</time>
      </trkpt>
      <trkpt lat="39.8782930" lon="-4.0539820">
        <ele>447.6</ele>
        <time>2019-08-13T06:36:00Z</time>
      </trkpt>
      <trkpt lat="39.8783090" lon="-4.0540540">
        <ele>447.6</ele>
        <time>2019-08-13T06:36:01Z</time>
      </trkpt>
      <trkpt lat="39.8783240" lon="-4.0541230">
        <ele>447.5</ele>
        <time>2019-08-13T06:36:02Z</time>
      </trkpt>
      <trkpt lat="39.8783380" lon="-4.0541910">
        <ele>447.5</ele>
        <time>2019-08-13T06:36:03Z</time>
      </trkpt>
      <trkpt lat="39.8783550" lon="-4.0542600">
        <ele>447.5</ele>
        <time>2019-08-13T06:36:04Z</time>
      </trkpt>
      <trkpt lat="39.8783710" lon="-4.0543300">
        <ele>447.5</ele>
        <time>2019-08-13T06:36:05Z</time>
      </trkpt>
      <trkpt lat="39.8783880" lon="-4.0543990">
        <ele>447.5</ele>
        <time>2019-08-13T06:36:06Z</time>
      </trkpt>
      <trkpt lat="39.8784030" lon="-4.0544680">
        <ele>447.5</ele>
        <time>2019-08-13T06:36:07Z</time>
      </trkpt>
      <trkpt lat="39.8784190" lon="-4.0545350">
        <ele>447.5</ele>
        <time>2019-08-13T06:36:08Z</time>
      </trkpt>
      <trkpt lat="39.8784330" lon="-4.0546010">
        <ele>447.5</ele>
        <time>2019-08-13T06:36:09Z</time>
      </trkpt>
      <trkpt lat="39.8784480" lon="-4.0546670">
        <ele>447.6</ele>
        <time>2019-08-13T06:36:10Z</time>
      </trkpt>
      <trkpt lat="39.8784620" lon="-4.0547310">
        <ele>447.6</ele>
        <time>2019-08-13T06:36:11Z</time>
      </trkpt>
      <trkpt lat="39.8784750" lon="-4.0547970">
        <ele>447.6</ele>
        <time>2019-08-13T06:36:12Z</time>
      </trkpt>
      <trkpt lat="39.8784850" lon="-4.0548620">
        <ele>447.7</ele>
        <time>2019-08-13T06:36:13Z</time>
      </trkpt>
      <trkpt lat="39.8784980" lon="-4.0549310">
        <ele>447.7</ele>
        <time>2019-08-13T06:36:14Z</time>
      </trkpt>
      <trkpt lat="39.8785090" lon="-4.0549990">
        <ele>447.8</ele>
        <time>2019-08-13T06:36:15Z</time>
      </trkpt>
      <trkpt lat="39.8785200" lon="-4.0550670">
        <ele>447.9</ele>
        <time>2019-08-13T06:36:16Z</time>
      </trkpt>
      <trkpt lat="39.8785290" lon="-4.0551350">
        <ele>448.0</ele>
        <time>2019-08-13T06:36:17Z</time>
      </trkpt>
      <trkpt lat="39.8785410" lon="-4.0552020">
        <ele>448.1</ele>
        <time>2019-08-13T06:36:18Z</time>
      </trkpt>
      <trkpt lat="39.8785530" lon="-4.0552690">
        <ele>448.2</ele>
        <time>2019-08-13T06:36:19Z</time>
      </trkpt>
      <trkpt lat="39.8785670" lon="-4.0553370">
        <ele>448.3</ele>
        <time>2019-08-13T06:36:20Z</time>
      </trkpt>
      <trkpt lat="39.8785810" lon="-4.0554040">
        <ele>448.4</ele>
        <time>2019-08-13T06:36:21Z</time>
      </trkpt>
      <trkpt lat="39.8785960" lon="-4.0554720">
        <ele>448.4</ele>
        <time>2019-08-13T06:36:22Z</time>
      </trkpt>
      <trkpt lat="39.8786110" lon="-4.0555350">
        <ele>448.5</ele>
        <time>2019-08-13T06:36:23Z</time>
      </trkpt>
      <trkpt lat="39.8786260" lon="-4.0556010">
        <ele>448.5</ele>
        <time>2019-08-13T06:36:24Z</time>
      </trkpt>
      <trkpt lat="39.8786390" lon="-4.0556730">
        <ele>448.6</ele>
        <time>2019-08-13T06:36:25Z</time>
      </trkpt>
      <trkpt lat="39.8786540" lon="-4.0557430">
        <ele>448.6</ele>
        <time>2019-08-13T06:36:26Z</time>
      </trkpt>
      <trkpt lat="39.8786670" lon="-4.0558140">
        <ele>448.6</ele>
        <time>2019-08-13T06:36:27Z</time>
      </trkpt>
      <trkpt lat="39.8786810" lon="-4.0558780">
        <ele>448.7</ele>
        <time>2019-08-13T06:36:28Z</time>
      </trkpt>
      <trkpt lat="39.8786970" lon="-4.0559390">
        <ele>448.7</ele>
        <time>2019-08-13T06:36:29Z</time>
      </trkpt>
      <trkpt lat="39.8787080" lon="-4.0560040">
        <ele>448.7</ele>
        <time>2019-08-13T06:36:30Z</time>
      </trkpt>
      <trkpt lat="39.8787170" lon="-4.0560690">
        <ele>448.7</ele>
        <time>2019-08-13T06:36:31Z</time>
      </trkpt>
      <trkpt lat="39.8787290" lon="-4.0561350">
        <ele>448.7</ele>
        <time>2019-08-13T06:36:32Z</time>
      </trkpt>
      <trkpt lat="39.8787420" lon="-4.0562000">
        <ele>448.8</ele>
        <time>2019-08-13T06:36:33Z</time>
      </trkpt>
      <trkpt lat="39.8787540" lon="-4.0562700">
        <ele>448.8</ele>
        <time>2019-08-13T06:36:34Z</time>
      </trkpt>
      <trkpt lat="39.8787640" lon="-4.0563410">
        <ele>448.8</ele>
        <time>2019-08-13T06:36:35Z</time>
      </trkpt>
      <trkpt lat="39.8787730" lon="-4.0564120">
        <ele>448.8</ele>
        <time>2019-08-13T06:36:36Z</time>
      </trkpt>
      <trkpt lat="39.8787790" lon="-4.0564780">
        <ele>448.9</ele>
        <time>2019-08-13T06:36:37Z</time>
      </trkpt>
      <trkpt lat="39.8787870" lon="-4.0565450">
        <ele>448.9</ele>
        <time>2019-08-13T06:36:38Z</time>
      </trkpt>
      <trkpt lat="39.8787940" lon="-4.0566120">
        <ele>449.0</ele>
        <time>2019-08-13T06:36:39Z</time>
      </trkpt>
      <trkpt lat="39.8788000" lon="-4.0566810">
        <ele>449.0</ele>
        <time>2019-08-13T06:36:40Z</time>
      </trkpt>
      <trkpt lat="39.8788060" lon="-4.0567500">
        <ele>449.1</ele>
        <time>2019-08-13T06:36:41Z</time>
      </trkpt>
      <trkpt lat="39.8788110" lon="-4.0568150">
        <ele>449.2</ele>
        <time>2019-08-13T06:36:42Z</time>
      </trkpt>
      <trkpt lat="39.8788180" lon="-4.0568800">
        <ele>449.2</ele>
        <time>2019-08-13T06:36:43Z</time>
      </trkpt>
      <trkpt lat="39.8788240" lon="-4.0569440">
        <ele>449.3</ele>
        <time>2019-08-13T06:36:44Z</time>
      </trkpt>
      <trkpt lat="39.8788320" lon="-4.0570090">
        <ele>449.4</ele>
        <time>2019-08-13T06:36:45Z</time>
      </trkpt>
      <trkpt lat="39.8788390" lon="-4.0570750">
        <ele>449.4</ele>
        <time>2019-08-13T06:36:46Z</time>
      </trkpt>
      <trkpt lat="39.8788460" lon="-4.0571410">
        <ele>449.5</ele>
        <time>2019-08-13T06:36:47Z</time>
      </trkpt>
      <trkpt lat="39.8788510" lon="-4.0572060">
        <ele>449.6</ele>
        <time>2019-08-13T06:36:48Z</time>
      </trkpt>
      <trkpt lat="39.8788580" lon="-4.0572720">
        <ele>449.7</ele>
        <time>2019-08-13T06:36:49Z</time>
      </trkpt>
      <trkpt lat="39.8788650" lon="-4.0573380">
        <ele>449.8</ele>
        <time>2019-08-13T06:36:50Z</time>
      </trkpt>
      <trkpt lat="39.8788720" lon="-4.0574030">
        <ele>449.9</ele>
        <time>2019-08-13T06:36:51Z</time>
      </trkpt>
      <trkpt lat="39.8788790" lon="-4.0574690">
        <ele>450.0</ele>
        <time>2019-08-13T06:36:52Z</time>
      </trkpt>
      <trkpt lat="39.8788880" lon="-4.0575340">
        <ele>450.1</ele>
        <time>2019-08-13T06:36:53Z</time>
      </trkpt>
      <trkpt lat="39.8788970" lon="-4.0576020">
        <ele>450.2</ele>
        <time>2019-08-13T06:36:54Z</time>
      </trkpt>
      <trkpt lat="39.8789060" lon="-4.0576670">
        <ele>450.4</ele>
        <time>2019-08-13T06:36:55Z</time>
      </trkpt>
      <trkpt lat="39.8789130" lon="-4.0577320">
        <ele>450.5</ele>
        <time>2019-08-13T06:36:56Z</time>
      </trkpt>
      <trkpt lat="39.8789210" lon="-4.0577970">
        <ele>450.6</ele>
        <time>2019-08-13T06:36:57Z</time>
      </trkpt>
      <trkpt lat="39.8789290" lon="-4.0578620">
        <ele>450.8</ele>
        <time>2019-08-13T06:36:58Z</time>
      </trkpt>
      <trkpt lat="39.8789400" lon="-4.0579270">
        <ele>450.9</ele>
        <time>2019-08-13T06:36:59Z</time>
      </trkpt>
      <trkpt lat="39.8789520" lon="-4.0579930">
        <ele>451.0</ele>
        <time>2019-08-13T06:37:00Z</time>
      </trkpt>
      <trkpt lat="39.8789660" lon="-4.0580570">
        <ele>451.2</ele>
        <time>2019-08-13T06:37:01Z</time>
      </trkpt>
      <trkpt lat="39.8789820" lon="-4.0581180">
        <ele>451.3</ele>
        <time>2019-08-13T06:37:02Z</time>
      </trkpt>
      <trkpt lat="39.8790010" lon="-4.0581800">
        <ele>451.4</ele>
        <time>2019-08-13T06:37:03Z</time>
      </trkpt>
      <trkpt lat="39.8790220" lon="-4.0582410">
        <ele>451.5</ele>
        <time>2019-08-13T06:37:04Z</time>
      </trkpt>
      <trkpt lat="39.8790460" lon="-4.0583000">
        <ele>451.6</ele>
        <time>2019-08-13T06:37:05Z</time>
      </trkpt>
      <trkpt lat="39.8790700" lon="-4.0583580">
        <ele>451.7</ele>
        <time>2019-08-13T06:37:06Z</time>
      </trkpt>
      <trkpt lat="39.8790950" lon="-4.0584140">
        <ele>451.8</ele>
        <time>2019-08-13T06:37:07Z</time>
      </trkpt>
      <trkpt lat="39.8791200" lon="-4.0584710">
        <ele>451.9</ele>
        <time>2019-08-13T06:37:08Z</time>
      </trkpt>
      <trkpt lat="39.8791450" lon="-4.0585250">
        <ele>451.9</ele>
        <time>2019-08-13T06:37:09Z</time>
      </trkpt>
      <trkpt lat="39.8791710" lon="-4.0585790">
        <ele>452.0</ele>
        <time>2019-08-13T06:37:10Z</time>
      </trkpt>
      <trkpt lat="39.8791950" lon="-4.0586330">
        <ele>452.1</ele>
        <time>2019-08-13T06:37:11Z</time>
      </trkpt>
      <trkpt lat="39.8792180" lon="-4.0586850">
        <ele>452.2</ele>
        <time>2019-08-13T06:37:12Z</time>
      </trkpt>
      <trkpt lat="39.8792430" lon="-4.0587380">
        <ele>452.3</ele>
        <time>2019-08-13T06:37:13Z</time>
      </trkpt>
      <trkpt lat="39.8792660" lon="-4.0587920">
        <ele>452.4</ele>
        <time>2019-08-13T06:37:14Z</time>
      </trkpt>
      <trkpt lat="39.8792890" lon="-4.0588470">
        <ele>452.4</ele>
        <time>2019-08-13T06:37:15Z</time>
      </trkpt>
      <trkpt lat="39.8793100" lon="-4.0589010">
        <ele>452.5</ele>
        <time>2019-08-13T06:37:16Z</time>
      </trkpt>
      <trkpt lat="39.8793310" lon="-4.0589550">
        <ele>452.6</ele>
        <time>2019-08-13T06:37:17Z</time>
      </trkpt>
      <trkpt lat="39.8793510" lon="-4.0590100">
        <ele>452.6</ele>
        <time>2019-08-13T06:37:18Z</time>
      </trkpt>
      <trkpt lat="39.8793680" lon="-4.0590660">
        <ele>452.7</ele>
        <time>2019-08-13T06:37:19Z</time>
      </trkpt>
      <trkpt lat="39.8793830" lon="-4.0591220">
        <ele>452.7</ele>
        <time>2019-08-13T06:37:20Z</time>
      </trkpt>
      <trkpt lat="39.8793950" lon="-4.0591790">
        <ele>452.8</ele>
        <time>2019-08-13T06:37:21Z</time>
      </trkpt>
      <trkpt lat="39.8794040" lon="-4.0592360">
        <ele>452.8</ele>
        <time>2019-08-13T06:37:22Z</time>
      </trkpt>
      <trkpt lat="39.8794110" lon="-4.0592930">
        <ele>452.9</ele>
        <time>2019-08-13T06:37:23Z</time>
      </trkpt>
      <trkpt lat="39.8794160" lon="-4.0593510">
        <ele>452.9</ele>
        <time>2019-08-13T06:37:24Z</time>
      </trkpt>
      <trkpt lat="39.8794180" lon="-4.0594080">
        <ele>452.9</ele>
        <time>2019-08-13T06:37:25Z</time>
      </trkpt>
      <trkpt lat="39.8794180" lon="-4.0594670">
        <ele>453.0</ele>
        <time>2019-08-13T06:37:26Z</time>
      </trkpt>
      <trkpt lat="39.8794170" lon="-4.0595270">
        <ele>453.0</ele>
        <time>2019-08-13T06:37:27Z</time>
      </trkpt>
      <trkpt lat="39.8794120" lon="-4.0595840">
        <ele>453.0</ele>
        <time>2019-08-13T06:37:28Z</time>
      </trkpt>
      <trkpt lat="39.8794070" lon="-4.0596430">
        <ele>453.1</ele>
        <time>2019-08-13T06:37:29Z</time>
      </trkpt>
      <trkpt lat="39.8794020" lon="-4.0597030">
        <ele>453.1</ele>
        <time>2019-08-13T06:37:30Z</time>
      </trkpt>
      <trkpt lat="39.8793940" lon="-4.0597610">
        <ele>453.1</ele>
        <time>2019-08-13T06:37:31Z</time>
      </trkpt>
      <trkpt lat="39.8793860" lon="-4.0598190">
        <ele>453.1</ele>
        <time>2019-08-13T06:37:32Z</time>
      </trkpt>
      <trkpt lat="39.8793770" lon="-4.0598790">
        <ele>453.1</ele>
        <time>2019-08-13T06:37:33Z</time>
      </trkpt>
      <trkpt lat="39.8793660" lon="-4.0599410">
        <ele>453.1</ele>
        <time>2019-08-13T06:37:34Z</time>
      </trkpt>
      <trkpt lat="39.8793570" lon="-4.0600040">
        <ele>453.1</ele>
        <time>2019-08-13T06:37:35Z</time>
      </trkpt>
      <trkpt lat="39.8793440" lon="-4.0600670">
        <ele>453.1</ele>
        <time>2019-08-13T06:37:36Z</time>
      </trkpt>
      <trkpt lat="39.8793310" lon="-4.0601270">
        <ele>453.1</ele>
        <time>2019-08-13T06:37:37Z</time>
      </trkpt>
      <trkpt lat="39.8793190" lon="-4.0601880">
        <ele>453.0</ele>
        <time>2019-08-13T06:37:38Z</time>
      </trkpt>
      <trkpt lat="39.8793060" lon="-4.0602500">
        <ele>453.0</ele>
        <time>2019-08-13T06:37:39Z</time>
      </trkpt>
      <trkpt lat="39.8792940" lon="-4.0603130">
        <ele>453.0</ele>
        <time>2019-08-13T06:37:40Z</time>
      </trkpt>
      <trkpt lat="39.8792790" lon="-4.0603780">
        <ele>453.0</ele>
        <time>2019-08-13T06:37:41Z</time>
      </trkpt>
      <trkpt lat="39.8792650" lon="-4.0604420">
        <ele>452.9</ele>
        <time>2019-08-13T06:37:42Z</time>
      </trkpt>
      <trkpt lat="39.8792520" lon="-4.0605060">
        <ele>452.9</ele>
        <time>2019-08-13T06:37:43Z</time>
      </trkpt>
      <trkpt lat="39.8792390" lon="-4.0605720">
        <ele>452.9</ele>
        <time>2019-08-13T06:37:44Z</time>
      </trkpt>
      <trkpt lat="39.8792260" lon="-4.0606370">
        <ele>452.8</ele>
        <time>2019-08-13T06:37:45Z</time>
      </trkpt>
      <trkpt lat="39.8792120" lon="-4.0607050">
        <ele>452.8</ele>
        <time>2019-08-13T06:37:46Z</time>
      </trkpt>
      <trkpt lat="39.8791980" lon="-4.0607720">
        <ele>452.8</ele>
        <time>2019-08-13T06:37:47Z</time>
      </trkpt>
      <trkpt lat="39.8791850" lon="-4.0608370">
        <ele>452.7</ele>
        <time>2019-08-13T06:37:48Z</time>
      </trkpt>
      <trkpt lat="39.8791740" lon="-4.0609010">
        <ele>452.7</ele>
        <time>2019-08-13T06:37:49Z</time>
      </trkpt>
      <trkpt lat="39.8791640" lon="-4.0609660">
        <ele>452.6</ele>
        <time>2019-08-13T06:37:50Z</time>
      </trkpt>
      <trkpt lat="39.8791530" lon="-4.0610310">
        <ele>452.6</ele>
        <time>2019-08-13T06:37:51Z</time>
      </trkpt>
      <trkpt lat="39.8791420" lon="-4.0610960">
        <ele>452.5</ele>
        <time>2019-08-13T06:37:52Z</time>
      </trkpt>
      <trkpt lat="39.8791320" lon="-4.0611630">
        <ele>452.5</ele>
        <time>2019-08-13T06:37:53Z</time>
      </trkpt>
      <trkpt lat="39.8791220" lon="-4.0612330">
        <ele>452.4</ele>
        <time>2019-08-13T06:37:54Z</time>
      </trkpt>
      <trkpt lat="39.8791130" lon="-4.0613040">
        <ele>452.3</ele>
        <time>2019-08-13T06:37:55Z</time>
      </trkpt>
      <trkpt lat="39.8791040" lon="-4.0613730">
        <ele>452.2</ele>
        <time>2019-08-13T06:37:56Z</time>
      </trkpt>
      <trkpt lat="39.8790960" lon="-4.0614400">
        <ele>452.1</ele>
        <time>2019-08-13T06:37:57Z</time>
      </trkpt>
      <trkpt lat="39.8790910" lon="-4.0615080">
        <ele>452.0</ele>
        <time>2019-08-13T06:37:58Z</time>
      </trkpt>
      <trkpt lat="39.8790850" lon="-4.0615750">
        <ele>451.9</ele>
        <time>2019-08-13T06:37:59Z</time>
      </trkpt>
      <trkpt lat="39.8790780" lon="-4.0616410">
        <ele>451.8</ele>
        <time>2019-08-13T06:38:00Z</time>
      </trkpt>
      <trkpt lat="39.8790720" lon="-4.0617030">
        <ele>452.0</ele>
        <time>2019-08-13T06:38:01Z</time>
      </trkpt>
      <trkpt lat="39.8790620" lon="-4.0617650">
        <ele>452.0</ele>
        <time>2019-08-13T06:38:02Z</time>
      </trkpt>
      <trkpt lat="39.8790520" lon="-4.0618310">
        <ele>452.0</ele>
        <time>2019-08-13T06:38:03Z</time>
      </trkpt>
      <trkpt lat="39.8790420" lon="-4.0618960">
        <ele>452.0</ele>
        <time>2019-08-13T06:38:04Z</time>
      </trkpt>
      <trkpt lat="39.8790320" lon="-4.0619610">
        <ele>451.9</ele>
        <time>2019-08-13T06:38:05Z</time>
      </trkpt>
      <trkpt lat="39.8790200" lon="-4.0620260">
        <ele>451.9</ele>
        <time>2019-08-13T06:38:06Z</time>
      </trkpt>
      <trkpt lat="39.8790090" lon="-4.0620910">
        <ele>451.9</ele>
        <time>2019-08-13T06:38:07Z</time>
      </trkpt>
      <trkpt lat="39.8789950" lon="-4.0621550">
        <ele>451.9</ele>
        <time>2019-08-13T06:38:08Z</time>
      </trkpt>
      <trkpt lat="39.8789820" lon="-4.0622210">
        <ele>451.9</ele>
        <time>2019-08-13T06:38:09Z</time>
      </trkpt>
      <trkpt lat="39.8789680" lon="-4.0622860">
        <ele>451.9</ele>
        <time>2019-08-13T06:38:10Z</time>
      </trkpt>
      <trkpt lat="39.8789530" lon="-4.0623510">
        <ele>451.9</ele>
        <time>2019-08-13T06:38:11Z</time>
      </trkpt>
      <trkpt lat="39.8789380" lon="-4.0624160">
        <ele>451.9</ele>
        <time>2019-08-13T06:38:12Z</time>
      </trkpt>
      <trkpt lat="39.8789210" lon="-4.0624820">
        <ele>451.9</ele>
        <time>2019-08-13T06:38:13Z</time>
      </trkpt>
      <trkpt lat="39.8789040" lon="-4.0625480">
        <ele>451.8</ele>
        <time>2019-08-13T06:38:14Z</time>
      </trkpt>
      <trkpt lat="39.8788860" lon="-4.0626130">
        <ele>451.8</ele>
        <time>2019-08-13T06:38:15Z</time>
      </trkpt>
      <trkpt lat="39.8788670" lon="-4.0626790">
        <ele>451.9</ele>
        <time>2019-08-13T06:38:16Z</time>
      </trkpt>
      <trkpt lat="39.8788510" lon="-4.0627430">
        <ele>451.9</ele>
        <time>2019-08-13T06:38:17Z</time>
      </trkpt>
      <trkpt lat="39.8788350" lon="-4.0628070">
        <ele>451.9</ele>
        <time>2019-08-13T06:38:18Z</time>
      </trkpt>
      <trkpt lat="39.8788190" lon="-4.0628710">
        <ele>452.0</ele>
        <time>2019-08-13T06:38:19Z</time>
      </trkpt>
      <trkpt lat="39.8788030" lon="-4.0629330">
        <ele>452.0</ele>
        <time>2019-08-13T06:38:20Z</time>
      </trkpt>
      <trkpt lat="39.8787870" lon="-4.0629960">
        <ele>452.0</ele>
        <time>2019-08-13T06:38:21Z</time>
      </trkpt>
      <trkpt lat="39.8787700" lon="-4.0630600">
        <ele>452.1</ele>
        <time>2019-08-13T06:38:22Z</time>
      </trkpt>
      <trkpt lat="39.8787540" lon="-4.0631280">
        <ele>452.2</ele>
        <time>2019-08-13T06:38:23Z</time>
      </trkpt>
      <trkpt lat="39.8787390" lon="-4.0632000">
        <ele>452.3</ele>
        <time>2019-08-13T06:38:24Z</time>
      </trkpt>
      <trkpt lat="39.8787210" lon="-4.0632750">
        <ele>452.4</ele>
        <time>2019-08-13T06:38:25Z</time>
      </trkpt>
      <trkpt lat="39.8787030" lon="-4.0633530">
        <ele>452.5</ele>
        <time>2019-08-13T06:38:26Z</time>
      </trkpt>
      <trkpt lat="39.8786870" lon="-4.0634340">
        <ele>452.6</ele>
        <time>2019-08-13T06:38:27Z</time>
      </trkpt>
      <trkpt lat="39.8786710" lon="-4.0635190">
        <ele>452.7</ele>
        <time>2019-08-13T06:38:28Z</time>
      </trkpt>
      <trkpt lat="39.8786580" lon="-4.0636050">
        <ele>452.8</ele>
        <time>2019-08-13T06:38:29Z</time>
      </trkpt>
      <trkpt lat="39.8786490" lon="-4.0636910">
        <ele>452.9</ele>
        <time>2019-08-13T06:38:30Z</time>
      </trkpt>
      <trkpt lat="39.8786420" lon="-4.0637750">
        <ele>453.0</ele>
        <time>2019-08-13T06:38:31Z</time>
      </trkpt>
      <trkpt lat="39.8786350" lon="-4.0638580">
        <ele>453.1</ele>
        <time>2019-08-13T06:38:32Z</time>
      </trkpt>
      <trkpt lat="39.8786300" lon="-4.0639380">
        <ele>453.1</ele>
        <time>2019-08-13T06:38:33Z</time>
      </trkpt>
      <trkpt lat="39.8786250" lon="-4.0640150">
        <ele>453.1</ele>
        <time>2019-08-13T06:38:34Z</time>
      </trkpt>
      <trkpt lat="39.8786200" lon="-4.0640930">
        <ele>453.2</ele>
        <time>2019-08-13T06:38:35Z</time>
      </trkpt>
      <trkpt lat="39.8786170" lon="-4.0641690">
        <ele>453.2</ele>
        <time>2019-08-13T06:38:36Z</time>
      </trkpt>
      <trkpt lat="39.8786110" lon="-4.0642410">
        <ele>453.2</ele>
        <time>2019-08-13T06:38:37Z</time>
      </trkpt>
      <trkpt lat="39.8786040" lon="-4.0643130">
        <ele>453.2</ele>
        <time>2019-08-13T06:38:38Z</time>
      </trkpt>
      <trkpt lat="39.8785950" lon="-4.0643830">
        <ele>453.3</ele>
        <time>2019-08-13T06:38:39Z</time>
      </trkpt>
      <trkpt lat="39.8785870" lon="-4.0644520">
        <ele>453.3</ele>
        <time>2019-08-13T06:38:40Z</time>
      </trkpt>
      <trkpt lat="39.8785770" lon="-4.0645180">
        <ele>453.3</ele>
        <time>2019-08-13T06:38:41Z</time>
      </trkpt>
      <trkpt lat="39.8785630" lon="-4.0645820">
        <ele>453.3</ele>
        <time>2019-08-13T06:38:42Z</time>
      </trkpt>
      <trkpt lat="39.8785480" lon="-4.0646460">
        <ele>453.4</ele>
        <time>2019-08-13T06:38:43Z</time>
      </trkpt>
      <trkpt lat="39.8785350" lon="-4.0647090">
        <ele>453.4</ele>
        <time>2019-08-13T06:38:44Z</time>
      </trkpt>
      <trkpt lat="39.8785250" lon="-4.0647700">
        <ele>453.5</ele>
        <time>2019-08-13T06:38:45Z</time>
      </trkpt>
      <trkpt lat="39.8785220" lon="-4.0648310">
        <ele>453.5</ele>
        <time>2019-08-13T06:38:46Z</time>
      </trkpt>
      <trkpt lat="39.8785310" lon="-4.0648900">
        <ele>453.8</ele>
        <time>2019-08-13T06:38:47Z</time>
      </trkpt>
      <trkpt lat="39.8785480" lon="-4.0649460">
        <ele>454.0</ele>
        <time>2019-08-13T06:38:48Z</time>
      </trkpt>
      <trkpt lat="39.8785640" lon="-4.0650020">
        <ele>454.3</ele>
        <time>2019-08-13T06:38:49Z</time>
      </trkpt>
      <trkpt lat="39.8785800" lon="-4.0650590">
        <ele>454.5</ele>
        <time>2019-08-13T06:38:50Z</time>
      </trkpt>
      <trkpt lat="39.8785910" lon="-4.0651180">
        <ele>454.7</ele>
        <time>2019-08-13T06:38:51Z</time>
      </trkpt>
      <trkpt lat="39.8785940" lon="-4.0651810">
        <ele>455.1</ele>
        <time>2019-08-13T06:38:52Z</time>
      </trkpt>
      <trkpt lat="39.8785870" lon="-4.0652420">
        <ele>454.9</ele>
        <time>2019-08-13T06:38:53Z</time>
      </trkpt>
      <trkpt lat="39.8785680" lon="-4.0652960">
        <ele>454.8</ele>
        <time>2019-08-13T06:38:54Z</time>
      </trkpt>
      <trkpt lat="39.8785380" lon="-4.0653390">
        <ele>454.6</ele>
        <time>2019-08-13T06:38:55Z</time>
      </trkpt>
      <trkpt lat="39.8784910" lon="-4.0653570">
        <ele>454.3</ele>
        <time>2019-08-13T06:38:56Z</time>
      </trkpt>
      <trkpt lat="39.8784420" lon="-4.0653670">
        <ele>454.1</ele>
        <time>2019-08-13T06:38:57Z</time>
      </trkpt>
      <trkpt lat="39.8783930" lon="-4.0653690">
        <ele>453.9</ele>
        <time>2019-08-13T06:38:58Z</time>
      </trkpt>
      <trkpt lat="39.8783470" lon="-4.0653670">
        <ele>453.7</ele>
        <time>2019-08-13T06:38:59Z</time>
      </trkpt>
      <trkpt lat="39.8783000" lon="-4.0653560">
        <ele>453.5</ele>
        <time>2019-08-13T06:39:00Z</time>
      </trkpt>
      <trkpt lat="39.8782510" lon="-4.0653480">
        <ele>453.3</ele>
        <time>2019-08-13T06:39:01Z</time>
      </trkpt>
      <trkpt lat="39.8781990" lon="-4.0653460">
        <ele>452.3</ele>
        <time>2019-08-13T06:39:02Z</time>
      </trkpt>
      <trkpt lat="39.8781470" lon="-4.0653520">
        <ele>452.1</ele>
        <time>2019-08-13T06:39:03Z</time>
      </trkpt>
      <trkpt lat="39.8781010" lon="-4.0653740">
        <ele>451.8</ele>
        <time>2019-08-13T06:39:04Z</time>
      </trkpt>
      <trkpt lat="39.8780580" lon="-4.0654120">
        <ele>451.5</ele>
        <time>2019-08-13T06:39:05Z</time>
      </trkpt>
      <trkpt lat="39.8780180" lon="-4.0654570">
        <ele>451.1</ele>
        <time>2019-08-13T06:39:06Z</time>
      </trkpt>
      <trkpt lat="39.8779790" lon="-4.0655100">
        <ele>450.8</ele>
        <time>2019-08-13T06:39:07Z</time>
      </trkpt>
      <trkpt lat="39.8779440" lon="-4.0655530">
        <ele>450.5</ele>
        <time>2019-08-13T06:39:08Z</time>
      </trkpt>
      <trkpt lat="39.8779080" lon="-4.0655950">
        <ele>450.3</ele>
        <time>2019-08-13T06:39:09Z</time>
      </trkpt>
      <trkpt lat="39.8778700" lon="-4.0656380">
        <ele>450.0</ele>
        <time>2019-08-13T06:39:10Z</time>
      </trkpt>
      <trkpt lat="39.8778350" lon="-4.0656870">
        <ele>449.8</ele>
        <time>2019-08-13T06:39:11Z</time>
      </trkpt>
      <trkpt lat="39.8778010" lon="-4.0657440">
        <ele>449.4</ele>
        <time>2019-08-13T06:39:12Z</time>
      </trkpt>
      <trkpt lat="39.8777680" lon="-4.0658030">
        <ele>449.0</ele>
        <time>2019-08-13T06:39:13Z</time>
      </trkpt>
      <trkpt lat="39.8777370" lon="-4.0658650">
        <ele>448.6</ele>
        <time>2019-08-13T06:39:14Z</time>
      </trkpt>
      <trkpt lat="39.8777040" lon="-4.0659290">
        <ele>448.3</ele>
        <time>2019-08-13T06:39:15Z</time>
      </trkpt>
      <trkpt lat="39.8776730" lon="-4.0659930">
        <ele>448.1</ele>
        <time>2019-08-13T06:39:16Z</time>
      </trkpt>
      <trkpt lat="39.8776460" lon="-4.0660590">
        <ele>447.9</ele>
        <time>2019-08-13T06:39:17Z</time>
      </trkpt>
      <trkpt lat="39.8776230" lon="-4.0661270">
        <ele>447.7</ele>
        <time>2019-08-13T06:39:18Z</time>
      </trkpt>
      <trkpt lat="39.8776030" lon="-4.0662010">
        <ele>447.6</ele>
        <time>2019-08-13T06:39:19Z</time>
      </trkpt>
      <trkpt lat="39.8775850" lon="-4.0662790">
        <ele>447.4</ele>
        <time>2019-08-13T06:39:20Z</time>
      </trkpt>
      <trkpt lat="39.8775690" lon="-4.0663570">
        <ele>447.3</ele>
        <time>2019-08-13T06:39:21Z</time>
      </trkpt>
      <trkpt lat="39.8775540" lon="-4.0664340">
        <ele>447.2</ele>
        <time>2019-08-13T06:39:22Z</time>
      </trkpt>
      <trkpt lat="39.8775370" lon="-4.0665110">
        <ele>447.0</ele>
        <time>2019-08-13T06:39:23Z</time>
      </trkpt>
      <trkpt lat="39.8775210" lon="-4.0665870">
        <ele>446.8</ele>
        <time>2019-08-13T06:39:24Z</time>
      </trkpt>
      <trkpt lat="39.8775060" lon="-4.0666630">
        <ele>446.6</ele>
        <time>2019-08-13T06:39:25Z</time>
      </trkpt>
      <trkpt lat="39.8774900" lon="-4.0667390">
        <ele>446.4</ele>
        <time>2019-08-13T06:39:26Z</time>
      </trkpt>
      <trkpt lat="39.8774730" lon="-4.0668160">
        <ele>446.3</ele>
        <time>2019-08-13T06:39:27Z</time>
      </trkpt>
      <trkpt lat="39.8774580" lon="-4.0668930">
        <ele>446.4</ele>
        <time>2019-08-13T06:39:28Z</time>
      </trkpt>
      <trkpt lat="39.8774410" lon="-4.0669690">
        <ele>446.4</ele>
        <time>2019-08-13T06:39:29Z</time>
      </trkpt>
      <trkpt lat="39.8774230" lon="-4.0670450">
        <ele>446.3</ele>
        <time>2019-08-13T06:39:30Z</time>
      </trkpt>
      <trkpt lat="39.8774030" lon="-4.0671210">
        <ele>446.3</ele>
        <time>2019-08-13T06:39:31Z</time>
      </trkpt>
      <trkpt lat="39.8773840" lon="-4.0671970">
        <ele>446.2</ele>
        <time>2019-08-13T06:39:32Z</time>
      </trkpt>
      <trkpt lat="39.8773670" lon="-4.0672750">
        <ele>446.1</ele>
        <time>2019-08-13T06:39:33Z</time>
      </trkpt>
      <trkpt lat="39.8773520" lon="-4.0673530">
        <ele>446.1</ele>
        <time>2019-08-13T06:39:34Z</time>
      </trkpt>
      <trkpt lat="39.8773360" lon="-4.0674310">
        <ele>446.3</ele>
        <time>2019-08-13T06:39:35Z</time>
      </trkpt>
      <trkpt lat="39.8773200" lon="-4.0675080">
        <ele>446.4</ele>
        <time>2019-08-13T06:39:36Z</time>
      </trkpt>
      <trkpt lat="39.8773020" lon="-4.0675880">
        <ele>446.6</ele>
        <time>2019-08-13T06:39:37Z</time>
      </trkpt>
      <trkpt lat="39.8772840" lon="-4.0676740">
        <ele>446.8</ele>
        <time>2019-08-13T06:39:38Z</time>
      </trkpt>
      <trkpt lat="39.8772660" lon="-4.0677540">
        <ele>447.0</ele>
        <time>2019-08-13T06:39:39Z</time>
      </trkpt>
      <trkpt lat="39.8772510" lon="-4.0678270">
        <ele>447.2</ele>
        <time>2019-08-13T06:39:40Z</time>
      </trkpt>
      <trkpt lat="39.8772350" lon="-4.0678980">
        <ele>447.5</ele>
        <time>2019-08-13T06:39:41Z</time>
      </trkpt>
      <trkpt lat="39.8772170" lon="-4.0679640">
        <ele>447.8</ele>
        <time>2019-08-13T06:39:42Z</time>
      </trkpt>
      <trkpt lat="39.8772000" lon="-4.0680190">
        <ele>448.1</ele>
        <time>2019-08-13T06:39:43Z</time>
      </trkpt>
      <trkpt lat="39.8771840" lon="-4.0680700">
        <ele>448.4</ele>
        <time>2019-08-13T06:39:44Z</time>
      </trkpt>
      <trkpt lat="39.8771710" lon="-4.0681270">
        <ele>448.7</ele>
        <time>2019-08-13T06:39:45Z</time>
      </trkpt>
      <trkpt lat="39.8771610" lon="-4.0681840">
        <ele>449.1</ele>
        <time>2019-08-13T06:39:46Z</time>
      </trkpt>
      <trkpt lat="39.8771510" lon="-4.0682390">
        <ele>449.6</ele>
        <time>2019-08-13T06:39:47Z</time>
      </trkpt>
      <trkpt lat="39.8771400" lon="-4.0682920">
        <ele>450.1</ele>
        <time>2019-08-13T06:39:48Z</time>
      </trkpt>
      <trkpt lat="39.8771310" lon="-4.0683370">
        <ele>450.5</ele>
        <time>2019-08-13T06:39:49Z</time>
      </trkpt>
      <trkpt lat="39.8771200" lon="-4.0683820">
        <ele>450.9</ele>
        <time>2019-08-13T06:39:50Z</time>
      </trkpt>
      <trkpt lat="39.8771060" lon="-4.0684300">
        <ele>451.4</ele>
        <time>2019-08-13T06:39:51Z</time>
      </trkpt>
      <trkpt lat="39.8770950" lon="-4.0684660">
        <ele>451.8</ele>
        <time>2019-08-13T06:39:52Z</time>
      </trkpt>
      <trkpt lat="39.8770860" lon="-4.0685030">
        <ele>452.1</ele>
        <time>2019-08-13T06:39:53Z</time>
      </trkpt>
      <trkpt lat="39.8770780" lon="-4.0685420">
        <ele>452.5</ele>
        <time>2019-08-13T06:39:54Z</time>
      </trkpt>
      <trkpt lat="39.8770660" lon="-4.0685760">
        <ele>452.8</ele>
        <time>2019-08-13T06:39:55Z</time>
      </trkpt>
      <trkpt lat="39.8770490" lon="-4.0686260">
        <ele>453.3</ele>
        <time>2019-08-13T06:39:57Z</time>
      </trkpt>
      <trkpt lat="39.8770400" lon="-4.0686670">
        <ele>453.7</ele>
        <time>2019-08-13T06:39:59Z</time>
      </trkpt>
      <trkpt lat="39.8770270" lon="-4.0687130">
        <ele>454.1</ele>
        <time>2019-08-13T06:40:01Z</time>
      </trkpt>
      <trkpt lat="39.8770140" lon="-4.0687540">
        <ele>454.5</ele>
        <time>2019-08-13T06:40:03Z</time>
      </trkpt>
      <trkpt lat="39.8770000" lon="-4.0688030">
        <ele>454.9</ele>
        <time>2019-08-13T06:40:05Z</time>
      </trkpt>
      <trkpt lat="39.8769860" lon="-4.0688530">
        <ele>455.4</ele>
        <time>2019-08-13T06:40:07Z</time>
      </trkpt>
      <trkpt lat="39.8769720" lon="-4.0689050">
        <ele>455.8</ele>
        <time>2019-08-13T06:40:09Z</time>
      </trkpt>
      <trkpt lat="39.8769590" lon="-4.0689580">
        <ele>456.3</ele>
        <time>2019-08-13T06:40:11Z</time>
      </trkpt>
      <trkpt lat="39.8769450" lon="-4.0690130">
        <ele>456.8</ele>
        <time>2019-08-13T06:40:13Z</time>
      </trkpt>
      <trkpt lat="39.8769300" lon="-4.0690680">
        <ele>457.3</ele>
        <time>2019-08-13T06:40:15Z</time>
      </trkpt>
      <trkpt lat="39.8769180" lon="-4.0691240">
        <ele>457.7</ele>
        <time>2019-08-13T06:40:17Z</time>
      </trkpt>
      <trkpt lat="39.8769070" lon="-4.0691780">
        <ele>458.2</ele>
        <time>2019-08-13T06:40:19Z</time>
      </trkpt>
      <trkpt lat="39.8768980" lon="-4.0692280">
        <ele>458.6</ele>
        <time>2019-08-13T06:40:21Z</time>
      </trkpt>
      <trkpt lat="39.8768890" lon="-4.0692800">
        <ele>459.0</ele>
        <time>2019-08-13T06:40:23Z</time>
      </trkpt>
      <trkpt lat="39.8768830" lon="-4.0693350">
        <ele>459.4</ele>
        <time>2019-08-13T06:40:25Z</time>
      </trkpt>
      <trkpt lat="39.8768750" lon="-4.0693890">
        <ele>459.9</ele>
        <time>2019-08-13T06:40:27Z</time>
      </trkpt>
      <trkpt lat="39.8768660" lon="-4.0694430">
        <ele>460.3</ele>
        <time>2019-08-13T06:40:29Z</time>
      </trkpt>
      <trkpt lat="39.8768600" lon="-4.0694950">
        <ele>460.7</ele>
        <time>2019-08-13T06:40:31Z</time>
      </trkpt>
      <trkpt lat="39.8768530" lon="-4.0695420">
        <ele>461.1</ele>
        <time>2019-08-13T06:40:33Z</time>
      </trkpt>
      <trkpt lat="39.8768470" lon="-4.0695910">
        <ele>461.5</ele>
        <time>2019-08-13T06:40:35Z</time>
      </trkpt>
      <trkpt lat="39.8768400" lon="-4.0696410">
        <ele>461.9</ele>
        <time>2019-08-13T06:40:37Z</time>
      </trkpt>
      <trkpt lat="39.8768300" lon="-4.0696900">
        <ele>462.3</ele>
        <time>2019-08-13T06:40:39Z</time>
      </trkpt>
      <trkpt lat="39.8768230" lon="-4.0697410">
        <ele>462.7</ele>
        <time>2019-08-13T06:40:41Z</time>
      </trkpt>
      <trkpt lat="39.8768140" lon="-4.0697930">
        <ele>463.1</ele>
        <time>2019-08-13T06:40:43Z</time>
      </trkpt>
      <trkpt lat="39.8768070" lon="-4.0698460">
        <ele>463.4</ele>
        <time>2019-08-13T06:40:45Z</time>
      </trkpt>
      <trkpt lat="39.8767980" lon="-4.0699030">
        <ele>463.7</ele>
        <time>2019-08-13T06:40:47Z</time>
      </trkpt>
      <trkpt lat="39.8767890" lon="-4.0699580">
        <ele>464.0</ele>
        <time>2019-08-13T06:40:49Z</time>
      </trkpt>
      <trkpt lat="39.8767800" lon="-4.0700120">
        <ele>464.4</ele>
        <time>2019-08-13T06:40:51Z</time>
      </trkpt>
      <trkpt lat="39.8767730" lon="-4.0700680">
        <ele>464.6</ele>
        <time>2019-08-13T06:40:53Z</time>
      </trkpt>
      <trkpt lat="39.8767650" lon="-4.0701220">
        <ele>464.9</ele>
        <time>2019-08-13T06:40:55Z</time>
      </trkpt>
      <trkpt lat="39.8767580" lon="-4.0701750">
        <ele>465.2</ele>
        <time>2019-08-13T06:40:57Z</time>
      </trkpt>
      <trkpt lat="39.8767530" lon="-4.0702290">
        <ele>465.4</ele>
        <time>2019-08-13T06:40:59Z</time>
      </trkpt>
      <trkpt lat="39.8767490" lon="-4.0702850">
        <ele>465.7</ele>
        <time>2019-08-13T06:41:01Z</time>
      </trkpt>
      <trkpt lat="39.8767450" lon="-4.0703400">
        <ele>465.9</ele>
        <time>2019-08-13T06:41:03Z</time>
      </trkpt>
      <trkpt lat="39.8767440" lon="-4.0703950">
        <ele>466.2</ele>
        <time>2019-08-13T06:41:05Z</time>
      </trkpt>
      <trkpt lat="39.8767410" lon="-4.0704510">
        <ele>466.5</ele>
        <time>2019-08-13T06:41:07Z</time>
      </trkpt>
      <trkpt lat="39.8767380" lon="-4.0705080">
        <ele>466.7</ele>
        <time>2019-08-13T06:41:09Z</time>
      </trkpt>
      <trkpt lat="39.8767360" lon="-4.0705650">
        <ele>467.0</ele>
        <time>2019-08-13T06:41:11Z</time>
      </trkpt>
      <trkpt lat="39.8767310" lon="-4.0706250">
        <ele>467.3</ele>
        <time>2019-08-13T06:41:13Z</time>
      </trkpt>
      <trkpt lat="39.8767250" lon="-4.0706840">
        <ele>467.5</ele>
        <time>2019-08-13T06:41:15Z</time>
      </trkpt>
      <trkpt lat="39.8767180" lon="-4.0707460">
        <ele>467.8</ele>
        <time>2019-08-13T06:41:17Z</time>
      </trkpt>
      <trkpt lat="39.8767140" lon="-4.0708090">
        <ele>468.1</ele>
        <time>2019-08-13T06:41:19Z</time>
      </trkpt>
      <trkpt lat="39.8767070" lon="-4.0708690">
        <ele>468.3</ele>
        <time>2019-08-13T06:41:21Z</time>
      </trkpt>
      <trkpt lat="39.8767010" lon="-4.0709350">
        <ele>468.6</ele>
        <time>2019-08-13T06:41:23Z</time>
      </trkpt>
      <trkpt lat="39.8766900" lon="-4.0709990">
        <ele>468.9</ele>
        <time>2019-08-13T06:41:25Z</time>
      </trkpt>
      <trkpt lat="39.8766790" lon="-4.0710550">
        <ele>469.1</ele>
        <time>2019-08-13T06:41:27Z</time>
      </trkpt>
      <trkpt lat="39.8766700" lon="-4.0711060">
        <ele>469.2</ele>
        <time>2019-08-13T06:41:29Z</time>
      </trkpt>
      <trkpt lat="39.8766680" lon="-4.0711580">
        <ele>469.4</ele>
        <time>2019-08-13T06:41:31Z</time>
      </trkpt>
      <trkpt lat="39.8766620" lon="-4.0712200">
        <ele>469.5</ele>
        <time>2019-08-13T06:41:33Z</time>
      </trkpt>
      <trkpt lat="39.8766510" lon="-4.0712900">
        <ele>469.7</ele>
        <time>2019-08-13T06:41:35Z</time>
      </trkpt>
      <trkpt lat="39.8766450" lon="-4.0713280">
        <ele>469.8</ele>
        <time>2019-08-13T06:41:36Z</time>
      </trkpt>
      <trkpt lat="39.8766400" lon="-4.0713670">
        <ele>470.0</ele>
        <time>2019-08-13T06:41:37Z</time>
      </trkpt>
      <trkpt lat="39.8766340" lon="-4.0714050">
        <ele>470.1</ele>
        <time>2019-08-13T06:41:38Z</time>
      </trkpt>
      <trkpt lat="39.8766270" lon="-4.0714410">
        <ele>470.2</ele>
        <time>2019-08-13T06:41:39Z</time>
      </trkpt>
      <trkpt lat="39.8766200" lon="-4.0714790">
        <ele>470.3</ele>
        <time>2019-08-13T06:41:40Z</time>
      </trkpt>
      <trkpt lat="39.8766120" lon="-4.0715190">
        <ele>470.4</ele>
        <time>2019-08-13T06:41:41Z</time>
      </trkpt>
      <trkpt lat="39.8766040" lon="-4.0715600">
        <ele>470.5</ele>
        <time>2019-08-13T06:41:42Z</time>
      </trkpt>
      <trkpt lat="39.8765950" lon="-4.0715990">
        <ele>470.6</ele>
        <time>2019-08-13T06:41:43Z</time>
      </trkpt>
      <trkpt lat="39.8765840" lon="-4.0716380">
        <ele>470.5</ele>
        <time>2019-08-13T06:41:44Z</time>
      </trkpt>
      <trkpt lat="39.8765750" lon="-4.0716800">
        <ele>470.5</ele>
        <time>2019-08-13T06:41:45Z</time>
      </trkpt>
      <trkpt lat="39.8765630" lon="-4.0717220">
        <ele>470.4</ele>
        <time>2019-08-13T06:41:46Z</time>
      </trkpt>
      <trkpt lat="39.8765480" lon="-4.0717620">
        <ele>470.4</ele>
        <time>2019-08-13T06:41:47Z</time>
      </trkpt>
      <trkpt lat="39.8765330" lon="-4.0717990">
        <ele>470.3</ele>
        <time>2019-08-13T06:41:48Z</time>
      </trkpt>
      <trkpt lat="39.8765160" lon="-4.0718350">
        <ele>470.3</ele>
        <time>2019-08-13T06:41:49Z</time>
      </trkpt>
      <trkpt lat="39.8765000" lon="-4.0718710">
        <ele>470.3</ele>
        <time>2019-08-13T06:41:50Z</time>
      </trkpt>
      <trkpt lat="39.8764860" lon="-4.0719080">
        <ele>470.2</ele>
        <time>2019-08-13T06:41:51Z</time>
      </trkpt>
      <trkpt lat="39.8764660" lon="-4.0719450">
        <ele>470.2</ele>
        <time>2019-08-13T06:41:52Z</time>
      </trkpt>
      <trkpt lat="39.8764420" lon="-4.0719850">
        <ele>470.1</ele>
        <time>2019-08-13T06:41:53Z</time>
      </trkpt>
      <trkpt lat="39.8764180" lon="-4.0720180">
        <ele>470.1</ele>
        <time>2019-08-13T06:41:54Z</time>
      </trkpt>
      <trkpt lat="39.8763970" lon="-4.0720490">
        <ele>470.0</ele>
        <time>2019-08-13T06:41:55Z</time>
      </trkpt>
      <trkpt lat="39.8763750" lon="-4.0720770">
        <ele>470.0</ele>
        <time>2019-08-13T06:41:56Z</time>
      </trkpt>
      <trkpt lat="39.8763560" lon="-4.0721050">
        <ele>469.9</ele>
        <time>2019-08-13T06:41:57Z</time>
      </trkpt>
      <trkpt lat="39.8763380" lon="-4.0721320">
        <ele>469.9</ele>
        <time>2019-08-13T06:41:58Z</time>
      </trkpt>
      <trkpt lat="39.8762970" lon="-4.0721780">
        <ele>469.8</ele>
        <time>2019-08-13T06:42:00Z</time>
      </trkpt>
      <trkpt lat="39.8762720" lon="-4.0722080">
        <ele>469.8</ele>
        <time>2019-08-13T06:42:01Z</time>
      </trkpt>
      <trkpt lat="39.8762490" lon="-4.0722430">
        <ele>469.8</ele>
        <time>2019-08-13T06:42:02Z</time>
      </trkpt>
      <trkpt lat="39.8762200" lon="-4.0722810">
        <ele>469.7</ele>
        <time>2019-08-13T06:42:03Z</time>
      </trkpt>
      <trkpt lat="39.8761940" lon="-4.0723130">
        <ele>469.6</ele>
        <time>2019-08-13T06:42:04Z</time>
      </trkpt>
      <trkpt lat="39.8761700" lon="-4.0723350">
        <ele>469.6</ele>
        <time>2019-08-13T06:42:05Z</time>
      </trkpt>
      <trkpt lat="39.8761440" lon="-4.0723600">
        <ele>469.6</ele>
        <time>2019-08-13T06:42:06Z</time>
      </trkpt>
      <trkpt lat="39.8761220" lon="-4.0723910">
        <ele>469.5</ele>
        <time>2019-08-13T06:42:07Z</time>
      </trkpt>
      <trkpt lat="39.8760990" lon="-4.0724230">
        <ele>469.5</ele>
        <time>2019-08-13T06:42:08Z</time>
      </trkpt>
      <trkpt lat="39.8760770" lon="-4.0724550">
        <ele>469.4</ele>
        <time>2019-08-13T06:42:09Z</time>
      </trkpt>
      <trkpt lat="39.8760500" lon="-4.0724890">
        <ele>469.4</ele>
        <time>2019-08-13T06:42:10Z</time>
      </trkpt>
      <trkpt lat="39.8760300" lon="-4.0725260">
        <ele>469.3</ele>
        <time>2019-08-13T06:42:11Z</time>
      </trkpt>
      <trkpt lat="39.8760120" lon="-4.0725660">
        <ele>469.3</ele>
        <time>2019-08-13T06:42:12Z</time>
      </trkpt>
      <trkpt lat="39.8759970" lon="-4.0726070">
        <ele>469.2</ele>
        <time>2019-08-13T06:42:13Z</time>
      </trkpt>
      <trkpt lat="39.8759810" lon="-4.0726510">
        <ele>469.2</ele>
        <time>2019-08-13T06:42:14Z</time>
      </trkpt>
      <trkpt lat="39.8759660" lon="-4.0726970">
        <ele>469.1</ele>
        <time>2019-08-13T06:42:15Z</time>
      </trkpt>
      <trkpt lat="39.8759600" lon="-4.0727460">
        <ele>469.1</ele>
        <time>2019-08-13T06:42:16Z</time>
      </trkpt>
      <trkpt lat="39.8759650" lon="-4.0727950">
        <ele>469.1</ele>
        <time>2019-08-13T06:42:17Z</time>
      </trkpt>
      <trkpt lat="39.8759760" lon="-4.0728400">
        <ele>469.3</ele>
        <time>2019-08-13T06:42:18Z</time>
      </trkpt>
      <trkpt lat="39.8759900" lon="-4.0728860">
        <ele>469.5</ele>
        <time>2019-08-13T06:42:19Z</time>
      </trkpt>
      <trkpt lat="39.8760070" lon="-4.0729310">
        <ele>469.6</ele>
        <time>2019-08-13T06:42:20Z</time>
      </trkpt>
      <trkpt lat="39.8760240" lon="-4.0729760">
        <ele>469.8</ele>
        <time>2019-08-13T06:42:21Z</time>
      </trkpt>
      <trkpt lat="39.8760390" lon="-4.0730230">
        <ele>470.0</ele>
        <time>2019-08-13T06:42:22Z</time>
      </trkpt>
      <trkpt lat="39.8760510" lon="-4.0730720">
        <ele>470.2</ele>
        <time>2019-08-13T06:42:23Z</time>
      </trkpt>
      <trkpt lat="39.8760600" lon="-4.0731210">
        <ele>470.3</ele>
        <time>2019-08-13T06:42:24Z</time>
      </trkpt>
      <trkpt lat="39.8760630" lon="-4.0731700">
        <ele>470.5</ele>
        <time>2019-08-13T06:42:25Z</time>
      </trkpt>
      <trkpt lat="39.8760610" lon="-4.0732150">
        <ele>470.7</ele>
        <time>2019-08-13T06:42:26Z</time>
      </trkpt>
      <trkpt lat="39.8760540" lon="-4.0732570">
        <ele>470.8</ele>
        <time>2019-08-13T06:42:27Z</time>
      </trkpt>
      <trkpt lat="39.8760460" lon="-4.0732950">
        <ele>471.0</ele>
        <time>2019-08-13T06:42:28Z</time>
      </trkpt>
      <trkpt lat="39.8760240" lon="-4.0733590">
        <ele>471.0</ele>
        <time>2019-08-13T06:42:30Z</time>
      </trkpt>
      <trkpt lat="39.8760080" lon="-4.0733900">
        <ele>470.9</ele>
        <time>2019-08-13T06:42:31Z</time>
      </trkpt>
      <trkpt lat="39.8759860" lon="-4.0734210">
        <ele>470.8</ele>
        <time>2019-08-13T06:42:32Z</time>
      </trkpt>
      <trkpt lat="39.8759600" lon="-4.0734520">
        <ele>470.7</ele>
        <time>2019-08-13T06:42:33Z</time>
      </trkpt>
      <trkpt lat="39.8759300" lon="-4.0734800">
        <ele>470.6</ele>
        <time>2019-08-13T06:42:34Z</time>
      </trkpt>
      <trkpt lat="39.8758970" lon="-4.0735020">
        <ele>470.5</ele>
        <time>2019-08-13T06:42:35Z</time>
      </trkpt>
      <trkpt lat="39.8758650" lon="-4.0735190">
        <ele>470.4</ele>
        <time>2019-08-13T06:42:36Z</time>
      </trkpt>
      <trkpt lat="39.8758310" lon="-4.0735340">
        <ele>470.1</ele>
        <time>2019-08-13T06:42:37Z</time>
      </trkpt>
      <trkpt lat="39.8757990" lon="-4.0735360">
        <ele>469.9</ele>
        <time>2019-08-13T06:42:38Z</time>
      </trkpt>
      <trkpt lat="39.8757690" lon="-4.0735350">
        <ele>469.7</ele>
        <time>2019-08-13T06:42:39Z</time>
      </trkpt>
      <trkpt lat="39.8757380" lon="-4.0735300">
        <ele>469.4</ele>
        <time>2019-08-13T06:42:40Z</time>
      </trkpt>
      <trkpt lat="39.8757080" lon="-4.0735230">
        <ele>469.2</ele>
        <time>2019-08-13T06:42:41Z</time>
      </trkpt>
      <trkpt lat="39.8756800" lon="-4.0735100">
        <ele>469.0</ele>
        <time>2019-08-13T06:42:42Z</time>
      </trkpt>
      <trkpt lat="39.8756540" lon="-4.0734950">
        <ele>468.8</ele>
        <time>2019-08-13T06:42:43Z</time>
      </trkpt>
      <trkpt lat="39.8756280" lon="-4.0734750">
        <ele>468.6</ele>
        <time>2019-08-13T06:42:44Z</time>
      </trkpt>
      <trkpt lat="39.8755960" lon="-4.0734470">
        <ele>468.3</ele>
        <time>2019-08-13T06:42:45Z</time>
      </trkpt>
      <trkpt lat="39.8755660" lon="-4.0734180">
        <ele>467.9</ele>
        <time>2019-08-13T06:42:46Z</time>
      </trkpt>
      <trkpt lat="39.8755410" lon="-4.0733890">
        <ele>468.0</ele>
        <time>2019-08-13T06:42:47Z</time>
      </trkpt>
      <trkpt lat="39.8755220" lon="-4.0733570">
        <ele>468.0</ele>
        <time>2019-08-13T06:42:48Z</time>
      </trkpt>
      <trkpt lat="39.8755060" lon="-4.0733210">
        <ele>468.1</ele>
        <time>2019-08-13T06:42:49Z</time>
      </trkpt>
      <trkpt lat="39.8754930" lon="-4.0732840">
        <ele>468.1</ele>
        <time>2019-08-13T06:42:50Z</time>
      </trkpt>
      <trkpt lat="39.8754860" lon="-4.0732430">
        <ele>468.2</ele>
        <time>2019-08-13T06:42:51Z</time>
      </trkpt>
      <trkpt lat="39.8754820" lon="-4.0732000">
        <ele>468.2</ele>
        <time>2019-08-13T06:42:52Z</time>
      </trkpt>
      <trkpt lat="39.8754810" lon="-4.0731550">
        <ele>468.3</ele>
        <time>2019-08-13T06:42:53Z</time>
      </trkpt>
      <trkpt lat="39.8754830" lon="-4.0731060">
        <ele>468.3</ele>
        <time>2019-08-13T06:42:54Z</time>
      </trkpt>
      <trkpt lat="39.8754890" lon="-4.0730580">
        <ele>468.4</ele>
        <time>2019-08-13T06:42:55Z</time>
      </trkpt>
      <trkpt lat="39.8754970" lon="-4.0730150">
        <ele>468.4</ele>
        <time>2019-08-13T06:42:56Z</time>
      </trkpt>
      <trkpt lat="39.8755130" lon="-4.0729710">
        <ele>468.5</ele>
        <time>2019-08-13T06:42:57Z</time>
      </trkpt>
      <trkpt lat="39.8755360" lon="-4.0729270">
        <ele>468.5</ele>
        <time>2019-08-13T06:42:58Z</time>
      </trkpt>
      <trkpt lat="39.8755640" lon="-4.0728820">
        <ele>468.6</ele>
        <time>2019-08-13T06:42:59Z</time>
      </trkpt>
      <trkpt lat="39.8755990" lon="-4.0728420">
        <ele>468.6</ele>
        <time>2019-08-13T06:43:00Z</time>
      </trkpt>
      <trkpt lat="39.8756390" lon="-4.0728100">
        <ele>468.7</ele>
        <time>2019-08-13T06:43:01Z</time>
      </trkpt>
      <trkpt lat="39.8756810" lon="-4.0727830">
        <ele>468.7</ele>
        <time>2019-08-13T06:43:02Z</time>
      </trkpt>
      <trkpt lat="39.8757250" lon="-4.0727600">
        <ele>468.8</ele>
        <time>2019-08-13T06:43:03Z</time>
      </trkpt>
      <trkpt lat="39.8757670" lon="-4.0727410">
        <ele>468.8</ele>
        <time>2019-08-13T06:43:04Z</time>
      </trkpt>
      <trkpt lat="39.8758070" lon="-4.0727220">
        <ele>468.9</ele>
        <time>2019-08-13T06:43:05Z</time>
      </trkpt>
      <trkpt lat="39.8758430" lon="-4.0726970">
        <ele>469.1</ele>
        <time>2019-08-13T06:43:06Z</time>
      </trkpt>
      <trkpt lat="39.8758740" lon="-4.0726650">
        <ele>469.1</ele>
        <time>2019-08-13T06:43:07Z</time>
      </trkpt>
      <trkpt lat="39.8759010" lon="-4.0726300">
        <ele>469.2</ele>
        <time>2019-08-13T06:43:08Z</time>
      </trkpt>
      <trkpt lat="39.8759270" lon="-4.0725920">
        <ele>469.2</ele>
        <time>2019-08-13T06:43:09Z</time>
      </trkpt>
      <trkpt lat="39.8759520" lon="-4.0725510">
        <ele>469.3</ele>
        <time>2019-08-13T06:43:10Z</time>
      </trkpt>
      <trkpt lat="39.8759790" lon="-4.0725080">
        <ele>469.3</ele>
        <time>2019-08-13T06:43:11Z</time>
      </trkpt>
      <trkpt lat="39.8760050" lon="-4.0724670">
        <ele>469.4</ele>
        <time>2019-08-13T06:43:12Z</time>
      </trkpt>
      <trkpt lat="39.8760320" lon="-4.0724220">
        <ele>469.4</ele>
        <time>2019-08-13T06:43:13Z</time>
      </trkpt>
      <trkpt lat="39.8760590" lon="-4.0723790">
        <ele>469.5</ele>
        <time>2019-08-13T06:43:14Z</time>
      </trkpt>
      <trkpt lat="39.8760860" lon="-4.0723390">
        <ele>469.6</ele>
        <time>2019-08-13T06:43:15Z</time>
      </trkpt>
      <trkpt lat="39.8761130" lon="-4.0723030">
        <ele>469.6</ele>
        <time>2019-08-13T06:43:16Z</time>
      </trkpt>
      <trkpt lat="39.8761400" lon="-4.0722680">
        <ele>469.7</ele>
        <time>2019-08-13T06:43:17Z</time>
      </trkpt>
      <trkpt lat="39.8761670" lon="-4.0722330">
        <ele>469.7</ele>
        <time>2019-08-13T06:43:18Z</time>
      </trkpt>
      <trkpt lat="39.8761930" lon="-4.0721980">
        <ele>469.8</ele>
        <time>2019-08-13T06:43:19Z</time>
      </trkpt>
      <trkpt lat="39.8762180" lon="-4.0721650">
        <ele>469.8</ele>
        <time>2019-08-13T06:43:20Z</time>
      </trkpt>
      <trkpt lat="39.8762450" lon="-4.0721320">
        <ele>469.9</ele>
        <time>2019-08-13T06:43:21Z</time>
      </trkpt>
      <trkpt lat="39.8762720" lon="-4.0720990">
        <ele>469.9</ele>
        <time>2019-08-13T06:43:22Z</time>
      </trkpt>
      <trkpt lat="39.8763000" lon="-4.0720650">
        <ele>470.0</ele>
        <time>2019-08-13T06:43:23Z</time>
      </trkpt>
      <trkpt lat="39.8763270" lon="-4.0720300">
        <ele>470.0</ele>
        <time>2019-08-13T06:43:24Z</time>
      </trkpt>
      <trkpt lat="39.8763540" lon="-4.0719910">
        <ele>470.1</ele>
        <time>2019-08-13T06:43:25Z</time>
      </trkpt>
      <trkpt lat="39.8763810" lon="-4.0719480">
        <ele>470.1</ele>
        <time>2019-08-13T06:43:26Z</time>
      </trkpt>
      <trkpt lat="39.8764080" lon="-4.0719040">
        <ele>470.2</ele>
        <time>2019-08-13T06:43:27Z</time>
      </trkpt>
      <trkpt lat="39.8764350" lon="-4.0718580">
        <ele>470.2</ele>
        <time>2019-08-13T06:43:28Z</time>
      </trkpt>
      <trkpt lat="39.8764620" lon="-4.0718130">
        <ele>470.3</ele>
        <time>2019-08-13T06:43:29Z</time>
      </trkpt>
      <trkpt lat="39.8764860" lon="-4.0717680">
        <ele>470.4</ele>
        <time>2019-08-13T06:43:30Z</time>
      </trkpt>
      <trkpt lat="39.8765060" lon="-4.0717260">
        <ele>470.4</ele>
        <time>2019-08-13T06:43:31Z</time>
      </trkpt>
      <trkpt lat="39.8765210" lon="-4.0716840">
        <ele>470.5</ele>
        <time>2019-08-13T06:43:32Z</time>
      </trkpt>
      <trkpt lat="39.8765250" lon="-4.0716450">
        <ele>470.4</ele>
        <time>2019-08-13T06:43:33Z</time>
      </trkpt>
      <trkpt lat="39.8765130" lon="-4.0716130">
        <ele>470.4</ele>
        <time>2019-08-13T06:43:34Z</time>
      </trkpt>
      <trkpt lat="39.8764700" lon="-4.0715960">
        <ele>470.4</ele>
        <time>2019-08-13T06:43:36Z</time>
      </trkpt>
      <trkpt lat="39.8764330" lon="-4.0716160">
        <ele>470.3</ele>
        <time>2019-08-13T06:43:38Z</time>
      </trkpt>
      <trkpt lat="39.8764010" lon="-4.0716360">
        <ele>470.3</ele>
        <time>2019-08-13T06:43:40Z</time>
      </trkpt>
      <trkpt lat="39.8763730" lon="-4.0716290">
        <ele>470.3</ele>
        <time>2019-08-13T06:43:42Z</time>
      </trkpt>
      <trkpt lat="39.8763640" lon="-4.0715970">
        <ele>470.2</ele>
        <time>2019-08-13T06:43:44Z</time>
      </trkpt>
      <trkpt lat="39.8763810" lon="-4.0715630">
        <ele>470.2</ele>
        <time>2019-08-13T06:43:52Z</time>
      </trkpt>
      <trkpt lat="39.8764200" lon="-4.0715510">
        <ele>470.2</ele>
        <time>2019-08-13T06:43:54Z</time>
      </trkpt>
      <trkpt lat="39.8764650" lon="-4.0715780">
        <ele>470.1</ele>
        <time>2019-08-13T06:43:56Z</time>
      </trkpt>
      <trkpt lat="39.8764870" lon="-4.0715990">
        <ele>470.1</ele>
        <time>2019-08-13T06:43:57Z</time>
      </trkpt>
      <trkpt lat="39.8765050" lon="-4.0716270">
        <ele>470.1</ele>
        <time>2019-08-13T06:43:58Z</time>
      </trkpt>
      <trkpt lat="39.8765140" lon="-4.0716640">
        <ele>470.0</ele>
        <time>2019-08-13T06:43:59Z</time>
      </trkpt>
      <trkpt lat="39.8765080" lon="-4.0717040">
        <ele>470.0</ele>
        <time>2019-08-13T06:44:00Z</time>
      </trkpt>
      <trkpt lat="39.8764920" lon="-4.0717430">
        <ele>470.0</ele>
        <time>2019-08-13T06:44:01Z</time>
      </trkpt>
      <trkpt lat="39.8764700" lon="-4.0717830">
        <ele>469.9</ele>
        <time>2019-08-13T06:44:02Z</time>
      </trkpt>
      <trkpt lat="39.8764470" lon="-4.0718230">
        <ele>469.9</ele>
        <time>2019-08-13T06:44:03Z</time>
      </trkpt>
      <trkpt lat="39.8764240" lon="-4.0718650">
        <ele>469.9</ele>
        <time>2019-08-13T06:44:04Z</time>
      </trkpt>
      <trkpt lat="39.8764020" lon="-4.0719050">
        <ele>469.8</ele>
        <time>2019-08-13T06:44:05Z</time>
      </trkpt>
      <trkpt lat="39.8763790" lon="-4.0719420">
        <ele>469.8</ele>
        <time>2019-08-13T06:44:06Z</time>
      </trkpt>
      <trkpt lat="39.8763590" lon="-4.0719720">
        <ele>469.8</ele>
        <time>2019-08-13T06:44:07Z</time>
      </trkpt>
      <trkpt lat="39.8763330" lon="-4.0720060">
        <ele>469.7</ele>
        <time>2019-08-13T06:44:09Z</time>
      </trkpt>
      <trkpt lat="39.8762600" lon="-4.0720870">
        <ele>469.6</ele>
        <time>2019-08-13T06:45:40Z</time>
      </trkpt>
      <trkpt lat="39.8762370" lon="-4.0721240">
        <ele>469.6</ele>
        <time>2019-08-13T06:45:42Z</time>
      </trkpt>
      <trkpt lat="39.8762080" lon="-4.0721690">
        <ele>469.6</ele>
        <time>2019-08-13T06:45:44Z</time>
      </trkpt>
      <trkpt lat="39.8761780" lon="-4.0722230">
        <ele>469.5</ele>
        <time>2019-08-13T06:45:46Z</time>
      </trkpt>
      <trkpt lat="39.8761460" lon="-4.0722820">
        <ele>469.5</ele>
        <time>2019-08-13T06:45:48Z</time>
      </trkpt>
      <trkpt lat="39.8761290" lon="-4.0723150">
        <ele>469.4</ele>
        <time>2019-08-13T06:45:49Z</time>
      </trkpt>
      <trkpt lat="39.8761130" lon="-4.0723520">
        <ele>469.4</ele>
        <time>2019-08-13T06:45:50Z</time>
      </trkpt>
      <trkpt lat="39.8760970" lon="-4.0723920">
        <ele>469.4</ele>
        <time>2019-08-13T06:45:51Z</time>
      </trkpt>
      <trkpt lat="39.8760800" lon="-4.0724300">
        <ele>469.3</ele>
        <time>2019-08-13T06:45:52Z</time>
      </trkpt>
      <trkpt lat="39.8760630" lon="-4.0724660">
        <ele>469.3</ele>
        <time>2019-08-13T06:45:53Z</time>
      </trkpt>
      <trkpt lat="39.8760450" lon="-4.0725010">
        <ele>469.3</ele>
        <time>2019-08-13T06:45:54Z</time>
      </trkpt>
      <trkpt lat="39.8760270" lon="-4.0725380">
        <ele>469.2</ele>
        <time>2019-08-13T06:45:55Z</time>
      </trkpt>
      <trkpt lat="39.8760120" lon="-4.0725750">
        <ele>469.2</ele>
        <time>2019-08-13T06:45:56Z</time>
      </trkpt>
      <trkpt lat="39.8759970" lon="-4.0726150">
        <ele>469.2</ele>
        <time>2019-08-13T06:45:57Z</time>
      </trkpt>
      <trkpt lat="39.8759830" lon="-4.0726570">
        <ele>469.1</ele>
        <time>2019-08-13T06:45:58Z</time>
      </trkpt>
      <trkpt lat="39.8759730" lon="-4.0727000">
        <ele>469.1</ele>
        <time>2019-08-13T06:45:59Z</time>
      </trkpt>
      <trkpt lat="39.8759670" lon="-4.0727480">
        <ele>469.1</ele>
        <time>2019-08-13T06:46:00Z</time>
      </trkpt>
      <trkpt lat="39.8759680" lon="-4.0727990">
        <ele>469.1</ele>
        <time>2019-08-13T06:46:01Z</time>
      </trkpt>
      <trkpt lat="39.8759770" lon="-4.0728520">
        <ele>469.3</ele>
        <time>2019-08-13T06:46:02Z</time>
      </trkpt>
      <trkpt lat="39.8759910" lon="-4.0729050">
        <ele>469.5</ele>
        <time>2019-08-13T06:46:03Z</time>
      </trkpt>
      <trkpt lat="39.8760090" lon="-4.0729600">
        <ele>469.7</ele>
        <time>2019-08-13T06:46:04Z</time>
      </trkpt>
      <trkpt lat="39.8760270" lon="-4.0730160">
        <ele>470.0</ele>
        <time>2019-08-13T06:46:05Z</time>
      </trkpt>
      <trkpt lat="39.8760430" lon="-4.0730750">
        <ele>470.2</ele>
        <time>2019-08-13T06:46:06Z</time>
      </trkpt>
      <trkpt lat="39.8760530" lon="-4.0731370">
        <ele>470.4</ele>
        <time>2019-08-13T06:46:07Z</time>
      </trkpt>
      <trkpt lat="39.8760560" lon="-4.0732010">
        <ele>470.6</ele>
        <time>2019-08-13T06:46:08Z</time>
      </trkpt>
      <trkpt lat="39.8760510" lon="-4.0732630">
        <ele>470.8</ele>
        <time>2019-08-13T06:46:09Z</time>
      </trkpt>
      <trkpt lat="39.8760410" lon="-4.0733180">
        <ele>471.0</ele>
        <time>2019-08-13T06:46:10Z</time>
      </trkpt>
      <trkpt lat="39.8760280" lon="-4.0733620">
        <ele>471.0</ele>
        <time>2019-08-13T06:46:11Z</time>
      </trkpt>
      <trkpt lat="39.8760140" lon="-4.0733970">
        <ele>470.9</ele>
        <time>2019-08-13T06:46:12Z</time>
      </trkpt>
      <trkpt lat="39.8759930" lon="-4.0734320">
        <ele>470.8</ele>
        <time>2019-08-13T06:46:13Z</time>
      </trkpt>
      <trkpt lat="39.8759640" lon="-4.0734640">
        <ele>470.7</ele>
        <time>2019-08-13T06:46:14Z</time>
      </trkpt>
      <trkpt lat="39.8759270" lon="-4.0734900">
        <ele>470.6</ele>
        <time>2019-08-13T06:46:15Z</time>
      </trkpt>
      <trkpt lat="39.8758880" lon="-4.0735100">
        <ele>470.4</ele>
        <time>2019-08-13T06:46:16Z</time>
      </trkpt>
      <trkpt lat="39.8758450" lon="-4.0735260">
        <ele>470.3</ele>
        <time>2019-08-13T06:46:17Z</time>
      </trkpt>
      <trkpt lat="39.8758010" lon="-4.0735340">
        <ele>470.1</ele>
        <time>2019-08-13T06:46:18Z</time>
      </trkpt>
      <trkpt lat="39.8757590" lon="-4.0735320">
        <ele>469.9</ele>
        <time>2019-08-13T06:46:19Z</time>
      </trkpt>
      <trkpt lat="39.8757190" lon="-4.0735230">
        <ele>469.7</ele>
        <time>2019-08-13T06:46:20Z</time>
      </trkpt>
      <trkpt lat="39.8756830" lon="-4.0735110">
        <ele>469.5</ele>
        <time>2019-08-13T06:46:21Z</time>
      </trkpt>
      <trkpt lat="39.8756500" lon="-4.0734990">
        <ele>469.3</ele>
        <time>2019-08-13T06:46:22Z</time>
      </trkpt>
      <trkpt lat="39.8756190" lon="-4.0734860">
        <ele>469.2</ele>
        <time>2019-08-13T06:46:23Z</time>
      </trkpt>
      <trkpt lat="39.8755910" lon="-4.0734750">
        <ele>469.0</ele>
        <time>2019-08-13T06:46:24Z</time>
      </trkpt>
      <trkpt lat="39.8755500" lon="-4.0734680">
        <ele>468.9</ele>
        <time>2019-08-13T06:46:26Z</time>
      </trkpt>
      <trkpt lat="39.8755220" lon="-4.0734890">
        <ele>468.7</ele>
        <time>2019-08-13T06:46:28Z</time>
      </trkpt>
      <trkpt lat="39.8755720" lon="-4.0735270">
        <ele>468.4</ele>
        <time>2019-08-13T06:46:57Z</time>
      </trkpt>
      <trkpt lat="39.8755720" lon="-4.0734690">
        <ele>468.2</ele>
        <time>2019-08-13T06:46:59Z</time>
      </trkpt>
      <trkpt lat="39.8755570" lon="-4.0734330">
        <ele>468.1</ele>
        <time>2019-08-13T06:47:00Z</time>
      </trkpt>
      <trkpt lat="39.8755370" lon="-4.0733940">
        <ele>467.9</ele>
        <time>2019-08-13T06:47:01Z</time>
      </trkpt>
      <trkpt lat="39.8755140" lon="-4.0733510">
        <ele>468.0</ele>
        <time>2019-08-13T06:47:02Z</time>
      </trkpt>
      <trkpt lat="39.8754930" lon="-4.0733080">
        <ele>468.1</ele>
        <time>2019-08-13T06:47:03Z</time>
      </trkpt>
      <trkpt lat="39.8754770" lon="-4.0732610">
        <ele>468.1</ele>
        <time>2019-08-13T06:47:04Z</time>
      </trkpt>
      <trkpt lat="39.8754660" lon="-4.0732070">
        <ele>468.2</ele>
        <time>2019-08-13T06:47:05Z</time>
      </trkpt>
      <trkpt lat="39.8754620" lon="-4.0731530">
        <ele>468.2</ele>
        <time>2019-08-13T06:47:06Z</time>
      </trkpt>
      <trkpt lat="39.8754630" lon="-4.0731000">
        <ele>468.3</ele>
        <time>2019-08-13T06:47:07Z</time>
      </trkpt>
      <trkpt lat="39.8754720" lon="-4.0730450">
        <ele>468.3</ele>
        <time>2019-08-13T06:47:08Z</time>
      </trkpt>
      <trkpt lat="39.8754870" lon="-4.0729940">
        <ele>468.4</ele>
        <time>2019-08-13T06:47:09Z</time>
      </trkpt>
      <trkpt lat="39.8755070" lon="-4.0729440">
        <ele>468.5</ele>
        <time>2019-08-13T06:47:10Z</time>
      </trkpt>
      <trkpt lat="39.8755330" lon="-4.0728960">
        <ele>468.5</ele>
        <time>2019-08-13T06:47:11Z</time>
      </trkpt>
      <trkpt lat="39.8755660" lon="-4.0728520">
        <ele>468.6</ele>
        <time>2019-08-13T06:47:12Z</time>
      </trkpt>
      <trkpt lat="39.8756020" lon="-4.0728160">
        <ele>468.6</ele>
        <time>2019-08-13T06:47:13Z</time>
      </trkpt>
      <trkpt lat="39.8756410" lon="-4.0727860">
        <ele>468.7</ele>
        <time>2019-08-13T06:47:14Z</time>
      </trkpt>
      <trkpt lat="39.8756830" lon="-4.0727620">
        <ele>468.7</ele>
        <time>2019-08-13T06:47:15Z</time>
      </trkpt>
      <trkpt lat="39.8757250" lon="-4.0727460">
        <ele>468.8</ele>
        <time>2019-08-13T06:47:16Z</time>
      </trkpt>
      <trkpt lat="39.8757640" lon="-4.0727320">
        <ele>468.8</ele>
        <time>2019-08-13T06:47:17Z</time>
      </trkpt>
      <trkpt lat="39.8757990" lon="-4.0727140">
        <ele>468.8</ele>
        <time>2019-08-13T06:47:18Z</time>
      </trkpt>
      <trkpt lat="39.8758310" lon="-4.0726890">
        <ele>468.9</ele>
        <time>2019-08-13T06:47:19Z</time>
      </trkpt>
      <trkpt lat="39.8758620" lon="-4.0726600">
        <ele>469.1</ele>
        <time>2019-08-13T06:47:20Z</time>
      </trkpt>
      <trkpt lat="39.8758880" lon="-4.0726270">
        <ele>469.2</ele>
        <time>2019-08-13T06:47:21Z</time>
      </trkpt>
      <trkpt lat="39.8759130" lon="-4.0725920">
        <ele>469.2</ele>
        <time>2019-08-13T06:47:22Z</time>
      </trkpt>
      <trkpt lat="39.8759350" lon="-4.0725520">
        <ele>469.3</ele>
        <time>2019-08-13T06:47:23Z</time>
      </trkpt>
      <trkpt lat="39.8759550" lon="-4.0725110">
        <ele>469.3</ele>
        <time>2019-08-13T06:47:24Z</time>
      </trkpt>
      <trkpt lat="39.8759760" lon="-4.0724680">
        <ele>469.3</ele>
        <time>2019-08-13T06:47:25Z</time>
      </trkpt>
      <trkpt lat="39.8760000" lon="-4.0724270">
        <ele>469.4</ele>
        <time>2019-08-13T06:47:26Z</time>
      </trkpt>
      <trkpt lat="39.8760260" lon="-4.0723880">
        <ele>469.5</ele>
        <time>2019-08-13T06:47:27Z</time>
      </trkpt>
      <trkpt lat="39.8760520" lon="-4.0723490">
        <ele>469.5</ele>
        <time>2019-08-13T06:47:28Z</time>
      </trkpt>
      <trkpt lat="39.8760800" lon="-4.0723090">
        <ele>469.6</ele>
        <time>2019-08-13T06:47:29Z</time>
      </trkpt>
      <trkpt lat="39.8761090" lon="-4.0722700">
        <ele>469.6</ele>
        <time>2019-08-13T06:47:30Z</time>
      </trkpt>
      <trkpt lat="39.8761380" lon="-4.0722310">
        <ele>469.7</ele>
        <time>2019-08-13T06:47:31Z</time>
      </trkpt>
      <trkpt lat="39.8761700" lon="-4.0721910">
        <ele>469.7</ele>
        <time>2019-08-13T06:47:32Z</time>
      </trkpt>
      <trkpt lat="39.8762010" lon="-4.0721520">
        <ele>469.8</ele>
        <time>2019-08-13T06:47:33Z</time>
      </trkpt>
      <trkpt lat="39.8762330" lon="-4.0721110">
        <ele>469.9</ele>
        <time>2019-08-13T06:47:34Z</time>
      </trkpt>
      <trkpt lat="39.8762650" lon="-4.0720710">
        <ele>469.9</ele>
        <time>2019-08-13T06:47:35Z</time>
      </trkpt>
      <trkpt lat="39.8762980" lon="-4.0720300">
        <ele>470.0</ele>
        <time>2019-08-13T06:47:36Z</time>
      </trkpt>
      <trkpt lat="39.8763310" lon="-4.0719860">
        <ele>470.0</ele>
        <time>2019-08-13T06:47:37Z</time>
      </trkpt>
      <trkpt lat="39.8763630" lon="-4.0719410">
        <ele>470.1</ele>
        <time>2019-08-13T06:47:38Z</time>
      </trkpt>
      <trkpt lat="39.8763950" lon="-4.0718940">
        <ele>470.2</ele>
        <time>2019-08-13T06:47:39Z</time>
      </trkpt>
      <trkpt lat="39.8764260" lon="-4.0718440">
        <ele>470.2</ele>
        <time>2019-08-13T06:47:40Z</time>
      </trkpt>
      <trkpt lat="39.8764550" lon="-4.0717940">
        <ele>470.3</ele>
        <time>2019-08-13T06:47:41Z</time>
      </trkpt>
      <trkpt lat="39.8764800" lon="-4.0717450">
        <ele>470.4</ele>
        <time>2019-08-13T06:47:42Z</time>
      </trkpt>
      <trkpt lat="39.8765000" lon="-4.0717000">
        <ele>470.4</ele>
        <time>2019-08-13T06:47:43Z</time>
      </trkpt>
      <trkpt lat="39.8765140" lon="-4.0716600">
        <ele>470.4</ele>
        <time>2019-08-13T06:47:44Z</time>
      </trkpt>
      <trkpt lat="39.8765090" lon="-4.0716220">
        <ele>470.5</ele>
        <time>2019-08-13T06:47:45Z</time>
      </trkpt>
      <trkpt lat="39.8764870" lon="-4.0715930">
        <ele>470.5</ele>
        <time>2019-08-13T06:47:46Z</time>
      </trkpt>
      <trkpt lat="39.8764520" lon="-4.0715830">
        <ele>470.3</ele>
        <time>2019-08-13T06:47:47Z</time>
      </trkpt>
      <trkpt lat="39.8764130" lon="-4.0715950">
        <ele>470.1</ele>
        <time>2019-08-13T06:47:48Z</time>
      </trkpt>
      <trkpt lat="39.8763750" lon="-4.0716230">
        <ele>470.0</ele>
        <time>2019-08-13T06:47:49Z</time>
      </trkpt>
      <trkpt lat="39.8763430" lon="-4.0716650">
        <ele>469.9</ele>
        <time>2019-08-13T06:47:50Z</time>
      </trkpt>
      <trkpt lat="39.8763160" lon="-4.0717120">
        <ele>469.8</ele>
        <time>2019-08-13T06:47:51Z</time>
      </trkpt>
      <trkpt lat="39.8762910" lon="-4.0717610">
        <ele>469.7</ele>
        <time>2019-08-13T06:47:52Z</time>
      </trkpt>
      <trkpt lat="39.8762670" lon="-4.0718110">
        <ele>469.6</ele>
        <time>2019-08-13T06:47:53Z</time>
      </trkpt>
      <trkpt lat="39.8762440" lon="-4.0718590">
        <ele>469.5</ele>
        <time>2019-08-13T06:47:54Z</time>
      </trkpt>
      <trkpt lat="39.8762220" lon="-4.0719060">
        <ele>469.5</ele>
        <time>2019-08-13T06:47:55Z</time>
      </trkpt>
      <trkpt lat="39.8761990" lon="-4.0719520">
        <ele>469.4</ele>
        <time>2019-08-13T06:47:56Z</time>
      </trkpt>
      <trkpt lat="39.8761740" lon="-4.0719940">
        <ele>469.3</ele>
        <time>2019-08-13T06:47:57Z</time>
      </trkpt>
      <trkpt lat="39.8761470" lon="-4.0720330">
        <ele>469.2</ele>
        <time>2019-08-13T06:47:58Z</time>
      </trkpt>
      <trkpt lat="39.8761180" lon="-4.0720680">
        <ele>469.2</ele>
        <time>2019-08-13T06:47:59Z</time>
      </trkpt>
      <trkpt lat="39.8760870" lon="-4.0721030">
        <ele>469.1</ele>
        <time>2019-08-13T06:48:00Z</time>
      </trkpt>
      <trkpt lat="39.8760550" lon="-4.0721410">
        <ele>469.0</ele>
        <time>2019-08-13T06:48:01Z</time>
      </trkpt>
      <trkpt lat="39.8760240" lon="-4.0721820">
        <ele>468.9</ele>
        <time>2019-08-13T06:48:02Z</time>
      </trkpt>
      <trkpt lat="39.8759930" lon="-4.0722280">
        <ele>468.8</ele>
        <time>2019-08-13T06:48:03Z</time>
      </trkpt>
      <trkpt lat="39.8759650" lon="-4.0722730">
        <ele>468.7</ele>
        <time>2019-08-13T06:48:04Z</time>
      </trkpt>
      <trkpt lat="39.8759370" lon="-4.0723190">
        <ele>468.7</ele>
        <time>2019-08-13T06:48:05Z</time>
      </trkpt>
      <trkpt lat="39.8759070" lon="-4.0723640">
        <ele>468.6</ele>
        <time>2019-08-13T06:48:06Z</time>
      </trkpt>
      <trkpt lat="39.8758770" lon="-4.0724110">
        <ele>468.5</ele>
        <time>2019-08-13T06:48:07Z</time>
      </trkpt>
      <trkpt lat="39.8758460" lon="-4.0724590">
        <ele>468.4</ele>
        <time>2019-08-13T06:48:08Z</time>
      </trkpt>
      <trkpt lat="39.8758110" lon="-4.0725070">
        <ele>468.3</ele>
        <time>2019-08-13T06:48:09Z</time>
      </trkpt>
      <trkpt lat="39.8757700" lon="-4.0725500">
        <ele>468.3</ele>
        <time>2019-08-13T06:48:10Z</time>
      </trkpt>
      <trkpt lat="39.8757240" lon="-4.0725840">
        <ele>468.2</ele>
        <time>2019-08-13T06:48:11Z</time>
      </trkpt>
      <trkpt lat="39.8756710" lon="-4.0726120">
        <ele>468.1</ele>
        <time>2019-08-13T06:48:12Z</time>
      </trkpt>
      <trkpt lat="39.8756140" lon="-4.0726390">
        <ele>468.1</ele>
        <time>2019-08-13T06:48:13Z</time>
      </trkpt>
      <trkpt lat="39.8755550" lon="-4.0726690">
        <ele>468.0</ele>
        <time>2019-08-13T06:48:14Z</time>
      </trkpt>
      <trkpt lat="39.8754980" lon="-4.0727050">
        <ele>468.0</ele>
        <time>2019-08-13T06:48:15Z</time>
      </trkpt>
      <trkpt lat="39.8754440" lon="-4.0727510">
        <ele>468.0</ele>
        <time>2019-08-13T06:48:16Z</time>
      </trkpt>
      <trkpt lat="39.8753960" lon="-4.0728080">
        <ele>468.0</ele>
        <time>2019-08-13T06:48:17Z</time>
      </trkpt>
      <trkpt lat="39.8753580" lon="-4.0728720">
        <ele>468.0</ele>
        <time>2019-08-13T06:48:18Z</time>
      </trkpt>
      <trkpt lat="39.8753300" lon="-4.0729380">
        <ele>468.0</ele>
        <time>2019-08-13T06:48:19Z</time>
      </trkpt>
      <trkpt lat="39.8753100" lon="-4.0730040">
        <ele>468.1</ele>
        <time>2019-08-13T06:48:20Z</time>
      </trkpt>
      <trkpt lat="39.8752970" lon="-4.0730670">
        <ele>468.1</ele>
        <time>2019-08-13T06:48:21Z</time>
      </trkpt>
      <trkpt lat="39.8752910" lon="-4.0731260">
        <ele>468.1</ele>
        <time>2019-08-13T06:48:22Z</time>
      </trkpt>
      <trkpt lat="39.8752900" lon="-4.0731840">
        <ele>468.2</ele>
        <time>2019-08-13T06:48:23Z</time>
      </trkpt>
      <trkpt lat="39.8752950" lon="-4.0732410">
        <ele>468.2</ele>
        <time>2019-08-13T06:48:24Z</time>
      </trkpt>
      <trkpt lat="39.8753040" lon="-4.0732980">
        <ele>468.3</ele>
        <time>2019-08-13T06:48:25Z</time>
      </trkpt>
      <trkpt lat="39.8753170" lon="-4.0733530">
        <ele>468.3</ele>
        <time>2019-08-13T06:48:26Z</time>
      </trkpt>
      <trkpt lat="39.8753330" lon="-4.0734070">
        <ele>468.3</ele>
        <time>2019-08-13T06:48:27Z</time>
      </trkpt>
      <trkpt lat="39.8753470" lon="-4.0734600">
        <ele>468.4</ele>
        <time>2019-08-13T06:48:28Z</time>
      </trkpt>
      <trkpt lat="39.8753590" lon="-4.0735140">
        <ele>468.4</ele>
        <time>2019-08-13T06:48:29Z</time>
      </trkpt>
      <trkpt lat="39.8753660" lon="-4.0735670">
        <ele>468.4</ele>
        <time>2019-08-13T06:48:30Z</time>
      </trkpt>
      <trkpt lat="39.8753690" lon="-4.0736220">
        <ele>468.5</ele>
        <time>2019-08-13T06:48:31Z</time>
      </trkpt>
      <trkpt lat="39.8753660" lon="-4.0736750">
        <ele>468.5</ele>
        <time>2019-08-13T06:48:32Z</time>
      </trkpt>
      <trkpt lat="39.8753580" lon="-4.0737290">
        <ele>468.5</ele>
        <time>2019-08-13T06:48:33Z</time>
      </trkpt>
      <trkpt lat="39.8753450" lon="-4.0737820">
        <ele>468.5</ele>
        <time>2019-08-13T06:48:34Z</time>
      </trkpt>
      <trkpt lat="39.8753270" lon="-4.0738360">
        <ele>468.5</ele>
        <time>2019-08-13T06:48:35Z</time>
      </trkpt>
      <trkpt lat="39.8753050" lon="-4.0738890">
        <ele>468.5</ele>
        <time>2019-08-13T06:48:36Z</time>
      </trkpt>
      <trkpt lat="39.8752750" lon="-4.0739390">
        <ele>468.4</ele>
        <time>2019-08-13T06:48:37Z</time>
      </trkpt>
      <trkpt lat="39.8752410" lon="-4.0739850">
        <ele>468.4</ele>
        <time>2019-08-13T06:48:38Z</time>
      </trkpt>
      <trkpt lat="39.8752040" lon="-4.0740280">
        <ele>468.4</ele>
        <time>2019-08-13T06:48:39Z</time>
      </trkpt>
      <trkpt lat="39.8751650" lon="-4.0740670">
        <ele>468.3</ele>
        <time>2019-08-13T06:48:40Z</time>
      </trkpt>
      <trkpt lat="39.8751250" lon="-4.0741050">
        <ele>468.2</ele>
        <time>2019-08-13T06:48:41Z</time>
      </trkpt>
      <trkpt lat="39.8750860" lon="-4.0741440">
        <ele>468.1</ele>
        <time>2019-08-13T06:48:42Z</time>
      </trkpt>
      <trkpt lat="39.8750450" lon="-4.0741830">
        <ele>468.0</ele>
        <time>2019-08-13T06:48:43Z</time>
      </trkpt>
      <trkpt lat="39.8750050" lon="-4.0742210">
        <ele>467.9</ele>
        <time>2019-08-13T06:48:44Z</time>
      </trkpt>
      <trkpt lat="39.8749620" lon="-4.0742590">
        <ele>467.8</ele>
        <time>2019-08-13T06:48:45Z</time>
      </trkpt>
      <trkpt lat="39.8749180" lon="-4.0742990">
        <ele>467.6</ele>
        <time>2019-08-13T06:48:46Z</time>
      </trkpt>
      <trkpt lat="39.8748740" lon="-4.0743420">
        <ele>467.5</ele>
        <time>2019-08-13T06:48:47Z</time>
      </trkpt>
      <trkpt lat="39.8748270" lon="-4.0743840">
        <ele>467.3</ele>
        <time>2019-08-13T06:48:48Z</time>
      </trkpt>
      <trkpt lat="39.8747800" lon="-4.0744300">
        <ele>467.1</ele>
        <time>2019-08-13T06:48:49Z</time>
      </trkpt>
      <trkpt lat="39.8747300" lon="-4.0744760">
        <ele>466.9</ele>
        <time>2019-08-13T06:48:50Z</time>
      </trkpt>
      <trkpt lat="39.8746790" lon="-4.0745230">
        <ele>466.6</ele>
        <time>2019-08-13T06:48:51Z</time>
      </trkpt>
      <trkpt lat="39.8746270" lon="-4.0745720">
        <ele>466.4</ele>
        <time>2019-08-13T06:48:52Z</time>
      </trkpt>
      <trkpt lat="39.8745730" lon="-4.0746220">
        <ele>466.1</ele>
        <time>2019-08-13T06:48:53Z</time>
      </trkpt>
      <trkpt lat="39.8745170" lon="-4.0746710">
        <ele>465.8</ele>
        <time>2019-08-13T06:48:54Z</time>
      </trkpt>
      <trkpt lat="39.8744590" lon="-4.0747210">
        <ele>465.6</ele>
        <time>2019-08-13T06:48:55Z</time>
      </trkpt>
      <trkpt lat="39.8743970" lon="-4.0747710">
        <ele>465.3</ele>
        <time>2019-08-13T06:48:56Z</time>
      </trkpt>
      <trkpt lat="39.8743320" lon="-4.0748200">
        <ele>465.0</ele>
        <time>2019-08-13T06:48:57Z</time>
      </trkpt>
      <trkpt lat="39.8742660" lon="-4.0748720">
        <ele>464.7</ele>
        <time>2019-08-13T06:48:58Z</time>
      </trkpt>
      <trkpt lat="39.8742000" lon="-4.0749230">
        <ele>464.5</ele>
        <time>2019-08-13T06:48:59Z</time>
      </trkpt>
      <trkpt lat="39.8741330" lon="-4.0749760">
        <ele>464.2</ele>
        <time>2019-08-13T06:49:00Z</time>
      </trkpt>
      <trkpt lat="39.8740680" lon="-4.0750330">
        <ele>464.0</ele>
        <time>2019-08-13T06:49:01Z</time>
      </trkpt>
      <trkpt lat="39.8740050" lon="-4.0750940">
        <ele>463.7</ele>
        <time>2019-08-13T06:49:02Z</time>
      </trkpt>
      <trkpt lat="39.8739430" lon="-4.0751600">
        <ele>463.5</ele>
        <time>2019-08-13T06:49:03Z</time>
      </trkpt>
      <trkpt lat="39.8738800" lon="-4.0752270">
        <ele>463.3</ele>
        <time>2019-08-13T06:49:04Z</time>
      </trkpt>
      <trkpt lat="39.8738170" lon="-4.0752930">
        <ele>463.1</ele>
        <time>2019-08-13T06:49:05Z</time>
      </trkpt>
      <trkpt lat="39.8737520" lon="-4.0753570">
        <ele>462.9</ele>
        <time>2019-08-13T06:49:06Z</time>
      </trkpt>
      <trkpt lat="39.8736870" lon="-4.0754210">
        <ele>462.6</ele>
        <time>2019-08-13T06:49:07Z</time>
      </trkpt>
      <trkpt lat="39.8736210" lon="-4.0754870">
        <ele>462.4</ele>
        <time>2019-08-13T06:49:08Z</time>
      </trkpt>
      <trkpt lat="39.8735550" lon="-4.0755520">
        <ele>462.2</ele>
        <time>2019-08-13T06:49:09Z</time>
      </trkpt>
      <trkpt lat="39.8734910" lon="-4.0756170">
        <ele>462.0</ele>
        <time>2019-08-13T06:49:10Z</time>
      </trkpt>
      <trkpt lat="39.8734300" lon="-4.0756850">
        <ele>461.8</ele>
        <time>2019-08-13T06:49:11Z</time>
      </trkpt>
      <trkpt lat="39.8733720" lon="-4.0757560">
        <ele>461.6</ele>
        <time>2019-08-13T06:49:12Z</time>
      </trkpt>
      <trkpt lat="39.8733140" lon="-4.0758260">
        <ele>461.4</ele>
        <time>2019-08-13T06:49:13Z</time>
      </trkpt>
      <trkpt lat="39.8732560" lon="-4.0758940">
        <ele>461.2</ele>
        <time>2019-08-13T06:49:14Z</time>
      </trkpt>
      <trkpt lat="39.8731950" lon="-4.0759620">
        <ele>461.0</ele>
        <time>2019-08-13T06:49:15Z</time>
      </trkpt>
      <trkpt lat="39.8731350" lon="-4.0760270">
        <ele>460.8</ele>
        <time>2019-08-13T06:49:16Z</time>
      </trkpt>
      <trkpt lat="39.8730750" lon="-4.0760920">
        <ele>460.6</ele>
        <time>2019-08-13T06:49:17Z</time>
      </trkpt>
      <trkpt lat="39.8730170" lon="-4.0761580">
        <ele>460.4</ele>
        <time>2019-08-13T06:49:18Z</time>
      </trkpt>
      <trkpt lat="39.8729610" lon="-4.0762240">
        <ele>460.2</ele>
        <time>2019-08-13T06:49:19Z</time>
      </trkpt>
      <trkpt lat="39.8729060" lon="-4.0762890">
        <ele>460.1</ele>
        <time>2019-08-13T06:49:20Z</time>
      </trkpt>
      <trkpt lat="39.8728510" lon="-4.0763540">
        <ele>459.9</ele>
        <time>2019-08-13T06:49:21Z</time>
      </trkpt>
      <trkpt lat="39.8727970" lon="-4.0764200">
        <ele>459.7</ele>
        <time>2019-08-13T06:49:22Z</time>
      </trkpt>
      <trkpt lat="39.8727430" lon="-4.0764840">
        <ele>459.5</ele>
        <time>2019-08-13T06:49:23Z</time>
      </trkpt>
      <trkpt lat="39.8726890" lon="-4.0765480">
        <ele>459.4</ele>
        <time>2019-08-13T06:49:24Z</time>
      </trkpt>
      <trkpt lat="39.8726360" lon="-4.0766100">
        <ele>459.2</ele>
        <time>2019-08-13T06:49:25Z</time>
      </trkpt>
      <trkpt lat="39.8725830" lon="-4.0766710">
        <ele>459.0</ele>
        <time>2019-08-13T06:49:26Z</time>
      </trkpt>
      <trkpt lat="39.8725300" lon="-4.0767330">
        <ele>458.9</ele>
        <time>2019-08-13T06:49:27Z</time>
      </trkpt>
      <trkpt lat="39.8724790" lon="-4.0767940">
        <ele>458.7</ele>
        <time>2019-08-13T06:49:28Z</time>
      </trkpt>
      <trkpt lat="39.8724270" lon="-4.0768520">
        <ele>458.6</ele>
        <time>2019-08-13T06:49:29Z</time>
      </trkpt>
      <trkpt lat="39.8723750" lon="-4.0769080">
        <ele>458.4</ele>
        <time>2019-08-13T06:49:30Z</time>
      </trkpt>
      <trkpt lat="39.8723270" lon="-4.0769660">
        <ele>458.3</ele>
        <time>2019-08-13T06:49:31Z</time>
      </trkpt>
      <trkpt lat="39.8722800" lon="-4.0770250">
        <ele>458.1</ele>
        <time>2019-08-13T06:49:32Z</time>
      </trkpt>
      <trkpt lat="39.8722330" lon="-4.0770830">
        <ele>458.0</ele>
        <time>2019-08-13T06:49:33Z</time>
      </trkpt>
      <trkpt lat="39.8721870" lon="-4.0771420">
        <ele>457.8</ele>
        <time>2019-08-13T06:49:34Z</time>
      </trkpt>
      <trkpt lat="39.8721410" lon="-4.0772020">
        <ele>457.7</ele>
        <time>2019-08-13T06:49:35Z</time>
      </trkpt>
      <trkpt lat="39.8720960" lon="-4.0772630">
        <ele>457.6</ele>
        <time>2019-08-13T06:49:36Z</time>
      </trkpt>
      <trkpt lat="39.8720520" lon="-4.0773250">
        <ele>457.4</ele>
        <time>2019-08-13T06:49:37Z</time>
      </trkpt>
      <trkpt lat="39.8720080" lon="-4.0773890">
        <ele>457.3</ele>
        <time>2019-08-13T06:49:38Z</time>
      </trkpt>
      <trkpt lat="39.8719630" lon="-4.0774540">
        <ele>457.2</ele>
        <time>2019-08-13T06:49:39Z</time>
      </trkpt>
      <trkpt lat="39.8719180" lon="-4.0775200">
        <ele>457.1</ele>
        <time>2019-08-13T06:49:40Z</time>
      </trkpt>
      <trkpt lat="39.8718730" lon="-4.0775850">
        <ele>457.0</ele>
        <time>2019-08-13T06:49:41Z</time>
      </trkpt>
      <trkpt lat="39.8718280" lon="-4.0776520">
        <ele>456.9</ele>
        <time>2019-08-13T06:49:42Z</time>
      </trkpt>
      <trkpt lat="39.8717830" lon="-4.0777170">
        <ele>456.7</ele>
        <time>2019-08-13T06:49:43Z</time>
      </trkpt>
      <trkpt lat="39.8717390" lon="-4.0777830">
        <ele>456.6</ele>
        <time>2019-08-13T06:49:44Z</time>
      </trkpt>
      <trkpt lat="39.8716970" lon="-4.0778470">
        <ele>456.6</ele>
        <time>2019-08-13T06:49:45Z</time>
      </trkpt>
      <trkpt lat="39.8716560" lon="-4.0779150">
        <ele>456.5</ele>
        <time>2019-08-13T06:49:46Z</time>
      </trkpt>
      <trkpt lat="39.8716170" lon="-4.0779820">
        <ele>456.4</ele>
        <time>2019-08-13T06:49:47Z</time>
      </trkpt>
      <trkpt lat="39.8715790" lon="-4.0780490">
        <ele>456.3</ele>
        <time>2019-08-13T06:49:48Z</time>
      </trkpt>
      <trkpt lat="39.8715420" lon="-4.0781150">
        <ele>456.2</ele>
        <time>2019-08-13T06:49:49Z</time>
      </trkpt>
      <trkpt lat="39.8715070" lon="-4.0781830">
        <ele>456.1</ele>
        <time>2019-08-13T06:49:50Z</time>
      </trkpt>
      <trkpt lat="39.8714720" lon="-4.0782510">
        <ele>456.0</ele>
        <time>2019-08-13T06:49:51Z</time>
      </trkpt>
      <trkpt lat="39.8714390" lon="-4.0783190">
        <ele>455.9</ele>
        <time>2019-08-13T06:49:52Z</time>
      </trkpt>
      <trkpt lat="39.8714060" lon="-4.0783860">
        <ele>455.8</ele>
        <time>2019-08-13T06:49:53Z</time>
      </trkpt>
      <trkpt lat="39.8713760" lon="-4.0784560">
        <ele>455.7</ele>
        <time>2019-08-13T06:49:54Z</time>
      </trkpt>
      <trkpt lat="39.8713450" lon="-4.0785240">
        <ele>455.7</ele>
        <time>2019-08-13T06:49:55Z</time>
      </trkpt>
      <trkpt lat="39.8713150" lon="-4.0785890">
        <ele>455.6</ele>
        <time>2019-08-13T06:49:56Z</time>
      </trkpt>
      <trkpt lat="39.8712850" lon="-4.0786510">
        <ele>455.5</ele>
        <time>2019-08-13T06:49:57Z</time>
      </trkpt>
      <trkpt lat="39.8712540" lon="-4.0787140">
        <ele>455.4</ele>
        <time>2019-08-13T06:49:58Z</time>
      </trkpt>
      <trkpt lat="39.8712230" lon="-4.0787780">
        <ele>455.3</ele>
        <time>2019-08-13T06:49:59Z</time>
      </trkpt>
      <trkpt lat="39.8711970" lon="-4.0788380">
        <ele>455.2</ele>
        <time>2019-08-13T06:50:00Z</time>
      </trkpt>
      <trkpt lat="39.8711670" lon="-4.0788990">
        <ele>455.0</ele>
        <time>2019-08-13T06:50:01Z</time>
      </trkpt>
      <trkpt lat="39.8711280" lon="-4.0789460">
        <ele>454.9</ele>
        <time>2019-08-13T06:50:02Z</time>
      </trkpt>
      <trkpt lat="39.8710890" lon="-4.0789950">
        <ele>454.8</ele>
        <time>2019-08-13T06:50:03Z</time>
      </trkpt>
      <trkpt lat="39.8710590" lon="-4.0790590">
        <ele>454.6</ele>
        <time>2019-08-13T06:50:04Z</time>
      </trkpt>
      <trkpt lat="39.8710230" lon="-4.0791180">
        <ele>454.5</ele>
        <time>2019-08-13T06:50:05Z</time>
      </trkpt>
      <trkpt lat="39.8709850" lon="-4.0791780">
        <ele>454.3</ele>
        <time>2019-08-13T06:50:06Z</time>
      </trkpt>
      <trkpt lat="39.8709460" lon="-4.0792440">
        <ele>454.1</ele>
        <time>2019-08-13T06:50:07Z</time>
      </trkpt>
      <trkpt lat="39.8709040" lon="-4.0793100">
        <ele>453.8</ele>
        <time>2019-08-13T06:50:08Z</time>
      </trkpt>
      <trkpt lat="39.8708680" lon="-4.0793780">
        <ele>453.6</ele>
        <time>2019-08-13T06:50:09Z</time>
      </trkpt>
      <trkpt lat="39.8708360" lon="-4.0794380">
        <ele>453.5</ele>
        <time>2019-08-13T06:50:10Z</time>
      </trkpt>
      <trkpt lat="39.8707990" lon="-4.0794950">
        <ele>453.3</ele>
        <time>2019-08-13T06:50:11Z</time>
      </trkpt>
      <trkpt lat="39.8707680" lon="-4.0795510">
        <ele>453.1</ele>
        <time>2019-08-13T06:50:12Z</time>
      </trkpt>
      <trkpt lat="39.8707410" lon="-4.0795990">
        <ele>453.0</ele>
        <time>2019-08-13T06:50:13Z</time>
      </trkpt>
      <trkpt lat="39.8707140" lon="-4.0796430">
        <ele>452.8</ele>
        <time>2019-08-13T06:50:14Z</time>
      </trkpt>
      <trkpt lat="39.8706880" lon="-4.0796840">
        <ele>452.7</ele>
        <time>2019-08-13T06:50:15Z</time>
      </trkpt>
      <trkpt lat="39.8706630" lon="-4.0797200">
        <ele>452.6</ele>
        <time>2019-08-13T06:50:16Z</time>
      </trkpt>
      <trkpt lat="39.8706380" lon="-4.0797510">
        <ele>452.5</ele>
        <time>2019-08-13T06:50:17Z</time>
      </trkpt>
      <trkpt lat="39.8706120" lon="-4.0797800">
        <ele>452.4</ele>
        <time>2019-08-13T06:50:18Z</time>
      </trkpt>
      <trkpt lat="39.8705860" lon="-4.0798050">
        <ele>452.2</ele>
        <time>2019-08-13T06:50:19Z</time>
      </trkpt>
      <trkpt lat="39.8705590" lon="-4.0798290">
        <ele>452.1</ele>
        <time>2019-08-13T06:50:20Z</time>
      </trkpt>
      <trkpt lat="39.8705270" lon="-4.0798460">
        <ele>452.0</ele>
        <time>2019-08-13T06:50:21Z</time>
      </trkpt>
      <trkpt lat="39.8704940" lon="-4.0798590">
        <ele>451.9</ele>
        <time>2019-08-13T06:50:22Z</time>
      </trkpt>
      <trkpt lat="39.8704640" lon="-4.0798660">
        <ele>451.7</ele>
        <time>2019-08-13T06:50:23Z</time>
      </trkpt>
      <trkpt lat="39.8704220" lon="-4.0798780">
        <ele>451.5</ele>
        <time>2019-08-13T06:50:25Z</time>
      </trkpt>
      <trkpt lat="39.8703910" lon="-4.0798520">
        <ele>451.3</ele>
        <time>2019-08-13T06:50:27Z</time>
      </trkpt>
      <trkpt lat="39.8703890" lon="-4.0797910">
        <ele>451.1</ele>
        <time>2019-08-13T06:50:29Z</time>
      </trkpt>
      <trkpt lat="39.8704100" lon="-4.0797320">
        <ele>451.3</ele>
        <time>2019-08-13T06:50:31Z</time>
      </trkpt>
      <trkpt lat="39.8704270" lon="-4.0797050">
        <ele>451.5</ele>
        <time>2019-08-13T06:50:32Z</time>
      </trkpt>
      <trkpt lat="39.8704470" lon="-4.0796710">
        <ele>451.6</ele>
        <time>2019-08-13T06:50:33Z</time>
      </trkpt>
      <trkpt lat="39.8704660" lon="-4.0796270">
        <ele>451.7</ele>
        <time>2019-08-13T06:50:34Z</time>
      </trkpt>
      <trkpt lat="39.8704890" lon="-4.0795870">
        <ele>451.8</ele>
        <time>2019-08-13T06:50:35Z</time>
      </trkpt>
      <trkpt lat="39.8705070" lon="-4.0795590">
        <ele>451.9</ele>
        <time>2019-08-13T06:50:36Z</time>
      </trkpt>
      <trkpt lat="39.8705260" lon="-4.0795290">
        <ele>451.9</ele>
        <time>2019-08-13T06:50:37Z</time>
      </trkpt>
      <trkpt lat="39.8705420" lon="-4.0794970">
        <ele>452.0</ele>
        <time>2019-08-13T06:50:38Z</time>
      </trkpt>
      <trkpt lat="39.8705540" lon="-4.0794640">
        <ele>452.0</ele>
        <time>2019-08-13T06:50:39Z</time>
      </trkpt>
      <trkpt lat="39.8705660" lon="-4.0794320">
        <ele>452.1</ele>
        <time>2019-08-13T06:50:40Z</time>
      </trkpt>
      <trkpt lat="39.8705860" lon="-4.0793710">
        <ele>452.2</ele>
        <time>2019-08-13T06:50:42Z</time>
      </trkpt>
      <trkpt lat="39.8705970" lon="-4.0793070">
        <ele>452.3</ele>
        <time>2019-08-13T06:50:44Z</time>
      </trkpt>
      <trkpt lat="39.8706080" lon="-4.0792410">
        <ele>452.4</ele>
        <time>2019-08-13T06:50:46Z</time>
      </trkpt>
      <trkpt lat="39.8706130" lon="-4.0791740">
        <ele>452.6</ele>
        <time>2019-08-13T06:50:48Z</time>
      </trkpt>
      <trkpt lat="39.8706130" lon="-4.0791060">
        <ele>452.7</ele>
        <time>2019-08-13T06:50:50Z</time>
      </trkpt>
      <trkpt lat="39.8706150" lon="-4.0790380">
        <ele>452.9</ele>
        <time>2019-08-13T06:50:52Z</time>
      </trkpt>
      <trkpt lat="39.8706160" lon="-4.0789710">
        <ele>453.0</ele>
        <time>2019-08-13T06:50:54Z</time>
      </trkpt>
      <trkpt lat="39.8706220" lon="-4.0789050">
        <ele>453.2</ele>
        <time>2019-08-13T06:50:56Z</time>
      </trkpt>
      <trkpt lat="39.8706330" lon="-4.0788420">
        <ele>453.3</ele>
        <time>2019-08-13T06:50:58Z</time>
      </trkpt>
      <trkpt lat="39.8706540" lon="-4.0787830">
        <ele>453.4</ele>
        <time>2019-08-13T06:51:00Z</time>
      </trkpt>
      <trkpt lat="39.8706700" lon="-4.0787540">
        <ele>453.5</ele>
        <time>2019-08-13T06:51:01Z</time>
      </trkpt>
      <trkpt lat="39.8707080" lon="-4.0787050">
        <ele>453.5</ele>
        <time>2019-08-13T06:51:03Z</time>
      </trkpt>
      <trkpt lat="39.8707300" lon="-4.0786830">
        <ele>453.6</ele>
        <time>2019-08-13T06:51:04Z</time>
      </trkpt>
      <trkpt lat="39.8707530" lon="-4.0786650">
        <ele>453.6</ele>
        <time>2019-08-13T06:51:05Z</time>
      </trkpt>
      <trkpt lat="39.8708020" lon="-4.0786400">
        <ele>453.6</ele>
        <time>2019-08-13T06:51:07Z</time>
      </trkpt>
      <trkpt lat="39.8708510" lon="-4.0786300">
        <ele>453.6</ele>
        <time>2019-08-13T06:51:09Z</time>
      </trkpt>
      <trkpt lat="39.8709010" lon="-4.0786340">
        <ele>453.6</ele>
        <time>2019-08-13T06:51:11Z</time>
      </trkpt>
      <trkpt lat="39.8709500" lon="-4.0786470">
        <ele>453.6</ele>
        <time>2019-08-13T06:51:13Z</time>
      </trkpt>
      <trkpt lat="39.8709950" lon="-4.0786760">
        <ele>453.5</ele>
        <time>2019-08-13T06:51:15Z</time>
      </trkpt>
      <trkpt lat="39.8710410" lon="-4.0787080">
        <ele>453.5</ele>
        <time>2019-08-13T06:51:17Z</time>
      </trkpt>
      <trkpt lat="39.8710650" lon="-4.0787260">
        <ele>453.5</ele>
        <time>2019-08-13T06:51:18Z</time>
      </trkpt>
      <trkpt lat="39.8710890" lon="-4.0787460">
        <ele>453.5</ele>
        <time>2019-08-13T06:51:19Z</time>
      </trkpt>
      <trkpt lat="39.8711130" lon="-4.0787670">
        <ele>453.4</ele>
        <time>2019-08-13T06:51:20Z</time>
      </trkpt>
      <trkpt lat="39.8711380" lon="-4.0787890">
        <ele>453.7</ele>
        <time>2019-08-13T06:51:21Z</time>
      </trkpt>
      <trkpt lat="39.8711640" lon="-4.0788120">
        <ele>453.9</ele>
        <time>2019-08-13T06:51:22Z</time>
      </trkpt>
      <trkpt lat="39.8711890" lon="-4.0788370">
        <ele>454.0</ele>
        <time>2019-08-13T06:51:23Z</time>
      </trkpt>
      <trkpt lat="39.8712140" lon="-4.0788610">
        <ele>454.1</ele>
        <time>2019-08-13T06:51:24Z</time>
      </trkpt>
      <trkpt lat="39.8712400" lon="-4.0788840">
        <ele>454.2</ele>
        <time>2019-08-13T06:51:25Z</time>
      </trkpt>
      <trkpt lat="39.8712660" lon="-4.0789080">
        <ele>454.4</ele>
        <time>2019-08-13T06:51:26Z</time>
      </trkpt>
      <trkpt lat="39.8712920" lon="-4.0789310">
        <ele>454.5</ele>
        <time>2019-08-13T06:51:27Z</time>
      </trkpt>
      <trkpt lat="39.8713180" lon="-4.0789540">
        <ele>454.6</ele>
        <time>2019-08-13T06:51:28Z</time>
      </trkpt>
      <trkpt lat="39.8713430" lon="-4.0789770">
        <ele>454.7</ele>
        <time>2019-08-13T06:51:29Z</time>
      </trkpt>
      <trkpt lat="39.8713680" lon="-4.0790000">
        <ele>454.8</ele>
        <time>2019-08-13T06:51:30Z</time>
      </trkpt>
      <trkpt lat="39.8713920" lon="-4.0790240">
        <ele>454.9</ele>
        <time>2019-08-13T06:51:31Z</time>
      </trkpt>
      <trkpt lat="39.8714160" lon="-4.0790470">
        <ele>455.0</ele>
        <time>2019-08-13T06:51:32Z</time>
      </trkpt>
      <trkpt lat="39.8714410" lon="-4.0790690">
        <ele>455.2</ele>
        <time>2019-08-13T06:51:33Z</time>
      </trkpt>
      <trkpt lat="39.8714650" lon="-4.0790900">
        <ele>455.3</ele>
        <time>2019-08-13T06:51:34Z</time>
      </trkpt>
      <trkpt lat="39.8714880" lon="-4.0791110">
        <ele>455.4</ele>
        <time>2019-08-13T06:51:35Z</time>
      </trkpt>
      <trkpt lat="39.8715270" lon="-4.0791470">
        <ele>455.4</ele>
        <time>2019-08-13T06:51:37Z</time>
      </trkpt>
      <trkpt lat="39.8715570" lon="-4.0791690">
        <ele>455.6</ele>
        <time>2019-08-13T06:51:39Z</time>
      </trkpt>
      <trkpt lat="39.8715740" lon="-4.0791890">
        <ele>455.8</ele>
        <time>2019-08-13T06:51:50Z</time>
      </trkpt>
      <trkpt lat="39.8716350" lon="-4.0792430">
        <ele>456.2</ele>
        <time>2019-08-13T06:54:13Z</time>
      </trkpt>
      <trkpt lat="39.8716900" lon="-4.0792670">
        <ele>456.7</ele>
        <time>2019-08-13T06:54:15Z</time>
      </trkpt>
      <trkpt lat="39.8717230" lon="-4.0792800">
        <ele>456.9</ele>
        <time>2019-08-13T06:54:16Z</time>
      </trkpt>
      <trkpt lat="39.8717570" lon="-4.0792930">
        <ele>457.1</ele>
        <time>2019-08-13T06:54:17Z</time>
      </trkpt>
      <trkpt lat="39.8717920" lon="-4.0793030">
        <ele>457.3</ele>
        <time>2019-08-13T06:54:18Z</time>
      </trkpt>
      <trkpt lat="39.8718290" lon="-4.0793080">
        <ele>457.4</ele>
        <time>2019-08-13T06:54:19Z</time>
      </trkpt>
      <trkpt lat="39.8718660" lon="-4.0793100">
        <ele>457.6</ele>
        <time>2019-08-13T06:54:20Z</time>
      </trkpt>
      <trkpt lat="39.8719050" lon="-4.0793090">
        <ele>457.8</ele>
        <time>2019-08-13T06:54:21Z</time>
      </trkpt>
      <trkpt lat="39.8719430" lon="-4.0793070">
        <ele>458.0</ele>
        <time>2019-08-13T06:54:22Z</time>
      </trkpt>
      <trkpt lat="39.8719800" lon="-4.0793040">
        <ele>458.2</ele>
        <time>2019-08-13T06:54:23Z</time>
      </trkpt>
      <trkpt lat="39.8720170" lon="-4.0793010">
        <ele>458.3</ele>
        <time>2019-08-13T06:54:24Z</time>
      </trkpt>
      <trkpt lat="39.8720540" lon="-4.0792990">
        <ele>458.5</ele>
        <time>2019-08-13T06:54:25Z</time>
      </trkpt>
      <trkpt lat="39.8720910" lon="-4.0792980">
        <ele>458.7</ele>
        <time>2019-08-13T06:54:26Z</time>
      </trkpt>
      <trkpt lat="39.8721270" lon="-4.0792980">
        <ele>458.9</ele>
        <time>2019-08-13T06:54:27Z</time>
      </trkpt>
      <trkpt lat="39.8721610" lon="-4.0792980">
        <ele>459.1</ele>
        <time>2019-08-13T06:54:28Z</time>
      </trkpt>
      <trkpt lat="39.8721950" lon="-4.0793000">
        <ele>459.3</ele>
        <time>2019-08-13T06:54:29Z</time>
      </trkpt>
      <trkpt lat="39.8722290" lon="-4.0793030">
        <ele>459.5</ele>
        <time>2019-08-13T06:54:30Z</time>
      </trkpt>
      <trkpt lat="39.8722620" lon="-4.0793080">
        <ele>459.6</ele>
        <time>2019-08-13T06:54:31Z</time>
      </trkpt>
      <trkpt lat="39.8722950" lon="-4.0793160">
        <ele>459.8</ele>
        <time>2019-08-13T06:54:32Z</time>
      </trkpt>
      <trkpt lat="39.8723270" lon="-4.0793260">
        <ele>460.1</ele>
        <time>2019-08-13T06:54:33Z</time>
      </trkpt>
      <trkpt lat="39.8723560" lon="-4.0793360">
        <ele>460.3</ele>
        <time>2019-08-13T06:54:34Z</time>
      </trkpt>
      <trkpt lat="39.8723830" lon="-4.0793450">
        <ele>460.5</ele>
        <time>2019-08-13T06:54:35Z</time>
      </trkpt>
      <trkpt lat="39.8724270" lon="-4.0793580">
        <ele>460.8</ele>
        <time>2019-08-13T06:54:37Z</time>
      </trkpt>
      <trkpt lat="39.8724570" lon="-4.0793720">
        <ele>460.9</ele>
        <time>2019-08-13T06:54:42Z</time>
      </trkpt>
      <trkpt lat="39.8724820" lon="-4.0794010">
        <ele>461.1</ele>
        <time>2019-08-13T06:54:45Z</time>
      </trkpt>
      <trkpt lat="39.8725130" lon="-4.0794030">
        <ele>461.2</ele>
        <time>2019-08-13T06:54:48Z</time>
      </trkpt>
      <trkpt lat="39.8725360" lon="-4.0793900">
        <ele>461.3</ele>
        <time>2019-08-13T06:54:53Z</time>
      </trkpt>
      <trkpt lat="39.8725740" lon="-4.0794030">
        <ele>461.5</ele>
        <time>2019-08-13T06:54:55Z</time>
      </trkpt>
      <trkpt lat="39.8725980" lon="-4.0794190">
        <ele>461.6</ele>
        <time>2019-08-13T06:54:56Z</time>
      </trkpt>
      <trkpt lat="39.8726250" lon="-4.0794370">
        <ele>461.8</ele>
        <time>2019-08-13T06:54:57Z</time>
      </trkpt>
      <trkpt lat="39.8726520" lon="-4.0794580">
        <ele>461.9</ele>
        <time>2019-08-13T06:54:58Z</time>
      </trkpt>
      <trkpt lat="39.8726810" lon="-4.0794810">
        <ele>462.1</ele>
        <time>2019-08-13T06:54:59Z</time>
      </trkpt>
      <trkpt lat="39.8727110" lon="-4.0795040">
        <ele>462.2</ele>
        <time>2019-08-13T06:55:00Z</time>
      </trkpt>
      <trkpt lat="39.8727400" lon="-4.0795270">
        <ele>462.4</ele>
        <time>2019-08-13T06:55:01Z</time>
      </trkpt>
      <trkpt lat="39.8727710" lon="-4.0795470">
        <ele>462.5</ele>
        <time>2019-08-13T06:55:02Z</time>
      </trkpt>
      <trkpt lat="39.8728020" lon="-4.0795650">
        <ele>462.7</ele>
        <time>2019-08-13T06:55:03Z</time>
      </trkpt>
      <trkpt lat="39.8728340" lon="-4.0795800">
        <ele>462.9</ele>
        <time>2019-08-13T06:55:04Z</time>
      </trkpt>
      <trkpt lat="39.8728650" lon="-4.0795940">
        <ele>463.1</ele>
        <time>2019-08-13T06:55:05Z</time>
      </trkpt>
      <trkpt lat="39.8728960" lon="-4.0796060">
        <ele>463.3</ele>
        <time>2019-08-13T06:55:06Z</time>
      </trkpt>
      <trkpt lat="39.8729280" lon="-4.0796180">
        <ele>463.6</ele>
        <time>2019-08-13T06:55:07Z</time>
      </trkpt>
      <trkpt lat="39.8729600" lon="-4.0796290">
        <ele>463.8</ele>
        <time>2019-08-13T06:55:08Z</time>
      </trkpt>
      <trkpt lat="39.8729920" lon="-4.0796400">
        <ele>464.1</ele>
        <time>2019-08-13T06:55:09Z</time>
      </trkpt>
      <trkpt lat="39.8730230" lon="-4.0796510">
        <ele>464.5</ele>
        <time>2019-08-13T06:55:10Z</time>
      </trkpt>
      <trkpt lat="39.8730540" lon="-4.0796610">
        <ele>464.8</ele>
        <time>2019-08-13T06:55:11Z</time>
      </trkpt>
      <trkpt lat="39.8730840" lon="-4.0796700">
        <ele>464.8</ele>
        <time>2019-08-13T06:55:12Z</time>
      </trkpt>
      <trkpt lat="39.8731140" lon="-4.0796790">
        <ele>464.8</ele>
        <time>2019-08-13T06:55:13Z</time>
      </trkpt>
      <trkpt lat="39.8731410" lon="-4.0796880">
        <ele>465.0</ele>
        <time>2019-08-13T06:55:14Z</time>
      </trkpt>
      <trkpt lat="39.8731820" lon="-4.0797270">
        <ele>465.5</ele>
        <time>2019-08-13T06:55:16Z</time>
      </trkpt>
      <trkpt lat="39.8732010" lon="-4.0797880">
        <ele>465.9</ele>
        <time>2019-08-13T06:55:18Z</time>
      </trkpt>
      <trkpt lat="39.8732060" lon="-4.0798220">
        <ele>466.1</ele>
        <time>2019-08-13T06:55:19Z</time>
      </trkpt>
      <trkpt lat="39.8732100" lon="-4.0798590">
        <ele>466.3</ele>
        <time>2019-08-13T06:55:20Z</time>
      </trkpt>
      <trkpt lat="39.8732150" lon="-4.0798960">
        <ele>466.5</ele>
        <time>2019-08-13T06:55:21Z</time>
      </trkpt>
      <trkpt lat="39.8732200" lon="-4.0799330">
        <ele>467.0</ele>
        <time>2019-08-13T06:55:22Z</time>
      </trkpt>
      <trkpt lat="39.8732270" lon="-4.0799710">
        <ele>467.2</ele>
        <time>2019-08-13T06:55:23Z</time>
      </trkpt>
      <trkpt lat="39.8732330" lon="-4.0800080">
        <ele>467.5</ele>
        <time>2019-08-13T06:55:24Z</time>
      </trkpt>
      <trkpt lat="39.8732390" lon="-4.0800460">
        <ele>467.5</ele>
        <time>2019-08-13T06:55:25Z</time>
      </trkpt>
      <trkpt lat="39.8732420" lon="-4.0800850">
        <ele>467.8</ele>
        <time>2019-08-13T06:55:26Z</time>
      </trkpt>
      <trkpt lat="39.8732430" lon="-4.0801250">
        <ele>468.1</ele>
        <time>2019-08-13T06:55:27Z</time>
      </trkpt>
      <trkpt lat="39.8732400" lon="-4.0801680">
        <ele>468.5</ele>
        <time>2019-08-13T06:55:28Z</time>
      </trkpt>
      <trkpt lat="39.8732340" lon="-4.0802120">
        <ele>468.8</ele>
        <time>2019-08-13T06:55:29Z</time>
      </trkpt>
      <trkpt lat="39.8732250" lon="-4.0802580">
        <ele>469.2</ele>
        <time>2019-08-13T06:55:30Z</time>
      </trkpt>
      <trkpt lat="39.8732120" lon="-4.0803020">
        <ele>469.3</ele>
        <time>2019-08-13T06:55:31Z</time>
      </trkpt>
      <trkpt lat="39.8731980" lon="-4.0803470">
        <ele>469.7</ele>
        <time>2019-08-13T06:55:32Z</time>
      </trkpt>
      <trkpt lat="39.8731830" lon="-4.0803920">
        <ele>470.2</ele>
        <time>2019-08-13T06:55:33Z</time>
      </trkpt>
      <trkpt lat="39.8731690" lon="-4.0804390">
        <ele>470.6</ele>
        <time>2019-08-13T06:55:34Z</time>
      </trkpt>
      <trkpt lat="39.8731560" lon="-4.0804850">
        <ele>471.1</ele>
        <time>2019-08-13T06:55:35Z</time>
      </trkpt>
      <trkpt lat="39.8731420" lon="-4.0805330">
        <ele>471.2</ele>
        <time>2019-08-13T06:55:36Z</time>
      </trkpt>
      <trkpt lat="39.8731290" lon="-4.0805800">
        <ele>471.6</ele>
        <time>2019-08-13T06:55:37Z</time>
      </trkpt>
      <trkpt lat="39.8731160" lon="-4.0806300">
        <ele>471.7</ele>
        <time>2019-08-13T06:55:38Z</time>
      </trkpt>
      <trkpt lat="39.8731040" lon="-4.0806820">
        <ele>472.1</ele>
        <time>2019-08-13T06:55:39Z</time>
      </trkpt>
      <trkpt lat="39.8730900" lon="-4.0807360">
        <ele>472.9</ele>
        <time>2019-08-13T06:55:40Z</time>
      </trkpt>
      <trkpt lat="39.8730770" lon="-4.0807910">
        <ele>472.8</ele>
        <time>2019-08-13T06:55:41Z</time>
      </trkpt>
      <trkpt lat="39.8730640" lon="-4.0808490">
        <ele>473.1</ele>
        <time>2019-08-13T06:55:42Z</time>
      </trkpt>
      <trkpt lat="39.8730480" lon="-4.0809070">
        <ele>473.2</ele>
        <time>2019-08-13T06:55:43Z</time>
      </trkpt>
      <trkpt lat="39.8730290" lon="-4.0809610">
        <ele>473.6</ele>
        <time>2019-08-13T06:55:44Z</time>
      </trkpt>
      <trkpt lat="39.8730070" lon="-4.0810140">
        <ele>473.4</ele>
        <time>2019-08-13T06:55:45Z</time>
      </trkpt>
      <trkpt lat="39.8729850" lon="-4.0810670">
        <ele>473.3</ele>
        <time>2019-08-13T06:55:46Z</time>
      </trkpt>
      <trkpt lat="39.8729640" lon="-4.0811210">
        <ele>474.0</ele>
        <time>2019-08-13T06:55:47Z</time>
      </trkpt>
      <trkpt lat="39.8729430" lon="-4.0811730">
        <ele>473.9</ele>
        <time>2019-08-13T06:55:48Z</time>
      </trkpt>
      <trkpt lat="39.8729210" lon="-4.0812250">
        <ele>473.7</ele>
        <time>2019-08-13T06:55:49Z</time>
      </trkpt>
      <trkpt lat="39.8728990" lon="-4.0812750">
        <ele>473.9</ele>
        <time>2019-08-13T06:55:50Z</time>
      </trkpt>
      <trkpt lat="39.8728780" lon="-4.0813240">
        <ele>473.6</ele>
        <time>2019-08-13T06:55:51Z</time>
      </trkpt>
      <trkpt lat="39.8728580" lon="-4.0813730">
        <ele>473.9</ele>
        <time>2019-08-13T06:55:52Z</time>
      </trkpt>
      <trkpt lat="39.8728370" lon="-4.0814240">
        <ele>473.8</ele>
        <time>2019-08-13T06:55:53Z</time>
      </trkpt>
      <trkpt lat="39.8728160" lon="-4.0814750">
        <ele>473.6</ele>
        <time>2019-08-13T06:55:54Z</time>
      </trkpt>
      <trkpt lat="39.8727950" lon="-4.0815280">
        <ele>473.8</ele>
        <time>2019-08-13T06:55:55Z</time>
      </trkpt>
      <trkpt lat="39.8727750" lon="-4.0815800">
        <ele>473.5</ele>
        <time>2019-08-13T06:55:56Z</time>
      </trkpt>
      <trkpt lat="39.8727550" lon="-4.0816310">
        <ele>473.1</ele>
        <time>2019-08-13T06:55:57Z</time>
      </trkpt>
      <trkpt lat="39.8727340" lon="-4.0816820">
        <ele>473.4</ele>
        <time>2019-08-13T06:55:58Z</time>
      </trkpt>
      <trkpt lat="39.8727140" lon="-4.0817320">
        <ele>473.0</ele>
        <time>2019-08-13T06:55:59Z</time>
      </trkpt>
      <trkpt lat="39.8726950" lon="-4.0817820">
        <ele>473.0</ele>
        <time>2019-08-13T06:56:00Z</time>
      </trkpt>
      <trkpt lat="39.8726770" lon="-4.0818310">
        <ele>472.5</ele>
        <time>2019-08-13T06:56:01Z</time>
      </trkpt>
      <trkpt lat="39.8726570" lon="-4.0818810">
        <ele>472.1</ele>
        <time>2019-08-13T06:56:02Z</time>
      </trkpt>
      <trkpt lat="39.8726390" lon="-4.0819300">
        <ele>472.1</ele>
        <time>2019-08-13T06:56:03Z</time>
      </trkpt>
      <trkpt lat="39.8726200" lon="-4.0819790">
        <ele>471.7</ele>
        <time>2019-08-13T06:56:04Z</time>
      </trkpt>
      <trkpt lat="39.8726040" lon="-4.0820260">
        <ele>471.7</ele>
        <time>2019-08-13T06:56:05Z</time>
      </trkpt>
      <trkpt lat="39.8725880" lon="-4.0820730">
        <ele>471.1</ele>
        <time>2019-08-13T06:56:06Z</time>
      </trkpt>
      <trkpt lat="39.8725700" lon="-4.0821210">
        <ele>471.1</ele>
        <time>2019-08-13T06:56:07Z</time>
      </trkpt>
      <trkpt lat="39.8725520" lon="-4.0821680">
        <ele>470.6</ele>
        <time>2019-08-13T06:56:08Z</time>
      </trkpt>
      <trkpt lat="39.8725340" lon="-4.0822130">
        <ele>470.5</ele>
        <time>2019-08-13T06:56:09Z</time>
      </trkpt>
      <trkpt lat="39.8725180" lon="-4.0822560">
        <ele>470.0</ele>
        <time>2019-08-13T06:56:10Z</time>
      </trkpt>
      <trkpt lat="39.8725040" lon="-4.0822940">
        <ele>469.9</ele>
        <time>2019-08-13T06:56:11Z</time>
      </trkpt>
      <trkpt lat="39.8724920" lon="-4.0823310">
        <ele>469.3</ele>
        <time>2019-08-13T06:56:12Z</time>
      </trkpt>
      <trkpt lat="39.8724850" lon="-4.0823670">
        <ele>469.2</ele>
        <time>2019-08-13T06:56:13Z</time>
      </trkpt>
      <trkpt lat="39.8724790" lon="-4.0824050">
        <ele>469.2</ele>
        <time>2019-08-13T06:56:14Z</time>
      </trkpt>
      <trkpt lat="39.8724710" lon="-4.0824430">
        <ele>469.0</ele>
        <time>2019-08-13T06:56:15Z</time>
      </trkpt>
      <trkpt lat="39.8724610" lon="-4.0824810">
        <ele>468.4</ele>
        <time>2019-08-13T06:56:16Z</time>
      </trkpt>
      <trkpt lat="39.8724500" lon="-4.0825160">
        <ele>468.3</ele>
        <time>2019-08-13T06:56:17Z</time>
      </trkpt>
      <trkpt lat="39.8724380" lon="-4.0825510">
        <ele>468.2</ele>
        <time>2019-08-13T06:56:18Z</time>
      </trkpt>
      <trkpt lat="39.8724220" lon="-4.0825830">
        <ele>467.6</ele>
        <time>2019-08-13T06:56:19Z</time>
      </trkpt>
      <trkpt lat="39.8724040" lon="-4.0826140">
        <ele>467.6</ele>
        <time>2019-08-13T06:56:20Z</time>
      </trkpt>
      <trkpt lat="39.8723890" lon="-4.0826430">
        <ele>467.1</ele>
        <time>2019-08-13T06:56:21Z</time>
      </trkpt>
      <trkpt lat="39.8723670" lon="-4.0826970">
        <ele>467.0</ele>
        <time>2019-08-13T06:56:23Z</time>
      </trkpt>
      <trkpt lat="39.8723510" lon="-4.0827530">
        <ele>466.4</ele>
        <time>2019-08-13T06:56:25Z</time>
      </trkpt>
      <trkpt lat="39.8723410" lon="-4.0827850">
        <ele>466.4</ele>
        <time>2019-08-13T06:56:26Z</time>
      </trkpt>
      <trkpt lat="39.8723300" lon="-4.0828230">
        <ele>465.9</ele>
        <time>2019-08-13T06:56:27Z</time>
      </trkpt>
      <trkpt lat="39.8723180" lon="-4.0828650">
        <ele>465.8</ele>
        <time>2019-08-13T06:56:28Z</time>
      </trkpt>
      <trkpt lat="39.8723070" lon="-4.0829100">
        <ele>465.6</ele>
        <time>2019-08-13T06:56:29Z</time>
      </trkpt>
      <trkpt lat="39.8722980" lon="-4.0829580">
        <ele>465.5</ele>
        <time>2019-08-13T06:56:30Z</time>
      </trkpt>
      <trkpt lat="39.8722910" lon="-4.0830080">
        <ele>464.9</ele>
        <time>2019-08-13T06:56:31Z</time>
      </trkpt>
      <trkpt lat="39.8722870" lon="-4.0830540">
        <ele>464.5</ele>
        <time>2019-08-13T06:56:32Z</time>
      </trkpt>
      <trkpt lat="39.8722830" lon="-4.0830930">
        <ele>464.5</ele>
        <time>2019-08-13T06:56:33Z</time>
      </trkpt>
      <trkpt lat="39.8722740" lon="-4.0831590">
        <ele>464.1</ele>
        <time>2019-08-13T06:56:35Z</time>
      </trkpt>
      <trkpt lat="39.8722750" lon="-4.0831950">
        <ele>463.8</ele>
        <time>2019-08-13T06:56:36Z</time>
      </trkpt>
      <trkpt lat="39.8722870" lon="-4.0832290">
        <ele>463.6</ele>
        <time>2019-08-13T06:56:37Z</time>
      </trkpt>
      <trkpt lat="39.8723080" lon="-4.0832590">
        <ele>463.9</ele>
        <time>2019-08-13T06:56:38Z</time>
      </trkpt>
      <trkpt lat="39.8723310" lon="-4.0832890">
        <ele>464.0</ele>
        <time>2019-08-13T06:56:39Z</time>
      </trkpt>
      <trkpt lat="39.8723510" lon="-4.0833160">
        <ele>463.9</ele>
        <time>2019-08-13T06:56:40Z</time>
      </trkpt>
      <trkpt lat="39.8723700" lon="-4.0833420">
        <ele>464.2</ele>
        <time>2019-08-13T06:56:41Z</time>
      </trkpt>
      <trkpt lat="39.8724040" lon="-4.0833930">
        <ele>464.6</ele>
        <time>2019-08-13T06:56:43Z</time>
      </trkpt>
      <trkpt lat="39.8724380" lon="-4.0834460">
        <ele>464.9</ele>
        <time>2019-08-13T06:56:45Z</time>
      </trkpt>
      <trkpt lat="39.8724540" lon="-4.0834740">
        <ele>464.9</ele>
        <time>2019-08-13T06:56:46Z</time>
      </trkpt>
      <trkpt lat="39.8724700" lon="-4.0835030">
        <ele>465.5</ele>
        <time>2019-08-13T06:56:47Z</time>
      </trkpt>
      <trkpt lat="39.8724990" lon="-4.0835600">
        <ele>466.1</ele>
        <time>2019-08-13T06:56:49Z</time>
      </trkpt>
      <trkpt lat="39.8725270" lon="-4.0836140">
        <ele>466.4</ele>
        <time>2019-08-13T06:56:51Z</time>
      </trkpt>
      <trkpt lat="39.8725540" lon="-4.0836690">
        <ele>467.3</ele>
        <time>2019-08-13T06:56:53Z</time>
      </trkpt>
      <trkpt lat="39.8725800" lon="-4.0837240">
        <ele>468.2</ele>
        <time>2019-08-13T06:56:55Z</time>
      </trkpt>
      <trkpt lat="39.8726060" lon="-4.0837800">
        <ele>469.2</ele>
        <time>2019-08-13T06:56:57Z</time>
      </trkpt>
      <trkpt lat="39.8726290" lon="-4.0838430">
        <ele>470.5</ele>
        <time>2019-08-13T06:56:59Z</time>
      </trkpt>
      <trkpt lat="39.8726550" lon="-4.0839000">
        <ele>470.8</ele>
        <time>2019-08-13T06:57:01Z</time>
      </trkpt>
      <trkpt lat="39.8726830" lon="-4.0839540">
        <ele>471.9</ele>
        <time>2019-08-13T06:57:03Z</time>
      </trkpt>
      <trkpt lat="39.8727100" lon="-4.0840090">
        <ele>472.6</ele>
        <time>2019-08-13T06:57:05Z</time>
      </trkpt>
      <trkpt lat="39.8727340" lon="-4.0840640">
        <ele>473.3</ele>
        <time>2019-08-13T06:57:07Z</time>
      </trkpt>
      <trkpt lat="39.8727580" lon="-4.0841170">
        <ele>473.5</ele>
        <time>2019-08-13T06:57:09Z</time>
      </trkpt>
      <trkpt lat="39.8727810" lon="-4.0841710">
        <ele>474.4</ele>
        <time>2019-08-13T06:57:11Z</time>
      </trkpt>
      <trkpt lat="39.8728040" lon="-4.0842280">
        <ele>474.9</ele>
        <time>2019-08-13T06:57:13Z</time>
      </trkpt>
      <trkpt lat="39.8728260" lon="-4.0842890">
        <ele>475.4</ele>
        <time>2019-08-13T06:57:15Z</time>
      </trkpt>
      <trkpt lat="39.8728480" lon="-4.0843470">
        <ele>475.9</ele>
        <time>2019-08-13T06:57:17Z</time>
      </trkpt>
      <trkpt lat="39.8728710" lon="-4.0844030">
        <ele>476.4</ele>
        <time>2019-08-13T06:57:19Z</time>
      </trkpt>
      <trkpt lat="39.8728920" lon="-4.0844570">
        <ele>476.8</ele>
        <time>2019-08-13T06:57:21Z</time>
      </trkpt>
      <trkpt lat="39.8729100" lon="-4.0845110">
        <ele>477.5</ele>
        <time>2019-08-13T06:57:23Z</time>
      </trkpt>
      <trkpt lat="39.8729260" lon="-4.0845620">
        <ele>478.0</ele>
        <time>2019-08-13T06:57:25Z</time>
      </trkpt>
      <trkpt lat="39.8729410" lon="-4.0846140">
        <ele>478.3</ele>
        <time>2019-08-13T06:57:27Z</time>
      </trkpt>
      <trkpt lat="39.8729570" lon="-4.0846650">
        <ele>478.8</ele>
        <time>2019-08-13T06:57:29Z</time>
      </trkpt>
      <trkpt lat="39.8729690" lon="-4.0847180">
        <ele>479.2</ele>
        <time>2019-08-13T06:57:31Z</time>
      </trkpt>
      <trkpt lat="39.8729810" lon="-4.0847720">
        <ele>480.0</ele>
        <time>2019-08-13T06:57:33Z</time>
      </trkpt>
      <trkpt lat="39.8729950" lon="-4.0848240">
        <ele>480.4</ele>
        <time>2019-08-13T06:57:35Z</time>
      </trkpt>
      <trkpt lat="39.8730090" lon="-4.0848790">
        <ele>480.7</ele>
        <time>2019-08-13T06:57:37Z</time>
      </trkpt>
      <trkpt lat="39.8730270" lon="-4.0849330">
        <ele>481.1</ele>
        <time>2019-08-13T06:57:39Z</time>
      </trkpt>
      <trkpt lat="39.8730460" lon="-4.0849860">
        <ele>481.8</ele>
        <time>2019-08-13T06:57:41Z</time>
      </trkpt>
      <trkpt lat="39.8730640" lon="-4.0850350">
        <ele>482.1</ele>
        <time>2019-08-13T06:57:43Z</time>
      </trkpt>
      <trkpt lat="39.8730820" lon="-4.0850810">
        <ele>482.5</ele>
        <time>2019-08-13T06:57:45Z</time>
      </trkpt>
      <trkpt lat="39.8731010" lon="-4.0851240">
        <ele>482.8</ele>
        <time>2019-08-13T06:57:47Z</time>
      </trkpt>
      <trkpt lat="39.8731180" lon="-4.0851670">
        <ele>483.1</ele>
        <time>2019-08-13T06:57:49Z</time>
      </trkpt>
      <trkpt lat="39.8731360" lon="-4.0852110">
        <ele>483.4</ele>
        <time>2019-08-13T06:57:51Z</time>
      </trkpt>
      <trkpt lat="39.8731540" lon="-4.0852560">
        <ele>483.7</ele>
        <time>2019-08-13T06:57:53Z</time>
      </trkpt>
      <trkpt lat="39.8731740" lon="-4.0853020">
        <ele>484.0</ele>
        <time>2019-08-13T06:57:55Z</time>
      </trkpt>
      <trkpt lat="39.8731950" lon="-4.0853490">
        <ele>484.3</ele>
        <time>2019-08-13T06:57:57Z</time>
      </trkpt>
      <trkpt lat="39.8732140" lon="-4.0853940">
        <ele>484.5</ele>
        <time>2019-08-13T06:57:59Z</time>
      </trkpt>
      <trkpt lat="39.8732320" lon="-4.0854370">
        <ele>484.8</ele>
        <time>2019-08-13T06:58:01Z</time>
      </trkpt>
      <trkpt lat="39.8732500" lon="-4.0854790">
        <ele>485.1</ele>
        <time>2019-08-13T06:58:03Z</time>
      </trkpt>
      <trkpt lat="39.8732670" lon="-4.0855220">
        <ele>485.4</ele>
        <time>2019-08-13T06:58:05Z</time>
      </trkpt>
      <trkpt lat="39.8732850" lon="-4.0855660">
        <ele>485.7</ele>
        <time>2019-08-13T06:58:07Z</time>
      </trkpt>
      <trkpt lat="39.8733060" lon="-4.0856120">
        <ele>485.9</ele>
        <time>2019-08-13T06:58:09Z</time>
      </trkpt>
      <trkpt lat="39.8733270" lon="-4.0856590">
        <ele>486.2</ele>
        <time>2019-08-13T06:58:11Z</time>
      </trkpt>
      <trkpt lat="39.8733490" lon="-4.0857050">
        <ele>486.4</ele>
        <time>2019-08-13T06:58:13Z</time>
      </trkpt>
      <trkpt lat="39.8733730" lon="-4.0857480">
        <ele>486.6</ele>
        <time>2019-08-13T06:58:15Z</time>
      </trkpt>
      <trkpt lat="39.8733960" lon="-4.0857890">
        <ele>486.7</ele>
        <time>2019-08-13T06:58:17Z</time>
      </trkpt>
      <trkpt lat="39.8734200" lon="-4.0858290">
        <ele>486.9</ele>
        <time>2019-08-13T06:58:19Z</time>
      </trkpt>
      <trkpt lat="39.8734470" lon="-4.0858690">
        <ele>487.1</ele>
        <time>2019-08-13T06:58:21Z</time>
      </trkpt>
      <trkpt lat="39.8734720" lon="-4.0859110">
        <ele>487.3</ele>
        <time>2019-08-13T06:58:23Z</time>
      </trkpt>
      <trkpt lat="39.8734980" lon="-4.0859520">
        <ele>487.4</ele>
        <time>2019-08-13T06:58:25Z</time>
      </trkpt>
      <trkpt lat="39.8735210" lon="-4.0859920">
        <ele>487.6</ele>
        <time>2019-08-13T06:58:27Z</time>
      </trkpt>
      <trkpt lat="39.8735440" lon="-4.0860290">
        <ele>487.8</ele>
        <time>2019-08-13T06:58:29Z</time>
      </trkpt>
      <trkpt lat="39.8735650" lon="-4.0860640">
        <ele>487.9</ele>
        <time>2019-08-13T06:58:31Z</time>
      </trkpt>
      <trkpt lat="39.8735860" lon="-4.0861010">
        <ele>488.1</ele>
        <time>2019-08-13T06:58:33Z</time>
      </trkpt>
      <trkpt lat="39.8736090" lon="-4.0861390">
        <ele>488.1</ele>
        <time>2019-08-13T06:58:35Z</time>
      </trkpt>
      <trkpt lat="39.8736320" lon="-4.0861740">
        <ele>488.3</ele>
        <time>2019-08-13T06:58:37Z</time>
      </trkpt>
      <trkpt lat="39.8736540" lon="-4.0862130">
        <ele>488.6</ele>
        <time>2019-08-13T06:58:39Z</time>
      </trkpt>
      <trkpt lat="39.8736790" lon="-4.0862490">
        <ele>488.8</ele>
        <time>2019-08-13T06:58:41Z</time>
      </trkpt>
      <trkpt lat="39.8737030" lon="-4.0862830">
        <ele>489.2</ele>
        <time>2019-08-13T06:58:43Z</time>
      </trkpt>
      <trkpt lat="39.8737270" lon="-4.0863180">
        <ele>489.6</ele>
        <time>2019-08-13T06:58:45Z</time>
      </trkpt>
      <trkpt lat="39.8737500" lon="-4.0863510">
        <ele>489.7</ele>
        <time>2019-08-13T06:58:47Z</time>
      </trkpt>
      <trkpt lat="39.8737740" lon="-4.0863840">
        <ele>490.1</ele>
        <time>2019-08-13T06:58:49Z</time>
      </trkpt>
      <trkpt lat="39.8737970" lon="-4.0864190">
        <ele>490.7</ele>
        <time>2019-08-13T06:58:51Z</time>
      </trkpt>
      <trkpt lat="39.8738230" lon="-4.0864520">
        <ele>491.4</ele>
        <time>2019-08-13T06:58:53Z</time>
      </trkpt>
      <trkpt lat="39.8738510" lon="-4.0864790">
        <ele>491.7</ele>
        <time>2019-08-13T06:58:55Z</time>
      </trkpt>
      <trkpt lat="39.8738800" lon="-4.0865040">
        <ele>492.5</ele>
        <time>2019-08-13T06:58:57Z</time>
      </trkpt>
      <trkpt lat="39.8739110" lon="-4.0865270">
        <ele>492.5</ele>
        <time>2019-08-13T06:58:59Z</time>
      </trkpt>
      <trkpt lat="39.8739460" lon="-4.0865490">
        <ele>493.5</ele>
        <time>2019-08-13T06:59:01Z</time>
      </trkpt>
      <trkpt lat="39.8739820" lon="-4.0865650">
        <ele>493.8</ele>
        <time>2019-08-13T06:59:03Z</time>
      </trkpt>
      <trkpt lat="39.8740170" lon="-4.0865810">
        <ele>494.4</ele>
        <time>2019-08-13T06:59:05Z</time>
      </trkpt>
      <trkpt lat="39.8740570" lon="-4.0865980">
        <ele>494.6</ele>
        <time>2019-08-13T06:59:07Z</time>
      </trkpt>
      <trkpt lat="39.8740980" lon="-4.0866110">
        <ele>494.8</ele>
        <time>2019-08-13T06:59:09Z</time>
      </trkpt>
      <trkpt lat="39.8741390" lon="-4.0866260">
        <ele>495.3</ele>
        <time>2019-08-13T06:59:11Z</time>
      </trkpt>
      <trkpt lat="39.8741790" lon="-4.0866440">
        <ele>495.6</ele>
        <time>2019-08-13T06:59:13Z</time>
      </trkpt>
      <trkpt lat="39.8742140" lon="-4.0866690">
        <ele>496.1</ele>
        <time>2019-08-13T06:59:15Z</time>
      </trkpt>
      <trkpt lat="39.8742450" lon="-4.0866990">
        <ele>496.3</ele>
        <time>2019-08-13T06:59:17Z</time>
      </trkpt>
      <trkpt lat="39.8742720" lon="-4.0867330">
        <ele>496.7</ele>
        <time>2019-08-13T06:59:19Z</time>
      </trkpt>
      <trkpt lat="39.8742940" lon="-4.0867690">
        <ele>497.3</ele>
        <time>2019-08-13T06:59:21Z</time>
      </trkpt>
      <trkpt lat="39.8743140" lon="-4.0868070">
        <ele>497.9</ele>
        <time>2019-08-13T06:59:23Z</time>
      </trkpt>
      <trkpt lat="39.8743330" lon="-4.0868450">
        <ele>498.4</ele>
        <time>2019-08-13T06:59:25Z</time>
      </trkpt>
      <trkpt lat="39.8743490" lon="-4.0868840">
        <ele>499.0</ele>
        <time>2019-08-13T06:59:27Z</time>
      </trkpt>
      <trkpt lat="39.8743640" lon="-4.0869260">
        <ele>499.8</ele>
        <time>2019-08-13T06:59:29Z</time>
      </trkpt>
      <trkpt lat="39.8743780" lon="-4.0869690">
        <ele>500.4</ele>
        <time>2019-08-13T06:59:31Z</time>
      </trkpt>
      <trkpt lat="39.8743920" lon="-4.0870110">
        <ele>500.8</ele>
        <time>2019-08-13T06:59:33Z</time>
      </trkpt>
      <trkpt lat="39.8744090" lon="-4.0870530">
        <ele>501.4</ele>
        <time>2019-08-13T06:59:35Z</time>
      </trkpt>
      <trkpt lat="39.8744280" lon="-4.0870920">
        <ele>501.8</ele>
        <time>2019-08-13T06:59:37Z</time>
      </trkpt>
      <trkpt lat="39.8744470" lon="-4.0871310">
        <ele>502.4</ele>
        <time>2019-08-13T06:59:39Z</time>
      </trkpt>
      <trkpt lat="39.8744680" lon="-4.0871700">
        <ele>502.4</ele>
        <time>2019-08-13T06:59:41Z</time>
      </trkpt>
      <trkpt lat="39.8744900" lon="-4.0872060">
        <ele>503.0</ele>
        <time>2019-08-13T06:59:43Z</time>
      </trkpt>
      <trkpt lat="39.8745120" lon="-4.0872420">
        <ele>503.7</ele>
        <time>2019-08-13T06:59:45Z</time>
      </trkpt>
      <trkpt lat="39.8745320" lon="-4.0872720">
        <ele>504.1</ele>
        <time>2019-08-13T06:59:47Z</time>
      </trkpt>
      <trkpt lat="39.8745540" lon="-4.0873010">
        <ele>504.8</ele>
        <time>2019-08-13T06:59:49Z</time>
      </trkpt>
      <trkpt lat="39.8745760" lon="-4.0873320">
        <ele>505.0</ele>
        <time>2019-08-13T06:59:51Z</time>
      </trkpt>
      <trkpt lat="39.8745970" lon="-4.0873630">
        <ele>505.4</ele>
        <time>2019-08-13T06:59:53Z</time>
      </trkpt>
      <trkpt lat="39.8746190" lon="-4.0873950">
        <ele>506.0</ele>
        <time>2019-08-13T06:59:55Z</time>
      </trkpt>
      <trkpt lat="39.8746380" lon="-4.0874250">
        <ele>506.3</ele>
        <time>2019-08-13T06:59:57Z</time>
      </trkpt>
      <trkpt lat="39.8746570" lon="-4.0874570">
        <ele>506.7</ele>
        <time>2019-08-13T06:59:59Z</time>
      </trkpt>
      <trkpt lat="39.8746770" lon="-4.0874880">
        <ele>507.3</ele>
        <time>2019-08-13T07:00:01Z</time>
      </trkpt>
      <trkpt lat="39.8746950" lon="-4.0875170">
        <ele>507.6</ele>
        <time>2019-08-13T07:00:03Z</time>
      </trkpt>
      <trkpt lat="39.8747130" lon="-4.0875490">
        <ele>507.9</ele>
        <time>2019-08-13T07:00:05Z</time>
      </trkpt>
      <trkpt lat="39.8747330" lon="-4.0875790">
        <ele>508.2</ele>
        <time>2019-08-13T07:00:07Z</time>
      </trkpt>
      <trkpt lat="39.8747490" lon="-4.0876100">
        <ele>508.8</ele>
        <time>2019-08-13T07:00:09Z</time>
      </trkpt>
      <trkpt lat="39.8747690" lon="-4.0876400">
        <ele>509.1</ele>
        <time>2019-08-13T07:00:11Z</time>
      </trkpt>
      <trkpt lat="39.8747880" lon="-4.0876670">
        <ele>509.4</ele>
        <time>2019-08-13T07:00:13Z</time>
      </trkpt>
      <trkpt lat="39.8748050" lon="-4.0876950">
        <ele>509.9</ele>
        <time>2019-08-13T07:00:15Z</time>
      </trkpt>
      <trkpt lat="39.8748220" lon="-4.0877230">
        <ele>509.9</ele>
        <time>2019-08-13T07:00:17Z</time>
      </trkpt>
      <trkpt lat="39.8748380" lon="-4.0877520">
        <ele>510.5</ele>
        <time>2019-08-13T07:00:19Z</time>
      </trkpt>
      <trkpt lat="39.8748540" lon="-4.0877820">
        <ele>510.8</ele>
        <time>2019-08-13T07:00:21Z</time>
      </trkpt>
      <trkpt lat="39.8748720" lon="-4.0878100">
        <ele>511.0</ele>
        <time>2019-08-13T07:00:23Z</time>
      </trkpt>
      <trkpt lat="39.8748910" lon="-4.0878370">
        <ele>511.3</ele>
        <time>2019-08-13T07:00:25Z</time>
      </trkpt>
      <trkpt lat="39.8749080" lon="-4.0878670">
        <ele>511.7</ele>
        <time>2019-08-13T07:00:27Z</time>
      </trkpt>
      <trkpt lat="39.8749240" lon="-4.0878970">
        <ele>511.7</ele>
        <time>2019-08-13T07:00:29Z</time>
      </trkpt>
      <trkpt lat="39.8749400" lon="-4.0879260">
        <ele>512.2</ele>
        <time>2019-08-13T07:00:31Z</time>
      </trkpt>
      <trkpt lat="39.8749580" lon="-4.0879530">
        <ele>512.5</ele>
        <time>2019-08-13T07:00:33Z</time>
      </trkpt>
      <trkpt lat="39.8749750" lon="-4.0879810">
        <ele>512.6</ele>
        <time>2019-08-13T07:00:35Z</time>
      </trkpt>
      <trkpt lat="39.8749910" lon="-4.0880110">
        <ele>512.9</ele>
        <time>2019-08-13T07:00:37Z</time>
      </trkpt>
      <trkpt lat="39.8750080" lon="-4.0880410">
        <ele>513.3</ele>
        <time>2019-08-13T07:00:39Z</time>
      </trkpt>
      <trkpt lat="39.8750260" lon="-4.0880730">
        <ele>513.5</ele>
        <time>2019-08-13T07:00:41Z</time>
      </trkpt>
      <trkpt lat="39.8750450" lon="-4.0880990">
        <ele>513.6</ele>
        <time>2019-08-13T07:00:43Z</time>
      </trkpt>
      <trkpt lat="39.8750630" lon="-4.0881280">
        <ele>513.8</ele>
        <time>2019-08-13T07:00:45Z</time>
      </trkpt>
      <trkpt lat="39.8750770" lon="-4.0881750">
        <ele>514.1</ele>
        <time>2019-08-13T07:00:48Z</time>
      </trkpt>
      <trkpt lat="39.8750900" lon="-4.0882190">
        <ele>514.2</ele>
        <time>2019-08-13T07:00:51Z</time>
      </trkpt>
      <trkpt lat="39.8751080" lon="-4.0882660">
        <ele>514.4</ele>
        <time>2019-08-13T07:00:54Z</time>
      </trkpt>
      <trkpt lat="39.8751180" lon="-4.0883040">
        <ele>514.5</ele>
        <time>2019-08-13T07:00:56Z</time>
      </trkpt>
      <trkpt lat="39.8751290" lon="-4.0883460">
        <ele>514.5</ele>
        <time>2019-08-13T07:00:58Z</time>
      </trkpt>
      <trkpt lat="39.8751430" lon="-4.0883890">
        <ele>514.6</ele>
        <time>2019-08-13T07:01:00Z</time>
      </trkpt>
      <trkpt lat="39.8751580" lon="-4.0884420">
        <ele>514.6</ele>
        <time>2019-08-13T07:01:02Z</time>
      </trkpt>
      <trkpt lat="39.8751740" lon="-4.0885020">
        <ele>514.6</ele>
        <time>2019-08-13T07:01:04Z</time>
      </trkpt>
      <trkpt lat="39.8751900" lon="-4.0885610">
        <ele>514.5</ele>
        <time>2019-08-13T07:01:06Z</time>
      </trkpt>
      <trkpt lat="39.8752070" lon="-4.0886140">
        <ele>514.5</ele>
        <time>2019-08-13T07:01:08Z</time>
      </trkpt>
      <trkpt lat="39.8752220" lon="-4.0886650">
        <ele>514.4</ele>
        <time>2019-08-13T07:01:10Z</time>
      </trkpt>
      <trkpt lat="39.8752330" lon="-4.0887150">
        <ele>514.4</ele>
        <time>2019-08-13T07:01:12Z</time>
      </trkpt>
      <trkpt lat="39.8752430" lon="-4.0887600">
        <ele>514.1</ele>
        <time>2019-08-13T07:01:14Z</time>
      </trkpt>
      <trkpt lat="39.8752580" lon="-4.0888030">
        <ele>514.0</ele>
        <time>2019-08-13T07:01:16Z</time>
      </trkpt>
      <trkpt lat="39.8752750" lon="-4.0888500">
        <ele>514.0</ele>
        <time>2019-08-13T07:01:18Z</time>
      </trkpt>
      <trkpt lat="39.8752880" lon="-4.0888820">
        <ele>514.0</ele>
        <time>2019-08-13T07:01:19Z</time>
      </trkpt>
      <trkpt lat="39.8753020" lon="-4.0889180">
        <ele>514.0</ele>
        <time>2019-08-13T07:01:20Z</time>
      </trkpt>
      <trkpt lat="39.8753150" lon="-4.0889540">
        <ele>513.9</ele>
        <time>2019-08-13T07:01:21Z</time>
      </trkpt>
      <trkpt lat="39.8753290" lon="-4.0889900">
        <ele>513.9</ele>
        <time>2019-08-13T07:01:22Z</time>
      </trkpt>
      <trkpt lat="39.8753450" lon="-4.0890260">
        <ele>513.8</ele>
        <time>2019-08-13T07:01:23Z</time>
      </trkpt>
      <trkpt lat="39.8753610" lon="-4.0890630">
        <ele>513.7</ele>
        <time>2019-08-13T07:01:24Z</time>
      </trkpt>
      <trkpt lat="39.8753760" lon="-4.0891000">
        <ele>513.7</ele>
        <time>2019-08-13T07:01:25Z</time>
      </trkpt>
      <trkpt lat="39.8753930" lon="-4.0891390">
        <ele>513.6</ele>
        <time>2019-08-13T07:01:26Z</time>
      </trkpt>
      <trkpt lat="39.8754110" lon="-4.0891810">
        <ele>513.5</ele>
        <time>2019-08-13T07:01:27Z</time>
      </trkpt>
      <trkpt lat="39.8754320" lon="-4.0892260">
        <ele>513.5</ele>
        <time>2019-08-13T07:01:28Z</time>
      </trkpt>
      <trkpt lat="39.8754520" lon="-4.0892730">
        <ele>513.3</ele>
        <time>2019-08-13T07:01:29Z</time>
      </trkpt>
      <trkpt lat="39.8754740" lon="-4.0893210">
        <ele>513.2</ele>
        <time>2019-08-13T07:01:30Z</time>
      </trkpt>
      <trkpt lat="39.8754960" lon="-4.0893690">
        <ele>513.1</ele>
        <time>2019-08-13T07:01:31Z</time>
      </trkpt>
      <trkpt lat="39.8755210" lon="-4.0894130">
        <ele>513.0</ele>
        <time>2019-08-13T07:01:32Z</time>
      </trkpt>
      <trkpt lat="39.8755480" lon="-4.0894560">
        <ele>513.0</ele>
        <time>2019-08-13T07:01:33Z</time>
      </trkpt>
      <trkpt lat="39.8755770" lon="-4.0894940">
        <ele>512.9</ele>
        <time>2019-08-13T07:01:34Z</time>
      </trkpt>
      <trkpt lat="39.8756060" lon="-4.0895290">
        <ele>512.9</ele>
        <time>2019-08-13T07:01:35Z</time>
      </trkpt>
      <trkpt lat="39.8756380" lon="-4.0895600">
        <ele>512.8</ele>
        <time>2019-08-13T07:01:36Z</time>
      </trkpt>
      <trkpt lat="39.8756690" lon="-4.0895890">
        <ele>512.7</ele>
        <time>2019-08-13T07:01:37Z</time>
      </trkpt>
      <trkpt lat="39.8757010" lon="-4.0896150">
        <ele>512.7</ele>
        <time>2019-08-13T07:01:38Z</time>
      </trkpt>
      <trkpt lat="39.8757340" lon="-4.0896400">
        <ele>512.6</ele>
        <time>2019-08-13T07:01:39Z</time>
      </trkpt>
      <trkpt lat="39.8757690" lon="-4.0896640">
        <ele>512.5</ele>
        <time>2019-08-13T07:01:40Z</time>
      </trkpt>
      <trkpt lat="39.8758040" lon="-4.0896860">
        <ele>512.5</ele>
        <time>2019-08-13T07:01:41Z</time>
      </trkpt>
      <trkpt lat="39.8758400" lon="-4.0897040">
        <ele>512.3</ele>
        <time>2019-08-13T07:01:42Z</time>
      </trkpt>
      <trkpt lat="39.8758780" lon="-4.0897190">
        <ele>512.3</ele>
        <time>2019-08-13T07:01:43Z</time>
      </trkpt>
      <trkpt lat="39.8759150" lon="-4.0897330">
        <ele>512.3</ele>
        <time>2019-08-13T07:01:44Z</time>
      </trkpt>
      <trkpt lat="39.8759520" lon="-4.0897440">
        <ele>512.3</ele>
        <time>2019-08-13T07:01:45Z</time>
      </trkpt>
      <trkpt lat="39.8759880" lon="-4.0897540">
        <ele>512.0</ele>
        <time>2019-08-13T07:01:46Z</time>
      </trkpt>
      <trkpt lat="39.8760230" lon="-4.0897610">
        <ele>512.0</ele>
        <time>2019-08-13T07:01:47Z</time>
      </trkpt>
      <trkpt lat="39.8760580" lon="-4.0897650">
        <ele>512.0</ele>
        <time>2019-08-13T07:01:48Z</time>
      </trkpt>
      <trkpt lat="39.8760930" lon="-4.0897680">
        <ele>511.9</ele>
        <time>2019-08-13T07:01:49Z</time>
      </trkpt>
      <trkpt lat="39.8761280" lon="-4.0897710">
        <ele>511.9</ele>
        <time>2019-08-13T07:01:50Z</time>
      </trkpt>
      <trkpt lat="39.8761630" lon="-4.0897740">
        <ele>511.9</ele>
        <time>2019-08-13T07:01:51Z</time>
      </trkpt>
      <trkpt lat="39.8761990" lon="-4.0897760">
        <ele>511.9</ele>
        <time>2019-08-13T07:01:52Z</time>
      </trkpt>
      <trkpt lat="39.8762360" lon="-4.0897780">
        <ele>511.9</ele>
        <time>2019-08-13T07:01:53Z</time>
      </trkpt>
      <trkpt lat="39.8762760" lon="-4.0897810">
        <ele>512.0</ele>
        <time>2019-08-13T07:01:54Z</time>
      </trkpt>
      <trkpt lat="39.8763160" lon="-4.0897850">
        <ele>512.1</ele>
        <time>2019-08-13T07:01:55Z</time>
      </trkpt>
      <trkpt lat="39.8763570" lon="-4.0897880">
        <ele>512.2</ele>
        <time>2019-08-13T07:01:56Z</time>
      </trkpt>
      <trkpt lat="39.8763980" lon="-4.0897930">
        <ele>512.0</ele>
        <time>2019-08-13T07:01:57Z</time>
      </trkpt>
      <trkpt lat="39.8764400" lon="-4.0897970">
        <ele>512.2</ele>
        <time>2019-08-13T07:01:58Z</time>
      </trkpt>
      <trkpt lat="39.8764820" lon="-4.0898000">
        <ele>512.4</ele>
        <time>2019-08-13T07:01:59Z</time>
      </trkpt>
      <trkpt lat="39.8765270" lon="-4.0898020">
        <ele>512.6</ele>
        <time>2019-08-13T07:02:00Z</time>
      </trkpt>
      <trkpt lat="39.8765720" lon="-4.0898060">
        <ele>512.7</ele>
        <time>2019-08-13T07:02:01Z</time>
      </trkpt>
      <trkpt lat="39.8766170" lon="-4.0898150">
        <ele>513.0</ele>
        <time>2019-08-13T07:02:02Z</time>
      </trkpt>
      <trkpt lat="39.8766600" lon="-4.0898240">
        <ele>513.2</ele>
        <time>2019-08-13T07:02:03Z</time>
      </trkpt>
      <trkpt lat="39.8767040" lon="-4.0898340">
        <ele>513.1</ele>
        <time>2019-08-13T07:02:04Z</time>
      </trkpt>
      <trkpt lat="39.8767470" lon="-4.0898420">
        <ele>513.5</ele>
        <time>2019-08-13T07:02:05Z</time>
      </trkpt>
      <trkpt lat="39.8767900" lon="-4.0898490">
        <ele>513.6</ele>
        <time>2019-08-13T07:02:06Z</time>
      </trkpt>
      <trkpt lat="39.8768320" lon="-4.0898570">
        <ele>513.8</ele>
        <time>2019-08-13T07:02:07Z</time>
      </trkpt>
      <trkpt lat="39.8768730" lon="-4.0898660">
        <ele>514.0</ele>
        <time>2019-08-13T07:02:08Z</time>
      </trkpt>
      <trkpt lat="39.8769130" lon="-4.0898740">
        <ele>514.4</ele>
        <time>2019-08-13T07:02:09Z</time>
      </trkpt>
      <trkpt lat="39.8769520" lon="-4.0898830">
        <ele>514.3</ele>
        <time>2019-08-13T07:02:10Z</time>
      </trkpt>
      <trkpt lat="39.8769900" lon="-4.0898890">
        <ele>514.5</ele>
        <time>2019-08-13T07:02:11Z</time>
      </trkpt>
      <trkpt lat="39.8770270" lon="-4.0898970">
        <ele>514.6</ele>
        <time>2019-08-13T07:02:12Z</time>
      </trkpt>
      <trkpt lat="39.8770640" lon="-4.0899040">
        <ele>514.8</ele>
        <time>2019-08-13T07:02:13Z</time>
      </trkpt>
      <trkpt lat="39.8771010" lon="-4.0899090">
        <ele>514.9</ele>
        <time>2019-08-13T07:02:14Z</time>
      </trkpt>
      <trkpt lat="39.8771380" lon="-4.0899140">
        <ele>515.0</ele>
        <time>2019-08-13T07:02:15Z</time>
      </trkpt>
      <trkpt lat="39.8771740" lon="-4.0899180">
        <ele>515.1</ele>
        <time>2019-08-13T07:02:16Z</time>
      </trkpt>
      <trkpt lat="39.8772090" lon="-4.0899230">
        <ele>514.9</ele>
        <time>2019-08-13T07:02:17Z</time>
      </trkpt>
      <trkpt lat="39.8772430" lon="-4.0899260">
        <ele>515.0</ele>
        <time>2019-08-13T07:02:18Z</time>
      </trkpt>
      <trkpt lat="39.8772770" lon="-4.0899290">
        <ele>515.0</ele>
        <time>2019-08-13T07:02:19Z</time>
      </trkpt>
      <trkpt lat="39.8773110" lon="-4.0899310">
        <ele>515.1</ele>
        <time>2019-08-13T07:02:20Z</time>
      </trkpt>
      <trkpt lat="39.8773440" lon="-4.0899360">
        <ele>515.1</ele>
        <time>2019-08-13T07:02:21Z</time>
      </trkpt>
      <trkpt lat="39.8773780" lon="-4.0899380">
        <ele>515.1</ele>
        <time>2019-08-13T07:02:22Z</time>
      </trkpt>
      <trkpt lat="39.8774110" lon="-4.0899400">
        <ele>515.2</ele>
        <time>2019-08-13T07:02:23Z</time>
      </trkpt>
      <trkpt lat="39.8774450" lon="-4.0899400">
        <ele>515.3</ele>
        <time>2019-08-13T07:02:24Z</time>
      </trkpt>
      <trkpt lat="39.8774790" lon="-4.0899390">
        <ele>515.3</ele>
        <time>2019-08-13T07:02:25Z</time>
      </trkpt>
      <trkpt lat="39.8775110" lon="-4.0899360">
        <ele>515.4</ele>
        <time>2019-08-13T07:02:26Z</time>
      </trkpt>
      <trkpt lat="39.8775410" lon="-4.0899320">
        <ele>515.5</ele>
        <time>2019-08-13T07:02:27Z</time>
      </trkpt>
      <trkpt lat="39.8775710" lon="-4.0899270">
        <ele>515.5</ele>
        <time>2019-08-13T07:02:28Z</time>
      </trkpt>
      <trkpt lat="39.8776020" lon="-4.0899220">
        <ele>515.5</ele>
        <time>2019-08-13T07:02:29Z</time>
      </trkpt>
      <trkpt lat="39.8776310" lon="-4.0899150">
        <ele>515.8</ele>
        <time>2019-08-13T07:02:30Z</time>
      </trkpt>
      <trkpt lat="39.8776600" lon="-4.0899080">
        <ele>515.8</ele>
        <time>2019-08-13T07:02:31Z</time>
      </trkpt>
      <trkpt lat="39.8776880" lon="-4.0899010">
        <ele>515.8</ele>
        <time>2019-08-13T07:02:32Z</time>
      </trkpt>
      <trkpt lat="39.8777170" lon="-4.0898920">
        <ele>515.8</ele>
        <time>2019-08-13T07:02:33Z</time>
      </trkpt>
      <trkpt lat="39.8777460" lon="-4.0898830">
        <ele>515.9</ele>
        <time>2019-08-13T07:02:34Z</time>
      </trkpt>
      <trkpt lat="39.8777740" lon="-4.0898720">
        <ele>516.1</ele>
        <time>2019-08-13T07:02:35Z</time>
      </trkpt>
      <trkpt lat="39.8778020" lon="-4.0898590">
        <ele>516.2</ele>
        <time>2019-08-13T07:02:36Z</time>
      </trkpt>
      <trkpt lat="39.8778290" lon="-4.0898480">
        <ele>516.2</ele>
        <time>2019-08-13T07:02:37Z</time>
      </trkpt>
      <trkpt lat="39.8778550" lon="-4.0898360">
        <ele>516.2</ele>
        <time>2019-08-13T07:02:38Z</time>
      </trkpt>
      <trkpt lat="39.8778810" lon="-4.0898220">
        <ele>516.5</ele>
        <time>2019-08-13T07:02:39Z</time>
      </trkpt>
      <trkpt lat="39.8779050" lon="-4.0898070">
        <ele>516.6</ele>
        <time>2019-08-13T07:02:40Z</time>
      </trkpt>
      <trkpt lat="39.8779310" lon="-4.0897940">
        <ele>516.7</ele>
        <time>2019-08-13T07:02:41Z</time>
      </trkpt>
      <trkpt lat="39.8779570" lon="-4.0897810">
        <ele>517.0</ele>
        <time>2019-08-13T07:02:42Z</time>
      </trkpt>
      <trkpt lat="39.8779850" lon="-4.0897700">
        <ele>517.0</ele>
        <time>2019-08-13T07:02:43Z</time>
      </trkpt>
      <trkpt lat="39.8780140" lon="-4.0897620">
        <ele>517.1</ele>
        <time>2019-08-13T07:02:44Z</time>
      </trkpt>
      <trkpt lat="39.8780440" lon="-4.0897580">
        <ele>517.2</ele>
        <time>2019-08-13T07:02:45Z</time>
      </trkpt>
      <trkpt lat="39.8780740" lon="-4.0897550">
        <ele>517.3</ele>
        <time>2019-08-13T07:02:46Z</time>
      </trkpt>
      <trkpt lat="39.8781060" lon="-4.0897530">
        <ele>517.4</ele>
        <time>2019-08-13T07:02:47Z</time>
      </trkpt>
      <trkpt lat="39.8781390" lon="-4.0897540">
        <ele>517.5</ele>
        <time>2019-08-13T07:02:48Z</time>
      </trkpt>
      <trkpt lat="39.8781730" lon="-4.0897550">
        <ele>517.6</ele>
        <time>2019-08-13T07:02:49Z</time>
      </trkpt>
      <trkpt lat="39.8782090" lon="-4.0897560">
        <ele>517.6</ele>
        <time>2019-08-13T07:02:50Z</time>
      </trkpt>
      <trkpt lat="39.8782450" lon="-4.0897560">
        <ele>517.7</ele>
        <time>2019-08-13T07:02:51Z</time>
      </trkpt>
      <trkpt lat="39.8782810" lon="-4.0897530">
        <ele>517.7</ele>
        <time>2019-08-13T07:02:52Z</time>
      </trkpt>
      <trkpt lat="39.8783180" lon="-4.0897500">
        <ele>517.8</ele>
        <time>2019-08-13T07:02:53Z</time>
      </trkpt>
      <trkpt lat="39.8783550" lon="-4.0897460">
        <ele>518.0</ele>
        <time>2019-08-13T07:02:54Z</time>
      </trkpt>
      <trkpt lat="39.8783910" lon="-4.0897430">
        <ele>518.0</ele>
        <time>2019-08-13T07:02:55Z</time>
      </trkpt>
      <trkpt lat="39.8784260" lon="-4.0897420">
        <ele>518.0</ele>
        <time>2019-08-13T07:02:56Z</time>
      </trkpt>
      <trkpt lat="39.8784610" lon="-4.0897430">
        <ele>518.0</ele>
        <time>2019-08-13T07:02:57Z</time>
      </trkpt>
      <trkpt lat="39.8784950" lon="-4.0897440">
        <ele>518.0</ele>
        <time>2019-08-13T07:02:58Z</time>
      </trkpt>
      <trkpt lat="39.8785300" lon="-4.0897440">
        <ele>518.0</ele>
        <time>2019-08-13T07:02:59Z</time>
      </trkpt>
      <trkpt lat="39.8785650" lon="-4.0897450">
        <ele>518.0</ele>
        <time>2019-08-13T07:03:00Z</time>
      </trkpt>
      <trkpt lat="39.8786010" lon="-4.0897470">
        <ele>517.9</ele>
        <time>2019-08-13T07:03:01Z</time>
      </trkpt>
      <trkpt lat="39.8786380" lon="-4.0897480">
        <ele>517.9</ele>
        <time>2019-08-13T07:03:02Z</time>
      </trkpt>
      <trkpt lat="39.8786730" lon="-4.0897480">
        <ele>518.0</ele>
        <time>2019-08-13T07:03:03Z</time>
      </trkpt>
      <trkpt lat="39.8787090" lon="-4.0897480">
        <ele>518.0</ele>
        <time>2019-08-13T07:03:04Z</time>
      </trkpt>
      <trkpt lat="39.8787450" lon="-4.0897460">
        <ele>518.1</ele>
        <time>2019-08-13T07:03:05Z</time>
      </trkpt>
      <trkpt lat="39.8787800" lon="-4.0897430">
        <ele>518.1</ele>
        <time>2019-08-13T07:03:06Z</time>
      </trkpt>
      <trkpt lat="39.8788140" lon="-4.0897400">
        <ele>518.1</ele>
        <time>2019-08-13T07:03:07Z</time>
      </trkpt>
      <trkpt lat="39.8788470" lon="-4.0897360">
        <ele>518.1</ele>
        <time>2019-08-13T07:03:08Z</time>
      </trkpt>
      <trkpt lat="39.8788810" lon="-4.0897310">
        <ele>518.1</ele>
        <time>2019-08-13T07:03:09Z</time>
      </trkpt>
      <trkpt lat="39.8789140" lon="-4.0897240">
        <ele>518.1</ele>
        <time>2019-08-13T07:03:10Z</time>
      </trkpt>
      <trkpt lat="39.8789450" lon="-4.0897170">
        <ele>518.1</ele>
        <time>2019-08-13T07:03:11Z</time>
      </trkpt>
      <trkpt lat="39.8789760" lon="-4.0897090">
        <ele>518.1</ele>
        <time>2019-08-13T07:03:12Z</time>
      </trkpt>
      <trkpt lat="39.8790050" lon="-4.0897000">
        <ele>518.4</ele>
        <time>2019-08-13T07:03:13Z</time>
      </trkpt>
      <trkpt lat="39.8790350" lon="-4.0896920">
        <ele>518.4</ele>
        <time>2019-08-13T07:03:14Z</time>
      </trkpt>
      <trkpt lat="39.8790640" lon="-4.0896850">
        <ele>518.5</ele>
        <time>2019-08-13T07:03:15Z</time>
      </trkpt>
      <trkpt lat="39.8790930" lon="-4.0896780">
        <ele>518.6</ele>
        <time>2019-08-13T07:03:16Z</time>
      </trkpt>
      <trkpt lat="39.8791210" lon="-4.0896730">
        <ele>518.7</ele>
        <time>2019-08-13T07:03:17Z</time>
      </trkpt>
      <trkpt lat="39.8791500" lon="-4.0896680">
        <ele>518.8</ele>
        <time>2019-08-13T07:03:18Z</time>
      </trkpt>
      <trkpt lat="39.8791790" lon="-4.0896650">
        <ele>518.9</ele>
        <time>2019-08-13T07:03:19Z</time>
      </trkpt>
      <trkpt lat="39.8792100" lon="-4.0896650">
        <ele>519.0</ele>
        <time>2019-08-13T07:03:20Z</time>
      </trkpt>
      <trkpt lat="39.8792420" lon="-4.0896680">
        <ele>519.1</ele>
        <time>2019-08-13T07:03:21Z</time>
      </trkpt>
      <trkpt lat="39.8792750" lon="-4.0896730">
        <ele>519.1</ele>
        <time>2019-08-13T07:03:22Z</time>
      </trkpt>
      <trkpt lat="39.8793090" lon="-4.0896800">
        <ele>519.2</ele>
        <time>2019-08-13T07:03:23Z</time>
      </trkpt>
      <trkpt lat="39.8793440" lon="-4.0896870">
        <ele>519.2</ele>
        <time>2019-08-13T07:03:24Z</time>
      </trkpt>
      <trkpt lat="39.8793800" lon="-4.0896950">
        <ele>519.2</ele>
        <time>2019-08-13T07:03:25Z</time>
      </trkpt>
      <trkpt lat="39.8794160" lon="-4.0897010">
        <ele>519.1</ele>
        <time>2019-08-13T07:03:26Z</time>
      </trkpt>
      <trkpt lat="39.8794540" lon="-4.0897060">
        <ele>518.8</ele>
        <time>2019-08-13T07:03:27Z</time>
      </trkpt>
      <trkpt lat="39.8794910" lon="-4.0897110">
        <ele>518.8</ele>
        <time>2019-08-13T07:03:28Z</time>
      </trkpt>
      <trkpt lat="39.8795280" lon="-4.0897160">
        <ele>518.8</ele>
        <time>2019-08-13T07:03:29Z</time>
      </trkpt>
      <trkpt lat="39.8795650" lon="-4.0897220">
        <ele>518.9</ele>
        <time>2019-08-13T07:03:30Z</time>
      </trkpt>
      <trkpt lat="39.8796020" lon="-4.0897300">
        <ele>518.9</ele>
        <time>2019-08-13T07:03:31Z</time>
      </trkpt>
      <trkpt lat="39.8796380" lon="-4.0897380">
        <ele>519.0</ele>
        <time>2019-08-13T07:03:32Z</time>
      </trkpt>
      <trkpt lat="39.8796740" lon="-4.0897460">
        <ele>519.1</ele>
        <time>2019-08-13T07:03:33Z</time>
      </trkpt>
      <trkpt lat="39.8797110" lon="-4.0897550">
        <ele>519.4</ele>
        <time>2019-08-13T07:03:34Z</time>
      </trkpt>
      <trkpt lat="39.8797480" lon="-4.0897630">
        <ele>519.6</ele>
        <time>2019-08-13T07:03:35Z</time>
      </trkpt>
      <trkpt lat="39.8797860" lon="-4.0897720">
        <ele>519.8</ele>
        <time>2019-08-13T07:03:36Z</time>
      </trkpt>
      <trkpt lat="39.8798250" lon="-4.0897820">
        <ele>520.1</ele>
        <time>2019-08-13T07:03:37Z</time>
      </trkpt>
      <trkpt lat="39.8798630" lon="-4.0897900">
        <ele>520.3</ele>
        <time>2019-08-13T07:03:38Z</time>
      </trkpt>
      <trkpt lat="39.8799010" lon="-4.0897980">
        <ele>520.5</ele>
        <time>2019-08-13T07:03:39Z</time>
      </trkpt>
      <trkpt lat="39.8799410" lon="-4.0898060">
        <ele>521.0</ele>
        <time>2019-08-13T07:03:40Z</time>
      </trkpt>
      <trkpt lat="39.8799800" lon="-4.0898100">
        <ele>521.2</ele>
        <time>2019-08-13T07:03:41Z</time>
      </trkpt>
      <trkpt lat="39.8800190" lon="-4.0898150">
        <ele>521.5</ele>
        <time>2019-08-13T07:03:42Z</time>
      </trkpt>
      <trkpt lat="39.8800590" lon="-4.0898170">
        <ele>521.7</ele>
        <time>2019-08-13T07:03:43Z</time>
      </trkpt>
      <trkpt lat="39.8800990" lon="-4.0898150">
        <ele>521.9</ele>
        <time>2019-08-13T07:03:44Z</time>
      </trkpt>
      <trkpt lat="39.8801390" lon="-4.0898140">
        <ele>522.3</ele>
        <time>2019-08-13T07:03:45Z</time>
      </trkpt>
      <trkpt lat="39.8801780" lon="-4.0898160">
        <ele>522.5</ele>
        <time>2019-08-13T07:03:46Z</time>
      </trkpt>
      <trkpt lat="39.8802180" lon="-4.0898170">
        <ele>522.8</ele>
        <time>2019-08-13T07:03:47Z</time>
      </trkpt>
      <trkpt lat="39.8802580" lon="-4.0898200">
        <ele>523.0</ele>
        <time>2019-08-13T07:03:48Z</time>
      </trkpt>
      <trkpt lat="39.8802960" lon="-4.0898210">
        <ele>523.2</ele>
        <time>2019-08-13T07:03:49Z</time>
      </trkpt>
      <trkpt lat="39.8803360" lon="-4.0898210">
        <ele>523.6</ele>
        <time>2019-08-13T07:03:50Z</time>
      </trkpt>
      <trkpt lat="39.8803740" lon="-4.0898200">
        <ele>523.8</ele>
        <time>2019-08-13T07:03:51Z</time>
      </trkpt>
      <trkpt lat="39.8804130" lon="-4.0898220">
        <ele>524.0</ele>
        <time>2019-08-13T07:03:52Z</time>
      </trkpt>
      <trkpt lat="39.8804510" lon="-4.0898240">
        <ele>524.2</ele>
        <time>2019-08-13T07:03:53Z</time>
      </trkpt>
      <trkpt lat="39.8804900" lon="-4.0898250">
        <ele>524.4</ele>
        <time>2019-08-13T07:03:54Z</time>
      </trkpt>
      <trkpt lat="39.8805290" lon="-4.0898250">
        <ele>524.5</ele>
        <time>2019-08-13T07:03:55Z</time>
      </trkpt>
      <trkpt lat="39.8805680" lon="-4.0898260">
        <ele>524.9</ele>
        <time>2019-08-13T07:03:56Z</time>
      </trkpt>
      <trkpt lat="39.8806080" lon="-4.0898270">
        <ele>525.1</ele>
        <time>2019-08-13T07:03:57Z</time>
      </trkpt>
      <trkpt lat="39.8806460" lon="-4.0898260">
        <ele>525.2</ele>
        <time>2019-08-13T07:03:58Z</time>
      </trkpt>
      <trkpt lat="39.8806850" lon="-4.0898230">
        <ele>525.4</ele>
        <time>2019-08-13T07:03:59Z</time>
      </trkpt>
      <trkpt lat="39.8807230" lon="-4.0898190">
        <ele>525.5</ele>
        <time>2019-08-13T07:04:00Z</time>
      </trkpt>
      <trkpt lat="39.8807630" lon="-4.0898150">
        <ele>525.8</ele>
        <time>2019-08-13T07:04:01Z</time>
      </trkpt>
      <trkpt lat="39.8808030" lon="-4.0898100">
        <ele>525.9</ele>
        <time>2019-08-13T07:04:02Z</time>
      </trkpt>
      <trkpt lat="39.8808420" lon="-4.0898050">
        <ele>526.1</ele>
        <time>2019-08-13T07:04:03Z</time>
      </trkpt>
      <trkpt lat="39.8808820" lon="-4.0897990">
        <ele>526.2</ele>
        <time>2019-08-13T07:04:04Z</time>
      </trkpt>
      <trkpt lat="39.8809230" lon="-4.0897920">
        <ele>526.3</ele>
        <time>2019-08-13T07:04:05Z</time>
      </trkpt>
      <trkpt lat="39.8809640" lon="-4.0897860">
        <ele>526.7</ele>
        <time>2019-08-13T07:04:06Z</time>
      </trkpt>
      <trkpt lat="39.8810040" lon="-4.0897820">
        <ele>526.8</ele>
        <time>2019-08-13T07:04:07Z</time>
      </trkpt>
      <trkpt lat="39.8810430" lon="-4.0897770">
        <ele>526.9</ele>
        <time>2019-08-13T07:04:08Z</time>
      </trkpt>
      <trkpt lat="39.8810790" lon="-4.0897730">
        <ele>526.9</ele>
        <time>2019-08-13T07:04:09Z</time>
      </trkpt>
      <trkpt lat="39.8811150" lon="-4.0897700">
        <ele>527.0</ele>
        <time>2019-08-13T07:04:10Z</time>
      </trkpt>
      <trkpt lat="39.8811510" lon="-4.0897680">
        <ele>527.1</ele>
        <time>2019-08-13T07:04:11Z</time>
      </trkpt>
      <trkpt lat="39.8811880" lon="-4.0897660">
        <ele>527.2</ele>
        <time>2019-08-13T07:04:12Z</time>
      </trkpt>
      <trkpt lat="39.8812250" lon="-4.0897630">
        <ele>527.3</ele>
        <time>2019-08-13T07:04:13Z</time>
      </trkpt>
      <trkpt lat="39.8812620" lon="-4.0897580">
        <ele>527.4</ele>
        <time>2019-08-13T07:04:14Z</time>
      </trkpt>
      <trkpt lat="39.8812970" lon="-4.0897520">
        <ele>527.5</ele>
        <time>2019-08-13T07:04:15Z</time>
      </trkpt>
      <trkpt lat="39.8813290" lon="-4.0897450">
        <ele>527.7</ele>
        <time>2019-08-13T07:04:16Z</time>
      </trkpt>
      <trkpt lat="39.8813600" lon="-4.0897360">
        <ele>527.8</ele>
        <time>2019-08-13T07:04:17Z</time>
      </trkpt>
      <trkpt lat="39.8813890" lon="-4.0897230">
        <ele>527.9</ele>
        <time>2019-08-13T07:04:18Z</time>
      </trkpt>
      <trkpt lat="39.8814180" lon="-4.0897080">
        <ele>527.9</ele>
        <time>2019-08-13T07:04:19Z</time>
      </trkpt>
      <trkpt lat="39.8814440" lon="-4.0896940">
        <ele>528.2</ele>
        <time>2019-08-13T07:04:20Z</time>
      </trkpt>
      <trkpt lat="39.8814840" lon="-4.0896840">
        <ele>528.3</ele>
        <time>2019-08-13T07:04:22Z</time>
      </trkpt>
      <trkpt lat="39.8815120" lon="-4.0896970">
        <ele>528.5</ele>
        <time>2019-08-13T07:04:24Z</time>
      </trkpt>
      <trkpt lat="39.8815360" lon="-4.0897480">
        <ele>528.5</ele>
        <time>2019-08-13T07:04:26Z</time>
      </trkpt>
      <trkpt lat="39.8815410" lon="-4.0897850">
        <ele>528.5</ele>
        <time>2019-08-13T07:04:27Z</time>
      </trkpt>
      <trkpt lat="39.8815440" lon="-4.0898270">
        <ele>528.5</ele>
        <time>2019-08-13T07:04:28Z</time>
      </trkpt>
      <trkpt lat="39.8815460" lon="-4.0898720">
        <ele>528.5</ele>
        <time>2019-08-13T07:04:29Z</time>
      </trkpt>
      <trkpt lat="39.8815480" lon="-4.0899200">
        <ele>528.5</ele>
        <time>2019-08-13T07:04:30Z</time>
      </trkpt>
      <trkpt lat="39.8815500" lon="-4.0899680">
        <ele>528.5</ele>
        <time>2019-08-13T07:04:31Z</time>
      </trkpt>
      <trkpt lat="39.8815530" lon="-4.0900170">
        <ele>528.5</ele>
        <time>2019-08-13T07:04:32Z</time>
      </trkpt>
      <trkpt lat="39.8815550" lon="-4.0900680">
        <ele>528.5</ele>
        <time>2019-08-13T07:04:33Z</time>
      </trkpt>
      <trkpt lat="39.8815580" lon="-4.0901220">
        <ele>528.5</ele>
        <time>2019-08-13T07:04:34Z</time>
      </trkpt>
      <trkpt lat="39.8815610" lon="-4.0901780">
        <ele>528.5</ele>
        <time>2019-08-13T07:04:35Z</time>
      </trkpt>
      <trkpt lat="39.8815650" lon="-4.0902350">
        <ele>528.5</ele>
        <time>2019-08-13T07:04:36Z</time>
      </trkpt>
      <trkpt lat="39.8815690" lon="-4.0902920">
        <ele>528.5</ele>
        <time>2019-08-13T07:04:37Z</time>
      </trkpt>
      <trkpt lat="39.8815710" lon="-4.0903470">
        <ele>528.6</ele>
        <time>2019-08-13T07:04:38Z</time>
      </trkpt>
      <trkpt lat="39.8815740" lon="-4.0904020">
        <ele>528.6</ele>
        <time>2019-08-13T07:04:39Z</time>
      </trkpt>
      <trkpt lat="39.8815760" lon="-4.0904580">
        <ele>528.6</ele>
        <time>2019-08-13T07:04:40Z</time>
      </trkpt>
      <trkpt lat="39.8815780" lon="-4.0905140">
        <ele>528.6</ele>
        <time>2019-08-13T07:04:41Z</time>
      </trkpt>
      <trkpt lat="39.8815770" lon="-4.0905720">
        <ele>528.7</ele>
        <time>2019-08-13T07:04:42Z</time>
      </trkpt>
      <trkpt lat="39.8815720" lon="-4.0906290">
        <ele>528.7</ele>
        <time>2019-08-13T07:04:43Z</time>
      </trkpt>
      <trkpt lat="39.8815650" lon="-4.0906850">
        <ele>528.7</ele>
        <time>2019-08-13T07:04:44Z</time>
      </trkpt>
      <trkpt lat="39.8815550" lon="-4.0907390">
        <ele>528.7</ele>
        <time>2019-08-13T07:04:45Z</time>
      </trkpt>
      <trkpt lat="39.8815420" lon="-4.0907900">
        <ele>528.7</ele>
        <time>2019-08-13T07:04:46Z</time>
      </trkpt>
      <trkpt lat="39.8815260" lon="-4.0908410">
        <ele>528.7</ele>
        <time>2019-08-13T07:04:47Z</time>
      </trkpt>
      <trkpt lat="39.8815090" lon="-4.0908940">
        <ele>528.7</ele>
        <time>2019-08-13T07:04:48Z</time>
      </trkpt>
      <trkpt lat="39.8814910" lon="-4.0909480">
        <ele>528.7</ele>
        <time>2019-08-13T07:04:49Z</time>
      </trkpt>
      <trkpt lat="39.8814720" lon="-4.0910030">
        <ele>528.7</ele>
        <time>2019-08-13T07:04:50Z</time>
      </trkpt>
      <trkpt lat="39.8814500" lon="-4.0910590">
        <ele>528.7</ele>
        <time>2019-08-13T07:04:51Z</time>
      </trkpt>
      <trkpt lat="39.8814290" lon="-4.0911140">
        <ele>528.6</ele>
        <time>2019-08-13T07:04:52Z</time>
      </trkpt>
      <trkpt lat="39.8814100" lon="-4.0911660">
        <ele>528.6</ele>
        <time>2019-08-13T07:04:53Z</time>
      </trkpt>
      <trkpt lat="39.8813910" lon="-4.0912170">
        <ele>528.5</ele>
        <time>2019-08-13T07:04:54Z</time>
      </trkpt>
      <trkpt lat="39.8813740" lon="-4.0912650">
        <ele>528.4</ele>
        <time>2019-08-13T07:04:55Z</time>
      </trkpt>
      <trkpt lat="39.8813570" lon="-4.0913170">
        <ele>528.3</ele>
        <time>2019-08-13T07:04:56Z</time>
      </trkpt>
      <trkpt lat="39.8813400" lon="-4.0913700">
        <ele>528.2</ele>
        <time>2019-08-13T07:04:57Z</time>
      </trkpt>
      <trkpt lat="39.8813240" lon="-4.0914240">
        <ele>528.1</ele>
        <time>2019-08-13T07:04:58Z</time>
      </trkpt>
      <trkpt lat="39.8813070" lon="-4.0914800">
        <ele>527.9</ele>
        <time>2019-08-13T07:04:59Z</time>
      </trkpt>
      <trkpt lat="39.8812920" lon="-4.0915360">
        <ele>527.7</ele>
        <time>2019-08-13T07:05:00Z</time>
      </trkpt>
      <trkpt lat="39.8812780" lon="-4.0915930">
        <ele>527.6</ele>
        <time>2019-08-13T07:05:01Z</time>
      </trkpt>
      <trkpt lat="39.8812620" lon="-4.0916490">
        <ele>527.4</ele>
        <time>2019-08-13T07:05:02Z</time>
      </trkpt>
      <trkpt lat="39.8812470" lon="-4.0917060">
        <ele>527.2</ele>
        <time>2019-08-13T07:05:03Z</time>
      </trkpt>
      <trkpt lat="39.8812310" lon="-4.0917640">
        <ele>527.0</ele>
        <time>2019-08-13T07:05:04Z</time>
      </trkpt>
      <trkpt lat="39.8812140" lon="-4.0918230">
        <ele>526.8</ele>
        <time>2019-08-13T07:05:05Z</time>
      </trkpt>
      <trkpt lat="39.8811970" lon="-4.0918840">
        <ele>526.5</ele>
        <time>2019-08-13T07:05:06Z</time>
      </trkpt>
      <trkpt lat="39.8811810" lon="-4.0919490">
        <ele>526.3</ele>
        <time>2019-08-13T07:05:07Z</time>
      </trkpt>
      <trkpt lat="39.8811670" lon="-4.0920180">
        <ele>526.0</ele>
        <time>2019-08-13T07:05:08Z</time>
      </trkpt>
      <trkpt lat="39.8811510" lon="-4.0920940">
        <ele>525.7</ele>
        <time>2019-08-13T07:05:09Z</time>
      </trkpt>
      <trkpt lat="39.8811360" lon="-4.0921730">
        <ele>525.3</ele>
        <time>2019-08-13T07:05:10Z</time>
      </trkpt>
      <trkpt lat="39.8811270" lon="-4.0922560">
        <ele>524.9</ele>
        <time>2019-08-13T07:05:11Z</time>
      </trkpt>
      <trkpt lat="39.8811200" lon="-4.0923430">
        <ele>524.6</ele>
        <time>2019-08-13T07:05:12Z</time>
      </trkpt>
      <trkpt lat="39.8811140" lon="-4.0924330">
        <ele>524.1</ele>
        <time>2019-08-13T07:05:13Z</time>
      </trkpt>
      <trkpt lat="39.8811110" lon="-4.0925260">
        <ele>523.7</ele>
        <time>2019-08-13T07:05:14Z</time>
      </trkpt>
      <trkpt lat="39.8811120" lon="-4.0926220">
        <ele>523.2</ele>
        <time>2019-08-13T07:05:15Z</time>
      </trkpt>
      <trkpt lat="39.8811180" lon="-4.0927200">
        <ele>522.7</ele>
        <time>2019-08-13T07:05:16Z</time>
      </trkpt>
      <trkpt lat="39.8811270" lon="-4.0928200">
        <ele>522.2</ele>
        <time>2019-08-13T07:05:17Z</time>
      </trkpt>
      <trkpt lat="39.8811360" lon="-4.0929220">
        <ele>521.7</ele>
        <time>2019-08-13T07:05:18Z</time>
      </trkpt>
      <trkpt lat="39.8811460" lon="-4.0930240">
        <ele>521.1</ele>
        <time>2019-08-13T07:05:19Z</time>
      </trkpt>
      <trkpt lat="39.8811560" lon="-4.0931250">
        <ele>520.5</ele>
        <time>2019-08-13T07:05:20Z</time>
      </trkpt>
      <trkpt lat="39.8811690" lon="-4.0932260">
        <ele>519.9</ele>
        <time>2019-08-13T07:05:21Z</time>
      </trkpt>
      <trkpt lat="39.8811780" lon="-4.0933280">
        <ele>519.3</ele>
        <time>2019-08-13T07:05:22Z</time>
      </trkpt>
      <trkpt lat="39.8811840" lon="-4.0934280">
        <ele>518.7</ele>
        <time>2019-08-13T07:05:23Z</time>
      </trkpt>
      <trkpt lat="39.8811920" lon="-4.0935290">
        <ele>518.0</ele>
        <time>2019-08-13T07:05:24Z</time>
      </trkpt>
      <trkpt lat="39.8811980" lon="-4.0936290">
        <ele>517.4</ele>
        <time>2019-08-13T07:05:25Z</time>
      </trkpt>
      <trkpt lat="39.8812030" lon="-4.0937290">
        <ele>516.8</ele>
        <time>2019-08-13T07:05:26Z</time>
      </trkpt>
      <trkpt lat="39.8812100" lon="-4.0938310">
        <ele>516.1</ele>
        <time>2019-08-13T07:05:27Z</time>
      </trkpt>
      <trkpt lat="39.8812170" lon="-4.0939380">
        <ele>515.3</ele>
        <time>2019-08-13T07:05:28Z</time>
      </trkpt>
      <trkpt lat="39.8812250" lon="-4.0940490">
        <ele>514.6</ele>
        <time>2019-08-13T07:05:29Z</time>
      </trkpt>
      <trkpt lat="39.8812320" lon="-4.0941620">
        <ele>513.7</ele>
        <time>2019-08-13T07:05:30Z</time>
      </trkpt>
      <trkpt lat="39.8812380" lon="-4.0942790">
        <ele>512.9</ele>
        <time>2019-08-13T07:05:31Z</time>
      </trkpt>
      <trkpt lat="39.8812440" lon="-4.0943980">
        <ele>512.0</ele>
        <time>2019-08-13T07:05:32Z</time>
      </trkpt>
      <trkpt lat="39.8812490" lon="-4.0945200">
        <ele>511.3</ele>
        <time>2019-08-13T07:05:33Z</time>
      </trkpt>
      <trkpt lat="39.8812500" lon="-4.0946470">
        <ele>510.5</ele>
        <time>2019-08-13T07:05:34Z</time>
      </trkpt>
      <trkpt lat="39.8812500" lon="-4.0947780">
        <ele>509.7</ele>
        <time>2019-08-13T07:05:35Z</time>
      </trkpt>
      <trkpt lat="39.8812500" lon="-4.0949140">
        <ele>509.0</ele>
        <time>2019-08-13T07:05:36Z</time>
      </trkpt>
      <trkpt lat="39.8812490" lon="-4.0950570">
        <ele>508.1</ele>
        <time>2019-08-13T07:05:37Z</time>
      </trkpt>
      <trkpt lat="39.8812470" lon="-4.0952020">
        <ele>507.1</ele>
        <time>2019-08-13T07:05:38Z</time>
      </trkpt>
      <trkpt lat="39.8812380" lon="-4.0953480">
        <ele>505.9</ele>
        <time>2019-08-13T07:05:39Z</time>
      </trkpt>
      <trkpt lat="39.8812220" lon="-4.0954880">
        <ele>504.6</ele>
        <time>2019-08-13T07:05:40Z</time>
      </trkpt>
      <trkpt lat="39.8811980" lon="-4.0956240">
        <ele>502.8</ele>
        <time>2019-08-13T07:05:41Z</time>
      </trkpt>
      <trkpt lat="39.8811660" lon="-4.0957540">
        <ele>501.7</ele>
        <time>2019-08-13T07:05:42Z</time>
      </trkpt>
      <trkpt lat="39.8811240" lon="-4.0958810">
        <ele>500.9</ele>
        <time>2019-08-13T07:05:43Z</time>
      </trkpt>
      <trkpt lat="39.8810740" lon="-4.0960060">
        <ele>499.9</ele>
        <time>2019-08-13T07:05:44Z</time>
      </trkpt>
      <trkpt lat="39.8810250" lon="-4.0961340">
        <ele>499.3</ele>
        <time>2019-08-13T07:05:45Z</time>
      </trkpt>
      <trkpt lat="39.8809800" lon="-4.0962640">
        <ele>498.7</ele>
        <time>2019-08-13T07:05:46Z</time>
      </trkpt>
      <trkpt lat="39.8809400" lon="-4.0963840">
        <ele>498.2</ele>
        <time>2019-08-13T07:05:47Z</time>
      </trkpt>
      <trkpt lat="39.8809090" lon="-4.0964810">
        <ele>497.9</ele>
        <time>2019-08-13T07:05:48Z</time>
      </trkpt>
      <trkpt lat="39.8808880" lon="-4.0965540">
        <ele>497.6</ele>
        <time>2019-08-13T07:05:49Z</time>
      </trkpt>
      <trkpt lat="39.8808740" lon="-4.0966030">
        <ele>497.4</ele>
        <time>2019-08-13T07:05:50Z</time>
      </trkpt>
      <trkpt lat="39.8808520" lon="-4.0966420">
        <ele>497.2</ele>
        <time>2019-08-13T07:05:52Z</time>
      </trkpt>
      <trkpt lat="39.8808300" lon="-4.0966260">
        <ele>497.1</ele>
        <time>2019-08-13T07:05:57Z</time>
      </trkpt>
      <trkpt lat="39.8808360" lon="-4.0965800">
        <ele>497.3</ele>
        <time>2019-08-13T07:06:00Z</time>
      </trkpt>
      <trkpt lat="39.8808520" lon="-4.0965260">
        <ele>497.8</ele>
        <time>2019-08-13T07:06:02Z</time>
      </trkpt>
      <trkpt lat="39.8808600" lon="-4.0964920">
        <ele>497.7</ele>
        <time>2019-08-13T07:06:03Z</time>
      </trkpt>
      <trkpt lat="39.8808710" lon="-4.0964550">
        <ele>497.8</ele>
        <time>2019-08-13T07:06:04Z</time>
      </trkpt>
      <trkpt lat="39.8808840" lon="-4.0964160">
        <ele>498.0</ele>
        <time>2019-08-13T07:06:05Z</time>
      </trkpt>
      <trkpt lat="39.8808980" lon="-4.0963770">
        <ele>498.1</ele>
        <time>2019-08-13T07:06:06Z</time>
      </trkpt>
      <trkpt lat="39.8809130" lon="-4.0963370">
        <ele>498.3</ele>
        <time>2019-08-13T07:06:07Z</time>
      </trkpt>
      <trkpt lat="39.8809260" lon="-4.0962970">
        <ele>498.5</ele>
        <time>2019-08-13T07:06:08Z</time>
      </trkpt>
      <trkpt lat="39.8809350" lon="-4.0962610">
        <ele>498.5</ele>
        <time>2019-08-13T07:06:09Z</time>
      </trkpt>
      <trkpt lat="39.8809440" lon="-4.0962090">
        <ele>498.7</ele>
        <time>2019-08-13T07:06:11Z</time>
      </trkpt>
      <trkpt lat="39.8809750" lon="-4.0961400">
        <ele>499.0</ele>
        <time>2019-08-13T07:14:14Z</time>
      </trkpt>
      <trkpt lat="39.8809760" lon="-4.0961400">
        <ele>499.0</ele>
        <time>2019-08-13T07:14:20Z</time>
      </trkpt>
      <trkpt lat="39.8810110" lon="-4.0961710">
        <ele>498.4</ele>
        <time>2019-08-13T07:17:07Z</time>
      </trkpt>
      <trkpt lat="39.8809630" lon="-4.0961490">
        <ele>498.6</ele>
        <time>2019-08-13T07:17:29Z</time>
      </trkpt>
      <trkpt lat="39.8809750" lon="-4.0961400">
        <ele>498.9</ele>
        <time>2019-08-13T07:17:35Z</time>
      </trkpt>
      <trkpt lat="39.8809640" lon="-4.0961520">
        <ele>498.6</ele>
        <time>2019-08-13T07:24:04Z</time>
      </trkpt>
      <trkpt lat="39.8810010" lon="-4.0961810">
        <ele>498.3</ele>
        <time>2019-08-13T07:25:44Z</time>
      </trkpt>
      <trkpt lat="39.8809660" lon="-4.0961130">
        <ele>498.8</ele>
        <time>2019-08-13T07:26:04Z</time>
      </trkpt>
      <trkpt lat="39.8810430" lon="-4.0961060">
        <ele>498.3</ele>
        <time>2019-08-13T07:27:20Z</time>
      </trkpt>
      <trkpt lat="39.8810520" lon="-4.0960720">
        <ele>498.6</ele>
        <time>2019-08-13T07:27:23Z</time>
      </trkpt>
      <trkpt lat="39.8810630" lon="-4.0960340">
        <ele>498.7</ele>
        <time>2019-08-13T07:27:26Z</time>
      </trkpt>
      <trkpt lat="39.8810740" lon="-4.0959990">
        <ele>499.0</ele>
        <time>2019-08-13T07:27:29Z</time>
      </trkpt>
      <trkpt lat="39.8810880" lon="-4.0959630">
        <ele>499.4</ele>
        <time>2019-08-13T07:27:32Z</time>
      </trkpt>
      <trkpt lat="39.8810960" lon="-4.0959220">
        <ele>499.5</ele>
        <time>2019-08-13T07:27:35Z</time>
      </trkpt>
      <trkpt lat="39.8810880" lon="-4.0958730">
        <ele>500.2</ele>
        <time>2019-08-13T07:27:38Z</time>
      </trkpt>
      <trkpt lat="39.8810750" lon="-4.0958300">
        <ele>500.7</ele>
        <time>2019-08-13T07:27:41Z</time>
      </trkpt>
      <trkpt lat="39.8810750" lon="-4.0958210">
        <ele>500.7</ele>
        <time>2019-08-13T07:27:45Z</time>
      </trkpt>
      <trkpt lat="39.8810710" lon="-4.0958560">
        <ele>500.2</ele>
        <time>2019-08-13T07:27:49Z</time>
      </trkpt>
      <trkpt lat="39.8810660" lon="-4.0958950">
        <ele>499.6</ele>
        <time>2019-08-13T07:27:52Z</time>
      </trkpt>
      <trkpt lat="39.8810530" lon="-4.0959440">
        <ele>499.4</ele>
        <time>2019-08-13T07:27:55Z</time>
      </trkpt>
      <trkpt lat="39.8810510" lon="-4.0959790">
        <ele>499.0</ele>
        <time>2019-08-13T07:27:57Z</time>
      </trkpt>
      <trkpt lat="39.8810410" lon="-4.0960260">
        <ele>498.6</ele>
        <time>2019-08-13T07:28:00Z</time>
      </trkpt>
      <trkpt lat="39.8810330" lon="-4.0960670">
        <ele>498.2</ele>
        <time>2019-08-13T07:28:03Z</time>
      </trkpt>
      <trkpt lat="39.8810170" lon="-4.0961110">
        <ele>498.1</ele>
        <time>2019-08-13T07:28:06Z</time>
      </trkpt>
      <trkpt lat="39.8810030" lon="-4.0961540">
        <ele>497.8</ele>
        <time>2019-08-13T07:28:10Z</time>
      </trkpt>
      <trkpt lat="39.8809790" lon="-4.0961640">
        <ele>498.0</ele>
        <time>2019-08-13T07:28:16Z</time>
      </trkpt>
      <trkpt lat="39.8809420" lon="-4.0961280">
        <ele>498.6</ele>
        <time>2019-08-13T07:28:30Z</time>
      </trkpt>
      <trkpt lat="39.8809640" lon="-4.0961610">
        <ele>498.0</ele>
        <time>2019-08-13T07:28:35Z</time>
      </trkpt>
      <trkpt lat="39.8809810" lon="-4.0961860">
        <ele>497.6</ele>
        <time>2019-08-13T07:28:43Z</time>
      </trkpt>
      <trkpt lat="39.8809690" lon="-4.0962370">
        <ele>497.4</ele>
        <time>2019-08-13T07:28:46Z</time>
      </trkpt>
      <trkpt lat="39.8809460" lon="-4.0963040">
        <ele>497.3</ele>
        <time>2019-08-13T07:28:48Z</time>
      </trkpt>
      <trkpt lat="39.8809350" lon="-4.0963460">
        <ele>497.1</ele>
        <time>2019-08-13T07:28:49Z</time>
      </trkpt>
      <trkpt lat="39.8809220" lon="-4.0963940">
        <ele>497.0</ele>
        <time>2019-08-13T07:28:50Z</time>
      </trkpt>
      <trkpt lat="39.8809070" lon="-4.0964460">
        <ele>496.5</ele>
        <time>2019-08-13T07:28:51Z</time>
      </trkpt>
      <trkpt lat="39.8808920" lon="-4.0965020">
        <ele>496.4</ele>
        <time>2019-08-13T07:28:52Z</time>
      </trkpt>
      <trkpt lat="39.8808770" lon="-4.0965620">
        <ele>496.2</ele>
        <time>2019-08-13T07:28:53Z</time>
      </trkpt>
      <trkpt lat="39.8808610" lon="-4.0966270">
        <ele>495.8</ele>
        <time>2019-08-13T07:28:54Z</time>
      </trkpt>
      <trkpt lat="39.8808430" lon="-4.0966950">
        <ele>495.6</ele>
        <time>2019-08-13T07:28:55Z</time>
      </trkpt>
      <trkpt lat="39.8808230" lon="-4.0967650">
        <ele>495.1</ele>
        <time>2019-08-13T07:28:56Z</time>
      </trkpt>
      <trkpt lat="39.8808020" lon="-4.0968390">
        <ele>494.8</ele>
        <time>2019-08-13T07:28:57Z</time>
      </trkpt>
      <trkpt lat="39.8807810" lon="-4.0969160">
        <ele>494.5</ele>
        <time>2019-08-13T07:28:58Z</time>
      </trkpt>
      <trkpt lat="39.8807610" lon="-4.0969950">
        <ele>494.5</ele>
        <time>2019-08-13T07:28:59Z</time>
      </trkpt>
      <trkpt lat="39.8807400" lon="-4.0970760">
        <ele>494.3</ele>
        <time>2019-08-13T07:29:00Z</time>
      </trkpt>
      <trkpt lat="39.8807180" lon="-4.0971580">
        <ele>494.3</ele>
        <time>2019-08-13T07:29:01Z</time>
      </trkpt>
      <trkpt lat="39.8806960" lon="-4.0972420">
        <ele>494.0</ele>
        <time>2019-08-13T07:29:02Z</time>
      </trkpt>
      <trkpt lat="39.8806760" lon="-4.0973270">
        <ele>494.1</ele>
        <time>2019-08-13T07:29:03Z</time>
      </trkpt>
      <trkpt lat="39.8806570" lon="-4.0974150">
        <ele>494.2</ele>
        <time>2019-08-13T07:29:04Z</time>
      </trkpt>
      <trkpt lat="39.8806400" lon="-4.0975060">
        <ele>494.0</ele>
        <time>2019-08-13T07:29:05Z</time>
      </trkpt>
      <trkpt lat="39.8806230" lon="-4.0975980">
        <ele>494.2</ele>
        <time>2019-08-13T07:29:06Z</time>
      </trkpt>
      <trkpt lat="39.8806070" lon="-4.0976900">
        <ele>493.9</ele>
        <time>2019-08-13T07:29:07Z</time>
      </trkpt>
      <trkpt lat="39.8805940" lon="-4.0977840">
        <ele>493.7</ele>
        <time>2019-08-13T07:29:08Z</time>
      </trkpt>
      <trkpt lat="39.8805810" lon="-4.0978780">
        <ele>493.7</ele>
        <time>2019-08-13T07:29:09Z</time>
      </trkpt>
      <trkpt lat="39.8805700" lon="-4.0979700">
        <ele>493.6</ele>
        <time>2019-08-13T07:29:10Z</time>
      </trkpt>
      <trkpt lat="39.8805590" lon="-4.0980630">
        <ele>493.5</ele>
        <time>2019-08-13T07:29:11Z</time>
      </trkpt>
      <trkpt lat="39.8805490" lon="-4.0981550">
        <ele>493.3</ele>
        <time>2019-08-13T07:29:12Z</time>
      </trkpt>
      <trkpt lat="39.8805400" lon="-4.0982480">
        <ele>493.1</ele>
        <time>2019-08-13T07:29:13Z</time>
      </trkpt>
      <trkpt lat="39.8805330" lon="-4.0983410">
        <ele>492.9</ele>
        <time>2019-08-13T07:29:14Z</time>
      </trkpt>
      <trkpt lat="39.8805270" lon="-4.0984330">
        <ele>492.7</ele>
        <time>2019-08-13T07:29:15Z</time>
      </trkpt>
      <trkpt lat="39.8805200" lon="-4.0985250">
        <ele>492.6</ele>
        <time>2019-08-13T07:29:16Z</time>
      </trkpt>
      <trkpt lat="39.8805130" lon="-4.0986180">
        <ele>492.4</ele>
        <time>2019-08-13T07:29:17Z</time>
      </trkpt>
      <trkpt lat="39.8805060" lon="-4.0987090">
        <ele>492.1</ele>
        <time>2019-08-13T07:29:18Z</time>
      </trkpt>
      <trkpt lat="39.8805020" lon="-4.0987990">
        <ele>491.9</ele>
        <time>2019-08-13T07:29:19Z</time>
      </trkpt>
      <trkpt lat="39.8804980" lon="-4.0988910">
        <ele>491.8</ele>
        <time>2019-08-13T07:29:20Z</time>
      </trkpt>
      <trkpt lat="39.8804960" lon="-4.0989820">
        <ele>491.7</ele>
        <time>2019-08-13T07:29:21Z</time>
      </trkpt>
      <trkpt lat="39.8804960" lon="-4.0990740">
        <ele>491.6</ele>
        <time>2019-08-13T07:29:22Z</time>
      </trkpt>
      <trkpt lat="39.8804960" lon="-4.0991660">
        <ele>491.6</ele>
        <time>2019-08-13T07:29:23Z</time>
      </trkpt>
      <trkpt lat="39.8805000" lon="-4.0992580">
        <ele>491.4</ele>
        <time>2019-08-13T07:29:24Z</time>
      </trkpt>
      <trkpt lat="39.8805020" lon="-4.0993520">
        <ele>491.2</ele>
        <time>2019-08-13T07:29:25Z</time>
      </trkpt>
      <trkpt lat="39.8805030" lon="-4.0994460">
        <ele>490.9</ele>
        <time>2019-08-13T07:29:26Z</time>
      </trkpt>
      <trkpt lat="39.8805030" lon="-4.0995430">
        <ele>490.5</ele>
        <time>2019-08-13T07:29:27Z</time>
      </trkpt>
      <trkpt lat="39.8805030" lon="-4.0996410">
        <ele>490.1</ele>
        <time>2019-08-13T07:29:28Z</time>
      </trkpt>
      <trkpt lat="39.8805030" lon="-4.0997410">
        <ele>489.9</ele>
        <time>2019-08-13T07:29:29Z</time>
      </trkpt>
      <trkpt lat="39.8805050" lon="-4.0998430">
        <ele>489.7</ele>
        <time>2019-08-13T07:29:30Z</time>
      </trkpt>
      <trkpt lat="39.8805080" lon="-4.0999470">
        <ele>489.7</ele>
        <time>2019-08-13T07:29:31Z</time>
      </trkpt>
      <trkpt lat="39.8805090" lon="-4.1000490">
        <ele>489.6</ele>
        <time>2019-08-13T07:29:32Z</time>
      </trkpt>
      <trkpt lat="39.8805090" lon="-4.1001510">
        <ele>489.5</ele>
        <time>2019-08-13T07:29:33Z</time>
      </trkpt>
      <trkpt lat="39.8805110" lon="-4.1002530">
        <ele>489.3</ele>
        <time>2019-08-13T07:29:34Z</time>
      </trkpt>
      <trkpt lat="39.8805110" lon="-4.1003530">
        <ele>489.1</ele>
        <time>2019-08-13T07:29:35Z</time>
      </trkpt>
      <trkpt lat="39.8805090" lon="-4.1004540">
        <ele>488.9</ele>
        <time>2019-08-13T07:29:36Z</time>
      </trkpt>
      <trkpt lat="39.8805040" lon="-4.1005540">
        <ele>488.7</ele>
        <time>2019-08-13T07:29:37Z</time>
      </trkpt>
      <trkpt lat="39.8804930" lon="-4.1006540">
        <ele>488.5</ele>
        <time>2019-08-13T07:29:38Z</time>
      </trkpt>
      <trkpt lat="39.8804760" lon="-4.1007530">
        <ele>488.2</ele>
        <time>2019-08-13T07:29:39Z</time>
      </trkpt>
      <trkpt lat="39.8804500" lon="-4.1008510">
        <ele>487.9</ele>
        <time>2019-08-13T07:29:40Z</time>
      </trkpt>
      <trkpt lat="39.8804180" lon="-4.1009480">
        <ele>487.4</ele>
        <time>2019-08-13T07:29:41Z</time>
      </trkpt>
      <trkpt lat="39.8803810" lon="-4.1010440">
        <ele>487.1</ele>
        <time>2019-08-13T07:29:42Z</time>
      </trkpt>
      <trkpt lat="39.8803380" lon="-4.1011370">
        <ele>486.8</ele>
        <time>2019-08-13T07:29:43Z</time>
      </trkpt>
      <trkpt lat="39.8802930" lon="-4.1012280">
        <ele>486.6</ele>
        <time>2019-08-13T07:29:44Z</time>
      </trkpt>
      <trkpt lat="39.8802480" lon="-4.1013200">
        <ele>486.3</ele>
        <time>2019-08-13T07:29:45Z</time>
      </trkpt>
      <trkpt lat="39.8802010" lon="-4.1014130">
        <ele>486.0</ele>
        <time>2019-08-13T07:29:46Z</time>
      </trkpt>
      <trkpt lat="39.8801560" lon="-4.1015050">
        <ele>485.7</ele>
        <time>2019-08-13T07:29:47Z</time>
      </trkpt>
      <trkpt lat="39.8801090" lon="-4.1015980">
        <ele>485.4</ele>
        <time>2019-08-13T07:29:48Z</time>
      </trkpt>
      <trkpt lat="39.8800620" lon="-4.1016890">
        <ele>485.1</ele>
        <time>2019-08-13T07:29:49Z</time>
      </trkpt>
      <trkpt lat="39.8800140" lon="-4.1017800">
        <ele>484.9</ele>
        <time>2019-08-13T07:29:50Z</time>
      </trkpt>
      <trkpt lat="39.8799640" lon="-4.1018670">
        <ele>484.7</ele>
        <time>2019-08-13T07:29:51Z</time>
      </trkpt>
      <trkpt lat="39.8799110" lon="-4.1019530">
        <ele>484.7</ele>
        <time>2019-08-13T07:29:52Z</time>
      </trkpt>
      <trkpt lat="39.8798580" lon="-4.1020350">
        <ele>484.6</ele>
        <time>2019-08-13T07:29:53Z</time>
      </trkpt>
      <trkpt lat="39.8798090" lon="-4.1021120">
        <ele>484.4</ele>
        <time>2019-08-13T07:29:54Z</time>
      </trkpt>
      <trkpt lat="39.8797610" lon="-4.1021880">
        <ele>484.2</ele>
        <time>2019-08-13T07:29:55Z</time>
      </trkpt>
      <trkpt lat="39.8797150" lon="-4.1022630">
        <ele>484.0</ele>
        <time>2019-08-13T07:29:56Z</time>
      </trkpt>
      <trkpt lat="39.8796690" lon="-4.1023400">
        <ele>483.8</ele>
        <time>2019-08-13T07:29:57Z</time>
      </trkpt>
      <trkpt lat="39.8796230" lon="-4.1024160">
        <ele>483.7</ele>
        <time>2019-08-13T07:29:58Z</time>
      </trkpt>
      <trkpt lat="39.8795800" lon="-4.1024890">
        <ele>483.6</ele>
        <time>2019-08-13T07:29:59Z</time>
      </trkpt>
      <trkpt lat="39.8795360" lon="-4.1025610">
        <ele>483.4</ele>
        <time>2019-08-13T07:30:00Z</time>
      </trkpt>
      <trkpt lat="39.8794900" lon="-4.1026300">
        <ele>483.2</ele>
        <time>2019-08-13T07:30:01Z</time>
      </trkpt>
      <trkpt lat="39.8794450" lon="-4.1026980">
        <ele>483.0</ele>
        <time>2019-08-13T07:30:02Z</time>
      </trkpt>
      <trkpt lat="39.8794010" lon="-4.1027660">
        <ele>482.8</ele>
        <time>2019-08-13T07:30:03Z</time>
      </trkpt>
      <trkpt lat="39.8793580" lon="-4.1028320">
        <ele>482.7</ele>
        <time>2019-08-13T07:30:04Z</time>
      </trkpt>
      <trkpt lat="39.8793150" lon="-4.1028970">
        <ele>482.6</ele>
        <time>2019-08-13T07:30:05Z</time>
      </trkpt>
      <trkpt lat="39.8792740" lon="-4.1029600">
        <ele>482.5</ele>
        <time>2019-08-13T07:30:06Z</time>
      </trkpt>
      <trkpt lat="39.8792320" lon="-4.1030200">
        <ele>482.5</ele>
        <time>2019-08-13T07:30:07Z</time>
      </trkpt>
      <trkpt lat="39.8791950" lon="-4.1030760">
        <ele>482.5</ele>
        <time>2019-08-13T07:30:08Z</time>
      </trkpt>
      <trkpt lat="39.8791630" lon="-4.1031290">
        <ele>482.4</ele>
        <time>2019-08-13T07:30:09Z</time>
      </trkpt>
      <trkpt lat="39.8791290" lon="-4.1031790">
        <ele>482.2</ele>
        <time>2019-08-13T07:30:10Z</time>
      </trkpt>
      <trkpt lat="39.8790990" lon="-4.1032280">
        <ele>482.0</ele>
        <time>2019-08-13T07:30:11Z</time>
      </trkpt>
      <trkpt lat="39.8790700" lon="-4.1032730">
        <ele>481.8</ele>
        <time>2019-08-13T07:30:12Z</time>
      </trkpt>
      <trkpt lat="39.8790410" lon="-4.1033170">
        <ele>481.5</ele>
        <time>2019-08-13T07:30:13Z</time>
      </trkpt>
      <trkpt lat="39.8790130" lon="-4.1033620">
        <ele>481.3</ele>
        <time>2019-08-13T07:30:14Z</time>
      </trkpt>
      <trkpt lat="39.8789840" lon="-4.1034090">
        <ele>481.0</ele>
        <time>2019-08-13T07:30:15Z</time>
      </trkpt>
      <trkpt lat="39.8789550" lon="-4.1034540">
        <ele>480.9</ele>
        <time>2019-08-13T07:30:16Z</time>
      </trkpt>
      <trkpt lat="39.8789270" lon="-4.1034970">
        <ele>480.8</ele>
        <time>2019-08-13T07:30:17Z</time>
      </trkpt>
      <trkpt lat="39.8788990" lon="-4.1035400">
        <ele>480.7</ele>
        <time>2019-08-13T07:30:18Z</time>
      </trkpt>
      <trkpt lat="39.8788720" lon="-4.1035880">
        <ele>480.6</ele>
        <time>2019-08-13T07:30:19Z</time>
      </trkpt>
      <trkpt lat="39.8788450" lon="-4.1036430">
        <ele>480.5</ele>
        <time>2019-08-13T07:30:20Z</time>
      </trkpt>
      <trkpt lat="39.8788190" lon="-4.1037020">
        <ele>480.5</ele>
        <time>2019-08-13T07:30:21Z</time>
      </trkpt>
      <trkpt lat="39.8787940" lon="-4.1037650">
        <ele>480.4</ele>
        <time>2019-08-13T07:30:22Z</time>
      </trkpt>
      <trkpt lat="39.8787720" lon="-4.1038320">
        <ele>480.3</ele>
        <time>2019-08-13T07:30:23Z</time>
      </trkpt>
      <trkpt lat="39.8787500" lon="-4.1039040">
        <ele>480.1</ele>
        <time>2019-08-13T07:30:24Z</time>
      </trkpt>
      <trkpt lat="39.8787260" lon="-4.1039760">
        <ele>479.9</ele>
        <time>2019-08-13T07:30:25Z</time>
      </trkpt>
      <trkpt lat="39.8787030" lon="-4.1040500">
        <ele>479.8</ele>
        <time>2019-08-13T07:30:26Z</time>
      </trkpt>
      <trkpt lat="39.8786800" lon="-4.1041180">
        <ele>479.6</ele>
        <time>2019-08-13T07:30:27Z</time>
      </trkpt>
      <trkpt lat="39.8786620" lon="-4.1041870">
        <ele>479.5</ele>
        <time>2019-08-13T07:30:28Z</time>
      </trkpt>
      <trkpt lat="39.8786440" lon="-4.1042570">
        <ele>479.4</ele>
        <time>2019-08-13T07:30:29Z</time>
      </trkpt>
      <trkpt lat="39.8786260" lon="-4.1043250">
        <ele>479.2</ele>
        <time>2019-08-13T07:30:30Z</time>
      </trkpt>
      <trkpt lat="39.8786050" lon="-4.1043920">
        <ele>479.1</ele>
        <time>2019-08-13T07:30:31Z</time>
      </trkpt>
      <trkpt lat="39.8785830" lon="-4.1044550">
        <ele>479.0</ele>
        <time>2019-08-13T07:30:32Z</time>
      </trkpt>
      <trkpt lat="39.8785600" lon="-4.1045140">
        <ele>478.9</ele>
        <time>2019-08-13T07:30:33Z</time>
      </trkpt>
      <trkpt lat="39.8785310" lon="-4.1045710">
        <ele>478.7</ele>
        <time>2019-08-13T07:30:34Z</time>
      </trkpt>
      <trkpt lat="39.8784950" lon="-4.1046200">
        <ele>478.6</ele>
        <time>2019-08-13T07:30:35Z</time>
      </trkpt>
      <trkpt lat="39.8784610" lon="-4.1046640">
        <ele>478.4</ele>
        <time>2019-08-13T07:30:36Z</time>
      </trkpt>
      <trkpt lat="39.8784240" lon="-4.1047050">
        <ele>478.3</ele>
        <time>2019-08-13T07:30:37Z</time>
      </trkpt>
      <trkpt lat="39.8783830" lon="-4.1047390">
        <ele>478.1</ele>
        <time>2019-08-13T07:30:38Z</time>
      </trkpt>
      <trkpt lat="39.8783510" lon="-4.1047790">
        <ele>478.0</ele>
        <time>2019-08-13T07:30:39Z</time>
      </trkpt>
      <trkpt lat="39.8783170" lon="-4.1048180">
        <ele>477.9</ele>
        <time>2019-08-13T07:30:40Z</time>
      </trkpt>
      <trkpt lat="39.8782850" lon="-4.1048560">
        <ele>477.7</ele>
        <time>2019-08-13T07:30:41Z</time>
      </trkpt>
      <trkpt lat="39.8782540" lon="-4.1048960">
        <ele>477.6</ele>
        <time>2019-08-13T07:30:42Z</time>
      </trkpt>
      <trkpt lat="39.8782260" lon="-4.1049330">
        <ele>477.5</ele>
        <time>2019-08-13T07:30:43Z</time>
      </trkpt>
      <trkpt lat="39.8782040" lon="-4.1049670">
        <ele>477.4</ele>
        <time>2019-08-13T07:30:44Z</time>
      </trkpt>
      <trkpt lat="39.8781830" lon="-4.1050020">
        <ele>477.3</ele>
        <time>2019-08-13T07:30:45Z</time>
      </trkpt>
      <trkpt lat="39.8781630" lon="-4.1050410">
        <ele>477.2</ele>
        <time>2019-08-13T07:30:46Z</time>
      </trkpt>
      <trkpt lat="39.8781420" lon="-4.1050820">
        <ele>477.2</ele>
        <time>2019-08-13T07:30:47Z</time>
      </trkpt>
      <trkpt lat="39.8781190" lon="-4.1051230">
        <ele>477.1</ele>
        <time>2019-08-13T07:30:48Z</time>
      </trkpt>
      <trkpt lat="39.8780950" lon="-4.1051590">
        <ele>477.0</ele>
        <time>2019-08-13T07:30:49Z</time>
      </trkpt>
      <trkpt lat="39.8780720" lon="-4.1051950">
        <ele>476.9</ele>
        <time>2019-08-13T07:30:50Z</time>
      </trkpt>
      <trkpt lat="39.8780530" lon="-4.1052290">
        <ele>476.9</ele>
        <time>2019-08-13T07:30:51Z</time>
      </trkpt>
      <trkpt lat="39.8780360" lon="-4.1052620">
        <ele>476.8</ele>
        <time>2019-08-13T07:30:52Z</time>
      </trkpt>
      <trkpt lat="39.8780180" lon="-4.1052940">
        <ele>476.8</ele>
        <time>2019-08-13T07:30:53Z</time>
      </trkpt>
      <trkpt lat="39.8780000" lon="-4.1053240">
        <ele>476.7</ele>
        <time>2019-08-13T07:30:54Z</time>
      </trkpt>
      <trkpt lat="39.8779850" lon="-4.1053540">
        <ele>476.7</ele>
        <time>2019-08-13T07:30:55Z</time>
      </trkpt>
      <trkpt lat="39.8779510" lon="-4.1054120">
        <ele>476.6</ele>
        <time>2019-08-13T07:30:57Z</time>
      </trkpt>
      <trkpt lat="39.8779270" lon="-4.1054420">
        <ele>476.6</ele>
        <time>2019-08-13T07:30:58Z</time>
      </trkpt>
      <trkpt lat="39.8779030" lon="-4.1054730">
        <ele>476.5</ele>
        <time>2019-08-13T07:30:59Z</time>
      </trkpt>
      <trkpt lat="39.8778770" lon="-4.1055090">
        <ele>476.5</ele>
        <time>2019-08-13T07:31:00Z</time>
      </trkpt>
      <trkpt lat="39.8778500" lon="-4.1055510">
        <ele>476.4</ele>
        <time>2019-08-13T07:31:01Z</time>
      </trkpt>
      <trkpt lat="39.8778230" lon="-4.1055930">
        <ele>476.4</ele>
        <time>2019-08-13T07:31:02Z</time>
      </trkpt>
      <trkpt lat="39.8777930" lon="-4.1056350">
        <ele>476.3</ele>
        <time>2019-08-13T07:31:03Z</time>
      </trkpt>
      <trkpt lat="39.8777650" lon="-4.1056740">
        <ele>476.3</ele>
        <time>2019-08-13T07:31:04Z</time>
      </trkpt>
      <trkpt lat="39.8777370" lon="-4.1057110">
        <ele>476.2</ele>
        <time>2019-08-13T07:31:05Z</time>
      </trkpt>
      <trkpt lat="39.8777080" lon="-4.1057470">
        <ele>476.2</ele>
        <time>2019-08-13T07:31:06Z</time>
      </trkpt>
      <trkpt lat="39.8776800" lon="-4.1057840">
        <ele>476.1</ele>
        <time>2019-08-13T07:31:07Z</time>
      </trkpt>
      <trkpt lat="39.8776540" lon="-4.1058220">
        <ele>476.1</ele>
        <time>2019-08-13T07:31:08Z</time>
      </trkpt>
      <trkpt lat="39.8776280" lon="-4.1058600">
        <ele>476.0</ele>
        <time>2019-08-13T07:31:09Z</time>
      </trkpt>
      <trkpt lat="39.8776050" lon="-4.1058970">
        <ele>476.0</ele>
        <time>2019-08-13T07:31:10Z</time>
      </trkpt>
      <trkpt lat="39.8775830" lon="-4.1059290">
        <ele>476.0</ele>
        <time>2019-08-13T07:31:11Z</time>
      </trkpt>
      <trkpt lat="39.8775630" lon="-4.1059600">
        <ele>476.0</ele>
        <time>2019-08-13T07:31:12Z</time>
      </trkpt>
      <trkpt lat="39.8775410" lon="-4.1059880">
        <ele>475.9</ele>
        <time>2019-08-13T07:31:13Z</time>
      </trkpt>
      <trkpt lat="39.8775230" lon="-4.1060130">
        <ele>475.9</ele>
        <time>2019-08-13T07:31:14Z</time>
      </trkpt>
      <trkpt lat="39.8774880" lon="-4.1060630">
        <ele>475.9</ele>
        <time>2019-08-13T07:31:16Z</time>
      </trkpt>
      <trkpt lat="39.8774690" lon="-4.1060890">
        <ele>475.9</ele>
        <time>2019-08-13T07:31:17Z</time>
      </trkpt>
      <trkpt lat="39.8774300" lon="-4.1061450">
        <ele>475.9</ele>
        <time>2019-08-13T07:31:19Z</time>
      </trkpt>
      <trkpt lat="39.8774040" lon="-4.1061830">
        <ele>475.9</ele>
        <time>2019-08-13T07:31:20Z</time>
      </trkpt>
      <trkpt lat="39.8773800" lon="-4.1062180">
        <ele>475.9</ele>
        <time>2019-08-13T07:31:21Z</time>
      </trkpt>
      <trkpt lat="39.8773580" lon="-4.1062580">
        <ele>475.9</ele>
        <time>2019-08-13T07:31:22Z</time>
      </trkpt>
      <trkpt lat="39.8773330" lon="-4.1062990">
        <ele>475.9</ele>
        <time>2019-08-13T07:31:23Z</time>
      </trkpt>
      <trkpt lat="39.8773090" lon="-4.1063400">
        <ele>475.9</ele>
        <time>2019-08-13T07:31:24Z</time>
      </trkpt>
      <trkpt lat="39.8772850" lon="-4.1063830">
        <ele>475.9</ele>
        <time>2019-08-13T07:31:25Z</time>
      </trkpt>
      <trkpt lat="39.8772590" lon="-4.1064260">
        <ele>475.9</ele>
        <time>2019-08-13T07:31:26Z</time>
      </trkpt>
      <trkpt lat="39.8772360" lon="-4.1064720">
        <ele>475.9</ele>
        <time>2019-08-13T07:31:27Z</time>
      </trkpt>
      <trkpt lat="39.8772120" lon="-4.1065200">
        <ele>475.9</ele>
        <time>2019-08-13T07:31:28Z</time>
      </trkpt>
      <trkpt lat="39.8771890" lon="-4.1065730">
        <ele>475.9</ele>
        <time>2019-08-13T07:31:29Z</time>
      </trkpt>
      <trkpt lat="39.8771680" lon="-4.1066310">
        <ele>475.9</ele>
        <time>2019-08-13T07:31:30Z</time>
      </trkpt>
      <trkpt lat="39.8771510" lon="-4.1066940">
        <ele>475.9</ele>
        <time>2019-08-13T07:31:31Z</time>
      </trkpt>
      <trkpt lat="39.8771360" lon="-4.1067610">
        <ele>475.9</ele>
        <time>2019-08-13T07:31:32Z</time>
      </trkpt>
      <trkpt lat="39.8771250" lon="-4.1068300">
        <ele>475.9</ele>
        <time>2019-08-13T07:31:33Z</time>
      </trkpt>
      <trkpt lat="39.8771190" lon="-4.1069030">
        <ele>475.8</ele>
        <time>2019-08-13T07:31:34Z</time>
      </trkpt>
      <trkpt lat="39.8771170" lon="-4.1069770">
        <ele>475.8</ele>
        <time>2019-08-13T07:31:35Z</time>
      </trkpt>
      <trkpt lat="39.8771170" lon="-4.1070520">
        <ele>475.8</ele>
        <time>2019-08-13T07:31:36Z</time>
      </trkpt>
      <trkpt lat="39.8771220" lon="-4.1071270">
        <ele>475.8</ele>
        <time>2019-08-13T07:31:37Z</time>
      </trkpt>
      <trkpt lat="39.8771300" lon="-4.1072030">
        <ele>475.8</ele>
        <time>2019-08-13T07:31:38Z</time>
      </trkpt>
      <trkpt lat="39.8771420" lon="-4.1072780">
        <ele>475.7</ele>
        <time>2019-08-13T07:31:39Z</time>
      </trkpt>
      <trkpt lat="39.8771530" lon="-4.1073510">
        <ele>475.7</ele>
        <time>2019-08-13T07:31:40Z</time>
      </trkpt>
      <trkpt lat="39.8771650" lon="-4.1074240">
        <ele>475.7</ele>
        <time>2019-08-13T07:31:41Z</time>
      </trkpt>
      <trkpt lat="39.8771770" lon="-4.1075000">
        <ele>475.7</ele>
        <time>2019-08-13T07:31:42Z</time>
      </trkpt>
      <trkpt lat="39.8771880" lon="-4.1075770">
        <ele>475.6</ele>
        <time>2019-08-13T07:31:43Z</time>
      </trkpt>
      <trkpt lat="39.8771980" lon="-4.1076560">
        <ele>475.5</ele>
        <time>2019-08-13T07:31:44Z</time>
      </trkpt>
      <trkpt lat="39.8772080" lon="-4.1077350">
        <ele>475.4</ele>
        <time>2019-08-13T07:31:45Z</time>
      </trkpt>
      <trkpt lat="39.8772170" lon="-4.1078160">
        <ele>475.3</ele>
        <time>2019-08-13T07:31:46Z</time>
      </trkpt>
      <trkpt lat="39.8772270" lon="-4.1078960">
        <ele>475.2</ele>
        <time>2019-08-13T07:31:47Z</time>
      </trkpt>
      <trkpt lat="39.8772370" lon="-4.1079760">
        <ele>475.0</ele>
        <time>2019-08-13T07:31:48Z</time>
      </trkpt>
      <trkpt lat="39.8772460" lon="-4.1080560">
        <ele>474.9</ele>
        <time>2019-08-13T07:31:49Z</time>
      </trkpt>
      <trkpt lat="39.8772550" lon="-4.1081350">
        <ele>474.7</ele>
        <time>2019-08-13T07:31:50Z</time>
      </trkpt>
      <trkpt lat="39.8772650" lon="-4.1082150">
        <ele>474.6</ele>
        <time>2019-08-13T07:31:51Z</time>
      </trkpt>
      <trkpt lat="39.8772780" lon="-4.1082930">
        <ele>474.4</ele>
        <time>2019-08-13T07:31:52Z</time>
      </trkpt>
      <trkpt lat="39.8772920" lon="-4.1083710">
        <ele>474.3</ele>
        <time>2019-08-13T07:31:53Z</time>
      </trkpt>
      <trkpt lat="39.8773070" lon="-4.1084470">
        <ele>474.2</ele>
        <time>2019-08-13T07:31:54Z</time>
      </trkpt>
      <trkpt lat="39.8773210" lon="-4.1085230">
        <ele>474.0</ele>
        <time>2019-08-13T07:31:55Z</time>
      </trkpt>
      <trkpt lat="39.8773340" lon="-4.1085990">
        <ele>473.9</ele>
        <time>2019-08-13T07:31:56Z</time>
      </trkpt>
      <trkpt lat="39.8773490" lon="-4.1086750">
        <ele>473.8</ele>
        <time>2019-08-13T07:31:57Z</time>
      </trkpt>
      <trkpt lat="39.8773640" lon="-4.1087510">
        <ele>473.7</ele>
        <time>2019-08-13T07:31:58Z</time>
      </trkpt>
      <trkpt lat="39.8773780" lon="-4.1088300">
        <ele>473.5</ele>
        <time>2019-08-13T07:31:59Z</time>
      </trkpt>
      <trkpt lat="39.8773930" lon="-4.1089100">
        <ele>473.4</ele>
        <time>2019-08-13T07:32:00Z</time>
      </trkpt>
      <trkpt lat="39.8774100" lon="-4.1089890">
        <ele>473.3</ele>
        <time>2019-08-13T07:32:01Z</time>
      </trkpt>
      <trkpt lat="39.8774280" lon="-4.1090660">
        <ele>473.2</ele>
        <time>2019-08-13T07:32:02Z</time>
      </trkpt>
      <trkpt lat="39.8774490" lon="-4.1091410">
        <ele>473.0</ele>
        <time>2019-08-13T07:32:03Z</time>
      </trkpt>
      <trkpt lat="39.8774710" lon="-4.1092130">
        <ele>472.9</ele>
        <time>2019-08-13T07:32:04Z</time>
      </trkpt>
      <trkpt lat="39.8774960" lon="-4.1092820">
        <ele>472.8</ele>
        <time>2019-08-13T07:32:05Z</time>
      </trkpt>
      <trkpt lat="39.8775210" lon="-4.1093490">
        <ele>472.7</ele>
        <time>2019-08-13T07:32:06Z</time>
      </trkpt>
      <trkpt lat="39.8775460" lon="-4.1094170">
        <ele>472.6</ele>
        <time>2019-08-13T07:32:07Z</time>
      </trkpt>
      <trkpt lat="39.8775720" lon="-4.1094860">
        <ele>472.4</ele>
        <time>2019-08-13T07:32:08Z</time>
      </trkpt>
      <trkpt lat="39.8775970" lon="-4.1095570">
        <ele>472.2</ele>
        <time>2019-08-13T07:32:09Z</time>
      </trkpt>
      <trkpt lat="39.8776230" lon="-4.1096260">
        <ele>472.1</ele>
        <time>2019-08-13T07:32:10Z</time>
      </trkpt>
      <trkpt lat="39.8776460" lon="-4.1096950">
        <ele>472.0</ele>
        <time>2019-08-13T07:32:11Z</time>
      </trkpt>
      <trkpt lat="39.8776680" lon="-4.1097660">
        <ele>471.8</ele>
        <time>2019-08-13T07:32:12Z</time>
      </trkpt>
      <trkpt lat="39.8776890" lon="-4.1098360">
        <ele>471.7</ele>
        <time>2019-08-13T07:32:13Z</time>
      </trkpt>
      <trkpt lat="39.8777080" lon="-4.1099040">
        <ele>471.6</ele>
        <time>2019-08-13T07:32:14Z</time>
      </trkpt>
      <trkpt lat="39.8777260" lon="-4.1099740">
        <ele>471.5</ele>
        <time>2019-08-13T07:32:15Z</time>
      </trkpt>
      <trkpt lat="39.8777450" lon="-4.1100430">
        <ele>471.5</ele>
        <time>2019-08-13T07:32:16Z</time>
      </trkpt>
      <trkpt lat="39.8777660" lon="-4.1101100">
        <ele>471.4</ele>
        <time>2019-08-13T07:32:17Z</time>
      </trkpt>
      <trkpt lat="39.8777890" lon="-4.1101760">
        <ele>471.3</ele>
        <time>2019-08-13T07:32:18Z</time>
      </trkpt>
      <trkpt lat="39.8778130" lon="-4.1102400">
        <ele>471.2</ele>
        <time>2019-08-13T07:32:19Z</time>
      </trkpt>
      <trkpt lat="39.8778370" lon="-4.1103060">
        <ele>471.2</ele>
        <time>2019-08-13T07:32:20Z</time>
      </trkpt>
      <trkpt lat="39.8778600" lon="-4.1103710">
        <ele>471.1</ele>
        <time>2019-08-13T07:32:21Z</time>
      </trkpt>
      <trkpt lat="39.8778830" lon="-4.1104370">
        <ele>471.0</ele>
        <time>2019-08-13T07:32:22Z</time>
      </trkpt>
      <trkpt lat="39.8779070" lon="-4.1105040">
        <ele>470.9</ele>
        <time>2019-08-13T07:32:23Z</time>
      </trkpt>
      <trkpt lat="39.8779310" lon="-4.1105710">
        <ele>470.9</ele>
        <time>2019-08-13T07:32:24Z</time>
      </trkpt>
      <trkpt lat="39.8779540" lon="-4.1106400">
        <ele>470.8</ele>
        <time>2019-08-13T07:32:25Z</time>
      </trkpt>
      <trkpt lat="39.8779770" lon="-4.1107090">
        <ele>470.6</ele>
        <time>2019-08-13T07:32:26Z</time>
      </trkpt>
      <trkpt lat="39.8780010" lon="-4.1107780">
        <ele>470.5</ele>
        <time>2019-08-13T07:32:27Z</time>
      </trkpt>
      <trkpt lat="39.8780250" lon="-4.1108480">
        <ele>470.4</ele>
        <time>2019-08-13T07:32:28Z</time>
      </trkpt>
      <trkpt lat="39.8780500" lon="-4.1109190">
        <ele>470.3</ele>
        <time>2019-08-13T07:32:29Z</time>
      </trkpt>
      <trkpt lat="39.8780730" lon="-4.1109910">
        <ele>470.1</ele>
        <time>2019-08-13T07:32:30Z</time>
      </trkpt>
      <trkpt lat="39.8780940" lon="-4.1110630">
        <ele>470.0</ele>
        <time>2019-08-13T07:32:31Z</time>
      </trkpt>
      <trkpt lat="39.8781170" lon="-4.1111330">
        <ele>469.9</ele>
        <time>2019-08-13T07:32:32Z</time>
      </trkpt>
      <trkpt lat="39.8781390" lon="-4.1112040">
        <ele>469.8</ele>
        <time>2019-08-13T07:32:33Z</time>
      </trkpt>
      <trkpt lat="39.8781610" lon="-4.1112730">
        <ele>469.8</ele>
        <time>2019-08-13T07:32:34Z</time>
      </trkpt>
      <trkpt lat="39.8781820" lon="-4.1113420">
        <ele>469.7</ele>
        <time>2019-08-13T07:32:35Z</time>
      </trkpt>
      <trkpt lat="39.8782030" lon="-4.1114080">
        <ele>469.7</ele>
        <time>2019-08-13T07:32:36Z</time>
      </trkpt>
      <trkpt lat="39.8782250" lon="-4.1114740">
        <ele>469.7</ele>
        <time>2019-08-13T07:32:37Z</time>
      </trkpt>
      <trkpt lat="39.8782450" lon="-4.1115380">
        <ele>469.6</ele>
        <time>2019-08-13T07:32:38Z</time>
      </trkpt>
      <trkpt lat="39.8782640" lon="-4.1116010">
        <ele>469.6</ele>
        <time>2019-08-13T07:32:39Z</time>
      </trkpt>
      <trkpt lat="39.8782820" lon="-4.1116640">
        <ele>469.5</ele>
        <time>2019-08-13T07:32:40Z</time>
      </trkpt>
      <trkpt lat="39.8782990" lon="-4.1117270">
        <ele>469.5</ele>
        <time>2019-08-13T07:32:41Z</time>
      </trkpt>
      <trkpt lat="39.8783140" lon="-4.1117930">
        <ele>469.4</ele>
        <time>2019-08-13T07:32:42Z</time>
      </trkpt>
      <trkpt lat="39.8783290" lon="-4.1118600">
        <ele>469.4</ele>
        <time>2019-08-13T07:32:43Z</time>
      </trkpt>
      <trkpt lat="39.8783460" lon="-4.1119280">
        <ele>469.3</ele>
        <time>2019-08-13T07:32:44Z</time>
      </trkpt>
      <trkpt lat="39.8783650" lon="-4.1119970">
        <ele>469.3</ele>
        <time>2019-08-13T07:32:45Z</time>
      </trkpt>
      <trkpt lat="39.8783820" lon="-4.1120680">
        <ele>469.2</ele>
        <time>2019-08-13T07:32:46Z</time>
      </trkpt>
      <trkpt lat="39.8783980" lon="-4.1121410">
        <ele>469.2</ele>
        <time>2019-08-13T07:32:47Z</time>
      </trkpt>
      <trkpt lat="39.8784150" lon="-4.1122160">
        <ele>469.1</ele>
        <time>2019-08-13T07:32:48Z</time>
      </trkpt>
      <trkpt lat="39.8784310" lon="-4.1122950">
        <ele>469.0</ele>
        <time>2019-08-13T07:32:49Z</time>
      </trkpt>
      <trkpt lat="39.8784470" lon="-4.1123730">
        <ele>469.0</ele>
        <time>2019-08-13T07:32:50Z</time>
      </trkpt>
      <trkpt lat="39.8784650" lon="-4.1124540">
        <ele>468.9</ele>
        <time>2019-08-13T07:32:51Z</time>
      </trkpt>
      <trkpt lat="39.8784860" lon="-4.1125340">
        <ele>468.8</ele>
        <time>2019-08-13T07:32:52Z</time>
      </trkpt>
      <trkpt lat="39.8785090" lon="-4.1126140">
        <ele>468.6</ele>
        <time>2019-08-13T07:32:53Z</time>
      </trkpt>
      <trkpt lat="39.8785350" lon="-4.1126930">
        <ele>468.5</ele>
        <time>2019-08-13T07:32:54Z</time>
      </trkpt>
      <trkpt lat="39.8785630" lon="-4.1127720">
        <ele>468.3</ele>
        <time>2019-08-13T07:32:55Z</time>
      </trkpt>
      <trkpt lat="39.8785940" lon="-4.1128490">
        <ele>468.1</ele>
        <time>2019-08-13T07:32:56Z</time>
      </trkpt>
      <trkpt lat="39.8786270" lon="-4.1129240">
        <ele>467.8</ele>
        <time>2019-08-13T07:32:57Z</time>
      </trkpt>
      <trkpt lat="39.8786600" lon="-4.1129990">
        <ele>467.5</ele>
        <time>2019-08-13T07:32:58Z</time>
      </trkpt>
      <trkpt lat="39.8786940" lon="-4.1130720">
        <ele>467.1</ele>
        <time>2019-08-13T07:32:59Z</time>
      </trkpt>
      <trkpt lat="39.8787290" lon="-4.1131440">
        <ele>466.8</ele>
        <time>2019-08-13T07:33:00Z</time>
      </trkpt>
      <trkpt lat="39.8787620" lon="-4.1132170">
        <ele>466.4</ele>
        <time>2019-08-13T07:33:01Z</time>
      </trkpt>
      <trkpt lat="39.8787920" lon="-4.1132930">
        <ele>466.1</ele>
        <time>2019-08-13T07:33:02Z</time>
      </trkpt>
      <trkpt lat="39.8788200" lon="-4.1133710">
        <ele>465.9</ele>
        <time>2019-08-13T07:33:03Z</time>
      </trkpt>
      <trkpt lat="39.8788460" lon="-4.1134510">
        <ele>465.6</ele>
        <time>2019-08-13T07:33:04Z</time>
      </trkpt>
      <trkpt lat="39.8788700" lon="-4.1135330">
        <ele>465.4</ele>
        <time>2019-08-13T07:33:05Z</time>
      </trkpt>
      <trkpt lat="39.8788950" lon="-4.1136130">
        <ele>465.2</ele>
        <time>2019-08-13T07:33:06Z</time>
      </trkpt>
      <trkpt lat="39.8789200" lon="-4.1136930">
        <ele>465.0</ele>
        <time>2019-08-13T07:33:07Z</time>
      </trkpt>
      <trkpt lat="39.8789450" lon="-4.1137730">
        <ele>464.8</ele>
        <time>2019-08-13T07:33:08Z</time>
      </trkpt>
      <trkpt lat="39.8789730" lon="-4.1138500">
        <ele>464.7</ele>
        <time>2019-08-13T07:33:09Z</time>
      </trkpt>
      <trkpt lat="39.8789990" lon="-4.1139270">
        <ele>464.5</ele>
        <time>2019-08-13T07:33:10Z</time>
      </trkpt>
      <trkpt lat="39.8790260" lon="-4.1140020">
        <ele>464.4</ele>
        <time>2019-08-13T07:33:11Z</time>
      </trkpt>
      <trkpt lat="39.8790560" lon="-4.1140730">
        <ele>464.3</ele>
        <time>2019-08-13T07:33:12Z</time>
      </trkpt>
      <trkpt lat="39.8790910" lon="-4.1141380">
        <ele>464.1</ele>
        <time>2019-08-13T07:33:13Z</time>
      </trkpt>
      <trkpt lat="39.8791290" lon="-4.1141990">
        <ele>464.0</ele>
        <time>2019-08-13T07:33:14Z</time>
      </trkpt>
      <trkpt lat="39.8791680" lon="-4.1142560">
        <ele>463.9</ele>
        <time>2019-08-13T07:33:15Z</time>
      </trkpt>
      <trkpt lat="39.8792080" lon="-4.1143120">
        <ele>463.8</ele>
        <time>2019-08-13T07:33:16Z</time>
      </trkpt>
      <trkpt lat="39.8792480" lon="-4.1143670">
        <ele>463.6</ele>
        <time>2019-08-13T07:33:17Z</time>
      </trkpt>
      <trkpt lat="39.8792880" lon="-4.1144200">
        <ele>463.5</ele>
        <time>2019-08-13T07:33:18Z</time>
      </trkpt>
      <trkpt lat="39.8793270" lon="-4.1144740">
        <ele>463.4</ele>
        <time>2019-08-13T07:33:19Z</time>
      </trkpt>
      <trkpt lat="39.8793650" lon="-4.1145270">
        <ele>463.2</ele>
        <time>2019-08-13T07:33:20Z</time>
      </trkpt>
      <trkpt lat="39.8794030" lon="-4.1145800">
        <ele>463.1</ele>
        <time>2019-08-13T07:33:21Z</time>
      </trkpt>
      <trkpt lat="39.8794420" lon="-4.1146320">
        <ele>463.0</ele>
        <time>2019-08-13T07:33:22Z</time>
      </trkpt>
      <trkpt lat="39.8794810" lon="-4.1146840">
        <ele>463.0</ele>
        <time>2019-08-13T07:33:23Z</time>
      </trkpt>
      <trkpt lat="39.8795200" lon="-4.1147390">
        <ele>463.0</ele>
        <time>2019-08-13T07:33:24Z</time>
      </trkpt>
      <trkpt lat="39.8795600" lon="-4.1147910">
        <ele>463.0</ele>
        <time>2019-08-13T07:33:25Z</time>
      </trkpt>
      <trkpt lat="39.8795990" lon="-4.1148420">
        <ele>463.0</ele>
        <time>2019-08-13T07:33:26Z</time>
      </trkpt>
      <trkpt lat="39.8796400" lon="-4.1148940">
        <ele>463.1</ele>
        <time>2019-08-13T07:33:27Z</time>
      </trkpt>
      <trkpt lat="39.8796790" lon="-4.1149440">
        <ele>463.1</ele>
        <time>2019-08-13T07:33:28Z</time>
      </trkpt>
      <trkpt lat="39.8797170" lon="-4.1149950">
        <ele>463.1</ele>
        <time>2019-08-13T07:33:29Z</time>
      </trkpt>
      <trkpt lat="39.8797530" lon="-4.1150460">
        <ele>463.2</ele>
        <time>2019-08-13T07:33:30Z</time>
      </trkpt>
      <trkpt lat="39.8797890" lon="-4.1150970">
        <ele>463.3</ele>
        <time>2019-08-13T07:33:31Z</time>
      </trkpt>
      <trkpt lat="39.8798250" lon="-4.1151460">
        <ele>463.3</ele>
        <time>2019-08-13T07:33:32Z</time>
      </trkpt>
      <trkpt lat="39.8798590" lon="-4.1151960">
        <ele>463.4</ele>
        <time>2019-08-13T07:33:33Z</time>
      </trkpt>
      <trkpt lat="39.8798940" lon="-4.1152440">
        <ele>463.5</ele>
        <time>2019-08-13T07:33:34Z</time>
      </trkpt>
      <trkpt lat="39.8799300" lon="-4.1152930">
        <ele>463.6</ele>
        <time>2019-08-13T07:33:35Z</time>
      </trkpt>
      <trkpt lat="39.8799660" lon="-4.1153430">
        <ele>463.7</ele>
        <time>2019-08-13T07:33:36Z</time>
      </trkpt>
      <trkpt lat="39.8800020" lon="-4.1153930">
        <ele>463.8</ele>
        <time>2019-08-13T07:33:37Z</time>
      </trkpt>
      <trkpt lat="39.8800390" lon="-4.1154450">
        <ele>463.9</ele>
        <time>2019-08-13T07:33:38Z</time>
      </trkpt>
      <trkpt lat="39.8800740" lon="-4.1154960">
        <ele>463.9</ele>
        <time>2019-08-13T07:33:39Z</time>
      </trkpt>
      <trkpt lat="39.8801100" lon="-4.1155490">
        <ele>464.0</ele>
        <time>2019-08-13T07:33:40Z</time>
      </trkpt>
      <trkpt lat="39.8801470" lon="-4.1156010">
        <ele>464.1</ele>
        <time>2019-08-13T07:33:41Z</time>
      </trkpt>
      <trkpt lat="39.8801830" lon="-4.1156530">
        <ele>464.2</ele>
        <time>2019-08-13T07:33:42Z</time>
      </trkpt>
      <trkpt lat="39.8802180" lon="-4.1157060">
        <ele>464.4</ele>
        <time>2019-08-13T07:33:43Z</time>
      </trkpt>
      <trkpt lat="39.8802550" lon="-4.1157570">
        <ele>464.5</ele>
        <time>2019-08-13T07:33:44Z</time>
      </trkpt>
      <trkpt lat="39.8802910" lon="-4.1158090">
        <ele>464.6</ele>
        <time>2019-08-13T07:33:45Z</time>
      </trkpt>
      <trkpt lat="39.8803260" lon="-4.1158570">
        <ele>464.7</ele>
        <time>2019-08-13T07:33:46Z</time>
      </trkpt>
      <trkpt lat="39.8803620" lon="-4.1159060">
        <ele>464.8</ele>
        <time>2019-08-13T07:33:47Z</time>
      </trkpt>
      <trkpt lat="39.8803970" lon="-4.1159550">
        <ele>464.8</ele>
        <time>2019-08-13T07:33:48Z</time>
      </trkpt>
      <trkpt lat="39.8804320" lon="-4.1160050">
        <ele>464.9</ele>
        <time>2019-08-13T07:33:49Z</time>
      </trkpt>
      <trkpt lat="39.8804660" lon="-4.1160540">
        <ele>464.9</ele>
        <time>2019-08-13T07:33:50Z</time>
      </trkpt>
      <trkpt lat="39.8805010" lon="-4.1161040">
        <ele>464.9</ele>
        <time>2019-08-13T07:33:51Z</time>
      </trkpt>
      <trkpt lat="39.8805350" lon="-4.1161530">
        <ele>464.9</ele>
        <time>2019-08-13T07:33:52Z</time>
      </trkpt>
      <trkpt lat="39.8805690" lon="-4.1162030">
        <ele>465.0</ele>
        <time>2019-08-13T07:33:53Z</time>
      </trkpt>
      <trkpt lat="39.8806020" lon="-4.1162520">
        <ele>465.0</ele>
        <time>2019-08-13T07:33:54Z</time>
      </trkpt>
      <trkpt lat="39.8806370" lon="-4.1163010">
        <ele>465.1</ele>
        <time>2019-08-13T07:33:55Z</time>
      </trkpt>
      <trkpt lat="39.8806720" lon="-4.1163490">
        <ele>465.1</ele>
        <time>2019-08-13T07:33:56Z</time>
      </trkpt>
      <trkpt lat="39.8807060" lon="-4.1163980">
        <ele>465.2</ele>
        <time>2019-08-13T07:33:57Z</time>
      </trkpt>
      <trkpt lat="39.8807400" lon="-4.1164470">
        <ele>465.2</ele>
        <time>2019-08-13T07:33:58Z</time>
      </trkpt>
      <trkpt lat="39.8807740" lon="-4.1164950">
        <ele>465.2</ele>
        <time>2019-08-13T07:33:59Z</time>
      </trkpt>
      <trkpt lat="39.8808070" lon="-4.1165410">
        <ele>465.3</ele>
        <time>2019-08-13T07:34:00Z</time>
      </trkpt>
      <trkpt lat="39.8808390" lon="-4.1165880">
        <ele>465.3</ele>
        <time>2019-08-13T07:34:01Z</time>
      </trkpt>
      <trkpt lat="39.8808720" lon="-4.1166350">
        <ele>465.3</ele>
        <time>2019-08-13T07:34:02Z</time>
      </trkpt>
      <trkpt lat="39.8809040" lon="-4.1166800">
        <ele>465.3</ele>
        <time>2019-08-13T07:34:03Z</time>
      </trkpt>
      <trkpt lat="39.8809350" lon="-4.1167250">
        <ele>465.3</ele>
        <time>2019-08-13T07:34:04Z</time>
      </trkpt>
      <trkpt lat="39.8809660" lon="-4.1167710">
        <ele>465.3</ele>
        <time>2019-08-13T07:34:05Z</time>
      </trkpt>
      <trkpt lat="39.8809970" lon="-4.1168170">
        <ele>465.3</ele>
        <time>2019-08-13T07:34:06Z</time>
      </trkpt>
      <trkpt lat="39.8810290" lon="-4.1168640">
        <ele>465.3</ele>
        <time>2019-08-13T07:34:07Z</time>
      </trkpt>
      <trkpt lat="39.8810610" lon="-4.1169100">
        <ele>465.4</ele>
        <time>2019-08-13T07:34:08Z</time>
      </trkpt>
      <trkpt lat="39.8810930" lon="-4.1169570">
        <ele>465.4</ele>
        <time>2019-08-13T07:34:09Z</time>
      </trkpt>
      <trkpt lat="39.8811250" lon="-4.1170050">
        <ele>465.3</ele>
        <time>2019-08-13T07:34:10Z</time>
      </trkpt>
      <trkpt lat="39.8811580" lon="-4.1170540">
        <ele>465.3</ele>
        <time>2019-08-13T07:34:11Z</time>
      </trkpt>
      <trkpt lat="39.8811930" lon="-4.1171030">
        <ele>465.3</ele>
        <time>2019-08-13T07:34:12Z</time>
      </trkpt>
      <trkpt lat="39.8812270" lon="-4.1171530">
        <ele>465.3</ele>
        <time>2019-08-13T07:34:13Z</time>
      </trkpt>
      <trkpt lat="39.8812630" lon="-4.1172030">
        <ele>465.3</ele>
        <time>2019-08-13T07:34:14Z</time>
      </trkpt>
      <trkpt lat="39.8813000" lon="-4.1172530">
        <ele>465.3</ele>
        <time>2019-08-13T07:34:15Z</time>
      </trkpt>
      <trkpt lat="39.8813360" lon="-4.1173040">
        <ele>465.3</ele>
        <time>2019-08-13T07:34:16Z</time>
      </trkpt>
      <trkpt lat="39.8813710" lon="-4.1173570">
        <ele>465.3</ele>
        <time>2019-08-13T07:34:17Z</time>
      </trkpt>
      <trkpt lat="39.8814070" lon="-4.1174090">
        <ele>465.3</ele>
        <time>2019-08-13T07:34:18Z</time>
      </trkpt>
      <trkpt lat="39.8814430" lon="-4.1174620">
        <ele>465.2</ele>
        <time>2019-08-13T07:34:19Z</time>
      </trkpt>
      <trkpt lat="39.8814790" lon="-4.1175140">
        <ele>465.2</ele>
        <time>2019-08-13T07:34:20Z</time>
      </trkpt>
      <trkpt lat="39.8815170" lon="-4.1175650">
        <ele>465.2</ele>
        <time>2019-08-13T07:34:21Z</time>
      </trkpt>
      <trkpt lat="39.8815540" lon="-4.1176180">
        <ele>465.2</ele>
        <time>2019-08-13T07:34:22Z</time>
      </trkpt>
      <trkpt lat="39.8815910" lon="-4.1176700">
        <ele>465.1</ele>
        <time>2019-08-13T07:34:23Z</time>
      </trkpt>
      <trkpt lat="39.8816290" lon="-4.1177240">
        <ele>465.1</ele>
        <time>2019-08-13T07:34:24Z</time>
      </trkpt>
      <trkpt lat="39.8816670" lon="-4.1177800">
        <ele>465.1</ele>
        <time>2019-08-13T07:34:25Z</time>
      </trkpt>
      <trkpt lat="39.8817060" lon="-4.1178340">
        <ele>465.0</ele>
        <time>2019-08-13T07:34:26Z</time>
      </trkpt>
      <trkpt lat="39.8817450" lon="-4.1178900">
        <ele>465.0</ele>
        <time>2019-08-13T07:34:27Z</time>
      </trkpt>
      <trkpt lat="39.8817840" lon="-4.1179460">
        <ele>464.9</ele>
        <time>2019-08-13T07:34:28Z</time>
      </trkpt>
      <trkpt lat="39.8818210" lon="-4.1180020">
        <ele>464.9</ele>
        <time>2019-08-13T07:34:29Z</time>
      </trkpt>
      <trkpt lat="39.8818590" lon="-4.1180570">
        <ele>464.9</ele>
        <time>2019-08-13T07:34:30Z</time>
      </trkpt>
      <trkpt lat="39.8818980" lon="-4.1181110">
        <ele>464.8</ele>
        <time>2019-08-13T07:34:31Z</time>
      </trkpt>
      <trkpt lat="39.8819370" lon="-4.1181660">
        <ele>464.8</ele>
        <time>2019-08-13T07:34:32Z</time>
      </trkpt>
      <trkpt lat="39.8819760" lon="-4.1182210">
        <ele>464.8</ele>
        <time>2019-08-13T07:34:33Z</time>
      </trkpt>
      <trkpt lat="39.8820150" lon="-4.1182760">
        <ele>464.7</ele>
        <time>2019-08-13T07:34:34Z</time>
      </trkpt>
      <trkpt lat="39.8820540" lon="-4.1183310">
        <ele>464.7</ele>
        <time>2019-08-13T07:34:35Z</time>
      </trkpt>
      <trkpt lat="39.8820940" lon="-4.1183880">
        <ele>464.6</ele>
        <time>2019-08-13T07:34:36Z</time>
      </trkpt>
      <trkpt lat="39.8821340" lon="-4.1184430">
        <ele>464.6</ele>
        <time>2019-08-13T07:34:37Z</time>
      </trkpt>
      <trkpt lat="39.8821760" lon="-4.1184990">
        <ele>464.6</ele>
        <time>2019-08-13T07:34:38Z</time>
      </trkpt>
      <trkpt lat="39.8822170" lon="-4.1185560">
        <ele>464.5</ele>
        <time>2019-08-13T07:34:39Z</time>
      </trkpt>
      <trkpt lat="39.8822590" lon="-4.1186150">
        <ele>464.5</ele>
        <time>2019-08-13T07:34:40Z</time>
      </trkpt>
      <trkpt lat="39.8823000" lon="-4.1186730">
        <ele>464.4</ele>
        <time>2019-08-13T07:34:41Z</time>
      </trkpt>
      <trkpt lat="39.8823410" lon="-4.1187310">
        <ele>464.4</ele>
        <time>2019-08-13T07:34:42Z</time>
      </trkpt>
      <trkpt lat="39.8823810" lon="-4.1187880">
        <ele>464.3</ele>
        <time>2019-08-13T07:34:43Z</time>
      </trkpt>
      <trkpt lat="39.8824200" lon="-4.1188440">
        <ele>464.2</ele>
        <time>2019-08-13T07:34:44Z</time>
      </trkpt>
      <trkpt lat="39.8824590" lon="-4.1189000">
        <ele>464.1</ele>
        <time>2019-08-13T07:34:45Z</time>
      </trkpt>
      <trkpt lat="39.8825000" lon="-4.1189560">
        <ele>464.1</ele>
        <time>2019-08-13T07:34:46Z</time>
      </trkpt>
      <trkpt lat="39.8825400" lon="-4.1190120">
        <ele>464.0</ele>
        <time>2019-08-13T07:34:47Z</time>
      </trkpt>
      <trkpt lat="39.8825820" lon="-4.1190690">
        <ele>463.9</ele>
        <time>2019-08-13T07:34:48Z</time>
      </trkpt>
      <trkpt lat="39.8826240" lon="-4.1191260">
        <ele>463.8</ele>
        <time>2019-08-13T07:34:49Z</time>
      </trkpt>
      <trkpt lat="39.8826670" lon="-4.1191840">
        <ele>463.7</ele>
        <time>2019-08-13T07:34:50Z</time>
      </trkpt>
      <trkpt lat="39.8827110" lon="-4.1192420">
        <ele>463.5</ele>
        <time>2019-08-13T07:34:51Z</time>
      </trkpt>
      <trkpt lat="39.8827530" lon="-4.1192980">
        <ele>463.4</ele>
        <time>2019-08-13T07:34:52Z</time>
      </trkpt>
      <trkpt lat="39.8827970" lon="-4.1193550">
        <ele>463.2</ele>
        <time>2019-08-13T07:34:53Z</time>
      </trkpt>
      <trkpt lat="39.8828410" lon="-4.1194130">
        <ele>463.0</ele>
        <time>2019-08-13T07:34:54Z</time>
      </trkpt>
      <trkpt lat="39.8828850" lon="-4.1194710">
        <ele>462.7</ele>
        <time>2019-08-13T07:34:55Z</time>
      </trkpt>
      <trkpt lat="39.8829290" lon="-4.1195300">
        <ele>462.5</ele>
        <time>2019-08-13T07:34:56Z</time>
      </trkpt>
      <trkpt lat="39.8829740" lon="-4.1195890">
        <ele>462.3</ele>
        <time>2019-08-13T07:34:57Z</time>
      </trkpt>
      <trkpt lat="39.8830170" lon="-4.1196500">
        <ele>462.2</ele>
        <time>2019-08-13T07:34:58Z</time>
      </trkpt>
      <trkpt lat="39.8830610" lon="-4.1197120">
        <ele>462.1</ele>
        <time>2019-08-13T07:34:59Z</time>
      </trkpt>
      <trkpt lat="39.8831040" lon="-4.1197760">
        <ele>462.0</ele>
        <time>2019-08-13T07:35:00Z</time>
      </trkpt>
      <trkpt lat="39.8831470" lon="-4.1198410">
        <ele>461.9</ele>
        <time>2019-08-13T07:35:01Z</time>
      </trkpt>
      <trkpt lat="39.8831900" lon="-4.1199050">
        <ele>461.8</ele>
        <time>2019-08-13T07:35:02Z</time>
      </trkpt>
      <trkpt lat="39.8832320" lon="-4.1199680">
        <ele>461.7</ele>
        <time>2019-08-13T07:35:03Z</time>
      </trkpt>
      <trkpt lat="39.8832740" lon="-4.1200300">
        <ele>461.7</ele>
        <time>2019-08-13T07:35:04Z</time>
      </trkpt>
      <trkpt lat="39.8833150" lon="-4.1200910">
        <ele>461.6</ele>
        <time>2019-08-13T07:35:05Z</time>
      </trkpt>
      <trkpt lat="39.8833570" lon="-4.1201520">
        <ele>461.5</ele>
        <time>2019-08-13T07:35:06Z</time>
      </trkpt>
      <trkpt lat="39.8833970" lon="-4.1202130">
        <ele>461.4</ele>
        <time>2019-08-13T07:35:07Z</time>
      </trkpt>
      <trkpt lat="39.8834400" lon="-4.1202750">
        <ele>461.3</ele>
        <time>2019-08-13T07:35:08Z</time>
      </trkpt>
      <trkpt lat="39.8834820" lon="-4.1203360">
        <ele>461.3</ele>
        <time>2019-08-13T07:35:09Z</time>
      </trkpt>
      <trkpt lat="39.8835260" lon="-4.1203990">
        <ele>461.2</ele>
        <time>2019-08-13T07:35:10Z</time>
      </trkpt>
      <trkpt lat="39.8835700" lon="-4.1204600">
        <ele>461.2</ele>
        <time>2019-08-13T07:35:11Z</time>
      </trkpt>
      <trkpt lat="39.8836150" lon="-4.1205190">
        <ele>461.1</ele>
        <time>2019-08-13T07:35:12Z</time>
      </trkpt>
      <trkpt lat="39.8836590" lon="-4.1205780">
        <ele>461.0</ele>
        <time>2019-08-13T07:35:13Z</time>
      </trkpt>
      <trkpt lat="39.8837030" lon="-4.1206360">
        <ele>460.9</ele>
        <time>2019-08-13T07:35:14Z</time>
      </trkpt>
      <trkpt lat="39.8837440" lon="-4.1206930">
        <ele>460.8</ele>
        <time>2019-08-13T07:35:15Z</time>
      </trkpt>
      <trkpt lat="39.8837840" lon="-4.1207500">
        <ele>460.7</ele>
        <time>2019-08-13T07:35:16Z</time>
      </trkpt>
      <trkpt lat="39.8838230" lon="-4.1208040">
        <ele>460.6</ele>
        <time>2019-08-13T07:35:17Z</time>
      </trkpt>
      <trkpt lat="39.8838580" lon="-4.1208520">
        <ele>460.6</ele>
        <time>2019-08-13T07:35:18Z</time>
      </trkpt>
      <trkpt lat="39.8838870" lon="-4.1208990">
        <ele>460.5</ele>
        <time>2019-08-13T07:35:19Z</time>
      </trkpt>
      <trkpt lat="39.8839160" lon="-4.1209480">
        <ele>460.5</ele>
        <time>2019-08-13T07:35:20Z</time>
      </trkpt>
      <trkpt lat="39.8839490" lon="-4.1209980">
        <ele>460.4</ele>
        <time>2019-08-13T07:35:21Z</time>
      </trkpt>
      <trkpt lat="39.8839830" lon="-4.1210470">
        <ele>460.4</ele>
        <time>2019-08-13T07:35:22Z</time>
      </trkpt>
      <trkpt lat="39.8840180" lon="-4.1210970">
        <ele>460.4</ele>
        <time>2019-08-13T07:35:23Z</time>
      </trkpt>
      <trkpt lat="39.8840540" lon="-4.1211500">
        <ele>460.4</ele>
        <time>2019-08-13T07:35:24Z</time>
      </trkpt>
      <trkpt lat="39.8840920" lon="-4.1212030">
        <ele>460.3</ele>
        <time>2019-08-13T07:35:25Z</time>
      </trkpt>
      <trkpt lat="39.8841300" lon="-4.1212560">
        <ele>460.3</ele>
        <time>2019-08-13T07:35:26Z</time>
      </trkpt>
      <trkpt lat="39.8841670" lon="-4.1213090">
        <ele>460.2</ele>
        <time>2019-08-13T07:35:27Z</time>
      </trkpt>
      <trkpt lat="39.8842040" lon="-4.1213630">
        <ele>460.2</ele>
        <time>2019-08-13T07:35:28Z</time>
      </trkpt>
      <trkpt lat="39.8842420" lon="-4.1214150">
        <ele>460.2</ele>
        <time>2019-08-13T07:35:29Z</time>
      </trkpt>
      <trkpt lat="39.8842790" lon="-4.1214670">
        <ele>460.1</ele>
        <time>2019-08-13T07:35:30Z</time>
      </trkpt>
      <trkpt lat="39.8843180" lon="-4.1215220">
        <ele>460.1</ele>
        <time>2019-08-13T07:35:31Z</time>
      </trkpt>
      <trkpt lat="39.8843560" lon="-4.1215760">
        <ele>460.1</ele>
        <time>2019-08-13T07:35:32Z</time>
      </trkpt>
      <trkpt lat="39.8843940" lon="-4.1216290">
        <ele>460.0</ele>
        <time>2019-08-13T07:35:33Z</time>
      </trkpt>
      <trkpt lat="39.8844330" lon="-4.1216810">
        <ele>460.0</ele>
        <time>2019-08-13T07:35:34Z</time>
      </trkpt>
      <trkpt lat="39.8844700" lon="-4.1217340">
        <ele>460.0</ele>
        <time>2019-08-13T07:35:35Z</time>
      </trkpt>
      <trkpt lat="39.8845060" lon="-4.1217870">
        <ele>460.0</ele>
        <time>2019-08-13T07:35:36Z</time>
      </trkpt>
      <trkpt lat="39.8845420" lon="-4.1218390">
        <ele>459.9</ele>
        <time>2019-08-13T07:35:37Z</time>
      </trkpt>
      <trkpt lat="39.8845780" lon="-4.1218890">
        <ele>459.9</ele>
        <time>2019-08-13T07:35:38Z</time>
      </trkpt>
      <trkpt lat="39.8846150" lon="-4.1219370">
        <ele>459.9</ele>
        <time>2019-08-13T07:35:39Z</time>
      </trkpt>
      <trkpt lat="39.8846520" lon="-4.1219860">
        <ele>459.9</ele>
        <time>2019-08-13T07:35:40Z</time>
      </trkpt>
      <trkpt lat="39.8846890" lon="-4.1220370">
        <ele>459.9</ele>
        <time>2019-08-13T07:35:41Z</time>
      </trkpt>
      <trkpt lat="39.8847250" lon="-4.1220870">
        <ele>459.9</ele>
        <time>2019-08-13T07:35:42Z</time>
      </trkpt>
      <trkpt lat="39.8847610" lon="-4.1221380">
        <ele>459.9</ele>
        <time>2019-08-13T07:35:43Z</time>
      </trkpt>
      <trkpt lat="39.8847970" lon="-4.1221880">
        <ele>459.9</ele>
        <time>2019-08-13T07:35:44Z</time>
      </trkpt>
      <trkpt lat="39.8848340" lon="-4.1222380">
        <ele>459.9</ele>
        <time>2019-08-13T07:35:45Z</time>
      </trkpt>
      <trkpt lat="39.8848690" lon="-4.1222880">
        <ele>459.9</ele>
        <time>2019-08-13T07:35:46Z</time>
      </trkpt>
      <trkpt lat="39.8849030" lon="-4.1223380">
        <ele>459.9</ele>
        <time>2019-08-13T07:35:47Z</time>
      </trkpt>
      <trkpt lat="39.8849390" lon="-4.1223870">
        <ele>459.9</ele>
        <time>2019-08-13T07:35:48Z</time>
      </trkpt>
      <trkpt lat="39.8849750" lon="-4.1224380">
        <ele>459.9</ele>
        <time>2019-08-13T07:35:49Z</time>
      </trkpt>
      <trkpt lat="39.8850100" lon="-4.1224880">
        <ele>460.0</ele>
        <time>2019-08-13T07:35:50Z</time>
      </trkpt>
      <trkpt lat="39.8850450" lon="-4.1225360">
        <ele>460.0</ele>
        <time>2019-08-13T07:35:51Z</time>
      </trkpt>
      <trkpt lat="39.8850800" lon="-4.1225850">
        <ele>460.0</ele>
        <time>2019-08-13T07:35:52Z</time>
      </trkpt>
      <trkpt lat="39.8851170" lon="-4.1226350">
        <ele>460.1</ele>
        <time>2019-08-13T07:35:53Z</time>
      </trkpt>
      <trkpt lat="39.8851540" lon="-4.1226860">
        <ele>460.1</ele>
        <time>2019-08-13T07:35:54Z</time>
      </trkpt>
      <trkpt lat="39.8851920" lon="-4.1227370">
        <ele>460.1</ele>
        <time>2019-08-13T07:35:55Z</time>
      </trkpt>
      <trkpt lat="39.8852290" lon="-4.1227890">
        <ele>460.1</ele>
        <time>2019-08-13T07:35:56Z</time>
      </trkpt>
      <trkpt lat="39.8852660" lon="-4.1228420">
        <ele>460.1</ele>
        <time>2019-08-13T07:35:57Z</time>
      </trkpt>
      <trkpt lat="39.8853040" lon="-4.1228950">
        <ele>460.0</ele>
        <time>2019-08-13T07:35:58Z</time>
      </trkpt>
      <trkpt lat="39.8853430" lon="-4.1229490">
        <ele>460.0</ele>
        <time>2019-08-13T07:35:59Z</time>
      </trkpt>
      <trkpt lat="39.8853810" lon="-4.1230010">
        <ele>460.0</ele>
        <time>2019-08-13T07:36:00Z</time>
      </trkpt>
      <trkpt lat="39.8854180" lon="-4.1230530">
        <ele>460.0</ele>
        <time>2019-08-13T07:36:01Z</time>
      </trkpt>
      <trkpt lat="39.8854550" lon="-4.1231040">
        <ele>459.9</ele>
        <time>2019-08-13T07:36:02Z</time>
      </trkpt>
      <trkpt lat="39.8854920" lon="-4.1231550">
        <ele>459.9</ele>
        <time>2019-08-13T07:36:03Z</time>
      </trkpt>
      <trkpt lat="39.8855290" lon="-4.1232060">
        <ele>459.9</ele>
        <time>2019-08-13T07:36:04Z</time>
      </trkpt>
      <trkpt lat="39.8855650" lon="-4.1232580">
        <ele>459.9</ele>
        <time>2019-08-13T07:36:05Z</time>
      </trkpt>
      <trkpt lat="39.8856010" lon="-4.1233110">
        <ele>459.9</ele>
        <time>2019-08-13T07:36:06Z</time>
      </trkpt>
      <trkpt lat="39.8856370" lon="-4.1233630">
        <ele>459.9</ele>
        <time>2019-08-13T07:36:07Z</time>
      </trkpt>
      <trkpt lat="39.8856740" lon="-4.1234170">
        <ele>459.9</ele>
        <time>2019-08-13T07:36:08Z</time>
      </trkpt>
      <trkpt lat="39.8857100" lon="-4.1234680">
        <ele>459.9</ele>
        <time>2019-08-13T07:36:09Z</time>
      </trkpt>
      <trkpt lat="39.8857450" lon="-4.1235190">
        <ele>459.9</ele>
        <time>2019-08-13T07:36:10Z</time>
      </trkpt>
      <trkpt lat="39.8857810" lon="-4.1235720">
        <ele>460.0</ele>
        <time>2019-08-13T07:36:11Z</time>
      </trkpt>
      <trkpt lat="39.8858160" lon="-4.1236240">
        <ele>460.0</ele>
        <time>2019-08-13T07:36:12Z</time>
      </trkpt>
      <trkpt lat="39.8858520" lon="-4.1236740">
        <ele>460.0</ele>
        <time>2019-08-13T07:36:13Z</time>
      </trkpt>
      <trkpt lat="39.8858880" lon="-4.1237250">
        <ele>460.1</ele>
        <time>2019-08-13T07:36:14Z</time>
      </trkpt>
      <trkpt lat="39.8859230" lon="-4.1237780">
        <ele>460.1</ele>
        <time>2019-08-13T07:36:15Z</time>
      </trkpt>
      <trkpt lat="39.8859590" lon="-4.1238290">
        <ele>460.2</ele>
        <time>2019-08-13T07:36:16Z</time>
      </trkpt>
      <trkpt lat="39.8859960" lon="-4.1238790">
        <ele>460.2</ele>
        <time>2019-08-13T07:36:17Z</time>
      </trkpt>
      <trkpt lat="39.8860310" lon="-4.1239290">
        <ele>460.3</ele>
        <time>2019-08-13T07:36:18Z</time>
      </trkpt>
      <trkpt lat="39.8860670" lon="-4.1239800">
        <ele>460.3</ele>
        <time>2019-08-13T07:36:19Z</time>
      </trkpt>
      <trkpt lat="39.8861030" lon="-4.1240310">
        <ele>460.4</ele>
        <time>2019-08-13T07:36:20Z</time>
      </trkpt>
      <trkpt lat="39.8861380" lon="-4.1240820">
        <ele>460.4</ele>
        <time>2019-08-13T07:36:21Z</time>
      </trkpt>
      <trkpt lat="39.8861730" lon="-4.1241320">
        <ele>460.5</ele>
        <time>2019-08-13T07:36:22Z</time>
      </trkpt>
      <trkpt lat="39.8862090" lon="-4.1241810">
        <ele>460.5</ele>
        <time>2019-08-13T07:36:23Z</time>
      </trkpt>
      <trkpt lat="39.8862440" lon="-4.1242310">
        <ele>460.5</ele>
        <time>2019-08-13T07:36:24Z</time>
      </trkpt>
      <trkpt lat="39.8862790" lon="-4.1242810">
        <ele>460.6</ele>
        <time>2019-08-13T07:36:25Z</time>
      </trkpt>
      <trkpt lat="39.8863130" lon="-4.1243310">
        <ele>460.6</ele>
        <time>2019-08-13T07:36:26Z</time>
      </trkpt>
      <trkpt lat="39.8863470" lon="-4.1243800">
        <ele>460.7</ele>
        <time>2019-08-13T07:36:27Z</time>
      </trkpt>
      <trkpt lat="39.8863820" lon="-4.1244300">
        <ele>460.7</ele>
        <time>2019-08-13T07:36:28Z</time>
      </trkpt>
      <trkpt lat="39.8864160" lon="-4.1244770">
        <ele>460.8</ele>
        <time>2019-08-13T07:36:29Z</time>
      </trkpt>
      <trkpt lat="39.8864500" lon="-4.1245240">
        <ele>460.8</ele>
        <time>2019-08-13T07:36:30Z</time>
      </trkpt>
      <trkpt lat="39.8864840" lon="-4.1245700">
        <ele>460.8</ele>
        <time>2019-08-13T07:36:31Z</time>
      </trkpt>
      <trkpt lat="39.8865180" lon="-4.1246170">
        <ele>460.9</ele>
        <time>2019-08-13T07:36:32Z</time>
      </trkpt>
      <trkpt lat="39.8865530" lon="-4.1246650">
        <ele>461.0</ele>
        <time>2019-08-13T07:36:33Z</time>
      </trkpt>
      <trkpt lat="39.8865860" lon="-4.1247130">
        <ele>461.0</ele>
        <time>2019-08-13T07:36:34Z</time>
      </trkpt>
      <trkpt lat="39.8866180" lon="-4.1247600">
        <ele>461.1</ele>
        <time>2019-08-13T07:36:35Z</time>
      </trkpt>
      <trkpt lat="39.8866510" lon="-4.1248070">
        <ele>461.1</ele>
        <time>2019-08-13T07:36:36Z</time>
      </trkpt>
      <trkpt lat="39.8866840" lon="-4.1248540">
        <ele>461.2</ele>
        <time>2019-08-13T07:36:37Z</time>
      </trkpt>
      <trkpt lat="39.8867160" lon="-4.1249010">
        <ele>461.3</ele>
        <time>2019-08-13T07:36:38Z</time>
      </trkpt>
      <trkpt lat="39.8867470" lon="-4.1249480">
        <ele>461.4</ele>
        <time>2019-08-13T07:36:39Z</time>
      </trkpt>
      <trkpt lat="39.8867810" lon="-4.1249950">
        <ele>461.4</ele>
        <time>2019-08-13T07:36:40Z</time>
      </trkpt>
      <trkpt lat="39.8868140" lon="-4.1250410">
        <ele>461.5</ele>
        <time>2019-08-13T07:36:41Z</time>
      </trkpt>
      <trkpt lat="39.8868470" lon="-4.1250870">
        <ele>461.6</ele>
        <time>2019-08-13T07:36:42Z</time>
      </trkpt>
      <trkpt lat="39.8868810" lon="-4.1251350">
        <ele>461.6</ele>
        <time>2019-08-13T07:36:43Z</time>
      </trkpt>
      <trkpt lat="39.8869160" lon="-4.1251830">
        <ele>461.7</ele>
        <time>2019-08-13T07:36:44Z</time>
      </trkpt>
      <trkpt lat="39.8869500" lon="-4.1252310">
        <ele>461.8</ele>
        <time>2019-08-13T07:36:45Z</time>
      </trkpt>
      <trkpt lat="39.8869860" lon="-4.1252800">
        <ele>461.8</ele>
        <time>2019-08-13T07:36:46Z</time>
      </trkpt>
      <trkpt lat="39.8870200" lon="-4.1253280">
        <ele>461.9</ele>
        <time>2019-08-13T07:36:47Z</time>
      </trkpt>
      <trkpt lat="39.8870550" lon="-4.1253770">
        <ele>461.9</ele>
        <time>2019-08-13T07:36:48Z</time>
      </trkpt>
      <trkpt lat="39.8870900" lon="-4.1254270">
        <ele>462.0</ele>
        <time>2019-08-13T07:36:49Z</time>
      </trkpt>
      <trkpt lat="39.8871260" lon="-4.1254760">
        <ele>462.1</ele>
        <time>2019-08-13T07:36:50Z</time>
      </trkpt>
      <trkpt lat="39.8871610" lon="-4.1255250">
        <ele>462.1</ele>
        <time>2019-08-13T07:36:51Z</time>
      </trkpt>
      <trkpt lat="39.8871960" lon="-4.1255740">
        <ele>462.2</ele>
        <time>2019-08-13T07:36:52Z</time>
      </trkpt>
      <trkpt lat="39.8872310" lon="-4.1256240">
        <ele>462.3</ele>
        <time>2019-08-13T07:36:53Z</time>
      </trkpt>
      <trkpt lat="39.8872660" lon="-4.1256720">
        <ele>462.3</ele>
        <time>2019-08-13T07:36:54Z</time>
      </trkpt>
      <trkpt lat="39.8873000" lon="-4.1257200">
        <ele>462.4</ele>
        <time>2019-08-13T07:36:55Z</time>
      </trkpt>
      <trkpt lat="39.8873340" lon="-4.1257690">
        <ele>462.4</ele>
        <time>2019-08-13T07:36:56Z</time>
      </trkpt>
      <trkpt lat="39.8873680" lon="-4.1258190">
        <ele>462.5</ele>
        <time>2019-08-13T07:36:57Z</time>
      </trkpt>
      <trkpt lat="39.8874020" lon="-4.1258680">
        <ele>462.5</ele>
        <time>2019-08-13T07:36:58Z</time>
      </trkpt>
      <trkpt lat="39.8874360" lon="-4.1259170">
        <ele>462.5</ele>
        <time>2019-08-13T07:36:59Z</time>
      </trkpt>
      <trkpt lat="39.8874700" lon="-4.1259650">
        <ele>462.6</ele>
        <time>2019-08-13T07:37:00Z</time>
      </trkpt>
      <trkpt lat="39.8875030" lon="-4.1260140">
        <ele>462.6</ele>
        <time>2019-08-13T07:37:01Z</time>
      </trkpt>
      <trkpt lat="39.8875380" lon="-4.1260640">
        <ele>462.6</ele>
        <time>2019-08-13T07:37:02Z</time>
      </trkpt>
      <trkpt lat="39.8875730" lon="-4.1261130">
        <ele>462.6</ele>
        <time>2019-08-13T07:37:03Z</time>
      </trkpt>
      <trkpt lat="39.8876080" lon="-4.1261630">
        <ele>462.7</ele>
        <time>2019-08-13T07:37:04Z</time>
      </trkpt>
      <trkpt lat="39.8876430" lon="-4.1262120">
        <ele>462.7</ele>
        <time>2019-08-13T07:37:05Z</time>
      </trkpt>
      <trkpt lat="39.8876770" lon="-4.1262620">
        <ele>462.7</ele>
        <time>2019-08-13T07:37:06Z</time>
      </trkpt>
      <trkpt lat="39.8877090" lon="-4.1263100">
        <ele>462.7</ele>
        <time>2019-08-13T07:37:07Z</time>
      </trkpt>
      <trkpt lat="39.8877400" lon="-4.1263580">
        <ele>462.7</ele>
        <time>2019-08-13T07:37:08Z</time>
      </trkpt>
      <trkpt lat="39.8877690" lon="-4.1264060">
        <ele>462.7</ele>
        <time>2019-08-13T07:37:09Z</time>
      </trkpt>
      <trkpt lat="39.8877970" lon="-4.1264580">
        <ele>462.7</ele>
        <time>2019-08-13T07:37:10Z</time>
      </trkpt>
      <trkpt lat="39.8878240" lon="-4.1265130">
        <ele>462.7</ele>
        <time>2019-08-13T07:37:11Z</time>
      </trkpt>
      <trkpt lat="39.8878470" lon="-4.1265710">
        <ele>462.7</ele>
        <time>2019-08-13T07:37:12Z</time>
      </trkpt>
      <trkpt lat="39.8878670" lon="-4.1266330">
        <ele>462.7</ele>
        <time>2019-08-13T07:37:13Z</time>
      </trkpt>
      <trkpt lat="39.8878850" lon="-4.1266980">
        <ele>462.5</ele>
        <time>2019-08-13T07:37:14Z</time>
      </trkpt>
      <trkpt lat="39.8879000" lon="-4.1267650">
        <ele>462.3</ele>
        <time>2019-08-13T07:37:15Z</time>
      </trkpt>
      <trkpt lat="39.8879110" lon="-4.1268340">
        <ele>462.0</ele>
        <time>2019-08-13T07:37:16Z</time>
      </trkpt>
      <trkpt lat="39.8879170" lon="-4.1269040">
        <ele>461.8</ele>
        <time>2019-08-13T07:37:17Z</time>
      </trkpt>
      <trkpt lat="39.8879200" lon="-4.1269730">
        <ele>461.6</ele>
        <time>2019-08-13T07:37:18Z</time>
      </trkpt>
      <trkpt lat="39.8879180" lon="-4.1270400">
        <ele>461.4</ele>
        <time>2019-08-13T07:37:19Z</time>
      </trkpt>
      <trkpt lat="39.8879130" lon="-4.1271060">
        <ele>461.2</ele>
        <time>2019-08-13T07:37:20Z</time>
      </trkpt>
      <trkpt lat="39.8879070" lon="-4.1271730">
        <ele>461.0</ele>
        <time>2019-08-13T07:37:21Z</time>
      </trkpt>
      <trkpt lat="39.8879000" lon="-4.1272390">
        <ele>460.8</ele>
        <time>2019-08-13T07:37:22Z</time>
      </trkpt>
      <trkpt lat="39.8878930" lon="-4.1273060">
        <ele>460.7</ele>
        <time>2019-08-13T07:37:23Z</time>
      </trkpt>
      <trkpt lat="39.8878840" lon="-4.1273760">
        <ele>460.5</ele>
        <time>2019-08-13T07:37:24Z</time>
      </trkpt>
      <trkpt lat="39.8878750" lon="-4.1274480">
        <ele>460.4</ele>
        <time>2019-08-13T07:37:25Z</time>
      </trkpt>
      <trkpt lat="39.8878630" lon="-4.1275220">
        <ele>460.3</ele>
        <time>2019-08-13T07:37:26Z</time>
      </trkpt>
      <trkpt lat="39.8878520" lon="-4.1275990">
        <ele>460.2</ele>
        <time>2019-08-13T07:37:27Z</time>
      </trkpt>
      <trkpt lat="39.8878400" lon="-4.1276770">
        <ele>460.1</ele>
        <time>2019-08-13T07:37:28Z</time>
      </trkpt>
      <trkpt lat="39.8878280" lon="-4.1277590">
        <ele>459.9</ele>
        <time>2019-08-13T07:37:29Z</time>
      </trkpt>
      <trkpt lat="39.8878140" lon="-4.1278420">
        <ele>459.8</ele>
        <time>2019-08-13T07:37:30Z</time>
      </trkpt>
      <trkpt lat="39.8878010" lon="-4.1279250">
        <ele>459.7</ele>
        <time>2019-08-13T07:37:31Z</time>
      </trkpt>
      <trkpt lat="39.8877860" lon="-4.1280080">
        <ele>459.5</ele>
        <time>2019-08-13T07:37:32Z</time>
      </trkpt>
      <trkpt lat="39.8877710" lon="-4.1280920">
        <ele>459.4</ele>
        <time>2019-08-13T07:37:33Z</time>
      </trkpt>
      <trkpt lat="39.8877540" lon="-4.1281740">
        <ele>459.2</ele>
        <time>2019-08-13T07:37:34Z</time>
      </trkpt>
      <trkpt lat="39.8877340" lon="-4.1282540">
        <ele>459.1</ele>
        <time>2019-08-13T07:37:35Z</time>
      </trkpt>
      <trkpt lat="39.8877130" lon="-4.1283330">
        <ele>458.9</ele>
        <time>2019-08-13T07:37:36Z</time>
      </trkpt>
      <trkpt lat="39.8876910" lon="-4.1284100">
        <ele>458.7</ele>
        <time>2019-08-13T07:37:37Z</time>
      </trkpt>
      <trkpt lat="39.8876690" lon="-4.1284870">
        <ele>458.4</ele>
        <time>2019-08-13T07:37:38Z</time>
      </trkpt>
      <trkpt lat="39.8876450" lon="-4.1285620">
        <ele>458.2</ele>
        <time>2019-08-13T07:37:39Z</time>
      </trkpt>
      <trkpt lat="39.8876210" lon="-4.1286360">
        <ele>457.9</ele>
        <time>2019-08-13T07:37:40Z</time>
      </trkpt>
      <trkpt lat="39.8875970" lon="-4.1287100">
        <ele>457.6</ele>
        <time>2019-08-13T07:37:41Z</time>
      </trkpt>
      <trkpt lat="39.8875710" lon="-4.1287830">
        <ele>457.3</ele>
        <time>2019-08-13T07:37:42Z</time>
      </trkpt>
      <trkpt lat="39.8875450" lon="-4.1288550">
        <ele>457.1</ele>
        <time>2019-08-13T07:37:43Z</time>
      </trkpt>
      <trkpt lat="39.8875190" lon="-4.1289290">
        <ele>456.8</ele>
        <time>2019-08-13T07:37:44Z</time>
      </trkpt>
      <trkpt lat="39.8874920" lon="-4.1290040">
        <ele>456.5</ele>
        <time>2019-08-13T07:37:45Z</time>
      </trkpt>
      <trkpt lat="39.8874650" lon="-4.1290790">
        <ele>456.2</ele>
        <time>2019-08-13T07:37:46Z</time>
      </trkpt>
      <trkpt lat="39.8874390" lon="-4.1291550">
        <ele>456.0</ele>
        <time>2019-08-13T07:37:47Z</time>
      </trkpt>
      <trkpt lat="39.8874120" lon="-4.1292320">
        <ele>455.7</ele>
        <time>2019-08-13T07:37:48Z</time>
      </trkpt>
      <trkpt lat="39.8873860" lon="-4.1293090">
        <ele>455.5</ele>
        <time>2019-08-13T07:37:49Z</time>
      </trkpt>
      <trkpt lat="39.8873590" lon="-4.1293890">
        <ele>455.3</ele>
        <time>2019-08-13T07:37:50Z</time>
      </trkpt>
      <trkpt lat="39.8873310" lon="-4.1294730">
        <ele>455.0</ele>
        <time>2019-08-13T07:37:51Z</time>
      </trkpt>
      <trkpt lat="39.8873020" lon="-4.1295580">
        <ele>454.8</ele>
        <time>2019-08-13T07:37:52Z</time>
      </trkpt>
      <trkpt lat="39.8872740" lon="-4.1296450">
        <ele>454.6</ele>
        <time>2019-08-13T07:37:53Z</time>
      </trkpt>
      <trkpt lat="39.8872460" lon="-4.1297340">
        <ele>454.4</ele>
        <time>2019-08-13T07:37:54Z</time>
      </trkpt>
      <trkpt lat="39.8872180" lon="-4.1298230">
        <ele>454.2</ele>
        <time>2019-08-13T07:37:55Z</time>
      </trkpt>
      <trkpt lat="39.8871910" lon="-4.1299120">
        <ele>454.0</ele>
        <time>2019-08-13T07:37:56Z</time>
      </trkpt>
      <trkpt lat="39.8871620" lon="-4.1300020">
        <ele>453.8</ele>
        <time>2019-08-13T07:37:57Z</time>
      </trkpt>
      <trkpt lat="39.8871320" lon="-4.1300910">
        <ele>453.6</ele>
        <time>2019-08-13T07:37:58Z</time>
      </trkpt>
      <trkpt lat="39.8870990" lon="-4.1301770">
        <ele>453.5</ele>
        <time>2019-08-13T07:37:59Z</time>
      </trkpt>
      <trkpt lat="39.8870620" lon="-4.1302610">
        <ele>453.3</ele>
        <time>2019-08-13T07:38:00Z</time>
      </trkpt>
      <trkpt lat="39.8870220" lon="-4.1303440">
        <ele>453.0</ele>
        <time>2019-08-13T07:38:01Z</time>
      </trkpt>
      <trkpt lat="39.8869810" lon="-4.1304250">
        <ele>452.7</ele>
        <time>2019-08-13T07:38:02Z</time>
      </trkpt>
      <trkpt lat="39.8869380" lon="-4.1305030">
        <ele>452.3</ele>
        <time>2019-08-13T07:38:03Z</time>
      </trkpt>
      <trkpt lat="39.8868940" lon="-4.1305770">
        <ele>451.8</ele>
        <time>2019-08-13T07:38:04Z</time>
      </trkpt>
      <trkpt lat="39.8868490" lon="-4.1306480">
        <ele>451.2</ele>
        <time>2019-08-13T07:38:05Z</time>
      </trkpt>
      <trkpt lat="39.8868020" lon="-4.1307160">
        <ele>450.7</ele>
        <time>2019-08-13T07:38:06Z</time>
      </trkpt>
      <trkpt lat="39.8867560" lon="-4.1307840">
        <ele>450.1</ele>
        <time>2019-08-13T07:38:07Z</time>
      </trkpt>
      <trkpt lat="39.8867080" lon="-4.1308490">
        <ele>449.4</ele>
        <time>2019-08-13T07:38:08Z</time>
      </trkpt>
      <trkpt lat="39.8866600" lon="-4.1309140">
        <ele>448.7</ele>
        <time>2019-08-13T07:38:09Z</time>
      </trkpt>
      <trkpt lat="39.8866130" lon="-4.1309780">
        <ele>448.0</ele>
        <time>2019-08-13T07:38:10Z</time>
      </trkpt>
      <trkpt lat="39.8865710" lon="-4.1310400">
        <ele>447.4</ele>
        <time>2019-08-13T07:38:11Z</time>
      </trkpt>
      <trkpt lat="39.8865340" lon="-4.1311030">
        <ele>446.8</ele>
        <time>2019-08-13T07:38:12Z</time>
      </trkpt>
      <trkpt lat="39.8865050" lon="-4.1311700">
        <ele>446.3</ele>
        <time>2019-08-13T07:38:13Z</time>
      </trkpt>
      <trkpt lat="39.8864880" lon="-4.1312450">
        <ele>445.8</ele>
        <time>2019-08-13T07:38:14Z</time>
      </trkpt>
      <trkpt lat="39.8864870" lon="-4.1313270">
        <ele>445.2</ele>
        <time>2019-08-13T07:38:15Z</time>
      </trkpt>
      <trkpt lat="39.8865020" lon="-4.1314110">
        <ele>444.7</ele>
        <time>2019-08-13T07:38:16Z</time>
      </trkpt>
      <trkpt lat="39.8865340" lon="-4.1314940">
        <ele>444.2</ele>
        <time>2019-08-13T07:38:17Z</time>
      </trkpt>
      <trkpt lat="39.8865800" lon="-4.1315740">
        <ele>443.7</ele>
        <time>2019-08-13T07:38:18Z</time>
      </trkpt>
      <trkpt lat="39.8866360" lon="-4.1316530">
        <ele>443.3</ele>
        <time>2019-08-13T07:38:19Z</time>
      </trkpt>
      <trkpt lat="39.8866970" lon="-4.1317310">
        <ele>442.9</ele>
        <time>2019-08-13T07:38:20Z</time>
      </trkpt>
      <trkpt lat="39.8867590" lon="-4.1318080">
        <ele>442.7</ele>
        <time>2019-08-13T07:38:21Z</time>
      </trkpt>
      <trkpt lat="39.8868210" lon="-4.1318890">
        <ele>442.5</ele>
        <time>2019-08-13T07:38:22Z</time>
      </trkpt>
      <trkpt lat="39.8868820" lon="-4.1319740">
        <ele>442.5</ele>
        <time>2019-08-13T07:38:23Z</time>
      </trkpt>
      <trkpt lat="39.8869400" lon="-4.1320630">
        <ele>442.5</ele>
        <time>2019-08-13T07:38:24Z</time>
      </trkpt>
      <trkpt lat="39.8869930" lon="-4.1321580">
        <ele>442.7</ele>
        <time>2019-08-13T07:38:25Z</time>
      </trkpt>
      <trkpt lat="39.8870400" lon="-4.1322600">
        <ele>442.9</ele>
        <time>2019-08-13T07:38:26Z</time>
      </trkpt>
      <trkpt lat="39.8870810" lon="-4.1323700">
        <ele>443.3</ele>
        <time>2019-08-13T07:38:27Z</time>
      </trkpt>
      <trkpt lat="39.8871150" lon="-4.1324850">
        <ele>443.7</ele>
        <time>2019-08-13T07:38:28Z</time>
      </trkpt>
      <trkpt lat="39.8871440" lon="-4.1326040">
        <ele>444.1</ele>
        <time>2019-08-13T07:38:29Z</time>
      </trkpt>
      <trkpt lat="39.8871680" lon="-4.1327230">
        <ele>444.6</ele>
        <time>2019-08-13T07:38:30Z</time>
      </trkpt>
      <trkpt lat="39.8871870" lon="-4.1328370">
        <ele>444.9</ele>
        <time>2019-08-13T07:38:31Z</time>
      </trkpt>
      <trkpt lat="39.8872030" lon="-4.1329470">
        <ele>445.2</ele>
        <time>2019-08-13T07:38:32Z</time>
      </trkpt>
      <trkpt lat="39.8872160" lon="-4.1330500">
        <ele>445.4</ele>
        <time>2019-08-13T07:38:33Z</time>
      </trkpt>
      <trkpt lat="39.8872290" lon="-4.1331450">
        <ele>445.6</ele>
        <time>2019-08-13T07:38:34Z</time>
      </trkpt>
      <trkpt lat="39.8872410" lon="-4.1332320">
        <ele>445.7</ele>
        <time>2019-08-13T07:38:35Z</time>
      </trkpt>
      <trkpt lat="39.8872520" lon="-4.1333150">
        <ele>445.8</ele>
        <time>2019-08-13T07:38:36Z</time>
      </trkpt>
      <trkpt lat="39.8872620" lon="-4.1333930">
        <ele>445.9</ele>
        <time>2019-08-13T07:38:37Z</time>
      </trkpt>
      <trkpt lat="39.8872720" lon="-4.1334670">
        <ele>446.0</ele>
        <time>2019-08-13T07:38:38Z</time>
      </trkpt>
      <trkpt lat="39.8872810" lon="-4.1335400">
        <ele>446.0</ele>
        <time>2019-08-13T07:38:39Z</time>
      </trkpt>
      <trkpt lat="39.8872890" lon="-4.1336080">
        <ele>446.1</ele>
        <time>2019-08-13T07:38:40Z</time>
      </trkpt>
      <trkpt lat="39.8872980" lon="-4.1336730">
        <ele>446.1</ele>
        <time>2019-08-13T07:38:41Z</time>
      </trkpt>
      <trkpt lat="39.8873060" lon="-4.1337350">
        <ele>446.2</ele>
        <time>2019-08-13T07:38:42Z</time>
      </trkpt>
      <trkpt lat="39.8873140" lon="-4.1337950">
        <ele>446.2</ele>
        <time>2019-08-13T07:38:43Z</time>
      </trkpt>
      <trkpt lat="39.8873220" lon="-4.1338510">
        <ele>446.2</ele>
        <time>2019-08-13T07:38:44Z</time>
      </trkpt>
      <trkpt lat="39.8873290" lon="-4.1339070">
        <ele>446.2</ele>
        <time>2019-08-13T07:38:45Z</time>
      </trkpt>
      <trkpt lat="39.8873370" lon="-4.1339630">
        <ele>446.2</ele>
        <time>2019-08-13T07:38:46Z</time>
      </trkpt>
      <trkpt lat="39.8873450" lon="-4.1340180">
        <ele>446.2</ele>
        <time>2019-08-13T07:38:47Z</time>
      </trkpt>
      <trkpt lat="39.8873520" lon="-4.1340740">
        <ele>446.2</ele>
        <time>2019-08-13T07:38:48Z</time>
      </trkpt>
      <trkpt lat="39.8873610" lon="-4.1341310">
        <ele>446.1</ele>
        <time>2019-08-13T07:38:49Z</time>
      </trkpt>
      <trkpt lat="39.8873710" lon="-4.1341890">
        <ele>446.1</ele>
        <time>2019-08-13T07:38:50Z</time>
      </trkpt>
      <trkpt lat="39.8873820" lon="-4.1342480">
        <ele>446.0</ele>
        <time>2019-08-13T07:38:51Z</time>
      </trkpt>
      <trkpt lat="39.8873910" lon="-4.1343080">
        <ele>445.9</ele>
        <time>2019-08-13T07:38:52Z</time>
      </trkpt>
      <trkpt lat="39.8874010" lon="-4.1343670">
        <ele>445.9</ele>
        <time>2019-08-13T07:38:53Z</time>
      </trkpt>
      <trkpt lat="39.8874120" lon="-4.1344260">
        <ele>445.8</ele>
        <time>2019-08-13T07:38:54Z</time>
      </trkpt>
      <trkpt lat="39.8874230" lon="-4.1344850">
        <ele>445.7</ele>
        <time>2019-08-13T07:38:55Z</time>
      </trkpt>
      <trkpt lat="39.8874350" lon="-4.1345440">
        <ele>445.6</ele>
        <time>2019-08-13T07:38:56Z</time>
      </trkpt>
      <trkpt lat="39.8874490" lon="-4.1346050">
        <ele>445.5</ele>
        <time>2019-08-13T07:38:57Z</time>
      </trkpt>
      <trkpt lat="39.8874630" lon="-4.1346650">
        <ele>445.4</ele>
        <time>2019-08-13T07:38:58Z</time>
      </trkpt>
      <trkpt lat="39.8874770" lon="-4.1347250">
        <ele>445.2</ele>
        <time>2019-08-13T07:38:59Z</time>
      </trkpt>
      <trkpt lat="39.8874900" lon="-4.1347870">
        <ele>445.1</ele>
        <time>2019-08-13T07:39:00Z</time>
      </trkpt>
      <trkpt lat="39.8875050" lon="-4.1348520">
        <ele>444.9</ele>
        <time>2019-08-13T07:39:01Z</time>
      </trkpt>
      <trkpt lat="39.8875200" lon="-4.1349180">
        <ele>444.7</ele>
        <time>2019-08-13T07:39:02Z</time>
      </trkpt>
      <trkpt lat="39.8875360" lon="-4.1349860">
        <ele>444.5</ele>
        <time>2019-08-13T07:39:03Z</time>
      </trkpt>
      <trkpt lat="39.8875520" lon="-4.1350540">
        <ele>444.2</ele>
        <time>2019-08-13T07:39:04Z</time>
      </trkpt>
      <trkpt lat="39.8875680" lon="-4.1351220">
        <ele>444.0</ele>
        <time>2019-08-13T07:39:05Z</time>
      </trkpt>
      <trkpt lat="39.8875840" lon="-4.1351910">
        <ele>443.7</ele>
        <time>2019-08-13T07:39:06Z</time>
      </trkpt>
      <trkpt lat="39.8876010" lon="-4.1352600">
        <ele>443.5</ele>
        <time>2019-08-13T07:39:07Z</time>
      </trkpt>
      <trkpt lat="39.8876190" lon="-4.1353310">
        <ele>443.2</ele>
        <time>2019-08-13T07:39:08Z</time>
      </trkpt>
      <trkpt lat="39.8876350" lon="-4.1354030">
        <ele>443.0</ele>
        <time>2019-08-13T07:39:09Z</time>
      </trkpt>
      <trkpt lat="39.8876510" lon="-4.1354760">
        <ele>442.9</ele>
        <time>2019-08-13T07:39:10Z</time>
      </trkpt>
      <trkpt lat="39.8876690" lon="-4.1355510">
        <ele>442.8</ele>
        <time>2019-08-13T07:39:11Z</time>
      </trkpt>
      <trkpt lat="39.8876870" lon="-4.1356280">
        <ele>442.7</ele>
        <time>2019-08-13T07:39:12Z</time>
      </trkpt>
      <trkpt lat="39.8877060" lon="-4.1357090">
        <ele>442.7</ele>
        <time>2019-08-13T07:39:13Z</time>
      </trkpt>
      <trkpt lat="39.8877270" lon="-4.1357900">
        <ele>442.7</ele>
        <time>2019-08-13T07:39:14Z</time>
      </trkpt>
      <trkpt lat="39.8877500" lon="-4.1358750">
        <ele>442.7</ele>
        <time>2019-08-13T07:39:15Z</time>
      </trkpt>
      <trkpt lat="39.8877750" lon="-4.1359620">
        <ele>442.7</ele>
        <time>2019-08-13T07:39:16Z</time>
      </trkpt>
      <trkpt lat="39.8878030" lon="-4.1360520">
        <ele>442.8</ele>
        <time>2019-08-13T07:39:17Z</time>
      </trkpt>
      <trkpt lat="39.8878360" lon="-4.1361410">
        <ele>442.9</ele>
        <time>2019-08-13T07:39:18Z</time>
      </trkpt>
      <trkpt lat="39.8878710" lon="-4.1362310">
        <ele>442.9</ele>
        <time>2019-08-13T07:39:19Z</time>
      </trkpt>
      <trkpt lat="39.8879040" lon="-4.1363210">
        <ele>442.8</ele>
        <time>2019-08-13T07:39:20Z</time>
      </trkpt>
      <trkpt lat="39.8879350" lon="-4.1364110">
        <ele>442.8</ele>
        <time>2019-08-13T07:39:21Z</time>
      </trkpt>
      <trkpt lat="39.8879620" lon="-4.1365000">
        <ele>442.8</ele>
        <time>2019-08-13T07:39:22Z</time>
      </trkpt>
      <trkpt lat="39.8879820" lon="-4.1365840">
        <ele>442.7</ele>
        <time>2019-08-13T07:39:23Z</time>
      </trkpt>
      <trkpt lat="39.8879990" lon="-4.1366620">
        <ele>442.7</ele>
        <time>2019-08-13T07:39:24Z</time>
      </trkpt>
      <trkpt lat="39.8880120" lon="-4.1367330">
        <ele>442.6</ele>
        <time>2019-08-13T07:39:25Z</time>
      </trkpt>
      <trkpt lat="39.8880240" lon="-4.1368010">
        <ele>442.5</ele>
        <time>2019-08-13T07:39:26Z</time>
      </trkpt>
      <trkpt lat="39.8880350" lon="-4.1368660">
        <ele>442.5</ele>
        <time>2019-08-13T07:39:27Z</time>
      </trkpt>
      <trkpt lat="39.8880440" lon="-4.1369300">
        <ele>442.4</ele>
        <time>2019-08-13T07:39:28Z</time>
      </trkpt>
      <trkpt lat="39.8880510" lon="-4.1369940">
        <ele>442.3</ele>
        <time>2019-08-13T07:39:29Z</time>
      </trkpt>
      <trkpt lat="39.8880580" lon="-4.1370580">
        <ele>442.2</ele>
        <time>2019-08-13T07:39:30Z</time>
      </trkpt>
      <trkpt lat="39.8880630" lon="-4.1371230">
        <ele>442.1</ele>
        <time>2019-08-13T07:39:31Z</time>
      </trkpt>
      <trkpt lat="39.8880700" lon="-4.1371860">
        <ele>442.0</ele>
        <time>2019-08-13T07:39:32Z</time>
      </trkpt>
      <trkpt lat="39.8880770" lon="-4.1372500">
        <ele>441.9</ele>
        <time>2019-08-13T07:39:33Z</time>
      </trkpt>
      <trkpt lat="39.8880840" lon="-4.1373130">
        <ele>441.7</ele>
        <time>2019-08-13T07:39:34Z</time>
      </trkpt>
      <trkpt lat="39.8880910" lon="-4.1373760">
        <ele>441.6</ele>
        <time>2019-08-13T07:39:35Z</time>
      </trkpt>
      <trkpt lat="39.8880980" lon="-4.1374390">
        <ele>441.5</ele>
        <time>2019-08-13T07:39:36Z</time>
      </trkpt>
      <trkpt lat="39.8881070" lon="-4.1375040">
        <ele>441.4</ele>
        <time>2019-08-13T07:39:37Z</time>
      </trkpt>
      <trkpt lat="39.8881170" lon="-4.1375700">
        <ele>441.3</ele>
        <time>2019-08-13T07:39:38Z</time>
      </trkpt>
      <trkpt lat="39.8881270" lon="-4.1376380">
        <ele>441.2</ele>
        <time>2019-08-13T07:39:39Z</time>
      </trkpt>
      <trkpt lat="39.8881390" lon="-4.1377060">
        <ele>441.0</ele>
        <time>2019-08-13T07:39:40Z</time>
      </trkpt>
      <trkpt lat="39.8881520" lon="-4.1377760">
        <ele>440.9</ele>
        <time>2019-08-13T07:39:41Z</time>
      </trkpt>
      <trkpt lat="39.8881660" lon="-4.1378450">
        <ele>440.8</ele>
        <time>2019-08-13T07:39:42Z</time>
      </trkpt>
      <trkpt lat="39.8881820" lon="-4.1379150">
        <ele>440.6</ele>
        <time>2019-08-13T07:39:43Z</time>
      </trkpt>
      <trkpt lat="39.8881980" lon="-4.1379850">
        <ele>440.3</ele>
        <time>2019-08-13T07:39:44Z</time>
      </trkpt>
      <trkpt lat="39.8882160" lon="-4.1380550">
        <ele>440.1</ele>
        <time>2019-08-13T07:39:45Z</time>
      </trkpt>
      <trkpt lat="39.8882360" lon="-4.1381240">
        <ele>440.0</ele>
        <time>2019-08-13T07:39:46Z</time>
      </trkpt>
      <trkpt lat="39.8882570" lon="-4.1381940">
        <ele>439.9</ele>
        <time>2019-08-13T07:39:47Z</time>
      </trkpt>
      <trkpt lat="39.8882790" lon="-4.1382630">
        <ele>439.8</ele>
        <time>2019-08-13T07:39:48Z</time>
      </trkpt>
      <trkpt lat="39.8883030" lon="-4.1383320">
        <ele>439.6</ele>
        <time>2019-08-13T07:39:49Z</time>
      </trkpt>
      <trkpt lat="39.8883290" lon="-4.1384000">
        <ele>439.5</ele>
        <time>2019-08-13T07:39:50Z</time>
      </trkpt>
      <trkpt lat="39.8883570" lon="-4.1384660">
        <ele>439.3</ele>
        <time>2019-08-13T07:39:51Z</time>
      </trkpt>
      <trkpt lat="39.8883870" lon="-4.1385320">
        <ele>439.2</ele>
        <time>2019-08-13T07:39:52Z</time>
      </trkpt>
      <trkpt lat="39.8884180" lon="-4.1385970">
        <ele>439.0</ele>
        <time>2019-08-13T07:39:53Z</time>
      </trkpt>
      <trkpt lat="39.8884490" lon="-4.1386620">
        <ele>438.9</ele>
        <time>2019-08-13T07:39:54Z</time>
      </trkpt>
      <trkpt lat="39.8884820" lon="-4.1387250">
        <ele>438.7</ele>
        <time>2019-08-13T07:39:55Z</time>
      </trkpt>
      <trkpt lat="39.8885150" lon="-4.1387860">
        <ele>438.6</ele>
        <time>2019-08-13T07:39:56Z</time>
      </trkpt>
      <trkpt lat="39.8885460" lon="-4.1388480">
        <ele>438.4</ele>
        <time>2019-08-13T07:39:57Z</time>
      </trkpt>
      <trkpt lat="39.8885780" lon="-4.1389110">
        <ele>438.3</ele>
        <time>2019-08-13T07:39:58Z</time>
      </trkpt>
      <trkpt lat="39.8886100" lon="-4.1389750">
        <ele>438.2</ele>
        <time>2019-08-13T07:39:59Z</time>
      </trkpt>
      <trkpt lat="39.8886400" lon="-4.1390410">
        <ele>438.1</ele>
        <time>2019-08-13T07:40:00Z</time>
      </trkpt>
      <trkpt lat="39.8886710" lon="-4.1391110">
        <ele>438.0</ele>
        <time>2019-08-13T07:40:01Z</time>
      </trkpt>
      <trkpt lat="39.8887010" lon="-4.1391830">
        <ele>438.0</ele>
        <time>2019-08-13T07:40:02Z</time>
      </trkpt>
      <trkpt lat="39.8887310" lon="-4.1392570">
        <ele>437.9</ele>
        <time>2019-08-13T07:40:03Z</time>
      </trkpt>
      <trkpt lat="39.8887610" lon="-4.1393340">
        <ele>437.8</ele>
        <time>2019-08-13T07:40:04Z</time>
      </trkpt>
      <trkpt lat="39.8887900" lon="-4.1394170">
        <ele>437.9</ele>
        <time>2019-08-13T07:40:05Z</time>
      </trkpt>
      <trkpt lat="39.8888200" lon="-4.1395010">
        <ele>437.9</ele>
        <time>2019-08-13T07:40:06Z</time>
      </trkpt>
      <trkpt lat="39.8888480" lon="-4.1395900">
        <ele>438.0</ele>
        <time>2019-08-13T07:40:07Z</time>
      </trkpt>
      <trkpt lat="39.8888740" lon="-4.1396810">
        <ele>438.1</ele>
        <time>2019-08-13T07:40:08Z</time>
      </trkpt>
      <trkpt lat="39.8889010" lon="-4.1397730">
        <ele>438.2</ele>
        <time>2019-08-13T07:40:09Z</time>
      </trkpt>
      <trkpt lat="39.8889250" lon="-4.1398670">
        <ele>438.3</ele>
        <time>2019-08-13T07:40:10Z</time>
      </trkpt>
      <trkpt lat="39.8889480" lon="-4.1399620">
        <ele>438.5</ele>
        <time>2019-08-13T07:40:11Z</time>
      </trkpt>
      <trkpt lat="39.8889690" lon="-4.1400540">
        <ele>438.6</ele>
        <time>2019-08-13T07:40:12Z</time>
      </trkpt>
      <trkpt lat="39.8889860" lon="-4.1401420">
        <ele>438.7</ele>
        <time>2019-08-13T07:40:13Z</time>
      </trkpt>
      <trkpt lat="39.8890000" lon="-4.1402300">
        <ele>438.9</ele>
        <time>2019-08-13T07:40:14Z</time>
      </trkpt>
      <trkpt lat="39.8890140" lon="-4.1403150">
        <ele>439.0</ele>
        <time>2019-08-13T07:40:15Z</time>
      </trkpt>
      <trkpt lat="39.8890260" lon="-4.1403980">
        <ele>439.2</ele>
        <time>2019-08-13T07:40:16Z</time>
      </trkpt>
      <trkpt lat="39.8890380" lon="-4.1404780">
        <ele>439.3</ele>
        <time>2019-08-13T07:40:17Z</time>
      </trkpt>
      <trkpt lat="39.8890490" lon="-4.1405570">
        <ele>439.5</ele>
        <time>2019-08-13T07:40:18Z</time>
      </trkpt>
      <trkpt lat="39.8890610" lon="-4.1406340">
        <ele>439.6</ele>
        <time>2019-08-13T07:40:19Z</time>
      </trkpt>
      <trkpt lat="39.8890740" lon="-4.1407090">
        <ele>439.7</ele>
        <time>2019-08-13T07:40:20Z</time>
      </trkpt>
      <trkpt lat="39.8890850" lon="-4.1407820">
        <ele>439.8</ele>
        <time>2019-08-13T07:40:21Z</time>
      </trkpt>
      <trkpt lat="39.8890940" lon="-4.1408550">
        <ele>439.9</ele>
        <time>2019-08-13T07:40:22Z</time>
      </trkpt>
      <trkpt lat="39.8891030" lon="-4.1409240">
        <ele>440.0</ele>
        <time>2019-08-13T07:40:23Z</time>
      </trkpt>
      <trkpt lat="39.8891090" lon="-4.1409910">
        <ele>440.1</ele>
        <time>2019-08-13T07:40:24Z</time>
      </trkpt>
      <trkpt lat="39.8891140" lon="-4.1410560">
        <ele>440.2</ele>
        <time>2019-08-13T07:40:25Z</time>
      </trkpt>
      <trkpt lat="39.8891200" lon="-4.1411180">
        <ele>440.3</ele>
        <time>2019-08-13T07:40:26Z</time>
      </trkpt>
      <trkpt lat="39.8891260" lon="-4.1411800">
        <ele>440.3</ele>
        <time>2019-08-13T07:40:27Z</time>
      </trkpt>
      <trkpt lat="39.8891330" lon="-4.1412390">
        <ele>440.4</ele>
        <time>2019-08-13T07:40:28Z</time>
      </trkpt>
      <trkpt lat="39.8891400" lon="-4.1412960">
        <ele>440.4</ele>
        <time>2019-08-13T07:40:29Z</time>
      </trkpt>
      <trkpt lat="39.8891480" lon="-4.1413510">
        <ele>440.5</ele>
        <time>2019-08-13T07:40:30Z</time>
      </trkpt>
      <trkpt lat="39.8891550" lon="-4.1414040">
        <ele>440.5</ele>
        <time>2019-08-13T07:40:31Z</time>
      </trkpt>
      <trkpt lat="39.8891640" lon="-4.1414580">
        <ele>440.6</ele>
        <time>2019-08-13T07:40:32Z</time>
      </trkpt>
      <trkpt lat="39.8891720" lon="-4.1415120">
        <ele>440.7</ele>
        <time>2019-08-13T07:40:33Z</time>
      </trkpt>
      <trkpt lat="39.8891800" lon="-4.1415680">
        <ele>440.7</ele>
        <time>2019-08-13T07:40:34Z</time>
      </trkpt>
      <trkpt lat="39.8891890" lon="-4.1416240">
        <ele>440.7</ele>
        <time>2019-08-13T07:40:35Z</time>
      </trkpt>
      <trkpt lat="39.8891980" lon="-4.1416830">
        <ele>440.8</ele>
        <time>2019-08-13T07:40:36Z</time>
      </trkpt>
      <trkpt lat="39.8892060" lon="-4.1417440">
        <ele>440.9</ele>
        <time>2019-08-13T07:40:37Z</time>
      </trkpt>
      <trkpt lat="39.8892150" lon="-4.1418060">
        <ele>441.2</ele>
        <time>2019-08-13T07:40:38Z</time>
      </trkpt>
      <trkpt lat="39.8892240" lon="-4.1418710">
        <ele>441.5</ele>
        <time>2019-08-13T07:40:39Z</time>
      </trkpt>
      <trkpt lat="39.8892310" lon="-4.1419370">
        <ele>441.8</ele>
        <time>2019-08-13T07:40:40Z</time>
      </trkpt>
      <trkpt lat="39.8892400" lon="-4.1420050">
        <ele>442.1</ele>
        <time>2019-08-13T07:40:41Z</time>
      </trkpt>
      <trkpt lat="39.8892500" lon="-4.1420740">
        <ele>442.4</ele>
        <time>2019-08-13T07:40:42Z</time>
      </trkpt>
      <trkpt lat="39.8892620" lon="-4.1421450">
        <ele>442.5</ele>
        <time>2019-08-13T07:40:43Z</time>
      </trkpt>
      <trkpt lat="39.8892740" lon="-4.1422160">
        <ele>442.6</ele>
        <time>2019-08-13T07:40:44Z</time>
      </trkpt>
      <trkpt lat="39.8892850" lon="-4.1422870">
        <ele>442.7</ele>
        <time>2019-08-13T07:40:45Z</time>
      </trkpt>
      <trkpt lat="39.8892970" lon="-4.1423560">
        <ele>442.7</ele>
        <time>2019-08-13T07:40:46Z</time>
      </trkpt>
      <trkpt lat="39.8893100" lon="-4.1424260">
        <ele>442.7</ele>
        <time>2019-08-13T07:40:47Z</time>
      </trkpt>
      <trkpt lat="39.8893250" lon="-4.1424970">
        <ele>442.7</ele>
        <time>2019-08-13T07:40:48Z</time>
      </trkpt>
      <trkpt lat="39.8893390" lon="-4.1425690">
        <ele>442.7</ele>
        <time>2019-08-13T07:40:49Z</time>
      </trkpt>
      <trkpt lat="39.8893500" lon="-4.1426410">
        <ele>442.7</ele>
        <time>2019-08-13T07:40:50Z</time>
      </trkpt>
      <trkpt lat="39.8893600" lon="-4.1427160">
        <ele>442.7</ele>
        <time>2019-08-13T07:40:51Z</time>
      </trkpt>
      <trkpt lat="39.8893690" lon="-4.1427910">
        <ele>442.6</ele>
        <time>2019-08-13T07:40:52Z</time>
      </trkpt>
      <trkpt lat="39.8893770" lon="-4.1428670">
        <ele>442.5</ele>
        <time>2019-08-13T07:40:53Z</time>
      </trkpt>
      <trkpt lat="39.8893840" lon="-4.1429440">
        <ele>442.4</ele>
        <time>2019-08-13T07:40:54Z</time>
      </trkpt>
      <trkpt lat="39.8893900" lon="-4.1430210">
        <ele>442.3</ele>
        <time>2019-08-13T07:40:55Z</time>
      </trkpt>
      <trkpt lat="39.8893980" lon="-4.1430970">
        <ele>442.1</ele>
        <time>2019-08-13T07:40:56Z</time>
      </trkpt>
      <trkpt lat="39.8894080" lon="-4.1431720">
        <ele>442.0</ele>
        <time>2019-08-13T07:40:57Z</time>
      </trkpt>
      <trkpt lat="39.8894170" lon="-4.1432470">
        <ele>441.9</ele>
        <time>2019-08-13T07:40:58Z</time>
      </trkpt>
      <trkpt lat="39.8894280" lon="-4.1433230">
        <ele>441.8</ele>
        <time>2019-08-13T07:40:59Z</time>
      </trkpt>
      <trkpt lat="39.8894370" lon="-4.1433990">
        <ele>441.7</ele>
        <time>2019-08-13T07:41:00Z</time>
      </trkpt>
      <trkpt lat="39.8894480" lon="-4.1434760">
        <ele>441.6</ele>
        <time>2019-08-13T07:41:01Z</time>
      </trkpt>
      <trkpt lat="39.8894610" lon="-4.1435530">
        <ele>441.4</ele>
        <time>2019-08-13T07:41:02Z</time>
      </trkpt>
      <trkpt lat="39.8894750" lon="-4.1436300">
        <ele>441.2</ele>
        <time>2019-08-13T07:41:03Z</time>
      </trkpt>
      <trkpt lat="39.8894890" lon="-4.1437060">
        <ele>441.0</ele>
        <time>2019-08-13T07:41:04Z</time>
      </trkpt>
      <trkpt lat="39.8895050" lon="-4.1437810">
        <ele>440.9</ele>
        <time>2019-08-13T07:41:05Z</time>
      </trkpt>
      <trkpt lat="39.8895220" lon="-4.1438560">
        <ele>440.8</ele>
        <time>2019-08-13T07:41:06Z</time>
      </trkpt>
      <trkpt lat="39.8895410" lon="-4.1439300">
        <ele>440.7</ele>
        <time>2019-08-13T07:41:07Z</time>
      </trkpt>
      <trkpt lat="39.8895650" lon="-4.1440020">
        <ele>440.7</ele>
        <time>2019-08-13T07:41:08Z</time>
      </trkpt>
      <trkpt lat="39.8895900" lon="-4.1440730">
        <ele>440.7</ele>
        <time>2019-08-13T07:41:09Z</time>
      </trkpt>
      <trkpt lat="39.8896150" lon="-4.1441450">
        <ele>440.7</ele>
        <time>2019-08-13T07:41:10Z</time>
      </trkpt>
      <trkpt lat="39.8896380" lon="-4.1442180">
        <ele>440.7</ele>
        <time>2019-08-13T07:41:11Z</time>
      </trkpt>
      <trkpt lat="39.8896630" lon="-4.1442870">
        <ele>440.7</ele>
        <time>2019-08-13T07:41:12Z</time>
      </trkpt>
      <trkpt lat="39.8896870" lon="-4.1443550">
        <ele>440.7</ele>
        <time>2019-08-13T07:41:13Z</time>
      </trkpt>
      <trkpt lat="39.8897140" lon="-4.1444200">
        <ele>440.7</ele>
        <time>2019-08-13T07:41:14Z</time>
      </trkpt>
      <trkpt lat="39.8897420" lon="-4.1444840">
        <ele>440.7</ele>
        <time>2019-08-13T07:41:15Z</time>
      </trkpt>
      <trkpt lat="39.8897740" lon="-4.1445460">
        <ele>440.7</ele>
        <time>2019-08-13T07:41:16Z</time>
      </trkpt>
      <trkpt lat="39.8898070" lon="-4.1446080">
        <ele>440.7</ele>
        <time>2019-08-13T07:41:17Z</time>
      </trkpt>
      <trkpt lat="39.8898390" lon="-4.1446710">
        <ele>440.7</ele>
        <time>2019-08-13T07:41:18Z</time>
      </trkpt>
      <trkpt lat="39.8898690" lon="-4.1447340">
        <ele>440.7</ele>
        <time>2019-08-13T07:41:19Z</time>
      </trkpt>
      <trkpt lat="39.8898950" lon="-4.1448020">
        <ele>440.7</ele>
        <time>2019-08-13T07:41:20Z</time>
      </trkpt>
      <trkpt lat="39.8899160" lon="-4.1448720">
        <ele>440.7</ele>
        <time>2019-08-13T07:41:21Z</time>
      </trkpt>
      <trkpt lat="39.8899340" lon="-4.1449430">
        <ele>440.7</ele>
        <time>2019-08-13T07:41:22Z</time>
      </trkpt>
      <trkpt lat="39.8899500" lon="-4.1450140">
        <ele>440.7</ele>
        <time>2019-08-13T07:41:23Z</time>
      </trkpt>
      <trkpt lat="39.8899630" lon="-4.1450840">
        <ele>440.6</ele>
        <time>2019-08-13T07:41:24Z</time>
      </trkpt>
      <trkpt lat="39.8899740" lon="-4.1451530">
        <ele>440.5</ele>
        <time>2019-08-13T07:41:25Z</time>
      </trkpt>
      <trkpt lat="39.8899870" lon="-4.1452200">
        <ele>440.4</ele>
        <time>2019-08-13T07:41:26Z</time>
      </trkpt>
      <trkpt lat="39.8900000" lon="-4.1452900">
        <ele>440.3</ele>
        <time>2019-08-13T07:41:27Z</time>
      </trkpt>
      <trkpt lat="39.8900100" lon="-4.1453600">
        <ele>440.1</ele>
        <time>2019-08-13T07:41:28Z</time>
      </trkpt>
      <trkpt lat="39.8900230" lon="-4.1454310">
        <ele>440.0</ele>
        <time>2019-08-13T07:41:29Z</time>
      </trkpt>
      <trkpt lat="39.8900360" lon="-4.1455020">
        <ele>439.9</ele>
        <time>2019-08-13T07:41:30Z</time>
      </trkpt>
      <trkpt lat="39.8900490" lon="-4.1455760">
        <ele>439.9</ele>
        <time>2019-08-13T07:41:31Z</time>
      </trkpt>
      <trkpt lat="39.8900610" lon="-4.1456480">
        <ele>439.9</ele>
        <time>2019-08-13T07:41:32Z</time>
      </trkpt>
      <trkpt lat="39.8900720" lon="-4.1457200">
        <ele>440.0</ele>
        <time>2019-08-13T07:41:33Z</time>
      </trkpt>
      <trkpt lat="39.8900820" lon="-4.1457920">
        <ele>440.1</ele>
        <time>2019-08-13T07:41:34Z</time>
      </trkpt>
      <trkpt lat="39.8900900" lon="-4.1458640">
        <ele>440.3</ele>
        <time>2019-08-13T07:41:35Z</time>
      </trkpt>
      <trkpt lat="39.8900990" lon="-4.1459330">
        <ele>440.4</ele>
        <time>2019-08-13T07:41:36Z</time>
      </trkpt>
      <trkpt lat="39.8901070" lon="-4.1460010">
        <ele>440.5</ele>
        <time>2019-08-13T07:41:37Z</time>
      </trkpt>
      <trkpt lat="39.8901130" lon="-4.1460690">
        <ele>440.6</ele>
        <time>2019-08-13T07:41:38Z</time>
      </trkpt>
      <trkpt lat="39.8901200" lon="-4.1461400">
        <ele>440.7</ele>
        <time>2019-08-13T07:41:39Z</time>
      </trkpt>
      <trkpt lat="39.8901240" lon="-4.1462100">
        <ele>440.7</ele>
        <time>2019-08-13T07:41:40Z</time>
      </trkpt>
      <trkpt lat="39.8901270" lon="-4.1462790">
        <ele>440.7</ele>
        <time>2019-08-13T07:41:41Z</time>
      </trkpt>
      <trkpt lat="39.8901280" lon="-4.1463500">
        <ele>440.7</ele>
        <time>2019-08-13T07:41:42Z</time>
      </trkpt>
      <trkpt lat="39.8901290" lon="-4.1464190">
        <ele>440.7</ele>
        <time>2019-08-13T07:41:43Z</time>
      </trkpt>
      <trkpt lat="39.8901310" lon="-4.1464880">
        <ele>440.7</ele>
        <time>2019-08-13T07:41:44Z</time>
      </trkpt>
      <trkpt lat="39.8901350" lon="-4.1465580">
        <ele>440.7</ele>
        <time>2019-08-13T07:41:45Z</time>
      </trkpt>
      <trkpt lat="39.8901430" lon="-4.1466270">
        <ele>440.7</ele>
        <time>2019-08-13T07:41:46Z</time>
      </trkpt>
      <trkpt lat="39.8901530" lon="-4.1466950">
        <ele>440.7</ele>
        <time>2019-08-13T07:41:47Z</time>
      </trkpt>
      <trkpt lat="39.8901650" lon="-4.1467640">
        <ele>440.7</ele>
        <time>2019-08-13T07:41:48Z</time>
      </trkpt>
      <trkpt lat="39.8901750" lon="-4.1468320">
        <ele>440.7</ele>
        <time>2019-08-13T07:41:49Z</time>
      </trkpt>
      <trkpt lat="39.8901860" lon="-4.1469000">
        <ele>440.7</ele>
        <time>2019-08-13T07:41:50Z</time>
      </trkpt>
      <trkpt lat="39.8901970" lon="-4.1469690">
        <ele>440.7</ele>
        <time>2019-08-13T07:41:51Z</time>
      </trkpt>
      <trkpt lat="39.8902090" lon="-4.1470380">
        <ele>440.7</ele>
        <time>2019-08-13T07:41:52Z</time>
      </trkpt>
      <trkpt lat="39.8902200" lon="-4.1471070">
        <ele>440.7</ele>
        <time>2019-08-13T07:41:53Z</time>
      </trkpt>
      <trkpt lat="39.8902310" lon="-4.1471760">
        <ele>440.7</ele>
        <time>2019-08-13T07:41:54Z</time>
      </trkpt>
      <trkpt lat="39.8902410" lon="-4.1472450">
        <ele>440.7</ele>
        <time>2019-08-13T07:41:55Z</time>
      </trkpt>
      <trkpt lat="39.8902510" lon="-4.1473150">
        <ele>440.7</ele>
        <time>2019-08-13T07:41:56Z</time>
      </trkpt>
      <trkpt lat="39.8902590" lon="-4.1473860">
        <ele>440.7</ele>
        <time>2019-08-13T07:41:57Z</time>
      </trkpt>
      <trkpt lat="39.8902650" lon="-4.1474560">
        <ele>440.7</ele>
        <time>2019-08-13T07:41:58Z</time>
      </trkpt>
      <trkpt lat="39.8902700" lon="-4.1475270">
        <ele>440.7</ele>
        <time>2019-08-13T07:41:59Z</time>
      </trkpt>
      <trkpt lat="39.8902730" lon="-4.1475980">
        <ele>440.7</ele>
        <time>2019-08-13T07:42:00Z</time>
      </trkpt>
      <trkpt lat="39.8902770" lon="-4.1476670">
        <ele>440.7</ele>
        <time>2019-08-13T07:42:01Z</time>
      </trkpt>
      <trkpt lat="39.8902810" lon="-4.1477360">
        <ele>440.7</ele>
        <time>2019-08-13T07:42:02Z</time>
      </trkpt>
      <trkpt lat="39.8902830" lon="-4.1478050">
        <ele>440.7</ele>
        <time>2019-08-13T07:42:03Z</time>
      </trkpt>
      <trkpt lat="39.8902850" lon="-4.1478720">
        <ele>440.7</ele>
        <time>2019-08-13T07:42:04Z</time>
      </trkpt>
      <trkpt lat="39.8902860" lon="-4.1479400">
        <ele>440.7</ele>
        <time>2019-08-13T07:42:05Z</time>
      </trkpt>
      <trkpt lat="39.8902860" lon="-4.1480090">
        <ele>440.7</ele>
        <time>2019-08-13T07:42:06Z</time>
      </trkpt>
      <trkpt lat="39.8902860" lon="-4.1480780">
        <ele>440.7</ele>
        <time>2019-08-13T07:42:07Z</time>
      </trkpt>
      <trkpt lat="39.8902860" lon="-4.1481450">
        <ele>440.7</ele>
        <time>2019-08-13T07:42:08Z</time>
      </trkpt>
      <trkpt lat="39.8902830" lon="-4.1482130">
        <ele>440.7</ele>
        <time>2019-08-13T07:42:09Z</time>
      </trkpt>
      <trkpt lat="39.8902800" lon="-4.1482810">
        <ele>440.7</ele>
        <time>2019-08-13T07:42:10Z</time>
      </trkpt>
      <trkpt lat="39.8902750" lon="-4.1483500">
        <ele>440.7</ele>
        <time>2019-08-13T07:42:11Z</time>
      </trkpt>
      <trkpt lat="39.8902710" lon="-4.1484190">
        <ele>440.7</ele>
        <time>2019-08-13T07:42:12Z</time>
      </trkpt>
      <trkpt lat="39.8902660" lon="-4.1484870">
        <ele>440.7</ele>
        <time>2019-08-13T07:42:13Z</time>
      </trkpt>
      <trkpt lat="39.8902590" lon="-4.1485570">
        <ele>440.7</ele>
        <time>2019-08-13T07:42:14Z</time>
      </trkpt>
      <trkpt lat="39.8902540" lon="-4.1486240">
        <ele>440.7</ele>
        <time>2019-08-13T07:42:15Z</time>
      </trkpt>
      <trkpt lat="39.8902520" lon="-4.1486900">
        <ele>440.7</ele>
        <time>2019-08-13T07:42:16Z</time>
      </trkpt>
      <trkpt lat="39.8902510" lon="-4.1487570">
        <ele>440.7</ele>
        <time>2019-08-13T07:42:17Z</time>
      </trkpt>
      <trkpt lat="39.8902520" lon="-4.1488250">
        <ele>440.7</ele>
        <time>2019-08-13T07:42:18Z</time>
      </trkpt>
      <trkpt lat="39.8902530" lon="-4.1488940">
        <ele>440.7</ele>
        <time>2019-08-13T07:42:19Z</time>
      </trkpt>
      <trkpt lat="39.8902550" lon="-4.1489630">
        <ele>440.7</ele>
        <time>2019-08-13T07:42:20Z</time>
      </trkpt>
      <trkpt lat="39.8902580" lon="-4.1490300">
        <ele>440.7</ele>
        <time>2019-08-13T07:42:21Z</time>
      </trkpt>
      <trkpt lat="39.8902620" lon="-4.1490930">
        <ele>440.7</ele>
        <time>2019-08-13T07:42:22Z</time>
      </trkpt>
      <trkpt lat="39.8902620" lon="-4.1491550">
        <ele>440.7</ele>
        <time>2019-08-13T07:42:23Z</time>
      </trkpt>
      <trkpt lat="39.8902580" lon="-4.1492190">
        <ele>440.8</ele>
        <time>2019-08-13T07:42:24Z</time>
      </trkpt>
      <trkpt lat="39.8902510" lon="-4.1492840">
        <ele>440.8</ele>
        <time>2019-08-13T07:42:25Z</time>
      </trkpt>
      <trkpt lat="39.8902430" lon="-4.1493510">
        <ele>440.8</ele>
        <time>2019-08-13T07:42:26Z</time>
      </trkpt>
      <trkpt lat="39.8902370" lon="-4.1494200">
        <ele>440.8</ele>
        <time>2019-08-13T07:42:27Z</time>
      </trkpt>
      <trkpt lat="39.8902320" lon="-4.1494900">
        <ele>440.9</ele>
        <time>2019-08-13T07:42:28Z</time>
      </trkpt>
      <trkpt lat="39.8902270" lon="-4.1495600">
        <ele>440.9</ele>
        <time>2019-08-13T07:42:29Z</time>
      </trkpt>
      <trkpt lat="39.8902210" lon="-4.1496310">
        <ele>440.9</ele>
        <time>2019-08-13T07:42:30Z</time>
      </trkpt>
      <trkpt lat="39.8902140" lon="-4.1497020">
        <ele>440.9</ele>
        <time>2019-08-13T07:42:31Z</time>
      </trkpt>
      <trkpt lat="39.8902050" lon="-4.1497710">
        <ele>440.9</ele>
        <time>2019-08-13T07:42:32Z</time>
      </trkpt>
      <trkpt lat="39.8901950" lon="-4.1498400">
        <ele>441.0</ele>
        <time>2019-08-13T07:42:33Z</time>
      </trkpt>
      <trkpt lat="39.8901870" lon="-4.1499080">
        <ele>441.0</ele>
        <time>2019-08-13T07:42:34Z</time>
      </trkpt>
      <trkpt lat="39.8901780" lon="-4.1499770">
        <ele>441.0</ele>
        <time>2019-08-13T07:42:35Z</time>
      </trkpt>
      <trkpt lat="39.8901680" lon="-4.1500470">
        <ele>441.0</ele>
        <time>2019-08-13T07:42:36Z</time>
      </trkpt>
      <trkpt lat="39.8901590" lon="-4.1501170">
        <ele>441.1</ele>
        <time>2019-08-13T07:42:37Z</time>
      </trkpt>
      <trkpt lat="39.8901500" lon="-4.1501860">
        <ele>441.1</ele>
        <time>2019-08-13T07:42:38Z</time>
      </trkpt>
      <trkpt lat="39.8901410" lon="-4.1502560">
        <ele>441.1</ele>
        <time>2019-08-13T07:42:39Z</time>
      </trkpt>
      <trkpt lat="39.8901310" lon="-4.1503270">
        <ele>441.1</ele>
        <time>2019-08-13T07:42:40Z</time>
      </trkpt>
      <trkpt lat="39.8901210" lon="-4.1504000">
        <ele>441.1</ele>
        <time>2019-08-13T07:42:41Z</time>
      </trkpt>
      <trkpt lat="39.8901130" lon="-4.1504730">
        <ele>441.2</ele>
        <time>2019-08-13T07:42:42Z</time>
      </trkpt>
      <trkpt lat="39.8901040" lon="-4.1505470">
        <ele>441.2</ele>
        <time>2019-08-13T07:42:43Z</time>
      </trkpt>
      <trkpt lat="39.8900960" lon="-4.1506210">
        <ele>441.2</ele>
        <time>2019-08-13T07:42:44Z</time>
      </trkpt>
      <trkpt lat="39.8900870" lon="-4.1506960">
        <ele>441.2</ele>
        <time>2019-08-13T07:42:45Z</time>
      </trkpt>
      <trkpt lat="39.8900770" lon="-4.1507720">
        <ele>441.2</ele>
        <time>2019-08-13T07:42:46Z</time>
      </trkpt>
      <trkpt lat="39.8900690" lon="-4.1508460">
        <ele>441.3</ele>
        <time>2019-08-13T07:42:47Z</time>
      </trkpt>
      <trkpt lat="39.8900610" lon="-4.1509210">
        <ele>441.3</ele>
        <time>2019-08-13T07:42:48Z</time>
      </trkpt>
      <trkpt lat="39.8900520" lon="-4.1509990">
        <ele>441.3</ele>
        <time>2019-08-13T07:42:49Z</time>
      </trkpt>
      <trkpt lat="39.8900430" lon="-4.1510760">
        <ele>441.3</ele>
        <time>2019-08-13T07:42:50Z</time>
      </trkpt>
      <trkpt lat="39.8900340" lon="-4.1511530">
        <ele>441.3</ele>
        <time>2019-08-13T07:42:51Z</time>
      </trkpt>
      <trkpt lat="39.8900250" lon="-4.1512310">
        <ele>441.4</ele>
        <time>2019-08-13T07:42:52Z</time>
      </trkpt>
      <trkpt lat="39.8900150" lon="-4.1513060">
        <ele>441.4</ele>
        <time>2019-08-13T07:42:53Z</time>
      </trkpt>
      <trkpt lat="39.8900060" lon="-4.1513820">
        <ele>441.4</ele>
        <time>2019-08-13T07:42:54Z</time>
      </trkpt>
      <trkpt lat="39.8899970" lon="-4.1514580">
        <ele>441.4</ele>
        <time>2019-08-13T07:42:55Z</time>
      </trkpt>
      <trkpt lat="39.8899890" lon="-4.1515310">
        <ele>441.5</ele>
        <time>2019-08-13T07:42:56Z</time>
      </trkpt>
      <trkpt lat="39.8899800" lon="-4.1516010">
        <ele>441.5</ele>
        <time>2019-08-13T07:42:57Z</time>
      </trkpt>
      <trkpt lat="39.8899700" lon="-4.1516710">
        <ele>441.5</ele>
        <time>2019-08-13T07:42:58Z</time>
      </trkpt>
      <trkpt lat="39.8899590" lon="-4.1517400">
        <ele>441.5</ele>
        <time>2019-08-13T07:42:59Z</time>
      </trkpt>
      <trkpt lat="39.8899480" lon="-4.1518080">
        <ele>441.4</ele>
        <time>2019-08-13T07:43:00Z</time>
      </trkpt>
      <trkpt lat="39.8899360" lon="-4.1518730">
        <ele>441.4</ele>
        <time>2019-08-13T07:43:01Z</time>
      </trkpt>
      <trkpt lat="39.8899220" lon="-4.1519380">
        <ele>441.3</ele>
        <time>2019-08-13T07:43:02Z</time>
      </trkpt>
      <trkpt lat="39.8899080" lon="-4.1520030">
        <ele>441.2</ele>
        <time>2019-08-13T07:43:03Z</time>
      </trkpt>
      <trkpt lat="39.8898970" lon="-4.1520680">
        <ele>441.2</ele>
        <time>2019-08-13T07:43:04Z</time>
      </trkpt>
      <trkpt lat="39.8898870" lon="-4.1521360">
        <ele>441.1</ele>
        <time>2019-08-13T07:43:05Z</time>
      </trkpt>
      <trkpt lat="39.8898790" lon="-4.1522000">
        <ele>441.0</ele>
        <time>2019-08-13T07:43:06Z</time>
      </trkpt>
      <trkpt lat="39.8898690" lon="-4.1522640">
        <ele>441.0</ele>
        <time>2019-08-13T07:43:07Z</time>
      </trkpt>
      <trkpt lat="39.8898530" lon="-4.1523250">
        <ele>440.9</ele>
        <time>2019-08-13T07:43:08Z</time>
      </trkpt>
      <trkpt lat="39.8898380" lon="-4.1523820">
        <ele>440.9</ele>
        <time>2019-08-13T07:43:09Z</time>
      </trkpt>
      <trkpt lat="39.8898290" lon="-4.1524290">
        <ele>440.9</ele>
        <time>2019-08-13T07:43:10Z</time>
      </trkpt>
      <trkpt lat="39.8898200" lon="-4.1524820">
        <ele>440.8</ele>
        <time>2019-08-13T07:43:11Z</time>
      </trkpt>
      <trkpt lat="39.8898120" lon="-4.1525370">
        <ele>440.7</ele>
        <time>2019-08-13T07:43:12Z</time>
      </trkpt>
      <trkpt lat="39.8898230" lon="-4.1526030">
        <ele>440.7</ele>
        <time>2019-08-13T07:43:13Z</time>
      </trkpt>
      <trkpt lat="39.8898170" lon="-4.1526640">
        <ele>440.6</ele>
        <time>2019-08-13T07:43:14Z</time>
      </trkpt>
      <trkpt lat="39.8898090" lon="-4.1527250">
        <ele>440.6</ele>
        <time>2019-08-13T07:43:15Z</time>
      </trkpt>
      <trkpt lat="39.8897940" lon="-4.1527790">
        <ele>440.5</ele>
        <time>2019-08-13T07:43:16Z</time>
      </trkpt>
      <trkpt lat="39.8897880" lon="-4.1528350">
        <ele>440.5</ele>
        <time>2019-08-13T07:43:17Z</time>
      </trkpt>
      <trkpt lat="39.8897800" lon="-4.1528840">
        <ele>440.4</ele>
        <time>2019-08-13T07:43:18Z</time>
      </trkpt>
      <trkpt lat="39.8897790" lon="-4.1529390">
        <ele>440.4</ele>
        <time>2019-08-13T07:43:19Z</time>
      </trkpt>
      <trkpt lat="39.8897790" lon="-4.1529930">
        <ele>440.3</ele>
        <time>2019-08-13T07:43:20Z</time>
      </trkpt>
      <trkpt lat="39.8897740" lon="-4.1530450">
        <ele>440.3</ele>
        <time>2019-08-13T07:43:21Z</time>
      </trkpt>
      <trkpt lat="39.8897720" lon="-4.1530880">
        <ele>440.3</ele>
        <time>2019-08-13T07:43:22Z</time>
      </trkpt>
      <trkpt lat="39.8897700" lon="-4.1531250">
        <ele>440.2</ele>
        <time>2019-08-13T07:43:24Z</time>
      </trkpt>
      <trkpt lat="39.8897610" lon="-4.1531600">
        <ele>440.2</ele>
        <time>2019-08-13T07:43:26Z</time>
      </trkpt>
      <trkpt lat="39.8897550" lon="-4.1532230">
        <ele>440.2</ele>
        <time>2019-08-13T07:43:28Z</time>
      </trkpt>
      <trkpt lat="39.8897460" lon="-4.1532630">
        <ele>440.2</ele>
        <time>2019-08-13T07:43:29Z</time>
      </trkpt>
      <trkpt lat="39.8897370" lon="-4.1533030">
        <ele>440.1</ele>
        <time>2019-08-13T07:43:30Z</time>
      </trkpt>
      <trkpt lat="39.8897300" lon="-4.1533440">
        <ele>440.1</ele>
        <time>2019-08-13T07:43:31Z</time>
      </trkpt>
      <trkpt lat="39.8897260" lon="-4.1533890">
        <ele>440.1</ele>
        <time>2019-08-13T07:43:32Z</time>
      </trkpt>
      <trkpt lat="39.8897200" lon="-4.1534350">
        <ele>440.1</ele>
        <time>2019-08-13T07:43:33Z</time>
      </trkpt>
      <trkpt lat="39.8897160" lon="-4.1534830">
        <ele>440.0</ele>
        <time>2019-08-13T07:43:34Z</time>
      </trkpt>
      <trkpt lat="39.8897150" lon="-4.1535330">
        <ele>440.0</ele>
        <time>2019-08-13T07:43:35Z</time>
      </trkpt>
      <trkpt lat="39.8897120" lon="-4.1535810">
        <ele>440.0</ele>
        <time>2019-08-13T07:43:36Z</time>
      </trkpt>
      <trkpt lat="39.8897090" lon="-4.1536300">
        <ele>439.9</ele>
        <time>2019-08-13T07:43:37Z</time>
      </trkpt>
      <trkpt lat="39.8897020" lon="-4.1536780">
        <ele>439.9</ele>
        <time>2019-08-13T07:43:38Z</time>
      </trkpt>
      <trkpt lat="39.8896970" lon="-4.1537250">
        <ele>439.8</ele>
        <time>2019-08-13T07:43:39Z</time>
      </trkpt>
      <trkpt lat="39.8896900" lon="-4.1537690">
        <ele>439.8</ele>
        <time>2019-08-13T07:43:40Z</time>
      </trkpt>
      <trkpt lat="39.8896810" lon="-4.1538150">
        <ele>439.7</ele>
        <time>2019-08-13T07:43:41Z</time>
      </trkpt>
      <trkpt lat="39.8896730" lon="-4.1538620">
        <ele>439.7</ele>
        <time>2019-08-13T07:43:42Z</time>
      </trkpt>
      <trkpt lat="39.8896640" lon="-4.1539150">
        <ele>439.6</ele>
        <time>2019-08-13T07:43:43Z</time>
      </trkpt>
      <trkpt lat="39.8896560" lon="-4.1539720">
        <ele>439.6</ele>
        <time>2019-08-13T07:43:44Z</time>
      </trkpt>
      <trkpt lat="39.8896450" lon="-4.1540280">
        <ele>439.5</ele>
        <time>2019-08-13T07:43:45Z</time>
      </trkpt>
      <trkpt lat="39.8896380" lon="-4.1540770">
        <ele>439.4</ele>
        <time>2019-08-13T07:43:46Z</time>
      </trkpt>
      <trkpt lat="39.8896360" lon="-4.1541330">
        <ele>439.4</ele>
        <time>2019-08-13T07:43:47Z</time>
      </trkpt>
      <trkpt lat="39.8896320" lon="-4.1542010">
        <ele>439.3</ele>
        <time>2019-08-13T07:43:48Z</time>
      </trkpt>
      <trkpt lat="39.8896240" lon="-4.1542660">
        <ele>439.3</ele>
        <time>2019-08-13T07:43:49Z</time>
      </trkpt>
      <trkpt lat="39.8896140" lon="-4.1543310">
        <ele>439.2</ele>
        <time>2019-08-13T07:43:50Z</time>
      </trkpt>
      <trkpt lat="39.8896080" lon="-4.1543920">
        <ele>439.1</ele>
        <time>2019-08-13T07:43:51Z</time>
      </trkpt>
      <trkpt lat="39.8896130" lon="-4.1544490">
        <ele>439.1</ele>
        <time>2019-08-13T07:43:52Z</time>
      </trkpt>
      <trkpt lat="39.8896100" lon="-4.1545170">
        <ele>439.0</ele>
        <time>2019-08-13T07:43:53Z</time>
      </trkpt>
      <trkpt lat="39.8895970" lon="-4.1545830">
        <ele>439.0</ele>
        <time>2019-08-13T07:43:54Z</time>
      </trkpt>
      <trkpt lat="39.8895880" lon="-4.1546490">
        <ele>439.0</ele>
        <time>2019-08-13T07:43:55Z</time>
      </trkpt>
      <trkpt lat="39.8895780" lon="-4.1547190">
        <ele>438.9</ele>
        <time>2019-08-13T07:43:56Z</time>
      </trkpt>
      <trkpt lat="39.8895680" lon="-4.1547900">
        <ele>438.9</ele>
        <time>2019-08-13T07:43:57Z</time>
      </trkpt>
      <trkpt lat="39.8895620" lon="-4.1548600">
        <ele>438.9</ele>
        <time>2019-08-13T07:43:58Z</time>
      </trkpt>
      <trkpt lat="39.8895520" lon="-4.1549300">
        <ele>438.9</ele>
        <time>2019-08-13T07:43:59Z</time>
      </trkpt>
      <trkpt lat="39.8895440" lon="-4.1550020">
        <ele>438.9</ele>
        <time>2019-08-13T07:44:00Z</time>
      </trkpt>
      <trkpt lat="39.8895370" lon="-4.1550730">
        <ele>438.9</ele>
        <time>2019-08-13T07:44:01Z</time>
      </trkpt>
      <trkpt lat="39.8895300" lon="-4.1551450">
        <ele>438.8</ele>
        <time>2019-08-13T07:44:02Z</time>
      </trkpt>
      <trkpt lat="39.8895220" lon="-4.1552160">
        <ele>438.8</ele>
        <time>2019-08-13T07:44:03Z</time>
      </trkpt>
      <trkpt lat="39.8895130" lon="-4.1552880">
        <ele>438.8</ele>
        <time>2019-08-13T07:44:04Z</time>
      </trkpt>
      <trkpt lat="39.8895040" lon="-4.1553600">
        <ele>438.7</ele>
        <time>2019-08-13T07:44:05Z</time>
      </trkpt>
      <trkpt lat="39.8894960" lon="-4.1554320">
        <ele>438.7</ele>
        <time>2019-08-13T07:44:06Z</time>
      </trkpt>
      <trkpt lat="39.8894890" lon="-4.1555060">
        <ele>438.7</ele>
        <time>2019-08-13T07:44:07Z</time>
      </trkpt>
      <trkpt lat="39.8894810" lon="-4.1555800">
        <ele>438.6</ele>
        <time>2019-08-13T07:44:08Z</time>
      </trkpt>
      <trkpt lat="39.8894740" lon="-4.1556560">
        <ele>438.6</ele>
        <time>2019-08-13T07:44:09Z</time>
      </trkpt>
      <trkpt lat="39.8894680" lon="-4.1557310">
        <ele>438.6</ele>
        <time>2019-08-13T07:44:10Z</time>
      </trkpt>
      <trkpt lat="39.8894610" lon="-4.1558070">
        <ele>438.5</ele>
        <time>2019-08-13T07:44:11Z</time>
      </trkpt>
      <trkpt lat="39.8894510" lon="-4.1558810">
        <ele>438.5</ele>
        <time>2019-08-13T07:44:12Z</time>
      </trkpt>
      <trkpt lat="39.8894420" lon="-4.1559510">
        <ele>438.5</ele>
        <time>2019-08-13T07:44:13Z</time>
      </trkpt>
      <trkpt lat="39.8894360" lon="-4.1560220">
        <ele>438.5</ele>
        <time>2019-08-13T07:44:14Z</time>
      </trkpt>
      <trkpt lat="39.8894320" lon="-4.1560960">
        <ele>438.5</ele>
        <time>2019-08-13T07:44:15Z</time>
      </trkpt>
      <trkpt lat="39.8894270" lon="-4.1561680">
        <ele>438.4</ele>
        <time>2019-08-13T07:44:16Z</time>
      </trkpt>
      <trkpt lat="39.8894210" lon="-4.1562380">
        <ele>438.4</ele>
        <time>2019-08-13T07:44:17Z</time>
      </trkpt>
      <trkpt lat="39.8894160" lon="-4.1563120">
        <ele>438.4</ele>
        <time>2019-08-13T07:44:18Z</time>
      </trkpt>
      <trkpt lat="39.8894110" lon="-4.1563850">
        <ele>438.4</ele>
        <time>2019-08-13T07:44:19Z</time>
      </trkpt>
      <trkpt lat="39.8894050" lon="-4.1564590">
        <ele>438.3</ele>
        <time>2019-08-13T07:44:20Z</time>
      </trkpt>
      <trkpt lat="39.8893990" lon="-4.1565310">
        <ele>438.3</ele>
        <time>2019-08-13T07:44:21Z</time>
      </trkpt>
      <trkpt lat="39.8893930" lon="-4.1566030">
        <ele>438.3</ele>
        <time>2019-08-13T07:44:22Z</time>
      </trkpt>
      <trkpt lat="39.8893880" lon="-4.1566760">
        <ele>438.3</ele>
        <time>2019-08-13T07:44:23Z</time>
      </trkpt>
      <trkpt lat="39.8893830" lon="-4.1567490">
        <ele>438.3</ele>
        <time>2019-08-13T07:44:24Z</time>
      </trkpt>
      <trkpt lat="39.8893770" lon="-4.1568220">
        <ele>438.3</ele>
        <time>2019-08-13T07:44:25Z</time>
      </trkpt>
      <trkpt lat="39.8893710" lon="-4.1568960">
        <ele>438.3</ele>
        <time>2019-08-13T07:44:26Z</time>
      </trkpt>
      <trkpt lat="39.8893650" lon="-4.1569720">
        <ele>438.3</ele>
        <time>2019-08-13T07:44:27Z</time>
      </trkpt>
      <trkpt lat="39.8893580" lon="-4.1570480">
        <ele>438.3</ele>
        <time>2019-08-13T07:44:28Z</time>
      </trkpt>
      <trkpt lat="39.8893520" lon="-4.1571240">
        <ele>438.3</ele>
        <time>2019-08-13T07:44:29Z</time>
      </trkpt>
      <trkpt lat="39.8893460" lon="-4.1572000">
        <ele>438.3</ele>
        <time>2019-08-13T07:44:30Z</time>
      </trkpt>
      <trkpt lat="39.8893390" lon="-4.1572750">
        <ele>438.3</ele>
        <time>2019-08-13T07:44:31Z</time>
      </trkpt>
      <trkpt lat="39.8893330" lon="-4.1573500">
        <ele>438.3</ele>
        <time>2019-08-13T07:44:32Z</time>
      </trkpt>
      <trkpt lat="39.8893270" lon="-4.1574260">
        <ele>438.3</ele>
        <time>2019-08-13T07:44:33Z</time>
      </trkpt>
      <trkpt lat="39.8893220" lon="-4.1575020">
        <ele>438.3</ele>
        <time>2019-08-13T07:44:34Z</time>
      </trkpt>
      <trkpt lat="39.8893170" lon="-4.1575790">
        <ele>438.3</ele>
        <time>2019-08-13T07:44:35Z</time>
      </trkpt>
      <trkpt lat="39.8893120" lon="-4.1576550">
        <ele>438.3</ele>
        <time>2019-08-13T07:44:36Z</time>
      </trkpt>
      <trkpt lat="39.8893060" lon="-4.1577320">
        <ele>438.3</ele>
        <time>2019-08-13T07:44:37Z</time>
      </trkpt>
      <trkpt lat="39.8893010" lon="-4.1578090">
        <ele>438.3</ele>
        <time>2019-08-13T07:44:38Z</time>
      </trkpt>
      <trkpt lat="39.8892960" lon="-4.1578860">
        <ele>438.2</ele>
        <time>2019-08-13T07:44:39Z</time>
      </trkpt>
      <trkpt lat="39.8892890" lon="-4.1579620">
        <ele>438.2</ele>
        <time>2019-08-13T07:44:40Z</time>
      </trkpt>
      <trkpt lat="39.8892830" lon="-4.1580380">
        <ele>438.2</ele>
        <time>2019-08-13T07:44:41Z</time>
      </trkpt>
      <trkpt lat="39.8892770" lon="-4.1581150">
        <ele>438.2</ele>
        <time>2019-08-13T07:44:42Z</time>
      </trkpt>
      <trkpt lat="39.8892710" lon="-4.1581910">
        <ele>438.2</ele>
        <time>2019-08-13T07:44:43Z</time>
      </trkpt>
      <trkpt lat="39.8892660" lon="-4.1582700">
        <ele>438.2</ele>
        <time>2019-08-13T07:44:44Z</time>
      </trkpt>
      <trkpt lat="39.8892610" lon="-4.1583460">
        <ele>438.2</ele>
        <time>2019-08-13T07:44:45Z</time>
      </trkpt>
      <trkpt lat="39.8892570" lon="-4.1584230">
        <ele>438.2</ele>
        <time>2019-08-13T07:44:46Z</time>
      </trkpt>
      <trkpt lat="39.8892530" lon="-4.1585000">
        <ele>438.2</ele>
        <time>2019-08-13T07:44:47Z</time>
      </trkpt>
      <trkpt lat="39.8892490" lon="-4.1585770">
        <ele>438.2</ele>
        <time>2019-08-13T07:44:48Z</time>
      </trkpt>
      <trkpt lat="39.8892460" lon="-4.1586540">
        <ele>438.1</ele>
        <time>2019-08-13T07:44:49Z</time>
      </trkpt>
      <trkpt lat="39.8892410" lon="-4.1587290">
        <ele>438.1</ele>
        <time>2019-08-13T07:44:50Z</time>
      </trkpt>
      <trkpt lat="39.8892370" lon="-4.1588030">
        <ele>438.1</ele>
        <time>2019-08-13T07:44:51Z</time>
      </trkpt>
      <trkpt lat="39.8892320" lon="-4.1588770">
        <ele>438.0</ele>
        <time>2019-08-13T07:44:52Z</time>
      </trkpt>
      <trkpt lat="39.8892270" lon="-4.1589520">
        <ele>438.0</ele>
        <time>2019-08-13T07:44:53Z</time>
      </trkpt>
      <trkpt lat="39.8892220" lon="-4.1590250">
        <ele>438.1</ele>
        <time>2019-08-13T07:44:54Z</time>
      </trkpt>
      <trkpt lat="39.8892170" lon="-4.1591010">
        <ele>438.1</ele>
        <time>2019-08-13T07:44:55Z</time>
      </trkpt>
      <trkpt lat="39.8892110" lon="-4.1591780">
        <ele>438.1</ele>
        <time>2019-08-13T07:44:56Z</time>
      </trkpt>
      <trkpt lat="39.8892040" lon="-4.1592550">
        <ele>438.1</ele>
        <time>2019-08-13T07:44:57Z</time>
      </trkpt>
      <trkpt lat="39.8891970" lon="-4.1593310">
        <ele>438.0</ele>
        <time>2019-08-13T07:44:58Z</time>
      </trkpt>
      <trkpt lat="39.8891920" lon="-4.1594060">
        <ele>438.0</ele>
        <time>2019-08-13T07:44:59Z</time>
      </trkpt>
      <trkpt lat="39.8891850" lon="-4.1594810">
        <ele>438.0</ele>
        <time>2019-08-13T07:45:00Z</time>
      </trkpt>
      <trkpt lat="39.8891790" lon="-4.1595560">
        <ele>437.9</ele>
        <time>2019-08-13T07:45:01Z</time>
      </trkpt>
      <trkpt lat="39.8891720" lon="-4.1596310">
        <ele>437.8</ele>
        <time>2019-08-13T07:45:02Z</time>
      </trkpt>
      <trkpt lat="39.8891670" lon="-4.1597060">
        <ele>437.8</ele>
        <time>2019-08-13T07:45:03Z</time>
      </trkpt>
      <trkpt lat="39.8891620" lon="-4.1597820">
        <ele>437.8</ele>
        <time>2019-08-13T07:45:04Z</time>
      </trkpt>
      <trkpt lat="39.8891560" lon="-4.1598570">
        <ele>437.7</ele>
        <time>2019-08-13T07:45:05Z</time>
      </trkpt>
      <trkpt lat="39.8891510" lon="-4.1599330">
        <ele>437.7</ele>
        <time>2019-08-13T07:45:06Z</time>
      </trkpt>
      <trkpt lat="39.8891440" lon="-4.1600070">
        <ele>437.7</ele>
        <time>2019-08-13T07:45:07Z</time>
      </trkpt>
      <trkpt lat="39.8891370" lon="-4.1600820">
        <ele>437.7</ele>
        <time>2019-08-13T07:45:08Z</time>
      </trkpt>
      <trkpt lat="39.8891330" lon="-4.1601580">
        <ele>437.6</ele>
        <time>2019-08-13T07:45:09Z</time>
      </trkpt>
      <trkpt lat="39.8891280" lon="-4.1602330">
        <ele>437.6</ele>
        <time>2019-08-13T07:45:10Z</time>
      </trkpt>
      <trkpt lat="39.8891220" lon="-4.1603090">
        <ele>437.6</ele>
        <time>2019-08-13T07:45:11Z</time>
      </trkpt>
      <trkpt lat="39.8891160" lon="-4.1603850">
        <ele>437.6</ele>
        <time>2019-08-13T07:45:12Z</time>
      </trkpt>
      <trkpt lat="39.8891100" lon="-4.1604620">
        <ele>437.6</ele>
        <time>2019-08-13T07:45:13Z</time>
      </trkpt>
      <trkpt lat="39.8891030" lon="-4.1605390">
        <ele>437.6</ele>
        <time>2019-08-13T07:45:14Z</time>
      </trkpt>
      <trkpt lat="39.8890970" lon="-4.1606180">
        <ele>437.5</ele>
        <time>2019-08-13T07:45:15Z</time>
      </trkpt>
      <trkpt lat="39.8890900" lon="-4.1606950">
        <ele>437.5</ele>
        <time>2019-08-13T07:45:16Z</time>
      </trkpt>
      <trkpt lat="39.8890820" lon="-4.1607730">
        <ele>437.5</ele>
        <time>2019-08-13T07:45:17Z</time>
      </trkpt>
      <trkpt lat="39.8890750" lon="-4.1608540">
        <ele>437.5</ele>
        <time>2019-08-13T07:45:18Z</time>
      </trkpt>
      <trkpt lat="39.8890680" lon="-4.1609330">
        <ele>437.5</ele>
        <time>2019-08-13T07:45:19Z</time>
      </trkpt>
      <trkpt lat="39.8890620" lon="-4.1610110">
        <ele>437.4</ele>
        <time>2019-08-13T07:45:20Z</time>
      </trkpt>
      <trkpt lat="39.8890560" lon="-4.1610910">
        <ele>437.4</ele>
        <time>2019-08-13T07:45:21Z</time>
      </trkpt>
      <trkpt lat="39.8890510" lon="-4.1611710">
        <ele>437.4</ele>
        <time>2019-08-13T07:45:22Z</time>
      </trkpt>
      <trkpt lat="39.8890460" lon="-4.1612470">
        <ele>437.4</ele>
        <time>2019-08-13T07:45:23Z</time>
      </trkpt>
      <trkpt lat="39.8890410" lon="-4.1613220">
        <ele>437.4</ele>
        <time>2019-08-13T07:45:24Z</time>
      </trkpt>
      <trkpt lat="39.8890370" lon="-4.1613960">
        <ele>437.4</ele>
        <time>2019-08-13T07:45:25Z</time>
      </trkpt>
      <trkpt lat="39.8890320" lon="-4.1614710">
        <ele>437.3</ele>
        <time>2019-08-13T07:45:26Z</time>
      </trkpt>
      <trkpt lat="39.8890260" lon="-4.1615460">
        <ele>437.3</ele>
        <time>2019-08-13T07:45:27Z</time>
      </trkpt>
      <trkpt lat="39.8890200" lon="-4.1616220">
        <ele>437.3</ele>
        <time>2019-08-13T07:45:28Z</time>
      </trkpt>
      <trkpt lat="39.8890140" lon="-4.1616970">
        <ele>437.3</ele>
        <time>2019-08-13T07:45:29Z</time>
      </trkpt>
      <trkpt lat="39.8890070" lon="-4.1617730">
        <ele>437.2</ele>
        <time>2019-08-13T07:45:30Z</time>
      </trkpt>
      <trkpt lat="39.8890020" lon="-4.1618520">
        <ele>437.2</ele>
        <time>2019-08-13T07:45:31Z</time>
      </trkpt>
      <trkpt lat="39.8889980" lon="-4.1619300">
        <ele>437.2</ele>
        <time>2019-08-13T07:45:32Z</time>
      </trkpt>
      <trkpt lat="39.8889940" lon="-4.1620060">
        <ele>437.2</ele>
        <time>2019-08-13T07:45:33Z</time>
      </trkpt>
      <trkpt lat="39.8889890" lon="-4.1620820">
        <ele>437.2</ele>
        <time>2019-08-13T07:45:34Z</time>
      </trkpt>
      <trkpt lat="39.8889830" lon="-4.1621570">
        <ele>437.2</ele>
        <time>2019-08-13T07:45:35Z</time>
      </trkpt>
      <trkpt lat="39.8889780" lon="-4.1622290">
        <ele>437.3</ele>
        <time>2019-08-13T07:45:36Z</time>
      </trkpt>
      <trkpt lat="39.8889730" lon="-4.1623000">
        <ele>437.3</ele>
        <time>2019-08-13T07:45:37Z</time>
      </trkpt>
      <trkpt lat="39.8889690" lon="-4.1623700">
        <ele>437.3</ele>
        <time>2019-08-13T07:45:38Z</time>
      </trkpt>
      <trkpt lat="39.8889630" lon="-4.1624410">
        <ele>437.3</ele>
        <time>2019-08-13T07:45:39Z</time>
      </trkpt>
      <trkpt lat="39.8889560" lon="-4.1625130">
        <ele>437.4</ele>
        <time>2019-08-13T07:45:40Z</time>
      </trkpt>
      <trkpt lat="39.8889500" lon="-4.1625850">
        <ele>437.4</ele>
        <time>2019-08-13T07:45:41Z</time>
      </trkpt>
      <trkpt lat="39.8889440" lon="-4.1626590">
        <ele>437.4</ele>
        <time>2019-08-13T07:45:42Z</time>
      </trkpt>
      <trkpt lat="39.8889370" lon="-4.1627340">
        <ele>437.4</ele>
        <time>2019-08-13T07:45:43Z</time>
      </trkpt>
      <trkpt lat="39.8889310" lon="-4.1628090">
        <ele>437.4</ele>
        <time>2019-08-13T07:45:44Z</time>
      </trkpt>
      <trkpt lat="39.8889250" lon="-4.1628850">
        <ele>437.3</ele>
        <time>2019-08-13T07:45:45Z</time>
      </trkpt>
      <trkpt lat="39.8889190" lon="-4.1629620">
        <ele>437.3</ele>
        <time>2019-08-13T07:45:46Z</time>
      </trkpt>
      <trkpt lat="39.8889120" lon="-4.1630400">
        <ele>437.3</ele>
        <time>2019-08-13T07:45:47Z</time>
      </trkpt>
      <trkpt lat="39.8889060" lon="-4.1631190">
        <ele>437.2</ele>
        <time>2019-08-13T07:45:48Z</time>
      </trkpt>
      <trkpt lat="39.8889000" lon="-4.1631970">
        <ele>437.2</ele>
        <time>2019-08-13T07:45:49Z</time>
      </trkpt>
      <trkpt lat="39.8888970" lon="-4.1632760">
        <ele>437.2</ele>
        <time>2019-08-13T07:45:50Z</time>
      </trkpt>
      <trkpt lat="39.8888930" lon="-4.1633540">
        <ele>437.1</ele>
        <time>2019-08-13T07:45:51Z</time>
      </trkpt>
      <trkpt lat="39.8888870" lon="-4.1634340">
        <ele>437.1</ele>
        <time>2019-08-13T07:45:52Z</time>
      </trkpt>
      <trkpt lat="39.8888810" lon="-4.1635140">
        <ele>437.0</ele>
        <time>2019-08-13T07:45:53Z</time>
      </trkpt>
      <trkpt lat="39.8888740" lon="-4.1635930">
        <ele>437.0</ele>
        <time>2019-08-13T07:45:54Z</time>
      </trkpt>
      <trkpt lat="39.8888670" lon="-4.1636710">
        <ele>436.9</ele>
        <time>2019-08-13T07:45:55Z</time>
      </trkpt>
      <trkpt lat="39.8888610" lon="-4.1637490">
        <ele>436.9</ele>
        <time>2019-08-13T07:45:56Z</time>
      </trkpt>
      <trkpt lat="39.8888550" lon="-4.1638290">
        <ele>436.8</ele>
        <time>2019-08-13T07:45:57Z</time>
      </trkpt>
      <trkpt lat="39.8888500" lon="-4.1639080">
        <ele>436.7</ele>
        <time>2019-08-13T07:45:58Z</time>
      </trkpt>
      <trkpt lat="39.8888430" lon="-4.1639880">
        <ele>436.7</ele>
        <time>2019-08-13T07:45:59Z</time>
      </trkpt>
      <trkpt lat="39.8888360" lon="-4.1640680">
        <ele>436.6</ele>
        <time>2019-08-13T07:46:00Z</time>
      </trkpt>
      <trkpt lat="39.8888320" lon="-4.1641480">
        <ele>436.6</ele>
        <time>2019-08-13T07:46:01Z</time>
      </trkpt>
      <trkpt lat="39.8888300" lon="-4.1642300">
        <ele>436.6</ele>
        <time>2019-08-13T07:46:02Z</time>
      </trkpt>
      <trkpt lat="39.8888310" lon="-4.1643120">
        <ele>436.5</ele>
        <time>2019-08-13T07:46:03Z</time>
      </trkpt>
      <trkpt lat="39.8888320" lon="-4.1643930">
        <ele>436.5</ele>
        <time>2019-08-13T07:46:04Z</time>
      </trkpt>
      <trkpt lat="39.8888350" lon="-4.1644730">
        <ele>436.5</ele>
        <time>2019-08-13T07:46:05Z</time>
      </trkpt>
      <trkpt lat="39.8888400" lon="-4.1645540">
        <ele>436.4</ele>
        <time>2019-08-13T07:46:06Z</time>
      </trkpt>
      <trkpt lat="39.8888460" lon="-4.1646350">
        <ele>436.4</ele>
        <time>2019-08-13T07:46:07Z</time>
      </trkpt>
      <trkpt lat="39.8888510" lon="-4.1647120">
        <ele>436.4</ele>
        <time>2019-08-13T07:46:08Z</time>
      </trkpt>
      <trkpt lat="39.8888570" lon="-4.1647890">
        <ele>436.3</ele>
        <time>2019-08-13T07:46:09Z</time>
      </trkpt>
      <trkpt lat="39.8888630" lon="-4.1648650">
        <ele>436.3</ele>
        <time>2019-08-13T07:46:10Z</time>
      </trkpt>
      <trkpt lat="39.8888680" lon="-4.1649410">
        <ele>436.2</ele>
        <time>2019-08-13T07:46:11Z</time>
      </trkpt>
      <trkpt lat="39.8888750" lon="-4.1650180">
        <ele>436.2</ele>
        <time>2019-08-13T07:46:12Z</time>
      </trkpt>
      <trkpt lat="39.8888820" lon="-4.1650960">
        <ele>436.2</ele>
        <time>2019-08-13T07:46:13Z</time>
      </trkpt>
      <trkpt lat="39.8888880" lon="-4.1651760">
        <ele>436.2</ele>
        <time>2019-08-13T07:46:14Z</time>
      </trkpt>
      <trkpt lat="39.8888940" lon="-4.1652580">
        <ele>436.2</ele>
        <time>2019-08-13T07:46:15Z</time>
      </trkpt>
      <trkpt lat="39.8889000" lon="-4.1653340">
        <ele>436.2</ele>
        <time>2019-08-13T07:46:16Z</time>
      </trkpt>
      <trkpt lat="39.8889060" lon="-4.1654100">
        <ele>436.2</ele>
        <time>2019-08-13T07:46:17Z</time>
      </trkpt>
      <trkpt lat="39.8889120" lon="-4.1654870">
        <ele>436.2</ele>
        <time>2019-08-13T07:46:18Z</time>
      </trkpt>
      <trkpt lat="39.8889170" lon="-4.1655610">
        <ele>436.2</ele>
        <time>2019-08-13T07:46:19Z</time>
      </trkpt>
      <trkpt lat="39.8889220" lon="-4.1656360">
        <ele>436.2</ele>
        <time>2019-08-13T07:46:20Z</time>
      </trkpt>
      <trkpt lat="39.8889270" lon="-4.1657090">
        <ele>436.2</ele>
        <time>2019-08-13T07:46:21Z</time>
      </trkpt>
      <trkpt lat="39.8889310" lon="-4.1657840">
        <ele>436.2</ele>
        <time>2019-08-13T07:46:22Z</time>
      </trkpt>
      <trkpt lat="39.8889370" lon="-4.1658600">
        <ele>436.2</ele>
        <time>2019-08-13T07:46:23Z</time>
      </trkpt>
      <trkpt lat="39.8889430" lon="-4.1659360">
        <ele>436.2</ele>
        <time>2019-08-13T07:46:24Z</time>
      </trkpt>
      <trkpt lat="39.8889490" lon="-4.1660120">
        <ele>436.2</ele>
        <time>2019-08-13T07:46:25Z</time>
      </trkpt>
      <trkpt lat="39.8889550" lon="-4.1660880">
        <ele>436.2</ele>
        <time>2019-08-13T07:46:26Z</time>
      </trkpt>
      <trkpt lat="39.8889600" lon="-4.1661650">
        <ele>436.2</ele>
        <time>2019-08-13T07:46:27Z</time>
      </trkpt>
      <trkpt lat="39.8889660" lon="-4.1662430">
        <ele>436.2</ele>
        <time>2019-08-13T07:46:28Z</time>
      </trkpt>
      <trkpt lat="39.8889720" lon="-4.1663220">
        <ele>436.2</ele>
        <time>2019-08-13T07:46:29Z</time>
      </trkpt>
      <trkpt lat="39.8889780" lon="-4.1664000">
        <ele>436.2</ele>
        <time>2019-08-13T07:46:30Z</time>
      </trkpt>
      <trkpt lat="39.8889820" lon="-4.1664780">
        <ele>436.2</ele>
        <time>2019-08-13T07:46:31Z</time>
      </trkpt>
      <trkpt lat="39.8889860" lon="-4.1665540">
        <ele>436.2</ele>
        <time>2019-08-13T07:46:32Z</time>
      </trkpt>
      <trkpt lat="39.8889920" lon="-4.1666310">
        <ele>436.2</ele>
        <time>2019-08-13T07:46:33Z</time>
      </trkpt>
      <trkpt lat="39.8889970" lon="-4.1667080">
        <ele>436.2</ele>
        <time>2019-08-13T07:46:34Z</time>
      </trkpt>
      <trkpt lat="39.8890030" lon="-4.1667850">
        <ele>436.2</ele>
        <time>2019-08-13T07:46:35Z</time>
      </trkpt>
      <trkpt lat="39.8890090" lon="-4.1668610">
        <ele>436.2</ele>
        <time>2019-08-13T07:46:36Z</time>
      </trkpt>
      <trkpt lat="39.8890150" lon="-4.1669390">
        <ele>436.2</ele>
        <time>2019-08-13T07:46:37Z</time>
      </trkpt>
      <trkpt lat="39.8890180" lon="-4.1670160">
        <ele>436.2</ele>
        <time>2019-08-13T07:46:38Z</time>
      </trkpt>
      <trkpt lat="39.8890210" lon="-4.1670930">
        <ele>436.2</ele>
        <time>2019-08-13T07:46:39Z</time>
      </trkpt>
      <trkpt lat="39.8890240" lon="-4.1671700">
        <ele>436.2</ele>
        <time>2019-08-13T07:46:40Z</time>
      </trkpt>
      <trkpt lat="39.8890250" lon="-4.1672490">
        <ele>436.2</ele>
        <time>2019-08-13T07:46:41Z</time>
      </trkpt>
      <trkpt lat="39.8890230" lon="-4.1673280">
        <ele>436.2</ele>
        <time>2019-08-13T07:46:42Z</time>
      </trkpt>
      <trkpt lat="39.8890200" lon="-4.1674080">
        <ele>436.2</ele>
        <time>2019-08-13T07:46:43Z</time>
      </trkpt>
      <trkpt lat="39.8890170" lon="-4.1674880">
        <ele>436.2</ele>
        <time>2019-08-13T07:46:44Z</time>
      </trkpt>
      <trkpt lat="39.8890110" lon="-4.1675670">
        <ele>436.3</ele>
        <time>2019-08-13T07:46:45Z</time>
      </trkpt>
      <trkpt lat="39.8890010" lon="-4.1676430">
        <ele>436.3</ele>
        <time>2019-08-13T07:46:46Z</time>
      </trkpt>
      <trkpt lat="39.8889880" lon="-4.1677180">
        <ele>436.3</ele>
        <time>2019-08-13T07:46:47Z</time>
      </trkpt>
      <trkpt lat="39.8889710" lon="-4.1677920">
        <ele>436.4</ele>
        <time>2019-08-13T07:46:48Z</time>
      </trkpt>
      <trkpt lat="39.8889520" lon="-4.1678660">
        <ele>436.4</ele>
        <time>2019-08-13T07:46:49Z</time>
      </trkpt>
      <trkpt lat="39.8889310" lon="-4.1679410">
        <ele>436.4</ele>
        <time>2019-08-13T07:46:50Z</time>
      </trkpt>
      <trkpt lat="39.8889090" lon="-4.1680180">
        <ele>436.4</ele>
        <time>2019-08-13T07:46:51Z</time>
      </trkpt>
      <trkpt lat="39.8888840" lon="-4.1680920">
        <ele>436.4</ele>
        <time>2019-08-13T07:46:52Z</time>
      </trkpt>
      <trkpt lat="39.8888590" lon="-4.1681660">
        <ele>436.4</ele>
        <time>2019-08-13T07:46:53Z</time>
      </trkpt>
      <trkpt lat="39.8888340" lon="-4.1682390">
        <ele>436.4</ele>
        <time>2019-08-13T07:46:54Z</time>
      </trkpt>
      <trkpt lat="39.8888090" lon="-4.1683120">
        <ele>436.4</ele>
        <time>2019-08-13T07:46:55Z</time>
      </trkpt>
      <trkpt lat="39.8887820" lon="-4.1683850">
        <ele>436.4</ele>
        <time>2019-08-13T07:46:56Z</time>
      </trkpt>
      <trkpt lat="39.8887550" lon="-4.1684580">
        <ele>436.4</ele>
        <time>2019-08-13T07:46:57Z</time>
      </trkpt>
      <trkpt lat="39.8887290" lon="-4.1685320">
        <ele>436.4</ele>
        <time>2019-08-13T07:46:58Z</time>
      </trkpt>
      <trkpt lat="39.8887010" lon="-4.1686060">
        <ele>436.4</ele>
        <time>2019-08-13T07:46:59Z</time>
      </trkpt>
      <trkpt lat="39.8886740" lon="-4.1686810">
        <ele>436.3</ele>
        <time>2019-08-13T07:47:00Z</time>
      </trkpt>
      <trkpt lat="39.8886450" lon="-4.1687550">
        <ele>436.2</ele>
        <time>2019-08-13T07:47:01Z</time>
      </trkpt>
      <trkpt lat="39.8886180" lon="-4.1688270">
        <ele>436.2</ele>
        <time>2019-08-13T07:47:02Z</time>
      </trkpt>
      <trkpt lat="39.8885910" lon="-4.1688990">
        <ele>436.1</ele>
        <time>2019-08-13T07:47:03Z</time>
      </trkpt>
      <trkpt lat="39.8885710" lon="-4.1689730">
        <ele>436.1</ele>
        <time>2019-08-13T07:47:04Z</time>
      </trkpt>
      <trkpt lat="39.8885640" lon="-4.1690480">
        <ele>436.0</ele>
        <time>2019-08-13T07:47:05Z</time>
      </trkpt>
      <trkpt lat="39.8885730" lon="-4.1691250">
        <ele>435.9</ele>
        <time>2019-08-13T07:47:06Z</time>
      </trkpt>
      <trkpt lat="39.8885980" lon="-4.1691930">
        <ele>435.9</ele>
        <time>2019-08-13T07:47:07Z</time>
      </trkpt>
      <trkpt lat="39.8886350" lon="-4.1692520">
        <ele>435.8</ele>
        <time>2019-08-13T07:47:08Z</time>
      </trkpt>
      <trkpt lat="39.8886790" lon="-4.1692980">
        <ele>435.8</ele>
        <time>2019-08-13T07:47:09Z</time>
      </trkpt>
      <trkpt lat="39.8887270" lon="-4.1693320">
        <ele>435.7</ele>
        <time>2019-08-13T07:47:10Z</time>
      </trkpt>
      <trkpt lat="39.8887770" lon="-4.1693600">
        <ele>435.6</ele>
        <time>2019-08-13T07:47:11Z</time>
      </trkpt>
      <trkpt lat="39.8888270" lon="-4.1693890">
        <ele>435.5</ele>
        <time>2019-08-13T07:47:12Z</time>
      </trkpt>
      <trkpt lat="39.8888790" lon="-4.1694190">
        <ele>435.4</ele>
        <time>2019-08-13T07:47:13Z</time>
      </trkpt>
      <trkpt lat="39.8889310" lon="-4.1694500">
        <ele>435.3</ele>
        <time>2019-08-13T07:47:14Z</time>
      </trkpt>
      <trkpt lat="39.8889830" lon="-4.1694840">
        <ele>435.2</ele>
        <time>2019-08-13T07:47:15Z</time>
      </trkpt>
      <trkpt lat="39.8890350" lon="-4.1695170">
        <ele>435.2</ele>
        <time>2019-08-13T07:47:16Z</time>
      </trkpt>
      <trkpt lat="39.8890880" lon="-4.1695480">
        <ele>435.1</ele>
        <time>2019-08-13T07:47:17Z</time>
      </trkpt>
      <trkpt lat="39.8891400" lon="-4.1695770">
        <ele>435.0</ele>
        <time>2019-08-13T07:47:18Z</time>
      </trkpt>
      <trkpt lat="39.8891920" lon="-4.1696060">
        <ele>435.0</ele>
        <time>2019-08-13T07:47:19Z</time>
      </trkpt>
      <trkpt lat="39.8892430" lon="-4.1696330">
        <ele>434.9</ele>
        <time>2019-08-13T07:47:20Z</time>
      </trkpt>
      <trkpt lat="39.8892950" lon="-4.1696620">
        <ele>434.9</ele>
        <time>2019-08-13T07:47:21Z</time>
      </trkpt>
      <trkpt lat="39.8893460" lon="-4.1696900">
        <ele>434.9</ele>
        <time>2019-08-13T07:47:22Z</time>
      </trkpt>
      <trkpt lat="39.8893960" lon="-4.1697180">
        <ele>434.9</ele>
        <time>2019-08-13T07:47:23Z</time>
      </trkpt>
      <trkpt lat="39.8894470" lon="-4.1697460">
        <ele>434.8</ele>
        <time>2019-08-13T07:47:24Z</time>
      </trkpt>
      <trkpt lat="39.8894990" lon="-4.1697740">
        <ele>434.8</ele>
        <time>2019-08-13T07:47:25Z</time>
      </trkpt>
      <trkpt lat="39.8895500" lon="-4.1698010">
        <ele>434.8</ele>
        <time>2019-08-13T07:47:26Z</time>
      </trkpt>
      <trkpt lat="39.8896000" lon="-4.1698280">
        <ele>434.8</ele>
        <time>2019-08-13T07:47:27Z</time>
      </trkpt>
      <trkpt lat="39.8896500" lon="-4.1698550">
        <ele>434.8</ele>
        <time>2019-08-13T07:47:28Z</time>
      </trkpt>
      <trkpt lat="39.8897000" lon="-4.1698820">
        <ele>434.8</ele>
        <time>2019-08-13T07:47:29Z</time>
      </trkpt>
      <trkpt lat="39.8897490" lon="-4.1699110">
        <ele>434.8</ele>
        <time>2019-08-13T07:47:30Z</time>
      </trkpt>
      <trkpt lat="39.8897980" lon="-4.1699420">
        <ele>434.8</ele>
        <time>2019-08-13T07:47:31Z</time>
      </trkpt>
      <trkpt lat="39.8898460" lon="-4.1699710">
        <ele>434.8</ele>
        <time>2019-08-13T07:47:32Z</time>
      </trkpt>
      <trkpt lat="39.8898940" lon="-4.1699990">
        <ele>434.8</ele>
        <time>2019-08-13T07:47:33Z</time>
      </trkpt>
      <trkpt lat="39.8899430" lon="-4.1700250">
        <ele>434.8</ele>
        <time>2019-08-13T07:47:34Z</time>
      </trkpt>
      <trkpt lat="39.8899940" lon="-4.1700450">
        <ele>434.8</ele>
        <time>2019-08-13T07:47:35Z</time>
      </trkpt>
      <trkpt lat="39.8900450" lon="-4.1700600">
        <ele>434.8</ele>
        <time>2019-08-13T07:47:36Z</time>
      </trkpt>
      <trkpt lat="39.8900950" lon="-4.1700700">
        <ele>434.8</ele>
        <time>2019-08-13T07:47:37Z</time>
      </trkpt>
      <trkpt lat="39.8901440" lon="-4.1700730">
        <ele>434.8</ele>
        <time>2019-08-13T07:47:38Z</time>
      </trkpt>
      <trkpt lat="39.8901910" lon="-4.1700760">
        <ele>434.9</ele>
        <time>2019-08-13T07:47:39Z</time>
      </trkpt>
      <trkpt lat="39.8902340" lon="-4.1700800">
        <ele>434.9</ele>
        <time>2019-08-13T07:47:40Z</time>
      </trkpt>
      <trkpt lat="39.8902730" lon="-4.1700870">
        <ele>434.9</ele>
        <time>2019-08-13T07:47:41Z</time>
      </trkpt>
      <trkpt lat="39.8903090" lon="-4.1700970">
        <ele>435.0</ele>
        <time>2019-08-13T07:47:42Z</time>
      </trkpt>
      <trkpt lat="39.8903430" lon="-4.1701090">
        <ele>435.0</ele>
        <time>2019-08-13T07:47:43Z</time>
      </trkpt>
      <trkpt lat="39.8903740" lon="-4.1701230">
        <ele>435.1</ele>
        <time>2019-08-13T07:47:44Z</time>
      </trkpt>
      <trkpt lat="39.8904020" lon="-4.1701370">
        <ele>435.1</ele>
        <time>2019-08-13T07:47:45Z</time>
      </trkpt>
      <trkpt lat="39.8904280" lon="-4.1701520">
        <ele>435.2</ele>
        <time>2019-08-13T07:47:46Z</time>
      </trkpt>
      <trkpt lat="39.8904530" lon="-4.1701690">
        <ele>435.3</ele>
        <time>2019-08-13T07:47:47Z</time>
      </trkpt>
      <trkpt lat="39.8904760" lon="-4.1701880">
        <ele>435.4</ele>
        <time>2019-08-13T07:47:48Z</time>
      </trkpt>
      <trkpt lat="39.8905200" lon="-4.1702270">
        <ele>435.7</ele>
        <time>2019-08-13T07:47:50Z</time>
      </trkpt>
      <trkpt lat="39.8905610" lon="-4.1702720">
        <ele>436.0</ele>
        <time>2019-08-13T07:47:52Z</time>
      </trkpt>
      <trkpt lat="39.8905980" lon="-4.1703210">
        <ele>436.5</ele>
        <time>2019-08-13T07:47:54Z</time>
      </trkpt>
      <trkpt lat="39.8906330" lon="-4.1703750">
        <ele>437.0</ele>
        <time>2019-08-13T07:47:56Z</time>
      </trkpt>
      <trkpt lat="39.8906480" lon="-4.1704050">
        <ele>437.2</ele>
        <time>2019-08-13T07:47:57Z</time>
      </trkpt>
      <trkpt lat="39.8906620" lon="-4.1704360">
        <ele>437.5</ele>
        <time>2019-08-13T07:47:58Z</time>
      </trkpt>
      <trkpt lat="39.8906750" lon="-4.1704680">
        <ele>437.8</ele>
        <time>2019-08-13T07:47:59Z</time>
      </trkpt>
      <trkpt lat="39.8906880" lon="-4.1704980">
        <ele>438.1</ele>
        <time>2019-08-13T07:48:00Z</time>
      </trkpt>
      <trkpt lat="39.8907140" lon="-4.1705570">
        <ele>438.6</ele>
        <time>2019-08-13T07:48:02Z</time>
      </trkpt>
      <trkpt lat="39.8907370" lon="-4.1706180">
        <ele>439.1</ele>
        <time>2019-08-13T07:48:04Z</time>
      </trkpt>
      <trkpt lat="39.8907470" lon="-4.1706500">
        <ele>439.4</ele>
        <time>2019-08-13T07:48:05Z</time>
      </trkpt>
      <trkpt lat="39.8907580" lon="-4.1706840">
        <ele>439.6</ele>
        <time>2019-08-13T07:48:06Z</time>
      </trkpt>
      <trkpt lat="39.8907680" lon="-4.1707190">
        <ele>439.8</ele>
        <time>2019-08-13T07:48:07Z</time>
      </trkpt>
      <trkpt lat="39.8907780" lon="-4.1707550">
        <ele>440.1</ele>
        <time>2019-08-13T07:48:08Z</time>
      </trkpt>
      <trkpt lat="39.8907910" lon="-4.1707930">
        <ele>440.4</ele>
        <time>2019-08-13T07:48:09Z</time>
      </trkpt>
      <trkpt lat="39.8908050" lon="-4.1708310">
        <ele>440.6</ele>
        <time>2019-08-13T07:48:10Z</time>
      </trkpt>
      <trkpt lat="39.8908190" lon="-4.1708700">
        <ele>440.8</ele>
        <time>2019-08-13T07:48:11Z</time>
      </trkpt>
      <trkpt lat="39.8908340" lon="-4.1709130">
        <ele>441.1</ele>
        <time>2019-08-13T07:48:12Z</time>
      </trkpt>
      <trkpt lat="39.8908520" lon="-4.1709580">
        <ele>441.3</ele>
        <time>2019-08-13T07:48:13Z</time>
      </trkpt>
      <trkpt lat="39.8908710" lon="-4.1710030">
        <ele>441.6</ele>
        <time>2019-08-13T07:48:14Z</time>
      </trkpt>
      <trkpt lat="39.8908910" lon="-4.1710460">
        <ele>441.7</ele>
        <time>2019-08-13T07:48:15Z</time>
      </trkpt>
      <trkpt lat="39.8909120" lon="-4.1710880">
        <ele>441.9</ele>
        <time>2019-08-13T07:48:16Z</time>
      </trkpt>
      <trkpt lat="39.8909320" lon="-4.1711280">
        <ele>442.0</ele>
        <time>2019-08-13T07:48:17Z</time>
      </trkpt>
      <trkpt lat="39.8909520" lon="-4.1711670">
        <ele>442.1</ele>
        <time>2019-08-13T07:48:18Z</time>
      </trkpt>
      <trkpt lat="39.8909720" lon="-4.1712050">
        <ele>442.1</ele>
        <time>2019-08-13T07:48:19Z</time>
      </trkpt>
      <trkpt lat="39.8909930" lon="-4.1712420">
        <ele>442.1</ele>
        <time>2019-08-13T07:48:20Z</time>
      </trkpt>
      <trkpt lat="39.8910130" lon="-4.1712770">
        <ele>442.2</ele>
        <time>2019-08-13T07:48:21Z</time>
      </trkpt>
      <trkpt lat="39.8910350" lon="-4.1713130">
        <ele>442.2</ele>
        <time>2019-08-13T07:48:22Z</time>
      </trkpt>
      <trkpt lat="39.8910580" lon="-4.1713500">
        <ele>442.2</ele>
        <time>2019-08-13T07:48:23Z</time>
      </trkpt>
      <trkpt lat="39.8910820" lon="-4.1713880">
        <ele>442.2</ele>
        <time>2019-08-13T07:48:24Z</time>
      </trkpt>
      <trkpt lat="39.8911040" lon="-4.1714300">
        <ele>442.2</ele>
        <time>2019-08-13T07:48:25Z</time>
      </trkpt>
      <trkpt lat="39.8911270" lon="-4.1714720">
        <ele>442.1</ele>
        <time>2019-08-13T07:48:26Z</time>
      </trkpt>
      <trkpt lat="39.8911520" lon="-4.1715160">
        <ele>442.1</ele>
        <time>2019-08-13T07:48:27Z</time>
      </trkpt>
      <trkpt lat="39.8911770" lon="-4.1715610">
        <ele>442.1</ele>
        <time>2019-08-13T07:48:28Z</time>
      </trkpt>
      <trkpt lat="39.8912020" lon="-4.1716080">
        <ele>442.1</ele>
        <time>2019-08-13T07:48:29Z</time>
      </trkpt>
      <trkpt lat="39.8912260" lon="-4.1716540">
        <ele>442.1</ele>
        <time>2019-08-13T07:48:30Z</time>
      </trkpt>
      <trkpt lat="39.8912500" lon="-4.1716980">
        <ele>442.1</ele>
        <time>2019-08-13T07:48:31Z</time>
      </trkpt>
      <trkpt lat="39.8912730" lon="-4.1717410">
        <ele>442.0</ele>
        <time>2019-08-13T07:48:32Z</time>
      </trkpt>
      <trkpt lat="39.8912960" lon="-4.1717830">
        <ele>442.0</ele>
        <time>2019-08-13T07:48:33Z</time>
      </trkpt>
      <trkpt lat="39.8913200" lon="-4.1718260">
        <ele>442.0</ele>
        <time>2019-08-13T07:48:34Z</time>
      </trkpt>
      <trkpt lat="39.8913440" lon="-4.1718690">
        <ele>442.0</ele>
        <time>2019-08-13T07:48:35Z</time>
      </trkpt>
      <trkpt lat="39.8913690" lon="-4.1719110">
        <ele>442.0</ele>
        <time>2019-08-13T07:48:36Z</time>
      </trkpt>
      <trkpt lat="39.8913930" lon="-4.1719510">
        <ele>442.0</ele>
        <time>2019-08-13T07:48:37Z</time>
      </trkpt>
      <trkpt lat="39.8914150" lon="-4.1719900">
        <ele>441.9</ele>
        <time>2019-08-13T07:48:38Z</time>
      </trkpt>
      <trkpt lat="39.8914370" lon="-4.1720290">
        <ele>441.9</ele>
        <time>2019-08-13T07:48:39Z</time>
      </trkpt>
      <trkpt lat="39.8914580" lon="-4.1720660">
        <ele>441.9</ele>
        <time>2019-08-13T07:48:40Z</time>
      </trkpt>
      <trkpt lat="39.8914750" lon="-4.1721030">
        <ele>441.8</ele>
        <time>2019-08-13T07:48:41Z</time>
      </trkpt>
      <trkpt lat="39.8914890" lon="-4.1721400">
        <ele>441.8</ele>
        <time>2019-08-13T07:48:42Z</time>
      </trkpt>
      <trkpt lat="39.8914980" lon="-4.1721790">
        <ele>441.7</ele>
        <time>2019-08-13T07:48:43Z</time>
      </trkpt>
      <trkpt lat="39.8915030" lon="-4.1722260">
        <ele>441.6</ele>
        <time>2019-08-13T07:48:44Z</time>
      </trkpt>
      <trkpt lat="39.8915030" lon="-4.1722780">
        <ele>441.5</ele>
        <time>2019-08-13T07:48:45Z</time>
      </trkpt>
      <trkpt lat="39.8914960" lon="-4.1723320">
        <ele>441.4</ele>
        <time>2019-08-13T07:48:46Z</time>
      </trkpt>
      <trkpt lat="39.8914790" lon="-4.1723910">
        <ele>441.3</ele>
        <time>2019-08-13T07:48:47Z</time>
      </trkpt>
      <trkpt lat="39.8914530" lon="-4.1724510">
        <ele>441.1</ele>
        <time>2019-08-13T07:48:48Z</time>
      </trkpt>
      <trkpt lat="39.8914180" lon="-4.1725110">
        <ele>440.9</ele>
        <time>2019-08-13T07:48:49Z</time>
      </trkpt>
      <trkpt lat="39.8913770" lon="-4.1725700">
        <ele>440.6</ele>
        <time>2019-08-13T07:48:50Z</time>
      </trkpt>
      <trkpt lat="39.8913280" lon="-4.1726260">
        <ele>440.3</ele>
        <time>2019-08-13T07:48:51Z</time>
      </trkpt>
      <trkpt lat="39.8912770" lon="-4.1726810">
        <ele>439.9</ele>
        <time>2019-08-13T07:48:52Z</time>
      </trkpt>
      <trkpt lat="39.8912250" lon="-4.1727350">
        <ele>439.6</ele>
        <time>2019-08-13T07:48:53Z</time>
      </trkpt>
      <trkpt lat="39.8911720" lon="-4.1727900">
        <ele>439.2</ele>
        <time>2019-08-13T07:48:54Z</time>
      </trkpt>
      <trkpt lat="39.8911200" lon="-4.1728470">
        <ele>438.9</ele>
        <time>2019-08-13T07:48:55Z</time>
      </trkpt>
      <trkpt lat="39.8910680" lon="-4.1729010">
        <ele>438.6</ele>
        <time>2019-08-13T07:48:56Z</time>
      </trkpt>
      <trkpt lat="39.8910150" lon="-4.1729530">
        <ele>438.3</ele>
        <time>2019-08-13T07:48:57Z</time>
      </trkpt>
      <trkpt lat="39.8909600" lon="-4.1729990">
        <ele>437.9</ele>
        <time>2019-08-13T07:48:58Z</time>
      </trkpt>
      <trkpt lat="39.8909030" lon="-4.1730400">
        <ele>437.6</ele>
        <time>2019-08-13T07:48:59Z</time>
      </trkpt>
      <trkpt lat="39.8908450" lon="-4.1730750">
        <ele>437.3</ele>
        <time>2019-08-13T07:49:00Z</time>
      </trkpt>
      <trkpt lat="39.8907850" lon="-4.1731030">
        <ele>436.9</ele>
        <time>2019-08-13T07:49:01Z</time>
      </trkpt>
      <trkpt lat="39.8907260" lon="-4.1731290">
        <ele>436.5</ele>
        <time>2019-08-13T07:49:02Z</time>
      </trkpt>
      <trkpt lat="39.8906670" lon="-4.1731540">
        <ele>436.2</ele>
        <time>2019-08-13T07:49:03Z</time>
      </trkpt>
      <trkpt lat="39.8906100" lon="-4.1731830">
        <ele>435.8</ele>
        <time>2019-08-13T07:49:04Z</time>
      </trkpt>
      <trkpt lat="39.8905560" lon="-4.1732170">
        <ele>435.5</ele>
        <time>2019-08-13T07:49:05Z</time>
      </trkpt>
      <trkpt lat="39.8905100" lon="-4.1732610">
        <ele>435.2</ele>
        <time>2019-08-13T07:49:06Z</time>
      </trkpt>
      <trkpt lat="39.8904710" lon="-4.1733130">
        <ele>435.0</ele>
        <time>2019-08-13T07:49:07Z</time>
      </trkpt>
      <trkpt lat="39.8904370" lon="-4.1733700">
        <ele>434.8</ele>
        <time>2019-08-13T07:49:08Z</time>
      </trkpt>
      <trkpt lat="39.8904090" lon="-4.1734280">
        <ele>434.6</ele>
        <time>2019-08-13T07:49:09Z</time>
      </trkpt>
      <trkpt lat="39.8903850" lon="-4.1734900">
        <ele>434.4</ele>
        <time>2019-08-13T07:49:10Z</time>
      </trkpt>
      <trkpt lat="39.8903640" lon="-4.1735550">
        <ele>434.3</ele>
        <time>2019-08-13T07:49:11Z</time>
      </trkpt>
      <trkpt lat="39.8903460" lon="-4.1736240">
        <ele>434.2</ele>
        <time>2019-08-13T07:49:12Z</time>
      </trkpt>
      <trkpt lat="39.8903260" lon="-4.1736950">
        <ele>434.1</ele>
        <time>2019-08-13T07:49:13Z</time>
      </trkpt>
      <trkpt lat="39.8903060" lon="-4.1737660">
        <ele>434.0</ele>
        <time>2019-08-13T07:49:14Z</time>
      </trkpt>
      <trkpt lat="39.8902840" lon="-4.1738360">
        <ele>433.9</ele>
        <time>2019-08-13T07:49:15Z</time>
      </trkpt>
      <trkpt lat="39.8902600" lon="-4.1739060">
        <ele>433.8</ele>
        <time>2019-08-13T07:49:16Z</time>
      </trkpt>
      <trkpt lat="39.8902350" lon="-4.1739730">
        <ele>433.7</ele>
        <time>2019-08-13T07:49:17Z</time>
      </trkpt>
      <trkpt lat="39.8902080" lon="-4.1740400">
        <ele>433.6</ele>
        <time>2019-08-13T07:49:18Z</time>
      </trkpt>
      <trkpt lat="39.8901810" lon="-4.1741060">
        <ele>433.5</ele>
        <time>2019-08-13T07:49:19Z</time>
      </trkpt>
      <trkpt lat="39.8901540" lon="-4.1741710">
        <ele>433.5</ele>
        <time>2019-08-13T07:49:20Z</time>
      </trkpt>
      <trkpt lat="39.8901280" lon="-4.1742350">
        <ele>433.4</ele>
        <time>2019-08-13T07:49:21Z</time>
      </trkpt>
      <trkpt lat="39.8901010" lon="-4.1742990">
        <ele>433.4</ele>
        <time>2019-08-13T07:49:22Z</time>
      </trkpt>
      <trkpt lat="39.8900720" lon="-4.1743610">
        <ele>433.3</ele>
        <time>2019-08-13T07:49:23Z</time>
      </trkpt>
      <trkpt lat="39.8900410" lon="-4.1744230">
        <ele>433.3</ele>
        <time>2019-08-13T07:49:24Z</time>
      </trkpt>
      <trkpt lat="39.8900080" lon="-4.1744840">
        <ele>433.2</ele>
        <time>2019-08-13T07:49:25Z</time>
      </trkpt>
      <trkpt lat="39.8899810" lon="-4.1745420">
        <ele>433.2</ele>
        <time>2019-08-13T07:49:26Z</time>
      </trkpt>
      <trkpt lat="39.8899540" lon="-4.1745990">
        <ele>433.1</ele>
        <time>2019-08-13T07:49:27Z</time>
      </trkpt>
      <trkpt lat="39.8899280" lon="-4.1746580">
        <ele>433.1</ele>
        <time>2019-08-13T07:49:28Z</time>
      </trkpt>
      <trkpt lat="39.8899050" lon="-4.1747220">
        <ele>433.1</ele>
        <time>2019-08-13T07:49:29Z</time>
      </trkpt>
      <trkpt lat="39.8898820" lon="-4.1747860">
        <ele>433.1</ele>
        <time>2019-08-13T07:49:30Z</time>
      </trkpt>
      <trkpt lat="39.8898630" lon="-4.1748510">
        <ele>433.1</ele>
        <time>2019-08-13T07:49:31Z</time>
      </trkpt>
      <trkpt lat="39.8898440" lon="-4.1749170">
        <ele>433.0</ele>
        <time>2019-08-13T07:49:32Z</time>
      </trkpt>
      <trkpt lat="39.8898280" lon="-4.1749840">
        <ele>433.0</ele>
        <time>2019-08-13T07:49:33Z</time>
      </trkpt>
      <trkpt lat="39.8898140" lon="-4.1750510">
        <ele>433.0</ele>
        <time>2019-08-13T07:49:34Z</time>
      </trkpt>
      <trkpt lat="39.8898020" lon="-4.1751180">
        <ele>432.9</ele>
        <time>2019-08-13T07:49:35Z</time>
      </trkpt>
      <trkpt lat="39.8897900" lon="-4.1751870">
        <ele>432.9</ele>
        <time>2019-08-13T07:49:36Z</time>
      </trkpt>
      <trkpt lat="39.8897780" lon="-4.1752550">
        <ele>432.8</ele>
        <time>2019-08-13T07:49:37Z</time>
      </trkpt>
      <trkpt lat="39.8897660" lon="-4.1753240">
        <ele>432.7</ele>
        <time>2019-08-13T07:49:38Z</time>
      </trkpt>
      <trkpt lat="39.8897560" lon="-4.1753920">
        <ele>432.7</ele>
        <time>2019-08-13T07:49:39Z</time>
      </trkpt>
      <trkpt lat="39.8897440" lon="-4.1754610">
        <ele>432.7</ele>
        <time>2019-08-13T07:49:40Z</time>
      </trkpt>
      <trkpt lat="39.8897310" lon="-4.1755280">
        <ele>432.7</ele>
        <time>2019-08-13T07:49:41Z</time>
      </trkpt>
      <trkpt lat="39.8897190" lon="-4.1755950">
        <ele>432.7</ele>
        <time>2019-08-13T07:49:42Z</time>
      </trkpt>
      <trkpt lat="39.8897050" lon="-4.1756630">
        <ele>432.7</ele>
        <time>2019-08-13T07:49:43Z</time>
      </trkpt>
      <trkpt lat="39.8896910" lon="-4.1757300">
        <ele>432.8</ele>
        <time>2019-08-13T07:49:44Z</time>
      </trkpt>
      <trkpt lat="39.8896770" lon="-4.1757980">
        <ele>432.8</ele>
        <time>2019-08-13T07:49:45Z</time>
      </trkpt>
      <trkpt lat="39.8896630" lon="-4.1758660">
        <ele>432.8</ele>
        <time>2019-08-13T07:49:46Z</time>
      </trkpt>
      <trkpt lat="39.8896490" lon="-4.1759350">
        <ele>432.9</ele>
        <time>2019-08-13T07:49:47Z</time>
      </trkpt>
      <trkpt lat="39.8896330" lon="-4.1760040">
        <ele>432.9</ele>
        <time>2019-08-13T07:49:48Z</time>
      </trkpt>
      <trkpt lat="39.8896170" lon="-4.1760710">
        <ele>432.9</ele>
        <time>2019-08-13T07:49:49Z</time>
      </trkpt>
      <trkpt lat="39.8896010" lon="-4.1761390">
        <ele>432.9</ele>
        <time>2019-08-13T07:49:50Z</time>
      </trkpt>
      <trkpt lat="39.8895850" lon="-4.1762080">
        <ele>432.9</ele>
        <time>2019-08-13T07:49:51Z</time>
      </trkpt>
      <trkpt lat="39.8895690" lon="-4.1762750">
        <ele>433.0</ele>
        <time>2019-08-13T07:49:52Z</time>
      </trkpt>
      <trkpt lat="39.8895560" lon="-4.1763420">
        <ele>433.0</ele>
        <time>2019-08-13T07:49:53Z</time>
      </trkpt>
      <trkpt lat="39.8895420" lon="-4.1764080">
        <ele>433.0</ele>
        <time>2019-08-13T07:49:54Z</time>
      </trkpt>
      <trkpt lat="39.8895270" lon="-4.1764750">
        <ele>433.0</ele>
        <time>2019-08-13T07:49:55Z</time>
      </trkpt>
      <trkpt lat="39.8895120" lon="-4.1765420">
        <ele>433.0</ele>
        <time>2019-08-13T07:49:56Z</time>
      </trkpt>
      <trkpt lat="39.8894970" lon="-4.1766090">
        <ele>433.0</ele>
        <time>2019-08-13T07:49:57Z</time>
      </trkpt>
      <trkpt lat="39.8894830" lon="-4.1766750">
        <ele>433.1</ele>
        <time>2019-08-13T07:49:58Z</time>
      </trkpt>
      <trkpt lat="39.8894690" lon="-4.1767410">
        <ele>433.1</ele>
        <time>2019-08-13T07:49:59Z</time>
      </trkpt>
      <trkpt lat="39.8894580" lon="-4.1768080">
        <ele>433.1</ele>
        <time>2019-08-13T07:50:00Z</time>
      </trkpt>
      <trkpt lat="39.8894480" lon="-4.1768770">
        <ele>433.1</ele>
        <time>2019-08-13T07:50:01Z</time>
      </trkpt>
      <trkpt lat="39.8894420" lon="-4.1769460">
        <ele>433.1</ele>
        <time>2019-08-13T07:50:02Z</time>
      </trkpt>
      <trkpt lat="39.8894400" lon="-4.1770160">
        <ele>433.1</ele>
        <time>2019-08-13T07:50:03Z</time>
      </trkpt>
      <trkpt lat="39.8894420" lon="-4.1770850">
        <ele>433.1</ele>
        <time>2019-08-13T07:50:04Z</time>
      </trkpt>
      <trkpt lat="39.8894470" lon="-4.1771530">
        <ele>433.1</ele>
        <time>2019-08-13T07:50:05Z</time>
      </trkpt>
      <trkpt lat="39.8894580" lon="-4.1772200">
        <ele>433.1</ele>
        <time>2019-08-13T07:50:06Z</time>
      </trkpt>
      <trkpt lat="39.8894730" lon="-4.1772850">
        <ele>433.1</ele>
        <time>2019-08-13T07:50:07Z</time>
      </trkpt>
      <trkpt lat="39.8894920" lon="-4.1773480">
        <ele>433.1</ele>
        <time>2019-08-13T07:50:08Z</time>
      </trkpt>
      <trkpt lat="39.8895150" lon="-4.1774090">
        <ele>433.1</ele>
        <time>2019-08-13T07:50:09Z</time>
      </trkpt>
      <trkpt lat="39.8895390" lon="-4.1774680">
        <ele>433.1</ele>
        <time>2019-08-13T07:50:10Z</time>
      </trkpt>
      <trkpt lat="39.8895650" lon="-4.1775250">
        <ele>433.1</ele>
        <time>2019-08-13T07:50:11Z</time>
      </trkpt>
      <trkpt lat="39.8895920" lon="-4.1775820">
        <ele>433.1</ele>
        <time>2019-08-13T07:50:12Z</time>
      </trkpt>
      <trkpt lat="39.8896220" lon="-4.1776390">
        <ele>433.1</ele>
        <time>2019-08-13T07:50:13Z</time>
      </trkpt>
      <trkpt lat="39.8896530" lon="-4.1776950">
        <ele>433.1</ele>
        <time>2019-08-13T07:50:14Z</time>
      </trkpt>
      <trkpt lat="39.8896840" lon="-4.1777520">
        <ele>433.2</ele>
        <time>2019-08-13T07:50:15Z</time>
      </trkpt>
      <trkpt lat="39.8897150" lon="-4.1778070">
        <ele>433.2</ele>
        <time>2019-08-13T07:50:16Z</time>
      </trkpt>
      <trkpt lat="39.8897490" lon="-4.1778640">
        <ele>433.2</ele>
        <time>2019-08-13T07:50:17Z</time>
      </trkpt>
      <trkpt lat="39.8897820" lon="-4.1779210">
        <ele>433.2</ele>
        <time>2019-08-13T07:50:18Z</time>
      </trkpt>
      <trkpt lat="39.8898150" lon="-4.1779760">
        <ele>433.2</ele>
        <time>2019-08-13T07:50:19Z</time>
      </trkpt>
      <trkpt lat="39.8898480" lon="-4.1780300">
        <ele>433.3</ele>
        <time>2019-08-13T07:50:20Z</time>
      </trkpt>
      <trkpt lat="39.8898800" lon="-4.1780870">
        <ele>433.3</ele>
        <time>2019-08-13T07:50:21Z</time>
      </trkpt>
      <trkpt lat="39.8899120" lon="-4.1781450">
        <ele>433.3</ele>
        <time>2019-08-13T07:50:22Z</time>
      </trkpt>
      <trkpt lat="39.8899440" lon="-4.1782040">
        <ele>433.3</ele>
        <time>2019-08-13T07:50:23Z</time>
      </trkpt>
      <trkpt lat="39.8899750" lon="-4.1782640">
        <ele>433.3</ele>
        <time>2019-08-13T07:50:24Z</time>
      </trkpt>
      <trkpt lat="39.8900070" lon="-4.1783260">
        <ele>433.3</ele>
        <time>2019-08-13T07:50:25Z</time>
      </trkpt>
      <trkpt lat="39.8900380" lon="-4.1783880">
        <ele>433.3</ele>
        <time>2019-08-13T07:50:26Z</time>
      </trkpt>
      <trkpt lat="39.8900680" lon="-4.1784510">
        <ele>433.3</ele>
        <time>2019-08-13T07:50:27Z</time>
      </trkpt>
      <trkpt lat="39.8900980" lon="-4.1785130">
        <ele>433.3</ele>
        <time>2019-08-13T07:50:28Z</time>
      </trkpt>
      <trkpt lat="39.8901270" lon="-4.1785770">
        <ele>433.3</ele>
        <time>2019-08-13T07:50:29Z</time>
      </trkpt>
      <trkpt lat="39.8901560" lon="-4.1786390">
        <ele>433.3</ele>
        <time>2019-08-13T07:50:30Z</time>
      </trkpt>
      <trkpt lat="39.8901870" lon="-4.1787010">
        <ele>433.3</ele>
        <time>2019-08-13T07:50:31Z</time>
      </trkpt>
      <trkpt lat="39.8902170" lon="-4.1787660">
        <ele>433.3</ele>
        <time>2019-08-13T07:50:32Z</time>
      </trkpt>
      <trkpt lat="39.8902480" lon="-4.1788300">
        <ele>433.3</ele>
        <time>2019-08-13T07:50:33Z</time>
      </trkpt>
      <trkpt lat="39.8902810" lon="-4.1788920">
        <ele>433.3</ele>
        <time>2019-08-13T07:50:34Z</time>
      </trkpt>
      <trkpt lat="39.8903120" lon="-4.1789560">
        <ele>433.4</ele>
        <time>2019-08-13T07:50:35Z</time>
      </trkpt>
      <trkpt lat="39.8903450" lon="-4.1790170">
        <ele>433.4</ele>
        <time>2019-08-13T07:50:36Z</time>
      </trkpt>
      <trkpt lat="39.8903810" lon="-4.1790730">
        <ele>433.4</ele>
        <time>2019-08-13T07:50:37Z</time>
      </trkpt>
      <trkpt lat="39.8904200" lon="-4.1791250">
        <ele>433.4</ele>
        <time>2019-08-13T07:50:38Z</time>
      </trkpt>
      <trkpt lat="39.8904580" lon="-4.1791780">
        <ele>433.5</ele>
        <time>2019-08-13T07:50:39Z</time>
      </trkpt>
      <trkpt lat="39.8904970" lon="-4.1792290">
        <ele>433.5</ele>
        <time>2019-08-13T07:50:40Z</time>
      </trkpt>
      <trkpt lat="39.8905370" lon="-4.1792780">
        <ele>433.5</ele>
        <time>2019-08-13T07:50:41Z</time>
      </trkpt>
      <trkpt lat="39.8905770" lon="-4.1793250">
        <ele>433.5</ele>
        <time>2019-08-13T07:50:42Z</time>
      </trkpt>
      <trkpt lat="39.8906180" lon="-4.1793700">
        <ele>433.5</ele>
        <time>2019-08-13T07:50:43Z</time>
      </trkpt>
      <trkpt lat="39.8906590" lon="-4.1794160">
        <ele>433.5</ele>
        <time>2019-08-13T07:50:44Z</time>
      </trkpt>
      <trkpt lat="39.8907000" lon="-4.1794610">
        <ele>433.5</ele>
        <time>2019-08-13T07:50:45Z</time>
      </trkpt>
      <trkpt lat="39.8907430" lon="-4.1795040">
        <ele>433.6</ele>
        <time>2019-08-13T07:50:46Z</time>
      </trkpt>
      <trkpt lat="39.8907860" lon="-4.1795460">
        <ele>433.6</ele>
        <time>2019-08-13T07:50:47Z</time>
      </trkpt>
      <trkpt lat="39.8908290" lon="-4.1795890">
        <ele>433.6</ele>
        <time>2019-08-13T07:50:48Z</time>
      </trkpt>
      <trkpt lat="39.8908720" lon="-4.1796310">
        <ele>433.6</ele>
        <time>2019-08-13T07:50:49Z</time>
      </trkpt>
      <trkpt lat="39.8909130" lon="-4.1796730">
        <ele>433.6</ele>
        <time>2019-08-13T07:50:50Z</time>
      </trkpt>
      <trkpt lat="39.8909550" lon="-4.1797140">
        <ele>433.6</ele>
        <time>2019-08-13T07:50:51Z</time>
      </trkpt>
      <trkpt lat="39.8909970" lon="-4.1797540">
        <ele>433.6</ele>
        <time>2019-08-13T07:50:52Z</time>
      </trkpt>
      <trkpt lat="39.8910410" lon="-4.1797930">
        <ele>433.6</ele>
        <time>2019-08-13T07:50:53Z</time>
      </trkpt>
      <trkpt lat="39.8910860" lon="-4.1798320">
        <ele>433.6</ele>
        <time>2019-08-13T07:50:54Z</time>
      </trkpt>
      <trkpt lat="39.8911320" lon="-4.1798700">
        <ele>433.6</ele>
        <time>2019-08-13T07:50:55Z</time>
      </trkpt>
      <trkpt lat="39.8911780" lon="-4.1799040">
        <ele>433.6</ele>
        <time>2019-08-13T07:50:56Z</time>
      </trkpt>
      <trkpt lat="39.8912270" lon="-4.1799360">
        <ele>433.6</ele>
        <time>2019-08-13T07:50:57Z</time>
      </trkpt>
      <trkpt lat="39.8912770" lon="-4.1799640">
        <ele>433.6</ele>
        <time>2019-08-13T07:50:58Z</time>
      </trkpt>
      <trkpt lat="39.8913280" lon="-4.1799870">
        <ele>433.6</ele>
        <time>2019-08-13T07:50:59Z</time>
      </trkpt>
      <trkpt lat="39.8913790" lon="-4.1800060">
        <ele>433.7</ele>
        <time>2019-08-13T07:51:00Z</time>
      </trkpt>
      <trkpt lat="39.8914300" lon="-4.1800210">
        <ele>433.7</ele>
        <time>2019-08-13T07:51:01Z</time>
      </trkpt>
      <trkpt lat="39.8914810" lon="-4.1800300">
        <ele>433.7</ele>
        <time>2019-08-13T07:51:02Z</time>
      </trkpt>
      <trkpt lat="39.8915340" lon="-4.1800380">
        <ele>433.7</ele>
        <time>2019-08-13T07:51:03Z</time>
      </trkpt>
      <trkpt lat="39.8915860" lon="-4.1800440">
        <ele>433.8</ele>
        <time>2019-08-13T07:51:04Z</time>
      </trkpt>
      <trkpt lat="39.8916390" lon="-4.1800470">
        <ele>433.8</ele>
        <time>2019-08-13T07:51:05Z</time>
      </trkpt>
      <trkpt lat="39.8916920" lon="-4.1800480">
        <ele>433.8</ele>
        <time>2019-08-13T07:51:06Z</time>
      </trkpt>
      <trkpt lat="39.8917460" lon="-4.1800480">
        <ele>433.8</ele>
        <time>2019-08-13T07:51:07Z</time>
      </trkpt>
      <trkpt lat="39.8917990" lon="-4.1800490">
        <ele>433.8</ele>
        <time>2019-08-13T07:51:08Z</time>
      </trkpt>
      <trkpt lat="39.8918520" lon="-4.1800490">
        <ele>433.9</ele>
        <time>2019-08-13T07:51:09Z</time>
      </trkpt>
      <trkpt lat="39.8919040" lon="-4.1800490">
        <ele>433.9</ele>
        <time>2019-08-13T07:51:10Z</time>
      </trkpt>
      <trkpt lat="39.8919580" lon="-4.1800500">
        <ele>433.9</ele>
        <time>2019-08-13T07:51:11Z</time>
      </trkpt>
      <trkpt lat="39.8920130" lon="-4.1800520">
        <ele>433.9</ele>
        <time>2019-08-13T07:51:12Z</time>
      </trkpt>
      <trkpt lat="39.8920670" lon="-4.1800560">
        <ele>433.9</ele>
        <time>2019-08-13T07:51:13Z</time>
      </trkpt>
      <trkpt lat="39.8921210" lon="-4.1800580">
        <ele>433.9</ele>
        <time>2019-08-13T07:51:14Z</time>
      </trkpt>
      <trkpt lat="39.8921740" lon="-4.1800620">
        <ele>433.9</ele>
        <time>2019-08-13T07:51:15Z</time>
      </trkpt>
      <trkpt lat="39.8922280" lon="-4.1800680">
        <ele>433.9</ele>
        <time>2019-08-13T07:51:16Z</time>
      </trkpt>
      <trkpt lat="39.8922830" lon="-4.1800760">
        <ele>433.9</ele>
        <time>2019-08-13T07:51:17Z</time>
      </trkpt>
      <trkpt lat="39.8923380" lon="-4.1800870">
        <ele>433.9</ele>
        <time>2019-08-13T07:51:18Z</time>
      </trkpt>
      <trkpt lat="39.8923920" lon="-4.1800990">
        <ele>433.9</ele>
        <time>2019-08-13T07:51:19Z</time>
      </trkpt>
      <trkpt lat="39.8924470" lon="-4.1801140">
        <ele>433.9</ele>
        <time>2019-08-13T07:51:20Z</time>
      </trkpt>
      <trkpt lat="39.8925010" lon="-4.1801330">
        <ele>433.9</ele>
        <time>2019-08-13T07:51:21Z</time>
      </trkpt>
      <trkpt lat="39.8925550" lon="-4.1801550">
        <ele>433.9</ele>
        <time>2019-08-13T07:51:22Z</time>
      </trkpt>
      <trkpt lat="39.8926070" lon="-4.1801800">
        <ele>433.9</ele>
        <time>2019-08-13T07:51:23Z</time>
      </trkpt>
      <trkpt lat="39.8926610" lon="-4.1802060">
        <ele>433.8</ele>
        <time>2019-08-13T07:51:24Z</time>
      </trkpt>
      <trkpt lat="39.8927130" lon="-4.1802370">
        <ele>433.8</ele>
        <time>2019-08-13T07:51:25Z</time>
      </trkpt>
      <trkpt lat="39.8927650" lon="-4.1802710">
        <ele>433.8</ele>
        <time>2019-08-13T07:51:26Z</time>
      </trkpt>
      <trkpt lat="39.8928160" lon="-4.1803070">
        <ele>433.7</ele>
        <time>2019-08-13T07:51:27Z</time>
      </trkpt>
      <trkpt lat="39.8928650" lon="-4.1803430">
        <ele>433.7</ele>
        <time>2019-08-13T07:51:28Z</time>
      </trkpt>
      <trkpt lat="39.8929140" lon="-4.1803800">
        <ele>433.7</ele>
        <time>2019-08-13T07:51:29Z</time>
      </trkpt>
      <trkpt lat="39.8929620" lon="-4.1804180">
        <ele>433.7</ele>
        <time>2019-08-13T07:51:30Z</time>
      </trkpt>
      <trkpt lat="39.8930110" lon="-4.1804560">
        <ele>433.6</ele>
        <time>2019-08-13T07:51:31Z</time>
      </trkpt>
      <trkpt lat="39.8930610" lon="-4.1804940">
        <ele>433.6</ele>
        <time>2019-08-13T07:51:32Z</time>
      </trkpt>
      <trkpt lat="39.8931100" lon="-4.1805320">
        <ele>433.6</ele>
        <time>2019-08-13T07:51:33Z</time>
      </trkpt>
      <trkpt lat="39.8931590" lon="-4.1805710">
        <ele>433.7</ele>
        <time>2019-08-13T07:51:34Z</time>
      </trkpt>
      <trkpt lat="39.8932080" lon="-4.1806100">
        <ele>433.7</ele>
        <time>2019-08-13T07:51:35Z</time>
      </trkpt>
      <trkpt lat="39.8932550" lon="-4.1806490">
        <ele>433.7</ele>
        <time>2019-08-13T07:51:36Z</time>
      </trkpt>
      <trkpt lat="39.8933040" lon="-4.1806870">
        <ele>433.7</ele>
        <time>2019-08-13T07:51:37Z</time>
      </trkpt>
      <trkpt lat="39.8933540" lon="-4.1807240">
        <ele>433.7</ele>
        <time>2019-08-13T07:51:38Z</time>
      </trkpt>
      <trkpt lat="39.8934060" lon="-4.1807600">
        <ele>433.7</ele>
        <time>2019-08-13T07:51:39Z</time>
      </trkpt>
      <trkpt lat="39.8934580" lon="-4.1807950">
        <ele>433.7</ele>
        <time>2019-08-13T07:51:40Z</time>
      </trkpt>
      <trkpt lat="39.8935090" lon="-4.1808300">
        <ele>433.7</ele>
        <time>2019-08-13T07:51:41Z</time>
      </trkpt>
      <trkpt lat="39.8935590" lon="-4.1808650">
        <ele>433.7</ele>
        <time>2019-08-13T07:51:42Z</time>
      </trkpt>
      <trkpt lat="39.8936080" lon="-4.1809000">
        <ele>433.7</ele>
        <time>2019-08-13T07:51:43Z</time>
      </trkpt>
      <trkpt lat="39.8936560" lon="-4.1809330">
        <ele>433.7</ele>
        <time>2019-08-13T07:51:44Z</time>
      </trkpt>
      <trkpt lat="39.8937040" lon="-4.1809680">
        <ele>433.8</ele>
        <time>2019-08-13T07:51:45Z</time>
      </trkpt>
      <trkpt lat="39.8937520" lon="-4.1810040">
        <ele>433.8</ele>
        <time>2019-08-13T07:51:46Z</time>
      </trkpt>
      <trkpt lat="39.8937990" lon="-4.1810420">
        <ele>433.8</ele>
        <time>2019-08-13T07:51:47Z</time>
      </trkpt>
      <trkpt lat="39.8938450" lon="-4.1810810">
        <ele>433.8</ele>
        <time>2019-08-13T07:51:48Z</time>
      </trkpt>
      <trkpt lat="39.8938910" lon="-4.1811210">
        <ele>433.8</ele>
        <time>2019-08-13T07:51:49Z</time>
      </trkpt>
      <trkpt lat="39.8939340" lon="-4.1811630">
        <ele>433.9</ele>
        <time>2019-08-13T07:51:50Z</time>
      </trkpt>
      <trkpt lat="39.8939760" lon="-4.1812070">
        <ele>433.9</ele>
        <time>2019-08-13T07:51:51Z</time>
      </trkpt>
      <trkpt lat="39.8940180" lon="-4.1812500">
        <ele>433.9</ele>
        <time>2019-08-13T07:51:52Z</time>
      </trkpt>
      <trkpt lat="39.8940600" lon="-4.1812920">
        <ele>433.9</ele>
        <time>2019-08-13T07:51:53Z</time>
      </trkpt>
      <trkpt lat="39.8941020" lon="-4.1813370">
        <ele>434.0</ele>
        <time>2019-08-13T07:51:54Z</time>
      </trkpt>
      <trkpt lat="39.8941420" lon="-4.1813840">
        <ele>434.0</ele>
        <time>2019-08-13T07:51:55Z</time>
      </trkpt>
      <trkpt lat="39.8941830" lon="-4.1814310">
        <ele>434.0</ele>
        <time>2019-08-13T07:51:56Z</time>
      </trkpt>
      <trkpt lat="39.8942240" lon="-4.1814760">
        <ele>434.0</ele>
        <time>2019-08-13T07:51:57Z</time>
      </trkpt>
      <trkpt lat="39.8942670" lon="-4.1815190">
        <ele>434.1</ele>
        <time>2019-08-13T07:51:58Z</time>
      </trkpt>
      <trkpt lat="39.8943110" lon="-4.1815590">
        <ele>434.1</ele>
        <time>2019-08-13T07:51:59Z</time>
      </trkpt>
      <trkpt lat="39.8943560" lon="-4.1815970">
        <ele>434.1</ele>
        <time>2019-08-13T07:52:00Z</time>
      </trkpt>
      <trkpt lat="39.8944010" lon="-4.1816320">
        <ele>434.1</ele>
        <time>2019-08-13T07:52:01Z</time>
      </trkpt>
      <trkpt lat="39.8944460" lon="-4.1816650">
        <ele>434.1</ele>
        <time>2019-08-13T07:52:02Z</time>
      </trkpt>
      <trkpt lat="39.8944910" lon="-4.1816980">
        <ele>434.1</ele>
        <time>2019-08-13T07:52:03Z</time>
      </trkpt>
      <trkpt lat="39.8945370" lon="-4.1817300">
        <ele>434.1</ele>
        <time>2019-08-13T07:52:04Z</time>
      </trkpt>
      <trkpt lat="39.8945840" lon="-4.1817610">
        <ele>434.1</ele>
        <time>2019-08-13T07:52:05Z</time>
      </trkpt>
      <trkpt lat="39.8946310" lon="-4.1817900">
        <ele>434.1</ele>
        <time>2019-08-13T07:52:06Z</time>
      </trkpt>
      <trkpt lat="39.8946780" lon="-4.1818180">
        <ele>434.1</ele>
        <time>2019-08-13T07:52:07Z</time>
      </trkpt>
      <trkpt lat="39.8947270" lon="-4.1818470">
        <ele>434.2</ele>
        <time>2019-08-13T07:52:08Z</time>
      </trkpt>
      <trkpt lat="39.8947740" lon="-4.1818790">
        <ele>434.2</ele>
        <time>2019-08-13T07:52:09Z</time>
      </trkpt>
      <trkpt lat="39.8948230" lon="-4.1819090">
        <ele>434.2</ele>
        <time>2019-08-13T07:52:10Z</time>
      </trkpt>
      <trkpt lat="39.8948710" lon="-4.1819370">
        <ele>434.3</ele>
        <time>2019-08-13T07:52:11Z</time>
      </trkpt>
      <trkpt lat="39.8949160" lon="-4.1819660">
        <ele>434.3</ele>
        <time>2019-08-13T07:52:12Z</time>
      </trkpt>
      <trkpt lat="39.8949560" lon="-4.1819940">
        <ele>434.3</ele>
        <time>2019-08-13T07:52:13Z</time>
      </trkpt>
      <trkpt lat="39.8949940" lon="-4.1820230">
        <ele>434.4</ele>
        <time>2019-08-13T07:52:14Z</time>
      </trkpt>
      <trkpt lat="39.8950300" lon="-4.1820530">
        <ele>434.4</ele>
        <time>2019-08-13T07:52:15Z</time>
      </trkpt>
      <trkpt lat="39.8950630" lon="-4.1820850">
        <ele>434.4</ele>
        <time>2019-08-13T07:52:16Z</time>
      </trkpt>
      <trkpt lat="39.8950950" lon="-4.1821200">
        <ele>434.4</ele>
        <time>2019-08-13T07:52:17Z</time>
      </trkpt>
      <trkpt lat="39.8951260" lon="-4.1821600">
        <ele>434.5</ele>
        <time>2019-08-13T07:52:18Z</time>
      </trkpt>
      <trkpt lat="39.8951560" lon="-4.1822020">
        <ele>434.5</ele>
        <time>2019-08-13T07:52:19Z</time>
      </trkpt>
      <trkpt lat="39.8951860" lon="-4.1822470">
        <ele>434.5</ele>
        <time>2019-08-13T07:52:20Z</time>
      </trkpt>
      <trkpt lat="39.8952160" lon="-4.1822910">
        <ele>434.4</ele>
        <time>2019-08-13T07:52:21Z</time>
      </trkpt>
      <trkpt lat="39.8952460" lon="-4.1823380">
        <ele>434.4</ele>
        <time>2019-08-13T07:52:22Z</time>
      </trkpt>
      <trkpt lat="39.8952750" lon="-4.1823870">
        <ele>434.4</ele>
        <time>2019-08-13T07:52:23Z</time>
      </trkpt>
      <trkpt lat="39.8953040" lon="-4.1824380">
        <ele>434.4</ele>
        <time>2019-08-13T07:52:24Z</time>
      </trkpt>
      <trkpt lat="39.8953350" lon="-4.1824890">
        <ele>434.4</ele>
        <time>2019-08-13T07:52:25Z</time>
      </trkpt>
      <trkpt lat="39.8953660" lon="-4.1825380">
        <ele>434.4</ele>
        <time>2019-08-13T07:52:26Z</time>
      </trkpt>
      <trkpt lat="39.8953980" lon="-4.1825880">
        <ele>434.3</ele>
        <time>2019-08-13T07:52:27Z</time>
      </trkpt>
      <trkpt lat="39.8954310" lon="-4.1826360">
        <ele>434.3</ele>
        <time>2019-08-13T07:52:28Z</time>
      </trkpt>
      <trkpt lat="39.8954650" lon="-4.1826860">
        <ele>434.3</ele>
        <time>2019-08-13T07:52:29Z</time>
      </trkpt>
      <trkpt lat="39.8955010" lon="-4.1827360">
        <ele>434.3</ele>
        <time>2019-08-13T07:52:30Z</time>
      </trkpt>
      <trkpt lat="39.8955360" lon="-4.1827840">
        <ele>434.3</ele>
        <time>2019-08-13T07:52:31Z</time>
      </trkpt>
      <trkpt lat="39.8955710" lon="-4.1828330">
        <ele>434.3</ele>
        <time>2019-08-13T07:52:32Z</time>
      </trkpt>
      <trkpt lat="39.8956070" lon="-4.1828820">
        <ele>434.3</ele>
        <time>2019-08-13T07:52:33Z</time>
      </trkpt>
      <trkpt lat="39.8956460" lon="-4.1829280">
        <ele>434.4</ele>
        <time>2019-08-13T07:52:34Z</time>
      </trkpt>
      <trkpt lat="39.8956860" lon="-4.1829730">
        <ele>434.4</ele>
        <time>2019-08-13T07:52:35Z</time>
      </trkpt>
      <trkpt lat="39.8957280" lon="-4.1830140">
        <ele>434.4</ele>
        <time>2019-08-13T07:52:36Z</time>
      </trkpt>
      <trkpt lat="39.8957710" lon="-4.1830490">
        <ele>434.4</ele>
        <time>2019-08-13T07:52:37Z</time>
      </trkpt>
      <trkpt lat="39.8958170" lon="-4.1830790">
        <ele>434.4</ele>
        <time>2019-08-13T07:52:38Z</time>
      </trkpt>
      <trkpt lat="39.8958660" lon="-4.1831040">
        <ele>434.4</ele>
        <time>2019-08-13T07:52:39Z</time>
      </trkpt>
      <trkpt lat="39.8959140" lon="-4.1831250">
        <ele>434.5</ele>
        <time>2019-08-13T07:52:40Z</time>
      </trkpt>
      <trkpt lat="39.8959640" lon="-4.1831390">
        <ele>434.5</ele>
        <time>2019-08-13T07:52:41Z</time>
      </trkpt>
      <trkpt lat="39.8960120" lon="-4.1831510">
        <ele>434.5</ele>
        <time>2019-08-13T07:52:42Z</time>
      </trkpt>
      <trkpt lat="39.8960600" lon="-4.1831610">
        <ele>434.5</ele>
        <time>2019-08-13T07:52:43Z</time>
      </trkpt>
      <trkpt lat="39.8961090" lon="-4.1831700">
        <ele>434.5</ele>
        <time>2019-08-13T07:52:44Z</time>
      </trkpt>
      <trkpt lat="39.8961580" lon="-4.1831820">
        <ele>434.5</ele>
        <time>2019-08-13T07:52:45Z</time>
      </trkpt>
      <trkpt lat="39.8962080" lon="-4.1831910">
        <ele>434.6</ele>
        <time>2019-08-13T07:52:46Z</time>
      </trkpt>
      <trkpt lat="39.8962590" lon="-4.1832000">
        <ele>434.6</ele>
        <time>2019-08-13T07:52:47Z</time>
      </trkpt>
      <trkpt lat="39.8963110" lon="-4.1832090">
        <ele>434.6</ele>
        <time>2019-08-13T07:52:48Z</time>
      </trkpt>
      <trkpt lat="39.8963620" lon="-4.1832170">
        <ele>434.6</ele>
        <time>2019-08-13T07:52:49Z</time>
      </trkpt>
      <trkpt lat="39.8964120" lon="-4.1832250">
        <ele>434.6</ele>
        <time>2019-08-13T07:52:50Z</time>
      </trkpt>
      <trkpt lat="39.8964640" lon="-4.1832340">
        <ele>434.6</ele>
        <time>2019-08-13T07:52:51Z</time>
      </trkpt>
      <trkpt lat="39.8965140" lon="-4.1832430">
        <ele>434.7</ele>
        <time>2019-08-13T07:52:52Z</time>
      </trkpt>
      <trkpt lat="39.8965630" lon="-4.1832510">
        <ele>434.7</ele>
        <time>2019-08-13T07:52:53Z</time>
      </trkpt>
      <trkpt lat="39.8966120" lon="-4.1832580">
        <ele>434.8</ele>
        <time>2019-08-13T07:52:54Z</time>
      </trkpt>
      <trkpt lat="39.8966610" lon="-4.1832660">
        <ele>434.8</ele>
        <time>2019-08-13T07:52:55Z</time>
      </trkpt>
      <trkpt lat="39.8967080" lon="-4.1832760">
        <ele>434.9</ele>
        <time>2019-08-13T07:52:56Z</time>
      </trkpt>
      <trkpt lat="39.8967560" lon="-4.1832820">
        <ele>434.9</ele>
        <time>2019-08-13T07:52:57Z</time>
      </trkpt>
      <trkpt lat="39.8968020" lon="-4.1832880">
        <ele>434.9</ele>
        <time>2019-08-13T07:52:58Z</time>
      </trkpt>
      <trkpt lat="39.8968480" lon="-4.1832930">
        <ele>435.0</ele>
        <time>2019-08-13T07:52:59Z</time>
      </trkpt>
      <trkpt lat="39.8968950" lon="-4.1833000">
        <ele>435.0</ele>
        <time>2019-08-13T07:53:00Z</time>
      </trkpt>
      <trkpt lat="39.8969420" lon="-4.1833060">
        <ele>435.0</ele>
        <time>2019-08-13T07:53:01Z</time>
      </trkpt>
      <trkpt lat="39.8969880" lon="-4.1833150">
        <ele>435.1</ele>
        <time>2019-08-13T07:53:02Z</time>
      </trkpt>
      <trkpt lat="39.8970330" lon="-4.1833220">
        <ele>435.1</ele>
        <time>2019-08-13T07:53:03Z</time>
      </trkpt>
      <trkpt lat="39.8970770" lon="-4.1833300">
        <ele>435.1</ele>
        <time>2019-08-13T07:53:04Z</time>
      </trkpt>
      <trkpt lat="39.8971170" lon="-4.1833360">
        <ele>435.1</ele>
        <time>2019-08-13T07:53:05Z</time>
      </trkpt>
      <trkpt lat="39.8971520" lon="-4.1833440">
        <ele>435.2</ele>
        <time>2019-08-13T07:53:06Z</time>
      </trkpt>
      <trkpt lat="39.8971840" lon="-4.1833490">
        <ele>435.2</ele>
        <time>2019-08-13T07:53:07Z</time>
      </trkpt>
      <trkpt lat="39.8972110" lon="-4.1833530">
        <ele>435.2</ele>
        <time>2019-08-13T07:53:08Z</time>
      </trkpt>
      <trkpt lat="39.8972570" lon="-4.1833550">
        <ele>435.3</ele>
        <time>2019-08-13T07:53:10Z</time>
      </trkpt>
      <trkpt lat="39.8973090" lon="-4.1833570">
        <ele>435.3</ele>
        <time>2019-08-13T07:53:12Z</time>
      </trkpt>
      <trkpt lat="39.8973370" lon="-4.1833580">
        <ele>435.4</ele>
        <time>2019-08-13T07:53:13Z</time>
      </trkpt>
      <trkpt lat="39.8973660" lon="-4.1833630">
        <ele>435.4</ele>
        <time>2019-08-13T07:53:14Z</time>
      </trkpt>
      <trkpt lat="39.8973990" lon="-4.1833670">
        <ele>435.5</ele>
        <time>2019-08-13T07:53:15Z</time>
      </trkpt>
      <trkpt lat="39.8974390" lon="-4.1833710">
        <ele>435.6</ele>
        <time>2019-08-13T07:53:16Z</time>
      </trkpt>
      <trkpt lat="39.8974860" lon="-4.1833740">
        <ele>435.7</ele>
        <time>2019-08-13T07:53:17Z</time>
      </trkpt>
      <trkpt lat="39.8975330" lon="-4.1833710">
        <ele>435.8</ele>
        <time>2019-08-13T07:53:18Z</time>
      </trkpt>
      <trkpt lat="39.8975790" lon="-4.1833630">
        <ele>435.9</ele>
        <time>2019-08-13T07:53:19Z</time>
      </trkpt>
      <trkpt lat="39.8976260" lon="-4.1833580">
        <ele>436.0</ele>
        <time>2019-08-13T07:53:20Z</time>
      </trkpt>
      <trkpt lat="39.8976680" lon="-4.1833550">
        <ele>436.0</ele>
        <time>2019-08-13T07:53:21Z</time>
      </trkpt>
      <trkpt lat="39.8977090" lon="-4.1833490">
        <ele>436.1</ele>
        <time>2019-08-13T07:53:22Z</time>
      </trkpt>
      <trkpt lat="39.8977480" lon="-4.1833390">
        <ele>436.1</ele>
        <time>2019-08-13T07:53:23Z</time>
      </trkpt>
      <trkpt lat="39.8977840" lon="-4.1833330">
        <ele>436.1</ele>
        <time>2019-08-13T07:53:24Z</time>
      </trkpt>
      <trkpt lat="39.8978160" lon="-4.1833280">
        <ele>436.1</ele>
        <time>2019-08-13T07:53:25Z</time>
      </trkpt>
      <trkpt lat="39.8978520" lon="-4.1833250">
        <ele>436.1</ele>
        <time>2019-08-13T07:53:26Z</time>
      </trkpt>
      <trkpt lat="39.8978920" lon="-4.1833260">
        <ele>436.1</ele>
        <time>2019-08-13T07:53:27Z</time>
      </trkpt>
      <trkpt lat="39.8979280" lon="-4.1833300">
        <ele>436.0</ele>
        <time>2019-08-13T07:53:28Z</time>
      </trkpt>
      <trkpt lat="39.8979700" lon="-4.1833370">
        <ele>436.0</ele>
        <time>2019-08-13T07:53:29Z</time>
      </trkpt>
      <trkpt lat="39.8980110" lon="-4.1833500">
        <ele>436.0</ele>
        <time>2019-08-13T07:53:30Z</time>
      </trkpt>
      <trkpt lat="39.8980560" lon="-4.1833640">
        <ele>435.9</ele>
        <time>2019-08-13T07:53:31Z</time>
      </trkpt>
      <trkpt lat="39.8980980" lon="-4.1833830">
        <ele>435.9</ele>
        <time>2019-08-13T07:53:32Z</time>
      </trkpt>
      <trkpt lat="39.8981370" lon="-4.1834070">
        <ele>435.9</ele>
        <time>2019-08-13T07:53:33Z</time>
      </trkpt>
      <trkpt lat="39.8981750" lon="-4.1834350">
        <ele>435.9</ele>
        <time>2019-08-13T07:53:34Z</time>
      </trkpt>
      <trkpt lat="39.8982090" lon="-4.1834670">
        <ele>435.8</ele>
        <time>2019-08-13T07:53:35Z</time>
      </trkpt>
      <trkpt lat="39.8982400" lon="-4.1834990">
        <ele>435.8</ele>
        <time>2019-08-13T07:53:36Z</time>
      </trkpt>
      <trkpt lat="39.8982640" lon="-4.1835310">
        <ele>435.8</ele>
        <time>2019-08-13T07:53:37Z</time>
      </trkpt>
      <trkpt lat="39.8982850" lon="-4.1835680">
        <ele>435.7</ele>
        <time>2019-08-13T07:53:38Z</time>
      </trkpt>
      <trkpt lat="39.8983050" lon="-4.1836070">
        <ele>435.7</ele>
        <time>2019-08-13T07:53:39Z</time>
      </trkpt>
      <trkpt lat="39.8983230" lon="-4.1836460">
        <ele>435.7</ele>
        <time>2019-08-13T07:53:40Z</time>
      </trkpt>
      <trkpt lat="39.8983380" lon="-4.1836840">
        <ele>435.6</ele>
        <time>2019-08-13T07:53:41Z</time>
      </trkpt>
      <trkpt lat="39.8983490" lon="-4.1837220">
        <ele>435.6</ele>
        <time>2019-08-13T07:53:42Z</time>
      </trkpt>
      <trkpt lat="39.8983540" lon="-4.1837640">
        <ele>435.5</ele>
        <time>2019-08-13T07:53:43Z</time>
      </trkpt>
      <trkpt lat="39.8983550" lon="-4.1838110">
        <ele>435.5</ele>
        <time>2019-08-13T07:53:44Z</time>
      </trkpt>
      <trkpt lat="39.8983560" lon="-4.1838530">
        <ele>435.4</ele>
        <time>2019-08-13T07:53:45Z</time>
      </trkpt>
      <trkpt lat="39.8983580" lon="-4.1838940">
        <ele>435.4</ele>
        <time>2019-08-13T07:53:46Z</time>
      </trkpt>
      <trkpt lat="39.8983580" lon="-4.1839330">
        <ele>435.3</ele>
        <time>2019-08-13T07:53:47Z</time>
      </trkpt>
      <trkpt lat="39.8983510" lon="-4.1839890">
        <ele>435.3</ele>
        <time>2019-08-13T07:53:49Z</time>
      </trkpt>
      <trkpt lat="39.8983570" lon="-4.1841090">
        <ele>435.2</ele>
        <time>2019-08-13T07:54:05Z</time>
      </trkpt>
      <trkpt lat="39.8983550" lon="-4.1841530">
        <ele>435.1</ele>
        <time>2019-08-13T07:54:06Z</time>
      </trkpt>
      <trkpt lat="39.8983480" lon="-4.1841990">
        <ele>435.1</ele>
        <time>2019-08-13T07:54:07Z</time>
      </trkpt>
      <trkpt lat="39.8983360" lon="-4.1842530">
        <ele>435.1</ele>
        <time>2019-08-13T07:54:08Z</time>
      </trkpt>
      <trkpt lat="39.8983240" lon="-4.1843070">
        <ele>435.1</ele>
        <time>2019-08-13T07:54:09Z</time>
      </trkpt>
      <trkpt lat="39.8983090" lon="-4.1843660">
        <ele>435.2</ele>
        <time>2019-08-13T07:54:10Z</time>
      </trkpt>
      <trkpt lat="39.8982960" lon="-4.1844260">
        <ele>435.2</ele>
        <time>2019-08-13T07:54:11Z</time>
      </trkpt>
      <trkpt lat="39.8982820" lon="-4.1844850">
        <ele>435.3</ele>
        <time>2019-08-13T07:54:12Z</time>
      </trkpt>
      <trkpt lat="39.8982660" lon="-4.1845450">
        <ele>435.4</ele>
        <time>2019-08-13T07:54:13Z</time>
      </trkpt>
      <trkpt lat="39.8982520" lon="-4.1846040">
        <ele>435.4</ele>
        <time>2019-08-13T07:54:14Z</time>
      </trkpt>
      <trkpt lat="39.8982370" lon="-4.1846620">
        <ele>435.5</ele>
        <time>2019-08-13T07:54:15Z</time>
      </trkpt>
      <trkpt lat="39.8982240" lon="-4.1847240">
        <ele>435.6</ele>
        <time>2019-08-13T07:54:16Z</time>
      </trkpt>
      <trkpt lat="39.8982110" lon="-4.1847840">
        <ele>435.6</ele>
        <time>2019-08-13T07:54:17Z</time>
      </trkpt>
      <trkpt lat="39.8982010" lon="-4.1848460">
        <ele>435.7</ele>
        <time>2019-08-13T07:54:18Z</time>
      </trkpt>
      <trkpt lat="39.8981930" lon="-4.1849090">
        <ele>435.8</ele>
        <time>2019-08-13T07:54:19Z</time>
      </trkpt>
      <trkpt lat="39.8981880" lon="-4.1849720">
        <ele>435.9</ele>
        <time>2019-08-13T07:54:20Z</time>
      </trkpt>
      <trkpt lat="39.8981830" lon="-4.1850340">
        <ele>436.0</ele>
        <time>2019-08-13T07:54:21Z</time>
      </trkpt>
      <trkpt lat="39.8981790" lon="-4.1850930">
        <ele>436.1</ele>
        <time>2019-08-13T07:54:22Z</time>
      </trkpt>
      <trkpt lat="39.8981760" lon="-4.1851490">
        <ele>436.1</ele>
        <time>2019-08-13T07:54:23Z</time>
      </trkpt>
      <trkpt lat="39.8981770" lon="-4.1851970">
        <ele>436.2</ele>
        <time>2019-08-13T07:54:24Z</time>
      </trkpt>
      <trkpt lat="39.8981830" lon="-4.1852430">
        <ele>436.3</ele>
        <time>2019-08-13T07:54:25Z</time>
      </trkpt>
      <trkpt lat="39.8981910" lon="-4.1852880">
        <ele>436.3</ele>
        <time>2019-08-13T07:54:26Z</time>
      </trkpt>
      <trkpt lat="39.8982000" lon="-4.1853320">
        <ele>436.4</ele>
        <time>2019-08-13T07:54:27Z</time>
      </trkpt>
      <trkpt lat="39.8982100" lon="-4.1853770">
        <ele>436.4</ele>
        <time>2019-08-13T07:54:28Z</time>
      </trkpt>
      <trkpt lat="39.8982230" lon="-4.1854220">
        <ele>436.5</ele>
        <time>2019-08-13T07:54:29Z</time>
      </trkpt>
      <trkpt lat="39.8982370" lon="-4.1854680">
        <ele>436.5</ele>
        <time>2019-08-13T07:54:30Z</time>
      </trkpt>
      <trkpt lat="39.8982510" lon="-4.1855150">
        <ele>436.6</ele>
        <time>2019-08-13T07:54:31Z</time>
      </trkpt>
      <trkpt lat="39.8982650" lon="-4.1855610">
        <ele>436.7</ele>
        <time>2019-08-13T07:54:32Z</time>
      </trkpt>
      <trkpt lat="39.8982780" lon="-4.1856080">
        <ele>436.8</ele>
        <time>2019-08-13T07:54:33Z</time>
      </trkpt>
      <trkpt lat="39.8982930" lon="-4.1856570">
        <ele>436.9</ele>
        <time>2019-08-13T07:54:34Z</time>
      </trkpt>
      <trkpt lat="39.8983080" lon="-4.1857050">
        <ele>437.0</ele>
        <time>2019-08-13T07:54:35Z</time>
      </trkpt>
      <trkpt lat="39.8983230" lon="-4.1857530">
        <ele>437.1</ele>
        <time>2019-08-13T07:54:36Z</time>
      </trkpt>
      <trkpt lat="39.8983380" lon="-4.1858000">
        <ele>437.2</ele>
        <time>2019-08-13T07:54:37Z</time>
      </trkpt>
      <trkpt lat="39.8983530" lon="-4.1858480">
        <ele>437.3</ele>
        <time>2019-08-13T07:54:38Z</time>
      </trkpt>
      <trkpt lat="39.8983670" lon="-4.1858950">
        <ele>437.4</ele>
        <time>2019-08-13T07:54:39Z</time>
      </trkpt>
      <trkpt lat="39.8983820" lon="-4.1859420">
        <ele>437.5</ele>
        <time>2019-08-13T07:54:40Z</time>
      </trkpt>
      <trkpt lat="39.8983970" lon="-4.1859890">
        <ele>437.6</ele>
        <time>2019-08-13T07:54:41Z</time>
      </trkpt>
      <trkpt lat="39.8984110" lon="-4.1860350">
        <ele>437.7</ele>
        <time>2019-08-13T07:54:42Z</time>
      </trkpt>
      <trkpt lat="39.8984260" lon="-4.1860800">
        <ele>437.8</ele>
        <time>2019-08-13T07:54:43Z</time>
      </trkpt>
      <trkpt lat="39.8984410" lon="-4.1861230">
        <ele>438.0</ele>
        <time>2019-08-13T07:54:44Z</time>
      </trkpt>
      <trkpt lat="39.8984550" lon="-4.1861660">
        <ele>438.1</ele>
        <time>2019-08-13T07:54:45Z</time>
      </trkpt>
      <trkpt lat="39.8984720" lon="-4.1862060">
        <ele>438.2</ele>
        <time>2019-08-13T07:54:46Z</time>
      </trkpt>
      <trkpt lat="39.8984880" lon="-4.1862470">
        <ele>438.3</ele>
        <time>2019-08-13T07:54:47Z</time>
      </trkpt>
      <trkpt lat="39.8985030" lon="-4.1862890">
        <ele>438.5</ele>
        <time>2019-08-13T07:54:48Z</time>
      </trkpt>
      <trkpt lat="39.8985180" lon="-4.1863300">
        <ele>438.6</ele>
        <time>2019-08-13T07:54:49Z</time>
      </trkpt>
      <trkpt lat="39.8985330" lon="-4.1863700">
        <ele>438.8</ele>
        <time>2019-08-13T07:54:50Z</time>
      </trkpt>
      <trkpt lat="39.8985480" lon="-4.1864110">
        <ele>439.0</ele>
        <time>2019-08-13T07:54:51Z</time>
      </trkpt>
      <trkpt lat="39.8985610" lon="-4.1864520">
        <ele>439.1</ele>
        <time>2019-08-13T07:54:52Z</time>
      </trkpt>
      <trkpt lat="39.8985720" lon="-4.1864940">
        <ele>439.2</ele>
        <time>2019-08-13T07:54:53Z</time>
      </trkpt>
      <trkpt lat="39.8985810" lon="-4.1865360">
        <ele>439.3</ele>
        <time>2019-08-13T07:54:54Z</time>
      </trkpt>
      <trkpt lat="39.8985860" lon="-4.1865810">
        <ele>439.4</ele>
        <time>2019-08-13T07:54:55Z</time>
      </trkpt>
      <trkpt lat="39.8985880" lon="-4.1866260">
        <ele>439.6</ele>
        <time>2019-08-13T07:54:56Z</time>
      </trkpt>
      <trkpt lat="39.8985860" lon="-4.1866710">
        <ele>439.7</ele>
        <time>2019-08-13T07:54:57Z</time>
      </trkpt>
      <trkpt lat="39.8985820" lon="-4.1867160">
        <ele>439.8</ele>
        <time>2019-08-13T07:54:58Z</time>
      </trkpt>
      <trkpt lat="39.8985740" lon="-4.1867610">
        <ele>439.9</ele>
        <time>2019-08-13T07:54:59Z</time>
      </trkpt>
      <trkpt lat="39.8985620" lon="-4.1868040">
        <ele>440.0</ele>
        <time>2019-08-13T07:55:00Z</time>
      </trkpt>
      <trkpt lat="39.8985500" lon="-4.1868480">
        <ele>440.1</ele>
        <time>2019-08-13T07:55:01Z</time>
      </trkpt>
      <trkpt lat="39.8985380" lon="-4.1868910">
        <ele>440.3</ele>
        <time>2019-08-13T07:55:02Z</time>
      </trkpt>
      <trkpt lat="39.8985260" lon="-4.1869330">
        <ele>440.5</ele>
        <time>2019-08-13T07:55:03Z</time>
      </trkpt>
      <trkpt lat="39.8985140" lon="-4.1869750">
        <ele>440.6</ele>
        <time>2019-08-13T07:55:04Z</time>
      </trkpt>
      <trkpt lat="39.8985030" lon="-4.1870170">
        <ele>440.7</ele>
        <time>2019-08-13T07:55:05Z</time>
      </trkpt>
      <trkpt lat="39.8984920" lon="-4.1870580">
        <ele>440.8</ele>
        <time>2019-08-13T07:55:06Z</time>
      </trkpt>
      <trkpt lat="39.8984810" lon="-4.1871000">
        <ele>440.9</ele>
        <time>2019-08-13T07:55:07Z</time>
      </trkpt>
      <trkpt lat="39.8984690" lon="-4.1871410">
        <ele>441.0</ele>
        <time>2019-08-13T07:55:08Z</time>
      </trkpt>
      <trkpt lat="39.8984570" lon="-4.1871830">
        <ele>441.2</ele>
        <time>2019-08-13T07:55:09Z</time>
      </trkpt>
      <trkpt lat="39.8984450" lon="-4.1872240">
        <ele>441.3</ele>
        <time>2019-08-13T07:55:10Z</time>
      </trkpt>
      <trkpt lat="39.8984340" lon="-4.1872640">
        <ele>441.5</ele>
        <time>2019-08-13T07:55:11Z</time>
      </trkpt>
      <trkpt lat="39.8984240" lon="-4.1873030">
        <ele>441.8</ele>
        <time>2019-08-13T07:55:12Z</time>
      </trkpt>
      <trkpt lat="39.8984150" lon="-4.1873390">
        <ele>441.9</ele>
        <time>2019-08-13T07:55:13Z</time>
      </trkpt>
      <trkpt lat="39.8984060" lon="-4.1873720">
        <ele>442.1</ele>
        <time>2019-08-13T07:55:14Z</time>
      </trkpt>
      <trkpt lat="39.8983880" lon="-4.1874270">
        <ele>442.3</ele>
        <time>2019-08-13T07:55:16Z</time>
      </trkpt>
      <trkpt lat="39.8983760" lon="-4.1874780">
        <ele>442.5</ele>
        <time>2019-08-13T07:55:18Z</time>
      </trkpt>
      <trkpt lat="39.8983810" lon="-4.1875280">
        <ele>442.7</ele>
        <time>2019-08-13T07:55:20Z</time>
      </trkpt>
      <trkpt lat="39.8984000" lon="-4.1875750">
        <ele>442.9</ele>
        <time>2019-08-13T07:55:22Z</time>
      </trkpt>
      <trkpt lat="39.8984090" lon="-4.1876040">
        <ele>443.0</ele>
        <time>2019-08-13T07:55:29Z</time>
      </trkpt>
      <trkpt lat="39.8984050" lon="-4.1876670">
        <ele>443.3</ele>
        <time>2019-08-13T07:55:46Z</time>
      </trkpt>
      <trkpt lat="39.8984020" lon="-4.1877140">
        <ele>443.5</ele>
        <time>2019-08-13T07:55:48Z</time>
      </trkpt>
      <trkpt lat="39.8984070" lon="-4.1877630">
        <ele>443.7</ele>
        <time>2019-08-13T07:55:50Z</time>
      </trkpt>
      <trkpt lat="39.8984150" lon="-4.1878220">
        <ele>443.9</ele>
        <time>2019-08-13T07:55:52Z</time>
      </trkpt>
      <trkpt lat="39.8984230" lon="-4.1878870">
        <ele>444.3</ele>
        <time>2019-08-13T07:55:54Z</time>
      </trkpt>
      <trkpt lat="39.8984310" lon="-4.1879530">
        <ele>444.8</ele>
        <time>2019-08-13T07:55:56Z</time>
      </trkpt>
      <trkpt lat="39.8984360" lon="-4.1879890">
        <ele>445.0</ele>
        <time>2019-08-13T07:55:57Z</time>
      </trkpt>
      <trkpt lat="39.8984400" lon="-4.1880240">
        <ele>445.2</ele>
        <time>2019-08-13T07:55:58Z</time>
      </trkpt>
      <trkpt lat="39.8984420" lon="-4.1880600">
        <ele>445.3</ele>
        <time>2019-08-13T07:55:59Z</time>
      </trkpt>
      <trkpt lat="39.8984440" lon="-4.1880970">
        <ele>445.5</ele>
        <time>2019-08-13T07:56:00Z</time>
      </trkpt>
      <trkpt lat="39.8984450" lon="-4.1881370">
        <ele>445.6</ele>
        <time>2019-08-13T07:56:01Z</time>
      </trkpt>
      <trkpt lat="39.8984440" lon="-4.1881770">
        <ele>445.8</ele>
        <time>2019-08-13T07:56:02Z</time>
      </trkpt>
      <trkpt lat="39.8984420" lon="-4.1882180">
        <ele>446.0</ele>
        <time>2019-08-13T07:56:03Z</time>
      </trkpt>
      <trkpt lat="39.8984400" lon="-4.1882600">
        <ele>446.2</ele>
        <time>2019-08-13T07:56:04Z</time>
      </trkpt>
      <trkpt lat="39.8984380" lon="-4.1883000">
        <ele>446.5</ele>
        <time>2019-08-13T07:56:05Z</time>
      </trkpt>
      <trkpt lat="39.8984330" lon="-4.1883390">
        <ele>446.7</ele>
        <time>2019-08-13T07:56:06Z</time>
      </trkpt>
      <trkpt lat="39.8984280" lon="-4.1883790">
        <ele>446.9</ele>
        <time>2019-08-13T07:56:07Z</time>
      </trkpt>
      <trkpt lat="39.8984240" lon="-4.1884190">
        <ele>447.1</ele>
        <time>2019-08-13T07:56:08Z</time>
      </trkpt>
      <trkpt lat="39.8984200" lon="-4.1884570">
        <ele>447.2</ele>
        <time>2019-08-13T07:56:09Z</time>
      </trkpt>
      <trkpt lat="39.8984170" lon="-4.1884940">
        <ele>447.4</ele>
        <time>2019-08-13T07:56:10Z</time>
      </trkpt>
      <trkpt lat="39.8984150" lon="-4.1885310">
        <ele>447.5</ele>
        <time>2019-08-13T07:56:11Z</time>
      </trkpt>
      <trkpt lat="39.8984140" lon="-4.1885690">
        <ele>447.7</ele>
        <time>2019-08-13T07:56:12Z</time>
      </trkpt>
      <trkpt lat="39.8984150" lon="-4.1886090">
        <ele>447.8</ele>
        <time>2019-08-13T07:56:13Z</time>
      </trkpt>
      <trkpt lat="39.8984180" lon="-4.1886490">
        <ele>448.0</ele>
        <time>2019-08-13T07:56:14Z</time>
      </trkpt>
      <trkpt lat="39.8984220" lon="-4.1886880">
        <ele>448.2</ele>
        <time>2019-08-13T07:56:15Z</time>
      </trkpt>
      <trkpt lat="39.8984280" lon="-4.1887260">
        <ele>448.3</ele>
        <time>2019-08-13T07:56:16Z</time>
      </trkpt>
      <trkpt lat="39.8984360" lon="-4.1887620">
        <ele>448.5</ele>
        <time>2019-08-13T07:56:17Z</time>
      </trkpt>
      <trkpt lat="39.8984450" lon="-4.1887950">
        <ele>448.6</ele>
        <time>2019-08-13T07:56:18Z</time>
      </trkpt>
      <trkpt lat="39.8984670" lon="-4.1888470">
        <ele>448.9</ele>
        <time>2019-08-13T07:56:20Z</time>
      </trkpt>
      <trkpt lat="39.8985000" lon="-4.1888750">
        <ele>449.1</ele>
        <time>2019-08-13T07:56:22Z</time>
      </trkpt>
      <trkpt lat="39.8985380" lon="-4.1888800">
        <ele>449.4</ele>
        <time>2019-08-13T07:56:24Z</time>
      </trkpt>
      <trkpt lat="39.8985790" lon="-4.1888680">
        <ele>449.3</ele>
        <time>2019-08-13T07:56:26Z</time>
      </trkpt>
      <trkpt lat="39.8986270" lon="-4.1888440">
        <ele>449.2</ele>
        <time>2019-08-13T07:56:28Z</time>
      </trkpt>
      <trkpt lat="39.8986530" lon="-4.1888260">
        <ele>449.1</ele>
        <time>2019-08-13T07:56:29Z</time>
      </trkpt>
      <trkpt lat="39.8986800" lon="-4.1888050">
        <ele>449.1</ele>
        <time>2019-08-13T07:56:30Z</time>
      </trkpt>
      <trkpt lat="39.8987090" lon="-4.1887830">
        <ele>449.0</ele>
        <time>2019-08-13T07:56:31Z</time>
      </trkpt>
      <trkpt lat="39.8987410" lon="-4.1887620">
        <ele>448.9</ele>
        <time>2019-08-13T07:56:32Z</time>
      </trkpt>
      <trkpt lat="39.8987760" lon="-4.1887400">
        <ele>448.9</ele>
        <time>2019-08-13T07:56:33Z</time>
      </trkpt>
      <trkpt lat="39.8988130" lon="-4.1887190">
        <ele>448.8</ele>
        <time>2019-08-13T07:56:34Z</time>
      </trkpt>
      <trkpt lat="39.8988520" lon="-4.1886950">
        <ele>448.7</ele>
        <time>2019-08-13T07:56:35Z</time>
      </trkpt>
      <trkpt lat="39.8988910" lon="-4.1886700">
        <ele>448.7</ele>
        <time>2019-08-13T07:56:36Z</time>
      </trkpt>
      <trkpt lat="39.8989310" lon="-4.1886460">
        <ele>448.6</ele>
        <time>2019-08-13T07:56:37Z</time>
      </trkpt>
      <trkpt lat="39.8989720" lon="-4.1886210">
        <ele>448.5</ele>
        <time>2019-08-13T07:56:38Z</time>
      </trkpt>
      <trkpt lat="39.8990130" lon="-4.1885980">
        <ele>448.5</ele>
        <time>2019-08-13T07:56:39Z</time>
      </trkpt>
      <trkpt lat="39.8990540" lon="-4.1885750">
        <ele>448.4</ele>
        <time>2019-08-13T07:56:40Z</time>
      </trkpt>
      <trkpt lat="39.8990950" lon="-4.1885530">
        <ele>448.4</ele>
        <time>2019-08-13T07:56:41Z</time>
      </trkpt>
      <trkpt lat="39.8991370" lon="-4.1885290">
        <ele>448.3</ele>
        <time>2019-08-13T07:56:42Z</time>
      </trkpt>
      <trkpt lat="39.8991820" lon="-4.1885070">
        <ele>448.3</ele>
        <time>2019-08-13T07:56:43Z</time>
      </trkpt>
      <trkpt lat="39.8992280" lon="-4.1884840">
        <ele>448.2</ele>
        <time>2019-08-13T07:56:44Z</time>
      </trkpt>
      <trkpt lat="39.8992760" lon="-4.1884600">
        <ele>448.2</ele>
        <time>2019-08-13T07:56:45Z</time>
      </trkpt>
      <trkpt lat="39.8993230" lon="-4.1884360">
        <ele>448.1</ele>
        <time>2019-08-13T07:56:46Z</time>
      </trkpt>
      <trkpt lat="39.8993700" lon="-4.1884100">
        <ele>448.1</ele>
        <time>2019-08-13T07:56:47Z</time>
      </trkpt>
      <trkpt lat="39.8994180" lon="-4.1883850">
        <ele>448.0</ele>
        <time>2019-08-13T07:56:48Z</time>
      </trkpt>
      <trkpt lat="39.8994700" lon="-4.1883620">
        <ele>448.0</ele>
        <time>2019-08-13T07:56:49Z</time>
      </trkpt>
      <trkpt lat="39.8995210" lon="-4.1883350">
        <ele>448.0</ele>
        <time>2019-08-13T07:56:50Z</time>
      </trkpt>
      <trkpt lat="39.8995680" lon="-4.1883110">
        <ele>447.9</ele>
        <time>2019-08-13T07:56:51Z</time>
      </trkpt>
      <trkpt lat="39.8996150" lon="-4.1882860">
        <ele>447.9</ele>
        <time>2019-08-13T07:56:52Z</time>
      </trkpt>
      <trkpt lat="39.8996620" lon="-4.1882590">
        <ele>447.9</ele>
        <time>2019-08-13T07:56:53Z</time>
      </trkpt>
      <trkpt lat="39.8997100" lon="-4.1882320">
        <ele>447.9</ele>
        <time>2019-08-13T07:56:54Z</time>
      </trkpt>
      <trkpt lat="39.8997610" lon="-4.1882070">
        <ele>447.8</ele>
        <time>2019-08-13T07:56:55Z</time>
      </trkpt>
      <trkpt lat="39.8998120" lon="-4.1881840">
        <ele>447.8</ele>
        <time>2019-08-13T07:56:56Z</time>
      </trkpt>
      <trkpt lat="39.8998630" lon="-4.1881600">
        <ele>447.8</ele>
        <time>2019-08-13T07:56:57Z</time>
      </trkpt>
      <trkpt lat="39.8999120" lon="-4.1881340">
        <ele>447.8</ele>
        <time>2019-08-13T07:56:58Z</time>
      </trkpt>
      <trkpt lat="39.8999580" lon="-4.1881050">
        <ele>447.8</ele>
        <time>2019-08-13T07:56:59Z</time>
      </trkpt>
      <trkpt lat="39.9000020" lon="-4.1880770">
        <ele>447.9</ele>
        <time>2019-08-13T07:57:00Z</time>
      </trkpt>
      <trkpt lat="39.9000480" lon="-4.1880490">
        <ele>447.9</ele>
        <time>2019-08-13T07:57:01Z</time>
      </trkpt>
      <trkpt lat="39.9000950" lon="-4.1880210">
        <ele>447.9</ele>
        <time>2019-08-13T07:57:02Z</time>
      </trkpt>
      <trkpt lat="39.9001420" lon="-4.1879950">
        <ele>447.9</ele>
        <time>2019-08-13T07:57:03Z</time>
      </trkpt>
      <trkpt lat="39.9001900" lon="-4.1879710">
        <ele>447.9</ele>
        <time>2019-08-13T07:57:04Z</time>
      </trkpt>
      <trkpt lat="39.9002370" lon="-4.1879460">
        <ele>448.0</ele>
        <time>2019-08-13T07:57:05Z</time>
      </trkpt>
      <trkpt lat="39.9002840" lon="-4.1879200">
        <ele>448.0</ele>
        <time>2019-08-13T07:57:06Z</time>
      </trkpt>
      <trkpt lat="39.9003290" lon="-4.1878910">
        <ele>448.1</ele>
        <time>2019-08-13T07:57:07Z</time>
      </trkpt>
      <trkpt lat="39.9003740" lon="-4.1878620">
        <ele>448.1</ele>
        <time>2019-08-13T07:57:08Z</time>
      </trkpt>
      <trkpt lat="39.9004190" lon="-4.1878330">
        <ele>448.2</ele>
        <time>2019-08-13T07:57:09Z</time>
      </trkpt>
      <trkpt lat="39.9004640" lon="-4.1878070">
        <ele>448.2</ele>
        <time>2019-08-13T07:57:10Z</time>
      </trkpt>
      <trkpt lat="39.9005090" lon="-4.1877810">
        <ele>448.3</ele>
        <time>2019-08-13T07:57:11Z</time>
      </trkpt>
      <trkpt lat="39.9005530" lon="-4.1877530">
        <ele>448.3</ele>
        <time>2019-08-13T07:57:12Z</time>
      </trkpt>
      <trkpt lat="39.9005980" lon="-4.1877260">
        <ele>448.4</ele>
        <time>2019-08-13T07:57:13Z</time>
      </trkpt>
      <trkpt lat="39.9006420" lon="-4.1876990">
        <ele>448.5</ele>
        <time>2019-08-13T07:57:14Z</time>
      </trkpt>
      <trkpt lat="39.9006860" lon="-4.1876720">
        <ele>448.5</ele>
        <time>2019-08-13T07:57:15Z</time>
      </trkpt>
      <trkpt lat="39.9007290" lon="-4.1876450">
        <ele>448.6</ele>
        <time>2019-08-13T07:57:16Z</time>
      </trkpt>
      <trkpt lat="39.9007710" lon="-4.1876190">
        <ele>448.7</ele>
        <time>2019-08-13T07:57:17Z</time>
      </trkpt>
      <trkpt lat="39.9008120" lon="-4.1875940">
        <ele>448.7</ele>
        <time>2019-08-13T07:57:18Z</time>
      </trkpt>
      <trkpt lat="39.9008540" lon="-4.1875700">
        <ele>448.8</ele>
        <time>2019-08-13T07:57:19Z</time>
      </trkpt>
      <trkpt lat="39.9008970" lon="-4.1875440">
        <ele>448.9</ele>
        <time>2019-08-13T07:57:20Z</time>
      </trkpt>
      <trkpt lat="39.9009390" lon="-4.1875190">
        <ele>448.9</ele>
        <time>2019-08-13T07:57:21Z</time>
      </trkpt>
      <trkpt lat="39.9009820" lon="-4.1874950">
        <ele>449.0</ele>
        <time>2019-08-13T07:57:22Z</time>
      </trkpt>
      <trkpt lat="39.9010260" lon="-4.1874740">
        <ele>449.0</ele>
        <time>2019-08-13T07:57:23Z</time>
      </trkpt>
      <trkpt lat="39.9010680" lon="-4.1874520">
        <ele>449.0</ele>
        <time>2019-08-13T07:57:24Z</time>
      </trkpt>
      <trkpt lat="39.9011110" lon="-4.1874300">
        <ele>449.1</ele>
        <time>2019-08-13T07:57:25Z</time>
      </trkpt>
      <trkpt lat="39.9011540" lon="-4.1874080">
        <ele>449.1</ele>
        <time>2019-08-13T07:57:26Z</time>
      </trkpt>
      <trkpt lat="39.9011960" lon="-4.1873840">
        <ele>449.0</ele>
        <time>2019-08-13T07:57:27Z</time>
      </trkpt>
      <trkpt lat="39.9012390" lon="-4.1873590">
        <ele>449.0</ele>
        <time>2019-08-13T07:57:28Z</time>
      </trkpt>
      <trkpt lat="39.9012820" lon="-4.1873360">
        <ele>449.0</ele>
        <time>2019-08-13T07:57:29Z</time>
      </trkpt>
      <trkpt lat="39.9013250" lon="-4.1873120">
        <ele>449.0</ele>
        <time>2019-08-13T07:57:30Z</time>
      </trkpt>
      <trkpt lat="39.9013680" lon="-4.1872860">
        <ele>448.9</ele>
        <time>2019-08-13T07:57:31Z</time>
      </trkpt>
      <trkpt lat="39.9014120" lon="-4.1872590">
        <ele>448.9</ele>
        <time>2019-08-13T07:57:32Z</time>
      </trkpt>
      <trkpt lat="39.9014560" lon="-4.1872300">
        <ele>448.8</ele>
        <time>2019-08-13T07:57:33Z</time>
      </trkpt>
      <trkpt lat="39.9015000" lon="-4.1872010">
        <ele>448.7</ele>
        <time>2019-08-13T07:57:34Z</time>
      </trkpt>
      <trkpt lat="39.9015430" lon="-4.1871720">
        <ele>448.6</ele>
        <time>2019-08-13T07:57:35Z</time>
      </trkpt>
      <trkpt lat="39.9015860" lon="-4.1871450">
        <ele>448.4</ele>
        <time>2019-08-13T07:57:36Z</time>
      </trkpt>
      <trkpt lat="39.9016310" lon="-4.1871170">
        <ele>448.3</ele>
        <time>2019-08-13T07:57:37Z</time>
      </trkpt>
      <trkpt lat="39.9016770" lon="-4.1870870">
        <ele>448.2</ele>
        <time>2019-08-13T07:57:38Z</time>
      </trkpt>
      <trkpt lat="39.9017240" lon="-4.1870560">
        <ele>448.0</ele>
        <time>2019-08-13T07:57:39Z</time>
      </trkpt>
      <trkpt lat="39.9017720" lon="-4.1870270">
        <ele>447.9</ele>
        <time>2019-08-13T07:57:40Z</time>
      </trkpt>
      <trkpt lat="39.9018210" lon="-4.1869980">
        <ele>447.7</ele>
        <time>2019-08-13T07:57:41Z</time>
      </trkpt>
      <trkpt lat="39.9018700" lon="-4.1869670">
        <ele>447.6</ele>
        <time>2019-08-13T07:57:42Z</time>
      </trkpt>
      <trkpt lat="39.9019190" lon="-4.1869370">
        <ele>447.5</ele>
        <time>2019-08-13T07:57:43Z</time>
      </trkpt>
      <trkpt lat="39.9019670" lon="-4.1869110">
        <ele>447.3</ele>
        <time>2019-08-13T07:57:44Z</time>
      </trkpt>
      <trkpt lat="39.9020180" lon="-4.1868870">
        <ele>447.2</ele>
        <time>2019-08-13T07:57:45Z</time>
      </trkpt>
      <trkpt lat="39.9020720" lon="-4.1868640">
        <ele>447.1</ele>
        <time>2019-08-13T07:57:46Z</time>
      </trkpt>
      <trkpt lat="39.9021250" lon="-4.1868420">
        <ele>446.9</ele>
        <time>2019-08-13T07:57:47Z</time>
      </trkpt>
      <trkpt lat="39.9021780" lon="-4.1868210">
        <ele>446.8</ele>
        <time>2019-08-13T07:57:48Z</time>
      </trkpt>
      <trkpt lat="39.9022300" lon="-4.1868020">
        <ele>446.7</ele>
        <time>2019-08-13T07:57:49Z</time>
      </trkpt>
      <trkpt lat="39.9022830" lon="-4.1867850">
        <ele>446.6</ele>
        <time>2019-08-13T07:57:50Z</time>
      </trkpt>
      <trkpt lat="39.9023370" lon="-4.1867680">
        <ele>446.5</ele>
        <time>2019-08-13T07:57:51Z</time>
      </trkpt>
      <trkpt lat="39.9023920" lon="-4.1867490">
        <ele>446.3</ele>
        <time>2019-08-13T07:57:52Z</time>
      </trkpt>
      <trkpt lat="39.9024450" lon="-4.1867320">
        <ele>446.2</ele>
        <time>2019-08-13T07:57:53Z</time>
      </trkpt>
      <trkpt lat="39.9025010" lon="-4.1867160">
        <ele>446.1</ele>
        <time>2019-08-13T07:57:54Z</time>
      </trkpt>
      <trkpt lat="39.9025570" lon="-4.1867010">
        <ele>446.0</ele>
        <time>2019-08-13T07:57:55Z</time>
      </trkpt>
      <trkpt lat="39.9026130" lon="-4.1866880">
        <ele>445.9</ele>
        <time>2019-08-13T07:57:56Z</time>
      </trkpt>
      <trkpt lat="39.9026680" lon="-4.1866740">
        <ele>445.8</ele>
        <time>2019-08-13T07:57:57Z</time>
      </trkpt>
      <trkpt lat="39.9027210" lon="-4.1866590">
        <ele>445.8</ele>
        <time>2019-08-13T07:57:58Z</time>
      </trkpt>
      <trkpt lat="39.9027720" lon="-4.1866410">
        <ele>445.7</ele>
        <time>2019-08-13T07:57:59Z</time>
      </trkpt>
      <trkpt lat="39.9028190" lon="-4.1866210">
        <ele>445.7</ele>
        <time>2019-08-13T07:58:00Z</time>
      </trkpt>
      <trkpt lat="39.9028630" lon="-4.1865980">
        <ele>445.7</ele>
        <time>2019-08-13T07:58:01Z</time>
      </trkpt>
      <trkpt lat="39.9029080" lon="-4.1865760">
        <ele>445.6</ele>
        <time>2019-08-13T07:58:02Z</time>
      </trkpt>
      <trkpt lat="39.9029520" lon="-4.1865550">
        <ele>445.6</ele>
        <time>2019-08-13T07:58:03Z</time>
      </trkpt>
      <trkpt lat="39.9029940" lon="-4.1865340">
        <ele>445.6</ele>
        <time>2019-08-13T07:58:04Z</time>
      </trkpt>
      <trkpt lat="39.9030350" lon="-4.1865140">
        <ele>445.6</ele>
        <time>2019-08-13T07:58:05Z</time>
      </trkpt>
      <trkpt lat="39.9030780" lon="-4.1864960">
        <ele>445.5</ele>
        <time>2019-08-13T07:58:06Z</time>
      </trkpt>
      <trkpt lat="39.9031220" lon="-4.1864780">
        <ele>445.5</ele>
        <time>2019-08-13T07:58:07Z</time>
      </trkpt>
      <trkpt lat="39.9031690" lon="-4.1864580">
        <ele>445.5</ele>
        <time>2019-08-13T07:58:08Z</time>
      </trkpt>
      <trkpt lat="39.9032160" lon="-4.1864400">
        <ele>445.5</ele>
        <time>2019-08-13T07:58:09Z</time>
      </trkpt>
      <trkpt lat="39.9032590" lon="-4.1864260">
        <ele>445.5</ele>
        <time>2019-08-13T07:58:10Z</time>
      </trkpt>
      <trkpt lat="39.9032990" lon="-4.1864150">
        <ele>445.5</ele>
        <time>2019-08-13T07:58:11Z</time>
      </trkpt>
      <trkpt lat="39.9033370" lon="-4.1864040">
        <ele>445.5</ele>
        <time>2019-08-13T07:58:12Z</time>
      </trkpt>
      <trkpt lat="39.9033750" lon="-4.1863950">
        <ele>445.5</ele>
        <time>2019-08-13T07:58:13Z</time>
      </trkpt>
      <trkpt lat="39.9034120" lon="-4.1863830">
        <ele>445.6</ele>
        <time>2019-08-13T07:58:14Z</time>
      </trkpt>
      <trkpt lat="39.9034490" lon="-4.1863720">
        <ele>445.6</ele>
        <time>2019-08-13T07:58:15Z</time>
      </trkpt>
      <trkpt lat="39.9034880" lon="-4.1863610">
        <ele>445.6</ele>
        <time>2019-08-13T07:58:16Z</time>
      </trkpt>
      <trkpt lat="39.9035270" lon="-4.1863520">
        <ele>445.7</ele>
        <time>2019-08-13T07:58:17Z</time>
      </trkpt>
      <trkpt lat="39.9035680" lon="-4.1863420">
        <ele>445.7</ele>
        <time>2019-08-13T07:58:18Z</time>
      </trkpt>
      <trkpt lat="39.9036090" lon="-4.1863290">
        <ele>445.8</ele>
        <time>2019-08-13T07:58:19Z</time>
      </trkpt>
      <trkpt lat="39.9036510" lon="-4.1863140">
        <ele>445.8</ele>
        <time>2019-08-13T07:58:20Z</time>
      </trkpt>
      <trkpt lat="39.9036940" lon="-4.1863020">
        <ele>445.8</ele>
        <time>2019-08-13T07:58:21Z</time>
      </trkpt>
      <trkpt lat="39.9037370" lon="-4.1862920">
        <ele>445.9</ele>
        <time>2019-08-13T07:58:22Z</time>
      </trkpt>
      <trkpt lat="39.9037810" lon="-4.1862820">
        <ele>445.9</ele>
        <time>2019-08-13T07:58:23Z</time>
      </trkpt>
      <trkpt lat="39.9038240" lon="-4.1862700">
        <ele>445.9</ele>
        <time>2019-08-13T07:58:24Z</time>
      </trkpt>
      <trkpt lat="39.9038660" lon="-4.1862550">
        <ele>446.0</ele>
        <time>2019-08-13T07:58:25Z</time>
      </trkpt>
      <trkpt lat="39.9039100" lon="-4.1862420">
        <ele>446.0</ele>
        <time>2019-08-13T07:58:26Z</time>
      </trkpt>
      <trkpt lat="39.9039520" lon="-4.1862280">
        <ele>446.0</ele>
        <time>2019-08-13T07:58:27Z</time>
      </trkpt>
      <trkpt lat="39.9039940" lon="-4.1862160">
        <ele>446.1</ele>
        <time>2019-08-13T07:58:28Z</time>
      </trkpt>
      <trkpt lat="39.9040380" lon="-4.1862050">
        <ele>446.1</ele>
        <time>2019-08-13T07:58:29Z</time>
      </trkpt>
      <trkpt lat="39.9040810" lon="-4.1861950">
        <ele>446.1</ele>
        <time>2019-08-13T07:58:30Z</time>
      </trkpt>
      <trkpt lat="39.9041260" lon="-4.1861840">
        <ele>446.2</ele>
        <time>2019-08-13T07:58:31Z</time>
      </trkpt>
      <trkpt lat="39.9041700" lon="-4.1861720">
        <ele>446.2</ele>
        <time>2019-08-13T07:58:32Z</time>
      </trkpt>
      <trkpt lat="39.9042140" lon="-4.1861590">
        <ele>446.3</ele>
        <time>2019-08-13T07:58:33Z</time>
      </trkpt>
      <trkpt lat="39.9042580" lon="-4.1861470">
        <ele>446.3</ele>
        <time>2019-08-13T07:58:34Z</time>
      </trkpt>
      <trkpt lat="39.9043010" lon="-4.1861330">
        <ele>446.3</ele>
        <time>2019-08-13T07:58:35Z</time>
      </trkpt>
      <trkpt lat="39.9043440" lon="-4.1861190">
        <ele>446.3</ele>
        <time>2019-08-13T07:58:36Z</time>
      </trkpt>
      <trkpt lat="39.9043880" lon="-4.1861060">
        <ele>446.4</ele>
        <time>2019-08-13T07:58:37Z</time>
      </trkpt>
      <trkpt lat="39.9044320" lon="-4.1860900">
        <ele>446.4</ele>
        <time>2019-08-13T07:58:38Z</time>
      </trkpt>
      <trkpt lat="39.9044770" lon="-4.1860720">
        <ele>446.4</ele>
        <time>2019-08-13T07:58:39Z</time>
      </trkpt>
      <trkpt lat="39.9045220" lon="-4.1860560">
        <ele>446.4</ele>
        <time>2019-08-13T07:58:40Z</time>
      </trkpt>
      <trkpt lat="39.9045680" lon="-4.1860420">
        <ele>446.4</ele>
        <time>2019-08-13T07:58:41Z</time>
      </trkpt>
      <trkpt lat="39.9046170" lon="-4.1860280">
        <ele>446.4</ele>
        <time>2019-08-13T07:58:42Z</time>
      </trkpt>
      <trkpt lat="39.9046650" lon="-4.1860140">
        <ele>446.3</ele>
        <time>2019-08-13T07:58:43Z</time>
      </trkpt>
      <trkpt lat="39.9047150" lon="-4.1860000">
        <ele>446.3</ele>
        <time>2019-08-13T07:58:44Z</time>
      </trkpt>
      <trkpt lat="39.9047650" lon="-4.1859850">
        <ele>446.2</ele>
        <time>2019-08-13T07:58:45Z</time>
      </trkpt>
      <trkpt lat="39.9048150" lon="-4.1859700">
        <ele>446.2</ele>
        <time>2019-08-13T07:58:46Z</time>
      </trkpt>
      <trkpt lat="39.9048650" lon="-4.1859530">
        <ele>446.1</ele>
        <time>2019-08-13T07:58:47Z</time>
      </trkpt>
      <trkpt lat="39.9049160" lon="-4.1859380">
        <ele>446.0</ele>
        <time>2019-08-13T07:58:48Z</time>
      </trkpt>
      <trkpt lat="39.9049660" lon="-4.1859260">
        <ele>445.9</ele>
        <time>2019-08-13T07:58:49Z</time>
      </trkpt>
      <trkpt lat="39.9050150" lon="-4.1859150">
        <ele>445.8</ele>
        <time>2019-08-13T07:58:50Z</time>
      </trkpt>
      <trkpt lat="39.9050660" lon="-4.1859040">
        <ele>445.8</ele>
        <time>2019-08-13T07:58:51Z</time>
      </trkpt>
      <trkpt lat="39.9051200" lon="-4.1858940">
        <ele>445.7</ele>
        <time>2019-08-13T07:58:52Z</time>
      </trkpt>
      <trkpt lat="39.9051750" lon="-4.1858820">
        <ele>445.6</ele>
        <time>2019-08-13T07:58:53Z</time>
      </trkpt>
      <trkpt lat="39.9052310" lon="-4.1858680">
        <ele>445.5</ele>
        <time>2019-08-13T07:58:54Z</time>
      </trkpt>
      <trkpt lat="39.9052890" lon="-4.1858530">
        <ele>445.4</ele>
        <time>2019-08-13T07:58:55Z</time>
      </trkpt>
      <trkpt lat="39.9053450" lon="-4.1858390">
        <ele>445.3</ele>
        <time>2019-08-13T07:58:56Z</time>
      </trkpt>
      <trkpt lat="39.9054000" lon="-4.1858260">
        <ele>445.2</ele>
        <time>2019-08-13T07:58:57Z</time>
      </trkpt>
      <trkpt lat="39.9054560" lon="-4.1858140">
        <ele>445.1</ele>
        <time>2019-08-13T07:58:58Z</time>
      </trkpt>
      <trkpt lat="39.9055120" lon="-4.1858020">
        <ele>445.0</ele>
        <time>2019-08-13T07:58:59Z</time>
      </trkpt>
      <trkpt lat="39.9055700" lon="-4.1857880">
        <ele>444.9</ele>
        <time>2019-08-13T07:59:00Z</time>
      </trkpt>
      <trkpt lat="39.9056270" lon="-4.1857750">
        <ele>444.8</ele>
        <time>2019-08-13T07:59:01Z</time>
      </trkpt>
      <trkpt lat="39.9056840" lon="-4.1857630">
        <ele>444.7</ele>
        <time>2019-08-13T07:59:02Z</time>
      </trkpt>
      <trkpt lat="39.9057380" lon="-4.1857550">
        <ele>444.6</ele>
        <time>2019-08-13T07:59:03Z</time>
      </trkpt>
      <trkpt lat="39.9057930" lon="-4.1857500">
        <ele>444.5</ele>
        <time>2019-08-13T07:59:04Z</time>
      </trkpt>
      <trkpt lat="39.9058480" lon="-4.1857450">
        <ele>444.4</ele>
        <time>2019-08-13T07:59:05Z</time>
      </trkpt>
      <trkpt lat="39.9059010" lon="-4.1857360">
        <ele>444.4</ele>
        <time>2019-08-13T07:59:06Z</time>
      </trkpt>
      <trkpt lat="39.9059540" lon="-4.1857210">
        <ele>444.3</ele>
        <time>2019-08-13T07:59:07Z</time>
      </trkpt>
      <trkpt lat="39.9060070" lon="-4.1857060">
        <ele>444.3</ele>
        <time>2019-08-13T07:59:08Z</time>
      </trkpt>
      <trkpt lat="39.9060590" lon="-4.1856900">
        <ele>444.3</ele>
        <time>2019-08-13T07:59:09Z</time>
      </trkpt>
      <trkpt lat="39.9061120" lon="-4.1856750">
        <ele>444.3</ele>
        <time>2019-08-13T07:59:10Z</time>
      </trkpt>
      <trkpt lat="39.9061630" lon="-4.1856600">
        <ele>444.3</ele>
        <time>2019-08-13T07:59:11Z</time>
      </trkpt>
      <trkpt lat="39.9062140" lon="-4.1856440">
        <ele>444.3</ele>
        <time>2019-08-13T07:59:12Z</time>
      </trkpt>
      <trkpt lat="39.9062630" lon="-4.1856250">
        <ele>444.3</ele>
        <time>2019-08-13T07:59:13Z</time>
      </trkpt>
      <trkpt lat="39.9063120" lon="-4.1856080">
        <ele>444.3</ele>
        <time>2019-08-13T07:59:14Z</time>
      </trkpt>
      <trkpt lat="39.9063600" lon="-4.1855910">
        <ele>444.3</ele>
        <time>2019-08-13T07:59:15Z</time>
      </trkpt>
      <trkpt lat="39.9064080" lon="-4.1855770">
        <ele>444.4</ele>
        <time>2019-08-13T07:59:16Z</time>
      </trkpt>
      <trkpt lat="39.9064540" lon="-4.1855670">
        <ele>444.4</ele>
        <time>2019-08-13T07:59:17Z</time>
      </trkpt>
      <trkpt lat="39.9065010" lon="-4.1855560">
        <ele>444.4</ele>
        <time>2019-08-13T07:59:18Z</time>
      </trkpt>
      <trkpt lat="39.9065450" lon="-4.1855460">
        <ele>444.4</ele>
        <time>2019-08-13T07:59:19Z</time>
      </trkpt>
      <trkpt lat="39.9065910" lon="-4.1855350">
        <ele>444.4</ele>
        <time>2019-08-13T07:59:20Z</time>
      </trkpt>
      <trkpt lat="39.9066380" lon="-4.1855260">
        <ele>444.5</ele>
        <time>2019-08-13T07:59:21Z</time>
      </trkpt>
      <trkpt lat="39.9066890" lon="-4.1855150">
        <ele>444.5</ele>
        <time>2019-08-13T07:59:22Z</time>
      </trkpt>
      <trkpt lat="39.9067390" lon="-4.1855010">
        <ele>444.5</ele>
        <time>2019-08-13T07:59:23Z</time>
      </trkpt>
      <trkpt lat="39.9067890" lon="-4.1854870">
        <ele>444.5</ele>
        <time>2019-08-13T07:59:24Z</time>
      </trkpt>
      <trkpt lat="39.9068390" lon="-4.1854750">
        <ele>444.5</ele>
        <time>2019-08-13T07:59:25Z</time>
      </trkpt>
      <trkpt lat="39.9068900" lon="-4.1854630">
        <ele>444.5</ele>
        <time>2019-08-13T07:59:26Z</time>
      </trkpt>
      <trkpt lat="39.9069410" lon="-4.1854510">
        <ele>444.6</ele>
        <time>2019-08-13T07:59:27Z</time>
      </trkpt>
      <trkpt lat="39.9069910" lon="-4.1854360">
        <ele>444.6</ele>
        <time>2019-08-13T07:59:28Z</time>
      </trkpt>
      <trkpt lat="39.9070400" lon="-4.1854210">
        <ele>444.6</ele>
        <time>2019-08-13T07:59:29Z</time>
      </trkpt>
      <trkpt lat="39.9070880" lon="-4.1854050">
        <ele>444.6</ele>
        <time>2019-08-13T07:59:30Z</time>
      </trkpt>
      <trkpt lat="39.9071350" lon="-4.1853910">
        <ele>444.6</ele>
        <time>2019-08-13T07:59:31Z</time>
      </trkpt>
      <trkpt lat="39.9071830" lon="-4.1853790">
        <ele>444.6</ele>
        <time>2019-08-13T07:59:32Z</time>
      </trkpt>
      <trkpt lat="39.9072310" lon="-4.1853650">
        <ele>444.6</ele>
        <time>2019-08-13T07:59:33Z</time>
      </trkpt>
      <trkpt lat="39.9072770" lon="-4.1853520">
        <ele>444.5</ele>
        <time>2019-08-13T07:59:34Z</time>
      </trkpt>
      <trkpt lat="39.9073240" lon="-4.1853380">
        <ele>444.5</ele>
        <time>2019-08-13T07:59:35Z</time>
      </trkpt>
      <trkpt lat="39.9073730" lon="-4.1853240">
        <ele>444.4</ele>
        <time>2019-08-13T07:59:36Z</time>
      </trkpt>
      <trkpt lat="39.9074250" lon="-4.1853130">
        <ele>444.3</ele>
        <time>2019-08-13T07:59:37Z</time>
      </trkpt>
      <trkpt lat="39.9074750" lon="-4.1853020">
        <ele>444.2</ele>
        <time>2019-08-13T07:59:38Z</time>
      </trkpt>
      <trkpt lat="39.9075240" lon="-4.1852900">
        <ele>444.1</ele>
        <time>2019-08-13T07:59:39Z</time>
      </trkpt>
      <trkpt lat="39.9075730" lon="-4.1852800">
        <ele>444.0</ele>
        <time>2019-08-13T07:59:40Z</time>
      </trkpt>
      <trkpt lat="39.9076190" lon="-4.1852690">
        <ele>444.0</ele>
        <time>2019-08-13T07:59:41Z</time>
      </trkpt>
      <trkpt lat="39.9076670" lon="-4.1852570">
        <ele>443.9</ele>
        <time>2019-08-13T07:59:42Z</time>
      </trkpt>
      <trkpt lat="39.9077170" lon="-4.1852460">
        <ele>443.8</ele>
        <time>2019-08-13T07:59:43Z</time>
      </trkpt>
      <trkpt lat="39.9077700" lon="-4.1852350">
        <ele>443.8</ele>
        <time>2019-08-13T07:59:44Z</time>
      </trkpt>
      <trkpt lat="39.9078230" lon="-4.1852220">
        <ele>443.8</ele>
        <time>2019-08-13T07:59:45Z</time>
      </trkpt>
      <trkpt lat="39.9078760" lon="-4.1852090">
        <ele>443.8</ele>
        <time>2019-08-13T07:59:46Z</time>
      </trkpt>
      <trkpt lat="39.9079270" lon="-4.1851950">
        <ele>443.8</ele>
        <time>2019-08-13T07:59:47Z</time>
      </trkpt>
      <trkpt lat="39.9079770" lon="-4.1851810">
        <ele>443.8</ele>
        <time>2019-08-13T07:59:48Z</time>
      </trkpt>
      <trkpt lat="39.9080270" lon="-4.1851680">
        <ele>443.8</ele>
        <time>2019-08-13T07:59:49Z</time>
      </trkpt>
      <trkpt lat="39.9080760" lon="-4.1851530">
        <ele>443.8</ele>
        <time>2019-08-13T07:59:50Z</time>
      </trkpt>
      <trkpt lat="39.9081240" lon="-4.1851370">
        <ele>443.8</ele>
        <time>2019-08-13T07:59:51Z</time>
      </trkpt>
      <trkpt lat="39.9081720" lon="-4.1851230">
        <ele>443.8</ele>
        <time>2019-08-13T07:59:52Z</time>
      </trkpt>
      <trkpt lat="39.9082210" lon="-4.1851090">
        <ele>443.8</ele>
        <time>2019-08-13T07:59:53Z</time>
      </trkpt>
      <trkpt lat="39.9082700" lon="-4.1850970">
        <ele>443.8</ele>
        <time>2019-08-13T07:59:54Z</time>
      </trkpt>
      <trkpt lat="39.9083180" lon="-4.1850840">
        <ele>443.8</ele>
        <time>2019-08-13T07:59:55Z</time>
      </trkpt>
      <trkpt lat="39.9083670" lon="-4.1850710">
        <ele>443.8</ele>
        <time>2019-08-13T07:59:56Z</time>
      </trkpt>
      <trkpt lat="39.9084180" lon="-4.1850570">
        <ele>443.9</ele>
        <time>2019-08-13T07:59:57Z</time>
      </trkpt>
      <trkpt lat="39.9084700" lon="-4.1850440">
        <ele>443.9</ele>
        <time>2019-08-13T07:59:58Z</time>
      </trkpt>
      <trkpt lat="39.9085210" lon="-4.1850330">
        <ele>443.9</ele>
        <time>2019-08-13T07:59:59Z</time>
      </trkpt>
      <trkpt lat="39.9085710" lon="-4.1850230">
        <ele>444.0</ele>
        <time>2019-08-13T08:00:00Z</time>
      </trkpt>
      <trkpt lat="39.9086210" lon="-4.1850120">
        <ele>444.0</ele>
        <time>2019-08-13T08:00:01Z</time>
      </trkpt>
      <trkpt lat="39.9086710" lon="-4.1850020">
        <ele>444.0</ele>
        <time>2019-08-13T08:00:02Z</time>
      </trkpt>
      <trkpt lat="39.9087220" lon="-4.1849910">
        <ele>444.1</ele>
        <time>2019-08-13T08:00:03Z</time>
      </trkpt>
      <trkpt lat="39.9087710" lon="-4.1849770">
        <ele>444.1</ele>
        <time>2019-08-13T08:00:04Z</time>
      </trkpt>
      <trkpt lat="39.9088200" lon="-4.1849630">
        <ele>444.1</ele>
        <time>2019-08-13T08:00:05Z</time>
      </trkpt>
      <trkpt lat="39.9088690" lon="-4.1849500">
        <ele>444.2</ele>
        <time>2019-08-13T08:00:06Z</time>
      </trkpt>
      <trkpt lat="39.9089180" lon="-4.1849370">
        <ele>444.2</ele>
        <time>2019-08-13T08:00:07Z</time>
      </trkpt>
      <trkpt lat="39.9089670" lon="-4.1849250">
        <ele>444.2</ele>
        <time>2019-08-13T08:00:08Z</time>
      </trkpt>
      <trkpt lat="39.9090150" lon="-4.1849130">
        <ele>444.3</ele>
        <time>2019-08-13T08:00:09Z</time>
      </trkpt>
      <trkpt lat="39.9090640" lon="-4.1849010">
        <ele>444.3</ele>
        <time>2019-08-13T08:00:10Z</time>
      </trkpt>
      <trkpt lat="39.9091120" lon="-4.1848890">
        <ele>444.4</ele>
        <time>2019-08-13T08:00:11Z</time>
      </trkpt>
      <trkpt lat="39.9091610" lon="-4.1848720">
        <ele>444.5</ele>
        <time>2019-08-13T08:00:12Z</time>
      </trkpt>
      <trkpt lat="39.9092100" lon="-4.1848570">
        <ele>444.5</ele>
        <time>2019-08-13T08:00:13Z</time>
      </trkpt>
      <trkpt lat="39.9092580" lon="-4.1848450">
        <ele>444.6</ele>
        <time>2019-08-13T08:00:14Z</time>
      </trkpt>
      <trkpt lat="39.9093080" lon="-4.1848370">
        <ele>444.6</ele>
        <time>2019-08-13T08:00:15Z</time>
      </trkpt>
      <trkpt lat="39.9093560" lon="-4.1848290">
        <ele>444.7</ele>
        <time>2019-08-13T08:00:16Z</time>
      </trkpt>
      <trkpt lat="39.9094020" lon="-4.1848200">
        <ele>444.8</ele>
        <time>2019-08-13T08:00:17Z</time>
      </trkpt>
      <trkpt lat="39.9094470" lon="-4.1848140">
        <ele>444.8</ele>
        <time>2019-08-13T08:00:18Z</time>
      </trkpt>
      <trkpt lat="39.9094930" lon="-4.1848080">
        <ele>444.9</ele>
        <time>2019-08-13T08:00:19Z</time>
      </trkpt>
      <trkpt lat="39.9095400" lon="-4.1848020">
        <ele>445.0</ele>
        <time>2019-08-13T08:00:20Z</time>
      </trkpt>
      <trkpt lat="39.9095870" lon="-4.1847960">
        <ele>445.1</ele>
        <time>2019-08-13T08:00:21Z</time>
      </trkpt>
      <trkpt lat="39.9096340" lon="-4.1847900">
        <ele>445.2</ele>
        <time>2019-08-13T08:00:22Z</time>
      </trkpt>
      <trkpt lat="39.9096800" lon="-4.1847830">
        <ele>445.2</ele>
        <time>2019-08-13T08:00:23Z</time>
      </trkpt>
      <trkpt lat="39.9097270" lon="-4.1847750">
        <ele>445.3</ele>
        <time>2019-08-13T08:00:24Z</time>
      </trkpt>
      <trkpt lat="39.9097710" lon="-4.1847670">
        <ele>445.4</ele>
        <time>2019-08-13T08:00:25Z</time>
      </trkpt>
      <trkpt lat="39.9098110" lon="-4.1847600">
        <ele>445.4</ele>
        <time>2019-08-13T08:00:26Z</time>
      </trkpt>
      <trkpt lat="39.9098460" lon="-4.1847570">
        <ele>445.5</ele>
        <time>2019-08-13T08:00:27Z</time>
      </trkpt>
      <trkpt lat="39.9098820" lon="-4.1847550">
        <ele>445.5</ele>
        <time>2019-08-13T08:00:28Z</time>
      </trkpt>
      <trkpt lat="39.9099190" lon="-4.1847540">
        <ele>445.6</ele>
        <time>2019-08-13T08:00:29Z</time>
      </trkpt>
      <trkpt lat="39.9099550" lon="-4.1847530">
        <ele>445.6</ele>
        <time>2019-08-13T08:00:30Z</time>
      </trkpt>
      <trkpt lat="39.9099900" lon="-4.1847500">
        <ele>445.6</ele>
        <time>2019-08-13T08:00:31Z</time>
      </trkpt>
      <trkpt lat="39.9100240" lon="-4.1847460">
        <ele>445.7</ele>
        <time>2019-08-13T08:00:32Z</time>
      </trkpt>
      <trkpt lat="39.9100600" lon="-4.1847460">
        <ele>445.7</ele>
        <time>2019-08-13T08:00:33Z</time>
      </trkpt>
      <trkpt lat="39.9101000" lon="-4.1847530">
        <ele>445.7</ele>
        <time>2019-08-13T08:00:34Z</time>
      </trkpt>
      <trkpt lat="39.9101410" lon="-4.1847620">
        <ele>445.8</ele>
        <time>2019-08-13T08:00:35Z</time>
      </trkpt>
      <trkpt lat="39.9101820" lon="-4.1847760">
        <ele>445.8</ele>
        <time>2019-08-13T08:00:36Z</time>
      </trkpt>
      <trkpt lat="39.9102240" lon="-4.1847930">
        <ele>445.8</ele>
        <time>2019-08-13T08:00:37Z</time>
      </trkpt>
      <trkpt lat="39.9102640" lon="-4.1848110">
        <ele>445.9</ele>
        <time>2019-08-13T08:00:38Z</time>
      </trkpt>
      <trkpt lat="39.9103030" lon="-4.1848290">
        <ele>445.9</ele>
        <time>2019-08-13T08:00:39Z</time>
      </trkpt>
      <trkpt lat="39.9103410" lon="-4.1848490">
        <ele>446.0</ele>
        <time>2019-08-13T08:00:40Z</time>
      </trkpt>
      <trkpt lat="39.9103770" lon="-4.1848670">
        <ele>446.1</ele>
        <time>2019-08-13T08:00:41Z</time>
      </trkpt>
      <trkpt lat="39.9104130" lon="-4.1848850">
        <ele>446.2</ele>
        <time>2019-08-13T08:00:42Z</time>
      </trkpt>
      <trkpt lat="39.9104490" lon="-4.1849040">
        <ele>446.3</ele>
        <time>2019-08-13T08:00:43Z</time>
      </trkpt>
      <trkpt lat="39.9104830" lon="-4.1849220">
        <ele>446.4</ele>
        <time>2019-08-13T08:00:44Z</time>
      </trkpt>
      <trkpt lat="39.9105160" lon="-4.1849410">
        <ele>446.5</ele>
        <time>2019-08-13T08:00:45Z</time>
      </trkpt>
      <trkpt lat="39.9105490" lon="-4.1849600">
        <ele>446.6</ele>
        <time>2019-08-13T08:00:46Z</time>
      </trkpt>
      <trkpt lat="39.9105790" lon="-4.1849760">
        <ele>446.6</ele>
        <time>2019-08-13T08:00:47Z</time>
      </trkpt>
      <trkpt lat="39.9106090" lon="-4.1849910">
        <ele>446.6</ele>
        <time>2019-08-13T08:00:48Z</time>
      </trkpt>
      <trkpt lat="39.9106390" lon="-4.1850080">
        <ele>446.7</ele>
        <time>2019-08-13T08:00:49Z</time>
      </trkpt>
      <trkpt lat="39.9106690" lon="-4.1850260">
        <ele>446.7</ele>
        <time>2019-08-13T08:00:50Z</time>
      </trkpt>
      <trkpt lat="39.9107000" lon="-4.1850450">
        <ele>446.8</ele>
        <time>2019-08-13T08:00:51Z</time>
      </trkpt>
      <trkpt lat="39.9107320" lon="-4.1850610">
        <ele>446.8</ele>
        <time>2019-08-13T08:00:52Z</time>
      </trkpt>
      <trkpt lat="39.9107650" lon="-4.1850770">
        <ele>446.9</ele>
        <time>2019-08-13T08:00:53Z</time>
      </trkpt>
      <trkpt lat="39.9107960" lon="-4.1850920">
        <ele>447.0</ele>
        <time>2019-08-13T08:00:54Z</time>
      </trkpt>
      <trkpt lat="39.9108270" lon="-4.1851060">
        <ele>447.0</ele>
        <time>2019-08-13T08:00:55Z</time>
      </trkpt>
      <trkpt lat="39.9108560" lon="-4.1851210">
        <ele>447.1</ele>
        <time>2019-08-13T08:00:56Z</time>
      </trkpt>
      <trkpt lat="39.9108840" lon="-4.1851360">
        <ele>447.2</ele>
        <time>2019-08-13T08:00:57Z</time>
      </trkpt>
      <trkpt lat="39.9109120" lon="-4.1851490">
        <ele>447.2</ele>
        <time>2019-08-13T08:00:58Z</time>
      </trkpt>
      <trkpt lat="39.9109400" lon="-4.1851590">
        <ele>447.3</ele>
        <time>2019-08-13T08:00:59Z</time>
      </trkpt>
      <trkpt lat="39.9109670" lon="-4.1851680">
        <ele>447.4</ele>
        <time>2019-08-13T08:01:00Z</time>
      </trkpt>
      <trkpt lat="39.9109940" lon="-4.1851780">
        <ele>447.5</ele>
        <time>2019-08-13T08:01:01Z</time>
      </trkpt>
      <trkpt lat="39.9110200" lon="-4.1851890">
        <ele>447.5</ele>
        <time>2019-08-13T08:01:02Z</time>
      </trkpt>
      <trkpt lat="39.9110460" lon="-4.1852010">
        <ele>447.6</ele>
        <time>2019-08-13T08:01:03Z</time>
      </trkpt>
      <trkpt lat="39.9110740" lon="-4.1852110">
        <ele>447.7</ele>
        <time>2019-08-13T08:01:04Z</time>
      </trkpt>
      <trkpt lat="39.9111020" lon="-4.1852200">
        <ele>447.8</ele>
        <time>2019-08-13T08:01:05Z</time>
      </trkpt>
      <trkpt lat="39.9111300" lon="-4.1852280">
        <ele>447.9</ele>
        <time>2019-08-13T08:01:06Z</time>
      </trkpt>
      <trkpt lat="39.9111580" lon="-4.1852340">
        <ele>448.0</ele>
        <time>2019-08-13T08:01:07Z</time>
      </trkpt>
      <trkpt lat="39.9111850" lon="-4.1852380">
        <ele>448.1</ele>
        <time>2019-08-13T08:01:08Z</time>
      </trkpt>
      <trkpt lat="39.9112140" lon="-4.1852400">
        <ele>448.2</ele>
        <time>2019-08-13T08:01:09Z</time>
      </trkpt>
      <trkpt lat="39.9112410" lon="-4.1852410">
        <ele>448.3</ele>
        <time>2019-08-13T08:01:10Z</time>
      </trkpt>
      <trkpt lat="39.9112690" lon="-4.1852430">
        <ele>448.4</ele>
        <time>2019-08-13T08:01:11Z</time>
      </trkpt>
      <trkpt lat="39.9112970" lon="-4.1852450">
        <ele>448.5</ele>
        <time>2019-08-13T08:01:12Z</time>
      </trkpt>
      <trkpt lat="39.9113260" lon="-4.1852460">
        <ele>448.6</ele>
        <time>2019-08-13T08:01:13Z</time>
      </trkpt>
      <trkpt lat="39.9113560" lon="-4.1852480">
        <ele>448.7</ele>
        <time>2019-08-13T08:01:14Z</time>
      </trkpt>
      <trkpt lat="39.9113850" lon="-4.1852490">
        <ele>448.8</ele>
        <time>2019-08-13T08:01:15Z</time>
      </trkpt>
      <trkpt lat="39.9114150" lon="-4.1852490">
        <ele>448.9</ele>
        <time>2019-08-13T08:01:16Z</time>
      </trkpt>
      <trkpt lat="39.9114470" lon="-4.1852480">
        <ele>449.0</ele>
        <time>2019-08-13T08:01:17Z</time>
      </trkpt>
      <trkpt lat="39.9114790" lon="-4.1852490">
        <ele>449.2</ele>
        <time>2019-08-13T08:01:18Z</time>
      </trkpt>
      <trkpt lat="39.9115130" lon="-4.1852510">
        <ele>449.3</ele>
        <time>2019-08-13T08:01:19Z</time>
      </trkpt>
      <trkpt lat="39.9115470" lon="-4.1852540">
        <ele>449.5</ele>
        <time>2019-08-13T08:01:20Z</time>
      </trkpt>
      <trkpt lat="39.9115810" lon="-4.1852580">
        <ele>449.6</ele>
        <time>2019-08-13T08:01:21Z</time>
      </trkpt>
      <trkpt lat="39.9116160" lon="-4.1852620">
        <ele>449.7</ele>
        <time>2019-08-13T08:01:22Z</time>
      </trkpt>
      <trkpt lat="39.9116520" lon="-4.1852670">
        <ele>449.8</ele>
        <time>2019-08-13T08:01:23Z</time>
      </trkpt>
      <trkpt lat="39.9116890" lon="-4.1852690">
        <ele>449.9</ele>
        <time>2019-08-13T08:01:24Z</time>
      </trkpt>
      <trkpt lat="39.9117270" lon="-4.1852690">
        <ele>449.9</ele>
        <time>2019-08-13T08:01:25Z</time>
      </trkpt>
      <trkpt lat="39.9117640" lon="-4.1852670">
        <ele>450.0</ele>
        <time>2019-08-13T08:01:26Z</time>
      </trkpt>
      <trkpt lat="39.9118010" lon="-4.1852630">
        <ele>450.1</ele>
        <time>2019-08-13T08:01:27Z</time>
      </trkpt>
      <trkpt lat="39.9118380" lon="-4.1852550">
        <ele>450.1</ele>
        <time>2019-08-13T08:01:28Z</time>
      </trkpt>
      <trkpt lat="39.9118760" lon="-4.1852470">
        <ele>450.2</ele>
        <time>2019-08-13T08:01:29Z</time>
      </trkpt>
      <trkpt lat="39.9119150" lon="-4.1852410">
        <ele>450.2</ele>
        <time>2019-08-13T08:01:30Z</time>
      </trkpt>
      <trkpt lat="39.9119550" lon="-4.1852360">
        <ele>450.3</ele>
        <time>2019-08-13T08:01:31Z</time>
      </trkpt>
      <trkpt lat="39.9119960" lon="-4.1852340">
        <ele>450.3</ele>
        <time>2019-08-13T08:01:32Z</time>
      </trkpt>
      <trkpt lat="39.9120380" lon="-4.1852320">
        <ele>450.4</ele>
        <time>2019-08-13T08:01:33Z</time>
      </trkpt>
      <trkpt lat="39.9120810" lon="-4.1852270">
        <ele>450.4</ele>
        <time>2019-08-13T08:01:34Z</time>
      </trkpt>
      <trkpt lat="39.9121260" lon="-4.1852210">
        <ele>450.4</ele>
        <time>2019-08-13T08:01:35Z</time>
      </trkpt>
      <trkpt lat="39.9121700" lon="-4.1852170">
        <ele>450.4</ele>
        <time>2019-08-13T08:01:36Z</time>
      </trkpt>
      <trkpt lat="39.9122150" lon="-4.1852160">
        <ele>450.4</ele>
        <time>2019-08-13T08:01:37Z</time>
      </trkpt>
      <trkpt lat="39.9122580" lon="-4.1852170">
        <ele>450.4</ele>
        <time>2019-08-13T08:01:38Z</time>
      </trkpt>
      <trkpt lat="39.9123040" lon="-4.1852210">
        <ele>450.4</ele>
        <time>2019-08-13T08:01:39Z</time>
      </trkpt>
      <trkpt lat="39.9123500" lon="-4.1852260">
        <ele>450.4</ele>
        <time>2019-08-13T08:01:40Z</time>
      </trkpt>
      <trkpt lat="39.9123960" lon="-4.1852310">
        <ele>450.4</ele>
        <time>2019-08-13T08:01:41Z</time>
      </trkpt>
      <trkpt lat="39.9124430" lon="-4.1852360">
        <ele>450.3</ele>
        <time>2019-08-13T08:01:42Z</time>
      </trkpt>
      <trkpt lat="39.9124910" lon="-4.1852420">
        <ele>450.3</ele>
        <time>2019-08-13T08:01:43Z</time>
      </trkpt>
      <trkpt lat="39.9125410" lon="-4.1852460">
        <ele>450.3</ele>
        <time>2019-08-13T08:01:44Z</time>
      </trkpt>
      <trkpt lat="39.9125920" lon="-4.1852500">
        <ele>450.2</ele>
        <time>2019-08-13T08:01:45Z</time>
      </trkpt>
      <trkpt lat="39.9126420" lon="-4.1852540">
        <ele>450.2</ele>
        <time>2019-08-13T08:01:46Z</time>
      </trkpt>
      <trkpt lat="39.9126920" lon="-4.1852600">
        <ele>450.1</ele>
        <time>2019-08-13T08:01:47Z</time>
      </trkpt>
      <trkpt lat="39.9127440" lon="-4.1852670">
        <ele>450.1</ele>
        <time>2019-08-13T08:01:48Z</time>
      </trkpt>
      <trkpt lat="39.9127960" lon="-4.1852720">
        <ele>450.1</ele>
        <time>2019-08-13T08:01:49Z</time>
      </trkpt>
      <trkpt lat="39.9128480" lon="-4.1852760">
        <ele>450.0</ele>
        <time>2019-08-13T08:01:50Z</time>
      </trkpt>
      <trkpt lat="39.9129000" lon="-4.1852800">
        <ele>450.0</ele>
        <time>2019-08-13T08:01:51Z</time>
      </trkpt>
      <trkpt lat="39.9129520" lon="-4.1852840">
        <ele>450.0</ele>
        <time>2019-08-13T08:01:52Z</time>
      </trkpt>
      <trkpt lat="39.9130050" lon="-4.1852880">
        <ele>449.9</ele>
        <time>2019-08-13T08:01:53Z</time>
      </trkpt>
      <trkpt lat="39.9130580" lon="-4.1852930">
        <ele>449.9</ele>
        <time>2019-08-13T08:01:54Z</time>
      </trkpt>
      <trkpt lat="39.9131120" lon="-4.1852970">
        <ele>449.8</ele>
        <time>2019-08-13T08:01:55Z</time>
      </trkpt>
      <trkpt lat="39.9131660" lon="-4.1853060">
        <ele>449.8</ele>
        <time>2019-08-13T08:01:56Z</time>
      </trkpt>
      <trkpt lat="39.9132200" lon="-4.1853130">
        <ele>449.8</ele>
        <time>2019-08-13T08:01:57Z</time>
      </trkpt>
      <trkpt lat="39.9132750" lon="-4.1853210">
        <ele>449.8</ele>
        <time>2019-08-13T08:01:58Z</time>
      </trkpt>
      <trkpt lat="39.9133280" lon="-4.1853300">
        <ele>449.8</ele>
        <time>2019-08-13T08:01:59Z</time>
      </trkpt>
      <trkpt lat="39.9133820" lon="-4.1853400">
        <ele>449.7</ele>
        <time>2019-08-13T08:02:00Z</time>
      </trkpt>
      <trkpt lat="39.9134360" lon="-4.1853500">
        <ele>449.7</ele>
        <time>2019-08-13T08:02:01Z</time>
      </trkpt>
      <trkpt lat="39.9134900" lon="-4.1853600">
        <ele>449.7</ele>
        <time>2019-08-13T08:02:02Z</time>
      </trkpt>
      <trkpt lat="39.9135440" lon="-4.1853720">
        <ele>449.7</ele>
        <time>2019-08-13T08:02:03Z</time>
      </trkpt>
      <trkpt lat="39.9135970" lon="-4.1853850">
        <ele>449.7</ele>
        <time>2019-08-13T08:02:04Z</time>
      </trkpt>
      <trkpt lat="39.9136500" lon="-4.1854000">
        <ele>449.7</ele>
        <time>2019-08-13T08:02:05Z</time>
      </trkpt>
      <trkpt lat="39.9137020" lon="-4.1854160">
        <ele>449.7</ele>
        <time>2019-08-13T08:02:06Z</time>
      </trkpt>
      <trkpt lat="39.9137530" lon="-4.1854320">
        <ele>449.7</ele>
        <time>2019-08-13T08:02:07Z</time>
      </trkpt>
      <trkpt lat="39.9138030" lon="-4.1854470">
        <ele>449.7</ele>
        <time>2019-08-13T08:02:08Z</time>
      </trkpt>
      <trkpt lat="39.9138500" lon="-4.1854630">
        <ele>449.7</ele>
        <time>2019-08-13T08:02:09Z</time>
      </trkpt>
      <trkpt lat="39.9138950" lon="-4.1854760">
        <ele>449.7</ele>
        <time>2019-08-13T08:02:10Z</time>
      </trkpt>
      <trkpt lat="39.9139420" lon="-4.1854910">
        <ele>449.7</ele>
        <time>2019-08-13T08:02:11Z</time>
      </trkpt>
      <trkpt lat="39.9139870" lon="-4.1855090">
        <ele>449.7</ele>
        <time>2019-08-13T08:02:12Z</time>
      </trkpt>
      <trkpt lat="39.9140300" lon="-4.1855270">
        <ele>449.7</ele>
        <time>2019-08-13T08:02:13Z</time>
      </trkpt>
      <trkpt lat="39.9140700" lon="-4.1855430">
        <ele>449.7</ele>
        <time>2019-08-13T08:02:14Z</time>
      </trkpt>
      <trkpt lat="39.9141110" lon="-4.1855570">
        <ele>449.7</ele>
        <time>2019-08-13T08:02:15Z</time>
      </trkpt>
      <trkpt lat="39.9141520" lon="-4.1855700">
        <ele>449.7</ele>
        <time>2019-08-13T08:02:16Z</time>
      </trkpt>
      <trkpt lat="39.9141940" lon="-4.1855790">
        <ele>449.7</ele>
        <time>2019-08-13T08:02:17Z</time>
      </trkpt>
      <trkpt lat="39.9142360" lon="-4.1855850">
        <ele>449.7</ele>
        <time>2019-08-13T08:02:18Z</time>
      </trkpt>
      <trkpt lat="39.9142800" lon="-4.1855890">
        <ele>449.7</ele>
        <time>2019-08-13T08:02:19Z</time>
      </trkpt>
      <trkpt lat="39.9143220" lon="-4.1855890">
        <ele>449.7</ele>
        <time>2019-08-13T08:02:20Z</time>
      </trkpt>
      <trkpt lat="39.9143620" lon="-4.1855850">
        <ele>449.7</ele>
        <time>2019-08-13T08:02:21Z</time>
      </trkpt>
      <trkpt lat="39.9143970" lon="-4.1855820">
        <ele>449.7</ele>
        <time>2019-08-13T08:02:22Z</time>
      </trkpt>
      <trkpt lat="39.9144270" lon="-4.1855800">
        <ele>449.7</ele>
        <time>2019-08-13T08:02:23Z</time>
      </trkpt>
      <trkpt lat="39.9144560" lon="-4.1855760">
        <ele>449.7</ele>
        <time>2019-08-13T08:02:24Z</time>
      </trkpt>
      <trkpt lat="39.9144890" lon="-4.1855680">
        <ele>449.8</ele>
        <time>2019-08-13T08:02:25Z</time>
      </trkpt>
      <trkpt lat="39.9145240" lon="-4.1855560">
        <ele>449.8</ele>
        <time>2019-08-13T08:02:26Z</time>
      </trkpt>
      <trkpt lat="39.9145600" lon="-4.1855410">
        <ele>449.8</ele>
        <time>2019-08-13T08:02:27Z</time>
      </trkpt>
      <trkpt lat="39.9145960" lon="-4.1855250">
        <ele>449.8</ele>
        <time>2019-08-13T08:02:28Z</time>
      </trkpt>
      <trkpt lat="39.9146340" lon="-4.1855110">
        <ele>449.8</ele>
        <time>2019-08-13T08:02:29Z</time>
      </trkpt>
      <trkpt lat="39.9146730" lon="-4.1854970">
        <ele>449.9</ele>
        <time>2019-08-13T08:02:30Z</time>
      </trkpt>
      <trkpt lat="39.9147120" lon="-4.1854830">
        <ele>449.9</ele>
        <time>2019-08-13T08:02:31Z</time>
      </trkpt>
      <trkpt lat="39.9147510" lon="-4.1854690">
        <ele>449.9</ele>
        <time>2019-08-13T08:02:32Z</time>
      </trkpt>
      <trkpt lat="39.9147930" lon="-4.1854550">
        <ele>450.0</ele>
        <time>2019-08-13T08:02:33Z</time>
      </trkpt>
      <trkpt lat="39.9148340" lon="-4.1854440">
        <ele>450.0</ele>
        <time>2019-08-13T08:02:34Z</time>
      </trkpt>
      <trkpt lat="39.9148750" lon="-4.1854310">
        <ele>450.1</ele>
        <time>2019-08-13T08:02:35Z</time>
      </trkpt>
      <trkpt lat="39.9149160" lon="-4.1854180">
        <ele>450.1</ele>
        <time>2019-08-13T08:02:36Z</time>
      </trkpt>
      <trkpt lat="39.9149570" lon="-4.1854060">
        <ele>450.2</ele>
        <time>2019-08-13T08:02:37Z</time>
      </trkpt>
      <trkpt lat="39.9149990" lon="-4.1853920">
        <ele>450.3</ele>
        <time>2019-08-13T08:02:38Z</time>
      </trkpt>
      <trkpt lat="39.9150420" lon="-4.1853800">
        <ele>450.3</ele>
        <time>2019-08-13T08:02:39Z</time>
      </trkpt>
      <trkpt lat="39.9150850" lon="-4.1853690">
        <ele>450.4</ele>
        <time>2019-08-13T08:02:40Z</time>
      </trkpt>
      <trkpt lat="39.9151280" lon="-4.1853570">
        <ele>450.5</ele>
        <time>2019-08-13T08:02:41Z</time>
      </trkpt>
      <trkpt lat="39.9151700" lon="-4.1853460">
        <ele>450.6</ele>
        <time>2019-08-13T08:02:42Z</time>
      </trkpt>
      <trkpt lat="39.9152120" lon="-4.1853360">
        <ele>450.7</ele>
        <time>2019-08-13T08:02:43Z</time>
      </trkpt>
      <trkpt lat="39.9152530" lon="-4.1853280">
        <ele>450.9</ele>
        <time>2019-08-13T08:02:44Z</time>
      </trkpt>
      <trkpt lat="39.9152940" lon="-4.1853180">
        <ele>451.0</ele>
        <time>2019-08-13T08:02:45Z</time>
      </trkpt>
      <trkpt lat="39.9153360" lon="-4.1853070">
        <ele>451.1</ele>
        <time>2019-08-13T08:02:46Z</time>
      </trkpt>
      <trkpt lat="39.9153750" lon="-4.1852980">
        <ele>451.2</ele>
        <time>2019-08-13T08:02:47Z</time>
      </trkpt>
      <trkpt lat="39.9154130" lon="-4.1852900">
        <ele>451.3</ele>
        <time>2019-08-13T08:02:48Z</time>
      </trkpt>
      <trkpt lat="39.9154500" lon="-4.1852810">
        <ele>451.4</ele>
        <time>2019-08-13T08:02:49Z</time>
      </trkpt>
      <trkpt lat="39.9154870" lon="-4.1852720">
        <ele>451.5</ele>
        <time>2019-08-13T08:02:50Z</time>
      </trkpt>
      <trkpt lat="39.9155230" lon="-4.1852650">
        <ele>451.6</ele>
        <time>2019-08-13T08:02:51Z</time>
      </trkpt>
      <trkpt lat="39.9155590" lon="-4.1852590">
        <ele>451.7</ele>
        <time>2019-08-13T08:02:52Z</time>
      </trkpt>
      <trkpt lat="39.9155960" lon="-4.1852540">
        <ele>451.8</ele>
        <time>2019-08-13T08:02:53Z</time>
      </trkpt>
      <trkpt lat="39.9156320" lon="-4.1852500">
        <ele>451.9</ele>
        <time>2019-08-13T08:02:54Z</time>
      </trkpt>
      <trkpt lat="39.9156670" lon="-4.1852430">
        <ele>452.0</ele>
        <time>2019-08-13T08:02:55Z</time>
      </trkpt>
      <trkpt lat="39.9157010" lon="-4.1852400">
        <ele>452.1</ele>
        <time>2019-08-13T08:02:56Z</time>
      </trkpt>
      <trkpt lat="39.9157390" lon="-4.1852370">
        <ele>452.2</ele>
        <time>2019-08-13T08:02:57Z</time>
      </trkpt>
      <trkpt lat="39.9157750" lon="-4.1852340">
        <ele>452.3</ele>
        <time>2019-08-13T08:02:58Z</time>
      </trkpt>
      <trkpt lat="39.9158110" lon="-4.1852310">
        <ele>452.5</ele>
        <time>2019-08-13T08:02:59Z</time>
      </trkpt>
      <trkpt lat="39.9158460" lon="-4.1852280">
        <ele>452.7</ele>
        <time>2019-08-13T08:03:00Z</time>
      </trkpt>
      <trkpt lat="39.9158810" lon="-4.1852250">
        <ele>452.7</ele>
        <time>2019-08-13T08:03:01Z</time>
      </trkpt>
      <trkpt lat="39.9159170" lon="-4.1852210">
        <ele>452.8</ele>
        <time>2019-08-13T08:03:02Z</time>
      </trkpt>
      <trkpt lat="39.9159540" lon="-4.1852160">
        <ele>452.9</ele>
        <time>2019-08-13T08:03:03Z</time>
      </trkpt>
      <trkpt lat="39.9159900" lon="-4.1852090">
        <ele>452.9</ele>
        <time>2019-08-13T08:03:04Z</time>
      </trkpt>
      <trkpt lat="39.9160230" lon="-4.1852050">
        <ele>453.0</ele>
        <time>2019-08-13T08:03:05Z</time>
      </trkpt>
      <trkpt lat="39.9160580" lon="-4.1852030">
        <ele>453.0</ele>
        <time>2019-08-13T08:03:06Z</time>
      </trkpt>
      <trkpt lat="39.9160950" lon="-4.1852000">
        <ele>453.1</ele>
        <time>2019-08-13T08:03:07Z</time>
      </trkpt>
      <trkpt lat="39.9161330" lon="-4.1851920">
        <ele>453.0</ele>
        <time>2019-08-13T08:03:08Z</time>
      </trkpt>
      <trkpt lat="39.9161710" lon="-4.1851840">
        <ele>453.0</ele>
        <time>2019-08-13T08:03:09Z</time>
      </trkpt>
      <trkpt lat="39.9162090" lon="-4.1851740">
        <ele>453.0</ele>
        <time>2019-08-13T08:03:10Z</time>
      </trkpt>
      <trkpt lat="39.9162480" lon="-4.1851680">
        <ele>452.9</ele>
        <time>2019-08-13T08:03:11Z</time>
      </trkpt>
      <trkpt lat="39.9162890" lon="-4.1851620">
        <ele>452.9</ele>
        <time>2019-08-13T08:03:12Z</time>
      </trkpt>
      <trkpt lat="39.9163340" lon="-4.1851530">
        <ele>452.8</ele>
        <time>2019-08-13T08:03:13Z</time>
      </trkpt>
      <trkpt lat="39.9163850" lon="-4.1851450">
        <ele>452.7</ele>
        <time>2019-08-13T08:03:14Z</time>
      </trkpt>
      <trkpt lat="39.9164340" lon="-4.1851380">
        <ele>452.6</ele>
        <time>2019-08-13T08:03:15Z</time>
      </trkpt>
      <trkpt lat="39.9164810" lon="-4.1851360">
        <ele>452.5</ele>
        <time>2019-08-13T08:03:16Z</time>
      </trkpt>
      <trkpt lat="39.9165300" lon="-4.1851340">
        <ele>452.5</ele>
        <time>2019-08-13T08:03:17Z</time>
      </trkpt>
      <trkpt lat="39.9165800" lon="-4.1851360">
        <ele>452.4</ele>
        <time>2019-08-13T08:03:18Z</time>
      </trkpt>
      <trkpt lat="39.9166260" lon="-4.1851380">
        <ele>452.3</ele>
        <time>2019-08-13T08:03:19Z</time>
      </trkpt>
      <trkpt lat="39.9166670" lon="-4.1851370">
        <ele>452.3</ele>
        <time>2019-08-13T08:03:20Z</time>
      </trkpt>
      <trkpt lat="39.9167140" lon="-4.1851370">
        <ele>452.2</ele>
        <time>2019-08-13T08:03:21Z</time>
      </trkpt>
      <trkpt lat="39.9167600" lon="-4.1851370">
        <ele>452.1</ele>
        <time>2019-08-13T08:03:22Z</time>
      </trkpt>
      <trkpt lat="39.9168030" lon="-4.1851390">
        <ele>452.1</ele>
        <time>2019-08-13T08:03:23Z</time>
      </trkpt>
      <trkpt lat="39.9168480" lon="-4.1851430">
        <ele>452.0</ele>
        <time>2019-08-13T08:03:24Z</time>
      </trkpt>
      <trkpt lat="39.9168930" lon="-4.1851600">
        <ele>451.9</ele>
        <time>2019-08-13T08:03:25Z</time>
      </trkpt>
      <trkpt lat="39.9169340" lon="-4.1851770">
        <ele>451.8</ele>
        <time>2019-08-13T08:03:26Z</time>
      </trkpt>
      <trkpt lat="39.9169770" lon="-4.1852010">
        <ele>451.6</ele>
        <time>2019-08-13T08:03:27Z</time>
      </trkpt>
      <trkpt lat="39.9170220" lon="-4.1852270">
        <ele>451.6</ele>
        <time>2019-08-13T08:03:28Z</time>
      </trkpt>
      <trkpt lat="39.9170670" lon="-4.1852430">
        <ele>451.6</ele>
        <time>2019-08-13T08:03:29Z</time>
      </trkpt>
      <trkpt lat="39.9171090" lon="-4.1852570">
        <ele>451.6</ele>
        <time>2019-08-13T08:03:30Z</time>
      </trkpt>
      <trkpt lat="39.9171490" lon="-4.1852720">
        <ele>451.6</ele>
        <time>2019-08-13T08:03:31Z</time>
      </trkpt>
      <trkpt lat="39.9171910" lon="-4.1852850">
        <ele>451.6</ele>
        <time>2019-08-13T08:03:32Z</time>
      </trkpt>
      <trkpt lat="39.9172320" lon="-4.1852940">
        <ele>451.6</ele>
        <time>2019-08-13T08:03:33Z</time>
      </trkpt>
      <trkpt lat="39.9172730" lon="-4.1853050">
        <ele>451.6</ele>
        <time>2019-08-13T08:03:34Z</time>
      </trkpt>
      <trkpt lat="39.9173150" lon="-4.1853190">
        <ele>451.6</ele>
        <time>2019-08-13T08:03:35Z</time>
      </trkpt>
      <trkpt lat="39.9173570" lon="-4.1853320">
        <ele>451.6</ele>
        <time>2019-08-13T08:03:36Z</time>
      </trkpt>
      <trkpt lat="39.9173990" lon="-4.1853430">
        <ele>451.6</ele>
        <time>2019-08-13T08:03:37Z</time>
      </trkpt>
      <trkpt lat="39.9174400" lon="-4.1853550">
        <ele>451.6</ele>
        <time>2019-08-13T08:03:38Z</time>
      </trkpt>
      <trkpt lat="39.9174820" lon="-4.1853680">
        <ele>451.6</ele>
        <time>2019-08-13T08:03:39Z</time>
      </trkpt>
      <trkpt lat="39.9175230" lon="-4.1853850">
        <ele>451.7</ele>
        <time>2019-08-13T08:03:40Z</time>
      </trkpt>
      <trkpt lat="39.9175650" lon="-4.1854000">
        <ele>451.8</ele>
        <time>2019-08-13T08:03:41Z</time>
      </trkpt>
      <trkpt lat="39.9176060" lon="-4.1854140">
        <ele>451.8</ele>
        <time>2019-08-13T08:03:42Z</time>
      </trkpt>
      <trkpt lat="39.9176460" lon="-4.1854270">
        <ele>451.9</ele>
        <time>2019-08-13T08:03:43Z</time>
      </trkpt>
      <trkpt lat="39.9176860" lon="-4.1854410">
        <ele>452.1</ele>
        <time>2019-08-13T08:03:44Z</time>
      </trkpt>
      <trkpt lat="39.9177250" lon="-4.1854560">
        <ele>452.2</ele>
        <time>2019-08-13T08:03:45Z</time>
      </trkpt>
      <trkpt lat="39.9177630" lon="-4.1854670">
        <ele>452.4</ele>
        <time>2019-08-13T08:03:46Z</time>
      </trkpt>
      <trkpt lat="39.9178010" lon="-4.1854790">
        <ele>452.5</ele>
        <time>2019-08-13T08:03:47Z</time>
      </trkpt>
      <trkpt lat="39.9178390" lon="-4.1854890">
        <ele>452.7</ele>
        <time>2019-08-13T08:03:48Z</time>
      </trkpt>
      <trkpt lat="39.9178760" lon="-4.1855010">
        <ele>452.9</ele>
        <time>2019-08-13T08:03:49Z</time>
      </trkpt>
      <trkpt lat="39.9179120" lon="-4.1855130">
        <ele>453.1</ele>
        <time>2019-08-13T08:03:50Z</time>
      </trkpt>
      <trkpt lat="39.9179490" lon="-4.1855250">
        <ele>453.2</ele>
        <time>2019-08-13T08:03:51Z</time>
      </trkpt>
      <trkpt lat="39.9179850" lon="-4.1855370">
        <ele>453.4</ele>
        <time>2019-08-13T08:03:52Z</time>
      </trkpt>
      <trkpt lat="39.9180210" lon="-4.1855490">
        <ele>453.6</ele>
        <time>2019-08-13T08:03:53Z</time>
      </trkpt>
      <trkpt lat="39.9180570" lon="-4.1855610">
        <ele>453.8</ele>
        <time>2019-08-13T08:03:54Z</time>
      </trkpt>
      <trkpt lat="39.9180930" lon="-4.1855720">
        <ele>453.9</ele>
        <time>2019-08-13T08:03:55Z</time>
      </trkpt>
      <trkpt lat="39.9181300" lon="-4.1855830">
        <ele>454.1</ele>
        <time>2019-08-13T08:03:56Z</time>
      </trkpt>
      <trkpt lat="39.9181670" lon="-4.1855940">
        <ele>454.3</ele>
        <time>2019-08-13T08:03:57Z</time>
      </trkpt>
      <trkpt lat="39.9182040" lon="-4.1856070">
        <ele>454.4</ele>
        <time>2019-08-13T08:03:58Z</time>
      </trkpt>
      <trkpt lat="39.9182400" lon="-4.1856200">
        <ele>454.6</ele>
        <time>2019-08-13T08:03:59Z</time>
      </trkpt>
      <trkpt lat="39.9182780" lon="-4.1856320">
        <ele>454.7</ele>
        <time>2019-08-13T08:04:00Z</time>
      </trkpt>
      <trkpt lat="39.9183150" lon="-4.1856450">
        <ele>454.8</ele>
        <time>2019-08-13T08:04:01Z</time>
      </trkpt>
      <trkpt lat="39.9183530" lon="-4.1856590">
        <ele>454.9</ele>
        <time>2019-08-13T08:04:02Z</time>
      </trkpt>
      <trkpt lat="39.9183910" lon="-4.1856740">
        <ele>454.9</ele>
        <time>2019-08-13T08:04:03Z</time>
      </trkpt>
      <trkpt lat="39.9184300" lon="-4.1856890">
        <ele>455.0</ele>
        <time>2019-08-13T08:04:04Z</time>
      </trkpt>
      <trkpt lat="39.9184690" lon="-4.1857010">
        <ele>455.1</ele>
        <time>2019-08-13T08:04:05Z</time>
      </trkpt>
      <trkpt lat="39.9185090" lon="-4.1857140">
        <ele>455.2</ele>
        <time>2019-08-13T08:04:06Z</time>
      </trkpt>
      <trkpt lat="39.9185480" lon="-4.1857280">
        <ele>455.3</ele>
        <time>2019-08-13T08:04:07Z</time>
      </trkpt>
      <trkpt lat="39.9185890" lon="-4.1857400">
        <ele>455.3</ele>
        <time>2019-08-13T08:04:08Z</time>
      </trkpt>
      <trkpt lat="39.9186300" lon="-4.1857540">
        <ele>455.4</ele>
        <time>2019-08-13T08:04:09Z</time>
      </trkpt>
      <trkpt lat="39.9186700" lon="-4.1857700">
        <ele>455.5</ele>
        <time>2019-08-13T08:04:10Z</time>
      </trkpt>
      <trkpt lat="39.9187120" lon="-4.1857860">
        <ele>455.5</ele>
        <time>2019-08-13T08:04:11Z</time>
      </trkpt>
      <trkpt lat="39.9187540" lon="-4.1858020">
        <ele>455.6</ele>
        <time>2019-08-13T08:04:12Z</time>
      </trkpt>
      <trkpt lat="39.9187950" lon="-4.1858190">
        <ele>455.6</ele>
        <time>2019-08-13T08:04:13Z</time>
      </trkpt>
      <trkpt lat="39.9188370" lon="-4.1858340">
        <ele>455.7</ele>
        <time>2019-08-13T08:04:14Z</time>
      </trkpt>
      <trkpt lat="39.9188780" lon="-4.1858510">
        <ele>455.7</ele>
        <time>2019-08-13T08:04:15Z</time>
      </trkpt>
      <trkpt lat="39.9189190" lon="-4.1858660">
        <ele>455.7</ele>
        <time>2019-08-13T08:04:16Z</time>
      </trkpt>
      <trkpt lat="39.9189590" lon="-4.1858810">
        <ele>455.8</ele>
        <time>2019-08-13T08:04:17Z</time>
      </trkpt>
      <trkpt lat="39.9189980" lon="-4.1858940">
        <ele>455.8</ele>
        <time>2019-08-13T08:04:18Z</time>
      </trkpt>
      <trkpt lat="39.9190360" lon="-4.1859050">
        <ele>455.9</ele>
        <time>2019-08-13T08:04:19Z</time>
      </trkpt>
      <trkpt lat="39.9190740" lon="-4.1859170">
        <ele>455.9</ele>
        <time>2019-08-13T08:04:20Z</time>
      </trkpt>
      <trkpt lat="39.9191130" lon="-4.1859300">
        <ele>456.0</ele>
        <time>2019-08-13T08:04:21Z</time>
      </trkpt>
      <trkpt lat="39.9191510" lon="-4.1859420">
        <ele>456.0</ele>
        <time>2019-08-13T08:04:22Z</time>
      </trkpt>
      <trkpt lat="39.9191900" lon="-4.1859570">
        <ele>456.1</ele>
        <time>2019-08-13T08:04:23Z</time>
      </trkpt>
      <trkpt lat="39.9192280" lon="-4.1859710">
        <ele>456.2</ele>
        <time>2019-08-13T08:04:24Z</time>
      </trkpt>
      <trkpt lat="39.9192680" lon="-4.1859840">
        <ele>456.3</ele>
        <time>2019-08-13T08:04:25Z</time>
      </trkpt>
      <trkpt lat="39.9193090" lon="-4.1859980">
        <ele>456.4</ele>
        <time>2019-08-13T08:04:26Z</time>
      </trkpt>
      <trkpt lat="39.9193510" lon="-4.1860110">
        <ele>456.5</ele>
        <time>2019-08-13T08:04:27Z</time>
      </trkpt>
      <trkpt lat="39.9193920" lon="-4.1860250">
        <ele>456.6</ele>
        <time>2019-08-13T08:04:28Z</time>
      </trkpt>
      <trkpt lat="39.9194370" lon="-4.1860380">
        <ele>456.6</ele>
        <time>2019-08-13T08:04:29Z</time>
      </trkpt>
      <trkpt lat="39.9194800" lon="-4.1860520">
        <ele>456.7</ele>
        <time>2019-08-13T08:04:30Z</time>
      </trkpt>
      <trkpt lat="39.9195220" lon="-4.1860680">
        <ele>456.8</ele>
        <time>2019-08-13T08:04:31Z</time>
      </trkpt>
      <trkpt lat="39.9195630" lon="-4.1860830">
        <ele>456.8</ele>
        <time>2019-08-13T08:04:32Z</time>
      </trkpt>
      <trkpt lat="39.9196060" lon="-4.1860970">
        <ele>456.8</ele>
        <time>2019-08-13T08:04:33Z</time>
      </trkpt>
      <trkpt lat="39.9196510" lon="-4.1861130">
        <ele>456.9</ele>
        <time>2019-08-13T08:04:34Z</time>
      </trkpt>
      <trkpt lat="39.9196940" lon="-4.1861270">
        <ele>456.9</ele>
        <time>2019-08-13T08:04:35Z</time>
      </trkpt>
      <trkpt lat="39.9197360" lon="-4.1861410">
        <ele>457.0</ele>
        <time>2019-08-13T08:04:36Z</time>
      </trkpt>
      <trkpt lat="39.9197790" lon="-4.1861550">
        <ele>457.0</ele>
        <time>2019-08-13T08:04:37Z</time>
      </trkpt>
      <trkpt lat="39.9198210" lon="-4.1861680">
        <ele>457.0</ele>
        <time>2019-08-13T08:04:38Z</time>
      </trkpt>
      <trkpt lat="39.9198640" lon="-4.1861840">
        <ele>457.1</ele>
        <time>2019-08-13T08:04:39Z</time>
      </trkpt>
      <trkpt lat="39.9199060" lon="-4.1862000">
        <ele>457.1</ele>
        <time>2019-08-13T08:04:40Z</time>
      </trkpt>
      <trkpt lat="39.9199490" lon="-4.1862150">
        <ele>457.1</ele>
        <time>2019-08-13T08:04:41Z</time>
      </trkpt>
      <trkpt lat="39.9199920" lon="-4.1862280">
        <ele>457.2</ele>
        <time>2019-08-13T08:04:42Z</time>
      </trkpt>
      <trkpt lat="39.9200350" lon="-4.1862430">
        <ele>457.2</ele>
        <time>2019-08-13T08:04:43Z</time>
      </trkpt>
      <trkpt lat="39.9200780" lon="-4.1862570">
        <ele>457.3</ele>
        <time>2019-08-13T08:04:44Z</time>
      </trkpt>
      <trkpt lat="39.9201210" lon="-4.1862730">
        <ele>457.4</ele>
        <time>2019-08-13T08:04:45Z</time>
      </trkpt>
      <trkpt lat="39.9201640" lon="-4.1862890">
        <ele>457.4</ele>
        <time>2019-08-13T08:04:46Z</time>
      </trkpt>
      <trkpt lat="39.9202080" lon="-4.1863030">
        <ele>457.5</ele>
        <time>2019-08-13T08:04:47Z</time>
      </trkpt>
      <trkpt lat="39.9202500" lon="-4.1863170">
        <ele>457.5</ele>
        <time>2019-08-13T08:04:48Z</time>
      </trkpt>
      <trkpt lat="39.9202920" lon="-4.1863330">
        <ele>457.6</ele>
        <time>2019-08-13T08:04:49Z</time>
      </trkpt>
      <trkpt lat="39.9203330" lon="-4.1863470">
        <ele>457.7</ele>
        <time>2019-08-13T08:04:50Z</time>
      </trkpt>
      <trkpt lat="39.9203740" lon="-4.1863610">
        <ele>457.7</ele>
        <time>2019-08-13T08:04:51Z</time>
      </trkpt>
      <trkpt lat="39.9204140" lon="-4.1863750">
        <ele>457.7</ele>
        <time>2019-08-13T08:04:52Z</time>
      </trkpt>
      <trkpt lat="39.9204550" lon="-4.1863890">
        <ele>457.8</ele>
        <time>2019-08-13T08:04:53Z</time>
      </trkpt>
      <trkpt lat="39.9204960" lon="-4.1864030">
        <ele>457.8</ele>
        <time>2019-08-13T08:04:54Z</time>
      </trkpt>
      <trkpt lat="39.9205370" lon="-4.1864160">
        <ele>457.8</ele>
        <time>2019-08-13T08:04:55Z</time>
      </trkpt>
      <trkpt lat="39.9205800" lon="-4.1864290">
        <ele>457.8</ele>
        <time>2019-08-13T08:04:56Z</time>
      </trkpt>
      <trkpt lat="39.9206230" lon="-4.1864410">
        <ele>457.8</ele>
        <time>2019-08-13T08:04:57Z</time>
      </trkpt>
      <trkpt lat="39.9206670" lon="-4.1864540">
        <ele>457.9</ele>
        <time>2019-08-13T08:04:58Z</time>
      </trkpt>
      <trkpt lat="39.9207140" lon="-4.1864680">
        <ele>457.9</ele>
        <time>2019-08-13T08:04:59Z</time>
      </trkpt>
      <trkpt lat="39.9207610" lon="-4.1864830">
        <ele>457.9</ele>
        <time>2019-08-13T08:05:00Z</time>
      </trkpt>
      <trkpt lat="39.9208050" lon="-4.1864980">
        <ele>457.9</ele>
        <time>2019-08-13T08:05:01Z</time>
      </trkpt>
      <trkpt lat="39.9208500" lon="-4.1865130">
        <ele>457.9</ele>
        <time>2019-08-13T08:05:02Z</time>
      </trkpt>
      <trkpt lat="39.9208970" lon="-4.1865280">
        <ele>457.8</ele>
        <time>2019-08-13T08:05:03Z</time>
      </trkpt>
      <trkpt lat="39.9209430" lon="-4.1865420">
        <ele>457.8</ele>
        <time>2019-08-13T08:05:04Z</time>
      </trkpt>
      <trkpt lat="39.9209900" lon="-4.1865560">
        <ele>457.8</ele>
        <time>2019-08-13T08:05:05Z</time>
      </trkpt>
      <trkpt lat="39.9210360" lon="-4.1865710">
        <ele>457.8</ele>
        <time>2019-08-13T08:05:06Z</time>
      </trkpt>
      <trkpt lat="39.9210820" lon="-4.1865870">
        <ele>457.8</ele>
        <time>2019-08-13T08:05:07Z</time>
      </trkpt>
      <trkpt lat="39.9211290" lon="-4.1866040">
        <ele>457.7</ele>
        <time>2019-08-13T08:05:08Z</time>
      </trkpt>
      <trkpt lat="39.9211760" lon="-4.1866200">
        <ele>457.7</ele>
        <time>2019-08-13T08:05:09Z</time>
      </trkpt>
      <trkpt lat="39.9212220" lon="-4.1866370">
        <ele>457.7</ele>
        <time>2019-08-13T08:05:10Z</time>
      </trkpt>
      <trkpt lat="39.9212690" lon="-4.1866530">
        <ele>457.6</ele>
        <time>2019-08-13T08:05:11Z</time>
      </trkpt>
      <trkpt lat="39.9213140" lon="-4.1866690">
        <ele>457.6</ele>
        <time>2019-08-13T08:05:12Z</time>
      </trkpt>
      <trkpt lat="39.9213600" lon="-4.1866840">
        <ele>457.6</ele>
        <time>2019-08-13T08:05:13Z</time>
      </trkpt>
      <trkpt lat="39.9214060" lon="-4.1866990">
        <ele>457.5</ele>
        <time>2019-08-13T08:05:14Z</time>
      </trkpt>
      <trkpt lat="39.9214510" lon="-4.1867150">
        <ele>457.5</ele>
        <time>2019-08-13T08:05:15Z</time>
      </trkpt>
      <trkpt lat="39.9214960" lon="-4.1867300">
        <ele>457.5</ele>
        <time>2019-08-13T08:05:16Z</time>
      </trkpt>
      <trkpt lat="39.9215410" lon="-4.1867450">
        <ele>457.5</ele>
        <time>2019-08-13T08:05:17Z</time>
      </trkpt>
      <trkpt lat="39.9215870" lon="-4.1867610">
        <ele>457.5</ele>
        <time>2019-08-13T08:05:18Z</time>
      </trkpt>
      <trkpt lat="39.9216320" lon="-4.1867780">
        <ele>457.5</ele>
        <time>2019-08-13T08:05:19Z</time>
      </trkpt>
      <trkpt lat="39.9216770" lon="-4.1867930">
        <ele>457.6</ele>
        <time>2019-08-13T08:05:20Z</time>
      </trkpt>
      <trkpt lat="39.9217230" lon="-4.1868070">
        <ele>457.6</ele>
        <time>2019-08-13T08:05:21Z</time>
      </trkpt>
      <trkpt lat="39.9217700" lon="-4.1868210">
        <ele>457.6</ele>
        <time>2019-08-13T08:05:22Z</time>
      </trkpt>
      <trkpt lat="39.9218160" lon="-4.1868360">
        <ele>457.6</ele>
        <time>2019-08-13T08:05:23Z</time>
      </trkpt>
      <trkpt lat="39.9218610" lon="-4.1868510">
        <ele>457.7</ele>
        <time>2019-08-13T08:05:24Z</time>
      </trkpt>
      <trkpt lat="39.9219060" lon="-4.1868680">
        <ele>457.7</ele>
        <time>2019-08-13T08:05:25Z</time>
      </trkpt>
      <trkpt lat="39.9219520" lon="-4.1868840">
        <ele>457.8</ele>
        <time>2019-08-13T08:05:26Z</time>
      </trkpt>
      <trkpt lat="39.9220000" lon="-4.1868980">
        <ele>457.8</ele>
        <time>2019-08-13T08:05:27Z</time>
      </trkpt>
      <trkpt lat="39.9220480" lon="-4.1869120">
        <ele>457.9</ele>
        <time>2019-08-13T08:05:28Z</time>
      </trkpt>
      <trkpt lat="39.9220970" lon="-4.1869280">
        <ele>458.0</ele>
        <time>2019-08-13T08:05:29Z</time>
      </trkpt>
      <trkpt lat="39.9221460" lon="-4.1869460">
        <ele>458.0</ele>
        <time>2019-08-13T08:05:30Z</time>
      </trkpt>
      <trkpt lat="39.9221950" lon="-4.1869630">
        <ele>458.0</ele>
        <time>2019-08-13T08:05:31Z</time>
      </trkpt>
      <trkpt lat="39.9222440" lon="-4.1869780">
        <ele>458.1</ele>
        <time>2019-08-13T08:05:32Z</time>
      </trkpt>
      <trkpt lat="39.9222920" lon="-4.1869960">
        <ele>458.1</ele>
        <time>2019-08-13T08:05:33Z</time>
      </trkpt>
      <trkpt lat="39.9223420" lon="-4.1870150">
        <ele>458.1</ele>
        <time>2019-08-13T08:05:34Z</time>
      </trkpt>
      <trkpt lat="39.9223920" lon="-4.1870330">
        <ele>458.1</ele>
        <time>2019-08-13T08:05:35Z</time>
      </trkpt>
      <trkpt lat="39.9224410" lon="-4.1870510">
        <ele>458.1</ele>
        <time>2019-08-13T08:05:36Z</time>
      </trkpt>
      <trkpt lat="39.9224890" lon="-4.1870680">
        <ele>458.1</ele>
        <time>2019-08-13T08:05:37Z</time>
      </trkpt>
      <trkpt lat="39.9225380" lon="-4.1870880">
        <ele>458.1</ele>
        <time>2019-08-13T08:05:38Z</time>
      </trkpt>
      <trkpt lat="39.9225880" lon="-4.1871060">
        <ele>458.1</ele>
        <time>2019-08-13T08:05:39Z</time>
      </trkpt>
      <trkpt lat="39.9226380" lon="-4.1871230">
        <ele>458.1</ele>
        <time>2019-08-13T08:05:40Z</time>
      </trkpt>
      <trkpt lat="39.9226890" lon="-4.1871390">
        <ele>458.1</ele>
        <time>2019-08-13T08:05:41Z</time>
      </trkpt>
      <trkpt lat="39.9227390" lon="-4.1871540">
        <ele>458.0</ele>
        <time>2019-08-13T08:05:42Z</time>
      </trkpt>
      <trkpt lat="39.9227870" lon="-4.1871700">
        <ele>458.0</ele>
        <time>2019-08-13T08:05:43Z</time>
      </trkpt>
      <trkpt lat="39.9228340" lon="-4.1871860">
        <ele>458.0</ele>
        <time>2019-08-13T08:05:44Z</time>
      </trkpt>
      <trkpt lat="39.9228810" lon="-4.1872020">
        <ele>458.0</ele>
        <time>2019-08-13T08:05:45Z</time>
      </trkpt>
      <trkpt lat="39.9229260" lon="-4.1872200">
        <ele>458.0</ele>
        <time>2019-08-13T08:05:46Z</time>
      </trkpt>
      <trkpt lat="39.9229720" lon="-4.1872360">
        <ele>458.1</ele>
        <time>2019-08-13T08:05:47Z</time>
      </trkpt>
      <trkpt lat="39.9230160" lon="-4.1872540">
        <ele>458.1</ele>
        <time>2019-08-13T08:05:48Z</time>
      </trkpt>
      <trkpt lat="39.9230620" lon="-4.1872720">
        <ele>458.1</ele>
        <time>2019-08-13T08:05:49Z</time>
      </trkpt>
      <trkpt lat="39.9231090" lon="-4.1872880">
        <ele>458.2</ele>
        <time>2019-08-13T08:05:50Z</time>
      </trkpt>
      <trkpt lat="39.9231550" lon="-4.1873040">
        <ele>458.3</ele>
        <time>2019-08-13T08:05:51Z</time>
      </trkpt>
      <trkpt lat="39.9232010" lon="-4.1873190">
        <ele>458.3</ele>
        <time>2019-08-13T08:05:52Z</time>
      </trkpt>
      <trkpt lat="39.9232460" lon="-4.1873350">
        <ele>458.4</ele>
        <time>2019-08-13T08:05:53Z</time>
      </trkpt>
      <trkpt lat="39.9232920" lon="-4.1873510">
        <ele>458.4</ele>
        <time>2019-08-13T08:05:54Z</time>
      </trkpt>
      <trkpt lat="39.9233390" lon="-4.1873670">
        <ele>458.5</ele>
        <time>2019-08-13T08:05:55Z</time>
      </trkpt>
      <trkpt lat="39.9233860" lon="-4.1873830">
        <ele>458.6</ele>
        <time>2019-08-13T08:05:56Z</time>
      </trkpt>
      <trkpt lat="39.9234330" lon="-4.1873980">
        <ele>458.6</ele>
        <time>2019-08-13T08:05:57Z</time>
      </trkpt>
      <trkpt lat="39.9234820" lon="-4.1874130">
        <ele>458.7</ele>
        <time>2019-08-13T08:05:58Z</time>
      </trkpt>
      <trkpt lat="39.9235290" lon="-4.1874270">
        <ele>458.7</ele>
        <time>2019-08-13T08:05:59Z</time>
      </trkpt>
      <trkpt lat="39.9235760" lon="-4.1874420">
        <ele>458.8</ele>
        <time>2019-08-13T08:06:00Z</time>
      </trkpt>
      <trkpt lat="39.9236220" lon="-4.1874550">
        <ele>458.9</ele>
        <time>2019-08-13T08:06:01Z</time>
      </trkpt>
      <trkpt lat="39.9236700" lon="-4.1874660">
        <ele>458.9</ele>
        <time>2019-08-13T08:06:02Z</time>
      </trkpt>
      <trkpt lat="39.9237190" lon="-4.1874760">
        <ele>459.0</ele>
        <time>2019-08-13T08:06:03Z</time>
      </trkpt>
      <trkpt lat="39.9237660" lon="-4.1874850">
        <ele>459.1</ele>
        <time>2019-08-13T08:06:04Z</time>
      </trkpt>
      <trkpt lat="39.9238130" lon="-4.1874920">
        <ele>459.2</ele>
        <time>2019-08-13T08:06:05Z</time>
      </trkpt>
      <trkpt lat="39.9238580" lon="-4.1874960">
        <ele>459.3</ele>
        <time>2019-08-13T08:06:06Z</time>
      </trkpt>
      <trkpt lat="39.9239030" lon="-4.1874990">
        <ele>459.4</ele>
        <time>2019-08-13T08:06:07Z</time>
      </trkpt>
      <trkpt lat="39.9239480" lon="-4.1874970">
        <ele>459.6</ele>
        <time>2019-08-13T08:06:08Z</time>
      </trkpt>
      <trkpt lat="39.9239930" lon="-4.1874930">
        <ele>459.7</ele>
        <time>2019-08-13T08:06:09Z</time>
      </trkpt>
      <trkpt lat="39.9240370" lon="-4.1874880">
        <ele>459.8</ele>
        <time>2019-08-13T08:06:10Z</time>
      </trkpt>
      <trkpt lat="39.9240810" lon="-4.1874810">
        <ele>459.9</ele>
        <time>2019-08-13T08:06:11Z</time>
      </trkpt>
      <trkpt lat="39.9241270" lon="-4.1874750">
        <ele>460.1</ele>
        <time>2019-08-13T08:06:12Z</time>
      </trkpt>
      <trkpt lat="39.9241750" lon="-4.1874700">
        <ele>460.2</ele>
        <time>2019-08-13T08:06:13Z</time>
      </trkpt>
      <trkpt lat="39.9242210" lon="-4.1874620">
        <ele>460.2</ele>
        <time>2019-08-13T08:06:14Z</time>
      </trkpt>
      <trkpt lat="39.9242700" lon="-4.1874560">
        <ele>460.3</ele>
        <time>2019-08-13T08:06:15Z</time>
      </trkpt>
      <trkpt lat="39.9243200" lon="-4.1874460">
        <ele>460.3</ele>
        <time>2019-08-13T08:06:16Z</time>
      </trkpt>
      <trkpt lat="39.9243710" lon="-4.1874400">
        <ele>460.3</ele>
        <time>2019-08-13T08:06:17Z</time>
      </trkpt>
      <trkpt lat="39.9244210" lon="-4.1874320">
        <ele>460.3</ele>
        <time>2019-08-13T08:06:18Z</time>
      </trkpt>
      <trkpt lat="39.9244710" lon="-4.1874250">
        <ele>460.3</ele>
        <time>2019-08-13T08:06:19Z</time>
      </trkpt>
      <trkpt lat="39.9245210" lon="-4.1874170">
        <ele>460.3</ele>
        <time>2019-08-13T08:06:20Z</time>
      </trkpt>
      <trkpt lat="39.9245720" lon="-4.1874070">
        <ele>460.3</ele>
        <time>2019-08-13T08:06:21Z</time>
      </trkpt>
      <trkpt lat="39.9246240" lon="-4.1873960">
        <ele>460.2</ele>
        <time>2019-08-13T08:06:22Z</time>
      </trkpt>
      <trkpt lat="39.9246750" lon="-4.1873870">
        <ele>460.2</ele>
        <time>2019-08-13T08:06:23Z</time>
      </trkpt>
      <trkpt lat="39.9247270" lon="-4.1873790">
        <ele>460.1</ele>
        <time>2019-08-13T08:06:24Z</time>
      </trkpt>
      <trkpt lat="39.9247770" lon="-4.1873720">
        <ele>460.0</ele>
        <time>2019-08-13T08:06:25Z</time>
      </trkpt>
      <trkpt lat="39.9248180" lon="-4.1873690">
        <ele>460.0</ele>
        <time>2019-08-13T08:06:26Z</time>
      </trkpt>
      <trkpt lat="39.9248460" lon="-4.1873680">
        <ele>460.0</ele>
        <time>2019-08-13T08:06:28Z</time>
      </trkpt>
      <trkpt lat="39.9249120" lon="-4.1873500">
        <ele>459.9</ele>
        <time>2019-08-13T08:09:01Z</time>
      </trkpt>
      <trkpt lat="39.9249400" lon="-4.1873480">
        <ele>459.9</ele>
        <time>2019-08-13T08:09:02Z</time>
      </trkpt>
      <trkpt lat="39.9249690" lon="-4.1873450">
        <ele>459.9</ele>
        <time>2019-08-13T08:09:03Z</time>
      </trkpt>
      <trkpt lat="39.9249990" lon="-4.1873380">
        <ele>459.9</ele>
        <time>2019-08-13T08:09:04Z</time>
      </trkpt>
      <trkpt lat="39.9250330" lon="-4.1873300">
        <ele>459.9</ele>
        <time>2019-08-13T08:09:05Z</time>
      </trkpt>
      <trkpt lat="39.9250670" lon="-4.1873240">
        <ele>459.9</ele>
        <time>2019-08-13T08:09:06Z</time>
      </trkpt>
      <trkpt lat="39.9251020" lon="-4.1873190">
        <ele>459.9</ele>
        <time>2019-08-13T08:09:07Z</time>
      </trkpt>
      <trkpt lat="39.9251400" lon="-4.1873120">
        <ele>459.9</ele>
        <time>2019-08-13T08:09:08Z</time>
      </trkpt>
      <trkpt lat="39.9251790" lon="-4.1873040">
        <ele>459.9</ele>
        <time>2019-08-13T08:09:09Z</time>
      </trkpt>
      <trkpt lat="39.9252190" lon="-4.1872970">
        <ele>460.0</ele>
        <time>2019-08-13T08:09:10Z</time>
      </trkpt>
      <trkpt lat="39.9252600" lon="-4.1872890">
        <ele>460.0</ele>
        <time>2019-08-13T08:09:11Z</time>
      </trkpt>
      <trkpt lat="39.9253030" lon="-4.1872800">
        <ele>460.0</ele>
        <time>2019-08-13T08:09:12Z</time>
      </trkpt>
      <trkpt lat="39.9253460" lon="-4.1872720">
        <ele>460.0</ele>
        <time>2019-08-13T08:09:13Z</time>
      </trkpt>
      <trkpt lat="39.9253900" lon="-4.1872640">
        <ele>460.1</ele>
        <time>2019-08-13T08:09:14Z</time>
      </trkpt>
      <trkpt lat="39.9254330" lon="-4.1872580">
        <ele>460.1</ele>
        <time>2019-08-13T08:09:15Z</time>
      </trkpt>
      <trkpt lat="39.9254780" lon="-4.1872510">
        <ele>460.1</ele>
        <time>2019-08-13T08:09:16Z</time>
      </trkpt>
      <trkpt lat="39.9255210" lon="-4.1872420">
        <ele>460.1</ele>
        <time>2019-08-13T08:09:17Z</time>
      </trkpt>
      <trkpt lat="39.9255660" lon="-4.1872320">
        <ele>460.2</ele>
        <time>2019-08-13T08:09:18Z</time>
      </trkpt>
      <trkpt lat="39.9256100" lon="-4.1872250">
        <ele>460.2</ele>
        <time>2019-08-13T08:09:19Z</time>
      </trkpt>
      <trkpt lat="39.9256550" lon="-4.1872190">
        <ele>460.2</ele>
        <time>2019-08-13T08:09:20Z</time>
      </trkpt>
      <trkpt lat="39.9257010" lon="-4.1872150">
        <ele>460.2</ele>
        <time>2019-08-13T08:09:21Z</time>
      </trkpt>
      <trkpt lat="39.9257470" lon="-4.1872140">
        <ele>460.2</ele>
        <time>2019-08-13T08:09:22Z</time>
      </trkpt>
      <trkpt lat="39.9257910" lon="-4.1872170">
        <ele>460.3</ele>
        <time>2019-08-13T08:09:23Z</time>
      </trkpt>
      <trkpt lat="39.9258350" lon="-4.1872250">
        <ele>460.3</ele>
        <time>2019-08-13T08:09:24Z</time>
      </trkpt>
      <trkpt lat="39.9258780" lon="-4.1872370">
        <ele>460.3</ele>
        <time>2019-08-13T08:09:25Z</time>
      </trkpt>
      <trkpt lat="39.9259220" lon="-4.1872500">
        <ele>460.3</ele>
        <time>2019-08-13T08:09:26Z</time>
      </trkpt>
      <trkpt lat="39.9259650" lon="-4.1872690">
        <ele>460.3</ele>
        <time>2019-08-13T08:09:27Z</time>
      </trkpt>
      <trkpt lat="39.9260090" lon="-4.1872920">
        <ele>460.4</ele>
        <time>2019-08-13T08:09:28Z</time>
      </trkpt>
      <trkpt lat="39.9260530" lon="-4.1873190">
        <ele>460.4</ele>
        <time>2019-08-13T08:09:29Z</time>
      </trkpt>
      <trkpt lat="39.9260940" lon="-4.1873510">
        <ele>460.4</ele>
        <time>2019-08-13T08:09:30Z</time>
      </trkpt>
      <trkpt lat="39.9261330" lon="-4.1873860">
        <ele>460.4</ele>
        <time>2019-08-13T08:09:31Z</time>
      </trkpt>
      <trkpt lat="39.9261690" lon="-4.1874250">
        <ele>460.4</ele>
        <time>2019-08-13T08:09:32Z</time>
      </trkpt>
      <trkpt lat="39.9262040" lon="-4.1874640">
        <ele>460.4</ele>
        <time>2019-08-13T08:09:33Z</time>
      </trkpt>
      <trkpt lat="39.9262390" lon="-4.1875040">
        <ele>460.4</ele>
        <time>2019-08-13T08:09:34Z</time>
      </trkpt>
      <trkpt lat="39.9262720" lon="-4.1875470">
        <ele>460.4</ele>
        <time>2019-08-13T08:09:35Z</time>
      </trkpt>
      <trkpt lat="39.9263050" lon="-4.1875900">
        <ele>460.4</ele>
        <time>2019-08-13T08:09:36Z</time>
      </trkpt>
      <trkpt lat="39.9263380" lon="-4.1876330">
        <ele>460.4</ele>
        <time>2019-08-13T08:09:37Z</time>
      </trkpt>
      <trkpt lat="39.9263730" lon="-4.1876770">
        <ele>460.4</ele>
        <time>2019-08-13T08:09:38Z</time>
      </trkpt>
      <trkpt lat="39.9264090" lon="-4.1877210">
        <ele>460.4</ele>
        <time>2019-08-13T08:09:39Z</time>
      </trkpt>
      <trkpt lat="39.9264450" lon="-4.1877680">
        <ele>460.3</ele>
        <time>2019-08-13T08:09:40Z</time>
      </trkpt>
      <trkpt lat="39.9264810" lon="-4.1878130">
        <ele>460.3</ele>
        <time>2019-08-13T08:09:41Z</time>
      </trkpt>
      <trkpt lat="39.9265180" lon="-4.1878590">
        <ele>460.3</ele>
        <time>2019-08-13T08:09:42Z</time>
      </trkpt>
      <trkpt lat="39.9265560" lon="-4.1879040">
        <ele>460.4</ele>
        <time>2019-08-13T08:09:43Z</time>
      </trkpt>
      <trkpt lat="39.9265950" lon="-4.1879500">
        <ele>460.4</ele>
        <time>2019-08-13T08:09:44Z</time>
      </trkpt>
      <trkpt lat="39.9266330" lon="-4.1879970">
        <ele>460.5</ele>
        <time>2019-08-13T08:09:45Z</time>
      </trkpt>
      <trkpt lat="39.9266720" lon="-4.1880430">
        <ele>460.5</ele>
        <time>2019-08-13T08:09:46Z</time>
      </trkpt>
      <trkpt lat="39.9267110" lon="-4.1880890">
        <ele>460.6</ele>
        <time>2019-08-13T08:09:47Z</time>
      </trkpt>
      <trkpt lat="39.9267500" lon="-4.1881360">
        <ele>460.7</ele>
        <time>2019-08-13T08:09:48Z</time>
      </trkpt>
      <trkpt lat="39.9267900" lon="-4.1881830">
        <ele>460.7</ele>
        <time>2019-08-13T08:09:49Z</time>
      </trkpt>
      <trkpt lat="39.9268300" lon="-4.1882310">
        <ele>460.8</ele>
        <time>2019-08-13T08:09:50Z</time>
      </trkpt>
      <trkpt lat="39.9268690" lon="-4.1882810">
        <ele>460.8</ele>
        <time>2019-08-13T08:09:51Z</time>
      </trkpt>
      <trkpt lat="39.9269080" lon="-4.1883290">
        <ele>460.8</ele>
        <time>2019-08-13T08:09:52Z</time>
      </trkpt>
      <trkpt lat="39.9269470" lon="-4.1883790">
        <ele>460.9</ele>
        <time>2019-08-13T08:09:53Z</time>
      </trkpt>
      <trkpt lat="39.9269860" lon="-4.1884280">
        <ele>460.9</ele>
        <time>2019-08-13T08:09:54Z</time>
      </trkpt>
      <trkpt lat="39.9270260" lon="-4.1884760">
        <ele>460.9</ele>
        <time>2019-08-13T08:09:55Z</time>
      </trkpt>
      <trkpt lat="39.9270670" lon="-4.1885240">
        <ele>460.8</ele>
        <time>2019-08-13T08:09:56Z</time>
      </trkpt>
      <trkpt lat="39.9271080" lon="-4.1885700">
        <ele>460.8</ele>
        <time>2019-08-13T08:09:57Z</time>
      </trkpt>
      <trkpt lat="39.9271490" lon="-4.1886180">
        <ele>460.8</ele>
        <time>2019-08-13T08:09:58Z</time>
      </trkpt>
      <trkpt lat="39.9271870" lon="-4.1886650">
        <ele>460.7</ele>
        <time>2019-08-13T08:09:59Z</time>
      </trkpt>
      <trkpt lat="39.9272260" lon="-4.1887140">
        <ele>460.7</ele>
        <time>2019-08-13T08:10:00Z</time>
      </trkpt>
      <trkpt lat="39.9272650" lon="-4.1887630">
        <ele>460.6</ele>
        <time>2019-08-13T08:10:01Z</time>
      </trkpt>
      <trkpt lat="39.9273050" lon="-4.1888110">
        <ele>460.6</ele>
        <time>2019-08-13T08:10:02Z</time>
      </trkpt>
      <trkpt lat="39.9273430" lon="-4.1888600">
        <ele>460.5</ele>
        <time>2019-08-13T08:10:03Z</time>
      </trkpt>
      <trkpt lat="39.9273820" lon="-4.1889080">
        <ele>460.5</ele>
        <time>2019-08-13T08:10:04Z</time>
      </trkpt>
      <trkpt lat="39.9274220" lon="-4.1889560">
        <ele>460.4</ele>
        <time>2019-08-13T08:10:05Z</time>
      </trkpt>
      <trkpt lat="39.9274620" lon="-4.1890020">
        <ele>460.4</ele>
        <time>2019-08-13T08:10:06Z</time>
      </trkpt>
      <trkpt lat="39.9275010" lon="-4.1890470">
        <ele>460.4</ele>
        <time>2019-08-13T08:10:07Z</time>
      </trkpt>
      <trkpt lat="39.9275400" lon="-4.1890920">
        <ele>460.4</ele>
        <time>2019-08-13T08:10:08Z</time>
      </trkpt>
      <trkpt lat="39.9275790" lon="-4.1891350">
        <ele>460.4</ele>
        <time>2019-08-13T08:10:09Z</time>
      </trkpt>
      <trkpt lat="39.9276190" lon="-4.1891760">
        <ele>460.4</ele>
        <time>2019-08-13T08:10:10Z</time>
      </trkpt>
      <trkpt lat="39.9276600" lon="-4.1892170">
        <ele>460.5</ele>
        <time>2019-08-13T08:10:11Z</time>
      </trkpt>
      <trkpt lat="39.9277030" lon="-4.1892540">
        <ele>460.5</ele>
        <time>2019-08-13T08:10:12Z</time>
      </trkpt>
      <trkpt lat="39.9277470" lon="-4.1892880">
        <ele>460.6</ele>
        <time>2019-08-13T08:10:13Z</time>
      </trkpt>
      <trkpt lat="39.9277910" lon="-4.1893180">
        <ele>460.7</ele>
        <time>2019-08-13T08:10:14Z</time>
      </trkpt>
      <trkpt lat="39.9278370" lon="-4.1893440">
        <ele>460.9</ele>
        <time>2019-08-13T08:10:15Z</time>
      </trkpt>
      <trkpt lat="39.9278820" lon="-4.1893690">
        <ele>461.0</ele>
        <time>2019-08-13T08:10:16Z</time>
      </trkpt>
      <trkpt lat="39.9279290" lon="-4.1893930">
        <ele>461.2</ele>
        <time>2019-08-13T08:10:17Z</time>
      </trkpt>
      <trkpt lat="39.9279760" lon="-4.1894150">
        <ele>461.3</ele>
        <time>2019-08-13T08:10:18Z</time>
      </trkpt>
      <trkpt lat="39.9280260" lon="-4.1894350">
        <ele>461.5</ele>
        <time>2019-08-13T08:10:19Z</time>
      </trkpt>
      <trkpt lat="39.9280750" lon="-4.1894540">
        <ele>461.7</ele>
        <time>2019-08-13T08:10:20Z</time>
      </trkpt>
      <trkpt lat="39.9281250" lon="-4.1894740">
        <ele>461.8</ele>
        <time>2019-08-13T08:10:21Z</time>
      </trkpt>
      <trkpt lat="39.9281740" lon="-4.1894940">
        <ele>461.9</ele>
        <time>2019-08-13T08:10:22Z</time>
      </trkpt>
      <trkpt lat="39.9282240" lon="-4.1895140">
        <ele>462.0</ele>
        <time>2019-08-13T08:10:23Z</time>
      </trkpt>
      <trkpt lat="39.9282740" lon="-4.1895330">
        <ele>462.0</ele>
        <time>2019-08-13T08:10:24Z</time>
      </trkpt>
      <trkpt lat="39.9283230" lon="-4.1895520">
        <ele>462.1</ele>
        <time>2019-08-13T08:10:25Z</time>
      </trkpt>
      <trkpt lat="39.9283730" lon="-4.1895710">
        <ele>462.1</ele>
        <time>2019-08-13T08:10:26Z</time>
      </trkpt>
      <trkpt lat="39.9284220" lon="-4.1895910">
        <ele>462.1</ele>
        <time>2019-08-13T08:10:27Z</time>
      </trkpt>
      <trkpt lat="39.9284710" lon="-4.1896100">
        <ele>462.1</ele>
        <time>2019-08-13T08:10:28Z</time>
      </trkpt>
      <trkpt lat="39.9285210" lon="-4.1896300">
        <ele>462.1</ele>
        <time>2019-08-13T08:10:29Z</time>
      </trkpt>
      <trkpt lat="39.9285700" lon="-4.1896490">
        <ele>462.1</ele>
        <time>2019-08-13T08:10:30Z</time>
      </trkpt>
      <trkpt lat="39.9286200" lon="-4.1896680">
        <ele>462.1</ele>
        <time>2019-08-13T08:10:31Z</time>
      </trkpt>
      <trkpt lat="39.9286710" lon="-4.1896860">
        <ele>462.1</ele>
        <time>2019-08-13T08:10:32Z</time>
      </trkpt>
      <trkpt lat="39.9287200" lon="-4.1897060">
        <ele>462.0</ele>
        <time>2019-08-13T08:10:33Z</time>
      </trkpt>
      <trkpt lat="39.9287700" lon="-4.1897260">
        <ele>462.0</ele>
        <time>2019-08-13T08:10:34Z</time>
      </trkpt>
      <trkpt lat="39.9288190" lon="-4.1897460">
        <ele>462.0</ele>
        <time>2019-08-13T08:10:35Z</time>
      </trkpt>
      <trkpt lat="39.9288670" lon="-4.1897660">
        <ele>461.9</ele>
        <time>2019-08-13T08:10:36Z</time>
      </trkpt>
      <trkpt lat="39.9289150" lon="-4.1897840">
        <ele>461.9</ele>
        <time>2019-08-13T08:10:37Z</time>
      </trkpt>
      <trkpt lat="39.9289640" lon="-4.1898030">
        <ele>461.9</ele>
        <time>2019-08-13T08:10:38Z</time>
      </trkpt>
      <trkpt lat="39.9290120" lon="-4.1898210">
        <ele>461.8</ele>
        <time>2019-08-13T08:10:39Z</time>
      </trkpt>
      <trkpt lat="39.9290600" lon="-4.1898410">
        <ele>461.8</ele>
        <time>2019-08-13T08:10:40Z</time>
      </trkpt>
      <trkpt lat="39.9291070" lon="-4.1898620">
        <ele>461.8</ele>
        <time>2019-08-13T08:10:41Z</time>
      </trkpt>
      <trkpt lat="39.9291540" lon="-4.1898830">
        <ele>461.9</ele>
        <time>2019-08-13T08:10:42Z</time>
      </trkpt>
      <trkpt lat="39.9292000" lon="-4.1899050">
        <ele>461.9</ele>
        <time>2019-08-13T08:10:43Z</time>
      </trkpt>
      <trkpt lat="39.9292460" lon="-4.1899250">
        <ele>462.0</ele>
        <time>2019-08-13T08:10:44Z</time>
      </trkpt>
      <trkpt lat="39.9292920" lon="-4.1899460">
        <ele>462.1</ele>
        <time>2019-08-13T08:10:45Z</time>
      </trkpt>
      <trkpt lat="39.9293370" lon="-4.1899650">
        <ele>462.2</ele>
        <time>2019-08-13T08:10:46Z</time>
      </trkpt>
      <trkpt lat="39.9293800" lon="-4.1899820">
        <ele>462.3</ele>
        <time>2019-08-13T08:10:47Z</time>
      </trkpt>
      <trkpt lat="39.9294240" lon="-4.1899990">
        <ele>462.4</ele>
        <time>2019-08-13T08:10:48Z</time>
      </trkpt>
      <trkpt lat="39.9294670" lon="-4.1900180">
        <ele>462.6</ele>
        <time>2019-08-13T08:10:49Z</time>
      </trkpt>
      <trkpt lat="39.9295120" lon="-4.1900370">
        <ele>462.7</ele>
        <time>2019-08-13T08:10:50Z</time>
      </trkpt>
      <trkpt lat="39.9295570" lon="-4.1900560">
        <ele>462.9</ele>
        <time>2019-08-13T08:10:51Z</time>
      </trkpt>
      <trkpt lat="39.9296010" lon="-4.1900740">
        <ele>463.0</ele>
        <time>2019-08-13T08:10:52Z</time>
      </trkpt>
      <trkpt lat="39.9296460" lon="-4.1900930">
        <ele>463.2</ele>
        <time>2019-08-13T08:10:53Z</time>
      </trkpt>
      <trkpt lat="39.9296900" lon="-4.1901130">
        <ele>463.3</ele>
        <time>2019-08-13T08:10:54Z</time>
      </trkpt>
      <trkpt lat="39.9297340" lon="-4.1901320">
        <ele>463.5</ele>
        <time>2019-08-13T08:10:55Z</time>
      </trkpt>
      <trkpt lat="39.9297780" lon="-4.1901510">
        <ele>463.7</ele>
        <time>2019-08-13T08:10:56Z</time>
      </trkpt>
      <trkpt lat="39.9298220" lon="-4.1901720">
        <ele>463.8</ele>
        <time>2019-08-13T08:10:57Z</time>
      </trkpt>
      <trkpt lat="39.9298650" lon="-4.1901930">
        <ele>464.0</ele>
        <time>2019-08-13T08:10:58Z</time>
      </trkpt>
      <trkpt lat="39.9299080" lon="-4.1902120">
        <ele>464.2</ele>
        <time>2019-08-13T08:10:59Z</time>
      </trkpt>
      <trkpt lat="39.9299490" lon="-4.1902310">
        <ele>464.3</ele>
        <time>2019-08-13T08:11:00Z</time>
      </trkpt>
      <trkpt lat="39.9299910" lon="-4.1902510">
        <ele>464.5</ele>
        <time>2019-08-13T08:11:01Z</time>
      </trkpt>
      <trkpt lat="39.9300310" lon="-4.1902700">
        <ele>464.7</ele>
        <time>2019-08-13T08:11:02Z</time>
      </trkpt>
      <trkpt lat="39.9300710" lon="-4.1902880">
        <ele>464.8</ele>
        <time>2019-08-13T08:11:03Z</time>
      </trkpt>
      <trkpt lat="39.9301120" lon="-4.1903060">
        <ele>465.0</ele>
        <time>2019-08-13T08:11:04Z</time>
      </trkpt>
      <trkpt lat="39.9301500" lon="-4.1903260">
        <ele>465.2</ele>
        <time>2019-08-13T08:11:05Z</time>
      </trkpt>
      <trkpt lat="39.9301880" lon="-4.1903430">
        <ele>465.3</ele>
        <time>2019-08-13T08:11:06Z</time>
      </trkpt>
      <trkpt lat="39.9302280" lon="-4.1903600">
        <ele>465.4</ele>
        <time>2019-08-13T08:11:07Z</time>
      </trkpt>
      <trkpt lat="39.9302680" lon="-4.1903780">
        <ele>465.6</ele>
        <time>2019-08-13T08:11:08Z</time>
      </trkpt>
      <trkpt lat="39.9303080" lon="-4.1903970">
        <ele>465.6</ele>
        <time>2019-08-13T08:11:09Z</time>
      </trkpt>
      <trkpt lat="39.9303500" lon="-4.1904160">
        <ele>465.7</ele>
        <time>2019-08-13T08:11:10Z</time>
      </trkpt>
      <trkpt lat="39.9303910" lon="-4.1904350">
        <ele>465.8</ele>
        <time>2019-08-13T08:11:11Z</time>
      </trkpt>
      <trkpt lat="39.9304320" lon="-4.1904550">
        <ele>465.8</ele>
        <time>2019-08-13T08:11:12Z</time>
      </trkpt>
      <trkpt lat="39.9304730" lon="-4.1904750">
        <ele>465.9</ele>
        <time>2019-08-13T08:11:13Z</time>
      </trkpt>
      <trkpt lat="39.9305160" lon="-4.1904970">
        <ele>465.9</ele>
        <time>2019-08-13T08:11:14Z</time>
      </trkpt>
      <trkpt lat="39.9305630" lon="-4.1905170">
        <ele>466.0</ele>
        <time>2019-08-13T08:11:15Z</time>
      </trkpt>
      <trkpt lat="39.9306060" lon="-4.1905360">
        <ele>466.0</ele>
        <time>2019-08-13T08:11:16Z</time>
      </trkpt>
      <trkpt lat="39.9306460" lon="-4.1905530">
        <ele>466.0</ele>
        <time>2019-08-13T08:11:17Z</time>
      </trkpt>
      <trkpt lat="39.9306890" lon="-4.1905720">
        <ele>466.1</ele>
        <time>2019-08-13T08:11:18Z</time>
      </trkpt>
      <trkpt lat="39.9307330" lon="-4.1905920">
        <ele>466.1</ele>
        <time>2019-08-13T08:11:19Z</time>
      </trkpt>
      <trkpt lat="39.9307780" lon="-4.1906080">
        <ele>466.1</ele>
        <time>2019-08-13T08:11:20Z</time>
      </trkpt>
      <trkpt lat="39.9308210" lon="-4.1906240">
        <ele>466.2</ele>
        <time>2019-08-13T08:11:21Z</time>
      </trkpt>
      <trkpt lat="39.9308650" lon="-4.1906380">
        <ele>466.2</ele>
        <time>2019-08-13T08:11:22Z</time>
      </trkpt>
      <trkpt lat="39.9309100" lon="-4.1906520">
        <ele>466.3</ele>
        <time>2019-08-13T08:11:23Z</time>
      </trkpt>
      <trkpt lat="39.9309540" lon="-4.1906660">
        <ele>466.3</ele>
        <time>2019-08-13T08:11:24Z</time>
      </trkpt>
      <trkpt lat="39.9309990" lon="-4.1906770">
        <ele>466.4</ele>
        <time>2019-08-13T08:11:25Z</time>
      </trkpt>
      <trkpt lat="39.9310410" lon="-4.1906890">
        <ele>466.5</ele>
        <time>2019-08-13T08:11:26Z</time>
      </trkpt>
      <trkpt lat="39.9310810" lon="-4.1906990">
        <ele>466.6</ele>
        <time>2019-08-13T08:11:27Z</time>
      </trkpt>
      <trkpt lat="39.9311220" lon="-4.1907100">
        <ele>466.8</ele>
        <time>2019-08-13T08:11:28Z</time>
      </trkpt>
      <trkpt lat="39.9311630" lon="-4.1907190">
        <ele>466.9</ele>
        <time>2019-08-13T08:11:29Z</time>
      </trkpt>
      <trkpt lat="39.9312020" lon="-4.1907270">
        <ele>467.1</ele>
        <time>2019-08-13T08:11:30Z</time>
      </trkpt>
      <trkpt lat="39.9312410" lon="-4.1907350">
        <ele>467.3</ele>
        <time>2019-08-13T08:11:31Z</time>
      </trkpt>
      <trkpt lat="39.9312800" lon="-4.1907430">
        <ele>467.4</ele>
        <time>2019-08-13T08:11:32Z</time>
      </trkpt>
      <trkpt lat="39.9313200" lon="-4.1907520">
        <ele>467.5</ele>
        <time>2019-08-13T08:11:33Z</time>
      </trkpt>
      <trkpt lat="39.9313600" lon="-4.1907620">
        <ele>467.7</ele>
        <time>2019-08-13T08:11:34Z</time>
      </trkpt>
      <trkpt lat="39.9314000" lon="-4.1907720">
        <ele>467.8</ele>
        <time>2019-08-13T08:11:35Z</time>
      </trkpt>
      <trkpt lat="39.9314410" lon="-4.1907820">
        <ele>467.9</ele>
        <time>2019-08-13T08:11:36Z</time>
      </trkpt>
      <trkpt lat="39.9314830" lon="-4.1907910">
        <ele>467.9</ele>
        <time>2019-08-13T08:11:37Z</time>
      </trkpt>
      <trkpt lat="39.9315260" lon="-4.1908010">
        <ele>468.0</ele>
        <time>2019-08-13T08:11:38Z</time>
      </trkpt>
      <trkpt lat="39.9315700" lon="-4.1908110">
        <ele>468.0</ele>
        <time>2019-08-13T08:11:39Z</time>
      </trkpt>
      <trkpt lat="39.9316140" lon="-4.1908210">
        <ele>468.0</ele>
        <time>2019-08-13T08:11:40Z</time>
      </trkpt>
      <trkpt lat="39.9316600" lon="-4.1908320">
        <ele>468.0</ele>
        <time>2019-08-13T08:11:41Z</time>
      </trkpt>
      <trkpt lat="39.9317060" lon="-4.1908440">
        <ele>468.0</ele>
        <time>2019-08-13T08:11:42Z</time>
      </trkpt>
      <trkpt lat="39.9317530" lon="-4.1908550">
        <ele>468.0</ele>
        <time>2019-08-13T08:11:43Z</time>
      </trkpt>
      <trkpt lat="39.9318010" lon="-4.1908660">
        <ele>468.0</ele>
        <time>2019-08-13T08:11:44Z</time>
      </trkpt>
      <trkpt lat="39.9318500" lon="-4.1908770">
        <ele>467.9</ele>
        <time>2019-08-13T08:11:45Z</time>
      </trkpt>
      <trkpt lat="39.9319000" lon="-4.1908890">
        <ele>467.9</ele>
        <time>2019-08-13T08:11:46Z</time>
      </trkpt>
      <trkpt lat="39.9319520" lon="-4.1909010">
        <ele>467.8</ele>
        <time>2019-08-13T08:11:47Z</time>
      </trkpt>
      <trkpt lat="39.9320040" lon="-4.1909140">
        <ele>467.8</ele>
        <time>2019-08-13T08:11:48Z</time>
      </trkpt>
      <trkpt lat="39.9320550" lon="-4.1909260">
        <ele>467.7</ele>
        <time>2019-08-13T08:11:49Z</time>
      </trkpt>
      <trkpt lat="39.9321060" lon="-4.1909390">
        <ele>467.6</ele>
        <time>2019-08-13T08:11:50Z</time>
      </trkpt>
      <trkpt lat="39.9321570" lon="-4.1909510">
        <ele>467.5</ele>
        <time>2019-08-13T08:11:51Z</time>
      </trkpt>
      <trkpt lat="39.9322090" lon="-4.1909640">
        <ele>467.4</ele>
        <time>2019-08-13T08:11:52Z</time>
      </trkpt>
      <trkpt lat="39.9322630" lon="-4.1909780">
        <ele>467.3</ele>
        <time>2019-08-13T08:11:53Z</time>
      </trkpt>
      <trkpt lat="39.9323170" lon="-4.1909930">
        <ele>467.2</ele>
        <time>2019-08-13T08:11:54Z</time>
      </trkpt>
      <trkpt lat="39.9323710" lon="-4.1910090">
        <ele>467.1</ele>
        <time>2019-08-13T08:11:55Z</time>
      </trkpt>
      <trkpt lat="39.9324260" lon="-4.1910230">
        <ele>467.0</ele>
        <time>2019-08-13T08:11:56Z</time>
      </trkpt>
      <trkpt lat="39.9324800" lon="-4.1910370">
        <ele>466.9</ele>
        <time>2019-08-13T08:11:57Z</time>
      </trkpt>
      <trkpt lat="39.9325330" lon="-4.1910510">
        <ele>466.8</ele>
        <time>2019-08-13T08:11:58Z</time>
      </trkpt>
      <trkpt lat="39.9325860" lon="-4.1910650">
        <ele>466.8</ele>
        <time>2019-08-13T08:11:59Z</time>
      </trkpt>
      <trkpt lat="39.9326380" lon="-4.1910780">
        <ele>466.7</ele>
        <time>2019-08-13T08:12:00Z</time>
      </trkpt>
      <trkpt lat="39.9326920" lon="-4.1910910">
        <ele>466.7</ele>
        <time>2019-08-13T08:12:01Z</time>
      </trkpt>
      <trkpt lat="39.9327440" lon="-4.1911040">
        <ele>466.7</ele>
        <time>2019-08-13T08:12:02Z</time>
      </trkpt>
      <trkpt lat="39.9327960" lon="-4.1911190">
        <ele>466.7</ele>
        <time>2019-08-13T08:12:03Z</time>
      </trkpt>
      <trkpt lat="39.9328470" lon="-4.1911330">
        <ele>466.7</ele>
        <time>2019-08-13T08:12:04Z</time>
      </trkpt>
      <trkpt lat="39.9328980" lon="-4.1911450">
        <ele>466.7</ele>
        <time>2019-08-13T08:12:05Z</time>
      </trkpt>
      <trkpt lat="39.9329490" lon="-4.1911580">
        <ele>466.7</ele>
        <time>2019-08-13T08:12:06Z</time>
      </trkpt>
      <trkpt lat="39.9330000" lon="-4.1911720">
        <ele>466.8</ele>
        <time>2019-08-13T08:12:07Z</time>
      </trkpt>
      <trkpt lat="39.9330500" lon="-4.1911860">
        <ele>466.8</ele>
        <time>2019-08-13T08:12:08Z</time>
      </trkpt>
      <trkpt lat="39.9331000" lon="-4.1912000">
        <ele>466.8</ele>
        <time>2019-08-13T08:12:09Z</time>
      </trkpt>
      <trkpt lat="39.9331490" lon="-4.1912160">
        <ele>466.9</ele>
        <time>2019-08-13T08:12:10Z</time>
      </trkpt>
      <trkpt lat="39.9332000" lon="-4.1912330">
        <ele>466.9</ele>
        <time>2019-08-13T08:12:11Z</time>
      </trkpt>
      <trkpt lat="39.9332500" lon="-4.1912510">
        <ele>467.0</ele>
        <time>2019-08-13T08:12:12Z</time>
      </trkpt>
      <trkpt lat="39.9333010" lon="-4.1912700">
        <ele>467.0</ele>
        <time>2019-08-13T08:12:13Z</time>
      </trkpt>
      <trkpt lat="39.9333520" lon="-4.1912870">
        <ele>467.0</ele>
        <time>2019-08-13T08:12:14Z</time>
      </trkpt>
      <trkpt lat="39.9334030" lon="-4.1913050">
        <ele>467.1</ele>
        <time>2019-08-13T08:12:15Z</time>
      </trkpt>
      <trkpt lat="39.9334520" lon="-4.1913260">
        <ele>467.1</ele>
        <time>2019-08-13T08:12:16Z</time>
      </trkpt>
      <trkpt lat="39.9335030" lon="-4.1913470">
        <ele>467.1</ele>
        <time>2019-08-13T08:12:17Z</time>
      </trkpt>
      <trkpt lat="39.9335530" lon="-4.1913660">
        <ele>467.2</ele>
        <time>2019-08-13T08:12:18Z</time>
      </trkpt>
      <trkpt lat="39.9336010" lon="-4.1913850">
        <ele>467.2</ele>
        <time>2019-08-13T08:12:19Z</time>
      </trkpt>
      <trkpt lat="39.9336500" lon="-4.1914020">
        <ele>467.3</ele>
        <time>2019-08-13T08:12:20Z</time>
      </trkpt>
      <trkpt lat="39.9337000" lon="-4.1914190">
        <ele>467.3</ele>
        <time>2019-08-13T08:12:21Z</time>
      </trkpt>
      <trkpt lat="39.9337490" lon="-4.1914370">
        <ele>467.4</ele>
        <time>2019-08-13T08:12:22Z</time>
      </trkpt>
      <trkpt lat="39.9337990" lon="-4.1914540">
        <ele>467.4</ele>
        <time>2019-08-13T08:12:23Z</time>
      </trkpt>
      <trkpt lat="39.9338480" lon="-4.1914740">
        <ele>467.5</ele>
        <time>2019-08-13T08:12:24Z</time>
      </trkpt>
      <trkpt lat="39.9339000" lon="-4.1914940">
        <ele>467.6</ele>
        <time>2019-08-13T08:12:25Z</time>
      </trkpt>
      <trkpt lat="39.9339510" lon="-4.1915140">
        <ele>467.6</ele>
        <time>2019-08-13T08:12:26Z</time>
      </trkpt>
      <trkpt lat="39.9340020" lon="-4.1915330">
        <ele>467.7</ele>
        <time>2019-08-13T08:12:27Z</time>
      </trkpt>
      <trkpt lat="39.9340540" lon="-4.1915500">
        <ele>467.8</ele>
        <time>2019-08-13T08:12:28Z</time>
      </trkpt>
      <trkpt lat="39.9341050" lon="-4.1915680">
        <ele>467.8</ele>
        <time>2019-08-13T08:12:29Z</time>
      </trkpt>
      <trkpt lat="39.9341560" lon="-4.1915850">
        <ele>467.9</ele>
        <time>2019-08-13T08:12:30Z</time>
      </trkpt>
      <trkpt lat="39.9342060" lon="-4.1916040">
        <ele>468.0</ele>
        <time>2019-08-13T08:12:31Z</time>
      </trkpt>
      <trkpt lat="39.9342560" lon="-4.1916240">
        <ele>468.0</ele>
        <time>2019-08-13T08:12:32Z</time>
      </trkpt>
      <trkpt lat="39.9343050" lon="-4.1916430">
        <ele>468.1</ele>
        <time>2019-08-13T08:12:33Z</time>
      </trkpt>
      <trkpt lat="39.9343530" lon="-4.1916600">
        <ele>468.1</ele>
        <time>2019-08-13T08:12:34Z</time>
      </trkpt>
      <trkpt lat="39.9344030" lon="-4.1916780">
        <ele>468.2</ele>
        <time>2019-08-13T08:12:35Z</time>
      </trkpt>
      <trkpt lat="39.9344510" lon="-4.1916960">
        <ele>468.3</ele>
        <time>2019-08-13T08:12:36Z</time>
      </trkpt>
      <trkpt lat="39.9345000" lon="-4.1917150">
        <ele>468.3</ele>
        <time>2019-08-13T08:12:37Z</time>
      </trkpt>
      <trkpt lat="39.9345490" lon="-4.1917350">
        <ele>468.4</ele>
        <time>2019-08-13T08:12:38Z</time>
      </trkpt>
      <trkpt lat="39.9345980" lon="-4.1917540">
        <ele>468.4</ele>
        <time>2019-08-13T08:12:39Z</time>
      </trkpt>
      <trkpt lat="39.9346470" lon="-4.1917740">
        <ele>468.5</ele>
        <time>2019-08-13T08:12:40Z</time>
      </trkpt>
      <trkpt lat="39.9346970" lon="-4.1917940">
        <ele>468.6</ele>
        <time>2019-08-13T08:12:41Z</time>
      </trkpt>
      <trkpt lat="39.9347440" lon="-4.1918120">
        <ele>468.7</ele>
        <time>2019-08-13T08:12:42Z</time>
      </trkpt>
      <trkpt lat="39.9347920" lon="-4.1918320">
        <ele>468.7</ele>
        <time>2019-08-13T08:12:43Z</time>
      </trkpt>
      <trkpt lat="39.9348390" lon="-4.1918530">
        <ele>468.8</ele>
        <time>2019-08-13T08:12:44Z</time>
      </trkpt>
      <trkpt lat="39.9348870" lon="-4.1918720">
        <ele>468.9</ele>
        <time>2019-08-13T08:12:45Z</time>
      </trkpt>
      <trkpt lat="39.9349330" lon="-4.1918910">
        <ele>469.0</ele>
        <time>2019-08-13T08:12:46Z</time>
      </trkpt>
      <trkpt lat="39.9349810" lon="-4.1919100">
        <ele>469.1</ele>
        <time>2019-08-13T08:12:47Z</time>
      </trkpt>
      <trkpt lat="39.9350280" lon="-4.1919300">
        <ele>469.2</ele>
        <time>2019-08-13T08:12:48Z</time>
      </trkpt>
      <trkpt lat="39.9350750" lon="-4.1919490">
        <ele>469.3</ele>
        <time>2019-08-13T08:12:49Z</time>
      </trkpt>
      <trkpt lat="39.9351210" lon="-4.1919700">
        <ele>469.4</ele>
        <time>2019-08-13T08:12:50Z</time>
      </trkpt>
      <trkpt lat="39.9351680" lon="-4.1919920">
        <ele>469.5</ele>
        <time>2019-08-13T08:12:51Z</time>
      </trkpt>
      <trkpt lat="39.9352140" lon="-4.1920140">
        <ele>469.6</ele>
        <time>2019-08-13T08:12:52Z</time>
      </trkpt>
      <trkpt lat="39.9352610" lon="-4.1920330">
        <ele>469.7</ele>
        <time>2019-08-13T08:12:53Z</time>
      </trkpt>
      <trkpt lat="39.9353080" lon="-4.1920540">
        <ele>469.8</ele>
        <time>2019-08-13T08:12:54Z</time>
      </trkpt>
      <trkpt lat="39.9353550" lon="-4.1920740">
        <ele>469.9</ele>
        <time>2019-08-13T08:12:55Z</time>
      </trkpt>
      <trkpt lat="39.9354030" lon="-4.1920950">
        <ele>470.1</ele>
        <time>2019-08-13T08:12:56Z</time>
      </trkpt>
      <trkpt lat="39.9354510" lon="-4.1921150">
        <ele>470.2</ele>
        <time>2019-08-13T08:12:57Z</time>
      </trkpt>
      <trkpt lat="39.9354990" lon="-4.1921350">
        <ele>470.3</ele>
        <time>2019-08-13T08:12:58Z</time>
      </trkpt>
      <trkpt lat="39.9355480" lon="-4.1921570">
        <ele>470.4</ele>
        <time>2019-08-13T08:12:59Z</time>
      </trkpt>
      <trkpt lat="39.9355970" lon="-4.1921780">
        <ele>470.4</ele>
        <time>2019-08-13T08:13:00Z</time>
      </trkpt>
      <trkpt lat="39.9356460" lon="-4.1921990">
        <ele>470.5</ele>
        <time>2019-08-13T08:13:01Z</time>
      </trkpt>
      <trkpt lat="39.9356950" lon="-4.1922200">
        <ele>470.5</ele>
        <time>2019-08-13T08:13:02Z</time>
      </trkpt>
      <trkpt lat="39.9357440" lon="-4.1922410">
        <ele>470.6</ele>
        <time>2019-08-13T08:13:03Z</time>
      </trkpt>
      <trkpt lat="39.9357940" lon="-4.1922620">
        <ele>470.6</ele>
        <time>2019-08-13T08:13:04Z</time>
      </trkpt>
      <trkpt lat="39.9358440" lon="-4.1922840">
        <ele>470.7</ele>
        <time>2019-08-13T08:13:05Z</time>
      </trkpt>
      <trkpt lat="39.9358940" lon="-4.1923050">
        <ele>470.7</ele>
        <time>2019-08-13T08:13:06Z</time>
      </trkpt>
      <trkpt lat="39.9359440" lon="-4.1923260">
        <ele>470.7</ele>
        <time>2019-08-13T08:13:07Z</time>
      </trkpt>
      <trkpt lat="39.9359950" lon="-4.1923470">
        <ele>470.7</ele>
        <time>2019-08-13T08:13:08Z</time>
      </trkpt>
      <trkpt lat="39.9360460" lon="-4.1923660">
        <ele>470.8</ele>
        <time>2019-08-13T08:13:09Z</time>
      </trkpt>
      <trkpt lat="39.9360990" lon="-4.1923850">
        <ele>470.8</ele>
        <time>2019-08-13T08:13:10Z</time>
      </trkpt>
      <trkpt lat="39.9361520" lon="-4.1924030">
        <ele>470.9</ele>
        <time>2019-08-13T08:13:11Z</time>
      </trkpt>
      <trkpt lat="39.9362040" lon="-4.1924190">
        <ele>470.9</ele>
        <time>2019-08-13T08:13:12Z</time>
      </trkpt>
      <trkpt lat="39.9362550" lon="-4.1924300">
        <ele>470.9</ele>
        <time>2019-08-13T08:13:13Z</time>
      </trkpt>
      <trkpt lat="39.9363070" lon="-4.1924380">
        <ele>471.0</ele>
        <time>2019-08-13T08:13:14Z</time>
      </trkpt>
      <trkpt lat="39.9363600" lon="-4.1924440">
        <ele>471.1</ele>
        <time>2019-08-13T08:13:15Z</time>
      </trkpt>
      <trkpt lat="39.9364140" lon="-4.1924490">
        <ele>471.2</ele>
        <time>2019-08-13T08:13:16Z</time>
      </trkpt>
      <trkpt lat="39.9364700" lon="-4.1924520">
        <ele>471.2</ele>
        <time>2019-08-13T08:13:17Z</time>
      </trkpt>
      <trkpt lat="39.9365260" lon="-4.1924520">
        <ele>471.3</ele>
        <time>2019-08-13T08:13:18Z</time>
      </trkpt>
      <trkpt lat="39.9365810" lon="-4.1924510">
        <ele>471.4</ele>
        <time>2019-08-13T08:13:19Z</time>
      </trkpt>
      <trkpt lat="39.9366360" lon="-4.1924490">
        <ele>471.5</ele>
        <time>2019-08-13T08:13:20Z</time>
      </trkpt>
      <trkpt lat="39.9366880" lon="-4.1924490">
        <ele>471.6</ele>
        <time>2019-08-13T08:13:21Z</time>
      </trkpt>
      <trkpt lat="39.9367380" lon="-4.1924500">
        <ele>471.6</ele>
        <time>2019-08-13T08:13:22Z</time>
      </trkpt>
      <trkpt lat="39.9367880" lon="-4.1924520">
        <ele>471.7</ele>
        <time>2019-08-13T08:13:23Z</time>
      </trkpt>
      <trkpt lat="39.9368410" lon="-4.1924520">
        <ele>471.7</ele>
        <time>2019-08-13T08:13:24Z</time>
      </trkpt>
      <trkpt lat="39.9368960" lon="-4.1924510">
        <ele>471.7</ele>
        <time>2019-08-13T08:13:25Z</time>
      </trkpt>
      <trkpt lat="39.9369510" lon="-4.1924520">
        <ele>471.8</ele>
        <time>2019-08-13T08:13:26Z</time>
      </trkpt>
      <trkpt lat="39.9370070" lon="-4.1924530">
        <ele>471.8</ele>
        <time>2019-08-13T08:13:27Z</time>
      </trkpt>
      <trkpt lat="39.9370630" lon="-4.1924550">
        <ele>471.9</ele>
        <time>2019-08-13T08:13:28Z</time>
      </trkpt>
      <trkpt lat="39.9371170" lon="-4.1924570">
        <ele>471.9</ele>
        <time>2019-08-13T08:13:29Z</time>
      </trkpt>
      <trkpt lat="39.9371710" lon="-4.1924590">
        <ele>471.9</ele>
        <time>2019-08-13T08:13:30Z</time>
      </trkpt>
      <trkpt lat="39.9372250" lon="-4.1924600">
        <ele>472.0</ele>
        <time>2019-08-13T08:13:31Z</time>
      </trkpt>
      <trkpt lat="39.9372790" lon="-4.1924620">
        <ele>472.0</ele>
        <time>2019-08-13T08:13:32Z</time>
      </trkpt>
      <trkpt lat="39.9373320" lon="-4.1924650">
        <ele>472.0</ele>
        <time>2019-08-13T08:13:33Z</time>
      </trkpt>
      <trkpt lat="39.9373850" lon="-4.1924670">
        <ele>472.1</ele>
        <time>2019-08-13T08:13:34Z</time>
      </trkpt>
      <trkpt lat="39.9374370" lon="-4.1924700">
        <ele>472.1</ele>
        <time>2019-08-13T08:13:35Z</time>
      </trkpt>
      <trkpt lat="39.9374900" lon="-4.1924730">
        <ele>472.2</ele>
        <time>2019-08-13T08:13:36Z</time>
      </trkpt>
      <trkpt lat="39.9375420" lon="-4.1924750">
        <ele>472.2</ele>
        <time>2019-08-13T08:13:37Z</time>
      </trkpt>
      <trkpt lat="39.9375950" lon="-4.1924770">
        <ele>472.3</ele>
        <time>2019-08-13T08:13:38Z</time>
      </trkpt>
      <trkpt lat="39.9376480" lon="-4.1924790">
        <ele>472.3</ele>
        <time>2019-08-13T08:13:39Z</time>
      </trkpt>
      <trkpt lat="39.9377030" lon="-4.1924800">
        <ele>472.4</ele>
        <time>2019-08-13T08:13:40Z</time>
      </trkpt>
      <trkpt lat="39.9377560" lon="-4.1924820">
        <ele>472.4</ele>
        <time>2019-08-13T08:13:41Z</time>
      </trkpt>
      <trkpt lat="39.9378100" lon="-4.1924830">
        <ele>472.4</ele>
        <time>2019-08-13T08:13:42Z</time>
      </trkpt>
      <trkpt lat="39.9378650" lon="-4.1924840">
        <ele>472.5</ele>
        <time>2019-08-13T08:13:43Z</time>
      </trkpt>
      <trkpt lat="39.9379200" lon="-4.1924850">
        <ele>472.5</ele>
        <time>2019-08-13T08:13:44Z</time>
      </trkpt>
      <trkpt lat="39.9379750" lon="-4.1924870">
        <ele>472.6</ele>
        <time>2019-08-13T08:13:45Z</time>
      </trkpt>
      <trkpt lat="39.9380290" lon="-4.1924880">
        <ele>472.6</ele>
        <time>2019-08-13T08:13:46Z</time>
      </trkpt>
      <trkpt lat="39.9380840" lon="-4.1924890">
        <ele>472.7</ele>
        <time>2019-08-13T08:13:47Z</time>
      </trkpt>
      <trkpt lat="39.9381400" lon="-4.1924890">
        <ele>472.7</ele>
        <time>2019-08-13T08:13:48Z</time>
      </trkpt>
      <trkpt lat="39.9381950" lon="-4.1924880">
        <ele>472.8</ele>
        <time>2019-08-13T08:13:49Z</time>
      </trkpt>
      <trkpt lat="39.9382490" lon="-4.1924870">
        <ele>472.8</ele>
        <time>2019-08-13T08:13:50Z</time>
      </trkpt>
      <trkpt lat="39.9383040" lon="-4.1924840">
        <ele>472.8</ele>
        <time>2019-08-13T08:13:51Z</time>
      </trkpt>
      <trkpt lat="39.9383590" lon="-4.1924800">
        <ele>472.8</ele>
        <time>2019-08-13T08:13:52Z</time>
      </trkpt>
      <trkpt lat="39.9384140" lon="-4.1924740">
        <ele>472.9</ele>
        <time>2019-08-13T08:13:53Z</time>
      </trkpt>
      <trkpt lat="39.9384690" lon="-4.1924680">
        <ele>472.9</ele>
        <time>2019-08-13T08:13:54Z</time>
      </trkpt>
      <trkpt lat="39.9385250" lon="-4.1924640">
        <ele>472.9</ele>
        <time>2019-08-13T08:13:55Z</time>
      </trkpt>
      <trkpt lat="39.9385800" lon="-4.1924580">
        <ele>472.9</ele>
        <time>2019-08-13T08:13:56Z</time>
      </trkpt>
      <trkpt lat="39.9386350" lon="-4.1924520">
        <ele>472.9</ele>
        <time>2019-08-13T08:13:57Z</time>
      </trkpt>
      <trkpt lat="39.9386900" lon="-4.1924460">
        <ele>472.9</ele>
        <time>2019-08-13T08:13:58Z</time>
      </trkpt>
      <trkpt lat="39.9387450" lon="-4.1924400">
        <ele>472.9</ele>
        <time>2019-08-13T08:13:59Z</time>
      </trkpt>
      <trkpt lat="39.9387990" lon="-4.1924350">
        <ele>472.9</ele>
        <time>2019-08-13T08:14:00Z</time>
      </trkpt>
      <trkpt lat="39.9388540" lon="-4.1924300">
        <ele>472.9</ele>
        <time>2019-08-13T08:14:01Z</time>
      </trkpt>
      <trkpt lat="39.9389080" lon="-4.1924230">
        <ele>472.9</ele>
        <time>2019-08-13T08:14:02Z</time>
      </trkpt>
      <trkpt lat="39.9389630" lon="-4.1924170">
        <ele>472.8</ele>
        <time>2019-08-13T08:14:03Z</time>
      </trkpt>
      <trkpt lat="39.9390180" lon="-4.1924100">
        <ele>472.8</ele>
        <time>2019-08-13T08:14:04Z</time>
      </trkpt>
      <trkpt lat="39.9390730" lon="-4.1924040">
        <ele>472.8</ele>
        <time>2019-08-13T08:14:05Z</time>
      </trkpt>
      <trkpt lat="39.9391270" lon="-4.1923980">
        <ele>472.8</ele>
        <time>2019-08-13T08:14:06Z</time>
      </trkpt>
      <trkpt lat="39.9391820" lon="-4.1923920">
        <ele>472.8</ele>
        <time>2019-08-13T08:14:07Z</time>
      </trkpt>
      <trkpt lat="39.9392360" lon="-4.1923850">
        <ele>472.8</ele>
        <time>2019-08-13T08:14:08Z</time>
      </trkpt>
      <trkpt lat="39.9392910" lon="-4.1923790">
        <ele>472.8</ele>
        <time>2019-08-13T08:14:09Z</time>
      </trkpt>
      <trkpt lat="39.9393460" lon="-4.1923720">
        <ele>472.8</ele>
        <time>2019-08-13T08:14:10Z</time>
      </trkpt>
      <trkpt lat="39.9394010" lon="-4.1923650">
        <ele>472.8</ele>
        <time>2019-08-13T08:14:11Z</time>
      </trkpt>
      <trkpt lat="39.9394560" lon="-4.1923590">
        <ele>472.8</ele>
        <time>2019-08-13T08:14:12Z</time>
      </trkpt>
      <trkpt lat="39.9395090" lon="-4.1923540">
        <ele>472.9</ele>
        <time>2019-08-13T08:14:13Z</time>
      </trkpt>
      <trkpt lat="39.9395610" lon="-4.1923480">
        <ele>472.9</ele>
        <time>2019-08-13T08:14:14Z</time>
      </trkpt>
      <trkpt lat="39.9396140" lon="-4.1923410">
        <ele>473.0</ele>
        <time>2019-08-13T08:14:15Z</time>
      </trkpt>
      <trkpt lat="39.9396680" lon="-4.1923330">
        <ele>473.0</ele>
        <time>2019-08-13T08:14:16Z</time>
      </trkpt>
      <trkpt lat="39.9397220" lon="-4.1923260">
        <ele>473.0</ele>
        <time>2019-08-13T08:14:17Z</time>
      </trkpt>
      <trkpt lat="39.9397770" lon="-4.1923190">
        <ele>473.1</ele>
        <time>2019-08-13T08:14:18Z</time>
      </trkpt>
      <trkpt lat="39.9398330" lon="-4.1923140">
        <ele>473.1</ele>
        <time>2019-08-13T08:14:19Z</time>
      </trkpt>
      <trkpt lat="39.9398890" lon="-4.1923080">
        <ele>473.1</ele>
        <time>2019-08-13T08:14:20Z</time>
      </trkpt>
      <trkpt lat="39.9399450" lon="-4.1923030">
        <ele>473.1</ele>
        <time>2019-08-13T08:14:21Z</time>
      </trkpt>
      <trkpt lat="39.9400010" lon="-4.1922980">
        <ele>473.1</ele>
        <time>2019-08-13T08:14:22Z</time>
      </trkpt>
      <trkpt lat="39.9400560" lon="-4.1922920">
        <ele>473.1</ele>
        <time>2019-08-13T08:14:23Z</time>
      </trkpt>
      <trkpt lat="39.9401130" lon="-4.1922880">
        <ele>473.1</ele>
        <time>2019-08-13T08:14:24Z</time>
      </trkpt>
      <trkpt lat="39.9401710" lon="-4.1922810">
        <ele>473.1</ele>
        <time>2019-08-13T08:14:25Z</time>
      </trkpt>
      <trkpt lat="39.9402300" lon="-4.1922750">
        <ele>473.1</ele>
        <time>2019-08-13T08:14:26Z</time>
      </trkpt>
      <trkpt lat="39.9402880" lon="-4.1922670">
        <ele>473.0</ele>
        <time>2019-08-13T08:14:27Z</time>
      </trkpt>
      <trkpt lat="39.9403470" lon="-4.1922610">
        <ele>473.0</ele>
        <time>2019-08-13T08:14:28Z</time>
      </trkpt>
      <trkpt lat="39.9404060" lon="-4.1922540">
        <ele>473.0</ele>
        <time>2019-08-13T08:14:29Z</time>
      </trkpt>
      <trkpt lat="39.9404660" lon="-4.1922500">
        <ele>473.0</ele>
        <time>2019-08-13T08:14:30Z</time>
      </trkpt>
      <trkpt lat="39.9405260" lon="-4.1922460">
        <ele>473.0</ele>
        <time>2019-08-13T08:14:31Z</time>
      </trkpt>
      <trkpt lat="39.9405850" lon="-4.1922420">
        <ele>472.9</ele>
        <time>2019-08-13T08:14:32Z</time>
      </trkpt>
      <trkpt lat="39.9406440" lon="-4.1922380">
        <ele>472.9</ele>
        <time>2019-08-13T08:14:33Z</time>
      </trkpt>
      <trkpt lat="39.9407030" lon="-4.1922350">
        <ele>472.9</ele>
        <time>2019-08-13T08:14:34Z</time>
      </trkpt>
      <trkpt lat="39.9407620" lon="-4.1922320">
        <ele>472.9</ele>
        <time>2019-08-13T08:14:35Z</time>
      </trkpt>
      <trkpt lat="39.9408190" lon="-4.1922300">
        <ele>472.9</ele>
        <time>2019-08-13T08:14:36Z</time>
      </trkpt>
      <trkpt lat="39.9408780" lon="-4.1922270">
        <ele>473.0</ele>
        <time>2019-08-13T08:14:37Z</time>
      </trkpt>
      <trkpt lat="39.9409360" lon="-4.1922250">
        <ele>473.0</ele>
        <time>2019-08-13T08:14:38Z</time>
      </trkpt>
      <trkpt lat="39.9409940" lon="-4.1922240">
        <ele>473.0</ele>
        <time>2019-08-13T08:14:39Z</time>
      </trkpt>
      <trkpt lat="39.9410510" lon="-4.1922220">
        <ele>473.0</ele>
        <time>2019-08-13T08:14:40Z</time>
      </trkpt>
      <trkpt lat="39.9411090" lon="-4.1922220">
        <ele>473.0</ele>
        <time>2019-08-13T08:14:41Z</time>
      </trkpt>
      <trkpt lat="39.9411660" lon="-4.1922210">
        <ele>473.0</ele>
        <time>2019-08-13T08:14:42Z</time>
      </trkpt>
      <trkpt lat="39.9412230" lon="-4.1922200">
        <ele>473.0</ele>
        <time>2019-08-13T08:14:43Z</time>
      </trkpt>
      <trkpt lat="39.9412810" lon="-4.1922200">
        <ele>473.0</ele>
        <time>2019-08-13T08:14:44Z</time>
      </trkpt>
      <trkpt lat="39.9413390" lon="-4.1922190">
        <ele>473.0</ele>
        <time>2019-08-13T08:14:45Z</time>
      </trkpt>
      <trkpt lat="39.9413960" lon="-4.1922200">
        <ele>473.1</ele>
        <time>2019-08-13T08:14:46Z</time>
      </trkpt>
      <trkpt lat="39.9414540" lon="-4.1922200">
        <ele>473.1</ele>
        <time>2019-08-13T08:14:47Z</time>
      </trkpt>
      <trkpt lat="39.9415120" lon="-4.1922210">
        <ele>473.1</ele>
        <time>2019-08-13T08:14:48Z</time>
      </trkpt>
      <trkpt lat="39.9415700" lon="-4.1922200">
        <ele>473.2</ele>
        <time>2019-08-13T08:14:49Z</time>
      </trkpt>
      <trkpt lat="39.9416270" lon="-4.1922200">
        <ele>473.2</ele>
        <time>2019-08-13T08:14:50Z</time>
      </trkpt>
      <trkpt lat="39.9416840" lon="-4.1922200">
        <ele>473.2</ele>
        <time>2019-08-13T08:14:51Z</time>
      </trkpt>
      <trkpt lat="39.9417400" lon="-4.1922190">
        <ele>473.2</ele>
        <time>2019-08-13T08:14:52Z</time>
      </trkpt>
      <trkpt lat="39.9417960" lon="-4.1922170">
        <ele>473.3</ele>
        <time>2019-08-13T08:14:53Z</time>
      </trkpt>
      <trkpt lat="39.9418520" lon="-4.1922170">
        <ele>473.3</ele>
        <time>2019-08-13T08:14:54Z</time>
      </trkpt>
      <trkpt lat="39.9419070" lon="-4.1922150">
        <ele>473.4</ele>
        <time>2019-08-13T08:14:55Z</time>
      </trkpt>
      <trkpt lat="39.9419610" lon="-4.1922120">
        <ele>473.4</ele>
        <time>2019-08-13T08:14:56Z</time>
      </trkpt>
      <trkpt lat="39.9420150" lon="-4.1922070">
        <ele>473.5</ele>
        <time>2019-08-13T08:14:57Z</time>
      </trkpt>
      <trkpt lat="39.9420680" lon="-4.1922010">
        <ele>473.6</ele>
        <time>2019-08-13T08:14:58Z</time>
      </trkpt>
      <trkpt lat="39.9421200" lon="-4.1921940">
        <ele>473.6</ele>
        <time>2019-08-13T08:14:59Z</time>
      </trkpt>
      <trkpt lat="39.9421720" lon="-4.1921850">
        <ele>473.7</ele>
        <time>2019-08-13T08:15:00Z</time>
      </trkpt>
      <trkpt lat="39.9422240" lon="-4.1921750">
        <ele>473.7</ele>
        <time>2019-08-13T08:15:01Z</time>
      </trkpt>
      <trkpt lat="39.9422760" lon="-4.1921670">
        <ele>473.8</ele>
        <time>2019-08-13T08:15:02Z</time>
      </trkpt>
      <trkpt lat="39.9423270" lon="-4.1921600">
        <ele>473.9</ele>
        <time>2019-08-13T08:15:03Z</time>
      </trkpt>
      <trkpt lat="39.9423780" lon="-4.1921510">
        <ele>473.9</ele>
        <time>2019-08-13T08:15:04Z</time>
      </trkpt>
      <trkpt lat="39.9424290" lon="-4.1921430">
        <ele>474.0</ele>
        <time>2019-08-13T08:15:05Z</time>
      </trkpt>
      <trkpt lat="39.9424810" lon="-4.1921340">
        <ele>474.1</ele>
        <time>2019-08-13T08:15:06Z</time>
      </trkpt>
      <trkpt lat="39.9425330" lon="-4.1921240">
        <ele>474.1</ele>
        <time>2019-08-13T08:15:07Z</time>
      </trkpt>
      <trkpt lat="39.9425840" lon="-4.1921160">
        <ele>474.2</ele>
        <time>2019-08-13T08:15:08Z</time>
      </trkpt>
      <trkpt lat="39.9426360" lon="-4.1921080">
        <ele>474.2</ele>
        <time>2019-08-13T08:15:09Z</time>
      </trkpt>
      <trkpt lat="39.9426870" lon="-4.1921000">
        <ele>474.3</ele>
        <time>2019-08-13T08:15:10Z</time>
      </trkpt>
      <trkpt lat="39.9427380" lon="-4.1920910">
        <ele>474.4</ele>
        <time>2019-08-13T08:15:11Z</time>
      </trkpt>
      <trkpt lat="39.9427880" lon="-4.1920840">
        <ele>474.5</ele>
        <time>2019-08-13T08:15:12Z</time>
      </trkpt>
      <trkpt lat="39.9428370" lon="-4.1920760">
        <ele>474.6</ele>
        <time>2019-08-13T08:15:13Z</time>
      </trkpt>
      <trkpt lat="39.9428840" lon="-4.1920680">
        <ele>474.8</ele>
        <time>2019-08-13T08:15:14Z</time>
      </trkpt>
      <trkpt lat="39.9429320" lon="-4.1920610">
        <ele>474.9</ele>
        <time>2019-08-13T08:15:15Z</time>
      </trkpt>
      <trkpt lat="39.9429800" lon="-4.1920540">
        <ele>475.1</ele>
        <time>2019-08-13T08:15:16Z</time>
      </trkpt>
      <trkpt lat="39.9430280" lon="-4.1920460">
        <ele>475.2</ele>
        <time>2019-08-13T08:15:17Z</time>
      </trkpt>
      <trkpt lat="39.9430760" lon="-4.1920370">
        <ele>475.4</ele>
        <time>2019-08-13T08:15:18Z</time>
      </trkpt>
      <trkpt lat="39.9431250" lon="-4.1920300">
        <ele>475.5</ele>
        <time>2019-08-13T08:15:19Z</time>
      </trkpt>
      <trkpt lat="39.9431740" lon="-4.1920220">
        <ele>475.6</ele>
        <time>2019-08-13T08:15:20Z</time>
      </trkpt>
      <trkpt lat="39.9432230" lon="-4.1920150">
        <ele>475.7</ele>
        <time>2019-08-13T08:15:21Z</time>
      </trkpt>
      <trkpt lat="39.9432730" lon="-4.1920060">
        <ele>475.7</ele>
        <time>2019-08-13T08:15:22Z</time>
      </trkpt>
      <trkpt lat="39.9433210" lon="-4.1919970">
        <ele>475.8</ele>
        <time>2019-08-13T08:15:23Z</time>
      </trkpt>
      <trkpt lat="39.9433710" lon="-4.1919880">
        <ele>475.9</ele>
        <time>2019-08-13T08:15:24Z</time>
      </trkpt>
      <trkpt lat="39.9434210" lon="-4.1919810">
        <ele>476.0</ele>
        <time>2019-08-13T08:15:25Z</time>
      </trkpt>
      <trkpt lat="39.9434710" lon="-4.1919740">
        <ele>476.1</ele>
        <time>2019-08-13T08:15:26Z</time>
      </trkpt>
      <trkpt lat="39.9435210" lon="-4.1919660">
        <ele>476.2</ele>
        <time>2019-08-13T08:15:27Z</time>
      </trkpt>
      <trkpt lat="39.9435710" lon="-4.1919580">
        <ele>476.3</ele>
        <time>2019-08-13T08:15:28Z</time>
      </trkpt>
      <trkpt lat="39.9436200" lon="-4.1919490">
        <ele>476.4</ele>
        <time>2019-08-13T08:15:29Z</time>
      </trkpt>
      <trkpt lat="39.9436670" lon="-4.1919410">
        <ele>476.5</ele>
        <time>2019-08-13T08:15:30Z</time>
      </trkpt>
      <trkpt lat="39.9437140" lon="-4.1919330">
        <ele>476.6</ele>
        <time>2019-08-13T08:15:31Z</time>
      </trkpt>
      <trkpt lat="39.9437590" lon="-4.1919250">
        <ele>476.7</ele>
        <time>2019-08-13T08:15:32Z</time>
      </trkpt>
      <trkpt lat="39.9438050" lon="-4.1919170">
        <ele>476.8</ele>
        <time>2019-08-13T08:15:33Z</time>
      </trkpt>
      <trkpt lat="39.9438510" lon="-4.1919100">
        <ele>476.9</ele>
        <time>2019-08-13T08:15:34Z</time>
      </trkpt>
      <trkpt lat="39.9438970" lon="-4.1919030">
        <ele>477.0</ele>
        <time>2019-08-13T08:15:35Z</time>
      </trkpt>
      <trkpt lat="39.9439420" lon="-4.1918970">
        <ele>477.0</ele>
        <time>2019-08-13T08:15:36Z</time>
      </trkpt>
      <trkpt lat="39.9439880" lon="-4.1918890">
        <ele>477.1</ele>
        <time>2019-08-13T08:15:37Z</time>
      </trkpt>
      <trkpt lat="39.9440330" lon="-4.1918820">
        <ele>477.2</ele>
        <time>2019-08-13T08:15:38Z</time>
      </trkpt>
      <trkpt lat="39.9440780" lon="-4.1918750">
        <ele>477.2</ele>
        <time>2019-08-13T08:15:39Z</time>
      </trkpt>
      <trkpt lat="39.9441240" lon="-4.1918680">
        <ele>477.3</ele>
        <time>2019-08-13T08:15:40Z</time>
      </trkpt>
      <trkpt lat="39.9441700" lon="-4.1918610">
        <ele>477.3</ele>
        <time>2019-08-13T08:15:41Z</time>
      </trkpt>
      <trkpt lat="39.9442160" lon="-4.1918550">
        <ele>477.4</ele>
        <time>2019-08-13T08:15:42Z</time>
      </trkpt>
      <trkpt lat="39.9442630" lon="-4.1918490">
        <ele>477.4</ele>
        <time>2019-08-13T08:15:43Z</time>
      </trkpt>
      <trkpt lat="39.9443110" lon="-4.1918420">
        <ele>477.5</ele>
        <time>2019-08-13T08:15:44Z</time>
      </trkpt>
      <trkpt lat="39.9443580" lon="-4.1918340">
        <ele>477.6</ele>
        <time>2019-08-13T08:15:45Z</time>
      </trkpt>
      <trkpt lat="39.9444070" lon="-4.1918280">
        <ele>477.7</ele>
        <time>2019-08-13T08:15:46Z</time>
      </trkpt>
      <trkpt lat="39.9444550" lon="-4.1918210">
        <ele>477.7</ele>
        <time>2019-08-13T08:15:47Z</time>
      </trkpt>
      <trkpt lat="39.9445020" lon="-4.1918150">
        <ele>477.8</ele>
        <time>2019-08-13T08:15:48Z</time>
      </trkpt>
      <trkpt lat="39.9445500" lon="-4.1918070">
        <ele>477.9</ele>
        <time>2019-08-13T08:15:49Z</time>
      </trkpt>
      <trkpt lat="39.9445980" lon="-4.1918000">
        <ele>478.0</ele>
        <time>2019-08-13T08:15:50Z</time>
      </trkpt>
      <trkpt lat="39.9446460" lon="-4.1917950">
        <ele>478.0</ele>
        <time>2019-08-13T08:15:51Z</time>
      </trkpt>
      <trkpt lat="39.9446930" lon="-4.1917910">
        <ele>478.1</ele>
        <time>2019-08-13T08:15:52Z</time>
      </trkpt>
      <trkpt lat="39.9447400" lon="-4.1917850">
        <ele>478.2</ele>
        <time>2019-08-13T08:15:53Z</time>
      </trkpt>
      <trkpt lat="39.9447860" lon="-4.1917800">
        <ele>478.3</ele>
        <time>2019-08-13T08:15:54Z</time>
      </trkpt>
      <trkpt lat="39.9448310" lon="-4.1917750">
        <ele>478.4</ele>
        <time>2019-08-13T08:15:55Z</time>
      </trkpt>
      <trkpt lat="39.9448780" lon="-4.1917670">
        <ele>478.5</ele>
        <time>2019-08-13T08:15:56Z</time>
      </trkpt>
      <trkpt lat="39.9449250" lon="-4.1917570">
        <ele>478.6</ele>
        <time>2019-08-13T08:15:57Z</time>
      </trkpt>
      <trkpt lat="39.9449730" lon="-4.1917490">
        <ele>478.7</ele>
        <time>2019-08-13T08:15:58Z</time>
      </trkpt>
      <trkpt lat="39.9450210" lon="-4.1917420">
        <ele>478.7</ele>
        <time>2019-08-13T08:15:59Z</time>
      </trkpt>
      <trkpt lat="39.9450710" lon="-4.1917350">
        <ele>478.7</ele>
        <time>2019-08-13T08:16:00Z</time>
      </trkpt>
      <trkpt lat="39.9451210" lon="-4.1917300">
        <ele>478.8</ele>
        <time>2019-08-13T08:16:01Z</time>
      </trkpt>
      <trkpt lat="39.9451730" lon="-4.1917230">
        <ele>478.8</ele>
        <time>2019-08-13T08:16:02Z</time>
      </trkpt>
      <trkpt lat="39.9452220" lon="-4.1917160">
        <ele>478.8</ele>
        <time>2019-08-13T08:16:03Z</time>
      </trkpt>
      <trkpt lat="39.9452700" lon="-4.1917090">
        <ele>478.8</ele>
        <time>2019-08-13T08:16:04Z</time>
      </trkpt>
      <trkpt lat="39.9453170" lon="-4.1917000">
        <ele>478.7</ele>
        <time>2019-08-13T08:16:05Z</time>
      </trkpt>
      <trkpt lat="39.9453650" lon="-4.1916900">
        <ele>478.7</ele>
        <time>2019-08-13T08:16:06Z</time>
      </trkpt>
      <trkpt lat="39.9454130" lon="-4.1916810">
        <ele>478.7</ele>
        <time>2019-08-13T08:16:07Z</time>
      </trkpt>
      <trkpt lat="39.9454620" lon="-4.1916750">
        <ele>478.7</ele>
        <time>2019-08-13T08:16:08Z</time>
      </trkpt>
      <trkpt lat="39.9455100" lon="-4.1916680">
        <ele>478.7</ele>
        <time>2019-08-13T08:16:09Z</time>
      </trkpt>
      <trkpt lat="39.9455590" lon="-4.1916610">
        <ele>478.7</ele>
        <time>2019-08-13T08:16:10Z</time>
      </trkpt>
      <trkpt lat="39.9456080" lon="-4.1916540">
        <ele>478.7</ele>
        <time>2019-08-13T08:16:11Z</time>
      </trkpt>
      <trkpt lat="39.9456550" lon="-4.1916470">
        <ele>478.7</ele>
        <time>2019-08-13T08:16:12Z</time>
      </trkpt>
      <trkpt lat="39.9457040" lon="-4.1916380">
        <ele>478.8</ele>
        <time>2019-08-13T08:16:13Z</time>
      </trkpt>
      <trkpt lat="39.9457540" lon="-4.1916290">
        <ele>478.8</ele>
        <time>2019-08-13T08:16:14Z</time>
      </trkpt>
      <trkpt lat="39.9458040" lon="-4.1916220">
        <ele>478.8</ele>
        <time>2019-08-13T08:16:15Z</time>
      </trkpt>
      <trkpt lat="39.9458530" lon="-4.1916150">
        <ele>478.8</ele>
        <time>2019-08-13T08:16:16Z</time>
      </trkpt>
      <trkpt lat="39.9459020" lon="-4.1916090">
        <ele>478.8</ele>
        <time>2019-08-13T08:16:17Z</time>
      </trkpt>
      <trkpt lat="39.9459520" lon="-4.1916020">
        <ele>478.8</ele>
        <time>2019-08-13T08:16:18Z</time>
      </trkpt>
      <trkpt lat="39.9460030" lon="-4.1915940">
        <ele>478.8</ele>
        <time>2019-08-13T08:16:19Z</time>
      </trkpt>
      <trkpt lat="39.9460550" lon="-4.1915860">
        <ele>478.8</ele>
        <time>2019-08-13T08:16:20Z</time>
      </trkpt>
      <trkpt lat="39.9461080" lon="-4.1915780">
        <ele>478.8</ele>
        <time>2019-08-13T08:16:21Z</time>
      </trkpt>
      <trkpt lat="39.9461630" lon="-4.1915690">
        <ele>478.8</ele>
        <time>2019-08-13T08:16:22Z</time>
      </trkpt>
      <trkpt lat="39.9462160" lon="-4.1915620">
        <ele>478.7</ele>
        <time>2019-08-13T08:16:23Z</time>
      </trkpt>
      <trkpt lat="39.9462680" lon="-4.1915560">
        <ele>478.7</ele>
        <time>2019-08-13T08:16:24Z</time>
      </trkpt>
      <trkpt lat="39.9463200" lon="-4.1915480">
        <ele>478.6</ele>
        <time>2019-08-13T08:16:25Z</time>
      </trkpt>
      <trkpt lat="39.9463730" lon="-4.1915420">
        <ele>478.6</ele>
        <time>2019-08-13T08:16:26Z</time>
      </trkpt>
      <trkpt lat="39.9464270" lon="-4.1915360">
        <ele>478.5</ele>
        <time>2019-08-13T08:16:27Z</time>
      </trkpt>
      <trkpt lat="39.9464810" lon="-4.1915290">
        <ele>478.5</ele>
        <time>2019-08-13T08:16:28Z</time>
      </trkpt>
      <trkpt lat="39.9465350" lon="-4.1915230">
        <ele>478.4</ele>
        <time>2019-08-13T08:16:29Z</time>
      </trkpt>
      <trkpt lat="39.9465890" lon="-4.1915180">
        <ele>478.4</ele>
        <time>2019-08-13T08:16:30Z</time>
      </trkpt>
      <trkpt lat="39.9466430" lon="-4.1915120">
        <ele>478.3</ele>
        <time>2019-08-13T08:16:31Z</time>
      </trkpt>
      <trkpt lat="39.9466970" lon="-4.1915060">
        <ele>478.2</ele>
        <time>2019-08-13T08:16:32Z</time>
      </trkpt>
      <trkpt lat="39.9467520" lon="-4.1915000">
        <ele>478.2</ele>
        <time>2019-08-13T08:16:33Z</time>
      </trkpt>
      <trkpt lat="39.9468070" lon="-4.1914940">
        <ele>478.1</ele>
        <time>2019-08-13T08:16:34Z</time>
      </trkpt>
      <trkpt lat="39.9468620" lon="-4.1914880">
        <ele>478.1</ele>
        <time>2019-08-13T08:16:35Z</time>
      </trkpt>
      <trkpt lat="39.9469170" lon="-4.1914830">
        <ele>478.0</ele>
        <time>2019-08-13T08:16:36Z</time>
      </trkpt>
      <trkpt lat="39.9469730" lon="-4.1914790">
        <ele>478.0</ele>
        <time>2019-08-13T08:16:37Z</time>
      </trkpt>
      <trkpt lat="39.9470280" lon="-4.1914750">
        <ele>478.0</ele>
        <time>2019-08-13T08:16:38Z</time>
      </trkpt>
      <trkpt lat="39.9470830" lon="-4.1914720">
        <ele>478.0</ele>
        <time>2019-08-13T08:16:39Z</time>
      </trkpt>
      <trkpt lat="39.9471380" lon="-4.1914700">
        <ele>478.1</ele>
        <time>2019-08-13T08:16:40Z</time>
      </trkpt>
      <trkpt lat="39.9471920" lon="-4.1914670">
        <ele>478.2</ele>
        <time>2019-08-13T08:16:41Z</time>
      </trkpt>
      <trkpt lat="39.9472460" lon="-4.1914640">
        <ele>478.2</ele>
        <time>2019-08-13T08:16:42Z</time>
      </trkpt>
      <trkpt lat="39.9473000" lon="-4.1914620">
        <ele>478.3</ele>
        <time>2019-08-13T08:16:43Z</time>
      </trkpt>
      <trkpt lat="39.9473550" lon="-4.1914620">
        <ele>478.3</ele>
        <time>2019-08-13T08:16:44Z</time>
      </trkpt>
      <trkpt lat="39.9474080" lon="-4.1914620">
        <ele>478.3</ele>
        <time>2019-08-13T08:16:45Z</time>
      </trkpt>
      <trkpt lat="39.9474610" lon="-4.1914620">
        <ele>478.3</ele>
        <time>2019-08-13T08:16:46Z</time>
      </trkpt>
      <trkpt lat="39.9475150" lon="-4.1914610">
        <ele>478.4</ele>
        <time>2019-08-13T08:16:47Z</time>
      </trkpt>
      <trkpt lat="39.9475670" lon="-4.1914620">
        <ele>478.4</ele>
        <time>2019-08-13T08:16:48Z</time>
      </trkpt>
      <trkpt lat="39.9476190" lon="-4.1914620">
        <ele>478.4</ele>
        <time>2019-08-13T08:16:49Z</time>
      </trkpt>
      <trkpt lat="39.9476700" lon="-4.1914620">
        <ele>478.4</ele>
        <time>2019-08-13T08:16:50Z</time>
      </trkpt>
      <trkpt lat="39.9477210" lon="-4.1914610">
        <ele>478.5</ele>
        <time>2019-08-13T08:16:51Z</time>
      </trkpt>
      <trkpt lat="39.9477710" lon="-4.1914610">
        <ele>478.5</ele>
        <time>2019-08-13T08:16:52Z</time>
      </trkpt>
      <trkpt lat="39.9478210" lon="-4.1914600">
        <ele>478.6</ele>
        <time>2019-08-13T08:16:53Z</time>
      </trkpt>
      <trkpt lat="39.9478710" lon="-4.1914590">
        <ele>478.7</ele>
        <time>2019-08-13T08:16:54Z</time>
      </trkpt>
      <trkpt lat="39.9479220" lon="-4.1914590">
        <ele>478.7</ele>
        <time>2019-08-13T08:16:55Z</time>
      </trkpt>
      <trkpt lat="39.9479730" lon="-4.1914580">
        <ele>478.7</ele>
        <time>2019-08-13T08:16:56Z</time>
      </trkpt>
      <trkpt lat="39.9480220" lon="-4.1914580">
        <ele>478.8</ele>
        <time>2019-08-13T08:16:57Z</time>
      </trkpt>
      <trkpt lat="39.9480730" lon="-4.1914590">
        <ele>478.8</ele>
        <time>2019-08-13T08:16:58Z</time>
      </trkpt>
      <trkpt lat="39.9481230" lon="-4.1914590">
        <ele>478.9</ele>
        <time>2019-08-13T08:16:59Z</time>
      </trkpt>
      <trkpt lat="39.9481730" lon="-4.1914580">
        <ele>478.9</ele>
        <time>2019-08-13T08:17:00Z</time>
      </trkpt>
      <trkpt lat="39.9482220" lon="-4.1914580">
        <ele>478.9</ele>
        <time>2019-08-13T08:17:01Z</time>
      </trkpt>
      <trkpt lat="39.9482730" lon="-4.1914590">
        <ele>478.9</ele>
        <time>2019-08-13T08:17:02Z</time>
      </trkpt>
      <trkpt lat="39.9483230" lon="-4.1914590">
        <ele>478.9</ele>
        <time>2019-08-13T08:17:03Z</time>
      </trkpt>
      <trkpt lat="39.9483750" lon="-4.1914580">
        <ele>479.0</ele>
        <time>2019-08-13T08:17:04Z</time>
      </trkpt>
      <trkpt lat="39.9484270" lon="-4.1914580">
        <ele>479.0</ele>
        <time>2019-08-13T08:17:05Z</time>
      </trkpt>
      <trkpt lat="39.9484790" lon="-4.1914580">
        <ele>479.0</ele>
        <time>2019-08-13T08:17:06Z</time>
      </trkpt>
      <trkpt lat="39.9485320" lon="-4.1914580">
        <ele>479.0</ele>
        <time>2019-08-13T08:17:07Z</time>
      </trkpt>
      <trkpt lat="39.9485860" lon="-4.1914560">
        <ele>479.0</ele>
        <time>2019-08-13T08:17:08Z</time>
      </trkpt>
      <trkpt lat="39.9486400" lon="-4.1914550">
        <ele>479.0</ele>
        <time>2019-08-13T08:17:09Z</time>
      </trkpt>
      <trkpt lat="39.9486930" lon="-4.1914540">
        <ele>479.0</ele>
        <time>2019-08-13T08:17:10Z</time>
      </trkpt>
      <trkpt lat="39.9487460" lon="-4.1914550">
        <ele>479.0</ele>
        <time>2019-08-13T08:17:11Z</time>
      </trkpt>
      <trkpt lat="39.9487990" lon="-4.1914560">
        <ele>479.0</ele>
        <time>2019-08-13T08:17:12Z</time>
      </trkpt>
      <trkpt lat="39.9488530" lon="-4.1914560">
        <ele>479.0</ele>
        <time>2019-08-13T08:17:13Z</time>
      </trkpt>
      <trkpt lat="39.9489070" lon="-4.1914580">
        <ele>479.0</ele>
        <time>2019-08-13T08:17:14Z</time>
      </trkpt>
      <trkpt lat="39.9489610" lon="-4.1914600">
        <ele>479.0</ele>
        <time>2019-08-13T08:17:15Z</time>
      </trkpt>
      <trkpt lat="39.9490160" lon="-4.1914630">
        <ele>479.0</ele>
        <time>2019-08-13T08:17:16Z</time>
      </trkpt>
      <trkpt lat="39.9490680" lon="-4.1914660">
        <ele>479.0</ele>
        <time>2019-08-13T08:17:17Z</time>
      </trkpt>
      <trkpt lat="39.9491180" lon="-4.1914680">
        <ele>479.0</ele>
        <time>2019-08-13T08:17:18Z</time>
      </trkpt>
      <trkpt lat="39.9491650" lon="-4.1914690">
        <ele>479.0</ele>
        <time>2019-08-13T08:17:19Z</time>
      </trkpt>
      <trkpt lat="39.9492100" lon="-4.1914720">
        <ele>479.0</ele>
        <time>2019-08-13T08:17:20Z</time>
      </trkpt>
      <trkpt lat="39.9492570" lon="-4.1914760">
        <ele>479.1</ele>
        <time>2019-08-13T08:17:21Z</time>
      </trkpt>
      <trkpt lat="39.9493050" lon="-4.1914810">
        <ele>479.1</ele>
        <time>2019-08-13T08:17:22Z</time>
      </trkpt>
      <trkpt lat="39.9493530" lon="-4.1914850">
        <ele>479.1</ele>
        <time>2019-08-13T08:17:23Z</time>
      </trkpt>
      <trkpt lat="39.9494020" lon="-4.1914890">
        <ele>479.2</ele>
        <time>2019-08-13T08:17:24Z</time>
      </trkpt>
      <trkpt lat="39.9494510" lon="-4.1914920">
        <ele>479.3</ele>
        <time>2019-08-13T08:17:25Z</time>
      </trkpt>
      <trkpt lat="39.9495010" lon="-4.1914950">
        <ele>479.3</ele>
        <time>2019-08-13T08:17:26Z</time>
      </trkpt>
      <trkpt lat="39.9495510" lon="-4.1914980">
        <ele>479.4</ele>
        <time>2019-08-13T08:17:27Z</time>
      </trkpt>
      <trkpt lat="39.9496010" lon="-4.1915000">
        <ele>479.5</ele>
        <time>2019-08-13T08:17:28Z</time>
      </trkpt>
      <trkpt lat="39.9496510" lon="-4.1915040">
        <ele>479.5</ele>
        <time>2019-08-13T08:17:29Z</time>
      </trkpt>
      <trkpt lat="39.9497020" lon="-4.1915080">
        <ele>479.6</ele>
        <time>2019-08-13T08:17:30Z</time>
      </trkpt>
      <trkpt lat="39.9497530" lon="-4.1915110">
        <ele>479.7</ele>
        <time>2019-08-13T08:17:31Z</time>
      </trkpt>
      <trkpt lat="39.9498030" lon="-4.1915150">
        <ele>479.7</ele>
        <time>2019-08-13T08:17:32Z</time>
      </trkpt>
      <trkpt lat="39.9498520" lon="-4.1915200">
        <ele>479.8</ele>
        <time>2019-08-13T08:17:33Z</time>
      </trkpt>
      <trkpt lat="39.9499010" lon="-4.1915250">
        <ele>479.9</ele>
        <time>2019-08-13T08:17:34Z</time>
      </trkpt>
      <trkpt lat="39.9499490" lon="-4.1915300">
        <ele>479.9</ele>
        <time>2019-08-13T08:17:35Z</time>
      </trkpt>
      <trkpt lat="39.9499970" lon="-4.1915350">
        <ele>480.0</ele>
        <time>2019-08-13T08:17:36Z</time>
      </trkpt>
      <trkpt lat="39.9500450" lon="-4.1915390">
        <ele>480.1</ele>
        <time>2019-08-13T08:17:37Z</time>
      </trkpt>
      <trkpt lat="39.9500940" lon="-4.1915450">
        <ele>480.2</ele>
        <time>2019-08-13T08:17:38Z</time>
      </trkpt>
      <trkpt lat="39.9501440" lon="-4.1915500">
        <ele>480.3</ele>
        <time>2019-08-13T08:17:39Z</time>
      </trkpt>
      <trkpt lat="39.9501930" lon="-4.1915550">
        <ele>480.4</ele>
        <time>2019-08-13T08:17:40Z</time>
      </trkpt>
      <trkpt lat="39.9502420" lon="-4.1915610">
        <ele>480.5</ele>
        <time>2019-08-13T08:17:41Z</time>
      </trkpt>
      <trkpt lat="39.9502900" lon="-4.1915660">
        <ele>480.7</ele>
        <time>2019-08-13T08:17:42Z</time>
      </trkpt>
      <trkpt lat="39.9503390" lon="-4.1915700">
        <ele>480.7</ele>
        <time>2019-08-13T08:17:43Z</time>
      </trkpt>
      <trkpt lat="39.9503880" lon="-4.1915750">
        <ele>480.8</ele>
        <time>2019-08-13T08:17:44Z</time>
      </trkpt>
      <trkpt lat="39.9504370" lon="-4.1915800">
        <ele>480.9</ele>
        <time>2019-08-13T08:17:45Z</time>
      </trkpt>
      <trkpt lat="39.9504850" lon="-4.1915860">
        <ele>481.0</ele>
        <time>2019-08-13T08:17:46Z</time>
      </trkpt>
      <trkpt lat="39.9505330" lon="-4.1915910">
        <ele>481.1</ele>
        <time>2019-08-13T08:17:47Z</time>
      </trkpt>
      <trkpt lat="39.9505820" lon="-4.1915970">
        <ele>481.1</ele>
        <time>2019-08-13T08:17:48Z</time>
      </trkpt>
      <trkpt lat="39.9506290" lon="-4.1916030">
        <ele>481.2</ele>
        <time>2019-08-13T08:17:49Z</time>
      </trkpt>
      <trkpt lat="39.9506780" lon="-4.1916100">
        <ele>481.2</ele>
        <time>2019-08-13T08:17:50Z</time>
      </trkpt>
      <trkpt lat="39.9507270" lon="-4.1916180">
        <ele>481.2</ele>
        <time>2019-08-13T08:17:51Z</time>
      </trkpt>
      <trkpt lat="39.9507740" lon="-4.1916260">
        <ele>481.3</ele>
        <time>2019-08-13T08:17:52Z</time>
      </trkpt>
      <trkpt lat="39.9508230" lon="-4.1916340">
        <ele>481.3</ele>
        <time>2019-08-13T08:17:53Z</time>
      </trkpt>
      <trkpt lat="39.9508720" lon="-4.1916440">
        <ele>481.3</ele>
        <time>2019-08-13T08:17:54Z</time>
      </trkpt>
      <trkpt lat="39.9509200" lon="-4.1916540">
        <ele>481.3</ele>
        <time>2019-08-13T08:17:55Z</time>
      </trkpt>
      <trkpt lat="39.9509670" lon="-4.1916640">
        <ele>481.4</ele>
        <time>2019-08-13T08:17:56Z</time>
      </trkpt>
      <trkpt lat="39.9510160" lon="-4.1916730">
        <ele>481.4</ele>
        <time>2019-08-13T08:17:57Z</time>
      </trkpt>
      <trkpt lat="39.9510650" lon="-4.1916840">
        <ele>481.4</ele>
        <time>2019-08-13T08:17:58Z</time>
      </trkpt>
      <trkpt lat="39.9511130" lon="-4.1916950">
        <ele>481.4</ele>
        <time>2019-08-13T08:17:59Z</time>
      </trkpt>
      <trkpt lat="39.9511610" lon="-4.1917070">
        <ele>481.4</ele>
        <time>2019-08-13T08:18:00Z</time>
      </trkpt>
      <trkpt lat="39.9512090" lon="-4.1917190">
        <ele>481.4</ele>
        <time>2019-08-13T08:18:01Z</time>
      </trkpt>
      <trkpt lat="39.9512580" lon="-4.1917320">
        <ele>481.5</ele>
        <time>2019-08-13T08:18:02Z</time>
      </trkpt>
      <trkpt lat="39.9513080" lon="-4.1917440">
        <ele>481.5</ele>
        <time>2019-08-13T08:18:03Z</time>
      </trkpt>
      <trkpt lat="39.9513580" lon="-4.1917580">
        <ele>481.5</ele>
        <time>2019-08-13T08:18:04Z</time>
      </trkpt>
      <trkpt lat="39.9514100" lon="-4.1917720">
        <ele>481.5</ele>
        <time>2019-08-13T08:18:05Z</time>
      </trkpt>
      <trkpt lat="39.9514620" lon="-4.1917850">
        <ele>481.5</ele>
        <time>2019-08-13T08:18:06Z</time>
      </trkpt>
      <trkpt lat="39.9515150" lon="-4.1917970">
        <ele>481.5</ele>
        <time>2019-08-13T08:18:07Z</time>
      </trkpt>
      <trkpt lat="39.9515670" lon="-4.1918100">
        <ele>481.5</ele>
        <time>2019-08-13T08:18:08Z</time>
      </trkpt>
      <trkpt lat="39.9516180" lon="-4.1918240">
        <ele>481.5</ele>
        <time>2019-08-13T08:18:09Z</time>
      </trkpt>
      <trkpt lat="39.9516660" lon="-4.1918380">
        <ele>481.5</ele>
        <time>2019-08-13T08:18:10Z</time>
      </trkpt>
      <trkpt lat="39.9517140" lon="-4.1918500">
        <ele>481.6</ele>
        <time>2019-08-13T08:18:11Z</time>
      </trkpt>
      <trkpt lat="39.9517630" lon="-4.1918600">
        <ele>481.6</ele>
        <time>2019-08-13T08:18:12Z</time>
      </trkpt>
      <trkpt lat="39.9518120" lon="-4.1918710">
        <ele>481.7</ele>
        <time>2019-08-13T08:18:13Z</time>
      </trkpt>
      <trkpt lat="39.9518620" lon="-4.1918830">
        <ele>481.7</ele>
        <time>2019-08-13T08:18:14Z</time>
      </trkpt>
      <trkpt lat="39.9519140" lon="-4.1918920">
        <ele>481.7</ele>
        <time>2019-08-13T08:18:15Z</time>
      </trkpt>
      <trkpt lat="39.9519650" lon="-4.1919010">
        <ele>481.8</ele>
        <time>2019-08-13T08:18:16Z</time>
      </trkpt>
      <trkpt lat="39.9520180" lon="-4.1919100">
        <ele>481.9</ele>
        <time>2019-08-13T08:18:17Z</time>
      </trkpt>
      <trkpt lat="39.9520710" lon="-4.1919200">
        <ele>481.9</ele>
        <time>2019-08-13T08:18:18Z</time>
      </trkpt>
      <trkpt lat="39.9521250" lon="-4.1919290">
        <ele>482.0</ele>
        <time>2019-08-13T08:18:19Z</time>
      </trkpt>
      <trkpt lat="39.9521760" lon="-4.1919390">
        <ele>482.0</ele>
        <time>2019-08-13T08:18:20Z</time>
      </trkpt>
      <trkpt lat="39.9522260" lon="-4.1919470">
        <ele>482.1</ele>
        <time>2019-08-13T08:18:21Z</time>
      </trkpt>
      <trkpt lat="39.9522730" lon="-4.1919520">
        <ele>482.2</ele>
        <time>2019-08-13T08:18:22Z</time>
      </trkpt>
      <trkpt lat="39.9523190" lon="-4.1919570">
        <ele>482.2</ele>
        <time>2019-08-13T08:18:23Z</time>
      </trkpt>
      <trkpt lat="39.9523630" lon="-4.1919620">
        <ele>482.2</ele>
        <time>2019-08-13T08:18:24Z</time>
      </trkpt>
      <trkpt lat="39.9524050" lon="-4.1919660">
        <ele>482.3</ele>
        <time>2019-08-13T08:18:25Z</time>
      </trkpt>
      <trkpt lat="39.9524470" lon="-4.1919670">
        <ele>482.3</ele>
        <time>2019-08-13T08:18:26Z</time>
      </trkpt>
      <trkpt lat="39.9524890" lon="-4.1919640">
        <ele>482.3</ele>
        <time>2019-08-13T08:18:27Z</time>
      </trkpt>
      <trkpt lat="39.9525310" lon="-4.1919610">
        <ele>482.3</ele>
        <time>2019-08-13T08:18:28Z</time>
      </trkpt>
      <trkpt lat="39.9525720" lon="-4.1919590">
        <ele>482.3</ele>
        <time>2019-08-13T08:18:29Z</time>
      </trkpt>
      <trkpt lat="39.9526090" lon="-4.1919520">
        <ele>482.4</ele>
        <time>2019-08-13T08:18:30Z</time>
      </trkpt>
      <trkpt lat="39.9526460" lon="-4.1919400">
        <ele>482.4</ele>
        <time>2019-08-13T08:18:31Z</time>
      </trkpt>
      <trkpt lat="39.9526850" lon="-4.1919250">
        <ele>482.5</ele>
        <time>2019-08-13T08:18:32Z</time>
      </trkpt>
      <trkpt lat="39.9527220" lon="-4.1919090">
        <ele>482.5</ele>
        <time>2019-08-13T08:18:33Z</time>
      </trkpt>
      <trkpt lat="39.9527580" lon="-4.1918930">
        <ele>482.6</ele>
        <time>2019-08-13T08:18:34Z</time>
      </trkpt>
      <trkpt lat="39.9527930" lon="-4.1918800">
        <ele>482.6</ele>
        <time>2019-08-13T08:18:35Z</time>
      </trkpt>
      <trkpt lat="39.9528290" lon="-4.1918710">
        <ele>482.7</ele>
        <time>2019-08-13T08:18:36Z</time>
      </trkpt>
      <trkpt lat="39.9528650" lon="-4.1918610">
        <ele>482.8</ele>
        <time>2019-08-13T08:18:37Z</time>
      </trkpt>
      <trkpt lat="39.9529030" lon="-4.1918510">
        <ele>483.0</ele>
        <time>2019-08-13T08:18:38Z</time>
      </trkpt>
      <trkpt lat="39.9529390" lon="-4.1918430">
        <ele>483.1</ele>
        <time>2019-08-13T08:18:39Z</time>
      </trkpt>
      <trkpt lat="39.9529700" lon="-4.1918400">
        <ele>483.2</ele>
        <time>2019-08-13T08:18:40Z</time>
      </trkpt>
      <trkpt lat="39.9529980" lon="-4.1918370">
        <ele>483.3</ele>
        <time>2019-08-13T08:18:41Z</time>
      </trkpt>
      <trkpt lat="39.9530250" lon="-4.1918350">
        <ele>483.4</ele>
        <time>2019-08-13T08:18:42Z</time>
      </trkpt>
      <trkpt lat="39.9530550" lon="-4.1918370">
        <ele>483.5</ele>
        <time>2019-08-13T08:18:43Z</time>
      </trkpt>
      <trkpt lat="39.9530890" lon="-4.1918400">
        <ele>483.6</ele>
        <time>2019-08-13T08:18:44Z</time>
      </trkpt>
      <trkpt lat="39.9531170" lon="-4.1918410">
        <ele>483.7</ele>
        <time>2019-08-13T08:18:45Z</time>
      </trkpt>
      <trkpt lat="39.9531610" lon="-4.1918390">
        <ele>483.8</ele>
        <time>2019-08-13T08:18:47Z</time>
      </trkpt>
      <trkpt lat="39.9532020" lon="-4.1918480">
        <ele>483.9</ele>
        <time>2019-08-13T08:18:49Z</time>
      </trkpt>
      <trkpt lat="39.9532420" lon="-4.1918500">
        <ele>483.9</ele>
        <time>2019-08-13T08:18:51Z</time>
      </trkpt>
      <trkpt lat="39.9532830" lon="-4.1918550">
        <ele>484.0</ele>
        <time>2019-08-13T08:18:53Z</time>
      </trkpt>
      <trkpt lat="39.9533190" lon="-4.1918690">
        <ele>484.1</ele>
        <time>2019-08-13T08:18:54Z</time>
      </trkpt>
      <trkpt lat="39.9534510" lon="-4.1918550">
        <ele>484.3</ele>
        <time>2019-08-13T08:18:55Z</time>
      </trkpt>
      <trkpt lat="39.9534930" lon="-4.1918350">
        <ele>484.3</ele>
        <time>2019-08-13T08:18:56Z</time>
      </trkpt>
      <trkpt lat="39.9535350" lon="-4.1918450">
        <ele>484.3</ele>
        <time>2019-08-13T08:18:59Z</time>
      </trkpt>
      <trkpt lat="39.9535720" lon="-4.1918630">
        <ele>484.4</ele>
        <time>2019-08-13T08:19:00Z</time>
      </trkpt>
      <trkpt lat="39.9536110" lon="-4.1918800">
        <ele>484.4</ele>
        <time>2019-08-13T08:19:01Z</time>
      </trkpt>
      <trkpt lat="39.9536490" lon="-4.1919020">
        <ele>484.5</ele>
        <time>2019-08-13T08:19:02Z</time>
      </trkpt>
      <trkpt lat="39.9536790" lon="-4.1919260">
        <ele>484.5</ele>
        <time>2019-08-13T08:19:03Z</time>
      </trkpt>
      <trkpt lat="39.9537060" lon="-4.1919450">
        <ele>484.5</ele>
        <time>2019-08-13T08:19:04Z</time>
      </trkpt>
      <trkpt lat="39.9537330" lon="-4.1919580">
        <ele>484.6</ele>
        <time>2019-08-13T08:19:05Z</time>
      </trkpt>
      <trkpt lat="39.9537620" lon="-4.1919820">
        <ele>484.7</ele>
        <time>2019-08-13T08:19:06Z</time>
      </trkpt>
      <trkpt lat="39.9537900" lon="-4.1920050">
        <ele>484.7</ele>
        <time>2019-08-13T08:19:07Z</time>
      </trkpt>
      <trkpt lat="39.9538190" lon="-4.1920290">
        <ele>484.8</ele>
        <time>2019-08-13T08:19:08Z</time>
      </trkpt>
      <trkpt lat="39.9538480" lon="-4.1920580">
        <ele>484.9</ele>
        <time>2019-08-13T08:19:09Z</time>
      </trkpt>
      <trkpt lat="39.9538780" lon="-4.1920890">
        <ele>485.0</ele>
        <time>2019-08-13T08:19:10Z</time>
      </trkpt>
      <trkpt lat="39.9539080" lon="-4.1921150">
        <ele>485.1</ele>
        <time>2019-08-13T08:19:11Z</time>
      </trkpt>
      <trkpt lat="39.9539360" lon="-4.1921380">
        <ele>485.2</ele>
        <time>2019-08-13T08:19:12Z</time>
      </trkpt>
      <trkpt lat="39.9539630" lon="-4.1921550">
        <ele>485.2</ele>
        <time>2019-08-13T08:19:13Z</time>
      </trkpt>
      <trkpt lat="39.9539870" lon="-4.1921730">
        <ele>485.3</ele>
        <time>2019-08-13T08:19:14Z</time>
      </trkpt>
      <trkpt lat="39.9540130" lon="-4.1921890">
        <ele>485.3</ele>
        <time>2019-08-13T08:19:15Z</time>
      </trkpt>
      <trkpt lat="39.9540430" lon="-4.1922070">
        <ele>485.4</ele>
        <time>2019-08-13T08:19:16Z</time>
      </trkpt>
      <trkpt lat="39.9540760" lon="-4.1922250">
        <ele>485.5</ele>
        <time>2019-08-13T08:19:17Z</time>
      </trkpt>
      <trkpt lat="39.9541090" lon="-4.1922440">
        <ele>485.5</ele>
        <time>2019-08-13T08:19:18Z</time>
      </trkpt>
      <trkpt lat="39.9541470" lon="-4.1922640">
        <ele>485.6</ele>
        <time>2019-08-13T08:19:19Z</time>
      </trkpt>
      <trkpt lat="39.9541860" lon="-4.1922850">
        <ele>485.7</ele>
        <time>2019-08-13T08:19:20Z</time>
      </trkpt>
      <trkpt lat="39.9542240" lon="-4.1923050">
        <ele>485.8</ele>
        <time>2019-08-13T08:19:21Z</time>
      </trkpt>
      <trkpt lat="39.9542580" lon="-4.1923250">
        <ele>485.9</ele>
        <time>2019-08-13T08:19:22Z</time>
      </trkpt>
      <trkpt lat="39.9542920" lon="-4.1923440">
        <ele>485.9</ele>
        <time>2019-08-13T08:19:23Z</time>
      </trkpt>
      <trkpt lat="39.9543260" lon="-4.1923620">
        <ele>486.0</ele>
        <time>2019-08-13T08:19:24Z</time>
      </trkpt>
      <trkpt lat="39.9543580" lon="-4.1923800">
        <ele>486.1</ele>
        <time>2019-08-13T08:19:25Z</time>
      </trkpt>
      <trkpt lat="39.9543870" lon="-4.1924000">
        <ele>486.1</ele>
        <time>2019-08-13T08:19:26Z</time>
      </trkpt>
      <trkpt lat="39.9544170" lon="-4.1924180">
        <ele>486.1</ele>
        <time>2019-08-13T08:19:27Z</time>
      </trkpt>
      <trkpt lat="39.9544480" lon="-4.1924330">
        <ele>486.2</ele>
        <time>2019-08-13T08:19:28Z</time>
      </trkpt>
      <trkpt lat="39.9544770" lon="-4.1924480">
        <ele>486.2</ele>
        <time>2019-08-13T08:19:29Z</time>
      </trkpt>
      <trkpt lat="39.9545070" lon="-4.1924650">
        <ele>486.2</ele>
        <time>2019-08-13T08:19:30Z</time>
      </trkpt>
      <trkpt lat="39.9545360" lon="-4.1924810">
        <ele>486.3</ele>
        <time>2019-08-13T08:19:31Z</time>
      </trkpt>
      <trkpt lat="39.9545630" lon="-4.1924970">
        <ele>486.3</ele>
        <time>2019-08-13T08:19:32Z</time>
      </trkpt>
      <trkpt lat="39.9545900" lon="-4.1925080">
        <ele>486.3</ele>
        <time>2019-08-13T08:19:33Z</time>
      </trkpt>
      <trkpt lat="39.9546180" lon="-4.1925160">
        <ele>486.4</ele>
        <time>2019-08-13T08:19:34Z</time>
      </trkpt>
      <trkpt lat="39.9546490" lon="-4.1925250">
        <ele>486.4</ele>
        <time>2019-08-13T08:19:35Z</time>
      </trkpt>
      <trkpt lat="39.9546830" lon="-4.1925360">
        <ele>486.4</ele>
        <time>2019-08-13T08:19:36Z</time>
      </trkpt>
      <trkpt lat="39.9547180" lon="-4.1925540">
        <ele>486.5</ele>
        <time>2019-08-13T08:19:37Z</time>
      </trkpt>
      <trkpt lat="39.9547540" lon="-4.1925740">
        <ele>486.5</ele>
        <time>2019-08-13T08:19:38Z</time>
      </trkpt>
      <trkpt lat="39.9547880" lon="-4.1925920">
        <ele>486.6</ele>
        <time>2019-08-13T08:19:39Z</time>
      </trkpt>
      <trkpt lat="39.9548190" lon="-4.1926100">
        <ele>486.6</ele>
        <time>2019-08-13T08:19:40Z</time>
      </trkpt>
      <trkpt lat="39.9548530" lon="-4.1926280">
        <ele>486.7</ele>
        <time>2019-08-13T08:19:41Z</time>
      </trkpt>
      <trkpt lat="39.9548860" lon="-4.1926490">
        <ele>486.7</ele>
        <time>2019-08-13T08:19:42Z</time>
      </trkpt>
      <trkpt lat="39.9549200" lon="-4.1926670">
        <ele>486.8</ele>
        <time>2019-08-13T08:19:43Z</time>
      </trkpt>
      <trkpt lat="39.9549540" lon="-4.1926850">
        <ele>486.9</ele>
        <time>2019-08-13T08:19:44Z</time>
      </trkpt>
      <trkpt lat="39.9549900" lon="-4.1926980">
        <ele>486.9</ele>
        <time>2019-08-13T08:19:45Z</time>
      </trkpt>
      <trkpt lat="39.9550210" lon="-4.1927090">
        <ele>486.9</ele>
        <time>2019-08-13T08:19:46Z</time>
      </trkpt>
      <trkpt lat="39.9550550" lon="-4.1927200">
        <ele>486.9</ele>
        <time>2019-08-13T08:19:47Z</time>
      </trkpt>
      <trkpt lat="39.9550890" lon="-4.1927360">
        <ele>486.9</ele>
        <time>2019-08-13T08:19:48Z</time>
      </trkpt>
      <trkpt lat="39.9551190" lon="-4.1927540">
        <ele>486.9</ele>
        <time>2019-08-13T08:19:49Z</time>
      </trkpt>
      <trkpt lat="39.9551530" lon="-4.1927640">
        <ele>486.9</ele>
        <time>2019-08-13T08:19:50Z</time>
      </trkpt>
      <trkpt lat="39.9551920" lon="-4.1927780">
        <ele>486.9</ele>
        <time>2019-08-13T08:19:51Z</time>
      </trkpt>
      <trkpt lat="39.9552290" lon="-4.1927980">
        <ele>486.8</ele>
        <time>2019-08-13T08:19:52Z</time>
      </trkpt>
      <trkpt lat="39.9552710" lon="-4.1928110">
        <ele>486.8</ele>
        <time>2019-08-13T08:19:53Z</time>
      </trkpt>
      <trkpt lat="39.9553140" lon="-4.1928240">
        <ele>486.7</ele>
        <time>2019-08-13T08:19:54Z</time>
      </trkpt>
      <trkpt lat="39.9553540" lon="-4.1928410">
        <ele>486.6</ele>
        <time>2019-08-13T08:19:55Z</time>
      </trkpt>
      <trkpt lat="39.9553900" lon="-4.1928580">
        <ele>486.6</ele>
        <time>2019-08-13T08:19:56Z</time>
      </trkpt>
      <trkpt lat="39.9554260" lon="-4.1928740">
        <ele>486.6</ele>
        <time>2019-08-13T08:19:57Z</time>
      </trkpt>
      <trkpt lat="39.9554600" lon="-4.1928910">
        <ele>486.6</ele>
        <time>2019-08-13T08:19:58Z</time>
      </trkpt>
      <trkpt lat="39.9555010" lon="-4.1929090">
        <ele>486.5</ele>
        <time>2019-08-13T08:19:59Z</time>
      </trkpt>
      <trkpt lat="39.9555400" lon="-4.1929250">
        <ele>486.5</ele>
        <time>2019-08-13T08:20:00Z</time>
      </trkpt>
      <trkpt lat="39.9555770" lon="-4.1929390">
        <ele>486.4</ele>
        <time>2019-08-13T08:20:01Z</time>
      </trkpt>
      <trkpt lat="39.9556130" lon="-4.1929550">
        <ele>486.5</ele>
        <time>2019-08-13T08:20:02Z</time>
      </trkpt>
      <trkpt lat="39.9556530" lon="-4.1929750">
        <ele>486.5</ele>
        <time>2019-08-13T08:20:03Z</time>
      </trkpt>
      <trkpt lat="39.9556980" lon="-4.1929950">
        <ele>486.6</ele>
        <time>2019-08-13T08:20:04Z</time>
      </trkpt>
      <trkpt lat="39.9557440" lon="-4.1930050">
        <ele>486.6</ele>
        <time>2019-08-13T08:20:05Z</time>
      </trkpt>
      <trkpt lat="39.9557890" lon="-4.1930190">
        <ele>486.6</ele>
        <time>2019-08-13T08:20:06Z</time>
      </trkpt>
      <trkpt lat="39.9558290" lon="-4.1930440">
        <ele>486.6</ele>
        <time>2019-08-13T08:20:07Z</time>
      </trkpt>
      <trkpt lat="39.9558680" lon="-4.1930690">
        <ele>486.7</ele>
        <time>2019-08-13T08:20:08Z</time>
      </trkpt>
      <trkpt lat="39.9559080" lon="-4.1930840">
        <ele>486.8</ele>
        <time>2019-08-13T08:20:09Z</time>
      </trkpt>
      <trkpt lat="39.9559480" lon="-4.1931000">
        <ele>486.8</ele>
        <time>2019-08-13T08:20:10Z</time>
      </trkpt>
      <trkpt lat="39.9559870" lon="-4.1931130">
        <ele>486.9</ele>
        <time>2019-08-13T08:20:11Z</time>
      </trkpt>
      <trkpt lat="39.9560260" lon="-4.1931230">
        <ele>486.9</ele>
        <time>2019-08-13T08:20:12Z</time>
      </trkpt>
      <trkpt lat="39.9560590" lon="-4.1931340">
        <ele>486.9</ele>
        <time>2019-08-13T08:20:13Z</time>
      </trkpt>
      <trkpt lat="39.9560970" lon="-4.1931460">
        <ele>487.0</ele>
        <time>2019-08-13T08:20:14Z</time>
      </trkpt>
      <trkpt lat="39.9561360" lon="-4.1931620">
        <ele>487.0</ele>
        <time>2019-08-13T08:20:15Z</time>
      </trkpt>
      <trkpt lat="39.9561760" lon="-4.1931830">
        <ele>487.1</ele>
        <time>2019-08-13T08:20:16Z</time>
      </trkpt>
      <trkpt lat="39.9562130" lon="-4.1931990">
        <ele>487.1</ele>
        <time>2019-08-13T08:20:17Z</time>
      </trkpt>
      <trkpt lat="39.9562550" lon="-4.1932180">
        <ele>487.1</ele>
        <time>2019-08-13T08:20:18Z</time>
      </trkpt>
      <trkpt lat="39.9562960" lon="-4.1932310">
        <ele>487.1</ele>
        <time>2019-08-13T08:20:19Z</time>
      </trkpt>
      <trkpt lat="39.9563340" lon="-4.1932420">
        <ele>487.2</ele>
        <time>2019-08-13T08:20:20Z</time>
      </trkpt>
      <trkpt lat="39.9563750" lon="-4.1932600">
        <ele>487.2</ele>
        <time>2019-08-13T08:20:21Z</time>
      </trkpt>
      <trkpt lat="39.9564180" lon="-4.1932750">
        <ele>487.2</ele>
        <time>2019-08-13T08:20:22Z</time>
      </trkpt>
      <trkpt lat="39.9564660" lon="-4.1932940">
        <ele>487.2</ele>
        <time>2019-08-13T08:20:23Z</time>
      </trkpt>
      <trkpt lat="39.9565130" lon="-4.1933040">
        <ele>487.2</ele>
        <time>2019-08-13T08:20:24Z</time>
      </trkpt>
      <trkpt lat="39.9565580" lon="-4.1933180">
        <ele>487.2</ele>
        <time>2019-08-13T08:20:25Z</time>
      </trkpt>
      <trkpt lat="39.9566020" lon="-4.1933400">
        <ele>487.2</ele>
        <time>2019-08-13T08:20:26Z</time>
      </trkpt>
      <trkpt lat="39.9566480" lon="-4.1933610">
        <ele>487.2</ele>
        <time>2019-08-13T08:20:27Z</time>
      </trkpt>
      <trkpt lat="39.9566890" lon="-4.1933780">
        <ele>487.2</ele>
        <time>2019-08-13T08:20:28Z</time>
      </trkpt>
      <trkpt lat="39.9567310" lon="-4.1933870">
        <ele>487.1</ele>
        <time>2019-08-13T08:20:29Z</time>
      </trkpt>
      <trkpt lat="39.9567740" lon="-4.1934000">
        <ele>487.1</ele>
        <time>2019-08-13T08:20:30Z</time>
      </trkpt>
      <trkpt lat="39.9568170" lon="-4.1934100">
        <ele>487.1</ele>
        <time>2019-08-13T08:20:31Z</time>
      </trkpt>
      <trkpt lat="39.9568610" lon="-4.1934220">
        <ele>487.2</ele>
        <time>2019-08-13T08:20:32Z</time>
      </trkpt>
      <trkpt lat="39.9569100" lon="-4.1934380">
        <ele>487.3</ele>
        <time>2019-08-13T08:20:33Z</time>
      </trkpt>
      <trkpt lat="39.9569580" lon="-4.1934550">
        <ele>487.4</ele>
        <time>2019-08-13T08:20:34Z</time>
      </trkpt>
      <trkpt lat="39.9570070" lon="-4.1934700">
        <ele>487.6</ele>
        <time>2019-08-13T08:20:35Z</time>
      </trkpt>
      <trkpt lat="39.9570550" lon="-4.1934870">
        <ele>487.7</ele>
        <time>2019-08-13T08:20:36Z</time>
      </trkpt>
      <trkpt lat="39.9570940" lon="-4.1934980">
        <ele>487.8</ele>
        <time>2019-08-13T08:20:37Z</time>
      </trkpt>
      <trkpt lat="39.9571360" lon="-4.1935100">
        <ele>487.9</ele>
        <time>2019-08-13T08:20:38Z</time>
      </trkpt>
      <trkpt lat="39.9571850" lon="-4.1935250">
        <ele>487.9</ele>
        <time>2019-08-13T08:20:39Z</time>
      </trkpt>
      <trkpt lat="39.9572290" lon="-4.1935380">
        <ele>488.0</ele>
        <time>2019-08-13T08:20:40Z</time>
      </trkpt>
      <trkpt lat="39.9572700" lon="-4.1935460">
        <ele>488.1</ele>
        <time>2019-08-13T08:20:41Z</time>
      </trkpt>
      <trkpt lat="39.9573100" lon="-4.1935560">
        <ele>488.1</ele>
        <time>2019-08-13T08:20:42Z</time>
      </trkpt>
      <trkpt lat="39.9573600" lon="-4.1935660">
        <ele>488.2</ele>
        <time>2019-08-13T08:20:43Z</time>
      </trkpt>
      <trkpt lat="39.9574090" lon="-4.1935770">
        <ele>488.2</ele>
        <time>2019-08-13T08:20:44Z</time>
      </trkpt>
      <trkpt lat="39.9574570" lon="-4.1935890">
        <ele>488.3</ele>
        <time>2019-08-13T08:20:45Z</time>
      </trkpt>
      <trkpt lat="39.9575070" lon="-4.1936030">
        <ele>488.3</ele>
        <time>2019-08-13T08:20:46Z</time>
      </trkpt>
      <trkpt lat="39.9575600" lon="-4.1936200">
        <ele>488.3</ele>
        <time>2019-08-13T08:20:47Z</time>
      </trkpt>
      <trkpt lat="39.9576120" lon="-4.1936330">
        <ele>488.3</ele>
        <time>2019-08-13T08:20:48Z</time>
      </trkpt>
      <trkpt lat="39.9576580" lon="-4.1936440">
        <ele>488.3</ele>
        <time>2019-08-13T08:20:49Z</time>
      </trkpt>
      <trkpt lat="39.9577090" lon="-4.1936610">
        <ele>488.4</ele>
        <time>2019-08-13T08:20:50Z</time>
      </trkpt>
      <trkpt lat="39.9577550" lon="-4.1936720">
        <ele>488.5</ele>
        <time>2019-08-13T08:20:51Z</time>
      </trkpt>
      <trkpt lat="39.9578060" lon="-4.1936840">
        <ele>488.6</ele>
        <time>2019-08-13T08:20:52Z</time>
      </trkpt>
      <trkpt lat="39.9578540" lon="-4.1936980">
        <ele>488.8</ele>
        <time>2019-08-13T08:20:53Z</time>
      </trkpt>
      <trkpt lat="39.9578990" lon="-4.1937090">
        <ele>488.9</ele>
        <time>2019-08-13T08:20:54Z</time>
      </trkpt>
      <trkpt lat="39.9579430" lon="-4.1937190">
        <ele>489.0</ele>
        <time>2019-08-13T08:20:55Z</time>
      </trkpt>
      <trkpt lat="39.9579820" lon="-4.1937240">
        <ele>489.1</ele>
        <time>2019-08-13T08:20:56Z</time>
      </trkpt>
      <trkpt lat="39.9580200" lon="-4.1937300">
        <ele>489.2</ele>
        <time>2019-08-13T08:20:57Z</time>
      </trkpt>
      <trkpt lat="39.9580630" lon="-4.1937420">
        <ele>489.4</ele>
        <time>2019-08-13T08:20:58Z</time>
      </trkpt>
      <trkpt lat="39.9581100" lon="-4.1937560">
        <ele>489.5</ele>
        <time>2019-08-13T08:20:59Z</time>
      </trkpt>
      <trkpt lat="39.9581570" lon="-4.1937700">
        <ele>489.6</ele>
        <time>2019-08-13T08:21:00Z</time>
      </trkpt>
      <trkpt lat="39.9582050" lon="-4.1937870">
        <ele>489.8</ele>
        <time>2019-08-13T08:21:01Z</time>
      </trkpt>
      <trkpt lat="39.9582530" lon="-4.1937950">
        <ele>489.9</ele>
        <time>2019-08-13T08:21:02Z</time>
      </trkpt>
      <trkpt lat="39.9582990" lon="-4.1938040">
        <ele>490.0</ele>
        <time>2019-08-13T08:21:03Z</time>
      </trkpt>
      <trkpt lat="39.9583440" lon="-4.1938190">
        <ele>490.1</ele>
        <time>2019-08-13T08:21:04Z</time>
      </trkpt>
      <trkpt lat="39.9583880" lon="-4.1938360">
        <ele>490.2</ele>
        <time>2019-08-13T08:21:05Z</time>
      </trkpt>
      <trkpt lat="39.9584340" lon="-4.1938430">
        <ele>490.3</ele>
        <time>2019-08-13T08:21:06Z</time>
      </trkpt>
      <trkpt lat="39.9584770" lon="-4.1938480">
        <ele>490.4</ele>
        <time>2019-08-13T08:21:07Z</time>
      </trkpt>
      <trkpt lat="39.9585230" lon="-4.1938480">
        <ele>490.5</ele>
        <time>2019-08-13T08:21:08Z</time>
      </trkpt>
      <trkpt lat="39.9585680" lon="-4.1938460">
        <ele>490.7</ele>
        <time>2019-08-13T08:21:09Z</time>
      </trkpt>
      <trkpt lat="39.9586090" lon="-4.1938460">
        <ele>490.8</ele>
        <time>2019-08-13T08:21:10Z</time>
      </trkpt>
      <trkpt lat="39.9586500" lon="-4.1938400">
        <ele>491.0</ele>
        <time>2019-08-13T08:21:11Z</time>
      </trkpt>
      <trkpt lat="39.9586930" lon="-4.1938350">
        <ele>491.1</ele>
        <time>2019-08-13T08:21:12Z</time>
      </trkpt>
      <trkpt lat="39.9587360" lon="-4.1938300">
        <ele>491.2</ele>
        <time>2019-08-13T08:21:13Z</time>
      </trkpt>
      <trkpt lat="39.9587760" lon="-4.1938280">
        <ele>491.3</ele>
        <time>2019-08-13T08:21:14Z</time>
      </trkpt>
      <trkpt lat="39.9588110" lon="-4.1938270">
        <ele>491.4</ele>
        <time>2019-08-13T08:21:15Z</time>
      </trkpt>
      <trkpt lat="39.9588410" lon="-4.1938240">
        <ele>491.5</ele>
        <time>2019-08-13T08:21:16Z</time>
      </trkpt>
      <trkpt lat="39.9588720" lon="-4.1938190">
        <ele>491.6</ele>
        <time>2019-08-13T08:21:17Z</time>
      </trkpt>
      <trkpt lat="39.9588980" lon="-4.1938140">
        <ele>491.7</ele>
        <time>2019-08-13T08:21:18Z</time>
      </trkpt>
      <trkpt lat="39.9589520" lon="-4.1938190">
        <ele>491.9</ele>
        <time>2019-08-13T08:21:20Z</time>
      </trkpt>
      <trkpt lat="39.9589820" lon="-4.1938210">
        <ele>492.0</ele>
        <time>2019-08-13T08:21:21Z</time>
      </trkpt>
      <trkpt lat="39.9590170" lon="-4.1938270">
        <ele>492.2</ele>
        <time>2019-08-13T08:21:22Z</time>
      </trkpt>
      <trkpt lat="39.9590480" lon="-4.1938370">
        <ele>492.3</ele>
        <time>2019-08-13T08:21:23Z</time>
      </trkpt>
      <trkpt lat="39.9590800" lon="-4.1938470">
        <ele>492.5</ele>
        <time>2019-08-13T08:21:24Z</time>
      </trkpt>
      <trkpt lat="39.9591120" lon="-4.1938550">
        <ele>492.6</ele>
        <time>2019-08-13T08:21:25Z</time>
      </trkpt>
      <trkpt lat="39.9591440" lon="-4.1938620">
        <ele>492.7</ele>
        <time>2019-08-13T08:21:26Z</time>
      </trkpt>
      <trkpt lat="39.9591720" lon="-4.1938690">
        <ele>492.8</ele>
        <time>2019-08-13T08:21:27Z</time>
      </trkpt>
      <trkpt lat="39.9592020" lon="-4.1938810">
        <ele>493.0</ele>
        <time>2019-08-13T08:21:29Z</time>
      </trkpt>
      <trkpt lat="39.9592820" lon="-4.1938770">
        <ele>493.3</ele>
        <time>2019-08-13T08:22:00Z</time>
      </trkpt>
      <trkpt lat="39.9593200" lon="-4.1938910">
        <ele>493.5</ele>
        <time>2019-08-13T08:22:02Z</time>
      </trkpt>
      <trkpt lat="39.9593420" lon="-4.1939560">
        <ele>493.6</ele>
        <time>2019-08-13T08:22:04Z</time>
      </trkpt>
      <trkpt lat="39.9593410" lon="-4.1940000">
        <ele>493.6</ele>
        <time>2019-08-13T08:22:05Z</time>
      </trkpt>
      <trkpt lat="39.9593350" lon="-4.1940490">
        <ele>493.6</ele>
        <time>2019-08-13T08:22:06Z</time>
      </trkpt>
      <trkpt lat="39.9593300" lon="-4.1940980">
        <ele>493.7</ele>
        <time>2019-08-13T08:22:07Z</time>
      </trkpt>
      <trkpt lat="39.9593260" lon="-4.1941490">
        <ele>493.7</ele>
        <time>2019-08-13T08:22:08Z</time>
      </trkpt>
      <trkpt lat="39.9593240" lon="-4.1942020">
        <ele>493.8</ele>
        <time>2019-08-13T08:22:09Z</time>
      </trkpt>
      <trkpt lat="39.9593230" lon="-4.1942540">
        <ele>493.8</ele>
        <time>2019-08-13T08:22:10Z</time>
      </trkpt>
      <trkpt lat="39.9593200" lon="-4.1943060">
        <ele>493.9</ele>
        <time>2019-08-13T08:22:11Z</time>
      </trkpt>
      <trkpt lat="39.9593180" lon="-4.1943590">
        <ele>493.9</ele>
        <time>2019-08-13T08:22:12Z</time>
      </trkpt>
      <trkpt lat="39.9593160" lon="-4.1944110">
        <ele>494.0</ele>
        <time>2019-08-13T08:22:13Z</time>
      </trkpt>
      <trkpt lat="39.9593160" lon="-4.1944600">
        <ele>494.0</ele>
        <time>2019-08-13T08:22:14Z</time>
      </trkpt>
      <trkpt lat="39.9593150" lon="-4.1945070">
        <ele>494.1</ele>
        <time>2019-08-13T08:22:15Z</time>
      </trkpt>
      <trkpt lat="39.9593170" lon="-4.1945520">
        <ele>494.2</ele>
        <time>2019-08-13T08:22:16Z</time>
      </trkpt>
      <trkpt lat="39.9593250" lon="-4.1945940">
        <ele>494.2</ele>
        <time>2019-08-13T08:22:17Z</time>
      </trkpt>
      <trkpt lat="39.9593400" lon="-4.1946290">
        <ele>494.6</ele>
        <time>2019-08-13T08:22:18Z</time>
      </trkpt>
      <trkpt lat="39.9593570" lon="-4.1946570">
        <ele>494.6</ele>
        <time>2019-08-13T08:22:19Z</time>
      </trkpt>
      <trkpt lat="39.9593640" lon="-4.1947020">
        <ele>494.7</ele>
        <time>2019-08-13T08:22:21Z</time>
      </trkpt>
      <trkpt lat="39.9593800" lon="-4.1947150">
        <ele>494.7</ele>
        <time>2019-08-13T08:22:28Z</time>
      </trkpt>
      <trkpt lat="39.9593720" lon="-4.1947380">
        <ele>494.8</ele>
        <time>2019-08-13T08:22:35Z</time>
      </trkpt>
      <trkpt lat="39.9594070" lon="-4.1946950">
        <ele>494.9</ele>
        <time>2019-08-13T08:24:02Z</time>
      </trkpt>
      <trkpt lat="39.9594100" lon="-4.1947040">
        <ele>494.9</ele>
        <time>2019-08-13T08:24:08Z</time>
      </trkpt>
      <trkpt lat="39.9594330" lon="-4.1946650">
        <ele>495.0</ele>
        <time>2019-08-13T08:24:11Z</time>
      </trkpt>
      <trkpt lat="39.9594740" lon="-4.1946410">
        <ele>495.1</ele>
        <time>2019-08-13T08:24:13Z</time>
      </trkpt>
      <trkpt lat="39.9595000" lon="-4.1946310">
        <ele>495.1</ele>
        <time>2019-08-13T08:24:14Z</time>
      </trkpt>
      <trkpt lat="39.9595290" lon="-4.1946230">
        <ele>495.2</ele>
        <time>2019-08-13T08:24:15Z</time>
      </trkpt>
      <trkpt lat="39.9595580" lon="-4.1946170">
        <ele>495.2</ele>
        <time>2019-08-13T08:24:16Z</time>
      </trkpt>
      <trkpt lat="39.9595880" lon="-4.1946130">
        <ele>495.3</ele>
        <time>2019-08-13T08:24:17Z</time>
      </trkpt>
      <trkpt lat="39.9596190" lon="-4.1946020">
        <ele>495.3</ele>
        <time>2019-08-13T08:24:18Z</time>
      </trkpt>
      <trkpt lat="39.9596500" lon="-4.1945940">
        <ele>495.4</ele>
        <time>2019-08-13T08:24:19Z</time>
      </trkpt>
      <trkpt lat="39.9596830" lon="-4.1945840">
        <ele>495.6</ele>
        <time>2019-08-13T08:24:20Z</time>
      </trkpt>
      <trkpt lat="39.9597150" lon="-4.1945750">
        <ele>495.7</ele>
        <time>2019-08-13T08:24:21Z</time>
      </trkpt>
      <trkpt lat="39.9597480" lon="-4.1945700">
        <ele>495.8</ele>
        <time>2019-08-13T08:24:22Z</time>
      </trkpt>
      <trkpt lat="39.9597800" lon="-4.1945650">
        <ele>495.9</ele>
        <time>2019-08-13T08:24:23Z</time>
      </trkpt>
      <trkpt lat="39.9598110" lon="-4.1945620">
        <ele>496.0</ele>
        <time>2019-08-13T08:24:24Z</time>
      </trkpt>
      <trkpt lat="39.9598410" lon="-4.1945600">
        <ele>496.1</ele>
        <time>2019-08-13T08:24:25Z</time>
      </trkpt>
      <trkpt lat="39.9598690" lon="-4.1945550">
        <ele>496.2</ele>
        <time>2019-08-13T08:24:26Z</time>
      </trkpt>
      <trkpt lat="39.9598970" lon="-4.1945490">
        <ele>496.3</ele>
        <time>2019-08-13T08:24:27Z</time>
      </trkpt>
      <trkpt lat="39.9599250" lon="-4.1945440">
        <ele>496.4</ele>
        <time>2019-08-13T08:24:28Z</time>
      </trkpt>
      <trkpt lat="39.9599530" lon="-4.1945390">
        <ele>496.5</ele>
        <time>2019-08-13T08:24:29Z</time>
      </trkpt>
      <trkpt lat="39.9599810" lon="-4.1945350">
        <ele>496.7</ele>
        <time>2019-08-13T08:24:30Z</time>
      </trkpt>
      <trkpt lat="39.9600080" lon="-4.1945280">
        <ele>496.8</ele>
        <time>2019-08-13T08:24:31Z</time>
      </trkpt>
      <trkpt lat="39.9600360" lon="-4.1945220">
        <ele>496.9</ele>
        <time>2019-08-13T08:24:32Z</time>
      </trkpt>
      <trkpt lat="39.9600650" lon="-4.1945150">
        <ele>497.0</ele>
        <time>2019-08-13T08:24:33Z</time>
      </trkpt>
      <trkpt lat="39.9600940" lon="-4.1945070">
        <ele>497.2</ele>
        <time>2019-08-13T08:24:34Z</time>
      </trkpt>
      <trkpt lat="39.9601240" lon="-4.1944990">
        <ele>497.3</ele>
        <time>2019-08-13T08:24:35Z</time>
      </trkpt>
      <trkpt lat="39.9601550" lon="-4.1944940">
        <ele>497.5</ele>
        <time>2019-08-13T08:24:36Z</time>
      </trkpt>
      <trkpt lat="39.9601860" lon="-4.1944890">
        <ele>497.6</ele>
        <time>2019-08-13T08:24:37Z</time>
      </trkpt>
      <trkpt lat="39.9602170" lon="-4.1944840">
        <ele>497.8</ele>
        <time>2019-08-13T08:24:38Z</time>
      </trkpt>
      <trkpt lat="39.9602490" lon="-4.1944790">
        <ele>497.9</ele>
        <time>2019-08-13T08:24:39Z</time>
      </trkpt>
      <trkpt lat="39.9602800" lon="-4.1944740">
        <ele>498.1</ele>
        <time>2019-08-13T08:24:40Z</time>
      </trkpt>
      <trkpt lat="39.9603110" lon="-4.1944700">
        <ele>498.3</ele>
        <time>2019-08-13T08:24:41Z</time>
      </trkpt>
      <trkpt lat="39.9603420" lon="-4.1944670">
        <ele>498.4</ele>
        <time>2019-08-13T08:24:42Z</time>
      </trkpt>
      <trkpt lat="39.9603740" lon="-4.1944630">
        <ele>498.6</ele>
        <time>2019-08-13T08:24:43Z</time>
      </trkpt>
      <trkpt lat="39.9604070" lon="-4.1944590">
        <ele>498.8</ele>
        <time>2019-08-13T08:24:44Z</time>
      </trkpt>
      <trkpt lat="39.9604390" lon="-4.1944550">
        <ele>499.0</ele>
        <time>2019-08-13T08:24:45Z</time>
      </trkpt>
      <trkpt lat="39.9604700" lon="-4.1944500">
        <ele>499.3</ele>
        <time>2019-08-13T08:24:46Z</time>
      </trkpt>
      <trkpt lat="39.9605000" lon="-4.1944460">
        <ele>499.3</ele>
        <time>2019-08-13T08:24:47Z</time>
      </trkpt>
      <trkpt lat="39.9605310" lon="-4.1944420">
        <ele>499.4</ele>
        <time>2019-08-13T08:24:48Z</time>
      </trkpt>
      <trkpt lat="39.9605620" lon="-4.1944380">
        <ele>499.5</ele>
        <time>2019-08-13T08:24:49Z</time>
      </trkpt>
      <trkpt lat="39.9605940" lon="-4.1944350">
        <ele>499.6</ele>
        <time>2019-08-13T08:24:50Z</time>
      </trkpt>
      <trkpt lat="39.9606260" lon="-4.1944340">
        <ele>499.6</ele>
        <time>2019-08-13T08:24:51Z</time>
      </trkpt>
      <trkpt lat="39.9606580" lon="-4.1944320">
        <ele>499.7</ele>
        <time>2019-08-13T08:24:52Z</time>
      </trkpt>
      <trkpt lat="39.9606890" lon="-4.1944290">
        <ele>499.8</ele>
        <time>2019-08-13T08:24:53Z</time>
      </trkpt>
      <trkpt lat="39.9607190" lon="-4.1944250">
        <ele>499.9</ele>
        <time>2019-08-13T08:24:54Z</time>
      </trkpt>
      <trkpt lat="39.9607500" lon="-4.1944210">
        <ele>499.9</ele>
        <time>2019-08-13T08:24:55Z</time>
      </trkpt>
      <trkpt lat="39.9607840" lon="-4.1944140">
        <ele>500.0</ele>
        <time>2019-08-13T08:24:56Z</time>
      </trkpt>
      <trkpt lat="39.9608180" lon="-4.1944060">
        <ele>500.0</ele>
        <time>2019-08-13T08:24:57Z</time>
      </trkpt>
      <trkpt lat="39.9608540" lon="-4.1943980">
        <ele>500.0</ele>
        <time>2019-08-13T08:24:58Z</time>
      </trkpt>
      <trkpt lat="39.9608900" lon="-4.1943900">
        <ele>500.0</ele>
        <time>2019-08-13T08:24:59Z</time>
      </trkpt>
      <trkpt lat="39.9609260" lon="-4.1943800">
        <ele>500.0</ele>
        <time>2019-08-13T08:25:00Z</time>
      </trkpt>
      <trkpt lat="39.9609610" lon="-4.1943670">
        <ele>500.0</ele>
        <time>2019-08-13T08:25:01Z</time>
      </trkpt>
      <trkpt lat="39.9609960" lon="-4.1943530">
        <ele>500.1</ele>
        <time>2019-08-13T08:25:02Z</time>
      </trkpt>
      <trkpt lat="39.9610310" lon="-4.1943380">
        <ele>500.1</ele>
        <time>2019-08-13T08:25:03Z</time>
      </trkpt>
      <trkpt lat="39.9610670" lon="-4.1943260">
        <ele>500.1</ele>
        <time>2019-08-13T08:25:04Z</time>
      </trkpt>
      <trkpt lat="39.9611020" lon="-4.1943140">
        <ele>500.1</ele>
        <time>2019-08-13T08:25:05Z</time>
      </trkpt>
      <trkpt lat="39.9611370" lon="-4.1942970">
        <ele>500.1</ele>
        <time>2019-08-13T08:25:06Z</time>
      </trkpt>
      <trkpt lat="39.9611710" lon="-4.1942770">
        <ele>500.2</ele>
        <time>2019-08-13T08:25:07Z</time>
      </trkpt>
      <trkpt lat="39.9612050" lon="-4.1942570">
        <ele>500.2</ele>
        <time>2019-08-13T08:25:08Z</time>
      </trkpt>
      <trkpt lat="39.9612380" lon="-4.1942370">
        <ele>500.2</ele>
        <time>2019-08-13T08:25:09Z</time>
      </trkpt>
      <trkpt lat="39.9612700" lon="-4.1942170">
        <ele>500.3</ele>
        <time>2019-08-13T08:25:10Z</time>
      </trkpt>
      <trkpt lat="39.9613010" lon="-4.1941970">
        <ele>500.3</ele>
        <time>2019-08-13T08:25:11Z</time>
      </trkpt>
      <trkpt lat="39.9613330" lon="-4.1941760">
        <ele>500.3</ele>
        <time>2019-08-13T08:25:12Z</time>
      </trkpt>
      <trkpt lat="39.9613650" lon="-4.1941550">
        <ele>500.4</ele>
        <time>2019-08-13T08:25:13Z</time>
      </trkpt>
      <trkpt lat="39.9613990" lon="-4.1941320">
        <ele>500.4</ele>
        <time>2019-08-13T08:25:14Z</time>
      </trkpt>
      <trkpt lat="39.9614330" lon="-4.1941110">
        <ele>500.5</ele>
        <time>2019-08-13T08:25:15Z</time>
      </trkpt>
      <trkpt lat="39.9614670" lon="-4.1940880">
        <ele>500.5</ele>
        <time>2019-08-13T08:25:16Z</time>
      </trkpt>
      <trkpt lat="39.9615040" lon="-4.1940640">
        <ele>500.6</ele>
        <time>2019-08-13T08:25:17Z</time>
      </trkpt>
      <trkpt lat="39.9615410" lon="-4.1940400">
        <ele>500.6</ele>
        <time>2019-08-13T08:25:18Z</time>
      </trkpt>
      <trkpt lat="39.9615790" lon="-4.1940160">
        <ele>500.6</ele>
        <time>2019-08-13T08:25:19Z</time>
      </trkpt>
      <trkpt lat="39.9616170" lon="-4.1939940">
        <ele>500.6</ele>
        <time>2019-08-13T08:25:20Z</time>
      </trkpt>
      <trkpt lat="39.9616540" lon="-4.1939720">
        <ele>500.6</ele>
        <time>2019-08-13T08:25:21Z</time>
      </trkpt>
      <trkpt lat="39.9616890" lon="-4.1939510">
        <ele>500.5</ele>
        <time>2019-08-13T08:25:22Z</time>
      </trkpt>
      <trkpt lat="39.9617250" lon="-4.1939290">
        <ele>500.4</ele>
        <time>2019-08-13T08:25:23Z</time>
      </trkpt>
      <trkpt lat="39.9617610" lon="-4.1939060">
        <ele>500.4</ele>
        <time>2019-08-13T08:25:24Z</time>
      </trkpt>
      <trkpt lat="39.9617970" lon="-4.1938830">
        <ele>500.3</ele>
        <time>2019-08-13T08:25:25Z</time>
      </trkpt>
      <trkpt lat="39.9618340" lon="-4.1938610">
        <ele>500.2</ele>
        <time>2019-08-13T08:25:26Z</time>
      </trkpt>
      <trkpt lat="39.9618690" lon="-4.1938430">
        <ele>500.1</ele>
        <time>2019-08-13T08:25:27Z</time>
      </trkpt>
      <trkpt lat="39.9619030" lon="-4.1938240">
        <ele>500.0</ele>
        <time>2019-08-13T08:25:28Z</time>
      </trkpt>
      <trkpt lat="39.9619360" lon="-4.1938040">
        <ele>499.9</ele>
        <time>2019-08-13T08:25:29Z</time>
      </trkpt>
      <trkpt lat="39.9619660" lon="-4.1937820">
        <ele>499.8</ele>
        <time>2019-08-13T08:25:30Z</time>
      </trkpt>
      <trkpt lat="39.9619950" lon="-4.1937590">
        <ele>499.8</ele>
        <time>2019-08-13T08:25:31Z</time>
      </trkpt>
      <trkpt lat="39.9620220" lon="-4.1937290">
        <ele>499.7</ele>
        <time>2019-08-13T08:25:32Z</time>
      </trkpt>
      <trkpt lat="39.9620470" lon="-4.1937010">
        <ele>499.7</ele>
        <time>2019-08-13T08:25:33Z</time>
      </trkpt>
      <trkpt lat="39.9620740" lon="-4.1936770">
        <ele>499.6</ele>
        <time>2019-08-13T08:25:34Z</time>
      </trkpt>
      <trkpt lat="39.9621010" lon="-4.1936540">
        <ele>499.6</ele>
        <time>2019-08-13T08:25:35Z</time>
      </trkpt>
      <trkpt lat="39.9621310" lon="-4.1936330">
        <ele>499.5</ele>
        <time>2019-08-13T08:25:36Z</time>
      </trkpt>
      <trkpt lat="39.9621650" lon="-4.1936170">
        <ele>499.5</ele>
        <time>2019-08-13T08:25:37Z</time>
      </trkpt>
      <trkpt lat="39.9622000" lon="-4.1936050">
        <ele>499.5</ele>
        <time>2019-08-13T08:25:38Z</time>
      </trkpt>
      <trkpt lat="39.9622370" lon="-4.1935970">
        <ele>499.5</ele>
        <time>2019-08-13T08:25:39Z</time>
      </trkpt>
      <trkpt lat="39.9622750" lon="-4.1935940">
        <ele>499.5</ele>
        <time>2019-08-13T08:25:40Z</time>
      </trkpt>
      <trkpt lat="39.9623160" lon="-4.1935940">
        <ele>499.4</ele>
        <time>2019-08-13T08:25:41Z</time>
      </trkpt>
      <trkpt lat="39.9623590" lon="-4.1935990">
        <ele>499.4</ele>
        <time>2019-08-13T08:25:42Z</time>
      </trkpt>
      <trkpt lat="39.9624030" lon="-4.1936010">
        <ele>499.4</ele>
        <time>2019-08-13T08:25:43Z</time>
      </trkpt>
      <trkpt lat="39.9624500" lon="-4.1936020">
        <ele>499.4</ele>
        <time>2019-08-13T08:25:44Z</time>
      </trkpt>
      <trkpt lat="39.9624990" lon="-4.1936040">
        <ele>499.4</ele>
        <time>2019-08-13T08:25:45Z</time>
      </trkpt>
      <trkpt lat="39.9625500" lon="-4.1936090">
        <ele>499.3</ele>
        <time>2019-08-13T08:25:46Z</time>
      </trkpt>
      <trkpt lat="39.9626020" lon="-4.1936150">
        <ele>499.3</ele>
        <time>2019-08-13T08:25:47Z</time>
      </trkpt>
      <trkpt lat="39.9626540" lon="-4.1936230">
        <ele>499.3</ele>
        <time>2019-08-13T08:25:48Z</time>
      </trkpt>
      <trkpt lat="39.9627060" lon="-4.1936290">
        <ele>499.2</ele>
        <time>2019-08-13T08:25:49Z</time>
      </trkpt>
      <trkpt lat="39.9627570" lon="-4.1936330">
        <ele>499.2</ele>
        <time>2019-08-13T08:25:50Z</time>
      </trkpt>
      <trkpt lat="39.9628030" lon="-4.1936390">
        <ele>499.1</ele>
        <time>2019-08-13T08:25:51Z</time>
      </trkpt>
      <trkpt lat="39.9628470" lon="-4.1936470">
        <ele>499.1</ele>
        <time>2019-08-13T08:25:52Z</time>
      </trkpt>
      <trkpt lat="39.9628840" lon="-4.1936530">
        <ele>499.0</ele>
        <time>2019-08-13T08:25:53Z</time>
      </trkpt>
      <trkpt lat="39.9629160" lon="-4.1936580">
        <ele>499.0</ele>
        <time>2019-08-13T08:25:54Z</time>
      </trkpt>
      <trkpt lat="39.9629640" lon="-4.1936640">
        <ele>498.9</ele>
        <time>2019-08-13T08:25:56Z</time>
      </trkpt>
      <trkpt lat="39.9630050" lon="-4.1936810">
        <ele>498.8</ele>
        <time>2019-08-13T08:25:58Z</time>
      </trkpt>
      <trkpt lat="39.9630360" lon="-4.1936990">
        <ele>498.7</ele>
        <time>2019-08-13T08:26:00Z</time>
      </trkpt>
      <trkpt lat="39.9630580" lon="-4.1937320">
        <ele>498.8</ele>
        <time>2019-08-13T08:26:03Z</time>
      </trkpt>
      <trkpt lat="39.9630660" lon="-4.1937730">
        <ele>498.8</ele>
        <time>2019-08-13T08:26:05Z</time>
      </trkpt>
      <trkpt lat="39.9630750" lon="-4.1938320">
        <ele>498.9</ele>
        <time>2019-08-13T08:26:07Z</time>
      </trkpt>
      <trkpt lat="39.9630970" lon="-4.1939000">
        <ele>499.0</ele>
        <time>2019-08-13T08:26:09Z</time>
      </trkpt>
      <trkpt lat="39.9631100" lon="-4.1939400">
        <ele>499.1</ele>
        <time>2019-08-13T08:26:10Z</time>
      </trkpt>
      <trkpt lat="39.9631240" lon="-4.1939820">
        <ele>499.1</ele>
        <time>2019-08-13T08:26:11Z</time>
      </trkpt>
      <trkpt lat="39.9631390" lon="-4.1940270">
        <ele>499.2</ele>
        <time>2019-08-13T08:26:12Z</time>
      </trkpt>
      <trkpt lat="39.9631530" lon="-4.1940740">
        <ele>499.3</ele>
        <time>2019-08-13T08:26:13Z</time>
      </trkpt>
      <trkpt lat="39.9631680" lon="-4.1941220">
        <ele>499.3</ele>
        <time>2019-08-13T08:26:14Z</time>
      </trkpt>
      <trkpt lat="39.9631820" lon="-4.1941720">
        <ele>499.4</ele>
        <time>2019-08-13T08:26:15Z</time>
      </trkpt>
      <trkpt lat="39.9631970" lon="-4.1942230">
        <ele>499.4</ele>
        <time>2019-08-13T08:26:16Z</time>
      </trkpt>
      <trkpt lat="39.9632120" lon="-4.1942750">
        <ele>499.5</ele>
        <time>2019-08-13T08:26:17Z</time>
      </trkpt>
      <trkpt lat="39.9632270" lon="-4.1943280">
        <ele>499.5</ele>
        <time>2019-08-13T08:26:18Z</time>
      </trkpt>
      <trkpt lat="39.9632430" lon="-4.1943820">
        <ele>499.6</ele>
        <time>2019-08-13T08:26:19Z</time>
      </trkpt>
      <trkpt lat="39.9632600" lon="-4.1944380">
        <ele>499.7</ele>
        <time>2019-08-13T08:26:20Z</time>
      </trkpt>
      <trkpt lat="39.9632750" lon="-4.1944930">
        <ele>499.7</ele>
        <time>2019-08-13T08:26:21Z</time>
      </trkpt>
      <trkpt lat="39.9632880" lon="-4.1945500">
        <ele>499.8</ele>
        <time>2019-08-13T08:26:22Z</time>
      </trkpt>
      <trkpt lat="39.9632990" lon="-4.1946080">
        <ele>499.8</ele>
        <time>2019-08-13T08:26:23Z</time>
      </trkpt>
      <trkpt lat="39.9633090" lon="-4.1946660">
        <ele>500.1</ele>
        <time>2019-08-13T08:26:24Z</time>
      </trkpt>
      <trkpt lat="39.9633210" lon="-4.1947250">
        <ele>500.2</ele>
        <time>2019-08-13T08:26:25Z</time>
      </trkpt>
      <trkpt lat="39.9633330" lon="-4.1947850">
        <ele>500.3</ele>
        <time>2019-08-13T08:26:26Z</time>
      </trkpt>
      <trkpt lat="39.9633450" lon="-4.1948440">
        <ele>500.4</ele>
        <time>2019-08-13T08:26:27Z</time>
      </trkpt>
      <trkpt lat="39.9633560" lon="-4.1949070">
        <ele>500.5</ele>
        <time>2019-08-13T08:26:28Z</time>
      </trkpt>
      <trkpt lat="39.9633670" lon="-4.1949670">
        <ele>500.5</ele>
        <time>2019-08-13T08:26:29Z</time>
      </trkpt>
      <trkpt lat="39.9633770" lon="-4.1950270">
        <ele>500.6</ele>
        <time>2019-08-13T08:26:30Z</time>
      </trkpt>
      <trkpt lat="39.9633880" lon="-4.1950880">
        <ele>500.6</ele>
        <time>2019-08-13T08:26:31Z</time>
      </trkpt>
      <trkpt lat="39.9633990" lon="-4.1951510">
        <ele>500.6</ele>
        <time>2019-08-13T08:26:32Z</time>
      </trkpt>
      <trkpt lat="39.9634090" lon="-4.1952140">
        <ele>500.6</ele>
        <time>2019-08-13T08:26:33Z</time>
      </trkpt>
      <trkpt lat="39.9634180" lon="-4.1952780">
        <ele>500.6</ele>
        <time>2019-08-13T08:26:34Z</time>
      </trkpt>
      <trkpt lat="39.9634260" lon="-4.1953440">
        <ele>500.6</ele>
        <time>2019-08-13T08:26:35Z</time>
      </trkpt>
      <trkpt lat="39.9634330" lon="-4.1954100">
        <ele>500.6</ele>
        <time>2019-08-13T08:26:36Z</time>
      </trkpt>
      <trkpt lat="39.9634380" lon="-4.1954770">
        <ele>500.6</ele>
        <time>2019-08-13T08:26:37Z</time>
      </trkpt>
      <trkpt lat="39.9634450" lon="-4.1955460">
        <ele>500.6</ele>
        <time>2019-08-13T08:26:38Z</time>
      </trkpt>
      <trkpt lat="39.9634500" lon="-4.1956140">
        <ele>500.5</ele>
        <time>2019-08-13T08:26:39Z</time>
      </trkpt>
      <trkpt lat="39.9634540" lon="-4.1956810">
        <ele>500.5</ele>
        <time>2019-08-13T08:26:40Z</time>
      </trkpt>
      <trkpt lat="39.9634580" lon="-4.1957480">
        <ele>500.5</ele>
        <time>2019-08-13T08:26:41Z</time>
      </trkpt>
      <trkpt lat="39.9634630" lon="-4.1958160">
        <ele>500.5</ele>
        <time>2019-08-13T08:26:42Z</time>
      </trkpt>
      <trkpt lat="39.9634660" lon="-4.1958810">
        <ele>500.5</ele>
        <time>2019-08-13T08:26:43Z</time>
      </trkpt>
      <trkpt lat="39.9634680" lon="-4.1959430">
        <ele>500.4</ele>
        <time>2019-08-13T08:26:44Z</time>
      </trkpt>
      <trkpt lat="39.9634700" lon="-4.1960030">
        <ele>500.4</ele>
        <time>2019-08-13T08:26:45Z</time>
      </trkpt>
      <trkpt lat="39.9634730" lon="-4.1960610">
        <ele>500.4</ele>
        <time>2019-08-13T08:26:46Z</time>
      </trkpt>
      <trkpt lat="39.9634750" lon="-4.1961190">
        <ele>500.4</ele>
        <time>2019-08-13T08:26:47Z</time>
      </trkpt>
      <trkpt lat="39.9634790" lon="-4.1961780">
        <ele>500.4</ele>
        <time>2019-08-13T08:26:48Z</time>
      </trkpt>
      <trkpt lat="39.9634830" lon="-4.1962330">
        <ele>500.4</ele>
        <time>2019-08-13T08:26:49Z</time>
      </trkpt>
      <trkpt lat="39.9634890" lon="-4.1962860">
        <ele>500.4</ele>
        <time>2019-08-13T08:26:50Z</time>
      </trkpt>
      <trkpt lat="39.9634960" lon="-4.1963320">
        <ele>500.3</ele>
        <time>2019-08-13T08:26:51Z</time>
      </trkpt>
      <trkpt lat="39.9635090" lon="-4.1963730">
        <ele>500.3</ele>
        <time>2019-08-13T08:26:52Z</time>
      </trkpt>
      <trkpt lat="39.9635320" lon="-4.1964030">
        <ele>500.3</ele>
        <time>2019-08-13T08:26:53Z</time>
      </trkpt>
      <trkpt lat="39.9635600" lon="-4.1964220">
        <ele>500.3</ele>
        <time>2019-08-13T08:26:54Z</time>
      </trkpt>
      <trkpt lat="39.9635900" lon="-4.1964310">
        <ele>500.3</ele>
        <time>2019-08-13T08:26:55Z</time>
      </trkpt>
      <trkpt lat="39.9636230" lon="-4.1964310">
        <ele>500.2</ele>
        <time>2019-08-13T08:26:56Z</time>
      </trkpt>
      <trkpt lat="39.9636560" lon="-4.1964270">
        <ele>500.2</ele>
        <time>2019-08-13T08:26:57Z</time>
      </trkpt>
      <trkpt lat="39.9636900" lon="-4.1964250">
        <ele>500.2</ele>
        <time>2019-08-13T08:26:58Z</time>
      </trkpt>
      <trkpt lat="39.9637230" lon="-4.1964270">
        <ele>500.2</ele>
        <time>2019-08-13T08:26:59Z</time>
      </trkpt>
      <trkpt lat="39.9637590" lon="-4.1964280">
        <ele>500.2</ele>
        <time>2019-08-13T08:27:00Z</time>
      </trkpt>
      <trkpt lat="39.9637940" lon="-4.1964290">
        <ele>500.2</ele>
        <time>2019-08-13T08:27:01Z</time>
      </trkpt>
      <trkpt lat="39.9638290" lon="-4.1964270">
        <ele>500.2</ele>
        <time>2019-08-13T08:27:02Z</time>
      </trkpt>
      <trkpt lat="39.9638610" lon="-4.1964240">
        <ele>500.2</ele>
        <time>2019-08-13T08:27:03Z</time>
      </trkpt>
      <trkpt lat="39.9638910" lon="-4.1964220">
        <ele>500.2</ele>
        <time>2019-08-13T08:27:04Z</time>
      </trkpt>
      <trkpt lat="39.9639240" lon="-4.1964190">
        <ele>500.2</ele>
        <time>2019-08-13T08:27:05Z</time>
      </trkpt>
      <trkpt lat="39.9639590" lon="-4.1964150">
        <ele>500.2</ele>
        <time>2019-08-13T08:27:06Z</time>
      </trkpt>
      <trkpt lat="39.9639950" lon="-4.1964100">
        <ele>500.2</ele>
        <time>2019-08-13T08:27:07Z</time>
      </trkpt>
      <trkpt lat="39.9640340" lon="-4.1964060">
        <ele>500.2</ele>
        <time>2019-08-13T08:27:08Z</time>
      </trkpt>
      <trkpt lat="39.9640750" lon="-4.1964020">
        <ele>500.2</ele>
        <time>2019-08-13T08:27:09Z</time>
      </trkpt>
      <trkpt lat="39.9641210" lon="-4.1964000">
        <ele>500.2</ele>
        <time>2019-08-13T08:27:10Z</time>
      </trkpt>
      <trkpt lat="39.9641700" lon="-4.1963990">
        <ele>500.2</ele>
        <time>2019-08-13T08:27:11Z</time>
      </trkpt>
      <trkpt lat="39.9642190" lon="-4.1964000">
        <ele>500.2</ele>
        <time>2019-08-13T08:27:12Z</time>
      </trkpt>
      <trkpt lat="39.9642690" lon="-4.1964010">
        <ele>500.2</ele>
        <time>2019-08-13T08:27:13Z</time>
      </trkpt>
      <trkpt lat="39.9643200" lon="-4.1964040">
        <ele>500.2</ele>
        <time>2019-08-13T08:27:14Z</time>
      </trkpt>
      <trkpt lat="39.9643710" lon="-4.1964060">
        <ele>500.2</ele>
        <time>2019-08-13T08:27:15Z</time>
      </trkpt>
      <trkpt lat="39.9644220" lon="-4.1964060">
        <ele>500.2</ele>
        <time>2019-08-13T08:27:16Z</time>
      </trkpt>
      <trkpt lat="39.9644750" lon="-4.1964080">
        <ele>500.2</ele>
        <time>2019-08-13T08:27:17Z</time>
      </trkpt>
      <trkpt lat="39.9645290" lon="-4.1964090">
        <ele>500.2</ele>
        <time>2019-08-13T08:27:18Z</time>
      </trkpt>
      <trkpt lat="39.9645810" lon="-4.1964090">
        <ele>500.2</ele>
        <time>2019-08-13T08:27:19Z</time>
      </trkpt>
      <trkpt lat="39.9646320" lon="-4.1964110">
        <ele>500.2</ele>
        <time>2019-08-13T08:27:20Z</time>
      </trkpt>
      <trkpt lat="39.9646840" lon="-4.1964130">
        <ele>500.2</ele>
        <time>2019-08-13T08:27:21Z</time>
      </trkpt>
      <trkpt lat="39.9647350" lon="-4.1964130">
        <ele>500.2</ele>
        <time>2019-08-13T08:27:22Z</time>
      </trkpt>
      <trkpt lat="39.9647870" lon="-4.1964140">
        <ele>500.2</ele>
        <time>2019-08-13T08:27:23Z</time>
      </trkpt>
      <trkpt lat="39.9648380" lon="-4.1964150">
        <ele>500.2</ele>
        <time>2019-08-13T08:27:24Z</time>
      </trkpt>
      <trkpt lat="39.9648890" lon="-4.1964150">
        <ele>500.2</ele>
        <time>2019-08-13T08:27:25Z</time>
      </trkpt>
      <trkpt lat="39.9649400" lon="-4.1964150">
        <ele>500.2</ele>
        <time>2019-08-13T08:27:26Z</time>
      </trkpt>
      <trkpt lat="39.9649920" lon="-4.1964170">
        <ele>500.2</ele>
        <time>2019-08-13T08:27:27Z</time>
      </trkpt>
      <trkpt lat="39.9650430" lon="-4.1964170">
        <ele>500.3</ele>
        <time>2019-08-13T08:27:28Z</time>
      </trkpt>
      <trkpt lat="39.9650950" lon="-4.1964170">
        <ele>500.3</ele>
        <time>2019-08-13T08:27:29Z</time>
      </trkpt>
      <trkpt lat="39.9651460" lon="-4.1964190">
        <ele>500.4</ele>
        <time>2019-08-13T08:27:30Z</time>
      </trkpt>
      <trkpt lat="39.9651970" lon="-4.1964220">
        <ele>500.5</ele>
        <time>2019-08-13T08:27:31Z</time>
      </trkpt>
      <trkpt lat="39.9652480" lon="-4.1964230">
        <ele>500.7</ele>
        <time>2019-08-13T08:27:32Z</time>
      </trkpt>
      <trkpt lat="39.9652980" lon="-4.1964240">
        <ele>500.8</ele>
        <time>2019-08-13T08:27:33Z</time>
      </trkpt>
      <trkpt lat="39.9653480" lon="-4.1964230">
        <ele>500.9</ele>
        <time>2019-08-13T08:27:34Z</time>
      </trkpt>
      <trkpt lat="39.9653950" lon="-4.1964240">
        <ele>501.0</ele>
        <time>2019-08-13T08:27:35Z</time>
      </trkpt>
      <trkpt lat="39.9654400" lon="-4.1964260">
        <ele>501.0</ele>
        <time>2019-08-13T08:27:36Z</time>
      </trkpt>
      <trkpt lat="39.9654810" lon="-4.1964280">
        <ele>501.0</ele>
        <time>2019-08-13T08:27:37Z</time>
      </trkpt>
      <trkpt lat="39.9655190" lon="-4.1964340">
        <ele>501.1</ele>
        <time>2019-08-13T08:27:38Z</time>
      </trkpt>
      <trkpt lat="39.9655540" lon="-4.1964430">
        <ele>501.1</ele>
        <time>2019-08-13T08:27:39Z</time>
      </trkpt>
      <trkpt lat="39.9655860" lon="-4.1964560">
        <ele>501.1</ele>
        <time>2019-08-13T08:27:40Z</time>
      </trkpt>
      <trkpt lat="39.9656150" lon="-4.1964760">
        <ele>501.1</ele>
        <time>2019-08-13T08:27:41Z</time>
      </trkpt>
      <trkpt lat="39.9656390" lon="-4.1965030">
        <ele>501.1</ele>
        <time>2019-08-13T08:27:42Z</time>
      </trkpt>
      <trkpt lat="39.9656610" lon="-4.1965370">
        <ele>501.1</ele>
        <time>2019-08-13T08:27:43Z</time>
      </trkpt>
      <trkpt lat="39.9656810" lon="-4.1965790">
        <ele>501.1</ele>
        <time>2019-08-13T08:27:44Z</time>
      </trkpt>
      <trkpt lat="39.9656990" lon="-4.1966240">
        <ele>501.1</ele>
        <time>2019-08-13T08:27:45Z</time>
      </trkpt>
      <trkpt lat="39.9657200" lon="-4.1966710">
        <ele>501.1</ele>
        <time>2019-08-13T08:27:46Z</time>
      </trkpt>
      <trkpt lat="39.9657410" lon="-4.1967200">
        <ele>501.1</ele>
        <time>2019-08-13T08:27:47Z</time>
      </trkpt>
      <trkpt lat="39.9657620" lon="-4.1967720">
        <ele>501.1</ele>
        <time>2019-08-13T08:27:48Z</time>
      </trkpt>
      <trkpt lat="39.9657830" lon="-4.1968240">
        <ele>501.2</ele>
        <time>2019-08-13T08:27:49Z</time>
      </trkpt>
      <trkpt lat="39.9658050" lon="-4.1968770">
        <ele>501.2</ele>
        <time>2019-08-13T08:27:50Z</time>
      </trkpt>
      <trkpt lat="39.9658280" lon="-4.1969320">
        <ele>501.2</ele>
        <time>2019-08-13T08:27:51Z</time>
      </trkpt>
      <trkpt lat="39.9658500" lon="-4.1969870">
        <ele>501.2</ele>
        <time>2019-08-13T08:27:52Z</time>
      </trkpt>
      <trkpt lat="39.9658720" lon="-4.1970430">
        <ele>501.2</ele>
        <time>2019-08-13T08:27:53Z</time>
      </trkpt>
      <trkpt lat="39.9658950" lon="-4.1970990">
        <ele>501.3</ele>
        <time>2019-08-13T08:27:54Z</time>
      </trkpt>
      <trkpt lat="39.9659180" lon="-4.1971560">
        <ele>501.3</ele>
        <time>2019-08-13T08:27:55Z</time>
      </trkpt>
      <trkpt lat="39.9659410" lon="-4.1972130">
        <ele>501.4</ele>
        <time>2019-08-13T08:27:56Z</time>
      </trkpt>
      <trkpt lat="39.9659650" lon="-4.1972690">
        <ele>501.5</ele>
        <time>2019-08-13T08:27:57Z</time>
      </trkpt>
      <trkpt lat="39.9659890" lon="-4.1973280">
        <ele>501.6</ele>
        <time>2019-08-13T08:27:58Z</time>
      </trkpt>
      <trkpt lat="39.9660120" lon="-4.1973860">
        <ele>501.6</ele>
        <time>2019-08-13T08:27:59Z</time>
      </trkpt>
      <trkpt lat="39.9660360" lon="-4.1974440">
        <ele>501.7</ele>
        <time>2019-08-13T08:28:00Z</time>
      </trkpt>
      <trkpt lat="39.9660610" lon="-4.1975020">
        <ele>501.8</ele>
        <time>2019-08-13T08:28:01Z</time>
      </trkpt>
      <trkpt lat="39.9660850" lon="-4.1975600">
        <ele>501.8</ele>
        <time>2019-08-13T08:28:02Z</time>
      </trkpt>
      <trkpt lat="39.9661090" lon="-4.1976190">
        <ele>501.9</ele>
        <time>2019-08-13T08:28:03Z</time>
      </trkpt>
      <trkpt lat="39.9661350" lon="-4.1976790">
        <ele>502.0</ele>
        <time>2019-08-13T08:28:04Z</time>
      </trkpt>
      <trkpt lat="39.9661600" lon="-4.1977370">
        <ele>502.1</ele>
        <time>2019-08-13T08:28:05Z</time>
      </trkpt>
      <trkpt lat="39.9661850" lon="-4.1977950">
        <ele>502.1</ele>
        <time>2019-08-13T08:28:06Z</time>
      </trkpt>
      <trkpt lat="39.9662090" lon="-4.1978540">
        <ele>502.2</ele>
        <time>2019-08-13T08:28:07Z</time>
      </trkpt>
      <trkpt lat="39.9662340" lon="-4.1979120">
        <ele>502.3</ele>
        <time>2019-08-13T08:28:08Z</time>
      </trkpt>
      <trkpt lat="39.9662580" lon="-4.1979690">
        <ele>502.4</ele>
        <time>2019-08-13T08:28:09Z</time>
      </trkpt>
      <trkpt lat="39.9662830" lon="-4.1980250">
        <ele>502.5</ele>
        <time>2019-08-13T08:28:10Z</time>
      </trkpt>
      <trkpt lat="39.9663080" lon="-4.1980800">
        <ele>502.5</ele>
        <time>2019-08-13T08:28:11Z</time>
      </trkpt>
      <trkpt lat="39.9663320" lon="-4.1981350">
        <ele>502.6</ele>
        <time>2019-08-13T08:28:12Z</time>
      </trkpt>
      <trkpt lat="39.9663570" lon="-4.1981890">
        <ele>502.7</ele>
        <time>2019-08-13T08:28:13Z</time>
      </trkpt>
      <trkpt lat="39.9663820" lon="-4.1982440">
        <ele>502.7</ele>
        <time>2019-08-13T08:28:14Z</time>
      </trkpt>
      <trkpt lat="39.9664060" lon="-4.1983000">
        <ele>502.8</ele>
        <time>2019-08-13T08:28:15Z</time>
      </trkpt>
      <trkpt lat="39.9664310" lon="-4.1983560">
        <ele>502.9</ele>
        <time>2019-08-13T08:28:16Z</time>
      </trkpt>
      <trkpt lat="39.9664560" lon="-4.1984120">
        <ele>503.0</ele>
        <time>2019-08-13T08:28:17Z</time>
      </trkpt>
      <trkpt lat="39.9664800" lon="-4.1984690">
        <ele>503.1</ele>
        <time>2019-08-13T08:28:18Z</time>
      </trkpt>
      <trkpt lat="39.9665030" lon="-4.1985270">
        <ele>503.2</ele>
        <time>2019-08-13T08:28:19Z</time>
      </trkpt>
      <trkpt lat="39.9665280" lon="-4.1985840">
        <ele>503.3</ele>
        <time>2019-08-13T08:28:20Z</time>
      </trkpt>
      <trkpt lat="39.9665530" lon="-4.1986390">
        <ele>503.4</ele>
        <time>2019-08-13T08:28:21Z</time>
      </trkpt>
      <trkpt lat="39.9665770" lon="-4.1986950">
        <ele>503.5</ele>
        <time>2019-08-13T08:28:22Z</time>
      </trkpt>
      <trkpt lat="39.9666020" lon="-4.1987500">
        <ele>503.6</ele>
        <time>2019-08-13T08:28:23Z</time>
      </trkpt>
      <trkpt lat="39.9666260" lon="-4.1988050">
        <ele>503.7</ele>
        <time>2019-08-13T08:28:24Z</time>
      </trkpt>
      <trkpt lat="39.9666490" lon="-4.1988590">
        <ele>503.8</ele>
        <time>2019-08-13T08:28:25Z</time>
      </trkpt>
      <trkpt lat="39.9666730" lon="-4.1989140">
        <ele>503.9</ele>
        <time>2019-08-13T08:28:26Z</time>
      </trkpt>
      <trkpt lat="39.9666970" lon="-4.1989690">
        <ele>504.0</ele>
        <time>2019-08-13T08:28:27Z</time>
      </trkpt>
      <trkpt lat="39.9667210" lon="-4.1990210">
        <ele>504.0</ele>
        <time>2019-08-13T08:28:28Z</time>
      </trkpt>
      <trkpt lat="39.9667460" lon="-4.1990750">
        <ele>504.1</ele>
        <time>2019-08-13T08:28:29Z</time>
      </trkpt>
      <trkpt lat="39.9667700" lon="-4.1991280">
        <ele>504.1</ele>
        <time>2019-08-13T08:28:30Z</time>
      </trkpt>
      <trkpt lat="39.9667940" lon="-4.1991810">
        <ele>504.2</ele>
        <time>2019-08-13T08:28:31Z</time>
      </trkpt>
      <trkpt lat="39.9668170" lon="-4.1992360">
        <ele>504.2</ele>
        <time>2019-08-13T08:28:32Z</time>
      </trkpt>
      <trkpt lat="39.9668410" lon="-4.1992920">
        <ele>504.2</ele>
        <time>2019-08-13T08:28:33Z</time>
      </trkpt>
      <trkpt lat="39.9668650" lon="-4.1993480">
        <ele>504.2</ele>
        <time>2019-08-13T08:28:34Z</time>
      </trkpt>
      <trkpt lat="39.9668900" lon="-4.1994050">
        <ele>504.1</ele>
        <time>2019-08-13T08:28:35Z</time>
      </trkpt>
      <trkpt lat="39.9669160" lon="-4.1994630">
        <ele>504.1</ele>
        <time>2019-08-13T08:28:36Z</time>
      </trkpt>
      <trkpt lat="39.9669400" lon="-4.1995230">
        <ele>504.1</ele>
        <time>2019-08-13T08:28:37Z</time>
      </trkpt>
      <trkpt lat="39.9669660" lon="-4.1995820">
        <ele>504.1</ele>
        <time>2019-08-13T08:28:38Z</time>
      </trkpt>
      <trkpt lat="39.9669910" lon="-4.1996430">
        <ele>504.1</ele>
        <time>2019-08-13T08:28:39Z</time>
      </trkpt>
      <trkpt lat="39.9670160" lon="-4.1997050">
        <ele>504.1</ele>
        <time>2019-08-13T08:28:40Z</time>
      </trkpt>
      <trkpt lat="39.9670420" lon="-4.1997660">
        <ele>504.1</ele>
        <time>2019-08-13T08:28:41Z</time>
      </trkpt>
      <trkpt lat="39.9670680" lon="-4.1998270">
        <ele>504.1</ele>
        <time>2019-08-13T08:28:42Z</time>
      </trkpt>
      <trkpt lat="39.9670950" lon="-4.1998870">
        <ele>504.2</ele>
        <time>2019-08-13T08:28:43Z</time>
      </trkpt>
      <trkpt lat="39.9671230" lon="-4.1999490">
        <ele>504.3</ele>
        <time>2019-08-13T08:28:44Z</time>
      </trkpt>
      <trkpt lat="39.9671520" lon="-4.2000110">
        <ele>504.3</ele>
        <time>2019-08-13T08:28:45Z</time>
      </trkpt>
      <trkpt lat="39.9671810" lon="-4.2000750">
        <ele>504.4</ele>
        <time>2019-08-13T08:28:46Z</time>
      </trkpt>
      <trkpt lat="39.9672090" lon="-4.2001410">
        <ele>504.4</ele>
        <time>2019-08-13T08:28:47Z</time>
      </trkpt>
      <trkpt lat="39.9672380" lon="-4.2002040">
        <ele>504.4</ele>
        <time>2019-08-13T08:28:48Z</time>
      </trkpt>
      <trkpt lat="39.9672660" lon="-4.2002690">
        <ele>504.4</ele>
        <time>2019-08-13T08:28:49Z</time>
      </trkpt>
      <trkpt lat="39.9672940" lon="-4.2003350">
        <ele>504.4</ele>
        <time>2019-08-13T08:28:50Z</time>
      </trkpt>
      <trkpt lat="39.9673230" lon="-4.2004010">
        <ele>504.4</ele>
        <time>2019-08-13T08:28:51Z</time>
      </trkpt>
      <trkpt lat="39.9673520" lon="-4.2004700">
        <ele>504.4</ele>
        <time>2019-08-13T08:28:52Z</time>
      </trkpt>
      <trkpt lat="39.9673800" lon="-4.2005370">
        <ele>504.4</ele>
        <time>2019-08-13T08:28:53Z</time>
      </trkpt>
      <trkpt lat="39.9674080" lon="-4.2006050">
        <ele>504.4</ele>
        <time>2019-08-13T08:28:54Z</time>
      </trkpt>
      <trkpt lat="39.9674370" lon="-4.2006730">
        <ele>504.4</ele>
        <time>2019-08-13T08:28:55Z</time>
      </trkpt>
      <trkpt lat="39.9674660" lon="-4.2007410">
        <ele>504.4</ele>
        <time>2019-08-13T08:28:56Z</time>
      </trkpt>
      <trkpt lat="39.9674960" lon="-4.2008080">
        <ele>504.3</ele>
        <time>2019-08-13T08:28:57Z</time>
      </trkpt>
      <trkpt lat="39.9675260" lon="-4.2008740">
        <ele>504.3</ele>
        <time>2019-08-13T08:28:58Z</time>
      </trkpt>
      <trkpt lat="39.9675550" lon="-4.2009410">
        <ele>504.2</ele>
        <time>2019-08-13T08:28:59Z</time>
      </trkpt>
      <trkpt lat="39.9675840" lon="-4.2010080">
        <ele>504.1</ele>
        <time>2019-08-13T08:29:00Z</time>
      </trkpt>
      <trkpt lat="39.9676140" lon="-4.2010740">
        <ele>504.1</ele>
        <time>2019-08-13T08:29:01Z</time>
      </trkpt>
      <trkpt lat="39.9676430" lon="-4.2011400">
        <ele>504.0</ele>
        <time>2019-08-13T08:29:02Z</time>
      </trkpt>
      <trkpt lat="39.9676730" lon="-4.2012060">
        <ele>503.9</ele>
        <time>2019-08-13T08:29:03Z</time>
      </trkpt>
      <trkpt lat="39.9677020" lon="-4.2012720">
        <ele>503.9</ele>
        <time>2019-08-13T08:29:04Z</time>
      </trkpt>
      <trkpt lat="39.9677310" lon="-4.2013360">
        <ele>503.9</ele>
        <time>2019-08-13T08:29:05Z</time>
      </trkpt>
      <trkpt lat="39.9677590" lon="-4.2014000">
        <ele>503.9</ele>
        <time>2019-08-13T08:29:06Z</time>
      </trkpt>
      <trkpt lat="39.9677900" lon="-4.2014640">
        <ele>503.9</ele>
        <time>2019-08-13T08:29:07Z</time>
      </trkpt>
      <trkpt lat="39.9678200" lon="-4.2015290">
        <ele>503.9</ele>
        <time>2019-08-13T08:29:08Z</time>
      </trkpt>
      <trkpt lat="39.9678460" lon="-4.2015950">
        <ele>503.9</ele>
        <time>2019-08-13T08:29:09Z</time>
      </trkpt>
      <trkpt lat="39.9678730" lon="-4.2016610">
        <ele>503.9</ele>
        <time>2019-08-13T08:29:10Z</time>
      </trkpt>
      <trkpt lat="39.9679020" lon="-4.2017280">
        <ele>503.9</ele>
        <time>2019-08-13T08:29:11Z</time>
      </trkpt>
      <trkpt lat="39.9679310" lon="-4.2017950">
        <ele>503.9</ele>
        <time>2019-08-13T08:29:12Z</time>
      </trkpt>
      <trkpt lat="39.9679580" lon="-4.2018620">
        <ele>503.9</ele>
        <time>2019-08-13T08:29:13Z</time>
      </trkpt>
      <trkpt lat="39.9679860" lon="-4.2019310">
        <ele>503.9</ele>
        <time>2019-08-13T08:29:14Z</time>
      </trkpt>
      <trkpt lat="39.9680130" lon="-4.2019960">
        <ele>503.9</ele>
        <time>2019-08-13T08:29:15Z</time>
      </trkpt>
      <trkpt lat="39.9680400" lon="-4.2020600">
        <ele>503.9</ele>
        <time>2019-08-13T08:29:16Z</time>
      </trkpt>
      <trkpt lat="39.9680670" lon="-4.2021230">
        <ele>503.9</ele>
        <time>2019-08-13T08:29:17Z</time>
      </trkpt>
      <trkpt lat="39.9680960" lon="-4.2021870">
        <ele>504.0</ele>
        <time>2019-08-13T08:29:18Z</time>
      </trkpt>
      <trkpt lat="39.9681230" lon="-4.2022540">
        <ele>504.0</ele>
        <time>2019-08-13T08:29:19Z</time>
      </trkpt>
      <trkpt lat="39.9681490" lon="-4.2023200">
        <ele>504.0</ele>
        <time>2019-08-13T08:29:20Z</time>
      </trkpt>
      <trkpt lat="39.9681750" lon="-4.2023850">
        <ele>504.1</ele>
        <time>2019-08-13T08:29:21Z</time>
      </trkpt>
      <trkpt lat="39.9682020" lon="-4.2024510">
        <ele>504.1</ele>
        <time>2019-08-13T08:29:22Z</time>
      </trkpt>
      <trkpt lat="39.9682310" lon="-4.2025160">
        <ele>504.1</ele>
        <time>2019-08-13T08:29:23Z</time>
      </trkpt>
      <trkpt lat="39.9682590" lon="-4.2025800">
        <ele>504.1</ele>
        <time>2019-08-13T08:29:24Z</time>
      </trkpt>
      <trkpt lat="39.9682860" lon="-4.2026440">
        <ele>504.1</ele>
        <time>2019-08-13T08:29:25Z</time>
      </trkpt>
      <trkpt lat="39.9683130" lon="-4.2027060">
        <ele>504.1</ele>
        <time>2019-08-13T08:29:26Z</time>
      </trkpt>
      <trkpt lat="39.9683410" lon="-4.2027650">
        <ele>504.1</ele>
        <time>2019-08-13T08:29:27Z</time>
      </trkpt>
      <trkpt lat="39.9683680" lon="-4.2028260">
        <ele>504.1</ele>
        <time>2019-08-13T08:29:28Z</time>
      </trkpt>
      <trkpt lat="39.9683940" lon="-4.2028860">
        <ele>504.1</ele>
        <time>2019-08-13T08:29:29Z</time>
      </trkpt>
      <trkpt lat="39.9684210" lon="-4.2029480">
        <ele>504.1</ele>
        <time>2019-08-13T08:29:30Z</time>
      </trkpt>
      <trkpt lat="39.9684460" lon="-4.2030120">
        <ele>504.1</ele>
        <time>2019-08-13T08:29:31Z</time>
      </trkpt>
      <trkpt lat="39.9684730" lon="-4.2030740">
        <ele>504.1</ele>
        <time>2019-08-13T08:29:32Z</time>
      </trkpt>
      <trkpt lat="39.9685000" lon="-4.2031370">
        <ele>504.1</ele>
        <time>2019-08-13T08:29:33Z</time>
      </trkpt>
      <trkpt lat="39.9685280" lon="-4.2032000">
        <ele>504.1</ele>
        <time>2019-08-13T08:29:34Z</time>
      </trkpt>
      <trkpt lat="39.9685560" lon="-4.2032620">
        <ele>504.2</ele>
        <time>2019-08-13T08:29:35Z</time>
      </trkpt>
      <trkpt lat="39.9685850" lon="-4.2033230">
        <ele>504.2</ele>
        <time>2019-08-13T08:29:36Z</time>
      </trkpt>
      <trkpt lat="39.9686150" lon="-4.2033860">
        <ele>504.1</ele>
        <time>2019-08-13T08:29:37Z</time>
      </trkpt>
      <trkpt lat="39.9686450" lon="-4.2034490">
        <ele>504.1</ele>
        <time>2019-08-13T08:29:38Z</time>
      </trkpt>
      <trkpt lat="39.9686740" lon="-4.2035130">
        <ele>504.1</ele>
        <time>2019-08-13T08:29:39Z</time>
      </trkpt>
      <trkpt lat="39.9687020" lon="-4.2035770">
        <ele>504.0</ele>
        <time>2019-08-13T08:29:40Z</time>
      </trkpt>
      <trkpt lat="39.9687320" lon="-4.2036400">
        <ele>503.9</ele>
        <time>2019-08-13T08:29:41Z</time>
      </trkpt>
      <trkpt lat="39.9687610" lon="-4.2037010">
        <ele>503.9</ele>
        <time>2019-08-13T08:29:42Z</time>
      </trkpt>
      <trkpt lat="39.9687880" lon="-4.2037630">
        <ele>503.8</ele>
        <time>2019-08-13T08:29:43Z</time>
      </trkpt>
      <trkpt lat="39.9688160" lon="-4.2038260">
        <ele>503.7</ele>
        <time>2019-08-13T08:29:44Z</time>
      </trkpt>
      <trkpt lat="39.9688440" lon="-4.2038890">
        <ele>503.7</ele>
        <time>2019-08-13T08:29:45Z</time>
      </trkpt>
      <trkpt lat="39.9688730" lon="-4.2039520">
        <ele>503.6</ele>
        <time>2019-08-13T08:29:46Z</time>
      </trkpt>
      <trkpt lat="39.9689020" lon="-4.2040150">
        <ele>503.6</ele>
        <time>2019-08-13T08:29:47Z</time>
      </trkpt>
      <trkpt lat="39.9689310" lon="-4.2040800">
        <ele>503.6</ele>
        <time>2019-08-13T08:29:48Z</time>
      </trkpt>
      <trkpt lat="39.9689590" lon="-4.2041460">
        <ele>503.6</ele>
        <time>2019-08-13T08:29:49Z</time>
      </trkpt>
      <trkpt lat="39.9689860" lon="-4.2042100">
        <ele>503.6</ele>
        <time>2019-08-13T08:29:50Z</time>
      </trkpt>
      <trkpt lat="39.9690140" lon="-4.2042740">
        <ele>503.5</ele>
        <time>2019-08-13T08:29:51Z</time>
      </trkpt>
      <trkpt lat="39.9690410" lon="-4.2043400">
        <ele>503.5</ele>
        <time>2019-08-13T08:29:52Z</time>
      </trkpt>
      <trkpt lat="39.9690680" lon="-4.2044060">
        <ele>503.4</ele>
        <time>2019-08-13T08:29:53Z</time>
      </trkpt>
      <trkpt lat="39.9690950" lon="-4.2044720">
        <ele>503.4</ele>
        <time>2019-08-13T08:29:54Z</time>
      </trkpt>
      <trkpt lat="39.9691210" lon="-4.2045370">
        <ele>503.4</ele>
        <time>2019-08-13T08:29:55Z</time>
      </trkpt>
      <trkpt lat="39.9691470" lon="-4.2046030">
        <ele>503.3</ele>
        <time>2019-08-13T08:29:56Z</time>
      </trkpt>
      <trkpt lat="39.9691750" lon="-4.2046710">
        <ele>503.3</ele>
        <time>2019-08-13T08:29:57Z</time>
      </trkpt>
      <trkpt lat="39.9692030" lon="-4.2047390">
        <ele>503.2</ele>
        <time>2019-08-13T08:29:58Z</time>
      </trkpt>
      <trkpt lat="39.9692320" lon="-4.2048060">
        <ele>503.2</ele>
        <time>2019-08-13T08:29:59Z</time>
      </trkpt>
      <trkpt lat="39.9692610" lon="-4.2048720">
        <ele>503.2</ele>
        <time>2019-08-13T08:30:00Z</time>
      </trkpt>
      <trkpt lat="39.9692900" lon="-4.2049390">
        <ele>503.2</ele>
        <time>2019-08-13T08:30:01Z</time>
      </trkpt>
      <trkpt lat="39.9693180" lon="-4.2050070">
        <ele>503.2</ele>
        <time>2019-08-13T08:30:02Z</time>
      </trkpt>
      <trkpt lat="39.9693480" lon="-4.2050750">
        <ele>503.3</ele>
        <time>2019-08-13T08:30:03Z</time>
      </trkpt>
      <trkpt lat="39.9693790" lon="-4.2051410">
        <ele>503.3</ele>
        <time>2019-08-13T08:30:04Z</time>
      </trkpt>
      <trkpt lat="39.9694090" lon="-4.2052080">
        <ele>503.4</ele>
        <time>2019-08-13T08:30:05Z</time>
      </trkpt>
      <trkpt lat="39.9694400" lon="-4.2052750">
        <ele>503.4</ele>
        <time>2019-08-13T08:30:06Z</time>
      </trkpt>
      <trkpt lat="39.9694700" lon="-4.2053410">
        <ele>503.4</ele>
        <time>2019-08-13T08:30:07Z</time>
      </trkpt>
      <trkpt lat="39.9695000" lon="-4.2054090">
        <ele>503.4</ele>
        <time>2019-08-13T08:30:08Z</time>
      </trkpt>
      <trkpt lat="39.9695290" lon="-4.2054770">
        <ele>503.4</ele>
        <time>2019-08-13T08:30:09Z</time>
      </trkpt>
      <trkpt lat="39.9695590" lon="-4.2055460">
        <ele>503.4</ele>
        <time>2019-08-13T08:30:10Z</time>
      </trkpt>
      <trkpt lat="39.9695900" lon="-4.2056140">
        <ele>503.4</ele>
        <time>2019-08-13T08:30:11Z</time>
      </trkpt>
      <trkpt lat="39.9696200" lon="-4.2056820">
        <ele>503.4</ele>
        <time>2019-08-13T08:30:12Z</time>
      </trkpt>
      <trkpt lat="39.9696490" lon="-4.2057520">
        <ele>503.4</ele>
        <time>2019-08-13T08:30:13Z</time>
      </trkpt>
      <trkpt lat="39.9696770" lon="-4.2058210">
        <ele>503.3</ele>
        <time>2019-08-13T08:30:14Z</time>
      </trkpt>
      <trkpt lat="39.9697060" lon="-4.2058890">
        <ele>503.3</ele>
        <time>2019-08-13T08:30:15Z</time>
      </trkpt>
      <trkpt lat="39.9697330" lon="-4.2059580">
        <ele>503.2</ele>
        <time>2019-08-13T08:30:16Z</time>
      </trkpt>
      <trkpt lat="39.9697610" lon="-4.2060260">
        <ele>503.2</ele>
        <time>2019-08-13T08:30:17Z</time>
      </trkpt>
      <trkpt lat="39.9697900" lon="-4.2060930">
        <ele>503.1</ele>
        <time>2019-08-13T08:30:18Z</time>
      </trkpt>
      <trkpt lat="39.9698200" lon="-4.2061620">
        <ele>503.1</ele>
        <time>2019-08-13T08:30:19Z</time>
      </trkpt>
      <trkpt lat="39.9698500" lon="-4.2062290">
        <ele>503.0</ele>
        <time>2019-08-13T08:30:20Z</time>
      </trkpt>
      <trkpt lat="39.9698800" lon="-4.2062960">
        <ele>503.0</ele>
        <time>2019-08-13T08:30:21Z</time>
      </trkpt>
      <trkpt lat="39.9699100" lon="-4.2063620">
        <ele>503.0</ele>
        <time>2019-08-13T08:30:22Z</time>
      </trkpt>
      <trkpt lat="39.9699400" lon="-4.2064300">
        <ele>503.0</ele>
        <time>2019-08-13T08:30:23Z</time>
      </trkpt>
      <trkpt lat="39.9699710" lon="-4.2064960">
        <ele>503.0</ele>
        <time>2019-08-13T08:30:24Z</time>
      </trkpt>
      <trkpt lat="39.9700010" lon="-4.2065620">
        <ele>503.0</ele>
        <time>2019-08-13T08:30:25Z</time>
      </trkpt>
      <trkpt lat="39.9700310" lon="-4.2066270">
        <ele>503.0</ele>
        <time>2019-08-13T08:30:26Z</time>
      </trkpt>
      <trkpt lat="39.9700620" lon="-4.2066910">
        <ele>503.1</ele>
        <time>2019-08-13T08:30:27Z</time>
      </trkpt>
      <trkpt lat="39.9700920" lon="-4.2067560">
        <ele>503.2</ele>
        <time>2019-08-13T08:30:28Z</time>
      </trkpt>
      <trkpt lat="39.9701220" lon="-4.2068210">
        <ele>503.3</ele>
        <time>2019-08-13T08:30:29Z</time>
      </trkpt>
      <trkpt lat="39.9701510" lon="-4.2068870">
        <ele>503.4</ele>
        <time>2019-08-13T08:30:30Z</time>
      </trkpt>
      <trkpt lat="39.9701810" lon="-4.2069540">
        <ele>503.5</ele>
        <time>2019-08-13T08:30:31Z</time>
      </trkpt>
      <trkpt lat="39.9702110" lon="-4.2070200">
        <ele>503.6</ele>
        <time>2019-08-13T08:30:32Z</time>
      </trkpt>
      <trkpt lat="39.9702410" lon="-4.2070870">
        <ele>503.7</ele>
        <time>2019-08-13T08:30:33Z</time>
      </trkpt>
      <trkpt lat="39.9702740" lon="-4.2071530">
        <ele>503.9</ele>
        <time>2019-08-13T08:30:34Z</time>
      </trkpt>
      <trkpt lat="39.9703060" lon="-4.2072190">
        <ele>504.0</ele>
        <time>2019-08-13T08:30:35Z</time>
      </trkpt>
      <trkpt lat="39.9703370" lon="-4.2072860">
        <ele>504.1</ele>
        <time>2019-08-13T08:30:36Z</time>
      </trkpt>
      <trkpt lat="39.9703680" lon="-4.2073520">
        <ele>504.2</ele>
        <time>2019-08-13T08:30:37Z</time>
      </trkpt>
      <trkpt lat="39.9704010" lon="-4.2074160">
        <ele>504.3</ele>
        <time>2019-08-13T08:30:38Z</time>
      </trkpt>
      <trkpt lat="39.9704330" lon="-4.2074830">
        <ele>504.4</ele>
        <time>2019-08-13T08:30:39Z</time>
      </trkpt>
      <trkpt lat="39.9704640" lon="-4.2075480">
        <ele>504.5</ele>
        <time>2019-08-13T08:30:40Z</time>
      </trkpt>
      <trkpt lat="39.9704960" lon="-4.2076120">
        <ele>504.6</ele>
        <time>2019-08-13T08:30:41Z</time>
      </trkpt>
      <trkpt lat="39.9705260" lon="-4.2076760">
        <ele>504.7</ele>
        <time>2019-08-13T08:30:42Z</time>
      </trkpt>
      <trkpt lat="39.9705570" lon="-4.2077400">
        <ele>504.8</ele>
        <time>2019-08-13T08:30:43Z</time>
      </trkpt>
      <trkpt lat="39.9705860" lon="-4.2078040">
        <ele>504.9</ele>
        <time>2019-08-13T08:30:44Z</time>
      </trkpt>
      <trkpt lat="39.9706160" lon="-4.2078670">
        <ele>505.0</ele>
        <time>2019-08-13T08:30:45Z</time>
      </trkpt>
      <trkpt lat="39.9706460" lon="-4.2079300">
        <ele>505.0</ele>
        <time>2019-08-13T08:30:46Z</time>
      </trkpt>
      <trkpt lat="39.9706750" lon="-4.2079910">
        <ele>505.1</ele>
        <time>2019-08-13T08:30:47Z</time>
      </trkpt>
      <trkpt lat="39.9707040" lon="-4.2080520">
        <ele>505.1</ele>
        <time>2019-08-13T08:30:48Z</time>
      </trkpt>
      <trkpt lat="39.9707330" lon="-4.2081130">
        <ele>505.2</ele>
        <time>2019-08-13T08:30:49Z</time>
      </trkpt>
      <trkpt lat="39.9707640" lon="-4.2081740">
        <ele>505.2</ele>
        <time>2019-08-13T08:30:50Z</time>
      </trkpt>
      <trkpt lat="39.9707920" lon="-4.2082340">
        <ele>505.2</ele>
        <time>2019-08-13T08:30:51Z</time>
      </trkpt>
      <trkpt lat="39.9708180" lon="-4.2082910">
        <ele>505.2</ele>
        <time>2019-08-13T08:30:52Z</time>
      </trkpt>
      <trkpt lat="39.9708470" lon="-4.2083500">
        <ele>505.2</ele>
        <time>2019-08-13T08:30:53Z</time>
      </trkpt>
      <trkpt lat="39.9708760" lon="-4.2084110">
        <ele>505.2</ele>
        <time>2019-08-13T08:30:54Z</time>
      </trkpt>
      <trkpt lat="39.9709070" lon="-4.2084730">
        <ele>505.2</ele>
        <time>2019-08-13T08:30:55Z</time>
      </trkpt>
      <trkpt lat="39.9709380" lon="-4.2085360">
        <ele>505.1</ele>
        <time>2019-08-13T08:30:56Z</time>
      </trkpt>
      <trkpt lat="39.9709690" lon="-4.2085980">
        <ele>505.1</ele>
        <time>2019-08-13T08:30:57Z</time>
      </trkpt>
      <trkpt lat="39.9709980" lon="-4.2086610">
        <ele>505.1</ele>
        <time>2019-08-13T08:30:58Z</time>
      </trkpt>
      <trkpt lat="39.9710250" lon="-4.2087230">
        <ele>505.0</ele>
        <time>2019-08-13T08:30:59Z</time>
      </trkpt>
      <trkpt lat="39.9710540" lon="-4.2087840">
        <ele>505.0</ele>
        <time>2019-08-13T08:31:00Z</time>
      </trkpt>
      <trkpt lat="39.9710830" lon="-4.2088450">
        <ele>505.0</ele>
        <time>2019-08-13T08:31:01Z</time>
      </trkpt>
      <trkpt lat="39.9711140" lon="-4.2089030">
        <ele>505.0</ele>
        <time>2019-08-13T08:31:02Z</time>
      </trkpt>
      <trkpt lat="39.9711450" lon="-4.2089590">
        <ele>504.9</ele>
        <time>2019-08-13T08:31:03Z</time>
      </trkpt>
      <trkpt lat="39.9711750" lon="-4.2090140">
        <ele>504.9</ele>
        <time>2019-08-13T08:31:04Z</time>
      </trkpt>
      <trkpt lat="39.9712040" lon="-4.2090700">
        <ele>504.8</ele>
        <time>2019-08-13T08:31:05Z</time>
      </trkpt>
      <trkpt lat="39.9712330" lon="-4.2091270">
        <ele>504.8</ele>
        <time>2019-08-13T08:31:06Z</time>
      </trkpt>
      <trkpt lat="39.9712630" lon="-4.2091880">
        <ele>504.8</ele>
        <time>2019-08-13T08:31:07Z</time>
      </trkpt>
      <trkpt lat="39.9712920" lon="-4.2092480">
        <ele>504.7</ele>
        <time>2019-08-13T08:31:08Z</time>
      </trkpt>
      <trkpt lat="39.9713210" lon="-4.2093060">
        <ele>504.7</ele>
        <time>2019-08-13T08:31:09Z</time>
      </trkpt>
      <trkpt lat="39.9713490" lon="-4.2093660">
        <ele>504.7</ele>
        <time>2019-08-13T08:31:10Z</time>
      </trkpt>
      <trkpt lat="39.9713770" lon="-4.2094280">
        <ele>504.7</ele>
        <time>2019-08-13T08:31:11Z</time>
      </trkpt>
      <trkpt lat="39.9714050" lon="-4.2094890">
        <ele>504.7</ele>
        <time>2019-08-13T08:31:12Z</time>
      </trkpt>
      <trkpt lat="39.9714360" lon="-4.2095520">
        <ele>504.7</ele>
        <time>2019-08-13T08:31:13Z</time>
      </trkpt>
      <trkpt lat="39.9714650" lon="-4.2096170">
        <ele>504.7</ele>
        <time>2019-08-13T08:31:14Z</time>
      </trkpt>
      <trkpt lat="39.9714950" lon="-4.2096850">
        <ele>504.7</ele>
        <time>2019-08-13T08:31:15Z</time>
      </trkpt>
      <trkpt lat="39.9715230" lon="-4.2097520">
        <ele>504.7</ele>
        <time>2019-08-13T08:31:16Z</time>
      </trkpt>
      <trkpt lat="39.9715470" lon="-4.2098180">
        <ele>504.6</ele>
        <time>2019-08-13T08:31:17Z</time>
      </trkpt>
      <trkpt lat="39.9715710" lon="-4.2098850">
        <ele>504.5</ele>
        <time>2019-08-13T08:31:18Z</time>
      </trkpt>
      <trkpt lat="39.9715940" lon="-4.2099510">
        <ele>504.5</ele>
        <time>2019-08-13T08:31:19Z</time>
      </trkpt>
      <trkpt lat="39.9716160" lon="-4.2100210">
        <ele>504.4</ele>
        <time>2019-08-13T08:31:20Z</time>
      </trkpt>
      <trkpt lat="39.9716390" lon="-4.2100910">
        <ele>504.3</ele>
        <time>2019-08-13T08:31:21Z</time>
      </trkpt>
      <trkpt lat="39.9716630" lon="-4.2101610">
        <ele>504.3</ele>
        <time>2019-08-13T08:31:22Z</time>
      </trkpt>
      <trkpt lat="39.9716860" lon="-4.2102290">
        <ele>504.3</ele>
        <time>2019-08-13T08:31:23Z</time>
      </trkpt>
      <trkpt lat="39.9717100" lon="-4.2102950">
        <ele>504.3</ele>
        <time>2019-08-13T08:31:24Z</time>
      </trkpt>
      <trkpt lat="39.9717320" lon="-4.2103630">
        <ele>504.3</ele>
        <time>2019-08-13T08:31:25Z</time>
      </trkpt>
      <trkpt lat="39.9717530" lon="-4.2104340">
        <ele>504.3</ele>
        <time>2019-08-13T08:31:26Z</time>
      </trkpt>
      <trkpt lat="39.9717740" lon="-4.2105050">
        <ele>504.3</ele>
        <time>2019-08-13T08:31:27Z</time>
      </trkpt>
      <trkpt lat="39.9717930" lon="-4.2105740">
        <ele>504.3</ele>
        <time>2019-08-13T08:31:28Z</time>
      </trkpt>
      <trkpt lat="39.9718140" lon="-4.2106410">
        <ele>504.3</ele>
        <time>2019-08-13T08:31:29Z</time>
      </trkpt>
      <trkpt lat="39.9718330" lon="-4.2107070">
        <ele>504.3</ele>
        <time>2019-08-13T08:31:30Z</time>
      </trkpt>
      <trkpt lat="39.9718510" lon="-4.2107710">
        <ele>504.3</ele>
        <time>2019-08-13T08:31:31Z</time>
      </trkpt>
      <trkpt lat="39.9718690" lon="-4.2108360">
        <ele>504.3</ele>
        <time>2019-08-13T08:31:32Z</time>
      </trkpt>
      <trkpt lat="39.9718880" lon="-4.2108980">
        <ele>504.3</ele>
        <time>2019-08-13T08:31:33Z</time>
      </trkpt>
      <trkpt lat="39.9719070" lon="-4.2109570">
        <ele>504.2</ele>
        <time>2019-08-13T08:31:34Z</time>
      </trkpt>
      <trkpt lat="39.9719270" lon="-4.2110180">
        <ele>504.2</ele>
        <time>2019-08-13T08:31:35Z</time>
      </trkpt>
      <trkpt lat="39.9719460" lon="-4.2110820">
        <ele>504.1</ele>
        <time>2019-08-13T08:31:36Z</time>
      </trkpt>
      <trkpt lat="39.9719640" lon="-4.2111490">
        <ele>504.1</ele>
        <time>2019-08-13T08:31:37Z</time>
      </trkpt>
      <trkpt lat="39.9719820" lon="-4.2112170">
        <ele>504.0</ele>
        <time>2019-08-13T08:31:38Z</time>
      </trkpt>
      <trkpt lat="39.9720010" lon="-4.2112860">
        <ele>503.9</ele>
        <time>2019-08-13T08:31:39Z</time>
      </trkpt>
      <trkpt lat="39.9720200" lon="-4.2113560">
        <ele>503.8</ele>
        <time>2019-08-13T08:31:40Z</time>
      </trkpt>
      <trkpt lat="39.9720390" lon="-4.2114250">
        <ele>503.8</ele>
        <time>2019-08-13T08:31:41Z</time>
      </trkpt>
      <trkpt lat="39.9720600" lon="-4.2114940">
        <ele>503.7</ele>
        <time>2019-08-13T08:31:42Z</time>
      </trkpt>
      <trkpt lat="39.9720800" lon="-4.2115630">
        <ele>503.7</ele>
        <time>2019-08-13T08:31:43Z</time>
      </trkpt>
      <trkpt lat="39.9721000" lon="-4.2116310">
        <ele>503.6</ele>
        <time>2019-08-13T08:31:44Z</time>
      </trkpt>
      <trkpt lat="39.9721210" lon="-4.2116980">
        <ele>503.6</ele>
        <time>2019-08-13T08:31:45Z</time>
      </trkpt>
      <trkpt lat="39.9721430" lon="-4.2117660">
        <ele>503.5</ele>
        <time>2019-08-13T08:31:46Z</time>
      </trkpt>
      <trkpt lat="39.9721630" lon="-4.2118330">
        <ele>503.5</ele>
        <time>2019-08-13T08:31:47Z</time>
      </trkpt>
      <trkpt lat="39.9721830" lon="-4.2118990">
        <ele>503.5</ele>
        <time>2019-08-13T08:31:48Z</time>
      </trkpt>
      <trkpt lat="39.9722020" lon="-4.2119660">
        <ele>503.5</ele>
        <time>2019-08-13T08:31:49Z</time>
      </trkpt>
      <trkpt lat="39.9722230" lon="-4.2120320">
        <ele>503.5</ele>
        <time>2019-08-13T08:31:50Z</time>
      </trkpt>
      <trkpt lat="39.9722450" lon="-4.2120980">
        <ele>503.5</ele>
        <time>2019-08-13T08:31:51Z</time>
      </trkpt>
      <trkpt lat="39.9722660" lon="-4.2121640">
        <ele>503.5</ele>
        <time>2019-08-13T08:31:52Z</time>
      </trkpt>
      <trkpt lat="39.9722870" lon="-4.2122320">
        <ele>503.5</ele>
        <time>2019-08-13T08:31:53Z</time>
      </trkpt>
      <trkpt lat="39.9723090" lon="-4.2123000">
        <ele>503.5</ele>
        <time>2019-08-13T08:31:54Z</time>
      </trkpt>
      <trkpt lat="39.9723290" lon="-4.2123690">
        <ele>503.5</ele>
        <time>2019-08-13T08:31:55Z</time>
      </trkpt>
      <trkpt lat="39.9723480" lon="-4.2124360">
        <ele>503.5</ele>
        <time>2019-08-13T08:31:56Z</time>
      </trkpt>
      <trkpt lat="39.9723680" lon="-4.2125040">
        <ele>503.5</ele>
        <time>2019-08-13T08:31:57Z</time>
      </trkpt>
      <trkpt lat="39.9723870" lon="-4.2125730">
        <ele>503.5</ele>
        <time>2019-08-13T08:31:58Z</time>
      </trkpt>
      <trkpt lat="39.9724060" lon="-4.2126400">
        <ele>503.5</ele>
        <time>2019-08-13T08:31:59Z</time>
      </trkpt>
      <trkpt lat="39.9724250" lon="-4.2127070">
        <ele>503.5</ele>
        <time>2019-08-13T08:32:00Z</time>
      </trkpt>
      <trkpt lat="39.9724430" lon="-4.2127730">
        <ele>503.5</ele>
        <time>2019-08-13T08:32:01Z</time>
      </trkpt>
      <trkpt lat="39.9724620" lon="-4.2128410">
        <ele>503.5</ele>
        <time>2019-08-13T08:32:02Z</time>
      </trkpt>
      <trkpt lat="39.9724810" lon="-4.2129070">
        <ele>503.6</ele>
        <time>2019-08-13T08:32:03Z</time>
      </trkpt>
      <trkpt lat="39.9725010" lon="-4.2129730">
        <ele>503.6</ele>
        <time>2019-08-13T08:32:04Z</time>
      </trkpt>
      <trkpt lat="39.9725210" lon="-4.2130380">
        <ele>503.7</ele>
        <time>2019-08-13T08:32:05Z</time>
      </trkpt>
      <trkpt lat="39.9725390" lon="-4.2131040">
        <ele>503.7</ele>
        <time>2019-08-13T08:32:06Z</time>
      </trkpt>
      <trkpt lat="39.9725550" lon="-4.2131720">
        <ele>503.7</ele>
        <time>2019-08-13T08:32:07Z</time>
      </trkpt>
      <trkpt lat="39.9725710" lon="-4.2132420">
        <ele>503.7</ele>
        <time>2019-08-13T08:32:08Z</time>
      </trkpt>
      <trkpt lat="39.9725890" lon="-4.2133100">
        <ele>503.7</ele>
        <time>2019-08-13T08:32:09Z</time>
      </trkpt>
      <trkpt lat="39.9726090" lon="-4.2133790">
        <ele>503.7</ele>
        <time>2019-08-13T08:32:10Z</time>
      </trkpt>
      <trkpt lat="39.9726300" lon="-4.2134470">
        <ele>503.6</ele>
        <time>2019-08-13T08:32:11Z</time>
      </trkpt>
      <trkpt lat="39.9726510" lon="-4.2135160">
        <ele>503.6</ele>
        <time>2019-08-13T08:32:12Z</time>
      </trkpt>
      <trkpt lat="39.9726730" lon="-4.2135850">
        <ele>503.6</ele>
        <time>2019-08-13T08:32:13Z</time>
      </trkpt>
      <trkpt lat="39.9726940" lon="-4.2136530">
        <ele>503.7</ele>
        <time>2019-08-13T08:32:14Z</time>
      </trkpt>
      <trkpt lat="39.9727150" lon="-4.2137230">
        <ele>503.7</ele>
        <time>2019-08-13T08:32:15Z</time>
      </trkpt>
      <trkpt lat="39.9727360" lon="-4.2137930">
        <ele>503.8</ele>
        <time>2019-08-13T08:32:16Z</time>
      </trkpt>
      <trkpt lat="39.9727570" lon="-4.2138630">
        <ele>503.8</ele>
        <time>2019-08-13T08:32:17Z</time>
      </trkpt>
      <trkpt lat="39.9727790" lon="-4.2139340">
        <ele>503.9</ele>
        <time>2019-08-13T08:32:18Z</time>
      </trkpt>
      <trkpt lat="39.9728010" lon="-4.2140030">
        <ele>504.0</ele>
        <time>2019-08-13T08:32:19Z</time>
      </trkpt>
      <trkpt lat="39.9728220" lon="-4.2140740">
        <ele>504.0</ele>
        <time>2019-08-13T08:32:20Z</time>
      </trkpt>
      <trkpt lat="39.9728430" lon="-4.2141450">
        <ele>504.1</ele>
        <time>2019-08-13T08:32:21Z</time>
      </trkpt>
      <trkpt lat="39.9728620" lon="-4.2142180">
        <ele>504.1</ele>
        <time>2019-08-13T08:32:22Z</time>
      </trkpt>
      <trkpt lat="39.9728810" lon="-4.2142910">
        <ele>504.1</ele>
        <time>2019-08-13T08:32:23Z</time>
      </trkpt>
      <trkpt lat="39.9728980" lon="-4.2143650">
        <ele>504.1</ele>
        <time>2019-08-13T08:32:24Z</time>
      </trkpt>
      <trkpt lat="39.9729140" lon="-4.2144420">
        <ele>504.1</ele>
        <time>2019-08-13T08:32:25Z</time>
      </trkpt>
      <trkpt lat="39.9729330" lon="-4.2145180">
        <ele>504.0</ele>
        <time>2019-08-13T08:32:26Z</time>
      </trkpt>
      <trkpt lat="39.9729540" lon="-4.2145930">
        <ele>504.0</ele>
        <time>2019-08-13T08:32:27Z</time>
      </trkpt>
      <trkpt lat="39.9729800" lon="-4.2146650">
        <ele>504.0</ele>
        <time>2019-08-13T08:32:28Z</time>
      </trkpt>
      <trkpt lat="39.9730060" lon="-4.2147370">
        <ele>503.9</ele>
        <time>2019-08-13T08:32:29Z</time>
      </trkpt>
      <trkpt lat="39.9730310" lon="-4.2148080">
        <ele>503.9</ele>
        <time>2019-08-13T08:32:30Z</time>
      </trkpt>
      <trkpt lat="39.9730540" lon="-4.2148810">
        <ele>504.0</ele>
        <time>2019-08-13T08:32:31Z</time>
      </trkpt>
      <trkpt lat="39.9730750" lon="-4.2149530">
        <ele>504.0</ele>
        <time>2019-08-13T08:32:32Z</time>
      </trkpt>
      <trkpt lat="39.9730950" lon="-4.2150280">
        <ele>504.0</ele>
        <time>2019-08-13T08:32:33Z</time>
      </trkpt>
      <trkpt lat="39.9731120" lon="-4.2151010">
        <ele>504.0</ele>
        <time>2019-08-13T08:32:34Z</time>
      </trkpt>
      <trkpt lat="39.9731280" lon="-4.2151720">
        <ele>504.0</ele>
        <time>2019-08-13T08:32:35Z</time>
      </trkpt>
      <trkpt lat="39.9731430" lon="-4.2152440">
        <ele>504.0</ele>
        <time>2019-08-13T08:32:36Z</time>
      </trkpt>
      <trkpt lat="39.9731610" lon="-4.2153150">
        <ele>503.9</ele>
        <time>2019-08-13T08:32:37Z</time>
      </trkpt>
      <trkpt lat="39.9731790" lon="-4.2153880">
        <ele>503.9</ele>
        <time>2019-08-13T08:32:38Z</time>
      </trkpt>
      <trkpt lat="39.9731980" lon="-4.2154590">
        <ele>503.8</ele>
        <time>2019-08-13T08:32:39Z</time>
      </trkpt>
      <trkpt lat="39.9732160" lon="-4.2155270">
        <ele>503.8</ele>
        <time>2019-08-13T08:32:40Z</time>
      </trkpt>
      <trkpt lat="39.9732370" lon="-4.2155910">
        <ele>503.8</ele>
        <time>2019-08-13T08:32:41Z</time>
      </trkpt>
      <trkpt lat="39.9732590" lon="-4.2156540">
        <ele>503.7</ele>
        <time>2019-08-13T08:32:42Z</time>
      </trkpt>
      <trkpt lat="39.9732800" lon="-4.2157160">
        <ele>503.7</ele>
        <time>2019-08-13T08:32:43Z</time>
      </trkpt>
      <trkpt lat="39.9732990" lon="-4.2157810">
        <ele>503.7</ele>
        <time>2019-08-13T08:32:44Z</time>
      </trkpt>
      <trkpt lat="39.9733170" lon="-4.2158490">
        <ele>503.7</ele>
        <time>2019-08-13T08:32:45Z</time>
      </trkpt>
      <trkpt lat="39.9733360" lon="-4.2159160">
        <ele>503.7</ele>
        <time>2019-08-13T08:32:46Z</time>
      </trkpt>
      <trkpt lat="39.9733540" lon="-4.2159830">
        <ele>503.8</ele>
        <time>2019-08-13T08:32:47Z</time>
      </trkpt>
      <trkpt lat="39.9733710" lon="-4.2160520">
        <ele>503.8</ele>
        <time>2019-08-13T08:32:48Z</time>
      </trkpt>
      <trkpt lat="39.9733890" lon="-4.2161200">
        <ele>503.8</ele>
        <time>2019-08-13T08:32:49Z</time>
      </trkpt>
      <trkpt lat="39.9734070" lon="-4.2161890">
        <ele>503.9</ele>
        <time>2019-08-13T08:32:50Z</time>
      </trkpt>
      <trkpt lat="39.9734240" lon="-4.2162570">
        <ele>504.0</ele>
        <time>2019-08-13T08:32:51Z</time>
      </trkpt>
      <trkpt lat="39.9734450" lon="-4.2163240">
        <ele>504.1</ele>
        <time>2019-08-13T08:32:52Z</time>
      </trkpt>
      <trkpt lat="39.9734680" lon="-4.2163910">
        <ele>504.2</ele>
        <time>2019-08-13T08:32:53Z</time>
      </trkpt>
      <trkpt lat="39.9734890" lon="-4.2164580">
        <ele>504.2</ele>
        <time>2019-08-13T08:32:54Z</time>
      </trkpt>
      <trkpt lat="39.9735080" lon="-4.2165250">
        <ele>504.3</ele>
        <time>2019-08-13T08:32:55Z</time>
      </trkpt>
      <trkpt lat="39.9735260" lon="-4.2165930">
        <ele>504.4</ele>
        <time>2019-08-13T08:32:56Z</time>
      </trkpt>
      <trkpt lat="39.9735440" lon="-4.2166620">
        <ele>504.4</ele>
        <time>2019-08-13T08:32:57Z</time>
      </trkpt>
      <trkpt lat="39.9735620" lon="-4.2167300">
        <ele>504.5</ele>
        <time>2019-08-13T08:32:58Z</time>
      </trkpt>
      <trkpt lat="39.9735790" lon="-4.2167990">
        <ele>504.5</ele>
        <time>2019-08-13T08:32:59Z</time>
      </trkpt>
      <trkpt lat="39.9735980" lon="-4.2168670">
        <ele>504.6</ele>
        <time>2019-08-13T08:33:00Z</time>
      </trkpt>
      <trkpt lat="39.9736180" lon="-4.2169350">
        <ele>504.6</ele>
        <time>2019-08-13T08:33:01Z</time>
      </trkpt>
      <trkpt lat="39.9736400" lon="-4.2170050">
        <ele>504.6</ele>
        <time>2019-08-13T08:33:02Z</time>
      </trkpt>
      <trkpt lat="39.9736630" lon="-4.2170740">
        <ele>504.6</ele>
        <time>2019-08-13T08:33:03Z</time>
      </trkpt>
      <trkpt lat="39.9736860" lon="-4.2171440">
        <ele>504.7</ele>
        <time>2019-08-13T08:33:04Z</time>
      </trkpt>
      <trkpt lat="39.9737090" lon="-4.2172160">
        <ele>504.7</ele>
        <time>2019-08-13T08:33:05Z</time>
      </trkpt>
      <trkpt lat="39.9737300" lon="-4.2172870">
        <ele>504.7</ele>
        <time>2019-08-13T08:33:06Z</time>
      </trkpt>
      <trkpt lat="39.9737520" lon="-4.2173580">
        <ele>504.7</ele>
        <time>2019-08-13T08:33:07Z</time>
      </trkpt>
      <trkpt lat="39.9737740" lon="-4.2174290">
        <ele>504.8</ele>
        <time>2019-08-13T08:33:08Z</time>
      </trkpt>
      <trkpt lat="39.9737970" lon="-4.2174990">
        <ele>504.8</ele>
        <time>2019-08-13T08:33:09Z</time>
      </trkpt>
      <trkpt lat="39.9738200" lon="-4.2175690">
        <ele>504.9</ele>
        <time>2019-08-13T08:33:10Z</time>
      </trkpt>
      <trkpt lat="39.9738420" lon="-4.2176390">
        <ele>505.0</ele>
        <time>2019-08-13T08:33:11Z</time>
      </trkpt>
      <trkpt lat="39.9738620" lon="-4.2177090">
        <ele>505.0</ele>
        <time>2019-08-13T08:33:12Z</time>
      </trkpt>
      <trkpt lat="39.9738830" lon="-4.2177800">
        <ele>505.1</ele>
        <time>2019-08-13T08:33:13Z</time>
      </trkpt>
      <trkpt lat="39.9739030" lon="-4.2178520">
        <ele>505.2</ele>
        <time>2019-08-13T08:33:14Z</time>
      </trkpt>
      <trkpt lat="39.9739250" lon="-4.2179210">
        <ele>505.2</ele>
        <time>2019-08-13T08:33:15Z</time>
      </trkpt>
      <trkpt lat="39.9739480" lon="-4.2179890">
        <ele>505.3</ele>
        <time>2019-08-13T08:33:16Z</time>
      </trkpt>
      <trkpt lat="39.9739710" lon="-4.2180570">
        <ele>505.3</ele>
        <time>2019-08-13T08:33:17Z</time>
      </trkpt>
      <trkpt lat="39.9739930" lon="-4.2181260">
        <ele>505.3</ele>
        <time>2019-08-13T08:33:18Z</time>
      </trkpt>
      <trkpt lat="39.9740150" lon="-4.2181960">
        <ele>505.4</ele>
        <time>2019-08-13T08:33:19Z</time>
      </trkpt>
      <trkpt lat="39.9740370" lon="-4.2182690">
        <ele>505.4</ele>
        <time>2019-08-13T08:33:20Z</time>
      </trkpt>
      <trkpt lat="39.9740610" lon="-4.2183430">
        <ele>505.5</ele>
        <time>2019-08-13T08:33:21Z</time>
      </trkpt>
      <trkpt lat="39.9740870" lon="-4.2184190">
        <ele>505.5</ele>
        <time>2019-08-13T08:33:22Z</time>
      </trkpt>
      <trkpt lat="39.9741140" lon="-4.2184930">
        <ele>505.5</ele>
        <time>2019-08-13T08:33:23Z</time>
      </trkpt>
      <trkpt lat="39.9741420" lon="-4.2185640">
        <ele>505.3</ele>
        <time>2019-08-13T08:33:24Z</time>
      </trkpt>
      <trkpt lat="39.9741720" lon="-4.2186310">
        <ele>505.2</ele>
        <time>2019-08-13T08:33:25Z</time>
      </trkpt>
      <trkpt lat="39.9742020" lon="-4.2186920">
        <ele>505.1</ele>
        <time>2019-08-13T08:33:26Z</time>
      </trkpt>
      <trkpt lat="39.9742290" lon="-4.2187500">
        <ele>504.9</ele>
        <time>2019-08-13T08:33:27Z</time>
      </trkpt>
      <trkpt lat="39.9742530" lon="-4.2188070">
        <ele>504.8</ele>
        <time>2019-08-13T08:33:28Z</time>
      </trkpt>
      <trkpt lat="39.9742740" lon="-4.2188630">
        <ele>504.7</ele>
        <time>2019-08-13T08:33:29Z</time>
      </trkpt>
      <trkpt lat="39.9742950" lon="-4.2189140">
        <ele>504.6</ele>
        <time>2019-08-13T08:33:30Z</time>
      </trkpt>
      <trkpt lat="39.9743160" lon="-4.2189610">
        <ele>504.5</ele>
        <time>2019-08-13T08:33:31Z</time>
      </trkpt>
      <trkpt lat="39.9743380" lon="-4.2190070">
        <ele>504.5</ele>
        <time>2019-08-13T08:33:32Z</time>
      </trkpt>
      <trkpt lat="39.9743600" lon="-4.2190460">
        <ele>504.5</ele>
        <time>2019-08-13T08:33:33Z</time>
      </trkpt>
      <trkpt lat="39.9743830" lon="-4.2190830">
        <ele>504.5</ele>
        <time>2019-08-13T08:33:34Z</time>
      </trkpt>
      <trkpt lat="39.9744030" lon="-4.2191180">
        <ele>504.5</ele>
        <time>2019-08-13T08:33:35Z</time>
      </trkpt>
      <trkpt lat="39.9744200" lon="-4.2191500">
        <ele>504.6</ele>
        <time>2019-08-13T08:33:36Z</time>
      </trkpt>
      <trkpt lat="39.9744370" lon="-4.2191810">
        <ele>504.6</ele>
        <time>2019-08-13T08:33:37Z</time>
      </trkpt>
      <trkpt lat="39.9744510" lon="-4.2192160">
        <ele>504.7</ele>
        <time>2019-08-13T08:33:38Z</time>
      </trkpt>
      <trkpt lat="39.9744680" lon="-4.2192500">
        <ele>504.8</ele>
        <time>2019-08-13T08:33:39Z</time>
      </trkpt>
      <trkpt lat="39.9744910" lon="-4.2192770">
        <ele>504.9</ele>
        <time>2019-08-13T08:33:40Z</time>
      </trkpt>
      <trkpt lat="39.9745140" lon="-4.2193050">
        <ele>504.9</ele>
        <time>2019-08-13T08:33:41Z</time>
      </trkpt>
      <trkpt lat="39.9745360" lon="-4.2193350">
        <ele>505.0</ele>
        <time>2019-08-13T08:33:42Z</time>
      </trkpt>
      <trkpt lat="39.9745580" lon="-4.2193620">
        <ele>505.1</ele>
        <time>2019-08-13T08:33:43Z</time>
      </trkpt>
      <trkpt lat="39.9745780" lon="-4.2193870">
        <ele>505.2</ele>
        <time>2019-08-13T08:33:44Z</time>
      </trkpt>
      <trkpt lat="39.9746120" lon="-4.2194350">
        <ele>505.3</ele>
        <time>2019-08-13T08:33:46Z</time>
      </trkpt>
      <trkpt lat="39.9746480" lon="-4.2194840">
        <ele>505.4</ele>
        <time>2019-08-13T08:33:48Z</time>
      </trkpt>
      <trkpt lat="39.9746660" lon="-4.2195110">
        <ele>505.5</ele>
        <time>2019-08-13T08:33:49Z</time>
      </trkpt>
      <trkpt lat="39.9746880" lon="-4.2195390">
        <ele>505.6</ele>
        <time>2019-08-13T08:33:50Z</time>
      </trkpt>
      <trkpt lat="39.9747120" lon="-4.2195680">
        <ele>505.6</ele>
        <time>2019-08-13T08:33:51Z</time>
      </trkpt>
      <trkpt lat="39.9747360" lon="-4.2195980">
        <ele>505.6</ele>
        <time>2019-08-13T08:33:52Z</time>
      </trkpt>
      <trkpt lat="39.9747610" lon="-4.2196310">
        <ele>505.7</ele>
        <time>2019-08-13T08:33:53Z</time>
      </trkpt>
      <trkpt lat="39.9747850" lon="-4.2196650">
        <ele>505.7</ele>
        <time>2019-08-13T08:33:54Z</time>
      </trkpt>
      <trkpt lat="39.9748070" lon="-4.2196990">
        <ele>505.7</ele>
        <time>2019-08-13T08:33:55Z</time>
      </trkpt>
      <trkpt lat="39.9748290" lon="-4.2197300">
        <ele>505.7</ele>
        <time>2019-08-13T08:33:56Z</time>
      </trkpt>
      <trkpt lat="39.9748490" lon="-4.2197570">
        <ele>505.7</ele>
        <time>2019-08-13T08:33:57Z</time>
      </trkpt>
      <trkpt lat="39.9748680" lon="-4.2197820">
        <ele>505.7</ele>
        <time>2019-08-13T08:33:58Z</time>
      </trkpt>
      <trkpt lat="39.9748860" lon="-4.2198090">
        <ele>505.7</ele>
        <time>2019-08-13T08:33:59Z</time>
      </trkpt>
      <trkpt lat="39.9749070" lon="-4.2198400">
        <ele>505.7</ele>
        <time>2019-08-13T08:34:00Z</time>
      </trkpt>
      <trkpt lat="39.9749260" lon="-4.2198750">
        <ele>505.7</ele>
        <time>2019-08-13T08:34:01Z</time>
      </trkpt>
      <trkpt lat="39.9749490" lon="-4.2199110">
        <ele>505.7</ele>
        <time>2019-08-13T08:34:02Z</time>
      </trkpt>
      <trkpt lat="39.9749740" lon="-4.2199470">
        <ele>505.7</ele>
        <time>2019-08-13T08:34:03Z</time>
      </trkpt>
      <trkpt lat="39.9749990" lon="-4.2199840">
        <ele>505.7</ele>
        <time>2019-08-13T08:34:04Z</time>
      </trkpt>
      <trkpt lat="39.9750230" lon="-4.2200240">
        <ele>505.7</ele>
        <time>2019-08-13T08:34:05Z</time>
      </trkpt>
      <trkpt lat="39.9750490" lon="-4.2200630">
        <ele>505.7</ele>
        <time>2019-08-13T08:34:06Z</time>
      </trkpt>
      <trkpt lat="39.9750740" lon="-4.2201020">
        <ele>505.7</ele>
        <time>2019-08-13T08:34:07Z</time>
      </trkpt>
      <trkpt lat="39.9751020" lon="-4.2201430">
        <ele>505.7</ele>
        <time>2019-08-13T08:34:08Z</time>
      </trkpt>
      <trkpt lat="39.9751260" lon="-4.2201850">
        <ele>505.8</ele>
        <time>2019-08-13T08:34:09Z</time>
      </trkpt>
      <trkpt lat="39.9751540" lon="-4.2202290">
        <ele>505.8</ele>
        <time>2019-08-13T08:34:10Z</time>
      </trkpt>
      <trkpt lat="39.9751820" lon="-4.2202710">
        <ele>505.9</ele>
        <time>2019-08-13T08:34:11Z</time>
      </trkpt>
      <trkpt lat="39.9752100" lon="-4.2203130">
        <ele>505.9</ele>
        <time>2019-08-13T08:34:12Z</time>
      </trkpt>
      <trkpt lat="39.9752360" lon="-4.2203550">
        <ele>506.0</ele>
        <time>2019-08-13T08:34:13Z</time>
      </trkpt>
      <trkpt lat="39.9752660" lon="-4.2203970">
        <ele>506.0</ele>
        <time>2019-08-13T08:34:14Z</time>
      </trkpt>
      <trkpt lat="39.9752950" lon="-4.2204350">
        <ele>506.1</ele>
        <time>2019-08-13T08:34:15Z</time>
      </trkpt>
      <trkpt lat="39.9753240" lon="-4.2204730">
        <ele>506.1</ele>
        <time>2019-08-13T08:34:16Z</time>
      </trkpt>
      <trkpt lat="39.9753550" lon="-4.2205130">
        <ele>506.2</ele>
        <time>2019-08-13T08:34:17Z</time>
      </trkpt>
      <trkpt lat="39.9753850" lon="-4.2205580">
        <ele>506.2</ele>
        <time>2019-08-13T08:34:18Z</time>
      </trkpt>
      <trkpt lat="39.9754180" lon="-4.2206060">
        <ele>506.3</ele>
        <time>2019-08-13T08:34:19Z</time>
      </trkpt>
      <trkpt lat="39.9754500" lon="-4.2206480">
        <ele>506.4</ele>
        <time>2019-08-13T08:34:20Z</time>
      </trkpt>
      <trkpt lat="39.9754900" lon="-4.2206950">
        <ele>506.4</ele>
        <time>2019-08-13T08:34:21Z</time>
      </trkpt>
      <trkpt lat="39.9755300" lon="-4.2207500">
        <ele>506.5</ele>
        <time>2019-08-13T08:34:22Z</time>
      </trkpt>
      <trkpt lat="39.9755630" lon="-4.2208010">
        <ele>506.5</ele>
        <time>2019-08-13T08:34:23Z</time>
      </trkpt>
      <trkpt lat="39.9755950" lon="-4.2208500">
        <ele>506.6</ele>
        <time>2019-08-13T08:34:24Z</time>
      </trkpt>
      <trkpt lat="39.9756270" lon="-4.2209010">
        <ele>506.6</ele>
        <time>2019-08-13T08:34:25Z</time>
      </trkpt>
      <trkpt lat="39.9756580" lon="-4.2209510">
        <ele>506.6</ele>
        <time>2019-08-13T08:34:26Z</time>
      </trkpt>
      <trkpt lat="39.9756910" lon="-4.2210010">
        <ele>506.6</ele>
        <time>2019-08-13T08:34:27Z</time>
      </trkpt>
      <trkpt lat="39.9757240" lon="-4.2210490">
        <ele>506.6</ele>
        <time>2019-08-13T08:34:28Z</time>
      </trkpt>
      <trkpt lat="39.9757550" lon="-4.2210990">
        <ele>506.5</ele>
        <time>2019-08-13T08:34:29Z</time>
      </trkpt>
      <trkpt lat="39.9757870" lon="-4.2211530">
        <ele>506.5</ele>
        <time>2019-08-13T08:34:30Z</time>
      </trkpt>
      <trkpt lat="39.9758180" lon="-4.2212070">
        <ele>506.4</ele>
        <time>2019-08-13T08:34:31Z</time>
      </trkpt>
      <trkpt lat="39.9758500" lon="-4.2212590">
        <ele>506.3</ele>
        <time>2019-08-13T08:34:32Z</time>
      </trkpt>
      <trkpt lat="39.9758840" lon="-4.2213110">
        <ele>506.2</ele>
        <time>2019-08-13T08:34:33Z</time>
      </trkpt>
      <trkpt lat="39.9759200" lon="-4.2213620">
        <ele>506.1</ele>
        <time>2019-08-13T08:34:34Z</time>
      </trkpt>
      <trkpt lat="39.9759540" lon="-4.2214140">
        <ele>505.9</ele>
        <time>2019-08-13T08:34:35Z</time>
      </trkpt>
      <trkpt lat="39.9759880" lon="-4.2214660">
        <ele>505.8</ele>
        <time>2019-08-13T08:34:36Z</time>
      </trkpt>
      <trkpt lat="39.9760230" lon="-4.2215180">
        <ele>505.7</ele>
        <time>2019-08-13T08:34:37Z</time>
      </trkpt>
      <trkpt lat="39.9760570" lon="-4.2215700">
        <ele>505.6</ele>
        <time>2019-08-13T08:34:38Z</time>
      </trkpt>
      <trkpt lat="39.9760890" lon="-4.2216230">
        <ele>505.5</ele>
        <time>2019-08-13T08:34:39Z</time>
      </trkpt>
      <trkpt lat="39.9761200" lon="-4.2216790">
        <ele>505.4</ele>
        <time>2019-08-13T08:34:40Z</time>
      </trkpt>
      <trkpt lat="39.9761510" lon="-4.2217360">
        <ele>505.3</ele>
        <time>2019-08-13T08:34:41Z</time>
      </trkpt>
      <trkpt lat="39.9761840" lon="-4.2217930">
        <ele>505.2</ele>
        <time>2019-08-13T08:34:42Z</time>
      </trkpt>
      <trkpt lat="39.9762180" lon="-4.2218490">
        <ele>505.2</ele>
        <time>2019-08-13T08:34:43Z</time>
      </trkpt>
      <trkpt lat="39.9762530" lon="-4.2219060">
        <ele>505.1</ele>
        <time>2019-08-13T08:34:44Z</time>
      </trkpt>
      <trkpt lat="39.9762880" lon="-4.2219640">
        <ele>505.1</ele>
        <time>2019-08-13T08:34:45Z</time>
      </trkpt>
      <trkpt lat="39.9763220" lon="-4.2220210">
        <ele>505.0</ele>
        <time>2019-08-13T08:34:46Z</time>
      </trkpt>
      <trkpt lat="39.9763580" lon="-4.2220810">
        <ele>505.0</ele>
        <time>2019-08-13T08:34:47Z</time>
      </trkpt>
      <trkpt lat="39.9763960" lon="-4.2221430">
        <ele>504.9</ele>
        <time>2019-08-13T08:34:48Z</time>
      </trkpt>
      <trkpt lat="39.9764360" lon="-4.2222060">
        <ele>504.7</ele>
        <time>2019-08-13T08:34:49Z</time>
      </trkpt>
      <trkpt lat="39.9764770" lon="-4.2222710">
        <ele>504.6</ele>
        <time>2019-08-13T08:34:50Z</time>
      </trkpt>
      <trkpt lat="39.9765170" lon="-4.2223380">
        <ele>504.5</ele>
        <time>2019-08-13T08:34:51Z</time>
      </trkpt>
      <trkpt lat="39.9765560" lon="-4.2224050">
        <ele>504.4</ele>
        <time>2019-08-13T08:34:52Z</time>
      </trkpt>
      <trkpt lat="39.9765940" lon="-4.2224730">
        <ele>504.3</ele>
        <time>2019-08-13T08:34:53Z</time>
      </trkpt>
      <trkpt lat="39.9766290" lon="-4.2225410">
        <ele>504.2</ele>
        <time>2019-08-13T08:34:54Z</time>
      </trkpt>
      <trkpt lat="39.9766630" lon="-4.2226100">
        <ele>504.2</ele>
        <time>2019-08-13T08:34:55Z</time>
      </trkpt>
      <trkpt lat="39.9766930" lon="-4.2226800">
        <ele>504.2</ele>
        <time>2019-08-13T08:34:56Z</time>
      </trkpt>
      <trkpt lat="39.9767240" lon="-4.2227490">
        <ele>504.2</ele>
        <time>2019-08-13T08:34:57Z</time>
      </trkpt>
      <trkpt lat="39.9767540" lon="-4.2228160">
        <ele>504.2</ele>
        <time>2019-08-13T08:34:58Z</time>
      </trkpt>
      <trkpt lat="39.9767840" lon="-4.2228800">
        <ele>504.1</ele>
        <time>2019-08-13T08:34:59Z</time>
      </trkpt>
      <trkpt lat="39.9768160" lon="-4.2229400">
        <ele>504.0</ele>
        <time>2019-08-13T08:35:00Z</time>
      </trkpt>
      <trkpt lat="39.9768490" lon="-4.2229970">
        <ele>503.8</ele>
        <time>2019-08-13T08:35:01Z</time>
      </trkpt>
      <trkpt lat="39.9768860" lon="-4.2230500">
        <ele>503.6</ele>
        <time>2019-08-13T08:35:02Z</time>
      </trkpt>
      <trkpt lat="39.9769260" lon="-4.2230960">
        <ele>503.7</ele>
        <time>2019-08-13T08:35:03Z</time>
      </trkpt>
      <trkpt lat="39.9769680" lon="-4.2231340">
        <ele>503.7</ele>
        <time>2019-08-13T08:35:04Z</time>
      </trkpt>
      <trkpt lat="39.9770100" lon="-4.2231650">
        <ele>503.7</ele>
        <time>2019-08-13T08:35:05Z</time>
      </trkpt>
      <trkpt lat="39.9770500" lon="-4.2231890">
        <ele>503.7</ele>
        <time>2019-08-13T08:35:06Z</time>
      </trkpt>
      <trkpt lat="39.9770890" lon="-4.2232090">
        <ele>503.7</ele>
        <time>2019-08-13T08:35:07Z</time>
      </trkpt>
      <trkpt lat="39.9771280" lon="-4.2232270">
        <ele>503.7</ele>
        <time>2019-08-13T08:35:08Z</time>
      </trkpt>
      <trkpt lat="39.9771660" lon="-4.2232450">
        <ele>503.8</ele>
        <time>2019-08-13T08:35:09Z</time>
      </trkpt>
      <trkpt lat="39.9772020" lon="-4.2232630">
        <ele>503.8</ele>
        <time>2019-08-13T08:35:10Z</time>
      </trkpt>
      <trkpt lat="39.9772370" lon="-4.2232820">
        <ele>503.9</ele>
        <time>2019-08-13T08:35:11Z</time>
      </trkpt>
      <trkpt lat="39.9772740" lon="-4.2233000">
        <ele>504.0</ele>
        <time>2019-08-13T08:35:12Z</time>
      </trkpt>
      <trkpt lat="39.9773110" lon="-4.2233180">
        <ele>504.1</ele>
        <time>2019-08-13T08:35:13Z</time>
      </trkpt>
      <trkpt lat="39.9773460" lon="-4.2233350">
        <ele>504.3</ele>
        <time>2019-08-13T08:35:14Z</time>
      </trkpt>
      <trkpt lat="39.9773810" lon="-4.2233490">
        <ele>504.4</ele>
        <time>2019-08-13T08:35:15Z</time>
      </trkpt>
      <trkpt lat="39.9774170" lon="-4.2233640">
        <ele>504.6</ele>
        <time>2019-08-13T08:35:16Z</time>
      </trkpt>
      <trkpt lat="39.9774510" lon="-4.2233790">
        <ele>504.8</ele>
        <time>2019-08-13T08:35:17Z</time>
      </trkpt>
      <trkpt lat="39.9774850" lon="-4.2233950">
        <ele>505.0</ele>
        <time>2019-08-13T08:35:18Z</time>
      </trkpt>
      <trkpt lat="39.9775170" lon="-4.2234100">
        <ele>505.2</ele>
        <time>2019-08-13T08:35:19Z</time>
      </trkpt>
      <trkpt lat="39.9775490" lon="-4.2234270">
        <ele>505.4</ele>
        <time>2019-08-13T08:35:20Z</time>
      </trkpt>
      <trkpt lat="39.9775810" lon="-4.2234440">
        <ele>505.6</ele>
        <time>2019-08-13T08:35:21Z</time>
      </trkpt>
      <trkpt lat="39.9776120" lon="-4.2234630">
        <ele>505.7</ele>
        <time>2019-08-13T08:35:22Z</time>
      </trkpt>
      <trkpt lat="39.9776450" lon="-4.2234840">
        <ele>505.9</ele>
        <time>2019-08-13T08:35:23Z</time>
      </trkpt>
      <trkpt lat="39.9776780" lon="-4.2235050">
        <ele>506.1</ele>
        <time>2019-08-13T08:35:24Z</time>
      </trkpt>
      <trkpt lat="39.9777120" lon="-4.2235230">
        <ele>506.3</ele>
        <time>2019-08-13T08:35:25Z</time>
      </trkpt>
      <trkpt lat="39.9777480" lon="-4.2235400">
        <ele>506.5</ele>
        <time>2019-08-13T08:35:26Z</time>
      </trkpt>
      <trkpt lat="39.9777850" lon="-4.2235560">
        <ele>506.7</ele>
        <time>2019-08-13T08:35:27Z</time>
      </trkpt>
      <trkpt lat="39.9778210" lon="-4.2235740">
        <ele>506.9</ele>
        <time>2019-08-13T08:35:28Z</time>
      </trkpt>
      <trkpt lat="39.9778580" lon="-4.2235920">
        <ele>507.2</ele>
        <time>2019-08-13T08:35:29Z</time>
      </trkpt>
      <trkpt lat="39.9778950" lon="-4.2236120">
        <ele>507.4</ele>
        <time>2019-08-13T08:35:30Z</time>
      </trkpt>
      <trkpt lat="39.9779330" lon="-4.2236290">
        <ele>507.6</ele>
        <time>2019-08-13T08:35:31Z</time>
      </trkpt>
      <trkpt lat="39.9779700" lon="-4.2236470">
        <ele>507.8</ele>
        <time>2019-08-13T08:35:32Z</time>
      </trkpt>
      <trkpt lat="39.9780070" lon="-4.2236670">
        <ele>508.0</ele>
        <time>2019-08-13T08:35:33Z</time>
      </trkpt>
      <trkpt lat="39.9780420" lon="-4.2236870">
        <ele>508.2</ele>
        <time>2019-08-13T08:35:34Z</time>
      </trkpt>
      <trkpt lat="39.9780770" lon="-4.2237060">
        <ele>508.4</ele>
        <time>2019-08-13T08:35:35Z</time>
      </trkpt>
      <trkpt lat="39.9781130" lon="-4.2237270">
        <ele>508.5</ele>
        <time>2019-08-13T08:35:36Z</time>
      </trkpt>
      <trkpt lat="39.9781490" lon="-4.2237470">
        <ele>508.6</ele>
        <time>2019-08-13T08:35:37Z</time>
      </trkpt>
      <trkpt lat="39.9781840" lon="-4.2237680">
        <ele>508.7</ele>
        <time>2019-08-13T08:35:38Z</time>
      </trkpt>
      <trkpt lat="39.9782190" lon="-4.2237910">
        <ele>508.8</ele>
        <time>2019-08-13T08:35:39Z</time>
      </trkpt>
      <trkpt lat="39.9782530" lon="-4.2238150">
        <ele>508.8</ele>
        <time>2019-08-13T08:35:40Z</time>
      </trkpt>
      <trkpt lat="39.9782880" lon="-4.2238370">
        <ele>508.9</ele>
        <time>2019-08-13T08:35:41Z</time>
      </trkpt>
      <trkpt lat="39.9783230" lon="-4.2238580">
        <ele>509.0</ele>
        <time>2019-08-13T08:35:42Z</time>
      </trkpt>
      <trkpt lat="39.9783580" lon="-4.2238800">
        <ele>509.0</ele>
        <time>2019-08-13T08:35:43Z</time>
      </trkpt>
      <trkpt lat="39.9783920" lon="-4.2239010">
        <ele>509.1</ele>
        <time>2019-08-13T08:35:44Z</time>
      </trkpt>
      <trkpt lat="39.9784250" lon="-4.2239240">
        <ele>509.2</ele>
        <time>2019-08-13T08:35:45Z</time>
      </trkpt>
      <trkpt lat="39.9784590" lon="-4.2239480">
        <ele>509.3</ele>
        <time>2019-08-13T08:35:46Z</time>
      </trkpt>
      <trkpt lat="39.9784930" lon="-4.2239710">
        <ele>509.5</ele>
        <time>2019-08-13T08:35:47Z</time>
      </trkpt>
      <trkpt lat="39.9785270" lon="-4.2239950">
        <ele>509.7</ele>
        <time>2019-08-13T08:35:48Z</time>
      </trkpt>
      <trkpt lat="39.9785590" lon="-4.2240160">
        <ele>509.9</ele>
        <time>2019-08-13T08:35:49Z</time>
      </trkpt>
      <trkpt lat="39.9785920" lon="-4.2240370">
        <ele>510.2</ele>
        <time>2019-08-13T08:35:50Z</time>
      </trkpt>
      <trkpt lat="39.9786260" lon="-4.2240590">
        <ele>510.5</ele>
        <time>2019-08-13T08:35:51Z</time>
      </trkpt>
      <trkpt lat="39.9786600" lon="-4.2240790">
        <ele>510.8</ele>
        <time>2019-08-13T08:35:52Z</time>
      </trkpt>
      <trkpt lat="39.9786950" lon="-4.2240990">
        <ele>511.1</ele>
        <time>2019-08-13T08:35:53Z</time>
      </trkpt>
      <trkpt lat="39.9787300" lon="-4.2241200">
        <ele>511.4</ele>
        <time>2019-08-13T08:35:54Z</time>
      </trkpt>
      <trkpt lat="39.9787670" lon="-4.2241410">
        <ele>511.7</ele>
        <time>2019-08-13T08:35:55Z</time>
      </trkpt>
      <trkpt lat="39.9788050" lon="-4.2241610">
        <ele>512.0</ele>
        <time>2019-08-13T08:35:56Z</time>
      </trkpt>
      <trkpt lat="39.9788430" lon="-4.2241820">
        <ele>512.3</ele>
        <time>2019-08-13T08:35:57Z</time>
      </trkpt>
      <trkpt lat="39.9788830" lon="-4.2242020">
        <ele>512.6</ele>
        <time>2019-08-13T08:35:58Z</time>
      </trkpt>
      <trkpt lat="39.9789230" lon="-4.2242210">
        <ele>512.8</ele>
        <time>2019-08-13T08:35:59Z</time>
      </trkpt>
      <trkpt lat="39.9789630" lon="-4.2242410">
        <ele>513.0</ele>
        <time>2019-08-13T08:36:00Z</time>
      </trkpt>
      <trkpt lat="39.9790030" lon="-4.2242620">
        <ele>513.3</ele>
        <time>2019-08-13T08:36:01Z</time>
      </trkpt>
      <trkpt lat="39.9790420" lon="-4.2242840">
        <ele>513.4</ele>
        <time>2019-08-13T08:36:02Z</time>
      </trkpt>
      <trkpt lat="39.9790790" lon="-4.2243070">
        <ele>513.6</ele>
        <time>2019-08-13T08:36:03Z</time>
      </trkpt>
      <trkpt lat="39.9791160" lon="-4.2243300">
        <ele>513.7</ele>
        <time>2019-08-13T08:36:04Z</time>
      </trkpt>
      <trkpt lat="39.9791520" lon="-4.2243540">
        <ele>513.8</ele>
        <time>2019-08-13T08:36:05Z</time>
      </trkpt>
      <trkpt lat="39.9791890" lon="-4.2243800">
        <ele>513.9</ele>
        <time>2019-08-13T08:36:06Z</time>
      </trkpt>
      <trkpt lat="39.9792270" lon="-4.2244060">
        <ele>514.0</ele>
        <time>2019-08-13T08:36:07Z</time>
      </trkpt>
      <trkpt lat="39.9792660" lon="-4.2244360">
        <ele>514.0</ele>
        <time>2019-08-13T08:36:08Z</time>
      </trkpt>
      <trkpt lat="39.9793070" lon="-4.2244680">
        <ele>514.1</ele>
        <time>2019-08-13T08:36:09Z</time>
      </trkpt>
      <trkpt lat="39.9793530" lon="-4.2245070">
        <ele>514.1</ele>
        <time>2019-08-13T08:36:10Z</time>
      </trkpt>
      <trkpt lat="39.9794040" lon="-4.2245500">
        <ele>514.1</ele>
        <time>2019-08-13T08:36:11Z</time>
      </trkpt>
      <trkpt lat="39.9794570" lon="-4.2245940">
        <ele>514.0</ele>
        <time>2019-08-13T08:36:12Z</time>
      </trkpt>
      <trkpt lat="39.9795120" lon="-4.2246420">
        <ele>513.9</ele>
        <time>2019-08-13T08:36:13Z</time>
      </trkpt>
      <trkpt lat="39.9795640" lon="-4.2246940">
        <ele>513.7</ele>
        <time>2019-08-13T08:36:14Z</time>
      </trkpt>
      <trkpt lat="39.9796120" lon="-4.2247540">
        <ele>513.3</ele>
        <time>2019-08-13T08:36:15Z</time>
      </trkpt>
      <trkpt lat="39.9796500" lon="-4.2248210">
        <ele>512.7</ele>
        <time>2019-08-13T08:36:16Z</time>
      </trkpt>
      <trkpt lat="39.9796790" lon="-4.2248950">
        <ele>511.6</ele>
        <time>2019-08-13T08:36:17Z</time>
      </trkpt>
      <trkpt lat="39.9797010" lon="-4.2249690">
        <ele>510.4</ele>
        <time>2019-08-13T08:36:18Z</time>
      </trkpt>
      <trkpt lat="39.9797230" lon="-4.2250420">
        <ele>509.2</ele>
        <time>2019-08-13T08:36:19Z</time>
      </trkpt>
      <trkpt lat="39.9797440" lon="-4.2251100">
        <ele>508.9</ele>
        <time>2019-08-13T08:36:20Z</time>
      </trkpt>
      <trkpt lat="39.9797690" lon="-4.2251710">
        <ele>508.7</ele>
        <time>2019-08-13T08:36:21Z</time>
      </trkpt>
      <trkpt lat="39.9797960" lon="-4.2252260">
        <ele>508.5</ele>
        <time>2019-08-13T08:36:22Z</time>
      </trkpt>
      <trkpt lat="39.9798220" lon="-4.2252760">
        <ele>508.3</ele>
        <time>2019-08-13T08:36:23Z</time>
      </trkpt>
      <trkpt lat="39.9798500" lon="-4.2253220">
        <ele>508.2</ele>
        <time>2019-08-13T08:36:24Z</time>
      </trkpt>
      <trkpt lat="39.9798770" lon="-4.2253610">
        <ele>508.1</ele>
        <time>2019-08-13T08:36:25Z</time>
      </trkpt>
      <trkpt lat="39.9799050" lon="-4.2253990">
        <ele>508.0</ele>
        <time>2019-08-13T08:36:26Z</time>
      </trkpt>
      <trkpt lat="39.9799330" lon="-4.2254350">
        <ele>508.0</ele>
        <time>2019-08-13T08:36:27Z</time>
      </trkpt>
      <trkpt lat="39.9799600" lon="-4.2254740">
        <ele>508.0</ele>
        <time>2019-08-13T08:36:28Z</time>
      </trkpt>
      <trkpt lat="39.9799870" lon="-4.2255160">
        <ele>507.9</ele>
        <time>2019-08-13T08:36:29Z</time>
      </trkpt>
      <trkpt lat="39.9800140" lon="-4.2255600">
        <ele>507.9</ele>
        <time>2019-08-13T08:36:30Z</time>
      </trkpt>
      <trkpt lat="39.9800420" lon="-4.2256060">
        <ele>507.9</ele>
        <time>2019-08-13T08:36:31Z</time>
      </trkpt>
      <trkpt lat="39.9800720" lon="-4.2256530">
        <ele>507.9</ele>
        <time>2019-08-13T08:36:32Z</time>
      </trkpt>
      <trkpt lat="39.9801020" lon="-4.2257010">
        <ele>507.9</ele>
        <time>2019-08-13T08:36:33Z</time>
      </trkpt>
      <trkpt lat="39.9801320" lon="-4.2257510">
        <ele>507.9</ele>
        <time>2019-08-13T08:36:34Z</time>
      </trkpt>
      <trkpt lat="39.9801620" lon="-4.2258040">
        <ele>507.9</ele>
        <time>2019-08-13T08:36:35Z</time>
      </trkpt>
      <trkpt lat="39.9801930" lon="-4.2258590">
        <ele>507.8</ele>
        <time>2019-08-13T08:36:36Z</time>
      </trkpt>
      <trkpt lat="39.9802260" lon="-4.2259170">
        <ele>507.8</ele>
        <time>2019-08-13T08:36:37Z</time>
      </trkpt>
      <trkpt lat="39.9802600" lon="-4.2259780">
        <ele>507.8</ele>
        <time>2019-08-13T08:36:38Z</time>
      </trkpt>
      <trkpt lat="39.9802970" lon="-4.2260380">
        <ele>507.7</ele>
        <time>2019-08-13T08:36:39Z</time>
      </trkpt>
      <trkpt lat="39.9803370" lon="-4.2260960">
        <ele>507.6</ele>
        <time>2019-08-13T08:36:40Z</time>
      </trkpt>
      <trkpt lat="39.9803790" lon="-4.2261540">
        <ele>507.4</ele>
        <time>2019-08-13T08:36:41Z</time>
      </trkpt>
      <trkpt lat="39.9804250" lon="-4.2262130">
        <ele>507.3</ele>
        <time>2019-08-13T08:36:42Z</time>
      </trkpt>
      <trkpt lat="39.9804740" lon="-4.2262710">
        <ele>507.1</ele>
        <time>2019-08-13T08:36:43Z</time>
      </trkpt>
      <trkpt lat="39.9805230" lon="-4.2263320">
        <ele>506.8</ele>
        <time>2019-08-13T08:36:44Z</time>
      </trkpt>
      <trkpt lat="39.9805720" lon="-4.2263960">
        <ele>506.6</ele>
        <time>2019-08-13T08:36:45Z</time>
      </trkpt>
      <trkpt lat="39.9806200" lon="-4.2264620">
        <ele>506.3</ele>
        <time>2019-08-13T08:36:46Z</time>
      </trkpt>
      <trkpt lat="39.9806680" lon="-4.2265270">
        <ele>506.0</ele>
        <time>2019-08-13T08:36:47Z</time>
      </trkpt>
      <trkpt lat="39.9807170" lon="-4.2265930">
        <ele>505.7</ele>
        <time>2019-08-13T08:36:48Z</time>
      </trkpt>
      <trkpt lat="39.9807640" lon="-4.2266570">
        <ele>505.4</ele>
        <time>2019-08-13T08:36:49Z</time>
      </trkpt>
      <trkpt lat="39.9808100" lon="-4.2267200">
        <ele>505.1</ele>
        <time>2019-08-13T08:36:50Z</time>
      </trkpt>
      <trkpt lat="39.9808540" lon="-4.2267850">
        <ele>504.8</ele>
        <time>2019-08-13T08:36:51Z</time>
      </trkpt>
      <trkpt lat="39.9808920" lon="-4.2268500">
        <ele>504.5</ele>
        <time>2019-08-13T08:36:52Z</time>
      </trkpt>
      <trkpt lat="39.9809240" lon="-4.2269170">
        <ele>504.0</ele>
        <time>2019-08-13T08:36:53Z</time>
      </trkpt>
      <trkpt lat="39.9809480" lon="-4.2269880">
        <ele>504.0</ele>
        <time>2019-08-13T08:36:54Z</time>
      </trkpt>
      <trkpt lat="39.9809670" lon="-4.2270600">
        <ele>504.1</ele>
        <time>2019-08-13T08:36:55Z</time>
      </trkpt>
      <trkpt lat="39.9809770" lon="-4.2271320">
        <ele>504.2</ele>
        <time>2019-08-13T08:36:56Z</time>
      </trkpt>
      <trkpt lat="39.9809810" lon="-4.2272040">
        <ele>504.3</ele>
        <time>2019-08-13T08:36:57Z</time>
      </trkpt>
      <trkpt lat="39.9809830" lon="-4.2272730">
        <ele>504.4</ele>
        <time>2019-08-13T08:36:58Z</time>
      </trkpt>
      <trkpt lat="39.9809830" lon="-4.2273420">
        <ele>504.5</ele>
        <time>2019-08-13T08:36:59Z</time>
      </trkpt>
      <trkpt lat="39.9809800" lon="-4.2274080">
        <ele>504.6</ele>
        <time>2019-08-13T08:37:00Z</time>
      </trkpt>
      <trkpt lat="39.9809730" lon="-4.2274740">
        <ele>504.8</ele>
        <time>2019-08-13T08:37:01Z</time>
      </trkpt>
      <trkpt lat="39.9809640" lon="-4.2275410">
        <ele>504.9</ele>
        <time>2019-08-13T08:37:02Z</time>
      </trkpt>
      <trkpt lat="39.9809560" lon="-4.2276080">
        <ele>505.0</ele>
        <time>2019-08-13T08:37:03Z</time>
      </trkpt>
      <trkpt lat="39.9809460" lon="-4.2276750">
        <ele>505.2</ele>
        <time>2019-08-13T08:37:04Z</time>
      </trkpt>
      <trkpt lat="39.9809370" lon="-4.2277430">
        <ele>505.3</ele>
        <time>2019-08-13T08:37:05Z</time>
      </trkpt>
      <trkpt lat="39.9809280" lon="-4.2278110">
        <ele>505.4</ele>
        <time>2019-08-13T08:37:06Z</time>
      </trkpt>
      <trkpt lat="39.9809220" lon="-4.2278790">
        <ele>505.6</ele>
        <time>2019-08-13T08:37:07Z</time>
      </trkpt>
      <trkpt lat="39.9809180" lon="-4.2279460">
        <ele>505.7</ele>
        <time>2019-08-13T08:37:08Z</time>
      </trkpt>
      <trkpt lat="39.9809150" lon="-4.2280130">
        <ele>505.8</ele>
        <time>2019-08-13T08:37:09Z</time>
      </trkpt>
      <trkpt lat="39.9809180" lon="-4.2280800">
        <ele>505.9</ele>
        <time>2019-08-13T08:37:10Z</time>
      </trkpt>
      <trkpt lat="39.9809280" lon="-4.2281490">
        <ele>506.1</ele>
        <time>2019-08-13T08:37:11Z</time>
      </trkpt>
      <trkpt lat="39.9809390" lon="-4.2282170">
        <ele>506.3</ele>
        <time>2019-08-13T08:37:12Z</time>
      </trkpt>
      <trkpt lat="39.9809540" lon="-4.2282830">
        <ele>506.4</ele>
        <time>2019-08-13T08:37:13Z</time>
      </trkpt>
      <trkpt lat="39.9809730" lon="-4.2283450">
        <ele>506.6</ele>
        <time>2019-08-13T08:37:14Z</time>
      </trkpt>
      <trkpt lat="39.9809940" lon="-4.2284080">
        <ele>506.7</ele>
        <time>2019-08-13T08:37:15Z</time>
      </trkpt>
      <trkpt lat="39.9810170" lon="-4.2284690">
        <ele>506.8</ele>
        <time>2019-08-13T08:37:16Z</time>
      </trkpt>
      <trkpt lat="39.9810420" lon="-4.2285290">
        <ele>507.0</ele>
        <time>2019-08-13T08:37:17Z</time>
      </trkpt>
      <trkpt lat="39.9810680" lon="-4.2285900">
        <ele>507.1</ele>
        <time>2019-08-13T08:37:18Z</time>
      </trkpt>
      <trkpt lat="39.9810960" lon="-4.2286480">
        <ele>507.3</ele>
        <time>2019-08-13T08:37:19Z</time>
      </trkpt>
      <trkpt lat="39.9811250" lon="-4.2287050">
        <ele>507.4</ele>
        <time>2019-08-13T08:37:20Z</time>
      </trkpt>
      <trkpt lat="39.9811520" lon="-4.2287640">
        <ele>507.6</ele>
        <time>2019-08-13T08:37:21Z</time>
      </trkpt>
      <trkpt lat="39.9811820" lon="-4.2288180">
        <ele>507.7</ele>
        <time>2019-08-13T08:37:22Z</time>
      </trkpt>
      <trkpt lat="39.9812120" lon="-4.2288740">
        <ele>507.9</ele>
        <time>2019-08-13T08:37:23Z</time>
      </trkpt>
      <trkpt lat="39.9812420" lon="-4.2289300">
        <ele>508.0</ele>
        <time>2019-08-13T08:37:24Z</time>
      </trkpt>
      <trkpt lat="39.9812710" lon="-4.2289860">
        <ele>508.1</ele>
        <time>2019-08-13T08:37:25Z</time>
      </trkpt>
      <trkpt lat="39.9813000" lon="-4.2290400">
        <ele>508.2</ele>
        <time>2019-08-13T08:37:26Z</time>
      </trkpt>
      <trkpt lat="39.9813300" lon="-4.2290940">
        <ele>508.4</ele>
        <time>2019-08-13T08:37:27Z</time>
      </trkpt>
      <trkpt lat="39.9813600" lon="-4.2291470">
        <ele>508.5</ele>
        <time>2019-08-13T08:37:28Z</time>
      </trkpt>
      <trkpt lat="39.9813890" lon="-4.2291990">
        <ele>508.6</ele>
        <time>2019-08-13T08:37:29Z</time>
      </trkpt>
      <trkpt lat="39.9814190" lon="-4.2292500">
        <ele>508.7</ele>
        <time>2019-08-13T08:37:30Z</time>
      </trkpt>
      <trkpt lat="39.9814500" lon="-4.2293010">
        <ele>508.9</ele>
        <time>2019-08-13T08:37:31Z</time>
      </trkpt>
      <trkpt lat="39.9814810" lon="-4.2293530">
        <ele>509.0</ele>
        <time>2019-08-13T08:37:32Z</time>
      </trkpt>
      <trkpt lat="39.9815120" lon="-4.2294050">
        <ele>509.2</ele>
        <time>2019-08-13T08:37:33Z</time>
      </trkpt>
      <trkpt lat="39.9815450" lon="-4.2294540">
        <ele>509.3</ele>
        <time>2019-08-13T08:37:34Z</time>
      </trkpt>
      <trkpt lat="39.9815760" lon="-4.2295030">
        <ele>509.5</ele>
        <time>2019-08-13T08:37:35Z</time>
      </trkpt>
      <trkpt lat="39.9816040" lon="-4.2295540">
        <ele>509.7</ele>
        <time>2019-08-13T08:37:36Z</time>
      </trkpt>
      <trkpt lat="39.9816350" lon="-4.2296050">
        <ele>509.8</ele>
        <time>2019-08-13T08:37:37Z</time>
      </trkpt>
      <trkpt lat="39.9816670" lon="-4.2296550">
        <ele>510.0</ele>
        <time>2019-08-13T08:37:38Z</time>
      </trkpt>
      <trkpt lat="39.9816990" lon="-4.2297050">
        <ele>510.1</ele>
        <time>2019-08-13T08:37:39Z</time>
      </trkpt>
      <trkpt lat="39.9817330" lon="-4.2297540">
        <ele>510.3</ele>
        <time>2019-08-13T08:37:40Z</time>
      </trkpt>
      <trkpt lat="39.9817660" lon="-4.2298020">
        <ele>510.4</ele>
        <time>2019-08-13T08:37:41Z</time>
      </trkpt>
      <trkpt lat="39.9818010" lon="-4.2298480">
        <ele>510.5</ele>
        <time>2019-08-13T08:37:42Z</time>
      </trkpt>
      <trkpt lat="39.9818350" lon="-4.2298970">
        <ele>510.7</ele>
        <time>2019-08-13T08:37:43Z</time>
      </trkpt>
      <trkpt lat="39.9818700" lon="-4.2299470">
        <ele>510.8</ele>
        <time>2019-08-13T08:37:44Z</time>
      </trkpt>
      <trkpt lat="39.9819050" lon="-4.2299970">
        <ele>511.0</ele>
        <time>2019-08-13T08:37:45Z</time>
      </trkpt>
      <trkpt lat="39.9819390" lon="-4.2300480">
        <ele>511.1</ele>
        <time>2019-08-13T08:37:46Z</time>
      </trkpt>
      <trkpt lat="39.9819710" lon="-4.2301020">
        <ele>511.3</ele>
        <time>2019-08-13T08:37:47Z</time>
      </trkpt>
      <trkpt lat="39.9820050" lon="-4.2301550">
        <ele>511.5</ele>
        <time>2019-08-13T08:37:48Z</time>
      </trkpt>
      <trkpt lat="39.9820390" lon="-4.2302060">
        <ele>511.7</ele>
        <time>2019-08-13T08:37:49Z</time>
      </trkpt>
      <trkpt lat="39.9820740" lon="-4.2302560">
        <ele>511.8</ele>
        <time>2019-08-13T08:37:50Z</time>
      </trkpt>
      <trkpt lat="39.9821080" lon="-4.2303080">
        <ele>512.0</ele>
        <time>2019-08-13T08:37:51Z</time>
      </trkpt>
      <trkpt lat="39.9821420" lon="-4.2303580">
        <ele>512.2</ele>
        <time>2019-08-13T08:37:52Z</time>
      </trkpt>
      <trkpt lat="39.9821740" lon="-4.2304060">
        <ele>512.4</ele>
        <time>2019-08-13T08:37:53Z</time>
      </trkpt>
      <trkpt lat="39.9822060" lon="-4.2304500">
        <ele>512.7</ele>
        <time>2019-08-13T08:37:54Z</time>
      </trkpt>
      <trkpt lat="39.9822370" lon="-4.2304940">
        <ele>512.9</ele>
        <time>2019-08-13T08:37:55Z</time>
      </trkpt>
      <trkpt lat="39.9822670" lon="-4.2305390">
        <ele>513.2</ele>
        <time>2019-08-13T08:37:56Z</time>
      </trkpt>
      <trkpt lat="39.9822990" lon="-4.2305830">
        <ele>513.5</ele>
        <time>2019-08-13T08:37:57Z</time>
      </trkpt>
      <trkpt lat="39.9823290" lon="-4.2306280">
        <ele>513.8</ele>
        <time>2019-08-13T08:37:58Z</time>
      </trkpt>
      <trkpt lat="39.9823590" lon="-4.2306710">
        <ele>514.1</ele>
        <time>2019-08-13T08:37:59Z</time>
      </trkpt>
      <trkpt lat="39.9823880" lon="-4.2307130">
        <ele>514.3</ele>
        <time>2019-08-13T08:38:00Z</time>
      </trkpt>
      <trkpt lat="39.9824180" lon="-4.2307540">
        <ele>514.6</ele>
        <time>2019-08-13T08:38:01Z</time>
      </trkpt>
      <trkpt lat="39.9824500" lon="-4.2307960">
        <ele>514.8</ele>
        <time>2019-08-13T08:38:02Z</time>
      </trkpt>
      <trkpt lat="39.9824800" lon="-4.2308380">
        <ele>515.0</ele>
        <time>2019-08-13T08:38:03Z</time>
      </trkpt>
      <trkpt lat="39.9825100" lon="-4.2308800">
        <ele>515.2</ele>
        <time>2019-08-13T08:38:04Z</time>
      </trkpt>
      <trkpt lat="39.9825390" lon="-4.2309210">
        <ele>515.4</ele>
        <time>2019-08-13T08:38:05Z</time>
      </trkpt>
      <trkpt lat="39.9825690" lon="-4.2309630">
        <ele>515.6</ele>
        <time>2019-08-13T08:38:06Z</time>
      </trkpt>
      <trkpt lat="39.9825990" lon="-4.2310030">
        <ele>515.7</ele>
        <time>2019-08-13T08:38:07Z</time>
      </trkpt>
      <trkpt lat="39.9826280" lon="-4.2310450">
        <ele>515.9</ele>
        <time>2019-08-13T08:38:08Z</time>
      </trkpt>
      <trkpt lat="39.9826570" lon="-4.2310860">
        <ele>516.1</ele>
        <time>2019-08-13T08:38:09Z</time>
      </trkpt>
      <trkpt lat="39.9826860" lon="-4.2311260">
        <ele>516.2</ele>
        <time>2019-08-13T08:38:10Z</time>
      </trkpt>
      <trkpt lat="39.9827140" lon="-4.2311670">
        <ele>516.4</ele>
        <time>2019-08-13T08:38:11Z</time>
      </trkpt>
      <trkpt lat="39.9827410" lon="-4.2312070">
        <ele>516.6</ele>
        <time>2019-08-13T08:38:12Z</time>
      </trkpt>
      <trkpt lat="39.9827670" lon="-4.2312440">
        <ele>516.7</ele>
        <time>2019-08-13T08:38:13Z</time>
      </trkpt>
      <trkpt lat="39.9827930" lon="-4.2312800">
        <ele>516.8</ele>
        <time>2019-08-13T08:38:14Z</time>
      </trkpt>
      <trkpt lat="39.9828170" lon="-4.2313150">
        <ele>516.9</ele>
        <time>2019-08-13T08:38:15Z</time>
      </trkpt>
      <trkpt lat="39.9828410" lon="-4.2313520">
        <ele>517.0</ele>
        <time>2019-08-13T08:38:16Z</time>
      </trkpt>
      <trkpt lat="39.9828630" lon="-4.2313910">
        <ele>517.2</ele>
        <time>2019-08-13T08:38:17Z</time>
      </trkpt>
      <trkpt lat="39.9828860" lon="-4.2314310">
        <ele>517.3</ele>
        <time>2019-08-13T08:38:18Z</time>
      </trkpt>
      <trkpt lat="39.9829090" lon="-4.2314670">
        <ele>517.5</ele>
        <time>2019-08-13T08:38:19Z</time>
      </trkpt>
      <trkpt lat="39.9829350" lon="-4.2315030">
        <ele>517.6</ele>
        <time>2019-08-13T08:38:20Z</time>
      </trkpt>
      <trkpt lat="39.9829640" lon="-4.2315330">
        <ele>517.6</ele>
        <time>2019-08-13T08:38:21Z</time>
      </trkpt>
      <trkpt lat="39.9829940" lon="-4.2315580">
        <ele>517.7</ele>
        <time>2019-08-13T08:38:22Z</time>
      </trkpt>
      <trkpt lat="39.9830240" lon="-4.2315820">
        <ele>517.7</ele>
        <time>2019-08-13T08:38:23Z</time>
      </trkpt>
      <trkpt lat="39.9830550" lon="-4.2316060">
        <ele>517.7</ele>
        <time>2019-08-13T08:38:24Z</time>
      </trkpt>
      <trkpt lat="39.9830850" lon="-4.2316300">
        <ele>517.7</ele>
        <time>2019-08-13T08:38:25Z</time>
      </trkpt>
      <trkpt lat="39.9831180" lon="-4.2316540">
        <ele>517.6</ele>
        <time>2019-08-13T08:38:26Z</time>
      </trkpt>
      <trkpt lat="39.9831520" lon="-4.2316770">
        <ele>517.5</ele>
        <time>2019-08-13T08:38:27Z</time>
      </trkpt>
      <trkpt lat="39.9831880" lon="-4.2316980">
        <ele>517.4</ele>
        <time>2019-08-13T08:38:28Z</time>
      </trkpt>
      <trkpt lat="39.9832250" lon="-4.2317180">
        <ele>517.3</ele>
        <time>2019-08-13T08:38:29Z</time>
      </trkpt>
      <trkpt lat="39.9832610" lon="-4.2317390">
        <ele>517.2</ele>
        <time>2019-08-13T08:38:30Z</time>
      </trkpt>
      <trkpt lat="39.9832980" lon="-4.2317590">
        <ele>517.2</ele>
        <time>2019-08-13T08:38:31Z</time>
      </trkpt>
      <trkpt lat="39.9833360" lon="-4.2317780">
        <ele>517.1</ele>
        <time>2019-08-13T08:38:32Z</time>
      </trkpt>
      <trkpt lat="39.9833730" lon="-4.2317960">
        <ele>517.0</ele>
        <time>2019-08-13T08:38:33Z</time>
      </trkpt>
      <trkpt lat="39.9834110" lon="-4.2318160">
        <ele>516.9</ele>
        <time>2019-08-13T08:38:34Z</time>
      </trkpt>
      <trkpt lat="39.9834460" lon="-4.2318390">
        <ele>516.8</ele>
        <time>2019-08-13T08:38:35Z</time>
      </trkpt>
      <trkpt lat="39.9834800" lon="-4.2318610">
        <ele>516.8</ele>
        <time>2019-08-13T08:38:36Z</time>
      </trkpt>
      <trkpt lat="39.9835120" lon="-4.2318780">
        <ele>516.7</ele>
        <time>2019-08-13T08:38:37Z</time>
      </trkpt>
      <trkpt lat="39.9835430" lon="-4.2318860">
        <ele>516.6</ele>
        <time>2019-08-13T08:38:38Z</time>
      </trkpt>
      <trkpt lat="39.9835740" lon="-4.2318840">
        <ele>516.0</ele>
        <time>2019-08-13T08:38:39Z</time>
      </trkpt>
      <trkpt lat="39.9836030" lon="-4.2318720">
        <ele>515.6</ele>
        <time>2019-08-13T08:38:40Z</time>
      </trkpt>
      <trkpt lat="39.9836330" lon="-4.2318530">
        <ele>515.3</ele>
        <time>2019-08-13T08:38:41Z</time>
      </trkpt>
      <trkpt lat="39.9836620" lon="-4.2318320">
        <ele>515.0</ele>
        <time>2019-08-13T08:38:42Z</time>
      </trkpt>
      <trkpt lat="39.9836920" lon="-4.2318100">
        <ele>514.8</ele>
        <time>2019-08-13T08:38:43Z</time>
      </trkpt>
      <trkpt lat="39.9837250" lon="-4.2317880">
        <ele>514.5</ele>
        <time>2019-08-13T08:38:44Z</time>
      </trkpt>
      <trkpt lat="39.9837590" lon="-4.2317680">
        <ele>514.2</ele>
        <time>2019-08-13T08:38:45Z</time>
      </trkpt>
      <trkpt lat="39.9837980" lon="-4.2317480">
        <ele>513.9</ele>
        <time>2019-08-13T08:38:46Z</time>
      </trkpt>
      <trkpt lat="39.9838410" lon="-4.2317300">
        <ele>513.4</ele>
        <time>2019-08-13T08:38:47Z</time>
      </trkpt>
      <trkpt lat="39.9838860" lon="-4.2317140">
        <ele>513.1</ele>
        <time>2019-08-13T08:38:48Z</time>
      </trkpt>
      <trkpt lat="39.9839330" lon="-4.2316970">
        <ele>512.9</ele>
        <time>2019-08-13T08:38:49Z</time>
      </trkpt>
      <trkpt lat="39.9839800" lon="-4.2316800">
        <ele>512.6</ele>
        <time>2019-08-13T08:38:50Z</time>
      </trkpt>
      <trkpt lat="39.9840280" lon="-4.2316660">
        <ele>512.5</ele>
        <time>2019-08-13T08:38:51Z</time>
      </trkpt>
      <trkpt lat="39.9840770" lon="-4.2316520">
        <ele>512.3</ele>
        <time>2019-08-13T08:38:52Z</time>
      </trkpt>
      <trkpt lat="39.9841280" lon="-4.2316390">
        <ele>512.2</ele>
        <time>2019-08-13T08:38:53Z</time>
      </trkpt>
      <trkpt lat="39.9841780" lon="-4.2316280">
        <ele>512.0</ele>
        <time>2019-08-13T08:38:54Z</time>
      </trkpt>
      <trkpt lat="39.9842310" lon="-4.2316200">
        <ele>511.9</ele>
        <time>2019-08-13T08:38:55Z</time>
      </trkpt>
      <trkpt lat="39.9842860" lon="-4.2316130">
        <ele>511.7</ele>
        <time>2019-08-13T08:38:56Z</time>
      </trkpt>
      <trkpt lat="39.9843430" lon="-4.2316040">
        <ele>511.5</ele>
        <time>2019-08-13T08:38:57Z</time>
      </trkpt>
      <trkpt lat="39.9843990" lon="-4.2315960">
        <ele>511.4</ele>
        <time>2019-08-13T08:38:58Z</time>
      </trkpt>
      <trkpt lat="39.9844550" lon="-4.2315880">
        <ele>511.3</ele>
        <time>2019-08-13T08:38:59Z</time>
      </trkpt>
      <trkpt lat="39.9845100" lon="-4.2315780">
        <ele>511.2</ele>
        <time>2019-08-13T08:39:00Z</time>
      </trkpt>
      <trkpt lat="39.9845670" lon="-4.2315700">
        <ele>511.1</ele>
        <time>2019-08-13T08:39:01Z</time>
      </trkpt>
      <trkpt lat="39.9846220" lon="-4.2315610">
        <ele>511.0</ele>
        <time>2019-08-13T08:39:02Z</time>
      </trkpt>
      <trkpt lat="39.9846780" lon="-4.2315500">
        <ele>510.9</ele>
        <time>2019-08-13T08:39:03Z</time>
      </trkpt>
      <trkpt lat="39.9847350" lon="-4.2315390">
        <ele>510.8</ele>
        <time>2019-08-13T08:39:04Z</time>
      </trkpt>
      <trkpt lat="39.9847910" lon="-4.2315280">
        <ele>510.7</ele>
        <time>2019-08-13T08:39:05Z</time>
      </trkpt>
      <trkpt lat="39.9848480" lon="-4.2315180">
        <ele>510.5</ele>
        <time>2019-08-13T08:39:06Z</time>
      </trkpt>
      <trkpt lat="39.9849070" lon="-4.2315070">
        <ele>510.4</ele>
        <time>2019-08-13T08:39:07Z</time>
      </trkpt>
      <trkpt lat="39.9849670" lon="-4.2314930">
        <ele>510.2</ele>
        <time>2019-08-13T08:39:08Z</time>
      </trkpt>
      <trkpt lat="39.9850270" lon="-4.2314770">
        <ele>510.1</ele>
        <time>2019-08-13T08:39:09Z</time>
      </trkpt>
      <trkpt lat="39.9850880" lon="-4.2314590">
        <ele>509.9</ele>
        <time>2019-08-13T08:39:10Z</time>
      </trkpt>
      <trkpt lat="39.9851500" lon="-4.2314370">
        <ele>509.6</ele>
        <time>2019-08-13T08:39:11Z</time>
      </trkpt>
      <trkpt lat="39.9852120" lon="-4.2314090">
        <ele>509.3</ele>
        <time>2019-08-13T08:39:12Z</time>
      </trkpt>
      <trkpt lat="39.9852720" lon="-4.2313730">
        <ele>508.9</ele>
        <time>2019-08-13T08:39:13Z</time>
      </trkpt>
      <trkpt lat="39.9853330" lon="-4.2313340">
        <ele>508.6</ele>
        <time>2019-08-13T08:39:14Z</time>
      </trkpt>
      <trkpt lat="39.9853910" lon="-4.2312950">
        <ele>508.4</ele>
        <time>2019-08-13T08:39:15Z</time>
      </trkpt>
      <trkpt lat="39.9854480" lon="-4.2312610">
        <ele>508.2</ele>
        <time>2019-08-13T08:39:16Z</time>
      </trkpt>
      <trkpt lat="39.9855000" lon="-4.2312360">
        <ele>508.0</ele>
        <time>2019-08-13T08:39:17Z</time>
      </trkpt>
      <trkpt lat="39.9855520" lon="-4.2312110">
        <ele>507.9</ele>
        <time>2019-08-13T08:39:18Z</time>
      </trkpt>
      <trkpt lat="39.9856000" lon="-4.2311870">
        <ele>507.7</ele>
        <time>2019-08-13T08:39:19Z</time>
      </trkpt>
      <trkpt lat="39.9856480" lon="-4.2311580">
        <ele>507.6</ele>
        <time>2019-08-13T08:39:20Z</time>
      </trkpt>
      <trkpt lat="39.9856960" lon="-4.2311310">
        <ele>507.7</ele>
        <time>2019-08-13T08:39:21Z</time>
      </trkpt>
      <trkpt lat="39.9857410" lon="-4.2311030">
        <ele>507.8</ele>
        <time>2019-08-13T08:39:22Z</time>
      </trkpt>
      <trkpt lat="39.9857850" lon="-4.2310730">
        <ele>507.9</ele>
        <time>2019-08-13T08:39:23Z</time>
      </trkpt>
      <trkpt lat="39.9858290" lon="-4.2310410">
        <ele>508.2</ele>
        <time>2019-08-13T08:39:24Z</time>
      </trkpt>
      <trkpt lat="39.9858730" lon="-4.2310090">
        <ele>508.6</ele>
        <time>2019-08-13T08:39:25Z</time>
      </trkpt>
      <trkpt lat="39.9859160" lon="-4.2309770">
        <ele>509.0</ele>
        <time>2019-08-13T08:39:26Z</time>
      </trkpt>
      <trkpt lat="39.9859620" lon="-4.2309440">
        <ele>509.5</ele>
        <time>2019-08-13T08:39:27Z</time>
      </trkpt>
      <trkpt lat="39.9860080" lon="-4.2309070">
        <ele>510.1</ele>
        <time>2019-08-13T08:39:28Z</time>
      </trkpt>
      <trkpt lat="39.9860510" lon="-4.2308710">
        <ele>510.6</ele>
        <time>2019-08-13T08:39:29Z</time>
      </trkpt>
      <trkpt lat="39.9860920" lon="-4.2308330">
        <ele>511.1</ele>
        <time>2019-08-13T08:39:30Z</time>
      </trkpt>
      <trkpt lat="39.9861280" lon="-4.2307990">
        <ele>511.4</ele>
        <time>2019-08-13T08:39:31Z</time>
      </trkpt>
      <trkpt lat="39.9861650" lon="-4.2307670">
        <ele>511.7</ele>
        <time>2019-08-13T08:39:32Z</time>
      </trkpt>
      <trkpt lat="39.9862000" lon="-4.2307350">
        <ele>511.9</ele>
        <time>2019-08-13T08:39:33Z</time>
      </trkpt>
      <trkpt lat="39.9862340" lon="-4.2307060">
        <ele>512.1</ele>
        <time>2019-08-13T08:39:34Z</time>
      </trkpt>
      <trkpt lat="39.9862680" lon="-4.2306750">
        <ele>512.3</ele>
        <time>2019-08-13T08:39:35Z</time>
      </trkpt>
      <trkpt lat="39.9863010" lon="-4.2306450">
        <ele>512.5</ele>
        <time>2019-08-13T08:39:36Z</time>
      </trkpt>
      <trkpt lat="39.9863340" lon="-4.2306190">
        <ele>512.6</ele>
        <time>2019-08-13T08:39:37Z</time>
      </trkpt>
      <trkpt lat="39.9863630" lon="-4.2305930">
        <ele>512.8</ele>
        <time>2019-08-13T08:39:38Z</time>
      </trkpt>
      <trkpt lat="39.9863880" lon="-4.2305660">
        <ele>512.6</ele>
        <time>2019-08-13T08:39:39Z</time>
      </trkpt>
      <trkpt lat="39.9864130" lon="-4.2305400">
        <ele>512.5</ele>
        <time>2019-08-13T08:39:40Z</time>
      </trkpt>
      <trkpt lat="39.9864440" lon="-4.2305050">
        <ele>512.3</ele>
        <time>2019-08-13T08:39:42Z</time>
      </trkpt>
      <trkpt lat="39.9864410" lon="-4.2305550">
        <ele>512.2</ele>
        <time>2019-08-13T08:40:45Z</time>
      </trkpt>
      <trkpt lat="39.9864140" lon="-4.2305820">
        <ele>512.0</ele>
        <time>2019-08-13T08:40:47Z</time>
      </trkpt>
      <trkpt lat="39.9863900" lon="-4.2306000">
        <ele>511.9</ele>
        <time>2019-08-13T08:40:48Z</time>
      </trkpt>
      <trkpt lat="39.9863590" lon="-4.2306230">
        <ele>511.8</ele>
        <time>2019-08-13T08:40:49Z</time>
      </trkpt>
      <trkpt lat="39.9863250" lon="-4.2306490">
        <ele>511.6</ele>
        <time>2019-08-13T08:40:50Z</time>
      </trkpt>
      <trkpt lat="39.9862890" lon="-4.2306780">
        <ele>511.3</ele>
        <time>2019-08-13T08:40:51Z</time>
      </trkpt>
      <trkpt lat="39.9862520" lon="-4.2307140">
        <ele>510.9</ele>
        <time>2019-08-13T08:40:52Z</time>
      </trkpt>
      <trkpt lat="39.9862130" lon="-4.2307510">
        <ele>510.5</ele>
        <time>2019-08-13T08:40:53Z</time>
      </trkpt>
      <trkpt lat="39.9861700" lon="-4.2307850">
        <ele>510.0</ele>
        <time>2019-08-13T08:40:54Z</time>
      </trkpt>
      <trkpt lat="39.9861230" lon="-4.2308190">
        <ele>509.5</ele>
        <time>2019-08-13T08:40:55Z</time>
      </trkpt>
      <trkpt lat="39.9860770" lon="-4.2308540">
        <ele>509.0</ele>
        <time>2019-08-13T08:40:56Z</time>
      </trkpt>
      <trkpt lat="39.9860340" lon="-4.2308840">
        <ele>508.7</ele>
        <time>2019-08-13T08:40:57Z</time>
      </trkpt>
      <trkpt lat="39.9859920" lon="-4.2309180">
        <ele>508.3</ele>
        <time>2019-08-13T08:40:58Z</time>
      </trkpt>
      <trkpt lat="39.9859470" lon="-4.2309570">
        <ele>507.9</ele>
        <time>2019-08-13T08:40:59Z</time>
      </trkpt>
      <trkpt lat="39.9858980" lon="-4.2309930">
        <ele>507.8</ele>
        <time>2019-08-13T08:41:00Z</time>
      </trkpt>
      <trkpt lat="39.9858460" lon="-4.2310280">
        <ele>507.7</ele>
        <time>2019-08-13T08:41:01Z</time>
      </trkpt>
      <trkpt lat="39.9857960" lon="-4.2310650">
        <ele>507.6</ele>
        <time>2019-08-13T08:41:02Z</time>
      </trkpt>
      <trkpt lat="39.9857440" lon="-4.2310990">
        <ele>507.7</ele>
        <time>2019-08-13T08:41:03Z</time>
      </trkpt>
      <trkpt lat="39.9856920" lon="-4.2311310">
        <ele>507.9</ele>
        <time>2019-08-13T08:41:04Z</time>
      </trkpt>
      <trkpt lat="39.9856430" lon="-4.2311630">
        <ele>508.0</ele>
        <time>2019-08-13T08:41:05Z</time>
      </trkpt>
      <trkpt lat="39.9855920" lon="-4.2311940">
        <ele>508.2</ele>
        <time>2019-08-13T08:41:06Z</time>
      </trkpt>
      <trkpt lat="39.9855400" lon="-4.2312260">
        <ele>508.3</ele>
        <time>2019-08-13T08:41:07Z</time>
      </trkpt>
      <trkpt lat="39.9854870" lon="-4.2312580">
        <ele>508.5</ele>
        <time>2019-08-13T08:41:08Z</time>
      </trkpt>
      <trkpt lat="39.9854340" lon="-4.2312930">
        <ele>508.7</ele>
        <time>2019-08-13T08:41:09Z</time>
      </trkpt>
      <trkpt lat="39.9853810" lon="-4.2313250">
        <ele>509.0</ele>
        <time>2019-08-13T08:41:10Z</time>
      </trkpt>
      <trkpt lat="39.9853270" lon="-4.2313580">
        <ele>509.3</ele>
        <time>2019-08-13T08:41:11Z</time>
      </trkpt>
      <trkpt lat="39.9852760" lon="-4.2313910">
        <ele>509.5</ele>
        <time>2019-08-13T08:41:12Z</time>
      </trkpt>
      <trkpt lat="39.9852260" lon="-4.2314210">
        <ele>509.8</ele>
        <time>2019-08-13T08:41:13Z</time>
      </trkpt>
      <trkpt lat="39.9851740" lon="-4.2314460">
        <ele>510.0</ele>
        <time>2019-08-13T08:41:14Z</time>
      </trkpt>
      <trkpt lat="39.9851190" lon="-4.2314660">
        <ele>510.1</ele>
        <time>2019-08-13T08:41:15Z</time>
      </trkpt>
      <trkpt lat="39.9850670" lon="-4.2314840">
        <ele>510.2</ele>
        <time>2019-08-13T08:41:16Z</time>
      </trkpt>
      <trkpt lat="39.9850150" lon="-4.2315000">
        <ele>510.4</ele>
        <time>2019-08-13T08:41:17Z</time>
      </trkpt>
      <trkpt lat="39.9849640" lon="-4.2315140">
        <ele>510.5</ele>
        <time>2019-08-13T08:41:18Z</time>
      </trkpt>
      <trkpt lat="39.9849140" lon="-4.2315260">
        <ele>510.6</ele>
        <time>2019-08-13T08:41:19Z</time>
      </trkpt>
      <trkpt lat="39.9848660" lon="-4.2315380">
        <ele>510.7</ele>
        <time>2019-08-13T08:41:20Z</time>
      </trkpt>
      <trkpt lat="39.9848170" lon="-4.2315480">
        <ele>510.8</ele>
        <time>2019-08-13T08:41:21Z</time>
      </trkpt>
      <trkpt lat="39.9847690" lon="-4.2315580">
        <ele>510.9</ele>
        <time>2019-08-13T08:41:22Z</time>
      </trkpt>
      <trkpt lat="39.9847230" lon="-4.2315680">
        <ele>511.0</ele>
        <time>2019-08-13T08:41:23Z</time>
      </trkpt>
      <trkpt lat="39.9846790" lon="-4.2315760">
        <ele>511.1</ele>
        <time>2019-08-13T08:41:24Z</time>
      </trkpt>
      <trkpt lat="39.9846350" lon="-4.2315840">
        <ele>511.2</ele>
        <time>2019-08-13T08:41:25Z</time>
      </trkpt>
      <trkpt lat="39.9845910" lon="-4.2315920">
        <ele>511.2</ele>
        <time>2019-08-13T08:41:26Z</time>
      </trkpt>
      <trkpt lat="39.9845480" lon="-4.2316000">
        <ele>511.3</ele>
        <time>2019-08-13T08:41:27Z</time>
      </trkpt>
      <trkpt lat="39.9845050" lon="-4.2316080">
        <ele>511.4</ele>
        <time>2019-08-13T08:41:28Z</time>
      </trkpt>
      <trkpt lat="39.9844620" lon="-4.2316120">
        <ele>511.4</ele>
        <time>2019-08-13T08:41:29Z</time>
      </trkpt>
      <trkpt lat="39.9844190" lon="-4.2316140">
        <ele>511.5</ele>
        <time>2019-08-13T08:41:30Z</time>
      </trkpt>
      <trkpt lat="39.9843750" lon="-4.2316190">
        <ele>511.6</ele>
        <time>2019-08-13T08:41:31Z</time>
      </trkpt>
      <trkpt lat="39.9843330" lon="-4.2316260">
        <ele>511.7</ele>
        <time>2019-08-13T08:41:32Z</time>
      </trkpt>
      <trkpt lat="39.9842890" lon="-4.2316350">
        <ele>511.8</ele>
        <time>2019-08-13T08:41:33Z</time>
      </trkpt>
      <trkpt lat="39.9842450" lon="-4.2316430">
        <ele>512.0</ele>
        <time>2019-08-13T08:41:34Z</time>
      </trkpt>
      <trkpt lat="39.9842020" lon="-4.2316510">
        <ele>512.1</ele>
        <time>2019-08-13T08:41:35Z</time>
      </trkpt>
      <trkpt lat="39.9841590" lon="-4.2316610">
        <ele>512.2</ele>
        <time>2019-08-13T08:41:36Z</time>
      </trkpt>
      <trkpt lat="39.9841170" lon="-4.2316690">
        <ele>512.3</ele>
        <time>2019-08-13T08:41:37Z</time>
      </trkpt>
      <trkpt lat="39.9840720" lon="-4.2316780">
        <ele>512.4</ele>
        <time>2019-08-13T08:41:38Z</time>
      </trkpt>
      <trkpt lat="39.9840300" lon="-4.2316890">
        <ele>512.6</ele>
        <time>2019-08-13T08:41:39Z</time>
      </trkpt>
      <trkpt lat="39.9839880" lon="-4.2316990">
        <ele>512.7</ele>
        <time>2019-08-13T08:41:40Z</time>
      </trkpt>
      <trkpt lat="39.9839460" lon="-4.2317090">
        <ele>512.9</ele>
        <time>2019-08-13T08:41:41Z</time>
      </trkpt>
      <trkpt lat="39.9839030" lon="-4.2317170">
        <ele>513.1</ele>
        <time>2019-08-13T08:41:42Z</time>
      </trkpt>
      <trkpt lat="39.9838620" lon="-4.2317270">
        <ele>513.4</ele>
        <time>2019-08-13T08:41:43Z</time>
      </trkpt>
      <trkpt lat="39.9838210" lon="-4.2317410">
        <ele>513.8</ele>
        <time>2019-08-13T08:41:44Z</time>
      </trkpt>
      <trkpt lat="39.9837830" lon="-4.2317590">
        <ele>514.1</ele>
        <time>2019-08-13T08:41:45Z</time>
      </trkpt>
      <trkpt lat="39.9837460" lon="-4.2317780">
        <ele>514.4</ele>
        <time>2019-08-13T08:41:46Z</time>
      </trkpt>
      <trkpt lat="39.9837110" lon="-4.2318010">
        <ele>514.6</ele>
        <time>2019-08-13T08:41:47Z</time>
      </trkpt>
      <trkpt lat="39.9836780" lon="-4.2318280">
        <ele>514.9</ele>
        <time>2019-08-13T08:41:48Z</time>
      </trkpt>
      <trkpt lat="39.9836480" lon="-4.2318550">
        <ele>515.2</ele>
        <time>2019-08-13T08:41:49Z</time>
      </trkpt>
      <trkpt lat="39.9836210" lon="-4.2318820">
        <ele>515.4</ele>
        <time>2019-08-13T08:41:50Z</time>
      </trkpt>
      <trkpt lat="39.9835990" lon="-4.2319080">
        <ele>515.7</ele>
        <time>2019-08-13T08:41:51Z</time>
      </trkpt>
      <trkpt lat="39.9835800" lon="-4.2319340">
        <ele>516.0</ele>
        <time>2019-08-13T08:41:52Z</time>
      </trkpt>
      <trkpt lat="39.9835540" lon="-4.2319730">
        <ele>516.8</ele>
        <time>2019-08-13T08:41:54Z</time>
      </trkpt>
      <trkpt lat="39.9836040" lon="-4.2319650">
        <ele>516.9</ele>
        <time>2019-08-13T08:42:19Z</time>
      </trkpt>
      <trkpt lat="39.9835100" lon="-4.2319930">
        <ele>517.1</ele>
        <time>2019-08-13T08:42:50Z</time>
      </trkpt>
      <trkpt lat="39.9834810" lon="-4.2320510">
        <ele>517.2</ele>
        <time>2019-08-13T08:42:52Z</time>
      </trkpt>
      <trkpt lat="39.9834740" lon="-4.2320890">
        <ele>517.2</ele>
        <time>2019-08-13T08:42:53Z</time>
      </trkpt>
      <trkpt lat="39.9834670" lon="-4.2321330">
        <ele>517.3</ele>
        <time>2019-08-13T08:42:54Z</time>
      </trkpt>
      <trkpt lat="39.9834570" lon="-4.2321750">
        <ele>517.3</ele>
        <time>2019-08-13T08:42:55Z</time>
      </trkpt>
      <trkpt lat="39.9834430" lon="-4.2322180">
        <ele>517.4</ele>
        <time>2019-08-13T08:42:56Z</time>
      </trkpt>
      <trkpt lat="39.9834300" lon="-4.2322610">
        <ele>517.5</ele>
        <time>2019-08-13T08:42:57Z</time>
      </trkpt>
      <trkpt lat="39.9834140" lon="-4.2323050">
        <ele>517.5</ele>
        <time>2019-08-13T08:42:58Z</time>
      </trkpt>
      <trkpt lat="39.9834000" lon="-4.2323510">
        <ele>517.6</ele>
        <time>2019-08-13T08:42:59Z</time>
      </trkpt>
      <trkpt lat="39.9833860" lon="-4.2323970">
        <ele>517.6</ele>
        <time>2019-08-13T08:43:00Z</time>
      </trkpt>
      <trkpt lat="39.9833760" lon="-4.2324440">
        <ele>517.7</ele>
        <time>2019-08-13T08:43:01Z</time>
      </trkpt>
      <trkpt lat="39.9833630" lon="-4.2324920">
        <ele>517.7</ele>
        <time>2019-08-13T08:43:02Z</time>
      </trkpt>
      <trkpt lat="39.9833510" lon="-4.2325400">
        <ele>517.8</ele>
        <time>2019-08-13T08:43:03Z</time>
      </trkpt>
      <trkpt lat="39.9833400" lon="-4.2325900">
        <ele>517.8</ele>
        <time>2019-08-13T08:43:04Z</time>
      </trkpt>
      <trkpt lat="39.9833300" lon="-4.2326390">
        <ele>517.9</ele>
        <time>2019-08-13T08:43:05Z</time>
      </trkpt>
      <trkpt lat="39.9833210" lon="-4.2326900">
        <ele>517.9</ele>
        <time>2019-08-13T08:43:06Z</time>
      </trkpt>
      <trkpt lat="39.9833130" lon="-4.2327410">
        <ele>518.0</ele>
        <time>2019-08-13T08:43:07Z</time>
      </trkpt>
      <trkpt lat="39.9833060" lon="-4.2327910">
        <ele>518.0</ele>
        <time>2019-08-13T08:43:08Z</time>
      </trkpt>
      <trkpt lat="39.9832950" lon="-4.2328410">
        <ele>518.1</ele>
        <time>2019-08-13T08:43:09Z</time>
      </trkpt>
      <trkpt lat="39.9832830" lon="-4.2328920">
        <ele>518.2</ele>
        <time>2019-08-13T08:43:10Z</time>
      </trkpt>
      <trkpt lat="39.9832680" lon="-4.2329430">
        <ele>518.2</ele>
        <time>2019-08-13T08:43:11Z</time>
      </trkpt>
      <trkpt lat="39.9832530" lon="-4.2329930">
        <ele>518.2</ele>
        <time>2019-08-13T08:43:12Z</time>
      </trkpt>
      <trkpt lat="39.9832340" lon="-4.2330400">
        <ele>518.2</ele>
        <time>2019-08-13T08:43:13Z</time>
      </trkpt>
      <trkpt lat="39.9832160" lon="-4.2330880">
        <ele>518.1</ele>
        <time>2019-08-13T08:43:14Z</time>
      </trkpt>
      <trkpt lat="39.9831980" lon="-4.2331370">
        <ele>518.1</ele>
        <time>2019-08-13T08:43:15Z</time>
      </trkpt>
      <trkpt lat="39.9831800" lon="-4.2331860">
        <ele>518.1</ele>
        <time>2019-08-13T08:43:16Z</time>
      </trkpt>
      <trkpt lat="39.9831580" lon="-4.2332380">
        <ele>518.1</ele>
        <time>2019-08-13T08:43:17Z</time>
      </trkpt>
      <trkpt lat="39.9831360" lon="-4.2332890">
        <ele>518.0</ele>
        <time>2019-08-13T08:43:18Z</time>
      </trkpt>
      <trkpt lat="39.9831170" lon="-4.2333440">
        <ele>518.0</ele>
        <time>2019-08-13T08:43:19Z</time>
      </trkpt>
      <trkpt lat="39.9830990" lon="-4.2333990">
        <ele>518.0</ele>
        <time>2019-08-13T08:43:20Z</time>
      </trkpt>
      <trkpt lat="39.9830810" lon="-4.2334560">
        <ele>517.9</ele>
        <time>2019-08-13T08:43:21Z</time>
      </trkpt>
      <trkpt lat="39.9830640" lon="-4.2335110">
        <ele>517.9</ele>
        <time>2019-08-13T08:43:22Z</time>
      </trkpt>
      <trkpt lat="39.9830550" lon="-4.2335670">
        <ele>517.9</ele>
        <time>2019-08-13T08:43:23Z</time>
      </trkpt>
      <trkpt lat="39.9830530" lon="-4.2336220">
        <ele>517.9</ele>
        <time>2019-08-13T08:43:24Z</time>
      </trkpt>
      <trkpt lat="39.9830520" lon="-4.2336760">
        <ele>517.8</ele>
        <time>2019-08-13T08:43:25Z</time>
      </trkpt>
      <trkpt lat="39.9830490" lon="-4.2337290">
        <ele>517.8</ele>
        <time>2019-08-13T08:43:26Z</time>
      </trkpt>
      <trkpt lat="39.9830450" lon="-4.2337860">
        <ele>517.8</ele>
        <time>2019-08-13T08:43:27Z</time>
      </trkpt>
      <trkpt lat="39.9830420" lon="-4.2338440">
        <ele>517.8</ele>
        <time>2019-08-13T08:43:28Z</time>
      </trkpt>
      <trkpt lat="39.9830370" lon="-4.2339030">
        <ele>517.8</ele>
        <time>2019-08-13T08:43:29Z</time>
      </trkpt>
      <trkpt lat="39.9830330" lon="-4.2339620">
        <ele>517.8</ele>
        <time>2019-08-13T08:43:30Z</time>
      </trkpt>
      <trkpt lat="39.9830280" lon="-4.2340230">
        <ele>517.8</ele>
        <time>2019-08-13T08:43:31Z</time>
      </trkpt>
      <trkpt lat="39.9830240" lon="-4.2340860">
        <ele>517.8</ele>
        <time>2019-08-13T08:43:32Z</time>
      </trkpt>
      <trkpt lat="39.9830180" lon="-4.2341470">
        <ele>517.7</ele>
        <time>2019-08-13T08:43:33Z</time>
      </trkpt>
      <trkpt lat="39.9830120" lon="-4.2342120">
        <ele>517.5</ele>
        <time>2019-08-13T08:43:34Z</time>
      </trkpt>
      <trkpt lat="39.9830040" lon="-4.2342740">
        <ele>517.3</ele>
        <time>2019-08-13T08:43:35Z</time>
      </trkpt>
      <trkpt lat="39.9829990" lon="-4.2343360">
        <ele>517.1</ele>
        <time>2019-08-13T08:43:36Z</time>
      </trkpt>
      <trkpt lat="39.9829930" lon="-4.2343990">
        <ele>516.8</ele>
        <time>2019-08-13T08:43:37Z</time>
      </trkpt>
      <trkpt lat="39.9829890" lon="-4.2344620">
        <ele>516.6</ele>
        <time>2019-08-13T08:43:38Z</time>
      </trkpt>
      <trkpt lat="39.9829850" lon="-4.2345250">
        <ele>516.4</ele>
        <time>2019-08-13T08:43:39Z</time>
      </trkpt>
      <trkpt lat="39.9829810" lon="-4.2345880">
        <ele>516.2</ele>
        <time>2019-08-13T08:43:40Z</time>
      </trkpt>
      <trkpt lat="39.9829760" lon="-4.2346490">
        <ele>516.1</ele>
        <time>2019-08-13T08:43:41Z</time>
      </trkpt>
      <trkpt lat="39.9829740" lon="-4.2347090">
        <ele>516.1</ele>
        <time>2019-08-13T08:43:42Z</time>
      </trkpt>
      <trkpt lat="39.9829730" lon="-4.2347580">
        <ele>516.0</ele>
        <time>2019-08-13T08:43:43Z</time>
      </trkpt>
      <trkpt lat="39.9829720" lon="-4.2348150">
        <ele>516.0</ele>
        <time>2019-08-13T08:43:45Z</time>
      </trkpt>
      <trkpt lat="39.9829720" lon="-4.2348600">
        <ele>515.9</ele>
        <time>2019-08-13T08:43:50Z</time>
      </trkpt>
      <trkpt lat="39.9829620" lon="-4.2349120">
        <ele>515.8</ele>
        <time>2019-08-13T08:43:52Z</time>
      </trkpt>
      <trkpt lat="39.9829510" lon="-4.2349470">
        <ele>515.7</ele>
        <time>2019-08-13T08:43:53Z</time>
      </trkpt>
      <trkpt lat="39.9829440" lon="-4.2349910">
        <ele>515.6</ele>
        <time>2019-08-13T08:43:54Z</time>
      </trkpt>
      <trkpt lat="39.9829430" lon="-4.2350440">
        <ele>515.5</ele>
        <time>2019-08-13T08:43:55Z</time>
      </trkpt>
      <trkpt lat="39.9829410" lon="-4.2351010">
        <ele>515.4</ele>
        <time>2019-08-13T08:43:56Z</time>
      </trkpt>
      <trkpt lat="39.9829400" lon="-4.2351620">
        <ele>515.2</ele>
        <time>2019-08-13T08:43:57Z</time>
      </trkpt>
      <trkpt lat="39.9829380" lon="-4.2352240">
        <ele>515.2</ele>
        <time>2019-08-13T08:43:58Z</time>
      </trkpt>
      <trkpt lat="39.9829350" lon="-4.2352860">
        <ele>515.1</ele>
        <time>2019-08-13T08:43:59Z</time>
      </trkpt>
      <trkpt lat="39.9829320" lon="-4.2353480">
        <ele>515.1</ele>
        <time>2019-08-13T08:44:00Z</time>
      </trkpt>
      <trkpt lat="39.9829280" lon="-4.2354120">
        <ele>515.1</ele>
        <time>2019-08-13T08:44:01Z</time>
      </trkpt>
      <trkpt lat="39.9829260" lon="-4.2354760">
        <ele>515.0</ele>
        <time>2019-08-13T08:44:02Z</time>
      </trkpt>
      <trkpt lat="39.9829230" lon="-4.2355410">
        <ele>515.0</ele>
        <time>2019-08-13T08:44:03Z</time>
      </trkpt>
      <trkpt lat="39.9829190" lon="-4.2356080">
        <ele>515.0</ele>
        <time>2019-08-13T08:44:04Z</time>
      </trkpt>
      <trkpt lat="39.9829120" lon="-4.2356750">
        <ele>514.9</ele>
        <time>2019-08-13T08:44:05Z</time>
      </trkpt>
      <trkpt lat="39.9829090" lon="-4.2357400">
        <ele>514.9</ele>
        <time>2019-08-13T08:44:06Z</time>
      </trkpt>
      <trkpt lat="39.9829040" lon="-4.2358060">
        <ele>514.8</ele>
        <time>2019-08-13T08:44:07Z</time>
      </trkpt>
      <trkpt lat="39.9829010" lon="-4.2358710">
        <ele>514.7</ele>
        <time>2019-08-13T08:44:08Z</time>
      </trkpt>
      <trkpt lat="39.9828980" lon="-4.2359360">
        <ele>514.6</ele>
        <time>2019-08-13T08:44:09Z</time>
      </trkpt>
      <trkpt lat="39.9828950" lon="-4.2360010">
        <ele>514.5</ele>
        <time>2019-08-13T08:44:10Z</time>
      </trkpt>
      <trkpt lat="39.9828910" lon="-4.2360660">
        <ele>514.5</ele>
        <time>2019-08-13T08:44:11Z</time>
      </trkpt>
      <trkpt lat="39.9828870" lon="-4.2361320">
        <ele>514.4</ele>
        <time>2019-08-13T08:44:12Z</time>
      </trkpt>
      <trkpt lat="39.9828830" lon="-4.2361960">
        <ele>514.4</ele>
        <time>2019-08-13T08:44:13Z</time>
      </trkpt>
      <trkpt lat="39.9828800" lon="-4.2362590">
        <ele>514.4</ele>
        <time>2019-08-13T08:44:14Z</time>
      </trkpt>
      <trkpt lat="39.9828770" lon="-4.2363230">
        <ele>514.4</ele>
        <time>2019-08-13T08:44:15Z</time>
      </trkpt>
      <trkpt lat="39.9828710" lon="-4.2363860">
        <ele>514.4</ele>
        <time>2019-08-13T08:44:16Z</time>
      </trkpt>
      <trkpt lat="39.9828660" lon="-4.2364470">
        <ele>514.3</ele>
        <time>2019-08-13T08:44:17Z</time>
      </trkpt>
      <trkpt lat="39.9828610" lon="-4.2365050">
        <ele>514.3</ele>
        <time>2019-08-13T08:44:18Z</time>
      </trkpt>
      <trkpt lat="39.9828570" lon="-4.2365630">
        <ele>514.3</ele>
        <time>2019-08-13T08:44:19Z</time>
      </trkpt>
      <trkpt lat="39.9828530" lon="-4.2366210">
        <ele>514.2</ele>
        <time>2019-08-13T08:44:20Z</time>
      </trkpt>
      <trkpt lat="39.9828470" lon="-4.2366790">
        <ele>514.2</ele>
        <time>2019-08-13T08:44:21Z</time>
      </trkpt>
      <trkpt lat="39.9828420" lon="-4.2367380">
        <ele>514.2</ele>
        <time>2019-08-13T08:44:22Z</time>
      </trkpt>
      <trkpt lat="39.9828380" lon="-4.2367960">
        <ele>514.1</ele>
        <time>2019-08-13T08:44:23Z</time>
      </trkpt>
      <trkpt lat="39.9828350" lon="-4.2368540">
        <ele>514.1</ele>
        <time>2019-08-13T08:44:24Z</time>
      </trkpt>
      <trkpt lat="39.9828330" lon="-4.2369100">
        <ele>514.0</ele>
        <time>2019-08-13T08:44:25Z</time>
      </trkpt>
      <trkpt lat="39.9828300" lon="-4.2369660">
        <ele>514.0</ele>
        <time>2019-08-13T08:44:26Z</time>
      </trkpt>
      <trkpt lat="39.9828260" lon="-4.2370210">
        <ele>513.9</ele>
        <time>2019-08-13T08:44:27Z</time>
      </trkpt>
      <trkpt lat="39.9828210" lon="-4.2370770">
        <ele>513.9</ele>
        <time>2019-08-13T08:44:28Z</time>
      </trkpt>
      <trkpt lat="39.9828180" lon="-4.2371310">
        <ele>513.8</ele>
        <time>2019-08-13T08:44:29Z</time>
      </trkpt>
      <trkpt lat="39.9828150" lon="-4.2371860">
        <ele>513.8</ele>
        <time>2019-08-13T08:44:30Z</time>
      </trkpt>
      <trkpt lat="39.9828110" lon="-4.2372400">
        <ele>513.7</ele>
        <time>2019-08-13T08:44:31Z</time>
      </trkpt>
      <trkpt lat="39.9828100" lon="-4.2372910">
        <ele>513.7</ele>
        <time>2019-08-13T08:44:32Z</time>
      </trkpt>
      <trkpt lat="39.9828100" lon="-4.2373410">
        <ele>513.6</ele>
        <time>2019-08-13T08:44:33Z</time>
      </trkpt>
      <trkpt lat="39.9828060" lon="-4.2373870">
        <ele>513.5</ele>
        <time>2019-08-13T08:44:34Z</time>
      </trkpt>
      <trkpt lat="39.9828020" lon="-4.2374320">
        <ele>513.4</ele>
        <time>2019-08-13T08:44:35Z</time>
      </trkpt>
      <trkpt lat="39.9828000" lon="-4.2374730">
        <ele>513.3</ele>
        <time>2019-08-13T08:44:36Z</time>
      </trkpt>
      <trkpt lat="39.9828020" lon="-4.2375090">
        <ele>513.2</ele>
        <time>2019-08-13T08:44:37Z</time>
      </trkpt>
      <trkpt lat="39.9828160" lon="-4.2375500">
        <ele>513.0</ele>
        <time>2019-08-13T08:44:39Z</time>
      </trkpt>
      <trkpt lat="39.9828410" lon="-4.2375750">
        <ele>513.0</ele>
        <time>2019-08-13T08:46:18Z</time>
      </trkpt>
      <trkpt lat="39.9828870" lon="-4.2375900">
        <ele>513.0</ele>
        <time>2019-08-13T08:46:20Z</time>
      </trkpt>
      <trkpt lat="39.9829470" lon="-4.2375820">
        <ele>513.1</ele>
        <time>2019-08-13T08:46:22Z</time>
      </trkpt>
      <trkpt lat="39.9829800" lon="-4.2375710">
        <ele>513.2</ele>
        <time>2019-08-13T08:46:23Z</time>
      </trkpt>
      <trkpt lat="39.9830100" lon="-4.2375540">
        <ele>513.2</ele>
        <time>2019-08-13T08:46:24Z</time>
      </trkpt>
      <trkpt lat="39.9830400" lon="-4.2375360">
        <ele>513.3</ele>
        <time>2019-08-13T08:46:25Z</time>
      </trkpt>
      <trkpt lat="39.9830710" lon="-4.2375200">
        <ele>513.4</ele>
        <time>2019-08-13T08:46:26Z</time>
      </trkpt>
      <trkpt lat="39.9831040" lon="-4.2375070">
        <ele>513.5</ele>
        <time>2019-08-13T08:46:27Z</time>
      </trkpt>
      <trkpt lat="39.9831410" lon="-4.2374860">
        <ele>513.5</ele>
        <time>2019-08-13T08:46:28Z</time>
      </trkpt>
      <trkpt lat="39.9831740" lon="-4.2374640">
        <ele>513.6</ele>
        <time>2019-08-13T08:46:29Z</time>
      </trkpt>
      <trkpt lat="39.9832080" lon="-4.2374390">
        <ele>513.7</ele>
        <time>2019-08-13T08:46:30Z</time>
      </trkpt>
      <trkpt lat="39.9832450" lon="-4.2374200">
        <ele>513.8</ele>
        <time>2019-08-13T08:46:31Z</time>
      </trkpt>
      <trkpt lat="39.9832850" lon="-4.2374060">
        <ele>513.9</ele>
        <time>2019-08-13T08:46:32Z</time>
      </trkpt>
      <trkpt lat="39.9833210" lon="-4.2373920">
        <ele>514.0</ele>
        <time>2019-08-13T08:46:33Z</time>
      </trkpt>
      <trkpt lat="39.9833570" lon="-4.2373760">
        <ele>514.1</ele>
        <time>2019-08-13T08:46:34Z</time>
      </trkpt>
      <trkpt lat="39.9833920" lon="-4.2373620">
        <ele>514.1</ele>
        <time>2019-08-13T08:46:35Z</time>
      </trkpt>
      <trkpt lat="39.9834270" lon="-4.2373430">
        <ele>514.2</ele>
        <time>2019-08-13T08:46:36Z</time>
      </trkpt>
      <trkpt lat="39.9834630" lon="-4.2373300">
        <ele>514.3</ele>
        <time>2019-08-13T08:46:37Z</time>
      </trkpt>
      <trkpt lat="39.9835030" lon="-4.2373210">
        <ele>514.4</ele>
        <time>2019-08-13T08:46:38Z</time>
      </trkpt>
      <trkpt lat="39.9835400" lon="-4.2373040">
        <ele>514.5</ele>
        <time>2019-08-13T08:46:39Z</time>
      </trkpt>
      <trkpt lat="39.9835710" lon="-4.2372840">
        <ele>514.6</ele>
        <time>2019-08-13T08:46:40Z</time>
      </trkpt>
      <trkpt lat="39.9836060" lon="-4.2372670">
        <ele>514.6</ele>
        <time>2019-08-13T08:46:41Z</time>
      </trkpt>
      <trkpt lat="39.9836390" lon="-4.2372500">
        <ele>514.7</ele>
        <time>2019-08-13T08:46:42Z</time>
      </trkpt>
      <trkpt lat="39.9836720" lon="-4.2372280">
        <ele>514.8</ele>
        <time>2019-08-13T08:46:43Z</time>
      </trkpt>
      <trkpt lat="39.9837080" lon="-4.2372090">
        <ele>514.8</ele>
        <time>2019-08-13T08:46:44Z</time>
      </trkpt>
      <trkpt lat="39.9837470" lon="-4.2371920">
        <ele>514.8</ele>
        <time>2019-08-13T08:46:45Z</time>
      </trkpt>
      <trkpt lat="39.9837840" lon="-4.2371790">
        <ele>514.9</ele>
        <time>2019-08-13T08:46:46Z</time>
      </trkpt>
      <trkpt lat="39.9838200" lon="-4.2371610">
        <ele>515.0</ele>
        <time>2019-08-13T08:46:47Z</time>
      </trkpt>
      <trkpt lat="39.9838580" lon="-4.2371350">
        <ele>515.1</ele>
        <time>2019-08-13T08:46:48Z</time>
      </trkpt>
      <trkpt lat="39.9838940" lon="-4.2371100">
        <ele>515.2</ele>
        <time>2019-08-13T08:46:49Z</time>
      </trkpt>
      <trkpt lat="39.9839290" lon="-4.2370870">
        <ele>515.2</ele>
        <time>2019-08-13T08:46:50Z</time>
      </trkpt>
      <trkpt lat="39.9839650" lon="-4.2370650">
        <ele>515.3</ele>
        <time>2019-08-13T08:46:51Z</time>
      </trkpt>
      <trkpt lat="39.9840050" lon="-4.2370450">
        <ele>515.4</ele>
        <time>2019-08-13T08:46:52Z</time>
      </trkpt>
      <trkpt lat="39.9840440" lon="-4.2370280">
        <ele>515.5</ele>
        <time>2019-08-13T08:46:53Z</time>
      </trkpt>
      <trkpt lat="39.9840800" lon="-4.2370140">
        <ele>515.6</ele>
        <time>2019-08-13T08:46:54Z</time>
      </trkpt>
      <trkpt lat="39.9841150" lon="-4.2369960">
        <ele>515.6</ele>
        <time>2019-08-13T08:46:55Z</time>
      </trkpt>
      <trkpt lat="39.9841470" lon="-4.2369810">
        <ele>515.7</ele>
        <time>2019-08-13T08:46:56Z</time>
      </trkpt>
      <trkpt lat="39.9841770" lon="-4.2369710">
        <ele>515.8</ele>
        <time>2019-08-13T08:46:57Z</time>
      </trkpt>
      <trkpt lat="39.9842130" lon="-4.2369590">
        <ele>515.8</ele>
        <time>2019-08-13T08:46:58Z</time>
      </trkpt>
      <trkpt lat="39.9842560" lon="-4.2369370">
        <ele>515.9</ele>
        <time>2019-08-13T08:46:59Z</time>
      </trkpt>
      <trkpt lat="39.9842960" lon="-4.2369170">
        <ele>516.0</ele>
        <time>2019-08-13T08:47:00Z</time>
      </trkpt>
      <trkpt lat="39.9843350" lon="-4.2368960">
        <ele>516.1</ele>
        <time>2019-08-13T08:47:01Z</time>
      </trkpt>
      <trkpt lat="39.9843740" lon="-4.2368800">
        <ele>516.2</ele>
        <time>2019-08-13T08:47:02Z</time>
      </trkpt>
      <trkpt lat="39.9844140" lon="-4.2368640">
        <ele>516.2</ele>
        <time>2019-08-13T08:47:03Z</time>
      </trkpt>
      <trkpt lat="39.9844540" lon="-4.2368500">
        <ele>516.3</ele>
        <time>2019-08-13T08:47:04Z</time>
      </trkpt>
      <trkpt lat="39.9844970" lon="-4.2368340">
        <ele>516.4</ele>
        <time>2019-08-13T08:47:05Z</time>
      </trkpt>
      <trkpt lat="39.9845380" lon="-4.2368150">
        <ele>516.5</ele>
        <time>2019-08-13T08:47:06Z</time>
      </trkpt>
      <trkpt lat="39.9845780" lon="-4.2368050">
        <ele>516.6</ele>
        <time>2019-08-13T08:47:07Z</time>
      </trkpt>
      <trkpt lat="39.9846190" lon="-4.2368030">
        <ele>516.7</ele>
        <time>2019-08-13T08:47:08Z</time>
      </trkpt>
      <trkpt lat="39.9846640" lon="-4.2367990">
        <ele>516.7</ele>
        <time>2019-08-13T08:47:09Z</time>
      </trkpt>
      <trkpt lat="39.9847060" lon="-4.2367930">
        <ele>516.9</ele>
        <time>2019-08-13T08:47:10Z</time>
      </trkpt>
      <trkpt lat="39.9847470" lon="-4.2367850">
        <ele>516.9</ele>
        <time>2019-08-13T08:47:11Z</time>
      </trkpt>
      <trkpt lat="39.9847870" lon="-4.2367750">
        <ele>516.9</ele>
        <time>2019-08-13T08:47:12Z</time>
      </trkpt>
      <trkpt lat="39.9848330" lon="-4.2367650">
        <ele>517.0</ele>
        <time>2019-08-13T08:47:13Z</time>
      </trkpt>
      <trkpt lat="39.9848740" lon="-4.2367520">
        <ele>516.9</ele>
        <time>2019-08-13T08:47:14Z</time>
      </trkpt>
      <trkpt lat="39.9849150" lon="-4.2367420">
        <ele>517.1</ele>
        <time>2019-08-13T08:47:15Z</time>
      </trkpt>
      <trkpt lat="39.9849580" lon="-4.2367400">
        <ele>517.3</ele>
        <time>2019-08-13T08:47:16Z</time>
      </trkpt>
      <trkpt lat="39.9850020" lon="-4.2367350">
        <ele>517.4</ele>
        <time>2019-08-13T08:47:17Z</time>
      </trkpt>
      <trkpt lat="39.9850460" lon="-4.2367340">
        <ele>517.5</ele>
        <time>2019-08-13T08:47:18Z</time>
      </trkpt>
      <trkpt lat="39.9850890" lon="-4.2367360">
        <ele>517.5</ele>
        <time>2019-08-13T08:47:19Z</time>
      </trkpt>
      <trkpt lat="39.9851310" lon="-4.2367410">
        <ele>517.5</ele>
        <time>2019-08-13T08:47:20Z</time>
      </trkpt>
      <trkpt lat="39.9851720" lon="-4.2367490">
        <ele>517.6</ele>
        <time>2019-08-13T08:47:21Z</time>
      </trkpt>
      <trkpt lat="39.9852130" lon="-4.2367710">
        <ele>517.6</ele>
        <time>2019-08-13T08:47:22Z</time>
      </trkpt>
      <trkpt lat="39.9852480" lon="-4.2367960">
        <ele>517.7</ele>
        <time>2019-08-13T08:47:23Z</time>
      </trkpt>
      <trkpt lat="39.9852820" lon="-4.2368280">
        <ele>517.7</ele>
        <time>2019-08-13T08:47:24Z</time>
      </trkpt>
      <trkpt lat="39.9853160" lon="-4.2368580">
        <ele>517.7</ele>
        <time>2019-08-13T08:47:25Z</time>
      </trkpt>
      <trkpt lat="39.9853520" lon="-4.2368870">
        <ele>517.6</ele>
        <time>2019-08-13T08:47:26Z</time>
      </trkpt>
      <trkpt lat="39.9853900" lon="-4.2369130">
        <ele>517.8</ele>
        <time>2019-08-13T08:47:27Z</time>
      </trkpt>
      <trkpt lat="39.9854280" lon="-4.2369390">
        <ele>517.8</ele>
        <time>2019-08-13T08:47:28Z</time>
      </trkpt>
      <trkpt lat="39.9854670" lon="-4.2369640">
        <ele>517.9</ele>
        <time>2019-08-13T08:47:29Z</time>
      </trkpt>
      <trkpt lat="39.9855060" lon="-4.2369890">
        <ele>518.0</ele>
        <time>2019-08-13T08:47:30Z</time>
      </trkpt>
      <trkpt lat="39.9855440" lon="-4.2370160">
        <ele>518.3</ele>
        <time>2019-08-13T08:47:31Z</time>
      </trkpt>
      <trkpt lat="39.9855800" lon="-4.2370430">
        <ele>518.5</ele>
        <time>2019-08-13T08:47:32Z</time>
      </trkpt>
      <trkpt lat="39.9856180" lon="-4.2370610">
        <ele>518.8</ele>
        <time>2019-08-13T08:47:33Z</time>
      </trkpt>
      <trkpt lat="39.9856540" lon="-4.2370750">
        <ele>519.1</ele>
        <time>2019-08-13T08:47:34Z</time>
      </trkpt>
      <trkpt lat="39.9856840" lon="-4.2370890">
        <ele>519.4</ele>
        <time>2019-08-13T08:47:35Z</time>
      </trkpt>
      <trkpt lat="39.9857150" lon="-4.2371050">
        <ele>519.6</ele>
        <time>2019-08-13T08:47:36Z</time>
      </trkpt>
      <trkpt lat="39.9857500" lon="-4.2371240">
        <ele>519.7</ele>
        <time>2019-08-13T08:47:37Z</time>
      </trkpt>
      <trkpt lat="39.9857860" lon="-4.2371460">
        <ele>519.5</ele>
        <time>2019-08-13T08:47:38Z</time>
      </trkpt>
      <trkpt lat="39.9858200" lon="-4.2371700">
        <ele>519.3</ele>
        <time>2019-08-13T08:47:39Z</time>
      </trkpt>
      <trkpt lat="39.9858590" lon="-4.2371910">
        <ele>519.4</ele>
        <time>2019-08-13T08:47:40Z</time>
      </trkpt>
      <trkpt lat="39.9859000" lon="-4.2372100">
        <ele>519.4</ele>
        <time>2019-08-13T08:47:41Z</time>
      </trkpt>
      <trkpt lat="39.9859440" lon="-4.2372260">
        <ele>519.5</ele>
        <time>2019-08-13T08:47:42Z</time>
      </trkpt>
      <trkpt lat="39.9859880" lon="-4.2372390">
        <ele>519.6</ele>
        <time>2019-08-13T08:47:43Z</time>
      </trkpt>
      <trkpt lat="39.9860310" lon="-4.2372530">
        <ele>519.8</ele>
        <time>2019-08-13T08:47:44Z</time>
      </trkpt>
      <trkpt lat="39.9860730" lon="-4.2372660">
        <ele>519.9</ele>
        <time>2019-08-13T08:47:45Z</time>
      </trkpt>
      <trkpt lat="39.9861150" lon="-4.2372790">
        <ele>520.0</ele>
        <time>2019-08-13T08:47:46Z</time>
      </trkpt>
      <trkpt lat="39.9861580" lon="-4.2372890">
        <ele>520.2</ele>
        <time>2019-08-13T08:47:47Z</time>
      </trkpt>
      <trkpt lat="39.9862010" lon="-4.2372980">
        <ele>520.3</ele>
        <time>2019-08-13T08:47:48Z</time>
      </trkpt>
      <trkpt lat="39.9862420" lon="-4.2373090">
        <ele>520.4</ele>
        <time>2019-08-13T08:47:49Z</time>
      </trkpt>
      <trkpt lat="39.9862830" lon="-4.2373190">
        <ele>520.6</ele>
        <time>2019-08-13T08:47:50Z</time>
      </trkpt>
      <trkpt lat="39.9863260" lon="-4.2373310">
        <ele>520.7</ele>
        <time>2019-08-13T08:47:51Z</time>
      </trkpt>
      <trkpt lat="39.9863670" lon="-4.2373410">
        <ele>520.7</ele>
        <time>2019-08-13T08:47:52Z</time>
      </trkpt>
      <trkpt lat="39.9864060" lon="-4.2373480">
        <ele>520.9</ele>
        <time>2019-08-13T08:47:53Z</time>
      </trkpt>
      <trkpt lat="39.9864420" lon="-4.2373580">
        <ele>521.0</ele>
        <time>2019-08-13T08:47:54Z</time>
      </trkpt>
      <trkpt lat="39.9864770" lon="-4.2373680">
        <ele>521.1</ele>
        <time>2019-08-13T08:47:55Z</time>
      </trkpt>
      <trkpt lat="39.9865150" lon="-4.2373810">
        <ele>521.2</ele>
        <time>2019-08-13T08:47:56Z</time>
      </trkpt>
      <trkpt lat="39.9865530" lon="-4.2373980">
        <ele>521.2</ele>
        <time>2019-08-13T08:47:57Z</time>
      </trkpt>
      <trkpt lat="39.9865890" lon="-4.2374180">
        <ele>521.2</ele>
        <time>2019-08-13T08:47:58Z</time>
      </trkpt>
      <trkpt lat="39.9866250" lon="-4.2374380">
        <ele>521.4</ele>
        <time>2019-08-13T08:47:59Z</time>
      </trkpt>
      <trkpt lat="39.9866640" lon="-4.2374540">
        <ele>521.6</ele>
        <time>2019-08-13T08:48:00Z</time>
      </trkpt>
      <trkpt lat="39.9867030" lon="-4.2374690">
        <ele>521.7</ele>
        <time>2019-08-13T08:48:01Z</time>
      </trkpt>
      <trkpt lat="39.9867390" lon="-4.2374830">
        <ele>521.9</ele>
        <time>2019-08-13T08:48:02Z</time>
      </trkpt>
      <trkpt lat="39.9867710" lon="-4.2374920">
        <ele>522.2</ele>
        <time>2019-08-13T08:48:03Z</time>
      </trkpt>
      <trkpt lat="39.9868060" lon="-4.2375030">
        <ele>522.4</ele>
        <time>2019-08-13T08:48:04Z</time>
      </trkpt>
      <trkpt lat="39.9868400" lon="-4.2375170">
        <ele>522.3</ele>
        <time>2019-08-13T08:48:05Z</time>
      </trkpt>
      <trkpt lat="39.9868680" lon="-4.2375420">
        <ele>522.2</ele>
        <time>2019-08-13T08:48:06Z</time>
      </trkpt>
      <trkpt lat="39.9868870" lon="-4.2375750">
        <ele>522.3</ele>
        <time>2019-08-13T08:48:07Z</time>
      </trkpt>
      <trkpt lat="39.9868980" lon="-4.2376180">
        <ele>522.4</ele>
        <time>2019-08-13T08:48:08Z</time>
      </trkpt>
      <trkpt lat="39.9868960" lon="-4.2376670">
        <ele>522.5</ele>
        <time>2019-08-13T08:48:09Z</time>
      </trkpt>
      <trkpt lat="39.9868820" lon="-4.2377100">
        <ele>522.7</ele>
        <time>2019-08-13T08:48:10Z</time>
      </trkpt>
      <trkpt lat="39.9868560" lon="-4.2377460">
        <ele>523.0</ele>
        <time>2019-08-13T08:48:11Z</time>
      </trkpt>
      <trkpt lat="39.9868290" lon="-4.2377830">
        <ele>523.1</ele>
        <time>2019-08-13T08:48:12Z</time>
      </trkpt>
      <trkpt lat="39.9868020" lon="-4.2378190">
        <ele>523.2</ele>
        <time>2019-08-13T08:48:13Z</time>
      </trkpt>
      <trkpt lat="39.9867760" lon="-4.2378540">
        <ele>523.2</ele>
        <time>2019-08-13T08:48:14Z</time>
      </trkpt>
      <trkpt lat="39.9867510" lon="-4.2378840">
        <ele>523.3</ele>
        <time>2019-08-13T08:48:15Z</time>
      </trkpt>
      <trkpt lat="39.9867290" lon="-4.2379180">
        <ele>523.2</ele>
        <time>2019-08-13T08:48:16Z</time>
      </trkpt>
      <trkpt lat="39.9867090" lon="-4.2379470">
        <ele>523.4</ele>
        <time>2019-08-13T08:48:17Z</time>
      </trkpt>
      <trkpt lat="39.9866860" lon="-4.2379780">
        <ele>523.3</ele>
        <time>2019-08-13T08:48:18Z</time>
      </trkpt>
      <trkpt lat="39.9866630" lon="-4.2380140">
        <ele>523.3</ele>
        <time>2019-08-13T08:48:19Z</time>
      </trkpt>
      <trkpt lat="39.9866350" lon="-4.2380540">
        <ele>523.2</ele>
        <time>2019-08-13T08:48:20Z</time>
      </trkpt>
      <trkpt lat="39.9866050" lon="-4.2380900">
        <ele>523.3</ele>
        <time>2019-08-13T08:48:21Z</time>
      </trkpt>
      <trkpt lat="39.9865740" lon="-4.2381290">
        <ele>523.2</ele>
        <time>2019-08-13T08:48:22Z</time>
      </trkpt>
      <trkpt lat="39.9865450" lon="-4.2381710">
        <ele>523.2</ele>
        <time>2019-08-13T08:48:23Z</time>
      </trkpt>
      <trkpt lat="39.9865150" lon="-4.2382170">
        <ele>523.1</ele>
        <time>2019-08-13T08:48:24Z</time>
      </trkpt>
      <trkpt lat="39.9864840" lon="-4.2382670">
        <ele>523.1</ele>
        <time>2019-08-13T08:48:25Z</time>
      </trkpt>
      <trkpt lat="39.9864500" lon="-4.2383150">
        <ele>523.1</ele>
        <time>2019-08-13T08:48:26Z</time>
      </trkpt>
      <trkpt lat="39.9864180" lon="-4.2383650">
        <ele>523.2</ele>
        <time>2019-08-13T08:48:27Z</time>
      </trkpt>
      <trkpt lat="39.9863930" lon="-4.2384150">
        <ele>523.4</ele>
        <time>2019-08-13T08:48:28Z</time>
      </trkpt>
      <trkpt lat="39.9863730" lon="-4.2384650">
        <ele>523.6</ele>
        <time>2019-08-13T08:48:29Z</time>
      </trkpt>
      <trkpt lat="39.9863580" lon="-4.2385160">
        <ele>523.8</ele>
        <time>2019-08-13T08:48:30Z</time>
      </trkpt>
      <trkpt lat="39.9863460" lon="-4.2385650">
        <ele>523.8</ele>
        <time>2019-08-13T08:48:31Z</time>
      </trkpt>
      <trkpt lat="39.9863410" lon="-4.2386160">
        <ele>524.0</ele>
        <time>2019-08-13T08:48:32Z</time>
      </trkpt>
      <trkpt lat="39.9863410" lon="-4.2386690">
        <ele>524.1</ele>
        <time>2019-08-13T08:48:33Z</time>
      </trkpt>
      <trkpt lat="39.9863400" lon="-4.2387230">
        <ele>524.3</ele>
        <time>2019-08-13T08:48:34Z</time>
      </trkpt>
      <trkpt lat="39.9863420" lon="-4.2387750">
        <ele>524.4</ele>
        <time>2019-08-13T08:48:35Z</time>
      </trkpt>
      <trkpt lat="39.9863500" lon="-4.2388260">
        <ele>524.6</ele>
        <time>2019-08-13T08:48:36Z</time>
      </trkpt>
      <trkpt lat="39.9863630" lon="-4.2388760">
        <ele>524.7</ele>
        <time>2019-08-13T08:48:37Z</time>
      </trkpt>
      <trkpt lat="39.9863800" lon="-4.2389230">
        <ele>524.8</ele>
        <time>2019-08-13T08:48:38Z</time>
      </trkpt>
      <trkpt lat="39.9864010" lon="-4.2389670">
        <ele>524.9</ele>
        <time>2019-08-13T08:48:39Z</time>
      </trkpt>
      <trkpt lat="39.9864220" lon="-4.2390110">
        <ele>525.0</ele>
        <time>2019-08-13T08:48:40Z</time>
      </trkpt>
      <trkpt lat="39.9864420" lon="-4.2390590">
        <ele>525.1</ele>
        <time>2019-08-13T08:48:41Z</time>
      </trkpt>
      <trkpt lat="39.9864630" lon="-4.2391050">
        <ele>525.2</ele>
        <time>2019-08-13T08:48:42Z</time>
      </trkpt>
      <trkpt lat="39.9864860" lon="-4.2391510">
        <ele>525.3</ele>
        <time>2019-08-13T08:48:43Z</time>
      </trkpt>
      <trkpt lat="39.9865110" lon="-4.2391940">
        <ele>525.4</ele>
        <time>2019-08-13T08:48:44Z</time>
      </trkpt>
      <trkpt lat="39.9865350" lon="-4.2392370">
        <ele>525.5</ele>
        <time>2019-08-13T08:48:45Z</time>
      </trkpt>
      <trkpt lat="39.9865590" lon="-4.2392790">
        <ele>525.6</ele>
        <time>2019-08-13T08:48:46Z</time>
      </trkpt>
      <trkpt lat="39.9865770" lon="-4.2393220">
        <ele>525.6</ele>
        <time>2019-08-13T08:48:47Z</time>
      </trkpt>
      <trkpt lat="39.9865940" lon="-4.2393700">
        <ele>525.7</ele>
        <time>2019-08-13T08:48:48Z</time>
      </trkpt>
      <trkpt lat="39.9866060" lon="-4.2394170">
        <ele>525.7</ele>
        <time>2019-08-13T08:48:49Z</time>
      </trkpt>
      <trkpt lat="39.9866160" lon="-4.2394670">
        <ele>525.7</ele>
        <time>2019-08-13T08:48:50Z</time>
      </trkpt>
      <trkpt lat="39.9866250" lon="-4.2395160">
        <ele>525.8</ele>
        <time>2019-08-13T08:48:51Z</time>
      </trkpt>
      <trkpt lat="39.9866350" lon="-4.2395660">
        <ele>525.8</ele>
        <time>2019-08-13T08:48:52Z</time>
      </trkpt>
      <trkpt lat="39.9866460" lon="-4.2396140">
        <ele>525.8</ele>
        <time>2019-08-13T08:48:53Z</time>
      </trkpt>
      <trkpt lat="39.9866570" lon="-4.2396620">
        <ele>525.9</ele>
        <time>2019-08-13T08:48:54Z</time>
      </trkpt>
      <trkpt lat="39.9866690" lon="-4.2397100">
        <ele>525.9</ele>
        <time>2019-08-13T08:48:55Z</time>
      </trkpt>
      <trkpt lat="39.9866800" lon="-4.2397560">
        <ele>525.9</ele>
        <time>2019-08-13T08:48:56Z</time>
      </trkpt>
      <trkpt lat="39.9866910" lon="-4.2398050">
        <ele>526.0</ele>
        <time>2019-08-13T08:48:57Z</time>
      </trkpt>
      <trkpt lat="39.9867020" lon="-4.2398570">
        <ele>526.0</ele>
        <time>2019-08-13T08:48:58Z</time>
      </trkpt>
      <trkpt lat="39.9867100" lon="-4.2399130">
        <ele>526.0</ele>
        <time>2019-08-13T08:48:59Z</time>
      </trkpt>
      <trkpt lat="39.9867140" lon="-4.2399700">
        <ele>526.0</ele>
        <time>2019-08-13T08:49:00Z</time>
      </trkpt>
      <trkpt lat="39.9867180" lon="-4.2400280">
        <ele>526.1</ele>
        <time>2019-08-13T08:49:01Z</time>
      </trkpt>
      <trkpt lat="39.9867200" lon="-4.2400840">
        <ele>526.1</ele>
        <time>2019-08-13T08:49:02Z</time>
      </trkpt>
      <trkpt lat="39.9867290" lon="-4.2401380">
        <ele>526.1</ele>
        <time>2019-08-13T08:49:03Z</time>
      </trkpt>
      <trkpt lat="39.9867370" lon="-4.2401900">
        <ele>526.2</ele>
        <time>2019-08-13T08:49:04Z</time>
      </trkpt>
      <trkpt lat="39.9867450" lon="-4.2402420">
        <ele>526.2</ele>
        <time>2019-08-13T08:49:05Z</time>
      </trkpt>
      <trkpt lat="39.9867530" lon="-4.2402950">
        <ele>526.3</ele>
        <time>2019-08-13T08:49:06Z</time>
      </trkpt>
      <trkpt lat="39.9867610" lon="-4.2403500">
        <ele>526.3</ele>
        <time>2019-08-13T08:49:07Z</time>
      </trkpt>
      <trkpt lat="39.9867720" lon="-4.2403950">
        <ele>526.4</ele>
        <time>2019-08-13T08:49:08Z</time>
      </trkpt>
      <trkpt lat="39.9867830" lon="-4.2404480">
        <ele>526.4</ele>
        <time>2019-08-13T08:49:09Z</time>
      </trkpt>
      <trkpt lat="39.9867920" lon="-4.2405090">
        <ele>526.5</ele>
        <time>2019-08-13T08:49:10Z</time>
      </trkpt>
      <trkpt lat="39.9868000" lon="-4.2405660">
        <ele>526.6</ele>
        <time>2019-08-13T08:49:11Z</time>
      </trkpt>
      <trkpt lat="39.9868060" lon="-4.2406240">
        <ele>526.7</ele>
        <time>2019-08-13T08:49:12Z</time>
      </trkpt>
      <trkpt lat="39.9868140" lon="-4.2406840">
        <ele>526.8</ele>
        <time>2019-08-13T08:49:13Z</time>
      </trkpt>
      <trkpt lat="39.9868220" lon="-4.2407430">
        <ele>526.9</ele>
        <time>2019-08-13T08:49:14Z</time>
      </trkpt>
      <trkpt lat="39.9868340" lon="-4.2407970">
        <ele>527.0</ele>
        <time>2019-08-13T08:49:15Z</time>
      </trkpt>
      <trkpt lat="39.9868460" lon="-4.2408500">
        <ele>527.1</ele>
        <time>2019-08-13T08:49:16Z</time>
      </trkpt>
      <trkpt lat="39.9868570" lon="-4.2409040">
        <ele>527.2</ele>
        <time>2019-08-13T08:49:17Z</time>
      </trkpt>
      <trkpt lat="39.9868670" lon="-4.2409570">
        <ele>527.3</ele>
        <time>2019-08-13T08:49:18Z</time>
      </trkpt>
      <trkpt lat="39.9868790" lon="-4.2410140">
        <ele>527.5</ele>
        <time>2019-08-13T08:49:19Z</time>
      </trkpt>
      <trkpt lat="39.9868920" lon="-4.2410740">
        <ele>527.6</ele>
        <time>2019-08-13T08:49:20Z</time>
      </trkpt>
      <trkpt lat="39.9869060" lon="-4.2411300">
        <ele>527.7</ele>
        <time>2019-08-13T08:49:21Z</time>
      </trkpt>
      <trkpt lat="39.9869180" lon="-4.2411830">
        <ele>527.9</ele>
        <time>2019-08-13T08:49:22Z</time>
      </trkpt>
      <trkpt lat="39.9869290" lon="-4.2412420">
        <ele>528.0</ele>
        <time>2019-08-13T08:49:23Z</time>
      </trkpt>
      <trkpt lat="39.9869410" lon="-4.2412960">
        <ele>528.1</ele>
        <time>2019-08-13T08:49:24Z</time>
      </trkpt>
      <trkpt lat="39.9869530" lon="-4.2413490">
        <ele>528.2</ele>
        <time>2019-08-13T08:49:25Z</time>
      </trkpt>
      <trkpt lat="39.9869640" lon="-4.2414050">
        <ele>528.4</ele>
        <time>2019-08-13T08:49:26Z</time>
      </trkpt>
      <trkpt lat="39.9869760" lon="-4.2414590">
        <ele>528.5</ele>
        <time>2019-08-13T08:49:27Z</time>
      </trkpt>
      <trkpt lat="39.9869870" lon="-4.2415140">
        <ele>528.6</ele>
        <time>2019-08-13T08:49:28Z</time>
      </trkpt>
      <trkpt lat="39.9869990" lon="-4.2415690">
        <ele>528.8</ele>
        <time>2019-08-13T08:49:29Z</time>
      </trkpt>
      <trkpt lat="39.9870100" lon="-4.2416210">
        <ele>528.9</ele>
        <time>2019-08-13T08:49:30Z</time>
      </trkpt>
      <trkpt lat="39.9870210" lon="-4.2416710">
        <ele>529.0</ele>
        <time>2019-08-13T08:49:31Z</time>
      </trkpt>
      <trkpt lat="39.9870310" lon="-4.2417210">
        <ele>529.1</ele>
        <time>2019-08-13T08:49:32Z</time>
      </trkpt>
      <trkpt lat="39.9870420" lon="-4.2417730">
        <ele>529.2</ele>
        <time>2019-08-13T08:49:33Z</time>
      </trkpt>
      <trkpt lat="39.9870530" lon="-4.2418230">
        <ele>529.3</ele>
        <time>2019-08-13T08:49:34Z</time>
      </trkpt>
      <trkpt lat="39.9870660" lon="-4.2418750">
        <ele>529.4</ele>
        <time>2019-08-13T08:49:35Z</time>
      </trkpt>
      <trkpt lat="39.9870780" lon="-4.2419290">
        <ele>529.5</ele>
        <time>2019-08-13T08:49:36Z</time>
      </trkpt>
      <trkpt lat="39.9870890" lon="-4.2419840">
        <ele>529.6</ele>
        <time>2019-08-13T08:49:37Z</time>
      </trkpt>
      <trkpt lat="39.9870990" lon="-4.2420390">
        <ele>529.7</ele>
        <time>2019-08-13T08:49:38Z</time>
      </trkpt>
      <trkpt lat="39.9871090" lon="-4.2420950">
        <ele>529.8</ele>
        <time>2019-08-13T08:49:39Z</time>
      </trkpt>
      <trkpt lat="39.9871200" lon="-4.2421500">
        <ele>530.0</ele>
        <time>2019-08-13T08:49:40Z</time>
      </trkpt>
      <trkpt lat="39.9871290" lon="-4.2422050">
        <ele>530.1</ele>
        <time>2019-08-13T08:49:41Z</time>
      </trkpt>
      <trkpt lat="39.9871370" lon="-4.2422610">
        <ele>530.2</ele>
        <time>2019-08-13T08:49:42Z</time>
      </trkpt>
      <trkpt lat="39.9871470" lon="-4.2423160">
        <ele>530.3</ele>
        <time>2019-08-13T08:49:43Z</time>
      </trkpt>
      <trkpt lat="39.9871560" lon="-4.2423710">
        <ele>530.4</ele>
        <time>2019-08-13T08:49:44Z</time>
      </trkpt>
      <trkpt lat="39.9871640" lon="-4.2424270">
        <ele>530.5</ele>
        <time>2019-08-13T08:49:45Z</time>
      </trkpt>
      <trkpt lat="39.9871720" lon="-4.2424830">
        <ele>530.6</ele>
        <time>2019-08-13T08:49:46Z</time>
      </trkpt>
      <trkpt lat="39.9871810" lon="-4.2425400">
        <ele>530.7</ele>
        <time>2019-08-13T08:49:47Z</time>
      </trkpt>
      <trkpt lat="39.9871900" lon="-4.2425950">
        <ele>530.8</ele>
        <time>2019-08-13T08:49:48Z</time>
      </trkpt>
      <trkpt lat="39.9871990" lon="-4.2426500">
        <ele>530.9</ele>
        <time>2019-08-13T08:49:49Z</time>
      </trkpt>
      <trkpt lat="39.9872090" lon="-4.2427040">
        <ele>531.0</ele>
        <time>2019-08-13T08:49:50Z</time>
      </trkpt>
      <trkpt lat="39.9872200" lon="-4.2427590">
        <ele>531.1</ele>
        <time>2019-08-13T08:49:51Z</time>
      </trkpt>
      <trkpt lat="39.9872300" lon="-4.2428150">
        <ele>531.1</ele>
        <time>2019-08-13T08:49:52Z</time>
      </trkpt>
      <trkpt lat="39.9872390" lon="-4.2428700">
        <ele>531.2</ele>
        <time>2019-08-13T08:49:53Z</time>
      </trkpt>
      <trkpt lat="39.9872500" lon="-4.2429260">
        <ele>531.3</ele>
        <time>2019-08-13T08:49:54Z</time>
      </trkpt>
      <trkpt lat="39.9872600" lon="-4.2429810">
        <ele>531.4</ele>
        <time>2019-08-13T08:49:55Z</time>
      </trkpt>
      <trkpt lat="39.9872710" lon="-4.2430370">
        <ele>531.4</ele>
        <time>2019-08-13T08:49:56Z</time>
      </trkpt>
      <trkpt lat="39.9872820" lon="-4.2430920">
        <ele>531.5</ele>
        <time>2019-08-13T08:49:57Z</time>
      </trkpt>
      <trkpt lat="39.9872930" lon="-4.2431460">
        <ele>531.6</ele>
        <time>2019-08-13T08:49:58Z</time>
      </trkpt>
      <trkpt lat="39.9873040" lon="-4.2432000">
        <ele>531.7</ele>
        <time>2019-08-13T08:49:59Z</time>
      </trkpt>
      <trkpt lat="39.9873140" lon="-4.2432550">
        <ele>531.7</ele>
        <time>2019-08-13T08:50:00Z</time>
      </trkpt>
      <trkpt lat="39.9873240" lon="-4.2433110">
        <ele>531.8</ele>
        <time>2019-08-13T08:50:01Z</time>
      </trkpt>
      <trkpt lat="39.9873330" lon="-4.2433660">
        <ele>531.9</ele>
        <time>2019-08-13T08:50:02Z</time>
      </trkpt>
      <trkpt lat="39.9873440" lon="-4.2434220">
        <ele>532.0</ele>
        <time>2019-08-13T08:50:03Z</time>
      </trkpt>
      <trkpt lat="39.9873550" lon="-4.2434780">
        <ele>532.1</ele>
        <time>2019-08-13T08:50:04Z</time>
      </trkpt>
      <trkpt lat="39.9873660" lon="-4.2435330">
        <ele>532.3</ele>
        <time>2019-08-13T08:50:05Z</time>
      </trkpt>
      <trkpt lat="39.9873770" lon="-4.2435890">
        <ele>532.5</ele>
        <time>2019-08-13T08:50:06Z</time>
      </trkpt>
      <trkpt lat="39.9873870" lon="-4.2436460">
        <ele>532.7</ele>
        <time>2019-08-13T08:50:07Z</time>
      </trkpt>
      <trkpt lat="39.9873970" lon="-4.2437020">
        <ele>532.9</ele>
        <time>2019-08-13T08:50:08Z</time>
      </trkpt>
      <trkpt lat="39.9874080" lon="-4.2437570">
        <ele>533.1</ele>
        <time>2019-08-13T08:50:09Z</time>
      </trkpt>
      <trkpt lat="39.9874200" lon="-4.2438130">
        <ele>533.3</ele>
        <time>2019-08-13T08:50:10Z</time>
      </trkpt>
      <trkpt lat="39.9874320" lon="-4.2438670">
        <ele>533.5</ele>
        <time>2019-08-13T08:50:11Z</time>
      </trkpt>
      <trkpt lat="39.9874450" lon="-4.2439200">
        <ele>533.6</ele>
        <time>2019-08-13T08:50:12Z</time>
      </trkpt>
      <trkpt lat="39.9874560" lon="-4.2439760">
        <ele>533.8</ele>
        <time>2019-08-13T08:50:13Z</time>
      </trkpt>
      <trkpt lat="39.9874670" lon="-4.2440330">
        <ele>534.0</ele>
        <time>2019-08-13T08:50:14Z</time>
      </trkpt>
      <trkpt lat="39.9874780" lon="-4.2440890">
        <ele>534.2</ele>
        <time>2019-08-13T08:50:15Z</time>
      </trkpt>
      <trkpt lat="39.9874900" lon="-4.2441470">
        <ele>534.4</ele>
        <time>2019-08-13T08:50:16Z</time>
      </trkpt>
      <trkpt lat="39.9875020" lon="-4.2442050">
        <ele>534.6</ele>
        <time>2019-08-13T08:50:17Z</time>
      </trkpt>
      <trkpt lat="39.9875150" lon="-4.2442630">
        <ele>534.8</ele>
        <time>2019-08-13T08:50:18Z</time>
      </trkpt>
      <trkpt lat="39.9875260" lon="-4.2443220">
        <ele>535.0</ele>
        <time>2019-08-13T08:50:19Z</time>
      </trkpt>
      <trkpt lat="39.9875370" lon="-4.2443810">
        <ele>535.1</ele>
        <time>2019-08-13T08:50:20Z</time>
      </trkpt>
      <trkpt lat="39.9875480" lon="-4.2444400">
        <ele>535.3</ele>
        <time>2019-08-13T08:50:21Z</time>
      </trkpt>
      <trkpt lat="39.9875590" lon="-4.2444990">
        <ele>535.5</ele>
        <time>2019-08-13T08:50:22Z</time>
      </trkpt>
      <trkpt lat="39.9875680" lon="-4.2445570">
        <ele>535.7</ele>
        <time>2019-08-13T08:50:23Z</time>
      </trkpt>
      <trkpt lat="39.9875770" lon="-4.2446150">
        <ele>536.0</ele>
        <time>2019-08-13T08:50:24Z</time>
      </trkpt>
      <trkpt lat="39.9875860" lon="-4.2446730">
        <ele>536.2</ele>
        <time>2019-08-13T08:50:25Z</time>
      </trkpt>
      <trkpt lat="39.9875970" lon="-4.2447280">
        <ele>536.4</ele>
        <time>2019-08-13T08:50:26Z</time>
      </trkpt>
      <trkpt lat="39.9876080" lon="-4.2447810">
        <ele>536.6</ele>
        <time>2019-08-13T08:50:27Z</time>
      </trkpt>
      <trkpt lat="39.9876200" lon="-4.2448340">
        <ele>536.8</ele>
        <time>2019-08-13T08:50:28Z</time>
      </trkpt>
      <trkpt lat="39.9876320" lon="-4.2448860">
        <ele>536.9</ele>
        <time>2019-08-13T08:50:29Z</time>
      </trkpt>
      <trkpt lat="39.9876430" lon="-4.2449390">
        <ele>537.1</ele>
        <time>2019-08-13T08:50:30Z</time>
      </trkpt>
      <trkpt lat="39.9876540" lon="-4.2449900">
        <ele>537.3</ele>
        <time>2019-08-13T08:50:31Z</time>
      </trkpt>
      <trkpt lat="39.9876640" lon="-4.2450410">
        <ele>537.4</ele>
        <time>2019-08-13T08:50:32Z</time>
      </trkpt>
      <trkpt lat="39.9876740" lon="-4.2450910">
        <ele>537.6</ele>
        <time>2019-08-13T08:50:33Z</time>
      </trkpt>
      <trkpt lat="39.9876840" lon="-4.2451400">
        <ele>537.7</ele>
        <time>2019-08-13T08:50:34Z</time>
      </trkpt>
      <trkpt lat="39.9876940" lon="-4.2451860">
        <ele>537.9</ele>
        <time>2019-08-13T08:50:35Z</time>
      </trkpt>
      <trkpt lat="39.9877020" lon="-4.2452300">
        <ele>538.0</ele>
        <time>2019-08-13T08:50:36Z</time>
      </trkpt>
      <trkpt lat="39.9877090" lon="-4.2452720">
        <ele>538.2</ele>
        <time>2019-08-13T08:50:37Z</time>
      </trkpt>
      <trkpt lat="39.9877170" lon="-4.2453110">
        <ele>538.3</ele>
        <time>2019-08-13T08:50:38Z</time>
      </trkpt>
      <trkpt lat="39.9877270" lon="-4.2453530">
        <ele>538.5</ele>
        <time>2019-08-13T08:50:39Z</time>
      </trkpt>
      <trkpt lat="39.9877350" lon="-4.2453970">
        <ele>538.6</ele>
        <time>2019-08-13T08:50:40Z</time>
      </trkpt>
      <trkpt lat="39.9877440" lon="-4.2454420">
        <ele>538.7</ele>
        <time>2019-08-13T08:50:41Z</time>
      </trkpt>
      <trkpt lat="39.9877540" lon="-4.2454880">
        <ele>538.8</ele>
        <time>2019-08-13T08:50:42Z</time>
      </trkpt>
      <trkpt lat="39.9877650" lon="-4.2455350">
        <ele>538.9</ele>
        <time>2019-08-13T08:50:43Z</time>
      </trkpt>
      <trkpt lat="39.9877770" lon="-4.2455850">
        <ele>539.1</ele>
        <time>2019-08-13T08:50:44Z</time>
      </trkpt>
      <trkpt lat="39.9877890" lon="-4.2456360">
        <ele>539.2</ele>
        <time>2019-08-13T08:50:45Z</time>
      </trkpt>
      <trkpt lat="39.9877990" lon="-4.2456880">
        <ele>539.3</ele>
        <time>2019-08-13T08:50:46Z</time>
      </trkpt>
      <trkpt lat="39.9878100" lon="-4.2457390">
        <ele>539.4</ele>
        <time>2019-08-13T08:50:47Z</time>
      </trkpt>
      <trkpt lat="39.9878200" lon="-4.2457860">
        <ele>539.5</ele>
        <time>2019-08-13T08:50:48Z</time>
      </trkpt>
      <trkpt lat="39.9878280" lon="-4.2458310">
        <ele>539.6</ele>
        <time>2019-08-13T08:50:49Z</time>
      </trkpt>
      <trkpt lat="39.9878370" lon="-4.2458750">
        <ele>539.7</ele>
        <time>2019-08-13T08:50:50Z</time>
      </trkpt>
      <trkpt lat="39.9878460" lon="-4.2459180">
        <ele>539.8</ele>
        <time>2019-08-13T08:50:51Z</time>
      </trkpt>
      <trkpt lat="39.9878540" lon="-4.2459610">
        <ele>540.0</ele>
        <time>2019-08-13T08:50:52Z</time>
      </trkpt>
      <trkpt lat="39.9878610" lon="-4.2460050">
        <ele>540.1</ele>
        <time>2019-08-13T08:50:53Z</time>
      </trkpt>
      <trkpt lat="39.9878690" lon="-4.2460500">
        <ele>540.2</ele>
        <time>2019-08-13T08:50:54Z</time>
      </trkpt>
      <trkpt lat="39.9878750" lon="-4.2460970">
        <ele>540.3</ele>
        <time>2019-08-13T08:50:55Z</time>
      </trkpt>
      <trkpt lat="39.9878820" lon="-4.2461430">
        <ele>540.4</ele>
        <time>2019-08-13T08:50:56Z</time>
      </trkpt>
      <trkpt lat="39.9878900" lon="-4.2461910">
        <ele>540.5</ele>
        <time>2019-08-13T08:50:57Z</time>
      </trkpt>
      <trkpt lat="39.9878990" lon="-4.2462380">
        <ele>540.7</ele>
        <time>2019-08-13T08:50:58Z</time>
      </trkpt>
      <trkpt lat="39.9879080" lon="-4.2462840">
        <ele>540.9</ele>
        <time>2019-08-13T08:50:59Z</time>
      </trkpt>
      <trkpt lat="39.9879170" lon="-4.2463300">
        <ele>541.0</ele>
        <time>2019-08-13T08:51:00Z</time>
      </trkpt>
      <trkpt lat="39.9879270" lon="-4.2463770">
        <ele>541.2</ele>
        <time>2019-08-13T08:51:01Z</time>
      </trkpt>
      <trkpt lat="39.9879370" lon="-4.2464250">
        <ele>541.3</ele>
        <time>2019-08-13T08:51:02Z</time>
      </trkpt>
      <trkpt lat="39.9879470" lon="-4.2464730">
        <ele>541.5</ele>
        <time>2019-08-13T08:51:03Z</time>
      </trkpt>
      <trkpt lat="39.9879570" lon="-4.2465210">
        <ele>541.6</ele>
        <time>2019-08-13T08:51:04Z</time>
      </trkpt>
      <trkpt lat="39.9879670" lon="-4.2465700">
        <ele>541.7</ele>
        <time>2019-08-13T08:51:05Z</time>
      </trkpt>
      <trkpt lat="39.9879760" lon="-4.2466190">
        <ele>541.9</ele>
        <time>2019-08-13T08:51:06Z</time>
      </trkpt>
      <trkpt lat="39.9879850" lon="-4.2466700">
        <ele>542.0</ele>
        <time>2019-08-13T08:51:07Z</time>
      </trkpt>
      <trkpt lat="39.9879940" lon="-4.2467210">
        <ele>542.1</ele>
        <time>2019-08-13T08:51:08Z</time>
      </trkpt>
      <trkpt lat="39.9880040" lon="-4.2467730">
        <ele>542.3</ele>
        <time>2019-08-13T08:51:09Z</time>
      </trkpt>
      <trkpt lat="39.9880130" lon="-4.2468230">
        <ele>542.4</ele>
        <time>2019-08-13T08:51:10Z</time>
      </trkpt>
      <trkpt lat="39.9880230" lon="-4.2468730">
        <ele>542.5</ele>
        <time>2019-08-13T08:51:11Z</time>
      </trkpt>
      <trkpt lat="39.9880340" lon="-4.2469230">
        <ele>542.7</ele>
        <time>2019-08-13T08:51:12Z</time>
      </trkpt>
      <trkpt lat="39.9880460" lon="-4.2469710">
        <ele>542.8</ele>
        <time>2019-08-13T08:51:13Z</time>
      </trkpt>
      <trkpt lat="39.9880590" lon="-4.2470190">
        <ele>543.0</ele>
        <time>2019-08-13T08:51:14Z</time>
      </trkpt>
      <trkpt lat="39.9880700" lon="-4.2470690">
        <ele>543.1</ele>
        <time>2019-08-13T08:51:15Z</time>
      </trkpt>
      <trkpt lat="39.9880810" lon="-4.2471170">
        <ele>543.3</ele>
        <time>2019-08-13T08:51:16Z</time>
      </trkpt>
      <trkpt lat="39.9880910" lon="-4.2471650">
        <ele>543.4</ele>
        <time>2019-08-13T08:51:17Z</time>
      </trkpt>
      <trkpt lat="39.9881010" lon="-4.2472130">
        <ele>543.6</ele>
        <time>2019-08-13T08:51:18Z</time>
      </trkpt>
      <trkpt lat="39.9881110" lon="-4.2472620">
        <ele>543.7</ele>
        <time>2019-08-13T08:51:19Z</time>
      </trkpt>
      <trkpt lat="39.9881220" lon="-4.2473100">
        <ele>543.9</ele>
        <time>2019-08-13T08:51:20Z</time>
      </trkpt>
      <trkpt lat="39.9881340" lon="-4.2473570">
        <ele>544.0</ele>
        <time>2019-08-13T08:51:21Z</time>
      </trkpt>
      <trkpt lat="39.9881440" lon="-4.2474060">
        <ele>544.2</ele>
        <time>2019-08-13T08:51:22Z</time>
      </trkpt>
      <trkpt lat="39.9881510" lon="-4.2474570">
        <ele>544.3</ele>
        <time>2019-08-13T08:51:23Z</time>
      </trkpt>
      <trkpt lat="39.9881610" lon="-4.2475070">
        <ele>544.5</ele>
        <time>2019-08-13T08:51:24Z</time>
      </trkpt>
      <trkpt lat="39.9881700" lon="-4.2475550">
        <ele>544.6</ele>
        <time>2019-08-13T08:51:25Z</time>
      </trkpt>
      <trkpt lat="39.9881780" lon="-4.2476010">
        <ele>544.8</ele>
        <time>2019-08-13T08:51:26Z</time>
      </trkpt>
      <trkpt lat="39.9881880" lon="-4.2476460">
        <ele>544.9</ele>
        <time>2019-08-13T08:51:27Z</time>
      </trkpt>
      <trkpt lat="39.9881990" lon="-4.2476920">
        <ele>545.0</ele>
        <time>2019-08-13T08:51:28Z</time>
      </trkpt>
      <trkpt lat="39.9882080" lon="-4.2477380">
        <ele>545.2</ele>
        <time>2019-08-13T08:51:29Z</time>
      </trkpt>
      <trkpt lat="39.9882160" lon="-4.2477840">
        <ele>545.3</ele>
        <time>2019-08-13T08:51:30Z</time>
      </trkpt>
      <trkpt lat="39.9882250" lon="-4.2478290">
        <ele>545.4</ele>
        <time>2019-08-13T08:51:31Z</time>
      </trkpt>
      <trkpt lat="39.9882340" lon="-4.2478720">
        <ele>545.5</ele>
        <time>2019-08-13T08:51:32Z</time>
      </trkpt>
      <trkpt lat="39.9882430" lon="-4.2479150">
        <ele>545.6</ele>
        <time>2019-08-13T08:51:33Z</time>
      </trkpt>
      <trkpt lat="39.9882530" lon="-4.2479580">
        <ele>545.7</ele>
        <time>2019-08-13T08:51:34Z</time>
      </trkpt>
      <trkpt lat="39.9882630" lon="-4.2480010">
        <ele>545.7</ele>
        <time>2019-08-13T08:51:35Z</time>
      </trkpt>
      <trkpt lat="39.9882750" lon="-4.2480450">
        <ele>545.8</ele>
        <time>2019-08-13T08:51:36Z</time>
      </trkpt>
      <trkpt lat="39.9882860" lon="-4.2480870">
        <ele>545.9</ele>
        <time>2019-08-13T08:51:37Z</time>
      </trkpt>
      <trkpt lat="39.9882980" lon="-4.2481300">
        <ele>546.0</ele>
        <time>2019-08-13T08:51:38Z</time>
      </trkpt>
      <trkpt lat="39.9883100" lon="-4.2481730">
        <ele>546.1</ele>
        <time>2019-08-13T08:51:39Z</time>
      </trkpt>
      <trkpt lat="39.9883210" lon="-4.2482150">
        <ele>546.1</ele>
        <time>2019-08-13T08:51:40Z</time>
      </trkpt>
      <trkpt lat="39.9883330" lon="-4.2482580">
        <ele>546.2</ele>
        <time>2019-08-13T08:51:41Z</time>
      </trkpt>
      <trkpt lat="39.9883450" lon="-4.2483000">
        <ele>546.3</ele>
        <time>2019-08-13T08:51:42Z</time>
      </trkpt>
      <trkpt lat="39.9883590" lon="-4.2483400">
        <ele>546.3</ele>
        <time>2019-08-13T08:51:43Z</time>
      </trkpt>
      <trkpt lat="39.9883740" lon="-4.2483800">
        <ele>546.4</ele>
        <time>2019-08-13T08:51:44Z</time>
      </trkpt>
      <trkpt lat="39.9883890" lon="-4.2484210">
        <ele>546.4</ele>
        <time>2019-08-13T08:51:45Z</time>
      </trkpt>
      <trkpt lat="39.9884030" lon="-4.2484620">
        <ele>546.5</ele>
        <time>2019-08-13T08:51:46Z</time>
      </trkpt>
      <trkpt lat="39.9884160" lon="-4.2485010">
        <ele>546.5</ele>
        <time>2019-08-13T08:51:47Z</time>
      </trkpt>
      <trkpt lat="39.9884300" lon="-4.2485410">
        <ele>546.6</ele>
        <time>2019-08-13T08:51:48Z</time>
      </trkpt>
      <trkpt lat="39.9884430" lon="-4.2485800">
        <ele>546.6</ele>
        <time>2019-08-13T08:51:49Z</time>
      </trkpt>
      <trkpt lat="39.9884560" lon="-4.2486190">
        <ele>546.7</ele>
        <time>2019-08-13T08:51:50Z</time>
      </trkpt>
      <trkpt lat="39.9884690" lon="-4.2486590">
        <ele>546.7</ele>
        <time>2019-08-13T08:51:51Z</time>
      </trkpt>
      <trkpt lat="39.9884830" lon="-4.2486980">
        <ele>546.8</ele>
        <time>2019-08-13T08:51:52Z</time>
      </trkpt>
      <trkpt lat="39.9884970" lon="-4.2487370">
        <ele>546.8</ele>
        <time>2019-08-13T08:51:53Z</time>
      </trkpt>
      <trkpt lat="39.9885100" lon="-4.2487760">
        <ele>546.9</ele>
        <time>2019-08-13T08:51:54Z</time>
      </trkpt>
      <trkpt lat="39.9885230" lon="-4.2488160">
        <ele>546.9</ele>
        <time>2019-08-13T08:51:55Z</time>
      </trkpt>
      <trkpt lat="39.9885340" lon="-4.2488570">
        <ele>547.0</ele>
        <time>2019-08-13T08:51:56Z</time>
      </trkpt>
      <trkpt lat="39.9885430" lon="-4.2488960">
        <ele>547.1</ele>
        <time>2019-08-13T08:51:57Z</time>
      </trkpt>
      <trkpt lat="39.9885590" lon="-4.2489550">
        <ele>547.2</ele>
        <time>2019-08-13T08:51:59Z</time>
      </trkpt>
      <trkpt lat="39.9885720" lon="-4.2490020">
        <ele>547.3</ele>
        <time>2019-08-13T08:52:01Z</time>
      </trkpt>
      <trkpt lat="39.9885900" lon="-4.2490450">
        <ele>547.3</ele>
        <time>2019-08-13T08:52:03Z</time>
      </trkpt>
      <trkpt lat="39.9886190" lon="-4.2491010">
        <ele>547.5</ele>
        <time>2019-08-13T08:52:05Z</time>
      </trkpt>
      <trkpt lat="39.9886340" lon="-4.2491310">
        <ele>547.5</ele>
        <time>2019-08-13T08:52:06Z</time>
      </trkpt>
      <trkpt lat="39.9886480" lon="-4.2491690">
        <ele>547.6</ele>
        <time>2019-08-13T08:52:07Z</time>
      </trkpt>
      <trkpt lat="39.9886600" lon="-4.2492100">
        <ele>547.7</ele>
        <time>2019-08-13T08:52:08Z</time>
      </trkpt>
      <trkpt lat="39.9886720" lon="-4.2492490">
        <ele>547.9</ele>
        <time>2019-08-13T08:52:09Z</time>
      </trkpt>
      <trkpt lat="39.9886850" lon="-4.2492920">
        <ele>548.0</ele>
        <time>2019-08-13T08:52:10Z</time>
      </trkpt>
      <trkpt lat="39.9886960" lon="-4.2493340">
        <ele>548.1</ele>
        <time>2019-08-13T08:52:11Z</time>
      </trkpt>
      <trkpt lat="39.9887060" lon="-4.2493810">
        <ele>548.2</ele>
        <time>2019-08-13T08:52:12Z</time>
      </trkpt>
      <trkpt lat="39.9887170" lon="-4.2494300">
        <ele>548.3</ele>
        <time>2019-08-13T08:52:13Z</time>
      </trkpt>
      <trkpt lat="39.9887300" lon="-4.2494790">
        <ele>548.4</ele>
        <time>2019-08-13T08:52:14Z</time>
      </trkpt>
      <trkpt lat="39.9887440" lon="-4.2495310">
        <ele>548.5</ele>
        <time>2019-08-13T08:52:15Z</time>
      </trkpt>
      <trkpt lat="39.9887580" lon="-4.2495850">
        <ele>548.6</ele>
        <time>2019-08-13T08:52:16Z</time>
      </trkpt>
      <trkpt lat="39.9887710" lon="-4.2496380">
        <ele>548.8</ele>
        <time>2019-08-13T08:52:17Z</time>
      </trkpt>
      <trkpt lat="39.9887840" lon="-4.2496930">
        <ele>548.9</ele>
        <time>2019-08-13T08:52:18Z</time>
      </trkpt>
      <trkpt lat="39.9887970" lon="-4.2497460">
        <ele>549.0</ele>
        <time>2019-08-13T08:52:19Z</time>
      </trkpt>
      <trkpt lat="39.9888090" lon="-4.2498000">
        <ele>549.1</ele>
        <time>2019-08-13T08:52:20Z</time>
      </trkpt>
      <trkpt lat="39.9888230" lon="-4.2498540">
        <ele>549.2</ele>
        <time>2019-08-13T08:52:21Z</time>
      </trkpt>
      <trkpt lat="39.9888380" lon="-4.2499100">
        <ele>549.3</ele>
        <time>2019-08-13T08:52:22Z</time>
      </trkpt>
      <trkpt lat="39.9888520" lon="-4.2499650">
        <ele>549.4</ele>
        <time>2019-08-13T08:52:23Z</time>
      </trkpt>
      <trkpt lat="39.9888660" lon="-4.2500210">
        <ele>549.5</ele>
        <time>2019-08-13T08:52:24Z</time>
      </trkpt>
      <trkpt lat="39.9888800" lon="-4.2500760">
        <ele>549.6</ele>
        <time>2019-08-13T08:52:25Z</time>
      </trkpt>
      <trkpt lat="39.9888940" lon="-4.2501310">
        <ele>549.7</ele>
        <time>2019-08-13T08:52:26Z</time>
      </trkpt>
      <trkpt lat="39.9889080" lon="-4.2501850">
        <ele>549.8</ele>
        <time>2019-08-13T08:52:27Z</time>
      </trkpt>
      <trkpt lat="39.9889230" lon="-4.2502380">
        <ele>549.9</ele>
        <time>2019-08-13T08:52:28Z</time>
      </trkpt>
      <trkpt lat="39.9889380" lon="-4.2502900">
        <ele>550.0</ele>
        <time>2019-08-13T08:52:29Z</time>
      </trkpt>
      <trkpt lat="39.9889540" lon="-4.2503430">
        <ele>550.1</ele>
        <time>2019-08-13T08:52:30Z</time>
      </trkpt>
      <trkpt lat="39.9889690" lon="-4.2503960">
        <ele>550.3</ele>
        <time>2019-08-13T08:52:31Z</time>
      </trkpt>
      <trkpt lat="39.9889840" lon="-4.2504490">
        <ele>550.4</ele>
        <time>2019-08-13T08:52:32Z</time>
      </trkpt>
      <trkpt lat="39.9890000" lon="-4.2505040">
        <ele>550.6</ele>
        <time>2019-08-13T08:52:33Z</time>
      </trkpt>
      <trkpt lat="39.9890150" lon="-4.2505600">
        <ele>550.8</ele>
        <time>2019-08-13T08:52:34Z</time>
      </trkpt>
      <trkpt lat="39.9890310" lon="-4.2506150">
        <ele>551.0</ele>
        <time>2019-08-13T08:52:35Z</time>
      </trkpt>
      <trkpt lat="39.9890470" lon="-4.2506690">
        <ele>551.2</ele>
        <time>2019-08-13T08:52:36Z</time>
      </trkpt>
      <trkpt lat="39.9890630" lon="-4.2507240">
        <ele>551.5</ele>
        <time>2019-08-13T08:52:37Z</time>
      </trkpt>
      <trkpt lat="39.9890790" lon="-4.2507750">
        <ele>551.8</ele>
        <time>2019-08-13T08:52:38Z</time>
      </trkpt>
      <trkpt lat="39.9890960" lon="-4.2508250">
        <ele>552.1</ele>
        <time>2019-08-13T08:52:39Z</time>
      </trkpt>
      <trkpt lat="39.9891130" lon="-4.2508760">
        <ele>552.4</ele>
        <time>2019-08-13T08:52:40Z</time>
      </trkpt>
      <trkpt lat="39.9891300" lon="-4.2509260">
        <ele>552.7</ele>
        <time>2019-08-13T08:52:41Z</time>
      </trkpt>
      <trkpt lat="39.9891460" lon="-4.2509760">
        <ele>553.0</ele>
        <time>2019-08-13T08:52:42Z</time>
      </trkpt>
      <trkpt lat="39.9891630" lon="-4.2510280">
        <ele>553.3</ele>
        <time>2019-08-13T08:52:43Z</time>
      </trkpt>
      <trkpt lat="39.9891780" lon="-4.2510800">
        <ele>553.7</ele>
        <time>2019-08-13T08:52:44Z</time>
      </trkpt>
      <trkpt lat="39.9891940" lon="-4.2511300">
        <ele>553.9</ele>
        <time>2019-08-13T08:52:45Z</time>
      </trkpt>
      <trkpt lat="39.9892090" lon="-4.2511800">
        <ele>554.2</ele>
        <time>2019-08-13T08:52:46Z</time>
      </trkpt>
      <trkpt lat="39.9892230" lon="-4.2512300">
        <ele>554.4</ele>
        <time>2019-08-13T08:52:47Z</time>
      </trkpt>
      <trkpt lat="39.9892370" lon="-4.2512800">
        <ele>554.8</ele>
        <time>2019-08-13T08:52:48Z</time>
      </trkpt>
      <trkpt lat="39.9892490" lon="-4.2513310">
        <ele>555.2</ele>
        <time>2019-08-13T08:52:49Z</time>
      </trkpt>
      <trkpt lat="39.9892600" lon="-4.2513800">
        <ele>555.6</ele>
        <time>2019-08-13T08:52:50Z</time>
      </trkpt>
      <trkpt lat="39.9892700" lon="-4.2514300">
        <ele>555.9</ele>
        <time>2019-08-13T08:52:51Z</time>
      </trkpt>
      <trkpt lat="39.9892790" lon="-4.2514780">
        <ele>556.1</ele>
        <time>2019-08-13T08:52:52Z</time>
      </trkpt>
      <trkpt lat="39.9892850" lon="-4.2515240">
        <ele>556.4</ele>
        <time>2019-08-13T08:52:53Z</time>
      </trkpt>
      <trkpt lat="39.9892880" lon="-4.2515680">
        <ele>556.6</ele>
        <time>2019-08-13T08:52:54Z</time>
      </trkpt>
      <trkpt lat="39.9892900" lon="-4.2516110">
        <ele>556.9</ele>
        <time>2019-08-13T08:52:55Z</time>
      </trkpt>
      <trkpt lat="39.9892940" lon="-4.2516510">
        <ele>557.1</ele>
        <time>2019-08-13T08:52:56Z</time>
      </trkpt>
      <trkpt lat="39.9892990" lon="-4.2516910">
        <ele>557.3</ele>
        <time>2019-08-13T08:52:57Z</time>
      </trkpt>
      <trkpt lat="39.9893040" lon="-4.2517280">
        <ele>557.5</ele>
        <time>2019-08-13T08:52:58Z</time>
      </trkpt>
      <trkpt lat="39.9893160" lon="-4.2517940">
        <ele>557.7</ele>
        <time>2019-08-13T08:53:00Z</time>
      </trkpt>
      <trkpt lat="39.9893230" lon="-4.2518280">
        <ele>557.8</ele>
        <time>2019-08-13T08:53:01Z</time>
      </trkpt>
      <trkpt lat="39.9893300" lon="-4.2518620">
        <ele>557.8</ele>
        <time>2019-08-13T08:53:02Z</time>
      </trkpt>
      <trkpt lat="39.9893450" lon="-4.2519290">
        <ele>557.9</ele>
        <time>2019-08-13T08:53:04Z</time>
      </trkpt>
      <trkpt lat="39.9893610" lon="-4.2519880">
        <ele>558.0</ele>
        <time>2019-08-13T08:53:06Z</time>
      </trkpt>
      <trkpt lat="39.9893810" lon="-4.2520440">
        <ele>558.0</ele>
        <time>2019-08-13T08:53:08Z</time>
      </trkpt>
      <trkpt lat="39.9894010" lon="-4.2521060">
        <ele>558.1</ele>
        <time>2019-08-13T08:53:10Z</time>
      </trkpt>
      <trkpt lat="39.9894200" lon="-4.2521610">
        <ele>558.1</ele>
        <time>2019-08-13T08:53:12Z</time>
      </trkpt>
      <trkpt lat="39.9894350" lon="-4.2522070">
        <ele>558.1</ele>
        <time>2019-08-13T08:53:14Z</time>
      </trkpt>
      <trkpt lat="39.9894480" lon="-4.2522480">
        <ele>558.2</ele>
        <time>2019-08-13T08:53:16Z</time>
      </trkpt>
      <trkpt lat="39.9894650" lon="-4.2522890">
        <ele>558.2</ele>
        <time>2019-08-13T08:53:18Z</time>
      </trkpt>
      <trkpt lat="39.9894830" lon="-4.2523330">
        <ele>558.2</ele>
        <time>2019-08-13T08:53:20Z</time>
      </trkpt>
      <trkpt lat="39.9895050" lon="-4.2523790">
        <ele>558.2</ele>
        <time>2019-08-13T08:53:22Z</time>
      </trkpt>
      <trkpt lat="39.9895280" lon="-4.2524270">
        <ele>558.3</ele>
        <time>2019-08-13T08:53:24Z</time>
      </trkpt>
      <trkpt lat="39.9895570" lon="-4.2524890">
        <ele>558.3</ele>
        <time>2019-08-13T08:53:26Z</time>
      </trkpt>
      <trkpt lat="39.9895750" lon="-4.2525230">
        <ele>558.4</ele>
        <time>2019-08-13T08:53:27Z</time>
      </trkpt>
      <trkpt lat="39.9895930" lon="-4.2525590">
        <ele>558.4</ele>
        <time>2019-08-13T08:53:28Z</time>
      </trkpt>
      <trkpt lat="39.9896090" lon="-4.2525960">
        <ele>558.4</ele>
        <time>2019-08-13T08:53:29Z</time>
      </trkpt>
      <trkpt lat="39.9896240" lon="-4.2526360">
        <ele>558.5</ele>
        <time>2019-08-13T08:53:30Z</time>
      </trkpt>
      <trkpt lat="39.9896390" lon="-4.2526780">
        <ele>558.5</ele>
        <time>2019-08-13T08:53:31Z</time>
      </trkpt>
      <trkpt lat="39.9896550" lon="-4.2527180">
        <ele>558.5</ele>
        <time>2019-08-13T08:53:32Z</time>
      </trkpt>
      <trkpt lat="39.9896710" lon="-4.2527580">
        <ele>558.6</ele>
        <time>2019-08-13T08:53:33Z</time>
      </trkpt>
      <trkpt lat="39.9896870" lon="-4.2528000">
        <ele>558.7</ele>
        <time>2019-08-13T08:53:34Z</time>
      </trkpt>
      <trkpt lat="39.9897040" lon="-4.2528430">
        <ele>558.7</ele>
        <time>2019-08-13T08:53:35Z</time>
      </trkpt>
      <trkpt lat="39.9897230" lon="-4.2528880">
        <ele>558.8</ele>
        <time>2019-08-13T08:53:36Z</time>
      </trkpt>
      <trkpt lat="39.9897440" lon="-4.2529340">
        <ele>558.9</ele>
        <time>2019-08-13T08:53:37Z</time>
      </trkpt>
      <trkpt lat="39.9897670" lon="-4.2529810">
        <ele>558.9</ele>
        <time>2019-08-13T08:53:38Z</time>
      </trkpt>
      <trkpt lat="39.9897890" lon="-4.2530280">
        <ele>559.0</ele>
        <time>2019-08-13T08:53:39Z</time>
      </trkpt>
      <trkpt lat="39.9898100" lon="-4.2530720">
        <ele>559.1</ele>
        <time>2019-08-13T08:53:40Z</time>
      </trkpt>
      <trkpt lat="39.9898310" lon="-4.2531140">
        <ele>559.2</ele>
        <time>2019-08-13T08:53:41Z</time>
      </trkpt>
      <trkpt lat="39.9898520" lon="-4.2531530">
        <ele>559.3</ele>
        <time>2019-08-13T08:53:42Z</time>
      </trkpt>
      <trkpt lat="39.9898730" lon="-4.2531900">
        <ele>559.3</ele>
        <time>2019-08-13T08:53:43Z</time>
      </trkpt>
      <trkpt lat="39.9898960" lon="-4.2532260">
        <ele>559.4</ele>
        <time>2019-08-13T08:53:44Z</time>
      </trkpt>
      <trkpt lat="39.9899180" lon="-4.2532650">
        <ele>559.5</ele>
        <time>2019-08-13T08:53:45Z</time>
      </trkpt>
      <trkpt lat="39.9899380" lon="-4.2533040">
        <ele>559.6</ele>
        <time>2019-08-13T08:53:46Z</time>
      </trkpt>
      <trkpt lat="39.9899560" lon="-4.2533420">
        <ele>559.7</ele>
        <time>2019-08-13T08:53:47Z</time>
      </trkpt>
      <trkpt lat="39.9899760" lon="-4.2533760">
        <ele>559.8</ele>
        <time>2019-08-13T08:53:48Z</time>
      </trkpt>
      <trkpt lat="39.9900000" lon="-4.2534070">
        <ele>559.9</ele>
        <time>2019-08-13T08:53:49Z</time>
      </trkpt>
      <trkpt lat="39.9900250" lon="-4.2534390">
        <ele>560.0</ele>
        <time>2019-08-13T08:53:50Z</time>
      </trkpt>
      <trkpt lat="39.9900510" lon="-4.2534730">
        <ele>560.0</ele>
        <time>2019-08-13T08:53:51Z</time>
      </trkpt>
      <trkpt lat="39.9900790" lon="-4.2535080">
        <ele>560.1</ele>
        <time>2019-08-13T08:53:52Z</time>
      </trkpt>
      <trkpt lat="39.9901080" lon="-4.2535430">
        <ele>560.2</ele>
        <time>2019-08-13T08:53:53Z</time>
      </trkpt>
      <trkpt lat="39.9901380" lon="-4.2535780">
        <ele>560.3</ele>
        <time>2019-08-13T08:53:54Z</time>
      </trkpt>
      <trkpt lat="39.9901680" lon="-4.2536130">
        <ele>560.4</ele>
        <time>2019-08-13T08:53:55Z</time>
      </trkpt>
      <trkpt lat="39.9901990" lon="-4.2536500">
        <ele>560.5</ele>
        <time>2019-08-13T08:53:56Z</time>
      </trkpt>
      <trkpt lat="39.9902300" lon="-4.2536880">
        <ele>560.6</ele>
        <time>2019-08-13T08:53:57Z</time>
      </trkpt>
      <trkpt lat="39.9902620" lon="-4.2537250">
        <ele>560.6</ele>
        <time>2019-08-13T08:53:58Z</time>
      </trkpt>
      <trkpt lat="39.9902930" lon="-4.2537620">
        <ele>560.6</ele>
        <time>2019-08-13T08:53:59Z</time>
      </trkpt>
      <trkpt lat="39.9903220" lon="-4.2538000">
        <ele>560.7</ele>
        <time>2019-08-13T08:54:00Z</time>
      </trkpt>
      <trkpt lat="39.9903520" lon="-4.2538380">
        <ele>560.7</ele>
        <time>2019-08-13T08:54:01Z</time>
      </trkpt>
      <trkpt lat="39.9903820" lon="-4.2538750">
        <ele>560.7</ele>
        <time>2019-08-13T08:54:02Z</time>
      </trkpt>
      <trkpt lat="39.9904110" lon="-4.2539150">
        <ele>560.7</ele>
        <time>2019-08-13T08:54:03Z</time>
      </trkpt>
      <trkpt lat="39.9904430" lon="-4.2539570">
        <ele>560.7</ele>
        <time>2019-08-13T08:54:04Z</time>
      </trkpt>
      <trkpt lat="39.9904730" lon="-4.2539990">
        <ele>560.7</ele>
        <time>2019-08-13T08:54:05Z</time>
      </trkpt>
      <trkpt lat="39.9905020" lon="-4.2540390">
        <ele>560.7</ele>
        <time>2019-08-13T08:54:06Z</time>
      </trkpt>
      <trkpt lat="39.9905310" lon="-4.2540800">
        <ele>560.6</ele>
        <time>2019-08-13T08:54:07Z</time>
      </trkpt>
      <trkpt lat="39.9905590" lon="-4.2541220">
        <ele>560.6</ele>
        <time>2019-08-13T08:54:08Z</time>
      </trkpt>
      <trkpt lat="39.9905870" lon="-4.2541650">
        <ele>560.6</ele>
        <time>2019-08-13T08:54:09Z</time>
      </trkpt>
      <trkpt lat="39.9906160" lon="-4.2542120">
        <ele>560.5</ele>
        <time>2019-08-13T08:54:10Z</time>
      </trkpt>
      <trkpt lat="39.9906460" lon="-4.2542610">
        <ele>560.5</ele>
        <time>2019-08-13T08:54:11Z</time>
      </trkpt>
      <trkpt lat="39.9906770" lon="-4.2543130">
        <ele>560.4</ele>
        <time>2019-08-13T08:54:12Z</time>
      </trkpt>
      <trkpt lat="39.9907060" lon="-4.2543630">
        <ele>560.4</ele>
        <time>2019-08-13T08:54:13Z</time>
      </trkpt>
      <trkpt lat="39.9907350" lon="-4.2544130">
        <ele>560.3</ele>
        <time>2019-08-13T08:54:14Z</time>
      </trkpt>
      <trkpt lat="39.9907620" lon="-4.2544620">
        <ele>560.2</ele>
        <time>2019-08-13T08:54:15Z</time>
      </trkpt>
      <trkpt lat="39.9907900" lon="-4.2545120">
        <ele>560.1</ele>
        <time>2019-08-13T08:54:16Z</time>
      </trkpt>
      <trkpt lat="39.9908150" lon="-4.2545610">
        <ele>560.0</ele>
        <time>2019-08-13T08:54:17Z</time>
      </trkpt>
      <trkpt lat="39.9908420" lon="-4.2546120">
        <ele>559.9</ele>
        <time>2019-08-13T08:54:18Z</time>
      </trkpt>
      <trkpt lat="39.9908690" lon="-4.2546620">
        <ele>559.8</ele>
        <time>2019-08-13T08:54:19Z</time>
      </trkpt>
      <trkpt lat="39.9908950" lon="-4.2547120">
        <ele>559.7</ele>
        <time>2019-08-13T08:54:20Z</time>
      </trkpt>
      <trkpt lat="39.9909210" lon="-4.2547600">
        <ele>559.6</ele>
        <time>2019-08-13T08:54:21Z</time>
      </trkpt>
      <trkpt lat="39.9909470" lon="-4.2548090">
        <ele>559.4</ele>
        <time>2019-08-13T08:54:22Z</time>
      </trkpt>
      <trkpt lat="39.9909720" lon="-4.2548560">
        <ele>559.3</ele>
        <time>2019-08-13T08:54:23Z</time>
      </trkpt>
      <trkpt lat="39.9909950" lon="-4.2549020">
        <ele>559.2</ele>
        <time>2019-08-13T08:54:24Z</time>
      </trkpt>
      <trkpt lat="39.9910180" lon="-4.2549500">
        <ele>559.1</ele>
        <time>2019-08-13T08:54:25Z</time>
      </trkpt>
      <trkpt lat="39.9910400" lon="-4.2550020">
        <ele>558.9</ele>
        <time>2019-08-13T08:54:26Z</time>
      </trkpt>
      <trkpt lat="39.9910610" lon="-4.2550550">
        <ele>558.8</ele>
        <time>2019-08-13T08:54:27Z</time>
      </trkpt>
      <trkpt lat="39.9910820" lon="-4.2551070">
        <ele>558.6</ele>
        <time>2019-08-13T08:54:28Z</time>
      </trkpt>
      <trkpt lat="39.9911000" lon="-4.2551590">
        <ele>558.5</ele>
        <time>2019-08-13T08:54:29Z</time>
      </trkpt>
      <trkpt lat="39.9911190" lon="-4.2552090">
        <ele>558.3</ele>
        <time>2019-08-13T08:54:30Z</time>
      </trkpt>
      <trkpt lat="39.9911390" lon="-4.2552590">
        <ele>558.2</ele>
        <time>2019-08-13T08:54:31Z</time>
      </trkpt>
      <trkpt lat="39.9911580" lon="-4.2553100">
        <ele>558.0</ele>
        <time>2019-08-13T08:54:32Z</time>
      </trkpt>
      <trkpt lat="39.9911780" lon="-4.2553590">
        <ele>557.8</ele>
        <time>2019-08-13T08:54:33Z</time>
      </trkpt>
      <trkpt lat="39.9911980" lon="-4.2554090">
        <ele>557.7</ele>
        <time>2019-08-13T08:54:34Z</time>
      </trkpt>
      <trkpt lat="39.9912180" lon="-4.2554580">
        <ele>557.5</ele>
        <time>2019-08-13T08:54:35Z</time>
      </trkpt>
      <trkpt lat="39.9912380" lon="-4.2555080">
        <ele>557.3</ele>
        <time>2019-08-13T08:54:36Z</time>
      </trkpt>
      <trkpt lat="39.9912600" lon="-4.2555590">
        <ele>557.1</ele>
        <time>2019-08-13T08:54:37Z</time>
      </trkpt>
      <trkpt lat="39.9912810" lon="-4.2556120">
        <ele>556.9</ele>
        <time>2019-08-13T08:54:38Z</time>
      </trkpt>
      <trkpt lat="39.9912980" lon="-4.2556660">
        <ele>556.8</ele>
        <time>2019-08-13T08:54:39Z</time>
      </trkpt>
      <trkpt lat="39.9913100" lon="-4.2557230">
        <ele>556.6</ele>
        <time>2019-08-13T08:54:40Z</time>
      </trkpt>
      <trkpt lat="39.9913200" lon="-4.2557830">
        <ele>556.5</ele>
        <time>2019-08-13T08:54:41Z</time>
      </trkpt>
      <trkpt lat="39.9913350" lon="-4.2558470">
        <ele>556.3</ele>
        <time>2019-08-13T08:54:42Z</time>
      </trkpt>
      <trkpt lat="39.9913600" lon="-4.2559110">
        <ele>556.1</ele>
        <time>2019-08-13T08:54:43Z</time>
      </trkpt>
      <trkpt lat="39.9913940" lon="-4.2559710">
        <ele>556.0</ele>
        <time>2019-08-13T08:54:44Z</time>
      </trkpt>
      <trkpt lat="39.9914360" lon="-4.2560270">
        <ele>555.9</ele>
        <time>2019-08-13T08:54:45Z</time>
      </trkpt>
      <trkpt lat="39.9914790" lon="-4.2560830">
        <ele>555.7</ele>
        <time>2019-08-13T08:54:46Z</time>
      </trkpt>
      <trkpt lat="39.9915210" lon="-4.2561380">
        <ele>555.6</ele>
        <time>2019-08-13T08:54:47Z</time>
      </trkpt>
      <trkpt lat="39.9915660" lon="-4.2561940">
        <ele>555.5</ele>
        <time>2019-08-13T08:54:48Z</time>
      </trkpt>
      <trkpt lat="39.9916120" lon="-4.2562490">
        <ele>555.3</ele>
        <time>2019-08-13T08:54:49Z</time>
      </trkpt>
      <trkpt lat="39.9916570" lon="-4.2563060">
        <ele>555.2</ele>
        <time>2019-08-13T08:54:50Z</time>
      </trkpt>
      <trkpt lat="39.9917030" lon="-4.2563630">
        <ele>555.0</ele>
        <time>2019-08-13T08:54:51Z</time>
      </trkpt>
      <trkpt lat="39.9917490" lon="-4.2564180">
        <ele>554.7</ele>
        <time>2019-08-13T08:54:52Z</time>
      </trkpt>
      <trkpt lat="39.9917950" lon="-4.2564720">
        <ele>554.5</ele>
        <time>2019-08-13T08:54:53Z</time>
      </trkpt>
      <trkpt lat="39.9918420" lon="-4.2565270">
        <ele>554.3</ele>
        <time>2019-08-13T08:54:54Z</time>
      </trkpt>
      <trkpt lat="39.9918890" lon="-4.2565820">
        <ele>554.1</ele>
        <time>2019-08-13T08:54:55Z</time>
      </trkpt>
      <trkpt lat="39.9919360" lon="-4.2566370">
        <ele>553.9</ele>
        <time>2019-08-13T08:54:56Z</time>
      </trkpt>
      <trkpt lat="39.9919860" lon="-4.2566910">
        <ele>553.6</ele>
        <time>2019-08-13T08:54:57Z</time>
      </trkpt>
      <trkpt lat="39.9920370" lon="-4.2567460">
        <ele>553.4</ele>
        <time>2019-08-13T08:54:58Z</time>
      </trkpt>
      <trkpt lat="39.9920900" lon="-4.2568010">
        <ele>553.2</ele>
        <time>2019-08-13T08:54:59Z</time>
      </trkpt>
      <trkpt lat="39.9921450" lon="-4.2568560">
        <ele>553.0</ele>
        <time>2019-08-13T08:55:00Z</time>
      </trkpt>
      <trkpt lat="39.9922000" lon="-4.2569140">
        <ele>552.8</ele>
        <time>2019-08-13T08:55:01Z</time>
      </trkpt>
      <trkpt lat="39.9922560" lon="-4.2569740">
        <ele>552.6</ele>
        <time>2019-08-13T08:55:02Z</time>
      </trkpt>
      <trkpt lat="39.9923130" lon="-4.2570370">
        <ele>552.4</ele>
        <time>2019-08-13T08:55:03Z</time>
      </trkpt>
      <trkpt lat="39.9923690" lon="-4.2571000">
        <ele>552.2</ele>
        <time>2019-08-13T08:55:04Z</time>
      </trkpt>
      <trkpt lat="39.9924240" lon="-4.2571650">
        <ele>552.1</ele>
        <time>2019-08-13T08:55:05Z</time>
      </trkpt>
      <trkpt lat="39.9924780" lon="-4.2572320">
        <ele>551.9</ele>
        <time>2019-08-13T08:55:06Z</time>
      </trkpt>
      <trkpt lat="39.9925310" lon="-4.2573010">
        <ele>551.8</ele>
        <time>2019-08-13T08:55:07Z</time>
      </trkpt>
      <trkpt lat="39.9925830" lon="-4.2573690">
        <ele>551.7</ele>
        <time>2019-08-13T08:55:08Z</time>
      </trkpt>
      <trkpt lat="39.9926340" lon="-4.2574400">
        <ele>551.7</ele>
        <time>2019-08-13T08:55:09Z</time>
      </trkpt>
      <trkpt lat="39.9926840" lon="-4.2575090">
        <ele>551.6</ele>
        <time>2019-08-13T08:55:10Z</time>
      </trkpt>
      <trkpt lat="39.9927340" lon="-4.2575790">
        <ele>551.6</ele>
        <time>2019-08-13T08:55:11Z</time>
      </trkpt>
      <trkpt lat="39.9927830" lon="-4.2576470">
        <ele>551.5</ele>
        <time>2019-08-13T08:55:12Z</time>
      </trkpt>
      <trkpt lat="39.9928320" lon="-4.2577160">
        <ele>551.5</ele>
        <time>2019-08-13T08:55:13Z</time>
      </trkpt>
      <trkpt lat="39.9928800" lon="-4.2577840">
        <ele>551.5</ele>
        <time>2019-08-13T08:55:14Z</time>
      </trkpt>
      <trkpt lat="39.9929280" lon="-4.2578500">
        <ele>551.5</ele>
        <time>2019-08-13T08:55:15Z</time>
      </trkpt>
      <trkpt lat="39.9929750" lon="-4.2579140">
        <ele>551.5</ele>
        <time>2019-08-13T08:55:16Z</time>
      </trkpt>
      <trkpt lat="39.9930220" lon="-4.2579760">
        <ele>551.5</ele>
        <time>2019-08-13T08:55:17Z</time>
      </trkpt>
      <trkpt lat="39.9930660" lon="-4.2580380">
        <ele>551.5</ele>
        <time>2019-08-13T08:55:18Z</time>
      </trkpt>
      <trkpt lat="39.9931090" lon="-4.2581020">
        <ele>551.5</ele>
        <time>2019-08-13T08:55:19Z</time>
      </trkpt>
      <trkpt lat="39.9931510" lon="-4.2581650">
        <ele>551.5</ele>
        <time>2019-08-13T08:55:20Z</time>
      </trkpt>
      <trkpt lat="39.9931870" lon="-4.2582280">
        <ele>551.6</ele>
        <time>2019-08-13T08:55:21Z</time>
      </trkpt>
      <trkpt lat="39.9932210" lon="-4.2582920">
        <ele>551.6</ele>
        <time>2019-08-13T08:55:22Z</time>
      </trkpt>
      <trkpt lat="39.9932530" lon="-4.2583570">
        <ele>551.7</ele>
        <time>2019-08-13T08:55:23Z</time>
      </trkpt>
      <trkpt lat="39.9932880" lon="-4.2584190">
        <ele>551.7</ele>
        <time>2019-08-13T08:55:24Z</time>
      </trkpt>
      <trkpt lat="39.9933250" lon="-4.2584740">
        <ele>551.8</ele>
        <time>2019-08-13T08:55:25Z</time>
      </trkpt>
      <trkpt lat="39.9933610" lon="-4.2585230">
        <ele>551.9</ele>
        <time>2019-08-13T08:55:26Z</time>
      </trkpt>
      <trkpt lat="39.9933970" lon="-4.2585710">
        <ele>552.0</ele>
        <time>2019-08-13T08:55:27Z</time>
      </trkpt>
      <trkpt lat="39.9934360" lon="-4.2586180">
        <ele>552.1</ele>
        <time>2019-08-13T08:55:28Z</time>
      </trkpt>
      <trkpt lat="39.9934730" lon="-4.2586650">
        <ele>552.1</ele>
        <time>2019-08-13T08:55:29Z</time>
      </trkpt>
      <trkpt lat="39.9935050" lon="-4.2587050">
        <ele>552.2</ele>
        <time>2019-08-13T08:55:30Z</time>
      </trkpt>
      <trkpt lat="39.9935360" lon="-4.2587430">
        <ele>552.3</ele>
        <time>2019-08-13T08:55:31Z</time>
      </trkpt>
      <trkpt lat="39.9935680" lon="-4.2587820">
        <ele>552.3</ele>
        <time>2019-08-13T08:55:32Z</time>
      </trkpt>
      <trkpt lat="39.9935980" lon="-4.2588230">
        <ele>552.4</ele>
        <time>2019-08-13T08:55:33Z</time>
      </trkpt>
      <trkpt lat="39.9936330" lon="-4.2588640">
        <ele>552.5</ele>
        <time>2019-08-13T08:55:34Z</time>
      </trkpt>
      <trkpt lat="39.9936690" lon="-4.2589050">
        <ele>552.5</ele>
        <time>2019-08-13T08:55:35Z</time>
      </trkpt>
      <trkpt lat="39.9937000" lon="-4.2589520">
        <ele>552.6</ele>
        <time>2019-08-13T08:55:36Z</time>
      </trkpt>
      <trkpt lat="39.9937290" lon="-4.2589940">
        <ele>552.6</ele>
        <time>2019-08-13T08:55:37Z</time>
      </trkpt>
      <trkpt lat="39.9937600" lon="-4.2590310">
        <ele>552.7</ele>
        <time>2019-08-13T08:55:38Z</time>
      </trkpt>
      <trkpt lat="39.9937920" lon="-4.2590730">
        <ele>552.7</ele>
        <time>2019-08-13T08:55:39Z</time>
      </trkpt>
      <trkpt lat="39.9938240" lon="-4.2591180">
        <ele>552.8</ele>
        <time>2019-08-13T08:55:40Z</time>
      </trkpt>
      <trkpt lat="39.9938550" lon="-4.2591630">
        <ele>552.8</ele>
        <time>2019-08-13T08:55:41Z</time>
      </trkpt>
      <trkpt lat="39.9938850" lon="-4.2592040">
        <ele>552.9</ele>
        <time>2019-08-13T08:55:42Z</time>
      </trkpt>
      <trkpt lat="39.9939160" lon="-4.2592440">
        <ele>552.9</ele>
        <time>2019-08-13T08:55:43Z</time>
      </trkpt>
      <trkpt lat="39.9939460" lon="-4.2592860">
        <ele>553.0</ele>
        <time>2019-08-13T08:55:44Z</time>
      </trkpt>
      <trkpt lat="39.9939770" lon="-4.2593290">
        <ele>553.0</ele>
        <time>2019-08-13T08:55:45Z</time>
      </trkpt>
      <trkpt lat="39.9940110" lon="-4.2593710">
        <ele>553.1</ele>
        <time>2019-08-13T08:55:46Z</time>
      </trkpt>
      <trkpt lat="39.9940460" lon="-4.2594120">
        <ele>553.2</ele>
        <time>2019-08-13T08:55:47Z</time>
      </trkpt>
      <trkpt lat="39.9940810" lon="-4.2594510">
        <ele>553.2</ele>
        <time>2019-08-13T08:55:48Z</time>
      </trkpt>
      <trkpt lat="39.9941160" lon="-4.2594900">
        <ele>553.3</ele>
        <time>2019-08-13T08:55:49Z</time>
      </trkpt>
      <trkpt lat="39.9941510" lon="-4.2595290">
        <ele>553.4</ele>
        <time>2019-08-13T08:55:50Z</time>
      </trkpt>
      <trkpt lat="39.9941850" lon="-4.2595690">
        <ele>553.4</ele>
        <time>2019-08-13T08:55:51Z</time>
      </trkpt>
      <trkpt lat="39.9942200" lon="-4.2596060">
        <ele>553.5</ele>
        <time>2019-08-13T08:55:52Z</time>
      </trkpt>
      <trkpt lat="39.9942550" lon="-4.2596440">
        <ele>553.6</ele>
        <time>2019-08-13T08:55:53Z</time>
      </trkpt>
      <trkpt lat="39.9942890" lon="-4.2596820">
        <ele>553.7</ele>
        <time>2019-08-13T08:55:54Z</time>
      </trkpt>
      <trkpt lat="39.9943220" lon="-4.2597210">
        <ele>553.9</ele>
        <time>2019-08-13T08:55:55Z</time>
      </trkpt>
      <trkpt lat="39.9943550" lon="-4.2597590">
        <ele>554.1</ele>
        <time>2019-08-13T08:55:56Z</time>
      </trkpt>
      <trkpt lat="39.9943890" lon="-4.2597970">
        <ele>554.3</ele>
        <time>2019-08-13T08:55:57Z</time>
      </trkpt>
      <trkpt lat="39.9944230" lon="-4.2598370">
        <ele>554.5</ele>
        <time>2019-08-13T08:55:58Z</time>
      </trkpt>
      <trkpt lat="39.9944560" lon="-4.2598740">
        <ele>554.7</ele>
        <time>2019-08-13T08:55:59Z</time>
      </trkpt>
      <trkpt lat="39.9944870" lon="-4.2599120">
        <ele>555.0</ele>
        <time>2019-08-13T08:56:00Z</time>
      </trkpt>
      <trkpt lat="39.9945190" lon="-4.2599520">
        <ele>555.3</ele>
        <time>2019-08-13T08:56:01Z</time>
      </trkpt>
      <trkpt lat="39.9945490" lon="-4.2599920">
        <ele>555.6</ele>
        <time>2019-08-13T08:56:02Z</time>
      </trkpt>
      <trkpt lat="39.9945790" lon="-4.2600330">
        <ele>555.8</ele>
        <time>2019-08-13T08:56:03Z</time>
      </trkpt>
      <trkpt lat="39.9946080" lon="-4.2600730">
        <ele>556.0</ele>
        <time>2019-08-13T08:56:04Z</time>
      </trkpt>
      <trkpt lat="39.9946360" lon="-4.2601130">
        <ele>556.2</ele>
        <time>2019-08-13T08:56:05Z</time>
      </trkpt>
      <trkpt lat="39.9946640" lon="-4.2601530">
        <ele>556.4</ele>
        <time>2019-08-13T08:56:06Z</time>
      </trkpt>
      <trkpt lat="39.9946920" lon="-4.2601930">
        <ele>556.6</ele>
        <time>2019-08-13T08:56:07Z</time>
      </trkpt>
      <trkpt lat="39.9947190" lon="-4.2602330">
        <ele>556.9</ele>
        <time>2019-08-13T08:56:08Z</time>
      </trkpt>
      <trkpt lat="39.9947470" lon="-4.2602710">
        <ele>557.1</ele>
        <time>2019-08-13T08:56:09Z</time>
      </trkpt>
      <trkpt lat="39.9947730" lon="-4.2603070">
        <ele>557.3</ele>
        <time>2019-08-13T08:56:10Z</time>
      </trkpt>
      <trkpt lat="39.9947980" lon="-4.2603430">
        <ele>557.5</ele>
        <time>2019-08-13T08:56:11Z</time>
      </trkpt>
      <trkpt lat="39.9948230" lon="-4.2603810">
        <ele>557.8</ele>
        <time>2019-08-13T08:56:12Z</time>
      </trkpt>
      <trkpt lat="39.9948440" lon="-4.2604160">
        <ele>558.0</ele>
        <time>2019-08-13T08:56:13Z</time>
      </trkpt>
      <trkpt lat="39.9948650" lon="-4.2604530">
        <ele>558.2</ele>
        <time>2019-08-13T08:56:14Z</time>
      </trkpt>
      <trkpt lat="39.9948850" lon="-4.2604840">
        <ele>558.4</ele>
        <time>2019-08-13T08:56:15Z</time>
      </trkpt>
      <trkpt lat="39.9949090" lon="-4.2605270">
        <ele>558.6</ele>
        <time>2019-08-13T08:56:17Z</time>
      </trkpt>
      <trkpt lat="39.9949370" lon="-4.2605600">
        <ele>558.7</ele>
        <time>2019-08-13T08:56:19Z</time>
      </trkpt>
      <trkpt lat="39.9949700" lon="-4.2606090">
        <ele>558.9</ele>
        <time>2019-08-13T08:56:21Z</time>
      </trkpt>
      <trkpt lat="39.9949910" lon="-4.2606390">
        <ele>559.1</ele>
        <time>2019-08-13T08:56:22Z</time>
      </trkpt>
      <trkpt lat="39.9950100" lon="-4.2606640">
        <ele>559.2</ele>
        <time>2019-08-13T08:56:23Z</time>
      </trkpt>
      <trkpt lat="39.9950290" lon="-4.2606920">
        <ele>559.3</ele>
        <time>2019-08-13T08:56:24Z</time>
      </trkpt>
      <trkpt lat="39.9950470" lon="-4.2607210">
        <ele>559.4</ele>
        <time>2019-08-13T08:56:25Z</time>
      </trkpt>
      <trkpt lat="39.9950660" lon="-4.2607480">
        <ele>559.5</ele>
        <time>2019-08-13T08:56:26Z</time>
      </trkpt>
      <trkpt lat="39.9950850" lon="-4.2607740">
        <ele>559.5</ele>
        <time>2019-08-13T08:56:27Z</time>
      </trkpt>
      <trkpt lat="39.9951060" lon="-4.2608010">
        <ele>559.6</ele>
        <time>2019-08-13T08:56:28Z</time>
      </trkpt>
      <trkpt lat="39.9951260" lon="-4.2608310">
        <ele>559.7</ele>
        <time>2019-08-13T08:56:29Z</time>
      </trkpt>
      <trkpt lat="39.9951470" lon="-4.2608610">
        <ele>559.8</ele>
        <time>2019-08-13T08:56:30Z</time>
      </trkpt>
      <trkpt lat="39.9951680" lon="-4.2608890">
        <ele>559.8</ele>
        <time>2019-08-13T08:56:31Z</time>
      </trkpt>
      <trkpt lat="39.9951900" lon="-4.2609160">
        <ele>559.9</ele>
        <time>2019-08-13T08:56:32Z</time>
      </trkpt>
      <trkpt lat="39.9952120" lon="-4.2609440">
        <ele>560.0</ele>
        <time>2019-08-13T08:56:33Z</time>
      </trkpt>
      <trkpt lat="39.9952320" lon="-4.2609710">
        <ele>560.0</ele>
        <time>2019-08-13T08:56:34Z</time>
      </trkpt>
      <trkpt lat="39.9952540" lon="-4.2609940">
        <ele>560.0</ele>
        <time>2019-08-13T08:56:35Z</time>
      </trkpt>
      <trkpt lat="39.9952770" lon="-4.2610180">
        <ele>560.1</ele>
        <time>2019-08-13T08:56:36Z</time>
      </trkpt>
      <trkpt lat="39.9953020" lon="-4.2610430">
        <ele>560.1</ele>
        <time>2019-08-13T08:56:37Z</time>
      </trkpt>
      <trkpt lat="39.9953280" lon="-4.2610640">
        <ele>560.1</ele>
        <time>2019-08-13T08:56:38Z</time>
      </trkpt>
      <trkpt lat="39.9953530" lon="-4.2610850">
        <ele>560.2</ele>
        <time>2019-08-13T08:56:39Z</time>
      </trkpt>
      <trkpt lat="39.9953810" lon="-4.2611050">
        <ele>560.2</ele>
        <time>2019-08-13T08:56:40Z</time>
      </trkpt>
      <trkpt lat="39.9954090" lon="-4.2611220">
        <ele>560.2</ele>
        <time>2019-08-13T08:56:41Z</time>
      </trkpt>
      <trkpt lat="39.9954380" lon="-4.2611420">
        <ele>560.2</ele>
        <time>2019-08-13T08:56:42Z</time>
      </trkpt>
      <trkpt lat="39.9954680" lon="-4.2611600">
        <ele>560.2</ele>
        <time>2019-08-13T08:56:43Z</time>
      </trkpt>
      <trkpt lat="39.9955010" lon="-4.2611760">
        <ele>560.1</ele>
        <time>2019-08-13T08:56:44Z</time>
      </trkpt>
      <trkpt lat="39.9955340" lon="-4.2611940">
        <ele>560.1</ele>
        <time>2019-08-13T08:56:45Z</time>
      </trkpt>
      <trkpt lat="39.9955670" lon="-4.2612120">
        <ele>560.1</ele>
        <time>2019-08-13T08:56:46Z</time>
      </trkpt>
      <trkpt lat="39.9956020" lon="-4.2612330">
        <ele>560.1</ele>
        <time>2019-08-13T08:56:47Z</time>
      </trkpt>
      <trkpt lat="39.9956360" lon="-4.2612580">
        <ele>560.0</ele>
        <time>2019-08-13T08:56:48Z</time>
      </trkpt>
      <trkpt lat="39.9956680" lon="-4.2612920">
        <ele>560.0</ele>
        <time>2019-08-13T08:56:49Z</time>
      </trkpt>
      <trkpt lat="39.9956980" lon="-4.2613310">
        <ele>559.9</ele>
        <time>2019-08-13T08:56:50Z</time>
      </trkpt>
      <trkpt lat="39.9957270" lon="-4.2613660">
        <ele>559.9</ele>
        <time>2019-08-13T08:56:51Z</time>
      </trkpt>
      <trkpt lat="39.9957590" lon="-4.2613980">
        <ele>559.8</ele>
        <time>2019-08-13T08:56:52Z</time>
      </trkpt>
      <trkpt lat="39.9957910" lon="-4.2614240">
        <ele>559.8</ele>
        <time>2019-08-13T08:56:53Z</time>
      </trkpt>
      <trkpt lat="39.9958220" lon="-4.2614450">
        <ele>559.7</ele>
        <time>2019-08-13T08:56:54Z</time>
      </trkpt>
      <trkpt lat="39.9958550" lon="-4.2614670">
        <ele>559.7</ele>
        <time>2019-08-13T08:56:55Z</time>
      </trkpt>
      <trkpt lat="39.9958860" lon="-4.2614950">
        <ele>559.6</ele>
        <time>2019-08-13T08:56:56Z</time>
      </trkpt>
      <trkpt lat="39.9959160" lon="-4.2615280">
        <ele>559.6</ele>
        <time>2019-08-13T08:56:57Z</time>
      </trkpt>
      <trkpt lat="39.9959450" lon="-4.2615660">
        <ele>559.5</ele>
        <time>2019-08-13T08:56:58Z</time>
      </trkpt>
      <trkpt lat="39.9959750" lon="-4.2616060">
        <ele>559.5</ele>
        <time>2019-08-13T08:56:59Z</time>
      </trkpt>
      <trkpt lat="39.9960070" lon="-4.2616470">
        <ele>559.4</ele>
        <time>2019-08-13T08:57:00Z</time>
      </trkpt>
      <trkpt lat="39.9960410" lon="-4.2616870">
        <ele>559.4</ele>
        <time>2019-08-13T08:57:01Z</time>
      </trkpt>
      <trkpt lat="39.9960720" lon="-4.2617270">
        <ele>559.3</ele>
        <time>2019-08-13T08:57:02Z</time>
      </trkpt>
      <trkpt lat="39.9961030" lon="-4.2617670">
        <ele>559.3</ele>
        <time>2019-08-13T08:57:03Z</time>
      </trkpt>
      <trkpt lat="39.9961360" lon="-4.2618060">
        <ele>559.3</ele>
        <time>2019-08-13T08:57:04Z</time>
      </trkpt>
      <trkpt lat="39.9961720" lon="-4.2618450">
        <ele>559.2</ele>
        <time>2019-08-13T08:57:05Z</time>
      </trkpt>
      <trkpt lat="39.9962100" lon="-4.2618840">
        <ele>559.2</ele>
        <time>2019-08-13T08:57:06Z</time>
      </trkpt>
      <trkpt lat="39.9962460" lon="-4.2619240">
        <ele>559.2</ele>
        <time>2019-08-13T08:57:07Z</time>
      </trkpt>
      <trkpt lat="39.9962820" lon="-4.2619640">
        <ele>559.1</ele>
        <time>2019-08-13T08:57:08Z</time>
      </trkpt>
      <trkpt lat="39.9963150" lon="-4.2620070">
        <ele>559.1</ele>
        <time>2019-08-13T08:57:09Z</time>
      </trkpt>
      <trkpt lat="39.9963470" lon="-4.2620540">
        <ele>559.1</ele>
        <time>2019-08-13T08:57:10Z</time>
      </trkpt>
      <trkpt lat="39.9963780" lon="-4.2621050">
        <ele>559.1</ele>
        <time>2019-08-13T08:57:11Z</time>
      </trkpt>
      <trkpt lat="39.9964070" lon="-4.2621580">
        <ele>559.0</ele>
        <time>2019-08-13T08:57:12Z</time>
      </trkpt>
      <trkpt lat="39.9964340" lon="-4.2622160">
        <ele>559.0</ele>
        <time>2019-08-13T08:57:13Z</time>
      </trkpt>
      <trkpt lat="39.9964590" lon="-4.2622770">
        <ele>559.0</ele>
        <time>2019-08-13T08:57:14Z</time>
      </trkpt>
      <trkpt lat="39.9964820" lon="-4.2623390">
        <ele>558.9</ele>
        <time>2019-08-13T08:57:15Z</time>
      </trkpt>
      <trkpt lat="39.9965020" lon="-4.2624050">
        <ele>558.9</ele>
        <time>2019-08-13T08:57:16Z</time>
      </trkpt>
      <trkpt lat="39.9965190" lon="-4.2624720">
        <ele>558.9</ele>
        <time>2019-08-13T08:57:17Z</time>
      </trkpt>
      <trkpt lat="39.9965360" lon="-4.2625360">
        <ele>558.9</ele>
        <time>2019-08-13T08:57:18Z</time>
      </trkpt>
      <trkpt lat="39.9965540" lon="-4.2626010">
        <ele>558.8</ele>
        <time>2019-08-13T08:57:19Z</time>
      </trkpt>
      <trkpt lat="39.9965720" lon="-4.2626650">
        <ele>558.8</ele>
        <time>2019-08-13T08:57:20Z</time>
      </trkpt>
      <trkpt lat="39.9965900" lon="-4.2627280">
        <ele>558.8</ele>
        <time>2019-08-13T08:57:21Z</time>
      </trkpt>
      <trkpt lat="39.9966120" lon="-4.2627860">
        <ele>558.8</ele>
        <time>2019-08-13T08:57:22Z</time>
      </trkpt>
      <trkpt lat="39.9966360" lon="-4.2628440">
        <ele>558.8</ele>
        <time>2019-08-13T08:57:23Z</time>
      </trkpt>
      <trkpt lat="39.9966640" lon="-4.2629020">
        <ele>558.8</ele>
        <time>2019-08-13T08:57:24Z</time>
      </trkpt>
      <trkpt lat="39.9966960" lon="-4.2629580">
        <ele>558.7</ele>
        <time>2019-08-13T08:57:25Z</time>
      </trkpt>
      <trkpt lat="39.9967300" lon="-4.2630140">
        <ele>558.7</ele>
        <time>2019-08-13T08:57:26Z</time>
      </trkpt>
      <trkpt lat="39.9967620" lon="-4.2630710">
        <ele>558.7</ele>
        <time>2019-08-13T08:57:27Z</time>
      </trkpt>
      <trkpt lat="39.9967940" lon="-4.2631300">
        <ele>558.7</ele>
        <time>2019-08-13T08:57:28Z</time>
      </trkpt>
      <trkpt lat="39.9968240" lon="-4.2631890">
        <ele>558.7</ele>
        <time>2019-08-13T08:57:29Z</time>
      </trkpt>
      <trkpt lat="39.9968530" lon="-4.2632480">
        <ele>558.6</ele>
        <time>2019-08-13T08:57:30Z</time>
      </trkpt>
      <trkpt lat="39.9968800" lon="-4.2633050">
        <ele>558.6</ele>
        <time>2019-08-13T08:57:31Z</time>
      </trkpt>
      <trkpt lat="39.9969090" lon="-4.2633600">
        <ele>558.6</ele>
        <time>2019-08-13T08:57:32Z</time>
      </trkpt>
      <trkpt lat="39.9969370" lon="-4.2634140">
        <ele>558.6</ele>
        <time>2019-08-13T08:57:33Z</time>
      </trkpt>
      <trkpt lat="39.9969660" lon="-4.2634650">
        <ele>558.6</ele>
        <time>2019-08-13T08:57:34Z</time>
      </trkpt>
      <trkpt lat="39.9969950" lon="-4.2635150">
        <ele>558.6</ele>
        <time>2019-08-13T08:57:35Z</time>
      </trkpt>
      <trkpt lat="39.9970260" lon="-4.2635640">
        <ele>558.6</ele>
        <time>2019-08-13T08:57:36Z</time>
      </trkpt>
      <trkpt lat="39.9970550" lon="-4.2636160">
        <ele>558.6</ele>
        <time>2019-08-13T08:57:37Z</time>
      </trkpt>
      <trkpt lat="39.9970850" lon="-4.2636710">
        <ele>558.6</ele>
        <time>2019-08-13T08:57:38Z</time>
      </trkpt>
      <trkpt lat="39.9971150" lon="-4.2637250">
        <ele>558.6</ele>
        <time>2019-08-13T08:57:39Z</time>
      </trkpt>
      <trkpt lat="39.9971450" lon="-4.2637780">
        <ele>558.6</ele>
        <time>2019-08-13T08:57:40Z</time>
      </trkpt>
      <trkpt lat="39.9971740" lon="-4.2638290">
        <ele>558.6</ele>
        <time>2019-08-13T08:57:41Z</time>
      </trkpt>
      <trkpt lat="39.9972040" lon="-4.2638810">
        <ele>558.6</ele>
        <time>2019-08-13T08:57:42Z</time>
      </trkpt>
      <trkpt lat="39.9972320" lon="-4.2639360">
        <ele>558.7</ele>
        <time>2019-08-13T08:57:43Z</time>
      </trkpt>
      <trkpt lat="39.9972590" lon="-4.2639930">
        <ele>558.7</ele>
        <time>2019-08-13T08:57:44Z</time>
      </trkpt>
      <trkpt lat="39.9972860" lon="-4.2640520">
        <ele>558.7</ele>
        <time>2019-08-13T08:57:45Z</time>
      </trkpt>
      <trkpt lat="39.9973150" lon="-4.2641110">
        <ele>558.7</ele>
        <time>2019-08-13T08:57:46Z</time>
      </trkpt>
      <trkpt lat="39.9973450" lon="-4.2641730">
        <ele>558.7</ele>
        <time>2019-08-13T08:57:47Z</time>
      </trkpt>
      <trkpt lat="39.9973730" lon="-4.2642360">
        <ele>558.7</ele>
        <time>2019-08-13T08:57:48Z</time>
      </trkpt>
      <trkpt lat="39.9974000" lon="-4.2642950">
        <ele>558.8</ele>
        <time>2019-08-13T08:57:49Z</time>
      </trkpt>
      <trkpt lat="39.9974280" lon="-4.2643500">
        <ele>558.8</ele>
        <time>2019-08-13T08:57:50Z</time>
      </trkpt>
      <trkpt lat="39.9974570" lon="-4.2644030">
        <ele>558.8</ele>
        <time>2019-08-13T08:57:51Z</time>
      </trkpt>
      <trkpt lat="39.9974860" lon="-4.2644570">
        <ele>558.8</ele>
        <time>2019-08-13T08:57:52Z</time>
      </trkpt>
      <trkpt lat="39.9975160" lon="-4.2645120">
        <ele>558.8</ele>
        <time>2019-08-13T08:57:53Z</time>
      </trkpt>
      <trkpt lat="39.9975430" lon="-4.2645680">
        <ele>558.8</ele>
        <time>2019-08-13T08:57:54Z</time>
      </trkpt>
      <trkpt lat="39.9975700" lon="-4.2646260">
        <ele>558.8</ele>
        <time>2019-08-13T08:57:55Z</time>
      </trkpt>
      <trkpt lat="39.9976000" lon="-4.2646820">
        <ele>558.8</ele>
        <time>2019-08-13T08:57:56Z</time>
      </trkpt>
      <trkpt lat="39.9976310" lon="-4.2647390">
        <ele>558.8</ele>
        <time>2019-08-13T08:57:57Z</time>
      </trkpt>
      <trkpt lat="39.9976630" lon="-4.2647990">
        <ele>558.8</ele>
        <time>2019-08-13T08:57:58Z</time>
      </trkpt>
      <trkpt lat="39.9976940" lon="-4.2648560">
        <ele>558.8</ele>
        <time>2019-08-13T08:57:59Z</time>
      </trkpt>
      <trkpt lat="39.9977260" lon="-4.2649130">
        <ele>558.8</ele>
        <time>2019-08-13T08:58:00Z</time>
      </trkpt>
      <trkpt lat="39.9977550" lon="-4.2649700">
        <ele>558.8</ele>
        <time>2019-08-13T08:58:01Z</time>
      </trkpt>
      <trkpt lat="39.9977850" lon="-4.2650270">
        <ele>558.8</ele>
        <time>2019-08-13T08:58:02Z</time>
      </trkpt>
      <trkpt lat="39.9978150" lon="-4.2650840">
        <ele>558.9</ele>
        <time>2019-08-13T08:58:03Z</time>
      </trkpt>
      <trkpt lat="39.9978450" lon="-4.2651430">
        <ele>558.9</ele>
        <time>2019-08-13T08:58:04Z</time>
      </trkpt>
      <trkpt lat="39.9978750" lon="-4.2652020">
        <ele>558.9</ele>
        <time>2019-08-13T08:58:05Z</time>
      </trkpt>
      <trkpt lat="39.9979080" lon="-4.2652590">
        <ele>558.9</ele>
        <time>2019-08-13T08:58:06Z</time>
      </trkpt>
      <trkpt lat="39.9979400" lon="-4.2653160">
        <ele>558.9</ele>
        <time>2019-08-13T08:58:07Z</time>
      </trkpt>
      <trkpt lat="39.9979730" lon="-4.2653760">
        <ele>558.9</ele>
        <time>2019-08-13T08:58:08Z</time>
      </trkpt>
      <trkpt lat="39.9980080" lon="-4.2654350">
        <ele>558.9</ele>
        <time>2019-08-13T08:58:09Z</time>
      </trkpt>
      <trkpt lat="39.9980400" lon="-4.2654930">
        <ele>558.9</ele>
        <time>2019-08-13T08:58:10Z</time>
      </trkpt>
      <trkpt lat="39.9980720" lon="-4.2655510">
        <ele>558.9</ele>
        <time>2019-08-13T08:58:11Z</time>
      </trkpt>
      <trkpt lat="39.9981050" lon="-4.2656060">
        <ele>558.9</ele>
        <time>2019-08-13T08:58:12Z</time>
      </trkpt>
      <trkpt lat="39.9981350" lon="-4.2656560">
        <ele>558.9</ele>
        <time>2019-08-13T08:58:13Z</time>
      </trkpt>
      <trkpt lat="39.9981630" lon="-4.2657090">
        <ele>558.9</ele>
        <time>2019-08-13T08:58:14Z</time>
      </trkpt>
      <trkpt lat="39.9981950" lon="-4.2657590">
        <ele>559.0</ele>
        <time>2019-08-13T08:58:15Z</time>
      </trkpt>
      <trkpt lat="39.9982260" lon="-4.2658130">
        <ele>559.0</ele>
        <time>2019-08-13T08:58:16Z</time>
      </trkpt>
      <trkpt lat="39.9982570" lon="-4.2658680">
        <ele>559.0</ele>
        <time>2019-08-13T08:58:17Z</time>
      </trkpt>
      <trkpt lat="39.9982880" lon="-4.2659230">
        <ele>559.0</ele>
        <time>2019-08-13T08:58:18Z</time>
      </trkpt>
      <trkpt lat="39.9983190" lon="-4.2659770">
        <ele>559.1</ele>
        <time>2019-08-13T08:58:19Z</time>
      </trkpt>
      <trkpt lat="39.9983500" lon="-4.2660290">
        <ele>559.1</ele>
        <time>2019-08-13T08:58:20Z</time>
      </trkpt>
      <trkpt lat="39.9983820" lon="-4.2660840">
        <ele>559.1</ele>
        <time>2019-08-13T08:58:21Z</time>
      </trkpt>
      <trkpt lat="39.9984130" lon="-4.2661380">
        <ele>559.1</ele>
        <time>2019-08-13T08:58:22Z</time>
      </trkpt>
      <trkpt lat="39.9984460" lon="-4.2661940">
        <ele>559.1</ele>
        <time>2019-08-13T08:58:23Z</time>
      </trkpt>
      <trkpt lat="39.9984800" lon="-4.2662510">
        <ele>559.1</ele>
        <time>2019-08-13T08:58:24Z</time>
      </trkpt>
      <trkpt lat="39.9985140" lon="-4.2663100">
        <ele>559.1</ele>
        <time>2019-08-13T08:58:25Z</time>
      </trkpt>
      <trkpt lat="39.9985460" lon="-4.2663680">
        <ele>559.1</ele>
        <time>2019-08-13T08:58:26Z</time>
      </trkpt>
      <trkpt lat="39.9985790" lon="-4.2664240">
        <ele>559.1</ele>
        <time>2019-08-13T08:58:27Z</time>
      </trkpt>
      <trkpt lat="39.9986130" lon="-4.2664780">
        <ele>559.0</ele>
        <time>2019-08-13T08:58:28Z</time>
      </trkpt>
      <trkpt lat="39.9986480" lon="-4.2665300">
        <ele>559.0</ele>
        <time>2019-08-13T08:58:29Z</time>
      </trkpt>
      <trkpt lat="39.9986810" lon="-4.2665830">
        <ele>559.0</ele>
        <time>2019-08-13T08:58:30Z</time>
      </trkpt>
      <trkpt lat="39.9987170" lon="-4.2666360">
        <ele>559.0</ele>
        <time>2019-08-13T08:58:31Z</time>
      </trkpt>
      <trkpt lat="39.9987560" lon="-4.2666880">
        <ele>558.9</ele>
        <time>2019-08-13T08:58:32Z</time>
      </trkpt>
      <trkpt lat="39.9987960" lon="-4.2667380">
        <ele>558.9</ele>
        <time>2019-08-13T08:58:33Z</time>
      </trkpt>
      <trkpt lat="39.9988340" lon="-4.2667880">
        <ele>558.8</ele>
        <time>2019-08-13T08:58:34Z</time>
      </trkpt>
      <trkpt lat="39.9988730" lon="-4.2668360">
        <ele>558.8</ele>
        <time>2019-08-13T08:58:35Z</time>
      </trkpt>
      <trkpt lat="39.9989120" lon="-4.2668810">
        <ele>558.7</ele>
        <time>2019-08-13T08:58:36Z</time>
      </trkpt>
      <trkpt lat="39.9989510" lon="-4.2669290">
        <ele>558.7</ele>
        <time>2019-08-13T08:58:37Z</time>
      </trkpt>
      <trkpt lat="39.9989900" lon="-4.2669810">
        <ele>558.6</ele>
        <time>2019-08-13T08:58:38Z</time>
      </trkpt>
      <trkpt lat="39.9990270" lon="-4.2670330">
        <ele>558.6</ele>
        <time>2019-08-13T08:58:39Z</time>
      </trkpt>
      <trkpt lat="39.9990640" lon="-4.2670860">
        <ele>558.5</ele>
        <time>2019-08-13T08:58:40Z</time>
      </trkpt>
      <trkpt lat="39.9991000" lon="-4.2671360">
        <ele>558.5</ele>
        <time>2019-08-13T08:58:41Z</time>
      </trkpt>
      <trkpt lat="39.9991340" lon="-4.2671860">
        <ele>558.5</ele>
        <time>2019-08-13T08:58:42Z</time>
      </trkpt>
      <trkpt lat="39.9991670" lon="-4.2672370">
        <ele>558.4</ele>
        <time>2019-08-13T08:58:43Z</time>
      </trkpt>
      <trkpt lat="39.9991980" lon="-4.2672870">
        <ele>558.4</ele>
        <time>2019-08-13T08:58:44Z</time>
      </trkpt>
      <trkpt lat="39.9992280" lon="-4.2673380">
        <ele>558.4</ele>
        <time>2019-08-13T08:58:45Z</time>
      </trkpt>
      <trkpt lat="39.9992580" lon="-4.2673910">
        <ele>558.3</ele>
        <time>2019-08-13T08:58:46Z</time>
      </trkpt>
      <trkpt lat="39.9992880" lon="-4.2674430">
        <ele>558.3</ele>
        <time>2019-08-13T08:58:47Z</time>
      </trkpt>
      <trkpt lat="39.9993180" lon="-4.2674940">
        <ele>558.3</ele>
        <time>2019-08-13T08:58:48Z</time>
      </trkpt>
      <trkpt lat="39.9993490" lon="-4.2675430">
        <ele>558.3</ele>
        <time>2019-08-13T08:58:49Z</time>
      </trkpt>
      <trkpt lat="39.9993790" lon="-4.2675900">
        <ele>558.2</ele>
        <time>2019-08-13T08:58:50Z</time>
      </trkpt>
      <trkpt lat="39.9994090" lon="-4.2676380">
        <ele>558.2</ele>
        <time>2019-08-13T08:58:51Z</time>
      </trkpt>
      <trkpt lat="39.9994370" lon="-4.2676840">
        <ele>558.2</ele>
        <time>2019-08-13T08:58:52Z</time>
      </trkpt>
      <trkpt lat="39.9994670" lon="-4.2677300">
        <ele>558.2</ele>
        <time>2019-08-13T08:58:53Z</time>
      </trkpt>
      <trkpt lat="39.9994950" lon="-4.2677790">
        <ele>558.2</ele>
        <time>2019-08-13T08:58:54Z</time>
      </trkpt>
      <trkpt lat="39.9995240" lon="-4.2678290">
        <ele>558.2</ele>
        <time>2019-08-13T08:58:55Z</time>
      </trkpt>
      <trkpt lat="39.9995510" lon="-4.2678820">
        <ele>558.2</ele>
        <time>2019-08-13T08:58:56Z</time>
      </trkpt>
      <trkpt lat="39.9995760" lon="-4.2679380">
        <ele>558.2</ele>
        <time>2019-08-13T08:58:57Z</time>
      </trkpt>
      <trkpt lat="39.9995990" lon="-4.2679930">
        <ele>558.2</ele>
        <time>2019-08-13T08:58:58Z</time>
      </trkpt>
      <trkpt lat="39.9996250" lon="-4.2680450">
        <ele>558.2</ele>
        <time>2019-08-13T08:58:59Z</time>
      </trkpt>
      <trkpt lat="39.9996510" lon="-4.2680950">
        <ele>558.2</ele>
        <time>2019-08-13T08:59:00Z</time>
      </trkpt>
      <trkpt lat="39.9996770" lon="-4.2681410">
        <ele>558.2</ele>
        <time>2019-08-13T08:59:01Z</time>
      </trkpt>
      <trkpt lat="39.9997060" lon="-4.2681840">
        <ele>558.2</ele>
        <time>2019-08-13T08:59:02Z</time>
      </trkpt>
      <trkpt lat="39.9997350" lon="-4.2682280">
        <ele>558.3</ele>
        <time>2019-08-13T08:59:03Z</time>
      </trkpt>
      <trkpt lat="39.9997670" lon="-4.2682730">
        <ele>558.3</ele>
        <time>2019-08-13T08:59:04Z</time>
      </trkpt>
      <trkpt lat="39.9997990" lon="-4.2683190">
        <ele>558.3</ele>
        <time>2019-08-13T08:59:05Z</time>
      </trkpt>
      <trkpt lat="39.9998290" lon="-4.2683630">
        <ele>558.2</ele>
        <time>2019-08-13T08:59:06Z</time>
      </trkpt>
      <trkpt lat="39.9998570" lon="-4.2684100">
        <ele>558.2</ele>
        <time>2019-08-13T08:59:07Z</time>
      </trkpt>
      <trkpt lat="39.9998840" lon="-4.2684560">
        <ele>558.2</ele>
        <time>2019-08-13T08:59:08Z</time>
      </trkpt>
      <trkpt lat="39.9999110" lon="-4.2684980">
        <ele>558.2</ele>
        <time>2019-08-13T08:59:09Z</time>
      </trkpt>
      <trkpt lat="39.9999380" lon="-4.2685380">
        <ele>558.2</ele>
        <time>2019-08-13T08:59:10Z</time>
      </trkpt>
      <trkpt lat="39.9999620" lon="-4.2685790">
        <ele>558.2</ele>
        <time>2019-08-13T08:59:11Z</time>
      </trkpt>
      <trkpt lat="39.9999880" lon="-4.2686200">
        <ele>558.3</ele>
        <time>2019-08-13T08:59:12Z</time>
      </trkpt>
      <trkpt lat="40.0000130" lon="-4.2686640">
        <ele>558.3</ele>
        <time>2019-08-13T08:59:13Z</time>
      </trkpt>
      <trkpt lat="40.0000360" lon="-4.2687080">
        <ele>558.3</ele>
        <time>2019-08-13T08:59:14Z</time>
      </trkpt>
      <trkpt lat="40.0000620" lon="-4.2687520">
        <ele>558.3</ele>
        <time>2019-08-13T08:59:15Z</time>
      </trkpt>
      <trkpt lat="40.0000880" lon="-4.2687960">
        <ele>558.3</ele>
        <time>2019-08-13T08:59:16Z</time>
      </trkpt>
      <trkpt lat="40.0001140" lon="-4.2688410">
        <ele>558.3</ele>
        <time>2019-08-13T08:59:17Z</time>
      </trkpt>
      <trkpt lat="40.0001420" lon="-4.2688860">
        <ele>558.3</ele>
        <time>2019-08-13T08:59:18Z</time>
      </trkpt>
      <trkpt lat="40.0001720" lon="-4.2689290">
        <ele>558.4</ele>
        <time>2019-08-13T08:59:19Z</time>
      </trkpt>
      <trkpt lat="40.0002030" lon="-4.2689760">
        <ele>558.4</ele>
        <time>2019-08-13T08:59:20Z</time>
      </trkpt>
      <trkpt lat="40.0002320" lon="-4.2690230">
        <ele>558.4</ele>
        <time>2019-08-13T08:59:21Z</time>
      </trkpt>
      <trkpt lat="40.0002610" lon="-4.2690690">
        <ele>558.5</ele>
        <time>2019-08-13T08:59:22Z</time>
      </trkpt>
      <trkpt lat="40.0002900" lon="-4.2691140">
        <ele>558.5</ele>
        <time>2019-08-13T08:59:23Z</time>
      </trkpt>
      <trkpt lat="40.0003180" lon="-4.2691590">
        <ele>558.5</ele>
        <time>2019-08-13T08:59:24Z</time>
      </trkpt>
      <trkpt lat="40.0003440" lon="-4.2692030">
        <ele>558.6</ele>
        <time>2019-08-13T08:59:25Z</time>
      </trkpt>
      <trkpt lat="40.0003690" lon="-4.2692450">
        <ele>558.6</ele>
        <time>2019-08-13T08:59:26Z</time>
      </trkpt>
      <trkpt lat="40.0003940" lon="-4.2692850">
        <ele>558.7</ele>
        <time>2019-08-13T08:59:27Z</time>
      </trkpt>
      <trkpt lat="40.0004190" lon="-4.2693260">
        <ele>558.7</ele>
        <time>2019-08-13T08:59:28Z</time>
      </trkpt>
      <trkpt lat="40.0004440" lon="-4.2693680">
        <ele>558.8</ele>
        <time>2019-08-13T08:59:29Z</time>
      </trkpt>
      <trkpt lat="40.0004670" lon="-4.2694100">
        <ele>558.8</ele>
        <time>2019-08-13T08:59:30Z</time>
      </trkpt>
      <trkpt lat="40.0004900" lon="-4.2694490">
        <ele>558.9</ele>
        <time>2019-08-13T08:59:31Z</time>
      </trkpt>
      <trkpt lat="40.0005130" lon="-4.2694860">
        <ele>559.0</ele>
        <time>2019-08-13T08:59:32Z</time>
      </trkpt>
      <trkpt lat="40.0005340" lon="-4.2695240">
        <ele>559.0</ele>
        <time>2019-08-13T08:59:33Z</time>
      </trkpt>
      <trkpt lat="40.0005560" lon="-4.2695630">
        <ele>559.1</ele>
        <time>2019-08-13T08:59:34Z</time>
      </trkpt>
      <trkpt lat="40.0005810" lon="-4.2696000">
        <ele>559.1</ele>
        <time>2019-08-13T08:59:35Z</time>
      </trkpt>
      <trkpt lat="40.0006060" lon="-4.2696360">
        <ele>559.2</ele>
        <time>2019-08-13T08:59:36Z</time>
      </trkpt>
      <trkpt lat="40.0006290" lon="-4.2696740">
        <ele>559.2</ele>
        <time>2019-08-13T08:59:37Z</time>
      </trkpt>
      <trkpt lat="40.0006510" lon="-4.2697090">
        <ele>559.3</ele>
        <time>2019-08-13T08:59:38Z</time>
      </trkpt>
      <trkpt lat="40.0006690" lon="-4.2697420">
        <ele>559.3</ele>
        <time>2019-08-13T08:59:39Z</time>
      </trkpt>
      <trkpt lat="40.0006860" lon="-4.2697730">
        <ele>559.3</ele>
        <time>2019-08-13T08:59:40Z</time>
      </trkpt>
      <trkpt lat="40.0007040" lon="-4.2698040">
        <ele>559.4</ele>
        <time>2019-08-13T08:59:41Z</time>
      </trkpt>
      <trkpt lat="40.0007230" lon="-4.2698370">
        <ele>559.4</ele>
        <time>2019-08-13T08:59:42Z</time>
      </trkpt>
      <trkpt lat="40.0007450" lon="-4.2698710">
        <ele>559.4</ele>
        <time>2019-08-13T08:59:43Z</time>
      </trkpt>
      <trkpt lat="40.0007670" lon="-4.2699050">
        <ele>559.5</ele>
        <time>2019-08-13T08:59:44Z</time>
      </trkpt>
      <trkpt lat="40.0007870" lon="-4.2699390">
        <ele>559.5</ele>
        <time>2019-08-13T08:59:45Z</time>
      </trkpt>
      <trkpt lat="40.0008080" lon="-4.2699720">
        <ele>559.5</ele>
        <time>2019-08-13T08:59:46Z</time>
      </trkpt>
      <trkpt lat="40.0008280" lon="-4.2700020">
        <ele>559.5</ele>
        <time>2019-08-13T08:59:47Z</time>
      </trkpt>
      <trkpt lat="40.0008450" lon="-4.2700290">
        <ele>559.5</ele>
        <time>2019-08-13T08:59:48Z</time>
      </trkpt>
      <trkpt lat="40.0008800" lon="-4.2700750">
        <ele>559.6</ele>
        <time>2019-08-13T08:59:50Z</time>
      </trkpt>
      <trkpt lat="40.0009060" lon="-4.2701150">
        <ele>559.6</ele>
        <time>2019-08-13T08:59:52Z</time>
      </trkpt>
      <trkpt lat="40.0009490" lon="-4.2701410">
        <ele>559.5</ele>
        <time>2019-08-13T08:59:54Z</time>
      </trkpt>
      <trkpt lat="40.0009760" lon="-4.2701400">
        <ele>559.5</ele>
        <time>2019-08-13T08:59:55Z</time>
      </trkpt>
      <trkpt lat="40.0010250" lon="-4.2701230">
        <ele>559.4</ele>
        <time>2019-08-13T08:59:57Z</time>
      </trkpt>
      <trkpt lat="40.0010490" lon="-4.2701040">
        <ele>559.4</ele>
        <time>2019-08-13T08:59:58Z</time>
      </trkpt>
      <trkpt lat="40.0010770" lon="-4.2700750">
        <ele>559.4</ele>
        <time>2019-08-13T08:59:59Z</time>
      </trkpt>
      <trkpt lat="40.0011070" lon="-4.2700400">
        <ele>559.3</ele>
        <time>2019-08-13T09:00:00Z</time>
      </trkpt>
      <trkpt lat="40.0011420" lon="-4.2700040">
        <ele>559.3</ele>
        <time>2019-08-13T09:00:01Z</time>
      </trkpt>
      <trkpt lat="40.0011800" lon="-4.2699670">
        <ele>559.2</ele>
        <time>2019-08-13T09:00:02Z</time>
      </trkpt>
      <trkpt lat="40.0012180" lon="-4.2699310">
        <ele>559.2</ele>
        <time>2019-08-13T09:00:03Z</time>
      </trkpt>
      <trkpt lat="40.0012510" lon="-4.2698930">
        <ele>559.1</ele>
        <time>2019-08-13T09:00:04Z</time>
      </trkpt>
      <trkpt lat="40.0012870" lon="-4.2698570">
        <ele>559.1</ele>
        <time>2019-08-13T09:00:05Z</time>
      </trkpt>
      <trkpt lat="40.0013250" lon="-4.2698210">
        <ele>559.1</ele>
        <time>2019-08-13T09:00:06Z</time>
      </trkpt>
      <trkpt lat="40.0013660" lon="-4.2697770">
        <ele>559.0</ele>
        <time>2019-08-13T09:00:07Z</time>
      </trkpt>
      <trkpt lat="40.0014080" lon="-4.2697330">
        <ele>559.0</ele>
        <time>2019-08-13T09:00:08Z</time>
      </trkpt>
      <trkpt lat="40.0014520" lon="-4.2696930">
        <ele>559.0</ele>
        <time>2019-08-13T09:00:09Z</time>
      </trkpt>
      <trkpt lat="40.0014960" lon="-4.2696500">
        <ele>558.9</ele>
        <time>2019-08-13T09:00:10Z</time>
      </trkpt>
      <trkpt lat="40.0015370" lon="-4.2696090">
        <ele>558.9</ele>
        <time>2019-08-13T09:00:11Z</time>
      </trkpt>
      <trkpt lat="40.0015790" lon="-4.2695680">
        <ele>558.9</ele>
        <time>2019-08-13T09:00:12Z</time>
      </trkpt>
      <trkpt lat="40.0016210" lon="-4.2695290">
        <ele>558.8</ele>
        <time>2019-08-13T09:00:13Z</time>
      </trkpt>
      <trkpt lat="40.0016610" lon="-4.2694900">
        <ele>558.8</ele>
        <time>2019-08-13T09:00:14Z</time>
      </trkpt>
      <trkpt lat="40.0017030" lon="-4.2694560">
        <ele>558.8</ele>
        <time>2019-08-13T09:00:15Z</time>
      </trkpt>
      <trkpt lat="40.0017450" lon="-4.2694190">
        <ele>558.8</ele>
        <time>2019-08-13T09:00:16Z</time>
      </trkpt>
      <trkpt lat="40.0017840" lon="-4.2693790">
        <ele>558.7</ele>
        <time>2019-08-13T09:00:17Z</time>
      </trkpt>
      <trkpt lat="40.0018190" lon="-4.2693380">
        <ele>558.7</ele>
        <time>2019-08-13T09:00:18Z</time>
      </trkpt>
      <trkpt lat="40.0018560" lon="-4.2692960">
        <ele>558.6</ele>
        <time>2019-08-13T09:00:19Z</time>
      </trkpt>
      <trkpt lat="40.0018940" lon="-4.2692570">
        <ele>558.6</ele>
        <time>2019-08-13T09:00:20Z</time>
      </trkpt>
      <trkpt lat="40.0019320" lon="-4.2692190">
        <ele>558.5</ele>
        <time>2019-08-13T09:00:21Z</time>
      </trkpt>
      <trkpt lat="40.0019710" lon="-4.2691820">
        <ele>558.4</ele>
        <time>2019-08-13T09:00:22Z</time>
      </trkpt>
      <trkpt lat="40.0020080" lon="-4.2691460">
        <ele>558.3</ele>
        <time>2019-08-13T09:00:23Z</time>
      </trkpt>
      <trkpt lat="40.0020460" lon="-4.2691090">
        <ele>558.1</ele>
        <time>2019-08-13T09:00:24Z</time>
      </trkpt>
      <trkpt lat="40.0020860" lon="-4.2690710">
        <ele>557.9</ele>
        <time>2019-08-13T09:00:25Z</time>
      </trkpt>
      <trkpt lat="40.0021270" lon="-4.2690330">
        <ele>557.8</ele>
        <time>2019-08-13T09:00:26Z</time>
      </trkpt>
      <trkpt lat="40.0021670" lon="-4.2689950">
        <ele>557.6</ele>
        <time>2019-08-13T09:00:27Z</time>
      </trkpt>
      <trkpt lat="40.0022050" lon="-4.2689550">
        <ele>557.5</ele>
        <time>2019-08-13T09:00:28Z</time>
      </trkpt>
      <trkpt lat="40.0022470" lon="-4.2689160">
        <ele>557.3</ele>
        <time>2019-08-13T09:00:29Z</time>
      </trkpt>
      <trkpt lat="40.0022870" lon="-4.2688840">
        <ele>557.2</ele>
        <time>2019-08-13T09:00:30Z</time>
      </trkpt>
      <trkpt lat="40.0023280" lon="-4.2688570">
        <ele>557.1</ele>
        <time>2019-08-13T09:00:31Z</time>
      </trkpt>
      <trkpt lat="40.0023700" lon="-4.2688350">
        <ele>557.0</ele>
        <time>2019-08-13T09:00:32Z</time>
      </trkpt>
      <trkpt lat="40.0024150" lon="-4.2688200">
        <ele>556.9</ele>
        <time>2019-08-13T09:00:33Z</time>
      </trkpt>
      <trkpt lat="40.0024600" lon="-4.2688180">
        <ele>556.7</ele>
        <time>2019-08-13T09:00:34Z</time>
      </trkpt>
      <trkpt lat="40.0025040" lon="-4.2688300">
        <ele>556.7</ele>
        <time>2019-08-13T09:00:35Z</time>
      </trkpt>
      <trkpt lat="40.0025370" lon="-4.2688520">
        <ele>556.7</ele>
        <time>2019-08-13T09:00:36Z</time>
      </trkpt>
      <trkpt lat="40.0025580" lon="-4.2688750">
        <ele>556.7</ele>
        <time>2019-08-13T09:00:37Z</time>
      </trkpt>
      <trkpt lat="40.0025800" lon="-4.2689030">
        <ele>556.7</ele>
        <time>2019-08-13T09:00:39Z</time>
      </trkpt>
      <trkpt lat="40.0025560" lon="-4.2688450">
        <ele>556.7</ele>
        <time>2019-08-13T09:01:14Z</time>
      </trkpt>
      <trkpt lat="40.0025160" lon="-4.2688340">
        <ele>556.7</ele>
        <time>2019-08-13T09:01:16Z</time>
      </trkpt>
      <trkpt lat="40.0024900" lon="-4.2688420">
        <ele>556.7</ele>
        <time>2019-08-13T09:01:18Z</time>
      </trkpt>
      <trkpt lat="40.0024780" lon="-4.2688700">
        <ele>556.8</ele>
        <time>2019-08-13T09:01:26Z</time>
      </trkpt>
      <trkpt lat="40.0024080" lon="-4.2688810">
        <ele>557.0</ele>
        <time>2019-08-13T09:02:02Z</time>
      </trkpt>
      <trkpt lat="40.0023650" lon="-4.2689290">
        <ele>557.1</ele>
        <time>2019-08-13T09:02:04Z</time>
      </trkpt>
      <trkpt lat="40.0023400" lon="-4.2689560">
        <ele>557.2</ele>
        <time>2019-08-13T09:02:05Z</time>
      </trkpt>
      <trkpt lat="40.0023130" lon="-4.2689830">
        <ele>557.3</ele>
        <time>2019-08-13T09:02:06Z</time>
      </trkpt>
      <trkpt lat="40.0022840" lon="-4.2690120">
        <ele>557.4</ele>
        <time>2019-08-13T09:02:07Z</time>
      </trkpt>
      <trkpt lat="40.0022540" lon="-4.2690410">
        <ele>557.5</ele>
        <time>2019-08-13T09:02:08Z</time>
      </trkpt>
      <trkpt lat="40.0022220" lon="-4.2690710">
        <ele>557.6</ele>
        <time>2019-08-13T09:02:09Z</time>
      </trkpt>
      <trkpt lat="40.0021890" lon="-4.2691000">
        <ele>557.7</ele>
        <time>2019-08-13T09:02:10Z</time>
      </trkpt>
      <trkpt lat="40.0021550" lon="-4.2691310">
        <ele>557.9</ele>
        <time>2019-08-13T09:02:11Z</time>
      </trkpt>
      <trkpt lat="40.0021220" lon="-4.2691620">
        <ele>558.0</ele>
        <time>2019-08-13T09:02:12Z</time>
      </trkpt>
      <trkpt lat="40.0020880" lon="-4.2691960">
        <ele>558.1</ele>
        <time>2019-08-13T09:02:13Z</time>
      </trkpt>
      <trkpt lat="40.0020550" lon="-4.2692290">
        <ele>558.3</ele>
        <time>2019-08-13T09:02:14Z</time>
      </trkpt>
      <trkpt lat="40.0020250" lon="-4.2692620">
        <ele>558.4</ele>
        <time>2019-08-13T09:02:15Z</time>
      </trkpt>
      <trkpt lat="40.0019910" lon="-4.2692960">
        <ele>558.5</ele>
        <time>2019-08-13T09:02:16Z</time>
      </trkpt>
      <trkpt lat="40.0019490" lon="-4.2693290">
        <ele>558.6</ele>
        <time>2019-08-13T09:02:17Z</time>
      </trkpt>
      <trkpt lat="40.0019110" lon="-4.2693600">
        <ele>558.6</ele>
        <time>2019-08-13T09:02:18Z</time>
      </trkpt>
      <trkpt lat="40.0018710" lon="-4.2693950">
        <ele>558.7</ele>
        <time>2019-08-13T09:02:19Z</time>
      </trkpt>
      <trkpt lat="40.0018300" lon="-4.2694300">
        <ele>558.7</ele>
        <time>2019-08-13T09:02:20Z</time>
      </trkpt>
      <trkpt lat="40.0017910" lon="-4.2694680">
        <ele>558.8</ele>
        <time>2019-08-13T09:02:21Z</time>
      </trkpt>
      <trkpt lat="40.0017500" lon="-4.2695110">
        <ele>558.8</ele>
        <time>2019-08-13T09:02:22Z</time>
      </trkpt>
      <trkpt lat="40.0017080" lon="-4.2695550">
        <ele>558.8</ele>
        <time>2019-08-13T09:02:23Z</time>
      </trkpt>
      <trkpt lat="40.0016660" lon="-4.2695970">
        <ele>558.8</ele>
        <time>2019-08-13T09:02:24Z</time>
      </trkpt>
      <trkpt lat="40.0016250" lon="-4.2696360">
        <ele>558.9</ele>
        <time>2019-08-13T09:02:25Z</time>
      </trkpt>
      <trkpt lat="40.0015880" lon="-4.2696740">
        <ele>558.9</ele>
        <time>2019-08-13T09:02:26Z</time>
      </trkpt>
      <trkpt lat="40.0015520" lon="-4.2697110">
        <ele>558.9</ele>
        <time>2019-08-13T09:02:27Z</time>
      </trkpt>
      <trkpt lat="40.0015150" lon="-4.2697470">
        <ele>558.9</ele>
        <time>2019-08-13T09:02:28Z</time>
      </trkpt>
      <trkpt lat="40.0014790" lon="-4.2697920">
        <ele>559.0</ele>
        <time>2019-08-13T09:02:29Z</time>
      </trkpt>
      <trkpt lat="40.0014460" lon="-4.2698330">
        <ele>559.0</ele>
        <time>2019-08-13T09:02:30Z</time>
      </trkpt>
      <trkpt lat="40.0014120" lon="-4.2698670">
        <ele>559.0</ele>
        <time>2019-08-13T09:02:31Z</time>
      </trkpt>
      <trkpt lat="40.0013760" lon="-4.2699050">
        <ele>559.1</ele>
        <time>2019-08-13T09:02:32Z</time>
      </trkpt>
      <trkpt lat="40.0013370" lon="-4.2699440">
        <ele>559.1</ele>
        <time>2019-08-13T09:02:33Z</time>
      </trkpt>
      <trkpt lat="40.0012980" lon="-4.2699840">
        <ele>559.2</ele>
        <time>2019-08-13T09:02:34Z</time>
      </trkpt>
      <trkpt lat="40.0012560" lon="-4.2700230">
        <ele>559.2</ele>
        <time>2019-08-13T09:02:35Z</time>
      </trkpt>
      <trkpt lat="40.0012130" lon="-4.2700580">
        <ele>559.3</ele>
        <time>2019-08-13T09:02:36Z</time>
      </trkpt>
      <trkpt lat="40.0011720" lon="-4.2700940">
        <ele>559.3</ele>
        <time>2019-08-13T09:02:37Z</time>
      </trkpt>
      <trkpt lat="40.0011320" lon="-4.2701300">
        <ele>559.4</ele>
        <time>2019-08-13T09:02:38Z</time>
      </trkpt>
      <trkpt lat="40.0010950" lon="-4.2701640">
        <ele>559.4</ele>
        <time>2019-08-13T09:02:39Z</time>
      </trkpt>
      <trkpt lat="40.0010610" lon="-4.2701990">
        <ele>559.5</ele>
        <time>2019-08-13T09:02:40Z</time>
      </trkpt>
      <trkpt lat="40.0010280" lon="-4.2702320">
        <ele>559.5</ele>
        <time>2019-08-13T09:02:41Z</time>
      </trkpt>
      <trkpt lat="40.0010020" lon="-4.2702650">
        <ele>559.5</ele>
        <time>2019-08-13T09:02:42Z</time>
      </trkpt>
      <trkpt lat="40.0009910" lon="-4.2703040">
        <ele>559.5</ele>
        <time>2019-08-13T09:02:43Z</time>
      </trkpt>
      <trkpt lat="40.0010010" lon="-4.2703430">
        <ele>559.4</ele>
        <time>2019-08-13T09:02:44Z</time>
      </trkpt>
      <trkpt lat="40.0010250" lon="-4.2703770">
        <ele>559.4</ele>
        <time>2019-08-13T09:02:45Z</time>
      </trkpt>
      <trkpt lat="40.0010540" lon="-4.2704060">
        <ele>559.3</ele>
        <time>2019-08-13T09:02:46Z</time>
      </trkpt>
      <trkpt lat="40.0010870" lon="-4.2704330">
        <ele>559.3</ele>
        <time>2019-08-13T09:02:47Z</time>
      </trkpt>
      <trkpt lat="40.0011200" lon="-4.2704560">
        <ele>559.2</ele>
        <time>2019-08-13T09:02:48Z</time>
      </trkpt>
      <trkpt lat="40.0011530" lon="-4.2704800">
        <ele>559.2</ele>
        <time>2019-08-13T09:02:49Z</time>
      </trkpt>
      <trkpt lat="40.0011850" lon="-4.2705090">
        <ele>559.1</ele>
        <time>2019-08-13T09:02:50Z</time>
      </trkpt>
      <trkpt lat="40.0012110" lon="-4.2705430">
        <ele>559.1</ele>
        <time>2019-08-13T09:02:51Z</time>
      </trkpt>
      <trkpt lat="40.0012290" lon="-4.2705700">
        <ele>559.0</ele>
        <time>2019-08-13T09:02:52Z</time>
      </trkpt>
      <trkpt lat="40.0012440" lon="-4.2706140">
        <ele>559.0</ele>
        <time>2019-08-13T09:02:54Z</time>
      </trkpt>
      <trkpt lat="40.0012610" lon="-4.2706830">
        <ele>559.0</ele>
        <time>2019-08-13T09:02:56Z</time>
      </trkpt>
      <trkpt lat="40.0012820" lon="-4.2707230">
        <ele>559.0</ele>
        <time>2019-08-13T09:02:57Z</time>
      </trkpt>
      <trkpt lat="40.0013080" lon="-4.2707640">
        <ele>559.0</ele>
        <time>2019-08-13T09:02:58Z</time>
      </trkpt>
      <trkpt lat="40.0013370" lon="-4.2708070">
        <ele>559.0</ele>
        <time>2019-08-13T09:02:59Z</time>
      </trkpt>
      <trkpt lat="40.0013660" lon="-4.2708540">
        <ele>558.9</ele>
        <time>2019-08-13T09:03:00Z</time>
      </trkpt>
      <trkpt lat="40.0013960" lon="-4.2709030">
        <ele>558.9</ele>
        <time>2019-08-13T09:03:01Z</time>
      </trkpt>
      <trkpt lat="40.0014260" lon="-4.2709530">
        <ele>558.9</ele>
        <time>2019-08-13T09:03:02Z</time>
      </trkpt>
      <trkpt lat="40.0014570" lon="-4.2710060">
        <ele>558.9</ele>
        <time>2019-08-13T09:03:03Z</time>
      </trkpt>
      <trkpt lat="40.0014870" lon="-4.2710620">
        <ele>558.9</ele>
        <time>2019-08-13T09:03:04Z</time>
      </trkpt>
      <trkpt lat="40.0015170" lon="-4.2711200">
        <ele>558.9</ele>
        <time>2019-08-13T09:03:05Z</time>
      </trkpt>
      <trkpt lat="40.0015490" lon="-4.2711780">
        <ele>558.8</ele>
        <time>2019-08-13T09:03:06Z</time>
      </trkpt>
      <trkpt lat="40.0015810" lon="-4.2712360">
        <ele>558.8</ele>
        <time>2019-08-13T09:03:07Z</time>
      </trkpt>
      <trkpt lat="40.0016130" lon="-4.2712960">
        <ele>558.8</ele>
        <time>2019-08-13T09:03:08Z</time>
      </trkpt>
      <trkpt lat="40.0016440" lon="-4.2713540">
        <ele>558.7</ele>
        <time>2019-08-13T09:03:09Z</time>
      </trkpt>
      <trkpt lat="40.0016750" lon="-4.2714100">
        <ele>558.7</ele>
        <time>2019-08-13T09:03:10Z</time>
      </trkpt>
      <trkpt lat="40.0017070" lon="-4.2714650">
        <ele>558.7</ele>
        <time>2019-08-13T09:03:11Z</time>
      </trkpt>
      <trkpt lat="40.0017410" lon="-4.2715190">
        <ele>558.6</ele>
        <time>2019-08-13T09:03:12Z</time>
      </trkpt>
      <trkpt lat="40.0017750" lon="-4.2715750">
        <ele>558.5</ele>
        <time>2019-08-13T09:03:13Z</time>
      </trkpt>
      <trkpt lat="40.0018110" lon="-4.2716330">
        <ele>558.5</ele>
        <time>2019-08-13T09:03:14Z</time>
      </trkpt>
      <trkpt lat="40.0018450" lon="-4.2716940">
        <ele>558.4</ele>
        <time>2019-08-13T09:03:15Z</time>
      </trkpt>
      <trkpt lat="40.0018800" lon="-4.2717540">
        <ele>558.4</ele>
        <time>2019-08-13T09:03:16Z</time>
      </trkpt>
      <trkpt lat="40.0019150" lon="-4.2718170">
        <ele>558.3</ele>
        <time>2019-08-13T09:03:17Z</time>
      </trkpt>
      <trkpt lat="40.0019510" lon="-4.2718780">
        <ele>558.2</ele>
        <time>2019-08-13T09:03:18Z</time>
      </trkpt>
      <trkpt lat="40.0019860" lon="-4.2719400">
        <ele>558.1</ele>
        <time>2019-08-13T09:03:19Z</time>
      </trkpt>
      <trkpt lat="40.0020210" lon="-4.2720010">
        <ele>557.9</ele>
        <time>2019-08-13T09:03:20Z</time>
      </trkpt>
      <trkpt lat="40.0020540" lon="-4.2720610">
        <ele>557.8</ele>
        <time>2019-08-13T09:03:21Z</time>
      </trkpt>
      <trkpt lat="40.0020890" lon="-4.2721240">
        <ele>557.7</ele>
        <time>2019-08-13T09:03:22Z</time>
      </trkpt>
      <trkpt lat="40.0021230" lon="-4.2721850">
        <ele>557.7</ele>
        <time>2019-08-13T09:03:23Z</time>
      </trkpt>
      <trkpt lat="40.0021530" lon="-4.2722430">
        <ele>557.6</ele>
        <time>2019-08-13T09:03:24Z</time>
      </trkpt>
      <trkpt lat="40.0021840" lon="-4.2722970">
        <ele>557.5</ele>
        <time>2019-08-13T09:03:25Z</time>
      </trkpt>
      <trkpt lat="40.0022130" lon="-4.2723490">
        <ele>557.5</ele>
        <time>2019-08-13T09:03:26Z</time>
      </trkpt>
      <trkpt lat="40.0022430" lon="-4.2724000">
        <ele>557.4</ele>
        <time>2019-08-13T09:03:27Z</time>
      </trkpt>
      <trkpt lat="40.0022730" lon="-4.2724510">
        <ele>557.4</ele>
        <time>2019-08-13T09:03:28Z</time>
      </trkpt>
      <trkpt lat="40.0023050" lon="-4.2725010">
        <ele>557.3</ele>
        <time>2019-08-13T09:03:29Z</time>
      </trkpt>
      <trkpt lat="40.0023360" lon="-4.2725560">
        <ele>557.3</ele>
        <time>2019-08-13T09:03:30Z</time>
      </trkpt>
      <trkpt lat="40.0023680" lon="-4.2726170">
        <ele>557.3</ele>
        <time>2019-08-13T09:03:31Z</time>
      </trkpt>
      <trkpt lat="40.0023990" lon="-4.2726750">
        <ele>557.3</ele>
        <time>2019-08-13T09:03:32Z</time>
      </trkpt>
      <trkpt lat="40.0024330" lon="-4.2727290">
        <ele>557.3</ele>
        <time>2019-08-13T09:03:33Z</time>
      </trkpt>
      <trkpt lat="40.0024690" lon="-4.2727830">
        <ele>557.3</ele>
        <time>2019-08-13T09:03:34Z</time>
      </trkpt>
      <trkpt lat="40.0025030" lon="-4.2728390">
        <ele>557.3</ele>
        <time>2019-08-13T09:03:35Z</time>
      </trkpt>
      <trkpt lat="40.0025360" lon="-4.2728930">
        <ele>557.3</ele>
        <time>2019-08-13T09:03:36Z</time>
      </trkpt>
      <trkpt lat="40.0025690" lon="-4.2729480">
        <ele>557.3</ele>
        <time>2019-08-13T09:03:37Z</time>
      </trkpt>
      <trkpt lat="40.0025980" lon="-4.2730010">
        <ele>557.3</ele>
        <time>2019-08-13T09:03:38Z</time>
      </trkpt>
      <trkpt lat="40.0026250" lon="-4.2730530">
        <ele>557.3</ele>
        <time>2019-08-13T09:03:39Z</time>
      </trkpt>
      <trkpt lat="40.0026550" lon="-4.2731020">
        <ele>557.4</ele>
        <time>2019-08-13T09:03:40Z</time>
      </trkpt>
      <trkpt lat="40.0026830" lon="-4.2731450">
        <ele>557.4</ele>
        <time>2019-08-13T09:03:41Z</time>
      </trkpt>
      <trkpt lat="40.0027130" lon="-4.2731910">
        <ele>557.4</ele>
        <time>2019-08-13T09:03:42Z</time>
      </trkpt>
      <trkpt lat="40.0027430" lon="-4.2732420">
        <ele>557.4</ele>
        <time>2019-08-13T09:03:43Z</time>
      </trkpt>
      <trkpt lat="40.0027710" lon="-4.2732960">
        <ele>557.4</ele>
        <time>2019-08-13T09:03:44Z</time>
      </trkpt>
      <trkpt lat="40.0027960" lon="-4.2733500">
        <ele>557.3</ele>
        <time>2019-08-13T09:03:45Z</time>
      </trkpt>
      <trkpt lat="40.0028250" lon="-4.2734050">
        <ele>557.3</ele>
        <time>2019-08-13T09:03:46Z</time>
      </trkpt>
      <trkpt lat="40.0028540" lon="-4.2734610">
        <ele>557.3</ele>
        <time>2019-08-13T09:03:47Z</time>
      </trkpt>
      <trkpt lat="40.0028840" lon="-4.2735170">
        <ele>557.2</ele>
        <time>2019-08-13T09:03:48Z</time>
      </trkpt>
      <trkpt lat="40.0029150" lon="-4.2735740">
        <ele>557.2</ele>
        <time>2019-08-13T09:03:49Z</time>
      </trkpt>
      <trkpt lat="40.0029470" lon="-4.2736330">
        <ele>557.2</ele>
        <time>2019-08-13T09:03:50Z</time>
      </trkpt>
      <trkpt lat="40.0029810" lon="-4.2736910">
        <ele>557.1</ele>
        <time>2019-08-13T09:03:51Z</time>
      </trkpt>
      <trkpt lat="40.0030130" lon="-4.2737520">
        <ele>557.0</ele>
        <time>2019-08-13T09:03:52Z</time>
      </trkpt>
      <trkpt lat="40.0030490" lon="-4.2738110">
        <ele>557.0</ele>
        <time>2019-08-13T09:03:53Z</time>
      </trkpt>
      <trkpt lat="40.0030830" lon="-4.2738680">
        <ele>556.9</ele>
        <time>2019-08-13T09:03:54Z</time>
      </trkpt>
      <trkpt lat="40.0031170" lon="-4.2739270">
        <ele>556.9</ele>
        <time>2019-08-13T09:03:55Z</time>
      </trkpt>
      <trkpt lat="40.0031510" lon="-4.2739830">
        <ele>556.8</ele>
        <time>2019-08-13T09:03:56Z</time>
      </trkpt>
      <trkpt lat="40.0031840" lon="-4.2740370">
        <ele>556.7</ele>
        <time>2019-08-13T09:03:57Z</time>
      </trkpt>
      <trkpt lat="40.0032170" lon="-4.2740920">
        <ele>556.7</ele>
        <time>2019-08-13T09:03:58Z</time>
      </trkpt>
      <trkpt lat="40.0032520" lon="-4.2741480">
        <ele>556.6</ele>
        <time>2019-08-13T09:03:59Z</time>
      </trkpt>
      <trkpt lat="40.0032880" lon="-4.2742070">
        <ele>556.6</ele>
        <time>2019-08-13T09:04:00Z</time>
      </trkpt>
      <trkpt lat="40.0033240" lon="-4.2742660">
        <ele>556.5</ele>
        <time>2019-08-13T09:04:01Z</time>
      </trkpt>
      <trkpt lat="40.0033600" lon="-4.2743270">
        <ele>556.5</ele>
        <time>2019-08-13T09:04:02Z</time>
      </trkpt>
      <trkpt lat="40.0033950" lon="-4.2743920">
        <ele>556.4</ele>
        <time>2019-08-13T09:04:03Z</time>
      </trkpt>
      <trkpt lat="40.0034320" lon="-4.2744560">
        <ele>556.4</ele>
        <time>2019-08-13T09:04:04Z</time>
      </trkpt>
      <trkpt lat="40.0034680" lon="-4.2745190">
        <ele>556.3</ele>
        <time>2019-08-13T09:04:05Z</time>
      </trkpt>
      <trkpt lat="40.0035050" lon="-4.2745820">
        <ele>556.3</ele>
        <time>2019-08-13T09:04:06Z</time>
      </trkpt>
      <trkpt lat="40.0035430" lon="-4.2746450">
        <ele>556.3</ele>
        <time>2019-08-13T09:04:07Z</time>
      </trkpt>
      <trkpt lat="40.0035810" lon="-4.2747080">
        <ele>556.2</ele>
        <time>2019-08-13T09:04:08Z</time>
      </trkpt>
      <trkpt lat="40.0036170" lon="-4.2747730">
        <ele>556.2</ele>
        <time>2019-08-13T09:04:09Z</time>
      </trkpt>
      <trkpt lat="40.0036540" lon="-4.2748370">
        <ele>556.2</ele>
        <time>2019-08-13T09:04:10Z</time>
      </trkpt>
      <trkpt lat="40.0036900" lon="-4.2749000">
        <ele>556.2</ele>
        <time>2019-08-13T09:04:11Z</time>
      </trkpt>
      <trkpt lat="40.0037260" lon="-4.2749610">
        <ele>556.2</ele>
        <time>2019-08-13T09:04:12Z</time>
      </trkpt>
      <trkpt lat="40.0037630" lon="-4.2750220">
        <ele>556.2</ele>
        <time>2019-08-13T09:04:13Z</time>
      </trkpt>
      <trkpt lat="40.0038000" lon="-4.2750810">
        <ele>556.1</ele>
        <time>2019-08-13T09:04:14Z</time>
      </trkpt>
      <trkpt lat="40.0038350" lon="-4.2751390">
        <ele>556.1</ele>
        <time>2019-08-13T09:04:15Z</time>
      </trkpt>
      <trkpt lat="40.0038700" lon="-4.2751970">
        <ele>556.1</ele>
        <time>2019-08-13T09:04:16Z</time>
      </trkpt>
      <trkpt lat="40.0039030" lon="-4.2752540">
        <ele>556.0</ele>
        <time>2019-08-13T09:04:17Z</time>
      </trkpt>
      <trkpt lat="40.0039350" lon="-4.2753090">
        <ele>555.9</ele>
        <time>2019-08-13T09:04:18Z</time>
      </trkpt>
      <trkpt lat="40.0039700" lon="-4.2753630">
        <ele>555.8</ele>
        <time>2019-08-13T09:04:19Z</time>
      </trkpt>
      <trkpt lat="40.0040030" lon="-4.2754170">
        <ele>555.8</ele>
        <time>2019-08-13T09:04:20Z</time>
      </trkpt>
      <trkpt lat="40.0040350" lon="-4.2754700">
        <ele>555.7</ele>
        <time>2019-08-13T09:04:21Z</time>
      </trkpt>
      <trkpt lat="40.0040660" lon="-4.2755240">
        <ele>555.7</ele>
        <time>2019-08-13T09:04:22Z</time>
      </trkpt>
      <trkpt lat="40.0041010" lon="-4.2755760">
        <ele>555.6</ele>
        <time>2019-08-13T09:04:23Z</time>
      </trkpt>
      <trkpt lat="40.0041360" lon="-4.2756290">
        <ele>555.6</ele>
        <time>2019-08-13T09:04:24Z</time>
      </trkpt>
      <trkpt lat="40.0041710" lon="-4.2756830">
        <ele>555.6</ele>
        <time>2019-08-13T09:04:25Z</time>
      </trkpt>
      <trkpt lat="40.0042060" lon="-4.2757390">
        <ele>555.6</ele>
        <time>2019-08-13T09:04:26Z</time>
      </trkpt>
      <trkpt lat="40.0042410" lon="-4.2757940">
        <ele>555.6</ele>
        <time>2019-08-13T09:04:27Z</time>
      </trkpt>
      <trkpt lat="40.0042750" lon="-4.2758510">
        <ele>555.5</ele>
        <time>2019-08-13T09:04:28Z</time>
      </trkpt>
      <trkpt lat="40.0043050" lon="-4.2759080">
        <ele>555.5</ele>
        <time>2019-08-13T09:04:29Z</time>
      </trkpt>
      <trkpt lat="40.0043340" lon="-4.2759710">
        <ele>555.5</ele>
        <time>2019-08-13T09:04:30Z</time>
      </trkpt>
      <trkpt lat="40.0043630" lon="-4.2760310">
        <ele>555.5</ele>
        <time>2019-08-13T09:04:31Z</time>
      </trkpt>
      <trkpt lat="40.0043900" lon="-4.2760890">
        <ele>555.5</ele>
        <time>2019-08-13T09:04:32Z</time>
      </trkpt>
      <trkpt lat="40.0044160" lon="-4.2761460">
        <ele>555.4</ele>
        <time>2019-08-13T09:04:33Z</time>
      </trkpt>
      <trkpt lat="40.0044430" lon="-4.2762050">
        <ele>555.4</ele>
        <time>2019-08-13T09:04:34Z</time>
      </trkpt>
      <trkpt lat="40.0044690" lon="-4.2762620">
        <ele>555.4</ele>
        <time>2019-08-13T09:04:35Z</time>
      </trkpt>
      <trkpt lat="40.0044960" lon="-4.2763150">
        <ele>555.4</ele>
        <time>2019-08-13T09:04:36Z</time>
      </trkpt>
      <trkpt lat="40.0045210" lon="-4.2763660">
        <ele>555.3</ele>
        <time>2019-08-13T09:04:37Z</time>
      </trkpt>
      <trkpt lat="40.0045460" lon="-4.2764170">
        <ele>555.3</ele>
        <time>2019-08-13T09:04:38Z</time>
      </trkpt>
      <trkpt lat="40.0045670" lon="-4.2764670">
        <ele>555.3</ele>
        <time>2019-08-13T09:04:39Z</time>
      </trkpt>
      <trkpt lat="40.0045870" lon="-4.2765220">
        <ele>555.3</ele>
        <time>2019-08-13T09:04:40Z</time>
      </trkpt>
      <trkpt lat="40.0046070" lon="-4.2765750">
        <ele>555.3</ele>
        <time>2019-08-13T09:04:41Z</time>
      </trkpt>
      <trkpt lat="40.0046270" lon="-4.2766200">
        <ele>555.3</ele>
        <time>2019-08-13T09:04:42Z</time>
      </trkpt>
      <trkpt lat="40.0046500" lon="-4.2766610">
        <ele>555.3</ele>
        <time>2019-08-13T09:04:43Z</time>
      </trkpt>
      <trkpt lat="40.0046770" lon="-4.2767110">
        <ele>555.3</ele>
        <time>2019-08-13T09:04:44Z</time>
      </trkpt>
      <trkpt lat="40.0047040" lon="-4.2767630">
        <ele>555.2</ele>
        <time>2019-08-13T09:04:45Z</time>
      </trkpt>
      <trkpt lat="40.0047270" lon="-4.2768100">
        <ele>555.2</ele>
        <time>2019-08-13T09:04:46Z</time>
      </trkpt>
      <trkpt lat="40.0047490" lon="-4.2768520">
        <ele>555.2</ele>
        <time>2019-08-13T09:04:47Z</time>
      </trkpt>
      <trkpt lat="40.0047700" lon="-4.2768950">
        <ele>555.3</ele>
        <time>2019-08-13T09:04:48Z</time>
      </trkpt>
      <trkpt lat="40.0047940" lon="-4.2769390">
        <ele>555.3</ele>
        <time>2019-08-13T09:04:49Z</time>
      </trkpt>
      <trkpt lat="40.0048180" lon="-4.2769790">
        <ele>555.3</ele>
        <time>2019-08-13T09:04:50Z</time>
      </trkpt>
      <trkpt lat="40.0048460" lon="-4.2770150">
        <ele>555.3</ele>
        <time>2019-08-13T09:04:51Z</time>
      </trkpt>
      <trkpt lat="40.0048810" lon="-4.2770370">
        <ele>555.3</ele>
        <time>2019-08-13T09:04:52Z</time>
      </trkpt>
      <trkpt lat="40.0049250" lon="-4.2770470">
        <ele>555.2</ele>
        <time>2019-08-13T09:04:53Z</time>
      </trkpt>
      <trkpt lat="40.0049750" lon="-4.2770440">
        <ele>555.2</ele>
        <time>2019-08-13T09:04:54Z</time>
      </trkpt>
      <trkpt lat="40.0050260" lon="-4.2770350">
        <ele>555.2</ele>
        <time>2019-08-13T09:04:55Z</time>
      </trkpt>
      <trkpt lat="40.0050780" lon="-4.2770300">
        <ele>555.2</ele>
        <time>2019-08-13T09:04:56Z</time>
      </trkpt>
      <trkpt lat="40.0051310" lon="-4.2770280">
        <ele>555.2</ele>
        <time>2019-08-13T09:04:57Z</time>
      </trkpt>
      <trkpt lat="40.0051820" lon="-4.2770210">
        <ele>555.2</ele>
        <time>2019-08-13T09:04:58Z</time>
      </trkpt>
      <trkpt lat="40.0052280" lon="-4.2770170">
        <ele>555.1</ele>
        <time>2019-08-13T09:04:59Z</time>
      </trkpt>
      <trkpt lat="40.0052740" lon="-4.2770130">
        <ele>555.1</ele>
        <time>2019-08-13T09:05:00Z</time>
      </trkpt>
      <trkpt lat="40.0053180" lon="-4.2770080">
        <ele>555.1</ele>
        <time>2019-08-13T09:05:01Z</time>
      </trkpt>
      <trkpt lat="40.0053640" lon="-4.2770050">
        <ele>555.1</ele>
        <time>2019-08-13T09:05:02Z</time>
      </trkpt>
      <trkpt lat="40.0054110" lon="-4.2770000">
        <ele>555.1</ele>
        <time>2019-08-13T09:05:03Z</time>
      </trkpt>
      <trkpt lat="40.0054600" lon="-4.2769970">
        <ele>555.1</ele>
        <time>2019-08-13T09:05:04Z</time>
      </trkpt>
      <trkpt lat="40.0055080" lon="-4.2769920">
        <ele>555.1</ele>
        <time>2019-08-13T09:05:05Z</time>
      </trkpt>
      <trkpt lat="40.0055580" lon="-4.2769870">
        <ele>555.0</ele>
        <time>2019-08-13T09:05:06Z</time>
      </trkpt>
      <trkpt lat="40.0056100" lon="-4.2769810">
        <ele>555.0</ele>
        <time>2019-08-13T09:05:07Z</time>
      </trkpt>
      <trkpt lat="40.0056630" lon="-4.2769760">
        <ele>555.0</ele>
        <time>2019-08-13T09:05:08Z</time>
      </trkpt>
      <trkpt lat="40.0057170" lon="-4.2769720">
        <ele>555.0</ele>
        <time>2019-08-13T09:05:09Z</time>
      </trkpt>
      <trkpt lat="40.0057710" lon="-4.2769680">
        <ele>555.0</ele>
        <time>2019-08-13T09:05:10Z</time>
      </trkpt>
      <trkpt lat="40.0058250" lon="-4.2769650">
        <ele>555.0</ele>
        <time>2019-08-13T09:05:11Z</time>
      </trkpt>
      <trkpt lat="40.0058800" lon="-4.2769600">
        <ele>554.9</ele>
        <time>2019-08-13T09:05:12Z</time>
      </trkpt>
      <trkpt lat="40.0059350" lon="-4.2769540">
        <ele>554.9</ele>
        <time>2019-08-13T09:05:13Z</time>
      </trkpt>
      <trkpt lat="40.0059910" lon="-4.2769530">
        <ele>554.9</ele>
        <time>2019-08-13T09:05:14Z</time>
      </trkpt>
      <trkpt lat="40.0060460" lon="-4.2769490">
        <ele>554.8</ele>
        <time>2019-08-13T09:05:15Z</time>
      </trkpt>
      <trkpt lat="40.0061010" lon="-4.2769450">
        <ele>554.8</ele>
        <time>2019-08-13T09:05:16Z</time>
      </trkpt>
      <trkpt lat="40.0061570" lon="-4.2769400">
        <ele>554.8</ele>
        <time>2019-08-13T09:05:17Z</time>
      </trkpt>
      <trkpt lat="40.0062160" lon="-4.2769340">
        <ele>554.8</ele>
        <time>2019-08-13T09:05:18Z</time>
      </trkpt>
      <trkpt lat="40.0062730" lon="-4.2769280">
        <ele>554.7</ele>
        <time>2019-08-13T09:05:19Z</time>
      </trkpt>
      <trkpt lat="40.0063300" lon="-4.2769220">
        <ele>554.7</ele>
        <time>2019-08-13T09:05:20Z</time>
      </trkpt>
      <trkpt lat="40.0063860" lon="-4.2769140">
        <ele>554.7</ele>
        <time>2019-08-13T09:05:21Z</time>
      </trkpt>
      <trkpt lat="40.0064430" lon="-4.2769090">
        <ele>554.6</ele>
        <time>2019-08-13T09:05:22Z</time>
      </trkpt>
      <trkpt lat="40.0064990" lon="-4.2769060">
        <ele>554.6</ele>
        <time>2019-08-13T09:05:23Z</time>
      </trkpt>
      <trkpt lat="40.0065570" lon="-4.2769010">
        <ele>554.5</ele>
        <time>2019-08-13T09:05:24Z</time>
      </trkpt>
      <trkpt lat="40.0066140" lon="-4.2768960">
        <ele>554.5</ele>
        <time>2019-08-13T09:05:25Z</time>
      </trkpt>
      <trkpt lat="40.0066720" lon="-4.2768900">
        <ele>554.5</ele>
        <time>2019-08-13T09:05:26Z</time>
      </trkpt>
      <trkpt lat="40.0067290" lon="-4.2768860">
        <ele>554.6</ele>
        <time>2019-08-13T09:05:27Z</time>
      </trkpt>
      <trkpt lat="40.0067850" lon="-4.2768820">
        <ele>554.6</ele>
        <time>2019-08-13T09:05:28Z</time>
      </trkpt>
      <trkpt lat="40.0068430" lon="-4.2768770">
        <ele>554.6</ele>
        <time>2019-08-13T09:05:29Z</time>
      </trkpt>
      <trkpt lat="40.0069010" lon="-4.2768740">
        <ele>554.7</ele>
        <time>2019-08-13T09:05:30Z</time>
      </trkpt>
      <trkpt lat="40.0069590" lon="-4.2768690">
        <ele>554.8</ele>
        <time>2019-08-13T09:05:31Z</time>
      </trkpt>
      <trkpt lat="40.0070170" lon="-4.2768640">
        <ele>554.9</ele>
        <time>2019-08-13T09:05:32Z</time>
      </trkpt>
      <trkpt lat="40.0070760" lon="-4.2768590">
        <ele>555.0</ele>
        <time>2019-08-13T09:05:33Z</time>
      </trkpt>
      <trkpt lat="40.0071350" lon="-4.2768540">
        <ele>555.2</ele>
        <time>2019-08-13T09:05:34Z</time>
      </trkpt>
      <trkpt lat="40.0071950" lon="-4.2768490">
        <ele>555.3</ele>
        <time>2019-08-13T09:05:35Z</time>
      </trkpt>
      <trkpt lat="40.0072550" lon="-4.2768420">
        <ele>555.5</ele>
        <time>2019-08-13T09:05:36Z</time>
      </trkpt>
      <trkpt lat="40.0073140" lon="-4.2768370">
        <ele>555.6</ele>
        <time>2019-08-13T09:05:37Z</time>
      </trkpt>
      <trkpt lat="40.0073710" lon="-4.2768320">
        <ele>555.7</ele>
        <time>2019-08-13T09:05:38Z</time>
      </trkpt>
      <trkpt lat="40.0074300" lon="-4.2768260">
        <ele>555.8</ele>
        <time>2019-08-13T09:05:39Z</time>
      </trkpt>
      <trkpt lat="40.0074880" lon="-4.2768210">
        <ele>555.8</ele>
        <time>2019-08-13T09:05:40Z</time>
      </trkpt>
      <trkpt lat="40.0075460" lon="-4.2768150">
        <ele>555.9</ele>
        <time>2019-08-13T09:05:41Z</time>
      </trkpt>
      <trkpt lat="40.0076030" lon="-4.2768110">
        <ele>555.9</ele>
        <time>2019-08-13T09:05:42Z</time>
      </trkpt>
      <trkpt lat="40.0076600" lon="-4.2768060">
        <ele>555.9</ele>
        <time>2019-08-13T09:05:43Z</time>
      </trkpt>
      <trkpt lat="40.0077160" lon="-4.2768030">
        <ele>555.9</ele>
        <time>2019-08-13T09:05:44Z</time>
      </trkpt>
      <trkpt lat="40.0077730" lon="-4.2768010">
        <ele>555.9</ele>
        <time>2019-08-13T09:05:45Z</time>
      </trkpt>
      <trkpt lat="40.0078280" lon="-4.2767990">
        <ele>555.9</ele>
        <time>2019-08-13T09:05:46Z</time>
      </trkpt>
      <trkpt lat="40.0078820" lon="-4.2767940">
        <ele>555.9</ele>
        <time>2019-08-13T09:05:47Z</time>
      </trkpt>
      <trkpt lat="40.0079370" lon="-4.2767890">
        <ele>555.9</ele>
        <time>2019-08-13T09:05:48Z</time>
      </trkpt>
      <trkpt lat="40.0079910" lon="-4.2767840">
        <ele>555.8</ele>
        <time>2019-08-13T09:05:49Z</time>
      </trkpt>
      <trkpt lat="40.0080470" lon="-4.2767770">
        <ele>555.8</ele>
        <time>2019-08-13T09:05:50Z</time>
      </trkpt>
      <trkpt lat="40.0081030" lon="-4.2767720">
        <ele>555.8</ele>
        <time>2019-08-13T09:05:51Z</time>
      </trkpt>
      <trkpt lat="40.0081590" lon="-4.2767660">
        <ele>555.7</ele>
        <time>2019-08-13T09:05:52Z</time>
      </trkpt>
      <trkpt lat="40.0082150" lon="-4.2767600">
        <ele>555.6</ele>
        <time>2019-08-13T09:05:53Z</time>
      </trkpt>
      <trkpt lat="40.0082700" lon="-4.2767560">
        <ele>555.5</ele>
        <time>2019-08-13T09:05:54Z</time>
      </trkpt>
      <trkpt lat="40.0083250" lon="-4.2767500">
        <ele>555.5</ele>
        <time>2019-08-13T09:05:55Z</time>
      </trkpt>
      <trkpt lat="40.0083810" lon="-4.2767450">
        <ele>555.4</ele>
        <time>2019-08-13T09:05:56Z</time>
      </trkpt>
      <trkpt lat="40.0084360" lon="-4.2767420">
        <ele>555.3</ele>
        <time>2019-08-13T09:05:57Z</time>
      </trkpt>
      <trkpt lat="40.0084920" lon="-4.2767380">
        <ele>555.2</ele>
        <time>2019-08-13T09:05:58Z</time>
      </trkpt>
      <trkpt lat="40.0085500" lon="-4.2767320">
        <ele>555.1</ele>
        <time>2019-08-13T09:05:59Z</time>
      </trkpt>
      <trkpt lat="40.0086070" lon="-4.2767270">
        <ele>555.0</ele>
        <time>2019-08-13T09:06:00Z</time>
      </trkpt>
      <trkpt lat="40.0086650" lon="-4.2767230">
        <ele>554.9</ele>
        <time>2019-08-13T09:06:01Z</time>
      </trkpt>
      <trkpt lat="40.0087230" lon="-4.2767180">
        <ele>554.8</ele>
        <time>2019-08-13T09:06:02Z</time>
      </trkpt>
      <trkpt lat="40.0087820" lon="-4.2767130">
        <ele>554.7</ele>
        <time>2019-08-13T09:06:03Z</time>
      </trkpt>
      <trkpt lat="40.0088410" lon="-4.2767070">
        <ele>554.5</ele>
        <time>2019-08-13T09:06:04Z</time>
      </trkpt>
      <trkpt lat="40.0089020" lon="-4.2767000">
        <ele>554.4</ele>
        <time>2019-08-13T09:06:05Z</time>
      </trkpt>
      <trkpt lat="40.0089630" lon="-4.2766950">
        <ele>554.3</ele>
        <time>2019-08-13T09:06:06Z</time>
      </trkpt>
      <trkpt lat="40.0090250" lon="-4.2766890">
        <ele>554.1</ele>
        <time>2019-08-13T09:06:07Z</time>
      </trkpt>
      <trkpt lat="40.0090870" lon="-4.2766840">
        <ele>554.0</ele>
        <time>2019-08-13T09:06:08Z</time>
      </trkpt>
      <trkpt lat="40.0091470" lon="-4.2766790">
        <ele>553.8</ele>
        <time>2019-08-13T09:06:09Z</time>
      </trkpt>
      <trkpt lat="40.0092080" lon="-4.2766740">
        <ele>553.7</ele>
        <time>2019-08-13T09:06:10Z</time>
      </trkpt>
      <trkpt lat="40.0092680" lon="-4.2766690">
        <ele>553.5</ele>
        <time>2019-08-13T09:06:11Z</time>
      </trkpt>
      <trkpt lat="40.0093270" lon="-4.2766640">
        <ele>553.3</ele>
        <time>2019-08-13T09:06:12Z</time>
      </trkpt>
      <trkpt lat="40.0093860" lon="-4.2766570">
        <ele>553.1</ele>
        <time>2019-08-13T09:06:13Z</time>
      </trkpt>
      <trkpt lat="40.0094460" lon="-4.2766510">
        <ele>552.9</ele>
        <time>2019-08-13T09:06:14Z</time>
      </trkpt>
      <trkpt lat="40.0095080" lon="-4.2766460">
        <ele>552.6</ele>
        <time>2019-08-13T09:06:15Z</time>
      </trkpt>
      <trkpt lat="40.0095690" lon="-4.2766430">
        <ele>552.4</ele>
        <time>2019-08-13T09:06:16Z</time>
      </trkpt>
      <trkpt lat="40.0096300" lon="-4.2766380">
        <ele>552.2</ele>
        <time>2019-08-13T09:06:17Z</time>
      </trkpt>
      <trkpt lat="40.0096950" lon="-4.2766330">
        <ele>551.9</ele>
        <time>2019-08-13T09:06:18Z</time>
      </trkpt>
      <trkpt lat="40.0097610" lon="-4.2766270">
        <ele>551.7</ele>
        <time>2019-08-13T09:06:19Z</time>
      </trkpt>
      <trkpt lat="40.0098250" lon="-4.2766210">
        <ele>551.4</ele>
        <time>2019-08-13T09:06:20Z</time>
      </trkpt>
      <trkpt lat="40.0098900" lon="-4.2766170">
        <ele>551.2</ele>
        <time>2019-08-13T09:06:21Z</time>
      </trkpt>
      <trkpt lat="40.0099550" lon="-4.2766110">
        <ele>550.9</ele>
        <time>2019-08-13T09:06:22Z</time>
      </trkpt>
      <trkpt lat="40.0100200" lon="-4.2766050">
        <ele>550.7</ele>
        <time>2019-08-13T09:06:23Z</time>
      </trkpt>
      <trkpt lat="40.0100840" lon="-4.2766010">
        <ele>550.4</ele>
        <time>2019-08-13T09:06:24Z</time>
      </trkpt>
      <trkpt lat="40.0101480" lon="-4.2765960">
        <ele>550.2</ele>
        <time>2019-08-13T09:06:25Z</time>
      </trkpt>
      <trkpt lat="40.0102130" lon="-4.2765900">
        <ele>550.1</ele>
        <time>2019-08-13T09:06:26Z</time>
      </trkpt>
      <trkpt lat="40.0102780" lon="-4.2765860">
        <ele>549.9</ele>
        <time>2019-08-13T09:06:27Z</time>
      </trkpt>
      <trkpt lat="40.0103430" lon="-4.2765810">
        <ele>549.8</ele>
        <time>2019-08-13T09:06:28Z</time>
      </trkpt>
      <trkpt lat="40.0104090" lon="-4.2765760">
        <ele>549.7</ele>
        <time>2019-08-13T09:06:29Z</time>
      </trkpt>
      <trkpt lat="40.0104750" lon="-4.2765720">
        <ele>549.6</ele>
        <time>2019-08-13T09:06:30Z</time>
      </trkpt>
      <trkpt lat="40.0105410" lon="-4.2765670">
        <ele>549.5</ele>
        <time>2019-08-13T09:06:31Z</time>
      </trkpt>
      <trkpt lat="40.0106080" lon="-4.2765630">
        <ele>549.5</ele>
        <time>2019-08-13T09:06:32Z</time>
      </trkpt>
      <trkpt lat="40.0106750" lon="-4.2765570">
        <ele>549.4</ele>
        <time>2019-08-13T09:06:33Z</time>
      </trkpt>
      <trkpt lat="40.0107440" lon="-4.2765510">
        <ele>549.4</ele>
        <time>2019-08-13T09:06:34Z</time>
      </trkpt>
      <trkpt lat="40.0108140" lon="-4.2765460">
        <ele>549.4</ele>
        <time>2019-08-13T09:06:35Z</time>
      </trkpt>
      <trkpt lat="40.0108850" lon="-4.2765410">
        <ele>549.4</ele>
        <time>2019-08-13T09:06:36Z</time>
      </trkpt>
      <trkpt lat="40.0109570" lon="-4.2765350">
        <ele>549.4</ele>
        <time>2019-08-13T09:06:37Z</time>
      </trkpt>
      <trkpt lat="40.0110300" lon="-4.2765290">
        <ele>549.4</ele>
        <time>2019-08-13T09:06:38Z</time>
      </trkpt>
      <trkpt lat="40.0111030" lon="-4.2765230">
        <ele>549.4</ele>
        <time>2019-08-13T09:06:39Z</time>
      </trkpt>
      <trkpt lat="40.0111760" lon="-4.2765200">
        <ele>549.4</ele>
        <time>2019-08-13T09:06:40Z</time>
      </trkpt>
      <trkpt lat="40.0112490" lon="-4.2765150">
        <ele>549.5</ele>
        <time>2019-08-13T09:06:41Z</time>
      </trkpt>
      <trkpt lat="40.0113220" lon="-4.2765080">
        <ele>549.5</ele>
        <time>2019-08-13T09:06:42Z</time>
      </trkpt>
      <trkpt lat="40.0113930" lon="-4.2765030">
        <ele>549.6</ele>
        <time>2019-08-13T09:06:43Z</time>
      </trkpt>
      <trkpt lat="40.0114630" lon="-4.2764970">
        <ele>549.6</ele>
        <time>2019-08-13T09:06:44Z</time>
      </trkpt>
      <trkpt lat="40.0115330" lon="-4.2764900">
        <ele>549.7</ele>
        <time>2019-08-13T09:06:45Z</time>
      </trkpt>
      <trkpt lat="40.0116040" lon="-4.2764830">
        <ele>549.8</ele>
        <time>2019-08-13T09:06:46Z</time>
      </trkpt>
      <trkpt lat="40.0116750" lon="-4.2764760">
        <ele>550.0</ele>
        <time>2019-08-13T09:06:47Z</time>
      </trkpt>
      <trkpt lat="40.0117440" lon="-4.2764710">
        <ele>550.1</ele>
        <time>2019-08-13T09:06:48Z</time>
      </trkpt>
      <trkpt lat="40.0118150" lon="-4.2764660">
        <ele>550.2</ele>
        <time>2019-08-13T09:06:49Z</time>
      </trkpt>
      <trkpt lat="40.0118860" lon="-4.2764600">
        <ele>550.4</ele>
        <time>2019-08-13T09:06:50Z</time>
      </trkpt>
      <trkpt lat="40.0119560" lon="-4.2764560">
        <ele>550.5</ele>
        <time>2019-08-13T09:06:51Z</time>
      </trkpt>
      <trkpt lat="40.0120260" lon="-4.2764500">
        <ele>550.6</ele>
        <time>2019-08-13T09:06:52Z</time>
      </trkpt>
      <trkpt lat="40.0120940" lon="-4.2764450">
        <ele>550.8</ele>
        <time>2019-08-13T09:06:53Z</time>
      </trkpt>
      <trkpt lat="40.0121620" lon="-4.2764400">
        <ele>550.9</ele>
        <time>2019-08-13T09:06:54Z</time>
      </trkpt>
      <trkpt lat="40.0122290" lon="-4.2764350">
        <ele>551.0</ele>
        <time>2019-08-13T09:06:55Z</time>
      </trkpt>
      <trkpt lat="40.0122940" lon="-4.2764310">
        <ele>551.1</ele>
        <time>2019-08-13T09:06:56Z</time>
      </trkpt>
      <trkpt lat="40.0123570" lon="-4.2764240">
        <ele>551.2</ele>
        <time>2019-08-13T09:06:57Z</time>
      </trkpt>
      <trkpt lat="40.0124190" lon="-4.2764180">
        <ele>551.3</ele>
        <time>2019-08-13T09:06:58Z</time>
      </trkpt>
      <trkpt lat="40.0124790" lon="-4.2764140">
        <ele>551.4</ele>
        <time>2019-08-13T09:06:59Z</time>
      </trkpt>
      <trkpt lat="40.0125360" lon="-4.2764090">
        <ele>551.5</ele>
        <time>2019-08-13T09:07:00Z</time>
      </trkpt>
      <trkpt lat="40.0125920" lon="-4.2764050">
        <ele>551.6</ele>
        <time>2019-08-13T09:07:01Z</time>
      </trkpt>
      <trkpt lat="40.0126490" lon="-4.2764010">
        <ele>551.8</ele>
        <time>2019-08-13T09:07:02Z</time>
      </trkpt>
      <trkpt lat="40.0127050" lon="-4.2763960">
        <ele>551.9</ele>
        <time>2019-08-13T09:07:03Z</time>
      </trkpt>
      <trkpt lat="40.0127610" lon="-4.2763920">
        <ele>552.0</ele>
        <time>2019-08-13T09:07:04Z</time>
      </trkpt>
      <trkpt lat="40.0128180" lon="-4.2763860">
        <ele>552.1</ele>
        <time>2019-08-13T09:07:05Z</time>
      </trkpt>
      <trkpt lat="40.0128740" lon="-4.2763810">
        <ele>552.2</ele>
        <time>2019-08-13T09:07:06Z</time>
      </trkpt>
      <trkpt lat="40.0129310" lon="-4.2763760">
        <ele>552.4</ele>
        <time>2019-08-13T09:07:07Z</time>
      </trkpt>
      <trkpt lat="40.0129870" lon="-4.2763700">
        <ele>552.5</ele>
        <time>2019-08-13T09:07:08Z</time>
      </trkpt>
      <trkpt lat="40.0130410" lon="-4.2763630">
        <ele>552.6</ele>
        <time>2019-08-13T09:07:09Z</time>
      </trkpt>
      <trkpt lat="40.0130950" lon="-4.2763570">
        <ele>552.7</ele>
        <time>2019-08-13T09:07:10Z</time>
      </trkpt>
      <trkpt lat="40.0131490" lon="-4.2763530">
        <ele>552.9</ele>
        <time>2019-08-13T09:07:11Z</time>
      </trkpt>
      <trkpt lat="40.0132030" lon="-4.2763490">
        <ele>553.0</ele>
        <time>2019-08-13T09:07:12Z</time>
      </trkpt>
      <trkpt lat="40.0132560" lon="-4.2763430">
        <ele>553.1</ele>
        <time>2019-08-13T09:07:13Z</time>
      </trkpt>
      <trkpt lat="40.0133080" lon="-4.2763330">
        <ele>553.2</ele>
        <time>2019-08-13T09:07:14Z</time>
      </trkpt>
      <trkpt lat="40.0133600" lon="-4.2763190">
        <ele>553.3</ele>
        <time>2019-08-13T09:07:15Z</time>
      </trkpt>
      <trkpt lat="40.0134110" lon="-4.2763060">
        <ele>553.4</ele>
        <time>2019-08-13T09:07:16Z</time>
      </trkpt>
      <trkpt lat="40.0134630" lon="-4.2762960">
        <ele>553.5</ele>
        <time>2019-08-13T09:07:17Z</time>
      </trkpt>
      <trkpt lat="40.0135150" lon="-4.2762880">
        <ele>553.6</ele>
        <time>2019-08-13T09:07:18Z</time>
      </trkpt>
      <trkpt lat="40.0135660" lon="-4.2762820">
        <ele>553.8</ele>
        <time>2019-08-13T09:07:19Z</time>
      </trkpt>
      <trkpt lat="40.0136180" lon="-4.2762770">
        <ele>553.8</ele>
        <time>2019-08-13T09:07:20Z</time>
      </trkpt>
      <trkpt lat="40.0136680" lon="-4.2762740">
        <ele>553.9</ele>
        <time>2019-08-13T09:07:21Z</time>
      </trkpt>
      <trkpt lat="40.0137180" lon="-4.2762690">
        <ele>554.0</ele>
        <time>2019-08-13T09:07:22Z</time>
      </trkpt>
      <trkpt lat="40.0137690" lon="-4.2762640">
        <ele>554.1</ele>
        <time>2019-08-13T09:07:23Z</time>
      </trkpt>
      <trkpt lat="40.0138190" lon="-4.2762580">
        <ele>554.2</ele>
        <time>2019-08-13T09:07:24Z</time>
      </trkpt>
      <trkpt lat="40.0138690" lon="-4.2762510">
        <ele>554.3</ele>
        <time>2019-08-13T09:07:25Z</time>
      </trkpt>
      <trkpt lat="40.0139190" lon="-4.2762450">
        <ele>554.4</ele>
        <time>2019-08-13T09:07:26Z</time>
      </trkpt>
      <trkpt lat="40.0139670" lon="-4.2762410">
        <ele>554.4</ele>
        <time>2019-08-13T09:07:27Z</time>
      </trkpt>
      <trkpt lat="40.0140160" lon="-4.2762360">
        <ele>554.5</ele>
        <time>2019-08-13T09:07:28Z</time>
      </trkpt>
      <trkpt lat="40.0140640" lon="-4.2762320">
        <ele>554.6</ele>
        <time>2019-08-13T09:07:29Z</time>
      </trkpt>
      <trkpt lat="40.0141130" lon="-4.2762300">
        <ele>554.7</ele>
        <time>2019-08-13T09:07:30Z</time>
      </trkpt>
      <trkpt lat="40.0141610" lon="-4.2762260">
        <ele>554.8</ele>
        <time>2019-08-13T09:07:31Z</time>
      </trkpt>
      <trkpt lat="40.0142100" lon="-4.2762230">
        <ele>554.8</ele>
        <time>2019-08-13T09:07:32Z</time>
      </trkpt>
      <trkpt lat="40.0142580" lon="-4.2762200">
        <ele>554.9</ele>
        <time>2019-08-13T09:07:33Z</time>
      </trkpt>
      <trkpt lat="40.0143050" lon="-4.2762180">
        <ele>555.0</ele>
        <time>2019-08-13T09:07:34Z</time>
      </trkpt>
      <trkpt lat="40.0143510" lon="-4.2762140">
        <ele>555.1</ele>
        <time>2019-08-13T09:07:35Z</time>
      </trkpt>
      <trkpt lat="40.0143980" lon="-4.2762060">
        <ele>555.2</ele>
        <time>2019-08-13T09:07:36Z</time>
      </trkpt>
      <trkpt lat="40.0144450" lon="-4.2761990">
        <ele>555.2</ele>
        <time>2019-08-13T09:07:37Z</time>
      </trkpt>
      <trkpt lat="40.0144920" lon="-4.2761940">
        <ele>555.3</ele>
        <time>2019-08-13T09:07:38Z</time>
      </trkpt>
      <trkpt lat="40.0145390" lon="-4.2761920">
        <ele>555.3</ele>
        <time>2019-08-13T09:07:39Z</time>
      </trkpt>
      <trkpt lat="40.0145870" lon="-4.2761910">
        <ele>555.4</ele>
        <time>2019-08-13T09:07:40Z</time>
      </trkpt>
      <trkpt lat="40.0146360" lon="-4.2761890">
        <ele>555.6</ele>
        <time>2019-08-13T09:07:41Z</time>
      </trkpt>
      <trkpt lat="40.0146860" lon="-4.2761850">
        <ele>555.8</ele>
        <time>2019-08-13T09:07:42Z</time>
      </trkpt>
      <trkpt lat="40.0147340" lon="-4.2761780">
        <ele>556.1</ele>
        <time>2019-08-13T09:07:43Z</time>
      </trkpt>
      <trkpt lat="40.0147840" lon="-4.2761730">
        <ele>556.5</ele>
        <time>2019-08-13T09:07:44Z</time>
      </trkpt>
      <trkpt lat="40.0148330" lon="-4.2761690">
        <ele>556.8</ele>
        <time>2019-08-13T09:07:45Z</time>
      </trkpt>
      <trkpt lat="40.0148830" lon="-4.2761630">
        <ele>557.1</ele>
        <time>2019-08-13T09:07:46Z</time>
      </trkpt>
      <trkpt lat="40.0149330" lon="-4.2761580">
        <ele>557.4</ele>
        <time>2019-08-13T09:07:47Z</time>
      </trkpt>
      <trkpt lat="40.0149840" lon="-4.2761540">
        <ele>557.7</ele>
        <time>2019-08-13T09:07:48Z</time>
      </trkpt>
      <trkpt lat="40.0150330" lon="-4.2761510">
        <ele>557.9</ele>
        <time>2019-08-13T09:07:49Z</time>
      </trkpt>
      <trkpt lat="40.0150820" lon="-4.2761470">
        <ele>558.0</ele>
        <time>2019-08-13T09:07:50Z</time>
      </trkpt>
      <trkpt lat="40.0151310" lon="-4.2761440">
        <ele>558.2</ele>
        <time>2019-08-13T09:07:51Z</time>
      </trkpt>
      <trkpt lat="40.0151770" lon="-4.2761420">
        <ele>558.2</ele>
        <time>2019-08-13T09:07:52Z</time>
      </trkpt>
      <trkpt lat="40.0152230" lon="-4.2761380">
        <ele>558.3</ele>
        <time>2019-08-13T09:07:53Z</time>
      </trkpt>
      <trkpt lat="40.0152690" lon="-4.2761350">
        <ele>558.3</ele>
        <time>2019-08-13T09:07:54Z</time>
      </trkpt>
      <trkpt lat="40.0153160" lon="-4.2761320">
        <ele>558.3</ele>
        <time>2019-08-13T09:07:55Z</time>
      </trkpt>
      <trkpt lat="40.0153630" lon="-4.2761290">
        <ele>558.3</ele>
        <time>2019-08-13T09:07:56Z</time>
      </trkpt>
      <trkpt lat="40.0154090" lon="-4.2761260">
        <ele>558.3</ele>
        <time>2019-08-13T09:07:57Z</time>
      </trkpt>
      <trkpt lat="40.0154560" lon="-4.2761210">
        <ele>558.3</ele>
        <time>2019-08-13T09:07:58Z</time>
      </trkpt>
      <trkpt lat="40.0155020" lon="-4.2761160">
        <ele>558.4</ele>
        <time>2019-08-13T09:07:59Z</time>
      </trkpt>
      <trkpt lat="40.0155490" lon="-4.2761140">
        <ele>558.5</ele>
        <time>2019-08-13T09:08:00Z</time>
      </trkpt>
      <trkpt lat="40.0155950" lon="-4.2761110">
        <ele>558.5</ele>
        <time>2019-08-13T09:08:01Z</time>
      </trkpt>
      <trkpt lat="40.0156410" lon="-4.2761060">
        <ele>558.7</ele>
        <time>2019-08-13T09:08:02Z</time>
      </trkpt>
      <trkpt lat="40.0156870" lon="-4.2761020">
        <ele>558.8</ele>
        <time>2019-08-13T09:08:03Z</time>
      </trkpt>
      <trkpt lat="40.0157360" lon="-4.2760980">
        <ele>559.0</ele>
        <time>2019-08-13T09:08:04Z</time>
      </trkpt>
      <trkpt lat="40.0157840" lon="-4.2760940">
        <ele>559.1</ele>
        <time>2019-08-13T09:08:05Z</time>
      </trkpt>
      <trkpt lat="40.0158320" lon="-4.2760900">
        <ele>559.2</ele>
        <time>2019-08-13T09:08:06Z</time>
      </trkpt>
      <trkpt lat="40.0158790" lon="-4.2760890">
        <ele>559.3</ele>
        <time>2019-08-13T09:08:07Z</time>
      </trkpt>
      <trkpt lat="40.0159270" lon="-4.2760870">
        <ele>559.4</ele>
        <time>2019-08-13T09:08:08Z</time>
      </trkpt>
      <trkpt lat="40.0159730" lon="-4.2760840">
        <ele>559.6</ele>
        <time>2019-08-13T09:08:09Z</time>
      </trkpt>
      <trkpt lat="40.0160200" lon="-4.2760810">
        <ele>559.7</ele>
        <time>2019-08-13T09:08:10Z</time>
      </trkpt>
      <trkpt lat="40.0160650" lon="-4.2760780">
        <ele>559.8</ele>
        <time>2019-08-13T09:08:11Z</time>
      </trkpt>
      <trkpt lat="40.0161100" lon="-4.2760750">
        <ele>560.0</ele>
        <time>2019-08-13T09:08:12Z</time>
      </trkpt>
      <trkpt lat="40.0161550" lon="-4.2760720">
        <ele>560.1</ele>
        <time>2019-08-13T09:08:13Z</time>
      </trkpt>
      <trkpt lat="40.0162010" lon="-4.2760700">
        <ele>560.2</ele>
        <time>2019-08-13T09:08:14Z</time>
      </trkpt>
      <trkpt lat="40.0162460" lon="-4.2760670">
        <ele>560.3</ele>
        <time>2019-08-13T09:08:15Z</time>
      </trkpt>
      <trkpt lat="40.0162920" lon="-4.2760650">
        <ele>560.4</ele>
        <time>2019-08-13T09:08:16Z</time>
      </trkpt>
      <trkpt lat="40.0163400" lon="-4.2760660">
        <ele>560.6</ele>
        <time>2019-08-13T09:08:17Z</time>
      </trkpt>
      <trkpt lat="40.0163880" lon="-4.2760690">
        <ele>560.8</ele>
        <time>2019-08-13T09:08:18Z</time>
      </trkpt>
      <trkpt lat="40.0164360" lon="-4.2760730">
        <ele>561.0</ele>
        <time>2019-08-13T09:08:19Z</time>
      </trkpt>
      <trkpt lat="40.0164850" lon="-4.2760750">
        <ele>561.2</ele>
        <time>2019-08-13T09:08:20Z</time>
      </trkpt>
      <trkpt lat="40.0165340" lon="-4.2760760">
        <ele>561.4</ele>
        <time>2019-08-13T09:08:21Z</time>
      </trkpt>
      <trkpt lat="40.0165840" lon="-4.2760730">
        <ele>561.6</ele>
        <time>2019-08-13T09:08:22Z</time>
      </trkpt>
      <trkpt lat="40.0166340" lon="-4.2760700">
        <ele>561.8</ele>
        <time>2019-08-13T09:08:23Z</time>
      </trkpt>
      <trkpt lat="40.0166830" lon="-4.2760650">
        <ele>561.9</ele>
        <time>2019-08-13T09:08:24Z</time>
      </trkpt>
      <trkpt lat="40.0167320" lon="-4.2760610">
        <ele>562.0</ele>
        <time>2019-08-13T09:08:25Z</time>
      </trkpt>
      <trkpt lat="40.0167820" lon="-4.2760560">
        <ele>562.1</ele>
        <time>2019-08-13T09:08:26Z</time>
      </trkpt>
      <trkpt lat="40.0168310" lon="-4.2760530">
        <ele>562.2</ele>
        <time>2019-08-13T09:08:27Z</time>
      </trkpt>
      <trkpt lat="40.0168790" lon="-4.2760490">
        <ele>562.2</ele>
        <time>2019-08-13T09:08:28Z</time>
      </trkpt>
      <trkpt lat="40.0169290" lon="-4.2760460">
        <ele>562.2</ele>
        <time>2019-08-13T09:08:29Z</time>
      </trkpt>
      <trkpt lat="40.0169780" lon="-4.2760430">
        <ele>562.3</ele>
        <time>2019-08-13T09:08:30Z</time>
      </trkpt>
      <trkpt lat="40.0170270" lon="-4.2760400">
        <ele>562.4</ele>
        <time>2019-08-13T09:08:31Z</time>
      </trkpt>
      <trkpt lat="40.0170740" lon="-4.2760360">
        <ele>562.5</ele>
        <time>2019-08-13T09:08:32Z</time>
      </trkpt>
      <trkpt lat="40.0171220" lon="-4.2760310">
        <ele>562.6</ele>
        <time>2019-08-13T09:08:33Z</time>
      </trkpt>
      <trkpt lat="40.0171700" lon="-4.2760250">
        <ele>562.8</ele>
        <time>2019-08-13T09:08:34Z</time>
      </trkpt>
      <trkpt lat="40.0172170" lon="-4.2760190">
        <ele>562.9</ele>
        <time>2019-08-13T09:08:35Z</time>
      </trkpt>
      <trkpt lat="40.0172650" lon="-4.2760140">
        <ele>563.1</ele>
        <time>2019-08-13T09:08:36Z</time>
      </trkpt>
      <trkpt lat="40.0173140" lon="-4.2760100">
        <ele>563.2</ele>
        <time>2019-08-13T09:08:37Z</time>
      </trkpt>
      <trkpt lat="40.0173610" lon="-4.2760060">
        <ele>563.2</ele>
        <time>2019-08-13T09:08:38Z</time>
      </trkpt>
      <trkpt lat="40.0174090" lon="-4.2760020">
        <ele>563.3</ele>
        <time>2019-08-13T09:08:39Z</time>
      </trkpt>
      <trkpt lat="40.0174580" lon="-4.2759990">
        <ele>563.3</ele>
        <time>2019-08-13T09:08:40Z</time>
      </trkpt>
      <trkpt lat="40.0175060" lon="-4.2759980">
        <ele>563.3</ele>
        <time>2019-08-13T09:08:41Z</time>
      </trkpt>
      <trkpt lat="40.0175540" lon="-4.2759960">
        <ele>563.3</ele>
        <time>2019-08-13T09:08:42Z</time>
      </trkpt>
      <trkpt lat="40.0176010" lon="-4.2759930">
        <ele>563.3</ele>
        <time>2019-08-13T09:08:43Z</time>
      </trkpt>
      <trkpt lat="40.0176500" lon="-4.2759880">
        <ele>563.3</ele>
        <time>2019-08-13T09:08:44Z</time>
      </trkpt>
      <trkpt lat="40.0177000" lon="-4.2759830">
        <ele>563.3</ele>
        <time>2019-08-13T09:08:45Z</time>
      </trkpt>
      <trkpt lat="40.0177470" lon="-4.2759820">
        <ele>563.4</ele>
        <time>2019-08-13T09:08:46Z</time>
      </trkpt>
      <trkpt lat="40.0177950" lon="-4.2759790">
        <ele>563.5</ele>
        <time>2019-08-13T09:08:47Z</time>
      </trkpt>
      <trkpt lat="40.0178430" lon="-4.2759760">
        <ele>563.6</ele>
        <time>2019-08-13T09:08:48Z</time>
      </trkpt>
      <trkpt lat="40.0178900" lon="-4.2759720">
        <ele>563.7</ele>
        <time>2019-08-13T09:08:49Z</time>
      </trkpt>
      <trkpt lat="40.0179370" lon="-4.2759670">
        <ele>563.8</ele>
        <time>2019-08-13T09:08:50Z</time>
      </trkpt>
      <trkpt lat="40.0179840" lon="-4.2759630">
        <ele>563.9</ele>
        <time>2019-08-13T09:08:51Z</time>
      </trkpt>
      <trkpt lat="40.0180320" lon="-4.2759600">
        <ele>564.0</ele>
        <time>2019-08-13T09:08:52Z</time>
      </trkpt>
      <trkpt lat="40.0180790" lon="-4.2759570">
        <ele>564.1</ele>
        <time>2019-08-13T09:08:53Z</time>
      </trkpt>
      <trkpt lat="40.0181260" lon="-4.2759550">
        <ele>564.2</ele>
        <time>2019-08-13T09:08:54Z</time>
      </trkpt>
      <trkpt lat="40.0181730" lon="-4.2759510">
        <ele>564.3</ele>
        <time>2019-08-13T09:08:55Z</time>
      </trkpt>
      <trkpt lat="40.0182200" lon="-4.2759490">
        <ele>564.4</ele>
        <time>2019-08-13T09:08:56Z</time>
      </trkpt>
      <trkpt lat="40.0182670" lon="-4.2759460">
        <ele>564.5</ele>
        <time>2019-08-13T09:08:57Z</time>
      </trkpt>
      <trkpt lat="40.0183140" lon="-4.2759430">
        <ele>564.6</ele>
        <time>2019-08-13T09:08:58Z</time>
      </trkpt>
      <trkpt lat="40.0183610" lon="-4.2759390">
        <ele>564.8</ele>
        <time>2019-08-13T09:08:59Z</time>
      </trkpt>
      <trkpt lat="40.0184070" lon="-4.2759360">
        <ele>565.0</ele>
        <time>2019-08-13T09:09:00Z</time>
      </trkpt>
      <trkpt lat="40.0184520" lon="-4.2759330">
        <ele>565.1</ele>
        <time>2019-08-13T09:09:01Z</time>
      </trkpt>
      <trkpt lat="40.0184970" lon="-4.2759290">
        <ele>565.3</ele>
        <time>2019-08-13T09:09:02Z</time>
      </trkpt>
      <trkpt lat="40.0185420" lon="-4.2759250">
        <ele>565.4</ele>
        <time>2019-08-13T09:09:03Z</time>
      </trkpt>
      <trkpt lat="40.0185870" lon="-4.2759210">
        <ele>565.5</ele>
        <time>2019-08-13T09:09:04Z</time>
      </trkpt>
      <trkpt lat="40.0186290" lon="-4.2759170">
        <ele>565.7</ele>
        <time>2019-08-13T09:09:05Z</time>
      </trkpt>
      <trkpt lat="40.0186720" lon="-4.2759140">
        <ele>565.8</ele>
        <time>2019-08-13T09:09:06Z</time>
      </trkpt>
      <trkpt lat="40.0187160" lon="-4.2759090">
        <ele>566.0</ele>
        <time>2019-08-13T09:09:07Z</time>
      </trkpt>
      <trkpt lat="40.0187610" lon="-4.2759030">
        <ele>566.1</ele>
        <time>2019-08-13T09:09:08Z</time>
      </trkpt>
      <trkpt lat="40.0188060" lon="-4.2758980">
        <ele>566.2</ele>
        <time>2019-08-13T09:09:09Z</time>
      </trkpt>
      <trkpt lat="40.0188510" lon="-4.2758930">
        <ele>566.4</ele>
        <time>2019-08-13T09:09:10Z</time>
      </trkpt>
      <trkpt lat="40.0188970" lon="-4.2758890">
        <ele>566.5</ele>
        <time>2019-08-13T09:09:11Z</time>
      </trkpt>
      <trkpt lat="40.0189440" lon="-4.2758860">
        <ele>566.6</ele>
        <time>2019-08-13T09:09:12Z</time>
      </trkpt>
      <trkpt lat="40.0189890" lon="-4.2758840">
        <ele>566.8</ele>
        <time>2019-08-13T09:09:13Z</time>
      </trkpt>
      <trkpt lat="40.0190340" lon="-4.2758820">
        <ele>566.9</ele>
        <time>2019-08-13T09:09:14Z</time>
      </trkpt>
      <trkpt lat="40.0190810" lon="-4.2758780">
        <ele>567.1</ele>
        <time>2019-08-13T09:09:15Z</time>
      </trkpt>
      <trkpt lat="40.0191270" lon="-4.2758750">
        <ele>567.2</ele>
        <time>2019-08-13T09:09:16Z</time>
      </trkpt>
      <trkpt lat="40.0191730" lon="-4.2758720">
        <ele>567.4</ele>
        <time>2019-08-13T09:09:17Z</time>
      </trkpt>
      <trkpt lat="40.0192180" lon="-4.2758690">
        <ele>567.5</ele>
        <time>2019-08-13T09:09:18Z</time>
      </trkpt>
      <trkpt lat="40.0192650" lon="-4.2758670">
        <ele>567.6</ele>
        <time>2019-08-13T09:09:19Z</time>
      </trkpt>
      <trkpt lat="40.0193100" lon="-4.2758620">
        <ele>567.8</ele>
        <time>2019-08-13T09:09:20Z</time>
      </trkpt>
      <trkpt lat="40.0193560" lon="-4.2758570">
        <ele>567.9</ele>
        <time>2019-08-13T09:09:21Z</time>
      </trkpt>
      <trkpt lat="40.0194030" lon="-4.2758510">
        <ele>568.1</ele>
        <time>2019-08-13T09:09:22Z</time>
      </trkpt>
      <trkpt lat="40.0194520" lon="-4.2758480">
        <ele>568.2</ele>
        <time>2019-08-13T09:09:23Z</time>
      </trkpt>
      <trkpt lat="40.0194990" lon="-4.2758450">
        <ele>568.2</ele>
        <time>2019-08-13T09:09:24Z</time>
      </trkpt>
      <trkpt lat="40.0195470" lon="-4.2758420">
        <ele>568.3</ele>
        <time>2019-08-13T09:09:25Z</time>
      </trkpt>
      <trkpt lat="40.0195940" lon="-4.2758380">
        <ele>568.3</ele>
        <time>2019-08-13T09:09:26Z</time>
      </trkpt>
      <trkpt lat="40.0196420" lon="-4.2758340">
        <ele>568.3</ele>
        <time>2019-08-13T09:09:27Z</time>
      </trkpt>
      <trkpt lat="40.0196900" lon="-4.2758300">
        <ele>568.3</ele>
        <time>2019-08-13T09:09:28Z</time>
      </trkpt>
      <trkpt lat="40.0197380" lon="-4.2758260">
        <ele>568.3</ele>
        <time>2019-08-13T09:09:29Z</time>
      </trkpt>
      <trkpt lat="40.0197850" lon="-4.2758220">
        <ele>568.3</ele>
        <time>2019-08-13T09:09:30Z</time>
      </trkpt>
      <trkpt lat="40.0198320" lon="-4.2758200">
        <ele>568.3</ele>
        <time>2019-08-13T09:09:31Z</time>
      </trkpt>
      <trkpt lat="40.0198790" lon="-4.2758180">
        <ele>568.3</ele>
        <time>2019-08-13T09:09:32Z</time>
      </trkpt>
      <trkpt lat="40.0199250" lon="-4.2758130">
        <ele>568.3</ele>
        <time>2019-08-13T09:09:33Z</time>
      </trkpt>
      <trkpt lat="40.0199710" lon="-4.2758090">
        <ele>568.3</ele>
        <time>2019-08-13T09:09:34Z</time>
      </trkpt>
      <trkpt lat="40.0200180" lon="-4.2758040">
        <ele>568.3</ele>
        <time>2019-08-13T09:09:35Z</time>
      </trkpt>
      <trkpt lat="40.0200650" lon="-4.2757970">
        <ele>568.3</ele>
        <time>2019-08-13T09:09:36Z</time>
      </trkpt>
      <trkpt lat="40.0201120" lon="-4.2757930">
        <ele>568.3</ele>
        <time>2019-08-13T09:09:37Z</time>
      </trkpt>
      <trkpt lat="40.0201590" lon="-4.2757880">
        <ele>568.3</ele>
        <time>2019-08-13T09:09:38Z</time>
      </trkpt>
      <trkpt lat="40.0202060" lon="-4.2757840">
        <ele>568.3</ele>
        <time>2019-08-13T09:09:39Z</time>
      </trkpt>
      <trkpt lat="40.0202530" lon="-4.2757800">
        <ele>568.3</ele>
        <time>2019-08-13T09:09:40Z</time>
      </trkpt>
      <trkpt lat="40.0202990" lon="-4.2757760">
        <ele>568.4</ele>
        <time>2019-08-13T09:09:41Z</time>
      </trkpt>
      <trkpt lat="40.0203460" lon="-4.2757740">
        <ele>568.4</ele>
        <time>2019-08-13T09:09:42Z</time>
      </trkpt>
      <trkpt lat="40.0203930" lon="-4.2757710">
        <ele>568.5</ele>
        <time>2019-08-13T09:09:43Z</time>
      </trkpt>
      <trkpt lat="40.0204400" lon="-4.2757680">
        <ele>568.5</ele>
        <time>2019-08-13T09:09:44Z</time>
      </trkpt>
      <trkpt lat="40.0204870" lon="-4.2757620">
        <ele>568.6</ele>
        <time>2019-08-13T09:09:45Z</time>
      </trkpt>
      <trkpt lat="40.0205360" lon="-4.2757560">
        <ele>568.6</ele>
        <time>2019-08-13T09:09:46Z</time>
      </trkpt>
      <trkpt lat="40.0205830" lon="-4.2757520">
        <ele>568.7</ele>
        <time>2019-08-13T09:09:47Z</time>
      </trkpt>
      <trkpt lat="40.0206310" lon="-4.2757480">
        <ele>568.7</ele>
        <time>2019-08-13T09:09:48Z</time>
      </trkpt>
      <trkpt lat="40.0206800" lon="-4.2757440">
        <ele>568.8</ele>
        <time>2019-08-13T09:09:49Z</time>
      </trkpt>
      <trkpt lat="40.0207300" lon="-4.2757380">
        <ele>568.8</ele>
        <time>2019-08-13T09:09:50Z</time>
      </trkpt>
      <trkpt lat="40.0207810" lon="-4.2757340">
        <ele>568.8</ele>
        <time>2019-08-13T09:09:51Z</time>
      </trkpt>
      <trkpt lat="40.0208310" lon="-4.2757300">
        <ele>568.9</ele>
        <time>2019-08-13T09:09:52Z</time>
      </trkpt>
      <trkpt lat="40.0208820" lon="-4.2757270">
        <ele>568.9</ele>
        <time>2019-08-13T09:09:53Z</time>
      </trkpt>
      <trkpt lat="40.0209330" lon="-4.2757230">
        <ele>569.0</ele>
        <time>2019-08-13T09:09:54Z</time>
      </trkpt>
      <trkpt lat="40.0209840" lon="-4.2757200">
        <ele>569.0</ele>
        <time>2019-08-13T09:09:55Z</time>
      </trkpt>
      <trkpt lat="40.0210360" lon="-4.2757160">
        <ele>569.1</ele>
        <time>2019-08-13T09:09:56Z</time>
      </trkpt>
      <trkpt lat="40.0210880" lon="-4.2757120">
        <ele>569.1</ele>
        <time>2019-08-13T09:09:57Z</time>
      </trkpt>
      <trkpt lat="40.0211400" lon="-4.2757090">
        <ele>569.1</ele>
        <time>2019-08-13T09:09:58Z</time>
      </trkpt>
      <trkpt lat="40.0211900" lon="-4.2757070">
        <ele>569.2</ele>
        <time>2019-08-13T09:09:59Z</time>
      </trkpt>
      <trkpt lat="40.0212390" lon="-4.2757020">
        <ele>569.2</ele>
        <time>2019-08-13T09:10:00Z</time>
      </trkpt>
      <trkpt lat="40.0212880" lon="-4.2756960">
        <ele>569.2</ele>
        <time>2019-08-13T09:10:01Z</time>
      </trkpt>
      <trkpt lat="40.0213380" lon="-4.2756900">
        <ele>569.2</ele>
        <time>2019-08-13T09:10:02Z</time>
      </trkpt>
      <trkpt lat="40.0213900" lon="-4.2756850">
        <ele>569.2</ele>
        <time>2019-08-13T09:10:03Z</time>
      </trkpt>
      <trkpt lat="40.0214410" lon="-4.2756820">
        <ele>569.2</ele>
        <time>2019-08-13T09:10:04Z</time>
      </trkpt>
      <trkpt lat="40.0214920" lon="-4.2756810">
        <ele>569.2</ele>
        <time>2019-08-13T09:10:05Z</time>
      </trkpt>
      <trkpt lat="40.0215440" lon="-4.2756790">
        <ele>569.2</ele>
        <time>2019-08-13T09:10:06Z</time>
      </trkpt>
      <trkpt lat="40.0215960" lon="-4.2756740">
        <ele>569.2</ele>
        <time>2019-08-13T09:10:07Z</time>
      </trkpt>
      <trkpt lat="40.0216480" lon="-4.2756690">
        <ele>569.2</ele>
        <time>2019-08-13T09:10:08Z</time>
      </trkpt>
      <trkpt lat="40.0216990" lon="-4.2756660">
        <ele>569.2</ele>
        <time>2019-08-13T09:10:09Z</time>
      </trkpt>
      <trkpt lat="40.0217500" lon="-4.2756630">
        <ele>569.3</ele>
        <time>2019-08-13T09:10:10Z</time>
      </trkpt>
      <trkpt lat="40.0218010" lon="-4.2756590">
        <ele>569.3</ele>
        <time>2019-08-13T09:10:11Z</time>
      </trkpt>
      <trkpt lat="40.0218520" lon="-4.2756560">
        <ele>569.3</ele>
        <time>2019-08-13T09:10:12Z</time>
      </trkpt>
      <trkpt lat="40.0219030" lon="-4.2756530">
        <ele>569.4</ele>
        <time>2019-08-13T09:10:13Z</time>
      </trkpt>
      <trkpt lat="40.0219540" lon="-4.2756490">
        <ele>569.4</ele>
        <time>2019-08-13T09:10:14Z</time>
      </trkpt>
      <trkpt lat="40.0220060" lon="-4.2756450">
        <ele>569.4</ele>
        <time>2019-08-13T09:10:15Z</time>
      </trkpt>
      <trkpt lat="40.0220570" lon="-4.2756420">
        <ele>569.5</ele>
        <time>2019-08-13T09:10:16Z</time>
      </trkpt>
      <trkpt lat="40.0221080" lon="-4.2756390">
        <ele>569.5</ele>
        <time>2019-08-13T09:10:17Z</time>
      </trkpt>
      <trkpt lat="40.0221590" lon="-4.2756350">
        <ele>569.6</ele>
        <time>2019-08-13T09:10:18Z</time>
      </trkpt>
      <trkpt lat="40.0222090" lon="-4.2756310">
        <ele>569.6</ele>
        <time>2019-08-13T09:10:19Z</time>
      </trkpt>
      <trkpt lat="40.0222600" lon="-4.2756260">
        <ele>569.6</ele>
        <time>2019-08-13T09:10:20Z</time>
      </trkpt>
      <trkpt lat="40.0223110" lon="-4.2756220">
        <ele>569.6</ele>
        <time>2019-08-13T09:10:21Z</time>
      </trkpt>
      <trkpt lat="40.0223610" lon="-4.2756180">
        <ele>569.6</ele>
        <time>2019-08-13T09:10:22Z</time>
      </trkpt>
      <trkpt lat="40.0224100" lon="-4.2756130">
        <ele>569.6</ele>
        <time>2019-08-13T09:10:23Z</time>
      </trkpt>
      <trkpt lat="40.0224590" lon="-4.2756080">
        <ele>569.6</ele>
        <time>2019-08-13T09:10:24Z</time>
      </trkpt>
      <trkpt lat="40.0225090" lon="-4.2756030">
        <ele>569.6</ele>
        <time>2019-08-13T09:10:25Z</time>
      </trkpt>
      <trkpt lat="40.0225580" lon="-4.2755960">
        <ele>569.6</ele>
        <time>2019-08-13T09:10:26Z</time>
      </trkpt>
      <trkpt lat="40.0226070" lon="-4.2755920">
        <ele>569.6</ele>
        <time>2019-08-13T09:10:27Z</time>
      </trkpt>
      <trkpt lat="40.0226570" lon="-4.2755890">
        <ele>569.7</ele>
        <time>2019-08-13T09:10:28Z</time>
      </trkpt>
      <trkpt lat="40.0227060" lon="-4.2755840">
        <ele>569.8</ele>
        <time>2019-08-13T09:10:29Z</time>
      </trkpt>
      <trkpt lat="40.0227550" lon="-4.2755810">
        <ele>569.8</ele>
        <time>2019-08-13T09:10:30Z</time>
      </trkpt>
      <trkpt lat="40.0228040" lon="-4.2755750">
        <ele>569.9</ele>
        <time>2019-08-13T09:10:31Z</time>
      </trkpt>
      <trkpt lat="40.0228520" lon="-4.2755710">
        <ele>570.0</ele>
        <time>2019-08-13T09:10:32Z</time>
      </trkpt>
      <trkpt lat="40.0228980" lon="-4.2755660">
        <ele>570.1</ele>
        <time>2019-08-13T09:10:33Z</time>
      </trkpt>
      <trkpt lat="40.0229440" lon="-4.2755620">
        <ele>570.2</ele>
        <time>2019-08-13T09:10:34Z</time>
      </trkpt>
      <trkpt lat="40.0229900" lon="-4.2755590">
        <ele>570.3</ele>
        <time>2019-08-13T09:10:35Z</time>
      </trkpt>
      <trkpt lat="40.0230360" lon="-4.2755540">
        <ele>570.4</ele>
        <time>2019-08-13T09:10:36Z</time>
      </trkpt>
      <trkpt lat="40.0230800" lon="-4.2755500">
        <ele>570.6</ele>
        <time>2019-08-13T09:10:37Z</time>
      </trkpt>
      <trkpt lat="40.0231230" lon="-4.2755470">
        <ele>570.7</ele>
        <time>2019-08-13T09:10:38Z</time>
      </trkpt>
      <trkpt lat="40.0231650" lon="-4.2755450">
        <ele>570.9</ele>
        <time>2019-08-13T09:10:39Z</time>
      </trkpt>
      <trkpt lat="40.0232080" lon="-4.2755420">
        <ele>571.1</ele>
        <time>2019-08-13T09:10:40Z</time>
      </trkpt>
      <trkpt lat="40.0232500" lon="-4.2755390">
        <ele>571.2</ele>
        <time>2019-08-13T09:10:41Z</time>
      </trkpt>
      <trkpt lat="40.0232920" lon="-4.2755360">
        <ele>571.4</ele>
        <time>2019-08-13T09:10:42Z</time>
      </trkpt>
      <trkpt lat="40.0233330" lon="-4.2755340">
        <ele>571.6</ele>
        <time>2019-08-13T09:10:43Z</time>
      </trkpt>
      <trkpt lat="40.0233740" lon="-4.2755320">
        <ele>571.8</ele>
        <time>2019-08-13T09:10:44Z</time>
      </trkpt>
      <trkpt lat="40.0234140" lon="-4.2755280">
        <ele>571.9</ele>
        <time>2019-08-13T09:10:45Z</time>
      </trkpt>
      <trkpt lat="40.0234550" lon="-4.2755250">
        <ele>572.1</ele>
        <time>2019-08-13T09:10:46Z</time>
      </trkpt>
      <trkpt lat="40.0234960" lon="-4.2755200">
        <ele>572.3</ele>
        <time>2019-08-13T09:10:47Z</time>
      </trkpt>
      <trkpt lat="40.0235370" lon="-4.2755160">
        <ele>572.4</ele>
        <time>2019-08-13T09:10:48Z</time>
      </trkpt>
      <trkpt lat="40.0235770" lon="-4.2755130">
        <ele>572.6</ele>
        <time>2019-08-13T09:10:49Z</time>
      </trkpt>
      <trkpt lat="40.0236170" lon="-4.2755110">
        <ele>572.8</ele>
        <time>2019-08-13T09:10:50Z</time>
      </trkpt>
      <trkpt lat="40.0236560" lon="-4.2755070">
        <ele>572.9</ele>
        <time>2019-08-13T09:10:51Z</time>
      </trkpt>
      <trkpt lat="40.0236940" lon="-4.2755040">
        <ele>573.0</ele>
        <time>2019-08-13T09:10:52Z</time>
      </trkpt>
      <trkpt lat="40.0237310" lon="-4.2755000">
        <ele>573.2</ele>
        <time>2019-08-13T09:10:53Z</time>
      </trkpt>
      <trkpt lat="40.0237700" lon="-4.2754960">
        <ele>573.3</ele>
        <time>2019-08-13T09:10:54Z</time>
      </trkpt>
      <trkpt lat="40.0238090" lon="-4.2754920">
        <ele>573.5</ele>
        <time>2019-08-13T09:10:55Z</time>
      </trkpt>
      <trkpt lat="40.0238480" lon="-4.2754890">
        <ele>573.6</ele>
        <time>2019-08-13T09:10:56Z</time>
      </trkpt>
      <trkpt lat="40.0238860" lon="-4.2754850">
        <ele>573.8</ele>
        <time>2019-08-13T09:10:57Z</time>
      </trkpt>
      <trkpt lat="40.0239240" lon="-4.2754840">
        <ele>573.9</ele>
        <time>2019-08-13T09:10:58Z</time>
      </trkpt>
      <trkpt lat="40.0239610" lon="-4.2754830">
        <ele>574.1</ele>
        <time>2019-08-13T09:10:59Z</time>
      </trkpt>
      <trkpt lat="40.0239960" lon="-4.2754800">
        <ele>574.2</ele>
        <time>2019-08-13T09:11:00Z</time>
      </trkpt>
      <trkpt lat="40.0240320" lon="-4.2754770">
        <ele>574.3</ele>
        <time>2019-08-13T09:11:01Z</time>
      </trkpt>
      <trkpt lat="40.0240670" lon="-4.2754740">
        <ele>574.5</ele>
        <time>2019-08-13T09:11:02Z</time>
      </trkpt>
      <trkpt lat="40.0241010" lon="-4.2754710">
        <ele>574.6</ele>
        <time>2019-08-13T09:11:03Z</time>
      </trkpt>
      <trkpt lat="40.0241370" lon="-4.2754680">
        <ele>574.8</ele>
        <time>2019-08-13T09:11:04Z</time>
      </trkpt>
      <trkpt lat="40.0241730" lon="-4.2754650">
        <ele>574.9</ele>
        <time>2019-08-13T09:11:05Z</time>
      </trkpt>
      <trkpt lat="40.0242090" lon="-4.2754610">
        <ele>575.1</ele>
        <time>2019-08-13T09:11:06Z</time>
      </trkpt>
      <trkpt lat="40.0242460" lon="-4.2754590">
        <ele>575.2</ele>
        <time>2019-08-13T09:11:07Z</time>
      </trkpt>
      <trkpt lat="40.0242830" lon="-4.2754560">
        <ele>575.4</ele>
        <time>2019-08-13T09:11:08Z</time>
      </trkpt>
      <trkpt lat="40.0243190" lon="-4.2754540">
        <ele>575.5</ele>
        <time>2019-08-13T09:11:09Z</time>
      </trkpt>
      <trkpt lat="40.0243540" lon="-4.2754530">
        <ele>575.7</ele>
        <time>2019-08-13T09:11:10Z</time>
      </trkpt>
      <trkpt lat="40.0243880" lon="-4.2754520">
        <ele>575.9</ele>
        <time>2019-08-13T09:11:11Z</time>
      </trkpt>
      <trkpt lat="40.0244220" lon="-4.2754480">
        <ele>576.0</ele>
        <time>2019-08-13T09:11:12Z</time>
      </trkpt>
      <trkpt lat="40.0244560" lon="-4.2754440">
        <ele>576.2</ele>
        <time>2019-08-13T09:11:13Z</time>
      </trkpt>
      <trkpt lat="40.0244900" lon="-4.2754410">
        <ele>576.4</ele>
        <time>2019-08-13T09:11:14Z</time>
      </trkpt>
      <trkpt lat="40.0245230" lon="-4.2754370">
        <ele>576.5</ele>
        <time>2019-08-13T09:11:15Z</time>
      </trkpt>
      <trkpt lat="40.0245570" lon="-4.2754330">
        <ele>576.7</ele>
        <time>2019-08-13T09:11:16Z</time>
      </trkpt>
      <trkpt lat="40.0245920" lon="-4.2754300">
        <ele>576.9</ele>
        <time>2019-08-13T09:11:17Z</time>
      </trkpt>
      <trkpt lat="40.0246260" lon="-4.2754260">
        <ele>577.1</ele>
        <time>2019-08-13T09:11:18Z</time>
      </trkpt>
      <trkpt lat="40.0246600" lon="-4.2754230">
        <ele>577.2</ele>
        <time>2019-08-13T09:11:19Z</time>
      </trkpt>
      <trkpt lat="40.0246950" lon="-4.2754210">
        <ele>577.4</ele>
        <time>2019-08-13T09:11:20Z</time>
      </trkpt>
      <trkpt lat="40.0247300" lon="-4.2754170">
        <ele>577.6</ele>
        <time>2019-08-13T09:11:21Z</time>
      </trkpt>
      <trkpt lat="40.0247650" lon="-4.2754140">
        <ele>577.7</ele>
        <time>2019-08-13T09:11:22Z</time>
      </trkpt>
      <trkpt lat="40.0247990" lon="-4.2754130">
        <ele>577.9</ele>
        <time>2019-08-13T09:11:23Z</time>
      </trkpt>
      <trkpt lat="40.0248340" lon="-4.2754120">
        <ele>578.1</ele>
        <time>2019-08-13T09:11:24Z</time>
      </trkpt>
      <trkpt lat="40.0248680" lon="-4.2754080">
        <ele>578.3</ele>
        <time>2019-08-13T09:11:25Z</time>
      </trkpt>
      <trkpt lat="40.0249020" lon="-4.2754040">
        <ele>578.4</ele>
        <time>2019-08-13T09:11:26Z</time>
      </trkpt>
      <trkpt lat="40.0249370" lon="-4.2754020">
        <ele>578.6</ele>
        <time>2019-08-13T09:11:27Z</time>
      </trkpt>
      <trkpt lat="40.0249710" lon="-4.2754000">
        <ele>578.8</ele>
        <time>2019-08-13T09:11:28Z</time>
      </trkpt>
      <trkpt lat="40.0250060" lon="-4.2753990">
        <ele>578.9</ele>
        <time>2019-08-13T09:11:29Z</time>
      </trkpt>
      <trkpt lat="40.0250400" lon="-4.2753960">
        <ele>579.1</ele>
        <time>2019-08-13T09:11:30Z</time>
      </trkpt>
      <trkpt lat="40.0250760" lon="-4.2753920">
        <ele>579.2</ele>
        <time>2019-08-13T09:11:31Z</time>
      </trkpt>
      <trkpt lat="40.0251110" lon="-4.2753890">
        <ele>579.4</ele>
        <time>2019-08-13T09:11:32Z</time>
      </trkpt>
      <trkpt lat="40.0251460" lon="-4.2753870">
        <ele>579.5</ele>
        <time>2019-08-13T09:11:33Z</time>
      </trkpt>
      <trkpt lat="40.0251810" lon="-4.2753850">
        <ele>579.6</ele>
        <time>2019-08-13T09:11:34Z</time>
      </trkpt>
      <trkpt lat="40.0252150" lon="-4.2753820">
        <ele>579.7</ele>
        <time>2019-08-13T09:11:35Z</time>
      </trkpt>
      <trkpt lat="40.0252500" lon="-4.2753790">
        <ele>579.8</ele>
        <time>2019-08-13T09:11:36Z</time>
      </trkpt>
      <trkpt lat="40.0252840" lon="-4.2753760">
        <ele>579.8</ele>
        <time>2019-08-13T09:11:37Z</time>
      </trkpt>
      <trkpt lat="40.0253200" lon="-4.2753740">
        <ele>579.9</ele>
        <time>2019-08-13T09:11:38Z</time>
      </trkpt>
      <trkpt lat="40.0253560" lon="-4.2753700">
        <ele>580.0</ele>
        <time>2019-08-13T09:11:39Z</time>
      </trkpt>
      <trkpt lat="40.0253920" lon="-4.2753670">
        <ele>580.2</ele>
        <time>2019-08-13T09:11:40Z</time>
      </trkpt>
      <trkpt lat="40.0254270" lon="-4.2753630">
        <ele>580.3</ele>
        <time>2019-08-13T09:11:41Z</time>
      </trkpt>
      <trkpt lat="40.0254630" lon="-4.2753600">
        <ele>580.4</ele>
        <time>2019-08-13T09:11:42Z</time>
      </trkpt>
      <trkpt lat="40.0254990" lon="-4.2753590">
        <ele>580.6</ele>
        <time>2019-08-13T09:11:43Z</time>
      </trkpt>
      <trkpt lat="40.0255340" lon="-4.2753560">
        <ele>580.7</ele>
        <time>2019-08-13T09:11:44Z</time>
      </trkpt>
      <trkpt lat="40.0255690" lon="-4.2753530">
        <ele>580.9</ele>
        <time>2019-08-13T09:11:45Z</time>
      </trkpt>
      <trkpt lat="40.0256040" lon="-4.2753510">
        <ele>581.0</ele>
        <time>2019-08-13T09:11:46Z</time>
      </trkpt>
      <trkpt lat="40.0256400" lon="-4.2753480">
        <ele>581.2</ele>
        <time>2019-08-13T09:11:47Z</time>
      </trkpt>
      <trkpt lat="40.0256760" lon="-4.2753430">
        <ele>581.4</ele>
        <time>2019-08-13T09:11:48Z</time>
      </trkpt>
      <trkpt lat="40.0257110" lon="-4.2753400">
        <ele>581.5</ele>
        <time>2019-08-13T09:11:49Z</time>
      </trkpt>
      <trkpt lat="40.0257470" lon="-4.2753370">
        <ele>581.7</ele>
        <time>2019-08-13T09:11:50Z</time>
      </trkpt>
      <trkpt lat="40.0257830" lon="-4.2753340">
        <ele>581.8</ele>
        <time>2019-08-13T09:11:51Z</time>
      </trkpt>
      <trkpt lat="40.0258200" lon="-4.2753310">
        <ele>582.0</ele>
        <time>2019-08-13T09:11:52Z</time>
      </trkpt>
      <trkpt lat="40.0258570" lon="-4.2753270">
        <ele>582.1</ele>
        <time>2019-08-13T09:11:53Z</time>
      </trkpt>
      <trkpt lat="40.0258950" lon="-4.2753240">
        <ele>582.2</ele>
        <time>2019-08-13T09:11:54Z</time>
      </trkpt>
      <trkpt lat="40.0259330" lon="-4.2753210">
        <ele>582.3</ele>
        <time>2019-08-13T09:11:55Z</time>
      </trkpt>
      <trkpt lat="40.0259700" lon="-4.2753180">
        <ele>582.4</ele>
        <time>2019-08-13T09:11:56Z</time>
      </trkpt>
      <trkpt lat="40.0260080" lon="-4.2753150">
        <ele>582.5</ele>
        <time>2019-08-13T09:11:57Z</time>
      </trkpt>
      <trkpt lat="40.0260460" lon="-4.2753120">
        <ele>582.6</ele>
        <time>2019-08-13T09:11:58Z</time>
      </trkpt>
      <trkpt lat="40.0260840" lon="-4.2753080">
        <ele>582.6</ele>
        <time>2019-08-13T09:11:59Z</time>
      </trkpt>
      <trkpt lat="40.0261230" lon="-4.2753050">
        <ele>582.7</ele>
        <time>2019-08-13T09:12:00Z</time>
      </trkpt>
      <trkpt lat="40.0261630" lon="-4.2753010">
        <ele>582.8</ele>
        <time>2019-08-13T09:12:01Z</time>
      </trkpt>
      <trkpt lat="40.0262030" lon="-4.2752970">
        <ele>582.8</ele>
        <time>2019-08-13T09:12:02Z</time>
      </trkpt>
      <trkpt lat="40.0262440" lon="-4.2752940">
        <ele>582.8</ele>
        <time>2019-08-13T09:12:03Z</time>
      </trkpt>
      <trkpt lat="40.0262830" lon="-4.2752910">
        <ele>582.9</ele>
        <time>2019-08-13T09:12:04Z</time>
      </trkpt>
      <trkpt lat="40.0263250" lon="-4.2752870">
        <ele>582.9</ele>
        <time>2019-08-13T09:12:05Z</time>
      </trkpt>
      <trkpt lat="40.0263670" lon="-4.2752840">
        <ele>583.0</ele>
        <time>2019-08-13T09:12:06Z</time>
      </trkpt>
      <trkpt lat="40.0264090" lon="-4.2752800">
        <ele>583.0</ele>
        <time>2019-08-13T09:12:07Z</time>
      </trkpt>
      <trkpt lat="40.0264530" lon="-4.2752770">
        <ele>583.1</ele>
        <time>2019-08-13T09:12:08Z</time>
      </trkpt>
      <trkpt lat="40.0264960" lon="-4.2752740">
        <ele>583.1</ele>
        <time>2019-08-13T09:12:09Z</time>
      </trkpt>
      <trkpt lat="40.0265370" lon="-4.2752710">
        <ele>583.2</ele>
        <time>2019-08-13T09:12:10Z</time>
      </trkpt>
      <trkpt lat="40.0265770" lon="-4.2752690">
        <ele>583.3</ele>
        <time>2019-08-13T09:12:11Z</time>
      </trkpt>
      <trkpt lat="40.0266180" lon="-4.2752660">
        <ele>583.4</ele>
        <time>2019-08-13T09:12:12Z</time>
      </trkpt>
      <trkpt lat="40.0266610" lon="-4.2752620">
        <ele>583.5</ele>
        <time>2019-08-13T09:12:13Z</time>
      </trkpt>
      <trkpt lat="40.0267050" lon="-4.2752580">
        <ele>583.6</ele>
        <time>2019-08-13T09:12:14Z</time>
      </trkpt>
      <trkpt lat="40.0267500" lon="-4.2752530">
        <ele>583.7</ele>
        <time>2019-08-13T09:12:15Z</time>
      </trkpt>
      <trkpt lat="40.0267950" lon="-4.2752480">
        <ele>583.8</ele>
        <time>2019-08-13T09:12:16Z</time>
      </trkpt>
      <trkpt lat="40.0268410" lon="-4.2752440">
        <ele>583.9</ele>
        <time>2019-08-13T09:12:17Z</time>
      </trkpt>
      <trkpt lat="40.0268870" lon="-4.2752390">
        <ele>583.9</ele>
        <time>2019-08-13T09:12:18Z</time>
      </trkpt>
      <trkpt lat="40.0269320" lon="-4.2752350">
        <ele>584.0</ele>
        <time>2019-08-13T09:12:19Z</time>
      </trkpt>
      <trkpt lat="40.0269780" lon="-4.2752310">
        <ele>584.1</ele>
        <time>2019-08-13T09:12:20Z</time>
      </trkpt>
      <trkpt lat="40.0270240" lon="-4.2752270">
        <ele>584.1</ele>
        <time>2019-08-13T09:12:21Z</time>
      </trkpt>
      <trkpt lat="40.0270680" lon="-4.2752230">
        <ele>584.2</ele>
        <time>2019-08-13T09:12:22Z</time>
      </trkpt>
      <trkpt lat="40.0271120" lon="-4.2752220">
        <ele>584.2</ele>
        <time>2019-08-13T09:12:23Z</time>
      </trkpt>
      <trkpt lat="40.0271570" lon="-4.2752190">
        <ele>584.3</ele>
        <time>2019-08-13T09:12:24Z</time>
      </trkpt>
      <trkpt lat="40.0272030" lon="-4.2752160">
        <ele>584.3</ele>
        <time>2019-08-13T09:12:25Z</time>
      </trkpt>
      <trkpt lat="40.0272500" lon="-4.2752110">
        <ele>584.4</ele>
        <time>2019-08-13T09:12:26Z</time>
      </trkpt>
      <trkpt lat="40.0272980" lon="-4.2752080">
        <ele>584.4</ele>
        <time>2019-08-13T09:12:27Z</time>
      </trkpt>
      <trkpt lat="40.0273430" lon="-4.2752070">
        <ele>584.4</ele>
        <time>2019-08-13T09:12:28Z</time>
      </trkpt>
      <trkpt lat="40.0273850" lon="-4.2752030">
        <ele>584.4</ele>
        <time>2019-08-13T09:12:29Z</time>
      </trkpt>
      <trkpt lat="40.0274250" lon="-4.2751980">
        <ele>584.5</ele>
        <time>2019-08-13T09:12:30Z</time>
      </trkpt>
      <trkpt lat="40.0274650" lon="-4.2751930">
        <ele>584.5</ele>
        <time>2019-08-13T09:12:31Z</time>
      </trkpt>
      <trkpt lat="40.0275060" lon="-4.2751900">
        <ele>584.5</ele>
        <time>2019-08-13T09:12:32Z</time>
      </trkpt>
      <trkpt lat="40.0275500" lon="-4.2751860">
        <ele>584.5</ele>
        <time>2019-08-13T09:12:33Z</time>
      </trkpt>
      <trkpt lat="40.0275970" lon="-4.2751830">
        <ele>584.5</ele>
        <time>2019-08-13T09:12:34Z</time>
      </trkpt>
      <trkpt lat="40.0276460" lon="-4.2751800">
        <ele>584.6</ele>
        <time>2019-08-13T09:12:35Z</time>
      </trkpt>
      <trkpt lat="40.0276970" lon="-4.2751750">
        <ele>584.6</ele>
        <time>2019-08-13T09:12:36Z</time>
      </trkpt>
      <trkpt lat="40.0277470" lon="-4.2751710">
        <ele>584.6</ele>
        <time>2019-08-13T09:12:37Z</time>
      </trkpt>
      <trkpt lat="40.0277950" lon="-4.2751670">
        <ele>584.6</ele>
        <time>2019-08-13T09:12:38Z</time>
      </trkpt>
      <trkpt lat="40.0278420" lon="-4.2751650">
        <ele>584.6</ele>
        <time>2019-08-13T09:12:39Z</time>
      </trkpt>
      <trkpt lat="40.0278860" lon="-4.2751610">
        <ele>584.6</ele>
        <time>2019-08-13T09:12:40Z</time>
      </trkpt>
      <trkpt lat="40.0279310" lon="-4.2751550">
        <ele>584.6</ele>
        <time>2019-08-13T09:12:41Z</time>
      </trkpt>
      <trkpt lat="40.0279740" lon="-4.2751500">
        <ele>584.6</ele>
        <time>2019-08-13T09:12:42Z</time>
      </trkpt>
      <trkpt lat="40.0280170" lon="-4.2751480">
        <ele>584.6</ele>
        <time>2019-08-13T09:12:43Z</time>
      </trkpt>
      <trkpt lat="40.0280600" lon="-4.2751470">
        <ele>584.6</ele>
        <time>2019-08-13T09:12:44Z</time>
      </trkpt>
      <trkpt lat="40.0281010" lon="-4.2751480">
        <ele>584.6</ele>
        <time>2019-08-13T09:12:45Z</time>
      </trkpt>
      <trkpt lat="40.0281420" lon="-4.2751430">
        <ele>584.6</ele>
        <time>2019-08-13T09:12:46Z</time>
      </trkpt>
      <trkpt lat="40.0281820" lon="-4.2751370">
        <ele>584.6</ele>
        <time>2019-08-13T09:12:47Z</time>
      </trkpt>
      <trkpt lat="40.0282240" lon="-4.2751330">
        <ele>584.6</ele>
        <time>2019-08-13T09:12:48Z</time>
      </trkpt>
      <trkpt lat="40.0282690" lon="-4.2751290">
        <ele>584.6</ele>
        <time>2019-08-13T09:12:49Z</time>
      </trkpt>
      <trkpt lat="40.0283160" lon="-4.2751250">
        <ele>584.5</ele>
        <time>2019-08-13T09:12:50Z</time>
      </trkpt>
      <trkpt lat="40.0283660" lon="-4.2751210">
        <ele>584.5</ele>
        <time>2019-08-13T09:12:51Z</time>
      </trkpt>
      <trkpt lat="40.0284180" lon="-4.2751160">
        <ele>584.5</ele>
        <time>2019-08-13T09:12:52Z</time>
      </trkpt>
      <trkpt lat="40.0284730" lon="-4.2751130">
        <ele>584.5</ele>
        <time>2019-08-13T09:12:53Z</time>
      </trkpt>
      <trkpt lat="40.0285280" lon="-4.2751080">
        <ele>584.5</ele>
        <time>2019-08-13T09:12:54Z</time>
      </trkpt>
      <trkpt lat="40.0285850" lon="-4.2751030">
        <ele>584.5</ele>
        <time>2019-08-13T09:12:55Z</time>
      </trkpt>
      <trkpt lat="40.0286440" lon="-4.2751000">
        <ele>584.5</ele>
        <time>2019-08-13T09:12:56Z</time>
      </trkpt>
      <trkpt lat="40.0287040" lon="-4.2750960">
        <ele>584.4</ele>
        <time>2019-08-13T09:12:57Z</time>
      </trkpt>
      <trkpt lat="40.0287660" lon="-4.2750920">
        <ele>584.4</ele>
        <time>2019-08-13T09:12:58Z</time>
      </trkpt>
      <trkpt lat="40.0288270" lon="-4.2750880">
        <ele>584.3</ele>
        <time>2019-08-13T09:12:59Z</time>
      </trkpt>
      <trkpt lat="40.0288870" lon="-4.2750860">
        <ele>584.3</ele>
        <time>2019-08-13T09:13:00Z</time>
      </trkpt>
      <trkpt lat="40.0289460" lon="-4.2750830">
        <ele>584.2</ele>
        <time>2019-08-13T09:13:01Z</time>
      </trkpt>
      <trkpt lat="40.0290030" lon="-4.2750820">
        <ele>584.2</ele>
        <time>2019-08-13T09:13:02Z</time>
      </trkpt>
      <trkpt lat="40.0290580" lon="-4.2750790">
        <ele>584.1</ele>
        <time>2019-08-13T09:13:03Z</time>
      </trkpt>
      <trkpt lat="40.0291120" lon="-4.2750720">
        <ele>584.1</ele>
        <time>2019-08-13T09:13:04Z</time>
      </trkpt>
      <trkpt lat="40.0291670" lon="-4.2750650">
        <ele>584.0</ele>
        <time>2019-08-13T09:13:05Z</time>
      </trkpt>
      <trkpt lat="40.0292230" lon="-4.2750580">
        <ele>584.0</ele>
        <time>2019-08-13T09:13:06Z</time>
      </trkpt>
      <trkpt lat="40.0292820" lon="-4.2750530">
        <ele>583.9</ele>
        <time>2019-08-13T09:13:07Z</time>
      </trkpt>
      <trkpt lat="40.0293420" lon="-4.2750470">
        <ele>583.9</ele>
        <time>2019-08-13T09:13:08Z</time>
      </trkpt>
      <trkpt lat="40.0294010" lon="-4.2750420">
        <ele>583.8</ele>
        <time>2019-08-13T09:13:09Z</time>
      </trkpt>
      <trkpt lat="40.0294600" lon="-4.2750370">
        <ele>583.8</ele>
        <time>2019-08-13T09:13:10Z</time>
      </trkpt>
      <trkpt lat="40.0295170" lon="-4.2750330">
        <ele>583.7</ele>
        <time>2019-08-13T09:13:11Z</time>
      </trkpt>
      <trkpt lat="40.0295720" lon="-4.2750290">
        <ele>583.7</ele>
        <time>2019-08-13T09:13:12Z</time>
      </trkpt>
      <trkpt lat="40.0296250" lon="-4.2750250">
        <ele>583.6</ele>
        <time>2019-08-13T09:13:13Z</time>
      </trkpt>
      <trkpt lat="40.0296770" lon="-4.2750210">
        <ele>583.6</ele>
        <time>2019-08-13T09:13:14Z</time>
      </trkpt>
      <trkpt lat="40.0297280" lon="-4.2750160">
        <ele>583.6</ele>
        <time>2019-08-13T09:13:15Z</time>
      </trkpt>
      <trkpt lat="40.0297820" lon="-4.2750110">
        <ele>583.5</ele>
        <time>2019-08-13T09:13:16Z</time>
      </trkpt>
      <trkpt lat="40.0298360" lon="-4.2750070">
        <ele>583.5</ele>
        <time>2019-08-13T09:13:17Z</time>
      </trkpt>
      <trkpt lat="40.0298900" lon="-4.2750010">
        <ele>583.5</ele>
        <time>2019-08-13T09:13:18Z</time>
      </trkpt>
      <trkpt lat="40.0299460" lon="-4.2749940">
        <ele>583.5</ele>
        <time>2019-08-13T09:13:19Z</time>
      </trkpt>
      <trkpt lat="40.0300030" lon="-4.2749920">
        <ele>583.4</ele>
        <time>2019-08-13T09:13:20Z</time>
      </trkpt>
      <trkpt lat="40.0300580" lon="-4.2749890">
        <ele>583.4</ele>
        <time>2019-08-13T09:13:21Z</time>
      </trkpt>
      <trkpt lat="40.0301110" lon="-4.2749850">
        <ele>583.4</ele>
        <time>2019-08-13T09:13:22Z</time>
      </trkpt>
      <trkpt lat="40.0301640" lon="-4.2749820">
        <ele>583.4</ele>
        <time>2019-08-13T09:13:23Z</time>
      </trkpt>
      <trkpt lat="40.0302150" lon="-4.2749770">
        <ele>583.3</ele>
        <time>2019-08-13T09:13:24Z</time>
      </trkpt>
      <trkpt lat="40.0302640" lon="-4.2749740">
        <ele>583.3</ele>
        <time>2019-08-13T09:13:25Z</time>
      </trkpt>
      <trkpt lat="40.0303130" lon="-4.2749690">
        <ele>583.3</ele>
        <time>2019-08-13T09:13:26Z</time>
      </trkpt>
      <trkpt lat="40.0303640" lon="-4.2749640">
        <ele>583.2</ele>
        <time>2019-08-13T09:13:27Z</time>
      </trkpt>
      <trkpt lat="40.0304140" lon="-4.2749620">
        <ele>583.2</ele>
        <time>2019-08-13T09:13:28Z</time>
      </trkpt>
      <trkpt lat="40.0304670" lon="-4.2749590">
        <ele>583.2</ele>
        <time>2019-08-13T09:13:29Z</time>
      </trkpt>
      <trkpt lat="40.0305210" lon="-4.2749560">
        <ele>583.2</ele>
        <time>2019-08-13T09:13:30Z</time>
      </trkpt>
      <trkpt lat="40.0305760" lon="-4.2749520">
        <ele>583.2</ele>
        <time>2019-08-13T09:13:31Z</time>
      </trkpt>
      <trkpt lat="40.0306300" lon="-4.2749480">
        <ele>583.2</ele>
        <time>2019-08-13T09:13:32Z</time>
      </trkpt>
      <trkpt lat="40.0306850" lon="-4.2749430">
        <ele>583.2</ele>
        <time>2019-08-13T09:13:33Z</time>
      </trkpt>
      <trkpt lat="40.0307380" lon="-4.2749370">
        <ele>583.2</ele>
        <time>2019-08-13T09:13:34Z</time>
      </trkpt>
      <trkpt lat="40.0307890" lon="-4.2749290">
        <ele>583.3</ele>
        <time>2019-08-13T09:13:35Z</time>
      </trkpt>
      <trkpt lat="40.0308380" lon="-4.2749150">
        <ele>583.3</ele>
        <time>2019-08-13T09:13:36Z</time>
      </trkpt>
      <trkpt lat="40.0308840" lon="-4.2748910">
        <ele>583.4</ele>
        <time>2019-08-13T09:13:37Z</time>
      </trkpt>
      <trkpt lat="40.0309280" lon="-4.2748580">
        <ele>583.5</ele>
        <time>2019-08-13T09:13:38Z</time>
      </trkpt>
      <trkpt lat="40.0309680" lon="-4.2748180">
        <ele>583.6</ele>
        <time>2019-08-13T09:13:39Z</time>
      </trkpt>
      <trkpt lat="40.0310020" lon="-4.2747700">
        <ele>583.6</ele>
        <time>2019-08-13T09:13:40Z</time>
      </trkpt>
      <trkpt lat="40.0310360" lon="-4.2747190">
        <ele>583.6</ele>
        <time>2019-08-13T09:13:41Z</time>
      </trkpt>
      <trkpt lat="40.0310740" lon="-4.2746700">
        <ele>583.7</ele>
        <time>2019-08-13T09:13:42Z</time>
      </trkpt>
      <trkpt lat="40.0311170" lon="-4.2746290">
        <ele>583.7</ele>
        <time>2019-08-13T09:13:43Z</time>
      </trkpt>
      <trkpt lat="40.0311620" lon="-4.2745980">
        <ele>583.7</ele>
        <time>2019-08-13T09:13:44Z</time>
      </trkpt>
      <trkpt lat="40.0312100" lon="-4.2745830">
        <ele>583.7</ele>
        <time>2019-08-13T09:13:45Z</time>
      </trkpt>
      <trkpt lat="40.0312610" lon="-4.2745840">
        <ele>583.7</ele>
        <time>2019-08-13T09:13:46Z</time>
      </trkpt>
      <trkpt lat="40.0313120" lon="-4.2745980">
        <ele>583.7</ele>
        <time>2019-08-13T09:13:47Z</time>
      </trkpt>
      <trkpt lat="40.0313620" lon="-4.2746240">
        <ele>583.7</ele>
        <time>2019-08-13T09:13:48Z</time>
      </trkpt>
      <trkpt lat="40.0314100" lon="-4.2746600">
        <ele>583.7</ele>
        <time>2019-08-13T09:13:49Z</time>
      </trkpt>
      <trkpt lat="40.0314560" lon="-4.2747020">
        <ele>583.5</ele>
        <time>2019-08-13T09:13:50Z</time>
      </trkpt>
      <trkpt lat="40.0315040" lon="-4.2747430">
        <ele>583.5</ele>
        <time>2019-08-13T09:13:51Z</time>
      </trkpt>
      <trkpt lat="40.0315550" lon="-4.2747780">
        <ele>583.4</ele>
        <time>2019-08-13T09:13:52Z</time>
      </trkpt>
      <trkpt lat="40.0316090" lon="-4.2748080">
        <ele>583.4</ele>
        <time>2019-08-13T09:13:53Z</time>
      </trkpt>
      <trkpt lat="40.0316630" lon="-4.2748310">
        <ele>583.4</ele>
        <time>2019-08-13T09:13:54Z</time>
      </trkpt>
      <trkpt lat="40.0317170" lon="-4.2748450">
        <ele>583.4</ele>
        <time>2019-08-13T09:13:55Z</time>
      </trkpt>
      <trkpt lat="40.0317730" lon="-4.2748520">
        <ele>583.5</ele>
        <time>2019-08-13T09:13:56Z</time>
      </trkpt>
      <trkpt lat="40.0318270" lon="-4.2748540">
        <ele>583.5</ele>
        <time>2019-08-13T09:13:57Z</time>
      </trkpt>
      <trkpt lat="40.0318840" lon="-4.2748520">
        <ele>583.5</ele>
        <time>2019-08-13T09:13:58Z</time>
      </trkpt>
      <trkpt lat="40.0319410" lon="-4.2748500">
        <ele>583.5</ele>
        <time>2019-08-13T09:13:59Z</time>
      </trkpt>
      <trkpt lat="40.0319980" lon="-4.2748450">
        <ele>583.5</ele>
        <time>2019-08-13T09:14:00Z</time>
      </trkpt>
      <trkpt lat="40.0320550" lon="-4.2748390">
        <ele>583.4</ele>
        <time>2019-08-13T09:14:01Z</time>
      </trkpt>
      <trkpt lat="40.0321130" lon="-4.2748350">
        <ele>583.4</ele>
        <time>2019-08-13T09:14:02Z</time>
      </trkpt>
      <trkpt lat="40.0321710" lon="-4.2748310">
        <ele>583.4</ele>
        <time>2019-08-13T09:14:03Z</time>
      </trkpt>
      <trkpt lat="40.0322290" lon="-4.2748270">
        <ele>583.3</ele>
        <time>2019-08-13T09:14:04Z</time>
      </trkpt>
      <trkpt lat="40.0322870" lon="-4.2748240">
        <ele>583.3</ele>
        <time>2019-08-13T09:14:05Z</time>
      </trkpt>
      <trkpt lat="40.0323440" lon="-4.2748200">
        <ele>583.3</ele>
        <time>2019-08-13T09:14:06Z</time>
      </trkpt>
      <trkpt lat="40.0324010" lon="-4.2748140">
        <ele>583.3</ele>
        <time>2019-08-13T09:14:07Z</time>
      </trkpt>
      <trkpt lat="40.0324550" lon="-4.2748080">
        <ele>583.3</ele>
        <time>2019-08-13T09:14:08Z</time>
      </trkpt>
      <trkpt lat="40.0325100" lon="-4.2748020">
        <ele>583.2</ele>
        <time>2019-08-13T09:14:09Z</time>
      </trkpt>
      <trkpt lat="40.0325640" lon="-4.2747970">
        <ele>583.3</ele>
        <time>2019-08-13T09:14:10Z</time>
      </trkpt>
      <trkpt lat="40.0326190" lon="-4.2747900">
        <ele>583.2</ele>
        <time>2019-08-13T09:14:11Z</time>
      </trkpt>
      <trkpt lat="40.0326730" lon="-4.2747830">
        <ele>583.2</ele>
        <time>2019-08-13T09:14:12Z</time>
      </trkpt>
      <trkpt lat="40.0327290" lon="-4.2747770">
        <ele>583.2</ele>
        <time>2019-08-13T09:14:13Z</time>
      </trkpt>
      <trkpt lat="40.0327850" lon="-4.2747730">
        <ele>583.2</ele>
        <time>2019-08-13T09:14:14Z</time>
      </trkpt>
      <trkpt lat="40.0328400" lon="-4.2747680">
        <ele>583.2</ele>
        <time>2019-08-13T09:14:15Z</time>
      </trkpt>
      <trkpt lat="40.0328970" lon="-4.2747640">
        <ele>583.2</ele>
        <time>2019-08-13T09:14:16Z</time>
      </trkpt>
      <trkpt lat="40.0329550" lon="-4.2747610">
        <ele>583.2</ele>
        <time>2019-08-13T09:14:17Z</time>
      </trkpt>
      <trkpt lat="40.0330130" lon="-4.2747570">
        <ele>583.2</ele>
        <time>2019-08-13T09:14:18Z</time>
      </trkpt>
      <trkpt lat="40.0330730" lon="-4.2747530">
        <ele>583.2</ele>
        <time>2019-08-13T09:14:19Z</time>
      </trkpt>
      <trkpt lat="40.0331330" lon="-4.2747470">
        <ele>583.3</ele>
        <time>2019-08-13T09:14:20Z</time>
      </trkpt>
      <trkpt lat="40.0331930" lon="-4.2747420">
        <ele>583.3</ele>
        <time>2019-08-13T09:14:21Z</time>
      </trkpt>
      <trkpt lat="40.0332520" lon="-4.2747370">
        <ele>583.3</ele>
        <time>2019-08-13T09:14:22Z</time>
      </trkpt>
      <trkpt lat="40.0333110" lon="-4.2747340">
        <ele>583.3</ele>
        <time>2019-08-13T09:14:23Z</time>
      </trkpt>
      <trkpt lat="40.0333690" lon="-4.2747310">
        <ele>583.3</ele>
        <time>2019-08-13T09:14:24Z</time>
      </trkpt>
      <trkpt lat="40.0334260" lon="-4.2747260">
        <ele>583.3</ele>
        <time>2019-08-13T09:14:25Z</time>
      </trkpt>
      <trkpt lat="40.0334840" lon="-4.2747200">
        <ele>583.2</ele>
        <time>2019-08-13T09:14:26Z</time>
      </trkpt>
      <trkpt lat="40.0335420" lon="-4.2747150">
        <ele>583.2</ele>
        <time>2019-08-13T09:14:27Z</time>
      </trkpt>
      <trkpt lat="40.0336010" lon="-4.2747100">
        <ele>583.2</ele>
        <time>2019-08-13T09:14:28Z</time>
      </trkpt>
      <trkpt lat="40.0336610" lon="-4.2747060">
        <ele>583.2</ele>
        <time>2019-08-13T09:14:29Z</time>
      </trkpt>
      <trkpt lat="40.0337220" lon="-4.2747000">
        <ele>583.2</ele>
        <time>2019-08-13T09:14:30Z</time>
      </trkpt>
      <trkpt lat="40.0337830" lon="-4.2746940">
        <ele>583.1</ele>
        <time>2019-08-13T09:14:31Z</time>
      </trkpt>
      <trkpt lat="40.0338450" lon="-4.2746890">
        <ele>583.1</ele>
        <time>2019-08-13T09:14:32Z</time>
      </trkpt>
      <trkpt lat="40.0339070" lon="-4.2746850">
        <ele>583.1</ele>
        <time>2019-08-13T09:14:33Z</time>
      </trkpt>
      <trkpt lat="40.0339690" lon="-4.2746800">
        <ele>583.1</ele>
        <time>2019-08-13T09:14:34Z</time>
      </trkpt>
      <trkpt lat="40.0340320" lon="-4.2746740">
        <ele>583.1</ele>
        <time>2019-08-13T09:14:35Z</time>
      </trkpt>
      <trkpt lat="40.0340960" lon="-4.2746680">
        <ele>583.1</ele>
        <time>2019-08-13T09:14:36Z</time>
      </trkpt>
      <trkpt lat="40.0341600" lon="-4.2746620">
        <ele>583.1</ele>
        <time>2019-08-13T09:14:37Z</time>
      </trkpt>
      <trkpt lat="40.0342240" lon="-4.2746570">
        <ele>583.1</ele>
        <time>2019-08-13T09:14:38Z</time>
      </trkpt>
      <trkpt lat="40.0342880" lon="-4.2746530">
        <ele>583.1</ele>
        <time>2019-08-13T09:14:39Z</time>
      </trkpt>
      <trkpt lat="40.0343520" lon="-4.2746480">
        <ele>583.1</ele>
        <time>2019-08-13T09:14:40Z</time>
      </trkpt>
      <trkpt lat="40.0344160" lon="-4.2746420">
        <ele>583.1</ele>
        <time>2019-08-13T09:14:41Z</time>
      </trkpt>
      <trkpt lat="40.0344800" lon="-4.2746370">
        <ele>583.1</ele>
        <time>2019-08-13T09:14:42Z</time>
      </trkpt>
      <trkpt lat="40.0345440" lon="-4.2746310">
        <ele>583.1</ele>
        <time>2019-08-13T09:14:43Z</time>
      </trkpt>
      <trkpt lat="40.0346080" lon="-4.2746260">
        <ele>583.1</ele>
        <time>2019-08-13T09:14:44Z</time>
      </trkpt>
      <trkpt lat="40.0346720" lon="-4.2746200">
        <ele>583.1</ele>
        <time>2019-08-13T09:14:45Z</time>
      </trkpt>
      <trkpt lat="40.0347350" lon="-4.2746160">
        <ele>583.1</ele>
        <time>2019-08-13T09:14:46Z</time>
      </trkpt>
      <trkpt lat="40.0347960" lon="-4.2746120">
        <ele>583.1</ele>
        <time>2019-08-13T09:14:47Z</time>
      </trkpt>
      <trkpt lat="40.0348580" lon="-4.2746060">
        <ele>583.0</ele>
        <time>2019-08-13T09:14:48Z</time>
      </trkpt>
      <trkpt lat="40.0349210" lon="-4.2746010">
        <ele>583.0</ele>
        <time>2019-08-13T09:14:49Z</time>
      </trkpt>
      <trkpt lat="40.0349830" lon="-4.2745970">
        <ele>583.0</ele>
        <time>2019-08-13T09:14:50Z</time>
      </trkpt>
      <trkpt lat="40.0350460" lon="-4.2745920">
        <ele>582.9</ele>
        <time>2019-08-13T09:14:51Z</time>
      </trkpt>
      <trkpt lat="40.0351100" lon="-4.2745880">
        <ele>582.9</ele>
        <time>2019-08-13T09:14:52Z</time>
      </trkpt>
      <trkpt lat="40.0351740" lon="-4.2745830">
        <ele>582.9</ele>
        <time>2019-08-13T09:14:53Z</time>
      </trkpt>
      <trkpt lat="40.0352380" lon="-4.2745800">
        <ele>582.9</ele>
        <time>2019-08-13T09:14:54Z</time>
      </trkpt>
      <trkpt lat="40.0353010" lon="-4.2745760">
        <ele>582.9</ele>
        <time>2019-08-13T09:14:55Z</time>
      </trkpt>
      <trkpt lat="40.0353640" lon="-4.2745710">
        <ele>582.8</ele>
        <time>2019-08-13T09:14:56Z</time>
      </trkpt>
      <trkpt lat="40.0354280" lon="-4.2745670">
        <ele>582.8</ele>
        <time>2019-08-13T09:14:57Z</time>
      </trkpt>
      <trkpt lat="40.0354930" lon="-4.2745630">
        <ele>582.8</ele>
        <time>2019-08-13T09:14:58Z</time>
      </trkpt>
      <trkpt lat="40.0355580" lon="-4.2745600">
        <ele>582.8</ele>
        <time>2019-08-13T09:14:59Z</time>
      </trkpt>
      <trkpt lat="40.0356240" lon="-4.2745590">
        <ele>582.7</ele>
        <time>2019-08-13T09:15:00Z</time>
      </trkpt>
      <trkpt lat="40.0356870" lon="-4.2745590">
        <ele>582.7</ele>
        <time>2019-08-13T09:15:01Z</time>
      </trkpt>
      <trkpt lat="40.0357490" lon="-4.2745580">
        <ele>582.7</ele>
        <time>2019-08-13T09:15:02Z</time>
      </trkpt>
      <trkpt lat="40.0358100" lon="-4.2745580">
        <ele>582.7</ele>
        <time>2019-08-13T09:15:03Z</time>
      </trkpt>
      <trkpt lat="40.0358700" lon="-4.2745580">
        <ele>582.7</ele>
        <time>2019-08-13T09:15:04Z</time>
      </trkpt>
      <trkpt lat="40.0359270" lon="-4.2745590">
        <ele>582.7</ele>
        <time>2019-08-13T09:15:05Z</time>
      </trkpt>
      <trkpt lat="40.0359850" lon="-4.2745610">
        <ele>582.7</ele>
        <time>2019-08-13T09:15:06Z</time>
      </trkpt>
      <trkpt lat="40.0360420" lon="-4.2745630">
        <ele>582.7</ele>
        <time>2019-08-13T09:15:07Z</time>
      </trkpt>
      <trkpt lat="40.0360980" lon="-4.2745660">
        <ele>582.7</ele>
        <time>2019-08-13T09:15:08Z</time>
      </trkpt>
      <trkpt lat="40.0361540" lon="-4.2745680">
        <ele>582.6</ele>
        <time>2019-08-13T09:15:09Z</time>
      </trkpt>
      <trkpt lat="40.0362120" lon="-4.2745710">
        <ele>582.6</ele>
        <time>2019-08-13T09:15:10Z</time>
      </trkpt>
      <trkpt lat="40.0362750" lon="-4.2745740">
        <ele>582.5</ele>
        <time>2019-08-13T09:15:11Z</time>
      </trkpt>
      <trkpt lat="40.0363380" lon="-4.2745800">
        <ele>582.5</ele>
        <time>2019-08-13T09:15:12Z</time>
      </trkpt>
      <trkpt lat="40.0364030" lon="-4.2745890">
        <ele>582.4</ele>
        <time>2019-08-13T09:15:13Z</time>
      </trkpt>
      <trkpt lat="40.0364690" lon="-4.2745990">
        <ele>582.4</ele>
        <time>2019-08-13T09:15:14Z</time>
      </trkpt>
      <trkpt lat="40.0365320" lon="-4.2746060">
        <ele>582.3</ele>
        <time>2019-08-13T09:15:15Z</time>
      </trkpt>
      <trkpt lat="40.0365950" lon="-4.2746120">
        <ele>582.3</ele>
        <time>2019-08-13T09:15:16Z</time>
      </trkpt>
      <trkpt lat="40.0366560" lon="-4.2746180">
        <ele>582.2</ele>
        <time>2019-08-13T09:15:17Z</time>
      </trkpt>
      <trkpt lat="40.0367200" lon="-4.2746260">
        <ele>582.2</ele>
        <time>2019-08-13T09:15:18Z</time>
      </trkpt>
      <trkpt lat="40.0367840" lon="-4.2746350">
        <ele>582.0</ele>
        <time>2019-08-13T09:15:19Z</time>
      </trkpt>
      <trkpt lat="40.0368490" lon="-4.2746440">
        <ele>581.9</ele>
        <time>2019-08-13T09:15:20Z</time>
      </trkpt>
      <trkpt lat="40.0369120" lon="-4.2746560">
        <ele>581.8</ele>
        <time>2019-08-13T09:15:21Z</time>
      </trkpt>
      <trkpt lat="40.0369750" lon="-4.2746660">
        <ele>581.6</ele>
        <time>2019-08-13T09:15:22Z</time>
      </trkpt>
      <trkpt lat="40.0370360" lon="-4.2746760">
        <ele>581.4</ele>
        <time>2019-08-13T09:15:23Z</time>
      </trkpt>
      <trkpt lat="40.0370960" lon="-4.2746860">
        <ele>581.2</ele>
        <time>2019-08-13T09:15:24Z</time>
      </trkpt>
      <trkpt lat="40.0371560" lon="-4.2746960">
        <ele>581.1</ele>
        <time>2019-08-13T09:15:25Z</time>
      </trkpt>
      <trkpt lat="40.0372150" lon="-4.2747050">
        <ele>580.9</ele>
        <time>2019-08-13T09:15:26Z</time>
      </trkpt>
      <trkpt lat="40.0372730" lon="-4.2747140">
        <ele>580.7</ele>
        <time>2019-08-13T09:15:27Z</time>
      </trkpt>
      <trkpt lat="40.0373300" lon="-4.2747240">
        <ele>580.6</ele>
        <time>2019-08-13T09:15:28Z</time>
      </trkpt>
      <trkpt lat="40.0373870" lon="-4.2747340">
        <ele>580.5</ele>
        <time>2019-08-13T09:15:29Z</time>
      </trkpt>
      <trkpt lat="40.0374440" lon="-4.2747430">
        <ele>580.4</ele>
        <time>2019-08-13T09:15:30Z</time>
      </trkpt>
      <trkpt lat="40.0375010" lon="-4.2747530">
        <ele>580.3</ele>
        <time>2019-08-13T09:15:31Z</time>
      </trkpt>
      <trkpt lat="40.0375590" lon="-4.2747600">
        <ele>580.2</ele>
        <time>2019-08-13T09:15:32Z</time>
      </trkpt>
      <trkpt lat="40.0376160" lon="-4.2747690">
        <ele>580.2</ele>
        <time>2019-08-13T09:15:33Z</time>
      </trkpt>
      <trkpt lat="40.0376760" lon="-4.2747800">
        <ele>580.0</ele>
        <time>2019-08-13T09:15:34Z</time>
      </trkpt>
      <trkpt lat="40.0377380" lon="-4.2747930">
        <ele>579.9</ele>
        <time>2019-08-13T09:15:35Z</time>
      </trkpt>
      <trkpt lat="40.0378020" lon="-4.2748050">
        <ele>579.7</ele>
        <time>2019-08-13T09:15:36Z</time>
      </trkpt>
      <trkpt lat="40.0378670" lon="-4.2748160">
        <ele>579.5</ele>
        <time>2019-08-13T09:15:37Z</time>
      </trkpt>
      <trkpt lat="40.0379330" lon="-4.2748250">
        <ele>579.3</ele>
        <time>2019-08-13T09:15:38Z</time>
      </trkpt>
      <trkpt lat="40.0379990" lon="-4.2748320">
        <ele>579.1</ele>
        <time>2019-08-13T09:15:39Z</time>
      </trkpt>
      <trkpt lat="40.0380650" lon="-4.2748410">
        <ele>578.9</ele>
        <time>2019-08-13T09:15:40Z</time>
      </trkpt>
      <trkpt lat="40.0381320" lon="-4.2748500">
        <ele>578.7</ele>
        <time>2019-08-13T09:15:41Z</time>
      </trkpt>
      <trkpt lat="40.0381990" lon="-4.2748600">
        <ele>578.5</ele>
        <time>2019-08-13T09:15:42Z</time>
      </trkpt>
      <trkpt lat="40.0382660" lon="-4.2748710">
        <ele>578.4</ele>
        <time>2019-08-13T09:15:43Z</time>
      </trkpt>
      <trkpt lat="40.0383340" lon="-4.2748800">
        <ele>578.0</ele>
        <time>2019-08-13T09:15:44Z</time>
      </trkpt>
      <trkpt lat="40.0384030" lon="-4.2748910">
        <ele>577.7</ele>
        <time>2019-08-13T09:15:45Z</time>
      </trkpt>
      <trkpt lat="40.0384730" lon="-4.2749010">
        <ele>577.5</ele>
        <time>2019-08-13T09:15:46Z</time>
      </trkpt>
      <trkpt lat="40.0385420" lon="-4.2749120">
        <ele>577.3</ele>
        <time>2019-08-13T09:15:47Z</time>
      </trkpt>
      <trkpt lat="40.0386140" lon="-4.2749240">
        <ele>577.0</ele>
        <time>2019-08-13T09:15:48Z</time>
      </trkpt>
      <trkpt lat="40.0386860" lon="-4.2749340">
        <ele>576.8</ele>
        <time>2019-08-13T09:15:49Z</time>
      </trkpt>
      <trkpt lat="40.0387590" lon="-4.2749430">
        <ele>576.5</ele>
        <time>2019-08-13T09:15:50Z</time>
      </trkpt>
      <trkpt lat="40.0388330" lon="-4.2749520">
        <ele>576.2</ele>
        <time>2019-08-13T09:15:51Z</time>
      </trkpt>
      <trkpt lat="40.0389080" lon="-4.2749610">
        <ele>575.9</ele>
        <time>2019-08-13T09:15:52Z</time>
      </trkpt>
      <trkpt lat="40.0389860" lon="-4.2749690">
        <ele>575.6</ele>
        <time>2019-08-13T09:15:53Z</time>
      </trkpt>
      <trkpt lat="40.0390630" lon="-4.2749770">
        <ele>575.3</ele>
        <time>2019-08-13T09:15:54Z</time>
      </trkpt>
      <trkpt lat="40.0391390" lon="-4.2749870">
        <ele>575.1</ele>
        <time>2019-08-13T09:15:55Z</time>
      </trkpt>
      <trkpt lat="40.0392180" lon="-4.2749950">
        <ele>574.8</ele>
        <time>2019-08-13T09:15:56Z</time>
      </trkpt>
      <trkpt lat="40.0392970" lon="-4.2750040">
        <ele>574.5</ele>
        <time>2019-08-13T09:15:57Z</time>
      </trkpt>
      <trkpt lat="40.0393770" lon="-4.2750130">
        <ele>574.2</ele>
        <time>2019-08-13T09:15:58Z</time>
      </trkpt>
      <trkpt lat="40.0394560" lon="-4.2750230">
        <ele>573.8</ele>
        <time>2019-08-13T09:15:59Z</time>
      </trkpt>
      <trkpt lat="40.0395320" lon="-4.2750340">
        <ele>573.3</ele>
        <time>2019-08-13T09:16:00Z</time>
      </trkpt>
      <trkpt lat="40.0396070" lon="-4.2750480">
        <ele>572.9</ele>
        <time>2019-08-13T09:16:01Z</time>
      </trkpt>
      <trkpt lat="40.0396800" lon="-4.2750600">
        <ele>572.5</ele>
        <time>2019-08-13T09:16:02Z</time>
      </trkpt>
      <trkpt lat="40.0397540" lon="-4.2750710">
        <ele>572.3</ele>
        <time>2019-08-13T09:16:03Z</time>
      </trkpt>
      <trkpt lat="40.0398250" lon="-4.2750810">
        <ele>572.2</ele>
        <time>2019-08-13T09:16:04Z</time>
      </trkpt>
      <trkpt lat="40.0398930" lon="-4.2750910">
        <ele>572.1</ele>
        <time>2019-08-13T09:16:05Z</time>
      </trkpt>
      <trkpt lat="40.0399630" lon="-4.2751010">
        <ele>572.1</ele>
        <time>2019-08-13T09:16:06Z</time>
      </trkpt>
      <trkpt lat="40.0400310" lon="-4.2751140">
        <ele>572.0</ele>
        <time>2019-08-13T09:16:07Z</time>
      </trkpt>
      <trkpt lat="40.0400990" lon="-4.2751290">
        <ele>572.0</ele>
        <time>2019-08-13T09:16:08Z</time>
      </trkpt>
      <trkpt lat="40.0401670" lon="-4.2751460">
        <ele>571.9</ele>
        <time>2019-08-13T09:16:09Z</time>
      </trkpt>
      <trkpt lat="40.0402350" lon="-4.2751610">
        <ele>571.8</ele>
        <time>2019-08-13T09:16:10Z</time>
      </trkpt>
      <trkpt lat="40.0403050" lon="-4.2751720">
        <ele>571.8</ele>
        <time>2019-08-13T09:16:11Z</time>
      </trkpt>
      <trkpt lat="40.0403740" lon="-4.2751840">
        <ele>571.7</ele>
        <time>2019-08-13T09:16:12Z</time>
      </trkpt>
      <trkpt lat="40.0404430" lon="-4.2751940">
        <ele>571.6</ele>
        <time>2019-08-13T09:16:13Z</time>
      </trkpt>
      <trkpt lat="40.0405120" lon="-4.2752030">
        <ele>571.6</ele>
        <time>2019-08-13T09:16:14Z</time>
      </trkpt>
      <trkpt lat="40.0405810" lon="-4.2752120">
        <ele>571.4</ele>
        <time>2019-08-13T09:16:15Z</time>
      </trkpt>
      <trkpt lat="40.0406490" lon="-4.2752230">
        <ele>571.0</ele>
        <time>2019-08-13T09:16:16Z</time>
      </trkpt>
      <trkpt lat="40.0407160" lon="-4.2752340">
        <ele>570.7</ele>
        <time>2019-08-13T09:16:17Z</time>
      </trkpt>
      <trkpt lat="40.0407840" lon="-4.2752440">
        <ele>570.3</ele>
        <time>2019-08-13T09:16:18Z</time>
      </trkpt>
      <trkpt lat="40.0408500" lon="-4.2752550">
        <ele>570.0</ele>
        <time>2019-08-13T09:16:19Z</time>
      </trkpt>
      <trkpt lat="40.0409140" lon="-4.2752680">
        <ele>569.7</ele>
        <time>2019-08-13T09:16:20Z</time>
      </trkpt>
      <trkpt lat="40.0409780" lon="-4.2752790">
        <ele>569.4</ele>
        <time>2019-08-13T09:16:21Z</time>
      </trkpt>
      <trkpt lat="40.0410440" lon="-4.2752900">
        <ele>569.2</ele>
        <time>2019-08-13T09:16:22Z</time>
      </trkpt>
      <trkpt lat="40.0411070" lon="-4.2752980">
        <ele>569.0</ele>
        <time>2019-08-13T09:16:23Z</time>
      </trkpt>
      <trkpt lat="40.0411720" lon="-4.2753070">
        <ele>569.0</ele>
        <time>2019-08-13T09:16:24Z</time>
      </trkpt>
      <trkpt lat="40.0412370" lon="-4.2753160">
        <ele>569.0</ele>
        <time>2019-08-13T09:16:25Z</time>
      </trkpt>
      <trkpt lat="40.0413000" lon="-4.2753260">
        <ele>569.0</ele>
        <time>2019-08-13T09:16:26Z</time>
      </trkpt>
      <trkpt lat="40.0413630" lon="-4.2753380">
        <ele>568.9</ele>
        <time>2019-08-13T09:16:27Z</time>
      </trkpt>
      <trkpt lat="40.0414260" lon="-4.2753490">
        <ele>568.9</ele>
        <time>2019-08-13T09:16:28Z</time>
      </trkpt>
      <trkpt lat="40.0414880" lon="-4.2753570">
        <ele>568.9</ele>
        <time>2019-08-13T09:16:29Z</time>
      </trkpt>
      <trkpt lat="40.0415500" lon="-4.2753670">
        <ele>569.0</ele>
        <time>2019-08-13T09:16:30Z</time>
      </trkpt>
      <trkpt lat="40.0416150" lon="-4.2753770">
        <ele>569.2</ele>
        <time>2019-08-13T09:16:31Z</time>
      </trkpt>
      <trkpt lat="40.0416790" lon="-4.2753860">
        <ele>569.4</ele>
        <time>2019-08-13T09:16:32Z</time>
      </trkpt>
      <trkpt lat="40.0417420" lon="-4.2753960">
        <ele>569.5</ele>
        <time>2019-08-13T09:16:33Z</time>
      </trkpt>
      <trkpt lat="40.0418060" lon="-4.2754080">
        <ele>569.7</ele>
        <time>2019-08-13T09:16:34Z</time>
      </trkpt>
      <trkpt lat="40.0418700" lon="-4.2754210">
        <ele>569.9</ele>
        <time>2019-08-13T09:16:35Z</time>
      </trkpt>
      <trkpt lat="40.0419350" lon="-4.2754310">
        <ele>570.1</ele>
        <time>2019-08-13T09:16:36Z</time>
      </trkpt>
      <trkpt lat="40.0420000" lon="-4.2754390">
        <ele>570.3</ele>
        <time>2019-08-13T09:16:37Z</time>
      </trkpt>
      <trkpt lat="40.0420670" lon="-4.2754470">
        <ele>570.0</ele>
        <time>2019-08-13T09:16:38Z</time>
      </trkpt>
      <trkpt lat="40.0421330" lon="-4.2754570">
        <ele>569.8</ele>
        <time>2019-08-13T09:16:39Z</time>
      </trkpt>
      <trkpt lat="40.0421990" lon="-4.2754690">
        <ele>569.6</ele>
        <time>2019-08-13T09:16:40Z</time>
      </trkpt>
      <trkpt lat="40.0422650" lon="-4.2754800">
        <ele>569.4</ele>
        <time>2019-08-13T09:16:41Z</time>
      </trkpt>
      <trkpt lat="40.0423310" lon="-4.2754910">
        <ele>569.2</ele>
        <time>2019-08-13T09:16:42Z</time>
      </trkpt>
      <trkpt lat="40.0423980" lon="-4.2755030">
        <ele>569.0</ele>
        <time>2019-08-13T09:16:43Z</time>
      </trkpt>
      <trkpt lat="40.0424640" lon="-4.2755140">
        <ele>568.8</ele>
        <time>2019-08-13T09:16:44Z</time>
      </trkpt>
      <trkpt lat="40.0425300" lon="-4.2755260">
        <ele>568.6</ele>
        <time>2019-08-13T09:16:45Z</time>
      </trkpt>
      <trkpt lat="40.0425960" lon="-4.2755350">
        <ele>568.5</ele>
        <time>2019-08-13T09:16:46Z</time>
      </trkpt>
      <trkpt lat="40.0426620" lon="-4.2755430">
        <ele>568.3</ele>
        <time>2019-08-13T09:16:47Z</time>
      </trkpt>
      <trkpt lat="40.0427280" lon="-4.2755490">
        <ele>568.2</ele>
        <time>2019-08-13T09:16:48Z</time>
      </trkpt>
      <trkpt lat="40.0427930" lon="-4.2755570">
        <ele>568.1</ele>
        <time>2019-08-13T09:16:49Z</time>
      </trkpt>
      <trkpt lat="40.0428580" lon="-4.2755660">
        <ele>568.1</ele>
        <time>2019-08-13T09:16:50Z</time>
      </trkpt>
      <trkpt lat="40.0429220" lon="-4.2755770">
        <ele>568.1</ele>
        <time>2019-08-13T09:16:51Z</time>
      </trkpt>
      <trkpt lat="40.0429860" lon="-4.2755880">
        <ele>568.0</ele>
        <time>2019-08-13T09:16:52Z</time>
      </trkpt>
      <trkpt lat="40.0430500" lon="-4.2755980">
        <ele>567.9</ele>
        <time>2019-08-13T09:16:53Z</time>
      </trkpt>
      <trkpt lat="40.0431150" lon="-4.2756080">
        <ele>567.8</ele>
        <time>2019-08-13T09:16:54Z</time>
      </trkpt>
      <trkpt lat="40.0431800" lon="-4.2756170">
        <ele>567.5</ele>
        <time>2019-08-13T09:16:55Z</time>
      </trkpt>
      <trkpt lat="40.0432450" lon="-4.2756260">
        <ele>567.3</ele>
        <time>2019-08-13T09:16:56Z</time>
      </trkpt>
      <trkpt lat="40.0433110" lon="-4.2756350">
        <ele>567.0</ele>
        <time>2019-08-13T09:16:57Z</time>
      </trkpt>
      <trkpt lat="40.0433770" lon="-4.2756440">
        <ele>566.8</ele>
        <time>2019-08-13T09:16:58Z</time>
      </trkpt>
      <trkpt lat="40.0434430" lon="-4.2756550">
        <ele>566.6</ele>
        <time>2019-08-13T09:16:59Z</time>
      </trkpt>
      <trkpt lat="40.0435090" lon="-4.2756640">
        <ele>566.3</ele>
        <time>2019-08-13T09:17:00Z</time>
      </trkpt>
      <trkpt lat="40.0435740" lon="-4.2756750">
        <ele>566.2</ele>
        <time>2019-08-13T09:17:01Z</time>
      </trkpt>
      <trkpt lat="40.0436390" lon="-4.2756860">
        <ele>566.0</ele>
        <time>2019-08-13T09:17:02Z</time>
      </trkpt>
      <trkpt lat="40.0437030" lon="-4.2756950">
        <ele>565.9</ele>
        <time>2019-08-13T09:17:03Z</time>
      </trkpt>
      <trkpt lat="40.0437660" lon="-4.2757040">
        <ele>565.7</ele>
        <time>2019-08-13T09:17:04Z</time>
      </trkpt>
      <trkpt lat="40.0438290" lon="-4.2757110">
        <ele>565.5</ele>
        <time>2019-08-13T09:17:05Z</time>
      </trkpt>
      <trkpt lat="40.0438920" lon="-4.2757200">
        <ele>565.4</ele>
        <time>2019-08-13T09:17:06Z</time>
      </trkpt>
      <trkpt lat="40.0439550" lon="-4.2757300">
        <ele>565.2</ele>
        <time>2019-08-13T09:17:07Z</time>
      </trkpt>
      <trkpt lat="40.0440170" lon="-4.2757380">
        <ele>565.1</ele>
        <time>2019-08-13T09:17:08Z</time>
      </trkpt>
      <trkpt lat="40.0440800" lon="-4.2757470">
        <ele>564.9</ele>
        <time>2019-08-13T09:17:09Z</time>
      </trkpt>
      <trkpt lat="40.0441410" lon="-4.2757560">
        <ele>564.8</ele>
        <time>2019-08-13T09:17:10Z</time>
      </trkpt>
      <trkpt lat="40.0442020" lon="-4.2757670">
        <ele>564.6</ele>
        <time>2019-08-13T09:17:11Z</time>
      </trkpt>
      <trkpt lat="40.0442620" lon="-4.2757790">
        <ele>564.4</ele>
        <time>2019-08-13T09:17:12Z</time>
      </trkpt>
      <trkpt lat="40.0443230" lon="-4.2757920">
        <ele>564.3</ele>
        <time>2019-08-13T09:17:13Z</time>
      </trkpt>
      <trkpt lat="40.0443850" lon="-4.2758030">
        <ele>564.2</ele>
        <time>2019-08-13T09:17:14Z</time>
      </trkpt>
      <trkpt lat="40.0444450" lon="-4.2758150">
        <ele>564.2</ele>
        <time>2019-08-13T09:17:15Z</time>
      </trkpt>
      <trkpt lat="40.0445060" lon="-4.2758260">
        <ele>564.2</ele>
        <time>2019-08-13T09:17:16Z</time>
      </trkpt>
      <trkpt lat="40.0445670" lon="-4.2758360">
        <ele>564.2</ele>
        <time>2019-08-13T09:17:17Z</time>
      </trkpt>
      <trkpt lat="40.0446300" lon="-4.2758450">
        <ele>564.2</ele>
        <time>2019-08-13T09:17:18Z</time>
      </trkpt>
      <trkpt lat="40.0446920" lon="-4.2758530">
        <ele>564.2</ele>
        <time>2019-08-13T09:17:19Z</time>
      </trkpt>
      <trkpt lat="40.0447550" lon="-4.2758580">
        <ele>564.2</ele>
        <time>2019-08-13T09:17:20Z</time>
      </trkpt>
      <trkpt lat="40.0448160" lon="-4.2758590">
        <ele>564.1</ele>
        <time>2019-08-13T09:17:21Z</time>
      </trkpt>
      <trkpt lat="40.0448760" lon="-4.2758550">
        <ele>564.0</ele>
        <time>2019-08-13T09:17:22Z</time>
      </trkpt>
      <trkpt lat="40.0449310" lon="-4.2758500">
        <ele>564.1</ele>
        <time>2019-08-13T09:17:23Z</time>
      </trkpt>
      <trkpt lat="40.0449860" lon="-4.2758420">
        <ele>564.1</ele>
        <time>2019-08-13T09:17:24Z</time>
      </trkpt>
      <trkpt lat="40.0450390" lon="-4.2758330">
        <ele>564.1</ele>
        <time>2019-08-13T09:17:25Z</time>
      </trkpt>
      <trkpt lat="40.0450890" lon="-4.2758210">
        <ele>564.1</ele>
        <time>2019-08-13T09:17:26Z</time>
      </trkpt>
      <trkpt lat="40.0451370" lon="-4.2758060">
        <ele>564.1</ele>
        <time>2019-08-13T09:17:27Z</time>
      </trkpt>
      <trkpt lat="40.0451810" lon="-4.2757880">
        <ele>564.1</ele>
        <time>2019-08-13T09:17:28Z</time>
      </trkpt>
      <trkpt lat="40.0452230" lon="-4.2757680">
        <ele>564.1</ele>
        <time>2019-08-13T09:17:29Z</time>
      </trkpt>
      <trkpt lat="40.0452640" lon="-4.2757470">
        <ele>564.1</ele>
        <time>2019-08-13T09:17:30Z</time>
      </trkpt>
      <trkpt lat="40.0453060" lon="-4.2757270">
        <ele>564.1</ele>
        <time>2019-08-13T09:17:31Z</time>
      </trkpt>
      <trkpt lat="40.0453450" lon="-4.2757070">
        <ele>564.1</ele>
        <time>2019-08-13T09:17:32Z</time>
      </trkpt>
      <trkpt lat="40.0453840" lon="-4.2756860">
        <ele>564.1</ele>
        <time>2019-08-13T09:17:33Z</time>
      </trkpt>
      <trkpt lat="40.0454200" lon="-4.2756600">
        <ele>564.1</ele>
        <time>2019-08-13T09:17:34Z</time>
      </trkpt>
      <trkpt lat="40.0454550" lon="-4.2756330">
        <ele>564.1</ele>
        <time>2019-08-13T09:17:35Z</time>
      </trkpt>
      <trkpt lat="40.0454900" lon="-4.2756100">
        <ele>564.1</ele>
        <time>2019-08-13T09:17:36Z</time>
      </trkpt>
      <trkpt lat="40.0455230" lon="-4.2755830">
        <ele>564.2</ele>
        <time>2019-08-13T09:17:37Z</time>
      </trkpt>
      <trkpt lat="40.0455570" lon="-4.2755550">
        <ele>564.2</ele>
        <time>2019-08-13T09:17:38Z</time>
      </trkpt>
      <trkpt lat="40.0455920" lon="-4.2755270">
        <ele>564.2</ele>
        <time>2019-08-13T09:17:39Z</time>
      </trkpt>
      <trkpt lat="40.0456270" lon="-4.2754970">
        <ele>564.2</ele>
        <time>2019-08-13T09:17:40Z</time>
      </trkpt>
      <trkpt lat="40.0456630" lon="-4.2754680">
        <ele>564.1</ele>
        <time>2019-08-13T09:17:41Z</time>
      </trkpt>
      <trkpt lat="40.0457000" lon="-4.2754360">
        <ele>564.1</ele>
        <time>2019-08-13T09:17:42Z</time>
      </trkpt>
      <trkpt lat="40.0457370" lon="-4.2754030">
        <ele>564.1</ele>
        <time>2019-08-13T09:17:43Z</time>
      </trkpt>
      <trkpt lat="40.0457750" lon="-4.2753670">
        <ele>564.1</ele>
        <time>2019-08-13T09:17:44Z</time>
      </trkpt>
      <trkpt lat="40.0458130" lon="-4.2753310">
        <ele>564.0</ele>
        <time>2019-08-13T09:17:45Z</time>
      </trkpt>
      <trkpt lat="40.0458540" lon="-4.2752960">
        <ele>564.0</ele>
        <time>2019-08-13T09:17:46Z</time>
      </trkpt>
      <trkpt lat="40.0458960" lon="-4.2752640">
        <ele>563.9</ele>
        <time>2019-08-13T09:17:47Z</time>
      </trkpt>
      <trkpt lat="40.0459410" lon="-4.2752280">
        <ele>563.8</ele>
        <time>2019-08-13T09:17:48Z</time>
      </trkpt>
      <trkpt lat="40.0459870" lon="-4.2751910">
        <ele>563.7</ele>
        <time>2019-08-13T09:17:49Z</time>
      </trkpt>
      <trkpt lat="40.0460330" lon="-4.2751520">
        <ele>563.6</ele>
        <time>2019-08-13T09:17:50Z</time>
      </trkpt>
      <trkpt lat="40.0460830" lon="-4.2751110">
        <ele>563.3</ele>
        <time>2019-08-13T09:17:51Z</time>
      </trkpt>
      <trkpt lat="40.0461340" lon="-4.2750670">
        <ele>563.0</ele>
        <time>2019-08-13T09:17:52Z</time>
      </trkpt>
      <trkpt lat="40.0461850" lon="-4.2750210">
        <ele>562.6</ele>
        <time>2019-08-13T09:17:53Z</time>
      </trkpt>
      <trkpt lat="40.0462320" lon="-4.2749680">
        <ele>562.2</ele>
        <time>2019-08-13T09:17:54Z</time>
      </trkpt>
      <trkpt lat="40.0462780" lon="-4.2749140">
        <ele>561.9</ele>
        <time>2019-08-13T09:17:55Z</time>
      </trkpt>
      <trkpt lat="40.0463240" lon="-4.2748630">
        <ele>561.4</ele>
        <time>2019-08-13T09:17:56Z</time>
      </trkpt>
      <trkpt lat="40.0463680" lon="-4.2748130">
        <ele>561.4</ele>
        <time>2019-08-13T09:17:57Z</time>
      </trkpt>
      <trkpt lat="40.0464130" lon="-4.2747660">
        <ele>561.2</ele>
        <time>2019-08-13T09:17:58Z</time>
      </trkpt>
      <trkpt lat="40.0464550" lon="-4.2747210">
        <ele>561.2</ele>
        <time>2019-08-13T09:17:59Z</time>
      </trkpt>
      <trkpt lat="40.0464940" lon="-4.2746780">
        <ele>561.1</ele>
        <time>2019-08-13T09:18:00Z</time>
      </trkpt>
      <trkpt lat="40.0465250" lon="-4.2746370">
        <ele>561.1</ele>
        <time>2019-08-13T09:18:01Z</time>
      </trkpt>
      <trkpt lat="40.0465520" lon="-4.2746000">
        <ele>561.1</ele>
        <time>2019-08-13T09:18:02Z</time>
      </trkpt>
      <trkpt lat="40.0465760" lon="-4.2745660">
        <ele>561.0</ele>
        <time>2019-08-13T09:18:03Z</time>
      </trkpt>
      <trkpt lat="40.0465980" lon="-4.2745360">
        <ele>561.0</ele>
        <time>2019-08-13T09:18:04Z</time>
      </trkpt>
      <trkpt lat="40.0466170" lon="-4.2745110">
        <ele>561.0</ele>
        <time>2019-08-13T09:18:05Z</time>
      </trkpt>
      <trkpt lat="40.0466580" lon="-4.2744670">
        <ele>561.1</ele>
        <time>2019-08-13T09:18:07Z</time>
      </trkpt>
      <trkpt lat="40.0466800" lon="-4.2744460">
        <ele>561.2</ele>
        <time>2019-08-13T09:18:08Z</time>
      </trkpt>
      <trkpt lat="40.0467260" lon="-4.2744090">
        <ele>561.4</ele>
        <time>2019-08-13T09:18:10Z</time>
      </trkpt>
      <trkpt lat="40.0467510" lon="-4.2743890">
        <ele>561.5</ele>
        <time>2019-08-13T09:18:11Z</time>
      </trkpt>
      <trkpt lat="40.0467750" lon="-4.2743650">
        <ele>561.6</ele>
        <time>2019-08-13T09:18:12Z</time>
      </trkpt>
      <trkpt lat="40.0467980" lon="-4.2743400">
        <ele>561.7</ele>
        <time>2019-08-13T09:18:13Z</time>
      </trkpt>
      <trkpt lat="40.0468210" lon="-4.2743170">
        <ele>561.7</ele>
        <time>2019-08-13T09:18:14Z</time>
      </trkpt>
      <trkpt lat="40.0468440" lon="-4.2742950">
        <ele>561.8</ele>
        <time>2019-08-13T09:18:15Z</time>
      </trkpt>
      <trkpt lat="40.0468660" lon="-4.2742750">
        <ele>561.9</ele>
        <time>2019-08-13T09:18:16Z</time>
      </trkpt>
      <trkpt lat="40.0468900" lon="-4.2742530">
        <ele>561.9</ele>
        <time>2019-08-13T09:18:17Z</time>
      </trkpt>
      <trkpt lat="40.0469130" lon="-4.2742270">
        <ele>562.0</ele>
        <time>2019-08-13T09:18:18Z</time>
      </trkpt>
      <trkpt lat="40.0469390" lon="-4.2742010">
        <ele>562.0</ele>
        <time>2019-08-13T09:18:19Z</time>
      </trkpt>
      <trkpt lat="40.0469650" lon="-4.2741770">
        <ele>562.1</ele>
        <time>2019-08-13T09:18:20Z</time>
      </trkpt>
      <trkpt lat="40.0469890" lon="-4.2741530">
        <ele>562.1</ele>
        <time>2019-08-13T09:18:21Z</time>
      </trkpt>
      <trkpt lat="40.0470110" lon="-4.2741280">
        <ele>562.2</ele>
        <time>2019-08-13T09:18:22Z</time>
      </trkpt>
      <trkpt lat="40.0470320" lon="-4.2741040">
        <ele>562.2</ele>
        <time>2019-08-13T09:18:23Z</time>
      </trkpt>
      <trkpt lat="40.0470710" lon="-4.2740610">
        <ele>562.3</ele>
        <time>2019-08-13T09:18:25Z</time>
      </trkpt>
      <trkpt lat="40.0470930" lon="-4.2740390">
        <ele>562.4</ele>
        <time>2019-08-13T09:18:26Z</time>
      </trkpt>
      <trkpt lat="40.0471170" lon="-4.2740190">
        <ele>562.4</ele>
        <time>2019-08-13T09:18:27Z</time>
      </trkpt>
      <trkpt lat="40.0471440" lon="-4.2740000">
        <ele>562.5</ele>
        <time>2019-08-13T09:18:28Z</time>
      </trkpt>
      <trkpt lat="40.0471720" lon="-4.2739840">
        <ele>562.5</ele>
        <time>2019-08-13T09:18:29Z</time>
      </trkpt>
      <trkpt lat="40.0472010" lon="-4.2739750">
        <ele>562.7</ele>
        <time>2019-08-13T09:18:30Z</time>
      </trkpt>
      <trkpt lat="40.0472450" lon="-4.2739870">
        <ele>562.6</ele>
        <time>2019-08-13T09:18:32Z</time>
      </trkpt>
      <trkpt lat="40.0472520" lon="-4.2740300">
        <ele>562.5</ele>
        <time>2019-08-13T09:18:34Z</time>
      </trkpt>
      <trkpt lat="40.0472550" lon="-4.2740700">
        <ele>562.4</ele>
        <time>2019-08-13T09:18:36Z</time>
      </trkpt>
      <trkpt lat="40.0472740" lon="-4.2741180">
        <ele>562.3</ele>
        <time>2019-08-13T09:18:38Z</time>
      </trkpt>
      <trkpt lat="40.0472790" lon="-4.2741520">
        <ele>562.2</ele>
        <time>2019-08-13T09:18:40Z</time>
      </trkpt>
      <trkpt lat="40.0472500" lon="-4.2741110">
        <ele>562.1</ele>
        <time>2019-08-13T09:18:43Z</time>
      </trkpt>
      <trkpt lat="40.0472330" lon="-4.2740740">
        <ele>562.0</ele>
        <time>2019-08-13T09:18:45Z</time>
      </trkpt>
      <trkpt lat="40.0472070" lon="-4.2740860">
        <ele>562.0</ele>
        <time>2019-08-13T09:18:48Z</time>
      </trkpt>
      <trkpt lat="40.0471950" lon="-4.2741310">
        <ele>561.9</ele>
        <time>2019-08-13T09:18:50Z</time>
      </trkpt>
      <trkpt lat="40.0471950" lon="-4.2741970">
        <ele>561.7</ele>
        <time>2019-08-13T09:18:52Z</time>
      </trkpt>
      <trkpt lat="40.0472100" lon="-4.2742640">
        <ele>561.6</ele>
        <time>2019-08-13T09:18:54Z</time>
      </trkpt>
      <trkpt lat="40.0472230" lon="-4.2742960">
        <ele>561.5</ele>
        <time>2019-08-13T09:18:55Z</time>
      </trkpt>
      <trkpt lat="40.0472370" lon="-4.2743260">
        <ele>561.4</ele>
        <time>2019-08-13T09:18:56Z</time>
      </trkpt>
      <trkpt lat="40.0472540" lon="-4.2743540">
        <ele>560.9</ele>
        <time>2019-08-13T09:18:57Z</time>
      </trkpt>
      <trkpt lat="40.0472870" lon="-4.2743840">
        <ele>560.9</ele>
        <time>2019-08-13T09:18:59Z</time>
      </trkpt>
      <trkpt lat="40.0472350" lon="-4.2745160">
        <ele>560.9</ele>
        <time>2019-08-13T09:19:33Z</time>
      </trkpt>
      <trkpt lat="40.0472580" lon="-4.2744350">
        <ele>560.9</ele>
        <time>2019-08-13T09:22:02Z</time>
      </trkpt>
      <trkpt lat="40.0472310" lon="-4.2744210">
        <ele>560.9</ele>
        <time>2019-08-13T09:22:04Z</time>
      </trkpt>
      <trkpt lat="40.0472180" lon="-4.2744440">
        <ele>560.9</ele>
        <time>2019-08-13T09:22:08Z</time>
      </trkpt>
      <trkpt lat="40.0472110" lon="-4.2744810">
        <ele>560.9</ele>
        <time>2019-08-13T09:22:11Z</time>
      </trkpt>
      <trkpt lat="40.0471870" lon="-4.2745030">
        <ele>560.9</ele>
        <time>2019-08-13T09:22:13Z</time>
      </trkpt>
      <trkpt lat="40.0471780" lon="-4.2744600">
        <ele>560.9</ele>
        <time>2019-08-13T09:22:15Z</time>
      </trkpt>
      <trkpt lat="40.0471720" lon="-4.2744150">
        <ele>560.9</ele>
        <time>2019-08-13T09:22:17Z</time>
      </trkpt>
      <trkpt lat="40.0471740" lon="-4.2743700">
        <ele>560.9</ele>
        <time>2019-08-13T09:22:18Z</time>
      </trkpt>
      <trkpt lat="40.0471770" lon="-4.2742990">
        <ele>560.9</ele>
        <time>2019-08-13T09:22:20Z</time>
      </trkpt>
      <trkpt lat="40.0471790" lon="-4.2742630">
        <ele>561.8</ele>
        <time>2019-08-13T09:22:21Z</time>
      </trkpt>
      <trkpt lat="40.0471840" lon="-4.2741950">
        <ele>561.9</ele>
        <time>2019-08-13T09:22:23Z</time>
      </trkpt>
      <trkpt lat="40.0471960" lon="-4.2741410">
        <ele>562.0</ele>
        <time>2019-08-13T09:22:25Z</time>
      </trkpt>
      <trkpt lat="40.0472080" lon="-4.2741000">
        <ele>562.1</ele>
        <time>2019-08-13T09:22:27Z</time>
      </trkpt>
      <trkpt lat="40.0472340" lon="-4.2740730">
        <ele>562.1</ele>
        <time>2019-08-13T09:22:29Z</time>
      </trkpt>
      <trkpt lat="40.0472480" lon="-4.2740930">
        <ele>562.2</ele>
        <time>2019-08-13T09:22:31Z</time>
      </trkpt>
      <trkpt lat="40.0472610" lon="-4.2741290">
        <ele>562.3</ele>
        <time>2019-08-13T09:22:33Z</time>
      </trkpt>
      <trkpt lat="40.0472760" lon="-4.2741650">
        <ele>562.4</ele>
        <time>2019-08-13T09:22:36Z</time>
      </trkpt>
      <trkpt lat="40.0472810" lon="-4.2741630">
        <ele>562.4</ele>
        <time>2019-08-13T09:22:44Z</time>
      </trkpt>
      <trkpt lat="40.0472600" lon="-4.2741170">
        <ele>562.5</ele>
        <time>2019-08-13T09:22:47Z</time>
      </trkpt>
      <trkpt lat="40.0472520" lon="-4.2740720">
        <ele>562.6</ele>
        <time>2019-08-13T09:22:49Z</time>
      </trkpt>
      <trkpt lat="40.0472590" lon="-4.2740350">
        <ele>562.6</ele>
        <time>2019-08-13T09:22:52Z</time>
      </trkpt>
      <trkpt lat="40.0472500" lon="-4.2739500">
        <ele>562.8</ele>
        <time>2019-08-13T09:23:31Z</time>
      </trkpt>
      <trkpt lat="40.0472530" lon="-4.2739080">
        <ele>562.9</ele>
        <time>2019-08-13T09:23:33Z</time>
      </trkpt>
      <trkpt lat="40.0472670" lon="-4.2738900">
        <ele>562.9</ele>
        <time>2019-08-13T09:23:41Z</time>
      </trkpt>
      <trkpt lat="40.0472380" lon="-4.2737790">
        <ele>563.4</ele>
        <time>2019-08-13T09:23:49Z</time>
      </trkpt>
      <trkpt lat="40.0472340" lon="-4.2737410">
        <ele>563.6</ele>
        <time>2019-08-13T09:23:50Z</time>
      </trkpt>
      <trkpt lat="40.0472340" lon="-4.2737030">
        <ele>563.8</ele>
        <time>2019-08-13T09:23:51Z</time>
      </trkpt>
      <trkpt lat="40.0472390" lon="-4.2736670">
        <ele>564.0</ele>
        <time>2019-08-13T09:23:52Z</time>
      </trkpt>
      <trkpt lat="40.0472530" lon="-4.2736150">
        <ele>564.3</ele>
        <time>2019-08-13T09:23:54Z</time>
      </trkpt>
      <trkpt lat="40.0472590" lon="-4.2735630">
        <ele>564.5</ele>
        <time>2019-08-13T09:23:56Z</time>
      </trkpt>
      <trkpt lat="40.0472450" lon="-4.2735070">
        <ele>564.8</ele>
        <time>2019-08-13T09:23:58Z</time>
      </trkpt>
      <trkpt lat="40.0472420" lon="-4.2734540">
        <ele>565.1</ele>
        <time>2019-08-13T09:24:00Z</time>
      </trkpt>
      <trkpt lat="40.0472380" lon="-4.2734000">
        <ele>565.3</ele>
        <time>2019-08-13T09:24:02Z</time>
      </trkpt>
      <trkpt lat="40.0472320" lon="-4.2733470">
        <ele>565.5</ele>
        <time>2019-08-13T09:24:04Z</time>
      </trkpt>
      <trkpt lat="40.0472270" lon="-4.2732930">
        <ele>565.6</ele>
        <time>2019-08-13T09:24:06Z</time>
      </trkpt>
      <trkpt lat="40.0472190" lon="-4.2732370">
        <ele>565.7</ele>
        <time>2019-08-13T09:24:08Z</time>
      </trkpt>
      <trkpt lat="40.0472040" lon="-4.2731840">
        <ele>565.8</ele>
        <time>2019-08-13T09:24:10Z</time>
      </trkpt>
      <trkpt lat="40.0471830" lon="-4.2731370">
        <ele>565.9</ele>
        <time>2019-08-13T09:24:12Z</time>
      </trkpt>
      <trkpt lat="40.0471560" lon="-4.2730980">
        <ele>566.0</ele>
        <time>2019-08-13T09:24:14Z</time>
      </trkpt>
      <trkpt lat="40.0471280" lon="-4.2730740">
        <ele>566.1</ele>
        <time>2019-08-13T09:24:17Z</time>
      </trkpt>
      <trkpt lat="40.0470900" lon="-4.2730650">
        <ele>566.1</ele>
        <time>2019-08-13T09:24:20Z</time>
      </trkpt>
      <trkpt lat="40.0470660" lon="-4.2730490">
        <ele>565.9</ele>
        <time>2019-08-13T09:24:23Z</time>
      </trkpt>
      <trkpt lat="40.0470530" lon="-4.2730520">
        <ele>565.9</ele>
        <time>2019-08-13T09:24:30Z</time>
      </trkpt>
      <trkpt lat="40.0470470" lon="-4.2730180">
        <ele>565.8</ele>
        <time>2019-08-13T09:24:36Z</time>
      </trkpt>
      <trkpt lat="40.0470240" lon="-4.2730510">
        <ele>565.6</ele>
        <time>2019-08-13T09:25:47Z</time>
      </trkpt>
      <trkpt lat="40.0470000" lon="-4.2730710">
        <ele>565.4</ele>
        <time>2019-08-13T09:25:51Z</time>
      </trkpt>
      <trkpt lat="40.0469880" lon="-4.2730990">
        <ele>565.3</ele>
        <time>2019-08-13T09:25:57Z</time>
      </trkpt>
      <trkpt lat="40.0469670" lon="-4.2731240">
        <ele>565.1</ele>
        <time>2019-08-13T09:26:02Z</time>
      </trkpt>
      <trkpt lat="40.0470580" lon="-4.2730510">
        <ele>565.9</ele>
        <time>2019-08-13T09:26:34Z</time>
      </trkpt>
      <trkpt lat="40.0470490" lon="-4.2730310">
        <ele>565.8</ele>
        <time>2019-08-13T09:26:37Z</time>
      </trkpt>
      <trkpt lat="40.0470380" lon="-4.2730920">
        <ele>565.6</ele>
        <time>2019-08-13T09:44:08Z</time>
      </trkpt>
      <trkpt lat="40.0470290" lon="-4.2731310">
        <ele>565.5</ele>
        <time>2019-08-13T09:44:14Z</time>
      </trkpt>
      <trkpt lat="40.0469320" lon="-4.2731440">
        <ele>564.7</ele>
        <time>2019-08-13T09:44:34Z</time>
      </trkpt>
      <trkpt lat="40.0469400" lon="-4.2731820">
        <ele>564.8</ele>
        <time>2019-08-13T09:44:35Z</time>
      </trkpt>
      <trkpt lat="40.0469440" lon="-4.2732120">
        <ele>564.9</ele>
        <time>2019-08-13T09:44:37Z</time>
      </trkpt>
      <trkpt lat="40.0469620" lon="-4.2732110">
        <ele>565.0</ele>
        <time>2019-08-13T09:46:49Z</time>
      </trkpt>
      <trkpt lat="40.0469810" lon="-4.2732110">
        <ele>565.0</ele>
        <time>2019-08-13T09:46:52Z</time>
      </trkpt>
      <trkpt lat="40.0469990" lon="-4.2732100">
        <ele>565.1</ele>
        <time>2019-08-13T09:46:59Z</time>
      </trkpt>
      <trkpt lat="40.0470180" lon="-4.2732090">
        <ele>565.2</ele>
        <time>2019-08-13T09:50:07Z</time>
      </trkpt>
      <trkpt lat="40.0470370" lon="-4.2732080">
        <ele>565.2</ele>
        <time>2019-08-13T09:50:10Z</time>
      </trkpt>
      <trkpt lat="40.0470550" lon="-4.2732070">
        <ele>565.3</ele>
        <time>2019-08-13T09:50:13Z</time>
      </trkpt>
      <trkpt lat="40.0470740" lon="-4.2732070">
        <ele>565.4</ele>
        <time>2019-08-13T09:50:17Z</time>
      </trkpt>
      <trkpt lat="40.0470920" lon="-4.2732060">
        <ele>565.4</ele>
        <time>2019-08-13T09:50:26Z</time>
      </trkpt>
      <trkpt lat="40.0471110" lon="-4.2732050">
        <ele>565.5</ele>
        <time>2019-08-13T09:50:27Z</time>
      </trkpt>
      <trkpt lat="40.0471080" lon="-4.2731620">
        <ele>565.6</ele>
        <time>2019-08-13T09:50:28Z</time>
      </trkpt>
      <trkpt lat="40.0471010" lon="-4.2731000">
        <ele>565.7</ele>
        <time>2019-08-13T09:50:30Z</time>
      </trkpt>
      <trkpt lat="40.0470880" lon="-4.2730640">
        <ele>565.8</ele>
        <time>2019-08-13T09:50:33Z</time>
      </trkpt>
      <trkpt lat="40.0470770" lon="-4.2730330">
        <ele>565.9</ele>
        <time>2019-08-13T09:50:36Z</time>
      </trkpt>
      <trkpt lat="40.0470730" lon="-4.2730590">
        <ele>565.9</ele>
        <time>2019-08-13T09:50:39Z</time>
      </trkpt>
      <trkpt lat="40.0470600" lon="-4.2731020">
        <ele>566.0</ele>
        <time>2019-08-13T09:54:50Z</time>
      </trkpt>
      <trkpt lat="40.0470840" lon="-4.2730830">
        <ele>566.1</ele>
        <time>2019-08-13T09:54:56Z</time>
      </trkpt>
      <trkpt lat="40.0471170" lon="-4.2730810">
        <ele>566.2</ele>
        <time>2019-08-13T09:54:59Z</time>
      </trkpt>
      <trkpt lat="40.0471420" lon="-4.2730930">
        <ele>566.1</ele>
        <time>2019-08-13T09:55:01Z</time>
      </trkpt>
      <trkpt lat="40.0471720" lon="-4.2731430">
        <ele>565.9</ele>
        <time>2019-08-13T09:55:03Z</time>
      </trkpt>
      <trkpt lat="40.0471880" lon="-4.2731830">
        <ele>565.8</ele>
        <time>2019-08-13T09:55:04Z</time>
      </trkpt>
      <trkpt lat="40.0472060" lon="-4.2732230">
        <ele>565.7</ele>
        <time>2019-08-13T09:55:05Z</time>
      </trkpt>
      <trkpt lat="40.0472230" lon="-4.2732610">
        <ele>565.6</ele>
        <time>2019-08-13T09:55:06Z</time>
      </trkpt>
      <trkpt lat="40.0472360" lon="-4.2732980">
        <ele>565.5</ele>
        <time>2019-08-13T09:55:07Z</time>
      </trkpt>
      <trkpt lat="40.0472490" lon="-4.2733360">
        <ele>565.5</ele>
        <time>2019-08-13T09:55:08Z</time>
      </trkpt>
      <trkpt lat="40.0472620" lon="-4.2733760">
        <ele>565.4</ele>
        <time>2019-08-13T09:55:09Z</time>
      </trkpt>
      <trkpt lat="40.0472720" lon="-4.2734210">
        <ele>565.2</ele>
        <time>2019-08-13T09:55:10Z</time>
      </trkpt>
      <trkpt lat="40.0472810" lon="-4.2734720">
        <ele>565.0</ele>
        <time>2019-08-13T09:55:11Z</time>
      </trkpt>
      <trkpt lat="40.0472860" lon="-4.2735280">
        <ele>564.7</ele>
        <time>2019-08-13T09:55:12Z</time>
      </trkpt>
      <trkpt lat="40.0472880" lon="-4.2735850">
        <ele>564.5</ele>
        <time>2019-08-13T09:55:13Z</time>
      </trkpt>
      <trkpt lat="40.0472850" lon="-4.2736440">
        <ele>564.2</ele>
        <time>2019-08-13T09:55:14Z</time>
      </trkpt>
      <trkpt lat="40.0472790" lon="-4.2737080">
        <ele>563.8</ele>
        <time>2019-08-13T09:55:15Z</time>
      </trkpt>
      <trkpt lat="40.0472660" lon="-4.2737760">
        <ele>563.3</ele>
        <time>2019-08-13T09:55:16Z</time>
      </trkpt>
      <trkpt lat="40.0472450" lon="-4.2738460">
        <ele>563.2</ele>
        <time>2019-08-13T09:55:17Z</time>
      </trkpt>
      <trkpt lat="40.0472140" lon="-4.2739170">
        <ele>562.5</ele>
        <time>2019-08-13T09:55:18Z</time>
      </trkpt>
      <trkpt lat="40.0471750" lon="-4.2739850">
        <ele>562.4</ele>
        <time>2019-08-13T09:55:19Z</time>
      </trkpt>
      <trkpt lat="40.0471280" lon="-4.2740470">
        <ele>562.3</ele>
        <time>2019-08-13T09:55:20Z</time>
      </trkpt>
      <trkpt lat="40.0470780" lon="-4.2741040">
        <ele>562.2</ele>
        <time>2019-08-13T09:55:21Z</time>
      </trkpt>
      <trkpt lat="40.0470290" lon="-4.2741560">
        <ele>562.1</ele>
        <time>2019-08-13T09:55:22Z</time>
      </trkpt>
      <trkpt lat="40.0469820" lon="-4.2742060">
        <ele>562.1</ele>
        <time>2019-08-13T09:55:23Z</time>
      </trkpt>
      <trkpt lat="40.0469370" lon="-4.2742530">
        <ele>562.0</ele>
        <time>2019-08-13T09:55:24Z</time>
      </trkpt>
      <trkpt lat="40.0468950" lon="-4.2742950">
        <ele>561.9</ele>
        <time>2019-08-13T09:55:25Z</time>
      </trkpt>
      <trkpt lat="40.0468570" lon="-4.2743350">
        <ele>561.8</ele>
        <time>2019-08-13T09:55:26Z</time>
      </trkpt>
      <trkpt lat="40.0468190" lon="-4.2743720">
        <ele>561.6</ele>
        <time>2019-08-13T09:55:27Z</time>
      </trkpt>
      <trkpt lat="40.0467830" lon="-4.2744050">
        <ele>561.5</ele>
        <time>2019-08-13T09:55:28Z</time>
      </trkpt>
      <trkpt lat="40.0467530" lon="-4.2744350">
        <ele>561.4</ele>
        <time>2019-08-13T09:55:29Z</time>
      </trkpt>
      <trkpt lat="40.0467320" lon="-4.2744610">
        <ele>561.4</ele>
        <time>2019-08-13T09:55:30Z</time>
      </trkpt>
      <trkpt lat="40.0467170" lon="-4.2745300">
        <ele>561.2</ele>
        <time>2019-08-13T09:55:32Z</time>
      </trkpt>
      <trkpt lat="40.0467210" lon="-4.2745740">
        <ele>560.6</ele>
        <time>2019-08-13T09:55:33Z</time>
      </trkpt>
      <trkpt lat="40.0467330" lon="-4.2746150">
        <ele>560.5</ele>
        <time>2019-08-13T09:55:34Z</time>
      </trkpt>
      <trkpt lat="40.0467500" lon="-4.2746520">
        <ele>560.4</ele>
        <time>2019-08-13T09:55:35Z</time>
      </trkpt>
      <trkpt lat="40.0467700" lon="-4.2746850">
        <ele>560.2</ele>
        <time>2019-08-13T09:55:36Z</time>
      </trkpt>
      <trkpt lat="40.0467930" lon="-4.2747150">
        <ele>560.1</ele>
        <time>2019-08-13T09:55:37Z</time>
      </trkpt>
      <trkpt lat="40.0468210" lon="-4.2747350">
        <ele>560.0</ele>
        <time>2019-08-13T09:55:38Z</time>
      </trkpt>
      <trkpt lat="40.0468530" lon="-4.2747440">
        <ele>559.8</ele>
        <time>2019-08-13T09:55:39Z</time>
      </trkpt>
      <trkpt lat="40.0468870" lon="-4.2747380">
        <ele>559.8</ele>
        <time>2019-08-13T09:55:40Z</time>
      </trkpt>
      <trkpt lat="40.0469180" lon="-4.2747170">
        <ele>559.9</ele>
        <time>2019-08-13T09:55:41Z</time>
      </trkpt>
      <trkpt lat="40.0469460" lon="-4.2746880">
        <ele>559.9</ele>
        <time>2019-08-13T09:55:42Z</time>
      </trkpt>
      <trkpt lat="40.0469740" lon="-4.2746570">
        <ele>559.9</ele>
        <time>2019-08-13T09:55:43Z</time>
      </trkpt>
      <trkpt lat="40.0470030" lon="-4.2746270">
        <ele>560.0</ele>
        <time>2019-08-13T09:55:44Z</time>
      </trkpt>
      <trkpt lat="40.0470330" lon="-4.2746000">
        <ele>560.0</ele>
        <time>2019-08-13T09:55:45Z</time>
      </trkpt>
      <trkpt lat="40.0470620" lon="-4.2745750">
        <ele>560.0</ele>
        <time>2019-08-13T09:55:46Z</time>
      </trkpt>
      <trkpt lat="40.0470900" lon="-4.2745540">
        <ele>560.1</ele>
        <time>2019-08-13T09:55:47Z</time>
      </trkpt>
      <trkpt lat="40.0471190" lon="-4.2745430">
        <ele>560.0</ele>
        <time>2019-08-13T09:55:48Z</time>
      </trkpt>
      <trkpt lat="40.0471500" lon="-4.2745460">
        <ele>559.8</ele>
        <time>2019-08-13T09:55:49Z</time>
      </trkpt>
      <trkpt lat="40.0471790" lon="-4.2745600">
        <ele>559.7</ele>
        <time>2019-08-13T09:55:50Z</time>
      </trkpt>
      <trkpt lat="40.0472060" lon="-4.2745850">
        <ele>559.5</ele>
        <time>2019-08-13T09:55:51Z</time>
      </trkpt>
      <trkpt lat="40.0472330" lon="-4.2746120">
        <ele>559.3</ele>
        <time>2019-08-13T09:55:52Z</time>
      </trkpt>
      <trkpt lat="40.0472610" lon="-4.2746400">
        <ele>559.1</ele>
        <time>2019-08-13T09:55:53Z</time>
      </trkpt>
      <trkpt lat="40.0472860" lon="-4.2746690">
        <ele>558.9</ele>
        <time>2019-08-13T09:55:54Z</time>
      </trkpt>
      <trkpt lat="40.0473100" lon="-4.2746960">
        <ele>558.7</ele>
        <time>2019-08-13T09:55:55Z</time>
      </trkpt>
      <trkpt lat="40.0473360" lon="-4.2747220">
        <ele>558.5</ele>
        <time>2019-08-13T09:55:56Z</time>
      </trkpt>
      <trkpt lat="40.0473670" lon="-4.2747440">
        <ele>558.3</ele>
        <time>2019-08-13T09:55:57Z</time>
      </trkpt>
      <trkpt lat="40.0474000" lon="-4.2747620">
        <ele>558.0</ele>
        <time>2019-08-13T09:55:58Z</time>
      </trkpt>
      <trkpt lat="40.0474320" lon="-4.2747800">
        <ele>557.8</ele>
        <time>2019-08-13T09:55:59Z</time>
      </trkpt>
      <trkpt lat="40.0474670" lon="-4.2747960">
        <ele>557.5</ele>
        <time>2019-08-13T09:56:00Z</time>
      </trkpt>
      <trkpt lat="40.0475080" lon="-4.2748100">
        <ele>557.5</ele>
        <time>2019-08-13T09:56:01Z</time>
      </trkpt>
      <trkpt lat="40.0475490" lon="-4.2748260">
        <ele>557.5</ele>
        <time>2019-08-13T09:56:02Z</time>
      </trkpt>
      <trkpt lat="40.0475890" lon="-4.2748470">
        <ele>557.2</ele>
        <time>2019-08-13T09:56:03Z</time>
      </trkpt>
      <trkpt lat="40.0476280" lon="-4.2748690">
        <ele>557.0</ele>
        <time>2019-08-13T09:56:04Z</time>
      </trkpt>
      <trkpt lat="40.0476660" lon="-4.2748960">
        <ele>556.8</ele>
        <time>2019-08-13T09:56:05Z</time>
      </trkpt>
      <trkpt lat="40.0477020" lon="-4.2749240">
        <ele>556.7</ele>
        <time>2019-08-13T09:56:06Z</time>
      </trkpt>
      <trkpt lat="40.0477370" lon="-4.2749530">
        <ele>556.5</ele>
        <time>2019-08-13T09:56:07Z</time>
      </trkpt>
      <trkpt lat="40.0477710" lon="-4.2749830">
        <ele>556.3</ele>
        <time>2019-08-13T09:56:08Z</time>
      </trkpt>
      <trkpt lat="40.0478060" lon="-4.2750120">
        <ele>556.2</ele>
        <time>2019-08-13T09:56:09Z</time>
      </trkpt>
      <trkpt lat="40.0478410" lon="-4.2750400">
        <ele>556.0</ele>
        <time>2019-08-13T09:56:10Z</time>
      </trkpt>
      <trkpt lat="40.0478770" lon="-4.2750690">
        <ele>555.8</ele>
        <time>2019-08-13T09:56:11Z</time>
      </trkpt>
      <trkpt lat="40.0479120" lon="-4.2751000">
        <ele>555.7</ele>
        <time>2019-08-13T09:56:12Z</time>
      </trkpt>
      <trkpt lat="40.0479480" lon="-4.2751320">
        <ele>555.5</ele>
        <time>2019-08-13T09:56:13Z</time>
      </trkpt>
      <trkpt lat="40.0479840" lon="-4.2751670">
        <ele>555.4</ele>
        <time>2019-08-13T09:56:14Z</time>
      </trkpt>
      <trkpt lat="40.0480190" lon="-4.2752040">
        <ele>555.3</ele>
        <time>2019-08-13T09:56:15Z</time>
      </trkpt>
      <trkpt lat="40.0480560" lon="-4.2752400">
        <ele>555.2</ele>
        <time>2019-08-13T09:56:16Z</time>
      </trkpt>
      <trkpt lat="40.0480920" lon="-4.2752790">
        <ele>555.0</ele>
        <time>2019-08-13T09:56:17Z</time>
      </trkpt>
      <trkpt lat="40.0481280" lon="-4.2753210">
        <ele>554.9</ele>
        <time>2019-08-13T09:56:18Z</time>
      </trkpt>
      <trkpt lat="40.0481640" lon="-4.2753640">
        <ele>554.6</ele>
        <time>2019-08-13T09:56:19Z</time>
      </trkpt>
      <trkpt lat="40.0481990" lon="-4.2754090">
        <ele>554.4</ele>
        <time>2019-08-13T09:56:20Z</time>
      </trkpt>
      <trkpt lat="40.0482330" lon="-4.2754550">
        <ele>554.2</ele>
        <time>2019-08-13T09:56:21Z</time>
      </trkpt>
      <trkpt lat="40.0482650" lon="-4.2754990">
        <ele>554.1</ele>
        <time>2019-08-13T09:56:22Z</time>
      </trkpt>
      <trkpt lat="40.0482980" lon="-4.2755400">
        <ele>553.9</ele>
        <time>2019-08-13T09:56:23Z</time>
      </trkpt>
      <trkpt lat="40.0483300" lon="-4.2755820">
        <ele>553.8</ele>
        <time>2019-08-13T09:56:24Z</time>
      </trkpt>
      <trkpt lat="40.0483600" lon="-4.2756240">
        <ele>553.6</ele>
        <time>2019-08-13T09:56:25Z</time>
      </trkpt>
      <trkpt lat="40.0483870" lon="-4.2756660">
        <ele>553.5</ele>
        <time>2019-08-13T09:56:26Z</time>
      </trkpt>
      <trkpt lat="40.0484160" lon="-4.2757090">
        <ele>553.4</ele>
        <time>2019-08-13T09:56:27Z</time>
      </trkpt>
      <trkpt lat="40.0484480" lon="-4.2757520">
        <ele>553.3</ele>
        <time>2019-08-13T09:56:28Z</time>
      </trkpt>
      <trkpt lat="40.0484810" lon="-4.2757930">
        <ele>553.2</ele>
        <time>2019-08-13T09:56:29Z</time>
      </trkpt>
      <trkpt lat="40.0485110" lon="-4.2758320">
        <ele>553.1</ele>
        <time>2019-08-13T09:56:30Z</time>
      </trkpt>
      <trkpt lat="40.0485430" lon="-4.2758730">
        <ele>553.1</ele>
        <time>2019-08-13T09:56:31Z</time>
      </trkpt>
      <trkpt lat="40.0485730" lon="-4.2759160">
        <ele>553.0</ele>
        <time>2019-08-13T09:56:32Z</time>
      </trkpt>
      <trkpt lat="40.0486060" lon="-4.2759600">
        <ele>552.9</ele>
        <time>2019-08-13T09:56:33Z</time>
      </trkpt>
      <trkpt lat="40.0486410" lon="-4.2760040">
        <ele>552.8</ele>
        <time>2019-08-13T09:56:34Z</time>
      </trkpt>
      <trkpt lat="40.0486760" lon="-4.2760460">
        <ele>552.8</ele>
        <time>2019-08-13T09:56:35Z</time>
      </trkpt>
      <trkpt lat="40.0487100" lon="-4.2760880">
        <ele>552.8</ele>
        <time>2019-08-13T09:56:36Z</time>
      </trkpt>
      <trkpt lat="40.0487440" lon="-4.2761270">
        <ele>552.8</ele>
        <time>2019-08-13T09:56:37Z</time>
      </trkpt>
      <trkpt lat="40.0487770" lon="-4.2761670">
        <ele>552.6</ele>
        <time>2019-08-13T09:56:38Z</time>
      </trkpt>
      <trkpt lat="40.0488090" lon="-4.2762080">
        <ele>552.6</ele>
        <time>2019-08-13T09:56:39Z</time>
      </trkpt>
      <trkpt lat="40.0488410" lon="-4.2762500">
        <ele>552.5</ele>
        <time>2019-08-13T09:56:40Z</time>
      </trkpt>
      <trkpt lat="40.0488740" lon="-4.2762940">
        <ele>552.5</ele>
        <time>2019-08-13T09:56:41Z</time>
      </trkpt>
      <trkpt lat="40.0489070" lon="-4.2763370">
        <ele>552.4</ele>
        <time>2019-08-13T09:56:42Z</time>
      </trkpt>
      <trkpt lat="40.0489390" lon="-4.2763790">
        <ele>552.4</ele>
        <time>2019-08-13T09:56:43Z</time>
      </trkpt>
      <trkpt lat="40.0489720" lon="-4.2764200">
        <ele>552.3</ele>
        <time>2019-08-13T09:56:44Z</time>
      </trkpt>
      <trkpt lat="40.0490040" lon="-4.2764590">
        <ele>552.3</ele>
        <time>2019-08-13T09:56:45Z</time>
      </trkpt>
      <trkpt lat="40.0490360" lon="-4.2764990">
        <ele>552.2</ele>
        <time>2019-08-13T09:56:46Z</time>
      </trkpt>
      <trkpt lat="40.0490690" lon="-4.2765400">
        <ele>552.2</ele>
        <time>2019-08-13T09:56:47Z</time>
      </trkpt>
      <trkpt lat="40.0491030" lon="-4.2765790">
        <ele>552.1</ele>
        <time>2019-08-13T09:56:48Z</time>
      </trkpt>
      <trkpt lat="40.0491390" lon="-4.2766200">
        <ele>552.1</ele>
        <time>2019-08-13T09:56:49Z</time>
      </trkpt>
      <trkpt lat="40.0491740" lon="-4.2766640">
        <ele>552.0</ele>
        <time>2019-08-13T09:56:50Z</time>
      </trkpt>
      <trkpt lat="40.0492090" lon="-4.2767090">
        <ele>552.0</ele>
        <time>2019-08-13T09:56:51Z</time>
      </trkpt>
      <trkpt lat="40.0492420" lon="-4.2767590">
        <ele>552.0</ele>
        <time>2019-08-13T09:56:52Z</time>
      </trkpt>
      <trkpt lat="40.0492760" lon="-4.2768060">
        <ele>551.9</ele>
        <time>2019-08-13T09:56:53Z</time>
      </trkpt>
      <trkpt lat="40.0493080" lon="-4.2768500">
        <ele>551.9</ele>
        <time>2019-08-13T09:56:54Z</time>
      </trkpt>
      <trkpt lat="40.0493440" lon="-4.2768920">
        <ele>551.8</ele>
        <time>2019-08-13T09:56:55Z</time>
      </trkpt>
      <trkpt lat="40.0493790" lon="-4.2769340">
        <ele>551.8</ele>
        <time>2019-08-13T09:56:56Z</time>
      </trkpt>
      <trkpt lat="40.0494130" lon="-4.2769780">
        <ele>551.8</ele>
        <time>2019-08-13T09:56:57Z</time>
      </trkpt>
      <trkpt lat="40.0494480" lon="-4.2770220">
        <ele>551.9</ele>
        <time>2019-08-13T09:56:58Z</time>
      </trkpt>
      <trkpt lat="40.0494820" lon="-4.2770660">
        <ele>551.9</ele>
        <time>2019-08-13T09:56:59Z</time>
      </trkpt>
      <trkpt lat="40.0495140" lon="-4.2771120">
        <ele>552.0</ele>
        <time>2019-08-13T09:57:00Z</time>
      </trkpt>
      <trkpt lat="40.0495460" lon="-4.2771600">
        <ele>552.0</ele>
        <time>2019-08-13T09:57:01Z</time>
      </trkpt>
      <trkpt lat="40.0495780" lon="-4.2772070">
        <ele>552.0</ele>
        <time>2019-08-13T09:57:02Z</time>
      </trkpt>
      <trkpt lat="40.0496100" lon="-4.2772540">
        <ele>551.9</ele>
        <time>2019-08-13T09:57:03Z</time>
      </trkpt>
      <trkpt lat="40.0496410" lon="-4.2772990">
        <ele>551.9</ele>
        <time>2019-08-13T09:57:04Z</time>
      </trkpt>
      <trkpt lat="40.0496760" lon="-4.2773430">
        <ele>551.9</ele>
        <time>2019-08-13T09:57:05Z</time>
      </trkpt>
      <trkpt lat="40.0497100" lon="-4.2773860">
        <ele>551.8</ele>
        <time>2019-08-13T09:57:06Z</time>
      </trkpt>
      <trkpt lat="40.0497440" lon="-4.2774270">
        <ele>551.8</ele>
        <time>2019-08-13T09:57:07Z</time>
      </trkpt>
      <trkpt lat="40.0497760" lon="-4.2774690">
        <ele>551.8</ele>
        <time>2019-08-13T09:57:08Z</time>
      </trkpt>
      <trkpt lat="40.0498060" lon="-4.2775090">
        <ele>551.7</ele>
        <time>2019-08-13T09:57:09Z</time>
      </trkpt>
      <trkpt lat="40.0498360" lon="-4.2775500">
        <ele>551.7</ele>
        <time>2019-08-13T09:57:10Z</time>
      </trkpt>
      <trkpt lat="40.0498650" lon="-4.2775910">
        <ele>551.7</ele>
        <time>2019-08-13T09:57:11Z</time>
      </trkpt>
      <trkpt lat="40.0498930" lon="-4.2776300">
        <ele>551.5</ele>
        <time>2019-08-13T09:57:12Z</time>
      </trkpt>
      <trkpt lat="40.0499210" lon="-4.2776690">
        <ele>551.5</ele>
        <time>2019-08-13T09:57:13Z</time>
      </trkpt>
      <trkpt lat="40.0499500" lon="-4.2777070">
        <ele>551.4</ele>
        <time>2019-08-13T09:57:14Z</time>
      </trkpt>
      <trkpt lat="40.0499780" lon="-4.2777470">
        <ele>551.3</ele>
        <time>2019-08-13T09:57:15Z</time>
      </trkpt>
      <trkpt lat="40.0500070" lon="-4.2777890">
        <ele>551.2</ele>
        <time>2019-08-13T09:57:16Z</time>
      </trkpt>
      <trkpt lat="40.0500370" lon="-4.2778300">
        <ele>551.2</ele>
        <time>2019-08-13T09:57:17Z</time>
      </trkpt>
      <trkpt lat="40.0500680" lon="-4.2778720">
        <ele>551.1</ele>
        <time>2019-08-13T09:57:18Z</time>
      </trkpt>
      <trkpt lat="40.0501000" lon="-4.2779140">
        <ele>551.1</ele>
        <time>2019-08-13T09:57:19Z</time>
      </trkpt>
      <trkpt lat="40.0501300" lon="-4.2779540">
        <ele>551.0</ele>
        <time>2019-08-13T09:57:20Z</time>
      </trkpt>
      <trkpt lat="40.0501590" lon="-4.2779930">
        <ele>550.9</ele>
        <time>2019-08-13T09:57:21Z</time>
      </trkpt>
      <trkpt lat="40.0501880" lon="-4.2780300">
        <ele>550.9</ele>
        <time>2019-08-13T09:57:22Z</time>
      </trkpt>
      <trkpt lat="40.0502190" lon="-4.2780680">
        <ele>550.8</ele>
        <time>2019-08-13T09:57:23Z</time>
      </trkpt>
      <trkpt lat="40.0502500" lon="-4.2781090">
        <ele>550.7</ele>
        <time>2019-08-13T09:57:24Z</time>
      </trkpt>
      <trkpt lat="40.0502810" lon="-4.2781520">
        <ele>550.6</ele>
        <time>2019-08-13T09:57:25Z</time>
      </trkpt>
      <trkpt lat="40.0503120" lon="-4.2781940">
        <ele>550.5</ele>
        <time>2019-08-13T09:57:26Z</time>
      </trkpt>
      <trkpt lat="40.0503420" lon="-4.2782370">
        <ele>550.5</ele>
        <time>2019-08-13T09:57:27Z</time>
      </trkpt>
      <trkpt lat="40.0503730" lon="-4.2782790">
        <ele>550.4</ele>
        <time>2019-08-13T09:57:28Z</time>
      </trkpt>
      <trkpt lat="40.0504040" lon="-4.2783230">
        <ele>550.4</ele>
        <time>2019-08-13T09:57:29Z</time>
      </trkpt>
      <trkpt lat="40.0504350" lon="-4.2783680">
        <ele>550.3</ele>
        <time>2019-08-13T09:57:30Z</time>
      </trkpt>
      <trkpt lat="40.0504690" lon="-4.2784130">
        <ele>550.3</ele>
        <time>2019-08-13T09:57:31Z</time>
      </trkpt>
      <trkpt lat="40.0505050" lon="-4.2784570">
        <ele>550.2</ele>
        <time>2019-08-13T09:57:32Z</time>
      </trkpt>
      <trkpt lat="40.0505400" lon="-4.2785040">
        <ele>550.0</ele>
        <time>2019-08-13T09:57:33Z</time>
      </trkpt>
      <trkpt lat="40.0505760" lon="-4.2785510">
        <ele>550.0</ele>
        <time>2019-08-13T09:57:34Z</time>
      </trkpt>
      <trkpt lat="40.0506090" lon="-4.2785990">
        <ele>549.9</ele>
        <time>2019-08-13T09:57:35Z</time>
      </trkpt>
      <trkpt lat="40.0506420" lon="-4.2786470">
        <ele>549.8</ele>
        <time>2019-08-13T09:57:36Z</time>
      </trkpt>
      <trkpt lat="40.0506750" lon="-4.2786930">
        <ele>549.8</ele>
        <time>2019-08-13T09:57:37Z</time>
      </trkpt>
      <trkpt lat="40.0507090" lon="-4.2787400">
        <ele>549.7</ele>
        <time>2019-08-13T09:57:38Z</time>
      </trkpt>
      <trkpt lat="40.0507460" lon="-4.2787870">
        <ele>549.7</ele>
        <time>2019-08-13T09:57:39Z</time>
      </trkpt>
      <trkpt lat="40.0507840" lon="-4.2788310">
        <ele>549.6</ele>
        <time>2019-08-13T09:57:40Z</time>
      </trkpt>
      <trkpt lat="40.0508180" lon="-4.2788790">
        <ele>549.6</ele>
        <time>2019-08-13T09:57:41Z</time>
      </trkpt>
      <trkpt lat="40.0508500" lon="-4.2789300">
        <ele>549.5</ele>
        <time>2019-08-13T09:57:42Z</time>
      </trkpt>
      <trkpt lat="40.0508820" lon="-4.2789780">
        <ele>549.5</ele>
        <time>2019-08-13T09:57:43Z</time>
      </trkpt>
      <trkpt lat="40.0509130" lon="-4.2790230">
        <ele>549.5</ele>
        <time>2019-08-13T09:57:44Z</time>
      </trkpt>
      <trkpt lat="40.0509460" lon="-4.2790670">
        <ele>549.5</ele>
        <time>2019-08-13T09:57:45Z</time>
      </trkpt>
      <trkpt lat="40.0509780" lon="-4.2791090">
        <ele>549.4</ele>
        <time>2019-08-13T09:57:46Z</time>
      </trkpt>
      <trkpt lat="40.0510090" lon="-4.2791530">
        <ele>549.4</ele>
        <time>2019-08-13T09:57:47Z</time>
      </trkpt>
      <trkpt lat="40.0510390" lon="-4.2791960">
        <ele>549.4</ele>
        <time>2019-08-13T09:57:48Z</time>
      </trkpt>
      <trkpt lat="40.0510690" lon="-4.2792410">
        <ele>549.3</ele>
        <time>2019-08-13T09:57:49Z</time>
      </trkpt>
      <trkpt lat="40.0511010" lon="-4.2792850">
        <ele>549.3</ele>
        <time>2019-08-13T09:57:50Z</time>
      </trkpt>
      <trkpt lat="40.0511320" lon="-4.2793310">
        <ele>549.3</ele>
        <time>2019-08-13T09:57:51Z</time>
      </trkpt>
      <trkpt lat="40.0511630" lon="-4.2793770">
        <ele>549.2</ele>
        <time>2019-08-13T09:57:52Z</time>
      </trkpt>
      <trkpt lat="40.0511940" lon="-4.2794260">
        <ele>549.2</ele>
        <time>2019-08-13T09:57:53Z</time>
      </trkpt>
      <trkpt lat="40.0512260" lon="-4.2794740">
        <ele>549.2</ele>
        <time>2019-08-13T09:57:54Z</time>
      </trkpt>
      <trkpt lat="40.0512600" lon="-4.2795250">
        <ele>549.1</ele>
        <time>2019-08-13T09:57:55Z</time>
      </trkpt>
      <trkpt lat="40.0512950" lon="-4.2795670">
        <ele>549.1</ele>
        <time>2019-08-13T09:57:56Z</time>
      </trkpt>
      <trkpt lat="40.0513320" lon="-4.2796110">
        <ele>549.0</ele>
        <time>2019-08-13T09:57:57Z</time>
      </trkpt>
      <trkpt lat="40.0513700" lon="-4.2796600">
        <ele>549.0</ele>
        <time>2019-08-13T09:57:58Z</time>
      </trkpt>
      <trkpt lat="40.0514090" lon="-4.2797090">
        <ele>548.9</ele>
        <time>2019-08-13T09:57:59Z</time>
      </trkpt>
      <trkpt lat="40.0514470" lon="-4.2797580">
        <ele>548.9</ele>
        <time>2019-08-13T09:58:00Z</time>
      </trkpt>
      <trkpt lat="40.0514830" lon="-4.2798080">
        <ele>548.8</ele>
        <time>2019-08-13T09:58:01Z</time>
      </trkpt>
      <trkpt lat="40.0515180" lon="-4.2798580">
        <ele>548.7</ele>
        <time>2019-08-13T09:58:02Z</time>
      </trkpt>
      <trkpt lat="40.0515510" lon="-4.2799100">
        <ele>548.6</ele>
        <time>2019-08-13T09:58:03Z</time>
      </trkpt>
      <trkpt lat="40.0515840" lon="-4.2799650">
        <ele>548.5</ele>
        <time>2019-08-13T09:58:04Z</time>
      </trkpt>
      <trkpt lat="40.0516190" lon="-4.2800200">
        <ele>548.4</ele>
        <time>2019-08-13T09:58:05Z</time>
      </trkpt>
      <trkpt lat="40.0516530" lon="-4.2800780">
        <ele>548.3</ele>
        <time>2019-08-13T09:58:06Z</time>
      </trkpt>
      <trkpt lat="40.0516860" lon="-4.2801370">
        <ele>548.2</ele>
        <time>2019-08-13T09:58:07Z</time>
      </trkpt>
      <trkpt lat="40.0517200" lon="-4.2801960">
        <ele>548.2</ele>
        <time>2019-08-13T09:58:08Z</time>
      </trkpt>
      <trkpt lat="40.0517530" lon="-4.2802560">
        <ele>548.1</ele>
        <time>2019-08-13T09:58:09Z</time>
      </trkpt>
      <trkpt lat="40.0517860" lon="-4.2803160">
        <ele>548.0</ele>
        <time>2019-08-13T09:58:10Z</time>
      </trkpt>
      <trkpt lat="40.0518190" lon="-4.2803730">
        <ele>547.9</ele>
        <time>2019-08-13T09:58:11Z</time>
      </trkpt>
      <trkpt lat="40.0518530" lon="-4.2804290">
        <ele>547.8</ele>
        <time>2019-08-13T09:58:12Z</time>
      </trkpt>
      <trkpt lat="40.0518880" lon="-4.2804870">
        <ele>547.7</ele>
        <time>2019-08-13T09:58:13Z</time>
      </trkpt>
      <trkpt lat="40.0519230" lon="-4.2805450">
        <ele>547.6</ele>
        <time>2019-08-13T09:58:14Z</time>
      </trkpt>
      <trkpt lat="40.0519560" lon="-4.2806040">
        <ele>547.5</ele>
        <time>2019-08-13T09:58:15Z</time>
      </trkpt>
      <trkpt lat="40.0519900" lon="-4.2806600">
        <ele>547.4</ele>
        <time>2019-08-13T09:58:16Z</time>
      </trkpt>
      <trkpt lat="40.0520240" lon="-4.2807180">
        <ele>547.3</ele>
        <time>2019-08-13T09:58:17Z</time>
      </trkpt>
      <trkpt lat="40.0520570" lon="-4.2807750">
        <ele>547.2</ele>
        <time>2019-08-13T09:58:18Z</time>
      </trkpt>
      <trkpt lat="40.0520890" lon="-4.2808320">
        <ele>547.1</ele>
        <time>2019-08-13T09:58:19Z</time>
      </trkpt>
      <trkpt lat="40.0521200" lon="-4.2808890">
        <ele>547.1</ele>
        <time>2019-08-13T09:58:20Z</time>
      </trkpt>
      <trkpt lat="40.0521540" lon="-4.2809480">
        <ele>547.0</ele>
        <time>2019-08-13T09:58:21Z</time>
      </trkpt>
      <trkpt lat="40.0521890" lon="-4.2810060">
        <ele>546.9</ele>
        <time>2019-08-13T09:58:22Z</time>
      </trkpt>
      <trkpt lat="40.0522240" lon="-4.2810630">
        <ele>546.7</ele>
        <time>2019-08-13T09:58:23Z</time>
      </trkpt>
      <trkpt lat="40.0522600" lon="-4.2811220">
        <ele>546.6</ele>
        <time>2019-08-13T09:58:24Z</time>
      </trkpt>
      <trkpt lat="40.0522950" lon="-4.2811820">
        <ele>546.5</ele>
        <time>2019-08-13T09:58:25Z</time>
      </trkpt>
      <trkpt lat="40.0523320" lon="-4.2812420">
        <ele>546.4</ele>
        <time>2019-08-13T09:58:26Z</time>
      </trkpt>
      <trkpt lat="40.0523680" lon="-4.2813010">
        <ele>546.3</ele>
        <time>2019-08-13T09:58:27Z</time>
      </trkpt>
      <trkpt lat="40.0524040" lon="-4.2813610">
        <ele>546.3</ele>
        <time>2019-08-13T09:58:28Z</time>
      </trkpt>
      <trkpt lat="40.0524400" lon="-4.2814180">
        <ele>546.2</ele>
        <time>2019-08-13T09:58:29Z</time>
      </trkpt>
      <trkpt lat="40.0524770" lon="-4.2814760">
        <ele>546.1</ele>
        <time>2019-08-13T09:58:30Z</time>
      </trkpt>
      <trkpt lat="40.0525130" lon="-4.2815340">
        <ele>546.1</ele>
        <time>2019-08-13T09:58:31Z</time>
      </trkpt>
      <trkpt lat="40.0525490" lon="-4.2815910">
        <ele>546.0</ele>
        <time>2019-08-13T09:58:32Z</time>
      </trkpt>
      <trkpt lat="40.0525860" lon="-4.2816490">
        <ele>546.0</ele>
        <time>2019-08-13T09:58:33Z</time>
      </trkpt>
      <trkpt lat="40.0526220" lon="-4.2817080">
        <ele>545.9</ele>
        <time>2019-08-13T09:58:34Z</time>
      </trkpt>
      <trkpt lat="40.0526590" lon="-4.2817670">
        <ele>545.9</ele>
        <time>2019-08-13T09:58:35Z</time>
      </trkpt>
      <trkpt lat="40.0526970" lon="-4.2818250">
        <ele>545.8</ele>
        <time>2019-08-13T09:58:36Z</time>
      </trkpt>
      <trkpt lat="40.0527350" lon="-4.2818840">
        <ele>545.8</ele>
        <time>2019-08-13T09:58:37Z</time>
      </trkpt>
      <trkpt lat="40.0527700" lon="-4.2819430">
        <ele>545.7</ele>
        <time>2019-08-13T09:58:38Z</time>
      </trkpt>
      <trkpt lat="40.0528030" lon="-4.2819980">
        <ele>545.7</ele>
        <time>2019-08-13T09:58:39Z</time>
      </trkpt>
      <trkpt lat="40.0528350" lon="-4.2820520">
        <ele>545.7</ele>
        <time>2019-08-13T09:58:40Z</time>
      </trkpt>
      <trkpt lat="40.0528710" lon="-4.2821050">
        <ele>545.7</ele>
        <time>2019-08-13T09:58:41Z</time>
      </trkpt>
      <trkpt lat="40.0529090" lon="-4.2821590">
        <ele>545.6</ele>
        <time>2019-08-13T09:58:42Z</time>
      </trkpt>
      <trkpt lat="40.0529470" lon="-4.2822150">
        <ele>545.6</ele>
        <time>2019-08-13T09:58:43Z</time>
      </trkpt>
      <trkpt lat="40.0529830" lon="-4.2822740">
        <ele>545.5</ele>
        <time>2019-08-13T09:58:44Z</time>
      </trkpt>
      <trkpt lat="40.0530180" lon="-4.2823360">
        <ele>545.5</ele>
        <time>2019-08-13T09:58:45Z</time>
      </trkpt>
      <trkpt lat="40.0530510" lon="-4.2823970">
        <ele>545.4</ele>
        <time>2019-08-13T09:58:46Z</time>
      </trkpt>
      <trkpt lat="40.0530860" lon="-4.2824580">
        <ele>545.4</ele>
        <time>2019-08-13T09:58:47Z</time>
      </trkpt>
      <trkpt lat="40.0531190" lon="-4.2825190">
        <ele>545.3</ele>
        <time>2019-08-13T09:58:48Z</time>
      </trkpt>
      <trkpt lat="40.0531540" lon="-4.2825800">
        <ele>545.3</ele>
        <time>2019-08-13T09:58:49Z</time>
      </trkpt>
      <trkpt lat="40.0531870" lon="-4.2826390">
        <ele>545.2</ele>
        <time>2019-08-13T09:58:50Z</time>
      </trkpt>
      <trkpt lat="40.0532210" lon="-4.2826990">
        <ele>545.2</ele>
        <time>2019-08-13T09:58:51Z</time>
      </trkpt>
      <trkpt lat="40.0532580" lon="-4.2827600">
        <ele>545.1</ele>
        <time>2019-08-13T09:58:52Z</time>
      </trkpt>
      <trkpt lat="40.0532970" lon="-4.2828230">
        <ele>545.0</ele>
        <time>2019-08-13T09:58:53Z</time>
      </trkpt>
      <trkpt lat="40.0533370" lon="-4.2828890">
        <ele>545.0</ele>
        <time>2019-08-13T09:58:54Z</time>
      </trkpt>
      <trkpt lat="40.0533770" lon="-4.2829540">
        <ele>544.9</ele>
        <time>2019-08-13T09:58:55Z</time>
      </trkpt>
      <trkpt lat="40.0534200" lon="-4.2830170">
        <ele>544.8</ele>
        <time>2019-08-13T09:58:56Z</time>
      </trkpt>
      <trkpt lat="40.0534650" lon="-4.2830750">
        <ele>544.7</ele>
        <time>2019-08-13T09:58:57Z</time>
      </trkpt>
      <trkpt lat="40.0535120" lon="-4.2831320">
        <ele>544.6</ele>
        <time>2019-08-13T09:58:58Z</time>
      </trkpt>
      <trkpt lat="40.0535590" lon="-4.2831850">
        <ele>544.4</ele>
        <time>2019-08-13T09:58:59Z</time>
      </trkpt>
      <trkpt lat="40.0536080" lon="-4.2832350">
        <ele>544.3</ele>
        <time>2019-08-13T09:59:00Z</time>
      </trkpt>
      <trkpt lat="40.0536570" lon="-4.2832820">
        <ele>544.1</ele>
        <time>2019-08-13T09:59:01Z</time>
      </trkpt>
      <trkpt lat="40.0537070" lon="-4.2833300">
        <ele>543.9</ele>
        <time>2019-08-13T09:59:02Z</time>
      </trkpt>
      <trkpt lat="40.0537580" lon="-4.2833780">
        <ele>543.8</ele>
        <time>2019-08-13T09:59:03Z</time>
      </trkpt>
      <trkpt lat="40.0538100" lon="-4.2834260">
        <ele>543.7</ele>
        <time>2019-08-13T09:59:04Z</time>
      </trkpt>
      <trkpt lat="40.0538620" lon="-4.2834740">
        <ele>543.5</ele>
        <time>2019-08-13T09:59:05Z</time>
      </trkpt>
      <trkpt lat="40.0539130" lon="-4.2835250">
        <ele>543.4</ele>
        <time>2019-08-13T09:59:06Z</time>
      </trkpt>
      <trkpt lat="40.0539630" lon="-4.2835730">
        <ele>543.3</ele>
        <time>2019-08-13T09:59:07Z</time>
      </trkpt>
      <trkpt lat="40.0540140" lon="-4.2836230">
        <ele>543.1</ele>
        <time>2019-08-13T09:59:08Z</time>
      </trkpt>
      <trkpt lat="40.0540640" lon="-4.2836730">
        <ele>543.0</ele>
        <time>2019-08-13T09:59:09Z</time>
      </trkpt>
      <trkpt lat="40.0541150" lon="-4.2837200">
        <ele>542.9</ele>
        <time>2019-08-13T09:59:10Z</time>
      </trkpt>
      <trkpt lat="40.0541650" lon="-4.2837660">
        <ele>542.8</ele>
        <time>2019-08-13T09:59:11Z</time>
      </trkpt>
      <trkpt lat="40.0542140" lon="-4.2838130">
        <ele>542.7</ele>
        <time>2019-08-13T09:59:12Z</time>
      </trkpt>
      <trkpt lat="40.0542610" lon="-4.2838610">
        <ele>542.6</ele>
        <time>2019-08-13T09:59:13Z</time>
      </trkpt>
      <trkpt lat="40.0543080" lon="-4.2839090">
        <ele>542.5</ele>
        <time>2019-08-13T09:59:14Z</time>
      </trkpt>
      <trkpt lat="40.0543550" lon="-4.2839570">
        <ele>542.4</ele>
        <time>2019-08-13T09:59:15Z</time>
      </trkpt>
      <trkpt lat="40.0544010" lon="-4.2840030">
        <ele>542.3</ele>
        <time>2019-08-13T09:59:16Z</time>
      </trkpt>
      <trkpt lat="40.0544460" lon="-4.2840470">
        <ele>542.2</ele>
        <time>2019-08-13T09:59:17Z</time>
      </trkpt>
      <trkpt lat="40.0544890" lon="-4.2840890">
        <ele>542.1</ele>
        <time>2019-08-13T09:59:18Z</time>
      </trkpt>
      <trkpt lat="40.0545310" lon="-4.2841320">
        <ele>542.1</ele>
        <time>2019-08-13T09:59:19Z</time>
      </trkpt>
      <trkpt lat="40.0545730" lon="-4.2841740">
        <ele>542.0</ele>
        <time>2019-08-13T09:59:20Z</time>
      </trkpt>
      <trkpt lat="40.0546150" lon="-4.2842160">
        <ele>541.9</ele>
        <time>2019-08-13T09:59:21Z</time>
      </trkpt>
      <trkpt lat="40.0546580" lon="-4.2842590">
        <ele>541.8</ele>
        <time>2019-08-13T09:59:22Z</time>
      </trkpt>
      <trkpt lat="40.0547020" lon="-4.2843010">
        <ele>541.8</ele>
        <time>2019-08-13T09:59:23Z</time>
      </trkpt>
      <trkpt lat="40.0547460" lon="-4.2843430">
        <ele>541.7</ele>
        <time>2019-08-13T09:59:24Z</time>
      </trkpt>
      <trkpt lat="40.0547890" lon="-4.2843860">
        <ele>541.6</ele>
        <time>2019-08-13T09:59:25Z</time>
      </trkpt>
      <trkpt lat="40.0548320" lon="-4.2844300">
        <ele>541.6</ele>
        <time>2019-08-13T09:59:26Z</time>
      </trkpt>
      <trkpt lat="40.0548760" lon="-4.2844740">
        <ele>541.5</ele>
        <time>2019-08-13T09:59:27Z</time>
      </trkpt>
      <trkpt lat="40.0549200" lon="-4.2845160">
        <ele>541.5</ele>
        <time>2019-08-13T09:59:28Z</time>
      </trkpt>
      <trkpt lat="40.0549670" lon="-4.2845560">
        <ele>541.4</ele>
        <time>2019-08-13T09:59:29Z</time>
      </trkpt>
      <trkpt lat="40.0550130" lon="-4.2845930">
        <ele>541.3</ele>
        <time>2019-08-13T09:59:30Z</time>
      </trkpt>
      <trkpt lat="40.0550580" lon="-4.2846300">
        <ele>541.3</ele>
        <time>2019-08-13T09:59:31Z</time>
      </trkpt>
      <trkpt lat="40.0551030" lon="-4.2846640">
        <ele>541.2</ele>
        <time>2019-08-13T09:59:32Z</time>
      </trkpt>
      <trkpt lat="40.0551480" lon="-4.2846950">
        <ele>541.2</ele>
        <time>2019-08-13T09:59:33Z</time>
      </trkpt>
      <trkpt lat="40.0551930" lon="-4.2847250">
        <ele>541.2</ele>
        <time>2019-08-13T09:59:34Z</time>
      </trkpt>
      <trkpt lat="40.0552370" lon="-4.2847530">
        <ele>541.2</ele>
        <time>2019-08-13T09:59:35Z</time>
      </trkpt>
      <trkpt lat="40.0552830" lon="-4.2847810">
        <ele>541.1</ele>
        <time>2019-08-13T09:59:36Z</time>
      </trkpt>
      <trkpt lat="40.0553300" lon="-4.2848080">
        <ele>541.1</ele>
        <time>2019-08-13T09:59:37Z</time>
      </trkpt>
      <trkpt lat="40.0553770" lon="-4.2848340">
        <ele>541.1</ele>
        <time>2019-08-13T09:59:38Z</time>
      </trkpt>
      <trkpt lat="40.0554230" lon="-4.2848620">
        <ele>541.1</ele>
        <time>2019-08-13T09:59:39Z</time>
      </trkpt>
      <trkpt lat="40.0554710" lon="-4.2848900">
        <ele>541.1</ele>
        <time>2019-08-13T09:59:40Z</time>
      </trkpt>
      <trkpt lat="40.0555180" lon="-4.2849180">
        <ele>541.1</ele>
        <time>2019-08-13T09:59:41Z</time>
      </trkpt>
      <trkpt lat="40.0555660" lon="-4.2849480">
        <ele>541.0</ele>
        <time>2019-08-13T09:59:42Z</time>
      </trkpt>
      <trkpt lat="40.0556130" lon="-4.2849810">
        <ele>541.0</ele>
        <time>2019-08-13T09:59:43Z</time>
      </trkpt>
      <trkpt lat="40.0556600" lon="-4.2850140">
        <ele>541.0</ele>
        <time>2019-08-13T09:59:44Z</time>
      </trkpt>
      <trkpt lat="40.0557070" lon="-4.2850500">
        <ele>541.0</ele>
        <time>2019-08-13T09:59:45Z</time>
      </trkpt>
      <trkpt lat="40.0557540" lon="-4.2850890">
        <ele>541.0</ele>
        <time>2019-08-13T09:59:46Z</time>
      </trkpt>
      <trkpt lat="40.0557980" lon="-4.2851290">
        <ele>541.0</ele>
        <time>2019-08-13T09:59:47Z</time>
      </trkpt>
      <trkpt lat="40.0558410" lon="-4.2851700">
        <ele>541.0</ele>
        <time>2019-08-13T09:59:48Z</time>
      </trkpt>
      <trkpt lat="40.0558840" lon="-4.2852100">
        <ele>541.0</ele>
        <time>2019-08-13T09:59:49Z</time>
      </trkpt>
      <trkpt lat="40.0559290" lon="-4.2852520">
        <ele>541.0</ele>
        <time>2019-08-13T09:59:50Z</time>
      </trkpt>
      <trkpt lat="40.0559740" lon="-4.2852930">
        <ele>541.0</ele>
        <time>2019-08-13T09:59:51Z</time>
      </trkpt>
      <trkpt lat="40.0560180" lon="-4.2853370">
        <ele>541.0</ele>
        <time>2019-08-13T09:59:52Z</time>
      </trkpt>
      <trkpt lat="40.0560620" lon="-4.2853810">
        <ele>541.0</ele>
        <time>2019-08-13T09:59:53Z</time>
      </trkpt>
      <trkpt lat="40.0561060" lon="-4.2854230">
        <ele>541.0</ele>
        <time>2019-08-13T09:59:54Z</time>
      </trkpt>
      <trkpt lat="40.0561490" lon="-4.2854650">
        <ele>541.0</ele>
        <time>2019-08-13T09:59:55Z</time>
      </trkpt>
      <trkpt lat="40.0561910" lon="-4.2855080">
        <ele>541.0</ele>
        <time>2019-08-13T09:59:56Z</time>
      </trkpt>
      <trkpt lat="40.0562340" lon="-4.2855500">
        <ele>541.0</ele>
        <time>2019-08-13T09:59:57Z</time>
      </trkpt>
      <trkpt lat="40.0562780" lon="-4.2855920">
        <ele>541.0</ele>
        <time>2019-08-13T09:59:58Z</time>
      </trkpt>
      <trkpt lat="40.0563220" lon="-4.2856350">
        <ele>541.0</ele>
        <time>2019-08-13T09:59:59Z</time>
      </trkpt>
      <trkpt lat="40.0563670" lon="-4.2856780">
        <ele>541.0</ele>
        <time>2019-08-13T10:00:00Z</time>
      </trkpt>
      <trkpt lat="40.0564130" lon="-4.2857190">
        <ele>541.0</ele>
        <time>2019-08-13T10:00:01Z</time>
      </trkpt>
      <trkpt lat="40.0564600" lon="-4.2857590">
        <ele>541.0</ele>
        <time>2019-08-13T10:00:02Z</time>
      </trkpt>
      <trkpt lat="40.0565080" lon="-4.2857990">
        <ele>541.0</ele>
        <time>2019-08-13T10:00:03Z</time>
      </trkpt>
      <trkpt lat="40.0565550" lon="-4.2858410">
        <ele>541.0</ele>
        <time>2019-08-13T10:00:04Z</time>
      </trkpt>
      <trkpt lat="40.0566020" lon="-4.2858830">
        <ele>540.9</ele>
        <time>2019-08-13T10:00:05Z</time>
      </trkpt>
      <trkpt lat="40.0566480" lon="-4.2859240">
        <ele>540.9</ele>
        <time>2019-08-13T10:00:06Z</time>
      </trkpt>
      <trkpt lat="40.0566930" lon="-4.2859630">
        <ele>540.9</ele>
        <time>2019-08-13T10:00:07Z</time>
      </trkpt>
      <trkpt lat="40.0567400" lon="-4.2860000">
        <ele>540.9</ele>
        <time>2019-08-13T10:00:08Z</time>
      </trkpt>
      <trkpt lat="40.0567870" lon="-4.2860380">
        <ele>540.8</ele>
        <time>2019-08-13T10:00:09Z</time>
      </trkpt>
      <trkpt lat="40.0568330" lon="-4.2860770">
        <ele>540.8</ele>
        <time>2019-08-13T10:00:10Z</time>
      </trkpt>
      <trkpt lat="40.0568780" lon="-4.2861160">
        <ele>540.8</ele>
        <time>2019-08-13T10:00:11Z</time>
      </trkpt>
      <trkpt lat="40.0569250" lon="-4.2861560">
        <ele>540.8</ele>
        <time>2019-08-13T10:00:12Z</time>
      </trkpt>
      <trkpt lat="40.0569740" lon="-4.2861930">
        <ele>540.7</ele>
        <time>2019-08-13T10:00:13Z</time>
      </trkpt>
      <trkpt lat="40.0570210" lon="-4.2862300">
        <ele>540.7</ele>
        <time>2019-08-13T10:00:14Z</time>
      </trkpt>
      <trkpt lat="40.0570670" lon="-4.2862670">
        <ele>540.7</ele>
        <time>2019-08-13T10:00:15Z</time>
      </trkpt>
      <trkpt lat="40.0571140" lon="-4.2863040">
        <ele>540.7</ele>
        <time>2019-08-13T10:00:16Z</time>
      </trkpt>
      <trkpt lat="40.0571620" lon="-4.2863390">
        <ele>540.6</ele>
        <time>2019-08-13T10:00:17Z</time>
      </trkpt>
      <trkpt lat="40.0572130" lon="-4.2863760">
        <ele>540.6</ele>
        <time>2019-08-13T10:00:18Z</time>
      </trkpt>
      <trkpt lat="40.0572630" lon="-4.2864150">
        <ele>540.6</ele>
        <time>2019-08-13T10:00:19Z</time>
      </trkpt>
      <trkpt lat="40.0573140" lon="-4.2864540">
        <ele>540.6</ele>
        <time>2019-08-13T10:00:20Z</time>
      </trkpt>
      <trkpt lat="40.0573650" lon="-4.2864920">
        <ele>540.6</ele>
        <time>2019-08-13T10:00:21Z</time>
      </trkpt>
      <trkpt lat="40.0574150" lon="-4.2865310">
        <ele>540.5</ele>
        <time>2019-08-13T10:00:22Z</time>
      </trkpt>
      <trkpt lat="40.0574660" lon="-4.2865680">
        <ele>540.5</ele>
        <time>2019-08-13T10:00:23Z</time>
      </trkpt>
      <trkpt lat="40.0575180" lon="-4.2866050">
        <ele>540.5</ele>
        <time>2019-08-13T10:00:24Z</time>
      </trkpt>
      <trkpt lat="40.0575690" lon="-4.2866420">
        <ele>540.4</ele>
        <time>2019-08-13T10:00:25Z</time>
      </trkpt>
      <trkpt lat="40.0576210" lon="-4.2866790">
        <ele>540.4</ele>
        <time>2019-08-13T10:00:26Z</time>
      </trkpt>
      <trkpt lat="40.0576740" lon="-4.2867170">
        <ele>540.3</ele>
        <time>2019-08-13T10:00:27Z</time>
      </trkpt>
      <trkpt lat="40.0577280" lon="-4.2867580">
        <ele>540.3</ele>
        <time>2019-08-13T10:00:28Z</time>
      </trkpt>
      <trkpt lat="40.0577810" lon="-4.2867970">
        <ele>540.2</ele>
        <time>2019-08-13T10:00:29Z</time>
      </trkpt>
      <trkpt lat="40.0578340" lon="-4.2868370">
        <ele>540.1</ele>
        <time>2019-08-13T10:00:30Z</time>
      </trkpt>
      <trkpt lat="40.0578870" lon="-4.2868760">
        <ele>540.0</ele>
        <time>2019-08-13T10:00:31Z</time>
      </trkpt>
      <trkpt lat="40.0579420" lon="-4.2869150">
        <ele>539.9</ele>
        <time>2019-08-13T10:00:32Z</time>
      </trkpt>
      <trkpt lat="40.0579950" lon="-4.2869550">
        <ele>539.8</ele>
        <time>2019-08-13T10:00:33Z</time>
      </trkpt>
      <trkpt lat="40.0580500" lon="-4.2869980">
        <ele>539.7</ele>
        <time>2019-08-13T10:00:34Z</time>
      </trkpt>
      <trkpt lat="40.0581040" lon="-4.2870410">
        <ele>539.7</ele>
        <time>2019-08-13T10:00:35Z</time>
      </trkpt>
      <trkpt lat="40.0581580" lon="-4.2870820">
        <ele>539.6</ele>
        <time>2019-08-13T10:00:36Z</time>
      </trkpt>
      <trkpt lat="40.0582120" lon="-4.2871240">
        <ele>539.5</ele>
        <time>2019-08-13T10:00:37Z</time>
      </trkpt>
      <trkpt lat="40.0582660" lon="-4.2871650">
        <ele>539.4</ele>
        <time>2019-08-13T10:00:38Z</time>
      </trkpt>
      <trkpt lat="40.0583180" lon="-4.2872060">
        <ele>539.3</ele>
        <time>2019-08-13T10:00:39Z</time>
      </trkpt>
      <trkpt lat="40.0583700" lon="-4.2872460">
        <ele>539.2</ele>
        <time>2019-08-13T10:00:40Z</time>
      </trkpt>
      <trkpt lat="40.0584200" lon="-4.2872850">
        <ele>539.1</ele>
        <time>2019-08-13T10:00:41Z</time>
      </trkpt>
      <trkpt lat="40.0584690" lon="-4.2873240">
        <ele>539.0</ele>
        <time>2019-08-13T10:00:42Z</time>
      </trkpt>
      <trkpt lat="40.0585180" lon="-4.2873630">
        <ele>538.9</ele>
        <time>2019-08-13T10:00:43Z</time>
      </trkpt>
      <trkpt lat="40.0585650" lon="-4.2874030">
        <ele>538.8</ele>
        <time>2019-08-13T10:00:44Z</time>
      </trkpt>
      <trkpt lat="40.0586110" lon="-4.2874440">
        <ele>538.7</ele>
        <time>2019-08-13T10:00:45Z</time>
      </trkpt>
      <trkpt lat="40.0586550" lon="-4.2874860">
        <ele>538.6</ele>
        <time>2019-08-13T10:00:46Z</time>
      </trkpt>
      <trkpt lat="40.0586980" lon="-4.2875290">
        <ele>538.5</ele>
        <time>2019-08-13T10:00:47Z</time>
      </trkpt>
      <trkpt lat="40.0587390" lon="-4.2875740">
        <ele>538.4</ele>
        <time>2019-08-13T10:00:48Z</time>
      </trkpt>
      <trkpt lat="40.0587790" lon="-4.2876180">
        <ele>538.2</ele>
        <time>2019-08-13T10:00:49Z</time>
      </trkpt>
      <trkpt lat="40.0588180" lon="-4.2876600">
        <ele>538.1</ele>
        <time>2019-08-13T10:00:50Z</time>
      </trkpt>
      <trkpt lat="40.0588560" lon="-4.2877030">
        <ele>538.0</ele>
        <time>2019-08-13T10:00:51Z</time>
      </trkpt>
      <trkpt lat="40.0588920" lon="-4.2877460">
        <ele>538.0</ele>
        <time>2019-08-13T10:00:52Z</time>
      </trkpt>
      <trkpt lat="40.0589280" lon="-4.2877900">
        <ele>537.9</ele>
        <time>2019-08-13T10:00:53Z</time>
      </trkpt>
      <trkpt lat="40.0589650" lon="-4.2878350">
        <ele>537.8</ele>
        <time>2019-08-13T10:00:54Z</time>
      </trkpt>
      <trkpt lat="40.0590020" lon="-4.2878810">
        <ele>537.7</ele>
        <time>2019-08-13T10:00:55Z</time>
      </trkpt>
      <trkpt lat="40.0590390" lon="-4.2879270">
        <ele>537.6</ele>
        <time>2019-08-13T10:00:56Z</time>
      </trkpt>
      <trkpt lat="40.0590760" lon="-4.2879740">
        <ele>537.6</ele>
        <time>2019-08-13T10:00:57Z</time>
      </trkpt>
      <trkpt lat="40.0591130" lon="-4.2880220">
        <ele>537.4</ele>
        <time>2019-08-13T10:00:58Z</time>
      </trkpt>
      <trkpt lat="40.0591500" lon="-4.2880700">
        <ele>537.2</ele>
        <time>2019-08-13T10:00:59Z</time>
      </trkpt>
      <trkpt lat="40.0591850" lon="-4.2881190">
        <ele>537.1</ele>
        <time>2019-08-13T10:01:00Z</time>
      </trkpt>
      <trkpt lat="40.0592220" lon="-4.2881690">
        <ele>537.0</ele>
        <time>2019-08-13T10:01:01Z</time>
      </trkpt>
      <trkpt lat="40.0592590" lon="-4.2882190">
        <ele>536.9</ele>
        <time>2019-08-13T10:01:02Z</time>
      </trkpt>
      <trkpt lat="40.0592940" lon="-4.2882680">
        <ele>536.8</ele>
        <time>2019-08-13T10:01:03Z</time>
      </trkpt>
      <trkpt lat="40.0593300" lon="-4.2883170">
        <ele>536.7</ele>
        <time>2019-08-13T10:01:04Z</time>
      </trkpt>
      <trkpt lat="40.0593660" lon="-4.2883660">
        <ele>536.7</ele>
        <time>2019-08-13T10:01:05Z</time>
      </trkpt>
      <trkpt lat="40.0594050" lon="-4.2884140">
        <ele>536.6</ele>
        <time>2019-08-13T10:01:06Z</time>
      </trkpt>
      <trkpt lat="40.0594440" lon="-4.2884610">
        <ele>536.6</ele>
        <time>2019-08-13T10:01:07Z</time>
      </trkpt>
      <trkpt lat="40.0594820" lon="-4.2885100">
        <ele>536.6</ele>
        <time>2019-08-13T10:01:08Z</time>
      </trkpt>
      <trkpt lat="40.0595170" lon="-4.2885610">
        <ele>536.6</ele>
        <time>2019-08-13T10:01:09Z</time>
      </trkpt>
      <trkpt lat="40.0595510" lon="-4.2886110">
        <ele>536.6</ele>
        <time>2019-08-13T10:01:10Z</time>
      </trkpt>
      <trkpt lat="40.0595860" lon="-4.2886580">
        <ele>536.6</ele>
        <time>2019-08-13T10:01:11Z</time>
      </trkpt>
      <trkpt lat="40.0596220" lon="-4.2887050">
        <ele>536.6</ele>
        <time>2019-08-13T10:01:12Z</time>
      </trkpt>
      <trkpt lat="40.0596580" lon="-4.2887540">
        <ele>536.6</ele>
        <time>2019-08-13T10:01:13Z</time>
      </trkpt>
      <trkpt lat="40.0596960" lon="-4.2888020">
        <ele>536.6</ele>
        <time>2019-08-13T10:01:14Z</time>
      </trkpt>
      <trkpt lat="40.0597340" lon="-4.2888530">
        <ele>536.6</ele>
        <time>2019-08-13T10:01:15Z</time>
      </trkpt>
      <trkpt lat="40.0597720" lon="-4.2889030">
        <ele>536.6</ele>
        <time>2019-08-13T10:01:16Z</time>
      </trkpt>
      <trkpt lat="40.0598100" lon="-4.2889550">
        <ele>536.6</ele>
        <time>2019-08-13T10:01:17Z</time>
      </trkpt>
      <trkpt lat="40.0598480" lon="-4.2890080">
        <ele>536.6</ele>
        <time>2019-08-13T10:01:18Z</time>
      </trkpt>
      <trkpt lat="40.0598860" lon="-4.2890610">
        <ele>536.6</ele>
        <time>2019-08-13T10:01:19Z</time>
      </trkpt>
      <trkpt lat="40.0599250" lon="-4.2891130">
        <ele>536.6</ele>
        <time>2019-08-13T10:01:20Z</time>
      </trkpt>
      <trkpt lat="40.0599620" lon="-4.2891690">
        <ele>536.6</ele>
        <time>2019-08-13T10:01:21Z</time>
      </trkpt>
      <trkpt lat="40.0599990" lon="-4.2892230">
        <ele>536.6</ele>
        <time>2019-08-13T10:01:22Z</time>
      </trkpt>
      <trkpt lat="40.0600320" lon="-4.2892770">
        <ele>536.6</ele>
        <time>2019-08-13T10:01:23Z</time>
      </trkpt>
      <trkpt lat="40.0600630" lon="-4.2893330">
        <ele>536.6</ele>
        <time>2019-08-13T10:01:24Z</time>
      </trkpt>
      <trkpt lat="40.0600910" lon="-4.2893910">
        <ele>536.6</ele>
        <time>2019-08-13T10:01:25Z</time>
      </trkpt>
      <trkpt lat="40.0601140" lon="-4.2894540">
        <ele>536.6</ele>
        <time>2019-08-13T10:01:26Z</time>
      </trkpt>
      <trkpt lat="40.0601340" lon="-4.2895200">
        <ele>536.6</ele>
        <time>2019-08-13T10:01:27Z</time>
      </trkpt>
      <trkpt lat="40.0601520" lon="-4.2895900">
        <ele>536.6</ele>
        <time>2019-08-13T10:01:28Z</time>
      </trkpt>
      <trkpt lat="40.0601700" lon="-4.2896620">
        <ele>536.6</ele>
        <time>2019-08-13T10:01:29Z</time>
      </trkpt>
      <trkpt lat="40.0601850" lon="-4.2897350">
        <ele>536.6</ele>
        <time>2019-08-13T10:01:30Z</time>
      </trkpt>
      <trkpt lat="40.0602000" lon="-4.2898060">
        <ele>536.6</ele>
        <time>2019-08-13T10:01:31Z</time>
      </trkpt>
      <trkpt lat="40.0602150" lon="-4.2898760">
        <ele>536.6</ele>
        <time>2019-08-13T10:01:32Z</time>
      </trkpt>
      <trkpt lat="40.0602300" lon="-4.2899440">
        <ele>536.6</ele>
        <time>2019-08-13T10:01:33Z</time>
      </trkpt>
      <trkpt lat="40.0602460" lon="-4.2900120">
        <ele>536.6</ele>
        <time>2019-08-13T10:01:34Z</time>
      </trkpt>
      <trkpt lat="40.0602600" lon="-4.2900780">
        <ele>536.6</ele>
        <time>2019-08-13T10:01:35Z</time>
      </trkpt>
      <trkpt lat="40.0602740" lon="-4.2901430">
        <ele>536.6</ele>
        <time>2019-08-13T10:01:36Z</time>
      </trkpt>
      <trkpt lat="40.0602870" lon="-4.2902060">
        <ele>536.6</ele>
        <time>2019-08-13T10:01:37Z</time>
      </trkpt>
      <trkpt lat="40.0602990" lon="-4.2902690">
        <ele>536.6</ele>
        <time>2019-08-13T10:01:38Z</time>
      </trkpt>
      <trkpt lat="40.0603110" lon="-4.2903310">
        <ele>536.6</ele>
        <time>2019-08-13T10:01:39Z</time>
      </trkpt>
      <trkpt lat="40.0603210" lon="-4.2903900">
        <ele>536.7</ele>
        <time>2019-08-13T10:01:40Z</time>
      </trkpt>
      <trkpt lat="40.0603310" lon="-4.2904440">
        <ele>536.7</ele>
        <time>2019-08-13T10:01:41Z</time>
      </trkpt>
      <trkpt lat="40.0603400" lon="-4.2904950">
        <ele>536.8</ele>
        <time>2019-08-13T10:01:42Z</time>
      </trkpt>
      <trkpt lat="40.0603480" lon="-4.2905430">
        <ele>536.8</ele>
        <time>2019-08-13T10:01:43Z</time>
      </trkpt>
      <trkpt lat="40.0603550" lon="-4.2905890">
        <ele>536.9</ele>
        <time>2019-08-13T10:01:44Z</time>
      </trkpt>
      <trkpt lat="40.0603600" lon="-4.2906330">
        <ele>537.0</ele>
        <time>2019-08-13T10:01:45Z</time>
      </trkpt>
      <trkpt lat="40.0603670" lon="-4.2906740">
        <ele>537.0</ele>
        <time>2019-08-13T10:01:46Z</time>
      </trkpt>
      <trkpt lat="40.0603720" lon="-4.2907150">
        <ele>537.1</ele>
        <time>2019-08-13T10:01:47Z</time>
      </trkpt>
      <trkpt lat="40.0603780" lon="-4.2907520">
        <ele>537.3</ele>
        <time>2019-08-13T10:01:48Z</time>
      </trkpt>
      <trkpt lat="40.0603850" lon="-4.2907870">
        <ele>537.4</ele>
        <time>2019-08-13T10:01:49Z</time>
      </trkpt>
      <trkpt lat="40.0603910" lon="-4.2908230">
        <ele>537.6</ele>
        <time>2019-08-13T10:01:50Z</time>
      </trkpt>
      <trkpt lat="40.0603970" lon="-4.2908580">
        <ele>537.7</ele>
        <time>2019-08-13T10:01:51Z</time>
      </trkpt>
      <trkpt lat="40.0604020" lon="-4.2908930">
        <ele>537.8</ele>
        <time>2019-08-13T10:01:52Z</time>
      </trkpt>
      <trkpt lat="40.0604090" lon="-4.2909280">
        <ele>538.0</ele>
        <time>2019-08-13T10:01:53Z</time>
      </trkpt>
      <trkpt lat="40.0604150" lon="-4.2909620">
        <ele>538.1</ele>
        <time>2019-08-13T10:01:54Z</time>
      </trkpt>
      <trkpt lat="40.0604210" lon="-4.2909970">
        <ele>538.3</ele>
        <time>2019-08-13T10:01:55Z</time>
      </trkpt>
      <trkpt lat="40.0604350" lon="-4.2910640">
        <ele>538.7</ele>
        <time>2019-08-13T10:01:57Z</time>
      </trkpt>
      <trkpt lat="40.0604420" lon="-4.2910980">
        <ele>538.8</ele>
        <time>2019-08-13T10:01:58Z</time>
      </trkpt>
      <trkpt lat="40.0604500" lon="-4.2911320">
        <ele>538.9</ele>
        <time>2019-08-13T10:01:59Z</time>
      </trkpt>
      <trkpt lat="40.0604590" lon="-4.2911660">
        <ele>539.0</ele>
        <time>2019-08-13T10:02:00Z</time>
      </trkpt>
      <trkpt lat="40.0604680" lon="-4.2912010">
        <ele>539.2</ele>
        <time>2019-08-13T10:02:01Z</time>
      </trkpt>
      <trkpt lat="40.0604780" lon="-4.2912360">
        <ele>539.3</ele>
        <time>2019-08-13T10:02:02Z</time>
      </trkpt>
      <trkpt lat="40.0604880" lon="-4.2912700">
        <ele>539.5</ele>
        <time>2019-08-13T10:02:03Z</time>
      </trkpt>
      <trkpt lat="40.0604980" lon="-4.2913040">
        <ele>539.7</ele>
        <time>2019-08-13T10:02:04Z</time>
      </trkpt>
      <trkpt lat="40.0605100" lon="-4.2913380">
        <ele>539.8</ele>
        <time>2019-08-13T10:02:05Z</time>
      </trkpt>
      <trkpt lat="40.0605220" lon="-4.2913710">
        <ele>539.9</ele>
        <time>2019-08-13T10:02:06Z</time>
      </trkpt>
      <trkpt lat="40.0605350" lon="-4.2914050">
        <ele>540.0</ele>
        <time>2019-08-13T10:02:07Z</time>
      </trkpt>
      <trkpt lat="40.0605460" lon="-4.2914380">
        <ele>540.1</ele>
        <time>2019-08-13T10:02:08Z</time>
      </trkpt>
      <trkpt lat="40.0605580" lon="-4.2914720">
        <ele>540.2</ele>
        <time>2019-08-13T10:02:09Z</time>
      </trkpt>
      <trkpt lat="40.0605700" lon="-4.2915040">
        <ele>540.3</ele>
        <time>2019-08-13T10:02:10Z</time>
      </trkpt>
      <trkpt lat="40.0605830" lon="-4.2915370">
        <ele>540.4</ele>
        <time>2019-08-13T10:02:11Z</time>
      </trkpt>
      <trkpt lat="40.0605970" lon="-4.2915700">
        <ele>540.5</ele>
        <time>2019-08-13T10:02:12Z</time>
      </trkpt>
      <trkpt lat="40.0606120" lon="-4.2916050">
        <ele>540.6</ele>
        <time>2019-08-13T10:02:13Z</time>
      </trkpt>
      <trkpt lat="40.0606280" lon="-4.2916410">
        <ele>540.8</ele>
        <time>2019-08-13T10:02:14Z</time>
      </trkpt>
      <trkpt lat="40.0606440" lon="-4.2916780">
        <ele>540.9</ele>
        <time>2019-08-13T10:02:15Z</time>
      </trkpt>
      <trkpt lat="40.0606610" lon="-4.2917130">
        <ele>541.1</ele>
        <time>2019-08-13T10:02:16Z</time>
      </trkpt>
      <trkpt lat="40.0606780" lon="-4.2917500">
        <ele>541.2</ele>
        <time>2019-08-13T10:02:17Z</time>
      </trkpt>
      <trkpt lat="40.0606970" lon="-4.2917870">
        <ele>541.3</ele>
        <time>2019-08-13T10:02:18Z</time>
      </trkpt>
      <trkpt lat="40.0607150" lon="-4.2918270">
        <ele>541.3</ele>
        <time>2019-08-13T10:02:19Z</time>
      </trkpt>
      <trkpt lat="40.0607350" lon="-4.2918670">
        <ele>541.4</ele>
        <time>2019-08-13T10:02:20Z</time>
      </trkpt>
      <trkpt lat="40.0607570" lon="-4.2919110">
        <ele>541.4</ele>
        <time>2019-08-13T10:02:21Z</time>
      </trkpt>
      <trkpt lat="40.0607800" lon="-4.2919580">
        <ele>541.5</ele>
        <time>2019-08-13T10:02:22Z</time>
      </trkpt>
      <trkpt lat="40.0608040" lon="-4.2920080">
        <ele>541.5</ele>
        <time>2019-08-13T10:02:23Z</time>
      </trkpt>
      <trkpt lat="40.0608290" lon="-4.2920590">
        <ele>541.5</ele>
        <time>2019-08-13T10:02:24Z</time>
      </trkpt>
      <trkpt lat="40.0608550" lon="-4.2921120">
        <ele>541.5</ele>
        <time>2019-08-13T10:02:25Z</time>
      </trkpt>
      <trkpt lat="40.0608820" lon="-4.2921640">
        <ele>541.4</ele>
        <time>2019-08-13T10:02:26Z</time>
      </trkpt>
      <trkpt lat="40.0609100" lon="-4.2922190">
        <ele>541.4</ele>
        <time>2019-08-13T10:02:27Z</time>
      </trkpt>
      <trkpt lat="40.0609380" lon="-4.2922770">
        <ele>541.3</ele>
        <time>2019-08-13T10:02:28Z</time>
      </trkpt>
      <trkpt lat="40.0609660" lon="-4.2923340">
        <ele>541.2</ele>
        <time>2019-08-13T10:02:29Z</time>
      </trkpt>
      <trkpt lat="40.0609950" lon="-4.2923930">
        <ele>541.1</ele>
        <time>2019-08-13T10:02:30Z</time>
      </trkpt>
      <trkpt lat="40.0610250" lon="-4.2924540">
        <ele>541.0</ele>
        <time>2019-08-13T10:02:31Z</time>
      </trkpt>
      <trkpt lat="40.0610560" lon="-4.2925170">
        <ele>540.8</ele>
        <time>2019-08-13T10:02:32Z</time>
      </trkpt>
      <trkpt lat="40.0610890" lon="-4.2925820">
        <ele>540.6</ele>
        <time>2019-08-13T10:02:33Z</time>
      </trkpt>
      <trkpt lat="40.0611210" lon="-4.2926490">
        <ele>540.5</ele>
        <time>2019-08-13T10:02:34Z</time>
      </trkpt>
      <trkpt lat="40.0611530" lon="-4.2927170">
        <ele>540.3</ele>
        <time>2019-08-13T10:02:35Z</time>
      </trkpt>
      <trkpt lat="40.0611860" lon="-4.2927870">
        <ele>540.1</ele>
        <time>2019-08-13T10:02:36Z</time>
      </trkpt>
      <trkpt lat="40.0612220" lon="-4.2928590">
        <ele>540.0</ele>
        <time>2019-08-13T10:02:37Z</time>
      </trkpt>
      <trkpt lat="40.0612570" lon="-4.2929330">
        <ele>539.7</ele>
        <time>2019-08-13T10:02:38Z</time>
      </trkpt>
      <trkpt lat="40.0612950" lon="-4.2930090">
        <ele>539.4</ele>
        <time>2019-08-13T10:02:39Z</time>
      </trkpt>
      <trkpt lat="40.0613320" lon="-4.2930870">
        <ele>539.1</ele>
        <time>2019-08-13T10:02:40Z</time>
      </trkpt>
      <trkpt lat="40.0613700" lon="-4.2931660">
        <ele>538.9</ele>
        <time>2019-08-13T10:02:41Z</time>
      </trkpt>
      <trkpt lat="40.0614090" lon="-4.2932440">
        <ele>538.5</ele>
        <time>2019-08-13T10:02:42Z</time>
      </trkpt>
      <trkpt lat="40.0614480" lon="-4.2933240">
        <ele>538.2</ele>
        <time>2019-08-13T10:02:43Z</time>
      </trkpt>
      <trkpt lat="40.0614870" lon="-4.2934050">
        <ele>537.8</ele>
        <time>2019-08-13T10:02:44Z</time>
      </trkpt>
      <trkpt lat="40.0615260" lon="-4.2934870">
        <ele>537.5</ele>
        <time>2019-08-13T10:02:45Z</time>
      </trkpt>
      <trkpt lat="40.0615660" lon="-4.2935720">
        <ele>537.1</ele>
        <time>2019-08-13T10:02:46Z</time>
      </trkpt>
      <trkpt lat="40.0616050" lon="-4.2936580">
        <ele>536.7</ele>
        <time>2019-08-13T10:02:47Z</time>
      </trkpt>
      <trkpt lat="40.0616470" lon="-4.2937470">
        <ele>536.3</ele>
        <time>2019-08-13T10:02:48Z</time>
      </trkpt>
      <trkpt lat="40.0616880" lon="-4.2938370">
        <ele>535.8</ele>
        <time>2019-08-13T10:02:49Z</time>
      </trkpt>
      <trkpt lat="40.0617320" lon="-4.2939260">
        <ele>535.4</ele>
        <time>2019-08-13T10:02:50Z</time>
      </trkpt>
      <trkpt lat="40.0617740" lon="-4.2940160">
        <ele>535.0</ele>
        <time>2019-08-13T10:02:51Z</time>
      </trkpt>
      <trkpt lat="40.0618160" lon="-4.2941070">
        <ele>534.6</ele>
        <time>2019-08-13T10:02:52Z</time>
      </trkpt>
      <trkpt lat="40.0618560" lon="-4.2941990">
        <ele>534.2</ele>
        <time>2019-08-13T10:02:53Z</time>
      </trkpt>
      <trkpt lat="40.0618920" lon="-4.2942930">
        <ele>533.9</ele>
        <time>2019-08-13T10:02:54Z</time>
      </trkpt>
      <trkpt lat="40.0619230" lon="-4.2943900">
        <ele>533.6</ele>
        <time>2019-08-13T10:02:55Z</time>
      </trkpt>
      <trkpt lat="40.0619510" lon="-4.2944900">
        <ele>533.3</ele>
        <time>2019-08-13T10:02:56Z</time>
      </trkpt>
      <trkpt lat="40.0619710" lon="-4.2945910">
        <ele>532.9</ele>
        <time>2019-08-13T10:02:57Z</time>
      </trkpt>
      <trkpt lat="40.0619880" lon="-4.2946960">
        <ele>532.6</ele>
        <time>2019-08-13T10:02:58Z</time>
      </trkpt>
      <trkpt lat="40.0620020" lon="-4.2948040">
        <ele>532.3</ele>
        <time>2019-08-13T10:02:59Z</time>
      </trkpt>
      <trkpt lat="40.0620090" lon="-4.2949120">
        <ele>531.9</ele>
        <time>2019-08-13T10:03:00Z</time>
      </trkpt>
      <trkpt lat="40.0620120" lon="-4.2950200">
        <ele>531.6</ele>
        <time>2019-08-13T10:03:01Z</time>
      </trkpt>
      <trkpt lat="40.0620110" lon="-4.2951260">
        <ele>531.3</ele>
        <time>2019-08-13T10:03:02Z</time>
      </trkpt>
      <trkpt lat="40.0620070" lon="-4.2952300">
        <ele>531.0</ele>
        <time>2019-08-13T10:03:03Z</time>
      </trkpt>
      <trkpt lat="40.0620010" lon="-4.2953340">
        <ele>530.5</ele>
        <time>2019-08-13T10:03:04Z</time>
      </trkpt>
      <trkpt lat="40.0619910" lon="-4.2954380">
        <ele>530.2</ele>
        <time>2019-08-13T10:03:05Z</time>
      </trkpt>
      <trkpt lat="40.0619800" lon="-4.2955450">
        <ele>529.9</ele>
        <time>2019-08-13T10:03:06Z</time>
      </trkpt>
      <trkpt lat="40.0619700" lon="-4.2956530">
        <ele>529.5</ele>
        <time>2019-08-13T10:03:07Z</time>
      </trkpt>
      <trkpt lat="40.0619650" lon="-4.2957620">
        <ele>529.1</ele>
        <time>2019-08-13T10:03:08Z</time>
      </trkpt>
      <trkpt lat="40.0619710" lon="-4.2958740">
        <ele>528.7</ele>
        <time>2019-08-13T10:03:09Z</time>
      </trkpt>
      <trkpt lat="40.0619920" lon="-4.2959830">
        <ele>528.3</ele>
        <time>2019-08-13T10:03:10Z</time>
      </trkpt>
      <trkpt lat="40.0620270" lon="-4.2960900">
        <ele>527.7</ele>
        <time>2019-08-13T10:03:11Z</time>
      </trkpt>
      <trkpt lat="40.0620730" lon="-4.2961940">
        <ele>527.2</ele>
        <time>2019-08-13T10:03:12Z</time>
      </trkpt>
      <trkpt lat="40.0621250" lon="-4.2962940">
        <ele>526.7</ele>
        <time>2019-08-13T10:03:13Z</time>
      </trkpt>
      <trkpt lat="40.0621840" lon="-4.2963880">
        <ele>526.3</ele>
        <time>2019-08-13T10:03:14Z</time>
      </trkpt>
      <trkpt lat="40.0622480" lon="-4.2964770">
        <ele>525.8</ele>
        <time>2019-08-13T10:03:15Z</time>
      </trkpt>
      <trkpt lat="40.0623140" lon="-4.2965650">
        <ele>525.4</ele>
        <time>2019-08-13T10:03:16Z</time>
      </trkpt>
      <trkpt lat="40.0623800" lon="-4.2966530">
        <ele>525.0</ele>
        <time>2019-08-13T10:03:17Z</time>
      </trkpt>
      <trkpt lat="40.0624450" lon="-4.2967390">
        <ele>524.7</ele>
        <time>2019-08-13T10:03:18Z</time>
      </trkpt>
      <trkpt lat="40.0625090" lon="-4.2968230">
        <ele>524.4</ele>
        <time>2019-08-13T10:03:19Z</time>
      </trkpt>
      <trkpt lat="40.0625740" lon="-4.2969040">
        <ele>524.1</ele>
        <time>2019-08-13T10:03:20Z</time>
      </trkpt>
      <trkpt lat="40.0626400" lon="-4.2969850">
        <ele>523.8</ele>
        <time>2019-08-13T10:03:21Z</time>
      </trkpt>
      <trkpt lat="40.0627090" lon="-4.2970630">
        <ele>523.4</ele>
        <time>2019-08-13T10:03:22Z</time>
      </trkpt>
      <trkpt lat="40.0627800" lon="-4.2971380">
        <ele>523.1</ele>
        <time>2019-08-13T10:03:23Z</time>
      </trkpt>
      <trkpt lat="40.0628520" lon="-4.2972070">
        <ele>522.8</ele>
        <time>2019-08-13T10:03:24Z</time>
      </trkpt>
      <trkpt lat="40.0629280" lon="-4.2972690">
        <ele>522.4</ele>
        <time>2019-08-13T10:03:25Z</time>
      </trkpt>
      <trkpt lat="40.0630060" lon="-4.2973220">
        <ele>522.1</ele>
        <time>2019-08-13T10:03:26Z</time>
      </trkpt>
      <trkpt lat="40.0630880" lon="-4.2973700">
        <ele>521.8</ele>
        <time>2019-08-13T10:03:27Z</time>
      </trkpt>
      <trkpt lat="40.0631690" lon="-4.2974160">
        <ele>521.5</ele>
        <time>2019-08-13T10:03:28Z</time>
      </trkpt>
      <trkpt lat="40.0632500" lon="-4.2974600">
        <ele>521.2</ele>
        <time>2019-08-13T10:03:29Z</time>
      </trkpt>
      <trkpt lat="40.0633310" lon="-4.2974990">
        <ele>520.9</ele>
        <time>2019-08-13T10:03:30Z</time>
      </trkpt>
      <trkpt lat="40.0634150" lon="-4.2975380">
        <ele>520.6</ele>
        <time>2019-08-13T10:03:31Z</time>
      </trkpt>
      <trkpt lat="40.0635000" lon="-4.2975770">
        <ele>520.3</ele>
        <time>2019-08-13T10:03:32Z</time>
      </trkpt>
      <trkpt lat="40.0635830" lon="-4.2976180">
        <ele>520.0</ele>
        <time>2019-08-13T10:03:33Z</time>
      </trkpt>
      <trkpt lat="40.0636670" lon="-4.2976600">
        <ele>519.7</ele>
        <time>2019-08-13T10:03:34Z</time>
      </trkpt>
      <trkpt lat="40.0637500" lon="-4.2977030">
        <ele>519.3</ele>
        <time>2019-08-13T10:03:35Z</time>
      </trkpt>
      <trkpt lat="40.0638300" lon="-4.2977480">
        <ele>519.0</ele>
        <time>2019-08-13T10:03:36Z</time>
      </trkpt>
      <trkpt lat="40.0639080" lon="-4.2977960">
        <ele>518.8</ele>
        <time>2019-08-13T10:03:37Z</time>
      </trkpt>
      <trkpt lat="40.0639830" lon="-4.2978460">
        <ele>518.5</ele>
        <time>2019-08-13T10:03:38Z</time>
      </trkpt>
      <trkpt lat="40.0640560" lon="-4.2978950">
        <ele>518.2</ele>
        <time>2019-08-13T10:03:39Z</time>
      </trkpt>
      <trkpt lat="40.0641260" lon="-4.2979450">
        <ele>517.9</ele>
        <time>2019-08-13T10:03:40Z</time>
      </trkpt>
      <trkpt lat="40.0641950" lon="-4.2979980">
        <ele>517.5</ele>
        <time>2019-08-13T10:03:41Z</time>
      </trkpt>
      <trkpt lat="40.0642620" lon="-4.2980520">
        <ele>516.9</ele>
        <time>2019-08-13T10:03:42Z</time>
      </trkpt>
      <trkpt lat="40.0643280" lon="-4.2981050">
        <ele>516.4</ele>
        <time>2019-08-13T10:03:43Z</time>
      </trkpt>
      <trkpt lat="40.0643940" lon="-4.2981570">
        <ele>515.8</ele>
        <time>2019-08-13T10:03:44Z</time>
      </trkpt>
      <trkpt lat="40.0644620" lon="-4.2982060">
        <ele>515.5</ele>
        <time>2019-08-13T10:03:45Z</time>
      </trkpt>
      <trkpt lat="40.0645290" lon="-4.2982520">
        <ele>515.3</ele>
        <time>2019-08-13T10:03:46Z</time>
      </trkpt>
      <trkpt lat="40.0645970" lon="-4.2982990">
        <ele>515.0</ele>
        <time>2019-08-13T10:03:47Z</time>
      </trkpt>
      <trkpt lat="40.0646620" lon="-4.2983480">
        <ele>514.8</ele>
        <time>2019-08-13T10:03:48Z</time>
      </trkpt>
      <trkpt lat="40.0647260" lon="-4.2983970">
        <ele>514.5</ele>
        <time>2019-08-13T10:03:49Z</time>
      </trkpt>
      <trkpt lat="40.0647900" lon="-4.2984480">
        <ele>514.4</ele>
        <time>2019-08-13T10:03:50Z</time>
      </trkpt>
      <trkpt lat="40.0648550" lon="-4.2985030">
        <ele>514.2</ele>
        <time>2019-08-13T10:03:51Z</time>
      </trkpt>
      <trkpt lat="40.0649190" lon="-4.2985600">
        <ele>514.1</ele>
        <time>2019-08-13T10:03:52Z</time>
      </trkpt>
      <trkpt lat="40.0649820" lon="-4.2986180">
        <ele>513.9</ele>
        <time>2019-08-13T10:03:53Z</time>
      </trkpt>
      <trkpt lat="40.0650460" lon="-4.2986730">
        <ele>513.8</ele>
        <time>2019-08-13T10:03:54Z</time>
      </trkpt>
      <trkpt lat="40.0651080" lon="-4.2987260">
        <ele>513.7</ele>
        <time>2019-08-13T10:03:55Z</time>
      </trkpt>
      <trkpt lat="40.0651710" lon="-4.2987780">
        <ele>513.6</ele>
        <time>2019-08-13T10:03:56Z</time>
      </trkpt>
      <trkpt lat="40.0652340" lon="-4.2988280">
        <ele>513.4</ele>
        <time>2019-08-13T10:03:57Z</time>
      </trkpt>
      <trkpt lat="40.0652940" lon="-4.2988820">
        <ele>513.4</ele>
        <time>2019-08-13T10:03:58Z</time>
      </trkpt>
      <trkpt lat="40.0653530" lon="-4.2989330">
        <ele>513.3</ele>
        <time>2019-08-13T10:03:59Z</time>
      </trkpt>
      <trkpt lat="40.0654140" lon="-4.2989820">
        <ele>513.3</ele>
        <time>2019-08-13T10:04:00Z</time>
      </trkpt>
      <trkpt lat="40.0654730" lon="-4.2990310">
        <ele>513.2</ele>
        <time>2019-08-13T10:04:01Z</time>
      </trkpt>
      <trkpt lat="40.0655300" lon="-4.2990800">
        <ele>513.2</ele>
        <time>2019-08-13T10:04:02Z</time>
      </trkpt>
      <trkpt lat="40.0655850" lon="-4.2991290">
        <ele>513.2</ele>
        <time>2019-08-13T10:04:03Z</time>
      </trkpt>
      <trkpt lat="40.0656390" lon="-4.2991750">
        <ele>513.2</ele>
        <time>2019-08-13T10:04:04Z</time>
      </trkpt>
      <trkpt lat="40.0656930" lon="-4.2992170">
        <ele>513.1</ele>
        <time>2019-08-13T10:04:05Z</time>
      </trkpt>
      <trkpt lat="40.0657470" lon="-4.2992550">
        <ele>513.1</ele>
        <time>2019-08-13T10:04:06Z</time>
      </trkpt>
      <trkpt lat="40.0657990" lon="-4.2992890">
        <ele>513.3</ele>
        <time>2019-08-13T10:04:07Z</time>
      </trkpt>
      <trkpt lat="40.0658490" lon="-4.2993200">
        <ele>513.4</ele>
        <time>2019-08-13T10:04:08Z</time>
      </trkpt>
      <trkpt lat="40.0658970" lon="-4.2993500">
        <ele>513.5</ele>
        <time>2019-08-13T10:04:09Z</time>
      </trkpt>
      <trkpt lat="40.0659410" lon="-4.2993830">
        <ele>513.6</ele>
        <time>2019-08-13T10:04:10Z</time>
      </trkpt>
      <trkpt lat="40.0659860" lon="-4.2994220">
        <ele>513.8</ele>
        <time>2019-08-13T10:04:11Z</time>
      </trkpt>
      <trkpt lat="40.0660260" lon="-4.2994680">
        <ele>513.8</ele>
        <time>2019-08-13T10:04:12Z</time>
      </trkpt>
      <trkpt lat="40.0660630" lon="-4.2995180">
        <ele>513.9</ele>
        <time>2019-08-13T10:04:13Z</time>
      </trkpt>
      <trkpt lat="40.0661000" lon="-4.2995660">
        <ele>514.0</ele>
        <time>2019-08-13T10:04:14Z</time>
      </trkpt>
      <trkpt lat="40.0661360" lon="-4.2996150">
        <ele>514.1</ele>
        <time>2019-08-13T10:04:15Z</time>
      </trkpt>
      <trkpt lat="40.0661750" lon="-4.2996620">
        <ele>514.2</ele>
        <time>2019-08-13T10:04:16Z</time>
      </trkpt>
      <trkpt lat="40.0662150" lon="-4.2997060">
        <ele>514.3</ele>
        <time>2019-08-13T10:04:17Z</time>
      </trkpt>
      <trkpt lat="40.0662590" lon="-4.2997460">
        <ele>514.3</ele>
        <time>2019-08-13T10:04:18Z</time>
      </trkpt>
      <trkpt lat="40.0663060" lon="-4.2997800">
        <ele>514.4</ele>
        <time>2019-08-13T10:04:19Z</time>
      </trkpt>
      <trkpt lat="40.0663540" lon="-4.2998070">
        <ele>514.5</ele>
        <time>2019-08-13T10:04:20Z</time>
      </trkpt>
      <trkpt lat="40.0664000" lon="-4.2998270">
        <ele>514.6</ele>
        <time>2019-08-13T10:04:21Z</time>
      </trkpt>
      <trkpt lat="40.0664460" lon="-4.2998400">
        <ele>514.6</ele>
        <time>2019-08-13T10:04:22Z</time>
      </trkpt>
      <trkpt lat="40.0664910" lon="-4.2998490">
        <ele>514.7</ele>
        <time>2019-08-13T10:04:23Z</time>
      </trkpt>
      <trkpt lat="40.0665380" lon="-4.2998570">
        <ele>514.8</ele>
        <time>2019-08-13T10:04:24Z</time>
      </trkpt>
      <trkpt lat="40.0665870" lon="-4.2998640">
        <ele>514.8</ele>
        <time>2019-08-13T10:04:25Z</time>
      </trkpt>
      <trkpt lat="40.0666380" lon="-4.2998700">
        <ele>514.9</ele>
        <time>2019-08-13T10:04:26Z</time>
      </trkpt>
      <trkpt lat="40.0666900" lon="-4.2998770">
        <ele>514.9</ele>
        <time>2019-08-13T10:04:27Z</time>
      </trkpt>
      <trkpt lat="40.0667420" lon="-4.2998860">
        <ele>515.0</ele>
        <time>2019-08-13T10:04:28Z</time>
      </trkpt>
      <trkpt lat="40.0667930" lon="-4.2998960">
        <ele>515.0</ele>
        <time>2019-08-13T10:04:29Z</time>
      </trkpt>
      <trkpt lat="40.0668460" lon="-4.2999060">
        <ele>515.1</ele>
        <time>2019-08-13T10:04:30Z</time>
      </trkpt>
      <trkpt lat="40.0668980" lon="-4.2999180">
        <ele>515.2</ele>
        <time>2019-08-13T10:04:31Z</time>
      </trkpt>
      <trkpt lat="40.0669490" lon="-4.2999300">
        <ele>515.2</ele>
        <time>2019-08-13T10:04:32Z</time>
      </trkpt>
      <trkpt lat="40.0670000" lon="-4.2999430">
        <ele>515.3</ele>
        <time>2019-08-13T10:04:33Z</time>
      </trkpt>
      <trkpt lat="40.0670520" lon="-4.2999550">
        <ele>515.3</ele>
        <time>2019-08-13T10:04:34Z</time>
      </trkpt>
      <trkpt lat="40.0671040" lon="-4.2999670">
        <ele>515.4</ele>
        <time>2019-08-13T10:04:35Z</time>
      </trkpt>
      <trkpt lat="40.0671560" lon="-4.2999790">
        <ele>515.5</ele>
        <time>2019-08-13T10:04:36Z</time>
      </trkpt>
      <trkpt lat="40.0672090" lon="-4.2999920">
        <ele>515.6</ele>
        <time>2019-08-13T10:04:37Z</time>
      </trkpt>
      <trkpt lat="40.0672600" lon="-4.3000030">
        <ele>515.8</ele>
        <time>2019-08-13T10:04:38Z</time>
      </trkpt>
      <trkpt lat="40.0673100" lon="-4.3000150">
        <ele>515.9</ele>
        <time>2019-08-13T10:04:39Z</time>
      </trkpt>
      <trkpt lat="40.0673610" lon="-4.3000280">
        <ele>516.1</ele>
        <time>2019-08-13T10:04:40Z</time>
      </trkpt>
      <trkpt lat="40.0674120" lon="-4.3000410">
        <ele>516.3</ele>
        <time>2019-08-13T10:04:41Z</time>
      </trkpt>
      <trkpt lat="40.0674650" lon="-4.3000530">
        <ele>516.5</ele>
        <time>2019-08-13T10:04:42Z</time>
      </trkpt>
      <trkpt lat="40.0675160" lon="-4.3000660">
        <ele>516.6</ele>
        <time>2019-08-13T10:04:43Z</time>
      </trkpt>
      <trkpt lat="40.0675660" lon="-4.3000770">
        <ele>516.7</ele>
        <time>2019-08-13T10:04:44Z</time>
      </trkpt>
      <trkpt lat="40.0676150" lon="-4.3000840">
        <ele>516.8</ele>
        <time>2019-08-13T10:04:45Z</time>
      </trkpt>
      <trkpt lat="40.0676620" lon="-4.3000880">
        <ele>516.9</ele>
        <time>2019-08-13T10:04:46Z</time>
      </trkpt>
      <trkpt lat="40.0677070" lon="-4.3000900">
        <ele>517.0</ele>
        <time>2019-08-13T10:04:47Z</time>
      </trkpt>
      <trkpt lat="40.0677490" lon="-4.3000920">
        <ele>517.0</ele>
        <time>2019-08-13T10:04:48Z</time>
      </trkpt>
      <trkpt lat="40.0677890" lon="-4.3000900">
        <ele>517.1</ele>
        <time>2019-08-13T10:04:49Z</time>
      </trkpt>
      <trkpt lat="40.0678260" lon="-4.3000800">
        <ele>517.1</ele>
        <time>2019-08-13T10:04:50Z</time>
      </trkpt>
      <trkpt lat="40.0678620" lon="-4.3000630">
        <ele>517.1</ele>
        <time>2019-08-13T10:04:51Z</time>
      </trkpt>
      <trkpt lat="40.0678980" lon="-4.3000390">
        <ele>517.2</ele>
        <time>2019-08-13T10:04:52Z</time>
      </trkpt>
      <trkpt lat="40.0679350" lon="-4.3000140">
        <ele>517.2</ele>
        <time>2019-08-13T10:04:53Z</time>
      </trkpt>
      <trkpt lat="40.0679720" lon="-4.2999900">
        <ele>517.2</ele>
        <time>2019-08-13T10:04:54Z</time>
      </trkpt>
      <trkpt lat="40.0680080" lon="-4.2999660">
        <ele>517.3</ele>
        <time>2019-08-13T10:04:55Z</time>
      </trkpt>
      <trkpt lat="40.0680460" lon="-4.2999440">
        <ele>517.3</ele>
        <time>2019-08-13T10:04:56Z</time>
      </trkpt>
      <trkpt lat="40.0680820" lon="-4.2999230">
        <ele>517.3</ele>
        <time>2019-08-13T10:04:57Z</time>
      </trkpt>
      <trkpt lat="40.0681190" lon="-4.2999020">
        <ele>517.4</ele>
        <time>2019-08-13T10:04:58Z</time>
      </trkpt>
      <trkpt lat="40.0681550" lon="-4.2998830">
        <ele>517.4</ele>
        <time>2019-08-13T10:04:59Z</time>
      </trkpt>
      <trkpt lat="40.0681920" lon="-4.2998650">
        <ele>517.4</ele>
        <time>2019-08-13T10:05:00Z</time>
      </trkpt>
      <trkpt lat="40.0682310" lon="-4.2998460">
        <ele>517.4</ele>
        <time>2019-08-13T10:05:01Z</time>
      </trkpt>
      <trkpt lat="40.0682720" lon="-4.2998260">
        <ele>517.5</ele>
        <time>2019-08-13T10:05:02Z</time>
      </trkpt>
      <trkpt lat="40.0683140" lon="-4.2998070">
        <ele>517.5</ele>
        <time>2019-08-13T10:05:03Z</time>
      </trkpt>
      <trkpt lat="40.0683560" lon="-4.2997900">
        <ele>517.5</ele>
        <time>2019-08-13T10:05:04Z</time>
      </trkpt>
      <trkpt lat="40.0684000" lon="-4.2997740">
        <ele>517.5</ele>
        <time>2019-08-13T10:05:05Z</time>
      </trkpt>
      <trkpt lat="40.0684420" lon="-4.2997610">
        <ele>517.5</ele>
        <time>2019-08-13T10:05:06Z</time>
      </trkpt>
      <trkpt lat="40.0684840" lon="-4.2997530">
        <ele>517.5</ele>
        <time>2019-08-13T10:05:07Z</time>
      </trkpt>
      <trkpt lat="40.0685260" lon="-4.2997480">
        <ele>517.5</ele>
        <time>2019-08-13T10:05:08Z</time>
      </trkpt>
      <trkpt lat="40.0685640" lon="-4.2997490">
        <ele>517.6</ele>
        <time>2019-08-13T10:05:09Z</time>
      </trkpt>
      <trkpt lat="40.0685990" lon="-4.2997550">
        <ele>517.6</ele>
        <time>2019-08-13T10:05:10Z</time>
      </trkpt>
      <trkpt lat="40.0686280" lon="-4.2997720">
        <ele>517.7</ele>
        <time>2019-08-13T10:05:11Z</time>
      </trkpt>
      <trkpt lat="40.0686490" lon="-4.2997990">
        <ele>517.8</ele>
        <time>2019-08-13T10:05:12Z</time>
      </trkpt>
      <trkpt lat="40.0686620" lon="-4.2998340">
        <ele>517.5</ele>
        <time>2019-08-13T10:05:13Z</time>
      </trkpt>
      <trkpt lat="40.0686720" lon="-4.2998760">
        <ele>517.4</ele>
        <time>2019-08-13T10:05:14Z</time>
      </trkpt>
      <trkpt lat="40.0686800" lon="-4.2999230">
        <ele>517.3</ele>
        <time>2019-08-13T10:05:15Z</time>
      </trkpt>
      <trkpt lat="40.0686870" lon="-4.2999720">
        <ele>517.2</ele>
        <time>2019-08-13T10:05:16Z</time>
      </trkpt>
      <trkpt lat="40.0686920" lon="-4.3000200">
        <ele>517.2</ele>
        <time>2019-08-13T10:05:17Z</time>
      </trkpt>
      <trkpt lat="40.0686950" lon="-4.3000690">
        <ele>517.2</ele>
        <time>2019-08-13T10:05:18Z</time>
      </trkpt>
      <trkpt lat="40.0686940" lon="-4.3001200">
        <ele>517.1</ele>
        <time>2019-08-13T10:05:19Z</time>
      </trkpt>
      <trkpt lat="40.0686860" lon="-4.3001700">
        <ele>517.1</ele>
        <time>2019-08-13T10:05:20Z</time>
      </trkpt>
      <trkpt lat="40.0686760" lon="-4.3002180">
        <ele>517.2</ele>
        <time>2019-08-13T10:05:21Z</time>
      </trkpt>
      <trkpt lat="40.0686710" lon="-4.3002670">
        <ele>517.2</ele>
        <time>2019-08-13T10:05:22Z</time>
      </trkpt>
      <trkpt lat="40.0686670" lon="-4.3003160">
        <ele>517.3</ele>
        <time>2019-08-13T10:05:23Z</time>
      </trkpt>
      <trkpt lat="40.0686590" lon="-4.3003700">
        <ele>517.3</ele>
        <time>2019-08-13T10:05:24Z</time>
      </trkpt>
      <trkpt lat="40.0686500" lon="-4.3004190">
        <ele>517.3</ele>
        <time>2019-08-13T10:05:25Z</time>
      </trkpt>
      <trkpt lat="40.0686430" lon="-4.3004670">
        <ele>517.4</ele>
        <time>2019-08-13T10:05:26Z</time>
      </trkpt>
      <trkpt lat="40.0686390" lon="-4.3005140">
        <ele>517.5</ele>
        <time>2019-08-13T10:05:27Z</time>
      </trkpt>
      <trkpt lat="40.0686350" lon="-4.3005590">
        <ele>517.5</ele>
        <time>2019-08-13T10:05:28Z</time>
      </trkpt>
      <trkpt lat="40.0686310" lon="-4.3006010">
        <ele>517.6</ele>
        <time>2019-08-13T10:05:29Z</time>
      </trkpt>
      <trkpt lat="40.0686260" lon="-4.3006450">
        <ele>517.7</ele>
        <time>2019-08-13T10:05:30Z</time>
      </trkpt>
      <trkpt lat="40.0686210" lon="-4.3006880">
        <ele>517.8</ele>
        <time>2019-08-13T10:05:31Z</time>
      </trkpt>
      <trkpt lat="40.0686150" lon="-4.3007320">
        <ele>517.9</ele>
        <time>2019-08-13T10:05:32Z</time>
      </trkpt>
      <trkpt lat="40.0686110" lon="-4.3007770">
        <ele>518.0</ele>
        <time>2019-08-13T10:05:33Z</time>
      </trkpt>
      <trkpt lat="40.0686080" lon="-4.3008220">
        <ele>518.1</ele>
        <time>2019-08-13T10:05:34Z</time>
      </trkpt>
      <trkpt lat="40.0686050" lon="-4.3008670">
        <ele>518.3</ele>
        <time>2019-08-13T10:05:35Z</time>
      </trkpt>
      <trkpt lat="40.0685990" lon="-4.3009130">
        <ele>518.4</ele>
        <time>2019-08-13T10:05:36Z</time>
      </trkpt>
      <trkpt lat="40.0685910" lon="-4.3009600">
        <ele>518.5</ele>
        <time>2019-08-13T10:05:37Z</time>
      </trkpt>
      <trkpt lat="40.0685830" lon="-4.3010070">
        <ele>518.7</ele>
        <time>2019-08-13T10:05:38Z</time>
      </trkpt>
      <trkpt lat="40.0685800" lon="-4.3010560">
        <ele>518.8</ele>
        <time>2019-08-13T10:05:39Z</time>
      </trkpt>
      <trkpt lat="40.0685760" lon="-4.3011020">
        <ele>518.9</ele>
        <time>2019-08-13T10:05:40Z</time>
      </trkpt>
      <trkpt lat="40.0685750" lon="-4.3011490">
        <ele>519.1</ele>
        <time>2019-08-13T10:05:41Z</time>
      </trkpt>
      <trkpt lat="40.0685740" lon="-4.3011950">
        <ele>519.2</ele>
        <time>2019-08-13T10:05:42Z</time>
      </trkpt>
      <trkpt lat="40.0685760" lon="-4.3012410">
        <ele>519.2</ele>
        <time>2019-08-13T10:05:43Z</time>
      </trkpt>
      <trkpt lat="40.0685810" lon="-4.3012860">
        <ele>519.3</ele>
        <time>2019-08-13T10:05:44Z</time>
      </trkpt>
      <trkpt lat="40.0685910" lon="-4.3013270">
        <ele>519.4</ele>
        <time>2019-08-13T10:05:45Z</time>
      </trkpt>
      <trkpt lat="40.0686080" lon="-4.3013650">
        <ele>519.5</ele>
        <time>2019-08-13T10:05:46Z</time>
      </trkpt>
      <trkpt lat="40.0686330" lon="-4.3013940">
        <ele>519.6</ele>
        <time>2019-08-13T10:05:47Z</time>
      </trkpt>
      <trkpt lat="40.0686560" lon="-4.3014210">
        <ele>519.7</ele>
        <time>2019-08-13T10:05:48Z</time>
      </trkpt>
      <trkpt lat="40.0686800" lon="-4.3014490">
        <ele>519.7</ele>
        <time>2019-08-13T10:05:49Z</time>
      </trkpt>
      <trkpt lat="40.0687040" lon="-4.3014770">
        <ele>519.8</ele>
        <time>2019-08-13T10:05:50Z</time>
      </trkpt>
      <trkpt lat="40.0687270" lon="-4.3015070">
        <ele>519.9</ele>
        <time>2019-08-13T10:05:51Z</time>
      </trkpt>
      <trkpt lat="40.0687500" lon="-4.3015370">
        <ele>520.0</ele>
        <time>2019-08-13T10:05:52Z</time>
      </trkpt>
      <trkpt lat="40.0687720" lon="-4.3015660">
        <ele>520.1</ele>
        <time>2019-08-13T10:05:53Z</time>
      </trkpt>
      <trkpt lat="40.0687960" lon="-4.3015940">
        <ele>520.2</ele>
        <time>2019-08-13T10:05:54Z</time>
      </trkpt>
      <trkpt lat="40.0688200" lon="-4.3016220">
        <ele>520.4</ele>
        <time>2019-08-13T10:05:55Z</time>
      </trkpt>
      <trkpt lat="40.0688440" lon="-4.3016480">
        <ele>520.5</ele>
        <time>2019-08-13T10:05:56Z</time>
      </trkpt>
      <trkpt lat="40.0688670" lon="-4.3016720">
        <ele>520.6</ele>
        <time>2019-08-13T10:05:57Z</time>
      </trkpt>
      <trkpt lat="40.0688900" lon="-4.3016950">
        <ele>520.7</ele>
        <time>2019-08-13T10:05:58Z</time>
      </trkpt>
      <trkpt lat="40.0689130" lon="-4.3017170">
        <ele>520.9</ele>
        <time>2019-08-13T10:05:59Z</time>
      </trkpt>
      <trkpt lat="40.0689520" lon="-4.3017630">
        <ele>521.1</ele>
        <time>2019-08-13T10:06:01Z</time>
      </trkpt>
      <trkpt lat="40.0689900" lon="-4.3018090">
        <ele>521.4</ele>
        <time>2019-08-13T10:06:03Z</time>
      </trkpt>
      <trkpt lat="40.0690100" lon="-4.3018330">
        <ele>521.6</ele>
        <time>2019-08-13T10:06:04Z</time>
      </trkpt>
      <trkpt lat="40.0690300" lon="-4.3018580">
        <ele>521.8</ele>
        <time>2019-08-13T10:06:05Z</time>
      </trkpt>
      <trkpt lat="40.0690490" lon="-4.3018830">
        <ele>521.9</ele>
        <time>2019-08-13T10:06:06Z</time>
      </trkpt>
      <trkpt lat="40.0690900" lon="-4.3019290">
        <ele>522.3</ele>
        <time>2019-08-13T10:06:08Z</time>
      </trkpt>
      <trkpt lat="40.0691110" lon="-4.3019520">
        <ele>522.5</ele>
        <time>2019-08-13T10:06:09Z</time>
      </trkpt>
      <trkpt lat="40.0691320" lon="-4.3019740">
        <ele>522.7</ele>
        <time>2019-08-13T10:06:10Z</time>
      </trkpt>
      <trkpt lat="40.0691720" lon="-4.3020210">
        <ele>523.0</ele>
        <time>2019-08-13T10:06:12Z</time>
      </trkpt>
      <trkpt lat="40.0691920" lon="-4.3020450">
        <ele>523.2</ele>
        <time>2019-08-13T10:06:13Z</time>
      </trkpt>
      <trkpt lat="40.0692120" lon="-4.3020700">
        <ele>523.4</ele>
        <time>2019-08-13T10:06:14Z</time>
      </trkpt>
      <trkpt lat="40.0692340" lon="-4.3020950">
        <ele>523.6</ele>
        <time>2019-08-13T10:06:15Z</time>
      </trkpt>
      <trkpt lat="40.0692550" lon="-4.3021220">
        <ele>523.7</ele>
        <time>2019-08-13T10:06:16Z</time>
      </trkpt>
      <trkpt lat="40.0692770" lon="-4.3021520">
        <ele>523.9</ele>
        <time>2019-08-13T10:06:17Z</time>
      </trkpt>
      <trkpt lat="40.0692980" lon="-4.3021820">
        <ele>524.1</ele>
        <time>2019-08-13T10:06:18Z</time>
      </trkpt>
      <trkpt lat="40.0693180" lon="-4.3022130">
        <ele>524.3</ele>
        <time>2019-08-13T10:06:19Z</time>
      </trkpt>
      <trkpt lat="40.0693380" lon="-4.3022440">
        <ele>524.5</ele>
        <time>2019-08-13T10:06:20Z</time>
      </trkpt>
      <trkpt lat="40.0693580" lon="-4.3022730">
        <ele>524.7</ele>
        <time>2019-08-13T10:06:21Z</time>
      </trkpt>
      <trkpt lat="40.0693780" lon="-4.3023020">
        <ele>524.9</ele>
        <time>2019-08-13T10:06:22Z</time>
      </trkpt>
      <trkpt lat="40.0693970" lon="-4.3023330">
        <ele>525.0</ele>
        <time>2019-08-13T10:06:23Z</time>
      </trkpt>
      <trkpt lat="40.0694150" lon="-4.3023640">
        <ele>525.2</ele>
        <time>2019-08-13T10:06:24Z</time>
      </trkpt>
      <trkpt lat="40.0694330" lon="-4.3023930">
        <ele>525.4</ele>
        <time>2019-08-13T10:06:25Z</time>
      </trkpt>
      <trkpt lat="40.0694510" lon="-4.3024220">
        <ele>525.6</ele>
        <time>2019-08-13T10:06:26Z</time>
      </trkpt>
      <trkpt lat="40.0694690" lon="-4.3024510">
        <ele>525.7</ele>
        <time>2019-08-13T10:06:27Z</time>
      </trkpt>
      <trkpt lat="40.0694880" lon="-4.3024800">
        <ele>525.9</ele>
        <time>2019-08-13T10:06:28Z</time>
      </trkpt>
      <trkpt lat="40.0695070" lon="-4.3025070">
        <ele>526.1</ele>
        <time>2019-08-13T10:06:29Z</time>
      </trkpt>
      <trkpt lat="40.0695250" lon="-4.3025340">
        <ele>526.2</ele>
        <time>2019-08-13T10:06:30Z</time>
      </trkpt>
      <trkpt lat="40.0695430" lon="-4.3025620">
        <ele>526.4</ele>
        <time>2019-08-13T10:06:31Z</time>
      </trkpt>
      <trkpt lat="40.0695600" lon="-4.3025910">
        <ele>526.5</ele>
        <time>2019-08-13T10:06:32Z</time>
      </trkpt>
      <trkpt lat="40.0695770" lon="-4.3026200">
        <ele>526.7</ele>
        <time>2019-08-13T10:06:33Z</time>
      </trkpt>
      <trkpt lat="40.0695940" lon="-4.3026480">
        <ele>526.9</ele>
        <time>2019-08-13T10:06:34Z</time>
      </trkpt>
      <trkpt lat="40.0696110" lon="-4.3026750">
        <ele>527.0</ele>
        <time>2019-08-13T10:06:35Z</time>
      </trkpt>
      <trkpt lat="40.0696280" lon="-4.3027030">
        <ele>527.2</ele>
        <time>2019-08-13T10:06:36Z</time>
      </trkpt>
      <trkpt lat="40.0696460" lon="-4.3027300">
        <ele>527.4</ele>
        <time>2019-08-13T10:06:37Z</time>
      </trkpt>
      <trkpt lat="40.0696630" lon="-4.3027580">
        <ele>527.6</ele>
        <time>2019-08-13T10:06:38Z</time>
      </trkpt>
      <trkpt lat="40.0696820" lon="-4.3027860">
        <ele>527.8</ele>
        <time>2019-08-13T10:06:39Z</time>
      </trkpt>
      <trkpt lat="40.0697000" lon="-4.3028140">
        <ele>528.0</ele>
        <time>2019-08-13T10:06:40Z</time>
      </trkpt>
      <trkpt lat="40.0697180" lon="-4.3028420">
        <ele>528.2</ele>
        <time>2019-08-13T10:06:41Z</time>
      </trkpt>
      <trkpt lat="40.0697370" lon="-4.3028700">
        <ele>528.4</ele>
        <time>2019-08-13T10:06:42Z</time>
      </trkpt>
      <trkpt lat="40.0697550" lon="-4.3028990">
        <ele>528.6</ele>
        <time>2019-08-13T10:06:43Z</time>
      </trkpt>
      <trkpt lat="40.0697720" lon="-4.3029290">
        <ele>528.7</ele>
        <time>2019-08-13T10:06:44Z</time>
      </trkpt>
      <trkpt lat="40.0697890" lon="-4.3029580">
        <ele>528.9</ele>
        <time>2019-08-13T10:06:45Z</time>
      </trkpt>
      <trkpt lat="40.0698070" lon="-4.3029860">
        <ele>529.1</ele>
        <time>2019-08-13T10:06:46Z</time>
      </trkpt>
      <trkpt lat="40.0698260" lon="-4.3030120">
        <ele>529.3</ele>
        <time>2019-08-13T10:06:47Z</time>
      </trkpt>
      <trkpt lat="40.0698460" lon="-4.3030370">
        <ele>529.4</ele>
        <time>2019-08-13T10:06:48Z</time>
      </trkpt>
      <trkpt lat="40.0698660" lon="-4.3030630">
        <ele>529.6</ele>
        <time>2019-08-13T10:06:49Z</time>
      </trkpt>
      <trkpt lat="40.0698870" lon="-4.3030890">
        <ele>529.8</ele>
        <time>2019-08-13T10:06:50Z</time>
      </trkpt>
      <trkpt lat="40.0699080" lon="-4.3031160">
        <ele>530.0</ele>
        <time>2019-08-13T10:06:51Z</time>
      </trkpt>
      <trkpt lat="40.0699290" lon="-4.3031420">
        <ele>530.1</ele>
        <time>2019-08-13T10:06:52Z</time>
      </trkpt>
      <trkpt lat="40.0699510" lon="-4.3031670">
        <ele>530.3</ele>
        <time>2019-08-13T10:06:53Z</time>
      </trkpt>
      <trkpt lat="40.0699730" lon="-4.3031920">
        <ele>530.5</ele>
        <time>2019-08-13T10:06:54Z</time>
      </trkpt>
      <trkpt lat="40.0699960" lon="-4.3032160">
        <ele>530.6</ele>
        <time>2019-08-13T10:06:55Z</time>
      </trkpt>
      <trkpt lat="40.0700200" lon="-4.3032390">
        <ele>530.8</ele>
        <time>2019-08-13T10:06:56Z</time>
      </trkpt>
      <trkpt lat="40.0700430" lon="-4.3032630">
        <ele>531.0</ele>
        <time>2019-08-13T10:06:57Z</time>
      </trkpt>
      <trkpt lat="40.0700660" lon="-4.3032880">
        <ele>531.2</ele>
        <time>2019-08-13T10:06:58Z</time>
      </trkpt>
      <trkpt lat="40.0700890" lon="-4.3033130">
        <ele>531.4</ele>
        <time>2019-08-13T10:06:59Z</time>
      </trkpt>
      <trkpt lat="40.0701110" lon="-4.3033370">
        <ele>531.5</ele>
        <time>2019-08-13T10:07:00Z</time>
      </trkpt>
      <trkpt lat="40.0701330" lon="-4.3033610">
        <ele>531.7</ele>
        <time>2019-08-13T10:07:01Z</time>
      </trkpt>
      <trkpt lat="40.0701560" lon="-4.3033840">
        <ele>531.9</ele>
        <time>2019-08-13T10:07:02Z</time>
      </trkpt>
      <trkpt lat="40.0701790" lon="-4.3034080">
        <ele>532.0</ele>
        <time>2019-08-13T10:07:03Z</time>
      </trkpt>
      <trkpt lat="40.0702010" lon="-4.3034330">
        <ele>532.2</ele>
        <time>2019-08-13T10:07:04Z</time>
      </trkpt>
      <trkpt lat="40.0702230" lon="-4.3034570">
        <ele>532.3</ele>
        <time>2019-08-13T10:07:05Z</time>
      </trkpt>
      <trkpt lat="40.0702450" lon="-4.3034810">
        <ele>532.4</ele>
        <time>2019-08-13T10:07:06Z</time>
      </trkpt>
      <trkpt lat="40.0702660" lon="-4.3035050">
        <ele>532.6</ele>
        <time>2019-08-13T10:07:07Z</time>
      </trkpt>
      <trkpt lat="40.0702870" lon="-4.3035290">
        <ele>532.7</ele>
        <time>2019-08-13T10:07:08Z</time>
      </trkpt>
      <trkpt lat="40.0703240" lon="-4.3035790">
        <ele>532.9</ele>
        <time>2019-08-13T10:07:10Z</time>
      </trkpt>
      <trkpt lat="40.0703430" lon="-4.3036050">
        <ele>533.0</ele>
        <time>2019-08-13T10:07:11Z</time>
      </trkpt>
      <trkpt lat="40.0703620" lon="-4.3036320">
        <ele>533.1</ele>
        <time>2019-08-13T10:07:12Z</time>
      </trkpt>
      <trkpt lat="40.0703820" lon="-4.3036600">
        <ele>533.3</ele>
        <time>2019-08-13T10:07:13Z</time>
      </trkpt>
      <trkpt lat="40.0704010" lon="-4.3036890">
        <ele>533.4</ele>
        <time>2019-08-13T10:07:14Z</time>
      </trkpt>
      <trkpt lat="40.0704180" lon="-4.3037190">
        <ele>533.6</ele>
        <time>2019-08-13T10:07:15Z</time>
      </trkpt>
      <trkpt lat="40.0704340" lon="-4.3037500">
        <ele>533.7</ele>
        <time>2019-08-13T10:07:16Z</time>
      </trkpt>
      <trkpt lat="40.0704500" lon="-4.3037800">
        <ele>533.8</ele>
        <time>2019-08-13T10:07:17Z</time>
      </trkpt>
      <trkpt lat="40.0704650" lon="-4.3038120">
        <ele>534.0</ele>
        <time>2019-08-13T10:07:18Z</time>
      </trkpt>
      <trkpt lat="40.0704790" lon="-4.3038460">
        <ele>534.1</ele>
        <time>2019-08-13T10:07:19Z</time>
      </trkpt>
      <trkpt lat="40.0704920" lon="-4.3038800">
        <ele>534.3</ele>
        <time>2019-08-13T10:07:20Z</time>
      </trkpt>
      <trkpt lat="40.0705050" lon="-4.3039160">
        <ele>534.4</ele>
        <time>2019-08-13T10:07:21Z</time>
      </trkpt>
      <trkpt lat="40.0705160" lon="-4.3039510">
        <ele>534.6</ele>
        <time>2019-08-13T10:07:22Z</time>
      </trkpt>
      <trkpt lat="40.0705270" lon="-4.3039860">
        <ele>534.8</ele>
        <time>2019-08-13T10:07:23Z</time>
      </trkpt>
      <trkpt lat="40.0705370" lon="-4.3040190">
        <ele>534.9</ele>
        <time>2019-08-13T10:07:24Z</time>
      </trkpt>
      <trkpt lat="40.0705480" lon="-4.3040520">
        <ele>535.2</ele>
        <time>2019-08-13T10:07:25Z</time>
      </trkpt>
      <trkpt lat="40.0705600" lon="-4.3040850">
        <ele>535.4</ele>
        <time>2019-08-13T10:07:26Z</time>
      </trkpt>
      <trkpt lat="40.0705810" lon="-4.3041470">
        <ele>535.7</ele>
        <time>2019-08-13T10:07:28Z</time>
      </trkpt>
      <trkpt lat="40.0706030" lon="-4.3042070">
        <ele>536.0</ele>
        <time>2019-08-13T10:07:30Z</time>
      </trkpt>
      <trkpt lat="40.0706210" lon="-4.3042670">
        <ele>536.4</ele>
        <time>2019-08-13T10:07:32Z</time>
      </trkpt>
      <trkpt lat="40.0706400" lon="-4.3043290">
        <ele>536.8</ele>
        <time>2019-08-13T10:07:34Z</time>
      </trkpt>
      <trkpt lat="40.0706580" lon="-4.3043920">
        <ele>537.1</ele>
        <time>2019-08-13T10:07:36Z</time>
      </trkpt>
      <trkpt lat="40.0706740" lon="-4.3044560">
        <ele>537.5</ele>
        <time>2019-08-13T10:07:38Z</time>
      </trkpt>
      <trkpt lat="40.0706910" lon="-4.3045220">
        <ele>537.9</ele>
        <time>2019-08-13T10:07:40Z</time>
      </trkpt>
      <trkpt lat="40.0707060" lon="-4.3045880">
        <ele>538.3</ele>
        <time>2019-08-13T10:07:42Z</time>
      </trkpt>
      <trkpt lat="40.0707140" lon="-4.3046220">
        <ele>538.5</ele>
        <time>2019-08-13T10:07:43Z</time>
      </trkpt>
      <trkpt lat="40.0707210" lon="-4.3046570">
        <ele>538.8</ele>
        <time>2019-08-13T10:07:44Z</time>
      </trkpt>
      <trkpt lat="40.0707270" lon="-4.3047240">
        <ele>539.6</ele>
        <time>2019-08-13T10:07:46Z</time>
      </trkpt>
      <trkpt lat="40.0707340" lon="-4.3047920">
        <ele>539.6</ele>
        <time>2019-08-13T10:07:48Z</time>
      </trkpt>
      <trkpt lat="40.0707370" lon="-4.3048270">
        <ele>539.7</ele>
        <time>2019-08-13T10:07:49Z</time>
      </trkpt>
      <trkpt lat="40.0707410" lon="-4.3048970">
        <ele>539.7</ele>
        <time>2019-08-13T10:07:51Z</time>
      </trkpt>
      <trkpt lat="40.0707490" lon="-4.3049640">
        <ele>539.8</ele>
        <time>2019-08-13T10:07:53Z</time>
      </trkpt>
      <trkpt lat="40.0707530" lon="-4.3050000">
        <ele>539.9</ele>
        <time>2019-08-13T10:07:54Z</time>
      </trkpt>
      <trkpt lat="40.0707570" lon="-4.3050360">
        <ele>539.9</ele>
        <time>2019-08-13T10:07:55Z</time>
      </trkpt>
      <trkpt lat="40.0707600" lon="-4.3050730">
        <ele>539.9</ele>
        <time>2019-08-13T10:07:56Z</time>
      </trkpt>
      <trkpt lat="40.0707620" lon="-4.3051100">
        <ele>539.9</ele>
        <time>2019-08-13T10:07:57Z</time>
      </trkpt>
      <trkpt lat="40.0707640" lon="-4.3051470">
        <ele>540.0</ele>
        <time>2019-08-13T10:07:58Z</time>
      </trkpt>
      <trkpt lat="40.0707650" lon="-4.3051840">
        <ele>540.0</ele>
        <time>2019-08-13T10:07:59Z</time>
      </trkpt>
      <trkpt lat="40.0707670" lon="-4.3052220">
        <ele>540.0</ele>
        <time>2019-08-13T10:08:00Z</time>
      </trkpt>
      <trkpt lat="40.0707670" lon="-4.3052600">
        <ele>540.0</ele>
        <time>2019-08-13T10:08:01Z</time>
      </trkpt>
      <trkpt lat="40.0707640" lon="-4.3052970">
        <ele>540.0</ele>
        <time>2019-08-13T10:08:02Z</time>
      </trkpt>
      <trkpt lat="40.0707590" lon="-4.3053350">
        <ele>540.0</ele>
        <time>2019-08-13T10:08:03Z</time>
      </trkpt>
      <trkpt lat="40.0707510" lon="-4.3053740">
        <ele>540.0</ele>
        <time>2019-08-13T10:08:04Z</time>
      </trkpt>
      <trkpt lat="40.0707410" lon="-4.3054120">
        <ele>539.9</ele>
        <time>2019-08-13T10:08:05Z</time>
      </trkpt>
      <trkpt lat="40.0707300" lon="-4.3054520">
        <ele>539.9</ele>
        <time>2019-08-13T10:08:06Z</time>
      </trkpt>
      <trkpt lat="40.0707170" lon="-4.3054950">
        <ele>539.9</ele>
        <time>2019-08-13T10:08:07Z</time>
      </trkpt>
      <trkpt lat="40.0707020" lon="-4.3055400">
        <ele>539.8</ele>
        <time>2019-08-13T10:08:08Z</time>
      </trkpt>
      <trkpt lat="40.0706880" lon="-4.3055880">
        <ele>539.8</ele>
        <time>2019-08-13T10:08:09Z</time>
      </trkpt>
      <trkpt lat="40.0706760" lon="-4.3056400">
        <ele>539.7</ele>
        <time>2019-08-13T10:08:10Z</time>
      </trkpt>
      <trkpt lat="40.0706680" lon="-4.3056930">
        <ele>539.6</ele>
        <time>2019-08-13T10:08:11Z</time>
      </trkpt>
      <trkpt lat="40.0706630" lon="-4.3057470">
        <ele>539.5</ele>
        <time>2019-08-13T10:08:12Z</time>
      </trkpt>
      <trkpt lat="40.0706610" lon="-4.3058000">
        <ele>539.4</ele>
        <time>2019-08-13T10:08:13Z</time>
      </trkpt>
      <trkpt lat="40.0706650" lon="-4.3058520">
        <ele>539.5</ele>
        <time>2019-08-13T10:08:14Z</time>
      </trkpt>
      <trkpt lat="40.0706740" lon="-4.3059010">
        <ele>539.5</ele>
        <time>2019-08-13T10:08:15Z</time>
      </trkpt>
      <trkpt lat="40.0706880" lon="-4.3059480">
        <ele>539.6</ele>
        <time>2019-08-13T10:08:16Z</time>
      </trkpt>
      <trkpt lat="40.0707050" lon="-4.3059940">
        <ele>539.6</ele>
        <time>2019-08-13T10:08:17Z</time>
      </trkpt>
      <trkpt lat="40.0707240" lon="-4.3060390">
        <ele>539.7</ele>
        <time>2019-08-13T10:08:18Z</time>
      </trkpt>
      <trkpt lat="40.0707430" lon="-4.3060830">
        <ele>539.8</ele>
        <time>2019-08-13T10:08:19Z</time>
      </trkpt>
      <trkpt lat="40.0707630" lon="-4.3061250">
        <ele>539.8</ele>
        <time>2019-08-13T10:08:20Z</time>
      </trkpt>
      <trkpt lat="40.0707850" lon="-4.3061640">
        <ele>539.9</ele>
        <time>2019-08-13T10:08:21Z</time>
      </trkpt>
      <trkpt lat="40.0708100" lon="-4.3062010">
        <ele>539.9</ele>
        <time>2019-08-13T10:08:22Z</time>
      </trkpt>
      <trkpt lat="40.0708350" lon="-4.3062400">
        <ele>540.0</ele>
        <time>2019-08-13T10:08:23Z</time>
      </trkpt>
      <trkpt lat="40.0708590" lon="-4.3062780">
        <ele>540.0</ele>
        <time>2019-08-13T10:08:24Z</time>
      </trkpt>
      <trkpt lat="40.0708850" lon="-4.3063160">
        <ele>540.1</ele>
        <time>2019-08-13T10:08:25Z</time>
      </trkpt>
      <trkpt lat="40.0709120" lon="-4.3063520">
        <ele>540.1</ele>
        <time>2019-08-13T10:08:26Z</time>
      </trkpt>
      <trkpt lat="40.0709390" lon="-4.3063880">
        <ele>540.2</ele>
        <time>2019-08-13T10:08:27Z</time>
      </trkpt>
      <trkpt lat="40.0709670" lon="-4.3064220">
        <ele>540.2</ele>
        <time>2019-08-13T10:08:28Z</time>
      </trkpt>
      <trkpt lat="40.0709950" lon="-4.3064560">
        <ele>540.2</ele>
        <time>2019-08-13T10:08:29Z</time>
      </trkpt>
      <trkpt lat="40.0710220" lon="-4.3064880">
        <ele>540.3</ele>
        <time>2019-08-13T10:08:30Z</time>
      </trkpt>
      <trkpt lat="40.0710510" lon="-4.3065220">
        <ele>540.3</ele>
        <time>2019-08-13T10:08:31Z</time>
      </trkpt>
      <trkpt lat="40.0710800" lon="-4.3065550">
        <ele>540.4</ele>
        <time>2019-08-13T10:08:32Z</time>
      </trkpt>
      <trkpt lat="40.0711090" lon="-4.3065870">
        <ele>540.4</ele>
        <time>2019-08-13T10:08:33Z</time>
      </trkpt>
      <trkpt lat="40.0711380" lon="-4.3066180">
        <ele>540.5</ele>
        <time>2019-08-13T10:08:34Z</time>
      </trkpt>
      <trkpt lat="40.0711670" lon="-4.3066520">
        <ele>540.5</ele>
        <time>2019-08-13T10:08:35Z</time>
      </trkpt>
      <trkpt lat="40.0711940" lon="-4.3066840">
        <ele>540.5</ele>
        <time>2019-08-13T10:08:36Z</time>
      </trkpt>
      <trkpt lat="40.0712210" lon="-4.3067160">
        <ele>540.6</ele>
        <time>2019-08-13T10:08:37Z</time>
      </trkpt>
      <trkpt lat="40.0712500" lon="-4.3067470">
        <ele>540.6</ele>
        <time>2019-08-13T10:08:38Z</time>
      </trkpt>
      <trkpt lat="40.0712800" lon="-4.3067770">
        <ele>540.7</ele>
        <time>2019-08-13T10:08:39Z</time>
      </trkpt>
      <trkpt lat="40.0713090" lon="-4.3068060">
        <ele>540.7</ele>
        <time>2019-08-13T10:08:40Z</time>
      </trkpt>
      <trkpt lat="40.0713380" lon="-4.3068360">
        <ele>540.7</ele>
        <time>2019-08-13T10:08:41Z</time>
      </trkpt>
      <trkpt lat="40.0713670" lon="-4.3068650">
        <ele>540.8</ele>
        <time>2019-08-13T10:08:42Z</time>
      </trkpt>
      <trkpt lat="40.0713970" lon="-4.3068930">
        <ele>540.8</ele>
        <time>2019-08-13T10:08:43Z</time>
      </trkpt>
      <trkpt lat="40.0714270" lon="-4.3069200">
        <ele>540.9</ele>
        <time>2019-08-13T10:08:44Z</time>
      </trkpt>
      <trkpt lat="40.0714570" lon="-4.3069480">
        <ele>540.9</ele>
        <time>2019-08-13T10:08:45Z</time>
      </trkpt>
      <trkpt lat="40.0714870" lon="-4.3069750">
        <ele>541.0</ele>
        <time>2019-08-13T10:08:46Z</time>
      </trkpt>
      <trkpt lat="40.0715170" lon="-4.3070030">
        <ele>541.0</ele>
        <time>2019-08-13T10:08:47Z</time>
      </trkpt>
      <trkpt lat="40.0715460" lon="-4.3070330">
        <ele>541.1</ele>
        <time>2019-08-13T10:08:48Z</time>
      </trkpt>
      <trkpt lat="40.0715750" lon="-4.3070640">
        <ele>541.2</ele>
        <time>2019-08-13T10:08:49Z</time>
      </trkpt>
      <trkpt lat="40.0716030" lon="-4.3070960">
        <ele>541.3</ele>
        <time>2019-08-13T10:08:50Z</time>
      </trkpt>
      <trkpt lat="40.0716310" lon="-4.3071300">
        <ele>541.3</ele>
        <time>2019-08-13T10:08:51Z</time>
      </trkpt>
      <trkpt lat="40.0716570" lon="-4.3071660">
        <ele>541.4</ele>
        <time>2019-08-13T10:08:52Z</time>
      </trkpt>
      <trkpt lat="40.0716820" lon="-4.3072030">
        <ele>541.5</ele>
        <time>2019-08-13T10:08:53Z</time>
      </trkpt>
      <trkpt lat="40.0717050" lon="-4.3072410">
        <ele>541.6</ele>
        <time>2019-08-13T10:08:54Z</time>
      </trkpt>
      <trkpt lat="40.0717270" lon="-4.3072820">
        <ele>541.7</ele>
        <time>2019-08-13T10:08:55Z</time>
      </trkpt>
      <trkpt lat="40.0717480" lon="-4.3073200">
        <ele>541.8</ele>
        <time>2019-08-13T10:08:56Z</time>
      </trkpt>
      <trkpt lat="40.0717710" lon="-4.3073580">
        <ele>541.9</ele>
        <time>2019-08-13T10:08:57Z</time>
      </trkpt>
      <trkpt lat="40.0717960" lon="-4.3073920">
        <ele>542.0</ele>
        <time>2019-08-13T10:08:58Z</time>
      </trkpt>
      <trkpt lat="40.0718230" lon="-4.3074250">
        <ele>542.1</ele>
        <time>2019-08-13T10:08:59Z</time>
      </trkpt>
      <trkpt lat="40.0718510" lon="-4.3074570">
        <ele>542.2</ele>
        <time>2019-08-13T10:09:00Z</time>
      </trkpt>
      <trkpt lat="40.0718800" lon="-4.3074880">
        <ele>542.3</ele>
        <time>2019-08-13T10:09:01Z</time>
      </trkpt>
      <trkpt lat="40.0719090" lon="-4.3075180">
        <ele>542.4</ele>
        <time>2019-08-13T10:09:02Z</time>
      </trkpt>
      <trkpt lat="40.0719390" lon="-4.3075480">
        <ele>542.5</ele>
        <time>2019-08-13T10:09:03Z</time>
      </trkpt>
      <trkpt lat="40.0719670" lon="-4.3075790">
        <ele>542.6</ele>
        <time>2019-08-13T10:09:04Z</time>
      </trkpt>
      <trkpt lat="40.0719960" lon="-4.3076120">
        <ele>542.7</ele>
        <time>2019-08-13T10:09:05Z</time>
      </trkpt>
      <trkpt lat="40.0720240" lon="-4.3076420">
        <ele>542.8</ele>
        <time>2019-08-13T10:09:06Z</time>
      </trkpt>
      <trkpt lat="40.0720500" lon="-4.3076760">
        <ele>542.9</ele>
        <time>2019-08-13T10:09:07Z</time>
      </trkpt>
      <trkpt lat="40.0720790" lon="-4.3077100">
        <ele>543.0</ele>
        <time>2019-08-13T10:09:08Z</time>
      </trkpt>
      <trkpt lat="40.0721050" lon="-4.3077430">
        <ele>543.1</ele>
        <time>2019-08-13T10:09:09Z</time>
      </trkpt>
      <trkpt lat="40.0721310" lon="-4.3077770">
        <ele>543.2</ele>
        <time>2019-08-13T10:09:10Z</time>
      </trkpt>
      <trkpt lat="40.0721570" lon="-4.3078130">
        <ele>543.3</ele>
        <time>2019-08-13T10:09:11Z</time>
      </trkpt>
      <trkpt lat="40.0721810" lon="-4.3078490">
        <ele>543.4</ele>
        <time>2019-08-13T10:09:12Z</time>
      </trkpt>
      <trkpt lat="40.0722050" lon="-4.3078830">
        <ele>543.5</ele>
        <time>2019-08-13T10:09:13Z</time>
      </trkpt>
      <trkpt lat="40.0722290" lon="-4.3079180">
        <ele>543.5</ele>
        <time>2019-08-13T10:09:14Z</time>
      </trkpt>
      <trkpt lat="40.0722540" lon="-4.3079510">
        <ele>543.6</ele>
        <time>2019-08-13T10:09:15Z</time>
      </trkpt>
      <trkpt lat="40.0722800" lon="-4.3079830">
        <ele>543.7</ele>
        <time>2019-08-13T10:09:16Z</time>
      </trkpt>
      <trkpt lat="40.0723060" lon="-4.3080160">
        <ele>543.8</ele>
        <time>2019-08-13T10:09:17Z</time>
      </trkpt>
      <trkpt lat="40.0723340" lon="-4.3080480">
        <ele>543.8</ele>
        <time>2019-08-13T10:09:18Z</time>
      </trkpt>
      <trkpt lat="40.0723610" lon="-4.3080800">
        <ele>543.9</ele>
        <time>2019-08-13T10:09:19Z</time>
      </trkpt>
      <trkpt lat="40.0723880" lon="-4.3081110">
        <ele>544.0</ele>
        <time>2019-08-13T10:09:20Z</time>
      </trkpt>
      <trkpt lat="40.0724160" lon="-4.3081410">
        <ele>544.1</ele>
        <time>2019-08-13T10:09:21Z</time>
      </trkpt>
      <trkpt lat="40.0724430" lon="-4.3081720">
        <ele>544.1</ele>
        <time>2019-08-13T10:09:22Z</time>
      </trkpt>
      <trkpt lat="40.0724720" lon="-4.3082000">
        <ele>544.2</ele>
        <time>2019-08-13T10:09:23Z</time>
      </trkpt>
      <trkpt lat="40.0724990" lon="-4.3082290">
        <ele>544.2</ele>
        <time>2019-08-13T10:09:24Z</time>
      </trkpt>
      <trkpt lat="40.0725280" lon="-4.3082580">
        <ele>544.3</ele>
        <time>2019-08-13T10:09:25Z</time>
      </trkpt>
      <trkpt lat="40.0725570" lon="-4.3082880">
        <ele>544.4</ele>
        <time>2019-08-13T10:09:26Z</time>
      </trkpt>
      <trkpt lat="40.0725850" lon="-4.3083150">
        <ele>544.4</ele>
        <time>2019-08-13T10:09:27Z</time>
      </trkpt>
      <trkpt lat="40.0726140" lon="-4.3083430">
        <ele>544.5</ele>
        <time>2019-08-13T10:09:28Z</time>
      </trkpt>
      <trkpt lat="40.0726420" lon="-4.3083710">
        <ele>544.5</ele>
        <time>2019-08-13T10:09:29Z</time>
      </trkpt>
      <trkpt lat="40.0726700" lon="-4.3084000">
        <ele>544.6</ele>
        <time>2019-08-13T10:09:30Z</time>
      </trkpt>
      <trkpt lat="40.0726970" lon="-4.3084270">
        <ele>544.6</ele>
        <time>2019-08-13T10:09:31Z</time>
      </trkpt>
      <trkpt lat="40.0727260" lon="-4.3084540">
        <ele>544.7</ele>
        <time>2019-08-13T10:09:32Z</time>
      </trkpt>
      <trkpt lat="40.0727550" lon="-4.3084810">
        <ele>544.7</ele>
        <time>2019-08-13T10:09:33Z</time>
      </trkpt>
      <trkpt lat="40.0727830" lon="-4.3085090">
        <ele>544.8</ele>
        <time>2019-08-13T10:09:34Z</time>
      </trkpt>
      <trkpt lat="40.0728110" lon="-4.3085370">
        <ele>544.8</ele>
        <time>2019-08-13T10:09:35Z</time>
      </trkpt>
      <trkpt lat="40.0728390" lon="-4.3085640">
        <ele>544.9</ele>
        <time>2019-08-13T10:09:36Z</time>
      </trkpt>
      <trkpt lat="40.0728670" lon="-4.3085900">
        <ele>544.9</ele>
        <time>2019-08-13T10:09:37Z</time>
      </trkpt>
      <trkpt lat="40.0728960" lon="-4.3086150">
        <ele>544.9</ele>
        <time>2019-08-13T10:09:38Z</time>
      </trkpt>
      <trkpt lat="40.0729270" lon="-4.3086400">
        <ele>545.0</ele>
        <time>2019-08-13T10:09:39Z</time>
      </trkpt>
      <trkpt lat="40.0729570" lon="-4.3086640">
        <ele>545.0</ele>
        <time>2019-08-13T10:09:40Z</time>
      </trkpt>
      <trkpt lat="40.0729880" lon="-4.3086880">
        <ele>545.0</ele>
        <time>2019-08-13T10:09:41Z</time>
      </trkpt>
      <trkpt lat="40.0730200" lon="-4.3087110">
        <ele>545.0</ele>
        <time>2019-08-13T10:09:42Z</time>
      </trkpt>
      <trkpt lat="40.0730510" lon="-4.3087360">
        <ele>545.0</ele>
        <time>2019-08-13T10:09:43Z</time>
      </trkpt>
      <trkpt lat="40.0730820" lon="-4.3087610">
        <ele>545.0</ele>
        <time>2019-08-13T10:09:44Z</time>
      </trkpt>
      <trkpt lat="40.0731130" lon="-4.3087860">
        <ele>545.0</ele>
        <time>2019-08-13T10:09:45Z</time>
      </trkpt>
      <trkpt lat="40.0731430" lon="-4.3088100">
        <ele>545.0</ele>
        <time>2019-08-13T10:09:46Z</time>
      </trkpt>
      <trkpt lat="40.0731720" lon="-4.3088340">
        <ele>544.9</ele>
        <time>2019-08-13T10:09:47Z</time>
      </trkpt>
      <trkpt lat="40.0732040" lon="-4.3088570">
        <ele>544.9</ele>
        <time>2019-08-13T10:09:48Z</time>
      </trkpt>
      <trkpt lat="40.0732370" lon="-4.3088840">
        <ele>544.8</ele>
        <time>2019-08-13T10:09:49Z</time>
      </trkpt>
      <trkpt lat="40.0732720" lon="-4.3089140">
        <ele>544.8</ele>
        <time>2019-08-13T10:09:50Z</time>
      </trkpt>
      <trkpt lat="40.0733080" lon="-4.3089470">
        <ele>544.7</ele>
        <time>2019-08-13T10:09:51Z</time>
      </trkpt>
      <trkpt lat="40.0733450" lon="-4.3089800">
        <ele>544.6</ele>
        <time>2019-08-13T10:09:52Z</time>
      </trkpt>
      <trkpt lat="40.0733840" lon="-4.3090150">
        <ele>544.6</ele>
        <time>2019-08-13T10:09:53Z</time>
      </trkpt>
      <trkpt lat="40.0734250" lon="-4.3090490">
        <ele>544.5</ele>
        <time>2019-08-13T10:09:54Z</time>
      </trkpt>
      <trkpt lat="40.0734660" lon="-4.3090840">
        <ele>544.4</ele>
        <time>2019-08-13T10:09:55Z</time>
      </trkpt>
      <trkpt lat="40.0735090" lon="-4.3091180">
        <ele>544.3</ele>
        <time>2019-08-13T10:09:56Z</time>
      </trkpt>
      <trkpt lat="40.0735540" lon="-4.3091510">
        <ele>544.2</ele>
        <time>2019-08-13T10:09:57Z</time>
      </trkpt>
      <trkpt lat="40.0736000" lon="-4.3091830">
        <ele>544.2</ele>
        <time>2019-08-13T10:09:58Z</time>
      </trkpt>
      <trkpt lat="40.0736460" lon="-4.3092130">
        <ele>544.1</ele>
        <time>2019-08-13T10:09:59Z</time>
      </trkpt>
      <trkpt lat="40.0736930" lon="-4.3092400">
        <ele>544.0</ele>
        <time>2019-08-13T10:10:00Z</time>
      </trkpt>
      <trkpt lat="40.0737410" lon="-4.3092680">
        <ele>543.9</ele>
        <time>2019-08-13T10:10:01Z</time>
      </trkpt>
      <trkpt lat="40.0737900" lon="-4.3092970">
        <ele>543.9</ele>
        <time>2019-08-13T10:10:02Z</time>
      </trkpt>
      <trkpt lat="40.0738410" lon="-4.3093270">
        <ele>543.8</ele>
        <time>2019-08-13T10:10:03Z</time>
      </trkpt>
      <trkpt lat="40.0738930" lon="-4.3093580">
        <ele>543.8</ele>
        <time>2019-08-13T10:10:04Z</time>
      </trkpt>
      <trkpt lat="40.0739470" lon="-4.3093870">
        <ele>543.7</ele>
        <time>2019-08-13T10:10:05Z</time>
      </trkpt>
      <trkpt lat="40.0740010" lon="-4.3094160">
        <ele>543.7</ele>
        <time>2019-08-13T10:10:06Z</time>
      </trkpt>
      <trkpt lat="40.0740550" lon="-4.3094470">
        <ele>543.6</ele>
        <time>2019-08-13T10:10:07Z</time>
      </trkpt>
      <trkpt lat="40.0741080" lon="-4.3094760">
        <ele>543.6</ele>
        <time>2019-08-13T10:10:08Z</time>
      </trkpt>
      <trkpt lat="40.0741590" lon="-4.3095060">
        <ele>543.6</ele>
        <time>2019-08-13T10:10:09Z</time>
      </trkpt>
      <trkpt lat="40.0742090" lon="-4.3095370">
        <ele>543.5</ele>
        <time>2019-08-13T10:10:10Z</time>
      </trkpt>
      <trkpt lat="40.0742600" lon="-4.3095680">
        <ele>543.5</ele>
        <time>2019-08-13T10:10:11Z</time>
      </trkpt>
      <trkpt lat="40.0743100" lon="-4.3096020">
        <ele>543.5</ele>
        <time>2019-08-13T10:10:12Z</time>
      </trkpt>
      <trkpt lat="40.0743610" lon="-4.3096400">
        <ele>543.4</ele>
        <time>2019-08-13T10:10:13Z</time>
      </trkpt>
      <trkpt lat="40.0744090" lon="-4.3096800">
        <ele>543.4</ele>
        <time>2019-08-13T10:10:14Z</time>
      </trkpt>
      <trkpt lat="40.0744550" lon="-4.3097170">
        <ele>543.4</ele>
        <time>2019-08-13T10:10:15Z</time>
      </trkpt>
      <trkpt lat="40.0745010" lon="-4.3097520">
        <ele>543.4</ele>
        <time>2019-08-13T10:10:16Z</time>
      </trkpt>
      <trkpt lat="40.0745460" lon="-4.3097860">
        <ele>543.4</ele>
        <time>2019-08-13T10:10:17Z</time>
      </trkpt>
      <trkpt lat="40.0745910" lon="-4.3098210">
        <ele>543.4</ele>
        <time>2019-08-13T10:10:18Z</time>
      </trkpt>
      <trkpt lat="40.0746370" lon="-4.3098580">
        <ele>543.4</ele>
        <time>2019-08-13T10:10:19Z</time>
      </trkpt>
      <trkpt lat="40.0746830" lon="-4.3098940">
        <ele>543.4</ele>
        <time>2019-08-13T10:10:20Z</time>
      </trkpt>
      <trkpt lat="40.0747300" lon="-4.3099300">
        <ele>543.3</ele>
        <time>2019-08-13T10:10:21Z</time>
      </trkpt>
      <trkpt lat="40.0747770" lon="-4.3099660">
        <ele>543.3</ele>
        <time>2019-08-13T10:10:22Z</time>
      </trkpt>
      <trkpt lat="40.0748250" lon="-4.3100010">
        <ele>543.3</ele>
        <time>2019-08-13T10:10:23Z</time>
      </trkpt>
      <trkpt lat="40.0748740" lon="-4.3100380">
        <ele>543.3</ele>
        <time>2019-08-13T10:10:24Z</time>
      </trkpt>
      <trkpt lat="40.0749230" lon="-4.3100740">
        <ele>543.3</ele>
        <time>2019-08-13T10:10:25Z</time>
      </trkpt>
      <trkpt lat="40.0749720" lon="-4.3101090">
        <ele>543.3</ele>
        <time>2019-08-13T10:10:26Z</time>
      </trkpt>
      <trkpt lat="40.0750200" lon="-4.3101420">
        <ele>543.4</ele>
        <time>2019-08-13T10:10:27Z</time>
      </trkpt>
      <trkpt lat="40.0750660" lon="-4.3101740">
        <ele>543.4</ele>
        <time>2019-08-13T10:10:28Z</time>
      </trkpt>
      <trkpt lat="40.0751140" lon="-4.3102050">
        <ele>543.4</ele>
        <time>2019-08-13T10:10:29Z</time>
      </trkpt>
      <trkpt lat="40.0751610" lon="-4.3102360">
        <ele>543.4</ele>
        <time>2019-08-13T10:10:30Z</time>
      </trkpt>
      <trkpt lat="40.0752080" lon="-4.3102680">
        <ele>543.5</ele>
        <time>2019-08-13T10:10:31Z</time>
      </trkpt>
      <trkpt lat="40.0752540" lon="-4.3103000">
        <ele>543.5</ele>
        <time>2019-08-13T10:10:32Z</time>
      </trkpt>
      <trkpt lat="40.0752990" lon="-4.3103350">
        <ele>543.6</ele>
        <time>2019-08-13T10:10:33Z</time>
      </trkpt>
      <trkpt lat="40.0753440" lon="-4.3103690">
        <ele>543.6</ele>
        <time>2019-08-13T10:10:34Z</time>
      </trkpt>
      <trkpt lat="40.0753890" lon="-4.3104040">
        <ele>543.7</ele>
        <time>2019-08-13T10:10:35Z</time>
      </trkpt>
      <trkpt lat="40.0754320" lon="-4.3104390">
        <ele>543.7</ele>
        <time>2019-08-13T10:10:36Z</time>
      </trkpt>
      <trkpt lat="40.0754750" lon="-4.3104750">
        <ele>543.8</ele>
        <time>2019-08-13T10:10:37Z</time>
      </trkpt>
      <trkpt lat="40.0755190" lon="-4.3105110">
        <ele>543.8</ele>
        <time>2019-08-13T10:10:38Z</time>
      </trkpt>
      <trkpt lat="40.0755620" lon="-4.3105460">
        <ele>543.9</ele>
        <time>2019-08-13T10:10:39Z</time>
      </trkpt>
      <trkpt lat="40.0756060" lon="-4.3105790">
        <ele>543.9</ele>
        <time>2019-08-13T10:10:40Z</time>
      </trkpt>
      <trkpt lat="40.0756500" lon="-4.3106110">
        <ele>543.9</ele>
        <time>2019-08-13T10:10:41Z</time>
      </trkpt>
      <trkpt lat="40.0756950" lon="-4.3106440">
        <ele>544.0</ele>
        <time>2019-08-13T10:10:42Z</time>
      </trkpt>
      <trkpt lat="40.0757390" lon="-4.3106760">
        <ele>544.0</ele>
        <time>2019-08-13T10:10:43Z</time>
      </trkpt>
      <trkpt lat="40.0757810" lon="-4.3107080">
        <ele>544.0</ele>
        <time>2019-08-13T10:10:44Z</time>
      </trkpt>
      <trkpt lat="40.0758240" lon="-4.3107420">
        <ele>544.0</ele>
        <time>2019-08-13T10:10:45Z</time>
      </trkpt>
      <trkpt lat="40.0758670" lon="-4.3107750">
        <ele>543.9</ele>
        <time>2019-08-13T10:10:46Z</time>
      </trkpt>
      <trkpt lat="40.0759100" lon="-4.3108110">
        <ele>543.8</ele>
        <time>2019-08-13T10:10:47Z</time>
      </trkpt>
      <trkpt lat="40.0759520" lon="-4.3108490">
        <ele>543.8</ele>
        <time>2019-08-13T10:10:48Z</time>
      </trkpt>
      <trkpt lat="40.0759940" lon="-4.3108920">
        <ele>543.7</ele>
        <time>2019-08-13T10:10:49Z</time>
      </trkpt>
      <trkpt lat="40.0760320" lon="-4.3109380">
        <ele>543.6</ele>
        <time>2019-08-13T10:10:50Z</time>
      </trkpt>
      <trkpt lat="40.0760720" lon="-4.3109840">
        <ele>543.5</ele>
        <time>2019-08-13T10:10:51Z</time>
      </trkpt>
      <trkpt lat="40.0761130" lon="-4.3110290">
        <ele>543.4</ele>
        <time>2019-08-13T10:10:52Z</time>
      </trkpt>
      <trkpt lat="40.0761550" lon="-4.3110720">
        <ele>543.3</ele>
        <time>2019-08-13T10:10:53Z</time>
      </trkpt>
      <trkpt lat="40.0761960" lon="-4.3111160">
        <ele>543.3</ele>
        <time>2019-08-13T10:10:54Z</time>
      </trkpt>
      <trkpt lat="40.0762390" lon="-4.3111580">
        <ele>543.2</ele>
        <time>2019-08-13T10:10:55Z</time>
      </trkpt>
      <trkpt lat="40.0762850" lon="-4.3111950">
        <ele>543.1</ele>
        <time>2019-08-13T10:10:56Z</time>
      </trkpt>
      <trkpt lat="40.0763310" lon="-4.3112280">
        <ele>543.1</ele>
        <time>2019-08-13T10:10:57Z</time>
      </trkpt>
      <trkpt lat="40.0763770" lon="-4.3112590">
        <ele>543.1</ele>
        <time>2019-08-13T10:10:58Z</time>
      </trkpt>
      <trkpt lat="40.0764240" lon="-4.3112880">
        <ele>543.0</ele>
        <time>2019-08-13T10:10:59Z</time>
      </trkpt>
      <trkpt lat="40.0764720" lon="-4.3113170">
        <ele>543.0</ele>
        <time>2019-08-13T10:11:00Z</time>
      </trkpt>
      <trkpt lat="40.0765210" lon="-4.3113460">
        <ele>542.9</ele>
        <time>2019-08-13T10:11:01Z</time>
      </trkpt>
      <trkpt lat="40.0765700" lon="-4.3113760">
        <ele>542.9</ele>
        <time>2019-08-13T10:11:02Z</time>
      </trkpt>
      <trkpt lat="40.0766200" lon="-4.3114070">
        <ele>542.8</ele>
        <time>2019-08-13T10:11:03Z</time>
      </trkpt>
      <trkpt lat="40.0766690" lon="-4.3114370">
        <ele>542.7</ele>
        <time>2019-08-13T10:11:04Z</time>
      </trkpt>
      <trkpt lat="40.0767200" lon="-4.3114670">
        <ele>542.6</ele>
        <time>2019-08-13T10:11:05Z</time>
      </trkpt>
      <trkpt lat="40.0767730" lon="-4.3114960">
        <ele>542.5</ele>
        <time>2019-08-13T10:11:06Z</time>
      </trkpt>
      <trkpt lat="40.0768260" lon="-4.3115250">
        <ele>542.4</ele>
        <time>2019-08-13T10:11:07Z</time>
      </trkpt>
      <trkpt lat="40.0768800" lon="-4.3115560">
        <ele>542.3</ele>
        <time>2019-08-13T10:11:08Z</time>
      </trkpt>
      <trkpt lat="40.0769330" lon="-4.3115850">
        <ele>542.1</ele>
        <time>2019-08-13T10:11:09Z</time>
      </trkpt>
      <trkpt lat="40.0769850" lon="-4.3116150">
        <ele>542.0</ele>
        <time>2019-08-13T10:11:10Z</time>
      </trkpt>
      <trkpt lat="40.0770370" lon="-4.3116430">
        <ele>541.9</ele>
        <time>2019-08-13T10:11:11Z</time>
      </trkpt>
      <trkpt lat="40.0770900" lon="-4.3116690">
        <ele>541.7</ele>
        <time>2019-08-13T10:11:12Z</time>
      </trkpt>
      <trkpt lat="40.0771430" lon="-4.3116920">
        <ele>541.6</ele>
        <time>2019-08-13T10:11:13Z</time>
      </trkpt>
      <trkpt lat="40.0771950" lon="-4.3117140">
        <ele>541.5</ele>
        <time>2019-08-13T10:11:14Z</time>
      </trkpt>
      <trkpt lat="40.0772450" lon="-4.3117350">
        <ele>541.4</ele>
        <time>2019-08-13T10:11:15Z</time>
      </trkpt>
      <trkpt lat="40.0772960" lon="-4.3117540">
        <ele>541.3</ele>
        <time>2019-08-13T10:11:16Z</time>
      </trkpt>
      <trkpt lat="40.0773490" lon="-4.3117740">
        <ele>541.3</ele>
        <time>2019-08-13T10:11:17Z</time>
      </trkpt>
      <trkpt lat="40.0774020" lon="-4.3117950">
        <ele>541.2</ele>
        <time>2019-08-13T10:11:18Z</time>
      </trkpt>
      <trkpt lat="40.0774570" lon="-4.3118160">
        <ele>541.1</ele>
        <time>2019-08-13T10:11:19Z</time>
      </trkpt>
      <trkpt lat="40.0775140" lon="-4.3118410">
        <ele>541.0</ele>
        <time>2019-08-13T10:11:20Z</time>
      </trkpt>
      <trkpt lat="40.0775710" lon="-4.3118670">
        <ele>540.9</ele>
        <time>2019-08-13T10:11:21Z</time>
      </trkpt>
      <trkpt lat="40.0776270" lon="-4.3118970">
        <ele>540.8</ele>
        <time>2019-08-13T10:11:22Z</time>
      </trkpt>
      <trkpt lat="40.0776830" lon="-4.3119260">
        <ele>540.7</ele>
        <time>2019-08-13T10:11:23Z</time>
      </trkpt>
      <trkpt lat="40.0777400" lon="-4.3119530">
        <ele>540.6</ele>
        <time>2019-08-13T10:11:24Z</time>
      </trkpt>
      <trkpt lat="40.0777970" lon="-4.3119790">
        <ele>540.6</ele>
        <time>2019-08-13T10:11:25Z</time>
      </trkpt>
      <trkpt lat="40.0778540" lon="-4.3120040">
        <ele>540.5</ele>
        <time>2019-08-13T10:11:26Z</time>
      </trkpt>
      <trkpt lat="40.0779110" lon="-4.3120290">
        <ele>540.4</ele>
        <time>2019-08-13T10:11:27Z</time>
      </trkpt>
      <trkpt lat="40.0779700" lon="-4.3120560">
        <ele>540.3</ele>
        <time>2019-08-13T10:11:28Z</time>
      </trkpt>
      <trkpt lat="40.0780280" lon="-4.3120850">
        <ele>540.2</ele>
        <time>2019-08-13T10:11:29Z</time>
      </trkpt>
      <trkpt lat="40.0780880" lon="-4.3121140">
        <ele>540.1</ele>
        <time>2019-08-13T10:11:30Z</time>
      </trkpt>
      <trkpt lat="40.0781470" lon="-4.3121420">
        <ele>540.0</ele>
        <time>2019-08-13T10:11:31Z</time>
      </trkpt>
      <trkpt lat="40.0782050" lon="-4.3121710">
        <ele>539.9</ele>
        <time>2019-08-13T10:11:32Z</time>
      </trkpt>
      <trkpt lat="40.0782620" lon="-4.3122010">
        <ele>539.8</ele>
        <time>2019-08-13T10:11:33Z</time>
      </trkpt>
      <trkpt lat="40.0783190" lon="-4.3122320">
        <ele>539.7</ele>
        <time>2019-08-13T10:11:34Z</time>
      </trkpt>
      <trkpt lat="40.0783740" lon="-4.3122620">
        <ele>539.6</ele>
        <time>2019-08-13T10:11:35Z</time>
      </trkpt>
      <trkpt lat="40.0784310" lon="-4.3122910">
        <ele>539.6</ele>
        <time>2019-08-13T10:11:36Z</time>
      </trkpt>
      <trkpt lat="40.0784880" lon="-4.3123210">
        <ele>539.5</ele>
        <time>2019-08-13T10:11:37Z</time>
      </trkpt>
      <trkpt lat="40.0785470" lon="-4.3123500">
        <ele>539.4</ele>
        <time>2019-08-13T10:11:38Z</time>
      </trkpt>
      <trkpt lat="40.0786070" lon="-4.3123820">
        <ele>539.4</ele>
        <time>2019-08-13T10:11:39Z</time>
      </trkpt>
      <trkpt lat="40.0786690" lon="-4.3124130">
        <ele>539.3</ele>
        <time>2019-08-13T10:11:40Z</time>
      </trkpt>
      <trkpt lat="40.0787310" lon="-4.3124460">
        <ele>539.2</ele>
        <time>2019-08-13T10:11:41Z</time>
      </trkpt>
      <trkpt lat="40.0787940" lon="-4.3124810">
        <ele>539.1</ele>
        <time>2019-08-13T10:11:42Z</time>
      </trkpt>
      <trkpt lat="40.0788580" lon="-4.3125180">
        <ele>539.1</ele>
        <time>2019-08-13T10:11:43Z</time>
      </trkpt>
      <trkpt lat="40.0789200" lon="-4.3125560">
        <ele>538.9</ele>
        <time>2019-08-13T10:11:44Z</time>
      </trkpt>
      <trkpt lat="40.0789820" lon="-4.3125940">
        <ele>538.8</ele>
        <time>2019-08-13T10:11:45Z</time>
      </trkpt>
      <trkpt lat="40.0790440" lon="-4.3126350">
        <ele>538.7</ele>
        <time>2019-08-13T10:11:46Z</time>
      </trkpt>
      <trkpt lat="40.0791060" lon="-4.3126750">
        <ele>538.5</ele>
        <time>2019-08-13T10:11:47Z</time>
      </trkpt>
      <trkpt lat="40.0791680" lon="-4.3127170">
        <ele>538.4</ele>
        <time>2019-08-13T10:11:48Z</time>
      </trkpt>
      <trkpt lat="40.0792280" lon="-4.3127650">
        <ele>538.2</ele>
        <time>2019-08-13T10:11:49Z</time>
      </trkpt>
      <trkpt lat="40.0792840" lon="-4.3128150">
        <ele>538.0</ele>
        <time>2019-08-13T10:11:50Z</time>
      </trkpt>
      <trkpt lat="40.0793410" lon="-4.3128660">
        <ele>537.8</ele>
        <time>2019-08-13T10:11:51Z</time>
      </trkpt>
      <trkpt lat="40.0794010" lon="-4.3129160">
        <ele>537.6</ele>
        <time>2019-08-13T10:11:52Z</time>
      </trkpt>
      <trkpt lat="40.0794630" lon="-4.3129650">
        <ele>537.4</ele>
        <time>2019-08-13T10:11:53Z</time>
      </trkpt>
      <trkpt lat="40.0795270" lon="-4.3130130">
        <ele>537.1</ele>
        <time>2019-08-13T10:11:54Z</time>
      </trkpt>
      <trkpt lat="40.0795910" lon="-4.3130580">
        <ele>536.8</ele>
        <time>2019-08-13T10:11:55Z</time>
      </trkpt>
      <trkpt lat="40.0796540" lon="-4.3131040">
        <ele>536.5</ele>
        <time>2019-08-13T10:11:56Z</time>
      </trkpt>
      <trkpt lat="40.0797180" lon="-4.3131500">
        <ele>536.2</ele>
        <time>2019-08-13T10:11:57Z</time>
      </trkpt>
      <trkpt lat="40.0797820" lon="-4.3131960">
        <ele>535.9</ele>
        <time>2019-08-13T10:11:58Z</time>
      </trkpt>
      <trkpt lat="40.0798470" lon="-4.3132420">
        <ele>535.6</ele>
        <time>2019-08-13T10:11:59Z</time>
      </trkpt>
      <trkpt lat="40.0799130" lon="-4.3132860">
        <ele>535.2</ele>
        <time>2019-08-13T10:12:00Z</time>
      </trkpt>
      <trkpt lat="40.0799820" lon="-4.3133270">
        <ele>534.9</ele>
        <time>2019-08-13T10:12:01Z</time>
      </trkpt>
      <trkpt lat="40.0800520" lon="-4.3133660">
        <ele>534.7</ele>
        <time>2019-08-13T10:12:02Z</time>
      </trkpt>
      <trkpt lat="40.0801240" lon="-4.3134070">
        <ele>534.4</ele>
        <time>2019-08-13T10:12:03Z</time>
      </trkpt>
      <trkpt lat="40.0801950" lon="-4.3134520">
        <ele>534.2</ele>
        <time>2019-08-13T10:12:04Z</time>
      </trkpt>
      <trkpt lat="40.0802690" lon="-4.3135000">
        <ele>534.0</ele>
        <time>2019-08-13T10:12:05Z</time>
      </trkpt>
      <trkpt lat="40.0803430" lon="-4.3135490">
        <ele>533.8</ele>
        <time>2019-08-13T10:12:06Z</time>
      </trkpt>
      <trkpt lat="40.0804150" lon="-4.3136010">
        <ele>533.7</ele>
        <time>2019-08-13T10:12:07Z</time>
      </trkpt>
      <trkpt lat="40.0804890" lon="-4.3136520">
        <ele>533.6</ele>
        <time>2019-08-13T10:12:08Z</time>
      </trkpt>
      <trkpt lat="40.0805610" lon="-4.3137030">
        <ele>533.5</ele>
        <time>2019-08-13T10:12:09Z</time>
      </trkpt>
      <trkpt lat="40.0806320" lon="-4.3137550">
        <ele>533.4</ele>
        <time>2019-08-13T10:12:10Z</time>
      </trkpt>
      <trkpt lat="40.0807030" lon="-4.3138070">
        <ele>533.3</ele>
        <time>2019-08-13T10:12:11Z</time>
      </trkpt>
      <trkpt lat="40.0807720" lon="-4.3138580">
        <ele>533.2</ele>
        <time>2019-08-13T10:12:12Z</time>
      </trkpt>
      <trkpt lat="40.0808400" lon="-4.3139120">
        <ele>533.1</ele>
        <time>2019-08-13T10:12:13Z</time>
      </trkpt>
      <trkpt lat="40.0809060" lon="-4.3139650">
        <ele>533.0</ele>
        <time>2019-08-13T10:12:14Z</time>
      </trkpt>
      <trkpt lat="40.0809720" lon="-4.3140150">
        <ele>532.9</ele>
        <time>2019-08-13T10:12:15Z</time>
      </trkpt>
      <trkpt lat="40.0810370" lon="-4.3140640">
        <ele>532.8</ele>
        <time>2019-08-13T10:12:16Z</time>
      </trkpt>
      <trkpt lat="40.0810960" lon="-4.3141140">
        <ele>532.6</ele>
        <time>2019-08-13T10:12:17Z</time>
      </trkpt>
      <trkpt lat="40.0811530" lon="-4.3141630">
        <ele>532.6</ele>
        <time>2019-08-13T10:12:18Z</time>
      </trkpt>
      <trkpt lat="40.0812090" lon="-4.3142130">
        <ele>532.5</ele>
        <time>2019-08-13T10:12:19Z</time>
      </trkpt>
      <trkpt lat="40.0812620" lon="-4.3142670">
        <ele>532.4</ele>
        <time>2019-08-13T10:12:20Z</time>
      </trkpt>
      <trkpt lat="40.0813120" lon="-4.3143190">
        <ele>532.4</ele>
        <time>2019-08-13T10:12:21Z</time>
      </trkpt>
      <trkpt lat="40.0813620" lon="-4.3143720">
        <ele>532.3</ele>
        <time>2019-08-13T10:12:22Z</time>
      </trkpt>
      <trkpt lat="40.0814110" lon="-4.3144230">
        <ele>532.3</ele>
        <time>2019-08-13T10:12:23Z</time>
      </trkpt>
      <trkpt lat="40.0814600" lon="-4.3144740">
        <ele>532.2</ele>
        <time>2019-08-13T10:12:24Z</time>
      </trkpt>
      <trkpt lat="40.0815090" lon="-4.3145220">
        <ele>532.2</ele>
        <time>2019-08-13T10:12:25Z</time>
      </trkpt>
      <trkpt lat="40.0815580" lon="-4.3145690">
        <ele>532.1</ele>
        <time>2019-08-13T10:12:26Z</time>
      </trkpt>
      <trkpt lat="40.0816070" lon="-4.3146130">
        <ele>532.0</ele>
        <time>2019-08-13T10:12:27Z</time>
      </trkpt>
      <trkpt lat="40.0816570" lon="-4.3146560">
        <ele>531.9</ele>
        <time>2019-08-13T10:12:28Z</time>
      </trkpt>
      <trkpt lat="40.0817060" lon="-4.3146950">
        <ele>531.9</ele>
        <time>2019-08-13T10:12:29Z</time>
      </trkpt>
      <trkpt lat="40.0817560" lon="-4.3147320">
        <ele>531.8</ele>
        <time>2019-08-13T10:12:30Z</time>
      </trkpt>
      <trkpt lat="40.0818070" lon="-4.3147670">
        <ele>531.7</ele>
        <time>2019-08-13T10:12:31Z</time>
      </trkpt>
      <trkpt lat="40.0818560" lon="-4.3148010">
        <ele>531.6</ele>
        <time>2019-08-13T10:12:32Z</time>
      </trkpt>
      <trkpt lat="40.0819030" lon="-4.3148350">
        <ele>531.5</ele>
        <time>2019-08-13T10:12:33Z</time>
      </trkpt>
      <trkpt lat="40.0819480" lon="-4.3148680">
        <ele>531.4</ele>
        <time>2019-08-13T10:12:34Z</time>
      </trkpt>
      <trkpt lat="40.0819900" lon="-4.3149010">
        <ele>531.3</ele>
        <time>2019-08-13T10:12:35Z</time>
      </trkpt>
      <trkpt lat="40.0820320" lon="-4.3149330">
        <ele>531.2</ele>
        <time>2019-08-13T10:12:36Z</time>
      </trkpt>
      <trkpt lat="40.0820730" lon="-4.3149650">
        <ele>531.1</ele>
        <time>2019-08-13T10:12:37Z</time>
      </trkpt>
      <trkpt lat="40.0821110" lon="-4.3149960">
        <ele>531.0</ele>
        <time>2019-08-13T10:12:38Z</time>
      </trkpt>
      <trkpt lat="40.0821490" lon="-4.3150250">
        <ele>530.9</ele>
        <time>2019-08-13T10:12:39Z</time>
      </trkpt>
      <trkpt lat="40.0821860" lon="-4.3150520">
        <ele>530.8</ele>
        <time>2019-08-13T10:12:40Z</time>
      </trkpt>
      <trkpt lat="40.0822220" lon="-4.3150800">
        <ele>530.6</ele>
        <time>2019-08-13T10:12:41Z</time>
      </trkpt>
      <trkpt lat="40.0822610" lon="-4.3151070">
        <ele>530.5</ele>
        <time>2019-08-13T10:12:42Z</time>
      </trkpt>
      <trkpt lat="40.0823030" lon="-4.3151350">
        <ele>530.4</ele>
        <time>2019-08-13T10:12:43Z</time>
      </trkpt>
      <trkpt lat="40.0823490" lon="-4.3151650">
        <ele>530.2</ele>
        <time>2019-08-13T10:12:44Z</time>
      </trkpt>
      <trkpt lat="40.0823950" lon="-4.3151970">
        <ele>530.0</ele>
        <time>2019-08-13T10:12:45Z</time>
      </trkpt>
      <trkpt lat="40.0824430" lon="-4.3152300">
        <ele>529.9</ele>
        <time>2019-08-13T10:12:46Z</time>
      </trkpt>
      <trkpt lat="40.0824920" lon="-4.3152600">
        <ele>529.7</ele>
        <time>2019-08-13T10:12:47Z</time>
      </trkpt>
      <trkpt lat="40.0825420" lon="-4.3152900">
        <ele>529.5</ele>
        <time>2019-08-13T10:12:48Z</time>
      </trkpt>
      <trkpt lat="40.0825940" lon="-4.3153200">
        <ele>529.4</ele>
        <time>2019-08-13T10:12:49Z</time>
      </trkpt>
      <trkpt lat="40.0826490" lon="-4.3153490">
        <ele>529.2</ele>
        <time>2019-08-13T10:12:50Z</time>
      </trkpt>
      <trkpt lat="40.0827050" lon="-4.3153790">
        <ele>529.0</ele>
        <time>2019-08-13T10:12:51Z</time>
      </trkpt>
      <trkpt lat="40.0827610" lon="-4.3154100">
        <ele>528.7</ele>
        <time>2019-08-13T10:12:52Z</time>
      </trkpt>
      <trkpt lat="40.0828170" lon="-4.3154430">
        <ele>528.5</ele>
        <time>2019-08-13T10:12:53Z</time>
      </trkpt>
      <trkpt lat="40.0828760" lon="-4.3154750">
        <ele>528.3</ele>
        <time>2019-08-13T10:12:54Z</time>
      </trkpt>
      <trkpt lat="40.0829340" lon="-4.3155080">
        <ele>528.1</ele>
        <time>2019-08-13T10:12:55Z</time>
      </trkpt>
      <trkpt lat="40.0829940" lon="-4.3155420">
        <ele>527.9</ele>
        <time>2019-08-13T10:12:56Z</time>
      </trkpt>
      <trkpt lat="40.0830540" lon="-4.3155740">
        <ele>527.7</ele>
        <time>2019-08-13T10:12:57Z</time>
      </trkpt>
      <trkpt lat="40.0831160" lon="-4.3156070">
        <ele>527.4</ele>
        <time>2019-08-13T10:12:58Z</time>
      </trkpt>
      <trkpt lat="40.0831790" lon="-4.3156380">
        <ele>527.1</ele>
        <time>2019-08-13T10:12:59Z</time>
      </trkpt>
      <trkpt lat="40.0832420" lon="-4.3156680">
        <ele>526.9</ele>
        <time>2019-08-13T10:13:00Z</time>
      </trkpt>
      <trkpt lat="40.0833070" lon="-4.3156990">
        <ele>526.5</ele>
        <time>2019-08-13T10:13:01Z</time>
      </trkpt>
      <trkpt lat="40.0833720" lon="-4.3157270">
        <ele>526.2</ele>
        <time>2019-08-13T10:13:02Z</time>
      </trkpt>
      <trkpt lat="40.0834390" lon="-4.3157540">
        <ele>525.9</ele>
        <time>2019-08-13T10:13:03Z</time>
      </trkpt>
      <trkpt lat="40.0835040" lon="-4.3157830">
        <ele>525.6</ele>
        <time>2019-08-13T10:13:04Z</time>
      </trkpt>
      <trkpt lat="40.0835690" lon="-4.3158140">
        <ele>525.3</ele>
        <time>2019-08-13T10:13:05Z</time>
      </trkpt>
      <trkpt lat="40.0836350" lon="-4.3158470">
        <ele>525.0</ele>
        <time>2019-08-13T10:13:06Z</time>
      </trkpt>
      <trkpt lat="40.0837010" lon="-4.3158800">
        <ele>524.7</ele>
        <time>2019-08-13T10:13:07Z</time>
      </trkpt>
      <trkpt lat="40.0837660" lon="-4.3159140">
        <ele>524.4</ele>
        <time>2019-08-13T10:13:08Z</time>
      </trkpt>
      <trkpt lat="40.0838310" lon="-4.3159500">
        <ele>524.1</ele>
        <time>2019-08-13T10:13:09Z</time>
      </trkpt>
      <trkpt lat="40.0838960" lon="-4.3159850">
        <ele>523.7</ele>
        <time>2019-08-13T10:13:10Z</time>
      </trkpt>
      <trkpt lat="40.0839600" lon="-4.3160230">
        <ele>523.2</ele>
        <time>2019-08-13T10:13:11Z</time>
      </trkpt>
      <trkpt lat="40.0840200" lon="-4.3160580">
        <ele>522.8</ele>
        <time>2019-08-13T10:13:12Z</time>
      </trkpt>
      <trkpt lat="40.0840780" lon="-4.3160890">
        <ele>522.3</ele>
        <time>2019-08-13T10:13:13Z</time>
      </trkpt>
      <trkpt lat="40.0841340" lon="-4.3161170">
        <ele>521.8</ele>
        <time>2019-08-13T10:13:14Z</time>
      </trkpt>
      <trkpt lat="40.0841950" lon="-4.3161410">
        <ele>521.2</ele>
        <time>2019-08-13T10:13:15Z</time>
      </trkpt>
      <trkpt lat="40.0842620" lon="-4.3161550">
        <ele>520.6</ele>
        <time>2019-08-13T10:13:16Z</time>
      </trkpt>
      <trkpt lat="40.0843340" lon="-4.3161550">
        <ele>519.9</ele>
        <time>2019-08-13T10:13:17Z</time>
      </trkpt>
      <trkpt lat="40.0844110" lon="-4.3161400">
        <ele>519.0</ele>
        <time>2019-08-13T10:13:18Z</time>
      </trkpt>
      <trkpt lat="40.0844890" lon="-4.3161190">
        <ele>518.2</ele>
        <time>2019-08-13T10:13:19Z</time>
      </trkpt>
      <trkpt lat="40.0845710" lon="-4.3161010">
        <ele>517.2</ele>
        <time>2019-08-13T10:13:20Z</time>
      </trkpt>
      <trkpt lat="40.0846570" lon="-4.3160900">
        <ele>516.2</ele>
        <time>2019-08-13T10:13:21Z</time>
      </trkpt>
      <trkpt lat="40.0847450" lon="-4.3160870">
        <ele>515.3</ele>
        <time>2019-08-13T10:13:22Z</time>
      </trkpt>
      <trkpt lat="40.0848310" lon="-4.3160920">
        <ele>514.5</ele>
        <time>2019-08-13T10:13:23Z</time>
      </trkpt>
      <trkpt lat="40.0849080" lon="-4.3161010">
        <ele>513.9</ele>
        <time>2019-08-13T10:13:24Z</time>
      </trkpt>
      <trkpt lat="40.0849770" lon="-4.3161070">
        <ele>513.4</ele>
        <time>2019-08-13T10:13:25Z</time>
      </trkpt>
      <trkpt lat="40.0850430" lon="-4.3160990">
        <ele>513.2</ele>
        <time>2019-08-13T10:13:26Z</time>
      </trkpt>
      <trkpt lat="40.0851080" lon="-4.3160730">
        <ele>513.0</ele>
        <time>2019-08-13T10:13:27Z</time>
      </trkpt>
      <trkpt lat="40.0851670" lon="-4.3160400">
        <ele>512.9</ele>
        <time>2019-08-13T10:13:28Z</time>
      </trkpt>
      <trkpt lat="40.0852220" lon="-4.3160140">
        <ele>512.9</ele>
        <time>2019-08-13T10:13:29Z</time>
      </trkpt>
      <trkpt lat="40.0852740" lon="-4.3159950">
        <ele>512.9</ele>
        <time>2019-08-13T10:13:30Z</time>
      </trkpt>
      <trkpt lat="40.0853280" lon="-4.3159830">
        <ele>513.0</ele>
        <time>2019-08-13T10:13:31Z</time>
      </trkpt>
      <trkpt lat="40.0853790" lon="-4.3159810">
        <ele>513.2</ele>
        <time>2019-08-13T10:13:32Z</time>
      </trkpt>
      <trkpt lat="40.0854270" lon="-4.3159850">
        <ele>513.3</ele>
        <time>2019-08-13T10:13:33Z</time>
      </trkpt>
      <trkpt lat="40.0854720" lon="-4.3159910">
        <ele>513.4</ele>
        <time>2019-08-13T10:13:34Z</time>
      </trkpt>
      <trkpt lat="40.0855150" lon="-4.3159960">
        <ele>513.6</ele>
        <time>2019-08-13T10:13:35Z</time>
      </trkpt>
      <trkpt lat="40.0855570" lon="-4.3160000">
        <ele>513.7</ele>
        <time>2019-08-13T10:13:36Z</time>
      </trkpt>
      <trkpt lat="40.0855980" lon="-4.3160050">
        <ele>513.8</ele>
        <time>2019-08-13T10:13:37Z</time>
      </trkpt>
      <trkpt lat="40.0856370" lon="-4.3160080">
        <ele>513.9</ele>
        <time>2019-08-13T10:13:38Z</time>
      </trkpt>
      <trkpt lat="40.0856750" lon="-4.3160120">
        <ele>514.1</ele>
        <time>2019-08-13T10:13:39Z</time>
      </trkpt>
      <trkpt lat="40.0857120" lon="-4.3160150">
        <ele>514.2</ele>
        <time>2019-08-13T10:13:40Z</time>
      </trkpt>
      <trkpt lat="40.0857490" lon="-4.3160190">
        <ele>514.3</ele>
        <time>2019-08-13T10:13:41Z</time>
      </trkpt>
      <trkpt lat="40.0857850" lon="-4.3160240">
        <ele>514.5</ele>
        <time>2019-08-13T10:13:42Z</time>
      </trkpt>
      <trkpt lat="40.0858210" lon="-4.3160270">
        <ele>514.6</ele>
        <time>2019-08-13T10:13:43Z</time>
      </trkpt>
      <trkpt lat="40.0858570" lon="-4.3160310">
        <ele>514.7</ele>
        <time>2019-08-13T10:13:44Z</time>
      </trkpt>
      <trkpt lat="40.0858930" lon="-4.3160360">
        <ele>514.9</ele>
        <time>2019-08-13T10:13:45Z</time>
      </trkpt>
      <trkpt lat="40.0859280" lon="-4.3160420">
        <ele>515.0</ele>
        <time>2019-08-13T10:13:46Z</time>
      </trkpt>
      <trkpt lat="40.0859620" lon="-4.3160480">
        <ele>515.1</ele>
        <time>2019-08-13T10:13:47Z</time>
      </trkpt>
      <trkpt lat="40.0859970" lon="-4.3160530">
        <ele>515.3</ele>
        <time>2019-08-13T10:13:48Z</time>
      </trkpt>
      <trkpt lat="40.0860310" lon="-4.3160570">
        <ele>515.4</ele>
        <time>2019-08-13T10:13:49Z</time>
      </trkpt>
      <trkpt lat="40.0860670" lon="-4.3160640">
        <ele>515.5</ele>
        <time>2019-08-13T10:13:50Z</time>
      </trkpt>
      <trkpt lat="40.0861030" lon="-4.3160720">
        <ele>515.7</ele>
        <time>2019-08-13T10:13:51Z</time>
      </trkpt>
      <trkpt lat="40.0861390" lon="-4.3160780">
        <ele>515.8</ele>
        <time>2019-08-13T10:13:52Z</time>
      </trkpt>
      <trkpt lat="40.0861750" lon="-4.3160840">
        <ele>515.9</ele>
        <time>2019-08-13T10:13:53Z</time>
      </trkpt>
      <trkpt lat="40.0862130" lon="-4.3160900">
        <ele>516.1</ele>
        <time>2019-08-13T10:13:54Z</time>
      </trkpt>
      <trkpt lat="40.0862500" lon="-4.3160960">
        <ele>516.2</ele>
        <time>2019-08-13T10:13:55Z</time>
      </trkpt>
      <trkpt lat="40.0862880" lon="-4.3161030">
        <ele>516.4</ele>
        <time>2019-08-13T10:13:56Z</time>
      </trkpt>
      <trkpt lat="40.0863260" lon="-4.3161120">
        <ele>516.5</ele>
        <time>2019-08-13T10:13:57Z</time>
      </trkpt>
      <trkpt lat="40.0863630" lon="-4.3161210">
        <ele>516.7</ele>
        <time>2019-08-13T10:13:58Z</time>
      </trkpt>
      <trkpt lat="40.0864010" lon="-4.3161310">
        <ele>516.8</ele>
        <time>2019-08-13T10:13:59Z</time>
      </trkpt>
      <trkpt lat="40.0864390" lon="-4.3161380">
        <ele>517.0</ele>
        <time>2019-08-13T10:14:00Z</time>
      </trkpt>
      <trkpt lat="40.0864760" lon="-4.3161430">
        <ele>517.1</ele>
        <time>2019-08-13T10:14:01Z</time>
      </trkpt>
      <trkpt lat="40.0865120" lon="-4.3161470">
        <ele>517.3</ele>
        <time>2019-08-13T10:14:02Z</time>
      </trkpt>
      <trkpt lat="40.0865490" lon="-4.3161520">
        <ele>517.4</ele>
        <time>2019-08-13T10:14:03Z</time>
      </trkpt>
      <trkpt lat="40.0865850" lon="-4.3161580">
        <ele>517.6</ele>
        <time>2019-08-13T10:14:04Z</time>
      </trkpt>
      <trkpt lat="40.0866200" lon="-4.3161630">
        <ele>517.7</ele>
        <time>2019-08-13T10:14:05Z</time>
      </trkpt>
      <trkpt lat="40.0866560" lon="-4.3161680">
        <ele>517.8</ele>
        <time>2019-08-13T10:14:06Z</time>
      </trkpt>
      <trkpt lat="40.0866920" lon="-4.3161750">
        <ele>518.0</ele>
        <time>2019-08-13T10:14:07Z</time>
      </trkpt>
      <trkpt lat="40.0867270" lon="-4.3161840">
        <ele>518.1</ele>
        <time>2019-08-13T10:14:08Z</time>
      </trkpt>
      <trkpt lat="40.0867630" lon="-4.3161920">
        <ele>518.2</ele>
        <time>2019-08-13T10:14:09Z</time>
      </trkpt>
      <trkpt lat="40.0867990" lon="-4.3162000">
        <ele>518.4</ele>
        <time>2019-08-13T10:14:10Z</time>
      </trkpt>
      <trkpt lat="40.0868360" lon="-4.3162070">
        <ele>518.5</ele>
        <time>2019-08-13T10:14:11Z</time>
      </trkpt>
      <trkpt lat="40.0868710" lon="-4.3162130">
        <ele>518.6</ele>
        <time>2019-08-13T10:14:12Z</time>
      </trkpt>
      <trkpt lat="40.0869060" lon="-4.3162210">
        <ele>518.7</ele>
        <time>2019-08-13T10:14:13Z</time>
      </trkpt>
      <trkpt lat="40.0869420" lon="-4.3162290">
        <ele>518.9</ele>
        <time>2019-08-13T10:14:14Z</time>
      </trkpt>
      <trkpt lat="40.0869790" lon="-4.3162380">
        <ele>519.0</ele>
        <time>2019-08-13T10:14:15Z</time>
      </trkpt>
      <trkpt lat="40.0870150" lon="-4.3162460">
        <ele>519.1</ele>
        <time>2019-08-13T10:14:16Z</time>
      </trkpt>
      <trkpt lat="40.0870500" lon="-4.3162540">
        <ele>519.2</ele>
        <time>2019-08-13T10:14:17Z</time>
      </trkpt>
      <trkpt lat="40.0870860" lon="-4.3162620">
        <ele>519.3</ele>
        <time>2019-08-13T10:14:18Z</time>
      </trkpt>
      <trkpt lat="40.0871220" lon="-4.3162690">
        <ele>519.5</ele>
        <time>2019-08-13T10:14:19Z</time>
      </trkpt>
      <trkpt lat="40.0871580" lon="-4.3162760">
        <ele>519.6</ele>
        <time>2019-08-13T10:14:20Z</time>
      </trkpt>
      <trkpt lat="40.0871930" lon="-4.3162830">
        <ele>519.8</ele>
        <time>2019-08-13T10:14:21Z</time>
      </trkpt>
      <trkpt lat="40.0872290" lon="-4.3162890">
        <ele>519.9</ele>
        <time>2019-08-13T10:14:22Z</time>
      </trkpt>
      <trkpt lat="40.0872640" lon="-4.3162940">
        <ele>520.0</ele>
        <time>2019-08-13T10:14:23Z</time>
      </trkpt>
      <trkpt lat="40.0873000" lon="-4.3162960">
        <ele>520.2</ele>
        <time>2019-08-13T10:14:24Z</time>
      </trkpt>
      <trkpt lat="40.0873340" lon="-4.3162970">
        <ele>520.3</ele>
        <time>2019-08-13T10:14:25Z</time>
      </trkpt>
      <trkpt lat="40.0873670" lon="-4.3162940">
        <ele>520.5</ele>
        <time>2019-08-13T10:14:26Z</time>
      </trkpt>
      <trkpt lat="40.0874000" lon="-4.3162900">
        <ele>520.6</ele>
        <time>2019-08-13T10:14:27Z</time>
      </trkpt>
      <trkpt lat="40.0874320" lon="-4.3162820">
        <ele>520.8</ele>
        <time>2019-08-13T10:14:28Z</time>
      </trkpt>
      <trkpt lat="40.0874640" lon="-4.3162720">
        <ele>521.0</ele>
        <time>2019-08-13T10:14:29Z</time>
      </trkpt>
      <trkpt lat="40.0874940" lon="-4.3162620">
        <ele>521.2</ele>
        <time>2019-08-13T10:14:30Z</time>
      </trkpt>
      <trkpt lat="40.0875230" lon="-4.3162520">
        <ele>521.4</ele>
        <time>2019-08-13T10:14:31Z</time>
      </trkpt>
      <trkpt lat="40.0875520" lon="-4.3162430">
        <ele>521.5</ele>
        <time>2019-08-13T10:14:32Z</time>
      </trkpt>
      <trkpt lat="40.0875810" lon="-4.3162340">
        <ele>521.7</ele>
        <time>2019-08-13T10:14:33Z</time>
      </trkpt>
      <trkpt lat="40.0876100" lon="-4.3162250">
        <ele>521.9</ele>
        <time>2019-08-13T10:14:34Z</time>
      </trkpt>
      <trkpt lat="40.0876370" lon="-4.3162130">
        <ele>522.1</ele>
        <time>2019-08-13T10:14:35Z</time>
      </trkpt>
      <trkpt lat="40.0876640" lon="-4.3162000">
        <ele>522.3</ele>
        <time>2019-08-13T10:14:36Z</time>
      </trkpt>
      <trkpt lat="40.0876910" lon="-4.3161900">
        <ele>522.4</ele>
        <time>2019-08-13T10:14:37Z</time>
      </trkpt>
      <trkpt lat="40.0877180" lon="-4.3161830">
        <ele>522.7</ele>
        <time>2019-08-13T10:14:38Z</time>
      </trkpt>
      <trkpt lat="40.0877690" lon="-4.3161670">
        <ele>523.1</ele>
        <time>2019-08-13T10:14:40Z</time>
      </trkpt>
      <trkpt lat="40.0878150" lon="-4.3161470">
        <ele>523.5</ele>
        <time>2019-08-13T10:14:42Z</time>
      </trkpt>
      <trkpt lat="40.0878570" lon="-4.3161340">
        <ele>523.9</ele>
        <time>2019-08-13T10:14:44Z</time>
      </trkpt>
      <trkpt lat="40.0878980" lon="-4.3161210">
        <ele>524.2</ele>
        <time>2019-08-13T10:14:46Z</time>
      </trkpt>
      <trkpt lat="40.0879380" lon="-4.3161120">
        <ele>524.5</ele>
        <time>2019-08-13T10:14:48Z</time>
      </trkpt>
      <trkpt lat="40.0879770" lon="-4.3161040">
        <ele>524.9</ele>
        <time>2019-08-13T10:14:50Z</time>
      </trkpt>
      <trkpt lat="40.0880150" lon="-4.3160990">
        <ele>525.2</ele>
        <time>2019-08-13T10:14:52Z</time>
      </trkpt>
      <trkpt lat="40.0880500" lon="-4.3160970">
        <ele>525.5</ele>
        <time>2019-08-13T10:14:54Z</time>
      </trkpt>
      <trkpt lat="40.0880850" lon="-4.3160920">
        <ele>525.9</ele>
        <time>2019-08-13T10:14:56Z</time>
      </trkpt>
      <trkpt lat="40.0881190" lon="-4.3160890">
        <ele>526.2</ele>
        <time>2019-08-13T10:14:58Z</time>
      </trkpt>
      <trkpt lat="40.0881530" lon="-4.3160900">
        <ele>526.6</ele>
        <time>2019-08-13T10:15:00Z</time>
      </trkpt>
      <trkpt lat="40.0881880" lon="-4.3160970">
        <ele>527.0</ele>
        <time>2019-08-13T10:15:02Z</time>
      </trkpt>
      <trkpt lat="40.0882250" lon="-4.3161000">
        <ele>527.4</ele>
        <time>2019-08-13T10:15:04Z</time>
      </trkpt>
      <trkpt lat="40.0882610" lon="-4.3161050">
        <ele>527.7</ele>
        <time>2019-08-13T10:15:06Z</time>
      </trkpt>
      <trkpt lat="40.0882970" lon="-4.3161150">
        <ele>528.1</ele>
        <time>2019-08-13T10:15:08Z</time>
      </trkpt>
      <trkpt lat="40.0883330" lon="-4.3161320">
        <ele>528.6</ele>
        <time>2019-08-13T10:15:10Z</time>
      </trkpt>
      <trkpt lat="40.0883690" lon="-4.3161530">
        <ele>529.0</ele>
        <time>2019-08-13T10:15:12Z</time>
      </trkpt>
      <trkpt lat="40.0884030" lon="-4.3161750">
        <ele>529.5</ele>
        <time>2019-08-13T10:15:14Z</time>
      </trkpt>
      <trkpt lat="40.0884360" lon="-4.3162000">
        <ele>529.9</ele>
        <time>2019-08-13T10:15:16Z</time>
      </trkpt>
      <trkpt lat="40.0884670" lon="-4.3162290">
        <ele>530.4</ele>
        <time>2019-08-13T10:15:18Z</time>
      </trkpt>
      <trkpt lat="40.0885000" lon="-4.3162570">
        <ele>530.8</ele>
        <time>2019-08-13T10:15:20Z</time>
      </trkpt>
      <trkpt lat="40.0885320" lon="-4.3162860">
        <ele>531.1</ele>
        <time>2019-08-13T10:15:22Z</time>
      </trkpt>
      <trkpt lat="40.0885650" lon="-4.3163120">
        <ele>531.5</ele>
        <time>2019-08-13T10:15:24Z</time>
      </trkpt>
      <trkpt lat="40.0885980" lon="-4.3163370">
        <ele>531.9</ele>
        <time>2019-08-13T10:15:26Z</time>
      </trkpt>
      <trkpt lat="40.0886320" lon="-4.3163630">
        <ele>532.2</ele>
        <time>2019-08-13T10:15:28Z</time>
      </trkpt>
      <trkpt lat="40.0886660" lon="-4.3163950">
        <ele>532.6</ele>
        <time>2019-08-13T10:15:30Z</time>
      </trkpt>
      <trkpt lat="40.0887020" lon="-4.3164280">
        <ele>533.0</ele>
        <time>2019-08-13T10:15:32Z</time>
      </trkpt>
      <trkpt lat="40.0887410" lon="-4.3164620">
        <ele>533.4</ele>
        <time>2019-08-13T10:15:34Z</time>
      </trkpt>
      <trkpt lat="40.0887810" lon="-4.3164910">
        <ele>533.8</ele>
        <time>2019-08-13T10:15:36Z</time>
      </trkpt>
      <trkpt lat="40.0888180" lon="-4.3165240">
        <ele>534.1</ele>
        <time>2019-08-13T10:15:38Z</time>
      </trkpt>
      <trkpt lat="40.0888560" lon="-4.3165580">
        <ele>534.4</ele>
        <time>2019-08-13T10:15:40Z</time>
      </trkpt>
      <trkpt lat="40.0888950" lon="-4.3165880">
        <ele>534.8</ele>
        <time>2019-08-13T10:15:42Z</time>
      </trkpt>
      <trkpt lat="40.0889350" lon="-4.3166180">
        <ele>535.1</ele>
        <time>2019-08-13T10:15:44Z</time>
      </trkpt>
      <trkpt lat="40.0889740" lon="-4.3166480">
        <ele>535.5</ele>
        <time>2019-08-13T10:15:46Z</time>
      </trkpt>
      <trkpt lat="40.0890120" lon="-4.3166790">
        <ele>535.8</ele>
        <time>2019-08-13T10:15:48Z</time>
      </trkpt>
      <trkpt lat="40.0890500" lon="-4.3167080">
        <ele>536.1</ele>
        <time>2019-08-13T10:15:50Z</time>
      </trkpt>
      <trkpt lat="40.0890860" lon="-4.3167390">
        <ele>536.4</ele>
        <time>2019-08-13T10:15:52Z</time>
      </trkpt>
      <trkpt lat="40.0891230" lon="-4.3167670">
        <ele>536.6</ele>
        <time>2019-08-13T10:15:54Z</time>
      </trkpt>
      <trkpt lat="40.0891630" lon="-4.3167920">
        <ele>536.9</ele>
        <time>2019-08-13T10:15:56Z</time>
      </trkpt>
      <trkpt lat="40.0892050" lon="-4.3168200">
        <ele>537.2</ele>
        <time>2019-08-13T10:15:58Z</time>
      </trkpt>
      <trkpt lat="40.0892470" lon="-4.3168470">
        <ele>537.5</ele>
        <time>2019-08-13T10:16:00Z</time>
      </trkpt>
      <trkpt lat="40.0892900" lon="-4.3168750">
        <ele>537.9</ele>
        <time>2019-08-13T10:16:02Z</time>
      </trkpt>
      <trkpt lat="40.0893300" lon="-4.3169050">
        <ele>538.1</ele>
        <time>2019-08-13T10:16:04Z</time>
      </trkpt>
      <trkpt lat="40.0893700" lon="-4.3169340">
        <ele>538.4</ele>
        <time>2019-08-13T10:16:06Z</time>
      </trkpt>
      <trkpt lat="40.0894090" lon="-4.3169640">
        <ele>538.7</ele>
        <time>2019-08-13T10:16:08Z</time>
      </trkpt>
      <trkpt lat="40.0894490" lon="-4.3169940">
        <ele>538.9</ele>
        <time>2019-08-13T10:16:10Z</time>
      </trkpt>
      <trkpt lat="40.0894890" lon="-4.3170240">
        <ele>539.2</ele>
        <time>2019-08-13T10:16:12Z</time>
      </trkpt>
      <trkpt lat="40.0895290" lon="-4.3170520">
        <ele>539.5</ele>
        <time>2019-08-13T10:16:14Z</time>
      </trkpt>
      <trkpt lat="40.0895700" lon="-4.3170770">
        <ele>539.7</ele>
        <time>2019-08-13T10:16:16Z</time>
      </trkpt>
      <trkpt lat="40.0896100" lon="-4.3171050">
        <ele>539.9</ele>
        <time>2019-08-13T10:16:18Z</time>
      </trkpt>
      <trkpt lat="40.0896500" lon="-4.3171360">
        <ele>540.1</ele>
        <time>2019-08-13T10:16:20Z</time>
      </trkpt>
      <trkpt lat="40.0896910" lon="-4.3171670">
        <ele>540.3</ele>
        <time>2019-08-13T10:16:22Z</time>
      </trkpt>
      <trkpt lat="40.0897350" lon="-4.3171970">
        <ele>540.6</ele>
        <time>2019-08-13T10:16:24Z</time>
      </trkpt>
      <trkpt lat="40.0897780" lon="-4.3172310">
        <ele>540.8</ele>
        <time>2019-08-13T10:16:26Z</time>
      </trkpt>
      <trkpt lat="40.0898240" lon="-4.3172690">
        <ele>541.0</ele>
        <time>2019-08-13T10:16:28Z</time>
      </trkpt>
      <trkpt lat="40.0898480" lon="-4.3172880">
        <ele>541.1</ele>
        <time>2019-08-13T10:16:29Z</time>
      </trkpt>
      <trkpt lat="40.0898720" lon="-4.3173070">
        <ele>541.2</ele>
        <time>2019-08-13T10:16:30Z</time>
      </trkpt>
      <trkpt lat="40.0898960" lon="-4.3173260">
        <ele>541.3</ele>
        <time>2019-08-13T10:16:31Z</time>
      </trkpt>
      <trkpt lat="40.0899200" lon="-4.3173460">
        <ele>541.4</ele>
        <time>2019-08-13T10:16:32Z</time>
      </trkpt>
      <trkpt lat="40.0899440" lon="-4.3173640">
        <ele>541.5</ele>
        <time>2019-08-13T10:16:33Z</time>
      </trkpt>
      <trkpt lat="40.0899690" lon="-4.3173830">
        <ele>541.6</ele>
        <time>2019-08-13T10:16:34Z</time>
      </trkpt>
      <trkpt lat="40.0899940" lon="-4.3174020">
        <ele>541.7</ele>
        <time>2019-08-13T10:16:35Z</time>
      </trkpt>
      <trkpt lat="40.0900180" lon="-4.3174200">
        <ele>541.8</ele>
        <time>2019-08-13T10:16:36Z</time>
      </trkpt>
      <trkpt lat="40.0900430" lon="-4.3174390">
        <ele>541.9</ele>
        <time>2019-08-13T10:16:37Z</time>
      </trkpt>
      <trkpt lat="40.0900670" lon="-4.3174590">
        <ele>542.0</ele>
        <time>2019-08-13T10:16:38Z</time>
      </trkpt>
      <trkpt lat="40.0900910" lon="-4.3174800">
        <ele>542.1</ele>
        <time>2019-08-13T10:16:39Z</time>
      </trkpt>
      <trkpt lat="40.0901160" lon="-4.3175010">
        <ele>542.2</ele>
        <time>2019-08-13T10:16:40Z</time>
      </trkpt>
      <trkpt lat="40.0901420" lon="-4.3175220">
        <ele>542.3</ele>
        <time>2019-08-13T10:16:41Z</time>
      </trkpt>
      <trkpt lat="40.0901690" lon="-4.3175440">
        <ele>542.4</ele>
        <time>2019-08-13T10:16:42Z</time>
      </trkpt>
      <trkpt lat="40.0901970" lon="-4.3175660">
        <ele>542.5</ele>
        <time>2019-08-13T10:16:43Z</time>
      </trkpt>
      <trkpt lat="40.0902260" lon="-4.3175870">
        <ele>542.6</ele>
        <time>2019-08-13T10:16:44Z</time>
      </trkpt>
      <trkpt lat="40.0902540" lon="-4.3176080">
        <ele>542.7</ele>
        <time>2019-08-13T10:16:45Z</time>
      </trkpt>
      <trkpt lat="40.0902830" lon="-4.3176290">
        <ele>542.8</ele>
        <time>2019-08-13T10:16:46Z</time>
      </trkpt>
      <trkpt lat="40.0903110" lon="-4.3176480">
        <ele>542.9</ele>
        <time>2019-08-13T10:16:47Z</time>
      </trkpt>
      <trkpt lat="40.0903380" lon="-4.3176680">
        <ele>543.0</ele>
        <time>2019-08-13T10:16:48Z</time>
      </trkpt>
      <trkpt lat="40.0903650" lon="-4.3176870">
        <ele>543.1</ele>
        <time>2019-08-13T10:16:49Z</time>
      </trkpt>
      <trkpt lat="40.0903920" lon="-4.3177060">
        <ele>543.2</ele>
        <time>2019-08-13T10:16:50Z</time>
      </trkpt>
      <trkpt lat="40.0904190" lon="-4.3177240">
        <ele>543.4</ele>
        <time>2019-08-13T10:16:51Z</time>
      </trkpt>
      <trkpt lat="40.0904470" lon="-4.3177410">
        <ele>543.5</ele>
        <time>2019-08-13T10:16:52Z</time>
      </trkpt>
      <trkpt lat="40.0904750" lon="-4.3177560">
        <ele>543.6</ele>
        <time>2019-08-13T10:16:53Z</time>
      </trkpt>
      <trkpt lat="40.0905040" lon="-4.3177710">
        <ele>543.7</ele>
        <time>2019-08-13T10:16:54Z</time>
      </trkpt>
      <trkpt lat="40.0905330" lon="-4.3177870">
        <ele>543.8</ele>
        <time>2019-08-13T10:16:55Z</time>
      </trkpt>
      <trkpt lat="40.0905620" lon="-4.3178020">
        <ele>543.9</ele>
        <time>2019-08-13T10:16:56Z</time>
      </trkpt>
      <trkpt lat="40.0905910" lon="-4.3178160">
        <ele>544.0</ele>
        <time>2019-08-13T10:16:57Z</time>
      </trkpt>
      <trkpt lat="40.0906210" lon="-4.3178290">
        <ele>544.1</ele>
        <time>2019-08-13T10:16:58Z</time>
      </trkpt>
      <trkpt lat="40.0906510" lon="-4.3178420">
        <ele>544.2</ele>
        <time>2019-08-13T10:16:59Z</time>
      </trkpt>
      <trkpt lat="40.0906800" lon="-4.3178550">
        <ele>544.3</ele>
        <time>2019-08-13T10:17:00Z</time>
      </trkpt>
      <trkpt lat="40.0907100" lon="-4.3178670">
        <ele>544.4</ele>
        <time>2019-08-13T10:17:01Z</time>
      </trkpt>
      <trkpt lat="40.0907400" lon="-4.3178800">
        <ele>544.5</ele>
        <time>2019-08-13T10:17:02Z</time>
      </trkpt>
      <trkpt lat="40.0907700" lon="-4.3178920">
        <ele>544.5</ele>
        <time>2019-08-13T10:17:03Z</time>
      </trkpt>
      <trkpt lat="40.0908000" lon="-4.3179040">
        <ele>544.6</ele>
        <time>2019-08-13T10:17:04Z</time>
      </trkpt>
      <trkpt lat="40.0908310" lon="-4.3179140">
        <ele>544.7</ele>
        <time>2019-08-13T10:17:05Z</time>
      </trkpt>
      <trkpt lat="40.0908620" lon="-4.3179240">
        <ele>544.8</ele>
        <time>2019-08-13T10:17:06Z</time>
      </trkpt>
      <trkpt lat="40.0908940" lon="-4.3179340">
        <ele>544.8</ele>
        <time>2019-08-13T10:17:07Z</time>
      </trkpt>
      <trkpt lat="40.0909270" lon="-4.3179430">
        <ele>544.9</ele>
        <time>2019-08-13T10:17:08Z</time>
      </trkpt>
      <trkpt lat="40.0909610" lon="-4.3179510">
        <ele>545.0</ele>
        <time>2019-08-13T10:17:09Z</time>
      </trkpt>
      <trkpt lat="40.0909960" lon="-4.3179580">
        <ele>545.0</ele>
        <time>2019-08-13T10:17:10Z</time>
      </trkpt>
      <trkpt lat="40.0910320" lon="-4.3179630">
        <ele>545.1</ele>
        <time>2019-08-13T10:17:11Z</time>
      </trkpt>
      <trkpt lat="40.0910690" lon="-4.3179670">
        <ele>545.2</ele>
        <time>2019-08-13T10:17:12Z</time>
      </trkpt>
      <trkpt lat="40.0911070" lon="-4.3179700">
        <ele>545.2</ele>
        <time>2019-08-13T10:17:13Z</time>
      </trkpt>
      <trkpt lat="40.0911450" lon="-4.3179710">
        <ele>545.3</ele>
        <time>2019-08-13T10:17:14Z</time>
      </trkpt>
      <trkpt lat="40.0911830" lon="-4.3179720">
        <ele>545.4</ele>
        <time>2019-08-13T10:17:15Z</time>
      </trkpt>
      <trkpt lat="40.0912210" lon="-4.3179700">
        <ele>545.4</ele>
        <time>2019-08-13T10:17:16Z</time>
      </trkpt>
      <trkpt lat="40.0912590" lon="-4.3179680">
        <ele>545.5</ele>
        <time>2019-08-13T10:17:17Z</time>
      </trkpt>
      <trkpt lat="40.0912980" lon="-4.3179660">
        <ele>545.6</ele>
        <time>2019-08-13T10:17:18Z</time>
      </trkpt>
      <trkpt lat="40.0913360" lon="-4.3179620">
        <ele>545.6</ele>
        <time>2019-08-13T10:17:19Z</time>
      </trkpt>
      <trkpt lat="40.0913760" lon="-4.3179580">
        <ele>545.7</ele>
        <time>2019-08-13T10:17:20Z</time>
      </trkpt>
      <trkpt lat="40.0914150" lon="-4.3179520">
        <ele>545.8</ele>
        <time>2019-08-13T10:17:21Z</time>
      </trkpt>
      <trkpt lat="40.0914550" lon="-4.3179480">
        <ele>545.9</ele>
        <time>2019-08-13T10:17:22Z</time>
      </trkpt>
      <trkpt lat="40.0914950" lon="-4.3179420">
        <ele>545.9</ele>
        <time>2019-08-13T10:17:23Z</time>
      </trkpt>
      <trkpt lat="40.0915340" lon="-4.3179360">
        <ele>546.0</ele>
        <time>2019-08-13T10:17:24Z</time>
      </trkpt>
      <trkpt lat="40.0915740" lon="-4.3179310">
        <ele>546.1</ele>
        <time>2019-08-13T10:17:25Z</time>
      </trkpt>
      <trkpt lat="40.0916140" lon="-4.3179270">
        <ele>546.2</ele>
        <time>2019-08-13T10:17:26Z</time>
      </trkpt>
      <trkpt lat="40.0916530" lon="-4.3179220">
        <ele>546.2</ele>
        <time>2019-08-13T10:17:27Z</time>
      </trkpt>
      <trkpt lat="40.0916910" lon="-4.3179180">
        <ele>546.3</ele>
        <time>2019-08-13T10:17:28Z</time>
      </trkpt>
      <trkpt lat="40.0917300" lon="-4.3179140">
        <ele>546.4</ele>
        <time>2019-08-13T10:17:29Z</time>
      </trkpt>
      <trkpt lat="40.0917690" lon="-4.3179100">
        <ele>546.5</ele>
        <time>2019-08-13T10:17:30Z</time>
      </trkpt>
      <trkpt lat="40.0918070" lon="-4.3179070">
        <ele>546.6</ele>
        <time>2019-08-13T10:17:31Z</time>
      </trkpt>
      <trkpt lat="40.0918450" lon="-4.3179040">
        <ele>546.6</ele>
        <time>2019-08-13T10:17:32Z</time>
      </trkpt>
      <trkpt lat="40.0918830" lon="-4.3179000">
        <ele>546.7</ele>
        <time>2019-08-13T10:17:33Z</time>
      </trkpt>
      <trkpt lat="40.0919210" lon="-4.3178970">
        <ele>546.8</ele>
        <time>2019-08-13T10:17:34Z</time>
      </trkpt>
      <trkpt lat="40.0919590" lon="-4.3178920">
        <ele>546.9</ele>
        <time>2019-08-13T10:17:35Z</time>
      </trkpt>
      <trkpt lat="40.0919970" lon="-4.3178890">
        <ele>546.9</ele>
        <time>2019-08-13T10:17:36Z</time>
      </trkpt>
      <trkpt lat="40.0920350" lon="-4.3178880">
        <ele>547.0</ele>
        <time>2019-08-13T10:17:37Z</time>
      </trkpt>
      <trkpt lat="40.0920730" lon="-4.3178850">
        <ele>547.1</ele>
        <time>2019-08-13T10:17:38Z</time>
      </trkpt>
      <trkpt lat="40.0921120" lon="-4.3178810">
        <ele>547.2</ele>
        <time>2019-08-13T10:17:39Z</time>
      </trkpt>
      <trkpt lat="40.0921500" lon="-4.3178780">
        <ele>547.2</ele>
        <time>2019-08-13T10:17:40Z</time>
      </trkpt>
      <trkpt lat="40.0921870" lon="-4.3178730">
        <ele>547.3</ele>
        <time>2019-08-13T10:17:41Z</time>
      </trkpt>
      <trkpt lat="40.0922240" lon="-4.3178720">
        <ele>547.4</ele>
        <time>2019-08-13T10:17:42Z</time>
      </trkpt>
      <trkpt lat="40.0922610" lon="-4.3178700">
        <ele>547.5</ele>
        <time>2019-08-13T10:17:43Z</time>
      </trkpt>
      <trkpt lat="40.0922990" lon="-4.3178670">
        <ele>547.6</ele>
        <time>2019-08-13T10:17:44Z</time>
      </trkpt>
      <trkpt lat="40.0923370" lon="-4.3178640">
        <ele>547.6</ele>
        <time>2019-08-13T10:17:45Z</time>
      </trkpt>
      <trkpt lat="40.0923750" lon="-4.3178600">
        <ele>547.7</ele>
        <time>2019-08-13T10:17:46Z</time>
      </trkpt>
      <trkpt lat="40.0924120" lon="-4.3178580">
        <ele>547.8</ele>
        <time>2019-08-13T10:17:47Z</time>
      </trkpt>
      <trkpt lat="40.0924500" lon="-4.3178570">
        <ele>547.9</ele>
        <time>2019-08-13T10:17:48Z</time>
      </trkpt>
      <trkpt lat="40.0924870" lon="-4.3178530">
        <ele>547.9</ele>
        <time>2019-08-13T10:17:49Z</time>
      </trkpt>
      <trkpt lat="40.0925240" lon="-4.3178470">
        <ele>548.0</ele>
        <time>2019-08-13T10:17:50Z</time>
      </trkpt>
      <trkpt lat="40.0925610" lon="-4.3178400">
        <ele>548.1</ele>
        <time>2019-08-13T10:17:51Z</time>
      </trkpt>
      <trkpt lat="40.0925980" lon="-4.3178330">
        <ele>548.2</ele>
        <time>2019-08-13T10:17:52Z</time>
      </trkpt>
      <trkpt lat="40.0926350" lon="-4.3178270">
        <ele>548.3</ele>
        <time>2019-08-13T10:17:53Z</time>
      </trkpt>
      <trkpt lat="40.0926710" lon="-4.3178220">
        <ele>548.3</ele>
        <time>2019-08-13T10:17:54Z</time>
      </trkpt>
      <trkpt lat="40.0927070" lon="-4.3178160">
        <ele>548.4</ele>
        <time>2019-08-13T10:17:55Z</time>
      </trkpt>
      <trkpt lat="40.0927430" lon="-4.3178100">
        <ele>548.5</ele>
        <time>2019-08-13T10:17:56Z</time>
      </trkpt>
      <trkpt lat="40.0927790" lon="-4.3178040">
        <ele>548.6</ele>
        <time>2019-08-13T10:17:57Z</time>
      </trkpt>
      <trkpt lat="40.0928150" lon="-4.3177980">
        <ele>548.7</ele>
        <time>2019-08-13T10:17:58Z</time>
      </trkpt>
      <trkpt lat="40.0928520" lon="-4.3177940">
        <ele>548.7</ele>
        <time>2019-08-13T10:17:59Z</time>
      </trkpt>
      <trkpt lat="40.0928880" lon="-4.3177900">
        <ele>548.8</ele>
        <time>2019-08-13T10:18:00Z</time>
      </trkpt>
      <trkpt lat="40.0929250" lon="-4.3177850">
        <ele>548.9</ele>
        <time>2019-08-13T10:18:01Z</time>
      </trkpt>
      <trkpt lat="40.0929630" lon="-4.3177810">
        <ele>549.0</ele>
        <time>2019-08-13T10:18:02Z</time>
      </trkpt>
      <trkpt lat="40.0930020" lon="-4.3177770">
        <ele>549.1</ele>
        <time>2019-08-13T10:18:03Z</time>
      </trkpt>
      <trkpt lat="40.0930410" lon="-4.3177750">
        <ele>549.2</ele>
        <time>2019-08-13T10:18:04Z</time>
      </trkpt>
      <trkpt lat="40.0930790" lon="-4.3177750">
        <ele>549.3</ele>
        <time>2019-08-13T10:18:05Z</time>
      </trkpt>
      <trkpt lat="40.0931180" lon="-4.3177740">
        <ele>549.4</ele>
        <time>2019-08-13T10:18:06Z</time>
      </trkpt>
      <trkpt lat="40.0931550" lon="-4.3177740">
        <ele>549.5</ele>
        <time>2019-08-13T10:18:07Z</time>
      </trkpt>
      <trkpt lat="40.0931920" lon="-4.3177730">
        <ele>549.5</ele>
        <time>2019-08-13T10:18:08Z</time>
      </trkpt>
      <trkpt lat="40.0932290" lon="-4.3177730">
        <ele>549.5</ele>
        <time>2019-08-13T10:18:09Z</time>
      </trkpt>
      <trkpt lat="40.0932670" lon="-4.3177730">
        <ele>549.5</ele>
        <time>2019-08-13T10:18:10Z</time>
      </trkpt>
      <trkpt lat="40.0933050" lon="-4.3177740">
        <ele>549.5</ele>
        <time>2019-08-13T10:18:11Z</time>
      </trkpt>
      <trkpt lat="40.0933430" lon="-4.3177730">
        <ele>549.4</ele>
        <time>2019-08-13T10:18:12Z</time>
      </trkpt>
      <trkpt lat="40.0933820" lon="-4.3177750">
        <ele>549.4</ele>
        <time>2019-08-13T10:18:13Z</time>
      </trkpt>
      <trkpt lat="40.0934210" lon="-4.3177790">
        <ele>549.4</ele>
        <time>2019-08-13T10:18:14Z</time>
      </trkpt>
      <trkpt lat="40.0934610" lon="-4.3177810">
        <ele>549.3</ele>
        <time>2019-08-13T10:18:15Z</time>
      </trkpt>
      <trkpt lat="40.0935000" lon="-4.3177830">
        <ele>549.3</ele>
        <time>2019-08-13T10:18:16Z</time>
      </trkpt>
      <trkpt lat="40.0935400" lon="-4.3177850">
        <ele>549.2</ele>
        <time>2019-08-13T10:18:17Z</time>
      </trkpt>
      <trkpt lat="40.0935810" lon="-4.3177860">
        <ele>549.2</ele>
        <time>2019-08-13T10:18:18Z</time>
      </trkpt>
      <trkpt lat="40.0936240" lon="-4.3177860">
        <ele>549.2</ele>
        <time>2019-08-13T10:18:19Z</time>
      </trkpt>
      <trkpt lat="40.0936680" lon="-4.3177860">
        <ele>549.1</ele>
        <time>2019-08-13T10:18:20Z</time>
      </trkpt>
      <trkpt lat="40.0937140" lon="-4.3177850">
        <ele>549.1</ele>
        <time>2019-08-13T10:18:21Z</time>
      </trkpt>
      <trkpt lat="40.0937590" lon="-4.3177860">
        <ele>549.1</ele>
        <time>2019-08-13T10:18:22Z</time>
      </trkpt>
      <trkpt lat="40.0938040" lon="-4.3177850">
        <ele>549.0</ele>
        <time>2019-08-13T10:18:23Z</time>
      </trkpt>
      <trkpt lat="40.0938460" lon="-4.3177830">
        <ele>549.0</ele>
        <time>2019-08-13T10:18:24Z</time>
      </trkpt>
      <trkpt lat="40.0938900" lon="-4.3177820">
        <ele>549.0</ele>
        <time>2019-08-13T10:18:25Z</time>
      </trkpt>
      <trkpt lat="40.0939340" lon="-4.3177830">
        <ele>549.0</ele>
        <time>2019-08-13T10:18:26Z</time>
      </trkpt>
      <trkpt lat="40.0939800" lon="-4.3177840">
        <ele>548.9</ele>
        <time>2019-08-13T10:18:27Z</time>
      </trkpt>
      <trkpt lat="40.0940270" lon="-4.3177840">
        <ele>548.9</ele>
        <time>2019-08-13T10:18:28Z</time>
      </trkpt>
      <trkpt lat="40.0940740" lon="-4.3177840">
        <ele>548.9</ele>
        <time>2019-08-13T10:18:29Z</time>
      </trkpt>
      <trkpt lat="40.0941210" lon="-4.3177850">
        <ele>548.9</ele>
        <time>2019-08-13T10:18:30Z</time>
      </trkpt>
      <trkpt lat="40.0941690" lon="-4.3177880">
        <ele>548.9</ele>
        <time>2019-08-13T10:18:31Z</time>
      </trkpt>
      <trkpt lat="40.0942190" lon="-4.3177900">
        <ele>548.9</ele>
        <time>2019-08-13T10:18:32Z</time>
      </trkpt>
      <trkpt lat="40.0942700" lon="-4.3177920">
        <ele>549.0</ele>
        <time>2019-08-13T10:18:33Z</time>
      </trkpt>
      <trkpt lat="40.0943220" lon="-4.3177940">
        <ele>549.0</ele>
        <time>2019-08-13T10:18:34Z</time>
      </trkpt>
      <trkpt lat="40.0943720" lon="-4.3177970">
        <ele>549.0</ele>
        <time>2019-08-13T10:18:35Z</time>
      </trkpt>
      <trkpt lat="40.0944220" lon="-4.3178010">
        <ele>549.0</ele>
        <time>2019-08-13T10:18:36Z</time>
      </trkpt>
      <trkpt lat="40.0944720" lon="-4.3178080">
        <ele>549.0</ele>
        <time>2019-08-13T10:18:37Z</time>
      </trkpt>
      <trkpt lat="40.0945220" lon="-4.3178150">
        <ele>549.0</ele>
        <time>2019-08-13T10:18:38Z</time>
      </trkpt>
      <trkpt lat="40.0945710" lon="-4.3178250">
        <ele>549.1</ele>
        <time>2019-08-13T10:18:39Z</time>
      </trkpt>
      <trkpt lat="40.0946210" lon="-4.3178350">
        <ele>549.1</ele>
        <time>2019-08-13T10:18:40Z</time>
      </trkpt>
      <trkpt lat="40.0946730" lon="-4.3178440">
        <ele>549.1</ele>
        <time>2019-08-13T10:18:41Z</time>
      </trkpt>
      <trkpt lat="40.0947250" lon="-4.3178520">
        <ele>549.1</ele>
        <time>2019-08-13T10:18:42Z</time>
      </trkpt>
      <trkpt lat="40.0947780" lon="-4.3178610">
        <ele>549.2</ele>
        <time>2019-08-13T10:18:43Z</time>
      </trkpt>
      <trkpt lat="40.0948310" lon="-4.3178660">
        <ele>549.2</ele>
        <time>2019-08-13T10:18:44Z</time>
      </trkpt>
      <trkpt lat="40.0948840" lon="-4.3178660">
        <ele>549.3</ele>
        <time>2019-08-13T10:18:45Z</time>
      </trkpt>
      <trkpt lat="40.0949380" lon="-4.3178640">
        <ele>549.4</ele>
        <time>2019-08-13T10:18:46Z</time>
      </trkpt>
      <trkpt lat="40.0949910" lon="-4.3178630">
        <ele>549.5</ele>
        <time>2019-08-13T10:18:47Z</time>
      </trkpt>
      <trkpt lat="40.0950430" lon="-4.3178600">
        <ele>549.5</ele>
        <time>2019-08-13T10:18:48Z</time>
      </trkpt>
      <trkpt lat="40.0950950" lon="-4.3178560">
        <ele>549.6</ele>
        <time>2019-08-13T10:18:49Z</time>
      </trkpt>
      <trkpt lat="40.0951480" lon="-4.3178530">
        <ele>549.7</ele>
        <time>2019-08-13T10:18:50Z</time>
      </trkpt>
      <trkpt lat="40.0952000" lon="-4.3178500">
        <ele>549.9</ele>
        <time>2019-08-13T10:18:51Z</time>
      </trkpt>
      <trkpt lat="40.0952510" lon="-4.3178470">
        <ele>550.0</ele>
        <time>2019-08-13T10:18:52Z</time>
      </trkpt>
      <trkpt lat="40.0953030" lon="-4.3178440">
        <ele>550.1</ele>
        <time>2019-08-13T10:18:53Z</time>
      </trkpt>
      <trkpt lat="40.0953560" lon="-4.3178380">
        <ele>550.3</ele>
        <time>2019-08-13T10:18:54Z</time>
      </trkpt>
      <trkpt lat="40.0954070" lon="-4.3178280">
        <ele>550.4</ele>
        <time>2019-08-13T10:18:55Z</time>
      </trkpt>
      <trkpt lat="40.0954590" lon="-4.3178180">
        <ele>550.6</ele>
        <time>2019-08-13T10:18:56Z</time>
      </trkpt>
      <trkpt lat="40.0955090" lon="-4.3178060">
        <ele>550.7</ele>
        <time>2019-08-13T10:18:57Z</time>
      </trkpt>
      <trkpt lat="40.0955590" lon="-4.3177930">
        <ele>550.8</ele>
        <time>2019-08-13T10:18:58Z</time>
      </trkpt>
      <trkpt lat="40.0956070" lon="-4.3177800">
        <ele>551.0</ele>
        <time>2019-08-13T10:18:59Z</time>
      </trkpt>
      <trkpt lat="40.0956560" lon="-4.3177690">
        <ele>551.1</ele>
        <time>2019-08-13T10:19:00Z</time>
      </trkpt>
      <trkpt lat="40.0957050" lon="-4.3177600">
        <ele>551.2</ele>
        <time>2019-08-13T10:19:01Z</time>
      </trkpt>
      <trkpt lat="40.0957510" lon="-4.3177530">
        <ele>551.3</ele>
        <time>2019-08-13T10:19:02Z</time>
      </trkpt>
      <trkpt lat="40.0957970" lon="-4.3177450">
        <ele>551.5</ele>
        <time>2019-08-13T10:19:03Z</time>
      </trkpt>
      <trkpt lat="40.0958420" lon="-4.3177340">
        <ele>551.6</ele>
        <time>2019-08-13T10:19:04Z</time>
      </trkpt>
      <trkpt lat="40.0958850" lon="-4.3177220">
        <ele>551.7</ele>
        <time>2019-08-13T10:19:05Z</time>
      </trkpt>
      <trkpt lat="40.0959280" lon="-4.3177090">
        <ele>551.7</ele>
        <time>2019-08-13T10:19:06Z</time>
      </trkpt>
      <trkpt lat="40.0959700" lon="-4.3176970">
        <ele>551.8</ele>
        <time>2019-08-13T10:19:07Z</time>
      </trkpt>
      <trkpt lat="40.0960110" lon="-4.3176860">
        <ele>551.9</ele>
        <time>2019-08-13T10:19:08Z</time>
      </trkpt>
      <trkpt lat="40.0960530" lon="-4.3176760">
        <ele>552.0</ele>
        <time>2019-08-13T10:19:09Z</time>
      </trkpt>
      <trkpt lat="40.0960930" lon="-4.3176650">
        <ele>552.1</ele>
        <time>2019-08-13T10:19:10Z</time>
      </trkpt>
      <trkpt lat="40.0961340" lon="-4.3176530">
        <ele>552.1</ele>
        <time>2019-08-13T10:19:11Z</time>
      </trkpt>
      <trkpt lat="40.0961740" lon="-4.3176390">
        <ele>552.2</ele>
        <time>2019-08-13T10:19:12Z</time>
      </trkpt>
      <trkpt lat="40.0962140" lon="-4.3176280">
        <ele>552.3</ele>
        <time>2019-08-13T10:19:13Z</time>
      </trkpt>
      <trkpt lat="40.0962540" lon="-4.3176180">
        <ele>552.4</ele>
        <time>2019-08-13T10:19:14Z</time>
      </trkpt>
      <trkpt lat="40.0962930" lon="-4.3176080">
        <ele>552.5</ele>
        <time>2019-08-13T10:19:15Z</time>
      </trkpt>
      <trkpt lat="40.0963320" lon="-4.3175990">
        <ele>552.5</ele>
        <time>2019-08-13T10:19:16Z</time>
      </trkpt>
      <trkpt lat="40.0963700" lon="-4.3175890">
        <ele>552.6</ele>
        <time>2019-08-13T10:19:17Z</time>
      </trkpt>
      <trkpt lat="40.0964090" lon="-4.3175790">
        <ele>552.7</ele>
        <time>2019-08-13T10:19:18Z</time>
      </trkpt>
      <trkpt lat="40.0964480" lon="-4.3175720">
        <ele>552.8</ele>
        <time>2019-08-13T10:19:19Z</time>
      </trkpt>
      <trkpt lat="40.0964870" lon="-4.3175670">
        <ele>552.8</ele>
        <time>2019-08-13T10:19:20Z</time>
      </trkpt>
      <trkpt lat="40.0965250" lon="-4.3175620">
        <ele>552.9</ele>
        <time>2019-08-13T10:19:21Z</time>
      </trkpt>
      <trkpt lat="40.0965630" lon="-4.3175580">
        <ele>553.0</ele>
        <time>2019-08-13T10:19:22Z</time>
      </trkpt>
      <trkpt lat="40.0966030" lon="-4.3175550">
        <ele>553.1</ele>
        <time>2019-08-13T10:19:23Z</time>
      </trkpt>
      <trkpt lat="40.0966410" lon="-4.3175510">
        <ele>553.1</ele>
        <time>2019-08-13T10:19:24Z</time>
      </trkpt>
      <trkpt lat="40.0966800" lon="-4.3175480">
        <ele>553.2</ele>
        <time>2019-08-13T10:19:25Z</time>
      </trkpt>
      <trkpt lat="40.0967180" lon="-4.3175470">
        <ele>553.3</ele>
        <time>2019-08-13T10:19:26Z</time>
      </trkpt>
      <trkpt lat="40.0967550" lon="-4.3175480">
        <ele>553.4</ele>
        <time>2019-08-13T10:19:27Z</time>
      </trkpt>
      <trkpt lat="40.0967910" lon="-4.3175480">
        <ele>553.4</ele>
        <time>2019-08-13T10:19:28Z</time>
      </trkpt>
      <trkpt lat="40.0968290" lon="-4.3175470">
        <ele>553.5</ele>
        <time>2019-08-13T10:19:29Z</time>
      </trkpt>
      <trkpt lat="40.0968660" lon="-4.3175470">
        <ele>553.5</ele>
        <time>2019-08-13T10:19:30Z</time>
      </trkpt>
      <trkpt lat="40.0969040" lon="-4.3175500">
        <ele>553.6</ele>
        <time>2019-08-13T10:19:31Z</time>
      </trkpt>
      <trkpt lat="40.0969410" lon="-4.3175520">
        <ele>553.7</ele>
        <time>2019-08-13T10:19:32Z</time>
      </trkpt>
      <trkpt lat="40.0969800" lon="-4.3175540">
        <ele>553.8</ele>
        <time>2019-08-13T10:19:33Z</time>
      </trkpt>
      <trkpt lat="40.0970180" lon="-4.3175570">
        <ele>554.0</ele>
        <time>2019-08-13T10:19:34Z</time>
      </trkpt>
      <trkpt lat="40.0970560" lon="-4.3175600">
        <ele>554.1</ele>
        <time>2019-08-13T10:19:35Z</time>
      </trkpt>
      <trkpt lat="40.0970940" lon="-4.3175610">
        <ele>554.2</ele>
        <time>2019-08-13T10:19:36Z</time>
      </trkpt>
      <trkpt lat="40.0971330" lon="-4.3175610">
        <ele>554.3</ele>
        <time>2019-08-13T10:19:37Z</time>
      </trkpt>
      <trkpt lat="40.0971710" lon="-4.3175620">
        <ele>554.3</ele>
        <time>2019-08-13T10:19:38Z</time>
      </trkpt>
      <trkpt lat="40.0972090" lon="-4.3175630">
        <ele>554.3</ele>
        <time>2019-08-13T10:19:39Z</time>
      </trkpt>
      <trkpt lat="40.0972480" lon="-4.3175630">
        <ele>554.4</ele>
        <time>2019-08-13T10:19:40Z</time>
      </trkpt>
      <trkpt lat="40.0972860" lon="-4.3175650">
        <ele>554.4</ele>
        <time>2019-08-13T10:19:41Z</time>
      </trkpt>
      <trkpt lat="40.0973260" lon="-4.3175670">
        <ele>554.5</ele>
        <time>2019-08-13T10:19:42Z</time>
      </trkpt>
      <trkpt lat="40.0973650" lon="-4.3175690">
        <ele>554.5</ele>
        <time>2019-08-13T10:19:43Z</time>
      </trkpt>
      <trkpt lat="40.0974050" lon="-4.3175700">
        <ele>554.6</ele>
        <time>2019-08-13T10:19:44Z</time>
      </trkpt>
      <trkpt lat="40.0974440" lon="-4.3175710">
        <ele>554.6</ele>
        <time>2019-08-13T10:19:45Z</time>
      </trkpt>
      <trkpt lat="40.0974850" lon="-4.3175720">
        <ele>554.7</ele>
        <time>2019-08-13T10:19:46Z</time>
      </trkpt>
      <trkpt lat="40.0975260" lon="-4.3175730">
        <ele>554.9</ele>
        <time>2019-08-13T10:19:47Z</time>
      </trkpt>
      <trkpt lat="40.0975660" lon="-4.3175740">
        <ele>555.0</ele>
        <time>2019-08-13T10:19:48Z</time>
      </trkpt>
      <trkpt lat="40.0976070" lon="-4.3175770">
        <ele>555.1</ele>
        <time>2019-08-13T10:19:49Z</time>
      </trkpt>
      <trkpt lat="40.0976490" lon="-4.3175820">
        <ele>555.2</ele>
        <time>2019-08-13T10:19:50Z</time>
      </trkpt>
      <trkpt lat="40.0976910" lon="-4.3175890">
        <ele>555.3</ele>
        <time>2019-08-13T10:19:51Z</time>
      </trkpt>
      <trkpt lat="40.0977330" lon="-4.3175970">
        <ele>555.4</ele>
        <time>2019-08-13T10:19:52Z</time>
      </trkpt>
      <trkpt lat="40.0977720" lon="-4.3176060">
        <ele>555.4</ele>
        <time>2019-08-13T10:19:53Z</time>
      </trkpt>
      <trkpt lat="40.0978150" lon="-4.3176140">
        <ele>555.4</ele>
        <time>2019-08-13T10:19:54Z</time>
      </trkpt>
      <trkpt lat="40.0978590" lon="-4.3176230">
        <ele>555.5</ele>
        <time>2019-08-13T10:19:55Z</time>
      </trkpt>
      <trkpt lat="40.0979050" lon="-4.3176350">
        <ele>555.5</ele>
        <time>2019-08-13T10:19:56Z</time>
      </trkpt>
      <trkpt lat="40.0979530" lon="-4.3176470">
        <ele>555.4</ele>
        <time>2019-08-13T10:19:57Z</time>
      </trkpt>
      <trkpt lat="40.0980020" lon="-4.3176590">
        <ele>555.4</ele>
        <time>2019-08-13T10:19:58Z</time>
      </trkpt>
      <trkpt lat="40.0980490" lon="-4.3176720">
        <ele>555.4</ele>
        <time>2019-08-13T10:19:59Z</time>
      </trkpt>
      <trkpt lat="40.0980970" lon="-4.3176830">
        <ele>555.3</ele>
        <time>2019-08-13T10:20:00Z</time>
      </trkpt>
      <trkpt lat="40.0981460" lon="-4.3176930">
        <ele>555.2</ele>
        <time>2019-08-13T10:20:01Z</time>
      </trkpt>
      <trkpt lat="40.0981950" lon="-4.3177030">
        <ele>555.1</ele>
        <time>2019-08-13T10:20:02Z</time>
      </trkpt>
      <trkpt lat="40.0982440" lon="-4.3177170">
        <ele>555.0</ele>
        <time>2019-08-13T10:20:03Z</time>
      </trkpt>
      <trkpt lat="40.0982920" lon="-4.3177320">
        <ele>554.9</ele>
        <time>2019-08-13T10:20:04Z</time>
      </trkpt>
      <trkpt lat="40.0983410" lon="-4.3177450">
        <ele>554.8</ele>
        <time>2019-08-13T10:20:05Z</time>
      </trkpt>
      <trkpt lat="40.0983890" lon="-4.3177580">
        <ele>554.8</ele>
        <time>2019-08-13T10:20:06Z</time>
      </trkpt>
      <trkpt lat="40.0984380" lon="-4.3177710">
        <ele>554.9</ele>
        <time>2019-08-13T10:20:07Z</time>
      </trkpt>
      <trkpt lat="40.0984860" lon="-4.3177830">
        <ele>555.0</ele>
        <time>2019-08-13T10:20:08Z</time>
      </trkpt>
      <trkpt lat="40.0985340" lon="-4.3177960">
        <ele>555.1</ele>
        <time>2019-08-13T10:20:09Z</time>
      </trkpt>
      <trkpt lat="40.0985820" lon="-4.3178080">
        <ele>555.3</ele>
        <time>2019-08-13T10:20:10Z</time>
      </trkpt>
      <trkpt lat="40.0986290" lon="-4.3178200">
        <ele>555.4</ele>
        <time>2019-08-13T10:20:11Z</time>
      </trkpt>
      <trkpt lat="40.0986750" lon="-4.3178300">
        <ele>555.5</ele>
        <time>2019-08-13T10:20:12Z</time>
      </trkpt>
      <trkpt lat="40.0987210" lon="-4.3178390">
        <ele>555.7</ele>
        <time>2019-08-13T10:20:13Z</time>
      </trkpt>
      <trkpt lat="40.0987670" lon="-4.3178470">
        <ele>555.8</ele>
        <time>2019-08-13T10:20:14Z</time>
      </trkpt>
      <trkpt lat="40.0988110" lon="-4.3178560">
        <ele>555.9</ele>
        <time>2019-08-13T10:20:15Z</time>
      </trkpt>
      <trkpt lat="40.0988540" lon="-4.3178630">
        <ele>556.1</ele>
        <time>2019-08-13T10:20:16Z</time>
      </trkpt>
      <trkpt lat="40.0988960" lon="-4.3178720">
        <ele>556.2</ele>
        <time>2019-08-13T10:20:17Z</time>
      </trkpt>
      <trkpt lat="40.0989390" lon="-4.3178790">
        <ele>556.2</ele>
        <time>2019-08-13T10:20:18Z</time>
      </trkpt>
      <trkpt lat="40.0989830" lon="-4.3178860">
        <ele>556.3</ele>
        <time>2019-08-13T10:20:19Z</time>
      </trkpt>
      <trkpt lat="40.0990290" lon="-4.3178930">
        <ele>556.3</ele>
        <time>2019-08-13T10:20:20Z</time>
      </trkpt>
      <trkpt lat="40.0990790" lon="-4.3179040">
        <ele>556.3</ele>
        <time>2019-08-13T10:20:21Z</time>
      </trkpt>
      <trkpt lat="40.0991340" lon="-4.3179150">
        <ele>556.3</ele>
        <time>2019-08-13T10:20:22Z</time>
      </trkpt>
      <trkpt lat="40.0991920" lon="-4.3179340">
        <ele>556.3</ele>
        <time>2019-08-13T10:20:23Z</time>
      </trkpt>
      <trkpt lat="40.0992510" lon="-4.3179620">
        <ele>556.2</ele>
        <time>2019-08-13T10:20:24Z</time>
      </trkpt>
      <trkpt lat="40.0993080" lon="-4.3180000">
        <ele>556.0</ele>
        <time>2019-08-13T10:20:25Z</time>
      </trkpt>
      <trkpt lat="40.0993640" lon="-4.3180460">
        <ele>555.6</ele>
        <time>2019-08-13T10:20:26Z</time>
      </trkpt>
      <trkpt lat="40.0994180" lon="-4.3181020">
        <ele>555.2</ele>
        <time>2019-08-13T10:20:27Z</time>
      </trkpt>
      <trkpt lat="40.0994700" lon="-4.3181630">
        <ele>554.6</ele>
        <time>2019-08-13T10:20:28Z</time>
      </trkpt>
      <trkpt lat="40.0995220" lon="-4.3182280">
        <ele>554.0</ele>
        <time>2019-08-13T10:20:29Z</time>
      </trkpt>
      <trkpt lat="40.0995740" lon="-4.3182970">
        <ele>553.5</ele>
        <time>2019-08-13T10:20:30Z</time>
      </trkpt>
      <trkpt lat="40.0996250" lon="-4.3183680">
        <ele>553.1</ele>
        <time>2019-08-13T10:20:31Z</time>
      </trkpt>
      <trkpt lat="40.0996760" lon="-4.3184400">
        <ele>552.7</ele>
        <time>2019-08-13T10:20:32Z</time>
      </trkpt>
      <trkpt lat="40.0997240" lon="-4.3185150">
        <ele>552.3</ele>
        <time>2019-08-13T10:20:33Z</time>
      </trkpt>
      <trkpt lat="40.0997710" lon="-4.3185900">
        <ele>552.0</ele>
        <time>2019-08-13T10:20:34Z</time>
      </trkpt>
      <trkpt lat="40.0998180" lon="-4.3186640">
        <ele>551.7</ele>
        <time>2019-08-13T10:20:35Z</time>
      </trkpt>
      <trkpt lat="40.0998640" lon="-4.3187370">
        <ele>551.5</ele>
        <time>2019-08-13T10:20:36Z</time>
      </trkpt>
      <trkpt lat="40.0999090" lon="-4.3188060">
        <ele>551.3</ele>
        <time>2019-08-13T10:20:37Z</time>
      </trkpt>
      <trkpt lat="40.0999550" lon="-4.3188740">
        <ele>551.2</ele>
        <time>2019-08-13T10:20:38Z</time>
      </trkpt>
      <trkpt lat="40.1000000" lon="-4.3189370">
        <ele>551.0</ele>
        <time>2019-08-13T10:20:39Z</time>
      </trkpt>
      <trkpt lat="40.1000410" lon="-4.3189980">
        <ele>550.9</ele>
        <time>2019-08-13T10:20:40Z</time>
      </trkpt>
      <trkpt lat="40.1000800" lon="-4.3190560">
        <ele>550.8</ele>
        <time>2019-08-13T10:20:41Z</time>
      </trkpt>
      <trkpt lat="40.1001150" lon="-4.3191140">
        <ele>550.7</ele>
        <time>2019-08-13T10:20:42Z</time>
      </trkpt>
      <trkpt lat="40.1001500" lon="-4.3191690">
        <ele>550.6</ele>
        <time>2019-08-13T10:20:43Z</time>
      </trkpt>
      <trkpt lat="40.1001830" lon="-4.3192210">
        <ele>550.6</ele>
        <time>2019-08-13T10:20:44Z</time>
      </trkpt>
      <trkpt lat="40.1002150" lon="-4.3192690">
        <ele>550.5</ele>
        <time>2019-08-13T10:20:45Z</time>
      </trkpt>
      <trkpt lat="40.1002460" lon="-4.3193160">
        <ele>550.5</ele>
        <time>2019-08-13T10:20:46Z</time>
      </trkpt>
      <trkpt lat="40.1002810" lon="-4.3193610">
        <ele>550.4</ele>
        <time>2019-08-13T10:20:47Z</time>
      </trkpt>
      <trkpt lat="40.1003190" lon="-4.3194070">
        <ele>549.7</ele>
        <time>2019-08-13T10:20:48Z</time>
      </trkpt>
      <trkpt lat="40.1003650" lon="-4.3194570">
        <ele>549.5</ele>
        <time>2019-08-13T10:20:49Z</time>
      </trkpt>
      <trkpt lat="40.1004170" lon="-4.3195050">
        <ele>549.2</ele>
        <time>2019-08-13T10:20:50Z</time>
      </trkpt>
      <trkpt lat="40.1004750" lon="-4.3195530">
        <ele>548.9</ele>
        <time>2019-08-13T10:20:51Z</time>
      </trkpt>
      <trkpt lat="40.1005360" lon="-4.3196010">
        <ele>548.4</ele>
        <time>2019-08-13T10:20:52Z</time>
      </trkpt>
      <trkpt lat="40.1005990" lon="-4.3196500">
        <ele>547.8</ele>
        <time>2019-08-13T10:20:53Z</time>
      </trkpt>
      <trkpt lat="40.1006650" lon="-4.3196980">
        <ele>547.2</ele>
        <time>2019-08-13T10:20:54Z</time>
      </trkpt>
      <trkpt lat="40.1007330" lon="-4.3197430">
        <ele>546.9</ele>
        <time>2019-08-13T10:20:55Z</time>
      </trkpt>
      <trkpt lat="40.1008030" lon="-4.3197850">
        <ele>546.7</ele>
        <time>2019-08-13T10:20:56Z</time>
      </trkpt>
      <trkpt lat="40.1008750" lon="-4.3198210">
        <ele>546.5</ele>
        <time>2019-08-13T10:20:57Z</time>
      </trkpt>
      <trkpt lat="40.1009480" lon="-4.3198540">
        <ele>546.4</ele>
        <time>2019-08-13T10:20:58Z</time>
      </trkpt>
      <trkpt lat="40.1010200" lon="-4.3198850">
        <ele>546.3</ele>
        <time>2019-08-13T10:20:59Z</time>
      </trkpt>
      <trkpt lat="40.1010900" lon="-4.3199140">
        <ele>546.2</ele>
        <time>2019-08-13T10:21:00Z</time>
      </trkpt>
      <trkpt lat="40.1011580" lon="-4.3199420">
        <ele>546.2</ele>
        <time>2019-08-13T10:21:01Z</time>
      </trkpt>
      <trkpt lat="40.1012250" lon="-4.3199720">
        <ele>546.2</ele>
        <time>2019-08-13T10:21:02Z</time>
      </trkpt>
      <trkpt lat="40.1012890" lon="-4.3200020">
        <ele>546.1</ele>
        <time>2019-08-13T10:21:03Z</time>
      </trkpt>
      <trkpt lat="40.1013520" lon="-4.3200300">
        <ele>546.1</ele>
        <time>2019-08-13T10:21:04Z</time>
      </trkpt>
      <trkpt lat="40.1014110" lon="-4.3200580">
        <ele>546.1</ele>
        <time>2019-08-13T10:21:05Z</time>
      </trkpt>
      <trkpt lat="40.1014670" lon="-4.3200860">
        <ele>546.1</ele>
        <time>2019-08-13T10:21:06Z</time>
      </trkpt>
      <trkpt lat="40.1015200" lon="-4.3201140">
        <ele>546.2</ele>
        <time>2019-08-13T10:21:07Z</time>
      </trkpt>
      <trkpt lat="40.1015710" lon="-4.3201380">
        <ele>546.2</ele>
        <time>2019-08-13T10:21:08Z</time>
      </trkpt>
      <trkpt lat="40.1016220" lon="-4.3201590">
        <ele>546.2</ele>
        <time>2019-08-13T10:21:09Z</time>
      </trkpt>
      <trkpt lat="40.1016690" lon="-4.3201810">
        <ele>546.2</ele>
        <time>2019-08-13T10:21:10Z</time>
      </trkpt>
      <trkpt lat="40.1017140" lon="-4.3202030">
        <ele>546.3</ele>
        <time>2019-08-13T10:21:11Z</time>
      </trkpt>
      <trkpt lat="40.1017580" lon="-4.3202230">
        <ele>546.2</ele>
        <time>2019-08-13T10:21:12Z</time>
      </trkpt>
      <trkpt lat="40.1018030" lon="-4.3202420">
        <ele>546.2</ele>
        <time>2019-08-13T10:21:13Z</time>
      </trkpt>
      <trkpt lat="40.1018460" lon="-4.3202630">
        <ele>546.2</ele>
        <time>2019-08-13T10:21:14Z</time>
      </trkpt>
      <trkpt lat="40.1018890" lon="-4.3202880">
        <ele>546.2</ele>
        <time>2019-08-13T10:21:15Z</time>
      </trkpt>
      <trkpt lat="40.1019350" lon="-4.3203150">
        <ele>546.1</ele>
        <time>2019-08-13T10:21:16Z</time>
      </trkpt>
      <trkpt lat="40.1019820" lon="-4.3203470">
        <ele>546.0</ele>
        <time>2019-08-13T10:21:17Z</time>
      </trkpt>
      <trkpt lat="40.1020310" lon="-4.3203820">
        <ele>545.9</ele>
        <time>2019-08-13T10:21:18Z</time>
      </trkpt>
      <trkpt lat="40.1020830" lon="-4.3204170">
        <ele>545.8</ele>
        <time>2019-08-13T10:21:19Z</time>
      </trkpt>
      <trkpt lat="40.1021380" lon="-4.3204530">
        <ele>545.7</ele>
        <time>2019-08-13T10:21:20Z</time>
      </trkpt>
      <trkpt lat="40.1021940" lon="-4.3204890">
        <ele>545.5</ele>
        <time>2019-08-13T10:21:21Z</time>
      </trkpt>
      <trkpt lat="40.1022510" lon="-4.3205280">
        <ele>545.2</ele>
        <time>2019-08-13T10:21:22Z</time>
      </trkpt>
      <trkpt lat="40.1023110" lon="-4.3205690">
        <ele>545.0</ele>
        <time>2019-08-13T10:21:23Z</time>
      </trkpt>
      <trkpt lat="40.1023720" lon="-4.3206130">
        <ele>544.7</ele>
        <time>2019-08-13T10:21:24Z</time>
      </trkpt>
      <trkpt lat="40.1024350" lon="-4.3206590">
        <ele>544.5</ele>
        <time>2019-08-13T10:21:25Z</time>
      </trkpt>
      <trkpt lat="40.1025020" lon="-4.3207040">
        <ele>544.2</ele>
        <time>2019-08-13T10:21:26Z</time>
      </trkpt>
      <trkpt lat="40.1025680" lon="-4.3207540">
        <ele>544.0</ele>
        <time>2019-08-13T10:21:27Z</time>
      </trkpt>
      <trkpt lat="40.1026320" lon="-4.3208010">
        <ele>543.9</ele>
        <time>2019-08-13T10:21:28Z</time>
      </trkpt>
      <trkpt lat="40.1026950" lon="-4.3208490">
        <ele>543.7</ele>
        <time>2019-08-13T10:21:29Z</time>
      </trkpt>
      <trkpt lat="40.1027530" lon="-4.3208980">
        <ele>543.6</ele>
        <time>2019-08-13T10:21:30Z</time>
      </trkpt>
      <trkpt lat="40.1028050" lon="-4.3209510">
        <ele>543.5</ele>
        <time>2019-08-13T10:21:31Z</time>
      </trkpt>
      <trkpt lat="40.1028540" lon="-4.3210020">
        <ele>543.4</ele>
        <time>2019-08-13T10:21:32Z</time>
      </trkpt>
      <trkpt lat="40.1029000" lon="-4.3210530">
        <ele>543.1</ele>
        <time>2019-08-13T10:21:33Z</time>
      </trkpt>
      <trkpt lat="40.1029430" lon="-4.3211030">
        <ele>543.0</ele>
        <time>2019-08-13T10:21:34Z</time>
      </trkpt>
      <trkpt lat="40.1029830" lon="-4.3211500">
        <ele>542.9</ele>
        <time>2019-08-13T10:21:35Z</time>
      </trkpt>
      <trkpt lat="40.1030190" lon="-4.3211960">
        <ele>542.8</ele>
        <time>2019-08-13T10:21:36Z</time>
      </trkpt>
      <trkpt lat="40.1030500" lon="-4.3212410">
        <ele>542.8</ele>
        <time>2019-08-13T10:21:37Z</time>
      </trkpt>
      <trkpt lat="40.1030790" lon="-4.3212850">
        <ele>542.7</ele>
        <time>2019-08-13T10:21:38Z</time>
      </trkpt>
      <trkpt lat="40.1031100" lon="-4.3213280">
        <ele>542.6</ele>
        <time>2019-08-13T10:21:39Z</time>
      </trkpt>
      <trkpt lat="40.1031410" lon="-4.3213730">
        <ele>542.5</ele>
        <time>2019-08-13T10:21:40Z</time>
      </trkpt>
      <trkpt lat="40.1031710" lon="-4.3214210">
        <ele>542.4</ele>
        <time>2019-08-13T10:21:41Z</time>
      </trkpt>
      <trkpt lat="40.1032040" lon="-4.3214700">
        <ele>542.2</ele>
        <time>2019-08-13T10:21:42Z</time>
      </trkpt>
      <trkpt lat="40.1032380" lon="-4.3215190">
        <ele>542.0</ele>
        <time>2019-08-13T10:21:43Z</time>
      </trkpt>
      <trkpt lat="40.1032750" lon="-4.3215690">
        <ele>541.9</ele>
        <time>2019-08-13T10:21:44Z</time>
      </trkpt>
      <trkpt lat="40.1033100" lon="-4.3216190">
        <ele>541.8</ele>
        <time>2019-08-13T10:21:45Z</time>
      </trkpt>
      <trkpt lat="40.1033460" lon="-4.3216730">
        <ele>541.7</ele>
        <time>2019-08-13T10:21:46Z</time>
      </trkpt>
      <trkpt lat="40.1033830" lon="-4.3217270">
        <ele>541.7</ele>
        <time>2019-08-13T10:21:47Z</time>
      </trkpt>
      <trkpt lat="40.1034170" lon="-4.3217810">
        <ele>541.6</ele>
        <time>2019-08-13T10:21:48Z</time>
      </trkpt>
      <trkpt lat="40.1034500" lon="-4.3218380">
        <ele>541.5</ele>
        <time>2019-08-13T10:21:49Z</time>
      </trkpt>
      <trkpt lat="40.1034840" lon="-4.3218970">
        <ele>541.4</ele>
        <time>2019-08-13T10:21:50Z</time>
      </trkpt>
      <trkpt lat="40.1035200" lon="-4.3219540">
        <ele>541.3</ele>
        <time>2019-08-13T10:21:51Z</time>
      </trkpt>
      <trkpt lat="40.1035560" lon="-4.3220130">
        <ele>541.3</ele>
        <time>2019-08-13T10:21:52Z</time>
      </trkpt>
      <trkpt lat="40.1035910" lon="-4.3220740">
        <ele>541.3</ele>
        <time>2019-08-13T10:21:53Z</time>
      </trkpt>
      <trkpt lat="40.1036250" lon="-4.3221370">
        <ele>541.3</ele>
        <time>2019-08-13T10:21:54Z</time>
      </trkpt>
      <trkpt lat="40.1036590" lon="-4.3221990">
        <ele>541.3</ele>
        <time>2019-08-13T10:21:55Z</time>
      </trkpt>
      <trkpt lat="40.1036950" lon="-4.3222590">
        <ele>541.3</ele>
        <time>2019-08-13T10:21:56Z</time>
      </trkpt>
      <trkpt lat="40.1037330" lon="-4.3223150">
        <ele>541.4</ele>
        <time>2019-08-13T10:21:57Z</time>
      </trkpt>
      <trkpt lat="40.1037720" lon="-4.3223680">
        <ele>541.4</ele>
        <time>2019-08-13T10:21:58Z</time>
      </trkpt>
      <trkpt lat="40.1038100" lon="-4.3224200">
        <ele>541.5</ele>
        <time>2019-08-13T10:21:59Z</time>
      </trkpt>
      <trkpt lat="40.1038480" lon="-4.3224700">
        <ele>541.5</ele>
        <time>2019-08-13T10:22:00Z</time>
      </trkpt>
      <trkpt lat="40.1038850" lon="-4.3225210">
        <ele>541.7</ele>
        <time>2019-08-13T10:22:01Z</time>
      </trkpt>
      <trkpt lat="40.1039200" lon="-4.3225760">
        <ele>541.8</ele>
        <time>2019-08-13T10:22:02Z</time>
      </trkpt>
      <trkpt lat="40.1039530" lon="-4.3226290">
        <ele>542.4</ele>
        <time>2019-08-13T10:22:03Z</time>
      </trkpt>
      <trkpt lat="40.1039830" lon="-4.3226820">
        <ele>542.4</ele>
        <time>2019-08-13T10:22:04Z</time>
      </trkpt>
      <trkpt lat="40.1040080" lon="-4.3227330">
        <ele>542.7</ele>
        <time>2019-08-13T10:22:05Z</time>
      </trkpt>
      <trkpt lat="40.1040310" lon="-4.3227820">
        <ele>542.9</ele>
        <time>2019-08-13T10:22:06Z</time>
      </trkpt>
      <trkpt lat="40.1040500" lon="-4.3228320">
        <ele>543.1</ele>
        <time>2019-08-13T10:22:07Z</time>
      </trkpt>
      <trkpt lat="40.1040680" lon="-4.3228800">
        <ele>543.3</ele>
        <time>2019-08-13T10:22:08Z</time>
      </trkpt>
      <trkpt lat="40.1040850" lon="-4.3229270">
        <ele>544.1</ele>
        <time>2019-08-13T10:22:09Z</time>
      </trkpt>
      <trkpt lat="40.1041020" lon="-4.3229690">
        <ele>544.3</ele>
        <time>2019-08-13T10:22:10Z</time>
      </trkpt>
      <trkpt lat="40.1041160" lon="-4.3230080">
        <ele>544.5</ele>
        <time>2019-08-13T10:22:11Z</time>
      </trkpt>
      <trkpt lat="40.1041290" lon="-4.3230430">
        <ele>544.7</ele>
        <time>2019-08-13T10:22:12Z</time>
      </trkpt>
      <trkpt lat="40.1041500" lon="-4.3230990">
        <ele>545.0</ele>
        <time>2019-08-13T10:22:14Z</time>
      </trkpt>
      <trkpt lat="40.1041670" lon="-4.3231500">
        <ele>545.2</ele>
        <time>2019-08-13T10:22:16Z</time>
      </trkpt>
      <trkpt lat="40.1041920" lon="-4.3232000">
        <ele>545.6</ele>
        <time>2019-08-13T10:22:18Z</time>
      </trkpt>
      <trkpt lat="40.1042160" lon="-4.3232520">
        <ele>545.9</ele>
        <time>2019-08-13T10:22:20Z</time>
      </trkpt>
      <trkpt lat="40.1042410" lon="-4.3233030">
        <ele>546.1</ele>
        <time>2019-08-13T10:22:22Z</time>
      </trkpt>
      <trkpt lat="40.1042670" lon="-4.3233530">
        <ele>546.3</ele>
        <time>2019-08-13T10:22:24Z</time>
      </trkpt>
      <trkpt lat="40.1042940" lon="-4.3234000">
        <ele>546.4</ele>
        <time>2019-08-13T10:22:26Z</time>
      </trkpt>
      <trkpt lat="40.1043210" lon="-4.3234470">
        <ele>546.6</ele>
        <time>2019-08-13T10:22:28Z</time>
      </trkpt>
      <trkpt lat="40.1043450" lon="-4.3234930">
        <ele>546.8</ele>
        <time>2019-08-13T10:22:30Z</time>
      </trkpt>
      <trkpt lat="40.1043680" lon="-4.3235390">
        <ele>546.9</ele>
        <time>2019-08-13T10:22:32Z</time>
      </trkpt>
      <trkpt lat="40.1043870" lon="-4.3235890">
        <ele>547.2</ele>
        <time>2019-08-13T10:22:34Z</time>
      </trkpt>
      <trkpt lat="40.1044050" lon="-4.3236390">
        <ele>547.5</ele>
        <time>2019-08-13T10:22:36Z</time>
      </trkpt>
      <trkpt lat="40.1044240" lon="-4.3236910">
        <ele>547.8</ele>
        <time>2019-08-13T10:22:38Z</time>
      </trkpt>
      <trkpt lat="40.1044520" lon="-4.3237430">
        <ele>547.9</ele>
        <time>2019-08-13T10:22:40Z</time>
      </trkpt>
      <trkpt lat="40.1044850" lon="-4.3237950">
        <ele>548.1</ele>
        <time>2019-08-13T10:22:42Z</time>
      </trkpt>
      <trkpt lat="40.1045220" lon="-4.3238440">
        <ele>548.3</ele>
        <time>2019-08-13T10:22:44Z</time>
      </trkpt>
      <trkpt lat="40.1045450" lon="-4.3238660">
        <ele>548.4</ele>
        <time>2019-08-13T10:22:45Z</time>
      </trkpt>
      <trkpt lat="40.1045680" lon="-4.3238870">
        <ele>548.5</ele>
        <time>2019-08-13T10:22:46Z</time>
      </trkpt>
      <trkpt lat="40.1046090" lon="-4.3239280">
        <ele>548.7</ele>
        <time>2019-08-13T10:22:48Z</time>
      </trkpt>
      <trkpt lat="40.1046380" lon="-4.3239620">
        <ele>548.8</ele>
        <time>2019-08-13T10:22:50Z</time>
      </trkpt>
      <trkpt lat="40.1046610" lon="-4.3239970">
        <ele>548.8</ele>
        <time>2019-08-13T10:22:53Z</time>
      </trkpt>
      <trkpt lat="40.1046810" lon="-4.3240080">
        <ele>548.8</ele>
        <time>2019-08-13T10:23:00Z</time>
      </trkpt>
      <trkpt lat="40.1046590" lon="-4.3239730">
        <ele>548.8</ele>
        <time>2019-08-13T10:23:04Z</time>
      </trkpt>
      <trkpt lat="40.1046080" lon="-4.3240510">
        <ele>548.8</ele>
        <time>2019-08-13T10:23:57Z</time>
      </trkpt>
      <trkpt lat="40.1045930" lon="-4.3241050">
        <ele>548.8</ele>
        <time>2019-08-13T10:23:59Z</time>
      </trkpt>
      <trkpt lat="40.1045750" lon="-4.3241740">
        <ele>548.8</ele>
        <time>2019-08-13T10:24:01Z</time>
      </trkpt>
      <trkpt lat="40.1045690" lon="-4.3242130">
        <ele>548.8</ele>
        <time>2019-08-13T10:24:02Z</time>
      </trkpt>
      <trkpt lat="40.1045630" lon="-4.3242520">
        <ele>548.8</ele>
        <time>2019-08-13T10:24:03Z</time>
      </trkpt>
      <trkpt lat="40.1045620" lon="-4.3242950">
        <ele>548.8</ele>
        <time>2019-08-13T10:24:04Z</time>
      </trkpt>
      <trkpt lat="40.1045800" lon="-4.3243350">
        <ele>548.9</ele>
        <time>2019-08-13T10:24:05Z</time>
      </trkpt>
      <trkpt lat="40.1046100" lon="-4.3243600">
        <ele>549.0</ele>
        <time>2019-08-13T10:24:06Z</time>
      </trkpt>
      <trkpt lat="40.1046440" lon="-4.3243720">
        <ele>549.2</ele>
        <time>2019-08-13T10:24:07Z</time>
      </trkpt>
      <trkpt lat="40.1046730" lon="-4.3243790">
        <ele>549.3</ele>
        <time>2019-08-13T10:24:08Z</time>
      </trkpt>
      <trkpt lat="40.1047020" lon="-4.3243830">
        <ele>549.4</ele>
        <time>2019-08-13T10:24:09Z</time>
      </trkpt>
      <trkpt lat="40.1047330" lon="-4.3243920">
        <ele>549.5</ele>
        <time>2019-08-13T10:24:10Z</time>
      </trkpt>
      <trkpt lat="40.1047620" lon="-4.3244070">
        <ele>549.6</ele>
        <time>2019-08-13T10:24:11Z</time>
      </trkpt>
      <trkpt lat="40.1047900" lon="-4.3244240">
        <ele>549.7</ele>
        <time>2019-08-13T10:24:12Z</time>
      </trkpt>
      <trkpt lat="40.1048170" lon="-4.3244410">
        <ele>549.8</ele>
        <time>2019-08-13T10:24:13Z</time>
      </trkpt>
      <trkpt lat="40.1048470" lon="-4.3244510">
        <ele>549.9</ele>
        <time>2019-08-13T10:24:14Z</time>
      </trkpt>
      <trkpt lat="40.1048770" lon="-4.3244660">
        <ele>550.0</ele>
        <time>2019-08-13T10:24:15Z</time>
      </trkpt>
      <trkpt lat="40.1049040" lon="-4.3244850">
        <ele>550.1</ele>
        <time>2019-08-13T10:24:16Z</time>
      </trkpt>
      <trkpt lat="40.1049290" lon="-4.3245070">
        <ele>550.2</ele>
        <time>2019-08-13T10:24:17Z</time>
      </trkpt>
      <trkpt lat="40.1049540" lon="-4.3245290">
        <ele>550.4</ele>
        <time>2019-08-13T10:24:18Z</time>
      </trkpt>
      <trkpt lat="40.1049790" lon="-4.3245530">
        <ele>550.5</ele>
        <time>2019-08-13T10:24:19Z</time>
      </trkpt>
      <trkpt lat="40.1050040" lon="-4.3245780">
        <ele>550.3</ele>
        <time>2019-08-13T10:24:20Z</time>
      </trkpt>
      <trkpt lat="40.1050260" lon="-4.3246040">
        <ele>550.1</ele>
        <time>2019-08-13T10:24:21Z</time>
      </trkpt>
      <trkpt lat="40.1050490" lon="-4.3246300">
        <ele>549.9</ele>
        <time>2019-08-13T10:24:22Z</time>
      </trkpt>
      <trkpt lat="40.1050730" lon="-4.3246560">
        <ele>549.7</ele>
        <time>2019-08-13T10:24:23Z</time>
      </trkpt>
      <trkpt lat="40.1050960" lon="-4.3246830">
        <ele>549.6</ele>
        <time>2019-08-13T10:24:24Z</time>
      </trkpt>
      <trkpt lat="40.1051190" lon="-4.3247100">
        <ele>549.5</ele>
        <time>2019-08-13T10:24:25Z</time>
      </trkpt>
      <trkpt lat="40.1051430" lon="-4.3247370">
        <ele>549.4</ele>
        <time>2019-08-13T10:24:26Z</time>
      </trkpt>
      <trkpt lat="40.1051670" lon="-4.3247640">
        <ele>549.3</ele>
        <time>2019-08-13T10:24:27Z</time>
      </trkpt>
      <trkpt lat="40.1051930" lon="-4.3247870">
        <ele>549.2</ele>
        <time>2019-08-13T10:24:28Z</time>
      </trkpt>
      <trkpt lat="40.1052180" lon="-4.3248100">
        <ele>549.2</ele>
        <time>2019-08-13T10:24:29Z</time>
      </trkpt>
      <trkpt lat="40.1052440" lon="-4.3248330">
        <ele>549.2</ele>
        <time>2019-08-13T10:24:30Z</time>
      </trkpt>
      <trkpt lat="40.1052700" lon="-4.3248570">
        <ele>549.3</ele>
        <time>2019-08-13T10:24:31Z</time>
      </trkpt>
      <trkpt lat="40.1052940" lon="-4.3248820">
        <ele>549.4</ele>
        <time>2019-08-13T10:24:32Z</time>
      </trkpt>
      <trkpt lat="40.1053180" lon="-4.3249060">
        <ele>549.5</ele>
        <time>2019-08-13T10:24:33Z</time>
      </trkpt>
      <trkpt lat="40.1053430" lon="-4.3249310">
        <ele>549.7</ele>
        <time>2019-08-13T10:24:34Z</time>
      </trkpt>
      <trkpt lat="40.1053660" lon="-4.3249570">
        <ele>549.9</ele>
        <time>2019-08-13T10:24:35Z</time>
      </trkpt>
      <trkpt lat="40.1053890" lon="-4.3249810">
        <ele>550.1</ele>
        <time>2019-08-13T10:24:36Z</time>
      </trkpt>
      <trkpt lat="40.1054120" lon="-4.3250030">
        <ele>550.2</ele>
        <time>2019-08-13T10:24:37Z</time>
      </trkpt>
      <trkpt lat="40.1054370" lon="-4.3250240">
        <ele>550.4</ele>
        <time>2019-08-13T10:24:38Z</time>
      </trkpt>
      <trkpt lat="40.1054640" lon="-4.3250410">
        <ele>550.6</ele>
        <time>2019-08-13T10:24:39Z</time>
      </trkpt>
      <trkpt lat="40.1054910" lon="-4.3250570">
        <ele>550.8</ele>
        <time>2019-08-13T10:24:40Z</time>
      </trkpt>
      <trkpt lat="40.1055180" lon="-4.3250750">
        <ele>551.0</ele>
        <time>2019-08-13T10:24:41Z</time>
      </trkpt>
      <trkpt lat="40.1055430" lon="-4.3250950">
        <ele>551.2</ele>
        <time>2019-08-13T10:24:42Z</time>
      </trkpt>
      <trkpt lat="40.1055690" lon="-4.3251170">
        <ele>551.3</ele>
        <time>2019-08-13T10:24:43Z</time>
      </trkpt>
      <trkpt lat="40.1055930" lon="-4.3251380">
        <ele>551.5</ele>
        <time>2019-08-13T10:24:44Z</time>
      </trkpt>
      <trkpt lat="40.1056170" lon="-4.3251570">
        <ele>551.7</ele>
        <time>2019-08-13T10:24:45Z</time>
      </trkpt>
      <trkpt lat="40.1056400" lon="-4.3251780">
        <ele>551.9</ele>
        <time>2019-08-13T10:24:46Z</time>
      </trkpt>
      <trkpt lat="40.1056630" lon="-4.3252000">
        <ele>552.0</ele>
        <time>2019-08-13T10:24:47Z</time>
      </trkpt>
      <trkpt lat="40.1056850" lon="-4.3252230">
        <ele>552.2</ele>
        <time>2019-08-13T10:24:48Z</time>
      </trkpt>
      <trkpt lat="40.1057070" lon="-4.3252460">
        <ele>552.3</ele>
        <time>2019-08-13T10:24:49Z</time>
      </trkpt>
      <trkpt lat="40.1057300" lon="-4.3252670">
        <ele>552.3</ele>
        <time>2019-08-13T10:24:50Z</time>
      </trkpt>
      <trkpt lat="40.1057540" lon="-4.3252880">
        <ele>552.3</ele>
        <time>2019-08-13T10:24:51Z</time>
      </trkpt>
      <trkpt lat="40.1057790" lon="-4.3253090">
        <ele>552.2</ele>
        <time>2019-08-13T10:24:52Z</time>
      </trkpt>
      <trkpt lat="40.1058040" lon="-4.3253280">
        <ele>552.2</ele>
        <time>2019-08-13T10:24:53Z</time>
      </trkpt>
      <trkpt lat="40.1058310" lon="-4.3253480">
        <ele>552.2</ele>
        <time>2019-08-13T10:24:54Z</time>
      </trkpt>
      <trkpt lat="40.1058560" lon="-4.3253680">
        <ele>552.2</ele>
        <time>2019-08-13T10:24:55Z</time>
      </trkpt>
      <trkpt lat="40.1058830" lon="-4.3253870">
        <ele>552.2</ele>
        <time>2019-08-13T10:24:56Z</time>
      </trkpt>
      <trkpt lat="40.1059110" lon="-4.3254060">
        <ele>552.2</ele>
        <time>2019-08-13T10:24:57Z</time>
      </trkpt>
      <trkpt lat="40.1059370" lon="-4.3254260">
        <ele>552.2</ele>
        <time>2019-08-13T10:24:58Z</time>
      </trkpt>
      <trkpt lat="40.1059650" lon="-4.3254470">
        <ele>552.2</ele>
        <time>2019-08-13T10:24:59Z</time>
      </trkpt>
      <trkpt lat="40.1059930" lon="-4.3254670">
        <ele>552.2</ele>
        <time>2019-08-13T10:25:00Z</time>
      </trkpt>
      <trkpt lat="40.1060220" lon="-4.3254850">
        <ele>552.2</ele>
        <time>2019-08-13T10:25:01Z</time>
      </trkpt>
      <trkpt lat="40.1060520" lon="-4.3255040">
        <ele>552.2</ele>
        <time>2019-08-13T10:25:02Z</time>
      </trkpt>
      <trkpt lat="40.1060820" lon="-4.3255220">
        <ele>552.2</ele>
        <time>2019-08-13T10:25:03Z</time>
      </trkpt>
      <trkpt lat="40.1061130" lon="-4.3255430">
        <ele>552.2</ele>
        <time>2019-08-13T10:25:04Z</time>
      </trkpt>
      <trkpt lat="40.1061440" lon="-4.3255630">
        <ele>552.2</ele>
        <time>2019-08-13T10:25:05Z</time>
      </trkpt>
      <trkpt lat="40.1061740" lon="-4.3255830">
        <ele>552.2</ele>
        <time>2019-08-13T10:25:06Z</time>
      </trkpt>
      <trkpt lat="40.1062050" lon="-4.3256030">
        <ele>552.2</ele>
        <time>2019-08-13T10:25:07Z</time>
      </trkpt>
      <trkpt lat="40.1062350" lon="-4.3256220">
        <ele>552.2</ele>
        <time>2019-08-13T10:25:08Z</time>
      </trkpt>
      <trkpt lat="40.1062640" lon="-4.3256430">
        <ele>552.2</ele>
        <time>2019-08-13T10:25:09Z</time>
      </trkpt>
      <trkpt lat="40.1062930" lon="-4.3256650">
        <ele>552.2</ele>
        <time>2019-08-13T10:25:10Z</time>
      </trkpt>
      <trkpt lat="40.1063230" lon="-4.3256890">
        <ele>552.3</ele>
        <time>2019-08-13T10:25:11Z</time>
      </trkpt>
      <trkpt lat="40.1063550" lon="-4.3257150">
        <ele>552.3</ele>
        <time>2019-08-13T10:25:12Z</time>
      </trkpt>
      <trkpt lat="40.1063890" lon="-4.3257430">
        <ele>552.2</ele>
        <time>2019-08-13T10:25:13Z</time>
      </trkpt>
      <trkpt lat="40.1064250" lon="-4.3257730">
        <ele>552.2</ele>
        <time>2019-08-13T10:25:14Z</time>
      </trkpt>
      <trkpt lat="40.1064600" lon="-4.3258020">
        <ele>552.2</ele>
        <time>2019-08-13T10:25:15Z</time>
      </trkpt>
      <trkpt lat="40.1064960" lon="-4.3258300">
        <ele>552.2</ele>
        <time>2019-08-13T10:25:16Z</time>
      </trkpt>
      <trkpt lat="40.1065310" lon="-4.3258580">
        <ele>552.2</ele>
        <time>2019-08-13T10:25:17Z</time>
      </trkpt>
      <trkpt lat="40.1065650" lon="-4.3258880">
        <ele>552.1</ele>
        <time>2019-08-13T10:25:18Z</time>
      </trkpt>
      <trkpt lat="40.1066000" lon="-4.3259150">
        <ele>552.1</ele>
        <time>2019-08-13T10:25:19Z</time>
      </trkpt>
      <trkpt lat="40.1066330" lon="-4.3259450">
        <ele>552.1</ele>
        <time>2019-08-13T10:25:20Z</time>
      </trkpt>
      <trkpt lat="40.1066610" lon="-4.3259740">
        <ele>552.1</ele>
        <time>2019-08-13T10:25:21Z</time>
      </trkpt>
      <trkpt lat="40.1066910" lon="-4.3260000">
        <ele>552.0</ele>
        <time>2019-08-13T10:25:22Z</time>
      </trkpt>
      <trkpt lat="40.1067200" lon="-4.3260270">
        <ele>552.0</ele>
        <time>2019-08-13T10:25:23Z</time>
      </trkpt>
      <trkpt lat="40.1067510" lon="-4.3260530">
        <ele>552.0</ele>
        <time>2019-08-13T10:25:24Z</time>
      </trkpt>
      <trkpt lat="40.1067840" lon="-4.3260810">
        <ele>551.9</ele>
        <time>2019-08-13T10:25:25Z</time>
      </trkpt>
      <trkpt lat="40.1068200" lon="-4.3261090">
        <ele>551.9</ele>
        <time>2019-08-13T10:25:26Z</time>
      </trkpt>
      <trkpt lat="40.1068570" lon="-4.3261370">
        <ele>551.9</ele>
        <time>2019-08-13T10:25:27Z</time>
      </trkpt>
      <trkpt lat="40.1068940" lon="-4.3261670">
        <ele>551.8</ele>
        <time>2019-08-13T10:25:28Z</time>
      </trkpt>
      <trkpt lat="40.1069330" lon="-4.3262010">
        <ele>551.8</ele>
        <time>2019-08-13T10:25:29Z</time>
      </trkpt>
      <trkpt lat="40.1069720" lon="-4.3262350">
        <ele>551.7</ele>
        <time>2019-08-13T10:25:30Z</time>
      </trkpt>
      <trkpt lat="40.1070120" lon="-4.3262700">
        <ele>551.6</ele>
        <time>2019-08-13T10:25:31Z</time>
      </trkpt>
      <trkpt lat="40.1070500" lon="-4.3263040">
        <ele>551.5</ele>
        <time>2019-08-13T10:25:32Z</time>
      </trkpt>
      <trkpt lat="40.1070870" lon="-4.3263350">
        <ele>551.4</ele>
        <time>2019-08-13T10:25:33Z</time>
      </trkpt>
      <trkpt lat="40.1071250" lon="-4.3263660">
        <ele>551.2</ele>
        <time>2019-08-13T10:25:34Z</time>
      </trkpt>
      <trkpt lat="40.1071620" lon="-4.3263960">
        <ele>551.1</ele>
        <time>2019-08-13T10:25:35Z</time>
      </trkpt>
      <trkpt lat="40.1071980" lon="-4.3264230">
        <ele>551.0</ele>
        <time>2019-08-13T10:25:36Z</time>
      </trkpt>
      <trkpt lat="40.1072280" lon="-4.3264460">
        <ele>550.8</ele>
        <time>2019-08-13T10:25:37Z</time>
      </trkpt>
      <trkpt lat="40.1072530" lon="-4.3264640">
        <ele>550.8</ele>
        <time>2019-08-13T10:25:38Z</time>
      </trkpt>
      <trkpt lat="40.1072930" lon="-4.3264910">
        <ele>550.6</ele>
        <time>2019-08-13T10:25:40Z</time>
      </trkpt>
      <trkpt lat="40.1073390" lon="-4.3265290">
        <ele>550.5</ele>
        <time>2019-08-13T10:25:42Z</time>
      </trkpt>
      <trkpt lat="40.1073680" lon="-4.3265560">
        <ele>550.4</ele>
        <time>2019-08-13T10:25:43Z</time>
      </trkpt>
      <trkpt lat="40.1073990" lon="-4.3265910">
        <ele>550.3</ele>
        <time>2019-08-13T10:25:44Z</time>
      </trkpt>
      <trkpt lat="40.1074340" lon="-4.3266300">
        <ele>550.1</ele>
        <time>2019-08-13T10:25:45Z</time>
      </trkpt>
      <trkpt lat="40.1074720" lon="-4.3266720">
        <ele>550.0</ele>
        <time>2019-08-13T10:25:46Z</time>
      </trkpt>
      <trkpt lat="40.1075130" lon="-4.3267160">
        <ele>549.9</ele>
        <time>2019-08-13T10:25:47Z</time>
      </trkpt>
      <trkpt lat="40.1075520" lon="-4.3267600">
        <ele>549.8</ele>
        <time>2019-08-13T10:25:48Z</time>
      </trkpt>
      <trkpt lat="40.1075910" lon="-4.3268040">
        <ele>549.6</ele>
        <time>2019-08-13T10:25:49Z</time>
      </trkpt>
      <trkpt lat="40.1076280" lon="-4.3268460">
        <ele>549.5</ele>
        <time>2019-08-13T10:25:50Z</time>
      </trkpt>
      <trkpt lat="40.1076650" lon="-4.3268860">
        <ele>549.4</ele>
        <time>2019-08-13T10:25:51Z</time>
      </trkpt>
      <trkpt lat="40.1077030" lon="-4.3269230">
        <ele>549.3</ele>
        <time>2019-08-13T10:25:52Z</time>
      </trkpt>
      <trkpt lat="40.1077410" lon="-4.3269610">
        <ele>549.2</ele>
        <time>2019-08-13T10:25:53Z</time>
      </trkpt>
      <trkpt lat="40.1077790" lon="-4.3269970">
        <ele>549.1</ele>
        <time>2019-08-13T10:25:54Z</time>
      </trkpt>
      <trkpt lat="40.1078170" lon="-4.3270360">
        <ele>549.0</ele>
        <time>2019-08-13T10:25:55Z</time>
      </trkpt>
      <trkpt lat="40.1078580" lon="-4.3270770">
        <ele>548.8</ele>
        <time>2019-08-13T10:25:56Z</time>
      </trkpt>
      <trkpt lat="40.1078990" lon="-4.3271190">
        <ele>548.7</ele>
        <time>2019-08-13T10:25:57Z</time>
      </trkpt>
      <trkpt lat="40.1079380" lon="-4.3271640">
        <ele>548.5</ele>
        <time>2019-08-13T10:25:58Z</time>
      </trkpt>
      <trkpt lat="40.1079770" lon="-4.3272080">
        <ele>548.4</ele>
        <time>2019-08-13T10:25:59Z</time>
      </trkpt>
      <trkpt lat="40.1080160" lon="-4.3272520">
        <ele>548.3</ele>
        <time>2019-08-13T10:26:00Z</time>
      </trkpt>
      <trkpt lat="40.1080540" lon="-4.3272970">
        <ele>548.2</ele>
        <time>2019-08-13T10:26:01Z</time>
      </trkpt>
      <trkpt lat="40.1080910" lon="-4.3273410">
        <ele>548.1</ele>
        <time>2019-08-13T10:26:02Z</time>
      </trkpt>
      <trkpt lat="40.1081270" lon="-4.3273860">
        <ele>548.0</ele>
        <time>2019-08-13T10:26:03Z</time>
      </trkpt>
      <trkpt lat="40.1081640" lon="-4.3274310">
        <ele>548.0</ele>
        <time>2019-08-13T10:26:04Z</time>
      </trkpt>
      <trkpt lat="40.1082000" lon="-4.3274770">
        <ele>547.9</ele>
        <time>2019-08-13T10:26:05Z</time>
      </trkpt>
      <trkpt lat="40.1082380" lon="-4.3275250">
        <ele>547.8</ele>
        <time>2019-08-13T10:26:06Z</time>
      </trkpt>
      <trkpt lat="40.1082780" lon="-4.3275740">
        <ele>547.7</ele>
        <time>2019-08-13T10:26:07Z</time>
      </trkpt>
      <trkpt lat="40.1083190" lon="-4.3276240">
        <ele>547.6</ele>
        <time>2019-08-13T10:26:08Z</time>
      </trkpt>
      <trkpt lat="40.1083590" lon="-4.3276730">
        <ele>547.5</ele>
        <time>2019-08-13T10:26:09Z</time>
      </trkpt>
      <trkpt lat="40.1084010" lon="-4.3277150">
        <ele>547.5</ele>
        <time>2019-08-13T10:26:10Z</time>
      </trkpt>
      <trkpt lat="40.1084450" lon="-4.3277500">
        <ele>547.4</ele>
        <time>2019-08-13T10:26:11Z</time>
      </trkpt>
      <trkpt lat="40.1084890" lon="-4.3277820">
        <ele>547.4</ele>
        <time>2019-08-13T10:26:12Z</time>
      </trkpt>
      <trkpt lat="40.1085350" lon="-4.3278120">
        <ele>547.3</ele>
        <time>2019-08-13T10:26:13Z</time>
      </trkpt>
      <trkpt lat="40.1085820" lon="-4.3278420">
        <ele>547.1</ele>
        <time>2019-08-13T10:26:14Z</time>
      </trkpt>
      <trkpt lat="40.1086290" lon="-4.3278710">
        <ele>546.9</ele>
        <time>2019-08-13T10:26:15Z</time>
      </trkpt>
      <trkpt lat="40.1086750" lon="-4.3279000">
        <ele>546.8</ele>
        <time>2019-08-13T10:26:16Z</time>
      </trkpt>
      <trkpt lat="40.1087200" lon="-4.3279270">
        <ele>546.6</ele>
        <time>2019-08-13T10:26:17Z</time>
      </trkpt>
      <trkpt lat="40.1087650" lon="-4.3279520">
        <ele>546.5</ele>
        <time>2019-08-13T10:26:18Z</time>
      </trkpt>
      <trkpt lat="40.1088100" lon="-4.3279730">
        <ele>546.4</ele>
        <time>2019-08-13T10:26:19Z</time>
      </trkpt>
      <trkpt lat="40.1088560" lon="-4.3279950">
        <ele>546.3</ele>
        <time>2019-08-13T10:26:20Z</time>
      </trkpt>
      <trkpt lat="40.1089030" lon="-4.3280180">
        <ele>546.3</ele>
        <time>2019-08-13T10:26:21Z</time>
      </trkpt>
      <trkpt lat="40.1089490" lon="-4.3280430">
        <ele>546.2</ele>
        <time>2019-08-13T10:26:22Z</time>
      </trkpt>
      <trkpt lat="40.1089950" lon="-4.3280680">
        <ele>546.2</ele>
        <time>2019-08-13T10:26:23Z</time>
      </trkpt>
      <trkpt lat="40.1090360" lon="-4.3280980">
        <ele>546.2</ele>
        <time>2019-08-13T10:26:24Z</time>
      </trkpt>
      <trkpt lat="40.1090760" lon="-4.3281270">
        <ele>546.1</ele>
        <time>2019-08-13T10:26:25Z</time>
      </trkpt>
      <trkpt lat="40.1091190" lon="-4.3281560">
        <ele>545.8</ele>
        <time>2019-08-13T10:26:26Z</time>
      </trkpt>
      <trkpt lat="40.1091640" lon="-4.3281830">
        <ele>545.4</ele>
        <time>2019-08-13T10:26:27Z</time>
      </trkpt>
      <trkpt lat="40.1092100" lon="-4.3282120">
        <ele>545.1</ele>
        <time>2019-08-13T10:26:28Z</time>
      </trkpt>
      <trkpt lat="40.1092570" lon="-4.3282400">
        <ele>544.8</ele>
        <time>2019-08-13T10:26:29Z</time>
      </trkpt>
      <trkpt lat="40.1093050" lon="-4.3282710">
        <ele>544.7</ele>
        <time>2019-08-13T10:26:30Z</time>
      </trkpt>
      <trkpt lat="40.1093530" lon="-4.3283030">
        <ele>544.5</ele>
        <time>2019-08-13T10:26:31Z</time>
      </trkpt>
      <trkpt lat="40.1094010" lon="-4.3283330">
        <ele>544.4</ele>
        <time>2019-08-13T10:26:32Z</time>
      </trkpt>
      <trkpt lat="40.1094490" lon="-4.3283580">
        <ele>544.4</ele>
        <time>2019-08-13T10:26:33Z</time>
      </trkpt>
      <trkpt lat="40.1094980" lon="-4.3283800">
        <ele>544.3</ele>
        <time>2019-08-13T10:26:34Z</time>
      </trkpt>
      <trkpt lat="40.1095460" lon="-4.3284010">
        <ele>544.2</ele>
        <time>2019-08-13T10:26:35Z</time>
      </trkpt>
      <trkpt lat="40.1095940" lon="-4.3284190">
        <ele>544.2</ele>
        <time>2019-08-13T10:26:36Z</time>
      </trkpt>
      <trkpt lat="40.1096410" lon="-4.3284340">
        <ele>544.1</ele>
        <time>2019-08-13T10:26:37Z</time>
      </trkpt>
      <trkpt lat="40.1096880" lon="-4.3284490">
        <ele>544.1</ele>
        <time>2019-08-13T10:26:38Z</time>
      </trkpt>
      <trkpt lat="40.1097380" lon="-4.3284640">
        <ele>544.1</ele>
        <time>2019-08-13T10:26:39Z</time>
      </trkpt>
      <trkpt lat="40.1097880" lon="-4.3284780">
        <ele>544.0</ele>
        <time>2019-08-13T10:26:40Z</time>
      </trkpt>
      <trkpt lat="40.1098380" lon="-4.3284900">
        <ele>544.0</ele>
        <time>2019-08-13T10:26:41Z</time>
      </trkpt>
      <trkpt lat="40.1098870" lon="-4.3285010">
        <ele>544.0</ele>
        <time>2019-08-13T10:26:42Z</time>
      </trkpt>
      <trkpt lat="40.1099350" lon="-4.3285130">
        <ele>544.0</ele>
        <time>2019-08-13T10:26:43Z</time>
      </trkpt>
      <trkpt lat="40.1099820" lon="-4.3285250">
        <ele>544.0</ele>
        <time>2019-08-13T10:26:44Z</time>
      </trkpt>
      <trkpt lat="40.1100290" lon="-4.3285380">
        <ele>544.0</ele>
        <time>2019-08-13T10:26:45Z</time>
      </trkpt>
      <trkpt lat="40.1100780" lon="-4.3285510">
        <ele>544.0</ele>
        <time>2019-08-13T10:26:46Z</time>
      </trkpt>
      <trkpt lat="40.1101260" lon="-4.3285620">
        <ele>543.9</ele>
        <time>2019-08-13T10:26:47Z</time>
      </trkpt>
      <trkpt lat="40.1101740" lon="-4.3285760">
        <ele>543.9</ele>
        <time>2019-08-13T10:26:48Z</time>
      </trkpt>
      <trkpt lat="40.1102200" lon="-4.3285960">
        <ele>543.8</ele>
        <time>2019-08-13T10:26:49Z</time>
      </trkpt>
      <trkpt lat="40.1102660" lon="-4.3286170">
        <ele>543.8</ele>
        <time>2019-08-13T10:26:50Z</time>
      </trkpt>
      <trkpt lat="40.1103100" lon="-4.3286380">
        <ele>543.7</ele>
        <time>2019-08-13T10:26:51Z</time>
      </trkpt>
      <trkpt lat="40.1103530" lon="-4.3286580">
        <ele>543.7</ele>
        <time>2019-08-13T10:26:52Z</time>
      </trkpt>
      <trkpt lat="40.1103920" lon="-4.3286730">
        <ele>543.7</ele>
        <time>2019-08-13T10:26:53Z</time>
      </trkpt>
      <trkpt lat="40.1104270" lon="-4.3286860">
        <ele>543.7</ele>
        <time>2019-08-13T10:26:54Z</time>
      </trkpt>
      <trkpt lat="40.1104600" lon="-4.3286970">
        <ele>543.6</ele>
        <time>2019-08-13T10:26:55Z</time>
      </trkpt>
      <trkpt lat="40.1104920" lon="-4.3287070">
        <ele>543.6</ele>
        <time>2019-08-13T10:26:56Z</time>
      </trkpt>
      <trkpt lat="40.1105210" lon="-4.3287180">
        <ele>543.6</ele>
        <time>2019-08-13T10:26:57Z</time>
      </trkpt>
      <trkpt lat="40.1105490" lon="-4.3287270">
        <ele>543.6</ele>
        <time>2019-08-13T10:26:58Z</time>
      </trkpt>
      <trkpt lat="40.1105760" lon="-4.3287350">
        <ele>543.6</ele>
        <time>2019-08-13T10:26:59Z</time>
      </trkpt>
      <trkpt lat="40.1106030" lon="-4.3287420">
        <ele>543.6</ele>
        <time>2019-08-13T10:27:00Z</time>
      </trkpt>
      <trkpt lat="40.1106300" lon="-4.3287500">
        <ele>543.6</ele>
        <time>2019-08-13T10:27:01Z</time>
      </trkpt>
      <trkpt lat="40.1106560" lon="-4.3287590">
        <ele>543.6</ele>
        <time>2019-08-13T10:27:02Z</time>
      </trkpt>
      <trkpt lat="40.1106820" lon="-4.3287690">
        <ele>543.6</ele>
        <time>2019-08-13T10:27:03Z</time>
      </trkpt>
      <trkpt lat="40.1107330" lon="-4.3287840">
        <ele>543.5</ele>
        <time>2019-08-13T10:27:05Z</time>
      </trkpt>
      <trkpt lat="40.1107850" lon="-4.3287970">
        <ele>543.5</ele>
        <time>2019-08-13T10:27:07Z</time>
      </trkpt>
      <trkpt lat="40.1108120" lon="-4.3288030">
        <ele>543.5</ele>
        <time>2019-08-13T10:27:08Z</time>
      </trkpt>
      <trkpt lat="40.1108390" lon="-4.3288080">
        <ele>543.5</ele>
        <time>2019-08-13T10:27:09Z</time>
      </trkpt>
      <trkpt lat="40.1108670" lon="-4.3288140">
        <ele>543.5</ele>
        <time>2019-08-13T10:27:10Z</time>
      </trkpt>
      <trkpt lat="40.1108970" lon="-4.3288210">
        <ele>543.6</ele>
        <time>2019-08-13T10:27:11Z</time>
      </trkpt>
      <trkpt lat="40.1109290" lon="-4.3288250">
        <ele>543.7</ele>
        <time>2019-08-13T10:27:12Z</time>
      </trkpt>
      <trkpt lat="40.1109610" lon="-4.3288300">
        <ele>543.7</ele>
        <time>2019-08-13T10:27:13Z</time>
      </trkpt>
      <trkpt lat="40.1109940" lon="-4.3288360">
        <ele>543.8</ele>
        <time>2019-08-13T10:27:14Z</time>
      </trkpt>
      <trkpt lat="40.1110290" lon="-4.3288430">
        <ele>543.8</ele>
        <time>2019-08-13T10:27:15Z</time>
      </trkpt>
      <trkpt lat="40.1110650" lon="-4.3288490">
        <ele>543.9</ele>
        <time>2019-08-13T10:27:16Z</time>
      </trkpt>
      <trkpt lat="40.1111020" lon="-4.3288560">
        <ele>543.9</ele>
        <time>2019-08-13T10:27:17Z</time>
      </trkpt>
      <trkpt lat="40.1111410" lon="-4.3288640">
        <ele>543.9</ele>
        <time>2019-08-13T10:27:18Z</time>
      </trkpt>
      <trkpt lat="40.1111810" lon="-4.3288720">
        <ele>543.9</ele>
        <time>2019-08-13T10:27:19Z</time>
      </trkpt>
      <trkpt lat="40.1112210" lon="-4.3288800">
        <ele>543.9</ele>
        <time>2019-08-13T10:27:20Z</time>
      </trkpt>
      <trkpt lat="40.1112600" lon="-4.3288860">
        <ele>543.9</ele>
        <time>2019-08-13T10:27:21Z</time>
      </trkpt>
      <trkpt lat="40.1112990" lon="-4.3288930">
        <ele>543.9</ele>
        <time>2019-08-13T10:27:22Z</time>
      </trkpt>
      <trkpt lat="40.1113390" lon="-4.3289000">
        <ele>543.9</ele>
        <time>2019-08-13T10:27:23Z</time>
      </trkpt>
      <trkpt lat="40.1113810" lon="-4.3289070">
        <ele>543.9</ele>
        <time>2019-08-13T10:27:24Z</time>
      </trkpt>
      <trkpt lat="40.1114250" lon="-4.3289140">
        <ele>543.9</ele>
        <time>2019-08-13T10:27:25Z</time>
      </trkpt>
      <trkpt lat="40.1114690" lon="-4.3289210">
        <ele>543.9</ele>
        <time>2019-08-13T10:27:26Z</time>
      </trkpt>
      <trkpt lat="40.1115130" lon="-4.3289310">
        <ele>543.9</ele>
        <time>2019-08-13T10:27:27Z</time>
      </trkpt>
      <trkpt lat="40.1115590" lon="-4.3289400">
        <ele>544.0</ele>
        <time>2019-08-13T10:27:28Z</time>
      </trkpt>
      <trkpt lat="40.1116080" lon="-4.3289490">
        <ele>544.0</ele>
        <time>2019-08-13T10:27:29Z</time>
      </trkpt>
      <trkpt lat="40.1116570" lon="-4.3289590">
        <ele>544.1</ele>
        <time>2019-08-13T10:27:30Z</time>
      </trkpt>
      <trkpt lat="40.1117030" lon="-4.3289660">
        <ele>544.1</ele>
        <time>2019-08-13T10:27:31Z</time>
      </trkpt>
      <trkpt lat="40.1117410" lon="-4.3289740">
        <ele>544.2</ele>
        <time>2019-08-13T10:27:32Z</time>
      </trkpt>
      <trkpt lat="40.1117780" lon="-4.3289820">
        <ele>544.2</ele>
        <time>2019-08-13T10:27:33Z</time>
      </trkpt>
      <trkpt lat="40.1118180" lon="-4.3289890">
        <ele>544.3</ele>
        <time>2019-08-13T10:27:34Z</time>
      </trkpt>
      <trkpt lat="40.1118590" lon="-4.3289950">
        <ele>544.3</ele>
        <time>2019-08-13T10:27:35Z</time>
      </trkpt>
      <trkpt lat="40.1119020" lon="-4.3290010">
        <ele>544.4</ele>
        <time>2019-08-13T10:27:36Z</time>
      </trkpt>
      <trkpt lat="40.1119470" lon="-4.3290110">
        <ele>544.5</ele>
        <time>2019-08-13T10:27:37Z</time>
      </trkpt>
      <trkpt lat="40.1119950" lon="-4.3290250">
        <ele>544.6</ele>
        <time>2019-08-13T10:27:38Z</time>
      </trkpt>
      <trkpt lat="40.1120440" lon="-4.3290450">
        <ele>544.8</ele>
        <time>2019-08-13T10:27:39Z</time>
      </trkpt>
      <trkpt lat="40.1120930" lon="-4.3290740">
        <ele>545.0</ele>
        <time>2019-08-13T10:27:40Z</time>
      </trkpt>
      <trkpt lat="40.1121410" lon="-4.3291080">
        <ele>545.3</ele>
        <time>2019-08-13T10:27:41Z</time>
      </trkpt>
      <trkpt lat="40.1121840" lon="-4.3291570">
        <ele>545.7</ele>
        <time>2019-08-13T10:27:42Z</time>
      </trkpt>
      <trkpt lat="40.1122170" lon="-4.3292210">
        <ele>545.5</ele>
        <time>2019-08-13T10:27:43Z</time>
      </trkpt>
      <trkpt lat="40.1122370" lon="-4.3292940">
        <ele>545.3</ele>
        <time>2019-08-13T10:27:44Z</time>
      </trkpt>
      <trkpt lat="40.1122410" lon="-4.3293680">
        <ele>545.0</ele>
        <time>2019-08-13T10:27:45Z</time>
      </trkpt>
      <trkpt lat="40.1122240" lon="-4.3294340">
        <ele>544.7</ele>
        <time>2019-08-13T10:27:46Z</time>
      </trkpt>
      <trkpt lat="40.1121860" lon="-4.3294780">
        <ele>544.6</ele>
        <time>2019-08-13T10:27:47Z</time>
      </trkpt>
      <trkpt lat="40.1121370" lon="-4.3294990">
        <ele>544.4</ele>
        <time>2019-08-13T10:27:48Z</time>
      </trkpt>
      <trkpt lat="40.1120810" lon="-4.3295010">
        <ele>544.3</ele>
        <time>2019-08-13T10:27:49Z</time>
      </trkpt>
      <trkpt lat="40.1120250" lon="-4.3294870">
        <ele>544.1</ele>
        <time>2019-08-13T10:27:50Z</time>
      </trkpt>
      <trkpt lat="40.1119720" lon="-4.3294620">
        <ele>544.0</ele>
        <time>2019-08-13T10:27:51Z</time>
      </trkpt>
      <trkpt lat="40.1119220" lon="-4.3294300">
        <ele>543.9</ele>
        <time>2019-08-13T10:27:52Z</time>
      </trkpt>
      <trkpt lat="40.1118750" lon="-4.3293910">
        <ele>543.8</ele>
        <time>2019-08-13T10:27:53Z</time>
      </trkpt>
      <trkpt lat="40.1118290" lon="-4.3293490">
        <ele>543.8</ele>
        <time>2019-08-13T10:27:54Z</time>
      </trkpt>
      <trkpt lat="40.1117830" lon="-4.3293080">
        <ele>543.8</ele>
        <time>2019-08-13T10:27:55Z</time>
      </trkpt>
      <trkpt lat="40.1117350" lon="-4.3292710">
        <ele>543.8</ele>
        <time>2019-08-13T10:27:56Z</time>
      </trkpt>
      <trkpt lat="40.1116850" lon="-4.3292420">
        <ele>543.8</ele>
        <time>2019-08-13T10:27:57Z</time>
      </trkpt>
      <trkpt lat="40.1116330" lon="-4.3292250">
        <ele>543.8</ele>
        <time>2019-08-13T10:27:58Z</time>
      </trkpt>
      <trkpt lat="40.1115790" lon="-4.3292170">
        <ele>543.8</ele>
        <time>2019-08-13T10:27:59Z</time>
      </trkpt>
      <trkpt lat="40.1115230" lon="-4.3292160">
        <ele>543.7</ele>
        <time>2019-08-13T10:28:00Z</time>
      </trkpt>
      <trkpt lat="40.1114660" lon="-4.3292210">
        <ele>543.7</ele>
        <time>2019-08-13T10:28:01Z</time>
      </trkpt>
      <trkpt lat="40.1114090" lon="-4.3292330">
        <ele>543.6</ele>
        <time>2019-08-13T10:28:02Z</time>
      </trkpt>
      <trkpt lat="40.1113520" lon="-4.3292540">
        <ele>543.4</ele>
        <time>2019-08-13T10:28:03Z</time>
      </trkpt>
      <trkpt lat="40.1112960" lon="-4.3292870">
        <ele>543.2</ele>
        <time>2019-08-13T10:28:04Z</time>
      </trkpt>
      <trkpt lat="40.1112430" lon="-4.3293280">
        <ele>542.9</ele>
        <time>2019-08-13T10:28:05Z</time>
      </trkpt>
      <trkpt lat="40.1111930" lon="-4.3293760">
        <ele>542.7</ele>
        <time>2019-08-13T10:28:06Z</time>
      </trkpt>
      <trkpt lat="40.1111440" lon="-4.3294310">
        <ele>542.4</ele>
        <time>2019-08-13T10:28:07Z</time>
      </trkpt>
      <trkpt lat="40.1110970" lon="-4.3294890">
        <ele>542.2</ele>
        <time>2019-08-13T10:28:08Z</time>
      </trkpt>
      <trkpt lat="40.1110510" lon="-4.3295500">
        <ele>542.1</ele>
        <time>2019-08-13T10:28:09Z</time>
      </trkpt>
      <trkpt lat="40.1110040" lon="-4.3296130">
        <ele>542.0</ele>
        <time>2019-08-13T10:28:10Z</time>
      </trkpt>
      <trkpt lat="40.1109570" lon="-4.3296760">
        <ele>541.9</ele>
        <time>2019-08-13T10:28:11Z</time>
      </trkpt>
      <trkpt lat="40.1109080" lon="-4.3297370">
        <ele>541.8</ele>
        <time>2019-08-13T10:28:12Z</time>
      </trkpt>
      <trkpt lat="40.1108580" lon="-4.3297980">
        <ele>541.6</ele>
        <time>2019-08-13T10:28:13Z</time>
      </trkpt>
      <trkpt lat="40.1108060" lon="-4.3298580">
        <ele>541.5</ele>
        <time>2019-08-13T10:28:14Z</time>
      </trkpt>
      <trkpt lat="40.1107550" lon="-4.3299180">
        <ele>541.3</ele>
        <time>2019-08-13T10:28:15Z</time>
      </trkpt>
      <trkpt lat="40.1107050" lon="-4.3299780">
        <ele>541.3</ele>
        <time>2019-08-13T10:28:16Z</time>
      </trkpt>
      <trkpt lat="40.1106560" lon="-4.3300390">
        <ele>541.3</ele>
        <time>2019-08-13T10:28:17Z</time>
      </trkpt>
      <trkpt lat="40.1106070" lon="-4.3300990">
        <ele>541.3</ele>
        <time>2019-08-13T10:28:18Z</time>
      </trkpt>
      <trkpt lat="40.1105570" lon="-4.3301600">
        <ele>541.3</ele>
        <time>2019-08-13T10:28:19Z</time>
      </trkpt>
      <trkpt lat="40.1105060" lon="-4.3302200">
        <ele>541.3</ele>
        <time>2019-08-13T10:28:20Z</time>
      </trkpt>
      <trkpt lat="40.1104530" lon="-4.3302810">
        <ele>541.4</ele>
        <time>2019-08-13T10:28:21Z</time>
      </trkpt>
      <trkpt lat="40.1104000" lon="-4.3303420">
        <ele>541.4</ele>
        <time>2019-08-13T10:28:22Z</time>
      </trkpt>
      <trkpt lat="40.1103490" lon="-4.3304060">
        <ele>541.4</ele>
        <time>2019-08-13T10:28:23Z</time>
      </trkpt>
      <trkpt lat="40.1103010" lon="-4.3304710">
        <ele>541.5</ele>
        <time>2019-08-13T10:28:24Z</time>
      </trkpt>
      <trkpt lat="40.1102550" lon="-4.3305350">
        <ele>541.5</ele>
        <time>2019-08-13T10:28:25Z</time>
      </trkpt>
      <trkpt lat="40.1102090" lon="-4.3305960">
        <ele>541.6</ele>
        <time>2019-08-13T10:28:26Z</time>
      </trkpt>
      <trkpt lat="40.1101630" lon="-4.3306520">
        <ele>541.7</ele>
        <time>2019-08-13T10:28:27Z</time>
      </trkpt>
      <trkpt lat="40.1101190" lon="-4.3307010">
        <ele>541.8</ele>
        <time>2019-08-13T10:28:28Z</time>
      </trkpt>
      <trkpt lat="40.1100740" lon="-4.3307460">
        <ele>542.0</ele>
        <time>2019-08-13T10:28:29Z</time>
      </trkpt>
      <trkpt lat="40.1100320" lon="-4.3307860">
        <ele>542.1</ele>
        <time>2019-08-13T10:28:30Z</time>
      </trkpt>
      <trkpt lat="40.1099900" lon="-4.3308220">
        <ele>542.3</ele>
        <time>2019-08-13T10:28:31Z</time>
      </trkpt>
      <trkpt lat="40.1099510" lon="-4.3308580">
        <ele>542.4</ele>
        <time>2019-08-13T10:28:32Z</time>
      </trkpt>
      <trkpt lat="40.1099120" lon="-4.3308920">
        <ele>542.5</ele>
        <time>2019-08-13T10:28:33Z</time>
      </trkpt>
      <trkpt lat="40.1098740" lon="-4.3309230">
        <ele>542.6</ele>
        <time>2019-08-13T10:28:34Z</time>
      </trkpt>
      <trkpt lat="40.1098360" lon="-4.3309550">
        <ele>542.7</ele>
        <time>2019-08-13T10:28:35Z</time>
      </trkpt>
      <trkpt lat="40.1097980" lon="-4.3309850">
        <ele>542.8</ele>
        <time>2019-08-13T10:28:36Z</time>
      </trkpt>
      <trkpt lat="40.1097610" lon="-4.3310150">
        <ele>542.9</ele>
        <time>2019-08-13T10:28:37Z</time>
      </trkpt>
      <trkpt lat="40.1097240" lon="-4.3310460">
        <ele>543.0</ele>
        <time>2019-08-13T10:28:38Z</time>
      </trkpt>
      <trkpt lat="40.1096890" lon="-4.3310770">
        <ele>543.1</ele>
        <time>2019-08-13T10:28:39Z</time>
      </trkpt>
      <trkpt lat="40.1096530" lon="-4.3311090">
        <ele>543.2</ele>
        <time>2019-08-13T10:28:40Z</time>
      </trkpt>
      <trkpt lat="40.1096170" lon="-4.3311410">
        <ele>543.4</ele>
        <time>2019-08-13T10:28:41Z</time>
      </trkpt>
      <trkpt lat="40.1095810" lon="-4.3311720">
        <ele>543.5</ele>
        <time>2019-08-13T10:28:42Z</time>
      </trkpt>
      <trkpt lat="40.1095460" lon="-4.3312030">
        <ele>543.6</ele>
        <time>2019-08-13T10:28:43Z</time>
      </trkpt>
      <trkpt lat="40.1095120" lon="-4.3312330">
        <ele>543.7</ele>
        <time>2019-08-13T10:28:44Z</time>
      </trkpt>
      <trkpt lat="40.1094780" lon="-4.3312640">
        <ele>543.8</ele>
        <time>2019-08-13T10:28:45Z</time>
      </trkpt>
      <trkpt lat="40.1094450" lon="-4.3312930">
        <ele>543.9</ele>
        <time>2019-08-13T10:28:46Z</time>
      </trkpt>
      <trkpt lat="40.1094120" lon="-4.3313220">
        <ele>544.1</ele>
        <time>2019-08-13T10:28:47Z</time>
      </trkpt>
      <trkpt lat="40.1093790" lon="-4.3313490">
        <ele>544.2</ele>
        <time>2019-08-13T10:28:48Z</time>
      </trkpt>
      <trkpt lat="40.1093480" lon="-4.3313770">
        <ele>544.4</ele>
        <time>2019-08-13T10:28:49Z</time>
      </trkpt>
      <trkpt lat="40.1093190" lon="-4.3314070">
        <ele>544.6</ele>
        <time>2019-08-13T10:28:50Z</time>
      </trkpt>
      <trkpt lat="40.1092930" lon="-4.3314380">
        <ele>544.8</ele>
        <time>2019-08-13T10:28:51Z</time>
      </trkpt>
      <trkpt lat="40.1092700" lon="-4.3314680">
        <ele>545.0</ele>
        <time>2019-08-13T10:28:52Z</time>
      </trkpt>
      <trkpt lat="40.1092510" lon="-4.3314980">
        <ele>545.1</ele>
        <time>2019-08-13T10:28:53Z</time>
      </trkpt>
      <trkpt lat="40.1092210" lon="-4.3315520">
        <ele>545.5</ele>
        <time>2019-08-13T10:28:55Z</time>
      </trkpt>
      <trkpt lat="40.1091940" lon="-4.3316130">
        <ele>546.1</ele>
        <time>2019-08-13T10:28:57Z</time>
      </trkpt>
      <trkpt lat="40.1091840" lon="-4.3316520">
        <ele>546.1</ele>
        <time>2019-08-13T10:28:58Z</time>
      </trkpt>
      <trkpt lat="40.1091780" lon="-4.3316970">
        <ele>546.1</ele>
        <time>2019-08-13T10:28:59Z</time>
      </trkpt>
      <trkpt lat="40.1091790" lon="-4.3317450">
        <ele>546.1</ele>
        <time>2019-08-13T10:29:00Z</time>
      </trkpt>
      <trkpt lat="40.1091850" lon="-4.3317950">
        <ele>546.1</ele>
        <time>2019-08-13T10:29:01Z</time>
      </trkpt>
      <trkpt lat="40.1091960" lon="-4.3318450">
        <ele>546.1</ele>
        <time>2019-08-13T10:29:02Z</time>
      </trkpt>
      <trkpt lat="40.1092070" lon="-4.3318990">
        <ele>546.1</ele>
        <time>2019-08-13T10:29:03Z</time>
      </trkpt>
      <trkpt lat="40.1092190" lon="-4.3319540">
        <ele>546.1</ele>
        <time>2019-08-13T10:29:04Z</time>
      </trkpt>
      <trkpt lat="40.1092330" lon="-4.3320120">
        <ele>546.0</ele>
        <time>2019-08-13T10:29:05Z</time>
      </trkpt>
      <trkpt lat="40.1092490" lon="-4.3320710">
        <ele>546.0</ele>
        <time>2019-08-13T10:29:06Z</time>
      </trkpt>
      <trkpt lat="40.1092640" lon="-4.3321280">
        <ele>545.9</ele>
        <time>2019-08-13T10:29:07Z</time>
      </trkpt>
      <trkpt lat="40.1092760" lon="-4.3321880">
        <ele>545.8</ele>
        <time>2019-08-13T10:29:08Z</time>
      </trkpt>
      <trkpt lat="40.1092900" lon="-4.3322500">
        <ele>545.7</ele>
        <time>2019-08-13T10:29:09Z</time>
      </trkpt>
      <trkpt lat="40.1093060" lon="-4.3323130">
        <ele>545.5</ele>
        <time>2019-08-13T10:29:10Z</time>
      </trkpt>
      <trkpt lat="40.1093220" lon="-4.3323780">
        <ele>545.4</ele>
        <time>2019-08-13T10:29:11Z</time>
      </trkpt>
      <trkpt lat="40.1093390" lon="-4.3324420">
        <ele>545.3</ele>
        <time>2019-08-13T10:29:12Z</time>
      </trkpt>
      <trkpt lat="40.1093590" lon="-4.3325040">
        <ele>545.2</ele>
        <time>2019-08-13T10:29:13Z</time>
      </trkpt>
      <trkpt lat="40.1093790" lon="-4.3325650">
        <ele>545.1</ele>
        <time>2019-08-13T10:29:14Z</time>
      </trkpt>
      <trkpt lat="40.1093960" lon="-4.3326270">
        <ele>545.0</ele>
        <time>2019-08-13T10:29:15Z</time>
      </trkpt>
      <trkpt lat="40.1094140" lon="-4.3326910">
        <ele>544.9</ele>
        <time>2019-08-13T10:29:16Z</time>
      </trkpt>
      <trkpt lat="40.1094350" lon="-4.3327550">
        <ele>544.8</ele>
        <time>2019-08-13T10:29:17Z</time>
      </trkpt>
      <trkpt lat="40.1094580" lon="-4.3328210">
        <ele>544.6</ele>
        <time>2019-08-13T10:29:18Z</time>
      </trkpt>
      <trkpt lat="40.1094830" lon="-4.3328880">
        <ele>544.5</ele>
        <time>2019-08-13T10:29:19Z</time>
      </trkpt>
      <trkpt lat="40.1095090" lon="-4.3329550">
        <ele>544.3</ele>
        <time>2019-08-13T10:29:20Z</time>
      </trkpt>
      <trkpt lat="40.1095350" lon="-4.3330240">
        <ele>544.2</ele>
        <time>2019-08-13T10:29:21Z</time>
      </trkpt>
      <trkpt lat="40.1095610" lon="-4.3330940">
        <ele>544.2</ele>
        <time>2019-08-13T10:29:22Z</time>
      </trkpt>
      <trkpt lat="40.1095880" lon="-4.3331650">
        <ele>544.1</ele>
        <time>2019-08-13T10:29:23Z</time>
      </trkpt>
      <trkpt lat="40.1096150" lon="-4.3332360">
        <ele>544.1</ele>
        <time>2019-08-13T10:29:24Z</time>
      </trkpt>
      <trkpt lat="40.1096410" lon="-4.3333050">
        <ele>544.0</ele>
        <time>2019-08-13T10:29:25Z</time>
      </trkpt>
      <trkpt lat="40.1096680" lon="-4.3333750">
        <ele>544.0</ele>
        <time>2019-08-13T10:29:26Z</time>
      </trkpt>
      <trkpt lat="40.1096940" lon="-4.3334440">
        <ele>543.9</ele>
        <time>2019-08-13T10:29:27Z</time>
      </trkpt>
      <trkpt lat="40.1097240" lon="-4.3335130">
        <ele>543.8</ele>
        <time>2019-08-13T10:29:28Z</time>
      </trkpt>
      <trkpt lat="40.1097560" lon="-4.3335780">
        <ele>543.7</ele>
        <time>2019-08-13T10:29:29Z</time>
      </trkpt>
      <trkpt lat="40.1097880" lon="-4.3336410">
        <ele>543.5</ele>
        <time>2019-08-13T10:29:30Z</time>
      </trkpt>
      <trkpt lat="40.1098230" lon="-4.3337050">
        <ele>543.4</ele>
        <time>2019-08-13T10:29:31Z</time>
      </trkpt>
      <trkpt lat="40.1098580" lon="-4.3337700">
        <ele>543.2</ele>
        <time>2019-08-13T10:29:32Z</time>
      </trkpt>
      <trkpt lat="40.1098910" lon="-4.3338380">
        <ele>543.2</ele>
        <time>2019-08-13T10:29:33Z</time>
      </trkpt>
      <trkpt lat="40.1099230" lon="-4.3339060">
        <ele>543.1</ele>
        <time>2019-08-13T10:29:34Z</time>
      </trkpt>
      <trkpt lat="40.1099550" lon="-4.3339740">
        <ele>543.1</ele>
        <time>2019-08-13T10:29:35Z</time>
      </trkpt>
      <trkpt lat="40.1099870" lon="-4.3340410">
        <ele>543.1</ele>
        <time>2019-08-13T10:29:36Z</time>
      </trkpt>
      <trkpt lat="40.1100190" lon="-4.3341080">
        <ele>543.1</ele>
        <time>2019-08-13T10:29:37Z</time>
      </trkpt>
      <trkpt lat="40.1100520" lon="-4.3341730">
        <ele>543.0</ele>
        <time>2019-08-13T10:29:38Z</time>
      </trkpt>
      <trkpt lat="40.1100840" lon="-4.3342380">
        <ele>542.9</ele>
        <time>2019-08-13T10:29:39Z</time>
      </trkpt>
      <trkpt lat="40.1101180" lon="-4.3343040">
        <ele>542.7</ele>
        <time>2019-08-13T10:29:40Z</time>
      </trkpt>
      <trkpt lat="40.1101550" lon="-4.3343730">
        <ele>542.5</ele>
        <time>2019-08-13T10:29:41Z</time>
      </trkpt>
      <trkpt lat="40.1101930" lon="-4.3344440">
        <ele>542.2</ele>
        <time>2019-08-13T10:29:42Z</time>
      </trkpt>
      <trkpt lat="40.1102350" lon="-4.3345160">
        <ele>541.8</ele>
        <time>2019-08-13T10:29:43Z</time>
      </trkpt>
      <trkpt lat="40.1102800" lon="-4.3345880">
        <ele>541.4</ele>
        <time>2019-08-13T10:29:44Z</time>
      </trkpt>
      <trkpt lat="40.1103280" lon="-4.3346610">
        <ele>540.9</ele>
        <time>2019-08-13T10:29:45Z</time>
      </trkpt>
      <trkpt lat="40.1103790" lon="-4.3347330">
        <ele>540.5</ele>
        <time>2019-08-13T10:29:46Z</time>
      </trkpt>
      <trkpt lat="40.1104330" lon="-4.3348040">
        <ele>540.1</ele>
        <time>2019-08-13T10:29:47Z</time>
      </trkpt>
      <trkpt lat="40.1104880" lon="-4.3348770">
        <ele>539.8</ele>
        <time>2019-08-13T10:29:48Z</time>
      </trkpt>
      <trkpt lat="40.1105410" lon="-4.3349520">
        <ele>539.5</ele>
        <time>2019-08-13T10:29:49Z</time>
      </trkpt>
      <trkpt lat="40.1105930" lon="-4.3350300">
        <ele>539.3</ele>
        <time>2019-08-13T10:29:50Z</time>
      </trkpt>
      <trkpt lat="40.1106430" lon="-4.3351100">
        <ele>539.2</ele>
        <time>2019-08-13T10:29:51Z</time>
      </trkpt>
      <trkpt lat="40.1106920" lon="-4.3351920">
        <ele>539.2</ele>
        <time>2019-08-13T10:29:52Z</time>
      </trkpt>
      <trkpt lat="40.1107380" lon="-4.3352750">
        <ele>539.2</ele>
        <time>2019-08-13T10:29:53Z</time>
      </trkpt>
      <trkpt lat="40.1107830" lon="-4.3353610">
        <ele>539.1</ele>
        <time>2019-08-13T10:29:54Z</time>
      </trkpt>
      <trkpt lat="40.1108290" lon="-4.3354440">
        <ele>539.1</ele>
        <time>2019-08-13T10:29:55Z</time>
      </trkpt>
      <trkpt lat="40.1108740" lon="-4.3355260">
        <ele>539.0</ele>
        <time>2019-08-13T10:29:56Z</time>
      </trkpt>
      <trkpt lat="40.1109150" lon="-4.3356080">
        <ele>538.9</ele>
        <time>2019-08-13T10:29:57Z</time>
      </trkpt>
      <trkpt lat="40.1109570" lon="-4.3356890">
        <ele>538.8</ele>
        <time>2019-08-13T10:29:58Z</time>
      </trkpt>
      <trkpt lat="40.1109990" lon="-4.3357690">
        <ele>538.6</ele>
        <time>2019-08-13T10:29:59Z</time>
      </trkpt>
      <trkpt lat="40.1110410" lon="-4.3358470">
        <ele>538.4</ele>
        <time>2019-08-13T10:30:00Z</time>
      </trkpt>
      <trkpt lat="40.1110810" lon="-4.3359250">
        <ele>538.2</ele>
        <time>2019-08-13T10:30:01Z</time>
      </trkpt>
      <trkpt lat="40.1111200" lon="-4.3360020">
        <ele>538.0</ele>
        <time>2019-08-13T10:30:02Z</time>
      </trkpt>
      <trkpt lat="40.1111620" lon="-4.3360760">
        <ele>537.9</ele>
        <time>2019-08-13T10:30:03Z</time>
      </trkpt>
      <trkpt lat="40.1112020" lon="-4.3361480">
        <ele>537.7</ele>
        <time>2019-08-13T10:30:04Z</time>
      </trkpt>
      <trkpt lat="40.1112420" lon="-4.3362190">
        <ele>537.5</ele>
        <time>2019-08-13T10:30:05Z</time>
      </trkpt>
      <trkpt lat="40.1112830" lon="-4.3362880">
        <ele>537.4</ele>
        <time>2019-08-13T10:30:06Z</time>
      </trkpt>
      <trkpt lat="40.1113210" lon="-4.3363550">
        <ele>537.3</ele>
        <time>2019-08-13T10:30:07Z</time>
      </trkpt>
      <trkpt lat="40.1113580" lon="-4.3364200">
        <ele>537.2</ele>
        <time>2019-08-13T10:30:08Z</time>
      </trkpt>
      <trkpt lat="40.1113950" lon="-4.3364840">
        <ele>537.2</ele>
        <time>2019-08-13T10:30:09Z</time>
      </trkpt>
      <trkpt lat="40.1114340" lon="-4.3365470">
        <ele>537.2</ele>
        <time>2019-08-13T10:30:10Z</time>
      </trkpt>
      <trkpt lat="40.1114720" lon="-4.3366100">
        <ele>537.2</ele>
        <time>2019-08-13T10:30:11Z</time>
      </trkpt>
      <trkpt lat="40.1115110" lon="-4.3366740">
        <ele>537.2</ele>
        <time>2019-08-13T10:30:12Z</time>
      </trkpt>
      <trkpt lat="40.1115500" lon="-4.3367370">
        <ele>537.2</ele>
        <time>2019-08-13T10:30:13Z</time>
      </trkpt>
      <trkpt lat="40.1115900" lon="-4.3367980">
        <ele>537.2</ele>
        <time>2019-08-13T10:30:14Z</time>
      </trkpt>
      <trkpt lat="40.1116310" lon="-4.3368590">
        <ele>537.2</ele>
        <time>2019-08-13T10:30:15Z</time>
      </trkpt>
      <trkpt lat="40.1116730" lon="-4.3369180">
        <ele>537.2</ele>
        <time>2019-08-13T10:30:16Z</time>
      </trkpt>
      <trkpt lat="40.1117150" lon="-4.3369780">
        <ele>537.2</ele>
        <time>2019-08-13T10:30:17Z</time>
      </trkpt>
      <trkpt lat="40.1117550" lon="-4.3370410">
        <ele>537.2</ele>
        <time>2019-08-13T10:30:18Z</time>
      </trkpt>
      <trkpt lat="40.1117940" lon="-4.3371060">
        <ele>537.2</ele>
        <time>2019-08-13T10:30:19Z</time>
      </trkpt>
      <trkpt lat="40.1118320" lon="-4.3371710">
        <ele>537.1</ele>
        <time>2019-08-13T10:30:20Z</time>
      </trkpt>
      <trkpt lat="40.1118700" lon="-4.3372350">
        <ele>537.1</ele>
        <time>2019-08-13T10:30:21Z</time>
      </trkpt>
      <trkpt lat="40.1119080" lon="-4.3372990">
        <ele>537.1</ele>
        <time>2019-08-13T10:30:22Z</time>
      </trkpt>
      <trkpt lat="40.1119460" lon="-4.3373620">
        <ele>537.0</ele>
        <time>2019-08-13T10:30:23Z</time>
      </trkpt>
      <trkpt lat="40.1119830" lon="-4.3374240">
        <ele>537.0</ele>
        <time>2019-08-13T10:30:24Z</time>
      </trkpt>
      <trkpt lat="40.1120200" lon="-4.3374840">
        <ele>537.0</ele>
        <time>2019-08-13T10:30:25Z</time>
      </trkpt>
      <trkpt lat="40.1120560" lon="-4.3375440">
        <ele>537.1</ele>
        <time>2019-08-13T10:30:26Z</time>
      </trkpt>
      <trkpt lat="40.1120910" lon="-4.3376010">
        <ele>537.1</ele>
        <time>2019-08-13T10:30:27Z</time>
      </trkpt>
      <trkpt lat="40.1121240" lon="-4.3376560">
        <ele>537.1</ele>
        <time>2019-08-13T10:30:28Z</time>
      </trkpt>
      <trkpt lat="40.1121540" lon="-4.3377120">
        <ele>537.2</ele>
        <time>2019-08-13T10:30:29Z</time>
      </trkpt>
      <trkpt lat="40.1121850" lon="-4.3377640">
        <ele>537.2</ele>
        <time>2019-08-13T10:30:30Z</time>
      </trkpt>
      <trkpt lat="40.1122170" lon="-4.3378120">
        <ele>537.2</ele>
        <time>2019-08-13T10:30:31Z</time>
      </trkpt>
      <trkpt lat="40.1122490" lon="-4.3378580">
        <ele>537.2</ele>
        <time>2019-08-13T10:30:32Z</time>
      </trkpt>
      <trkpt lat="40.1122820" lon="-4.3379020">
        <ele>537.2</ele>
        <time>2019-08-13T10:30:33Z</time>
      </trkpt>
      <trkpt lat="40.1123140" lon="-4.3379470">
        <ele>537.2</ele>
        <time>2019-08-13T10:30:34Z</time>
      </trkpt>
      <trkpt lat="40.1123470" lon="-4.3379960">
        <ele>537.2</ele>
        <time>2019-08-13T10:30:35Z</time>
      </trkpt>
      <trkpt lat="40.1123800" lon="-4.3380440">
        <ele>537.3</ele>
        <time>2019-08-13T10:30:36Z</time>
      </trkpt>
      <trkpt lat="40.1124140" lon="-4.3380940">
        <ele>537.3</ele>
        <time>2019-08-13T10:30:37Z</time>
      </trkpt>
      <trkpt lat="40.1124450" lon="-4.3381450">
        <ele>537.4</ele>
        <time>2019-08-13T10:30:38Z</time>
      </trkpt>
      <trkpt lat="40.1124760" lon="-4.3381950">
        <ele>537.5</ele>
        <time>2019-08-13T10:30:39Z</time>
      </trkpt>
      <trkpt lat="40.1125060" lon="-4.3382460">
        <ele>537.7</ele>
        <time>2019-08-13T10:30:40Z</time>
      </trkpt>
      <trkpt lat="40.1125370" lon="-4.3382970">
        <ele>537.8</ele>
        <time>2019-08-13T10:30:41Z</time>
      </trkpt>
      <trkpt lat="40.1125690" lon="-4.3383470">
        <ele>537.9</ele>
        <time>2019-08-13T10:30:42Z</time>
      </trkpt>
      <trkpt lat="40.1126010" lon="-4.3383980">
        <ele>538.0</ele>
        <time>2019-08-13T10:30:43Z</time>
      </trkpt>
      <trkpt lat="40.1126340" lon="-4.3384490">
        <ele>538.1</ele>
        <time>2019-08-13T10:30:44Z</time>
      </trkpt>
      <trkpt lat="40.1126660" lon="-4.3385010">
        <ele>538.2</ele>
        <time>2019-08-13T10:30:45Z</time>
      </trkpt>
      <trkpt lat="40.1126980" lon="-4.3385520">
        <ele>538.3</ele>
        <time>2019-08-13T10:30:46Z</time>
      </trkpt>
      <trkpt lat="40.1127280" lon="-4.3386030">
        <ele>538.3</ele>
        <time>2019-08-13T10:30:47Z</time>
      </trkpt>
      <trkpt lat="40.1127580" lon="-4.3386570">
        <ele>538.4</ele>
        <time>2019-08-13T10:30:48Z</time>
      </trkpt>
      <trkpt lat="40.1127880" lon="-4.3387090">
        <ele>538.5</ele>
        <time>2019-08-13T10:30:49Z</time>
      </trkpt>
      <trkpt lat="40.1128180" lon="-4.3387620">
        <ele>538.6</ele>
        <time>2019-08-13T10:30:50Z</time>
      </trkpt>
      <trkpt lat="40.1128470" lon="-4.3388140">
        <ele>538.8</ele>
        <time>2019-08-13T10:30:51Z</time>
      </trkpt>
      <trkpt lat="40.1128780" lon="-4.3388670">
        <ele>538.9</ele>
        <time>2019-08-13T10:30:52Z</time>
      </trkpt>
      <trkpt lat="40.1129080" lon="-4.3389190">
        <ele>539.0</ele>
        <time>2019-08-13T10:30:53Z</time>
      </trkpt>
      <trkpt lat="40.1129410" lon="-4.3389690">
        <ele>539.1</ele>
        <time>2019-08-13T10:30:54Z</time>
      </trkpt>
      <trkpt lat="40.1129720" lon="-4.3390190">
        <ele>539.2</ele>
        <time>2019-08-13T10:30:55Z</time>
      </trkpt>
      <trkpt lat="40.1130030" lon="-4.3390700">
        <ele>539.2</ele>
        <time>2019-08-13T10:30:56Z</time>
      </trkpt>
      <trkpt lat="40.1130340" lon="-4.3391190">
        <ele>539.2</ele>
        <time>2019-08-13T10:30:57Z</time>
      </trkpt>
      <trkpt lat="40.1130660" lon="-4.3391680">
        <ele>539.2</ele>
        <time>2019-08-13T10:30:58Z</time>
      </trkpt>
      <trkpt lat="40.1130990" lon="-4.3392170">
        <ele>539.2</ele>
        <time>2019-08-13T10:30:59Z</time>
      </trkpt>
      <trkpt lat="40.1131320" lon="-4.3392680">
        <ele>539.1</ele>
        <time>2019-08-13T10:31:00Z</time>
      </trkpt>
      <trkpt lat="40.1131670" lon="-4.3393230">
        <ele>539.1</ele>
        <time>2019-08-13T10:31:01Z</time>
      </trkpt>
      <trkpt lat="40.1132040" lon="-4.3393810">
        <ele>539.0</ele>
        <time>2019-08-13T10:31:02Z</time>
      </trkpt>
      <trkpt lat="40.1132410" lon="-4.3394390">
        <ele>538.8</ele>
        <time>2019-08-13T10:31:03Z</time>
      </trkpt>
      <trkpt lat="40.1132800" lon="-4.3394960">
        <ele>538.7</ele>
        <time>2019-08-13T10:31:04Z</time>
      </trkpt>
      <trkpt lat="40.1133180" lon="-4.3395540">
        <ele>538.5</ele>
        <time>2019-08-13T10:31:05Z</time>
      </trkpt>
      <trkpt lat="40.1133580" lon="-4.3396110">
        <ele>538.3</ele>
        <time>2019-08-13T10:31:06Z</time>
      </trkpt>
      <trkpt lat="40.1133990" lon="-4.3396660">
        <ele>538.1</ele>
        <time>2019-08-13T10:31:07Z</time>
      </trkpt>
      <trkpt lat="40.1134410" lon="-4.3397190">
        <ele>538.0</ele>
        <time>2019-08-13T10:31:08Z</time>
      </trkpt>
      <trkpt lat="40.1134850" lon="-4.3397730">
        <ele>537.8</ele>
        <time>2019-08-13T10:31:09Z</time>
      </trkpt>
      <trkpt lat="40.1135280" lon="-4.3398260">
        <ele>537.7</ele>
        <time>2019-08-13T10:31:10Z</time>
      </trkpt>
      <trkpt lat="40.1135710" lon="-4.3398790">
        <ele>537.5</ele>
        <time>2019-08-13T10:31:11Z</time>
      </trkpt>
      <trkpt lat="40.1136140" lon="-4.3399320">
        <ele>537.4</ele>
        <time>2019-08-13T10:31:12Z</time>
      </trkpt>
      <trkpt lat="40.1136580" lon="-4.3399840">
        <ele>537.3</ele>
        <time>2019-08-13T10:31:13Z</time>
      </trkpt>
      <trkpt lat="40.1137040" lon="-4.3400370">
        <ele>537.3</ele>
        <time>2019-08-13T10:31:14Z</time>
      </trkpt>
      <trkpt lat="40.1137500" lon="-4.3400910">
        <ele>537.3</ele>
        <time>2019-08-13T10:31:15Z</time>
      </trkpt>
      <trkpt lat="40.1137940" lon="-4.3401470">
        <ele>537.3</ele>
        <time>2019-08-13T10:31:16Z</time>
      </trkpt>
      <trkpt lat="40.1138390" lon="-4.3402020">
        <ele>537.3</ele>
        <time>2019-08-13T10:31:17Z</time>
      </trkpt>
      <trkpt lat="40.1138830" lon="-4.3402560">
        <ele>537.3</ele>
        <time>2019-08-13T10:31:18Z</time>
      </trkpt>
      <trkpt lat="40.1139260" lon="-4.3403090">
        <ele>537.3</ele>
        <time>2019-08-13T10:31:19Z</time>
      </trkpt>
      <trkpt lat="40.1139690" lon="-4.3403590">
        <ele>537.3</ele>
        <time>2019-08-13T10:31:20Z</time>
      </trkpt>
      <trkpt lat="40.1140130" lon="-4.3404100">
        <ele>537.3</ele>
        <time>2019-08-13T10:31:21Z</time>
      </trkpt>
      <trkpt lat="40.1140580" lon="-4.3404620">
        <ele>537.4</ele>
        <time>2019-08-13T10:31:22Z</time>
      </trkpt>
      <trkpt lat="40.1141010" lon="-4.3405170">
        <ele>537.5</ele>
        <time>2019-08-13T10:31:23Z</time>
      </trkpt>
      <trkpt lat="40.1141440" lon="-4.3405730">
        <ele>537.7</ele>
        <time>2019-08-13T10:31:24Z</time>
      </trkpt>
      <trkpt lat="40.1141860" lon="-4.3406310">
        <ele>537.8</ele>
        <time>2019-08-13T10:31:25Z</time>
      </trkpt>
      <trkpt lat="40.1142270" lon="-4.3406890">
        <ele>538.0</ele>
        <time>2019-08-13T10:31:26Z</time>
      </trkpt>
      <trkpt lat="40.1142680" lon="-4.3407450">
        <ele>538.1</ele>
        <time>2019-08-13T10:31:27Z</time>
      </trkpt>
      <trkpt lat="40.1143080" lon="-4.3408000">
        <ele>538.2</ele>
        <time>2019-08-13T10:31:28Z</time>
      </trkpt>
      <trkpt lat="40.1143470" lon="-4.3408540">
        <ele>538.2</ele>
        <time>2019-08-13T10:31:29Z</time>
      </trkpt>
      <trkpt lat="40.1143860" lon="-4.3409080">
        <ele>538.2</ele>
        <time>2019-08-13T10:31:30Z</time>
      </trkpt>
      <trkpt lat="40.1144260" lon="-4.3409610">
        <ele>538.3</ele>
        <time>2019-08-13T10:31:31Z</time>
      </trkpt>
      <trkpt lat="40.1144660" lon="-4.3410140">
        <ele>538.3</ele>
        <time>2019-08-13T10:31:32Z</time>
      </trkpt>
      <trkpt lat="40.1145070" lon="-4.3410650">
        <ele>538.3</ele>
        <time>2019-08-13T10:31:33Z</time>
      </trkpt>
      <trkpt lat="40.1145490" lon="-4.3411150">
        <ele>538.3</ele>
        <time>2019-08-13T10:31:34Z</time>
      </trkpt>
      <trkpt lat="40.1145910" lon="-4.3411630">
        <ele>538.3</ele>
        <time>2019-08-13T10:31:35Z</time>
      </trkpt>
      <trkpt lat="40.1146350" lon="-4.3412100">
        <ele>538.3</ele>
        <time>2019-08-13T10:31:36Z</time>
      </trkpt>
      <trkpt lat="40.1146800" lon="-4.3412540">
        <ele>538.3</ele>
        <time>2019-08-13T10:31:37Z</time>
      </trkpt>
      <trkpt lat="40.1147270" lon="-4.3412960">
        <ele>538.3</ele>
        <time>2019-08-13T10:31:38Z</time>
      </trkpt>
      <trkpt lat="40.1147760" lon="-4.3413390">
        <ele>538.3</ele>
        <time>2019-08-13T10:31:39Z</time>
      </trkpt>
      <trkpt lat="40.1148270" lon="-4.3413830">
        <ele>538.2</ele>
        <time>2019-08-13T10:31:40Z</time>
      </trkpt>
      <trkpt lat="40.1148780" lon="-4.3414280">
        <ele>538.2</ele>
        <time>2019-08-13T10:31:41Z</time>
      </trkpt>
      <trkpt lat="40.1149280" lon="-4.3414750">
        <ele>538.2</ele>
        <time>2019-08-13T10:31:42Z</time>
      </trkpt>
      <trkpt lat="40.1149810" lon="-4.3415230">
        <ele>538.1</ele>
        <time>2019-08-13T10:31:43Z</time>
      </trkpt>
      <trkpt lat="40.1150350" lon="-4.3415680">
        <ele>538.0</ele>
        <time>2019-08-13T10:31:44Z</time>
      </trkpt>
      <trkpt lat="40.1150890" lon="-4.3416130">
        <ele>537.9</ele>
        <time>2019-08-13T10:31:45Z</time>
      </trkpt>
      <trkpt lat="40.1151440" lon="-4.3416600">
        <ele>537.7</ele>
        <time>2019-08-13T10:31:46Z</time>
      </trkpt>
      <trkpt lat="40.1152000" lon="-4.3417040">
        <ele>537.5</ele>
        <time>2019-08-13T10:31:47Z</time>
      </trkpt>
      <trkpt lat="40.1152560" lon="-4.3417450">
        <ele>537.4</ele>
        <time>2019-08-13T10:31:48Z</time>
      </trkpt>
      <trkpt lat="40.1153130" lon="-4.3417850">
        <ele>537.3</ele>
        <time>2019-08-13T10:31:49Z</time>
      </trkpt>
      <trkpt lat="40.1153670" lon="-4.3418240">
        <ele>537.3</ele>
        <time>2019-08-13T10:31:50Z</time>
      </trkpt>
      <trkpt lat="40.1154200" lon="-4.3418630">
        <ele>537.3</ele>
        <time>2019-08-13T10:31:51Z</time>
      </trkpt>
      <trkpt lat="40.1154690" lon="-4.3419010">
        <ele>537.3</ele>
        <time>2019-08-13T10:31:52Z</time>
      </trkpt>
      <trkpt lat="40.1155170" lon="-4.3419390">
        <ele>537.3</ele>
        <time>2019-08-13T10:31:53Z</time>
      </trkpt>
      <trkpt lat="40.1155640" lon="-4.3419790">
        <ele>537.3</ele>
        <time>2019-08-13T10:31:54Z</time>
      </trkpt>
      <trkpt lat="40.1156130" lon="-4.3420210">
        <ele>537.2</ele>
        <time>2019-08-13T10:31:55Z</time>
      </trkpt>
      <trkpt lat="40.1156650" lon="-4.3420660">
        <ele>537.2</ele>
        <time>2019-08-13T10:31:56Z</time>
      </trkpt>
      <trkpt lat="40.1157170" lon="-4.3421130">
        <ele>537.1</ele>
        <time>2019-08-13T10:31:57Z</time>
      </trkpt>
      <trkpt lat="40.1157680" lon="-4.3421620">
        <ele>536.9</ele>
        <time>2019-08-13T10:31:58Z</time>
      </trkpt>
      <trkpt lat="40.1158190" lon="-4.3422140">
        <ele>536.6</ele>
        <time>2019-08-13T10:31:59Z</time>
      </trkpt>
      <trkpt lat="40.1158680" lon="-4.3422710">
        <ele>536.3</ele>
        <time>2019-08-13T10:32:00Z</time>
      </trkpt>
      <trkpt lat="40.1159140" lon="-4.3423300">
        <ele>535.9</ele>
        <time>2019-08-13T10:32:01Z</time>
      </trkpt>
      <trkpt lat="40.1159590" lon="-4.3423940">
        <ele>535.5</ele>
        <time>2019-08-13T10:32:02Z</time>
      </trkpt>
      <trkpt lat="40.1160020" lon="-4.3424590">
        <ele>535.2</ele>
        <time>2019-08-13T10:32:03Z</time>
      </trkpt>
      <trkpt lat="40.1160450" lon="-4.3425240">
        <ele>534.9</ele>
        <time>2019-08-13T10:32:04Z</time>
      </trkpt>
      <trkpt lat="40.1160890" lon="-4.3425900">
        <ele>534.6</ele>
        <time>2019-08-13T10:32:05Z</time>
      </trkpt>
      <trkpt lat="40.1161340" lon="-4.3426570">
        <ele>534.2</ele>
        <time>2019-08-13T10:32:06Z</time>
      </trkpt>
      <trkpt lat="40.1161790" lon="-4.3427240">
        <ele>533.9</ele>
        <time>2019-08-13T10:32:07Z</time>
      </trkpt>
      <trkpt lat="40.1162260" lon="-4.3427890">
        <ele>533.6</ele>
        <time>2019-08-13T10:32:08Z</time>
      </trkpt>
      <trkpt lat="40.1162730" lon="-4.3428540">
        <ele>533.5</ele>
        <time>2019-08-13T10:32:09Z</time>
      </trkpt>
      <trkpt lat="40.1163210" lon="-4.3429180">
        <ele>533.4</ele>
        <time>2019-08-13T10:32:10Z</time>
      </trkpt>
      <trkpt lat="40.1163680" lon="-4.3429790">
        <ele>533.3</ele>
        <time>2019-08-13T10:32:11Z</time>
      </trkpt>
      <trkpt lat="40.1164140" lon="-4.3430380">
        <ele>533.3</ele>
        <time>2019-08-13T10:32:12Z</time>
      </trkpt>
      <trkpt lat="40.1164620" lon="-4.3430940">
        <ele>533.3</ele>
        <time>2019-08-13T10:32:13Z</time>
      </trkpt>
      <trkpt lat="40.1165100" lon="-4.3431490">
        <ele>533.3</ele>
        <time>2019-08-13T10:32:14Z</time>
      </trkpt>
      <trkpt lat="40.1165570" lon="-4.3432020">
        <ele>533.2</ele>
        <time>2019-08-13T10:32:15Z</time>
      </trkpt>
      <trkpt lat="40.1166050" lon="-4.3432570">
        <ele>533.1</ele>
        <time>2019-08-13T10:32:16Z</time>
      </trkpt>
      <trkpt lat="40.1166550" lon="-4.3433130">
        <ele>533.0</ele>
        <time>2019-08-13T10:32:17Z</time>
      </trkpt>
      <trkpt lat="40.1167060" lon="-4.3433720">
        <ele>532.9</ele>
        <time>2019-08-13T10:32:18Z</time>
      </trkpt>
      <trkpt lat="40.1167590" lon="-4.3434330">
        <ele>532.7</ele>
        <time>2019-08-13T10:32:19Z</time>
      </trkpt>
      <trkpt lat="40.1168130" lon="-4.3434960">
        <ele>532.4</ele>
        <time>2019-08-13T10:32:20Z</time>
      </trkpt>
      <trkpt lat="40.1168690" lon="-4.3435570">
        <ele>532.2</ele>
        <time>2019-08-13T10:32:21Z</time>
      </trkpt>
      <trkpt lat="40.1169270" lon="-4.3436180">
        <ele>531.8</ele>
        <time>2019-08-13T10:32:22Z</time>
      </trkpt>
      <trkpt lat="40.1169870" lon="-4.3436770">
        <ele>531.6</ele>
        <time>2019-08-13T10:32:23Z</time>
      </trkpt>
      <trkpt lat="40.1170470" lon="-4.3437340">
        <ele>531.4</ele>
        <time>2019-08-13T10:32:24Z</time>
      </trkpt>
      <trkpt lat="40.1171070" lon="-4.3437910">
        <ele>531.3</ele>
        <time>2019-08-13T10:32:25Z</time>
      </trkpt>
      <trkpt lat="40.1171650" lon="-4.3438490">
        <ele>531.2</ele>
        <time>2019-08-13T10:32:26Z</time>
      </trkpt>
      <trkpt lat="40.1172210" lon="-4.3439110">
        <ele>531.1</ele>
        <time>2019-08-13T10:32:27Z</time>
      </trkpt>
      <trkpt lat="40.1172760" lon="-4.3439780">
        <ele>530.8</ele>
        <time>2019-08-13T10:32:28Z</time>
      </trkpt>
      <trkpt lat="40.1173270" lon="-4.3440500">
        <ele>530.5</ele>
        <time>2019-08-13T10:32:29Z</time>
      </trkpt>
      <trkpt lat="40.1173740" lon="-4.3441250">
        <ele>530.0</ele>
        <time>2019-08-13T10:32:30Z</time>
      </trkpt>
      <trkpt lat="40.1174170" lon="-4.3442020">
        <ele>529.6</ele>
        <time>2019-08-13T10:32:31Z</time>
      </trkpt>
      <trkpt lat="40.1174530" lon="-4.3442840">
        <ele>529.1</ele>
        <time>2019-08-13T10:32:32Z</time>
      </trkpt>
      <trkpt lat="40.1174840" lon="-4.3443710">
        <ele>528.6</ele>
        <time>2019-08-13T10:32:33Z</time>
      </trkpt>
      <trkpt lat="40.1175100" lon="-4.3444610">
        <ele>528.0</ele>
        <time>2019-08-13T10:32:34Z</time>
      </trkpt>
      <trkpt lat="40.1175320" lon="-4.3445550">
        <ele>527.4</ele>
        <time>2019-08-13T10:32:35Z</time>
      </trkpt>
      <trkpt lat="40.1175510" lon="-4.3446540">
        <ele>527.0</ele>
        <time>2019-08-13T10:32:36Z</time>
      </trkpt>
      <trkpt lat="40.1175660" lon="-4.3447580">
        <ele>526.7</ele>
        <time>2019-08-13T10:32:37Z</time>
      </trkpt>
      <trkpt lat="40.1175810" lon="-4.3448610">
        <ele>526.4</ele>
        <time>2019-08-13T10:32:38Z</time>
      </trkpt>
      <trkpt lat="40.1175990" lon="-4.3449640">
        <ele>526.2</ele>
        <time>2019-08-13T10:32:39Z</time>
      </trkpt>
      <trkpt lat="40.1176180" lon="-4.3450670">
        <ele>526.0</ele>
        <time>2019-08-13T10:32:40Z</time>
      </trkpt>
      <trkpt lat="40.1176390" lon="-4.3451680">
        <ele>525.8</ele>
        <time>2019-08-13T10:32:41Z</time>
      </trkpt>
      <trkpt lat="40.1176600" lon="-4.3452660">
        <ele>525.6</ele>
        <time>2019-08-13T10:32:42Z</time>
      </trkpt>
      <trkpt lat="40.1176820" lon="-4.3453650">
        <ele>525.5</ele>
        <time>2019-08-13T10:32:43Z</time>
      </trkpt>
      <trkpt lat="40.1177050" lon="-4.3454610">
        <ele>525.4</ele>
        <time>2019-08-13T10:32:44Z</time>
      </trkpt>
      <trkpt lat="40.1177330" lon="-4.3455540">
        <ele>525.4</ele>
        <time>2019-08-13T10:32:45Z</time>
      </trkpt>
      <trkpt lat="40.1177680" lon="-4.3456440">
        <ele>525.4</ele>
        <time>2019-08-13T10:32:46Z</time>
      </trkpt>
      <trkpt lat="40.1178080" lon="-4.3457260">
        <ele>525.4</ele>
        <time>2019-08-13T10:32:47Z</time>
      </trkpt>
      <trkpt lat="40.1178460" lon="-4.3458020">
        <ele>525.4</ele>
        <time>2019-08-13T10:32:48Z</time>
      </trkpt>
      <trkpt lat="40.1178850" lon="-4.3458780">
        <ele>525.4</ele>
        <time>2019-08-13T10:32:49Z</time>
      </trkpt>
      <trkpt lat="40.1179230" lon="-4.3459520">
        <ele>525.4</ele>
        <time>2019-08-13T10:32:50Z</time>
      </trkpt>
      <trkpt lat="40.1179600" lon="-4.3460240">
        <ele>525.4</ele>
        <time>2019-08-13T10:32:51Z</time>
      </trkpt>
      <trkpt lat="40.1179960" lon="-4.3460920">
        <ele>525.4</ele>
        <time>2019-08-13T10:32:52Z</time>
      </trkpt>
      <trkpt lat="40.1180330" lon="-4.3461550">
        <ele>525.4</ele>
        <time>2019-08-13T10:32:53Z</time>
      </trkpt>
      <trkpt lat="40.1180710" lon="-4.3462130">
        <ele>525.4</ele>
        <time>2019-08-13T10:32:54Z</time>
      </trkpt>
      <trkpt lat="40.1181090" lon="-4.3462640">
        <ele>525.5</ele>
        <time>2019-08-13T10:32:55Z</time>
      </trkpt>
      <trkpt lat="40.1181430" lon="-4.3463110">
        <ele>525.6</ele>
        <time>2019-08-13T10:32:56Z</time>
      </trkpt>
      <trkpt lat="40.1181750" lon="-4.3463520">
        <ele>525.7</ele>
        <time>2019-08-13T10:32:57Z</time>
      </trkpt>
      <trkpt lat="40.1182060" lon="-4.3463900">
        <ele>525.8</ele>
        <time>2019-08-13T10:32:58Z</time>
      </trkpt>
      <trkpt lat="40.1182330" lon="-4.3464290">
        <ele>525.9</ele>
        <time>2019-08-13T10:32:59Z</time>
      </trkpt>
      <trkpt lat="40.1182590" lon="-4.3464650">
        <ele>526.0</ele>
        <time>2019-08-13T10:33:00Z</time>
      </trkpt>
      <trkpt lat="40.1182840" lon="-4.3465000">
        <ele>526.2</ele>
        <time>2019-08-13T10:33:01Z</time>
      </trkpt>
      <trkpt lat="40.1183100" lon="-4.3465320">
        <ele>526.3</ele>
        <time>2019-08-13T10:33:02Z</time>
      </trkpt>
      <trkpt lat="40.1183350" lon="-4.3465640">
        <ele>526.5</ele>
        <time>2019-08-13T10:33:03Z</time>
      </trkpt>
      <trkpt lat="40.1183590" lon="-4.3465950">
        <ele>526.7</ele>
        <time>2019-08-13T10:33:04Z</time>
      </trkpt>
      <trkpt lat="40.1183840" lon="-4.3466260">
        <ele>526.8</ele>
        <time>2019-08-13T10:33:05Z</time>
      </trkpt>
      <trkpt lat="40.1184090" lon="-4.3466590">
        <ele>526.9</ele>
        <time>2019-08-13T10:33:06Z</time>
      </trkpt>
      <trkpt lat="40.1184350" lon="-4.3466910">
        <ele>527.1</ele>
        <time>2019-08-13T10:33:07Z</time>
      </trkpt>
      <trkpt lat="40.1184600" lon="-4.3467230">
        <ele>527.2</ele>
        <time>2019-08-13T10:33:08Z</time>
      </trkpt>
      <trkpt lat="40.1184870" lon="-4.3467570">
        <ele>527.4</ele>
        <time>2019-08-13T10:33:09Z</time>
      </trkpt>
      <trkpt lat="40.1185140" lon="-4.3467910">
        <ele>527.6</ele>
        <time>2019-08-13T10:33:10Z</time>
      </trkpt>
      <trkpt lat="40.1185420" lon="-4.3468240">
        <ele>527.7</ele>
        <time>2019-08-13T10:33:11Z</time>
      </trkpt>
      <trkpt lat="40.1185690" lon="-4.3468560">
        <ele>527.9</ele>
        <time>2019-08-13T10:33:12Z</time>
      </trkpt>
      <trkpt lat="40.1185940" lon="-4.3468880">
        <ele>528.1</ele>
        <time>2019-08-13T10:33:13Z</time>
      </trkpt>
      <trkpt lat="40.1186200" lon="-4.3469200">
        <ele>528.3</ele>
        <time>2019-08-13T10:33:14Z</time>
      </trkpt>
      <trkpt lat="40.1186460" lon="-4.3469480">
        <ele>528.4</ele>
        <time>2019-08-13T10:33:15Z</time>
      </trkpt>
      <trkpt lat="40.1186720" lon="-4.3469760">
        <ele>528.6</ele>
        <time>2019-08-13T10:33:16Z</time>
      </trkpt>
      <trkpt lat="40.1186960" lon="-4.3470040">
        <ele>528.8</ele>
        <time>2019-08-13T10:33:17Z</time>
      </trkpt>
      <trkpt lat="40.1187190" lon="-4.3470310">
        <ele>528.9</ele>
        <time>2019-08-13T10:33:18Z</time>
      </trkpt>
      <trkpt lat="40.1187410" lon="-4.3470590">
        <ele>529.1</ele>
        <time>2019-08-13T10:33:19Z</time>
      </trkpt>
      <trkpt lat="40.1187620" lon="-4.3470880">
        <ele>529.3</ele>
        <time>2019-08-13T10:33:20Z</time>
      </trkpt>
      <trkpt lat="40.1187830" lon="-4.3471150">
        <ele>529.4</ele>
        <time>2019-08-13T10:33:21Z</time>
      </trkpt>
      <trkpt lat="40.1188040" lon="-4.3471430">
        <ele>529.6</ele>
        <time>2019-08-13T10:33:22Z</time>
      </trkpt>
      <trkpt lat="40.1188240" lon="-4.3471690">
        <ele>529.8</ele>
        <time>2019-08-13T10:33:23Z</time>
      </trkpt>
      <trkpt lat="40.1188440" lon="-4.3471940">
        <ele>530.0</ele>
        <time>2019-08-13T10:33:24Z</time>
      </trkpt>
      <trkpt lat="40.1188650" lon="-4.3472180">
        <ele>530.1</ele>
        <time>2019-08-13T10:33:25Z</time>
      </trkpt>
      <trkpt lat="40.1188850" lon="-4.3472430">
        <ele>530.3</ele>
        <time>2019-08-13T10:33:26Z</time>
      </trkpt>
      <trkpt lat="40.1189050" lon="-4.3472690">
        <ele>530.5</ele>
        <time>2019-08-13T10:33:27Z</time>
      </trkpt>
      <trkpt lat="40.1189280" lon="-4.3472940">
        <ele>530.6</ele>
        <time>2019-08-13T10:33:28Z</time>
      </trkpt>
      <trkpt lat="40.1189490" lon="-4.3473200">
        <ele>530.8</ele>
        <time>2019-08-13T10:33:29Z</time>
      </trkpt>
      <trkpt lat="40.1189690" lon="-4.3473450">
        <ele>530.9</ele>
        <time>2019-08-13T10:33:30Z</time>
      </trkpt>
      <trkpt lat="40.1189910" lon="-4.3473690">
        <ele>531.1</ele>
        <time>2019-08-13T10:33:31Z</time>
      </trkpt>
      <trkpt lat="40.1190120" lon="-4.3473910">
        <ele>531.2</ele>
        <time>2019-08-13T10:33:32Z</time>
      </trkpt>
      <trkpt lat="40.1190530" lon="-4.3474370">
        <ele>531.5</ele>
        <time>2019-08-13T10:33:34Z</time>
      </trkpt>
      <trkpt lat="40.1190740" lon="-4.3474610">
        <ele>531.6</ele>
        <time>2019-08-13T10:33:35Z</time>
      </trkpt>
      <trkpt lat="40.1190960" lon="-4.3474850">
        <ele>531.8</ele>
        <time>2019-08-13T10:33:36Z</time>
      </trkpt>
      <trkpt lat="40.1191180" lon="-4.3475090">
        <ele>531.9</ele>
        <time>2019-08-13T10:33:37Z</time>
      </trkpt>
      <trkpt lat="40.1191400" lon="-4.3475340">
        <ele>532.0</ele>
        <time>2019-08-13T10:33:38Z</time>
      </trkpt>
      <trkpt lat="40.1191640" lon="-4.3475570">
        <ele>532.1</ele>
        <time>2019-08-13T10:33:39Z</time>
      </trkpt>
      <trkpt lat="40.1191880" lon="-4.3475800">
        <ele>532.2</ele>
        <time>2019-08-13T10:33:40Z</time>
      </trkpt>
      <trkpt lat="40.1192120" lon="-4.3476040">
        <ele>532.3</ele>
        <time>2019-08-13T10:33:41Z</time>
      </trkpt>
      <trkpt lat="40.1192360" lon="-4.3476300">
        <ele>532.4</ele>
        <time>2019-08-13T10:33:42Z</time>
      </trkpt>
      <trkpt lat="40.1192590" lon="-4.3476570">
        <ele>532.4</ele>
        <time>2019-08-13T10:33:43Z</time>
      </trkpt>
      <trkpt lat="40.1192840" lon="-4.3476850">
        <ele>532.4</ele>
        <time>2019-08-13T10:33:44Z</time>
      </trkpt>
      <trkpt lat="40.1193080" lon="-4.3477130">
        <ele>532.4</ele>
        <time>2019-08-13T10:33:45Z</time>
      </trkpt>
      <trkpt lat="40.1193330" lon="-4.3477400">
        <ele>532.5</ele>
        <time>2019-08-13T10:33:46Z</time>
      </trkpt>
      <trkpt lat="40.1193570" lon="-4.3477700">
        <ele>532.5</ele>
        <time>2019-08-13T10:33:47Z</time>
      </trkpt>
      <trkpt lat="40.1193810" lon="-4.3478000">
        <ele>532.5</ele>
        <time>2019-08-13T10:33:48Z</time>
      </trkpt>
      <trkpt lat="40.1194070" lon="-4.3478310">
        <ele>532.5</ele>
        <time>2019-08-13T10:33:49Z</time>
      </trkpt>
      <trkpt lat="40.1194330" lon="-4.3478620">
        <ele>532.5</ele>
        <time>2019-08-13T10:33:50Z</time>
      </trkpt>
      <trkpt lat="40.1194580" lon="-4.3478940">
        <ele>532.5</ele>
        <time>2019-08-13T10:33:51Z</time>
      </trkpt>
      <trkpt lat="40.1194850" lon="-4.3479250">
        <ele>532.5</ele>
        <time>2019-08-13T10:33:52Z</time>
      </trkpt>
      <trkpt lat="40.1195130" lon="-4.3479550">
        <ele>532.5</ele>
        <time>2019-08-13T10:33:53Z</time>
      </trkpt>
      <trkpt lat="40.1195410" lon="-4.3479850">
        <ele>532.5</ele>
        <time>2019-08-13T10:33:54Z</time>
      </trkpt>
      <trkpt lat="40.1195710" lon="-4.3480140">
        <ele>532.5</ele>
        <time>2019-08-13T10:33:55Z</time>
      </trkpt>
      <trkpt lat="40.1196020" lon="-4.3480410">
        <ele>532.5</ele>
        <time>2019-08-13T10:33:56Z</time>
      </trkpt>
      <trkpt lat="40.1196350" lon="-4.3480650">
        <ele>532.5</ele>
        <time>2019-08-13T10:33:57Z</time>
      </trkpt>
      <trkpt lat="40.1196660" lon="-4.3480890">
        <ele>532.5</ele>
        <time>2019-08-13T10:33:58Z</time>
      </trkpt>
      <trkpt lat="40.1196970" lon="-4.3481120">
        <ele>532.5</ele>
        <time>2019-08-13T10:33:59Z</time>
      </trkpt>
      <trkpt lat="40.1197290" lon="-4.3481340">
        <ele>532.5</ele>
        <time>2019-08-13T10:34:00Z</time>
      </trkpt>
      <trkpt lat="40.1197610" lon="-4.3481540">
        <ele>532.5</ele>
        <time>2019-08-13T10:34:01Z</time>
      </trkpt>
      <trkpt lat="40.1197950" lon="-4.3481760">
        <ele>532.5</ele>
        <time>2019-08-13T10:34:02Z</time>
      </trkpt>
      <trkpt lat="40.1198280" lon="-4.3481970">
        <ele>532.5</ele>
        <time>2019-08-13T10:34:03Z</time>
      </trkpt>
      <trkpt lat="40.1198620" lon="-4.3482190">
        <ele>532.5</ele>
        <time>2019-08-13T10:34:04Z</time>
      </trkpt>
      <trkpt lat="40.1198960" lon="-4.3482410">
        <ele>532.5</ele>
        <time>2019-08-13T10:34:05Z</time>
      </trkpt>
      <trkpt lat="40.1199290" lon="-4.3482640">
        <ele>532.5</ele>
        <time>2019-08-13T10:34:06Z</time>
      </trkpt>
      <trkpt lat="40.1199630" lon="-4.3482880">
        <ele>532.5</ele>
        <time>2019-08-13T10:34:07Z</time>
      </trkpt>
      <trkpt lat="40.1199950" lon="-4.3483130">
        <ele>532.5</ele>
        <time>2019-08-13T10:34:08Z</time>
      </trkpt>
      <trkpt lat="40.1200250" lon="-4.3483360">
        <ele>532.5</ele>
        <time>2019-08-13T10:34:09Z</time>
      </trkpt>
      <trkpt lat="40.1200550" lon="-4.3483600">
        <ele>532.5</ele>
        <time>2019-08-13T10:34:10Z</time>
      </trkpt>
      <trkpt lat="40.1200850" lon="-4.3483850">
        <ele>532.5</ele>
        <time>2019-08-13T10:34:11Z</time>
      </trkpt>
      <trkpt lat="40.1201160" lon="-4.3484090">
        <ele>532.5</ele>
        <time>2019-08-13T10:34:12Z</time>
      </trkpt>
      <trkpt lat="40.1201480" lon="-4.3484330">
        <ele>532.5</ele>
        <time>2019-08-13T10:34:13Z</time>
      </trkpt>
      <trkpt lat="40.1201840" lon="-4.3484570">
        <ele>532.5</ele>
        <time>2019-08-13T10:34:14Z</time>
      </trkpt>
      <trkpt lat="40.1202220" lon="-4.3484810">
        <ele>532.5</ele>
        <time>2019-08-13T10:34:15Z</time>
      </trkpt>
      <trkpt lat="40.1202640" lon="-4.3485080">
        <ele>532.5</ele>
        <time>2019-08-13T10:34:16Z</time>
      </trkpt>
      <trkpt lat="40.1203070" lon="-4.3485350">
        <ele>532.5</ele>
        <time>2019-08-13T10:34:17Z</time>
      </trkpt>
      <trkpt lat="40.1203510" lon="-4.3485620">
        <ele>532.5</ele>
        <time>2019-08-13T10:34:18Z</time>
      </trkpt>
      <trkpt lat="40.1203980" lon="-4.3485880">
        <ele>532.5</ele>
        <time>2019-08-13T10:34:19Z</time>
      </trkpt>
      <trkpt lat="40.1204450" lon="-4.3486130">
        <ele>532.5</ele>
        <time>2019-08-13T10:34:20Z</time>
      </trkpt>
      <trkpt lat="40.1204930" lon="-4.3486380">
        <ele>532.5</ele>
        <time>2019-08-13T10:34:21Z</time>
      </trkpt>
      <trkpt lat="40.1205420" lon="-4.3486620">
        <ele>532.5</ele>
        <time>2019-08-13T10:34:22Z</time>
      </trkpt>
      <trkpt lat="40.1205900" lon="-4.3486860">
        <ele>532.5</ele>
        <time>2019-08-13T10:34:23Z</time>
      </trkpt>
      <trkpt lat="40.1206370" lon="-4.3487090">
        <ele>532.5</ele>
        <time>2019-08-13T10:34:24Z</time>
      </trkpt>
      <trkpt lat="40.1206840" lon="-4.3487320">
        <ele>532.5</ele>
        <time>2019-08-13T10:34:25Z</time>
      </trkpt>
      <trkpt lat="40.1207320" lon="-4.3487550">
        <ele>532.5</ele>
        <time>2019-08-13T10:34:26Z</time>
      </trkpt>
      <trkpt lat="40.1207810" lon="-4.3487760">
        <ele>532.5</ele>
        <time>2019-08-13T10:34:27Z</time>
      </trkpt>
      <trkpt lat="40.1208320" lon="-4.3487940">
        <ele>532.5</ele>
        <time>2019-08-13T10:34:28Z</time>
      </trkpt>
      <trkpt lat="40.1208820" lon="-4.3488140">
        <ele>532.5</ele>
        <time>2019-08-13T10:34:29Z</time>
      </trkpt>
      <trkpt lat="40.1209320" lon="-4.3488310">
        <ele>532.5</ele>
        <time>2019-08-13T10:34:30Z</time>
      </trkpt>
      <trkpt lat="40.1209800" lon="-4.3488470">
        <ele>532.5</ele>
        <time>2019-08-13T10:34:31Z</time>
      </trkpt>
      <trkpt lat="40.1210310" lon="-4.3488640">
        <ele>532.5</ele>
        <time>2019-08-13T10:34:32Z</time>
      </trkpt>
      <trkpt lat="40.1210820" lon="-4.3488830">
        <ele>532.5</ele>
        <time>2019-08-13T10:34:33Z</time>
      </trkpt>
      <trkpt lat="40.1211350" lon="-4.3489000">
        <ele>532.5</ele>
        <time>2019-08-13T10:34:34Z</time>
      </trkpt>
      <trkpt lat="40.1211890" lon="-4.3489160">
        <ele>532.5</ele>
        <time>2019-08-13T10:34:35Z</time>
      </trkpt>
      <trkpt lat="40.1212430" lon="-4.3489320">
        <ele>532.5</ele>
        <time>2019-08-13T10:34:36Z</time>
      </trkpt>
      <trkpt lat="40.1212960" lon="-4.3489450">
        <ele>532.5</ele>
        <time>2019-08-13T10:34:37Z</time>
      </trkpt>
      <trkpt lat="40.1213500" lon="-4.3489570">
        <ele>532.5</ele>
        <time>2019-08-13T10:34:38Z</time>
      </trkpt>
      <trkpt lat="40.1214030" lon="-4.3489680">
        <ele>532.5</ele>
        <time>2019-08-13T10:34:39Z</time>
      </trkpt>
      <trkpt lat="40.1214560" lon="-4.3489820">
        <ele>532.5</ele>
        <time>2019-08-13T10:34:40Z</time>
      </trkpt>
      <trkpt lat="40.1215070" lon="-4.3489970">
        <ele>532.5</ele>
        <time>2019-08-13T10:34:41Z</time>
      </trkpt>
      <trkpt lat="40.1215570" lon="-4.3490150">
        <ele>532.5</ele>
        <time>2019-08-13T10:34:42Z</time>
      </trkpt>
      <trkpt lat="40.1216020" lon="-4.3490340">
        <ele>532.5</ele>
        <time>2019-08-13T10:34:43Z</time>
      </trkpt>
      <trkpt lat="40.1216450" lon="-4.3490510">
        <ele>532.5</ele>
        <time>2019-08-13T10:34:44Z</time>
      </trkpt>
      <trkpt lat="40.1216870" lon="-4.3490700">
        <ele>532.5</ele>
        <time>2019-08-13T10:34:45Z</time>
      </trkpt>
      <trkpt lat="40.1217280" lon="-4.3490870">
        <ele>532.6</ele>
        <time>2019-08-13T10:34:46Z</time>
      </trkpt>
      <trkpt lat="40.1217700" lon="-4.3491060">
        <ele>532.6</ele>
        <time>2019-08-13T10:34:47Z</time>
      </trkpt>
      <trkpt lat="40.1218120" lon="-4.3491230">
        <ele>532.7</ele>
        <time>2019-08-13T10:34:48Z</time>
      </trkpt>
      <trkpt lat="40.1218550" lon="-4.3491410">
        <ele>532.9</ele>
        <time>2019-08-13T10:34:49Z</time>
      </trkpt>
      <trkpt lat="40.1218980" lon="-4.3491590">
        <ele>533.0</ele>
        <time>2019-08-13T10:34:50Z</time>
      </trkpt>
      <trkpt lat="40.1219380" lon="-4.3491780">
        <ele>533.2</ele>
        <time>2019-08-13T10:34:51Z</time>
      </trkpt>
      <trkpt lat="40.1219770" lon="-4.3491970">
        <ele>533.4</ele>
        <time>2019-08-13T10:34:52Z</time>
      </trkpt>
      <trkpt lat="40.1220140" lon="-4.3492160">
        <ele>533.6</ele>
        <time>2019-08-13T10:34:53Z</time>
      </trkpt>
      <trkpt lat="40.1220510" lon="-4.3492340">
        <ele>533.7</ele>
        <time>2019-08-13T10:34:54Z</time>
      </trkpt>
      <trkpt lat="40.1220900" lon="-4.3492510">
        <ele>533.8</ele>
        <time>2019-08-13T10:34:55Z</time>
      </trkpt>
      <trkpt lat="40.1221280" lon="-4.3492670">
        <ele>534.0</ele>
        <time>2019-08-13T10:34:56Z</time>
      </trkpt>
      <trkpt lat="40.1221660" lon="-4.3492850">
        <ele>534.1</ele>
        <time>2019-08-13T10:34:57Z</time>
      </trkpt>
      <trkpt lat="40.1222020" lon="-4.3493020">
        <ele>534.1</ele>
        <time>2019-08-13T10:34:58Z</time>
      </trkpt>
      <trkpt lat="40.1222400" lon="-4.3493210">
        <ele>534.3</ele>
        <time>2019-08-13T10:34:59Z</time>
      </trkpt>
      <trkpt lat="40.1222760" lon="-4.3493410">
        <ele>534.4</ele>
        <time>2019-08-13T10:35:00Z</time>
      </trkpt>
      <trkpt lat="40.1223110" lon="-4.3493610">
        <ele>534.5</ele>
        <time>2019-08-13T10:35:01Z</time>
      </trkpt>
      <trkpt lat="40.1223460" lon="-4.3493800">
        <ele>534.7</ele>
        <time>2019-08-13T10:35:02Z</time>
      </trkpt>
      <trkpt lat="40.1223790" lon="-4.3493980">
        <ele>534.8</ele>
        <time>2019-08-13T10:35:03Z</time>
      </trkpt>
      <trkpt lat="40.1224120" lon="-4.3494170">
        <ele>535.0</ele>
        <time>2019-08-13T10:35:04Z</time>
      </trkpt>
      <trkpt lat="40.1224430" lon="-4.3494340">
        <ele>535.1</ele>
        <time>2019-08-13T10:35:05Z</time>
      </trkpt>
      <trkpt lat="40.1224760" lon="-4.3494510">
        <ele>535.3</ele>
        <time>2019-08-13T10:35:06Z</time>
      </trkpt>
      <trkpt lat="40.1225060" lon="-4.3494680">
        <ele>535.4</ele>
        <time>2019-08-13T10:35:07Z</time>
      </trkpt>
      <trkpt lat="40.1225360" lon="-4.3494860">
        <ele>535.4</ele>
        <time>2019-08-13T10:35:08Z</time>
      </trkpt>
      <trkpt lat="40.1225650" lon="-4.3495040">
        <ele>535.5</ele>
        <time>2019-08-13T10:35:09Z</time>
      </trkpt>
      <trkpt lat="40.1225950" lon="-4.3495220">
        <ele>535.5</ele>
        <time>2019-08-13T10:35:10Z</time>
      </trkpt>
      <trkpt lat="40.1226240" lon="-4.3495380">
        <ele>535.6</ele>
        <time>2019-08-13T10:35:11Z</time>
      </trkpt>
      <trkpt lat="40.1226520" lon="-4.3495540">
        <ele>535.6</ele>
        <time>2019-08-13T10:35:12Z</time>
      </trkpt>
      <trkpt lat="40.1226800" lon="-4.3495700">
        <ele>535.6</ele>
        <time>2019-08-13T10:35:13Z</time>
      </trkpt>
      <trkpt lat="40.1227070" lon="-4.3495880">
        <ele>535.6</ele>
        <time>2019-08-13T10:35:14Z</time>
      </trkpt>
      <trkpt lat="40.1227340" lon="-4.3496070">
        <ele>535.6</ele>
        <time>2019-08-13T10:35:15Z</time>
      </trkpt>
      <trkpt lat="40.1227610" lon="-4.3496280">
        <ele>535.6</ele>
        <time>2019-08-13T10:35:16Z</time>
      </trkpt>
      <trkpt lat="40.1227880" lon="-4.3496510">
        <ele>535.6</ele>
        <time>2019-08-13T10:35:17Z</time>
      </trkpt>
      <trkpt lat="40.1228160" lon="-4.3496740">
        <ele>535.6</ele>
        <time>2019-08-13T10:35:18Z</time>
      </trkpt>
      <trkpt lat="40.1228430" lon="-4.3496980">
        <ele>535.6</ele>
        <time>2019-08-13T10:35:19Z</time>
      </trkpt>
      <trkpt lat="40.1228710" lon="-4.3497240">
        <ele>535.6</ele>
        <time>2019-08-13T10:35:20Z</time>
      </trkpt>
      <trkpt lat="40.1229010" lon="-4.3497500">
        <ele>535.6</ele>
        <time>2019-08-13T10:35:21Z</time>
      </trkpt>
      <trkpt lat="40.1229310" lon="-4.3497770">
        <ele>535.6</ele>
        <time>2019-08-13T10:35:22Z</time>
      </trkpt>
      <trkpt lat="40.1229610" lon="-4.3498060">
        <ele>535.6</ele>
        <time>2019-08-13T10:35:23Z</time>
      </trkpt>
      <trkpt lat="40.1229900" lon="-4.3498370">
        <ele>535.6</ele>
        <time>2019-08-13T10:35:24Z</time>
      </trkpt>
      <trkpt lat="40.1230190" lon="-4.3498690">
        <ele>535.6</ele>
        <time>2019-08-13T10:35:25Z</time>
      </trkpt>
      <trkpt lat="40.1230490" lon="-4.3499010">
        <ele>535.6</ele>
        <time>2019-08-13T10:35:26Z</time>
      </trkpt>
      <trkpt lat="40.1230760" lon="-4.3499340">
        <ele>535.6</ele>
        <time>2019-08-13T10:35:27Z</time>
      </trkpt>
      <trkpt lat="40.1231030" lon="-4.3499680">
        <ele>535.6</ele>
        <time>2019-08-13T10:35:28Z</time>
      </trkpt>
      <trkpt lat="40.1231280" lon="-4.3500010">
        <ele>535.6</ele>
        <time>2019-08-13T10:35:29Z</time>
      </trkpt>
      <trkpt lat="40.1231500" lon="-4.3500380">
        <ele>535.6</ele>
        <time>2019-08-13T10:35:30Z</time>
      </trkpt>
      <trkpt lat="40.1231730" lon="-4.3500770">
        <ele>535.6</ele>
        <time>2019-08-13T10:35:31Z</time>
      </trkpt>
      <trkpt lat="40.1231950" lon="-4.3501230">
        <ele>535.6</ele>
        <time>2019-08-13T10:35:32Z</time>
      </trkpt>
      <trkpt lat="40.1232120" lon="-4.3501760">
        <ele>535.7</ele>
        <time>2019-08-13T10:35:33Z</time>
      </trkpt>
      <trkpt lat="40.1232220" lon="-4.3502320">
        <ele>536.0</ele>
        <time>2019-08-13T10:35:34Z</time>
      </trkpt>
      <trkpt lat="40.1232210" lon="-4.3502850">
        <ele>536.3</ele>
        <time>2019-08-13T10:35:35Z</time>
      </trkpt>
      <trkpt lat="40.1232130" lon="-4.3503330">
        <ele>536.6</ele>
        <time>2019-08-13T10:35:36Z</time>
      </trkpt>
      <trkpt lat="40.1232000" lon="-4.3503810">
        <ele>536.8</ele>
        <time>2019-08-13T10:35:37Z</time>
      </trkpt>
      <trkpt lat="40.1231870" lon="-4.3504290">
        <ele>536.9</ele>
        <time>2019-08-13T10:35:38Z</time>
      </trkpt>
      <trkpt lat="40.1231750" lon="-4.3504790">
        <ele>537.1</ele>
        <time>2019-08-13T10:35:39Z</time>
      </trkpt>
      <trkpt lat="40.1231640" lon="-4.3505300">
        <ele>537.3</ele>
        <time>2019-08-13T10:35:40Z</time>
      </trkpt>
      <trkpt lat="40.1231520" lon="-4.3505820">
        <ele>537.5</ele>
        <time>2019-08-13T10:35:41Z</time>
      </trkpt>
      <trkpt lat="40.1231410" lon="-4.3506360">
        <ele>537.6</ele>
        <time>2019-08-13T10:35:42Z</time>
      </trkpt>
      <trkpt lat="40.1231290" lon="-4.3506870">
        <ele>537.7</ele>
        <time>2019-08-13T10:35:43Z</time>
      </trkpt>
      <trkpt lat="40.1231180" lon="-4.3507370">
        <ele>537.9</ele>
        <time>2019-08-13T10:35:44Z</time>
      </trkpt>
      <trkpt lat="40.1231080" lon="-4.3507840">
        <ele>538.0</ele>
        <time>2019-08-13T10:35:45Z</time>
      </trkpt>
      <trkpt lat="40.1230960" lon="-4.3508300">
        <ele>538.1</ele>
        <time>2019-08-13T10:35:46Z</time>
      </trkpt>
      <trkpt lat="40.1230840" lon="-4.3508740">
        <ele>538.1</ele>
        <time>2019-08-13T10:35:47Z</time>
      </trkpt>
      <trkpt lat="40.1230690" lon="-4.3509180">
        <ele>538.2</ele>
        <time>2019-08-13T10:35:48Z</time>
      </trkpt>
      <trkpt lat="40.1230550" lon="-4.3509600">
        <ele>538.3</ele>
        <time>2019-08-13T10:35:49Z</time>
      </trkpt>
      <trkpt lat="40.1230440" lon="-4.3510020">
        <ele>538.4</ele>
        <time>2019-08-13T10:35:50Z</time>
      </trkpt>
      <trkpt lat="40.1230330" lon="-4.3510420">
        <ele>538.5</ele>
        <time>2019-08-13T10:35:51Z</time>
      </trkpt>
      <trkpt lat="40.1230210" lon="-4.3510840">
        <ele>538.6</ele>
        <time>2019-08-13T10:35:52Z</time>
      </trkpt>
      <trkpt lat="40.1230090" lon="-4.3511280">
        <ele>538.6</ele>
        <time>2019-08-13T10:35:53Z</time>
      </trkpt>
      <trkpt lat="40.1229960" lon="-4.3511760">
        <ele>538.6</ele>
        <time>2019-08-13T10:35:54Z</time>
      </trkpt>
      <trkpt lat="40.1229810" lon="-4.3512280">
        <ele>538.6</ele>
        <time>2019-08-13T10:35:55Z</time>
      </trkpt>
      <trkpt lat="40.1229650" lon="-4.3512840">
        <ele>538.6</ele>
        <time>2019-08-13T10:35:56Z</time>
      </trkpt>
      <trkpt lat="40.1229480" lon="-4.3513430">
        <ele>538.6</ele>
        <time>2019-08-13T10:35:57Z</time>
      </trkpt>
      <trkpt lat="40.1229310" lon="-4.3514040">
        <ele>538.6</ele>
        <time>2019-08-13T10:35:58Z</time>
      </trkpt>
      <trkpt lat="40.1229120" lon="-4.3514700">
        <ele>538.6</ele>
        <time>2019-08-13T10:35:59Z</time>
      </trkpt>
      <trkpt lat="40.1228920" lon="-4.3515380">
        <ele>538.5</ele>
        <time>2019-08-13T10:36:00Z</time>
      </trkpt>
      <trkpt lat="40.1228680" lon="-4.3516090">
        <ele>538.4</ele>
        <time>2019-08-13T10:36:01Z</time>
      </trkpt>
      <trkpt lat="40.1228430" lon="-4.3516820">
        <ele>538.2</ele>
        <time>2019-08-13T10:36:02Z</time>
      </trkpt>
      <trkpt lat="40.1228150" lon="-4.3517560">
        <ele>538.1</ele>
        <time>2019-08-13T10:36:03Z</time>
      </trkpt>
      <trkpt lat="40.1227870" lon="-4.3518310">
        <ele>538.0</ele>
        <time>2019-08-13T10:36:04Z</time>
      </trkpt>
      <trkpt lat="40.1227590" lon="-4.3519070">
        <ele>537.8</ele>
        <time>2019-08-13T10:36:05Z</time>
      </trkpt>
      <trkpt lat="40.1227320" lon="-4.3519820">
        <ele>537.8</ele>
        <time>2019-08-13T10:36:06Z</time>
      </trkpt>
      <trkpt lat="40.1227090" lon="-4.3520590">
        <ele>537.8</ele>
        <time>2019-08-13T10:36:07Z</time>
      </trkpt>
      <trkpt lat="40.1226920" lon="-4.3521330">
        <ele>537.8</ele>
        <time>2019-08-13T10:36:08Z</time>
      </trkpt>
      <trkpt lat="40.1226770" lon="-4.3522040">
        <ele>537.8</ele>
        <time>2019-08-13T10:36:09Z</time>
      </trkpt>
      <trkpt lat="40.1226640" lon="-4.3522700">
        <ele>537.9</ele>
        <time>2019-08-13T10:36:10Z</time>
      </trkpt>
      <trkpt lat="40.1226530" lon="-4.3523280">
        <ele>537.9</ele>
        <time>2019-08-13T10:36:11Z</time>
      </trkpt>
      <trkpt lat="40.1226440" lon="-4.3523820">
        <ele>538.1</ele>
        <time>2019-08-13T10:36:12Z</time>
      </trkpt>
      <trkpt lat="40.1226350" lon="-4.3524330">
        <ele>538.2</ele>
        <time>2019-08-13T10:36:13Z</time>
      </trkpt>
      <trkpt lat="40.1226270" lon="-4.3524760">
        <ele>538.4</ele>
        <time>2019-08-13T10:36:14Z</time>
      </trkpt>
      <trkpt lat="40.1226190" lon="-4.3525140">
        <ele>538.5</ele>
        <time>2019-08-13T10:36:15Z</time>
      </trkpt>
      <trkpt lat="40.1226110" lon="-4.3525500">
        <ele>538.7</ele>
        <time>2019-08-13T10:36:16Z</time>
      </trkpt>
      <trkpt lat="40.1226020" lon="-4.3525860">
        <ele>538.8</ele>
        <time>2019-08-13T10:36:17Z</time>
      </trkpt>
      <trkpt lat="40.1225940" lon="-4.3526240">
        <ele>539.0</ele>
        <time>2019-08-13T10:36:18Z</time>
      </trkpt>
      <trkpt lat="40.1225860" lon="-4.3526610">
        <ele>539.2</ele>
        <time>2019-08-13T10:36:19Z</time>
      </trkpt>
      <trkpt lat="40.1225780" lon="-4.3526950">
        <ele>539.4</ele>
        <time>2019-08-13T10:36:20Z</time>
      </trkpt>
      <trkpt lat="40.1225620" lon="-4.3527610">
        <ele>539.9</ele>
        <time>2019-08-13T10:36:22Z</time>
      </trkpt>
      <trkpt lat="40.1225460" lon="-4.3528230">
        <ele>540.4</ele>
        <time>2019-08-13T10:36:24Z</time>
      </trkpt>
      <trkpt lat="40.1225310" lon="-4.3528880">
        <ele>540.8</ele>
        <time>2019-08-13T10:36:26Z</time>
      </trkpt>
      <trkpt lat="40.1225380" lon="-4.3529520">
        <ele>541.2</ele>
        <time>2019-08-13T10:36:28Z</time>
      </trkpt>
      <trkpt lat="40.1225570" lon="-4.3529800">
        <ele>540.4</ele>
        <time>2019-08-13T10:36:29Z</time>
      </trkpt>
      <trkpt lat="40.1225860" lon="-4.3530050">
        <ele>540.0</ele>
        <time>2019-08-13T10:36:30Z</time>
      </trkpt>
      <trkpt lat="40.1226230" lon="-4.3530260">
        <ele>539.5</ele>
        <time>2019-08-13T10:36:31Z</time>
      </trkpt>
      <trkpt lat="40.1226640" lon="-4.3530450">
        <ele>539.0</ele>
        <time>2019-08-13T10:36:32Z</time>
      </trkpt>
      <trkpt lat="40.1227090" lon="-4.3530630">
        <ele>538.5</ele>
        <time>2019-08-13T10:36:33Z</time>
      </trkpt>
      <trkpt lat="40.1227560" lon="-4.3530810">
        <ele>538.1</ele>
        <time>2019-08-13T10:36:34Z</time>
      </trkpt>
      <trkpt lat="40.1228080" lon="-4.3531020">
        <ele>537.7</ele>
        <time>2019-08-13T10:36:35Z</time>
      </trkpt>
      <trkpt lat="40.1228640" lon="-4.3531250">
        <ele>537.3</ele>
        <time>2019-08-13T10:36:36Z</time>
      </trkpt>
      <trkpt lat="40.1229240" lon="-4.3531500">
        <ele>536.9</ele>
        <time>2019-08-13T10:36:37Z</time>
      </trkpt>
      <trkpt lat="40.1229850" lon="-4.3531760">
        <ele>536.5</ele>
        <time>2019-08-13T10:36:38Z</time>
      </trkpt>
      <trkpt lat="40.1230490" lon="-4.3532020">
        <ele>536.2</ele>
        <time>2019-08-13T10:36:39Z</time>
      </trkpt>
      <trkpt lat="40.1231150" lon="-4.3532290">
        <ele>535.7</ele>
        <time>2019-08-13T10:36:40Z</time>
      </trkpt>
      <trkpt lat="40.1231820" lon="-4.3532580">
        <ele>535.2</ele>
        <time>2019-08-13T10:36:41Z</time>
      </trkpt>
      <trkpt lat="40.1232490" lon="-4.3532870">
        <ele>534.5</ele>
        <time>2019-08-13T10:36:42Z</time>
      </trkpt>
      <trkpt lat="40.1233180" lon="-4.3533150">
        <ele>533.8</ele>
        <time>2019-08-13T10:36:43Z</time>
      </trkpt>
      <trkpt lat="40.1233870" lon="-4.3533450">
        <ele>533.3</ele>
        <time>2019-08-13T10:36:44Z</time>
      </trkpt>
      <trkpt lat="40.1234570" lon="-4.3533760">
        <ele>532.7</ele>
        <time>2019-08-13T10:36:45Z</time>
      </trkpt>
      <trkpt lat="40.1235280" lon="-4.3534070">
        <ele>532.0</ele>
        <time>2019-08-13T10:36:46Z</time>
      </trkpt>
      <trkpt lat="40.1236000" lon="-4.3534390">
        <ele>531.3</ele>
        <time>2019-08-13T10:36:47Z</time>
      </trkpt>
      <trkpt lat="40.1236740" lon="-4.3534730">
        <ele>530.6</ele>
        <time>2019-08-13T10:36:48Z</time>
      </trkpt>
      <trkpt lat="40.1237520" lon="-4.3535090">
        <ele>529.7</ele>
        <time>2019-08-13T10:36:49Z</time>
      </trkpt>
      <trkpt lat="40.1238350" lon="-4.3535480">
        <ele>528.8</ele>
        <time>2019-08-13T10:36:50Z</time>
      </trkpt>
      <trkpt lat="40.1239200" lon="-4.3535870">
        <ele>528.1</ele>
        <time>2019-08-13T10:36:51Z</time>
      </trkpt>
      <trkpt lat="40.1240050" lon="-4.3536270">
        <ele>527.5</ele>
        <time>2019-08-13T10:36:52Z</time>
      </trkpt>
      <trkpt lat="40.1240900" lon="-4.3536660">
        <ele>526.9</ele>
        <time>2019-08-13T10:36:53Z</time>
      </trkpt>
      <trkpt lat="40.1241740" lon="-4.3537060">
        <ele>526.2</ele>
        <time>2019-08-13T10:36:54Z</time>
      </trkpt>
      <trkpt lat="40.1242590" lon="-4.3537470">
        <ele>525.5</ele>
        <time>2019-08-13T10:36:55Z</time>
      </trkpt>
      <trkpt lat="40.1243450" lon="-4.3537910">
        <ele>524.8</ele>
        <time>2019-08-13T10:36:56Z</time>
      </trkpt>
      <trkpt lat="40.1244350" lon="-4.3538370">
        <ele>524.0</ele>
        <time>2019-08-13T10:36:57Z</time>
      </trkpt>
      <trkpt lat="40.1245260" lon="-4.3538860">
        <ele>523.5</ele>
        <time>2019-08-13T10:36:58Z</time>
      </trkpt>
      <trkpt lat="40.1246170" lon="-4.3539370">
        <ele>523.3</ele>
        <time>2019-08-13T10:36:59Z</time>
      </trkpt>
      <trkpt lat="40.1247080" lon="-4.3539860">
        <ele>523.1</ele>
        <time>2019-08-13T10:37:00Z</time>
      </trkpt>
      <trkpt lat="40.1247960" lon="-4.3540290">
        <ele>522.9</ele>
        <time>2019-08-13T10:37:01Z</time>
      </trkpt>
      <trkpt lat="40.1248780" lon="-4.3540660">
        <ele>523.0</ele>
        <time>2019-08-13T10:37:02Z</time>
      </trkpt>
      <trkpt lat="40.1249550" lon="-4.3541020">
        <ele>523.0</ele>
        <time>2019-08-13T10:37:03Z</time>
      </trkpt>
      <trkpt lat="40.1250280" lon="-4.3541390">
        <ele>523.1</ele>
        <time>2019-08-13T10:37:04Z</time>
      </trkpt>
      <trkpt lat="40.1250940" lon="-4.3541760">
        <ele>523.2</ele>
        <time>2019-08-13T10:37:05Z</time>
      </trkpt>
      <trkpt lat="40.1251570" lon="-4.3542100">
        <ele>523.1</ele>
        <time>2019-08-13T10:37:06Z</time>
      </trkpt>
      <trkpt lat="40.1252160" lon="-4.3542400">
        <ele>523.0</ele>
        <time>2019-08-13T10:37:07Z</time>
      </trkpt>
      <trkpt lat="40.1252710" lon="-4.3542690">
        <ele>522.9</ele>
        <time>2019-08-13T10:37:08Z</time>
      </trkpt>
      <trkpt lat="40.1253230" lon="-4.3542950">
        <ele>522.7</ele>
        <time>2019-08-13T10:37:09Z</time>
      </trkpt>
      <trkpt lat="40.1253750" lon="-4.3543210">
        <ele>522.5</ele>
        <time>2019-08-13T10:37:10Z</time>
      </trkpt>
      <trkpt lat="40.1254270" lon="-4.3543450">
        <ele>522.2</ele>
        <time>2019-08-13T10:37:11Z</time>
      </trkpt>
      <trkpt lat="40.1254810" lon="-4.3543680">
        <ele>521.9</ele>
        <time>2019-08-13T10:37:12Z</time>
      </trkpt>
      <trkpt lat="40.1255350" lon="-4.3543920">
        <ele>521.6</ele>
        <time>2019-08-13T10:37:13Z</time>
      </trkpt>
      <trkpt lat="40.1255900" lon="-4.3544200">
        <ele>521.2</ele>
        <time>2019-08-13T10:37:14Z</time>
      </trkpt>
      <trkpt lat="40.1256450" lon="-4.3544500">
        <ele>520.8</ele>
        <time>2019-08-13T10:37:15Z</time>
      </trkpt>
      <trkpt lat="40.1257020" lon="-4.3544830">
        <ele>520.5</ele>
        <time>2019-08-13T10:37:16Z</time>
      </trkpt>
      <trkpt lat="40.1257620" lon="-4.3545190">
        <ele>520.2</ele>
        <time>2019-08-13T10:37:17Z</time>
      </trkpt>
      <trkpt lat="40.1258260" lon="-4.3545540">
        <ele>520.0</ele>
        <time>2019-08-13T10:37:18Z</time>
      </trkpt>
      <trkpt lat="40.1258960" lon="-4.3545890">
        <ele>519.8</ele>
        <time>2019-08-13T10:37:19Z</time>
      </trkpt>
      <trkpt lat="40.1259690" lon="-4.3546260">
        <ele>519.5</ele>
        <time>2019-08-13T10:37:20Z</time>
      </trkpt>
      <trkpt lat="40.1260440" lon="-4.3546640">
        <ele>519.3</ele>
        <time>2019-08-13T10:37:21Z</time>
      </trkpt>
      <trkpt lat="40.1261200" lon="-4.3547000">
        <ele>519.1</ele>
        <time>2019-08-13T10:37:22Z</time>
      </trkpt>
      <trkpt lat="40.1261960" lon="-4.3547330">
        <ele>518.8</ele>
        <time>2019-08-13T10:37:23Z</time>
      </trkpt>
      <trkpt lat="40.1262710" lon="-4.3547670">
        <ele>518.6</ele>
        <time>2019-08-13T10:37:24Z</time>
      </trkpt>
      <trkpt lat="40.1263410" lon="-4.3548140">
        <ele>518.5</ele>
        <time>2019-08-13T10:37:25Z</time>
      </trkpt>
      <trkpt lat="40.1264070" lon="-4.3548640">
        <ele>518.4</ele>
        <time>2019-08-13T10:37:26Z</time>
      </trkpt>
      <trkpt lat="40.1264730" lon="-4.3549070">
        <ele>518.3</ele>
        <time>2019-08-13T10:37:27Z</time>
      </trkpt>
      <trkpt lat="40.1265370" lon="-4.3549400">
        <ele>518.3</ele>
        <time>2019-08-13T10:37:28Z</time>
      </trkpt>
      <trkpt lat="40.1266010" lon="-4.3549700">
        <ele>518.3</ele>
        <time>2019-08-13T10:37:29Z</time>
      </trkpt>
      <trkpt lat="40.1266640" lon="-4.3549950">
        <ele>518.3</ele>
        <time>2019-08-13T10:37:30Z</time>
      </trkpt>
      <trkpt lat="40.1267250" lon="-4.3550200">
        <ele>518.3</ele>
        <time>2019-08-13T10:37:31Z</time>
      </trkpt>
      <trkpt lat="40.1267860" lon="-4.3550470">
        <ele>518.2</ele>
        <time>2019-08-13T10:37:32Z</time>
      </trkpt>
      <trkpt lat="40.1268460" lon="-4.3550750">
        <ele>518.2</ele>
        <time>2019-08-13T10:37:33Z</time>
      </trkpt>
      <trkpt lat="40.1269060" lon="-4.3550990">
        <ele>518.2</ele>
        <time>2019-08-13T10:37:34Z</time>
      </trkpt>
      <trkpt lat="40.1269660" lon="-4.3551140">
        <ele>518.0</ele>
        <time>2019-08-13T10:37:35Z</time>
      </trkpt>
      <trkpt lat="40.1270230" lon="-4.3551330">
        <ele>517.9</ele>
        <time>2019-08-13T10:37:36Z</time>
      </trkpt>
      <trkpt lat="40.1270750" lon="-4.3551530">
        <ele>517.7</ele>
        <time>2019-08-13T10:37:37Z</time>
      </trkpt>
      <trkpt lat="40.1271230" lon="-4.3551750">
        <ele>517.6</ele>
        <time>2019-08-13T10:37:38Z</time>
      </trkpt>
      <trkpt lat="40.1271710" lon="-4.3551990">
        <ele>517.5</ele>
        <time>2019-08-13T10:37:39Z</time>
      </trkpt>
      <trkpt lat="40.1272180" lon="-4.3552220">
        <ele>517.4</ele>
        <time>2019-08-13T10:37:40Z</time>
      </trkpt>
      <trkpt lat="40.1272640" lon="-4.3552470">
        <ele>517.3</ele>
        <time>2019-08-13T10:37:41Z</time>
      </trkpt>
      <trkpt lat="40.1273110" lon="-4.3552710">
        <ele>517.2</ele>
        <time>2019-08-13T10:37:42Z</time>
      </trkpt>
      <trkpt lat="40.1273590" lon="-4.3552940">
        <ele>517.1</ele>
        <time>2019-08-13T10:37:43Z</time>
      </trkpt>
      <trkpt lat="40.1274080" lon="-4.3553190">
        <ele>517.0</ele>
        <time>2019-08-13T10:37:44Z</time>
      </trkpt>
      <trkpt lat="40.1274580" lon="-4.3553470">
        <ele>516.8</ele>
        <time>2019-08-13T10:37:45Z</time>
      </trkpt>
      <trkpt lat="40.1275100" lon="-4.3553760">
        <ele>516.7</ele>
        <time>2019-08-13T10:37:46Z</time>
      </trkpt>
      <trkpt lat="40.1275630" lon="-4.3554070">
        <ele>516.5</ele>
        <time>2019-08-13T10:37:47Z</time>
      </trkpt>
      <trkpt lat="40.1276180" lon="-4.3554380">
        <ele>516.4</ele>
        <time>2019-08-13T10:37:48Z</time>
      </trkpt>
      <trkpt lat="40.1276710" lon="-4.3554740">
        <ele>516.4</ele>
        <time>2019-08-13T10:37:49Z</time>
      </trkpt>
      <trkpt lat="40.1277220" lon="-4.3555150">
        <ele>516.3</ele>
        <time>2019-08-13T10:37:50Z</time>
      </trkpt>
      <trkpt lat="40.1277740" lon="-4.3555500">
        <ele>516.3</ele>
        <time>2019-08-13T10:37:51Z</time>
      </trkpt>
      <trkpt lat="40.1278260" lon="-4.3555730">
        <ele>516.3</ele>
        <time>2019-08-13T10:37:52Z</time>
      </trkpt>
      <trkpt lat="40.1278760" lon="-4.3555890">
        <ele>516.3</ele>
        <time>2019-08-13T10:37:53Z</time>
      </trkpt>
      <trkpt lat="40.1279200" lon="-4.3556050">
        <ele>516.3</ele>
        <time>2019-08-13T10:37:54Z</time>
      </trkpt>
      <trkpt lat="40.1279580" lon="-4.3556220">
        <ele>516.3</ele>
        <time>2019-08-13T10:37:55Z</time>
      </trkpt>
      <trkpt lat="40.1279930" lon="-4.3556370">
        <ele>516.3</ele>
        <time>2019-08-13T10:37:56Z</time>
      </trkpt>
      <trkpt lat="40.1280260" lon="-4.3556530">
        <ele>516.3</ele>
        <time>2019-08-13T10:37:57Z</time>
      </trkpt>
      <trkpt lat="40.1280560" lon="-4.3556700">
        <ele>516.3</ele>
        <time>2019-08-13T10:37:58Z</time>
      </trkpt>
      <trkpt lat="40.1280870" lon="-4.3556870">
        <ele>516.3</ele>
        <time>2019-08-13T10:37:59Z</time>
      </trkpt>
      <trkpt lat="40.1281180" lon="-4.3557040">
        <ele>516.3</ele>
        <time>2019-08-13T10:38:00Z</time>
      </trkpt>
      <trkpt lat="40.1281500" lon="-4.3557200">
        <ele>516.3</ele>
        <time>2019-08-13T10:38:01Z</time>
      </trkpt>
      <trkpt lat="40.1281820" lon="-4.3557360">
        <ele>516.3</ele>
        <time>2019-08-13T10:38:02Z</time>
      </trkpt>
      <trkpt lat="40.1282140" lon="-4.3557520">
        <ele>516.3</ele>
        <time>2019-08-13T10:38:03Z</time>
      </trkpt>
      <trkpt lat="40.1282460" lon="-4.3557680">
        <ele>516.2</ele>
        <time>2019-08-13T10:38:04Z</time>
      </trkpt>
      <trkpt lat="40.1282760" lon="-4.3557840">
        <ele>516.2</ele>
        <time>2019-08-13T10:38:05Z</time>
      </trkpt>
      <trkpt lat="40.1283060" lon="-4.3558000">
        <ele>516.1</ele>
        <time>2019-08-13T10:38:06Z</time>
      </trkpt>
      <trkpt lat="40.1283360" lon="-4.3558140">
        <ele>516.0</ele>
        <time>2019-08-13T10:38:07Z</time>
      </trkpt>
      <trkpt lat="40.1283670" lon="-4.3558270">
        <ele>515.9</ele>
        <time>2019-08-13T10:38:08Z</time>
      </trkpt>
      <trkpt lat="40.1283970" lon="-4.3558410">
        <ele>515.8</ele>
        <time>2019-08-13T10:38:09Z</time>
      </trkpt>
      <trkpt lat="40.1284270" lon="-4.3558560">
        <ele>515.7</ele>
        <time>2019-08-13T10:38:10Z</time>
      </trkpt>
      <trkpt lat="40.1284580" lon="-4.3558710">
        <ele>515.5</ele>
        <time>2019-08-13T10:38:11Z</time>
      </trkpt>
      <trkpt lat="40.1284900" lon="-4.3558860">
        <ele>515.3</ele>
        <time>2019-08-13T10:38:12Z</time>
      </trkpt>
      <trkpt lat="40.1285260" lon="-4.3559020">
        <ele>515.0</ele>
        <time>2019-08-13T10:38:13Z</time>
      </trkpt>
      <trkpt lat="40.1285650" lon="-4.3559180">
        <ele>514.8</ele>
        <time>2019-08-13T10:38:14Z</time>
      </trkpt>
      <trkpt lat="40.1286060" lon="-4.3559370">
        <ele>514.5</ele>
        <time>2019-08-13T10:38:15Z</time>
      </trkpt>
      <trkpt lat="40.1286510" lon="-4.3559600">
        <ele>514.3</ele>
        <time>2019-08-13T10:38:16Z</time>
      </trkpt>
      <trkpt lat="40.1286990" lon="-4.3559880">
        <ele>514.0</ele>
        <time>2019-08-13T10:38:17Z</time>
      </trkpt>
      <trkpt lat="40.1287510" lon="-4.3560200">
        <ele>513.6</ele>
        <time>2019-08-13T10:38:18Z</time>
      </trkpt>
      <trkpt lat="40.1288070" lon="-4.3560500">
        <ele>513.1</ele>
        <time>2019-08-13T10:38:19Z</time>
      </trkpt>
      <trkpt lat="40.1288670" lon="-4.3560750">
        <ele>512.5</ele>
        <time>2019-08-13T10:38:20Z</time>
      </trkpt>
      <trkpt lat="40.1289320" lon="-4.3561010">
        <ele>511.8</ele>
        <time>2019-08-13T10:38:21Z</time>
      </trkpt>
      <trkpt lat="40.1289990" lon="-4.3561330">
        <ele>511.1</ele>
        <time>2019-08-13T10:38:22Z</time>
      </trkpt>
      <trkpt lat="40.1290700" lon="-4.3561740">
        <ele>510.4</ele>
        <time>2019-08-13T10:38:23Z</time>
      </trkpt>
      <trkpt lat="40.1291440" lon="-4.3562200">
        <ele>509.8</ele>
        <time>2019-08-13T10:38:24Z</time>
      </trkpt>
      <trkpt lat="40.1292210" lon="-4.3562640">
        <ele>509.3</ele>
        <time>2019-08-13T10:38:25Z</time>
      </trkpt>
      <trkpt lat="40.1292990" lon="-4.3563080">
        <ele>509.0</ele>
        <time>2019-08-13T10:38:26Z</time>
      </trkpt>
      <trkpt lat="40.1293770" lon="-4.3563500">
        <ele>508.7</ele>
        <time>2019-08-13T10:38:27Z</time>
      </trkpt>
      <trkpt lat="40.1294550" lon="-4.3563930">
        <ele>508.5</ele>
        <time>2019-08-13T10:38:28Z</time>
      </trkpt>
      <trkpt lat="40.1295320" lon="-4.3564320">
        <ele>508.3</ele>
        <time>2019-08-13T10:38:29Z</time>
      </trkpt>
      <trkpt lat="40.1296090" lon="-4.3564700">
        <ele>508.0</ele>
        <time>2019-08-13T10:38:30Z</time>
      </trkpt>
      <trkpt lat="40.1296850" lon="-4.3565080">
        <ele>507.8</ele>
        <time>2019-08-13T10:38:31Z</time>
      </trkpt>
      <trkpt lat="40.1297610" lon="-4.3565460">
        <ele>507.4</ele>
        <time>2019-08-13T10:38:32Z</time>
      </trkpt>
      <trkpt lat="40.1298370" lon="-4.3565840">
        <ele>507.0</ele>
        <time>2019-08-13T10:38:33Z</time>
      </trkpt>
      <trkpt lat="40.1299110" lon="-4.3566230">
        <ele>506.7</ele>
        <time>2019-08-13T10:38:34Z</time>
      </trkpt>
      <trkpt lat="40.1299840" lon="-4.3566630">
        <ele>506.5</ele>
        <time>2019-08-13T10:38:35Z</time>
      </trkpt>
      <trkpt lat="40.1300560" lon="-4.3567020">
        <ele>506.4</ele>
        <time>2019-08-13T10:38:36Z</time>
      </trkpt>
      <trkpt lat="40.1301260" lon="-4.3567400">
        <ele>506.3</ele>
        <time>2019-08-13T10:38:37Z</time>
      </trkpt>
      <trkpt lat="40.1301910" lon="-4.3567740">
        <ele>506.2</ele>
        <time>2019-08-13T10:38:38Z</time>
      </trkpt>
      <trkpt lat="40.1302540" lon="-4.3568120">
        <ele>506.0</ele>
        <time>2019-08-13T10:38:39Z</time>
      </trkpt>
      <trkpt lat="40.1303130" lon="-4.3568500">
        <ele>505.8</ele>
        <time>2019-08-13T10:38:40Z</time>
      </trkpt>
      <trkpt lat="40.1303690" lon="-4.3568850">
        <ele>505.7</ele>
        <time>2019-08-13T10:38:41Z</time>
      </trkpt>
      <trkpt lat="40.1304200" lon="-4.3569080">
        <ele>505.6</ele>
        <time>2019-08-13T10:38:42Z</time>
      </trkpt>
      <trkpt lat="40.1304720" lon="-4.3569190">
        <ele>505.5</ele>
        <time>2019-08-13T10:38:43Z</time>
      </trkpt>
      <trkpt lat="40.1305220" lon="-4.3569290">
        <ele>505.4</ele>
        <time>2019-08-13T10:38:44Z</time>
      </trkpt>
      <trkpt lat="40.1305670" lon="-4.3569450">
        <ele>505.4</ele>
        <time>2019-08-13T10:38:45Z</time>
      </trkpt>
      <trkpt lat="40.1306030" lon="-4.3569670">
        <ele>505.4</ele>
        <time>2019-08-13T10:38:46Z</time>
      </trkpt>
      <trkpt lat="40.1306380" lon="-4.3569940">
        <ele>505.3</ele>
        <time>2019-08-13T10:38:47Z</time>
      </trkpt>
      <trkpt lat="40.1306690" lon="-4.3570230">
        <ele>505.3</ele>
        <time>2019-08-13T10:38:48Z</time>
      </trkpt>
      <trkpt lat="40.1306940" lon="-4.3570550">
        <ele>505.3</ele>
        <time>2019-08-13T10:38:49Z</time>
      </trkpt>
      <trkpt lat="40.1307150" lon="-4.3570930">
        <ele>505.3</ele>
        <time>2019-08-13T10:38:50Z</time>
      </trkpt>
      <trkpt lat="40.1307330" lon="-4.3571350">
        <ele>505.3</ele>
        <time>2019-08-13T10:38:51Z</time>
      </trkpt>
      <trkpt lat="40.1307500" lon="-4.3571820">
        <ele>505.2</ele>
        <time>2019-08-13T10:38:52Z</time>
      </trkpt>
      <trkpt lat="40.1307660" lon="-4.3572330">
        <ele>505.1</ele>
        <time>2019-08-13T10:38:53Z</time>
      </trkpt>
      <trkpt lat="40.1307830" lon="-4.3572850">
        <ele>505.0</ele>
        <time>2019-08-13T10:38:54Z</time>
      </trkpt>
      <trkpt lat="40.1307990" lon="-4.3573380">
        <ele>504.8</ele>
        <time>2019-08-13T10:38:55Z</time>
      </trkpt>
      <trkpt lat="40.1308160" lon="-4.3573940">
        <ele>504.6</ele>
        <time>2019-08-13T10:38:56Z</time>
      </trkpt>
      <trkpt lat="40.1308320" lon="-4.3574540">
        <ele>504.3</ele>
        <time>2019-08-13T10:38:57Z</time>
      </trkpt>
      <trkpt lat="40.1308500" lon="-4.3575170">
        <ele>504.0</ele>
        <time>2019-08-13T10:38:58Z</time>
      </trkpt>
      <trkpt lat="40.1308690" lon="-4.3575810">
        <ele>503.7</ele>
        <time>2019-08-13T10:38:59Z</time>
      </trkpt>
      <trkpt lat="40.1308890" lon="-4.3576460">
        <ele>503.4</ele>
        <time>2019-08-13T10:39:00Z</time>
      </trkpt>
      <trkpt lat="40.1309120" lon="-4.3577120">
        <ele>503.1</ele>
        <time>2019-08-13T10:39:01Z</time>
      </trkpt>
      <trkpt lat="40.1309390" lon="-4.3577740">
        <ele>502.9</ele>
        <time>2019-08-13T10:39:02Z</time>
      </trkpt>
      <trkpt lat="40.1309730" lon="-4.3578310">
        <ele>502.7</ele>
        <time>2019-08-13T10:39:03Z</time>
      </trkpt>
      <trkpt lat="40.1310090" lon="-4.3578840">
        <ele>502.5</ele>
        <time>2019-08-13T10:39:04Z</time>
      </trkpt>
      <trkpt lat="40.1310420" lon="-4.3579420">
        <ele>502.5</ele>
        <time>2019-08-13T10:39:05Z</time>
      </trkpt>
      <trkpt lat="40.1310680" lon="-4.3580080">
        <ele>502.4</ele>
        <time>2019-08-13T10:39:06Z</time>
      </trkpt>
      <trkpt lat="40.1310890" lon="-4.3580730">
        <ele>502.4</ele>
        <time>2019-08-13T10:39:07Z</time>
      </trkpt>
      <trkpt lat="40.1311100" lon="-4.3581380">
        <ele>502.3</ele>
        <time>2019-08-13T10:39:08Z</time>
      </trkpt>
      <trkpt lat="40.1311320" lon="-4.3582000">
        <ele>502.3</ele>
        <time>2019-08-13T10:39:09Z</time>
      </trkpt>
      <trkpt lat="40.1311610" lon="-4.3582590">
        <ele>502.3</ele>
        <time>2019-08-13T10:39:10Z</time>
      </trkpt>
      <trkpt lat="40.1311960" lon="-4.3583140">
        <ele>502.2</ele>
        <time>2019-08-13T10:39:11Z</time>
      </trkpt>
      <trkpt lat="40.1312310" lon="-4.3583650">
        <ele>502.1</ele>
        <time>2019-08-13T10:39:12Z</time>
      </trkpt>
      <trkpt lat="40.1312700" lon="-4.3584130">
        <ele>502.0</ele>
        <time>2019-08-13T10:39:13Z</time>
      </trkpt>
      <trkpt lat="40.1313120" lon="-4.3584610">
        <ele>501.9</ele>
        <time>2019-08-13T10:39:14Z</time>
      </trkpt>
      <trkpt lat="40.1313480" lon="-4.3585160">
        <ele>501.8</ele>
        <time>2019-08-13T10:39:15Z</time>
      </trkpt>
      <trkpt lat="40.1313800" lon="-4.3585790">
        <ele>501.6</ele>
        <time>2019-08-13T10:39:16Z</time>
      </trkpt>
      <trkpt lat="40.1314130" lon="-4.3586360">
        <ele>501.5</ele>
        <time>2019-08-13T10:39:17Z</time>
      </trkpt>
      <trkpt lat="40.1314480" lon="-4.3586820">
        <ele>501.4</ele>
        <time>2019-08-13T10:39:18Z</time>
      </trkpt>
      <trkpt lat="40.1314850" lon="-4.3587160">
        <ele>501.4</ele>
        <time>2019-08-13T10:39:19Z</time>
      </trkpt>
      <trkpt lat="40.1315260" lon="-4.3587460">
        <ele>501.3</ele>
        <time>2019-08-13T10:39:20Z</time>
      </trkpt>
      <trkpt lat="40.1315690" lon="-4.3587700">
        <ele>501.3</ele>
        <time>2019-08-13T10:39:21Z</time>
      </trkpt>
      <trkpt lat="40.1316140" lon="-4.3587950">
        <ele>501.2</ele>
        <time>2019-08-13T10:39:22Z</time>
      </trkpt>
      <trkpt lat="40.1316610" lon="-4.3588230">
        <ele>501.2</ele>
        <time>2019-08-13T10:39:23Z</time>
      </trkpt>
      <trkpt lat="40.1317060" lon="-4.3588580">
        <ele>501.0</ele>
        <time>2019-08-13T10:39:24Z</time>
      </trkpt>
      <trkpt lat="40.1317530" lon="-4.3588980">
        <ele>500.9</ele>
        <time>2019-08-13T10:39:25Z</time>
      </trkpt>
      <trkpt lat="40.1318010" lon="-4.3589360">
        <ele>500.8</ele>
        <time>2019-08-13T10:39:26Z</time>
      </trkpt>
      <trkpt lat="40.1318460" lon="-4.3589780">
        <ele>500.7</ele>
        <time>2019-08-13T10:39:27Z</time>
      </trkpt>
      <trkpt lat="40.1318900" lon="-4.3590200">
        <ele>500.6</ele>
        <time>2019-08-13T10:39:28Z</time>
      </trkpt>
      <trkpt lat="40.1319320" lon="-4.3590590">
        <ele>500.5</ele>
        <time>2019-08-13T10:39:29Z</time>
      </trkpt>
      <trkpt lat="40.1319770" lon="-4.3590960">
        <ele>500.4</ele>
        <time>2019-08-13T10:39:30Z</time>
      </trkpt>
      <trkpt lat="40.1320230" lon="-4.3591230">
        <ele>500.4</ele>
        <time>2019-08-13T10:39:31Z</time>
      </trkpt>
      <trkpt lat="40.1320700" lon="-4.3591540">
        <ele>500.4</ele>
        <time>2019-08-13T10:39:32Z</time>
      </trkpt>
      <trkpt lat="40.1321210" lon="-4.3591910">
        <ele>500.4</ele>
        <time>2019-08-13T10:39:33Z</time>
      </trkpt>
      <trkpt lat="40.1321670" lon="-4.3592240">
        <ele>500.4</ele>
        <time>2019-08-13T10:39:34Z</time>
      </trkpt>
      <trkpt lat="40.1322120" lon="-4.3592580">
        <ele>500.4</ele>
        <time>2019-08-13T10:39:35Z</time>
      </trkpt>
      <trkpt lat="40.1322600" lon="-4.3592950">
        <ele>500.4</ele>
        <time>2019-08-13T10:39:36Z</time>
      </trkpt>
      <trkpt lat="40.1323100" lon="-4.3593300">
        <ele>500.4</ele>
        <time>2019-08-13T10:39:37Z</time>
      </trkpt>
      <trkpt lat="40.1323590" lon="-4.3593550">
        <ele>500.4</ele>
        <time>2019-08-13T10:39:38Z</time>
      </trkpt>
      <trkpt lat="40.1324080" lon="-4.3593720">
        <ele>500.4</ele>
        <time>2019-08-13T10:39:39Z</time>
      </trkpt>
      <trkpt lat="40.1324560" lon="-4.3593810">
        <ele>500.4</ele>
        <time>2019-08-13T10:39:40Z</time>
      </trkpt>
      <trkpt lat="40.1325020" lon="-4.3593920">
        <ele>500.4</ele>
        <time>2019-08-13T10:39:41Z</time>
      </trkpt>
      <trkpt lat="40.1325480" lon="-4.3594120">
        <ele>500.4</ele>
        <time>2019-08-13T10:39:42Z</time>
      </trkpt>
      <trkpt lat="40.1325880" lon="-4.3594350">
        <ele>500.4</ele>
        <time>2019-08-13T10:39:43Z</time>
      </trkpt>
      <trkpt lat="40.1326250" lon="-4.3594630">
        <ele>500.4</ele>
        <time>2019-08-13T10:39:44Z</time>
      </trkpt>
      <trkpt lat="40.1326610" lon="-4.3594890">
        <ele>500.4</ele>
        <time>2019-08-13T10:39:45Z</time>
      </trkpt>
      <trkpt lat="40.1326970" lon="-4.3595140">
        <ele>500.4</ele>
        <time>2019-08-13T10:39:46Z</time>
      </trkpt>
      <trkpt lat="40.1327340" lon="-4.3595320">
        <ele>500.4</ele>
        <time>2019-08-13T10:39:47Z</time>
      </trkpt>
      <trkpt lat="40.1327670" lon="-4.3595480">
        <ele>500.4</ele>
        <time>2019-08-13T10:39:48Z</time>
      </trkpt>
      <trkpt lat="40.1327990" lon="-4.3595660">
        <ele>500.4</ele>
        <time>2019-08-13T10:39:49Z</time>
      </trkpt>
      <trkpt lat="40.1328310" lon="-4.3595830">
        <ele>500.4</ele>
        <time>2019-08-13T10:39:50Z</time>
      </trkpt>
      <trkpt lat="40.1328650" lon="-4.3596010">
        <ele>500.4</ele>
        <time>2019-08-13T10:39:51Z</time>
      </trkpt>
      <trkpt lat="40.1328990" lon="-4.3596220">
        <ele>500.3</ele>
        <time>2019-08-13T10:39:52Z</time>
      </trkpt>
      <trkpt lat="40.1329340" lon="-4.3596420">
        <ele>500.3</ele>
        <time>2019-08-13T10:39:53Z</time>
      </trkpt>
      <trkpt lat="40.1329680" lon="-4.3596650">
        <ele>500.3</ele>
        <time>2019-08-13T10:39:54Z</time>
      </trkpt>
      <trkpt lat="40.1330030" lon="-4.3596890">
        <ele>500.3</ele>
        <time>2019-08-13T10:39:55Z</time>
      </trkpt>
      <trkpt lat="40.1330410" lon="-4.3597120">
        <ele>500.2</ele>
        <time>2019-08-13T10:39:56Z</time>
      </trkpt>
      <trkpt lat="40.1330800" lon="-4.3597350">
        <ele>500.2</ele>
        <time>2019-08-13T10:39:57Z</time>
      </trkpt>
      <trkpt lat="40.1331190" lon="-4.3597570">
        <ele>500.1</ele>
        <time>2019-08-13T10:39:58Z</time>
      </trkpt>
      <trkpt lat="40.1331580" lon="-4.3597810">
        <ele>500.0</ele>
        <time>2019-08-13T10:39:59Z</time>
      </trkpt>
      <trkpt lat="40.1331970" lon="-4.3598050">
        <ele>499.8</ele>
        <time>2019-08-13T10:40:00Z</time>
      </trkpt>
      <trkpt lat="40.1332370" lon="-4.3598290">
        <ele>499.7</ele>
        <time>2019-08-13T10:40:01Z</time>
      </trkpt>
      <trkpt lat="40.1332770" lon="-4.3598550">
        <ele>499.6</ele>
        <time>2019-08-13T10:40:02Z</time>
      </trkpt>
      <trkpt lat="40.1333190" lon="-4.3598820">
        <ele>499.5</ele>
        <time>2019-08-13T10:40:03Z</time>
      </trkpt>
      <trkpt lat="40.1333620" lon="-4.3599090">
        <ele>499.4</ele>
        <time>2019-08-13T10:40:04Z</time>
      </trkpt>
      <trkpt lat="40.1334070" lon="-4.3599350">
        <ele>499.4</ele>
        <time>2019-08-13T10:40:05Z</time>
      </trkpt>
      <trkpt lat="40.1334530" lon="-4.3599630">
        <ele>499.4</ele>
        <time>2019-08-13T10:40:06Z</time>
      </trkpt>
      <trkpt lat="40.1335000" lon="-4.3599900">
        <ele>499.4</ele>
        <time>2019-08-13T10:40:07Z</time>
      </trkpt>
      <trkpt lat="40.1335460" lon="-4.3600180">
        <ele>499.3</ele>
        <time>2019-08-13T10:40:08Z</time>
      </trkpt>
      <trkpt lat="40.1335920" lon="-4.3600460">
        <ele>499.3</ele>
        <time>2019-08-13T10:40:09Z</time>
      </trkpt>
      <trkpt lat="40.1336340" lon="-4.3600770">
        <ele>499.3</ele>
        <time>2019-08-13T10:40:10Z</time>
      </trkpt>
      <trkpt lat="40.1336740" lon="-4.3601100">
        <ele>499.3</ele>
        <time>2019-08-13T10:40:11Z</time>
      </trkpt>
      <trkpt lat="40.1337130" lon="-4.3601440">
        <ele>499.2</ele>
        <time>2019-08-13T10:40:12Z</time>
      </trkpt>
      <trkpt lat="40.1337510" lon="-4.3601720">
        <ele>499.0</ele>
        <time>2019-08-13T10:40:13Z</time>
      </trkpt>
      <trkpt lat="40.1337880" lon="-4.3601950">
        <ele>498.9</ele>
        <time>2019-08-13T10:40:14Z</time>
      </trkpt>
      <trkpt lat="40.1338250" lon="-4.3602190">
        <ele>498.8</ele>
        <time>2019-08-13T10:40:15Z</time>
      </trkpt>
      <trkpt lat="40.1338640" lon="-4.3602450">
        <ele>498.6</ele>
        <time>2019-08-13T10:40:16Z</time>
      </trkpt>
      <trkpt lat="40.1339020" lon="-4.3602740">
        <ele>498.5</ele>
        <time>2019-08-13T10:40:17Z</time>
      </trkpt>
      <trkpt lat="40.1339390" lon="-4.3603020">
        <ele>498.4</ele>
        <time>2019-08-13T10:40:18Z</time>
      </trkpt>
      <trkpt lat="40.1339770" lon="-4.3603270">
        <ele>498.4</ele>
        <time>2019-08-13T10:40:19Z</time>
      </trkpt>
      <trkpt lat="40.1340170" lon="-4.3603440">
        <ele>498.4</ele>
        <time>2019-08-13T10:40:20Z</time>
      </trkpt>
      <trkpt lat="40.1340550" lon="-4.3603630">
        <ele>498.3</ele>
        <time>2019-08-13T10:40:21Z</time>
      </trkpt>
      <trkpt lat="40.1340890" lon="-4.3603880">
        <ele>498.3</ele>
        <time>2019-08-13T10:40:22Z</time>
      </trkpt>
      <trkpt lat="40.1341170" lon="-4.3604200">
        <ele>498.3</ele>
        <time>2019-08-13T10:40:23Z</time>
      </trkpt>
      <trkpt lat="40.1341450" lon="-4.3604550">
        <ele>498.3</ele>
        <time>2019-08-13T10:40:24Z</time>
      </trkpt>
      <trkpt lat="40.1341750" lon="-4.3604910">
        <ele>498.2</ele>
        <time>2019-08-13T10:40:25Z</time>
      </trkpt>
      <trkpt lat="40.1342040" lon="-4.3605310">
        <ele>498.1</ele>
        <time>2019-08-13T10:40:26Z</time>
      </trkpt>
      <trkpt lat="40.1342320" lon="-4.3605750">
        <ele>498.0</ele>
        <time>2019-08-13T10:40:27Z</time>
      </trkpt>
      <trkpt lat="40.1342620" lon="-4.3606200">
        <ele>497.9</ele>
        <time>2019-08-13T10:40:28Z</time>
      </trkpt>
      <trkpt lat="40.1342950" lon="-4.3606660">
        <ele>497.8</ele>
        <time>2019-08-13T10:40:29Z</time>
      </trkpt>
      <trkpt lat="40.1343290" lon="-4.3607110">
        <ele>497.7</ele>
        <time>2019-08-13T10:40:30Z</time>
      </trkpt>
      <trkpt lat="40.1343640" lon="-4.3607570">
        <ele>497.6</ele>
        <time>2019-08-13T10:40:31Z</time>
      </trkpt>
      <trkpt lat="40.1344010" lon="-4.3608040">
        <ele>497.5</ele>
        <time>2019-08-13T10:40:32Z</time>
      </trkpt>
      <trkpt lat="40.1344390" lon="-4.3608520">
        <ele>497.5</ele>
        <time>2019-08-13T10:40:33Z</time>
      </trkpt>
      <trkpt lat="40.1344770" lon="-4.3609020">
        <ele>497.4</ele>
        <time>2019-08-13T10:40:34Z</time>
      </trkpt>
      <trkpt lat="40.1345150" lon="-4.3609510">
        <ele>497.4</ele>
        <time>2019-08-13T10:40:35Z</time>
      </trkpt>
      <trkpt lat="40.1345530" lon="-4.3609970">
        <ele>497.4</ele>
        <time>2019-08-13T10:40:36Z</time>
      </trkpt>
      <trkpt lat="40.1345940" lon="-4.3610410">
        <ele>497.4</ele>
        <time>2019-08-13T10:40:37Z</time>
      </trkpt>
      <trkpt lat="40.1346350" lon="-4.3610840">
        <ele>497.4</ele>
        <time>2019-08-13T10:40:38Z</time>
      </trkpt>
      <trkpt lat="40.1346760" lon="-4.3611290">
        <ele>497.4</ele>
        <time>2019-08-13T10:40:39Z</time>
      </trkpt>
      <trkpt lat="40.1347160" lon="-4.3611740">
        <ele>497.4</ele>
        <time>2019-08-13T10:40:40Z</time>
      </trkpt>
      <trkpt lat="40.1347520" lon="-4.3612210">
        <ele>497.4</ele>
        <time>2019-08-13T10:40:41Z</time>
      </trkpt>
      <trkpt lat="40.1347860" lon="-4.3612690">
        <ele>497.4</ele>
        <time>2019-08-13T10:40:42Z</time>
      </trkpt>
      <trkpt lat="40.1348210" lon="-4.3613160">
        <ele>497.4</ele>
        <time>2019-08-13T10:40:43Z</time>
      </trkpt>
      <trkpt lat="40.1348600" lon="-4.3613610">
        <ele>497.4</ele>
        <time>2019-08-13T10:40:44Z</time>
      </trkpt>
      <trkpt lat="40.1349020" lon="-4.3614020">
        <ele>497.4</ele>
        <time>2019-08-13T10:40:45Z</time>
      </trkpt>
      <trkpt lat="40.1349440" lon="-4.3614430">
        <ele>497.4</ele>
        <time>2019-08-13T10:40:46Z</time>
      </trkpt>
      <trkpt lat="40.1349840" lon="-4.3614800">
        <ele>497.4</ele>
        <time>2019-08-13T10:40:47Z</time>
      </trkpt>
      <trkpt lat="40.1350240" lon="-4.3615150">
        <ele>497.4</ele>
        <time>2019-08-13T10:40:48Z</time>
      </trkpt>
      <trkpt lat="40.1350640" lon="-4.3615470">
        <ele>497.4</ele>
        <time>2019-08-13T10:40:49Z</time>
      </trkpt>
      <trkpt lat="40.1350980" lon="-4.3615800">
        <ele>497.3</ele>
        <time>2019-08-13T10:40:50Z</time>
      </trkpt>
      <trkpt lat="40.1351310" lon="-4.3616150">
        <ele>497.3</ele>
        <time>2019-08-13T10:40:51Z</time>
      </trkpt>
      <trkpt lat="40.1351640" lon="-4.3616480">
        <ele>497.3</ele>
        <time>2019-08-13T10:40:52Z</time>
      </trkpt>
      <trkpt lat="40.1351970" lon="-4.3616820">
        <ele>497.2</ele>
        <time>2019-08-13T10:40:53Z</time>
      </trkpt>
      <trkpt lat="40.1352290" lon="-4.3617210">
        <ele>497.1</ele>
        <time>2019-08-13T10:40:54Z</time>
      </trkpt>
      <trkpt lat="40.1352580" lon="-4.3617610">
        <ele>497.0</ele>
        <time>2019-08-13T10:40:55Z</time>
      </trkpt>
      <trkpt lat="40.1352830" lon="-4.3618050">
        <ele>496.9</ele>
        <time>2019-08-13T10:40:56Z</time>
      </trkpt>
      <trkpt lat="40.1353090" lon="-4.3618530">
        <ele>496.7</ele>
        <time>2019-08-13T10:40:57Z</time>
      </trkpt>
      <trkpt lat="40.1353390" lon="-4.3619030">
        <ele>496.5</ele>
        <time>2019-08-13T10:40:58Z</time>
      </trkpt>
      <trkpt lat="40.1353730" lon="-4.3619530">
        <ele>496.3</ele>
        <time>2019-08-13T10:40:59Z</time>
      </trkpt>
      <trkpt lat="40.1354090" lon="-4.3620020">
        <ele>496.1</ele>
        <time>2019-08-13T10:41:00Z</time>
      </trkpt>
      <trkpt lat="40.1354450" lon="-4.3620520">
        <ele>495.9</ele>
        <time>2019-08-13T10:41:01Z</time>
      </trkpt>
      <trkpt lat="40.1354810" lon="-4.3621040">
        <ele>495.8</ele>
        <time>2019-08-13T10:41:02Z</time>
      </trkpt>
      <trkpt lat="40.1355160" lon="-4.3621540">
        <ele>495.7</ele>
        <time>2019-08-13T10:41:03Z</time>
      </trkpt>
      <trkpt lat="40.1355510" lon="-4.3622020">
        <ele>495.6</ele>
        <time>2019-08-13T10:41:04Z</time>
      </trkpt>
      <trkpt lat="40.1355850" lon="-4.3622500">
        <ele>495.5</ele>
        <time>2019-08-13T10:41:05Z</time>
      </trkpt>
      <trkpt lat="40.1356190" lon="-4.3622990">
        <ele>495.5</ele>
        <time>2019-08-13T10:41:06Z</time>
      </trkpt>
      <trkpt lat="40.1356530" lon="-4.3623450">
        <ele>495.5</ele>
        <time>2019-08-13T10:41:07Z</time>
      </trkpt>
      <trkpt lat="40.1356870" lon="-4.3623870">
        <ele>495.6</ele>
        <time>2019-08-13T10:41:08Z</time>
      </trkpt>
      <trkpt lat="40.1357230" lon="-4.3624230">
        <ele>495.7</ele>
        <time>2019-08-13T10:41:09Z</time>
      </trkpt>
      <trkpt lat="40.1357570" lon="-4.3624610">
        <ele>495.8</ele>
        <time>2019-08-13T10:41:10Z</time>
      </trkpt>
      <trkpt lat="40.1357890" lon="-4.3624970">
        <ele>495.9</ele>
        <time>2019-08-13T10:41:11Z</time>
      </trkpt>
      <trkpt lat="40.1358240" lon="-4.3625270">
        <ele>496.0</ele>
        <time>2019-08-13T10:41:12Z</time>
      </trkpt>
      <trkpt lat="40.1358600" lon="-4.3625520">
        <ele>496.1</ele>
        <time>2019-08-13T10:41:13Z</time>
      </trkpt>
      <trkpt lat="40.1358890" lon="-4.3625770">
        <ele>496.1</ele>
        <time>2019-08-13T10:41:14Z</time>
      </trkpt>
      <trkpt lat="40.1359110" lon="-4.3626080">
        <ele>496.2</ele>
        <time>2019-08-13T10:41:15Z</time>
      </trkpt>
      <trkpt lat="40.1359290" lon="-4.3626430">
        <ele>496.2</ele>
        <time>2019-08-13T10:41:16Z</time>
      </trkpt>
      <trkpt lat="40.1359460" lon="-4.3626820">
        <ele>496.2</ele>
        <time>2019-08-13T10:41:17Z</time>
      </trkpt>
      <trkpt lat="40.1359620" lon="-4.3627210">
        <ele>496.2</ele>
        <time>2019-08-13T10:41:18Z</time>
      </trkpt>
      <trkpt lat="40.1359780" lon="-4.3627600">
        <ele>496.1</ele>
        <time>2019-08-13T10:41:19Z</time>
      </trkpt>
      <trkpt lat="40.1359960" lon="-4.3627960">
        <ele>496.1</ele>
        <time>2019-08-13T10:41:20Z</time>
      </trkpt>
      <trkpt lat="40.1360150" lon="-4.3628320">
        <ele>496.1</ele>
        <time>2019-08-13T10:41:21Z</time>
      </trkpt>
      <trkpt lat="40.1360370" lon="-4.3628690">
        <ele>496.1</ele>
        <time>2019-08-13T10:41:22Z</time>
      </trkpt>
      <trkpt lat="40.1360630" lon="-4.3629080">
        <ele>496.1</ele>
        <time>2019-08-13T10:41:23Z</time>
      </trkpt>
      <trkpt lat="40.1360920" lon="-4.3629470">
        <ele>496.1</ele>
        <time>2019-08-13T10:41:24Z</time>
      </trkpt>
      <trkpt lat="40.1361240" lon="-4.3629870">
        <ele>496.2</ele>
        <time>2019-08-13T10:41:25Z</time>
      </trkpt>
      <trkpt lat="40.1361560" lon="-4.3630270">
        <ele>496.2</ele>
        <time>2019-08-13T10:41:26Z</time>
      </trkpt>
      <trkpt lat="40.1361860" lon="-4.3630660">
        <ele>496.2</ele>
        <time>2019-08-13T10:41:27Z</time>
      </trkpt>
      <trkpt lat="40.1362130" lon="-4.3631040">
        <ele>496.2</ele>
        <time>2019-08-13T10:41:28Z</time>
      </trkpt>
      <trkpt lat="40.1362410" lon="-4.3631380">
        <ele>496.1</ele>
        <time>2019-08-13T10:41:29Z</time>
      </trkpt>
      <trkpt lat="40.1362700" lon="-4.3631720">
        <ele>496.0</ele>
        <time>2019-08-13T10:41:30Z</time>
      </trkpt>
      <trkpt lat="40.1362990" lon="-4.3632050">
        <ele>496.0</ele>
        <time>2019-08-13T10:41:31Z</time>
      </trkpt>
      <trkpt lat="40.1363240" lon="-4.3632420">
        <ele>495.8</ele>
        <time>2019-08-13T10:41:32Z</time>
      </trkpt>
      <trkpt lat="40.1363480" lon="-4.3632880">
        <ele>495.7</ele>
        <time>2019-08-13T10:41:33Z</time>
      </trkpt>
      <trkpt lat="40.1363730" lon="-4.3633380">
        <ele>495.5</ele>
        <time>2019-08-13T10:41:34Z</time>
      </trkpt>
      <trkpt lat="40.1364020" lon="-4.3633910">
        <ele>495.3</ele>
        <time>2019-08-13T10:41:35Z</time>
      </trkpt>
      <trkpt lat="40.1364320" lon="-4.3634440">
        <ele>495.1</ele>
        <time>2019-08-13T10:41:36Z</time>
      </trkpt>
      <trkpt lat="40.1364630" lon="-4.3635000">
        <ele>494.9</ele>
        <time>2019-08-13T10:41:37Z</time>
      </trkpt>
      <trkpt lat="40.1364940" lon="-4.3635580">
        <ele>494.7</ele>
        <time>2019-08-13T10:41:38Z</time>
      </trkpt>
      <trkpt lat="40.1365240" lon="-4.3636190">
        <ele>494.6</ele>
        <time>2019-08-13T10:41:39Z</time>
      </trkpt>
      <trkpt lat="40.1365530" lon="-4.3636800">
        <ele>494.5</ele>
        <time>2019-08-13T10:41:40Z</time>
      </trkpt>
      <trkpt lat="40.1365830" lon="-4.3637430">
        <ele>494.4</ele>
        <time>2019-08-13T10:41:41Z</time>
      </trkpt>
      <trkpt lat="40.1366150" lon="-4.3638070">
        <ele>494.3</ele>
        <time>2019-08-13T10:41:42Z</time>
      </trkpt>
      <trkpt lat="40.1366440" lon="-4.3638720">
        <ele>494.2</ele>
        <time>2019-08-13T10:41:43Z</time>
      </trkpt>
      <trkpt lat="40.1366730" lon="-4.3639370">
        <ele>494.1</ele>
        <time>2019-08-13T10:41:44Z</time>
      </trkpt>
      <trkpt lat="40.1367050" lon="-4.3639930">
        <ele>493.9</ele>
        <time>2019-08-13T10:41:45Z</time>
      </trkpt>
      <trkpt lat="40.1367430" lon="-4.3640360">
        <ele>493.8</ele>
        <time>2019-08-13T10:41:46Z</time>
      </trkpt>
      <trkpt lat="40.1367840" lon="-4.3640700">
        <ele>493.6</ele>
        <time>2019-08-13T10:41:47Z</time>
      </trkpt>
      <trkpt lat="40.1368220" lon="-4.3641040">
        <ele>493.6</ele>
        <time>2019-08-13T10:41:48Z</time>
      </trkpt>
      <trkpt lat="40.1368500" lon="-4.3641440">
        <ele>493.5</ele>
        <time>2019-08-13T10:41:49Z</time>
      </trkpt>
      <trkpt lat="40.1368700" lon="-4.3641930">
        <ele>493.5</ele>
        <time>2019-08-13T10:41:50Z</time>
      </trkpt>
      <trkpt lat="40.1368920" lon="-4.3642410">
        <ele>493.5</ele>
        <time>2019-08-13T10:41:51Z</time>
      </trkpt>
      <trkpt lat="40.1369190" lon="-4.3642800">
        <ele>493.4</ele>
        <time>2019-08-13T10:41:52Z</time>
      </trkpt>
      <trkpt lat="40.1369490" lon="-4.3643160">
        <ele>493.4</ele>
        <time>2019-08-13T10:41:53Z</time>
      </trkpt>
      <trkpt lat="40.1369810" lon="-4.3643520">
        <ele>493.4</ele>
        <time>2019-08-13T10:41:54Z</time>
      </trkpt>
      <trkpt lat="40.1370130" lon="-4.3643900">
        <ele>493.4</ele>
        <time>2019-08-13T10:41:55Z</time>
      </trkpt>
      <trkpt lat="40.1370380" lon="-4.3644310">
        <ele>493.4</ele>
        <time>2019-08-13T10:41:56Z</time>
      </trkpt>
      <trkpt lat="40.1370610" lon="-4.3644750">
        <ele>493.4</ele>
        <time>2019-08-13T10:41:57Z</time>
      </trkpt>
      <trkpt lat="40.1370860" lon="-4.3645170">
        <ele>493.4</ele>
        <time>2019-08-13T10:41:58Z</time>
      </trkpt>
      <trkpt lat="40.1371160" lon="-4.3645570">
        <ele>493.4</ele>
        <time>2019-08-13T10:41:59Z</time>
      </trkpt>
      <trkpt lat="40.1371470" lon="-4.3645940">
        <ele>493.3</ele>
        <time>2019-08-13T10:42:00Z</time>
      </trkpt>
      <trkpt lat="40.1371800" lon="-4.3646340">
        <ele>493.3</ele>
        <time>2019-08-13T10:42:01Z</time>
      </trkpt>
      <trkpt lat="40.1372160" lon="-4.3646790">
        <ele>493.2</ele>
        <time>2019-08-13T10:42:02Z</time>
      </trkpt>
      <trkpt lat="40.1372550" lon="-4.3647250">
        <ele>493.1</ele>
        <time>2019-08-13T10:42:03Z</time>
      </trkpt>
      <trkpt lat="40.1372930" lon="-4.3647740">
        <ele>493.0</ele>
        <time>2019-08-13T10:42:04Z</time>
      </trkpt>
      <trkpt lat="40.1373310" lon="-4.3648250">
        <ele>492.9</ele>
        <time>2019-08-13T10:42:05Z</time>
      </trkpt>
      <trkpt lat="40.1373710" lon="-4.3648750">
        <ele>492.7</ele>
        <time>2019-08-13T10:42:06Z</time>
      </trkpt>
      <trkpt lat="40.1374130" lon="-4.3649210">
        <ele>492.6</ele>
        <time>2019-08-13T10:42:07Z</time>
      </trkpt>
      <trkpt lat="40.1374590" lon="-4.3649630">
        <ele>492.5</ele>
        <time>2019-08-13T10:42:08Z</time>
      </trkpt>
      <trkpt lat="40.1375040" lon="-4.3650030">
        <ele>492.5</ele>
        <time>2019-08-13T10:42:09Z</time>
      </trkpt>
      <trkpt lat="40.1375440" lon="-4.3650410">
        <ele>492.5</ele>
        <time>2019-08-13T10:42:10Z</time>
      </trkpt>
      <trkpt lat="40.1375780" lon="-4.3650750">
        <ele>492.5</ele>
        <time>2019-08-13T10:42:11Z</time>
      </trkpt>
      <trkpt lat="40.1376140" lon="-4.3651020">
        <ele>492.5</ele>
        <time>2019-08-13T10:42:12Z</time>
      </trkpt>
      <trkpt lat="40.1376540" lon="-4.3651220">
        <ele>492.5</ele>
        <time>2019-08-13T10:42:13Z</time>
      </trkpt>
      <trkpt lat="40.1376960" lon="-4.3651410">
        <ele>492.5</ele>
        <time>2019-08-13T10:42:14Z</time>
      </trkpt>
      <trkpt lat="40.1377400" lon="-4.3651620">
        <ele>492.5</ele>
        <time>2019-08-13T10:42:15Z</time>
      </trkpt>
      <trkpt lat="40.1377840" lon="-4.3651920">
        <ele>492.5</ele>
        <time>2019-08-13T10:42:16Z</time>
      </trkpt>
      <trkpt lat="40.1378250" lon="-4.3652290">
        <ele>492.5</ele>
        <time>2019-08-13T10:42:17Z</time>
      </trkpt>
      <trkpt lat="40.1378660" lon="-4.3652680">
        <ele>492.5</ele>
        <time>2019-08-13T10:42:18Z</time>
      </trkpt>
      <trkpt lat="40.1379080" lon="-4.3653050">
        <ele>492.4</ele>
        <time>2019-08-13T10:42:19Z</time>
      </trkpt>
      <trkpt lat="40.1379520" lon="-4.3653400">
        <ele>492.4</ele>
        <time>2019-08-13T10:42:20Z</time>
      </trkpt>
      <trkpt lat="40.1379960" lon="-4.3653750">
        <ele>492.4</ele>
        <time>2019-08-13T10:42:21Z</time>
      </trkpt>
      <trkpt lat="40.1380420" lon="-4.3654090">
        <ele>492.4</ele>
        <time>2019-08-13T10:42:22Z</time>
      </trkpt>
      <trkpt lat="40.1380900" lon="-4.3654400">
        <ele>492.4</ele>
        <time>2019-08-13T10:42:23Z</time>
      </trkpt>
      <trkpt lat="40.1381370" lon="-4.3654690">
        <ele>492.3</ele>
        <time>2019-08-13T10:42:24Z</time>
      </trkpt>
      <trkpt lat="40.1381850" lon="-4.3654920">
        <ele>492.3</ele>
        <time>2019-08-13T10:42:25Z</time>
      </trkpt>
      <trkpt lat="40.1382340" lon="-4.3655120">
        <ele>492.2</ele>
        <time>2019-08-13T10:42:26Z</time>
      </trkpt>
      <trkpt lat="40.1382830" lon="-4.3655330">
        <ele>492.0</ele>
        <time>2019-08-13T10:42:27Z</time>
      </trkpt>
      <trkpt lat="40.1383320" lon="-4.3655580">
        <ele>491.9</ele>
        <time>2019-08-13T10:42:28Z</time>
      </trkpt>
      <trkpt lat="40.1383800" lon="-4.3655860">
        <ele>491.7</ele>
        <time>2019-08-13T10:42:29Z</time>
      </trkpt>
      <trkpt lat="40.1384300" lon="-4.3656120">
        <ele>491.5</ele>
        <time>2019-08-13T10:42:30Z</time>
      </trkpt>
      <trkpt lat="40.1384810" lon="-4.3656400">
        <ele>491.3</ele>
        <time>2019-08-13T10:42:31Z</time>
      </trkpt>
      <trkpt lat="40.1385330" lon="-4.3656680">
        <ele>491.1</ele>
        <time>2019-08-13T10:42:32Z</time>
      </trkpt>
      <trkpt lat="40.1385870" lon="-4.3656930">
        <ele>490.9</ele>
        <time>2019-08-13T10:42:33Z</time>
      </trkpt>
      <trkpt lat="40.1386440" lon="-4.3657190">
        <ele>490.6</ele>
        <time>2019-08-13T10:42:34Z</time>
      </trkpt>
      <trkpt lat="40.1387020" lon="-4.3657470">
        <ele>490.3</ele>
        <time>2019-08-13T10:42:35Z</time>
      </trkpt>
      <trkpt lat="40.1387610" lon="-4.3657760">
        <ele>490.1</ele>
        <time>2019-08-13T10:42:36Z</time>
      </trkpt>
      <trkpt lat="40.1388210" lon="-4.3658070">
        <ele>489.8</ele>
        <time>2019-08-13T10:42:37Z</time>
      </trkpt>
      <trkpt lat="40.1388820" lon="-4.3658400">
        <ele>489.5</ele>
        <time>2019-08-13T10:42:38Z</time>
      </trkpt>
      <trkpt lat="40.1389460" lon="-4.3658780">
        <ele>489.3</ele>
        <time>2019-08-13T10:42:39Z</time>
      </trkpt>
      <trkpt lat="40.1390080" lon="-4.3659240">
        <ele>488.9</ele>
        <time>2019-08-13T10:42:40Z</time>
      </trkpt>
      <trkpt lat="40.1390660" lon="-4.3659820">
        <ele>488.5</ele>
        <time>2019-08-13T10:42:41Z</time>
      </trkpt>
      <trkpt lat="40.1391190" lon="-4.3660460">
        <ele>488.1</ele>
        <time>2019-08-13T10:42:42Z</time>
      </trkpt>
      <trkpt lat="40.1391630" lon="-4.3661160">
        <ele>487.6</ele>
        <time>2019-08-13T10:42:43Z</time>
      </trkpt>
      <trkpt lat="40.1391990" lon="-4.3661900">
        <ele>487.2</ele>
        <time>2019-08-13T10:42:44Z</time>
      </trkpt>
      <trkpt lat="40.1392280" lon="-4.3662710">
        <ele>486.8</ele>
        <time>2019-08-13T10:42:45Z</time>
      </trkpt>
      <trkpt lat="40.1392530" lon="-4.3663510">
        <ele>486.6</ele>
        <time>2019-08-13T10:42:46Z</time>
      </trkpt>
      <trkpt lat="40.1392780" lon="-4.3664300">
        <ele>486.5</ele>
        <time>2019-08-13T10:42:47Z</time>
      </trkpt>
      <trkpt lat="40.1393040" lon="-4.3665050">
        <ele>486.5</ele>
        <time>2019-08-13T10:42:48Z</time>
      </trkpt>
      <trkpt lat="40.1393320" lon="-4.3665790">
        <ele>486.5</ele>
        <time>2019-08-13T10:42:49Z</time>
      </trkpt>
      <trkpt lat="40.1393600" lon="-4.3666530">
        <ele>486.5</ele>
        <time>2019-08-13T10:42:50Z</time>
      </trkpt>
      <trkpt lat="40.1393870" lon="-4.3667250">
        <ele>486.5</ele>
        <time>2019-08-13T10:42:51Z</time>
      </trkpt>
      <trkpt lat="40.1394130" lon="-4.3667970">
        <ele>486.5</ele>
        <time>2019-08-13T10:42:52Z</time>
      </trkpt>
      <trkpt lat="40.1394400" lon="-4.3668650">
        <ele>486.5</ele>
        <time>2019-08-13T10:42:53Z</time>
      </trkpt>
      <trkpt lat="40.1394690" lon="-4.3669310">
        <ele>486.5</ele>
        <time>2019-08-13T10:42:54Z</time>
      </trkpt>
      <trkpt lat="40.1394990" lon="-4.3669950">
        <ele>486.5</ele>
        <time>2019-08-13T10:42:55Z</time>
      </trkpt>
      <trkpt lat="40.1395300" lon="-4.3670530">
        <ele>486.5</ele>
        <time>2019-08-13T10:42:56Z</time>
      </trkpt>
      <trkpt lat="40.1395620" lon="-4.3671030">
        <ele>486.5</ele>
        <time>2019-08-13T10:42:57Z</time>
      </trkpt>
      <trkpt lat="40.1395960" lon="-4.3671470">
        <ele>486.5</ele>
        <time>2019-08-13T10:42:58Z</time>
      </trkpt>
      <trkpt lat="40.1396280" lon="-4.3671910">
        <ele>486.5</ele>
        <time>2019-08-13T10:42:59Z</time>
      </trkpt>
      <trkpt lat="40.1396560" lon="-4.3672370">
        <ele>486.5</ele>
        <time>2019-08-13T10:43:00Z</time>
      </trkpt>
      <trkpt lat="40.1396830" lon="-4.3672840">
        <ele>486.5</ele>
        <time>2019-08-13T10:43:01Z</time>
      </trkpt>
      <trkpt lat="40.1397080" lon="-4.3673320">
        <ele>486.5</ele>
        <time>2019-08-13T10:43:02Z</time>
      </trkpt>
      <trkpt lat="40.1397300" lon="-4.3673810">
        <ele>486.5</ele>
        <time>2019-08-13T10:43:03Z</time>
      </trkpt>
      <trkpt lat="40.1397480" lon="-4.3674320">
        <ele>486.5</ele>
        <time>2019-08-13T10:43:04Z</time>
      </trkpt>
      <trkpt lat="40.1397610" lon="-4.3674840">
        <ele>486.5</ele>
        <time>2019-08-13T10:43:05Z</time>
      </trkpt>
      <trkpt lat="40.1397700" lon="-4.3675350">
        <ele>486.4</ele>
        <time>2019-08-13T10:43:06Z</time>
      </trkpt>
      <trkpt lat="40.1397750" lon="-4.3675880">
        <ele>486.4</ele>
        <time>2019-08-13T10:43:07Z</time>
      </trkpt>
      <trkpt lat="40.1397770" lon="-4.3676440">
        <ele>486.3</ele>
        <time>2019-08-13T10:43:08Z</time>
      </trkpt>
      <trkpt lat="40.1397780" lon="-4.3677040">
        <ele>486.2</ele>
        <time>2019-08-13T10:43:09Z</time>
      </trkpt>
      <trkpt lat="40.1397810" lon="-4.3677700">
        <ele>486.1</ele>
        <time>2019-08-13T10:43:10Z</time>
      </trkpt>
      <trkpt lat="40.1397870" lon="-4.3678430">
        <ele>485.8</ele>
        <time>2019-08-13T10:43:11Z</time>
      </trkpt>
      <trkpt lat="40.1397950" lon="-4.3679260">
        <ele>485.5</ele>
        <time>2019-08-13T10:43:12Z</time>
      </trkpt>
      <trkpt lat="40.1398040" lon="-4.3680160">
        <ele>485.2</ele>
        <time>2019-08-13T10:43:13Z</time>
      </trkpt>
      <trkpt lat="40.1398180" lon="-4.3681110">
        <ele>484.9</ele>
        <time>2019-08-13T10:43:14Z</time>
      </trkpt>
      <trkpt lat="40.1398330" lon="-4.3682020">
        <ele>484.7</ele>
        <time>2019-08-13T10:43:15Z</time>
      </trkpt>
      <trkpt lat="40.1398490" lon="-4.3682850">
        <ele>484.6</ele>
        <time>2019-08-13T10:43:16Z</time>
      </trkpt>
      <trkpt lat="40.1398750" lon="-4.3683550">
        <ele>484.5</ele>
        <time>2019-08-13T10:43:17Z</time>
      </trkpt>
      <trkpt lat="40.1399100" lon="-4.3684130">
        <ele>484.4</ele>
        <time>2019-08-13T10:43:18Z</time>
      </trkpt>
      <trkpt lat="40.1399480" lon="-4.3684640">
        <ele>484.4</ele>
        <time>2019-08-13T10:43:19Z</time>
      </trkpt>
      <trkpt lat="40.1399790" lon="-4.3685130">
        <ele>484.3</ele>
        <time>2019-08-13T10:43:20Z</time>
      </trkpt>
      <trkpt lat="40.1400070" lon="-4.3685610">
        <ele>484.2</ele>
        <time>2019-08-13T10:43:21Z</time>
      </trkpt>
      <trkpt lat="40.1400330" lon="-4.3686100">
        <ele>484.1</ele>
        <time>2019-08-13T10:43:22Z</time>
      </trkpt>
      <trkpt lat="40.1400570" lon="-4.3686600">
        <ele>483.9</ele>
        <time>2019-08-13T10:43:23Z</time>
      </trkpt>
      <trkpt lat="40.1400800" lon="-4.3687130">
        <ele>483.8</ele>
        <time>2019-08-13T10:43:24Z</time>
      </trkpt>
      <trkpt lat="40.1401010" lon="-4.3687700">
        <ele>483.6</ele>
        <time>2019-08-13T10:43:25Z</time>
      </trkpt>
      <trkpt lat="40.1401220" lon="-4.3688310">
        <ele>483.4</ele>
        <time>2019-08-13T10:43:26Z</time>
      </trkpt>
      <trkpt lat="40.1401420" lon="-4.3688950">
        <ele>483.2</ele>
        <time>2019-08-13T10:43:27Z</time>
      </trkpt>
      <trkpt lat="40.1401610" lon="-4.3689620">
        <ele>483.0</ele>
        <time>2019-08-13T10:43:28Z</time>
      </trkpt>
      <trkpt lat="40.1401780" lon="-4.3690330">
        <ele>482.8</ele>
        <time>2019-08-13T10:43:29Z</time>
      </trkpt>
      <trkpt lat="40.1401950" lon="-4.3691040">
        <ele>482.6</ele>
        <time>2019-08-13T10:43:30Z</time>
      </trkpt>
      <trkpt lat="40.1402150" lon="-4.3691760">
        <ele>482.5</ele>
        <time>2019-08-13T10:43:31Z</time>
      </trkpt>
      <trkpt lat="40.1402350" lon="-4.3692510">
        <ele>482.3</ele>
        <time>2019-08-13T10:43:32Z</time>
      </trkpt>
      <trkpt lat="40.1402580" lon="-4.3693250">
        <ele>482.1</ele>
        <time>2019-08-13T10:43:33Z</time>
      </trkpt>
      <trkpt lat="40.1402810" lon="-4.3693990">
        <ele>481.8</ele>
        <time>2019-08-13T10:43:34Z</time>
      </trkpt>
      <trkpt lat="40.1403070" lon="-4.3694730">
        <ele>481.6</ele>
        <time>2019-08-13T10:43:35Z</time>
      </trkpt>
      <trkpt lat="40.1403340" lon="-4.3695460">
        <ele>481.3</ele>
        <time>2019-08-13T10:43:36Z</time>
      </trkpt>
      <trkpt lat="40.1403630" lon="-4.3696190">
        <ele>481.0</ele>
        <time>2019-08-13T10:43:37Z</time>
      </trkpt>
      <trkpt lat="40.1403950" lon="-4.3696910">
        <ele>480.8</ele>
        <time>2019-08-13T10:43:38Z</time>
      </trkpt>
      <trkpt lat="40.1404300" lon="-4.3697630">
        <ele>480.6</ele>
        <time>2019-08-13T10:43:39Z</time>
      </trkpt>
      <trkpt lat="40.1404670" lon="-4.3698330">
        <ele>480.4</ele>
        <time>2019-08-13T10:43:40Z</time>
      </trkpt>
      <trkpt lat="40.1405100" lon="-4.3699000">
        <ele>480.3</ele>
        <time>2019-08-13T10:43:41Z</time>
      </trkpt>
      <trkpt lat="40.1405550" lon="-4.3699620">
        <ele>480.1</ele>
        <time>2019-08-13T10:43:42Z</time>
      </trkpt>
      <trkpt lat="40.1406040" lon="-4.3700210">
        <ele>479.9</ele>
        <time>2019-08-13T10:43:43Z</time>
      </trkpt>
      <trkpt lat="40.1406510" lon="-4.3700790">
        <ele>479.7</ele>
        <time>2019-08-13T10:43:44Z</time>
      </trkpt>
      <trkpt lat="40.1406990" lon="-4.3701370">
        <ele>479.6</ele>
        <time>2019-08-13T10:43:45Z</time>
      </trkpt>
      <trkpt lat="40.1407440" lon="-4.3701980">
        <ele>479.5</ele>
        <time>2019-08-13T10:43:46Z</time>
      </trkpt>
      <trkpt lat="40.1407860" lon="-4.3702600">
        <ele>479.4</ele>
        <time>2019-08-13T10:43:47Z</time>
      </trkpt>
      <trkpt lat="40.1408260" lon="-4.3703250">
        <ele>479.3</ele>
        <time>2019-08-13T10:43:48Z</time>
      </trkpt>
      <trkpt lat="40.1408650" lon="-4.3703910">
        <ele>479.2</ele>
        <time>2019-08-13T10:43:49Z</time>
      </trkpt>
      <trkpt lat="40.1409030" lon="-4.3704560">
        <ele>479.1</ele>
        <time>2019-08-13T10:43:50Z</time>
      </trkpt>
      <trkpt lat="40.1409410" lon="-4.3705220">
        <ele>478.9</ele>
        <time>2019-08-13T10:43:51Z</time>
      </trkpt>
      <trkpt lat="40.1409800" lon="-4.3705860">
        <ele>478.7</ele>
        <time>2019-08-13T10:43:52Z</time>
      </trkpt>
      <trkpt lat="40.1410190" lon="-4.3706490">
        <ele>478.6</ele>
        <time>2019-08-13T10:43:53Z</time>
      </trkpt>
      <trkpt lat="40.1410600" lon="-4.3707120">
        <ele>478.4</ele>
        <time>2019-08-13T10:43:54Z</time>
      </trkpt>
      <trkpt lat="40.1411010" lon="-4.3707730">
        <ele>478.2</ele>
        <time>2019-08-13T10:43:55Z</time>
      </trkpt>
      <trkpt lat="40.1411440" lon="-4.3708280">
        <ele>478.1</ele>
        <time>2019-08-13T10:43:56Z</time>
      </trkpt>
      <trkpt lat="40.1411920" lon="-4.3708800">
        <ele>477.9</ele>
        <time>2019-08-13T10:43:57Z</time>
      </trkpt>
      <trkpt lat="40.1412390" lon="-4.3709320">
        <ele>477.8</ele>
        <time>2019-08-13T10:43:58Z</time>
      </trkpt>
      <trkpt lat="40.1412830" lon="-4.3709850">
        <ele>477.7</ele>
        <time>2019-08-13T10:43:59Z</time>
      </trkpt>
      <trkpt lat="40.1413250" lon="-4.3710420">
        <ele>477.6</ele>
        <time>2019-08-13T10:44:00Z</time>
      </trkpt>
      <trkpt lat="40.1413660" lon="-4.3710980">
        <ele>477.6</ele>
        <time>2019-08-13T10:44:01Z</time>
      </trkpt>
      <trkpt lat="40.1414070" lon="-4.3711560">
        <ele>477.5</ele>
        <time>2019-08-13T10:44:02Z</time>
      </trkpt>
      <trkpt lat="40.1414460" lon="-4.3712160">
        <ele>477.5</ele>
        <time>2019-08-13T10:44:03Z</time>
      </trkpt>
      <trkpt lat="40.1414830" lon="-4.3712770">
        <ele>477.5</ele>
        <time>2019-08-13T10:44:04Z</time>
      </trkpt>
      <trkpt lat="40.1415190" lon="-4.3713400">
        <ele>477.4</ele>
        <time>2019-08-13T10:44:05Z</time>
      </trkpt>
      <trkpt lat="40.1415550" lon="-4.3714020">
        <ele>477.3</ele>
        <time>2019-08-13T10:44:06Z</time>
      </trkpt>
      <trkpt lat="40.1415900" lon="-4.3714630">
        <ele>477.1</ele>
        <time>2019-08-13T10:44:07Z</time>
      </trkpt>
      <trkpt lat="40.1416260" lon="-4.3715260">
        <ele>477.0</ele>
        <time>2019-08-13T10:44:08Z</time>
      </trkpt>
      <trkpt lat="40.1416640" lon="-4.3715900">
        <ele>476.7</ele>
        <time>2019-08-13T10:44:09Z</time>
      </trkpt>
      <trkpt lat="40.1417020" lon="-4.3716500">
        <ele>476.5</ele>
        <time>2019-08-13T10:44:10Z</time>
      </trkpt>
      <trkpt lat="40.1417420" lon="-4.3717080">
        <ele>476.3</ele>
        <time>2019-08-13T10:44:11Z</time>
      </trkpt>
      <trkpt lat="40.1417830" lon="-4.3717650">
        <ele>476.1</ele>
        <time>2019-08-13T10:44:12Z</time>
      </trkpt>
      <trkpt lat="40.1418220" lon="-4.3718210">
        <ele>475.9</ele>
        <time>2019-08-13T10:44:13Z</time>
      </trkpt>
      <trkpt lat="40.1418600" lon="-4.3718790">
        <ele>475.6</ele>
        <time>2019-08-13T10:44:14Z</time>
      </trkpt>
      <trkpt lat="40.1418960" lon="-4.3719420">
        <ele>475.4</ele>
        <time>2019-08-13T10:44:15Z</time>
      </trkpt>
      <trkpt lat="40.1419320" lon="-4.3720080">
        <ele>475.2</ele>
        <time>2019-08-13T10:44:16Z</time>
      </trkpt>
      <trkpt lat="40.1419650" lon="-4.3720750">
        <ele>475.0</ele>
        <time>2019-08-13T10:44:17Z</time>
      </trkpt>
      <trkpt lat="40.1419970" lon="-4.3721420">
        <ele>474.9</ele>
        <time>2019-08-13T10:44:18Z</time>
      </trkpt>
      <trkpt lat="40.1420270" lon="-4.3722100">
        <ele>474.7</ele>
        <time>2019-08-13T10:44:19Z</time>
      </trkpt>
      <trkpt lat="40.1420540" lon="-4.3722770">
        <ele>474.6</ele>
        <time>2019-08-13T10:44:20Z</time>
      </trkpt>
      <trkpt lat="40.1420770" lon="-4.3723430">
        <ele>474.6</ele>
        <time>2019-08-13T10:44:21Z</time>
      </trkpt>
      <trkpt lat="40.1420970" lon="-4.3724100">
        <ele>474.5</ele>
        <time>2019-08-13T10:44:22Z</time>
      </trkpt>
      <trkpt lat="40.1421140" lon="-4.3724730">
        <ele>474.5</ele>
        <time>2019-08-13T10:44:23Z</time>
      </trkpt>
      <trkpt lat="40.1421320" lon="-4.3725350">
        <ele>474.5</ele>
        <time>2019-08-13T10:44:24Z</time>
      </trkpt>
      <trkpt lat="40.1421510" lon="-4.3725940">
        <ele>474.5</ele>
        <time>2019-08-13T10:44:25Z</time>
      </trkpt>
      <trkpt lat="40.1421710" lon="-4.3726520">
        <ele>474.4</ele>
        <time>2019-08-13T10:44:26Z</time>
      </trkpt>
      <trkpt lat="40.1421900" lon="-4.3727100">
        <ele>474.4</ele>
        <time>2019-08-13T10:44:27Z</time>
      </trkpt>
      <trkpt lat="40.1422100" lon="-4.3727680">
        <ele>474.3</ele>
        <time>2019-08-13T10:44:28Z</time>
      </trkpt>
      <trkpt lat="40.1422270" lon="-4.3728250">
        <ele>474.1</ele>
        <time>2019-08-13T10:44:29Z</time>
      </trkpt>
      <trkpt lat="40.1422450" lon="-4.3728800">
        <ele>474.0</ele>
        <time>2019-08-13T10:44:30Z</time>
      </trkpt>
      <trkpt lat="40.1422650" lon="-4.3729330">
        <ele>473.9</ele>
        <time>2019-08-13T10:44:31Z</time>
      </trkpt>
      <trkpt lat="40.1422880" lon="-4.3729850">
        <ele>473.7</ele>
        <time>2019-08-13T10:44:32Z</time>
      </trkpt>
      <trkpt lat="40.1423130" lon="-4.3730390">
        <ele>473.6</ele>
        <time>2019-08-13T10:44:33Z</time>
      </trkpt>
      <trkpt lat="40.1423420" lon="-4.3730920">
        <ele>473.5</ele>
        <time>2019-08-13T10:44:34Z</time>
      </trkpt>
      <trkpt lat="40.1423780" lon="-4.3731420">
        <ele>473.3</ele>
        <time>2019-08-13T10:44:35Z</time>
      </trkpt>
      <trkpt lat="40.1424200" lon="-4.3731860">
        <ele>473.1</ele>
        <time>2019-08-13T10:44:36Z</time>
      </trkpt>
      <trkpt lat="40.1424660" lon="-4.3732240">
        <ele>472.8</ele>
        <time>2019-08-13T10:44:37Z</time>
      </trkpt>
      <trkpt lat="40.1425120" lon="-4.3732610">
        <ele>472.6</ele>
        <time>2019-08-13T10:44:38Z</time>
      </trkpt>
      <trkpt lat="40.1425570" lon="-4.3733020">
        <ele>472.3</ele>
        <time>2019-08-13T10:44:39Z</time>
      </trkpt>
      <trkpt lat="40.1425990" lon="-4.3733500">
        <ele>472.1</ele>
        <time>2019-08-13T10:44:40Z</time>
      </trkpt>
      <trkpt lat="40.1426360" lon="-4.3734030">
        <ele>472.0</ele>
        <time>2019-08-13T10:44:41Z</time>
      </trkpt>
      <trkpt lat="40.1426730" lon="-4.3734570">
        <ele>471.8</ele>
        <time>2019-08-13T10:44:42Z</time>
      </trkpt>
      <trkpt lat="40.1427070" lon="-4.3735110">
        <ele>471.7</ele>
        <time>2019-08-13T10:44:43Z</time>
      </trkpt>
      <trkpt lat="40.1427360" lon="-4.3735670">
        <ele>471.6</ele>
        <time>2019-08-13T10:44:44Z</time>
      </trkpt>
      <trkpt lat="40.1427640" lon="-4.3736240">
        <ele>471.6</ele>
        <time>2019-08-13T10:44:45Z</time>
      </trkpt>
      <trkpt lat="40.1427900" lon="-4.3736840">
        <ele>471.6</ele>
        <time>2019-08-13T10:44:46Z</time>
      </trkpt>
      <trkpt lat="40.1428160" lon="-4.3737440">
        <ele>471.6</ele>
        <time>2019-08-13T10:44:47Z</time>
      </trkpt>
      <trkpt lat="40.1428410" lon="-4.3738040">
        <ele>471.5</ele>
        <time>2019-08-13T10:44:48Z</time>
      </trkpt>
      <trkpt lat="40.1428650" lon="-4.3738620">
        <ele>471.5</ele>
        <time>2019-08-13T10:44:49Z</time>
      </trkpt>
      <trkpt lat="40.1428880" lon="-4.3739160">
        <ele>471.5</ele>
        <time>2019-08-13T10:44:50Z</time>
      </trkpt>
      <trkpt lat="40.1429110" lon="-4.3739610">
        <ele>471.4</ele>
        <time>2019-08-13T10:44:51Z</time>
      </trkpt>
      <trkpt lat="40.1429340" lon="-4.3740050">
        <ele>471.4</ele>
        <time>2019-08-13T10:44:52Z</time>
      </trkpt>
      <trkpt lat="40.1429570" lon="-4.3740490">
        <ele>471.2</ele>
        <time>2019-08-13T10:44:53Z</time>
      </trkpt>
      <trkpt lat="40.1429830" lon="-4.3740960">
        <ele>471.1</ele>
        <time>2019-08-13T10:44:54Z</time>
      </trkpt>
      <trkpt lat="40.1430110" lon="-4.3741460">
        <ele>470.9</ele>
        <time>2019-08-13T10:44:55Z</time>
      </trkpt>
      <trkpt lat="40.1430420" lon="-4.3742020">
        <ele>470.6</ele>
        <time>2019-08-13T10:44:56Z</time>
      </trkpt>
      <trkpt lat="40.1430740" lon="-4.3742610">
        <ele>470.2</ele>
        <time>2019-08-13T10:44:57Z</time>
      </trkpt>
      <trkpt lat="40.1431100" lon="-4.3743250">
        <ele>469.8</ele>
        <time>2019-08-13T10:44:58Z</time>
      </trkpt>
      <trkpt lat="40.1431490" lon="-4.3743900">
        <ele>469.4</ele>
        <time>2019-08-13T10:44:59Z</time>
      </trkpt>
      <trkpt lat="40.1431930" lon="-4.3744530">
        <ele>468.9</ele>
        <time>2019-08-13T10:45:00Z</time>
      </trkpt>
      <trkpt lat="40.1432420" lon="-4.3745080">
        <ele>468.6</ele>
        <time>2019-08-13T10:45:01Z</time>
      </trkpt>
      <trkpt lat="40.1432940" lon="-4.3745560">
        <ele>468.6</ele>
        <time>2019-08-13T10:45:02Z</time>
      </trkpt>
      <trkpt lat="40.1433450" lon="-4.3745990">
        <ele>468.6</ele>
        <time>2019-08-13T10:45:03Z</time>
      </trkpt>
      <trkpt lat="40.1433930" lon="-4.3746380">
        <ele>468.6</ele>
        <time>2019-08-13T10:45:04Z</time>
      </trkpt>
      <trkpt lat="40.1434400" lon="-4.3746720">
        <ele>468.6</ele>
        <time>2019-08-13T10:45:05Z</time>
      </trkpt>
      <trkpt lat="40.1434840" lon="-4.3747060">
        <ele>468.6</ele>
        <time>2019-08-13T10:45:06Z</time>
      </trkpt>
      <trkpt lat="40.1435270" lon="-4.3747400">
        <ele>468.6</ele>
        <time>2019-08-13T10:45:07Z</time>
      </trkpt>
      <trkpt lat="40.1435680" lon="-4.3747750">
        <ele>468.6</ele>
        <time>2019-08-13T10:45:08Z</time>
      </trkpt>
      <trkpt lat="40.1436070" lon="-4.3748130">
        <ele>468.6</ele>
        <time>2019-08-13T10:45:09Z</time>
      </trkpt>
      <trkpt lat="40.1436430" lon="-4.3748560">
        <ele>468.6</ele>
        <time>2019-08-13T10:45:10Z</time>
      </trkpt>
      <trkpt lat="40.1436780" lon="-4.3749010">
        <ele>468.7</ele>
        <time>2019-08-13T10:45:11Z</time>
      </trkpt>
      <trkpt lat="40.1437120" lon="-4.3749480">
        <ele>468.7</ele>
        <time>2019-08-13T10:45:12Z</time>
      </trkpt>
      <trkpt lat="40.1437450" lon="-4.3749960">
        <ele>468.7</ele>
        <time>2019-08-13T10:45:13Z</time>
      </trkpt>
      <trkpt lat="40.1437780" lon="-4.3750440">
        <ele>468.8</ele>
        <time>2019-08-13T10:45:14Z</time>
      </trkpt>
      <trkpt lat="40.1438120" lon="-4.3750910">
        <ele>468.8</ele>
        <time>2019-08-13T10:45:15Z</time>
      </trkpt>
      <trkpt lat="40.1438460" lon="-4.3751400">
        <ele>468.8</ele>
        <time>2019-08-13T10:45:16Z</time>
      </trkpt>
      <trkpt lat="40.1438790" lon="-4.3751890">
        <ele>468.9</ele>
        <time>2019-08-13T10:45:17Z</time>
      </trkpt>
      <trkpt lat="40.1439130" lon="-4.3752360">
        <ele>468.9</ele>
        <time>2019-08-13T10:45:18Z</time>
      </trkpt>
      <trkpt lat="40.1439460" lon="-4.3752840">
        <ele>468.9</ele>
        <time>2019-08-13T10:45:19Z</time>
      </trkpt>
      <trkpt lat="40.1439780" lon="-4.3753340">
        <ele>468.9</ele>
        <time>2019-08-13T10:45:20Z</time>
      </trkpt>
      <trkpt lat="40.1440100" lon="-4.3753820">
        <ele>469.0</ele>
        <time>2019-08-13T10:45:21Z</time>
      </trkpt>
      <trkpt lat="40.1440430" lon="-4.3754290">
        <ele>469.0</ele>
        <time>2019-08-13T10:45:22Z</time>
      </trkpt>
      <trkpt lat="40.1440750" lon="-4.3754780">
        <ele>469.0</ele>
        <time>2019-08-13T10:45:23Z</time>
      </trkpt>
      <trkpt lat="40.1441050" lon="-4.3755260">
        <ele>469.0</ele>
        <time>2019-08-13T10:45:24Z</time>
      </trkpt>
      <trkpt lat="40.1441340" lon="-4.3755750">
        <ele>469.0</ele>
        <time>2019-08-13T10:45:25Z</time>
      </trkpt>
      <trkpt lat="40.1441630" lon="-4.3756240">
        <ele>469.1</ele>
        <time>2019-08-13T10:45:26Z</time>
      </trkpt>
      <trkpt lat="40.1441910" lon="-4.3756730">
        <ele>469.1</ele>
        <time>2019-08-13T10:45:27Z</time>
      </trkpt>
      <trkpt lat="40.1442170" lon="-4.3757230">
        <ele>469.1</ele>
        <time>2019-08-13T10:45:28Z</time>
      </trkpt>
      <trkpt lat="40.1442430" lon="-4.3757710">
        <ele>469.1</ele>
        <time>2019-08-13T10:45:29Z</time>
      </trkpt>
      <trkpt lat="40.1442700" lon="-4.3758190">
        <ele>469.2</ele>
        <time>2019-08-13T10:45:30Z</time>
      </trkpt>
      <trkpt lat="40.1442970" lon="-4.3758650">
        <ele>469.2</ele>
        <time>2019-08-13T10:45:31Z</time>
      </trkpt>
      <trkpt lat="40.1443250" lon="-4.3759110">
        <ele>469.2</ele>
        <time>2019-08-13T10:45:32Z</time>
      </trkpt>
      <trkpt lat="40.1443520" lon="-4.3759560">
        <ele>469.2</ele>
        <time>2019-08-13T10:45:33Z</time>
      </trkpt>
      <trkpt lat="40.1443780" lon="-4.3759990">
        <ele>469.3</ele>
        <time>2019-08-13T10:45:34Z</time>
      </trkpt>
      <trkpt lat="40.1444020" lon="-4.3760400">
        <ele>469.3</ele>
        <time>2019-08-13T10:45:35Z</time>
      </trkpt>
      <trkpt lat="40.1444250" lon="-4.3760820">
        <ele>469.3</ele>
        <time>2019-08-13T10:45:36Z</time>
      </trkpt>
      <trkpt lat="40.1444480" lon="-4.3761230">
        <ele>469.3</ele>
        <time>2019-08-13T10:45:37Z</time>
      </trkpt>
      <trkpt lat="40.1444680" lon="-4.3761640">
        <ele>469.3</ele>
        <time>2019-08-13T10:45:38Z</time>
      </trkpt>
      <trkpt lat="40.1444870" lon="-4.3762030">
        <ele>469.4</ele>
        <time>2019-08-13T10:45:39Z</time>
      </trkpt>
      <trkpt lat="40.1445060" lon="-4.3762410">
        <ele>469.4</ele>
        <time>2019-08-13T10:45:40Z</time>
      </trkpt>
      <trkpt lat="40.1445240" lon="-4.3762760">
        <ele>469.4</ele>
        <time>2019-08-13T10:45:41Z</time>
      </trkpt>
      <trkpt lat="40.1445410" lon="-4.3763100">
        <ele>469.4</ele>
        <time>2019-08-13T10:45:42Z</time>
      </trkpt>
      <trkpt lat="40.1445570" lon="-4.3763440">
        <ele>469.4</ele>
        <time>2019-08-13T10:45:43Z</time>
      </trkpt>
      <trkpt lat="40.1445740" lon="-4.3763780">
        <ele>469.4</ele>
        <time>2019-08-13T10:45:44Z</time>
      </trkpt>
      <trkpt lat="40.1445910" lon="-4.3764120">
        <ele>469.5</ele>
        <time>2019-08-13T10:45:45Z</time>
      </trkpt>
      <trkpt lat="40.1446080" lon="-4.3764450">
        <ele>469.5</ele>
        <time>2019-08-13T10:45:46Z</time>
      </trkpt>
      <trkpt lat="40.1446240" lon="-4.3764760">
        <ele>469.5</ele>
        <time>2019-08-13T10:45:47Z</time>
      </trkpt>
      <trkpt lat="40.1446490" lon="-4.3765350">
        <ele>469.5</ele>
        <time>2019-08-13T10:45:49Z</time>
      </trkpt>
      <trkpt lat="40.1446590" lon="-4.3765680">
        <ele>469.5</ele>
        <time>2019-08-13T10:45:52Z</time>
      </trkpt>
      <trkpt lat="40.1446850" lon="-4.3766310">
        <ele>469.6</ele>
        <time>2019-08-13T10:47:24Z</time>
      </trkpt>
      <trkpt lat="40.1446980" lon="-4.3766620">
        <ele>469.6</ele>
        <time>2019-08-13T10:47:25Z</time>
      </trkpt>
      <trkpt lat="40.1447120" lon="-4.3766940">
        <ele>469.6</ele>
        <time>2019-08-13T10:47:26Z</time>
      </trkpt>
      <trkpt lat="40.1447280" lon="-4.3767290">
        <ele>469.6</ele>
        <time>2019-08-13T10:47:27Z</time>
      </trkpt>
      <trkpt lat="40.1447460" lon="-4.3767670">
        <ele>469.6</ele>
        <time>2019-08-13T10:47:28Z</time>
      </trkpt>
      <trkpt lat="40.1447620" lon="-4.3768090">
        <ele>469.7</ele>
        <time>2019-08-13T10:47:29Z</time>
      </trkpt>
      <trkpt lat="40.1447790" lon="-4.3768500">
        <ele>469.7</ele>
        <time>2019-08-13T10:47:30Z</time>
      </trkpt>
      <trkpt lat="40.1447980" lon="-4.3768940">
        <ele>469.7</ele>
        <time>2019-08-13T10:47:31Z</time>
      </trkpt>
      <trkpt lat="40.1448150" lon="-4.3769390">
        <ele>469.7</ele>
        <time>2019-08-13T10:47:32Z</time>
      </trkpt>
      <trkpt lat="40.1448320" lon="-4.3769860">
        <ele>469.7</ele>
        <time>2019-08-13T10:47:33Z</time>
      </trkpt>
      <trkpt lat="40.1448500" lon="-4.3770350">
        <ele>469.7</ele>
        <time>2019-08-13T10:47:34Z</time>
      </trkpt>
      <trkpt lat="40.1448660" lon="-4.3770860">
        <ele>469.8</ele>
        <time>2019-08-13T10:47:35Z</time>
      </trkpt>
      <trkpt lat="40.1448830" lon="-4.3771370">
        <ele>469.8</ele>
        <time>2019-08-13T10:47:36Z</time>
      </trkpt>
      <trkpt lat="40.1449020" lon="-4.3771870">
        <ele>469.8</ele>
        <time>2019-08-13T10:47:37Z</time>
      </trkpt>
      <trkpt lat="40.1449200" lon="-4.3772380">
        <ele>469.8</ele>
        <time>2019-08-13T10:47:38Z</time>
      </trkpt>
      <trkpt lat="40.1449410" lon="-4.3772890">
        <ele>469.8</ele>
        <time>2019-08-13T10:47:39Z</time>
      </trkpt>
      <trkpt lat="40.1449630" lon="-4.3773400">
        <ele>469.9</ele>
        <time>2019-08-13T10:47:40Z</time>
      </trkpt>
      <trkpt lat="40.1449850" lon="-4.3773920">
        <ele>469.9</ele>
        <time>2019-08-13T10:47:41Z</time>
      </trkpt>
      <trkpt lat="40.1450070" lon="-4.3774460">
        <ele>469.9</ele>
        <time>2019-08-13T10:47:42Z</time>
      </trkpt>
      <trkpt lat="40.1450290" lon="-4.3774990">
        <ele>469.9</ele>
        <time>2019-08-13T10:47:43Z</time>
      </trkpt>
      <trkpt lat="40.1450520" lon="-4.3775530">
        <ele>470.0</ele>
        <time>2019-08-13T10:47:44Z</time>
      </trkpt>
      <trkpt lat="40.1450750" lon="-4.3776080">
        <ele>470.0</ele>
        <time>2019-08-13T10:47:45Z</time>
      </trkpt>
      <trkpt lat="40.1450970" lon="-4.3776650">
        <ele>470.0</ele>
        <time>2019-08-13T10:47:46Z</time>
      </trkpt>
      <trkpt lat="40.1451200" lon="-4.3777220">
        <ele>470.1</ele>
        <time>2019-08-13T10:47:47Z</time>
      </trkpt>
      <trkpt lat="40.1451440" lon="-4.3777800">
        <ele>470.1</ele>
        <time>2019-08-13T10:47:48Z</time>
      </trkpt>
      <trkpt lat="40.1451690" lon="-4.3778390">
        <ele>470.1</ele>
        <time>2019-08-13T10:47:49Z</time>
      </trkpt>
      <trkpt lat="40.1451940" lon="-4.3778980">
        <ele>470.2</ele>
        <time>2019-08-13T10:47:50Z</time>
      </trkpt>
      <trkpt lat="40.1452190" lon="-4.3779610">
        <ele>470.2</ele>
        <time>2019-08-13T10:47:51Z</time>
      </trkpt>
      <trkpt lat="40.1452410" lon="-4.3780260">
        <ele>470.2</ele>
        <time>2019-08-13T10:47:52Z</time>
      </trkpt>
      <trkpt lat="40.1452620" lon="-4.3780910">
        <ele>470.3</ele>
        <time>2019-08-13T10:47:53Z</time>
      </trkpt>
      <trkpt lat="40.1452820" lon="-4.3781560">
        <ele>470.3</ele>
        <time>2019-08-13T10:47:54Z</time>
      </trkpt>
      <trkpt lat="40.1453010" lon="-4.3782220">
        <ele>470.4</ele>
        <time>2019-08-13T10:47:55Z</time>
      </trkpt>
      <trkpt lat="40.1453220" lon="-4.3782860">
        <ele>470.5</ele>
        <time>2019-08-13T10:47:56Z</time>
      </trkpt>
      <trkpt lat="40.1453430" lon="-4.3783520">
        <ele>470.6</ele>
        <time>2019-08-13T10:47:57Z</time>
      </trkpt>
      <trkpt lat="40.1453620" lon="-4.3784150">
        <ele>470.6</ele>
        <time>2019-08-13T10:47:58Z</time>
      </trkpt>
      <trkpt lat="40.1453810" lon="-4.3784780">
        <ele>470.7</ele>
        <time>2019-08-13T10:47:59Z</time>
      </trkpt>
      <trkpt lat="40.1453980" lon="-4.3785410">
        <ele>470.8</ele>
        <time>2019-08-13T10:48:00Z</time>
      </trkpt>
      <trkpt lat="40.1454150" lon="-4.3786030">
        <ele>470.8</ele>
        <time>2019-08-13T10:48:01Z</time>
      </trkpt>
      <trkpt lat="40.1454310" lon="-4.3786650">
        <ele>470.9</ele>
        <time>2019-08-13T10:48:02Z</time>
      </trkpt>
      <trkpt lat="40.1454490" lon="-4.3787260">
        <ele>471.0</ele>
        <time>2019-08-13T10:48:03Z</time>
      </trkpt>
      <trkpt lat="40.1454680" lon="-4.3787870">
        <ele>471.0</ele>
        <time>2019-08-13T10:48:04Z</time>
      </trkpt>
      <trkpt lat="40.1454870" lon="-4.3788480">
        <ele>471.0</ele>
        <time>2019-08-13T10:48:05Z</time>
      </trkpt>
      <trkpt lat="40.1455060" lon="-4.3789100">
        <ele>471.1</ele>
        <time>2019-08-13T10:48:06Z</time>
      </trkpt>
      <trkpt lat="40.1455230" lon="-4.3789700">
        <ele>471.1</ele>
        <time>2019-08-13T10:48:07Z</time>
      </trkpt>
      <trkpt lat="40.1455410" lon="-4.3790320">
        <ele>471.1</ele>
        <time>2019-08-13T10:48:08Z</time>
      </trkpt>
      <trkpt lat="40.1455600" lon="-4.3790930">
        <ele>471.0</ele>
        <time>2019-08-13T10:48:09Z</time>
      </trkpt>
      <trkpt lat="40.1455810" lon="-4.3791530">
        <ele>471.0</ele>
        <time>2019-08-13T10:48:10Z</time>
      </trkpt>
      <trkpt lat="40.1456050" lon="-4.3792120">
        <ele>470.9</ele>
        <time>2019-08-13T10:48:11Z</time>
      </trkpt>
      <trkpt lat="40.1456290" lon="-4.3792700">
        <ele>470.8</ele>
        <time>2019-08-13T10:48:12Z</time>
      </trkpt>
      <trkpt lat="40.1456520" lon="-4.3793290">
        <ele>470.7</ele>
        <time>2019-08-13T10:48:13Z</time>
      </trkpt>
      <trkpt lat="40.1456740" lon="-4.3793860">
        <ele>470.6</ele>
        <time>2019-08-13T10:48:14Z</time>
      </trkpt>
      <trkpt lat="40.1456970" lon="-4.3794440">
        <ele>470.5</ele>
        <time>2019-08-13T10:48:15Z</time>
      </trkpt>
      <trkpt lat="40.1457200" lon="-4.3795030">
        <ele>470.3</ele>
        <time>2019-08-13T10:48:16Z</time>
      </trkpt>
      <trkpt lat="40.1457440" lon="-4.3795620">
        <ele>470.2</ele>
        <time>2019-08-13T10:48:17Z</time>
      </trkpt>
      <trkpt lat="40.1457670" lon="-4.3796190">
        <ele>470.0</ele>
        <time>2019-08-13T10:48:18Z</time>
      </trkpt>
      <trkpt lat="40.1457890" lon="-4.3796730">
        <ele>469.9</ele>
        <time>2019-08-13T10:48:19Z</time>
      </trkpt>
      <trkpt lat="40.1458090" lon="-4.3797260">
        <ele>469.7</ele>
        <time>2019-08-13T10:48:20Z</time>
      </trkpt>
      <trkpt lat="40.1458300" lon="-4.3797790">
        <ele>469.6</ele>
        <time>2019-08-13T10:48:21Z</time>
      </trkpt>
      <trkpt lat="40.1458530" lon="-4.3798340">
        <ele>469.4</ele>
        <time>2019-08-13T10:48:22Z</time>
      </trkpt>
      <trkpt lat="40.1458780" lon="-4.3798930">
        <ele>469.3</ele>
        <time>2019-08-13T10:48:23Z</time>
      </trkpt>
      <trkpt lat="40.1459040" lon="-4.3799540">
        <ele>469.1</ele>
        <time>2019-08-13T10:48:24Z</time>
      </trkpt>
      <trkpt lat="40.1459320" lon="-4.3800150">
        <ele>468.9</ele>
        <time>2019-08-13T10:48:25Z</time>
      </trkpt>
      <trkpt lat="40.1459630" lon="-4.3800770">
        <ele>468.7</ele>
        <time>2019-08-13T10:48:26Z</time>
      </trkpt>
      <trkpt lat="40.1459960" lon="-4.3801390">
        <ele>468.6</ele>
        <time>2019-08-13T10:48:27Z</time>
      </trkpt>
      <trkpt lat="40.1460310" lon="-4.3802010">
        <ele>468.5</ele>
        <time>2019-08-13T10:48:28Z</time>
      </trkpt>
      <trkpt lat="40.1460700" lon="-4.3802600">
        <ele>468.4</ele>
        <time>2019-08-13T10:48:29Z</time>
      </trkpt>
      <trkpt lat="40.1461110" lon="-4.3803200">
        <ele>468.3</ele>
        <time>2019-08-13T10:48:30Z</time>
      </trkpt>
      <trkpt lat="40.1461530" lon="-4.3803800">
        <ele>468.1</ele>
        <time>2019-08-13T10:48:31Z</time>
      </trkpt>
      <trkpt lat="40.1461940" lon="-4.3804420">
        <ele>468.0</ele>
        <time>2019-08-13T10:48:32Z</time>
      </trkpt>
      <trkpt lat="40.1462330" lon="-4.3805060">
        <ele>467.9</ele>
        <time>2019-08-13T10:48:33Z</time>
      </trkpt>
      <trkpt lat="40.1462690" lon="-4.3805730">
        <ele>467.8</ele>
        <time>2019-08-13T10:48:34Z</time>
      </trkpt>
      <trkpt lat="40.1463050" lon="-4.3806430">
        <ele>467.7</ele>
        <time>2019-08-13T10:48:35Z</time>
      </trkpt>
      <trkpt lat="40.1463400" lon="-4.3807100">
        <ele>467.6</ele>
        <time>2019-08-13T10:48:36Z</time>
      </trkpt>
      <trkpt lat="40.1463740" lon="-4.3807770">
        <ele>467.5</ele>
        <time>2019-08-13T10:48:37Z</time>
      </trkpt>
      <trkpt lat="40.1464090" lon="-4.3808440">
        <ele>467.4</ele>
        <time>2019-08-13T10:48:38Z</time>
      </trkpt>
      <trkpt lat="40.1464420" lon="-4.3809120">
        <ele>467.4</ele>
        <time>2019-08-13T10:48:39Z</time>
      </trkpt>
      <trkpt lat="40.1464760" lon="-4.3809800">
        <ele>467.3</ele>
        <time>2019-08-13T10:48:40Z</time>
      </trkpt>
      <trkpt lat="40.1465120" lon="-4.3810470">
        <ele>467.2</ele>
        <time>2019-08-13T10:48:41Z</time>
      </trkpt>
      <trkpt lat="40.1465480" lon="-4.3811160">
        <ele>467.1</ele>
        <time>2019-08-13T10:48:42Z</time>
      </trkpt>
      <trkpt lat="40.1465820" lon="-4.3811860">
        <ele>467.1</ele>
        <time>2019-08-13T10:48:43Z</time>
      </trkpt>
      <trkpt lat="40.1466160" lon="-4.3812570">
        <ele>467.0</ele>
        <time>2019-08-13T10:48:44Z</time>
      </trkpt>
      <trkpt lat="40.1466510" lon="-4.3813250">
        <ele>466.9</ele>
        <time>2019-08-13T10:48:45Z</time>
      </trkpt>
      <trkpt lat="40.1466870" lon="-4.3813920">
        <ele>466.8</ele>
        <time>2019-08-13T10:48:46Z</time>
      </trkpt>
      <trkpt lat="40.1467230" lon="-4.3814580">
        <ele>466.7</ele>
        <time>2019-08-13T10:48:47Z</time>
      </trkpt>
      <trkpt lat="40.1467600" lon="-4.3815230">
        <ele>466.6</ele>
        <time>2019-08-13T10:48:48Z</time>
      </trkpt>
      <trkpt lat="40.1467960" lon="-4.3815850">
        <ele>466.6</ele>
        <time>2019-08-13T10:48:49Z</time>
      </trkpt>
      <trkpt lat="40.1468310" lon="-4.3816490">
        <ele>466.5</ele>
        <time>2019-08-13T10:48:50Z</time>
      </trkpt>
      <trkpt lat="40.1468670" lon="-4.3817100">
        <ele>466.5</ele>
        <time>2019-08-13T10:48:51Z</time>
      </trkpt>
      <trkpt lat="40.1469030" lon="-4.3817710">
        <ele>466.4</ele>
        <time>2019-08-13T10:48:52Z</time>
      </trkpt>
      <trkpt lat="40.1469400" lon="-4.3818330">
        <ele>466.4</ele>
        <time>2019-08-13T10:48:53Z</time>
      </trkpt>
      <trkpt lat="40.1469770" lon="-4.3818930">
        <ele>466.3</ele>
        <time>2019-08-13T10:48:54Z</time>
      </trkpt>
      <trkpt lat="40.1470140" lon="-4.3819570">
        <ele>466.3</ele>
        <time>2019-08-13T10:48:55Z</time>
      </trkpt>
      <trkpt lat="40.1470510" lon="-4.3820240">
        <ele>466.2</ele>
        <time>2019-08-13T10:48:56Z</time>
      </trkpt>
      <trkpt lat="40.1470870" lon="-4.3820930">
        <ele>466.2</ele>
        <time>2019-08-13T10:48:57Z</time>
      </trkpt>
      <trkpt lat="40.1471210" lon="-4.3821620">
        <ele>466.1</ele>
        <time>2019-08-13T10:48:58Z</time>
      </trkpt>
      <trkpt lat="40.1471530" lon="-4.3822320">
        <ele>466.0</ele>
        <time>2019-08-13T10:48:59Z</time>
      </trkpt>
      <trkpt lat="40.1471870" lon="-4.3823010">
        <ele>465.9</ele>
        <time>2019-08-13T10:49:00Z</time>
      </trkpt>
      <trkpt lat="40.1472230" lon="-4.3823700">
        <ele>465.7</ele>
        <time>2019-08-13T10:49:01Z</time>
      </trkpt>
      <trkpt lat="40.1472580" lon="-4.3824360">
        <ele>465.5</ele>
        <time>2019-08-13T10:49:02Z</time>
      </trkpt>
      <trkpt lat="40.1472930" lon="-4.3825010">
        <ele>465.2</ele>
        <time>2019-08-13T10:49:03Z</time>
      </trkpt>
      <trkpt lat="40.1473300" lon="-4.3825660">
        <ele>464.9</ele>
        <time>2019-08-13T10:49:04Z</time>
      </trkpt>
      <trkpt lat="40.1473660" lon="-4.3826280">
        <ele>464.5</ele>
        <time>2019-08-13T10:49:05Z</time>
      </trkpt>
      <trkpt lat="40.1474020" lon="-4.3826880">
        <ele>464.0</ele>
        <time>2019-08-13T10:49:06Z</time>
      </trkpt>
      <trkpt lat="40.1474380" lon="-4.3827470">
        <ele>463.5</ele>
        <time>2019-08-13T10:49:07Z</time>
      </trkpt>
      <trkpt lat="40.1474720" lon="-4.3828090">
        <ele>463.1</ele>
        <time>2019-08-13T10:49:08Z</time>
      </trkpt>
      <trkpt lat="40.1475070" lon="-4.3828770">
        <ele>462.6</ele>
        <time>2019-08-13T10:49:09Z</time>
      </trkpt>
      <trkpt lat="40.1475410" lon="-4.3829500">
        <ele>462.2</ele>
        <time>2019-08-13T10:49:10Z</time>
      </trkpt>
      <trkpt lat="40.1475750" lon="-4.3830290">
        <ele>461.7</ele>
        <time>2019-08-13T10:49:11Z</time>
      </trkpt>
      <trkpt lat="40.1476040" lon="-4.3831170">
        <ele>461.3</ele>
        <time>2019-08-13T10:49:12Z</time>
      </trkpt>
      <trkpt lat="40.1476290" lon="-4.3832090">
        <ele>460.9</ele>
        <time>2019-08-13T10:49:13Z</time>
      </trkpt>
      <trkpt lat="40.1476500" lon="-4.3833000">
        <ele>460.5</ele>
        <time>2019-08-13T10:49:14Z</time>
      </trkpt>
      <trkpt lat="40.1476670" lon="-4.3833930">
        <ele>460.2</ele>
        <time>2019-08-13T10:49:15Z</time>
      </trkpt>
      <trkpt lat="40.1476850" lon="-4.3834860">
        <ele>459.8</ele>
        <time>2019-08-13T10:49:16Z</time>
      </trkpt>
      <trkpt lat="40.1477050" lon="-4.3835740">
        <ele>459.5</ele>
        <time>2019-08-13T10:49:17Z</time>
      </trkpt>
      <trkpt lat="40.1477300" lon="-4.3836580">
        <ele>459.2</ele>
        <time>2019-08-13T10:49:18Z</time>
      </trkpt>
      <trkpt lat="40.1477600" lon="-4.3837370">
        <ele>458.9</ele>
        <time>2019-08-13T10:49:19Z</time>
      </trkpt>
      <trkpt lat="40.1477930" lon="-4.3838120">
        <ele>458.6</ele>
        <time>2019-08-13T10:49:20Z</time>
      </trkpt>
      <trkpt lat="40.1478250" lon="-4.3838860">
        <ele>458.4</ele>
        <time>2019-08-13T10:49:21Z</time>
      </trkpt>
      <trkpt lat="40.1478510" lon="-4.3839570">
        <ele>458.2</ele>
        <time>2019-08-13T10:49:22Z</time>
      </trkpt>
      <trkpt lat="40.1478720" lon="-4.3840170">
        <ele>458.0</ele>
        <time>2019-08-13T10:49:23Z</time>
      </trkpt>
      <trkpt lat="40.1478860" lon="-4.3840580">
        <ele>457.9</ele>
        <time>2019-08-13T10:49:24Z</time>
      </trkpt>
      <trkpt lat="40.1478920" lon="-4.3841200">
        <ele>457.7</ele>
        <time>2019-08-13T10:49:31Z</time>
      </trkpt>
      <trkpt lat="40.1479070" lon="-4.3841650">
        <ele>457.5</ele>
        <time>2019-08-13T10:49:58Z</time>
      </trkpt>
      <trkpt lat="40.1479220" lon="-4.3842100">
        <ele>457.3</ele>
        <time>2019-08-13T10:49:59Z</time>
      </trkpt>
      <trkpt lat="40.1479440" lon="-4.3842610">
        <ele>457.1</ele>
        <time>2019-08-13T10:50:00Z</time>
      </trkpt>
      <trkpt lat="40.1479670" lon="-4.3843180">
        <ele>456.9</ele>
        <time>2019-08-13T10:50:01Z</time>
      </trkpt>
      <trkpt lat="40.1479930" lon="-4.3843810">
        <ele>456.7</ele>
        <time>2019-08-13T10:50:02Z</time>
      </trkpt>
      <trkpt lat="40.1480190" lon="-4.3844460">
        <ele>456.4</ele>
        <time>2019-08-13T10:50:03Z</time>
      </trkpt>
      <trkpt lat="40.1480460" lon="-4.3845130">
        <ele>456.2</ele>
        <time>2019-08-13T10:50:04Z</time>
      </trkpt>
      <trkpt lat="40.1480710" lon="-4.3845820">
        <ele>455.9</ele>
        <time>2019-08-13T10:50:05Z</time>
      </trkpt>
      <trkpt lat="40.1480950" lon="-4.3846520">
        <ele>455.7</ele>
        <time>2019-08-13T10:50:06Z</time>
      </trkpt>
      <trkpt lat="40.1481220" lon="-4.3847220">
        <ele>455.4</ele>
        <time>2019-08-13T10:50:07Z</time>
      </trkpt>
      <trkpt lat="40.1481550" lon="-4.3847940">
        <ele>455.1</ele>
        <time>2019-08-13T10:50:08Z</time>
      </trkpt>
      <trkpt lat="40.1481900" lon="-4.3848660">
        <ele>454.9</ele>
        <time>2019-08-13T10:50:09Z</time>
      </trkpt>
      <trkpt lat="40.1482290" lon="-4.3849390">
        <ele>454.8</ele>
        <time>2019-08-13T10:50:10Z</time>
      </trkpt>
      <trkpt lat="40.1482690" lon="-4.3850090">
        <ele>454.7</ele>
        <time>2019-08-13T10:50:11Z</time>
      </trkpt>
      <trkpt lat="40.1483110" lon="-4.3850790">
        <ele>454.6</ele>
        <time>2019-08-13T10:50:12Z</time>
      </trkpt>
      <trkpt lat="40.1483550" lon="-4.3851480">
        <ele>454.5</ele>
        <time>2019-08-13T10:50:13Z</time>
      </trkpt>
      <trkpt lat="40.1483980" lon="-4.3852180">
        <ele>454.4</ele>
        <time>2019-08-13T10:50:14Z</time>
      </trkpt>
      <trkpt lat="40.1484420" lon="-4.3852860">
        <ele>454.3</ele>
        <time>2019-08-13T10:50:15Z</time>
      </trkpt>
      <trkpt lat="40.1484870" lon="-4.3853540">
        <ele>454.2</ele>
        <time>2019-08-13T10:50:16Z</time>
      </trkpt>
      <trkpt lat="40.1485310" lon="-4.3854230">
        <ele>454.2</ele>
        <time>2019-08-13T10:50:17Z</time>
      </trkpt>
      <trkpt lat="40.1485750" lon="-4.3854920">
        <ele>454.1</ele>
        <time>2019-08-13T10:50:18Z</time>
      </trkpt>
      <trkpt lat="40.1486170" lon="-4.3855600">
        <ele>454.0</ele>
        <time>2019-08-13T10:50:19Z</time>
      </trkpt>
      <trkpt lat="40.1486600" lon="-4.3856280">
        <ele>453.9</ele>
        <time>2019-08-13T10:50:20Z</time>
      </trkpt>
      <trkpt lat="40.1487020" lon="-4.3856960">
        <ele>453.9</ele>
        <time>2019-08-13T10:50:21Z</time>
      </trkpt>
      <trkpt lat="40.1487460" lon="-4.3857590">
        <ele>453.8</ele>
        <time>2019-08-13T10:50:22Z</time>
      </trkpt>
      <trkpt lat="40.1487900" lon="-4.3858200">
        <ele>453.7</ele>
        <time>2019-08-13T10:50:23Z</time>
      </trkpt>
      <trkpt lat="40.1488340" lon="-4.3858800">
        <ele>453.6</ele>
        <time>2019-08-13T10:50:24Z</time>
      </trkpt>
      <trkpt lat="40.1488780" lon="-4.3859400">
        <ele>453.6</ele>
        <time>2019-08-13T10:50:25Z</time>
      </trkpt>
      <trkpt lat="40.1489230" lon="-4.3859980">
        <ele>453.5</ele>
        <time>2019-08-13T10:50:26Z</time>
      </trkpt>
      <trkpt lat="40.1489680" lon="-4.3860550">
        <ele>453.4</ele>
        <time>2019-08-13T10:50:27Z</time>
      </trkpt>
      <trkpt lat="40.1490110" lon="-4.3861090">
        <ele>453.4</ele>
        <time>2019-08-13T10:50:28Z</time>
      </trkpt>
      <trkpt lat="40.1490560" lon="-4.3861610">
        <ele>453.3</ele>
        <time>2019-08-13T10:50:29Z</time>
      </trkpt>
      <trkpt lat="40.1490990" lon="-4.3862110">
        <ele>453.2</ele>
        <time>2019-08-13T10:50:30Z</time>
      </trkpt>
      <trkpt lat="40.1491410" lon="-4.3862620">
        <ele>453.1</ele>
        <time>2019-08-13T10:50:31Z</time>
      </trkpt>
      <trkpt lat="40.1491820" lon="-4.3863120">
        <ele>453.0</ele>
        <time>2019-08-13T10:50:32Z</time>
      </trkpt>
      <trkpt lat="40.1492230" lon="-4.3863610">
        <ele>453.0</ele>
        <time>2019-08-13T10:50:33Z</time>
      </trkpt>
      <trkpt lat="40.1492630" lon="-4.3864110">
        <ele>452.8</ele>
        <time>2019-08-13T10:50:34Z</time>
      </trkpt>
      <trkpt lat="40.1493050" lon="-4.3864580">
        <ele>452.7</ele>
        <time>2019-08-13T10:50:35Z</time>
      </trkpt>
      <trkpt lat="40.1493460" lon="-4.3865050">
        <ele>452.6</ele>
        <time>2019-08-13T10:50:36Z</time>
      </trkpt>
      <trkpt lat="40.1493860" lon="-4.3865540">
        <ele>452.5</ele>
        <time>2019-08-13T10:50:37Z</time>
      </trkpt>
      <trkpt lat="40.1494230" lon="-4.3866040">
        <ele>452.4</ele>
        <time>2019-08-13T10:50:38Z</time>
      </trkpt>
      <trkpt lat="40.1494610" lon="-4.3866520">
        <ele>452.4</ele>
        <time>2019-08-13T10:50:39Z</time>
      </trkpt>
      <trkpt lat="40.1495000" lon="-4.3867000">
        <ele>452.3</ele>
        <time>2019-08-13T10:50:40Z</time>
      </trkpt>
      <trkpt lat="40.1495350" lon="-4.3867480">
        <ele>452.2</ele>
        <time>2019-08-13T10:50:41Z</time>
      </trkpt>
      <trkpt lat="40.1495700" lon="-4.3867970">
        <ele>452.2</ele>
        <time>2019-08-13T10:50:42Z</time>
      </trkpt>
      <trkpt lat="40.1496040" lon="-4.3868460">
        <ele>452.1</ele>
        <time>2019-08-13T10:50:43Z</time>
      </trkpt>
      <trkpt lat="40.1496400" lon="-4.3868950">
        <ele>452.0</ele>
        <time>2019-08-13T10:50:44Z</time>
      </trkpt>
      <trkpt lat="40.1496770" lon="-4.3869480">
        <ele>452.0</ele>
        <time>2019-08-13T10:50:45Z</time>
      </trkpt>
      <trkpt lat="40.1497150" lon="-4.3870010">
        <ele>451.9</ele>
        <time>2019-08-13T10:50:46Z</time>
      </trkpt>
      <trkpt lat="40.1497540" lon="-4.3870550">
        <ele>451.9</ele>
        <time>2019-08-13T10:50:47Z</time>
      </trkpt>
      <trkpt lat="40.1497920" lon="-4.3871080">
        <ele>451.9</ele>
        <time>2019-08-13T10:50:48Z</time>
      </trkpt>
      <trkpt lat="40.1498290" lon="-4.3871620">
        <ele>451.8</ele>
        <time>2019-08-13T10:50:49Z</time>
      </trkpt>
      <trkpt lat="40.1498650" lon="-4.3872150">
        <ele>451.8</ele>
        <time>2019-08-13T10:50:50Z</time>
      </trkpt>
      <trkpt lat="40.1499010" lon="-4.3872650">
        <ele>451.8</ele>
        <time>2019-08-13T10:50:51Z</time>
      </trkpt>
      <trkpt lat="40.1499360" lon="-4.3873160">
        <ele>451.8</ele>
        <time>2019-08-13T10:50:52Z</time>
      </trkpt>
      <trkpt lat="40.1499680" lon="-4.3873660">
        <ele>451.8</ele>
        <time>2019-08-13T10:50:53Z</time>
      </trkpt>
      <trkpt lat="40.1500020" lon="-4.3874150">
        <ele>451.8</ele>
        <time>2019-08-13T10:50:54Z</time>
      </trkpt>
      <trkpt lat="40.1500360" lon="-4.3874640">
        <ele>451.7</ele>
        <time>2019-08-13T10:50:55Z</time>
      </trkpt>
      <trkpt lat="40.1500710" lon="-4.3875150">
        <ele>451.7</ele>
        <time>2019-08-13T10:50:56Z</time>
      </trkpt>
      <trkpt lat="40.1501070" lon="-4.3875680">
        <ele>451.7</ele>
        <time>2019-08-13T10:50:57Z</time>
      </trkpt>
      <trkpt lat="40.1501440" lon="-4.3876200">
        <ele>451.6</ele>
        <time>2019-08-13T10:50:58Z</time>
      </trkpt>
      <trkpt lat="40.1501820" lon="-4.3876720">
        <ele>451.6</ele>
        <time>2019-08-13T10:50:59Z</time>
      </trkpt>
      <trkpt lat="40.1502210" lon="-4.3877230">
        <ele>451.5</ele>
        <time>2019-08-13T10:51:00Z</time>
      </trkpt>
      <trkpt lat="40.1502590" lon="-4.3877740">
        <ele>451.5</ele>
        <time>2019-08-13T10:51:01Z</time>
      </trkpt>
      <trkpt lat="40.1502960" lon="-4.3878260">
        <ele>451.5</ele>
        <time>2019-08-13T10:51:02Z</time>
      </trkpt>
      <trkpt lat="40.1503290" lon="-4.3878780">
        <ele>451.4</ele>
        <time>2019-08-13T10:51:03Z</time>
      </trkpt>
      <trkpt lat="40.1503620" lon="-4.3879290">
        <ele>451.4</ele>
        <time>2019-08-13T10:51:04Z</time>
      </trkpt>
      <trkpt lat="40.1503930" lon="-4.3879790">
        <ele>451.4</ele>
        <time>2019-08-13T10:51:05Z</time>
      </trkpt>
      <trkpt lat="40.1504250" lon="-4.3880260">
        <ele>451.4</ele>
        <time>2019-08-13T10:51:06Z</time>
      </trkpt>
      <trkpt lat="40.1504620" lon="-4.3880690">
        <ele>451.4</ele>
        <time>2019-08-13T10:51:07Z</time>
      </trkpt>
      <trkpt lat="40.1505020" lon="-4.3881080">
        <ele>451.4</ele>
        <time>2019-08-13T10:51:08Z</time>
      </trkpt>
      <trkpt lat="40.1505440" lon="-4.3881440">
        <ele>451.4</ele>
        <time>2019-08-13T10:51:09Z</time>
      </trkpt>
      <trkpt lat="40.1505860" lon="-4.3881810">
        <ele>451.4</ele>
        <time>2019-08-13T10:51:10Z</time>
      </trkpt>
      <trkpt lat="40.1506290" lon="-4.3882190">
        <ele>451.4</ele>
        <time>2019-08-13T10:51:11Z</time>
      </trkpt>
      <trkpt lat="40.1506730" lon="-4.3882540">
        <ele>451.5</ele>
        <time>2019-08-13T10:51:12Z</time>
      </trkpt>
      <trkpt lat="40.1507160" lon="-4.3882870">
        <ele>451.5</ele>
        <time>2019-08-13T10:51:13Z</time>
      </trkpt>
      <trkpt lat="40.1507580" lon="-4.3883210">
        <ele>451.5</ele>
        <time>2019-08-13T10:51:14Z</time>
      </trkpt>
      <trkpt lat="40.1507980" lon="-4.3883550">
        <ele>451.6</ele>
        <time>2019-08-13T10:51:15Z</time>
      </trkpt>
      <trkpt lat="40.1508400" lon="-4.3883920">
        <ele>451.6</ele>
        <time>2019-08-13T10:51:16Z</time>
      </trkpt>
      <trkpt lat="40.1508820" lon="-4.3884290">
        <ele>451.7</ele>
        <time>2019-08-13T10:51:17Z</time>
      </trkpt>
      <trkpt lat="40.1509240" lon="-4.3884670">
        <ele>451.8</ele>
        <time>2019-08-13T10:51:18Z</time>
      </trkpt>
      <trkpt lat="40.1509660" lon="-4.3885090">
        <ele>451.8</ele>
        <time>2019-08-13T10:51:19Z</time>
      </trkpt>
      <trkpt lat="40.1510080" lon="-4.3885480">
        <ele>451.9</ele>
        <time>2019-08-13T10:51:20Z</time>
      </trkpt>
      <trkpt lat="40.1510480" lon="-4.3885860">
        <ele>452.0</ele>
        <time>2019-08-13T10:51:21Z</time>
      </trkpt>
      <trkpt lat="40.1510880" lon="-4.3886230">
        <ele>452.1</ele>
        <time>2019-08-13T10:51:22Z</time>
      </trkpt>
      <trkpt lat="40.1511280" lon="-4.3886590">
        <ele>452.2</ele>
        <time>2019-08-13T10:51:23Z</time>
      </trkpt>
      <trkpt lat="40.1511680" lon="-4.3886910">
        <ele>452.4</ele>
        <time>2019-08-13T10:51:24Z</time>
      </trkpt>
      <trkpt lat="40.1512080" lon="-4.3887270">
        <ele>452.5</ele>
        <time>2019-08-13T10:51:25Z</time>
      </trkpt>
      <trkpt lat="40.1512490" lon="-4.3887610">
        <ele>452.6</ele>
        <time>2019-08-13T10:51:26Z</time>
      </trkpt>
      <trkpt lat="40.1512910" lon="-4.3887950">
        <ele>452.7</ele>
        <time>2019-08-13T10:51:27Z</time>
      </trkpt>
      <trkpt lat="40.1513320" lon="-4.3888310">
        <ele>452.9</ele>
        <time>2019-08-13T10:51:28Z</time>
      </trkpt>
      <trkpt lat="40.1513720" lon="-4.3888670">
        <ele>453.0</ele>
        <time>2019-08-13T10:51:29Z</time>
      </trkpt>
      <trkpt lat="40.1514130" lon="-4.3889040">
        <ele>453.2</ele>
        <time>2019-08-13T10:51:30Z</time>
      </trkpt>
      <trkpt lat="40.1514520" lon="-4.3889400">
        <ele>453.3</ele>
        <time>2019-08-13T10:51:31Z</time>
      </trkpt>
      <trkpt lat="40.1514900" lon="-4.3889750">
        <ele>453.4</ele>
        <time>2019-08-13T10:51:32Z</time>
      </trkpt>
      <trkpt lat="40.1515270" lon="-4.3890090">
        <ele>453.6</ele>
        <time>2019-08-13T10:51:33Z</time>
      </trkpt>
      <trkpt lat="40.1515640" lon="-4.3890430">
        <ele>453.8</ele>
        <time>2019-08-13T10:51:34Z</time>
      </trkpt>
      <trkpt lat="40.1515990" lon="-4.3890750">
        <ele>454.0</ele>
        <time>2019-08-13T10:51:35Z</time>
      </trkpt>
      <trkpt lat="40.1516340" lon="-4.3891060">
        <ele>454.1</ele>
        <time>2019-08-13T10:51:36Z</time>
      </trkpt>
      <trkpt lat="40.1516670" lon="-4.3891370">
        <ele>454.3</ele>
        <time>2019-08-13T10:51:37Z</time>
      </trkpt>
      <trkpt lat="40.1516980" lon="-4.3891680">
        <ele>454.4</ele>
        <time>2019-08-13T10:51:38Z</time>
      </trkpt>
      <trkpt lat="40.1517290" lon="-4.3891990">
        <ele>454.5</ele>
        <time>2019-08-13T10:51:39Z</time>
      </trkpt>
      <trkpt lat="40.1517590" lon="-4.3892290">
        <ele>454.6</ele>
        <time>2019-08-13T10:51:40Z</time>
      </trkpt>
      <trkpt lat="40.1517910" lon="-4.3892570">
        <ele>454.8</ele>
        <time>2019-08-13T10:51:41Z</time>
      </trkpt>
      <trkpt lat="40.1518220" lon="-4.3892860">
        <ele>454.8</ele>
        <time>2019-08-13T10:51:42Z</time>
      </trkpt>
      <trkpt lat="40.1518530" lon="-4.3893130">
        <ele>454.9</ele>
        <time>2019-08-13T10:51:43Z</time>
      </trkpt>
      <trkpt lat="40.1518830" lon="-4.3893400">
        <ele>455.0</ele>
        <time>2019-08-13T10:51:44Z</time>
      </trkpt>
      <trkpt lat="40.1519110" lon="-4.3893680">
        <ele>455.1</ele>
        <time>2019-08-13T10:51:45Z</time>
      </trkpt>
      <trkpt lat="40.1519400" lon="-4.3893960">
        <ele>455.2</ele>
        <time>2019-08-13T10:51:46Z</time>
      </trkpt>
      <trkpt lat="40.1519680" lon="-4.3894240">
        <ele>455.2</ele>
        <time>2019-08-13T10:51:47Z</time>
      </trkpt>
      <trkpt lat="40.1519940" lon="-4.3894510">
        <ele>455.3</ele>
        <time>2019-08-13T10:51:48Z</time>
      </trkpt>
      <trkpt lat="40.1520190" lon="-4.3894770">
        <ele>455.3</ele>
        <time>2019-08-13T10:51:49Z</time>
      </trkpt>
      <trkpt lat="40.1520450" lon="-4.3895040">
        <ele>455.4</ele>
        <time>2019-08-13T10:51:50Z</time>
      </trkpt>
      <trkpt lat="40.1520720" lon="-4.3895300">
        <ele>455.4</ele>
        <time>2019-08-13T10:51:51Z</time>
      </trkpt>
      <trkpt lat="40.1520980" lon="-4.3895560">
        <ele>455.5</ele>
        <time>2019-08-13T10:51:52Z</time>
      </trkpt>
      <trkpt lat="40.1521230" lon="-4.3895840">
        <ele>455.5</ele>
        <time>2019-08-13T10:51:53Z</time>
      </trkpt>
      <trkpt lat="40.1521470" lon="-4.3896120">
        <ele>455.5</ele>
        <time>2019-08-13T10:51:54Z</time>
      </trkpt>
      <trkpt lat="40.1521710" lon="-4.3896400">
        <ele>455.5</ele>
        <time>2019-08-13T10:51:55Z</time>
      </trkpt>
      <trkpt lat="40.1521950" lon="-4.3896680">
        <ele>455.5</ele>
        <time>2019-08-13T10:51:56Z</time>
      </trkpt>
      <trkpt lat="40.1522190" lon="-4.3896950">
        <ele>455.5</ele>
        <time>2019-08-13T10:51:57Z</time>
      </trkpt>
      <trkpt lat="40.1522420" lon="-4.3897230">
        <ele>455.5</ele>
        <time>2019-08-13T10:51:58Z</time>
      </trkpt>
      <trkpt lat="40.1522660" lon="-4.3897500">
        <ele>455.5</ele>
        <time>2019-08-13T10:51:59Z</time>
      </trkpt>
      <trkpt lat="40.1522910" lon="-4.3897770">
        <ele>455.5</ele>
        <time>2019-08-13T10:52:00Z</time>
      </trkpt>
      <trkpt lat="40.1523160" lon="-4.3898050">
        <ele>455.5</ele>
        <time>2019-08-13T10:52:01Z</time>
      </trkpt>
      <trkpt lat="40.1523410" lon="-4.3898330">
        <ele>455.5</ele>
        <time>2019-08-13T10:52:02Z</time>
      </trkpt>
      <trkpt lat="40.1523670" lon="-4.3898640">
        <ele>455.5</ele>
        <time>2019-08-13T10:52:03Z</time>
      </trkpt>
      <trkpt lat="40.1523940" lon="-4.3898950">
        <ele>455.4</ele>
        <time>2019-08-13T10:52:04Z</time>
      </trkpt>
      <trkpt lat="40.1524230" lon="-4.3899280">
        <ele>455.4</ele>
        <time>2019-08-13T10:52:05Z</time>
      </trkpt>
      <trkpt lat="40.1524520" lon="-4.3899620">
        <ele>455.4</ele>
        <time>2019-08-13T10:52:06Z</time>
      </trkpt>
      <trkpt lat="40.1524830" lon="-4.3899990">
        <ele>455.3</ele>
        <time>2019-08-13T10:52:07Z</time>
      </trkpt>
      <trkpt lat="40.1525160" lon="-4.3900350">
        <ele>455.3</ele>
        <time>2019-08-13T10:52:08Z</time>
      </trkpt>
      <trkpt lat="40.1525520" lon="-4.3900730">
        <ele>455.1</ele>
        <time>2019-08-13T10:52:09Z</time>
      </trkpt>
      <trkpt lat="40.1525860" lon="-4.3901100">
        <ele>455.0</ele>
        <time>2019-08-13T10:52:10Z</time>
      </trkpt>
      <trkpt lat="40.1526190" lon="-4.3901460">
        <ele>454.9</ele>
        <time>2019-08-13T10:52:11Z</time>
      </trkpt>
      <trkpt lat="40.1526500" lon="-4.3901830">
        <ele>454.8</ele>
        <time>2019-08-13T10:52:12Z</time>
      </trkpt>
      <trkpt lat="40.1526790" lon="-4.3902210">
        <ele>454.6</ele>
        <time>2019-08-13T10:52:13Z</time>
      </trkpt>
      <trkpt lat="40.1527090" lon="-4.3902600">
        <ele>454.4</ele>
        <time>2019-08-13T10:52:14Z</time>
      </trkpt>
      <trkpt lat="40.1527450" lon="-4.3902960">
        <ele>454.2</ele>
        <time>2019-08-13T10:52:15Z</time>
      </trkpt>
      <trkpt lat="40.1527810" lon="-4.3903340">
        <ele>454.1</ele>
        <time>2019-08-13T10:52:16Z</time>
      </trkpt>
      <trkpt lat="40.1528160" lon="-4.3903720">
        <ele>453.9</ele>
        <time>2019-08-13T10:52:17Z</time>
      </trkpt>
      <trkpt lat="40.1528490" lon="-4.3904100">
        <ele>453.7</ele>
        <time>2019-08-13T10:52:18Z</time>
      </trkpt>
      <trkpt lat="40.1528810" lon="-4.3904480">
        <ele>453.6</ele>
        <time>2019-08-13T10:52:19Z</time>
      </trkpt>
      <trkpt lat="40.1529120" lon="-4.3904840">
        <ele>453.5</ele>
        <time>2019-08-13T10:52:20Z</time>
      </trkpt>
      <trkpt lat="40.1529420" lon="-4.3905200">
        <ele>453.4</ele>
        <time>2019-08-13T10:52:21Z</time>
      </trkpt>
      <trkpt lat="40.1529720" lon="-4.3905560">
        <ele>453.4</ele>
        <time>2019-08-13T10:52:22Z</time>
      </trkpt>
      <trkpt lat="40.1530020" lon="-4.3905900">
        <ele>453.3</ele>
        <time>2019-08-13T10:52:23Z</time>
      </trkpt>
      <trkpt lat="40.1530320" lon="-4.3906260">
        <ele>453.3</ele>
        <time>2019-08-13T10:52:24Z</time>
      </trkpt>
      <trkpt lat="40.1530640" lon="-4.3906630">
        <ele>453.2</ele>
        <time>2019-08-13T10:52:25Z</time>
      </trkpt>
      <trkpt lat="40.1530990" lon="-4.3907000">
        <ele>453.1</ele>
        <time>2019-08-13T10:52:26Z</time>
      </trkpt>
      <trkpt lat="40.1531360" lon="-4.3907380">
        <ele>453.1</ele>
        <time>2019-08-13T10:52:27Z</time>
      </trkpt>
      <trkpt lat="40.1531730" lon="-4.3907760">
        <ele>453.0</ele>
        <time>2019-08-13T10:52:28Z</time>
      </trkpt>
      <trkpt lat="40.1532090" lon="-4.3908160">
        <ele>452.9</ele>
        <time>2019-08-13T10:52:29Z</time>
      </trkpt>
      <trkpt lat="40.1532440" lon="-4.3908580">
        <ele>452.8</ele>
        <time>2019-08-13T10:52:30Z</time>
      </trkpt>
      <trkpt lat="40.1532770" lon="-4.3908990">
        <ele>452.7</ele>
        <time>2019-08-13T10:52:31Z</time>
      </trkpt>
      <trkpt lat="40.1533090" lon="-4.3909410">
        <ele>452.6</ele>
        <time>2019-08-13T10:52:32Z</time>
      </trkpt>
      <trkpt lat="40.1533420" lon="-4.3909820">
        <ele>452.5</ele>
        <time>2019-08-13T10:52:33Z</time>
      </trkpt>
      <trkpt lat="40.1533770" lon="-4.3910220">
        <ele>452.5</ele>
        <time>2019-08-13T10:52:34Z</time>
      </trkpt>
      <trkpt lat="40.1534100" lon="-4.3910610">
        <ele>452.4</ele>
        <time>2019-08-13T10:52:35Z</time>
      </trkpt>
      <trkpt lat="40.1534440" lon="-4.3910980">
        <ele>452.4</ele>
        <time>2019-08-13T10:52:36Z</time>
      </trkpt>
      <trkpt lat="40.1534760" lon="-4.3911330">
        <ele>452.3</ele>
        <time>2019-08-13T10:52:37Z</time>
      </trkpt>
      <trkpt lat="40.1535080" lon="-4.3911700">
        <ele>452.3</ele>
        <time>2019-08-13T10:52:38Z</time>
      </trkpt>
      <trkpt lat="40.1535400" lon="-4.3912060">
        <ele>452.2</ele>
        <time>2019-08-13T10:52:39Z</time>
      </trkpt>
      <trkpt lat="40.1535720" lon="-4.3912390">
        <ele>452.2</ele>
        <time>2019-08-13T10:52:40Z</time>
      </trkpt>
      <trkpt lat="40.1536050" lon="-4.3912730">
        <ele>452.2</ele>
        <time>2019-08-13T10:52:41Z</time>
      </trkpt>
      <trkpt lat="40.1536390" lon="-4.3913080">
        <ele>452.1</ele>
        <time>2019-08-13T10:52:42Z</time>
      </trkpt>
      <trkpt lat="40.1536740" lon="-4.3913450">
        <ele>452.1</ele>
        <time>2019-08-13T10:52:43Z</time>
      </trkpt>
      <trkpt lat="40.1537090" lon="-4.3913850">
        <ele>452.0</ele>
        <time>2019-08-13T10:52:44Z</time>
      </trkpt>
      <trkpt lat="40.1537480" lon="-4.3914250">
        <ele>452.0</ele>
        <time>2019-08-13T10:52:45Z</time>
      </trkpt>
      <trkpt lat="40.1537900" lon="-4.3914700">
        <ele>451.9</ele>
        <time>2019-08-13T10:52:46Z</time>
      </trkpt>
      <trkpt lat="40.1538360" lon="-4.3915200">
        <ele>451.9</ele>
        <time>2019-08-13T10:52:47Z</time>
      </trkpt>
      <trkpt lat="40.1538850" lon="-4.3915740">
        <ele>451.8</ele>
        <time>2019-08-13T10:52:48Z</time>
      </trkpt>
      <trkpt lat="40.1539370" lon="-4.3916300">
        <ele>451.6</ele>
        <time>2019-08-13T10:52:49Z</time>
      </trkpt>
      <trkpt lat="40.1539920" lon="-4.3916910">
        <ele>451.5</ele>
        <time>2019-08-13T10:52:50Z</time>
      </trkpt>
      <trkpt lat="40.1540480" lon="-4.3917560">
        <ele>451.3</ele>
        <time>2019-08-13T10:52:51Z</time>
      </trkpt>
      <trkpt lat="40.1541090" lon="-4.3918220">
        <ele>451.1</ele>
        <time>2019-08-13T10:52:52Z</time>
      </trkpt>
      <trkpt lat="40.1541720" lon="-4.3918860">
        <ele>450.9</ele>
        <time>2019-08-13T10:52:53Z</time>
      </trkpt>
      <trkpt lat="40.1542380" lon="-4.3919480">
        <ele>450.5</ele>
        <time>2019-08-13T10:52:54Z</time>
      </trkpt>
      <trkpt lat="40.1543070" lon="-4.3920050">
        <ele>450.0</ele>
        <time>2019-08-13T10:52:55Z</time>
      </trkpt>
      <trkpt lat="40.1543770" lon="-4.3920600">
        <ele>449.6</ele>
        <time>2019-08-13T10:52:56Z</time>
      </trkpt>
      <trkpt lat="40.1544470" lon="-4.3921160">
        <ele>449.2</ele>
        <time>2019-08-13T10:52:57Z</time>
      </trkpt>
      <trkpt lat="40.1545180" lon="-4.3921710">
        <ele>448.8</ele>
        <time>2019-08-13T10:52:58Z</time>
      </trkpt>
      <trkpt lat="40.1545890" lon="-4.3922280">
        <ele>448.4</ele>
        <time>2019-08-13T10:52:59Z</time>
      </trkpt>
      <trkpt lat="40.1546580" lon="-4.3922890">
        <ele>447.8</ele>
        <time>2019-08-13T10:53:00Z</time>
      </trkpt>
      <trkpt lat="40.1547240" lon="-4.3923540">
        <ele>447.3</ele>
        <time>2019-08-13T10:53:01Z</time>
      </trkpt>
      <trkpt lat="40.1547900" lon="-4.3924210">
        <ele>446.9</ele>
        <time>2019-08-13T10:53:02Z</time>
      </trkpt>
      <trkpt lat="40.1548550" lon="-4.3924880">
        <ele>446.6</ele>
        <time>2019-08-13T10:53:03Z</time>
      </trkpt>
      <trkpt lat="40.1549210" lon="-4.3925520">
        <ele>445.8</ele>
        <time>2019-08-13T10:53:04Z</time>
      </trkpt>
      <trkpt lat="40.1549860" lon="-4.3926160">
        <ele>445.5</ele>
        <time>2019-08-13T10:53:05Z</time>
      </trkpt>
      <trkpt lat="40.1550520" lon="-4.3926810">
        <ele>445.3</ele>
        <time>2019-08-13T10:53:06Z</time>
      </trkpt>
      <trkpt lat="40.1551150" lon="-4.3927470">
        <ele>445.0</ele>
        <time>2019-08-13T10:53:07Z</time>
      </trkpt>
      <trkpt lat="40.1551760" lon="-4.3928150">
        <ele>444.4</ele>
        <time>2019-08-13T10:53:08Z</time>
      </trkpt>
      <trkpt lat="40.1552360" lon="-4.3928860">
        <ele>443.8</ele>
        <time>2019-08-13T10:53:09Z</time>
      </trkpt>
      <trkpt lat="40.1552940" lon="-4.3929600">
        <ele>443.2</ele>
        <time>2019-08-13T10:53:10Z</time>
      </trkpt>
      <trkpt lat="40.1553500" lon="-4.3930360">
        <ele>442.8</ele>
        <time>2019-08-13T10:53:11Z</time>
      </trkpt>
      <trkpt lat="40.1554050" lon="-4.3931120">
        <ele>442.4</ele>
        <time>2019-08-13T10:53:12Z</time>
      </trkpt>
      <trkpt lat="40.1554610" lon="-4.3931860">
        <ele>442.0</ele>
        <time>2019-08-13T10:53:13Z</time>
      </trkpt>
      <trkpt lat="40.1555200" lon="-4.3932610">
        <ele>441.5</ele>
        <time>2019-08-13T10:53:14Z</time>
      </trkpt>
      <trkpt lat="40.1555820" lon="-4.3933420">
        <ele>441.0</ele>
        <time>2019-08-13T10:53:15Z</time>
      </trkpt>
      <trkpt lat="40.1556430" lon="-4.3934310">
        <ele>440.3</ele>
        <time>2019-08-13T10:53:16Z</time>
      </trkpt>
      <trkpt lat="40.1557030" lon="-4.3935240">
        <ele>439.1</ele>
        <time>2019-08-13T10:53:17Z</time>
      </trkpt>
      <trkpt lat="40.1557630" lon="-4.3936170">
        <ele>438.1</ele>
        <time>2019-08-13T10:53:18Z</time>
      </trkpt>
      <trkpt lat="40.1558230" lon="-4.3937120">
        <ele>437.2</ele>
        <time>2019-08-13T10:53:19Z</time>
      </trkpt>
      <trkpt lat="40.1558830" lon="-4.3938080">
        <ele>436.4</ele>
        <time>2019-08-13T10:53:20Z</time>
      </trkpt>
      <trkpt lat="40.1559410" lon="-4.3939070">
        <ele>435.7</ele>
        <time>2019-08-13T10:53:21Z</time>
      </trkpt>
      <trkpt lat="40.1559950" lon="-4.3940080">
        <ele>435.1</ele>
        <time>2019-08-13T10:53:22Z</time>
      </trkpt>
      <trkpt lat="40.1560470" lon="-4.3941130">
        <ele>434.5</ele>
        <time>2019-08-13T10:53:23Z</time>
      </trkpt>
      <trkpt lat="40.1560950" lon="-4.3942180">
        <ele>433.9</ele>
        <time>2019-08-13T10:53:24Z</time>
      </trkpt>
      <trkpt lat="40.1561420" lon="-4.3943240">
        <ele>433.4</ele>
        <time>2019-08-13T10:53:25Z</time>
      </trkpt>
      <trkpt lat="40.1561900" lon="-4.3944300">
        <ele>432.9</ele>
        <time>2019-08-13T10:53:26Z</time>
      </trkpt>
      <trkpt lat="40.1562400" lon="-4.3945330">
        <ele>432.5</ele>
        <time>2019-08-13T10:53:27Z</time>
      </trkpt>
      <trkpt lat="40.1562910" lon="-4.3946340">
        <ele>432.1</ele>
        <time>2019-08-13T10:53:28Z</time>
      </trkpt>
      <trkpt lat="40.1563420" lon="-4.3947330">
        <ele>431.7</ele>
        <time>2019-08-13T10:53:29Z</time>
      </trkpt>
      <trkpt lat="40.1563910" lon="-4.3948300">
        <ele>431.4</ele>
        <time>2019-08-13T10:53:30Z</time>
      </trkpt>
      <trkpt lat="40.1564400" lon="-4.3949260">
        <ele>431.1</ele>
        <time>2019-08-13T10:53:31Z</time>
      </trkpt>
      <trkpt lat="40.1564860" lon="-4.3950200">
        <ele>430.8</ele>
        <time>2019-08-13T10:53:32Z</time>
      </trkpt>
      <trkpt lat="40.1565340" lon="-4.3951130">
        <ele>430.5</ele>
        <time>2019-08-13T10:53:33Z</time>
      </trkpt>
      <trkpt lat="40.1565810" lon="-4.3952040">
        <ele>430.1</ele>
        <time>2019-08-13T10:53:34Z</time>
      </trkpt>
      <trkpt lat="40.1566300" lon="-4.3952930">
        <ele>429.8</ele>
        <time>2019-08-13T10:53:35Z</time>
      </trkpt>
      <trkpt lat="40.1566770" lon="-4.3953830">
        <ele>429.3</ele>
        <time>2019-08-13T10:53:36Z</time>
      </trkpt>
      <trkpt lat="40.1567210" lon="-4.3954720">
        <ele>428.8</ele>
        <time>2019-08-13T10:53:37Z</time>
      </trkpt>
      <trkpt lat="40.1567630" lon="-4.3955630">
        <ele>428.5</ele>
        <time>2019-08-13T10:53:38Z</time>
      </trkpt>
      <trkpt lat="40.1568040" lon="-4.3956540">
        <ele>428.3</ele>
        <time>2019-08-13T10:53:39Z</time>
      </trkpt>
      <trkpt lat="40.1568450" lon="-4.3957430">
        <ele>428.2</ele>
        <time>2019-08-13T10:53:40Z</time>
      </trkpt>
      <trkpt lat="40.1568890" lon="-4.3958310">
        <ele>428.0</ele>
        <time>2019-08-13T10:53:41Z</time>
      </trkpt>
      <trkpt lat="40.1569350" lon="-4.3959200">
        <ele>427.8</ele>
        <time>2019-08-13T10:53:42Z</time>
      </trkpt>
      <trkpt lat="40.1569810" lon="-4.3960070">
        <ele>427.5</ele>
        <time>2019-08-13T10:53:43Z</time>
      </trkpt>
      <trkpt lat="40.1570290" lon="-4.3960920">
        <ele>427.1</ele>
        <time>2019-08-13T10:53:44Z</time>
      </trkpt>
      <trkpt lat="40.1570760" lon="-4.3961700">
        <ele>426.6</ele>
        <time>2019-08-13T10:53:45Z</time>
      </trkpt>
      <trkpt lat="40.1571240" lon="-4.3962400">
        <ele>426.1</ele>
        <time>2019-08-13T10:53:46Z</time>
      </trkpt>
      <trkpt lat="40.1571760" lon="-4.3963060">
        <ele>425.7</ele>
        <time>2019-08-13T10:53:47Z</time>
      </trkpt>
      <trkpt lat="40.1572310" lon="-4.3963670">
        <ele>425.5</ele>
        <time>2019-08-13T10:53:48Z</time>
      </trkpt>
      <trkpt lat="40.1572870" lon="-4.3964280">
        <ele>425.3</ele>
        <time>2019-08-13T10:53:49Z</time>
      </trkpt>
      <trkpt lat="40.1573440" lon="-4.3964880">
        <ele>425.2</ele>
        <time>2019-08-13T10:53:50Z</time>
      </trkpt>
      <trkpt lat="40.1574020" lon="-4.3965460">
        <ele>425.1</ele>
        <time>2019-08-13T10:53:51Z</time>
      </trkpt>
      <trkpt lat="40.1574620" lon="-4.3966020">
        <ele>425.0</ele>
        <time>2019-08-13T10:53:52Z</time>
      </trkpt>
      <trkpt lat="40.1575220" lon="-4.3966570">
        <ele>424.8</ele>
        <time>2019-08-13T10:53:53Z</time>
      </trkpt>
      <trkpt lat="40.1575820" lon="-4.3967120">
        <ele>424.7</ele>
        <time>2019-08-13T10:53:54Z</time>
      </trkpt>
      <trkpt lat="40.1576400" lon="-4.3967670">
        <ele>424.6</ele>
        <time>2019-08-13T10:53:55Z</time>
      </trkpt>
      <trkpt lat="40.1576980" lon="-4.3968190">
        <ele>424.4</ele>
        <time>2019-08-13T10:53:56Z</time>
      </trkpt>
      <trkpt lat="40.1577540" lon="-4.3968710">
        <ele>424.3</ele>
        <time>2019-08-13T10:53:57Z</time>
      </trkpt>
      <trkpt lat="40.1578100" lon="-4.3969240">
        <ele>424.1</ele>
        <time>2019-08-13T10:53:58Z</time>
      </trkpt>
      <trkpt lat="40.1578660" lon="-4.3969780">
        <ele>424.0</ele>
        <time>2019-08-13T10:53:59Z</time>
      </trkpt>
      <trkpt lat="40.1579210" lon="-4.3970330">
        <ele>423.8</ele>
        <time>2019-08-13T10:54:00Z</time>
      </trkpt>
      <trkpt lat="40.1579720" lon="-4.3970900">
        <ele>423.7</ele>
        <time>2019-08-13T10:54:01Z</time>
      </trkpt>
      <trkpt lat="40.1580220" lon="-4.3971480">
        <ele>423.5</ele>
        <time>2019-08-13T10:54:02Z</time>
      </trkpt>
      <trkpt lat="40.1580710" lon="-4.3972030">
        <ele>423.4</ele>
        <time>2019-08-13T10:54:03Z</time>
      </trkpt>
      <trkpt lat="40.1581190" lon="-4.3972580">
        <ele>423.2</ele>
        <time>2019-08-13T10:54:04Z</time>
      </trkpt>
      <trkpt lat="40.1581660" lon="-4.3973140">
        <ele>423.1</ele>
        <time>2019-08-13T10:54:05Z</time>
      </trkpt>
      <trkpt lat="40.1582140" lon="-4.3973690">
        <ele>423.0</ele>
        <time>2019-08-13T10:54:06Z</time>
      </trkpt>
      <trkpt lat="40.1582590" lon="-4.3974240">
        <ele>422.9</ele>
        <time>2019-08-13T10:54:07Z</time>
      </trkpt>
      <trkpt lat="40.1583040" lon="-4.3974760">
        <ele>422.8</ele>
        <time>2019-08-13T10:54:08Z</time>
      </trkpt>
      <trkpt lat="40.1583510" lon="-4.3975290">
        <ele>422.7</ele>
        <time>2019-08-13T10:54:09Z</time>
      </trkpt>
      <trkpt lat="40.1583970" lon="-4.3975830">
        <ele>422.7</ele>
        <time>2019-08-13T10:54:10Z</time>
      </trkpt>
      <trkpt lat="40.1584440" lon="-4.3976350">
        <ele>422.6</ele>
        <time>2019-08-13T10:54:11Z</time>
      </trkpt>
      <trkpt lat="40.1584880" lon="-4.3976850">
        <ele>422.5</ele>
        <time>2019-08-13T10:54:12Z</time>
      </trkpt>
      <trkpt lat="40.1585300" lon="-4.3977370">
        <ele>422.4</ele>
        <time>2019-08-13T10:54:13Z</time>
      </trkpt>
      <trkpt lat="40.1585720" lon="-4.3977880">
        <ele>422.4</ele>
        <time>2019-08-13T10:54:14Z</time>
      </trkpt>
      <trkpt lat="40.1586130" lon="-4.3978380">
        <ele>422.3</ele>
        <time>2019-08-13T10:54:15Z</time>
      </trkpt>
      <trkpt lat="40.1586520" lon="-4.3978860">
        <ele>422.3</ele>
        <time>2019-08-13T10:54:16Z</time>
      </trkpt>
      <trkpt lat="40.1586880" lon="-4.3979350">
        <ele>422.3</ele>
        <time>2019-08-13T10:54:17Z</time>
      </trkpt>
      <trkpt lat="40.1587260" lon="-4.3979830">
        <ele>422.2</ele>
        <time>2019-08-13T10:54:18Z</time>
      </trkpt>
      <trkpt lat="40.1587630" lon="-4.3980300">
        <ele>422.2</ele>
        <time>2019-08-13T10:54:19Z</time>
      </trkpt>
      <trkpt lat="40.1587960" lon="-4.3980750">
        <ele>422.2</ele>
        <time>2019-08-13T10:54:20Z</time>
      </trkpt>
      <trkpt lat="40.1588280" lon="-4.3981200">
        <ele>422.2</ele>
        <time>2019-08-13T10:54:21Z</time>
      </trkpt>
      <trkpt lat="40.1588590" lon="-4.3981670">
        <ele>422.1</ele>
        <time>2019-08-13T10:54:22Z</time>
      </trkpt>
      <trkpt lat="40.1588910" lon="-4.3982130">
        <ele>422.1</ele>
        <time>2019-08-13T10:54:23Z</time>
      </trkpt>
      <trkpt lat="40.1589240" lon="-4.3982600">
        <ele>422.1</ele>
        <time>2019-08-13T10:54:24Z</time>
      </trkpt>
      <trkpt lat="40.1589590" lon="-4.3983040">
        <ele>422.0</ele>
        <time>2019-08-13T10:54:25Z</time>
      </trkpt>
      <trkpt lat="40.1589950" lon="-4.3983440">
        <ele>421.9</ele>
        <time>2019-08-13T10:54:26Z</time>
      </trkpt>
      <trkpt lat="40.1590280" lon="-4.3983870">
        <ele>421.8</ele>
        <time>2019-08-13T10:54:27Z</time>
      </trkpt>
      <trkpt lat="40.1590590" lon="-4.3984300">
        <ele>421.8</ele>
        <time>2019-08-13T10:54:28Z</time>
      </trkpt>
      <trkpt lat="40.1590880" lon="-4.3984740">
        <ele>421.7</ele>
        <time>2019-08-13T10:54:29Z</time>
      </trkpt>
      <trkpt lat="40.1591120" lon="-4.3985190">
        <ele>421.7</ele>
        <time>2019-08-13T10:54:30Z</time>
      </trkpt>
      <trkpt lat="40.1591320" lon="-4.3985670">
        <ele>421.7</ele>
        <time>2019-08-13T10:54:31Z</time>
      </trkpt>
      <trkpt lat="40.1591460" lon="-4.3986190">
        <ele>421.7</ele>
        <time>2019-08-13T10:54:32Z</time>
      </trkpt>
      <trkpt lat="40.1591570" lon="-4.3986720">
        <ele>421.7</ele>
        <time>2019-08-13T10:54:33Z</time>
      </trkpt>
      <trkpt lat="40.1591700" lon="-4.3987220">
        <ele>421.7</ele>
        <time>2019-08-13T10:54:34Z</time>
      </trkpt>
      <trkpt lat="40.1591890" lon="-4.3987680">
        <ele>421.6</ele>
        <time>2019-08-13T10:54:35Z</time>
      </trkpt>
      <trkpt lat="40.1592150" lon="-4.3988120">
        <ele>421.6</ele>
        <time>2019-08-13T10:54:36Z</time>
      </trkpt>
      <trkpt lat="40.1592460" lon="-4.3988480">
        <ele>421.6</ele>
        <time>2019-08-13T10:54:37Z</time>
      </trkpt>
      <trkpt lat="40.1592790" lon="-4.3988740">
        <ele>421.6</ele>
        <time>2019-08-13T10:54:38Z</time>
      </trkpt>
      <trkpt lat="40.1593160" lon="-4.3988880">
        <ele>421.6</ele>
        <time>2019-08-13T10:54:39Z</time>
      </trkpt>
      <trkpt lat="40.1593500" lon="-4.3988910">
        <ele>421.6</ele>
        <time>2019-08-13T10:54:40Z</time>
      </trkpt>
      <trkpt lat="40.1593850" lon="-4.3988780">
        <ele>421.6</ele>
        <time>2019-08-13T10:54:41Z</time>
      </trkpt>
      <trkpt lat="40.1594210" lon="-4.3988630">
        <ele>421.6</ele>
        <time>2019-08-13T10:54:42Z</time>
      </trkpt>
      <trkpt lat="40.1594600" lon="-4.3988510">
        <ele>421.6</ele>
        <time>2019-08-13T10:54:43Z</time>
      </trkpt>
      <trkpt lat="40.1595020" lon="-4.3988470">
        <ele>421.6</ele>
        <time>2019-08-13T10:54:44Z</time>
      </trkpt>
      <trkpt lat="40.1595450" lon="-4.3988500">
        <ele>421.6</ele>
        <time>2019-08-13T10:54:45Z</time>
      </trkpt>
      <trkpt lat="40.1595880" lon="-4.3988590">
        <ele>421.6</ele>
        <time>2019-08-13T10:54:46Z</time>
      </trkpt>
      <trkpt lat="40.1596290" lon="-4.3988660">
        <ele>421.6</ele>
        <time>2019-08-13T10:54:47Z</time>
      </trkpt>
      <trkpt lat="40.1596670" lon="-4.3988610">
        <ele>421.6</ele>
        <time>2019-08-13T10:54:48Z</time>
      </trkpt>
      <trkpt lat="40.1596990" lon="-4.3988400">
        <ele>421.6</ele>
        <time>2019-08-13T10:54:49Z</time>
      </trkpt>
      <trkpt lat="40.1597240" lon="-4.3988110">
        <ele>421.6</ele>
        <time>2019-08-13T10:54:50Z</time>
      </trkpt>
      <trkpt lat="40.1597470" lon="-4.3987880">
        <ele>421.6</ele>
        <time>2019-08-13T10:54:51Z</time>
      </trkpt>
      <trkpt lat="40.1597890" lon="-4.3987970">
        <ele>421.6</ele>
        <time>2019-08-13T10:54:53Z</time>
      </trkpt>
      <trkpt lat="40.1598150" lon="-4.3988580">
        <ele>421.6</ele>
        <time>2019-08-13T10:54:55Z</time>
      </trkpt>
      <trkpt lat="40.1598290" lon="-4.3988930">
        <ele>421.6</ele>
        <time>2019-08-13T10:54:56Z</time>
      </trkpt>
      <trkpt lat="40.1598410" lon="-4.3989260">
        <ele>421.6</ele>
        <time>2019-08-13T10:54:57Z</time>
      </trkpt>
      <trkpt lat="40.1598520" lon="-4.3989620">
        <ele>421.6</ele>
        <time>2019-08-13T10:54:58Z</time>
      </trkpt>
      <trkpt lat="40.1598640" lon="-4.3990000">
        <ele>421.6</ele>
        <time>2019-08-13T10:54:59Z</time>
      </trkpt>
      <trkpt lat="40.1598800" lon="-4.3990360">
        <ele>421.6</ele>
        <time>2019-08-13T10:55:00Z</time>
      </trkpt>
      <trkpt lat="40.1598920" lon="-4.3990720">
        <ele>421.6</ele>
        <time>2019-08-13T10:55:01Z</time>
      </trkpt>
      <trkpt lat="40.1599060" lon="-4.3991040">
        <ele>421.6</ele>
        <time>2019-08-13T10:55:02Z</time>
      </trkpt>
      <trkpt lat="40.1599190" lon="-4.3991360">
        <ele>421.6</ele>
        <time>2019-08-13T10:55:03Z</time>
      </trkpt>
      <trkpt lat="40.1599130" lon="-4.3992010">
        <ele>421.6</ele>
        <time>2019-08-13T10:55:05Z</time>
      </trkpt>
      <trkpt lat="40.1598990" lon="-4.3992310">
        <ele>421.6</ele>
        <time>2019-08-13T10:55:06Z</time>
      </trkpt>
      <trkpt lat="40.1598840" lon="-4.3992630">
        <ele>421.6</ele>
        <time>2019-08-13T10:55:07Z</time>
      </trkpt>
      <trkpt lat="40.1598700" lon="-4.3992980">
        <ele>421.6</ele>
        <time>2019-08-13T10:55:08Z</time>
      </trkpt>
      <trkpt lat="40.1598560" lon="-4.3993310">
        <ele>421.5</ele>
        <time>2019-08-13T10:55:09Z</time>
      </trkpt>
      <trkpt lat="40.1598280" lon="-4.3993860">
        <ele>421.5</ele>
        <time>2019-08-13T10:55:11Z</time>
      </trkpt>
      <trkpt lat="40.1598040" lon="-4.3994440">
        <ele>421.5</ele>
        <time>2019-08-13T10:55:13Z</time>
      </trkpt>
      <trkpt lat="40.1597880" lon="-4.3994950">
        <ele>421.4</ele>
        <time>2019-08-13T10:55:15Z</time>
      </trkpt>
      <trkpt lat="40.1597980" lon="-4.3995630">
        <ele>421.4</ele>
        <time>2019-08-13T10:55:17Z</time>
      </trkpt>
      <trkpt lat="40.1598160" lon="-4.3995990">
        <ele>421.4</ele>
        <time>2019-08-13T10:55:18Z</time>
      </trkpt>
      <trkpt lat="40.1598410" lon="-4.3996350">
        <ele>421.4</ele>
        <time>2019-08-13T10:55:19Z</time>
      </trkpt>
      <trkpt lat="40.1598690" lon="-4.3996700">
        <ele>421.3</ele>
        <time>2019-08-13T10:55:20Z</time>
      </trkpt>
      <trkpt lat="40.1599000" lon="-4.3997050">
        <ele>421.3</ele>
        <time>2019-08-13T10:55:21Z</time>
      </trkpt>
      <trkpt lat="40.1599320" lon="-4.3997380">
        <ele>421.3</ele>
        <time>2019-08-13T10:55:22Z</time>
      </trkpt>
      <trkpt lat="40.1599640" lon="-4.3997710">
        <ele>421.3</ele>
        <time>2019-08-13T10:55:23Z</time>
      </trkpt>
      <trkpt lat="40.1599960" lon="-4.3998040">
        <ele>421.3</ele>
        <time>2019-08-13T10:55:24Z</time>
      </trkpt>
      <trkpt lat="40.1600290" lon="-4.3998380">
        <ele>421.3</ele>
        <time>2019-08-13T10:55:25Z</time>
      </trkpt>
      <trkpt lat="40.1600610" lon="-4.3998710">
        <ele>421.2</ele>
        <time>2019-08-13T10:55:26Z</time>
      </trkpt>
      <trkpt lat="40.1600930" lon="-4.3999030">
        <ele>421.2</ele>
        <time>2019-08-13T10:55:27Z</time>
      </trkpt>
      <trkpt lat="40.1601260" lon="-4.3999370">
        <ele>421.1</ele>
        <time>2019-08-13T10:55:28Z</time>
      </trkpt>
      <trkpt lat="40.1601580" lon="-4.3999730">
        <ele>421.1</ele>
        <time>2019-08-13T10:55:29Z</time>
      </trkpt>
      <trkpt lat="40.1601900" lon="-4.4000100">
        <ele>421.1</ele>
        <time>2019-08-13T10:55:30Z</time>
      </trkpt>
      <trkpt lat="40.1602240" lon="-4.4000470">
        <ele>421.1</ele>
        <time>2019-08-13T10:55:31Z</time>
      </trkpt>
      <trkpt lat="40.1602580" lon="-4.4000840">
        <ele>421.1</ele>
        <time>2019-08-13T10:55:32Z</time>
      </trkpt>
      <trkpt lat="40.1602920" lon="-4.4001220">
        <ele>421.1</ele>
        <time>2019-08-13T10:55:33Z</time>
      </trkpt>
      <trkpt lat="40.1603260" lon="-4.4001590">
        <ele>421.1</ele>
        <time>2019-08-13T10:55:34Z</time>
      </trkpt>
      <trkpt lat="40.1603600" lon="-4.4001940">
        <ele>421.2</ele>
        <time>2019-08-13T10:55:35Z</time>
      </trkpt>
      <trkpt lat="40.1603940" lon="-4.4002290">
        <ele>421.2</ele>
        <time>2019-08-13T10:55:36Z</time>
      </trkpt>
      <trkpt lat="40.1604260" lon="-4.4002660">
        <ele>421.3</ele>
        <time>2019-08-13T10:55:37Z</time>
      </trkpt>
      <trkpt lat="40.1604590" lon="-4.4003020">
        <ele>421.4</ele>
        <time>2019-08-13T10:55:38Z</time>
      </trkpt>
      <trkpt lat="40.1604930" lon="-4.4003390">
        <ele>421.5</ele>
        <time>2019-08-13T10:55:39Z</time>
      </trkpt>
      <trkpt lat="40.1605280" lon="-4.4003750">
        <ele>421.5</ele>
        <time>2019-08-13T10:55:40Z</time>
      </trkpt>
      <trkpt lat="40.1605620" lon="-4.4004120">
        <ele>421.6</ele>
        <time>2019-08-13T10:55:41Z</time>
      </trkpt>
      <trkpt lat="40.1605960" lon="-4.4004510">
        <ele>421.7</ele>
        <time>2019-08-13T10:55:42Z</time>
      </trkpt>
      <trkpt lat="40.1606310" lon="-4.4004890">
        <ele>421.8</ele>
        <time>2019-08-13T10:55:43Z</time>
      </trkpt>
      <trkpt lat="40.1606660" lon="-4.4005270">
        <ele>421.8</ele>
        <time>2019-08-13T10:55:44Z</time>
      </trkpt>
      <trkpt lat="40.1607010" lon="-4.4005650">
        <ele>421.9</ele>
        <time>2019-08-13T10:55:45Z</time>
      </trkpt>
      <trkpt lat="40.1607360" lon="-4.4006050">
        <ele>421.9</ele>
        <time>2019-08-13T10:55:46Z</time>
      </trkpt>
      <trkpt lat="40.1607710" lon="-4.4006450">
        <ele>421.9</ele>
        <time>2019-08-13T10:55:47Z</time>
      </trkpt>
      <trkpt lat="40.1608070" lon="-4.4006840">
        <ele>421.8</ele>
        <time>2019-08-13T10:55:48Z</time>
      </trkpt>
      <trkpt lat="40.1608430" lon="-4.4007230">
        <ele>421.8</ele>
        <time>2019-08-13T10:55:49Z</time>
      </trkpt>
      <trkpt lat="40.1608790" lon="-4.4007620">
        <ele>421.7</ele>
        <time>2019-08-13T10:55:50Z</time>
      </trkpt>
      <trkpt lat="40.1609160" lon="-4.4008010">
        <ele>421.6</ele>
        <time>2019-08-13T10:55:51Z</time>
      </trkpt>
      <trkpt lat="40.1609520" lon="-4.4008400">
        <ele>421.5</ele>
        <time>2019-08-13T10:55:52Z</time>
      </trkpt>
      <trkpt lat="40.1609880" lon="-4.4008790">
        <ele>421.4</ele>
        <time>2019-08-13T10:55:53Z</time>
      </trkpt>
      <trkpt lat="40.1610240" lon="-4.4009160">
        <ele>421.3</ele>
        <time>2019-08-13T10:55:54Z</time>
      </trkpt>
      <trkpt lat="40.1610580" lon="-4.4009530">
        <ele>421.1</ele>
        <time>2019-08-13T10:55:55Z</time>
      </trkpt>
      <trkpt lat="40.1610910" lon="-4.4009910">
        <ele>421.0</ele>
        <time>2019-08-13T10:55:56Z</time>
      </trkpt>
      <trkpt lat="40.1611240" lon="-4.4010300">
        <ele>420.8</ele>
        <time>2019-08-13T10:55:57Z</time>
      </trkpt>
      <trkpt lat="40.1611570" lon="-4.4010680">
        <ele>420.7</ele>
        <time>2019-08-13T10:55:58Z</time>
      </trkpt>
      <trkpt lat="40.1611890" lon="-4.4011070">
        <ele>420.6</ele>
        <time>2019-08-13T10:55:59Z</time>
      </trkpt>
      <trkpt lat="40.1612220" lon="-4.4011440">
        <ele>420.4</ele>
        <time>2019-08-13T10:56:00Z</time>
      </trkpt>
      <trkpt lat="40.1612540" lon="-4.4011820">
        <ele>420.8</ele>
        <time>2019-08-13T10:56:01Z</time>
      </trkpt>
      <trkpt lat="40.1612850" lon="-4.4012190">
        <ele>421.3</ele>
        <time>2019-08-13T10:56:02Z</time>
      </trkpt>
      <trkpt lat="40.1613150" lon="-4.4012540">
        <ele>421.6</ele>
        <time>2019-08-13T10:56:03Z</time>
      </trkpt>
      <trkpt lat="40.1613460" lon="-4.4012890">
        <ele>422.0</ele>
        <time>2019-08-13T10:56:04Z</time>
      </trkpt>
      <trkpt lat="40.1613770" lon="-4.4013260">
        <ele>422.3</ele>
        <time>2019-08-13T10:56:05Z</time>
      </trkpt>
      <trkpt lat="40.1614090" lon="-4.4013630">
        <ele>422.5</ele>
        <time>2019-08-13T10:56:06Z</time>
      </trkpt>
      <trkpt lat="40.1614420" lon="-4.4014010">
        <ele>422.7</ele>
        <time>2019-08-13T10:56:07Z</time>
      </trkpt>
      <trkpt lat="40.1614780" lon="-4.4014400">
        <ele>422.8</ele>
        <time>2019-08-13T10:56:08Z</time>
      </trkpt>
      <trkpt lat="40.1615150" lon="-4.4014810">
        <ele>423.0</ele>
        <time>2019-08-13T10:56:09Z</time>
      </trkpt>
      <trkpt lat="40.1615530" lon="-4.4015240">
        <ele>423.2</ele>
        <time>2019-08-13T10:56:10Z</time>
      </trkpt>
      <trkpt lat="40.1615920" lon="-4.4015650">
        <ele>423.4</ele>
        <time>2019-08-13T10:56:11Z</time>
      </trkpt>
      <trkpt lat="40.1616320" lon="-4.4016090">
        <ele>423.7</ele>
        <time>2019-08-13T10:56:12Z</time>
      </trkpt>
      <trkpt lat="40.1616730" lon="-4.4016540">
        <ele>424.1</ele>
        <time>2019-08-13T10:56:13Z</time>
      </trkpt>
      <trkpt lat="40.1617140" lon="-4.4017000">
        <ele>424.5</ele>
        <time>2019-08-13T10:56:14Z</time>
      </trkpt>
      <trkpt lat="40.1617550" lon="-4.4017470">
        <ele>424.9</ele>
        <time>2019-08-13T10:56:15Z</time>
      </trkpt>
      <trkpt lat="40.1617930" lon="-4.4017910">
        <ele>425.2</ele>
        <time>2019-08-13T10:56:16Z</time>
      </trkpt>
      <trkpt lat="40.1618300" lon="-4.4018330">
        <ele>425.4</ele>
        <time>2019-08-13T10:56:17Z</time>
      </trkpt>
      <trkpt lat="40.1618680" lon="-4.4018760">
        <ele>425.6</ele>
        <time>2019-08-13T10:56:18Z</time>
      </trkpt>
      <trkpt lat="40.1619060" lon="-4.4019190">
        <ele>425.7</ele>
        <time>2019-08-13T10:56:19Z</time>
      </trkpt>
      <trkpt lat="40.1619450" lon="-4.4019600">
        <ele>425.8</ele>
        <time>2019-08-13T10:56:20Z</time>
      </trkpt>
      <trkpt lat="40.1619850" lon="-4.4020040">
        <ele>425.9</ele>
        <time>2019-08-13T10:56:21Z</time>
      </trkpt>
      <trkpt lat="40.1620250" lon="-4.4020470">
        <ele>426.1</ele>
        <time>2019-08-13T10:56:22Z</time>
      </trkpt>
      <trkpt lat="40.1620640" lon="-4.4020910">
        <ele>426.2</ele>
        <time>2019-08-13T10:56:23Z</time>
      </trkpt>
      <trkpt lat="40.1621020" lon="-4.4021340">
        <ele>426.5</ele>
        <time>2019-08-13T10:56:24Z</time>
      </trkpt>
      <trkpt lat="40.1621410" lon="-4.4021770">
        <ele>426.8</ele>
        <time>2019-08-13T10:56:25Z</time>
      </trkpt>
      <trkpt lat="40.1621800" lon="-4.4022200">
        <ele>427.1</ele>
        <time>2019-08-13T10:56:26Z</time>
      </trkpt>
      <trkpt lat="40.1622200" lon="-4.4022620">
        <ele>427.5</ele>
        <time>2019-08-13T10:56:27Z</time>
      </trkpt>
      <trkpt lat="40.1622590" lon="-4.4023040">
        <ele>427.9</ele>
        <time>2019-08-13T10:56:28Z</time>
      </trkpt>
      <trkpt lat="40.1622960" lon="-4.4023450">
        <ele>428.3</ele>
        <time>2019-08-13T10:56:29Z</time>
      </trkpt>
      <trkpt lat="40.1623330" lon="-4.4023840">
        <ele>428.7</ele>
        <time>2019-08-13T10:56:30Z</time>
      </trkpt>
      <trkpt lat="40.1623680" lon="-4.4024230">
        <ele>429.1</ele>
        <time>2019-08-13T10:56:31Z</time>
      </trkpt>
      <trkpt lat="40.1624020" lon="-4.4024610">
        <ele>429.4</ele>
        <time>2019-08-13T10:56:32Z</time>
      </trkpt>
      <trkpt lat="40.1624360" lon="-4.4024990">
        <ele>429.6</ele>
        <time>2019-08-13T10:56:33Z</time>
      </trkpt>
      <trkpt lat="40.1624690" lon="-4.4025350">
        <ele>429.8</ele>
        <time>2019-08-13T10:56:34Z</time>
      </trkpt>
      <trkpt lat="40.1625010" lon="-4.4025700">
        <ele>430.0</ele>
        <time>2019-08-13T10:56:35Z</time>
      </trkpt>
      <trkpt lat="40.1625300" lon="-4.4026030">
        <ele>430.1</ele>
        <time>2019-08-13T10:56:36Z</time>
      </trkpt>
      <trkpt lat="40.1625550" lon="-4.4026310">
        <ele>430.2</ele>
        <time>2019-08-13T10:56:37Z</time>
      </trkpt>
      <trkpt lat="40.1625770" lon="-4.4026540">
        <ele>430.2</ele>
        <time>2019-08-13T10:56:38Z</time>
      </trkpt>
      <trkpt lat="40.1626070" lon="-4.4026730">
        <ele>430.3</ele>
        <time>2019-08-13T10:56:40Z</time>
      </trkpt>
      <trkpt lat="40.1626470" lon="-4.4027200">
        <ele>430.4</ele>
        <time>2019-08-13T10:58:22Z</time>
      </trkpt>
      <trkpt lat="40.1626840" lon="-4.4027640">
        <ele>430.4</ele>
        <time>2019-08-13T10:58:24Z</time>
      </trkpt>
      <trkpt lat="40.1627090" lon="-4.4027890">
        <ele>430.5</ele>
        <time>2019-08-13T10:58:25Z</time>
      </trkpt>
      <trkpt lat="40.1627350" lon="-4.4028170">
        <ele>430.5</ele>
        <time>2019-08-13T10:58:26Z</time>
      </trkpt>
      <trkpt lat="40.1627620" lon="-4.4028470">
        <ele>430.6</ele>
        <time>2019-08-13T10:58:27Z</time>
      </trkpt>
      <trkpt lat="40.1627920" lon="-4.4028800">
        <ele>430.6</ele>
        <time>2019-08-13T10:58:28Z</time>
      </trkpt>
      <trkpt lat="40.1628220" lon="-4.4029120">
        <ele>430.7</ele>
        <time>2019-08-13T10:58:29Z</time>
      </trkpt>
      <trkpt lat="40.1628520" lon="-4.4029440">
        <ele>430.7</ele>
        <time>2019-08-13T10:58:30Z</time>
      </trkpt>
      <trkpt lat="40.1628840" lon="-4.4029800">
        <ele>430.8</ele>
        <time>2019-08-13T10:58:31Z</time>
      </trkpt>
      <trkpt lat="40.1629170" lon="-4.4030150">
        <ele>430.8</ele>
        <time>2019-08-13T10:58:32Z</time>
      </trkpt>
      <trkpt lat="40.1629480" lon="-4.4030520">
        <ele>430.9</ele>
        <time>2019-08-13T10:58:33Z</time>
      </trkpt>
      <trkpt lat="40.1629810" lon="-4.4030880">
        <ele>430.9</ele>
        <time>2019-08-13T10:58:34Z</time>
      </trkpt>
      <trkpt lat="40.1630130" lon="-4.4031230">
        <ele>431.0</ele>
        <time>2019-08-13T10:58:35Z</time>
      </trkpt>
      <trkpt lat="40.1630440" lon="-4.4031580">
        <ele>431.0</ele>
        <time>2019-08-13T10:58:36Z</time>
      </trkpt>
      <trkpt lat="40.1630750" lon="-4.4031920">
        <ele>431.1</ele>
        <time>2019-08-13T10:58:37Z</time>
      </trkpt>
      <trkpt lat="40.1631050" lon="-4.4032240">
        <ele>431.1</ele>
        <time>2019-08-13T10:58:38Z</time>
      </trkpt>
      <trkpt lat="40.1631350" lon="-4.4032560">
        <ele>431.2</ele>
        <time>2019-08-13T10:58:39Z</time>
      </trkpt>
      <trkpt lat="40.1631630" lon="-4.4032880">
        <ele>432.2</ele>
        <time>2019-08-13T10:58:40Z</time>
      </trkpt>
      <trkpt lat="40.1631920" lon="-4.4033180">
        <ele>432.8</ele>
        <time>2019-08-13T10:58:41Z</time>
      </trkpt>
      <trkpt lat="40.1632180" lon="-4.4033490">
        <ele>433.3</ele>
        <time>2019-08-13T10:58:42Z</time>
      </trkpt>
      <trkpt lat="40.1632450" lon="-4.4033770">
        <ele>434.6</ele>
        <time>2019-08-13T10:58:43Z</time>
      </trkpt>
      <trkpt lat="40.1632690" lon="-4.4034030">
        <ele>435.5</ele>
        <time>2019-08-13T10:58:44Z</time>
      </trkpt>
      <trkpt lat="40.1632930" lon="-4.4034280">
        <ele>436.3</ele>
        <time>2019-08-13T10:58:45Z</time>
      </trkpt>
      <trkpt lat="40.1633170" lon="-4.4034500">
        <ele>437.2</ele>
        <time>2019-08-13T10:58:46Z</time>
      </trkpt>
      <trkpt lat="40.1633400" lon="-4.4034700">
        <ele>437.9</ele>
        <time>2019-08-13T10:58:47Z</time>
      </trkpt>
      <trkpt lat="40.1633660" lon="-4.4034870">
        <ele>438.7</ele>
        <time>2019-08-13T10:58:48Z</time>
      </trkpt>
      <trkpt lat="40.1634140" lon="-4.4035160">
        <ele>440.2</ele>
        <time>2019-08-13T10:58:50Z</time>
      </trkpt>
      <trkpt lat="40.1634580" lon="-4.4035520">
        <ele>439.4</ele>
        <time>2019-08-13T10:58:52Z</time>
      </trkpt>
      <trkpt lat="40.1634920" lon="-4.4035910">
        <ele>438.9</ele>
        <time>2019-08-13T10:58:54Z</time>
      </trkpt>
      <trkpt lat="40.1635110" lon="-4.4036040">
        <ele>438.7</ele>
        <time>2019-08-13T10:59:01Z</time>
      </trkpt>
      <trkpt lat="40.1697390" lon="-4.4053100">
        <ele>470.5</ele>
        <time>2019-08-13T11:13:25Z</time>
      </trkpt>
      <trkpt lat="40.1697700" lon="-4.4053180">
        <ele>471.5</ele>
        <time>2019-08-13T11:13:26Z</time>
      </trkpt>
      <trkpt lat="40.1698000" lon="-4.4053230">
        <ele>472.6</ele>
        <time>2019-08-13T11:13:27Z</time>
      </trkpt>
      <trkpt lat="40.1698310" lon="-4.4053280">
        <ele>473.6</ele>
        <time>2019-08-13T11:13:28Z</time>
      </trkpt>
      <trkpt lat="40.1698620" lon="-4.4053300">
        <ele>473.6</ele>
        <time>2019-08-13T11:13:29Z</time>
      </trkpt>
      <trkpt lat="40.1698920" lon="-4.4053330">
        <ele>473.6</ele>
        <time>2019-08-13T11:13:30Z</time>
      </trkpt>
      <trkpt lat="40.1699200" lon="-4.4053370">
        <ele>473.6</ele>
        <time>2019-08-13T11:13:31Z</time>
      </trkpt>
      <trkpt lat="40.1699490" lon="-4.4053400">
        <ele>473.6</ele>
        <time>2019-08-13T11:13:32Z</time>
      </trkpt>
      <trkpt lat="40.1699780" lon="-4.4053440">
        <ele>473.6</ele>
        <time>2019-08-13T11:13:33Z</time>
      </trkpt>
      <trkpt lat="40.1700070" lon="-4.4053490">
        <ele>473.7</ele>
        <time>2019-08-13T11:13:34Z</time>
      </trkpt>
      <trkpt lat="40.1700350" lon="-4.4053530">
        <ele>473.7</ele>
        <time>2019-08-13T11:13:35Z</time>
      </trkpt>
      <trkpt lat="40.1700650" lon="-4.4053560">
        <ele>473.8</ele>
        <time>2019-08-13T11:13:36Z</time>
      </trkpt>
      <trkpt lat="40.1700940" lon="-4.4053600">
        <ele>473.8</ele>
        <time>2019-08-13T11:13:37Z</time>
      </trkpt>
      <trkpt lat="40.1701220" lon="-4.4053630">
        <ele>473.9</ele>
        <time>2019-08-13T11:13:38Z</time>
      </trkpt>
      <trkpt lat="40.1701500" lon="-4.4053670">
        <ele>474.0</ele>
        <time>2019-08-13T11:13:39Z</time>
      </trkpt>
      <trkpt lat="40.1701780" lon="-4.4053690">
        <ele>474.1</ele>
        <time>2019-08-13T11:13:40Z</time>
      </trkpt>
      <trkpt lat="40.1702060" lon="-4.4053710">
        <ele>474.2</ele>
        <time>2019-08-13T11:13:41Z</time>
      </trkpt>
      <trkpt lat="40.1702350" lon="-4.4053740">
        <ele>474.3</ele>
        <time>2019-08-13T11:13:42Z</time>
      </trkpt>
      <trkpt lat="40.1702640" lon="-4.4053760">
        <ele>474.4</ele>
        <time>2019-08-13T11:13:43Z</time>
      </trkpt>
      <trkpt lat="40.1702930" lon="-4.4053800">
        <ele>474.5</ele>
        <time>2019-08-13T11:13:44Z</time>
      </trkpt>
      <trkpt lat="40.1703230" lon="-4.4053840">
        <ele>474.6</ele>
        <time>2019-08-13T11:13:45Z</time>
      </trkpt>
      <trkpt lat="40.1703510" lon="-4.4053870">
        <ele>474.7</ele>
        <time>2019-08-13T11:13:46Z</time>
      </trkpt>
      <trkpt lat="40.1703810" lon="-4.4053890">
        <ele>474.8</ele>
        <time>2019-08-13T11:13:47Z</time>
      </trkpt>
      <trkpt lat="40.1704100" lon="-4.4053880">
        <ele>474.8</ele>
        <time>2019-08-13T11:13:48Z</time>
      </trkpt>
      <trkpt lat="40.1704400" lon="-4.4053880">
        <ele>474.8</ele>
        <time>2019-08-13T11:13:49Z</time>
      </trkpt>
      <trkpt lat="40.1704700" lon="-4.4053880">
        <ele>474.9</ele>
        <time>2019-08-13T11:13:50Z</time>
      </trkpt>
      <trkpt lat="40.1705020" lon="-4.4053900">
        <ele>475.0</ele>
        <time>2019-08-13T11:13:51Z</time>
      </trkpt>
      <trkpt lat="40.1705340" lon="-4.4053950">
        <ele>475.0</ele>
        <time>2019-08-13T11:13:52Z</time>
      </trkpt>
      <trkpt lat="40.1705640" lon="-4.4054000">
        <ele>475.1</ele>
        <time>2019-08-13T11:13:53Z</time>
      </trkpt>
      <trkpt lat="40.1705930" lon="-4.4054020">
        <ele>475.1</ele>
        <time>2019-08-13T11:13:54Z</time>
      </trkpt>
      <trkpt lat="40.1706200" lon="-4.4054050">
        <ele>475.1</ele>
        <time>2019-08-13T11:13:55Z</time>
      </trkpt>
      <trkpt lat="40.1706690" lon="-4.4054100">
        <ele>475.2</ele>
        <time>2019-08-13T11:13:57Z</time>
      </trkpt>
      <trkpt lat="40.1707190" lon="-4.4054160">
        <ele>475.3</ele>
        <time>2019-08-13T11:13:59Z</time>
      </trkpt>
      <trkpt lat="40.1707480" lon="-4.4054180">
        <ele>475.3</ele>
        <time>2019-08-13T11:14:00Z</time>
      </trkpt>
      <trkpt lat="40.1707780" lon="-4.4054200">
        <ele>475.4</ele>
        <time>2019-08-13T11:14:01Z</time>
      </trkpt>
      <trkpt lat="40.1708100" lon="-4.4054230">
        <ele>475.4</ele>
        <time>2019-08-13T11:14:02Z</time>
      </trkpt>
      <trkpt lat="40.1708430" lon="-4.4054260">
        <ele>475.5</ele>
        <time>2019-08-13T11:14:03Z</time>
      </trkpt>
      <trkpt lat="40.1708760" lon="-4.4054280">
        <ele>475.5</ele>
        <time>2019-08-13T11:14:04Z</time>
      </trkpt>
      <trkpt lat="40.1709110" lon="-4.4054320">
        <ele>475.6</ele>
        <time>2019-08-13T11:14:05Z</time>
      </trkpt>
      <trkpt lat="40.1709480" lon="-4.4054370">
        <ele>475.6</ele>
        <time>2019-08-13T11:14:06Z</time>
      </trkpt>
      <trkpt lat="40.1709850" lon="-4.4054420">
        <ele>475.7</ele>
        <time>2019-08-13T11:14:07Z</time>
      </trkpt>
      <trkpt lat="40.1710230" lon="-4.4054460">
        <ele>475.8</ele>
        <time>2019-08-13T11:14:08Z</time>
      </trkpt>
      <trkpt lat="40.1710610" lon="-4.4054510">
        <ele>475.8</ele>
        <time>2019-08-13T11:14:09Z</time>
      </trkpt>
      <trkpt lat="40.1710970" lon="-4.4054560">
        <ele>475.8</ele>
        <time>2019-08-13T11:14:10Z</time>
      </trkpt>
      <trkpt lat="40.1711310" lon="-4.4054600">
        <ele>475.9</ele>
        <time>2019-08-13T11:14:11Z</time>
      </trkpt>
      <trkpt lat="40.1711630" lon="-4.4054630">
        <ele>475.9</ele>
        <time>2019-08-13T11:14:12Z</time>
      </trkpt>
      <trkpt lat="40.1711920" lon="-4.4054610">
        <ele>476.0</ele>
        <time>2019-08-13T11:14:13Z</time>
      </trkpt>
      <trkpt lat="40.1712220" lon="-4.4054500">
        <ele>476.0</ele>
        <time>2019-08-13T11:14:14Z</time>
      </trkpt>
      <trkpt lat="40.1712530" lon="-4.4054380">
        <ele>476.1</ele>
        <time>2019-08-13T11:14:15Z</time>
      </trkpt>
      <trkpt lat="40.1712870" lon="-4.4054360">
        <ele>476.1</ele>
        <time>2019-08-13T11:14:16Z</time>
      </trkpt>
      <trkpt lat="40.1713240" lon="-4.4054420">
        <ele>476.2</ele>
        <time>2019-08-13T11:14:17Z</time>
      </trkpt>
      <trkpt lat="40.1713620" lon="-4.4054550">
        <ele>476.2</ele>
        <time>2019-08-13T11:14:18Z</time>
      </trkpt>
      <trkpt lat="40.1714030" lon="-4.4054730">
        <ele>476.3</ele>
        <time>2019-08-13T11:14:19Z</time>
      </trkpt>
      <trkpt lat="40.1714410" lon="-4.4054880">
        <ele>476.3</ele>
        <time>2019-08-13T11:14:20Z</time>
      </trkpt>
      <trkpt lat="40.1714820" lon="-4.4055010">
        <ele>476.3</ele>
        <time>2019-08-13T11:14:21Z</time>
      </trkpt>
      <trkpt lat="40.1715250" lon="-4.4055090">
        <ele>476.3</ele>
        <time>2019-08-13T11:14:22Z</time>
      </trkpt>
      <trkpt lat="40.1715710" lon="-4.4055140">
        <ele>476.3</ele>
        <time>2019-08-13T11:14:23Z</time>
      </trkpt>
      <trkpt lat="40.1716180" lon="-4.4055190">
        <ele>476.3</ele>
        <time>2019-08-13T11:14:24Z</time>
      </trkpt>
      <trkpt lat="40.1716670" lon="-4.4055230">
        <ele>476.4</ele>
        <time>2019-08-13T11:14:25Z</time>
      </trkpt>
      <trkpt lat="40.1717160" lon="-4.4055280">
        <ele>476.4</ele>
        <time>2019-08-13T11:14:26Z</time>
      </trkpt>
      <trkpt lat="40.1717660" lon="-4.4055330">
        <ele>476.4</ele>
        <time>2019-08-13T11:14:27Z</time>
      </trkpt>
      <trkpt lat="40.1718150" lon="-4.4055400">
        <ele>476.4</ele>
        <time>2019-08-13T11:14:28Z</time>
      </trkpt>
      <trkpt lat="40.1718640" lon="-4.4055460">
        <ele>476.4</ele>
        <time>2019-08-13T11:14:29Z</time>
      </trkpt>
      <trkpt lat="40.1719120" lon="-4.4055480">
        <ele>476.4</ele>
        <time>2019-08-13T11:14:30Z</time>
      </trkpt>
      <trkpt lat="40.1719590" lon="-4.4055530">
        <ele>476.4</ele>
        <time>2019-08-13T11:14:31Z</time>
      </trkpt>
      <trkpt lat="40.1720050" lon="-4.4055570">
        <ele>476.4</ele>
        <time>2019-08-13T11:14:32Z</time>
      </trkpt>
      <trkpt lat="40.1720500" lon="-4.4055570">
        <ele>476.4</ele>
        <time>2019-08-13T11:14:33Z</time>
      </trkpt>
      <trkpt lat="40.1720960" lon="-4.4055580">
        <ele>476.5</ele>
        <time>2019-08-13T11:14:34Z</time>
      </trkpt>
      <trkpt lat="40.1721430" lon="-4.4055640">
        <ele>476.5</ele>
        <time>2019-08-13T11:14:35Z</time>
      </trkpt>
      <trkpt lat="40.1721920" lon="-4.4055710">
        <ele>476.5</ele>
        <time>2019-08-13T11:14:36Z</time>
      </trkpt>
      <trkpt lat="40.1722410" lon="-4.4055780">
        <ele>476.5</ele>
        <time>2019-08-13T11:14:37Z</time>
      </trkpt>
      <trkpt lat="40.1722910" lon="-4.4055850">
        <ele>476.5</ele>
        <time>2019-08-13T11:14:38Z</time>
      </trkpt>
      <trkpt lat="40.1723410" lon="-4.4055930">
        <ele>476.5</ele>
        <time>2019-08-13T11:14:39Z</time>
      </trkpt>
      <trkpt lat="40.1723900" lon="-4.4055990">
        <ele>476.5</ele>
        <time>2019-08-13T11:14:40Z</time>
      </trkpt>
      <trkpt lat="40.1724380" lon="-4.4056030">
        <ele>476.5</ele>
        <time>2019-08-13T11:14:41Z</time>
      </trkpt>
      <trkpt lat="40.1724840" lon="-4.4056060">
        <ele>476.5</ele>
        <time>2019-08-13T11:14:42Z</time>
      </trkpt>
      <trkpt lat="40.1725280" lon="-4.4056100">
        <ele>476.5</ele>
        <time>2019-08-13T11:14:43Z</time>
      </trkpt>
      <trkpt lat="40.1725690" lon="-4.4056150">
        <ele>476.5</ele>
        <time>2019-08-13T11:14:44Z</time>
      </trkpt>
      <trkpt lat="40.1726100" lon="-4.4056240">
        <ele>476.5</ele>
        <time>2019-08-13T11:14:45Z</time>
      </trkpt>
      <trkpt lat="40.1726490" lon="-4.4056420">
        <ele>476.5</ele>
        <time>2019-08-13T11:14:46Z</time>
      </trkpt>
      <trkpt lat="40.1726840" lon="-4.4056710">
        <ele>476.5</ele>
        <time>2019-08-13T11:14:47Z</time>
      </trkpt>
      <trkpt lat="40.1727160" lon="-4.4057040">
        <ele>476.6</ele>
        <time>2019-08-13T11:14:48Z</time>
      </trkpt>
      <trkpt lat="40.1727470" lon="-4.4057380">
        <ele>476.6</ele>
        <time>2019-08-13T11:14:49Z</time>
      </trkpt>
      <trkpt lat="40.1727780" lon="-4.4057700">
        <ele>476.6</ele>
        <time>2019-08-13T11:14:50Z</time>
      </trkpt>
      <trkpt lat="40.1728100" lon="-4.4057980">
        <ele>476.6</ele>
        <time>2019-08-13T11:14:51Z</time>
      </trkpt>
      <trkpt lat="40.1728430" lon="-4.4058210">
        <ele>476.6</ele>
        <time>2019-08-13T11:14:52Z</time>
      </trkpt>
      <trkpt lat="40.1728750" lon="-4.4058440">
        <ele>476.6</ele>
        <time>2019-08-13T11:14:53Z</time>
      </trkpt>
      <trkpt lat="40.1729060" lon="-4.4058700">
        <ele>476.7</ele>
        <time>2019-08-13T11:14:54Z</time>
      </trkpt>
      <trkpt lat="40.1729350" lon="-4.4058980">
        <ele>476.7</ele>
        <time>2019-08-13T11:14:55Z</time>
      </trkpt>
      <trkpt lat="40.1729660" lon="-4.4059270">
        <ele>476.7</ele>
        <time>2019-08-13T11:14:56Z</time>
      </trkpt>
      <trkpt lat="40.1729990" lon="-4.4059570">
        <ele>476.7</ele>
        <time>2019-08-13T11:14:57Z</time>
      </trkpt>
      <trkpt lat="40.1730350" lon="-4.4059870">
        <ele>476.8</ele>
        <time>2019-08-13T11:14:58Z</time>
      </trkpt>
      <trkpt lat="40.1730710" lon="-4.4060180">
        <ele>476.8</ele>
        <time>2019-08-13T11:14:59Z</time>
      </trkpt>
      <trkpt lat="40.1731080" lon="-4.4060500">
        <ele>476.8</ele>
        <time>2019-08-13T11:15:00Z</time>
      </trkpt>
      <trkpt lat="40.1731460" lon="-4.4060820">
        <ele>476.8</ele>
        <time>2019-08-13T11:15:01Z</time>
      </trkpt>
      <trkpt lat="40.1731860" lon="-4.4061140">
        <ele>476.8</ele>
        <time>2019-08-13T11:15:02Z</time>
      </trkpt>
      <trkpt lat="40.1732270" lon="-4.4061460">
        <ele>476.9</ele>
        <time>2019-08-13T11:15:03Z</time>
      </trkpt>
      <trkpt lat="40.1732690" lon="-4.4061790">
        <ele>476.9</ele>
        <time>2019-08-13T11:15:04Z</time>
      </trkpt>
      <trkpt lat="40.1733110" lon="-4.4062120">
        <ele>476.9</ele>
        <time>2019-08-13T11:15:05Z</time>
      </trkpt>
      <trkpt lat="40.1733530" lon="-4.4062460">
        <ele>476.9</ele>
        <time>2019-08-13T11:15:06Z</time>
      </trkpt>
      <trkpt lat="40.1733950" lon="-4.4062790">
        <ele>476.9</ele>
        <time>2019-08-13T11:15:07Z</time>
      </trkpt>
      <trkpt lat="40.1734370" lon="-4.4063140">
        <ele>476.9</ele>
        <time>2019-08-13T11:15:08Z</time>
      </trkpt>
      <trkpt lat="40.1734790" lon="-4.4063480">
        <ele>476.8</ele>
        <time>2019-08-13T11:15:09Z</time>
      </trkpt>
      <trkpt lat="40.1735240" lon="-4.4063820">
        <ele>476.8</ele>
        <time>2019-08-13T11:15:10Z</time>
      </trkpt>
      <trkpt lat="40.1735700" lon="-4.4064170">
        <ele>476.7</ele>
        <time>2019-08-13T11:15:11Z</time>
      </trkpt>
      <trkpt lat="40.1736160" lon="-4.4064510">
        <ele>476.7</ele>
        <time>2019-08-13T11:15:12Z</time>
      </trkpt>
      <trkpt lat="40.1736620" lon="-4.4064890">
        <ele>476.6</ele>
        <time>2019-08-13T11:15:13Z</time>
      </trkpt>
      <trkpt lat="40.1737050" lon="-4.4065310">
        <ele>476.6</ele>
        <time>2019-08-13T11:15:14Z</time>
      </trkpt>
      <trkpt lat="40.1737500" lon="-4.4065700">
        <ele>476.6</ele>
        <time>2019-08-13T11:15:15Z</time>
      </trkpt>
      <trkpt lat="40.1737980" lon="-4.4066080">
        <ele>476.5</ele>
        <time>2019-08-13T11:15:16Z</time>
      </trkpt>
      <trkpt lat="40.1738470" lon="-4.4066450">
        <ele>476.5</ele>
        <time>2019-08-13T11:15:17Z</time>
      </trkpt>
      <trkpt lat="40.1738930" lon="-4.4066850">
        <ele>476.4</ele>
        <time>2019-08-13T11:15:18Z</time>
      </trkpt>
      <trkpt lat="40.1739390" lon="-4.4067230">
        <ele>476.4</ele>
        <time>2019-08-13T11:15:19Z</time>
      </trkpt>
      <trkpt lat="40.1739830" lon="-4.4067620">
        <ele>476.3</ele>
        <time>2019-08-13T11:15:20Z</time>
      </trkpt>
      <trkpt lat="40.1740270" lon="-4.4068000">
        <ele>476.3</ele>
        <time>2019-08-13T11:15:21Z</time>
      </trkpt>
      <trkpt lat="40.1740700" lon="-4.4068360">
        <ele>476.3</ele>
        <time>2019-08-13T11:15:22Z</time>
      </trkpt>
      <trkpt lat="40.1741150" lon="-4.4068720">
        <ele>476.3</ele>
        <time>2019-08-13T11:15:23Z</time>
      </trkpt>
      <trkpt lat="40.1741600" lon="-4.4069080">
        <ele>476.3</ele>
        <time>2019-08-13T11:15:24Z</time>
      </trkpt>
      <trkpt lat="40.1742070" lon="-4.4069450">
        <ele>476.3</ele>
        <time>2019-08-13T11:15:25Z</time>
      </trkpt>
      <trkpt lat="40.1742530" lon="-4.4069820">
        <ele>476.3</ele>
        <time>2019-08-13T11:15:26Z</time>
      </trkpt>
      <trkpt lat="40.1743000" lon="-4.4070190">
        <ele>476.3</ele>
        <time>2019-08-13T11:15:27Z</time>
      </trkpt>
      <trkpt lat="40.1743480" lon="-4.4070570">
        <ele>476.3</ele>
        <time>2019-08-13T11:15:28Z</time>
      </trkpt>
      <trkpt lat="40.1743950" lon="-4.4070950">
        <ele>476.3</ele>
        <time>2019-08-13T11:15:29Z</time>
      </trkpt>
      <trkpt lat="40.1744400" lon="-4.4071320">
        <ele>476.3</ele>
        <time>2019-08-13T11:15:30Z</time>
      </trkpt>
      <trkpt lat="40.1744840" lon="-4.4071680">
        <ele>476.3</ele>
        <time>2019-08-13T11:15:31Z</time>
      </trkpt>
      <trkpt lat="40.1745280" lon="-4.4072040">
        <ele>476.2</ele>
        <time>2019-08-13T11:15:32Z</time>
      </trkpt>
      <trkpt lat="40.1745710" lon="-4.4072400">
        <ele>476.2</ele>
        <time>2019-08-13T11:15:33Z</time>
      </trkpt>
      <trkpt lat="40.1746130" lon="-4.4072740">
        <ele>476.2</ele>
        <time>2019-08-13T11:15:34Z</time>
      </trkpt>
      <trkpt lat="40.1746550" lon="-4.4073080">
        <ele>476.2</ele>
        <time>2019-08-13T11:15:35Z</time>
      </trkpt>
      <trkpt lat="40.1746950" lon="-4.4073400">
        <ele>476.1</ele>
        <time>2019-08-13T11:15:36Z</time>
      </trkpt>
      <trkpt lat="40.1747360" lon="-4.4073740">
        <ele>476.1</ele>
        <time>2019-08-13T11:15:37Z</time>
      </trkpt>
      <trkpt lat="40.1747780" lon="-4.4074100">
        <ele>476.1</ele>
        <time>2019-08-13T11:15:38Z</time>
      </trkpt>
      <trkpt lat="40.1748210" lon="-4.4074450">
        <ele>476.1</ele>
        <time>2019-08-13T11:15:39Z</time>
      </trkpt>
      <trkpt lat="40.1748630" lon="-4.4074830">
        <ele>476.1</ele>
        <time>2019-08-13T11:15:40Z</time>
      </trkpt>
      <trkpt lat="40.1749080" lon="-4.4075210">
        <ele>476.1</ele>
        <time>2019-08-13T11:15:41Z</time>
      </trkpt>
      <trkpt lat="40.1749530" lon="-4.4075590">
        <ele>476.1</ele>
        <time>2019-08-13T11:15:42Z</time>
      </trkpt>
      <trkpt lat="40.1749980" lon="-4.4075970">
        <ele>476.1</ele>
        <time>2019-08-13T11:15:43Z</time>
      </trkpt>
      <trkpt lat="40.1750440" lon="-4.4076350">
        <ele>476.1</ele>
        <time>2019-08-13T11:15:44Z</time>
      </trkpt>
      <trkpt lat="40.1750900" lon="-4.4076730">
        <ele>476.1</ele>
        <time>2019-08-13T11:15:45Z</time>
      </trkpt>
      <trkpt lat="40.1751340" lon="-4.4077130">
        <ele>476.1</ele>
        <time>2019-08-13T11:15:46Z</time>
      </trkpt>
      <trkpt lat="40.1751800" lon="-4.4077510">
        <ele>476.1</ele>
        <time>2019-08-13T11:15:47Z</time>
      </trkpt>
      <trkpt lat="40.1752260" lon="-4.4077890">
        <ele>476.1</ele>
        <time>2019-08-13T11:15:48Z</time>
      </trkpt>
      <trkpt lat="40.1752740" lon="-4.4078290">
        <ele>476.1</ele>
        <time>2019-08-13T11:15:49Z</time>
      </trkpt>
      <trkpt lat="40.1753220" lon="-4.4078700">
        <ele>476.0</ele>
        <time>2019-08-13T11:15:50Z</time>
      </trkpt>
      <trkpt lat="40.1753710" lon="-4.4079100">
        <ele>476.0</ele>
        <time>2019-08-13T11:15:51Z</time>
      </trkpt>
      <trkpt lat="40.1754210" lon="-4.4079520">
        <ele>476.0</ele>
        <time>2019-08-13T11:15:52Z</time>
      </trkpt>
      <trkpt lat="40.1754760" lon="-4.4079930">
        <ele>476.0</ele>
        <time>2019-08-13T11:15:53Z</time>
      </trkpt>
      <trkpt lat="40.1755290" lon="-4.4080370">
        <ele>476.0</ele>
        <time>2019-08-13T11:15:54Z</time>
      </trkpt>
      <trkpt lat="40.1755770" lon="-4.4080800">
        <ele>476.0</ele>
        <time>2019-08-13T11:15:55Z</time>
      </trkpt>
      <trkpt lat="40.1756250" lon="-4.4081200">
        <ele>476.0</ele>
        <time>2019-08-13T11:15:56Z</time>
      </trkpt>
      <trkpt lat="40.1756720" lon="-4.4081590">
        <ele>476.0</ele>
        <time>2019-08-13T11:15:57Z</time>
      </trkpt>
      <trkpt lat="40.1757190" lon="-4.4081950">
        <ele>476.1</ele>
        <time>2019-08-13T11:15:58Z</time>
      </trkpt>
      <trkpt lat="40.1757660" lon="-4.4082310">
        <ele>476.1</ele>
        <time>2019-08-13T11:15:59Z</time>
      </trkpt>
      <trkpt lat="40.1758130" lon="-4.4082690">
        <ele>476.1</ele>
        <time>2019-08-13T11:16:00Z</time>
      </trkpt>
      <trkpt lat="40.1758610" lon="-4.4083090">
        <ele>476.1</ele>
        <time>2019-08-13T11:16:01Z</time>
      </trkpt>
      <trkpt lat="40.1759100" lon="-4.4083500">
        <ele>476.1</ele>
        <time>2019-08-13T11:16:02Z</time>
      </trkpt>
      <trkpt lat="40.1759600" lon="-4.4083910">
        <ele>476.1</ele>
        <time>2019-08-13T11:16:03Z</time>
      </trkpt>
      <trkpt lat="40.1760090" lon="-4.4084310">
        <ele>476.1</ele>
        <time>2019-08-13T11:16:04Z</time>
      </trkpt>
      <trkpt lat="40.1760570" lon="-4.4084710">
        <ele>476.2</ele>
        <time>2019-08-13T11:16:05Z</time>
      </trkpt>
      <trkpt lat="40.1761040" lon="-4.4085110">
        <ele>476.2</ele>
        <time>2019-08-13T11:16:06Z</time>
      </trkpt>
      <trkpt lat="40.1761510" lon="-4.4085500">
        <ele>476.2</ele>
        <time>2019-08-13T11:16:07Z</time>
      </trkpt>
      <trkpt lat="40.1761980" lon="-4.4085890">
        <ele>476.2</ele>
        <time>2019-08-13T11:16:08Z</time>
      </trkpt>
      <trkpt lat="40.1762490" lon="-4.4086260">
        <ele>476.3</ele>
        <time>2019-08-13T11:16:09Z</time>
      </trkpt>
      <trkpt lat="40.1763010" lon="-4.4086630">
        <ele>476.3</ele>
        <time>2019-08-13T11:16:10Z</time>
      </trkpt>
      <trkpt lat="40.1763530" lon="-4.4087040">
        <ele>476.3</ele>
        <time>2019-08-13T11:16:11Z</time>
      </trkpt>
      <trkpt lat="40.1764010" lon="-4.4087450">
        <ele>476.3</ele>
        <time>2019-08-13T11:16:12Z</time>
      </trkpt>
      <trkpt lat="40.1764490" lon="-4.4087840">
        <ele>476.3</ele>
        <time>2019-08-13T11:16:13Z</time>
      </trkpt>
      <trkpt lat="40.1764960" lon="-4.4088260">
        <ele>476.3</ele>
        <time>2019-08-13T11:16:14Z</time>
      </trkpt>
      <trkpt lat="40.1765440" lon="-4.4088670">
        <ele>476.3</ele>
        <time>2019-08-13T11:16:15Z</time>
      </trkpt>
      <trkpt lat="40.1765930" lon="-4.4089080">
        <ele>476.3</ele>
        <time>2019-08-13T11:16:16Z</time>
      </trkpt>
      <trkpt lat="40.1766460" lon="-4.4089450">
        <ele>476.3</ele>
        <time>2019-08-13T11:16:17Z</time>
      </trkpt>
      <trkpt lat="40.1766990" lon="-4.4089890">
        <ele>476.3</ele>
        <time>2019-08-13T11:16:18Z</time>
      </trkpt>
      <trkpt lat="40.1767500" lon="-4.4090360">
        <ele>476.3</ele>
        <time>2019-08-13T11:16:19Z</time>
      </trkpt>
      <trkpt lat="40.1767990" lon="-4.4090790">
        <ele>476.3</ele>
        <time>2019-08-13T11:16:20Z</time>
      </trkpt>
      <trkpt lat="40.1768450" lon="-4.4091170">
        <ele>476.3</ele>
        <time>2019-08-13T11:16:21Z</time>
      </trkpt>
      <trkpt lat="40.1768920" lon="-4.4091550">
        <ele>476.2</ele>
        <time>2019-08-13T11:16:22Z</time>
      </trkpt>
      <trkpt lat="40.1769380" lon="-4.4091930">
        <ele>476.3</ele>
        <time>2019-08-13T11:16:23Z</time>
      </trkpt>
      <trkpt lat="40.1769880" lon="-4.4092330">
        <ele>476.3</ele>
        <time>2019-08-13T11:16:24Z</time>
      </trkpt>
      <trkpt lat="40.1770370" lon="-4.4092730">
        <ele>476.3</ele>
        <time>2019-08-13T11:16:25Z</time>
      </trkpt>
      <trkpt lat="40.1770880" lon="-4.4093170">
        <ele>476.3</ele>
        <time>2019-08-13T11:16:26Z</time>
      </trkpt>
      <trkpt lat="40.1771400" lon="-4.4093630">
        <ele>476.3</ele>
        <time>2019-08-13T11:16:27Z</time>
      </trkpt>
      <trkpt lat="40.1771930" lon="-4.4094090">
        <ele>476.3</ele>
        <time>2019-08-13T11:16:28Z</time>
      </trkpt>
      <trkpt lat="40.1772460" lon="-4.4094540">
        <ele>476.3</ele>
        <time>2019-08-13T11:16:29Z</time>
      </trkpt>
      <trkpt lat="40.1772980" lon="-4.4094990">
        <ele>476.3</ele>
        <time>2019-08-13T11:16:30Z</time>
      </trkpt>
      <trkpt lat="40.1773500" lon="-4.4095430">
        <ele>476.4</ele>
        <time>2019-08-13T11:16:31Z</time>
      </trkpt>
      <trkpt lat="40.1774020" lon="-4.4095850">
        <ele>476.4</ele>
        <time>2019-08-13T11:16:32Z</time>
      </trkpt>
      <trkpt lat="40.1774510" lon="-4.4096260">
        <ele>476.4</ele>
        <time>2019-08-13T11:16:33Z</time>
      </trkpt>
      <trkpt lat="40.1775000" lon="-4.4096660">
        <ele>476.5</ele>
        <time>2019-08-13T11:16:34Z</time>
      </trkpt>
      <trkpt lat="40.1775500" lon="-4.4097070">
        <ele>476.5</ele>
        <time>2019-08-13T11:16:35Z</time>
      </trkpt>
      <trkpt lat="40.1776000" lon="-4.4097470">
        <ele>476.5</ele>
        <time>2019-08-13T11:16:36Z</time>
      </trkpt>
      <trkpt lat="40.1776500" lon="-4.4097880">
        <ele>476.6</ele>
        <time>2019-08-13T11:16:37Z</time>
      </trkpt>
      <trkpt lat="40.1776980" lon="-4.4098300">
        <ele>476.6</ele>
        <time>2019-08-13T11:16:38Z</time>
      </trkpt>
      <trkpt lat="40.1777470" lon="-4.4098730">
        <ele>476.6</ele>
        <time>2019-08-13T11:16:39Z</time>
      </trkpt>
      <trkpt lat="40.1777960" lon="-4.4099140">
        <ele>476.7</ele>
        <time>2019-08-13T11:16:40Z</time>
      </trkpt>
      <trkpt lat="40.1778450" lon="-4.4099550">
        <ele>476.7</ele>
        <time>2019-08-13T11:16:41Z</time>
      </trkpt>
      <trkpt lat="40.1778950" lon="-4.4099940">
        <ele>476.7</ele>
        <time>2019-08-13T11:16:42Z</time>
      </trkpt>
      <trkpt lat="40.1779450" lon="-4.4100340">
        <ele>476.8</ele>
        <time>2019-08-13T11:16:43Z</time>
      </trkpt>
      <trkpt lat="40.1779940" lon="-4.4100730">
        <ele>476.8</ele>
        <time>2019-08-13T11:16:44Z</time>
      </trkpt>
      <trkpt lat="40.1780430" lon="-4.4101120">
        <ele>476.8</ele>
        <time>2019-08-13T11:16:45Z</time>
      </trkpt>
      <trkpt lat="40.1780920" lon="-4.4101510">
        <ele>476.9</ele>
        <time>2019-08-13T11:16:46Z</time>
      </trkpt>
      <trkpt lat="40.1781410" lon="-4.4101910">
        <ele>476.9</ele>
        <time>2019-08-13T11:16:47Z</time>
      </trkpt>
      <trkpt lat="40.1781890" lon="-4.4102310">
        <ele>476.9</ele>
        <time>2019-08-13T11:16:48Z</time>
      </trkpt>
      <trkpt lat="40.1782390" lon="-4.4102710">
        <ele>476.9</ele>
        <time>2019-08-13T11:16:49Z</time>
      </trkpt>
      <trkpt lat="40.1782880" lon="-4.4103120">
        <ele>477.0</ele>
        <time>2019-08-13T11:16:50Z</time>
      </trkpt>
      <trkpt lat="40.1783380" lon="-4.4103530">
        <ele>477.0</ele>
        <time>2019-08-13T11:16:51Z</time>
      </trkpt>
      <trkpt lat="40.1783870" lon="-4.4103950">
        <ele>477.0</ele>
        <time>2019-08-13T11:16:52Z</time>
      </trkpt>
      <trkpt lat="40.1784370" lon="-4.4104350">
        <ele>477.0</ele>
        <time>2019-08-13T11:16:53Z</time>
      </trkpt>
      <trkpt lat="40.1784880" lon="-4.4104760">
        <ele>477.0</ele>
        <time>2019-08-13T11:16:54Z</time>
      </trkpt>
      <trkpt lat="40.1785390" lon="-4.4105170">
        <ele>477.0</ele>
        <time>2019-08-13T11:16:55Z</time>
      </trkpt>
      <trkpt lat="40.1785910" lon="-4.4105590">
        <ele>477.0</ele>
        <time>2019-08-13T11:16:56Z</time>
      </trkpt>
      <trkpt lat="40.1786400" lon="-4.4106010">
        <ele>477.0</ele>
        <time>2019-08-13T11:16:57Z</time>
      </trkpt>
      <trkpt lat="40.1786900" lon="-4.4106440">
        <ele>476.9</ele>
        <time>2019-08-13T11:16:58Z</time>
      </trkpt>
      <trkpt lat="40.1787400" lon="-4.4106860">
        <ele>476.9</ele>
        <time>2019-08-13T11:16:59Z</time>
      </trkpt>
      <trkpt lat="40.1787900" lon="-4.4107260">
        <ele>476.9</ele>
        <time>2019-08-13T11:17:00Z</time>
      </trkpt>
      <trkpt lat="40.1788420" lon="-4.4107640">
        <ele>476.9</ele>
        <time>2019-08-13T11:17:01Z</time>
      </trkpt>
      <trkpt lat="40.1788930" lon="-4.4108020">
        <ele>476.9</ele>
        <time>2019-08-13T11:17:02Z</time>
      </trkpt>
      <trkpt lat="40.1789390" lon="-4.4108400">
        <ele>476.9</ele>
        <time>2019-08-13T11:17:03Z</time>
      </trkpt>
      <trkpt lat="40.1789850" lon="-4.4108780">
        <ele>476.9</ele>
        <time>2019-08-13T11:17:04Z</time>
      </trkpt>
      <trkpt lat="40.1790300" lon="-4.4109140">
        <ele>476.9</ele>
        <time>2019-08-13T11:17:05Z</time>
      </trkpt>
      <trkpt lat="40.1790760" lon="-4.4109530">
        <ele>476.9</ele>
        <time>2019-08-13T11:17:06Z</time>
      </trkpt>
      <trkpt lat="40.1791220" lon="-4.4109920">
        <ele>476.9</ele>
        <time>2019-08-13T11:17:07Z</time>
      </trkpt>
      <trkpt lat="40.1791690" lon="-4.4110300">
        <ele>476.9</ele>
        <time>2019-08-13T11:17:08Z</time>
      </trkpt>
      <trkpt lat="40.1792150" lon="-4.4110680">
        <ele>476.9</ele>
        <time>2019-08-13T11:17:09Z</time>
      </trkpt>
      <trkpt lat="40.1792610" lon="-4.4111070">
        <ele>476.9</ele>
        <time>2019-08-13T11:17:10Z</time>
      </trkpt>
      <trkpt lat="40.1793060" lon="-4.4111450">
        <ele>476.9</ele>
        <time>2019-08-13T11:17:11Z</time>
      </trkpt>
      <trkpt lat="40.1793520" lon="-4.4111820">
        <ele>476.9</ele>
        <time>2019-08-13T11:17:12Z</time>
      </trkpt>
      <trkpt lat="40.1793990" lon="-4.4112200">
        <ele>476.9</ele>
        <time>2019-08-13T11:17:13Z</time>
      </trkpt>
      <trkpt lat="40.1794460" lon="-4.4112590">
        <ele>476.9</ele>
        <time>2019-08-13T11:17:14Z</time>
      </trkpt>
      <trkpt lat="40.1794930" lon="-4.4112980">
        <ele>477.0</ele>
        <time>2019-08-13T11:17:15Z</time>
      </trkpt>
      <trkpt lat="40.1795420" lon="-4.4113380">
        <ele>477.0</ele>
        <time>2019-08-13T11:17:16Z</time>
      </trkpt>
      <trkpt lat="40.1795890" lon="-4.4113790">
        <ele>477.0</ele>
        <time>2019-08-13T11:17:17Z</time>
      </trkpt>
      <trkpt lat="40.1796350" lon="-4.4114200">
        <ele>477.0</ele>
        <time>2019-08-13T11:17:18Z</time>
      </trkpt>
      <trkpt lat="40.1796810" lon="-4.4114610">
        <ele>477.0</ele>
        <time>2019-08-13T11:17:19Z</time>
      </trkpt>
      <trkpt lat="40.1797270" lon="-4.4115020">
        <ele>477.1</ele>
        <time>2019-08-13T11:17:20Z</time>
      </trkpt>
      <trkpt lat="40.1797750" lon="-4.4115400">
        <ele>477.1</ele>
        <time>2019-08-13T11:17:21Z</time>
      </trkpt>
      <trkpt lat="40.1798240" lon="-4.4115780">
        <ele>477.1</ele>
        <time>2019-08-13T11:17:22Z</time>
      </trkpt>
      <trkpt lat="40.1798730" lon="-4.4116160">
        <ele>477.1</ele>
        <time>2019-08-13T11:17:23Z</time>
      </trkpt>
      <trkpt lat="40.1799210" lon="-4.4116550">
        <ele>477.2</ele>
        <time>2019-08-13T11:17:24Z</time>
      </trkpt>
      <trkpt lat="40.1799700" lon="-4.4116950">
        <ele>477.2</ele>
        <time>2019-08-13T11:17:25Z</time>
      </trkpt>
      <trkpt lat="40.1800200" lon="-4.4117350">
        <ele>477.2</ele>
        <time>2019-08-13T11:17:26Z</time>
      </trkpt>
      <trkpt lat="40.1800680" lon="-4.4117740">
        <ele>477.2</ele>
        <time>2019-08-13T11:17:27Z</time>
      </trkpt>
      <trkpt lat="40.1801170" lon="-4.4118140">
        <ele>477.2</ele>
        <time>2019-08-13T11:17:28Z</time>
      </trkpt>
      <trkpt lat="40.1801650" lon="-4.4118530">
        <ele>477.3</ele>
        <time>2019-08-13T11:17:29Z</time>
      </trkpt>
      <trkpt lat="40.1802140" lon="-4.4118930">
        <ele>477.3</ele>
        <time>2019-08-13T11:17:30Z</time>
      </trkpt>
      <trkpt lat="40.1802620" lon="-4.4119340">
        <ele>477.3</ele>
        <time>2019-08-13T11:17:31Z</time>
      </trkpt>
      <trkpt lat="40.1803110" lon="-4.4119750">
        <ele>477.3</ele>
        <time>2019-08-13T11:17:32Z</time>
      </trkpt>
      <trkpt lat="40.1803600" lon="-4.4120150">
        <ele>477.4</ele>
        <time>2019-08-13T11:17:33Z</time>
      </trkpt>
      <trkpt lat="40.1804100" lon="-4.4120550">
        <ele>477.4</ele>
        <time>2019-08-13T11:17:34Z</time>
      </trkpt>
      <trkpt lat="40.1804590" lon="-4.4120950">
        <ele>477.4</ele>
        <time>2019-08-13T11:17:35Z</time>
      </trkpt>
      <trkpt lat="40.1805100" lon="-4.4121360">
        <ele>477.4</ele>
        <time>2019-08-13T11:17:36Z</time>
      </trkpt>
      <trkpt lat="40.1805610" lon="-4.4121780">
        <ele>477.5</ele>
        <time>2019-08-13T11:17:37Z</time>
      </trkpt>
      <trkpt lat="40.1806120" lon="-4.4122200">
        <ele>477.5</ele>
        <time>2019-08-13T11:17:38Z</time>
      </trkpt>
      <trkpt lat="40.1806630" lon="-4.4122620">
        <ele>477.6</ele>
        <time>2019-08-13T11:17:39Z</time>
      </trkpt>
      <trkpt lat="40.1807110" lon="-4.4123040">
        <ele>477.6</ele>
        <time>2019-08-13T11:17:40Z</time>
      </trkpt>
      <trkpt lat="40.1807600" lon="-4.4123440">
        <ele>477.6</ele>
        <time>2019-08-13T11:17:41Z</time>
      </trkpt>
      <trkpt lat="40.1808080" lon="-4.4123850">
        <ele>477.7</ele>
        <time>2019-08-13T11:17:42Z</time>
      </trkpt>
      <trkpt lat="40.1808570" lon="-4.4124260">
        <ele>477.7</ele>
        <time>2019-08-13T11:17:43Z</time>
      </trkpt>
      <trkpt lat="40.1809070" lon="-4.4124650">
        <ele>477.8</ele>
        <time>2019-08-13T11:17:44Z</time>
      </trkpt>
      <trkpt lat="40.1809560" lon="-4.4125050">
        <ele>477.8</ele>
        <time>2019-08-13T11:17:45Z</time>
      </trkpt>
      <trkpt lat="40.1810060" lon="-4.4125440">
        <ele>477.8</ele>
        <time>2019-08-13T11:17:46Z</time>
      </trkpt>
      <trkpt lat="40.1810550" lon="-4.4125850">
        <ele>477.9</ele>
        <time>2019-08-13T11:17:47Z</time>
      </trkpt>
      <trkpt lat="40.1811040" lon="-4.4126250">
        <ele>477.9</ele>
        <time>2019-08-13T11:17:48Z</time>
      </trkpt>
      <trkpt lat="40.1811540" lon="-4.4126650">
        <ele>477.9</ele>
        <time>2019-08-13T11:17:49Z</time>
      </trkpt>
      <trkpt lat="40.1812030" lon="-4.4127060">
        <ele>478.0</ele>
        <time>2019-08-13T11:17:50Z</time>
      </trkpt>
      <trkpt lat="40.1812510" lon="-4.4127470">
        <ele>478.0</ele>
        <time>2019-08-13T11:17:51Z</time>
      </trkpt>
      <trkpt lat="40.1812990" lon="-4.4127880">
        <ele>478.0</ele>
        <time>2019-08-13T11:17:52Z</time>
      </trkpt>
      <trkpt lat="40.1813470" lon="-4.4128280">
        <ele>478.1</ele>
        <time>2019-08-13T11:17:53Z</time>
      </trkpt>
      <trkpt lat="40.1813960" lon="-4.4128670">
        <ele>478.1</ele>
        <time>2019-08-13T11:17:54Z</time>
      </trkpt>
      <trkpt lat="40.1814440" lon="-4.4129070">
        <ele>478.1</ele>
        <time>2019-08-13T11:17:55Z</time>
      </trkpt>
      <trkpt lat="40.1814930" lon="-4.4129460">
        <ele>478.1</ele>
        <time>2019-08-13T11:17:56Z</time>
      </trkpt>
      <trkpt lat="40.1815420" lon="-4.4129860">
        <ele>478.1</ele>
        <time>2019-08-13T11:17:57Z</time>
      </trkpt>
      <trkpt lat="40.1815920" lon="-4.4130270">
        <ele>478.2</ele>
        <time>2019-08-13T11:17:58Z</time>
      </trkpt>
      <trkpt lat="40.1816410" lon="-4.4130670">
        <ele>478.2</ele>
        <time>2019-08-13T11:17:59Z</time>
      </trkpt>
      <trkpt lat="40.1816900" lon="-4.4131080">
        <ele>478.2</ele>
        <time>2019-08-13T11:18:00Z</time>
      </trkpt>
      <trkpt lat="40.1817390" lon="-4.4131480">
        <ele>478.2</ele>
        <time>2019-08-13T11:18:01Z</time>
      </trkpt>
      <trkpt lat="40.1817870" lon="-4.4131870">
        <ele>478.3</ele>
        <time>2019-08-13T11:18:02Z</time>
      </trkpt>
      <trkpt lat="40.1818370" lon="-4.4132260">
        <ele>478.3</ele>
        <time>2019-08-13T11:18:03Z</time>
      </trkpt>
      <trkpt lat="40.1818850" lon="-4.4132660">
        <ele>478.3</ele>
        <time>2019-08-13T11:18:04Z</time>
      </trkpt>
      <trkpt lat="40.1819350" lon="-4.4133060">
        <ele>478.4</ele>
        <time>2019-08-13T11:18:05Z</time>
      </trkpt>
      <trkpt lat="40.1819840" lon="-4.4133460">
        <ele>478.4</ele>
        <time>2019-08-13T11:18:06Z</time>
      </trkpt>
      <trkpt lat="40.1820330" lon="-4.4133860">
        <ele>478.4</ele>
        <time>2019-08-13T11:18:07Z</time>
      </trkpt>
      <trkpt lat="40.1820810" lon="-4.4134280">
        <ele>478.5</ele>
        <time>2019-08-13T11:18:08Z</time>
      </trkpt>
      <trkpt lat="40.1821290" lon="-4.4134700">
        <ele>478.5</ele>
        <time>2019-08-13T11:18:09Z</time>
      </trkpt>
      <trkpt lat="40.1821780" lon="-4.4135120">
        <ele>478.5</ele>
        <time>2019-08-13T11:18:10Z</time>
      </trkpt>
      <trkpt lat="40.1822280" lon="-4.4135530">
        <ele>478.6</ele>
        <time>2019-08-13T11:18:11Z</time>
      </trkpt>
      <trkpt lat="40.1822770" lon="-4.4135930">
        <ele>478.6</ele>
        <time>2019-08-13T11:18:12Z</time>
      </trkpt>
      <trkpt lat="40.1823270" lon="-4.4136340">
        <ele>478.7</ele>
        <time>2019-08-13T11:18:13Z</time>
      </trkpt>
      <trkpt lat="40.1823760" lon="-4.4136730">
        <ele>478.7</ele>
        <time>2019-08-13T11:18:14Z</time>
      </trkpt>
      <trkpt lat="40.1824230" lon="-4.4137120">
        <ele>478.8</ele>
        <time>2019-08-13T11:18:15Z</time>
      </trkpt>
      <trkpt lat="40.1824720" lon="-4.4137510">
        <ele>478.8</ele>
        <time>2019-08-13T11:18:16Z</time>
      </trkpt>
      <trkpt lat="40.1825200" lon="-4.4137920">
        <ele>478.8</ele>
        <time>2019-08-13T11:18:17Z</time>
      </trkpt>
      <trkpt lat="40.1825700" lon="-4.4138320">
        <ele>478.9</ele>
        <time>2019-08-13T11:18:18Z</time>
      </trkpt>
      <trkpt lat="40.1826180" lon="-4.4138730">
        <ele>478.9</ele>
        <time>2019-08-13T11:18:19Z</time>
      </trkpt>
      <trkpt lat="40.1826680" lon="-4.4139130">
        <ele>479.0</ele>
        <time>2019-08-13T11:18:20Z</time>
      </trkpt>
      <trkpt lat="40.1827170" lon="-4.4139540">
        <ele>479.0</ele>
        <time>2019-08-13T11:18:21Z</time>
      </trkpt>
      <trkpt lat="40.1827660" lon="-4.4139960">
        <ele>479.0</ele>
        <time>2019-08-13T11:18:22Z</time>
      </trkpt>
      <trkpt lat="40.1828150" lon="-4.4140350">
        <ele>479.1</ele>
        <time>2019-08-13T11:18:23Z</time>
      </trkpt>
      <trkpt lat="40.1828660" lon="-4.4140730">
        <ele>479.1</ele>
        <time>2019-08-13T11:18:24Z</time>
      </trkpt>
      <trkpt lat="40.1829150" lon="-4.4141120">
        <ele>479.1</ele>
        <time>2019-08-13T11:18:25Z</time>
      </trkpt>
      <trkpt lat="40.1829610" lon="-4.4141520">
        <ele>479.1</ele>
        <time>2019-08-13T11:18:26Z</time>
      </trkpt>
      <trkpt lat="40.1830060" lon="-4.4141880">
        <ele>479.2</ele>
        <time>2019-08-13T11:18:27Z</time>
      </trkpt>
      <trkpt lat="40.1830510" lon="-4.4142240">
        <ele>479.2</ele>
        <time>2019-08-13T11:18:28Z</time>
      </trkpt>
      <trkpt lat="40.1830970" lon="-4.4142620">
        <ele>479.2</ele>
        <time>2019-08-13T11:18:29Z</time>
      </trkpt>
      <trkpt lat="40.1831430" lon="-4.4142990">
        <ele>479.2</ele>
        <time>2019-08-13T11:18:30Z</time>
      </trkpt>
      <trkpt lat="40.1831890" lon="-4.4143370">
        <ele>479.3</ele>
        <time>2019-08-13T11:18:31Z</time>
      </trkpt>
      <trkpt lat="40.1832360" lon="-4.4143740">
        <ele>479.3</ele>
        <time>2019-08-13T11:18:32Z</time>
      </trkpt>
      <trkpt lat="40.1832820" lon="-4.4144110">
        <ele>479.3</ele>
        <time>2019-08-13T11:18:33Z</time>
      </trkpt>
      <trkpt lat="40.1833290" lon="-4.4144490">
        <ele>479.4</ele>
        <time>2019-08-13T11:18:34Z</time>
      </trkpt>
      <trkpt lat="40.1833750" lon="-4.4144880">
        <ele>479.4</ele>
        <time>2019-08-13T11:18:35Z</time>
      </trkpt>
      <trkpt lat="40.1834220" lon="-4.4145270">
        <ele>479.4</ele>
        <time>2019-08-13T11:18:36Z</time>
      </trkpt>
      <trkpt lat="40.1834700" lon="-4.4145660">
        <ele>479.5</ele>
        <time>2019-08-13T11:18:37Z</time>
      </trkpt>
      <trkpt lat="40.1835160" lon="-4.4146040">
        <ele>479.5</ele>
        <time>2019-08-13T11:18:38Z</time>
      </trkpt>
      <trkpt lat="40.1835630" lon="-4.4146430">
        <ele>479.6</ele>
        <time>2019-08-13T11:18:39Z</time>
      </trkpt>
      <trkpt lat="40.1836100" lon="-4.4146810">
        <ele>479.6</ele>
        <time>2019-08-13T11:18:40Z</time>
      </trkpt>
      <trkpt lat="40.1836580" lon="-4.4147180">
        <ele>479.6</ele>
        <time>2019-08-13T11:18:41Z</time>
      </trkpt>
      <trkpt lat="40.1837040" lon="-4.4147570">
        <ele>479.7</ele>
        <time>2019-08-13T11:18:42Z</time>
      </trkpt>
      <trkpt lat="40.1837490" lon="-4.4147960">
        <ele>479.7</ele>
        <time>2019-08-13T11:18:43Z</time>
      </trkpt>
      <trkpt lat="40.1837940" lon="-4.4148350">
        <ele>479.7</ele>
        <time>2019-08-13T11:18:44Z</time>
      </trkpt>
      <trkpt lat="40.1838400" lon="-4.4148720">
        <ele>479.8</ele>
        <time>2019-08-13T11:18:45Z</time>
      </trkpt>
      <trkpt lat="40.1838860" lon="-4.4149100">
        <ele>479.8</ele>
        <time>2019-08-13T11:18:46Z</time>
      </trkpt>
      <trkpt lat="40.1839310" lon="-4.4149480">
        <ele>479.8</ele>
        <time>2019-08-13T11:18:47Z</time>
      </trkpt>
      <trkpt lat="40.1839750" lon="-4.4149860">
        <ele>479.9</ele>
        <time>2019-08-13T11:18:48Z</time>
      </trkpt>
      <trkpt lat="40.1840200" lon="-4.4150240">
        <ele>479.9</ele>
        <time>2019-08-13T11:18:49Z</time>
      </trkpt>
      <trkpt lat="40.1840650" lon="-4.4150600">
        <ele>479.9</ele>
        <time>2019-08-13T11:18:50Z</time>
      </trkpt>
      <trkpt lat="40.1841090" lon="-4.4150950">
        <ele>479.9</ele>
        <time>2019-08-13T11:18:51Z</time>
      </trkpt>
      <trkpt lat="40.1841550" lon="-4.4151320">
        <ele>480.0</ele>
        <time>2019-08-13T11:18:52Z</time>
      </trkpt>
      <trkpt lat="40.1842000" lon="-4.4151690">
        <ele>480.0</ele>
        <time>2019-08-13T11:18:53Z</time>
      </trkpt>
      <trkpt lat="40.1842450" lon="-4.4152050">
        <ele>480.0</ele>
        <time>2019-08-13T11:18:54Z</time>
      </trkpt>
      <trkpt lat="40.1842900" lon="-4.4152420">
        <ele>480.0</ele>
        <time>2019-08-13T11:18:55Z</time>
      </trkpt>
      <trkpt lat="40.1843340" lon="-4.4152780">
        <ele>480.1</ele>
        <time>2019-08-13T11:18:56Z</time>
      </trkpt>
      <trkpt lat="40.1843800" lon="-4.4153150">
        <ele>480.1</ele>
        <time>2019-08-13T11:18:57Z</time>
      </trkpt>
      <trkpt lat="40.1844260" lon="-4.4153470">
        <ele>480.1</ele>
        <time>2019-08-13T11:18:58Z</time>
      </trkpt>
      <trkpt lat="40.1844720" lon="-4.4153750">
        <ele>480.1</ele>
        <time>2019-08-13T11:18:59Z</time>
      </trkpt>
      <trkpt lat="40.1845200" lon="-4.4154040">
        <ele>480.1</ele>
        <time>2019-08-13T11:19:00Z</time>
      </trkpt>
      <trkpt lat="40.1845670" lon="-4.4154340">
        <ele>480.1</ele>
        <time>2019-08-13T11:19:01Z</time>
      </trkpt>
      <trkpt lat="40.1846150" lon="-4.4154650">
        <ele>480.1</ele>
        <time>2019-08-13T11:19:02Z</time>
      </trkpt>
      <trkpt lat="40.1846630" lon="-4.4154950">
        <ele>480.1</ele>
        <time>2019-08-13T11:19:03Z</time>
      </trkpt>
      <trkpt lat="40.1847090" lon="-4.4155270">
        <ele>480.1</ele>
        <time>2019-08-13T11:19:04Z</time>
      </trkpt>
      <trkpt lat="40.1847540" lon="-4.4155600">
        <ele>480.1</ele>
        <time>2019-08-13T11:19:05Z</time>
      </trkpt>
      <trkpt lat="40.1847980" lon="-4.4155940">
        <ele>480.1</ele>
        <time>2019-08-13T11:19:06Z</time>
      </trkpt>
      <trkpt lat="40.1848410" lon="-4.4156280">
        <ele>480.1</ele>
        <time>2019-08-13T11:19:07Z</time>
      </trkpt>
      <trkpt lat="40.1848840" lon="-4.4156620">
        <ele>480.1</ele>
        <time>2019-08-13T11:19:08Z</time>
      </trkpt>
      <trkpt lat="40.1849280" lon="-4.4156960">
        <ele>480.1</ele>
        <time>2019-08-13T11:19:09Z</time>
      </trkpt>
      <trkpt lat="40.1849720" lon="-4.4157300">
        <ele>480.1</ele>
        <time>2019-08-13T11:19:10Z</time>
      </trkpt>
      <trkpt lat="40.1850150" lon="-4.4157630">
        <ele>480.1</ele>
        <time>2019-08-13T11:19:11Z</time>
      </trkpt>
      <trkpt lat="40.1850580" lon="-4.4157970">
        <ele>480.1</ele>
        <time>2019-08-13T11:19:12Z</time>
      </trkpt>
      <trkpt lat="40.1851000" lon="-4.4158320">
        <ele>480.1</ele>
        <time>2019-08-13T11:19:13Z</time>
      </trkpt>
      <trkpt lat="40.1851410" lon="-4.4158680">
        <ele>480.2</ele>
        <time>2019-08-13T11:19:14Z</time>
      </trkpt>
      <trkpt lat="40.1851810" lon="-4.4159050">
        <ele>480.3</ele>
        <time>2019-08-13T11:19:15Z</time>
      </trkpt>
      <trkpt lat="40.1852200" lon="-4.4159400">
        <ele>480.4</ele>
        <time>2019-08-13T11:19:16Z</time>
      </trkpt>
      <trkpt lat="40.1852600" lon="-4.4159740">
        <ele>480.5</ele>
        <time>2019-08-13T11:19:17Z</time>
      </trkpt>
      <trkpt lat="40.1853000" lon="-4.4160070">
        <ele>480.7</ele>
        <time>2019-08-13T11:19:18Z</time>
      </trkpt>
      <trkpt lat="40.1853410" lon="-4.4160380">
        <ele>480.8</ele>
        <time>2019-08-13T11:19:19Z</time>
      </trkpt>
      <trkpt lat="40.1853810" lon="-4.4160710">
        <ele>481.0</ele>
        <time>2019-08-13T11:19:20Z</time>
      </trkpt>
      <trkpt lat="40.1854220" lon="-4.4161030">
        <ele>481.2</ele>
        <time>2019-08-13T11:19:21Z</time>
      </trkpt>
      <trkpt lat="40.1854620" lon="-4.4161350">
        <ele>481.5</ele>
        <time>2019-08-13T11:19:22Z</time>
      </trkpt>
      <trkpt lat="40.1855020" lon="-4.4161700">
        <ele>481.7</ele>
        <time>2019-08-13T11:19:23Z</time>
      </trkpt>
      <trkpt lat="40.1855420" lon="-4.4162060">
        <ele>482.0</ele>
        <time>2019-08-13T11:19:24Z</time>
      </trkpt>
      <trkpt lat="40.1855800" lon="-4.4162420">
        <ele>482.2</ele>
        <time>2019-08-13T11:19:25Z</time>
      </trkpt>
      <trkpt lat="40.1856190" lon="-4.4162780">
        <ele>482.5</ele>
        <time>2019-08-13T11:19:26Z</time>
      </trkpt>
      <trkpt lat="40.1856580" lon="-4.4163130">
        <ele>482.8</ele>
        <time>2019-08-13T11:19:27Z</time>
      </trkpt>
      <trkpt lat="40.1856980" lon="-4.4163480">
        <ele>483.1</ele>
        <time>2019-08-13T11:19:28Z</time>
      </trkpt>
      <trkpt lat="40.1857380" lon="-4.4163840">
        <ele>483.4</ele>
        <time>2019-08-13T11:19:29Z</time>
      </trkpt>
      <trkpt lat="40.1857770" lon="-4.4164240">
        <ele>483.6</ele>
        <time>2019-08-13T11:19:30Z</time>
      </trkpt>
      <trkpt lat="40.1858150" lon="-4.4164620">
        <ele>483.8</ele>
        <time>2019-08-13T11:19:31Z</time>
      </trkpt>
      <trkpt lat="40.1858530" lon="-4.4164980">
        <ele>483.9</ele>
        <time>2019-08-13T11:19:32Z</time>
      </trkpt>
      <trkpt lat="40.1858890" lon="-4.4165340">
        <ele>484.0</ele>
        <time>2019-08-13T11:19:33Z</time>
      </trkpt>
      <trkpt lat="40.1859260" lon="-4.4165700">
        <ele>484.1</ele>
        <time>2019-08-13T11:19:34Z</time>
      </trkpt>
      <trkpt lat="40.1859620" lon="-4.4166060">
        <ele>484.1</ele>
        <time>2019-08-13T11:19:35Z</time>
      </trkpt>
      <trkpt lat="40.1860000" lon="-4.4166430">
        <ele>484.2</ele>
        <time>2019-08-13T11:19:36Z</time>
      </trkpt>
      <trkpt lat="40.1860370" lon="-4.4166770">
        <ele>484.3</ele>
        <time>2019-08-13T11:19:37Z</time>
      </trkpt>
      <trkpt lat="40.1860760" lon="-4.4167100">
        <ele>484.3</ele>
        <time>2019-08-13T11:19:38Z</time>
      </trkpt>
      <trkpt lat="40.1861150" lon="-4.4167410">
        <ele>484.4</ele>
        <time>2019-08-13T11:19:39Z</time>
      </trkpt>
      <trkpt lat="40.1861550" lon="-4.4167720">
        <ele>484.4</ele>
        <time>2019-08-13T11:19:40Z</time>
      </trkpt>
      <trkpt lat="40.1861940" lon="-4.4168030">
        <ele>484.5</ele>
        <time>2019-08-13T11:19:41Z</time>
      </trkpt>
      <trkpt lat="40.1862320" lon="-4.4168340">
        <ele>484.5</ele>
        <time>2019-08-13T11:19:42Z</time>
      </trkpt>
      <trkpt lat="40.1862720" lon="-4.4168650">
        <ele>484.6</ele>
        <time>2019-08-13T11:19:43Z</time>
      </trkpt>
      <trkpt lat="40.1863100" lon="-4.4168970">
        <ele>484.7</ele>
        <time>2019-08-13T11:19:44Z</time>
      </trkpt>
      <trkpt lat="40.1863490" lon="-4.4169300">
        <ele>484.7</ele>
        <time>2019-08-13T11:19:45Z</time>
      </trkpt>
      <trkpt lat="40.1863880" lon="-4.4169600">
        <ele>484.8</ele>
        <time>2019-08-13T11:19:46Z</time>
      </trkpt>
      <trkpt lat="40.1864270" lon="-4.4169910">
        <ele>484.8</ele>
        <time>2019-08-13T11:19:47Z</time>
      </trkpt>
      <trkpt lat="40.1864650" lon="-4.4170220">
        <ele>484.9</ele>
        <time>2019-08-13T11:19:48Z</time>
      </trkpt>
      <trkpt lat="40.1865010" lon="-4.4170520">
        <ele>484.9</ele>
        <time>2019-08-13T11:19:49Z</time>
      </trkpt>
      <trkpt lat="40.1865380" lon="-4.4170830">
        <ele>485.0</ele>
        <time>2019-08-13T11:19:50Z</time>
      </trkpt>
      <trkpt lat="40.1865750" lon="-4.4171130">
        <ele>485.0</ele>
        <time>2019-08-13T11:19:51Z</time>
      </trkpt>
      <trkpt lat="40.1866130" lon="-4.4171430">
        <ele>485.0</ele>
        <time>2019-08-13T11:19:52Z</time>
      </trkpt>
      <trkpt lat="40.1866500" lon="-4.4171750">
        <ele>485.0</ele>
        <time>2019-08-13T11:19:53Z</time>
      </trkpt>
      <trkpt lat="40.1866870" lon="-4.4172070">
        <ele>485.0</ele>
        <time>2019-08-13T11:19:54Z</time>
      </trkpt>
      <trkpt lat="40.1867240" lon="-4.4172400">
        <ele>485.1</ele>
        <time>2019-08-13T11:19:55Z</time>
      </trkpt>
      <trkpt lat="40.1867590" lon="-4.4172750">
        <ele>485.1</ele>
        <time>2019-08-13T11:19:56Z</time>
      </trkpt>
      <trkpt lat="40.1867940" lon="-4.4173110">
        <ele>485.1</ele>
        <time>2019-08-13T11:19:57Z</time>
      </trkpt>
      <trkpt lat="40.1868290" lon="-4.4173490">
        <ele>485.1</ele>
        <time>2019-08-13T11:19:58Z</time>
      </trkpt>
      <trkpt lat="40.1868620" lon="-4.4173880">
        <ele>485.1</ele>
        <time>2019-08-13T11:19:59Z</time>
      </trkpt>
      <trkpt lat="40.1868950" lon="-4.4174260">
        <ele>485.1</ele>
        <time>2019-08-13T11:20:00Z</time>
      </trkpt>
      <trkpt lat="40.1869260" lon="-4.4174640">
        <ele>485.1</ele>
        <time>2019-08-13T11:20:01Z</time>
      </trkpt>
      <trkpt lat="40.1869590" lon="-4.4175050">
        <ele>485.2</ele>
        <time>2019-08-13T11:20:02Z</time>
      </trkpt>
      <trkpt lat="40.1869920" lon="-4.4175470">
        <ele>485.2</ele>
        <time>2019-08-13T11:20:03Z</time>
      </trkpt>
      <trkpt lat="40.1870250" lon="-4.4175900">
        <ele>485.2</ele>
        <time>2019-08-13T11:20:04Z</time>
      </trkpt>
      <trkpt lat="40.1870550" lon="-4.4176340">
        <ele>485.2</ele>
        <time>2019-08-13T11:20:05Z</time>
      </trkpt>
      <trkpt lat="40.1870820" lon="-4.4176760">
        <ele>485.2</ele>
        <time>2019-08-13T11:20:06Z</time>
      </trkpt>
      <trkpt lat="40.1871090" lon="-4.4177190">
        <ele>485.2</ele>
        <time>2019-08-13T11:20:07Z</time>
      </trkpt>
      <trkpt lat="40.1871390" lon="-4.4177630">
        <ele>485.2</ele>
        <time>2019-08-13T11:20:08Z</time>
      </trkpt>
      <trkpt lat="40.1871680" lon="-4.4178090">
        <ele>485.2</ele>
        <time>2019-08-13T11:20:09Z</time>
      </trkpt>
      <trkpt lat="40.1871970" lon="-4.4178580">
        <ele>485.2</ele>
        <time>2019-08-13T11:20:10Z</time>
      </trkpt>
      <trkpt lat="40.1872250" lon="-4.4179070">
        <ele>485.2</ele>
        <time>2019-08-13T11:20:11Z</time>
      </trkpt>
      <trkpt lat="40.1872510" lon="-4.4179560">
        <ele>485.2</ele>
        <time>2019-08-13T11:20:12Z</time>
      </trkpt>
      <trkpt lat="40.1872750" lon="-4.4180030">
        <ele>485.2</ele>
        <time>2019-08-13T11:20:13Z</time>
      </trkpt>
      <trkpt lat="40.1872990" lon="-4.4180500">
        <ele>485.2</ele>
        <time>2019-08-13T11:20:14Z</time>
      </trkpt>
      <trkpt lat="40.1873230" lon="-4.4180970">
        <ele>485.2</ele>
        <time>2019-08-13T11:20:15Z</time>
      </trkpt>
      <trkpt lat="40.1873470" lon="-4.4181440">
        <ele>485.1</ele>
        <time>2019-08-13T11:20:16Z</time>
      </trkpt>
      <trkpt lat="40.1873720" lon="-4.4181930">
        <ele>485.1</ele>
        <time>2019-08-13T11:20:17Z</time>
      </trkpt>
      <trkpt lat="40.1873980" lon="-4.4182430">
        <ele>485.1</ele>
        <time>2019-08-13T11:20:18Z</time>
      </trkpt>
      <trkpt lat="40.1874240" lon="-4.4182940">
        <ele>485.1</ele>
        <time>2019-08-13T11:20:19Z</time>
      </trkpt>
      <trkpt lat="40.1874500" lon="-4.4183460">
        <ele>485.0</ele>
        <time>2019-08-13T11:20:20Z</time>
      </trkpt>
      <trkpt lat="40.1874760" lon="-4.4183980">
        <ele>485.0</ele>
        <time>2019-08-13T11:20:21Z</time>
      </trkpt>
      <trkpt lat="40.1875020" lon="-4.4184480">
        <ele>485.0</ele>
        <time>2019-08-13T11:20:22Z</time>
      </trkpt>
      <trkpt lat="40.1875280" lon="-4.4184990">
        <ele>485.0</ele>
        <time>2019-08-13T11:20:23Z</time>
      </trkpt>
      <trkpt lat="40.1875510" lon="-4.4185480">
        <ele>484.9</ele>
        <time>2019-08-13T11:20:24Z</time>
      </trkpt>
      <trkpt lat="40.1875740" lon="-4.4185970">
        <ele>484.9</ele>
        <time>2019-08-13T11:20:25Z</time>
      </trkpt>
      <trkpt lat="40.1875950" lon="-4.4186430">
        <ele>484.9</ele>
        <time>2019-08-13T11:20:26Z</time>
      </trkpt>
      <trkpt lat="40.1876160" lon="-4.4186870">
        <ele>484.9</ele>
        <time>2019-08-13T11:20:27Z</time>
      </trkpt>
      <trkpt lat="40.1876380" lon="-4.4187310">
        <ele>484.9</ele>
        <time>2019-08-13T11:20:28Z</time>
      </trkpt>
      <trkpt lat="40.1876640" lon="-4.4187790">
        <ele>484.8</ele>
        <time>2019-08-13T11:20:29Z</time>
      </trkpt>
      <trkpt lat="40.1876920" lon="-4.4188290">
        <ele>484.8</ele>
        <time>2019-08-13T11:20:30Z</time>
      </trkpt>
      <trkpt lat="40.1877210" lon="-4.4188840">
        <ele>484.8</ele>
        <time>2019-08-13T11:20:31Z</time>
      </trkpt>
      <trkpt lat="40.1877500" lon="-4.4189430">
        <ele>484.7</ele>
        <time>2019-08-13T11:20:32Z</time>
      </trkpt>
      <trkpt lat="40.1877780" lon="-4.4190030">
        <ele>484.7</ele>
        <time>2019-08-13T11:20:33Z</time>
      </trkpt>
      <trkpt lat="40.1878100" lon="-4.4190630">
        <ele>484.7</ele>
        <time>2019-08-13T11:20:34Z</time>
      </trkpt>
      <trkpt lat="40.1878430" lon="-4.4191240">
        <ele>484.7</ele>
        <time>2019-08-13T11:20:35Z</time>
      </trkpt>
      <trkpt lat="40.1878750" lon="-4.4191860">
        <ele>484.7</ele>
        <time>2019-08-13T11:20:36Z</time>
      </trkpt>
      <trkpt lat="40.1879080" lon="-4.4192500">
        <ele>484.7</ele>
        <time>2019-08-13T11:20:37Z</time>
      </trkpt>
      <trkpt lat="40.1879410" lon="-4.4193140">
        <ele>484.7</ele>
        <time>2019-08-13T11:20:38Z</time>
      </trkpt>
      <trkpt lat="40.1879750" lon="-4.4193790">
        <ele>484.7</ele>
        <time>2019-08-13T11:20:39Z</time>
      </trkpt>
      <trkpt lat="40.1880090" lon="-4.4194430">
        <ele>484.7</ele>
        <time>2019-08-13T11:20:40Z</time>
      </trkpt>
      <trkpt lat="40.1880420" lon="-4.4195070">
        <ele>484.7</ele>
        <time>2019-08-13T11:20:41Z</time>
      </trkpt>
      <trkpt lat="40.1880740" lon="-4.4195710">
        <ele>484.7</ele>
        <time>2019-08-13T11:20:42Z</time>
      </trkpt>
      <trkpt lat="40.1881050" lon="-4.4196340">
        <ele>484.7</ele>
        <time>2019-08-13T11:20:43Z</time>
      </trkpt>
      <trkpt lat="40.1881370" lon="-4.4196950">
        <ele>484.7</ele>
        <time>2019-08-13T11:20:44Z</time>
      </trkpt>
      <trkpt lat="40.1881690" lon="-4.4197540">
        <ele>484.7</ele>
        <time>2019-08-13T11:20:45Z</time>
      </trkpt>
      <trkpt lat="40.1882000" lon="-4.4198130">
        <ele>484.7</ele>
        <time>2019-08-13T11:20:46Z</time>
      </trkpt>
      <trkpt lat="40.1882310" lon="-4.4198710">
        <ele>484.7</ele>
        <time>2019-08-13T11:20:47Z</time>
      </trkpt>
      <trkpt lat="40.1882640" lon="-4.4199320">
        <ele>484.7</ele>
        <time>2019-08-13T11:20:48Z</time>
      </trkpt>
      <trkpt lat="40.1882960" lon="-4.4199960">
        <ele>484.7</ele>
        <time>2019-08-13T11:20:49Z</time>
      </trkpt>
      <trkpt lat="40.1883290" lon="-4.4200620">
        <ele>484.7</ele>
        <time>2019-08-13T11:20:50Z</time>
      </trkpt>
      <trkpt lat="40.1883620" lon="-4.4201260">
        <ele>484.7</ele>
        <time>2019-08-13T11:20:51Z</time>
      </trkpt>
      <trkpt lat="40.1883950" lon="-4.4201900">
        <ele>484.7</ele>
        <time>2019-08-13T11:20:52Z</time>
      </trkpt>
      <trkpt lat="40.1884280" lon="-4.4202530">
        <ele>484.7</ele>
        <time>2019-08-13T11:20:53Z</time>
      </trkpt>
      <trkpt lat="40.1884600" lon="-4.4203140">
        <ele>484.7</ele>
        <time>2019-08-13T11:20:54Z</time>
      </trkpt>
      <trkpt lat="40.1884910" lon="-4.4203760">
        <ele>484.8</ele>
        <time>2019-08-13T11:20:55Z</time>
      </trkpt>
      <trkpt lat="40.1885220" lon="-4.4204410">
        <ele>484.8</ele>
        <time>2019-08-13T11:20:56Z</time>
      </trkpt>
      <trkpt lat="40.1885540" lon="-4.4205050">
        <ele>484.8</ele>
        <time>2019-08-13T11:20:57Z</time>
      </trkpt>
      <trkpt lat="40.1885870" lon="-4.4205690">
        <ele>484.8</ele>
        <time>2019-08-13T11:20:58Z</time>
      </trkpt>
      <trkpt lat="40.1886180" lon="-4.4206330">
        <ele>484.9</ele>
        <time>2019-08-13T11:20:59Z</time>
      </trkpt>
      <trkpt lat="40.1886490" lon="-4.4206960">
        <ele>484.9</ele>
        <time>2019-08-13T11:21:00Z</time>
      </trkpt>
      <trkpt lat="40.1886810" lon="-4.4207580">
        <ele>484.9</ele>
        <time>2019-08-13T11:21:01Z</time>
      </trkpt>
      <trkpt lat="40.1887120" lon="-4.4208200">
        <ele>484.9</ele>
        <time>2019-08-13T11:21:02Z</time>
      </trkpt>
      <trkpt lat="40.1887420" lon="-4.4208810">
        <ele>484.9</ele>
        <time>2019-08-13T11:21:03Z</time>
      </trkpt>
      <trkpt lat="40.1887730" lon="-4.4209410">
        <ele>484.8</ele>
        <time>2019-08-13T11:21:04Z</time>
      </trkpt>
      <trkpt lat="40.1888030" lon="-4.4210010">
        <ele>484.8</ele>
        <time>2019-08-13T11:21:05Z</time>
      </trkpt>
      <trkpt lat="40.1888340" lon="-4.4210600">
        <ele>484.8</ele>
        <time>2019-08-13T11:21:06Z</time>
      </trkpt>
      <trkpt lat="40.1888620" lon="-4.4211160">
        <ele>484.8</ele>
        <time>2019-08-13T11:21:07Z</time>
      </trkpt>
      <trkpt lat="40.1888910" lon="-4.4211720">
        <ele>484.8</ele>
        <time>2019-08-13T11:21:08Z</time>
      </trkpt>
      <trkpt lat="40.1889200" lon="-4.4212310">
        <ele>484.7</ele>
        <time>2019-08-13T11:21:09Z</time>
      </trkpt>
      <trkpt lat="40.1889460" lon="-4.4212880">
        <ele>484.7</ele>
        <time>2019-08-13T11:21:10Z</time>
      </trkpt>
      <trkpt lat="40.1889730" lon="-4.4213460">
        <ele>484.7</ele>
        <time>2019-08-13T11:21:11Z</time>
      </trkpt>
      <trkpt lat="40.1889980" lon="-4.4214050">
        <ele>484.7</ele>
        <time>2019-08-13T11:21:12Z</time>
      </trkpt>
      <trkpt lat="40.1890230" lon="-4.4214650">
        <ele>484.6</ele>
        <time>2019-08-13T11:21:13Z</time>
      </trkpt>
      <trkpt lat="40.1890480" lon="-4.4215250">
        <ele>484.6</ele>
        <time>2019-08-13T11:21:14Z</time>
      </trkpt>
      <trkpt lat="40.1890740" lon="-4.4215860">
        <ele>484.6</ele>
        <time>2019-08-13T11:21:15Z</time>
      </trkpt>
      <trkpt lat="40.1891000" lon="-4.4216470">
        <ele>484.6</ele>
        <time>2019-08-13T11:21:16Z</time>
      </trkpt>
      <trkpt lat="40.1891260" lon="-4.4217100">
        <ele>484.5</ele>
        <time>2019-08-13T11:21:17Z</time>
      </trkpt>
      <trkpt lat="40.1891510" lon="-4.4217730">
        <ele>484.5</ele>
        <time>2019-08-13T11:21:18Z</time>
      </trkpt>
      <trkpt lat="40.1891760" lon="-4.4218370">
        <ele>484.5</ele>
        <time>2019-08-13T11:21:19Z</time>
      </trkpt>
      <trkpt lat="40.1892000" lon="-4.4219000">
        <ele>484.5</ele>
        <time>2019-08-13T11:21:20Z</time>
      </trkpt>
      <trkpt lat="40.1892260" lon="-4.4219650">
        <ele>484.5</ele>
        <time>2019-08-13T11:21:21Z</time>
      </trkpt>
      <trkpt lat="40.1892520" lon="-4.4220320">
        <ele>484.5</ele>
        <time>2019-08-13T11:21:22Z</time>
      </trkpt>
      <trkpt lat="40.1892790" lon="-4.4221030">
        <ele>484.5</ele>
        <time>2019-08-13T11:21:23Z</time>
      </trkpt>
      <trkpt lat="40.1893060" lon="-4.4221760">
        <ele>484.5</ele>
        <time>2019-08-13T11:21:24Z</time>
      </trkpt>
      <trkpt lat="40.1893330" lon="-4.4222480">
        <ele>484.5</ele>
        <time>2019-08-13T11:21:25Z</time>
      </trkpt>
      <trkpt lat="40.1893600" lon="-4.4223200">
        <ele>484.5</ele>
        <time>2019-08-13T11:21:26Z</time>
      </trkpt>
      <trkpt lat="40.1893850" lon="-4.4223920">
        <ele>484.5</ele>
        <time>2019-08-13T11:21:27Z</time>
      </trkpt>
      <trkpt lat="40.1894100" lon="-4.4224630">
        <ele>484.5</ele>
        <time>2019-08-13T11:21:28Z</time>
      </trkpt>
      <trkpt lat="40.1894350" lon="-4.4225330">
        <ele>484.5</ele>
        <time>2019-08-13T11:21:29Z</time>
      </trkpt>
      <trkpt lat="40.1894610" lon="-4.4226020">
        <ele>484.5</ele>
        <time>2019-08-13T11:21:30Z</time>
      </trkpt>
      <trkpt lat="40.1894880" lon="-4.4226700">
        <ele>484.6</ele>
        <time>2019-08-13T11:21:31Z</time>
      </trkpt>
      <trkpt lat="40.1895140" lon="-4.4227380">
        <ele>484.6</ele>
        <time>2019-08-13T11:21:32Z</time>
      </trkpt>
      <trkpt lat="40.1895390" lon="-4.4228000">
        <ele>484.6</ele>
        <time>2019-08-13T11:21:33Z</time>
      </trkpt>
      <trkpt lat="40.1895650" lon="-4.4228640">
        <ele>484.6</ele>
        <time>2019-08-13T11:21:34Z</time>
      </trkpt>
      <trkpt lat="40.1895900" lon="-4.4229250">
        <ele>484.7</ele>
        <time>2019-08-13T11:21:35Z</time>
      </trkpt>
      <trkpt lat="40.1896180" lon="-4.4229840">
        <ele>484.7</ele>
        <time>2019-08-13T11:21:36Z</time>
      </trkpt>
      <trkpt lat="40.1896490" lon="-4.4230420">
        <ele>484.8</ele>
        <time>2019-08-13T11:21:37Z</time>
      </trkpt>
      <trkpt lat="40.1896820" lon="-4.4231010">
        <ele>484.8</ele>
        <time>2019-08-13T11:21:38Z</time>
      </trkpt>
      <trkpt lat="40.1897150" lon="-4.4231590">
        <ele>484.8</ele>
        <time>2019-08-13T11:21:39Z</time>
      </trkpt>
      <trkpt lat="40.1897500" lon="-4.4232180">
        <ele>484.8</ele>
        <time>2019-08-13T11:21:40Z</time>
      </trkpt>
      <trkpt lat="40.1897860" lon="-4.4232770">
        <ele>484.9</ele>
        <time>2019-08-13T11:21:41Z</time>
      </trkpt>
      <trkpt lat="40.1898220" lon="-4.4233350">
        <ele>484.9</ele>
        <time>2019-08-13T11:21:42Z</time>
      </trkpt>
      <trkpt lat="40.1898600" lon="-4.4233930">
        <ele>484.9</ele>
        <time>2019-08-13T11:21:43Z</time>
      </trkpt>
      <trkpt lat="40.1898980" lon="-4.4234520">
        <ele>485.0</ele>
        <time>2019-08-13T11:21:44Z</time>
      </trkpt>
      <trkpt lat="40.1899340" lon="-4.4235100">
        <ele>485.0</ele>
        <time>2019-08-13T11:21:45Z</time>
      </trkpt>
      <trkpt lat="40.1899700" lon="-4.4235690">
        <ele>485.0</ele>
        <time>2019-08-13T11:21:46Z</time>
      </trkpt>
      <trkpt lat="40.1900060" lon="-4.4236250">
        <ele>485.0</ele>
        <time>2019-08-13T11:21:47Z</time>
      </trkpt>
      <trkpt lat="40.1900430" lon="-4.4236810">
        <ele>485.1</ele>
        <time>2019-08-13T11:21:48Z</time>
      </trkpt>
      <trkpt lat="40.1900810" lon="-4.4237360">
        <ele>485.1</ele>
        <time>2019-08-13T11:21:49Z</time>
      </trkpt>
      <trkpt lat="40.1901190" lon="-4.4237920">
        <ele>485.1</ele>
        <time>2019-08-13T11:21:50Z</time>
      </trkpt>
      <trkpt lat="40.1901560" lon="-4.4238510">
        <ele>485.1</ele>
        <time>2019-08-13T11:21:51Z</time>
      </trkpt>
      <trkpt lat="40.1901920" lon="-4.4239090">
        <ele>485.1</ele>
        <time>2019-08-13T11:21:52Z</time>
      </trkpt>
      <trkpt lat="40.1902270" lon="-4.4239670">
        <ele>485.1</ele>
        <time>2019-08-13T11:21:53Z</time>
      </trkpt>
      <trkpt lat="40.1902610" lon="-4.4240220">
        <ele>485.1</ele>
        <time>2019-08-13T11:21:54Z</time>
      </trkpt>
      <trkpt lat="40.1902960" lon="-4.4240740">
        <ele>485.1</ele>
        <time>2019-08-13T11:21:55Z</time>
      </trkpt>
      <trkpt lat="40.1903290" lon="-4.4241240">
        <ele>485.1</ele>
        <time>2019-08-13T11:21:56Z</time>
      </trkpt>
      <trkpt lat="40.1903620" lon="-4.4241750">
        <ele>485.1</ele>
        <time>2019-08-13T11:21:57Z</time>
      </trkpt>
      <trkpt lat="40.1903960" lon="-4.4242270">
        <ele>485.1</ele>
        <time>2019-08-13T11:21:58Z</time>
      </trkpt>
      <trkpt lat="40.1904320" lon="-4.4242810">
        <ele>485.1</ele>
        <time>2019-08-13T11:21:59Z</time>
      </trkpt>
      <trkpt lat="40.1904660" lon="-4.4243350">
        <ele>485.1</ele>
        <time>2019-08-13T11:22:00Z</time>
      </trkpt>
      <trkpt lat="40.1905020" lon="-4.4243880">
        <ele>485.0</ele>
        <time>2019-08-13T11:22:01Z</time>
      </trkpt>
      <trkpt lat="40.1905370" lon="-4.4244420">
        <ele>485.0</ele>
        <time>2019-08-13T11:22:02Z</time>
      </trkpt>
      <trkpt lat="40.1905700" lon="-4.4244950">
        <ele>485.0</ele>
        <time>2019-08-13T11:22:03Z</time>
      </trkpt>
      <trkpt lat="40.1906030" lon="-4.4245470">
        <ele>485.0</ele>
        <time>2019-08-13T11:22:04Z</time>
      </trkpt>
      <trkpt lat="40.1906360" lon="-4.4245980">
        <ele>484.9</ele>
        <time>2019-08-13T11:22:05Z</time>
      </trkpt>
      <trkpt lat="40.1906680" lon="-4.4246510">
        <ele>484.9</ele>
        <time>2019-08-13T11:22:06Z</time>
      </trkpt>
      <trkpt lat="40.1907030" lon="-4.4247050">
        <ele>484.8</ele>
        <time>2019-08-13T11:22:07Z</time>
      </trkpt>
      <trkpt lat="40.1907380" lon="-4.4247590">
        <ele>484.7</ele>
        <time>2019-08-13T11:22:08Z</time>
      </trkpt>
      <trkpt lat="40.1907730" lon="-4.4248150">
        <ele>484.7</ele>
        <time>2019-08-13T11:22:09Z</time>
      </trkpt>
      <trkpt lat="40.1908090" lon="-4.4248700">
        <ele>484.6</ele>
        <time>2019-08-13T11:22:10Z</time>
      </trkpt>
      <trkpt lat="40.1908440" lon="-4.4249240">
        <ele>484.5</ele>
        <time>2019-08-13T11:22:11Z</time>
      </trkpt>
      <trkpt lat="40.1908770" lon="-4.4249770">
        <ele>484.5</ele>
        <time>2019-08-13T11:22:12Z</time>
      </trkpt>
      <trkpt lat="40.1909100" lon="-4.4250310">
        <ele>484.4</ele>
        <time>2019-08-13T11:22:13Z</time>
      </trkpt>
      <trkpt lat="40.1909430" lon="-4.4250870">
        <ele>484.3</ele>
        <time>2019-08-13T11:22:14Z</time>
      </trkpt>
      <trkpt lat="40.1909760" lon="-4.4251440">
        <ele>484.2</ele>
        <time>2019-08-13T11:22:15Z</time>
      </trkpt>
      <trkpt lat="40.1910100" lon="-4.4252010">
        <ele>484.1</ele>
        <time>2019-08-13T11:22:16Z</time>
      </trkpt>
      <trkpt lat="40.1910440" lon="-4.4252580">
        <ele>484.1</ele>
        <time>2019-08-13T11:22:17Z</time>
      </trkpt>
      <trkpt lat="40.1910790" lon="-4.4253140">
        <ele>484.0</ele>
        <time>2019-08-13T11:22:18Z</time>
      </trkpt>
      <trkpt lat="40.1911150" lon="-4.4253690">
        <ele>483.9</ele>
        <time>2019-08-13T11:22:19Z</time>
      </trkpt>
      <trkpt lat="40.1911500" lon="-4.4254250">
        <ele>483.8</ele>
        <time>2019-08-13T11:22:20Z</time>
      </trkpt>
      <trkpt lat="40.1911860" lon="-4.4254810">
        <ele>483.7</ele>
        <time>2019-08-13T11:22:21Z</time>
      </trkpt>
      <trkpt lat="40.1912220" lon="-4.4255370">
        <ele>483.6</ele>
        <time>2019-08-13T11:22:22Z</time>
      </trkpt>
      <trkpt lat="40.1912580" lon="-4.4255910">
        <ele>483.4</ele>
        <time>2019-08-13T11:22:23Z</time>
      </trkpt>
      <trkpt lat="40.1912930" lon="-4.4256460">
        <ele>483.3</ele>
        <time>2019-08-13T11:22:24Z</time>
      </trkpt>
      <trkpt lat="40.1913250" lon="-4.4257020">
        <ele>483.1</ele>
        <time>2019-08-13T11:22:25Z</time>
      </trkpt>
      <trkpt lat="40.1913570" lon="-4.4257580">
        <ele>483.0</ele>
        <time>2019-08-13T11:22:26Z</time>
      </trkpt>
      <trkpt lat="40.1913890" lon="-4.4258130">
        <ele>482.9</ele>
        <time>2019-08-13T11:22:27Z</time>
      </trkpt>
      <trkpt lat="40.1914240" lon="-4.4258640">
        <ele>482.8</ele>
        <time>2019-08-13T11:22:28Z</time>
      </trkpt>
      <trkpt lat="40.1914580" lon="-4.4259160">
        <ele>482.7</ele>
        <time>2019-08-13T11:22:29Z</time>
      </trkpt>
      <trkpt lat="40.1914930" lon="-4.4259710">
        <ele>482.7</ele>
        <time>2019-08-13T11:22:30Z</time>
      </trkpt>
      <trkpt lat="40.1915280" lon="-4.4260240">
        <ele>482.6</ele>
        <time>2019-08-13T11:22:31Z</time>
      </trkpt>
      <trkpt lat="40.1915640" lon="-4.4260730">
        <ele>482.6</ele>
        <time>2019-08-13T11:22:32Z</time>
      </trkpt>
      <trkpt lat="40.1916010" lon="-4.4261160">
        <ele>482.5</ele>
        <time>2019-08-13T11:22:33Z</time>
      </trkpt>
      <trkpt lat="40.1916380" lon="-4.4261570">
        <ele>482.5</ele>
        <time>2019-08-13T11:22:34Z</time>
      </trkpt>
      <trkpt lat="40.1916780" lon="-4.4261950">
        <ele>482.5</ele>
        <time>2019-08-13T11:22:35Z</time>
      </trkpt>
      <trkpt lat="40.1917170" lon="-4.4262320">
        <ele>482.4</ele>
        <time>2019-08-13T11:22:36Z</time>
      </trkpt>
      <trkpt lat="40.1917550" lon="-4.4262660">
        <ele>482.4</ele>
        <time>2019-08-13T11:22:37Z</time>
      </trkpt>
      <trkpt lat="40.1917900" lon="-4.4262970">
        <ele>482.4</ele>
        <time>2019-08-13T11:22:38Z</time>
      </trkpt>
      <trkpt lat="40.1918190" lon="-4.4263250">
        <ele>482.3</ele>
        <time>2019-08-13T11:22:39Z</time>
      </trkpt>
      <trkpt lat="40.1918500" lon="-4.4263460">
        <ele>482.3</ele>
        <time>2019-08-13T11:22:40Z</time>
      </trkpt>
      <trkpt lat="40.1918880" lon="-4.4263610">
        <ele>482.3</ele>
        <time>2019-08-13T11:22:41Z</time>
      </trkpt>
      <trkpt lat="40.1919300" lon="-4.4263770">
        <ele>482.2</ele>
        <time>2019-08-13T11:22:42Z</time>
      </trkpt>
      <trkpt lat="40.1919760" lon="-4.4263960">
        <ele>482.2</ele>
        <time>2019-08-13T11:22:43Z</time>
      </trkpt>
      <trkpt lat="40.1920250" lon="-4.4264160">
        <ele>482.1</ele>
        <time>2019-08-13T11:22:44Z</time>
      </trkpt>
      <trkpt lat="40.1920770" lon="-4.4264360">
        <ele>482.1</ele>
        <time>2019-08-13T11:22:45Z</time>
      </trkpt>
      <trkpt lat="40.1921300" lon="-4.4264540">
        <ele>482.1</ele>
        <time>2019-08-13T11:22:46Z</time>
      </trkpt>
      <trkpt lat="40.1921860" lon="-4.4264690">
        <ele>482.0</ele>
        <time>2019-08-13T11:22:47Z</time>
      </trkpt>
      <trkpt lat="40.1922430" lon="-4.4264830">
        <ele>482.0</ele>
        <time>2019-08-13T11:22:48Z</time>
      </trkpt>
      <trkpt lat="40.1923010" lon="-4.4264960">
        <ele>482.0</ele>
        <time>2019-08-13T11:22:49Z</time>
      </trkpt>
      <trkpt lat="40.1923610" lon="-4.4265080">
        <ele>481.9</ele>
        <time>2019-08-13T11:22:50Z</time>
      </trkpt>
      <trkpt lat="40.1924220" lon="-4.4265200">
        <ele>481.9</ele>
        <time>2019-08-13T11:22:51Z</time>
      </trkpt>
      <trkpt lat="40.1924810" lon="-4.4265290">
        <ele>481.9</ele>
        <time>2019-08-13T11:22:52Z</time>
      </trkpt>
      <trkpt lat="40.1925400" lon="-4.4265400">
        <ele>481.9</ele>
        <time>2019-08-13T11:22:53Z</time>
      </trkpt>
      <trkpt lat="40.1925980" lon="-4.4265480">
        <ele>481.9</ele>
        <time>2019-08-13T11:22:54Z</time>
      </trkpt>
      <trkpt lat="40.1926560" lon="-4.4265520">
        <ele>481.9</ele>
        <time>2019-08-13T11:22:55Z</time>
      </trkpt>
      <trkpt lat="40.1927130" lon="-4.4265580">
        <ele>481.9</ele>
        <time>2019-08-13T11:22:56Z</time>
      </trkpt>
      <trkpt lat="40.1927710" lon="-4.4265630">
        <ele>481.9</ele>
        <time>2019-08-13T11:22:57Z</time>
      </trkpt>
      <trkpt lat="40.1928280" lon="-4.4265700">
        <ele>481.9</ele>
        <time>2019-08-13T11:22:58Z</time>
      </trkpt>
      <trkpt lat="40.1928860" lon="-4.4265790">
        <ele>481.9</ele>
        <time>2019-08-13T11:22:59Z</time>
      </trkpt>
      <trkpt lat="40.1929450" lon="-4.4265880">
        <ele>481.9</ele>
        <time>2019-08-13T11:23:00Z</time>
      </trkpt>
      <trkpt lat="40.1930040" lon="-4.4265970">
        <ele>481.9</ele>
        <time>2019-08-13T11:23:01Z</time>
      </trkpt>
      <trkpt lat="40.1930650" lon="-4.4266050">
        <ele>481.9</ele>
        <time>2019-08-13T11:23:02Z</time>
      </trkpt>
      <trkpt lat="40.1931250" lon="-4.4266140">
        <ele>481.9</ele>
        <time>2019-08-13T11:23:03Z</time>
      </trkpt>
      <trkpt lat="40.1931850" lon="-4.4266230">
        <ele>481.9</ele>
        <time>2019-08-13T11:23:04Z</time>
      </trkpt>
      <trkpt lat="40.1932450" lon="-4.4266300">
        <ele>481.9</ele>
        <time>2019-08-13T11:23:05Z</time>
      </trkpt>
      <trkpt lat="40.1933050" lon="-4.4266360">
        <ele>481.9</ele>
        <time>2019-08-13T11:23:06Z</time>
      </trkpt>
      <trkpt lat="40.1933650" lon="-4.4266440">
        <ele>481.8</ele>
        <time>2019-08-13T11:23:07Z</time>
      </trkpt>
      <trkpt lat="40.1934240" lon="-4.4266510">
        <ele>481.8</ele>
        <time>2019-08-13T11:23:08Z</time>
      </trkpt>
      <trkpt lat="40.1934820" lon="-4.4266580">
        <ele>481.8</ele>
        <time>2019-08-13T11:23:09Z</time>
      </trkpt>
      <trkpt lat="40.1935390" lon="-4.4266670">
        <ele>481.8</ele>
        <time>2019-08-13T11:23:10Z</time>
      </trkpt>
      <trkpt lat="40.1935960" lon="-4.4266760">
        <ele>481.8</ele>
        <time>2019-08-13T11:23:11Z</time>
      </trkpt>
      <trkpt lat="40.1936510" lon="-4.4266840">
        <ele>481.8</ele>
        <time>2019-08-13T11:23:12Z</time>
      </trkpt>
      <trkpt lat="40.1937050" lon="-4.4266930">
        <ele>481.7</ele>
        <time>2019-08-13T11:23:13Z</time>
      </trkpt>
      <trkpt lat="40.1937590" lon="-4.4267010">
        <ele>481.7</ele>
        <time>2019-08-13T11:23:14Z</time>
      </trkpt>
      <trkpt lat="40.1938110" lon="-4.4267060">
        <ele>481.7</ele>
        <time>2019-08-13T11:23:15Z</time>
      </trkpt>
      <trkpt lat="40.1938610" lon="-4.4267120">
        <ele>481.7</ele>
        <time>2019-08-13T11:23:16Z</time>
      </trkpt>
      <trkpt lat="40.1939120" lon="-4.4267190">
        <ele>481.6</ele>
        <time>2019-08-13T11:23:17Z</time>
      </trkpt>
      <trkpt lat="40.1939620" lon="-4.4267270">
        <ele>481.6</ele>
        <time>2019-08-13T11:23:18Z</time>
      </trkpt>
      <trkpt lat="40.1940130" lon="-4.4267370">
        <ele>481.6</ele>
        <time>2019-08-13T11:23:19Z</time>
      </trkpt>
      <trkpt lat="40.1940660" lon="-4.4267420">
        <ele>481.5</ele>
        <time>2019-08-13T11:23:20Z</time>
      </trkpt>
      <trkpt lat="40.1941200" lon="-4.4267440">
        <ele>481.5</ele>
        <time>2019-08-13T11:23:21Z</time>
      </trkpt>
      <trkpt lat="40.1941750" lon="-4.4267480">
        <ele>481.5</ele>
        <time>2019-08-13T11:23:22Z</time>
      </trkpt>
      <trkpt lat="40.1942310" lon="-4.4267530">
        <ele>481.4</ele>
        <time>2019-08-13T11:23:23Z</time>
      </trkpt>
      <trkpt lat="40.1942870" lon="-4.4267590">
        <ele>481.3</ele>
        <time>2019-08-13T11:23:24Z</time>
      </trkpt>
      <trkpt lat="40.1943420" lon="-4.4267670">
        <ele>481.3</ele>
        <time>2019-08-13T11:23:25Z</time>
      </trkpt>
      <trkpt lat="40.1943990" lon="-4.4267750">
        <ele>481.2</ele>
        <time>2019-08-13T11:23:26Z</time>
      </trkpt>
      <trkpt lat="40.1944550" lon="-4.4267830">
        <ele>481.1</ele>
        <time>2019-08-13T11:23:27Z</time>
      </trkpt>
      <trkpt lat="40.1945100" lon="-4.4267910">
        <ele>481.1</ele>
        <time>2019-08-13T11:23:28Z</time>
      </trkpt>
      <trkpt lat="40.1945670" lon="-4.4267990">
        <ele>481.0</ele>
        <time>2019-08-13T11:23:29Z</time>
      </trkpt>
      <trkpt lat="40.1946230" lon="-4.4268090">
        <ele>481.0</ele>
        <time>2019-08-13T11:23:30Z</time>
      </trkpt>
      <trkpt lat="40.1946790" lon="-4.4268180">
        <ele>480.9</ele>
        <time>2019-08-13T11:23:31Z</time>
      </trkpt>
      <trkpt lat="40.1947360" lon="-4.4268270">
        <ele>480.9</ele>
        <time>2019-08-13T11:23:32Z</time>
      </trkpt>
      <trkpt lat="40.1947930" lon="-4.4268330">
        <ele>480.8</ele>
        <time>2019-08-13T11:23:33Z</time>
      </trkpt>
      <trkpt lat="40.1948510" lon="-4.4268400">
        <ele>480.8</ele>
        <time>2019-08-13T11:23:34Z</time>
      </trkpt>
      <trkpt lat="40.1949100" lon="-4.4268480">
        <ele>480.8</ele>
        <time>2019-08-13T11:23:35Z</time>
      </trkpt>
      <trkpt lat="40.1949670" lon="-4.4268560">
        <ele>480.8</ele>
        <time>2019-08-13T11:23:36Z</time>
      </trkpt>
      <trkpt lat="40.1950260" lon="-4.4268650">
        <ele>480.8</ele>
        <time>2019-08-13T11:23:37Z</time>
      </trkpt>
      <trkpt lat="40.1950840" lon="-4.4268740">
        <ele>480.8</ele>
        <time>2019-08-13T11:23:38Z</time>
      </trkpt>
      <trkpt lat="40.1951420" lon="-4.4268810">
        <ele>480.8</ele>
        <time>2019-08-13T11:23:39Z</time>
      </trkpt>
      <trkpt lat="40.1952000" lon="-4.4268880">
        <ele>480.8</ele>
        <time>2019-08-13T11:23:40Z</time>
      </trkpt>
      <trkpt lat="40.1952590" lon="-4.4268960">
        <ele>480.8</ele>
        <time>2019-08-13T11:23:41Z</time>
      </trkpt>
      <trkpt lat="40.1953150" lon="-4.4269040">
        <ele>480.8</ele>
        <time>2019-08-13T11:23:42Z</time>
      </trkpt>
      <trkpt lat="40.1953700" lon="-4.4269130">
        <ele>480.8</ele>
        <time>2019-08-13T11:23:43Z</time>
      </trkpt>
      <trkpt lat="40.1954240" lon="-4.4269210">
        <ele>480.8</ele>
        <time>2019-08-13T11:23:44Z</time>
      </trkpt>
      <trkpt lat="40.1954770" lon="-4.4269280">
        <ele>480.9</ele>
        <time>2019-08-13T11:23:45Z</time>
      </trkpt>
      <trkpt lat="40.1955290" lon="-4.4269360">
        <ele>480.9</ele>
        <time>2019-08-13T11:23:46Z</time>
      </trkpt>
      <trkpt lat="40.1955810" lon="-4.4269450">
        <ele>480.9</ele>
        <time>2019-08-13T11:23:47Z</time>
      </trkpt>
      <trkpt lat="40.1956360" lon="-4.4269540">
        <ele>480.9</ele>
        <time>2019-08-13T11:23:48Z</time>
      </trkpt>
      <trkpt lat="40.1956920" lon="-4.4269620">
        <ele>481.0</ele>
        <time>2019-08-13T11:23:49Z</time>
      </trkpt>
      <trkpt lat="40.1957480" lon="-4.4269700">
        <ele>481.0</ele>
        <time>2019-08-13T11:23:50Z</time>
      </trkpt>
      <trkpt lat="40.1958050" lon="-4.4269790">
        <ele>481.0</ele>
        <time>2019-08-13T11:23:51Z</time>
      </trkpt>
      <trkpt lat="40.1958640" lon="-4.4269870">
        <ele>481.1</ele>
        <time>2019-08-13T11:23:52Z</time>
      </trkpt>
      <trkpt lat="40.1959240" lon="-4.4269950">
        <ele>481.1</ele>
        <time>2019-08-13T11:23:53Z</time>
      </trkpt>
      <trkpt lat="40.1959830" lon="-4.4270040">
        <ele>481.1</ele>
        <time>2019-08-13T11:23:54Z</time>
      </trkpt>
      <trkpt lat="40.1960440" lon="-4.4270140">
        <ele>481.1</ele>
        <time>2019-08-13T11:23:55Z</time>
      </trkpt>
      <trkpt lat="40.1961040" lon="-4.4270230">
        <ele>481.1</ele>
        <time>2019-08-13T11:23:56Z</time>
      </trkpt>
      <trkpt lat="40.1961640" lon="-4.4270320">
        <ele>481.1</ele>
        <time>2019-08-13T11:23:57Z</time>
      </trkpt>
      <trkpt lat="40.1962230" lon="-4.4270410">
        <ele>481.1</ele>
        <time>2019-08-13T11:23:58Z</time>
      </trkpt>
      <trkpt lat="40.1962810" lon="-4.4270480">
        <ele>481.1</ele>
        <time>2019-08-13T11:23:59Z</time>
      </trkpt>
      <trkpt lat="40.1963380" lon="-4.4270550">
        <ele>481.1</ele>
        <time>2019-08-13T11:24:00Z</time>
      </trkpt>
      <trkpt lat="40.1963960" lon="-4.4270640">
        <ele>481.1</ele>
        <time>2019-08-13T11:24:01Z</time>
      </trkpt>
      <trkpt lat="40.1964510" lon="-4.4270720">
        <ele>481.0</ele>
        <time>2019-08-13T11:24:02Z</time>
      </trkpt>
      <trkpt lat="40.1965060" lon="-4.4270810">
        <ele>481.0</ele>
        <time>2019-08-13T11:24:03Z</time>
      </trkpt>
      <trkpt lat="40.1965620" lon="-4.4270880">
        <ele>481.0</ele>
        <time>2019-08-13T11:24:04Z</time>
      </trkpt>
      <trkpt lat="40.1966160" lon="-4.4270950">
        <ele>480.9</ele>
        <time>2019-08-13T11:24:05Z</time>
      </trkpt>
      <trkpt lat="40.1966690" lon="-4.4271020">
        <ele>480.9</ele>
        <time>2019-08-13T11:24:06Z</time>
      </trkpt>
      <trkpt lat="40.1967210" lon="-4.4271090">
        <ele>480.9</ele>
        <time>2019-08-13T11:24:07Z</time>
      </trkpt>
      <trkpt lat="40.1967720" lon="-4.4271160">
        <ele>480.8</ele>
        <time>2019-08-13T11:24:08Z</time>
      </trkpt>
      <trkpt lat="40.1968220" lon="-4.4271220">
        <ele>480.8</ele>
        <time>2019-08-13T11:24:09Z</time>
      </trkpt>
      <trkpt lat="40.1968740" lon="-4.4271290">
        <ele>480.8</ele>
        <time>2019-08-13T11:24:10Z</time>
      </trkpt>
      <trkpt lat="40.1969270" lon="-4.4271350">
        <ele>480.8</ele>
        <time>2019-08-13T11:24:11Z</time>
      </trkpt>
      <trkpt lat="40.1969820" lon="-4.4271450">
        <ele>480.7</ele>
        <time>2019-08-13T11:24:12Z</time>
      </trkpt>
      <trkpt lat="40.1970390" lon="-4.4271550">
        <ele>480.7</ele>
        <time>2019-08-13T11:24:13Z</time>
      </trkpt>
      <trkpt lat="40.1970970" lon="-4.4271640">
        <ele>480.7</ele>
        <time>2019-08-13T11:24:14Z</time>
      </trkpt>
      <trkpt lat="40.1971560" lon="-4.4271730">
        <ele>480.6</ele>
        <time>2019-08-13T11:24:15Z</time>
      </trkpt>
      <trkpt lat="40.1972160" lon="-4.4271800">
        <ele>480.6</ele>
        <time>2019-08-13T11:24:16Z</time>
      </trkpt>
      <trkpt lat="40.1972740" lon="-4.4271890">
        <ele>480.5</ele>
        <time>2019-08-13T11:24:17Z</time>
      </trkpt>
      <trkpt lat="40.1973320" lon="-4.4271970">
        <ele>480.4</ele>
        <time>2019-08-13T11:24:18Z</time>
      </trkpt>
      <trkpt lat="40.1973900" lon="-4.4272050">
        <ele>480.4</ele>
        <time>2019-08-13T11:24:19Z</time>
      </trkpt>
      <trkpt lat="40.1974500" lon="-4.4272140">
        <ele>480.3</ele>
        <time>2019-08-13T11:24:20Z</time>
      </trkpt>
      <trkpt lat="40.1975100" lon="-4.4272230">
        <ele>480.3</ele>
        <time>2019-08-13T11:24:21Z</time>
      </trkpt>
      <trkpt lat="40.1975690" lon="-4.4272320">
        <ele>480.2</ele>
        <time>2019-08-13T11:24:22Z</time>
      </trkpt>
      <trkpt lat="40.1976300" lon="-4.4272390">
        <ele>480.1</ele>
        <time>2019-08-13T11:24:23Z</time>
      </trkpt>
      <trkpt lat="40.1976910" lon="-4.4272440">
        <ele>480.0</ele>
        <time>2019-08-13T11:24:24Z</time>
      </trkpt>
      <trkpt lat="40.1977510" lon="-4.4272520">
        <ele>480.0</ele>
        <time>2019-08-13T11:24:25Z</time>
      </trkpt>
      <trkpt lat="40.1978100" lon="-4.4272610">
        <ele>479.9</ele>
        <time>2019-08-13T11:24:26Z</time>
      </trkpt>
      <trkpt lat="40.1978680" lon="-4.4272700">
        <ele>479.8</ele>
        <time>2019-08-13T11:24:27Z</time>
      </trkpt>
      <trkpt lat="40.1979250" lon="-4.4272780">
        <ele>479.7</ele>
        <time>2019-08-13T11:24:28Z</time>
      </trkpt>
      <trkpt lat="40.1979800" lon="-4.4272870">
        <ele>479.6</ele>
        <time>2019-08-13T11:24:29Z</time>
      </trkpt>
      <trkpt lat="40.1980350" lon="-4.4272960">
        <ele>479.5</ele>
        <time>2019-08-13T11:24:30Z</time>
      </trkpt>
      <trkpt lat="40.1980890" lon="-4.4273040">
        <ele>479.4</ele>
        <time>2019-08-13T11:24:31Z</time>
      </trkpt>
      <trkpt lat="40.1981430" lon="-4.4273120">
        <ele>479.2</ele>
        <time>2019-08-13T11:24:32Z</time>
      </trkpt>
      <trkpt lat="40.1981970" lon="-4.4273190">
        <ele>479.0</ele>
        <time>2019-08-13T11:24:33Z</time>
      </trkpt>
      <trkpt lat="40.1982490" lon="-4.4273280">
        <ele>478.9</ele>
        <time>2019-08-13T11:24:34Z</time>
      </trkpt>
      <trkpt lat="40.1983000" lon="-4.4273350">
        <ele>478.7</ele>
        <time>2019-08-13T11:24:35Z</time>
      </trkpt>
      <trkpt lat="40.1983500" lon="-4.4273420">
        <ele>478.5</ele>
        <time>2019-08-13T11:24:36Z</time>
      </trkpt>
      <trkpt lat="40.1983990" lon="-4.4273490">
        <ele>478.4</ele>
        <time>2019-08-13T11:24:37Z</time>
      </trkpt>
      <trkpt lat="40.1984480" lon="-4.4273560">
        <ele>478.2</ele>
        <time>2019-08-13T11:24:38Z</time>
      </trkpt>
      <trkpt lat="40.1984980" lon="-4.4273640">
        <ele>478.1</ele>
        <time>2019-08-13T11:24:39Z</time>
      </trkpt>
      <trkpt lat="40.1985480" lon="-4.4273690">
        <ele>478.0</ele>
        <time>2019-08-13T11:24:40Z</time>
      </trkpt>
      <trkpt lat="40.1985990" lon="-4.4273760">
        <ele>477.9</ele>
        <time>2019-08-13T11:24:41Z</time>
      </trkpt>
      <trkpt lat="40.1986490" lon="-4.4273820">
        <ele>477.8</ele>
        <time>2019-08-13T11:24:42Z</time>
      </trkpt>
      <trkpt lat="40.1987020" lon="-4.4273890">
        <ele>477.7</ele>
        <time>2019-08-13T11:24:43Z</time>
      </trkpt>
      <trkpt lat="40.1987560" lon="-4.4273940">
        <ele>477.6</ele>
        <time>2019-08-13T11:24:44Z</time>
      </trkpt>
      <trkpt lat="40.1988110" lon="-4.4274010">
        <ele>477.5</ele>
        <time>2019-08-13T11:24:45Z</time>
      </trkpt>
      <trkpt lat="40.1988680" lon="-4.4274100">
        <ele>477.4</ele>
        <time>2019-08-13T11:24:46Z</time>
      </trkpt>
      <trkpt lat="40.1989270" lon="-4.4274180">
        <ele>477.3</ele>
        <time>2019-08-13T11:24:47Z</time>
      </trkpt>
      <trkpt lat="40.1989860" lon="-4.4274260">
        <ele>477.2</ele>
        <time>2019-08-13T11:24:48Z</time>
      </trkpt>
      <trkpt lat="40.1990470" lon="-4.4274340">
        <ele>477.1</ele>
        <time>2019-08-13T11:24:49Z</time>
      </trkpt>
      <trkpt lat="40.1991090" lon="-4.4274410">
        <ele>477.0</ele>
        <time>2019-08-13T11:24:50Z</time>
      </trkpt>
      <trkpt lat="40.1991710" lon="-4.4274480">
        <ele>476.9</ele>
        <time>2019-08-13T11:24:51Z</time>
      </trkpt>
      <trkpt lat="40.1992330" lon="-4.4274560">
        <ele>476.9</ele>
        <time>2019-08-13T11:24:52Z</time>
      </trkpt>
      <trkpt lat="40.1992970" lon="-4.4274650">
        <ele>476.8</ele>
        <time>2019-08-13T11:24:53Z</time>
      </trkpt>
      <trkpt lat="40.1993610" lon="-4.4274750">
        <ele>476.7</ele>
        <time>2019-08-13T11:24:54Z</time>
      </trkpt>
      <trkpt lat="40.1994280" lon="-4.4274860">
        <ele>476.6</ele>
        <time>2019-08-13T11:24:55Z</time>
      </trkpt>
      <trkpt lat="40.1994960" lon="-4.4274990">
        <ele>476.5</ele>
        <time>2019-08-13T11:24:56Z</time>
      </trkpt>
      <trkpt lat="40.1995650" lon="-4.4275090">
        <ele>476.5</ele>
        <time>2019-08-13T11:24:57Z</time>
      </trkpt>
      <trkpt lat="40.1996340" lon="-4.4275180">
        <ele>476.4</ele>
        <time>2019-08-13T11:24:58Z</time>
      </trkpt>
      <trkpt lat="40.1997060" lon="-4.4275280">
        <ele>476.3</ele>
        <time>2019-08-13T11:24:59Z</time>
      </trkpt>
      <trkpt lat="40.1997770" lon="-4.4275390">
        <ele>476.2</ele>
        <time>2019-08-13T11:25:00Z</time>
      </trkpt>
      <trkpt lat="40.1998510" lon="-4.4275500">
        <ele>476.2</ele>
        <time>2019-08-13T11:25:01Z</time>
      </trkpt>
      <trkpt lat="40.1999260" lon="-4.4275600">
        <ele>476.1</ele>
        <time>2019-08-13T11:25:02Z</time>
      </trkpt>
      <trkpt lat="40.2000020" lon="-4.4275700">
        <ele>476.1</ele>
        <time>2019-08-13T11:25:03Z</time>
      </trkpt>
      <trkpt lat="40.2000780" lon="-4.4275810">
        <ele>476.0</ele>
        <time>2019-08-13T11:25:04Z</time>
      </trkpt>
      <trkpt lat="40.2001540" lon="-4.4275920">
        <ele>476.0</ele>
        <time>2019-08-13T11:25:05Z</time>
      </trkpt>
      <trkpt lat="40.2002310" lon="-4.4276030">
        <ele>476.0</ele>
        <time>2019-08-13T11:25:06Z</time>
      </trkpt>
      <trkpt lat="40.2003050" lon="-4.4276140">
        <ele>476.0</ele>
        <time>2019-08-13T11:25:07Z</time>
      </trkpt>
      <trkpt lat="40.2003790" lon="-4.4276250">
        <ele>476.0</ele>
        <time>2019-08-13T11:25:08Z</time>
      </trkpt>
      <trkpt lat="40.2004510" lon="-4.4276340">
        <ele>475.9</ele>
        <time>2019-08-13T11:25:09Z</time>
      </trkpt>
      <trkpt lat="40.2005220" lon="-4.4276440">
        <ele>475.9</ele>
        <time>2019-08-13T11:25:10Z</time>
      </trkpt>
      <trkpt lat="40.2005920" lon="-4.4276550">
        <ele>475.9</ele>
        <time>2019-08-13T11:25:11Z</time>
      </trkpt>
      <trkpt lat="40.2006600" lon="-4.4276660">
        <ele>475.9</ele>
        <time>2019-08-13T11:25:12Z</time>
      </trkpt>
      <trkpt lat="40.2007270" lon="-4.4276760">
        <ele>475.9</ele>
        <time>2019-08-13T11:25:13Z</time>
      </trkpt>
      <trkpt lat="40.2007930" lon="-4.4276850">
        <ele>475.9</ele>
        <time>2019-08-13T11:25:14Z</time>
      </trkpt>
      <trkpt lat="40.2008580" lon="-4.4276910">
        <ele>475.8</ele>
        <time>2019-08-13T11:25:15Z</time>
      </trkpt>
      <trkpt lat="40.2009220" lon="-4.4276990">
        <ele>475.8</ele>
        <time>2019-08-13T11:25:16Z</time>
      </trkpt>
      <trkpt lat="40.2009840" lon="-4.4277070">
        <ele>475.8</ele>
        <time>2019-08-13T11:25:17Z</time>
      </trkpt>
      <trkpt lat="40.2010460" lon="-4.4277150">
        <ele>475.8</ele>
        <time>2019-08-13T11:25:18Z</time>
      </trkpt>
      <trkpt lat="40.2011070" lon="-4.4277250">
        <ele>475.8</ele>
        <time>2019-08-13T11:25:19Z</time>
      </trkpt>
      <trkpt lat="40.2011660" lon="-4.4277340">
        <ele>475.8</ele>
        <time>2019-08-13T11:25:20Z</time>
      </trkpt>
      <trkpt lat="40.2012240" lon="-4.4277410">
        <ele>475.8</ele>
        <time>2019-08-13T11:25:21Z</time>
      </trkpt>
      <trkpt lat="40.2012800" lon="-4.4277470">
        <ele>475.8</ele>
        <time>2019-08-13T11:25:22Z</time>
      </trkpt>
      <trkpt lat="40.2013340" lon="-4.4277540">
        <ele>475.8</ele>
        <time>2019-08-13T11:25:23Z</time>
      </trkpt>
      <trkpt lat="40.2013860" lon="-4.4277620">
        <ele>475.8</ele>
        <time>2019-08-13T11:25:24Z</time>
      </trkpt>
      <trkpt lat="40.2014390" lon="-4.4277700">
        <ele>475.8</ele>
        <time>2019-08-13T11:25:25Z</time>
      </trkpt>
      <trkpt lat="40.2014920" lon="-4.4277800">
        <ele>475.8</ele>
        <time>2019-08-13T11:25:26Z</time>
      </trkpt>
      <trkpt lat="40.2015440" lon="-4.4277890">
        <ele>475.8</ele>
        <time>2019-08-13T11:25:27Z</time>
      </trkpt>
      <trkpt lat="40.2015980" lon="-4.4277980">
        <ele>475.8</ele>
        <time>2019-08-13T11:25:28Z</time>
      </trkpt>
      <trkpt lat="40.2016520" lon="-4.4278070">
        <ele>475.8</ele>
        <time>2019-08-13T11:25:29Z</time>
      </trkpt>
      <trkpt lat="40.2017080" lon="-4.4278160">
        <ele>475.8</ele>
        <time>2019-08-13T11:25:30Z</time>
      </trkpt>
      <trkpt lat="40.2017630" lon="-4.4278270">
        <ele>475.8</ele>
        <time>2019-08-13T11:25:31Z</time>
      </trkpt>
      <trkpt lat="40.2018190" lon="-4.4278340">
        <ele>475.8</ele>
        <time>2019-08-13T11:25:32Z</time>
      </trkpt>
      <trkpt lat="40.2018750" lon="-4.4278410">
        <ele>475.8</ele>
        <time>2019-08-13T11:25:33Z</time>
      </trkpt>
      <trkpt lat="40.2019310" lon="-4.4278480">
        <ele>475.8</ele>
        <time>2019-08-13T11:25:34Z</time>
      </trkpt>
      <trkpt lat="40.2019870" lon="-4.4278560">
        <ele>475.8</ele>
        <time>2019-08-13T11:25:35Z</time>
      </trkpt>
      <trkpt lat="40.2020430" lon="-4.4278630">
        <ele>475.9</ele>
        <time>2019-08-13T11:25:36Z</time>
      </trkpt>
      <trkpt lat="40.2021000" lon="-4.4278710">
        <ele>475.9</ele>
        <time>2019-08-13T11:25:37Z</time>
      </trkpt>
      <trkpt lat="40.2021570" lon="-4.4278800">
        <ele>475.9</ele>
        <time>2019-08-13T11:25:38Z</time>
      </trkpt>
      <trkpt lat="40.2022130" lon="-4.4278900">
        <ele>476.2</ele>
        <time>2019-08-13T11:25:39Z</time>
      </trkpt>
      <trkpt lat="40.2022660" lon="-4.4279000">
        <ele>476.3</ele>
        <time>2019-08-13T11:25:40Z</time>
      </trkpt>
      <trkpt lat="40.2023170" lon="-4.4279090">
        <ele>476.4</ele>
        <time>2019-08-13T11:25:41Z</time>
      </trkpt>
      <trkpt lat="40.2023670" lon="-4.4279170">
        <ele>476.5</ele>
        <time>2019-08-13T11:25:42Z</time>
      </trkpt>
      <trkpt lat="40.2024150" lon="-4.4279220">
        <ele>476.6</ele>
        <time>2019-08-13T11:25:43Z</time>
      </trkpt>
      <trkpt lat="40.2024610" lon="-4.4279250">
        <ele>476.7</ele>
        <time>2019-08-13T11:25:44Z</time>
      </trkpt>
      <trkpt lat="40.2025050" lon="-4.4279310">
        <ele>476.8</ele>
        <time>2019-08-13T11:25:45Z</time>
      </trkpt>
      <trkpt lat="40.2025480" lon="-4.4279370">
        <ele>477.0</ele>
        <time>2019-08-13T11:25:46Z</time>
      </trkpt>
      <trkpt lat="40.2025910" lon="-4.4279420">
        <ele>477.1</ele>
        <time>2019-08-13T11:25:47Z</time>
      </trkpt>
      <trkpt lat="40.2026340" lon="-4.4279470">
        <ele>477.2</ele>
        <time>2019-08-13T11:25:48Z</time>
      </trkpt>
      <trkpt lat="40.2026760" lon="-4.4279540">
        <ele>477.3</ele>
        <time>2019-08-13T11:25:49Z</time>
      </trkpt>
      <trkpt lat="40.2027190" lon="-4.4279620">
        <ele>477.5</ele>
        <time>2019-08-13T11:25:50Z</time>
      </trkpt>
      <trkpt lat="40.2027620" lon="-4.4279670">
        <ele>477.6</ele>
        <time>2019-08-13T11:25:51Z</time>
      </trkpt>
      <trkpt lat="40.2028050" lon="-4.4279720">
        <ele>477.7</ele>
        <time>2019-08-13T11:25:52Z</time>
      </trkpt>
      <trkpt lat="40.2028480" lon="-4.4279780">
        <ele>477.9</ele>
        <time>2019-08-13T11:25:53Z</time>
      </trkpt>
      <trkpt lat="40.2028900" lon="-4.4279820">
        <ele>478.0</ele>
        <time>2019-08-13T11:25:54Z</time>
      </trkpt>
      <trkpt lat="40.2029300" lon="-4.4279860">
        <ele>478.2</ele>
        <time>2019-08-13T11:25:55Z</time>
      </trkpt>
      <trkpt lat="40.2029710" lon="-4.4279900">
        <ele>478.4</ele>
        <time>2019-08-13T11:25:56Z</time>
      </trkpt>
      <trkpt lat="40.2030130" lon="-4.4279950">
        <ele>478.5</ele>
        <time>2019-08-13T11:25:57Z</time>
      </trkpt>
      <trkpt lat="40.2030550" lon="-4.4280010">
        <ele>478.7</ele>
        <time>2019-08-13T11:25:58Z</time>
      </trkpt>
      <trkpt lat="40.2030970" lon="-4.4280060">
        <ele>478.9</ele>
        <time>2019-08-13T11:25:59Z</time>
      </trkpt>
      <trkpt lat="40.2031400" lon="-4.4280110">
        <ele>479.1</ele>
        <time>2019-08-13T11:26:00Z</time>
      </trkpt>
      <trkpt lat="40.2031810" lon="-4.4280160">
        <ele>479.3</ele>
        <time>2019-08-13T11:26:01Z</time>
      </trkpt>
      <trkpt lat="40.2032240" lon="-4.4280210">
        <ele>479.5</ele>
        <time>2019-08-13T11:26:02Z</time>
      </trkpt>
      <trkpt lat="40.2032670" lon="-4.4280270">
        <ele>479.6</ele>
        <time>2019-08-13T11:26:03Z</time>
      </trkpt>
      <trkpt lat="40.2033110" lon="-4.4280340">
        <ele>479.9</ele>
        <time>2019-08-13T11:26:04Z</time>
      </trkpt>
      <trkpt lat="40.2033540" lon="-4.4280420">
        <ele>480.1</ele>
        <time>2019-08-13T11:26:05Z</time>
      </trkpt>
      <trkpt lat="40.2033960" lon="-4.4280470">
        <ele>480.4</ele>
        <time>2019-08-13T11:26:06Z</time>
      </trkpt>
      <trkpt lat="40.2034370" lon="-4.4280530">
        <ele>480.7</ele>
        <time>2019-08-13T11:26:07Z</time>
      </trkpt>
      <trkpt lat="40.2034780" lon="-4.4280590">
        <ele>480.9</ele>
        <time>2019-08-13T11:26:08Z</time>
      </trkpt>
      <trkpt lat="40.2035190" lon="-4.4280680">
        <ele>481.2</ele>
        <time>2019-08-13T11:26:09Z</time>
      </trkpt>
      <trkpt lat="40.2035580" lon="-4.4280760">
        <ele>481.5</ele>
        <time>2019-08-13T11:26:10Z</time>
      </trkpt>
      <trkpt lat="40.2035970" lon="-4.4280820">
        <ele>481.7</ele>
        <time>2019-08-13T11:26:11Z</time>
      </trkpt>
      <trkpt lat="40.2036360" lon="-4.4280860">
        <ele>481.9</ele>
        <time>2019-08-13T11:26:12Z</time>
      </trkpt>
      <trkpt lat="40.2036740" lon="-4.4280900">
        <ele>482.1</ele>
        <time>2019-08-13T11:26:13Z</time>
      </trkpt>
      <trkpt lat="40.2037110" lon="-4.4280950">
        <ele>482.2</ele>
        <time>2019-08-13T11:26:14Z</time>
      </trkpt>
      <trkpt lat="40.2037470" lon="-4.4280990">
        <ele>482.4</ele>
        <time>2019-08-13T11:26:15Z</time>
      </trkpt>
      <trkpt lat="40.2037830" lon="-4.4281030">
        <ele>482.5</ele>
        <time>2019-08-13T11:26:16Z</time>
      </trkpt>
      <trkpt lat="40.2038180" lon="-4.4281080">
        <ele>482.6</ele>
        <time>2019-08-13T11:26:17Z</time>
      </trkpt>
      <trkpt lat="40.2038530" lon="-4.4281120">
        <ele>482.7</ele>
        <time>2019-08-13T11:26:18Z</time>
      </trkpt>
      <trkpt lat="40.2038890" lon="-4.4281160">
        <ele>482.9</ele>
        <time>2019-08-13T11:26:19Z</time>
      </trkpt>
      <trkpt lat="40.2039250" lon="-4.4281210">
        <ele>483.0</ele>
        <time>2019-08-13T11:26:20Z</time>
      </trkpt>
      <trkpt lat="40.2039590" lon="-4.4281250">
        <ele>483.1</ele>
        <time>2019-08-13T11:26:21Z</time>
      </trkpt>
      <trkpt lat="40.2039930" lon="-4.4281300">
        <ele>483.2</ele>
        <time>2019-08-13T11:26:22Z</time>
      </trkpt>
      <trkpt lat="40.2040270" lon="-4.4281360">
        <ele>483.3</ele>
        <time>2019-08-13T11:26:23Z</time>
      </trkpt>
      <trkpt lat="40.2040600" lon="-4.4281410">
        <ele>483.4</ele>
        <time>2019-08-13T11:26:24Z</time>
      </trkpt>
      <trkpt lat="40.2040920" lon="-4.4281440">
        <ele>483.5</ele>
        <time>2019-08-13T11:26:25Z</time>
      </trkpt>
      <trkpt lat="40.2041250" lon="-4.4281470">
        <ele>483.5</ele>
        <time>2019-08-13T11:26:26Z</time>
      </trkpt>
      <trkpt lat="40.2041570" lon="-4.4281510">
        <ele>483.6</ele>
        <time>2019-08-13T11:26:27Z</time>
      </trkpt>
      <trkpt lat="40.2041890" lon="-4.4281570">
        <ele>483.7</ele>
        <time>2019-08-13T11:26:28Z</time>
      </trkpt>
      <trkpt lat="40.2042210" lon="-4.4281620">
        <ele>483.7</ele>
        <time>2019-08-13T11:26:29Z</time>
      </trkpt>
      <trkpt lat="40.2042520" lon="-4.4281670">
        <ele>483.8</ele>
        <time>2019-08-13T11:26:30Z</time>
      </trkpt>
      <trkpt lat="40.2042830" lon="-4.4281710">
        <ele>483.9</ele>
        <time>2019-08-13T11:26:31Z</time>
      </trkpt>
      <trkpt lat="40.2043140" lon="-4.4281740">
        <ele>483.9</ele>
        <time>2019-08-13T11:26:32Z</time>
      </trkpt>
      <trkpt lat="40.2043460" lon="-4.4281790">
        <ele>484.0</ele>
        <time>2019-08-13T11:26:33Z</time>
      </trkpt>
      <trkpt lat="40.2043790" lon="-4.4281850">
        <ele>484.1</ele>
        <time>2019-08-13T11:26:34Z</time>
      </trkpt>
      <trkpt lat="40.2044100" lon="-4.4281910">
        <ele>484.1</ele>
        <time>2019-08-13T11:26:35Z</time>
      </trkpt>
      <trkpt lat="40.2044420" lon="-4.4281980">
        <ele>484.2</ele>
        <time>2019-08-13T11:26:36Z</time>
      </trkpt>
      <trkpt lat="40.2044720" lon="-4.4282040">
        <ele>484.3</ele>
        <time>2019-08-13T11:26:37Z</time>
      </trkpt>
      <trkpt lat="40.2045020" lon="-4.4282090">
        <ele>484.4</ele>
        <time>2019-08-13T11:26:38Z</time>
      </trkpt>
      <trkpt lat="40.2045320" lon="-4.4282120">
        <ele>484.4</ele>
        <time>2019-08-13T11:26:39Z</time>
      </trkpt>
      <trkpt lat="40.2045620" lon="-4.4282150">
        <ele>484.5</ele>
        <time>2019-08-13T11:26:40Z</time>
      </trkpt>
      <trkpt lat="40.2045920" lon="-4.4282190">
        <ele>484.6</ele>
        <time>2019-08-13T11:26:41Z</time>
      </trkpt>
      <trkpt lat="40.2046230" lon="-4.4282230">
        <ele>484.7</ele>
        <time>2019-08-13T11:26:42Z</time>
      </trkpt>
      <trkpt lat="40.2046530" lon="-4.4282280">
        <ele>484.8</ele>
        <time>2019-08-13T11:26:43Z</time>
      </trkpt>
      <trkpt lat="40.2046830" lon="-4.4282330">
        <ele>484.9</ele>
        <time>2019-08-13T11:26:44Z</time>
      </trkpt>
      <trkpt lat="40.2047120" lon="-4.4282380">
        <ele>485.0</ele>
        <time>2019-08-13T11:26:45Z</time>
      </trkpt>
      <trkpt lat="40.2047420" lon="-4.4282420">
        <ele>485.1</ele>
        <time>2019-08-13T11:26:46Z</time>
      </trkpt>
      <trkpt lat="40.2047720" lon="-4.4282470">
        <ele>485.3</ele>
        <time>2019-08-13T11:26:47Z</time>
      </trkpt>
      <trkpt lat="40.2048030" lon="-4.4282530">
        <ele>485.4</ele>
        <time>2019-08-13T11:26:48Z</time>
      </trkpt>
      <trkpt lat="40.2048330" lon="-4.4282570">
        <ele>485.5</ele>
        <time>2019-08-13T11:26:49Z</time>
      </trkpt>
      <trkpt lat="40.2048630" lon="-4.4282620">
        <ele>485.6</ele>
        <time>2019-08-13T11:26:50Z</time>
      </trkpt>
      <trkpt lat="40.2048940" lon="-4.4282650">
        <ele>485.7</ele>
        <time>2019-08-13T11:26:51Z</time>
      </trkpt>
      <trkpt lat="40.2049240" lon="-4.4282700">
        <ele>485.8</ele>
        <time>2019-08-13T11:26:52Z</time>
      </trkpt>
      <trkpt lat="40.2049540" lon="-4.4282760">
        <ele>485.9</ele>
        <time>2019-08-13T11:26:53Z</time>
      </trkpt>
      <trkpt lat="40.2049860" lon="-4.4282810">
        <ele>486.1</ele>
        <time>2019-08-13T11:26:54Z</time>
      </trkpt>
      <trkpt lat="40.2050170" lon="-4.4282860">
        <ele>486.2</ele>
        <time>2019-08-13T11:26:55Z</time>
      </trkpt>
      <trkpt lat="40.2050490" lon="-4.4282930">
        <ele>486.4</ele>
        <time>2019-08-13T11:26:56Z</time>
      </trkpt>
      <trkpt lat="40.2050790" lon="-4.4283000">
        <ele>486.6</ele>
        <time>2019-08-13T11:26:57Z</time>
      </trkpt>
      <trkpt lat="40.2051080" lon="-4.4283080">
        <ele>486.7</ele>
        <time>2019-08-13T11:26:58Z</time>
      </trkpt>
      <trkpt lat="40.2051370" lon="-4.4283180">
        <ele>486.9</ele>
        <time>2019-08-13T11:26:59Z</time>
      </trkpt>
      <trkpt lat="40.2051660" lon="-4.4283270">
        <ele>487.1</ele>
        <time>2019-08-13T11:27:00Z</time>
      </trkpt>
      <trkpt lat="40.2051940" lon="-4.4283370">
        <ele>487.2</ele>
        <time>2019-08-13T11:27:01Z</time>
      </trkpt>
      <trkpt lat="40.2052230" lon="-4.4283480">
        <ele>487.4</ele>
        <time>2019-08-13T11:27:02Z</time>
      </trkpt>
      <trkpt lat="40.2052520" lon="-4.4283580">
        <ele>487.5</ele>
        <time>2019-08-13T11:27:03Z</time>
      </trkpt>
      <trkpt lat="40.2052810" lon="-4.4283700">
        <ele>487.6</ele>
        <time>2019-08-13T11:27:04Z</time>
      </trkpt>
      <trkpt lat="40.2053110" lon="-4.4283820">
        <ele>487.8</ele>
        <time>2019-08-13T11:27:05Z</time>
      </trkpt>
      <trkpt lat="40.2053420" lon="-4.4283950">
        <ele>487.9</ele>
        <time>2019-08-13T11:27:06Z</time>
      </trkpt>
      <trkpt lat="40.2053720" lon="-4.4284090">
        <ele>488.0</ele>
        <time>2019-08-13T11:27:07Z</time>
      </trkpt>
      <trkpt lat="40.2054030" lon="-4.4284240">
        <ele>488.2</ele>
        <time>2019-08-13T11:27:08Z</time>
      </trkpt>
      <trkpt lat="40.2054330" lon="-4.4284410">
        <ele>488.3</ele>
        <time>2019-08-13T11:27:09Z</time>
      </trkpt>
      <trkpt lat="40.2054620" lon="-4.4284580">
        <ele>488.5</ele>
        <time>2019-08-13T11:27:10Z</time>
      </trkpt>
      <trkpt lat="40.2054920" lon="-4.4284760">
        <ele>488.6</ele>
        <time>2019-08-13T11:27:11Z</time>
      </trkpt>
      <trkpt lat="40.2055220" lon="-4.4284940">
        <ele>488.8</ele>
        <time>2019-08-13T11:27:12Z</time>
      </trkpt>
      <trkpt lat="40.2055520" lon="-4.4285130">
        <ele>489.0</ele>
        <time>2019-08-13T11:27:13Z</time>
      </trkpt>
      <trkpt lat="40.2055820" lon="-4.4285330">
        <ele>489.2</ele>
        <time>2019-08-13T11:27:14Z</time>
      </trkpt>
      <trkpt lat="40.2056110" lon="-4.4285540">
        <ele>489.3</ele>
        <time>2019-08-13T11:27:15Z</time>
      </trkpt>
      <trkpt lat="40.2056400" lon="-4.4285770">
        <ele>489.5</ele>
        <time>2019-08-13T11:27:16Z</time>
      </trkpt>
      <trkpt lat="40.2056680" lon="-4.4285990">
        <ele>489.7</ele>
        <time>2019-08-13T11:27:17Z</time>
      </trkpt>
      <trkpt lat="40.2056960" lon="-4.4286200">
        <ele>489.8</ele>
        <time>2019-08-13T11:27:18Z</time>
      </trkpt>
      <trkpt lat="40.2057230" lon="-4.4286420">
        <ele>489.9</ele>
        <time>2019-08-13T11:27:19Z</time>
      </trkpt>
      <trkpt lat="40.2057510" lon="-4.4286650">
        <ele>490.0</ele>
        <time>2019-08-13T11:27:20Z</time>
      </trkpt>
      <trkpt lat="40.2057760" lon="-4.4286900">
        <ele>490.1</ele>
        <time>2019-08-13T11:27:21Z</time>
      </trkpt>
      <trkpt lat="40.2058010" lon="-4.4287170">
        <ele>490.2</ele>
        <time>2019-08-13T11:27:22Z</time>
      </trkpt>
      <trkpt lat="40.2058240" lon="-4.4287460">
        <ele>490.2</ele>
        <time>2019-08-13T11:27:23Z</time>
      </trkpt>
      <trkpt lat="40.2058480" lon="-4.4287750">
        <ele>490.3</ele>
        <time>2019-08-13T11:27:24Z</time>
      </trkpt>
      <trkpt lat="40.2058710" lon="-4.4288040">
        <ele>490.4</ele>
        <time>2019-08-13T11:27:25Z</time>
      </trkpt>
      <trkpt lat="40.2058950" lon="-4.4288330">
        <ele>490.5</ele>
        <time>2019-08-13T11:27:26Z</time>
      </trkpt>
      <trkpt lat="40.2059190" lon="-4.4288610">
        <ele>490.6</ele>
        <time>2019-08-13T11:27:27Z</time>
      </trkpt>
      <trkpt lat="40.2059440" lon="-4.4288900">
        <ele>490.6</ele>
        <time>2019-08-13T11:27:28Z</time>
      </trkpt>
      <trkpt lat="40.2059690" lon="-4.4289200">
        <ele>490.7</ele>
        <time>2019-08-13T11:27:29Z</time>
      </trkpt>
      <trkpt lat="40.2059950" lon="-4.4289490">
        <ele>490.8</ele>
        <time>2019-08-13T11:27:30Z</time>
      </trkpt>
      <trkpt lat="40.2060200" lon="-4.4289780">
        <ele>490.9</ele>
        <time>2019-08-13T11:27:31Z</time>
      </trkpt>
      <trkpt lat="40.2060440" lon="-4.4290070">
        <ele>491.0</ele>
        <time>2019-08-13T11:27:32Z</time>
      </trkpt>
      <trkpt lat="40.2060670" lon="-4.4290350">
        <ele>491.1</ele>
        <time>2019-08-13T11:27:33Z</time>
      </trkpt>
      <trkpt lat="40.2060890" lon="-4.4290630">
        <ele>491.2</ele>
        <time>2019-08-13T11:27:34Z</time>
      </trkpt>
      <trkpt lat="40.2061110" lon="-4.4290910">
        <ele>491.3</ele>
        <time>2019-08-13T11:27:35Z</time>
      </trkpt>
      <trkpt lat="40.2061340" lon="-4.4291190">
        <ele>491.5</ele>
        <time>2019-08-13T11:27:36Z</time>
      </trkpt>
      <trkpt lat="40.2061560" lon="-4.4291480">
        <ele>491.6</ele>
        <time>2019-08-13T11:27:37Z</time>
      </trkpt>
      <trkpt lat="40.2061780" lon="-4.4291760">
        <ele>491.7</ele>
        <time>2019-08-13T11:27:38Z</time>
      </trkpt>
      <trkpt lat="40.2062000" lon="-4.4292040">
        <ele>491.8</ele>
        <time>2019-08-13T11:27:39Z</time>
      </trkpt>
      <trkpt lat="40.2062210" lon="-4.4292310">
        <ele>491.9</ele>
        <time>2019-08-13T11:27:40Z</time>
      </trkpt>
      <trkpt lat="40.2062420" lon="-4.4292600">
        <ele>492.1</ele>
        <time>2019-08-13T11:27:41Z</time>
      </trkpt>
      <trkpt lat="40.2062650" lon="-4.4292890">
        <ele>492.2</ele>
        <time>2019-08-13T11:27:42Z</time>
      </trkpt>
      <trkpt lat="40.2062880" lon="-4.4293180">
        <ele>492.3</ele>
        <time>2019-08-13T11:27:43Z</time>
      </trkpt>
      <trkpt lat="40.2063110" lon="-4.4293460">
        <ele>492.4</ele>
        <time>2019-08-13T11:27:44Z</time>
      </trkpt>
      <trkpt lat="40.2063350" lon="-4.4293750">
        <ele>492.6</ele>
        <time>2019-08-13T11:27:45Z</time>
      </trkpt>
      <trkpt lat="40.2063580" lon="-4.4294030">
        <ele>492.7</ele>
        <time>2019-08-13T11:27:46Z</time>
      </trkpt>
      <trkpt lat="40.2063810" lon="-4.4294330">
        <ele>492.8</ele>
        <time>2019-08-13T11:27:47Z</time>
      </trkpt>
      <trkpt lat="40.2064040" lon="-4.4294630">
        <ele>493.0</ele>
        <time>2019-08-13T11:27:48Z</time>
      </trkpt>
      <trkpt lat="40.2064280" lon="-4.4294920">
        <ele>493.1</ele>
        <time>2019-08-13T11:27:49Z</time>
      </trkpt>
      <trkpt lat="40.2064510" lon="-4.4295220">
        <ele>493.2</ele>
        <time>2019-08-13T11:27:50Z</time>
      </trkpt>
      <trkpt lat="40.2064740" lon="-4.4295520">
        <ele>493.3</ele>
        <time>2019-08-13T11:27:51Z</time>
      </trkpt>
      <trkpt lat="40.2064980" lon="-4.4295810">
        <ele>493.5</ele>
        <time>2019-08-13T11:27:52Z</time>
      </trkpt>
      <trkpt lat="40.2065210" lon="-4.4296120">
        <ele>493.5</ele>
        <time>2019-08-13T11:27:53Z</time>
      </trkpt>
      <trkpt lat="40.2065440" lon="-4.4296420">
        <ele>493.6</ele>
        <time>2019-08-13T11:27:54Z</time>
      </trkpt>
      <trkpt lat="40.2065680" lon="-4.4296710">
        <ele>493.7</ele>
        <time>2019-08-13T11:27:55Z</time>
      </trkpt>
      <trkpt lat="40.2065920" lon="-4.4297010">
        <ele>493.8</ele>
        <time>2019-08-13T11:27:56Z</time>
      </trkpt>
      <trkpt lat="40.2066170" lon="-4.4297330">
        <ele>493.9</ele>
        <time>2019-08-13T11:27:57Z</time>
      </trkpt>
      <trkpt lat="40.2066420" lon="-4.4297650">
        <ele>494.0</ele>
        <time>2019-08-13T11:27:58Z</time>
      </trkpt>
      <trkpt lat="40.2066670" lon="-4.4297960">
        <ele>494.2</ele>
        <time>2019-08-13T11:27:59Z</time>
      </trkpt>
      <trkpt lat="40.2066930" lon="-4.4298280">
        <ele>494.3</ele>
        <time>2019-08-13T11:28:00Z</time>
      </trkpt>
      <trkpt lat="40.2067190" lon="-4.4298610">
        <ele>494.5</ele>
        <time>2019-08-13T11:28:01Z</time>
      </trkpt>
      <trkpt lat="40.2067450" lon="-4.4298940">
        <ele>494.6</ele>
        <time>2019-08-13T11:28:02Z</time>
      </trkpt>
      <trkpt lat="40.2067710" lon="-4.4299280">
        <ele>494.8</ele>
        <time>2019-08-13T11:28:03Z</time>
      </trkpt>
      <trkpt lat="40.2067970" lon="-4.4299610">
        <ele>494.9</ele>
        <time>2019-08-13T11:28:04Z</time>
      </trkpt>
      <trkpt lat="40.2068230" lon="-4.4299950">
        <ele>495.1</ele>
        <time>2019-08-13T11:28:05Z</time>
      </trkpt>
      <trkpt lat="40.2068500" lon="-4.4300300">
        <ele>495.2</ele>
        <time>2019-08-13T11:28:06Z</time>
      </trkpt>
      <trkpt lat="40.2068770" lon="-4.4300650">
        <ele>495.4</ele>
        <time>2019-08-13T11:28:07Z</time>
      </trkpt>
      <trkpt lat="40.2069030" lon="-4.4300990">
        <ele>495.5</ele>
        <time>2019-08-13T11:28:08Z</time>
      </trkpt>
      <trkpt lat="40.2069300" lon="-4.4301320">
        <ele>495.7</ele>
        <time>2019-08-13T11:28:09Z</time>
      </trkpt>
      <trkpt lat="40.2069570" lon="-4.4301640">
        <ele>495.8</ele>
        <time>2019-08-13T11:28:10Z</time>
      </trkpt>
      <trkpt lat="40.2069840" lon="-4.4301990">
        <ele>495.9</ele>
        <time>2019-08-13T11:28:11Z</time>
      </trkpt>
      <trkpt lat="40.2070110" lon="-4.4302340">
        <ele>496.0</ele>
        <time>2019-08-13T11:28:12Z</time>
      </trkpt>
      <trkpt lat="40.2070370" lon="-4.4302700">
        <ele>496.1</ele>
        <time>2019-08-13T11:28:13Z</time>
      </trkpt>
      <trkpt lat="40.2070640" lon="-4.4303050">
        <ele>496.3</ele>
        <time>2019-08-13T11:28:14Z</time>
      </trkpt>
      <trkpt lat="40.2070910" lon="-4.4303390">
        <ele>496.4</ele>
        <time>2019-08-13T11:28:15Z</time>
      </trkpt>
      <trkpt lat="40.2071180" lon="-4.4303740">
        <ele>496.6</ele>
        <time>2019-08-13T11:28:16Z</time>
      </trkpt>
      <trkpt lat="40.2071450" lon="-4.4304070">
        <ele>496.7</ele>
        <time>2019-08-13T11:28:17Z</time>
      </trkpt>
      <trkpt lat="40.2071730" lon="-4.4304410">
        <ele>496.9</ele>
        <time>2019-08-13T11:28:18Z</time>
      </trkpt>
      <trkpt lat="40.2072010" lon="-4.4304750">
        <ele>497.1</ele>
        <time>2019-08-13T11:28:19Z</time>
      </trkpt>
      <trkpt lat="40.2072280" lon="-4.4305090">
        <ele>497.3</ele>
        <time>2019-08-13T11:28:20Z</time>
      </trkpt>
      <trkpt lat="40.2072560" lon="-4.4305430">
        <ele>497.5</ele>
        <time>2019-08-13T11:28:21Z</time>
      </trkpt>
      <trkpt lat="40.2072820" lon="-4.4305770">
        <ele>497.7</ele>
        <time>2019-08-13T11:28:22Z</time>
      </trkpt>
      <trkpt lat="40.2073090" lon="-4.4306090">
        <ele>497.9</ele>
        <time>2019-08-13T11:28:23Z</time>
      </trkpt>
      <trkpt lat="40.2073340" lon="-4.4306400">
        <ele>498.1</ele>
        <time>2019-08-13T11:28:24Z</time>
      </trkpt>
      <trkpt lat="40.2073580" lon="-4.4306700">
        <ele>498.3</ele>
        <time>2019-08-13T11:28:25Z</time>
      </trkpt>
      <trkpt lat="40.2073810" lon="-4.4307010">
        <ele>498.5</ele>
        <time>2019-08-13T11:28:26Z</time>
      </trkpt>
      <trkpt lat="40.2074060" lon="-4.4307320">
        <ele>498.7</ele>
        <time>2019-08-13T11:28:27Z</time>
      </trkpt>
      <trkpt lat="40.2074310" lon="-4.4307630">
        <ele>498.9</ele>
        <time>2019-08-13T11:28:28Z</time>
      </trkpt>
      <trkpt lat="40.2074570" lon="-4.4307940">
        <ele>499.0</ele>
        <time>2019-08-13T11:28:29Z</time>
      </trkpt>
      <trkpt lat="40.2074810" lon="-4.4308240">
        <ele>499.2</ele>
        <time>2019-08-13T11:28:30Z</time>
      </trkpt>
      <trkpt lat="40.2075050" lon="-4.4308540">
        <ele>499.4</ele>
        <time>2019-08-13T11:28:31Z</time>
      </trkpt>
      <trkpt lat="40.2075290" lon="-4.4308840">
        <ele>499.6</ele>
        <time>2019-08-13T11:28:32Z</time>
      </trkpt>
      <trkpt lat="40.2075540" lon="-4.4309150">
        <ele>499.8</ele>
        <time>2019-08-13T11:28:33Z</time>
      </trkpt>
      <trkpt lat="40.2075770" lon="-4.4309450">
        <ele>499.9</ele>
        <time>2019-08-13T11:28:34Z</time>
      </trkpt>
      <trkpt lat="40.2076000" lon="-4.4309750">
        <ele>500.1</ele>
        <time>2019-08-13T11:28:35Z</time>
      </trkpt>
      <trkpt lat="40.2076230" lon="-4.4310040">
        <ele>500.3</ele>
        <time>2019-08-13T11:28:36Z</time>
      </trkpt>
      <trkpt lat="40.2076460" lon="-4.4310320">
        <ele>500.4</ele>
        <time>2019-08-13T11:28:37Z</time>
      </trkpt>
      <trkpt lat="40.2076680" lon="-4.4310600">
        <ele>500.6</ele>
        <time>2019-08-13T11:28:38Z</time>
      </trkpt>
      <trkpt lat="40.2076890" lon="-4.4310860">
        <ele>500.7</ele>
        <time>2019-08-13T11:28:39Z</time>
      </trkpt>
      <trkpt lat="40.2077090" lon="-4.4311120">
        <ele>500.9</ele>
        <time>2019-08-13T11:28:40Z</time>
      </trkpt>
      <trkpt lat="40.2077300" lon="-4.4311380">
        <ele>501.0</ele>
        <time>2019-08-13T11:28:41Z</time>
      </trkpt>
      <trkpt lat="40.2077510" lon="-4.4311640">
        <ele>501.2</ele>
        <time>2019-08-13T11:28:42Z</time>
      </trkpt>
      <trkpt lat="40.2077740" lon="-4.4311910">
        <ele>501.4</ele>
        <time>2019-08-13T11:28:43Z</time>
      </trkpt>
      <trkpt lat="40.2077970" lon="-4.4312190">
        <ele>501.5</ele>
        <time>2019-08-13T11:28:44Z</time>
      </trkpt>
      <trkpt lat="40.2078200" lon="-4.4312470">
        <ele>501.6</ele>
        <time>2019-08-13T11:28:45Z</time>
      </trkpt>
      <trkpt lat="40.2078430" lon="-4.4312750">
        <ele>501.7</ele>
        <time>2019-08-13T11:28:46Z</time>
      </trkpt>
      <trkpt lat="40.2078650" lon="-4.4313030">
        <ele>501.8</ele>
        <time>2019-08-13T11:28:47Z</time>
      </trkpt>
      <trkpt lat="40.2078870" lon="-4.4313310">
        <ele>501.9</ele>
        <time>2019-08-13T11:28:48Z</time>
      </trkpt>
      <trkpt lat="40.2079070" lon="-4.4313580">
        <ele>502.0</ele>
        <time>2019-08-13T11:28:49Z</time>
      </trkpt>
      <trkpt lat="40.2079270" lon="-4.4313860">
        <ele>502.1</ele>
        <time>2019-08-13T11:28:50Z</time>
      </trkpt>
      <trkpt lat="40.2079470" lon="-4.4314130">
        <ele>502.2</ele>
        <time>2019-08-13T11:28:51Z</time>
      </trkpt>
      <trkpt lat="40.2079670" lon="-4.4314400">
        <ele>502.3</ele>
        <time>2019-08-13T11:28:52Z</time>
      </trkpt>
      <trkpt lat="40.2079860" lon="-4.4314680">
        <ele>502.4</ele>
        <time>2019-08-13T11:28:53Z</time>
      </trkpt>
      <trkpt lat="40.2080040" lon="-4.4314960">
        <ele>502.5</ele>
        <time>2019-08-13T11:28:54Z</time>
      </trkpt>
      <trkpt lat="40.2080220" lon="-4.4315260">
        <ele>502.6</ele>
        <time>2019-08-13T11:28:55Z</time>
      </trkpt>
      <trkpt lat="40.2080380" lon="-4.4315550">
        <ele>502.7</ele>
        <time>2019-08-13T11:28:56Z</time>
      </trkpt>
      <trkpt lat="40.2080540" lon="-4.4315860">
        <ele>502.8</ele>
        <time>2019-08-13T11:28:57Z</time>
      </trkpt>
      <trkpt lat="40.2080660" lon="-4.4316180">
        <ele>503.1</ele>
        <time>2019-08-13T11:28:58Z</time>
      </trkpt>
      <trkpt lat="40.2080780" lon="-4.4316510">
        <ele>503.4</ele>
        <time>2019-08-13T11:28:59Z</time>
      </trkpt>
      <trkpt lat="40.2080890" lon="-4.4316850">
        <ele>503.7</ele>
        <time>2019-08-13T11:29:00Z</time>
      </trkpt>
      <trkpt lat="40.2080990" lon="-4.4317190">
        <ele>504.0</ele>
        <time>2019-08-13T11:29:01Z</time>
      </trkpt>
      <trkpt lat="40.2081080" lon="-4.4317520">
        <ele>504.2</ele>
        <time>2019-08-13T11:29:02Z</time>
      </trkpt>
      <trkpt lat="40.2081160" lon="-4.4317870">
        <ele>504.5</ele>
        <time>2019-08-13T11:29:03Z</time>
      </trkpt>
      <trkpt lat="40.2081250" lon="-4.4318230">
        <ele>504.8</ele>
        <time>2019-08-13T11:29:04Z</time>
      </trkpt>
      <trkpt lat="40.2081330" lon="-4.4318600">
        <ele>505.0</ele>
        <time>2019-08-13T11:29:05Z</time>
      </trkpt>
      <trkpt lat="40.2081400" lon="-4.4318990">
        <ele>505.3</ele>
        <time>2019-08-13T11:29:06Z</time>
      </trkpt>
      <trkpt lat="40.2081450" lon="-4.4319370">
        <ele>505.5</ele>
        <time>2019-08-13T11:29:07Z</time>
      </trkpt>
      <trkpt lat="40.2081500" lon="-4.4319770">
        <ele>505.7</ele>
        <time>2019-08-13T11:29:08Z</time>
      </trkpt>
      <trkpt lat="40.2081540" lon="-4.4320160">
        <ele>505.9</ele>
        <time>2019-08-13T11:29:09Z</time>
      </trkpt>
      <trkpt lat="40.2081590" lon="-4.4320550">
        <ele>506.1</ele>
        <time>2019-08-13T11:29:10Z</time>
      </trkpt>
      <trkpt lat="40.2081640" lon="-4.4320940">
        <ele>506.3</ele>
        <time>2019-08-13T11:29:11Z</time>
      </trkpt>
      <trkpt lat="40.2081670" lon="-4.4321330">
        <ele>506.5</ele>
        <time>2019-08-13T11:29:12Z</time>
      </trkpt>
      <trkpt lat="40.2081700" lon="-4.4321720">
        <ele>506.7</ele>
        <time>2019-08-13T11:29:13Z</time>
      </trkpt>
      <trkpt lat="40.2081740" lon="-4.4322100">
        <ele>506.8</ele>
        <time>2019-08-13T11:29:14Z</time>
      </trkpt>
      <trkpt lat="40.2081780" lon="-4.4322480">
        <ele>507.0</ele>
        <time>2019-08-13T11:29:15Z</time>
      </trkpt>
      <trkpt lat="40.2081810" lon="-4.4322860">
        <ele>507.1</ele>
        <time>2019-08-13T11:29:16Z</time>
      </trkpt>
      <trkpt lat="40.2081840" lon="-4.4323230">
        <ele>507.3</ele>
        <time>2019-08-13T11:29:17Z</time>
      </trkpt>
      <trkpt lat="40.2081890" lon="-4.4323600">
        <ele>507.5</ele>
        <time>2019-08-13T11:29:18Z</time>
      </trkpt>
      <trkpt lat="40.2081950" lon="-4.4323980">
        <ele>507.6</ele>
        <time>2019-08-13T11:29:19Z</time>
      </trkpt>
      <trkpt lat="40.2082000" lon="-4.4324350">
        <ele>507.8</ele>
        <time>2019-08-13T11:29:20Z</time>
      </trkpt>
      <trkpt lat="40.2082040" lon="-4.4324730">
        <ele>507.9</ele>
        <time>2019-08-13T11:29:21Z</time>
      </trkpt>
      <trkpt lat="40.2082070" lon="-4.4325090">
        <ele>508.1</ele>
        <time>2019-08-13T11:29:22Z</time>
      </trkpt>
      <trkpt lat="40.2082110" lon="-4.4325450">
        <ele>508.2</ele>
        <time>2019-08-13T11:29:23Z</time>
      </trkpt>
      <trkpt lat="40.2082150" lon="-4.4325810">
        <ele>508.4</ele>
        <time>2019-08-13T11:29:24Z</time>
      </trkpt>
      <trkpt lat="40.2082200" lon="-4.4326170">
        <ele>508.6</ele>
        <time>2019-08-13T11:29:25Z</time>
      </trkpt>
      <trkpt lat="40.2082230" lon="-4.4326530">
        <ele>508.7</ele>
        <time>2019-08-13T11:29:26Z</time>
      </trkpt>
      <trkpt lat="40.2082270" lon="-4.4326890">
        <ele>508.9</ele>
        <time>2019-08-13T11:29:27Z</time>
      </trkpt>
      <trkpt lat="40.2082320" lon="-4.4327250">
        <ele>509.0</ele>
        <time>2019-08-13T11:29:28Z</time>
      </trkpt>
      <trkpt lat="40.2082380" lon="-4.4327620">
        <ele>509.2</ele>
        <time>2019-08-13T11:29:29Z</time>
      </trkpt>
      <trkpt lat="40.2082420" lon="-4.4327990">
        <ele>509.4</ele>
        <time>2019-08-13T11:29:30Z</time>
      </trkpt>
      <trkpt lat="40.2082470" lon="-4.4328360">
        <ele>509.6</ele>
        <time>2019-08-13T11:29:31Z</time>
      </trkpt>
      <trkpt lat="40.2082510" lon="-4.4328720">
        <ele>509.7</ele>
        <time>2019-08-13T11:29:32Z</time>
      </trkpt>
      <trkpt lat="40.2082550" lon="-4.4329080">
        <ele>509.9</ele>
        <time>2019-08-13T11:29:33Z</time>
      </trkpt>
      <trkpt lat="40.2082580" lon="-4.4329430">
        <ele>510.1</ele>
        <time>2019-08-13T11:29:34Z</time>
      </trkpt>
      <trkpt lat="40.2082620" lon="-4.4329780">
        <ele>510.2</ele>
        <time>2019-08-13T11:29:35Z</time>
      </trkpt>
      <trkpt lat="40.2082660" lon="-4.4330140">
        <ele>510.4</ele>
        <time>2019-08-13T11:29:36Z</time>
      </trkpt>
      <trkpt lat="40.2082690" lon="-4.4330500">
        <ele>510.6</ele>
        <time>2019-08-13T11:29:37Z</time>
      </trkpt>
      <trkpt lat="40.2082750" lon="-4.4331180">
        <ele>511.0</ele>
        <time>2019-08-13T11:29:39Z</time>
      </trkpt>
      <trkpt lat="40.2082840" lon="-4.4331870">
        <ele>511.4</ele>
        <time>2019-08-13T11:29:41Z</time>
      </trkpt>
      <trkpt lat="40.2082880" lon="-4.4332220">
        <ele>511.6</ele>
        <time>2019-08-13T11:29:42Z</time>
      </trkpt>
      <trkpt lat="40.2082950" lon="-4.4332910">
        <ele>511.9</ele>
        <time>2019-08-13T11:29:44Z</time>
      </trkpt>
      <trkpt lat="40.2083020" lon="-4.4333590">
        <ele>512.3</ele>
        <time>2019-08-13T11:29:46Z</time>
      </trkpt>
      <trkpt lat="40.2083060" lon="-4.4334290">
        <ele>512.7</ele>
        <time>2019-08-13T11:29:48Z</time>
      </trkpt>
      <trkpt lat="40.2083110" lon="-4.4334990">
        <ele>513.0</ele>
        <time>2019-08-13T11:29:50Z</time>
      </trkpt>
      <trkpt lat="40.2083130" lon="-4.4335350">
        <ele>513.2</ele>
        <time>2019-08-13T11:29:51Z</time>
      </trkpt>
      <trkpt lat="40.2083140" lon="-4.4335700">
        <ele>513.4</ele>
        <time>2019-08-13T11:29:52Z</time>
      </trkpt>
      <trkpt lat="40.2083160" lon="-4.4336060">
        <ele>513.5</ele>
        <time>2019-08-13T11:29:53Z</time>
      </trkpt>
      <trkpt lat="40.2083160" lon="-4.4336740">
        <ele>513.8</ele>
        <time>2019-08-13T11:29:55Z</time>
      </trkpt>
      <trkpt lat="40.2083160" lon="-4.4337420">
        <ele>514.2</ele>
        <time>2019-08-13T11:29:57Z</time>
      </trkpt>
      <trkpt lat="40.2083150" lon="-4.4338080">
        <ele>514.4</ele>
        <time>2019-08-13T11:29:59Z</time>
      </trkpt>
      <trkpt lat="40.2083140" lon="-4.4338750">
        <ele>514.8</ele>
        <time>2019-08-13T11:30:01Z</time>
      </trkpt>
      <trkpt lat="40.2083100" lon="-4.4339430">
        <ele>515.1</ele>
        <time>2019-08-13T11:30:03Z</time>
      </trkpt>
      <trkpt lat="40.2083060" lon="-4.4340110">
        <ele>515.4</ele>
        <time>2019-08-13T11:30:05Z</time>
      </trkpt>
      <trkpt lat="40.2083020" lon="-4.4340790">
        <ele>515.7</ele>
        <time>2019-08-13T11:30:07Z</time>
      </trkpt>
      <trkpt lat="40.2082960" lon="-4.4341460">
        <ele>516.1</ele>
        <time>2019-08-13T11:30:09Z</time>
      </trkpt>
      <trkpt lat="40.2082880" lon="-4.4342120">
        <ele>516.4</ele>
        <time>2019-08-13T11:30:11Z</time>
      </trkpt>
      <trkpt lat="40.2082820" lon="-4.4342780">
        <ele>516.8</ele>
        <time>2019-08-13T11:30:13Z</time>
      </trkpt>
      <trkpt lat="40.2082760" lon="-4.4343440">
        <ele>517.1</ele>
        <time>2019-08-13T11:30:15Z</time>
      </trkpt>
      <trkpt lat="40.2082670" lon="-4.4344110">
        <ele>517.4</ele>
        <time>2019-08-13T11:30:17Z</time>
      </trkpt>
      <trkpt lat="40.2082590" lon="-4.4344790">
        <ele>517.8</ele>
        <time>2019-08-13T11:30:19Z</time>
      </trkpt>
      <trkpt lat="40.2082520" lon="-4.4345470">
        <ele>518.1</ele>
        <time>2019-08-13T11:30:21Z</time>
      </trkpt>
      <trkpt lat="40.2082420" lon="-4.4346140">
        <ele>518.5</ele>
        <time>2019-08-13T11:30:23Z</time>
      </trkpt>
      <trkpt lat="40.2082330" lon="-4.4346810">
        <ele>518.9</ele>
        <time>2019-08-13T11:30:25Z</time>
      </trkpt>
      <trkpt lat="40.2082220" lon="-4.4347470">
        <ele>519.2</ele>
        <time>2019-08-13T11:30:27Z</time>
      </trkpt>
      <trkpt lat="40.2082090" lon="-4.4348120">
        <ele>519.6</ele>
        <time>2019-08-13T11:30:29Z</time>
      </trkpt>
      <trkpt lat="40.2081960" lon="-4.4348780">
        <ele>519.9</ele>
        <time>2019-08-13T11:30:31Z</time>
      </trkpt>
      <trkpt lat="40.2081830" lon="-4.4349430">
        <ele>520.3</ele>
        <time>2019-08-13T11:30:33Z</time>
      </trkpt>
      <trkpt lat="40.2081670" lon="-4.4350060">
        <ele>520.7</ele>
        <time>2019-08-13T11:30:35Z</time>
      </trkpt>
      <trkpt lat="40.2081520" lon="-4.4350650">
        <ele>521.0</ele>
        <time>2019-08-13T11:30:37Z</time>
      </trkpt>
      <trkpt lat="40.2081380" lon="-4.4351250">
        <ele>521.4</ele>
        <time>2019-08-13T11:30:39Z</time>
      </trkpt>
      <trkpt lat="40.2081200" lon="-4.4351850">
        <ele>521.7</ele>
        <time>2019-08-13T11:30:41Z</time>
      </trkpt>
      <trkpt lat="40.2081040" lon="-4.4352430">
        <ele>522.0</ele>
        <time>2019-08-13T11:30:43Z</time>
      </trkpt>
      <trkpt lat="40.2080880" lon="-4.4353000">
        <ele>522.4</ele>
        <time>2019-08-13T11:30:45Z</time>
      </trkpt>
      <trkpt lat="40.2080710" lon="-4.4353560">
        <ele>522.7</ele>
        <time>2019-08-13T11:30:47Z</time>
      </trkpt>
      <trkpt lat="40.2080550" lon="-4.4354130">
        <ele>523.0</ele>
        <time>2019-08-13T11:30:49Z</time>
      </trkpt>
      <trkpt lat="40.2080370" lon="-4.4354690">
        <ele>523.3</ele>
        <time>2019-08-13T11:30:51Z</time>
      </trkpt>
      <trkpt lat="40.2080190" lon="-4.4355240">
        <ele>523.6</ele>
        <time>2019-08-13T11:30:53Z</time>
      </trkpt>
      <trkpt lat="40.2080020" lon="-4.4355780">
        <ele>523.9</ele>
        <time>2019-08-13T11:30:55Z</time>
      </trkpt>
      <trkpt lat="40.2079880" lon="-4.4356350">
        <ele>524.1</ele>
        <time>2019-08-13T11:30:57Z</time>
      </trkpt>
      <trkpt lat="40.2079700" lon="-4.4356920">
        <ele>524.4</ele>
        <time>2019-08-13T11:30:59Z</time>
      </trkpt>
      <trkpt lat="40.2079580" lon="-4.4357490">
        <ele>524.7</ele>
        <time>2019-08-13T11:31:01Z</time>
      </trkpt>
      <trkpt lat="40.2079490" lon="-4.4358080">
        <ele>525.0</ele>
        <time>2019-08-13T11:31:03Z</time>
      </trkpt>
      <trkpt lat="40.2079430" lon="-4.4358650">
        <ele>525.3</ele>
        <time>2019-08-13T11:31:05Z</time>
      </trkpt>
      <trkpt lat="40.2079420" lon="-4.4359240">
        <ele>525.6</ele>
        <time>2019-08-13T11:31:07Z</time>
      </trkpt>
      <trkpt lat="40.2079460" lon="-4.4359860">
        <ele>525.9</ele>
        <time>2019-08-13T11:31:09Z</time>
      </trkpt>
      <trkpt lat="40.2079540" lon="-4.4360460">
        <ele>526.3</ele>
        <time>2019-08-13T11:31:11Z</time>
      </trkpt>
      <trkpt lat="40.2079650" lon="-4.4361070">
        <ele>526.6</ele>
        <time>2019-08-13T11:31:13Z</time>
      </trkpt>
      <trkpt lat="40.2079780" lon="-4.4361670">
        <ele>526.9</ele>
        <time>2019-08-13T11:31:15Z</time>
      </trkpt>
      <trkpt lat="40.2079930" lon="-4.4362250">
        <ele>527.3</ele>
        <time>2019-08-13T11:31:17Z</time>
      </trkpt>
      <trkpt lat="40.2080090" lon="-4.4362830">
        <ele>527.7</ele>
        <time>2019-08-13T11:31:19Z</time>
      </trkpt>
      <trkpt lat="40.2080250" lon="-4.4363420">
        <ele>528.1</ele>
        <time>2019-08-13T11:31:21Z</time>
      </trkpt>
      <trkpt lat="40.2080410" lon="-4.4364020">
        <ele>528.5</ele>
        <time>2019-08-13T11:31:23Z</time>
      </trkpt>
      <trkpt lat="40.2080560" lon="-4.4364530">
        <ele>528.9</ele>
        <time>2019-08-13T11:31:25Z</time>
      </trkpt>
      <trkpt lat="40.2080700" lon="-4.4364870">
        <ele>529.1</ele>
        <time>2019-08-13T11:31:27Z</time>
      </trkpt>
      <trkpt lat="40.2080840" lon="-4.4365380">
        <ele>529.6</ele>
        <time>2019-08-13T11:31:57Z</time>
      </trkpt>
      <trkpt lat="40.2080840" lon="-4.4365810">
        <ele>529.9</ele>
        <time>2019-08-13T11:31:59Z</time>
      </trkpt>
      <trkpt lat="40.2080870" lon="-4.4366300">
        <ele>530.2</ele>
        <time>2019-08-13T11:32:01Z</time>
      </trkpt>
      <trkpt lat="40.2081000" lon="-4.4366760">
        <ele>530.5</ele>
        <time>2019-08-13T11:32:03Z</time>
      </trkpt>
      <trkpt lat="40.2081120" lon="-4.4367160">
        <ele>530.7</ele>
        <time>2019-08-13T11:32:05Z</time>
      </trkpt>
      <trkpt lat="40.2081280" lon="-4.4367630">
        <ele>531.0</ele>
        <time>2019-08-13T11:32:07Z</time>
      </trkpt>
      <trkpt lat="40.2081530" lon="-4.4368170">
        <ele>531.4</ele>
        <time>2019-08-13T11:32:09Z</time>
      </trkpt>
      <trkpt lat="40.2081710" lon="-4.4368780">
        <ele>531.8</ele>
        <time>2019-08-13T11:32:11Z</time>
      </trkpt>
      <trkpt lat="40.2081890" lon="-4.4369390">
        <ele>532.1</ele>
        <time>2019-08-13T11:32:13Z</time>
      </trkpt>
      <trkpt lat="40.2082060" lon="-4.4370030">
        <ele>532.5</ele>
        <time>2019-08-13T11:32:15Z</time>
      </trkpt>
      <trkpt lat="40.2082240" lon="-4.4370680">
        <ele>532.9</ele>
        <time>2019-08-13T11:32:17Z</time>
      </trkpt>
      <trkpt lat="40.2082440" lon="-4.4371320">
        <ele>533.3</ele>
        <time>2019-08-13T11:32:19Z</time>
      </trkpt>
      <trkpt lat="40.2082600" lon="-4.4371960">
        <ele>533.7</ele>
        <time>2019-08-13T11:32:21Z</time>
      </trkpt>
      <trkpt lat="40.2082710" lon="-4.4372610">
        <ele>534.2</ele>
        <time>2019-08-13T11:32:23Z</time>
      </trkpt>
      <trkpt lat="40.2082790" lon="-4.4373310">
        <ele>534.7</ele>
        <time>2019-08-13T11:32:25Z</time>
      </trkpt>
      <trkpt lat="40.2082820" lon="-4.4373670">
        <ele>535.0</ele>
        <time>2019-08-13T11:32:26Z</time>
      </trkpt>
      <trkpt lat="40.2082850" lon="-4.4374040">
        <ele>535.3</ele>
        <time>2019-08-13T11:32:27Z</time>
      </trkpt>
      <trkpt lat="40.2082850" lon="-4.4374410">
        <ele>535.6</ele>
        <time>2019-08-13T11:32:28Z</time>
      </trkpt>
      <trkpt lat="40.2082840" lon="-4.4374780">
        <ele>535.9</ele>
        <time>2019-08-13T11:32:29Z</time>
      </trkpt>
      <trkpt lat="40.2082810" lon="-4.4375150">
        <ele>536.3</ele>
        <time>2019-08-13T11:32:30Z</time>
      </trkpt>
      <trkpt lat="40.2082760" lon="-4.4375520">
        <ele>536.6</ele>
        <time>2019-08-13T11:32:31Z</time>
      </trkpt>
      <trkpt lat="40.2082690" lon="-4.4375900">
        <ele>537.0</ele>
        <time>2019-08-13T11:32:32Z</time>
      </trkpt>
      <trkpt lat="40.2082590" lon="-4.4376280">
        <ele>537.4</ele>
        <time>2019-08-13T11:32:33Z</time>
      </trkpt>
      <trkpt lat="40.2082480" lon="-4.4376670">
        <ele>537.5</ele>
        <time>2019-08-13T11:32:34Z</time>
      </trkpt>
      <trkpt lat="40.2082350" lon="-4.4377080">
        <ele>537.6</ele>
        <time>2019-08-13T11:32:35Z</time>
      </trkpt>
      <trkpt lat="40.2082220" lon="-4.4377480">
        <ele>537.7</ele>
        <time>2019-08-13T11:32:36Z</time>
      </trkpt>
      <trkpt lat="40.2082090" lon="-4.4377910">
        <ele>537.9</ele>
        <time>2019-08-13T11:32:37Z</time>
      </trkpt>
      <trkpt lat="40.2081950" lon="-4.4378350">
        <ele>538.0</ele>
        <time>2019-08-13T11:32:38Z</time>
      </trkpt>
      <trkpt lat="40.2081800" lon="-4.4378800">
        <ele>538.3</ele>
        <time>2019-08-13T11:32:39Z</time>
      </trkpt>
      <trkpt lat="40.2081650" lon="-4.4379270">
        <ele>538.4</ele>
        <time>2019-08-13T11:32:40Z</time>
      </trkpt>
      <trkpt lat="40.2081520" lon="-4.4379760">
        <ele>538.5</ele>
        <time>2019-08-13T11:32:41Z</time>
      </trkpt>
      <trkpt lat="40.2081390" lon="-4.4380250">
        <ele>538.7</ele>
        <time>2019-08-13T11:32:42Z</time>
      </trkpt>
      <trkpt lat="40.2081240" lon="-4.4380720">
        <ele>538.8</ele>
        <time>2019-08-13T11:32:43Z</time>
      </trkpt>
      <trkpt lat="40.2081080" lon="-4.4381170">
        <ele>539.0</ele>
        <time>2019-08-13T11:32:44Z</time>
      </trkpt>
      <trkpt lat="40.2080930" lon="-4.4381600">
        <ele>539.1</ele>
        <time>2019-08-13T11:32:45Z</time>
      </trkpt>
      <trkpt lat="40.2080770" lon="-4.4382010">
        <ele>539.2</ele>
        <time>2019-08-13T11:32:46Z</time>
      </trkpt>
      <trkpt lat="40.2080610" lon="-4.4382410">
        <ele>539.3</ele>
        <time>2019-08-13T11:32:47Z</time>
      </trkpt>
      <trkpt lat="40.2080450" lon="-4.4382800">
        <ele>539.4</ele>
        <time>2019-08-13T11:32:48Z</time>
      </trkpt>
      <trkpt lat="40.2080270" lon="-4.4383190">
        <ele>539.6</ele>
        <time>2019-08-13T11:32:49Z</time>
      </trkpt>
      <trkpt lat="40.2080070" lon="-4.4383570">
        <ele>539.7</ele>
        <time>2019-08-13T11:32:50Z</time>
      </trkpt>
      <trkpt lat="40.2079850" lon="-4.4383940">
        <ele>539.8</ele>
        <time>2019-08-13T11:32:51Z</time>
      </trkpt>
      <trkpt lat="40.2079630" lon="-4.4384320">
        <ele>539.9</ele>
        <time>2019-08-13T11:32:52Z</time>
      </trkpt>
      <trkpt lat="40.2079410" lon="-4.4384680">
        <ele>540.0</ele>
        <time>2019-08-13T11:32:53Z</time>
      </trkpt>
      <trkpt lat="40.2079210" lon="-4.4385050">
        <ele>540.1</ele>
        <time>2019-08-13T11:32:54Z</time>
      </trkpt>
      <trkpt lat="40.2079010" lon="-4.4385420">
        <ele>540.2</ele>
        <time>2019-08-13T11:32:55Z</time>
      </trkpt>
      <trkpt lat="40.2078790" lon="-4.4385780">
        <ele>540.3</ele>
        <time>2019-08-13T11:32:56Z</time>
      </trkpt>
      <trkpt lat="40.2078570" lon="-4.4386120">
        <ele>540.4</ele>
        <time>2019-08-13T11:32:57Z</time>
      </trkpt>
      <trkpt lat="40.2078360" lon="-4.4386480">
        <ele>540.5</ele>
        <time>2019-08-13T11:32:58Z</time>
      </trkpt>
      <trkpt lat="40.2078160" lon="-4.4386850">
        <ele>540.5</ele>
        <time>2019-08-13T11:32:59Z</time>
      </trkpt>
      <trkpt lat="40.2077970" lon="-4.4387220">
        <ele>540.6</ele>
        <time>2019-08-13T11:33:00Z</time>
      </trkpt>
      <trkpt lat="40.2077760" lon="-4.4387590">
        <ele>540.7</ele>
        <time>2019-08-13T11:33:01Z</time>
      </trkpt>
      <trkpt lat="40.2077560" lon="-4.4387950">
        <ele>540.8</ele>
        <time>2019-08-13T11:33:02Z</time>
      </trkpt>
      <trkpt lat="40.2077360" lon="-4.4388280">
        <ele>540.8</ele>
        <time>2019-08-13T11:33:03Z</time>
      </trkpt>
      <trkpt lat="40.2077150" lon="-4.4388610">
        <ele>540.9</ele>
        <time>2019-08-13T11:33:04Z</time>
      </trkpt>
      <trkpt lat="40.2076930" lon="-4.4388950">
        <ele>540.9</ele>
        <time>2019-08-13T11:33:05Z</time>
      </trkpt>
      <trkpt lat="40.2076720" lon="-4.4389320">
        <ele>541.0</ele>
        <time>2019-08-13T11:33:06Z</time>
      </trkpt>
      <trkpt lat="40.2076500" lon="-4.4389700">
        <ele>541.0</ele>
        <time>2019-08-13T11:33:07Z</time>
      </trkpt>
      <trkpt lat="40.2076280" lon="-4.4390080">
        <ele>541.1</ele>
        <time>2019-08-13T11:33:08Z</time>
      </trkpt>
      <trkpt lat="40.2076070" lon="-4.4390460">
        <ele>541.1</ele>
        <time>2019-08-13T11:33:09Z</time>
      </trkpt>
      <trkpt lat="40.2075860" lon="-4.4390810">
        <ele>541.1</ele>
        <time>2019-08-13T11:33:10Z</time>
      </trkpt>
      <trkpt lat="40.2075650" lon="-4.4391150">
        <ele>541.1</ele>
        <time>2019-08-13T11:33:11Z</time>
      </trkpt>
      <trkpt lat="40.2075440" lon="-4.4391470">
        <ele>541.2</ele>
        <time>2019-08-13T11:33:12Z</time>
      </trkpt>
      <trkpt lat="40.2075260" lon="-4.4391770">
        <ele>541.2</ele>
        <time>2019-08-13T11:33:13Z</time>
      </trkpt>
      <trkpt lat="40.2075090" lon="-4.4392110">
        <ele>541.2</ele>
        <time>2019-08-13T11:33:14Z</time>
      </trkpt>
      <trkpt lat="40.2074910" lon="-4.4392480">
        <ele>541.2</ele>
        <time>2019-08-13T11:33:15Z</time>
      </trkpt>
      <trkpt lat="40.2074700" lon="-4.4392860">
        <ele>541.2</ele>
        <time>2019-08-13T11:33:16Z</time>
      </trkpt>
      <trkpt lat="40.2074480" lon="-4.4393230">
        <ele>541.2</ele>
        <time>2019-08-13T11:33:17Z</time>
      </trkpt>
      <trkpt lat="40.2074270" lon="-4.4393600">
        <ele>541.2</ele>
        <time>2019-08-13T11:33:18Z</time>
      </trkpt>
      <trkpt lat="40.2074050" lon="-4.4393970">
        <ele>541.2</ele>
        <time>2019-08-13T11:33:19Z</time>
      </trkpt>
      <trkpt lat="40.2073840" lon="-4.4394340">
        <ele>541.2</ele>
        <time>2019-08-13T11:33:20Z</time>
      </trkpt>
      <trkpt lat="40.2073630" lon="-4.4394720">
        <ele>541.2</ele>
        <time>2019-08-13T11:33:21Z</time>
      </trkpt>
      <trkpt lat="40.2073410" lon="-4.4395090">
        <ele>541.2</ele>
        <time>2019-08-13T11:33:22Z</time>
      </trkpt>
      <trkpt lat="40.2073190" lon="-4.4395470">
        <ele>541.2</ele>
        <time>2019-08-13T11:33:23Z</time>
      </trkpt>
      <trkpt lat="40.2072970" lon="-4.4395840">
        <ele>541.2</ele>
        <time>2019-08-13T11:33:24Z</time>
      </trkpt>
      <trkpt lat="40.2072740" lon="-4.4396220">
        <ele>541.2</ele>
        <time>2019-08-13T11:33:25Z</time>
      </trkpt>
      <trkpt lat="40.2072510" lon="-4.4396600">
        <ele>541.2</ele>
        <time>2019-08-13T11:33:26Z</time>
      </trkpt>
      <trkpt lat="40.2072280" lon="-4.4396990">
        <ele>541.2</ele>
        <time>2019-08-13T11:33:27Z</time>
      </trkpt>
      <trkpt lat="40.2072060" lon="-4.4397410">
        <ele>541.2</ele>
        <time>2019-08-13T11:33:28Z</time>
      </trkpt>
      <trkpt lat="40.2071830" lon="-4.4397830">
        <ele>541.1</ele>
        <time>2019-08-13T11:33:29Z</time>
      </trkpt>
      <trkpt lat="40.2071610" lon="-4.4398270">
        <ele>541.1</ele>
        <time>2019-08-13T11:33:30Z</time>
      </trkpt>
      <trkpt lat="40.2071390" lon="-4.4398700">
        <ele>541.1</ele>
        <time>2019-08-13T11:33:31Z</time>
      </trkpt>
      <trkpt lat="40.2071160" lon="-4.4399150">
        <ele>541.1</ele>
        <time>2019-08-13T11:33:32Z</time>
      </trkpt>
      <trkpt lat="40.2070920" lon="-4.4399610">
        <ele>541.0</ele>
        <time>2019-08-13T11:33:33Z</time>
      </trkpt>
      <trkpt lat="40.2070660" lon="-4.4400070">
        <ele>541.0</ele>
        <time>2019-08-13T11:33:34Z</time>
      </trkpt>
      <trkpt lat="40.2070400" lon="-4.4400490">
        <ele>541.0</ele>
        <time>2019-08-13T11:33:35Z</time>
      </trkpt>
      <trkpt lat="40.2070150" lon="-4.4400920">
        <ele>540.9</ele>
        <time>2019-08-13T11:33:36Z</time>
      </trkpt>
      <trkpt lat="40.2069910" lon="-4.4401350">
        <ele>540.9</ele>
        <time>2019-08-13T11:33:37Z</time>
      </trkpt>
      <trkpt lat="40.2069660" lon="-4.4401780">
        <ele>540.9</ele>
        <time>2019-08-13T11:33:38Z</time>
      </trkpt>
      <trkpt lat="40.2069430" lon="-4.4402210">
        <ele>540.8</ele>
        <time>2019-08-13T11:33:39Z</time>
      </trkpt>
      <trkpt lat="40.2069210" lon="-4.4402650">
        <ele>540.8</ele>
        <time>2019-08-13T11:33:40Z</time>
      </trkpt>
      <trkpt lat="40.2069000" lon="-4.4403100">
        <ele>540.7</ele>
        <time>2019-08-13T11:33:41Z</time>
      </trkpt>
      <trkpt lat="40.2068780" lon="-4.4403570">
        <ele>540.6</ele>
        <time>2019-08-13T11:33:42Z</time>
      </trkpt>
      <trkpt lat="40.2068540" lon="-4.4404070">
        <ele>540.6</ele>
        <time>2019-08-13T11:33:43Z</time>
      </trkpt>
      <trkpt lat="40.2068290" lon="-4.4404570">
        <ele>540.5</ele>
        <time>2019-08-13T11:33:44Z</time>
      </trkpt>
      <trkpt lat="40.2068020" lon="-4.4405080">
        <ele>540.4</ele>
        <time>2019-08-13T11:33:45Z</time>
      </trkpt>
      <trkpt lat="40.2067760" lon="-4.4405580">
        <ele>540.3</ele>
        <time>2019-08-13T11:33:46Z</time>
      </trkpt>
      <trkpt lat="40.2067500" lon="-4.4406080">
        <ele>540.2</ele>
        <time>2019-08-13T11:33:47Z</time>
      </trkpt>
      <trkpt lat="40.2067240" lon="-4.4406580">
        <ele>540.0</ele>
        <time>2019-08-13T11:33:48Z</time>
      </trkpt>
      <trkpt lat="40.2066980" lon="-4.4407050">
        <ele>539.9</ele>
        <time>2019-08-13T11:33:49Z</time>
      </trkpt>
      <trkpt lat="40.2066740" lon="-4.4407530">
        <ele>539.8</ele>
        <time>2019-08-13T11:33:50Z</time>
      </trkpt>
      <trkpt lat="40.2066490" lon="-4.4408030">
        <ele>539.7</ele>
        <time>2019-08-13T11:33:51Z</time>
      </trkpt>
      <trkpt lat="40.2066240" lon="-4.4408530">
        <ele>539.6</ele>
        <time>2019-08-13T11:33:52Z</time>
      </trkpt>
      <trkpt lat="40.2065960" lon="-4.4409040">
        <ele>539.5</ele>
        <time>2019-08-13T11:33:53Z</time>
      </trkpt>
      <trkpt lat="40.2065690" lon="-4.4409540">
        <ele>539.4</ele>
        <time>2019-08-13T11:33:54Z</time>
      </trkpt>
      <trkpt lat="40.2065430" lon="-4.4410040">
        <ele>539.4</ele>
        <time>2019-08-13T11:33:55Z</time>
      </trkpt>
      <trkpt lat="40.2065160" lon="-4.4410550">
        <ele>539.3</ele>
        <time>2019-08-13T11:33:56Z</time>
      </trkpt>
      <trkpt lat="40.2064870" lon="-4.4411070">
        <ele>539.2</ele>
        <time>2019-08-13T11:33:57Z</time>
      </trkpt>
      <trkpt lat="40.2064590" lon="-4.4411600">
        <ele>539.2</ele>
        <time>2019-08-13T11:33:58Z</time>
      </trkpt>
      <trkpt lat="40.2064310" lon="-4.4412130">
        <ele>539.1</ele>
        <time>2019-08-13T11:33:59Z</time>
      </trkpt>
      <trkpt lat="40.2064020" lon="-4.4412660">
        <ele>539.0</ele>
        <time>2019-08-13T11:34:00Z</time>
      </trkpt>
      <trkpt lat="40.2063730" lon="-4.4413180">
        <ele>539.0</ele>
        <time>2019-08-13T11:34:01Z</time>
      </trkpt>
      <trkpt lat="40.2063460" lon="-4.4413700">
        <ele>538.9</ele>
        <time>2019-08-13T11:34:02Z</time>
      </trkpt>
      <trkpt lat="40.2063190" lon="-4.4414240">
        <ele>538.8</ele>
        <time>2019-08-13T11:34:03Z</time>
      </trkpt>
      <trkpt lat="40.2062920" lon="-4.4414770">
        <ele>538.7</ele>
        <time>2019-08-13T11:34:04Z</time>
      </trkpt>
      <trkpt lat="40.2062650" lon="-4.4415300">
        <ele>538.6</ele>
        <time>2019-08-13T11:34:05Z</time>
      </trkpt>
      <trkpt lat="40.2062360" lon="-4.4415820">
        <ele>538.5</ele>
        <time>2019-08-13T11:34:06Z</time>
      </trkpt>
      <trkpt lat="40.2062070" lon="-4.4416340">
        <ele>538.4</ele>
        <time>2019-08-13T11:34:07Z</time>
      </trkpt>
      <trkpt lat="40.2061770" lon="-4.4416860">
        <ele>538.3</ele>
        <time>2019-08-13T11:34:08Z</time>
      </trkpt>
      <trkpt lat="40.2061480" lon="-4.4417400">
        <ele>538.1</ele>
        <time>2019-08-13T11:34:09Z</time>
      </trkpt>
      <trkpt lat="40.2061190" lon="-4.4417950">
        <ele>538.0</ele>
        <time>2019-08-13T11:34:10Z</time>
      </trkpt>
      <trkpt lat="40.2060920" lon="-4.4418490">
        <ele>537.9</ele>
        <time>2019-08-13T11:34:11Z</time>
      </trkpt>
      <trkpt lat="40.2060630" lon="-4.4419060">
        <ele>537.8</ele>
        <time>2019-08-13T11:34:12Z</time>
      </trkpt>
      <trkpt lat="40.2060340" lon="-4.4419620">
        <ele>537.7</ele>
        <time>2019-08-13T11:34:13Z</time>
      </trkpt>
      <trkpt lat="40.2060060" lon="-4.4420200">
        <ele>537.6</ele>
        <time>2019-08-13T11:34:14Z</time>
      </trkpt>
      <trkpt lat="40.2059800" lon="-4.4420790">
        <ele>537.5</ele>
        <time>2019-08-13T11:34:15Z</time>
      </trkpt>
      <trkpt lat="40.2059570" lon="-4.4421390">
        <ele>537.3</ele>
        <time>2019-08-13T11:34:16Z</time>
      </trkpt>
      <trkpt lat="40.2059360" lon="-4.4422010">
        <ele>537.2</ele>
        <time>2019-08-13T11:34:17Z</time>
      </trkpt>
      <trkpt lat="40.2059190" lon="-4.4422650">
        <ele>537.1</ele>
        <time>2019-08-13T11:34:18Z</time>
      </trkpt>
      <trkpt lat="40.2059080" lon="-4.4423290">
        <ele>537.0</ele>
        <time>2019-08-13T11:34:19Z</time>
      </trkpt>
      <trkpt lat="40.2059010" lon="-4.4423930">
        <ele>536.9</ele>
        <time>2019-08-13T11:34:20Z</time>
      </trkpt>
      <trkpt lat="40.2058970" lon="-4.4424590">
        <ele>536.7</ele>
        <time>2019-08-13T11:34:21Z</time>
      </trkpt>
      <trkpt lat="40.2058950" lon="-4.4425250">
        <ele>536.5</ele>
        <time>2019-08-13T11:34:22Z</time>
      </trkpt>
      <trkpt lat="40.2058940" lon="-4.4425890">
        <ele>536.4</ele>
        <time>2019-08-13T11:34:23Z</time>
      </trkpt>
      <trkpt lat="40.2058920" lon="-4.4426530">
        <ele>536.2</ele>
        <time>2019-08-13T11:34:24Z</time>
      </trkpt>
      <trkpt lat="40.2058900" lon="-4.4427200">
        <ele>536.1</ele>
        <time>2019-08-13T11:34:25Z</time>
      </trkpt>
      <trkpt lat="40.2058900" lon="-4.4427900">
        <ele>535.9</ele>
        <time>2019-08-13T11:34:26Z</time>
      </trkpt>
      <trkpt lat="40.2058910" lon="-4.4428630">
        <ele>535.8</ele>
        <time>2019-08-13T11:34:27Z</time>
      </trkpt>
      <trkpt lat="40.2058950" lon="-4.4429380">
        <ele>535.7</ele>
        <time>2019-08-13T11:34:28Z</time>
      </trkpt>
      <trkpt lat="40.2059040" lon="-4.4430140">
        <ele>535.6</ele>
        <time>2019-08-13T11:34:29Z</time>
      </trkpt>
      <trkpt lat="40.2059190" lon="-4.4430900">
        <ele>535.6</ele>
        <time>2019-08-13T11:34:30Z</time>
      </trkpt>
      <trkpt lat="40.2059400" lon="-4.4431660">
        <ele>535.6</ele>
        <time>2019-08-13T11:34:31Z</time>
      </trkpt>
      <trkpt lat="40.2059670" lon="-4.4432400">
        <ele>535.6</ele>
        <time>2019-08-13T11:34:32Z</time>
      </trkpt>
      <trkpt lat="40.2059990" lon="-4.4433110">
        <ele>535.6</ele>
        <time>2019-08-13T11:34:33Z</time>
      </trkpt>
      <trkpt lat="40.2060380" lon="-4.4433770">
        <ele>535.6</ele>
        <time>2019-08-13T11:34:34Z</time>
      </trkpt>
      <trkpt lat="40.2060830" lon="-4.4434380">
        <ele>535.7</ele>
        <time>2019-08-13T11:34:35Z</time>
      </trkpt>
      <trkpt lat="40.2061330" lon="-4.4434930">
        <ele>535.8</ele>
        <time>2019-08-13T11:34:36Z</time>
      </trkpt>
      <trkpt lat="40.2061860" lon="-4.4435430">
        <ele>535.9</ele>
        <time>2019-08-13T11:34:37Z</time>
      </trkpt>
      <trkpt lat="40.2062410" lon="-4.4435930">
        <ele>536.0</ele>
        <time>2019-08-13T11:34:38Z</time>
      </trkpt>
      <trkpt lat="40.2062940" lon="-4.4436460">
        <ele>536.2</ele>
        <time>2019-08-13T11:34:39Z</time>
      </trkpt>
      <trkpt lat="40.2063450" lon="-4.4436990">
        <ele>536.5</ele>
        <time>2019-08-13T11:34:40Z</time>
      </trkpt>
      <trkpt lat="40.2063980" lon="-4.4437480">
        <ele>536.7</ele>
        <time>2019-08-13T11:34:41Z</time>
      </trkpt>
      <trkpt lat="40.2064510" lon="-4.4437920">
        <ele>537.0</ele>
        <time>2019-08-13T11:34:42Z</time>
      </trkpt>
      <trkpt lat="40.2065060" lon="-4.4438340">
        <ele>537.3</ele>
        <time>2019-08-13T11:34:43Z</time>
      </trkpt>
      <trkpt lat="40.2065610" lon="-4.4438730">
        <ele>537.6</ele>
        <time>2019-08-13T11:34:44Z</time>
      </trkpt>
      <trkpt lat="40.2066160" lon="-4.4439090">
        <ele>537.9</ele>
        <time>2019-08-13T11:34:45Z</time>
      </trkpt>
      <trkpt lat="40.2066730" lon="-4.4439430">
        <ele>538.2</ele>
        <time>2019-08-13T11:34:46Z</time>
      </trkpt>
      <trkpt lat="40.2067300" lon="-4.4439710">
        <ele>538.4</ele>
        <time>2019-08-13T11:34:47Z</time>
      </trkpt>
      <trkpt lat="40.2067890" lon="-4.4439930">
        <ele>538.7</ele>
        <time>2019-08-13T11:34:48Z</time>
      </trkpt>
      <trkpt lat="40.2068480" lon="-4.4440060">
        <ele>539.0</ele>
        <time>2019-08-13T11:34:49Z</time>
      </trkpt>
      <trkpt lat="40.2069060" lon="-4.4440100">
        <ele>539.3</ele>
        <time>2019-08-13T11:34:50Z</time>
      </trkpt>
      <trkpt lat="40.2069630" lon="-4.4440100">
        <ele>539.6</ele>
        <time>2019-08-13T11:34:51Z</time>
      </trkpt>
      <trkpt lat="40.2070160" lon="-4.4440030">
        <ele>539.9</ele>
        <time>2019-08-13T11:34:52Z</time>
      </trkpt>
      <trkpt lat="40.2070670" lon="-4.4439890">
        <ele>540.2</ele>
        <time>2019-08-13T11:34:53Z</time>
      </trkpt>
      <trkpt lat="40.2071140" lon="-4.4439720">
        <ele>540.4</ele>
        <time>2019-08-13T11:34:54Z</time>
      </trkpt>
      <trkpt lat="40.2071580" lon="-4.4439550">
        <ele>540.7</ele>
        <time>2019-08-13T11:34:55Z</time>
      </trkpt>
      <trkpt lat="40.2071990" lon="-4.4439350">
        <ele>540.9</ele>
        <time>2019-08-13T11:34:56Z</time>
      </trkpt>
      <trkpt lat="40.2072380" lon="-4.4439160">
        <ele>541.1</ele>
        <time>2019-08-13T11:34:57Z</time>
      </trkpt>
      <trkpt lat="40.2072770" lon="-4.4438950">
        <ele>541.3</ele>
        <time>2019-08-13T11:34:58Z</time>
      </trkpt>
      <trkpt lat="40.2073170" lon="-4.4438740">
        <ele>541.4</ele>
        <time>2019-08-13T11:34:59Z</time>
      </trkpt>
      <trkpt lat="40.2073540" lon="-4.4438560">
        <ele>541.6</ele>
        <time>2019-08-13T11:35:00Z</time>
      </trkpt>
      <trkpt lat="40.2073920" lon="-4.4438380">
        <ele>541.8</ele>
        <time>2019-08-13T11:35:01Z</time>
      </trkpt>
      <trkpt lat="40.2074290" lon="-4.4438210">
        <ele>542.0</ele>
        <time>2019-08-13T11:35:02Z</time>
      </trkpt>
      <trkpt lat="40.2074650" lon="-4.4438020">
        <ele>542.2</ele>
        <time>2019-08-13T11:35:03Z</time>
      </trkpt>
      <trkpt lat="40.2075020" lon="-4.4437840">
        <ele>542.3</ele>
        <time>2019-08-13T11:35:04Z</time>
      </trkpt>
      <trkpt lat="40.2075390" lon="-4.4437650">
        <ele>542.5</ele>
        <time>2019-08-13T11:35:05Z</time>
      </trkpt>
      <trkpt lat="40.2075750" lon="-4.4437460">
        <ele>542.7</ele>
        <time>2019-08-13T11:35:06Z</time>
      </trkpt>
      <trkpt lat="40.2076090" lon="-4.4437240">
        <ele>542.8</ele>
        <time>2019-08-13T11:35:07Z</time>
      </trkpt>
      <trkpt lat="40.2076420" lon="-4.4436990">
        <ele>543.0</ele>
        <time>2019-08-13T11:35:08Z</time>
      </trkpt>
      <trkpt lat="40.2076740" lon="-4.4436730">
        <ele>543.2</ele>
        <time>2019-08-13T11:35:09Z</time>
      </trkpt>
      <trkpt lat="40.2077040" lon="-4.4436450">
        <ele>543.4</ele>
        <time>2019-08-13T11:35:10Z</time>
      </trkpt>
      <trkpt lat="40.2077320" lon="-4.4436140">
        <ele>543.5</ele>
        <time>2019-08-13T11:35:11Z</time>
      </trkpt>
      <trkpt lat="40.2077600" lon="-4.4435800">
        <ele>543.7</ele>
        <time>2019-08-13T11:35:12Z</time>
      </trkpt>
      <trkpt lat="40.2077880" lon="-4.4435450">
        <ele>543.9</ele>
        <time>2019-08-13T11:35:13Z</time>
      </trkpt>
      <trkpt lat="40.2078170" lon="-4.4435100">
        <ele>544.0</ele>
        <time>2019-08-13T11:35:14Z</time>
      </trkpt>
      <trkpt lat="40.2078430" lon="-4.4434750">
        <ele>544.2</ele>
        <time>2019-08-13T11:35:15Z</time>
      </trkpt>
      <trkpt lat="40.2078700" lon="-4.4434400">
        <ele>544.4</ele>
        <time>2019-08-13T11:35:16Z</time>
      </trkpt>
      <trkpt lat="40.2078950" lon="-4.4434050">
        <ele>544.5</ele>
        <time>2019-08-13T11:35:17Z</time>
      </trkpt>
      <trkpt lat="40.2079210" lon="-4.4433710">
        <ele>544.7</ele>
        <time>2019-08-13T11:35:18Z</time>
      </trkpt>
      <trkpt lat="40.2079470" lon="-4.4433390">
        <ele>544.8</ele>
        <time>2019-08-13T11:35:19Z</time>
      </trkpt>
      <trkpt lat="40.2079730" lon="-4.4433090">
        <ele>544.9</ele>
        <time>2019-08-13T11:35:20Z</time>
      </trkpt>
      <trkpt lat="40.2079980" lon="-4.4432800">
        <ele>545.0</ele>
        <time>2019-08-13T11:35:21Z</time>
      </trkpt>
      <trkpt lat="40.2080240" lon="-4.4432540">
        <ele>545.1</ele>
        <time>2019-08-13T11:35:22Z</time>
      </trkpt>
      <trkpt lat="40.2080520" lon="-4.4432280">
        <ele>545.2</ele>
        <time>2019-08-13T11:35:23Z</time>
      </trkpt>
      <trkpt lat="40.2080810" lon="-4.4432020">
        <ele>545.3</ele>
        <time>2019-08-13T11:35:24Z</time>
      </trkpt>
      <trkpt lat="40.2081100" lon="-4.4431770">
        <ele>545.4</ele>
        <time>2019-08-13T11:35:25Z</time>
      </trkpt>
      <trkpt lat="40.2081400" lon="-4.4431500">
        <ele>545.5</ele>
        <time>2019-08-13T11:35:26Z</time>
      </trkpt>
      <trkpt lat="40.2081710" lon="-4.4431270">
        <ele>545.6</ele>
        <time>2019-08-13T11:35:27Z</time>
      </trkpt>
      <trkpt lat="40.2082030" lon="-4.4431040">
        <ele>545.7</ele>
        <time>2019-08-13T11:35:28Z</time>
      </trkpt>
      <trkpt lat="40.2082350" lon="-4.4430850">
        <ele>545.8</ele>
        <time>2019-08-13T11:35:29Z</time>
      </trkpt>
      <trkpt lat="40.2082680" lon="-4.4430680">
        <ele>545.8</ele>
        <time>2019-08-13T11:35:30Z</time>
      </trkpt>
      <trkpt lat="40.2083020" lon="-4.4430560">
        <ele>545.9</ele>
        <time>2019-08-13T11:35:31Z</time>
      </trkpt>
      <trkpt lat="40.2083370" lon="-4.4430470">
        <ele>546.0</ele>
        <time>2019-08-13T11:35:32Z</time>
      </trkpt>
      <trkpt lat="40.2083730" lon="-4.4430420">
        <ele>546.1</ele>
        <time>2019-08-13T11:35:33Z</time>
      </trkpt>
      <trkpt lat="40.2084090" lon="-4.4430410">
        <ele>546.2</ele>
        <time>2019-08-13T11:35:34Z</time>
      </trkpt>
      <trkpt lat="40.2084440" lon="-4.4430440">
        <ele>546.3</ele>
        <time>2019-08-13T11:35:35Z</time>
      </trkpt>
      <trkpt lat="40.2084790" lon="-4.4430510">
        <ele>546.3</ele>
        <time>2019-08-13T11:35:36Z</time>
      </trkpt>
      <trkpt lat="40.2085130" lon="-4.4430600">
        <ele>546.4</ele>
        <time>2019-08-13T11:35:37Z</time>
      </trkpt>
      <trkpt lat="40.2085470" lon="-4.4430700">
        <ele>546.5</ele>
        <time>2019-08-13T11:35:38Z</time>
      </trkpt>
      <trkpt lat="40.2085810" lon="-4.4430810">
        <ele>546.6</ele>
        <time>2019-08-13T11:35:39Z</time>
      </trkpt>
      <trkpt lat="40.2086170" lon="-4.4430930">
        <ele>546.7</ele>
        <time>2019-08-13T11:35:40Z</time>
      </trkpt>
      <trkpt lat="40.2086520" lon="-4.4431070">
        <ele>546.8</ele>
        <time>2019-08-13T11:35:41Z</time>
      </trkpt>
      <trkpt lat="40.2086870" lon="-4.4431220">
        <ele>546.9</ele>
        <time>2019-08-13T11:35:42Z</time>
      </trkpt>
      <trkpt lat="40.2087220" lon="-4.4431360">
        <ele>547.0</ele>
        <time>2019-08-13T11:35:43Z</time>
      </trkpt>
      <trkpt lat="40.2087560" lon="-4.4431520">
        <ele>547.1</ele>
        <time>2019-08-13T11:35:44Z</time>
      </trkpt>
      <trkpt lat="40.2087880" lon="-4.4431700">
        <ele>547.2</ele>
        <time>2019-08-13T11:35:45Z</time>
      </trkpt>
      <trkpt lat="40.2088190" lon="-4.4431920">
        <ele>547.3</ele>
        <time>2019-08-13T11:35:46Z</time>
      </trkpt>
      <trkpt lat="40.2088460" lon="-4.4432180">
        <ele>547.3</ele>
        <time>2019-08-13T11:35:47Z</time>
      </trkpt>
      <trkpt lat="40.2088690" lon="-4.4432490">
        <ele>547.4</ele>
        <time>2019-08-13T11:35:48Z</time>
      </trkpt>
      <trkpt lat="40.2088870" lon="-4.4432850">
        <ele>547.5</ele>
        <time>2019-08-13T11:35:49Z</time>
      </trkpt>
      <trkpt lat="40.2088970" lon="-4.4433260">
        <ele>547.6</ele>
        <time>2019-08-13T11:35:50Z</time>
      </trkpt>
      <trkpt lat="40.2089050" lon="-4.4433700">
        <ele>547.7</ele>
        <time>2019-08-13T11:35:51Z</time>
      </trkpt>
      <trkpt lat="40.2089120" lon="-4.4434150">
        <ele>547.8</ele>
        <time>2019-08-13T11:35:52Z</time>
      </trkpt>
      <trkpt lat="40.2089170" lon="-4.4434610">
        <ele>547.9</ele>
        <time>2019-08-13T11:35:53Z</time>
      </trkpt>
      <trkpt lat="40.2089210" lon="-4.4435080">
        <ele>548.0</ele>
        <time>2019-08-13T11:35:54Z</time>
      </trkpt>
      <trkpt lat="40.2089250" lon="-4.4435560">
        <ele>548.1</ele>
        <time>2019-08-13T11:35:55Z</time>
      </trkpt>
      <trkpt lat="40.2089280" lon="-4.4436040">
        <ele>548.2</ele>
        <time>2019-08-13T11:35:56Z</time>
      </trkpt>
      <trkpt lat="40.2089320" lon="-4.4436530">
        <ele>548.4</ele>
        <time>2019-08-13T11:35:57Z</time>
      </trkpt>
      <trkpt lat="40.2089360" lon="-4.4437030">
        <ele>548.5</ele>
        <time>2019-08-13T11:35:58Z</time>
      </trkpt>
      <trkpt lat="40.2089410" lon="-4.4437530">
        <ele>548.7</ele>
        <time>2019-08-13T11:35:59Z</time>
      </trkpt>
      <trkpt lat="40.2089470" lon="-4.4438020">
        <ele>548.8</ele>
        <time>2019-08-13T11:36:00Z</time>
      </trkpt>
      <trkpt lat="40.2089550" lon="-4.4438490">
        <ele>549.0</ele>
        <time>2019-08-13T11:36:01Z</time>
      </trkpt>
      <trkpt lat="40.2089640" lon="-4.4438950">
        <ele>549.2</ele>
        <time>2019-08-13T11:36:02Z</time>
      </trkpt>
      <trkpt lat="40.2089750" lon="-4.4439400">
        <ele>549.4</ele>
        <time>2019-08-13T11:36:03Z</time>
      </trkpt>
      <trkpt lat="40.2089870" lon="-4.4439850">
        <ele>549.6</ele>
        <time>2019-08-13T11:36:04Z</time>
      </trkpt>
      <trkpt lat="40.2090010" lon="-4.4440300">
        <ele>549.8</ele>
        <time>2019-08-13T11:36:05Z</time>
      </trkpt>
      <trkpt lat="40.2090180" lon="-4.4440720">
        <ele>550.0</ele>
        <time>2019-08-13T11:36:06Z</time>
      </trkpt>
      <trkpt lat="40.2090370" lon="-4.4441120">
        <ele>550.3</ele>
        <time>2019-08-13T11:36:07Z</time>
      </trkpt>
      <trkpt lat="40.2090600" lon="-4.4441480">
        <ele>550.5</ele>
        <time>2019-08-13T11:36:08Z</time>
      </trkpt>
      <trkpt lat="40.2090830" lon="-4.4441820">
        <ele>550.8</ele>
        <time>2019-08-13T11:36:09Z</time>
      </trkpt>
      <trkpt lat="40.2091080" lon="-4.4442160">
        <ele>551.1</ele>
        <time>2019-08-13T11:36:10Z</time>
      </trkpt>
      <trkpt lat="40.2091340" lon="-4.4442490">
        <ele>551.3</ele>
        <time>2019-08-13T11:36:11Z</time>
      </trkpt>
      <trkpt lat="40.2091630" lon="-4.4442810">
        <ele>551.6</ele>
        <time>2019-08-13T11:36:12Z</time>
      </trkpt>
      <trkpt lat="40.2091920" lon="-4.4443100">
        <ele>551.8</ele>
        <time>2019-08-13T11:36:13Z</time>
      </trkpt>
      <trkpt lat="40.2092220" lon="-4.4443400">
        <ele>552.0</ele>
        <time>2019-08-13T11:36:14Z</time>
      </trkpt>
      <trkpt lat="40.2092510" lon="-4.4443700">
        <ele>552.3</ele>
        <time>2019-08-13T11:36:15Z</time>
      </trkpt>
      <trkpt lat="40.2092790" lon="-4.4444000">
        <ele>552.5</ele>
        <time>2019-08-13T11:36:16Z</time>
      </trkpt>
      <trkpt lat="40.2093080" lon="-4.4444300">
        <ele>552.7</ele>
        <time>2019-08-13T11:36:17Z</time>
      </trkpt>
      <trkpt lat="40.2093370" lon="-4.4444590">
        <ele>552.9</ele>
        <time>2019-08-13T11:36:18Z</time>
      </trkpt>
      <trkpt lat="40.2093660" lon="-4.4444880">
        <ele>553.0</ele>
        <time>2019-08-13T11:36:19Z</time>
      </trkpt>
      <trkpt lat="40.2093960" lon="-4.4445170">
        <ele>553.2</ele>
        <time>2019-08-13T11:36:20Z</time>
      </trkpt>
      <trkpt lat="40.2094250" lon="-4.4445460">
        <ele>553.4</ele>
        <time>2019-08-13T11:36:21Z</time>
      </trkpt>
      <trkpt lat="40.2094530" lon="-4.4445760">
        <ele>553.6</ele>
        <time>2019-08-13T11:36:22Z</time>
      </trkpt>
      <trkpt lat="40.2094810" lon="-4.4446050">
        <ele>553.8</ele>
        <time>2019-08-13T11:36:23Z</time>
      </trkpt>
      <trkpt lat="40.2095100" lon="-4.4446320">
        <ele>554.0</ele>
        <time>2019-08-13T11:36:24Z</time>
      </trkpt>
      <trkpt lat="40.2095380" lon="-4.4446570">
        <ele>554.2</ele>
        <time>2019-08-13T11:36:25Z</time>
      </trkpt>
      <trkpt lat="40.2095660" lon="-4.4446810">
        <ele>554.4</ele>
        <time>2019-08-13T11:36:26Z</time>
      </trkpt>
      <trkpt lat="40.2095930" lon="-4.4447030">
        <ele>554.6</ele>
        <time>2019-08-13T11:36:27Z</time>
      </trkpt>
      <trkpt lat="40.2096190" lon="-4.4447220">
        <ele>554.8</ele>
        <time>2019-08-13T11:36:28Z</time>
      </trkpt>
      <trkpt lat="40.2096440" lon="-4.4447390">
        <ele>555.0</ele>
        <time>2019-08-13T11:36:29Z</time>
      </trkpt>
      <trkpt lat="40.2096700" lon="-4.4447540">
        <ele>555.2</ele>
        <time>2019-08-13T11:36:30Z</time>
      </trkpt>
      <trkpt lat="40.2096950" lon="-4.4447690">
        <ele>555.4</ele>
        <time>2019-08-13T11:36:31Z</time>
      </trkpt>
      <trkpt lat="40.2097200" lon="-4.4447840">
        <ele>555.6</ele>
        <time>2019-08-13T11:36:32Z</time>
      </trkpt>
      <trkpt lat="40.2097450" lon="-4.4447990">
        <ele>555.8</ele>
        <time>2019-08-13T11:36:33Z</time>
      </trkpt>
      <trkpt lat="40.2097690" lon="-4.4448150">
        <ele>556.0</ele>
        <time>2019-08-13T11:36:34Z</time>
      </trkpt>
      <trkpt lat="40.2097940" lon="-4.4448280">
        <ele>556.3</ele>
        <time>2019-08-13T11:36:35Z</time>
      </trkpt>
      <trkpt lat="40.2098200" lon="-4.4448400">
        <ele>556.5</ele>
        <time>2019-08-13T11:36:36Z</time>
      </trkpt>
      <trkpt lat="40.2098470" lon="-4.4448510">
        <ele>556.8</ele>
        <time>2019-08-13T11:36:37Z</time>
      </trkpt>
      <trkpt lat="40.2098730" lon="-4.4448620">
        <ele>557.0</ele>
        <time>2019-08-13T11:36:38Z</time>
      </trkpt>
      <trkpt lat="40.2099000" lon="-4.4448720">
        <ele>557.3</ele>
        <time>2019-08-13T11:36:39Z</time>
      </trkpt>
      <trkpt lat="40.2099270" lon="-4.4448820">
        <ele>557.6</ele>
        <time>2019-08-13T11:36:40Z</time>
      </trkpt>
      <trkpt lat="40.2099530" lon="-4.4448920">
        <ele>557.9</ele>
        <time>2019-08-13T11:36:41Z</time>
      </trkpt>
      <trkpt lat="40.2099800" lon="-4.4449000">
        <ele>558.1</ele>
        <time>2019-08-13T11:36:42Z</time>
      </trkpt>
      <trkpt lat="40.2100080" lon="-4.4449090">
        <ele>558.4</ele>
        <time>2019-08-13T11:36:43Z</time>
      </trkpt>
      <trkpt lat="40.2100360" lon="-4.4449190">
        <ele>558.7</ele>
        <time>2019-08-13T11:36:44Z</time>
      </trkpt>
      <trkpt lat="40.2100650" lon="-4.4449270">
        <ele>559.0</ele>
        <time>2019-08-13T11:36:45Z</time>
      </trkpt>
      <trkpt lat="40.2100940" lon="-4.4449320">
        <ele>559.3</ele>
        <time>2019-08-13T11:36:46Z</time>
      </trkpt>
      <trkpt lat="40.2101230" lon="-4.4449330">
        <ele>559.5</ele>
        <time>2019-08-13T11:36:47Z</time>
      </trkpt>
      <trkpt lat="40.2101500" lon="-4.4449310">
        <ele>559.8</ele>
        <time>2019-08-13T11:36:48Z</time>
      </trkpt>
      <trkpt lat="40.2102020" lon="-4.4449200">
        <ele>560.2</ele>
        <time>2019-08-13T11:36:50Z</time>
      </trkpt>
      <trkpt lat="40.2102490" lon="-4.4449010">
        <ele>560.6</ele>
        <time>2019-08-13T11:36:52Z</time>
      </trkpt>
      <trkpt lat="40.2102910" lon="-4.4448640">
        <ele>561.0</ele>
        <time>2019-08-13T11:36:54Z</time>
      </trkpt>
      <trkpt lat="40.2103310" lon="-4.4448180">
        <ele>561.3</ele>
        <time>2019-08-13T11:36:56Z</time>
      </trkpt>
      <trkpt lat="40.2103690" lon="-4.4447700">
        <ele>561.7</ele>
        <time>2019-08-13T11:36:58Z</time>
      </trkpt>
      <trkpt lat="40.2103890" lon="-4.4447460">
        <ele>561.8</ele>
        <time>2019-08-13T11:36:59Z</time>
      </trkpt>
      <trkpt lat="40.2104090" lon="-4.4447220">
        <ele>562.0</ele>
        <time>2019-08-13T11:37:00Z</time>
      </trkpt>
      <trkpt lat="40.2104310" lon="-4.4447010">
        <ele>562.1</ele>
        <time>2019-08-13T11:37:01Z</time>
      </trkpt>
      <trkpt lat="40.2104540" lon="-4.4446800">
        <ele>562.3</ele>
        <time>2019-08-13T11:37:02Z</time>
      </trkpt>
      <trkpt lat="40.2104770" lon="-4.4446590">
        <ele>562.4</ele>
        <time>2019-08-13T11:37:03Z</time>
      </trkpt>
      <trkpt lat="40.2105010" lon="-4.4446420">
        <ele>562.5</ele>
        <time>2019-08-13T11:37:04Z</time>
      </trkpt>
      <trkpt lat="40.2105270" lon="-4.4446300">
        <ele>562.7</ele>
        <time>2019-08-13T11:37:05Z</time>
      </trkpt>
      <trkpt lat="40.2105550" lon="-4.4446200">
        <ele>562.8</ele>
        <time>2019-08-13T11:37:06Z</time>
      </trkpt>
      <trkpt lat="40.2105820" lon="-4.4446140">
        <ele>563.0</ele>
        <time>2019-08-13T11:37:07Z</time>
      </trkpt>
      <trkpt lat="40.2106100" lon="-4.4446080">
        <ele>563.1</ele>
        <time>2019-08-13T11:37:08Z</time>
      </trkpt>
      <trkpt lat="40.2106370" lon="-4.4446050">
        <ele>563.2</ele>
        <time>2019-08-13T11:37:09Z</time>
      </trkpt>
      <trkpt lat="40.2106640" lon="-4.4446030">
        <ele>563.3</ele>
        <time>2019-08-13T11:37:10Z</time>
      </trkpt>
      <trkpt lat="40.2107180" lon="-4.4446040">
        <ele>563.6</ele>
        <time>2019-08-13T11:37:12Z</time>
      </trkpt>
      <trkpt lat="40.2107700" lon="-4.4446120">
        <ele>563.8</ele>
        <time>2019-08-13T11:37:14Z</time>
      </trkpt>
      <trkpt lat="40.2108230" lon="-4.4446240">
        <ele>564.0</ele>
        <time>2019-08-13T11:37:16Z</time>
      </trkpt>
      <trkpt lat="40.2108500" lon="-4.4446290">
        <ele>564.1</ele>
        <time>2019-08-13T11:37:17Z</time>
      </trkpt>
      <trkpt lat="40.2108780" lon="-4.4446350">
        <ele>564.2</ele>
        <time>2019-08-13T11:37:18Z</time>
      </trkpt>
      <trkpt lat="40.2109050" lon="-4.4446410">
        <ele>564.3</ele>
        <time>2019-08-13T11:37:19Z</time>
      </trkpt>
      <trkpt lat="40.2109320" lon="-4.4446490">
        <ele>564.4</ele>
        <time>2019-08-13T11:37:20Z</time>
      </trkpt>
      <trkpt lat="40.2109590" lon="-4.4446580">
        <ele>564.5</ele>
        <time>2019-08-13T11:37:21Z</time>
      </trkpt>
      <trkpt lat="40.2110090" lon="-4.4446810">
        <ele>564.7</ele>
        <time>2019-08-13T11:37:23Z</time>
      </trkpt>
      <trkpt lat="40.2110560" lon="-4.4447120">
        <ele>564.9</ele>
        <time>2019-08-13T11:37:25Z</time>
      </trkpt>
      <trkpt lat="40.2110990" lon="-4.4447550">
        <ele>565.1</ele>
        <time>2019-08-13T11:37:27Z</time>
      </trkpt>
      <trkpt lat="40.2111350" lon="-4.4448070">
        <ele>565.2</ele>
        <time>2019-08-13T11:37:29Z</time>
      </trkpt>
      <trkpt lat="40.2111530" lon="-4.4448340">
        <ele>565.3</ele>
        <time>2019-08-13T11:37:30Z</time>
      </trkpt>
      <trkpt lat="40.2111700" lon="-4.4448630">
        <ele>565.4</ele>
        <time>2019-08-13T11:37:31Z</time>
      </trkpt>
      <trkpt lat="40.2111860" lon="-4.4448930">
        <ele>565.5</ele>
        <time>2019-08-13T11:37:32Z</time>
      </trkpt>
      <trkpt lat="40.2112010" lon="-4.4449260">
        <ele>565.6</ele>
        <time>2019-08-13T11:37:33Z</time>
      </trkpt>
      <trkpt lat="40.2112160" lon="-4.4449590">
        <ele>565.8</ele>
        <time>2019-08-13T11:37:34Z</time>
      </trkpt>
      <trkpt lat="40.2112300" lon="-4.4449950">
        <ele>565.9</ele>
        <time>2019-08-13T11:37:35Z</time>
      </trkpt>
      <trkpt lat="40.2112430" lon="-4.4450320">
        <ele>566.0</ele>
        <time>2019-08-13T11:37:36Z</time>
      </trkpt>
      <trkpt lat="40.2112550" lon="-4.4450700">
        <ele>566.2</ele>
        <time>2019-08-13T11:37:37Z</time>
      </trkpt>
      <trkpt lat="40.2112650" lon="-4.4451100">
        <ele>566.3</ele>
        <time>2019-08-13T11:37:38Z</time>
      </trkpt>
      <trkpt lat="40.2112740" lon="-4.4451500">
        <ele>566.5</ele>
        <time>2019-08-13T11:37:39Z</time>
      </trkpt>
      <trkpt lat="40.2112800" lon="-4.4451910">
        <ele>566.6</ele>
        <time>2019-08-13T11:37:40Z</time>
      </trkpt>
      <trkpt lat="40.2112860" lon="-4.4452320">
        <ele>566.8</ele>
        <time>2019-08-13T11:37:41Z</time>
      </trkpt>
      <trkpt lat="40.2112900" lon="-4.4452730">
        <ele>566.9</ele>
        <time>2019-08-13T11:37:42Z</time>
      </trkpt>
      <trkpt lat="40.2112940" lon="-4.4453140">
        <ele>567.1</ele>
        <time>2019-08-13T11:37:43Z</time>
      </trkpt>
      <trkpt lat="40.2112970" lon="-4.4453560">
        <ele>567.2</ele>
        <time>2019-08-13T11:37:44Z</time>
      </trkpt>
      <trkpt lat="40.2112970" lon="-4.4453980">
        <ele>567.4</ele>
        <time>2019-08-13T11:37:45Z</time>
      </trkpt>
      <trkpt lat="40.2112960" lon="-4.4454390">
        <ele>567.5</ele>
        <time>2019-08-13T11:37:46Z</time>
      </trkpt>
      <trkpt lat="40.2112950" lon="-4.4454810">
        <ele>567.7</ele>
        <time>2019-08-13T11:37:47Z</time>
      </trkpt>
      <trkpt lat="40.2112920" lon="-4.4455220">
        <ele>567.8</ele>
        <time>2019-08-13T11:37:48Z</time>
      </trkpt>
      <trkpt lat="40.2112890" lon="-4.4455630">
        <ele>568.0</ele>
        <time>2019-08-13T11:37:49Z</time>
      </trkpt>
      <trkpt lat="40.2112840" lon="-4.4456050">
        <ele>568.1</ele>
        <time>2019-08-13T11:37:50Z</time>
      </trkpt>
      <trkpt lat="40.2112790" lon="-4.4456460">
        <ele>568.3</ele>
        <time>2019-08-13T11:37:51Z</time>
      </trkpt>
      <trkpt lat="40.2112740" lon="-4.4456870">
        <ele>568.4</ele>
        <time>2019-08-13T11:37:52Z</time>
      </trkpt>
      <trkpt lat="40.2112700" lon="-4.4457280">
        <ele>568.5</ele>
        <time>2019-08-13T11:37:53Z</time>
      </trkpt>
      <trkpt lat="40.2112650" lon="-4.4457680">
        <ele>568.7</ele>
        <time>2019-08-13T11:37:54Z</time>
      </trkpt>
      <trkpt lat="40.2112600" lon="-4.4458090">
        <ele>568.8</ele>
        <time>2019-08-13T11:37:55Z</time>
      </trkpt>
      <trkpt lat="40.2112570" lon="-4.4458510">
        <ele>569.0</ele>
        <time>2019-08-13T11:37:56Z</time>
      </trkpt>
      <trkpt lat="40.2112540" lon="-4.4458920">
        <ele>569.1</ele>
        <time>2019-08-13T11:37:57Z</time>
      </trkpt>
      <trkpt lat="40.2112510" lon="-4.4459340">
        <ele>569.3</ele>
        <time>2019-08-13T11:37:58Z</time>
      </trkpt>
      <trkpt lat="40.2112480" lon="-4.4459750">
        <ele>569.4</ele>
        <time>2019-08-13T11:37:59Z</time>
      </trkpt>
      <trkpt lat="40.2112460" lon="-4.4460160">
        <ele>569.6</ele>
        <time>2019-08-13T11:38:00Z</time>
      </trkpt>
      <trkpt lat="40.2112430" lon="-4.4460540">
        <ele>569.8</ele>
        <time>2019-08-13T11:38:01Z</time>
      </trkpt>
      <trkpt lat="40.2112390" lon="-4.4460900">
        <ele>569.9</ele>
        <time>2019-08-13T11:38:02Z</time>
      </trkpt>
      <trkpt lat="40.2112310" lon="-4.4461560">
        <ele>570.2</ele>
        <time>2019-08-13T11:38:04Z</time>
      </trkpt>
      <trkpt lat="40.2112310" lon="-4.4462270">
        <ele>570.5</ele>
        <time>2019-08-13T11:38:06Z</time>
      </trkpt>
      <trkpt lat="40.2112320" lon="-4.4462640">
        <ele>570.7</ele>
        <time>2019-08-13T11:38:07Z</time>
      </trkpt>
      <trkpt lat="40.2112350" lon="-4.4462990">
        <ele>570.9</ele>
        <time>2019-08-13T11:38:08Z</time>
      </trkpt>
      <trkpt lat="40.2112480" lon="-4.4463640">
        <ele>571.3</ele>
        <time>2019-08-13T11:38:10Z</time>
      </trkpt>
      <trkpt lat="40.2112670" lon="-4.4464190">
        <ele>571.7</ele>
        <time>2019-08-13T11:38:12Z</time>
      </trkpt>
      <trkpt lat="40.2112930" lon="-4.4464730">
        <ele>572.1</ele>
        <time>2019-08-13T11:38:14Z</time>
      </trkpt>
      <trkpt lat="40.2113300" lon="-4.4465220">
        <ele>572.6</ele>
        <time>2019-08-13T11:38:16Z</time>
      </trkpt>
      <trkpt lat="40.2113520" lon="-4.4465420">
        <ele>572.8</ele>
        <time>2019-08-13T11:38:17Z</time>
      </trkpt>
      <trkpt lat="40.2113770" lon="-4.4465590">
        <ele>573.1</ele>
        <time>2019-08-13T11:38:18Z</time>
      </trkpt>
      <trkpt lat="40.2114030" lon="-4.4465740">
        <ele>573.3</ele>
        <time>2019-08-13T11:38:19Z</time>
      </trkpt>
      <trkpt lat="40.2114310" lon="-4.4465850">
        <ele>573.5</ele>
        <time>2019-08-13T11:38:20Z</time>
      </trkpt>
      <trkpt lat="40.2114590" lon="-4.4465920">
        <ele>573.8</ele>
        <time>2019-08-13T11:38:21Z</time>
      </trkpt>
      <trkpt lat="40.2114870" lon="-4.4465940">
        <ele>574.0</ele>
        <time>2019-08-13T11:38:22Z</time>
      </trkpt>
      <trkpt lat="40.2115140" lon="-4.4465920">
        <ele>574.2</ele>
        <time>2019-08-13T11:38:23Z</time>
      </trkpt>
      <trkpt lat="40.2115670" lon="-4.4465820">
        <ele>574.6</ele>
        <time>2019-08-13T11:38:25Z</time>
      </trkpt>
      <trkpt lat="40.2116180" lon="-4.4465660">
        <ele>574.9</ele>
        <time>2019-08-13T11:38:27Z</time>
      </trkpt>
      <trkpt lat="40.2116690" lon="-4.4465420">
        <ele>575.3</ele>
        <time>2019-08-13T11:38:29Z</time>
      </trkpt>
      <trkpt lat="40.2116940" lon="-4.4465290">
        <ele>575.4</ele>
        <time>2019-08-13T11:38:30Z</time>
      </trkpt>
      <trkpt lat="40.2117190" lon="-4.4465160">
        <ele>575.5</ele>
        <time>2019-08-13T11:38:31Z</time>
      </trkpt>
      <trkpt lat="40.2117440" lon="-4.4465030">
        <ele>575.6</ele>
        <time>2019-08-13T11:38:32Z</time>
      </trkpt>
      <trkpt lat="40.2117700" lon="-4.4464880">
        <ele>575.7</ele>
        <time>2019-08-13T11:38:33Z</time>
      </trkpt>
      <trkpt lat="40.2117960" lon="-4.4464730">
        <ele>575.8</ele>
        <time>2019-08-13T11:38:34Z</time>
      </trkpt>
      <trkpt lat="40.2118230" lon="-4.4464570">
        <ele>576.0</ele>
        <time>2019-08-13T11:38:35Z</time>
      </trkpt>
      <trkpt lat="40.2118500" lon="-4.4464390">
        <ele>576.1</ele>
        <time>2019-08-13T11:38:36Z</time>
      </trkpt>
      <trkpt lat="40.2118780" lon="-4.4464220">
        <ele>576.2</ele>
        <time>2019-08-13T11:38:37Z</time>
      </trkpt>
      <trkpt lat="40.2119060" lon="-4.4464060">
        <ele>576.2</ele>
        <time>2019-08-13T11:38:38Z</time>
      </trkpt>
      <trkpt lat="40.2119340" lon="-4.4463920">
        <ele>576.3</ele>
        <time>2019-08-13T11:38:39Z</time>
      </trkpt>
      <trkpt lat="40.2119620" lon="-4.4463770">
        <ele>576.4</ele>
        <time>2019-08-13T11:38:40Z</time>
      </trkpt>
      <trkpt lat="40.2119890" lon="-4.4463620">
        <ele>576.5</ele>
        <time>2019-08-13T11:38:41Z</time>
      </trkpt>
      <trkpt lat="40.2120170" lon="-4.4463470">
        <ele>576.6</ele>
        <time>2019-08-13T11:38:42Z</time>
      </trkpt>
      <trkpt lat="40.2120450" lon="-4.4463340">
        <ele>576.7</ele>
        <time>2019-08-13T11:38:43Z</time>
      </trkpt>
      <trkpt lat="40.2120720" lon="-4.4463200">
        <ele>576.7</ele>
        <time>2019-08-13T11:38:44Z</time>
      </trkpt>
      <trkpt lat="40.2120990" lon="-4.4463060">
        <ele>576.8</ele>
        <time>2019-08-13T11:38:45Z</time>
      </trkpt>
      <trkpt lat="40.2121260" lon="-4.4462920">
        <ele>576.9</ele>
        <time>2019-08-13T11:38:46Z</time>
      </trkpt>
      <trkpt lat="40.2121530" lon="-4.4462770">
        <ele>577.0</ele>
        <time>2019-08-13T11:38:47Z</time>
      </trkpt>
      <trkpt lat="40.2121800" lon="-4.4462630">
        <ele>577.0</ele>
        <time>2019-08-13T11:38:48Z</time>
      </trkpt>
      <trkpt lat="40.2122070" lon="-4.4462490">
        <ele>577.1</ele>
        <time>2019-08-13T11:38:49Z</time>
      </trkpt>
      <trkpt lat="40.2122350" lon="-4.4462350">
        <ele>577.2</ele>
        <time>2019-08-13T11:38:50Z</time>
      </trkpt>
      <trkpt lat="40.2122640" lon="-4.4462200">
        <ele>577.2</ele>
        <time>2019-08-13T11:38:51Z</time>
      </trkpt>
      <trkpt lat="40.2122920" lon="-4.4462050">
        <ele>577.3</ele>
        <time>2019-08-13T11:38:52Z</time>
      </trkpt>
      <trkpt lat="40.2123210" lon="-4.4461900">
        <ele>577.4</ele>
        <time>2019-08-13T11:38:53Z</time>
      </trkpt>
      <trkpt lat="40.2123490" lon="-4.4461750">
        <ele>577.5</ele>
        <time>2019-08-13T11:38:54Z</time>
      </trkpt>
      <trkpt lat="40.2123770" lon="-4.4461610">
        <ele>577.5</ele>
        <time>2019-08-13T11:38:55Z</time>
      </trkpt>
      <trkpt lat="40.2124050" lon="-4.4461480">
        <ele>577.6</ele>
        <time>2019-08-13T11:38:56Z</time>
      </trkpt>
      <trkpt lat="40.2124330" lon="-4.4461330">
        <ele>577.7</ele>
        <time>2019-08-13T11:38:57Z</time>
      </trkpt>
      <trkpt lat="40.2124610" lon="-4.4461190">
        <ele>577.8</ele>
        <time>2019-08-13T11:38:58Z</time>
      </trkpt>
      <trkpt lat="40.2124890" lon="-4.4461040">
        <ele>577.9</ele>
        <time>2019-08-13T11:38:59Z</time>
      </trkpt>
      <trkpt lat="40.2125170" lon="-4.4460890">
        <ele>578.0</ele>
        <time>2019-08-13T11:39:00Z</time>
      </trkpt>
      <trkpt lat="40.2125450" lon="-4.4460750">
        <ele>578.1</ele>
        <time>2019-08-13T11:39:01Z</time>
      </trkpt>
      <trkpt lat="40.2125720" lon="-4.4460610">
        <ele>578.2</ele>
        <time>2019-08-13T11:39:02Z</time>
      </trkpt>
      <trkpt lat="40.2125990" lon="-4.4460480">
        <ele>578.3</ele>
        <time>2019-08-13T11:39:03Z</time>
      </trkpt>
      <trkpt lat="40.2126250" lon="-4.4460340">
        <ele>578.4</ele>
        <time>2019-08-13T11:39:04Z</time>
      </trkpt>
      <trkpt lat="40.2126510" lon="-4.4460210">
        <ele>578.5</ele>
        <time>2019-08-13T11:39:05Z</time>
      </trkpt>
      <trkpt lat="40.2126770" lon="-4.4460090">
        <ele>578.6</ele>
        <time>2019-08-13T11:39:06Z</time>
      </trkpt>
      <trkpt lat="40.2127040" lon="-4.4459960">
        <ele>578.7</ele>
        <time>2019-08-13T11:39:07Z</time>
      </trkpt>
      <trkpt lat="40.2127300" lon="-4.4459830">
        <ele>578.9</ele>
        <time>2019-08-13T11:39:08Z</time>
      </trkpt>
      <trkpt lat="40.2127560" lon="-4.4459700">
        <ele>579.0</ele>
        <time>2019-08-13T11:39:09Z</time>
      </trkpt>
      <trkpt lat="40.2127830" lon="-4.4459570">
        <ele>579.1</ele>
        <time>2019-08-13T11:39:10Z</time>
      </trkpt>
      <trkpt lat="40.2128090" lon="-4.4459430">
        <ele>579.2</ele>
        <time>2019-08-13T11:39:11Z</time>
      </trkpt>
      <trkpt lat="40.2128350" lon="-4.4459280">
        <ele>579.3</ele>
        <time>2019-08-13T11:39:12Z</time>
      </trkpt>
      <trkpt lat="40.2128620" lon="-4.4459140">
        <ele>579.5</ele>
        <time>2019-08-13T11:39:13Z</time>
      </trkpt>
      <trkpt lat="40.2128890" lon="-4.4458990">
        <ele>579.6</ele>
        <time>2019-08-13T11:39:14Z</time>
      </trkpt>
      <trkpt lat="40.2129170" lon="-4.4458840">
        <ele>579.8</ele>
        <time>2019-08-13T11:39:15Z</time>
      </trkpt>
      <trkpt lat="40.2129450" lon="-4.4458700">
        <ele>579.9</ele>
        <time>2019-08-13T11:39:16Z</time>
      </trkpt>
      <trkpt lat="40.2129730" lon="-4.4458550">
        <ele>580.0</ele>
        <time>2019-08-13T11:39:17Z</time>
      </trkpt>
      <trkpt lat="40.2130010" lon="-4.4458420">
        <ele>580.2</ele>
        <time>2019-08-13T11:39:18Z</time>
      </trkpt>
      <trkpt lat="40.2130280" lon="-4.4458280">
        <ele>580.3</ele>
        <time>2019-08-13T11:39:19Z</time>
      </trkpt>
      <trkpt lat="40.2130560" lon="-4.4458140">
        <ele>580.4</ele>
        <time>2019-08-13T11:39:20Z</time>
      </trkpt>
      <trkpt lat="40.2130830" lon="-4.4458000">
        <ele>580.6</ele>
        <time>2019-08-13T11:39:21Z</time>
      </trkpt>
      <trkpt lat="40.2131110" lon="-4.4457860">
        <ele>580.7</ele>
        <time>2019-08-13T11:39:22Z</time>
      </trkpt>
      <trkpt lat="40.2131390" lon="-4.4457730">
        <ele>580.8</ele>
        <time>2019-08-13T11:39:23Z</time>
      </trkpt>
      <trkpt lat="40.2131680" lon="-4.4457600">
        <ele>580.9</ele>
        <time>2019-08-13T11:39:24Z</time>
      </trkpt>
      <trkpt lat="40.2131960" lon="-4.4457450">
        <ele>581.0</ele>
        <time>2019-08-13T11:39:25Z</time>
      </trkpt>
      <trkpt lat="40.2132240" lon="-4.4457310">
        <ele>581.1</ele>
        <time>2019-08-13T11:39:26Z</time>
      </trkpt>
      <trkpt lat="40.2132510" lon="-4.4457180">
        <ele>581.2</ele>
        <time>2019-08-13T11:39:27Z</time>
      </trkpt>
      <trkpt lat="40.2132790" lon="-4.4457040">
        <ele>581.3</ele>
        <time>2019-08-13T11:39:28Z</time>
      </trkpt>
      <trkpt lat="40.2133070" lon="-4.4456880">
        <ele>581.4</ele>
        <time>2019-08-13T11:39:29Z</time>
      </trkpt>
      <trkpt lat="40.2133350" lon="-4.4456730">
        <ele>581.5</ele>
        <time>2019-08-13T11:39:30Z</time>
      </trkpt>
      <trkpt lat="40.2133640" lon="-4.4456590">
        <ele>581.6</ele>
        <time>2019-08-13T11:39:31Z</time>
      </trkpt>
      <trkpt lat="40.2133930" lon="-4.4456450">
        <ele>581.7</ele>
        <time>2019-08-13T11:39:32Z</time>
      </trkpt>
      <trkpt lat="40.2134220" lon="-4.4456310">
        <ele>581.8</ele>
        <time>2019-08-13T11:39:33Z</time>
      </trkpt>
      <trkpt lat="40.2134510" lon="-4.4456160">
        <ele>581.9</ele>
        <time>2019-08-13T11:39:34Z</time>
      </trkpt>
      <trkpt lat="40.2134800" lon="-4.4456010">
        <ele>582.0</ele>
        <time>2019-08-13T11:39:35Z</time>
      </trkpt>
      <trkpt lat="40.2135090" lon="-4.4455870">
        <ele>582.0</ele>
        <time>2019-08-13T11:39:36Z</time>
      </trkpt>
      <trkpt lat="40.2135370" lon="-4.4455740">
        <ele>582.1</ele>
        <time>2019-08-13T11:39:37Z</time>
      </trkpt>
      <trkpt lat="40.2135650" lon="-4.4455600">
        <ele>582.2</ele>
        <time>2019-08-13T11:39:38Z</time>
      </trkpt>
      <trkpt lat="40.2135930" lon="-4.4455440">
        <ele>582.3</ele>
        <time>2019-08-13T11:39:39Z</time>
      </trkpt>
      <trkpt lat="40.2136210" lon="-4.4455290">
        <ele>582.4</ele>
        <time>2019-08-13T11:39:40Z</time>
      </trkpt>
      <trkpt lat="40.2136490" lon="-4.4455140">
        <ele>582.5</ele>
        <time>2019-08-13T11:39:41Z</time>
      </trkpt>
      <trkpt lat="40.2136760" lon="-4.4454990">
        <ele>582.6</ele>
        <time>2019-08-13T11:39:42Z</time>
      </trkpt>
      <trkpt lat="40.2137040" lon="-4.4454850">
        <ele>582.6</ele>
        <time>2019-08-13T11:39:43Z</time>
      </trkpt>
      <trkpt lat="40.2137310" lon="-4.4454710">
        <ele>582.7</ele>
        <time>2019-08-13T11:39:44Z</time>
      </trkpt>
      <trkpt lat="40.2137590" lon="-4.4454560">
        <ele>582.8</ele>
        <time>2019-08-13T11:39:45Z</time>
      </trkpt>
      <trkpt lat="40.2137860" lon="-4.4454410">
        <ele>582.9</ele>
        <time>2019-08-13T11:39:46Z</time>
      </trkpt>
      <trkpt lat="40.2138140" lon="-4.4454260">
        <ele>583.0</ele>
        <time>2019-08-13T11:39:47Z</time>
      </trkpt>
      <trkpt lat="40.2138420" lon="-4.4454120">
        <ele>583.1</ele>
        <time>2019-08-13T11:39:48Z</time>
      </trkpt>
      <trkpt lat="40.2138700" lon="-4.4453970">
        <ele>583.1</ele>
        <time>2019-08-13T11:39:49Z</time>
      </trkpt>
      <trkpt lat="40.2138970" lon="-4.4453820">
        <ele>583.2</ele>
        <time>2019-08-13T11:39:50Z</time>
      </trkpt>
      <trkpt lat="40.2139250" lon="-4.4453670">
        <ele>583.4</ele>
        <time>2019-08-13T11:39:51Z</time>
      </trkpt>
      <trkpt lat="40.2139520" lon="-4.4453530">
        <ele>583.5</ele>
        <time>2019-08-13T11:39:52Z</time>
      </trkpt>
      <trkpt lat="40.2139790" lon="-4.4453380">
        <ele>583.6</ele>
        <time>2019-08-13T11:39:53Z</time>
      </trkpt>
      <trkpt lat="40.2140060" lon="-4.4453230">
        <ele>583.8</ele>
        <time>2019-08-13T11:39:54Z</time>
      </trkpt>
      <trkpt lat="40.2140330" lon="-4.4453100">
        <ele>584.0</ele>
        <time>2019-08-13T11:39:55Z</time>
      </trkpt>
      <trkpt lat="40.2140590" lon="-4.4452990">
        <ele>584.2</ele>
        <time>2019-08-13T11:39:56Z</time>
      </trkpt>
      <trkpt lat="40.2140860" lon="-4.4452860">
        <ele>584.3</ele>
        <time>2019-08-13T11:39:57Z</time>
      </trkpt>
      <trkpt lat="40.2141130" lon="-4.4452710">
        <ele>584.5</ele>
        <time>2019-08-13T11:39:58Z</time>
      </trkpt>
      <trkpt lat="40.2141400" lon="-4.4452560">
        <ele>584.7</ele>
        <time>2019-08-13T11:39:59Z</time>
      </trkpt>
      <trkpt lat="40.2141660" lon="-4.4452410">
        <ele>584.9</ele>
        <time>2019-08-13T11:40:00Z</time>
      </trkpt>
      <trkpt lat="40.2141930" lon="-4.4452280">
        <ele>585.0</ele>
        <time>2019-08-13T11:40:01Z</time>
      </trkpt>
      <trkpt lat="40.2142200" lon="-4.4452150">
        <ele>585.2</ele>
        <time>2019-08-13T11:40:02Z</time>
      </trkpt>
      <trkpt lat="40.2142460" lon="-4.4452020">
        <ele>585.4</ele>
        <time>2019-08-13T11:40:03Z</time>
      </trkpt>
      <trkpt lat="40.2142720" lon="-4.4451880">
        <ele>585.5</ele>
        <time>2019-08-13T11:40:04Z</time>
      </trkpt>
      <trkpt lat="40.2142990" lon="-4.4451750">
        <ele>585.7</ele>
        <time>2019-08-13T11:40:05Z</time>
      </trkpt>
      <trkpt lat="40.2143260" lon="-4.4451620">
        <ele>585.9</ele>
        <time>2019-08-13T11:40:06Z</time>
      </trkpt>
      <trkpt lat="40.2143530" lon="-4.4451490">
        <ele>586.1</ele>
        <time>2019-08-13T11:40:07Z</time>
      </trkpt>
      <trkpt lat="40.2143800" lon="-4.4451370">
        <ele>586.3</ele>
        <time>2019-08-13T11:40:08Z</time>
      </trkpt>
      <trkpt lat="40.2144080" lon="-4.4451240">
        <ele>586.4</ele>
        <time>2019-08-13T11:40:09Z</time>
      </trkpt>
      <trkpt lat="40.2144350" lon="-4.4451100">
        <ele>586.5</ele>
        <time>2019-08-13T11:40:10Z</time>
      </trkpt>
      <trkpt lat="40.2144620" lon="-4.4450960">
        <ele>586.6</ele>
        <time>2019-08-13T11:40:11Z</time>
      </trkpt>
      <trkpt lat="40.2144900" lon="-4.4450820">
        <ele>586.8</ele>
        <time>2019-08-13T11:40:12Z</time>
      </trkpt>
      <trkpt lat="40.2145170" lon="-4.4450670">
        <ele>586.9</ele>
        <time>2019-08-13T11:40:13Z</time>
      </trkpt>
      <trkpt lat="40.2145450" lon="-4.4450520">
        <ele>587.1</ele>
        <time>2019-08-13T11:40:14Z</time>
      </trkpt>
      <trkpt lat="40.2145740" lon="-4.4450370">
        <ele>587.2</ele>
        <time>2019-08-13T11:40:15Z</time>
      </trkpt>
      <trkpt lat="40.2146030" lon="-4.4450230">
        <ele>587.3</ele>
        <time>2019-08-13T11:40:16Z</time>
      </trkpt>
      <trkpt lat="40.2146310" lon="-4.4450080">
        <ele>587.4</ele>
        <time>2019-08-13T11:40:17Z</time>
      </trkpt>
      <trkpt lat="40.2146820" lon="-4.4449820">
        <ele>587.6</ele>
        <time>2019-08-13T11:40:19Z</time>
      </trkpt>
      <trkpt lat="40.2147090" lon="-4.4449690">
        <ele>587.8</ele>
        <time>2019-08-13T11:40:20Z</time>
      </trkpt>
      <trkpt lat="40.2147360" lon="-4.4449560">
        <ele>587.9</ele>
        <time>2019-08-13T11:40:21Z</time>
      </trkpt>
      <trkpt lat="40.2147640" lon="-4.4449430">
        <ele>588.0</ele>
        <time>2019-08-13T11:40:22Z</time>
      </trkpt>
      <trkpt lat="40.2147900" lon="-4.4449290">
        <ele>588.1</ele>
        <time>2019-08-13T11:40:23Z</time>
      </trkpt>
      <trkpt lat="40.2148160" lon="-4.4449140">
        <ele>588.2</ele>
        <time>2019-08-13T11:40:24Z</time>
      </trkpt>
      <trkpt lat="40.2148440" lon="-4.4448980">
        <ele>588.3</ele>
        <time>2019-08-13T11:40:25Z</time>
      </trkpt>
      <trkpt lat="40.2148710" lon="-4.4448830">
        <ele>588.4</ele>
        <time>2019-08-13T11:40:26Z</time>
      </trkpt>
      <trkpt lat="40.2149000" lon="-4.4448690">
        <ele>588.5</ele>
        <time>2019-08-13T11:40:27Z</time>
      </trkpt>
      <trkpt lat="40.2149280" lon="-4.4448560">
        <ele>588.7</ele>
        <time>2019-08-13T11:40:28Z</time>
      </trkpt>
      <trkpt lat="40.2149560" lon="-4.4448420">
        <ele>588.8</ele>
        <time>2019-08-13T11:40:29Z</time>
      </trkpt>
      <trkpt lat="40.2149850" lon="-4.4448280">
        <ele>588.9</ele>
        <time>2019-08-13T11:40:30Z</time>
      </trkpt>
      <trkpt lat="40.2150130" lon="-4.4448140">
        <ele>589.0</ele>
        <time>2019-08-13T11:40:31Z</time>
      </trkpt>
      <trkpt lat="40.2150410" lon="-4.4448020">
        <ele>589.0</ele>
        <time>2019-08-13T11:40:32Z</time>
      </trkpt>
      <trkpt lat="40.2150690" lon="-4.4447900">
        <ele>589.1</ele>
        <time>2019-08-13T11:40:33Z</time>
      </trkpt>
      <trkpt lat="40.2150960" lon="-4.4447780">
        <ele>589.2</ele>
        <time>2019-08-13T11:40:34Z</time>
      </trkpt>
      <trkpt lat="40.2151240" lon="-4.4447660">
        <ele>589.2</ele>
        <time>2019-08-13T11:40:35Z</time>
      </trkpt>
      <trkpt lat="40.2151520" lon="-4.4447560">
        <ele>589.3</ele>
        <time>2019-08-13T11:40:36Z</time>
      </trkpt>
      <trkpt lat="40.2151790" lon="-4.4447460">
        <ele>589.4</ele>
        <time>2019-08-13T11:40:37Z</time>
      </trkpt>
      <trkpt lat="40.2152070" lon="-4.4447370">
        <ele>589.4</ele>
        <time>2019-08-13T11:40:38Z</time>
      </trkpt>
      <trkpt lat="40.2152350" lon="-4.4447280">
        <ele>589.5</ele>
        <time>2019-08-13T11:40:39Z</time>
      </trkpt>
      <trkpt lat="40.2152630" lon="-4.4447210">
        <ele>589.6</ele>
        <time>2019-08-13T11:40:40Z</time>
      </trkpt>
      <trkpt lat="40.2152930" lon="-4.4447160">
        <ele>589.7</ele>
        <time>2019-08-13T11:40:41Z</time>
      </trkpt>
      <trkpt lat="40.2153220" lon="-4.4447100">
        <ele>589.8</ele>
        <time>2019-08-13T11:40:42Z</time>
      </trkpt>
      <trkpt lat="40.2153520" lon="-4.4447050">
        <ele>589.9</ele>
        <time>2019-08-13T11:40:43Z</time>
      </trkpt>
      <trkpt lat="40.2153820" lon="-4.4447020">
        <ele>590.0</ele>
        <time>2019-08-13T11:40:44Z</time>
      </trkpt>
      <trkpt lat="40.2154120" lon="-4.4447000">
        <ele>590.1</ele>
        <time>2019-08-13T11:40:45Z</time>
      </trkpt>
      <trkpt lat="40.2154410" lon="-4.4446980">
        <ele>590.3</ele>
        <time>2019-08-13T11:40:46Z</time>
      </trkpt>
      <trkpt lat="40.2154710" lon="-4.4446960">
        <ele>590.4</ele>
        <time>2019-08-13T11:40:47Z</time>
      </trkpt>
      <trkpt lat="40.2155000" lon="-4.4446950">
        <ele>590.6</ele>
        <time>2019-08-13T11:40:48Z</time>
      </trkpt>
      <trkpt lat="40.2155280" lon="-4.4446960">
        <ele>590.7</ele>
        <time>2019-08-13T11:40:49Z</time>
      </trkpt>
      <trkpt lat="40.2155550" lon="-4.4446970">
        <ele>590.8</ele>
        <time>2019-08-13T11:40:50Z</time>
      </trkpt>
      <trkpt lat="40.2156100" lon="-4.4447060">
        <ele>591.2</ele>
        <time>2019-08-13T11:40:52Z</time>
      </trkpt>
      <trkpt lat="40.2156380" lon="-4.4447080">
        <ele>591.3</ele>
        <time>2019-08-13T11:40:53Z</time>
      </trkpt>
      <trkpt lat="40.2156830" lon="-4.4447130">
        <ele>591.5</ele>
        <time>2019-08-13T11:40:55Z</time>
      </trkpt>
      <trkpt lat="40.2157320" lon="-4.4447270">
        <ele>591.8</ele>
        <time>2019-08-13T11:40:57Z</time>
      </trkpt>
      <trkpt lat="40.2157610" lon="-4.4447340">
        <ele>591.9</ele>
        <time>2019-08-13T11:40:58Z</time>
      </trkpt>
      <trkpt lat="40.2157910" lon="-4.4447400">
        <ele>592.1</ele>
        <time>2019-08-13T11:40:59Z</time>
      </trkpt>
      <trkpt lat="40.2158220" lon="-4.4447470">
        <ele>592.2</ele>
        <time>2019-08-13T11:41:00Z</time>
      </trkpt>
      <trkpt lat="40.2158520" lon="-4.4447540">
        <ele>592.4</ele>
        <time>2019-08-13T11:41:01Z</time>
      </trkpt>
      <trkpt lat="40.2158830" lon="-4.4447620">
        <ele>592.5</ele>
        <time>2019-08-13T11:41:02Z</time>
      </trkpt>
      <trkpt lat="40.2159130" lon="-4.4447700">
        <ele>592.7</ele>
        <time>2019-08-13T11:41:03Z</time>
      </trkpt>
      <trkpt lat="40.2159440" lon="-4.4447790">
        <ele>592.8</ele>
        <time>2019-08-13T11:41:04Z</time>
      </trkpt>
      <trkpt lat="40.2159750" lon="-4.4447880">
        <ele>593.0</ele>
        <time>2019-08-13T11:41:05Z</time>
      </trkpt>
      <trkpt lat="40.2160050" lon="-4.4447970">
        <ele>593.1</ele>
        <time>2019-08-13T11:41:06Z</time>
      </trkpt>
      <trkpt lat="40.2160350" lon="-4.4448060">
        <ele>593.3</ele>
        <time>2019-08-13T11:41:07Z</time>
      </trkpt>
      <trkpt lat="40.2160640" lon="-4.4448140">
        <ele>593.4</ele>
        <time>2019-08-13T11:41:08Z</time>
      </trkpt>
      <trkpt lat="40.2160940" lon="-4.4448230">
        <ele>593.5</ele>
        <time>2019-08-13T11:41:09Z</time>
      </trkpt>
      <trkpt lat="40.2161230" lon="-4.4448330">
        <ele>593.7</ele>
        <time>2019-08-13T11:41:10Z</time>
      </trkpt>
      <trkpt lat="40.2161520" lon="-4.4448420">
        <ele>593.8</ele>
        <time>2019-08-13T11:41:11Z</time>
      </trkpt>
      <trkpt lat="40.2161810" lon="-4.4448500">
        <ele>594.0</ele>
        <time>2019-08-13T11:41:12Z</time>
      </trkpt>
      <trkpt lat="40.2162090" lon="-4.4448570">
        <ele>594.1</ele>
        <time>2019-08-13T11:41:13Z</time>
      </trkpt>
      <trkpt lat="40.2162380" lon="-4.4448660">
        <ele>594.3</ele>
        <time>2019-08-13T11:41:14Z</time>
      </trkpt>
      <trkpt lat="40.2162660" lon="-4.4448750">
        <ele>594.4</ele>
        <time>2019-08-13T11:41:15Z</time>
      </trkpt>
      <trkpt lat="40.2162950" lon="-4.4448840">
        <ele>594.5</ele>
        <time>2019-08-13T11:41:16Z</time>
      </trkpt>
      <trkpt lat="40.2163230" lon="-4.4448930">
        <ele>594.7</ele>
        <time>2019-08-13T11:41:17Z</time>
      </trkpt>
      <trkpt lat="40.2163520" lon="-4.4449030">
        <ele>594.8</ele>
        <time>2019-08-13T11:41:18Z</time>
      </trkpt>
      <trkpt lat="40.2163810" lon="-4.4449130">
        <ele>595.0</ele>
        <time>2019-08-13T11:41:19Z</time>
      </trkpt>
      <trkpt lat="40.2164110" lon="-4.4449220">
        <ele>595.1</ele>
        <time>2019-08-13T11:41:20Z</time>
      </trkpt>
      <trkpt lat="40.2164410" lon="-4.4449310">
        <ele>595.3</ele>
        <time>2019-08-13T11:41:21Z</time>
      </trkpt>
      <trkpt lat="40.2164720" lon="-4.4449390">
        <ele>595.4</ele>
        <time>2019-08-13T11:41:22Z</time>
      </trkpt>
      <trkpt lat="40.2165030" lon="-4.4449480">
        <ele>595.5</ele>
        <time>2019-08-13T11:41:23Z</time>
      </trkpt>
      <trkpt lat="40.2165360" lon="-4.4449570">
        <ele>595.7</ele>
        <time>2019-08-13T11:41:24Z</time>
      </trkpt>
      <trkpt lat="40.2165680" lon="-4.4449660">
        <ele>595.9</ele>
        <time>2019-08-13T11:41:25Z</time>
      </trkpt>
      <trkpt lat="40.2166010" lon="-4.4449760">
        <ele>596.0</ele>
        <time>2019-08-13T11:41:26Z</time>
      </trkpt>
      <trkpt lat="40.2166330" lon="-4.4449850">
        <ele>596.2</ele>
        <time>2019-08-13T11:41:27Z</time>
      </trkpt>
      <trkpt lat="40.2166650" lon="-4.4449950">
        <ele>596.3</ele>
        <time>2019-08-13T11:41:28Z</time>
      </trkpt>
      <trkpt lat="40.2166970" lon="-4.4450040">
        <ele>596.5</ele>
        <time>2019-08-13T11:41:29Z</time>
      </trkpt>
      <trkpt lat="40.2167290" lon="-4.4450140">
        <ele>596.6</ele>
        <time>2019-08-13T11:41:30Z</time>
      </trkpt>
      <trkpt lat="40.2167590" lon="-4.4450240">
        <ele>596.8</ele>
        <time>2019-08-13T11:41:31Z</time>
      </trkpt>
      <trkpt lat="40.2167890" lon="-4.4450340">
        <ele>597.0</ele>
        <time>2019-08-13T11:41:32Z</time>
      </trkpt>
      <trkpt lat="40.2168180" lon="-4.4450430">
        <ele>597.2</ele>
        <time>2019-08-13T11:41:33Z</time>
      </trkpt>
      <trkpt lat="40.2168480" lon="-4.4450510">
        <ele>597.3</ele>
        <time>2019-08-13T11:41:34Z</time>
      </trkpt>
      <trkpt lat="40.2168780" lon="-4.4450590">
        <ele>597.5</ele>
        <time>2019-08-13T11:41:35Z</time>
      </trkpt>
      <trkpt lat="40.2169080" lon="-4.4450670">
        <ele>597.6</ele>
        <time>2019-08-13T11:41:36Z</time>
      </trkpt>
      <trkpt lat="40.2169370" lon="-4.4450760">
        <ele>597.8</ele>
        <time>2019-08-13T11:41:37Z</time>
      </trkpt>
      <trkpt lat="40.2169660" lon="-4.4450870">
        <ele>597.9</ele>
        <time>2019-08-13T11:41:38Z</time>
      </trkpt>
      <trkpt lat="40.2169950" lon="-4.4450960">
        <ele>598.0</ele>
        <time>2019-08-13T11:41:39Z</time>
      </trkpt>
      <trkpt lat="40.2170250" lon="-4.4451040">
        <ele>598.2</ele>
        <time>2019-08-13T11:41:40Z</time>
      </trkpt>
      <trkpt lat="40.2170550" lon="-4.4451110">
        <ele>598.3</ele>
        <time>2019-08-13T11:41:41Z</time>
      </trkpt>
      <trkpt lat="40.2170860" lon="-4.4451200">
        <ele>598.5</ele>
        <time>2019-08-13T11:41:42Z</time>
      </trkpt>
      <trkpt lat="40.2171160" lon="-4.4451300">
        <ele>598.7</ele>
        <time>2019-08-13T11:41:43Z</time>
      </trkpt>
      <trkpt lat="40.2171460" lon="-4.4451400">
        <ele>598.9</ele>
        <time>2019-08-13T11:41:44Z</time>
      </trkpt>
      <trkpt lat="40.2171750" lon="-4.4451510">
        <ele>599.1</ele>
        <time>2019-08-13T11:41:45Z</time>
      </trkpt>
      <trkpt lat="40.2172040" lon="-4.4451600">
        <ele>599.2</ele>
        <time>2019-08-13T11:41:46Z</time>
      </trkpt>
      <trkpt lat="40.2172320" lon="-4.4451700">
        <ele>599.4</ele>
        <time>2019-08-13T11:41:47Z</time>
      </trkpt>
      <trkpt lat="40.2172610" lon="-4.4451790">
        <ele>599.6</ele>
        <time>2019-08-13T11:41:48Z</time>
      </trkpt>
      <trkpt lat="40.2172900" lon="-4.4451870">
        <ele>599.8</ele>
        <time>2019-08-13T11:41:49Z</time>
      </trkpt>
      <trkpt lat="40.2173200" lon="-4.4451960">
        <ele>600.0</ele>
        <time>2019-08-13T11:41:50Z</time>
      </trkpt>
      <trkpt lat="40.2173500" lon="-4.4452050">
        <ele>600.3</ele>
        <time>2019-08-13T11:41:51Z</time>
      </trkpt>
      <trkpt lat="40.2173790" lon="-4.4452140">
        <ele>600.4</ele>
        <time>2019-08-13T11:41:52Z</time>
      </trkpt>
      <trkpt lat="40.2174090" lon="-4.4452230">
        <ele>600.6</ele>
        <time>2019-08-13T11:41:53Z</time>
      </trkpt>
      <trkpt lat="40.2174390" lon="-4.4452320">
        <ele>600.8</ele>
        <time>2019-08-13T11:41:54Z</time>
      </trkpt>
      <trkpt lat="40.2174690" lon="-4.4452390">
        <ele>600.9</ele>
        <time>2019-08-13T11:41:55Z</time>
      </trkpt>
      <trkpt lat="40.2175000" lon="-4.4452480">
        <ele>601.1</ele>
        <time>2019-08-13T11:41:56Z</time>
      </trkpt>
      <trkpt lat="40.2175300" lon="-4.4452580">
        <ele>601.2</ele>
        <time>2019-08-13T11:41:57Z</time>
      </trkpt>
      <trkpt lat="40.2175590" lon="-4.4452680">
        <ele>601.4</ele>
        <time>2019-08-13T11:41:58Z</time>
      </trkpt>
      <trkpt lat="40.2175890" lon="-4.4452770">
        <ele>601.5</ele>
        <time>2019-08-13T11:41:59Z</time>
      </trkpt>
      <trkpt lat="40.2176190" lon="-4.4452860">
        <ele>601.6</ele>
        <time>2019-08-13T11:42:00Z</time>
      </trkpt>
      <trkpt lat="40.2176490" lon="-4.4452940">
        <ele>601.8</ele>
        <time>2019-08-13T11:42:01Z</time>
      </trkpt>
      <trkpt lat="40.2176790" lon="-4.4453040">
        <ele>601.9</ele>
        <time>2019-08-13T11:42:02Z</time>
      </trkpt>
      <trkpt lat="40.2177090" lon="-4.4453140">
        <ele>602.0</ele>
        <time>2019-08-13T11:42:03Z</time>
      </trkpt>
      <trkpt lat="40.2177390" lon="-4.4453230">
        <ele>602.1</ele>
        <time>2019-08-13T11:42:04Z</time>
      </trkpt>
      <trkpt lat="40.2177690" lon="-4.4453320">
        <ele>602.2</ele>
        <time>2019-08-13T11:42:05Z</time>
      </trkpt>
      <trkpt lat="40.2178000" lon="-4.4453410">
        <ele>602.3</ele>
        <time>2019-08-13T11:42:06Z</time>
      </trkpt>
      <trkpt lat="40.2178290" lon="-4.4453500">
        <ele>602.4</ele>
        <time>2019-08-13T11:42:07Z</time>
      </trkpt>
      <trkpt lat="40.2178570" lon="-4.4453600">
        <ele>602.5</ele>
        <time>2019-08-13T11:42:08Z</time>
      </trkpt>
      <trkpt lat="40.2178860" lon="-4.4453710">
        <ele>602.6</ele>
        <time>2019-08-13T11:42:09Z</time>
      </trkpt>
      <trkpt lat="40.2179140" lon="-4.4453810">
        <ele>602.8</ele>
        <time>2019-08-13T11:42:10Z</time>
      </trkpt>
      <trkpt lat="40.2179440" lon="-4.4453900">
        <ele>602.9</ele>
        <time>2019-08-13T11:42:11Z</time>
      </trkpt>
      <trkpt lat="40.2179730" lon="-4.4453990">
        <ele>603.1</ele>
        <time>2019-08-13T11:42:12Z</time>
      </trkpt>
      <trkpt lat="40.2180030" lon="-4.4454080">
        <ele>603.2</ele>
        <time>2019-08-13T11:42:13Z</time>
      </trkpt>
      <trkpt lat="40.2180320" lon="-4.4454180">
        <ele>603.4</ele>
        <time>2019-08-13T11:42:14Z</time>
      </trkpt>
      <trkpt lat="40.2180620" lon="-4.4454280">
        <ele>603.5</ele>
        <time>2019-08-13T11:42:15Z</time>
      </trkpt>
      <trkpt lat="40.2180920" lon="-4.4454360">
        <ele>603.7</ele>
        <time>2019-08-13T11:42:16Z</time>
      </trkpt>
      <trkpt lat="40.2181240" lon="-4.4454440">
        <ele>603.9</ele>
        <time>2019-08-13T11:42:17Z</time>
      </trkpt>
      <trkpt lat="40.2181560" lon="-4.4454520">
        <ele>604.1</ele>
        <time>2019-08-13T11:42:18Z</time>
      </trkpt>
      <trkpt lat="40.2181870" lon="-4.4454630">
        <ele>604.3</ele>
        <time>2019-08-13T11:42:19Z</time>
      </trkpt>
      <trkpt lat="40.2182160" lon="-4.4454710">
        <ele>604.5</ele>
        <time>2019-08-13T11:42:20Z</time>
      </trkpt>
      <trkpt lat="40.2182460" lon="-4.4454790">
        <ele>604.6</ele>
        <time>2019-08-13T11:42:21Z</time>
      </trkpt>
      <trkpt lat="40.2182780" lon="-4.4454890">
        <ele>604.7</ele>
        <time>2019-08-13T11:42:22Z</time>
      </trkpt>
      <trkpt lat="40.2183090" lon="-4.4454990">
        <ele>604.9</ele>
        <time>2019-08-13T11:42:23Z</time>
      </trkpt>
      <trkpt lat="40.2183410" lon="-4.4455100">
        <ele>605.0</ele>
        <time>2019-08-13T11:42:24Z</time>
      </trkpt>
      <trkpt lat="40.2183740" lon="-4.4455200">
        <ele>605.2</ele>
        <time>2019-08-13T11:42:25Z</time>
      </trkpt>
      <trkpt lat="40.2184060" lon="-4.4455310">
        <ele>605.3</ele>
        <time>2019-08-13T11:42:26Z</time>
      </trkpt>
      <trkpt lat="40.2184370" lon="-4.4455420">
        <ele>605.4</ele>
        <time>2019-08-13T11:42:27Z</time>
      </trkpt>
      <trkpt lat="40.2184690" lon="-4.4455540">
        <ele>605.5</ele>
        <time>2019-08-13T11:42:28Z</time>
      </trkpt>
      <trkpt lat="40.2185010" lon="-4.4455650">
        <ele>605.6</ele>
        <time>2019-08-13T11:42:29Z</time>
      </trkpt>
      <trkpt lat="40.2185340" lon="-4.4455760">
        <ele>605.6</ele>
        <time>2019-08-13T11:42:30Z</time>
      </trkpt>
      <trkpt lat="40.2185670" lon="-4.4455860">
        <ele>605.7</ele>
        <time>2019-08-13T11:42:31Z</time>
      </trkpt>
      <trkpt lat="40.2185990" lon="-4.4455970">
        <ele>605.7</ele>
        <time>2019-08-13T11:42:32Z</time>
      </trkpt>
      <trkpt lat="40.2186310" lon="-4.4456070">
        <ele>605.8</ele>
        <time>2019-08-13T11:42:33Z</time>
      </trkpt>
      <trkpt lat="40.2186620" lon="-4.4456180">
        <ele>605.9</ele>
        <time>2019-08-13T11:42:34Z</time>
      </trkpt>
      <trkpt lat="40.2186920" lon="-4.4456290">
        <ele>605.9</ele>
        <time>2019-08-13T11:42:35Z</time>
      </trkpt>
      <trkpt lat="40.2187230" lon="-4.4456380">
        <ele>606.0</ele>
        <time>2019-08-13T11:42:36Z</time>
      </trkpt>
      <trkpt lat="40.2187540" lon="-4.4456460">
        <ele>606.0</ele>
        <time>2019-08-13T11:42:37Z</time>
      </trkpt>
      <trkpt lat="40.2187860" lon="-4.4456540">
        <ele>606.1</ele>
        <time>2019-08-13T11:42:38Z</time>
      </trkpt>
      <trkpt lat="40.2188170" lon="-4.4456640">
        <ele>606.1</ele>
        <time>2019-08-13T11:42:39Z</time>
      </trkpt>
      <trkpt lat="40.2188490" lon="-4.4456730">
        <ele>606.2</ele>
        <time>2019-08-13T11:42:40Z</time>
      </trkpt>
      <trkpt lat="40.2188800" lon="-4.4456840">
        <ele>606.3</ele>
        <time>2019-08-13T11:42:41Z</time>
      </trkpt>
      <trkpt lat="40.2189110" lon="-4.4456940">
        <ele>606.4</ele>
        <time>2019-08-13T11:42:42Z</time>
      </trkpt>
      <trkpt lat="40.2189420" lon="-4.4457040">
        <ele>606.4</ele>
        <time>2019-08-13T11:42:43Z</time>
      </trkpt>
      <trkpt lat="40.2189720" lon="-4.4457140">
        <ele>606.5</ele>
        <time>2019-08-13T11:42:44Z</time>
      </trkpt>
      <trkpt lat="40.2190030" lon="-4.4457230">
        <ele>606.6</ele>
        <time>2019-08-13T11:42:45Z</time>
      </trkpt>
      <trkpt lat="40.2190330" lon="-4.4457320">
        <ele>606.7</ele>
        <time>2019-08-13T11:42:46Z</time>
      </trkpt>
      <trkpt lat="40.2190640" lon="-4.4457410">
        <ele>606.8</ele>
        <time>2019-08-13T11:42:47Z</time>
      </trkpt>
      <trkpt lat="40.2190950" lon="-4.4457500">
        <ele>606.9</ele>
        <time>2019-08-13T11:42:48Z</time>
      </trkpt>
      <trkpt lat="40.2191250" lon="-4.4457590">
        <ele>607.0</ele>
        <time>2019-08-13T11:42:49Z</time>
      </trkpt>
      <trkpt lat="40.2191540" lon="-4.4457680">
        <ele>607.1</ele>
        <time>2019-08-13T11:42:50Z</time>
      </trkpt>
      <trkpt lat="40.2191850" lon="-4.4457770">
        <ele>607.2</ele>
        <time>2019-08-13T11:42:51Z</time>
      </trkpt>
      <trkpt lat="40.2192150" lon="-4.4457850">
        <ele>607.3</ele>
        <time>2019-08-13T11:42:52Z</time>
      </trkpt>
      <trkpt lat="40.2192450" lon="-4.4457950">
        <ele>607.4</ele>
        <time>2019-08-13T11:42:53Z</time>
      </trkpt>
      <trkpt lat="40.2192750" lon="-4.4458060">
        <ele>607.5</ele>
        <time>2019-08-13T11:42:54Z</time>
      </trkpt>
      <trkpt lat="40.2193050" lon="-4.4458170">
        <ele>607.7</ele>
        <time>2019-08-13T11:42:55Z</time>
      </trkpt>
      <trkpt lat="40.2193360" lon="-4.4458270">
        <ele>607.8</ele>
        <time>2019-08-13T11:42:56Z</time>
      </trkpt>
      <trkpt lat="40.2193670" lon="-4.4458360">
        <ele>607.9</ele>
        <time>2019-08-13T11:42:57Z</time>
      </trkpt>
      <trkpt lat="40.2193990" lon="-4.4458460">
        <ele>608.0</ele>
        <time>2019-08-13T11:42:58Z</time>
      </trkpt>
      <trkpt lat="40.2194300" lon="-4.4458550">
        <ele>608.1</ele>
        <time>2019-08-13T11:42:59Z</time>
      </trkpt>
      <trkpt lat="40.2194610" lon="-4.4458640">
        <ele>608.3</ele>
        <time>2019-08-13T11:43:00Z</time>
      </trkpt>
      <trkpt lat="40.2194920" lon="-4.4458740">
        <ele>608.4</ele>
        <time>2019-08-13T11:43:01Z</time>
      </trkpt>
      <trkpt lat="40.2195220" lon="-4.4458830">
        <ele>608.5</ele>
        <time>2019-08-13T11:43:02Z</time>
      </trkpt>
      <trkpt lat="40.2195520" lon="-4.4458930">
        <ele>608.6</ele>
        <time>2019-08-13T11:43:03Z</time>
      </trkpt>
      <trkpt lat="40.2195810" lon="-4.4459030">
        <ele>608.7</ele>
        <time>2019-08-13T11:43:04Z</time>
      </trkpt>
      <trkpt lat="40.2196100" lon="-4.4459150">
        <ele>608.8</ele>
        <time>2019-08-13T11:43:05Z</time>
      </trkpt>
      <trkpt lat="40.2196390" lon="-4.4459260">
        <ele>608.9</ele>
        <time>2019-08-13T11:43:06Z</time>
      </trkpt>
      <trkpt lat="40.2196680" lon="-4.4459360">
        <ele>609.0</ele>
        <time>2019-08-13T11:43:07Z</time>
      </trkpt>
      <trkpt lat="40.2196980" lon="-4.4459470">
        <ele>609.1</ele>
        <time>2019-08-13T11:43:08Z</time>
      </trkpt>
      <trkpt lat="40.2197260" lon="-4.4459580">
        <ele>609.2</ele>
        <time>2019-08-13T11:43:09Z</time>
      </trkpt>
      <trkpt lat="40.2197750" lon="-4.4459810">
        <ele>609.3</ele>
        <time>2019-08-13T11:43:11Z</time>
      </trkpt>
      <trkpt lat="40.2198020" lon="-4.4459930">
        <ele>609.4</ele>
        <time>2019-08-13T11:43:12Z</time>
      </trkpt>
      <trkpt lat="40.2198310" lon="-4.4460050">
        <ele>609.4</ele>
        <time>2019-08-13T11:43:13Z</time>
      </trkpt>
      <trkpt lat="40.2198590" lon="-4.4460200">
        <ele>609.5</ele>
        <time>2019-08-13T11:43:14Z</time>
      </trkpt>
      <trkpt lat="40.2198890" lon="-4.4460370">
        <ele>609.6</ele>
        <time>2019-08-13T11:43:15Z</time>
      </trkpt>
      <trkpt lat="40.2199190" lon="-4.4460540">
        <ele>609.7</ele>
        <time>2019-08-13T11:43:16Z</time>
      </trkpt>
      <trkpt lat="40.2199490" lon="-4.4460710">
        <ele>609.8</ele>
        <time>2019-08-13T11:43:17Z</time>
      </trkpt>
      <trkpt lat="40.2199800" lon="-4.4460880">
        <ele>609.9</ele>
        <time>2019-08-13T11:43:18Z</time>
      </trkpt>
      <trkpt lat="40.2200100" lon="-4.4461070">
        <ele>610.0</ele>
        <time>2019-08-13T11:43:19Z</time>
      </trkpt>
      <trkpt lat="40.2200410" lon="-4.4461280">
        <ele>610.2</ele>
        <time>2019-08-13T11:43:20Z</time>
      </trkpt>
      <trkpt lat="40.2200710" lon="-4.4461480">
        <ele>610.3</ele>
        <time>2019-08-13T11:43:21Z</time>
      </trkpt>
      <trkpt lat="40.2200990" lon="-4.4461670">
        <ele>610.4</ele>
        <time>2019-08-13T11:43:22Z</time>
      </trkpt>
      <trkpt lat="40.2201270" lon="-4.4461850">
        <ele>610.6</ele>
        <time>2019-08-13T11:43:23Z</time>
      </trkpt>
      <trkpt lat="40.2201530" lon="-4.4462040">
        <ele>610.7</ele>
        <time>2019-08-13T11:43:24Z</time>
      </trkpt>
      <trkpt lat="40.2201770" lon="-4.4462220">
        <ele>610.8</ele>
        <time>2019-08-13T11:43:25Z</time>
      </trkpt>
      <trkpt lat="40.2202030" lon="-4.4462400">
        <ele>610.9</ele>
        <time>2019-08-13T11:43:26Z</time>
      </trkpt>
      <trkpt lat="40.2202320" lon="-4.4462600">
        <ele>611.1</ele>
        <time>2019-08-13T11:43:27Z</time>
      </trkpt>
      <trkpt lat="40.2202640" lon="-4.4462830">
        <ele>611.2</ele>
        <time>2019-08-13T11:43:28Z</time>
      </trkpt>
      <trkpt lat="40.2202970" lon="-4.4463090">
        <ele>611.3</ele>
        <time>2019-08-13T11:43:29Z</time>
      </trkpt>
      <trkpt lat="40.2203320" lon="-4.4463370">
        <ele>611.5</ele>
        <time>2019-08-13T11:43:30Z</time>
      </trkpt>
      <trkpt lat="40.2203680" lon="-4.4463680">
        <ele>611.6</ele>
        <time>2019-08-13T11:43:31Z</time>
      </trkpt>
      <trkpt lat="40.2204040" lon="-4.4463990">
        <ele>611.7</ele>
        <time>2019-08-13T11:43:32Z</time>
      </trkpt>
      <trkpt lat="40.2204410" lon="-4.4464330">
        <ele>611.8</ele>
        <time>2019-08-13T11:43:33Z</time>
      </trkpt>
      <trkpt lat="40.2204780" lon="-4.4464670">
        <ele>611.9</ele>
        <time>2019-08-13T11:43:34Z</time>
      </trkpt>
      <trkpt lat="40.2205140" lon="-4.4465020">
        <ele>612.0</ele>
        <time>2019-08-13T11:43:35Z</time>
      </trkpt>
      <trkpt lat="40.2205500" lon="-4.4465360">
        <ele>612.1</ele>
        <time>2019-08-13T11:43:36Z</time>
      </trkpt>
      <trkpt lat="40.2205860" lon="-4.4465680">
        <ele>612.2</ele>
        <time>2019-08-13T11:43:37Z</time>
      </trkpt>
      <trkpt lat="40.2206240" lon="-4.4465990">
        <ele>612.2</ele>
        <time>2019-08-13T11:43:38Z</time>
      </trkpt>
      <trkpt lat="40.2206640" lon="-4.4466300">
        <ele>612.3</ele>
        <time>2019-08-13T11:43:39Z</time>
      </trkpt>
      <trkpt lat="40.2207020" lon="-4.4466600">
        <ele>612.3</ele>
        <time>2019-08-13T11:43:40Z</time>
      </trkpt>
      <trkpt lat="40.2207390" lon="-4.4466920">
        <ele>612.3</ele>
        <time>2019-08-13T11:43:41Z</time>
      </trkpt>
      <trkpt lat="40.2207750" lon="-4.4467230">
        <ele>612.3</ele>
        <time>2019-08-13T11:43:42Z</time>
      </trkpt>
      <trkpt lat="40.2208090" lon="-4.4467540">
        <ele>612.4</ele>
        <time>2019-08-13T11:43:43Z</time>
      </trkpt>
      <trkpt lat="40.2208420" lon="-4.4467840">
        <ele>612.4</ele>
        <time>2019-08-13T11:43:44Z</time>
      </trkpt>
      <trkpt lat="40.2208740" lon="-4.4468120">
        <ele>612.4</ele>
        <time>2019-08-13T11:43:45Z</time>
      </trkpt>
      <trkpt lat="40.2209030" lon="-4.4468400">
        <ele>612.4</ele>
        <time>2019-08-13T11:43:46Z</time>
      </trkpt>
      <trkpt lat="40.2209310" lon="-4.4468650">
        <ele>612.4</ele>
        <time>2019-08-13T11:43:47Z</time>
      </trkpt>
      <trkpt lat="40.2209560" lon="-4.4468900">
        <ele>612.5</ele>
        <time>2019-08-13T11:43:48Z</time>
      </trkpt>
      <trkpt lat="40.2209780" lon="-4.4469140">
        <ele>612.5</ele>
        <time>2019-08-13T11:43:49Z</time>
      </trkpt>
      <trkpt lat="40.2210160" lon="-4.4469560">
        <ele>612.5</ele>
        <time>2019-08-13T11:43:51Z</time>
      </trkpt>
      <trkpt lat="40.2210400" lon="-4.4469770">
        <ele>612.5</ele>
        <time>2019-08-13T11:43:52Z</time>
      </trkpt>
      <trkpt lat="40.2210680" lon="-4.4470010">
        <ele>612.5</ele>
        <time>2019-08-13T11:43:53Z</time>
      </trkpt>
      <trkpt lat="40.2210980" lon="-4.4470260">
        <ele>612.5</ele>
        <time>2019-08-13T11:43:54Z</time>
      </trkpt>
      <trkpt lat="40.2211300" lon="-4.4470510">
        <ele>612.6</ele>
        <time>2019-08-13T11:43:55Z</time>
      </trkpt>
      <trkpt lat="40.2211610" lon="-4.4470790">
        <ele>612.6</ele>
        <time>2019-08-13T11:43:56Z</time>
      </trkpt>
      <trkpt lat="40.2211920" lon="-4.4471060">
        <ele>612.6</ele>
        <time>2019-08-13T11:43:57Z</time>
      </trkpt>
      <trkpt lat="40.2212250" lon="-4.4471340">
        <ele>612.6</ele>
        <time>2019-08-13T11:43:58Z</time>
      </trkpt>
      <trkpt lat="40.2212580" lon="-4.4471610">
        <ele>612.6</ele>
        <time>2019-08-13T11:43:59Z</time>
      </trkpt>
      <trkpt lat="40.2212910" lon="-4.4471880">
        <ele>612.7</ele>
        <time>2019-08-13T11:44:00Z</time>
      </trkpt>
      <trkpt lat="40.2213240" lon="-4.4472150">
        <ele>612.7</ele>
        <time>2019-08-13T11:44:01Z</time>
      </trkpt>
      <trkpt lat="40.2213570" lon="-4.4472420">
        <ele>612.8</ele>
        <time>2019-08-13T11:44:02Z</time>
      </trkpt>
      <trkpt lat="40.2213900" lon="-4.4472700">
        <ele>612.8</ele>
        <time>2019-08-13T11:44:03Z</time>
      </trkpt>
      <trkpt lat="40.2214230" lon="-4.4472990">
        <ele>612.9</ele>
        <time>2019-08-13T11:44:04Z</time>
      </trkpt>
      <trkpt lat="40.2214570" lon="-4.4473280">
        <ele>612.9</ele>
        <time>2019-08-13T11:44:05Z</time>
      </trkpt>
      <trkpt lat="40.2214900" lon="-4.4473560">
        <ele>613.0</ele>
        <time>2019-08-13T11:44:06Z</time>
      </trkpt>
      <trkpt lat="40.2215220" lon="-4.4473850">
        <ele>613.1</ele>
        <time>2019-08-13T11:44:07Z</time>
      </trkpt>
      <trkpt lat="40.2215560" lon="-4.4474150">
        <ele>613.2</ele>
        <time>2019-08-13T11:44:08Z</time>
      </trkpt>
      <trkpt lat="40.2215900" lon="-4.4474440">
        <ele>613.2</ele>
        <time>2019-08-13T11:44:09Z</time>
      </trkpt>
      <trkpt lat="40.2216220" lon="-4.4474740">
        <ele>613.3</ele>
        <time>2019-08-13T11:44:10Z</time>
      </trkpt>
      <trkpt lat="40.2216520" lon="-4.4475000">
        <ele>613.4</ele>
        <time>2019-08-13T11:44:11Z</time>
      </trkpt>
      <trkpt lat="40.2216800" lon="-4.4475250">
        <ele>613.5</ele>
        <time>2019-08-13T11:44:12Z</time>
      </trkpt>
      <trkpt lat="40.2217110" lon="-4.4475520">
        <ele>613.6</ele>
        <time>2019-08-13T11:44:13Z</time>
      </trkpt>
      <trkpt lat="40.2217440" lon="-4.4475790">
        <ele>613.7</ele>
        <time>2019-08-13T11:44:14Z</time>
      </trkpt>
      <trkpt lat="40.2217780" lon="-4.4476060">
        <ele>613.8</ele>
        <time>2019-08-13T11:44:15Z</time>
      </trkpt>
      <trkpt lat="40.2218110" lon="-4.4476330">
        <ele>613.9</ele>
        <time>2019-08-13T11:44:16Z</time>
      </trkpt>
      <trkpt lat="40.2218440" lon="-4.4476620">
        <ele>614.0</ele>
        <time>2019-08-13T11:44:17Z</time>
      </trkpt>
      <trkpt lat="40.2218780" lon="-4.4476910">
        <ele>614.1</ele>
        <time>2019-08-13T11:44:18Z</time>
      </trkpt>
      <trkpt lat="40.2219120" lon="-4.4477210">
        <ele>614.2</ele>
        <time>2019-08-13T11:44:19Z</time>
      </trkpt>
      <trkpt lat="40.2219460" lon="-4.4477510">
        <ele>614.3</ele>
        <time>2019-08-13T11:44:20Z</time>
      </trkpt>
      <trkpt lat="40.2219790" lon="-4.4477810">
        <ele>614.4</ele>
        <time>2019-08-13T11:44:21Z</time>
      </trkpt>
      <trkpt lat="40.2220130" lon="-4.4478100">
        <ele>614.5</ele>
        <time>2019-08-13T11:44:22Z</time>
      </trkpt>
      <trkpt lat="40.2220470" lon="-4.4478390">
        <ele>614.6</ele>
        <time>2019-08-13T11:44:23Z</time>
      </trkpt>
      <trkpt lat="40.2220800" lon="-4.4478690">
        <ele>614.7</ele>
        <time>2019-08-13T11:44:24Z</time>
      </trkpt>
      <trkpt lat="40.2221140" lon="-4.4479000">
        <ele>614.8</ele>
        <time>2019-08-13T11:44:25Z</time>
      </trkpt>
      <trkpt lat="40.2221470" lon="-4.4479300">
        <ele>615.0</ele>
        <time>2019-08-13T11:44:26Z</time>
      </trkpt>
      <trkpt lat="40.2221810" lon="-4.4479590">
        <ele>615.1</ele>
        <time>2019-08-13T11:44:27Z</time>
      </trkpt>
      <trkpt lat="40.2222130" lon="-4.4479880">
        <ele>615.2</ele>
        <time>2019-08-13T11:44:28Z</time>
      </trkpt>
      <trkpt lat="40.2222460" lon="-4.4480180">
        <ele>615.3</ele>
        <time>2019-08-13T11:44:29Z</time>
      </trkpt>
      <trkpt lat="40.2222790" lon="-4.4480470">
        <ele>615.4</ele>
        <time>2019-08-13T11:44:30Z</time>
      </trkpt>
      <trkpt lat="40.2223120" lon="-4.4480760">
        <ele>615.5</ele>
        <time>2019-08-13T11:44:31Z</time>
      </trkpt>
      <trkpt lat="40.2223450" lon="-4.4481050">
        <ele>615.6</ele>
        <time>2019-08-13T11:44:32Z</time>
      </trkpt>
      <trkpt lat="40.2223780" lon="-4.4481340">
        <ele>615.7</ele>
        <time>2019-08-13T11:44:33Z</time>
      </trkpt>
      <trkpt lat="40.2224110" lon="-4.4481630">
        <ele>615.8</ele>
        <time>2019-08-13T11:44:34Z</time>
      </trkpt>
      <trkpt lat="40.2224430" lon="-4.4481920">
        <ele>616.0</ele>
        <time>2019-08-13T11:44:35Z</time>
      </trkpt>
      <trkpt lat="40.2224770" lon="-4.4482220">
        <ele>616.1</ele>
        <time>2019-08-13T11:44:36Z</time>
      </trkpt>
      <trkpt lat="40.2225100" lon="-4.4482520">
        <ele>616.2</ele>
        <time>2019-08-13T11:44:37Z</time>
      </trkpt>
      <trkpt lat="40.2225430" lon="-4.4482800">
        <ele>616.3</ele>
        <time>2019-08-13T11:44:38Z</time>
      </trkpt>
      <trkpt lat="40.2225760" lon="-4.4483090">
        <ele>616.4</ele>
        <time>2019-08-13T11:44:39Z</time>
      </trkpt>
      <trkpt lat="40.2226100" lon="-4.4483370">
        <ele>616.5</ele>
        <time>2019-08-13T11:44:40Z</time>
      </trkpt>
      <trkpt lat="40.2226440" lon="-4.4483660">
        <ele>616.7</ele>
        <time>2019-08-13T11:44:41Z</time>
      </trkpt>
      <trkpt lat="40.2226760" lon="-4.4483960">
        <ele>616.8</ele>
        <time>2019-08-13T11:44:42Z</time>
      </trkpt>
      <trkpt lat="40.2227090" lon="-4.4484260">
        <ele>616.9</ele>
        <time>2019-08-13T11:44:43Z</time>
      </trkpt>
      <trkpt lat="40.2227400" lon="-4.4484540">
        <ele>617.1</ele>
        <time>2019-08-13T11:44:44Z</time>
      </trkpt>
      <trkpt lat="40.2227740" lon="-4.4484810">
        <ele>617.2</ele>
        <time>2019-08-13T11:44:45Z</time>
      </trkpt>
      <trkpt lat="40.2228070" lon="-4.4485090">
        <ele>617.3</ele>
        <time>2019-08-13T11:44:46Z</time>
      </trkpt>
      <trkpt lat="40.2228390" lon="-4.4485370">
        <ele>617.4</ele>
        <time>2019-08-13T11:44:47Z</time>
      </trkpt>
      <trkpt lat="40.2228710" lon="-4.4485660">
        <ele>617.6</ele>
        <time>2019-08-13T11:44:48Z</time>
      </trkpt>
      <trkpt lat="40.2229030" lon="-4.4485940">
        <ele>617.7</ele>
        <time>2019-08-13T11:44:49Z</time>
      </trkpt>
      <trkpt lat="40.2229330" lon="-4.4486230">
        <ele>617.8</ele>
        <time>2019-08-13T11:44:50Z</time>
      </trkpt>
      <trkpt lat="40.2229640" lon="-4.4486520">
        <ele>618.0</ele>
        <time>2019-08-13T11:44:51Z</time>
      </trkpt>
      <trkpt lat="40.2229980" lon="-4.4486780">
        <ele>618.1</ele>
        <time>2019-08-13T11:44:52Z</time>
      </trkpt>
      <trkpt lat="40.2230300" lon="-4.4487050">
        <ele>618.2</ele>
        <time>2019-08-13T11:44:53Z</time>
      </trkpt>
      <trkpt lat="40.2230620" lon="-4.4487330">
        <ele>618.4</ele>
        <time>2019-08-13T11:44:54Z</time>
      </trkpt>
      <trkpt lat="40.2230940" lon="-4.4487610">
        <ele>618.5</ele>
        <time>2019-08-13T11:44:55Z</time>
      </trkpt>
      <trkpt lat="40.2231240" lon="-4.4487900">
        <ele>618.6</ele>
        <time>2019-08-13T11:44:56Z</time>
      </trkpt>
      <trkpt lat="40.2231510" lon="-4.4488160">
        <ele>618.7</ele>
        <time>2019-08-13T11:44:57Z</time>
      </trkpt>
      <trkpt lat="40.2231770" lon="-4.4488410">
        <ele>618.9</ele>
        <time>2019-08-13T11:44:58Z</time>
      </trkpt>
      <trkpt lat="40.2232050" lon="-4.4488650">
        <ele>619.0</ele>
        <time>2019-08-13T11:44:59Z</time>
      </trkpt>
      <trkpt lat="40.2232340" lon="-4.4488910">
        <ele>619.1</ele>
        <time>2019-08-13T11:45:00Z</time>
      </trkpt>
      <trkpt lat="40.2232640" lon="-4.4489190">
        <ele>619.2</ele>
        <time>2019-08-13T11:45:01Z</time>
      </trkpt>
      <trkpt lat="40.2232950" lon="-4.4489490">
        <ele>619.3</ele>
        <time>2019-08-13T11:45:02Z</time>
      </trkpt>
      <trkpt lat="40.2233290" lon="-4.4489770">
        <ele>619.4</ele>
        <time>2019-08-13T11:45:03Z</time>
      </trkpt>
      <trkpt lat="40.2233620" lon="-4.4490040">
        <ele>619.6</ele>
        <time>2019-08-13T11:45:04Z</time>
      </trkpt>
      <trkpt lat="40.2233960" lon="-4.4490320">
        <ele>619.7</ele>
        <time>2019-08-13T11:45:05Z</time>
      </trkpt>
      <trkpt lat="40.2234300" lon="-4.4490600">
        <ele>619.8</ele>
        <time>2019-08-13T11:45:06Z</time>
      </trkpt>
      <trkpt lat="40.2234640" lon="-4.4490890">
        <ele>619.9</ele>
        <time>2019-08-13T11:45:07Z</time>
      </trkpt>
      <trkpt lat="40.2234950" lon="-4.4491180">
        <ele>620.0</ele>
        <time>2019-08-13T11:45:08Z</time>
      </trkpt>
      <trkpt lat="40.2235230" lon="-4.4491450">
        <ele>620.1</ele>
        <time>2019-08-13T11:45:09Z</time>
      </trkpt>
      <trkpt lat="40.2235500" lon="-4.4491710">
        <ele>620.1</ele>
        <time>2019-08-13T11:45:10Z</time>
      </trkpt>
      <trkpt lat="40.2235800" lon="-4.4491960">
        <ele>620.2</ele>
        <time>2019-08-13T11:45:11Z</time>
      </trkpt>
      <trkpt lat="40.2236120" lon="-4.4492190">
        <ele>620.3</ele>
        <time>2019-08-13T11:45:12Z</time>
      </trkpt>
      <trkpt lat="40.2236450" lon="-4.4492450">
        <ele>620.4</ele>
        <time>2019-08-13T11:45:13Z</time>
      </trkpt>
      <trkpt lat="40.2236780" lon="-4.4492740">
        <ele>620.4</ele>
        <time>2019-08-13T11:45:14Z</time>
      </trkpt>
      <trkpt lat="40.2237110" lon="-4.4493020">
        <ele>620.5</ele>
        <time>2019-08-13T11:45:15Z</time>
      </trkpt>
      <trkpt lat="40.2237450" lon="-4.4493310">
        <ele>620.6</ele>
        <time>2019-08-13T11:45:16Z</time>
      </trkpt>
      <trkpt lat="40.2237790" lon="-4.4493600">
        <ele>620.7</ele>
        <time>2019-08-13T11:45:17Z</time>
      </trkpt>
      <trkpt lat="40.2238110" lon="-4.4493880">
        <ele>620.8</ele>
        <time>2019-08-13T11:45:18Z</time>
      </trkpt>
      <trkpt lat="40.2238440" lon="-4.4494170">
        <ele>620.9</ele>
        <time>2019-08-13T11:45:19Z</time>
      </trkpt>
      <trkpt lat="40.2238780" lon="-4.4494450">
        <ele>621.0</ele>
        <time>2019-08-13T11:45:20Z</time>
      </trkpt>
      <trkpt lat="40.2239130" lon="-4.4494760">
        <ele>621.1</ele>
        <time>2019-08-13T11:45:21Z</time>
      </trkpt>
      <trkpt lat="40.2239470" lon="-4.4495070">
        <ele>621.2</ele>
        <time>2019-08-13T11:45:22Z</time>
      </trkpt>
      <trkpt lat="40.2239810" lon="-4.4495370">
        <ele>621.3</ele>
        <time>2019-08-13T11:45:23Z</time>
      </trkpt>
      <trkpt lat="40.2240140" lon="-4.4495670">
        <ele>621.4</ele>
        <time>2019-08-13T11:45:24Z</time>
      </trkpt>
      <trkpt lat="40.2240490" lon="-4.4495970">
        <ele>621.5</ele>
        <time>2019-08-13T11:45:25Z</time>
      </trkpt>
      <trkpt lat="40.2240840" lon="-4.4496250">
        <ele>621.6</ele>
        <time>2019-08-13T11:45:26Z</time>
      </trkpt>
      <trkpt lat="40.2241200" lon="-4.4496530">
        <ele>621.7</ele>
        <time>2019-08-13T11:45:27Z</time>
      </trkpt>
      <trkpt lat="40.2241540" lon="-4.4496810">
        <ele>621.9</ele>
        <time>2019-08-13T11:45:28Z</time>
      </trkpt>
      <trkpt lat="40.2241870" lon="-4.4497090">
        <ele>622.0</ele>
        <time>2019-08-13T11:45:29Z</time>
      </trkpt>
      <trkpt lat="40.2242200" lon="-4.4497380">
        <ele>622.1</ele>
        <time>2019-08-13T11:45:30Z</time>
      </trkpt>
      <trkpt lat="40.2242520" lon="-4.4497660">
        <ele>622.1</ele>
        <time>2019-08-13T11:45:31Z</time>
      </trkpt>
      <trkpt lat="40.2242830" lon="-4.4497950">
        <ele>622.2</ele>
        <time>2019-08-13T11:45:32Z</time>
      </trkpt>
      <trkpt lat="40.2243130" lon="-4.4498220">
        <ele>622.3</ele>
        <time>2019-08-13T11:45:33Z</time>
      </trkpt>
      <trkpt lat="40.2243440" lon="-4.4498510">
        <ele>622.4</ele>
        <time>2019-08-13T11:45:34Z</time>
      </trkpt>
      <trkpt lat="40.2243760" lon="-4.4498800">
        <ele>622.5</ele>
        <time>2019-08-13T11:45:35Z</time>
      </trkpt>
      <trkpt lat="40.2244080" lon="-4.4499090">
        <ele>622.6</ele>
        <time>2019-08-13T11:45:36Z</time>
      </trkpt>
      <trkpt lat="40.2244410" lon="-4.4499370">
        <ele>622.7</ele>
        <time>2019-08-13T11:45:37Z</time>
      </trkpt>
      <trkpt lat="40.2244740" lon="-4.4499670">
        <ele>622.8</ele>
        <time>2019-08-13T11:45:38Z</time>
      </trkpt>
      <trkpt lat="40.2245060" lon="-4.4499960">
        <ele>622.9</ele>
        <time>2019-08-13T11:45:39Z</time>
      </trkpt>
      <trkpt lat="40.2245380" lon="-4.4500250">
        <ele>623.0</ele>
        <time>2019-08-13T11:45:40Z</time>
      </trkpt>
      <trkpt lat="40.2245690" lon="-4.4500540">
        <ele>623.1</ele>
        <time>2019-08-13T11:45:41Z</time>
      </trkpt>
      <trkpt lat="40.2246010" lon="-4.4500820">
        <ele>623.2</ele>
        <time>2019-08-13T11:45:42Z</time>
      </trkpt>
      <trkpt lat="40.2246340" lon="-4.4501090">
        <ele>623.3</ele>
        <time>2019-08-13T11:45:43Z</time>
      </trkpt>
      <trkpt lat="40.2246690" lon="-4.4501360">
        <ele>623.4</ele>
        <time>2019-08-13T11:45:44Z</time>
      </trkpt>
      <trkpt lat="40.2247040" lon="-4.4501640">
        <ele>623.5</ele>
        <time>2019-08-13T11:45:45Z</time>
      </trkpt>
      <trkpt lat="40.2247380" lon="-4.4501950">
        <ele>623.6</ele>
        <time>2019-08-13T11:45:46Z</time>
      </trkpt>
      <trkpt lat="40.2247720" lon="-4.4502250">
        <ele>623.8</ele>
        <time>2019-08-13T11:45:47Z</time>
      </trkpt>
      <trkpt lat="40.2248060" lon="-4.4502560">
        <ele>623.9</ele>
        <time>2019-08-13T11:45:48Z</time>
      </trkpt>
      <trkpt lat="40.2248430" lon="-4.4502850">
        <ele>624.0</ele>
        <time>2019-08-13T11:45:49Z</time>
      </trkpt>
      <trkpt lat="40.2248800" lon="-4.4503140">
        <ele>624.1</ele>
        <time>2019-08-13T11:45:50Z</time>
      </trkpt>
      <trkpt lat="40.2249160" lon="-4.4503460">
        <ele>624.3</ele>
        <time>2019-08-13T11:45:51Z</time>
      </trkpt>
      <trkpt lat="40.2249520" lon="-4.4503750">
        <ele>624.4</ele>
        <time>2019-08-13T11:45:52Z</time>
      </trkpt>
      <trkpt lat="40.2249840" lon="-4.4504020">
        <ele>624.4</ele>
        <time>2019-08-13T11:45:53Z</time>
      </trkpt>
      <trkpt lat="40.2250160" lon="-4.4504280">
        <ele>624.5</ele>
        <time>2019-08-13T11:45:54Z</time>
      </trkpt>
      <trkpt lat="40.2250480" lon="-4.4504530">
        <ele>624.5</ele>
        <time>2019-08-13T11:45:55Z</time>
      </trkpt>
      <trkpt lat="40.2250810" lon="-4.4504800">
        <ele>624.6</ele>
        <time>2019-08-13T11:45:56Z</time>
      </trkpt>
      <trkpt lat="40.2251140" lon="-4.4505090">
        <ele>624.7</ele>
        <time>2019-08-13T11:45:57Z</time>
      </trkpt>
      <trkpt lat="40.2251460" lon="-4.4505380">
        <ele>624.7</ele>
        <time>2019-08-13T11:45:58Z</time>
      </trkpt>
      <trkpt lat="40.2251770" lon="-4.4505690">
        <ele>624.8</ele>
        <time>2019-08-13T11:45:59Z</time>
      </trkpt>
      <trkpt lat="40.2252080" lon="-4.4506010">
        <ele>624.9</ele>
        <time>2019-08-13T11:46:00Z</time>
      </trkpt>
      <trkpt lat="40.2252400" lon="-4.4506330">
        <ele>625.0</ele>
        <time>2019-08-13T11:46:01Z</time>
      </trkpt>
      <trkpt lat="40.2252720" lon="-4.4506630">
        <ele>625.1</ele>
        <time>2019-08-13T11:46:02Z</time>
      </trkpt>
      <trkpt lat="40.2253030" lon="-4.4506910">
        <ele>625.2</ele>
        <time>2019-08-13T11:46:03Z</time>
      </trkpt>
      <trkpt lat="40.2253340" lon="-4.4507170">
        <ele>625.3</ele>
        <time>2019-08-13T11:46:04Z</time>
      </trkpt>
      <trkpt lat="40.2253620" lon="-4.4507420">
        <ele>625.4</ele>
        <time>2019-08-13T11:46:05Z</time>
      </trkpt>
      <trkpt lat="40.2253870" lon="-4.4507640">
        <ele>625.5</ele>
        <time>2019-08-13T11:46:06Z</time>
      </trkpt>
      <trkpt lat="40.2254130" lon="-4.4507860">
        <ele>625.6</ele>
        <time>2019-08-13T11:46:07Z</time>
      </trkpt>
      <trkpt lat="40.2254390" lon="-4.4508080">
        <ele>625.7</ele>
        <time>2019-08-13T11:46:08Z</time>
      </trkpt>
      <trkpt lat="40.2254640" lon="-4.4508310">
        <ele>625.8</ele>
        <time>2019-08-13T11:46:09Z</time>
      </trkpt>
      <trkpt lat="40.2254880" lon="-4.4508530">
        <ele>626.0</ele>
        <time>2019-08-13T11:46:10Z</time>
      </trkpt>
      <trkpt lat="40.2255130" lon="-4.4508750">
        <ele>626.1</ele>
        <time>2019-08-13T11:46:11Z</time>
      </trkpt>
      <trkpt lat="40.2255370" lon="-4.4508960">
        <ele>626.2</ele>
        <time>2019-08-13T11:46:12Z</time>
      </trkpt>
      <trkpt lat="40.2255610" lon="-4.4509170">
        <ele>626.3</ele>
        <time>2019-08-13T11:46:13Z</time>
      </trkpt>
      <trkpt lat="40.2255840" lon="-4.4509380">
        <ele>626.5</ele>
        <time>2019-08-13T11:46:14Z</time>
      </trkpt>
      <trkpt lat="40.2256070" lon="-4.4509600">
        <ele>626.6</ele>
        <time>2019-08-13T11:46:15Z</time>
      </trkpt>
      <trkpt lat="40.2256320" lon="-4.4509800">
        <ele>626.7</ele>
        <time>2019-08-13T11:46:16Z</time>
      </trkpt>
      <trkpt lat="40.2256570" lon="-4.4510000">
        <ele>626.9</ele>
        <time>2019-08-13T11:46:17Z</time>
      </trkpt>
      <trkpt lat="40.2256810" lon="-4.4510210">
        <ele>627.0</ele>
        <time>2019-08-13T11:46:18Z</time>
      </trkpt>
      <trkpt lat="40.2257040" lon="-4.4510430">
        <ele>627.1</ele>
        <time>2019-08-13T11:46:19Z</time>
      </trkpt>
      <trkpt lat="40.2257270" lon="-4.4510650">
        <ele>627.3</ele>
        <time>2019-08-13T11:46:20Z</time>
      </trkpt>
      <trkpt lat="40.2257510" lon="-4.4510860">
        <ele>627.4</ele>
        <time>2019-08-13T11:46:21Z</time>
      </trkpt>
      <trkpt lat="40.2257750" lon="-4.4511080">
        <ele>627.5</ele>
        <time>2019-08-13T11:46:22Z</time>
      </trkpt>
      <trkpt lat="40.2257990" lon="-4.4511280">
        <ele>627.7</ele>
        <time>2019-08-13T11:46:23Z</time>
      </trkpt>
      <trkpt lat="40.2258240" lon="-4.4511490">
        <ele>627.8</ele>
        <time>2019-08-13T11:46:24Z</time>
      </trkpt>
      <trkpt lat="40.2258480" lon="-4.4511700">
        <ele>628.0</ele>
        <time>2019-08-13T11:46:25Z</time>
      </trkpt>
      <trkpt lat="40.2258720" lon="-4.4511900">
        <ele>628.1</ele>
        <time>2019-08-13T11:46:26Z</time>
      </trkpt>
      <trkpt lat="40.2258960" lon="-4.4512110">
        <ele>628.3</ele>
        <time>2019-08-13T11:46:27Z</time>
      </trkpt>
      <trkpt lat="40.2259210" lon="-4.4512320">
        <ele>628.4</ele>
        <time>2019-08-13T11:46:28Z</time>
      </trkpt>
      <trkpt lat="40.2259450" lon="-4.4512530">
        <ele>628.6</ele>
        <time>2019-08-13T11:46:29Z</time>
      </trkpt>
      <trkpt lat="40.2259690" lon="-4.4512740">
        <ele>628.8</ele>
        <time>2019-08-13T11:46:30Z</time>
      </trkpt>
      <trkpt lat="40.2259930" lon="-4.4512950">
        <ele>628.9</ele>
        <time>2019-08-13T11:46:31Z</time>
      </trkpt>
      <trkpt lat="40.2260180" lon="-4.4513160">
        <ele>629.1</ele>
        <time>2019-08-13T11:46:32Z</time>
      </trkpt>
      <trkpt lat="40.2260430" lon="-4.4513380">
        <ele>629.2</ele>
        <time>2019-08-13T11:46:33Z</time>
      </trkpt>
      <trkpt lat="40.2260680" lon="-4.4513600">
        <ele>629.4</ele>
        <time>2019-08-13T11:46:34Z</time>
      </trkpt>
      <trkpt lat="40.2260930" lon="-4.4513820">
        <ele>629.5</ele>
        <time>2019-08-13T11:46:35Z</time>
      </trkpt>
      <trkpt lat="40.2261180" lon="-4.4514050">
        <ele>629.7</ele>
        <time>2019-08-13T11:46:36Z</time>
      </trkpt>
      <trkpt lat="40.2261440" lon="-4.4514280">
        <ele>629.9</ele>
        <time>2019-08-13T11:46:37Z</time>
      </trkpt>
      <trkpt lat="40.2261690" lon="-4.4514510">
        <ele>630.0</ele>
        <time>2019-08-13T11:46:38Z</time>
      </trkpt>
      <trkpt lat="40.2261930" lon="-4.4514750">
        <ele>630.2</ele>
        <time>2019-08-13T11:46:39Z</time>
      </trkpt>
      <trkpt lat="40.2262170" lon="-4.4514970">
        <ele>630.4</ele>
        <time>2019-08-13T11:46:40Z</time>
      </trkpt>
      <trkpt lat="40.2262410" lon="-4.4515190">
        <ele>630.5</ele>
        <time>2019-08-13T11:46:41Z</time>
      </trkpt>
      <trkpt lat="40.2262670" lon="-4.4515390">
        <ele>630.7</ele>
        <time>2019-08-13T11:46:42Z</time>
      </trkpt>
      <trkpt lat="40.2262920" lon="-4.4515600">
        <ele>630.8</ele>
        <time>2019-08-13T11:46:43Z</time>
      </trkpt>
      <trkpt lat="40.2263180" lon="-4.4515800">
        <ele>631.0</ele>
        <time>2019-08-13T11:46:44Z</time>
      </trkpt>
      <trkpt lat="40.2263430" lon="-4.4516010">
        <ele>631.1</ele>
        <time>2019-08-13T11:46:45Z</time>
      </trkpt>
      <trkpt lat="40.2263680" lon="-4.4516210">
        <ele>631.3</ele>
        <time>2019-08-13T11:46:46Z</time>
      </trkpt>
      <trkpt lat="40.2263930" lon="-4.4516410">
        <ele>631.4</ele>
        <time>2019-08-13T11:46:47Z</time>
      </trkpt>
      <trkpt lat="40.2264190" lon="-4.4516610">
        <ele>631.6</ele>
        <time>2019-08-13T11:46:48Z</time>
      </trkpt>
      <trkpt lat="40.2264440" lon="-4.4516830">
        <ele>631.7</ele>
        <time>2019-08-13T11:46:49Z</time>
      </trkpt>
      <trkpt lat="40.2264700" lon="-4.4517040">
        <ele>631.8</ele>
        <time>2019-08-13T11:46:50Z</time>
      </trkpt>
      <trkpt lat="40.2264960" lon="-4.4517240">
        <ele>632.0</ele>
        <time>2019-08-13T11:46:51Z</time>
      </trkpt>
      <trkpt lat="40.2265220" lon="-4.4517430">
        <ele>632.1</ele>
        <time>2019-08-13T11:46:52Z</time>
      </trkpt>
      <trkpt lat="40.2265470" lon="-4.4517620">
        <ele>632.2</ele>
        <time>2019-08-13T11:46:53Z</time>
      </trkpt>
      <trkpt lat="40.2265730" lon="-4.4517810">
        <ele>632.3</ele>
        <time>2019-08-13T11:46:54Z</time>
      </trkpt>
      <trkpt lat="40.2265990" lon="-4.4517990">
        <ele>632.5</ele>
        <time>2019-08-13T11:46:55Z</time>
      </trkpt>
      <trkpt lat="40.2266260" lon="-4.4518170">
        <ele>632.6</ele>
        <time>2019-08-13T11:46:56Z</time>
      </trkpt>
      <trkpt lat="40.2266530" lon="-4.4518340">
        <ele>632.7</ele>
        <time>2019-08-13T11:46:57Z</time>
      </trkpt>
      <trkpt lat="40.2266800" lon="-4.4518520">
        <ele>632.8</ele>
        <time>2019-08-13T11:46:58Z</time>
      </trkpt>
      <trkpt lat="40.2267070" lon="-4.4518690">
        <ele>633.0</ele>
        <time>2019-08-13T11:46:59Z</time>
      </trkpt>
      <trkpt lat="40.2267350" lon="-4.4518840">
        <ele>633.1</ele>
        <time>2019-08-13T11:47:00Z</time>
      </trkpt>
      <trkpt lat="40.2267620" lon="-4.4518990">
        <ele>633.2</ele>
        <time>2019-08-13T11:47:01Z</time>
      </trkpt>
      <trkpt lat="40.2267900" lon="-4.4519130">
        <ele>633.3</ele>
        <time>2019-08-13T11:47:02Z</time>
      </trkpt>
      <trkpt lat="40.2268170" lon="-4.4519250">
        <ele>633.5</ele>
        <time>2019-08-13T11:47:03Z</time>
      </trkpt>
      <trkpt lat="40.2268450" lon="-4.4519360">
        <ele>633.6</ele>
        <time>2019-08-13T11:47:04Z</time>
      </trkpt>
      <trkpt lat="40.2268750" lon="-4.4519470">
        <ele>633.7</ele>
        <time>2019-08-13T11:47:05Z</time>
      </trkpt>
      <trkpt lat="40.2269050" lon="-4.4519570">
        <ele>633.8</ele>
        <time>2019-08-13T11:47:06Z</time>
      </trkpt>
      <trkpt lat="40.2269350" lon="-4.4519680">
        <ele>634.0</ele>
        <time>2019-08-13T11:47:07Z</time>
      </trkpt>
      <trkpt lat="40.2269650" lon="-4.4519770">
        <ele>634.1</ele>
        <time>2019-08-13T11:47:08Z</time>
      </trkpt>
      <trkpt lat="40.2269960" lon="-4.4519860">
        <ele>634.2</ele>
        <time>2019-08-13T11:47:09Z</time>
      </trkpt>
      <trkpt lat="40.2270260" lon="-4.4519940">
        <ele>634.3</ele>
        <time>2019-08-13T11:47:10Z</time>
      </trkpt>
      <trkpt lat="40.2270570" lon="-4.4520010">
        <ele>634.4</ele>
        <time>2019-08-13T11:47:11Z</time>
      </trkpt>
      <trkpt lat="40.2270870" lon="-4.4520060">
        <ele>634.6</ele>
        <time>2019-08-13T11:47:12Z</time>
      </trkpt>
      <trkpt lat="40.2271180" lon="-4.4520120">
        <ele>634.7</ele>
        <time>2019-08-13T11:47:13Z</time>
      </trkpt>
      <trkpt lat="40.2271480" lon="-4.4520170">
        <ele>634.8</ele>
        <time>2019-08-13T11:47:14Z</time>
      </trkpt>
      <trkpt lat="40.2271780" lon="-4.4520210">
        <ele>634.9</ele>
        <time>2019-08-13T11:47:15Z</time>
      </trkpt>
      <trkpt lat="40.2272090" lon="-4.4520250">
        <ele>635.1</ele>
        <time>2019-08-13T11:47:16Z</time>
      </trkpt>
      <trkpt lat="40.2272400" lon="-4.4520280">
        <ele>635.2</ele>
        <time>2019-08-13T11:47:17Z</time>
      </trkpt>
      <trkpt lat="40.2272710" lon="-4.4520320">
        <ele>635.4</ele>
        <time>2019-08-13T11:47:18Z</time>
      </trkpt>
      <trkpt lat="40.2273010" lon="-4.4520340">
        <ele>635.5</ele>
        <time>2019-08-13T11:47:19Z</time>
      </trkpt>
      <trkpt lat="40.2273320" lon="-4.4520370">
        <ele>635.6</ele>
        <time>2019-08-13T11:47:20Z</time>
      </trkpt>
      <trkpt lat="40.2273630" lon="-4.4520390">
        <ele>635.8</ele>
        <time>2019-08-13T11:47:21Z</time>
      </trkpt>
      <trkpt lat="40.2273950" lon="-4.4520410">
        <ele>635.9</ele>
        <time>2019-08-13T11:47:22Z</time>
      </trkpt>
      <trkpt lat="40.2274260" lon="-4.4520420">
        <ele>636.1</ele>
        <time>2019-08-13T11:47:23Z</time>
      </trkpt>
      <trkpt lat="40.2274570" lon="-4.4520440">
        <ele>636.2</ele>
        <time>2019-08-13T11:47:24Z</time>
      </trkpt>
      <trkpt lat="40.2274870" lon="-4.4520450">
        <ele>636.3</ele>
        <time>2019-08-13T11:47:25Z</time>
      </trkpt>
      <trkpt lat="40.2275190" lon="-4.4520460">
        <ele>636.5</ele>
        <time>2019-08-13T11:47:26Z</time>
      </trkpt>
      <trkpt lat="40.2275500" lon="-4.4520480">
        <ele>636.6</ele>
        <time>2019-08-13T11:47:27Z</time>
      </trkpt>
      <trkpt lat="40.2275820" lon="-4.4520500">
        <ele>636.7</ele>
        <time>2019-08-13T11:47:28Z</time>
      </trkpt>
      <trkpt lat="40.2276130" lon="-4.4520520">
        <ele>636.9</ele>
        <time>2019-08-13T11:47:29Z</time>
      </trkpt>
      <trkpt lat="40.2276440" lon="-4.4520540">
        <ele>637.0</ele>
        <time>2019-08-13T11:47:30Z</time>
      </trkpt>
      <trkpt lat="40.2276760" lon="-4.4520550">
        <ele>637.2</ele>
        <time>2019-08-13T11:47:31Z</time>
      </trkpt>
      <trkpt lat="40.2277070" lon="-4.4520550">
        <ele>637.3</ele>
        <time>2019-08-13T11:47:32Z</time>
      </trkpt>
      <trkpt lat="40.2277380" lon="-4.4520560">
        <ele>637.4</ele>
        <time>2019-08-13T11:47:33Z</time>
      </trkpt>
      <trkpt lat="40.2277700" lon="-4.4520580">
        <ele>637.6</ele>
        <time>2019-08-13T11:47:34Z</time>
      </trkpt>
      <trkpt lat="40.2278000" lon="-4.4520600">
        <ele>637.7</ele>
        <time>2019-08-13T11:47:35Z</time>
      </trkpt>
      <trkpt lat="40.2278300" lon="-4.4520600">
        <ele>637.8</ele>
        <time>2019-08-13T11:47:36Z</time>
      </trkpt>
      <trkpt lat="40.2278600" lon="-4.4520610">
        <ele>638.0</ele>
        <time>2019-08-13T11:47:37Z</time>
      </trkpt>
      <trkpt lat="40.2278890" lon="-4.4520620">
        <ele>638.1</ele>
        <time>2019-08-13T11:47:38Z</time>
      </trkpt>
      <trkpt lat="40.2279180" lon="-4.4520660">
        <ele>638.3</ele>
        <time>2019-08-13T11:47:39Z</time>
      </trkpt>
      <trkpt lat="40.2279480" lon="-4.4520690">
        <ele>638.4</ele>
        <time>2019-08-13T11:47:40Z</time>
      </trkpt>
      <trkpt lat="40.2279780" lon="-4.4520720">
        <ele>638.5</ele>
        <time>2019-08-13T11:47:41Z</time>
      </trkpt>
      <trkpt lat="40.2280080" lon="-4.4520750">
        <ele>638.6</ele>
        <time>2019-08-13T11:47:42Z</time>
      </trkpt>
      <trkpt lat="40.2280390" lon="-4.4520780">
        <ele>638.7</ele>
        <time>2019-08-13T11:47:43Z</time>
      </trkpt>
      <trkpt lat="40.2280720" lon="-4.4520810">
        <ele>638.8</ele>
        <time>2019-08-13T11:47:44Z</time>
      </trkpt>
      <trkpt lat="40.2281050" lon="-4.4520840">
        <ele>639.0</ele>
        <time>2019-08-13T11:47:45Z</time>
      </trkpt>
      <trkpt lat="40.2281370" lon="-4.4520870">
        <ele>639.1</ele>
        <time>2019-08-13T11:47:46Z</time>
      </trkpt>
      <trkpt lat="40.2281700" lon="-4.4520900">
        <ele>639.2</ele>
        <time>2019-08-13T11:47:47Z</time>
      </trkpt>
      <trkpt lat="40.2282040" lon="-4.4520920">
        <ele>639.4</ele>
        <time>2019-08-13T11:47:48Z</time>
      </trkpt>
      <trkpt lat="40.2282390" lon="-4.4520940">
        <ele>639.5</ele>
        <time>2019-08-13T11:47:49Z</time>
      </trkpt>
      <trkpt lat="40.2282750" lon="-4.4520970">
        <ele>639.6</ele>
        <time>2019-08-13T11:47:50Z</time>
      </trkpt>
      <trkpt lat="40.2283110" lon="-4.4521030">
        <ele>639.8</ele>
        <time>2019-08-13T11:47:51Z</time>
      </trkpt>
      <trkpt lat="40.2283450" lon="-4.4521080">
        <ele>639.9</ele>
        <time>2019-08-13T11:47:52Z</time>
      </trkpt>
      <trkpt lat="40.2283790" lon="-4.4521100">
        <ele>640.0</ele>
        <time>2019-08-13T11:47:53Z</time>
      </trkpt>
      <trkpt lat="40.2284130" lon="-4.4521110">
        <ele>640.1</ele>
        <time>2019-08-13T11:47:54Z</time>
      </trkpt>
      <trkpt lat="40.2284450" lon="-4.4521110">
        <ele>640.2</ele>
        <time>2019-08-13T11:47:55Z</time>
      </trkpt>
      <trkpt lat="40.2284760" lon="-4.4521100">
        <ele>640.3</ele>
        <time>2019-08-13T11:47:56Z</time>
      </trkpt>
      <trkpt lat="40.2285090" lon="-4.4521090">
        <ele>640.4</ele>
        <time>2019-08-13T11:47:57Z</time>
      </trkpt>
      <trkpt lat="40.2285450" lon="-4.4521090">
        <ele>640.5</ele>
        <time>2019-08-13T11:47:58Z</time>
      </trkpt>
      <trkpt lat="40.2285840" lon="-4.4521090">
        <ele>640.6</ele>
        <time>2019-08-13T11:47:59Z</time>
      </trkpt>
      <trkpt lat="40.2286250" lon="-4.4521110">
        <ele>640.6</ele>
        <time>2019-08-13T11:48:00Z</time>
      </trkpt>
      <trkpt lat="40.2286680" lon="-4.4521140">
        <ele>640.7</ele>
        <time>2019-08-13T11:48:01Z</time>
      </trkpt>
      <trkpt lat="40.2287110" lon="-4.4521180">
        <ele>640.8</ele>
        <time>2019-08-13T11:48:02Z</time>
      </trkpt>
      <trkpt lat="40.2287540" lon="-4.4521230">
        <ele>640.8</ele>
        <time>2019-08-13T11:48:03Z</time>
      </trkpt>
      <trkpt lat="40.2287960" lon="-4.4521280">
        <ele>640.9</ele>
        <time>2019-08-13T11:48:04Z</time>
      </trkpt>
      <trkpt lat="40.2288390" lon="-4.4521330">
        <ele>640.9</ele>
        <time>2019-08-13T11:48:05Z</time>
      </trkpt>
      <trkpt lat="40.2288800" lon="-4.4521370">
        <ele>641.0</ele>
        <time>2019-08-13T11:48:06Z</time>
      </trkpt>
      <trkpt lat="40.2289210" lon="-4.4521400">
        <ele>641.0</ele>
        <time>2019-08-13T11:48:07Z</time>
      </trkpt>
      <trkpt lat="40.2289600" lon="-4.4521420">
        <ele>641.0</ele>
        <time>2019-08-13T11:48:08Z</time>
      </trkpt>
      <trkpt lat="40.2290000" lon="-4.4521410">
        <ele>641.0</ele>
        <time>2019-08-13T11:48:09Z</time>
      </trkpt>
      <trkpt lat="40.2290410" lon="-4.4521400">
        <ele>641.0</ele>
        <time>2019-08-13T11:48:10Z</time>
      </trkpt>
      <trkpt lat="40.2290840" lon="-4.4521430">
        <ele>641.0</ele>
        <time>2019-08-13T11:48:11Z</time>
      </trkpt>
      <trkpt lat="40.2291280" lon="-4.4521460">
        <ele>641.0</ele>
        <time>2019-08-13T11:48:12Z</time>
      </trkpt>
      <trkpt lat="40.2291740" lon="-4.4521500">
        <ele>641.0</ele>
        <time>2019-08-13T11:48:13Z</time>
      </trkpt>
      <trkpt lat="40.2292170" lon="-4.4521540">
        <ele>640.9</ele>
        <time>2019-08-13T11:48:14Z</time>
      </trkpt>
      <trkpt lat="40.2292600" lon="-4.4521560">
        <ele>640.9</ele>
        <time>2019-08-13T11:48:15Z</time>
      </trkpt>
      <trkpt lat="40.2293030" lon="-4.4521570">
        <ele>640.8</ele>
        <time>2019-08-13T11:48:16Z</time>
      </trkpt>
      <trkpt lat="40.2293490" lon="-4.4521570">
        <ele>640.8</ele>
        <time>2019-08-13T11:48:17Z</time>
      </trkpt>
      <trkpt lat="40.2293960" lon="-4.4521580">
        <ele>640.7</ele>
        <time>2019-08-13T11:48:18Z</time>
      </trkpt>
      <trkpt lat="40.2294430" lon="-4.4521620">
        <ele>640.6</ele>
        <time>2019-08-13T11:48:19Z</time>
      </trkpt>
      <trkpt lat="40.2294910" lon="-4.4521680">
        <ele>640.6</ele>
        <time>2019-08-13T11:48:20Z</time>
      </trkpt>
      <trkpt lat="40.2295390" lon="-4.4521730">
        <ele>640.5</ele>
        <time>2019-08-13T11:48:21Z</time>
      </trkpt>
      <trkpt lat="40.2295840" lon="-4.4521780">
        <ele>640.5</ele>
        <time>2019-08-13T11:48:22Z</time>
      </trkpt>
      <trkpt lat="40.2296290" lon="-4.4521800">
        <ele>640.4</ele>
        <time>2019-08-13T11:48:23Z</time>
      </trkpt>
      <trkpt lat="40.2296750" lon="-4.4521800">
        <ele>640.4</ele>
        <time>2019-08-13T11:48:24Z</time>
      </trkpt>
      <trkpt lat="40.2297210" lon="-4.4521800">
        <ele>640.4</ele>
        <time>2019-08-13T11:48:25Z</time>
      </trkpt>
      <trkpt lat="40.2297670" lon="-4.4521810">
        <ele>640.4</ele>
        <time>2019-08-13T11:48:26Z</time>
      </trkpt>
      <trkpt lat="40.2298130" lon="-4.4521830">
        <ele>640.4</ele>
        <time>2019-08-13T11:48:27Z</time>
      </trkpt>
      <trkpt lat="40.2298600" lon="-4.4521870">
        <ele>640.4</ele>
        <time>2019-08-13T11:48:28Z</time>
      </trkpt>
      <trkpt lat="40.2299080" lon="-4.4521920">
        <ele>640.4</ele>
        <time>2019-08-13T11:48:29Z</time>
      </trkpt>
      <trkpt lat="40.2299560" lon="-4.4521960">
        <ele>640.4</ele>
        <time>2019-08-13T11:48:30Z</time>
      </trkpt>
      <trkpt lat="40.2300040" lon="-4.4521990">
        <ele>640.4</ele>
        <time>2019-08-13T11:48:31Z</time>
      </trkpt>
      <trkpt lat="40.2300510" lon="-4.4522010">
        <ele>640.4</ele>
        <time>2019-08-13T11:48:32Z</time>
      </trkpt>
      <trkpt lat="40.2300970" lon="-4.4522010">
        <ele>640.4</ele>
        <time>2019-08-13T11:48:33Z</time>
      </trkpt>
      <trkpt lat="40.2301430" lon="-4.4522030">
        <ele>640.4</ele>
        <time>2019-08-13T11:48:34Z</time>
      </trkpt>
      <trkpt lat="40.2301880" lon="-4.4522080">
        <ele>640.4</ele>
        <time>2019-08-13T11:48:35Z</time>
      </trkpt>
      <trkpt lat="40.2302360" lon="-4.4522110">
        <ele>640.5</ele>
        <time>2019-08-13T11:48:36Z</time>
      </trkpt>
      <trkpt lat="40.2302840" lon="-4.4522150">
        <ele>640.5</ele>
        <time>2019-08-13T11:48:37Z</time>
      </trkpt>
      <trkpt lat="40.2303330" lon="-4.4522180">
        <ele>640.6</ele>
        <time>2019-08-13T11:48:38Z</time>
      </trkpt>
      <trkpt lat="40.2303810" lon="-4.4522200">
        <ele>640.6</ele>
        <time>2019-08-13T11:48:39Z</time>
      </trkpt>
      <trkpt lat="40.2304290" lon="-4.4522250">
        <ele>640.7</ele>
        <time>2019-08-13T11:48:40Z</time>
      </trkpt>
      <trkpt lat="40.2304750" lon="-4.4522290">
        <ele>640.7</ele>
        <time>2019-08-13T11:48:41Z</time>
      </trkpt>
      <trkpt lat="40.2305200" lon="-4.4522300">
        <ele>640.7</ele>
        <time>2019-08-13T11:48:42Z</time>
      </trkpt>
      <trkpt lat="40.2305660" lon="-4.4522300">
        <ele>640.8</ele>
        <time>2019-08-13T11:48:43Z</time>
      </trkpt>
      <trkpt lat="40.2306130" lon="-4.4522280">
        <ele>640.8</ele>
        <time>2019-08-13T11:48:44Z</time>
      </trkpt>
      <trkpt lat="40.2306590" lon="-4.4522290">
        <ele>640.8</ele>
        <time>2019-08-13T11:48:45Z</time>
      </trkpt>
      <trkpt lat="40.2307070" lon="-4.4522310">
        <ele>640.9</ele>
        <time>2019-08-13T11:48:46Z</time>
      </trkpt>
      <trkpt lat="40.2307540" lon="-4.4522320">
        <ele>640.9</ele>
        <time>2019-08-13T11:48:47Z</time>
      </trkpt>
      <trkpt lat="40.2308020" lon="-4.4522330">
        <ele>641.0</ele>
        <time>2019-08-13T11:48:48Z</time>
      </trkpt>
      <trkpt lat="40.2308490" lon="-4.4522370">
        <ele>641.0</ele>
        <time>2019-08-13T11:48:49Z</time>
      </trkpt>
      <trkpt lat="40.2308960" lon="-4.4522420">
        <ele>641.1</ele>
        <time>2019-08-13T11:48:50Z</time>
      </trkpt>
      <trkpt lat="40.2309410" lon="-4.4522450">
        <ele>641.1</ele>
        <time>2019-08-13T11:48:51Z</time>
      </trkpt>
      <trkpt lat="40.2309860" lon="-4.4522480">
        <ele>641.1</ele>
        <time>2019-08-13T11:48:52Z</time>
      </trkpt>
      <trkpt lat="40.2310280" lon="-4.4522520">
        <ele>641.2</ele>
        <time>2019-08-13T11:48:53Z</time>
      </trkpt>
      <trkpt lat="40.2310690" lon="-4.4522540">
        <ele>641.2</ele>
        <time>2019-08-13T11:48:54Z</time>
      </trkpt>
      <trkpt lat="40.2311070" lon="-4.4522560">
        <ele>641.2</ele>
        <time>2019-08-13T11:48:55Z</time>
      </trkpt>
      <trkpt lat="40.2311450" lon="-4.4522590">
        <ele>641.3</ele>
        <time>2019-08-13T11:48:56Z</time>
      </trkpt>
      <trkpt lat="40.2311820" lon="-4.4522600">
        <ele>641.3</ele>
        <time>2019-08-13T11:48:57Z</time>
      </trkpt>
      <trkpt lat="40.2312190" lon="-4.4522610">
        <ele>641.3</ele>
        <time>2019-08-13T11:48:58Z</time>
      </trkpt>
      <trkpt lat="40.2312550" lon="-4.4522630">
        <ele>641.4</ele>
        <time>2019-08-13T11:48:59Z</time>
      </trkpt>
      <trkpt lat="40.2312910" lon="-4.4522650">
        <ele>641.4</ele>
        <time>2019-08-13T11:49:00Z</time>
      </trkpt>
      <trkpt lat="40.2313280" lon="-4.4522700">
        <ele>641.5</ele>
        <time>2019-08-13T11:49:01Z</time>
      </trkpt>
      <trkpt lat="40.2313620" lon="-4.4522730">
        <ele>641.5</ele>
        <time>2019-08-13T11:49:02Z</time>
      </trkpt>
      <trkpt lat="40.2313980" lon="-4.4522750">
        <ele>641.6</ele>
        <time>2019-08-13T11:49:03Z</time>
      </trkpt>
      <trkpt lat="40.2314320" lon="-4.4522750">
        <ele>641.7</ele>
        <time>2019-08-13T11:49:04Z</time>
      </trkpt>
      <trkpt lat="40.2314660" lon="-4.4522760">
        <ele>641.8</ele>
        <time>2019-08-13T11:49:05Z</time>
      </trkpt>
      <trkpt lat="40.2315010" lon="-4.4522780">
        <ele>641.9</ele>
        <time>2019-08-13T11:49:06Z</time>
      </trkpt>
      <trkpt lat="40.2315340" lon="-4.4522820">
        <ele>642.0</ele>
        <time>2019-08-13T11:49:07Z</time>
      </trkpt>
      <trkpt lat="40.2315680" lon="-4.4522850">
        <ele>642.1</ele>
        <time>2019-08-13T11:49:08Z</time>
      </trkpt>
      <trkpt lat="40.2316020" lon="-4.4522870">
        <ele>642.2</ele>
        <time>2019-08-13T11:49:09Z</time>
      </trkpt>
      <trkpt lat="40.2316360" lon="-4.4522880">
        <ele>642.4</ele>
        <time>2019-08-13T11:49:10Z</time>
      </trkpt>
      <trkpt lat="40.2316710" lon="-4.4522900">
        <ele>642.5</ele>
        <time>2019-08-13T11:49:11Z</time>
      </trkpt>
      <trkpt lat="40.2317060" lon="-4.4522910">
        <ele>642.7</ele>
        <time>2019-08-13T11:49:12Z</time>
      </trkpt>
      <trkpt lat="40.2317410" lon="-4.4522930">
        <ele>642.9</ele>
        <time>2019-08-13T11:49:13Z</time>
      </trkpt>
      <trkpt lat="40.2317760" lon="-4.4522940">
        <ele>643.0</ele>
        <time>2019-08-13T11:49:14Z</time>
      </trkpt>
      <trkpt lat="40.2318110" lon="-4.4522970">
        <ele>643.2</ele>
        <time>2019-08-13T11:49:15Z</time>
      </trkpt>
      <trkpt lat="40.2318470" lon="-4.4523000">
        <ele>643.4</ele>
        <time>2019-08-13T11:49:16Z</time>
      </trkpt>
      <trkpt lat="40.2318820" lon="-4.4523020">
        <ele>643.5</ele>
        <time>2019-08-13T11:49:17Z</time>
      </trkpt>
      <trkpt lat="40.2319170" lon="-4.4523040">
        <ele>643.7</ele>
        <time>2019-08-13T11:49:18Z</time>
      </trkpt>
      <trkpt lat="40.2319520" lon="-4.4523050">
        <ele>643.9</ele>
        <time>2019-08-13T11:49:19Z</time>
      </trkpt>
      <trkpt lat="40.2319850" lon="-4.4523070">
        <ele>644.0</ele>
        <time>2019-08-13T11:49:20Z</time>
      </trkpt>
      <trkpt lat="40.2320200" lon="-4.4523100">
        <ele>644.2</ele>
        <time>2019-08-13T11:49:21Z</time>
      </trkpt>
      <trkpt lat="40.2320540" lon="-4.4523140">
        <ele>644.4</ele>
        <time>2019-08-13T11:49:22Z</time>
      </trkpt>
      <trkpt lat="40.2320890" lon="-4.4523170">
        <ele>644.6</ele>
        <time>2019-08-13T11:49:23Z</time>
      </trkpt>
      <trkpt lat="40.2321240" lon="-4.4523200">
        <ele>644.7</ele>
        <time>2019-08-13T11:49:24Z</time>
      </trkpt>
      <trkpt lat="40.2321590" lon="-4.4523220">
        <ele>644.9</ele>
        <time>2019-08-13T11:49:25Z</time>
      </trkpt>
      <trkpt lat="40.2321940" lon="-4.4523230">
        <ele>645.0</ele>
        <time>2019-08-13T11:49:26Z</time>
      </trkpt>
      <trkpt lat="40.2322300" lon="-4.4523240">
        <ele>645.2</ele>
        <time>2019-08-13T11:49:27Z</time>
      </trkpt>
      <trkpt lat="40.2322670" lon="-4.4523270">
        <ele>645.4</ele>
        <time>2019-08-13T11:49:28Z</time>
      </trkpt>
      <trkpt lat="40.2323040" lon="-4.4523290">
        <ele>645.5</ele>
        <time>2019-08-13T11:49:29Z</time>
      </trkpt>
      <trkpt lat="40.2323410" lon="-4.4523310">
        <ele>645.7</ele>
        <time>2019-08-13T11:49:30Z</time>
      </trkpt>
      <trkpt lat="40.2323750" lon="-4.4523320">
        <ele>645.8</ele>
        <time>2019-08-13T11:49:31Z</time>
      </trkpt>
      <trkpt lat="40.2324080" lon="-4.4523330">
        <ele>645.9</ele>
        <time>2019-08-13T11:49:32Z</time>
      </trkpt>
      <trkpt lat="40.2324440" lon="-4.4523350">
        <ele>646.1</ele>
        <time>2019-08-13T11:49:33Z</time>
      </trkpt>
      <trkpt lat="40.2324800" lon="-4.4523380">
        <ele>646.3</ele>
        <time>2019-08-13T11:49:34Z</time>
      </trkpt>
      <trkpt lat="40.2325150" lon="-4.4523410">
        <ele>646.4</ele>
        <time>2019-08-13T11:49:35Z</time>
      </trkpt>
      <trkpt lat="40.2325490" lon="-4.4523430">
        <ele>646.6</ele>
        <time>2019-08-13T11:49:36Z</time>
      </trkpt>
      <trkpt lat="40.2325840" lon="-4.4523460">
        <ele>646.7</ele>
        <time>2019-08-13T11:49:37Z</time>
      </trkpt>
      <trkpt lat="40.2326180" lon="-4.4523490">
        <ele>646.9</ele>
        <time>2019-08-13T11:49:38Z</time>
      </trkpt>
      <trkpt lat="40.2326530" lon="-4.4523510">
        <ele>647.0</ele>
        <time>2019-08-13T11:49:39Z</time>
      </trkpt>
      <trkpt lat="40.2326880" lon="-4.4523520">
        <ele>647.2</ele>
        <time>2019-08-13T11:49:40Z</time>
      </trkpt>
      <trkpt lat="40.2327240" lon="-4.4523530">
        <ele>647.4</ele>
        <time>2019-08-13T11:49:41Z</time>
      </trkpt>
      <trkpt lat="40.2327600" lon="-4.4523550">
        <ele>647.6</ele>
        <time>2019-08-13T11:49:42Z</time>
      </trkpt>
      <trkpt lat="40.2327950" lon="-4.4523560">
        <ele>647.8</ele>
        <time>2019-08-13T11:49:43Z</time>
      </trkpt>
      <trkpt lat="40.2328310" lon="-4.4523580">
        <ele>647.9</ele>
        <time>2019-08-13T11:49:44Z</time>
      </trkpt>
      <trkpt lat="40.2328670" lon="-4.4523590">
        <ele>648.2</ele>
        <time>2019-08-13T11:49:45Z</time>
      </trkpt>
      <trkpt lat="40.2329030" lon="-4.4523600">
        <ele>648.5</ele>
        <time>2019-08-13T11:49:46Z</time>
      </trkpt>
      <trkpt lat="40.2329380" lon="-4.4523630">
        <ele>648.8</ele>
        <time>2019-08-13T11:49:47Z</time>
      </trkpt>
      <trkpt lat="40.2329740" lon="-4.4523650">
        <ele>649.1</ele>
        <time>2019-08-13T11:49:48Z</time>
      </trkpt>
      <trkpt lat="40.2330100" lon="-4.4523670">
        <ele>649.4</ele>
        <time>2019-08-13T11:49:49Z</time>
      </trkpt>
      <trkpt lat="40.2330450" lon="-4.4523700">
        <ele>649.6</ele>
        <time>2019-08-13T11:49:50Z</time>
      </trkpt>
      <trkpt lat="40.2330810" lon="-4.4523720">
        <ele>649.9</ele>
        <time>2019-08-13T11:49:51Z</time>
      </trkpt>
      <trkpt lat="40.2331160" lon="-4.4523730">
        <ele>650.2</ele>
        <time>2019-08-13T11:49:52Z</time>
      </trkpt>
      <trkpt lat="40.2331510" lon="-4.4523730">
        <ele>650.5</ele>
        <time>2019-08-13T11:49:53Z</time>
      </trkpt>
      <trkpt lat="40.2331860" lon="-4.4523740">
        <ele>650.8</ele>
        <time>2019-08-13T11:49:54Z</time>
      </trkpt>
      <trkpt lat="40.2332200" lon="-4.4523750">
        <ele>651.1</ele>
        <time>2019-08-13T11:49:55Z</time>
      </trkpt>
      <trkpt lat="40.2332530" lon="-4.4523760">
        <ele>651.3</ele>
        <time>2019-08-13T11:49:56Z</time>
      </trkpt>
      <trkpt lat="40.2332870" lon="-4.4523770">
        <ele>651.6</ele>
        <time>2019-08-13T11:49:57Z</time>
      </trkpt>
      <trkpt lat="40.2333220" lon="-4.4523770">
        <ele>651.9</ele>
        <time>2019-08-13T11:49:58Z</time>
      </trkpt>
      <trkpt lat="40.2333560" lon="-4.4523750">
        <ele>652.2</ele>
        <time>2019-08-13T11:49:59Z</time>
      </trkpt>
      <trkpt lat="40.2333910" lon="-4.4523730">
        <ele>652.5</ele>
        <time>2019-08-13T11:50:00Z</time>
      </trkpt>
      <trkpt lat="40.2334250" lon="-4.4523720">
        <ele>652.8</ele>
        <time>2019-08-13T11:50:01Z</time>
      </trkpt>
      <trkpt lat="40.2334600" lon="-4.4523720">
        <ele>653.1</ele>
        <time>2019-08-13T11:50:02Z</time>
      </trkpt>
      <trkpt lat="40.2334940" lon="-4.4523720">
        <ele>653.2</ele>
        <time>2019-08-13T11:50:03Z</time>
      </trkpt>
      <trkpt lat="40.2335280" lon="-4.4523710">
        <ele>653.4</ele>
        <time>2019-08-13T11:50:04Z</time>
      </trkpt>
      <trkpt lat="40.2335620" lon="-4.4523700">
        <ele>653.5</ele>
        <time>2019-08-13T11:50:05Z</time>
      </trkpt>
      <trkpt lat="40.2335960" lon="-4.4523670">
        <ele>653.6</ele>
        <time>2019-08-13T11:50:06Z</time>
      </trkpt>
      <trkpt lat="40.2336300" lon="-4.4523640">
        <ele>653.8</ele>
        <time>2019-08-13T11:50:07Z</time>
      </trkpt>
      <trkpt lat="40.2336650" lon="-4.4523600">
        <ele>653.9</ele>
        <time>2019-08-13T11:50:08Z</time>
      </trkpt>
      <trkpt lat="40.2337000" lon="-4.4523580">
        <ele>654.1</ele>
        <time>2019-08-13T11:50:09Z</time>
      </trkpt>
      <trkpt lat="40.2337360" lon="-4.4523570">
        <ele>654.2</ele>
        <time>2019-08-13T11:50:10Z</time>
      </trkpt>
      <trkpt lat="40.2337710" lon="-4.4523560">
        <ele>654.4</ele>
        <time>2019-08-13T11:50:11Z</time>
      </trkpt>
      <trkpt lat="40.2338070" lon="-4.4523540">
        <ele>654.5</ele>
        <time>2019-08-13T11:50:12Z</time>
      </trkpt>
      <trkpt lat="40.2338420" lon="-4.4523530">
        <ele>654.7</ele>
        <time>2019-08-13T11:50:13Z</time>
      </trkpt>
      <trkpt lat="40.2338770" lon="-4.4523530">
        <ele>654.8</ele>
        <time>2019-08-13T11:50:14Z</time>
      </trkpt>
      <trkpt lat="40.2339130" lon="-4.4523530">
        <ele>655.0</ele>
        <time>2019-08-13T11:50:15Z</time>
      </trkpt>
      <trkpt lat="40.2339480" lon="-4.4523520">
        <ele>655.1</ele>
        <time>2019-08-13T11:50:16Z</time>
      </trkpt>
      <trkpt lat="40.2339830" lon="-4.4523500">
        <ele>655.3</ele>
        <time>2019-08-13T11:50:17Z</time>
      </trkpt>
      <trkpt lat="40.2340180" lon="-4.4523470">
        <ele>655.4</ele>
        <time>2019-08-13T11:50:18Z</time>
      </trkpt>
      <trkpt lat="40.2340530" lon="-4.4523470">
        <ele>655.6</ele>
        <time>2019-08-13T11:50:19Z</time>
      </trkpt>
      <trkpt lat="40.2340880" lon="-4.4523470">
        <ele>655.7</ele>
        <time>2019-08-13T11:50:20Z</time>
      </trkpt>
      <trkpt lat="40.2341230" lon="-4.4523460">
        <ele>655.9</ele>
        <time>2019-08-13T11:50:21Z</time>
      </trkpt>
      <trkpt lat="40.2341570" lon="-4.4523440">
        <ele>656.0</ele>
        <time>2019-08-13T11:50:22Z</time>
      </trkpt>
      <trkpt lat="40.2341920" lon="-4.4523430">
        <ele>656.2</ele>
        <time>2019-08-13T11:50:23Z</time>
      </trkpt>
      <trkpt lat="40.2342280" lon="-4.4523410">
        <ele>656.3</ele>
        <time>2019-08-13T11:50:24Z</time>
      </trkpt>
      <trkpt lat="40.2342620" lon="-4.4523390">
        <ele>656.5</ele>
        <time>2019-08-13T11:50:25Z</time>
      </trkpt>
      <trkpt lat="40.2342940" lon="-4.4523380">
        <ele>656.6</ele>
        <time>2019-08-13T11:50:26Z</time>
      </trkpt>
      <trkpt lat="40.2343280" lon="-4.4523380">
        <ele>656.8</ele>
        <time>2019-08-13T11:50:27Z</time>
      </trkpt>
      <trkpt lat="40.2343630" lon="-4.4523380">
        <ele>656.9</ele>
        <time>2019-08-13T11:50:28Z</time>
      </trkpt>
      <trkpt lat="40.2343990" lon="-4.4523370">
        <ele>657.1</ele>
        <time>2019-08-13T11:50:29Z</time>
      </trkpt>
      <trkpt lat="40.2344370" lon="-4.4523350">
        <ele>657.3</ele>
        <time>2019-08-13T11:50:30Z</time>
      </trkpt>
      <trkpt lat="40.2344740" lon="-4.4523350">
        <ele>657.5</ele>
        <time>2019-08-13T11:50:31Z</time>
      </trkpt>
      <trkpt lat="40.2345100" lon="-4.4523360">
        <ele>657.7</ele>
        <time>2019-08-13T11:50:32Z</time>
      </trkpt>
      <trkpt lat="40.2345430" lon="-4.4523370">
        <ele>657.8</ele>
        <time>2019-08-13T11:50:33Z</time>
      </trkpt>
      <trkpt lat="40.2345760" lon="-4.4523370">
        <ele>658.0</ele>
        <time>2019-08-13T11:50:34Z</time>
      </trkpt>
      <trkpt lat="40.2346110" lon="-4.4523330">
        <ele>658.2</ele>
        <time>2019-08-13T11:50:35Z</time>
      </trkpt>
      <trkpt lat="40.2346450" lon="-4.4523290">
        <ele>658.4</ele>
        <time>2019-08-13T11:50:36Z</time>
      </trkpt>
      <trkpt lat="40.2346810" lon="-4.4523260">
        <ele>658.6</ele>
        <time>2019-08-13T11:50:37Z</time>
      </trkpt>
      <trkpt lat="40.2347170" lon="-4.4523240">
        <ele>658.8</ele>
        <time>2019-08-13T11:50:38Z</time>
      </trkpt>
      <trkpt lat="40.2347530" lon="-4.4523220">
        <ele>659.0</ele>
        <time>2019-08-13T11:50:39Z</time>
      </trkpt>
      <trkpt lat="40.2347900" lon="-4.4523200">
        <ele>659.2</ele>
        <time>2019-08-13T11:50:40Z</time>
      </trkpt>
      <trkpt lat="40.2348270" lon="-4.4523170">
        <ele>659.3</ele>
        <time>2019-08-13T11:50:41Z</time>
      </trkpt>
      <trkpt lat="40.2348640" lon="-4.4523140">
        <ele>659.5</ele>
        <time>2019-08-13T11:50:42Z</time>
      </trkpt>
      <trkpt lat="40.2349010" lon="-4.4523080">
        <ele>659.6</ele>
        <time>2019-08-13T11:50:43Z</time>
      </trkpt>
      <trkpt lat="40.2349370" lon="-4.4523010">
        <ele>659.7</ele>
        <time>2019-08-13T11:50:44Z</time>
      </trkpt>
      <trkpt lat="40.2349740" lon="-4.4522930">
        <ele>659.8</ele>
        <time>2019-08-13T11:50:45Z</time>
      </trkpt>
      <trkpt lat="40.2350090" lon="-4.4522830">
        <ele>659.9</ele>
        <time>2019-08-13T11:50:46Z</time>
      </trkpt>
      <trkpt lat="40.2350450" lon="-4.4522710">
        <ele>660.0</ele>
        <time>2019-08-13T11:50:47Z</time>
      </trkpt>
      <trkpt lat="40.2350810" lon="-4.4522580">
        <ele>660.1</ele>
        <time>2019-08-13T11:50:48Z</time>
      </trkpt>
      <trkpt lat="40.2351150" lon="-4.4522450">
        <ele>660.3</ele>
        <time>2019-08-13T11:50:49Z</time>
      </trkpt>
      <trkpt lat="40.2351480" lon="-4.4522300">
        <ele>660.5</ele>
        <time>2019-08-13T11:50:50Z</time>
      </trkpt>
      <trkpt lat="40.2351800" lon="-4.4522140">
        <ele>660.6</ele>
        <time>2019-08-13T11:50:51Z</time>
      </trkpt>
      <trkpt lat="40.2352120" lon="-4.4521980">
        <ele>660.8</ele>
        <time>2019-08-13T11:50:52Z</time>
      </trkpt>
      <trkpt lat="40.2352440" lon="-4.4521810">
        <ele>660.9</ele>
        <time>2019-08-13T11:50:53Z</time>
      </trkpt>
      <trkpt lat="40.2352750" lon="-4.4521640">
        <ele>661.1</ele>
        <time>2019-08-13T11:50:54Z</time>
      </trkpt>
      <trkpt lat="40.2353050" lon="-4.4521460">
        <ele>661.3</ele>
        <time>2019-08-13T11:50:55Z</time>
      </trkpt>
      <trkpt lat="40.2353350" lon="-4.4521280">
        <ele>661.4</ele>
        <time>2019-08-13T11:50:56Z</time>
      </trkpt>
      <trkpt lat="40.2353650" lon="-4.4521090">
        <ele>661.5</ele>
        <time>2019-08-13T11:50:57Z</time>
      </trkpt>
      <trkpt lat="40.2353970" lon="-4.4520880">
        <ele>661.6</ele>
        <time>2019-08-13T11:50:58Z</time>
      </trkpt>
      <trkpt lat="40.2354290" lon="-4.4520660">
        <ele>661.7</ele>
        <time>2019-08-13T11:50:59Z</time>
      </trkpt>
      <trkpt lat="40.2354610" lon="-4.4520430">
        <ele>661.8</ele>
        <time>2019-08-13T11:51:00Z</time>
      </trkpt>
      <trkpt lat="40.2354940" lon="-4.4520210">
        <ele>661.8</ele>
        <time>2019-08-13T11:51:01Z</time>
      </trkpt>
      <trkpt lat="40.2355270" lon="-4.4520000">
        <ele>661.9</ele>
        <time>2019-08-13T11:51:02Z</time>
      </trkpt>
      <trkpt lat="40.2355610" lon="-4.4519790">
        <ele>661.9</ele>
        <time>2019-08-13T11:51:03Z</time>
      </trkpt>
      <trkpt lat="40.2355930" lon="-4.4519590">
        <ele>661.9</ele>
        <time>2019-08-13T11:51:04Z</time>
      </trkpt>
      <trkpt lat="40.2356230" lon="-4.4519410">
        <ele>662.0</ele>
        <time>2019-08-13T11:51:05Z</time>
      </trkpt>
      <trkpt lat="40.2356560" lon="-4.4519230">
        <ele>662.0</ele>
        <time>2019-08-13T11:51:06Z</time>
      </trkpt>
      <trkpt lat="40.2356910" lon="-4.4519090">
        <ele>662.1</ele>
        <time>2019-08-13T11:51:07Z</time>
      </trkpt>
      <trkpt lat="40.2357290" lon="-4.4518970">
        <ele>662.1</ele>
        <time>2019-08-13T11:51:08Z</time>
      </trkpt>
      <trkpt lat="40.2357690" lon="-4.4518870">
        <ele>662.2</ele>
        <time>2019-08-13T11:51:09Z</time>
      </trkpt>
      <trkpt lat="40.2358110" lon="-4.4518790">
        <ele>662.3</ele>
        <time>2019-08-13T11:51:10Z</time>
      </trkpt>
      <trkpt lat="40.2358540" lon="-4.4518770">
        <ele>662.5</ele>
        <time>2019-08-13T11:51:11Z</time>
      </trkpt>
      <trkpt lat="40.2358960" lon="-4.4518800">
        <ele>662.6</ele>
        <time>2019-08-13T11:51:12Z</time>
      </trkpt>
      <trkpt lat="40.2359350" lon="-4.4518890">
        <ele>662.8</ele>
        <time>2019-08-13T11:51:13Z</time>
      </trkpt>
      <trkpt lat="40.2359730" lon="-4.4519020">
        <ele>663.0</ele>
        <time>2019-08-13T11:51:14Z</time>
      </trkpt>
      <trkpt lat="40.2360080" lon="-4.4519150">
        <ele>663.1</ele>
        <time>2019-08-13T11:51:15Z</time>
      </trkpt>
      <trkpt lat="40.2360410" lon="-4.4519290">
        <ele>663.1</ele>
        <time>2019-08-13T11:51:16Z</time>
      </trkpt>
      <trkpt lat="40.2360730" lon="-4.4519430">
        <ele>663.1</ele>
        <time>2019-08-13T11:51:17Z</time>
      </trkpt>
      <trkpt lat="40.2361040" lon="-4.4519580">
        <ele>663.1</ele>
        <time>2019-08-13T11:51:18Z</time>
      </trkpt>
      <trkpt lat="40.2361310" lon="-4.4519720">
        <ele>663.1</ele>
        <time>2019-08-13T11:51:19Z</time>
      </trkpt>
      <trkpt lat="40.2361600" lon="-4.4519860">
        <ele>663.1</ele>
        <time>2019-08-13T11:51:20Z</time>
      </trkpt>
      <trkpt lat="40.2361910" lon="-4.4520010">
        <ele>663.0</ele>
        <time>2019-08-13T11:51:21Z</time>
      </trkpt>
      <trkpt lat="40.2362250" lon="-4.4520130">
        <ele>663.0</ele>
        <time>2019-08-13T11:51:22Z</time>
      </trkpt>
      <trkpt lat="40.2362600" lon="-4.4520280">
        <ele>663.0</ele>
        <time>2019-08-13T11:51:23Z</time>
      </trkpt>
      <trkpt lat="40.2362960" lon="-4.4520450">
        <ele>663.0</ele>
        <time>2019-08-13T11:51:24Z</time>
      </trkpt>
      <trkpt lat="40.2363320" lon="-4.4520620">
        <ele>663.0</ele>
        <time>2019-08-13T11:51:25Z</time>
      </trkpt>
      <trkpt lat="40.2363670" lon="-4.4520810">
        <ele>663.0</ele>
        <time>2019-08-13T11:51:26Z</time>
      </trkpt>
      <trkpt lat="40.2364000" lon="-4.4520980">
        <ele>663.0</ele>
        <time>2019-08-13T11:51:27Z</time>
      </trkpt>
      <trkpt lat="40.2364350" lon="-4.4521140">
        <ele>663.0</ele>
        <time>2019-08-13T11:51:28Z</time>
      </trkpt>
      <trkpt lat="40.2364720" lon="-4.4521300">
        <ele>663.0</ele>
        <time>2019-08-13T11:51:29Z</time>
      </trkpt>
      <trkpt lat="40.2365100" lon="-4.4521470">
        <ele>663.0</ele>
        <time>2019-08-13T11:51:30Z</time>
      </trkpt>
      <trkpt lat="40.2365490" lon="-4.4521650">
        <ele>663.0</ele>
        <time>2019-08-13T11:51:31Z</time>
      </trkpt>
      <trkpt lat="40.2365880" lon="-4.4521860">
        <ele>662.9</ele>
        <time>2019-08-13T11:51:32Z</time>
      </trkpt>
      <trkpt lat="40.2366260" lon="-4.4522040">
        <ele>662.9</ele>
        <time>2019-08-13T11:51:33Z</time>
      </trkpt>
      <trkpt lat="40.2366620" lon="-4.4522210">
        <ele>662.9</ele>
        <time>2019-08-13T11:51:34Z</time>
      </trkpt>
      <trkpt lat="40.2366990" lon="-4.4522370">
        <ele>662.9</ele>
        <time>2019-08-13T11:51:35Z</time>
      </trkpt>
      <trkpt lat="40.2367370" lon="-4.4522530">
        <ele>662.8</ele>
        <time>2019-08-13T11:51:36Z</time>
      </trkpt>
      <trkpt lat="40.2367750" lon="-4.4522700">
        <ele>662.8</ele>
        <time>2019-08-13T11:51:37Z</time>
      </trkpt>
      <trkpt lat="40.2368130" lon="-4.4522890">
        <ele>662.7</ele>
        <time>2019-08-13T11:51:38Z</time>
      </trkpt>
      <trkpt lat="40.2368520" lon="-4.4523110">
        <ele>662.6</ele>
        <time>2019-08-13T11:51:39Z</time>
      </trkpt>
      <trkpt lat="40.2368900" lon="-4.4523350">
        <ele>662.5</ele>
        <time>2019-08-13T11:51:40Z</time>
      </trkpt>
      <trkpt lat="40.2369280" lon="-4.4523620">
        <ele>662.3</ele>
        <time>2019-08-13T11:51:41Z</time>
      </trkpt>
      <trkpt lat="40.2369640" lon="-4.4523930">
        <ele>662.2</ele>
        <time>2019-08-13T11:51:42Z</time>
      </trkpt>
      <trkpt lat="40.2369960" lon="-4.4524270">
        <ele>662.0</ele>
        <time>2019-08-13T11:51:43Z</time>
      </trkpt>
      <trkpt lat="40.2370260" lon="-4.4524620">
        <ele>661.8</ele>
        <time>2019-08-13T11:51:44Z</time>
      </trkpt>
      <trkpt lat="40.2370530" lon="-4.4524960">
        <ele>661.5</ele>
        <time>2019-08-13T11:51:45Z</time>
      </trkpt>
      <trkpt lat="40.2370780" lon="-4.4525320">
        <ele>661.4</ele>
        <time>2019-08-13T11:51:46Z</time>
      </trkpt>
      <trkpt lat="40.2371020" lon="-4.4525730">
        <ele>661.2</ele>
        <time>2019-08-13T11:51:47Z</time>
      </trkpt>
      <trkpt lat="40.2371250" lon="-4.4526170">
        <ele>661.1</ele>
        <time>2019-08-13T11:51:48Z</time>
      </trkpt>
      <trkpt lat="40.2371460" lon="-4.4526650">
        <ele>661.0</ele>
        <time>2019-08-13T11:51:49Z</time>
      </trkpt>
      <trkpt lat="40.2371650" lon="-4.4527170">
        <ele>660.9</ele>
        <time>2019-08-13T11:51:50Z</time>
      </trkpt>
      <trkpt lat="40.2371820" lon="-4.4527720">
        <ele>660.8</ele>
        <time>2019-08-13T11:51:51Z</time>
      </trkpt>
      <trkpt lat="40.2371930" lon="-4.4528310">
        <ele>660.8</ele>
        <time>2019-08-13T11:51:52Z</time>
      </trkpt>
      <trkpt lat="40.2372010" lon="-4.4528920">
        <ele>660.8</ele>
        <time>2019-08-13T11:51:53Z</time>
      </trkpt>
      <trkpt lat="40.2372060" lon="-4.4529560">
        <ele>660.8</ele>
        <time>2019-08-13T11:51:54Z</time>
      </trkpt>
      <trkpt lat="40.2372120" lon="-4.4530240">
        <ele>660.8</ele>
        <time>2019-08-13T11:51:55Z</time>
      </trkpt>
      <trkpt lat="40.2372140" lon="-4.4530930">
        <ele>660.8</ele>
        <time>2019-08-13T11:51:56Z</time>
      </trkpt>
      <trkpt lat="40.2372180" lon="-4.4531560">
        <ele>660.9</ele>
        <time>2019-08-13T11:51:57Z</time>
      </trkpt>
      <trkpt lat="40.2372200" lon="-4.4532170">
        <ele>661.1</ele>
        <time>2019-08-13T11:51:58Z</time>
      </trkpt>
      <trkpt lat="40.2372220" lon="-4.4532760">
        <ele>661.2</ele>
        <time>2019-08-13T11:51:59Z</time>
      </trkpt>
      <trkpt lat="40.2372230" lon="-4.4533320">
        <ele>661.4</ele>
        <time>2019-08-13T11:52:00Z</time>
      </trkpt>
      <trkpt lat="40.2372230" lon="-4.4533870">
        <ele>661.6</ele>
        <time>2019-08-13T11:52:01Z</time>
      </trkpt>
      <trkpt lat="40.2372240" lon="-4.4534400">
        <ele>661.8</ele>
        <time>2019-08-13T11:52:02Z</time>
      </trkpt>
      <trkpt lat="40.2372240" lon="-4.4534900">
        <ele>661.9</ele>
        <time>2019-08-13T11:52:03Z</time>
      </trkpt>
      <trkpt lat="40.2372260" lon="-4.4535410">
        <ele>662.1</ele>
        <time>2019-08-13T11:52:04Z</time>
      </trkpt>
      <trkpt lat="40.2372260" lon="-4.4535940">
        <ele>662.2</ele>
        <time>2019-08-13T11:52:05Z</time>
      </trkpt>
      <trkpt lat="40.2372280" lon="-4.4536500">
        <ele>662.3</ele>
        <time>2019-08-13T11:52:06Z</time>
      </trkpt>
      <trkpt lat="40.2372300" lon="-4.4537080">
        <ele>662.4</ele>
        <time>2019-08-13T11:52:07Z</time>
      </trkpt>
      <trkpt lat="40.2372320" lon="-4.4537720">
        <ele>662.5</ele>
        <time>2019-08-13T11:52:08Z</time>
      </trkpt>
      <trkpt lat="40.2372340" lon="-4.4538390">
        <ele>662.5</ele>
        <time>2019-08-13T11:52:09Z</time>
      </trkpt>
      <trkpt lat="40.2372390" lon="-4.4539040">
        <ele>662.5</ele>
        <time>2019-08-13T11:52:10Z</time>
      </trkpt>
      <trkpt lat="40.2372490" lon="-4.4539690">
        <ele>662.5</ele>
        <time>2019-08-13T11:52:11Z</time>
      </trkpt>
      <trkpt lat="40.2372600" lon="-4.4540350">
        <ele>662.5</ele>
        <time>2019-08-13T11:52:12Z</time>
      </trkpt>
      <trkpt lat="40.2372770" lon="-4.4540990">
        <ele>662.5</ele>
        <time>2019-08-13T11:52:13Z</time>
      </trkpt>
      <trkpt lat="40.2372990" lon="-4.4541620">
        <ele>662.5</ele>
        <time>2019-08-13T11:52:14Z</time>
      </trkpt>
      <trkpt lat="40.2373220" lon="-4.4542250">
        <ele>662.5</ele>
        <time>2019-08-13T11:52:15Z</time>
      </trkpt>
      <trkpt lat="40.2373500" lon="-4.4542870">
        <ele>662.5</ele>
        <time>2019-08-13T11:52:16Z</time>
      </trkpt>
      <trkpt lat="40.2373850" lon="-4.4543420">
        <ele>662.4</ele>
        <time>2019-08-13T11:52:17Z</time>
      </trkpt>
      <trkpt lat="40.2374260" lon="-4.4543900">
        <ele>662.4</ele>
        <time>2019-08-13T11:52:18Z</time>
      </trkpt>
      <trkpt lat="40.2374710" lon="-4.4544310">
        <ele>662.4</ele>
        <time>2019-08-13T11:52:19Z</time>
      </trkpt>
      <trkpt lat="40.2375170" lon="-4.4544680">
        <ele>662.4</ele>
        <time>2019-08-13T11:52:20Z</time>
      </trkpt>
      <trkpt lat="40.2375650" lon="-4.4544980">
        <ele>662.4</ele>
        <time>2019-08-13T11:52:21Z</time>
      </trkpt>
      <trkpt lat="40.2376170" lon="-4.4545210">
        <ele>662.3</ele>
        <time>2019-08-13T11:52:22Z</time>
      </trkpt>
      <trkpt lat="40.2376710" lon="-4.4545370">
        <ele>662.2</ele>
        <time>2019-08-13T11:52:23Z</time>
      </trkpt>
      <trkpt lat="40.2377250" lon="-4.4545530">
        <ele>662.1</ele>
        <time>2019-08-13T11:52:24Z</time>
      </trkpt>
      <trkpt lat="40.2377770" lon="-4.4545700">
        <ele>662.0</ele>
        <time>2019-08-13T11:52:25Z</time>
      </trkpt>
      <trkpt lat="40.2378290" lon="-4.4545850">
        <ele>661.9</ele>
        <time>2019-08-13T11:52:26Z</time>
      </trkpt>
      <trkpt lat="40.2378790" lon="-4.4545970">
        <ele>661.7</ele>
        <time>2019-08-13T11:52:27Z</time>
      </trkpt>
      <trkpt lat="40.2379250" lon="-4.4546050">
        <ele>661.5</ele>
        <time>2019-08-13T11:52:28Z</time>
      </trkpt>
      <trkpt lat="40.2379700" lon="-4.4546110">
        <ele>661.3</ele>
        <time>2019-08-13T11:52:29Z</time>
      </trkpt>
      <trkpt lat="40.2380140" lon="-4.4546180">
        <ele>661.1</ele>
        <time>2019-08-13T11:52:30Z</time>
      </trkpt>
      <trkpt lat="40.2380580" lon="-4.4546240">
        <ele>661.0</ele>
        <time>2019-08-13T11:52:31Z</time>
      </trkpt>
      <trkpt lat="40.2381010" lon="-4.4546270">
        <ele>660.9</ele>
        <time>2019-08-13T11:52:32Z</time>
      </trkpt>
      <trkpt lat="40.2381420" lon="-4.4546260">
        <ele>660.9</ele>
        <time>2019-08-13T11:52:33Z</time>
      </trkpt>
      <trkpt lat="40.2381810" lon="-4.4546230">
        <ele>660.9</ele>
        <time>2019-08-13T11:52:34Z</time>
      </trkpt>
      <trkpt lat="40.2382190" lon="-4.4546170">
        <ele>661.1</ele>
        <time>2019-08-13T11:52:35Z</time>
      </trkpt>
      <trkpt lat="40.2382560" lon="-4.4546090">
        <ele>661.3</ele>
        <time>2019-08-13T11:52:36Z</time>
      </trkpt>
      <trkpt lat="40.2382920" lon="-4.4545990">
        <ele>661.5</ele>
        <time>2019-08-13T11:52:37Z</time>
      </trkpt>
      <trkpt lat="40.2383250" lon="-4.4545880">
        <ele>661.7</ele>
        <time>2019-08-13T11:52:38Z</time>
      </trkpt>
      <trkpt lat="40.2383570" lon="-4.4545760">
        <ele>661.9</ele>
        <time>2019-08-13T11:52:39Z</time>
      </trkpt>
      <trkpt lat="40.2383870" lon="-4.4545600">
        <ele>662.0</ele>
        <time>2019-08-13T11:52:40Z</time>
      </trkpt>
      <trkpt lat="40.2384180" lon="-4.4545420">
        <ele>662.1</ele>
        <time>2019-08-13T11:52:41Z</time>
      </trkpt>
      <trkpt lat="40.2384470" lon="-4.4545220">
        <ele>662.3</ele>
        <time>2019-08-13T11:52:42Z</time>
      </trkpt>
      <trkpt lat="40.2384750" lon="-4.4545010">
        <ele>662.4</ele>
        <time>2019-08-13T11:52:43Z</time>
      </trkpt>
      <trkpt lat="40.2385030" lon="-4.4544790">
        <ele>662.5</ele>
        <time>2019-08-13T11:52:44Z</time>
      </trkpt>
      <trkpt lat="40.2385290" lon="-4.4544560">
        <ele>662.7</ele>
        <time>2019-08-13T11:52:45Z</time>
      </trkpt>
      <trkpt lat="40.2385540" lon="-4.4544300">
        <ele>662.8</ele>
        <time>2019-08-13T11:52:46Z</time>
      </trkpt>
      <trkpt lat="40.2385800" lon="-4.4544040">
        <ele>662.9</ele>
        <time>2019-08-13T11:52:47Z</time>
      </trkpt>
      <trkpt lat="40.2386040" lon="-4.4543780">
        <ele>663.1</ele>
        <time>2019-08-13T11:52:48Z</time>
      </trkpt>
      <trkpt lat="40.2386290" lon="-4.4543500">
        <ele>663.2</ele>
        <time>2019-08-13T11:52:49Z</time>
      </trkpt>
      <trkpt lat="40.2386530" lon="-4.4543210">
        <ele>663.3</ele>
        <time>2019-08-13T11:52:50Z</time>
      </trkpt>
      <trkpt lat="40.2386780" lon="-4.4542920">
        <ele>663.5</ele>
        <time>2019-08-13T11:52:51Z</time>
      </trkpt>
      <trkpt lat="40.2387030" lon="-4.4542630">
        <ele>663.6</ele>
        <time>2019-08-13T11:52:52Z</time>
      </trkpt>
      <trkpt lat="40.2387280" lon="-4.4542330">
        <ele>663.7</ele>
        <time>2019-08-13T11:52:53Z</time>
      </trkpt>
      <trkpt lat="40.2387520" lon="-4.4542040">
        <ele>663.8</ele>
        <time>2019-08-13T11:52:54Z</time>
      </trkpt>
      <trkpt lat="40.2387770" lon="-4.4541760">
        <ele>663.9</ele>
        <time>2019-08-13T11:52:55Z</time>
      </trkpt>
      <trkpt lat="40.2388020" lon="-4.4541480">
        <ele>664.0</ele>
        <time>2019-08-13T11:52:56Z</time>
      </trkpt>
      <trkpt lat="40.2388270" lon="-4.4541210">
        <ele>664.1</ele>
        <time>2019-08-13T11:52:57Z</time>
      </trkpt>
      <trkpt lat="40.2388530" lon="-4.4540940">
        <ele>664.1</ele>
        <time>2019-08-13T11:52:58Z</time>
      </trkpt>
      <trkpt lat="40.2388790" lon="-4.4540700">
        <ele>664.2</ele>
        <time>2019-08-13T11:52:59Z</time>
      </trkpt>
      <trkpt lat="40.2389050" lon="-4.4540460">
        <ele>664.2</ele>
        <time>2019-08-13T11:53:00Z</time>
      </trkpt>
      <trkpt lat="40.2389330" lon="-4.4540240">
        <ele>664.3</ele>
        <time>2019-08-13T11:53:01Z</time>
      </trkpt>
      <trkpt lat="40.2389620" lon="-4.4540040">
        <ele>664.3</ele>
        <time>2019-08-13T11:53:02Z</time>
      </trkpt>
      <trkpt lat="40.2389930" lon="-4.4539880">
        <ele>664.3</ele>
        <time>2019-08-13T11:53:03Z</time>
      </trkpt>
      <trkpt lat="40.2390240" lon="-4.4539720">
        <ele>664.4</ele>
        <time>2019-08-13T11:53:04Z</time>
      </trkpt>
      <trkpt lat="40.2390560" lon="-4.4539570">
        <ele>664.5</ele>
        <time>2019-08-13T11:53:05Z</time>
      </trkpt>
      <trkpt lat="40.2390880" lon="-4.4539450">
        <ele>664.5</ele>
        <time>2019-08-13T11:53:06Z</time>
      </trkpt>
      <trkpt lat="40.2391200" lon="-4.4539350">
        <ele>664.6</ele>
        <time>2019-08-13T11:53:07Z</time>
      </trkpt>
      <trkpt lat="40.2391530" lon="-4.4539250">
        <ele>664.8</ele>
        <time>2019-08-13T11:53:08Z</time>
      </trkpt>
      <trkpt lat="40.2391870" lon="-4.4539170">
        <ele>664.9</ele>
        <time>2019-08-13T11:53:09Z</time>
      </trkpt>
      <trkpt lat="40.2392230" lon="-4.4539080">
        <ele>665.0</ele>
        <time>2019-08-13T11:53:10Z</time>
      </trkpt>
      <trkpt lat="40.2392600" lon="-4.4538940">
        <ele>665.2</ele>
        <time>2019-08-13T11:53:11Z</time>
      </trkpt>
      <trkpt lat="40.2392980" lon="-4.4538780">
        <ele>665.4</ele>
        <time>2019-08-13T11:53:12Z</time>
      </trkpt>
      <trkpt lat="40.2393350" lon="-4.4538620">
        <ele>665.6</ele>
        <time>2019-08-13T11:53:13Z</time>
      </trkpt>
      <trkpt lat="40.2393720" lon="-4.4538460">
        <ele>665.7</ele>
        <time>2019-08-13T11:53:14Z</time>
      </trkpt>
      <trkpt lat="40.2394080" lon="-4.4538310">
        <ele>665.9</ele>
        <time>2019-08-13T11:53:15Z</time>
      </trkpt>
      <trkpt lat="40.2394440" lon="-4.4538140">
        <ele>666.0</ele>
        <time>2019-08-13T11:53:16Z</time>
      </trkpt>
      <trkpt lat="40.2394800" lon="-4.4537920">
        <ele>666.1</ele>
        <time>2019-08-13T11:53:17Z</time>
      </trkpt>
      <trkpt lat="40.2395160" lon="-4.4537660">
        <ele>666.2</ele>
        <time>2019-08-13T11:53:18Z</time>
      </trkpt>
      <trkpt lat="40.2395510" lon="-4.4537360">
        <ele>666.2</ele>
        <time>2019-08-13T11:53:19Z</time>
      </trkpt>
      <trkpt lat="40.2395860" lon="-4.4537050">
        <ele>666.2</ele>
        <time>2019-08-13T11:53:20Z</time>
      </trkpt>
      <trkpt lat="40.2396200" lon="-4.4536700">
        <ele>666.2</ele>
        <time>2019-08-13T11:53:21Z</time>
      </trkpt>
      <trkpt lat="40.2396540" lon="-4.4536330">
        <ele>666.2</ele>
        <time>2019-08-13T11:53:22Z</time>
      </trkpt>
      <trkpt lat="40.2396880" lon="-4.4535930">
        <ele>666.2</ele>
        <time>2019-08-13T11:53:23Z</time>
      </trkpt>
      <trkpt lat="40.2397200" lon="-4.4535510">
        <ele>666.2</ele>
        <time>2019-08-13T11:53:24Z</time>
      </trkpt>
      <trkpt lat="40.2397520" lon="-4.4535100">
        <ele>666.4</ele>
        <time>2019-08-13T11:53:25Z</time>
      </trkpt>
      <trkpt lat="40.2397830" lon="-4.4534720">
        <ele>666.6</ele>
        <time>2019-08-13T11:53:26Z</time>
      </trkpt>
      <trkpt lat="40.2398140" lon="-4.4534370">
        <ele>666.7</ele>
        <time>2019-08-13T11:53:27Z</time>
      </trkpt>
      <trkpt lat="40.2398440" lon="-4.4534010">
        <ele>666.9</ele>
        <time>2019-08-13T11:53:28Z</time>
      </trkpt>
      <trkpt lat="40.2398710" lon="-4.4533660">
        <ele>667.1</ele>
        <time>2019-08-13T11:53:29Z</time>
      </trkpt>
      <trkpt lat="40.2398980" lon="-4.4533340">
        <ele>667.2</ele>
        <time>2019-08-13T11:53:30Z</time>
      </trkpt>
      <trkpt lat="40.2399220" lon="-4.4533040">
        <ele>667.3</ele>
        <time>2019-08-13T11:53:31Z</time>
      </trkpt>
      <trkpt lat="40.2399450" lon="-4.4532750">
        <ele>667.5</ele>
        <time>2019-08-13T11:53:32Z</time>
      </trkpt>
      <trkpt lat="40.2399680" lon="-4.4532470">
        <ele>667.7</ele>
        <time>2019-08-13T11:53:33Z</time>
      </trkpt>
      <trkpt lat="40.2399900" lon="-4.4532210">
        <ele>667.8</ele>
        <time>2019-08-13T11:53:34Z</time>
      </trkpt>
      <trkpt lat="40.2400120" lon="-4.4531960">
        <ele>668.0</ele>
        <time>2019-08-13T11:53:35Z</time>
      </trkpt>
      <trkpt lat="40.2400330" lon="-4.4531730">
        <ele>668.1</ele>
        <time>2019-08-13T11:53:36Z</time>
      </trkpt>
      <trkpt lat="40.2400540" lon="-4.4531490">
        <ele>668.3</ele>
        <time>2019-08-13T11:53:37Z</time>
      </trkpt>
      <trkpt lat="40.2400750" lon="-4.4531260">
        <ele>668.4</ele>
        <time>2019-08-13T11:53:38Z</time>
      </trkpt>
      <trkpt lat="40.2400970" lon="-4.4531040">
        <ele>668.6</ele>
        <time>2019-08-13T11:53:39Z</time>
      </trkpt>
      <trkpt lat="40.2401200" lon="-4.4530810">
        <ele>668.7</ele>
        <time>2019-08-13T11:53:40Z</time>
      </trkpt>
      <trkpt lat="40.2401430" lon="-4.4530590">
        <ele>668.8</ele>
        <time>2019-08-13T11:53:41Z</time>
      </trkpt>
      <trkpt lat="40.2401670" lon="-4.4530380">
        <ele>669.0</ele>
        <time>2019-08-13T11:53:42Z</time>
      </trkpt>
      <trkpt lat="40.2401900" lon="-4.4530170">
        <ele>669.1</ele>
        <time>2019-08-13T11:53:43Z</time>
      </trkpt>
      <trkpt lat="40.2402140" lon="-4.4529960">
        <ele>669.3</ele>
        <time>2019-08-13T11:53:44Z</time>
      </trkpt>
      <trkpt lat="40.2402370" lon="-4.4529770">
        <ele>669.4</ele>
        <time>2019-08-13T11:53:45Z</time>
      </trkpt>
      <trkpt lat="40.2402600" lon="-4.4529590">
        <ele>669.6</ele>
        <time>2019-08-13T11:53:46Z</time>
      </trkpt>
      <trkpt lat="40.2402840" lon="-4.4529410">
        <ele>669.7</ele>
        <time>2019-08-13T11:53:47Z</time>
      </trkpt>
      <trkpt lat="40.2403080" lon="-4.4529230">
        <ele>669.9</ele>
        <time>2019-08-13T11:53:48Z</time>
      </trkpt>
      <trkpt lat="40.2403320" lon="-4.4529040">
        <ele>670.0</ele>
        <time>2019-08-13T11:53:49Z</time>
      </trkpt>
      <trkpt lat="40.2403550" lon="-4.4528850">
        <ele>670.2</ele>
        <time>2019-08-13T11:53:50Z</time>
      </trkpt>
      <trkpt lat="40.2403790" lon="-4.4528680">
        <ele>670.3</ele>
        <time>2019-08-13T11:53:51Z</time>
      </trkpt>
      <trkpt lat="40.2404040" lon="-4.4528510">
        <ele>670.5</ele>
        <time>2019-08-13T11:53:52Z</time>
      </trkpt>
      <trkpt lat="40.2404280" lon="-4.4528330">
        <ele>670.7</ele>
        <time>2019-08-13T11:53:53Z</time>
      </trkpt>
      <trkpt lat="40.2404520" lon="-4.4528130">
        <ele>671.0</ele>
        <time>2019-08-13T11:53:54Z</time>
      </trkpt>
      <trkpt lat="40.2404750" lon="-4.4527920">
        <ele>671.1</ele>
        <time>2019-08-13T11:53:55Z</time>
      </trkpt>
      <trkpt lat="40.2404990" lon="-4.4527720">
        <ele>671.3</ele>
        <time>2019-08-13T11:53:56Z</time>
      </trkpt>
      <trkpt lat="40.2405450" lon="-4.4527380">
        <ele>671.6</ele>
        <time>2019-08-13T11:53:58Z</time>
      </trkpt>
      <trkpt lat="40.2405950" lon="-4.4527130">
        <ele>671.9</ele>
        <time>2019-08-13T11:54:00Z</time>
      </trkpt>
      <trkpt lat="40.2406220" lon="-4.4527030">
        <ele>672.1</ele>
        <time>2019-08-13T11:54:01Z</time>
      </trkpt>
      <trkpt lat="40.2406760" lon="-4.4526970">
        <ele>672.5</ele>
        <time>2019-08-13T11:54:03Z</time>
      </trkpt>
      <trkpt lat="40.2407030" lon="-4.4527020">
        <ele>672.7</ele>
        <time>2019-08-13T11:54:04Z</time>
      </trkpt>
      <trkpt lat="40.2407290" lon="-4.4527100">
        <ele>672.8</ele>
        <time>2019-08-13T11:54:05Z</time>
      </trkpt>
      <trkpt lat="40.2407770" lon="-4.4527400">
        <ele>673.1</ele>
        <time>2019-08-13T11:54:07Z</time>
      </trkpt>
      <trkpt lat="40.2408200" lon="-4.4527790">
        <ele>673.4</ele>
        <time>2019-08-13T11:54:09Z</time>
      </trkpt>
      <trkpt lat="40.2408580" lon="-4.4528270">
        <ele>673.7</ele>
        <time>2019-08-13T11:54:11Z</time>
      </trkpt>
      <trkpt lat="40.2408770" lon="-4.4528520">
        <ele>673.9</ele>
        <time>2019-08-13T11:54:12Z</time>
      </trkpt>
      <trkpt lat="40.2408970" lon="-4.4528770">
        <ele>674.0</ele>
        <time>2019-08-13T11:54:13Z</time>
      </trkpt>
      <trkpt lat="40.2409170" lon="-4.4529030">
        <ele>674.2</ele>
        <time>2019-08-13T11:54:14Z</time>
      </trkpt>
      <trkpt lat="40.2409370" lon="-4.4529280">
        <ele>674.4</ele>
        <time>2019-08-13T11:54:15Z</time>
      </trkpt>
      <trkpt lat="40.2409750" lon="-4.4529750">
        <ele>674.8</ele>
        <time>2019-08-13T11:54:17Z</time>
      </trkpt>
      <trkpt lat="40.2410130" lon="-4.4530210">
        <ele>675.2</ele>
        <time>2019-08-13T11:54:19Z</time>
      </trkpt>
      <trkpt lat="40.2410500" lon="-4.4530690">
        <ele>675.6</ele>
        <time>2019-08-13T11:54:21Z</time>
      </trkpt>
      <trkpt lat="40.2410910" lon="-4.4531110">
        <ele>675.9</ele>
        <time>2019-08-13T11:54:23Z</time>
      </trkpt>
      <trkpt lat="40.2411320" lon="-4.4531560">
        <ele>676.3</ele>
        <time>2019-08-13T11:54:25Z</time>
      </trkpt>
      <trkpt lat="40.2411700" lon="-4.4532030">
        <ele>676.6</ele>
        <time>2019-08-13T11:54:27Z</time>
      </trkpt>
      <trkpt lat="40.2412090" lon="-4.4532500">
        <ele>677.0</ele>
        <time>2019-08-13T11:54:29Z</time>
      </trkpt>
      <trkpt lat="40.2412470" lon="-4.4532990">
        <ele>677.4</ele>
        <time>2019-08-13T11:54:31Z</time>
      </trkpt>
      <trkpt lat="40.2412860" lon="-4.4533440">
        <ele>677.7</ele>
        <time>2019-08-13T11:54:33Z</time>
      </trkpt>
      <trkpt lat="40.2413270" lon="-4.4533880">
        <ele>678.0</ele>
        <time>2019-08-13T11:54:35Z</time>
      </trkpt>
      <trkpt lat="40.2413670" lon="-4.4534290">
        <ele>678.3</ele>
        <time>2019-08-13T11:54:37Z</time>
      </trkpt>
      <trkpt lat="40.2414060" lon="-4.4534720">
        <ele>678.6</ele>
        <time>2019-08-13T11:54:39Z</time>
      </trkpt>
      <trkpt lat="40.2414480" lon="-4.4535100">
        <ele>678.9</ele>
        <time>2019-08-13T11:54:41Z</time>
      </trkpt>
      <trkpt lat="40.2414910" lon="-4.4535450">
        <ele>679.2</ele>
        <time>2019-08-13T11:54:43Z</time>
      </trkpt>
      <trkpt lat="40.2415370" lon="-4.4535720">
        <ele>679.4</ele>
        <time>2019-08-13T11:54:45Z</time>
      </trkpt>
      <trkpt lat="40.2415840" lon="-4.4535900">
        <ele>679.7</ele>
        <time>2019-08-13T11:54:47Z</time>
      </trkpt>
      <trkpt lat="40.2416350" lon="-4.4536060">
        <ele>679.9</ele>
        <time>2019-08-13T11:54:49Z</time>
      </trkpt>
      <trkpt lat="40.2416850" lon="-4.4536210">
        <ele>680.2</ele>
        <time>2019-08-13T11:54:51Z</time>
      </trkpt>
      <trkpt lat="40.2417340" lon="-4.4536380">
        <ele>680.5</ele>
        <time>2019-08-13T11:54:53Z</time>
      </trkpt>
      <trkpt lat="40.2417830" lon="-4.4536550">
        <ele>680.9</ele>
        <time>2019-08-13T11:54:55Z</time>
      </trkpt>
      <trkpt lat="40.2418320" lon="-4.4536710">
        <ele>681.3</ele>
        <time>2019-08-13T11:54:57Z</time>
      </trkpt>
      <trkpt lat="40.2418800" lon="-4.4536890">
        <ele>681.6</ele>
        <time>2019-08-13T11:54:59Z</time>
      </trkpt>
      <trkpt lat="40.2419270" lon="-4.4537060">
        <ele>681.9</ele>
        <time>2019-08-13T11:55:01Z</time>
      </trkpt>
      <trkpt lat="40.2419730" lon="-4.4537230">
        <ele>682.1</ele>
        <time>2019-08-13T11:55:03Z</time>
      </trkpt>
      <trkpt lat="40.2420200" lon="-4.4537440">
        <ele>682.4</ele>
        <time>2019-08-13T11:55:05Z</time>
      </trkpt>
      <trkpt lat="40.2420650" lon="-4.4537650">
        <ele>682.6</ele>
        <time>2019-08-13T11:55:07Z</time>
      </trkpt>
      <trkpt lat="40.2421090" lon="-4.4537890">
        <ele>682.9</ele>
        <time>2019-08-13T11:55:09Z</time>
      </trkpt>
      <trkpt lat="40.2421520" lon="-4.4538160">
        <ele>683.2</ele>
        <time>2019-08-13T11:55:11Z</time>
      </trkpt>
      <trkpt lat="40.2421940" lon="-4.4538480">
        <ele>683.5</ele>
        <time>2019-08-13T11:55:13Z</time>
      </trkpt>
      <trkpt lat="40.2422360" lon="-4.4538850">
        <ele>683.9</ele>
        <time>2019-08-13T11:55:15Z</time>
      </trkpt>
      <trkpt lat="40.2422750" lon="-4.4539250">
        <ele>684.2</ele>
        <time>2019-08-13T11:55:17Z</time>
      </trkpt>
      <trkpt lat="40.2423090" lon="-4.4539710">
        <ele>684.6</ele>
        <time>2019-08-13T11:55:19Z</time>
      </trkpt>
      <trkpt lat="40.2423440" lon="-4.4540150">
        <ele>685.0</ele>
        <time>2019-08-13T11:55:21Z</time>
      </trkpt>
      <trkpt lat="40.2423800" lon="-4.4540600">
        <ele>685.4</ele>
        <time>2019-08-13T11:55:23Z</time>
      </trkpt>
      <trkpt lat="40.2424170" lon="-4.4541070">
        <ele>685.8</ele>
        <time>2019-08-13T11:55:25Z</time>
      </trkpt>
      <trkpt lat="40.2424550" lon="-4.4541550">
        <ele>686.1</ele>
        <time>2019-08-13T11:55:27Z</time>
      </trkpt>
      <trkpt lat="40.2424900" lon="-4.4542020">
        <ele>686.5</ele>
        <time>2019-08-13T11:55:29Z</time>
      </trkpt>
      <trkpt lat="40.2425230" lon="-4.4542490">
        <ele>686.8</ele>
        <time>2019-08-13T11:55:31Z</time>
      </trkpt>
      <trkpt lat="40.2425550" lon="-4.4542960">
        <ele>687.2</ele>
        <time>2019-08-13T11:55:33Z</time>
      </trkpt>
      <trkpt lat="40.2425870" lon="-4.4543420">
        <ele>687.5</ele>
        <time>2019-08-13T11:55:35Z</time>
      </trkpt>
      <trkpt lat="40.2426170" lon="-4.4543910">
        <ele>688.0</ele>
        <time>2019-08-13T11:55:37Z</time>
      </trkpt>
      <trkpt lat="40.2426440" lon="-4.4544430">
        <ele>688.4</ele>
        <time>2019-08-13T11:55:39Z</time>
      </trkpt>
      <trkpt lat="40.2426700" lon="-4.4544970">
        <ele>688.7</ele>
        <time>2019-08-13T11:55:41Z</time>
      </trkpt>
      <trkpt lat="40.2426860" lon="-4.4545400">
        <ele>688.9</ele>
        <time>2019-08-13T11:55:43Z</time>
      </trkpt>
      <trkpt lat="40.2426900" lon="-4.4545970">
        <ele>689.2</ele>
        <time>2019-08-13T11:57:20Z</time>
      </trkpt>
      <trkpt lat="40.2427040" lon="-4.4546480">
        <ele>689.4</ele>
        <time>2019-08-13T11:57:22Z</time>
      </trkpt>
      <trkpt lat="40.2427250" lon="-4.4547050">
        <ele>689.7</ele>
        <time>2019-08-13T11:57:24Z</time>
      </trkpt>
      <trkpt lat="40.2427480" lon="-4.4547640">
        <ele>689.9</ele>
        <time>2019-08-13T11:57:26Z</time>
      </trkpt>
      <trkpt lat="40.2427680" lon="-4.4548260">
        <ele>690.1</ele>
        <time>2019-08-13T11:57:28Z</time>
      </trkpt>
      <trkpt lat="40.2427870" lon="-4.4548890">
        <ele>690.4</ele>
        <time>2019-08-13T11:57:30Z</time>
      </trkpt>
      <trkpt lat="40.2428040" lon="-4.4549540">
        <ele>690.6</ele>
        <time>2019-08-13T11:57:32Z</time>
      </trkpt>
      <trkpt lat="40.2428210" lon="-4.4550200">
        <ele>690.9</ele>
        <time>2019-08-13T11:57:34Z</time>
      </trkpt>
      <trkpt lat="40.2428320" lon="-4.4550530">
        <ele>691.1</ele>
        <time>2019-08-13T11:57:35Z</time>
      </trkpt>
      <trkpt lat="40.2428440" lon="-4.4550850">
        <ele>691.2</ele>
        <time>2019-08-13T11:57:36Z</time>
      </trkpt>
      <trkpt lat="40.2428640" lon="-4.4551490">
        <ele>691.5</ele>
        <time>2019-08-13T11:57:38Z</time>
      </trkpt>
      <trkpt lat="40.2428820" lon="-4.4552140">
        <ele>691.9</ele>
        <time>2019-08-13T11:57:40Z</time>
      </trkpt>
      <trkpt lat="40.2428980" lon="-4.4552770">
        <ele>692.2</ele>
        <time>2019-08-13T11:57:42Z</time>
      </trkpt>
      <trkpt lat="40.2429120" lon="-4.4553400">
        <ele>692.5</ele>
        <time>2019-08-13T11:57:44Z</time>
      </trkpt>
      <trkpt lat="40.2429290" lon="-4.4554030">
        <ele>692.8</ele>
        <time>2019-08-13T11:57:46Z</time>
      </trkpt>
      <trkpt lat="40.2429470" lon="-4.4554670">
        <ele>693.0</ele>
        <time>2019-08-13T11:57:48Z</time>
      </trkpt>
      <trkpt lat="40.2429640" lon="-4.4555320">
        <ele>693.3</ele>
        <time>2019-08-13T11:57:50Z</time>
      </trkpt>
      <trkpt lat="40.2429790" lon="-4.4555980">
        <ele>693.5</ele>
        <time>2019-08-13T11:57:52Z</time>
      </trkpt>
      <trkpt lat="40.2429940" lon="-4.4556610">
        <ele>693.7</ele>
        <time>2019-08-13T11:57:54Z</time>
      </trkpt>
      <trkpt lat="40.2430060" lon="-4.4557230">
        <ele>693.9</ele>
        <time>2019-08-13T11:57:56Z</time>
      </trkpt>
      <trkpt lat="40.2430180" lon="-4.4557850">
        <ele>694.1</ele>
        <time>2019-08-13T11:57:58Z</time>
      </trkpt>
      <trkpt lat="40.2430240" lon="-4.4558500">
        <ele>694.3</ele>
        <time>2019-08-13T11:58:00Z</time>
      </trkpt>
      <trkpt lat="40.2430270" lon="-4.4559160">
        <ele>694.6</ele>
        <time>2019-08-13T11:58:02Z</time>
      </trkpt>
      <trkpt lat="40.2430260" lon="-4.4559800">
        <ele>694.8</ele>
        <time>2019-08-13T11:58:04Z</time>
      </trkpt>
      <trkpt lat="40.2430230" lon="-4.4560420">
        <ele>695.0</ele>
        <time>2019-08-13T11:58:06Z</time>
      </trkpt>
      <trkpt lat="40.2430160" lon="-4.4561070">
        <ele>695.3</ele>
        <time>2019-08-13T11:58:08Z</time>
      </trkpt>
      <trkpt lat="40.2430040" lon="-4.4561700">
        <ele>695.6</ele>
        <time>2019-08-13T11:58:10Z</time>
      </trkpt>
      <trkpt lat="40.2429960" lon="-4.4562330">
        <ele>695.8</ele>
        <time>2019-08-13T11:58:12Z</time>
      </trkpt>
      <trkpt lat="40.2429890" lon="-4.4562980">
        <ele>696.2</ele>
        <time>2019-08-13T11:58:14Z</time>
      </trkpt>
      <trkpt lat="40.2429900" lon="-4.4563640">
        <ele>696.5</ele>
        <time>2019-08-13T11:58:16Z</time>
      </trkpt>
      <trkpt lat="40.2429940" lon="-4.4564310">
        <ele>696.9</ele>
        <time>2019-08-13T11:58:18Z</time>
      </trkpt>
      <trkpt lat="40.2430010" lon="-4.4564960">
        <ele>697.4</ele>
        <time>2019-08-13T11:58:20Z</time>
      </trkpt>
      <trkpt lat="40.2430100" lon="-4.4565600">
        <ele>697.7</ele>
        <time>2019-08-13T11:58:22Z</time>
      </trkpt>
      <trkpt lat="40.2430210" lon="-4.4566230">
        <ele>698.0</ele>
        <time>2019-08-13T11:58:24Z</time>
      </trkpt>
      <trkpt lat="40.2430320" lon="-4.4566860">
        <ele>698.3</ele>
        <time>2019-08-13T11:58:26Z</time>
      </trkpt>
      <trkpt lat="40.2430400" lon="-4.4567500">
        <ele>698.6</ele>
        <time>2019-08-13T11:58:28Z</time>
      </trkpt>
      <trkpt lat="40.2430500" lon="-4.4568130">
        <ele>699.0</ele>
        <time>2019-08-13T11:58:30Z</time>
      </trkpt>
      <trkpt lat="40.2430600" lon="-4.4568740">
        <ele>699.3</ele>
        <time>2019-08-13T11:58:32Z</time>
      </trkpt>
      <trkpt lat="40.2430670" lon="-4.4569330">
        <ele>699.6</ele>
        <time>2019-08-13T11:58:34Z</time>
      </trkpt>
      <trkpt lat="40.2430740" lon="-4.4569950">
        <ele>700.0</ele>
        <time>2019-08-13T11:58:36Z</time>
      </trkpt>
      <trkpt lat="40.2430850" lon="-4.4570560">
        <ele>700.4</ele>
        <time>2019-08-13T11:58:38Z</time>
      </trkpt>
      <trkpt lat="40.2430960" lon="-4.4571190">
        <ele>700.8</ele>
        <time>2019-08-13T11:58:40Z</time>
      </trkpt>
      <trkpt lat="40.2431050" lon="-4.4571810">
        <ele>701.1</ele>
        <time>2019-08-13T11:58:42Z</time>
      </trkpt>
      <trkpt lat="40.2431160" lon="-4.4572410">
        <ele>701.4</ele>
        <time>2019-08-13T11:58:44Z</time>
      </trkpt>
      <trkpt lat="40.2431330" lon="-4.4573010">
        <ele>701.8</ele>
        <time>2019-08-13T11:58:46Z</time>
      </trkpt>
      <trkpt lat="40.2431520" lon="-4.4573600">
        <ele>702.2</ele>
        <time>2019-08-13T11:58:48Z</time>
      </trkpt>
      <trkpt lat="40.2431730" lon="-4.4574210">
        <ele>702.6</ele>
        <time>2019-08-13T11:58:50Z</time>
      </trkpt>
      <trkpt lat="40.2431970" lon="-4.4574790">
        <ele>702.9</ele>
        <time>2019-08-13T11:58:52Z</time>
      </trkpt>
      <trkpt lat="40.2432210" lon="-4.4575340">
        <ele>703.2</ele>
        <time>2019-08-13T11:58:54Z</time>
      </trkpt>
      <trkpt lat="40.2432440" lon="-4.4575880">
        <ele>703.5</ele>
        <time>2019-08-13T11:58:56Z</time>
      </trkpt>
      <trkpt lat="40.2432660" lon="-4.4576440">
        <ele>703.8</ele>
        <time>2019-08-13T11:58:58Z</time>
      </trkpt>
      <trkpt lat="40.2432900" lon="-4.4577000">
        <ele>704.0</ele>
        <time>2019-08-13T11:59:00Z</time>
      </trkpt>
      <trkpt lat="40.2433100" lon="-4.4577610">
        <ele>704.4</ele>
        <time>2019-08-13T11:59:02Z</time>
      </trkpt>
      <trkpt lat="40.2433260" lon="-4.4578250">
        <ele>704.9</ele>
        <time>2019-08-13T11:59:04Z</time>
      </trkpt>
      <trkpt lat="40.2433380" lon="-4.4578910">
        <ele>705.3</ele>
        <time>2019-08-13T11:59:06Z</time>
      </trkpt>
      <trkpt lat="40.2433460" lon="-4.4579590">
        <ele>705.7</ele>
        <time>2019-08-13T11:59:08Z</time>
      </trkpt>
      <trkpt lat="40.2433500" lon="-4.4579950">
        <ele>705.9</ele>
        <time>2019-08-13T11:59:09Z</time>
      </trkpt>
      <trkpt lat="40.2433530" lon="-4.4580300">
        <ele>706.1</ele>
        <time>2019-08-13T11:59:10Z</time>
      </trkpt>
      <trkpt lat="40.2433590" lon="-4.4580990">
        <ele>706.4</ele>
        <time>2019-08-13T11:59:12Z</time>
      </trkpt>
      <trkpt lat="40.2433680" lon="-4.4581670">
        <ele>706.7</ele>
        <time>2019-08-13T11:59:14Z</time>
      </trkpt>
      <trkpt lat="40.2433750" lon="-4.4582020">
        <ele>706.9</ele>
        <time>2019-08-13T11:59:15Z</time>
      </trkpt>
      <trkpt lat="40.2433820" lon="-4.4582360">
        <ele>707.1</ele>
        <time>2019-08-13T11:59:16Z</time>
      </trkpt>
      <trkpt lat="40.2433900" lon="-4.4582690">
        <ele>707.2</ele>
        <time>2019-08-13T11:59:17Z</time>
      </trkpt>
      <trkpt lat="40.2434100" lon="-4.4583320">
        <ele>707.5</ele>
        <time>2019-08-13T11:59:19Z</time>
      </trkpt>
      <trkpt lat="40.2434340" lon="-4.4583890">
        <ele>707.9</ele>
        <time>2019-08-13T11:59:21Z</time>
      </trkpt>
      <trkpt lat="40.2434600" lon="-4.4584460">
        <ele>708.2</ele>
        <time>2019-08-13T11:59:23Z</time>
      </trkpt>
      <trkpt lat="40.2434840" lon="-4.4585010">
        <ele>708.4</ele>
        <time>2019-08-13T11:59:25Z</time>
      </trkpt>
      <trkpt lat="40.2435070" lon="-4.4585570">
        <ele>708.6</ele>
        <time>2019-08-13T11:59:27Z</time>
      </trkpt>
      <trkpt lat="40.2435250" lon="-4.4586170">
        <ele>708.8</ele>
        <time>2019-08-13T11:59:29Z</time>
      </trkpt>
      <trkpt lat="40.2435400" lon="-4.4586790">
        <ele>709.0</ele>
        <time>2019-08-13T11:59:31Z</time>
      </trkpt>
      <trkpt lat="40.2435520" lon="-4.4587420">
        <ele>709.2</ele>
        <time>2019-08-13T11:59:33Z</time>
      </trkpt>
      <trkpt lat="40.2435640" lon="-4.4588070">
        <ele>709.4</ele>
        <time>2019-08-13T11:59:35Z</time>
      </trkpt>
      <trkpt lat="40.2435740" lon="-4.4588730">
        <ele>709.7</ele>
        <time>2019-08-13T11:59:37Z</time>
      </trkpt>
      <trkpt lat="40.2435830" lon="-4.4589390">
        <ele>709.9</ele>
        <time>2019-08-13T11:59:39Z</time>
      </trkpt>
      <trkpt lat="40.2435930" lon="-4.4590040">
        <ele>710.2</ele>
        <time>2019-08-13T11:59:41Z</time>
      </trkpt>
      <trkpt lat="40.2436030" lon="-4.4590720">
        <ele>710.5</ele>
        <time>2019-08-13T11:59:43Z</time>
      </trkpt>
      <trkpt lat="40.2436120" lon="-4.4591380">
        <ele>710.8</ele>
        <time>2019-08-13T11:59:45Z</time>
      </trkpt>
      <trkpt lat="40.2436230" lon="-4.4592020">
        <ele>711.1</ele>
        <time>2019-08-13T11:59:47Z</time>
      </trkpt>
      <trkpt lat="40.2436340" lon="-4.4592680">
        <ele>711.5</ele>
        <time>2019-08-13T11:59:49Z</time>
      </trkpt>
      <trkpt lat="40.2436460" lon="-4.4593340">
        <ele>711.8</ele>
        <time>2019-08-13T11:59:51Z</time>
      </trkpt>
      <trkpt lat="40.2436580" lon="-4.4594020">
        <ele>712.0</ele>
        <time>2019-08-13T11:59:53Z</time>
      </trkpt>
      <trkpt lat="40.2436730" lon="-4.4594710">
        <ele>712.1</ele>
        <time>2019-08-13T11:59:55Z</time>
      </trkpt>
      <trkpt lat="40.2436810" lon="-4.4595060">
        <ele>712.2</ele>
        <time>2019-08-13T11:59:56Z</time>
      </trkpt>
      <trkpt lat="40.2436910" lon="-4.4595400">
        <ele>712.2</ele>
        <time>2019-08-13T11:59:57Z</time>
      </trkpt>
      <trkpt lat="40.2437020" lon="-4.4595750">
        <ele>712.2</ele>
        <time>2019-08-13T11:59:58Z</time>
      </trkpt>
      <trkpt lat="40.2437170" lon="-4.4596090">
        <ele>712.3</ele>
        <time>2019-08-13T11:59:59Z</time>
      </trkpt>
      <trkpt lat="40.2437320" lon="-4.4596420">
        <ele>712.3</ele>
        <time>2019-08-13T12:00:00Z</time>
      </trkpt>
      <trkpt lat="40.2437500" lon="-4.4596740">
        <ele>712.3</ele>
        <time>2019-08-13T12:00:01Z</time>
      </trkpt>
      <trkpt lat="40.2437690" lon="-4.4597030">
        <ele>712.4</ele>
        <time>2019-08-13T12:00:02Z</time>
      </trkpt>
      <trkpt lat="40.2437910" lon="-4.4597300">
        <ele>712.5</ele>
        <time>2019-08-13T12:00:03Z</time>
      </trkpt>
      <trkpt lat="40.2438150" lon="-4.4597550">
        <ele>712.5</ele>
        <time>2019-08-13T12:00:04Z</time>
      </trkpt>
      <trkpt lat="40.2438390" lon="-4.4597800">
        <ele>712.6</ele>
        <time>2019-08-13T12:00:05Z</time>
      </trkpt>
      <trkpt lat="40.2438640" lon="-4.4598030">
        <ele>712.7</ele>
        <time>2019-08-13T12:00:06Z</time>
      </trkpt>
      <trkpt lat="40.2438900" lon="-4.4598250">
        <ele>712.8</ele>
        <time>2019-08-13T12:00:07Z</time>
      </trkpt>
      <trkpt lat="40.2439170" lon="-4.4598440">
        <ele>712.9</ele>
        <time>2019-08-13T12:00:08Z</time>
      </trkpt>
      <trkpt lat="40.2439450" lon="-4.4598600">
        <ele>713.0</ele>
        <time>2019-08-13T12:00:09Z</time>
      </trkpt>
      <trkpt lat="40.2439760" lon="-4.4598730">
        <ele>713.1</ele>
        <time>2019-08-13T12:00:10Z</time>
      </trkpt>
      <trkpt lat="40.2440090" lon="-4.4598830">
        <ele>713.2</ele>
        <time>2019-08-13T12:00:11Z</time>
      </trkpt>
      <trkpt lat="40.2440420" lon="-4.4598900">
        <ele>713.2</ele>
        <time>2019-08-13T12:00:12Z</time>
      </trkpt>
      <trkpt lat="40.2440750" lon="-4.4598900">
        <ele>713.2</ele>
        <time>2019-08-13T12:00:13Z</time>
      </trkpt>
      <trkpt lat="40.2441100" lon="-4.4598850">
        <ele>713.3</ele>
        <time>2019-08-13T12:00:14Z</time>
      </trkpt>
      <trkpt lat="40.2441440" lon="-4.4598730">
        <ele>713.3</ele>
        <time>2019-08-13T12:00:15Z</time>
      </trkpt>
      <trkpt lat="40.2441750" lon="-4.4598560">
        <ele>713.3</ele>
        <time>2019-08-13T12:00:16Z</time>
      </trkpt>
      <trkpt lat="40.2442050" lon="-4.4598360">
        <ele>713.3</ele>
        <time>2019-08-13T12:00:17Z</time>
      </trkpt>
      <trkpt lat="40.2442330" lon="-4.4598110">
        <ele>713.3</ele>
        <time>2019-08-13T12:00:18Z</time>
      </trkpt>
      <trkpt lat="40.2442620" lon="-4.4597830">
        <ele>713.4</ele>
        <time>2019-08-13T12:00:19Z</time>
      </trkpt>
      <trkpt lat="40.2442900" lon="-4.4597540">
        <ele>713.4</ele>
        <time>2019-08-13T12:00:20Z</time>
      </trkpt>
      <trkpt lat="40.2443190" lon="-4.4597260">
        <ele>713.5</ele>
        <time>2019-08-13T12:00:21Z</time>
      </trkpt>
      <trkpt lat="40.2443480" lon="-4.4596980">
        <ele>713.6</ele>
        <time>2019-08-13T12:00:22Z</time>
      </trkpt>
      <trkpt lat="40.2443770" lon="-4.4596710">
        <ele>713.7</ele>
        <time>2019-08-13T12:00:23Z</time>
      </trkpt>
      <trkpt lat="40.2444070" lon="-4.4596450">
        <ele>713.8</ele>
        <time>2019-08-13T12:00:24Z</time>
      </trkpt>
      <trkpt lat="40.2444370" lon="-4.4596170">
        <ele>714.0</ele>
        <time>2019-08-13T12:00:25Z</time>
      </trkpt>
      <trkpt lat="40.2444680" lon="-4.4595900">
        <ele>714.1</ele>
        <time>2019-08-13T12:00:26Z</time>
      </trkpt>
      <trkpt lat="40.2444990" lon="-4.4595650">
        <ele>714.2</ele>
        <time>2019-08-13T12:00:27Z</time>
      </trkpt>
      <trkpt lat="40.2445310" lon="-4.4595400">
        <ele>714.3</ele>
        <time>2019-08-13T12:00:28Z</time>
      </trkpt>
      <trkpt lat="40.2445620" lon="-4.4595150">
        <ele>714.4</ele>
        <time>2019-08-13T12:00:29Z</time>
      </trkpt>
      <trkpt lat="40.2445950" lon="-4.4594920">
        <ele>714.5</ele>
        <time>2019-08-13T12:00:30Z</time>
      </trkpt>
      <trkpt lat="40.2446280" lon="-4.4594710">
        <ele>714.7</ele>
        <time>2019-08-13T12:00:31Z</time>
      </trkpt>
      <trkpt lat="40.2446620" lon="-4.4594540">
        <ele>714.8</ele>
        <time>2019-08-13T12:00:32Z</time>
      </trkpt>
      <trkpt lat="40.2446970" lon="-4.4594400">
        <ele>715.0</ele>
        <time>2019-08-13T12:00:33Z</time>
      </trkpt>
      <trkpt lat="40.2447320" lon="-4.4594290">
        <ele>715.2</ele>
        <time>2019-08-13T12:00:34Z</time>
      </trkpt>
      <trkpt lat="40.2447680" lon="-4.4594210">
        <ele>715.4</ele>
        <time>2019-08-13T12:00:35Z</time>
      </trkpt>
      <trkpt lat="40.2448030" lon="-4.4594140">
        <ele>715.6</ele>
        <time>2019-08-13T12:00:36Z</time>
      </trkpt>
      <trkpt lat="40.2448380" lon="-4.4594070">
        <ele>715.8</ele>
        <time>2019-08-13T12:00:37Z</time>
      </trkpt>
      <trkpt lat="40.2448710" lon="-4.4594020">
        <ele>715.9</ele>
        <time>2019-08-13T12:00:38Z</time>
      </trkpt>
      <trkpt lat="40.2449050" lon="-4.4593990">
        <ele>716.1</ele>
        <time>2019-08-13T12:00:39Z</time>
      </trkpt>
      <trkpt lat="40.2449380" lon="-4.4593980">
        <ele>716.2</ele>
        <time>2019-08-13T12:00:40Z</time>
      </trkpt>
      <trkpt lat="40.2449720" lon="-4.4593980">
        <ele>716.3</ele>
        <time>2019-08-13T12:00:41Z</time>
      </trkpt>
      <trkpt lat="40.2450030" lon="-4.4593990">
        <ele>716.4</ele>
        <time>2019-08-13T12:00:42Z</time>
      </trkpt>
      <trkpt lat="40.2450320" lon="-4.4594000">
        <ele>716.5</ele>
        <time>2019-08-13T12:00:43Z</time>
      </trkpt>
      <trkpt lat="40.2450600" lon="-4.4594030">
        <ele>716.6</ele>
        <time>2019-08-13T12:00:44Z</time>
      </trkpt>
      <trkpt lat="40.2450890" lon="-4.4594060">
        <ele>716.6</ele>
        <time>2019-08-13T12:00:45Z</time>
      </trkpt>
      <trkpt lat="40.2451190" lon="-4.4594100">
        <ele>716.7</ele>
        <time>2019-08-13T12:00:46Z</time>
      </trkpt>
      <trkpt lat="40.2451500" lon="-4.4594170">
        <ele>716.8</ele>
        <time>2019-08-13T12:00:47Z</time>
      </trkpt>
      <trkpt lat="40.2451800" lon="-4.4594270">
        <ele>716.9</ele>
        <time>2019-08-13T12:00:48Z</time>
      </trkpt>
      <trkpt lat="40.2452110" lon="-4.4594400">
        <ele>717.0</ele>
        <time>2019-08-13T12:00:49Z</time>
      </trkpt>
      <trkpt lat="40.2452440" lon="-4.4594570">
        <ele>717.1</ele>
        <time>2019-08-13T12:00:50Z</time>
      </trkpt>
      <trkpt lat="40.2452740" lon="-4.4594760">
        <ele>717.1</ele>
        <time>2019-08-13T12:00:51Z</time>
      </trkpt>
      <trkpt lat="40.2453040" lon="-4.4594970">
        <ele>717.1</ele>
        <time>2019-08-13T12:00:52Z</time>
      </trkpt>
      <trkpt lat="40.2453350" lon="-4.4595220">
        <ele>717.1</ele>
        <time>2019-08-13T12:00:53Z</time>
      </trkpt>
      <trkpt lat="40.2453680" lon="-4.4595530">
        <ele>717.0</ele>
        <time>2019-08-13T12:00:54Z</time>
      </trkpt>
      <trkpt lat="40.2454010" lon="-4.4595850">
        <ele>716.9</ele>
        <time>2019-08-13T12:00:55Z</time>
      </trkpt>
      <trkpt lat="40.2454330" lon="-4.4596200">
        <ele>716.8</ele>
        <time>2019-08-13T12:00:56Z</time>
      </trkpt>
      <trkpt lat="40.2454670" lon="-4.4596570">
        <ele>716.6</ele>
        <time>2019-08-13T12:00:57Z</time>
      </trkpt>
      <trkpt lat="40.2455020" lon="-4.4597020">
        <ele>716.3</ele>
        <time>2019-08-13T12:00:58Z</time>
      </trkpt>
      <trkpt lat="40.2455370" lon="-4.4597490">
        <ele>716.1</ele>
        <time>2019-08-13T12:00:59Z</time>
      </trkpt>
      <trkpt lat="40.2455710" lon="-4.4598000">
        <ele>715.8</ele>
        <time>2019-08-13T12:01:00Z</time>
      </trkpt>
      <trkpt lat="40.2456070" lon="-4.4598510">
        <ele>715.6</ele>
        <time>2019-08-13T12:01:01Z</time>
      </trkpt>
      <trkpt lat="40.2456470" lon="-4.4599010">
        <ele>715.3</ele>
        <time>2019-08-13T12:01:02Z</time>
      </trkpt>
      <trkpt lat="40.2456860" lon="-4.4599500">
        <ele>715.0</ele>
        <time>2019-08-13T12:01:03Z</time>
      </trkpt>
      <trkpt lat="40.2457260" lon="-4.4600020">
        <ele>714.6</ele>
        <time>2019-08-13T12:01:04Z</time>
      </trkpt>
      <trkpt lat="40.2457660" lon="-4.4600550">
        <ele>714.3</ele>
        <time>2019-08-13T12:01:05Z</time>
      </trkpt>
      <trkpt lat="40.2458070" lon="-4.4601100">
        <ele>713.9</ele>
        <time>2019-08-13T12:01:06Z</time>
      </trkpt>
      <trkpt lat="40.2458480" lon="-4.4601660">
        <ele>713.6</ele>
        <time>2019-08-13T12:01:07Z</time>
      </trkpt>
      <trkpt lat="40.2458880" lon="-4.4602270">
        <ele>713.3</ele>
        <time>2019-08-13T12:01:08Z</time>
      </trkpt>
      <trkpt lat="40.2459260" lon="-4.4602920">
        <ele>713.0</ele>
        <time>2019-08-13T12:01:09Z</time>
      </trkpt>
      <trkpt lat="40.2459610" lon="-4.4603610">
        <ele>712.7</ele>
        <time>2019-08-13T12:01:10Z</time>
      </trkpt>
      <trkpt lat="40.2459920" lon="-4.4604340">
        <ele>712.4</ele>
        <time>2019-08-13T12:01:11Z</time>
      </trkpt>
      <trkpt lat="40.2460170" lon="-4.4605110">
        <ele>712.4</ele>
        <time>2019-08-13T12:01:12Z</time>
      </trkpt>
      <trkpt lat="40.2460400" lon="-4.4605890">
        <ele>712.5</ele>
        <time>2019-08-13T12:01:13Z</time>
      </trkpt>
      <trkpt lat="40.2460630" lon="-4.4606650">
        <ele>712.6</ele>
        <time>2019-08-13T12:01:14Z</time>
      </trkpt>
      <trkpt lat="40.2460840" lon="-4.4607400">
        <ele>712.7</ele>
        <time>2019-08-13T12:01:15Z</time>
      </trkpt>
      <trkpt lat="40.2461030" lon="-4.4608130">
        <ele>712.8</ele>
        <time>2019-08-13T12:01:16Z</time>
      </trkpt>
      <trkpt lat="40.2461190" lon="-4.4608830">
        <ele>713.0</ele>
        <time>2019-08-13T12:01:17Z</time>
      </trkpt>
      <trkpt lat="40.2461360" lon="-4.4609490">
        <ele>713.2</ele>
        <time>2019-08-13T12:01:18Z</time>
      </trkpt>
      <trkpt lat="40.2461520" lon="-4.4610100">
        <ele>713.5</ele>
        <time>2019-08-13T12:01:19Z</time>
      </trkpt>
      <trkpt lat="40.2461670" lon="-4.4610670">
        <ele>713.8</ele>
        <time>2019-08-13T12:01:20Z</time>
      </trkpt>
      <trkpt lat="40.2461810" lon="-4.4611220">
        <ele>714.0</ele>
        <time>2019-08-13T12:01:21Z</time>
      </trkpt>
      <trkpt lat="40.2461930" lon="-4.4611750">
        <ele>714.2</ele>
        <time>2019-08-13T12:01:22Z</time>
      </trkpt>
      <trkpt lat="40.2462070" lon="-4.4612320">
        <ele>714.4</ele>
        <time>2019-08-13T12:01:23Z</time>
      </trkpt>
      <trkpt lat="40.2462220" lon="-4.4612890">
        <ele>714.6</ele>
        <time>2019-08-13T12:01:24Z</time>
      </trkpt>
      <trkpt lat="40.2462370" lon="-4.4613480">
        <ele>714.8</ele>
        <time>2019-08-13T12:01:25Z</time>
      </trkpt>
      <trkpt lat="40.2462530" lon="-4.4614040">
        <ele>715.0</ele>
        <time>2019-08-13T12:01:26Z</time>
      </trkpt>
      <trkpt lat="40.2462670" lon="-4.4614620">
        <ele>715.1</ele>
        <time>2019-08-13T12:01:27Z</time>
      </trkpt>
      <trkpt lat="40.2462850" lon="-4.4615210">
        <ele>715.2</ele>
        <time>2019-08-13T12:01:28Z</time>
      </trkpt>
      <trkpt lat="40.2463060" lon="-4.4615810">
        <ele>715.4</ele>
        <time>2019-08-13T12:01:29Z</time>
      </trkpt>
      <trkpt lat="40.2463300" lon="-4.4616430">
        <ele>715.4</ele>
        <time>2019-08-13T12:01:30Z</time>
      </trkpt>
      <trkpt lat="40.2463560" lon="-4.4617090">
        <ele>715.5</ele>
        <time>2019-08-13T12:01:31Z</time>
      </trkpt>
      <trkpt lat="40.2463810" lon="-4.4617740">
        <ele>715.5</ele>
        <time>2019-08-13T12:01:32Z</time>
      </trkpt>
      <trkpt lat="40.2464050" lon="-4.4618380">
        <ele>715.5</ele>
        <time>2019-08-13T12:01:33Z</time>
      </trkpt>
      <trkpt lat="40.2464300" lon="-4.4619000">
        <ele>715.5</ele>
        <time>2019-08-13T12:01:34Z</time>
      </trkpt>
      <trkpt lat="40.2464540" lon="-4.4619610">
        <ele>715.4</ele>
        <time>2019-08-13T12:01:35Z</time>
      </trkpt>
      <trkpt lat="40.2464730" lon="-4.4620240">
        <ele>715.3</ele>
        <time>2019-08-13T12:01:36Z</time>
      </trkpt>
      <trkpt lat="40.2464870" lon="-4.4620900">
        <ele>715.2</ele>
        <time>2019-08-13T12:01:37Z</time>
      </trkpt>
      <trkpt lat="40.2464970" lon="-4.4621590">
        <ele>715.1</ele>
        <time>2019-08-13T12:01:38Z</time>
      </trkpt>
      <trkpt lat="40.2465040" lon="-4.4622300">
        <ele>715.1</ele>
        <time>2019-08-13T12:01:39Z</time>
      </trkpt>
      <trkpt lat="40.2465050" lon="-4.4623020">
        <ele>715.1</ele>
        <time>2019-08-13T12:01:40Z</time>
      </trkpt>
      <trkpt lat="40.2464980" lon="-4.4623730">
        <ele>715.1</ele>
        <time>2019-08-13T12:01:41Z</time>
      </trkpt>
      <trkpt lat="40.2464870" lon="-4.4624440">
        <ele>715.1</ele>
        <time>2019-08-13T12:01:42Z</time>
      </trkpt>
      <trkpt lat="40.2464760" lon="-4.4625160">
        <ele>715.1</ele>
        <time>2019-08-13T12:01:43Z</time>
      </trkpt>
      <trkpt lat="40.2464660" lon="-4.4625880">
        <ele>715.2</ele>
        <time>2019-08-13T12:01:44Z</time>
      </trkpt>
      <trkpt lat="40.2464560" lon="-4.4626600">
        <ele>715.1</ele>
        <time>2019-08-13T12:01:45Z</time>
      </trkpt>
      <trkpt lat="40.2464470" lon="-4.4627310">
        <ele>715.1</ele>
        <time>2019-08-13T12:01:46Z</time>
      </trkpt>
      <trkpt lat="40.2464370" lon="-4.4628040">
        <ele>715.0</ele>
        <time>2019-08-13T12:01:47Z</time>
      </trkpt>
      <trkpt lat="40.2464270" lon="-4.4628780">
        <ele>715.0</ele>
        <time>2019-08-13T12:01:48Z</time>
      </trkpt>
      <trkpt lat="40.2464210" lon="-4.4629530">
        <ele>714.9</ele>
        <time>2019-08-13T12:01:49Z</time>
      </trkpt>
      <trkpt lat="40.2464240" lon="-4.4630270">
        <ele>714.8</ele>
        <time>2019-08-13T12:01:50Z</time>
      </trkpt>
      <trkpt lat="40.2464340" lon="-4.4630980">
        <ele>714.8</ele>
        <time>2019-08-13T12:01:51Z</time>
      </trkpt>
      <trkpt lat="40.2464520" lon="-4.4631670">
        <ele>714.7</ele>
        <time>2019-08-13T12:01:52Z</time>
      </trkpt>
      <trkpt lat="40.2464770" lon="-4.4632320">
        <ele>714.7</ele>
        <time>2019-08-13T12:01:53Z</time>
      </trkpt>
      <trkpt lat="40.2465100" lon="-4.4632880">
        <ele>714.6</ele>
        <time>2019-08-13T12:01:54Z</time>
      </trkpt>
      <trkpt lat="40.2465530" lon="-4.4633330">
        <ele>714.5</ele>
        <time>2019-08-13T12:01:55Z</time>
      </trkpt>
      <trkpt lat="40.2466020" lon="-4.4633650">
        <ele>714.3</ele>
        <time>2019-08-13T12:01:56Z</time>
      </trkpt>
      <trkpt lat="40.2466560" lon="-4.4633830">
        <ele>714.2</ele>
        <time>2019-08-13T12:01:57Z</time>
      </trkpt>
      <trkpt lat="40.2467130" lon="-4.4633860">
        <ele>714.1</ele>
        <time>2019-08-13T12:01:58Z</time>
      </trkpt>
      <trkpt lat="40.2467670" lon="-4.4633750">
        <ele>714.0</ele>
        <time>2019-08-13T12:01:59Z</time>
      </trkpt>
      <trkpt lat="40.2468200" lon="-4.4633510">
        <ele>713.9</ele>
        <time>2019-08-13T12:02:00Z</time>
      </trkpt>
      <trkpt lat="40.2468700" lon="-4.4633230">
        <ele>713.8</ele>
        <time>2019-08-13T12:02:01Z</time>
      </trkpt>
      <trkpt lat="40.2469200" lon="-4.4632950">
        <ele>713.7</ele>
        <time>2019-08-13T12:02:02Z</time>
      </trkpt>
      <trkpt lat="40.2469690" lon="-4.4632710">
        <ele>713.7</ele>
        <time>2019-08-13T12:02:03Z</time>
      </trkpt>
      <trkpt lat="40.2470210" lon="-4.4632540">
        <ele>713.7</ele>
        <time>2019-08-13T12:02:04Z</time>
      </trkpt>
      <trkpt lat="40.2470760" lon="-4.4632490">
        <ele>713.7</ele>
        <time>2019-08-13T12:02:05Z</time>
      </trkpt>
      <trkpt lat="40.2471350" lon="-4.4632580">
        <ele>713.7</ele>
        <time>2019-08-13T12:02:06Z</time>
      </trkpt>
      <trkpt lat="40.2471940" lon="-4.4632850">
        <ele>713.7</ele>
        <time>2019-08-13T12:02:07Z</time>
      </trkpt>
      <trkpt lat="40.2472510" lon="-4.4633240">
        <ele>713.7</ele>
        <time>2019-08-13T12:02:08Z</time>
      </trkpt>
      <trkpt lat="40.2473070" lon="-4.4633720">
        <ele>713.6</ele>
        <time>2019-08-13T12:02:09Z</time>
      </trkpt>
      <trkpt lat="40.2473600" lon="-4.4634260">
        <ele>713.5</ele>
        <time>2019-08-13T12:02:10Z</time>
      </trkpt>
      <trkpt lat="40.2474130" lon="-4.4634840">
        <ele>713.4</ele>
        <time>2019-08-13T12:02:11Z</time>
      </trkpt>
      <trkpt lat="40.2474660" lon="-4.4635450">
        <ele>713.3</ele>
        <time>2019-08-13T12:02:12Z</time>
      </trkpt>
      <trkpt lat="40.2475210" lon="-4.4636070">
        <ele>713.3</ele>
        <time>2019-08-13T12:02:13Z</time>
      </trkpt>
      <trkpt lat="40.2475760" lon="-4.4636720">
        <ele>713.3</ele>
        <time>2019-08-13T12:02:14Z</time>
      </trkpt>
      <trkpt lat="40.2476310" lon="-4.4637370">
        <ele>713.3</ele>
        <time>2019-08-13T12:02:15Z</time>
      </trkpt>
      <trkpt lat="40.2476840" lon="-4.4638020">
        <ele>713.3</ele>
        <time>2019-08-13T12:02:16Z</time>
      </trkpt>
      <trkpt lat="40.2477340" lon="-4.4638660">
        <ele>713.1</ele>
        <time>2019-08-13T12:02:17Z</time>
      </trkpt>
      <trkpt lat="40.2477830" lon="-4.4639300">
        <ele>712.8</ele>
        <time>2019-08-13T12:02:18Z</time>
      </trkpt>
      <trkpt lat="40.2478310" lon="-4.4639920">
        <ele>712.6</ele>
        <time>2019-08-13T12:02:19Z</time>
      </trkpt>
      <trkpt lat="40.2478770" lon="-4.4640540">
        <ele>712.3</ele>
        <time>2019-08-13T12:02:20Z</time>
      </trkpt>
      <trkpt lat="40.2479180" lon="-4.4641180">
        <ele>712.1</ele>
        <time>2019-08-13T12:02:21Z</time>
      </trkpt>
      <trkpt lat="40.2479570" lon="-4.4641820">
        <ele>711.9</ele>
        <time>2019-08-13T12:02:22Z</time>
      </trkpt>
      <trkpt lat="40.2479970" lon="-4.4642450">
        <ele>711.6</ele>
        <time>2019-08-13T12:02:23Z</time>
      </trkpt>
      <trkpt lat="40.2480370" lon="-4.4643080">
        <ele>711.4</ele>
        <time>2019-08-13T12:02:24Z</time>
      </trkpt>
      <trkpt lat="40.2480800" lon="-4.4643690">
        <ele>711.1</ele>
        <time>2019-08-13T12:02:25Z</time>
      </trkpt>
      <trkpt lat="40.2481260" lon="-4.4644240">
        <ele>710.9</ele>
        <time>2019-08-13T12:02:26Z</time>
      </trkpt>
      <trkpt lat="40.2481780" lon="-4.4644690">
        <ele>710.6</ele>
        <time>2019-08-13T12:02:27Z</time>
      </trkpt>
      <trkpt lat="40.2482330" lon="-4.4645030">
        <ele>710.4</ele>
        <time>2019-08-13T12:02:28Z</time>
      </trkpt>
      <trkpt lat="40.2482910" lon="-4.4645250">
        <ele>710.1</ele>
        <time>2019-08-13T12:02:29Z</time>
      </trkpt>
      <trkpt lat="40.2483470" lon="-4.4645380">
        <ele>709.9</ele>
        <time>2019-08-13T12:02:30Z</time>
      </trkpt>
      <trkpt lat="40.2484000" lon="-4.4645450">
        <ele>709.7</ele>
        <time>2019-08-13T12:02:31Z</time>
      </trkpt>
      <trkpt lat="40.2484520" lon="-4.4645530">
        <ele>709.6</ele>
        <time>2019-08-13T12:02:32Z</time>
      </trkpt>
      <trkpt lat="40.2485040" lon="-4.4645630">
        <ele>709.5</ele>
        <time>2019-08-13T12:02:33Z</time>
      </trkpt>
      <trkpt lat="40.2485600" lon="-4.4645790">
        <ele>709.4</ele>
        <time>2019-08-13T12:02:34Z</time>
      </trkpt>
      <trkpt lat="40.2486140" lon="-4.4646000">
        <ele>709.3</ele>
        <time>2019-08-13T12:02:35Z</time>
      </trkpt>
      <trkpt lat="40.2486650" lon="-4.4646260">
        <ele>709.3</ele>
        <time>2019-08-13T12:02:36Z</time>
      </trkpt>
      <trkpt lat="40.2487160" lon="-4.4646540">
        <ele>709.2</ele>
        <time>2019-08-13T12:02:37Z</time>
      </trkpt>
      <trkpt lat="40.2487650" lon="-4.4646840">
        <ele>709.2</ele>
        <time>2019-08-13T12:02:38Z</time>
      </trkpt>
      <trkpt lat="40.2488130" lon="-4.4647160">
        <ele>709.2</ele>
        <time>2019-08-13T12:02:39Z</time>
      </trkpt>
      <trkpt lat="40.2488590" lon="-4.4647510">
        <ele>709.2</ele>
        <time>2019-08-13T12:02:40Z</time>
      </trkpt>
      <trkpt lat="40.2489010" lon="-4.4647910">
        <ele>709.2</ele>
        <time>2019-08-13T12:02:41Z</time>
      </trkpt>
      <trkpt lat="40.2489380" lon="-4.4648350">
        <ele>709.2</ele>
        <time>2019-08-13T12:02:42Z</time>
      </trkpt>
      <trkpt lat="40.2489720" lon="-4.4648810">
        <ele>709.2</ele>
        <time>2019-08-13T12:02:43Z</time>
      </trkpt>
      <trkpt lat="40.2490040" lon="-4.4649260">
        <ele>709.2</ele>
        <time>2019-08-13T12:02:44Z</time>
      </trkpt>
      <trkpt lat="40.2490330" lon="-4.4649720">
        <ele>709.3</ele>
        <time>2019-08-13T12:02:45Z</time>
      </trkpt>
      <trkpt lat="40.2490570" lon="-4.4650170">
        <ele>709.3</ele>
        <time>2019-08-13T12:02:46Z</time>
      </trkpt>
      <trkpt lat="40.2490770" lon="-4.4650610">
        <ele>709.3</ele>
        <time>2019-08-13T12:02:47Z</time>
      </trkpt>
      <trkpt lat="40.2490950" lon="-4.4651050">
        <ele>709.4</ele>
        <time>2019-08-13T12:02:48Z</time>
      </trkpt>
      <trkpt lat="40.2491110" lon="-4.4651490">
        <ele>709.4</ele>
        <time>2019-08-13T12:02:49Z</time>
      </trkpt>
      <trkpt lat="40.2491250" lon="-4.4651930">
        <ele>709.5</ele>
        <time>2019-08-13T12:02:50Z</time>
      </trkpt>
      <trkpt lat="40.2491370" lon="-4.4652380">
        <ele>709.6</ele>
        <time>2019-08-13T12:02:51Z</time>
      </trkpt>
      <trkpt lat="40.2491470" lon="-4.4652840">
        <ele>709.8</ele>
        <time>2019-08-13T12:02:52Z</time>
      </trkpt>
      <trkpt lat="40.2491550" lon="-4.4653310">
        <ele>709.9</ele>
        <time>2019-08-13T12:02:53Z</time>
      </trkpt>
      <trkpt lat="40.2491630" lon="-4.4653750">
        <ele>710.1</ele>
        <time>2019-08-13T12:02:54Z</time>
      </trkpt>
      <trkpt lat="40.2491700" lon="-4.4654180">
        <ele>710.3</ele>
        <time>2019-08-13T12:02:55Z</time>
      </trkpt>
      <trkpt lat="40.2491770" lon="-4.4654600">
        <ele>710.5</ele>
        <time>2019-08-13T12:02:56Z</time>
      </trkpt>
      <trkpt lat="40.2491840" lon="-4.4655010">
        <ele>710.7</ele>
        <time>2019-08-13T12:02:57Z</time>
      </trkpt>
      <trkpt lat="40.2491890" lon="-4.4655410">
        <ele>710.9</ele>
        <time>2019-08-13T12:02:58Z</time>
      </trkpt>
      <trkpt lat="40.2491920" lon="-4.4655810">
        <ele>711.1</ele>
        <time>2019-08-13T12:02:59Z</time>
      </trkpt>
      <trkpt lat="40.2491960" lon="-4.4656200">
        <ele>711.3</ele>
        <time>2019-08-13T12:03:00Z</time>
      </trkpt>
      <trkpt lat="40.2492010" lon="-4.4656570">
        <ele>711.5</ele>
        <time>2019-08-13T12:03:01Z</time>
      </trkpt>
      <trkpt lat="40.2492070" lon="-4.4656930">
        <ele>711.7</ele>
        <time>2019-08-13T12:03:02Z</time>
      </trkpt>
      <trkpt lat="40.2492140" lon="-4.4657300">
        <ele>711.9</ele>
        <time>2019-08-13T12:03:03Z</time>
      </trkpt>
      <trkpt lat="40.2492220" lon="-4.4657690">
        <ele>712.0</ele>
        <time>2019-08-13T12:03:04Z</time>
      </trkpt>
      <trkpt lat="40.2492310" lon="-4.4658070">
        <ele>712.2</ele>
        <time>2019-08-13T12:03:05Z</time>
      </trkpt>
      <trkpt lat="40.2492420" lon="-4.4658450">
        <ele>712.3</ele>
        <time>2019-08-13T12:03:06Z</time>
      </trkpt>
      <trkpt lat="40.2492550" lon="-4.4658830">
        <ele>712.5</ele>
        <time>2019-08-13T12:03:07Z</time>
      </trkpt>
      <trkpt lat="40.2492690" lon="-4.4659210">
        <ele>712.7</ele>
        <time>2019-08-13T12:03:08Z</time>
      </trkpt>
      <trkpt lat="40.2492850" lon="-4.4659550">
        <ele>712.8</ele>
        <time>2019-08-13T12:03:09Z</time>
      </trkpt>
      <trkpt lat="40.2493030" lon="-4.4659880">
        <ele>713.0</ele>
        <time>2019-08-13T12:03:10Z</time>
      </trkpt>
      <trkpt lat="40.2493220" lon="-4.4660170">
        <ele>713.1</ele>
        <time>2019-08-13T12:03:11Z</time>
      </trkpt>
      <trkpt lat="40.2493440" lon="-4.4660420">
        <ele>713.3</ele>
        <time>2019-08-13T12:03:12Z</time>
      </trkpt>
      <trkpt lat="40.2493660" lon="-4.4660660">
        <ele>713.5</ele>
        <time>2019-08-13T12:03:13Z</time>
      </trkpt>
      <trkpt lat="40.2493910" lon="-4.4660880">
        <ele>713.7</ele>
        <time>2019-08-13T12:03:14Z</time>
      </trkpt>
      <trkpt lat="40.2494180" lon="-4.4661070">
        <ele>713.8</ele>
        <time>2019-08-13T12:03:15Z</time>
      </trkpt>
      <trkpt lat="40.2494450" lon="-4.4661260">
        <ele>714.0</ele>
        <time>2019-08-13T12:03:16Z</time>
      </trkpt>
      <trkpt lat="40.2494710" lon="-4.4661440">
        <ele>714.2</ele>
        <time>2019-08-13T12:03:17Z</time>
      </trkpt>
      <trkpt lat="40.2494970" lon="-4.4661610">
        <ele>714.4</ele>
        <time>2019-08-13T12:03:18Z</time>
      </trkpt>
      <trkpt lat="40.2495240" lon="-4.4661780">
        <ele>714.6</ele>
        <time>2019-08-13T12:03:19Z</time>
      </trkpt>
      <trkpt lat="40.2495510" lon="-4.4661960">
        <ele>714.8</ele>
        <time>2019-08-13T12:03:20Z</time>
      </trkpt>
      <trkpt lat="40.2495780" lon="-4.4662140">
        <ele>715.0</ele>
        <time>2019-08-13T12:03:21Z</time>
      </trkpt>
      <trkpt lat="40.2496050" lon="-4.4662330">
        <ele>715.3</ele>
        <time>2019-08-13T12:03:22Z</time>
      </trkpt>
      <trkpt lat="40.2496320" lon="-4.4662500">
        <ele>715.5</ele>
        <time>2019-08-13T12:03:23Z</time>
      </trkpt>
      <trkpt lat="40.2496590" lon="-4.4662680">
        <ele>715.7</ele>
        <time>2019-08-13T12:03:24Z</time>
      </trkpt>
      <trkpt lat="40.2496860" lon="-4.4662860">
        <ele>715.9</ele>
        <time>2019-08-13T12:03:25Z</time>
      </trkpt>
      <trkpt lat="40.2497140" lon="-4.4663030">
        <ele>716.2</ele>
        <time>2019-08-13T12:03:26Z</time>
      </trkpt>
      <trkpt lat="40.2497430" lon="-4.4663210">
        <ele>716.4</ele>
        <time>2019-08-13T12:03:27Z</time>
      </trkpt>
      <trkpt lat="40.2497700" lon="-4.4663390">
        <ele>716.6</ele>
        <time>2019-08-13T12:03:28Z</time>
      </trkpt>
      <trkpt lat="40.2497980" lon="-4.4663590">
        <ele>716.8</ele>
        <time>2019-08-13T12:03:29Z</time>
      </trkpt>
      <trkpt lat="40.2498260" lon="-4.4663790">
        <ele>717.0</ele>
        <time>2019-08-13T12:03:30Z</time>
      </trkpt>
      <trkpt lat="40.2498550" lon="-4.4664000">
        <ele>717.2</ele>
        <time>2019-08-13T12:03:31Z</time>
      </trkpt>
      <trkpt lat="40.2498840" lon="-4.4664200">
        <ele>717.4</ele>
        <time>2019-08-13T12:03:32Z</time>
      </trkpt>
      <trkpt lat="40.2499140" lon="-4.4664390">
        <ele>717.6</ele>
        <time>2019-08-13T12:03:33Z</time>
      </trkpt>
      <trkpt lat="40.2499440" lon="-4.4664580">
        <ele>717.8</ele>
        <time>2019-08-13T12:03:34Z</time>
      </trkpt>
      <trkpt lat="40.2499730" lon="-4.4664770">
        <ele>718.0</ele>
        <time>2019-08-13T12:03:35Z</time>
      </trkpt>
      <trkpt lat="40.2500030" lon="-4.4664980">
        <ele>718.2</ele>
        <time>2019-08-13T12:03:36Z</time>
      </trkpt>
      <trkpt lat="40.2500350" lon="-4.4665170">
        <ele>718.3</ele>
        <time>2019-08-13T12:03:37Z</time>
      </trkpt>
      <trkpt lat="40.2500660" lon="-4.4665350">
        <ele>718.5</ele>
        <time>2019-08-13T12:03:38Z</time>
      </trkpt>
      <trkpt lat="40.2500970" lon="-4.4665510">
        <ele>718.7</ele>
        <time>2019-08-13T12:03:39Z</time>
      </trkpt>
      <trkpt lat="40.2501290" lon="-4.4665640">
        <ele>718.8</ele>
        <time>2019-08-13T12:03:40Z</time>
      </trkpt>
      <trkpt lat="40.2501610" lon="-4.4665770">
        <ele>718.9</ele>
        <time>2019-08-13T12:03:41Z</time>
      </trkpt>
      <trkpt lat="40.2501940" lon="-4.4665870">
        <ele>719.0</ele>
        <time>2019-08-13T12:03:42Z</time>
      </trkpt>
      <trkpt lat="40.2502280" lon="-4.4665940">
        <ele>719.1</ele>
        <time>2019-08-13T12:03:43Z</time>
      </trkpt>
      <trkpt lat="40.2502620" lon="-4.4665960">
        <ele>719.2</ele>
        <time>2019-08-13T12:03:44Z</time>
      </trkpt>
      <trkpt lat="40.2502980" lon="-4.4665940">
        <ele>719.3</ele>
        <time>2019-08-13T12:03:45Z</time>
      </trkpt>
      <trkpt lat="40.2503340" lon="-4.4665910">
        <ele>719.5</ele>
        <time>2019-08-13T12:03:46Z</time>
      </trkpt>
      <trkpt lat="40.2503710" lon="-4.4665870">
        <ele>719.6</ele>
        <time>2019-08-13T12:03:47Z</time>
      </trkpt>
      <trkpt lat="40.2504060" lon="-4.4665780">
        <ele>719.7</ele>
        <time>2019-08-13T12:03:48Z</time>
      </trkpt>
      <trkpt lat="40.2504410" lon="-4.4665650">
        <ele>719.8</ele>
        <time>2019-08-13T12:03:49Z</time>
      </trkpt>
      <trkpt lat="40.2504760" lon="-4.4665500">
        <ele>719.9</ele>
        <time>2019-08-13T12:03:50Z</time>
      </trkpt>
      <trkpt lat="40.2505110" lon="-4.4665360">
        <ele>720.0</ele>
        <time>2019-08-13T12:03:51Z</time>
      </trkpt>
      <trkpt lat="40.2505470" lon="-4.4665200">
        <ele>720.1</ele>
        <time>2019-08-13T12:03:52Z</time>
      </trkpt>
      <trkpt lat="40.2505840" lon="-4.4665020">
        <ele>720.2</ele>
        <time>2019-08-13T12:03:53Z</time>
      </trkpt>
      <trkpt lat="40.2506210" lon="-4.4664830">
        <ele>720.4</ele>
        <time>2019-08-13T12:03:54Z</time>
      </trkpt>
      <trkpt lat="40.2506590" lon="-4.4664670">
        <ele>720.5</ele>
        <time>2019-08-13T12:03:55Z</time>
      </trkpt>
      <trkpt lat="40.2506960" lon="-4.4664510">
        <ele>720.6</ele>
        <time>2019-08-13T12:03:56Z</time>
      </trkpt>
      <trkpt lat="40.2507310" lon="-4.4664350">
        <ele>720.8</ele>
        <time>2019-08-13T12:03:57Z</time>
      </trkpt>
      <trkpt lat="40.2507680" lon="-4.4664200">
        <ele>720.9</ele>
        <time>2019-08-13T12:03:58Z</time>
      </trkpt>
      <trkpt lat="40.2508060" lon="-4.4664030">
        <ele>721.0</ele>
        <time>2019-08-13T12:03:59Z</time>
      </trkpt>
      <trkpt lat="40.2508440" lon="-4.4663850">
        <ele>721.1</ele>
        <time>2019-08-13T12:04:00Z</time>
      </trkpt>
      <trkpt lat="40.2508840" lon="-4.4663690">
        <ele>721.3</ele>
        <time>2019-08-13T12:04:01Z</time>
      </trkpt>
      <trkpt lat="40.2509240" lon="-4.4663520">
        <ele>721.4</ele>
        <time>2019-08-13T12:04:02Z</time>
      </trkpt>
      <trkpt lat="40.2509640" lon="-4.4663350">
        <ele>721.5</ele>
        <time>2019-08-13T12:04:03Z</time>
      </trkpt>
      <trkpt lat="40.2510040" lon="-4.4663200">
        <ele>721.6</ele>
        <time>2019-08-13T12:04:04Z</time>
      </trkpt>
      <trkpt lat="40.2510440" lon="-4.4663030">
        <ele>721.6</ele>
        <time>2019-08-13T12:04:05Z</time>
      </trkpt>
      <trkpt lat="40.2510830" lon="-4.4662870">
        <ele>721.7</ele>
        <time>2019-08-13T12:04:06Z</time>
      </trkpt>
      <trkpt lat="40.2511220" lon="-4.4662710">
        <ele>721.7</ele>
        <time>2019-08-13T12:04:07Z</time>
      </trkpt>
      <trkpt lat="40.2511590" lon="-4.4662570">
        <ele>721.8</ele>
        <time>2019-08-13T12:04:08Z</time>
      </trkpt>
      <trkpt lat="40.2511970" lon="-4.4662420">
        <ele>721.8</ele>
        <time>2019-08-13T12:04:09Z</time>
      </trkpt>
      <trkpt lat="40.2512350" lon="-4.4662300">
        <ele>721.9</ele>
        <time>2019-08-13T12:04:10Z</time>
      </trkpt>
      <trkpt lat="40.2512740" lon="-4.4662200">
        <ele>721.9</ele>
        <time>2019-08-13T12:04:11Z</time>
      </trkpt>
      <trkpt lat="40.2513130" lon="-4.4662140">
        <ele>722.0</ele>
        <time>2019-08-13T12:04:12Z</time>
      </trkpt>
      <trkpt lat="40.2513540" lon="-4.4662120">
        <ele>722.0</ele>
        <time>2019-08-13T12:04:13Z</time>
      </trkpt>
      <trkpt lat="40.2513960" lon="-4.4662130">
        <ele>722.1</ele>
        <time>2019-08-13T12:04:14Z</time>
      </trkpt>
      <trkpt lat="40.2514390" lon="-4.4662150">
        <ele>722.1</ele>
        <time>2019-08-13T12:04:15Z</time>
      </trkpt>
      <trkpt lat="40.2514820" lon="-4.4662180">
        <ele>722.2</ele>
        <time>2019-08-13T12:04:16Z</time>
      </trkpt>
      <trkpt lat="40.2515230" lon="-4.4662210">
        <ele>722.3</ele>
        <time>2019-08-13T12:04:17Z</time>
      </trkpt>
      <trkpt lat="40.2515620" lon="-4.4662220">
        <ele>722.3</ele>
        <time>2019-08-13T12:04:18Z</time>
      </trkpt>
      <trkpt lat="40.2516030" lon="-4.4662230">
        <ele>722.4</ele>
        <time>2019-08-13T12:04:19Z</time>
      </trkpt>
      <trkpt lat="40.2516440" lon="-4.4662250">
        <ele>722.5</ele>
        <time>2019-08-13T12:04:20Z</time>
      </trkpt>
      <trkpt lat="40.2516860" lon="-4.4662300">
        <ele>722.5</ele>
        <time>2019-08-13T12:04:21Z</time>
      </trkpt>
      <trkpt lat="40.2517270" lon="-4.4662350">
        <ele>722.6</ele>
        <time>2019-08-13T12:04:22Z</time>
      </trkpt>
      <trkpt lat="40.2517700" lon="-4.4662390">
        <ele>722.6</ele>
        <time>2019-08-13T12:04:23Z</time>
      </trkpt>
      <trkpt lat="40.2518170" lon="-4.4662430">
        <ele>722.7</ele>
        <time>2019-08-13T12:04:24Z</time>
      </trkpt>
      <trkpt lat="40.2518650" lon="-4.4662450">
        <ele>722.8</ele>
        <time>2019-08-13T12:04:25Z</time>
      </trkpt>
      <trkpt lat="40.2519120" lon="-4.4662490">
        <ele>722.8</ele>
        <time>2019-08-13T12:04:26Z</time>
      </trkpt>
      <trkpt lat="40.2519570" lon="-4.4662530">
        <ele>722.9</ele>
        <time>2019-08-13T12:04:27Z</time>
      </trkpt>
      <trkpt lat="40.2520010" lon="-4.4662590">
        <ele>722.9</ele>
        <time>2019-08-13T12:04:28Z</time>
      </trkpt>
      <trkpt lat="40.2520440" lon="-4.4662640">
        <ele>723.0</ele>
        <time>2019-08-13T12:04:29Z</time>
      </trkpt>
      <trkpt lat="40.2520870" lon="-4.4662650">
        <ele>723.0</ele>
        <time>2019-08-13T12:04:30Z</time>
      </trkpt>
      <trkpt lat="40.2521330" lon="-4.4662680">
        <ele>723.1</ele>
        <time>2019-08-13T12:04:31Z</time>
      </trkpt>
      <trkpt lat="40.2521800" lon="-4.4662720">
        <ele>723.1</ele>
        <time>2019-08-13T12:04:32Z</time>
      </trkpt>
      <trkpt lat="40.2522260" lon="-4.4662780">
        <ele>723.2</ele>
        <time>2019-08-13T12:04:33Z</time>
      </trkpt>
      <trkpt lat="40.2522710" lon="-4.4662850">
        <ele>723.2</ele>
        <time>2019-08-13T12:04:34Z</time>
      </trkpt>
      <trkpt lat="40.2523170" lon="-4.4662950">
        <ele>723.2</ele>
        <time>2019-08-13T12:04:35Z</time>
      </trkpt>
      <trkpt lat="40.2523610" lon="-4.4663070">
        <ele>723.3</ele>
        <time>2019-08-13T12:04:36Z</time>
      </trkpt>
      <trkpt lat="40.2524020" lon="-4.4663210">
        <ele>723.3</ele>
        <time>2019-08-13T12:04:37Z</time>
      </trkpt>
      <trkpt lat="40.2524410" lon="-4.4663390">
        <ele>723.4</ele>
        <time>2019-08-13T12:04:38Z</time>
      </trkpt>
      <trkpt lat="40.2524780" lon="-4.4663570">
        <ele>723.4</ele>
        <time>2019-08-13T12:04:39Z</time>
      </trkpt>
      <trkpt lat="40.2525150" lon="-4.4663780">
        <ele>723.5</ele>
        <time>2019-08-13T12:04:40Z</time>
      </trkpt>
      <trkpt lat="40.2525500" lon="-4.4664030">
        <ele>723.5</ele>
        <time>2019-08-13T12:04:41Z</time>
      </trkpt>
      <trkpt lat="40.2525850" lon="-4.4664320">
        <ele>723.5</ele>
        <time>2019-08-13T12:04:42Z</time>
      </trkpt>
      <trkpt lat="40.2526200" lon="-4.4664670">
        <ele>723.6</ele>
        <time>2019-08-13T12:04:43Z</time>
      </trkpt>
      <trkpt lat="40.2526530" lon="-4.4665090">
        <ele>723.6</ele>
        <time>2019-08-13T12:04:44Z</time>
      </trkpt>
      <trkpt lat="40.2526860" lon="-4.4665580">
        <ele>723.7</ele>
        <time>2019-08-13T12:04:45Z</time>
      </trkpt>
      <trkpt lat="40.2527160" lon="-4.4666140">
        <ele>723.7</ele>
        <time>2019-08-13T12:04:46Z</time>
      </trkpt>
      <trkpt lat="40.2527440" lon="-4.4666770">
        <ele>723.7</ele>
        <time>2019-08-13T12:04:47Z</time>
      </trkpt>
      <trkpt lat="40.2527700" lon="-4.4667450">
        <ele>723.7</ele>
        <time>2019-08-13T12:04:48Z</time>
      </trkpt>
      <trkpt lat="40.2527990" lon="-4.4668180">
        <ele>723.8</ele>
        <time>2019-08-13T12:04:49Z</time>
      </trkpt>
      <trkpt lat="40.2528300" lon="-4.4668940">
        <ele>723.8</ele>
        <time>2019-08-13T12:04:50Z</time>
      </trkpt>
      <trkpt lat="40.2528640" lon="-4.4669720">
        <ele>723.8</ele>
        <time>2019-08-13T12:04:51Z</time>
      </trkpt>
      <trkpt lat="40.2528990" lon="-4.4670520">
        <ele>723.7</ele>
        <time>2019-08-13T12:04:52Z</time>
      </trkpt>
      <trkpt lat="40.2529350" lon="-4.4671360">
        <ele>723.7</ele>
        <time>2019-08-13T12:04:53Z</time>
      </trkpt>
      <trkpt lat="40.2529710" lon="-4.4672230">
        <ele>723.7</ele>
        <time>2019-08-13T12:04:54Z</time>
      </trkpt>
      <trkpt lat="40.2530060" lon="-4.4673110">
        <ele>723.7</ele>
        <time>2019-08-13T12:04:55Z</time>
      </trkpt>
      <trkpt lat="40.2530420" lon="-4.4673990">
        <ele>723.7</ele>
        <time>2019-08-13T12:04:56Z</time>
      </trkpt>
      <trkpt lat="40.2530790" lon="-4.4674860">
        <ele>723.6</ele>
        <time>2019-08-13T12:04:57Z</time>
      </trkpt>
      <trkpt lat="40.2531140" lon="-4.4675690">
        <ele>723.6</ele>
        <time>2019-08-13T12:04:58Z</time>
      </trkpt>
      <trkpt lat="40.2531480" lon="-4.4676490">
        <ele>723.5</ele>
        <time>2019-08-13T12:04:59Z</time>
      </trkpt>
      <trkpt lat="40.2531850" lon="-4.4677250">
        <ele>723.4</ele>
        <time>2019-08-13T12:05:00Z</time>
      </trkpt>
      <trkpt lat="40.2532190" lon="-4.4678000">
        <ele>723.2</ele>
        <time>2019-08-13T12:05:01Z</time>
      </trkpt>
      <trkpt lat="40.2532510" lon="-4.4678690">
        <ele>723.0</ele>
        <time>2019-08-13T12:05:02Z</time>
      </trkpt>
      <trkpt lat="40.2532820" lon="-4.4679350">
        <ele>722.7</ele>
        <time>2019-08-13T12:05:03Z</time>
      </trkpt>
      <trkpt lat="40.2533110" lon="-4.4680010">
        <ele>722.5</ele>
        <time>2019-08-13T12:05:04Z</time>
      </trkpt>
      <trkpt lat="40.2533390" lon="-4.4680650">
        <ele>722.2</ele>
        <time>2019-08-13T12:05:05Z</time>
      </trkpt>
      <trkpt lat="40.2533670" lon="-4.4681260">
        <ele>721.9</ele>
        <time>2019-08-13T12:05:06Z</time>
      </trkpt>
      <trkpt lat="40.2533920" lon="-4.4681840">
        <ele>721.6</ele>
        <time>2019-08-13T12:05:07Z</time>
      </trkpt>
      <trkpt lat="40.2534150" lon="-4.4682410">
        <ele>721.3</ele>
        <time>2019-08-13T12:05:08Z</time>
      </trkpt>
      <trkpt lat="40.2534390" lon="-4.4682970">
        <ele>721.1</ele>
        <time>2019-08-13T12:05:09Z</time>
      </trkpt>
      <trkpt lat="40.2534640" lon="-4.4683540">
        <ele>720.8</ele>
        <time>2019-08-13T12:05:10Z</time>
      </trkpt>
      <trkpt lat="40.2534880" lon="-4.4684130">
        <ele>720.6</ele>
        <time>2019-08-13T12:05:11Z</time>
      </trkpt>
      <trkpt lat="40.2535120" lon="-4.4684700">
        <ele>720.4</ele>
        <time>2019-08-13T12:05:12Z</time>
      </trkpt>
      <trkpt lat="40.2535370" lon="-4.4685260">
        <ele>720.2</ele>
        <time>2019-08-13T12:05:13Z</time>
      </trkpt>
      <trkpt lat="40.2535620" lon="-4.4685830">
        <ele>720.0</ele>
        <time>2019-08-13T12:05:14Z</time>
      </trkpt>
      <trkpt lat="40.2535860" lon="-4.4686410">
        <ele>719.9</ele>
        <time>2019-08-13T12:05:15Z</time>
      </trkpt>
      <trkpt lat="40.2536100" lon="-4.4686970">
        <ele>719.8</ele>
        <time>2019-08-13T12:05:16Z</time>
      </trkpt>
      <trkpt lat="40.2536340" lon="-4.4687520">
        <ele>719.8</ele>
        <time>2019-08-13T12:05:17Z</time>
      </trkpt>
      <trkpt lat="40.2536580" lon="-4.4688080">
        <ele>719.7</ele>
        <time>2019-08-13T12:05:18Z</time>
      </trkpt>
      <trkpt lat="40.2536800" lon="-4.4688650">
        <ele>719.7</ele>
        <time>2019-08-13T12:05:19Z</time>
      </trkpt>
      <trkpt lat="40.2537030" lon="-4.4689220">
        <ele>719.7</ele>
        <time>2019-08-13T12:05:20Z</time>
      </trkpt>
      <trkpt lat="40.2537260" lon="-4.4689780">
        <ele>719.6</ele>
        <time>2019-08-13T12:05:21Z</time>
      </trkpt>
      <trkpt lat="40.2537490" lon="-4.4690320">
        <ele>719.6</ele>
        <time>2019-08-13T12:05:22Z</time>
      </trkpt>
      <trkpt lat="40.2537730" lon="-4.4690870">
        <ele>719.6</ele>
        <time>2019-08-13T12:05:23Z</time>
      </trkpt>
      <trkpt lat="40.2537980" lon="-4.4691420">
        <ele>719.6</ele>
        <time>2019-08-13T12:05:24Z</time>
      </trkpt>
      <trkpt lat="40.2538240" lon="-4.4691980">
        <ele>719.6</ele>
        <time>2019-08-13T12:05:25Z</time>
      </trkpt>
      <trkpt lat="40.2538470" lon="-4.4692550">
        <ele>719.6</ele>
        <time>2019-08-13T12:05:26Z</time>
      </trkpt>
      <trkpt lat="40.2538690" lon="-4.4693120">
        <ele>719.6</ele>
        <time>2019-08-13T12:05:27Z</time>
      </trkpt>
      <trkpt lat="40.2538920" lon="-4.4693680">
        <ele>719.6</ele>
        <time>2019-08-13T12:05:28Z</time>
      </trkpt>
      <trkpt lat="40.2539160" lon="-4.4694230">
        <ele>719.6</ele>
        <time>2019-08-13T12:05:29Z</time>
      </trkpt>
      <trkpt lat="40.2539410" lon="-4.4694780">
        <ele>719.7</ele>
        <time>2019-08-13T12:05:30Z</time>
      </trkpt>
      <trkpt lat="40.2539640" lon="-4.4695330">
        <ele>719.7</ele>
        <time>2019-08-13T12:05:31Z</time>
      </trkpt>
      <trkpt lat="40.2539880" lon="-4.4695880">
        <ele>719.8</ele>
        <time>2019-08-13T12:05:32Z</time>
      </trkpt>
      <trkpt lat="40.2540100" lon="-4.4696440">
        <ele>719.8</ele>
        <time>2019-08-13T12:05:33Z</time>
      </trkpt>
      <trkpt lat="40.2540340" lon="-4.4696990">
        <ele>719.9</ele>
        <time>2019-08-13T12:05:34Z</time>
      </trkpt>
      <trkpt lat="40.2540580" lon="-4.4697530">
        <ele>719.9</ele>
        <time>2019-08-13T12:05:35Z</time>
      </trkpt>
      <trkpt lat="40.2540820" lon="-4.4698080">
        <ele>720.0</ele>
        <time>2019-08-13T12:05:36Z</time>
      </trkpt>
      <trkpt lat="40.2541060" lon="-4.4698630">
        <ele>720.1</ele>
        <time>2019-08-13T12:05:37Z</time>
      </trkpt>
      <trkpt lat="40.2541310" lon="-4.4699190">
        <ele>720.2</ele>
        <time>2019-08-13T12:05:38Z</time>
      </trkpt>
      <trkpt lat="40.2541530" lon="-4.4699730">
        <ele>720.2</ele>
        <time>2019-08-13T12:05:39Z</time>
      </trkpt>
      <trkpt lat="40.2541720" lon="-4.4700260">
        <ele>720.3</ele>
        <time>2019-08-13T12:05:40Z</time>
      </trkpt>
      <trkpt lat="40.2541920" lon="-4.4700750">
        <ele>720.4</ele>
        <time>2019-08-13T12:05:41Z</time>
      </trkpt>
      <trkpt lat="40.2542140" lon="-4.4701220">
        <ele>720.4</ele>
        <time>2019-08-13T12:05:42Z</time>
      </trkpt>
      <trkpt lat="40.2542380" lon="-4.4701680">
        <ele>720.5</ele>
        <time>2019-08-13T12:05:43Z</time>
      </trkpt>
      <trkpt lat="40.2542610" lon="-4.4702180">
        <ele>720.6</ele>
        <time>2019-08-13T12:05:44Z</time>
      </trkpt>
      <trkpt lat="40.2542830" lon="-4.4702700">
        <ele>720.6</ele>
        <time>2019-08-13T12:05:45Z</time>
      </trkpt>
      <trkpt lat="40.2543060" lon="-4.4703240">
        <ele>720.7</ele>
        <time>2019-08-13T12:05:46Z</time>
      </trkpt>
      <trkpt lat="40.2543300" lon="-4.4703770">
        <ele>720.8</ele>
        <time>2019-08-13T12:05:47Z</time>
      </trkpt>
      <trkpt lat="40.2543530" lon="-4.4704280">
        <ele>720.9</ele>
        <time>2019-08-13T12:05:48Z</time>
      </trkpt>
      <trkpt lat="40.2543750" lon="-4.4704780">
        <ele>720.9</ele>
        <time>2019-08-13T12:05:49Z</time>
      </trkpt>
      <trkpt lat="40.2543960" lon="-4.4705280">
        <ele>721.0</ele>
        <time>2019-08-13T12:05:50Z</time>
      </trkpt>
      <trkpt lat="40.2544180" lon="-4.4705780">
        <ele>721.1</ele>
        <time>2019-08-13T12:05:51Z</time>
      </trkpt>
      <trkpt lat="40.2544370" lon="-4.4706270">
        <ele>721.1</ele>
        <time>2019-08-13T12:05:52Z</time>
      </trkpt>
      <trkpt lat="40.2544540" lon="-4.4706750">
        <ele>721.2</ele>
        <time>2019-08-13T12:05:53Z</time>
      </trkpt>
      <trkpt lat="40.2544680" lon="-4.4707200">
        <ele>721.2</ele>
        <time>2019-08-13T12:05:54Z</time>
      </trkpt>
      <trkpt lat="40.2544820" lon="-4.4707660">
        <ele>721.3</ele>
        <time>2019-08-13T12:05:55Z</time>
      </trkpt>
      <trkpt lat="40.2544960" lon="-4.4708140">
        <ele>721.4</ele>
        <time>2019-08-13T12:05:56Z</time>
      </trkpt>
      <trkpt lat="40.2545140" lon="-4.4708630">
        <ele>721.4</ele>
        <time>2019-08-13T12:05:57Z</time>
      </trkpt>
      <trkpt lat="40.2545320" lon="-4.4709140">
        <ele>721.4</ele>
        <time>2019-08-13T12:05:58Z</time>
      </trkpt>
      <trkpt lat="40.2545500" lon="-4.4709660">
        <ele>721.5</ele>
        <time>2019-08-13T12:05:59Z</time>
      </trkpt>
      <trkpt lat="40.2545710" lon="-4.4710230">
        <ele>721.5</ele>
        <time>2019-08-13T12:06:00Z</time>
      </trkpt>
      <trkpt lat="40.2545970" lon="-4.4710790">
        <ele>721.6</ele>
        <time>2019-08-13T12:06:01Z</time>
      </trkpt>
      <trkpt lat="40.2546270" lon="-4.4711300">
        <ele>721.6</ele>
        <time>2019-08-13T12:06:02Z</time>
      </trkpt>
      <trkpt lat="40.2546630" lon="-4.4711770">
        <ele>721.7</ele>
        <time>2019-08-13T12:06:03Z</time>
      </trkpt>
      <trkpt lat="40.2547020" lon="-4.4712170">
        <ele>721.8</ele>
        <time>2019-08-13T12:06:04Z</time>
      </trkpt>
      <trkpt lat="40.2547450" lon="-4.4712520">
        <ele>721.8</ele>
        <time>2019-08-13T12:06:05Z</time>
      </trkpt>
      <trkpt lat="40.2547920" lon="-4.4712780">
        <ele>721.9</ele>
        <time>2019-08-13T12:06:06Z</time>
      </trkpt>
      <trkpt lat="40.2548410" lon="-4.4712980">
        <ele>722.1</ele>
        <time>2019-08-13T12:06:07Z</time>
      </trkpt>
      <trkpt lat="40.2548940" lon="-4.4713090">
        <ele>722.2</ele>
        <time>2019-08-13T12:06:08Z</time>
      </trkpt>
      <trkpt lat="40.2549480" lon="-4.4713120">
        <ele>722.3</ele>
        <time>2019-08-13T12:06:09Z</time>
      </trkpt>
      <trkpt lat="40.2550030" lon="-4.4713120">
        <ele>722.4</ele>
        <time>2019-08-13T12:06:10Z</time>
      </trkpt>
      <trkpt lat="40.2550570" lon="-4.4713080">
        <ele>722.6</ele>
        <time>2019-08-13T12:06:11Z</time>
      </trkpt>
      <trkpt lat="40.2551090" lon="-4.4713030">
        <ele>722.8</ele>
        <time>2019-08-13T12:06:12Z</time>
      </trkpt>
      <trkpt lat="40.2551570" lon="-4.4712970">
        <ele>722.9</ele>
        <time>2019-08-13T12:06:13Z</time>
      </trkpt>
      <trkpt lat="40.2552020" lon="-4.4712880">
        <ele>723.0</ele>
        <time>2019-08-13T12:06:14Z</time>
      </trkpt>
      <trkpt lat="40.2552440" lon="-4.4712790">
        <ele>723.1</ele>
        <time>2019-08-13T12:06:15Z</time>
      </trkpt>
      <trkpt lat="40.2552870" lon="-4.4712710">
        <ele>723.1</ele>
        <time>2019-08-13T12:06:16Z</time>
      </trkpt>
      <trkpt lat="40.2553270" lon="-4.4712630">
        <ele>723.1</ele>
        <time>2019-08-13T12:06:17Z</time>
      </trkpt>
      <trkpt lat="40.2553650" lon="-4.4712550">
        <ele>723.2</ele>
        <time>2019-08-13T12:06:18Z</time>
      </trkpt>
      <trkpt lat="40.2553990" lon="-4.4712480">
        <ele>723.3</ele>
        <time>2019-08-13T12:06:19Z</time>
      </trkpt>
      <trkpt lat="40.2554310" lon="-4.4712420">
        <ele>723.4</ele>
        <time>2019-08-13T12:06:20Z</time>
      </trkpt>
      <trkpt lat="40.2554590" lon="-4.4712380">
        <ele>723.5</ele>
        <time>2019-08-13T12:06:21Z</time>
      </trkpt>
      <trkpt lat="40.2555110" lon="-4.4712270">
        <ele>723.8</ele>
        <time>2019-08-13T12:06:23Z</time>
      </trkpt>
      <trkpt lat="40.2555590" lon="-4.4712200">
        <ele>724.0</ele>
        <time>2019-08-13T12:06:25Z</time>
      </trkpt>
      <trkpt lat="40.2556040" lon="-4.4712120">
        <ele>724.2</ele>
        <time>2019-08-13T12:06:27Z</time>
      </trkpt>
      <trkpt lat="40.2556510" lon="-4.4712090">
        <ele>724.5</ele>
        <time>2019-08-13T12:06:29Z</time>
      </trkpt>
      <trkpt lat="40.2556990" lon="-4.4712020">
        <ele>724.8</ele>
        <time>2019-08-13T12:06:31Z</time>
      </trkpt>
      <trkpt lat="40.2557470" lon="-4.4711910">
        <ele>725.1</ele>
        <time>2019-08-13T12:06:33Z</time>
      </trkpt>
      <trkpt lat="40.2557940" lon="-4.4711850">
        <ele>725.5</ele>
        <time>2019-08-13T12:06:35Z</time>
      </trkpt>
      <trkpt lat="40.2558400" lon="-4.4711800">
        <ele>725.8</ele>
        <time>2019-08-13T12:06:37Z</time>
      </trkpt>
      <trkpt lat="40.2558870" lon="-4.4711730">
        <ele>726.1</ele>
        <time>2019-08-13T12:06:39Z</time>
      </trkpt>
      <trkpt lat="40.2559360" lon="-4.4711680">
        <ele>726.6</ele>
        <time>2019-08-13T12:06:41Z</time>
      </trkpt>
      <trkpt lat="40.2559840" lon="-4.4711610">
        <ele>727.0</ele>
        <time>2019-08-13T12:06:43Z</time>
      </trkpt>
      <trkpt lat="40.2560300" lon="-4.4711550">
        <ele>727.5</ele>
        <time>2019-08-13T12:06:45Z</time>
      </trkpt>
      <trkpt lat="40.2560750" lon="-4.4711520">
        <ele>727.9</ele>
        <time>2019-08-13T12:06:47Z</time>
      </trkpt>
      <trkpt lat="40.2561200" lon="-4.4711440">
        <ele>728.3</ele>
        <time>2019-08-13T12:06:49Z</time>
      </trkpt>
      <trkpt lat="40.2561670" lon="-4.4711380">
        <ele>728.8</ele>
        <time>2019-08-13T12:06:51Z</time>
      </trkpt>
      <trkpt lat="40.2562140" lon="-4.4711340">
        <ele>729.2</ele>
        <time>2019-08-13T12:06:53Z</time>
      </trkpt>
      <trkpt lat="40.2562610" lon="-4.4711270">
        <ele>729.6</ele>
        <time>2019-08-13T12:06:55Z</time>
      </trkpt>
      <trkpt lat="40.2563100" lon="-4.4711220">
        <ele>730.1</ele>
        <time>2019-08-13T12:06:57Z</time>
      </trkpt>
      <trkpt lat="40.2563570" lon="-4.4711180">
        <ele>730.5</ele>
        <time>2019-08-13T12:06:59Z</time>
      </trkpt>
      <trkpt lat="40.2564030" lon="-4.4711140">
        <ele>730.9</ele>
        <time>2019-08-13T12:07:01Z</time>
      </trkpt>
      <trkpt lat="40.2564500" lon="-4.4711100">
        <ele>731.3</ele>
        <time>2019-08-13T12:07:03Z</time>
      </trkpt>
      <trkpt lat="40.2564980" lon="-4.4711060">
        <ele>731.8</ele>
        <time>2019-08-13T12:07:05Z</time>
      </trkpt>
      <trkpt lat="40.2565450" lon="-4.4711030">
        <ele>732.2</ele>
        <time>2019-08-13T12:07:07Z</time>
      </trkpt>
      <trkpt lat="40.2565920" lon="-4.4710990">
        <ele>732.6</ele>
        <time>2019-08-13T12:07:09Z</time>
      </trkpt>
      <trkpt lat="40.2566390" lon="-4.4710970">
        <ele>733.0</ele>
        <time>2019-08-13T12:07:11Z</time>
      </trkpt>
      <trkpt lat="40.2566870" lon="-4.4710950">
        <ele>733.4</ele>
        <time>2019-08-13T12:07:13Z</time>
      </trkpt>
      <trkpt lat="40.2567340" lon="-4.4710890">
        <ele>733.7</ele>
        <time>2019-08-13T12:07:15Z</time>
      </trkpt>
      <trkpt lat="40.2567820" lon="-4.4710840">
        <ele>734.1</ele>
        <time>2019-08-13T12:07:17Z</time>
      </trkpt>
      <trkpt lat="40.2568310" lon="-4.4710830">
        <ele>734.5</ele>
        <time>2019-08-13T12:07:19Z</time>
      </trkpt>
      <trkpt lat="40.2568800" lon="-4.4710800">
        <ele>734.9</ele>
        <time>2019-08-13T12:07:21Z</time>
      </trkpt>
      <trkpt lat="40.2569290" lon="-4.4710790">
        <ele>735.3</ele>
        <time>2019-08-13T12:07:23Z</time>
      </trkpt>
      <trkpt lat="40.2569760" lon="-4.4710770">
        <ele>735.7</ele>
        <time>2019-08-13T12:07:25Z</time>
      </trkpt>
      <trkpt lat="40.2570230" lon="-4.4710730">
        <ele>736.1</ele>
        <time>2019-08-13T12:07:27Z</time>
      </trkpt>
      <trkpt lat="40.2570700" lon="-4.4710720">
        <ele>736.4</ele>
        <time>2019-08-13T12:07:29Z</time>
      </trkpt>
      <trkpt lat="40.2571160" lon="-4.4710670">
        <ele>736.8</ele>
        <time>2019-08-13T12:07:31Z</time>
      </trkpt>
      <trkpt lat="40.2571640" lon="-4.4710630">
        <ele>737.1</ele>
        <time>2019-08-13T12:07:33Z</time>
      </trkpt>
      <trkpt lat="40.2572120" lon="-4.4710570">
        <ele>737.5</ele>
        <time>2019-08-13T12:07:35Z</time>
      </trkpt>
      <trkpt lat="40.2572590" lon="-4.4710490">
        <ele>737.8</ele>
        <time>2019-08-13T12:07:37Z</time>
      </trkpt>
      <trkpt lat="40.2573060" lon="-4.4710400">
        <ele>738.1</ele>
        <time>2019-08-13T12:07:39Z</time>
      </trkpt>
      <trkpt lat="40.2573540" lon="-4.4710270">
        <ele>738.4</ele>
        <time>2019-08-13T12:07:41Z</time>
      </trkpt>
      <trkpt lat="40.2573990" lon="-4.4710090">
        <ele>738.7</ele>
        <time>2019-08-13T12:07:43Z</time>
      </trkpt>
      <trkpt lat="40.2574450" lon="-4.4709860">
        <ele>739.0</ele>
        <time>2019-08-13T12:07:45Z</time>
      </trkpt>
      <trkpt lat="40.2574910" lon="-4.4709600">
        <ele>739.4</ele>
        <time>2019-08-13T12:07:47Z</time>
      </trkpt>
      <trkpt lat="40.2575360" lon="-4.4709310">
        <ele>739.8</ele>
        <time>2019-08-13T12:07:49Z</time>
      </trkpt>
      <trkpt lat="40.2575800" lon="-4.4708980">
        <ele>740.1</ele>
        <time>2019-08-13T12:07:51Z</time>
      </trkpt>
      <trkpt lat="40.2576230" lon="-4.4708660">
        <ele>740.5</ele>
        <time>2019-08-13T12:07:53Z</time>
      </trkpt>
      <trkpt lat="40.2576640" lon="-4.4708360">
        <ele>740.9</ele>
        <time>2019-08-13T12:07:55Z</time>
      </trkpt>
      <trkpt lat="40.2577050" lon="-4.4708090">
        <ele>741.3</ele>
        <time>2019-08-13T12:07:57Z</time>
      </trkpt>
      <trkpt lat="40.2577490" lon="-4.4707850">
        <ele>741.7</ele>
        <time>2019-08-13T12:07:59Z</time>
      </trkpt>
      <trkpt lat="40.2577920" lon="-4.4707600">
        <ele>742.0</ele>
        <time>2019-08-13T12:08:01Z</time>
      </trkpt>
      <trkpt lat="40.2578350" lon="-4.4707340">
        <ele>742.4</ele>
        <time>2019-08-13T12:08:03Z</time>
      </trkpt>
      <trkpt lat="40.2578760" lon="-4.4707120">
        <ele>742.8</ele>
        <time>2019-08-13T12:08:05Z</time>
      </trkpt>
      <trkpt lat="40.2579190" lon="-4.4706940">
        <ele>743.1</ele>
        <time>2019-08-13T12:08:07Z</time>
      </trkpt>
      <trkpt lat="40.2579630" lon="-4.4706760">
        <ele>743.5</ele>
        <time>2019-08-13T12:08:09Z</time>
      </trkpt>
      <trkpt lat="40.2580080" lon="-4.4706550">
        <ele>743.8</ele>
        <time>2019-08-13T12:08:11Z</time>
      </trkpt>
      <trkpt lat="40.2580550" lon="-4.4706370">
        <ele>744.2</ele>
        <time>2019-08-13T12:08:13Z</time>
      </trkpt>
      <trkpt lat="40.2581020" lon="-4.4706180">
        <ele>744.5</ele>
        <time>2019-08-13T12:08:15Z</time>
      </trkpt>
      <trkpt lat="40.2581490" lon="-4.4705950">
        <ele>744.8</ele>
        <time>2019-08-13T12:08:17Z</time>
      </trkpt>
      <trkpt lat="40.2581970" lon="-4.4705730">
        <ele>745.1</ele>
        <time>2019-08-13T12:08:19Z</time>
      </trkpt>
      <trkpt lat="40.2582470" lon="-4.4705500">
        <ele>745.4</ele>
        <time>2019-08-13T12:08:21Z</time>
      </trkpt>
      <trkpt lat="40.2582980" lon="-4.4705280">
        <ele>745.7</ele>
        <time>2019-08-13T12:08:23Z</time>
      </trkpt>
      <trkpt lat="40.2583240" lon="-4.4705170">
        <ele>745.8</ele>
        <time>2019-08-13T12:08:24Z</time>
      </trkpt>
      <trkpt lat="40.2583510" lon="-4.4705050">
        <ele>745.9</ele>
        <time>2019-08-13T12:08:25Z</time>
      </trkpt>
      <trkpt lat="40.2583780" lon="-4.4704940">
        <ele>746.1</ele>
        <time>2019-08-13T12:08:26Z</time>
      </trkpt>
      <trkpt lat="40.2584050" lon="-4.4704820">
        <ele>746.2</ele>
        <time>2019-08-13T12:08:27Z</time>
      </trkpt>
      <trkpt lat="40.2584320" lon="-4.4704700">
        <ele>746.3</ele>
        <time>2019-08-13T12:08:28Z</time>
      </trkpt>
      <trkpt lat="40.2584590" lon="-4.4704600">
        <ele>746.4</ele>
        <time>2019-08-13T12:08:29Z</time>
      </trkpt>
      <trkpt lat="40.2584850" lon="-4.4704510">
        <ele>746.6</ele>
        <time>2019-08-13T12:08:30Z</time>
      </trkpt>
      <trkpt lat="40.2585120" lon="-4.4704420">
        <ele>746.7</ele>
        <time>2019-08-13T12:08:31Z</time>
      </trkpt>
      <trkpt lat="40.2585400" lon="-4.4704330">
        <ele>746.8</ele>
        <time>2019-08-13T12:08:32Z</time>
      </trkpt>
      <trkpt lat="40.2585680" lon="-4.4704240">
        <ele>747.0</ele>
        <time>2019-08-13T12:08:33Z</time>
      </trkpt>
      <trkpt lat="40.2585970" lon="-4.4704160">
        <ele>747.1</ele>
        <time>2019-08-13T12:08:34Z</time>
      </trkpt>
      <trkpt lat="40.2586250" lon="-4.4704100">
        <ele>747.2</ele>
        <time>2019-08-13T12:08:35Z</time>
      </trkpt>
      <trkpt lat="40.2586540" lon="-4.4704050">
        <ele>747.3</ele>
        <time>2019-08-13T12:08:36Z</time>
      </trkpt>
      <trkpt lat="40.2586830" lon="-4.4704010">
        <ele>747.5</ele>
        <time>2019-08-13T12:08:37Z</time>
      </trkpt>
      <trkpt lat="40.2587140" lon="-4.4703980">
        <ele>747.6</ele>
        <time>2019-08-13T12:08:38Z</time>
      </trkpt>
      <trkpt lat="40.2587440" lon="-4.4703960">
        <ele>747.7</ele>
        <time>2019-08-13T12:08:39Z</time>
      </trkpt>
      <trkpt lat="40.2587750" lon="-4.4703950">
        <ele>747.9</ele>
        <time>2019-08-13T12:08:40Z</time>
      </trkpt>
      <trkpt lat="40.2588050" lon="-4.4703950">
        <ele>748.0</ele>
        <time>2019-08-13T12:08:41Z</time>
      </trkpt>
      <trkpt lat="40.2588360" lon="-4.4703950">
        <ele>748.1</ele>
        <time>2019-08-13T12:08:42Z</time>
      </trkpt>
      <trkpt lat="40.2588660" lon="-4.4703970">
        <ele>748.2</ele>
        <time>2019-08-13T12:08:43Z</time>
      </trkpt>
      <trkpt lat="40.2588960" lon="-4.4703980">
        <ele>748.4</ele>
        <time>2019-08-13T12:08:44Z</time>
      </trkpt>
      <trkpt lat="40.2589260" lon="-4.4704000">
        <ele>748.5</ele>
        <time>2019-08-13T12:08:45Z</time>
      </trkpt>
      <trkpt lat="40.2589560" lon="-4.4704030">
        <ele>748.6</ele>
        <time>2019-08-13T12:08:46Z</time>
      </trkpt>
      <trkpt lat="40.2589870" lon="-4.4704060">
        <ele>748.7</ele>
        <time>2019-08-13T12:08:47Z</time>
      </trkpt>
      <trkpt lat="40.2590170" lon="-4.4704090">
        <ele>748.8</ele>
        <time>2019-08-13T12:08:48Z</time>
      </trkpt>
      <trkpt lat="40.2590460" lon="-4.4704120">
        <ele>748.9</ele>
        <time>2019-08-13T12:08:49Z</time>
      </trkpt>
      <trkpt lat="40.2590760" lon="-4.4704160">
        <ele>749.0</ele>
        <time>2019-08-13T12:08:50Z</time>
      </trkpt>
      <trkpt lat="40.2591060" lon="-4.4704210">
        <ele>749.1</ele>
        <time>2019-08-13T12:08:51Z</time>
      </trkpt>
      <trkpt lat="40.2591360" lon="-4.4704260">
        <ele>749.2</ele>
        <time>2019-08-13T12:08:52Z</time>
      </trkpt>
      <trkpt lat="40.2591660" lon="-4.4704320">
        <ele>749.3</ele>
        <time>2019-08-13T12:08:53Z</time>
      </trkpt>
      <trkpt lat="40.2591950" lon="-4.4704380">
        <ele>749.5</ele>
        <time>2019-08-13T12:08:54Z</time>
      </trkpt>
      <trkpt lat="40.2592250" lon="-4.4704440">
        <ele>749.6</ele>
        <time>2019-08-13T12:08:55Z</time>
      </trkpt>
      <trkpt lat="40.2592540" lon="-4.4704490">
        <ele>749.7</ele>
        <time>2019-08-13T12:08:56Z</time>
      </trkpt>
      <trkpt lat="40.2593030" lon="-4.4704490">
        <ele>749.8</ele>
        <time>2019-08-13T12:08:58Z</time>
      </trkpt>
      <trkpt lat="40.2593380" lon="-4.4704430">
        <ele>750.0</ele>
        <time>2019-08-13T12:09:00Z</time>
      </trkpt>
      <trkpt lat="40.2593510" lon="-4.4704670">
        <ele>750.1</ele>
        <time>2019-08-13T12:10:20Z</time>
      </trkpt>
      <trkpt lat="40.2593840" lon="-4.4704660">
        <ele>750.2</ele>
        <time>2019-08-13T12:10:23Z</time>
      </trkpt>
      <trkpt lat="40.2594250" lon="-4.4704530">
        <ele>750.1</ele>
        <time>2019-08-13T12:10:25Z</time>
      </trkpt>
      <trkpt lat="40.2594520" lon="-4.4704370">
        <ele>750.0</ele>
        <time>2019-08-13T12:10:26Z</time>
      </trkpt>
      <trkpt lat="40.2594830" lon="-4.4704100">
        <ele>749.8</ele>
        <time>2019-08-13T12:10:27Z</time>
      </trkpt>
      <trkpt lat="40.2595160" lon="-4.4703730">
        <ele>749.6</ele>
        <time>2019-08-13T12:10:28Z</time>
      </trkpt>
      <trkpt lat="40.2595520" lon="-4.4703310">
        <ele>749.4</ele>
        <time>2019-08-13T12:10:29Z</time>
      </trkpt>
      <trkpt lat="40.2595910" lon="-4.4702870">
        <ele>749.2</ele>
        <time>2019-08-13T12:10:30Z</time>
      </trkpt>
      <trkpt lat="40.2596340" lon="-4.4702410">
        <ele>749.0</ele>
        <time>2019-08-13T12:10:31Z</time>
      </trkpt>
      <trkpt lat="40.2596770" lon="-4.4701950">
        <ele>748.9</ele>
        <time>2019-08-13T12:10:32Z</time>
      </trkpt>
      <trkpt lat="40.2597210" lon="-4.4701470">
        <ele>748.8</ele>
        <time>2019-08-13T12:10:33Z</time>
      </trkpt>
      <trkpt lat="40.2597650" lon="-4.4700980">
        <ele>748.7</ele>
        <time>2019-08-13T12:10:34Z</time>
      </trkpt>
      <trkpt lat="40.2598080" lon="-4.4700460">
        <ele>748.7</ele>
        <time>2019-08-13T12:10:35Z</time>
      </trkpt>
      <trkpt lat="40.2598500" lon="-4.4699930">
        <ele>748.7</ele>
        <time>2019-08-13T12:10:36Z</time>
      </trkpt>
      <trkpt lat="40.2598900" lon="-4.4699400">
        <ele>748.7</ele>
        <time>2019-08-13T12:10:37Z</time>
      </trkpt>
      <trkpt lat="40.2599280" lon="-4.4698840">
        <ele>748.7</ele>
        <time>2019-08-13T12:10:38Z</time>
      </trkpt>
      <trkpt lat="40.2599640" lon="-4.4698270">
        <ele>748.8</ele>
        <time>2019-08-13T12:10:39Z</time>
      </trkpt>
      <trkpt lat="40.2599980" lon="-4.4697680">
        <ele>748.8</ele>
        <time>2019-08-13T12:10:40Z</time>
      </trkpt>
      <trkpt lat="40.2600290" lon="-4.4697100">
        <ele>748.8</ele>
        <time>2019-08-13T12:10:41Z</time>
      </trkpt>
      <trkpt lat="40.2600560" lon="-4.4696500">
        <ele>748.8</ele>
        <time>2019-08-13T12:10:42Z</time>
      </trkpt>
      <trkpt lat="40.2600770" lon="-4.4695870">
        <ele>748.8</ele>
        <time>2019-08-13T12:10:43Z</time>
      </trkpt>
      <trkpt lat="40.2600940" lon="-4.4695270">
        <ele>748.9</ele>
        <time>2019-08-13T12:10:44Z</time>
      </trkpt>
      <trkpt lat="40.2601070" lon="-4.4694700">
        <ele>748.9</ele>
        <time>2019-08-13T12:10:45Z</time>
      </trkpt>
      <trkpt lat="40.2601210" lon="-4.4694180">
        <ele>749.0</ele>
        <time>2019-08-13T12:10:46Z</time>
      </trkpt>
      <trkpt lat="40.2601330" lon="-4.4693670">
        <ele>749.0</ele>
        <time>2019-08-13T12:10:47Z</time>
      </trkpt>
      <trkpt lat="40.2601460" lon="-4.4693190">
        <ele>749.1</ele>
        <time>2019-08-13T12:10:48Z</time>
      </trkpt>
      <trkpt lat="40.2601600" lon="-4.4692730">
        <ele>749.1</ele>
        <time>2019-08-13T12:10:49Z</time>
      </trkpt>
      <trkpt lat="40.2601760" lon="-4.4692310">
        <ele>749.2</ele>
        <time>2019-08-13T12:10:50Z</time>
      </trkpt>
      <trkpt lat="40.2601920" lon="-4.4691900">
        <ele>749.3</ele>
        <time>2019-08-13T12:10:51Z</time>
      </trkpt>
      <trkpt lat="40.2602060" lon="-4.4691510">
        <ele>749.3</ele>
        <time>2019-08-13T12:10:52Z</time>
      </trkpt>
      <trkpt lat="40.2602190" lon="-4.4691110">
        <ele>749.4</ele>
        <time>2019-08-13T12:10:53Z</time>
      </trkpt>
      <trkpt lat="40.2602320" lon="-4.4690720">
        <ele>749.5</ele>
        <time>2019-08-13T12:10:54Z</time>
      </trkpt>
      <trkpt lat="40.2602450" lon="-4.4690340">
        <ele>749.6</ele>
        <time>2019-08-13T12:10:55Z</time>
      </trkpt>
      <trkpt lat="40.2602580" lon="-4.4689960">
        <ele>749.7</ele>
        <time>2019-08-13T12:10:56Z</time>
      </trkpt>
      <trkpt lat="40.2602700" lon="-4.4689580">
        <ele>749.8</ele>
        <time>2019-08-13T12:10:57Z</time>
      </trkpt>
      <trkpt lat="40.2602830" lon="-4.4689210">
        <ele>749.9</ele>
        <time>2019-08-13T12:10:58Z</time>
      </trkpt>
      <trkpt lat="40.2602960" lon="-4.4688850">
        <ele>750.1</ele>
        <time>2019-08-13T12:10:59Z</time>
      </trkpt>
      <trkpt lat="40.2603080" lon="-4.4688500">
        <ele>750.2</ele>
        <time>2019-08-13T12:11:00Z</time>
      </trkpt>
      <trkpt lat="40.2603210" lon="-4.4688150">
        <ele>750.3</ele>
        <time>2019-08-13T12:11:01Z</time>
      </trkpt>
      <trkpt lat="40.2603330" lon="-4.4687800">
        <ele>750.4</ele>
        <time>2019-08-13T12:11:02Z</time>
      </trkpt>
      <trkpt lat="40.2603440" lon="-4.4687450">
        <ele>750.6</ele>
        <time>2019-08-13T12:11:03Z</time>
      </trkpt>
      <trkpt lat="40.2603550" lon="-4.4687090">
        <ele>750.7</ele>
        <time>2019-08-13T12:11:04Z</time>
      </trkpt>
      <trkpt lat="40.2603670" lon="-4.4686720">
        <ele>750.8</ele>
        <time>2019-08-13T12:11:05Z</time>
      </trkpt>
      <trkpt lat="40.2603800" lon="-4.4686360">
        <ele>750.8</ele>
        <time>2019-08-13T12:11:06Z</time>
      </trkpt>
      <trkpt lat="40.2603920" lon="-4.4686000">
        <ele>750.8</ele>
        <time>2019-08-13T12:11:07Z</time>
      </trkpt>
      <trkpt lat="40.2604060" lon="-4.4685650">
        <ele>750.8</ele>
        <time>2019-08-13T12:11:08Z</time>
      </trkpt>
      <trkpt lat="40.2604210" lon="-4.4685300">
        <ele>751.0</ele>
        <time>2019-08-13T12:11:09Z</time>
      </trkpt>
      <trkpt lat="40.2604370" lon="-4.4684970">
        <ele>751.2</ele>
        <time>2019-08-13T12:11:10Z</time>
      </trkpt>
      <trkpt lat="40.2604560" lon="-4.4684650">
        <ele>751.4</ele>
        <time>2019-08-13T12:11:11Z</time>
      </trkpt>
      <trkpt lat="40.2604760" lon="-4.4684350">
        <ele>751.6</ele>
        <time>2019-08-13T12:11:12Z</time>
      </trkpt>
      <trkpt lat="40.2604990" lon="-4.4684070">
        <ele>751.9</ele>
        <time>2019-08-13T12:11:13Z</time>
      </trkpt>
      <trkpt lat="40.2605240" lon="-4.4683800">
        <ele>752.1</ele>
        <time>2019-08-13T12:11:14Z</time>
      </trkpt>
      <trkpt lat="40.2605500" lon="-4.4683560">
        <ele>752.4</ele>
        <time>2019-08-13T12:11:15Z</time>
      </trkpt>
      <trkpt lat="40.2605780" lon="-4.4683360">
        <ele>752.6</ele>
        <time>2019-08-13T12:11:16Z</time>
      </trkpt>
      <trkpt lat="40.2606060" lon="-4.4683170">
        <ele>752.8</ele>
        <time>2019-08-13T12:11:17Z</time>
      </trkpt>
      <trkpt lat="40.2606350" lon="-4.4683010">
        <ele>752.9</ele>
        <time>2019-08-13T12:11:18Z</time>
      </trkpt>
      <trkpt lat="40.2606630" lon="-4.4682860">
        <ele>753.1</ele>
        <time>2019-08-13T12:11:19Z</time>
      </trkpt>
      <trkpt lat="40.2606940" lon="-4.4682720">
        <ele>753.4</ele>
        <time>2019-08-13T12:11:20Z</time>
      </trkpt>
      <trkpt lat="40.2607250" lon="-4.4682600">
        <ele>753.5</ele>
        <time>2019-08-13T12:11:21Z</time>
      </trkpt>
      <trkpt lat="40.2607560" lon="-4.4682480">
        <ele>753.6</ele>
        <time>2019-08-13T12:11:22Z</time>
      </trkpt>
      <trkpt lat="40.2607870" lon="-4.4682370">
        <ele>753.7</ele>
        <time>2019-08-13T12:11:23Z</time>
      </trkpt>
      <trkpt lat="40.2608180" lon="-4.4682280">
        <ele>753.9</ele>
        <time>2019-08-13T12:11:24Z</time>
      </trkpt>
      <trkpt lat="40.2608500" lon="-4.4682220">
        <ele>754.0</ele>
        <time>2019-08-13T12:11:25Z</time>
      </trkpt>
      <trkpt lat="40.2608820" lon="-4.4682190">
        <ele>754.1</ele>
        <time>2019-08-13T12:11:26Z</time>
      </trkpt>
      <trkpt lat="40.2609130" lon="-4.4682190">
        <ele>754.2</ele>
        <time>2019-08-13T12:11:27Z</time>
      </trkpt>
      <trkpt lat="40.2609430" lon="-4.4682200">
        <ele>754.3</ele>
        <time>2019-08-13T12:11:28Z</time>
      </trkpt>
      <trkpt lat="40.2609740" lon="-4.4682220">
        <ele>754.3</ele>
        <time>2019-08-13T12:11:29Z</time>
      </trkpt>
      <trkpt lat="40.2610040" lon="-4.4682240">
        <ele>754.4</ele>
        <time>2019-08-13T12:11:30Z</time>
      </trkpt>
      <trkpt lat="40.2610350" lon="-4.4682280">
        <ele>754.5</ele>
        <time>2019-08-13T12:11:31Z</time>
      </trkpt>
      <trkpt lat="40.2610650" lon="-4.4682310">
        <ele>754.6</ele>
        <time>2019-08-13T12:11:32Z</time>
      </trkpt>
      <trkpt lat="40.2610940" lon="-4.4682360">
        <ele>754.6</ele>
        <time>2019-08-13T12:11:33Z</time>
      </trkpt>
      <trkpt lat="40.2611230" lon="-4.4682430">
        <ele>754.7</ele>
        <time>2019-08-13T12:11:34Z</time>
      </trkpt>
      <trkpt lat="40.2611510" lon="-4.4682500">
        <ele>754.8</ele>
        <time>2019-08-13T12:11:35Z</time>
      </trkpt>
      <trkpt lat="40.2611800" lon="-4.4682560">
        <ele>754.9</ele>
        <time>2019-08-13T12:11:36Z</time>
      </trkpt>
      <trkpt lat="40.2612090" lon="-4.4682600">
        <ele>755.0</ele>
        <time>2019-08-13T12:11:37Z</time>
      </trkpt>
      <trkpt lat="40.2612370" lon="-4.4682600">
        <ele>755.1</ele>
        <time>2019-08-13T12:11:38Z</time>
      </trkpt>
      <trkpt lat="40.2612650" lon="-4.4682580">
        <ele>755.2</ele>
        <time>2019-08-13T12:11:39Z</time>
      </trkpt>
      <trkpt lat="40.2612930" lon="-4.4682540">
        <ele>755.3</ele>
        <time>2019-08-13T12:11:40Z</time>
      </trkpt>
      <trkpt lat="40.2613200" lon="-4.4682480">
        <ele>755.5</ele>
        <time>2019-08-13T12:11:41Z</time>
      </trkpt>
      <trkpt lat="40.2613460" lon="-4.4682390">
        <ele>755.6</ele>
        <time>2019-08-13T12:11:42Z</time>
      </trkpt>
      <trkpt lat="40.2613960" lon="-4.4682160">
        <ele>755.9</ele>
        <time>2019-08-13T12:11:44Z</time>
      </trkpt>
      <trkpt lat="40.2614470" lon="-4.4681940">
        <ele>756.2</ele>
        <time>2019-08-13T12:11:46Z</time>
      </trkpt>
      <trkpt lat="40.2614730" lon="-4.4681820">
        <ele>756.4</ele>
        <time>2019-08-13T12:11:47Z</time>
      </trkpt>
      <trkpt lat="40.2614990" lon="-4.4681690">
        <ele>756.6</ele>
        <time>2019-08-13T12:11:48Z</time>
      </trkpt>
      <trkpt lat="40.2615250" lon="-4.4681560">
        <ele>756.8</ele>
        <time>2019-08-13T12:11:49Z</time>
      </trkpt>
      <trkpt lat="40.2615500" lon="-4.4681440">
        <ele>757.0</ele>
        <time>2019-08-13T12:11:50Z</time>
      </trkpt>
      <trkpt lat="40.2615980" lon="-4.4681230">
        <ele>757.4</ele>
        <time>2019-08-13T12:11:52Z</time>
      </trkpt>
      <trkpt lat="40.2616350" lon="-4.4680980">
        <ele>757.8</ele>
        <time>2019-08-13T12:11:54Z</time>
      </trkpt>
      <trkpt lat="40.2616730" lon="-4.4680740">
        <ele>758.0</ele>
        <time>2019-08-13T12:11:56Z</time>
      </trkpt>
      <trkpt lat="40.2617200" lon="-4.4680630">
        <ele>758.4</ele>
        <time>2019-08-13T12:11:58Z</time>
      </trkpt>
      <trkpt lat="40.2617670" lon="-4.4680600">
        <ele>758.8</ele>
        <time>2019-08-13T12:12:00Z</time>
      </trkpt>
      <trkpt lat="40.2618130" lon="-4.4680600">
        <ele>759.1</ele>
        <time>2019-08-13T12:12:02Z</time>
      </trkpt>
      <trkpt lat="40.2618590" lon="-4.4680590">
        <ele>759.5</ele>
        <time>2019-08-13T12:12:04Z</time>
      </trkpt>
      <trkpt lat="40.2618860" lon="-4.4680600">
        <ele>759.6</ele>
        <time>2019-08-13T12:12:05Z</time>
      </trkpt>
      <trkpt lat="40.2619390" lon="-4.4680580">
        <ele>759.9</ele>
        <time>2019-08-13T12:12:07Z</time>
      </trkpt>
      <trkpt lat="40.2619890" lon="-4.4680620">
        <ele>760.2</ele>
        <time>2019-08-13T12:12:09Z</time>
      </trkpt>
      <trkpt lat="40.2620270" lon="-4.4680690">
        <ele>760.4</ele>
        <time>2019-08-13T12:12:11Z</time>
      </trkpt>
      <trkpt lat="40.2620760" lon="-4.4680740">
        <ele>760.7</ele>
        <time>2019-08-13T12:12:13Z</time>
      </trkpt>
      <trkpt lat="40.2621040" lon="-4.4680790">
        <ele>760.8</ele>
        <time>2019-08-13T12:12:14Z</time>
      </trkpt>
      <trkpt lat="40.2621460" lon="-4.4680850">
        <ele>761.0</ele>
        <time>2019-08-13T12:12:16Z</time>
      </trkpt>
      <trkpt lat="40.2622020" lon="-4.4680910">
        <ele>761.3</ele>
        <time>2019-08-13T12:12:18Z</time>
      </trkpt>
      <trkpt lat="40.2622520" lon="-4.4680960">
        <ele>761.5</ele>
        <time>2019-08-13T12:12:20Z</time>
      </trkpt>
      <trkpt lat="40.2622800" lon="-4.4680960">
        <ele>761.7</ele>
        <time>2019-08-13T12:12:21Z</time>
      </trkpt>
      <trkpt lat="40.2623150" lon="-4.4680990">
        <ele>761.8</ele>
        <time>2019-08-13T12:12:22Z</time>
      </trkpt>
      <trkpt lat="40.2623530" lon="-4.4681030">
        <ele>762.0</ele>
        <time>2019-08-13T12:12:23Z</time>
      </trkpt>
      <trkpt lat="40.2623880" lon="-4.4681020">
        <ele>762.2</ele>
        <time>2019-08-13T12:12:24Z</time>
      </trkpt>
      <trkpt lat="40.2624190" lon="-4.4680960">
        <ele>762.3</ele>
        <time>2019-08-13T12:12:25Z</time>
      </trkpt>
      <trkpt lat="40.2624510" lon="-4.4680880">
        <ele>762.5</ele>
        <time>2019-08-13T12:12:26Z</time>
      </trkpt>
      <trkpt lat="40.2624790" lon="-4.4680910">
        <ele>762.6</ele>
        <time>2019-08-13T12:12:27Z</time>
      </trkpt>
      <trkpt lat="40.2625330" lon="-4.4681020">
        <ele>762.8</ele>
        <time>2019-08-13T12:12:29Z</time>
      </trkpt>
      <trkpt lat="40.2625600" lon="-4.4681070">
        <ele>762.9</ele>
        <time>2019-08-13T12:12:30Z</time>
      </trkpt>
      <trkpt lat="40.2626160" lon="-4.4681120">
        <ele>763.1</ele>
        <time>2019-08-13T12:12:32Z</time>
      </trkpt>
      <trkpt lat="40.2626480" lon="-4.4681160">
        <ele>763.3</ele>
        <time>2019-08-13T12:12:33Z</time>
      </trkpt>
      <trkpt lat="40.2626790" lon="-4.4681270">
        <ele>763.4</ele>
        <time>2019-08-13T12:12:34Z</time>
      </trkpt>
      <trkpt lat="40.2627070" lon="-4.4681400">
        <ele>763.6</ele>
        <time>2019-08-13T12:12:35Z</time>
      </trkpt>
      <trkpt lat="40.2627350" lon="-4.4681520">
        <ele>763.8</ele>
        <time>2019-08-13T12:12:36Z</time>
      </trkpt>
      <trkpt lat="40.2627640" lon="-4.4681630">
        <ele>763.9</ele>
        <time>2019-08-13T12:12:37Z</time>
      </trkpt>
      <trkpt lat="40.2627920" lon="-4.4681720">
        <ele>764.0</ele>
        <time>2019-08-13T12:12:38Z</time>
      </trkpt>
      <trkpt lat="40.2628200" lon="-4.4681830">
        <ele>764.2</ele>
        <time>2019-08-13T12:12:39Z</time>
      </trkpt>
      <trkpt lat="40.2628540" lon="-4.4681930">
        <ele>764.3</ele>
        <time>2019-08-13T12:12:40Z</time>
      </trkpt>
      <trkpt lat="40.2628850" lon="-4.4682030">
        <ele>764.5</ele>
        <time>2019-08-13T12:12:41Z</time>
      </trkpt>
      <trkpt lat="40.2629130" lon="-4.4682130">
        <ele>764.6</ele>
        <time>2019-08-13T12:12:42Z</time>
      </trkpt>
      <trkpt lat="40.2629430" lon="-4.4682230">
        <ele>764.7</ele>
        <time>2019-08-13T12:12:43Z</time>
      </trkpt>
      <trkpt lat="40.2629730" lon="-4.4682330">
        <ele>764.9</ele>
        <time>2019-08-13T12:12:44Z</time>
      </trkpt>
      <trkpt lat="40.2630010" lon="-4.4682420">
        <ele>765.0</ele>
        <time>2019-08-13T12:12:45Z</time>
      </trkpt>
      <trkpt lat="40.2630300" lon="-4.4682480">
        <ele>765.1</ele>
        <time>2019-08-13T12:12:46Z</time>
      </trkpt>
      <trkpt lat="40.2630580" lon="-4.4682530">
        <ele>765.3</ele>
        <time>2019-08-13T12:12:47Z</time>
      </trkpt>
      <trkpt lat="40.2631130" lon="-4.4682400">
        <ele>765.5</ele>
        <time>2019-08-13T12:12:49Z</time>
      </trkpt>
      <trkpt lat="40.2631610" lon="-4.4682260">
        <ele>765.7</ele>
        <time>2019-08-13T12:12:51Z</time>
      </trkpt>
      <trkpt lat="40.2631980" lon="-4.4682190">
        <ele>765.9</ele>
        <time>2019-08-13T12:12:53Z</time>
      </trkpt>
      <trkpt lat="40.2632260" lon="-4.4682090">
        <ele>766.1</ele>
        <time>2019-08-13T12:12:55Z</time>
      </trkpt>
      <trkpt lat="40.2632550" lon="-4.4681980">
        <ele>766.2</ele>
        <time>2019-08-13T12:12:57Z</time>
      </trkpt>
      <trkpt lat="40.2632660" lon="-4.4681810">
        <ele>766.2</ele>
        <time>2019-08-13T12:13:07Z</time>
      </trkpt>
      <trkpt lat="40.2632560" lon="-4.4681550">
        <ele>766.3</ele>
        <time>2019-08-13T12:13:15Z</time>
      </trkpt>
      <trkpt lat="40.2632400" lon="-4.4681310">
        <ele>766.3</ele>
        <time>2019-08-13T12:13:20Z</time>
      </trkpt>
      <trkpt lat="40.2632290" lon="-4.4680910">
        <ele>766.4</ele>
        <time>2019-08-13T12:13:25Z</time>
      </trkpt>
      <trkpt lat="40.2632260" lon="-4.4680700">
        <ele>766.5</ele>
        <time>2019-08-13T12:13:30Z</time>
      </trkpt>
      <trkpt lat="40.2632820" lon="-4.4681080">
        <ele>766.7</ele>
        <time>2019-08-13T12:14:06Z</time>
      </trkpt>
      <trkpt lat="40.2632920" lon="-4.4681410">
        <ele>766.7</ele>
        <time>2019-08-13T12:14:14Z</time>
      </trkpt>
      <trkpt lat="40.2636110" lon="-4.4680300">
        <ele>767.5</ele>
        <time>2019-08-13T12:15:42Z</time>
      </trkpt>
      <trkpt lat="40.2636430" lon="-4.4680030">
        <ele>767.7</ele>
        <time>2019-08-13T12:15:44Z</time>
      </trkpt>
      <trkpt lat="40.2636820" lon="-4.4679940">
        <ele>767.8</ele>
        <time>2019-08-13T12:15:47Z</time>
      </trkpt>
      <trkpt lat="40.2637100" lon="-4.4680090">
        <ele>767.8</ele>
        <time>2019-08-13T12:15:49Z</time>
      </trkpt>
      <trkpt lat="40.2637510" lon="-4.4679920">
        <ele>767.9</ele>
        <time>2019-08-13T12:15:51Z</time>
      </trkpt>
      <trkpt lat="40.2637830" lon="-4.4680030">
        <ele>768.0</ele>
        <time>2019-08-13T12:15:55Z</time>
      </trkpt>
      <trkpt lat="40.2637440" lon="-4.4680000">
        <ele>768.1</ele>
        <time>2019-08-13T12:15:58Z</time>
      </trkpt>
      <trkpt lat="40.2637340" lon="-4.4680010">
        <ele>768.1</ele>
        <time>2019-08-13T12:16:03Z</time>
      </trkpt>
      <trkpt lat="40.2636990" lon="-4.4679710">
        <ele>768.2</ele>
        <time>2019-08-13T12:16:06Z</time>
      </trkpt>
      <trkpt lat="40.2636730" lon="-4.4679440">
        <ele>768.3</ele>
        <time>2019-08-13T12:16:08Z</time>
      </trkpt>
      <trkpt lat="40.2636670" lon="-4.4679230">
        <ele>768.4</ele>
        <time>2019-08-13T12:16:12Z</time>
      </trkpt>
      <trkpt lat="40.2634940" lon="-4.4681840">
        <ele>767.3</ele>
        <time>2019-08-13T12:17:27Z</time>
      </trkpt>
      <trkpt lat="40.2634680" lon="-4.4681970">
        <ele>767.2</ele>
        <time>2019-08-13T12:17:30Z</time>
      </trkpt>
      <trkpt lat="40.2634250" lon="-4.4682060">
        <ele>767.0</ele>
        <time>2019-08-13T12:17:32Z</time>
      </trkpt>
      <trkpt lat="40.2633920" lon="-4.4682280">
        <ele>766.9</ele>
        <time>2019-08-13T12:17:35Z</time>
      </trkpt>
      <trkpt lat="40.2633670" lon="-4.4682390">
        <ele>766.8</ele>
        <time>2019-08-13T12:17:37Z</time>
      </trkpt>
      <trkpt lat="40.2633350" lon="-4.4682360">
        <ele>766.6</ele>
        <time>2019-08-13T12:17:40Z</time>
      </trkpt>
      <trkpt lat="40.2632950" lon="-4.4682130">
        <ele>766.4</ele>
        <time>2019-08-13T12:17:43Z</time>
      </trkpt>
      <trkpt lat="40.2632710" lon="-4.4681930">
        <ele>766.3</ele>
        <time>2019-08-13T12:17:45Z</time>
      </trkpt>
      <trkpt lat="40.2632470" lon="-4.4681700">
        <ele>766.1</ele>
        <time>2019-08-13T12:17:48Z</time>
      </trkpt>
      <trkpt lat="40.2632300" lon="-4.4681380">
        <ele>766.0</ele>
        <time>2019-08-13T12:17:50Z</time>
      </trkpt>
      <trkpt lat="40.2632290" lon="-4.4681240">
        <ele>766.0</ele>
        <time>2019-08-13T12:17:55Z</time>
      </trkpt>
      <trkpt lat="40.2631990" lon="-4.4679690">
        <ele>766.1</ele>
        <time>2019-08-13T12:21:03Z</time>
      </trkpt>
      <trkpt lat="40.2632010" lon="-4.4679290">
        <ele>766.1</ele>
        <time>2019-08-13T12:21:06Z</time>
      </trkpt>
      <trkpt lat="40.2632170" lon="-4.4678940">
        <ele>766.2</ele>
        <time>2019-08-13T12:21:09Z</time>
      </trkpt>
      <trkpt lat="40.2632430" lon="-4.4680580">
        <ele>766.2</ele>
        <time>2019-08-13T12:23:53Z</time>
      </trkpt>
      <trkpt lat="40.2632130" lon="-4.4680180">
        <ele>766.3</ele>
        <time>2019-08-13T12:23:56Z</time>
      </trkpt>
      <trkpt lat="40.2632040" lon="-4.4679610">
        <ele>766.3</ele>
        <time>2019-08-13T12:23:58Z</time>
      </trkpt>
      <trkpt lat="40.2631960" lon="-4.4679070">
        <ele>766.3</ele>
        <time>2019-08-13T12:24:00Z</time>
      </trkpt>
      <trkpt lat="40.2631940" lon="-4.4678670">
        <ele>765.9</ele>
        <time>2019-08-13T12:24:03Z</time>
      </trkpt>
      <trkpt lat="40.2631570" lon="-4.4678020">
        <ele>765.9</ele>
        <time>2019-08-13T12:24:31Z</time>
      </trkpt>
      <trkpt lat="40.2631530" lon="-4.4677360">
        <ele>766.1</ele>
        <time>2019-08-13T12:24:33Z</time>
      </trkpt>
      <trkpt lat="40.2631470" lon="-4.4676760">
        <ele>766.1</ele>
        <time>2019-08-13T12:24:35Z</time>
      </trkpt>
      <trkpt lat="40.2631380" lon="-4.4676120">
        <ele>766.1</ele>
        <time>2019-08-13T12:24:37Z</time>
      </trkpt>
      <trkpt lat="40.2631420" lon="-4.4675610">
        <ele>766.3</ele>
        <time>2019-08-13T12:24:39Z</time>
      </trkpt>
      <trkpt lat="40.2631600" lon="-4.4675200">
        <ele>766.5</ele>
        <time>2019-08-13T12:24:42Z</time>
      </trkpt>
      <trkpt lat="40.2631950" lon="-4.4675230">
        <ele>766.6</ele>
        <time>2019-08-13T12:24:44Z</time>
      </trkpt>
      <trkpt lat="40.2632320" lon="-4.4675490">
        <ele>766.9</ele>
        <time>2019-08-13T12:24:46Z</time>
      </trkpt>
      <trkpt lat="40.2632570" lon="-4.4675790">
        <ele>767.1</ele>
        <time>2019-08-13T12:24:48Z</time>
      </trkpt>
      <trkpt lat="40.2632900" lon="-4.4675940">
        <ele>767.3</ele>
        <time>2019-08-13T12:24:50Z</time>
      </trkpt>
      <trkpt lat="40.2633220" lon="-4.4675770">
        <ele>767.6</ele>
        <time>2019-08-13T12:24:53Z</time>
      </trkpt>
      <trkpt lat="40.2633580" lon="-4.4675450">
        <ele>767.9</ele>
        <time>2019-08-13T12:24:56Z</time>
      </trkpt>
      <trkpt lat="40.2633990" lon="-4.4675170">
        <ele>768.2</ele>
        <time>2019-08-13T12:24:58Z</time>
      </trkpt>
      <trkpt lat="40.2634340" lon="-4.4674890">
        <ele>768.4</ele>
        <time>2019-08-13T12:25:00Z</time>
      </trkpt>
      <trkpt lat="40.2634610" lon="-4.4674570">
        <ele>768.6</ele>
        <time>2019-08-13T12:25:02Z</time>
      </trkpt>
      <trkpt lat="40.2634820" lon="-4.4674150">
        <ele>768.8</ele>
        <time>2019-08-13T12:25:04Z</time>
      </trkpt>
      <trkpt lat="40.2634930" lon="-4.4673530">
        <ele>769.1</ele>
        <time>2019-08-13T12:25:06Z</time>
      </trkpt>
      <trkpt lat="40.2635210" lon="-4.4673050">
        <ele>769.4</ele>
        <time>2019-08-13T12:25:08Z</time>
      </trkpt>
      <trkpt lat="40.2635460" lon="-4.4672490">
        <ele>769.8</ele>
        <time>2019-08-13T12:25:10Z</time>
      </trkpt>
      <trkpt lat="40.2635660" lon="-4.4672040">
        <ele>770.2</ele>
        <time>2019-08-13T12:25:12Z</time>
      </trkpt>
      <trkpt lat="40.2635880" lon="-4.4671540">
        <ele>770.5</ele>
        <time>2019-08-13T12:25:14Z</time>
      </trkpt>
      <trkpt lat="40.2635910" lon="-4.4671110">
        <ele>770.7</ele>
        <time>2019-08-13T12:25:16Z</time>
      </trkpt>
      <trkpt lat="40.2636080" lon="-4.4670660">
        <ele>771.0</ele>
        <time>2019-08-13T12:25:18Z</time>
      </trkpt>
      <trkpt lat="40.2636080" lon="-4.4670240">
        <ele>771.2</ele>
        <time>2019-08-13T12:25:20Z</time>
      </trkpt>
      <trkpt lat="40.2636060" lon="-4.4669870">
        <ele>771.4</ele>
        <time>2019-08-13T12:25:22Z</time>
      </trkpt>
      <trkpt lat="40.2636190" lon="-4.4669470">
        <ele>771.6</ele>
        <time>2019-08-13T12:25:24Z</time>
      </trkpt>
      <trkpt lat="40.2636340" lon="-4.4669070">
        <ele>771.9</ele>
        <time>2019-08-13T12:25:26Z</time>
      </trkpt>
      <trkpt lat="40.2636560" lon="-4.4668690">
        <ele>772.1</ele>
        <time>2019-08-13T12:25:28Z</time>
      </trkpt>
      <trkpt lat="40.2636750" lon="-4.4668360">
        <ele>772.4</ele>
        <time>2019-08-13T12:25:30Z</time>
      </trkpt>
      <trkpt lat="40.2637030" lon="-4.4668080">
        <ele>772.6</ele>
        <time>2019-08-13T12:25:32Z</time>
      </trkpt>
      <trkpt lat="40.2637390" lon="-4.4667910">
        <ele>772.9</ele>
        <time>2019-08-13T12:25:34Z</time>
      </trkpt>
      <trkpt lat="40.2637760" lon="-4.4667790">
        <ele>773.4</ele>
        <time>2019-08-13T12:25:36Z</time>
      </trkpt>
      <trkpt lat="40.2638050" lon="-4.4667700">
        <ele>773.3</ele>
        <time>2019-08-13T12:25:38Z</time>
      </trkpt>
      <trkpt lat="40.2638350" lon="-4.4667630">
        <ele>773.3</ele>
        <time>2019-08-13T12:25:40Z</time>
      </trkpt>
      <trkpt lat="40.2638710" lon="-4.4667540">
        <ele>773.2</ele>
        <time>2019-08-13T12:25:42Z</time>
      </trkpt>
      <trkpt lat="40.2639060" lon="-4.4667450">
        <ele>773.3</ele>
        <time>2019-08-13T12:25:44Z</time>
      </trkpt>
      <trkpt lat="40.2639380" lon="-4.4667340">
        <ele>773.5</ele>
        <time>2019-08-13T12:25:46Z</time>
      </trkpt>
      <trkpt lat="40.2639660" lon="-4.4667180">
        <ele>773.6</ele>
        <time>2019-08-13T12:25:48Z</time>
      </trkpt>
      <trkpt lat="40.2639980" lon="-4.4667040">
        <ele>773.7</ele>
        <time>2019-08-13T12:25:50Z</time>
      </trkpt>
      <trkpt lat="40.2640330" lon="-4.4666810">
        <ele>773.8</ele>
        <time>2019-08-13T12:25:52Z</time>
      </trkpt>
      <trkpt lat="40.2640700" lon="-4.4666570">
        <ele>774.0</ele>
        <time>2019-08-13T12:25:54Z</time>
      </trkpt>
      <trkpt lat="40.2641090" lon="-4.4666320">
        <ele>774.1</ele>
        <time>2019-08-13T12:25:56Z</time>
      </trkpt>
      <trkpt lat="40.2641470" lon="-4.4666020">
        <ele>774.2</ele>
        <time>2019-08-13T12:25:58Z</time>
      </trkpt>
      <trkpt lat="40.2641850" lon="-4.4665750">
        <ele>774.3</ele>
        <time>2019-08-13T12:26:00Z</time>
      </trkpt>
      <trkpt lat="40.2642180" lon="-4.4665430">
        <ele>774.3</ele>
        <time>2019-08-13T12:26:02Z</time>
      </trkpt>
      <trkpt lat="40.2642410" lon="-4.4665060">
        <ele>774.3</ele>
        <time>2019-08-13T12:26:04Z</time>
      </trkpt>
      <trkpt lat="40.2642590" lon="-4.4664620">
        <ele>774.7</ele>
        <time>2019-08-13T12:26:06Z</time>
      </trkpt>
      <trkpt lat="40.2642670" lon="-4.4664090">
        <ele>775.0</ele>
        <time>2019-08-13T12:26:08Z</time>
      </trkpt>
      <trkpt lat="40.2642710" lon="-4.4663530">
        <ele>775.2</ele>
        <time>2019-08-13T12:26:10Z</time>
      </trkpt>
      <trkpt lat="40.2642760" lon="-4.4662960">
        <ele>775.4</ele>
        <time>2019-08-13T12:26:12Z</time>
      </trkpt>
      <trkpt lat="40.2642830" lon="-4.4662300">
        <ele>775.7</ele>
        <time>2019-08-13T12:26:14Z</time>
      </trkpt>
      <trkpt lat="40.2642860" lon="-4.4661910">
        <ele>775.9</ele>
        <time>2019-08-13T12:26:15Z</time>
      </trkpt>
      <trkpt lat="40.2642880" lon="-4.4661500">
        <ele>776.1</ele>
        <time>2019-08-13T12:26:16Z</time>
      </trkpt>
      <trkpt lat="40.2642880" lon="-4.4661100">
        <ele>776.3</ele>
        <time>2019-08-13T12:26:17Z</time>
      </trkpt>
      <trkpt lat="40.2642870" lon="-4.4660680">
        <ele>776.4</ele>
        <time>2019-08-13T12:26:18Z</time>
      </trkpt>
      <trkpt lat="40.2642870" lon="-4.4660230">
        <ele>776.6</ele>
        <time>2019-08-13T12:26:19Z</time>
      </trkpt>
      <trkpt lat="40.2642860" lon="-4.4659770">
        <ele>776.8</ele>
        <time>2019-08-13T12:26:20Z</time>
      </trkpt>
      <trkpt lat="40.2642870" lon="-4.4659330">
        <ele>777.0</ele>
        <time>2019-08-13T12:26:21Z</time>
      </trkpt>
      <trkpt lat="40.2642880" lon="-4.4658900">
        <ele>777.1</ele>
        <time>2019-08-13T12:26:22Z</time>
      </trkpt>
      <trkpt lat="40.2642880" lon="-4.4658490">
        <ele>777.1</ele>
        <time>2019-08-13T12:26:23Z</time>
      </trkpt>
      <trkpt lat="40.2642910" lon="-4.4658080">
        <ele>777.1</ele>
        <time>2019-08-13T12:26:24Z</time>
      </trkpt>
      <trkpt lat="40.2642970" lon="-4.4657680">
        <ele>777.3</ele>
        <time>2019-08-13T12:26:25Z</time>
      </trkpt>
      <trkpt lat="40.2643040" lon="-4.4657310">
        <ele>777.4</ele>
        <time>2019-08-13T12:26:26Z</time>
      </trkpt>
      <trkpt lat="40.2643140" lon="-4.4656940">
        <ele>777.5</ele>
        <time>2019-08-13T12:26:27Z</time>
      </trkpt>
      <trkpt lat="40.2643250" lon="-4.4656580">
        <ele>777.6</ele>
        <time>2019-08-13T12:26:28Z</time>
      </trkpt>
      <trkpt lat="40.2643370" lon="-4.4656220">
        <ele>777.8</ele>
        <time>2019-08-13T12:26:29Z</time>
      </trkpt>
      <trkpt lat="40.2643520" lon="-4.4655870">
        <ele>777.9</ele>
        <time>2019-08-13T12:26:30Z</time>
      </trkpt>
      <trkpt lat="40.2643690" lon="-4.4655530">
        <ele>778.1</ele>
        <time>2019-08-13T12:26:31Z</time>
      </trkpt>
      <trkpt lat="40.2643860" lon="-4.4655210">
        <ele>778.2</ele>
        <time>2019-08-13T12:26:32Z</time>
      </trkpt>
      <trkpt lat="40.2644070" lon="-4.4654910">
        <ele>778.4</ele>
        <time>2019-08-13T12:26:33Z</time>
      </trkpt>
      <trkpt lat="40.2644290" lon="-4.4654600">
        <ele>778.5</ele>
        <time>2019-08-13T12:26:34Z</time>
      </trkpt>
      <trkpt lat="40.2644490" lon="-4.4654240">
        <ele>778.7</ele>
        <time>2019-08-13T12:26:35Z</time>
      </trkpt>
      <trkpt lat="40.2644710" lon="-4.4653950">
        <ele>778.9</ele>
        <time>2019-08-13T12:26:36Z</time>
      </trkpt>
      <trkpt lat="40.2644940" lon="-4.4653510">
        <ele>779.1</ele>
        <time>2019-08-13T12:26:38Z</time>
      </trkpt>
      <trkpt lat="40.2645270" lon="-4.4653010">
        <ele>779.5</ele>
        <time>2019-08-13T12:26:40Z</time>
      </trkpt>
      <trkpt lat="40.2645500" lon="-4.4652430">
        <ele>779.8</ele>
        <time>2019-08-13T12:26:42Z</time>
      </trkpt>
      <trkpt lat="40.2645650" lon="-4.4652090">
        <ele>780.0</ele>
        <time>2019-08-13T12:26:43Z</time>
      </trkpt>
      <trkpt lat="40.2645810" lon="-4.4651780">
        <ele>780.1</ele>
        <time>2019-08-13T12:26:44Z</time>
      </trkpt>
      <trkpt lat="40.2645910" lon="-4.4651450">
        <ele>780.3</ele>
        <time>2019-08-13T12:26:45Z</time>
      </trkpt>
      <trkpt lat="40.2646120" lon="-4.4650870">
        <ele>780.6</ele>
        <time>2019-08-13T12:26:47Z</time>
      </trkpt>
      <trkpt lat="40.2646210" lon="-4.4650270">
        <ele>780.8</ele>
        <time>2019-08-13T12:26:49Z</time>
      </trkpt>
      <trkpt lat="40.2646230" lon="-4.4649910">
        <ele>780.9</ele>
        <time>2019-08-13T12:26:50Z</time>
      </trkpt>
      <trkpt lat="40.2646270" lon="-4.4649540">
        <ele>781.1</ele>
        <time>2019-08-13T12:26:51Z</time>
      </trkpt>
      <trkpt lat="40.2646330" lon="-4.4649170">
        <ele>781.2</ele>
        <time>2019-08-13T12:26:52Z</time>
      </trkpt>
      <trkpt lat="40.2646410" lon="-4.4648810">
        <ele>781.3</ele>
        <time>2019-08-13T12:26:53Z</time>
      </trkpt>
      <trkpt lat="40.2646510" lon="-4.4648430">
        <ele>781.4</ele>
        <time>2019-08-13T12:26:54Z</time>
      </trkpt>
      <trkpt lat="40.2646770" lon="-4.4647820">
        <ele>781.6</ele>
        <time>2019-08-13T12:26:56Z</time>
      </trkpt>
      <trkpt lat="40.2646950" lon="-4.4647560">
        <ele>781.7</ele>
        <time>2019-08-13T12:26:57Z</time>
      </trkpt>
      <trkpt lat="40.2647140" lon="-4.4647310">
        <ele>781.7</ele>
        <time>2019-08-13T12:26:58Z</time>
      </trkpt>
      <trkpt lat="40.2647350" lon="-4.4647060">
        <ele>781.8</ele>
        <time>2019-08-13T12:26:59Z</time>
      </trkpt>
      <trkpt lat="40.2647560" lon="-4.4646820">
        <ele>781.9</ele>
        <time>2019-08-13T12:27:00Z</time>
      </trkpt>
      <trkpt lat="40.2647770" lon="-4.4646590">
        <ele>782.0</ele>
        <time>2019-08-13T12:27:01Z</time>
      </trkpt>
      <trkpt lat="40.2648000" lon="-4.4646390">
        <ele>782.1</ele>
        <time>2019-08-13T12:27:02Z</time>
      </trkpt>
      <trkpt lat="40.2648440" lon="-4.4646050">
        <ele>782.4</ele>
        <time>2019-08-13T12:27:04Z</time>
      </trkpt>
      <trkpt lat="40.2648900" lon="-4.4645810">
        <ele>782.5</ele>
        <time>2019-08-13T12:27:06Z</time>
      </trkpt>
      <trkpt lat="40.2649380" lon="-4.4645620">
        <ele>782.6</ele>
        <time>2019-08-13T12:27:08Z</time>
      </trkpt>
      <trkpt lat="40.2649890" lon="-4.4645490">
        <ele>782.7</ele>
        <time>2019-08-13T12:27:10Z</time>
      </trkpt>
      <trkpt lat="40.2650390" lon="-4.4645370">
        <ele>782.8</ele>
        <time>2019-08-13T12:27:12Z</time>
      </trkpt>
      <trkpt lat="40.2650890" lon="-4.4645250">
        <ele>782.9</ele>
        <time>2019-08-13T12:27:14Z</time>
      </trkpt>
      <trkpt lat="40.2651400" lon="-4.4645170">
        <ele>783.0</ele>
        <time>2019-08-13T12:27:16Z</time>
      </trkpt>
      <trkpt lat="40.2651890" lon="-4.4645070">
        <ele>783.1</ele>
        <time>2019-08-13T12:27:18Z</time>
      </trkpt>
      <trkpt lat="40.2652360" lon="-4.4644980">
        <ele>783.2</ele>
        <time>2019-08-13T12:27:20Z</time>
      </trkpt>
      <trkpt lat="40.2652840" lon="-4.4644920">
        <ele>783.3</ele>
        <time>2019-08-13T12:27:22Z</time>
      </trkpt>
      <trkpt lat="40.2653310" lon="-4.4644820">
        <ele>783.4</ele>
        <time>2019-08-13T12:27:24Z</time>
      </trkpt>
      <trkpt lat="40.2653800" lon="-4.4644720">
        <ele>783.4</ele>
        <time>2019-08-13T12:27:26Z</time>
      </trkpt>
      <trkpt lat="40.2654280" lon="-4.4644620">
        <ele>783.6</ele>
        <time>2019-08-13T12:27:28Z</time>
      </trkpt>
      <trkpt lat="40.2654720" lon="-4.4644390">
        <ele>783.8</ele>
        <time>2019-08-13T12:27:30Z</time>
      </trkpt>
      <trkpt lat="40.2655110" lon="-4.4644090">
        <ele>783.9</ele>
        <time>2019-08-13T12:27:32Z</time>
      </trkpt>
      <trkpt lat="40.2655460" lon="-4.4643710">
        <ele>784.1</ele>
        <time>2019-08-13T12:27:34Z</time>
      </trkpt>
      <trkpt lat="40.2655820" lon="-4.4643350">
        <ele>784.3</ele>
        <time>2019-08-13T12:27:36Z</time>
      </trkpt>
      <trkpt lat="40.2656110" lon="-4.4643000">
        <ele>784.8</ele>
        <time>2019-08-13T12:27:38Z</time>
      </trkpt>
      <trkpt lat="40.2656440" lon="-4.4642670">
        <ele>785.2</ele>
        <time>2019-08-13T12:27:40Z</time>
      </trkpt>
      <trkpt lat="40.2656810" lon="-4.4642330">
        <ele>785.5</ele>
        <time>2019-08-13T12:27:42Z</time>
      </trkpt>
      <trkpt lat="40.2657170" lon="-4.4642030">
        <ele>786.0</ele>
        <time>2019-08-13T12:27:44Z</time>
      </trkpt>
      <trkpt lat="40.2657530" lon="-4.4641670">
        <ele>786.6</ele>
        <time>2019-08-13T12:27:46Z</time>
      </trkpt>
      <trkpt lat="40.2657890" lon="-4.4641220">
        <ele>787.1</ele>
        <time>2019-08-13T12:27:48Z</time>
      </trkpt>
      <trkpt lat="40.2658250" lon="-4.4640800">
        <ele>787.7</ele>
        <time>2019-08-13T12:27:50Z</time>
      </trkpt>
      <trkpt lat="40.2658580" lon="-4.4640440">
        <ele>788.0</ele>
        <time>2019-08-13T12:27:52Z</time>
      </trkpt>
      <trkpt lat="40.2658940" lon="-4.4640070">
        <ele>788.4</ele>
        <time>2019-08-13T12:27:54Z</time>
      </trkpt>
      <trkpt lat="40.2659300" lon="-4.4639750">
        <ele>788.8</ele>
        <time>2019-08-13T12:27:56Z</time>
      </trkpt>
      <trkpt lat="40.2659640" lon="-4.4639420">
        <ele>789.1</ele>
        <time>2019-08-13T12:27:58Z</time>
      </trkpt>
      <trkpt lat="40.2659960" lon="-4.4639060">
        <ele>789.4</ele>
        <time>2019-08-13T12:28:00Z</time>
      </trkpt>
      <trkpt lat="40.2660300" lon="-4.4638710">
        <ele>789.8</ele>
        <time>2019-08-13T12:28:02Z</time>
      </trkpt>
      <trkpt lat="40.2660630" lon="-4.4638410">
        <ele>790.2</ele>
        <time>2019-08-13T12:28:04Z</time>
      </trkpt>
      <trkpt lat="40.2660970" lon="-4.4638090">
        <ele>790.7</ele>
        <time>2019-08-13T12:28:06Z</time>
      </trkpt>
      <trkpt lat="40.2661320" lon="-4.4637750">
        <ele>791.1</ele>
        <time>2019-08-13T12:28:08Z</time>
      </trkpt>
      <trkpt lat="40.2661680" lon="-4.4637440">
        <ele>791.5</ele>
        <time>2019-08-13T12:28:10Z</time>
      </trkpt>
      <trkpt lat="40.2662050" lon="-4.4637170">
        <ele>791.9</ele>
        <time>2019-08-13T12:28:12Z</time>
      </trkpt>
      <trkpt lat="40.2662360" lon="-4.4636940">
        <ele>792.2</ele>
        <time>2019-08-13T12:28:14Z</time>
      </trkpt>
      <trkpt lat="40.2662730" lon="-4.4636660">
        <ele>792.6</ele>
        <time>2019-08-13T12:28:16Z</time>
      </trkpt>
      <trkpt lat="40.2663140" lon="-4.4636400">
        <ele>793.0</ele>
        <time>2019-08-13T12:28:18Z</time>
      </trkpt>
      <trkpt lat="40.2663580" lon="-4.4636140">
        <ele>793.3</ele>
        <time>2019-08-13T12:28:20Z</time>
      </trkpt>
      <trkpt lat="40.2664010" lon="-4.4635890">
        <ele>793.6</ele>
        <time>2019-08-13T12:28:22Z</time>
      </trkpt>
      <trkpt lat="40.2664430" lon="-4.4635660">
        <ele>793.8</ele>
        <time>2019-08-13T12:28:24Z</time>
      </trkpt>
      <trkpt lat="40.2664850" lon="-4.4635430">
        <ele>794.1</ele>
        <time>2019-08-13T12:28:26Z</time>
      </trkpt>
      <trkpt lat="40.2665260" lon="-4.4635190">
        <ele>794.3</ele>
        <time>2019-08-13T12:28:28Z</time>
      </trkpt>
      <trkpt lat="40.2665710" lon="-4.4635090">
        <ele>794.6</ele>
        <time>2019-08-13T12:28:30Z</time>
      </trkpt>
      <trkpt lat="40.2666120" lon="-4.4635010">
        <ele>794.8</ele>
        <time>2019-08-13T12:28:32Z</time>
      </trkpt>
      <trkpt lat="40.2666540" lon="-4.4634940">
        <ele>795.2</ele>
        <time>2019-08-13T12:28:34Z</time>
      </trkpt>
      <trkpt lat="40.2666980" lon="-4.4634840">
        <ele>795.5</ele>
        <time>2019-08-13T12:28:36Z</time>
      </trkpt>
      <trkpt lat="40.2667400" lon="-4.4634730">
        <ele>795.8</ele>
        <time>2019-08-13T12:28:38Z</time>
      </trkpt>
      <trkpt lat="40.2667830" lon="-4.4634600">
        <ele>796.1</ele>
        <time>2019-08-13T12:28:40Z</time>
      </trkpt>
      <trkpt lat="40.2668260" lon="-4.4634460">
        <ele>796.4</ele>
        <time>2019-08-13T12:28:42Z</time>
      </trkpt>
      <trkpt lat="40.2668680" lon="-4.4634360">
        <ele>796.7</ele>
        <time>2019-08-13T12:28:44Z</time>
      </trkpt>
      <trkpt lat="40.2669100" lon="-4.4634250">
        <ele>797.0</ele>
        <time>2019-08-13T12:28:46Z</time>
      </trkpt>
      <trkpt lat="40.2669500" lon="-4.4634120">
        <ele>797.3</ele>
        <time>2019-08-13T12:28:48Z</time>
      </trkpt>
      <trkpt lat="40.2669890" lon="-4.4633980">
        <ele>797.7</ele>
        <time>2019-08-13T12:28:50Z</time>
      </trkpt>
      <trkpt lat="40.2670290" lon="-4.4633860">
        <ele>798.0</ele>
        <time>2019-08-13T12:28:52Z</time>
      </trkpt>
      <trkpt lat="40.2670700" lon="-4.4633780">
        <ele>798.3</ele>
        <time>2019-08-13T12:28:54Z</time>
      </trkpt>
      <trkpt lat="40.2671100" lon="-4.4633720">
        <ele>798.7</ele>
        <time>2019-08-13T12:28:56Z</time>
      </trkpt>
      <trkpt lat="40.2671480" lon="-4.4633620">
        <ele>799.1</ele>
        <time>2019-08-13T12:28:58Z</time>
      </trkpt>
      <trkpt lat="40.2671900" lon="-4.4633500">
        <ele>799.5</ele>
        <time>2019-08-13T12:29:00Z</time>
      </trkpt>
      <trkpt lat="40.2672300" lon="-4.4633390">
        <ele>799.9</ele>
        <time>2019-08-13T12:29:02Z</time>
      </trkpt>
      <trkpt lat="40.2672760" lon="-4.4633300">
        <ele>800.4</ele>
        <time>2019-08-13T12:29:04Z</time>
      </trkpt>
      <trkpt lat="40.2673160" lon="-4.4633170">
        <ele>800.8</ele>
        <time>2019-08-13T12:29:06Z</time>
      </trkpt>
      <trkpt lat="40.2673550" lon="-4.4633030">
        <ele>801.3</ele>
        <time>2019-08-13T12:29:08Z</time>
      </trkpt>
      <trkpt lat="40.2673940" lon="-4.4632850">
        <ele>801.7</ele>
        <time>2019-08-13T12:29:10Z</time>
      </trkpt>
      <trkpt lat="40.2674330" lon="-4.4632720">
        <ele>802.1</ele>
        <time>2019-08-13T12:29:12Z</time>
      </trkpt>
      <trkpt lat="40.2674710" lon="-4.4632580">
        <ele>802.5</ele>
        <time>2019-08-13T12:29:14Z</time>
      </trkpt>
      <trkpt lat="40.2675090" lon="-4.4632380">
        <ele>802.9</ele>
        <time>2019-08-13T12:29:16Z</time>
      </trkpt>
      <trkpt lat="40.2675470" lon="-4.4632170">
        <ele>803.3</ele>
        <time>2019-08-13T12:29:18Z</time>
      </trkpt>
      <trkpt lat="40.2675860" lon="-4.4631970">
        <ele>803.7</ele>
        <time>2019-08-13T12:29:20Z</time>
      </trkpt>
      <trkpt lat="40.2676220" lon="-4.4631800">
        <ele>804.1</ele>
        <time>2019-08-13T12:29:22Z</time>
      </trkpt>
      <trkpt lat="40.2676590" lon="-4.4631580">
        <ele>804.4</ele>
        <time>2019-08-13T12:29:24Z</time>
      </trkpt>
      <trkpt lat="40.2676930" lon="-4.4631400">
        <ele>804.7</ele>
        <time>2019-08-13T12:29:26Z</time>
      </trkpt>
      <trkpt lat="40.2677300" lon="-4.4631190">
        <ele>805.0</ele>
        <time>2019-08-13T12:29:28Z</time>
      </trkpt>
      <trkpt lat="40.2677680" lon="-4.4630980">
        <ele>805.4</ele>
        <time>2019-08-13T12:29:30Z</time>
      </trkpt>
      <trkpt lat="40.2678040" lon="-4.4630770">
        <ele>805.7</ele>
        <time>2019-08-13T12:29:32Z</time>
      </trkpt>
      <trkpt lat="40.2678410" lon="-4.4630590">
        <ele>806.0</ele>
        <time>2019-08-13T12:29:34Z</time>
      </trkpt>
      <trkpt lat="40.2678770" lon="-4.4630380">
        <ele>806.3</ele>
        <time>2019-08-13T12:29:36Z</time>
      </trkpt>
      <trkpt lat="40.2679140" lon="-4.4630150">
        <ele>806.7</ele>
        <time>2019-08-13T12:29:38Z</time>
      </trkpt>
      <trkpt lat="40.2679510" lon="-4.4629940">
        <ele>807.0</ele>
        <time>2019-08-13T12:29:40Z</time>
      </trkpt>
      <trkpt lat="40.2679870" lon="-4.4629720">
        <ele>807.3</ele>
        <time>2019-08-13T12:29:42Z</time>
      </trkpt>
      <trkpt lat="40.2680240" lon="-4.4629510">
        <ele>807.7</ele>
        <time>2019-08-13T12:29:44Z</time>
      </trkpt>
      <trkpt lat="40.2680600" lon="-4.4629300">
        <ele>808.0</ele>
        <time>2019-08-13T12:29:46Z</time>
      </trkpt>
      <trkpt lat="40.2680960" lon="-4.4629080">
        <ele>808.3</ele>
        <time>2019-08-13T12:29:48Z</time>
      </trkpt>
      <trkpt lat="40.2681330" lon="-4.4628850">
        <ele>808.7</ele>
        <time>2019-08-13T12:29:50Z</time>
      </trkpt>
      <trkpt lat="40.2681700" lon="-4.4628610">
        <ele>809.0</ele>
        <time>2019-08-13T12:29:52Z</time>
      </trkpt>
      <trkpt lat="40.2682060" lon="-4.4628370">
        <ele>809.4</ele>
        <time>2019-08-13T12:29:54Z</time>
      </trkpt>
      <trkpt lat="40.2682430" lon="-4.4628130">
        <ele>809.7</ele>
        <time>2019-08-13T12:29:56Z</time>
      </trkpt>
      <trkpt lat="40.2682790" lon="-4.4627880">
        <ele>810.0</ele>
        <time>2019-08-13T12:29:58Z</time>
      </trkpt>
      <trkpt lat="40.2683170" lon="-4.4627610">
        <ele>810.4</ele>
        <time>2019-08-13T12:30:00Z</time>
      </trkpt>
      <trkpt lat="40.2683560" lon="-4.4627350">
        <ele>810.7</ele>
        <time>2019-08-13T12:30:02Z</time>
      </trkpt>
      <trkpt lat="40.2683950" lon="-4.4627100">
        <ele>811.0</ele>
        <time>2019-08-13T12:30:04Z</time>
      </trkpt>
      <trkpt lat="40.2684360" lon="-4.4626860">
        <ele>811.3</ele>
        <time>2019-08-13T12:30:06Z</time>
      </trkpt>
      <trkpt lat="40.2684750" lon="-4.4626620">
        <ele>811.5</ele>
        <time>2019-08-13T12:30:08Z</time>
      </trkpt>
      <trkpt lat="40.2685180" lon="-4.4626350">
        <ele>811.8</ele>
        <time>2019-08-13T12:30:10Z</time>
      </trkpt>
      <trkpt lat="40.2685560" lon="-4.4626110">
        <ele>812.0</ele>
        <time>2019-08-13T12:30:12Z</time>
      </trkpt>
      <trkpt lat="40.2685940" lon="-4.4625850">
        <ele>812.3</ele>
        <time>2019-08-13T12:30:14Z</time>
      </trkpt>
      <trkpt lat="40.2686340" lon="-4.4625530">
        <ele>812.5</ele>
        <time>2019-08-13T12:30:16Z</time>
      </trkpt>
      <trkpt lat="40.2686750" lon="-4.4625240">
        <ele>812.8</ele>
        <time>2019-08-13T12:30:18Z</time>
      </trkpt>
      <trkpt lat="40.2687210" lon="-4.4624890">
        <ele>813.0</ele>
        <time>2019-08-13T12:30:20Z</time>
      </trkpt>
      <trkpt lat="40.2687460" lon="-4.4624720">
        <ele>813.1</ele>
        <time>2019-08-13T12:30:21Z</time>
      </trkpt>
      <trkpt lat="40.2687930" lon="-4.4624430">
        <ele>813.3</ele>
        <time>2019-08-13T12:30:23Z</time>
      </trkpt>
      <trkpt lat="40.2688180" lon="-4.4624260">
        <ele>813.4</ele>
        <time>2019-08-13T12:30:24Z</time>
      </trkpt>
      <trkpt lat="40.2688430" lon="-4.4624050">
        <ele>813.5</ele>
        <time>2019-08-13T12:30:25Z</time>
      </trkpt>
      <trkpt lat="40.2688700" lon="-4.4623850">
        <ele>813.6</ele>
        <time>2019-08-13T12:30:26Z</time>
      </trkpt>
      <trkpt lat="40.2688960" lon="-4.4623670">
        <ele>813.7</ele>
        <time>2019-08-13T12:30:27Z</time>
      </trkpt>
      <trkpt lat="40.2689200" lon="-4.4623500">
        <ele>813.8</ele>
        <time>2019-08-13T12:30:28Z</time>
      </trkpt>
      <trkpt lat="40.2689450" lon="-4.4623330">
        <ele>813.8</ele>
        <time>2019-08-13T12:30:29Z</time>
      </trkpt>
      <trkpt lat="40.2689690" lon="-4.4623150">
        <ele>813.9</ele>
        <time>2019-08-13T12:30:30Z</time>
      </trkpt>
      <trkpt lat="40.2689950" lon="-4.4622970">
        <ele>814.0</ele>
        <time>2019-08-13T12:30:31Z</time>
      </trkpt>
      <trkpt lat="40.2690200" lon="-4.4622790">
        <ele>814.1</ele>
        <time>2019-08-13T12:30:32Z</time>
      </trkpt>
      <trkpt lat="40.2690460" lon="-4.4622610">
        <ele>814.1</ele>
        <time>2019-08-13T12:30:33Z</time>
      </trkpt>
      <trkpt lat="40.2690730" lon="-4.4622420">
        <ele>814.2</ele>
        <time>2019-08-13T12:30:34Z</time>
      </trkpt>
      <trkpt lat="40.2691010" lon="-4.4622230">
        <ele>814.2</ele>
        <time>2019-08-13T12:30:35Z</time>
      </trkpt>
      <trkpt lat="40.2691280" lon="-4.4622020">
        <ele>814.3</ele>
        <time>2019-08-13T12:30:36Z</time>
      </trkpt>
      <trkpt lat="40.2691560" lon="-4.4621820">
        <ele>814.3</ele>
        <time>2019-08-13T12:30:37Z</time>
      </trkpt>
      <trkpt lat="40.2691860" lon="-4.4621620">
        <ele>814.4</ele>
        <time>2019-08-13T12:30:38Z</time>
      </trkpt>
      <trkpt lat="40.2692150" lon="-4.4621420">
        <ele>814.4</ele>
        <time>2019-08-13T12:30:39Z</time>
      </trkpt>
      <trkpt lat="40.2692450" lon="-4.4621210">
        <ele>814.4</ele>
        <time>2019-08-13T12:30:40Z</time>
      </trkpt>
      <trkpt lat="40.2692750" lon="-4.4621000">
        <ele>814.5</ele>
        <time>2019-08-13T12:30:41Z</time>
      </trkpt>
      <trkpt lat="40.2693050" lon="-4.4620790">
        <ele>814.5</ele>
        <time>2019-08-13T12:30:42Z</time>
      </trkpt>
      <trkpt lat="40.2693360" lon="-4.4620580">
        <ele>814.5</ele>
        <time>2019-08-13T12:30:43Z</time>
      </trkpt>
      <trkpt lat="40.2693670" lon="-4.4620370">
        <ele>814.6</ele>
        <time>2019-08-13T12:30:44Z</time>
      </trkpt>
      <trkpt lat="40.2693960" lon="-4.4620190">
        <ele>814.6</ele>
        <time>2019-08-13T12:30:45Z</time>
      </trkpt>
      <trkpt lat="40.2694230" lon="-4.4620020">
        <ele>814.6</ele>
        <time>2019-08-13T12:30:46Z</time>
      </trkpt>
      <trkpt lat="40.2694480" lon="-4.4619860">
        <ele>814.7</ele>
        <time>2019-08-13T12:30:47Z</time>
      </trkpt>
      <trkpt lat="40.2694740" lon="-4.4619690">
        <ele>814.7</ele>
        <time>2019-08-13T12:30:48Z</time>
      </trkpt>
      <trkpt lat="40.2695010" lon="-4.4619500">
        <ele>814.7</ele>
        <time>2019-08-13T12:30:49Z</time>
      </trkpt>
      <trkpt lat="40.2695300" lon="-4.4619310">
        <ele>814.8</ele>
        <time>2019-08-13T12:30:50Z</time>
      </trkpt>
      <trkpt lat="40.2695590" lon="-4.4619130">
        <ele>814.8</ele>
        <time>2019-08-13T12:30:51Z</time>
      </trkpt>
      <trkpt lat="40.2695900" lon="-4.4618950">
        <ele>814.8</ele>
        <time>2019-08-13T12:30:52Z</time>
      </trkpt>
      <trkpt lat="40.2696210" lon="-4.4618750">
        <ele>814.9</ele>
        <time>2019-08-13T12:30:53Z</time>
      </trkpt>
      <trkpt lat="40.2696490" lon="-4.4618530">
        <ele>815.0</ele>
        <time>2019-08-13T12:30:54Z</time>
      </trkpt>
      <trkpt lat="40.2696780" lon="-4.4618340">
        <ele>815.0</ele>
        <time>2019-08-13T12:30:55Z</time>
      </trkpt>
      <trkpt lat="40.2697080" lon="-4.4618160">
        <ele>815.1</ele>
        <time>2019-08-13T12:30:56Z</time>
      </trkpt>
      <trkpt lat="40.2697370" lon="-4.4617970">
        <ele>815.1</ele>
        <time>2019-08-13T12:30:57Z</time>
      </trkpt>
      <trkpt lat="40.2697660" lon="-4.4617810">
        <ele>815.2</ele>
        <time>2019-08-13T12:30:58Z</time>
      </trkpt>
      <trkpt lat="40.2697940" lon="-4.4617650">
        <ele>815.2</ele>
        <time>2019-08-13T12:30:59Z</time>
      </trkpt>
      <trkpt lat="40.2698220" lon="-4.4617480">
        <ele>815.3</ele>
        <time>2019-08-13T12:31:00Z</time>
      </trkpt>
      <trkpt lat="40.2698490" lon="-4.4617320">
        <ele>815.3</ele>
        <time>2019-08-13T12:31:01Z</time>
      </trkpt>
      <trkpt lat="40.2698760" lon="-4.4617150">
        <ele>815.4</ele>
        <time>2019-08-13T12:31:02Z</time>
      </trkpt>
      <trkpt lat="40.2699030" lon="-4.4616970">
        <ele>815.4</ele>
        <time>2019-08-13T12:31:03Z</time>
      </trkpt>
      <trkpt lat="40.2699300" lon="-4.4616800">
        <ele>815.5</ele>
        <time>2019-08-13T12:31:04Z</time>
      </trkpt>
      <trkpt lat="40.2699570" lon="-4.4616630">
        <ele>815.5</ele>
        <time>2019-08-13T12:31:05Z</time>
      </trkpt>
      <trkpt lat="40.2699850" lon="-4.4616490">
        <ele>815.6</ele>
        <time>2019-08-13T12:31:06Z</time>
      </trkpt>
      <trkpt lat="40.2700110" lon="-4.4616370">
        <ele>815.6</ele>
        <time>2019-08-13T12:31:07Z</time>
      </trkpt>
      <trkpt lat="40.2700360" lon="-4.4616220">
        <ele>815.6</ele>
        <time>2019-08-13T12:31:08Z</time>
      </trkpt>
      <trkpt lat="40.2700620" lon="-4.4616060">
        <ele>815.7</ele>
        <time>2019-08-13T12:31:09Z</time>
      </trkpt>
      <trkpt lat="40.2700880" lon="-4.4615900">
        <ele>815.8</ele>
        <time>2019-08-13T12:31:10Z</time>
      </trkpt>
      <trkpt lat="40.2701140" lon="-4.4615740">
        <ele>815.9</ele>
        <time>2019-08-13T12:31:11Z</time>
      </trkpt>
      <trkpt lat="40.2701390" lon="-4.4615600">
        <ele>816.0</ele>
        <time>2019-08-13T12:31:12Z</time>
      </trkpt>
      <trkpt lat="40.2701640" lon="-4.4615460">
        <ele>816.1</ele>
        <time>2019-08-13T12:31:13Z</time>
      </trkpt>
      <trkpt lat="40.2701890" lon="-4.4615300">
        <ele>816.2</ele>
        <time>2019-08-13T12:31:14Z</time>
      </trkpt>
      <trkpt lat="40.2702140" lon="-4.4615160">
        <ele>816.3</ele>
        <time>2019-08-13T12:31:15Z</time>
      </trkpt>
      <trkpt lat="40.2702400" lon="-4.4615020">
        <ele>816.5</ele>
        <time>2019-08-13T12:31:16Z</time>
      </trkpt>
      <trkpt lat="40.2702650" lon="-4.4614870">
        <ele>816.6</ele>
        <time>2019-08-13T12:31:17Z</time>
      </trkpt>
      <trkpt lat="40.2702910" lon="-4.4614730">
        <ele>816.8</ele>
        <time>2019-08-13T12:31:18Z</time>
      </trkpt>
      <trkpt lat="40.2703160" lon="-4.4614580">
        <ele>817.0</ele>
        <time>2019-08-13T12:31:19Z</time>
      </trkpt>
      <trkpt lat="40.2703410" lon="-4.4614430">
        <ele>817.1</ele>
        <time>2019-08-13T12:31:20Z</time>
      </trkpt>
      <trkpt lat="40.2703660" lon="-4.4614300">
        <ele>817.3</ele>
        <time>2019-08-13T12:31:21Z</time>
      </trkpt>
      <trkpt lat="40.2703930" lon="-4.4614170">
        <ele>817.5</ele>
        <time>2019-08-13T12:31:22Z</time>
      </trkpt>
      <trkpt lat="40.2704180" lon="-4.4614030">
        <ele>817.6</ele>
        <time>2019-08-13T12:31:23Z</time>
      </trkpt>
      <trkpt lat="40.2704450" lon="-4.4613890">
        <ele>817.8</ele>
        <time>2019-08-13T12:31:24Z</time>
      </trkpt>
      <trkpt lat="40.2704710" lon="-4.4613740">
        <ele>818.0</ele>
        <time>2019-08-13T12:31:25Z</time>
      </trkpt>
      <trkpt lat="40.2704970" lon="-4.4613590">
        <ele>818.2</ele>
        <time>2019-08-13T12:31:26Z</time>
      </trkpt>
      <trkpt lat="40.2705210" lon="-4.4613420">
        <ele>818.3</ele>
        <time>2019-08-13T12:31:27Z</time>
      </trkpt>
      <trkpt lat="40.2705460" lon="-4.4613260">
        <ele>818.5</ele>
        <time>2019-08-13T12:31:28Z</time>
      </trkpt>
      <trkpt lat="40.2705730" lon="-4.4613090">
        <ele>818.7</ele>
        <time>2019-08-13T12:31:29Z</time>
      </trkpt>
      <trkpt lat="40.2705980" lon="-4.4612940">
        <ele>818.9</ele>
        <time>2019-08-13T12:31:30Z</time>
      </trkpt>
      <trkpt lat="40.2706220" lon="-4.4612760">
        <ele>819.1</ele>
        <time>2019-08-13T12:31:31Z</time>
      </trkpt>
      <trkpt lat="40.2706470" lon="-4.4612600">
        <ele>819.3</ele>
        <time>2019-08-13T12:31:32Z</time>
      </trkpt>
      <trkpt lat="40.2706970" lon="-4.4612290">
        <ele>819.7</ele>
        <time>2019-08-13T12:31:34Z</time>
      </trkpt>
      <trkpt lat="40.2707230" lon="-4.4612120">
        <ele>819.9</ele>
        <time>2019-08-13T12:31:35Z</time>
      </trkpt>
      <trkpt lat="40.2707690" lon="-4.4611750">
        <ele>820.2</ele>
        <time>2019-08-13T12:31:37Z</time>
      </trkpt>
      <trkpt lat="40.2707950" lon="-4.4611610">
        <ele>820.4</ele>
        <time>2019-08-13T12:31:38Z</time>
      </trkpt>
      <trkpt lat="40.2708200" lon="-4.4611460">
        <ele>820.6</ele>
        <time>2019-08-13T12:31:39Z</time>
      </trkpt>
      <trkpt lat="40.2708460" lon="-4.4611310">
        <ele>820.8</ele>
        <time>2019-08-13T12:31:40Z</time>
      </trkpt>
      <trkpt lat="40.2708710" lon="-4.4611140">
        <ele>820.9</ele>
        <time>2019-08-13T12:31:41Z</time>
      </trkpt>
      <trkpt lat="40.2708960" lon="-4.4610970">
        <ele>821.1</ele>
        <time>2019-08-13T12:31:42Z</time>
      </trkpt>
      <trkpt lat="40.2709230" lon="-4.4610840">
        <ele>821.3</ele>
        <time>2019-08-13T12:31:43Z</time>
      </trkpt>
      <trkpt lat="40.2709480" lon="-4.4610690">
        <ele>821.4</ele>
        <time>2019-08-13T12:31:44Z</time>
      </trkpt>
      <trkpt lat="40.2709730" lon="-4.4610550">
        <ele>821.6</ele>
        <time>2019-08-13T12:31:45Z</time>
      </trkpt>
      <trkpt lat="40.2709990" lon="-4.4610440">
        <ele>821.7</ele>
        <time>2019-08-13T12:31:46Z</time>
      </trkpt>
      <trkpt lat="40.2710500" lon="-4.4610190">
        <ele>822.1</ele>
        <time>2019-08-13T12:31:48Z</time>
      </trkpt>
      <trkpt lat="40.2710760" lon="-4.4610080">
        <ele>822.2</ele>
        <time>2019-08-13T12:31:49Z</time>
      </trkpt>
      <trkpt lat="40.2711020" lon="-4.4609950">
        <ele>822.4</ele>
        <time>2019-08-13T12:31:50Z</time>
      </trkpt>
      <trkpt lat="40.2711280" lon="-4.4609830">
        <ele>822.6</ele>
        <time>2019-08-13T12:31:51Z</time>
      </trkpt>
      <trkpt lat="40.2711550" lon="-4.4609720">
        <ele>822.7</ele>
        <time>2019-08-13T12:31:52Z</time>
      </trkpt>
      <trkpt lat="40.2711820" lon="-4.4609620">
        <ele>822.9</ele>
        <time>2019-08-13T12:31:53Z</time>
      </trkpt>
      <trkpt lat="40.2712070" lon="-4.4609500">
        <ele>823.0</ele>
        <time>2019-08-13T12:31:54Z</time>
      </trkpt>
      <trkpt lat="40.2712340" lon="-4.4609380">
        <ele>823.2</ele>
        <time>2019-08-13T12:31:55Z</time>
      </trkpt>
      <trkpt lat="40.2712600" lon="-4.4609250">
        <ele>823.4</ele>
        <time>2019-08-13T12:31:56Z</time>
      </trkpt>
      <trkpt lat="40.2713090" lon="-4.4609010">
        <ele>823.7</ele>
        <time>2019-08-13T12:31:58Z</time>
      </trkpt>
      <trkpt lat="40.2713600" lon="-4.4608830">
        <ele>824.0</ele>
        <time>2019-08-13T12:32:00Z</time>
      </trkpt>
      <trkpt lat="40.2713870" lon="-4.4608760">
        <ele>824.2</ele>
        <time>2019-08-13T12:32:01Z</time>
      </trkpt>
      <trkpt lat="40.2714140" lon="-4.4608680">
        <ele>824.3</ele>
        <time>2019-08-13T12:32:02Z</time>
      </trkpt>
      <trkpt lat="40.2714680" lon="-4.4608550">
        <ele>824.6</ele>
        <time>2019-08-13T12:32:04Z</time>
      </trkpt>
      <trkpt lat="40.2715200" lon="-4.4608430">
        <ele>825.0</ele>
        <time>2019-08-13T12:32:06Z</time>
      </trkpt>
      <trkpt lat="40.2715730" lon="-4.4608360">
        <ele>825.4</ele>
        <time>2019-08-13T12:32:08Z</time>
      </trkpt>
      <trkpt lat="40.2716000" lon="-4.4608340">
        <ele>825.5</ele>
        <time>2019-08-13T12:32:09Z</time>
      </trkpt>
      <trkpt lat="40.2716280" lon="-4.4608320">
        <ele>825.7</ele>
        <time>2019-08-13T12:32:10Z</time>
      </trkpt>
      <trkpt lat="40.2716550" lon="-4.4608320">
        <ele>825.9</ele>
        <time>2019-08-13T12:32:11Z</time>
      </trkpt>
      <trkpt lat="40.2717090" lon="-4.4608310">
        <ele>826.2</ele>
        <time>2019-08-13T12:32:13Z</time>
      </trkpt>
      <trkpt lat="40.2717360" lon="-4.4608320">
        <ele>826.4</ele>
        <time>2019-08-13T12:32:14Z</time>
      </trkpt>
      <trkpt lat="40.2717900" lon="-4.4608340">
        <ele>826.7</ele>
        <time>2019-08-13T12:32:16Z</time>
      </trkpt>
      <trkpt lat="40.2718170" lon="-4.4608360">
        <ele>826.7</ele>
        <time>2019-08-13T12:32:17Z</time>
      </trkpt>
      <trkpt lat="40.2718450" lon="-4.4608390">
        <ele>826.6</ele>
        <time>2019-08-13T12:32:18Z</time>
      </trkpt>
      <trkpt lat="40.2718740" lon="-4.4608440">
        <ele>826.5</ele>
        <time>2019-08-13T12:32:19Z</time>
      </trkpt>
      <trkpt lat="40.2719020" lon="-4.4608490">
        <ele>826.5</ele>
        <time>2019-08-13T12:32:20Z</time>
      </trkpt>
      <trkpt lat="40.2719300" lon="-4.4608530">
        <ele>826.4</ele>
        <time>2019-08-13T12:32:21Z</time>
      </trkpt>
      <trkpt lat="40.2719580" lon="-4.4608590">
        <ele>826.3</ele>
        <time>2019-08-13T12:32:22Z</time>
      </trkpt>
      <trkpt lat="40.2719870" lon="-4.4608650">
        <ele>826.2</ele>
        <time>2019-08-13T12:32:23Z</time>
      </trkpt>
      <trkpt lat="40.2720150" lon="-4.4608720">
        <ele>826.2</ele>
        <time>2019-08-13T12:32:24Z</time>
      </trkpt>
      <trkpt lat="40.2720660" lon="-4.4608830">
        <ele>826.0</ele>
        <time>2019-08-13T12:32:26Z</time>
      </trkpt>
      <trkpt lat="40.2721190" lon="-4.4609020">
        <ele>825.9</ele>
        <time>2019-08-13T12:32:28Z</time>
      </trkpt>
      <trkpt lat="40.2721460" lon="-4.4609130">
        <ele>825.7</ele>
        <time>2019-08-13T12:32:29Z</time>
      </trkpt>
      <trkpt lat="40.2721950" lon="-4.4609370">
        <ele>825.6</ele>
        <time>2019-08-13T12:32:31Z</time>
      </trkpt>
      <trkpt lat="40.2722400" lon="-4.4609570">
        <ele>825.6</ele>
        <time>2019-08-13T12:32:33Z</time>
      </trkpt>
      <trkpt lat="40.2722760" lon="-4.4609750">
        <ele>825.3</ele>
        <time>2019-08-13T12:32:35Z</time>
      </trkpt>
      <trkpt lat="40.2723060" lon="-4.4609920">
        <ele>824.9</ele>
        <time>2019-08-13T12:32:37Z</time>
      </trkpt>
      <trkpt lat="40.2723380" lon="-4.4610060">
        <ele>824.5</ele>
        <time>2019-08-13T12:32:39Z</time>
      </trkpt>
      <trkpt lat="40.2723700" lon="-4.4610200">
        <ele>824.1</ele>
        <time>2019-08-13T12:32:41Z</time>
      </trkpt>
      <trkpt lat="40.2724040" lon="-4.4610240">
        <ele>823.7</ele>
        <time>2019-08-13T12:32:43Z</time>
      </trkpt>
      <trkpt lat="40.2724430" lon="-4.4610110">
        <ele>823.3</ele>
        <time>2019-08-13T12:32:45Z</time>
      </trkpt>
      <trkpt lat="40.2724940" lon="-4.4609900">
        <ele>822.7</ele>
        <time>2019-08-13T12:32:47Z</time>
      </trkpt>
      <trkpt lat="40.2725270" lon="-4.4609750">
        <ele>822.1</ele>
        <time>2019-08-13T12:32:48Z</time>
      </trkpt>
      <trkpt lat="40.2725620" lon="-4.4609580">
        <ele>821.5</ele>
        <time>2019-08-13T12:32:49Z</time>
      </trkpt>
      <trkpt lat="40.2725960" lon="-4.4609370">
        <ele>820.9</ele>
        <time>2019-08-13T12:32:50Z</time>
      </trkpt>
      <trkpt lat="40.2726290" lon="-4.4609130">
        <ele>820.4</ele>
        <time>2019-08-13T12:32:51Z</time>
      </trkpt>
      <trkpt lat="40.2726650" lon="-4.4608850">
        <ele>819.7</ele>
        <time>2019-08-13T12:32:52Z</time>
      </trkpt>
      <trkpt lat="40.2727030" lon="-4.4608530">
        <ele>818.9</ele>
        <time>2019-08-13T12:32:53Z</time>
      </trkpt>
      <trkpt lat="40.2727400" lon="-4.4608210">
        <ele>817.8</ele>
        <time>2019-08-13T12:32:54Z</time>
      </trkpt>
      <trkpt lat="40.2727730" lon="-4.4607890">
        <ele>817.0</ele>
        <time>2019-08-13T12:32:55Z</time>
      </trkpt>
      <trkpt lat="40.2728030" lon="-4.4607560">
        <ele>816.2</ele>
        <time>2019-08-13T12:32:56Z</time>
      </trkpt>
      <trkpt lat="40.2728330" lon="-4.4607220">
        <ele>815.4</ele>
        <time>2019-08-13T12:32:57Z</time>
      </trkpt>
      <trkpt lat="40.2728630" lon="-4.4606880">
        <ele>814.6</ele>
        <time>2019-08-13T12:32:58Z</time>
      </trkpt>
      <trkpt lat="40.2728920" lon="-4.4606530">
        <ele>813.9</ele>
        <time>2019-08-13T12:32:59Z</time>
      </trkpt>
      <trkpt lat="40.2729210" lon="-4.4606200">
        <ele>813.2</ele>
        <time>2019-08-13T12:33:00Z</time>
      </trkpt>
      <trkpt lat="40.2729560" lon="-4.4605900">
        <ele>812.4</ele>
        <time>2019-08-13T12:33:01Z</time>
      </trkpt>
      <trkpt lat="40.2729960" lon="-4.4605630">
        <ele>811.6</ele>
        <time>2019-08-13T12:33:02Z</time>
      </trkpt>
      <trkpt lat="40.2730370" lon="-4.4605360">
        <ele>810.8</ele>
        <time>2019-08-13T12:33:03Z</time>
      </trkpt>
      <trkpt lat="40.2730760" lon="-4.4605090">
        <ele>810.0</ele>
        <time>2019-08-13T12:33:04Z</time>
      </trkpt>
      <trkpt lat="40.2731110" lon="-4.4604780">
        <ele>809.3</ele>
        <time>2019-08-13T12:33:05Z</time>
      </trkpt>
      <trkpt lat="40.2731450" lon="-4.4604500">
        <ele>808.7</ele>
        <time>2019-08-13T12:33:06Z</time>
      </trkpt>
      <trkpt lat="40.2731790" lon="-4.4604250">
        <ele>808.1</ele>
        <time>2019-08-13T12:33:07Z</time>
      </trkpt>
      <trkpt lat="40.2732150" lon="-4.4604020">
        <ele>807.5</ele>
        <time>2019-08-13T12:33:08Z</time>
      </trkpt>
      <trkpt lat="40.2732510" lon="-4.4603810">
        <ele>806.9</ele>
        <time>2019-08-13T12:33:09Z</time>
      </trkpt>
      <trkpt lat="40.2732860" lon="-4.4603630">
        <ele>806.3</ele>
        <time>2019-08-13T12:33:10Z</time>
      </trkpt>
      <trkpt lat="40.2733180" lon="-4.4603460">
        <ele>805.8</ele>
        <time>2019-08-13T12:33:11Z</time>
      </trkpt>
      <trkpt lat="40.2733490" lon="-4.4603280">
        <ele>805.3</ele>
        <time>2019-08-13T12:33:12Z</time>
      </trkpt>
      <trkpt lat="40.2733820" lon="-4.4603100">
        <ele>804.7</ele>
        <time>2019-08-13T12:33:13Z</time>
      </trkpt>
      <trkpt lat="40.2734160" lon="-4.4602950">
        <ele>804.1</ele>
        <time>2019-08-13T12:33:14Z</time>
      </trkpt>
      <trkpt lat="40.2734520" lon="-4.4602810">
        <ele>803.6</ele>
        <time>2019-08-13T12:33:15Z</time>
      </trkpt>
      <trkpt lat="40.2734860" lon="-4.4602690">
        <ele>803.0</ele>
        <time>2019-08-13T12:33:16Z</time>
      </trkpt>
      <trkpt lat="40.2735190" lon="-4.4602560">
        <ele>802.4</ele>
        <time>2019-08-13T12:33:17Z</time>
      </trkpt>
      <trkpt lat="40.2735520" lon="-4.4602440">
        <ele>801.8</ele>
        <time>2019-08-13T12:33:18Z</time>
      </trkpt>
      <trkpt lat="40.2735820" lon="-4.4602290">
        <ele>801.3</ele>
        <time>2019-08-13T12:33:19Z</time>
      </trkpt>
      <trkpt lat="40.2736120" lon="-4.4602160">
        <ele>800.6</ele>
        <time>2019-08-13T12:33:20Z</time>
      </trkpt>
      <trkpt lat="40.2736410" lon="-4.4602050">
        <ele>799.9</ele>
        <time>2019-08-13T12:33:21Z</time>
      </trkpt>
      <trkpt lat="40.2736690" lon="-4.4601940">
        <ele>799.3</ele>
        <time>2019-08-13T12:33:22Z</time>
      </trkpt>
      <trkpt lat="40.2736970" lon="-4.4601820">
        <ele>798.6</ele>
        <time>2019-08-13T12:33:23Z</time>
      </trkpt>
      <trkpt lat="40.2737250" lon="-4.4601660">
        <ele>798.1</ele>
        <time>2019-08-13T12:33:24Z</time>
      </trkpt>
      <trkpt lat="40.2737530" lon="-4.4601480">
        <ele>797.5</ele>
        <time>2019-08-13T12:33:25Z</time>
      </trkpt>
      <trkpt lat="40.2737810" lon="-4.4601250">
        <ele>796.9</ele>
        <time>2019-08-13T12:33:26Z</time>
      </trkpt>
      <trkpt lat="40.2738080" lon="-4.4600960">
        <ele>796.2</ele>
        <time>2019-08-13T12:33:27Z</time>
      </trkpt>
      <trkpt lat="40.2738340" lon="-4.4600620">
        <ele>795.6</ele>
        <time>2019-08-13T12:33:28Z</time>
      </trkpt>
      <trkpt lat="40.2738570" lon="-4.4600230">
        <ele>794.9</ele>
        <time>2019-08-13T12:33:29Z</time>
      </trkpt>
      <trkpt lat="40.2738790" lon="-4.4599780">
        <ele>794.1</ele>
        <time>2019-08-13T12:33:30Z</time>
      </trkpt>
      <trkpt lat="40.2738990" lon="-4.4599310">
        <ele>793.4</ele>
        <time>2019-08-13T12:33:31Z</time>
      </trkpt>
      <trkpt lat="40.2739160" lon="-4.4598820">
        <ele>792.6</ele>
        <time>2019-08-13T12:33:32Z</time>
      </trkpt>
      <trkpt lat="40.2739300" lon="-4.4598320">
        <ele>792.0</ele>
        <time>2019-08-13T12:33:33Z</time>
      </trkpt>
      <trkpt lat="40.2739440" lon="-4.4597820">
        <ele>791.3</ele>
        <time>2019-08-13T12:33:34Z</time>
      </trkpt>
      <trkpt lat="40.2739600" lon="-4.4597310">
        <ele>790.6</ele>
        <time>2019-08-13T12:33:35Z</time>
      </trkpt>
      <trkpt lat="40.2739720" lon="-4.4596810">
        <ele>789.9</ele>
        <time>2019-08-13T12:33:36Z</time>
      </trkpt>
      <trkpt lat="40.2739820" lon="-4.4596310">
        <ele>789.1</ele>
        <time>2019-08-13T12:33:37Z</time>
      </trkpt>
      <trkpt lat="40.2739930" lon="-4.4595800">
        <ele>788.4</ele>
        <time>2019-08-13T12:33:38Z</time>
      </trkpt>
      <trkpt lat="40.2740020" lon="-4.4595280">
        <ele>787.5</ele>
        <time>2019-08-13T12:33:39Z</time>
      </trkpt>
      <trkpt lat="40.2740070" lon="-4.4594820">
        <ele>786.8</ele>
        <time>2019-08-13T12:33:40Z</time>
      </trkpt>
      <trkpt lat="40.2740110" lon="-4.4594410">
        <ele>786.1</ele>
        <time>2019-08-13T12:33:41Z</time>
      </trkpt>
      <trkpt lat="40.2740160" lon="-4.4594020">
        <ele>785.6</ele>
        <time>2019-08-13T12:33:42Z</time>
      </trkpt>
      <trkpt lat="40.2740250" lon="-4.4593660">
        <ele>785.0</ele>
        <time>2019-08-13T12:33:43Z</time>
      </trkpt>
      <trkpt lat="40.2740390" lon="-4.4593340">
        <ele>784.5</ele>
        <time>2019-08-13T12:33:44Z</time>
      </trkpt>
      <trkpt lat="40.2740590" lon="-4.4593070">
        <ele>783.9</ele>
        <time>2019-08-13T12:33:45Z</time>
      </trkpt>
      <trkpt lat="40.2740860" lon="-4.4592850">
        <ele>783.3</ele>
        <time>2019-08-13T12:33:46Z</time>
      </trkpt>
      <trkpt lat="40.2741150" lon="-4.4592620">
        <ele>782.7</ele>
        <time>2019-08-13T12:33:47Z</time>
      </trkpt>
      <trkpt lat="40.2741460" lon="-4.4592300">
        <ele>781.9</ele>
        <time>2019-08-13T12:33:48Z</time>
      </trkpt>
      <trkpt lat="40.2741760" lon="-4.4591930">
        <ele>781.1</ele>
        <time>2019-08-13T12:33:49Z</time>
      </trkpt>
      <trkpt lat="40.2742020" lon="-4.4591520">
        <ele>780.2</ele>
        <time>2019-08-13T12:33:50Z</time>
      </trkpt>
      <trkpt lat="40.2742290" lon="-4.4591100">
        <ele>779.3</ele>
        <time>2019-08-13T12:33:51Z</time>
      </trkpt>
      <trkpt lat="40.2742560" lon="-4.4590710">
        <ele>778.6</ele>
        <time>2019-08-13T12:33:52Z</time>
      </trkpt>
      <trkpt lat="40.2742820" lon="-4.4590330">
        <ele>777.8</ele>
        <time>2019-08-13T12:33:53Z</time>
      </trkpt>
      <trkpt lat="40.2743080" lon="-4.4589980">
        <ele>776.8</ele>
        <time>2019-08-13T12:33:54Z</time>
      </trkpt>
      <trkpt lat="40.2743340" lon="-4.4589640">
        <ele>775.9</ele>
        <time>2019-08-13T12:33:55Z</time>
      </trkpt>
      <trkpt lat="40.2743590" lon="-4.4589300">
        <ele>775.0</ele>
        <time>2019-08-13T12:33:56Z</time>
      </trkpt>
      <trkpt lat="40.2743840" lon="-4.4588960">
        <ele>774.2</ele>
        <time>2019-08-13T12:33:57Z</time>
      </trkpt>
      <trkpt lat="40.2744120" lon="-4.4588650">
        <ele>773.4</ele>
        <time>2019-08-13T12:33:58Z</time>
      </trkpt>
      <trkpt lat="40.2744470" lon="-4.4588370">
        <ele>772.5</ele>
        <time>2019-08-13T12:33:59Z</time>
      </trkpt>
      <trkpt lat="40.2744870" lon="-4.4588100">
        <ele>771.6</ele>
        <time>2019-08-13T12:34:00Z</time>
      </trkpt>
      <trkpt lat="40.2745310" lon="-4.4587850">
        <ele>770.7</ele>
        <time>2019-08-13T12:34:01Z</time>
      </trkpt>
      <trkpt lat="40.2745790" lon="-4.4587560">
        <ele>769.8</ele>
        <time>2019-08-13T12:34:02Z</time>
      </trkpt>
      <trkpt lat="40.2746300" lon="-4.4587280">
        <ele>768.9</ele>
        <time>2019-08-13T12:34:03Z</time>
      </trkpt>
      <trkpt lat="40.2746790" lon="-4.4586960">
        <ele>768.1</ele>
        <time>2019-08-13T12:34:04Z</time>
      </trkpt>
      <trkpt lat="40.2747290" lon="-4.4586590">
        <ele>767.3</ele>
        <time>2019-08-13T12:34:05Z</time>
      </trkpt>
      <trkpt lat="40.2747760" lon="-4.4586130">
        <ele>766.5</ele>
        <time>2019-08-13T12:34:06Z</time>
      </trkpt>
      <trkpt lat="40.2748190" lon="-4.4585610">
        <ele>765.7</ele>
        <time>2019-08-13T12:34:07Z</time>
      </trkpt>
      <trkpt lat="40.2748620" lon="-4.4585040">
        <ele>764.9</ele>
        <time>2019-08-13T12:34:08Z</time>
      </trkpt>
      <trkpt lat="40.2749030" lon="-4.4584460">
        <ele>764.2</ele>
        <time>2019-08-13T12:34:09Z</time>
      </trkpt>
      <trkpt lat="40.2749380" lon="-4.4583920">
        <ele>763.5</ele>
        <time>2019-08-13T12:34:10Z</time>
      </trkpt>
      <trkpt lat="40.2749700" lon="-4.4583420">
        <ele>763.0</ele>
        <time>2019-08-13T12:34:11Z</time>
      </trkpt>
      <trkpt lat="40.2750070" lon="-4.4582890">
        <ele>762.4</ele>
        <time>2019-08-13T12:34:12Z</time>
      </trkpt>
      <trkpt lat="40.2750470" lon="-4.4582360">
        <ele>761.9</ele>
        <time>2019-08-13T12:34:13Z</time>
      </trkpt>
      <trkpt lat="40.2750880" lon="-4.4581890">
        <ele>761.3</ele>
        <time>2019-08-13T12:34:14Z</time>
      </trkpt>
      <trkpt lat="40.2751310" lon="-4.4581440">
        <ele>760.7</ele>
        <time>2019-08-13T12:34:15Z</time>
      </trkpt>
      <trkpt lat="40.2751760" lon="-4.4580950">
        <ele>760.1</ele>
        <time>2019-08-13T12:34:16Z</time>
      </trkpt>
      <trkpt lat="40.2752210" lon="-4.4580380">
        <ele>759.4</ele>
        <time>2019-08-13T12:34:17Z</time>
      </trkpt>
      <trkpt lat="40.2752610" lon="-4.4579760">
        <ele>758.7</ele>
        <time>2019-08-13T12:34:18Z</time>
      </trkpt>
      <trkpt lat="40.2752960" lon="-4.4579130">
        <ele>758.1</ele>
        <time>2019-08-13T12:34:19Z</time>
      </trkpt>
      <trkpt lat="40.2753260" lon="-4.4578430">
        <ele>757.6</ele>
        <time>2019-08-13T12:34:20Z</time>
      </trkpt>
      <trkpt lat="40.2753510" lon="-4.4577690">
        <ele>756.9</ele>
        <time>2019-08-13T12:34:21Z</time>
      </trkpt>
      <trkpt lat="40.2753750" lon="-4.4576890">
        <ele>756.3</ele>
        <time>2019-08-13T12:34:22Z</time>
      </trkpt>
      <trkpt lat="40.2754000" lon="-4.4576010">
        <ele>755.5</ele>
        <time>2019-08-13T12:34:23Z</time>
      </trkpt>
      <trkpt lat="40.2754300" lon="-4.4575090">
        <ele>754.8</ele>
        <time>2019-08-13T12:34:24Z</time>
      </trkpt>
      <trkpt lat="40.2754610" lon="-4.4574210">
        <ele>754.0</ele>
        <time>2019-08-13T12:34:25Z</time>
      </trkpt>
      <trkpt lat="40.2754920" lon="-4.4573400">
        <ele>753.5</ele>
        <time>2019-08-13T12:34:26Z</time>
      </trkpt>
      <trkpt lat="40.2755220" lon="-4.4572650">
        <ele>753.0</ele>
        <time>2019-08-13T12:34:27Z</time>
      </trkpt>
      <trkpt lat="40.2755480" lon="-4.4571980">
        <ele>752.6</ele>
        <time>2019-08-13T12:34:28Z</time>
      </trkpt>
      <trkpt lat="40.2755730" lon="-4.4571310">
        <ele>752.3</ele>
        <time>2019-08-13T12:34:29Z</time>
      </trkpt>
      <trkpt lat="40.2755990" lon="-4.4570720">
        <ele>751.9</ele>
        <time>2019-08-13T12:34:30Z</time>
      </trkpt>
      <trkpt lat="40.2756230" lon="-4.4570240">
        <ele>751.6</ele>
        <time>2019-08-13T12:34:31Z</time>
      </trkpt>
      <trkpt lat="40.2756410" lon="-4.4569850">
        <ele>751.4</ele>
        <time>2019-08-13T12:34:32Z</time>
      </trkpt>
      <trkpt lat="40.2756560" lon="-4.4569510">
        <ele>751.2</ele>
        <time>2019-08-13T12:34:33Z</time>
      </trkpt>
      <trkpt lat="40.2756650" lon="-4.4569170">
        <ele>751.0</ele>
        <time>2019-08-13T12:34:34Z</time>
      </trkpt>
      <trkpt lat="40.2756720" lon="-4.4568730">
        <ele>750.7</ele>
        <time>2019-08-13T12:34:35Z</time>
      </trkpt>
      <trkpt lat="40.2756800" lon="-4.4568160">
        <ele>750.4</ele>
        <time>2019-08-13T12:34:36Z</time>
      </trkpt>
      <trkpt lat="40.2756940" lon="-4.4567520">
        <ele>750.0</ele>
        <time>2019-08-13T12:34:37Z</time>
      </trkpt>
      <trkpt lat="40.2757100" lon="-4.4566870">
        <ele>749.6</ele>
        <time>2019-08-13T12:34:38Z</time>
      </trkpt>
      <trkpt lat="40.2757270" lon="-4.4566240">
        <ele>749.2</ele>
        <time>2019-08-13T12:34:39Z</time>
      </trkpt>
      <trkpt lat="40.2757470" lon="-4.4565670">
        <ele>748.8</ele>
        <time>2019-08-13T12:34:40Z</time>
      </trkpt>
      <trkpt lat="40.2757710" lon="-4.4565170">
        <ele>748.5</ele>
        <time>2019-08-13T12:34:41Z</time>
      </trkpt>
      <trkpt lat="40.2757990" lon="-4.4564740">
        <ele>748.2</ele>
        <time>2019-08-13T12:34:42Z</time>
      </trkpt>
      <trkpt lat="40.2758350" lon="-4.4564330">
        <ele>747.8</ele>
        <time>2019-08-13T12:34:43Z</time>
      </trkpt>
      <trkpt lat="40.2758740" lon="-4.4563920">
        <ele>747.5</ele>
        <time>2019-08-13T12:34:44Z</time>
      </trkpt>
      <trkpt lat="40.2759160" lon="-4.4563470">
        <ele>747.1</ele>
        <time>2019-08-13T12:34:45Z</time>
      </trkpt>
      <trkpt lat="40.2759580" lon="-4.4562980">
        <ele>746.7</ele>
        <time>2019-08-13T12:34:46Z</time>
      </trkpt>
      <trkpt lat="40.2760010" lon="-4.4562470">
        <ele>746.3</ele>
        <time>2019-08-13T12:34:47Z</time>
      </trkpt>
      <trkpt lat="40.2760440" lon="-4.4561970">
        <ele>746.0</ele>
        <time>2019-08-13T12:34:48Z</time>
      </trkpt>
      <trkpt lat="40.2760860" lon="-4.4561550">
        <ele>745.7</ele>
        <time>2019-08-13T12:34:49Z</time>
      </trkpt>
      <trkpt lat="40.2761320" lon="-4.4561190">
        <ele>745.5</ele>
        <time>2019-08-13T12:34:50Z</time>
      </trkpt>
      <trkpt lat="40.2761820" lon="-4.4560890">
        <ele>745.2</ele>
        <time>2019-08-13T12:34:51Z</time>
      </trkpt>
      <trkpt lat="40.2762320" lon="-4.4560670">
        <ele>744.8</ele>
        <time>2019-08-13T12:34:52Z</time>
      </trkpt>
      <trkpt lat="40.2762820" lon="-4.4560510">
        <ele>744.4</ele>
        <time>2019-08-13T12:34:53Z</time>
      </trkpt>
      <trkpt lat="40.2763340" lon="-4.4560370">
        <ele>744.2</ele>
        <time>2019-08-13T12:34:54Z</time>
      </trkpt>
      <trkpt lat="40.2763900" lon="-4.4560240">
        <ele>743.9</ele>
        <time>2019-08-13T12:34:55Z</time>
      </trkpt>
      <trkpt lat="40.2764490" lon="-4.4560120">
        <ele>743.5</ele>
        <time>2019-08-13T12:34:56Z</time>
      </trkpt>
      <trkpt lat="40.2765090" lon="-4.4560020">
        <ele>743.2</ele>
        <time>2019-08-13T12:34:57Z</time>
      </trkpt>
      <trkpt lat="40.2765640" lon="-4.4559950">
        <ele>742.8</ele>
        <time>2019-08-13T12:34:58Z</time>
      </trkpt>
      <trkpt lat="40.2766160" lon="-4.4559850">
        <ele>742.5</ele>
        <time>2019-08-13T12:34:59Z</time>
      </trkpt>
      <trkpt lat="40.2766670" lon="-4.4559750">
        <ele>742.1</ele>
        <time>2019-08-13T12:35:00Z</time>
      </trkpt>
      <trkpt lat="40.2767180" lon="-4.4559580">
        <ele>741.8</ele>
        <time>2019-08-13T12:35:01Z</time>
      </trkpt>
      <trkpt lat="40.2767760" lon="-4.4559350">
        <ele>741.3</ele>
        <time>2019-08-13T12:35:02Z</time>
      </trkpt>
      <trkpt lat="40.2768420" lon="-4.4559100">
        <ele>740.8</ele>
        <time>2019-08-13T12:35:03Z</time>
      </trkpt>
      <trkpt lat="40.2769140" lon="-4.4558870">
        <ele>740.3</ele>
        <time>2019-08-13T12:35:04Z</time>
      </trkpt>
      <trkpt lat="40.2769900" lon="-4.4558680">
        <ele>739.8</ele>
        <time>2019-08-13T12:35:05Z</time>
      </trkpt>
      <trkpt lat="40.2770700" lon="-4.4558510">
        <ele>739.3</ele>
        <time>2019-08-13T12:35:06Z</time>
      </trkpt>
      <trkpt lat="40.2771490" lon="-4.4558350">
        <ele>738.7</ele>
        <time>2019-08-13T12:35:07Z</time>
      </trkpt>
      <trkpt lat="40.2772250" lon="-4.4558180">
        <ele>738.1</ele>
        <time>2019-08-13T12:35:08Z</time>
      </trkpt>
      <trkpt lat="40.2773000" lon="-4.4557990">
        <ele>737.4</ele>
        <time>2019-08-13T12:35:09Z</time>
      </trkpt>
      <trkpt lat="40.2773690" lon="-4.4557800">
        <ele>736.8</ele>
        <time>2019-08-13T12:35:10Z</time>
      </trkpt>
      <trkpt lat="40.2774370" lon="-4.4557640">
        <ele>736.3</ele>
        <time>2019-08-13T12:35:11Z</time>
      </trkpt>
      <trkpt lat="40.2775040" lon="-4.4557560">
        <ele>735.7</ele>
        <time>2019-08-13T12:35:12Z</time>
      </trkpt>
      <trkpt lat="40.2775720" lon="-4.4557490">
        <ele>735.3</ele>
        <time>2019-08-13T12:35:13Z</time>
      </trkpt>
      <trkpt lat="40.2776370" lon="-4.4557350">
        <ele>734.9</ele>
        <time>2019-08-13T12:35:14Z</time>
      </trkpt>
      <trkpt lat="40.2777010" lon="-4.4557090">
        <ele>734.5</ele>
        <time>2019-08-13T12:35:15Z</time>
      </trkpt>
      <trkpt lat="40.2777610" lon="-4.4556700">
        <ele>734.2</ele>
        <time>2019-08-13T12:35:16Z</time>
      </trkpt>
      <trkpt lat="40.2778170" lon="-4.4556160">
        <ele>733.9</ele>
        <time>2019-08-13T12:35:17Z</time>
      </trkpt>
      <trkpt lat="40.2778720" lon="-4.4555600">
        <ele>733.5</ele>
        <time>2019-08-13T12:35:18Z</time>
      </trkpt>
      <trkpt lat="40.2779250" lon="-4.4555050">
        <ele>733.2</ele>
        <time>2019-08-13T12:35:19Z</time>
      </trkpt>
      <trkpt lat="40.2779780" lon="-4.4554540">
        <ele>732.9</ele>
        <time>2019-08-13T12:35:20Z</time>
      </trkpt>
      <trkpt lat="40.2780290" lon="-4.4554040">
        <ele>732.7</ele>
        <time>2019-08-13T12:35:21Z</time>
      </trkpt>
      <trkpt lat="40.2780750" lon="-4.4553530">
        <ele>732.4</ele>
        <time>2019-08-13T12:35:22Z</time>
      </trkpt>
      <trkpt lat="40.2781210" lon="-4.4553000">
        <ele>732.2</ele>
        <time>2019-08-13T12:35:23Z</time>
      </trkpt>
      <trkpt lat="40.2781730" lon="-4.4552540">
        <ele>731.9</ele>
        <time>2019-08-13T12:35:24Z</time>
      </trkpt>
      <trkpt lat="40.2782260" lon="-4.4552160">
        <ele>731.6</ele>
        <time>2019-08-13T12:35:25Z</time>
      </trkpt>
      <trkpt lat="40.2782770" lon="-4.4551800">
        <ele>731.3</ele>
        <time>2019-08-13T12:35:26Z</time>
      </trkpt>
      <trkpt lat="40.2783260" lon="-4.4551420">
        <ele>731.0</ele>
        <time>2019-08-13T12:35:27Z</time>
      </trkpt>
      <trkpt lat="40.2783700" lon="-4.4551010">
        <ele>730.8</ele>
        <time>2019-08-13T12:35:28Z</time>
      </trkpt>
      <trkpt lat="40.2784070" lon="-4.4550580">
        <ele>730.5</ele>
        <time>2019-08-13T12:35:29Z</time>
      </trkpt>
      <trkpt lat="40.2784440" lon="-4.4550200">
        <ele>730.3</ele>
        <time>2019-08-13T12:35:30Z</time>
      </trkpt>
      <trkpt lat="40.2784790" lon="-4.4549940">
        <ele>730.1</ele>
        <time>2019-08-13T12:35:31Z</time>
      </trkpt>
      <trkpt lat="40.2785170" lon="-4.4549850">
        <ele>730.0</ele>
        <time>2019-08-13T12:35:32Z</time>
      </trkpt>
      <trkpt lat="40.2785630" lon="-4.4549930">
        <ele>729.8</ele>
        <time>2019-08-13T12:35:33Z</time>
      </trkpt>
      <trkpt lat="40.2786090" lon="-4.4550100">
        <ele>729.6</ele>
        <time>2019-08-13T12:35:34Z</time>
      </trkpt>
      <trkpt lat="40.2786550" lon="-4.4550220">
        <ele>729.5</ele>
        <time>2019-08-13T12:35:35Z</time>
      </trkpt>
      <trkpt lat="40.2786970" lon="-4.4550140">
        <ele>729.3</ele>
        <time>2019-08-13T12:35:36Z</time>
      </trkpt>
      <trkpt lat="40.2787330" lon="-4.4549880">
        <ele>729.1</ele>
        <time>2019-08-13T12:35:37Z</time>
      </trkpt>
      <trkpt lat="40.2787670" lon="-4.4549590">
        <ele>728.9</ele>
        <time>2019-08-13T12:35:38Z</time>
      </trkpt>
      <trkpt lat="40.2788010" lon="-4.4549340">
        <ele>728.7</ele>
        <time>2019-08-13T12:35:39Z</time>
      </trkpt>
      <trkpt lat="40.2788380" lon="-4.4549180">
        <ele>728.5</ele>
        <time>2019-08-13T12:35:40Z</time>
      </trkpt>
      <trkpt lat="40.2788750" lon="-4.4549070">
        <ele>728.3</ele>
        <time>2019-08-13T12:35:41Z</time>
      </trkpt>
      <trkpt lat="40.2789070" lon="-4.4549040">
        <ele>728.2</ele>
        <time>2019-08-13T12:35:42Z</time>
      </trkpt>
      <trkpt lat="40.2789350" lon="-4.4549000">
        <ele>728.1</ele>
        <time>2019-08-13T12:35:43Z</time>
      </trkpt>
      <trkpt lat="40.2789850" lon="-4.4548840">
        <ele>727.9</ele>
        <time>2019-08-13T12:35:45Z</time>
      </trkpt>
      <trkpt lat="40.2790110" lon="-4.4548690">
        <ele>727.8</ele>
        <time>2019-08-13T12:35:46Z</time>
      </trkpt>
      <trkpt lat="40.2790390" lon="-4.4548490">
        <ele>727.8</ele>
        <time>2019-08-13T12:35:47Z</time>
      </trkpt>
      <trkpt lat="40.2790680" lon="-4.4548270">
        <ele>727.7</ele>
        <time>2019-08-13T12:35:48Z</time>
      </trkpt>
      <trkpt lat="40.2790980" lon="-4.4548050">
        <ele>727.5</ele>
        <time>2019-08-13T12:35:49Z</time>
      </trkpt>
      <trkpt lat="40.2791280" lon="-4.4547840">
        <ele>727.4</ele>
        <time>2019-08-13T12:35:50Z</time>
      </trkpt>
      <trkpt lat="40.2791560" lon="-4.4547650">
        <ele>727.3</ele>
        <time>2019-08-13T12:35:51Z</time>
      </trkpt>
      <trkpt lat="40.2791840" lon="-4.4547490">
        <ele>727.2</ele>
        <time>2019-08-13T12:35:52Z</time>
      </trkpt>
      <trkpt lat="40.2792110" lon="-4.4547320">
        <ele>727.1</ele>
        <time>2019-08-13T12:35:53Z</time>
      </trkpt>
      <trkpt lat="40.2792360" lon="-4.4547160">
        <ele>727.0</ele>
        <time>2019-08-13T12:35:54Z</time>
      </trkpt>
      <trkpt lat="40.2792630" lon="-4.4547060">
        <ele>727.0</ele>
        <time>2019-08-13T12:35:56Z</time>
      </trkpt>
      <trkpt lat="40.2793200" lon="-4.4546840">
        <ele>726.8</ele>
        <time>2019-08-13T12:36:38Z</time>
      </trkpt>
      <trkpt lat="40.2793480" lon="-4.4546610">
        <ele>726.7</ele>
        <time>2019-08-13T12:36:39Z</time>
      </trkpt>
      <trkpt lat="40.2793790" lon="-4.4546340">
        <ele>726.6</ele>
        <time>2019-08-13T12:36:40Z</time>
      </trkpt>
      <trkpt lat="40.2794110" lon="-4.4546060">
        <ele>726.4</ele>
        <time>2019-08-13T12:36:41Z</time>
      </trkpt>
      <trkpt lat="40.2794480" lon="-4.4545780">
        <ele>726.2</ele>
        <time>2019-08-13T12:36:42Z</time>
      </trkpt>
      <trkpt lat="40.2794850" lon="-4.4545520">
        <ele>726.0</ele>
        <time>2019-08-13T12:36:43Z</time>
      </trkpt>
      <trkpt lat="40.2795260" lon="-4.4545300">
        <ele>725.8</ele>
        <time>2019-08-13T12:36:44Z</time>
      </trkpt>
      <trkpt lat="40.2795690" lon="-4.4545150">
        <ele>725.5</ele>
        <time>2019-08-13T12:36:45Z</time>
      </trkpt>
      <trkpt lat="40.2796140" lon="-4.4545040">
        <ele>725.2</ele>
        <time>2019-08-13T12:36:46Z</time>
      </trkpt>
      <trkpt lat="40.2796610" lon="-4.4545000">
        <ele>724.8</ele>
        <time>2019-08-13T12:36:47Z</time>
      </trkpt>
      <trkpt lat="40.2797080" lon="-4.4544990">
        <ele>724.5</ele>
        <time>2019-08-13T12:36:48Z</time>
      </trkpt>
      <trkpt lat="40.2797540" lon="-4.4545000">
        <ele>724.2</ele>
        <time>2019-08-13T12:36:49Z</time>
      </trkpt>
      <trkpt lat="40.2798020" lon="-4.4545030">
        <ele>724.0</ele>
        <time>2019-08-13T12:36:50Z</time>
      </trkpt>
      <trkpt lat="40.2798510" lon="-4.4545060">
        <ele>723.7</ele>
        <time>2019-08-13T12:36:51Z</time>
      </trkpt>
      <trkpt lat="40.2798960" lon="-4.4545070">
        <ele>723.5</ele>
        <time>2019-08-13T12:36:52Z</time>
      </trkpt>
      <trkpt lat="40.2799390" lon="-4.4545110">
        <ele>723.4</ele>
        <time>2019-08-13T12:36:53Z</time>
      </trkpt>
      <trkpt lat="40.2799820" lon="-4.4545130">
        <ele>723.2</ele>
        <time>2019-08-13T12:36:54Z</time>
      </trkpt>
      <trkpt lat="40.2800230" lon="-4.4545150">
        <ele>723.1</ele>
        <time>2019-08-13T12:36:55Z</time>
      </trkpt>
      <trkpt lat="40.2800630" lon="-4.4545170">
        <ele>722.9</ele>
        <time>2019-08-13T12:36:56Z</time>
      </trkpt>
      <trkpt lat="40.2801010" lon="-4.4545190">
        <ele>722.8</ele>
        <time>2019-08-13T12:36:57Z</time>
      </trkpt>
      <trkpt lat="40.2801350" lon="-4.4545180">
        <ele>722.7</ele>
        <time>2019-08-13T12:36:58Z</time>
      </trkpt>
      <trkpt lat="40.2801660" lon="-4.4545140">
        <ele>722.6</ele>
        <time>2019-08-13T12:36:59Z</time>
      </trkpt>
      <trkpt lat="40.2801950" lon="-4.4545070">
        <ele>722.6</ele>
        <time>2019-08-13T12:37:00Z</time>
      </trkpt>
      <trkpt lat="40.2802240" lon="-4.4544950">
        <ele>722.5</ele>
        <time>2019-08-13T12:37:01Z</time>
      </trkpt>
      <trkpt lat="40.2802520" lon="-4.4544800">
        <ele>722.4</ele>
        <time>2019-08-13T12:37:02Z</time>
      </trkpt>
      <trkpt lat="40.2802790" lon="-4.4544650">
        <ele>722.4</ele>
        <time>2019-08-13T12:37:03Z</time>
      </trkpt>
      <trkpt lat="40.2803040" lon="-4.4544480">
        <ele>722.5</ele>
        <time>2019-08-13T12:37:04Z</time>
      </trkpt>
      <trkpt lat="40.2803290" lon="-4.4544280">
        <ele>722.5</ele>
        <time>2019-08-13T12:37:05Z</time>
      </trkpt>
      <trkpt lat="40.2803530" lon="-4.4544080">
        <ele>722.5</ele>
        <time>2019-08-13T12:37:06Z</time>
      </trkpt>
      <trkpt lat="40.2803760" lon="-4.4543890">
        <ele>722.5</ele>
        <time>2019-08-13T12:37:07Z</time>
      </trkpt>
      <trkpt lat="40.2803990" lon="-4.4543700">
        <ele>722.6</ele>
        <time>2019-08-13T12:37:08Z</time>
      </trkpt>
      <trkpt lat="40.2804220" lon="-4.4543510">
        <ele>722.6</ele>
        <time>2019-08-13T12:37:09Z</time>
      </trkpt>
      <trkpt lat="40.2804670" lon="-4.4543130">
        <ele>722.7</ele>
        <time>2019-08-13T12:37:11Z</time>
      </trkpt>
      <trkpt lat="40.2804900" lon="-4.4542930">
        <ele>722.8</ele>
        <time>2019-08-13T12:37:12Z</time>
      </trkpt>
      <trkpt lat="40.2805130" lon="-4.4542740">
        <ele>722.8</ele>
        <time>2019-08-13T12:37:13Z</time>
      </trkpt>
      <trkpt lat="40.2805370" lon="-4.4542560">
        <ele>722.9</ele>
        <time>2019-08-13T12:37:14Z</time>
      </trkpt>
      <trkpt lat="40.2805790" lon="-4.4542140">
        <ele>723.0</ele>
        <time>2019-08-13T12:37:16Z</time>
      </trkpt>
      <trkpt lat="40.2805960" lon="-4.4541870">
        <ele>723.0</ele>
        <time>2019-08-13T12:37:17Z</time>
      </trkpt>
      <trkpt lat="40.2806180" lon="-4.4541240">
        <ele>723.1</ele>
        <time>2019-08-13T12:37:19Z</time>
      </trkpt>
      <trkpt lat="40.2806240" lon="-4.4540890">
        <ele>723.2</ele>
        <time>2019-08-13T12:37:20Z</time>
      </trkpt>
      <trkpt lat="40.2806310" lon="-4.4540550">
        <ele>723.2</ele>
        <time>2019-08-13T12:37:21Z</time>
      </trkpt>
      <trkpt lat="40.2806450" lon="-4.4539820">
        <ele>723.1</ele>
        <time>2019-08-13T12:37:23Z</time>
      </trkpt>
      <trkpt lat="40.2806550" lon="-4.4539420">
        <ele>723.1</ele>
        <time>2019-08-13T12:37:24Z</time>
      </trkpt>
      <trkpt lat="40.2806670" lon="-4.4538980">
        <ele>723.1</ele>
        <time>2019-08-13T12:37:25Z</time>
      </trkpt>
      <trkpt lat="40.2806810" lon="-4.4538490">
        <ele>723.0</ele>
        <time>2019-08-13T12:37:26Z</time>
      </trkpt>
      <trkpt lat="40.2807010" lon="-4.4537960">
        <ele>722.8</ele>
        <time>2019-08-13T12:37:27Z</time>
      </trkpt>
      <trkpt lat="40.2807280" lon="-4.4537430">
        <ele>722.7</ele>
        <time>2019-08-13T12:37:28Z</time>
      </trkpt>
      <trkpt lat="40.2807600" lon="-4.4536900">
        <ele>722.5</ele>
        <time>2019-08-13T12:37:29Z</time>
      </trkpt>
      <trkpt lat="40.2808030" lon="-4.4536390">
        <ele>722.3</ele>
        <time>2019-08-13T12:37:30Z</time>
      </trkpt>
      <trkpt lat="40.2808520" lon="-4.4535940">
        <ele>722.1</ele>
        <time>2019-08-13T12:37:31Z</time>
      </trkpt>
      <trkpt lat="40.2809040" lon="-4.4535560">
        <ele>721.9</ele>
        <time>2019-08-13T12:37:32Z</time>
      </trkpt>
      <trkpt lat="40.2809580" lon="-4.4535260">
        <ele>721.5</ele>
        <time>2019-08-13T12:37:33Z</time>
      </trkpt>
      <trkpt lat="40.2810140" lon="-4.4535030">
        <ele>721.2</ele>
        <time>2019-08-13T12:37:34Z</time>
      </trkpt>
      <trkpt lat="40.2810700" lon="-4.4534860">
        <ele>721.0</ele>
        <time>2019-08-13T12:37:35Z</time>
      </trkpt>
      <trkpt lat="40.2811220" lon="-4.4534690">
        <ele>720.8</ele>
        <time>2019-08-13T12:37:36Z</time>
      </trkpt>
      <trkpt lat="40.2811690" lon="-4.4534510">
        <ele>720.7</ele>
        <time>2019-08-13T12:37:37Z</time>
      </trkpt>
      <trkpt lat="40.2812120" lon="-4.4534330">
        <ele>720.7</ele>
        <time>2019-08-13T12:37:38Z</time>
      </trkpt>
      <trkpt lat="40.2812470" lon="-4.4534170">
        <ele>720.7</ele>
        <time>2019-08-13T12:37:39Z</time>
      </trkpt>
      <trkpt lat="40.2812770" lon="-4.4534040">
        <ele>720.7</ele>
        <time>2019-08-13T12:37:40Z</time>
      </trkpt>
      <trkpt lat="40.2813020" lon="-4.4533890">
        <ele>720.7</ele>
        <time>2019-08-13T12:37:41Z</time>
      </trkpt>
      <trkpt lat="40.2813490" lon="-4.4533580">
        <ele>720.8</ele>
        <time>2019-08-13T12:37:43Z</time>
      </trkpt>
      <trkpt lat="40.2813930" lon="-4.4533260">
        <ele>720.9</ele>
        <time>2019-08-13T12:37:45Z</time>
      </trkpt>
      <trkpt lat="40.2814390" lon="-4.4532990">
        <ele>721.0</ele>
        <time>2019-08-13T12:37:47Z</time>
      </trkpt>
      <trkpt lat="40.2814820" lon="-4.4532780">
        <ele>721.1</ele>
        <time>2019-08-13T12:37:49Z</time>
      </trkpt>
      <trkpt lat="40.2815230" lon="-4.4532650">
        <ele>721.2</ele>
        <time>2019-08-13T12:37:51Z</time>
      </trkpt>
      <trkpt lat="40.2815640" lon="-4.4532580">
        <ele>721.3</ele>
        <time>2019-08-13T12:37:53Z</time>
      </trkpt>
      <trkpt lat="40.2816080" lon="-4.4532630">
        <ele>721.4</ele>
        <time>2019-08-13T12:37:55Z</time>
      </trkpt>
      <trkpt lat="40.2816530" lon="-4.4532760">
        <ele>721.5</ele>
        <time>2019-08-13T12:37:57Z</time>
      </trkpt>
      <trkpt lat="40.2816960" lon="-4.4532890">
        <ele>721.7</ele>
        <time>2019-08-13T12:37:59Z</time>
      </trkpt>
      <trkpt lat="40.2817400" lon="-4.4533050">
        <ele>721.8</ele>
        <time>2019-08-13T12:38:01Z</time>
      </trkpt>
      <trkpt lat="40.2817870" lon="-4.4533220">
        <ele>721.9</ele>
        <time>2019-08-13T12:38:03Z</time>
      </trkpt>
      <trkpt lat="40.2818370" lon="-4.4533320">
        <ele>722.0</ele>
        <time>2019-08-13T12:38:05Z</time>
      </trkpt>
      <trkpt lat="40.2818860" lon="-4.4533330">
        <ele>722.1</ele>
        <time>2019-08-13T12:38:07Z</time>
      </trkpt>
      <trkpt lat="40.2819380" lon="-4.4533370">
        <ele>722.2</ele>
        <time>2019-08-13T12:38:09Z</time>
      </trkpt>
      <trkpt lat="40.2819650" lon="-4.4533400">
        <ele>722.3</ele>
        <time>2019-08-13T12:38:10Z</time>
      </trkpt>
      <trkpt lat="40.2820180" lon="-4.4533470">
        <ele>722.4</ele>
        <time>2019-08-13T12:38:12Z</time>
      </trkpt>
      <trkpt lat="40.2820690" lon="-4.4533550">
        <ele>722.5</ele>
        <time>2019-08-13T12:38:14Z</time>
      </trkpt>
      <trkpt lat="40.2821220" lon="-4.4533640">
        <ele>722.7</ele>
        <time>2019-08-13T12:38:16Z</time>
      </trkpt>
      <trkpt lat="40.2821750" lon="-4.4533680">
        <ele>722.8</ele>
        <time>2019-08-13T12:38:18Z</time>
      </trkpt>
      <trkpt lat="40.2822270" lon="-4.4533680">
        <ele>722.9</ele>
        <time>2019-08-13T12:38:20Z</time>
      </trkpt>
      <trkpt lat="40.2822760" lon="-4.4533740">
        <ele>723.0</ele>
        <time>2019-08-13T12:38:22Z</time>
      </trkpt>
      <trkpt lat="40.2823210" lon="-4.4533810">
        <ele>723.1</ele>
        <time>2019-08-13T12:38:24Z</time>
      </trkpt>
      <trkpt lat="40.2823680" lon="-4.4533860">
        <ele>723.1</ele>
        <time>2019-08-13T12:38:26Z</time>
      </trkpt>
      <trkpt lat="40.2824160" lon="-4.4533760">
        <ele>723.1</ele>
        <time>2019-08-13T12:38:28Z</time>
      </trkpt>
      <trkpt lat="40.2824610" lon="-4.4533510">
        <ele>723.1</ele>
        <time>2019-08-13T12:38:30Z</time>
      </trkpt>
      <trkpt lat="40.2825030" lon="-4.4533050">
        <ele>723.0</ele>
        <time>2019-08-13T12:38:32Z</time>
      </trkpt>
      <trkpt lat="40.2825220" lon="-4.4532740">
        <ele>723.0</ele>
        <time>2019-08-13T12:38:33Z</time>
      </trkpt>
      <trkpt lat="40.2825370" lon="-4.4532360">
        <ele>722.9</ele>
        <time>2019-08-13T12:38:34Z</time>
      </trkpt>
      <trkpt lat="40.2825500" lon="-4.4531940">
        <ele>722.8</ele>
        <time>2019-08-13T12:38:35Z</time>
      </trkpt>
      <trkpt lat="40.2825620" lon="-4.4531510">
        <ele>722.7</ele>
        <time>2019-08-13T12:38:36Z</time>
      </trkpt>
      <trkpt lat="40.2825740" lon="-4.4531110">
        <ele>722.6</ele>
        <time>2019-08-13T12:38:37Z</time>
      </trkpt>
      <trkpt lat="40.2825840" lon="-4.4530710">
        <ele>722.5</ele>
        <time>2019-08-13T12:38:38Z</time>
      </trkpt>
      <trkpt lat="40.2825980" lon="-4.4530280">
        <ele>722.4</ele>
        <time>2019-08-13T12:38:39Z</time>
      </trkpt>
      <trkpt lat="40.2826200" lon="-4.4529810">
        <ele>722.2</ele>
        <time>2019-08-13T12:38:40Z</time>
      </trkpt>
      <trkpt lat="40.2826510" lon="-4.4529340">
        <ele>721.9</ele>
        <time>2019-08-13T12:38:41Z</time>
      </trkpt>
      <trkpt lat="40.2826800" lon="-4.4528870">
        <ele>721.6</ele>
        <time>2019-08-13T12:38:42Z</time>
      </trkpt>
      <trkpt lat="40.2827060" lon="-4.4528400">
        <ele>721.5</ele>
        <time>2019-08-13T12:38:43Z</time>
      </trkpt>
      <trkpt lat="40.2827320" lon="-4.4528000">
        <ele>721.4</ele>
        <time>2019-08-13T12:38:44Z</time>
      </trkpt>
      <trkpt lat="40.2827580" lon="-4.4527680">
        <ele>721.4</ele>
        <time>2019-08-13T12:38:45Z</time>
      </trkpt>
      <trkpt lat="40.2827830" lon="-4.4527460">
        <ele>721.3</ele>
        <time>2019-08-13T12:38:46Z</time>
      </trkpt>
      <trkpt lat="40.2828230" lon="-4.4527150">
        <ele>721.3</ele>
        <time>2019-08-13T12:38:48Z</time>
      </trkpt>
      <trkpt lat="40.2828560" lon="-4.4526890">
        <ele>721.4</ele>
        <time>2019-08-13T12:38:50Z</time>
      </trkpt>
      <trkpt lat="40.2828860" lon="-4.4526650">
        <ele>721.4</ele>
        <time>2019-08-13T12:38:52Z</time>
      </trkpt>
      <trkpt lat="40.2829150" lon="-4.4526410">
        <ele>721.5</ele>
        <time>2019-08-13T12:38:54Z</time>
      </trkpt>
      <trkpt lat="40.2829440" lon="-4.4526170">
        <ele>721.5</ele>
        <time>2019-08-13T12:38:56Z</time>
      </trkpt>
      <trkpt lat="40.2829760" lon="-4.4525900">
        <ele>721.8</ele>
        <time>2019-08-13T12:38:58Z</time>
      </trkpt>
      <trkpt lat="40.2830060" lon="-4.4525610">
        <ele>722.0</ele>
        <time>2019-08-13T12:39:00Z</time>
      </trkpt>
      <trkpt lat="40.2830340" lon="-4.4525300">
        <ele>722.3</ele>
        <time>2019-08-13T12:39:02Z</time>
      </trkpt>
      <trkpt lat="40.2830630" lon="-4.4524980">
        <ele>722.7</ele>
        <time>2019-08-13T12:39:04Z</time>
      </trkpt>
      <trkpt lat="40.2830950" lon="-4.4524680">
        <ele>723.0</ele>
        <time>2019-08-13T12:39:06Z</time>
      </trkpt>
      <trkpt lat="40.2831240" lon="-4.4524310">
        <ele>723.3</ele>
        <time>2019-08-13T12:39:08Z</time>
      </trkpt>
      <trkpt lat="40.2831470" lon="-4.4523900">
        <ele>723.6</ele>
        <time>2019-08-13T12:39:10Z</time>
      </trkpt>
      <trkpt lat="40.2831700" lon="-4.4523450">
        <ele>723.9</ele>
        <time>2019-08-13T12:39:12Z</time>
      </trkpt>
      <trkpt lat="40.2831930" lon="-4.4523030">
        <ele>724.1</ele>
        <time>2019-08-13T12:39:14Z</time>
      </trkpt>
      <trkpt lat="40.2832200" lon="-4.4522650">
        <ele>724.2</ele>
        <time>2019-08-13T12:39:16Z</time>
      </trkpt>
      <trkpt lat="40.2832560" lon="-4.4522340">
        <ele>724.3</ele>
        <time>2019-08-13T12:39:18Z</time>
      </trkpt>
      <trkpt lat="40.2833060" lon="-4.4522030">
        <ele>724.5</ele>
        <time>2019-08-13T12:39:20Z</time>
      </trkpt>
      <trkpt lat="40.2833360" lon="-4.4521860">
        <ele>724.5</ele>
        <time>2019-08-13T12:39:21Z</time>
      </trkpt>
      <trkpt lat="40.2833710" lon="-4.4521710">
        <ele>724.6</ele>
        <time>2019-08-13T12:39:22Z</time>
      </trkpt>
      <trkpt lat="40.2834100" lon="-4.4521590">
        <ele>724.6</ele>
        <time>2019-08-13T12:39:23Z</time>
      </trkpt>
      <trkpt lat="40.2834500" lon="-4.4521500">
        <ele>724.6</ele>
        <time>2019-08-13T12:39:24Z</time>
      </trkpt>
      <trkpt lat="40.2834900" lon="-4.4521440">
        <ele>724.7</ele>
        <time>2019-08-13T12:39:25Z</time>
      </trkpt>
      <trkpt lat="40.2835280" lon="-4.4521380">
        <ele>724.7</ele>
        <time>2019-08-13T12:39:26Z</time>
      </trkpt>
      <trkpt lat="40.2835620" lon="-4.4521260">
        <ele>724.7</ele>
        <time>2019-08-13T12:39:27Z</time>
      </trkpt>
      <trkpt lat="40.2835940" lon="-4.4521090">
        <ele>724.8</ele>
        <time>2019-08-13T12:39:28Z</time>
      </trkpt>
      <trkpt lat="40.2836220" lon="-4.4520880">
        <ele>724.8</ele>
        <time>2019-08-13T12:39:29Z</time>
      </trkpt>
      <trkpt lat="40.2836480" lon="-4.4520670">
        <ele>724.8</ele>
        <time>2019-08-13T12:39:30Z</time>
      </trkpt>
      <trkpt lat="40.2836720" lon="-4.4520450">
        <ele>724.9</ele>
        <time>2019-08-13T12:39:31Z</time>
      </trkpt>
      <trkpt lat="40.2836950" lon="-4.4520250">
        <ele>724.9</ele>
        <time>2019-08-13T12:39:32Z</time>
      </trkpt>
      <trkpt lat="40.2837180" lon="-4.4520050">
        <ele>725.0</ele>
        <time>2019-08-13T12:39:33Z</time>
      </trkpt>
      <trkpt lat="40.2837410" lon="-4.4519830">
        <ele>725.0</ele>
        <time>2019-08-13T12:39:34Z</time>
      </trkpt>
      <trkpt lat="40.2837640" lon="-4.4519630">
        <ele>725.1</ele>
        <time>2019-08-13T12:39:35Z</time>
      </trkpt>
      <trkpt lat="40.2838090" lon="-4.4519300">
        <ele>725.2</ele>
        <time>2019-08-13T12:39:37Z</time>
      </trkpt>
      <trkpt lat="40.2838520" lon="-4.4519100">
        <ele>725.3</ele>
        <time>2019-08-13T12:39:39Z</time>
      </trkpt>
      <trkpt lat="40.2838890" lon="-4.4518970">
        <ele>725.5</ele>
        <time>2019-08-13T12:39:41Z</time>
      </trkpt>
      <trkpt lat="40.2839260" lon="-4.4518880">
        <ele>725.7</ele>
        <time>2019-08-13T12:39:43Z</time>
      </trkpt>
      <trkpt lat="40.2839640" lon="-4.4518740">
        <ele>726.1</ele>
        <time>2019-08-13T12:39:45Z</time>
      </trkpt>
      <trkpt lat="40.2840000" lon="-4.4518580">
        <ele>726.4</ele>
        <time>2019-08-13T12:39:47Z</time>
      </trkpt>
      <trkpt lat="40.2840340" lon="-4.4518350">
        <ele>726.7</ele>
        <time>2019-08-13T12:39:49Z</time>
      </trkpt>
      <trkpt lat="40.2840670" lon="-4.4518130">
        <ele>727.1</ele>
        <time>2019-08-13T12:39:51Z</time>
      </trkpt>
      <trkpt lat="40.2840980" lon="-4.4517900">
        <ele>727.4</ele>
        <time>2019-08-13T12:39:53Z</time>
      </trkpt>
      <trkpt lat="40.2841270" lon="-4.4517660">
        <ele>727.9</ele>
        <time>2019-08-13T12:39:55Z</time>
      </trkpt>
      <trkpt lat="40.2841570" lon="-4.4517400">
        <ele>728.3</ele>
        <time>2019-08-13T12:39:57Z</time>
      </trkpt>
      <trkpt lat="40.2841850" lon="-4.4517090">
        <ele>728.7</ele>
        <time>2019-08-13T12:39:59Z</time>
      </trkpt>
      <trkpt lat="40.2842060" lon="-4.4516770">
        <ele>729.0</ele>
        <time>2019-08-13T12:40:01Z</time>
      </trkpt>
      <trkpt lat="40.2842250" lon="-4.4516400">
        <ele>729.3</ele>
        <time>2019-08-13T12:40:03Z</time>
      </trkpt>
      <trkpt lat="40.2842440" lon="-4.4516020">
        <ele>729.7</ele>
        <time>2019-08-13T12:40:05Z</time>
      </trkpt>
      <trkpt lat="40.2842590" lon="-4.4515630">
        <ele>730.1</ele>
        <time>2019-08-13T12:40:07Z</time>
      </trkpt>
      <trkpt lat="40.2842710" lon="-4.4515240">
        <ele>730.4</ele>
        <time>2019-08-13T12:40:09Z</time>
      </trkpt>
      <trkpt lat="40.2842830" lon="-4.4514830">
        <ele>730.9</ele>
        <time>2019-08-13T12:40:11Z</time>
      </trkpt>
      <trkpt lat="40.2842930" lon="-4.4514420">
        <ele>731.4</ele>
        <time>2019-08-13T12:40:13Z</time>
      </trkpt>
      <trkpt lat="40.2843080" lon="-4.4514040">
        <ele>731.7</ele>
        <time>2019-08-13T12:40:15Z</time>
      </trkpt>
      <trkpt lat="40.2843260" lon="-4.4513680">
        <ele>732.0</ele>
        <time>2019-08-13T12:40:17Z</time>
      </trkpt>
      <trkpt lat="40.2843440" lon="-4.4513320">
        <ele>732.3</ele>
        <time>2019-08-13T12:40:19Z</time>
      </trkpt>
      <trkpt lat="40.2843610" lon="-4.4512960">
        <ele>732.6</ele>
        <time>2019-08-13T12:40:21Z</time>
      </trkpt>
      <trkpt lat="40.2843790" lon="-4.4512590">
        <ele>732.8</ele>
        <time>2019-08-13T12:40:23Z</time>
      </trkpt>
      <trkpt lat="40.2843990" lon="-4.4512230">
        <ele>733.1</ele>
        <time>2019-08-13T12:40:25Z</time>
      </trkpt>
      <trkpt lat="40.2844160" lon="-4.4511880">
        <ele>733.4</ele>
        <time>2019-08-13T12:40:27Z</time>
      </trkpt>
      <trkpt lat="40.2844320" lon="-4.4511500">
        <ele>733.7</ele>
        <time>2019-08-13T12:40:29Z</time>
      </trkpt>
      <trkpt lat="40.2844490" lon="-4.4511110">
        <ele>734.2</ele>
        <time>2019-08-13T12:40:31Z</time>
      </trkpt>
      <trkpt lat="40.2844630" lon="-4.4510760">
        <ele>734.6</ele>
        <time>2019-08-13T12:40:33Z</time>
      </trkpt>
      <trkpt lat="40.2844790" lon="-4.4510430">
        <ele>735.0</ele>
        <time>2019-08-13T12:40:35Z</time>
      </trkpt>
      <trkpt lat="40.2844930" lon="-4.4510090">
        <ele>735.3</ele>
        <time>2019-08-13T12:40:37Z</time>
      </trkpt>
      <trkpt lat="40.2845070" lon="-4.4509760">
        <ele>735.7</ele>
        <time>2019-08-13T12:40:39Z</time>
      </trkpt>
      <trkpt lat="40.2845210" lon="-4.4509410">
        <ele>736.0</ele>
        <time>2019-08-13T12:40:41Z</time>
      </trkpt>
      <trkpt lat="40.2845400" lon="-4.4509070">
        <ele>736.5</ele>
        <time>2019-08-13T12:40:43Z</time>
      </trkpt>
      <trkpt lat="40.2845560" lon="-4.4508680">
        <ele>736.9</ele>
        <time>2019-08-13T12:40:45Z</time>
      </trkpt>
      <trkpt lat="40.2845740" lon="-4.4508310">
        <ele>737.4</ele>
        <time>2019-08-13T12:40:47Z</time>
      </trkpt>
      <trkpt lat="40.2845910" lon="-4.4507940">
        <ele>737.8</ele>
        <time>2019-08-13T12:40:49Z</time>
      </trkpt>
      <trkpt lat="40.2846070" lon="-4.4507560">
        <ele>738.2</ele>
        <time>2019-08-13T12:40:51Z</time>
      </trkpt>
      <trkpt lat="40.2846260" lon="-4.4507190">
        <ele>738.6</ele>
        <time>2019-08-13T12:40:53Z</time>
      </trkpt>
      <trkpt lat="40.2846470" lon="-4.4506810">
        <ele>739.3</ele>
        <time>2019-08-13T12:40:55Z</time>
      </trkpt>
      <trkpt lat="40.2846720" lon="-4.4506460">
        <ele>739.6</ele>
        <time>2019-08-13T12:40:57Z</time>
      </trkpt>
      <trkpt lat="40.2847060" lon="-4.4506190">
        <ele>740.0</ele>
        <time>2019-08-13T12:40:59Z</time>
      </trkpt>
      <trkpt lat="40.2847510" lon="-4.4506020">
        <ele>740.3</ele>
        <time>2019-08-13T12:41:01Z</time>
      </trkpt>
      <trkpt lat="40.2847990" lon="-4.4505980">
        <ele>740.7</ele>
        <time>2019-08-13T12:41:03Z</time>
      </trkpt>
      <trkpt lat="40.2848470" lon="-4.4506140">
        <ele>741.0</ele>
        <time>2019-08-13T12:41:05Z</time>
      </trkpt>
      <trkpt lat="40.2848960" lon="-4.4506390">
        <ele>741.4</ele>
        <time>2019-08-13T12:41:07Z</time>
      </trkpt>
      <trkpt lat="40.2849220" lon="-4.4506540">
        <ele>741.6</ele>
        <time>2019-08-13T12:41:08Z</time>
      </trkpt>
      <trkpt lat="40.2849490" lon="-4.4506700">
        <ele>741.8</ele>
        <time>2019-08-13T12:41:09Z</time>
      </trkpt>
      <trkpt lat="40.2849760" lon="-4.4506850">
        <ele>742.0</ele>
        <time>2019-08-13T12:41:10Z</time>
      </trkpt>
      <trkpt lat="40.2850030" lon="-4.4507000">
        <ele>742.2</ele>
        <time>2019-08-13T12:41:11Z</time>
      </trkpt>
      <trkpt lat="40.2850300" lon="-4.4507140">
        <ele>742.4</ele>
        <time>2019-08-13T12:41:12Z</time>
      </trkpt>
      <trkpt lat="40.2850590" lon="-4.4507290">
        <ele>742.7</ele>
        <time>2019-08-13T12:41:13Z</time>
      </trkpt>
      <trkpt lat="40.2850870" lon="-4.4507430">
        <ele>742.9</ele>
        <time>2019-08-13T12:41:14Z</time>
      </trkpt>
      <trkpt lat="40.2851120" lon="-4.4507550">
        <ele>743.1</ele>
        <time>2019-08-13T12:41:15Z</time>
      </trkpt>
      <trkpt lat="40.2851380" lon="-4.4507700">
        <ele>743.3</ele>
        <time>2019-08-13T12:41:16Z</time>
      </trkpt>
      <trkpt lat="40.2851660" lon="-4.4507870">
        <ele>743.6</ele>
        <time>2019-08-13T12:41:17Z</time>
      </trkpt>
      <trkpt lat="40.2851930" lon="-4.4508040">
        <ele>743.8</ele>
        <time>2019-08-13T12:41:18Z</time>
      </trkpt>
      <trkpt lat="40.2852210" lon="-4.4508210">
        <ele>744.1</ele>
        <time>2019-08-13T12:41:19Z</time>
      </trkpt>
      <trkpt lat="40.2852480" lon="-4.4508380">
        <ele>744.3</ele>
        <time>2019-08-13T12:41:20Z</time>
      </trkpt>
      <trkpt lat="40.2852740" lon="-4.4508560">
        <ele>744.5</ele>
        <time>2019-08-13T12:41:21Z</time>
      </trkpt>
      <trkpt lat="40.2852980" lon="-4.4508750">
        <ele>744.7</ele>
        <time>2019-08-13T12:41:22Z</time>
      </trkpt>
      <trkpt lat="40.2853230" lon="-4.4508960">
        <ele>745.0</ele>
        <time>2019-08-13T12:41:23Z</time>
      </trkpt>
      <trkpt lat="40.2853470" lon="-4.4509160">
        <ele>745.2</ele>
        <time>2019-08-13T12:41:24Z</time>
      </trkpt>
      <trkpt lat="40.2853690" lon="-4.4509370">
        <ele>745.4</ele>
        <time>2019-08-13T12:41:25Z</time>
      </trkpt>
      <trkpt lat="40.2854100" lon="-4.4509790">
        <ele>745.7</ele>
        <time>2019-08-13T12:41:27Z</time>
      </trkpt>
      <trkpt lat="40.2854470" lon="-4.4510160">
        <ele>746.0</ele>
        <time>2019-08-13T12:41:29Z</time>
      </trkpt>
      <trkpt lat="40.2854810" lon="-4.4510470">
        <ele>746.3</ele>
        <time>2019-08-13T12:41:31Z</time>
      </trkpt>
      <trkpt lat="40.2855130" lon="-4.4510720">
        <ele>746.5</ele>
        <time>2019-08-13T12:41:33Z</time>
      </trkpt>
      <trkpt lat="40.2855460" lon="-4.4510930">
        <ele>746.8</ele>
        <time>2019-08-13T12:41:35Z</time>
      </trkpt>
      <trkpt lat="40.2855810" lon="-4.4511130">
        <ele>747.0</ele>
        <time>2019-08-13T12:41:37Z</time>
      </trkpt>
      <trkpt lat="40.2856210" lon="-4.4511290">
        <ele>747.2</ele>
        <time>2019-08-13T12:41:39Z</time>
      </trkpt>
      <trkpt lat="40.2856650" lon="-4.4511400">
        <ele>747.5</ele>
        <time>2019-08-13T12:41:41Z</time>
      </trkpt>
      <trkpt lat="40.2857100" lon="-4.4511500">
        <ele>747.7</ele>
        <time>2019-08-13T12:41:43Z</time>
      </trkpt>
      <trkpt lat="40.2857560" lon="-4.4511630">
        <ele>748.0</ele>
        <time>2019-08-13T12:41:45Z</time>
      </trkpt>
      <trkpt lat="40.2858010" lon="-4.4511790">
        <ele>748.2</ele>
        <time>2019-08-13T12:41:47Z</time>
      </trkpt>
      <trkpt lat="40.2858450" lon="-4.4512000">
        <ele>748.5</ele>
        <time>2019-08-13T12:41:49Z</time>
      </trkpt>
      <trkpt lat="40.2858880" lon="-4.4512250">
        <ele>748.7</ele>
        <time>2019-08-13T12:41:51Z</time>
      </trkpt>
      <trkpt lat="40.2859310" lon="-4.4512500">
        <ele>748.9</ele>
        <time>2019-08-13T12:41:53Z</time>
      </trkpt>
      <trkpt lat="40.2859720" lon="-4.4512750">
        <ele>749.1</ele>
        <time>2019-08-13T12:41:55Z</time>
      </trkpt>
      <trkpt lat="40.2860140" lon="-4.4513030">
        <ele>749.3</ele>
        <time>2019-08-13T12:41:57Z</time>
      </trkpt>
      <trkpt lat="40.2860550" lon="-4.4513370">
        <ele>749.5</ele>
        <time>2019-08-13T12:41:59Z</time>
      </trkpt>
      <trkpt lat="40.2860950" lon="-4.4513720">
        <ele>749.7</ele>
        <time>2019-08-13T12:42:01Z</time>
      </trkpt>
      <trkpt lat="40.2861340" lon="-4.4514100">
        <ele>750.0</ele>
        <time>2019-08-13T12:42:03Z</time>
      </trkpt>
      <trkpt lat="40.2861730" lon="-4.4514460">
        <ele>750.2</ele>
        <time>2019-08-13T12:42:05Z</time>
      </trkpt>
      <trkpt lat="40.2862130" lon="-4.4514820">
        <ele>750.3</ele>
        <time>2019-08-13T12:42:07Z</time>
      </trkpt>
      <trkpt lat="40.2862500" lon="-4.4515190">
        <ele>750.5</ele>
        <time>2019-08-13T12:42:09Z</time>
      </trkpt>
      <trkpt lat="40.2862870" lon="-4.4515550">
        <ele>750.6</ele>
        <time>2019-08-13T12:42:11Z</time>
      </trkpt>
      <trkpt lat="40.2863210" lon="-4.4515850">
        <ele>750.7</ele>
        <time>2019-08-13T12:42:13Z</time>
      </trkpt>
      <trkpt lat="40.2863580" lon="-4.4516040">
        <ele>750.7</ele>
        <time>2019-08-13T12:42:15Z</time>
      </trkpt>
      <trkpt lat="40.2863910" lon="-4.4516120">
        <ele>750.7</ele>
        <time>2019-08-13T12:42:17Z</time>
      </trkpt>
      <trkpt lat="40.2864220" lon="-4.4516100">
        <ele>750.6</ele>
        <time>2019-08-13T12:42:19Z</time>
      </trkpt>
      <trkpt lat="40.2864520" lon="-4.4516030">
        <ele>750.6</ele>
        <time>2019-08-13T12:42:21Z</time>
      </trkpt>
      <trkpt lat="40.2864820" lon="-4.4515930">
        <ele>750.5</ele>
        <time>2019-08-13T12:42:23Z</time>
      </trkpt>
      <trkpt lat="40.2865120" lon="-4.4515750">
        <ele>750.4</ele>
        <time>2019-08-13T12:42:25Z</time>
      </trkpt>
      <trkpt lat="40.2865410" lon="-4.4515550">
        <ele>750.3</ele>
        <time>2019-08-13T12:42:27Z</time>
      </trkpt>
      <trkpt lat="40.2865690" lon="-4.4515350">
        <ele>750.2</ele>
        <time>2019-08-13T12:42:29Z</time>
      </trkpt>
      <trkpt lat="40.2865960" lon="-4.4515040">
        <ele>750.1</ele>
        <time>2019-08-13T12:42:31Z</time>
      </trkpt>
      <trkpt lat="40.2866180" lon="-4.4514610">
        <ele>749.9</ele>
        <time>2019-08-13T12:42:33Z</time>
      </trkpt>
      <trkpt lat="40.2866380" lon="-4.4513870">
        <ele>749.6</ele>
        <time>2019-08-13T12:42:35Z</time>
      </trkpt>
      <trkpt lat="40.2866510" lon="-4.4513360">
        <ele>749.3</ele>
        <time>2019-08-13T12:42:36Z</time>
      </trkpt>
      <trkpt lat="40.2866690" lon="-4.4512760">
        <ele>748.9</ele>
        <time>2019-08-13T12:42:37Z</time>
      </trkpt>
      <trkpt lat="40.2866910" lon="-4.4512120">
        <ele>748.5</ele>
        <time>2019-08-13T12:42:38Z</time>
      </trkpt>
      <trkpt lat="40.2867180" lon="-4.4511460">
        <ele>748.0</ele>
        <time>2019-08-13T12:42:39Z</time>
      </trkpt>
      <trkpt lat="40.2867500" lon="-4.4510860">
        <ele>747.7</ele>
        <time>2019-08-13T12:42:40Z</time>
      </trkpt>
      <trkpt lat="40.2867860" lon="-4.4510330">
        <ele>747.5</ele>
        <time>2019-08-13T12:42:41Z</time>
      </trkpt>
      <trkpt lat="40.2868300" lon="-4.4509910">
        <ele>747.4</ele>
        <time>2019-08-13T12:42:42Z</time>
      </trkpt>
      <trkpt lat="40.2868810" lon="-4.4509620">
        <ele>747.3</ele>
        <time>2019-08-13T12:42:43Z</time>
      </trkpt>
      <trkpt lat="40.2869360" lon="-4.4509420">
        <ele>747.2</ele>
        <time>2019-08-13T12:42:44Z</time>
      </trkpt>
      <trkpt lat="40.2869940" lon="-4.4509290">
        <ele>747.1</ele>
        <time>2019-08-13T12:42:45Z</time>
      </trkpt>
      <trkpt lat="40.2870520" lon="-4.4509220">
        <ele>747.0</ele>
        <time>2019-08-13T12:42:46Z</time>
      </trkpt>
      <trkpt lat="40.2871130" lon="-4.4509150">
        <ele>747.0</ele>
        <time>2019-08-13T12:42:47Z</time>
      </trkpt>
      <trkpt lat="40.2871730" lon="-4.4509060">
        <ele>747.0</ele>
        <time>2019-08-13T12:42:48Z</time>
      </trkpt>
      <trkpt lat="40.2872340" lon="-4.4508930">
        <ele>747.0</ele>
        <time>2019-08-13T12:42:49Z</time>
      </trkpt>
      <trkpt lat="40.2872940" lon="-4.4508730">
        <ele>747.0</ele>
        <time>2019-08-13T12:42:50Z</time>
      </trkpt>
      <trkpt lat="40.2873520" lon="-4.4508470">
        <ele>747.0</ele>
        <time>2019-08-13T12:42:51Z</time>
      </trkpt>
      <trkpt lat="40.2874090" lon="-4.4508150">
        <ele>747.0</ele>
        <time>2019-08-13T12:42:52Z</time>
      </trkpt>
      <trkpt lat="40.2874660" lon="-4.4507840">
        <ele>747.0</ele>
        <time>2019-08-13T12:42:53Z</time>
      </trkpt>
      <trkpt lat="40.2875200" lon="-4.4507540">
        <ele>747.0</ele>
        <time>2019-08-13T12:42:54Z</time>
      </trkpt>
      <trkpt lat="40.2875740" lon="-4.4507260">
        <ele>746.9</ele>
        <time>2019-08-13T12:42:55Z</time>
      </trkpt>
      <trkpt lat="40.2876290" lon="-4.4507040">
        <ele>746.8</ele>
        <time>2019-08-13T12:42:56Z</time>
      </trkpt>
      <trkpt lat="40.2876860" lon="-4.4506860">
        <ele>746.8</ele>
        <time>2019-08-13T12:42:57Z</time>
      </trkpt>
      <trkpt lat="40.2877440" lon="-4.4506740">
        <ele>746.7</ele>
        <time>2019-08-13T12:42:58Z</time>
      </trkpt>
      <trkpt lat="40.2878020" lon="-4.4506650">
        <ele>746.6</ele>
        <time>2019-08-13T12:42:59Z</time>
      </trkpt>
      <trkpt lat="40.2878580" lon="-4.4506550">
        <ele>746.5</ele>
        <time>2019-08-13T12:43:00Z</time>
      </trkpt>
      <trkpt lat="40.2879130" lon="-4.4506390">
        <ele>746.1</ele>
        <time>2019-08-13T12:43:01Z</time>
      </trkpt>
      <trkpt lat="40.2879640" lon="-4.4506210">
        <ele>745.8</ele>
        <time>2019-08-13T12:43:02Z</time>
      </trkpt>
      <trkpt lat="40.2880080" lon="-4.4506070">
        <ele>745.4</ele>
        <time>2019-08-13T12:43:03Z</time>
      </trkpt>
      <trkpt lat="40.2880430" lon="-4.4505970">
        <ele>745.2</ele>
        <time>2019-08-13T12:43:04Z</time>
      </trkpt>
      <trkpt lat="40.2880720" lon="-4.4505930">
        <ele>744.9</ele>
        <time>2019-08-13T12:43:05Z</time>
      </trkpt>
      <trkpt lat="40.2881190" lon="-4.4506020">
        <ele>744.5</ele>
        <time>2019-08-13T12:43:07Z</time>
      </trkpt>
      <trkpt lat="40.2881480" lon="-4.4506020">
        <ele>744.3</ele>
        <time>2019-08-13T12:43:08Z</time>
      </trkpt>
      <trkpt lat="40.2881830" lon="-4.4505880">
        <ele>744.0</ele>
        <time>2019-08-13T12:43:09Z</time>
      </trkpt>
      <trkpt lat="40.2882230" lon="-4.4505570">
        <ele>743.8</ele>
        <time>2019-08-13T12:43:10Z</time>
      </trkpt>
      <trkpt lat="40.2882720" lon="-4.4505150">
        <ele>743.7</ele>
        <time>2019-08-13T12:43:11Z</time>
      </trkpt>
      <trkpt lat="40.2883250" lon="-4.4504640">
        <ele>744.1</ele>
        <time>2019-08-13T12:43:12Z</time>
      </trkpt>
      <trkpt lat="40.2883790" lon="-4.4504010">
        <ele>744.7</ele>
        <time>2019-08-13T12:43:13Z</time>
      </trkpt>
      <trkpt lat="40.2884350" lon="-4.4503280">
        <ele>745.7</ele>
        <time>2019-08-13T12:43:14Z</time>
      </trkpt>
      <trkpt lat="40.2884910" lon="-4.4502520">
        <ele>746.8</ele>
        <time>2019-08-13T12:43:15Z</time>
      </trkpt>
      <trkpt lat="40.2885450" lon="-4.4501770">
        <ele>747.9</ele>
        <time>2019-08-13T12:43:16Z</time>
      </trkpt>
      <trkpt lat="40.2885930" lon="-4.4501060">
        <ele>748.9</ele>
        <time>2019-08-13T12:43:17Z</time>
      </trkpt>
      <trkpt lat="40.2886330" lon="-4.4500410">
        <ele>749.8</ele>
        <time>2019-08-13T12:43:18Z</time>
      </trkpt>
      <trkpt lat="40.2886680" lon="-4.4499880">
        <ele>750.6</ele>
        <time>2019-08-13T12:43:19Z</time>
      </trkpt>
      <trkpt lat="40.2886950" lon="-4.4499490">
        <ele>751.2</ele>
        <time>2019-08-13T12:43:20Z</time>
      </trkpt>
      <trkpt lat="40.2887230" lon="-4.4499060">
        <ele>751.8</ele>
        <time>2019-08-13T12:43:22Z</time>
      </trkpt>
      <trkpt lat="40.2887400" lon="-4.4498780">
        <ele>752.2</ele>
        <time>2019-08-13T12:43:24Z</time>
      </trkpt>
      <trkpt lat="40.2887650" lon="-4.4498390">
        <ele>752.7</ele>
        <time>2019-08-13T12:43:27Z</time>
      </trkpt>
      <trkpt lat="40.2887890" lon="-4.4497990">
        <ele>753.3</ele>
        <time>2019-08-13T12:43:30Z</time>
      </trkpt>
      <trkpt lat="40.2888170" lon="-4.4497630">
        <ele>753.8</ele>
        <time>2019-08-13T12:43:33Z</time>
      </trkpt>
      <trkpt lat="40.2888380" lon="-4.4497250">
        <ele>754.3</ele>
        <time>2019-08-13T12:43:36Z</time>
      </trkpt>
      <trkpt lat="40.2888630" lon="-4.4496920">
        <ele>754.8</ele>
        <time>2019-08-13T12:43:39Z</time>
      </trkpt>
      <trkpt lat="40.2888870" lon="-4.4496560">
        <ele>755.3</ele>
        <time>2019-08-13T12:43:42Z</time>
      </trkpt>
      <trkpt lat="40.2889090" lon="-4.4496160">
        <ele>755.8</ele>
        <time>2019-08-13T12:43:45Z</time>
      </trkpt>
      <trkpt lat="40.2889280" lon="-4.4495720">
        <ele>756.3</ele>
        <time>2019-08-13T12:43:48Z</time>
      </trkpt>
      <trkpt lat="40.2889450" lon="-4.4495250">
        <ele>756.7</ele>
        <time>2019-08-13T12:43:51Z</time>
      </trkpt>
      <trkpt lat="40.2889590" lon="-4.4494760">
        <ele>757.1</ele>
        <time>2019-08-13T12:43:54Z</time>
      </trkpt>
      <trkpt lat="40.2889710" lon="-4.4494260">
        <ele>757.5</ele>
        <time>2019-08-13T12:43:57Z</time>
      </trkpt>
      <trkpt lat="40.2889780" lon="-4.4493900">
        <ele>757.7</ele>
        <time>2019-08-13T12:43:59Z</time>
      </trkpt>
      <trkpt lat="40.2889840" lon="-4.4493520">
        <ele>757.9</ele>
        <time>2019-08-13T12:44:01Z</time>
      </trkpt>
      <trkpt lat="40.2889890" lon="-4.4493130">
        <ele>758.1</ele>
        <time>2019-08-13T12:44:03Z</time>
      </trkpt>
      <trkpt lat="40.2889950" lon="-4.4492770">
        <ele>758.4</ele>
        <time>2019-08-13T12:44:05Z</time>
      </trkpt>
      <trkpt lat="40.2890000" lon="-4.4492400">
        <ele>758.6</ele>
        <time>2019-08-13T12:44:07Z</time>
      </trkpt>
      <trkpt lat="40.2890070" lon="-4.4492030">
        <ele>758.8</ele>
        <time>2019-08-13T12:44:09Z</time>
      </trkpt>
      <trkpt lat="40.2890080" lon="-4.4491670">
        <ele>759.0</ele>
        <time>2019-08-13T12:44:11Z</time>
      </trkpt>
      <trkpt lat="40.2890050" lon="-4.4491280">
        <ele>759.2</ele>
        <time>2019-08-13T12:44:13Z</time>
      </trkpt>
      <trkpt lat="40.2890040" lon="-4.4490880">
        <ele>759.4</ele>
        <time>2019-08-13T12:44:15Z</time>
      </trkpt>
      <trkpt lat="40.2890020" lon="-4.4490440">
        <ele>759.6</ele>
        <time>2019-08-13T12:44:17Z</time>
      </trkpt>
      <trkpt lat="40.2890010" lon="-4.4489970">
        <ele>759.9</ele>
        <time>2019-08-13T12:44:19Z</time>
      </trkpt>
      <trkpt lat="40.2890010" lon="-4.4489470">
        <ele>760.2</ele>
        <time>2019-08-13T12:44:21Z</time>
      </trkpt>
      <trkpt lat="40.2890030" lon="-4.4488960">
        <ele>760.5</ele>
        <time>2019-08-13T12:44:23Z</time>
      </trkpt>
      <trkpt lat="40.2890010" lon="-4.4488460">
        <ele>760.8</ele>
        <time>2019-08-13T12:44:25Z</time>
      </trkpt>
      <trkpt lat="40.2889980" lon="-4.4487970">
        <ele>761.2</ele>
        <time>2019-08-13T12:44:27Z</time>
      </trkpt>
      <trkpt lat="40.2889900" lon="-4.4487480">
        <ele>761.5</ele>
        <time>2019-08-13T12:44:29Z</time>
      </trkpt>
      <trkpt lat="40.2889860" lon="-4.4487010">
        <ele>761.8</ele>
        <time>2019-08-13T12:44:31Z</time>
      </trkpt>
      <trkpt lat="40.2889870" lon="-4.4486560">
        <ele>762.1</ele>
        <time>2019-08-13T12:44:33Z</time>
      </trkpt>
      <trkpt lat="40.2889940" lon="-4.4486200">
        <ele>762.3</ele>
        <time>2019-08-13T12:44:35Z</time>
      </trkpt>
      <trkpt lat="40.2890220" lon="-4.4485870">
        <ele>762.7</ele>
        <time>2019-08-13T12:44:38Z</time>
      </trkpt>
      <trkpt lat="40.2890490" lon="-4.4485880">
        <ele>763.0</ele>
        <time>2019-08-13T12:44:40Z</time>
      </trkpt>
      <trkpt lat="40.2890660" lon="-4.4486180">
        <ele>763.2</ele>
        <time>2019-08-13T12:44:42Z</time>
      </trkpt>
      <trkpt lat="40.2890750" lon="-4.4486580">
        <ele>763.5</ele>
        <time>2019-08-13T12:44:44Z</time>
      </trkpt>
      <trkpt lat="40.2890820" lon="-4.4486980">
        <ele>763.7</ele>
        <time>2019-08-13T12:44:46Z</time>
      </trkpt>
      <trkpt lat="40.2890880" lon="-4.4487420">
        <ele>764.0</ele>
        <time>2019-08-13T12:44:48Z</time>
      </trkpt>
      <trkpt lat="40.2890970" lon="-4.4487900">
        <ele>764.2</ele>
        <time>2019-08-13T12:44:50Z</time>
      </trkpt>
      <trkpt lat="40.2891110" lon="-4.4488320">
        <ele>764.5</ele>
        <time>2019-08-13T12:44:52Z</time>
      </trkpt>
      <trkpt lat="40.2891230" lon="-4.4488730">
        <ele>764.7</ele>
        <time>2019-08-13T12:44:54Z</time>
      </trkpt>
      <trkpt lat="40.2891340" lon="-4.4489200">
        <ele>765.0</ele>
        <time>2019-08-13T12:44:56Z</time>
      </trkpt>
      <trkpt lat="40.2891560" lon="-4.4489400">
        <ele>765.1</ele>
        <time>2019-08-13T12:44:57Z</time>
      </trkpt>
      <trkpt lat="40.2891830" lon="-4.4489600">
        <ele>765.3</ele>
        <time>2019-08-13T12:44:58Z</time>
      </trkpt>
      <trkpt lat="40.2892150" lon="-4.4489730">
        <ele>765.4</ele>
        <time>2019-08-13T12:44:59Z</time>
      </trkpt>
      <trkpt lat="40.2892450" lon="-4.4489780">
        <ele>765.4</ele>
        <time>2019-08-13T12:45:00Z</time>
      </trkpt>
      <trkpt lat="40.2892730" lon="-4.4489700">
        <ele>765.5</ele>
        <time>2019-08-13T12:45:01Z</time>
      </trkpt>
      <trkpt lat="40.2892970" lon="-4.4489520">
        <ele>765.5</ele>
        <time>2019-08-13T12:45:02Z</time>
      </trkpt>
      <trkpt lat="40.2893190" lon="-4.4489240">
        <ele>765.5</ele>
        <time>2019-08-13T12:45:03Z</time>
      </trkpt>
      <trkpt lat="40.2893360" lon="-4.4488930">
        <ele>765.5</ele>
        <time>2019-08-13T12:45:04Z</time>
      </trkpt>
      <trkpt lat="40.2893520" lon="-4.4488610">
        <ele>765.5</ele>
        <time>2019-08-13T12:45:05Z</time>
      </trkpt>
      <trkpt lat="40.2893670" lon="-4.4488300">
        <ele>765.5</ele>
        <time>2019-08-13T12:45:06Z</time>
      </trkpt>
      <trkpt lat="40.2893830" lon="-4.4488010">
        <ele>765.5</ele>
        <time>2019-08-13T12:45:07Z</time>
      </trkpt>
      <trkpt lat="40.2893980" lon="-4.4487700">
        <ele>765.5</ele>
        <time>2019-08-13T12:45:08Z</time>
      </trkpt>
      <trkpt lat="40.2894140" lon="-4.4487390">
        <ele>765.4</ele>
        <time>2019-08-13T12:45:09Z</time>
      </trkpt>
      <trkpt lat="40.2894300" lon="-4.4487090">
        <ele>765.3</ele>
        <time>2019-08-13T12:45:10Z</time>
      </trkpt>
      <trkpt lat="40.2894450" lon="-4.4486780">
        <ele>765.2</ele>
        <time>2019-08-13T12:45:11Z</time>
      </trkpt>
      <trkpt lat="40.2894780" lon="-4.4486230">
        <ele>765.0</ele>
        <time>2019-08-13T12:45:13Z</time>
      </trkpt>
      <trkpt lat="40.2894940" lon="-4.4485920">
        <ele>764.8</ele>
        <time>2019-08-13T12:45:14Z</time>
      </trkpt>
      <trkpt lat="40.2895100" lon="-4.4485600">
        <ele>764.7</ele>
        <time>2019-08-13T12:45:15Z</time>
      </trkpt>
      <trkpt lat="40.2895270" lon="-4.4485300">
        <ele>764.6</ele>
        <time>2019-08-13T12:45:16Z</time>
      </trkpt>
      <trkpt lat="40.2895440" lon="-4.4484970">
        <ele>764.5</ele>
        <time>2019-08-13T12:45:17Z</time>
      </trkpt>
      <trkpt lat="40.2895630" lon="-4.4484630">
        <ele>764.4</ele>
        <time>2019-08-13T12:45:18Z</time>
      </trkpt>
      <trkpt lat="40.2895830" lon="-4.4484240">
        <ele>764.2</ele>
        <time>2019-08-13T12:45:19Z</time>
      </trkpt>
      <trkpt lat="40.2896060" lon="-4.4483810">
        <ele>764.0</ele>
        <time>2019-08-13T12:45:20Z</time>
      </trkpt>
      <trkpt lat="40.2896320" lon="-4.4483360">
        <ele>763.9</ele>
        <time>2019-08-13T12:45:21Z</time>
      </trkpt>
      <trkpt lat="40.2896590" lon="-4.4482880">
        <ele>763.8</ele>
        <time>2019-08-13T12:45:22Z</time>
      </trkpt>
      <trkpt lat="40.2896860" lon="-4.4482400">
        <ele>763.7</ele>
        <time>2019-08-13T12:45:23Z</time>
      </trkpt>
      <trkpt lat="40.2897150" lon="-4.4481900">
        <ele>763.6</ele>
        <time>2019-08-13T12:45:24Z</time>
      </trkpt>
      <trkpt lat="40.2897450" lon="-4.4481390">
        <ele>763.4</ele>
        <time>2019-08-13T12:45:25Z</time>
      </trkpt>
      <trkpt lat="40.2897810" lon="-4.4480940">
        <ele>763.2</ele>
        <time>2019-08-13T12:45:26Z</time>
      </trkpt>
      <trkpt lat="40.2898240" lon="-4.4480600">
        <ele>762.9</ele>
        <time>2019-08-13T12:45:27Z</time>
      </trkpt>
      <trkpt lat="40.2898740" lon="-4.4480360">
        <ele>762.6</ele>
        <time>2019-08-13T12:45:28Z</time>
      </trkpt>
      <trkpt lat="40.2899270" lon="-4.4480190">
        <ele>762.4</ele>
        <time>2019-08-13T12:45:29Z</time>
      </trkpt>
      <trkpt lat="40.2899810" lon="-4.4480040">
        <ele>762.2</ele>
        <time>2019-08-13T12:45:30Z</time>
      </trkpt>
      <trkpt lat="40.2900360" lon="-4.4479880">
        <ele>762.1</ele>
        <time>2019-08-13T12:45:31Z</time>
      </trkpt>
      <trkpt lat="40.2900920" lon="-4.4479650">
        <ele>762.0</ele>
        <time>2019-08-13T12:45:32Z</time>
      </trkpt>
      <trkpt lat="40.2901500" lon="-4.4479440">
        <ele>761.9</ele>
        <time>2019-08-13T12:45:33Z</time>
      </trkpt>
      <trkpt lat="40.2902140" lon="-4.4479270">
        <ele>761.9</ele>
        <time>2019-08-13T12:45:34Z</time>
      </trkpt>
      <trkpt lat="40.2902790" lon="-4.4479100">
        <ele>761.8</ele>
        <time>2019-08-13T12:45:35Z</time>
      </trkpt>
      <trkpt lat="40.2903450" lon="-4.4478940">
        <ele>761.8</ele>
        <time>2019-08-13T12:45:36Z</time>
      </trkpt>
      <trkpt lat="40.2904140" lon="-4.4478810">
        <ele>761.8</ele>
        <time>2019-08-13T12:45:37Z</time>
      </trkpt>
      <trkpt lat="40.2904820" lon="-4.4478680">
        <ele>761.8</ele>
        <time>2019-08-13T12:45:38Z</time>
      </trkpt>
      <trkpt lat="40.2905490" lon="-4.4478550">
        <ele>761.9</ele>
        <time>2019-08-13T12:45:39Z</time>
      </trkpt>
      <trkpt lat="40.2906130" lon="-4.4478480">
        <ele>761.9</ele>
        <time>2019-08-13T12:45:40Z</time>
      </trkpt>
      <trkpt lat="40.2906750" lon="-4.4478460">
        <ele>761.9</ele>
        <time>2019-08-13T12:45:41Z</time>
      </trkpt>
      <trkpt lat="40.2907320" lon="-4.4478440">
        <ele>762.0</ele>
        <time>2019-08-13T12:45:42Z</time>
      </trkpt>
      <trkpt lat="40.2907850" lon="-4.4478410">
        <ele>762.1</ele>
        <time>2019-08-13T12:45:43Z</time>
      </trkpt>
      <trkpt lat="40.2908310" lon="-4.4478310">
        <ele>762.2</ele>
        <time>2019-08-13T12:45:44Z</time>
      </trkpt>
      <trkpt lat="40.2908700" lon="-4.4478110">
        <ele>762.4</ele>
        <time>2019-08-13T12:45:45Z</time>
      </trkpt>
      <trkpt lat="40.2909070" lon="-4.4477890">
        <ele>762.6</ele>
        <time>2019-08-13T12:45:46Z</time>
      </trkpt>
      <trkpt lat="40.2909450" lon="-4.4477670">
        <ele>762.8</ele>
        <time>2019-08-13T12:45:47Z</time>
      </trkpt>
      <trkpt lat="40.2909840" lon="-4.4477440">
        <ele>763.0</ele>
        <time>2019-08-13T12:45:48Z</time>
      </trkpt>
      <trkpt lat="40.2910260" lon="-4.4477180">
        <ele>763.3</ele>
        <time>2019-08-13T12:45:49Z</time>
      </trkpt>
      <trkpt lat="40.2910700" lon="-4.4476930">
        <ele>763.4</ele>
        <time>2019-08-13T12:45:50Z</time>
      </trkpt>
      <trkpt lat="40.2911150" lon="-4.4476670">
        <ele>763.6</ele>
        <time>2019-08-13T12:45:51Z</time>
      </trkpt>
      <trkpt lat="40.2911620" lon="-4.4476420">
        <ele>763.7</ele>
        <time>2019-08-13T12:45:52Z</time>
      </trkpt>
      <trkpt lat="40.2912100" lon="-4.4476200">
        <ele>763.8</ele>
        <time>2019-08-13T12:45:53Z</time>
      </trkpt>
      <trkpt lat="40.2912570" lon="-4.4476040">
        <ele>764.0</ele>
        <time>2019-08-13T12:45:54Z</time>
      </trkpt>
      <trkpt lat="40.2913050" lon="-4.4475920">
        <ele>764.1</ele>
        <time>2019-08-13T12:45:55Z</time>
      </trkpt>
      <trkpt lat="40.2913540" lon="-4.4475900">
        <ele>764.2</ele>
        <time>2019-08-13T12:45:56Z</time>
      </trkpt>
      <trkpt lat="40.2914010" lon="-4.4475940">
        <ele>764.4</ele>
        <time>2019-08-13T12:45:57Z</time>
      </trkpt>
      <trkpt lat="40.2914470" lon="-4.4476010">
        <ele>764.6</ele>
        <time>2019-08-13T12:45:58Z</time>
      </trkpt>
      <trkpt lat="40.2914910" lon="-4.4476110">
        <ele>764.8</ele>
        <time>2019-08-13T12:45:59Z</time>
      </trkpt>
      <trkpt lat="40.2915360" lon="-4.4476220">
        <ele>765.0</ele>
        <time>2019-08-13T12:46:00Z</time>
      </trkpt>
      <trkpt lat="40.2915790" lon="-4.4476330">
        <ele>765.2</ele>
        <time>2019-08-13T12:46:01Z</time>
      </trkpt>
      <trkpt lat="40.2916210" lon="-4.4476450">
        <ele>765.5</ele>
        <time>2019-08-13T12:46:02Z</time>
      </trkpt>
      <trkpt lat="40.2916640" lon="-4.4476570">
        <ele>765.8</ele>
        <time>2019-08-13T12:46:03Z</time>
      </trkpt>
      <trkpt lat="40.2917060" lon="-4.4476690">
        <ele>766.0</ele>
        <time>2019-08-13T12:46:04Z</time>
      </trkpt>
      <trkpt lat="40.2917480" lon="-4.4476800">
        <ele>766.3</ele>
        <time>2019-08-13T12:46:05Z</time>
      </trkpt>
      <trkpt lat="40.2917910" lon="-4.4476860">
        <ele>766.6</ele>
        <time>2019-08-13T12:46:06Z</time>
      </trkpt>
      <trkpt lat="40.2918330" lon="-4.4476910">
        <ele>766.9</ele>
        <time>2019-08-13T12:46:07Z</time>
      </trkpt>
      <trkpt lat="40.2918730" lon="-4.4476920">
        <ele>767.1</ele>
        <time>2019-08-13T12:46:08Z</time>
      </trkpt>
      <trkpt lat="40.2919120" lon="-4.4476950">
        <ele>767.4</ele>
        <time>2019-08-13T12:46:09Z</time>
      </trkpt>
      <trkpt lat="40.2919480" lon="-4.4477010">
        <ele>767.6</ele>
        <time>2019-08-13T12:46:10Z</time>
      </trkpt>
      <trkpt lat="40.2919820" lon="-4.4477090">
        <ele>767.8</ele>
        <time>2019-08-13T12:46:11Z</time>
      </trkpt>
      <trkpt lat="40.2920170" lon="-4.4477190">
        <ele>768.0</ele>
        <time>2019-08-13T12:46:12Z</time>
      </trkpt>
      <trkpt lat="40.2920500" lon="-4.4477280">
        <ele>768.1</ele>
        <time>2019-08-13T12:46:13Z</time>
      </trkpt>
      <trkpt lat="40.2920820" lon="-4.4477380">
        <ele>768.3</ele>
        <time>2019-08-13T12:46:14Z</time>
      </trkpt>
      <trkpt lat="40.2921110" lon="-4.4477500">
        <ele>768.4</ele>
        <time>2019-08-13T12:46:15Z</time>
      </trkpt>
      <trkpt lat="40.2921380" lon="-4.4477620">
        <ele>768.5</ele>
        <time>2019-08-13T12:46:16Z</time>
      </trkpt>
      <trkpt lat="40.2921650" lon="-4.4477730">
        <ele>768.6</ele>
        <time>2019-08-13T12:46:17Z</time>
      </trkpt>
      <trkpt lat="40.2921930" lon="-4.4477860">
        <ele>768.7</ele>
        <time>2019-08-13T12:46:18Z</time>
      </trkpt>
      <trkpt lat="40.2922190" lon="-4.4477980">
        <ele>768.7</ele>
        <time>2019-08-13T12:46:19Z</time>
      </trkpt>
      <trkpt lat="40.2922460" lon="-4.4478080">
        <ele>768.8</ele>
        <time>2019-08-13T12:46:20Z</time>
      </trkpt>
      <trkpt lat="40.2922720" lon="-4.4478180">
        <ele>768.8</ele>
        <time>2019-08-13T12:46:21Z</time>
      </trkpt>
      <trkpt lat="40.2923230" lon="-4.4478320">
        <ele>768.9</ele>
        <time>2019-08-13T12:46:23Z</time>
      </trkpt>
      <trkpt lat="40.2923750" lon="-4.4478380">
        <ele>769.0</ele>
        <time>2019-08-13T12:46:25Z</time>
      </trkpt>
      <trkpt lat="40.2924220" lon="-4.4478140">
        <ele>768.7</ele>
        <time>2019-08-13T12:46:27Z</time>
      </trkpt>
      <trkpt lat="40.2924620" lon="-4.4477740">
        <ele>768.4</ele>
        <time>2019-08-13T12:46:29Z</time>
      </trkpt>
      <trkpt lat="40.2924930" lon="-4.4477170">
        <ele>768.1</ele>
        <time>2019-08-13T12:46:31Z</time>
      </trkpt>
      <trkpt lat="40.2925070" lon="-4.4476830">
        <ele>768.0</ele>
        <time>2019-08-13T12:46:32Z</time>
      </trkpt>
      <trkpt lat="40.2925200" lon="-4.4476470">
        <ele>767.8</ele>
        <time>2019-08-13T12:46:33Z</time>
      </trkpt>
      <trkpt lat="40.2925330" lon="-4.4476090">
        <ele>767.7</ele>
        <time>2019-08-13T12:46:34Z</time>
      </trkpt>
      <trkpt lat="40.2925460" lon="-4.4475700">
        <ele>767.5</ele>
        <time>2019-08-13T12:46:35Z</time>
      </trkpt>
      <trkpt lat="40.2925600" lon="-4.4475300">
        <ele>767.5</ele>
        <time>2019-08-13T12:46:36Z</time>
      </trkpt>
      <trkpt lat="40.2925750" lon="-4.4474880">
        <ele>767.4</ele>
        <time>2019-08-13T12:46:37Z</time>
      </trkpt>
      <trkpt lat="40.2925910" lon="-4.4474450">
        <ele>767.3</ele>
        <time>2019-08-13T12:46:38Z</time>
      </trkpt>
      <trkpt lat="40.2926070" lon="-4.4474010">
        <ele>767.2</ele>
        <time>2019-08-13T12:46:39Z</time>
      </trkpt>
      <trkpt lat="40.2926240" lon="-4.4473570">
        <ele>767.1</ele>
        <time>2019-08-13T12:46:40Z</time>
      </trkpt>
      <trkpt lat="40.2926430" lon="-4.4473110">
        <ele>767.0</ele>
        <time>2019-08-13T12:46:41Z</time>
      </trkpt>
      <trkpt lat="40.2926650" lon="-4.4472630">
        <ele>766.9</ele>
        <time>2019-08-13T12:46:42Z</time>
      </trkpt>
      <trkpt lat="40.2926890" lon="-4.4472130">
        <ele>766.8</ele>
        <time>2019-08-13T12:46:43Z</time>
      </trkpt>
      <trkpt lat="40.2927170" lon="-4.4471660">
        <ele>766.6</ele>
        <time>2019-08-13T12:46:44Z</time>
      </trkpt>
      <trkpt lat="40.2927480" lon="-4.4471190">
        <ele>766.4</ele>
        <time>2019-08-13T12:46:45Z</time>
      </trkpt>
      <trkpt lat="40.2927790" lon="-4.4470710">
        <ele>766.2</ele>
        <time>2019-08-13T12:46:46Z</time>
      </trkpt>
      <trkpt lat="40.2928080" lon="-4.4470170">
        <ele>766.0</ele>
        <time>2019-08-13T12:46:47Z</time>
      </trkpt>
      <trkpt lat="40.2928320" lon="-4.4469540">
        <ele>765.7</ele>
        <time>2019-08-13T12:46:48Z</time>
      </trkpt>
      <trkpt lat="40.2928540" lon="-4.4468820">
        <ele>765.5</ele>
        <time>2019-08-13T12:46:49Z</time>
      </trkpt>
      <trkpt lat="40.2928750" lon="-4.4468020">
        <ele>765.2</ele>
        <time>2019-08-13T12:46:50Z</time>
      </trkpt>
      <trkpt lat="40.2929000" lon="-4.4467260">
        <ele>765.0</ele>
        <time>2019-08-13T12:46:51Z</time>
      </trkpt>
      <trkpt lat="40.2929330" lon="-4.4466550">
        <ele>764.8</ele>
        <time>2019-08-13T12:46:52Z</time>
      </trkpt>
      <trkpt lat="40.2929710" lon="-4.4465900">
        <ele>764.6</ele>
        <time>2019-08-13T12:46:53Z</time>
      </trkpt>
      <trkpt lat="40.2930100" lon="-4.4465280">
        <ele>764.5</ele>
        <time>2019-08-13T12:46:54Z</time>
      </trkpt>
      <trkpt lat="40.2930440" lon="-4.4464690">
        <ele>764.5</ele>
        <time>2019-08-13T12:46:55Z</time>
      </trkpt>
      <trkpt lat="40.2930730" lon="-4.4464110">
        <ele>764.5</ele>
        <time>2019-08-13T12:46:56Z</time>
      </trkpt>
      <trkpt lat="40.2930980" lon="-4.4463560">
        <ele>764.6</ele>
        <time>2019-08-13T12:46:57Z</time>
      </trkpt>
      <trkpt lat="40.2931180" lon="-4.4463030">
        <ele>764.6</ele>
        <time>2019-08-13T12:46:58Z</time>
      </trkpt>
      <trkpt lat="40.2931350" lon="-4.4462520">
        <ele>764.7</ele>
        <time>2019-08-13T12:46:59Z</time>
      </trkpt>
      <trkpt lat="40.2931490" lon="-4.4462050">
        <ele>764.8</ele>
        <time>2019-08-13T12:47:00Z</time>
      </trkpt>
      <trkpt lat="40.2931630" lon="-4.4461590">
        <ele>764.8</ele>
        <time>2019-08-13T12:47:01Z</time>
      </trkpt>
      <trkpt lat="40.2931780" lon="-4.4461130">
        <ele>764.9</ele>
        <time>2019-08-13T12:47:02Z</time>
      </trkpt>
      <trkpt lat="40.2931930" lon="-4.4460720">
        <ele>765.0</ele>
        <time>2019-08-13T12:47:03Z</time>
      </trkpt>
      <trkpt lat="40.2932080" lon="-4.4460340">
        <ele>765.1</ele>
        <time>2019-08-13T12:47:04Z</time>
      </trkpt>
      <trkpt lat="40.2932220" lon="-4.4459980">
        <ele>765.2</ele>
        <time>2019-08-13T12:47:05Z</time>
      </trkpt>
      <trkpt lat="40.2932360" lon="-4.4459650">
        <ele>765.3</ele>
        <time>2019-08-13T12:47:06Z</time>
      </trkpt>
      <trkpt lat="40.2932500" lon="-4.4459330">
        <ele>765.4</ele>
        <time>2019-08-13T12:47:07Z</time>
      </trkpt>
      <trkpt lat="40.2932650" lon="-4.4459020">
        <ele>765.5</ele>
        <time>2019-08-13T12:47:08Z</time>
      </trkpt>
      <trkpt lat="40.2932890" lon="-4.4458470">
        <ele>765.6</ele>
        <time>2019-08-13T12:47:10Z</time>
      </trkpt>
      <trkpt lat="40.2933070" lon="-4.4457980">
        <ele>765.8</ele>
        <time>2019-08-13T12:47:12Z</time>
      </trkpt>
      <trkpt lat="40.2933270" lon="-4.4457540">
        <ele>766.0</ele>
        <time>2019-08-13T12:47:14Z</time>
      </trkpt>
      <trkpt lat="40.2933480" lon="-4.4457160">
        <ele>766.2</ele>
        <time>2019-08-13T12:47:16Z</time>
      </trkpt>
      <trkpt lat="40.2933690" lon="-4.4456880">
        <ele>766.4</ele>
        <time>2019-08-13T12:47:18Z</time>
      </trkpt>
      <trkpt lat="40.2934000" lon="-4.4456530">
        <ele>766.7</ele>
        <time>2019-08-13T12:47:20Z</time>
      </trkpt>
      <trkpt lat="40.2934300" lon="-4.4456180">
        <ele>767.1</ele>
        <time>2019-08-13T12:47:22Z</time>
      </trkpt>
      <trkpt lat="40.2934590" lon="-4.4455790">
        <ele>767.5</ele>
        <time>2019-08-13T12:47:24Z</time>
      </trkpt>
      <trkpt lat="40.2934900" lon="-4.4455470">
        <ele>768.0</ele>
        <time>2019-08-13T12:47:26Z</time>
      </trkpt>
      <trkpt lat="40.2935220" lon="-4.4455050">
        <ele>768.5</ele>
        <time>2019-08-13T12:47:28Z</time>
      </trkpt>
      <trkpt lat="40.2935630" lon="-4.4454660">
        <ele>769.1</ele>
        <time>2019-08-13T12:47:30Z</time>
      </trkpt>
      <trkpt lat="40.2936040" lon="-4.4454200">
        <ele>769.7</ele>
        <time>2019-08-13T12:47:32Z</time>
      </trkpt>
      <trkpt lat="40.2936270" lon="-4.4453980">
        <ele>769.9</ele>
        <time>2019-08-13T12:47:33Z</time>
      </trkpt>
      <trkpt lat="40.2936510" lon="-4.4453780">
        <ele>770.1</ele>
        <time>2019-08-13T12:47:34Z</time>
      </trkpt>
      <trkpt lat="40.2936740" lon="-4.4453560">
        <ele>770.3</ele>
        <time>2019-08-13T12:47:35Z</time>
      </trkpt>
      <trkpt lat="40.2936960" lon="-4.4453360">
        <ele>770.5</ele>
        <time>2019-08-13T12:47:36Z</time>
      </trkpt>
      <trkpt lat="40.2937390" lon="-4.4452940">
        <ele>770.9</ele>
        <time>2019-08-13T12:47:38Z</time>
      </trkpt>
      <trkpt lat="40.2937760" lon="-4.4452590">
        <ele>771.2</ele>
        <time>2019-08-13T12:47:40Z</time>
      </trkpt>
      <trkpt lat="40.2938050" lon="-4.4452230">
        <ele>771.5</ele>
        <time>2019-08-13T12:47:42Z</time>
      </trkpt>
      <trkpt lat="40.2938260" lon="-4.4451800">
        <ele>771.8</ele>
        <time>2019-08-13T12:47:44Z</time>
      </trkpt>
      <trkpt lat="40.2938470" lon="-4.4451400">
        <ele>772.0</ele>
        <time>2019-08-13T12:47:46Z</time>
      </trkpt>
      <trkpt lat="40.2938600" lon="-4.4451010">
        <ele>772.2</ele>
        <time>2019-08-13T12:47:48Z</time>
      </trkpt>
      <trkpt lat="40.2938680" lon="-4.4450600">
        <ele>772.4</ele>
        <time>2019-08-13T12:47:50Z</time>
      </trkpt>
      <trkpt lat="40.2938790" lon="-4.4450200">
        <ele>772.7</ele>
        <time>2019-08-13T12:47:52Z</time>
      </trkpt>
      <trkpt lat="40.2938860" lon="-4.4449760">
        <ele>772.9</ele>
        <time>2019-08-13T12:47:54Z</time>
      </trkpt>
      <trkpt lat="40.2938950" lon="-4.4449340">
        <ele>773.3</ele>
        <time>2019-08-13T12:47:56Z</time>
      </trkpt>
      <trkpt lat="40.2939050" lon="-4.4448930">
        <ele>773.9</ele>
        <time>2019-08-13T12:47:58Z</time>
      </trkpt>
      <trkpt lat="40.2939100" lon="-4.4448530">
        <ele>774.4</ele>
        <time>2019-08-13T12:48:00Z</time>
      </trkpt>
      <trkpt lat="40.2939130" lon="-4.4448120">
        <ele>774.9</ele>
        <time>2019-08-13T12:48:02Z</time>
      </trkpt>
      <trkpt lat="40.2939150" lon="-4.4447750">
        <ele>775.3</ele>
        <time>2019-08-13T12:48:04Z</time>
      </trkpt>
      <trkpt lat="40.2939240" lon="-4.4447380">
        <ele>775.7</ele>
        <time>2019-08-13T12:48:06Z</time>
      </trkpt>
      <trkpt lat="40.2939550" lon="-4.4447270">
        <ele>776.2</ele>
        <time>2019-08-13T12:48:09Z</time>
      </trkpt>
      <trkpt lat="40.2940370" lon="-4.4447540">
        <ele>776.6</ele>
        <time>2019-08-13T12:49:11Z</time>
      </trkpt>
      <trkpt lat="40.2940780" lon="-4.4447530">
        <ele>776.6</ele>
        <time>2019-08-13T12:49:13Z</time>
      </trkpt>
      <trkpt lat="40.2941140" lon="-4.4447500">
        <ele>776.7</ele>
        <time>2019-08-13T12:49:15Z</time>
      </trkpt>
      <trkpt lat="40.2941480" lon="-4.4447380">
        <ele>776.8</ele>
        <time>2019-08-13T12:49:18Z</time>
      </trkpt>
      <trkpt lat="40.2941820" lon="-4.4447390">
        <ele>776.9</ele>
        <time>2019-08-13T12:49:20Z</time>
      </trkpt>
      <trkpt lat="40.2942250" lon="-4.4447550">
        <ele>777.0</ele>
        <time>2019-08-13T12:49:22Z</time>
      </trkpt>
      <trkpt lat="40.2942690" lon="-4.4447650">
        <ele>777.0</ele>
        <time>2019-08-13T12:49:24Z</time>
      </trkpt>
      <trkpt lat="40.2943170" lon="-4.4447720">
        <ele>777.1</ele>
        <time>2019-08-13T12:49:26Z</time>
      </trkpt>
      <trkpt lat="40.2943650" lon="-4.4447740">
        <ele>777.2</ele>
        <time>2019-08-13T12:49:28Z</time>
      </trkpt>
      <trkpt lat="40.2944130" lon="-4.4447780">
        <ele>777.4</ele>
        <time>2019-08-13T12:49:30Z</time>
      </trkpt>
      <trkpt lat="40.2944610" lon="-4.4447880">
        <ele>777.5</ele>
        <time>2019-08-13T12:49:32Z</time>
      </trkpt>
      <trkpt lat="40.2944980" lon="-4.4447980">
        <ele>777.7</ele>
        <time>2019-08-13T12:49:34Z</time>
      </trkpt>
      <trkpt lat="40.2945310" lon="-4.4448050">
        <ele>777.8</ele>
        <time>2019-08-13T12:49:36Z</time>
      </trkpt>
      <trkpt lat="40.2945640" lon="-4.4448180">
        <ele>777.8</ele>
        <time>2019-08-13T12:49:38Z</time>
      </trkpt>
      <trkpt lat="40.2945980" lon="-4.4448300">
        <ele>777.9</ele>
        <time>2019-08-13T12:49:40Z</time>
      </trkpt>
      <trkpt lat="40.2946400" lon="-4.4448560">
        <ele>778.0</ele>
        <time>2019-08-13T12:49:42Z</time>
      </trkpt>
      <trkpt lat="40.2946890" lon="-4.4448890">
        <ele>778.1</ele>
        <time>2019-08-13T12:49:44Z</time>
      </trkpt>
      <trkpt lat="40.2947160" lon="-4.4449010">
        <ele>778.1</ele>
        <time>2019-08-13T12:49:45Z</time>
      </trkpt>
      <trkpt lat="40.2947450" lon="-4.4449010">
        <ele>778.0</ele>
        <time>2019-08-13T12:49:46Z</time>
      </trkpt>
      <trkpt lat="40.2947760" lon="-4.4448860">
        <ele>777.7</ele>
        <time>2019-08-13T12:49:47Z</time>
      </trkpt>
      <trkpt lat="40.2948050" lon="-4.4448590">
        <ele>777.4</ele>
        <time>2019-08-13T12:49:48Z</time>
      </trkpt>
      <trkpt lat="40.2948340" lon="-4.4448230">
        <ele>777.2</ele>
        <time>2019-08-13T12:49:49Z</time>
      </trkpt>
      <trkpt lat="40.2948620" lon="-4.4447840">
        <ele>776.9</ele>
        <time>2019-08-13T12:49:50Z</time>
      </trkpt>
      <trkpt lat="40.2948900" lon="-4.4447480">
        <ele>776.6</ele>
        <time>2019-08-13T12:49:51Z</time>
      </trkpt>
      <trkpt lat="40.2949260" lon="-4.4447170">
        <ele>776.3</ele>
        <time>2019-08-13T12:49:52Z</time>
      </trkpt>
      <trkpt lat="40.2949720" lon="-4.4446960">
        <ele>775.9</ele>
        <time>2019-08-13T12:49:53Z</time>
      </trkpt>
      <trkpt lat="40.2950280" lon="-4.4446800">
        <ele>775.6</ele>
        <time>2019-08-13T12:49:54Z</time>
      </trkpt>
      <trkpt lat="40.2950920" lon="-4.4446660">
        <ele>775.1</ele>
        <time>2019-08-13T12:49:55Z</time>
      </trkpt>
      <trkpt lat="40.2951570" lon="-4.4446490">
        <ele>774.4</ele>
        <time>2019-08-13T12:49:56Z</time>
      </trkpt>
      <trkpt lat="40.2952170" lon="-4.4446310">
        <ele>773.7</ele>
        <time>2019-08-13T12:49:57Z</time>
      </trkpt>
      <trkpt lat="40.2952700" lon="-4.4446120">
        <ele>773.2</ele>
        <time>2019-08-13T12:49:58Z</time>
      </trkpt>
      <trkpt lat="40.2953180" lon="-4.4445920">
        <ele>772.8</ele>
        <time>2019-08-13T12:49:59Z</time>
      </trkpt>
      <trkpt lat="40.2953650" lon="-4.4445780">
        <ele>772.3</ele>
        <time>2019-08-13T12:50:00Z</time>
      </trkpt>
      <trkpt lat="40.2954160" lon="-4.4445760">
        <ele>771.7</ele>
        <time>2019-08-13T12:50:01Z</time>
      </trkpt>
      <trkpt lat="40.2954650" lon="-4.4445820">
        <ele>771.4</ele>
        <time>2019-08-13T12:50:02Z</time>
      </trkpt>
      <trkpt lat="40.2955100" lon="-4.4445850">
        <ele>771.4</ele>
        <time>2019-08-13T12:50:03Z</time>
      </trkpt>
      <trkpt lat="40.2955560" lon="-4.4445700">
        <ele>771.2</ele>
        <time>2019-08-13T12:50:04Z</time>
      </trkpt>
      <trkpt lat="40.2956010" lon="-4.4445370">
        <ele>771.0</ele>
        <time>2019-08-13T12:50:05Z</time>
      </trkpt>
      <trkpt lat="40.2956490" lon="-4.4445000">
        <ele>770.8</ele>
        <time>2019-08-13T12:50:06Z</time>
      </trkpt>
      <trkpt lat="40.2956980" lon="-4.4444650">
        <ele>770.5</ele>
        <time>2019-08-13T12:50:07Z</time>
      </trkpt>
      <trkpt lat="40.2957390" lon="-4.4444430">
        <ele>770.3</ele>
        <time>2019-08-13T12:50:08Z</time>
      </trkpt>
      <trkpt lat="40.2957700" lon="-4.4444270">
        <ele>770.2</ele>
        <time>2019-08-13T12:50:09Z</time>
      </trkpt>
      <trkpt lat="40.2958170" lon="-4.4444150">
        <ele>770.0</ele>
        <time>2019-08-13T12:50:11Z</time>
      </trkpt>
      <trkpt lat="40.2958510" lon="-4.4444070">
        <ele>769.9</ele>
        <time>2019-08-13T12:50:13Z</time>
      </trkpt>
      <trkpt lat="40.2958920" lon="-4.4444100">
        <ele>769.7</ele>
        <time>2019-08-13T12:50:29Z</time>
      </trkpt>
      <trkpt lat="40.2958750" lon="-4.4444040">
        <ele>769.6</ele>
        <time>2019-08-13T12:50:35Z</time>
      </trkpt>
      <trkpt lat="40.2958650" lon="-4.4443060">
        <ele>769.1</ele>
        <time>2019-08-13T12:51:11Z</time>
      </trkpt>
      <trkpt lat="40.2958520" lon="-4.4442730">
        <ele>769.2</ele>
        <time>2019-08-13T12:51:14Z</time>
      </trkpt>
      <trkpt lat="40.2958420" lon="-4.4442380">
        <ele>769.0</ele>
        <time>2019-08-13T12:51:19Z</time>
      </trkpt>
      <trkpt lat="40.2958330" lon="-4.4441790">
        <ele>768.7</ele>
        <time>2019-08-13T12:51:21Z</time>
      </trkpt>
      <trkpt lat="40.2958140" lon="-4.4441120">
        <ele>768.6</ele>
        <time>2019-08-13T12:51:23Z</time>
      </trkpt>
      <trkpt lat="40.2958010" lon="-4.4440750">
        <ele>768.5</ele>
        <time>2019-08-13T12:51:24Z</time>
      </trkpt>
      <trkpt lat="40.2957920" lon="-4.4440290">
        <ele>768.4</ele>
        <time>2019-08-13T12:51:25Z</time>
      </trkpt>
      <trkpt lat="40.2957890" lon="-4.4439770">
        <ele>768.3</ele>
        <time>2019-08-13T12:51:26Z</time>
      </trkpt>
      <trkpt lat="40.2957920" lon="-4.4439250">
        <ele>768.0</ele>
        <time>2019-08-13T12:51:27Z</time>
      </trkpt>
      <trkpt lat="40.2957920" lon="-4.4438720">
        <ele>767.9</ele>
        <time>2019-08-13T12:51:28Z</time>
      </trkpt>
      <trkpt lat="40.2957870" lon="-4.4438250">
        <ele>767.8</ele>
        <time>2019-08-13T12:51:29Z</time>
      </trkpt>
      <trkpt lat="40.2957820" lon="-4.4437850">
        <ele>767.7</ele>
        <time>2019-08-13T12:51:30Z</time>
      </trkpt>
      <trkpt lat="40.2957710" lon="-4.4437480">
        <ele>767.5</ele>
        <time>2019-08-13T12:51:31Z</time>
      </trkpt>
      <trkpt lat="40.2957540" lon="-4.4437150">
        <ele>767.6</ele>
        <time>2019-08-13T12:51:32Z</time>
      </trkpt>
      <trkpt lat="40.2957280" lon="-4.4436850">
        <ele>767.5</ele>
        <time>2019-08-13T12:51:33Z</time>
      </trkpt>
      <trkpt lat="40.2957030" lon="-4.4436580">
        <ele>767.3</ele>
        <time>2019-08-13T12:51:34Z</time>
      </trkpt>
      <trkpt lat="40.2956770" lon="-4.4436310">
        <ele>767.4</ele>
        <time>2019-08-13T12:51:35Z</time>
      </trkpt>
      <trkpt lat="40.2956530" lon="-4.4436050">
        <ele>767.2</ele>
        <time>2019-08-13T12:51:36Z</time>
      </trkpt>
      <trkpt lat="40.2956300" lon="-4.4435800">
        <ele>767.1</ele>
        <time>2019-08-13T12:51:37Z</time>
      </trkpt>
      <trkpt lat="40.2956100" lon="-4.4435540">
        <ele>767.1</ele>
        <time>2019-08-13T12:51:38Z</time>
      </trkpt>
      <trkpt lat="40.2955910" lon="-4.4435280">
        <ele>766.9</ele>
        <time>2019-08-13T12:51:39Z</time>
      </trkpt>
      <trkpt lat="40.2955630" lon="-4.4434900">
        <ele>766.8</ele>
        <time>2019-08-13T12:51:41Z</time>
      </trkpt>
      <trkpt lat="40.2956060" lon="-4.4435050">
        <ele>766.9</ele>
        <time>2019-08-13T12:52:06Z</time>
      </trkpt>
      <trkpt lat="40.2956360" lon="-4.4435370">
        <ele>766.9</ele>
        <time>2019-08-13T12:52:08Z</time>
      </trkpt>
      <trkpt lat="40.2956720" lon="-4.4435780">
        <ele>767.0</ele>
        <time>2019-08-13T12:52:10Z</time>
      </trkpt>
      <trkpt lat="40.2957090" lon="-4.4436180">
        <ele>767.2</ele>
        <time>2019-08-13T12:52:12Z</time>
      </trkpt>
      <trkpt lat="40.2957480" lon="-4.4436600">
        <ele>767.3</ele>
        <time>2019-08-13T12:52:14Z</time>
      </trkpt>
      <trkpt lat="40.2957690" lon="-4.4436840">
        <ele>767.4</ele>
        <time>2019-08-13T12:52:15Z</time>
      </trkpt>
      <trkpt lat="40.2958080" lon="-4.4437300">
        <ele>767.5</ele>
        <time>2019-08-13T12:52:17Z</time>
      </trkpt>
      <trkpt lat="40.2958450" lon="-4.4437770">
        <ele>767.6</ele>
        <time>2019-08-13T12:52:19Z</time>
      </trkpt>
      <trkpt lat="40.2958810" lon="-4.4438210">
        <ele>767.7</ele>
        <time>2019-08-13T12:52:21Z</time>
      </trkpt>
      <trkpt lat="40.2959160" lon="-4.4438660">
        <ele>767.8</ele>
        <time>2019-08-13T12:52:23Z</time>
      </trkpt>
      <trkpt lat="40.2959360" lon="-4.4439190">
        <ele>767.9</ele>
        <time>2019-08-13T12:52:25Z</time>
      </trkpt>
      <trkpt lat="40.2959390" lon="-4.4439770">
        <ele>768.1</ele>
        <time>2019-08-13T12:52:27Z</time>
      </trkpt>
      <trkpt lat="40.2959410" lon="-4.4440270">
        <ele>768.2</ele>
        <time>2019-08-13T12:52:29Z</time>
      </trkpt>
      <trkpt lat="40.2959350" lon="-4.4440770">
        <ele>768.4</ele>
        <time>2019-08-13T12:52:31Z</time>
      </trkpt>
      <trkpt lat="40.2959170" lon="-4.4441200">
        <ele>768.5</ele>
        <time>2019-08-13T12:52:33Z</time>
      </trkpt>
      <trkpt lat="40.2958950" lon="-4.4441620">
        <ele>768.7</ele>
        <time>2019-08-13T12:52:35Z</time>
      </trkpt>
      <trkpt lat="40.2958790" lon="-4.4442060">
        <ele>768.9</ele>
        <time>2019-08-13T12:52:37Z</time>
      </trkpt>
      <trkpt lat="40.2958720" lon="-4.4442500">
        <ele>769.0</ele>
        <time>2019-08-13T12:52:39Z</time>
      </trkpt>
      <trkpt lat="40.2958740" lon="-4.4442910">
        <ele>769.2</ele>
        <time>2019-08-13T12:52:41Z</time>
      </trkpt>
      <trkpt lat="40.2958960" lon="-4.4443160">
        <ele>769.3</ele>
        <time>2019-08-13T12:52:48Z</time>
      </trkpt>
      <trkpt lat="40.2959060" lon="-4.4443500">
        <ele>769.3</ele>
        <time>2019-08-13T12:52:52Z</time>
      </trkpt>
      <trkpt lat="40.2959000" lon="-4.4443860">
        <ele>769.5</ele>
        <time>2019-08-13T12:52:59Z</time>
      </trkpt>
      <trkpt lat="40.2958740" lon="-4.4444120">
        <ele>769.6</ele>
        <time>2019-08-13T12:53:02Z</time>
      </trkpt>
      <trkpt lat="40.2958440" lon="-4.4444270">
        <ele>769.8</ele>
        <time>2019-08-13T12:53:05Z</time>
      </trkpt>
      <trkpt lat="40.2958140" lon="-4.4444350">
        <ele>769.9</ele>
        <time>2019-08-13T12:53:08Z</time>
      </trkpt>
      <trkpt lat="40.2957840" lon="-4.4444450">
        <ele>770.1</ele>
        <time>2019-08-13T12:53:11Z</time>
      </trkpt>
      <trkpt lat="40.2957530" lon="-4.4444580">
        <ele>770.2</ele>
        <time>2019-08-13T12:53:14Z</time>
      </trkpt>
      <trkpt lat="40.2957230" lon="-4.4444690">
        <ele>770.4</ele>
        <time>2019-08-13T12:53:17Z</time>
      </trkpt>
      <trkpt lat="40.2956940" lon="-4.4444880">
        <ele>770.5</ele>
        <time>2019-08-13T12:53:20Z</time>
      </trkpt>
      <trkpt lat="40.2956680" lon="-4.4445080">
        <ele>770.7</ele>
        <time>2019-08-13T12:53:23Z</time>
      </trkpt>
      <trkpt lat="40.2956420" lon="-4.4445290">
        <ele>770.8</ele>
        <time>2019-08-13T12:53:26Z</time>
      </trkpt>
      <trkpt lat="40.2956150" lon="-4.4445530">
        <ele>771.0</ele>
        <time>2019-08-13T12:53:29Z</time>
      </trkpt>
      <trkpt lat="40.2955910" lon="-4.4445760">
        <ele>771.1</ele>
        <time>2019-08-13T12:53:32Z</time>
      </trkpt>
      <trkpt lat="40.2955620" lon="-4.4445960">
        <ele>771.4</ele>
        <time>2019-08-13T12:53:35Z</time>
      </trkpt>
      <trkpt lat="40.2955350" lon="-4.4446040">
        <ele>771.4</ele>
        <time>2019-08-13T12:53:37Z</time>
      </trkpt>
      <trkpt lat="40.2955060" lon="-4.4446100">
        <ele>771.4</ele>
        <time>2019-08-13T12:53:39Z</time>
      </trkpt>
      <trkpt lat="40.2954780" lon="-4.4446080">
        <ele>771.5</ele>
        <time>2019-08-13T12:53:41Z</time>
      </trkpt>
      <trkpt lat="40.2954500" lon="-4.4445980">
        <ele>771.7</ele>
        <time>2019-08-13T12:53:43Z</time>
      </trkpt>
      <trkpt lat="40.2954130" lon="-4.4445920">
        <ele>772.0</ele>
        <time>2019-08-13T12:53:46Z</time>
      </trkpt>
      <trkpt lat="40.2953730" lon="-4.4445890">
        <ele>772.5</ele>
        <time>2019-08-13T12:53:49Z</time>
      </trkpt>
      <trkpt lat="40.2953460" lon="-4.4445910">
        <ele>772.7</ele>
        <time>2019-08-13T12:53:51Z</time>
      </trkpt>
      <trkpt lat="40.2953130" lon="-4.4446010">
        <ele>773.0</ele>
        <time>2019-08-13T12:53:54Z</time>
      </trkpt>
      <trkpt lat="40.2952800" lon="-4.4446110">
        <ele>773.3</ele>
        <time>2019-08-13T12:53:57Z</time>
      </trkpt>
      <trkpt lat="40.2952500" lon="-4.4446310">
        <ele>773.6</ele>
        <time>2019-08-13T12:54:00Z</time>
      </trkpt>
      <trkpt lat="40.2952150" lon="-4.4446490">
        <ele>774.0</ele>
        <time>2019-08-13T12:54:03Z</time>
      </trkpt>
      <trkpt lat="40.2951820" lon="-4.4446600">
        <ele>774.3</ele>
        <time>2019-08-13T12:54:06Z</time>
      </trkpt>
      <trkpt lat="40.2951480" lon="-4.4446680">
        <ele>774.7</ele>
        <time>2019-08-13T12:54:09Z</time>
      </trkpt>
      <trkpt lat="40.2951140" lon="-4.4446740">
        <ele>775.0</ele>
        <time>2019-08-13T12:54:12Z</time>
      </trkpt>
      <trkpt lat="40.2950810" lon="-4.4446820">
        <ele>775.3</ele>
        <time>2019-08-13T12:54:15Z</time>
      </trkpt>
      <trkpt lat="40.2950480" lon="-4.4446890">
        <ele>775.6</ele>
        <time>2019-08-13T12:54:18Z</time>
      </trkpt>
      <trkpt lat="40.2950130" lon="-4.4446970">
        <ele>775.8</ele>
        <time>2019-08-13T12:54:21Z</time>
      </trkpt>
      <trkpt lat="40.2949820" lon="-4.4447030">
        <ele>776.0</ele>
        <time>2019-08-13T12:54:24Z</time>
      </trkpt>
      <trkpt lat="40.2949500" lon="-4.4447120">
        <ele>776.2</ele>
        <time>2019-08-13T12:54:27Z</time>
      </trkpt>
      <trkpt lat="40.2949160" lon="-4.4447280">
        <ele>776.5</ele>
        <time>2019-08-13T12:54:31Z</time>
      </trkpt>
      <trkpt lat="40.2948910" lon="-4.4447480">
        <ele>776.7</ele>
        <time>2019-08-13T12:54:34Z</time>
      </trkpt>
      <trkpt lat="40.2948650" lon="-4.4447780">
        <ele>776.9</ele>
        <time>2019-08-13T12:54:37Z</time>
      </trkpt>
      <trkpt lat="40.2948420" lon="-4.4448110">
        <ele>777.2</ele>
        <time>2019-08-13T12:54:40Z</time>
      </trkpt>
      <trkpt lat="40.2948180" lon="-4.4448480">
        <ele>777.4</ele>
        <time>2019-08-13T12:54:43Z</time>
      </trkpt>
      <trkpt lat="40.2947960" lon="-4.4448770">
        <ele>777.6</ele>
        <time>2019-08-13T12:54:46Z</time>
      </trkpt>
      <trkpt lat="40.2947700" lon="-4.4448990">
        <ele>777.9</ele>
        <time>2019-08-13T12:54:49Z</time>
      </trkpt>
      <trkpt lat="40.2947370" lon="-4.4449070">
        <ele>778.1</ele>
        <time>2019-08-13T12:54:52Z</time>
      </trkpt>
      <trkpt lat="40.2947030" lon="-4.4448980">
        <ele>778.1</ele>
        <time>2019-08-13T12:54:55Z</time>
      </trkpt>
      <trkpt lat="40.2946710" lon="-4.4448790">
        <ele>778.0</ele>
        <time>2019-08-13T12:54:58Z</time>
      </trkpt>
      <trkpt lat="40.2946450" lon="-4.4448620">
        <ele>778.0</ele>
        <time>2019-08-13T12:55:01Z</time>
      </trkpt>
      <trkpt lat="40.2946140" lon="-4.4448330">
        <ele>777.9</ele>
        <time>2019-08-13T12:55:45Z</time>
      </trkpt>
      <trkpt lat="40.2945830" lon="-4.4448160">
        <ele>777.9</ele>
        <time>2019-08-13T12:55:49Z</time>
      </trkpt>
      <trkpt lat="40.2945570" lon="-4.4448070">
        <ele>777.8</ele>
        <time>2019-08-13T12:55:53Z</time>
      </trkpt>
      <trkpt lat="40.2945130" lon="-4.4448190">
        <ele>777.7</ele>
        <time>2019-08-13T12:56:09Z</time>
      </trkpt>
      <trkpt lat="40.2944580" lon="-4.4448170">
        <ele>777.5</ele>
        <time>2019-08-13T12:56:11Z</time>
      </trkpt>
      <trkpt lat="40.2944250" lon="-4.4448130">
        <ele>777.4</ele>
        <time>2019-08-13T12:56:12Z</time>
      </trkpt>
      <trkpt lat="40.2943890" lon="-4.4448040">
        <ele>777.3</ele>
        <time>2019-08-13T12:56:13Z</time>
      </trkpt>
      <trkpt lat="40.2943480" lon="-4.4447960">
        <ele>777.2</ele>
        <time>2019-08-13T12:56:14Z</time>
      </trkpt>
      <trkpt lat="40.2943080" lon="-4.4447870">
        <ele>777.1</ele>
        <time>2019-08-13T12:56:15Z</time>
      </trkpt>
      <trkpt lat="40.2942660" lon="-4.4447820">
        <ele>777.0</ele>
        <time>2019-08-13T12:56:16Z</time>
      </trkpt>
      <trkpt lat="40.2942200" lon="-4.4447770">
        <ele>776.9</ele>
        <time>2019-08-13T12:56:17Z</time>
      </trkpt>
      <trkpt lat="40.2941750" lon="-4.4447700">
        <ele>776.8</ele>
        <time>2019-08-13T12:56:18Z</time>
      </trkpt>
      <trkpt lat="40.2941320" lon="-4.4447640">
        <ele>776.7</ele>
        <time>2019-08-13T12:56:19Z</time>
      </trkpt>
      <trkpt lat="40.2940860" lon="-4.4447610">
        <ele>776.6</ele>
        <time>2019-08-13T12:56:20Z</time>
      </trkpt>
      <trkpt lat="40.2940400" lon="-4.4447590">
        <ele>776.6</ele>
        <time>2019-08-13T12:56:21Z</time>
      </trkpt>
      <trkpt lat="40.2939970" lon="-4.4447500">
        <ele>776.5</ele>
        <time>2019-08-13T12:56:22Z</time>
      </trkpt>
      <trkpt lat="40.2939580" lon="-4.4447330">
        <ele>776.4</ele>
        <time>2019-08-13T12:56:23Z</time>
      </trkpt>
      <trkpt lat="40.2939280" lon="-4.4447080">
        <ele>776.2</ele>
        <time>2019-08-13T12:56:24Z</time>
      </trkpt>
      <trkpt lat="40.2939080" lon="-4.4446730">
        <ele>776.0</ele>
        <time>2019-08-13T12:56:25Z</time>
      </trkpt>
      <trkpt lat="40.2939010" lon="-4.4446290">
        <ele>775.8</ele>
        <time>2019-08-13T12:56:26Z</time>
      </trkpt>
      <trkpt lat="40.2939050" lon="-4.4445840">
        <ele>775.7</ele>
        <time>2019-08-13T12:56:27Z</time>
      </trkpt>
      <trkpt lat="40.2939120" lon="-4.4445400">
        <ele>775.5</ele>
        <time>2019-08-13T12:56:28Z</time>
      </trkpt>
      <trkpt lat="40.2939150" lon="-4.4444960">
        <ele>775.3</ele>
        <time>2019-08-13T12:56:29Z</time>
      </trkpt>
      <trkpt lat="40.2939150" lon="-4.4444560">
        <ele>775.2</ele>
        <time>2019-08-13T12:56:30Z</time>
      </trkpt>
      <trkpt lat="40.2939150" lon="-4.4443940">
        <ele>775.0</ele>
        <time>2019-08-13T12:56:32Z</time>
      </trkpt>
      <trkpt lat="40.2939100" lon="-4.4443380">
        <ele>774.8</ele>
        <time>2019-08-13T12:56:34Z</time>
      </trkpt>
      <trkpt lat="40.2939000" lon="-4.4442810">
        <ele>774.6</ele>
        <time>2019-08-13T12:56:36Z</time>
      </trkpt>
      <trkpt lat="40.2938950" lon="-4.4442230">
        <ele>774.0</ele>
        <time>2019-08-13T12:56:38Z</time>
      </trkpt>
      <trkpt lat="40.2939140" lon="-4.4441710">
        <ele>773.6</ele>
        <time>2019-08-13T12:56:40Z</time>
      </trkpt>
      <trkpt lat="40.2939390" lon="-4.4441490">
        <ele>773.3</ele>
        <time>2019-08-13T12:56:41Z</time>
      </trkpt>
      <trkpt lat="40.2939740" lon="-4.4441360">
        <ele>773.1</ele>
        <time>2019-08-13T12:56:42Z</time>
      </trkpt>
      <trkpt lat="40.2940120" lon="-4.4441290">
        <ele>772.8</ele>
        <time>2019-08-13T12:56:43Z</time>
      </trkpt>
      <trkpt lat="40.2940540" lon="-4.4441240">
        <ele>772.5</ele>
        <time>2019-08-13T12:56:44Z</time>
      </trkpt>
      <trkpt lat="40.2941010" lon="-4.4441190">
        <ele>772.2</ele>
        <time>2019-08-13T12:56:45Z</time>
      </trkpt>
      <trkpt lat="40.2941540" lon="-4.4441090">
        <ele>771.8</ele>
        <time>2019-08-13T12:56:46Z</time>
      </trkpt>
      <trkpt lat="40.2942030" lon="-4.4441020">
        <ele>771.4</ele>
        <time>2019-08-13T12:56:47Z</time>
      </trkpt>
      <trkpt lat="40.2942470" lon="-4.4440920">
        <ele>771.2</ele>
        <time>2019-08-13T12:56:48Z</time>
      </trkpt>
      <trkpt lat="40.2942900" lon="-4.4440770">
        <ele>771.0</ele>
        <time>2019-08-13T12:56:49Z</time>
      </trkpt>
      <trkpt lat="40.2943310" lon="-4.4440580">
        <ele>770.8</ele>
        <time>2019-08-13T12:56:50Z</time>
      </trkpt>
      <trkpt lat="40.2943710" lon="-4.4440340">
        <ele>770.6</ele>
        <time>2019-08-13T12:56:51Z</time>
      </trkpt>
      <trkpt lat="40.2944090" lon="-4.4440010">
        <ele>770.3</ele>
        <time>2019-08-13T12:56:52Z</time>
      </trkpt>
      <trkpt lat="40.2944490" lon="-4.4439650">
        <ele>770.1</ele>
        <time>2019-08-13T12:56:53Z</time>
      </trkpt>
      <trkpt lat="40.2944940" lon="-4.4439210">
        <ele>769.9</ele>
        <time>2019-08-13T12:56:54Z</time>
      </trkpt>
      <trkpt lat="40.2945470" lon="-4.4438770">
        <ele>769.7</ele>
        <time>2019-08-13T12:56:55Z</time>
      </trkpt>
      <trkpt lat="40.2946030" lon="-4.4438280">
        <ele>769.5</ele>
        <time>2019-08-13T12:56:56Z</time>
      </trkpt>
      <trkpt lat="40.2946580" lon="-4.4437830">
        <ele>769.3</ele>
        <time>2019-08-13T12:56:57Z</time>
      </trkpt>
      <trkpt lat="40.2947100" lon="-4.4437440">
        <ele>769.1</ele>
        <time>2019-08-13T12:56:58Z</time>
      </trkpt>
      <trkpt lat="40.2947630" lon="-4.4437140">
        <ele>768.9</ele>
        <time>2019-08-13T12:56:59Z</time>
      </trkpt>
      <trkpt lat="40.2948160" lon="-4.4436920">
        <ele>768.7</ele>
        <time>2019-08-13T12:57:00Z</time>
      </trkpt>
      <trkpt lat="40.2948690" lon="-4.4436740">
        <ele>768.5</ele>
        <time>2019-08-13T12:57:01Z</time>
      </trkpt>
      <trkpt lat="40.2949220" lon="-4.4436470">
        <ele>768.3</ele>
        <time>2019-08-13T12:57:02Z</time>
      </trkpt>
      <trkpt lat="40.2949710" lon="-4.4436070">
        <ele>768.1</ele>
        <time>2019-08-13T12:57:03Z</time>
      </trkpt>
      <trkpt lat="40.2950180" lon="-4.4435630">
        <ele>767.9</ele>
        <time>2019-08-13T12:57:04Z</time>
      </trkpt>
      <trkpt lat="40.2950690" lon="-4.4435230">
        <ele>767.8</ele>
        <time>2019-08-13T12:57:05Z</time>
      </trkpt>
      <trkpt lat="40.2951230" lon="-4.4434910">
        <ele>767.6</ele>
        <time>2019-08-13T12:57:06Z</time>
      </trkpt>
      <trkpt lat="40.2951780" lon="-4.4434630">
        <ele>767.5</ele>
        <time>2019-08-13T12:57:07Z</time>
      </trkpt>
      <trkpt lat="40.2952320" lon="-4.4434320">
        <ele>767.3</ele>
        <time>2019-08-13T12:57:08Z</time>
      </trkpt>
      <trkpt lat="40.2952840" lon="-4.4434020">
        <ele>767.2</ele>
        <time>2019-08-13T12:57:09Z</time>
      </trkpt>
      <trkpt lat="40.2953320" lon="-4.4433750">
        <ele>767.1</ele>
        <time>2019-08-13T12:57:10Z</time>
      </trkpt>
      <trkpt lat="40.2953780" lon="-4.4433670">
        <ele>766.9</ele>
        <time>2019-08-13T12:57:11Z</time>
      </trkpt>
      <trkpt lat="40.2954200" lon="-4.4433770">
        <ele>766.7</ele>
        <time>2019-08-13T12:57:12Z</time>
      </trkpt>
      <trkpt lat="40.2954600" lon="-4.4433890">
        <ele>766.4</ele>
        <time>2019-08-13T12:57:13Z</time>
      </trkpt>
      <trkpt lat="40.2954950" lon="-4.4433940">
        <ele>766.1</ele>
        <time>2019-08-13T12:57:14Z</time>
      </trkpt>
      <trkpt lat="40.2955240" lon="-4.4433870">
        <ele>765.9</ele>
        <time>2019-08-13T12:57:15Z</time>
      </trkpt>
      <trkpt lat="40.2955480" lon="-4.4433710">
        <ele>765.8</ele>
        <time>2019-08-13T12:57:16Z</time>
      </trkpt>
      <trkpt lat="40.2955740" lon="-4.4433510">
        <ele>765.6</ele>
        <time>2019-08-13T12:57:18Z</time>
      </trkpt>
      <trkpt lat="40.2956070" lon="-4.4433080">
        <ele>765.4</ele>
        <time>2019-08-13T12:57:22Z</time>
      </trkpt>
      <trkpt lat="40.2956340" lon="-4.4432830">
        <ele>765.2</ele>
        <time>2019-08-13T12:57:23Z</time>
      </trkpt>
      <trkpt lat="40.2956660" lon="-4.4432560">
        <ele>765.1</ele>
        <time>2019-08-13T12:57:24Z</time>
      </trkpt>
      <trkpt lat="40.2956980" lon="-4.4432260">
        <ele>764.9</ele>
        <time>2019-08-13T12:57:25Z</time>
      </trkpt>
      <trkpt lat="40.2957280" lon="-4.4431960">
        <ele>764.7</ele>
        <time>2019-08-13T12:57:26Z</time>
      </trkpt>
      <trkpt lat="40.2957490" lon="-4.4431680">
        <ele>764.7</ele>
        <time>2019-08-13T12:57:27Z</time>
      </trkpt>
      <trkpt lat="40.2957700" lon="-4.4431400">
        <ele>764.6</ele>
        <time>2019-08-13T12:57:28Z</time>
      </trkpt>
      <trkpt lat="40.2957920" lon="-4.4431130">
        <ele>764.5</ele>
        <time>2019-08-13T12:57:29Z</time>
      </trkpt>
      <trkpt lat="40.2958100" lon="-4.4430830">
        <ele>764.4</ele>
        <time>2019-08-13T12:57:30Z</time>
      </trkpt>
      <trkpt lat="40.2958210" lon="-4.4430430">
        <ele>764.4</ele>
        <time>2019-08-13T12:57:31Z</time>
      </trkpt>
      <trkpt lat="40.2958340" lon="-4.4429960">
        <ele>764.3</ele>
        <time>2019-08-13T12:57:32Z</time>
      </trkpt>
      <trkpt lat="40.2958440" lon="-4.4429500">
        <ele>764.3</ele>
        <time>2019-08-13T12:57:33Z</time>
      </trkpt>
      <trkpt lat="40.2958480" lon="-4.4429010">
        <ele>764.3</ele>
        <time>2019-08-13T12:57:34Z</time>
      </trkpt>
      <trkpt lat="40.2958490" lon="-4.4428490">
        <ele>764.3</ele>
        <time>2019-08-13T12:57:35Z</time>
      </trkpt>
      <trkpt lat="40.2958490" lon="-4.4427940">
        <ele>764.2</ele>
        <time>2019-08-13T12:57:36Z</time>
      </trkpt>
      <trkpt lat="40.2958510" lon="-4.4427440">
        <ele>764.2</ele>
        <time>2019-08-13T12:57:37Z</time>
      </trkpt>
      <trkpt lat="40.2958500" lon="-4.4426920">
        <ele>764.2</ele>
        <time>2019-08-13T12:57:38Z</time>
      </trkpt>
      <trkpt lat="40.2958480" lon="-4.4426400">
        <ele>764.2</ele>
        <time>2019-08-13T12:57:39Z</time>
      </trkpt>
      <trkpt lat="40.2958480" lon="-4.4425880">
        <ele>764.1</ele>
        <time>2019-08-13T12:57:40Z</time>
      </trkpt>
      <trkpt lat="40.2958530" lon="-4.4425400">
        <ele>764.1</ele>
        <time>2019-08-13T12:57:41Z</time>
      </trkpt>
      <trkpt lat="40.2958590" lon="-4.4424930">
        <ele>764.2</ele>
        <time>2019-08-13T12:57:42Z</time>
      </trkpt>
      <trkpt lat="40.2958660" lon="-4.4424460">
        <ele>764.2</ele>
        <time>2019-08-13T12:57:43Z</time>
      </trkpt>
      <trkpt lat="40.2958770" lon="-4.4424030">
        <ele>764.3</ele>
        <time>2019-08-13T12:57:44Z</time>
      </trkpt>
      <trkpt lat="40.2958940" lon="-4.4423730">
        <ele>764.4</ele>
        <time>2019-08-13T12:57:45Z</time>
      </trkpt>
      <trkpt lat="40.2959370" lon="-4.4423420">
        <ele>764.7</ele>
        <time>2019-08-13T12:57:47Z</time>
      </trkpt>
      <trkpt lat="40.2959870" lon="-4.4423090">
        <ele>764.9</ele>
        <time>2019-08-13T12:57:49Z</time>
      </trkpt>
      <trkpt lat="40.2960170" lon="-4.4422890">
        <ele>765.0</ele>
        <time>2019-08-13T12:57:50Z</time>
      </trkpt>
      <trkpt lat="40.2960460" lon="-4.4422690">
        <ele>765.1</ele>
        <time>2019-08-13T12:57:51Z</time>
      </trkpt>
      <trkpt lat="40.2960740" lon="-4.4422520">
        <ele>765.2</ele>
        <time>2019-08-13T12:57:52Z</time>
      </trkpt>
      <trkpt lat="40.2961030" lon="-4.4422380">
        <ele>765.3</ele>
        <time>2019-08-13T12:57:53Z</time>
      </trkpt>
      <trkpt lat="40.2961330" lon="-4.4422290">
        <ele>765.4</ele>
        <time>2019-08-13T12:57:54Z</time>
      </trkpt>
      <trkpt lat="40.2961620" lon="-4.4422240">
        <ele>765.4</ele>
        <time>2019-08-13T12:57:55Z</time>
      </trkpt>
      <trkpt lat="40.2961910" lon="-4.4422210">
        <ele>765.5</ele>
        <time>2019-08-13T12:57:56Z</time>
      </trkpt>
      <trkpt lat="40.2962190" lon="-4.4422200">
        <ele>765.5</ele>
        <time>2019-08-13T12:57:57Z</time>
      </trkpt>
      <trkpt lat="40.2962460" lon="-4.4422230">
        <ele>765.5</ele>
        <time>2019-08-13T12:57:58Z</time>
      </trkpt>
      <trkpt lat="40.2962960" lon="-4.4422360">
        <ele>765.6</ele>
        <time>2019-08-13T12:58:00Z</time>
      </trkpt>
      <trkpt lat="40.2963400" lon="-4.4422500">
        <ele>765.7</ele>
        <time>2019-08-13T12:58:02Z</time>
      </trkpt>
      <trkpt lat="40.2963790" lon="-4.4422660">
        <ele>765.7</ele>
        <time>2019-08-13T12:58:04Z</time>
      </trkpt>
      <trkpt lat="40.2964170" lon="-4.4422780">
        <ele>765.8</ele>
        <time>2019-08-13T12:58:06Z</time>
      </trkpt>
      <trkpt lat="40.2964550" lon="-4.4422870">
        <ele>765.9</ele>
        <time>2019-08-13T12:58:08Z</time>
      </trkpt>
      <trkpt lat="40.2964910" lon="-4.4422960">
        <ele>765.9</ele>
        <time>2019-08-13T12:58:10Z</time>
      </trkpt>
      <trkpt lat="40.2965310" lon="-4.4423050">
        <ele>766.0</ele>
        <time>2019-08-13T12:58:12Z</time>
      </trkpt>
      <trkpt lat="40.2965700" lon="-4.4423150">
        <ele>766.1</ele>
        <time>2019-08-13T12:58:14Z</time>
      </trkpt>
      <trkpt lat="40.2966060" lon="-4.4423270">
        <ele>766.2</ele>
        <time>2019-08-13T12:58:16Z</time>
      </trkpt>
      <trkpt lat="40.2966440" lon="-4.4423340">
        <ele>766.3</ele>
        <time>2019-08-13T12:58:18Z</time>
      </trkpt>
      <trkpt lat="40.2966810" lon="-4.4423250">
        <ele>766.4</ele>
        <time>2019-08-13T12:58:20Z</time>
      </trkpt>
      <trkpt lat="40.2967170" lon="-4.4423020">
        <ele>766.6</ele>
        <time>2019-08-13T12:58:22Z</time>
      </trkpt>
      <trkpt lat="40.2967340" lon="-4.4422630">
        <ele>766.7</ele>
        <time>2019-08-13T12:58:24Z</time>
      </trkpt>
      <trkpt lat="40.2967420" lon="-4.4422030">
        <ele>767.1</ele>
        <time>2019-08-13T12:58:26Z</time>
      </trkpt>
      <trkpt lat="40.2967470" lon="-4.4421660">
        <ele>767.4</ele>
        <time>2019-08-13T12:58:27Z</time>
      </trkpt>
      <trkpt lat="40.2967530" lon="-4.4421280">
        <ele>767.7</ele>
        <time>2019-08-13T12:58:28Z</time>
      </trkpt>
      <trkpt lat="40.2967580" lon="-4.4420940">
        <ele>768.0</ele>
        <time>2019-08-13T12:58:29Z</time>
      </trkpt>
      <trkpt lat="40.2967720" lon="-4.4420370">
        <ele>768.7</ele>
        <time>2019-08-13T12:58:31Z</time>
      </trkpt>
      <trkpt lat="40.2967960" lon="-4.4420060">
        <ele>769.1</ele>
        <time>2019-08-13T12:58:33Z</time>
      </trkpt>
      <trkpt lat="40.2968300" lon="-4.4419900">
        <ele>770.1</ele>
        <time>2019-08-13T12:58:39Z</time>
      </trkpt>
      <trkpt lat="40.2968680" lon="-4.4419930">
        <ele>770.5</ele>
        <time>2019-08-13T12:58:41Z</time>
      </trkpt>
      <trkpt lat="40.2969080" lon="-4.4420170">
        <ele>771.0</ele>
        <time>2019-08-13T12:58:43Z</time>
      </trkpt>
      <trkpt lat="40.2969500" lon="-4.4420460">
        <ele>771.5</ele>
        <time>2019-08-13T12:58:45Z</time>
      </trkpt>
      <trkpt lat="40.2969930" lon="-4.4420760">
        <ele>772.0</ele>
        <time>2019-08-13T12:58:47Z</time>
      </trkpt>
      <trkpt lat="40.2970360" lon="-4.4421100">
        <ele>772.4</ele>
        <time>2019-08-13T12:58:49Z</time>
      </trkpt>
      <trkpt lat="40.2970830" lon="-4.4421410">
        <ele>772.8</ele>
        <time>2019-08-13T12:58:51Z</time>
      </trkpt>
      <trkpt lat="40.2971300" lon="-4.4421650">
        <ele>773.3</ele>
        <time>2019-08-13T12:58:53Z</time>
      </trkpt>
      <trkpt lat="40.2971780" lon="-4.4421810">
        <ele>773.7</ele>
        <time>2019-08-13T12:58:55Z</time>
      </trkpt>
      <trkpt lat="40.2972270" lon="-4.4421880">
        <ele>774.0</ele>
        <time>2019-08-13T12:58:57Z</time>
      </trkpt>
      <trkpt lat="40.2972750" lon="-4.4421920">
        <ele>774.4</ele>
        <time>2019-08-13T12:58:59Z</time>
      </trkpt>
      <trkpt lat="40.2973190" lon="-4.4421960">
        <ele>774.7</ele>
        <time>2019-08-13T12:59:01Z</time>
      </trkpt>
      <trkpt lat="40.2973630" lon="-4.4422010">
        <ele>775.1</ele>
        <time>2019-08-13T12:59:03Z</time>
      </trkpt>
      <trkpt lat="40.2974070" lon="-4.4422050">
        <ele>775.4</ele>
        <time>2019-08-13T12:59:05Z</time>
      </trkpt>
      <trkpt lat="40.2974520" lon="-4.4422090">
        <ele>775.7</ele>
        <time>2019-08-13T12:59:07Z</time>
      </trkpt>
      <trkpt lat="40.2974960" lon="-4.4422130">
        <ele>776.0</ele>
        <time>2019-08-13T12:59:09Z</time>
      </trkpt>
      <trkpt lat="40.2975440" lon="-4.4422200">
        <ele>776.3</ele>
        <time>2019-08-13T12:59:11Z</time>
      </trkpt>
      <trkpt lat="40.2975880" lon="-4.4422250">
        <ele>776.7</ele>
        <time>2019-08-13T12:59:13Z</time>
      </trkpt>
      <trkpt lat="40.2976320" lon="-4.4422290">
        <ele>777.0</ele>
        <time>2019-08-13T12:59:15Z</time>
      </trkpt>
      <trkpt lat="40.2976780" lon="-4.4422330">
        <ele>777.3</ele>
        <time>2019-08-13T12:59:17Z</time>
      </trkpt>
      <trkpt lat="40.2977240" lon="-4.4422410">
        <ele>777.6</ele>
        <time>2019-08-13T12:59:19Z</time>
      </trkpt>
      <trkpt lat="40.2977710" lon="-4.4422470">
        <ele>777.9</ele>
        <time>2019-08-13T12:59:21Z</time>
      </trkpt>
      <trkpt lat="40.2978150" lon="-4.4422480">
        <ele>778.2</ele>
        <time>2019-08-13T12:59:23Z</time>
      </trkpt>
      <trkpt lat="40.2978590" lon="-4.4422540">
        <ele>778.5</ele>
        <time>2019-08-13T12:59:25Z</time>
      </trkpt>
      <trkpt lat="40.2979030" lon="-4.4422610">
        <ele>778.8</ele>
        <time>2019-08-13T12:59:27Z</time>
      </trkpt>
      <trkpt lat="40.2979480" lon="-4.4422670">
        <ele>779.1</ele>
        <time>2019-08-13T12:59:29Z</time>
      </trkpt>
      <trkpt lat="40.2979920" lon="-4.4422760">
        <ele>779.3</ele>
        <time>2019-08-13T12:59:31Z</time>
      </trkpt>
      <trkpt lat="40.2980350" lon="-4.4422890">
        <ele>779.6</ele>
        <time>2019-08-13T12:59:33Z</time>
      </trkpt>
      <trkpt lat="40.2980740" lon="-4.4423090">
        <ele>779.8</ele>
        <time>2019-08-13T12:59:35Z</time>
      </trkpt>
      <trkpt lat="40.2981170" lon="-4.4423250">
        <ele>780.0</ele>
        <time>2019-08-13T12:59:37Z</time>
      </trkpt>
      <trkpt lat="40.2981600" lon="-4.4423440">
        <ele>780.3</ele>
        <time>2019-08-13T12:59:39Z</time>
      </trkpt>
      <trkpt lat="40.2982020" lon="-4.4423630">
        <ele>780.5</ele>
        <time>2019-08-13T12:59:41Z</time>
      </trkpt>
      <trkpt lat="40.2982440" lon="-4.4423820">
        <ele>780.8</ele>
        <time>2019-08-13T12:59:43Z</time>
      </trkpt>
      <trkpt lat="40.2982870" lon="-4.4424050">
        <ele>781.1</ele>
        <time>2019-08-13T12:59:45Z</time>
      </trkpt>
      <trkpt lat="40.2983300" lon="-4.4424280">
        <ele>781.5</ele>
        <time>2019-08-13T12:59:47Z</time>
      </trkpt>
      <trkpt lat="40.2983680" lon="-4.4424480">
        <ele>781.8</ele>
        <time>2019-08-13T12:59:49Z</time>
      </trkpt>
      <trkpt lat="40.2984130" lon="-4.4424680">
        <ele>782.1</ele>
        <time>2019-08-13T12:59:51Z</time>
      </trkpt>
      <trkpt lat="40.2984530" lon="-4.4424900">
        <ele>782.3</ele>
        <time>2019-08-13T12:59:53Z</time>
      </trkpt>
      <trkpt lat="40.2984950" lon="-4.4425110">
        <ele>782.4</ele>
        <time>2019-08-13T12:59:55Z</time>
      </trkpt>
      <trkpt lat="40.2985350" lon="-4.4425280">
        <ele>782.6</ele>
        <time>2019-08-13T12:59:57Z</time>
      </trkpt>
      <trkpt lat="40.2985740" lon="-4.4425450">
        <ele>782.8</ele>
        <time>2019-08-13T12:59:59Z</time>
      </trkpt>
      <trkpt lat="40.2986190" lon="-4.4425600">
        <ele>782.9</ele>
        <time>2019-08-13T13:00:01Z</time>
      </trkpt>
      <trkpt lat="40.2986640" lon="-4.4425680">
        <ele>783.1</ele>
        <time>2019-08-13T13:00:03Z</time>
      </trkpt>
      <trkpt lat="40.2987090" lon="-4.4425710">
        <ele>783.3</ele>
        <time>2019-08-13T13:00:05Z</time>
      </trkpt>
      <trkpt lat="40.2987520" lon="-4.4425710">
        <ele>783.6</ele>
        <time>2019-08-13T13:00:07Z</time>
      </trkpt>
      <trkpt lat="40.2987960" lon="-4.4425680">
        <ele>783.9</ele>
        <time>2019-08-13T13:00:09Z</time>
      </trkpt>
      <trkpt lat="40.2988420" lon="-4.4425630">
        <ele>784.2</ele>
        <time>2019-08-13T13:00:11Z</time>
      </trkpt>
      <trkpt lat="40.2988840" lon="-4.4425550">
        <ele>784.5</ele>
        <time>2019-08-13T13:00:13Z</time>
      </trkpt>
      <trkpt lat="40.2989250" lon="-4.4425460">
        <ele>784.7</ele>
        <time>2019-08-13T13:00:15Z</time>
      </trkpt>
      <trkpt lat="40.2989680" lon="-4.4425380">
        <ele>785.0</ele>
        <time>2019-08-13T13:00:17Z</time>
      </trkpt>
      <trkpt lat="40.2990100" lon="-4.4425290">
        <ele>785.2</ele>
        <time>2019-08-13T13:00:19Z</time>
      </trkpt>
      <trkpt lat="40.2990520" lon="-4.4425170">
        <ele>785.4</ele>
        <time>2019-08-13T13:00:21Z</time>
      </trkpt>
      <trkpt lat="40.2990900" lon="-4.4425050">
        <ele>785.7</ele>
        <time>2019-08-13T13:00:23Z</time>
      </trkpt>
      <trkpt lat="40.2991270" lon="-4.4424910">
        <ele>785.9</ele>
        <time>2019-08-13T13:00:25Z</time>
      </trkpt>
      <trkpt lat="40.2991630" lon="-4.4424790">
        <ele>786.2</ele>
        <time>2019-08-13T13:00:27Z</time>
      </trkpt>
      <trkpt lat="40.2992000" lon="-4.4424680">
        <ele>786.4</ele>
        <time>2019-08-13T13:00:29Z</time>
      </trkpt>
      <trkpt lat="40.2992340" lon="-4.4424560">
        <ele>786.7</ele>
        <time>2019-08-13T13:00:31Z</time>
      </trkpt>
      <trkpt lat="40.2992680" lon="-4.4424450">
        <ele>786.9</ele>
        <time>2019-08-13T13:00:33Z</time>
      </trkpt>
      <trkpt lat="40.2992990" lon="-4.4424330">
        <ele>787.0</ele>
        <time>2019-08-13T13:00:35Z</time>
      </trkpt>
      <trkpt lat="40.2993260" lon="-4.4424170">
        <ele>787.2</ele>
        <time>2019-08-13T13:00:37Z</time>
      </trkpt>
      <trkpt lat="40.2993270" lon="-4.4423680">
        <ele>787.4</ele>
        <time>2019-08-13T13:00:52Z</time>
      </trkpt>
      <trkpt lat="40.2993050" lon="-4.4423360">
        <ele>787.5</ele>
        <time>2019-08-13T13:00:54Z</time>
      </trkpt>
      <trkpt lat="40.2992790" lon="-4.4422950">
        <ele>787.7</ele>
        <time>2019-08-13T13:00:56Z</time>
      </trkpt>
      <trkpt lat="40.2992600" lon="-4.4422700">
        <ele>787.8</ele>
        <time>2019-08-13T13:00:58Z</time>
      </trkpt>
      <trkpt lat="40.2993250" lon="-4.4422650">
        <ele>788.0</ele>
        <time>2019-08-13T13:01:18Z</time>
      </trkpt>
      <trkpt lat="40.2993730" lon="-4.4422970">
        <ele>788.2</ele>
        <time>2019-08-13T13:01:20Z</time>
      </trkpt>
      <trkpt lat="40.2993960" lon="-4.4423190">
        <ele>788.6</ele>
        <time>2019-08-13T13:01:21Z</time>
      </trkpt>
      <trkpt lat="40.2994180" lon="-4.4423380">
        <ele>789.0</ele>
        <time>2019-08-13T13:01:22Z</time>
      </trkpt>
      <trkpt lat="40.2994440" lon="-4.4423510">
        <ele>789.2</ele>
        <time>2019-08-13T13:01:23Z</time>
      </trkpt>
      <trkpt lat="40.2994710" lon="-4.4423650">
        <ele>789.5</ele>
        <time>2019-08-13T13:01:24Z</time>
      </trkpt>
      <trkpt lat="40.2995180" lon="-4.4423780">
        <ele>790.0</ele>
        <time>2019-08-13T13:01:26Z</time>
      </trkpt>
      <trkpt lat="40.2995610" lon="-4.4423710">
        <ele>790.3</ele>
        <time>2019-08-13T13:01:28Z</time>
      </trkpt>
      <trkpt lat="40.2996080" lon="-4.4423630">
        <ele>790.8</ele>
        <time>2019-08-13T13:01:30Z</time>
      </trkpt>
      <trkpt lat="40.2996560" lon="-4.4423610">
        <ele>791.2</ele>
        <time>2019-08-13T13:01:32Z</time>
      </trkpt>
      <trkpt lat="40.2997050" lon="-4.4423630">
        <ele>791.6</ele>
        <time>2019-08-13T13:01:34Z</time>
      </trkpt>
      <trkpt lat="40.2997320" lon="-4.4423680">
        <ele>791.8</ele>
        <time>2019-08-13T13:01:35Z</time>
      </trkpt>
      <trkpt lat="40.2997590" lon="-4.4423660">
        <ele>792.1</ele>
        <time>2019-08-13T13:01:36Z</time>
      </trkpt>
      <trkpt lat="40.2998090" lon="-4.4423580">
        <ele>792.5</ele>
        <time>2019-08-13T13:01:38Z</time>
      </trkpt>
      <trkpt lat="40.2998480" lon="-4.4423610">
        <ele>792.8</ele>
        <time>2019-08-13T13:01:40Z</time>
      </trkpt>
      <trkpt lat="40.2998970" lon="-4.4423540">
        <ele>793.2</ele>
        <time>2019-08-13T13:01:42Z</time>
      </trkpt>
      <trkpt lat="40.2999440" lon="-4.4423410">
        <ele>793.6</ele>
        <time>2019-08-13T13:01:44Z</time>
      </trkpt>
      <trkpt lat="40.2999840" lon="-4.4423140">
        <ele>793.9</ele>
        <time>2019-08-13T13:01:46Z</time>
      </trkpt>
      <trkpt lat="40.3000250" lon="-4.4422920">
        <ele>794.2</ele>
        <time>2019-08-13T13:01:48Z</time>
      </trkpt>
      <trkpt lat="40.3000690" lon="-4.4422670">
        <ele>794.6</ele>
        <time>2019-08-13T13:01:50Z</time>
      </trkpt>
      <trkpt lat="40.3001170" lon="-4.4422440">
        <ele>795.4</ele>
        <time>2019-08-13T13:01:52Z</time>
      </trkpt>
      <trkpt lat="40.3001620" lon="-4.4422200">
        <ele>795.7</ele>
        <time>2019-08-13T13:01:54Z</time>
      </trkpt>
      <trkpt lat="40.3002010" lon="-4.4422050">
        <ele>796.0</ele>
        <time>2019-08-13T13:01:56Z</time>
      </trkpt>
      <trkpt lat="40.3002430" lon="-4.4421910">
        <ele>796.2</ele>
        <time>2019-08-13T13:01:58Z</time>
      </trkpt>
      <trkpt lat="40.3002890" lon="-4.4421710">
        <ele>796.5</ele>
        <time>2019-08-13T13:02:00Z</time>
      </trkpt>
      <trkpt lat="40.3003450" lon="-4.4421500">
        <ele>796.9</ele>
        <time>2019-08-13T13:02:02Z</time>
      </trkpt>
      <trkpt lat="40.3003750" lon="-4.4421460">
        <ele>797.3</ele>
        <time>2019-08-13T13:02:03Z</time>
      </trkpt>
      <trkpt lat="40.3004210" lon="-4.4421190">
        <ele>797.7</ele>
        <time>2019-08-13T13:02:05Z</time>
      </trkpt>
      <trkpt lat="40.3004620" lon="-4.4420980">
        <ele>798.0</ele>
        <time>2019-08-13T13:02:07Z</time>
      </trkpt>
      <trkpt lat="40.3004970" lon="-4.4420720">
        <ele>798.4</ele>
        <time>2019-08-13T13:02:09Z</time>
      </trkpt>
      <trkpt lat="40.3005330" lon="-4.4420490">
        <ele>798.6</ele>
        <time>2019-08-13T13:02:11Z</time>
      </trkpt>
      <trkpt lat="40.3005730" lon="-4.4420320">
        <ele>798.9</ele>
        <time>2019-08-13T13:02:13Z</time>
      </trkpt>
      <trkpt lat="40.3006210" lon="-4.4420110">
        <ele>799.2</ele>
        <time>2019-08-13T13:02:15Z</time>
      </trkpt>
      <trkpt lat="40.3006670" lon="-4.4419860">
        <ele>799.5</ele>
        <time>2019-08-13T13:02:17Z</time>
      </trkpt>
      <trkpt lat="40.3007030" lon="-4.4419530">
        <ele>799.8</ele>
        <time>2019-08-13T13:02:19Z</time>
      </trkpt>
      <trkpt lat="40.3007420" lon="-4.4419290">
        <ele>800.0</ele>
        <time>2019-08-13T13:02:21Z</time>
      </trkpt>
      <trkpt lat="40.3007730" lon="-4.4419110">
        <ele>800.4</ele>
        <time>2019-08-13T13:02:23Z</time>
      </trkpt>
      <trkpt lat="40.3007980" lon="-4.4418550">
        <ele>800.6</ele>
        <time>2019-08-13T13:02:25Z</time>
      </trkpt>
      <trkpt lat="40.3008040" lon="-4.4418140">
        <ele>800.8</ele>
        <time>2019-08-13T13:02:26Z</time>
      </trkpt>
      <trkpt lat="40.3008180" lon="-4.4417840">
        <ele>800.9</ele>
        <time>2019-08-13T13:02:27Z</time>
      </trkpt>
      <trkpt lat="40.3008540" lon="-4.4417480">
        <ele>801.1</ele>
        <time>2019-08-13T13:02:29Z</time>
      </trkpt>
      <trkpt lat="40.3008920" lon="-4.4417170">
        <ele>801.3</ele>
        <time>2019-08-13T13:02:31Z</time>
      </trkpt>
      <trkpt lat="40.3009280" lon="-4.4416890">
        <ele>801.5</ele>
        <time>2019-08-13T13:02:33Z</time>
      </trkpt>
      <trkpt lat="40.3009600" lon="-4.4416640">
        <ele>801.6</ele>
        <time>2019-08-13T13:02:35Z</time>
      </trkpt>
      <trkpt lat="40.3009950" lon="-4.4416400">
        <ele>801.8</ele>
        <time>2019-08-13T13:02:37Z</time>
      </trkpt>
      <trkpt lat="40.3010310" lon="-4.4416160">
        <ele>802.2</ele>
        <time>2019-08-13T13:02:39Z</time>
      </trkpt>
      <trkpt lat="40.3010680" lon="-4.4415970">
        <ele>802.4</ele>
        <time>2019-08-13T13:02:41Z</time>
      </trkpt>
      <trkpt lat="40.3011120" lon="-4.4415720">
        <ele>802.7</ele>
        <time>2019-08-13T13:02:43Z</time>
      </trkpt>
      <trkpt lat="40.3011520" lon="-4.4415420">
        <ele>802.9</ele>
        <time>2019-08-13T13:02:45Z</time>
      </trkpt>
      <trkpt lat="40.3011990" lon="-4.4415160">
        <ele>803.2</ele>
        <time>2019-08-13T13:02:47Z</time>
      </trkpt>
      <trkpt lat="40.3012450" lon="-4.4414890">
        <ele>803.5</ele>
        <time>2019-08-13T13:02:49Z</time>
      </trkpt>
      <trkpt lat="40.3012830" lon="-4.4414750">
        <ele>803.7</ele>
        <time>2019-08-13T13:02:51Z</time>
      </trkpt>
      <trkpt lat="40.3013230" lon="-4.4414560">
        <ele>804.0</ele>
        <time>2019-08-13T13:02:53Z</time>
      </trkpt>
      <trkpt lat="40.3013630" lon="-4.4414490">
        <ele>804.2</ele>
        <time>2019-08-13T13:02:55Z</time>
      </trkpt>
      <trkpt lat="40.3013790" lon="-4.4414280">
        <ele>804.3</ele>
        <time>2019-08-13T13:02:58Z</time>
      </trkpt>
      <trkpt lat="40.3013590" lon="-4.4414340">
        <ele>804.4</ele>
        <time>2019-08-13T13:03:02Z</time>
      </trkpt>
      <trkpt lat="40.3013690" lon="-4.4413990">
        <ele>804.6</ele>
        <time>2019-08-13T13:03:07Z</time>
      </trkpt>
      <trkpt lat="40.3013920" lon="-4.4413750">
        <ele>804.7</ele>
        <time>2019-08-13T13:03:10Z</time>
      </trkpt>
      <trkpt lat="40.3014250" lon="-4.4413700">
        <ele>804.9</ele>
        <time>2019-08-13T13:03:13Z</time>
      </trkpt>
      <trkpt lat="40.3014490" lon="-4.4413810">
        <ele>805.0</ele>
        <time>2019-08-13T13:03:15Z</time>
      </trkpt>
      <trkpt lat="40.3014800" lon="-4.4413600">
        <ele>805.2</ele>
        <time>2019-08-13T13:03:17Z</time>
      </trkpt>
      <trkpt lat="40.3015070" lon="-4.4413450">
        <ele>805.4</ele>
        <time>2019-08-13T13:03:20Z</time>
      </trkpt>
      <trkpt lat="40.3015310" lon="-4.4413350">
        <ele>805.5</ele>
        <time>2019-08-13T13:03:24Z</time>
      </trkpt>
      <trkpt lat="40.3015340" lon="-4.4413710">
        <ele>805.7</ele>
        <time>2019-08-13T13:03:29Z</time>
      </trkpt>
      <trkpt lat="40.3014680" lon="-4.4414330">
        <ele>806.2</ele>
        <time>2019-08-13T13:04:06Z</time>
      </trkpt>
      <trkpt lat="40.3014640" lon="-4.4414450">
        <ele>806.2</ele>
        <time>2019-08-13T13:04:13Z</time>
      </trkpt>
      <trkpt lat="40.3014810" lon="-4.4414110">
        <ele>806.4</ele>
        <time>2019-08-13T13:04:15Z</time>
      </trkpt>
      <trkpt lat="40.3096300" lon="-4.4375450">
        <ele>729.7</ele>
        <time>2019-08-13T14:33:16Z</time>
      </trkpt>
      <trkpt lat="40.3096640" lon="-4.4374130">
        <ele>728.6</ele>
        <time>2019-08-13T14:33:17Z</time>
      </trkpt>
      <trkpt lat="40.3097010" lon="-4.4372730">
        <ele>727.3</ele>
        <time>2019-08-13T14:33:18Z</time>
      </trkpt>
      <trkpt lat="40.3097430" lon="-4.4371310">
        <ele>726.0</ele>
        <time>2019-08-13T14:33:19Z</time>
      </trkpt>
      <trkpt lat="40.3097960" lon="-4.4369910">
        <ele>724.6</ele>
        <time>2019-08-13T14:33:20Z</time>
      </trkpt>
      <trkpt lat="40.3098620" lon="-4.4368530">
        <ele>723.1</ele>
        <time>2019-08-13T14:33:21Z</time>
      </trkpt>
      <trkpt lat="40.3099400" lon="-4.4367170">
        <ele>721.5</ele>
        <time>2019-08-13T14:33:22Z</time>
      </trkpt>
      <trkpt lat="40.3100240" lon="-4.4365810">
        <ele>719.9</ele>
        <time>2019-08-13T14:33:23Z</time>
      </trkpt>
      <trkpt lat="40.3101120" lon="-4.4364450">
        <ele>718.3</ele>
        <time>2019-08-13T14:33:24Z</time>
      </trkpt>
      <trkpt lat="40.3102000" lon="-4.4363080">
        <ele>716.6</ele>
        <time>2019-08-13T14:33:25Z</time>
      </trkpt>
      <trkpt lat="40.3102890" lon="-4.4361690">
        <ele>715.0</ele>
        <time>2019-08-13T14:33:26Z</time>
      </trkpt>
      <trkpt lat="40.3103790" lon="-4.4360330">
        <ele>713.4</ele>
        <time>2019-08-13T14:33:27Z</time>
      </trkpt>
      <trkpt lat="40.3104670" lon="-4.4359000">
        <ele>711.9</ele>
        <time>2019-08-13T14:33:28Z</time>
      </trkpt>
      <trkpt lat="40.3105520" lon="-4.4357750">
        <ele>710.5</ele>
        <time>2019-08-13T14:33:29Z</time>
      </trkpt>
      <trkpt lat="40.3106340" lon="-4.4356540">
        <ele>709.4</ele>
        <time>2019-08-13T14:33:30Z</time>
      </trkpt>
      <trkpt lat="40.3107130" lon="-4.4355370">
        <ele>708.2</ele>
        <time>2019-08-13T14:33:31Z</time>
      </trkpt>
      <trkpt lat="40.3107880" lon="-4.4354240">
        <ele>707.2</ele>
        <time>2019-08-13T14:33:32Z</time>
      </trkpt>
      <trkpt lat="40.3108660" lon="-4.4353130">
        <ele>706.2</ele>
        <time>2019-08-13T14:33:33Z</time>
      </trkpt>
      <trkpt lat="40.3109480" lon="-4.4352060">
        <ele>705.3</ele>
        <time>2019-08-13T14:33:34Z</time>
      </trkpt>
      <trkpt lat="40.3110330" lon="-4.4351020">
        <ele>704.3</ele>
        <time>2019-08-13T14:33:35Z</time>
      </trkpt>
      <trkpt lat="40.3111230" lon="-4.4350010">
        <ele>703.4</ele>
        <time>2019-08-13T14:33:36Z</time>
      </trkpt>
      <trkpt lat="40.3112130" lon="-4.4349020">
        <ele>702.4</ele>
        <time>2019-08-13T14:33:37Z</time>
      </trkpt>
      <trkpt lat="40.3113090" lon="-4.4348020">
        <ele>701.4</ele>
        <time>2019-08-13T14:33:38Z</time>
      </trkpt>
      <trkpt lat="40.3114070" lon="-4.4346990">
        <ele>700.4</ele>
        <time>2019-08-13T14:33:39Z</time>
      </trkpt>
      <trkpt lat="40.3115080" lon="-4.4345940">
        <ele>699.3</ele>
        <time>2019-08-13T14:33:40Z</time>
      </trkpt>
      <trkpt lat="40.3116100" lon="-4.4344880">
        <ele>698.2</ele>
        <time>2019-08-13T14:33:41Z</time>
      </trkpt>
      <trkpt lat="40.3117100" lon="-4.4343830">
        <ele>697.2</ele>
        <time>2019-08-13T14:33:42Z</time>
      </trkpt>
      <trkpt lat="40.3118080" lon="-4.4342850">
        <ele>696.2</ele>
        <time>2019-08-13T14:33:43Z</time>
      </trkpt>
      <trkpt lat="40.3119000" lon="-4.4341910">
        <ele>695.6</ele>
        <time>2019-08-13T14:33:44Z</time>
      </trkpt>
      <trkpt lat="40.3119890" lon="-4.4341050">
        <ele>694.9</ele>
        <time>2019-08-13T14:33:45Z</time>
      </trkpt>
      <trkpt lat="40.3120780" lon="-4.4340270">
        <ele>694.6</ele>
        <time>2019-08-13T14:33:46Z</time>
      </trkpt>
      <trkpt lat="40.3121670" lon="-4.4339590">
        <ele>694.7</ele>
        <time>2019-08-13T14:33:47Z</time>
      </trkpt>
      <trkpt lat="40.3122560" lon="-4.4339020">
        <ele>694.8</ele>
        <time>2019-08-13T14:33:48Z</time>
      </trkpt>
      <trkpt lat="40.3123450" lon="-4.4338490">
        <ele>694.9</ele>
        <time>2019-08-13T14:33:49Z</time>
      </trkpt>
      <trkpt lat="40.3124310" lon="-4.4337990">
        <ele>694.9</ele>
        <time>2019-08-13T14:33:50Z</time>
      </trkpt>
      <trkpt lat="40.3125120" lon="-4.4337520">
        <ele>694.9</ele>
        <time>2019-08-13T14:33:51Z</time>
      </trkpt>
      <trkpt lat="40.3125850" lon="-4.4337110">
        <ele>694.8</ele>
        <time>2019-08-13T14:33:52Z</time>
      </trkpt>
      <trkpt lat="40.3126510" lon="-4.4336750">
        <ele>694.6</ele>
        <time>2019-08-13T14:33:53Z</time>
      </trkpt>
      <trkpt lat="40.3127100" lon="-4.4336470">
        <ele>694.5</ele>
        <time>2019-08-13T14:33:54Z</time>
      </trkpt>
      <trkpt lat="40.3127640" lon="-4.4336250">
        <ele>694.2</ele>
        <time>2019-08-13T14:33:55Z</time>
      </trkpt>
      <trkpt lat="40.3128140" lon="-4.4336070">
        <ele>694.0</ele>
        <time>2019-08-13T14:33:56Z</time>
      </trkpt>
      <trkpt lat="40.3128610" lon="-4.4335880">
        <ele>693.8</ele>
        <time>2019-08-13T14:33:57Z</time>
      </trkpt>
      <trkpt lat="40.3129070" lon="-4.4335700">
        <ele>693.5</ele>
        <time>2019-08-13T14:33:58Z</time>
      </trkpt>
      <trkpt lat="40.3129540" lon="-4.4335520">
        <ele>693.3</ele>
        <time>2019-08-13T14:33:59Z</time>
      </trkpt>
      <trkpt lat="40.3130010" lon="-4.4335370">
        <ele>693.1</ele>
        <time>2019-08-13T14:34:00Z</time>
      </trkpt>
      <trkpt lat="40.3130490" lon="-4.4335240">
        <ele>692.9</ele>
        <time>2019-08-13T14:34:01Z</time>
      </trkpt>
      <trkpt lat="40.3130960" lon="-4.4335120">
        <ele>692.6</ele>
        <time>2019-08-13T14:34:02Z</time>
      </trkpt>
      <trkpt lat="40.3131420" lon="-4.4335020">
        <ele>692.5</ele>
        <time>2019-08-13T14:34:03Z</time>
      </trkpt>
      <trkpt lat="40.3131850" lon="-4.4334920">
        <ele>692.3</ele>
        <time>2019-08-13T14:34:04Z</time>
      </trkpt>
      <trkpt lat="40.3132270" lon="-4.4334840">
        <ele>692.1</ele>
        <time>2019-08-13T14:34:05Z</time>
      </trkpt>
      <trkpt lat="40.3132650" lon="-4.4334770">
        <ele>692.0</ele>
        <time>2019-08-13T14:34:06Z</time>
      </trkpt>
      <trkpt lat="40.3133010" lon="-4.4334720">
        <ele>691.9</ele>
        <time>2019-08-13T14:34:07Z</time>
      </trkpt>
      <trkpt lat="40.3133330" lon="-4.4334670">
        <ele>691.8</ele>
        <time>2019-08-13T14:34:08Z</time>
      </trkpt>
      <trkpt lat="40.3133600" lon="-4.4334620">
        <ele>691.7</ele>
        <time>2019-08-13T14:34:09Z</time>
      </trkpt>
      <trkpt lat="40.3134030" lon="-4.4334580">
        <ele>691.5</ele>
        <time>2019-08-13T14:34:11Z</time>
      </trkpt>
      <trkpt lat="40.3134200" lon="-4.4334700">
        <ele>691.5</ele>
        <time>2019-08-13T14:34:15Z</time>
      </trkpt>
      <trkpt lat="40.3134400" lon="-4.4334800">
        <ele>691.4</ele>
        <time>2019-08-13T14:34:53Z</time>
      </trkpt>
      <trkpt lat="40.3134950" lon="-4.4334920">
        <ele>691.2</ele>
        <time>2019-08-13T14:34:55Z</time>
      </trkpt>
      <trkpt lat="40.3135260" lon="-4.4335060">
        <ele>691.1</ele>
        <time>2019-08-13T14:34:56Z</time>
      </trkpt>
      <trkpt lat="40.3135590" lon="-4.4335220">
        <ele>690.9</ele>
        <time>2019-08-13T14:34:57Z</time>
      </trkpt>
      <trkpt lat="40.3135900" lon="-4.4335380">
        <ele>690.8</ele>
        <time>2019-08-13T14:34:58Z</time>
      </trkpt>
      <trkpt lat="40.3136260" lon="-4.4335530">
        <ele>690.6</ele>
        <time>2019-08-13T14:34:59Z</time>
      </trkpt>
      <trkpt lat="40.3136730" lon="-4.4335750">
        <ele>690.4</ele>
        <time>2019-08-13T14:35:00Z</time>
      </trkpt>
      <trkpt lat="40.3137200" lon="-4.4335990">
        <ele>690.2</ele>
        <time>2019-08-13T14:35:01Z</time>
      </trkpt>
      <trkpt lat="40.3137730" lon="-4.4336230">
        <ele>690.0</ele>
        <time>2019-08-13T14:35:02Z</time>
      </trkpt>
      <trkpt lat="40.3138300" lon="-4.4336470">
        <ele>690.1</ele>
        <time>2019-08-13T14:35:03Z</time>
      </trkpt>
      <trkpt lat="40.3138910" lon="-4.4336700">
        <ele>690.2</ele>
        <time>2019-08-13T14:35:04Z</time>
      </trkpt>
      <trkpt lat="40.3139530" lon="-4.4336910">
        <ele>690.3</ele>
        <time>2019-08-13T14:35:05Z</time>
      </trkpt>
      <trkpt lat="40.3140190" lon="-4.4337080">
        <ele>690.3</ele>
        <time>2019-08-13T14:35:06Z</time>
      </trkpt>
      <trkpt lat="40.3140880" lon="-4.4337110">
        <ele>690.4</ele>
        <time>2019-08-13T14:35:07Z</time>
      </trkpt>
      <trkpt lat="40.3141600" lon="-4.4336990">
        <ele>690.5</ele>
        <time>2019-08-13T14:35:08Z</time>
      </trkpt>
      <trkpt lat="40.3142290" lon="-4.4336720">
        <ele>690.5</ele>
        <time>2019-08-13T14:35:09Z</time>
      </trkpt>
      <trkpt lat="40.3142950" lon="-4.4336330">
        <ele>690.5</ele>
        <time>2019-08-13T14:35:10Z</time>
      </trkpt>
      <trkpt lat="40.3143520" lon="-4.4335830">
        <ele>690.5</ele>
        <time>2019-08-13T14:35:11Z</time>
      </trkpt>
      <trkpt lat="40.3144030" lon="-4.4335270">
        <ele>690.4</ele>
        <time>2019-08-13T14:35:12Z</time>
      </trkpt>
      <trkpt lat="40.3144520" lon="-4.4334660">
        <ele>690.3</ele>
        <time>2019-08-13T14:35:13Z</time>
      </trkpt>
      <trkpt lat="40.3144990" lon="-4.4334050">
        <ele>690.2</ele>
        <time>2019-08-13T14:35:14Z</time>
      </trkpt>
      <trkpt lat="40.3145450" lon="-4.4333450">
        <ele>690.1</ele>
        <time>2019-08-13T14:35:15Z</time>
      </trkpt>
      <trkpt lat="40.3145910" lon="-4.4332860">
        <ele>690.1</ele>
        <time>2019-08-13T14:35:16Z</time>
      </trkpt>
      <trkpt lat="40.3146350" lon="-4.4332270">
        <ele>690.0</ele>
        <time>2019-08-13T14:35:17Z</time>
      </trkpt>
      <trkpt lat="40.3146770" lon="-4.4331670">
        <ele>690.0</ele>
        <time>2019-08-13T14:35:18Z</time>
      </trkpt>
      <trkpt lat="40.3147200" lon="-4.4331100">
        <ele>689.9</ele>
        <time>2019-08-13T14:35:19Z</time>
      </trkpt>
      <trkpt lat="40.3147610" lon="-4.4330550">
        <ele>689.9</ele>
        <time>2019-08-13T14:35:20Z</time>
      </trkpt>
      <trkpt lat="40.3148000" lon="-4.4330020">
        <ele>689.9</ele>
        <time>2019-08-13T14:35:21Z</time>
      </trkpt>
      <trkpt lat="40.3148390" lon="-4.4329520">
        <ele>689.9</ele>
        <time>2019-08-13T14:35:22Z</time>
      </trkpt>
      <trkpt lat="40.3148750" lon="-4.4329080">
        <ele>689.9</ele>
        <time>2019-08-13T14:35:23Z</time>
      </trkpt>
      <trkpt lat="40.3149080" lon="-4.4328670">
        <ele>690.0</ele>
        <time>2019-08-13T14:35:24Z</time>
      </trkpt>
      <trkpt lat="40.3149400" lon="-4.4328290">
        <ele>690.0</ele>
        <time>2019-08-13T14:35:25Z</time>
      </trkpt>
      <trkpt lat="40.3149710" lon="-4.4327930">
        <ele>690.0</ele>
        <time>2019-08-13T14:35:26Z</time>
      </trkpt>
      <trkpt lat="40.3150010" lon="-4.4327550">
        <ele>690.1</ele>
        <time>2019-08-13T14:35:27Z</time>
      </trkpt>
      <trkpt lat="40.3150300" lon="-4.4327220">
        <ele>690.2</ele>
        <time>2019-08-13T14:35:28Z</time>
      </trkpt>
      <trkpt lat="40.3150570" lon="-4.4326890">
        <ele>690.3</ele>
        <time>2019-08-13T14:35:29Z</time>
      </trkpt>
      <trkpt lat="40.3150860" lon="-4.4326610">
        <ele>690.4</ele>
        <time>2019-08-13T14:35:30Z</time>
      </trkpt>
      <trkpt lat="40.3151140" lon="-4.4326330">
        <ele>690.6</ele>
        <time>2019-08-13T14:35:31Z</time>
      </trkpt>
      <trkpt lat="40.3151420" lon="-4.4326060">
        <ele>690.8</ele>
        <time>2019-08-13T14:35:32Z</time>
      </trkpt>
      <trkpt lat="40.3151680" lon="-4.4325800">
        <ele>690.9</ele>
        <time>2019-08-13T14:35:33Z</time>
      </trkpt>
      <trkpt lat="40.3151960" lon="-4.4325540">
        <ele>691.1</ele>
        <time>2019-08-13T14:35:34Z</time>
      </trkpt>
      <trkpt lat="40.3152250" lon="-4.4325280">
        <ele>691.3</ele>
        <time>2019-08-13T14:35:35Z</time>
      </trkpt>
      <trkpt lat="40.3152560" lon="-4.4325030">
        <ele>691.5</ele>
        <time>2019-08-13T14:35:36Z</time>
      </trkpt>
      <trkpt lat="40.3152890" lon="-4.4324760">
        <ele>691.7</ele>
        <time>2019-08-13T14:35:37Z</time>
      </trkpt>
      <trkpt lat="40.3153230" lon="-4.4324460">
        <ele>691.9</ele>
        <time>2019-08-13T14:35:38Z</time>
      </trkpt>
      <trkpt lat="40.3153580" lon="-4.4324150">
        <ele>692.2</ele>
        <time>2019-08-13T14:35:39Z</time>
      </trkpt>
      <trkpt lat="40.3153930" lon="-4.4323820">
        <ele>692.4</ele>
        <time>2019-08-13T14:35:40Z</time>
      </trkpt>
      <trkpt lat="40.3154290" lon="-4.4323460">
        <ele>692.6</ele>
        <time>2019-08-13T14:35:41Z</time>
      </trkpt>
      <trkpt lat="40.3154660" lon="-4.4323070">
        <ele>692.8</ele>
        <time>2019-08-13T14:35:42Z</time>
      </trkpt>
      <trkpt lat="40.3155010" lon="-4.4322650">
        <ele>693.0</ele>
        <time>2019-08-13T14:35:43Z</time>
      </trkpt>
      <trkpt lat="40.3155340" lon="-4.4322190">
        <ele>693.1</ele>
        <time>2019-08-13T14:35:44Z</time>
      </trkpt>
      <trkpt lat="40.3155650" lon="-4.4321700">
        <ele>693.2</ele>
        <time>2019-08-13T14:35:45Z</time>
      </trkpt>
      <trkpt lat="40.3155950" lon="-4.4321170">
        <ele>693.3</ele>
        <time>2019-08-13T14:35:46Z</time>
      </trkpt>
      <trkpt lat="40.3156230" lon="-4.4320620">
        <ele>693.4</ele>
        <time>2019-08-13T14:35:47Z</time>
      </trkpt>
      <trkpt lat="40.3156500" lon="-4.4320040">
        <ele>693.4</ele>
        <time>2019-08-13T14:35:48Z</time>
      </trkpt>
      <trkpt lat="40.3156740" lon="-4.4319450">
        <ele>693.5</ele>
        <time>2019-08-13T14:35:49Z</time>
      </trkpt>
      <trkpt lat="40.3156970" lon="-4.4318830">
        <ele>693.5</ele>
        <time>2019-08-13T14:35:50Z</time>
      </trkpt>
      <trkpt lat="40.3157200" lon="-4.4318190">
        <ele>693.5</ele>
        <time>2019-08-13T14:35:51Z</time>
      </trkpt>
      <trkpt lat="40.3157450" lon="-4.4317560">
        <ele>693.5</ele>
        <time>2019-08-13T14:35:52Z</time>
      </trkpt>
      <trkpt lat="40.3157710" lon="-4.4316930">
        <ele>693.5</ele>
        <time>2019-08-13T14:35:53Z</time>
      </trkpt>
      <trkpt lat="40.3157980" lon="-4.4316300">
        <ele>693.5</ele>
        <time>2019-08-13T14:35:54Z</time>
      </trkpt>
      <trkpt lat="40.3158240" lon="-4.4315650">
        <ele>693.5</ele>
        <time>2019-08-13T14:35:55Z</time>
      </trkpt>
      <trkpt lat="40.3158520" lon="-4.4315010">
        <ele>693.4</ele>
        <time>2019-08-13T14:35:56Z</time>
      </trkpt>
      <trkpt lat="40.3158820" lon="-4.4314370">
        <ele>693.4</ele>
        <time>2019-08-13T14:35:57Z</time>
      </trkpt>
      <trkpt lat="40.3159130" lon="-4.4313770">
        <ele>693.3</ele>
        <time>2019-08-13T14:35:58Z</time>
      </trkpt>
      <trkpt lat="40.3159440" lon="-4.4313240">
        <ele>693.3</ele>
        <time>2019-08-13T14:35:59Z</time>
      </trkpt>
      <trkpt lat="40.3159760" lon="-4.4312730">
        <ele>693.2</ele>
        <time>2019-08-13T14:36:00Z</time>
      </trkpt>
      <trkpt lat="40.3160090" lon="-4.4312230">
        <ele>693.1</ele>
        <time>2019-08-13T14:36:01Z</time>
      </trkpt>
      <trkpt lat="40.3160430" lon="-4.4311750">
        <ele>693.1</ele>
        <time>2019-08-13T14:36:02Z</time>
      </trkpt>
      <trkpt lat="40.3160740" lon="-4.4311280">
        <ele>693.0</ele>
        <time>2019-08-13T14:36:03Z</time>
      </trkpt>
      <trkpt lat="40.3161080" lon="-4.4310810">
        <ele>693.0</ele>
        <time>2019-08-13T14:36:04Z</time>
      </trkpt>
      <trkpt lat="40.3161400" lon="-4.4310360">
        <ele>692.9</ele>
        <time>2019-08-13T14:36:05Z</time>
      </trkpt>
      <trkpt lat="40.3161730" lon="-4.4309930">
        <ele>692.9</ele>
        <time>2019-08-13T14:36:06Z</time>
      </trkpt>
      <trkpt lat="40.3162060" lon="-4.4309500">
        <ele>692.9</ele>
        <time>2019-08-13T14:36:07Z</time>
      </trkpt>
      <trkpt lat="40.3162400" lon="-4.4309050">
        <ele>692.9</ele>
        <time>2019-08-13T14:36:08Z</time>
      </trkpt>
      <trkpt lat="40.3162730" lon="-4.4308590">
        <ele>692.9</ele>
        <time>2019-08-13T14:36:09Z</time>
      </trkpt>
      <trkpt lat="40.3163080" lon="-4.4308110">
        <ele>692.8</ele>
        <time>2019-08-13T14:36:10Z</time>
      </trkpt>
      <trkpt lat="40.3163430" lon="-4.4307650">
        <ele>692.8</ele>
        <time>2019-08-13T14:36:11Z</time>
      </trkpt>
      <trkpt lat="40.3163810" lon="-4.4307200">
        <ele>692.8</ele>
        <time>2019-08-13T14:36:12Z</time>
      </trkpt>
      <trkpt lat="40.3164180" lon="-4.4306750">
        <ele>692.8</ele>
        <time>2019-08-13T14:36:13Z</time>
      </trkpt>
      <trkpt lat="40.3164580" lon="-4.4306270">
        <ele>692.8</ele>
        <time>2019-08-13T14:36:14Z</time>
      </trkpt>
      <trkpt lat="40.3164960" lon="-4.4305820">
        <ele>692.8</ele>
        <time>2019-08-13T14:36:15Z</time>
      </trkpt>
      <trkpt lat="40.3165350" lon="-4.4305360">
        <ele>692.8</ele>
        <time>2019-08-13T14:36:16Z</time>
      </trkpt>
      <trkpt lat="40.3165730" lon="-4.4304900">
        <ele>692.8</ele>
        <time>2019-08-13T14:36:17Z</time>
      </trkpt>
      <trkpt lat="40.3166120" lon="-4.4304440">
        <ele>692.8</ele>
        <time>2019-08-13T14:36:18Z</time>
      </trkpt>
      <trkpt lat="40.3166510" lon="-4.4304000">
        <ele>692.8</ele>
        <time>2019-08-13T14:36:19Z</time>
      </trkpt>
      <trkpt lat="40.3166910" lon="-4.4303550">
        <ele>692.8</ele>
        <time>2019-08-13T14:36:20Z</time>
      </trkpt>
      <trkpt lat="40.3167310" lon="-4.4303090">
        <ele>692.8</ele>
        <time>2019-08-13T14:36:21Z</time>
      </trkpt>
      <trkpt lat="40.3167720" lon="-4.4302640">
        <ele>692.8</ele>
        <time>2019-08-13T14:36:22Z</time>
      </trkpt>
      <trkpt lat="40.3168130" lon="-4.4302170">
        <ele>692.9</ele>
        <time>2019-08-13T14:36:23Z</time>
      </trkpt>
      <trkpt lat="40.3168520" lon="-4.4301700">
        <ele>692.9</ele>
        <time>2019-08-13T14:36:24Z</time>
      </trkpt>
      <trkpt lat="40.3168930" lon="-4.4301220">
        <ele>692.9</ele>
        <time>2019-08-13T14:36:25Z</time>
      </trkpt>
      <trkpt lat="40.3169340" lon="-4.4300740">
        <ele>692.9</ele>
        <time>2019-08-13T14:36:26Z</time>
      </trkpt>
      <trkpt lat="40.3169750" lon="-4.4300240">
        <ele>692.9</ele>
        <time>2019-08-13T14:36:27Z</time>
      </trkpt>
      <trkpt lat="40.3170170" lon="-4.4299740">
        <ele>692.9</ele>
        <time>2019-08-13T14:36:28Z</time>
      </trkpt>
      <trkpt lat="40.3170580" lon="-4.4299260">
        <ele>692.9</ele>
        <time>2019-08-13T14:36:29Z</time>
      </trkpt>
      <trkpt lat="40.3171000" lon="-4.4298780">
        <ele>692.9</ele>
        <time>2019-08-13T14:36:30Z</time>
      </trkpt>
      <trkpt lat="40.3171400" lon="-4.4298300">
        <ele>692.9</ele>
        <time>2019-08-13T14:36:31Z</time>
      </trkpt>
      <trkpt lat="40.3171800" lon="-4.4297810">
        <ele>692.9</ele>
        <time>2019-08-13T14:36:32Z</time>
      </trkpt>
      <trkpt lat="40.3172210" lon="-4.4297320">
        <ele>692.9</ele>
        <time>2019-08-13T14:36:33Z</time>
      </trkpt>
      <trkpt lat="40.3172600" lon="-4.4296810">
        <ele>692.9</ele>
        <time>2019-08-13T14:36:34Z</time>
      </trkpt>
      <trkpt lat="40.3173010" lon="-4.4296300">
        <ele>692.9</ele>
        <time>2019-08-13T14:36:35Z</time>
      </trkpt>
      <trkpt lat="40.3173410" lon="-4.4295780">
        <ele>692.9</ele>
        <time>2019-08-13T14:36:36Z</time>
      </trkpt>
      <trkpt lat="40.3173800" lon="-4.4295240">
        <ele>692.9</ele>
        <time>2019-08-13T14:36:37Z</time>
      </trkpt>
      <trkpt lat="40.3174180" lon="-4.4294680">
        <ele>692.9</ele>
        <time>2019-08-13T14:36:38Z</time>
      </trkpt>
      <trkpt lat="40.3174550" lon="-4.4294110">
        <ele>692.9</ele>
        <time>2019-08-13T14:36:39Z</time>
      </trkpt>
      <trkpt lat="40.3174930" lon="-4.4293540">
        <ele>692.9</ele>
        <time>2019-08-13T14:36:40Z</time>
      </trkpt>
      <trkpt lat="40.3175290" lon="-4.4292940">
        <ele>692.9</ele>
        <time>2019-08-13T14:36:41Z</time>
      </trkpt>
      <trkpt lat="40.3175650" lon="-4.4292340">
        <ele>692.9</ele>
        <time>2019-08-13T14:36:42Z</time>
      </trkpt>
      <trkpt lat="40.3176010" lon="-4.4291750">
        <ele>692.9</ele>
        <time>2019-08-13T14:36:43Z</time>
      </trkpt>
      <trkpt lat="40.3176360" lon="-4.4291150">
        <ele>692.9</ele>
        <time>2019-08-13T14:36:44Z</time>
      </trkpt>
      <trkpt lat="40.3176710" lon="-4.4290550">
        <ele>693.0</ele>
        <time>2019-08-13T14:36:45Z</time>
      </trkpt>
      <trkpt lat="40.3177060" lon="-4.4289970">
        <ele>693.0</ele>
        <time>2019-08-13T14:36:46Z</time>
      </trkpt>
      <trkpt lat="40.3177410" lon="-4.4289380">
        <ele>693.1</ele>
        <time>2019-08-13T14:36:47Z</time>
      </trkpt>
      <trkpt lat="40.3177760" lon="-4.4288790">
        <ele>693.1</ele>
        <time>2019-08-13T14:36:48Z</time>
      </trkpt>
      <trkpt lat="40.3178110" lon="-4.4288220">
        <ele>693.2</ele>
        <time>2019-08-13T14:36:49Z</time>
      </trkpt>
      <trkpt lat="40.3178460" lon="-4.4287640">
        <ele>693.2</ele>
        <time>2019-08-13T14:36:50Z</time>
      </trkpt>
      <trkpt lat="40.3178800" lon="-4.4287090">
        <ele>693.3</ele>
        <time>2019-08-13T14:36:51Z</time>
      </trkpt>
      <trkpt lat="40.3179150" lon="-4.4286540">
        <ele>693.4</ele>
        <time>2019-08-13T14:36:52Z</time>
      </trkpt>
      <trkpt lat="40.3179510" lon="-4.4286010">
        <ele>693.4</ele>
        <time>2019-08-13T14:36:53Z</time>
      </trkpt>
      <trkpt lat="40.3179870" lon="-4.4285510">
        <ele>693.4</ele>
        <time>2019-08-13T14:36:54Z</time>
      </trkpt>
      <trkpt lat="40.3180240" lon="-4.4285020">
        <ele>693.5</ele>
        <time>2019-08-13T14:36:55Z</time>
      </trkpt>
      <trkpt lat="40.3180600" lon="-4.4284540">
        <ele>693.5</ele>
        <time>2019-08-13T14:36:56Z</time>
      </trkpt>
      <trkpt lat="40.3180950" lon="-4.4284080">
        <ele>693.5</ele>
        <time>2019-08-13T14:36:57Z</time>
      </trkpt>
      <trkpt lat="40.3181310" lon="-4.4283620">
        <ele>693.6</ele>
        <time>2019-08-13T14:36:58Z</time>
      </trkpt>
      <trkpt lat="40.3181690" lon="-4.4283180">
        <ele>693.6</ele>
        <time>2019-08-13T14:36:59Z</time>
      </trkpt>
      <trkpt lat="40.3182090" lon="-4.4282750">
        <ele>693.6</ele>
        <time>2019-08-13T14:37:00Z</time>
      </trkpt>
      <trkpt lat="40.3182480" lon="-4.4282310">
        <ele>693.6</ele>
        <time>2019-08-13T14:37:01Z</time>
      </trkpt>
      <trkpt lat="40.3182870" lon="-4.4281850">
        <ele>693.7</ele>
        <time>2019-08-13T14:37:02Z</time>
      </trkpt>
      <trkpt lat="40.3183280" lon="-4.4281380">
        <ele>693.7</ele>
        <time>2019-08-13T14:37:03Z</time>
      </trkpt>
      <trkpt lat="40.3183700" lon="-4.4280910">
        <ele>693.7</ele>
        <time>2019-08-13T14:37:04Z</time>
      </trkpt>
      <trkpt lat="40.3184120" lon="-4.4280430">
        <ele>693.7</ele>
        <time>2019-08-13T14:37:05Z</time>
      </trkpt>
      <trkpt lat="40.3184550" lon="-4.4279920">
        <ele>693.7</ele>
        <time>2019-08-13T14:37:06Z</time>
      </trkpt>
      <trkpt lat="40.3185000" lon="-4.4279410">
        <ele>693.7</ele>
        <time>2019-08-13T14:37:07Z</time>
      </trkpt>
      <trkpt lat="40.3185450" lon="-4.4278890">
        <ele>693.7</ele>
        <time>2019-08-13T14:37:08Z</time>
      </trkpt>
      <trkpt lat="40.3185890" lon="-4.4278370">
        <ele>693.7</ele>
        <time>2019-08-13T14:37:09Z</time>
      </trkpt>
      <trkpt lat="40.3186350" lon="-4.4277840">
        <ele>693.7</ele>
        <time>2019-08-13T14:37:10Z</time>
      </trkpt>
      <trkpt lat="40.3186800" lon="-4.4277320">
        <ele>693.6</ele>
        <time>2019-08-13T14:37:11Z</time>
      </trkpt>
      <trkpt lat="40.3187240" lon="-4.4276820">
        <ele>693.6</ele>
        <time>2019-08-13T14:37:12Z</time>
      </trkpt>
      <trkpt lat="40.3187680" lon="-4.4276310">
        <ele>693.6</ele>
        <time>2019-08-13T14:37:13Z</time>
      </trkpt>
      <trkpt lat="40.3188120" lon="-4.4275810">
        <ele>693.6</ele>
        <time>2019-08-13T14:37:14Z</time>
      </trkpt>
      <trkpt lat="40.3188550" lon="-4.4275310">
        <ele>693.5</ele>
        <time>2019-08-13T14:37:15Z</time>
      </trkpt>
      <trkpt lat="40.3189000" lon="-4.4274800">
        <ele>693.4</ele>
        <time>2019-08-13T14:37:16Z</time>
      </trkpt>
      <trkpt lat="40.3189460" lon="-4.4274270">
        <ele>693.3</ele>
        <time>2019-08-13T14:37:17Z</time>
      </trkpt>
      <trkpt lat="40.3189940" lon="-4.4273740">
        <ele>693.2</ele>
        <time>2019-08-13T14:37:18Z</time>
      </trkpt>
      <trkpt lat="40.3190390" lon="-4.4273190">
        <ele>693.1</ele>
        <time>2019-08-13T14:37:19Z</time>
      </trkpt>
      <trkpt lat="40.3190870" lon="-4.4272650">
        <ele>692.9</ele>
        <time>2019-08-13T14:37:20Z</time>
      </trkpt>
      <trkpt lat="40.3191350" lon="-4.4272090">
        <ele>692.7</ele>
        <time>2019-08-13T14:37:21Z</time>
      </trkpt>
      <trkpt lat="40.3191820" lon="-4.4271540">
        <ele>692.5</ele>
        <time>2019-08-13T14:37:22Z</time>
      </trkpt>
      <trkpt lat="40.3192300" lon="-4.4270990">
        <ele>692.3</ele>
        <time>2019-08-13T14:37:23Z</time>
      </trkpt>
      <trkpt lat="40.3192760" lon="-4.4270430">
        <ele>692.1</ele>
        <time>2019-08-13T14:37:24Z</time>
      </trkpt>
      <trkpt lat="40.3193240" lon="-4.4269850">
        <ele>691.9</ele>
        <time>2019-08-13T14:37:25Z</time>
      </trkpt>
      <trkpt lat="40.3193730" lon="-4.4269270">
        <ele>691.7</ele>
        <time>2019-08-13T14:37:26Z</time>
      </trkpt>
      <trkpt lat="40.3194220" lon="-4.4268690">
        <ele>691.4</ele>
        <time>2019-08-13T14:37:27Z</time>
      </trkpt>
      <trkpt lat="40.3194720" lon="-4.4268110">
        <ele>691.1</ele>
        <time>2019-08-13T14:37:28Z</time>
      </trkpt>
      <trkpt lat="40.3195230" lon="-4.4267540">
        <ele>690.8</ele>
        <time>2019-08-13T14:37:29Z</time>
      </trkpt>
      <trkpt lat="40.3195730" lon="-4.4266980">
        <ele>690.4</ele>
        <time>2019-08-13T14:37:30Z</time>
      </trkpt>
      <trkpt lat="40.3196250" lon="-4.4266400">
        <ele>690.1</ele>
        <time>2019-08-13T14:37:31Z</time>
      </trkpt>
      <trkpt lat="40.3196760" lon="-4.4265830">
        <ele>689.7</ele>
        <time>2019-08-13T14:37:32Z</time>
      </trkpt>
      <trkpt lat="40.3197290" lon="-4.4265240">
        <ele>689.3</ele>
        <time>2019-08-13T14:37:33Z</time>
      </trkpt>
      <trkpt lat="40.3197810" lon="-4.4264630">
        <ele>689.0</ele>
        <time>2019-08-13T14:37:34Z</time>
      </trkpt>
      <trkpt lat="40.3198320" lon="-4.4264020">
        <ele>688.7</ele>
        <time>2019-08-13T14:37:35Z</time>
      </trkpt>
      <trkpt lat="40.3198840" lon="-4.4263380">
        <ele>688.4</ele>
        <time>2019-08-13T14:37:36Z</time>
      </trkpt>
      <trkpt lat="40.3199380" lon="-4.4262740">
        <ele>688.1</ele>
        <time>2019-08-13T14:37:37Z</time>
      </trkpt>
      <trkpt lat="40.3199940" lon="-4.4262100">
        <ele>687.8</ele>
        <time>2019-08-13T14:37:38Z</time>
      </trkpt>
      <trkpt lat="40.3200500" lon="-4.4261430">
        <ele>687.6</ele>
        <time>2019-08-13T14:37:39Z</time>
      </trkpt>
      <trkpt lat="40.3201080" lon="-4.4260750">
        <ele>687.3</ele>
        <time>2019-08-13T14:37:40Z</time>
      </trkpt>
      <trkpt lat="40.3201660" lon="-4.4260070">
        <ele>687.1</ele>
        <time>2019-08-13T14:37:41Z</time>
      </trkpt>
      <trkpt lat="40.3202260" lon="-4.4259380">
        <ele>686.9</ele>
        <time>2019-08-13T14:37:42Z</time>
      </trkpt>
      <trkpt lat="40.3202850" lon="-4.4258690">
        <ele>686.6</ele>
        <time>2019-08-13T14:37:43Z</time>
      </trkpt>
      <trkpt lat="40.3203450" lon="-4.4258000">
        <ele>686.4</ele>
        <time>2019-08-13T14:37:44Z</time>
      </trkpt>
      <trkpt lat="40.3204040" lon="-4.4257300">
        <ele>686.1</ele>
        <time>2019-08-13T14:37:45Z</time>
      </trkpt>
      <trkpt lat="40.3204640" lon="-4.4256600">
        <ele>685.9</ele>
        <time>2019-08-13T14:37:46Z</time>
      </trkpt>
      <trkpt lat="40.3205230" lon="-4.4255900">
        <ele>685.6</ele>
        <time>2019-08-13T14:37:47Z</time>
      </trkpt>
      <trkpt lat="40.3205800" lon="-4.4255200">
        <ele>685.4</ele>
        <time>2019-08-13T14:37:48Z</time>
      </trkpt>
      <trkpt lat="40.3206380" lon="-4.4254510">
        <ele>685.3</ele>
        <time>2019-08-13T14:37:49Z</time>
      </trkpt>
      <trkpt lat="40.3206950" lon="-4.4253830">
        <ele>685.2</ele>
        <time>2019-08-13T14:37:50Z</time>
      </trkpt>
      <trkpt lat="40.3207520" lon="-4.4253160">
        <ele>685.1</ele>
        <time>2019-08-13T14:37:51Z</time>
      </trkpt>
      <trkpt lat="40.3208070" lon="-4.4252500">
        <ele>685.0</ele>
        <time>2019-08-13T14:37:52Z</time>
      </trkpt>
      <trkpt lat="40.3208610" lon="-4.4251840">
        <ele>684.9</ele>
        <time>2019-08-13T14:37:53Z</time>
      </trkpt>
      <trkpt lat="40.3209140" lon="-4.4251200">
        <ele>684.8</ele>
        <time>2019-08-13T14:37:54Z</time>
      </trkpt>
      <trkpt lat="40.3209660" lon="-4.4250560">
        <ele>684.6</ele>
        <time>2019-08-13T14:37:55Z</time>
      </trkpt>
      <trkpt lat="40.3210190" lon="-4.4249940">
        <ele>684.5</ele>
        <time>2019-08-13T14:37:56Z</time>
      </trkpt>
      <trkpt lat="40.3210720" lon="-4.4249330">
        <ele>684.4</ele>
        <time>2019-08-13T14:37:57Z</time>
      </trkpt>
      <trkpt lat="40.3211270" lon="-4.4248760">
        <ele>684.3</ele>
        <time>2019-08-13T14:37:58Z</time>
      </trkpt>
      <trkpt lat="40.3211850" lon="-4.4248230">
        <ele>684.2</ele>
        <time>2019-08-13T14:37:59Z</time>
      </trkpt>
      <trkpt lat="40.3212460" lon="-4.4247760">
        <ele>684.1</ele>
        <time>2019-08-13T14:38:00Z</time>
      </trkpt>
      <trkpt lat="40.3213090" lon="-4.4247330">
        <ele>684.0</ele>
        <time>2019-08-13T14:38:01Z</time>
      </trkpt>
      <trkpt lat="40.3213730" lon="-4.4246930">
        <ele>684.0</ele>
        <time>2019-08-13T14:38:02Z</time>
      </trkpt>
      <trkpt lat="40.3214380" lon="-4.4246550">
        <ele>683.9</ele>
        <time>2019-08-13T14:38:03Z</time>
      </trkpt>
      <trkpt lat="40.3215040" lon="-4.4246190">
        <ele>683.9</ele>
        <time>2019-08-13T14:38:04Z</time>
      </trkpt>
      <trkpt lat="40.3215690" lon="-4.4245850">
        <ele>683.9</ele>
        <time>2019-08-13T14:38:05Z</time>
      </trkpt>
      <trkpt lat="40.3216330" lon="-4.4245530">
        <ele>683.9</ele>
        <time>2019-08-13T14:38:06Z</time>
      </trkpt>
      <trkpt lat="40.3216970" lon="-4.4245210">
        <ele>683.8</ele>
        <time>2019-08-13T14:38:07Z</time>
      </trkpt>
      <trkpt lat="40.3217600" lon="-4.4244910">
        <ele>683.8</ele>
        <time>2019-08-13T14:38:08Z</time>
      </trkpt>
      <trkpt lat="40.3218240" lon="-4.4244640">
        <ele>683.8</ele>
        <time>2019-08-13T14:38:09Z</time>
      </trkpt>
      <trkpt lat="40.3218880" lon="-4.4244410">
        <ele>683.8</ele>
        <time>2019-08-13T14:38:10Z</time>
      </trkpt>
      <trkpt lat="40.3219520" lon="-4.4244220">
        <ele>683.8</ele>
        <time>2019-08-13T14:38:11Z</time>
      </trkpt>
      <trkpt lat="40.3220160" lon="-4.4244070">
        <ele>683.8</ele>
        <time>2019-08-13T14:38:12Z</time>
      </trkpt>
      <trkpt lat="40.3220810" lon="-4.4243970">
        <ele>683.8</ele>
        <time>2019-08-13T14:38:13Z</time>
      </trkpt>
      <trkpt lat="40.3221480" lon="-4.4243960">
        <ele>683.7</ele>
        <time>2019-08-13T14:38:14Z</time>
      </trkpt>
      <trkpt lat="40.3222110" lon="-4.4244020">
        <ele>683.7</ele>
        <time>2019-08-13T14:38:15Z</time>
      </trkpt>
      <trkpt lat="40.3222710" lon="-4.4244180">
        <ele>683.7</ele>
        <time>2019-08-13T14:38:16Z</time>
      </trkpt>
      <trkpt lat="40.3223330" lon="-4.4244400">
        <ele>683.7</ele>
        <time>2019-08-13T14:38:17Z</time>
      </trkpt>
      <trkpt lat="40.3223940" lon="-4.4244640">
        <ele>683.7</ele>
        <time>2019-08-13T14:38:18Z</time>
      </trkpt>
      <trkpt lat="40.3224530" lon="-4.4244950">
        <ele>683.6</ele>
        <time>2019-08-13T14:38:19Z</time>
      </trkpt>
      <trkpt lat="40.3225100" lon="-4.4245270">
        <ele>683.6</ele>
        <time>2019-08-13T14:38:20Z</time>
      </trkpt>
      <trkpt lat="40.3225700" lon="-4.4245630">
        <ele>683.5</ele>
        <time>2019-08-13T14:38:21Z</time>
      </trkpt>
      <trkpt lat="40.3226280" lon="-4.4245980">
        <ele>683.5</ele>
        <time>2019-08-13T14:38:22Z</time>
      </trkpt>
      <trkpt lat="40.3226860" lon="-4.4246320">
        <ele>683.5</ele>
        <time>2019-08-13T14:38:23Z</time>
      </trkpt>
      <trkpt lat="40.3227420" lon="-4.4246680">
        <ele>683.5</ele>
        <time>2019-08-13T14:38:24Z</time>
      </trkpt>
      <trkpt lat="40.3227970" lon="-4.4247080">
        <ele>683.5</ele>
        <time>2019-08-13T14:38:25Z</time>
      </trkpt>
      <trkpt lat="40.3228490" lon="-4.4247510">
        <ele>683.5</ele>
        <time>2019-08-13T14:38:26Z</time>
      </trkpt>
      <trkpt lat="40.3229010" lon="-4.4247980">
        <ele>683.5</ele>
        <time>2019-08-13T14:38:27Z</time>
      </trkpt>
      <trkpt lat="40.3229540" lon="-4.4248480">
        <ele>683.5</ele>
        <time>2019-08-13T14:38:28Z</time>
      </trkpt>
      <trkpt lat="40.3230040" lon="-4.4248970">
        <ele>683.5</ele>
        <time>2019-08-13T14:38:29Z</time>
      </trkpt>
      <trkpt lat="40.3230550" lon="-4.4249490">
        <ele>683.5</ele>
        <time>2019-08-13T14:38:30Z</time>
      </trkpt>
      <trkpt lat="40.3231070" lon="-4.4250000">
        <ele>683.5</ele>
        <time>2019-08-13T14:38:31Z</time>
      </trkpt>
      <trkpt lat="40.3231570" lon="-4.4250550">
        <ele>683.5</ele>
        <time>2019-08-13T14:38:32Z</time>
      </trkpt>
      <trkpt lat="40.3232030" lon="-4.4251130">
        <ele>683.5</ele>
        <time>2019-08-13T14:38:33Z</time>
      </trkpt>
      <trkpt lat="40.3232500" lon="-4.4251730">
        <ele>683.4</ele>
        <time>2019-08-13T14:38:34Z</time>
      </trkpt>
      <trkpt lat="40.3232980" lon="-4.4252310">
        <ele>683.5</ele>
        <time>2019-08-13T14:38:35Z</time>
      </trkpt>
      <trkpt lat="40.3233470" lon="-4.4252860">
        <ele>683.5</ele>
        <time>2019-08-13T14:38:36Z</time>
      </trkpt>
      <trkpt lat="40.3233950" lon="-4.4253410">
        <ele>683.5</ele>
        <time>2019-08-13T14:38:37Z</time>
      </trkpt>
      <trkpt lat="40.3234440" lon="-4.4253960">
        <ele>683.6</ele>
        <time>2019-08-13T14:38:38Z</time>
      </trkpt>
      <trkpt lat="40.3234930" lon="-4.4254510">
        <ele>683.6</ele>
        <time>2019-08-13T14:38:39Z</time>
      </trkpt>
      <trkpt lat="40.3235420" lon="-4.4255030">
        <ele>683.7</ele>
        <time>2019-08-13T14:38:40Z</time>
      </trkpt>
      <trkpt lat="40.3235900" lon="-4.4255550">
        <ele>683.8</ele>
        <time>2019-08-13T14:38:41Z</time>
      </trkpt>
      <trkpt lat="40.3236390" lon="-4.4256080">
        <ele>683.8</ele>
        <time>2019-08-13T14:38:42Z</time>
      </trkpt>
      <trkpt lat="40.3236870" lon="-4.4256600">
        <ele>683.8</ele>
        <time>2019-08-13T14:38:43Z</time>
      </trkpt>
      <trkpt lat="40.3237360" lon="-4.4257130">
        <ele>683.8</ele>
        <time>2019-08-13T14:38:44Z</time>
      </trkpt>
      <trkpt lat="40.3237830" lon="-4.4257660">
        <ele>683.8</ele>
        <time>2019-08-13T14:38:45Z</time>
      </trkpt>
      <trkpt lat="40.3238290" lon="-4.4258180">
        <ele>683.7</ele>
        <time>2019-08-13T14:38:46Z</time>
      </trkpt>
      <trkpt lat="40.3238750" lon="-4.4258700">
        <ele>683.7</ele>
        <time>2019-08-13T14:38:47Z</time>
      </trkpt>
      <trkpt lat="40.3239220" lon="-4.4259210">
        <ele>683.7</ele>
        <time>2019-08-13T14:38:48Z</time>
      </trkpt>
      <trkpt lat="40.3239700" lon="-4.4259740">
        <ele>683.7</ele>
        <time>2019-08-13T14:38:49Z</time>
      </trkpt>
      <trkpt lat="40.3240160" lon="-4.4260260">
        <ele>683.6</ele>
        <time>2019-08-13T14:38:50Z</time>
      </trkpt>
      <trkpt lat="40.3240620" lon="-4.4260780">
        <ele>683.6</ele>
        <time>2019-08-13T14:38:51Z</time>
      </trkpt>
      <trkpt lat="40.3241080" lon="-4.4261290">
        <ele>683.6</ele>
        <time>2019-08-13T14:38:52Z</time>
      </trkpt>
      <trkpt lat="40.3241540" lon="-4.4261790">
        <ele>683.5</ele>
        <time>2019-08-13T14:38:53Z</time>
      </trkpt>
      <trkpt lat="40.3242000" lon="-4.4262300">
        <ele>683.5</ele>
        <time>2019-08-13T14:38:54Z</time>
      </trkpt>
      <trkpt lat="40.3242430" lon="-4.4262800">
        <ele>683.5</ele>
        <time>2019-08-13T14:38:55Z</time>
      </trkpt>
      <trkpt lat="40.3242860" lon="-4.4263280">
        <ele>683.4</ele>
        <time>2019-08-13T14:38:56Z</time>
      </trkpt>
      <trkpt lat="40.3243290" lon="-4.4263740">
        <ele>683.4</ele>
        <time>2019-08-13T14:38:57Z</time>
      </trkpt>
      <trkpt lat="40.3243720" lon="-4.4264230">
        <ele>683.3</ele>
        <time>2019-08-13T14:38:58Z</time>
      </trkpt>
      <trkpt lat="40.3244150" lon="-4.4264730">
        <ele>683.3</ele>
        <time>2019-08-13T14:38:59Z</time>
      </trkpt>
      <trkpt lat="40.3244570" lon="-4.4265170">
        <ele>683.2</ele>
        <time>2019-08-13T14:39:00Z</time>
      </trkpt>
      <trkpt lat="40.3245000" lon="-4.4265640">
        <ele>683.0</ele>
        <time>2019-08-13T14:39:01Z</time>
      </trkpt>
      <trkpt lat="40.3245460" lon="-4.4266130">
        <ele>682.9</ele>
        <time>2019-08-13T14:39:02Z</time>
      </trkpt>
      <trkpt lat="40.3245950" lon="-4.4266610">
        <ele>682.7</ele>
        <time>2019-08-13T14:39:03Z</time>
      </trkpt>
      <trkpt lat="40.3246450" lon="-4.4267070">
        <ele>682.5</ele>
        <time>2019-08-13T14:39:04Z</time>
      </trkpt>
      <trkpt lat="40.3246950" lon="-4.4267500">
        <ele>682.3</ele>
        <time>2019-08-13T14:39:05Z</time>
      </trkpt>
      <trkpt lat="40.3247470" lon="-4.4267920">
        <ele>682.0</ele>
        <time>2019-08-13T14:39:06Z</time>
      </trkpt>
      <trkpt lat="40.3248020" lon="-4.4268380">
        <ele>681.6</ele>
        <time>2019-08-13T14:39:07Z</time>
      </trkpt>
      <trkpt lat="40.3248560" lon="-4.4268860">
        <ele>681.3</ele>
        <time>2019-08-13T14:39:08Z</time>
      </trkpt>
      <trkpt lat="40.3249090" lon="-4.4269350">
        <ele>681.0</ele>
        <time>2019-08-13T14:39:09Z</time>
      </trkpt>
      <trkpt lat="40.3249630" lon="-4.4269880">
        <ele>680.7</ele>
        <time>2019-08-13T14:39:10Z</time>
      </trkpt>
      <trkpt lat="40.3250170" lon="-4.4270430">
        <ele>680.4</ele>
        <time>2019-08-13T14:39:11Z</time>
      </trkpt>
      <trkpt lat="40.3250690" lon="-4.4271020">
        <ele>680.1</ele>
        <time>2019-08-13T14:39:12Z</time>
      </trkpt>
      <trkpt lat="40.3251210" lon="-4.4271660">
        <ele>679.9</ele>
        <time>2019-08-13T14:39:13Z</time>
      </trkpt>
      <trkpt lat="40.3251710" lon="-4.4272320">
        <ele>679.7</ele>
        <time>2019-08-13T14:39:14Z</time>
      </trkpt>
      <trkpt lat="40.3252170" lon="-4.4273000">
        <ele>679.6</ele>
        <time>2019-08-13T14:39:15Z</time>
      </trkpt>
      <trkpt lat="40.3252590" lon="-4.4273710">
        <ele>679.5</ele>
        <time>2019-08-13T14:39:16Z</time>
      </trkpt>
      <trkpt lat="40.3253000" lon="-4.4274450">
        <ele>679.3</ele>
        <time>2019-08-13T14:39:17Z</time>
      </trkpt>
      <trkpt lat="40.3253420" lon="-4.4275200">
        <ele>679.2</ele>
        <time>2019-08-13T14:39:18Z</time>
      </trkpt>
      <trkpt lat="40.3253820" lon="-4.4275970">
        <ele>679.0</ele>
        <time>2019-08-13T14:39:19Z</time>
      </trkpt>
      <trkpt lat="40.3254200" lon="-4.4276750">
        <ele>678.9</ele>
        <time>2019-08-13T14:39:20Z</time>
      </trkpt>
      <trkpt lat="40.3254580" lon="-4.4277540">
        <ele>678.7</ele>
        <time>2019-08-13T14:39:21Z</time>
      </trkpt>
      <trkpt lat="40.3254960" lon="-4.4278330">
        <ele>678.4</ele>
        <time>2019-08-13T14:39:22Z</time>
      </trkpt>
      <trkpt lat="40.3255360" lon="-4.4279100">
        <ele>678.1</ele>
        <time>2019-08-13T14:39:23Z</time>
      </trkpt>
      <trkpt lat="40.3255760" lon="-4.4279870">
        <ele>677.9</ele>
        <time>2019-08-13T14:39:24Z</time>
      </trkpt>
      <trkpt lat="40.3256160" lon="-4.4280630">
        <ele>677.6</ele>
        <time>2019-08-13T14:39:25Z</time>
      </trkpt>
      <trkpt lat="40.3256560" lon="-4.4281380">
        <ele>677.3</ele>
        <time>2019-08-13T14:39:26Z</time>
      </trkpt>
      <trkpt lat="40.3256970" lon="-4.4282110">
        <ele>677.1</ele>
        <time>2019-08-13T14:39:27Z</time>
      </trkpt>
      <trkpt lat="40.3257370" lon="-4.4282830">
        <ele>676.9</ele>
        <time>2019-08-13T14:39:28Z</time>
      </trkpt>
      <trkpt lat="40.3257770" lon="-4.4283560">
        <ele>676.8</ele>
        <time>2019-08-13T14:39:29Z</time>
      </trkpt>
      <trkpt lat="40.3258180" lon="-4.4284290">
        <ele>676.8</ele>
        <time>2019-08-13T14:39:30Z</time>
      </trkpt>
      <trkpt lat="40.3258600" lon="-4.4285000">
        <ele>676.8</ele>
        <time>2019-08-13T14:39:31Z</time>
      </trkpt>
      <trkpt lat="40.3259010" lon="-4.4285700">
        <ele>676.8</ele>
        <time>2019-08-13T14:39:32Z</time>
      </trkpt>
      <trkpt lat="40.3259420" lon="-4.4286390">
        <ele>676.9</ele>
        <time>2019-08-13T14:39:33Z</time>
      </trkpt>
      <trkpt lat="40.3259840" lon="-4.4287060">
        <ele>677.0</ele>
        <time>2019-08-13T14:39:34Z</time>
      </trkpt>
      <trkpt lat="40.3260240" lon="-4.4287720">
        <ele>677.1</ele>
        <time>2019-08-13T14:39:35Z</time>
      </trkpt>
      <trkpt lat="40.3260620" lon="-4.4288360">
        <ele>677.2</ele>
        <time>2019-08-13T14:39:36Z</time>
      </trkpt>
      <trkpt lat="40.3261000" lon="-4.4288990">
        <ele>677.3</ele>
        <time>2019-08-13T14:39:37Z</time>
      </trkpt>
      <trkpt lat="40.3261350" lon="-4.4289610">
        <ele>677.4</ele>
        <time>2019-08-13T14:39:38Z</time>
      </trkpt>
      <trkpt lat="40.3261690" lon="-4.4290210">
        <ele>677.5</ele>
        <time>2019-08-13T14:39:39Z</time>
      </trkpt>
      <trkpt lat="40.3262030" lon="-4.4290800">
        <ele>677.7</ele>
        <time>2019-08-13T14:39:40Z</time>
      </trkpt>
      <trkpt lat="40.3262360" lon="-4.4291390">
        <ele>677.8</ele>
        <time>2019-08-13T14:39:41Z</time>
      </trkpt>
      <trkpt lat="40.3262690" lon="-4.4291990">
        <ele>678.0</ele>
        <time>2019-08-13T14:39:42Z</time>
      </trkpt>
      <trkpt lat="40.3263000" lon="-4.4292600">
        <ele>678.2</ele>
        <time>2019-08-13T14:39:43Z</time>
      </trkpt>
      <trkpt lat="40.3263300" lon="-4.4293220">
        <ele>678.5</ele>
        <time>2019-08-13T14:39:44Z</time>
      </trkpt>
      <trkpt lat="40.3263590" lon="-4.4293840">
        <ele>678.7</ele>
        <time>2019-08-13T14:39:45Z</time>
      </trkpt>
      <trkpt lat="40.3263880" lon="-4.4294440">
        <ele>678.8</ele>
        <time>2019-08-13T14:39:46Z</time>
      </trkpt>
      <trkpt lat="40.3264140" lon="-4.4295020">
        <ele>679.0</ele>
        <time>2019-08-13T14:39:47Z</time>
      </trkpt>
      <trkpt lat="40.3264410" lon="-4.4295620">
        <ele>679.2</ele>
        <time>2019-08-13T14:39:48Z</time>
      </trkpt>
      <trkpt lat="40.3264650" lon="-4.4296230">
        <ele>679.3</ele>
        <time>2019-08-13T14:39:49Z</time>
      </trkpt>
      <trkpt lat="40.3264900" lon="-4.4296850">
        <ele>679.4</ele>
        <time>2019-08-13T14:39:50Z</time>
      </trkpt>
      <trkpt lat="40.3265160" lon="-4.4297500">
        <ele>679.5</ele>
        <time>2019-08-13T14:39:51Z</time>
      </trkpt>
      <trkpt lat="40.3265410" lon="-4.4298150">
        <ele>679.5</ele>
        <time>2019-08-13T14:39:52Z</time>
      </trkpt>
      <trkpt lat="40.3265650" lon="-4.4298810">
        <ele>679.5</ele>
        <time>2019-08-13T14:39:53Z</time>
      </trkpt>
      <trkpt lat="40.3265890" lon="-4.4299440">
        <ele>679.5</ele>
        <time>2019-08-13T14:39:54Z</time>
      </trkpt>
      <trkpt lat="40.3266100" lon="-4.4300060">
        <ele>679.5</ele>
        <time>2019-08-13T14:39:55Z</time>
      </trkpt>
      <trkpt lat="40.3266270" lon="-4.4300640">
        <ele>679.4</ele>
        <time>2019-08-13T14:39:56Z</time>
      </trkpt>
      <trkpt lat="40.3266420" lon="-4.4301210">
        <ele>679.3</ele>
        <time>2019-08-13T14:39:57Z</time>
      </trkpt>
      <trkpt lat="40.3266540" lon="-4.4301760">
        <ele>679.2</ele>
        <time>2019-08-13T14:39:58Z</time>
      </trkpt>
      <trkpt lat="40.3266660" lon="-4.4302290">
        <ele>679.2</ele>
        <time>2019-08-13T14:39:59Z</time>
      </trkpt>
      <trkpt lat="40.3266760" lon="-4.4302810">
        <ele>679.1</ele>
        <time>2019-08-13T14:40:00Z</time>
      </trkpt>
      <trkpt lat="40.3266850" lon="-4.4303340">
        <ele>679.0</ele>
        <time>2019-08-13T14:40:01Z</time>
      </trkpt>
      <trkpt lat="40.3266950" lon="-4.4303850">
        <ele>678.9</ele>
        <time>2019-08-13T14:40:02Z</time>
      </trkpt>
      <trkpt lat="40.3267050" lon="-4.4304380">
        <ele>678.8</ele>
        <time>2019-08-13T14:40:03Z</time>
      </trkpt>
      <trkpt lat="40.3267130" lon="-4.4304920">
        <ele>678.7</ele>
        <time>2019-08-13T14:40:04Z</time>
      </trkpt>
      <trkpt lat="40.3267220" lon="-4.4305460">
        <ele>678.5</ele>
        <time>2019-08-13T14:40:05Z</time>
      </trkpt>
      <trkpt lat="40.3267320" lon="-4.4306050">
        <ele>678.4</ele>
        <time>2019-08-13T14:40:06Z</time>
      </trkpt>
      <trkpt lat="40.3267440" lon="-4.4306690">
        <ele>678.2</ele>
        <time>2019-08-13T14:40:07Z</time>
      </trkpt>
      <trkpt lat="40.3267570" lon="-4.4307380">
        <ele>678.0</ele>
        <time>2019-08-13T14:40:08Z</time>
      </trkpt>
      <trkpt lat="40.3267710" lon="-4.4308130">
        <ele>677.9</ele>
        <time>2019-08-13T14:40:09Z</time>
      </trkpt>
      <trkpt lat="40.3267890" lon="-4.4308900">
        <ele>677.7</ele>
        <time>2019-08-13T14:40:10Z</time>
      </trkpt>
      <trkpt lat="40.3268110" lon="-4.4309700">
        <ele>677.5</ele>
        <time>2019-08-13T14:40:11Z</time>
      </trkpt>
      <trkpt lat="40.3268330" lon="-4.4310540">
        <ele>677.3</ele>
        <time>2019-08-13T14:40:12Z</time>
      </trkpt>
      <trkpt lat="40.3268570" lon="-4.4311430">
        <ele>677.2</ele>
        <time>2019-08-13T14:40:13Z</time>
      </trkpt>
      <trkpt lat="40.3268820" lon="-4.4312340">
        <ele>677.0</ele>
        <time>2019-08-13T14:40:14Z</time>
      </trkpt>
      <trkpt lat="40.3269080" lon="-4.4313290">
        <ele>676.7</ele>
        <time>2019-08-13T14:40:15Z</time>
      </trkpt>
      <trkpt lat="40.3269360" lon="-4.4314250">
        <ele>676.5</ele>
        <time>2019-08-13T14:40:16Z</time>
      </trkpt>
      <trkpt lat="40.3269660" lon="-4.4315210">
        <ele>676.2</ele>
        <time>2019-08-13T14:40:17Z</time>
      </trkpt>
      <trkpt lat="40.3269980" lon="-4.4316170">
        <ele>675.8</ele>
        <time>2019-08-13T14:40:18Z</time>
      </trkpt>
      <trkpt lat="40.3270340" lon="-4.4317140">
        <ele>675.4</ele>
        <time>2019-08-13T14:40:19Z</time>
      </trkpt>
      <trkpt lat="40.3270760" lon="-4.4318080">
        <ele>674.9</ele>
        <time>2019-08-13T14:40:20Z</time>
      </trkpt>
      <trkpt lat="40.3271240" lon="-4.4318970">
        <ele>674.4</ele>
        <time>2019-08-13T14:40:21Z</time>
      </trkpt>
      <trkpt lat="40.3271740" lon="-4.4319830">
        <ele>673.9</ele>
        <time>2019-08-13T14:40:22Z</time>
      </trkpt>
      <trkpt lat="40.3272240" lon="-4.4320680">
        <ele>673.5</ele>
        <time>2019-08-13T14:40:23Z</time>
      </trkpt>
      <trkpt lat="40.3272740" lon="-4.4321510">
        <ele>673.2</ele>
        <time>2019-08-13T14:40:24Z</time>
      </trkpt>
      <trkpt lat="40.3273270" lon="-4.4322330">
        <ele>672.9</ele>
        <time>2019-08-13T14:40:25Z</time>
      </trkpt>
      <trkpt lat="40.3273790" lon="-4.4323130">
        <ele>672.7</ele>
        <time>2019-08-13T14:40:26Z</time>
      </trkpt>
      <trkpt lat="40.3274310" lon="-4.4323940">
        <ele>672.6</ele>
        <time>2019-08-13T14:40:27Z</time>
      </trkpt>
      <trkpt lat="40.3274830" lon="-4.4324730">
        <ele>672.5</ele>
        <time>2019-08-13T14:40:28Z</time>
      </trkpt>
      <trkpt lat="40.3275360" lon="-4.4325490">
        <ele>672.3</ele>
        <time>2019-08-13T14:40:29Z</time>
      </trkpt>
      <trkpt lat="40.3275910" lon="-4.4326240">
        <ele>672.3</ele>
        <time>2019-08-13T14:40:30Z</time>
      </trkpt>
      <trkpt lat="40.3276460" lon="-4.4326950">
        <ele>672.2</ele>
        <time>2019-08-13T14:40:31Z</time>
      </trkpt>
      <trkpt lat="40.3277010" lon="-4.4327640">
        <ele>672.2</ele>
        <time>2019-08-13T14:40:32Z</time>
      </trkpt>
      <trkpt lat="40.3277550" lon="-4.4328290">
        <ele>672.2</ele>
        <time>2019-08-13T14:40:33Z</time>
      </trkpt>
      <trkpt lat="40.3278090" lon="-4.4328920">
        <ele>672.3</ele>
        <time>2019-08-13T14:40:34Z</time>
      </trkpt>
      <trkpt lat="40.3278640" lon="-4.4329520">
        <ele>672.4</ele>
        <time>2019-08-13T14:40:35Z</time>
      </trkpt>
      <trkpt lat="40.3279180" lon="-4.4330100">
        <ele>672.5</ele>
        <time>2019-08-13T14:40:36Z</time>
      </trkpt>
      <trkpt lat="40.3279730" lon="-4.4330660">
        <ele>672.7</ele>
        <time>2019-08-13T14:40:37Z</time>
      </trkpt>
      <trkpt lat="40.3280270" lon="-4.4331210">
        <ele>672.8</ele>
        <time>2019-08-13T14:40:38Z</time>
      </trkpt>
      <trkpt lat="40.3280830" lon="-4.4331740">
        <ele>673.0</ele>
        <time>2019-08-13T14:40:39Z</time>
      </trkpt>
      <trkpt lat="40.3281390" lon="-4.4332260">
        <ele>672.8</ele>
        <time>2019-08-13T14:40:40Z</time>
      </trkpt>
      <trkpt lat="40.3281950" lon="-4.4332780">
        <ele>672.6</ele>
        <time>2019-08-13T14:40:41Z</time>
      </trkpt>
      <trkpt lat="40.3282510" lon="-4.4333320">
        <ele>672.4</ele>
        <time>2019-08-13T14:40:42Z</time>
      </trkpt>
      <trkpt lat="40.3283070" lon="-4.4333890">
        <ele>672.3</ele>
        <time>2019-08-13T14:40:43Z</time>
      </trkpt>
      <trkpt lat="40.3283620" lon="-4.4334480">
        <ele>672.2</ele>
        <time>2019-08-13T14:40:44Z</time>
      </trkpt>
      <trkpt lat="40.3284140" lon="-4.4335110">
        <ele>672.1</ele>
        <time>2019-08-13T14:40:45Z</time>
      </trkpt>
      <trkpt lat="40.3284670" lon="-4.4335760">
        <ele>672.0</ele>
        <time>2019-08-13T14:40:46Z</time>
      </trkpt>
      <trkpt lat="40.3285180" lon="-4.4336430">
        <ele>671.9</ele>
        <time>2019-08-13T14:40:47Z</time>
      </trkpt>
      <trkpt lat="40.3285690" lon="-4.4337120">
        <ele>671.9</ele>
        <time>2019-08-13T14:40:48Z</time>
      </trkpt>
      <trkpt lat="40.3286180" lon="-4.4337820">
        <ele>671.8</ele>
        <time>2019-08-13T14:40:49Z</time>
      </trkpt>
      <trkpt lat="40.3286650" lon="-4.4338530">
        <ele>671.8</ele>
        <time>2019-08-13T14:40:50Z</time>
      </trkpt>
      <trkpt lat="40.3287130" lon="-4.4339240">
        <ele>671.8</ele>
        <time>2019-08-13T14:40:51Z</time>
      </trkpt>
      <trkpt lat="40.3287610" lon="-4.4339950">
        <ele>671.8</ele>
        <time>2019-08-13T14:40:52Z</time>
      </trkpt>
      <trkpt lat="40.3288100" lon="-4.4340640">
        <ele>671.8</ele>
        <time>2019-08-13T14:40:53Z</time>
      </trkpt>
      <trkpt lat="40.3288590" lon="-4.4341330">
        <ele>671.8</ele>
        <time>2019-08-13T14:40:54Z</time>
      </trkpt>
      <trkpt lat="40.3289040" lon="-4.4342000">
        <ele>671.8</ele>
        <time>2019-08-13T14:40:55Z</time>
      </trkpt>
      <trkpt lat="40.3289480" lon="-4.4342660">
        <ele>671.8</ele>
        <time>2019-08-13T14:40:56Z</time>
      </trkpt>
      <trkpt lat="40.3289920" lon="-4.4343290">
        <ele>671.8</ele>
        <time>2019-08-13T14:40:57Z</time>
      </trkpt>
      <trkpt lat="40.3290350" lon="-4.4343910">
        <ele>671.8</ele>
        <time>2019-08-13T14:40:58Z</time>
      </trkpt>
      <trkpt lat="40.3290770" lon="-4.4344500">
        <ele>671.8</ele>
        <time>2019-08-13T14:40:59Z</time>
      </trkpt>
      <trkpt lat="40.3291190" lon="-4.4345090">
        <ele>671.8</ele>
        <time>2019-08-13T14:41:00Z</time>
      </trkpt>
      <trkpt lat="40.3291610" lon="-4.4345680">
        <ele>671.8</ele>
        <time>2019-08-13T14:41:01Z</time>
      </trkpt>
      <trkpt lat="40.3292040" lon="-4.4346290">
        <ele>671.8</ele>
        <time>2019-08-13T14:41:02Z</time>
      </trkpt>
      <trkpt lat="40.3292470" lon="-4.4346910">
        <ele>671.8</ele>
        <time>2019-08-13T14:41:03Z</time>
      </trkpt>
      <trkpt lat="40.3292900" lon="-4.4347530">
        <ele>671.8</ele>
        <time>2019-08-13T14:41:04Z</time>
      </trkpt>
      <trkpt lat="40.3293320" lon="-4.4348140">
        <ele>671.8</ele>
        <time>2019-08-13T14:41:05Z</time>
      </trkpt>
      <trkpt lat="40.3293730" lon="-4.4348750">
        <ele>671.7</ele>
        <time>2019-08-13T14:41:06Z</time>
      </trkpt>
      <trkpt lat="40.3294160" lon="-4.4349370">
        <ele>671.7</ele>
        <time>2019-08-13T14:41:07Z</time>
      </trkpt>
      <trkpt lat="40.3294600" lon="-4.4349990">
        <ele>671.7</ele>
        <time>2019-08-13T14:41:08Z</time>
      </trkpt>
      <trkpt lat="40.3295030" lon="-4.4350610">
        <ele>671.7</ele>
        <time>2019-08-13T14:41:09Z</time>
      </trkpt>
      <trkpt lat="40.3295470" lon="-4.4351230">
        <ele>671.7</ele>
        <time>2019-08-13T14:41:10Z</time>
      </trkpt>
      <trkpt lat="40.3295890" lon="-4.4351830">
        <ele>671.7</ele>
        <time>2019-08-13T14:41:11Z</time>
      </trkpt>
      <trkpt lat="40.3296330" lon="-4.4352440">
        <ele>671.6</ele>
        <time>2019-08-13T14:41:12Z</time>
      </trkpt>
      <trkpt lat="40.3296740" lon="-4.4353030">
        <ele>671.6</ele>
        <time>2019-08-13T14:41:13Z</time>
      </trkpt>
      <trkpt lat="40.3297150" lon="-4.4353620">
        <ele>671.6</ele>
        <time>2019-08-13T14:41:14Z</time>
      </trkpt>
      <trkpt lat="40.3297540" lon="-4.4354210">
        <ele>671.6</ele>
        <time>2019-08-13T14:41:15Z</time>
      </trkpt>
      <trkpt lat="40.3297920" lon="-4.4354770">
        <ele>671.5</ele>
        <time>2019-08-13T14:41:16Z</time>
      </trkpt>
      <trkpt lat="40.3298280" lon="-4.4355290">
        <ele>671.5</ele>
        <time>2019-08-13T14:41:17Z</time>
      </trkpt>
      <trkpt lat="40.3298660" lon="-4.4355810">
        <ele>671.4</ele>
        <time>2019-08-13T14:41:18Z</time>
      </trkpt>
      <trkpt lat="40.3299030" lon="-4.4356320">
        <ele>671.4</ele>
        <time>2019-08-13T14:41:19Z</time>
      </trkpt>
      <trkpt lat="40.3299390" lon="-4.4356860">
        <ele>671.4</ele>
        <time>2019-08-13T14:41:20Z</time>
      </trkpt>
      <trkpt lat="40.3299770" lon="-4.4357420">
        <ele>671.3</ele>
        <time>2019-08-13T14:41:21Z</time>
      </trkpt>
      <trkpt lat="40.3300170" lon="-4.4357990">
        <ele>671.3</ele>
        <time>2019-08-13T14:41:22Z</time>
      </trkpt>
      <trkpt lat="40.3300580" lon="-4.4358570">
        <ele>671.2</ele>
        <time>2019-08-13T14:41:23Z</time>
      </trkpt>
      <trkpt lat="40.3301010" lon="-4.4359170">
        <ele>671.2</ele>
        <time>2019-08-13T14:41:24Z</time>
      </trkpt>
      <trkpt lat="40.3301460" lon="-4.4359760">
        <ele>671.1</ele>
        <time>2019-08-13T14:41:25Z</time>
      </trkpt>
      <trkpt lat="40.3301920" lon="-4.4360350">
        <ele>671.1</ele>
        <time>2019-08-13T14:41:26Z</time>
      </trkpt>
      <trkpt lat="40.3302390" lon="-4.4360920">
        <ele>671.0</ele>
        <time>2019-08-13T14:41:27Z</time>
      </trkpt>
      <trkpt lat="40.3302900" lon="-4.4361470">
        <ele>670.9</ele>
        <time>2019-08-13T14:41:28Z</time>
      </trkpt>
      <trkpt lat="40.3303430" lon="-4.4361990">
        <ele>670.9</ele>
        <time>2019-08-13T14:41:29Z</time>
      </trkpt>
      <trkpt lat="40.3303990" lon="-4.4362500">
        <ele>670.8</ele>
        <time>2019-08-13T14:41:30Z</time>
      </trkpt>
      <trkpt lat="40.3304550" lon="-4.4363000">
        <ele>670.6</ele>
        <time>2019-08-13T14:41:31Z</time>
      </trkpt>
      <trkpt lat="40.3305130" lon="-4.4363500">
        <ele>670.5</ele>
        <time>2019-08-13T14:41:32Z</time>
      </trkpt>
      <trkpt lat="40.3305720" lon="-4.4364000">
        <ele>670.3</ele>
        <time>2019-08-13T14:41:33Z</time>
      </trkpt>
      <trkpt lat="40.3306310" lon="-4.4364510">
        <ele>670.1</ele>
        <time>2019-08-13T14:41:34Z</time>
      </trkpt>
      <trkpt lat="40.3306890" lon="-4.4365050">
        <ele>669.9</ele>
        <time>2019-08-13T14:41:35Z</time>
      </trkpt>
      <trkpt lat="40.3307470" lon="-4.4365610">
        <ele>669.7</ele>
        <time>2019-08-13T14:41:36Z</time>
      </trkpt>
      <trkpt lat="40.3308030" lon="-4.4366190">
        <ele>669.5</ele>
        <time>2019-08-13T14:41:37Z</time>
      </trkpt>
      <trkpt lat="40.3308560" lon="-4.4366770">
        <ele>669.3</ele>
        <time>2019-08-13T14:41:38Z</time>
      </trkpt>
      <trkpt lat="40.3309090" lon="-4.4367380">
        <ele>669.2</ele>
        <time>2019-08-13T14:41:39Z</time>
      </trkpt>
      <trkpt lat="40.3309600" lon="-4.4368000">
        <ele>668.9</ele>
        <time>2019-08-13T14:41:40Z</time>
      </trkpt>
      <trkpt lat="40.3310100" lon="-4.4368640">
        <ele>668.5</ele>
        <time>2019-08-13T14:41:41Z</time>
      </trkpt>
      <trkpt lat="40.3310600" lon="-4.4369280">
        <ele>668.1</ele>
        <time>2019-08-13T14:41:42Z</time>
      </trkpt>
      <trkpt lat="40.3311080" lon="-4.4369960">
        <ele>667.7</ele>
        <time>2019-08-13T14:41:43Z</time>
      </trkpt>
      <trkpt lat="40.3311540" lon="-4.4370680">
        <ele>667.4</ele>
        <time>2019-08-13T14:41:44Z</time>
      </trkpt>
      <trkpt lat="40.3311990" lon="-4.4371420">
        <ele>667.0</ele>
        <time>2019-08-13T14:41:45Z</time>
      </trkpt>
      <trkpt lat="40.3312440" lon="-4.4372190">
        <ele>666.6</ele>
        <time>2019-08-13T14:41:46Z</time>
      </trkpt>
      <trkpt lat="40.3312880" lon="-4.4372970">
        <ele>666.2</ele>
        <time>2019-08-13T14:41:47Z</time>
      </trkpt>
      <trkpt lat="40.3313340" lon="-4.4373760">
        <ele>665.9</ele>
        <time>2019-08-13T14:41:48Z</time>
      </trkpt>
      <trkpt lat="40.3313800" lon="-4.4374550">
        <ele>665.6</ele>
        <time>2019-08-13T14:41:49Z</time>
      </trkpt>
      <trkpt lat="40.3314280" lon="-4.4375350">
        <ele>665.4</ele>
        <time>2019-08-13T14:41:50Z</time>
      </trkpt>
      <trkpt lat="40.3314800" lon="-4.4376130">
        <ele>665.1</ele>
        <time>2019-08-13T14:41:51Z</time>
      </trkpt>
      <trkpt lat="40.3315360" lon="-4.4376890">
        <ele>665.0</ele>
        <time>2019-08-13T14:41:52Z</time>
      </trkpt>
      <trkpt lat="40.3315940" lon="-4.4377610">
        <ele>664.8</ele>
        <time>2019-08-13T14:41:53Z</time>
      </trkpt>
      <trkpt lat="40.3316520" lon="-4.4378300">
        <ele>664.7</ele>
        <time>2019-08-13T14:41:54Z</time>
      </trkpt>
      <trkpt lat="40.3317110" lon="-4.4378960">
        <ele>664.7</ele>
        <time>2019-08-13T14:41:55Z</time>
      </trkpt>
      <trkpt lat="40.3317710" lon="-4.4379610">
        <ele>664.7</ele>
        <time>2019-08-13T14:41:56Z</time>
      </trkpt>
      <trkpt lat="40.3318310" lon="-4.4380250">
        <ele>664.6</ele>
        <time>2019-08-13T14:41:57Z</time>
      </trkpt>
      <trkpt lat="40.3318910" lon="-4.4380910">
        <ele>664.6</ele>
        <time>2019-08-13T14:41:58Z</time>
      </trkpt>
      <trkpt lat="40.3319520" lon="-4.4381550">
        <ele>664.6</ele>
        <time>2019-08-13T14:41:59Z</time>
      </trkpt>
      <trkpt lat="40.3320120" lon="-4.4382200">
        <ele>664.6</ele>
        <time>2019-08-13T14:42:00Z</time>
      </trkpt>
      <trkpt lat="40.3320720" lon="-4.4382840">
        <ele>664.5</ele>
        <time>2019-08-13T14:42:01Z</time>
      </trkpt>
      <trkpt lat="40.3321320" lon="-4.4383480">
        <ele>664.5</ele>
        <time>2019-08-13T14:42:02Z</time>
      </trkpt>
      <trkpt lat="40.3321910" lon="-4.4384120">
        <ele>664.5</ele>
        <time>2019-08-13T14:42:03Z</time>
      </trkpt>
      <trkpt lat="40.3322490" lon="-4.4384750">
        <ele>664.5</ele>
        <time>2019-08-13T14:42:04Z</time>
      </trkpt>
      <trkpt lat="40.3323070" lon="-4.4385380">
        <ele>664.5</ele>
        <time>2019-08-13T14:42:05Z</time>
      </trkpt>
      <trkpt lat="40.3323650" lon="-4.4386020">
        <ele>664.5</ele>
        <time>2019-08-13T14:42:06Z</time>
      </trkpt>
      <trkpt lat="40.3324250" lon="-4.4386660">
        <ele>664.5</ele>
        <time>2019-08-13T14:42:07Z</time>
      </trkpt>
      <trkpt lat="40.3324850" lon="-4.4387300">
        <ele>664.5</ele>
        <time>2019-08-13T14:42:08Z</time>
      </trkpt>
      <trkpt lat="40.3325440" lon="-4.4387950">
        <ele>664.5</ele>
        <time>2019-08-13T14:42:09Z</time>
      </trkpt>
      <trkpt lat="40.3326040" lon="-4.4388580">
        <ele>664.4</ele>
        <time>2019-08-13T14:42:10Z</time>
      </trkpt>
      <trkpt lat="40.3326650" lon="-4.4389200">
        <ele>664.4</ele>
        <time>2019-08-13T14:42:11Z</time>
      </trkpt>
      <trkpt lat="40.3327250" lon="-4.4389790">
        <ele>664.4</ele>
        <time>2019-08-13T14:42:12Z</time>
      </trkpt>
      <trkpt lat="40.3327840" lon="-4.4390380">
        <ele>664.4</ele>
        <time>2019-08-13T14:42:13Z</time>
      </trkpt>
      <trkpt lat="40.3328440" lon="-4.4390950">
        <ele>664.4</ele>
        <time>2019-08-13T14:42:14Z</time>
      </trkpt>
      <trkpt lat="40.3329020" lon="-4.4391500">
        <ele>664.4</ele>
        <time>2019-08-13T14:42:15Z</time>
      </trkpt>
      <trkpt lat="40.3329590" lon="-4.4392050">
        <ele>664.4</ele>
        <time>2019-08-13T14:42:16Z</time>
      </trkpt>
      <trkpt lat="40.3330170" lon="-4.4392560">
        <ele>664.3</ele>
        <time>2019-08-13T14:42:17Z</time>
      </trkpt>
      <trkpt lat="40.3330740" lon="-4.4393090">
        <ele>664.3</ele>
        <time>2019-08-13T14:42:18Z</time>
      </trkpt>
      <trkpt lat="40.3331300" lon="-4.4393610">
        <ele>664.3</ele>
        <time>2019-08-13T14:42:19Z</time>
      </trkpt>
      <trkpt lat="40.3331860" lon="-4.4394130">
        <ele>664.3</ele>
        <time>2019-08-13T14:42:20Z</time>
      </trkpt>
      <trkpt lat="40.3332420" lon="-4.4394650">
        <ele>664.3</ele>
        <time>2019-08-13T14:42:21Z</time>
      </trkpt>
      <trkpt lat="40.3332970" lon="-4.4395150">
        <ele>664.3</ele>
        <time>2019-08-13T14:42:22Z</time>
      </trkpt>
      <trkpt lat="40.3333500" lon="-4.4395650">
        <ele>664.3</ele>
        <time>2019-08-13T14:42:23Z</time>
      </trkpt>
      <trkpt lat="40.3334030" lon="-4.4396130">
        <ele>664.3</ele>
        <time>2019-08-13T14:42:24Z</time>
      </trkpt>
      <trkpt lat="40.3334540" lon="-4.4396610">
        <ele>664.3</ele>
        <time>2019-08-13T14:42:25Z</time>
      </trkpt>
      <trkpt lat="40.3335050" lon="-4.4397080">
        <ele>664.2</ele>
        <time>2019-08-13T14:42:26Z</time>
      </trkpt>
      <trkpt lat="40.3335560" lon="-4.4397550">
        <ele>664.2</ele>
        <time>2019-08-13T14:42:27Z</time>
      </trkpt>
      <trkpt lat="40.3336070" lon="-4.4398010">
        <ele>664.2</ele>
        <time>2019-08-13T14:42:28Z</time>
      </trkpt>
      <trkpt lat="40.3336570" lon="-4.4398490">
        <ele>664.2</ele>
        <time>2019-08-13T14:42:29Z</time>
      </trkpt>
      <trkpt lat="40.3337060" lon="-4.4398960">
        <ele>664.2</ele>
        <time>2019-08-13T14:42:30Z</time>
      </trkpt>
      <trkpt lat="40.3337560" lon="-4.4399430">
        <ele>664.2</ele>
        <time>2019-08-13T14:42:31Z</time>
      </trkpt>
      <trkpt lat="40.3338040" lon="-4.4399900">
        <ele>664.2</ele>
        <time>2019-08-13T14:42:32Z</time>
      </trkpt>
      <trkpt lat="40.3338530" lon="-4.4400380">
        <ele>664.2</ele>
        <time>2019-08-13T14:42:33Z</time>
      </trkpt>
      <trkpt lat="40.3339020" lon="-4.4400900">
        <ele>664.2</ele>
        <time>2019-08-13T14:42:34Z</time>
      </trkpt>
      <trkpt lat="40.3339500" lon="-4.4401430">
        <ele>664.2</ele>
        <time>2019-08-13T14:42:35Z</time>
      </trkpt>
      <trkpt lat="40.3339990" lon="-4.4401970">
        <ele>664.1</ele>
        <time>2019-08-13T14:42:36Z</time>
      </trkpt>
      <trkpt lat="40.3340480" lon="-4.4402530">
        <ele>664.1</ele>
        <time>2019-08-13T14:42:37Z</time>
      </trkpt>
      <trkpt lat="40.3340970" lon="-4.4403080">
        <ele>664.1</ele>
        <time>2019-08-13T14:42:38Z</time>
      </trkpt>
      <trkpt lat="40.3341470" lon="-4.4403630">
        <ele>664.1</ele>
        <time>2019-08-13T14:42:39Z</time>
      </trkpt>
      <trkpt lat="40.3341970" lon="-4.4404220">
        <ele>664.1</ele>
        <time>2019-08-13T14:42:40Z</time>
      </trkpt>
      <trkpt lat="40.3342460" lon="-4.4404820">
        <ele>664.1</ele>
        <time>2019-08-13T14:42:41Z</time>
      </trkpt>
      <trkpt lat="40.3342970" lon="-4.4405400">
        <ele>664.1</ele>
        <time>2019-08-13T14:42:42Z</time>
      </trkpt>
      <trkpt lat="40.3343490" lon="-4.4405990">
        <ele>664.0</ele>
        <time>2019-08-13T14:42:43Z</time>
      </trkpt>
      <trkpt lat="40.3344020" lon="-4.4406550">
        <ele>664.0</ele>
        <time>2019-08-13T14:42:44Z</time>
      </trkpt>
      <trkpt lat="40.3344550" lon="-4.4407090">
        <ele>664.0</ele>
        <time>2019-08-13T14:42:45Z</time>
      </trkpt>
      <trkpt lat="40.3345080" lon="-4.4407630">
        <ele>664.0</ele>
        <time>2019-08-13T14:42:46Z</time>
      </trkpt>
      <trkpt lat="40.3345620" lon="-4.4408140">
        <ele>664.0</ele>
        <time>2019-08-13T14:42:47Z</time>
      </trkpt>
      <trkpt lat="40.3346150" lon="-4.4408660">
        <ele>664.0</ele>
        <time>2019-08-13T14:42:48Z</time>
      </trkpt>
      <trkpt lat="40.3346680" lon="-4.4409180">
        <ele>664.0</ele>
        <time>2019-08-13T14:42:49Z</time>
      </trkpt>
      <trkpt lat="40.3347200" lon="-4.4409690">
        <ele>663.9</ele>
        <time>2019-08-13T14:42:50Z</time>
      </trkpt>
      <trkpt lat="40.3347720" lon="-4.4410210">
        <ele>663.8</ele>
        <time>2019-08-13T14:42:51Z</time>
      </trkpt>
      <trkpt lat="40.3348240" lon="-4.4410710">
        <ele>663.7</ele>
        <time>2019-08-13T14:42:52Z</time>
      </trkpt>
      <trkpt lat="40.3348770" lon="-4.4411200">
        <ele>663.6</ele>
        <time>2019-08-13T14:42:53Z</time>
      </trkpt>
      <trkpt lat="40.3349310" lon="-4.4411690">
        <ele>663.5</ele>
        <time>2019-08-13T14:42:54Z</time>
      </trkpt>
      <trkpt lat="40.3349850" lon="-4.4412160">
        <ele>663.4</ele>
        <time>2019-08-13T14:42:55Z</time>
      </trkpt>
      <trkpt lat="40.3350410" lon="-4.4412610">
        <ele>663.4</ele>
        <time>2019-08-13T14:42:56Z</time>
      </trkpt>
      <trkpt lat="40.3351000" lon="-4.4413040">
        <ele>663.5</ele>
        <time>2019-08-13T14:42:57Z</time>
      </trkpt>
      <trkpt lat="40.3351610" lon="-4.4413460">
        <ele>663.6</ele>
        <time>2019-08-13T14:42:58Z</time>
      </trkpt>
      <trkpt lat="40.3352230" lon="-4.4413840">
        <ele>663.7</ele>
        <time>2019-08-13T14:42:59Z</time>
      </trkpt>
      <trkpt lat="40.3352870" lon="-4.4414210">
        <ele>663.9</ele>
        <time>2019-08-13T14:43:00Z</time>
      </trkpt>
      <trkpt lat="40.3353530" lon="-4.4414560">
        <ele>664.2</ele>
        <time>2019-08-13T14:43:01Z</time>
      </trkpt>
      <trkpt lat="40.3354200" lon="-4.4414890">
        <ele>664.4</ele>
        <time>2019-08-13T14:43:02Z</time>
      </trkpt>
      <trkpt lat="40.3354870" lon="-4.4415230">
        <ele>664.6</ele>
        <time>2019-08-13T14:43:03Z</time>
      </trkpt>
      <trkpt lat="40.3355540" lon="-4.4415540">
        <ele>664.7</ele>
        <time>2019-08-13T14:43:04Z</time>
      </trkpt>
      <trkpt lat="40.3356210" lon="-4.4415810">
        <ele>664.8</ele>
        <time>2019-08-13T14:43:05Z</time>
      </trkpt>
      <trkpt lat="40.3356890" lon="-4.4416070">
        <ele>664.8</ele>
        <time>2019-08-13T14:43:06Z</time>
      </trkpt>
      <trkpt lat="40.3357580" lon="-4.4416330">
        <ele>664.9</ele>
        <time>2019-08-13T14:43:07Z</time>
      </trkpt>
      <trkpt lat="40.3358280" lon="-4.4416590">
        <ele>665.0</ele>
        <time>2019-08-13T14:43:08Z</time>
      </trkpt>
      <trkpt lat="40.3359000" lon="-4.4416850">
        <ele>665.0</ele>
        <time>2019-08-13T14:43:09Z</time>
      </trkpt>
      <trkpt lat="40.3359680" lon="-4.4417090">
        <ele>665.1</ele>
        <time>2019-08-13T14:43:10Z</time>
      </trkpt>
      <trkpt lat="40.3360340" lon="-4.4417300">
        <ele>665.2</ele>
        <time>2019-08-13T14:43:11Z</time>
      </trkpt>
      <trkpt lat="40.3361050" lon="-4.4417490">
        <ele>665.2</ele>
        <time>2019-08-13T14:43:12Z</time>
      </trkpt>
      <trkpt lat="40.3361750" lon="-4.4417680">
        <ele>665.2</ele>
        <time>2019-08-13T14:43:13Z</time>
      </trkpt>
      <trkpt lat="40.3362460" lon="-4.4417880">
        <ele>665.3</ele>
        <time>2019-08-13T14:43:14Z</time>
      </trkpt>
      <trkpt lat="40.3363190" lon="-4.4418090">
        <ele>665.3</ele>
        <time>2019-08-13T14:43:15Z</time>
      </trkpt>
      <trkpt lat="40.3363910" lon="-4.4418240">
        <ele>665.3</ele>
        <time>2019-08-13T14:43:16Z</time>
      </trkpt>
      <trkpt lat="40.3364620" lon="-4.4418380">
        <ele>665.3</ele>
        <time>2019-08-13T14:43:17Z</time>
      </trkpt>
      <trkpt lat="40.3365320" lon="-4.4418530">
        <ele>665.3</ele>
        <time>2019-08-13T14:43:18Z</time>
      </trkpt>
      <trkpt lat="40.3366000" lon="-4.4418690">
        <ele>665.3</ele>
        <time>2019-08-13T14:43:19Z</time>
      </trkpt>
      <trkpt lat="40.3366660" lon="-4.4418860">
        <ele>665.2</ele>
        <time>2019-08-13T14:43:20Z</time>
      </trkpt>
      <trkpt lat="40.3367320" lon="-4.4419020">
        <ele>665.2</ele>
        <time>2019-08-13T14:43:21Z</time>
      </trkpt>
      <trkpt lat="40.3367980" lon="-4.4419180">
        <ele>665.2</ele>
        <time>2019-08-13T14:43:22Z</time>
      </trkpt>
      <trkpt lat="40.3368650" lon="-4.4419360">
        <ele>665.2</ele>
        <time>2019-08-13T14:43:23Z</time>
      </trkpt>
      <trkpt lat="40.3369300" lon="-4.4419540">
        <ele>665.3</ele>
        <time>2019-08-13T14:43:24Z</time>
      </trkpt>
      <trkpt lat="40.3369940" lon="-4.4419670">
        <ele>665.2</ele>
        <time>2019-08-13T14:43:25Z</time>
      </trkpt>
      <trkpt lat="40.3370610" lon="-4.4419810">
        <ele>665.3</ele>
        <time>2019-08-13T14:43:26Z</time>
      </trkpt>
      <trkpt lat="40.3371300" lon="-4.4419980">
        <ele>665.3</ele>
        <time>2019-08-13T14:43:27Z</time>
      </trkpt>
      <trkpt lat="40.3371990" lon="-4.4420160">
        <ele>665.2</ele>
        <time>2019-08-13T14:43:28Z</time>
      </trkpt>
      <trkpt lat="40.3372690" lon="-4.4420340">
        <ele>665.1</ele>
        <time>2019-08-13T14:43:29Z</time>
      </trkpt>
      <trkpt lat="40.3373400" lon="-4.4420540">
        <ele>665.0</ele>
        <time>2019-08-13T14:43:30Z</time>
      </trkpt>
      <trkpt lat="40.3374090" lon="-4.4420740">
        <ele>664.9</ele>
        <time>2019-08-13T14:43:31Z</time>
      </trkpt>
      <trkpt lat="40.3374770" lon="-4.4420930">
        <ele>664.9</ele>
        <time>2019-08-13T14:43:32Z</time>
      </trkpt>
      <trkpt lat="40.3375450" lon="-4.4421090">
        <ele>664.8</ele>
        <time>2019-08-13T14:43:33Z</time>
      </trkpt>
      <trkpt lat="40.3376120" lon="-4.4421250">
        <ele>664.7</ele>
        <time>2019-08-13T14:43:34Z</time>
      </trkpt>
      <trkpt lat="40.3376800" lon="-4.4421410">
        <ele>664.6</ele>
        <time>2019-08-13T14:43:35Z</time>
      </trkpt>
      <trkpt lat="40.3377490" lon="-4.4421550">
        <ele>664.5</ele>
        <time>2019-08-13T14:43:36Z</time>
      </trkpt>
      <trkpt lat="40.3378160" lon="-4.4421680">
        <ele>664.4</ele>
        <time>2019-08-13T14:43:37Z</time>
      </trkpt>
      <trkpt lat="40.3378850" lon="-4.4421820">
        <ele>664.3</ele>
        <time>2019-08-13T14:43:38Z</time>
      </trkpt>
      <trkpt lat="40.3379560" lon="-4.4421920">
        <ele>664.1</ele>
        <time>2019-08-13T14:43:39Z</time>
      </trkpt>
      <trkpt lat="40.3380270" lon="-4.4422010">
        <ele>664.0</ele>
        <time>2019-08-13T14:43:40Z</time>
      </trkpt>
      <trkpt lat="40.3380980" lon="-4.4422070">
        <ele>664.0</ele>
        <time>2019-08-13T14:43:41Z</time>
      </trkpt>
      <trkpt lat="40.3381700" lon="-4.4422140">
        <ele>664.0</ele>
        <time>2019-08-13T14:43:42Z</time>
      </trkpt>
      <trkpt lat="40.3382360" lon="-4.4422210">
        <ele>664.0</ele>
        <time>2019-08-13T14:43:43Z</time>
      </trkpt>
      <trkpt lat="40.3382990" lon="-4.4422260">
        <ele>663.9</ele>
        <time>2019-08-13T14:43:44Z</time>
      </trkpt>
      <trkpt lat="40.3383640" lon="-4.4422320">
        <ele>663.9</ele>
        <time>2019-08-13T14:43:45Z</time>
      </trkpt>
      <trkpt lat="40.3384290" lon="-4.4422360">
        <ele>663.8</ele>
        <time>2019-08-13T14:43:46Z</time>
      </trkpt>
      <trkpt lat="40.3385000" lon="-4.4422440">
        <ele>663.8</ele>
        <time>2019-08-13T14:43:47Z</time>
      </trkpt>
      <trkpt lat="40.3385700" lon="-4.4422530">
        <ele>663.7</ele>
        <time>2019-08-13T14:43:48Z</time>
      </trkpt>
      <trkpt lat="40.3386410" lon="-4.4422620">
        <ele>663.6</ele>
        <time>2019-08-13T14:43:49Z</time>
      </trkpt>
      <trkpt lat="40.3387090" lon="-4.4422720">
        <ele>663.5</ele>
        <time>2019-08-13T14:43:50Z</time>
      </trkpt>
      <trkpt lat="40.3387800" lon="-4.4422810">
        <ele>663.5</ele>
        <time>2019-08-13T14:43:51Z</time>
      </trkpt>
      <trkpt lat="40.3388470" lon="-4.4422920">
        <ele>663.4</ele>
        <time>2019-08-13T14:43:52Z</time>
      </trkpt>
      <trkpt lat="40.3389160" lon="-4.4423020">
        <ele>663.4</ele>
        <time>2019-08-13T14:43:53Z</time>
      </trkpt>
      <trkpt lat="40.3389860" lon="-4.4423110">
        <ele>663.3</ele>
        <time>2019-08-13T14:43:54Z</time>
      </trkpt>
      <trkpt lat="40.3390640" lon="-4.4423190">
        <ele>663.2</ele>
        <time>2019-08-13T14:43:55Z</time>
      </trkpt>
      <trkpt lat="40.3391430" lon="-4.4423260">
        <ele>663.2</ele>
        <time>2019-08-13T14:43:56Z</time>
      </trkpt>
      <trkpt lat="40.3392210" lon="-4.4423310">
        <ele>663.1</ele>
        <time>2019-08-13T14:43:57Z</time>
      </trkpt>
      <trkpt lat="40.3392950" lon="-4.4423400">
        <ele>663.0</ele>
        <time>2019-08-13T14:43:58Z</time>
      </trkpt>
      <trkpt lat="40.3393650" lon="-4.4423460">
        <ele>663.0</ele>
        <time>2019-08-13T14:43:59Z</time>
      </trkpt>
      <trkpt lat="40.3394360" lon="-4.4423530">
        <ele>662.9</ele>
        <time>2019-08-13T14:44:00Z</time>
      </trkpt>
      <trkpt lat="40.3395070" lon="-4.4423560">
        <ele>662.8</ele>
        <time>2019-08-13T14:44:01Z</time>
      </trkpt>
      <trkpt lat="40.3395800" lon="-4.4423580">
        <ele>662.7</ele>
        <time>2019-08-13T14:44:02Z</time>
      </trkpt>
      <trkpt lat="40.3396520" lon="-4.4423620">
        <ele>662.6</ele>
        <time>2019-08-13T14:44:03Z</time>
      </trkpt>
      <trkpt lat="40.3397250" lon="-4.4423640">
        <ele>662.5</ele>
        <time>2019-08-13T14:44:04Z</time>
      </trkpt>
      <trkpt lat="40.3398010" lon="-4.4423640">
        <ele>662.4</ele>
        <time>2019-08-13T14:44:05Z</time>
      </trkpt>
      <trkpt lat="40.3398760" lon="-4.4423630">
        <ele>662.3</ele>
        <time>2019-08-13T14:44:06Z</time>
      </trkpt>
      <trkpt lat="40.3399500" lon="-4.4423650">
        <ele>662.3</ele>
        <time>2019-08-13T14:44:07Z</time>
      </trkpt>
      <trkpt lat="40.3400270" lon="-4.4423700">
        <ele>662.2</ele>
        <time>2019-08-13T14:44:08Z</time>
      </trkpt>
      <trkpt lat="40.3400990" lon="-4.4423700">
        <ele>662.1</ele>
        <time>2019-08-13T14:44:09Z</time>
      </trkpt>
      <trkpt lat="40.3401730" lon="-4.4423690">
        <ele>662.1</ele>
        <time>2019-08-13T14:44:10Z</time>
      </trkpt>
      <trkpt lat="40.3402460" lon="-4.4423680">
        <ele>662.0</ele>
        <time>2019-08-13T14:44:11Z</time>
      </trkpt>
      <trkpt lat="40.3403190" lon="-4.4423680">
        <ele>662.0</ele>
        <time>2019-08-13T14:44:12Z</time>
      </trkpt>
      <trkpt lat="40.3403920" lon="-4.4423650">
        <ele>661.9</ele>
        <time>2019-08-13T14:44:13Z</time>
      </trkpt>
      <trkpt lat="40.3404640" lon="-4.4423650">
        <ele>661.9</ele>
        <time>2019-08-13T14:44:14Z</time>
      </trkpt>
      <trkpt lat="40.3405370" lon="-4.4423650">
        <ele>661.8</ele>
        <time>2019-08-13T14:44:15Z</time>
      </trkpt>
      <trkpt lat="40.3406100" lon="-4.4423680">
        <ele>661.8</ele>
        <time>2019-08-13T14:44:16Z</time>
      </trkpt>
      <trkpt lat="40.3406830" lon="-4.4423680">
        <ele>661.8</ele>
        <time>2019-08-13T14:44:17Z</time>
      </trkpt>
      <trkpt lat="40.3407560" lon="-4.4423690">
        <ele>661.7</ele>
        <time>2019-08-13T14:44:18Z</time>
      </trkpt>
      <trkpt lat="40.3408290" lon="-4.4423720">
        <ele>661.6</ele>
        <time>2019-08-13T14:44:19Z</time>
      </trkpt>
      <trkpt lat="40.3409030" lon="-4.4423720">
        <ele>661.6</ele>
        <time>2019-08-13T14:44:20Z</time>
      </trkpt>
      <trkpt lat="40.3409770" lon="-4.4423690">
        <ele>661.5</ele>
        <time>2019-08-13T14:44:21Z</time>
      </trkpt>
      <trkpt lat="40.3410530" lon="-4.4423690">
        <ele>661.4</ele>
        <time>2019-08-13T14:44:22Z</time>
      </trkpt>
      <trkpt lat="40.3411300" lon="-4.4423690">
        <ele>661.3</ele>
        <time>2019-08-13T14:44:23Z</time>
      </trkpt>
      <trkpt lat="40.3412070" lon="-4.4423710">
        <ele>661.2</ele>
        <time>2019-08-13T14:44:24Z</time>
      </trkpt>
      <trkpt lat="40.3412840" lon="-4.4423750">
        <ele>661.2</ele>
        <time>2019-08-13T14:44:25Z</time>
      </trkpt>
      <trkpt lat="40.3413620" lon="-4.4423840">
        <ele>661.1</ele>
        <time>2019-08-13T14:44:26Z</time>
      </trkpt>
      <trkpt lat="40.3414410" lon="-4.4423980">
        <ele>661.0</ele>
        <time>2019-08-13T14:44:27Z</time>
      </trkpt>
      <trkpt lat="40.3415190" lon="-4.4424180">
        <ele>660.9</ele>
        <time>2019-08-13T14:44:28Z</time>
      </trkpt>
      <trkpt lat="40.3415980" lon="-4.4424420">
        <ele>660.8</ele>
        <time>2019-08-13T14:44:29Z</time>
      </trkpt>
      <trkpt lat="40.3416780" lon="-4.4424660">
        <ele>660.7</ele>
        <time>2019-08-13T14:44:30Z</time>
      </trkpt>
      <trkpt lat="40.3417580" lon="-4.4424900">
        <ele>660.6</ele>
        <time>2019-08-13T14:44:31Z</time>
      </trkpt>
      <trkpt lat="40.3418380" lon="-4.4425140">
        <ele>660.5</ele>
        <time>2019-08-13T14:44:32Z</time>
      </trkpt>
      <trkpt lat="40.3419180" lon="-4.4425380">
        <ele>660.4</ele>
        <time>2019-08-13T14:44:33Z</time>
      </trkpt>
      <trkpt lat="40.3420000" lon="-4.4425640">
        <ele>660.3</ele>
        <time>2019-08-13T14:44:34Z</time>
      </trkpt>
      <trkpt lat="40.3420830" lon="-4.4425900">
        <ele>660.1</ele>
        <time>2019-08-13T14:44:35Z</time>
      </trkpt>
      <trkpt lat="40.3421650" lon="-4.4426170">
        <ele>660.0</ele>
        <time>2019-08-13T14:44:36Z</time>
      </trkpt>
      <trkpt lat="40.3422470" lon="-4.4426460">
        <ele>659.7</ele>
        <time>2019-08-13T14:44:37Z</time>
      </trkpt>
      <trkpt lat="40.3423280" lon="-4.4426730">
        <ele>659.5</ele>
        <time>2019-08-13T14:44:38Z</time>
      </trkpt>
      <trkpt lat="40.3424110" lon="-4.4427000">
        <ele>659.2</ele>
        <time>2019-08-13T14:44:39Z</time>
      </trkpt>
      <trkpt lat="40.3424940" lon="-4.4427270">
        <ele>658.9</ele>
        <time>2019-08-13T14:44:40Z</time>
      </trkpt>
      <trkpt lat="40.3425750" lon="-4.4427530">
        <ele>658.6</ele>
        <time>2019-08-13T14:44:41Z</time>
      </trkpt>
      <trkpt lat="40.3426560" lon="-4.4427790">
        <ele>658.3</ele>
        <time>2019-08-13T14:44:42Z</time>
      </trkpt>
      <trkpt lat="40.3427370" lon="-4.4428050">
        <ele>658.0</ele>
        <time>2019-08-13T14:44:43Z</time>
      </trkpt>
      <trkpt lat="40.3428170" lon="-4.4428300">
        <ele>657.7</ele>
        <time>2019-08-13T14:44:44Z</time>
      </trkpt>
      <trkpt lat="40.3428950" lon="-4.4428550">
        <ele>657.5</ele>
        <time>2019-08-13T14:44:45Z</time>
      </trkpt>
      <trkpt lat="40.3429740" lon="-4.4428790">
        <ele>657.2</ele>
        <time>2019-08-13T14:44:46Z</time>
      </trkpt>
      <trkpt lat="40.3430520" lon="-4.4429020">
        <ele>657.1</ele>
        <time>2019-08-13T14:44:47Z</time>
      </trkpt>
      <trkpt lat="40.3431280" lon="-4.4429190">
        <ele>656.9</ele>
        <time>2019-08-13T14:44:48Z</time>
      </trkpt>
      <trkpt lat="40.3432050" lon="-4.4429320">
        <ele>656.8</ele>
        <time>2019-08-13T14:44:49Z</time>
      </trkpt>
      <trkpt lat="40.3432790" lon="-4.4429400">
        <ele>656.7</ele>
        <time>2019-08-13T14:44:50Z</time>
      </trkpt>
      <trkpt lat="40.3433540" lon="-4.4429440">
        <ele>656.6</ele>
        <time>2019-08-13T14:44:51Z</time>
      </trkpt>
      <trkpt lat="40.3434300" lon="-4.4429430">
        <ele>656.5</ele>
        <time>2019-08-13T14:44:52Z</time>
      </trkpt>
      <trkpt lat="40.3435070" lon="-4.4429420">
        <ele>656.5</ele>
        <time>2019-08-13T14:44:53Z</time>
      </trkpt>
      <trkpt lat="40.3435830" lon="-4.4429400">
        <ele>656.4</ele>
        <time>2019-08-13T14:44:54Z</time>
      </trkpt>
      <trkpt lat="40.3436610" lon="-4.4429390">
        <ele>656.4</ele>
        <time>2019-08-13T14:44:55Z</time>
      </trkpt>
      <trkpt lat="40.3437360" lon="-4.4429360">
        <ele>656.3</ele>
        <time>2019-08-13T14:44:56Z</time>
      </trkpt>
      <trkpt lat="40.3438120" lon="-4.4429300">
        <ele>656.3</ele>
        <time>2019-08-13T14:44:57Z</time>
      </trkpt>
      <trkpt lat="40.3438880" lon="-4.4429260">
        <ele>656.2</ele>
        <time>2019-08-13T14:44:58Z</time>
      </trkpt>
      <trkpt lat="40.3439630" lon="-4.4429210">
        <ele>656.2</ele>
        <time>2019-08-13T14:44:59Z</time>
      </trkpt>
      <trkpt lat="40.3440370" lon="-4.4429160">
        <ele>656.2</ele>
        <time>2019-08-13T14:45:00Z</time>
      </trkpt>
      <trkpt lat="40.3441090" lon="-4.4429120">
        <ele>656.1</ele>
        <time>2019-08-13T14:45:01Z</time>
      </trkpt>
      <trkpt lat="40.3441820" lon="-4.4429070">
        <ele>656.1</ele>
        <time>2019-08-13T14:45:02Z</time>
      </trkpt>
      <trkpt lat="40.3442540" lon="-4.4429030">
        <ele>656.1</ele>
        <time>2019-08-13T14:45:03Z</time>
      </trkpt>
      <trkpt lat="40.3443230" lon="-4.4428980">
        <ele>656.1</ele>
        <time>2019-08-13T14:45:04Z</time>
      </trkpt>
      <trkpt lat="40.3443930" lon="-4.4428950">
        <ele>656.0</ele>
        <time>2019-08-13T14:45:05Z</time>
      </trkpt>
      <trkpt lat="40.3444620" lon="-4.4428930">
        <ele>656.0</ele>
        <time>2019-08-13T14:45:06Z</time>
      </trkpt>
      <trkpt lat="40.3445300" lon="-4.4428900">
        <ele>655.9</ele>
        <time>2019-08-13T14:45:07Z</time>
      </trkpt>
      <trkpt lat="40.3445970" lon="-4.4428880">
        <ele>655.9</ele>
        <time>2019-08-13T14:45:08Z</time>
      </trkpt>
      <trkpt lat="40.3446650" lon="-4.4428840">
        <ele>655.9</ele>
        <time>2019-08-13T14:45:09Z</time>
      </trkpt>
      <trkpt lat="40.3447320" lon="-4.4428800">
        <ele>655.8</ele>
        <time>2019-08-13T14:45:10Z</time>
      </trkpt>
      <trkpt lat="40.3447980" lon="-4.4428780">
        <ele>655.8</ele>
        <time>2019-08-13T14:45:11Z</time>
      </trkpt>
      <trkpt lat="40.3448640" lon="-4.4428750">
        <ele>655.7</ele>
        <time>2019-08-13T14:45:12Z</time>
      </trkpt>
      <trkpt lat="40.3449310" lon="-4.4428740">
        <ele>655.6</ele>
        <time>2019-08-13T14:45:13Z</time>
      </trkpt>
      <trkpt lat="40.3449990" lon="-4.4428710">
        <ele>655.6</ele>
        <time>2019-08-13T14:45:14Z</time>
      </trkpt>
      <trkpt lat="40.3450640" lon="-4.4428680">
        <ele>655.5</ele>
        <time>2019-08-13T14:45:15Z</time>
      </trkpt>
      <trkpt lat="40.3451280" lon="-4.4428660">
        <ele>655.4</ele>
        <time>2019-08-13T14:45:16Z</time>
      </trkpt>
      <trkpt lat="40.3451890" lon="-4.4428670">
        <ele>655.3</ele>
        <time>2019-08-13T14:45:17Z</time>
      </trkpt>
      <trkpt lat="40.3452490" lon="-4.4428710">
        <ele>655.2</ele>
        <time>2019-08-13T14:45:18Z</time>
      </trkpt>
      <trkpt lat="40.3453080" lon="-4.4428750">
        <ele>654.9</ele>
        <time>2019-08-13T14:45:19Z</time>
      </trkpt>
      <trkpt lat="40.3453670" lon="-4.4428710">
        <ele>654.8</ele>
        <time>2019-08-13T14:45:20Z</time>
      </trkpt>
      <trkpt lat="40.3454260" lon="-4.4428630">
        <ele>654.7</ele>
        <time>2019-08-13T14:45:21Z</time>
      </trkpt>
      <trkpt lat="40.3454860" lon="-4.4428570">
        <ele>654.6</ele>
        <time>2019-08-13T14:45:22Z</time>
      </trkpt>
      <trkpt lat="40.3455460" lon="-4.4428540">
        <ele>654.5</ele>
        <time>2019-08-13T14:45:23Z</time>
      </trkpt>
      <trkpt lat="40.3456030" lon="-4.4428530">
        <ele>654.4</ele>
        <time>2019-08-13T14:45:24Z</time>
      </trkpt>
      <trkpt lat="40.3456520" lon="-4.4428520">
        <ele>654.4</ele>
        <time>2019-08-13T14:45:25Z</time>
      </trkpt>
      <trkpt lat="40.3456920" lon="-4.4428520">
        <ele>654.3</ele>
        <time>2019-08-13T14:45:26Z</time>
      </trkpt>
      <trkpt lat="40.3457240" lon="-4.4428510">
        <ele>654.3</ele>
        <time>2019-08-13T14:45:27Z</time>
      </trkpt>
      <trkpt lat="40.3457500" lon="-4.4428550">
        <ele>654.3</ele>
        <time>2019-08-13T14:45:30Z</time>
      </trkpt>
      <trkpt lat="40.3456820" lon="-4.4428870">
        <ele>654.2</ele>
        <time>2019-08-13T14:45:58Z</time>
      </trkpt>
      <trkpt lat="40.3456480" lon="-4.4428810">
        <ele>654.3</ele>
        <time>2019-08-13T14:46:00Z</time>
      </trkpt>
      <trkpt lat="40.3456150" lon="-4.4428680">
        <ele>654.3</ele>
        <time>2019-08-13T14:46:02Z</time>
      </trkpt>
      <trkpt lat="40.3455820" lon="-4.4428610">
        <ele>654.4</ele>
        <time>2019-08-13T14:46:04Z</time>
      </trkpt>
      <trkpt lat="40.3455500" lon="-4.4428560">
        <ele>654.4</ele>
        <time>2019-08-13T14:46:06Z</time>
      </trkpt>
      <trkpt lat="40.3455090" lon="-4.4428550">
        <ele>654.5</ele>
        <time>2019-08-13T14:46:08Z</time>
      </trkpt>
      <trkpt lat="40.3454650" lon="-4.4428640">
        <ele>654.6</ele>
        <time>2019-08-13T14:46:10Z</time>
      </trkpt>
      <trkpt lat="40.3454300" lon="-4.4428850">
        <ele>654.9</ele>
        <time>2019-08-13T14:46:12Z</time>
      </trkpt>
      <trkpt lat="40.3454100" lon="-4.4429030">
        <ele>654.9</ele>
        <time>2019-08-13T14:46:19Z</time>
      </trkpt>
      <trkpt lat="40.3454180" lon="-4.4429360">
        <ele>654.9</ele>
        <time>2019-08-13T14:46:25Z</time>
      </trkpt>
      <trkpt lat="40.3454430" lon="-4.4429540">
        <ele>654.9</ele>
        <time>2019-08-13T14:46:27Z</time>
      </trkpt>
      <trkpt lat="40.3454860" lon="-4.4429700">
        <ele>654.8</ele>
        <time>2019-08-13T14:46:29Z</time>
      </trkpt>
      <trkpt lat="40.3455140" lon="-4.4429780">
        <ele>654.8</ele>
        <time>2019-08-13T14:46:30Z</time>
      </trkpt>
      <trkpt lat="40.3455440" lon="-4.4429860">
        <ele>654.8</ele>
        <time>2019-08-13T14:46:31Z</time>
      </trkpt>
      <trkpt lat="40.3455780" lon="-4.4429900">
        <ele>654.8</ele>
        <time>2019-08-13T14:46:32Z</time>
      </trkpt>
      <trkpt lat="40.3456140" lon="-4.4429900">
        <ele>654.7</ele>
        <time>2019-08-13T14:46:33Z</time>
      </trkpt>
      <trkpt lat="40.3456520" lon="-4.4429840">
        <ele>654.6</ele>
        <time>2019-08-13T14:46:34Z</time>
      </trkpt>
      <trkpt lat="40.3456930" lon="-4.4429730">
        <ele>654.6</ele>
        <time>2019-08-13T14:46:35Z</time>
      </trkpt>
      <trkpt lat="40.3457360" lon="-4.4429610">
        <ele>654.6</ele>
        <time>2019-08-13T14:46:36Z</time>
      </trkpt>
      <trkpt lat="40.3457810" lon="-4.4429550">
        <ele>654.6</ele>
        <time>2019-08-13T14:46:37Z</time>
      </trkpt>
      <trkpt lat="40.3458290" lon="-4.4429570">
        <ele>654.6</ele>
        <time>2019-08-13T14:46:38Z</time>
      </trkpt>
      <trkpt lat="40.3458780" lon="-4.4429660">
        <ele>654.6</ele>
        <time>2019-08-13T14:46:39Z</time>
      </trkpt>
      <trkpt lat="40.3459280" lon="-4.4429770">
        <ele>654.6</ele>
        <time>2019-08-13T14:46:40Z</time>
      </trkpt>
      <trkpt lat="40.3459800" lon="-4.4429850">
        <ele>654.6</ele>
        <time>2019-08-13T14:46:41Z</time>
      </trkpt>
      <trkpt lat="40.3460330" lon="-4.4429810">
        <ele>654.6</ele>
        <time>2019-08-13T14:46:42Z</time>
      </trkpt>
      <trkpt lat="40.3460860" lon="-4.4429690">
        <ele>654.6</ele>
        <time>2019-08-13T14:46:43Z</time>
      </trkpt>
      <trkpt lat="40.3461420" lon="-4.4429510">
        <ele>654.7</ele>
        <time>2019-08-13T14:46:44Z</time>
      </trkpt>
      <trkpt lat="40.3462010" lon="-4.4429290">
        <ele>654.7</ele>
        <time>2019-08-13T14:46:45Z</time>
      </trkpt>
      <trkpt lat="40.3462590" lon="-4.4429020">
        <ele>654.7</ele>
        <time>2019-08-13T14:46:46Z</time>
      </trkpt>
      <trkpt lat="40.3463180" lon="-4.4428700">
        <ele>654.7</ele>
        <time>2019-08-13T14:46:47Z</time>
      </trkpt>
      <trkpt lat="40.3463780" lon="-4.4428380">
        <ele>654.8</ele>
        <time>2019-08-13T14:46:48Z</time>
      </trkpt>
      <trkpt lat="40.3464370" lon="-4.4428060">
        <ele>654.8</ele>
        <time>2019-08-13T14:46:49Z</time>
      </trkpt>
      <trkpt lat="40.3464950" lon="-4.4427750">
        <ele>654.9</ele>
        <time>2019-08-13T14:46:50Z</time>
      </trkpt>
      <trkpt lat="40.3465530" lon="-4.4427440">
        <ele>654.9</ele>
        <time>2019-08-13T14:46:51Z</time>
      </trkpt>
      <trkpt lat="40.3466100" lon="-4.4427140">
        <ele>655.0</ele>
        <time>2019-08-13T14:46:52Z</time>
      </trkpt>
      <trkpt lat="40.3466680" lon="-4.4426850">
        <ele>655.0</ele>
        <time>2019-08-13T14:46:53Z</time>
      </trkpt>
      <trkpt lat="40.3467260" lon="-4.4426600">
        <ele>655.0</ele>
        <time>2019-08-13T14:46:54Z</time>
      </trkpt>
      <trkpt lat="40.3467850" lon="-4.4426380">
        <ele>655.0</ele>
        <time>2019-08-13T14:46:55Z</time>
      </trkpt>
      <trkpt lat="40.3468460" lon="-4.4426190">
        <ele>655.0</ele>
        <time>2019-08-13T14:46:56Z</time>
      </trkpt>
      <trkpt lat="40.3469070" lon="-4.4426010">
        <ele>654.9</ele>
        <time>2019-08-13T14:46:57Z</time>
      </trkpt>
      <trkpt lat="40.3469690" lon="-4.4425860">
        <ele>654.8</ele>
        <time>2019-08-13T14:46:58Z</time>
      </trkpt>
      <trkpt lat="40.3470330" lon="-4.4425730">
        <ele>654.7</ele>
        <time>2019-08-13T14:46:59Z</time>
      </trkpt>
      <trkpt lat="40.3470970" lon="-4.4425610">
        <ele>654.5</ele>
        <time>2019-08-13T14:47:00Z</time>
      </trkpt>
      <trkpt lat="40.3471600" lon="-4.4425480">
        <ele>654.4</ele>
        <time>2019-08-13T14:47:01Z</time>
      </trkpt>
      <trkpt lat="40.3472230" lon="-4.4425330">
        <ele>654.2</ele>
        <time>2019-08-13T14:47:02Z</time>
      </trkpt>
      <trkpt lat="40.3472880" lon="-4.4425170">
        <ele>654.0</ele>
        <time>2019-08-13T14:47:03Z</time>
      </trkpt>
      <trkpt lat="40.3473540" lon="-4.4425020">
        <ele>653.9</ele>
        <time>2019-08-13T14:47:04Z</time>
      </trkpt>
      <trkpt lat="40.3474200" lon="-4.4424870">
        <ele>653.7</ele>
        <time>2019-08-13T14:47:05Z</time>
      </trkpt>
      <trkpt lat="40.3474880" lon="-4.4424730">
        <ele>653.7</ele>
        <time>2019-08-13T14:47:06Z</time>
      </trkpt>
      <trkpt lat="40.3475540" lon="-4.4424610">
        <ele>653.6</ele>
        <time>2019-08-13T14:47:07Z</time>
      </trkpt>
      <trkpt lat="40.3476180" lon="-4.4424480">
        <ele>653.7</ele>
        <time>2019-08-13T14:47:08Z</time>
      </trkpt>
      <trkpt lat="40.3476790" lon="-4.4424330">
        <ele>653.7</ele>
        <time>2019-08-13T14:47:09Z</time>
      </trkpt>
      <trkpt lat="40.3477390" lon="-4.4424200">
        <ele>653.8</ele>
        <time>2019-08-13T14:47:10Z</time>
      </trkpt>
      <trkpt lat="40.3477960" lon="-4.4424060">
        <ele>653.8</ele>
        <time>2019-08-13T14:47:11Z</time>
      </trkpt>
      <trkpt lat="40.3478510" lon="-4.4423950">
        <ele>653.9</ele>
        <time>2019-08-13T14:47:12Z</time>
      </trkpt>
      <trkpt lat="40.3479060" lon="-4.4423850">
        <ele>654.0</ele>
        <time>2019-08-13T14:47:13Z</time>
      </trkpt>
      <trkpt lat="40.3479600" lon="-4.4423770">
        <ele>653.9</ele>
        <time>2019-08-13T14:47:14Z</time>
      </trkpt>
      <trkpt lat="40.3480130" lon="-4.4423680">
        <ele>653.9</ele>
        <time>2019-08-13T14:47:15Z</time>
      </trkpt>
      <trkpt lat="40.3480660" lon="-4.4423590">
        <ele>653.9</ele>
        <time>2019-08-13T14:47:16Z</time>
      </trkpt>
      <trkpt lat="40.3481200" lon="-4.4423480">
        <ele>653.9</ele>
        <time>2019-08-13T14:47:17Z</time>
      </trkpt>
      <trkpt lat="40.3481730" lon="-4.4423380">
        <ele>653.8</ele>
        <time>2019-08-13T14:47:18Z</time>
      </trkpt>
      <trkpt lat="40.3482260" lon="-4.4423260">
        <ele>653.8</ele>
        <time>2019-08-13T14:47:19Z</time>
      </trkpt>
      <trkpt lat="40.3482780" lon="-4.4423130">
        <ele>653.8</ele>
        <time>2019-08-13T14:47:20Z</time>
      </trkpt>
      <trkpt lat="40.3483270" lon="-4.4423000">
        <ele>653.7</ele>
        <time>2019-08-13T14:47:21Z</time>
      </trkpt>
      <trkpt lat="40.3483750" lon="-4.4422870">
        <ele>653.7</ele>
        <time>2019-08-13T14:47:22Z</time>
      </trkpt>
      <trkpt lat="40.3484230" lon="-4.4422730">
        <ele>653.7</ele>
        <time>2019-08-13T14:47:23Z</time>
      </trkpt>
      <trkpt lat="40.3484690" lon="-4.4422590">
        <ele>653.6</ele>
        <time>2019-08-13T14:47:24Z</time>
      </trkpt>
      <trkpt lat="40.3485120" lon="-4.4422430">
        <ele>653.6</ele>
        <time>2019-08-13T14:47:25Z</time>
      </trkpt>
      <trkpt lat="40.3485520" lon="-4.4422270">
        <ele>653.5</ele>
        <time>2019-08-13T14:47:26Z</time>
      </trkpt>
      <trkpt lat="40.3485890" lon="-4.4422090">
        <ele>653.5</ele>
        <time>2019-08-13T14:47:27Z</time>
      </trkpt>
      <trkpt lat="40.3486230" lon="-4.4421920">
        <ele>653.5</ele>
        <time>2019-08-13T14:47:28Z</time>
      </trkpt>
      <trkpt lat="40.3486560" lon="-4.4421750">
        <ele>653.4</ele>
        <time>2019-08-13T14:47:29Z</time>
      </trkpt>
      <trkpt lat="40.3486850" lon="-4.4421600">
        <ele>653.4</ele>
        <time>2019-08-13T14:47:30Z</time>
      </trkpt>
      <trkpt lat="40.3487160" lon="-4.4421440">
        <ele>653.3</ele>
        <time>2019-08-13T14:47:32Z</time>
      </trkpt>
      <trkpt lat="40.3487680" lon="-4.4421330">
        <ele>653.2</ele>
        <time>2019-08-13T14:48:36Z</time>
      </trkpt>
      <trkpt lat="40.3487940" lon="-4.4421450">
        <ele>653.2</ele>
        <time>2019-08-13T14:48:37Z</time>
      </trkpt>
      <trkpt lat="40.3488180" lon="-4.4421660">
        <ele>653.1</ele>
        <time>2019-08-13T14:48:38Z</time>
      </trkpt>
      <trkpt lat="40.3488420" lon="-4.4421910">
        <ele>653.1</ele>
        <time>2019-08-13T14:48:39Z</time>
      </trkpt>
      <trkpt lat="40.3488650" lon="-4.4422200">
        <ele>653.1</ele>
        <time>2019-08-13T14:48:40Z</time>
      </trkpt>
      <trkpt lat="40.3488860" lon="-4.4422500">
        <ele>653.1</ele>
        <time>2019-08-13T14:48:41Z</time>
      </trkpt>
      <trkpt lat="40.3489050" lon="-4.4422850">
        <ele>653.1</ele>
        <time>2019-08-13T14:48:42Z</time>
      </trkpt>
      <trkpt lat="40.3489240" lon="-4.4423200">
        <ele>653.0</ele>
        <time>2019-08-13T14:48:43Z</time>
      </trkpt>
      <trkpt lat="40.3489450" lon="-4.4423560">
        <ele>653.0</ele>
        <time>2019-08-13T14:48:44Z</time>
      </trkpt>
      <trkpt lat="40.3489690" lon="-4.4423930">
        <ele>653.0</ele>
        <time>2019-08-13T14:48:45Z</time>
      </trkpt>
      <trkpt lat="40.3489960" lon="-4.4424330">
        <ele>653.0</ele>
        <time>2019-08-13T14:48:46Z</time>
      </trkpt>
      <trkpt lat="40.3490250" lon="-4.4424750">
        <ele>652.9</ele>
        <time>2019-08-13T14:48:47Z</time>
      </trkpt>
      <trkpt lat="40.3490540" lon="-4.4425190">
        <ele>652.9</ele>
        <time>2019-08-13T14:48:48Z</time>
      </trkpt>
      <trkpt lat="40.3490850" lon="-4.4425600">
        <ele>652.8</ele>
        <time>2019-08-13T14:48:49Z</time>
      </trkpt>
      <trkpt lat="40.3491210" lon="-4.4425970">
        <ele>652.7</ele>
        <time>2019-08-13T14:48:50Z</time>
      </trkpt>
      <trkpt lat="40.3491590" lon="-4.4426280">
        <ele>652.7</ele>
        <time>2019-08-13T14:48:51Z</time>
      </trkpt>
      <trkpt lat="40.3492000" lon="-4.4426550">
        <ele>652.6</ele>
        <time>2019-08-13T14:48:52Z</time>
      </trkpt>
      <trkpt lat="40.3492420" lon="-4.4426760">
        <ele>652.6</ele>
        <time>2019-08-13T14:48:53Z</time>
      </trkpt>
      <trkpt lat="40.3492860" lon="-4.4426900">
        <ele>652.6</ele>
        <time>2019-08-13T14:48:54Z</time>
      </trkpt>
      <trkpt lat="40.3493330" lon="-4.4426940">
        <ele>652.6</ele>
        <time>2019-08-13T14:48:55Z</time>
      </trkpt>
      <trkpt lat="40.3493810" lon="-4.4426930">
        <ele>652.7</ele>
        <time>2019-08-13T14:48:56Z</time>
      </trkpt>
      <trkpt lat="40.3494290" lon="-4.4426890">
        <ele>652.7</ele>
        <time>2019-08-13T14:48:57Z</time>
      </trkpt>
      <trkpt lat="40.3494780" lon="-4.4426810">
        <ele>652.8</ele>
        <time>2019-08-13T14:48:58Z</time>
      </trkpt>
      <trkpt lat="40.3495270" lon="-4.4426740">
        <ele>652.9</ele>
        <time>2019-08-13T14:48:59Z</time>
      </trkpt>
      <trkpt lat="40.3495760" lon="-4.4426670">
        <ele>653.0</ele>
        <time>2019-08-13T14:49:00Z</time>
      </trkpt>
      <trkpt lat="40.3496240" lon="-4.4426600">
        <ele>653.1</ele>
        <time>2019-08-13T14:49:01Z</time>
      </trkpt>
      <trkpt lat="40.3496700" lon="-4.4426550">
        <ele>653.2</ele>
        <time>2019-08-13T14:49:02Z</time>
      </trkpt>
      <trkpt lat="40.3497180" lon="-4.4426510">
        <ele>653.4</ele>
        <time>2019-08-13T14:49:03Z</time>
      </trkpt>
      <trkpt lat="40.3497680" lon="-4.4426470">
        <ele>653.5</ele>
        <time>2019-08-13T14:49:04Z</time>
      </trkpt>
      <trkpt lat="40.3498170" lon="-4.4426420">
        <ele>653.7</ele>
        <time>2019-08-13T14:49:05Z</time>
      </trkpt>
      <trkpt lat="40.3498670" lon="-4.4426370">
        <ele>653.8</ele>
        <time>2019-08-13T14:49:06Z</time>
      </trkpt>
      <trkpt lat="40.3499180" lon="-4.4426330">
        <ele>654.0</ele>
        <time>2019-08-13T14:49:07Z</time>
      </trkpt>
      <trkpt lat="40.3499660" lon="-4.4426290">
        <ele>654.1</ele>
        <time>2019-08-13T14:49:08Z</time>
      </trkpt>
      <trkpt lat="40.3500130" lon="-4.4426230">
        <ele>654.3</ele>
        <time>2019-08-13T14:49:09Z</time>
      </trkpt>
      <trkpt lat="40.3500590" lon="-4.4426170">
        <ele>654.4</ele>
        <time>2019-08-13T14:49:10Z</time>
      </trkpt>
      <trkpt lat="40.3501030" lon="-4.4426110">
        <ele>654.5</ele>
        <time>2019-08-13T14:49:11Z</time>
      </trkpt>
      <trkpt lat="40.3501450" lon="-4.4426050">
        <ele>654.6</ele>
        <time>2019-08-13T14:49:12Z</time>
      </trkpt>
      <trkpt lat="40.3501880" lon="-4.4425950">
        <ele>654.6</ele>
        <time>2019-08-13T14:49:13Z</time>
      </trkpt>
      <trkpt lat="40.3502350" lon="-4.4425840">
        <ele>654.7</ele>
        <time>2019-08-13T14:49:14Z</time>
      </trkpt>
      <trkpt lat="40.3502850" lon="-4.4425740">
        <ele>654.8</ele>
        <time>2019-08-13T14:49:15Z</time>
      </trkpt>
      <trkpt lat="40.3503350" lon="-4.4425660">
        <ele>654.9</ele>
        <time>2019-08-13T14:49:16Z</time>
      </trkpt>
      <trkpt lat="40.3503870" lon="-4.4425600">
        <ele>654.9</ele>
        <time>2019-08-13T14:49:17Z</time>
      </trkpt>
      <trkpt lat="40.3504400" lon="-4.4425540">
        <ele>655.0</ele>
        <time>2019-08-13T14:49:18Z</time>
      </trkpt>
      <trkpt lat="40.3504930" lon="-4.4425460">
        <ele>655.1</ele>
        <time>2019-08-13T14:49:19Z</time>
      </trkpt>
      <trkpt lat="40.3505480" lon="-4.4425400">
        <ele>655.2</ele>
        <time>2019-08-13T14:49:20Z</time>
      </trkpt>
      <trkpt lat="40.3506030" lon="-4.4425320">
        <ele>655.3</ele>
        <time>2019-08-13T14:49:21Z</time>
      </trkpt>
      <trkpt lat="40.3506590" lon="-4.4425250">
        <ele>655.4</ele>
        <time>2019-08-13T14:49:22Z</time>
      </trkpt>
      <trkpt lat="40.3507120" lon="-4.4425190">
        <ele>655.5</ele>
        <time>2019-08-13T14:49:23Z</time>
      </trkpt>
      <trkpt lat="40.3507650" lon="-4.4425110">
        <ele>655.6</ele>
        <time>2019-08-13T14:49:24Z</time>
      </trkpt>
      <trkpt lat="40.3508190" lon="-4.4425030">
        <ele>655.7</ele>
        <time>2019-08-13T14:49:25Z</time>
      </trkpt>
      <trkpt lat="40.3508740" lon="-4.4424950">
        <ele>655.7</ele>
        <time>2019-08-13T14:49:26Z</time>
      </trkpt>
      <trkpt lat="40.3509310" lon="-4.4424880">
        <ele>655.7</ele>
        <time>2019-08-13T14:49:27Z</time>
      </trkpt>
      <trkpt lat="40.3509880" lon="-4.4424840">
        <ele>655.7</ele>
        <time>2019-08-13T14:49:28Z</time>
      </trkpt>
      <trkpt lat="40.3510460" lon="-4.4424780">
        <ele>655.7</ele>
        <time>2019-08-13T14:49:29Z</time>
      </trkpt>
      <trkpt lat="40.3511020" lon="-4.4424720">
        <ele>655.7</ele>
        <time>2019-08-13T14:49:30Z</time>
      </trkpt>
      <trkpt lat="40.3511580" lon="-4.4424630">
        <ele>655.7</ele>
        <time>2019-08-13T14:49:31Z</time>
      </trkpt>
      <trkpt lat="40.3512140" lon="-4.4424540">
        <ele>655.6</ele>
        <time>2019-08-13T14:49:32Z</time>
      </trkpt>
      <trkpt lat="40.3512700" lon="-4.4424470">
        <ele>655.6</ele>
        <time>2019-08-13T14:49:33Z</time>
      </trkpt>
      <trkpt lat="40.3513270" lon="-4.4424400">
        <ele>655.5</ele>
        <time>2019-08-13T14:49:34Z</time>
      </trkpt>
      <trkpt lat="40.3513830" lon="-4.4424330">
        <ele>655.5</ele>
        <time>2019-08-13T14:49:35Z</time>
      </trkpt>
      <trkpt lat="40.3514410" lon="-4.4424260">
        <ele>655.4</ele>
        <time>2019-08-13T14:49:36Z</time>
      </trkpt>
      <trkpt lat="40.3514970" lon="-4.4424220">
        <ele>655.4</ele>
        <time>2019-08-13T14:49:37Z</time>
      </trkpt>
      <trkpt lat="40.3515530" lon="-4.4424150">
        <ele>655.4</ele>
        <time>2019-08-13T14:49:38Z</time>
      </trkpt>
      <trkpt lat="40.3516100" lon="-4.4424030">
        <ele>655.4</ele>
        <time>2019-08-13T14:49:39Z</time>
      </trkpt>
      <trkpt lat="40.3516700" lon="-4.4423880">
        <ele>655.5</ele>
        <time>2019-08-13T14:49:40Z</time>
      </trkpt>
      <trkpt lat="40.3517310" lon="-4.4423750">
        <ele>655.5</ele>
        <time>2019-08-13T14:49:41Z</time>
      </trkpt>
      <trkpt lat="40.3517920" lon="-4.4423620">
        <ele>655.6</ele>
        <time>2019-08-13T14:49:42Z</time>
      </trkpt>
      <trkpt lat="40.3518550" lon="-4.4423480">
        <ele>655.8</ele>
        <time>2019-08-13T14:49:43Z</time>
      </trkpt>
      <trkpt lat="40.3519170" lon="-4.4423310">
        <ele>655.9</ele>
        <time>2019-08-13T14:49:44Z</time>
      </trkpt>
      <trkpt lat="40.3519770" lon="-4.4423130">
        <ele>655.8</ele>
        <time>2019-08-13T14:49:45Z</time>
      </trkpt>
      <trkpt lat="40.3520370" lon="-4.4422950">
        <ele>655.7</ele>
        <time>2019-08-13T14:49:46Z</time>
      </trkpt>
      <trkpt lat="40.3520990" lon="-4.4422730">
        <ele>655.6</ele>
        <time>2019-08-13T14:49:47Z</time>
      </trkpt>
      <trkpt lat="40.3521600" lon="-4.4422500">
        <ele>655.5</ele>
        <time>2019-08-13T14:49:48Z</time>
      </trkpt>
      <trkpt lat="40.3522210" lon="-4.4422280">
        <ele>655.4</ele>
        <time>2019-08-13T14:49:49Z</time>
      </trkpt>
      <trkpt lat="40.3522820" lon="-4.4422050">
        <ele>655.3</ele>
        <time>2019-08-13T14:49:50Z</time>
      </trkpt>
      <trkpt lat="40.3523440" lon="-4.4421810">
        <ele>655.2</ele>
        <time>2019-08-13T14:49:51Z</time>
      </trkpt>
      <trkpt lat="40.3524070" lon="-4.4421550">
        <ele>655.1</ele>
        <time>2019-08-13T14:49:52Z</time>
      </trkpt>
      <trkpt lat="40.3524690" lon="-4.4421290">
        <ele>655.0</ele>
        <time>2019-08-13T14:49:53Z</time>
      </trkpt>
      <trkpt lat="40.3525330" lon="-4.4421030">
        <ele>654.9</ele>
        <time>2019-08-13T14:49:54Z</time>
      </trkpt>
      <trkpt lat="40.3525970" lon="-4.4420760">
        <ele>654.8</ele>
        <time>2019-08-13T14:49:55Z</time>
      </trkpt>
      <trkpt lat="40.3526610" lon="-4.4420500">
        <ele>654.6</ele>
        <time>2019-08-13T14:49:56Z</time>
      </trkpt>
      <trkpt lat="40.3527240" lon="-4.4420230">
        <ele>654.5</ele>
        <time>2019-08-13T14:49:57Z</time>
      </trkpt>
      <trkpt lat="40.3527870" lon="-4.4419970">
        <ele>654.4</ele>
        <time>2019-08-13T14:49:58Z</time>
      </trkpt>
      <trkpt lat="40.3528510" lon="-4.4419710">
        <ele>654.2</ele>
        <time>2019-08-13T14:49:59Z</time>
      </trkpt>
      <trkpt lat="40.3529170" lon="-4.4419460">
        <ele>654.1</ele>
        <time>2019-08-13T14:50:00Z</time>
      </trkpt>
      <trkpt lat="40.3529830" lon="-4.4419210">
        <ele>653.9</ele>
        <time>2019-08-13T14:50:01Z</time>
      </trkpt>
      <trkpt lat="40.3530490" lon="-4.4419000">
        <ele>653.8</ele>
        <time>2019-08-13T14:50:02Z</time>
      </trkpt>
      <trkpt lat="40.3531170" lon="-4.4418780">
        <ele>653.6</ele>
        <time>2019-08-13T14:50:03Z</time>
      </trkpt>
      <trkpt lat="40.3531840" lon="-4.4418580">
        <ele>653.5</ele>
        <time>2019-08-13T14:50:04Z</time>
      </trkpt>
      <trkpt lat="40.3532520" lon="-4.4418380">
        <ele>653.4</ele>
        <time>2019-08-13T14:50:05Z</time>
      </trkpt>
      <trkpt lat="40.3533180" lon="-4.4418180">
        <ele>653.2</ele>
        <time>2019-08-13T14:50:06Z</time>
      </trkpt>
      <trkpt lat="40.3533860" lon="-4.4418000">
        <ele>653.1</ele>
        <time>2019-08-13T14:50:07Z</time>
      </trkpt>
      <trkpt lat="40.3534550" lon="-4.4417830">
        <ele>653.0</ele>
        <time>2019-08-13T14:50:08Z</time>
      </trkpt>
      <trkpt lat="40.3535260" lon="-4.4417650">
        <ele>652.9</ele>
        <time>2019-08-13T14:50:09Z</time>
      </trkpt>
      <trkpt lat="40.3535980" lon="-4.4417480">
        <ele>652.8</ele>
        <time>2019-08-13T14:50:10Z</time>
      </trkpt>
      <trkpt lat="40.3536720" lon="-4.4417290">
        <ele>652.7</ele>
        <time>2019-08-13T14:50:11Z</time>
      </trkpt>
      <trkpt lat="40.3537470" lon="-4.4417110">
        <ele>652.6</ele>
        <time>2019-08-13T14:50:12Z</time>
      </trkpt>
      <trkpt lat="40.3538220" lon="-4.4416930">
        <ele>652.4</ele>
        <time>2019-08-13T14:50:13Z</time>
      </trkpt>
      <trkpt lat="40.3538980" lon="-4.4416750">
        <ele>652.1</ele>
        <time>2019-08-13T14:50:14Z</time>
      </trkpt>
      <trkpt lat="40.3539740" lon="-4.4416570">
        <ele>651.8</ele>
        <time>2019-08-13T14:50:15Z</time>
      </trkpt>
      <trkpt lat="40.3540510" lon="-4.4416380">
        <ele>651.5</ele>
        <time>2019-08-13T14:50:16Z</time>
      </trkpt>
      <trkpt lat="40.3541280" lon="-4.4416210">
        <ele>651.2</ele>
        <time>2019-08-13T14:50:17Z</time>
      </trkpt>
      <trkpt lat="40.3542060" lon="-4.4416050">
        <ele>650.9</ele>
        <time>2019-08-13T14:50:18Z</time>
      </trkpt>
      <trkpt lat="40.3542830" lon="-4.4415880">
        <ele>650.6</ele>
        <time>2019-08-13T14:50:19Z</time>
      </trkpt>
      <trkpt lat="40.3543620" lon="-4.4415690">
        <ele>650.4</ele>
        <time>2019-08-13T14:50:20Z</time>
      </trkpt>
      <trkpt lat="40.3544430" lon="-4.4415520">
        <ele>650.3</ele>
        <time>2019-08-13T14:50:21Z</time>
      </trkpt>
      <trkpt lat="40.3545230" lon="-4.4415350">
        <ele>650.1</ele>
        <time>2019-08-13T14:50:22Z</time>
      </trkpt>
      <trkpt lat="40.3546040" lon="-4.4415200">
        <ele>650.0</ele>
        <time>2019-08-13T14:50:23Z</time>
      </trkpt>
      <trkpt lat="40.3546850" lon="-4.4415080">
        <ele>650.0</ele>
        <time>2019-08-13T14:50:24Z</time>
      </trkpt>
      <trkpt lat="40.3547660" lon="-4.4414980">
        <ele>649.9</ele>
        <time>2019-08-13T14:50:25Z</time>
      </trkpt>
      <trkpt lat="40.3548470" lon="-4.4414900">
        <ele>649.9</ele>
        <time>2019-08-13T14:50:26Z</time>
      </trkpt>
      <trkpt lat="40.3549270" lon="-4.4414830">
        <ele>649.8</ele>
        <time>2019-08-13T14:50:27Z</time>
      </trkpt>
      <trkpt lat="40.3550070" lon="-4.4414770">
        <ele>649.8</ele>
        <time>2019-08-13T14:50:28Z</time>
      </trkpt>
      <trkpt lat="40.3550870" lon="-4.4414730">
        <ele>649.8</ele>
        <time>2019-08-13T14:50:29Z</time>
      </trkpt>
      <trkpt lat="40.3551690" lon="-4.4414690">
        <ele>649.7</ele>
        <time>2019-08-13T14:50:30Z</time>
      </trkpt>
      <trkpt lat="40.3552510" lon="-4.4414650">
        <ele>649.6</ele>
        <time>2019-08-13T14:50:31Z</time>
      </trkpt>
      <trkpt lat="40.3553330" lon="-4.4414610">
        <ele>649.5</ele>
        <time>2019-08-13T14:50:32Z</time>
      </trkpt>
      <trkpt lat="40.3554150" lon="-4.4414580">
        <ele>649.4</ele>
        <time>2019-08-13T14:50:33Z</time>
      </trkpt>
      <trkpt lat="40.3554970" lon="-4.4414550">
        <ele>649.2</ele>
        <time>2019-08-13T14:50:34Z</time>
      </trkpt>
      <trkpt lat="40.3555780" lon="-4.4414530">
        <ele>649.1</ele>
        <time>2019-08-13T14:50:35Z</time>
      </trkpt>
      <trkpt lat="40.3556570" lon="-4.4414500">
        <ele>649.0</ele>
        <time>2019-08-13T14:50:36Z</time>
      </trkpt>
      <trkpt lat="40.3557340" lon="-4.4414460">
        <ele>649.0</ele>
        <time>2019-08-13T14:50:37Z</time>
      </trkpt>
      <trkpt lat="40.3558120" lon="-4.4414430">
        <ele>648.9</ele>
        <time>2019-08-13T14:50:38Z</time>
      </trkpt>
      <trkpt lat="40.3558900" lon="-4.4414410">
        <ele>648.8</ele>
        <time>2019-08-13T14:50:39Z</time>
      </trkpt>
      <trkpt lat="40.3559680" lon="-4.4414390">
        <ele>648.8</ele>
        <time>2019-08-13T14:50:40Z</time>
      </trkpt>
      <trkpt lat="40.3560470" lon="-4.4414360">
        <ele>648.7</ele>
        <time>2019-08-13T14:50:41Z</time>
      </trkpt>
      <trkpt lat="40.3561250" lon="-4.4414340">
        <ele>648.7</ele>
        <time>2019-08-13T14:50:42Z</time>
      </trkpt>
      <trkpt lat="40.3562040" lon="-4.4414320">
        <ele>648.6</ele>
        <time>2019-08-13T14:50:43Z</time>
      </trkpt>
      <trkpt lat="40.3562810" lon="-4.4414300">
        <ele>648.6</ele>
        <time>2019-08-13T14:50:44Z</time>
      </trkpt>
      <trkpt lat="40.3563580" lon="-4.4414270">
        <ele>648.5</ele>
        <time>2019-08-13T14:50:45Z</time>
      </trkpt>
      <trkpt lat="40.3564340" lon="-4.4414230">
        <ele>648.5</ele>
        <time>2019-08-13T14:50:46Z</time>
      </trkpt>
      <trkpt lat="40.3565080" lon="-4.4414200">
        <ele>648.5</ele>
        <time>2019-08-13T14:50:47Z</time>
      </trkpt>
      <trkpt lat="40.3565810" lon="-4.4414180">
        <ele>648.4</ele>
        <time>2019-08-13T14:50:48Z</time>
      </trkpt>
      <trkpt lat="40.3566530" lon="-4.4414150">
        <ele>648.4</ele>
        <time>2019-08-13T14:50:49Z</time>
      </trkpt>
      <trkpt lat="40.3567240" lon="-4.4414120">
        <ele>648.4</ele>
        <time>2019-08-13T14:50:50Z</time>
      </trkpt>
      <trkpt lat="40.3567940" lon="-4.4414080">
        <ele>648.4</ele>
        <time>2019-08-13T14:50:51Z</time>
      </trkpt>
      <trkpt lat="40.3568650" lon="-4.4414050">
        <ele>648.5</ele>
        <time>2019-08-13T14:50:52Z</time>
      </trkpt>
      <trkpt lat="40.3569360" lon="-4.4414030">
        <ele>648.5</ele>
        <time>2019-08-13T14:50:53Z</time>
      </trkpt>
      <trkpt lat="40.3570060" lon="-4.4414020">
        <ele>648.5</ele>
        <time>2019-08-13T14:50:54Z</time>
      </trkpt>
      <trkpt lat="40.3570770" lon="-4.4414030">
        <ele>648.6</ele>
        <time>2019-08-13T14:50:55Z</time>
      </trkpt>
      <trkpt lat="40.3571490" lon="-4.4414030">
        <ele>648.6</ele>
        <time>2019-08-13T14:50:56Z</time>
      </trkpt>
      <trkpt lat="40.3572200" lon="-4.4414040">
        <ele>648.7</ele>
        <time>2019-08-13T14:50:57Z</time>
      </trkpt>
      <trkpt lat="40.3572910" lon="-4.4414050">
        <ele>648.7</ele>
        <time>2019-08-13T14:50:58Z</time>
      </trkpt>
      <trkpt lat="40.3573630" lon="-4.4414080">
        <ele>648.8</ele>
        <time>2019-08-13T14:50:59Z</time>
      </trkpt>
      <trkpt lat="40.3574340" lon="-4.4414110">
        <ele>648.9</ele>
        <time>2019-08-13T14:51:00Z</time>
      </trkpt>
      <trkpt lat="40.3575060" lon="-4.4414150">
        <ele>648.9</ele>
        <time>2019-08-13T14:51:01Z</time>
      </trkpt>
      <trkpt lat="40.3575770" lon="-4.4414190">
        <ele>649.0</ele>
        <time>2019-08-13T14:51:02Z</time>
      </trkpt>
      <trkpt lat="40.3576490" lon="-4.4414230">
        <ele>649.0</ele>
        <time>2019-08-13T14:51:03Z</time>
      </trkpt>
      <trkpt lat="40.3577200" lon="-4.4414280">
        <ele>649.0</ele>
        <time>2019-08-13T14:51:04Z</time>
      </trkpt>
      <trkpt lat="40.3577890" lon="-4.4414320">
        <ele>649.0</ele>
        <time>2019-08-13T14:51:05Z</time>
      </trkpt>
      <trkpt lat="40.3578590" lon="-4.4414370">
        <ele>649.0</ele>
        <time>2019-08-13T14:51:06Z</time>
      </trkpt>
      <trkpt lat="40.3579280" lon="-4.4414420">
        <ele>649.0</ele>
        <time>2019-08-13T14:51:07Z</time>
      </trkpt>
      <trkpt lat="40.3579990" lon="-4.4414470">
        <ele>648.9</ele>
        <time>2019-08-13T14:51:08Z</time>
      </trkpt>
      <trkpt lat="40.3580680" lon="-4.4414520">
        <ele>648.8</ele>
        <time>2019-08-13T14:51:09Z</time>
      </trkpt>
      <trkpt lat="40.3581380" lon="-4.4414570">
        <ele>648.8</ele>
        <time>2019-08-13T14:51:10Z</time>
      </trkpt>
      <trkpt lat="40.3582080" lon="-4.4414620">
        <ele>648.7</ele>
        <time>2019-08-13T14:51:11Z</time>
      </trkpt>
      <trkpt lat="40.3582780" lon="-4.4414680">
        <ele>648.7</ele>
        <time>2019-08-13T14:51:12Z</time>
      </trkpt>
      <trkpt lat="40.3583480" lon="-4.4414760">
        <ele>648.6</ele>
        <time>2019-08-13T14:51:13Z</time>
      </trkpt>
      <trkpt lat="40.3584190" lon="-4.4414850">
        <ele>648.6</ele>
        <time>2019-08-13T14:51:14Z</time>
      </trkpt>
      <trkpt lat="40.3584900" lon="-4.4414950">
        <ele>648.5</ele>
        <time>2019-08-13T14:51:15Z</time>
      </trkpt>
      <trkpt lat="40.3585620" lon="-4.4415070">
        <ele>648.5</ele>
        <time>2019-08-13T14:51:16Z</time>
      </trkpt>
      <trkpt lat="40.3586340" lon="-4.4415230">
        <ele>648.4</ele>
        <time>2019-08-13T14:51:17Z</time>
      </trkpt>
      <trkpt lat="40.3587060" lon="-4.4415420">
        <ele>648.4</ele>
        <time>2019-08-13T14:51:18Z</time>
      </trkpt>
      <trkpt lat="40.3587780" lon="-4.4415630">
        <ele>648.3</ele>
        <time>2019-08-13T14:51:19Z</time>
      </trkpt>
      <trkpt lat="40.3588490" lon="-4.4415850">
        <ele>648.3</ele>
        <time>2019-08-13T14:51:20Z</time>
      </trkpt>
      <trkpt lat="40.3589200" lon="-4.4416080">
        <ele>648.2</ele>
        <time>2019-08-13T14:51:21Z</time>
      </trkpt>
      <trkpt lat="40.3589900" lon="-4.4416320">
        <ele>648.1</ele>
        <time>2019-08-13T14:51:22Z</time>
      </trkpt>
      <trkpt lat="40.3590600" lon="-4.4416550">
        <ele>648.1</ele>
        <time>2019-08-13T14:51:23Z</time>
      </trkpt>
      <trkpt lat="40.3591290" lon="-4.4416780">
        <ele>648.0</ele>
        <time>2019-08-13T14:51:24Z</time>
      </trkpt>
      <trkpt lat="40.3591990" lon="-4.4417010">
        <ele>647.9</ele>
        <time>2019-08-13T14:51:25Z</time>
      </trkpt>
      <trkpt lat="40.3592680" lon="-4.4417230">
        <ele>647.8</ele>
        <time>2019-08-13T14:51:26Z</time>
      </trkpt>
      <trkpt lat="40.3593370" lon="-4.4417450">
        <ele>647.7</ele>
        <time>2019-08-13T14:51:27Z</time>
      </trkpt>
      <trkpt lat="40.3594070" lon="-4.4417670">
        <ele>647.7</ele>
        <time>2019-08-13T14:51:28Z</time>
      </trkpt>
      <trkpt lat="40.3594760" lon="-4.4417880">
        <ele>647.6</ele>
        <time>2019-08-13T14:51:29Z</time>
      </trkpt>
      <trkpt lat="40.3595450" lon="-4.4418070">
        <ele>647.5</ele>
        <time>2019-08-13T14:51:30Z</time>
      </trkpt>
      <trkpt lat="40.3596140" lon="-4.4418240">
        <ele>647.4</ele>
        <time>2019-08-13T14:51:31Z</time>
      </trkpt>
      <trkpt lat="40.3596820" lon="-4.4418390">
        <ele>647.4</ele>
        <time>2019-08-13T14:51:32Z</time>
      </trkpt>
      <trkpt lat="40.3597490" lon="-4.4418520">
        <ele>647.3</ele>
        <time>2019-08-13T14:51:33Z</time>
      </trkpt>
      <trkpt lat="40.3598130" lon="-4.4418640">
        <ele>647.3</ele>
        <time>2019-08-13T14:51:34Z</time>
      </trkpt>
      <trkpt lat="40.3598750" lon="-4.4418670">
        <ele>647.3</ele>
        <time>2019-08-13T14:51:35Z</time>
      </trkpt>
      <trkpt lat="40.3599330" lon="-4.4418690">
        <ele>647.3</ele>
        <time>2019-08-13T14:51:36Z</time>
      </trkpt>
      <trkpt lat="40.3599910" lon="-4.4418690">
        <ele>647.3</ele>
        <time>2019-08-13T14:51:37Z</time>
      </trkpt>
      <trkpt lat="40.3600480" lon="-4.4418700">
        <ele>647.3</ele>
        <time>2019-08-13T14:51:38Z</time>
      </trkpt>
      <trkpt lat="40.3601030" lon="-4.4418720">
        <ele>647.3</ele>
        <time>2019-08-13T14:51:39Z</time>
      </trkpt>
      <trkpt lat="40.3601580" lon="-4.4418740">
        <ele>647.3</ele>
        <time>2019-08-13T14:51:40Z</time>
      </trkpt>
      <trkpt lat="40.3602120" lon="-4.4418780">
        <ele>647.3</ele>
        <time>2019-08-13T14:51:41Z</time>
      </trkpt>
      <trkpt lat="40.3602650" lon="-4.4418810">
        <ele>647.4</ele>
        <time>2019-08-13T14:51:42Z</time>
      </trkpt>
      <trkpt lat="40.3603160" lon="-4.4418820">
        <ele>647.4</ele>
        <time>2019-08-13T14:51:43Z</time>
      </trkpt>
      <trkpt lat="40.3603680" lon="-4.4418820">
        <ele>647.4</ele>
        <time>2019-08-13T14:51:44Z</time>
      </trkpt>
      <trkpt lat="40.3604210" lon="-4.4418820">
        <ele>647.4</ele>
        <time>2019-08-13T14:51:45Z</time>
      </trkpt>
      <trkpt lat="40.3604740" lon="-4.4418860">
        <ele>647.5</ele>
        <time>2019-08-13T14:51:46Z</time>
      </trkpt>
      <trkpt lat="40.3605270" lon="-4.4418910">
        <ele>647.5</ele>
        <time>2019-08-13T14:51:47Z</time>
      </trkpt>
      <trkpt lat="40.3605780" lon="-4.4418950">
        <ele>647.5</ele>
        <time>2019-08-13T14:51:48Z</time>
      </trkpt>
      <trkpt lat="40.3606290" lon="-4.4418980">
        <ele>647.5</ele>
        <time>2019-08-13T14:51:49Z</time>
      </trkpt>
      <trkpt lat="40.3606800" lon="-4.4418980">
        <ele>647.5</ele>
        <time>2019-08-13T14:51:50Z</time>
      </trkpt>
      <trkpt lat="40.3607320" lon="-4.4418980">
        <ele>647.5</ele>
        <time>2019-08-13T14:51:51Z</time>
      </trkpt>
      <trkpt lat="40.3607830" lon="-4.4418990">
        <ele>647.5</ele>
        <time>2019-08-13T14:51:52Z</time>
      </trkpt>
      <trkpt lat="40.3608340" lon="-4.4419020">
        <ele>647.4</ele>
        <time>2019-08-13T14:51:53Z</time>
      </trkpt>
      <trkpt lat="40.3608800" lon="-4.4419070">
        <ele>647.4</ele>
        <time>2019-08-13T14:51:54Z</time>
      </trkpt>
      <trkpt lat="40.3609200" lon="-4.4419110">
        <ele>647.4</ele>
        <time>2019-08-13T14:51:55Z</time>
      </trkpt>
      <trkpt lat="40.3609580" lon="-4.4419130">
        <ele>647.4</ele>
        <time>2019-08-13T14:51:56Z</time>
      </trkpt>
      <trkpt lat="40.3609990" lon="-4.4419120">
        <ele>647.3</ele>
        <time>2019-08-13T14:51:57Z</time>
      </trkpt>
      <trkpt lat="40.3610440" lon="-4.4419120">
        <ele>647.3</ele>
        <time>2019-08-13T14:51:58Z</time>
      </trkpt>
      <trkpt lat="40.3610930" lon="-4.4419140">
        <ele>647.2</ele>
        <time>2019-08-13T14:51:59Z</time>
      </trkpt>
      <trkpt lat="40.3611440" lon="-4.4419160">
        <ele>647.2</ele>
        <time>2019-08-13T14:52:00Z</time>
      </trkpt>
      <trkpt lat="40.3611960" lon="-4.4419190">
        <ele>647.1</ele>
        <time>2019-08-13T14:52:01Z</time>
      </trkpt>
      <trkpt lat="40.3612510" lon="-4.4419210">
        <ele>647.1</ele>
        <time>2019-08-13T14:52:02Z</time>
      </trkpt>
      <trkpt lat="40.3613060" lon="-4.4419220">
        <ele>647.0</ele>
        <time>2019-08-13T14:52:03Z</time>
      </trkpt>
      <trkpt lat="40.3613620" lon="-4.4419240">
        <ele>647.0</ele>
        <time>2019-08-13T14:52:04Z</time>
      </trkpt>
      <trkpt lat="40.3614180" lon="-4.4419270">
        <ele>646.9</ele>
        <time>2019-08-13T14:52:05Z</time>
      </trkpt>
      <trkpt lat="40.3614750" lon="-4.4419300">
        <ele>646.9</ele>
        <time>2019-08-13T14:52:06Z</time>
      </trkpt>
      <trkpt lat="40.3615330" lon="-4.4419340">
        <ele>647.0</ele>
        <time>2019-08-13T14:52:07Z</time>
      </trkpt>
      <trkpt lat="40.3615920" lon="-4.4419370">
        <ele>647.0</ele>
        <time>2019-08-13T14:52:08Z</time>
      </trkpt>
      <trkpt lat="40.3616500" lon="-4.4419400">
        <ele>647.1</ele>
        <time>2019-08-13T14:52:09Z</time>
      </trkpt>
      <trkpt lat="40.3617090" lon="-4.4419420">
        <ele>647.1</ele>
        <time>2019-08-13T14:52:10Z</time>
      </trkpt>
      <trkpt lat="40.3617730" lon="-4.4419430">
        <ele>647.1</ele>
        <time>2019-08-13T14:52:11Z</time>
      </trkpt>
      <trkpt lat="40.3618390" lon="-4.4419460">
        <ele>647.1</ele>
        <time>2019-08-13T14:52:12Z</time>
      </trkpt>
      <trkpt lat="40.3619070" lon="-4.4419500">
        <ele>647.1</ele>
        <time>2019-08-13T14:52:13Z</time>
      </trkpt>
      <trkpt lat="40.3619770" lon="-4.4419540">
        <ele>647.0</ele>
        <time>2019-08-13T14:52:14Z</time>
      </trkpt>
      <trkpt lat="40.3620480" lon="-4.4419570">
        <ele>647.0</ele>
        <time>2019-08-13T14:52:15Z</time>
      </trkpt>
      <trkpt lat="40.3621210" lon="-4.4419600">
        <ele>646.9</ele>
        <time>2019-08-13T14:52:16Z</time>
      </trkpt>
      <trkpt lat="40.3621950" lon="-4.4419640">
        <ele>646.9</ele>
        <time>2019-08-13T14:52:17Z</time>
      </trkpt>
      <trkpt lat="40.3622710" lon="-4.4419680">
        <ele>646.8</ele>
        <time>2019-08-13T14:52:18Z</time>
      </trkpt>
      <trkpt lat="40.3623490" lon="-4.4419720">
        <ele>646.8</ele>
        <time>2019-08-13T14:52:19Z</time>
      </trkpt>
      <trkpt lat="40.3624290" lon="-4.4419760">
        <ele>646.9</ele>
        <time>2019-08-13T14:52:20Z</time>
      </trkpt>
      <trkpt lat="40.3625090" lon="-4.4419780">
        <ele>646.9</ele>
        <time>2019-08-13T14:52:21Z</time>
      </trkpt>
      <trkpt lat="40.3625890" lon="-4.4419820">
        <ele>647.1</ele>
        <time>2019-08-13T14:52:22Z</time>
      </trkpt>
      <trkpt lat="40.3626680" lon="-4.4419860">
        <ele>647.2</ele>
        <time>2019-08-13T14:52:23Z</time>
      </trkpt>
      <trkpt lat="40.3627470" lon="-4.4419910">
        <ele>647.4</ele>
        <time>2019-08-13T14:52:24Z</time>
      </trkpt>
      <trkpt lat="40.3628250" lon="-4.4419960">
        <ele>647.5</ele>
        <time>2019-08-13T14:52:25Z</time>
      </trkpt>
      <trkpt lat="40.3629010" lon="-4.4419990">
        <ele>647.7</ele>
        <time>2019-08-13T14:52:26Z</time>
      </trkpt>
      <trkpt lat="40.3629770" lon="-4.4420030">
        <ele>647.8</ele>
        <time>2019-08-13T14:52:27Z</time>
      </trkpt>
      <trkpt lat="40.3630530" lon="-4.4420060">
        <ele>647.9</ele>
        <time>2019-08-13T14:52:28Z</time>
      </trkpt>
      <trkpt lat="40.3631280" lon="-4.4420080">
        <ele>647.7</ele>
        <time>2019-08-13T14:52:29Z</time>
      </trkpt>
      <trkpt lat="40.3632020" lon="-4.4420090">
        <ele>647.5</ele>
        <time>2019-08-13T14:52:30Z</time>
      </trkpt>
      <trkpt lat="40.3632750" lon="-4.4420080">
        <ele>647.3</ele>
        <time>2019-08-13T14:52:31Z</time>
      </trkpt>
      <trkpt lat="40.3633490" lon="-4.4420040">
        <ele>647.1</ele>
        <time>2019-08-13T14:52:32Z</time>
      </trkpt>
      <trkpt lat="40.3634250" lon="-4.4419980">
        <ele>647.0</ele>
        <time>2019-08-13T14:52:33Z</time>
      </trkpt>
      <trkpt lat="40.3635010" lon="-4.4419890">
        <ele>646.9</ele>
        <time>2019-08-13T14:52:34Z</time>
      </trkpt>
      <trkpt lat="40.3635750" lon="-4.4419780">
        <ele>646.8</ele>
        <time>2019-08-13T14:52:35Z</time>
      </trkpt>
      <trkpt lat="40.3636500" lon="-4.4419670">
        <ele>646.8</ele>
        <time>2019-08-13T14:52:36Z</time>
      </trkpt>
      <trkpt lat="40.3637250" lon="-4.4419550">
        <ele>646.8</ele>
        <time>2019-08-13T14:52:37Z</time>
      </trkpt>
      <trkpt lat="40.3637990" lon="-4.4419420">
        <ele>646.8</ele>
        <time>2019-08-13T14:52:38Z</time>
      </trkpt>
      <trkpt lat="40.3638710" lon="-4.4419270">
        <ele>646.8</ele>
        <time>2019-08-13T14:52:39Z</time>
      </trkpt>
      <trkpt lat="40.3639450" lon="-4.4419150">
        <ele>646.8</ele>
        <time>2019-08-13T14:52:40Z</time>
      </trkpt>
      <trkpt lat="40.3640180" lon="-4.4419030">
        <ele>646.9</ele>
        <time>2019-08-13T14:52:41Z</time>
      </trkpt>
      <trkpt lat="40.3640900" lon="-4.4418890">
        <ele>647.0</ele>
        <time>2019-08-13T14:52:42Z</time>
      </trkpt>
      <trkpt lat="40.3641620" lon="-4.4418760">
        <ele>647.1</ele>
        <time>2019-08-13T14:52:43Z</time>
      </trkpt>
      <trkpt lat="40.3642340" lon="-4.4418650">
        <ele>647.1</ele>
        <time>2019-08-13T14:52:44Z</time>
      </trkpt>
      <trkpt lat="40.3643030" lon="-4.4418560">
        <ele>647.3</ele>
        <time>2019-08-13T14:52:45Z</time>
      </trkpt>
      <trkpt lat="40.3643720" lon="-4.4418490">
        <ele>647.4</ele>
        <time>2019-08-13T14:52:46Z</time>
      </trkpt>
      <trkpt lat="40.3644410" lon="-4.4418440">
        <ele>647.5</ele>
        <time>2019-08-13T14:52:47Z</time>
      </trkpt>
      <trkpt lat="40.3645090" lon="-4.4418400">
        <ele>647.7</ele>
        <time>2019-08-13T14:52:48Z</time>
      </trkpt>
      <trkpt lat="40.3645780" lon="-4.4418380">
        <ele>647.8</ele>
        <time>2019-08-13T14:52:49Z</time>
      </trkpt>
      <trkpt lat="40.3646480" lon="-4.4418390">
        <ele>648.0</ele>
        <time>2019-08-13T14:52:50Z</time>
      </trkpt>
      <trkpt lat="40.3647170" lon="-4.4418420">
        <ele>648.2</ele>
        <time>2019-08-13T14:52:51Z</time>
      </trkpt>
      <trkpt lat="40.3647860" lon="-4.4418460">
        <ele>648.3</ele>
        <time>2019-08-13T14:52:52Z</time>
      </trkpt>
      <trkpt lat="40.3648550" lon="-4.4418550">
        <ele>648.5</ele>
        <time>2019-08-13T14:52:53Z</time>
      </trkpt>
      <trkpt lat="40.3649230" lon="-4.4418670">
        <ele>648.6</ele>
        <time>2019-08-13T14:52:54Z</time>
      </trkpt>
      <trkpt lat="40.3649900" lon="-4.4418790">
        <ele>648.8</ele>
        <time>2019-08-13T14:52:55Z</time>
      </trkpt>
      <trkpt lat="40.3650570" lon="-4.4418920">
        <ele>648.9</ele>
        <time>2019-08-13T14:52:56Z</time>
      </trkpt>
      <trkpt lat="40.3651210" lon="-4.4419060">
        <ele>649.0</ele>
        <time>2019-08-13T14:52:57Z</time>
      </trkpt>
      <trkpt lat="40.3651830" lon="-4.4419210">
        <ele>649.1</ele>
        <time>2019-08-13T14:52:58Z</time>
      </trkpt>
      <trkpt lat="40.3652420" lon="-4.4419360">
        <ele>649.1</ele>
        <time>2019-08-13T14:52:59Z</time>
      </trkpt>
      <trkpt lat="40.3653020" lon="-4.4419510">
        <ele>649.3</ele>
        <time>2019-08-13T14:53:00Z</time>
      </trkpt>
      <trkpt lat="40.3653620" lon="-4.4419650">
        <ele>649.4</ele>
        <time>2019-08-13T14:53:01Z</time>
      </trkpt>
      <trkpt lat="40.3654210" lon="-4.4419780">
        <ele>649.5</ele>
        <time>2019-08-13T14:53:02Z</time>
      </trkpt>
      <trkpt lat="40.3654810" lon="-4.4419920">
        <ele>649.7</ele>
        <time>2019-08-13T14:53:03Z</time>
      </trkpt>
      <trkpt lat="40.3655400" lon="-4.4420070">
        <ele>649.8</ele>
        <time>2019-08-13T14:53:04Z</time>
      </trkpt>
      <trkpt lat="40.3655980" lon="-4.4420230">
        <ele>649.9</ele>
        <time>2019-08-13T14:53:05Z</time>
      </trkpt>
      <trkpt lat="40.3656550" lon="-4.4420400">
        <ele>650.0</ele>
        <time>2019-08-13T14:53:06Z</time>
      </trkpt>
      <trkpt lat="40.3657130" lon="-4.4420550">
        <ele>650.1</ele>
        <time>2019-08-13T14:53:07Z</time>
      </trkpt>
      <trkpt lat="40.3657680" lon="-4.4420680">
        <ele>650.2</ele>
        <time>2019-08-13T14:53:08Z</time>
      </trkpt>
      <trkpt lat="40.3658230" lon="-4.4420800">
        <ele>650.3</ele>
        <time>2019-08-13T14:53:09Z</time>
      </trkpt>
      <trkpt lat="40.3658780" lon="-4.4420910">
        <ele>650.4</ele>
        <time>2019-08-13T14:53:10Z</time>
      </trkpt>
      <trkpt lat="40.3659300" lon="-4.4421010">
        <ele>650.4</ele>
        <time>2019-08-13T14:53:11Z</time>
      </trkpt>
      <trkpt lat="40.3659820" lon="-4.4421110">
        <ele>650.3</ele>
        <time>2019-08-13T14:53:12Z</time>
      </trkpt>
      <trkpt lat="40.3660320" lon="-4.4421200">
        <ele>650.3</ele>
        <time>2019-08-13T14:53:13Z</time>
      </trkpt>
      <trkpt lat="40.3660820" lon="-4.4421280">
        <ele>650.2</ele>
        <time>2019-08-13T14:53:14Z</time>
      </trkpt>
      <trkpt lat="40.3661310" lon="-4.4421330">
        <ele>650.1</ele>
        <time>2019-08-13T14:53:15Z</time>
      </trkpt>
      <trkpt lat="40.3661830" lon="-4.4421370">
        <ele>649.9</ele>
        <time>2019-08-13T14:53:16Z</time>
      </trkpt>
      <trkpt lat="40.3662370" lon="-4.4421410">
        <ele>649.6</ele>
        <time>2019-08-13T14:53:17Z</time>
      </trkpt>
      <trkpt lat="40.3662940" lon="-4.4421420">
        <ele>649.4</ele>
        <time>2019-08-13T14:53:18Z</time>
      </trkpt>
      <trkpt lat="40.3663530" lon="-4.4421430">
        <ele>649.3</ele>
        <time>2019-08-13T14:53:19Z</time>
      </trkpt>
      <trkpt lat="40.3664160" lon="-4.4421440">
        <ele>649.0</ele>
        <time>2019-08-13T14:53:20Z</time>
      </trkpt>
      <trkpt lat="40.3664810" lon="-4.4421400">
        <ele>648.6</ele>
        <time>2019-08-13T14:53:21Z</time>
      </trkpt>
      <trkpt lat="40.3665480" lon="-4.4421330">
        <ele>648.2</ele>
        <time>2019-08-13T14:53:22Z</time>
      </trkpt>
      <trkpt lat="40.3666170" lon="-4.4421260">
        <ele>647.9</ele>
        <time>2019-08-13T14:53:23Z</time>
      </trkpt>
      <trkpt lat="40.3666880" lon="-4.4421160">
        <ele>647.4</ele>
        <time>2019-08-13T14:53:24Z</time>
      </trkpt>
      <trkpt lat="40.3667610" lon="-4.4421030">
        <ele>646.9</ele>
        <time>2019-08-13T14:53:25Z</time>
      </trkpt>
      <trkpt lat="40.3668360" lon="-4.4420910">
        <ele>646.5</ele>
        <time>2019-08-13T14:53:26Z</time>
      </trkpt>
      <trkpt lat="40.3669110" lon="-4.4420800">
        <ele>646.2</ele>
        <time>2019-08-13T14:53:27Z</time>
      </trkpt>
      <trkpt lat="40.3669880" lon="-4.4420680">
        <ele>645.9</ele>
        <time>2019-08-13T14:53:28Z</time>
      </trkpt>
      <trkpt lat="40.3670650" lon="-4.4420570">
        <ele>645.5</ele>
        <time>2019-08-13T14:53:29Z</time>
      </trkpt>
      <trkpt lat="40.3671440" lon="-4.4420460">
        <ele>645.1</ele>
        <time>2019-08-13T14:53:30Z</time>
      </trkpt>
      <trkpt lat="40.3672260" lon="-4.4420340">
        <ele>644.8</ele>
        <time>2019-08-13T14:53:31Z</time>
      </trkpt>
      <trkpt lat="40.3673070" lon="-4.4420230">
        <ele>644.4</ele>
        <time>2019-08-13T14:53:32Z</time>
      </trkpt>
      <trkpt lat="40.3673890" lon="-4.4420140">
        <ele>644.0</ele>
        <time>2019-08-13T14:53:33Z</time>
      </trkpt>
      <trkpt lat="40.3674700" lon="-4.4420050">
        <ele>643.8</ele>
        <time>2019-08-13T14:53:34Z</time>
      </trkpt>
      <trkpt lat="40.3675500" lon="-4.4420000">
        <ele>643.7</ele>
        <time>2019-08-13T14:53:35Z</time>
      </trkpt>
      <trkpt lat="40.3676300" lon="-4.4420000">
        <ele>643.6</ele>
        <time>2019-08-13T14:53:36Z</time>
      </trkpt>
      <trkpt lat="40.3677090" lon="-4.4420020">
        <ele>643.7</ele>
        <time>2019-08-13T14:53:37Z</time>
      </trkpt>
      <trkpt lat="40.3677870" lon="-4.4420070">
        <ele>643.8</ele>
        <time>2019-08-13T14:53:38Z</time>
      </trkpt>
      <trkpt lat="40.3678660" lon="-4.4420130">
        <ele>643.9</ele>
        <time>2019-08-13T14:53:39Z</time>
      </trkpt>
      <trkpt lat="40.3679430" lon="-4.4420200">
        <ele>643.9</ele>
        <time>2019-08-13T14:53:40Z</time>
      </trkpt>
      <trkpt lat="40.3680190" lon="-4.4420310">
        <ele>644.0</ele>
        <time>2019-08-13T14:53:41Z</time>
      </trkpt>
      <trkpt lat="40.3680930" lon="-4.4420450">
        <ele>644.0</ele>
        <time>2019-08-13T14:53:42Z</time>
      </trkpt>
      <trkpt lat="40.3681650" lon="-4.4420610">
        <ele>643.9</ele>
        <time>2019-08-13T14:53:43Z</time>
      </trkpt>
      <trkpt lat="40.3682350" lon="-4.4420760">
        <ele>643.9</ele>
        <time>2019-08-13T14:53:44Z</time>
      </trkpt>
      <trkpt lat="40.3683040" lon="-4.4420900">
        <ele>643.9</ele>
        <time>2019-08-13T14:53:45Z</time>
      </trkpt>
      <trkpt lat="40.3683720" lon="-4.4421050">
        <ele>644.0</ele>
        <time>2019-08-13T14:53:46Z</time>
      </trkpt>
      <trkpt lat="40.3684390" lon="-4.4421200">
        <ele>644.0</ele>
        <time>2019-08-13T14:53:47Z</time>
      </trkpt>
      <trkpt lat="40.3685050" lon="-4.4421360">
        <ele>644.0</ele>
        <time>2019-08-13T14:53:48Z</time>
      </trkpt>
      <trkpt lat="40.3685710" lon="-4.4421510">
        <ele>644.1</ele>
        <time>2019-08-13T14:53:49Z</time>
      </trkpt>
      <trkpt lat="40.3686360" lon="-4.4421650">
        <ele>644.2</ele>
        <time>2019-08-13T14:53:50Z</time>
      </trkpt>
      <trkpt lat="40.3687020" lon="-4.4421790">
        <ele>644.2</ele>
        <time>2019-08-13T14:53:51Z</time>
      </trkpt>
      <trkpt lat="40.3687680" lon="-4.4421940">
        <ele>644.3</ele>
        <time>2019-08-13T14:53:52Z</time>
      </trkpt>
      <trkpt lat="40.3688350" lon="-4.4422100">
        <ele>644.3</ele>
        <time>2019-08-13T14:53:53Z</time>
      </trkpt>
      <trkpt lat="40.3689020" lon="-4.4422240">
        <ele>644.3</ele>
        <time>2019-08-13T14:53:54Z</time>
      </trkpt>
      <trkpt lat="40.3689690" lon="-4.4422380">
        <ele>644.3</ele>
        <time>2019-08-13T14:53:55Z</time>
      </trkpt>
      <trkpt lat="40.3690360" lon="-4.4422510">
        <ele>644.3</ele>
        <time>2019-08-13T14:53:56Z</time>
      </trkpt>
      <trkpt lat="40.3691030" lon="-4.4422650">
        <ele>644.2</ele>
        <time>2019-08-13T14:53:57Z</time>
      </trkpt>
      <trkpt lat="40.3691680" lon="-4.4422800">
        <ele>644.2</ele>
        <time>2019-08-13T14:53:58Z</time>
      </trkpt>
      <trkpt lat="40.3692350" lon="-4.4422970">
        <ele>644.1</ele>
        <time>2019-08-13T14:53:59Z</time>
      </trkpt>
      <trkpt lat="40.3693000" lon="-4.4423160">
        <ele>644.1</ele>
        <time>2019-08-13T14:54:00Z</time>
      </trkpt>
      <trkpt lat="40.3693670" lon="-4.4423340">
        <ele>644.0</ele>
        <time>2019-08-13T14:54:01Z</time>
      </trkpt>
      <trkpt lat="40.3694340" lon="-4.4423550">
        <ele>644.0</ele>
        <time>2019-08-13T14:54:02Z</time>
      </trkpt>
      <trkpt lat="40.3695000" lon="-4.4423760">
        <ele>644.0</ele>
        <time>2019-08-13T14:54:03Z</time>
      </trkpt>
      <trkpt lat="40.3695660" lon="-4.4423970">
        <ele>644.0</ele>
        <time>2019-08-13T14:54:04Z</time>
      </trkpt>
      <trkpt lat="40.3696340" lon="-4.4424180">
        <ele>644.0</ele>
        <time>2019-08-13T14:54:05Z</time>
      </trkpt>
      <trkpt lat="40.3696990" lon="-4.4424390">
        <ele>644.0</ele>
        <time>2019-08-13T14:54:06Z</time>
      </trkpt>
      <trkpt lat="40.3697640" lon="-4.4424630">
        <ele>644.1</ele>
        <time>2019-08-13T14:54:07Z</time>
      </trkpt>
      <trkpt lat="40.3698280" lon="-4.4424870">
        <ele>644.1</ele>
        <time>2019-08-13T14:54:08Z</time>
      </trkpt>
      <trkpt lat="40.3698910" lon="-4.4425110">
        <ele>644.1</ele>
        <time>2019-08-13T14:54:09Z</time>
      </trkpt>
      <trkpt lat="40.3699530" lon="-4.4425340">
        <ele>644.1</ele>
        <time>2019-08-13T14:54:10Z</time>
      </trkpt>
      <trkpt lat="40.3700160" lon="-4.4425570">
        <ele>644.1</ele>
        <time>2019-08-13T14:54:11Z</time>
      </trkpt>
      <trkpt lat="40.3700790" lon="-4.4425780">
        <ele>644.1</ele>
        <time>2019-08-13T14:54:12Z</time>
      </trkpt>
      <trkpt lat="40.3701420" lon="-4.4426010">
        <ele>644.1</ele>
        <time>2019-08-13T14:54:13Z</time>
      </trkpt>
      <trkpt lat="40.3702040" lon="-4.4426260">
        <ele>644.1</ele>
        <time>2019-08-13T14:54:14Z</time>
      </trkpt>
      <trkpt lat="40.3702670" lon="-4.4426510">
        <ele>644.1</ele>
        <time>2019-08-13T14:54:15Z</time>
      </trkpt>
      <trkpt lat="40.3703290" lon="-4.4426760">
        <ele>644.2</ele>
        <time>2019-08-13T14:54:16Z</time>
      </trkpt>
      <trkpt lat="40.3703920" lon="-4.4427000">
        <ele>644.3</ele>
        <time>2019-08-13T14:54:17Z</time>
      </trkpt>
      <trkpt lat="40.3704550" lon="-4.4427240">
        <ele>644.4</ele>
        <time>2019-08-13T14:54:18Z</time>
      </trkpt>
      <trkpt lat="40.3705170" lon="-4.4427480">
        <ele>644.5</ele>
        <time>2019-08-13T14:54:19Z</time>
      </trkpt>
      <trkpt lat="40.3705790" lon="-4.4427730">
        <ele>644.5</ele>
        <time>2019-08-13T14:54:20Z</time>
      </trkpt>
      <trkpt lat="40.3706410" lon="-4.4427970">
        <ele>644.6</ele>
        <time>2019-08-13T14:54:21Z</time>
      </trkpt>
      <trkpt lat="40.3707040" lon="-4.4428210">
        <ele>644.7</ele>
        <time>2019-08-13T14:54:22Z</time>
      </trkpt>
      <trkpt lat="40.3707670" lon="-4.4428450">
        <ele>644.7</ele>
        <time>2019-08-13T14:54:23Z</time>
      </trkpt>
      <trkpt lat="40.3708310" lon="-4.4428690">
        <ele>644.8</ele>
        <time>2019-08-13T14:54:24Z</time>
      </trkpt>
      <trkpt lat="40.3708930" lon="-4.4428930">
        <ele>644.9</ele>
        <time>2019-08-13T14:54:25Z</time>
      </trkpt>
      <trkpt lat="40.3709560" lon="-4.4429180">
        <ele>644.9</ele>
        <time>2019-08-13T14:54:26Z</time>
      </trkpt>
      <trkpt lat="40.3710190" lon="-4.4429420">
        <ele>645.0</ele>
        <time>2019-08-13T14:54:27Z</time>
      </trkpt>
      <trkpt lat="40.3710800" lon="-4.4429660">
        <ele>645.0</ele>
        <time>2019-08-13T14:54:28Z</time>
      </trkpt>
      <trkpt lat="40.3711400" lon="-4.4429900">
        <ele>645.1</ele>
        <time>2019-08-13T14:54:29Z</time>
      </trkpt>
      <trkpt lat="40.3712010" lon="-4.4430130">
        <ele>645.2</ele>
        <time>2019-08-13T14:54:30Z</time>
      </trkpt>
      <trkpt lat="40.3712590" lon="-4.4430360">
        <ele>645.3</ele>
        <time>2019-08-13T14:54:31Z</time>
      </trkpt>
      <trkpt lat="40.3713170" lon="-4.4430580">
        <ele>645.4</ele>
        <time>2019-08-13T14:54:32Z</time>
      </trkpt>
      <trkpt lat="40.3713750" lon="-4.4430800">
        <ele>645.5</ele>
        <time>2019-08-13T14:54:33Z</time>
      </trkpt>
      <trkpt lat="40.3714320" lon="-4.4431010">
        <ele>645.6</ele>
        <time>2019-08-13T14:54:34Z</time>
      </trkpt>
      <trkpt lat="40.3714900" lon="-4.4431230">
        <ele>645.8</ele>
        <time>2019-08-13T14:54:35Z</time>
      </trkpt>
      <trkpt lat="40.3715480" lon="-4.4431460">
        <ele>645.9</ele>
        <time>2019-08-13T14:54:36Z</time>
      </trkpt>
      <trkpt lat="40.3716060" lon="-4.4431690">
        <ele>646.1</ele>
        <time>2019-08-13T14:54:37Z</time>
      </trkpt>
      <trkpt lat="40.3716630" lon="-4.4431900">
        <ele>646.2</ele>
        <time>2019-08-13T14:54:38Z</time>
      </trkpt>
      <trkpt lat="40.3717220" lon="-4.4432120">
        <ele>646.4</ele>
        <time>2019-08-13T14:54:39Z</time>
      </trkpt>
      <trkpt lat="40.3717790" lon="-4.4432340">
        <ele>646.5</ele>
        <time>2019-08-13T14:54:40Z</time>
      </trkpt>
      <trkpt lat="40.3718340" lon="-4.4432560">
        <ele>646.6</ele>
        <time>2019-08-13T14:54:41Z</time>
      </trkpt>
      <trkpt lat="40.3718880" lon="-4.4432770">
        <ele>646.6</ele>
        <time>2019-08-13T14:54:42Z</time>
      </trkpt>
      <trkpt lat="40.3719410" lon="-4.4432990">
        <ele>646.7</ele>
        <time>2019-08-13T14:54:43Z</time>
      </trkpt>
      <trkpt lat="40.3719940" lon="-4.4433220">
        <ele>646.7</ele>
        <time>2019-08-13T14:54:44Z</time>
      </trkpt>
      <trkpt lat="40.3720470" lon="-4.4433440">
        <ele>646.7</ele>
        <time>2019-08-13T14:54:45Z</time>
      </trkpt>
      <trkpt lat="40.3720990" lon="-4.4433690">
        <ele>646.7</ele>
        <time>2019-08-13T14:54:46Z</time>
      </trkpt>
      <trkpt lat="40.3721500" lon="-4.4433940">
        <ele>646.6</ele>
        <time>2019-08-13T14:54:47Z</time>
      </trkpt>
      <trkpt lat="40.3722000" lon="-4.4434200">
        <ele>646.6</ele>
        <time>2019-08-13T14:54:48Z</time>
      </trkpt>
      <trkpt lat="40.3722500" lon="-4.4434480">
        <ele>646.5</ele>
        <time>2019-08-13T14:54:49Z</time>
      </trkpt>
      <trkpt lat="40.3722980" lon="-4.4434780">
        <ele>646.4</ele>
        <time>2019-08-13T14:54:50Z</time>
      </trkpt>
      <trkpt lat="40.3723470" lon="-4.4435070">
        <ele>646.4</ele>
        <time>2019-08-13T14:54:51Z</time>
      </trkpt>
      <trkpt lat="40.3723940" lon="-4.4435370">
        <ele>646.3</ele>
        <time>2019-08-13T14:54:52Z</time>
      </trkpt>
      <trkpt lat="40.3724400" lon="-4.4435670">
        <ele>646.2</ele>
        <time>2019-08-13T14:54:53Z</time>
      </trkpt>
      <trkpt lat="40.3724840" lon="-4.4435990">
        <ele>646.1</ele>
        <time>2019-08-13T14:54:54Z</time>
      </trkpt>
      <trkpt lat="40.3725290" lon="-4.4436320">
        <ele>646.0</ele>
        <time>2019-08-13T14:54:55Z</time>
      </trkpt>
      <trkpt lat="40.3725730" lon="-4.4436670">
        <ele>645.8</ele>
        <time>2019-08-13T14:54:56Z</time>
      </trkpt>
      <trkpt lat="40.3726170" lon="-4.4437020">
        <ele>646.0</ele>
        <time>2019-08-13T14:54:57Z</time>
      </trkpt>
      <trkpt lat="40.3726630" lon="-4.4437390">
        <ele>646.2</ele>
        <time>2019-08-13T14:54:58Z</time>
      </trkpt>
      <trkpt lat="40.3727100" lon="-4.4437770">
        <ele>646.4</ele>
        <time>2019-08-13T14:54:59Z</time>
      </trkpt>
      <trkpt lat="40.3727570" lon="-4.4438160">
        <ele>646.6</ele>
        <time>2019-08-13T14:55:00Z</time>
      </trkpt>
      <trkpt lat="40.3728050" lon="-4.4438580">
        <ele>646.9</ele>
        <time>2019-08-13T14:55:01Z</time>
      </trkpt>
      <trkpt lat="40.3728530" lon="-4.4439010">
        <ele>647.1</ele>
        <time>2019-08-13T14:55:02Z</time>
      </trkpt>
      <trkpt lat="40.3729010" lon="-4.4439400">
        <ele>647.3</ele>
        <time>2019-08-13T14:55:03Z</time>
      </trkpt>
      <trkpt lat="40.3729490" lon="-4.4439770">
        <ele>647.5</ele>
        <time>2019-08-13T14:55:04Z</time>
      </trkpt>
      <trkpt lat="40.3729970" lon="-4.4440150">
        <ele>647.7</ele>
        <time>2019-08-13T14:55:05Z</time>
      </trkpt>
      <trkpt lat="40.3730450" lon="-4.4440530">
        <ele>647.8</ele>
        <time>2019-08-13T14:55:06Z</time>
      </trkpt>
      <trkpt lat="40.3730940" lon="-4.4440920">
        <ele>648.0</ele>
        <time>2019-08-13T14:55:07Z</time>
      </trkpt>
      <trkpt lat="40.3731430" lon="-4.4441320">
        <ele>648.1</ele>
        <time>2019-08-13T14:55:08Z</time>
      </trkpt>
      <trkpt lat="40.3731920" lon="-4.4441700">
        <ele>648.3</ele>
        <time>2019-08-13T14:55:09Z</time>
      </trkpt>
      <trkpt lat="40.3732410" lon="-4.4442090">
        <ele>648.3</ele>
        <time>2019-08-13T14:55:10Z</time>
      </trkpt>
      <trkpt lat="40.3732890" lon="-4.4442490">
        <ele>648.4</ele>
        <time>2019-08-13T14:55:11Z</time>
      </trkpt>
      <trkpt lat="40.3733370" lon="-4.4442890">
        <ele>648.5</ele>
        <time>2019-08-13T14:55:12Z</time>
      </trkpt>
      <trkpt lat="40.3733840" lon="-4.4443270">
        <ele>648.5</ele>
        <time>2019-08-13T14:55:13Z</time>
      </trkpt>
      <trkpt lat="40.3734320" lon="-4.4443630">
        <ele>648.5</ele>
        <time>2019-08-13T14:55:14Z</time>
      </trkpt>
      <trkpt lat="40.3734770" lon="-4.4443990">
        <ele>648.6</ele>
        <time>2019-08-13T14:55:15Z</time>
      </trkpt>
      <trkpt lat="40.3735210" lon="-4.4444360">
        <ele>648.6</ele>
        <time>2019-08-13T14:55:16Z</time>
      </trkpt>
      <trkpt lat="40.3735640" lon="-4.4444680">
        <ele>648.6</ele>
        <time>2019-08-13T14:55:17Z</time>
      </trkpt>
      <trkpt lat="40.3736070" lon="-4.4445020">
        <ele>648.6</ele>
        <time>2019-08-13T14:55:18Z</time>
      </trkpt>
      <trkpt lat="40.3736490" lon="-4.4445330">
        <ele>648.6</ele>
        <time>2019-08-13T14:55:19Z</time>
      </trkpt>
      <trkpt lat="40.3736910" lon="-4.4445650">
        <ele>648.6</ele>
        <time>2019-08-13T14:55:20Z</time>
      </trkpt>
      <trkpt lat="40.3737320" lon="-4.4445970">
        <ele>648.5</ele>
        <time>2019-08-13T14:55:21Z</time>
      </trkpt>
      <trkpt lat="40.3737720" lon="-4.4446300">
        <ele>648.5</ele>
        <time>2019-08-13T14:55:22Z</time>
      </trkpt>
      <trkpt lat="40.3738130" lon="-4.4446620">
        <ele>648.5</ele>
        <time>2019-08-13T14:55:23Z</time>
      </trkpt>
      <trkpt lat="40.3738520" lon="-4.4446920">
        <ele>648.5</ele>
        <time>2019-08-13T14:55:24Z</time>
      </trkpt>
      <trkpt lat="40.3738910" lon="-4.4447220">
        <ele>648.5</ele>
        <time>2019-08-13T14:55:25Z</time>
      </trkpt>
      <trkpt lat="40.3739300" lon="-4.4447480">
        <ele>648.4</ele>
        <time>2019-08-13T14:55:26Z</time>
      </trkpt>
      <trkpt lat="40.3739710" lon="-4.4447710">
        <ele>648.4</ele>
        <time>2019-08-13T14:55:27Z</time>
      </trkpt>
      <trkpt lat="40.3740120" lon="-4.4447910">
        <ele>648.3</ele>
        <time>2019-08-13T14:55:28Z</time>
      </trkpt>
      <trkpt lat="40.3740540" lon="-4.4448090">
        <ele>648.3</ele>
        <time>2019-08-13T14:55:29Z</time>
      </trkpt>
      <trkpt lat="40.3740970" lon="-4.4448240">
        <ele>648.2</ele>
        <time>2019-08-13T14:55:30Z</time>
      </trkpt>
      <trkpt lat="40.3741390" lon="-4.4448350">
        <ele>648.2</ele>
        <time>2019-08-13T14:55:31Z</time>
      </trkpt>
      <trkpt lat="40.3741800" lon="-4.4448440">
        <ele>648.3</ele>
        <time>2019-08-13T14:55:32Z</time>
      </trkpt>
      <trkpt lat="40.3742200" lon="-4.4448470">
        <ele>648.3</ele>
        <time>2019-08-13T14:55:33Z</time>
      </trkpt>
      <trkpt lat="40.3742600" lon="-4.4448480">
        <ele>648.3</ele>
        <time>2019-08-13T14:55:34Z</time>
      </trkpt>
      <trkpt lat="40.3743010" lon="-4.4448460">
        <ele>648.3</ele>
        <time>2019-08-13T14:55:35Z</time>
      </trkpt>
      <trkpt lat="40.3743440" lon="-4.4448410">
        <ele>648.3</ele>
        <time>2019-08-13T14:55:36Z</time>
      </trkpt>
      <trkpt lat="40.3743850" lon="-4.4448340">
        <ele>648.3</ele>
        <time>2019-08-13T14:55:37Z</time>
      </trkpt>
      <trkpt lat="40.3744210" lon="-4.4448270">
        <ele>648.4</ele>
        <time>2019-08-13T14:55:38Z</time>
      </trkpt>
      <trkpt lat="40.3744550" lon="-4.4448220">
        <ele>648.4</ele>
        <time>2019-08-13T14:55:39Z</time>
      </trkpt>
      <trkpt lat="40.3744880" lon="-4.4448200">
        <ele>648.4</ele>
        <time>2019-08-13T14:55:40Z</time>
      </trkpt>
      <trkpt lat="40.3745220" lon="-4.4448230">
        <ele>648.4</ele>
        <time>2019-08-13T14:55:41Z</time>
      </trkpt>
      <trkpt lat="40.3745590" lon="-4.4448340">
        <ele>648.6</ele>
        <time>2019-08-13T14:55:42Z</time>
      </trkpt>
      <trkpt lat="40.3745960" lon="-4.4448520">
        <ele>648.7</ele>
        <time>2019-08-13T14:55:43Z</time>
      </trkpt>
      <trkpt lat="40.3746320" lon="-4.4448800">
        <ele>648.8</ele>
        <time>2019-08-13T14:55:44Z</time>
      </trkpt>
      <trkpt lat="40.3746670" lon="-4.4449150">
        <ele>649.0</ele>
        <time>2019-08-13T14:55:45Z</time>
      </trkpt>
      <trkpt lat="40.3746980" lon="-4.4449560">
        <ele>649.2</ele>
        <time>2019-08-13T14:55:46Z</time>
      </trkpt>
      <trkpt lat="40.3747230" lon="-4.4450020">
        <ele>649.4</ele>
        <time>2019-08-13T14:55:47Z</time>
      </trkpt>
      <trkpt lat="40.3747480" lon="-4.4450480">
        <ele>649.7</ele>
        <time>2019-08-13T14:55:48Z</time>
      </trkpt>
      <trkpt lat="40.3747730" lon="-4.4450960">
        <ele>650.0</ele>
        <time>2019-08-13T14:55:49Z</time>
      </trkpt>
      <trkpt lat="40.3748000" lon="-4.4451450">
        <ele>650.3</ele>
        <time>2019-08-13T14:55:50Z</time>
      </trkpt>
      <trkpt lat="40.3748260" lon="-4.4451940">
        <ele>650.6</ele>
        <time>2019-08-13T14:55:51Z</time>
      </trkpt>
      <trkpt lat="40.3748510" lon="-4.4452450">
        <ele>650.9</ele>
        <time>2019-08-13T14:55:52Z</time>
      </trkpt>
      <trkpt lat="40.3748780" lon="-4.4452970">
        <ele>651.2</ele>
        <time>2019-08-13T14:55:53Z</time>
      </trkpt>
      <trkpt lat="40.3749040" lon="-4.4453470">
        <ele>651.4</ele>
        <time>2019-08-13T14:55:54Z</time>
      </trkpt>
      <trkpt lat="40.3749320" lon="-4.4453990">
        <ele>651.7</ele>
        <time>2019-08-13T14:55:55Z</time>
      </trkpt>
      <trkpt lat="40.3749590" lon="-4.4454500">
        <ele>651.8</ele>
        <time>2019-08-13T14:55:56Z</time>
      </trkpt>
      <trkpt lat="40.3749870" lon="-4.4455000">
        <ele>652.0</ele>
        <time>2019-08-13T14:55:57Z</time>
      </trkpt>
      <trkpt lat="40.3750140" lon="-4.4455500">
        <ele>652.1</ele>
        <time>2019-08-13T14:55:58Z</time>
      </trkpt>
      <trkpt lat="40.3750410" lon="-4.4455990">
        <ele>652.3</ele>
        <time>2019-08-13T14:55:59Z</time>
      </trkpt>
      <trkpt lat="40.3750680" lon="-4.4456480">
        <ele>652.4</ele>
        <time>2019-08-13T14:56:00Z</time>
      </trkpt>
      <trkpt lat="40.3750940" lon="-4.4456970">
        <ele>652.5</ele>
        <time>2019-08-13T14:56:01Z</time>
      </trkpt>
      <trkpt lat="40.3751190" lon="-4.4457450">
        <ele>652.5</ele>
        <time>2019-08-13T14:56:02Z</time>
      </trkpt>
      <trkpt lat="40.3751440" lon="-4.4457930">
        <ele>652.6</ele>
        <time>2019-08-13T14:56:03Z</time>
      </trkpt>
      <trkpt lat="40.3751690" lon="-4.4458380">
        <ele>652.7</ele>
        <time>2019-08-13T14:56:04Z</time>
      </trkpt>
      <trkpt lat="40.3751920" lon="-4.4458830">
        <ele>652.8</ele>
        <time>2019-08-13T14:56:05Z</time>
      </trkpt>
      <trkpt lat="40.3752160" lon="-4.4459270">
        <ele>652.9</ele>
        <time>2019-08-13T14:56:06Z</time>
      </trkpt>
      <trkpt lat="40.3752400" lon="-4.4459710">
        <ele>653.0</ele>
        <time>2019-08-13T14:56:07Z</time>
      </trkpt>
      <trkpt lat="40.3752640" lon="-4.4460130">
        <ele>653.1</ele>
        <time>2019-08-13T14:56:08Z</time>
      </trkpt>
      <trkpt lat="40.3752870" lon="-4.4460560">
        <ele>653.5</ele>
        <time>2019-08-13T14:56:09Z</time>
      </trkpt>
      <trkpt lat="40.3753120" lon="-4.4461000">
        <ele>653.8</ele>
        <time>2019-08-13T14:56:10Z</time>
      </trkpt>
      <trkpt lat="40.3753370" lon="-4.4461420">
        <ele>654.0</ele>
        <time>2019-08-13T14:56:11Z</time>
      </trkpt>
      <trkpt lat="40.3753600" lon="-4.4461860">
        <ele>654.2</ele>
        <time>2019-08-13T14:56:12Z</time>
      </trkpt>
      <trkpt lat="40.3753820" lon="-4.4462300">
        <ele>654.5</ele>
        <time>2019-08-13T14:56:13Z</time>
      </trkpt>
      <trkpt lat="40.3754040" lon="-4.4462740">
        <ele>654.7</ele>
        <time>2019-08-13T14:56:14Z</time>
      </trkpt>
      <trkpt lat="40.3754280" lon="-4.4463200">
        <ele>654.9</ele>
        <time>2019-08-13T14:56:15Z</time>
      </trkpt>
      <trkpt lat="40.3754500" lon="-4.4463630">
        <ele>655.1</ele>
        <time>2019-08-13T14:56:16Z</time>
      </trkpt>
      <trkpt lat="40.3754730" lon="-4.4464060">
        <ele>655.4</ele>
        <time>2019-08-13T14:56:17Z</time>
      </trkpt>
      <trkpt lat="40.3754970" lon="-4.4464500">
        <ele>655.7</ele>
        <time>2019-08-13T14:56:18Z</time>
      </trkpt>
      <trkpt lat="40.3755210" lon="-4.4464940">
        <ele>655.9</ele>
        <time>2019-08-13T14:56:19Z</time>
      </trkpt>
      <trkpt lat="40.3755450" lon="-4.4465370">
        <ele>656.2</ele>
        <time>2019-08-13T14:56:20Z</time>
      </trkpt>
      <trkpt lat="40.3755690" lon="-4.4465810">
        <ele>656.5</ele>
        <time>2019-08-13T14:56:21Z</time>
      </trkpt>
      <trkpt lat="40.3755920" lon="-4.4466250">
        <ele>656.8</ele>
        <time>2019-08-13T14:56:22Z</time>
      </trkpt>
      <trkpt lat="40.3756160" lon="-4.4466690">
        <ele>657.1</ele>
        <time>2019-08-13T14:56:23Z</time>
      </trkpt>
      <trkpt lat="40.3756400" lon="-4.4467110">
        <ele>657.4</ele>
        <time>2019-08-13T14:56:24Z</time>
      </trkpt>
      <trkpt lat="40.3756620" lon="-4.4467520">
        <ele>657.6</ele>
        <time>2019-08-13T14:56:25Z</time>
      </trkpt>
      <trkpt lat="40.3756850" lon="-4.4467930">
        <ele>657.9</ele>
        <time>2019-08-13T14:56:26Z</time>
      </trkpt>
      <trkpt lat="40.3757080" lon="-4.4468340">
        <ele>658.2</ele>
        <time>2019-08-13T14:56:27Z</time>
      </trkpt>
      <trkpt lat="40.3757310" lon="-4.4468750">
        <ele>658.5</ele>
        <time>2019-08-13T14:56:28Z</time>
      </trkpt>
      <trkpt lat="40.3757520" lon="-4.4469130">
        <ele>658.7</ele>
        <time>2019-08-13T14:56:29Z</time>
      </trkpt>
      <trkpt lat="40.3757740" lon="-4.4469500">
        <ele>659.0</ele>
        <time>2019-08-13T14:56:30Z</time>
      </trkpt>
      <trkpt lat="40.3757940" lon="-4.4469850">
        <ele>659.2</ele>
        <time>2019-08-13T14:56:31Z</time>
      </trkpt>
      <trkpt lat="40.3758140" lon="-4.4470190">
        <ele>659.4</ele>
        <time>2019-08-13T14:56:32Z</time>
      </trkpt>
      <trkpt lat="40.3758320" lon="-4.4470530">
        <ele>659.6</ele>
        <time>2019-08-13T14:56:33Z</time>
      </trkpt>
      <trkpt lat="40.3758490" lon="-4.4470850">
        <ele>659.8</ele>
        <time>2019-08-13T14:56:34Z</time>
      </trkpt>
      <trkpt lat="40.3758670" lon="-4.4471180">
        <ele>660.0</ele>
        <time>2019-08-13T14:56:35Z</time>
      </trkpt>
      <trkpt lat="40.3758850" lon="-4.4471500">
        <ele>660.2</ele>
        <time>2019-08-13T14:56:36Z</time>
      </trkpt>
      <trkpt lat="40.3759020" lon="-4.4471830">
        <ele>660.4</ele>
        <time>2019-08-13T14:56:37Z</time>
      </trkpt>
      <trkpt lat="40.3759190" lon="-4.4472150">
        <ele>660.6</ele>
        <time>2019-08-13T14:56:38Z</time>
      </trkpt>
      <trkpt lat="40.3759370" lon="-4.4472470">
        <ele>660.8</ele>
        <time>2019-08-13T14:56:39Z</time>
      </trkpt>
      <trkpt lat="40.3759550" lon="-4.4472800">
        <ele>661.1</ele>
        <time>2019-08-13T14:56:40Z</time>
      </trkpt>
      <trkpt lat="40.3759730" lon="-4.4473120">
        <ele>661.3</ele>
        <time>2019-08-13T14:56:41Z</time>
      </trkpt>
      <trkpt lat="40.3759910" lon="-4.4473440">
        <ele>661.6</ele>
        <time>2019-08-13T14:56:42Z</time>
      </trkpt>
      <trkpt lat="40.3760090" lon="-4.4473770">
        <ele>661.9</ele>
        <time>2019-08-13T14:56:43Z</time>
      </trkpt>
      <trkpt lat="40.3760250" lon="-4.4474090">
        <ele>662.1</ele>
        <time>2019-08-13T14:56:44Z</time>
      </trkpt>
      <trkpt lat="40.3760420" lon="-4.4474400">
        <ele>662.3</ele>
        <time>2019-08-13T14:56:45Z</time>
      </trkpt>
      <trkpt lat="40.3760590" lon="-4.4474710">
        <ele>662.5</ele>
        <time>2019-08-13T14:56:46Z</time>
      </trkpt>
      <trkpt lat="40.3760760" lon="-4.4475010">
        <ele>662.7</ele>
        <time>2019-08-13T14:56:47Z</time>
      </trkpt>
      <trkpt lat="40.3760920" lon="-4.4475310">
        <ele>662.8</ele>
        <time>2019-08-13T14:56:48Z</time>
      </trkpt>
      <trkpt lat="40.3761070" lon="-4.4475620">
        <ele>663.0</ele>
        <time>2019-08-13T14:56:49Z</time>
      </trkpt>
      <trkpt lat="40.3761230" lon="-4.4475910">
        <ele>663.2</ele>
        <time>2019-08-13T14:56:50Z</time>
      </trkpt>
      <trkpt lat="40.3761520" lon="-4.4476460">
        <ele>663.5</ele>
        <time>2019-08-13T14:56:52Z</time>
      </trkpt>
      <trkpt lat="40.3761810" lon="-4.4476990">
        <ele>663.8</ele>
        <time>2019-08-13T14:56:54Z</time>
      </trkpt>
      <trkpt lat="40.3762090" lon="-4.4477520">
        <ele>664.3</ele>
        <time>2019-08-13T14:56:56Z</time>
      </trkpt>
      <trkpt lat="40.3762400" lon="-4.4478070">
        <ele>664.7</ele>
        <time>2019-08-13T14:56:58Z</time>
      </trkpt>
      <trkpt lat="40.3762710" lon="-4.4478620">
        <ele>665.2</ele>
        <time>2019-08-13T14:57:00Z</time>
      </trkpt>
      <trkpt lat="40.3763000" lon="-4.4479180">
        <ele>665.7</ele>
        <time>2019-08-13T14:57:02Z</time>
      </trkpt>
      <trkpt lat="40.3763290" lon="-4.4479730">
        <ele>666.1</ele>
        <time>2019-08-13T14:57:04Z</time>
      </trkpt>
      <trkpt lat="40.3763590" lon="-4.4480280">
        <ele>666.5</ele>
        <time>2019-08-13T14:57:06Z</time>
      </trkpt>
      <trkpt lat="40.3763890" lon="-4.4480840">
        <ele>666.8</ele>
        <time>2019-08-13T14:57:08Z</time>
      </trkpt>
      <trkpt lat="40.3764200" lon="-4.4481380">
        <ele>667.1</ele>
        <time>2019-08-13T14:57:10Z</time>
      </trkpt>
      <trkpt lat="40.3764500" lon="-4.4481940">
        <ele>667.5</ele>
        <time>2019-08-13T14:57:12Z</time>
      </trkpt>
      <trkpt lat="40.3764800" lon="-4.4482500">
        <ele>667.8</ele>
        <time>2019-08-13T14:57:14Z</time>
      </trkpt>
      <trkpt lat="40.3765090" lon="-4.4483030">
        <ele>668.2</ele>
        <time>2019-08-13T14:57:16Z</time>
      </trkpt>
      <trkpt lat="40.3765370" lon="-4.4483570">
        <ele>668.6</ele>
        <time>2019-08-13T14:57:18Z</time>
      </trkpt>
      <trkpt lat="40.3765660" lon="-4.4484090">
        <ele>669.0</ele>
        <time>2019-08-13T14:57:20Z</time>
      </trkpt>
      <trkpt lat="40.3765960" lon="-4.4484610">
        <ele>669.5</ele>
        <time>2019-08-13T14:57:22Z</time>
      </trkpt>
      <trkpt lat="40.3766250" lon="-4.4485130">
        <ele>669.9</ele>
        <time>2019-08-13T14:57:24Z</time>
      </trkpt>
      <trkpt lat="40.3766550" lon="-4.4485690">
        <ele>670.3</ele>
        <time>2019-08-13T14:57:26Z</time>
      </trkpt>
      <trkpt lat="40.3766860" lon="-4.4486220">
        <ele>670.6</ele>
        <time>2019-08-13T14:57:28Z</time>
      </trkpt>
      <trkpt lat="40.3767170" lon="-4.4486770">
        <ele>670.9</ele>
        <time>2019-08-13T14:57:30Z</time>
      </trkpt>
      <trkpt lat="40.3767490" lon="-4.4487300">
        <ele>671.3</ele>
        <time>2019-08-13T14:57:32Z</time>
      </trkpt>
      <trkpt lat="40.3767830" lon="-4.4487820">
        <ele>671.6</ele>
        <time>2019-08-13T14:57:34Z</time>
      </trkpt>
      <trkpt lat="40.3768160" lon="-4.4488350">
        <ele>672.1</ele>
        <time>2019-08-13T14:57:36Z</time>
      </trkpt>
      <trkpt lat="40.3768520" lon="-4.4488870">
        <ele>672.6</ele>
        <time>2019-08-13T14:57:38Z</time>
      </trkpt>
      <trkpt lat="40.3768880" lon="-4.4489380">
        <ele>673.1</ele>
        <time>2019-08-13T14:57:40Z</time>
      </trkpt>
      <trkpt lat="40.3769070" lon="-4.4489630">
        <ele>673.4</ele>
        <time>2019-08-13T14:57:41Z</time>
      </trkpt>
      <trkpt lat="40.3769260" lon="-4.4489890">
        <ele>673.6</ele>
        <time>2019-08-13T14:57:42Z</time>
      </trkpt>
      <trkpt lat="40.3769650" lon="-4.4490380">
        <ele>674.0</ele>
        <time>2019-08-13T14:57:44Z</time>
      </trkpt>
      <trkpt lat="40.3770040" lon="-4.4490850">
        <ele>674.4</ele>
        <time>2019-08-13T14:57:46Z</time>
      </trkpt>
      <trkpt lat="40.3770430" lon="-4.4491320">
        <ele>674.9</ele>
        <time>2019-08-13T14:57:48Z</time>
      </trkpt>
      <trkpt lat="40.3770830" lon="-4.4491790">
        <ele>675.3</ele>
        <time>2019-08-13T14:57:50Z</time>
      </trkpt>
      <trkpt lat="40.3771220" lon="-4.4492250">
        <ele>675.7</ele>
        <time>2019-08-13T14:57:52Z</time>
      </trkpt>
      <trkpt lat="40.3771620" lon="-4.4492690">
        <ele>676.1</ele>
        <time>2019-08-13T14:57:54Z</time>
      </trkpt>
      <trkpt lat="40.3772020" lon="-4.4493130">
        <ele>676.5</ele>
        <time>2019-08-13T14:57:56Z</time>
      </trkpt>
      <trkpt lat="40.3772410" lon="-4.4493550">
        <ele>676.9</ele>
        <time>2019-08-13T14:57:58Z</time>
      </trkpt>
      <trkpt lat="40.3772810" lon="-4.4493940">
        <ele>677.2</ele>
        <time>2019-08-13T14:58:00Z</time>
      </trkpt>
      <trkpt lat="40.3773210" lon="-4.4494300">
        <ele>677.6</ele>
        <time>2019-08-13T14:58:02Z</time>
      </trkpt>
      <trkpt lat="40.3773610" lon="-4.4494650">
        <ele>677.9</ele>
        <time>2019-08-13T14:58:04Z</time>
      </trkpt>
      <trkpt lat="40.3774010" lon="-4.4494990">
        <ele>678.3</ele>
        <time>2019-08-13T14:58:06Z</time>
      </trkpt>
      <trkpt lat="40.3774410" lon="-4.4495310">
        <ele>678.6</ele>
        <time>2019-08-13T14:58:08Z</time>
      </trkpt>
      <trkpt lat="40.3774810" lon="-4.4495620">
        <ele>679.0</ele>
        <time>2019-08-13T14:58:10Z</time>
      </trkpt>
      <trkpt lat="40.3775190" lon="-4.4495930">
        <ele>679.5</ele>
        <time>2019-08-13T14:58:12Z</time>
      </trkpt>
      <trkpt lat="40.3775570" lon="-4.4496240">
        <ele>680.0</ele>
        <time>2019-08-13T14:58:14Z</time>
      </trkpt>
      <trkpt lat="40.3775960" lon="-4.4496530">
        <ele>680.4</ele>
        <time>2019-08-13T14:58:16Z</time>
      </trkpt>
      <trkpt lat="40.3776360" lon="-4.4496790">
        <ele>680.7</ele>
        <time>2019-08-13T14:58:18Z</time>
      </trkpt>
      <trkpt lat="40.3776730" lon="-4.4497070">
        <ele>681.1</ele>
        <time>2019-08-13T14:58:20Z</time>
      </trkpt>
      <trkpt lat="40.3777130" lon="-4.4497320">
        <ele>681.4</ele>
        <time>2019-08-13T14:58:22Z</time>
      </trkpt>
      <trkpt lat="40.3777540" lon="-4.4497600">
        <ele>681.8</ele>
        <time>2019-08-13T14:58:24Z</time>
      </trkpt>
      <trkpt lat="40.3777950" lon="-4.4497870">
        <ele>682.2</ele>
        <time>2019-08-13T14:58:26Z</time>
      </trkpt>
      <trkpt lat="40.3778360" lon="-4.4498130">
        <ele>682.6</ele>
        <time>2019-08-13T14:58:28Z</time>
      </trkpt>
      <trkpt lat="40.3778770" lon="-4.4498400">
        <ele>683.0</ele>
        <time>2019-08-13T14:58:30Z</time>
      </trkpt>
      <trkpt lat="40.3779170" lon="-4.4498670">
        <ele>683.5</ele>
        <time>2019-08-13T14:58:32Z</time>
      </trkpt>
      <trkpt lat="40.3779550" lon="-4.4498940">
        <ele>683.9</ele>
        <time>2019-08-13T14:58:34Z</time>
      </trkpt>
      <trkpt lat="40.3779930" lon="-4.4499170">
        <ele>684.3</ele>
        <time>2019-08-13T14:58:36Z</time>
      </trkpt>
      <trkpt lat="40.3780310" lon="-4.4499410">
        <ele>684.7</ele>
        <time>2019-08-13T14:58:38Z</time>
      </trkpt>
      <trkpt lat="40.3780680" lon="-4.4499680">
        <ele>685.2</ele>
        <time>2019-08-13T14:58:40Z</time>
      </trkpt>
      <trkpt lat="40.3781050" lon="-4.4499930">
        <ele>685.8</ele>
        <time>2019-08-13T14:58:42Z</time>
      </trkpt>
      <trkpt lat="40.3781440" lon="-4.4500150">
        <ele>686.4</ele>
        <time>2019-08-13T14:58:44Z</time>
      </trkpt>
      <trkpt lat="40.3781830" lon="-4.4500410">
        <ele>686.9</ele>
        <time>2019-08-13T14:58:46Z</time>
      </trkpt>
      <trkpt lat="40.3782220" lon="-4.4500670">
        <ele>687.4</ele>
        <time>2019-08-13T14:58:48Z</time>
      </trkpt>
      <trkpt lat="40.3782590" lon="-4.4500940">
        <ele>687.8</ele>
        <time>2019-08-13T14:58:50Z</time>
      </trkpt>
      <trkpt lat="40.3782960" lon="-4.4501190">
        <ele>688.2</ele>
        <time>2019-08-13T14:58:52Z</time>
      </trkpt>
      <trkpt lat="40.3783320" lon="-4.4501420">
        <ele>688.6</ele>
        <time>2019-08-13T14:58:54Z</time>
      </trkpt>
      <trkpt lat="40.3783660" lon="-4.4501700">
        <ele>689.1</ele>
        <time>2019-08-13T14:58:56Z</time>
      </trkpt>
      <trkpt lat="40.3784010" lon="-4.4501950">
        <ele>689.5</ele>
        <time>2019-08-13T14:58:58Z</time>
      </trkpt>
      <trkpt lat="40.3784370" lon="-4.4502180">
        <ele>690.0</ele>
        <time>2019-08-13T14:59:00Z</time>
      </trkpt>
      <trkpt lat="40.3784720" lon="-4.4502430">
        <ele>690.6</ele>
        <time>2019-08-13T14:59:02Z</time>
      </trkpt>
      <trkpt lat="40.3785060" lon="-4.4502720">
        <ele>691.1</ele>
        <time>2019-08-13T14:59:04Z</time>
      </trkpt>
      <trkpt lat="40.3785400" lon="-4.4502990">
        <ele>691.4</ele>
        <time>2019-08-13T14:59:06Z</time>
      </trkpt>
      <trkpt lat="40.3785770" lon="-4.4503230">
        <ele>691.7</ele>
        <time>2019-08-13T14:59:08Z</time>
      </trkpt>
      <trkpt lat="40.3786110" lon="-4.4503510">
        <ele>692.0</ele>
        <time>2019-08-13T14:59:10Z</time>
      </trkpt>
      <trkpt lat="40.3786440" lon="-4.4503790">
        <ele>692.3</ele>
        <time>2019-08-13T14:59:12Z</time>
      </trkpt>
      <trkpt lat="40.3786780" lon="-4.4504040">
        <ele>692.6</ele>
        <time>2019-08-13T14:59:14Z</time>
      </trkpt>
      <trkpt lat="40.3787120" lon="-4.4504320">
        <ele>692.9</ele>
        <time>2019-08-13T14:59:16Z</time>
      </trkpt>
      <trkpt lat="40.3787460" lon="-4.4504600">
        <ele>693.2</ele>
        <time>2019-08-13T14:59:18Z</time>
      </trkpt>
      <trkpt lat="40.3787790" lon="-4.4504880">
        <ele>693.5</ele>
        <time>2019-08-13T14:59:20Z</time>
      </trkpt>
      <trkpt lat="40.3788110" lon="-4.4505150">
        <ele>693.7</ele>
        <time>2019-08-13T14:59:22Z</time>
      </trkpt>
      <trkpt lat="40.3788420" lon="-4.4505450">
        <ele>693.9</ele>
        <time>2019-08-13T14:59:24Z</time>
      </trkpt>
      <trkpt lat="40.3788750" lon="-4.4505740">
        <ele>694.2</ele>
        <time>2019-08-13T14:59:26Z</time>
      </trkpt>
      <trkpt lat="40.3789080" lon="-4.4506030">
        <ele>694.4</ele>
        <time>2019-08-13T14:59:28Z</time>
      </trkpt>
      <trkpt lat="40.3789410" lon="-4.4506310">
        <ele>694.6</ele>
        <time>2019-08-13T14:59:30Z</time>
      </trkpt>
      <trkpt lat="40.3789740" lon="-4.4506600">
        <ele>694.8</ele>
        <time>2019-08-13T14:59:32Z</time>
      </trkpt>
      <trkpt lat="40.3790060" lon="-4.4506920">
        <ele>695.0</ele>
        <time>2019-08-13T14:59:34Z</time>
      </trkpt>
      <trkpt lat="40.3790390" lon="-4.4507240">
        <ele>695.2</ele>
        <time>2019-08-13T14:59:36Z</time>
      </trkpt>
      <trkpt lat="40.3790710" lon="-4.4507540">
        <ele>695.4</ele>
        <time>2019-08-13T14:59:38Z</time>
      </trkpt>
      <trkpt lat="40.3791020" lon="-4.4507860">
        <ele>695.6</ele>
        <time>2019-08-13T14:59:40Z</time>
      </trkpt>
      <trkpt lat="40.3791340" lon="-4.4508190">
        <ele>695.8</ele>
        <time>2019-08-13T14:59:42Z</time>
      </trkpt>
      <trkpt lat="40.3791670" lon="-4.4508500">
        <ele>695.9</ele>
        <time>2019-08-13T14:59:44Z</time>
      </trkpt>
      <trkpt lat="40.3792000" lon="-4.4508830">
        <ele>696.1</ele>
        <time>2019-08-13T14:59:46Z</time>
      </trkpt>
      <trkpt lat="40.3792330" lon="-4.4509170">
        <ele>696.3</ele>
        <time>2019-08-13T14:59:48Z</time>
      </trkpt>
      <trkpt lat="40.3792650" lon="-4.4509520">
        <ele>696.4</ele>
        <time>2019-08-13T14:59:50Z</time>
      </trkpt>
      <trkpt lat="40.3793010" lon="-4.4509880">
        <ele>696.6</ele>
        <time>2019-08-13T14:59:52Z</time>
      </trkpt>
      <trkpt lat="40.3793370" lon="-4.4510240">
        <ele>696.8</ele>
        <time>2019-08-13T14:59:54Z</time>
      </trkpt>
      <trkpt lat="40.3793700" lon="-4.4510620">
        <ele>697.1</ele>
        <time>2019-08-13T14:59:56Z</time>
      </trkpt>
      <trkpt lat="40.3794060" lon="-4.4511010">
        <ele>697.7</ele>
        <time>2019-08-13T14:59:58Z</time>
      </trkpt>
      <trkpt lat="40.3794440" lon="-4.4511410">
        <ele>698.1</ele>
        <time>2019-08-13T15:00:00Z</time>
      </trkpt>
      <trkpt lat="40.3794830" lon="-4.4511840">
        <ele>698.5</ele>
        <time>2019-08-13T15:00:02Z</time>
      </trkpt>
      <trkpt lat="40.3795220" lon="-4.4512250">
        <ele>698.8</ele>
        <time>2019-08-13T15:00:04Z</time>
      </trkpt>
      <trkpt lat="40.3795620" lon="-4.4512680">
        <ele>699.1</ele>
        <time>2019-08-13T15:00:06Z</time>
      </trkpt>
      <trkpt lat="40.3796000" lon="-4.4513100">
        <ele>699.4</ele>
        <time>2019-08-13T15:00:08Z</time>
      </trkpt>
      <trkpt lat="40.3796380" lon="-4.4513540">
        <ele>699.7</ele>
        <time>2019-08-13T15:00:10Z</time>
      </trkpt>
      <trkpt lat="40.3796770" lon="-4.4513950">
        <ele>700.1</ele>
        <time>2019-08-13T15:00:12Z</time>
      </trkpt>
      <trkpt lat="40.3797170" lon="-4.4514370">
        <ele>700.5</ele>
        <time>2019-08-13T15:00:14Z</time>
      </trkpt>
      <trkpt lat="40.3797560" lon="-4.4514800">
        <ele>701.0</ele>
        <time>2019-08-13T15:00:16Z</time>
      </trkpt>
      <trkpt lat="40.3797960" lon="-4.4515230">
        <ele>701.4</ele>
        <time>2019-08-13T15:00:18Z</time>
      </trkpt>
      <trkpt lat="40.3798350" lon="-4.4515680">
        <ele>701.9</ele>
        <time>2019-08-13T15:00:20Z</time>
      </trkpt>
      <trkpt lat="40.3798730" lon="-4.4516120">
        <ele>702.3</ele>
        <time>2019-08-13T15:00:22Z</time>
      </trkpt>
      <trkpt lat="40.3799090" lon="-4.4516520">
        <ele>702.7</ele>
        <time>2019-08-13T15:00:24Z</time>
      </trkpt>
      <trkpt lat="40.3799490" lon="-4.4516950">
        <ele>703.1</ele>
        <time>2019-08-13T15:00:26Z</time>
      </trkpt>
      <trkpt lat="40.3799890" lon="-4.4517390">
        <ele>703.5</ele>
        <time>2019-08-13T15:00:28Z</time>
      </trkpt>
      <trkpt lat="40.3800280" lon="-4.4517810">
        <ele>703.9</ele>
        <time>2019-08-13T15:00:30Z</time>
      </trkpt>
      <trkpt lat="40.3800680" lon="-4.4518240">
        <ele>704.3</ele>
        <time>2019-08-13T15:00:32Z</time>
      </trkpt>
      <trkpt lat="40.3801080" lon="-4.4518700">
        <ele>704.7</ele>
        <time>2019-08-13T15:00:34Z</time>
      </trkpt>
      <trkpt lat="40.3801490" lon="-4.4519140">
        <ele>705.1</ele>
        <time>2019-08-13T15:00:36Z</time>
      </trkpt>
      <trkpt lat="40.3801890" lon="-4.4519600">
        <ele>705.4</ele>
        <time>2019-08-13T15:00:38Z</time>
      </trkpt>
      <trkpt lat="40.3802300" lon="-4.4520050">
        <ele>705.7</ele>
        <time>2019-08-13T15:00:40Z</time>
      </trkpt>
      <trkpt lat="40.3802700" lon="-4.4520510">
        <ele>705.9</ele>
        <time>2019-08-13T15:00:42Z</time>
      </trkpt>
      <trkpt lat="40.3803110" lon="-4.4520980">
        <ele>706.0</ele>
        <time>2019-08-13T15:00:44Z</time>
      </trkpt>
      <trkpt lat="40.3803320" lon="-4.4521200">
        <ele>706.1</ele>
        <time>2019-08-13T15:00:45Z</time>
      </trkpt>
      <trkpt lat="40.3803520" lon="-4.4521430">
        <ele>706.2</ele>
        <time>2019-08-13T15:00:46Z</time>
      </trkpt>
      <trkpt lat="40.3803730" lon="-4.4521660">
        <ele>706.3</ele>
        <time>2019-08-13T15:00:47Z</time>
      </trkpt>
      <trkpt lat="40.3803950" lon="-4.4521880">
        <ele>706.3</ele>
        <time>2019-08-13T15:00:48Z</time>
      </trkpt>
      <trkpt lat="40.3804170" lon="-4.4522100">
        <ele>706.4</ele>
        <time>2019-08-13T15:00:49Z</time>
      </trkpt>
      <trkpt lat="40.3804390" lon="-4.4522330">
        <ele>706.5</ele>
        <time>2019-08-13T15:00:50Z</time>
      </trkpt>
      <trkpt lat="40.3804610" lon="-4.4522560">
        <ele>706.6</ele>
        <time>2019-08-13T15:00:51Z</time>
      </trkpt>
      <trkpt lat="40.3804820" lon="-4.4522790">
        <ele>706.7</ele>
        <time>2019-08-13T15:00:52Z</time>
      </trkpt>
      <trkpt lat="40.3805030" lon="-4.4523010">
        <ele>706.7</ele>
        <time>2019-08-13T15:00:53Z</time>
      </trkpt>
      <trkpt lat="40.3805250" lon="-4.4523240">
        <ele>706.8</ele>
        <time>2019-08-13T15:00:54Z</time>
      </trkpt>
      <trkpt lat="40.3805470" lon="-4.4523460">
        <ele>706.9</ele>
        <time>2019-08-13T15:00:55Z</time>
      </trkpt>
      <trkpt lat="40.3805700" lon="-4.4523670">
        <ele>707.0</ele>
        <time>2019-08-13T15:00:56Z</time>
      </trkpt>
      <trkpt lat="40.3805930" lon="-4.4523880">
        <ele>707.1</ele>
        <time>2019-08-13T15:00:57Z</time>
      </trkpt>
      <trkpt lat="40.3806170" lon="-4.4524100">
        <ele>707.2</ele>
        <time>2019-08-13T15:00:58Z</time>
      </trkpt>
      <trkpt lat="40.3806400" lon="-4.4524310">
        <ele>707.3</ele>
        <time>2019-08-13T15:00:59Z</time>
      </trkpt>
      <trkpt lat="40.3806640" lon="-4.4524510">
        <ele>707.4</ele>
        <time>2019-08-13T15:01:00Z</time>
      </trkpt>
      <trkpt lat="40.3806880" lon="-4.4524720">
        <ele>707.4</ele>
        <time>2019-08-13T15:01:01Z</time>
      </trkpt>
      <trkpt lat="40.3807130" lon="-4.4524910">
        <ele>707.5</ele>
        <time>2019-08-13T15:01:02Z</time>
      </trkpt>
      <trkpt lat="40.3807380" lon="-4.4525100">
        <ele>707.6</ele>
        <time>2019-08-13T15:01:03Z</time>
      </trkpt>
      <trkpt lat="40.3807630" lon="-4.4525290">
        <ele>707.7</ele>
        <time>2019-08-13T15:01:04Z</time>
      </trkpt>
      <trkpt lat="40.3807880" lon="-4.4525470">
        <ele>707.7</ele>
        <time>2019-08-13T15:01:05Z</time>
      </trkpt>
      <trkpt lat="40.3808140" lon="-4.4525640">
        <ele>707.8</ele>
        <time>2019-08-13T15:01:06Z</time>
      </trkpt>
      <trkpt lat="40.3808380" lon="-4.4525810">
        <ele>707.9</ele>
        <time>2019-08-13T15:01:07Z</time>
      </trkpt>
      <trkpt lat="40.3808840" lon="-4.4526110">
        <ele>708.0</ele>
        <time>2019-08-13T15:01:09Z</time>
      </trkpt>
      <trkpt lat="40.3809320" lon="-4.4526390">
        <ele>708.2</ele>
        <time>2019-08-13T15:01:11Z</time>
      </trkpt>
      <trkpt lat="40.3809820" lon="-4.4526650">
        <ele>708.4</ele>
        <time>2019-08-13T15:01:13Z</time>
      </trkpt>
      <trkpt lat="40.3810080" lon="-4.4526770">
        <ele>708.6</ele>
        <time>2019-08-13T15:01:14Z</time>
      </trkpt>
      <trkpt lat="40.3810330" lon="-4.4526900">
        <ele>708.7</ele>
        <time>2019-08-13T15:01:15Z</time>
      </trkpt>
      <trkpt lat="40.3810590" lon="-4.4527020">
        <ele>708.8</ele>
        <time>2019-08-13T15:01:16Z</time>
      </trkpt>
      <trkpt lat="40.3810850" lon="-4.4527140">
        <ele>708.9</ele>
        <time>2019-08-13T15:01:17Z</time>
      </trkpt>
      <trkpt lat="40.3811130" lon="-4.4527260">
        <ele>708.9</ele>
        <time>2019-08-13T15:01:18Z</time>
      </trkpt>
      <trkpt lat="40.3811410" lon="-4.4527370">
        <ele>709.0</ele>
        <time>2019-08-13T15:01:19Z</time>
      </trkpt>
      <trkpt lat="40.3811720" lon="-4.4527460">
        <ele>709.1</ele>
        <time>2019-08-13T15:01:20Z</time>
      </trkpt>
      <trkpt lat="40.3812030" lon="-4.4527540">
        <ele>709.2</ele>
        <time>2019-08-13T15:01:21Z</time>
      </trkpt>
      <trkpt lat="40.3812320" lon="-4.4527610">
        <ele>709.3</ele>
        <time>2019-08-13T15:01:22Z</time>
      </trkpt>
      <trkpt lat="40.3812600" lon="-4.4527700">
        <ele>709.4</ele>
        <time>2019-08-13T15:01:23Z</time>
      </trkpt>
      <trkpt lat="40.3812880" lon="-4.4527770">
        <ele>709.5</ele>
        <time>2019-08-13T15:01:24Z</time>
      </trkpt>
      <trkpt lat="40.3813170" lon="-4.4527820">
        <ele>709.5</ele>
        <time>2019-08-13T15:01:25Z</time>
      </trkpt>
      <trkpt lat="40.3813460" lon="-4.4527880">
        <ele>709.6</ele>
        <time>2019-08-13T15:01:26Z</time>
      </trkpt>
      <trkpt lat="40.3813740" lon="-4.4527940">
        <ele>709.7</ele>
        <time>2019-08-13T15:01:27Z</time>
      </trkpt>
      <trkpt lat="40.3814020" lon="-4.4527990">
        <ele>709.8</ele>
        <time>2019-08-13T15:01:28Z</time>
      </trkpt>
      <trkpt lat="40.3814310" lon="-4.4528020">
        <ele>709.9</ele>
        <time>2019-08-13T15:01:29Z</time>
      </trkpt>
      <trkpt lat="40.3814590" lon="-4.4528030">
        <ele>709.9</ele>
        <time>2019-08-13T15:01:30Z</time>
      </trkpt>
      <trkpt lat="40.3814870" lon="-4.4528040">
        <ele>710.0</ele>
        <time>2019-08-13T15:01:31Z</time>
      </trkpt>
      <trkpt lat="40.3815140" lon="-4.4528060">
        <ele>710.1</ele>
        <time>2019-08-13T15:01:32Z</time>
      </trkpt>
      <trkpt lat="40.3815420" lon="-4.4528070">
        <ele>710.2</ele>
        <time>2019-08-13T15:01:33Z</time>
      </trkpt>
      <trkpt lat="40.3815700" lon="-4.4528080">
        <ele>710.3</ele>
        <time>2019-08-13T15:01:34Z</time>
      </trkpt>
      <trkpt lat="40.3816240" lon="-4.4528090">
        <ele>710.4</ele>
        <time>2019-08-13T15:01:36Z</time>
      </trkpt>
      <trkpt lat="40.3816510" lon="-4.4528100">
        <ele>710.5</ele>
        <time>2019-08-13T15:01:37Z</time>
      </trkpt>
      <trkpt lat="40.3816790" lon="-4.4528090">
        <ele>710.6</ele>
        <time>2019-08-13T15:01:38Z</time>
      </trkpt>
      <trkpt lat="40.3817310" lon="-4.4528060">
        <ele>710.7</ele>
        <time>2019-08-13T15:01:40Z</time>
      </trkpt>
      <trkpt lat="40.3817830" lon="-4.4527990">
        <ele>710.8</ele>
        <time>2019-08-13T15:01:42Z</time>
      </trkpt>
      <trkpt lat="40.3818340" lon="-4.4527930">
        <ele>710.9</ele>
        <time>2019-08-13T15:01:44Z</time>
      </trkpt>
      <trkpt lat="40.3818850" lon="-4.4527860">
        <ele>711.0</ele>
        <time>2019-08-13T15:01:46Z</time>
      </trkpt>
      <trkpt lat="40.3819360" lon="-4.4527770">
        <ele>711.2</ele>
        <time>2019-08-13T15:01:48Z</time>
      </trkpt>
      <trkpt lat="40.3819850" lon="-4.4527660">
        <ele>711.3</ele>
        <time>2019-08-13T15:01:50Z</time>
      </trkpt>
      <trkpt lat="40.3820340" lon="-4.4527570">
        <ele>711.5</ele>
        <time>2019-08-13T15:01:52Z</time>
      </trkpt>
      <trkpt lat="40.3820860" lon="-4.4527460">
        <ele>711.8</ele>
        <time>2019-08-13T15:01:54Z</time>
      </trkpt>
      <trkpt lat="40.3821390" lon="-4.4527360">
        <ele>712.1</ele>
        <time>2019-08-13T15:01:56Z</time>
      </trkpt>
      <trkpt lat="40.3821910" lon="-4.4527270">
        <ele>712.4</ele>
        <time>2019-08-13T15:01:58Z</time>
      </trkpt>
      <trkpt lat="40.3822420" lon="-4.4527200">
        <ele>712.7</ele>
        <time>2019-08-13T15:02:00Z</time>
      </trkpt>
      <trkpt lat="40.3822930" lon="-4.4527140">
        <ele>713.0</ele>
        <time>2019-08-13T15:02:02Z</time>
      </trkpt>
      <trkpt lat="40.3823420" lon="-4.4527060">
        <ele>713.2</ele>
        <time>2019-08-13T15:02:04Z</time>
      </trkpt>
      <trkpt lat="40.3823950" lon="-4.4526950">
        <ele>713.5</ele>
        <time>2019-08-13T15:02:06Z</time>
      </trkpt>
      <trkpt lat="40.3824470" lon="-4.4526880">
        <ele>713.8</ele>
        <time>2019-08-13T15:02:08Z</time>
      </trkpt>
      <trkpt lat="40.3824990" lon="-4.4526820">
        <ele>714.1</ele>
        <time>2019-08-13T15:02:10Z</time>
      </trkpt>
      <trkpt lat="40.3825500" lon="-4.4526780">
        <ele>714.2</ele>
        <time>2019-08-13T15:02:12Z</time>
      </trkpt>
      <trkpt lat="40.3826020" lon="-4.4526760">
        <ele>714.4</ele>
        <time>2019-08-13T15:02:14Z</time>
      </trkpt>
      <trkpt lat="40.3826290" lon="-4.4526740">
        <ele>714.5</ele>
        <time>2019-08-13T15:02:15Z</time>
      </trkpt>
      <trkpt lat="40.3826560" lon="-4.4526730">
        <ele>714.5</ele>
        <time>2019-08-13T15:02:16Z</time>
      </trkpt>
      <trkpt lat="40.3826840" lon="-4.4526730">
        <ele>714.6</ele>
        <time>2019-08-13T15:02:17Z</time>
      </trkpt>
      <trkpt lat="40.3827110" lon="-4.4526730">
        <ele>714.7</ele>
        <time>2019-08-13T15:02:18Z</time>
      </trkpt>
      <trkpt lat="40.3827650" lon="-4.4526740">
        <ele>714.8</ele>
        <time>2019-08-13T15:02:20Z</time>
      </trkpt>
      <trkpt lat="40.3828170" lon="-4.4526780">
        <ele>715.2</ele>
        <time>2019-08-13T15:02:22Z</time>
      </trkpt>
      <trkpt lat="40.3828680" lon="-4.4526830">
        <ele>715.5</ele>
        <time>2019-08-13T15:02:24Z</time>
      </trkpt>
      <trkpt lat="40.3829200" lon="-4.4526880">
        <ele>715.8</ele>
        <time>2019-08-13T15:02:26Z</time>
      </trkpt>
      <trkpt lat="40.3829730" lon="-4.4526930">
        <ele>716.2</ele>
        <time>2019-08-13T15:02:28Z</time>
      </trkpt>
      <trkpt lat="40.3830250" lon="-4.4527040">
        <ele>716.5</ele>
        <time>2019-08-13T15:02:30Z</time>
      </trkpt>
      <trkpt lat="40.3830790" lon="-4.4527170">
        <ele>716.8</ele>
        <time>2019-08-13T15:02:32Z</time>
      </trkpt>
      <trkpt lat="40.3831050" lon="-4.4527250">
        <ele>717.0</ele>
        <time>2019-08-13T15:02:33Z</time>
      </trkpt>
      <trkpt lat="40.3831320" lon="-4.4527340">
        <ele>717.1</ele>
        <time>2019-08-13T15:02:34Z</time>
      </trkpt>
      <trkpt lat="40.3831590" lon="-4.4527440">
        <ele>717.3</ele>
        <time>2019-08-13T15:02:35Z</time>
      </trkpt>
      <trkpt lat="40.3831870" lon="-4.4527530">
        <ele>717.5</ele>
        <time>2019-08-13T15:02:36Z</time>
      </trkpt>
      <trkpt lat="40.3832380" lon="-4.4527650">
        <ele>717.8</ele>
        <time>2019-08-13T15:02:38Z</time>
      </trkpt>
      <trkpt lat="40.3832890" lon="-4.4527860">
        <ele>718.1</ele>
        <time>2019-08-13T15:02:40Z</time>
      </trkpt>
      <trkpt lat="40.3833360" lon="-4.4528150">
        <ele>719.3</ele>
        <time>2019-08-13T15:02:42Z</time>
      </trkpt>
      <trkpt lat="40.3833840" lon="-4.4528430">
        <ele>719.9</ele>
        <time>2019-08-13T15:02:44Z</time>
      </trkpt>
      <trkpt lat="40.3834330" lon="-4.4528700">
        <ele>720.4</ele>
        <time>2019-08-13T15:02:46Z</time>
      </trkpt>
      <trkpt lat="40.3834820" lon="-4.4529000">
        <ele>720.9</ele>
        <time>2019-08-13T15:02:48Z</time>
      </trkpt>
      <trkpt lat="40.3835070" lon="-4.4529160">
        <ele>721.2</ele>
        <time>2019-08-13T15:02:49Z</time>
      </trkpt>
      <trkpt lat="40.3835320" lon="-4.4529310">
        <ele>721.5</ele>
        <time>2019-08-13T15:02:50Z</time>
      </trkpt>
      <trkpt lat="40.3835560" lon="-4.4529460">
        <ele>721.8</ele>
        <time>2019-08-13T15:02:51Z</time>
      </trkpt>
      <trkpt lat="40.3835810" lon="-4.4529610">
        <ele>722.1</ele>
        <time>2019-08-13T15:02:52Z</time>
      </trkpt>
      <trkpt lat="40.3836270" lon="-4.4529900">
        <ele>722.7</ele>
        <time>2019-08-13T15:02:54Z</time>
      </trkpt>
      <trkpt lat="40.3836750" lon="-4.4530210">
        <ele>723.8</ele>
        <time>2019-08-13T15:02:56Z</time>
      </trkpt>
      <trkpt lat="40.3837000" lon="-4.4530380">
        <ele>723.8</ele>
        <time>2019-08-13T15:02:57Z</time>
      </trkpt>
      <trkpt lat="40.3837250" lon="-4.4530550">
        <ele>723.9</ele>
        <time>2019-08-13T15:02:58Z</time>
      </trkpt>
      <trkpt lat="40.3837500" lon="-4.4530720">
        <ele>724.0</ele>
        <time>2019-08-13T15:02:59Z</time>
      </trkpt>
      <trkpt lat="40.3837750" lon="-4.4530900">
        <ele>724.0</ele>
        <time>2019-08-13T15:03:00Z</time>
      </trkpt>
      <trkpt lat="40.3838000" lon="-4.4531070">
        <ele>724.1</ele>
        <time>2019-08-13T15:03:01Z</time>
      </trkpt>
      <trkpt lat="40.3838250" lon="-4.4531250">
        <ele>724.2</ele>
        <time>2019-08-13T15:03:02Z</time>
      </trkpt>
      <trkpt lat="40.3838500" lon="-4.4531430">
        <ele>724.3</ele>
        <time>2019-08-13T15:03:03Z</time>
      </trkpt>
      <trkpt lat="40.3838740" lon="-4.4531610">
        <ele>724.3</ele>
        <time>2019-08-13T15:03:04Z</time>
      </trkpt>
      <trkpt lat="40.3839000" lon="-4.4531790">
        <ele>724.4</ele>
        <time>2019-08-13T15:03:05Z</time>
      </trkpt>
      <trkpt lat="40.3839260" lon="-4.4531970">
        <ele>724.4</ele>
        <time>2019-08-13T15:03:06Z</time>
      </trkpt>
      <trkpt lat="40.3839540" lon="-4.4532170">
        <ele>724.5</ele>
        <time>2019-08-13T15:03:07Z</time>
      </trkpt>
      <trkpt lat="40.3839840" lon="-4.4532370">
        <ele>724.6</ele>
        <time>2019-08-13T15:03:08Z</time>
      </trkpt>
      <trkpt lat="40.3840160" lon="-4.4532590">
        <ele>724.6</ele>
        <time>2019-08-13T15:03:09Z</time>
      </trkpt>
      <trkpt lat="40.3840480" lon="-4.4532810">
        <ele>724.7</ele>
        <time>2019-08-13T15:03:10Z</time>
      </trkpt>
      <trkpt lat="40.3840790" lon="-4.4533040">
        <ele>724.8</ele>
        <time>2019-08-13T15:03:11Z</time>
      </trkpt>
      <trkpt lat="40.3841090" lon="-4.4533270">
        <ele>724.8</ele>
        <time>2019-08-13T15:03:12Z</time>
      </trkpt>
      <trkpt lat="40.3841390" lon="-4.4533500">
        <ele>725.0</ele>
        <time>2019-08-13T15:03:13Z</time>
      </trkpt>
      <trkpt lat="40.3841690" lon="-4.4533720">
        <ele>725.1</ele>
        <time>2019-08-13T15:03:14Z</time>
      </trkpt>
      <trkpt lat="40.3841980" lon="-4.4533940">
        <ele>725.2</ele>
        <time>2019-08-13T15:03:15Z</time>
      </trkpt>
      <trkpt lat="40.3842260" lon="-4.4534160">
        <ele>725.3</ele>
        <time>2019-08-13T15:03:16Z</time>
      </trkpt>
      <trkpt lat="40.3842560" lon="-4.4534380">
        <ele>725.5</ele>
        <time>2019-08-13T15:03:17Z</time>
      </trkpt>
      <trkpt lat="40.3842840" lon="-4.4534610">
        <ele>725.6</ele>
        <time>2019-08-13T15:03:18Z</time>
      </trkpt>
      <trkpt lat="40.3843120" lon="-4.4534840">
        <ele>725.7</ele>
        <time>2019-08-13T15:03:19Z</time>
      </trkpt>
      <trkpt lat="40.3843390" lon="-4.4535060">
        <ele>725.8</ele>
        <time>2019-08-13T15:03:20Z</time>
      </trkpt>
      <trkpt lat="40.3843650" lon="-4.4535270">
        <ele>726.0</ele>
        <time>2019-08-13T15:03:21Z</time>
      </trkpt>
      <trkpt lat="40.3843910" lon="-4.4535470">
        <ele>726.1</ele>
        <time>2019-08-13T15:03:22Z</time>
      </trkpt>
      <trkpt lat="40.3844150" lon="-4.4535680">
        <ele>726.1</ele>
        <time>2019-08-13T15:03:23Z</time>
      </trkpt>
      <trkpt lat="40.3844400" lon="-4.4535890">
        <ele>726.2</ele>
        <time>2019-08-13T15:03:24Z</time>
      </trkpt>
      <trkpt lat="40.3844640" lon="-4.4536120">
        <ele>726.3</ele>
        <time>2019-08-13T15:03:25Z</time>
      </trkpt>
      <trkpt lat="40.3844870" lon="-4.4536350">
        <ele>726.3</ele>
        <time>2019-08-13T15:03:26Z</time>
      </trkpt>
      <trkpt lat="40.3845100" lon="-4.4536570">
        <ele>726.4</ele>
        <time>2019-08-13T15:03:27Z</time>
      </trkpt>
      <trkpt lat="40.3845340" lon="-4.4536820">
        <ele>726.4</ele>
        <time>2019-08-13T15:03:28Z</time>
      </trkpt>
      <trkpt lat="40.3845570" lon="-4.4537060">
        <ele>726.5</ele>
        <time>2019-08-13T15:03:29Z</time>
      </trkpt>
      <trkpt lat="40.3845790" lon="-4.4537330">
        <ele>726.6</ele>
        <time>2019-08-13T15:03:30Z</time>
      </trkpt>
      <trkpt lat="40.3846020" lon="-4.4537620">
        <ele>726.6</ele>
        <time>2019-08-13T15:03:31Z</time>
      </trkpt>
      <trkpt lat="40.3846270" lon="-4.4537920">
        <ele>726.7</ele>
        <time>2019-08-13T15:03:32Z</time>
      </trkpt>
      <trkpt lat="40.3846510" lon="-4.4538200">
        <ele>726.8</ele>
        <time>2019-08-13T15:03:33Z</time>
      </trkpt>
      <trkpt lat="40.3846720" lon="-4.4538480">
        <ele>726.8</ele>
        <time>2019-08-13T15:03:34Z</time>
      </trkpt>
      <trkpt lat="40.3846920" lon="-4.4538770">
        <ele>726.9</ele>
        <time>2019-08-13T15:03:35Z</time>
      </trkpt>
      <trkpt lat="40.3847130" lon="-4.4539060">
        <ele>726.9</ele>
        <time>2019-08-13T15:03:36Z</time>
      </trkpt>
      <trkpt lat="40.3847330" lon="-4.4539350">
        <ele>727.0</ele>
        <time>2019-08-13T15:03:37Z</time>
      </trkpt>
      <trkpt lat="40.3847510" lon="-4.4539650">
        <ele>727.0</ele>
        <time>2019-08-13T15:03:38Z</time>
      </trkpt>
      <trkpt lat="40.3847700" lon="-4.4539970">
        <ele>727.1</ele>
        <time>2019-08-13T15:03:39Z</time>
      </trkpt>
      <trkpt lat="40.3847900" lon="-4.4540300">
        <ele>727.2</ele>
        <time>2019-08-13T15:03:40Z</time>
      </trkpt>
      <trkpt lat="40.3848080" lon="-4.4540630">
        <ele>727.2</ele>
        <time>2019-08-13T15:03:41Z</time>
      </trkpt>
      <trkpt lat="40.3848260" lon="-4.4540970">
        <ele>727.2</ele>
        <time>2019-08-13T15:03:42Z</time>
      </trkpt>
      <trkpt lat="40.3848430" lon="-4.4541290">
        <ele>727.3</ele>
        <time>2019-08-13T15:03:43Z</time>
      </trkpt>
      <trkpt lat="40.3848590" lon="-4.4541620">
        <ele>727.3</ele>
        <time>2019-08-13T15:03:44Z</time>
      </trkpt>
      <trkpt lat="40.3848760" lon="-4.4541960">
        <ele>727.3</ele>
        <time>2019-08-13T15:03:45Z</time>
      </trkpt>
      <trkpt lat="40.3848920" lon="-4.4542300">
        <ele>727.3</ele>
        <time>2019-08-13T15:03:46Z</time>
      </trkpt>
      <trkpt lat="40.3849080" lon="-4.4542630">
        <ele>727.4</ele>
        <time>2019-08-13T15:03:47Z</time>
      </trkpt>
      <trkpt lat="40.3849230" lon="-4.4542960">
        <ele>727.4</ele>
        <time>2019-08-13T15:03:48Z</time>
      </trkpt>
      <trkpt lat="40.3849370" lon="-4.4543300">
        <ele>727.5</ele>
        <time>2019-08-13T15:03:49Z</time>
      </trkpt>
      <trkpt lat="40.3849500" lon="-4.4543640">
        <ele>727.5</ele>
        <time>2019-08-13T15:03:50Z</time>
      </trkpt>
      <trkpt lat="40.3849640" lon="-4.4543980">
        <ele>727.6</ele>
        <time>2019-08-13T15:03:51Z</time>
      </trkpt>
      <trkpt lat="40.3849770" lon="-4.4544330">
        <ele>727.7</ele>
        <time>2019-08-13T15:03:52Z</time>
      </trkpt>
      <trkpt lat="40.3849900" lon="-4.4544680">
        <ele>727.7</ele>
        <time>2019-08-13T15:03:53Z</time>
      </trkpt>
      <trkpt lat="40.3850020" lon="-4.4545030">
        <ele>727.8</ele>
        <time>2019-08-13T15:03:54Z</time>
      </trkpt>
      <trkpt lat="40.3850130" lon="-4.4545400">
        <ele>727.9</ele>
        <time>2019-08-13T15:03:55Z</time>
      </trkpt>
      <trkpt lat="40.3850240" lon="-4.4545780">
        <ele>728.1</ele>
        <time>2019-08-13T15:03:56Z</time>
      </trkpt>
      <trkpt lat="40.3850350" lon="-4.4546170">
        <ele>728.1</ele>
        <time>2019-08-13T15:03:57Z</time>
      </trkpt>
      <trkpt lat="40.3850450" lon="-4.4546570">
        <ele>728.2</ele>
        <time>2019-08-13T15:03:58Z</time>
      </trkpt>
      <trkpt lat="40.3850530" lon="-4.4546960">
        <ele>728.3</ele>
        <time>2019-08-13T15:03:59Z</time>
      </trkpt>
      <trkpt lat="40.3850600" lon="-4.4547340">
        <ele>728.4</ele>
        <time>2019-08-13T15:04:00Z</time>
      </trkpt>
      <trkpt lat="40.3850670" lon="-4.4547720">
        <ele>728.5</ele>
        <time>2019-08-13T15:04:01Z</time>
      </trkpt>
      <trkpt lat="40.3850740" lon="-4.4548110">
        <ele>728.6</ele>
        <time>2019-08-13T15:04:02Z</time>
      </trkpt>
      <trkpt lat="40.3850810" lon="-4.4548500">
        <ele>728.7</ele>
        <time>2019-08-13T15:04:03Z</time>
      </trkpt>
      <trkpt lat="40.3850890" lon="-4.4548900">
        <ele>728.8</ele>
        <time>2019-08-13T15:04:04Z</time>
      </trkpt>
      <trkpt lat="40.3850970" lon="-4.4549300">
        <ele>729.0</ele>
        <time>2019-08-13T15:04:05Z</time>
      </trkpt>
      <trkpt lat="40.3851030" lon="-4.4549720">
        <ele>729.1</ele>
        <time>2019-08-13T15:04:06Z</time>
      </trkpt>
      <trkpt lat="40.3851080" lon="-4.4550140">
        <ele>729.3</ele>
        <time>2019-08-13T15:04:07Z</time>
      </trkpt>
      <trkpt lat="40.3851120" lon="-4.4550580">
        <ele>729.4</ele>
        <time>2019-08-13T15:04:08Z</time>
      </trkpt>
      <trkpt lat="40.3851170" lon="-4.4551030">
        <ele>729.6</ele>
        <time>2019-08-13T15:04:09Z</time>
      </trkpt>
      <trkpt lat="40.3851220" lon="-4.4551490">
        <ele>729.8</ele>
        <time>2019-08-13T15:04:10Z</time>
      </trkpt>
      <trkpt lat="40.3851280" lon="-4.4551970">
        <ele>730.0</ele>
        <time>2019-08-13T15:04:11Z</time>
      </trkpt>
      <trkpt lat="40.3851340" lon="-4.4552440">
        <ele>730.1</ele>
        <time>2019-08-13T15:04:12Z</time>
      </trkpt>
      <trkpt lat="40.3851400" lon="-4.4552920">
        <ele>730.4</ele>
        <time>2019-08-13T15:04:13Z</time>
      </trkpt>
      <trkpt lat="40.3851450" lon="-4.4553400">
        <ele>730.7</ele>
        <time>2019-08-13T15:04:14Z</time>
      </trkpt>
      <trkpt lat="40.3851480" lon="-4.4553860">
        <ele>730.9</ele>
        <time>2019-08-13T15:04:15Z</time>
      </trkpt>
      <trkpt lat="40.3851520" lon="-4.4554300">
        <ele>731.0</ele>
        <time>2019-08-13T15:04:16Z</time>
      </trkpt>
      <trkpt lat="40.3851550" lon="-4.4554740">
        <ele>731.2</ele>
        <time>2019-08-13T15:04:17Z</time>
      </trkpt>
      <trkpt lat="40.3851580" lon="-4.4555170">
        <ele>731.3</ele>
        <time>2019-08-13T15:04:18Z</time>
      </trkpt>
      <trkpt lat="40.3851600" lon="-4.4555610">
        <ele>731.5</ele>
        <time>2019-08-13T15:04:19Z</time>
      </trkpt>
      <trkpt lat="40.3851620" lon="-4.4556040">
        <ele>731.7</ele>
        <time>2019-08-13T15:04:20Z</time>
      </trkpt>
      <trkpt lat="40.3851650" lon="-4.4556480">
        <ele>731.9</ele>
        <time>2019-08-13T15:04:21Z</time>
      </trkpt>
      <trkpt lat="40.3851680" lon="-4.4556910">
        <ele>732.0</ele>
        <time>2019-08-13T15:04:22Z</time>
      </trkpt>
      <trkpt lat="40.3851720" lon="-4.4557340">
        <ele>732.2</ele>
        <time>2019-08-13T15:04:23Z</time>
      </trkpt>
      <trkpt lat="40.3851760" lon="-4.4557780">
        <ele>732.4</ele>
        <time>2019-08-13T15:04:24Z</time>
      </trkpt>
      <trkpt lat="40.3851800" lon="-4.4558240">
        <ele>732.5</ele>
        <time>2019-08-13T15:04:25Z</time>
      </trkpt>
      <trkpt lat="40.3851840" lon="-4.4558700">
        <ele>732.7</ele>
        <time>2019-08-13T15:04:26Z</time>
      </trkpt>
      <trkpt lat="40.3851880" lon="-4.4559160">
        <ele>732.9</ele>
        <time>2019-08-13T15:04:27Z</time>
      </trkpt>
      <trkpt lat="40.3851920" lon="-4.4559620">
        <ele>733.0</ele>
        <time>2019-08-13T15:04:28Z</time>
      </trkpt>
      <trkpt lat="40.3851970" lon="-4.4560070">
        <ele>733.1</ele>
        <time>2019-08-13T15:04:29Z</time>
      </trkpt>
      <trkpt lat="40.3852020" lon="-4.4560500">
        <ele>733.2</ele>
        <time>2019-08-13T15:04:30Z</time>
      </trkpt>
      <trkpt lat="40.3852060" lon="-4.4560950">
        <ele>733.3</ele>
        <time>2019-08-13T15:04:31Z</time>
      </trkpt>
      <trkpt lat="40.3852100" lon="-4.4561390">
        <ele>733.4</ele>
        <time>2019-08-13T15:04:32Z</time>
      </trkpt>
      <trkpt lat="40.3852150" lon="-4.4561820">
        <ele>733.5</ele>
        <time>2019-08-13T15:04:33Z</time>
      </trkpt>
      <trkpt lat="40.3852190" lon="-4.4562270">
        <ele>733.6</ele>
        <time>2019-08-13T15:04:34Z</time>
      </trkpt>
      <trkpt lat="40.3852240" lon="-4.4562710">
        <ele>733.7</ele>
        <time>2019-08-13T15:04:35Z</time>
      </trkpt>
      <trkpt lat="40.3852300" lon="-4.4563160">
        <ele>733.9</ele>
        <time>2019-08-13T15:04:36Z</time>
      </trkpt>
      <trkpt lat="40.3852360" lon="-4.4563610">
        <ele>734.0</ele>
        <time>2019-08-13T15:04:37Z</time>
      </trkpt>
      <trkpt lat="40.3852410" lon="-4.4564060">
        <ele>734.1</ele>
        <time>2019-08-13T15:04:38Z</time>
      </trkpt>
      <trkpt lat="40.3852460" lon="-4.4564500">
        <ele>734.2</ele>
        <time>2019-08-13T15:04:39Z</time>
      </trkpt>
      <trkpt lat="40.3852510" lon="-4.4564930">
        <ele>734.3</ele>
        <time>2019-08-13T15:04:40Z</time>
      </trkpt>
      <trkpt lat="40.3852560" lon="-4.4565370">
        <ele>734.4</ele>
        <time>2019-08-13T15:04:41Z</time>
      </trkpt>
      <trkpt lat="40.3852610" lon="-4.4565810">
        <ele>734.5</ele>
        <time>2019-08-13T15:04:42Z</time>
      </trkpt>
      <trkpt lat="40.3852660" lon="-4.4566240">
        <ele>734.7</ele>
        <time>2019-08-13T15:04:43Z</time>
      </trkpt>
      <trkpt lat="40.3852720" lon="-4.4566670">
        <ele>734.8</ele>
        <time>2019-08-13T15:04:44Z</time>
      </trkpt>
      <trkpt lat="40.3852770" lon="-4.4567100">
        <ele>734.9</ele>
        <time>2019-08-13T15:04:45Z</time>
      </trkpt>
      <trkpt lat="40.3852830" lon="-4.4567530">
        <ele>735.0</ele>
        <time>2019-08-13T15:04:46Z</time>
      </trkpt>
      <trkpt lat="40.3852890" lon="-4.4567960">
        <ele>735.1</ele>
        <time>2019-08-13T15:04:47Z</time>
      </trkpt>
      <trkpt lat="40.3852940" lon="-4.4568390">
        <ele>735.2</ele>
        <time>2019-08-13T15:04:48Z</time>
      </trkpt>
      <trkpt lat="40.3853010" lon="-4.4568830">
        <ele>735.3</ele>
        <time>2019-08-13T15:04:49Z</time>
      </trkpt>
      <trkpt lat="40.3853060" lon="-4.4569260">
        <ele>735.4</ele>
        <time>2019-08-13T15:04:50Z</time>
      </trkpt>
      <trkpt lat="40.3853120" lon="-4.4569700">
        <ele>735.5</ele>
        <time>2019-08-13T15:04:51Z</time>
      </trkpt>
      <trkpt lat="40.3853170" lon="-4.4570130">
        <ele>735.6</ele>
        <time>2019-08-13T15:04:52Z</time>
      </trkpt>
      <trkpt lat="40.3853240" lon="-4.4570550">
        <ele>735.6</ele>
        <time>2019-08-13T15:04:53Z</time>
      </trkpt>
      <trkpt lat="40.3853300" lon="-4.4570970">
        <ele>735.7</ele>
        <time>2019-08-13T15:04:54Z</time>
      </trkpt>
      <trkpt lat="40.3853370" lon="-4.4571390">
        <ele>735.8</ele>
        <time>2019-08-13T15:04:55Z</time>
      </trkpt>
      <trkpt lat="40.3853440" lon="-4.4571810">
        <ele>735.8</ele>
        <time>2019-08-13T15:04:56Z</time>
      </trkpt>
      <trkpt lat="40.3853500" lon="-4.4572230">
        <ele>735.9</ele>
        <time>2019-08-13T15:04:57Z</time>
      </trkpt>
      <trkpt lat="40.3853550" lon="-4.4572640">
        <ele>735.9</ele>
        <time>2019-08-13T15:04:58Z</time>
      </trkpt>
      <trkpt lat="40.3853610" lon="-4.4573050">
        <ele>735.9</ele>
        <time>2019-08-13T15:04:59Z</time>
      </trkpt>
      <trkpt lat="40.3853670" lon="-4.4573450">
        <ele>736.0</ele>
        <time>2019-08-13T15:05:00Z</time>
      </trkpt>
      <trkpt lat="40.3853740" lon="-4.4573850">
        <ele>736.0</ele>
        <time>2019-08-13T15:05:01Z</time>
      </trkpt>
      <trkpt lat="40.3853800" lon="-4.4574250">
        <ele>736.0</ele>
        <time>2019-08-13T15:05:02Z</time>
      </trkpt>
      <trkpt lat="40.3853860" lon="-4.4574650">
        <ele>736.0</ele>
        <time>2019-08-13T15:05:03Z</time>
      </trkpt>
      <trkpt lat="40.3853920" lon="-4.4575040">
        <ele>736.0</ele>
        <time>2019-08-13T15:05:04Z</time>
      </trkpt>
      <trkpt lat="40.3853990" lon="-4.4575430">
        <ele>736.1</ele>
        <time>2019-08-13T15:05:05Z</time>
      </trkpt>
      <trkpt lat="40.3854050" lon="-4.4575830">
        <ele>736.1</ele>
        <time>2019-08-13T15:05:06Z</time>
      </trkpt>
      <trkpt lat="40.3854120" lon="-4.4576220">
        <ele>736.1</ele>
        <time>2019-08-13T15:05:07Z</time>
      </trkpt>
      <trkpt lat="40.3854190" lon="-4.4576590">
        <ele>736.1</ele>
        <time>2019-08-13T15:05:08Z</time>
      </trkpt>
      <trkpt lat="40.3854240" lon="-4.4576960">
        <ele>736.2</ele>
        <time>2019-08-13T15:05:09Z</time>
      </trkpt>
      <trkpt lat="40.3854290" lon="-4.4577360">
        <ele>736.2</ele>
        <time>2019-08-13T15:05:10Z</time>
      </trkpt>
      <trkpt lat="40.3854340" lon="-4.4577760">
        <ele>736.3</ele>
        <time>2019-08-13T15:05:11Z</time>
      </trkpt>
      <trkpt lat="40.3854400" lon="-4.4578160">
        <ele>736.3</ele>
        <time>2019-08-13T15:05:12Z</time>
      </trkpt>
      <trkpt lat="40.3854470" lon="-4.4578560">
        <ele>736.4</ele>
        <time>2019-08-13T15:05:13Z</time>
      </trkpt>
      <trkpt lat="40.3854540" lon="-4.4578970">
        <ele>736.4</ele>
        <time>2019-08-13T15:05:14Z</time>
      </trkpt>
      <trkpt lat="40.3854600" lon="-4.4579390">
        <ele>736.5</ele>
        <time>2019-08-13T15:05:15Z</time>
      </trkpt>
      <trkpt lat="40.3854670" lon="-4.4579820">
        <ele>736.5</ele>
        <time>2019-08-13T15:05:16Z</time>
      </trkpt>
      <trkpt lat="40.3854750" lon="-4.4580250">
        <ele>736.6</ele>
        <time>2019-08-13T15:05:17Z</time>
      </trkpt>
      <trkpt lat="40.3854830" lon="-4.4580660">
        <ele>736.7</ele>
        <time>2019-08-13T15:05:18Z</time>
      </trkpt>
      <trkpt lat="40.3854910" lon="-4.4581090">
        <ele>736.7</ele>
        <time>2019-08-13T15:05:19Z</time>
      </trkpt>
      <trkpt lat="40.3854970" lon="-4.4581520">
        <ele>736.7</ele>
        <time>2019-08-13T15:05:20Z</time>
      </trkpt>
      <trkpt lat="40.3855040" lon="-4.4581960">
        <ele>736.8</ele>
        <time>2019-08-13T15:05:21Z</time>
      </trkpt>
      <trkpt lat="40.3855110" lon="-4.4582400">
        <ele>736.8</ele>
        <time>2019-08-13T15:05:22Z</time>
      </trkpt>
      <trkpt lat="40.3855190" lon="-4.4582860">
        <ele>736.8</ele>
        <time>2019-08-13T15:05:23Z</time>
      </trkpt>
      <trkpt lat="40.3855270" lon="-4.4583330">
        <ele>736.9</ele>
        <time>2019-08-13T15:05:24Z</time>
      </trkpt>
      <trkpt lat="40.3855350" lon="-4.4583790">
        <ele>736.9</ele>
        <time>2019-08-13T15:05:25Z</time>
      </trkpt>
      <trkpt lat="40.3855430" lon="-4.4584250">
        <ele>736.9</ele>
        <time>2019-08-13T15:05:26Z</time>
      </trkpt>
      <trkpt lat="40.3855510" lon="-4.4584730">
        <ele>736.9</ele>
        <time>2019-08-13T15:05:27Z</time>
      </trkpt>
      <trkpt lat="40.3855580" lon="-4.4585200">
        <ele>736.9</ele>
        <time>2019-08-13T15:05:28Z</time>
      </trkpt>
      <trkpt lat="40.3855660" lon="-4.4585640">
        <ele>736.9</ele>
        <time>2019-08-13T15:05:29Z</time>
      </trkpt>
      <trkpt lat="40.3855730" lon="-4.4586080">
        <ele>736.9</ele>
        <time>2019-08-13T15:05:30Z</time>
      </trkpt>
      <trkpt lat="40.3855810" lon="-4.4586520">
        <ele>736.9</ele>
        <time>2019-08-13T15:05:31Z</time>
      </trkpt>
      <trkpt lat="40.3855900" lon="-4.4586990">
        <ele>736.9</ele>
        <time>2019-08-13T15:05:32Z</time>
      </trkpt>
      <trkpt lat="40.3855990" lon="-4.4587470">
        <ele>736.9</ele>
        <time>2019-08-13T15:05:33Z</time>
      </trkpt>
      <trkpt lat="40.3856080" lon="-4.4587960">
        <ele>736.9</ele>
        <time>2019-08-13T15:05:34Z</time>
      </trkpt>
      <trkpt lat="40.3856170" lon="-4.4588460">
        <ele>736.9</ele>
        <time>2019-08-13T15:05:35Z</time>
      </trkpt>
      <trkpt lat="40.3856260" lon="-4.4588990">
        <ele>736.9</ele>
        <time>2019-08-13T15:05:36Z</time>
      </trkpt>
      <trkpt lat="40.3856350" lon="-4.4589520">
        <ele>736.9</ele>
        <time>2019-08-13T15:05:37Z</time>
      </trkpt>
      <trkpt lat="40.3856430" lon="-4.4590040">
        <ele>736.9</ele>
        <time>2019-08-13T15:05:38Z</time>
      </trkpt>
      <trkpt lat="40.3856520" lon="-4.4590540">
        <ele>736.9</ele>
        <time>2019-08-13T15:05:39Z</time>
      </trkpt>
      <trkpt lat="40.3856610" lon="-4.4591040">
        <ele>736.9</ele>
        <time>2019-08-13T15:05:40Z</time>
      </trkpt>
      <trkpt lat="40.3856680" lon="-4.4591550">
        <ele>736.9</ele>
        <time>2019-08-13T15:05:41Z</time>
      </trkpt>
      <trkpt lat="40.3856770" lon="-4.4592090">
        <ele>737.0</ele>
        <time>2019-08-13T15:05:42Z</time>
      </trkpt>
      <trkpt lat="40.3856870" lon="-4.4592640">
        <ele>737.0</ele>
        <time>2019-08-13T15:05:43Z</time>
      </trkpt>
      <trkpt lat="40.3856950" lon="-4.4593200">
        <ele>737.1</ele>
        <time>2019-08-13T15:05:44Z</time>
      </trkpt>
      <trkpt lat="40.3857050" lon="-4.4593760">
        <ele>737.2</ele>
        <time>2019-08-13T15:05:45Z</time>
      </trkpt>
      <trkpt lat="40.3857140" lon="-4.4594320">
        <ele>737.3</ele>
        <time>2019-08-13T15:05:46Z</time>
      </trkpt>
      <trkpt lat="40.3857230" lon="-4.4594890">
        <ele>737.4</ele>
        <time>2019-08-13T15:05:47Z</time>
      </trkpt>
      <trkpt lat="40.3857320" lon="-4.4595440">
        <ele>737.6</ele>
        <time>2019-08-13T15:05:48Z</time>
      </trkpt>
      <trkpt lat="40.3857420" lon="-4.4596000">
        <ele>737.8</ele>
        <time>2019-08-13T15:05:49Z</time>
      </trkpt>
      <trkpt lat="40.3857520" lon="-4.4596560">
        <ele>738.0</ele>
        <time>2019-08-13T15:05:50Z</time>
      </trkpt>
      <trkpt lat="40.3857630" lon="-4.4597140">
        <ele>738.3</ele>
        <time>2019-08-13T15:05:51Z</time>
      </trkpt>
      <trkpt lat="40.3857740" lon="-4.4597710">
        <ele>738.5</ele>
        <time>2019-08-13T15:05:52Z</time>
      </trkpt>
      <trkpt lat="40.3857850" lon="-4.4598280">
        <ele>738.8</ele>
        <time>2019-08-13T15:05:53Z</time>
      </trkpt>
      <trkpt lat="40.3857950" lon="-4.4598850">
        <ele>739.1</ele>
        <time>2019-08-13T15:05:54Z</time>
      </trkpt>
      <trkpt lat="40.3858060" lon="-4.4599420">
        <ele>739.4</ele>
        <time>2019-08-13T15:05:55Z</time>
      </trkpt>
      <trkpt lat="40.3858180" lon="-4.4599990">
        <ele>739.7</ele>
        <time>2019-08-13T15:05:56Z</time>
      </trkpt>
      <trkpt lat="40.3858290" lon="-4.4600560">
        <ele>740.1</ele>
        <time>2019-08-13T15:05:57Z</time>
      </trkpt>
      <trkpt lat="40.3858410" lon="-4.4601100">
        <ele>740.3</ele>
        <time>2019-08-13T15:05:58Z</time>
      </trkpt>
      <trkpt lat="40.3858530" lon="-4.4601630">
        <ele>740.4</ele>
        <time>2019-08-13T15:05:59Z</time>
      </trkpt>
      <trkpt lat="40.3858650" lon="-4.4602120">
        <ele>740.6</ele>
        <time>2019-08-13T15:06:00Z</time>
      </trkpt>
      <trkpt lat="40.3858770" lon="-4.4602590">
        <ele>740.8</ele>
        <time>2019-08-13T15:06:01Z</time>
      </trkpt>
      <trkpt lat="40.3858890" lon="-4.4603050">
        <ele>741.2</ele>
        <time>2019-08-13T15:06:02Z</time>
      </trkpt>
      <trkpt lat="40.3859040" lon="-4.4603470">
        <ele>741.4</ele>
        <time>2019-08-13T15:06:03Z</time>
      </trkpt>
      <trkpt lat="40.3859170" lon="-4.4603880">
        <ele>741.7</ele>
        <time>2019-08-13T15:06:04Z</time>
      </trkpt>
      <trkpt lat="40.3859310" lon="-4.4604270">
        <ele>741.9</ele>
        <time>2019-08-13T15:06:05Z</time>
      </trkpt>
      <trkpt lat="40.3859430" lon="-4.4604640">
        <ele>742.1</ele>
        <time>2019-08-13T15:06:06Z</time>
      </trkpt>
      <trkpt lat="40.3859560" lon="-4.4605010">
        <ele>742.3</ele>
        <time>2019-08-13T15:06:07Z</time>
      </trkpt>
      <trkpt lat="40.3859700" lon="-4.4605360">
        <ele>742.5</ele>
        <time>2019-08-13T15:06:08Z</time>
      </trkpt>
      <trkpt lat="40.3859840" lon="-4.4605680">
        <ele>742.7</ele>
        <time>2019-08-13T15:06:09Z</time>
      </trkpt>
      <trkpt lat="40.3859980" lon="-4.4606010">
        <ele>742.9</ele>
        <time>2019-08-13T15:06:10Z</time>
      </trkpt>
      <trkpt lat="40.3860110" lon="-4.4606340">
        <ele>743.1</ele>
        <time>2019-08-13T15:06:11Z</time>
      </trkpt>
      <trkpt lat="40.3860260" lon="-4.4606650">
        <ele>743.4</ele>
        <time>2019-08-13T15:06:12Z</time>
      </trkpt>
      <trkpt lat="40.3860400" lon="-4.4606960">
        <ele>743.6</ele>
        <time>2019-08-13T15:06:13Z</time>
      </trkpt>
      <trkpt lat="40.3860530" lon="-4.4607260">
        <ele>743.9</ele>
        <time>2019-08-13T15:06:14Z</time>
      </trkpt>
      <trkpt lat="40.3860670" lon="-4.4607570">
        <ele>744.2</ele>
        <time>2019-08-13T15:06:15Z</time>
      </trkpt>
      <trkpt lat="40.3860820" lon="-4.4607870">
        <ele>744.4</ele>
        <time>2019-08-13T15:06:16Z</time>
      </trkpt>
      <trkpt lat="40.3860980" lon="-4.4608160">
        <ele>744.7</ele>
        <time>2019-08-13T15:06:17Z</time>
      </trkpt>
      <trkpt lat="40.3861150" lon="-4.4608460">
        <ele>745.0</ele>
        <time>2019-08-13T15:06:18Z</time>
      </trkpt>
      <trkpt lat="40.3861310" lon="-4.4608770">
        <ele>745.3</ele>
        <time>2019-08-13T15:06:19Z</time>
      </trkpt>
      <trkpt lat="40.3861490" lon="-4.4609080">
        <ele>745.6</ele>
        <time>2019-08-13T15:06:20Z</time>
      </trkpt>
      <trkpt lat="40.3861670" lon="-4.4609370">
        <ele>745.8</ele>
        <time>2019-08-13T15:06:21Z</time>
      </trkpt>
      <trkpt lat="40.3861850" lon="-4.4609660">
        <ele>746.0</ele>
        <time>2019-08-13T15:06:22Z</time>
      </trkpt>
      <trkpt lat="40.3862050" lon="-4.4609950">
        <ele>746.2</ele>
        <time>2019-08-13T15:06:23Z</time>
      </trkpt>
      <trkpt lat="40.3862250" lon="-4.4610240">
        <ele>746.5</ele>
        <time>2019-08-13T15:06:24Z</time>
      </trkpt>
      <trkpt lat="40.3862460" lon="-4.4610530">
        <ele>746.7</ele>
        <time>2019-08-13T15:06:25Z</time>
      </trkpt>
      <trkpt lat="40.3862670" lon="-4.4610820">
        <ele>746.9</ele>
        <time>2019-08-13T15:06:26Z</time>
      </trkpt>
      <trkpt lat="40.3862880" lon="-4.4611090">
        <ele>747.1</ele>
        <time>2019-08-13T15:06:27Z</time>
      </trkpt>
      <trkpt lat="40.3863090" lon="-4.4611370">
        <ele>747.3</ele>
        <time>2019-08-13T15:06:28Z</time>
      </trkpt>
      <trkpt lat="40.3863310" lon="-4.4611640">
        <ele>747.5</ele>
        <time>2019-08-13T15:06:29Z</time>
      </trkpt>
      <trkpt lat="40.3863520" lon="-4.4611900">
        <ele>747.7</ele>
        <time>2019-08-13T15:06:30Z</time>
      </trkpt>
      <trkpt lat="40.3863730" lon="-4.4612150">
        <ele>747.9</ele>
        <time>2019-08-13T15:06:31Z</time>
      </trkpt>
      <trkpt lat="40.3863940" lon="-4.4612400">
        <ele>748.1</ele>
        <time>2019-08-13T15:06:32Z</time>
      </trkpt>
      <trkpt lat="40.3864160" lon="-4.4612640">
        <ele>748.3</ele>
        <time>2019-08-13T15:06:33Z</time>
      </trkpt>
      <trkpt lat="40.3864380" lon="-4.4612870">
        <ele>748.5</ele>
        <time>2019-08-13T15:06:34Z</time>
      </trkpt>
      <trkpt lat="40.3864600" lon="-4.4613100">
        <ele>748.7</ele>
        <time>2019-08-13T15:06:35Z</time>
      </trkpt>
      <trkpt lat="40.3864820" lon="-4.4613320">
        <ele>748.9</ele>
        <time>2019-08-13T15:06:36Z</time>
      </trkpt>
      <trkpt lat="40.3865040" lon="-4.4613530">
        <ele>749.0</ele>
        <time>2019-08-13T15:06:37Z</time>
      </trkpt>
      <trkpt lat="40.3865270" lon="-4.4613730">
        <ele>749.2</ele>
        <time>2019-08-13T15:06:38Z</time>
      </trkpt>
      <trkpt lat="40.3865500" lon="-4.4613940">
        <ele>749.4</ele>
        <time>2019-08-13T15:06:39Z</time>
      </trkpt>
      <trkpt lat="40.3865720" lon="-4.4614130">
        <ele>749.6</ele>
        <time>2019-08-13T15:06:40Z</time>
      </trkpt>
      <trkpt lat="40.3865950" lon="-4.4614320">
        <ele>749.8</ele>
        <time>2019-08-13T15:06:41Z</time>
      </trkpt>
      <trkpt lat="40.3866190" lon="-4.4614500">
        <ele>750.0</ele>
        <time>2019-08-13T15:06:42Z</time>
      </trkpt>
      <trkpt lat="40.3866420" lon="-4.4614690">
        <ele>750.2</ele>
        <time>2019-08-13T15:06:43Z</time>
      </trkpt>
      <trkpt lat="40.3866880" lon="-4.4615030">
        <ele>750.6</ele>
        <time>2019-08-13T15:06:45Z</time>
      </trkpt>
      <trkpt lat="40.3867320" lon="-4.4615350">
        <ele>750.9</ele>
        <time>2019-08-13T15:06:47Z</time>
      </trkpt>
      <trkpt lat="40.3867770" lon="-4.4615650">
        <ele>751.3</ele>
        <time>2019-08-13T15:06:49Z</time>
      </trkpt>
      <trkpt lat="40.3868210" lon="-4.4615910">
        <ele>751.7</ele>
        <time>2019-08-13T15:06:51Z</time>
      </trkpt>
      <trkpt lat="40.3868660" lon="-4.4616160">
        <ele>752.2</ele>
        <time>2019-08-13T15:06:53Z</time>
      </trkpt>
      <trkpt lat="40.3869090" lon="-4.4616390">
        <ele>752.7</ele>
        <time>2019-08-13T15:06:55Z</time>
      </trkpt>
      <trkpt lat="40.3869530" lon="-4.4616630">
        <ele>753.1</ele>
        <time>2019-08-13T15:06:57Z</time>
      </trkpt>
      <trkpt lat="40.3869970" lon="-4.4616840">
        <ele>753.6</ele>
        <time>2019-08-13T15:06:59Z</time>
      </trkpt>
      <trkpt lat="40.3870410" lon="-4.4617050">
        <ele>754.0</ele>
        <time>2019-08-13T15:07:01Z</time>
      </trkpt>
      <trkpt lat="40.3870840" lon="-4.4617250">
        <ele>754.5</ele>
        <time>2019-08-13T15:07:03Z</time>
      </trkpt>
      <trkpt lat="40.3871270" lon="-4.4617450">
        <ele>754.9</ele>
        <time>2019-08-13T15:07:05Z</time>
      </trkpt>
      <trkpt lat="40.3871690" lon="-4.4617650">
        <ele>755.3</ele>
        <time>2019-08-13T15:07:07Z</time>
      </trkpt>
      <trkpt lat="40.3872130" lon="-4.4617850">
        <ele>755.6</ele>
        <time>2019-08-13T15:07:09Z</time>
      </trkpt>
      <trkpt lat="40.3872560" lon="-4.4618060">
        <ele>755.9</ele>
        <time>2019-08-13T15:07:11Z</time>
      </trkpt>
      <trkpt lat="40.3873000" lon="-4.4618260">
        <ele>756.2</ele>
        <time>2019-08-13T15:07:13Z</time>
      </trkpt>
      <trkpt lat="40.3873430" lon="-4.4618430">
        <ele>756.5</ele>
        <time>2019-08-13T15:07:15Z</time>
      </trkpt>
      <trkpt lat="40.3873870" lon="-4.4618620">
        <ele>756.8</ele>
        <time>2019-08-13T15:07:17Z</time>
      </trkpt>
      <trkpt lat="40.3874290" lon="-4.4618840">
        <ele>757.1</ele>
        <time>2019-08-13T15:07:19Z</time>
      </trkpt>
      <trkpt lat="40.3874720" lon="-4.4619040">
        <ele>757.4</ele>
        <time>2019-08-13T15:07:21Z</time>
      </trkpt>
      <trkpt lat="40.3875150" lon="-4.4619250">
        <ele>757.7</ele>
        <time>2019-08-13T15:07:23Z</time>
      </trkpt>
      <trkpt lat="40.3875580" lon="-4.4619450">
        <ele>758.0</ele>
        <time>2019-08-13T15:07:25Z</time>
      </trkpt>
      <trkpt lat="40.3876020" lon="-4.4619640">
        <ele>758.3</ele>
        <time>2019-08-13T15:07:27Z</time>
      </trkpt>
      <trkpt lat="40.3876450" lon="-4.4619870">
        <ele>758.6</ele>
        <time>2019-08-13T15:07:29Z</time>
      </trkpt>
      <trkpt lat="40.3876890" lon="-4.4620080">
        <ele>758.8</ele>
        <time>2019-08-13T15:07:31Z</time>
      </trkpt>
      <trkpt lat="40.3877330" lon="-4.4620300">
        <ele>759.1</ele>
        <time>2019-08-13T15:07:33Z</time>
      </trkpt>
      <trkpt lat="40.3877790" lon="-4.4620550">
        <ele>759.4</ele>
        <time>2019-08-13T15:07:35Z</time>
      </trkpt>
      <trkpt lat="40.3878250" lon="-4.4620790">
        <ele>759.7</ele>
        <time>2019-08-13T15:07:37Z</time>
      </trkpt>
      <trkpt lat="40.3878690" lon="-4.4621030">
        <ele>760.0</ele>
        <time>2019-08-13T15:07:39Z</time>
      </trkpt>
      <trkpt lat="40.3879150" lon="-4.4621270">
        <ele>760.2</ele>
        <time>2019-08-13T15:07:41Z</time>
      </trkpt>
      <trkpt lat="40.3879610" lon="-4.4621510">
        <ele>760.5</ele>
        <time>2019-08-13T15:07:43Z</time>
      </trkpt>
      <trkpt lat="40.3880060" lon="-4.4621780">
        <ele>760.7</ele>
        <time>2019-08-13T15:07:45Z</time>
      </trkpt>
      <trkpt lat="40.3880520" lon="-4.4622050">
        <ele>760.9</ele>
        <time>2019-08-13T15:07:47Z</time>
      </trkpt>
      <trkpt lat="40.3880980" lon="-4.4622320">
        <ele>761.1</ele>
        <time>2019-08-13T15:07:49Z</time>
      </trkpt>
      <trkpt lat="40.3881440" lon="-4.4622600">
        <ele>761.4</ele>
        <time>2019-08-13T15:07:51Z</time>
      </trkpt>
      <trkpt lat="40.3881890" lon="-4.4622870">
        <ele>761.6</ele>
        <time>2019-08-13T15:07:53Z</time>
      </trkpt>
      <trkpt lat="40.3882290" lon="-4.4623130">
        <ele>761.8</ele>
        <time>2019-08-13T15:07:55Z</time>
      </trkpt>
      <trkpt lat="40.3882600" lon="-4.4623360">
        <ele>762.0</ele>
        <time>2019-08-13T15:07:57Z</time>
      </trkpt>
      <trkpt lat="40.3882920" lon="-4.4623680">
        <ele>762.1</ele>
        <time>2019-08-13T15:07:59Z</time>
      </trkpt>
      <trkpt lat="40.3883360" lon="-4.4623880">
        <ele>762.3</ele>
        <time>2019-08-13T15:08:01Z</time>
      </trkpt>
      <trkpt lat="40.3883780" lon="-4.4624100">
        <ele>762.4</ele>
        <time>2019-08-13T15:08:03Z</time>
      </trkpt>
      <trkpt lat="40.3884170" lon="-4.4624380">
        <ele>762.5</ele>
        <time>2019-08-13T15:08:05Z</time>
      </trkpt>
      <trkpt lat="40.3884560" lon="-4.4624640">
        <ele>762.6</ele>
        <time>2019-08-13T15:08:07Z</time>
      </trkpt>
      <trkpt lat="40.3884940" lon="-4.4624900">
        <ele>762.7</ele>
        <time>2019-08-13T15:08:09Z</time>
      </trkpt>
      <trkpt lat="40.3885320" lon="-4.4625170">
        <ele>762.8</ele>
        <time>2019-08-13T15:08:11Z</time>
      </trkpt>
      <trkpt lat="40.3885710" lon="-4.4625450">
        <ele>762.8</ele>
        <time>2019-08-13T15:08:13Z</time>
      </trkpt>
      <trkpt lat="40.3886120" lon="-4.4625710">
        <ele>762.8</ele>
        <time>2019-08-13T15:08:15Z</time>
      </trkpt>
      <trkpt lat="40.3886530" lon="-4.4626000">
        <ele>762.9</ele>
        <time>2019-08-13T15:08:17Z</time>
      </trkpt>
      <trkpt lat="40.3886930" lon="-4.4626280">
        <ele>763.2</ele>
        <time>2019-08-13T15:08:19Z</time>
      </trkpt>
      <trkpt lat="40.3887350" lon="-4.4626550">
        <ele>763.4</ele>
        <time>2019-08-13T15:08:21Z</time>
      </trkpt>
      <trkpt lat="40.3887750" lon="-4.4626830">
        <ele>763.6</ele>
        <time>2019-08-13T15:08:23Z</time>
      </trkpt>
      <trkpt lat="40.3888160" lon="-4.4627130">
        <ele>763.9</ele>
        <time>2019-08-13T15:08:25Z</time>
      </trkpt>
      <trkpt lat="40.3888570" lon="-4.4627430">
        <ele>764.1</ele>
        <time>2019-08-13T15:08:27Z</time>
      </trkpt>
      <trkpt lat="40.3888990" lon="-4.4627740">
        <ele>764.4</ele>
        <time>2019-08-13T15:08:29Z</time>
      </trkpt>
      <trkpt lat="40.3889410" lon="-4.4628070">
        <ele>764.6</ele>
        <time>2019-08-13T15:08:31Z</time>
      </trkpt>
      <trkpt lat="40.3889860" lon="-4.4628430">
        <ele>764.9</ele>
        <time>2019-08-13T15:08:33Z</time>
      </trkpt>
      <trkpt lat="40.3890290" lon="-4.4628780">
        <ele>765.2</ele>
        <time>2019-08-13T15:08:35Z</time>
      </trkpt>
      <trkpt lat="40.3890710" lon="-4.4629150">
        <ele>765.4</ele>
        <time>2019-08-13T15:08:37Z</time>
      </trkpt>
      <trkpt lat="40.3891140" lon="-4.4629520">
        <ele>765.7</ele>
        <time>2019-08-13T15:08:39Z</time>
      </trkpt>
      <trkpt lat="40.3891570" lon="-4.4629910">
        <ele>765.9</ele>
        <time>2019-08-13T15:08:41Z</time>
      </trkpt>
      <trkpt lat="40.3891990" lon="-4.4630300">
        <ele>766.0</ele>
        <time>2019-08-13T15:08:43Z</time>
      </trkpt>
      <trkpt lat="40.3892410" lon="-4.4630700">
        <ele>766.2</ele>
        <time>2019-08-13T15:08:45Z</time>
      </trkpt>
      <trkpt lat="40.3892820" lon="-4.4631130">
        <ele>766.4</ele>
        <time>2019-08-13T15:08:47Z</time>
      </trkpt>
      <trkpt lat="40.3893210" lon="-4.4631600">
        <ele>766.6</ele>
        <time>2019-08-13T15:08:49Z</time>
      </trkpt>
      <trkpt lat="40.3893390" lon="-4.4631870">
        <ele>766.8</ele>
        <time>2019-08-13T15:08:50Z</time>
      </trkpt>
      <trkpt lat="40.3893570" lon="-4.4632150">
        <ele>766.9</ele>
        <time>2019-08-13T15:08:51Z</time>
      </trkpt>
      <trkpt lat="40.3893750" lon="-4.4632430">
        <ele>767.0</ele>
        <time>2019-08-13T15:08:52Z</time>
      </trkpt>
      <trkpt lat="40.3893930" lon="-4.4632740">
        <ele>767.2</ele>
        <time>2019-08-13T15:08:53Z</time>
      </trkpt>
      <trkpt lat="40.3894110" lon="-4.4633070">
        <ele>767.3</ele>
        <time>2019-08-13T15:08:54Z</time>
      </trkpt>
      <trkpt lat="40.3894290" lon="-4.4633410">
        <ele>767.4</ele>
        <time>2019-08-13T15:08:55Z</time>
      </trkpt>
      <trkpt lat="40.3894480" lon="-4.4633780">
        <ele>767.5</ele>
        <time>2019-08-13T15:08:56Z</time>
      </trkpt>
      <trkpt lat="40.3894650" lon="-4.4634160">
        <ele>767.5</ele>
        <time>2019-08-13T15:08:57Z</time>
      </trkpt>
      <trkpt lat="40.3894830" lon="-4.4634560">
        <ele>767.6</ele>
        <time>2019-08-13T15:08:58Z</time>
      </trkpt>
      <trkpt lat="40.3895010" lon="-4.4634980">
        <ele>767.7</ele>
        <time>2019-08-13T15:08:59Z</time>
      </trkpt>
      <trkpt lat="40.3895180" lon="-4.4635420">
        <ele>767.7</ele>
        <time>2019-08-13T15:09:00Z</time>
      </trkpt>
      <trkpt lat="40.3895350" lon="-4.4635880">
        <ele>767.7</ele>
        <time>2019-08-13T15:09:01Z</time>
      </trkpt>
      <trkpt lat="40.3895500" lon="-4.4636350">
        <ele>767.7</ele>
        <time>2019-08-13T15:09:02Z</time>
      </trkpt>
      <trkpt lat="40.3895630" lon="-4.4636850">
        <ele>767.8</ele>
        <time>2019-08-13T15:09:03Z</time>
      </trkpt>
      <trkpt lat="40.3895750" lon="-4.4637350">
        <ele>767.8</ele>
        <time>2019-08-13T15:09:04Z</time>
      </trkpt>
      <trkpt lat="40.3895860" lon="-4.4637840">
        <ele>767.8</ele>
        <time>2019-08-13T15:09:05Z</time>
      </trkpt>
      <trkpt lat="40.3895970" lon="-4.4638330">
        <ele>767.8</ele>
        <time>2019-08-13T15:09:06Z</time>
      </trkpt>
      <trkpt lat="40.3896060" lon="-4.4638820">
        <ele>767.8</ele>
        <time>2019-08-13T15:09:07Z</time>
      </trkpt>
      <trkpt lat="40.3896140" lon="-4.4639340">
        <ele>767.8</ele>
        <time>2019-08-13T15:09:08Z</time>
      </trkpt>
      <trkpt lat="40.3896210" lon="-4.4639880">
        <ele>767.8</ele>
        <time>2019-08-13T15:09:09Z</time>
      </trkpt>
      <trkpt lat="40.3896280" lon="-4.4640450">
        <ele>767.7</ele>
        <time>2019-08-13T15:09:10Z</time>
      </trkpt>
      <trkpt lat="40.3896320" lon="-4.4641040">
        <ele>767.7</ele>
        <time>2019-08-13T15:09:11Z</time>
      </trkpt>
      <trkpt lat="40.3896350" lon="-4.4641670">
        <ele>767.7</ele>
        <time>2019-08-13T15:09:12Z</time>
      </trkpt>
      <trkpt lat="40.3896370" lon="-4.4642320">
        <ele>767.7</ele>
        <time>2019-08-13T15:09:13Z</time>
      </trkpt>
      <trkpt lat="40.3896400" lon="-4.4643010">
        <ele>767.6</ele>
        <time>2019-08-13T15:09:14Z</time>
      </trkpt>
      <trkpt lat="40.3896430" lon="-4.4643740">
        <ele>767.6</ele>
        <time>2019-08-13T15:09:15Z</time>
      </trkpt>
      <trkpt lat="40.3896430" lon="-4.4644510">
        <ele>767.6</ele>
        <time>2019-08-13T15:09:16Z</time>
      </trkpt>
      <trkpt lat="40.3896420" lon="-4.4645330">
        <ele>767.5</ele>
        <time>2019-08-13T15:09:17Z</time>
      </trkpt>
      <trkpt lat="40.3896440" lon="-4.4646180">
        <ele>767.5</ele>
        <time>2019-08-13T15:09:18Z</time>
      </trkpt>
      <trkpt lat="40.3896430" lon="-4.4647040">
        <ele>767.4</ele>
        <time>2019-08-13T15:09:19Z</time>
      </trkpt>
      <trkpt lat="40.3896420" lon="-4.4647940">
        <ele>767.3</ele>
        <time>2019-08-13T15:09:20Z</time>
      </trkpt>
      <trkpt lat="40.3896410" lon="-4.4648870">
        <ele>767.3</ele>
        <time>2019-08-13T15:09:21Z</time>
      </trkpt>
      <trkpt lat="40.3896400" lon="-4.4649820">
        <ele>767.0</ele>
        <time>2019-08-13T15:09:22Z</time>
      </trkpt>
      <trkpt lat="40.3896400" lon="-4.4650800">
        <ele>766.7</ele>
        <time>2019-08-13T15:09:23Z</time>
      </trkpt>
      <trkpt lat="40.3896380" lon="-4.4651810">
        <ele>766.3</ele>
        <time>2019-08-13T15:09:24Z</time>
      </trkpt>
      <trkpt lat="40.3896360" lon="-4.4652850">
        <ele>765.8</ele>
        <time>2019-08-13T15:09:25Z</time>
      </trkpt>
      <trkpt lat="40.3896340" lon="-4.4653900">
        <ele>765.2</ele>
        <time>2019-08-13T15:09:26Z</time>
      </trkpt>
      <trkpt lat="40.3896320" lon="-4.4654940">
        <ele>764.6</ele>
        <time>2019-08-13T15:09:27Z</time>
      </trkpt>
      <trkpt lat="40.3896300" lon="-4.4656000">
        <ele>764.2</ele>
        <time>2019-08-13T15:09:28Z</time>
      </trkpt>
      <trkpt lat="40.3896270" lon="-4.4657070">
        <ele>763.7</ele>
        <time>2019-08-13T15:09:29Z</time>
      </trkpt>
      <trkpt lat="40.3896240" lon="-4.4658130">
        <ele>763.2</ele>
        <time>2019-08-13T15:09:30Z</time>
      </trkpt>
      <trkpt lat="40.3896190" lon="-4.4659200">
        <ele>762.6</ele>
        <time>2019-08-13T15:09:31Z</time>
      </trkpt>
      <trkpt lat="40.3896160" lon="-4.4660290">
        <ele>761.6</ele>
        <time>2019-08-13T15:09:32Z</time>
      </trkpt>
      <trkpt lat="40.3896140" lon="-4.4661380">
        <ele>760.4</ele>
        <time>2019-08-13T15:09:33Z</time>
      </trkpt>
      <trkpt lat="40.3896120" lon="-4.4662480">
        <ele>759.3</ele>
        <time>2019-08-13T15:09:34Z</time>
      </trkpt>
      <trkpt lat="40.3896110" lon="-4.4663590">
        <ele>758.2</ele>
        <time>2019-08-13T15:09:35Z</time>
      </trkpt>
      <trkpt lat="40.3896120" lon="-4.4664710">
        <ele>757.0</ele>
        <time>2019-08-13T15:09:36Z</time>
      </trkpt>
      <trkpt lat="40.3896120" lon="-4.4665830">
        <ele>755.5</ele>
        <time>2019-08-13T15:09:37Z</time>
      </trkpt>
      <trkpt lat="40.3896120" lon="-4.4666950">
        <ele>753.8</ele>
        <time>2019-08-13T15:09:38Z</time>
      </trkpt>
      <trkpt lat="40.3896130" lon="-4.4668090">
        <ele>752.2</ele>
        <time>2019-08-13T15:09:39Z</time>
      </trkpt>
      <trkpt lat="40.3896140" lon="-4.4669260">
        <ele>750.8</ele>
        <time>2019-08-13T15:09:40Z</time>
      </trkpt>
      <trkpt lat="40.3896140" lon="-4.4670420">
        <ele>749.5</ele>
        <time>2019-08-13T15:09:41Z</time>
      </trkpt>
      <trkpt lat="40.3896150" lon="-4.4671620">
        <ele>748.3</ele>
        <time>2019-08-13T15:09:42Z</time>
      </trkpt>
      <trkpt lat="40.3896160" lon="-4.4672840">
        <ele>747.0</ele>
        <time>2019-08-13T15:09:43Z</time>
      </trkpt>
      <trkpt lat="40.3896180" lon="-4.4674100">
        <ele>745.8</ele>
        <time>2019-08-13T15:09:44Z</time>
      </trkpt>
      <trkpt lat="40.3896190" lon="-4.4675370">
        <ele>744.5</ele>
        <time>2019-08-13T15:09:45Z</time>
      </trkpt>
      <trkpt lat="40.3896230" lon="-4.4676670">
        <ele>743.0</ele>
        <time>2019-08-13T15:09:46Z</time>
      </trkpt>
      <trkpt lat="40.3896270" lon="-4.4677960">
        <ele>741.5</ele>
        <time>2019-08-13T15:09:47Z</time>
      </trkpt>
      <trkpt lat="40.3896310" lon="-4.4679280">
        <ele>739.8</ele>
        <time>2019-08-13T15:09:48Z</time>
      </trkpt>
      <trkpt lat="40.3896380" lon="-4.4680610">
        <ele>739.4</ele>
        <time>2019-08-13T15:09:49Z</time>
      </trkpt>
      <trkpt lat="40.3896490" lon="-4.4681960">
        <ele>739.4</ele>
        <time>2019-08-13T15:09:50Z</time>
      </trkpt>
      <trkpt lat="40.3896650" lon="-4.4683320">
        <ele>739.5</ele>
        <time>2019-08-13T15:09:51Z</time>
      </trkpt>
      <trkpt lat="40.3896830" lon="-4.4684700">
        <ele>739.6</ele>
        <time>2019-08-13T15:09:52Z</time>
      </trkpt>
      <trkpt lat="40.3897030" lon="-4.4686110">
        <ele>739.4</ele>
        <time>2019-08-13T15:09:53Z</time>
      </trkpt>
      <trkpt lat="40.3897290" lon="-4.4687540">
        <ele>739.1</ele>
        <time>2019-08-13T15:09:54Z</time>
      </trkpt>
      <trkpt lat="40.3897590" lon="-4.4688960">
        <ele>738.8</ele>
        <time>2019-08-13T15:09:55Z</time>
      </trkpt>
      <trkpt lat="40.3897950" lon="-4.4690370">
        <ele>738.5</ele>
        <time>2019-08-13T15:09:56Z</time>
      </trkpt>
      <trkpt lat="40.3898360" lon="-4.4691760">
        <ele>738.2</ele>
        <time>2019-08-13T15:09:57Z</time>
      </trkpt>
      <trkpt lat="40.3898810" lon="-4.4693100">
        <ele>737.9</ele>
        <time>2019-08-13T15:09:58Z</time>
      </trkpt>
      <trkpt lat="40.3899270" lon="-4.4694390">
        <ele>737.7</ele>
        <time>2019-08-13T15:09:59Z</time>
      </trkpt>
      <trkpt lat="40.3899760" lon="-4.4695620">
        <ele>737.4</ele>
        <time>2019-08-13T15:10:00Z</time>
      </trkpt>
      <trkpt lat="40.3900310" lon="-4.4696840">
        <ele>737.1</ele>
        <time>2019-08-13T15:10:01Z</time>
      </trkpt>
      <trkpt lat="40.3900890" lon="-4.4698030">
        <ele>736.6</ele>
        <time>2019-08-13T15:10:02Z</time>
      </trkpt>
      <trkpt lat="40.3901490" lon="-4.4699200">
        <ele>736.1</ele>
        <time>2019-08-13T15:10:03Z</time>
      </trkpt>
      <trkpt lat="40.3902140" lon="-4.4700350">
        <ele>735.7</ele>
        <time>2019-08-13T15:10:04Z</time>
      </trkpt>
      <trkpt lat="40.3902840" lon="-4.4701460">
        <ele>735.2</ele>
        <time>2019-08-13T15:10:05Z</time>
      </trkpt>
      <trkpt lat="40.3903580" lon="-4.4702540">
        <ele>734.7</ele>
        <time>2019-08-13T15:10:06Z</time>
      </trkpt>
      <trkpt lat="40.3904350" lon="-4.4703600">
        <ele>734.2</ele>
        <time>2019-08-13T15:10:07Z</time>
      </trkpt>
      <trkpt lat="40.3905180" lon="-4.4704630">
        <ele>733.5</ele>
        <time>2019-08-13T15:10:08Z</time>
      </trkpt>
      <trkpt lat="40.3906030" lon="-4.4705670">
        <ele>732.8</ele>
        <time>2019-08-13T15:10:09Z</time>
      </trkpt>
      <trkpt lat="40.3906920" lon="-4.4706690">
        <ele>732.2</ele>
        <time>2019-08-13T15:10:10Z</time>
      </trkpt>
      <trkpt lat="40.3907830" lon="-4.4707700">
        <ele>731.6</ele>
        <time>2019-08-13T15:10:11Z</time>
      </trkpt>
      <trkpt lat="40.3908750" lon="-4.4708700">
        <ele>730.9</ele>
        <time>2019-08-13T15:10:12Z</time>
      </trkpt>
      <trkpt lat="40.3909700" lon="-4.4709690">
        <ele>730.3</ele>
        <time>2019-08-13T15:10:13Z</time>
      </trkpt>
      <trkpt lat="40.3910650" lon="-4.4710700">
        <ele>729.6</ele>
        <time>2019-08-13T15:10:14Z</time>
      </trkpt>
      <trkpt lat="40.3911610" lon="-4.4711700">
        <ele>729.0</ele>
        <time>2019-08-13T15:10:15Z</time>
      </trkpt>
      <trkpt lat="40.3912560" lon="-4.4712680">
        <ele>728.3</ele>
        <time>2019-08-13T15:10:16Z</time>
      </trkpt>
      <trkpt lat="40.3913520" lon="-4.4713670">
        <ele>727.4</ele>
        <time>2019-08-13T15:10:17Z</time>
      </trkpt>
      <trkpt lat="40.3914470" lon="-4.4714610">
        <ele>726.4</ele>
        <time>2019-08-13T15:10:18Z</time>
      </trkpt>
      <trkpt lat="40.3915380" lon="-4.4715500">
        <ele>725.7</ele>
        <time>2019-08-13T15:10:19Z</time>
      </trkpt>
      <trkpt lat="40.3916280" lon="-4.4716360">
        <ele>725.5</ele>
        <time>2019-08-13T15:10:20Z</time>
      </trkpt>
      <trkpt lat="40.3917140" lon="-4.4717220">
        <ele>725.4</ele>
        <time>2019-08-13T15:10:21Z</time>
      </trkpt>
      <trkpt lat="40.3917980" lon="-4.4718070">
        <ele>725.3</ele>
        <time>2019-08-13T15:10:22Z</time>
      </trkpt>
      <trkpt lat="40.3918800" lon="-4.4718900">
        <ele>725.3</ele>
        <time>2019-08-13T15:10:23Z</time>
      </trkpt>
      <trkpt lat="40.3919600" lon="-4.4719720">
        <ele>725.2</ele>
        <time>2019-08-13T15:10:24Z</time>
      </trkpt>
      <trkpt lat="40.3920390" lon="-4.4720530">
        <ele>725.2</ele>
        <time>2019-08-13T15:10:25Z</time>
      </trkpt>
      <trkpt lat="40.3921170" lon="-4.4721320">
        <ele>725.0</ele>
        <time>2019-08-13T15:10:26Z</time>
      </trkpt>
      <trkpt lat="40.3921930" lon="-4.4722100">
        <ele>724.8</ele>
        <time>2019-08-13T15:10:27Z</time>
      </trkpt>
      <trkpt lat="40.3922680" lon="-4.4722850">
        <ele>724.5</ele>
        <time>2019-08-13T15:10:28Z</time>
      </trkpt>
      <trkpt lat="40.3923410" lon="-4.4723600">
        <ele>724.2</ele>
        <time>2019-08-13T15:10:29Z</time>
      </trkpt>
      <trkpt lat="40.3924120" lon="-4.4724340">
        <ele>723.8</ele>
        <time>2019-08-13T15:10:30Z</time>
      </trkpt>
      <trkpt lat="40.3924840" lon="-4.4725060">
        <ele>723.4</ele>
        <time>2019-08-13T15:10:31Z</time>
      </trkpt>
      <trkpt lat="40.3925560" lon="-4.4725780">
        <ele>723.0</ele>
        <time>2019-08-13T15:10:32Z</time>
      </trkpt>
      <trkpt lat="40.3926270" lon="-4.4726500">
        <ele>722.7</ele>
        <time>2019-08-13T15:10:33Z</time>
      </trkpt>
      <trkpt lat="40.3926990" lon="-4.4727230">
        <ele>722.5</ele>
        <time>2019-08-13T15:10:34Z</time>
      </trkpt>
      <trkpt lat="40.3927700" lon="-4.4727970">
        <ele>722.3</ele>
        <time>2019-08-13T15:10:35Z</time>
      </trkpt>
      <trkpt lat="40.3928410" lon="-4.4728700">
        <ele>722.2</ele>
        <time>2019-08-13T15:10:36Z</time>
      </trkpt>
      <trkpt lat="40.3929120" lon="-4.4729420">
        <ele>722.1</ele>
        <time>2019-08-13T15:10:37Z</time>
      </trkpt>
      <trkpt lat="40.3929830" lon="-4.4730150">
        <ele>722.2</ele>
        <time>2019-08-13T15:10:38Z</time>
      </trkpt>
      <trkpt lat="40.3930530" lon="-4.4730890">
        <ele>722.3</ele>
        <time>2019-08-13T15:10:39Z</time>
      </trkpt>
      <trkpt lat="40.3931220" lon="-4.4731600">
        <ele>722.5</ele>
        <time>2019-08-13T15:10:40Z</time>
      </trkpt>
      <trkpt lat="40.3931890" lon="-4.4732310">
        <ele>722.8</ele>
        <time>2019-08-13T15:10:41Z</time>
      </trkpt>
      <trkpt lat="40.3932550" lon="-4.4732990">
        <ele>723.1</ele>
        <time>2019-08-13T15:10:42Z</time>
      </trkpt>
      <trkpt lat="40.3933190" lon="-4.4733670">
        <ele>723.5</ele>
        <time>2019-08-13T15:10:43Z</time>
      </trkpt>
      <trkpt lat="40.3933820" lon="-4.4734330">
        <ele>724.0</ele>
        <time>2019-08-13T15:10:44Z</time>
      </trkpt>
      <trkpt lat="40.3934420" lon="-4.4734970">
        <ele>724.5</ele>
        <time>2019-08-13T15:10:45Z</time>
      </trkpt>
      <trkpt lat="40.3934970" lon="-4.4735580">
        <ele>724.9</ele>
        <time>2019-08-13T15:10:46Z</time>
      </trkpt>
      <trkpt lat="40.3935490" lon="-4.4736170">
        <ele>725.2</ele>
        <time>2019-08-13T15:10:47Z</time>
      </trkpt>
      <trkpt lat="40.3935990" lon="-4.4736710">
        <ele>725.5</ele>
        <time>2019-08-13T15:10:48Z</time>
      </trkpt>
      <trkpt lat="40.3936460" lon="-4.4737220">
        <ele>725.7</ele>
        <time>2019-08-13T15:10:49Z</time>
      </trkpt>
      <trkpt lat="40.3936920" lon="-4.4737710">
        <ele>726.0</ele>
        <time>2019-08-13T15:10:50Z</time>
      </trkpt>
      <trkpt lat="40.3937340" lon="-4.4738170">
        <ele>726.3</ele>
        <time>2019-08-13T15:10:51Z</time>
      </trkpt>
      <trkpt lat="40.3937740" lon="-4.4738610">
        <ele>726.5</ele>
        <time>2019-08-13T15:10:52Z</time>
      </trkpt>
      <trkpt lat="40.3938120" lon="-4.4739010">
        <ele>726.8</ele>
        <time>2019-08-13T15:10:53Z</time>
      </trkpt>
      <trkpt lat="40.3938480" lon="-4.4739380">
        <ele>727.0</ele>
        <time>2019-08-13T15:10:54Z</time>
      </trkpt>
      <trkpt lat="40.3938830" lon="-4.4739730">
        <ele>727.3</ele>
        <time>2019-08-13T15:10:55Z</time>
      </trkpt>
      <trkpt lat="40.3939150" lon="-4.4740050">
        <ele>727.5</ele>
        <time>2019-08-13T15:10:56Z</time>
      </trkpt>
      <trkpt lat="40.3939440" lon="-4.4740380">
        <ele>727.7</ele>
        <time>2019-08-13T15:10:57Z</time>
      </trkpt>
      <trkpt lat="40.3939730" lon="-4.4740670">
        <ele>727.9</ele>
        <time>2019-08-13T15:10:58Z</time>
      </trkpt>
      <trkpt lat="40.3940010" lon="-4.4740960">
        <ele>728.1</ele>
        <time>2019-08-13T15:10:59Z</time>
      </trkpt>
      <trkpt lat="40.3940280" lon="-4.4741250">
        <ele>728.2</ele>
        <time>2019-08-13T15:11:00Z</time>
      </trkpt>
      <trkpt lat="40.3940550" lon="-4.4741530">
        <ele>728.4</ele>
        <time>2019-08-13T15:11:01Z</time>
      </trkpt>
      <trkpt lat="40.3940810" lon="-4.4741810">
        <ele>728.5</ele>
        <time>2019-08-13T15:11:02Z</time>
      </trkpt>
      <trkpt lat="40.3941080" lon="-4.4742080">
        <ele>728.6</ele>
        <time>2019-08-13T15:11:03Z</time>
      </trkpt>
      <trkpt lat="40.3941340" lon="-4.4742350">
        <ele>728.7</ele>
        <time>2019-08-13T15:11:04Z</time>
      </trkpt>
      <trkpt lat="40.3941610" lon="-4.4742630">
        <ele>728.8</ele>
        <time>2019-08-13T15:11:05Z</time>
      </trkpt>
      <trkpt lat="40.3941880" lon="-4.4742920">
        <ele>728.9</ele>
        <time>2019-08-13T15:11:06Z</time>
      </trkpt>
      <trkpt lat="40.3942150" lon="-4.4743200">
        <ele>729.0</ele>
        <time>2019-08-13T15:11:07Z</time>
      </trkpt>
      <trkpt lat="40.3942420" lon="-4.4743470">
        <ele>729.1</ele>
        <time>2019-08-13T15:11:08Z</time>
      </trkpt>
      <trkpt lat="40.3942710" lon="-4.4743750">
        <ele>729.2</ele>
        <time>2019-08-13T15:11:09Z</time>
      </trkpt>
      <trkpt lat="40.3942990" lon="-4.4744040">
        <ele>729.3</ele>
        <time>2019-08-13T15:11:10Z</time>
      </trkpt>
      <trkpt lat="40.3943270" lon="-4.4744330">
        <ele>729.4</ele>
        <time>2019-08-13T15:11:11Z</time>
      </trkpt>
      <trkpt lat="40.3943560" lon="-4.4744610">
        <ele>729.5</ele>
        <time>2019-08-13T15:11:12Z</time>
      </trkpt>
      <trkpt lat="40.3943850" lon="-4.4744890">
        <ele>729.7</ele>
        <time>2019-08-13T15:11:13Z</time>
      </trkpt>
      <trkpt lat="40.3944140" lon="-4.4745180">
        <ele>729.8</ele>
        <time>2019-08-13T15:11:14Z</time>
      </trkpt>
      <trkpt lat="40.3944430" lon="-4.4745470">
        <ele>729.9</ele>
        <time>2019-08-13T15:11:15Z</time>
      </trkpt>
      <trkpt lat="40.3944720" lon="-4.4745750">
        <ele>730.0</ele>
        <time>2019-08-13T15:11:16Z</time>
      </trkpt>
      <trkpt lat="40.3945010" lon="-4.4746050">
        <ele>730.1</ele>
        <time>2019-08-13T15:11:17Z</time>
      </trkpt>
      <trkpt lat="40.3945310" lon="-4.4746350">
        <ele>730.3</ele>
        <time>2019-08-13T15:11:18Z</time>
      </trkpt>
      <trkpt lat="40.3945620" lon="-4.4746670">
        <ele>730.4</ele>
        <time>2019-08-13T15:11:19Z</time>
      </trkpt>
      <trkpt lat="40.3945900" lon="-4.4747000">
        <ele>730.5</ele>
        <time>2019-08-13T15:11:20Z</time>
      </trkpt>
      <trkpt lat="40.3946190" lon="-4.4747300">
        <ele>730.7</ele>
        <time>2019-08-13T15:11:21Z</time>
      </trkpt>
      <trkpt lat="40.3946480" lon="-4.4747580">
        <ele>730.9</ele>
        <time>2019-08-13T15:11:22Z</time>
      </trkpt>
      <trkpt lat="40.3946760" lon="-4.4747860">
        <ele>731.0</ele>
        <time>2019-08-13T15:11:23Z</time>
      </trkpt>
      <trkpt lat="40.3947030" lon="-4.4748120">
        <ele>731.2</ele>
        <time>2019-08-13T15:11:24Z</time>
      </trkpt>
      <trkpt lat="40.3947290" lon="-4.4748380">
        <ele>731.3</ele>
        <time>2019-08-13T15:11:25Z</time>
      </trkpt>
      <trkpt lat="40.3947550" lon="-4.4748630">
        <ele>731.3</ele>
        <time>2019-08-13T15:11:26Z</time>
      </trkpt>
      <trkpt lat="40.3947790" lon="-4.4748880">
        <ele>731.4</ele>
        <time>2019-08-13T15:11:27Z</time>
      </trkpt>
      <trkpt lat="40.3948020" lon="-4.4749130">
        <ele>731.4</ele>
        <time>2019-08-13T15:11:28Z</time>
      </trkpt>
      <trkpt lat="40.3948270" lon="-4.4749390">
        <ele>731.4</ele>
        <time>2019-08-13T15:11:29Z</time>
      </trkpt>
      <trkpt lat="40.3948550" lon="-4.4749660">
        <ele>731.4</ele>
        <time>2019-08-13T15:11:30Z</time>
      </trkpt>
      <trkpt lat="40.3948860" lon="-4.4749940">
        <ele>731.4</ele>
        <time>2019-08-13T15:11:31Z</time>
      </trkpt>
      <trkpt lat="40.3949170" lon="-4.4750250">
        <ele>731.4</ele>
        <time>2019-08-13T15:11:32Z</time>
      </trkpt>
      <trkpt lat="40.3949480" lon="-4.4750570">
        <ele>731.4</ele>
        <time>2019-08-13T15:11:33Z</time>
      </trkpt>
      <trkpt lat="40.3949810" lon="-4.4750910">
        <ele>731.4</ele>
        <time>2019-08-13T15:11:34Z</time>
      </trkpt>
      <trkpt lat="40.3950140" lon="-4.4751250">
        <ele>731.3</ele>
        <time>2019-08-13T15:11:35Z</time>
      </trkpt>
      <trkpt lat="40.3950470" lon="-4.4751590">
        <ele>731.3</ele>
        <time>2019-08-13T15:11:36Z</time>
      </trkpt>
      <trkpt lat="40.3950800" lon="-4.4751950">
        <ele>731.2</ele>
        <time>2019-08-13T15:11:37Z</time>
      </trkpt>
      <trkpt lat="40.3951130" lon="-4.4752300">
        <ele>731.2</ele>
        <time>2019-08-13T15:11:38Z</time>
      </trkpt>
      <trkpt lat="40.3951480" lon="-4.4752660">
        <ele>731.1</ele>
        <time>2019-08-13T15:11:39Z</time>
      </trkpt>
      <trkpt lat="40.3951840" lon="-4.4753040">
        <ele>731.1</ele>
        <time>2019-08-13T15:11:40Z</time>
      </trkpt>
      <trkpt lat="40.3952200" lon="-4.4753450">
        <ele>731.0</ele>
        <time>2019-08-13T15:11:41Z</time>
      </trkpt>
      <trkpt lat="40.3952570" lon="-4.4753880">
        <ele>731.0</ele>
        <time>2019-08-13T15:11:42Z</time>
      </trkpt>
      <trkpt lat="40.3952960" lon="-4.4754330">
        <ele>730.8</ele>
        <time>2019-08-13T15:11:43Z</time>
      </trkpt>
      <trkpt lat="40.3953390" lon="-4.4754810">
        <ele>730.6</ele>
        <time>2019-08-13T15:11:44Z</time>
      </trkpt>
      <trkpt lat="40.3953840" lon="-4.4755340">
        <ele>730.3</ele>
        <time>2019-08-13T15:11:45Z</time>
      </trkpt>
      <trkpt lat="40.3954310" lon="-4.4755900">
        <ele>730.0</ele>
        <time>2019-08-13T15:11:46Z</time>
      </trkpt>
      <trkpt lat="40.3954790" lon="-4.4756490">
        <ele>729.6</ele>
        <time>2019-08-13T15:11:47Z</time>
      </trkpt>
      <trkpt lat="40.3955270" lon="-4.4757120">
        <ele>729.2</ele>
        <time>2019-08-13T15:11:48Z</time>
      </trkpt>
      <trkpt lat="40.3955770" lon="-4.4757790">
        <ele>728.8</ele>
        <time>2019-08-13T15:11:49Z</time>
      </trkpt>
      <trkpt lat="40.3956290" lon="-4.4758490">
        <ele>728.3</ele>
        <time>2019-08-13T15:11:50Z</time>
      </trkpt>
      <trkpt lat="40.3956820" lon="-4.4759210">
        <ele>727.8</ele>
        <time>2019-08-13T15:11:51Z</time>
      </trkpt>
      <trkpt lat="40.3957360" lon="-4.4759930">
        <ele>727.3</ele>
        <time>2019-08-13T15:11:52Z</time>
      </trkpt>
      <trkpt lat="40.3957910" lon="-4.4760690">
        <ele>726.8</ele>
        <time>2019-08-13T15:11:53Z</time>
      </trkpt>
      <trkpt lat="40.3958480" lon="-4.4761490">
        <ele>726.2</ele>
        <time>2019-08-13T15:11:54Z</time>
      </trkpt>
      <trkpt lat="40.3959040" lon="-4.4762320">
        <ele>725.6</ele>
        <time>2019-08-13T15:11:55Z</time>
      </trkpt>
      <trkpt lat="40.3959610" lon="-4.4763170">
        <ele>725.0</ele>
        <time>2019-08-13T15:11:56Z</time>
      </trkpt>
      <trkpt lat="40.3960190" lon="-4.4764030">
        <ele>724.4</ele>
        <time>2019-08-13T15:11:57Z</time>
      </trkpt>
      <trkpt lat="40.3960760" lon="-4.4764920">
        <ele>723.8</ele>
        <time>2019-08-13T15:11:58Z</time>
      </trkpt>
      <trkpt lat="40.3961360" lon="-4.4765830">
        <ele>723.1</ele>
        <time>2019-08-13T15:11:59Z</time>
      </trkpt>
      <trkpt lat="40.3961970" lon="-4.4766750">
        <ele>722.4</ele>
        <time>2019-08-13T15:12:00Z</time>
      </trkpt>
      <trkpt lat="40.3962580" lon="-4.4767690">
        <ele>721.7</ele>
        <time>2019-08-13T15:12:01Z</time>
      </trkpt>
      <trkpt lat="40.3963190" lon="-4.4768660">
        <ele>721.0</ele>
        <time>2019-08-13T15:12:02Z</time>
      </trkpt>
      <trkpt lat="40.3963840" lon="-4.4769640">
        <ele>720.3</ele>
        <time>2019-08-13T15:12:03Z</time>
      </trkpt>
      <trkpt lat="40.3964480" lon="-4.4770660">
        <ele>719.6</ele>
        <time>2019-08-13T15:12:04Z</time>
      </trkpt>
      <trkpt lat="40.3965150" lon="-4.4771690">
        <ele>718.8</ele>
        <time>2019-08-13T15:12:05Z</time>
      </trkpt>
      <trkpt lat="40.3965820" lon="-4.4772720">
        <ele>718.1</ele>
        <time>2019-08-13T15:12:06Z</time>
      </trkpt>
      <trkpt lat="40.3966500" lon="-4.4773760">
        <ele>717.4</ele>
        <time>2019-08-13T15:12:07Z</time>
      </trkpt>
      <trkpt lat="40.3967160" lon="-4.4774780">
        <ele>716.7</ele>
        <time>2019-08-13T15:12:08Z</time>
      </trkpt>
      <trkpt lat="40.3967840" lon="-4.4775790">
        <ele>716.1</ele>
        <time>2019-08-13T15:12:09Z</time>
      </trkpt>
      <trkpt lat="40.3968510" lon="-4.4776780">
        <ele>715.5</ele>
        <time>2019-08-13T15:12:10Z</time>
      </trkpt>
      <trkpt lat="40.3969180" lon="-4.4777720">
        <ele>715.0</ele>
        <time>2019-08-13T15:12:11Z</time>
      </trkpt>
      <trkpt lat="40.3969850" lon="-4.4778620">
        <ele>714.6</ele>
        <time>2019-08-13T15:12:12Z</time>
      </trkpt>
      <trkpt lat="40.3970530" lon="-4.4779460">
        <ele>714.3</ele>
        <time>2019-08-13T15:12:13Z</time>
      </trkpt>
      <trkpt lat="40.3971230" lon="-4.4780240">
        <ele>714.1</ele>
        <time>2019-08-13T15:12:14Z</time>
      </trkpt>
      <trkpt lat="40.3971930" lon="-4.4780910">
        <ele>714.0</ele>
        <time>2019-08-13T15:12:15Z</time>
      </trkpt>
      <trkpt lat="40.3972630" lon="-4.4781510">
        <ele>714.0</ele>
        <time>2019-08-13T15:12:16Z</time>
      </trkpt>
      <trkpt lat="40.3973310" lon="-4.4782040">
        <ele>714.0</ele>
        <time>2019-08-13T15:12:17Z</time>
      </trkpt>
      <trkpt lat="40.3973970" lon="-4.4782500">
        <ele>714.0</ele>
        <time>2019-08-13T15:12:18Z</time>
      </trkpt>
      <trkpt lat="40.3974610" lon="-4.4782900">
        <ele>714.1</ele>
        <time>2019-08-13T15:12:19Z</time>
      </trkpt>
      <trkpt lat="40.3975230" lon="-4.4783250">
        <ele>714.1</ele>
        <time>2019-08-13T15:12:20Z</time>
      </trkpt>
      <trkpt lat="40.3975820" lon="-4.4783550">
        <ele>714.2</ele>
        <time>2019-08-13T15:12:21Z</time>
      </trkpt>
      <trkpt lat="40.3976390" lon="-4.4783820">
        <ele>714.2</ele>
        <time>2019-08-13T15:12:22Z</time>
      </trkpt>
      <trkpt lat="40.3976950" lon="-4.4784040">
        <ele>714.4</ele>
        <time>2019-08-13T15:12:23Z</time>
      </trkpt>
      <trkpt lat="40.3977480" lon="-4.4784250">
        <ele>714.5</ele>
        <time>2019-08-13T15:12:24Z</time>
      </trkpt>
      <trkpt lat="40.3978010" lon="-4.4784460">
        <ele>714.7</ele>
        <time>2019-08-13T15:12:25Z</time>
      </trkpt>
      <trkpt lat="40.3978520" lon="-4.4784650">
        <ele>715.0</ele>
        <time>2019-08-13T15:12:26Z</time>
      </trkpt>
      <trkpt lat="40.3979010" lon="-4.4784830">
        <ele>715.2</ele>
        <time>2019-08-13T15:12:27Z</time>
      </trkpt>
      <trkpt lat="40.3979470" lon="-4.4784990">
        <ele>715.5</ele>
        <time>2019-08-13T15:12:28Z</time>
      </trkpt>
      <trkpt lat="40.3979900" lon="-4.4785140">
        <ele>715.7</ele>
        <time>2019-08-13T15:12:29Z</time>
      </trkpt>
      <trkpt lat="40.3980290" lon="-4.4785300">
        <ele>716.0</ele>
        <time>2019-08-13T15:12:30Z</time>
      </trkpt>
      <trkpt lat="40.3980670" lon="-4.4785440">
        <ele>716.2</ele>
        <time>2019-08-13T15:12:31Z</time>
      </trkpt>
      <trkpt lat="40.3981030" lon="-4.4785580">
        <ele>716.5</ele>
        <time>2019-08-13T15:12:32Z</time>
      </trkpt>
      <trkpt lat="40.3981410" lon="-4.4785700">
        <ele>716.7</ele>
        <time>2019-08-13T15:12:33Z</time>
      </trkpt>
      <trkpt lat="40.3981770" lon="-4.4785830">
        <ele>717.0</ele>
        <time>2019-08-13T15:12:34Z</time>
      </trkpt>
      <trkpt lat="40.3982130" lon="-4.4785940">
        <ele>717.3</ele>
        <time>2019-08-13T15:12:35Z</time>
      </trkpt>
      <trkpt lat="40.3982470" lon="-4.4786060">
        <ele>717.5</ele>
        <time>2019-08-13T15:12:36Z</time>
      </trkpt>
      <trkpt lat="40.3982820" lon="-4.4786190">
        <ele>717.8</ele>
        <time>2019-08-13T15:12:37Z</time>
      </trkpt>
      <trkpt lat="40.3983160" lon="-4.4786310">
        <ele>718.1</ele>
        <time>2019-08-13T15:12:38Z</time>
      </trkpt>
      <trkpt lat="40.3983480" lon="-4.4786440">
        <ele>718.4</ele>
        <time>2019-08-13T15:12:39Z</time>
      </trkpt>
      <trkpt lat="40.3983800" lon="-4.4786560">
        <ele>718.7</ele>
        <time>2019-08-13T15:12:40Z</time>
      </trkpt>
      <trkpt lat="40.3984120" lon="-4.4786690">
        <ele>718.9</ele>
        <time>2019-08-13T15:12:41Z</time>
      </trkpt>
      <trkpt lat="40.3984440" lon="-4.4786810">
        <ele>719.2</ele>
        <time>2019-08-13T15:12:42Z</time>
      </trkpt>
      <trkpt lat="40.3984760" lon="-4.4786950">
        <ele>719.5</ele>
        <time>2019-08-13T15:12:43Z</time>
      </trkpt>
      <trkpt lat="40.3985090" lon="-4.4787070">
        <ele>719.7</ele>
        <time>2019-08-13T15:12:44Z</time>
      </trkpt>
      <trkpt lat="40.3985410" lon="-4.4787200">
        <ele>720.0</ele>
        <time>2019-08-13T15:12:45Z</time>
      </trkpt>
      <trkpt lat="40.3985730" lon="-4.4787310">
        <ele>720.2</ele>
        <time>2019-08-13T15:12:46Z</time>
      </trkpt>
      <trkpt lat="40.3986060" lon="-4.4787440">
        <ele>720.5</ele>
        <time>2019-08-13T15:12:47Z</time>
      </trkpt>
      <trkpt lat="40.3986390" lon="-4.4787560">
        <ele>720.7</ele>
        <time>2019-08-13T15:12:48Z</time>
      </trkpt>
      <trkpt lat="40.3986720" lon="-4.4787690">
        <ele>721.0</ele>
        <time>2019-08-13T15:12:49Z</time>
      </trkpt>
      <trkpt lat="40.3987040" lon="-4.4787820">
        <ele>721.2</ele>
        <time>2019-08-13T15:12:50Z</time>
      </trkpt>
      <trkpt lat="40.3987370" lon="-4.4787930">
        <ele>721.4</ele>
        <time>2019-08-13T15:12:51Z</time>
      </trkpt>
      <trkpt lat="40.3987700" lon="-4.4788050">
        <ele>721.7</ele>
        <time>2019-08-13T15:12:52Z</time>
      </trkpt>
      <trkpt lat="40.3988030" lon="-4.4788180">
        <ele>721.9</ele>
        <time>2019-08-13T15:12:53Z</time>
      </trkpt>
      <trkpt lat="40.3988360" lon="-4.4788310">
        <ele>722.1</ele>
        <time>2019-08-13T15:12:54Z</time>
      </trkpt>
      <trkpt lat="40.3988700" lon="-4.4788430">
        <ele>722.3</ele>
        <time>2019-08-13T15:12:55Z</time>
      </trkpt>
      <trkpt lat="40.3989030" lon="-4.4788550">
        <ele>722.6</ele>
        <time>2019-08-13T15:12:56Z</time>
      </trkpt>
      <trkpt lat="40.3989370" lon="-4.4788690">
        <ele>722.7</ele>
        <time>2019-08-13T15:12:57Z</time>
      </trkpt>
      <trkpt lat="40.3989710" lon="-4.4788820">
        <ele>722.9</ele>
        <time>2019-08-13T15:12:58Z</time>
      </trkpt>
      <trkpt lat="40.3990050" lon="-4.4788970">
        <ele>723.0</ele>
        <time>2019-08-13T15:12:59Z</time>
      </trkpt>
      <trkpt lat="40.3990400" lon="-4.4789110">
        <ele>723.2</ele>
        <time>2019-08-13T15:13:00Z</time>
      </trkpt>
      <trkpt lat="40.3990760" lon="-4.4789240">
        <ele>723.3</ele>
        <time>2019-08-13T15:13:01Z</time>
      </trkpt>
      <trkpt lat="40.3991130" lon="-4.4789390">
        <ele>723.3</ele>
        <time>2019-08-13T15:13:02Z</time>
      </trkpt>
      <trkpt lat="40.3991510" lon="-4.4789530">
        <ele>723.4</ele>
        <time>2019-08-13T15:13:03Z</time>
      </trkpt>
      <trkpt lat="40.3991900" lon="-4.4789690">
        <ele>723.5</ele>
        <time>2019-08-13T15:13:04Z</time>
      </trkpt>
      <trkpt lat="40.3992300" lon="-4.4789830">
        <ele>723.6</ele>
        <time>2019-08-13T15:13:05Z</time>
      </trkpt>
      <trkpt lat="40.3992710" lon="-4.4789970">
        <ele>723.6</ele>
        <time>2019-08-13T15:13:06Z</time>
      </trkpt>
      <trkpt lat="40.3993130" lon="-4.4790130">
        <ele>723.7</ele>
        <time>2019-08-13T15:13:07Z</time>
      </trkpt>
      <trkpt lat="40.3993550" lon="-4.4790280">
        <ele>723.7</ele>
        <time>2019-08-13T15:13:08Z</time>
      </trkpt>
      <trkpt lat="40.3993980" lon="-4.4790440">
        <ele>723.8</ele>
        <time>2019-08-13T15:13:09Z</time>
      </trkpt>
      <trkpt lat="40.3994410" lon="-4.4790610">
        <ele>723.9</ele>
        <time>2019-08-13T15:13:10Z</time>
      </trkpt>
      <trkpt lat="40.3994850" lon="-4.4790790">
        <ele>723.9</ele>
        <time>2019-08-13T15:13:11Z</time>
      </trkpt>
      <trkpt lat="40.3995300" lon="-4.4790970">
        <ele>724.0</ele>
        <time>2019-08-13T15:13:12Z</time>
      </trkpt>
      <trkpt lat="40.3995750" lon="-4.4791140">
        <ele>724.0</ele>
        <time>2019-08-13T15:13:13Z</time>
      </trkpt>
      <trkpt lat="40.3996210" lon="-4.4791330">
        <ele>724.0</ele>
        <time>2019-08-13T15:13:14Z</time>
      </trkpt>
      <trkpt lat="40.3996690" lon="-4.4791530">
        <ele>724.1</ele>
        <time>2019-08-13T15:13:15Z</time>
      </trkpt>
      <trkpt lat="40.3997180" lon="-4.4791720">
        <ele>724.1</ele>
        <time>2019-08-13T15:13:16Z</time>
      </trkpt>
      <trkpt lat="40.3997690" lon="-4.4791940">
        <ele>724.1</ele>
        <time>2019-08-13T15:13:17Z</time>
      </trkpt>
      <trkpt lat="40.3998200" lon="-4.4792170">
        <ele>724.2</ele>
        <time>2019-08-13T15:13:18Z</time>
      </trkpt>
      <trkpt lat="40.3998730" lon="-4.4792430">
        <ele>724.2</ele>
        <time>2019-08-13T15:13:19Z</time>
      </trkpt>
      <trkpt lat="40.3999270" lon="-4.4792720">
        <ele>724.2</ele>
        <time>2019-08-13T15:13:20Z</time>
      </trkpt>
      <trkpt lat="40.3999830" lon="-4.4793040">
        <ele>724.2</ele>
        <time>2019-08-13T15:13:21Z</time>
      </trkpt>
      <trkpt lat="40.4000420" lon="-4.4793410">
        <ele>724.2</ele>
        <time>2019-08-13T15:13:22Z</time>
      </trkpt>
      <trkpt lat="40.4001020" lon="-4.4793810">
        <ele>724.2</ele>
        <time>2019-08-13T15:13:23Z</time>
      </trkpt>
      <trkpt lat="40.4001660" lon="-4.4794270">
        <ele>724.2</ele>
        <time>2019-08-13T15:13:24Z</time>
      </trkpt>
      <trkpt lat="40.4002290" lon="-4.4794770">
        <ele>724.1</ele>
        <time>2019-08-13T15:13:25Z</time>
      </trkpt>
      <trkpt lat="40.4002930" lon="-4.4795320">
        <ele>724.0</ele>
        <time>2019-08-13T15:13:26Z</time>
      </trkpt>
      <trkpt lat="40.4003570" lon="-4.4795940">
        <ele>723.9</ele>
        <time>2019-08-13T15:13:27Z</time>
      </trkpt>
      <trkpt lat="40.4004190" lon="-4.4796610">
        <ele>723.7</ele>
        <time>2019-08-13T15:13:28Z</time>
      </trkpt>
      <trkpt lat="40.4004800" lon="-4.4797350">
        <ele>723.5</ele>
        <time>2019-08-13T15:13:29Z</time>
      </trkpt>
      <trkpt lat="40.4005380" lon="-4.4798130">
        <ele>723.3</ele>
        <time>2019-08-13T15:13:30Z</time>
      </trkpt>
      <trkpt lat="40.4005960" lon="-4.4798940">
        <ele>723.0</ele>
        <time>2019-08-13T15:13:31Z</time>
      </trkpt>
      <trkpt lat="40.4006520" lon="-4.4799770">
        <ele>722.7</ele>
        <time>2019-08-13T15:13:32Z</time>
      </trkpt>
      <trkpt lat="40.4007060" lon="-4.4800630">
        <ele>722.3</ele>
        <time>2019-08-13T15:13:33Z</time>
      </trkpt>
      <trkpt lat="40.4007580" lon="-4.4801520">
        <ele>721.8</ele>
        <time>2019-08-13T15:13:34Z</time>
      </trkpt>
      <trkpt lat="40.4008080" lon="-4.4802420">
        <ele>721.3</ele>
        <time>2019-08-13T15:13:35Z</time>
      </trkpt>
      <trkpt lat="40.4008570" lon="-4.4803310">
        <ele>720.7</ele>
        <time>2019-08-13T15:13:36Z</time>
      </trkpt>
      <trkpt lat="40.4009040" lon="-4.4804200">
        <ele>720.2</ele>
        <time>2019-08-13T15:13:37Z</time>
      </trkpt>
      <trkpt lat="40.4009500" lon="-4.4805070">
        <ele>719.6</ele>
        <time>2019-08-13T15:13:38Z</time>
      </trkpt>
      <trkpt lat="40.4009950" lon="-4.4805930">
        <ele>719.1</ele>
        <time>2019-08-13T15:13:39Z</time>
      </trkpt>
      <trkpt lat="40.4010370" lon="-4.4806760">
        <ele>718.5</ele>
        <time>2019-08-13T15:13:40Z</time>
      </trkpt>
      <trkpt lat="40.4010790" lon="-4.4807570">
        <ele>718.1</ele>
        <time>2019-08-13T15:13:41Z</time>
      </trkpt>
      <trkpt lat="40.4011190" lon="-4.4808350">
        <ele>717.6</ele>
        <time>2019-08-13T15:13:42Z</time>
      </trkpt>
      <trkpt lat="40.4011590" lon="-4.4809120">
        <ele>717.2</ele>
        <time>2019-08-13T15:13:43Z</time>
      </trkpt>
      <trkpt lat="40.4012000" lon="-4.4809900">
        <ele>716.7</ele>
        <time>2019-08-13T15:13:44Z</time>
      </trkpt>
      <trkpt lat="40.4012400" lon="-4.4810660">
        <ele>716.2</ele>
        <time>2019-08-13T15:13:45Z</time>
      </trkpt>
      <trkpt lat="40.4012810" lon="-4.4811410">
        <ele>715.8</ele>
        <time>2019-08-13T15:13:46Z</time>
      </trkpt>
      <trkpt lat="40.4013210" lon="-4.4812180">
        <ele>715.3</ele>
        <time>2019-08-13T15:13:47Z</time>
      </trkpt>
      <trkpt lat="40.4013600" lon="-4.4812960">
        <ele>714.8</ele>
        <time>2019-08-13T15:13:48Z</time>
      </trkpt>
      <trkpt lat="40.4013980" lon="-4.4813730">
        <ele>714.1</ele>
        <time>2019-08-13T15:13:49Z</time>
      </trkpt>
      <trkpt lat="40.4014370" lon="-4.4814490">
        <ele>713.8</ele>
        <time>2019-08-13T15:13:50Z</time>
      </trkpt>
      <trkpt lat="40.4014760" lon="-4.4815250">
        <ele>713.6</ele>
        <time>2019-08-13T15:13:51Z</time>
      </trkpt>
      <trkpt lat="40.4015160" lon="-4.4816040">
        <ele>713.3</ele>
        <time>2019-08-13T15:13:52Z</time>
      </trkpt>
      <trkpt lat="40.4015550" lon="-4.4816820">
        <ele>713.1</ele>
        <time>2019-08-13T15:13:53Z</time>
      </trkpt>
      <trkpt lat="40.4015970" lon="-4.4817620">
        <ele>712.3</ele>
        <time>2019-08-13T15:13:54Z</time>
      </trkpt>
      <trkpt lat="40.4016380" lon="-4.4818400">
        <ele>711.6</ele>
        <time>2019-08-13T15:13:55Z</time>
      </trkpt>
      <trkpt lat="40.4016800" lon="-4.4819190">
        <ele>711.0</ele>
        <time>2019-08-13T15:13:56Z</time>
      </trkpt>
      <trkpt lat="40.4017200" lon="-4.4819970">
        <ele>710.4</ele>
        <time>2019-08-13T15:13:57Z</time>
      </trkpt>
      <trkpt lat="40.4017610" lon="-4.4820760">
        <ele>709.9</ele>
        <time>2019-08-13T15:13:58Z</time>
      </trkpt>
      <trkpt lat="40.4018020" lon="-4.4821530">
        <ele>709.4</ele>
        <time>2019-08-13T15:13:59Z</time>
      </trkpt>
      <trkpt lat="40.4018420" lon="-4.4822330">
        <ele>708.8</ele>
        <time>2019-08-13T15:14:00Z</time>
      </trkpt>
      <trkpt lat="40.4018820" lon="-4.4823140">
        <ele>708.2</ele>
        <time>2019-08-13T15:14:01Z</time>
      </trkpt>
      <trkpt lat="40.4019220" lon="-4.4823930">
        <ele>707.5</ele>
        <time>2019-08-13T15:14:02Z</time>
      </trkpt>
      <trkpt lat="40.4019620" lon="-4.4824720">
        <ele>706.9</ele>
        <time>2019-08-13T15:14:03Z</time>
      </trkpt>
      <trkpt lat="40.4020030" lon="-4.4825510">
        <ele>706.3</ele>
        <time>2019-08-13T15:14:04Z</time>
      </trkpt>
      <trkpt lat="40.4020430" lon="-4.4826290">
        <ele>705.8</ele>
        <time>2019-08-13T15:14:05Z</time>
      </trkpt>
      <trkpt lat="40.4020860" lon="-4.4827090">
        <ele>705.2</ele>
        <time>2019-08-13T15:14:06Z</time>
      </trkpt>
      <trkpt lat="40.4021290" lon="-4.4827890">
        <ele>704.7</ele>
        <time>2019-08-13T15:14:07Z</time>
      </trkpt>
      <trkpt lat="40.4021720" lon="-4.4828720">
        <ele>704.1</ele>
        <time>2019-08-13T15:14:08Z</time>
      </trkpt>
      <trkpt lat="40.4022160" lon="-4.4829540">
        <ele>703.6</ele>
        <time>2019-08-13T15:14:09Z</time>
      </trkpt>
      <trkpt lat="40.4022610" lon="-4.4830370">
        <ele>703.1</ele>
        <time>2019-08-13T15:14:10Z</time>
      </trkpt>
      <trkpt lat="40.4023070" lon="-4.4831200">
        <ele>702.6</ele>
        <time>2019-08-13T15:14:11Z</time>
      </trkpt>
      <trkpt lat="40.4023520" lon="-4.4832030">
        <ele>702.0</ele>
        <time>2019-08-13T15:14:12Z</time>
      </trkpt>
      <trkpt lat="40.4023980" lon="-4.4832860">
        <ele>701.6</ele>
        <time>2019-08-13T15:14:13Z</time>
      </trkpt>
      <trkpt lat="40.4024430" lon="-4.4833680">
        <ele>701.2</ele>
        <time>2019-08-13T15:14:14Z</time>
      </trkpt>
      <trkpt lat="40.4024870" lon="-4.4834490">
        <ele>700.8</ele>
        <time>2019-08-13T15:14:15Z</time>
      </trkpt>
      <trkpt lat="40.4025290" lon="-4.4835310">
        <ele>700.4</ele>
        <time>2019-08-13T15:14:16Z</time>
      </trkpt>
      <trkpt lat="40.4025690" lon="-4.4836100">
        <ele>700.1</ele>
        <time>2019-08-13T15:14:17Z</time>
      </trkpt>
      <trkpt lat="40.4026080" lon="-4.4836900">
        <ele>699.7</ele>
        <time>2019-08-13T15:14:18Z</time>
      </trkpt>
      <trkpt lat="40.4026460" lon="-4.4837650">
        <ele>699.4</ele>
        <time>2019-08-13T15:14:19Z</time>
      </trkpt>
      <trkpt lat="40.4026840" lon="-4.4838400">
        <ele>699.1</ele>
        <time>2019-08-13T15:14:20Z</time>
      </trkpt>
      <trkpt lat="40.4027230" lon="-4.4839160">
        <ele>698.8</ele>
        <time>2019-08-13T15:14:21Z</time>
      </trkpt>
      <trkpt lat="40.4027610" lon="-4.4839890">
        <ele>698.8</ele>
        <time>2019-08-13T15:14:22Z</time>
      </trkpt>
      <trkpt lat="40.4028000" lon="-4.4840630">
        <ele>698.8</ele>
        <time>2019-08-13T15:14:23Z</time>
      </trkpt>
      <trkpt lat="40.4028380" lon="-4.4841370">
        <ele>698.8</ele>
        <time>2019-08-13T15:14:24Z</time>
      </trkpt>
      <trkpt lat="40.4028770" lon="-4.4842100">
        <ele>698.8</ele>
        <time>2019-08-13T15:14:25Z</time>
      </trkpt>
      <trkpt lat="40.4029170" lon="-4.4842830">
        <ele>698.9</ele>
        <time>2019-08-13T15:14:26Z</time>
      </trkpt>
      <trkpt lat="40.4029550" lon="-4.4843580">
        <ele>699.0</ele>
        <time>2019-08-13T15:14:27Z</time>
      </trkpt>
      <trkpt lat="40.4029940" lon="-4.4844310">
        <ele>699.2</ele>
        <time>2019-08-13T15:14:28Z</time>
      </trkpt>
      <trkpt lat="40.4030320" lon="-4.4845030">
        <ele>699.3</ele>
        <time>2019-08-13T15:14:29Z</time>
      </trkpt>
      <trkpt lat="40.4030690" lon="-4.4845750">
        <ele>699.4</ele>
        <time>2019-08-13T15:14:30Z</time>
      </trkpt>
      <trkpt lat="40.4031050" lon="-4.4846440">
        <ele>699.6</ele>
        <time>2019-08-13T15:14:31Z</time>
      </trkpt>
      <trkpt lat="40.4031390" lon="-4.4847120">
        <ele>699.9</ele>
        <time>2019-08-13T15:14:32Z</time>
      </trkpt>
      <trkpt lat="40.4031730" lon="-4.4847790">
        <ele>700.2</ele>
        <time>2019-08-13T15:14:33Z</time>
      </trkpt>
      <trkpt lat="40.4032090" lon="-4.4848460">
        <ele>700.6</ele>
        <time>2019-08-13T15:14:34Z</time>
      </trkpt>
      <trkpt lat="40.4032420" lon="-4.4849100">
        <ele>700.9</ele>
        <time>2019-08-13T15:14:35Z</time>
      </trkpt>
      <trkpt lat="40.4032770" lon="-4.4849730">
        <ele>701.2</ele>
        <time>2019-08-13T15:14:36Z</time>
      </trkpt>
      <trkpt lat="40.4033110" lon="-4.4850300">
        <ele>701.5</ele>
        <time>2019-08-13T15:14:37Z</time>
      </trkpt>
      <trkpt lat="40.4033440" lon="-4.4850860">
        <ele>701.8</ele>
        <time>2019-08-13T15:14:38Z</time>
      </trkpt>
      <trkpt lat="40.4033760" lon="-4.4851430">
        <ele>702.0</ele>
        <time>2019-08-13T15:14:39Z</time>
      </trkpt>
      <trkpt lat="40.4034050" lon="-4.4852000">
        <ele>702.3</ele>
        <time>2019-08-13T15:14:40Z</time>
      </trkpt>
      <trkpt lat="40.4034360" lon="-4.4852550">
        <ele>702.6</ele>
        <time>2019-08-13T15:14:41Z</time>
      </trkpt>
      <trkpt lat="40.4034660" lon="-4.4853110">
        <ele>702.8</ele>
        <time>2019-08-13T15:14:42Z</time>
      </trkpt>
      <trkpt lat="40.4034940" lon="-4.4853640">
        <ele>703.1</ele>
        <time>2019-08-13T15:14:43Z</time>
      </trkpt>
      <trkpt lat="40.4035240" lon="-4.4854160">
        <ele>703.3</ele>
        <time>2019-08-13T15:14:44Z</time>
      </trkpt>
      <trkpt lat="40.4035540" lon="-4.4854650">
        <ele>703.5</ele>
        <time>2019-08-13T15:14:45Z</time>
      </trkpt>
      <trkpt lat="40.4035830" lon="-4.4855140">
        <ele>703.9</ele>
        <time>2019-08-13T15:14:46Z</time>
      </trkpt>
      <trkpt lat="40.4036090" lon="-4.4855610">
        <ele>704.2</ele>
        <time>2019-08-13T15:14:47Z</time>
      </trkpt>
      <trkpt lat="40.4036350" lon="-4.4856070">
        <ele>704.6</ele>
        <time>2019-08-13T15:14:48Z</time>
      </trkpt>
      <trkpt lat="40.4036620" lon="-4.4856520">
        <ele>704.9</ele>
        <time>2019-08-13T15:14:49Z</time>
      </trkpt>
      <trkpt lat="40.4036900" lon="-4.4856960">
        <ele>705.2</ele>
        <time>2019-08-13T15:14:50Z</time>
      </trkpt>
      <trkpt lat="40.4037180" lon="-4.4857400">
        <ele>705.5</ele>
        <time>2019-08-13T15:14:51Z</time>
      </trkpt>
      <trkpt lat="40.4037470" lon="-4.4857810">
        <ele>705.7</ele>
        <time>2019-08-13T15:14:52Z</time>
      </trkpt>
      <trkpt lat="40.4037780" lon="-4.4858200">
        <ele>705.9</ele>
        <time>2019-08-13T15:14:53Z</time>
      </trkpt>
      <trkpt lat="40.4038120" lon="-4.4858590">
        <ele>706.1</ele>
        <time>2019-08-13T15:14:54Z</time>
      </trkpt>
      <trkpt lat="40.4038460" lon="-4.4858980">
        <ele>706.3</ele>
        <time>2019-08-13T15:14:55Z</time>
      </trkpt>
      <trkpt lat="40.4038770" lon="-4.4859410">
        <ele>706.6</ele>
        <time>2019-08-13T15:14:56Z</time>
      </trkpt>
      <trkpt lat="40.4039050" lon="-4.4859860">
        <ele>706.8</ele>
        <time>2019-08-13T15:14:57Z</time>
      </trkpt>
      <trkpt lat="40.4039330" lon="-4.4860280">
        <ele>707.1</ele>
        <time>2019-08-13T15:14:58Z</time>
      </trkpt>
      <trkpt lat="40.4039630" lon="-4.4860680">
        <ele>707.4</ele>
        <time>2019-08-13T15:14:59Z</time>
      </trkpt>
      <trkpt lat="40.4039890" lon="-4.4861090">
        <ele>707.6</ele>
        <time>2019-08-13T15:15:00Z</time>
      </trkpt>
      <trkpt lat="40.4040120" lon="-4.4861480">
        <ele>707.8</ele>
        <time>2019-08-13T15:15:01Z</time>
      </trkpt>
      <trkpt lat="40.4040360" lon="-4.4861840">
        <ele>708.0</ele>
        <time>2019-08-13T15:15:02Z</time>
      </trkpt>
      <trkpt lat="40.4040610" lon="-4.4862180">
        <ele>708.2</ele>
        <time>2019-08-13T15:15:03Z</time>
      </trkpt>
      <trkpt lat="40.4040860" lon="-4.4862530">
        <ele>708.4</ele>
        <time>2019-08-13T15:15:04Z</time>
      </trkpt>
      <trkpt lat="40.4041090" lon="-4.4862880">
        <ele>708.5</ele>
        <time>2019-08-13T15:15:05Z</time>
      </trkpt>
      <trkpt lat="40.4041320" lon="-4.4863210">
        <ele>708.7</ele>
        <time>2019-08-13T15:15:06Z</time>
      </trkpt>
      <trkpt lat="40.4041550" lon="-4.4863530">
        <ele>708.9</ele>
        <time>2019-08-13T15:15:07Z</time>
      </trkpt>
      <trkpt lat="40.4041790" lon="-4.4863830">
        <ele>709.0</ele>
        <time>2019-08-13T15:15:08Z</time>
      </trkpt>
      <trkpt lat="40.4042030" lon="-4.4864140">
        <ele>709.2</ele>
        <time>2019-08-13T15:15:09Z</time>
      </trkpt>
      <trkpt lat="40.4042270" lon="-4.4864450">
        <ele>709.4</ele>
        <time>2019-08-13T15:15:10Z</time>
      </trkpt>
      <trkpt lat="40.4042510" lon="-4.4864750">
        <ele>709.5</ele>
        <time>2019-08-13T15:15:11Z</time>
      </trkpt>
      <trkpt lat="40.4042750" lon="-4.4865070">
        <ele>709.7</ele>
        <time>2019-08-13T15:15:12Z</time>
      </trkpt>
      <trkpt lat="40.4043010" lon="-4.4865380">
        <ele>709.9</ele>
        <time>2019-08-13T15:15:13Z</time>
      </trkpt>
      <trkpt lat="40.4043250" lon="-4.4865690">
        <ele>710.0</ele>
        <time>2019-08-13T15:15:14Z</time>
      </trkpt>
      <trkpt lat="40.4043510" lon="-4.4865990">
        <ele>710.2</ele>
        <time>2019-08-13T15:15:15Z</time>
      </trkpt>
      <trkpt lat="40.4043760" lon="-4.4866310">
        <ele>710.5</ele>
        <time>2019-08-13T15:15:16Z</time>
      </trkpt>
      <trkpt lat="40.4044000" lon="-4.4866640">
        <ele>710.8</ele>
        <time>2019-08-13T15:15:17Z</time>
      </trkpt>
      <trkpt lat="40.4044240" lon="-4.4866960">
        <ele>711.0</ele>
        <time>2019-08-13T15:15:18Z</time>
      </trkpt>
      <trkpt lat="40.4044510" lon="-4.4867240">
        <ele>711.3</ele>
        <time>2019-08-13T15:15:19Z</time>
      </trkpt>
      <trkpt lat="40.4044790" lon="-4.4867490">
        <ele>711.6</ele>
        <time>2019-08-13T15:15:20Z</time>
      </trkpt>
      <trkpt lat="40.4045090" lon="-4.4867730">
        <ele>711.8</ele>
        <time>2019-08-13T15:15:21Z</time>
      </trkpt>
      <trkpt lat="40.4045390" lon="-4.4867960">
        <ele>712.1</ele>
        <time>2019-08-13T15:15:22Z</time>
      </trkpt>
      <trkpt lat="40.4045690" lon="-4.4868180">
        <ele>712.3</ele>
        <time>2019-08-13T15:15:23Z</time>
      </trkpt>
      <trkpt lat="40.4045970" lon="-4.4868420">
        <ele>712.5</ele>
        <time>2019-08-13T15:15:24Z</time>
      </trkpt>
      <trkpt lat="40.4046220" lon="-4.4868680">
        <ele>712.7</ele>
        <time>2019-08-13T15:15:25Z</time>
      </trkpt>
      <trkpt lat="40.4046460" lon="-4.4868940">
        <ele>712.9</ele>
        <time>2019-08-13T15:15:26Z</time>
      </trkpt>
      <trkpt lat="40.4046710" lon="-4.4869200">
        <ele>713.0</ele>
        <time>2019-08-13T15:15:27Z</time>
      </trkpt>
      <trkpt lat="40.4046950" lon="-4.4869440">
        <ele>713.2</ele>
        <time>2019-08-13T15:15:28Z</time>
      </trkpt>
      <trkpt lat="40.4047190" lon="-4.4869670">
        <ele>713.3</ele>
        <time>2019-08-13T15:15:29Z</time>
      </trkpt>
      <trkpt lat="40.4047420" lon="-4.4869910">
        <ele>713.4</ele>
        <time>2019-08-13T15:15:30Z</time>
      </trkpt>
      <trkpt lat="40.4047670" lon="-4.4870150">
        <ele>713.6</ele>
        <time>2019-08-13T15:15:31Z</time>
      </trkpt>
      <trkpt lat="40.4047910" lon="-4.4870380">
        <ele>713.7</ele>
        <time>2019-08-13T15:15:32Z</time>
      </trkpt>
      <trkpt lat="40.4048160" lon="-4.4870600">
        <ele>713.9</ele>
        <time>2019-08-13T15:15:33Z</time>
      </trkpt>
      <trkpt lat="40.4048410" lon="-4.4870830">
        <ele>714.0</ele>
        <time>2019-08-13T15:15:34Z</time>
      </trkpt>
      <trkpt lat="40.4048660" lon="-4.4871050">
        <ele>714.1</ele>
        <time>2019-08-13T15:15:35Z</time>
      </trkpt>
      <trkpt lat="40.4048920" lon="-4.4871270">
        <ele>714.3</ele>
        <time>2019-08-13T15:15:36Z</time>
      </trkpt>
      <trkpt lat="40.4049180" lon="-4.4871500">
        <ele>714.3</ele>
        <time>2019-08-13T15:15:37Z</time>
      </trkpt>
      <trkpt lat="40.4049440" lon="-4.4871720">
        <ele>714.4</ele>
        <time>2019-08-13T15:15:38Z</time>
      </trkpt>
      <trkpt lat="40.4049710" lon="-4.4871940">
        <ele>714.5</ele>
        <time>2019-08-13T15:15:39Z</time>
      </trkpt>
      <trkpt lat="40.4049980" lon="-4.4872160">
        <ele>714.5</ele>
        <time>2019-08-13T15:15:40Z</time>
      </trkpt>
      <trkpt lat="40.4050250" lon="-4.4872370">
        <ele>714.6</ele>
        <time>2019-08-13T15:15:41Z</time>
      </trkpt>
      <trkpt lat="40.4050530" lon="-4.4872570">
        <ele>714.6</ele>
        <time>2019-08-13T15:15:42Z</time>
      </trkpt>
      <trkpt lat="40.4050800" lon="-4.4872780">
        <ele>714.7</ele>
        <time>2019-08-13T15:15:43Z</time>
      </trkpt>
      <trkpt lat="40.4051070" lon="-4.4872990">
        <ele>714.7</ele>
        <time>2019-08-13T15:15:44Z</time>
      </trkpt>
      <trkpt lat="40.4051340" lon="-4.4873200">
        <ele>714.8</ele>
        <time>2019-08-13T15:15:45Z</time>
      </trkpt>
      <trkpt lat="40.4051610" lon="-4.4873400">
        <ele>714.8</ele>
        <time>2019-08-13T15:15:46Z</time>
      </trkpt>
      <trkpt lat="40.4051880" lon="-4.4873600">
        <ele>714.8</ele>
        <time>2019-08-13T15:15:47Z</time>
      </trkpt>
      <trkpt lat="40.4052150" lon="-4.4873800">
        <ele>714.8</ele>
        <time>2019-08-13T15:15:48Z</time>
      </trkpt>
      <trkpt lat="40.4052420" lon="-4.4873990">
        <ele>714.8</ele>
        <time>2019-08-13T15:15:49Z</time>
      </trkpt>
      <trkpt lat="40.4052700" lon="-4.4874180">
        <ele>714.9</ele>
        <time>2019-08-13T15:15:50Z</time>
      </trkpt>
      <trkpt lat="40.4052980" lon="-4.4874360">
        <ele>714.9</ele>
        <time>2019-08-13T15:15:51Z</time>
      </trkpt>
      <trkpt lat="40.4053260" lon="-4.4874560">
        <ele>714.9</ele>
        <time>2019-08-13T15:15:52Z</time>
      </trkpt>
      <trkpt lat="40.4053540" lon="-4.4874740">
        <ele>714.9</ele>
        <time>2019-08-13T15:15:53Z</time>
      </trkpt>
      <trkpt lat="40.4053820" lon="-4.4874920">
        <ele>714.9</ele>
        <time>2019-08-13T15:15:54Z</time>
      </trkpt>
      <trkpt lat="40.4054100" lon="-4.4875100">
        <ele>714.9</ele>
        <time>2019-08-13T15:15:55Z</time>
      </trkpt>
      <trkpt lat="40.4054380" lon="-4.4875270">
        <ele>714.8</ele>
        <time>2019-08-13T15:15:56Z</time>
      </trkpt>
      <trkpt lat="40.4054660" lon="-4.4875430">
        <ele>714.8</ele>
        <time>2019-08-13T15:15:57Z</time>
      </trkpt>
      <trkpt lat="40.4054940" lon="-4.4875590">
        <ele>714.8</ele>
        <time>2019-08-13T15:15:58Z</time>
      </trkpt>
      <trkpt lat="40.4055230" lon="-4.4875750">
        <ele>714.8</ele>
        <time>2019-08-13T15:15:59Z</time>
      </trkpt>
      <trkpt lat="40.4055520" lon="-4.4875910">
        <ele>714.8</ele>
        <time>2019-08-13T15:16:00Z</time>
      </trkpt>
      <trkpt lat="40.4055810" lon="-4.4876080">
        <ele>714.8</ele>
        <time>2019-08-13T15:16:01Z</time>
      </trkpt>
      <trkpt lat="40.4056110" lon="-4.4876260">
        <ele>714.7</ele>
        <time>2019-08-13T15:16:02Z</time>
      </trkpt>
      <trkpt lat="40.4056420" lon="-4.4876420">
        <ele>714.7</ele>
        <time>2019-08-13T15:16:03Z</time>
      </trkpt>
      <trkpt lat="40.4056730" lon="-4.4876590">
        <ele>714.7</ele>
        <time>2019-08-13T15:16:04Z</time>
      </trkpt>
      <trkpt lat="40.4057050" lon="-4.4876760">
        <ele>714.7</ele>
        <time>2019-08-13T15:16:05Z</time>
      </trkpt>
      <trkpt lat="40.4057370" lon="-4.4876940">
        <ele>714.7</ele>
        <time>2019-08-13T15:16:06Z</time>
      </trkpt>
      <trkpt lat="40.4057690" lon="-4.4877110">
        <ele>714.7</ele>
        <time>2019-08-13T15:16:07Z</time>
      </trkpt>
      <trkpt lat="40.4058010" lon="-4.4877270">
        <ele>714.6</ele>
        <time>2019-08-13T15:16:08Z</time>
      </trkpt>
      <trkpt lat="40.4058340" lon="-4.4877440">
        <ele>714.6</ele>
        <time>2019-08-13T15:16:09Z</time>
      </trkpt>
      <trkpt lat="40.4058670" lon="-4.4877600">
        <ele>714.6</ele>
        <time>2019-08-13T15:16:10Z</time>
      </trkpt>
      <trkpt lat="40.4059000" lon="-4.4877760">
        <ele>714.6</ele>
        <time>2019-08-13T15:16:11Z</time>
      </trkpt>
      <trkpt lat="40.4059340" lon="-4.4877910">
        <ele>714.6</ele>
        <time>2019-08-13T15:16:12Z</time>
      </trkpt>
      <trkpt lat="40.4059690" lon="-4.4878060">
        <ele>714.5</ele>
        <time>2019-08-13T15:16:13Z</time>
      </trkpt>
      <trkpt lat="40.4060030" lon="-4.4878210">
        <ele>714.5</ele>
        <time>2019-08-13T15:16:14Z</time>
      </trkpt>
      <trkpt lat="40.4060390" lon="-4.4878360">
        <ele>714.5</ele>
        <time>2019-08-13T15:16:15Z</time>
      </trkpt>
      <trkpt lat="40.4060760" lon="-4.4878510">
        <ele>714.5</ele>
        <time>2019-08-13T15:16:16Z</time>
      </trkpt>
      <trkpt lat="40.4061130" lon="-4.4878650">
        <ele>714.5</ele>
        <time>2019-08-13T15:16:17Z</time>
      </trkpt>
      <trkpt lat="40.4061510" lon="-4.4878790">
        <ele>714.6</ele>
        <time>2019-08-13T15:16:18Z</time>
      </trkpt>
      <trkpt lat="40.4061900" lon="-4.4878930">
        <ele>714.6</ele>
        <time>2019-08-13T15:16:19Z</time>
      </trkpt>
      <trkpt lat="40.4062290" lon="-4.4879060">
        <ele>714.6</ele>
        <time>2019-08-13T15:16:20Z</time>
      </trkpt>
      <trkpt lat="40.4062700" lon="-4.4879180">
        <ele>714.6</ele>
        <time>2019-08-13T15:16:21Z</time>
      </trkpt>
      <trkpt lat="40.4063100" lon="-4.4879310">
        <ele>714.5</ele>
        <time>2019-08-13T15:16:22Z</time>
      </trkpt>
      <trkpt lat="40.4063520" lon="-4.4879440">
        <ele>714.4</ele>
        <time>2019-08-13T15:16:23Z</time>
      </trkpt>
      <trkpt lat="40.4063940" lon="-4.4879560">
        <ele>714.4</ele>
        <time>2019-08-13T15:16:24Z</time>
      </trkpt>
      <trkpt lat="40.4064360" lon="-4.4879690">
        <ele>714.3</ele>
        <time>2019-08-13T15:16:25Z</time>
      </trkpt>
      <trkpt lat="40.4064780" lon="-4.4879810">
        <ele>714.2</ele>
        <time>2019-08-13T15:16:26Z</time>
      </trkpt>
      <trkpt lat="40.4065190" lon="-4.4879930">
        <ele>714.1</ele>
        <time>2019-08-13T15:16:27Z</time>
      </trkpt>
      <trkpt lat="40.4065610" lon="-4.4880020">
        <ele>714.0</ele>
        <time>2019-08-13T15:16:28Z</time>
      </trkpt>
      <trkpt lat="40.4066030" lon="-4.4880120">
        <ele>713.8</ele>
        <time>2019-08-13T15:16:29Z</time>
      </trkpt>
      <trkpt lat="40.4066480" lon="-4.4880210">
        <ele>713.7</ele>
        <time>2019-08-13T15:16:30Z</time>
      </trkpt>
      <trkpt lat="40.4066940" lon="-4.4880300">
        <ele>713.5</ele>
        <time>2019-08-13T15:16:31Z</time>
      </trkpt>
      <trkpt lat="40.4067410" lon="-4.4880390">
        <ele>713.3</ele>
        <time>2019-08-13T15:16:32Z</time>
      </trkpt>
      <trkpt lat="40.4067870" lon="-4.4880470">
        <ele>713.1</ele>
        <time>2019-08-13T15:16:33Z</time>
      </trkpt>
      <trkpt lat="40.4068360" lon="-4.4880530">
        <ele>712.9</ele>
        <time>2019-08-13T15:16:34Z</time>
      </trkpt>
      <trkpt lat="40.4068860" lon="-4.4880590">
        <ele>712.7</ele>
        <time>2019-08-13T15:16:35Z</time>
      </trkpt>
      <trkpt lat="40.4069380" lon="-4.4880660">
        <ele>712.5</ele>
        <time>2019-08-13T15:16:36Z</time>
      </trkpt>
      <trkpt lat="40.4069910" lon="-4.4880720">
        <ele>712.3</ele>
        <time>2019-08-13T15:16:37Z</time>
      </trkpt>
      <trkpt lat="40.4070460" lon="-4.4880780">
        <ele>712.1</ele>
        <time>2019-08-13T15:16:38Z</time>
      </trkpt>
      <trkpt lat="40.4070990" lon="-4.4880830">
        <ele>711.9</ele>
        <time>2019-08-13T15:16:39Z</time>
      </trkpt>
      <trkpt lat="40.4071520" lon="-4.4880860">
        <ele>711.7</ele>
        <time>2019-08-13T15:16:40Z</time>
      </trkpt>
      <trkpt lat="40.4072050" lon="-4.4880880">
        <ele>711.5</ele>
        <time>2019-08-13T15:16:41Z</time>
      </trkpt>
      <trkpt lat="40.4072600" lon="-4.4880890">
        <ele>711.2</ele>
        <time>2019-08-13T15:16:42Z</time>
      </trkpt>
      <trkpt lat="40.4073160" lon="-4.4880910">
        <ele>710.9</ele>
        <time>2019-08-13T15:16:43Z</time>
      </trkpt>
      <trkpt lat="40.4073730" lon="-4.4880930">
        <ele>710.5</ele>
        <time>2019-08-13T15:16:44Z</time>
      </trkpt>
      <trkpt lat="40.4074310" lon="-4.4880960">
        <ele>710.0</ele>
        <time>2019-08-13T15:16:45Z</time>
      </trkpt>
      <trkpt lat="40.4074890" lon="-4.4880990">
        <ele>709.6</ele>
        <time>2019-08-13T15:16:46Z</time>
      </trkpt>
      <trkpt lat="40.4075470" lon="-4.4881020">
        <ele>709.3</ele>
        <time>2019-08-13T15:16:47Z</time>
      </trkpt>
      <trkpt lat="40.4076050" lon="-4.4881060">
        <ele>709.2</ele>
        <time>2019-08-13T15:16:48Z</time>
      </trkpt>
      <trkpt lat="40.4076640" lon="-4.4881080">
        <ele>709.1</ele>
        <time>2019-08-13T15:16:49Z</time>
      </trkpt>
      <trkpt lat="40.4077240" lon="-4.4881080">
        <ele>708.9</ele>
        <time>2019-08-13T15:16:50Z</time>
      </trkpt>
      <trkpt lat="40.4077850" lon="-4.4881090">
        <ele>708.7</ele>
        <time>2019-08-13T15:16:51Z</time>
      </trkpt>
      <trkpt lat="40.4078440" lon="-4.4881120">
        <ele>708.4</ele>
        <time>2019-08-13T15:16:52Z</time>
      </trkpt>
      <trkpt lat="40.4079040" lon="-4.4881140">
        <ele>708.1</ele>
        <time>2019-08-13T15:16:53Z</time>
      </trkpt>
      <trkpt lat="40.4079640" lon="-4.4881150">
        <ele>707.8</ele>
        <time>2019-08-13T15:16:54Z</time>
      </trkpt>
      <trkpt lat="40.4080250" lon="-4.4881170">
        <ele>707.5</ele>
        <time>2019-08-13T15:16:55Z</time>
      </trkpt>
      <trkpt lat="40.4080860" lon="-4.4881180">
        <ele>707.3</ele>
        <time>2019-08-13T15:16:56Z</time>
      </trkpt>
      <trkpt lat="40.4081470" lon="-4.4881200">
        <ele>707.0</ele>
        <time>2019-08-13T15:16:57Z</time>
      </trkpt>
      <trkpt lat="40.4082090" lon="-4.4881220">
        <ele>706.8</ele>
        <time>2019-08-13T15:16:58Z</time>
      </trkpt>
      <trkpt lat="40.4082730" lon="-4.4881230">
        <ele>706.6</ele>
        <time>2019-08-13T15:16:59Z</time>
      </trkpt>
      <trkpt lat="40.4083370" lon="-4.4881250">
        <ele>706.4</ele>
        <time>2019-08-13T15:17:00Z</time>
      </trkpt>
      <trkpt lat="40.4084020" lon="-4.4881280">
        <ele>706.2</ele>
        <time>2019-08-13T15:17:01Z</time>
      </trkpt>
      <trkpt lat="40.4084700" lon="-4.4881300">
        <ele>705.9</ele>
        <time>2019-08-13T15:17:02Z</time>
      </trkpt>
      <trkpt lat="40.4085380" lon="-4.4881320">
        <ele>705.7</ele>
        <time>2019-08-13T15:17:03Z</time>
      </trkpt>
      <trkpt lat="40.4086060" lon="-4.4881330">
        <ele>705.5</ele>
        <time>2019-08-13T15:17:04Z</time>
      </trkpt>
      <trkpt lat="40.4086770" lon="-4.4881340">
        <ele>705.3</ele>
        <time>2019-08-13T15:17:05Z</time>
      </trkpt>
      <trkpt lat="40.4087470" lon="-4.4881360">
        <ele>705.1</ele>
        <time>2019-08-13T15:17:06Z</time>
      </trkpt>
      <trkpt lat="40.4088190" lon="-4.4881390">
        <ele>704.8</ele>
        <time>2019-08-13T15:17:07Z</time>
      </trkpt>
      <trkpt lat="40.4088920" lon="-4.4881430">
        <ele>704.5</ele>
        <time>2019-08-13T15:17:08Z</time>
      </trkpt>
      <trkpt lat="40.4089670" lon="-4.4881440">
        <ele>704.1</ele>
        <time>2019-08-13T15:17:09Z</time>
      </trkpt>
      <trkpt lat="40.4090420" lon="-4.4881470">
        <ele>703.8</ele>
        <time>2019-08-13T15:17:10Z</time>
      </trkpt>
      <trkpt lat="40.4091180" lon="-4.4881490">
        <ele>703.6</ele>
        <time>2019-08-13T15:17:11Z</time>
      </trkpt>
      <trkpt lat="40.4091950" lon="-4.4881510">
        <ele>703.5</ele>
        <time>2019-08-13T15:17:12Z</time>
      </trkpt>
      <trkpt lat="40.4092740" lon="-4.4881530">
        <ele>703.4</ele>
        <time>2019-08-13T15:17:13Z</time>
      </trkpt>
      <trkpt lat="40.4093540" lon="-4.4881540">
        <ele>703.4</ele>
        <time>2019-08-13T15:17:14Z</time>
      </trkpt>
      <trkpt lat="40.4094330" lon="-4.4881560">
        <ele>703.2</ele>
        <time>2019-08-13T15:17:15Z</time>
      </trkpt>
      <trkpt lat="40.4095120" lon="-4.4881580">
        <ele>703.0</ele>
        <time>2019-08-13T15:17:16Z</time>
      </trkpt>
      <trkpt lat="40.4095900" lon="-4.4881600">
        <ele>702.7</ele>
        <time>2019-08-13T15:17:17Z</time>
      </trkpt>
      <trkpt lat="40.4096680" lon="-4.4881620">
        <ele>702.4</ele>
        <time>2019-08-13T15:17:18Z</time>
      </trkpt>
      <trkpt lat="40.4097460" lon="-4.4881620">
        <ele>702.0</ele>
        <time>2019-08-13T15:17:19Z</time>
      </trkpt>
      <trkpt lat="40.4098240" lon="-4.4881640">
        <ele>701.7</ele>
        <time>2019-08-13T15:17:20Z</time>
      </trkpt>
      <trkpt lat="40.4099030" lon="-4.4881670">
        <ele>701.3</ele>
        <time>2019-08-13T15:17:21Z</time>
      </trkpt>
      <trkpt lat="40.4099820" lon="-4.4881690">
        <ele>700.9</ele>
        <time>2019-08-13T15:17:22Z</time>
      </trkpt>
      <trkpt lat="40.4100630" lon="-4.4881710">
        <ele>700.7</ele>
        <time>2019-08-13T15:17:23Z</time>
      </trkpt>
      <trkpt lat="40.4101450" lon="-4.4881740">
        <ele>700.4</ele>
        <time>2019-08-13T15:17:24Z</time>
      </trkpt>
      <trkpt lat="40.4102270" lon="-4.4881770">
        <ele>700.2</ele>
        <time>2019-08-13T15:17:25Z</time>
      </trkpt>
      <trkpt lat="40.4103090" lon="-4.4881800">
        <ele>700.0</ele>
        <time>2019-08-13T15:17:26Z</time>
      </trkpt>
      <trkpt lat="40.4103900" lon="-4.4881820">
        <ele>699.7</ele>
        <time>2019-08-13T15:17:27Z</time>
      </trkpt>
      <trkpt lat="40.4104720" lon="-4.4881840">
        <ele>699.3</ele>
        <time>2019-08-13T15:17:28Z</time>
      </trkpt>
      <trkpt lat="40.4105540" lon="-4.4881860">
        <ele>698.8</ele>
        <time>2019-08-13T15:17:29Z</time>
      </trkpt>
      <trkpt lat="40.4106360" lon="-4.4881910">
        <ele>698.4</ele>
        <time>2019-08-13T15:17:30Z</time>
      </trkpt>
      <trkpt lat="40.4107180" lon="-4.4881940">
        <ele>698.0</ele>
        <time>2019-08-13T15:17:31Z</time>
      </trkpt>
      <trkpt lat="40.4108010" lon="-4.4881970">
        <ele>697.8</ele>
        <time>2019-08-13T15:17:32Z</time>
      </trkpt>
      <trkpt lat="40.4108840" lon="-4.4882000">
        <ele>697.6</ele>
        <time>2019-08-13T15:17:33Z</time>
      </trkpt>
      <trkpt lat="40.4109660" lon="-4.4882030">
        <ele>697.4</ele>
        <time>2019-08-13T15:17:34Z</time>
      </trkpt>
      <trkpt lat="40.4110480" lon="-4.4882070">
        <ele>697.1</ele>
        <time>2019-08-13T15:17:35Z</time>
      </trkpt>
      <trkpt lat="40.4111320" lon="-4.4882100">
        <ele>696.7</ele>
        <time>2019-08-13T15:17:36Z</time>
      </trkpt>
      <trkpt lat="40.4112140" lon="-4.4882140">
        <ele>696.4</ele>
        <time>2019-08-13T15:17:37Z</time>
      </trkpt>
      <trkpt lat="40.4112970" lon="-4.4882170">
        <ele>696.0</ele>
        <time>2019-08-13T15:17:38Z</time>
      </trkpt>
      <trkpt lat="40.4113800" lon="-4.4882210">
        <ele>695.7</ele>
        <time>2019-08-13T15:17:39Z</time>
      </trkpt>
      <trkpt lat="40.4114620" lon="-4.4882220">
        <ele>695.3</ele>
        <time>2019-08-13T15:17:40Z</time>
      </trkpt>
      <trkpt lat="40.4115460" lon="-4.4882260">
        <ele>695.0</ele>
        <time>2019-08-13T15:17:41Z</time>
      </trkpt>
      <trkpt lat="40.4116290" lon="-4.4882300">
        <ele>694.9</ele>
        <time>2019-08-13T15:17:42Z</time>
      </trkpt>
      <trkpt lat="40.4117150" lon="-4.4882320">
        <ele>694.7</ele>
        <time>2019-08-13T15:17:43Z</time>
      </trkpt>
      <trkpt lat="40.4118000" lon="-4.4882360">
        <ele>694.6</ele>
        <time>2019-08-13T15:17:44Z</time>
      </trkpt>
      <trkpt lat="40.4118840" lon="-4.4882400">
        <ele>694.5</ele>
        <time>2019-08-13T15:17:45Z</time>
      </trkpt>
      <trkpt lat="40.4119700" lon="-4.4882430">
        <ele>694.3</ele>
        <time>2019-08-13T15:17:46Z</time>
      </trkpt>
      <trkpt lat="40.4120540" lon="-4.4882460">
        <ele>694.1</ele>
        <time>2019-08-13T15:17:47Z</time>
      </trkpt>
      <trkpt lat="40.4121400" lon="-4.4882480">
        <ele>693.8</ele>
        <time>2019-08-13T15:17:48Z</time>
      </trkpt>
      <trkpt lat="40.4122250" lon="-4.4882500">
        <ele>693.6</ele>
        <time>2019-08-13T15:17:49Z</time>
      </trkpt>
      <trkpt lat="40.4123110" lon="-4.4882520">
        <ele>693.3</ele>
        <time>2019-08-13T15:17:50Z</time>
      </trkpt>
      <trkpt lat="40.4123970" lon="-4.4882550">
        <ele>693.0</ele>
        <time>2019-08-13T15:17:51Z</time>
      </trkpt>
      <trkpt lat="40.4124840" lon="-4.4882580">
        <ele>692.7</ele>
        <time>2019-08-13T15:17:52Z</time>
      </trkpt>
      <trkpt lat="40.4125710" lon="-4.4882610">
        <ele>692.5</ele>
        <time>2019-08-13T15:17:53Z</time>
      </trkpt>
      <trkpt lat="40.4126600" lon="-4.4882630">
        <ele>692.2</ele>
        <time>2019-08-13T15:17:54Z</time>
      </trkpt>
      <trkpt lat="40.4127480" lon="-4.4882660">
        <ele>692.0</ele>
        <time>2019-08-13T15:17:55Z</time>
      </trkpt>
      <trkpt lat="40.4128380" lon="-4.4882700">
        <ele>691.6</ele>
        <time>2019-08-13T15:17:56Z</time>
      </trkpt>
      <trkpt lat="40.4129270" lon="-4.4882710">
        <ele>691.1</ele>
        <time>2019-08-13T15:17:57Z</time>
      </trkpt>
      <trkpt lat="40.4130170" lon="-4.4882730">
        <ele>690.6</ele>
        <time>2019-08-13T15:17:58Z</time>
      </trkpt>
      <trkpt lat="40.4131080" lon="-4.4882760">
        <ele>690.1</ele>
        <time>2019-08-13T15:17:59Z</time>
      </trkpt>
      <trkpt lat="40.4132000" lon="-4.4882790">
        <ele>689.7</ele>
        <time>2019-08-13T15:18:00Z</time>
      </trkpt>
      <trkpt lat="40.4132900" lon="-4.4882800">
        <ele>689.3</ele>
        <time>2019-08-13T15:18:01Z</time>
      </trkpt>
      <trkpt lat="40.4133800" lon="-4.4882820">
        <ele>689.1</ele>
        <time>2019-08-13T15:18:02Z</time>
      </trkpt>
      <trkpt lat="40.4134710" lon="-4.4882850">
        <ele>689.0</ele>
        <time>2019-08-13T15:18:03Z</time>
      </trkpt>
      <trkpt lat="40.4135600" lon="-4.4882870">
        <ele>689.0</ele>
        <time>2019-08-13T15:18:04Z</time>
      </trkpt>
      <trkpt lat="40.4136510" lon="-4.4882900">
        <ele>689.0</ele>
        <time>2019-08-13T15:18:05Z</time>
      </trkpt>
      <trkpt lat="40.4137410" lon="-4.4882930">
        <ele>688.8</ele>
        <time>2019-08-13T15:18:06Z</time>
      </trkpt>
      <trkpt lat="40.4138330" lon="-4.4882950">
        <ele>688.6</ele>
        <time>2019-08-13T15:18:07Z</time>
      </trkpt>
      <trkpt lat="40.4139240" lon="-4.4882960">
        <ele>688.4</ele>
        <time>2019-08-13T15:18:08Z</time>
      </trkpt>
      <trkpt lat="40.4140160" lon="-4.4882990">
        <ele>688.1</ele>
        <time>2019-08-13T15:18:09Z</time>
      </trkpt>
      <trkpt lat="40.4141100" lon="-4.4883030">
        <ele>687.8</ele>
        <time>2019-08-13T15:18:10Z</time>
      </trkpt>
      <trkpt lat="40.4142040" lon="-4.4883050">
        <ele>687.5</ele>
        <time>2019-08-13T15:18:11Z</time>
      </trkpt>
      <trkpt lat="40.4142980" lon="-4.4883080">
        <ele>687.3</ele>
        <time>2019-08-13T15:18:12Z</time>
      </trkpt>
      <trkpt lat="40.4143930" lon="-4.4883110">
        <ele>686.9</ele>
        <time>2019-08-13T15:18:13Z</time>
      </trkpt>
      <trkpt lat="40.4144870" lon="-4.4883150">
        <ele>686.5</ele>
        <time>2019-08-13T15:18:14Z</time>
      </trkpt>
      <trkpt lat="40.4145820" lon="-4.4883190">
        <ele>686.1</ele>
        <time>2019-08-13T15:18:15Z</time>
      </trkpt>
      <trkpt lat="40.4146740" lon="-4.4883220">
        <ele>685.6</ele>
        <time>2019-08-13T15:18:16Z</time>
      </trkpt>
      <trkpt lat="40.4147660" lon="-4.4883260">
        <ele>685.2</ele>
        <time>2019-08-13T15:18:17Z</time>
      </trkpt>
      <trkpt lat="40.4148580" lon="-4.4883290">
        <ele>684.9</ele>
        <time>2019-08-13T15:18:18Z</time>
      </trkpt>
      <trkpt lat="40.4149510" lon="-4.4883320">
        <ele>684.7</ele>
        <time>2019-08-13T15:18:19Z</time>
      </trkpt>
      <trkpt lat="40.4150420" lon="-4.4883350">
        <ele>684.6</ele>
        <time>2019-08-13T15:18:20Z</time>
      </trkpt>
      <trkpt lat="40.4151330" lon="-4.4883380">
        <ele>684.4</ele>
        <time>2019-08-13T15:18:21Z</time>
      </trkpt>
      <trkpt lat="40.4152230" lon="-4.4883420">
        <ele>684.2</ele>
        <time>2019-08-13T15:18:22Z</time>
      </trkpt>
      <trkpt lat="40.4153140" lon="-4.4883460">
        <ele>683.8</ele>
        <time>2019-08-13T15:18:23Z</time>
      </trkpt>
      <trkpt lat="40.4154040" lon="-4.4883500">
        <ele>683.4</ele>
        <time>2019-08-13T15:18:24Z</time>
      </trkpt>
      <trkpt lat="40.4154940" lon="-4.4883540">
        <ele>683.1</ele>
        <time>2019-08-13T15:18:25Z</time>
      </trkpt>
      <trkpt lat="40.4155830" lon="-4.4883590">
        <ele>682.8</ele>
        <time>2019-08-13T15:18:26Z</time>
      </trkpt>
      <trkpt lat="40.4156710" lon="-4.4883640">
        <ele>682.7</ele>
        <time>2019-08-13T15:18:27Z</time>
      </trkpt>
      <trkpt lat="40.4157600" lon="-4.4883710">
        <ele>682.7</ele>
        <time>2019-08-13T15:18:28Z</time>
      </trkpt>
      <trkpt lat="40.4158480" lon="-4.4883800">
        <ele>682.6</ele>
        <time>2019-08-13T15:18:29Z</time>
      </trkpt>
      <trkpt lat="40.4159350" lon="-4.4883910">
        <ele>682.4</ele>
        <time>2019-08-13T15:18:30Z</time>
      </trkpt>
      <trkpt lat="40.4160180" lon="-4.4884040">
        <ele>682.0</ele>
        <time>2019-08-13T15:18:31Z</time>
      </trkpt>
      <trkpt lat="40.4161000" lon="-4.4884180">
        <ele>681.6</ele>
        <time>2019-08-13T15:18:32Z</time>
      </trkpt>
      <trkpt lat="40.4161820" lon="-4.4884330">
        <ele>681.0</ele>
        <time>2019-08-13T15:18:33Z</time>
      </trkpt>
      <trkpt lat="40.4162640" lon="-4.4884520">
        <ele>680.6</ele>
        <time>2019-08-13T15:18:34Z</time>
      </trkpt>
      <trkpt lat="40.4163460" lon="-4.4884740">
        <ele>680.2</ele>
        <time>2019-08-13T15:18:35Z</time>
      </trkpt>
      <trkpt lat="40.4164300" lon="-4.4884990">
        <ele>679.8</ele>
        <time>2019-08-13T15:18:36Z</time>
      </trkpt>
      <trkpt lat="40.4165130" lon="-4.4885260">
        <ele>679.5</ele>
        <time>2019-08-13T15:18:37Z</time>
      </trkpt>
      <trkpt lat="40.4165960" lon="-4.4885580">
        <ele>679.3</ele>
        <time>2019-08-13T15:18:38Z</time>
      </trkpt>
      <trkpt lat="40.4166800" lon="-4.4885900">
        <ele>678.9</ele>
        <time>2019-08-13T15:18:39Z</time>
      </trkpt>
      <trkpt lat="40.4167610" lon="-4.4886230">
        <ele>678.5</ele>
        <time>2019-08-13T15:18:40Z</time>
      </trkpt>
      <trkpt lat="40.4168420" lon="-4.4886590">
        <ele>678.1</ele>
        <time>2019-08-13T15:18:41Z</time>
      </trkpt>
      <trkpt lat="40.4169240" lon="-4.4887000">
        <ele>677.6</ele>
        <time>2019-08-13T15:18:42Z</time>
      </trkpt>
      <trkpt lat="40.4170050" lon="-4.4887460">
        <ele>677.3</ele>
        <time>2019-08-13T15:18:43Z</time>
      </trkpt>
      <trkpt lat="40.4170850" lon="-4.4887960">
        <ele>676.9</ele>
        <time>2019-08-13T15:18:44Z</time>
      </trkpt>
      <trkpt lat="40.4171650" lon="-4.4888480">
        <ele>676.7</ele>
        <time>2019-08-13T15:18:45Z</time>
      </trkpt>
      <trkpt lat="40.4172460" lon="-4.4888990">
        <ele>676.6</ele>
        <time>2019-08-13T15:18:46Z</time>
      </trkpt>
      <trkpt lat="40.4173270" lon="-4.4889550">
        <ele>676.6</ele>
        <time>2019-08-13T15:18:47Z</time>
      </trkpt>
      <trkpt lat="40.4174050" lon="-4.4890140">
        <ele>676.6</ele>
        <time>2019-08-13T15:18:48Z</time>
      </trkpt>
      <trkpt lat="40.4174830" lon="-4.4890750">
        <ele>676.6</ele>
        <time>2019-08-13T15:18:49Z</time>
      </trkpt>
      <trkpt lat="40.4175600" lon="-4.4891390">
        <ele>676.6</ele>
        <time>2019-08-13T15:18:50Z</time>
      </trkpt>
      <trkpt lat="40.4176360" lon="-4.4892060">
        <ele>676.6</ele>
        <time>2019-08-13T15:18:51Z</time>
      </trkpt>
      <trkpt lat="40.4177100" lon="-4.4892770">
        <ele>676.5</ele>
        <time>2019-08-13T15:18:52Z</time>
      </trkpt>
      <trkpt lat="40.4177840" lon="-4.4893510">
        <ele>676.4</ele>
        <time>2019-08-13T15:18:53Z</time>
      </trkpt>
      <trkpt lat="40.4178550" lon="-4.4894260">
        <ele>676.1</ele>
        <time>2019-08-13T15:18:54Z</time>
      </trkpt>
      <trkpt lat="40.4179260" lon="-4.4895050">
        <ele>675.8</ele>
        <time>2019-08-13T15:18:55Z</time>
      </trkpt>
      <trkpt lat="40.4179970" lon="-4.4895850">
        <ele>675.5</ele>
        <time>2019-08-13T15:18:56Z</time>
      </trkpt>
      <trkpt lat="40.4180660" lon="-4.4896690">
        <ele>675.1</ele>
        <time>2019-08-13T15:18:57Z</time>
      </trkpt>
      <trkpt lat="40.4181340" lon="-4.4897580">
        <ele>674.8</ele>
        <time>2019-08-13T15:18:58Z</time>
      </trkpt>
      <trkpt lat="40.4182000" lon="-4.4898500">
        <ele>674.5</ele>
        <time>2019-08-13T15:18:59Z</time>
      </trkpt>
      <trkpt lat="40.4182640" lon="-4.4899400">
        <ele>674.1</ele>
        <time>2019-08-13T15:19:00Z</time>
      </trkpt>
      <trkpt lat="40.4183250" lon="-4.4900320">
        <ele>673.7</ele>
        <time>2019-08-13T15:19:01Z</time>
      </trkpt>
      <trkpt lat="40.4183860" lon="-4.4901250">
        <ele>673.3</ele>
        <time>2019-08-13T15:19:02Z</time>
      </trkpt>
      <trkpt lat="40.4184440" lon="-4.4902200">
        <ele>672.8</ele>
        <time>2019-08-13T15:19:03Z</time>
      </trkpt>
      <trkpt lat="40.4185010" lon="-4.4903190">
        <ele>672.2</ele>
        <time>2019-08-13T15:19:04Z</time>
      </trkpt>
      <trkpt lat="40.4185560" lon="-4.4904180">
        <ele>671.8</ele>
        <time>2019-08-13T15:19:05Z</time>
      </trkpt>
      <trkpt lat="40.4186080" lon="-4.4905200">
        <ele>671.6</ele>
        <time>2019-08-13T15:19:06Z</time>
      </trkpt>
      <trkpt lat="40.4186600" lon="-4.4906200">
        <ele>671.5</ele>
        <time>2019-08-13T15:19:07Z</time>
      </trkpt>
      <trkpt lat="40.4187120" lon="-4.4907200">
        <ele>671.3</ele>
        <time>2019-08-13T15:19:08Z</time>
      </trkpt>
      <trkpt lat="40.4187610" lon="-4.4908220">
        <ele>671.2</ele>
        <time>2019-08-13T15:19:09Z</time>
      </trkpt>
      <trkpt lat="40.4188070" lon="-4.4909260">
        <ele>671.6</ele>
        <time>2019-08-13T15:19:10Z</time>
      </trkpt>
      <trkpt lat="40.4188540" lon="-4.4910300">
        <ele>672.6</ele>
        <time>2019-08-13T15:19:11Z</time>
      </trkpt>
      <trkpt lat="40.4189000" lon="-4.4911330">
        <ele>672.1</ele>
        <time>2019-08-13T15:19:12Z</time>
      </trkpt>
      <trkpt lat="40.4189470" lon="-4.4912370">
        <ele>671.6</ele>
        <time>2019-08-13T15:19:13Z</time>
      </trkpt>
      <trkpt lat="40.4189930" lon="-4.4913400">
        <ele>671.2</ele>
        <time>2019-08-13T15:19:14Z</time>
      </trkpt>
      <trkpt lat="40.4190390" lon="-4.4914420">
        <ele>670.8</ele>
        <time>2019-08-13T15:19:15Z</time>
      </trkpt>
      <trkpt lat="40.4190850" lon="-4.4915440">
        <ele>670.4</ele>
        <time>2019-08-13T15:19:16Z</time>
      </trkpt>
      <trkpt lat="40.4191310" lon="-4.4916460">
        <ele>670.0</ele>
        <time>2019-08-13T15:19:17Z</time>
      </trkpt>
      <trkpt lat="40.4191760" lon="-4.4917470">
        <ele>669.6</ele>
        <time>2019-08-13T15:19:18Z</time>
      </trkpt>
      <trkpt lat="40.4192200" lon="-4.4918480">
        <ele>669.2</ele>
        <time>2019-08-13T15:19:19Z</time>
      </trkpt>
      <trkpt lat="40.4192640" lon="-4.4919480">
        <ele>668.7</ele>
        <time>2019-08-13T15:19:20Z</time>
      </trkpt>
      <trkpt lat="40.4193070" lon="-4.4920440">
        <ele>668.1</ele>
        <time>2019-08-13T15:19:21Z</time>
      </trkpt>
      <trkpt lat="40.4193490" lon="-4.4921380">
        <ele>667.7</ele>
        <time>2019-08-13T15:19:22Z</time>
      </trkpt>
      <trkpt lat="40.4193910" lon="-4.4922320">
        <ele>667.3</ele>
        <time>2019-08-13T15:19:23Z</time>
      </trkpt>
      <trkpt lat="40.4194330" lon="-4.4923230">
        <ele>666.9</ele>
        <time>2019-08-13T15:19:24Z</time>
      </trkpt>
      <trkpt lat="40.4194750" lon="-4.4924130">
        <ele>666.5</ele>
        <time>2019-08-13T15:19:25Z</time>
      </trkpt>
      <trkpt lat="40.4195140" lon="-4.4925010">
        <ele>666.0</ele>
        <time>2019-08-13T15:19:26Z</time>
      </trkpt>
      <trkpt lat="40.4195550" lon="-4.4925870">
        <ele>665.7</ele>
        <time>2019-08-13T15:19:27Z</time>
      </trkpt>
      <trkpt lat="40.4195970" lon="-4.4926700">
        <ele>665.4</ele>
        <time>2019-08-13T15:19:28Z</time>
      </trkpt>
      <trkpt lat="40.4196400" lon="-4.4927520">
        <ele>665.1</ele>
        <time>2019-08-13T15:19:29Z</time>
      </trkpt>
      <trkpt lat="40.4196820" lon="-4.4928330">
        <ele>664.8</ele>
        <time>2019-08-13T15:19:30Z</time>
      </trkpt>
      <trkpt lat="40.4197240" lon="-4.4929120">
        <ele>664.5</ele>
        <time>2019-08-13T15:19:31Z</time>
      </trkpt>
      <trkpt lat="40.4197670" lon="-4.4929890">
        <ele>664.2</ele>
        <time>2019-08-13T15:19:32Z</time>
      </trkpt>
      <trkpt lat="40.4198100" lon="-4.4930640">
        <ele>663.9</ele>
        <time>2019-08-13T15:19:33Z</time>
      </trkpt>
      <trkpt lat="40.4198550" lon="-4.4931370">
        <ele>663.6</ele>
        <time>2019-08-13T15:19:34Z</time>
      </trkpt>
      <trkpt lat="40.4199000" lon="-4.4932100">
        <ele>663.3</ele>
        <time>2019-08-13T15:19:35Z</time>
      </trkpt>
      <trkpt lat="40.4199470" lon="-4.4932800">
        <ele>662.9</ele>
        <time>2019-08-13T15:19:36Z</time>
      </trkpt>
      <trkpt lat="40.4199950" lon="-4.4933490">
        <ele>662.6</ele>
        <time>2019-08-13T15:19:37Z</time>
      </trkpt>
      <trkpt lat="40.4200440" lon="-4.4934170">
        <ele>662.3</ele>
        <time>2019-08-13T15:19:38Z</time>
      </trkpt>
      <trkpt lat="40.4200940" lon="-4.4934820">
        <ele>662.0</ele>
        <time>2019-08-13T15:19:39Z</time>
      </trkpt>
      <trkpt lat="40.4201460" lon="-4.4935450">
        <ele>661.6</ele>
        <time>2019-08-13T15:19:40Z</time>
      </trkpt>
      <trkpt lat="40.4201970" lon="-4.4936060">
        <ele>661.3</ele>
        <time>2019-08-13T15:19:41Z</time>
      </trkpt>
      <trkpt lat="40.4202480" lon="-4.4936660">
        <ele>660.9</ele>
        <time>2019-08-13T15:19:42Z</time>
      </trkpt>
      <trkpt lat="40.4203010" lon="-4.4937260">
        <ele>660.5</ele>
        <time>2019-08-13T15:19:43Z</time>
      </trkpt>
      <trkpt lat="40.4203530" lon="-4.4937840">
        <ele>660.2</ele>
        <time>2019-08-13T15:19:44Z</time>
      </trkpt>
      <trkpt lat="40.4204050" lon="-4.4938400">
        <ele>659.9</ele>
        <time>2019-08-13T15:19:45Z</time>
      </trkpt>
      <trkpt lat="40.4204580" lon="-4.4938950">
        <ele>659.6</ele>
        <time>2019-08-13T15:19:46Z</time>
      </trkpt>
      <trkpt lat="40.4205100" lon="-4.4939480">
        <ele>659.3</ele>
        <time>2019-08-13T15:19:47Z</time>
      </trkpt>
      <trkpt lat="40.4205620" lon="-4.4940020">
        <ele>659.0</ele>
        <time>2019-08-13T15:19:48Z</time>
      </trkpt>
      <trkpt lat="40.4206150" lon="-4.4940530">
        <ele>658.7</ele>
        <time>2019-08-13T15:19:49Z</time>
      </trkpt>
      <trkpt lat="40.4206670" lon="-4.4941020">
        <ele>658.5</ele>
        <time>2019-08-13T15:19:50Z</time>
      </trkpt>
      <trkpt lat="40.4207190" lon="-4.4941500">
        <ele>658.4</ele>
        <time>2019-08-13T15:19:51Z</time>
      </trkpt>
      <trkpt lat="40.4207700" lon="-4.4941950">
        <ele>658.3</ele>
        <time>2019-08-13T15:19:52Z</time>
      </trkpt>
      <trkpt lat="40.4208210" lon="-4.4942380">
        <ele>658.2</ele>
        <time>2019-08-13T15:19:53Z</time>
      </trkpt>
      <trkpt lat="40.4208710" lon="-4.4942800">
        <ele>658.1</ele>
        <time>2019-08-13T15:19:54Z</time>
      </trkpt>
      <trkpt lat="40.4209210" lon="-4.4943220">
        <ele>658.1</ele>
        <time>2019-08-13T15:19:55Z</time>
      </trkpt>
      <trkpt lat="40.4209720" lon="-4.4943640">
        <ele>658.0</ele>
        <time>2019-08-13T15:19:56Z</time>
      </trkpt>
      <trkpt lat="40.4210240" lon="-4.4944050">
        <ele>658.0</ele>
        <time>2019-08-13T15:19:57Z</time>
      </trkpt>
      <trkpt lat="40.4210780" lon="-4.4944440">
        <ele>658.0</ele>
        <time>2019-08-13T15:19:58Z</time>
      </trkpt>
      <trkpt lat="40.4211320" lon="-4.4944800">
        <ele>657.9</ele>
        <time>2019-08-13T15:19:59Z</time>
      </trkpt>
      <trkpt lat="40.4211880" lon="-4.4945120">
        <ele>657.9</ele>
        <time>2019-08-13T15:20:00Z</time>
      </trkpt>
      <trkpt lat="40.4212440" lon="-4.4945430">
        <ele>657.8</ele>
        <time>2019-08-13T15:20:01Z</time>
      </trkpt>
      <trkpt lat="40.4213000" lon="-4.4945730">
        <ele>657.8</ele>
        <time>2019-08-13T15:20:02Z</time>
      </trkpt>
      <trkpt lat="40.4213570" lon="-4.4946020">
        <ele>657.8</ele>
        <time>2019-08-13T15:20:03Z</time>
      </trkpt>
      <trkpt lat="40.4214130" lon="-4.4946320">
        <ele>657.8</ele>
        <time>2019-08-13T15:20:04Z</time>
      </trkpt>
      <trkpt lat="40.4214690" lon="-4.4946620">
        <ele>657.8</ele>
        <time>2019-08-13T15:20:05Z</time>
      </trkpt>
      <trkpt lat="40.4215270" lon="-4.4946900">
        <ele>657.8</ele>
        <time>2019-08-13T15:20:06Z</time>
      </trkpt>
      <trkpt lat="40.4215840" lon="-4.4947160">
        <ele>657.9</ele>
        <time>2019-08-13T15:20:07Z</time>
      </trkpt>
      <trkpt lat="40.4216400" lon="-4.4947410">
        <ele>657.9</ele>
        <time>2019-08-13T15:20:08Z</time>
      </trkpt>
      <trkpt lat="40.4216970" lon="-4.4947660">
        <ele>658.1</ele>
        <time>2019-08-13T15:20:09Z</time>
      </trkpt>
      <trkpt lat="40.4217550" lon="-4.4947900">
        <ele>658.3</ele>
        <time>2019-08-13T15:20:10Z</time>
      </trkpt>
      <trkpt lat="40.4218140" lon="-4.4948140">
        <ele>658.3</ele>
        <time>2019-08-13T15:20:11Z</time>
      </trkpt>
      <trkpt lat="40.4218750" lon="-4.4948360">
        <ele>658.6</ele>
        <time>2019-08-13T15:20:12Z</time>
      </trkpt>
      <trkpt lat="40.4219350" lon="-4.4948570">
        <ele>659.0</ele>
        <time>2019-08-13T15:20:13Z</time>
      </trkpt>
      <trkpt lat="40.4219970" lon="-4.4948750">
        <ele>659.4</ele>
        <time>2019-08-13T15:20:14Z</time>
      </trkpt>
      <trkpt lat="40.4220580" lon="-4.4948920">
        <ele>659.7</ele>
        <time>2019-08-13T15:20:15Z</time>
      </trkpt>
      <trkpt lat="40.4221180" lon="-4.4949090">
        <ele>660.1</ele>
        <time>2019-08-13T15:20:16Z</time>
      </trkpt>
      <trkpt lat="40.4221760" lon="-4.4949230">
        <ele>660.5</ele>
        <time>2019-08-13T15:20:17Z</time>
      </trkpt>
      <trkpt lat="40.4222350" lon="-4.4949350">
        <ele>660.6</ele>
        <time>2019-08-13T15:20:18Z</time>
      </trkpt>
      <trkpt lat="40.4222940" lon="-4.4949420">
        <ele>660.7</ele>
        <time>2019-08-13T15:20:19Z</time>
      </trkpt>
      <trkpt lat="40.4223550" lon="-4.4949420">
        <ele>660.9</ele>
        <time>2019-08-13T15:20:20Z</time>
      </trkpt>
      <trkpt lat="40.4224160" lon="-4.4949430">
        <ele>661.3</ele>
        <time>2019-08-13T15:20:21Z</time>
      </trkpt>
      <trkpt lat="40.4224760" lon="-4.4949460">
        <ele>661.4</ele>
        <time>2019-08-13T15:20:22Z</time>
      </trkpt>
      <trkpt lat="40.4225360" lon="-4.4949520">
        <ele>661.4</ele>
        <time>2019-08-13T15:20:23Z</time>
      </trkpt>
      <trkpt lat="40.4225970" lon="-4.4949580">
        <ele>661.3</ele>
        <time>2019-08-13T15:20:24Z</time>
      </trkpt>
      <trkpt lat="40.4226590" lon="-4.4949640">
        <ele>661.6</ele>
        <time>2019-08-13T15:20:25Z</time>
      </trkpt>
      <trkpt lat="40.4227220" lon="-4.4949690">
        <ele>661.7</ele>
        <time>2019-08-13T15:20:26Z</time>
      </trkpt>
      <trkpt lat="40.4227850" lon="-4.4949730">
        <ele>661.5</ele>
        <time>2019-08-13T15:20:27Z</time>
      </trkpt>
      <trkpt lat="40.4228500" lon="-4.4949750">
        <ele>661.3</ele>
        <time>2019-08-13T15:20:28Z</time>
      </trkpt>
      <trkpt lat="40.4229140" lon="-4.4949760">
        <ele>661.1</ele>
        <time>2019-08-13T15:20:29Z</time>
      </trkpt>
      <trkpt lat="40.4229770" lon="-4.4949780">
        <ele>661.1</ele>
        <time>2019-08-13T15:20:30Z</time>
      </trkpt>
      <trkpt lat="40.4230400" lon="-4.4949780">
        <ele>661.1</ele>
        <time>2019-08-13T15:20:31Z</time>
      </trkpt>
      <trkpt lat="40.4231020" lon="-4.4949760">
        <ele>661.1</ele>
        <time>2019-08-13T15:20:32Z</time>
      </trkpt>
      <trkpt lat="40.4231620" lon="-4.4949740">
        <ele>661.2</ele>
        <time>2019-08-13T15:20:33Z</time>
      </trkpt>
      <trkpt lat="40.4232220" lon="-4.4949710">
        <ele>661.0</ele>
        <time>2019-08-13T15:20:34Z</time>
      </trkpt>
      <trkpt lat="40.4232800" lon="-4.4949680">
        <ele>660.6</ele>
        <time>2019-08-13T15:20:35Z</time>
      </trkpt>
      <trkpt lat="40.4233350" lon="-4.4949650">
        <ele>660.6</ele>
        <time>2019-08-13T15:20:36Z</time>
      </trkpt>
      <trkpt lat="40.4233920" lon="-4.4949610">
        <ele>660.6</ele>
        <time>2019-08-13T15:20:37Z</time>
      </trkpt>
      <trkpt lat="40.4234490" lon="-4.4949570">
        <ele>660.6</ele>
        <time>2019-08-13T15:20:38Z</time>
      </trkpt>
      <trkpt lat="40.4235070" lon="-4.4949530">
        <ele>660.3</ele>
        <time>2019-08-13T15:20:39Z</time>
      </trkpt>
      <trkpt lat="40.4235660" lon="-4.4949490">
        <ele>660.2</ele>
        <time>2019-08-13T15:20:40Z</time>
      </trkpt>
      <trkpt lat="40.4236260" lon="-4.4949450">
        <ele>660.0</ele>
        <time>2019-08-13T15:20:41Z</time>
      </trkpt>
      <trkpt lat="40.4236870" lon="-4.4949400">
        <ele>659.8</ele>
        <time>2019-08-13T15:20:42Z</time>
      </trkpt>
      <trkpt lat="40.4237460" lon="-4.4949380">
        <ele>659.6</ele>
        <time>2019-08-13T15:20:43Z</time>
      </trkpt>
      <trkpt lat="40.4238060" lon="-4.4949360">
        <ele>659.4</ele>
        <time>2019-08-13T15:20:44Z</time>
      </trkpt>
      <trkpt lat="40.4238660" lon="-4.4949350">
        <ele>659.2</ele>
        <time>2019-08-13T15:20:45Z</time>
      </trkpt>
      <trkpt lat="40.4239260" lon="-4.4949360">
        <ele>659.0</ele>
        <time>2019-08-13T15:20:46Z</time>
      </trkpt>
      <trkpt lat="40.4239870" lon="-4.4949390">
        <ele>658.9</ele>
        <time>2019-08-13T15:20:47Z</time>
      </trkpt>
      <trkpt lat="40.4240480" lon="-4.4949420">
        <ele>658.7</ele>
        <time>2019-08-13T15:20:48Z</time>
      </trkpt>
      <trkpt lat="40.4241090" lon="-4.4949460">
        <ele>658.6</ele>
        <time>2019-08-13T15:20:49Z</time>
      </trkpt>
      <trkpt lat="40.4241690" lon="-4.4949510">
        <ele>658.3</ele>
        <time>2019-08-13T15:20:50Z</time>
      </trkpt>
      <trkpt lat="40.4242300" lon="-4.4949570">
        <ele>658.0</ele>
        <time>2019-08-13T15:20:51Z</time>
      </trkpt>
      <trkpt lat="40.4242920" lon="-4.4949640">
        <ele>657.8</ele>
        <time>2019-08-13T15:20:52Z</time>
      </trkpt>
      <trkpt lat="40.4243550" lon="-4.4949730">
        <ele>657.5</ele>
        <time>2019-08-13T15:20:53Z</time>
      </trkpt>
      <trkpt lat="40.4244170" lon="-4.4949810">
        <ele>657.2</ele>
        <time>2019-08-13T15:20:54Z</time>
      </trkpt>
      <trkpt lat="40.4244780" lon="-4.4949930">
        <ele>656.8</ele>
        <time>2019-08-13T15:20:55Z</time>
      </trkpt>
      <trkpt lat="40.4245390" lon="-4.4950040">
        <ele>656.4</ele>
        <time>2019-08-13T15:20:56Z</time>
      </trkpt>
      <trkpt lat="40.4246000" lon="-4.4950170">
        <ele>656.0</ele>
        <time>2019-08-13T15:20:57Z</time>
      </trkpt>
      <trkpt lat="40.4246590" lon="-4.4950290">
        <ele>655.6</ele>
        <time>2019-08-13T15:20:58Z</time>
      </trkpt>
      <trkpt lat="40.4247190" lon="-4.4950420">
        <ele>655.3</ele>
        <time>2019-08-13T15:20:59Z</time>
      </trkpt>
      <trkpt lat="40.4247770" lon="-4.4950550">
        <ele>655.0</ele>
        <time>2019-08-13T15:21:00Z</time>
      </trkpt>
      <trkpt lat="40.4248340" lon="-4.4950700">
        <ele>654.5</ele>
        <time>2019-08-13T15:21:01Z</time>
      </trkpt>
      <trkpt lat="40.4248900" lon="-4.4950850">
        <ele>654.3</ele>
        <time>2019-08-13T15:21:02Z</time>
      </trkpt>
      <trkpt lat="40.4249440" lon="-4.4951000">
        <ele>654.0</ele>
        <time>2019-08-13T15:21:03Z</time>
      </trkpt>
      <trkpt lat="40.4249980" lon="-4.4951150">
        <ele>653.6</ele>
        <time>2019-08-13T15:21:04Z</time>
      </trkpt>
      <trkpt lat="40.4250510" lon="-4.4951310">
        <ele>653.2</ele>
        <time>2019-08-13T15:21:05Z</time>
      </trkpt>
      <trkpt lat="40.4251020" lon="-4.4951490">
        <ele>652.8</ele>
        <time>2019-08-13T15:21:06Z</time>
      </trkpt>
      <trkpt lat="40.4251490" lon="-4.4951680">
        <ele>652.4</ele>
        <time>2019-08-13T15:21:07Z</time>
      </trkpt>
      <trkpt lat="40.4251970" lon="-4.4951860">
        <ele>652.2</ele>
        <time>2019-08-13T15:21:08Z</time>
      </trkpt>
      <trkpt lat="40.4252470" lon="-4.4952050">
        <ele>652.0</ele>
        <time>2019-08-13T15:21:09Z</time>
      </trkpt>
      <trkpt lat="40.4252980" lon="-4.4952240">
        <ele>651.7</ele>
        <time>2019-08-13T15:21:10Z</time>
      </trkpt>
      <trkpt lat="40.4253510" lon="-4.4952450">
        <ele>651.4</ele>
        <time>2019-08-13T15:21:11Z</time>
      </trkpt>
      <trkpt lat="40.4254030" lon="-4.4952690">
        <ele>651.0</ele>
        <time>2019-08-13T15:21:12Z</time>
      </trkpt>
      <trkpt lat="40.4254560" lon="-4.4952940">
        <ele>650.7</ele>
        <time>2019-08-13T15:21:13Z</time>
      </trkpt>
      <trkpt lat="40.4255080" lon="-4.4953210">
        <ele>650.3</ele>
        <time>2019-08-13T15:21:14Z</time>
      </trkpt>
      <trkpt lat="40.4255630" lon="-4.4953500">
        <ele>650.0</ele>
        <time>2019-08-13T15:21:15Z</time>
      </trkpt>
      <trkpt lat="40.4256190" lon="-4.4953790">
        <ele>649.7</ele>
        <time>2019-08-13T15:21:16Z</time>
      </trkpt>
      <trkpt lat="40.4256760" lon="-4.4954090">
        <ele>649.4</ele>
        <time>2019-08-13T15:21:17Z</time>
      </trkpt>
      <trkpt lat="40.4257340" lon="-4.4954390">
        <ele>649.0</ele>
        <time>2019-08-13T15:21:18Z</time>
      </trkpt>
      <trkpt lat="40.4257930" lon="-4.4954680">
        <ele>648.6</ele>
        <time>2019-08-13T15:21:19Z</time>
      </trkpt>
      <trkpt lat="40.4258530" lon="-4.4954970">
        <ele>648.1</ele>
        <time>2019-08-13T15:21:20Z</time>
      </trkpt>
      <trkpt lat="40.4259120" lon="-4.4955280">
        <ele>647.7</ele>
        <time>2019-08-13T15:21:21Z</time>
      </trkpt>
      <trkpt lat="40.4259720" lon="-4.4955600">
        <ele>647.3</ele>
        <time>2019-08-13T15:21:22Z</time>
      </trkpt>
      <trkpt lat="40.4260310" lon="-4.4955900">
        <ele>646.9</ele>
        <time>2019-08-13T15:21:23Z</time>
      </trkpt>
      <trkpt lat="40.4260910" lon="-4.4956190">
        <ele>646.6</ele>
        <time>2019-08-13T15:21:24Z</time>
      </trkpt>
      <trkpt lat="40.4261500" lon="-4.4956490">
        <ele>646.3</ele>
        <time>2019-08-13T15:21:25Z</time>
      </trkpt>
      <trkpt lat="40.4262090" lon="-4.4956790">
        <ele>646.0</ele>
        <time>2019-08-13T15:21:26Z</time>
      </trkpt>
      <trkpt lat="40.4262680" lon="-4.4957100">
        <ele>645.6</ele>
        <time>2019-08-13T15:21:27Z</time>
      </trkpt>
      <trkpt lat="40.4263260" lon="-4.4957390">
        <ele>645.2</ele>
        <time>2019-08-13T15:21:28Z</time>
      </trkpt>
      <trkpt lat="40.4263860" lon="-4.4957690">
        <ele>644.8</ele>
        <time>2019-08-13T15:21:29Z</time>
      </trkpt>
      <trkpt lat="40.4264450" lon="-4.4957970">
        <ele>644.4</ele>
        <time>2019-08-13T15:21:30Z</time>
      </trkpt>
      <trkpt lat="40.4265030" lon="-4.4958260">
        <ele>644.0</ele>
        <time>2019-08-13T15:21:31Z</time>
      </trkpt>
      <trkpt lat="40.4265610" lon="-4.4958540">
        <ele>643.5</ele>
        <time>2019-08-13T15:21:32Z</time>
      </trkpt>
      <trkpt lat="40.4266180" lon="-4.4958830">
        <ele>643.2</ele>
        <time>2019-08-13T15:21:33Z</time>
      </trkpt>
      <trkpt lat="40.4266750" lon="-4.4959110">
        <ele>642.8</ele>
        <time>2019-08-13T15:21:34Z</time>
      </trkpt>
      <trkpt lat="40.4267320" lon="-4.4959390">
        <ele>642.2</ele>
        <time>2019-08-13T15:21:35Z</time>
      </trkpt>
      <trkpt lat="40.4267880" lon="-4.4959670">
        <ele>641.8</ele>
        <time>2019-08-13T15:21:36Z</time>
      </trkpt>
      <trkpt lat="40.4268440" lon="-4.4959950">
        <ele>641.4</ele>
        <time>2019-08-13T15:21:37Z</time>
      </trkpt>
      <trkpt lat="40.4268990" lon="-4.4960230">
        <ele>640.9</ele>
        <time>2019-08-13T15:21:38Z</time>
      </trkpt>
      <trkpt lat="40.4269540" lon="-4.4960530">
        <ele>640.5</ele>
        <time>2019-08-13T15:21:39Z</time>
      </trkpt>
      <trkpt lat="40.4270080" lon="-4.4960800">
        <ele>640.0</ele>
        <time>2019-08-13T15:21:40Z</time>
      </trkpt>
      <trkpt lat="40.4270630" lon="-4.4961060">
        <ele>640.6</ele>
        <time>2019-08-13T15:21:41Z</time>
      </trkpt>
      <trkpt lat="40.4271180" lon="-4.4961320">
        <ele>640.9</ele>
        <time>2019-08-13T15:21:42Z</time>
      </trkpt>
      <trkpt lat="40.4271710" lon="-4.4961590">
        <ele>641.2</ele>
        <time>2019-08-13T15:21:43Z</time>
      </trkpt>
      <trkpt lat="40.4272220" lon="-4.4961850">
        <ele>641.5</ele>
        <time>2019-08-13T15:21:44Z</time>
      </trkpt>
      <trkpt lat="40.4272710" lon="-4.4962090">
        <ele>641.8</ele>
        <time>2019-08-13T15:21:45Z</time>
      </trkpt>
      <trkpt lat="40.4273180" lon="-4.4962330">
        <ele>642.1</ele>
        <time>2019-08-13T15:21:46Z</time>
      </trkpt>
      <trkpt lat="40.4273620" lon="-4.4962560">
        <ele>642.4</ele>
        <time>2019-08-13T15:21:47Z</time>
      </trkpt>
      <trkpt lat="40.4274050" lon="-4.4962780">
        <ele>642.6</ele>
        <time>2019-08-13T15:21:48Z</time>
      </trkpt>
      <trkpt lat="40.4274460" lon="-4.4962980">
        <ele>642.9</ele>
        <time>2019-08-13T15:21:49Z</time>
      </trkpt>
      <trkpt lat="40.4274860" lon="-4.4963180">
        <ele>643.1</ele>
        <time>2019-08-13T15:21:50Z</time>
      </trkpt>
      <trkpt lat="40.4275230" lon="-4.4963380">
        <ele>643.3</ele>
        <time>2019-08-13T15:21:51Z</time>
      </trkpt>
      <trkpt lat="40.4275600" lon="-4.4963590">
        <ele>643.5</ele>
        <time>2019-08-13T15:21:52Z</time>
      </trkpt>
      <trkpt lat="40.4275950" lon="-4.4963760">
        <ele>643.8</ele>
        <time>2019-08-13T15:21:53Z</time>
      </trkpt>
      <trkpt lat="40.4276310" lon="-4.4963950">
        <ele>644.0</ele>
        <time>2019-08-13T15:21:54Z</time>
      </trkpt>
      <trkpt lat="40.4276670" lon="-4.4964140">
        <ele>644.2</ele>
        <time>2019-08-13T15:21:55Z</time>
      </trkpt>
      <trkpt lat="40.4277020" lon="-4.4964340">
        <ele>644.4</ele>
        <time>2019-08-13T15:21:56Z</time>
      </trkpt>
      <trkpt lat="40.4277360" lon="-4.4964530">
        <ele>644.6</ele>
        <time>2019-08-13T15:21:57Z</time>
      </trkpt>
      <trkpt lat="40.4277690" lon="-4.4964710">
        <ele>644.8</ele>
        <time>2019-08-13T15:21:58Z</time>
      </trkpt>
      <trkpt lat="40.4278020" lon="-4.4964890">
        <ele>645.1</ele>
        <time>2019-08-13T15:21:59Z</time>
      </trkpt>
      <trkpt lat="40.4278340" lon="-4.4965080">
        <ele>645.3</ele>
        <time>2019-08-13T15:22:00Z</time>
      </trkpt>
      <trkpt lat="40.4278670" lon="-4.4965240">
        <ele>645.5</ele>
        <time>2019-08-13T15:22:01Z</time>
      </trkpt>
      <trkpt lat="40.4278980" lon="-4.4965420">
        <ele>645.7</ele>
        <time>2019-08-13T15:22:02Z</time>
      </trkpt>
      <trkpt lat="40.4279290" lon="-4.4965590">
        <ele>645.9</ele>
        <time>2019-08-13T15:22:03Z</time>
      </trkpt>
      <trkpt lat="40.4279570" lon="-4.4965780">
        <ele>646.0</ele>
        <time>2019-08-13T15:22:04Z</time>
      </trkpt>
      <trkpt lat="40.4279860" lon="-4.4965970">
        <ele>646.2</ele>
        <time>2019-08-13T15:22:05Z</time>
      </trkpt>
      <trkpt lat="40.4280150" lon="-4.4966170">
        <ele>646.4</ele>
        <time>2019-08-13T15:22:06Z</time>
      </trkpt>
      <trkpt lat="40.4280460" lon="-4.4966370">
        <ele>646.6</ele>
        <time>2019-08-13T15:22:07Z</time>
      </trkpt>
      <trkpt lat="40.4280770" lon="-4.4966580">
        <ele>646.8</ele>
        <time>2019-08-13T15:22:08Z</time>
      </trkpt>
      <trkpt lat="40.4281080" lon="-4.4966800">
        <ele>647.0</ele>
        <time>2019-08-13T15:22:09Z</time>
      </trkpt>
      <trkpt lat="40.4281380" lon="-4.4967020">
        <ele>647.2</ele>
        <time>2019-08-13T15:22:10Z</time>
      </trkpt>
      <trkpt lat="40.4281680" lon="-4.4967250">
        <ele>647.4</ele>
        <time>2019-08-13T15:22:11Z</time>
      </trkpt>
      <trkpt lat="40.4281980" lon="-4.4967480">
        <ele>647.6</ele>
        <time>2019-08-13T15:22:12Z</time>
      </trkpt>
      <trkpt lat="40.4282270" lon="-4.4967720">
        <ele>647.8</ele>
        <time>2019-08-13T15:22:13Z</time>
      </trkpt>
      <trkpt lat="40.4282570" lon="-4.4967950">
        <ele>648.0</ele>
        <time>2019-08-13T15:22:14Z</time>
      </trkpt>
      <trkpt lat="40.4282860" lon="-4.4968180">
        <ele>648.3</ele>
        <time>2019-08-13T15:22:15Z</time>
      </trkpt>
      <trkpt lat="40.4283140" lon="-4.4968410">
        <ele>648.5</ele>
        <time>2019-08-13T15:22:16Z</time>
      </trkpt>
      <trkpt lat="40.4283400" lon="-4.4968640">
        <ele>648.7</ele>
        <time>2019-08-13T15:22:17Z</time>
      </trkpt>
      <trkpt lat="40.4283660" lon="-4.4968870">
        <ele>648.8</ele>
        <time>2019-08-13T15:22:18Z</time>
      </trkpt>
      <trkpt lat="40.4283920" lon="-4.4969100">
        <ele>649.0</ele>
        <time>2019-08-13T15:22:19Z</time>
      </trkpt>
      <trkpt lat="40.4284180" lon="-4.4969350">
        <ele>649.3</ele>
        <time>2019-08-13T15:22:20Z</time>
      </trkpt>
      <trkpt lat="40.4284430" lon="-4.4969590">
        <ele>649.5</ele>
        <time>2019-08-13T15:22:21Z</time>
      </trkpt>
      <trkpt lat="40.4284680" lon="-4.4969820">
        <ele>649.7</ele>
        <time>2019-08-13T15:22:22Z</time>
      </trkpt>
      <trkpt lat="40.4284930" lon="-4.4970070">
        <ele>649.9</ele>
        <time>2019-08-13T15:22:23Z</time>
      </trkpt>
      <trkpt lat="40.4285180" lon="-4.4970320">
        <ele>650.1</ele>
        <time>2019-08-13T15:22:24Z</time>
      </trkpt>
      <trkpt lat="40.4285430" lon="-4.4970570">
        <ele>650.3</ele>
        <time>2019-08-13T15:22:25Z</time>
      </trkpt>
      <trkpt lat="40.4285670" lon="-4.4970810">
        <ele>650.5</ele>
        <time>2019-08-13T15:22:26Z</time>
      </trkpt>
      <trkpt lat="40.4285910" lon="-4.4971060">
        <ele>650.7</ele>
        <time>2019-08-13T15:22:27Z</time>
      </trkpt>
      <trkpt lat="40.4286140" lon="-4.4971310">
        <ele>650.9</ele>
        <time>2019-08-13T15:22:28Z</time>
      </trkpt>
      <trkpt lat="40.4286360" lon="-4.4971570">
        <ele>651.1</ele>
        <time>2019-08-13T15:22:29Z</time>
      </trkpt>
      <trkpt lat="40.4286580" lon="-4.4971830">
        <ele>651.3</ele>
        <time>2019-08-13T15:22:30Z</time>
      </trkpt>
      <trkpt lat="40.4286800" lon="-4.4972090">
        <ele>651.5</ele>
        <time>2019-08-13T15:22:31Z</time>
      </trkpt>
      <trkpt lat="40.4287030" lon="-4.4972350">
        <ele>651.7</ele>
        <time>2019-08-13T15:22:32Z</time>
      </trkpt>
      <trkpt lat="40.4287250" lon="-4.4972610">
        <ele>651.8</ele>
        <time>2019-08-13T15:22:33Z</time>
      </trkpt>
      <trkpt lat="40.4287460" lon="-4.4972870">
        <ele>652.0</ele>
        <time>2019-08-13T15:22:34Z</time>
      </trkpt>
      <trkpt lat="40.4287670" lon="-4.4973120">
        <ele>652.2</ele>
        <time>2019-08-13T15:22:35Z</time>
      </trkpt>
      <trkpt lat="40.4287890" lon="-4.4973380">
        <ele>652.4</ele>
        <time>2019-08-13T15:22:36Z</time>
      </trkpt>
      <trkpt lat="40.4288110" lon="-4.4973640">
        <ele>652.6</ele>
        <time>2019-08-13T15:22:37Z</time>
      </trkpt>
      <trkpt lat="40.4288300" lon="-4.4973890">
        <ele>652.8</ele>
        <time>2019-08-13T15:22:38Z</time>
      </trkpt>
      <trkpt lat="40.4288680" lon="-4.4974390">
        <ele>653.2</ele>
        <time>2019-08-13T15:22:40Z</time>
      </trkpt>
      <trkpt lat="40.4288870" lon="-4.4974650">
        <ele>653.5</ele>
        <time>2019-08-13T15:22:41Z</time>
      </trkpt>
      <trkpt lat="40.4289060" lon="-4.4974910">
        <ele>653.7</ele>
        <time>2019-08-13T15:22:42Z</time>
      </trkpt>
      <trkpt lat="40.4289240" lon="-4.4975170">
        <ele>654.0</ele>
        <time>2019-08-13T15:22:43Z</time>
      </trkpt>
      <trkpt lat="40.4289420" lon="-4.4975440">
        <ele>654.2</ele>
        <time>2019-08-13T15:22:44Z</time>
      </trkpt>
      <trkpt lat="40.4289600" lon="-4.4975700">
        <ele>654.4</ele>
        <time>2019-08-13T15:22:45Z</time>
      </trkpt>
      <trkpt lat="40.4289780" lon="-4.4975970">
        <ele>654.7</ele>
        <time>2019-08-13T15:22:46Z</time>
      </trkpt>
      <trkpt lat="40.4289950" lon="-4.4976240">
        <ele>654.9</ele>
        <time>2019-08-13T15:22:47Z</time>
      </trkpt>
      <trkpt lat="40.4290120" lon="-4.4976520">
        <ele>655.1</ele>
        <time>2019-08-13T15:22:48Z</time>
      </trkpt>
      <trkpt lat="40.4290300" lon="-4.4976810">
        <ele>655.4</ele>
        <time>2019-08-13T15:22:49Z</time>
      </trkpt>
      <trkpt lat="40.4290470" lon="-4.4977090">
        <ele>655.6</ele>
        <time>2019-08-13T15:22:50Z</time>
      </trkpt>
      <trkpt lat="40.4290640" lon="-4.4977380">
        <ele>655.8</ele>
        <time>2019-08-13T15:22:51Z</time>
      </trkpt>
      <trkpt lat="40.4290820" lon="-4.4977660">
        <ele>656.1</ele>
        <time>2019-08-13T15:22:52Z</time>
      </trkpt>
      <trkpt lat="40.4290990" lon="-4.4977950">
        <ele>656.3</ele>
        <time>2019-08-13T15:22:53Z</time>
      </trkpt>
      <trkpt lat="40.4291150" lon="-4.4978230">
        <ele>656.5</ele>
        <time>2019-08-13T15:22:54Z</time>
      </trkpt>
      <trkpt lat="40.4291320" lon="-4.4978510">
        <ele>656.8</ele>
        <time>2019-08-13T15:22:55Z</time>
      </trkpt>
      <trkpt lat="40.4291490" lon="-4.4978800">
        <ele>657.0</ele>
        <time>2019-08-13T15:22:56Z</time>
      </trkpt>
      <trkpt lat="40.4291640" lon="-4.4979090">
        <ele>657.2</ele>
        <time>2019-08-13T15:22:57Z</time>
      </trkpt>
      <trkpt lat="40.4291790" lon="-4.4979390">
        <ele>657.5</ele>
        <time>2019-08-13T15:22:58Z</time>
      </trkpt>
      <trkpt lat="40.4292090" lon="-4.4979960">
        <ele>657.9</ele>
        <time>2019-08-13T15:23:00Z</time>
      </trkpt>
      <trkpt lat="40.4292380" lon="-4.4980540">
        <ele>658.3</ele>
        <time>2019-08-13T15:23:02Z</time>
      </trkpt>
      <trkpt lat="40.4292660" lon="-4.4981150">
        <ele>658.8</ele>
        <time>2019-08-13T15:23:04Z</time>
      </trkpt>
      <trkpt lat="40.4292810" lon="-4.4981450">
        <ele>659.0</ele>
        <time>2019-08-13T15:23:05Z</time>
      </trkpt>
      <trkpt lat="40.4292950" lon="-4.4981760">
        <ele>659.2</ele>
        <time>2019-08-13T15:23:06Z</time>
      </trkpt>
      <trkpt lat="40.4293200" lon="-4.4982340">
        <ele>659.7</ele>
        <time>2019-08-13T15:23:08Z</time>
      </trkpt>
      <trkpt lat="40.4293420" lon="-4.4982830">
        <ele>660.0</ele>
        <time>2019-08-13T15:23:10Z</time>
      </trkpt>
      <trkpt lat="40.4293650" lon="-4.4983350">
        <ele>660.4</ele>
        <time>2019-08-13T15:23:12Z</time>
      </trkpt>
      <trkpt lat="40.4293880" lon="-4.4983900">
        <ele>660.8</ele>
        <time>2019-08-13T15:23:14Z</time>
      </trkpt>
      <trkpt lat="40.4294100" lon="-4.4984480">
        <ele>661.2</ele>
        <time>2019-08-13T15:23:16Z</time>
      </trkpt>
      <trkpt lat="40.4294310" lon="-4.4985040">
        <ele>661.6</ele>
        <time>2019-08-13T15:23:18Z</time>
      </trkpt>
      <trkpt lat="40.4294520" lon="-4.4985600">
        <ele>662.0</ele>
        <time>2019-08-13T15:23:20Z</time>
      </trkpt>
      <trkpt lat="40.4294690" lon="-4.4986190">
        <ele>662.3</ele>
        <time>2019-08-13T15:23:22Z</time>
      </trkpt>
      <trkpt lat="40.4294880" lon="-4.4986780">
        <ele>662.7</ele>
        <time>2019-08-13T15:23:24Z</time>
      </trkpt>
      <trkpt lat="40.4295070" lon="-4.4987370">
        <ele>663.1</ele>
        <time>2019-08-13T15:23:26Z</time>
      </trkpt>
      <trkpt lat="40.4295250" lon="-4.4987960">
        <ele>663.5</ele>
        <time>2019-08-13T15:23:28Z</time>
      </trkpt>
      <trkpt lat="40.4295420" lon="-4.4988540">
        <ele>663.9</ele>
        <time>2019-08-13T15:23:30Z</time>
      </trkpt>
      <trkpt lat="40.4295580" lon="-4.4989120">
        <ele>664.3</ele>
        <time>2019-08-13T15:23:32Z</time>
      </trkpt>
      <trkpt lat="40.4295740" lon="-4.4989720">
        <ele>664.7</ele>
        <time>2019-08-13T15:23:34Z</time>
      </trkpt>
      <trkpt lat="40.4295900" lon="-4.4990330">
        <ele>665.1</ele>
        <time>2019-08-13T15:23:36Z</time>
      </trkpt>
      <trkpt lat="40.4296050" lon="-4.4990940">
        <ele>665.5</ele>
        <time>2019-08-13T15:23:38Z</time>
      </trkpt>
      <trkpt lat="40.4296190" lon="-4.4991560">
        <ele>665.9</ele>
        <time>2019-08-13T15:23:40Z</time>
      </trkpt>
      <trkpt lat="40.4296330" lon="-4.4992170">
        <ele>666.3</ele>
        <time>2019-08-13T15:23:42Z</time>
      </trkpt>
      <trkpt lat="40.4296450" lon="-4.4992780">
        <ele>666.6</ele>
        <time>2019-08-13T15:23:44Z</time>
      </trkpt>
      <trkpt lat="40.4296550" lon="-4.4993420">
        <ele>667.0</ele>
        <time>2019-08-13T15:23:46Z</time>
      </trkpt>
      <trkpt lat="40.4296670" lon="-4.4994070">
        <ele>667.5</ele>
        <time>2019-08-13T15:23:48Z</time>
      </trkpt>
      <trkpt lat="40.4296780" lon="-4.4994690">
        <ele>667.8</ele>
        <time>2019-08-13T15:23:50Z</time>
      </trkpt>
      <trkpt lat="40.4296880" lon="-4.4995290">
        <ele>668.2</ele>
        <time>2019-08-13T15:23:52Z</time>
      </trkpt>
      <trkpt lat="40.4296970" lon="-4.4995910">
        <ele>668.6</ele>
        <time>2019-08-13T15:23:54Z</time>
      </trkpt>
      <trkpt lat="40.4297040" lon="-4.4996490">
        <ele>669.0</ele>
        <time>2019-08-13T15:23:56Z</time>
      </trkpt>
      <trkpt lat="40.4297120" lon="-4.4997110">
        <ele>669.4</ele>
        <time>2019-08-13T15:23:58Z</time>
      </trkpt>
      <trkpt lat="40.4297170" lon="-4.4997760">
        <ele>669.8</ele>
        <time>2019-08-13T15:24:00Z</time>
      </trkpt>
      <trkpt lat="40.4297230" lon="-4.4998410">
        <ele>670.2</ele>
        <time>2019-08-13T15:24:02Z</time>
      </trkpt>
      <trkpt lat="40.4297290" lon="-4.4999060">
        <ele>670.6</ele>
        <time>2019-08-13T15:24:04Z</time>
      </trkpt>
      <trkpt lat="40.4297340" lon="-4.4999700">
        <ele>671.0</ele>
        <time>2019-08-13T15:24:06Z</time>
      </trkpt>
      <trkpt lat="40.4297380" lon="-4.5000340">
        <ele>671.4</ele>
        <time>2019-08-13T15:24:08Z</time>
      </trkpt>
      <trkpt lat="40.4297410" lon="-4.5000970">
        <ele>671.8</ele>
        <time>2019-08-13T15:24:10Z</time>
      </trkpt>
      <trkpt lat="40.4297420" lon="-4.5001590">
        <ele>672.2</ele>
        <time>2019-08-13T15:24:12Z</time>
      </trkpt>
      <trkpt lat="40.4297420" lon="-4.5002180">
        <ele>672.5</ele>
        <time>2019-08-13T15:24:14Z</time>
      </trkpt>
      <trkpt lat="40.4297440" lon="-4.5002790">
        <ele>672.9</ele>
        <time>2019-08-13T15:24:16Z</time>
      </trkpt>
      <trkpt lat="40.4297450" lon="-4.5003430">
        <ele>673.3</ele>
        <time>2019-08-13T15:24:18Z</time>
      </trkpt>
      <trkpt lat="40.4297430" lon="-4.5004070">
        <ele>673.7</ele>
        <time>2019-08-13T15:24:20Z</time>
      </trkpt>
      <trkpt lat="40.4297410" lon="-4.5004690">
        <ele>674.1</ele>
        <time>2019-08-13T15:24:22Z</time>
      </trkpt>
      <trkpt lat="40.4297400" lon="-4.5005350">
        <ele>674.6</ele>
        <time>2019-08-13T15:24:24Z</time>
      </trkpt>
      <trkpt lat="40.4297370" lon="-4.5006040">
        <ele>675.0</ele>
        <time>2019-08-13T15:24:26Z</time>
      </trkpt>
      <trkpt lat="40.4297300" lon="-4.5006760">
        <ele>675.5</ele>
        <time>2019-08-13T15:24:28Z</time>
      </trkpt>
      <trkpt lat="40.4297280" lon="-4.5007150">
        <ele>675.7</ele>
        <time>2019-08-13T15:24:29Z</time>
      </trkpt>
      <trkpt lat="40.4297250" lon="-4.5007530">
        <ele>675.9</ele>
        <time>2019-08-13T15:24:30Z</time>
      </trkpt>
      <trkpt lat="40.4297220" lon="-4.5007910">
        <ele>676.2</ele>
        <time>2019-08-13T15:24:31Z</time>
      </trkpt>
      <trkpt lat="40.4297190" lon="-4.5008280">
        <ele>676.4</ele>
        <time>2019-08-13T15:24:32Z</time>
      </trkpt>
      <trkpt lat="40.4297150" lon="-4.5008650">
        <ele>676.7</ele>
        <time>2019-08-13T15:24:33Z</time>
      </trkpt>
      <trkpt lat="40.4297120" lon="-4.5009010">
        <ele>676.9</ele>
        <time>2019-08-13T15:24:34Z</time>
      </trkpt>
      <trkpt lat="40.4297080" lon="-4.5009390">
        <ele>677.1</ele>
        <time>2019-08-13T15:24:35Z</time>
      </trkpt>
      <trkpt lat="40.4297040" lon="-4.5009760">
        <ele>677.4</ele>
        <time>2019-08-13T15:24:36Z</time>
      </trkpt>
      <trkpt lat="40.4297000" lon="-4.5010130">
        <ele>677.6</ele>
        <time>2019-08-13T15:24:37Z</time>
      </trkpt>
      <trkpt lat="40.4296960" lon="-4.5010510">
        <ele>677.9</ele>
        <time>2019-08-13T15:24:38Z</time>
      </trkpt>
      <trkpt lat="40.4296910" lon="-4.5010880">
        <ele>678.1</ele>
        <time>2019-08-13T15:24:39Z</time>
      </trkpt>
      <trkpt lat="40.4296870" lon="-4.5011250">
        <ele>678.3</ele>
        <time>2019-08-13T15:24:40Z</time>
      </trkpt>
      <trkpt lat="40.4296810" lon="-4.5011610">
        <ele>678.6</ele>
        <time>2019-08-13T15:24:41Z</time>
      </trkpt>
      <trkpt lat="40.4296760" lon="-4.5011970">
        <ele>678.8</ele>
        <time>2019-08-13T15:24:42Z</time>
      </trkpt>
      <trkpt lat="40.4296720" lon="-4.5012330">
        <ele>679.1</ele>
        <time>2019-08-13T15:24:43Z</time>
      </trkpt>
      <trkpt lat="40.4296620" lon="-4.5013000">
        <ele>679.5</ele>
        <time>2019-08-13T15:24:45Z</time>
      </trkpt>
      <trkpt lat="40.4296530" lon="-4.5013640">
        <ele>679.9</ele>
        <time>2019-08-13T15:24:47Z</time>
      </trkpt>
      <trkpt lat="40.4296440" lon="-4.5014270">
        <ele>680.4</ele>
        <time>2019-08-13T15:24:49Z</time>
      </trkpt>
      <trkpt lat="40.4296350" lon="-4.5014900">
        <ele>680.8</ele>
        <time>2019-08-13T15:24:51Z</time>
      </trkpt>
      <trkpt lat="40.4296260" lon="-4.5015530">
        <ele>681.2</ele>
        <time>2019-08-13T15:24:53Z</time>
      </trkpt>
      <trkpt lat="40.4296150" lon="-4.5016170">
        <ele>681.6</ele>
        <time>2019-08-13T15:24:55Z</time>
      </trkpt>
      <trkpt lat="40.4296040" lon="-4.5016840">
        <ele>682.1</ele>
        <time>2019-08-13T15:24:57Z</time>
      </trkpt>
      <trkpt lat="40.4295950" lon="-4.5017490">
        <ele>682.5</ele>
        <time>2019-08-13T15:24:59Z</time>
      </trkpt>
      <trkpt lat="40.4295890" lon="-4.5018190">
        <ele>683.0</ele>
        <time>2019-08-13T15:25:01Z</time>
      </trkpt>
      <trkpt lat="40.4295840" lon="-4.5018550">
        <ele>683.2</ele>
        <time>2019-08-13T15:25:02Z</time>
      </trkpt>
      <trkpt lat="40.4295750" lon="-4.5019240">
        <ele>683.6</ele>
        <time>2019-08-13T15:25:04Z</time>
      </trkpt>
      <trkpt lat="40.4295690" lon="-4.5019940">
        <ele>684.1</ele>
        <time>2019-08-13T15:25:06Z</time>
      </trkpt>
      <trkpt lat="40.4295650" lon="-4.5020290">
        <ele>684.3</ele>
        <time>2019-08-13T15:25:07Z</time>
      </trkpt>
      <trkpt lat="40.4295610" lon="-4.5020650">
        <ele>684.5</ele>
        <time>2019-08-13T15:25:08Z</time>
      </trkpt>
      <trkpt lat="40.4295560" lon="-4.5021000">
        <ele>684.7</ele>
        <time>2019-08-13T15:25:09Z</time>
      </trkpt>
      <trkpt lat="40.4295460" lon="-4.5021690">
        <ele>685.2</ele>
        <time>2019-08-13T15:25:11Z</time>
      </trkpt>
      <trkpt lat="40.4295430" lon="-4.5022050">
        <ele>685.4</ele>
        <time>2019-08-13T15:25:12Z</time>
      </trkpt>
      <trkpt lat="40.4295390" lon="-4.5022410">
        <ele>685.6</ele>
        <time>2019-08-13T15:25:13Z</time>
      </trkpt>
      <trkpt lat="40.4295340" lon="-4.5022760">
        <ele>685.8</ele>
        <time>2019-08-13T15:25:14Z</time>
      </trkpt>
      <trkpt lat="40.4295290" lon="-4.5023110">
        <ele>686.1</ele>
        <time>2019-08-13T15:25:15Z</time>
      </trkpt>
      <trkpt lat="40.4295250" lon="-4.5023480">
        <ele>686.3</ele>
        <time>2019-08-13T15:25:16Z</time>
      </trkpt>
      <trkpt lat="40.4295210" lon="-4.5023840">
        <ele>686.5</ele>
        <time>2019-08-13T15:25:17Z</time>
      </trkpt>
      <trkpt lat="40.4295130" lon="-4.5024530">
        <ele>687.0</ele>
        <time>2019-08-13T15:25:19Z</time>
      </trkpt>
      <trkpt lat="40.4295070" lon="-4.5024880">
        <ele>687.2</ele>
        <time>2019-08-13T15:25:20Z</time>
      </trkpt>
      <trkpt lat="40.4295040" lon="-4.5025250">
        <ele>687.4</ele>
        <time>2019-08-13T15:25:21Z</time>
      </trkpt>
      <trkpt lat="40.4295010" lon="-4.5025610">
        <ele>687.7</ele>
        <time>2019-08-13T15:25:22Z</time>
      </trkpt>
      <trkpt lat="40.4294930" lon="-4.5026270">
        <ele>688.1</ele>
        <time>2019-08-13T15:25:24Z</time>
      </trkpt>
      <trkpt lat="40.4294840" lon="-4.5026940">
        <ele>688.6</ele>
        <time>2019-08-13T15:25:26Z</time>
      </trkpt>
      <trkpt lat="40.4294780" lon="-4.5027640">
        <ele>689.0</ele>
        <time>2019-08-13T15:25:28Z</time>
      </trkpt>
      <trkpt lat="40.4294710" lon="-4.5028320">
        <ele>689.5</ele>
        <time>2019-08-13T15:25:30Z</time>
      </trkpt>
      <trkpt lat="40.4294620" lon="-4.5028990">
        <ele>690.0</ele>
        <time>2019-08-13T15:25:32Z</time>
      </trkpt>
      <trkpt lat="40.4294570" lon="-4.5029640">
        <ele>690.5</ele>
        <time>2019-08-13T15:25:34Z</time>
      </trkpt>
      <trkpt lat="40.4294570" lon="-4.5030230">
        <ele>690.9</ele>
        <time>2019-08-13T15:25:36Z</time>
      </trkpt>
      <trkpt lat="40.4294560" lon="-4.5030800">
        <ele>691.3</ele>
        <time>2019-08-13T15:25:38Z</time>
      </trkpt>
      <trkpt lat="40.4294510" lon="-4.5031450">
        <ele>691.8</ele>
        <time>2019-08-13T15:25:40Z</time>
      </trkpt>
      <trkpt lat="40.4294470" lon="-4.5032110">
        <ele>692.3</ele>
        <time>2019-08-13T15:25:42Z</time>
      </trkpt>
      <trkpt lat="40.4294440" lon="-4.5032750">
        <ele>692.8</ele>
        <time>2019-08-13T15:25:44Z</time>
      </trkpt>
      <trkpt lat="40.4294390" lon="-4.5033370">
        <ele>693.3</ele>
        <time>2019-08-13T15:25:46Z</time>
      </trkpt>
      <trkpt lat="40.4294340" lon="-4.5034000">
        <ele>693.7</ele>
        <time>2019-08-13T15:25:48Z</time>
      </trkpt>
      <trkpt lat="40.4294300" lon="-4.5034670">
        <ele>694.2</ele>
        <time>2019-08-13T15:25:50Z</time>
      </trkpt>
      <trkpt lat="40.4294260" lon="-4.5035330">
        <ele>694.7</ele>
        <time>2019-08-13T15:25:52Z</time>
      </trkpt>
      <trkpt lat="40.4294250" lon="-4.5036000">
        <ele>695.2</ele>
        <time>2019-08-13T15:25:54Z</time>
      </trkpt>
      <trkpt lat="40.4294220" lon="-4.5036660">
        <ele>695.7</ele>
        <time>2019-08-13T15:25:56Z</time>
      </trkpt>
      <trkpt lat="40.4294180" lon="-4.5037340">
        <ele>696.3</ele>
        <time>2019-08-13T15:25:58Z</time>
      </trkpt>
      <trkpt lat="40.4294160" lon="-4.5038000">
        <ele>696.8</ele>
        <time>2019-08-13T15:26:00Z</time>
      </trkpt>
      <trkpt lat="40.4294160" lon="-4.5038670">
        <ele>697.3</ele>
        <time>2019-08-13T15:26:02Z</time>
      </trkpt>
      <trkpt lat="40.4294140" lon="-4.5039330">
        <ele>697.7</ele>
        <time>2019-08-13T15:26:04Z</time>
      </trkpt>
      <trkpt lat="40.4294130" lon="-4.5039990">
        <ele>698.2</ele>
        <time>2019-08-13T15:26:06Z</time>
      </trkpt>
      <trkpt lat="40.4294080" lon="-4.5040630">
        <ele>698.7</ele>
        <time>2019-08-13T15:26:08Z</time>
      </trkpt>
      <trkpt lat="40.4294040" lon="-4.5041300">
        <ele>699.2</ele>
        <time>2019-08-13T15:26:10Z</time>
      </trkpt>
      <trkpt lat="40.4294030" lon="-4.5042010">
        <ele>699.7</ele>
        <time>2019-08-13T15:26:12Z</time>
      </trkpt>
      <trkpt lat="40.4294030" lon="-4.5042360">
        <ele>699.9</ele>
        <time>2019-08-13T15:26:13Z</time>
      </trkpt>
      <trkpt lat="40.4294010" lon="-4.5043060">
        <ele>700.4</ele>
        <time>2019-08-13T15:26:15Z</time>
      </trkpt>
      <trkpt lat="40.4294000" lon="-4.5043760">
        <ele>700.9</ele>
        <time>2019-08-13T15:26:17Z</time>
      </trkpt>
      <trkpt lat="40.4294000" lon="-4.5044450">
        <ele>701.4</ele>
        <time>2019-08-13T15:26:19Z</time>
      </trkpt>
      <trkpt lat="40.4293990" lon="-4.5045150">
        <ele>701.9</ele>
        <time>2019-08-13T15:26:21Z</time>
      </trkpt>
      <trkpt lat="40.4293980" lon="-4.5045830">
        <ele>702.4</ele>
        <time>2019-08-13T15:26:23Z</time>
      </trkpt>
      <trkpt lat="40.4293990" lon="-4.5046490">
        <ele>702.9</ele>
        <time>2019-08-13T15:26:25Z</time>
      </trkpt>
      <trkpt lat="40.4294000" lon="-4.5047140">
        <ele>703.4</ele>
        <time>2019-08-13T15:26:27Z</time>
      </trkpt>
      <trkpt lat="40.4294010" lon="-4.5047790">
        <ele>703.8</ele>
        <time>2019-08-13T15:26:29Z</time>
      </trkpt>
      <trkpt lat="40.4294020" lon="-4.5048430">
        <ele>704.3</ele>
        <time>2019-08-13T15:26:31Z</time>
      </trkpt>
      <trkpt lat="40.4294030" lon="-4.5049070">
        <ele>704.8</ele>
        <time>2019-08-13T15:26:33Z</time>
      </trkpt>
      <trkpt lat="40.4294040" lon="-4.5049730">
        <ele>705.3</ele>
        <time>2019-08-13T15:26:35Z</time>
      </trkpt>
      <trkpt lat="40.4294040" lon="-4.5050390">
        <ele>705.8</ele>
        <time>2019-08-13T15:26:37Z</time>
      </trkpt>
      <trkpt lat="40.4294060" lon="-4.5051060">
        <ele>706.3</ele>
        <time>2019-08-13T15:26:39Z</time>
      </trkpt>
      <trkpt lat="40.4294070" lon="-4.5051730">
        <ele>706.8</ele>
        <time>2019-08-13T15:26:41Z</time>
      </trkpt>
      <trkpt lat="40.4294100" lon="-4.5052410">
        <ele>707.4</ele>
        <time>2019-08-13T15:26:43Z</time>
      </trkpt>
      <trkpt lat="40.4294110" lon="-4.5053070">
        <ele>707.9</ele>
        <time>2019-08-13T15:26:45Z</time>
      </trkpt>
      <trkpt lat="40.4294130" lon="-4.5053720">
        <ele>708.4</ele>
        <time>2019-08-13T15:26:47Z</time>
      </trkpt>
      <trkpt lat="40.4294170" lon="-4.5054370">
        <ele>709.0</ele>
        <time>2019-08-13T15:26:49Z</time>
      </trkpt>
      <trkpt lat="40.4294190" lon="-4.5055020">
        <ele>709.5</ele>
        <time>2019-08-13T15:26:51Z</time>
      </trkpt>
      <trkpt lat="40.4294210" lon="-4.5055670">
        <ele>710.1</ele>
        <time>2019-08-13T15:26:53Z</time>
      </trkpt>
      <trkpt lat="40.4294220" lon="-4.5056330">
        <ele>710.7</ele>
        <time>2019-08-13T15:26:55Z</time>
      </trkpt>
      <trkpt lat="40.4294240" lon="-4.5057000">
        <ele>711.2</ele>
        <time>2019-08-13T15:26:57Z</time>
      </trkpt>
      <trkpt lat="40.4294280" lon="-4.5057660">
        <ele>711.8</ele>
        <time>2019-08-13T15:26:59Z</time>
      </trkpt>
      <trkpt lat="40.4294300" lon="-4.5058310">
        <ele>712.4</ele>
        <time>2019-08-13T15:27:01Z</time>
      </trkpt>
      <trkpt lat="40.4294310" lon="-4.5058940">
        <ele>712.9</ele>
        <time>2019-08-13T15:27:03Z</time>
      </trkpt>
      <trkpt lat="40.4294320" lon="-4.5059580">
        <ele>713.5</ele>
        <time>2019-08-13T15:27:05Z</time>
      </trkpt>
      <trkpt lat="40.4294360" lon="-4.5060210">
        <ele>714.0</ele>
        <time>2019-08-13T15:27:07Z</time>
      </trkpt>
      <trkpt lat="40.4294380" lon="-4.5060840">
        <ele>714.6</ele>
        <time>2019-08-13T15:27:09Z</time>
      </trkpt>
      <trkpt lat="40.4294410" lon="-4.5061480">
        <ele>715.1</ele>
        <time>2019-08-13T15:27:11Z</time>
      </trkpt>
      <trkpt lat="40.4294420" lon="-4.5062100">
        <ele>715.5</ele>
        <time>2019-08-13T15:27:13Z</time>
      </trkpt>
      <trkpt lat="40.4294460" lon="-4.5062720">
        <ele>715.9</ele>
        <time>2019-08-13T15:27:15Z</time>
      </trkpt>
      <trkpt lat="40.4294490" lon="-4.5063350">
        <ele>716.3</ele>
        <time>2019-08-13T15:27:17Z</time>
      </trkpt>
      <trkpt lat="40.4294500" lon="-4.5063980">
        <ele>716.6</ele>
        <time>2019-08-13T15:27:19Z</time>
      </trkpt>
      <trkpt lat="40.4294520" lon="-4.5064600">
        <ele>716.9</ele>
        <time>2019-08-13T15:27:21Z</time>
      </trkpt>
      <trkpt lat="40.4294530" lon="-4.5065220">
        <ele>717.2</ele>
        <time>2019-08-13T15:27:23Z</time>
      </trkpt>
      <trkpt lat="40.4294540" lon="-4.5065840">
        <ele>717.5</ele>
        <time>2019-08-13T15:27:25Z</time>
      </trkpt>
      <trkpt lat="40.4294580" lon="-4.5066470">
        <ele>717.9</ele>
        <time>2019-08-13T15:27:27Z</time>
      </trkpt>
      <trkpt lat="40.4294610" lon="-4.5067080">
        <ele>718.2</ele>
        <time>2019-08-13T15:27:29Z</time>
      </trkpt>
      <trkpt lat="40.4294620" lon="-4.5067700">
        <ele>718.5</ele>
        <time>2019-08-13T15:27:31Z</time>
      </trkpt>
      <trkpt lat="40.4294650" lon="-4.5068320">
        <ele>718.8</ele>
        <time>2019-08-13T15:27:33Z</time>
      </trkpt>
      <trkpt lat="40.4294690" lon="-4.5068940">
        <ele>719.1</ele>
        <time>2019-08-13T15:27:35Z</time>
      </trkpt>
      <trkpt lat="40.4294720" lon="-4.5069560">
        <ele>719.4</ele>
        <time>2019-08-13T15:27:37Z</time>
      </trkpt>
      <trkpt lat="40.4294750" lon="-4.5070170">
        <ele>719.7</ele>
        <time>2019-08-13T15:27:39Z</time>
      </trkpt>
      <trkpt lat="40.4294780" lon="-4.5070780">
        <ele>720.0</ele>
        <time>2019-08-13T15:27:41Z</time>
      </trkpt>
      <trkpt lat="40.4294810" lon="-4.5071400">
        <ele>720.3</ele>
        <time>2019-08-13T15:27:43Z</time>
      </trkpt>
      <trkpt lat="40.4294810" lon="-4.5072020">
        <ele>720.6</ele>
        <time>2019-08-13T15:27:45Z</time>
      </trkpt>
      <trkpt lat="40.4294840" lon="-4.5072650">
        <ele>720.9</ele>
        <time>2019-08-13T15:27:47Z</time>
      </trkpt>
      <trkpt lat="40.4294900" lon="-4.5073280">
        <ele>721.2</ele>
        <time>2019-08-13T15:27:49Z</time>
      </trkpt>
      <trkpt lat="40.4294960" lon="-4.5073890">
        <ele>721.5</ele>
        <time>2019-08-13T15:27:51Z</time>
      </trkpt>
      <trkpt lat="40.4294990" lon="-4.5074520">
        <ele>721.8</ele>
        <time>2019-08-13T15:27:53Z</time>
      </trkpt>
      <trkpt lat="40.4295030" lon="-4.5075160">
        <ele>722.1</ele>
        <time>2019-08-13T15:27:55Z</time>
      </trkpt>
      <trkpt lat="40.4295090" lon="-4.5075780">
        <ele>722.4</ele>
        <time>2019-08-13T15:27:57Z</time>
      </trkpt>
      <trkpt lat="40.4295150" lon="-4.5076390">
        <ele>722.7</ele>
        <time>2019-08-13T15:27:59Z</time>
      </trkpt>
      <trkpt lat="40.4295200" lon="-4.5077030">
        <ele>723.0</ele>
        <time>2019-08-13T15:28:01Z</time>
      </trkpt>
      <trkpt lat="40.4295240" lon="-4.5077650">
        <ele>723.3</ele>
        <time>2019-08-13T15:28:03Z</time>
      </trkpt>
      <trkpt lat="40.4295320" lon="-4.5078260">
        <ele>723.6</ele>
        <time>2019-08-13T15:28:05Z</time>
      </trkpt>
      <trkpt lat="40.4295390" lon="-4.5078850">
        <ele>723.9</ele>
        <time>2019-08-13T15:28:07Z</time>
      </trkpt>
      <trkpt lat="40.4295450" lon="-4.5079460">
        <ele>724.2</ele>
        <time>2019-08-13T15:28:09Z</time>
      </trkpt>
      <trkpt lat="40.4295560" lon="-4.5080080">
        <ele>724.5</ele>
        <time>2019-08-13T15:28:11Z</time>
      </trkpt>
      <trkpt lat="40.4295650" lon="-4.5080710">
        <ele>724.8</ele>
        <time>2019-08-13T15:28:13Z</time>
      </trkpt>
      <trkpt lat="40.4295720" lon="-4.5081330">
        <ele>725.2</ele>
        <time>2019-08-13T15:28:15Z</time>
      </trkpt>
      <trkpt lat="40.4295820" lon="-4.5081960">
        <ele>725.5</ele>
        <time>2019-08-13T15:28:17Z</time>
      </trkpt>
      <trkpt lat="40.4295900" lon="-4.5082570">
        <ele>725.8</ele>
        <time>2019-08-13T15:28:19Z</time>
      </trkpt>
      <trkpt lat="40.4295990" lon="-4.5083170">
        <ele>726.1</ele>
        <time>2019-08-13T15:28:21Z</time>
      </trkpt>
      <trkpt lat="40.4296090" lon="-4.5083770">
        <ele>726.4</ele>
        <time>2019-08-13T15:28:23Z</time>
      </trkpt>
      <trkpt lat="40.4296200" lon="-4.5084380">
        <ele>726.7</ele>
        <time>2019-08-13T15:28:25Z</time>
      </trkpt>
      <trkpt lat="40.4296310" lon="-4.5084980">
        <ele>727.1</ele>
        <time>2019-08-13T15:28:27Z</time>
      </trkpt>
      <trkpt lat="40.4296410" lon="-4.5085590">
        <ele>727.4</ele>
        <time>2019-08-13T15:28:29Z</time>
      </trkpt>
      <trkpt lat="40.4296520" lon="-4.5086190">
        <ele>727.7</ele>
        <time>2019-08-13T15:28:31Z</time>
      </trkpt>
      <trkpt lat="40.4296660" lon="-4.5086810">
        <ele>728.1</ele>
        <time>2019-08-13T15:28:33Z</time>
      </trkpt>
      <trkpt lat="40.4296800" lon="-4.5087430">
        <ele>728.4</ele>
        <time>2019-08-13T15:28:35Z</time>
      </trkpt>
      <trkpt lat="40.4296940" lon="-4.5088060">
        <ele>728.7</ele>
        <time>2019-08-13T15:28:37Z</time>
      </trkpt>
      <trkpt lat="40.4297080" lon="-4.5088690">
        <ele>729.1</ele>
        <time>2019-08-13T15:28:39Z</time>
      </trkpt>
      <trkpt lat="40.4297240" lon="-4.5089310">
        <ele>729.4</ele>
        <time>2019-08-13T15:28:41Z</time>
      </trkpt>
      <trkpt lat="40.4297390" lon="-4.5089930">
        <ele>729.8</ele>
        <time>2019-08-13T15:28:43Z</time>
      </trkpt>
      <trkpt lat="40.4297540" lon="-4.5090540">
        <ele>730.1</ele>
        <time>2019-08-13T15:28:45Z</time>
      </trkpt>
      <trkpt lat="40.4297700" lon="-4.5091140">
        <ele>730.4</ele>
        <time>2019-08-13T15:28:47Z</time>
      </trkpt>
      <trkpt lat="40.4297870" lon="-4.5091750">
        <ele>730.8</ele>
        <time>2019-08-13T15:28:49Z</time>
      </trkpt>
      <trkpt lat="40.4298050" lon="-4.5092360">
        <ele>731.1</ele>
        <time>2019-08-13T15:28:51Z</time>
      </trkpt>
      <trkpt lat="40.4298220" lon="-4.5092950">
        <ele>731.4</ele>
        <time>2019-08-13T15:28:53Z</time>
      </trkpt>
      <trkpt lat="40.4298390" lon="-4.5093540">
        <ele>731.8</ele>
        <time>2019-08-13T15:28:55Z</time>
      </trkpt>
      <trkpt lat="40.4298570" lon="-4.5094140">
        <ele>732.1</ele>
        <time>2019-08-13T15:28:57Z</time>
      </trkpt>
      <trkpt lat="40.4298740" lon="-4.5094740">
        <ele>732.4</ele>
        <time>2019-08-13T15:28:59Z</time>
      </trkpt>
      <trkpt lat="40.4298920" lon="-4.5095340">
        <ele>732.8</ele>
        <time>2019-08-13T15:29:01Z</time>
      </trkpt>
      <trkpt lat="40.4299090" lon="-4.5095940">
        <ele>733.1</ele>
        <time>2019-08-13T15:29:03Z</time>
      </trkpt>
      <trkpt lat="40.4299290" lon="-4.5096530">
        <ele>733.4</ele>
        <time>2019-08-13T15:29:05Z</time>
      </trkpt>
      <trkpt lat="40.4299490" lon="-4.5097130">
        <ele>733.7</ele>
        <time>2019-08-13T15:29:07Z</time>
      </trkpt>
      <trkpt lat="40.4299700" lon="-4.5097710">
        <ele>734.0</ele>
        <time>2019-08-13T15:29:09Z</time>
      </trkpt>
      <trkpt lat="40.4299910" lon="-4.5098260">
        <ele>734.3</ele>
        <time>2019-08-13T15:29:11Z</time>
      </trkpt>
      <trkpt lat="40.4300120" lon="-4.5098830">
        <ele>734.6</ele>
        <time>2019-08-13T15:29:13Z</time>
      </trkpt>
      <trkpt lat="40.4300330" lon="-4.5099400">
        <ele>734.9</ele>
        <time>2019-08-13T15:29:15Z</time>
      </trkpt>
      <trkpt lat="40.4300530" lon="-4.5099950">
        <ele>735.2</ele>
        <time>2019-08-13T15:29:17Z</time>
      </trkpt>
      <trkpt lat="40.4300760" lon="-4.5100520">
        <ele>735.5</ele>
        <time>2019-08-13T15:29:19Z</time>
      </trkpt>
      <trkpt lat="40.4300990" lon="-4.5101110">
        <ele>735.7</ele>
        <time>2019-08-13T15:29:21Z</time>
      </trkpt>
      <trkpt lat="40.4301220" lon="-4.5101710">
        <ele>736.0</ele>
        <time>2019-08-13T15:29:23Z</time>
      </trkpt>
      <trkpt lat="40.4301470" lon="-4.5102310">
        <ele>736.2</ele>
        <time>2019-08-13T15:29:25Z</time>
      </trkpt>
      <trkpt lat="40.4301720" lon="-4.5102920">
        <ele>736.6</ele>
        <time>2019-08-13T15:29:27Z</time>
      </trkpt>
      <trkpt lat="40.4301970" lon="-4.5103530">
        <ele>736.8</ele>
        <time>2019-08-13T15:29:29Z</time>
      </trkpt>
      <trkpt lat="40.4302100" lon="-4.5103840">
        <ele>736.9</ele>
        <time>2019-08-13T15:29:30Z</time>
      </trkpt>
      <trkpt lat="40.4302230" lon="-4.5104150">
        <ele>737.1</ele>
        <time>2019-08-13T15:29:31Z</time>
      </trkpt>
      <trkpt lat="40.4302360" lon="-4.5104470">
        <ele>737.2</ele>
        <time>2019-08-13T15:29:32Z</time>
      </trkpt>
      <trkpt lat="40.4302490" lon="-4.5104780">
        <ele>737.3</ele>
        <time>2019-08-13T15:29:33Z</time>
      </trkpt>
      <trkpt lat="40.4302630" lon="-4.5105100">
        <ele>737.5</ele>
        <time>2019-08-13T15:29:34Z</time>
      </trkpt>
      <trkpt lat="40.4302770" lon="-4.5105420">
        <ele>737.6</ele>
        <time>2019-08-13T15:29:35Z</time>
      </trkpt>
      <trkpt lat="40.4302900" lon="-4.5105740">
        <ele>737.7</ele>
        <time>2019-08-13T15:29:36Z</time>
      </trkpt>
      <trkpt lat="40.4303030" lon="-4.5106060">
        <ele>737.8</ele>
        <time>2019-08-13T15:29:37Z</time>
      </trkpt>
      <trkpt lat="40.4303170" lon="-4.5106380">
        <ele>738.0</ele>
        <time>2019-08-13T15:29:38Z</time>
      </trkpt>
      <trkpt lat="40.4303310" lon="-4.5106700">
        <ele>738.1</ele>
        <time>2019-08-13T15:29:39Z</time>
      </trkpt>
      <trkpt lat="40.4303450" lon="-4.5107020">
        <ele>738.3</ele>
        <time>2019-08-13T15:29:40Z</time>
      </trkpt>
      <trkpt lat="40.4303590" lon="-4.5107340">
        <ele>738.4</ele>
        <time>2019-08-13T15:29:41Z</time>
      </trkpt>
      <trkpt lat="40.4303730" lon="-4.5107680">
        <ele>738.5</ele>
        <time>2019-08-13T15:29:42Z</time>
      </trkpt>
      <trkpt lat="40.4303880" lon="-4.5108020">
        <ele>738.6</ele>
        <time>2019-08-13T15:29:43Z</time>
      </trkpt>
      <trkpt lat="40.4304030" lon="-4.5108360">
        <ele>738.8</ele>
        <time>2019-08-13T15:29:44Z</time>
      </trkpt>
      <trkpt lat="40.4304190" lon="-4.5108700">
        <ele>738.9</ele>
        <time>2019-08-13T15:29:45Z</time>
      </trkpt>
      <trkpt lat="40.4304340" lon="-4.5109040">
        <ele>739.0</ele>
        <time>2019-08-13T15:29:46Z</time>
      </trkpt>
      <trkpt lat="40.4304490" lon="-4.5109390">
        <ele>739.1</ele>
        <time>2019-08-13T15:29:47Z</time>
      </trkpt>
      <trkpt lat="40.4304640" lon="-4.5109740">
        <ele>739.3</ele>
        <time>2019-08-13T15:29:48Z</time>
      </trkpt>
      <trkpt lat="40.4304790" lon="-4.5110090">
        <ele>739.4</ele>
        <time>2019-08-13T15:29:49Z</time>
      </trkpt>
      <trkpt lat="40.4304940" lon="-4.5110450">
        <ele>739.5</ele>
        <time>2019-08-13T15:29:50Z</time>
      </trkpt>
      <trkpt lat="40.4305090" lon="-4.5110810">
        <ele>739.6</ele>
        <time>2019-08-13T15:29:51Z</time>
      </trkpt>
      <trkpt lat="40.4305250" lon="-4.5111180">
        <ele>739.7</ele>
        <time>2019-08-13T15:29:52Z</time>
      </trkpt>
      <trkpt lat="40.4305400" lon="-4.5111550">
        <ele>739.8</ele>
        <time>2019-08-13T15:29:53Z</time>
      </trkpt>
      <trkpt lat="40.4305540" lon="-4.5111920">
        <ele>740.0</ele>
        <time>2019-08-13T15:29:54Z</time>
      </trkpt>
      <trkpt lat="40.4305690" lon="-4.5112290">
        <ele>740.1</ele>
        <time>2019-08-13T15:29:55Z</time>
      </trkpt>
      <trkpt lat="40.4305830" lon="-4.5112660">
        <ele>740.2</ele>
        <time>2019-08-13T15:29:56Z</time>
      </trkpt>
      <trkpt lat="40.4305970" lon="-4.5113020">
        <ele>740.3</ele>
        <time>2019-08-13T15:29:57Z</time>
      </trkpt>
      <trkpt lat="40.4306110" lon="-4.5113380">
        <ele>740.4</ele>
        <time>2019-08-13T15:29:58Z</time>
      </trkpt>
      <trkpt lat="40.4306240" lon="-4.5113730">
        <ele>740.5</ele>
        <time>2019-08-13T15:29:59Z</time>
      </trkpt>
      <trkpt lat="40.4306360" lon="-4.5114060">
        <ele>740.6</ele>
        <time>2019-08-13T15:30:00Z</time>
      </trkpt>
      <trkpt lat="40.4306580" lon="-4.5114710">
        <ele>740.8</ele>
        <time>2019-08-13T15:30:02Z</time>
      </trkpt>
      <trkpt lat="40.4306700" lon="-4.5115070">
        <ele>740.9</ele>
        <time>2019-08-13T15:30:03Z</time>
      </trkpt>
      <trkpt lat="40.4306820" lon="-4.5115450">
        <ele>741.0</ele>
        <time>2019-08-13T15:30:04Z</time>
      </trkpt>
      <trkpt lat="40.4306950" lon="-4.5115840">
        <ele>741.1</ele>
        <time>2019-08-13T15:30:05Z</time>
      </trkpt>
      <trkpt lat="40.4307090" lon="-4.5116250">
        <ele>741.2</ele>
        <time>2019-08-13T15:30:06Z</time>
      </trkpt>
      <trkpt lat="40.4307230" lon="-4.5116650">
        <ele>741.3</ele>
        <time>2019-08-13T15:30:07Z</time>
      </trkpt>
      <trkpt lat="40.4307380" lon="-4.5117040">
        <ele>741.4</ele>
        <time>2019-08-13T15:30:08Z</time>
      </trkpt>
      <trkpt lat="40.4307530" lon="-4.5117440">
        <ele>741.5</ele>
        <time>2019-08-13T15:30:09Z</time>
      </trkpt>
      <trkpt lat="40.4307660" lon="-4.5117840">
        <ele>741.6</ele>
        <time>2019-08-13T15:30:10Z</time>
      </trkpt>
      <trkpt lat="40.4307780" lon="-4.5118240">
        <ele>741.7</ele>
        <time>2019-08-13T15:30:11Z</time>
      </trkpt>
      <trkpt lat="40.4307900" lon="-4.5118640">
        <ele>741.8</ele>
        <time>2019-08-13T15:30:12Z</time>
      </trkpt>
      <trkpt lat="40.4308000" lon="-4.5119040">
        <ele>741.9</ele>
        <time>2019-08-13T15:30:13Z</time>
      </trkpt>
      <trkpt lat="40.4308100" lon="-4.5119450">
        <ele>742.0</ele>
        <time>2019-08-13T15:30:14Z</time>
      </trkpt>
      <trkpt lat="40.4308200" lon="-4.5119860">
        <ele>742.1</ele>
        <time>2019-08-13T15:30:15Z</time>
      </trkpt>
      <trkpt lat="40.4308320" lon="-4.5120290">
        <ele>742.2</ele>
        <time>2019-08-13T15:30:16Z</time>
      </trkpt>
      <trkpt lat="40.4308430" lon="-4.5120730">
        <ele>742.3</ele>
        <time>2019-08-13T15:30:17Z</time>
      </trkpt>
      <trkpt lat="40.4308540" lon="-4.5121190">
        <ele>742.4</ele>
        <time>2019-08-13T15:30:18Z</time>
      </trkpt>
      <trkpt lat="40.4308650" lon="-4.5121650">
        <ele>742.5</ele>
        <time>2019-08-13T15:30:19Z</time>
      </trkpt>
      <trkpt lat="40.4308740" lon="-4.5122100">
        <ele>742.6</ele>
        <time>2019-08-13T15:30:20Z</time>
      </trkpt>
      <trkpt lat="40.4308820" lon="-4.5122560">
        <ele>742.7</ele>
        <time>2019-08-13T15:30:21Z</time>
      </trkpt>
      <trkpt lat="40.4308900" lon="-4.5123030">
        <ele>742.8</ele>
        <time>2019-08-13T15:30:22Z</time>
      </trkpt>
      <trkpt lat="40.4308970" lon="-4.5123500">
        <ele>742.9</ele>
        <time>2019-08-13T15:30:23Z</time>
      </trkpt>
      <trkpt lat="40.4309050" lon="-4.5123980">
        <ele>743.0</ele>
        <time>2019-08-13T15:30:24Z</time>
      </trkpt>
      <trkpt lat="40.4309130" lon="-4.5124470">
        <ele>743.1</ele>
        <time>2019-08-13T15:30:25Z</time>
      </trkpt>
      <trkpt lat="40.4309190" lon="-4.5124980">
        <ele>743.3</ele>
        <time>2019-08-13T15:30:26Z</time>
      </trkpt>
      <trkpt lat="40.4309240" lon="-4.5125490">
        <ele>743.4</ele>
        <time>2019-08-13T15:30:27Z</time>
      </trkpt>
      <trkpt lat="40.4309300" lon="-4.5126010">
        <ele>743.5</ele>
        <time>2019-08-13T15:30:28Z</time>
      </trkpt>
      <trkpt lat="40.4309340" lon="-4.5126490">
        <ele>743.8</ele>
        <time>2019-08-13T15:30:29Z</time>
      </trkpt>
      <trkpt lat="40.4309380" lon="-4.5126960">
        <ele>744.1</ele>
        <time>2019-08-13T15:30:30Z</time>
      </trkpt>
      <trkpt lat="40.4309410" lon="-4.5127400">
        <ele>744.3</ele>
        <time>2019-08-13T15:30:31Z</time>
      </trkpt>
      <trkpt lat="40.4309460" lon="-4.5127840">
        <ele>744.6</ele>
        <time>2019-08-13T15:30:32Z</time>
      </trkpt>
      <trkpt lat="40.4309490" lon="-4.5128300">
        <ele>744.8</ele>
        <time>2019-08-13T15:30:33Z</time>
      </trkpt>
      <trkpt lat="40.4309500" lon="-4.5128780">
        <ele>745.1</ele>
        <time>2019-08-13T15:30:34Z</time>
      </trkpt>
      <trkpt lat="40.4309520" lon="-4.5129290">
        <ele>745.4</ele>
        <time>2019-08-13T15:30:35Z</time>
      </trkpt>
      <trkpt lat="40.4309510" lon="-4.5129810">
        <ele>745.7</ele>
        <time>2019-08-13T15:30:36Z</time>
      </trkpt>
      <trkpt lat="40.4309480" lon="-4.5130340">
        <ele>746.0</ele>
        <time>2019-08-13T15:30:37Z</time>
      </trkpt>
      <trkpt lat="40.4309410" lon="-4.5130850">
        <ele>746.3</ele>
        <time>2019-08-13T15:30:38Z</time>
      </trkpt>
      <trkpt lat="40.4309320" lon="-4.5131360">
        <ele>746.6</ele>
        <time>2019-08-13T15:30:39Z</time>
      </trkpt>
      <trkpt lat="40.4309250" lon="-4.5131880">
        <ele>746.9</ele>
        <time>2019-08-13T15:30:40Z</time>
      </trkpt>
      <trkpt lat="40.4309240" lon="-4.5132420">
        <ele>747.2</ele>
        <time>2019-08-13T15:30:41Z</time>
      </trkpt>
      <trkpt lat="40.4309230" lon="-4.5132950">
        <ele>747.5</ele>
        <time>2019-08-13T15:30:42Z</time>
      </trkpt>
      <trkpt lat="40.4309200" lon="-4.5133490">
        <ele>747.9</ele>
        <time>2019-08-13T15:30:43Z</time>
      </trkpt>
      <trkpt lat="40.4309190" lon="-4.5134050">
        <ele>748.3</ele>
        <time>2019-08-13T15:30:44Z</time>
      </trkpt>
      <trkpt lat="40.4309180" lon="-4.5134620">
        <ele>748.6</ele>
        <time>2019-08-13T15:30:45Z</time>
      </trkpt>
      <trkpt lat="40.4309160" lon="-4.5135220">
        <ele>748.8</ele>
        <time>2019-08-13T15:30:46Z</time>
      </trkpt>
      <trkpt lat="40.4309130" lon="-4.5135830">
        <ele>749.1</ele>
        <time>2019-08-13T15:30:47Z</time>
      </trkpt>
      <trkpt lat="40.4309060" lon="-4.5136370">
        <ele>749.3</ele>
        <time>2019-08-13T15:30:48Z</time>
      </trkpt>
      <trkpt lat="40.4308990" lon="-4.5136910">
        <ele>749.5</ele>
        <time>2019-08-13T15:30:49Z</time>
      </trkpt>
      <trkpt lat="40.4308930" lon="-4.5137440">
        <ele>749.8</ele>
        <time>2019-08-13T15:30:50Z</time>
      </trkpt>
      <trkpt lat="40.4308890" lon="-4.5137930">
        <ele>750.0</ele>
        <time>2019-08-13T15:30:51Z</time>
      </trkpt>
      <trkpt lat="40.4308830" lon="-4.5138430">
        <ele>750.2</ele>
        <time>2019-08-13T15:30:52Z</time>
      </trkpt>
      <trkpt lat="40.4308780" lon="-4.5138930">
        <ele>750.4</ele>
        <time>2019-08-13T15:30:53Z</time>
      </trkpt>
      <trkpt lat="40.4308720" lon="-4.5139400">
        <ele>750.6</ele>
        <time>2019-08-13T15:30:54Z</time>
      </trkpt>
      <trkpt lat="40.4308660" lon="-4.5139920">
        <ele>750.8</ele>
        <time>2019-08-13T15:30:55Z</time>
      </trkpt>
      <trkpt lat="40.4308560" lon="-4.5140530">
        <ele>751.1</ele>
        <time>2019-08-13T15:30:56Z</time>
      </trkpt>
      <trkpt lat="40.4308420" lon="-4.5141040">
        <ele>751.3</ele>
        <time>2019-08-13T15:30:57Z</time>
      </trkpt>
      <trkpt lat="40.4308290" lon="-4.5141590">
        <ele>751.5</ele>
        <time>2019-08-13T15:30:58Z</time>
      </trkpt>
      <trkpt lat="40.4308180" lon="-4.5142170">
        <ele>751.8</ele>
        <time>2019-08-13T15:30:59Z</time>
      </trkpt>
      <trkpt lat="40.4308040" lon="-4.5142710">
        <ele>752.0</ele>
        <time>2019-08-13T15:31:00Z</time>
      </trkpt>
      <trkpt lat="40.4307910" lon="-4.5143240">
        <ele>752.2</ele>
        <time>2019-08-13T15:31:01Z</time>
      </trkpt>
      <trkpt lat="40.4307760" lon="-4.5143810">
        <ele>752.4</ele>
        <time>2019-08-13T15:31:02Z</time>
      </trkpt>
      <trkpt lat="40.4307580" lon="-4.5144370">
        <ele>752.7</ele>
        <time>2019-08-13T15:31:03Z</time>
      </trkpt>
      <trkpt lat="40.4307410" lon="-4.5144910">
        <ele>753.0</ele>
        <time>2019-08-13T15:31:04Z</time>
      </trkpt>
      <trkpt lat="40.4307230" lon="-4.5145450">
        <ele>753.3</ele>
        <time>2019-08-13T15:31:05Z</time>
      </trkpt>
      <trkpt lat="40.4307110" lon="-4.5145960">
        <ele>753.6</ele>
        <time>2019-08-13T15:31:06Z</time>
      </trkpt>
      <trkpt lat="40.4307050" lon="-4.5146480">
        <ele>753.7</ele>
        <time>2019-08-13T15:31:07Z</time>
      </trkpt>
      <trkpt lat="40.4307020" lon="-4.5147020">
        <ele>753.9</ele>
        <time>2019-08-13T15:31:08Z</time>
      </trkpt>
      <trkpt lat="40.4306970" lon="-4.5147580">
        <ele>754.1</ele>
        <time>2019-08-13T15:31:09Z</time>
      </trkpt>
      <trkpt lat="40.4306850" lon="-4.5148120">
        <ele>754.2</ele>
        <time>2019-08-13T15:31:10Z</time>
      </trkpt>
      <trkpt lat="40.4306670" lon="-4.5148630">
        <ele>754.4</ele>
        <time>2019-08-13T15:31:11Z</time>
      </trkpt>
      <trkpt lat="40.4306480" lon="-4.5149150">
        <ele>754.6</ele>
        <time>2019-08-13T15:31:12Z</time>
      </trkpt>
      <trkpt lat="40.4306300" lon="-4.5149650">
        <ele>754.9</ele>
        <time>2019-08-13T15:31:13Z</time>
      </trkpt>
      <trkpt lat="40.4306160" lon="-4.5150120">
        <ele>755.0</ele>
        <time>2019-08-13T15:31:14Z</time>
      </trkpt>
      <trkpt lat="40.4306010" lon="-4.5150580">
        <ele>755.1</ele>
        <time>2019-08-13T15:31:15Z</time>
      </trkpt>
      <trkpt lat="40.4305870" lon="-4.5151020">
        <ele>755.2</ele>
        <time>2019-08-13T15:31:16Z</time>
      </trkpt>
      <trkpt lat="40.4305710" lon="-4.5151470">
        <ele>755.3</ele>
        <time>2019-08-13T15:31:17Z</time>
      </trkpt>
      <trkpt lat="40.4305550" lon="-4.5151960">
        <ele>755.5</ele>
        <time>2019-08-13T15:31:18Z</time>
      </trkpt>
      <trkpt lat="40.4305380" lon="-4.5152460">
        <ele>755.6</ele>
        <time>2019-08-13T15:31:19Z</time>
      </trkpt>
      <trkpt lat="40.4305210" lon="-4.5152990">
        <ele>755.7</ele>
        <time>2019-08-13T15:31:20Z</time>
      </trkpt>
      <trkpt lat="40.4305040" lon="-4.5153500">
        <ele>755.9</ele>
        <time>2019-08-13T15:31:21Z</time>
      </trkpt>
      <trkpt lat="40.4304860" lon="-4.5154010">
        <ele>756.0</ele>
        <time>2019-08-13T15:31:22Z</time>
      </trkpt>
      <trkpt lat="40.4304700" lon="-4.5154500">
        <ele>756.2</ele>
        <time>2019-08-13T15:31:23Z</time>
      </trkpt>
      <trkpt lat="40.4304550" lon="-4.5154980">
        <ele>756.4</ele>
        <time>2019-08-13T15:31:24Z</time>
      </trkpt>
      <trkpt lat="40.4304410" lon="-4.5155460">
        <ele>756.1</ele>
        <time>2019-08-13T15:31:25Z</time>
      </trkpt>
      <trkpt lat="40.4304270" lon="-4.5155960">
        <ele>755.8</ele>
        <time>2019-08-13T15:31:26Z</time>
      </trkpt>
      <trkpt lat="40.4304120" lon="-4.5156480">
        <ele>755.5</ele>
        <time>2019-08-13T15:31:27Z</time>
      </trkpt>
      <trkpt lat="40.4303950" lon="-4.5157020">
        <ele>755.2</ele>
        <time>2019-08-13T15:31:28Z</time>
      </trkpt>
      <trkpt lat="40.4303780" lon="-4.5157590">
        <ele>754.8</ele>
        <time>2019-08-13T15:31:29Z</time>
      </trkpt>
      <trkpt lat="40.4303590" lon="-4.5158170">
        <ele>754.5</ele>
        <time>2019-08-13T15:31:30Z</time>
      </trkpt>
      <trkpt lat="40.4303430" lon="-4.5158740">
        <ele>754.1</ele>
        <time>2019-08-13T15:31:31Z</time>
      </trkpt>
      <trkpt lat="40.4303280" lon="-4.5159310">
        <ele>753.8</ele>
        <time>2019-08-13T15:31:32Z</time>
      </trkpt>
      <trkpt lat="40.4303100" lon="-4.5159870">
        <ele>753.5</ele>
        <time>2019-08-13T15:31:33Z</time>
      </trkpt>
      <trkpt lat="40.4302920" lon="-4.5160470">
        <ele>753.1</ele>
        <time>2019-08-13T15:31:34Z</time>
      </trkpt>
      <trkpt lat="40.4302740" lon="-4.5161070">
        <ele>752.8</ele>
        <time>2019-08-13T15:31:35Z</time>
      </trkpt>
      <trkpt lat="40.4302560" lon="-4.5161680">
        <ele>752.2</ele>
        <time>2019-08-13T15:31:36Z</time>
      </trkpt>
      <trkpt lat="40.4302400" lon="-4.5162290">
        <ele>751.8</ele>
        <time>2019-08-13T15:31:37Z</time>
      </trkpt>
      <trkpt lat="40.4302250" lon="-4.5162920">
        <ele>751.3</ele>
        <time>2019-08-13T15:31:38Z</time>
      </trkpt>
      <trkpt lat="40.4302100" lon="-4.5163570">
        <ele>750.8</ele>
        <time>2019-08-13T15:31:39Z</time>
      </trkpt>
      <trkpt lat="40.4301990" lon="-4.5164230">
        <ele>750.4</ele>
        <time>2019-08-13T15:31:40Z</time>
      </trkpt>
      <trkpt lat="40.4301880" lon="-4.5164860">
        <ele>749.9</ele>
        <time>2019-08-13T15:31:41Z</time>
      </trkpt>
      <trkpt lat="40.4301760" lon="-4.5165470">
        <ele>749.5</ele>
        <time>2019-08-13T15:31:42Z</time>
      </trkpt>
      <trkpt lat="40.4301660" lon="-4.5166050">
        <ele>749.1</ele>
        <time>2019-08-13T15:31:43Z</time>
      </trkpt>
      <trkpt lat="40.4301580" lon="-4.5166620">
        <ele>748.4</ele>
        <time>2019-08-13T15:31:44Z</time>
      </trkpt>
      <trkpt lat="40.4301510" lon="-4.5167210">
        <ele>748.0</ele>
        <time>2019-08-13T15:31:45Z</time>
      </trkpt>
      <trkpt lat="40.4301450" lon="-4.5167810">
        <ele>747.6</ele>
        <time>2019-08-13T15:31:46Z</time>
      </trkpt>
      <trkpt lat="40.4301400" lon="-4.5168400">
        <ele>747.2</ele>
        <time>2019-08-13T15:31:47Z</time>
      </trkpt>
      <trkpt lat="40.4301340" lon="-4.5168990">
        <ele>746.8</ele>
        <time>2019-08-13T15:31:48Z</time>
      </trkpt>
      <trkpt lat="40.4301300" lon="-4.5169600">
        <ele>746.4</ele>
        <time>2019-08-13T15:31:49Z</time>
      </trkpt>
      <trkpt lat="40.4301270" lon="-4.5170220">
        <ele>746.0</ele>
        <time>2019-08-13T15:31:50Z</time>
      </trkpt>
      <trkpt lat="40.4301260" lon="-4.5170840">
        <ele>745.5</ele>
        <time>2019-08-13T15:31:51Z</time>
      </trkpt>
      <trkpt lat="40.4301250" lon="-4.5171460">
        <ele>745.1</ele>
        <time>2019-08-13T15:31:52Z</time>
      </trkpt>
      <trkpt lat="40.4301260" lon="-4.5172100">
        <ele>744.7</ele>
        <time>2019-08-13T15:31:53Z</time>
      </trkpt>
      <trkpt lat="40.4301270" lon="-4.5172710">
        <ele>744.3</ele>
        <time>2019-08-13T15:31:54Z</time>
      </trkpt>
      <trkpt lat="40.4301320" lon="-4.5173350">
        <ele>743.8</ele>
        <time>2019-08-13T15:31:55Z</time>
      </trkpt>
      <trkpt lat="40.4301380" lon="-4.5173960">
        <ele>743.4</ele>
        <time>2019-08-13T15:31:56Z</time>
      </trkpt>
      <trkpt lat="40.4301430" lon="-4.5174580">
        <ele>743.0</ele>
        <time>2019-08-13T15:31:57Z</time>
      </trkpt>
      <trkpt lat="40.4301500" lon="-4.5175190">
        <ele>742.6</ele>
        <time>2019-08-13T15:31:58Z</time>
      </trkpt>
      <trkpt lat="40.4301580" lon="-4.5175800">
        <ele>742.1</ele>
        <time>2019-08-13T15:31:59Z</time>
      </trkpt>
      <trkpt lat="40.4301690" lon="-4.5176450">
        <ele>741.7</ele>
        <time>2019-08-13T15:32:00Z</time>
      </trkpt>
      <trkpt lat="40.4301780" lon="-4.5177040">
        <ele>741.3</ele>
        <time>2019-08-13T15:32:01Z</time>
      </trkpt>
      <trkpt lat="40.4301890" lon="-4.5177650">
        <ele>740.8</ele>
        <time>2019-08-13T15:32:02Z</time>
      </trkpt>
      <trkpt lat="40.4301990" lon="-4.5178210">
        <ele>740.5</ele>
        <time>2019-08-13T15:32:03Z</time>
      </trkpt>
      <trkpt lat="40.4302110" lon="-4.5178780">
        <ele>740.1</ele>
        <time>2019-08-13T15:32:04Z</time>
      </trkpt>
      <trkpt lat="40.4302240" lon="-4.5179370">
        <ele>739.6</ele>
        <time>2019-08-13T15:32:05Z</time>
      </trkpt>
      <trkpt lat="40.4302370" lon="-4.5179950">
        <ele>739.2</ele>
        <time>2019-08-13T15:32:06Z</time>
      </trkpt>
      <trkpt lat="40.4302510" lon="-4.5180530">
        <ele>738.8</ele>
        <time>2019-08-13T15:32:07Z</time>
      </trkpt>
      <trkpt lat="40.4302660" lon="-4.5181120">
        <ele>738.3</ele>
        <time>2019-08-13T15:32:08Z</time>
      </trkpt>
      <trkpt lat="40.4302810" lon="-4.5181690">
        <ele>738.4</ele>
        <time>2019-08-13T15:32:09Z</time>
      </trkpt>
      <trkpt lat="40.4302980" lon="-4.5182280">
        <ele>738.4</ele>
        <time>2019-08-13T15:32:10Z</time>
      </trkpt>
      <trkpt lat="40.4303150" lon="-4.5182860">
        <ele>738.5</ele>
        <time>2019-08-13T15:32:11Z</time>
      </trkpt>
      <trkpt lat="40.4303330" lon="-4.5183440">
        <ele>738.6</ele>
        <time>2019-08-13T15:32:12Z</time>
      </trkpt>
      <trkpt lat="40.4303500" lon="-4.5184030">
        <ele>738.9</ele>
        <time>2019-08-13T15:32:13Z</time>
      </trkpt>
      <trkpt lat="40.4303660" lon="-4.5184640">
        <ele>739.2</ele>
        <time>2019-08-13T15:32:14Z</time>
      </trkpt>
      <trkpt lat="40.4303830" lon="-4.5185210">
        <ele>739.4</ele>
        <time>2019-08-13T15:32:15Z</time>
      </trkpt>
      <trkpt lat="40.4303990" lon="-4.5185800">
        <ele>739.7</ele>
        <time>2019-08-13T15:32:16Z</time>
      </trkpt>
      <trkpt lat="40.4304160" lon="-4.5186380">
        <ele>740.0</ele>
        <time>2019-08-13T15:32:17Z</time>
      </trkpt>
      <trkpt lat="40.4304320" lon="-4.5186960">
        <ele>740.3</ele>
        <time>2019-08-13T15:32:18Z</time>
      </trkpt>
      <trkpt lat="40.4304480" lon="-4.5187550">
        <ele>740.5</ele>
        <time>2019-08-13T15:32:19Z</time>
      </trkpt>
      <trkpt lat="40.4304650" lon="-4.5188150">
        <ele>740.8</ele>
        <time>2019-08-13T15:32:20Z</time>
      </trkpt>
      <trkpt lat="40.4304810" lon="-4.5188760">
        <ele>741.1</ele>
        <time>2019-08-13T15:32:21Z</time>
      </trkpt>
      <trkpt lat="40.4304970" lon="-4.5189370">
        <ele>741.4</ele>
        <time>2019-08-13T15:32:22Z</time>
      </trkpt>
      <trkpt lat="40.4305110" lon="-4.5189970">
        <ele>741.7</ele>
        <time>2019-08-13T15:32:23Z</time>
      </trkpt>
      <trkpt lat="40.4305230" lon="-4.5190570">
        <ele>742.0</ele>
        <time>2019-08-13T15:32:24Z</time>
      </trkpt>
      <trkpt lat="40.4305350" lon="-4.5191160">
        <ele>742.3</ele>
        <time>2019-08-13T15:32:25Z</time>
      </trkpt>
      <trkpt lat="40.4305440" lon="-4.5191730">
        <ele>742.5</ele>
        <time>2019-08-13T15:32:26Z</time>
      </trkpt>
      <trkpt lat="40.4305530" lon="-4.5192320">
        <ele>742.8</ele>
        <time>2019-08-13T15:32:27Z</time>
      </trkpt>
      <trkpt lat="40.4305640" lon="-4.5192940">
        <ele>743.1</ele>
        <time>2019-08-13T15:32:28Z</time>
      </trkpt>
      <trkpt lat="40.4305720" lon="-4.5193540">
        <ele>743.3</ele>
        <time>2019-08-13T15:32:29Z</time>
      </trkpt>
      <trkpt lat="40.4305790" lon="-4.5194140">
        <ele>743.6</ele>
        <time>2019-08-13T15:32:30Z</time>
      </trkpt>
      <trkpt lat="40.4305840" lon="-4.5194760">
        <ele>743.8</ele>
        <time>2019-08-13T15:32:31Z</time>
      </trkpt>
      <trkpt lat="40.4305870" lon="-4.5195360">
        <ele>744.0</ele>
        <time>2019-08-13T15:32:32Z</time>
      </trkpt>
      <trkpt lat="40.4305890" lon="-4.5195940">
        <ele>744.3</ele>
        <time>2019-08-13T15:32:33Z</time>
      </trkpt>
      <trkpt lat="40.4305910" lon="-4.5196500">
        <ele>744.5</ele>
        <time>2019-08-13T15:32:34Z</time>
      </trkpt>
      <trkpt lat="40.4305930" lon="-4.5197070">
        <ele>744.7</ele>
        <time>2019-08-13T15:32:35Z</time>
      </trkpt>
      <trkpt lat="40.4305960" lon="-4.5197650">
        <ele>744.9</ele>
        <time>2019-08-13T15:32:36Z</time>
      </trkpt>
      <trkpt lat="40.4305990" lon="-4.5198250">
        <ele>745.2</ele>
        <time>2019-08-13T15:32:37Z</time>
      </trkpt>
      <trkpt lat="40.4306010" lon="-4.5198850">
        <ele>745.4</ele>
        <time>2019-08-13T15:32:38Z</time>
      </trkpt>
      <trkpt lat="40.4306010" lon="-4.5199430">
        <ele>745.6</ele>
        <time>2019-08-13T15:32:39Z</time>
      </trkpt>
      <trkpt lat="40.4306020" lon="-4.5200040">
        <ele>745.9</ele>
        <time>2019-08-13T15:32:40Z</time>
      </trkpt>
      <trkpt lat="40.4306010" lon="-4.5200600">
        <ele>746.2</ele>
        <time>2019-08-13T15:32:41Z</time>
      </trkpt>
      <trkpt lat="40.4306010" lon="-4.5201200">
        <ele>746.5</ele>
        <time>2019-08-13T15:32:42Z</time>
      </trkpt>
      <trkpt lat="40.4306010" lon="-4.5201810">
        <ele>746.8</ele>
        <time>2019-08-13T15:32:43Z</time>
      </trkpt>
      <trkpt lat="40.4305990" lon="-4.5202420">
        <ele>747.1</ele>
        <time>2019-08-13T15:32:44Z</time>
      </trkpt>
      <trkpt lat="40.4305960" lon="-4.5203030">
        <ele>747.3</ele>
        <time>2019-08-13T15:32:45Z</time>
      </trkpt>
      <trkpt lat="40.4305960" lon="-4.5203660">
        <ele>747.5</ele>
        <time>2019-08-13T15:32:46Z</time>
      </trkpt>
      <trkpt lat="40.4305960" lon="-4.5204270">
        <ele>747.8</ele>
        <time>2019-08-13T15:32:47Z</time>
      </trkpt>
      <trkpt lat="40.4305950" lon="-4.5204870">
        <ele>748.0</ele>
        <time>2019-08-13T15:32:48Z</time>
      </trkpt>
      <trkpt lat="40.4305940" lon="-4.5205460">
        <ele>748.3</ele>
        <time>2019-08-13T15:32:49Z</time>
      </trkpt>
      <trkpt lat="40.4305930" lon="-4.5206050">
        <ele>748.6</ele>
        <time>2019-08-13T15:32:50Z</time>
      </trkpt>
      <trkpt lat="40.4305930" lon="-4.5206650">
        <ele>748.8</ele>
        <time>2019-08-13T15:32:51Z</time>
      </trkpt>
      <trkpt lat="40.4305920" lon="-4.5207240">
        <ele>749.1</ele>
        <time>2019-08-13T15:32:52Z</time>
      </trkpt>
      <trkpt lat="40.4305890" lon="-4.5207810">
        <ele>749.3</ele>
        <time>2019-08-13T15:32:53Z</time>
      </trkpt>
      <trkpt lat="40.4305860" lon="-4.5208360">
        <ele>749.5</ele>
        <time>2019-08-13T15:32:54Z</time>
      </trkpt>
      <trkpt lat="40.4305840" lon="-4.5208910">
        <ele>749.7</ele>
        <time>2019-08-13T15:32:55Z</time>
      </trkpt>
      <trkpt lat="40.4305810" lon="-4.5209440">
        <ele>749.8</ele>
        <time>2019-08-13T15:32:56Z</time>
      </trkpt>
      <trkpt lat="40.4305770" lon="-4.5209980">
        <ele>750.0</ele>
        <time>2019-08-13T15:32:57Z</time>
      </trkpt>
      <trkpt lat="40.4305760" lon="-4.5210560">
        <ele>750.1</ele>
        <time>2019-08-13T15:32:58Z</time>
      </trkpt>
      <trkpt lat="40.4305750" lon="-4.5211150">
        <ele>750.3</ele>
        <time>2019-08-13T15:32:59Z</time>
      </trkpt>
      <trkpt lat="40.4305740" lon="-4.5211760">
        <ele>750.5</ele>
        <time>2019-08-13T15:33:00Z</time>
      </trkpt>
      <trkpt lat="40.4305730" lon="-4.5212330">
        <ele>750.6</ele>
        <time>2019-08-13T15:33:01Z</time>
      </trkpt>
      <trkpt lat="40.4305740" lon="-4.5212920">
        <ele>750.8</ele>
        <time>2019-08-13T15:33:02Z</time>
      </trkpt>
      <trkpt lat="40.4305730" lon="-4.5213480">
        <ele>750.9</ele>
        <time>2019-08-13T15:33:03Z</time>
      </trkpt>
      <trkpt lat="40.4305710" lon="-4.5213990">
        <ele>751.1</ele>
        <time>2019-08-13T15:33:04Z</time>
      </trkpt>
      <trkpt lat="40.4305700" lon="-4.5214510">
        <ele>751.2</ele>
        <time>2019-08-13T15:33:05Z</time>
      </trkpt>
      <trkpt lat="40.4305710" lon="-4.5215080">
        <ele>751.4</ele>
        <time>2019-08-13T15:33:06Z</time>
      </trkpt>
      <trkpt lat="40.4305720" lon="-4.5215670">
        <ele>751.6</ele>
        <time>2019-08-13T15:33:07Z</time>
      </trkpt>
      <trkpt lat="40.4305740" lon="-4.5216270">
        <ele>751.8</ele>
        <time>2019-08-13T15:33:08Z</time>
      </trkpt>
      <trkpt lat="40.4305770" lon="-4.5216870">
        <ele>752.1</ele>
        <time>2019-08-13T15:33:09Z</time>
      </trkpt>
      <trkpt lat="40.4305780" lon="-4.5217450">
        <ele>752.3</ele>
        <time>2019-08-13T15:33:10Z</time>
      </trkpt>
      <trkpt lat="40.4305780" lon="-4.5218040">
        <ele>752.6</ele>
        <time>2019-08-13T15:33:11Z</time>
      </trkpt>
      <trkpt lat="40.4305800" lon="-4.5218630">
        <ele>752.9</ele>
        <time>2019-08-13T15:33:12Z</time>
      </trkpt>
      <trkpt lat="40.4305810" lon="-4.5219220">
        <ele>753.2</ele>
        <time>2019-08-13T15:33:13Z</time>
      </trkpt>
      <trkpt lat="40.4305820" lon="-4.5219800">
        <ele>753.5</ele>
        <time>2019-08-13T15:33:14Z</time>
      </trkpt>
      <trkpt lat="40.4305820" lon="-4.5220360">
        <ele>753.7</ele>
        <time>2019-08-13T15:33:15Z</time>
      </trkpt>
      <trkpt lat="40.4305820" lon="-4.5220880">
        <ele>754.0</ele>
        <time>2019-08-13T15:33:16Z</time>
      </trkpt>
      <trkpt lat="40.4305820" lon="-4.5221410">
        <ele>754.2</ele>
        <time>2019-08-13T15:33:17Z</time>
      </trkpt>
      <trkpt lat="40.4305790" lon="-4.5221890">
        <ele>754.5</ele>
        <time>2019-08-13T15:33:18Z</time>
      </trkpt>
      <trkpt lat="40.4305740" lon="-4.5222410">
        <ele>754.7</ele>
        <time>2019-08-13T15:33:19Z</time>
      </trkpt>
      <trkpt lat="40.4305720" lon="-4.5222960">
        <ele>754.6</ele>
        <time>2019-08-13T15:33:20Z</time>
      </trkpt>
      <trkpt lat="40.4305710" lon="-4.5223520">
        <ele>754.5</ele>
        <time>2019-08-13T15:33:21Z</time>
      </trkpt>
      <trkpt lat="40.4305700" lon="-4.5224100">
        <ele>754.3</ele>
        <time>2019-08-13T15:33:22Z</time>
      </trkpt>
      <trkpt lat="40.4305680" lon="-4.5224650">
        <ele>754.2</ele>
        <time>2019-08-13T15:33:23Z</time>
      </trkpt>
      <trkpt lat="40.4305650" lon="-4.5225160">
        <ele>754.1</ele>
        <time>2019-08-13T15:33:24Z</time>
      </trkpt>
      <trkpt lat="40.4305600" lon="-4.5225640">
        <ele>754.0</ele>
        <time>2019-08-13T15:33:25Z</time>
      </trkpt>
      <trkpt lat="40.4305560" lon="-4.5226100">
        <ele>753.9</ele>
        <time>2019-08-13T15:33:26Z</time>
      </trkpt>
      <trkpt lat="40.4305510" lon="-4.5226520">
        <ele>753.9</ele>
        <time>2019-08-13T15:33:27Z</time>
      </trkpt>
      <trkpt lat="40.4305470" lon="-4.5226960">
        <ele>753.8</ele>
        <time>2019-08-13T15:33:28Z</time>
      </trkpt>
      <trkpt lat="40.4305410" lon="-4.5227410">
        <ele>753.7</ele>
        <time>2019-08-13T15:33:29Z</time>
      </trkpt>
      <trkpt lat="40.4305340" lon="-4.5227840">
        <ele>753.6</ele>
        <time>2019-08-13T15:33:30Z</time>
      </trkpt>
      <trkpt lat="40.4305280" lon="-4.5228290">
        <ele>753.6</ele>
        <time>2019-08-13T15:33:31Z</time>
      </trkpt>
      <trkpt lat="40.4305250" lon="-4.5228750">
        <ele>753.5</ele>
        <time>2019-08-13T15:33:32Z</time>
      </trkpt>
      <trkpt lat="40.4305240" lon="-4.5229250">
        <ele>753.5</ele>
        <time>2019-08-13T15:33:33Z</time>
      </trkpt>
      <trkpt lat="40.4305220" lon="-4.5229740">
        <ele>753.4</ele>
        <time>2019-08-13T15:33:34Z</time>
      </trkpt>
      <trkpt lat="40.4305210" lon="-4.5230260">
        <ele>753.4</ele>
        <time>2019-08-13T15:33:35Z</time>
      </trkpt>
      <trkpt lat="40.4305180" lon="-4.5230770">
        <ele>753.3</ele>
        <time>2019-08-13T15:33:36Z</time>
      </trkpt>
      <trkpt lat="40.4305160" lon="-4.5231310">
        <ele>753.3</ele>
        <time>2019-08-13T15:33:37Z</time>
      </trkpt>
      <trkpt lat="40.4305150" lon="-4.5231850">
        <ele>753.3</ele>
        <time>2019-08-13T15:33:38Z</time>
      </trkpt>
      <trkpt lat="40.4305140" lon="-4.5232380">
        <ele>753.2</ele>
        <time>2019-08-13T15:33:39Z</time>
      </trkpt>
      <trkpt lat="40.4305120" lon="-4.5232920">
        <ele>753.2</ele>
        <time>2019-08-13T15:33:40Z</time>
      </trkpt>
      <trkpt lat="40.4305100" lon="-4.5233450">
        <ele>753.2</ele>
        <time>2019-08-13T15:33:41Z</time>
      </trkpt>
      <trkpt lat="40.4305080" lon="-4.5233990">
        <ele>753.1</ele>
        <time>2019-08-13T15:33:42Z</time>
      </trkpt>
      <trkpt lat="40.4305070" lon="-4.5234540">
        <ele>753.1</ele>
        <time>2019-08-13T15:33:43Z</time>
      </trkpt>
      <trkpt lat="40.4305050" lon="-4.5235080">
        <ele>753.1</ele>
        <time>2019-08-13T15:33:44Z</time>
      </trkpt>
      <trkpt lat="40.4305010" lon="-4.5235620">
        <ele>753.1</ele>
        <time>2019-08-13T15:33:45Z</time>
      </trkpt>
      <trkpt lat="40.4304940" lon="-4.5236150">
        <ele>753.1</ele>
        <time>2019-08-13T15:33:46Z</time>
      </trkpt>
      <trkpt lat="40.4304860" lon="-4.5236670">
        <ele>753.0</ele>
        <time>2019-08-13T15:33:47Z</time>
      </trkpt>
      <trkpt lat="40.4304790" lon="-4.5237190">
        <ele>753.0</ele>
        <time>2019-08-13T15:33:48Z</time>
      </trkpt>
      <trkpt lat="40.4304710" lon="-4.5237700">
        <ele>753.0</ele>
        <time>2019-08-13T15:33:49Z</time>
      </trkpt>
      <trkpt lat="40.4304620" lon="-4.5238230">
        <ele>753.3</ele>
        <time>2019-08-13T15:33:50Z</time>
      </trkpt>
      <trkpt lat="40.4304530" lon="-4.5238750">
        <ele>753.6</ele>
        <time>2019-08-13T15:33:51Z</time>
      </trkpt>
      <trkpt lat="40.4304440" lon="-4.5239290">
        <ele>754.0</ele>
        <time>2019-08-13T15:33:52Z</time>
      </trkpt>
      <trkpt lat="40.4304340" lon="-4.5239810">
        <ele>754.6</ele>
        <time>2019-08-13T15:33:53Z</time>
      </trkpt>
      <trkpt lat="40.4304220" lon="-4.5240330">
        <ele>754.7</ele>
        <time>2019-08-13T15:33:54Z</time>
      </trkpt>
      <trkpt lat="40.4304100" lon="-4.5240830">
        <ele>754.8</ele>
        <time>2019-08-13T15:33:55Z</time>
      </trkpt>
      <trkpt lat="40.4303970" lon="-4.5241350">
        <ele>754.9</ele>
        <time>2019-08-13T15:33:56Z</time>
      </trkpt>
      <trkpt lat="40.4303820" lon="-4.5241880">
        <ele>755.1</ele>
        <time>2019-08-13T15:33:57Z</time>
      </trkpt>
      <trkpt lat="40.4303680" lon="-4.5242410">
        <ele>755.2</ele>
        <time>2019-08-13T15:33:58Z</time>
      </trkpt>
      <trkpt lat="40.4303530" lon="-4.5242920">
        <ele>755.3</ele>
        <time>2019-08-13T15:33:59Z</time>
      </trkpt>
      <trkpt lat="40.4303380" lon="-4.5243410">
        <ele>755.4</ele>
        <time>2019-08-13T15:34:00Z</time>
      </trkpt>
      <trkpt lat="40.4303210" lon="-4.5243900">
        <ele>755.6</ele>
        <time>2019-08-13T15:34:01Z</time>
      </trkpt>
      <trkpt lat="40.4303040" lon="-4.5244370">
        <ele>755.7</ele>
        <time>2019-08-13T15:34:02Z</time>
      </trkpt>
      <trkpt lat="40.4302880" lon="-4.5244860">
        <ele>755.8</ele>
        <time>2019-08-13T15:34:03Z</time>
      </trkpt>
      <trkpt lat="40.4302710" lon="-4.5245330">
        <ele>755.9</ele>
        <time>2019-08-13T15:34:04Z</time>
      </trkpt>
      <trkpt lat="40.4302520" lon="-4.5245800">
        <ele>756.0</ele>
        <time>2019-08-13T15:34:05Z</time>
      </trkpt>
      <trkpt lat="40.4302320" lon="-4.5246260">
        <ele>756.1</ele>
        <time>2019-08-13T15:34:06Z</time>
      </trkpt>
      <trkpt lat="40.4302120" lon="-4.5246730">
        <ele>756.3</ele>
        <time>2019-08-13T15:34:07Z</time>
      </trkpt>
      <trkpt lat="40.4301930" lon="-4.5247190">
        <ele>756.4</ele>
        <time>2019-08-13T15:34:08Z</time>
      </trkpt>
      <trkpt lat="40.4301750" lon="-4.5247650">
        <ele>756.5</ele>
        <time>2019-08-13T15:34:09Z</time>
      </trkpt>
      <trkpt lat="40.4301560" lon="-4.5248110">
        <ele>756.6</ele>
        <time>2019-08-13T15:34:10Z</time>
      </trkpt>
      <trkpt lat="40.4301360" lon="-4.5248560">
        <ele>756.7</ele>
        <time>2019-08-13T15:34:11Z</time>
      </trkpt>
      <trkpt lat="40.4301160" lon="-4.5249000">
        <ele>756.9</ele>
        <time>2019-08-13T15:34:12Z</time>
      </trkpt>
      <trkpt lat="40.4300950" lon="-4.5249440">
        <ele>757.0</ele>
        <time>2019-08-13T15:34:13Z</time>
      </trkpt>
      <trkpt lat="40.4300760" lon="-4.5249860">
        <ele>757.1</ele>
        <time>2019-08-13T15:34:14Z</time>
      </trkpt>
      <trkpt lat="40.4300570" lon="-4.5250290">
        <ele>757.2</ele>
        <time>2019-08-13T15:34:15Z</time>
      </trkpt>
      <trkpt lat="40.4300390" lon="-4.5250720">
        <ele>757.3</ele>
        <time>2019-08-13T15:34:16Z</time>
      </trkpt>
      <trkpt lat="40.4300200" lon="-4.5251140">
        <ele>757.4</ele>
        <time>2019-08-13T15:34:17Z</time>
      </trkpt>
      <trkpt lat="40.4300010" lon="-4.5251580">
        <ele>757.5</ele>
        <time>2019-08-13T15:34:18Z</time>
      </trkpt>
      <trkpt lat="40.4299810" lon="-4.5252020">
        <ele>757.7</ele>
        <time>2019-08-13T15:34:19Z</time>
      </trkpt>
      <trkpt lat="40.4299600" lon="-4.5252450">
        <ele>757.8</ele>
        <time>2019-08-13T15:34:20Z</time>
      </trkpt>
      <trkpt lat="40.4299400" lon="-4.5252890">
        <ele>757.9</ele>
        <time>2019-08-13T15:34:21Z</time>
      </trkpt>
      <trkpt lat="40.4299190" lon="-4.5253320">
        <ele>758.0</ele>
        <time>2019-08-13T15:34:22Z</time>
      </trkpt>
      <trkpt lat="40.4298990" lon="-4.5253750">
        <ele>758.1</ele>
        <time>2019-08-13T15:34:23Z</time>
      </trkpt>
      <trkpt lat="40.4298800" lon="-4.5254180">
        <ele>758.2</ele>
        <time>2019-08-13T15:34:24Z</time>
      </trkpt>
      <trkpt lat="40.4298600" lon="-4.5254600">
        <ele>758.3</ele>
        <time>2019-08-13T15:34:25Z</time>
      </trkpt>
      <trkpt lat="40.4298420" lon="-4.5255010">
        <ele>758.4</ele>
        <time>2019-08-13T15:34:26Z</time>
      </trkpt>
      <trkpt lat="40.4298240" lon="-4.5255410">
        <ele>758.5</ele>
        <time>2019-08-13T15:34:27Z</time>
      </trkpt>
      <trkpt lat="40.4298060" lon="-4.5255810">
        <ele>758.5</ele>
        <time>2019-08-13T15:34:28Z</time>
      </trkpt>
      <trkpt lat="40.4297900" lon="-4.5256190">
        <ele>758.6</ele>
        <time>2019-08-13T15:34:29Z</time>
      </trkpt>
      <trkpt lat="40.4297740" lon="-4.5256560">
        <ele>758.7</ele>
        <time>2019-08-13T15:34:30Z</time>
      </trkpt>
      <trkpt lat="40.4297580" lon="-4.5256910">
        <ele>758.8</ele>
        <time>2019-08-13T15:34:31Z</time>
      </trkpt>
      <trkpt lat="40.4297420" lon="-4.5257260">
        <ele>758.8</ele>
        <time>2019-08-13T15:34:32Z</time>
      </trkpt>
      <trkpt lat="40.4297250" lon="-4.5257600">
        <ele>758.9</ele>
        <time>2019-08-13T15:34:33Z</time>
      </trkpt>
      <trkpt lat="40.4297090" lon="-4.5257950">
        <ele>759.0</ele>
        <time>2019-08-13T15:34:34Z</time>
      </trkpt>
      <trkpt lat="40.4296940" lon="-4.5258300">
        <ele>759.0</ele>
        <time>2019-08-13T15:34:35Z</time>
      </trkpt>
      <trkpt lat="40.4296780" lon="-4.5258640">
        <ele>759.1</ele>
        <time>2019-08-13T15:34:36Z</time>
      </trkpt>
      <trkpt lat="40.4296620" lon="-4.5258990">
        <ele>759.1</ele>
        <time>2019-08-13T15:34:37Z</time>
      </trkpt>
      <trkpt lat="40.4296470" lon="-4.5259330">
        <ele>759.2</ele>
        <time>2019-08-13T15:34:38Z</time>
      </trkpt>
      <trkpt lat="40.4296310" lon="-4.5259670">
        <ele>759.3</ele>
        <time>2019-08-13T15:34:39Z</time>
      </trkpt>
      <trkpt lat="40.4296150" lon="-4.5260000">
        <ele>759.3</ele>
        <time>2019-08-13T15:34:40Z</time>
      </trkpt>
      <trkpt lat="40.4295990" lon="-4.5260330">
        <ele>759.4</ele>
        <time>2019-08-13T15:34:41Z</time>
      </trkpt>
      <trkpt lat="40.4295840" lon="-4.5260670">
        <ele>759.5</ele>
        <time>2019-08-13T15:34:42Z</time>
      </trkpt>
      <trkpt lat="40.4295690" lon="-4.5261010">
        <ele>759.6</ele>
        <time>2019-08-13T15:34:43Z</time>
      </trkpt>
      <trkpt lat="40.4295530" lon="-4.5261350">
        <ele>759.6</ele>
        <time>2019-08-13T15:34:44Z</time>
      </trkpt>
      <trkpt lat="40.4295370" lon="-4.5261690">
        <ele>759.7</ele>
        <time>2019-08-13T15:34:45Z</time>
      </trkpt>
      <trkpt lat="40.4295220" lon="-4.5262030">
        <ele>759.8</ele>
        <time>2019-08-13T15:34:46Z</time>
      </trkpt>
      <trkpt lat="40.4295080" lon="-4.5262370">
        <ele>759.9</ele>
        <time>2019-08-13T15:34:47Z</time>
      </trkpt>
      <trkpt lat="40.4294930" lon="-4.5262710">
        <ele>760.0</ele>
        <time>2019-08-13T15:34:48Z</time>
      </trkpt>
      <trkpt lat="40.4294800" lon="-4.5263050">
        <ele>760.1</ele>
        <time>2019-08-13T15:34:49Z</time>
      </trkpt>
      <trkpt lat="40.4294640" lon="-4.5263380">
        <ele>760.2</ele>
        <time>2019-08-13T15:34:50Z</time>
      </trkpt>
      <trkpt lat="40.4294480" lon="-4.5263720">
        <ele>760.3</ele>
        <time>2019-08-13T15:34:51Z</time>
      </trkpt>
      <trkpt lat="40.4294320" lon="-4.5264070">
        <ele>760.4</ele>
        <time>2019-08-13T15:34:52Z</time>
      </trkpt>
      <trkpt lat="40.4294160" lon="-4.5264430">
        <ele>760.5</ele>
        <time>2019-08-13T15:34:53Z</time>
      </trkpt>
      <trkpt lat="40.4294000" lon="-4.5264790">
        <ele>760.6</ele>
        <time>2019-08-13T15:34:54Z</time>
      </trkpt>
      <trkpt lat="40.4293850" lon="-4.5265150">
        <ele>760.7</ele>
        <time>2019-08-13T15:34:55Z</time>
      </trkpt>
      <trkpt lat="40.4293680" lon="-4.5265510">
        <ele>760.8</ele>
        <time>2019-08-13T15:34:56Z</time>
      </trkpt>
      <trkpt lat="40.4293510" lon="-4.5265890">
        <ele>761.0</ele>
        <time>2019-08-13T15:34:57Z</time>
      </trkpt>
      <trkpt lat="40.4293350" lon="-4.5266270">
        <ele>761.1</ele>
        <time>2019-08-13T15:34:58Z</time>
      </trkpt>
      <trkpt lat="40.4293190" lon="-4.5266650">
        <ele>761.2</ele>
        <time>2019-08-13T15:34:59Z</time>
      </trkpt>
      <trkpt lat="40.4293020" lon="-4.5267020">
        <ele>761.3</ele>
        <time>2019-08-13T15:35:00Z</time>
      </trkpt>
      <trkpt lat="40.4292840" lon="-4.5267390">
        <ele>761.4</ele>
        <time>2019-08-13T15:35:01Z</time>
      </trkpt>
      <trkpt lat="40.4292660" lon="-4.5267770">
        <ele>761.5</ele>
        <time>2019-08-13T15:35:02Z</time>
      </trkpt>
      <trkpt lat="40.4292490" lon="-4.5268140">
        <ele>761.6</ele>
        <time>2019-08-13T15:35:03Z</time>
      </trkpt>
      <trkpt lat="40.4292320" lon="-4.5268520">
        <ele>761.7</ele>
        <time>2019-08-13T15:35:04Z</time>
      </trkpt>
      <trkpt lat="40.4292140" lon="-4.5268890">
        <ele>761.7</ele>
        <time>2019-08-13T15:35:05Z</time>
      </trkpt>
      <trkpt lat="40.4291960" lon="-4.5269260">
        <ele>761.8</ele>
        <time>2019-08-13T15:35:06Z</time>
      </trkpt>
      <trkpt lat="40.4291780" lon="-4.5269620">
        <ele>761.9</ele>
        <time>2019-08-13T15:35:07Z</time>
      </trkpt>
      <trkpt lat="40.4291600" lon="-4.5269980">
        <ele>761.9</ele>
        <time>2019-08-13T15:35:08Z</time>
      </trkpt>
      <trkpt lat="40.4291420" lon="-4.5270350">
        <ele>762.0</ele>
        <time>2019-08-13T15:35:09Z</time>
      </trkpt>
      <trkpt lat="40.4291250" lon="-4.5270730">
        <ele>762.0</ele>
        <time>2019-08-13T15:35:10Z</time>
      </trkpt>
      <trkpt lat="40.4291070" lon="-4.5271100">
        <ele>762.1</ele>
        <time>2019-08-13T15:35:11Z</time>
      </trkpt>
      <trkpt lat="40.4290890" lon="-4.5271470">
        <ele>762.1</ele>
        <time>2019-08-13T15:35:12Z</time>
      </trkpt>
      <trkpt lat="40.4290710" lon="-4.5271840">
        <ele>762.1</ele>
        <time>2019-08-13T15:35:13Z</time>
      </trkpt>
      <trkpt lat="40.4290530" lon="-4.5272200">
        <ele>762.2</ele>
        <time>2019-08-13T15:35:14Z</time>
      </trkpt>
      <trkpt lat="40.4290340" lon="-4.5272570">
        <ele>762.2</ele>
        <time>2019-08-13T15:35:15Z</time>
      </trkpt>
      <trkpt lat="40.4290160" lon="-4.5272930">
        <ele>762.2</ele>
        <time>2019-08-13T15:35:16Z</time>
      </trkpt>
      <trkpt lat="40.4289980" lon="-4.5273300">
        <ele>762.2</ele>
        <time>2019-08-13T15:35:17Z</time>
      </trkpt>
      <trkpt lat="40.4289790" lon="-4.5273680">
        <ele>762.3</ele>
        <time>2019-08-13T15:35:18Z</time>
      </trkpt>
      <trkpt lat="40.4289590" lon="-4.5274050">
        <ele>762.3</ele>
        <time>2019-08-13T15:35:19Z</time>
      </trkpt>
      <trkpt lat="40.4289400" lon="-4.5274430">
        <ele>762.3</ele>
        <time>2019-08-13T15:35:20Z</time>
      </trkpt>
      <trkpt lat="40.4289210" lon="-4.5274820">
        <ele>762.3</ele>
        <time>2019-08-13T15:35:21Z</time>
      </trkpt>
      <trkpt lat="40.4289020" lon="-4.5275200">
        <ele>762.4</ele>
        <time>2019-08-13T15:35:22Z</time>
      </trkpt>
      <trkpt lat="40.4288830" lon="-4.5275600">
        <ele>762.4</ele>
        <time>2019-08-13T15:35:23Z</time>
      </trkpt>
      <trkpt lat="40.4288640" lon="-4.5275990">
        <ele>762.4</ele>
        <time>2019-08-13T15:35:24Z</time>
      </trkpt>
      <trkpt lat="40.4288440" lon="-4.5276380">
        <ele>762.4</ele>
        <time>2019-08-13T15:35:25Z</time>
      </trkpt>
      <trkpt lat="40.4288240" lon="-4.5276750">
        <ele>762.5</ele>
        <time>2019-08-13T15:35:26Z</time>
      </trkpt>
      <trkpt lat="40.4288050" lon="-4.5277120">
        <ele>762.5</ele>
        <time>2019-08-13T15:35:27Z</time>
      </trkpt>
      <trkpt lat="40.4287860" lon="-4.5277490">
        <ele>762.5</ele>
        <time>2019-08-13T15:35:28Z</time>
      </trkpt>
      <trkpt lat="40.4287670" lon="-4.5277860">
        <ele>762.6</ele>
        <time>2019-08-13T15:35:29Z</time>
      </trkpt>
      <trkpt lat="40.4287480" lon="-4.5278230">
        <ele>762.6</ele>
        <time>2019-08-13T15:35:30Z</time>
      </trkpt>
      <trkpt lat="40.4287290" lon="-4.5278610">
        <ele>762.6</ele>
        <time>2019-08-13T15:35:31Z</time>
      </trkpt>
      <trkpt lat="40.4287110" lon="-4.5278990">
        <ele>762.7</ele>
        <time>2019-08-13T15:35:32Z</time>
      </trkpt>
      <trkpt lat="40.4286920" lon="-4.5279350">
        <ele>762.7</ele>
        <time>2019-08-13T15:35:33Z</time>
      </trkpt>
      <trkpt lat="40.4286730" lon="-4.5279720">
        <ele>762.7</ele>
        <time>2019-08-13T15:35:34Z</time>
      </trkpt>
      <trkpt lat="40.4286530" lon="-4.5280080">
        <ele>762.8</ele>
        <time>2019-08-13T15:35:35Z</time>
      </trkpt>
      <trkpt lat="40.4286340" lon="-4.5280450">
        <ele>762.8</ele>
        <time>2019-08-13T15:35:36Z</time>
      </trkpt>
      <trkpt lat="40.4286140" lon="-4.5280820">
        <ele>762.8</ele>
        <time>2019-08-13T15:35:37Z</time>
      </trkpt>
      <trkpt lat="40.4285950" lon="-4.5281190">
        <ele>762.9</ele>
        <time>2019-08-13T15:35:38Z</time>
      </trkpt>
      <trkpt lat="40.4285750" lon="-4.5281550">
        <ele>762.9</ele>
        <time>2019-08-13T15:35:39Z</time>
      </trkpt>
      <trkpt lat="40.4285550" lon="-4.5281920">
        <ele>762.9</ele>
        <time>2019-08-13T15:35:40Z</time>
      </trkpt>
      <trkpt lat="40.4285350" lon="-4.5282290">
        <ele>762.9</ele>
        <time>2019-08-13T15:35:41Z</time>
      </trkpt>
      <trkpt lat="40.4285160" lon="-4.5282680">
        <ele>762.9</ele>
        <time>2019-08-13T15:35:42Z</time>
      </trkpt>
      <trkpt lat="40.4284960" lon="-4.5283050">
        <ele>762.9</ele>
        <time>2019-08-13T15:35:43Z</time>
      </trkpt>
      <trkpt lat="40.4284750" lon="-4.5283410">
        <ele>763.0</ele>
        <time>2019-08-13T15:35:44Z</time>
      </trkpt>
      <trkpt lat="40.4284530" lon="-4.5283770">
        <ele>763.0</ele>
        <time>2019-08-13T15:35:45Z</time>
      </trkpt>
      <trkpt lat="40.4284330" lon="-4.5284140">
        <ele>763.0</ele>
        <time>2019-08-13T15:35:46Z</time>
      </trkpt>
      <trkpt lat="40.4284140" lon="-4.5284530">
        <ele>763.0</ele>
        <time>2019-08-13T15:35:47Z</time>
      </trkpt>
      <trkpt lat="40.4283940" lon="-4.5284910">
        <ele>763.0</ele>
        <time>2019-08-13T15:35:48Z</time>
      </trkpt>
      <trkpt lat="40.4283740" lon="-4.5285300">
        <ele>762.9</ele>
        <time>2019-08-13T15:35:49Z</time>
      </trkpt>
      <trkpt lat="40.4283530" lon="-4.5285680">
        <ele>762.9</ele>
        <time>2019-08-13T15:35:50Z</time>
      </trkpt>
      <trkpt lat="40.4283320" lon="-4.5286060">
        <ele>762.9</ele>
        <time>2019-08-13T15:35:51Z</time>
      </trkpt>
      <trkpt lat="40.4283110" lon="-4.5286450">
        <ele>762.9</ele>
        <time>2019-08-13T15:35:52Z</time>
      </trkpt>
      <trkpt lat="40.4282900" lon="-4.5286840">
        <ele>762.9</ele>
        <time>2019-08-13T15:35:53Z</time>
      </trkpt>
      <trkpt lat="40.4282690" lon="-4.5287230">
        <ele>762.9</ele>
        <time>2019-08-13T15:35:54Z</time>
      </trkpt>
      <trkpt lat="40.4282480" lon="-4.5287620">
        <ele>762.8</ele>
        <time>2019-08-13T15:35:55Z</time>
      </trkpt>
      <trkpt lat="40.4282270" lon="-4.5288020">
        <ele>762.8</ele>
        <time>2019-08-13T15:35:56Z</time>
      </trkpt>
      <trkpt lat="40.4282070" lon="-4.5288410">
        <ele>762.8</ele>
        <time>2019-08-13T15:35:57Z</time>
      </trkpt>
      <trkpt lat="40.4281860" lon="-4.5288800">
        <ele>762.8</ele>
        <time>2019-08-13T15:35:58Z</time>
      </trkpt>
      <trkpt lat="40.4281660" lon="-4.5289190">
        <ele>762.7</ele>
        <time>2019-08-13T15:35:59Z</time>
      </trkpt>
      <trkpt lat="40.4281470" lon="-4.5289600">
        <ele>762.7</ele>
        <time>2019-08-13T15:36:00Z</time>
      </trkpt>
      <trkpt lat="40.4281280" lon="-4.5290020">
        <ele>762.6</ele>
        <time>2019-08-13T15:36:01Z</time>
      </trkpt>
      <trkpt lat="40.4281090" lon="-4.5290440">
        <ele>762.6</ele>
        <time>2019-08-13T15:36:02Z</time>
      </trkpt>
      <trkpt lat="40.4280890" lon="-4.5290870">
        <ele>762.6</ele>
        <time>2019-08-13T15:36:03Z</time>
      </trkpt>
      <trkpt lat="40.4280700" lon="-4.5291280">
        <ele>762.5</ele>
        <time>2019-08-13T15:36:04Z</time>
      </trkpt>
      <trkpt lat="40.4280510" lon="-4.5291710">
        <ele>762.5</ele>
        <time>2019-08-13T15:36:05Z</time>
      </trkpt>
      <trkpt lat="40.4280350" lon="-4.5292140">
        <ele>762.5</ele>
        <time>2019-08-13T15:36:06Z</time>
      </trkpt>
      <trkpt lat="40.4280190" lon="-4.5292570">
        <ele>762.4</ele>
        <time>2019-08-13T15:36:07Z</time>
      </trkpt>
      <trkpt lat="40.4280040" lon="-4.5292980">
        <ele>762.4</ele>
        <time>2019-08-13T15:36:08Z</time>
      </trkpt>
      <trkpt lat="40.4279880" lon="-4.5293400">
        <ele>762.4</ele>
        <time>2019-08-13T15:36:09Z</time>
      </trkpt>
      <trkpt lat="40.4279740" lon="-4.5293830">
        <ele>762.3</ele>
        <time>2019-08-13T15:36:10Z</time>
      </trkpt>
      <trkpt lat="40.4279590" lon="-4.5294280">
        <ele>762.3</ele>
        <time>2019-08-13T15:36:11Z</time>
      </trkpt>
      <trkpt lat="40.4279440" lon="-4.5294730">
        <ele>762.2</ele>
        <time>2019-08-13T15:36:12Z</time>
      </trkpt>
      <trkpt lat="40.4279290" lon="-4.5295200">
        <ele>762.2</ele>
        <time>2019-08-13T15:36:13Z</time>
      </trkpt>
      <trkpt lat="40.4279150" lon="-4.5295690">
        <ele>762.1</ele>
        <time>2019-08-13T15:36:14Z</time>
      </trkpt>
      <trkpt lat="40.4279010" lon="-4.5296180">
        <ele>762.1</ele>
        <time>2019-08-13T15:36:15Z</time>
      </trkpt>
      <trkpt lat="40.4278870" lon="-4.5296690">
        <ele>762.0</ele>
        <time>2019-08-13T15:36:16Z</time>
      </trkpt>
      <trkpt lat="40.4278760" lon="-4.5297180">
        <ele>762.0</ele>
        <time>2019-08-13T15:36:17Z</time>
      </trkpt>
      <trkpt lat="40.4278670" lon="-4.5297650">
        <ele>761.9</ele>
        <time>2019-08-13T15:36:18Z</time>
      </trkpt>
      <trkpt lat="40.4278570" lon="-4.5298100">
        <ele>761.9</ele>
        <time>2019-08-13T15:36:19Z</time>
      </trkpt>
      <trkpt lat="40.4278470" lon="-4.5298570">
        <ele>761.8</ele>
        <time>2019-08-13T15:36:20Z</time>
      </trkpt>
      <trkpt lat="40.4278390" lon="-4.5299040">
        <ele>761.8</ele>
        <time>2019-08-13T15:36:21Z</time>
      </trkpt>
      <trkpt lat="40.4278320" lon="-4.5299500">
        <ele>761.7</ele>
        <time>2019-08-13T15:36:22Z</time>
      </trkpt>
      <trkpt lat="40.4278240" lon="-4.5299950">
        <ele>761.7</ele>
        <time>2019-08-13T15:36:23Z</time>
      </trkpt>
      <trkpt lat="40.4278170" lon="-4.5300400">
        <ele>761.6</ele>
        <time>2019-08-13T15:36:24Z</time>
      </trkpt>
      <trkpt lat="40.4278110" lon="-4.5300890">
        <ele>761.6</ele>
        <time>2019-08-13T15:36:25Z</time>
      </trkpt>
      <trkpt lat="40.4278050" lon="-4.5301410">
        <ele>761.5</ele>
        <time>2019-08-13T15:36:26Z</time>
      </trkpt>
      <trkpt lat="40.4277990" lon="-4.5301960">
        <ele>761.4</ele>
        <time>2019-08-13T15:36:27Z</time>
      </trkpt>
      <trkpt lat="40.4277910" lon="-4.5302520">
        <ele>761.3</ele>
        <time>2019-08-13T15:36:28Z</time>
      </trkpt>
      <trkpt lat="40.4277830" lon="-4.5303100">
        <ele>761.2</ele>
        <time>2019-08-13T15:36:29Z</time>
      </trkpt>
      <trkpt lat="40.4277750" lon="-4.5303710">
        <ele>761.0</ele>
        <time>2019-08-13T15:36:30Z</time>
      </trkpt>
      <trkpt lat="40.4277660" lon="-4.5304300">
        <ele>760.8</ele>
        <time>2019-08-13T15:36:31Z</time>
      </trkpt>
      <trkpt lat="40.4277570" lon="-4.5304890">
        <ele>760.7</ele>
        <time>2019-08-13T15:36:32Z</time>
      </trkpt>
      <trkpt lat="40.4277490" lon="-4.5305480">
        <ele>760.5</ele>
        <time>2019-08-13T15:36:33Z</time>
      </trkpt>
      <trkpt lat="40.4277410" lon="-4.5306040">
        <ele>760.3</ele>
        <time>2019-08-13T15:36:34Z</time>
      </trkpt>
      <trkpt lat="40.4277340" lon="-4.5306580">
        <ele>760.0</ele>
        <time>2019-08-13T15:36:35Z</time>
      </trkpt>
      <trkpt lat="40.4277270" lon="-4.5307120">
        <ele>759.8</ele>
        <time>2019-08-13T15:36:36Z</time>
      </trkpt>
      <trkpt lat="40.4277190" lon="-4.5307650">
        <ele>759.6</ele>
        <time>2019-08-13T15:36:37Z</time>
      </trkpt>
      <trkpt lat="40.4277120" lon="-4.5308180">
        <ele>759.4</ele>
        <time>2019-08-13T15:36:38Z</time>
      </trkpt>
      <trkpt lat="40.4277060" lon="-4.5308730">
        <ele>759.3</ele>
        <time>2019-08-13T15:36:39Z</time>
      </trkpt>
      <trkpt lat="40.4276980" lon="-4.5309310">
        <ele>759.1</ele>
        <time>2019-08-13T15:36:40Z</time>
      </trkpt>
      <trkpt lat="40.4276880" lon="-4.5309920">
        <ele>759.0</ele>
        <time>2019-08-13T15:36:41Z</time>
      </trkpt>
      <trkpt lat="40.4276770" lon="-4.5310540">
        <ele>758.9</ele>
        <time>2019-08-13T15:36:42Z</time>
      </trkpt>
      <trkpt lat="40.4276650" lon="-4.5311180">
        <ele>758.7</ele>
        <time>2019-08-13T15:36:43Z</time>
      </trkpt>
      <trkpt lat="40.4276540" lon="-4.5311830">
        <ele>758.6</ele>
        <time>2019-08-13T15:36:44Z</time>
      </trkpt>
      <trkpt lat="40.4276430" lon="-4.5312470">
        <ele>758.5</ele>
        <time>2019-08-13T15:36:45Z</time>
      </trkpt>
      <trkpt lat="40.4276320" lon="-4.5313120">
        <ele>758.3</ele>
        <time>2019-08-13T15:36:46Z</time>
      </trkpt>
      <trkpt lat="40.4276200" lon="-4.5313760">
        <ele>758.1</ele>
        <time>2019-08-13T15:36:47Z</time>
      </trkpt>
      <trkpt lat="40.4276080" lon="-4.5314400">
        <ele>757.8</ele>
        <time>2019-08-13T15:36:48Z</time>
      </trkpt>
      <trkpt lat="40.4275950" lon="-4.5315030">
        <ele>757.5</ele>
        <time>2019-08-13T15:36:49Z</time>
      </trkpt>
      <trkpt lat="40.4275800" lon="-4.5315680">
        <ele>757.2</ele>
        <time>2019-08-13T15:36:50Z</time>
      </trkpt>
      <trkpt lat="40.4275650" lon="-4.5316340">
        <ele>756.8</ele>
        <time>2019-08-13T15:36:51Z</time>
      </trkpt>
      <trkpt lat="40.4275500" lon="-4.5316990">
        <ele>756.6</ele>
        <time>2019-08-13T15:36:52Z</time>
      </trkpt>
      <trkpt lat="40.4275350" lon="-4.5317640">
        <ele>756.3</ele>
        <time>2019-08-13T15:36:53Z</time>
      </trkpt>
      <trkpt lat="40.4275180" lon="-4.5318310">
        <ele>756.0</ele>
        <time>2019-08-13T15:36:54Z</time>
      </trkpt>
      <trkpt lat="40.4275010" lon="-4.5319000">
        <ele>755.8</ele>
        <time>2019-08-13T15:36:55Z</time>
      </trkpt>
      <trkpt lat="40.4274810" lon="-4.5319690">
        <ele>755.5</ele>
        <time>2019-08-13T15:36:56Z</time>
      </trkpt>
      <trkpt lat="40.4274640" lon="-4.5320390">
        <ele>755.2</ele>
        <time>2019-08-13T15:36:57Z</time>
      </trkpt>
      <trkpt lat="40.4274450" lon="-4.5321110">
        <ele>754.9</ele>
        <time>2019-08-13T15:36:58Z</time>
      </trkpt>
      <trkpt lat="40.4274260" lon="-4.5321860">
        <ele>754.5</ele>
        <time>2019-08-13T15:36:59Z</time>
      </trkpt>
      <trkpt lat="40.4274050" lon="-4.5322630">
        <ele>754.2</ele>
        <time>2019-08-13T15:37:00Z</time>
      </trkpt>
      <trkpt lat="40.4273850" lon="-4.5323430">
        <ele>753.8</ele>
        <time>2019-08-13T15:37:01Z</time>
      </trkpt>
      <trkpt lat="40.4273650" lon="-4.5324250">
        <ele>753.4</ele>
        <time>2019-08-13T15:37:02Z</time>
      </trkpt>
      <trkpt lat="40.4273450" lon="-4.5325110">
        <ele>753.1</ele>
        <time>2019-08-13T15:37:03Z</time>
      </trkpt>
      <trkpt lat="40.4273250" lon="-4.5325990">
        <ele>752.7</ele>
        <time>2019-08-13T15:37:04Z</time>
      </trkpt>
      <trkpt lat="40.4273050" lon="-4.5326880">
        <ele>752.3</ele>
        <time>2019-08-13T15:37:05Z</time>
      </trkpt>
      <trkpt lat="40.4272870" lon="-4.5327790">
        <ele>751.9</ele>
        <time>2019-08-13T15:37:06Z</time>
      </trkpt>
      <trkpt lat="40.4272710" lon="-4.5328690">
        <ele>751.4</ele>
        <time>2019-08-13T15:37:07Z</time>
      </trkpt>
      <trkpt lat="40.4272580" lon="-4.5329630">
        <ele>750.9</ele>
        <time>2019-08-13T15:37:08Z</time>
      </trkpt>
      <trkpt lat="40.4272440" lon="-4.5330580">
        <ele>750.4</ele>
        <time>2019-08-13T15:37:09Z</time>
      </trkpt>
      <trkpt lat="40.4272350" lon="-4.5331540">
        <ele>749.9</ele>
        <time>2019-08-13T15:37:10Z</time>
      </trkpt>
      <trkpt lat="40.4272280" lon="-4.5332520">
        <ele>749.3</ele>
        <time>2019-08-13T15:37:11Z</time>
      </trkpt>
      <trkpt lat="40.4272240" lon="-4.5333520">
        <ele>748.8</ele>
        <time>2019-08-13T15:37:12Z</time>
      </trkpt>
      <trkpt lat="40.4272230" lon="-4.5334530">
        <ele>748.2</ele>
        <time>2019-08-13T15:37:13Z</time>
      </trkpt>
      <trkpt lat="40.4272220" lon="-4.5335560">
        <ele>747.7</ele>
        <time>2019-08-13T15:37:14Z</time>
      </trkpt>
      <trkpt lat="40.4272230" lon="-4.5336600">
        <ele>747.2</ele>
        <time>2019-08-13T15:37:15Z</time>
      </trkpt>
      <trkpt lat="40.4272290" lon="-4.5337650">
        <ele>746.7</ele>
        <time>2019-08-13T15:37:16Z</time>
      </trkpt>
      <trkpt lat="40.4272390" lon="-4.5338730">
        <ele>746.1</ele>
        <time>2019-08-13T15:37:17Z</time>
      </trkpt>
      <trkpt lat="40.4272500" lon="-4.5339810">
        <ele>745.5</ele>
        <time>2019-08-13T15:37:18Z</time>
      </trkpt>
      <trkpt lat="40.4272660" lon="-4.5340900">
        <ele>744.8</ele>
        <time>2019-08-13T15:37:19Z</time>
      </trkpt>
      <trkpt lat="40.4272870" lon="-4.5342000">
        <ele>744.1</ele>
        <time>2019-08-13T15:37:20Z</time>
      </trkpt>
      <trkpt lat="40.4273110" lon="-4.5343110">
        <ele>743.4</ele>
        <time>2019-08-13T15:37:21Z</time>
      </trkpt>
      <trkpt lat="40.4273380" lon="-4.5344230">
        <ele>742.7</ele>
        <time>2019-08-13T15:37:22Z</time>
      </trkpt>
      <trkpt lat="40.4273670" lon="-4.5345350">
        <ele>742.1</ele>
        <time>2019-08-13T15:37:23Z</time>
      </trkpt>
      <trkpt lat="40.4273980" lon="-4.5346460">
        <ele>741.6</ele>
        <time>2019-08-13T15:37:24Z</time>
      </trkpt>
      <trkpt lat="40.4274330" lon="-4.5347560">
        <ele>741.0</ele>
        <time>2019-08-13T15:37:25Z</time>
      </trkpt>
      <trkpt lat="40.4274670" lon="-4.5348650">
        <ele>740.3</ele>
        <time>2019-08-13T15:37:26Z</time>
      </trkpt>
      <trkpt lat="40.4275050" lon="-4.5349750">
        <ele>739.5</ele>
        <time>2019-08-13T15:37:27Z</time>
      </trkpt>
      <trkpt lat="40.4275440" lon="-4.5350840">
        <ele>738.8</ele>
        <time>2019-08-13T15:37:28Z</time>
      </trkpt>
      <trkpt lat="40.4275820" lon="-4.5351930">
        <ele>738.0</ele>
        <time>2019-08-13T15:37:29Z</time>
      </trkpt>
      <trkpt lat="40.4276200" lon="-4.5353000">
        <ele>737.2</ele>
        <time>2019-08-13T15:37:30Z</time>
      </trkpt>
      <trkpt lat="40.4276580" lon="-4.5354070">
        <ele>736.4</ele>
        <time>2019-08-13T15:37:31Z</time>
      </trkpt>
      <trkpt lat="40.4276940" lon="-4.5355160">
        <ele>735.7</ele>
        <time>2019-08-13T15:37:32Z</time>
      </trkpt>
      <trkpt lat="40.4277320" lon="-4.5356250">
        <ele>735.0</ele>
        <time>2019-08-13T15:37:33Z</time>
      </trkpt>
      <trkpt lat="40.4277660" lon="-4.5357340">
        <ele>734.4</ele>
        <time>2019-08-13T15:37:34Z</time>
      </trkpt>
      <trkpt lat="40.4277990" lon="-4.5358450">
        <ele>733.9</ele>
        <time>2019-08-13T15:37:35Z</time>
      </trkpt>
      <trkpt lat="40.4278340" lon="-4.5359570">
        <ele>733.4</ele>
        <time>2019-08-13T15:37:36Z</time>
      </trkpt>
      <trkpt lat="40.4278640" lon="-4.5360670">
        <ele>733.0</ele>
        <time>2019-08-13T15:37:37Z</time>
      </trkpt>
      <trkpt lat="40.4278920" lon="-4.5361770">
        <ele>732.6</ele>
        <time>2019-08-13T15:37:38Z</time>
      </trkpt>
      <trkpt lat="40.4279180" lon="-4.5362840">
        <ele>732.2</ele>
        <time>2019-08-13T15:37:39Z</time>
      </trkpt>
      <trkpt lat="40.4279440" lon="-4.5363900">
        <ele>731.8</ele>
        <time>2019-08-13T15:37:40Z</time>
      </trkpt>
      <trkpt lat="40.4279630" lon="-4.5364910">
        <ele>731.5</ele>
        <time>2019-08-13T15:37:41Z</time>
      </trkpt>
      <trkpt lat="40.4279790" lon="-4.5365930">
        <ele>731.2</ele>
        <time>2019-08-13T15:37:42Z</time>
      </trkpt>
      <trkpt lat="40.4279920" lon="-4.5366920">
        <ele>731.0</ele>
        <time>2019-08-13T15:37:43Z</time>
      </trkpt>
      <trkpt lat="40.4280080" lon="-4.5367900">
        <ele>730.8</ele>
        <time>2019-08-13T15:37:44Z</time>
      </trkpt>
      <trkpt lat="40.4280250" lon="-4.5368850">
        <ele>730.7</ele>
        <time>2019-08-13T15:37:45Z</time>
      </trkpt>
      <trkpt lat="40.4280420" lon="-4.5369790">
        <ele>730.5</ele>
        <time>2019-08-13T15:37:46Z</time>
      </trkpt>
      <trkpt lat="40.4280570" lon="-4.5370680">
        <ele>730.4</ele>
        <time>2019-08-13T15:37:47Z</time>
      </trkpt>
      <trkpt lat="40.4280720" lon="-4.5371560">
        <ele>730.3</ele>
        <time>2019-08-13T15:37:48Z</time>
      </trkpt>
      <trkpt lat="40.4280850" lon="-4.5372410">
        <ele>730.3</ele>
        <time>2019-08-13T15:37:49Z</time>
      </trkpt>
      <trkpt lat="40.4280990" lon="-4.5373270">
        <ele>730.2</ele>
        <time>2019-08-13T15:37:50Z</time>
      </trkpt>
      <trkpt lat="40.4281110" lon="-4.5374110">
        <ele>730.1</ele>
        <time>2019-08-13T15:37:51Z</time>
      </trkpt>
      <trkpt lat="40.4281210" lon="-4.5374920">
        <ele>730.1</ele>
        <time>2019-08-13T15:37:52Z</time>
      </trkpt>
      <trkpt lat="40.4281300" lon="-4.5375700">
        <ele>729.9</ele>
        <time>2019-08-13T15:37:53Z</time>
      </trkpt>
      <trkpt lat="40.4281400" lon="-4.5376460">
        <ele>730.4</ele>
        <time>2019-08-13T15:37:54Z</time>
      </trkpt>
      <trkpt lat="40.4281490" lon="-4.5377190">
        <ele>730.9</ele>
        <time>2019-08-13T15:37:55Z</time>
      </trkpt>
      <trkpt lat="40.4281580" lon="-4.5377930">
        <ele>731.3</ele>
        <time>2019-08-13T15:37:56Z</time>
      </trkpt>
      <trkpt lat="40.4281670" lon="-4.5378650">
        <ele>731.8</ele>
        <time>2019-08-13T15:37:57Z</time>
      </trkpt>
      <trkpt lat="40.4281750" lon="-4.5379370">
        <ele>732.2</ele>
        <time>2019-08-13T15:37:58Z</time>
      </trkpt>
      <trkpt lat="40.4281840" lon="-4.5380100">
        <ele>732.7</ele>
        <time>2019-08-13T15:37:59Z</time>
      </trkpt>
      <trkpt lat="40.4281950" lon="-4.5380860">
        <ele>733.1</ele>
        <time>2019-08-13T15:38:00Z</time>
      </trkpt>
      <trkpt lat="40.4282050" lon="-4.5381610">
        <ele>733.5</ele>
        <time>2019-08-13T15:38:01Z</time>
      </trkpt>
      <trkpt lat="40.4282130" lon="-4.5382370">
        <ele>734.0</ele>
        <time>2019-08-13T15:38:02Z</time>
      </trkpt>
      <trkpt lat="40.4282220" lon="-4.5383130">
        <ele>734.4</ele>
        <time>2019-08-13T15:38:03Z</time>
      </trkpt>
      <trkpt lat="40.4282300" lon="-4.5383880">
        <ele>734.8</ele>
        <time>2019-08-13T15:38:04Z</time>
      </trkpt>
      <trkpt lat="40.4282400" lon="-4.5384630">
        <ele>735.2</ele>
        <time>2019-08-13T15:38:05Z</time>
      </trkpt>
      <trkpt lat="40.4282490" lon="-4.5385380">
        <ele>735.6</ele>
        <time>2019-08-13T15:38:06Z</time>
      </trkpt>
      <trkpt lat="40.4282570" lon="-4.5386120">
        <ele>736.0</ele>
        <time>2019-08-13T15:38:07Z</time>
      </trkpt>
      <trkpt lat="40.4282640" lon="-4.5386820">
        <ele>736.3</ele>
        <time>2019-08-13T15:38:08Z</time>
      </trkpt>
      <trkpt lat="40.4282720" lon="-4.5387510">
        <ele>736.6</ele>
        <time>2019-08-13T15:38:09Z</time>
      </trkpt>
      <trkpt lat="40.4282810" lon="-4.5388140">
        <ele>736.9</ele>
        <time>2019-08-13T15:38:10Z</time>
      </trkpt>
      <trkpt lat="40.4282900" lon="-4.5388760">
        <ele>737.2</ele>
        <time>2019-08-13T15:38:11Z</time>
      </trkpt>
      <trkpt lat="40.4282980" lon="-4.5389380">
        <ele>737.4</ele>
        <time>2019-08-13T15:38:12Z</time>
      </trkpt>
      <trkpt lat="40.4283080" lon="-4.5390000">
        <ele>737.7</ele>
        <time>2019-08-13T15:38:13Z</time>
      </trkpt>
      <trkpt lat="40.4283160" lon="-4.5390630">
        <ele>738.0</ele>
        <time>2019-08-13T15:38:14Z</time>
      </trkpt>
      <trkpt lat="40.4283240" lon="-4.5391250">
        <ele>738.2</ele>
        <time>2019-08-13T15:38:15Z</time>
      </trkpt>
      <trkpt lat="40.4283320" lon="-4.5391900">
        <ele>738.5</ele>
        <time>2019-08-13T15:38:16Z</time>
      </trkpt>
      <trkpt lat="40.4283410" lon="-4.5392550">
        <ele>738.7</ele>
        <time>2019-08-13T15:38:17Z</time>
      </trkpt>
      <trkpt lat="40.4283510" lon="-4.5393210">
        <ele>738.9</ele>
        <time>2019-08-13T15:38:18Z</time>
      </trkpt>
      <trkpt lat="40.4283580" lon="-4.5393870">
        <ele>739.2</ele>
        <time>2019-08-13T15:38:19Z</time>
      </trkpt>
      <trkpt lat="40.4283670" lon="-4.5394530">
        <ele>739.4</ele>
        <time>2019-08-13T15:38:20Z</time>
      </trkpt>
      <trkpt lat="40.4283740" lon="-4.5395190">
        <ele>739.6</ele>
        <time>2019-08-13T15:38:21Z</time>
      </trkpt>
      <trkpt lat="40.4283840" lon="-4.5395890">
        <ele>739.8</ele>
        <time>2019-08-13T15:38:22Z</time>
      </trkpt>
      <trkpt lat="40.4283910" lon="-4.5396580">
        <ele>740.0</ele>
        <time>2019-08-13T15:38:23Z</time>
      </trkpt>
      <trkpt lat="40.4283990" lon="-4.5397260">
        <ele>740.2</ele>
        <time>2019-08-13T15:38:24Z</time>
      </trkpt>
      <trkpt lat="40.4284070" lon="-4.5397970">
        <ele>740.5</ele>
        <time>2019-08-13T15:38:25Z</time>
      </trkpt>
      <trkpt lat="40.4284160" lon="-4.5398700">
        <ele>740.7</ele>
        <time>2019-08-13T15:38:26Z</time>
      </trkpt>
      <trkpt lat="40.4284250" lon="-4.5399430">
        <ele>740.9</ele>
        <time>2019-08-13T15:38:27Z</time>
      </trkpt>
      <trkpt lat="40.4284360" lon="-4.5400170">
        <ele>741.1</ele>
        <time>2019-08-13T15:38:28Z</time>
      </trkpt>
      <trkpt lat="40.4284460" lon="-4.5400930">
        <ele>741.3</ele>
        <time>2019-08-13T15:38:29Z</time>
      </trkpt>
      <trkpt lat="40.4284550" lon="-4.5401680">
        <ele>741.6</ele>
        <time>2019-08-13T15:38:30Z</time>
      </trkpt>
      <trkpt lat="40.4284630" lon="-4.5402410">
        <ele>741.8</ele>
        <time>2019-08-13T15:38:31Z</time>
      </trkpt>
      <trkpt lat="40.4284710" lon="-4.5403100">
        <ele>742.0</ele>
        <time>2019-08-13T15:38:32Z</time>
      </trkpt>
      <trkpt lat="40.4284790" lon="-4.5403780">
        <ele>742.2</ele>
        <time>2019-08-13T15:38:33Z</time>
      </trkpt>
      <trkpt lat="40.4284860" lon="-4.5404480">
        <ele>742.4</ele>
        <time>2019-08-13T15:38:34Z</time>
      </trkpt>
      <trkpt lat="40.4284930" lon="-4.5405150">
        <ele>742.6</ele>
        <time>2019-08-13T15:38:35Z</time>
      </trkpt>
      <trkpt lat="40.4285000" lon="-4.5405820">
        <ele>742.9</ele>
        <time>2019-08-13T15:38:36Z</time>
      </trkpt>
      <trkpt lat="40.4285100" lon="-4.5406490">
        <ele>743.1</ele>
        <time>2019-08-13T15:38:37Z</time>
      </trkpt>
      <trkpt lat="40.4285190" lon="-4.5407150">
        <ele>743.3</ele>
        <time>2019-08-13T15:38:38Z</time>
      </trkpt>
      <trkpt lat="40.4285270" lon="-4.5407760">
        <ele>743.5</ele>
        <time>2019-08-13T15:38:39Z</time>
      </trkpt>
      <trkpt lat="40.4285360" lon="-4.5408380">
        <ele>743.2</ele>
        <time>2019-08-13T15:38:40Z</time>
      </trkpt>
      <trkpt lat="40.4285450" lon="-4.5408980">
        <ele>743.0</ele>
        <time>2019-08-13T15:38:41Z</time>
      </trkpt>
      <trkpt lat="40.4285550" lon="-4.5409610">
        <ele>742.8</ele>
        <time>2019-08-13T15:38:42Z</time>
      </trkpt>
      <trkpt lat="40.4285650" lon="-4.5410290">
        <ele>742.6</ele>
        <time>2019-08-13T15:38:43Z</time>
      </trkpt>
      <trkpt lat="40.4285750" lon="-4.5410990">
        <ele>742.5</ele>
        <time>2019-08-13T15:38:44Z</time>
      </trkpt>
      <trkpt lat="40.4285860" lon="-4.5411730">
        <ele>742.3</ele>
        <time>2019-08-13T15:38:45Z</time>
      </trkpt>
      <trkpt lat="40.4285990" lon="-4.5412500">
        <ele>742.1</ele>
        <time>2019-08-13T15:38:46Z</time>
      </trkpt>
      <trkpt lat="40.4286120" lon="-4.5413280">
        <ele>741.9</ele>
        <time>2019-08-13T15:38:47Z</time>
      </trkpt>
      <trkpt lat="40.4286280" lon="-4.5414080">
        <ele>741.7</ele>
        <time>2019-08-13T15:38:48Z</time>
      </trkpt>
      <trkpt lat="40.4286440" lon="-4.5414880">
        <ele>741.5</ele>
        <time>2019-08-13T15:38:49Z</time>
      </trkpt>
      <trkpt lat="40.4286630" lon="-4.5415680">
        <ele>741.3</ele>
        <time>2019-08-13T15:38:50Z</time>
      </trkpt>
      <trkpt lat="40.4286870" lon="-4.5416470">
        <ele>741.1</ele>
        <time>2019-08-13T15:38:51Z</time>
      </trkpt>
      <trkpt lat="40.4287150" lon="-4.5417220">
        <ele>740.9</ele>
        <time>2019-08-13T15:38:52Z</time>
      </trkpt>
      <trkpt lat="40.4287460" lon="-4.5417980">
        <ele>740.7</ele>
        <time>2019-08-13T15:38:53Z</time>
      </trkpt>
      <trkpt lat="40.4287730" lon="-4.5418750">
        <ele>740.5</ele>
        <time>2019-08-13T15:38:54Z</time>
      </trkpt>
      <trkpt lat="40.4287990" lon="-4.5419540">
        <ele>740.2</ele>
        <time>2019-08-13T15:38:55Z</time>
      </trkpt>
      <trkpt lat="40.4288240" lon="-4.5420330">
        <ele>740.0</ele>
        <time>2019-08-13T15:38:56Z</time>
      </trkpt>
      <trkpt lat="40.4288510" lon="-4.5421090">
        <ele>739.8</ele>
        <time>2019-08-13T15:38:57Z</time>
      </trkpt>
      <trkpt lat="40.4288770" lon="-4.5421850">
        <ele>739.5</ele>
        <time>2019-08-13T15:38:58Z</time>
      </trkpt>
      <trkpt lat="40.4289040" lon="-4.5422590">
        <ele>739.3</ele>
        <time>2019-08-13T15:38:59Z</time>
      </trkpt>
      <trkpt lat="40.4289320" lon="-4.5423310">
        <ele>739.0</ele>
        <time>2019-08-13T15:39:00Z</time>
      </trkpt>
      <trkpt lat="40.4289610" lon="-4.5424020">
        <ele>738.9</ele>
        <time>2019-08-13T15:39:01Z</time>
      </trkpt>
      <trkpt lat="40.4289900" lon="-4.5424720">
        <ele>738.7</ele>
        <time>2019-08-13T15:39:02Z</time>
      </trkpt>
      <trkpt lat="40.4290200" lon="-4.5425430">
        <ele>738.5</ele>
        <time>2019-08-13T15:39:03Z</time>
      </trkpt>
      <trkpt lat="40.4290490" lon="-4.5426140">
        <ele>738.4</ele>
        <time>2019-08-13T15:39:04Z</time>
      </trkpt>
      <trkpt lat="40.4290790" lon="-4.5426860">
        <ele>738.2</ele>
        <time>2019-08-13T15:39:05Z</time>
      </trkpt>
      <trkpt lat="40.4291100" lon="-4.5427570">
        <ele>738.3</ele>
        <time>2019-08-13T15:39:06Z</time>
      </trkpt>
      <trkpt lat="40.4291410" lon="-4.5428280">
        <ele>738.4</ele>
        <time>2019-08-13T15:39:07Z</time>
      </trkpt>
      <trkpt lat="40.4291720" lon="-4.5428980">
        <ele>738.5</ele>
        <time>2019-08-13T15:39:08Z</time>
      </trkpt>
      <trkpt lat="40.4292030" lon="-4.5429690">
        <ele>738.6</ele>
        <time>2019-08-13T15:39:09Z</time>
      </trkpt>
      <trkpt lat="40.4292340" lon="-4.5430400">
        <ele>738.7</ele>
        <time>2019-08-13T15:39:10Z</time>
      </trkpt>
      <trkpt lat="40.4292620" lon="-4.5431090">
        <ele>738.8</ele>
        <time>2019-08-13T15:39:11Z</time>
      </trkpt>
      <trkpt lat="40.4292890" lon="-4.5431760">
        <ele>738.9</ele>
        <time>2019-08-13T15:39:12Z</time>
      </trkpt>
      <trkpt lat="40.4293140" lon="-4.5432410">
        <ele>739.1</ele>
        <time>2019-08-13T15:39:13Z</time>
      </trkpt>
      <trkpt lat="40.4293370" lon="-4.5433070">
        <ele>739.2</ele>
        <time>2019-08-13T15:39:14Z</time>
      </trkpt>
      <trkpt lat="40.4293590" lon="-4.5433710">
        <ele>739.4</ele>
        <time>2019-08-13T15:39:15Z</time>
      </trkpt>
      <trkpt lat="40.4293800" lon="-4.5434340">
        <ele>739.5</ele>
        <time>2019-08-13T15:39:16Z</time>
      </trkpt>
      <trkpt lat="40.4294010" lon="-4.5434990">
        <ele>739.8</ele>
        <time>2019-08-13T15:39:17Z</time>
      </trkpt>
      <trkpt lat="40.4294230" lon="-4.5435650">
        <ele>740.0</ele>
        <time>2019-08-13T15:39:18Z</time>
      </trkpt>
      <trkpt lat="40.4294430" lon="-4.5436340">
        <ele>740.2</ele>
        <time>2019-08-13T15:39:19Z</time>
      </trkpt>
      <trkpt lat="40.4294610" lon="-4.5437060">
        <ele>740.4</ele>
        <time>2019-08-13T15:39:20Z</time>
      </trkpt>
      <trkpt lat="40.4294780" lon="-4.5437800">
        <ele>740.7</ele>
        <time>2019-08-13T15:39:21Z</time>
      </trkpt>
      <trkpt lat="40.4294910" lon="-4.5438570">
        <ele>740.9</ele>
        <time>2019-08-13T15:39:22Z</time>
      </trkpt>
      <trkpt lat="40.4295020" lon="-4.5439350">
        <ele>741.1</ele>
        <time>2019-08-13T15:39:23Z</time>
      </trkpt>
      <trkpt lat="40.4295090" lon="-4.5440090">
        <ele>741.3</ele>
        <time>2019-08-13T15:39:24Z</time>
      </trkpt>
      <trkpt lat="40.4295170" lon="-4.5440840">
        <ele>741.5</ele>
        <time>2019-08-13T15:39:25Z</time>
      </trkpt>
      <trkpt lat="40.4295230" lon="-4.5441610">
        <ele>741.7</ele>
        <time>2019-08-13T15:39:26Z</time>
      </trkpt>
      <trkpt lat="40.4295260" lon="-4.5442400">
        <ele>741.8</ele>
        <time>2019-08-13T15:39:27Z</time>
      </trkpt>
      <trkpt lat="40.4295270" lon="-4.5443180">
        <ele>742.0</ele>
        <time>2019-08-13T15:39:28Z</time>
      </trkpt>
      <trkpt lat="40.4295250" lon="-4.5443990">
        <ele>742.2</ele>
        <time>2019-08-13T15:39:29Z</time>
      </trkpt>
      <trkpt lat="40.4295230" lon="-4.5444800">
        <ele>742.4</ele>
        <time>2019-08-13T15:39:30Z</time>
      </trkpt>
      <trkpt lat="40.4295210" lon="-4.5445640">
        <ele>742.6</ele>
        <time>2019-08-13T15:39:31Z</time>
      </trkpt>
      <trkpt lat="40.4295170" lon="-4.5446470">
        <ele>742.8</ele>
        <time>2019-08-13T15:39:32Z</time>
      </trkpt>
      <trkpt lat="40.4295110" lon="-4.5447300">
        <ele>743.0</ele>
        <time>2019-08-13T15:39:33Z</time>
      </trkpt>
      <trkpt lat="40.4295040" lon="-4.5448130">
        <ele>743.2</ele>
        <time>2019-08-13T15:39:34Z</time>
      </trkpt>
      <trkpt lat="40.4294980" lon="-4.5448970">
        <ele>743.4</ele>
        <time>2019-08-13T15:39:35Z</time>
      </trkpt>
      <trkpt lat="40.4294920" lon="-4.5449800">
        <ele>743.6</ele>
        <time>2019-08-13T15:39:36Z</time>
      </trkpt>
      <trkpt lat="40.4294870" lon="-4.5450630">
        <ele>743.8</ele>
        <time>2019-08-13T15:39:37Z</time>
      </trkpt>
      <trkpt lat="40.4294800" lon="-4.5451450">
        <ele>744.0</ele>
        <time>2019-08-13T15:39:38Z</time>
      </trkpt>
      <trkpt lat="40.4294740" lon="-4.5452260">
        <ele>744.2</ele>
        <time>2019-08-13T15:39:39Z</time>
      </trkpt>
      <trkpt lat="40.4294680" lon="-4.5453060">
        <ele>744.4</ele>
        <time>2019-08-13T15:39:40Z</time>
      </trkpt>
      <trkpt lat="40.4294620" lon="-4.5453840">
        <ele>744.5</ele>
        <time>2019-08-13T15:39:41Z</time>
      </trkpt>
      <trkpt lat="40.4294540" lon="-4.5454630">
        <ele>744.7</ele>
        <time>2019-08-13T15:39:42Z</time>
      </trkpt>
      <trkpt lat="40.4294460" lon="-4.5455420">
        <ele>744.9</ele>
        <time>2019-08-13T15:39:43Z</time>
      </trkpt>
      <trkpt lat="40.4294380" lon="-4.5456220">
        <ele>745.1</ele>
        <time>2019-08-13T15:39:44Z</time>
      </trkpt>
      <trkpt lat="40.4294270" lon="-4.5457020">
        <ele>745.3</ele>
        <time>2019-08-13T15:39:45Z</time>
      </trkpt>
      <trkpt lat="40.4294130" lon="-4.5457800">
        <ele>745.5</ele>
        <time>2019-08-13T15:39:46Z</time>
      </trkpt>
      <trkpt lat="40.4293960" lon="-4.5458560">
        <ele>745.7</ele>
        <time>2019-08-13T15:39:47Z</time>
      </trkpt>
      <trkpt lat="40.4293760" lon="-4.5459300">
        <ele>745.9</ele>
        <time>2019-08-13T15:39:48Z</time>
      </trkpt>
      <trkpt lat="40.4293540" lon="-4.5460020">
        <ele>746.0</ele>
        <time>2019-08-13T15:39:49Z</time>
      </trkpt>
      <trkpt lat="40.4293300" lon="-4.5460700">
        <ele>746.2</ele>
        <time>2019-08-13T15:39:50Z</time>
      </trkpt>
      <trkpt lat="40.4293040" lon="-4.5461390">
        <ele>746.3</ele>
        <time>2019-08-13T15:39:51Z</time>
      </trkpt>
      <trkpt lat="40.4292770" lon="-4.5462050">
        <ele>746.4</ele>
        <time>2019-08-13T15:39:52Z</time>
      </trkpt>
      <trkpt lat="40.4292490" lon="-4.5462720">
        <ele>746.5</ele>
        <time>2019-08-13T15:39:53Z</time>
      </trkpt>
      <trkpt lat="40.4292200" lon="-4.5463420">
        <ele>746.7</ele>
        <time>2019-08-13T15:39:54Z</time>
      </trkpt>
      <trkpt lat="40.4291910" lon="-4.5464110">
        <ele>746.8</ele>
        <time>2019-08-13T15:39:55Z</time>
      </trkpt>
      <trkpt lat="40.4291620" lon="-4.5464810">
        <ele>746.9</ele>
        <time>2019-08-13T15:39:56Z</time>
      </trkpt>
      <trkpt lat="40.4291330" lon="-4.5465490">
        <ele>747.0</ele>
        <time>2019-08-13T15:39:57Z</time>
      </trkpt>
      <trkpt lat="40.4291040" lon="-4.5466190">
        <ele>747.1</ele>
        <time>2019-08-13T15:39:58Z</time>
      </trkpt>
      <trkpt lat="40.4290750" lon="-4.5466890">
        <ele>747.2</ele>
        <time>2019-08-13T15:39:59Z</time>
      </trkpt>
      <trkpt lat="40.4290450" lon="-4.5467620">
        <ele>747.4</ele>
        <time>2019-08-13T15:40:00Z</time>
      </trkpt>
      <trkpt lat="40.4290140" lon="-4.5468340">
        <ele>747.5</ele>
        <time>2019-08-13T15:40:01Z</time>
      </trkpt>
      <trkpt lat="40.4289830" lon="-4.5469030">
        <ele>747.6</ele>
        <time>2019-08-13T15:40:02Z</time>
      </trkpt>
      <trkpt lat="40.4289540" lon="-4.5469730">
        <ele>747.8</ele>
        <time>2019-08-13T15:40:03Z</time>
      </trkpt>
      <trkpt lat="40.4289240" lon="-4.5470450">
        <ele>747.9</ele>
        <time>2019-08-13T15:40:04Z</time>
      </trkpt>
      <trkpt lat="40.4288930" lon="-4.5471170">
        <ele>748.0</ele>
        <time>2019-08-13T15:40:05Z</time>
      </trkpt>
      <trkpt lat="40.4288630" lon="-4.5471880">
        <ele>748.2</ele>
        <time>2019-08-13T15:40:06Z</time>
      </trkpt>
      <trkpt lat="40.4288310" lon="-4.5472600">
        <ele>748.3</ele>
        <time>2019-08-13T15:40:07Z</time>
      </trkpt>
      <trkpt lat="40.4287990" lon="-4.5473310">
        <ele>748.4</ele>
        <time>2019-08-13T15:40:08Z</time>
      </trkpt>
      <trkpt lat="40.4287690" lon="-4.5474030">
        <ele>748.5</ele>
        <time>2019-08-13T15:40:09Z</time>
      </trkpt>
      <trkpt lat="40.4287390" lon="-4.5474770">
        <ele>748.6</ele>
        <time>2019-08-13T15:40:10Z</time>
      </trkpt>
      <trkpt lat="40.4287110" lon="-4.5475500">
        <ele>748.7</ele>
        <time>2019-08-13T15:40:11Z</time>
      </trkpt>
      <trkpt lat="40.4286810" lon="-4.5476260">
        <ele>748.8</ele>
        <time>2019-08-13T15:40:12Z</time>
      </trkpt>
      <trkpt lat="40.4286490" lon="-4.5477060">
        <ele>748.9</ele>
        <time>2019-08-13T15:40:13Z</time>
      </trkpt>
      <trkpt lat="40.4286190" lon="-4.5477890">
        <ele>749.0</ele>
        <time>2019-08-13T15:40:14Z</time>
      </trkpt>
      <trkpt lat="40.4285910" lon="-4.5478740">
        <ele>749.1</ele>
        <time>2019-08-13T15:40:15Z</time>
      </trkpt>
      <trkpt lat="40.4285630" lon="-4.5479580">
        <ele>749.2</ele>
        <time>2019-08-13T15:40:16Z</time>
      </trkpt>
      <trkpt lat="40.4285390" lon="-4.5480440">
        <ele>749.2</ele>
        <time>2019-08-13T15:40:17Z</time>
      </trkpt>
      <trkpt lat="40.4285180" lon="-4.5481300">
        <ele>749.3</ele>
        <time>2019-08-13T15:40:18Z</time>
      </trkpt>
      <trkpt lat="40.4285010" lon="-4.5482170">
        <ele>749.4</ele>
        <time>2019-08-13T15:40:19Z</time>
      </trkpt>
      <trkpt lat="40.4284860" lon="-4.5483020">
        <ele>749.4</ele>
        <time>2019-08-13T15:40:20Z</time>
      </trkpt>
      <trkpt lat="40.4284710" lon="-4.5483880">
        <ele>749.5</ele>
        <time>2019-08-13T15:40:21Z</time>
      </trkpt>
      <trkpt lat="40.4284580" lon="-4.5484750">
        <ele>749.5</ele>
        <time>2019-08-13T15:40:22Z</time>
      </trkpt>
      <trkpt lat="40.4284470" lon="-4.5485600">
        <ele>749.2</ele>
        <time>2019-08-13T15:40:23Z</time>
      </trkpt>
      <trkpt lat="40.4284360" lon="-4.5486470">
        <ele>748.8</ele>
        <time>2019-08-13T15:40:24Z</time>
      </trkpt>
      <trkpt lat="40.4284270" lon="-4.5487340">
        <ele>748.6</ele>
        <time>2019-08-13T15:40:25Z</time>
      </trkpt>
      <trkpt lat="40.4284230" lon="-4.5488240">
        <ele>748.3</ele>
        <time>2019-08-13T15:40:26Z</time>
      </trkpt>
      <trkpt lat="40.4284220" lon="-4.5489150">
        <ele>748.0</ele>
        <time>2019-08-13T15:40:27Z</time>
      </trkpt>
      <trkpt lat="40.4284250" lon="-4.5490050">
        <ele>747.8</ele>
        <time>2019-08-13T15:40:28Z</time>
      </trkpt>
      <trkpt lat="40.4284340" lon="-4.5490940">
        <ele>747.6</ele>
        <time>2019-08-13T15:40:29Z</time>
      </trkpt>
      <trkpt lat="40.4284470" lon="-4.5491790">
        <ele>747.5</ele>
        <time>2019-08-13T15:40:30Z</time>
      </trkpt>
      <trkpt lat="40.4284620" lon="-4.5492610">
        <ele>747.3</ele>
        <time>2019-08-13T15:40:31Z</time>
      </trkpt>
      <trkpt lat="40.4284780" lon="-4.5493430">
        <ele>747.1</ele>
        <time>2019-08-13T15:40:32Z</time>
      </trkpt>
      <trkpt lat="40.4284910" lon="-4.5494250">
        <ele>747.0</ele>
        <time>2019-08-13T15:40:33Z</time>
      </trkpt>
      <trkpt lat="40.4285040" lon="-4.5495080">
        <ele>746.8</ele>
        <time>2019-08-13T15:40:34Z</time>
      </trkpt>
      <trkpt lat="40.4285180" lon="-4.5495910">
        <ele>746.6</ele>
        <time>2019-08-13T15:40:35Z</time>
      </trkpt>
      <trkpt lat="40.4285290" lon="-4.5496750">
        <ele>745.9</ele>
        <time>2019-08-13T15:40:36Z</time>
      </trkpt>
      <trkpt lat="40.4285390" lon="-4.5497600">
        <ele>745.4</ele>
        <time>2019-08-13T15:40:37Z</time>
      </trkpt>
      <trkpt lat="40.4285510" lon="-4.5498470">
        <ele>744.9</ele>
        <time>2019-08-13T15:40:38Z</time>
      </trkpt>
      <trkpt lat="40.4285600" lon="-4.5499350">
        <ele>744.5</ele>
        <time>2019-08-13T15:40:39Z</time>
      </trkpt>
      <trkpt lat="40.4285660" lon="-4.5500200">
        <ele>744.0</ele>
        <time>2019-08-13T15:40:40Z</time>
      </trkpt>
      <trkpt lat="40.4285720" lon="-4.5501030">
        <ele>743.6</ele>
        <time>2019-08-13T15:40:41Z</time>
      </trkpt>
      <trkpt lat="40.4285790" lon="-4.5501850">
        <ele>743.1</ele>
        <time>2019-08-13T15:40:42Z</time>
      </trkpt>
      <trkpt lat="40.4285860" lon="-4.5502670">
        <ele>742.7</ele>
        <time>2019-08-13T15:40:43Z</time>
      </trkpt>
      <trkpt lat="40.4285920" lon="-4.5503500">
        <ele>742.3</ele>
        <time>2019-08-13T15:40:44Z</time>
      </trkpt>
      <trkpt lat="40.4285990" lon="-4.5504320">
        <ele>741.8</ele>
        <time>2019-08-13T15:40:45Z</time>
      </trkpt>
      <trkpt lat="40.4286050" lon="-4.5505150">
        <ele>741.4</ele>
        <time>2019-08-13T15:40:46Z</time>
      </trkpt>
      <trkpt lat="40.4286110" lon="-4.5505970">
        <ele>740.9</ele>
        <time>2019-08-13T15:40:47Z</time>
      </trkpt>
      <trkpt lat="40.4286170" lon="-4.5506790">
        <ele>740.5</ele>
        <time>2019-08-13T15:40:48Z</time>
      </trkpt>
      <trkpt lat="40.4286230" lon="-4.5507620">
        <ele>740.0</ele>
        <time>2019-08-13T15:40:49Z</time>
      </trkpt>
      <trkpt lat="40.4286300" lon="-4.5508450">
        <ele>739.6</ele>
        <time>2019-08-13T15:40:50Z</time>
      </trkpt>
      <trkpt lat="40.4286370" lon="-4.5509290">
        <ele>739.2</ele>
        <time>2019-08-13T15:40:51Z</time>
      </trkpt>
      <trkpt lat="40.4286450" lon="-4.5510140">
        <ele>738.7</ele>
        <time>2019-08-13T15:40:52Z</time>
      </trkpt>
      <trkpt lat="40.4286550" lon="-4.5511000">
        <ele>738.2</ele>
        <time>2019-08-13T15:40:53Z</time>
      </trkpt>
      <trkpt lat="40.4286600" lon="-4.5511840">
        <ele>737.8</ele>
        <time>2019-08-13T15:40:54Z</time>
      </trkpt>
      <trkpt lat="40.4286660" lon="-4.5512680">
        <ele>737.3</ele>
        <time>2019-08-13T15:40:55Z</time>
      </trkpt>
      <trkpt lat="40.4286720" lon="-4.5513520">
        <ele>736.9</ele>
        <time>2019-08-13T15:40:56Z</time>
      </trkpt>
      <trkpt lat="40.4286760" lon="-4.5514370">
        <ele>736.4</ele>
        <time>2019-08-13T15:40:57Z</time>
      </trkpt>
      <trkpt lat="40.4286790" lon="-4.5515240">
        <ele>736.0</ele>
        <time>2019-08-13T15:40:58Z</time>
      </trkpt>
      <trkpt lat="40.4286780" lon="-4.5516130">
        <ele>735.5</ele>
        <time>2019-08-13T15:40:59Z</time>
      </trkpt>
      <trkpt lat="40.4286750" lon="-4.5517010">
        <ele>735.1</ele>
        <time>2019-08-13T15:41:00Z</time>
      </trkpt>
      <trkpt lat="40.4286710" lon="-4.5517860">
        <ele>734.6</ele>
        <time>2019-08-13T15:41:01Z</time>
      </trkpt>
      <trkpt lat="40.4286650" lon="-4.5518720">
        <ele>734.2</ele>
        <time>2019-08-13T15:41:02Z</time>
      </trkpt>
      <trkpt lat="40.4286580" lon="-4.5519570">
        <ele>733.8</ele>
        <time>2019-08-13T15:41:03Z</time>
      </trkpt>
      <trkpt lat="40.4286500" lon="-4.5520460">
        <ele>733.3</ele>
        <time>2019-08-13T15:41:04Z</time>
      </trkpt>
      <trkpt lat="40.4286420" lon="-4.5521320">
        <ele>732.9</ele>
        <time>2019-08-13T15:41:05Z</time>
      </trkpt>
      <trkpt lat="40.4286340" lon="-4.5522200">
        <ele>732.4</ele>
        <time>2019-08-13T15:41:06Z</time>
      </trkpt>
      <trkpt lat="40.4286280" lon="-4.5523100">
        <ele>732.0</ele>
        <time>2019-08-13T15:41:07Z</time>
      </trkpt>
      <trkpt lat="40.4286270" lon="-4.5523970">
        <ele>731.5</ele>
        <time>2019-08-13T15:41:08Z</time>
      </trkpt>
      <trkpt lat="40.4286330" lon="-4.5524820">
        <ele>731.1</ele>
        <time>2019-08-13T15:41:09Z</time>
      </trkpt>
      <trkpt lat="40.4286450" lon="-4.5525640">
        <ele>730.5</ele>
        <time>2019-08-13T15:41:10Z</time>
      </trkpt>
      <trkpt lat="40.4286630" lon="-4.5526440">
        <ele>730.0</ele>
        <time>2019-08-13T15:41:11Z</time>
      </trkpt>
      <trkpt lat="40.4286820" lon="-4.5527200">
        <ele>729.6</ele>
        <time>2019-08-13T15:41:12Z</time>
      </trkpt>
      <trkpt lat="40.4287020" lon="-4.5527930">
        <ele>729.2</ele>
        <time>2019-08-13T15:41:13Z</time>
      </trkpt>
      <trkpt lat="40.4287210" lon="-4.5528640">
        <ele>728.8</ele>
        <time>2019-08-13T15:41:14Z</time>
      </trkpt>
      <trkpt lat="40.4287390" lon="-4.5529350">
        <ele>728.4</ele>
        <time>2019-08-13T15:41:15Z</time>
      </trkpt>
      <trkpt lat="40.4287590" lon="-4.5530070">
        <ele>728.1</ele>
        <time>2019-08-13T15:41:16Z</time>
      </trkpt>
      <trkpt lat="40.4287780" lon="-4.5530790">
        <ele>727.7</ele>
        <time>2019-08-13T15:41:17Z</time>
      </trkpt>
      <trkpt lat="40.4287970" lon="-4.5531520">
        <ele>727.4</ele>
        <time>2019-08-13T15:41:18Z</time>
      </trkpt>
      <trkpt lat="40.4288160" lon="-4.5532250">
        <ele>727.1</ele>
        <time>2019-08-13T15:41:19Z</time>
      </trkpt>
      <trkpt lat="40.4288340" lon="-4.5532980">
        <ele>726.8</ele>
        <time>2019-08-13T15:41:20Z</time>
      </trkpt>
      <trkpt lat="40.4288540" lon="-4.5533720">
        <ele>726.4</ele>
        <time>2019-08-13T15:41:21Z</time>
      </trkpt>
      <trkpt lat="40.4288760" lon="-4.5534440">
        <ele>725.9</ele>
        <time>2019-08-13T15:41:22Z</time>
      </trkpt>
      <trkpt lat="40.4288990" lon="-4.5535150">
        <ele>725.5</ele>
        <time>2019-08-13T15:41:23Z</time>
      </trkpt>
      <trkpt lat="40.4289280" lon="-4.5535840">
        <ele>725.0</ele>
        <time>2019-08-13T15:41:24Z</time>
      </trkpt>
      <trkpt lat="40.4289570" lon="-4.5536480">
        <ele>724.5</ele>
        <time>2019-08-13T15:41:25Z</time>
      </trkpt>
      <trkpt lat="40.4289900" lon="-4.5537070">
        <ele>724.0</ele>
        <time>2019-08-13T15:41:26Z</time>
      </trkpt>
      <trkpt lat="40.4290240" lon="-4.5537640">
        <ele>723.5</ele>
        <time>2019-08-13T15:41:27Z</time>
      </trkpt>
      <trkpt lat="40.4290560" lon="-4.5538200">
        <ele>723.0</ele>
        <time>2019-08-13T15:41:28Z</time>
      </trkpt>
      <trkpt lat="40.4290880" lon="-4.5538710">
        <ele>722.7</ele>
        <time>2019-08-13T15:41:29Z</time>
      </trkpt>
      <trkpt lat="40.4291260" lon="-4.5539170">
        <ele>722.4</ele>
        <time>2019-08-13T15:41:30Z</time>
      </trkpt>
      <trkpt lat="40.4291650" lon="-4.5539600">
        <ele>722.1</ele>
        <time>2019-08-13T15:41:31Z</time>
      </trkpt>
      <trkpt lat="40.4292100" lon="-4.5539960">
        <ele>721.7</ele>
        <time>2019-08-13T15:41:32Z</time>
      </trkpt>
      <trkpt lat="40.4292580" lon="-4.5540300">
        <ele>721.3</ele>
        <time>2019-08-13T15:41:33Z</time>
      </trkpt>
      <trkpt lat="40.4293070" lon="-4.5540590">
        <ele>721.2</ele>
        <time>2019-08-13T15:41:34Z</time>
      </trkpt>
      <trkpt lat="40.4293540" lon="-4.5540850">
        <ele>721.4</ele>
        <time>2019-08-13T15:41:35Z</time>
      </trkpt>
      <trkpt lat="40.4294060" lon="-4.5541080">
        <ele>721.6</ele>
        <time>2019-08-13T15:41:36Z</time>
      </trkpt>
      <trkpt lat="40.4294580" lon="-4.5541300">
        <ele>721.8</ele>
        <time>2019-08-13T15:41:37Z</time>
      </trkpt>
      <trkpt lat="40.4295110" lon="-4.5541520">
        <ele>721.9</ele>
        <time>2019-08-13T15:41:38Z</time>
      </trkpt>
      <trkpt lat="40.4295670" lon="-4.5541720">
        <ele>722.1</ele>
        <time>2019-08-13T15:41:39Z</time>
      </trkpt>
      <trkpt lat="40.4296230" lon="-4.5541960">
        <ele>722.3</ele>
        <time>2019-08-13T15:41:40Z</time>
      </trkpt>
      <trkpt lat="40.4296810" lon="-4.5542180">
        <ele>722.6</ele>
        <time>2019-08-13T15:41:41Z</time>
      </trkpt>
      <trkpt lat="40.4297370" lon="-4.5542390">
        <ele>722.9</ele>
        <time>2019-08-13T15:41:42Z</time>
      </trkpt>
      <trkpt lat="40.4297930" lon="-4.5542600">
        <ele>723.2</ele>
        <time>2019-08-13T15:41:43Z</time>
      </trkpt>
      <trkpt lat="40.4298500" lon="-4.5542790">
        <ele>723.5</ele>
        <time>2019-08-13T15:41:44Z</time>
      </trkpt>
      <trkpt lat="40.4299090" lon="-4.5542990">
        <ele>723.8</ele>
        <time>2019-08-13T15:41:45Z</time>
      </trkpt>
      <trkpt lat="40.4299680" lon="-4.5543160">
        <ele>724.2</ele>
        <time>2019-08-13T15:41:46Z</time>
      </trkpt>
      <trkpt lat="40.4300260" lon="-4.5543320">
        <ele>724.6</ele>
        <time>2019-08-13T15:41:47Z</time>
      </trkpt>
      <trkpt lat="40.4300860" lon="-4.5543430">
        <ele>724.9</ele>
        <time>2019-08-13T15:41:48Z</time>
      </trkpt>
      <trkpt lat="40.4301450" lon="-4.5543520">
        <ele>725.3</ele>
        <time>2019-08-13T15:41:49Z</time>
      </trkpt>
      <trkpt lat="40.4302040" lon="-4.5543580">
        <ele>725.7</ele>
        <time>2019-08-13T15:41:50Z</time>
      </trkpt>
      <trkpt lat="40.4302650" lon="-4.5543630">
        <ele>726.0</ele>
        <time>2019-08-13T15:41:51Z</time>
      </trkpt>
      <trkpt lat="40.4303250" lon="-4.5543680">
        <ele>726.4</ele>
        <time>2019-08-13T15:41:52Z</time>
      </trkpt>
      <trkpt lat="40.4303840" lon="-4.5543740">
        <ele>726.7</ele>
        <time>2019-08-13T15:41:53Z</time>
      </trkpt>
      <trkpt lat="40.4304420" lon="-4.5543800">
        <ele>727.0</ele>
        <time>2019-08-13T15:41:54Z</time>
      </trkpt>
      <trkpt lat="40.4304980" lon="-4.5543850">
        <ele>727.2</ele>
        <time>2019-08-13T15:41:55Z</time>
      </trkpt>
      <trkpt lat="40.4305530" lon="-4.5543900">
        <ele>727.5</ele>
        <time>2019-08-13T15:41:56Z</time>
      </trkpt>
      <trkpt lat="40.4306060" lon="-4.5543920">
        <ele>727.7</ele>
        <time>2019-08-13T15:41:57Z</time>
      </trkpt>
      <trkpt lat="40.4306570" lon="-4.5543910">
        <ele>727.9</ele>
        <time>2019-08-13T15:41:58Z</time>
      </trkpt>
      <trkpt lat="40.4307080" lon="-4.5543870">
        <ele>728.1</ele>
        <time>2019-08-13T15:41:59Z</time>
      </trkpt>
      <trkpt lat="40.4307600" lon="-4.5543770">
        <ele>728.3</ele>
        <time>2019-08-13T15:42:00Z</time>
      </trkpt>
      <trkpt lat="40.4308140" lon="-4.5543660">
        <ele>728.5</ele>
        <time>2019-08-13T15:42:01Z</time>
      </trkpt>
      <trkpt lat="40.4308690" lon="-4.5543510">
        <ele>728.7</ele>
        <time>2019-08-13T15:42:02Z</time>
      </trkpt>
      <trkpt lat="40.4309230" lon="-4.5543350">
        <ele>728.9</ele>
        <time>2019-08-13T15:42:03Z</time>
      </trkpt>
      <trkpt lat="40.4309770" lon="-4.5543170">
        <ele>729.1</ele>
        <time>2019-08-13T15:42:04Z</time>
      </trkpt>
      <trkpt lat="40.4310300" lon="-4.5542960">
        <ele>729.3</ele>
        <time>2019-08-13T15:42:05Z</time>
      </trkpt>
      <trkpt lat="40.4310820" lon="-4.5542720">
        <ele>729.6</ele>
        <time>2019-08-13T15:42:06Z</time>
      </trkpt>
      <trkpt lat="40.4311300" lon="-4.5542460">
        <ele>729.8</ele>
        <time>2019-08-13T15:42:07Z</time>
      </trkpt>
      <trkpt lat="40.4311760" lon="-4.5542190">
        <ele>730.0</ele>
        <time>2019-08-13T15:42:08Z</time>
      </trkpt>
      <trkpt lat="40.4312200" lon="-4.5541880">
        <ele>730.3</ele>
        <time>2019-08-13T15:42:09Z</time>
      </trkpt>
      <trkpt lat="40.4312640" lon="-4.5541550">
        <ele>730.6</ele>
        <time>2019-08-13T15:42:10Z</time>
      </trkpt>
      <trkpt lat="40.4313090" lon="-4.5541220">
        <ele>731.0</ele>
        <time>2019-08-13T15:42:11Z</time>
      </trkpt>
      <trkpt lat="40.4313540" lon="-4.5540900">
        <ele>731.3</ele>
        <time>2019-08-13T15:42:12Z</time>
      </trkpt>
      <trkpt lat="40.4313990" lon="-4.5540580">
        <ele>731.7</ele>
        <time>2019-08-13T15:42:13Z</time>
      </trkpt>
      <trkpt lat="40.4314440" lon="-4.5540250">
        <ele>732.1</ele>
        <time>2019-08-13T15:42:14Z</time>
      </trkpt>
      <trkpt lat="40.4314900" lon="-4.5539890">
        <ele>732.5</ele>
        <time>2019-08-13T15:42:15Z</time>
      </trkpt>
      <trkpt lat="40.4315370" lon="-4.5539570">
        <ele>733.0</ele>
        <time>2019-08-13T15:42:16Z</time>
      </trkpt>
      <trkpt lat="40.4315840" lon="-4.5539260">
        <ele>733.4</ele>
        <time>2019-08-13T15:42:17Z</time>
      </trkpt>
      <trkpt lat="40.4316330" lon="-4.5538980">
        <ele>733.8</ele>
        <time>2019-08-13T15:42:18Z</time>
      </trkpt>
      <trkpt lat="40.4316820" lon="-4.5538710">
        <ele>734.2</ele>
        <time>2019-08-13T15:42:19Z</time>
      </trkpt>
      <trkpt lat="40.4317320" lon="-4.5538460">
        <ele>734.7</ele>
        <time>2019-08-13T15:42:20Z</time>
      </trkpt>
      <trkpt lat="40.4317820" lon="-4.5538240">
        <ele>735.1</ele>
        <time>2019-08-13T15:42:21Z</time>
      </trkpt>
      <trkpt lat="40.4318340" lon="-4.5538060">
        <ele>735.5</ele>
        <time>2019-08-13T15:42:22Z</time>
      </trkpt>
      <trkpt lat="40.4318860" lon="-4.5537930">
        <ele>735.9</ele>
        <time>2019-08-13T15:42:23Z</time>
      </trkpt>
      <trkpt lat="40.4319400" lon="-4.5537830">
        <ele>736.3</ele>
        <time>2019-08-13T15:42:24Z</time>
      </trkpt>
      <trkpt lat="40.4319940" lon="-4.5537750">
        <ele>736.7</ele>
        <time>2019-08-13T15:42:25Z</time>
      </trkpt>
      <trkpt lat="40.4320480" lon="-4.5537700">
        <ele>737.1</ele>
        <time>2019-08-13T15:42:26Z</time>
      </trkpt>
      <trkpt lat="40.4321020" lon="-4.5537650">
        <ele>737.5</ele>
        <time>2019-08-13T15:42:27Z</time>
      </trkpt>
      <trkpt lat="40.4321570" lon="-4.5537620">
        <ele>738.0</ele>
        <time>2019-08-13T15:42:28Z</time>
      </trkpt>
      <trkpt lat="40.4322080" lon="-4.5537580">
        <ele>738.4</ele>
        <time>2019-08-13T15:42:29Z</time>
      </trkpt>
      <trkpt lat="40.4322560" lon="-4.5537530">
        <ele>738.7</ele>
        <time>2019-08-13T15:42:30Z</time>
      </trkpt>
      <trkpt lat="40.4323020" lon="-4.5537460">
        <ele>739.1</ele>
        <time>2019-08-13T15:42:31Z</time>
      </trkpt>
      <trkpt lat="40.4323480" lon="-4.5537360">
        <ele>739.5</ele>
        <time>2019-08-13T15:42:32Z</time>
      </trkpt>
      <trkpt lat="40.4323930" lon="-4.5537240">
        <ele>739.9</ele>
        <time>2019-08-13T15:42:33Z</time>
      </trkpt>
      <trkpt lat="40.4324380" lon="-4.5537120">
        <ele>740.2</ele>
        <time>2019-08-13T15:42:34Z</time>
      </trkpt>
      <trkpt lat="40.4324830" lon="-4.5536980">
        <ele>740.6</ele>
        <time>2019-08-13T15:42:35Z</time>
      </trkpt>
      <trkpt lat="40.4325260" lon="-4.5536840">
        <ele>741.0</ele>
        <time>2019-08-13T15:42:36Z</time>
      </trkpt>
      <trkpt lat="40.4325670" lon="-4.5536630">
        <ele>741.4</ele>
        <time>2019-08-13T15:42:37Z</time>
      </trkpt>
      <trkpt lat="40.4326070" lon="-4.5536420">
        <ele>741.7</ele>
        <time>2019-08-13T15:42:38Z</time>
      </trkpt>
      <trkpt lat="40.4326460" lon="-4.5536230">
        <ele>742.1</ele>
        <time>2019-08-13T15:42:39Z</time>
      </trkpt>
      <trkpt lat="40.4326840" lon="-4.5536030">
        <ele>742.5</ele>
        <time>2019-08-13T15:42:40Z</time>
      </trkpt>
      <trkpt lat="40.4327190" lon="-4.5535830">
        <ele>742.8</ele>
        <time>2019-08-13T15:42:41Z</time>
      </trkpt>
      <trkpt lat="40.4327510" lon="-4.5535630">
        <ele>743.1</ele>
        <time>2019-08-13T15:42:42Z</time>
      </trkpt>
      <trkpt lat="40.4327810" lon="-4.5535440">
        <ele>743.4</ele>
        <time>2019-08-13T15:42:43Z</time>
      </trkpt>
      <trkpt lat="40.4328100" lon="-4.5535280">
        <ele>743.8</ele>
        <time>2019-08-13T15:42:44Z</time>
      </trkpt>
      <trkpt lat="40.4328390" lon="-4.5535130">
        <ele>744.2</ele>
        <time>2019-08-13T15:42:45Z</time>
      </trkpt>
      <trkpt lat="40.4328670" lon="-4.5534990">
        <ele>744.7</ele>
        <time>2019-08-13T15:42:46Z</time>
      </trkpt>
      <trkpt lat="40.4328940" lon="-4.5534850">
        <ele>745.1</ele>
        <time>2019-08-13T15:42:47Z</time>
      </trkpt>
      <trkpt lat="40.4329200" lon="-4.5534710">
        <ele>745.5</ele>
        <time>2019-08-13T15:42:48Z</time>
      </trkpt>
      <trkpt lat="40.4329440" lon="-4.5534540">
        <ele>746.0</ele>
        <time>2019-08-13T15:42:49Z</time>
      </trkpt>
      <trkpt lat="40.4329680" lon="-4.5534370">
        <ele>746.4</ele>
        <time>2019-08-13T15:42:50Z</time>
      </trkpt>
      <trkpt lat="40.4329930" lon="-4.5534210">
        <ele>746.8</ele>
        <time>2019-08-13T15:42:51Z</time>
      </trkpt>
      <trkpt lat="40.4330180" lon="-4.5534070">
        <ele>747.3</ele>
        <time>2019-08-13T15:42:52Z</time>
      </trkpt>
      <trkpt lat="40.4330430" lon="-4.5533920">
        <ele>747.9</ele>
        <time>2019-08-13T15:42:53Z</time>
      </trkpt>
      <trkpt lat="40.4330680" lon="-4.5533770">
        <ele>748.4</ele>
        <time>2019-08-13T15:42:54Z</time>
      </trkpt>
      <trkpt lat="40.4330930" lon="-4.5533620">
        <ele>748.8</ele>
        <time>2019-08-13T15:42:55Z</time>
      </trkpt>
      <trkpt lat="40.4331180" lon="-4.5533480">
        <ele>749.1</ele>
        <time>2019-08-13T15:42:56Z</time>
      </trkpt>
      <trkpt lat="40.4331430" lon="-4.5533340">
        <ele>749.5</ele>
        <time>2019-08-13T15:42:57Z</time>
      </trkpt>
      <trkpt lat="40.4331910" lon="-4.5533070">
        <ele>750.2</ele>
        <time>2019-08-13T15:42:59Z</time>
      </trkpt>
      <trkpt lat="40.4332350" lon="-4.5532850">
        <ele>751.0</ele>
        <time>2019-08-13T15:43:01Z</time>
      </trkpt>
      <trkpt lat="40.4332790" lon="-4.5532580">
        <ele>751.9</ele>
        <time>2019-08-13T15:43:03Z</time>
      </trkpt>
      <trkpt lat="40.4333230" lon="-4.5532310">
        <ele>752.5</ele>
        <time>2019-08-13T15:43:05Z</time>
      </trkpt>
      <trkpt lat="40.4333680" lon="-4.5532050">
        <ele>753.1</ele>
        <time>2019-08-13T15:43:07Z</time>
      </trkpt>
      <trkpt lat="40.4334130" lon="-4.5531780">
        <ele>753.7</ele>
        <time>2019-08-13T15:43:09Z</time>
      </trkpt>
      <trkpt lat="40.4334570" lon="-4.5531530">
        <ele>754.2</ele>
        <time>2019-08-13T15:43:11Z</time>
      </trkpt>
      <trkpt lat="40.4335020" lon="-4.5531300">
        <ele>754.7</ele>
        <time>2019-08-13T15:43:13Z</time>
      </trkpt>
      <trkpt lat="40.4335460" lon="-4.5531080">
        <ele>754.9</ele>
        <time>2019-08-13T15:43:15Z</time>
      </trkpt>
      <trkpt lat="40.4335890" lon="-4.5530830">
        <ele>755.2</ele>
        <time>2019-08-13T15:43:17Z</time>
      </trkpt>
      <trkpt lat="40.4336320" lon="-4.5530570">
        <ele>755.4</ele>
        <time>2019-08-13T15:43:19Z</time>
      </trkpt>
      <trkpt lat="40.4336740" lon="-4.5530330">
        <ele>755.7</ele>
        <time>2019-08-13T15:43:21Z</time>
      </trkpt>
      <trkpt lat="40.4337170" lon="-4.5530070">
        <ele>755.9</ele>
        <time>2019-08-13T15:43:23Z</time>
      </trkpt>
      <trkpt lat="40.4337600" lon="-4.5529790">
        <ele>756.2</ele>
        <time>2019-08-13T15:43:25Z</time>
      </trkpt>
      <trkpt lat="40.4338040" lon="-4.5529520">
        <ele>756.4</ele>
        <time>2019-08-13T15:43:27Z</time>
      </trkpt>
      <trkpt lat="40.4338460" lon="-4.5529170">
        <ele>756.6</ele>
        <time>2019-08-13T15:43:29Z</time>
      </trkpt>
      <trkpt lat="40.4338860" lon="-4.5528820">
        <ele>756.8</ele>
        <time>2019-08-13T15:43:31Z</time>
      </trkpt>
      <trkpt lat="40.4339240" lon="-4.5528490">
        <ele>756.9</ele>
        <time>2019-08-13T15:43:33Z</time>
      </trkpt>
      <trkpt lat="40.4339610" lon="-4.5528160">
        <ele>757.1</ele>
        <time>2019-08-13T15:43:35Z</time>
      </trkpt>
      <trkpt lat="40.4339970" lon="-4.5527860">
        <ele>757.2</ele>
        <time>2019-08-13T15:43:37Z</time>
      </trkpt>
      <trkpt lat="40.4340340" lon="-4.5527560">
        <ele>757.4</ele>
        <time>2019-08-13T15:43:39Z</time>
      </trkpt>
      <trkpt lat="40.4340710" lon="-4.5527250">
        <ele>757.6</ele>
        <time>2019-08-13T15:43:41Z</time>
      </trkpt>
      <trkpt lat="40.4341080" lon="-4.5526960">
        <ele>757.8</ele>
        <time>2019-08-13T15:43:43Z</time>
      </trkpt>
      <trkpt lat="40.4341470" lon="-4.5526690">
        <ele>758.0</ele>
        <time>2019-08-13T15:43:45Z</time>
      </trkpt>
      <trkpt lat="40.4341880" lon="-4.5526430">
        <ele>758.2</ele>
        <time>2019-08-13T15:43:47Z</time>
      </trkpt>
      <trkpt lat="40.4342300" lon="-4.5526190">
        <ele>758.3</ele>
        <time>2019-08-13T15:43:49Z</time>
      </trkpt>
      <trkpt lat="40.4342710" lon="-4.5525960">
        <ele>758.5</ele>
        <time>2019-08-13T15:43:51Z</time>
      </trkpt>
      <trkpt lat="40.4343140" lon="-4.5525770">
        <ele>758.7</ele>
        <time>2019-08-13T15:43:53Z</time>
      </trkpt>
      <trkpt lat="40.4343580" lon="-4.5525670">
        <ele>758.8</ele>
        <time>2019-08-13T15:43:55Z</time>
      </trkpt>
      <trkpt lat="40.4344020" lon="-4.5525610">
        <ele>759.0</ele>
        <time>2019-08-13T15:43:57Z</time>
      </trkpt>
      <trkpt lat="40.4344480" lon="-4.5525550">
        <ele>759.1</ele>
        <time>2019-08-13T15:43:59Z</time>
      </trkpt>
      <trkpt lat="40.4344940" lon="-4.5525490">
        <ele>759.3</ele>
        <time>2019-08-13T15:44:01Z</time>
      </trkpt>
      <trkpt lat="40.4345390" lon="-4.5525450">
        <ele>759.4</ele>
        <time>2019-08-13T15:44:03Z</time>
      </trkpt>
      <trkpt lat="40.4345840" lon="-4.5525390">
        <ele>759.4</ele>
        <time>2019-08-13T15:44:05Z</time>
      </trkpt>
      <trkpt lat="40.4346310" lon="-4.5525320">
        <ele>759.5</ele>
        <time>2019-08-13T15:44:07Z</time>
      </trkpt>
      <trkpt lat="40.4346770" lon="-4.5525200">
        <ele>759.5</ele>
        <time>2019-08-13T15:44:09Z</time>
      </trkpt>
      <trkpt lat="40.4347230" lon="-4.5525090">
        <ele>759.5</ele>
        <time>2019-08-13T15:44:11Z</time>
      </trkpt>
      <trkpt lat="40.4347710" lon="-4.5524960">
        <ele>759.5</ele>
        <time>2019-08-13T15:44:13Z</time>
      </trkpt>
      <trkpt lat="40.4348180" lon="-4.5524820">
        <ele>759.7</ele>
        <time>2019-08-13T15:44:15Z</time>
      </trkpt>
      <trkpt lat="40.4348610" lon="-4.5524660">
        <ele>760.0</ele>
        <time>2019-08-13T15:44:17Z</time>
      </trkpt>
      <trkpt lat="40.4349030" lon="-4.5524450">
        <ele>760.3</ele>
        <time>2019-08-13T15:44:19Z</time>
      </trkpt>
      <trkpt lat="40.4349430" lon="-4.5524210">
        <ele>760.6</ele>
        <time>2019-08-13T15:44:21Z</time>
      </trkpt>
      <trkpt lat="40.4349840" lon="-4.5523960">
        <ele>760.8</ele>
        <time>2019-08-13T15:44:23Z</time>
      </trkpt>
      <trkpt lat="40.4350230" lon="-4.5523700">
        <ele>761.1</ele>
        <time>2019-08-13T15:44:25Z</time>
      </trkpt>
      <trkpt lat="40.4350620" lon="-4.5523420">
        <ele>761.4</ele>
        <time>2019-08-13T15:44:27Z</time>
      </trkpt>
      <trkpt lat="40.4351040" lon="-4.5523140">
        <ele>761.7</ele>
        <time>2019-08-13T15:44:29Z</time>
      </trkpt>
      <trkpt lat="40.4351460" lon="-4.5522860">
        <ele>762.0</ele>
        <time>2019-08-13T15:44:31Z</time>
      </trkpt>
      <trkpt lat="40.4351860" lon="-4.5522570">
        <ele>762.3</ele>
        <time>2019-08-13T15:44:33Z</time>
      </trkpt>
      <trkpt lat="40.4352270" lon="-4.5522290">
        <ele>762.6</ele>
        <time>2019-08-13T15:44:35Z</time>
      </trkpt>
      <trkpt lat="40.4352670" lon="-4.5522010">
        <ele>762.9</ele>
        <time>2019-08-13T15:44:37Z</time>
      </trkpt>
      <trkpt lat="40.4353070" lon="-4.5521740">
        <ele>763.1</ele>
        <time>2019-08-13T15:44:39Z</time>
      </trkpt>
      <trkpt lat="40.4353470" lon="-4.5521480">
        <ele>763.4</ele>
        <time>2019-08-13T15:44:41Z</time>
      </trkpt>
      <trkpt lat="40.4353870" lon="-4.5521240">
        <ele>763.6</ele>
        <time>2019-08-13T15:44:43Z</time>
      </trkpt>
      <trkpt lat="40.4354280" lon="-4.5521070">
        <ele>763.8</ele>
        <time>2019-08-13T15:44:45Z</time>
      </trkpt>
      <trkpt lat="40.4354690" lon="-4.5520930">
        <ele>764.1</ele>
        <time>2019-08-13T15:44:47Z</time>
      </trkpt>
      <trkpt lat="40.4355080" lon="-4.5520800">
        <ele>764.3</ele>
        <time>2019-08-13T15:44:49Z</time>
      </trkpt>
      <trkpt lat="40.4355500" lon="-4.5520770">
        <ele>764.5</ele>
        <time>2019-08-13T15:44:51Z</time>
      </trkpt>
      <trkpt lat="40.4355920" lon="-4.5520750">
        <ele>764.8</ele>
        <time>2019-08-13T15:44:53Z</time>
      </trkpt>
      <trkpt lat="40.4356340" lon="-4.5520790">
        <ele>764.9</ele>
        <time>2019-08-13T15:44:55Z</time>
      </trkpt>
      <trkpt lat="40.4356660" lon="-4.5520830">
        <ele>765.0</ele>
        <time>2019-08-13T15:44:57Z</time>
      </trkpt>
      <trkpt lat="40.4357050" lon="-4.5520950">
        <ele>765.1</ele>
        <time>2019-08-13T15:44:59Z</time>
      </trkpt>
      <trkpt lat="40.4357460" lon="-4.5521110">
        <ele>765.3</ele>
        <time>2019-08-13T15:45:01Z</time>
      </trkpt>
      <trkpt lat="40.4357860" lon="-4.5521310">
        <ele>765.4</ele>
        <time>2019-08-13T15:45:03Z</time>
      </trkpt>
      <trkpt lat="40.4358250" lon="-4.5521560">
        <ele>765.6</ele>
        <time>2019-08-13T15:45:05Z</time>
      </trkpt>
      <trkpt lat="40.4358650" lon="-4.5521850">
        <ele>765.7</ele>
        <time>2019-08-13T15:45:07Z</time>
      </trkpt>
      <trkpt lat="40.4359020" lon="-4.5522160">
        <ele>765.9</ele>
        <time>2019-08-13T15:45:09Z</time>
      </trkpt>
      <trkpt lat="40.4359360" lon="-4.5522510">
        <ele>766.0</ele>
        <time>2019-08-13T15:45:11Z</time>
      </trkpt>
      <trkpt lat="40.4359690" lon="-4.5522880">
        <ele>766.2</ele>
        <time>2019-08-13T15:45:13Z</time>
      </trkpt>
      <trkpt lat="40.4359990" lon="-4.5523290">
        <ele>766.3</ele>
        <time>2019-08-13T15:45:15Z</time>
      </trkpt>
      <trkpt lat="40.4360260" lon="-4.5523750">
        <ele>766.5</ele>
        <time>2019-08-13T15:45:17Z</time>
      </trkpt>
      <trkpt lat="40.4360520" lon="-4.5524260">
        <ele>766.6</ele>
        <time>2019-08-13T15:45:19Z</time>
      </trkpt>
      <trkpt lat="40.4360740" lon="-4.5524810">
        <ele>766.8</ele>
        <time>2019-08-13T15:45:21Z</time>
      </trkpt>
      <trkpt lat="40.4360940" lon="-4.5525400">
        <ele>767.0</ele>
        <time>2019-08-13T15:45:23Z</time>
      </trkpt>
      <trkpt lat="40.4361090" lon="-4.5526040">
        <ele>767.1</ele>
        <time>2019-08-13T15:45:25Z</time>
      </trkpt>
      <trkpt lat="40.4361160" lon="-4.5526390">
        <ele>767.2</ele>
        <time>2019-08-13T15:45:26Z</time>
      </trkpt>
      <trkpt lat="40.4361210" lon="-4.5526740">
        <ele>767.3</ele>
        <time>2019-08-13T15:45:27Z</time>
      </trkpt>
      <trkpt lat="40.4361240" lon="-4.5527110">
        <ele>767.4</ele>
        <time>2019-08-13T15:45:28Z</time>
      </trkpt>
      <trkpt lat="40.4361260" lon="-4.5527480">
        <ele>767.5</ele>
        <time>2019-08-13T15:45:29Z</time>
      </trkpt>
      <trkpt lat="40.4361260" lon="-4.5527870">
        <ele>767.5</ele>
        <time>2019-08-13T15:45:30Z</time>
      </trkpt>
      <trkpt lat="40.4361260" lon="-4.5528270">
        <ele>767.6</ele>
        <time>2019-08-13T15:45:31Z</time>
      </trkpt>
      <trkpt lat="40.4361230" lon="-4.5528670">
        <ele>767.7</ele>
        <time>2019-08-13T15:45:32Z</time>
      </trkpt>
      <trkpt lat="40.4361190" lon="-4.5529090">
        <ele>767.8</ele>
        <time>2019-08-13T15:45:33Z</time>
      </trkpt>
      <trkpt lat="40.4361130" lon="-4.5529510">
        <ele>767.7</ele>
        <time>2019-08-13T15:45:34Z</time>
      </trkpt>
      <trkpt lat="40.4361060" lon="-4.5529930">
        <ele>767.7</ele>
        <time>2019-08-13T15:45:35Z</time>
      </trkpt>
      <trkpt lat="40.4360970" lon="-4.5530340">
        <ele>767.7</ele>
        <time>2019-08-13T15:45:36Z</time>
      </trkpt>
      <trkpt lat="40.4360890" lon="-4.5530750">
        <ele>767.6</ele>
        <time>2019-08-13T15:45:37Z</time>
      </trkpt>
      <trkpt lat="40.4360810" lon="-4.5531140">
        <ele>767.6</ele>
        <time>2019-08-13T15:45:38Z</time>
      </trkpt>
      <trkpt lat="40.4360720" lon="-4.5531510">
        <ele>767.5</ele>
        <time>2019-08-13T15:45:39Z</time>
      </trkpt>
      <trkpt lat="40.4360630" lon="-4.5531880">
        <ele>767.5</ele>
        <time>2019-08-13T15:45:40Z</time>
      </trkpt>
      <trkpt lat="40.4360530" lon="-4.5532240">
        <ele>767.4</ele>
        <time>2019-08-13T15:45:41Z</time>
      </trkpt>
      <trkpt lat="40.4360440" lon="-4.5532590">
        <ele>767.4</ele>
        <time>2019-08-13T15:45:42Z</time>
      </trkpt>
      <trkpt lat="40.4360340" lon="-4.5532950">
        <ele>767.5</ele>
        <time>2019-08-13T15:45:43Z</time>
      </trkpt>
      <trkpt lat="40.4360260" lon="-4.5533310">
        <ele>767.6</ele>
        <time>2019-08-13T15:45:44Z</time>
      </trkpt>
      <trkpt lat="40.4360170" lon="-4.5533690">
        <ele>767.7</ele>
        <time>2019-08-13T15:45:45Z</time>
      </trkpt>
      <trkpt lat="40.4360070" lon="-4.5534070">
        <ele>767.8</ele>
        <time>2019-08-13T15:45:46Z</time>
      </trkpt>
      <trkpt lat="40.4359950" lon="-4.5534440">
        <ele>767.9</ele>
        <time>2019-08-13T15:45:47Z</time>
      </trkpt>
      <trkpt lat="40.4359830" lon="-4.5534820">
        <ele>768.0</ele>
        <time>2019-08-13T15:45:48Z</time>
      </trkpt>
      <trkpt lat="40.4359750" lon="-4.5535190">
        <ele>768.1</ele>
        <time>2019-08-13T15:45:49Z</time>
      </trkpt>
      <trkpt lat="40.4359700" lon="-4.5535570">
        <ele>768.3</ele>
        <time>2019-08-13T15:45:50Z</time>
      </trkpt>
      <trkpt lat="40.4359630" lon="-4.5535960">
        <ele>768.4</ele>
        <time>2019-08-13T15:45:51Z</time>
      </trkpt>
      <trkpt lat="40.4359550" lon="-4.5536360">
        <ele>768.5</ele>
        <time>2019-08-13T15:45:52Z</time>
      </trkpt>
      <trkpt lat="40.4359420" lon="-4.5536800">
        <ele>768.7</ele>
        <time>2019-08-13T15:45:53Z</time>
      </trkpt>
      <trkpt lat="40.4359240" lon="-4.5537270">
        <ele>768.8</ele>
        <time>2019-08-13T15:45:54Z</time>
      </trkpt>
      <trkpt lat="40.4359050" lon="-4.5537750">
        <ele>769.0</ele>
        <time>2019-08-13T15:45:55Z</time>
      </trkpt>
      <trkpt lat="40.4358890" lon="-4.5538180">
        <ele>769.2</ele>
        <time>2019-08-13T15:45:56Z</time>
      </trkpt>
      <trkpt lat="40.4358780" lon="-4.5538590">
        <ele>769.3</ele>
        <time>2019-08-13T15:45:57Z</time>
      </trkpt>
      <trkpt lat="40.4358700" lon="-4.5538980">
        <ele>769.5</ele>
        <time>2019-08-13T15:45:58Z</time>
      </trkpt>
      <trkpt lat="40.4358610" lon="-4.5539360">
        <ele>769.6</ele>
        <time>2019-08-13T15:45:59Z</time>
      </trkpt>
      <trkpt lat="40.4358520" lon="-4.5539720">
        <ele>769.7</ele>
        <time>2019-08-13T15:46:00Z</time>
      </trkpt>
      <trkpt lat="40.4358440" lon="-4.5540080">
        <ele>769.9</ele>
        <time>2019-08-13T15:46:01Z</time>
      </trkpt>
      <trkpt lat="40.4358280" lon="-4.5540680">
        <ele>770.1</ele>
        <time>2019-08-13T15:46:03Z</time>
      </trkpt>
      <trkpt lat="40.4358240" lon="-4.5541230">
        <ele>770.3</ele>
        <time>2019-08-13T15:46:05Z</time>
      </trkpt>
      <trkpt lat="40.4358220" lon="-4.5541750">
        <ele>770.5</ele>
        <time>2019-08-13T15:46:07Z</time>
      </trkpt>
      <trkpt lat="40.4358210" lon="-4.5542280">
        <ele>770.7</ele>
        <time>2019-08-13T15:46:09Z</time>
      </trkpt>
      <trkpt lat="40.4358260" lon="-4.5542780">
        <ele>770.9</ele>
        <time>2019-08-13T15:46:11Z</time>
      </trkpt>
      <trkpt lat="40.4358270" lon="-4.5543010">
        <ele>771.0</ele>
        <time>2019-08-13T15:46:20Z</time>
      </trkpt>
      <trkpt lat="40.4358250" lon="-4.5542850">
        <ele>771.0</ele>
        <time>2019-08-13T15:46:42Z</time>
      </trkpt>
      <trkpt lat="40.4358350" lon="-4.5542260">
        <ele>771.2</ele>
        <time>2019-08-13T16:03:49Z</time>
      </trkpt>
      <trkpt lat="40.4358110" lon="-4.5542290">
        <ele>771.3</ele>
        <time>2019-08-13T16:03:56Z</time>
      </trkpt>
      <trkpt lat="40.4358350" lon="-4.5543500">
        <ele>771.6</ele>
        <time>2019-08-13T16:04:58Z</time>
      </trkpt>
      <trkpt lat="40.4358360" lon="-4.5543900">
        <ele>771.7</ele>
        <time>2019-08-13T16:05:00Z</time>
      </trkpt>
      <trkpt lat="40.4358440" lon="-4.5544260">
        <ele>771.8</ele>
        <time>2019-08-13T16:05:02Z</time>
      </trkpt>
      <trkpt lat="40.4358550" lon="-4.5544790">
        <ele>771.9</ele>
        <time>2019-08-13T16:05:04Z</time>
      </trkpt>
      <trkpt lat="40.4358690" lon="-4.5545370">
        <ele>772.1</ele>
        <time>2019-08-13T16:05:06Z</time>
      </trkpt>
      <trkpt lat="40.4358810" lon="-4.5545960">
        <ele>772.2</ele>
        <time>2019-08-13T16:05:08Z</time>
      </trkpt>
      <trkpt lat="40.4359010" lon="-4.5546450">
        <ele>772.3</ele>
        <time>2019-08-13T16:05:10Z</time>
      </trkpt>
      <trkpt lat="40.4359290" lon="-4.5546740">
        <ele>772.3</ele>
        <time>2019-08-13T16:05:12Z</time>
      </trkpt>
      <trkpt lat="40.4359560" lon="-4.5547020">
        <ele>772.3</ele>
        <time>2019-08-13T16:05:15Z</time>
      </trkpt>
      <trkpt lat="40.4359790" lon="-4.5547200">
        <ele>772.3</ele>
        <time>2019-08-13T16:05:19Z</time>
      </trkpt>
      <trkpt lat="40.4360040" lon="-4.5547140">
        <ele>772.2</ele>
        <time>2019-08-13T16:05:25Z</time>
      </trkpt>
      <trkpt lat="40.4360810" lon="-4.5547110">
        <ele>772.2</ele>
        <time>2019-08-13T16:05:45Z</time>
      </trkpt>
      <trkpt lat="40.4361100" lon="-4.5547320">
        <ele>772.1</ele>
        <time>2019-08-13T16:05:46Z</time>
      </trkpt>
      <trkpt lat="40.4361320" lon="-4.5547610">
        <ele>772.1</ele>
        <time>2019-08-13T16:05:47Z</time>
      </trkpt>
      <trkpt lat="40.4361500" lon="-4.5547940">
        <ele>772.1</ele>
        <time>2019-08-13T16:05:48Z</time>
      </trkpt>
      <trkpt lat="40.4361650" lon="-4.5548250">
        <ele>772.0</ele>
        <time>2019-08-13T16:05:49Z</time>
      </trkpt>
      <trkpt lat="40.4361790" lon="-4.5548580">
        <ele>772.0</ele>
        <time>2019-08-13T16:05:50Z</time>
      </trkpt>
      <trkpt lat="40.4361920" lon="-4.5548930">
        <ele>772.0</ele>
        <time>2019-08-13T16:05:51Z</time>
      </trkpt>
      <trkpt lat="40.4362020" lon="-4.5549310">
        <ele>772.0</ele>
        <time>2019-08-13T16:05:52Z</time>
      </trkpt>
      <trkpt lat="40.4362110" lon="-4.5549700">
        <ele>771.9</ele>
        <time>2019-08-13T16:05:53Z</time>
      </trkpt>
      <trkpt lat="40.4362190" lon="-4.5550100">
        <ele>771.9</ele>
        <time>2019-08-13T16:05:54Z</time>
      </trkpt>
      <trkpt lat="40.4362260" lon="-4.5550520">
        <ele>771.9</ele>
        <time>2019-08-13T16:05:55Z</time>
      </trkpt>
      <trkpt lat="40.4362330" lon="-4.5550930">
        <ele>771.9</ele>
        <time>2019-08-13T16:05:56Z</time>
      </trkpt>
      <trkpt lat="40.4362410" lon="-4.5551340">
        <ele>772.0</ele>
        <time>2019-08-13T16:05:57Z</time>
      </trkpt>
      <trkpt lat="40.4362510" lon="-4.5551750">
        <ele>772.0</ele>
        <time>2019-08-13T16:05:58Z</time>
      </trkpt>
      <trkpt lat="40.4362650" lon="-4.5552150">
        <ele>772.0</ele>
        <time>2019-08-13T16:05:59Z</time>
      </trkpt>
      <trkpt lat="40.4362790" lon="-4.5552560">
        <ele>772.0</ele>
        <time>2019-08-13T16:06:00Z</time>
      </trkpt>
      <trkpt lat="40.4362950" lon="-4.5552990">
        <ele>772.0</ele>
        <time>2019-08-13T16:06:01Z</time>
      </trkpt>
      <trkpt lat="40.4363130" lon="-4.5553440">
        <ele>772.0</ele>
        <time>2019-08-13T16:06:02Z</time>
      </trkpt>
      <trkpt lat="40.4363330" lon="-4.5553890">
        <ele>772.0</ele>
        <time>2019-08-13T16:06:03Z</time>
      </trkpt>
      <trkpt lat="40.4363530" lon="-4.5554340">
        <ele>772.0</ele>
        <time>2019-08-13T16:06:04Z</time>
      </trkpt>
      <trkpt lat="40.4363750" lon="-4.5554790">
        <ele>772.0</ele>
        <time>2019-08-13T16:06:05Z</time>
      </trkpt>
      <trkpt lat="40.4363980" lon="-4.5555220">
        <ele>772.0</ele>
        <time>2019-08-13T16:06:06Z</time>
      </trkpt>
      <trkpt lat="40.4364230" lon="-4.5555650">
        <ele>771.9</ele>
        <time>2019-08-13T16:06:07Z</time>
      </trkpt>
      <trkpt lat="40.4364510" lon="-4.5556100">
        <ele>771.9</ele>
        <time>2019-08-13T16:06:08Z</time>
      </trkpt>
      <trkpt lat="40.4364790" lon="-4.5556550">
        <ele>771.9</ele>
        <time>2019-08-13T16:06:09Z</time>
      </trkpt>
      <trkpt lat="40.4365100" lon="-4.5556970">
        <ele>771.9</ele>
        <time>2019-08-13T16:06:10Z</time>
      </trkpt>
      <trkpt lat="40.4365420" lon="-4.5557390">
        <ele>771.9</ele>
        <time>2019-08-13T16:06:11Z</time>
      </trkpt>
      <trkpt lat="40.4365730" lon="-4.5557800">
        <ele>771.9</ele>
        <time>2019-08-13T16:06:12Z</time>
      </trkpt>
      <trkpt lat="40.4366070" lon="-4.5558180">
        <ele>771.9</ele>
        <time>2019-08-13T16:06:13Z</time>
      </trkpt>
      <trkpt lat="40.4366420" lon="-4.5558550">
        <ele>771.9</ele>
        <time>2019-08-13T16:06:14Z</time>
      </trkpt>
      <trkpt lat="40.4366780" lon="-4.5558890">
        <ele>771.9</ele>
        <time>2019-08-13T16:06:15Z</time>
      </trkpt>
      <trkpt lat="40.4367140" lon="-4.5559250">
        <ele>771.9</ele>
        <time>2019-08-13T16:06:16Z</time>
      </trkpt>
      <trkpt lat="40.4367510" lon="-4.5559600">
        <ele>771.9</ele>
        <time>2019-08-13T16:06:17Z</time>
      </trkpt>
      <trkpt lat="40.4367890" lon="-4.5559980">
        <ele>771.8</ele>
        <time>2019-08-13T16:06:18Z</time>
      </trkpt>
      <trkpt lat="40.4368290" lon="-4.5560380">
        <ele>771.8</ele>
        <time>2019-08-13T16:06:19Z</time>
      </trkpt>
      <trkpt lat="40.4368690" lon="-4.5560770">
        <ele>771.8</ele>
        <time>2019-08-13T16:06:20Z</time>
      </trkpt>
      <trkpt lat="40.4369080" lon="-4.5561180">
        <ele>771.8</ele>
        <time>2019-08-13T16:06:21Z</time>
      </trkpt>
      <trkpt lat="40.4369440" lon="-4.5561600">
        <ele>771.8</ele>
        <time>2019-08-13T16:06:22Z</time>
      </trkpt>
      <trkpt lat="40.4369810" lon="-4.5562030">
        <ele>771.8</ele>
        <time>2019-08-13T16:06:23Z</time>
      </trkpt>
      <trkpt lat="40.4370150" lon="-4.5562470">
        <ele>771.8</ele>
        <time>2019-08-13T16:06:24Z</time>
      </trkpt>
      <trkpt lat="40.4370490" lon="-4.5562920">
        <ele>771.8</ele>
        <time>2019-08-13T16:06:25Z</time>
      </trkpt>
      <trkpt lat="40.4370800" lon="-4.5563420">
        <ele>771.8</ele>
        <time>2019-08-13T16:06:26Z</time>
      </trkpt>
      <trkpt lat="40.4371090" lon="-4.5563980">
        <ele>771.8</ele>
        <time>2019-08-13T16:06:27Z</time>
      </trkpt>
      <trkpt lat="40.4371350" lon="-4.5564600">
        <ele>771.8</ele>
        <time>2019-08-13T16:06:28Z</time>
      </trkpt>
      <trkpt lat="40.4371580" lon="-4.5565280">
        <ele>771.8</ele>
        <time>2019-08-13T16:06:29Z</time>
      </trkpt>
      <trkpt lat="40.4371770" lon="-4.5565980">
        <ele>771.8</ele>
        <time>2019-08-13T16:06:30Z</time>
      </trkpt>
      <trkpt lat="40.4371950" lon="-4.5566700">
        <ele>771.8</ele>
        <time>2019-08-13T16:06:31Z</time>
      </trkpt>
      <trkpt lat="40.4372110" lon="-4.5567480">
        <ele>771.7</ele>
        <time>2019-08-13T16:06:32Z</time>
      </trkpt>
      <trkpt lat="40.4372200" lon="-4.5568300">
        <ele>771.7</ele>
        <time>2019-08-13T16:06:33Z</time>
      </trkpt>
      <trkpt lat="40.4372240" lon="-4.5569190">
        <ele>771.6</ele>
        <time>2019-08-13T16:06:34Z</time>
      </trkpt>
      <trkpt lat="40.4372180" lon="-4.5570100">
        <ele>771.4</ele>
        <time>2019-08-13T16:06:35Z</time>
      </trkpt>
      <trkpt lat="40.4372070" lon="-4.5571040">
        <ele>771.3</ele>
        <time>2019-08-13T16:06:36Z</time>
      </trkpt>
      <trkpt lat="40.4371930" lon="-4.5572010">
        <ele>771.1</ele>
        <time>2019-08-13T16:06:37Z</time>
      </trkpt>
      <trkpt lat="40.4371770" lon="-4.5573020">
        <ele>770.9</ele>
        <time>2019-08-13T16:06:38Z</time>
      </trkpt>
      <trkpt lat="40.4371620" lon="-4.5574040">
        <ele>770.6</ele>
        <time>2019-08-13T16:06:39Z</time>
      </trkpt>
      <trkpt lat="40.4371460" lon="-4.5575080">
        <ele>770.4</ele>
        <time>2019-08-13T16:06:40Z</time>
      </trkpt>
      <trkpt lat="40.4371300" lon="-4.5576120">
        <ele>770.1</ele>
        <time>2019-08-13T16:06:41Z</time>
      </trkpt>
      <trkpt lat="40.4371150" lon="-4.5577160">
        <ele>769.8</ele>
        <time>2019-08-13T16:06:42Z</time>
      </trkpt>
      <trkpt lat="40.4371030" lon="-4.5578200">
        <ele>769.4</ele>
        <time>2019-08-13T16:06:43Z</time>
      </trkpt>
      <trkpt lat="40.4370920" lon="-4.5579220">
        <ele>769.1</ele>
        <time>2019-08-13T16:06:44Z</time>
      </trkpt>
      <trkpt lat="40.4370830" lon="-4.5580220">
        <ele>768.8</ele>
        <time>2019-08-13T16:06:45Z</time>
      </trkpt>
      <trkpt lat="40.4370770" lon="-4.5581210">
        <ele>768.5</ele>
        <time>2019-08-13T16:06:46Z</time>
      </trkpt>
      <trkpt lat="40.4370730" lon="-4.5582210">
        <ele>768.1</ele>
        <time>2019-08-13T16:06:47Z</time>
      </trkpt>
      <trkpt lat="40.4370730" lon="-4.5583170">
        <ele>767.6</ele>
        <time>2019-08-13T16:06:48Z</time>
      </trkpt>
      <trkpt lat="40.4370750" lon="-4.5584120">
        <ele>767.1</ele>
        <time>2019-08-13T16:06:49Z</time>
      </trkpt>
      <trkpt lat="40.4370770" lon="-4.5585060">
        <ele>766.6</ele>
        <time>2019-08-13T16:06:50Z</time>
      </trkpt>
      <trkpt lat="40.4370790" lon="-4.5585980">
        <ele>766.1</ele>
        <time>2019-08-13T16:06:51Z</time>
      </trkpt>
      <trkpt lat="40.4370810" lon="-4.5586900">
        <ele>765.5</ele>
        <time>2019-08-13T16:06:52Z</time>
      </trkpt>
      <trkpt lat="40.4370830" lon="-4.5587840">
        <ele>765.0</ele>
        <time>2019-08-13T16:06:53Z</time>
      </trkpt>
      <trkpt lat="40.4370860" lon="-4.5588780">
        <ele>764.4</ele>
        <time>2019-08-13T16:06:54Z</time>
      </trkpt>
      <trkpt lat="40.4370870" lon="-4.5589740">
        <ele>763.9</ele>
        <time>2019-08-13T16:06:55Z</time>
      </trkpt>
      <trkpt lat="40.4370890" lon="-4.5590710">
        <ele>763.4</ele>
        <time>2019-08-13T16:06:56Z</time>
      </trkpt>
      <trkpt lat="40.4370900" lon="-4.5591710">
        <ele>762.9</ele>
        <time>2019-08-13T16:06:57Z</time>
      </trkpt>
      <trkpt lat="40.4370900" lon="-4.5592750">
        <ele>762.4</ele>
        <time>2019-08-13T16:06:58Z</time>
      </trkpt>
      <trkpt lat="40.4370890" lon="-4.5593840">
        <ele>761.9</ele>
        <time>2019-08-13T16:06:59Z</time>
      </trkpt>
      <trkpt lat="40.4370860" lon="-4.5594960">
        <ele>761.3</ele>
        <time>2019-08-13T16:07:00Z</time>
      </trkpt>
      <trkpt lat="40.4370820" lon="-4.5596120">
        <ele>760.8</ele>
        <time>2019-08-13T16:07:01Z</time>
      </trkpt>
      <trkpt lat="40.4370740" lon="-4.5597330">
        <ele>760.2</ele>
        <time>2019-08-13T16:07:02Z</time>
      </trkpt>
      <trkpt lat="40.4370660" lon="-4.5598550">
        <ele>759.5</ele>
        <time>2019-08-13T16:07:03Z</time>
      </trkpt>
      <trkpt lat="40.4370560" lon="-4.5599780">
        <ele>758.7</ele>
        <time>2019-08-13T16:07:04Z</time>
      </trkpt>
      <trkpt lat="40.4370440" lon="-4.5601030">
        <ele>757.8</ele>
        <time>2019-08-13T16:07:05Z</time>
      </trkpt>
      <trkpt lat="40.4370310" lon="-4.5602250">
        <ele>757.0</ele>
        <time>2019-08-13T16:07:06Z</time>
      </trkpt>
      <trkpt lat="40.4370190" lon="-4.5603430">
        <ele>756.3</ele>
        <time>2019-08-13T16:07:07Z</time>
      </trkpt>
      <trkpt lat="40.4370080" lon="-4.5604590">
        <ele>755.6</ele>
        <time>2019-08-13T16:07:08Z</time>
      </trkpt>
      <trkpt lat="40.4370050" lon="-4.5605710">
        <ele>755.1</ele>
        <time>2019-08-13T16:07:09Z</time>
      </trkpt>
      <trkpt lat="40.4370110" lon="-4.5606790">
        <ele>754.7</ele>
        <time>2019-08-13T16:07:10Z</time>
      </trkpt>
      <trkpt lat="40.4370300" lon="-4.5607830">
        <ele>754.4</ele>
        <time>2019-08-13T16:07:11Z</time>
      </trkpt>
      <trkpt lat="40.4370620" lon="-4.5608830">
        <ele>754.2</ele>
        <time>2019-08-13T16:07:12Z</time>
      </trkpt>
      <trkpt lat="40.4371090" lon="-4.5609730">
        <ele>754.0</ele>
        <time>2019-08-13T16:07:13Z</time>
      </trkpt>
      <trkpt lat="40.4371670" lon="-4.5610530">
        <ele>753.9</ele>
        <time>2019-08-13T16:07:14Z</time>
      </trkpt>
      <trkpt lat="40.4372360" lon="-4.5611200">
        <ele>753.8</ele>
        <time>2019-08-13T16:07:15Z</time>
      </trkpt>
      <trkpt lat="40.4373110" lon="-4.5611730">
        <ele>753.8</ele>
        <time>2019-08-13T16:07:16Z</time>
      </trkpt>
      <trkpt lat="40.4373930" lon="-4.5612050">
        <ele>753.7</ele>
        <time>2019-08-13T16:07:17Z</time>
      </trkpt>
      <trkpt lat="40.4374800" lon="-4.5612150">
        <ele>753.6</ele>
        <time>2019-08-13T16:07:18Z</time>
      </trkpt>
      <trkpt lat="40.4375670" lon="-4.5612070">
        <ele>753.6</ele>
        <time>2019-08-13T16:07:19Z</time>
      </trkpt>
      <trkpt lat="40.4376500" lon="-4.5611820">
        <ele>753.6</ele>
        <time>2019-08-13T16:07:20Z</time>
      </trkpt>
      <trkpt lat="40.4377280" lon="-4.5611500">
        <ele>753.7</ele>
        <time>2019-08-13T16:07:21Z</time>
      </trkpt>
      <trkpt lat="40.4378020" lon="-4.5611140">
        <ele>753.7</ele>
        <time>2019-08-13T16:07:22Z</time>
      </trkpt>
      <trkpt lat="40.4378740" lon="-4.5610760">
        <ele>753.8</ele>
        <time>2019-08-13T16:07:23Z</time>
      </trkpt>
      <trkpt lat="40.4379430" lon="-4.5610350">
        <ele>753.9</ele>
        <time>2019-08-13T16:07:24Z</time>
      </trkpt>
      <trkpt lat="40.4380090" lon="-4.5609930">
        <ele>754.1</ele>
        <time>2019-08-13T16:07:25Z</time>
      </trkpt>
      <trkpt lat="40.4380720" lon="-4.5609500">
        <ele>754.2</ele>
        <time>2019-08-13T16:07:26Z</time>
      </trkpt>
      <trkpt lat="40.4381320" lon="-4.5609040">
        <ele>754.4</ele>
        <time>2019-08-13T16:07:27Z</time>
      </trkpt>
      <trkpt lat="40.4381910" lon="-4.5608540">
        <ele>754.6</ele>
        <time>2019-08-13T16:07:28Z</time>
      </trkpt>
      <trkpt lat="40.4382450" lon="-4.5608000">
        <ele>754.8</ele>
        <time>2019-08-13T16:07:29Z</time>
      </trkpt>
      <trkpt lat="40.4382910" lon="-4.5607390">
        <ele>754.9</ele>
        <time>2019-08-13T16:07:30Z</time>
      </trkpt>
      <trkpt lat="40.4383310" lon="-4.5606720">
        <ele>755.1</ele>
        <time>2019-08-13T16:07:31Z</time>
      </trkpt>
      <trkpt lat="40.4383670" lon="-4.5606050">
        <ele>755.2</ele>
        <time>2019-08-13T16:07:32Z</time>
      </trkpt>
      <trkpt lat="40.4383990" lon="-4.5605380">
        <ele>755.3</ele>
        <time>2019-08-13T16:07:33Z</time>
      </trkpt>
      <trkpt lat="40.4384280" lon="-4.5604730">
        <ele>755.4</ele>
        <time>2019-08-13T16:07:34Z</time>
      </trkpt>
      <trkpt lat="40.4384520" lon="-4.5604100">
        <ele>755.5</ele>
        <time>2019-08-13T16:07:35Z</time>
      </trkpt>
      <trkpt lat="40.4384740" lon="-4.5603490">
        <ele>755.6</ele>
        <time>2019-08-13T16:07:36Z</time>
      </trkpt>
      <trkpt lat="40.4384960" lon="-4.5602890">
        <ele>755.7</ele>
        <time>2019-08-13T16:07:37Z</time>
      </trkpt>
      <trkpt lat="40.4385170" lon="-4.5602300">
        <ele>755.7</ele>
        <time>2019-08-13T16:07:38Z</time>
      </trkpt>
      <trkpt lat="40.4385370" lon="-4.5601750">
        <ele>755.7</ele>
        <time>2019-08-13T16:07:39Z</time>
      </trkpt>
      <trkpt lat="40.4385560" lon="-4.5601230">
        <ele>755.8</ele>
        <time>2019-08-13T16:07:40Z</time>
      </trkpt>
      <trkpt lat="40.4385750" lon="-4.5600720">
        <ele>755.8</ele>
        <time>2019-08-13T16:07:41Z</time>
      </trkpt>
      <trkpt lat="40.4385930" lon="-4.5600210">
        <ele>755.8</ele>
        <time>2019-08-13T16:07:42Z</time>
      </trkpt>
      <trkpt lat="40.4386120" lon="-4.5599690">
        <ele>755.8</ele>
        <time>2019-08-13T16:07:43Z</time>
      </trkpt>
      <trkpt lat="40.4386300" lon="-4.5599180">
        <ele>755.8</ele>
        <time>2019-08-13T16:07:44Z</time>
      </trkpt>
      <trkpt lat="40.4386490" lon="-4.5598680">
        <ele>755.8</ele>
        <time>2019-08-13T16:07:45Z</time>
      </trkpt>
      <trkpt lat="40.4386680" lon="-4.5598210">
        <ele>755.8</ele>
        <time>2019-08-13T16:07:46Z</time>
      </trkpt>
      <trkpt lat="40.4386870" lon="-4.5597720">
        <ele>755.7</ele>
        <time>2019-08-13T16:07:47Z</time>
      </trkpt>
      <trkpt lat="40.4387050" lon="-4.5597260">
        <ele>755.7</ele>
        <time>2019-08-13T16:07:48Z</time>
      </trkpt>
      <trkpt lat="40.4387260" lon="-4.5596810">
        <ele>755.7</ele>
        <time>2019-08-13T16:07:49Z</time>
      </trkpt>
      <trkpt lat="40.4387460" lon="-4.5596370">
        <ele>755.6</ele>
        <time>2019-08-13T16:07:50Z</time>
      </trkpt>
      <trkpt lat="40.4387660" lon="-4.5595930">
        <ele>755.6</ele>
        <time>2019-08-13T16:07:51Z</time>
      </trkpt>
      <trkpt lat="40.4387880" lon="-4.5595480">
        <ele>755.6</ele>
        <time>2019-08-13T16:07:52Z</time>
      </trkpt>
      <trkpt lat="40.4388110" lon="-4.5595050">
        <ele>755.5</ele>
        <time>2019-08-13T16:07:53Z</time>
      </trkpt>
      <trkpt lat="40.4388350" lon="-4.5594630">
        <ele>755.5</ele>
        <time>2019-08-13T16:07:54Z</time>
      </trkpt>
      <trkpt lat="40.4388610" lon="-4.5594230">
        <ele>755.5</ele>
        <time>2019-08-13T16:07:55Z</time>
      </trkpt>
      <trkpt lat="40.4388880" lon="-4.5593830">
        <ele>755.4</ele>
        <time>2019-08-13T16:07:56Z</time>
      </trkpt>
      <trkpt lat="40.4389150" lon="-4.5593480">
        <ele>755.4</ele>
        <time>2019-08-13T16:07:57Z</time>
      </trkpt>
      <trkpt lat="40.4389450" lon="-4.5593160">
        <ele>755.4</ele>
        <time>2019-08-13T16:07:58Z</time>
      </trkpt>
      <trkpt lat="40.4389740" lon="-4.5592850">
        <ele>755.3</ele>
        <time>2019-08-13T16:07:59Z</time>
      </trkpt>
      <trkpt lat="40.4390050" lon="-4.5592540">
        <ele>755.3</ele>
        <time>2019-08-13T16:08:00Z</time>
      </trkpt>
      <trkpt lat="40.4390380" lon="-4.5592260">
        <ele>755.2</ele>
        <time>2019-08-13T16:08:01Z</time>
      </trkpt>
      <trkpt lat="40.4390730" lon="-4.5592030">
        <ele>755.2</ele>
        <time>2019-08-13T16:08:02Z</time>
      </trkpt>
      <trkpt lat="40.4391110" lon="-4.5591840">
        <ele>755.1</ele>
        <time>2019-08-13T16:08:03Z</time>
      </trkpt>
      <trkpt lat="40.4391500" lon="-4.5591680">
        <ele>755.0</ele>
        <time>2019-08-13T16:08:04Z</time>
      </trkpt>
      <trkpt lat="40.4391910" lon="-4.5591560">
        <ele>754.9</ele>
        <time>2019-08-13T16:08:05Z</time>
      </trkpt>
      <trkpt lat="40.4392350" lon="-4.5591490">
        <ele>754.9</ele>
        <time>2019-08-13T16:08:06Z</time>
      </trkpt>
      <trkpt lat="40.4392800" lon="-4.5591490">
        <ele>754.8</ele>
        <time>2019-08-13T16:08:07Z</time>
      </trkpt>
      <trkpt lat="40.4393260" lon="-4.5591560">
        <ele>754.7</ele>
        <time>2019-08-13T16:08:08Z</time>
      </trkpt>
      <trkpt lat="40.4393730" lon="-4.5591660">
        <ele>754.5</ele>
        <time>2019-08-13T16:08:09Z</time>
      </trkpt>
      <trkpt lat="40.4394180" lon="-4.5591820">
        <ele>754.4</ele>
        <time>2019-08-13T16:08:10Z</time>
      </trkpt>
      <trkpt lat="40.4394630" lon="-4.5592030">
        <ele>754.3</ele>
        <time>2019-08-13T16:08:11Z</time>
      </trkpt>
      <trkpt lat="40.4395030" lon="-4.5592280">
        <ele>754.2</ele>
        <time>2019-08-13T16:08:12Z</time>
      </trkpt>
      <trkpt lat="40.4395420" lon="-4.5592590">
        <ele>754.0</ele>
        <time>2019-08-13T16:08:13Z</time>
      </trkpt>
      <trkpt lat="40.4395800" lon="-4.5592930">
        <ele>753.9</ele>
        <time>2019-08-13T16:08:14Z</time>
      </trkpt>
      <trkpt lat="40.4396170" lon="-4.5593340">
        <ele>753.8</ele>
        <time>2019-08-13T16:08:15Z</time>
      </trkpt>
      <trkpt lat="40.4396510" lon="-4.5593810">
        <ele>753.6</ele>
        <time>2019-08-13T16:08:16Z</time>
      </trkpt>
      <trkpt lat="40.4396800" lon="-4.5594330">
        <ele>753.5</ele>
        <time>2019-08-13T16:08:17Z</time>
      </trkpt>
      <trkpt lat="40.4397070" lon="-4.5594930">
        <ele>753.3</ele>
        <time>2019-08-13T16:08:18Z</time>
      </trkpt>
      <trkpt lat="40.4397330" lon="-4.5595570">
        <ele>753.1</ele>
        <time>2019-08-13T16:08:19Z</time>
      </trkpt>
      <trkpt lat="40.4397570" lon="-4.5596240">
        <ele>752.9</ele>
        <time>2019-08-13T16:08:20Z</time>
      </trkpt>
      <trkpt lat="40.4397810" lon="-4.5596940">
        <ele>752.7</ele>
        <time>2019-08-13T16:08:21Z</time>
      </trkpt>
      <trkpt lat="40.4398050" lon="-4.5597690">
        <ele>752.4</ele>
        <time>2019-08-13T16:08:22Z</time>
      </trkpt>
      <trkpt lat="40.4398340" lon="-4.5598420">
        <ele>752.2</ele>
        <time>2019-08-13T16:08:23Z</time>
      </trkpt>
      <trkpt lat="40.4398650" lon="-4.5599170">
        <ele>752.0</ele>
        <time>2019-08-13T16:08:24Z</time>
      </trkpt>
      <trkpt lat="40.4399000" lon="-4.5599890">
        <ele>751.7</ele>
        <time>2019-08-13T16:08:25Z</time>
      </trkpt>
      <trkpt lat="40.4399370" lon="-4.5600580">
        <ele>751.5</ele>
        <time>2019-08-13T16:08:26Z</time>
      </trkpt>
      <trkpt lat="40.4399770" lon="-4.5601220">
        <ele>751.2</ele>
        <time>2019-08-13T16:08:27Z</time>
      </trkpt>
      <trkpt lat="40.4400210" lon="-4.5601820">
        <ele>750.9</ele>
        <time>2019-08-13T16:08:28Z</time>
      </trkpt>
      <trkpt lat="40.4400660" lon="-4.5602360">
        <ele>750.6</ele>
        <time>2019-08-13T16:08:29Z</time>
      </trkpt>
      <trkpt lat="40.4401130" lon="-4.5602860">
        <ele>750.3</ele>
        <time>2019-08-13T16:08:30Z</time>
      </trkpt>
      <trkpt lat="40.4401610" lon="-4.5603330">
        <ele>750.0</ele>
        <time>2019-08-13T16:08:31Z</time>
      </trkpt>
      <trkpt lat="40.4402110" lon="-4.5603780">
        <ele>749.7</ele>
        <time>2019-08-13T16:08:32Z</time>
      </trkpt>
      <trkpt lat="40.4402640" lon="-4.5604180">
        <ele>749.4</ele>
        <time>2019-08-13T16:08:33Z</time>
      </trkpt>
      <trkpt lat="40.4403180" lon="-4.5604560">
        <ele>749.1</ele>
        <time>2019-08-13T16:08:34Z</time>
      </trkpt>
      <trkpt lat="40.4403720" lon="-4.5604910">
        <ele>748.8</ele>
        <time>2019-08-13T16:08:35Z</time>
      </trkpt>
      <trkpt lat="40.4404250" lon="-4.5605270">
        <ele>748.6</ele>
        <time>2019-08-13T16:08:36Z</time>
      </trkpt>
      <trkpt lat="40.4404790" lon="-4.5605620">
        <ele>748.3</ele>
        <time>2019-08-13T16:08:37Z</time>
      </trkpt>
      <trkpt lat="40.4405350" lon="-4.5605990">
        <ele>748.1</ele>
        <time>2019-08-13T16:08:38Z</time>
      </trkpt>
      <trkpt lat="40.4405910" lon="-4.5606350">
        <ele>747.8</ele>
        <time>2019-08-13T16:08:39Z</time>
      </trkpt>
      <trkpt lat="40.4406480" lon="-4.5606720">
        <ele>747.4</ele>
        <time>2019-08-13T16:08:40Z</time>
      </trkpt>
      <trkpt lat="40.4407050" lon="-4.5607080">
        <ele>747.0</ele>
        <time>2019-08-13T16:08:41Z</time>
      </trkpt>
      <trkpt lat="40.4407610" lon="-4.5607450">
        <ele>746.6</ele>
        <time>2019-08-13T16:08:42Z</time>
      </trkpt>
      <trkpt lat="40.4408180" lon="-4.5607810">
        <ele>746.1</ele>
        <time>2019-08-13T16:08:43Z</time>
      </trkpt>
      <trkpt lat="40.4408770" lon="-4.5608170">
        <ele>745.6</ele>
        <time>2019-08-13T16:08:44Z</time>
      </trkpt>
      <trkpt lat="40.4409340" lon="-4.5608540">
        <ele>745.1</ele>
        <time>2019-08-13T16:08:45Z</time>
      </trkpt>
      <trkpt lat="40.4409910" lon="-4.5608910">
        <ele>744.6</ele>
        <time>2019-08-13T16:08:46Z</time>
      </trkpt>
      <trkpt lat="40.4410490" lon="-4.5609280">
        <ele>744.1</ele>
        <time>2019-08-13T16:08:47Z</time>
      </trkpt>
      <trkpt lat="40.4411090" lon="-4.5609650">
        <ele>743.5</ele>
        <time>2019-08-13T16:08:48Z</time>
      </trkpt>
      <trkpt lat="40.4411710" lon="-4.5610010">
        <ele>742.9</ele>
        <time>2019-08-13T16:08:49Z</time>
      </trkpt>
      <trkpt lat="40.4412350" lon="-4.5610400">
        <ele>742.4</ele>
        <time>2019-08-13T16:08:50Z</time>
      </trkpt>
      <trkpt lat="40.4413010" lon="-4.5610780">
        <ele>741.7</ele>
        <time>2019-08-13T16:08:51Z</time>
      </trkpt>
      <trkpt lat="40.4413690" lon="-4.5611180">
        <ele>741.0</ele>
        <time>2019-08-13T16:08:52Z</time>
      </trkpt>
      <trkpt lat="40.4414370" lon="-4.5611570">
        <ele>740.4</ele>
        <time>2019-08-13T16:08:53Z</time>
      </trkpt>
      <trkpt lat="40.4415070" lon="-4.5611990">
        <ele>739.7</ele>
        <time>2019-08-13T16:08:54Z</time>
      </trkpt>
      <trkpt lat="40.4415780" lon="-4.5612410">
        <ele>739.0</ele>
        <time>2019-08-13T16:08:55Z</time>
      </trkpt>
      <trkpt lat="40.4416510" lon="-4.5612850">
        <ele>738.4</ele>
        <time>2019-08-13T16:08:56Z</time>
      </trkpt>
      <trkpt lat="40.4417230" lon="-4.5613300">
        <ele>737.7</ele>
        <time>2019-08-13T16:08:57Z</time>
      </trkpt>
      <trkpt lat="40.4417940" lon="-4.5613760">
        <ele>736.9</ele>
        <time>2019-08-13T16:08:58Z</time>
      </trkpt>
      <trkpt lat="40.4418640" lon="-4.5614220">
        <ele>736.1</ele>
        <time>2019-08-13T16:08:59Z</time>
      </trkpt>
      <trkpt lat="40.4419330" lon="-4.5614700">
        <ele>735.6</ele>
        <time>2019-08-13T16:09:00Z</time>
      </trkpt>
      <trkpt lat="40.4420020" lon="-4.5615190">
        <ele>735.4</ele>
        <time>2019-08-13T16:09:01Z</time>
      </trkpt>
      <trkpt lat="40.4420690" lon="-4.5615710">
        <ele>735.2</ele>
        <time>2019-08-13T16:09:02Z</time>
      </trkpt>
      <trkpt lat="40.4421350" lon="-4.5616260">
        <ele>735.0</ele>
        <time>2019-08-13T16:09:03Z</time>
      </trkpt>
      <trkpt lat="40.4421980" lon="-4.5616830">
        <ele>734.5</ele>
        <time>2019-08-13T16:09:04Z</time>
      </trkpt>
      <trkpt lat="40.4422560" lon="-4.5617450">
        <ele>734.0</ele>
        <time>2019-08-13T16:09:05Z</time>
      </trkpt>
      <trkpt lat="40.4423100" lon="-4.5618160">
        <ele>733.5</ele>
        <time>2019-08-13T16:09:06Z</time>
      </trkpt>
      <trkpt lat="40.4423570" lon="-4.5618980">
        <ele>733.0</ele>
        <time>2019-08-13T16:09:07Z</time>
      </trkpt>
      <trkpt lat="40.4423970" lon="-4.5619840">
        <ele>732.5</ele>
        <time>2019-08-13T16:09:08Z</time>
      </trkpt>
      <trkpt lat="40.4424270" lon="-4.5620720">
        <ele>732.0</ele>
        <time>2019-08-13T16:09:09Z</time>
      </trkpt>
      <trkpt lat="40.4424520" lon="-4.5621560">
        <ele>731.4</ele>
        <time>2019-08-13T16:09:10Z</time>
      </trkpt>
      <trkpt lat="40.4424740" lon="-4.5622410">
        <ele>730.7</ele>
        <time>2019-08-13T16:09:11Z</time>
      </trkpt>
      <trkpt lat="40.4424920" lon="-4.5623290">
        <ele>729.7</ele>
        <time>2019-08-13T16:09:12Z</time>
      </trkpt>
      <trkpt lat="40.4425090" lon="-4.5624240">
        <ele>728.5</ele>
        <time>2019-08-13T16:09:13Z</time>
      </trkpt>
      <trkpt lat="40.4425270" lon="-4.5625250">
        <ele>727.3</ele>
        <time>2019-08-13T16:09:14Z</time>
      </trkpt>
      <trkpt lat="40.4425430" lon="-4.5626290">
        <ele>725.6</ele>
        <time>2019-08-13T16:09:15Z</time>
      </trkpt>
      <trkpt lat="40.4425600" lon="-4.5627370">
        <ele>723.3</ele>
        <time>2019-08-13T16:09:16Z</time>
      </trkpt>
      <trkpt lat="40.4425770" lon="-4.5628470">
        <ele>722.4</ele>
        <time>2019-08-13T16:09:17Z</time>
      </trkpt>
      <trkpt lat="40.4425950" lon="-4.5629560">
        <ele>722.2</ele>
        <time>2019-08-13T16:09:18Z</time>
      </trkpt>
      <trkpt lat="40.4426150" lon="-4.5630640">
        <ele>722.1</ele>
        <time>2019-08-13T16:09:19Z</time>
      </trkpt>
      <trkpt lat="40.4426340" lon="-4.5631670">
        <ele>722.0</ele>
        <time>2019-08-13T16:09:20Z</time>
      </trkpt>
      <trkpt lat="40.4426530" lon="-4.5632670">
        <ele>722.0</ele>
        <time>2019-08-13T16:09:21Z</time>
      </trkpt>
      <trkpt lat="40.4426710" lon="-4.5633660">
        <ele>721.9</ele>
        <time>2019-08-13T16:09:22Z</time>
      </trkpt>
      <trkpt lat="40.4426900" lon="-4.5634590">
        <ele>722.0</ele>
        <time>2019-08-13T16:09:23Z</time>
      </trkpt>
      <trkpt lat="40.4427070" lon="-4.5635490">
        <ele>722.1</ele>
        <time>2019-08-13T16:09:24Z</time>
      </trkpt>
      <trkpt lat="40.4427230" lon="-4.5636360">
        <ele>722.1</ele>
        <time>2019-08-13T16:09:25Z</time>
      </trkpt>
      <trkpt lat="40.4427390" lon="-4.5637200">
        <ele>722.2</ele>
        <time>2019-08-13T16:09:26Z</time>
      </trkpt>
      <trkpt lat="40.4427550" lon="-4.5638040">
        <ele>722.2</ele>
        <time>2019-08-13T16:09:27Z</time>
      </trkpt>
      <trkpt lat="40.4427720" lon="-4.5638860">
        <ele>722.2</ele>
        <time>2019-08-13T16:09:28Z</time>
      </trkpt>
      <trkpt lat="40.4427890" lon="-4.5639680">
        <ele>722.1</ele>
        <time>2019-08-13T16:09:29Z</time>
      </trkpt>
      <trkpt lat="40.4428060" lon="-4.5640490">
        <ele>721.9</ele>
        <time>2019-08-13T16:09:30Z</time>
      </trkpt>
      <trkpt lat="40.4428220" lon="-4.5641320">
        <ele>721.7</ele>
        <time>2019-08-13T16:09:31Z</time>
      </trkpt>
      <trkpt lat="40.4428370" lon="-4.5642130">
        <ele>721.5</ele>
        <time>2019-08-13T16:09:32Z</time>
      </trkpt>
      <trkpt lat="40.4428540" lon="-4.5642930">
        <ele>721.2</ele>
        <time>2019-08-13T16:09:33Z</time>
      </trkpt>
      <trkpt lat="40.4428710" lon="-4.5643740">
        <ele>720.9</ele>
        <time>2019-08-13T16:09:34Z</time>
      </trkpt>
      <trkpt lat="40.4428870" lon="-4.5644540">
        <ele>720.6</ele>
        <time>2019-08-13T16:09:35Z</time>
      </trkpt>
      <trkpt lat="40.4429030" lon="-4.5645360">
        <ele>720.3</ele>
        <time>2019-08-13T16:09:36Z</time>
      </trkpt>
      <trkpt lat="40.4429200" lon="-4.5646170">
        <ele>720.0</ele>
        <time>2019-08-13T16:09:37Z</time>
      </trkpt>
      <trkpt lat="40.4429370" lon="-4.5646970">
        <ele>719.7</ele>
        <time>2019-08-13T16:09:38Z</time>
      </trkpt>
      <trkpt lat="40.4429530" lon="-4.5647770">
        <ele>719.5</ele>
        <time>2019-08-13T16:09:39Z</time>
      </trkpt>
      <trkpt lat="40.4429710" lon="-4.5648560">
        <ele>719.3</ele>
        <time>2019-08-13T16:09:40Z</time>
      </trkpt>
      <trkpt lat="40.4429920" lon="-4.5649330">
        <ele>719.5</ele>
        <time>2019-08-13T16:09:41Z</time>
      </trkpt>
      <trkpt lat="40.4430180" lon="-4.5650070">
        <ele>719.7</ele>
        <time>2019-08-13T16:09:42Z</time>
      </trkpt>
      <trkpt lat="40.4430530" lon="-4.5650750">
        <ele>720.0</ele>
        <time>2019-08-13T16:09:43Z</time>
      </trkpt>
      <trkpt lat="40.4430980" lon="-4.5651300">
        <ele>720.3</ele>
        <time>2019-08-13T16:09:44Z</time>
      </trkpt>
      <trkpt lat="40.4431520" lon="-4.5651690">
        <ele>720.7</ele>
        <time>2019-08-13T16:09:45Z</time>
      </trkpt>
      <trkpt lat="40.4432120" lon="-4.5651940">
        <ele>721.2</ele>
        <time>2019-08-13T16:09:46Z</time>
      </trkpt>
      <trkpt lat="40.4432720" lon="-4.5652120">
        <ele>721.5</ele>
        <time>2019-08-13T16:09:47Z</time>
      </trkpt>
      <trkpt lat="40.4433290" lon="-4.5652250">
        <ele>721.9</ele>
        <time>2019-08-13T16:09:48Z</time>
      </trkpt>
      <trkpt lat="40.4433840" lon="-4.5652320">
        <ele>722.1</ele>
        <time>2019-08-13T16:09:49Z</time>
      </trkpt>
      <trkpt lat="40.4434380" lon="-4.5652320">
        <ele>722.3</ele>
        <time>2019-08-13T16:09:50Z</time>
      </trkpt>
      <trkpt lat="40.4434890" lon="-4.5652350">
        <ele>722.5</ele>
        <time>2019-08-13T16:09:51Z</time>
      </trkpt>
      <trkpt lat="40.4435410" lon="-4.5652440">
        <ele>722.7</ele>
        <time>2019-08-13T16:09:52Z</time>
      </trkpt>
      <trkpt lat="40.4435910" lon="-4.5652610">
        <ele>722.9</ele>
        <time>2019-08-13T16:09:53Z</time>
      </trkpt>
      <trkpt lat="40.4436400" lon="-4.5652850">
        <ele>723.1</ele>
        <time>2019-08-13T16:09:54Z</time>
      </trkpt>
      <trkpt lat="40.4436880" lon="-4.5653150">
        <ele>723.3</ele>
        <time>2019-08-13T16:09:55Z</time>
      </trkpt>
      <trkpt lat="40.4437360" lon="-4.5653500">
        <ele>723.5</ele>
        <time>2019-08-13T16:09:56Z</time>
      </trkpt>
      <trkpt lat="40.4437810" lon="-4.5653860">
        <ele>723.7</ele>
        <time>2019-08-13T16:09:57Z</time>
      </trkpt>
      <trkpt lat="40.4438260" lon="-4.5654240">
        <ele>723.9</ele>
        <time>2019-08-13T16:09:58Z</time>
      </trkpt>
      <trkpt lat="40.4438700" lon="-4.5654610">
        <ele>724.1</ele>
        <time>2019-08-13T16:09:59Z</time>
      </trkpt>
      <trkpt lat="40.4439130" lon="-4.5655000">
        <ele>724.3</ele>
        <time>2019-08-13T16:10:00Z</time>
      </trkpt>
      <trkpt lat="40.4439580" lon="-4.5655380">
        <ele>724.5</ele>
        <time>2019-08-13T16:10:01Z</time>
      </trkpt>
      <trkpt lat="40.4440030" lon="-4.5655780">
        <ele>724.8</ele>
        <time>2019-08-13T16:10:02Z</time>
      </trkpt>
      <trkpt lat="40.4440460" lon="-4.5656190">
        <ele>725.0</ele>
        <time>2019-08-13T16:10:03Z</time>
      </trkpt>
      <trkpt lat="40.4440900" lon="-4.5656600">
        <ele>725.3</ele>
        <time>2019-08-13T16:10:04Z</time>
      </trkpt>
      <trkpt lat="40.4441330" lon="-4.5657030">
        <ele>725.5</ele>
        <time>2019-08-13T16:10:05Z</time>
      </trkpt>
      <trkpt lat="40.4441730" lon="-4.5657470">
        <ele>725.8</ele>
        <time>2019-08-13T16:10:06Z</time>
      </trkpt>
      <trkpt lat="40.4442130" lon="-4.5657940">
        <ele>726.1</ele>
        <time>2019-08-13T16:10:07Z</time>
      </trkpt>
      <trkpt lat="40.4442500" lon="-4.5658440">
        <ele>726.3</ele>
        <time>2019-08-13T16:10:08Z</time>
      </trkpt>
      <trkpt lat="40.4442860" lon="-4.5658960">
        <ele>726.6</ele>
        <time>2019-08-13T16:10:09Z</time>
      </trkpt>
      <trkpt lat="40.4443200" lon="-4.5659520">
        <ele>727.1</ele>
        <time>2019-08-13T16:10:10Z</time>
      </trkpt>
      <trkpt lat="40.4443540" lon="-4.5660090">
        <ele>727.3</ele>
        <time>2019-08-13T16:10:11Z</time>
      </trkpt>
      <trkpt lat="40.4443860" lon="-4.5660690">
        <ele>727.6</ele>
        <time>2019-08-13T16:10:12Z</time>
      </trkpt>
      <trkpt lat="40.4444130" lon="-4.5661340">
        <ele>727.8</ele>
        <time>2019-08-13T16:10:13Z</time>
      </trkpt>
      <trkpt lat="40.4444380" lon="-4.5662020">
        <ele>728.1</ele>
        <time>2019-08-13T16:10:14Z</time>
      </trkpt>
      <trkpt lat="40.4444590" lon="-4.5662740">
        <ele>728.3</ele>
        <time>2019-08-13T16:10:15Z</time>
      </trkpt>
      <trkpt lat="40.4444770" lon="-4.5663470">
        <ele>728.5</ele>
        <time>2019-08-13T16:10:16Z</time>
      </trkpt>
      <trkpt lat="40.4444910" lon="-4.5664200">
        <ele>728.7</ele>
        <time>2019-08-13T16:10:17Z</time>
      </trkpt>
      <trkpt lat="40.4445040" lon="-4.5664930">
        <ele>728.9</ele>
        <time>2019-08-13T16:10:18Z</time>
      </trkpt>
      <trkpt lat="40.4445140" lon="-4.5665680">
        <ele>729.1</ele>
        <time>2019-08-13T16:10:19Z</time>
      </trkpt>
      <trkpt lat="40.4445230" lon="-4.5666430">
        <ele>729.3</ele>
        <time>2019-08-13T16:10:20Z</time>
      </trkpt>
      <trkpt lat="40.4445300" lon="-4.5667200">
        <ele>729.5</ele>
        <time>2019-08-13T16:10:21Z</time>
      </trkpt>
      <trkpt lat="40.4445330" lon="-4.5667970">
        <ele>729.7</ele>
        <time>2019-08-13T16:10:22Z</time>
      </trkpt>
      <trkpt lat="40.4445360" lon="-4.5668760">
        <ele>729.9</ele>
        <time>2019-08-13T16:10:23Z</time>
      </trkpt>
      <trkpt lat="40.4445390" lon="-4.5669540">
        <ele>730.1</ele>
        <time>2019-08-13T16:10:24Z</time>
      </trkpt>
      <trkpt lat="40.4445430" lon="-4.5670330">
        <ele>730.3</ele>
        <time>2019-08-13T16:10:25Z</time>
      </trkpt>
      <trkpt lat="40.4445460" lon="-4.5671130">
        <ele>730.4</ele>
        <time>2019-08-13T16:10:26Z</time>
      </trkpt>
      <trkpt lat="40.4445510" lon="-4.5671940">
        <ele>730.6</ele>
        <time>2019-08-13T16:10:27Z</time>
      </trkpt>
      <trkpt lat="40.4445550" lon="-4.5672770">
        <ele>730.7</ele>
        <time>2019-08-13T16:10:28Z</time>
      </trkpt>
      <trkpt lat="40.4445610" lon="-4.5673610">
        <ele>730.9</ele>
        <time>2019-08-13T16:10:29Z</time>
      </trkpt>
      <trkpt lat="40.4445690" lon="-4.5674470">
        <ele>731.0</ele>
        <time>2019-08-13T16:10:30Z</time>
      </trkpt>
      <trkpt lat="40.4445830" lon="-4.5675330">
        <ele>731.2</ele>
        <time>2019-08-13T16:10:31Z</time>
      </trkpt>
      <trkpt lat="40.4446000" lon="-4.5676180">
        <ele>731.1</ele>
        <time>2019-08-13T16:10:32Z</time>
      </trkpt>
      <trkpt lat="40.4446210" lon="-4.5677040">
        <ele>731.0</ele>
        <time>2019-08-13T16:10:33Z</time>
      </trkpt>
      <trkpt lat="40.4446440" lon="-4.5677870">
        <ele>730.9</ele>
        <time>2019-08-13T16:10:34Z</time>
      </trkpt>
      <trkpt lat="40.4446680" lon="-4.5678690">
        <ele>730.9</ele>
        <time>2019-08-13T16:10:35Z</time>
      </trkpt>
      <trkpt lat="40.4446930" lon="-4.5679480">
        <ele>730.9</ele>
        <time>2019-08-13T16:10:36Z</time>
      </trkpt>
      <trkpt lat="40.4447190" lon="-4.5680260">
        <ele>730.7</ele>
        <time>2019-08-13T16:10:37Z</time>
      </trkpt>
      <trkpt lat="40.4447440" lon="-4.5681010">
        <ele>730.8</ele>
        <time>2019-08-13T16:10:38Z</time>
      </trkpt>
      <trkpt lat="40.4447700" lon="-4.5681740">
        <ele>730.9</ele>
        <time>2019-08-13T16:10:39Z</time>
      </trkpt>
      <trkpt lat="40.4447970" lon="-4.5682430">
        <ele>730.9</ele>
        <time>2019-08-13T16:10:40Z</time>
      </trkpt>
      <trkpt lat="40.4448230" lon="-4.5683100">
        <ele>731.3</ele>
        <time>2019-08-13T16:10:41Z</time>
      </trkpt>
      <trkpt lat="40.4448480" lon="-4.5683760">
        <ele>731.3</ele>
        <time>2019-08-13T16:10:42Z</time>
      </trkpt>
      <trkpt lat="40.4448730" lon="-4.5684390">
        <ele>731.4</ele>
        <time>2019-08-13T16:10:43Z</time>
      </trkpt>
      <trkpt lat="40.4448970" lon="-4.5685010">
        <ele>731.4</ele>
        <time>2019-08-13T16:10:44Z</time>
      </trkpt>
      <trkpt lat="40.4449210" lon="-4.5685610">
        <ele>731.5</ele>
        <time>2019-08-13T16:10:45Z</time>
      </trkpt>
      <trkpt lat="40.4449440" lon="-4.5686190">
        <ele>731.6</ele>
        <time>2019-08-13T16:10:46Z</time>
      </trkpt>
      <trkpt lat="40.4449660" lon="-4.5686740">
        <ele>731.7</ele>
        <time>2019-08-13T16:10:47Z</time>
      </trkpt>
      <trkpt lat="40.4449870" lon="-4.5687280">
        <ele>731.8</ele>
        <time>2019-08-13T16:10:48Z</time>
      </trkpt>
      <trkpt lat="40.4450080" lon="-4.5687800">
        <ele>731.9</ele>
        <time>2019-08-13T16:10:49Z</time>
      </trkpt>
      <trkpt lat="40.4450290" lon="-4.5688320">
        <ele>732.0</ele>
        <time>2019-08-13T16:10:50Z</time>
      </trkpt>
      <trkpt lat="40.4450480" lon="-4.5688830">
        <ele>732.1</ele>
        <time>2019-08-13T16:10:51Z</time>
      </trkpt>
      <trkpt lat="40.4450670" lon="-4.5689330">
        <ele>732.1</ele>
        <time>2019-08-13T16:10:52Z</time>
      </trkpt>
      <trkpt lat="40.4450840" lon="-4.5689820">
        <ele>732.3</ele>
        <time>2019-08-13T16:10:53Z</time>
      </trkpt>
      <trkpt lat="40.4451020" lon="-4.5690310">
        <ele>732.3</ele>
        <time>2019-08-13T16:10:54Z</time>
      </trkpt>
      <trkpt lat="40.4451200" lon="-4.5690810">
        <ele>732.3</ele>
        <time>2019-08-13T16:10:55Z</time>
      </trkpt>
      <trkpt lat="40.4451370" lon="-4.5691300">
        <ele>732.3</ele>
        <time>2019-08-13T16:10:56Z</time>
      </trkpt>
      <trkpt lat="40.4451540" lon="-4.5691780">
        <ele>732.3</ele>
        <time>2019-08-13T16:10:57Z</time>
      </trkpt>
      <trkpt lat="40.4451720" lon="-4.5692250">
        <ele>732.4</ele>
        <time>2019-08-13T16:10:58Z</time>
      </trkpt>
      <trkpt lat="40.4451890" lon="-4.5692720">
        <ele>732.4</ele>
        <time>2019-08-13T16:10:59Z</time>
      </trkpt>
      <trkpt lat="40.4452050" lon="-4.5693190">
        <ele>732.4</ele>
        <time>2019-08-13T16:11:00Z</time>
      </trkpt>
      <trkpt lat="40.4452220" lon="-4.5693670">
        <ele>732.4</ele>
        <time>2019-08-13T16:11:01Z</time>
      </trkpt>
      <trkpt lat="40.4452400" lon="-4.5694130">
        <ele>732.5</ele>
        <time>2019-08-13T16:11:02Z</time>
      </trkpt>
      <trkpt lat="40.4452570" lon="-4.5694610">
        <ele>732.5</ele>
        <time>2019-08-13T16:11:03Z</time>
      </trkpt>
      <trkpt lat="40.4452760" lon="-4.5695080">
        <ele>732.5</ele>
        <time>2019-08-13T16:11:04Z</time>
      </trkpt>
      <trkpt lat="40.4452940" lon="-4.5695540">
        <ele>732.6</ele>
        <time>2019-08-13T16:11:05Z</time>
      </trkpt>
      <trkpt lat="40.4453100" lon="-4.5695990">
        <ele>732.6</ele>
        <time>2019-08-13T16:11:06Z</time>
      </trkpt>
      <trkpt lat="40.4453260" lon="-4.5696430">
        <ele>732.6</ele>
        <time>2019-08-13T16:11:07Z</time>
      </trkpt>
      <trkpt lat="40.4453410" lon="-4.5696860">
        <ele>732.8</ele>
        <time>2019-08-13T16:11:08Z</time>
      </trkpt>
      <trkpt lat="40.4453570" lon="-4.5697290">
        <ele>732.9</ele>
        <time>2019-08-13T16:11:09Z</time>
      </trkpt>
      <trkpt lat="40.4453720" lon="-4.5697710">
        <ele>733.1</ele>
        <time>2019-08-13T16:11:10Z</time>
      </trkpt>
      <trkpt lat="40.4453890" lon="-4.5698130">
        <ele>733.2</ele>
        <time>2019-08-13T16:11:11Z</time>
      </trkpt>
      <trkpt lat="40.4454060" lon="-4.5698550">
        <ele>733.4</ele>
        <time>2019-08-13T16:11:12Z</time>
      </trkpt>
      <trkpt lat="40.4454220" lon="-4.5698960">
        <ele>733.5</ele>
        <time>2019-08-13T16:11:13Z</time>
      </trkpt>
      <trkpt lat="40.4454380" lon="-4.5699370">
        <ele>733.7</ele>
        <time>2019-08-13T16:11:14Z</time>
      </trkpt>
      <trkpt lat="40.4454530" lon="-4.5699790">
        <ele>733.8</ele>
        <time>2019-08-13T16:11:15Z</time>
      </trkpt>
      <trkpt lat="40.4454700" lon="-4.5700230">
        <ele>734.0</ele>
        <time>2019-08-13T16:11:16Z</time>
      </trkpt>
      <trkpt lat="40.4454870" lon="-4.5700670">
        <ele>734.2</ele>
        <time>2019-08-13T16:11:17Z</time>
      </trkpt>
      <trkpt lat="40.4455040" lon="-4.5701120">
        <ele>734.4</ele>
        <time>2019-08-13T16:11:18Z</time>
      </trkpt>
      <trkpt lat="40.4455210" lon="-4.5701570">
        <ele>734.6</ele>
        <time>2019-08-13T16:11:19Z</time>
      </trkpt>
      <trkpt lat="40.4455370" lon="-4.5702030">
        <ele>734.8</ele>
        <time>2019-08-13T16:11:20Z</time>
      </trkpt>
      <trkpt lat="40.4455540" lon="-4.5702480">
        <ele>735.0</ele>
        <time>2019-08-13T16:11:21Z</time>
      </trkpt>
      <trkpt lat="40.4455710" lon="-4.5702950">
        <ele>735.2</ele>
        <time>2019-08-13T16:11:22Z</time>
      </trkpt>
      <trkpt lat="40.4455880" lon="-4.5703400">
        <ele>735.4</ele>
        <time>2019-08-13T16:11:23Z</time>
      </trkpt>
      <trkpt lat="40.4456050" lon="-4.5703860">
        <ele>735.6</ele>
        <time>2019-08-13T16:11:24Z</time>
      </trkpt>
      <trkpt lat="40.4456230" lon="-4.5704330">
        <ele>735.8</ele>
        <time>2019-08-13T16:11:25Z</time>
      </trkpt>
      <trkpt lat="40.4456400" lon="-4.5704790">
        <ele>736.0</ele>
        <time>2019-08-13T16:11:26Z</time>
      </trkpt>
      <trkpt lat="40.4456570" lon="-4.5705240">
        <ele>736.2</ele>
        <time>2019-08-13T16:11:27Z</time>
      </trkpt>
      <trkpt lat="40.4456750" lon="-4.5705700">
        <ele>736.4</ele>
        <time>2019-08-13T16:11:28Z</time>
      </trkpt>
      <trkpt lat="40.4456920" lon="-4.5706140">
        <ele>736.6</ele>
        <time>2019-08-13T16:11:29Z</time>
      </trkpt>
      <trkpt lat="40.4457080" lon="-4.5706600">
        <ele>736.7</ele>
        <time>2019-08-13T16:11:30Z</time>
      </trkpt>
      <trkpt lat="40.4457250" lon="-4.5707050">
        <ele>736.9</ele>
        <time>2019-08-13T16:11:31Z</time>
      </trkpt>
      <trkpt lat="40.4457420" lon="-4.5707520">
        <ele>737.1</ele>
        <time>2019-08-13T16:11:32Z</time>
      </trkpt>
      <trkpt lat="40.4457590" lon="-4.5707980">
        <ele>737.3</ele>
        <time>2019-08-13T16:11:33Z</time>
      </trkpt>
      <trkpt lat="40.4457760" lon="-4.5708430">
        <ele>737.5</ele>
        <time>2019-08-13T16:11:34Z</time>
      </trkpt>
      <trkpt lat="40.4457940" lon="-4.5708880">
        <ele>737.6</ele>
        <time>2019-08-13T16:11:35Z</time>
      </trkpt>
      <trkpt lat="40.4458120" lon="-4.5709340">
        <ele>737.8</ele>
        <time>2019-08-13T16:11:36Z</time>
      </trkpt>
      <trkpt lat="40.4458300" lon="-4.5709810">
        <ele>738.0</ele>
        <time>2019-08-13T16:11:37Z</time>
      </trkpt>
      <trkpt lat="40.4458480" lon="-4.5710280">
        <ele>738.1</ele>
        <time>2019-08-13T16:11:38Z</time>
      </trkpt>
      <trkpt lat="40.4458650" lon="-4.5710750">
        <ele>738.3</ele>
        <time>2019-08-13T16:11:39Z</time>
      </trkpt>
      <trkpt lat="40.4458810" lon="-4.5711220">
        <ele>738.5</ele>
        <time>2019-08-13T16:11:40Z</time>
      </trkpt>
      <trkpt lat="40.4458990" lon="-4.5711690">
        <ele>738.6</ele>
        <time>2019-08-13T16:11:41Z</time>
      </trkpt>
      <trkpt lat="40.4459180" lon="-4.5712140">
        <ele>738.8</ele>
        <time>2019-08-13T16:11:42Z</time>
      </trkpt>
      <trkpt lat="40.4459350" lon="-4.5712600">
        <ele>738.9</ele>
        <time>2019-08-13T16:11:43Z</time>
      </trkpt>
      <trkpt lat="40.4459530" lon="-4.5713060">
        <ele>739.1</ele>
        <time>2019-08-13T16:11:44Z</time>
      </trkpt>
      <trkpt lat="40.4459710" lon="-4.5713510">
        <ele>739.2</ele>
        <time>2019-08-13T16:11:45Z</time>
      </trkpt>
      <trkpt lat="40.4459880" lon="-4.5713960">
        <ele>739.4</ele>
        <time>2019-08-13T16:11:46Z</time>
      </trkpt>
      <trkpt lat="40.4460040" lon="-4.5714400">
        <ele>739.5</ele>
        <time>2019-08-13T16:11:47Z</time>
      </trkpt>
      <trkpt lat="40.4460180" lon="-4.5714830">
        <ele>739.6</ele>
        <time>2019-08-13T16:11:48Z</time>
      </trkpt>
      <trkpt lat="40.4460330" lon="-4.5715240">
        <ele>739.7</ele>
        <time>2019-08-13T16:11:49Z</time>
      </trkpt>
      <trkpt lat="40.4460490" lon="-4.5715620">
        <ele>739.8</ele>
        <time>2019-08-13T16:11:50Z</time>
      </trkpt>
      <trkpt lat="40.4460630" lon="-4.5716000">
        <ele>739.9</ele>
        <time>2019-08-13T16:11:51Z</time>
      </trkpt>
      <trkpt lat="40.4460770" lon="-4.5716400">
        <ele>740.0</ele>
        <time>2019-08-13T16:11:52Z</time>
      </trkpt>
      <trkpt lat="40.4460910" lon="-4.5716780">
        <ele>740.1</ele>
        <time>2019-08-13T16:11:53Z</time>
      </trkpt>
      <trkpt lat="40.4461060" lon="-4.5717150">
        <ele>740.2</ele>
        <time>2019-08-13T16:11:54Z</time>
      </trkpt>
      <trkpt lat="40.4461200" lon="-4.5717530">
        <ele>740.3</ele>
        <time>2019-08-13T16:11:55Z</time>
      </trkpt>
      <trkpt lat="40.4461350" lon="-4.5717890">
        <ele>740.4</ele>
        <time>2019-08-13T16:11:56Z</time>
      </trkpt>
      <trkpt lat="40.4461490" lon="-4.5718250">
        <ele>740.4</ele>
        <time>2019-08-13T16:11:57Z</time>
      </trkpt>
      <trkpt lat="40.4461630" lon="-4.5718610">
        <ele>740.5</ele>
        <time>2019-08-13T16:11:58Z</time>
      </trkpt>
      <trkpt lat="40.4461770" lon="-4.5718960">
        <ele>740.6</ele>
        <time>2019-08-13T16:11:59Z</time>
      </trkpt>
      <trkpt lat="40.4461900" lon="-4.5719310">
        <ele>740.6</ele>
        <time>2019-08-13T16:12:00Z</time>
      </trkpt>
      <trkpt lat="40.4462030" lon="-4.5719660">
        <ele>740.7</ele>
        <time>2019-08-13T16:12:01Z</time>
      </trkpt>
      <trkpt lat="40.4462160" lon="-4.5720000">
        <ele>740.7</ele>
        <time>2019-08-13T16:12:02Z</time>
      </trkpt>
      <trkpt lat="40.4462280" lon="-4.5720320">
        <ele>740.8</ele>
        <time>2019-08-13T16:12:03Z</time>
      </trkpt>
      <trkpt lat="40.4462410" lon="-4.5720650">
        <ele>740.8</ele>
        <time>2019-08-13T16:12:04Z</time>
      </trkpt>
      <trkpt lat="40.4462520" lon="-4.5720970">
        <ele>740.9</ele>
        <time>2019-08-13T16:12:05Z</time>
      </trkpt>
      <trkpt lat="40.4462650" lon="-4.5721290">
        <ele>740.9</ele>
        <time>2019-08-13T16:12:06Z</time>
      </trkpt>
      <trkpt lat="40.4462770" lon="-4.5721610">
        <ele>740.9</ele>
        <time>2019-08-13T16:12:07Z</time>
      </trkpt>
      <trkpt lat="40.4462900" lon="-4.5721930">
        <ele>741.0</ele>
        <time>2019-08-13T16:12:08Z</time>
      </trkpt>
      <trkpt lat="40.4463030" lon="-4.5722260">
        <ele>741.0</ele>
        <time>2019-08-13T16:12:09Z</time>
      </trkpt>
      <trkpt lat="40.4463160" lon="-4.5722600">
        <ele>741.1</ele>
        <time>2019-08-13T16:12:10Z</time>
      </trkpt>
      <trkpt lat="40.4463290" lon="-4.5722940">
        <ele>741.1</ele>
        <time>2019-08-13T16:12:11Z</time>
      </trkpt>
      <trkpt lat="40.4463420" lon="-4.5723290">
        <ele>741.1</ele>
        <time>2019-08-13T16:12:12Z</time>
      </trkpt>
      <trkpt lat="40.4463550" lon="-4.5723650">
        <ele>741.2</ele>
        <time>2019-08-13T16:12:13Z</time>
      </trkpt>
      <trkpt lat="40.4463680" lon="-4.5724000">
        <ele>741.2</ele>
        <time>2019-08-13T16:12:14Z</time>
      </trkpt>
      <trkpt lat="40.4463810" lon="-4.5724340">
        <ele>741.3</ele>
        <time>2019-08-13T16:12:15Z</time>
      </trkpt>
      <trkpt lat="40.4463940" lon="-4.5724680">
        <ele>741.3</ele>
        <time>2019-08-13T16:12:16Z</time>
      </trkpt>
      <trkpt lat="40.4464070" lon="-4.5725020">
        <ele>741.3</ele>
        <time>2019-08-13T16:12:17Z</time>
      </trkpt>
      <trkpt lat="40.4464200" lon="-4.5725360">
        <ele>741.4</ele>
        <time>2019-08-13T16:12:18Z</time>
      </trkpt>
      <trkpt lat="40.4464330" lon="-4.5725700">
        <ele>741.4</ele>
        <time>2019-08-13T16:12:19Z</time>
      </trkpt>
      <trkpt lat="40.4464460" lon="-4.5726050">
        <ele>741.4</ele>
        <time>2019-08-13T16:12:20Z</time>
      </trkpt>
      <trkpt lat="40.4464580" lon="-4.5726390">
        <ele>741.5</ele>
        <time>2019-08-13T16:12:21Z</time>
      </trkpt>
      <trkpt lat="40.4464700" lon="-4.5726730">
        <ele>741.5</ele>
        <time>2019-08-13T16:12:22Z</time>
      </trkpt>
      <trkpt lat="40.4464820" lon="-4.5727060">
        <ele>741.5</ele>
        <time>2019-08-13T16:12:23Z</time>
      </trkpt>
      <trkpt lat="40.4464950" lon="-4.5727390">
        <ele>741.6</ele>
        <time>2019-08-13T16:12:24Z</time>
      </trkpt>
      <trkpt lat="40.4465090" lon="-4.5727730">
        <ele>741.6</ele>
        <time>2019-08-13T16:12:25Z</time>
      </trkpt>
      <trkpt lat="40.4465220" lon="-4.5728070">
        <ele>741.6</ele>
        <time>2019-08-13T16:12:26Z</time>
      </trkpt>
      <trkpt lat="40.4465350" lon="-4.5728410">
        <ele>741.7</ele>
        <time>2019-08-13T16:12:27Z</time>
      </trkpt>
      <trkpt lat="40.4465490" lon="-4.5728750">
        <ele>741.7</ele>
        <time>2019-08-13T16:12:28Z</time>
      </trkpt>
      <trkpt lat="40.4465620" lon="-4.5729100">
        <ele>741.7</ele>
        <time>2019-08-13T16:12:29Z</time>
      </trkpt>
      <trkpt lat="40.4465750" lon="-4.5729440">
        <ele>741.8</ele>
        <time>2019-08-13T16:12:30Z</time>
      </trkpt>
      <trkpt lat="40.4465880" lon="-4.5729790">
        <ele>741.8</ele>
        <time>2019-08-13T16:12:31Z</time>
      </trkpt>
      <trkpt lat="40.4466010" lon="-4.5730130">
        <ele>741.9</ele>
        <time>2019-08-13T16:12:32Z</time>
      </trkpt>
      <trkpt lat="40.4466130" lon="-4.5730480">
        <ele>741.9</ele>
        <time>2019-08-13T16:12:33Z</time>
      </trkpt>
      <trkpt lat="40.4466260" lon="-4.5730820">
        <ele>742.0</ele>
        <time>2019-08-13T16:12:34Z</time>
      </trkpt>
      <trkpt lat="40.4466400" lon="-4.5731160">
        <ele>742.0</ele>
        <time>2019-08-13T16:12:35Z</time>
      </trkpt>
      <trkpt lat="40.4466530" lon="-4.5731500">
        <ele>742.1</ele>
        <time>2019-08-13T16:12:36Z</time>
      </trkpt>
      <trkpt lat="40.4466650" lon="-4.5731830">
        <ele>742.1</ele>
        <time>2019-08-13T16:12:37Z</time>
      </trkpt>
      <trkpt lat="40.4466770" lon="-4.5732170">
        <ele>742.2</ele>
        <time>2019-08-13T16:12:38Z</time>
      </trkpt>
      <trkpt lat="40.4466890" lon="-4.5732500">
        <ele>742.2</ele>
        <time>2019-08-13T16:12:39Z</time>
      </trkpt>
      <trkpt lat="40.4467010" lon="-4.5732840">
        <ele>742.3</ele>
        <time>2019-08-13T16:12:40Z</time>
      </trkpt>
      <trkpt lat="40.4467140" lon="-4.5733170">
        <ele>742.4</ele>
        <time>2019-08-13T16:12:41Z</time>
      </trkpt>
      <trkpt lat="40.4467270" lon="-4.5733500">
        <ele>742.5</ele>
        <time>2019-08-13T16:12:42Z</time>
      </trkpt>
      <trkpt lat="40.4467390" lon="-4.5733830">
        <ele>742.5</ele>
        <time>2019-08-13T16:12:43Z</time>
      </trkpt>
      <trkpt lat="40.4467520" lon="-4.5734160">
        <ele>742.6</ele>
        <time>2019-08-13T16:12:44Z</time>
      </trkpt>
      <trkpt lat="40.4467650" lon="-4.5734490">
        <ele>742.7</ele>
        <time>2019-08-13T16:12:45Z</time>
      </trkpt>
      <trkpt lat="40.4467780" lon="-4.5734820">
        <ele>742.8</ele>
        <time>2019-08-13T16:12:46Z</time>
      </trkpt>
      <trkpt lat="40.4467900" lon="-4.5735160">
        <ele>742.9</ele>
        <time>2019-08-13T16:12:47Z</time>
      </trkpt>
      <trkpt lat="40.4468030" lon="-4.5735500">
        <ele>743.0</ele>
        <time>2019-08-13T16:12:48Z</time>
      </trkpt>
      <trkpt lat="40.4468170" lon="-4.5735850">
        <ele>743.1</ele>
        <time>2019-08-13T16:12:49Z</time>
      </trkpt>
      <trkpt lat="40.4468300" lon="-4.5736210">
        <ele>743.2</ele>
        <time>2019-08-13T16:12:50Z</time>
      </trkpt>
      <trkpt lat="40.4468440" lon="-4.5736570">
        <ele>743.3</ele>
        <time>2019-08-13T16:12:51Z</time>
      </trkpt>
      <trkpt lat="40.4468580" lon="-4.5736940">
        <ele>743.4</ele>
        <time>2019-08-13T16:12:52Z</time>
      </trkpt>
      <trkpt lat="40.4468710" lon="-4.5737310">
        <ele>743.6</ele>
        <time>2019-08-13T16:12:53Z</time>
      </trkpt>
      <trkpt lat="40.4468850" lon="-4.5737680">
        <ele>743.7</ele>
        <time>2019-08-13T16:12:54Z</time>
      </trkpt>
      <trkpt lat="40.4468980" lon="-4.5738050">
        <ele>743.8</ele>
        <time>2019-08-13T16:12:55Z</time>
      </trkpt>
      <trkpt lat="40.4469120" lon="-4.5738410">
        <ele>744.0</ele>
        <time>2019-08-13T16:12:56Z</time>
      </trkpt>
      <trkpt lat="40.4469260" lon="-4.5738770">
        <ele>744.1</ele>
        <time>2019-08-13T16:12:57Z</time>
      </trkpt>
      <trkpt lat="40.4469400" lon="-4.5739140">
        <ele>744.2</ele>
        <time>2019-08-13T16:12:58Z</time>
      </trkpt>
      <trkpt lat="40.4469530" lon="-4.5739510">
        <ele>744.3</ele>
        <time>2019-08-13T16:12:59Z</time>
      </trkpt>
      <trkpt lat="40.4469670" lon="-4.5739880">
        <ele>744.5</ele>
        <time>2019-08-13T16:13:00Z</time>
      </trkpt>
      <trkpt lat="40.4469800" lon="-4.5740270">
        <ele>744.6</ele>
        <time>2019-08-13T16:13:01Z</time>
      </trkpt>
      <trkpt lat="40.4469930" lon="-4.5740650">
        <ele>744.7</ele>
        <time>2019-08-13T16:13:02Z</time>
      </trkpt>
      <trkpt lat="40.4470070" lon="-4.5741040">
        <ele>744.8</ele>
        <time>2019-08-13T16:13:03Z</time>
      </trkpt>
      <trkpt lat="40.4470220" lon="-4.5741410">
        <ele>745.0</ele>
        <time>2019-08-13T16:13:04Z</time>
      </trkpt>
      <trkpt lat="40.4470370" lon="-4.5741770">
        <ele>745.1</ele>
        <time>2019-08-13T16:13:05Z</time>
      </trkpt>
      <trkpt lat="40.4470510" lon="-4.5742150">
        <ele>745.2</ele>
        <time>2019-08-13T16:13:06Z</time>
      </trkpt>
      <trkpt lat="40.4470640" lon="-4.5742500">
        <ele>745.3</ele>
        <time>2019-08-13T16:13:07Z</time>
      </trkpt>
      <trkpt lat="40.4470770" lon="-4.5742830">
        <ele>745.4</ele>
        <time>2019-08-13T16:13:08Z</time>
      </trkpt>
      <trkpt lat="40.4470900" lon="-4.5743180">
        <ele>745.5</ele>
        <time>2019-08-13T16:13:09Z</time>
      </trkpt>
      <trkpt lat="40.4471030" lon="-4.5743570">
        <ele>745.7</ele>
        <time>2019-08-13T16:13:10Z</time>
      </trkpt>
      <trkpt lat="40.4471200" lon="-4.5743970">
        <ele>745.8</ele>
        <time>2019-08-13T16:13:11Z</time>
      </trkpt>
      <trkpt lat="40.4471390" lon="-4.5744360">
        <ele>745.9</ele>
        <time>2019-08-13T16:13:12Z</time>
      </trkpt>
      <trkpt lat="40.4471550" lon="-4.5744760">
        <ele>746.0</ele>
        <time>2019-08-13T16:13:13Z</time>
      </trkpt>
      <trkpt lat="40.4471690" lon="-4.5745140">
        <ele>746.2</ele>
        <time>2019-08-13T16:13:14Z</time>
      </trkpt>
      <trkpt lat="40.4471840" lon="-4.5745560">
        <ele>746.3</ele>
        <time>2019-08-13T16:13:15Z</time>
      </trkpt>
      <trkpt lat="40.4472000" lon="-4.5745960">
        <ele>746.5</ele>
        <time>2019-08-13T16:13:16Z</time>
      </trkpt>
      <trkpt lat="40.4472150" lon="-4.5746340">
        <ele>746.6</ele>
        <time>2019-08-13T16:13:17Z</time>
      </trkpt>
      <trkpt lat="40.4472340" lon="-4.5746730">
        <ele>746.8</ele>
        <time>2019-08-13T16:13:18Z</time>
      </trkpt>
      <trkpt lat="40.4472520" lon="-4.5747120">
        <ele>746.9</ele>
        <time>2019-08-13T16:13:19Z</time>
      </trkpt>
      <trkpt lat="40.4472710" lon="-4.5747520">
        <ele>747.1</ele>
        <time>2019-08-13T16:13:20Z</time>
      </trkpt>
      <trkpt lat="40.4472880" lon="-4.5747900">
        <ele>747.3</ele>
        <time>2019-08-13T16:13:21Z</time>
      </trkpt>
      <trkpt lat="40.4473070" lon="-4.5748270">
        <ele>747.5</ele>
        <time>2019-08-13T16:13:22Z</time>
      </trkpt>
      <trkpt lat="40.4473250" lon="-4.5748640">
        <ele>747.7</ele>
        <time>2019-08-13T16:13:23Z</time>
      </trkpt>
      <trkpt lat="40.4473420" lon="-4.5748990">
        <ele>747.9</ele>
        <time>2019-08-13T16:13:24Z</time>
      </trkpt>
      <trkpt lat="40.4473610" lon="-4.5749350">
        <ele>748.1</ele>
        <time>2019-08-13T16:13:25Z</time>
      </trkpt>
      <trkpt lat="40.4473810" lon="-4.5749690">
        <ele>748.3</ele>
        <time>2019-08-13T16:13:26Z</time>
      </trkpt>
      <trkpt lat="40.4474020" lon="-4.5750020">
        <ele>748.6</ele>
        <time>2019-08-13T16:13:27Z</time>
      </trkpt>
      <trkpt lat="40.4474220" lon="-4.5750370">
        <ele>748.8</ele>
        <time>2019-08-13T16:13:28Z</time>
      </trkpt>
      <trkpt lat="40.4474420" lon="-4.5750700">
        <ele>749.0</ele>
        <time>2019-08-13T16:13:29Z</time>
      </trkpt>
      <trkpt lat="40.4474610" lon="-4.5751020">
        <ele>749.3</ele>
        <time>2019-08-13T16:13:30Z</time>
      </trkpt>
      <trkpt lat="40.4474820" lon="-4.5751330">
        <ele>749.5</ele>
        <time>2019-08-13T16:13:31Z</time>
      </trkpt>
      <trkpt lat="40.4475030" lon="-4.5751620">
        <ele>749.7</ele>
        <time>2019-08-13T16:13:32Z</time>
      </trkpt>
      <trkpt lat="40.4475230" lon="-4.5751920">
        <ele>750.0</ele>
        <time>2019-08-13T16:13:33Z</time>
      </trkpt>
      <trkpt lat="40.4475440" lon="-4.5752200">
        <ele>750.2</ele>
        <time>2019-08-13T16:13:34Z</time>
      </trkpt>
      <trkpt lat="40.4475640" lon="-4.5752480">
        <ele>750.4</ele>
        <time>2019-08-13T16:13:35Z</time>
      </trkpt>
      <trkpt lat="40.4475840" lon="-4.5752760">
        <ele>750.6</ele>
        <time>2019-08-13T16:13:36Z</time>
      </trkpt>
      <trkpt lat="40.4476030" lon="-4.5753030">
        <ele>750.8</ele>
        <time>2019-08-13T16:13:37Z</time>
      </trkpt>
      <trkpt lat="40.4476230" lon="-4.5753290">
        <ele>751.1</ele>
        <time>2019-08-13T16:13:38Z</time>
      </trkpt>
      <trkpt lat="40.4476420" lon="-4.5753550">
        <ele>751.3</ele>
        <time>2019-08-13T16:13:39Z</time>
      </trkpt>
      <trkpt lat="40.4476790" lon="-4.5754060">
        <ele>751.7</ele>
        <time>2019-08-13T16:13:41Z</time>
      </trkpt>
      <trkpt lat="40.4477130" lon="-4.5754570">
        <ele>752.1</ele>
        <time>2019-08-13T16:13:43Z</time>
      </trkpt>
      <trkpt lat="40.4477470" lon="-4.5755040">
        <ele>752.5</ele>
        <time>2019-08-13T16:13:45Z</time>
      </trkpt>
      <trkpt lat="40.4477810" lon="-4.5755500">
        <ele>752.9</ele>
        <time>2019-08-13T16:13:47Z</time>
      </trkpt>
      <trkpt lat="40.4478120" lon="-4.5756000">
        <ele>753.3</ele>
        <time>2019-08-13T16:13:49Z</time>
      </trkpt>
      <trkpt lat="40.4478440" lon="-4.5756500">
        <ele>753.8</ele>
        <time>2019-08-13T16:13:51Z</time>
      </trkpt>
      <trkpt lat="40.4478760" lon="-4.5756980">
        <ele>754.1</ele>
        <time>2019-08-13T16:13:53Z</time>
      </trkpt>
      <trkpt lat="40.4479060" lon="-4.5757490">
        <ele>754.4</ele>
        <time>2019-08-13T16:13:55Z</time>
      </trkpt>
      <trkpt lat="40.4479340" lon="-4.5757990">
        <ele>754.8</ele>
        <time>2019-08-13T16:13:57Z</time>
      </trkpt>
      <trkpt lat="40.4479610" lon="-4.5758520">
        <ele>755.1</ele>
        <time>2019-08-13T16:13:59Z</time>
      </trkpt>
      <trkpt lat="40.4479880" lon="-4.5759030">
        <ele>755.4</ele>
        <time>2019-08-13T16:14:01Z</time>
      </trkpt>
      <trkpt lat="40.4480140" lon="-4.5759560">
        <ele>755.8</ele>
        <time>2019-08-13T16:14:03Z</time>
      </trkpt>
      <trkpt lat="40.4480380" lon="-4.5760100">
        <ele>756.0</ele>
        <time>2019-08-13T16:14:05Z</time>
      </trkpt>
      <trkpt lat="40.4480620" lon="-4.5760650">
        <ele>756.2</ele>
        <time>2019-08-13T16:14:07Z</time>
      </trkpt>
      <trkpt lat="40.4480840" lon="-4.5761200">
        <ele>756.4</ele>
        <time>2019-08-13T16:14:09Z</time>
      </trkpt>
      <trkpt lat="40.4481060" lon="-4.5761750">
        <ele>756.6</ele>
        <time>2019-08-13T16:14:11Z</time>
      </trkpt>
      <trkpt lat="40.4481260" lon="-4.5762310">
        <ele>756.8</ele>
        <time>2019-08-13T16:14:13Z</time>
      </trkpt>
      <trkpt lat="40.4481440" lon="-4.5762880">
        <ele>757.1</ele>
        <time>2019-08-13T16:14:15Z</time>
      </trkpt>
      <trkpt lat="40.4481630" lon="-4.5763450">
        <ele>757.4</ele>
        <time>2019-08-13T16:14:17Z</time>
      </trkpt>
      <trkpt lat="40.4481830" lon="-4.5764000">
        <ele>757.7</ele>
        <time>2019-08-13T16:14:19Z</time>
      </trkpt>
      <trkpt lat="40.4482020" lon="-4.5764570">
        <ele>758.1</ele>
        <time>2019-08-13T16:14:21Z</time>
      </trkpt>
      <trkpt lat="40.4482170" lon="-4.5765140">
        <ele>758.7</ele>
        <time>2019-08-13T16:14:23Z</time>
      </trkpt>
      <trkpt lat="40.4482280" lon="-4.5765730">
        <ele>759.0</ele>
        <time>2019-08-13T16:14:25Z</time>
      </trkpt>
      <trkpt lat="40.4482420" lon="-4.5766320">
        <ele>759.3</ele>
        <time>2019-08-13T16:14:27Z</time>
      </trkpt>
      <trkpt lat="40.4482580" lon="-4.5766890">
        <ele>759.6</ele>
        <time>2019-08-13T16:14:29Z</time>
      </trkpt>
      <trkpt lat="40.4482740" lon="-4.5767430">
        <ele>759.9</ele>
        <time>2019-08-13T16:14:31Z</time>
      </trkpt>
      <trkpt lat="40.4482860" lon="-4.5767970">
        <ele>760.2</ele>
        <time>2019-08-13T16:14:33Z</time>
      </trkpt>
      <trkpt lat="40.4482950" lon="-4.5768530">
        <ele>760.5</ele>
        <time>2019-08-13T16:14:35Z</time>
      </trkpt>
      <trkpt lat="40.4483030" lon="-4.5769090">
        <ele>760.8</ele>
        <time>2019-08-13T16:14:37Z</time>
      </trkpt>
      <trkpt lat="40.4483180" lon="-4.5769650">
        <ele>761.2</ele>
        <time>2019-08-13T16:14:39Z</time>
      </trkpt>
      <trkpt lat="40.4483320" lon="-4.5770210">
        <ele>761.5</ele>
        <time>2019-08-13T16:14:41Z</time>
      </trkpt>
      <trkpt lat="40.4483450" lon="-4.5770770">
        <ele>761.9</ele>
        <time>2019-08-13T16:14:43Z</time>
      </trkpt>
      <trkpt lat="40.4483580" lon="-4.5771350">
        <ele>762.3</ele>
        <time>2019-08-13T16:14:45Z</time>
      </trkpt>
      <trkpt lat="40.4483700" lon="-4.5771920">
        <ele>762.7</ele>
        <time>2019-08-13T16:14:47Z</time>
      </trkpt>
      <trkpt lat="40.4483840" lon="-4.5772490">
        <ele>763.1</ele>
        <time>2019-08-13T16:14:49Z</time>
      </trkpt>
      <trkpt lat="40.4483970" lon="-4.5773060">
        <ele>763.5</ele>
        <time>2019-08-13T16:14:51Z</time>
      </trkpt>
      <trkpt lat="40.4484100" lon="-4.5773630">
        <ele>763.8</ele>
        <time>2019-08-13T16:14:53Z</time>
      </trkpt>
      <trkpt lat="40.4484250" lon="-4.5774220">
        <ele>764.1</ele>
        <time>2019-08-13T16:14:55Z</time>
      </trkpt>
      <trkpt lat="40.4484390" lon="-4.5774820">
        <ele>764.4</ele>
        <time>2019-08-13T16:14:57Z</time>
      </trkpt>
      <trkpt lat="40.4484550" lon="-4.5775450">
        <ele>764.8</ele>
        <time>2019-08-13T16:14:59Z</time>
      </trkpt>
      <trkpt lat="40.4484710" lon="-4.5776100">
        <ele>765.2</ele>
        <time>2019-08-13T16:15:01Z</time>
      </trkpt>
      <trkpt lat="40.4484790" lon="-4.5776440">
        <ele>765.4</ele>
        <time>2019-08-13T16:15:02Z</time>
      </trkpt>
      <trkpt lat="40.4484880" lon="-4.5776780">
        <ele>765.6</ele>
        <time>2019-08-13T16:15:03Z</time>
      </trkpt>
      <trkpt lat="40.4485020" lon="-4.5777410">
        <ele>765.9</ele>
        <time>2019-08-13T16:15:05Z</time>
      </trkpt>
      <trkpt lat="40.4485190" lon="-4.5778000">
        <ele>766.2</ele>
        <time>2019-08-13T16:15:07Z</time>
      </trkpt>
      <trkpt lat="40.4485370" lon="-4.5778640">
        <ele>766.5</ele>
        <time>2019-08-13T16:15:09Z</time>
      </trkpt>
      <trkpt lat="40.4485560" lon="-4.5779240">
        <ele>766.8</ele>
        <time>2019-08-13T16:15:11Z</time>
      </trkpt>
      <trkpt lat="40.4485680" lon="-4.5779570">
        <ele>767.0</ele>
        <time>2019-08-13T16:15:12Z</time>
      </trkpt>
      <trkpt lat="40.4485800" lon="-4.5779890">
        <ele>767.2</ele>
        <time>2019-08-13T16:15:13Z</time>
      </trkpt>
      <trkpt lat="40.4486030" lon="-4.5780500">
        <ele>767.5</ele>
        <time>2019-08-13T16:15:15Z</time>
      </trkpt>
      <trkpt lat="40.4486280" lon="-4.5781110">
        <ele>767.9</ele>
        <time>2019-08-13T16:15:17Z</time>
      </trkpt>
      <trkpt lat="40.4486530" lon="-4.5781710">
        <ele>768.3</ele>
        <time>2019-08-13T16:15:19Z</time>
      </trkpt>
      <trkpt lat="40.4486820" lon="-4.5782290">
        <ele>768.6</ele>
        <time>2019-08-13T16:15:21Z</time>
      </trkpt>
      <trkpt lat="40.4487130" lon="-4.5782860">
        <ele>769.0</ele>
        <time>2019-08-13T16:15:23Z</time>
      </trkpt>
      <trkpt lat="40.4487460" lon="-4.5783400">
        <ele>769.4</ele>
        <time>2019-08-13T16:15:25Z</time>
      </trkpt>
      <trkpt lat="40.4487810" lon="-4.5783910">
        <ele>769.7</ele>
        <time>2019-08-13T16:15:27Z</time>
      </trkpt>
      <trkpt lat="40.4488160" lon="-4.5784410">
        <ele>770.1</ele>
        <time>2019-08-13T16:15:29Z</time>
      </trkpt>
      <trkpt lat="40.4488560" lon="-4.5784870">
        <ele>770.4</ele>
        <time>2019-08-13T16:15:31Z</time>
      </trkpt>
      <trkpt lat="40.4488980" lon="-4.5785310">
        <ele>770.8</ele>
        <time>2019-08-13T16:15:33Z</time>
      </trkpt>
      <trkpt lat="40.4489190" lon="-4.5785540">
        <ele>770.9</ele>
        <time>2019-08-13T16:15:34Z</time>
      </trkpt>
      <trkpt lat="40.4489400" lon="-4.5785760">
        <ele>771.1</ele>
        <time>2019-08-13T16:15:35Z</time>
      </trkpt>
      <trkpt lat="40.4489820" lon="-4.5786210">
        <ele>771.5</ele>
        <time>2019-08-13T16:15:37Z</time>
      </trkpt>
      <trkpt lat="40.4490230" lon="-4.5786620">
        <ele>771.8</ele>
        <time>2019-08-13T16:15:39Z</time>
      </trkpt>
      <trkpt lat="40.4490660" lon="-4.5787010">
        <ele>772.1</ele>
        <time>2019-08-13T16:15:41Z</time>
      </trkpt>
      <trkpt lat="40.4491090" lon="-4.5787390">
        <ele>772.5</ele>
        <time>2019-08-13T16:15:43Z</time>
      </trkpt>
      <trkpt lat="40.4491500" lon="-4.5787770">
        <ele>772.8</ele>
        <time>2019-08-13T16:15:45Z</time>
      </trkpt>
      <trkpt lat="40.4491910" lon="-4.5788140">
        <ele>773.1</ele>
        <time>2019-08-13T16:15:47Z</time>
      </trkpt>
      <trkpt lat="40.4492320" lon="-4.5788510">
        <ele>773.4</ele>
        <time>2019-08-13T16:15:49Z</time>
      </trkpt>
      <trkpt lat="40.4492710" lon="-4.5788890">
        <ele>773.7</ele>
        <time>2019-08-13T16:15:51Z</time>
      </trkpt>
      <trkpt lat="40.4493090" lon="-4.5789280">
        <ele>774.0</ele>
        <time>2019-08-13T16:15:53Z</time>
      </trkpt>
      <trkpt lat="40.4493470" lon="-4.5789680">
        <ele>774.2</ele>
        <time>2019-08-13T16:15:55Z</time>
      </trkpt>
      <trkpt lat="40.4493860" lon="-4.5790100">
        <ele>774.4</ele>
        <time>2019-08-13T16:15:57Z</time>
      </trkpt>
      <trkpt lat="40.4494240" lon="-4.5790540">
        <ele>774.6</ele>
        <time>2019-08-13T16:15:59Z</time>
      </trkpt>
      <trkpt lat="40.4494600" lon="-4.5791020">
        <ele>774.8</ele>
        <time>2019-08-13T16:16:01Z</time>
      </trkpt>
      <trkpt lat="40.4494960" lon="-4.5791490">
        <ele>775.1</ele>
        <time>2019-08-13T16:16:03Z</time>
      </trkpt>
      <trkpt lat="40.4495300" lon="-4.5791990">
        <ele>775.4</ele>
        <time>2019-08-13T16:16:05Z</time>
      </trkpt>
      <trkpt lat="40.4495620" lon="-4.5792510">
        <ele>775.7</ele>
        <time>2019-08-13T16:16:07Z</time>
      </trkpt>
      <trkpt lat="40.4495920" lon="-4.5793030">
        <ele>776.0</ele>
        <time>2019-08-13T16:16:09Z</time>
      </trkpt>
      <trkpt lat="40.4496200" lon="-4.5793560">
        <ele>776.2</ele>
        <time>2019-08-13T16:16:11Z</time>
      </trkpt>
      <trkpt lat="40.4496470" lon="-4.5794110">
        <ele>776.5</ele>
        <time>2019-08-13T16:16:13Z</time>
      </trkpt>
      <trkpt lat="40.4496710" lon="-4.5794680">
        <ele>776.7</ele>
        <time>2019-08-13T16:16:15Z</time>
      </trkpt>
      <trkpt lat="40.4496920" lon="-4.5795270">
        <ele>777.0</ele>
        <time>2019-08-13T16:16:17Z</time>
      </trkpt>
      <trkpt lat="40.4497130" lon="-4.5795860">
        <ele>777.3</ele>
        <time>2019-08-13T16:16:19Z</time>
      </trkpt>
      <trkpt lat="40.4497320" lon="-4.5796450">
        <ele>777.5</ele>
        <time>2019-08-13T16:16:21Z</time>
      </trkpt>
      <trkpt lat="40.4497500" lon="-4.5797050">
        <ele>777.8</ele>
        <time>2019-08-13T16:16:23Z</time>
      </trkpt>
      <trkpt lat="40.4497680" lon="-4.5797660">
        <ele>778.1</ele>
        <time>2019-08-13T16:16:25Z</time>
      </trkpt>
      <trkpt lat="40.4497860" lon="-4.5798270">
        <ele>778.4</ele>
        <time>2019-08-13T16:16:27Z</time>
      </trkpt>
      <trkpt lat="40.4498020" lon="-4.5798910">
        <ele>778.7</ele>
        <time>2019-08-13T16:16:29Z</time>
      </trkpt>
      <trkpt lat="40.4498170" lon="-4.5799540">
        <ele>779.0</ele>
        <time>2019-08-13T16:16:31Z</time>
      </trkpt>
      <trkpt lat="40.4498310" lon="-4.5800170">
        <ele>779.3</ele>
        <time>2019-08-13T16:16:33Z</time>
      </trkpt>
      <trkpt lat="40.4498470" lon="-4.5800810">
        <ele>779.6</ele>
        <time>2019-08-13T16:16:35Z</time>
      </trkpt>
      <trkpt lat="40.4498630" lon="-4.5801470">
        <ele>780.0</ele>
        <time>2019-08-13T16:16:37Z</time>
      </trkpt>
      <trkpt lat="40.4498790" lon="-4.5802140">
        <ele>780.3</ele>
        <time>2019-08-13T16:16:39Z</time>
      </trkpt>
      <trkpt lat="40.4498940" lon="-4.5802760">
        <ele>780.6</ele>
        <time>2019-08-13T16:16:41Z</time>
      </trkpt>
      <trkpt lat="40.4499090" lon="-4.5803370">
        <ele>780.9</ele>
        <time>2019-08-13T16:16:43Z</time>
      </trkpt>
      <trkpt lat="40.4499250" lon="-4.5804000">
        <ele>781.2</ele>
        <time>2019-08-13T16:16:45Z</time>
      </trkpt>
      <trkpt lat="40.4499410" lon="-4.5804620">
        <ele>781.4</ele>
        <time>2019-08-13T16:16:47Z</time>
      </trkpt>
      <trkpt lat="40.4499580" lon="-4.5805240">
        <ele>781.6</ele>
        <time>2019-08-13T16:16:49Z</time>
      </trkpt>
      <trkpt lat="40.4499760" lon="-4.5805840">
        <ele>781.8</ele>
        <time>2019-08-13T16:16:51Z</time>
      </trkpt>
      <trkpt lat="40.4499950" lon="-4.5806450">
        <ele>782.0</ele>
        <time>2019-08-13T16:16:53Z</time>
      </trkpt>
      <trkpt lat="40.4500150" lon="-4.5807060">
        <ele>782.2</ele>
        <time>2019-08-13T16:16:55Z</time>
      </trkpt>
      <trkpt lat="40.4500340" lon="-4.5807670">
        <ele>782.4</ele>
        <time>2019-08-13T16:16:57Z</time>
      </trkpt>
      <trkpt lat="40.4500540" lon="-4.5808280">
        <ele>782.6</ele>
        <time>2019-08-13T16:16:59Z</time>
      </trkpt>
      <trkpt lat="40.4500770" lon="-4.5808890">
        <ele>782.9</ele>
        <time>2019-08-13T16:17:01Z</time>
      </trkpt>
      <trkpt lat="40.4501020" lon="-4.5809490">
        <ele>783.1</ele>
        <time>2019-08-13T16:17:03Z</time>
      </trkpt>
      <trkpt lat="40.4501290" lon="-4.5810070">
        <ele>783.3</ele>
        <time>2019-08-13T16:17:05Z</time>
      </trkpt>
      <trkpt lat="40.4501560" lon="-4.5810630">
        <ele>783.6</ele>
        <time>2019-08-13T16:17:07Z</time>
      </trkpt>
      <trkpt lat="40.4501840" lon="-4.5811190">
        <ele>783.8</ele>
        <time>2019-08-13T16:17:09Z</time>
      </trkpt>
      <trkpt lat="40.4502130" lon="-4.5811740">
        <ele>784.1</ele>
        <time>2019-08-13T16:17:11Z</time>
      </trkpt>
      <trkpt lat="40.4502420" lon="-4.5812280">
        <ele>784.4</ele>
        <time>2019-08-13T16:17:13Z</time>
      </trkpt>
      <trkpt lat="40.4502710" lon="-4.5812800">
        <ele>784.7</ele>
        <time>2019-08-13T16:17:15Z</time>
      </trkpt>
      <trkpt lat="40.4503000" lon="-4.5813330">
        <ele>784.9</ele>
        <time>2019-08-13T16:17:17Z</time>
      </trkpt>
      <trkpt lat="40.4503300" lon="-4.5813840">
        <ele>785.2</ele>
        <time>2019-08-13T16:17:19Z</time>
      </trkpt>
      <trkpt lat="40.4503590" lon="-4.5814360">
        <ele>785.5</ele>
        <time>2019-08-13T16:17:21Z</time>
      </trkpt>
      <trkpt lat="40.4503900" lon="-4.5814890">
        <ele>785.8</ele>
        <time>2019-08-13T16:17:23Z</time>
      </trkpt>
      <trkpt lat="40.4504230" lon="-4.5815400">
        <ele>786.1</ele>
        <time>2019-08-13T16:17:25Z</time>
      </trkpt>
      <trkpt lat="40.4504540" lon="-4.5815900">
        <ele>786.3</ele>
        <time>2019-08-13T16:17:27Z</time>
      </trkpt>
      <trkpt lat="40.4504870" lon="-4.5816380">
        <ele>786.6</ele>
        <time>2019-08-13T16:17:29Z</time>
      </trkpt>
      <trkpt lat="40.4505200" lon="-4.5816870">
        <ele>787.1</ele>
        <time>2019-08-13T16:17:31Z</time>
      </trkpt>
      <trkpt lat="40.4505520" lon="-4.5817360">
        <ele>787.3</ele>
        <time>2019-08-13T16:17:33Z</time>
      </trkpt>
      <trkpt lat="40.4505890" lon="-4.5817810">
        <ele>787.5</ele>
        <time>2019-08-13T16:17:35Z</time>
      </trkpt>
      <trkpt lat="40.4506250" lon="-4.5818250">
        <ele>787.7</ele>
        <time>2019-08-13T16:17:37Z</time>
      </trkpt>
      <trkpt lat="40.4506620" lon="-4.5818680">
        <ele>787.9</ele>
        <time>2019-08-13T16:17:39Z</time>
      </trkpt>
      <trkpt lat="40.4506990" lon="-4.5819090">
        <ele>788.1</ele>
        <time>2019-08-13T16:17:41Z</time>
      </trkpt>
      <trkpt lat="40.4507360" lon="-4.5819510">
        <ele>788.6</ele>
        <time>2019-08-13T16:17:43Z</time>
      </trkpt>
      <trkpt lat="40.4507690" lon="-4.5819960">
        <ele>788.7</ele>
        <time>2019-08-13T16:17:45Z</time>
      </trkpt>
      <trkpt lat="40.4507990" lon="-4.5820440">
        <ele>788.9</ele>
        <time>2019-08-13T16:17:47Z</time>
      </trkpt>
      <trkpt lat="40.4508270" lon="-4.5820930">
        <ele>789.0</ele>
        <time>2019-08-13T16:17:49Z</time>
      </trkpt>
      <trkpt lat="40.4508570" lon="-4.5821470">
        <ele>789.1</ele>
        <time>2019-08-13T16:17:51Z</time>
      </trkpt>
      <trkpt lat="40.4508930" lon="-4.5821960">
        <ele>789.3</ele>
        <time>2019-08-13T16:17:53Z</time>
      </trkpt>
      <trkpt lat="40.4509300" lon="-4.5822440">
        <ele>789.4</ele>
        <time>2019-08-13T16:17:55Z</time>
      </trkpt>
      <trkpt lat="40.4509590" lon="-4.5822990">
        <ele>789.5</ele>
        <time>2019-08-13T16:17:57Z</time>
      </trkpt>
      <trkpt lat="40.4509890" lon="-4.5823480">
        <ele>789.6</ele>
        <time>2019-08-13T16:17:59Z</time>
      </trkpt>
      <trkpt lat="40.4510130" lon="-4.5824000">
        <ele>789.7</ele>
        <time>2019-08-13T16:18:01Z</time>
      </trkpt>
      <trkpt lat="40.4510350" lon="-4.5824560">
        <ele>789.9</ele>
        <time>2019-08-13T16:18:03Z</time>
      </trkpt>
      <trkpt lat="40.4510620" lon="-4.5825090">
        <ele>790.1</ele>
        <time>2019-08-13T16:18:05Z</time>
      </trkpt>
      <trkpt lat="40.4510870" lon="-4.5825650">
        <ele>790.2</ele>
        <time>2019-08-13T16:18:07Z</time>
      </trkpt>
      <trkpt lat="40.4511110" lon="-4.5826220">
        <ele>790.4</ele>
        <time>2019-08-13T16:18:09Z</time>
      </trkpt>
      <trkpt lat="40.4511330" lon="-4.5826800">
        <ele>790.5</ele>
        <time>2019-08-13T16:18:11Z</time>
      </trkpt>
      <trkpt lat="40.4511490" lon="-4.5827420">
        <ele>790.6</ele>
        <time>2019-08-13T16:18:13Z</time>
      </trkpt>
      <trkpt lat="40.4511610" lon="-4.5828040">
        <ele>790.8</ele>
        <time>2019-08-13T16:18:15Z</time>
      </trkpt>
      <trkpt lat="40.4511720" lon="-4.5828640">
        <ele>791.0</ele>
        <time>2019-08-13T16:18:17Z</time>
      </trkpt>
      <trkpt lat="40.4511830" lon="-4.5829210">
        <ele>791.2</ele>
        <time>2019-08-13T16:18:19Z</time>
      </trkpt>
      <trkpt lat="40.4511980" lon="-4.5829780">
        <ele>791.5</ele>
        <time>2019-08-13T16:18:21Z</time>
      </trkpt>
      <trkpt lat="40.4512170" lon="-4.5830370">
        <ele>791.7</ele>
        <time>2019-08-13T16:18:23Z</time>
      </trkpt>
      <trkpt lat="40.4512350" lon="-4.5831010">
        <ele>791.9</ele>
        <time>2019-08-13T16:18:25Z</time>
      </trkpt>
      <trkpt lat="40.4512450" lon="-4.5831340">
        <ele>792.0</ele>
        <time>2019-08-13T16:18:26Z</time>
      </trkpt>
      <trkpt lat="40.4512550" lon="-4.5831690">
        <ele>792.1</ele>
        <time>2019-08-13T16:18:27Z</time>
      </trkpt>
      <trkpt lat="40.4512660" lon="-4.5832040">
        <ele>792.2</ele>
        <time>2019-08-13T16:18:28Z</time>
      </trkpt>
      <trkpt lat="40.4512750" lon="-4.5832400">
        <ele>792.3</ele>
        <time>2019-08-13T16:18:29Z</time>
      </trkpt>
      <trkpt lat="40.4512850" lon="-4.5832770">
        <ele>792.4</ele>
        <time>2019-08-13T16:18:30Z</time>
      </trkpt>
      <trkpt lat="40.4512950" lon="-4.5833150">
        <ele>792.5</ele>
        <time>2019-08-13T16:18:31Z</time>
      </trkpt>
      <trkpt lat="40.4513050" lon="-4.5833540">
        <ele>792.7</ele>
        <time>2019-08-13T16:18:32Z</time>
      </trkpt>
      <trkpt lat="40.4513160" lon="-4.5833940">
        <ele>792.8</ele>
        <time>2019-08-13T16:18:33Z</time>
      </trkpt>
      <trkpt lat="40.4513250" lon="-4.5834350">
        <ele>792.8</ele>
        <time>2019-08-13T16:18:34Z</time>
      </trkpt>
      <trkpt lat="40.4513340" lon="-4.5834800">
        <ele>792.9</ele>
        <time>2019-08-13T16:18:35Z</time>
      </trkpt>
      <trkpt lat="40.4513450" lon="-4.5835260">
        <ele>793.0</ele>
        <time>2019-08-13T16:18:36Z</time>
      </trkpt>
      <trkpt lat="40.4513550" lon="-4.5835740">
        <ele>793.1</ele>
        <time>2019-08-13T16:18:37Z</time>
      </trkpt>
      <trkpt lat="40.4513640" lon="-4.5836240">
        <ele>793.2</ele>
        <time>2019-08-13T16:18:38Z</time>
      </trkpt>
      <trkpt lat="40.4513720" lon="-4.5836740">
        <ele>793.3</ele>
        <time>2019-08-13T16:18:39Z</time>
      </trkpt>
      <trkpt lat="40.4513810" lon="-4.5837210">
        <ele>793.3</ele>
        <time>2019-08-13T16:18:40Z</time>
      </trkpt>
      <trkpt lat="40.4513880" lon="-4.5837680">
        <ele>793.3</ele>
        <time>2019-08-13T16:18:41Z</time>
      </trkpt>
      <trkpt lat="40.4513950" lon="-4.5838160">
        <ele>793.4</ele>
        <time>2019-08-13T16:18:42Z</time>
      </trkpt>
      <trkpt lat="40.4514040" lon="-4.5838660">
        <ele>793.4</ele>
        <time>2019-08-13T16:18:43Z</time>
      </trkpt>
      <trkpt lat="40.4514130" lon="-4.5839180">
        <ele>793.5</ele>
        <time>2019-08-13T16:18:44Z</time>
      </trkpt>
      <trkpt lat="40.4514220" lon="-4.5839700">
        <ele>793.5</ele>
        <time>2019-08-13T16:18:45Z</time>
      </trkpt>
      <trkpt lat="40.4514290" lon="-4.5840200">
        <ele>793.5</ele>
        <time>2019-08-13T16:18:46Z</time>
      </trkpt>
      <trkpt lat="40.4514360" lon="-4.5840710">
        <ele>793.6</ele>
        <time>2019-08-13T16:18:47Z</time>
      </trkpt>
      <trkpt lat="40.4514420" lon="-4.5841260">
        <ele>793.6</ele>
        <time>2019-08-13T16:18:48Z</time>
      </trkpt>
      <trkpt lat="40.4514490" lon="-4.5841780">
        <ele>793.7</ele>
        <time>2019-08-13T16:18:49Z</time>
      </trkpt>
      <trkpt lat="40.4514550" lon="-4.5842270">
        <ele>793.7</ele>
        <time>2019-08-13T16:18:50Z</time>
      </trkpt>
      <trkpt lat="40.4514600" lon="-4.5842760">
        <ele>793.7</ele>
        <time>2019-08-13T16:18:51Z</time>
      </trkpt>
      <trkpt lat="40.4514650" lon="-4.5843260">
        <ele>793.8</ele>
        <time>2019-08-13T16:18:52Z</time>
      </trkpt>
      <trkpt lat="40.4514730" lon="-4.5843800">
        <ele>793.8</ele>
        <time>2019-08-13T16:18:53Z</time>
      </trkpt>
      <trkpt lat="40.4514820" lon="-4.5844400">
        <ele>793.8</ele>
        <time>2019-08-13T16:18:54Z</time>
      </trkpt>
      <trkpt lat="40.4514900" lon="-4.5845010">
        <ele>793.8</ele>
        <time>2019-08-13T16:18:55Z</time>
      </trkpt>
      <trkpt lat="40.4514970" lon="-4.5845620">
        <ele>793.8</ele>
        <time>2019-08-13T16:18:56Z</time>
      </trkpt>
      <trkpt lat="40.4515050" lon="-4.5846230">
        <ele>793.7</ele>
        <time>2019-08-13T16:18:57Z</time>
      </trkpt>
      <trkpt lat="40.4515120" lon="-4.5846860">
        <ele>793.6</ele>
        <time>2019-08-13T16:18:58Z</time>
      </trkpt>
      <trkpt lat="40.4515190" lon="-4.5847480">
        <ele>793.5</ele>
        <time>2019-08-13T16:18:59Z</time>
      </trkpt>
      <trkpt lat="40.4515270" lon="-4.5848110">
        <ele>793.5</ele>
        <time>2019-08-13T16:19:00Z</time>
      </trkpt>
      <trkpt lat="40.4515350" lon="-4.5848740">
        <ele>793.4</ele>
        <time>2019-08-13T16:19:01Z</time>
      </trkpt>
      <trkpt lat="40.4515430" lon="-4.5849380">
        <ele>793.3</ele>
        <time>2019-08-13T16:19:02Z</time>
      </trkpt>
      <trkpt lat="40.4515530" lon="-4.5850020">
        <ele>793.2</ele>
        <time>2019-08-13T16:19:03Z</time>
      </trkpt>
      <trkpt lat="40.4515640" lon="-4.5850700">
        <ele>793.1</ele>
        <time>2019-08-13T16:19:04Z</time>
      </trkpt>
      <trkpt lat="40.4515750" lon="-4.5851400">
        <ele>793.0</ele>
        <time>2019-08-13T16:19:05Z</time>
      </trkpt>
      <trkpt lat="40.4515840" lon="-4.5852120">
        <ele>793.0</ele>
        <time>2019-08-13T16:19:06Z</time>
      </trkpt>
      <trkpt lat="40.4515920" lon="-4.5852830">
        <ele>793.0</ele>
        <time>2019-08-13T16:19:07Z</time>
      </trkpt>
      <trkpt lat="40.4515990" lon="-4.5853550">
        <ele>792.9</ele>
        <time>2019-08-13T16:19:08Z</time>
      </trkpt>
      <trkpt lat="40.4516080" lon="-4.5854280">
        <ele>792.9</ele>
        <time>2019-08-13T16:19:09Z</time>
      </trkpt>
      <trkpt lat="40.4516160" lon="-4.5855020">
        <ele>792.9</ele>
        <time>2019-08-13T16:19:10Z</time>
      </trkpt>
      <trkpt lat="40.4516240" lon="-4.5855740">
        <ele>792.9</ele>
        <time>2019-08-13T16:19:11Z</time>
      </trkpt>
      <trkpt lat="40.4516340" lon="-4.5856460">
        <ele>792.9</ele>
        <time>2019-08-13T16:19:12Z</time>
      </trkpt>
      <trkpt lat="40.4516450" lon="-4.5857180">
        <ele>792.9</ele>
        <time>2019-08-13T16:19:13Z</time>
      </trkpt>
      <trkpt lat="40.4516550" lon="-4.5857910">
        <ele>792.9</ele>
        <time>2019-08-13T16:19:14Z</time>
      </trkpt>
      <trkpt lat="40.4516650" lon="-4.5858640">
        <ele>792.9</ele>
        <time>2019-08-13T16:19:15Z</time>
      </trkpt>
      <trkpt lat="40.4516740" lon="-4.5859360">
        <ele>792.8</ele>
        <time>2019-08-13T16:19:16Z</time>
      </trkpt>
      <trkpt lat="40.4516830" lon="-4.5860090">
        <ele>792.8</ele>
        <time>2019-08-13T16:19:17Z</time>
      </trkpt>
      <trkpt lat="40.4516920" lon="-4.5860800">
        <ele>792.7</ele>
        <time>2019-08-13T16:19:18Z</time>
      </trkpt>
      <trkpt lat="40.4517000" lon="-4.5861490">
        <ele>792.7</ele>
        <time>2019-08-13T16:19:19Z</time>
      </trkpt>
      <trkpt lat="40.4517080" lon="-4.5862160">
        <ele>792.7</ele>
        <time>2019-08-13T16:19:20Z</time>
      </trkpt>
      <trkpt lat="40.4517170" lon="-4.5862810">
        <ele>792.7</ele>
        <time>2019-08-13T16:19:21Z</time>
      </trkpt>
      <trkpt lat="40.4517270" lon="-4.5863450">
        <ele>792.7</ele>
        <time>2019-08-13T16:19:22Z</time>
      </trkpt>
      <trkpt lat="40.4517380" lon="-4.5864080">
        <ele>792.7</ele>
        <time>2019-08-13T16:19:23Z</time>
      </trkpt>
      <trkpt lat="40.4517490" lon="-4.5864720">
        <ele>792.8</ele>
        <time>2019-08-13T16:19:24Z</time>
      </trkpt>
      <trkpt lat="40.4517610" lon="-4.5865340">
        <ele>792.9</ele>
        <time>2019-08-13T16:19:25Z</time>
      </trkpt>
      <trkpt lat="40.4517730" lon="-4.5865950">
        <ele>792.9</ele>
        <time>2019-08-13T16:19:26Z</time>
      </trkpt>
      <trkpt lat="40.4517860" lon="-4.5866560">
        <ele>793.1</ele>
        <time>2019-08-13T16:19:27Z</time>
      </trkpt>
      <trkpt lat="40.4518000" lon="-4.5867160">
        <ele>793.2</ele>
        <time>2019-08-13T16:19:28Z</time>
      </trkpt>
      <trkpt lat="40.4518140" lon="-4.5867760">
        <ele>793.4</ele>
        <time>2019-08-13T16:19:29Z</time>
      </trkpt>
      <trkpt lat="40.4518260" lon="-4.5868360">
        <ele>793.6</ele>
        <time>2019-08-13T16:19:30Z</time>
      </trkpt>
      <trkpt lat="40.4518380" lon="-4.5868960">
        <ele>793.8</ele>
        <time>2019-08-13T16:19:31Z</time>
      </trkpt>
      <trkpt lat="40.4518500" lon="-4.5869540">
        <ele>794.0</ele>
        <time>2019-08-13T16:19:32Z</time>
      </trkpt>
      <trkpt lat="40.4518630" lon="-4.5870110">
        <ele>794.3</ele>
        <time>2019-08-13T16:19:33Z</time>
      </trkpt>
      <trkpt lat="40.4518760" lon="-4.5870690">
        <ele>794.5</ele>
        <time>2019-08-13T16:19:34Z</time>
      </trkpt>
      <trkpt lat="40.4518880" lon="-4.5871250">
        <ele>794.7</ele>
        <time>2019-08-13T16:19:35Z</time>
      </trkpt>
      <trkpt lat="40.4519000" lon="-4.5871830">
        <ele>795.0</ele>
        <time>2019-08-13T16:19:36Z</time>
      </trkpt>
      <trkpt lat="40.4519110" lon="-4.5872400">
        <ele>795.2</ele>
        <time>2019-08-13T16:19:37Z</time>
      </trkpt>
      <trkpt lat="40.4519230" lon="-4.5872950">
        <ele>795.4</ele>
        <time>2019-08-13T16:19:38Z</time>
      </trkpt>
      <trkpt lat="40.4519340" lon="-4.5873500">
        <ele>795.7</ele>
        <time>2019-08-13T16:19:39Z</time>
      </trkpt>
      <trkpt lat="40.4519420" lon="-4.5874040">
        <ele>795.9</ele>
        <time>2019-08-13T16:19:40Z</time>
      </trkpt>
      <trkpt lat="40.4519460" lon="-4.5874570">
        <ele>796.1</ele>
        <time>2019-08-13T16:19:41Z</time>
      </trkpt>
      <trkpt lat="40.4519460" lon="-4.5875080">
        <ele>796.3</ele>
        <time>2019-08-13T16:19:42Z</time>
      </trkpt>
      <trkpt lat="40.4519420" lon="-4.5875560">
        <ele>796.5</ele>
        <time>2019-08-13T16:19:43Z</time>
      </trkpt>
      <trkpt lat="40.4519370" lon="-4.5876030">
        <ele>796.7</ele>
        <time>2019-08-13T16:19:44Z</time>
      </trkpt>
      <trkpt lat="40.4519360" lon="-4.5876510">
        <ele>796.9</ele>
        <time>2019-08-13T16:19:45Z</time>
      </trkpt>
      <trkpt lat="40.4519400" lon="-4.5876980">
        <ele>797.1</ele>
        <time>2019-08-13T16:19:46Z</time>
      </trkpt>
      <trkpt lat="40.4519460" lon="-4.5877440">
        <ele>797.3</ele>
        <time>2019-08-13T16:19:47Z</time>
      </trkpt>
      <trkpt lat="40.4519510" lon="-4.5877900">
        <ele>797.6</ele>
        <time>2019-08-13T16:19:48Z</time>
      </trkpt>
      <trkpt lat="40.4519560" lon="-4.5878360">
        <ele>797.8</ele>
        <time>2019-08-13T16:19:49Z</time>
      </trkpt>
      <trkpt lat="40.4519610" lon="-4.5878820">
        <ele>798.1</ele>
        <time>2019-08-13T16:19:50Z</time>
      </trkpt>
      <trkpt lat="40.4519660" lon="-4.5879270">
        <ele>798.4</ele>
        <time>2019-08-13T16:19:51Z</time>
      </trkpt>
      <trkpt lat="40.4519730" lon="-4.5879710">
        <ele>798.6</ele>
        <time>2019-08-13T16:19:52Z</time>
      </trkpt>
      <trkpt lat="40.4519800" lon="-4.5880170">
        <ele>798.9</ele>
        <time>2019-08-13T16:19:53Z</time>
      </trkpt>
      <trkpt lat="40.4519860" lon="-4.5880630">
        <ele>799.2</ele>
        <time>2019-08-13T16:19:54Z</time>
      </trkpt>
      <trkpt lat="40.4519920" lon="-4.5881100">
        <ele>799.4</ele>
        <time>2019-08-13T16:19:55Z</time>
      </trkpt>
      <trkpt lat="40.4519980" lon="-4.5881570">
        <ele>799.7</ele>
        <time>2019-08-13T16:19:56Z</time>
      </trkpt>
      <trkpt lat="40.4520040" lon="-4.5882030">
        <ele>799.9</ele>
        <time>2019-08-13T16:19:57Z</time>
      </trkpt>
      <trkpt lat="40.4520090" lon="-4.5882500">
        <ele>800.2</ele>
        <time>2019-08-13T16:19:58Z</time>
      </trkpt>
      <trkpt lat="40.4520150" lon="-4.5882960">
        <ele>800.4</ele>
        <time>2019-08-13T16:19:59Z</time>
      </trkpt>
      <trkpt lat="40.4520220" lon="-4.5883440">
        <ele>800.7</ele>
        <time>2019-08-13T16:20:00Z</time>
      </trkpt>
      <trkpt lat="40.4520280" lon="-4.5883920">
        <ele>800.9</ele>
        <time>2019-08-13T16:20:01Z</time>
      </trkpt>
      <trkpt lat="40.4520330" lon="-4.5884400">
        <ele>801.1</ele>
        <time>2019-08-13T16:20:02Z</time>
      </trkpt>
      <trkpt lat="40.4520390" lon="-4.5884860">
        <ele>801.3</ele>
        <time>2019-08-13T16:20:03Z</time>
      </trkpt>
      <trkpt lat="40.4520460" lon="-4.5885330">
        <ele>801.5</ele>
        <time>2019-08-13T16:20:04Z</time>
      </trkpt>
      <trkpt lat="40.4520530" lon="-4.5885790">
        <ele>801.7</ele>
        <time>2019-08-13T16:20:05Z</time>
      </trkpt>
      <trkpt lat="40.4520570" lon="-4.5886250">
        <ele>801.9</ele>
        <time>2019-08-13T16:20:06Z</time>
      </trkpt>
      <trkpt lat="40.4520620" lon="-4.5886700">
        <ele>802.1</ele>
        <time>2019-08-13T16:20:07Z</time>
      </trkpt>
      <trkpt lat="40.4520680" lon="-4.5887150">
        <ele>802.3</ele>
        <time>2019-08-13T16:20:08Z</time>
      </trkpt>
      <trkpt lat="40.4520740" lon="-4.5887600">
        <ele>802.4</ele>
        <time>2019-08-13T16:20:09Z</time>
      </trkpt>
      <trkpt lat="40.4520810" lon="-4.5888040">
        <ele>802.6</ele>
        <time>2019-08-13T16:20:10Z</time>
      </trkpt>
      <trkpt lat="40.4520870" lon="-4.5888490">
        <ele>802.7</ele>
        <time>2019-08-13T16:20:11Z</time>
      </trkpt>
      <trkpt lat="40.4520920" lon="-4.5888940">
        <ele>802.8</ele>
        <time>2019-08-13T16:20:12Z</time>
      </trkpt>
      <trkpt lat="40.4520980" lon="-4.5889390">
        <ele>802.9</ele>
        <time>2019-08-13T16:20:13Z</time>
      </trkpt>
      <trkpt lat="40.4521040" lon="-4.5889840">
        <ele>803.0</ele>
        <time>2019-08-13T16:20:14Z</time>
      </trkpt>
      <trkpt lat="40.4521090" lon="-4.5890280">
        <ele>803.1</ele>
        <time>2019-08-13T16:20:15Z</time>
      </trkpt>
      <trkpt lat="40.4521140" lon="-4.5890730">
        <ele>803.2</ele>
        <time>2019-08-13T16:20:16Z</time>
      </trkpt>
      <trkpt lat="40.4521190" lon="-4.5891170">
        <ele>803.3</ele>
        <time>2019-08-13T16:20:17Z</time>
      </trkpt>
      <trkpt lat="40.4521220" lon="-4.5891610">
        <ele>803.4</ele>
        <time>2019-08-13T16:20:18Z</time>
      </trkpt>
      <trkpt lat="40.4521250" lon="-4.5892040">
        <ele>803.5</ele>
        <time>2019-08-13T16:20:19Z</time>
      </trkpt>
      <trkpt lat="40.4521270" lon="-4.5892460">
        <ele>803.6</ele>
        <time>2019-08-13T16:20:20Z</time>
      </trkpt>
      <trkpt lat="40.4521290" lon="-4.5892870">
        <ele>803.7</ele>
        <time>2019-08-13T16:20:21Z</time>
      </trkpt>
      <trkpt lat="40.4521320" lon="-4.5893280">
        <ele>803.9</ele>
        <time>2019-08-13T16:20:22Z</time>
      </trkpt>
      <trkpt lat="40.4521370" lon="-4.5893690">
        <ele>804.0</ele>
        <time>2019-08-13T16:20:23Z</time>
      </trkpt>
      <trkpt lat="40.4521420" lon="-4.5894110">
        <ele>804.1</ele>
        <time>2019-08-13T16:20:24Z</time>
      </trkpt>
      <trkpt lat="40.4521460" lon="-4.5894520">
        <ele>804.3</ele>
        <time>2019-08-13T16:20:25Z</time>
      </trkpt>
      <trkpt lat="40.4521490" lon="-4.5894930">
        <ele>804.4</ele>
        <time>2019-08-13T16:20:26Z</time>
      </trkpt>
      <trkpt lat="40.4521530" lon="-4.5895350">
        <ele>804.6</ele>
        <time>2019-08-13T16:20:27Z</time>
      </trkpt>
      <trkpt lat="40.4521570" lon="-4.5895780">
        <ele>804.8</ele>
        <time>2019-08-13T16:20:28Z</time>
      </trkpt>
      <trkpt lat="40.4521610" lon="-4.5896200">
        <ele>805.0</ele>
        <time>2019-08-13T16:20:29Z</time>
      </trkpt>
      <trkpt lat="40.4521660" lon="-4.5896630">
        <ele>805.1</ele>
        <time>2019-08-13T16:20:30Z</time>
      </trkpt>
      <trkpt lat="40.4521700" lon="-4.5897060">
        <ele>805.3</ele>
        <time>2019-08-13T16:20:31Z</time>
      </trkpt>
      <trkpt lat="40.4521740" lon="-4.5897500">
        <ele>805.5</ele>
        <time>2019-08-13T16:20:32Z</time>
      </trkpt>
      <trkpt lat="40.4521760" lon="-4.5897940">
        <ele>805.7</ele>
        <time>2019-08-13T16:20:33Z</time>
      </trkpt>
      <trkpt lat="40.4521810" lon="-4.5898370">
        <ele>805.9</ele>
        <time>2019-08-13T16:20:34Z</time>
      </trkpt>
      <trkpt lat="40.4521870" lon="-4.5898800">
        <ele>806.0</ele>
        <time>2019-08-13T16:20:35Z</time>
      </trkpt>
      <trkpt lat="40.4521950" lon="-4.5899240">
        <ele>806.3</ele>
        <time>2019-08-13T16:20:36Z</time>
      </trkpt>
      <trkpt lat="40.4522010" lon="-4.5899680">
        <ele>806.4</ele>
        <time>2019-08-13T16:20:37Z</time>
      </trkpt>
      <trkpt lat="40.4522060" lon="-4.5900120">
        <ele>806.6</ele>
        <time>2019-08-13T16:20:38Z</time>
      </trkpt>
      <trkpt lat="40.4522110" lon="-4.5900560">
        <ele>806.7</ele>
        <time>2019-08-13T16:20:39Z</time>
      </trkpt>
      <trkpt lat="40.4522170" lon="-4.5900990">
        <ele>806.8</ele>
        <time>2019-08-13T16:20:40Z</time>
      </trkpt>
      <trkpt lat="40.4522220" lon="-4.5901430">
        <ele>806.9</ele>
        <time>2019-08-13T16:20:41Z</time>
      </trkpt>
      <trkpt lat="40.4522280" lon="-4.5901880">
        <ele>807.0</ele>
        <time>2019-08-13T16:20:42Z</time>
      </trkpt>
      <trkpt lat="40.4522330" lon="-4.5902320">
        <ele>807.1</ele>
        <time>2019-08-13T16:20:43Z</time>
      </trkpt>
      <trkpt lat="40.4522400" lon="-4.5902770">
        <ele>807.1</ele>
        <time>2019-08-13T16:20:44Z</time>
      </trkpt>
      <trkpt lat="40.4522460" lon="-4.5903220">
        <ele>807.2</ele>
        <time>2019-08-13T16:20:45Z</time>
      </trkpt>
      <trkpt lat="40.4522520" lon="-4.5903660">
        <ele>807.3</ele>
        <time>2019-08-13T16:20:46Z</time>
      </trkpt>
      <trkpt lat="40.4522580" lon="-4.5904100">
        <ele>807.3</ele>
        <time>2019-08-13T16:20:47Z</time>
      </trkpt>
      <trkpt lat="40.4522630" lon="-4.5904540">
        <ele>807.5</ele>
        <time>2019-08-13T16:20:48Z</time>
      </trkpt>
      <trkpt lat="40.4522690" lon="-4.5904990">
        <ele>807.6</ele>
        <time>2019-08-13T16:20:49Z</time>
      </trkpt>
      <trkpt lat="40.4522740" lon="-4.5905420">
        <ele>807.8</ele>
        <time>2019-08-13T16:20:50Z</time>
      </trkpt>
      <trkpt lat="40.4522790" lon="-4.5905860">
        <ele>807.9</ele>
        <time>2019-08-13T16:20:51Z</time>
      </trkpt>
      <trkpt lat="40.4522850" lon="-4.5906290">
        <ele>808.1</ele>
        <time>2019-08-13T16:20:52Z</time>
      </trkpt>
      <trkpt lat="40.4522910" lon="-4.5906730">
        <ele>808.4</ele>
        <time>2019-08-13T16:20:53Z</time>
      </trkpt>
      <trkpt lat="40.4522970" lon="-4.5907160">
        <ele>808.6</ele>
        <time>2019-08-13T16:20:54Z</time>
      </trkpt>
      <trkpt lat="40.4523030" lon="-4.5907610">
        <ele>808.8</ele>
        <time>2019-08-13T16:20:55Z</time>
      </trkpt>
      <trkpt lat="40.4523090" lon="-4.5908060">
        <ele>809.0</ele>
        <time>2019-08-13T16:20:56Z</time>
      </trkpt>
      <trkpt lat="40.4523140" lon="-4.5908510">
        <ele>809.2</ele>
        <time>2019-08-13T16:20:57Z</time>
      </trkpt>
      <trkpt lat="40.4523200" lon="-4.5908960">
        <ele>809.4</ele>
        <time>2019-08-13T16:20:58Z</time>
      </trkpt>
      <trkpt lat="40.4523260" lon="-4.5909420">
        <ele>809.5</ele>
        <time>2019-08-13T16:20:59Z</time>
      </trkpt>
      <trkpt lat="40.4523310" lon="-4.5909870">
        <ele>809.7</ele>
        <time>2019-08-13T16:21:00Z</time>
      </trkpt>
      <trkpt lat="40.4523360" lon="-4.5910320">
        <ele>809.8</ele>
        <time>2019-08-13T16:21:01Z</time>
      </trkpt>
      <trkpt lat="40.4523430" lon="-4.5910770">
        <ele>809.9</ele>
        <time>2019-08-13T16:21:02Z</time>
      </trkpt>
      <trkpt lat="40.4523490" lon="-4.5911210">
        <ele>810.0</ele>
        <time>2019-08-13T16:21:03Z</time>
      </trkpt>
      <trkpt lat="40.4523550" lon="-4.5911660">
        <ele>810.1</ele>
        <time>2019-08-13T16:21:04Z</time>
      </trkpt>
      <trkpt lat="40.4523600" lon="-4.5912100">
        <ele>810.1</ele>
        <time>2019-08-13T16:21:05Z</time>
      </trkpt>
      <trkpt lat="40.4523640" lon="-4.5912550">
        <ele>810.2</ele>
        <time>2019-08-13T16:21:06Z</time>
      </trkpt>
      <trkpt lat="40.4523690" lon="-4.5913000">
        <ele>810.2</ele>
        <time>2019-08-13T16:21:07Z</time>
      </trkpt>
      <trkpt lat="40.4523740" lon="-4.5913440">
        <ele>810.3</ele>
        <time>2019-08-13T16:21:08Z</time>
      </trkpt>
      <trkpt lat="40.4523790" lon="-4.5913880">
        <ele>810.3</ele>
        <time>2019-08-13T16:21:09Z</time>
      </trkpt>
      <trkpt lat="40.4523850" lon="-4.5914310">
        <ele>810.3</ele>
        <time>2019-08-13T16:21:10Z</time>
      </trkpt>
      <trkpt lat="40.4523900" lon="-4.5914740">
        <ele>810.4</ele>
        <time>2019-08-13T16:21:11Z</time>
      </trkpt>
      <trkpt lat="40.4523950" lon="-4.5915180">
        <ele>810.5</ele>
        <time>2019-08-13T16:21:12Z</time>
      </trkpt>
      <trkpt lat="40.4523990" lon="-4.5915610">
        <ele>810.6</ele>
        <time>2019-08-13T16:21:13Z</time>
      </trkpt>
      <trkpt lat="40.4524040" lon="-4.5916050">
        <ele>810.7</ele>
        <time>2019-08-13T16:21:14Z</time>
      </trkpt>
      <trkpt lat="40.4524080" lon="-4.5916480">
        <ele>810.8</ele>
        <time>2019-08-13T16:21:15Z</time>
      </trkpt>
      <trkpt lat="40.4524130" lon="-4.5916910">
        <ele>811.0</ele>
        <time>2019-08-13T16:21:16Z</time>
      </trkpt>
      <trkpt lat="40.4524180" lon="-4.5917340">
        <ele>811.1</ele>
        <time>2019-08-13T16:21:17Z</time>
      </trkpt>
      <trkpt lat="40.4524240" lon="-4.5917760">
        <ele>811.2</ele>
        <time>2019-08-13T16:21:18Z</time>
      </trkpt>
      <trkpt lat="40.4524280" lon="-4.5918180">
        <ele>811.3</ele>
        <time>2019-08-13T16:21:19Z</time>
      </trkpt>
      <trkpt lat="40.4524310" lon="-4.5918590">
        <ele>811.4</ele>
        <time>2019-08-13T16:21:20Z</time>
      </trkpt>
      <trkpt lat="40.4524340" lon="-4.5919010">
        <ele>811.5</ele>
        <time>2019-08-13T16:21:21Z</time>
      </trkpt>
      <trkpt lat="40.4524370" lon="-4.5919430">
        <ele>811.6</ele>
        <time>2019-08-13T16:21:22Z</time>
      </trkpt>
      <trkpt lat="40.4524400" lon="-4.5919850">
        <ele>811.7</ele>
        <time>2019-08-13T16:21:23Z</time>
      </trkpt>
      <trkpt lat="40.4524430" lon="-4.5920270">
        <ele>811.8</ele>
        <time>2019-08-13T16:21:24Z</time>
      </trkpt>
      <trkpt lat="40.4524460" lon="-4.5920700">
        <ele>811.9</ele>
        <time>2019-08-13T16:21:25Z</time>
      </trkpt>
      <trkpt lat="40.4524500" lon="-4.5921130">
        <ele>812.0</ele>
        <time>2019-08-13T16:21:26Z</time>
      </trkpt>
      <trkpt lat="40.4524540" lon="-4.5921550">
        <ele>812.1</ele>
        <time>2019-08-13T16:21:27Z</time>
      </trkpt>
      <trkpt lat="40.4524570" lon="-4.5921980">
        <ele>812.2</ele>
        <time>2019-08-13T16:21:28Z</time>
      </trkpt>
      <trkpt lat="40.4524590" lon="-4.5922410">
        <ele>812.4</ele>
        <time>2019-08-13T16:21:29Z</time>
      </trkpt>
      <trkpt lat="40.4524630" lon="-4.5922840">
        <ele>812.5</ele>
        <time>2019-08-13T16:21:30Z</time>
      </trkpt>
      <trkpt lat="40.4524660" lon="-4.5923270">
        <ele>812.6</ele>
        <time>2019-08-13T16:21:31Z</time>
      </trkpt>
      <trkpt lat="40.4524690" lon="-4.5923690">
        <ele>812.7</ele>
        <time>2019-08-13T16:21:32Z</time>
      </trkpt>
      <trkpt lat="40.4524720" lon="-4.5924110">
        <ele>812.8</ele>
        <time>2019-08-13T16:21:33Z</time>
      </trkpt>
      <trkpt lat="40.4524740" lon="-4.5924530">
        <ele>812.9</ele>
        <time>2019-08-13T16:21:34Z</time>
      </trkpt>
      <trkpt lat="40.4524760" lon="-4.5924950">
        <ele>813.0</ele>
        <time>2019-08-13T16:21:35Z</time>
      </trkpt>
      <trkpt lat="40.4524800" lon="-4.5925370">
        <ele>813.1</ele>
        <time>2019-08-13T16:21:36Z</time>
      </trkpt>
      <trkpt lat="40.4524820" lon="-4.5925780">
        <ele>813.2</ele>
        <time>2019-08-13T16:21:37Z</time>
      </trkpt>
      <trkpt lat="40.4524840" lon="-4.5926200">
        <ele>813.3</ele>
        <time>2019-08-13T16:21:38Z</time>
      </trkpt>
      <trkpt lat="40.4524870" lon="-4.5926610">
        <ele>813.3</ele>
        <time>2019-08-13T16:21:39Z</time>
      </trkpt>
      <trkpt lat="40.4524900" lon="-4.5927020">
        <ele>813.4</ele>
        <time>2019-08-13T16:21:40Z</time>
      </trkpt>
      <trkpt lat="40.4524920" lon="-4.5927440">
        <ele>813.5</ele>
        <time>2019-08-13T16:21:41Z</time>
      </trkpt>
      <trkpt lat="40.4524950" lon="-4.5927840">
        <ele>813.6</ele>
        <time>2019-08-13T16:21:42Z</time>
      </trkpt>
      <trkpt lat="40.4524980" lon="-4.5928250">
        <ele>813.7</ele>
        <time>2019-08-13T16:21:43Z</time>
      </trkpt>
      <trkpt lat="40.4525000" lon="-4.5928650">
        <ele>813.8</ele>
        <time>2019-08-13T16:21:44Z</time>
      </trkpt>
      <trkpt lat="40.4525020" lon="-4.5929050">
        <ele>813.9</ele>
        <time>2019-08-13T16:21:45Z</time>
      </trkpt>
      <trkpt lat="40.4525050" lon="-4.5929450">
        <ele>814.0</ele>
        <time>2019-08-13T16:21:46Z</time>
      </trkpt>
      <trkpt lat="40.4525070" lon="-4.5929850">
        <ele>814.1</ele>
        <time>2019-08-13T16:21:47Z</time>
      </trkpt>
      <trkpt lat="40.4525090" lon="-4.5930240">
        <ele>814.2</ele>
        <time>2019-08-13T16:21:48Z</time>
      </trkpt>
      <trkpt lat="40.4525120" lon="-4.5930640">
        <ele>814.3</ele>
        <time>2019-08-13T16:21:49Z</time>
      </trkpt>
      <trkpt lat="40.4525150" lon="-4.5931030">
        <ele>814.4</ele>
        <time>2019-08-13T16:21:50Z</time>
      </trkpt>
      <trkpt lat="40.4525170" lon="-4.5931420">
        <ele>814.5</ele>
        <time>2019-08-13T16:21:51Z</time>
      </trkpt>
      <trkpt lat="40.4525200" lon="-4.5931800">
        <ele>814.6</ele>
        <time>2019-08-13T16:21:52Z</time>
      </trkpt>
      <trkpt lat="40.4525220" lon="-4.5932170">
        <ele>814.7</ele>
        <time>2019-08-13T16:21:53Z</time>
      </trkpt>
      <trkpt lat="40.4525240" lon="-4.5932530">
        <ele>814.8</ele>
        <time>2019-08-13T16:21:54Z</time>
      </trkpt>
      <trkpt lat="40.4525260" lon="-4.5932890">
        <ele>814.9</ele>
        <time>2019-08-13T16:21:55Z</time>
      </trkpt>
      <trkpt lat="40.4525280" lon="-4.5933250">
        <ele>815.0</ele>
        <time>2019-08-13T16:21:56Z</time>
      </trkpt>
      <trkpt lat="40.4525310" lon="-4.5933960">
        <ele>815.2</ele>
        <time>2019-08-13T16:21:58Z</time>
      </trkpt>
      <trkpt lat="40.4525330" lon="-4.5934310">
        <ele>815.3</ele>
        <time>2019-08-13T16:21:59Z</time>
      </trkpt>
      <trkpt lat="40.4525360" lon="-4.5934680">
        <ele>815.5</ele>
        <time>2019-08-13T16:22:00Z</time>
      </trkpt>
      <trkpt lat="40.4525380" lon="-4.5935050">
        <ele>815.7</ele>
        <time>2019-08-13T16:22:01Z</time>
      </trkpt>
      <trkpt lat="40.4525410" lon="-4.5935430">
        <ele>815.8</ele>
        <time>2019-08-13T16:22:02Z</time>
      </trkpt>
      <trkpt lat="40.4525430" lon="-4.5935820">
        <ele>816.0</ele>
        <time>2019-08-13T16:22:03Z</time>
      </trkpt>
      <trkpt lat="40.4525450" lon="-4.5936200">
        <ele>816.1</ele>
        <time>2019-08-13T16:22:04Z</time>
      </trkpt>
      <trkpt lat="40.4525490" lon="-4.5936900">
        <ele>816.2</ele>
        <time>2019-08-13T16:22:06Z</time>
      </trkpt>
      <trkpt lat="40.4525510" lon="-4.5937270">
        <ele>816.3</ele>
        <time>2019-08-13T16:22:07Z</time>
      </trkpt>
      <trkpt lat="40.4525540" lon="-4.5937660">
        <ele>816.4</ele>
        <time>2019-08-13T16:22:08Z</time>
      </trkpt>
      <trkpt lat="40.4525560" lon="-4.5938050">
        <ele>816.4</ele>
        <time>2019-08-13T16:22:09Z</time>
      </trkpt>
      <trkpt lat="40.4525580" lon="-4.5938440">
        <ele>816.5</ele>
        <time>2019-08-13T16:22:10Z</time>
      </trkpt>
      <trkpt lat="40.4525600" lon="-4.5938820">
        <ele>816.6</ele>
        <time>2019-08-13T16:22:11Z</time>
      </trkpt>
      <trkpt lat="40.4525620" lon="-4.5939190">
        <ele>816.6</ele>
        <time>2019-08-13T16:22:12Z</time>
      </trkpt>
      <trkpt lat="40.4525650" lon="-4.5939560">
        <ele>816.6</ele>
        <time>2019-08-13T16:22:13Z</time>
      </trkpt>
      <trkpt lat="40.4525670" lon="-4.5939920">
        <ele>816.7</ele>
        <time>2019-08-13T16:22:14Z</time>
      </trkpt>
      <trkpt lat="40.4525700" lon="-4.5940590">
        <ele>816.8</ele>
        <time>2019-08-13T16:22:16Z</time>
      </trkpt>
      <trkpt lat="40.4525730" lon="-4.5940940">
        <ele>816.8</ele>
        <time>2019-08-13T16:22:17Z</time>
      </trkpt>
      <trkpt lat="40.4525750" lon="-4.5941300">
        <ele>816.8</ele>
        <time>2019-08-13T16:22:18Z</time>
      </trkpt>
      <trkpt lat="40.4525770" lon="-4.5941660">
        <ele>816.8</ele>
        <time>2019-08-13T16:22:19Z</time>
      </trkpt>
      <trkpt lat="40.4525790" lon="-4.5942030">
        <ele>816.8</ele>
        <time>2019-08-13T16:22:20Z</time>
      </trkpt>
      <trkpt lat="40.4525810" lon="-4.5942410">
        <ele>816.9</ele>
        <time>2019-08-13T16:22:21Z</time>
      </trkpt>
      <trkpt lat="40.4525830" lon="-4.5942790">
        <ele>816.9</ele>
        <time>2019-08-13T16:22:22Z</time>
      </trkpt>
      <trkpt lat="40.4525850" lon="-4.5943180">
        <ele>816.9</ele>
        <time>2019-08-13T16:22:23Z</time>
      </trkpt>
      <trkpt lat="40.4525870" lon="-4.5943580">
        <ele>816.9</ele>
        <time>2019-08-13T16:22:24Z</time>
      </trkpt>
      <trkpt lat="40.4525900" lon="-4.5943970">
        <ele>816.9</ele>
        <time>2019-08-13T16:22:25Z</time>
      </trkpt>
      <trkpt lat="40.4525920" lon="-4.5944370">
        <ele>816.9</ele>
        <time>2019-08-13T16:22:26Z</time>
      </trkpt>
      <trkpt lat="40.4525950" lon="-4.5944760">
        <ele>817.0</ele>
        <time>2019-08-13T16:22:27Z</time>
      </trkpt>
      <trkpt lat="40.4525980" lon="-4.5945160">
        <ele>817.0</ele>
        <time>2019-08-13T16:22:28Z</time>
      </trkpt>
      <trkpt lat="40.4526000" lon="-4.5945560">
        <ele>817.0</ele>
        <time>2019-08-13T16:22:29Z</time>
      </trkpt>
      <trkpt lat="40.4526020" lon="-4.5945970">
        <ele>817.1</ele>
        <time>2019-08-13T16:22:30Z</time>
      </trkpt>
      <trkpt lat="40.4526050" lon="-4.5946370">
        <ele>817.2</ele>
        <time>2019-08-13T16:22:31Z</time>
      </trkpt>
      <trkpt lat="40.4526070" lon="-4.5946780">
        <ele>817.2</ele>
        <time>2019-08-13T16:22:32Z</time>
      </trkpt>
      <trkpt lat="40.4526090" lon="-4.5947190">
        <ele>817.3</ele>
        <time>2019-08-13T16:22:33Z</time>
      </trkpt>
      <trkpt lat="40.4526100" lon="-4.5947600">
        <ele>817.4</ele>
        <time>2019-08-13T16:22:34Z</time>
      </trkpt>
      <trkpt lat="40.4526130" lon="-4.5948010">
        <ele>817.5</ele>
        <time>2019-08-13T16:22:35Z</time>
      </trkpt>
      <trkpt lat="40.4526160" lon="-4.5948410">
        <ele>817.7</ele>
        <time>2019-08-13T16:22:36Z</time>
      </trkpt>
      <trkpt lat="40.4526170" lon="-4.5948820">
        <ele>817.8</ele>
        <time>2019-08-13T16:22:37Z</time>
      </trkpt>
      <trkpt lat="40.4526190" lon="-4.5949210">
        <ele>817.9</ele>
        <time>2019-08-13T16:22:38Z</time>
      </trkpt>
      <trkpt lat="40.4526210" lon="-4.5949610">
        <ele>818.0</ele>
        <time>2019-08-13T16:22:39Z</time>
      </trkpt>
      <trkpt lat="40.4526250" lon="-4.5950010">
        <ele>818.1</ele>
        <time>2019-08-13T16:22:40Z</time>
      </trkpt>
      <trkpt lat="40.4526290" lon="-4.5950410">
        <ele>818.2</ele>
        <time>2019-08-13T16:22:41Z</time>
      </trkpt>
      <trkpt lat="40.4526330" lon="-4.5950810">
        <ele>818.3</ele>
        <time>2019-08-13T16:22:42Z</time>
      </trkpt>
      <trkpt lat="40.4526360" lon="-4.5951220">
        <ele>818.4</ele>
        <time>2019-08-13T16:22:43Z</time>
      </trkpt>
      <trkpt lat="40.4526390" lon="-4.5951630">
        <ele>818.6</ele>
        <time>2019-08-13T16:22:44Z</time>
      </trkpt>
      <trkpt lat="40.4526420" lon="-4.5952050">
        <ele>818.7</ele>
        <time>2019-08-13T16:22:45Z</time>
      </trkpt>
      <trkpt lat="40.4526450" lon="-4.5952470">
        <ele>818.7</ele>
        <time>2019-08-13T16:22:46Z</time>
      </trkpt>
      <trkpt lat="40.4526480" lon="-4.5952900">
        <ele>818.7</ele>
        <time>2019-08-13T16:22:47Z</time>
      </trkpt>
      <trkpt lat="40.4526520" lon="-4.5953330">
        <ele>818.7</ele>
        <time>2019-08-13T16:22:48Z</time>
      </trkpt>
      <trkpt lat="40.4526550" lon="-4.5953760">
        <ele>818.8</ele>
        <time>2019-08-13T16:22:49Z</time>
      </trkpt>
      <trkpt lat="40.4526590" lon="-4.5954190">
        <ele>818.8</ele>
        <time>2019-08-13T16:22:50Z</time>
      </trkpt>
      <trkpt lat="40.4526650" lon="-4.5954630">
        <ele>818.8</ele>
        <time>2019-08-13T16:22:51Z</time>
      </trkpt>
      <trkpt lat="40.4526700" lon="-4.5955080">
        <ele>818.8</ele>
        <time>2019-08-13T16:22:52Z</time>
      </trkpt>
      <trkpt lat="40.4526750" lon="-4.5955530">
        <ele>818.8</ele>
        <time>2019-08-13T16:22:53Z</time>
      </trkpt>
      <trkpt lat="40.4526800" lon="-4.5955960">
        <ele>818.9</ele>
        <time>2019-08-13T16:22:54Z</time>
      </trkpt>
      <trkpt lat="40.4526850" lon="-4.5956370">
        <ele>818.9</ele>
        <time>2019-08-13T16:22:55Z</time>
      </trkpt>
      <trkpt lat="40.4526910" lon="-4.5956790">
        <ele>818.9</ele>
        <time>2019-08-13T16:22:56Z</time>
      </trkpt>
      <trkpt lat="40.4526980" lon="-4.5957220">
        <ele>818.9</ele>
        <time>2019-08-13T16:22:57Z</time>
      </trkpt>
      <trkpt lat="40.4527060" lon="-4.5957660">
        <ele>818.9</ele>
        <time>2019-08-13T16:22:58Z</time>
      </trkpt>
      <trkpt lat="40.4527140" lon="-4.5958110">
        <ele>818.9</ele>
        <time>2019-08-13T16:22:59Z</time>
      </trkpt>
      <trkpt lat="40.4527230" lon="-4.5958550">
        <ele>818.9</ele>
        <time>2019-08-13T16:23:00Z</time>
      </trkpt>
      <trkpt lat="40.4527310" lon="-4.5959000">
        <ele>818.9</ele>
        <time>2019-08-13T16:23:01Z</time>
      </trkpt>
      <trkpt lat="40.4527400" lon="-4.5959440">
        <ele>818.9</ele>
        <time>2019-08-13T16:23:02Z</time>
      </trkpt>
      <trkpt lat="40.4527490" lon="-4.5959880">
        <ele>818.9</ele>
        <time>2019-08-13T16:23:03Z</time>
      </trkpt>
      <trkpt lat="40.4527590" lon="-4.5960320">
        <ele>818.9</ele>
        <time>2019-08-13T16:23:04Z</time>
      </trkpt>
      <trkpt lat="40.4527690" lon="-4.5960750">
        <ele>818.9</ele>
        <time>2019-08-13T16:23:05Z</time>
      </trkpt>
      <trkpt lat="40.4527810" lon="-4.5961190">
        <ele>819.0</ele>
        <time>2019-08-13T16:23:06Z</time>
      </trkpt>
      <trkpt lat="40.4527920" lon="-4.5961640">
        <ele>819.0</ele>
        <time>2019-08-13T16:23:07Z</time>
      </trkpt>
      <trkpt lat="40.4528040" lon="-4.5962080">
        <ele>819.0</ele>
        <time>2019-08-13T16:23:08Z</time>
      </trkpt>
      <trkpt lat="40.4528160" lon="-4.5962530">
        <ele>819.0</ele>
        <time>2019-08-13T16:23:09Z</time>
      </trkpt>
      <trkpt lat="40.4528300" lon="-4.5962970">
        <ele>819.0</ele>
        <time>2019-08-13T16:23:10Z</time>
      </trkpt>
      <trkpt lat="40.4528430" lon="-4.5963410">
        <ele>819.1</ele>
        <time>2019-08-13T16:23:11Z</time>
      </trkpt>
      <trkpt lat="40.4528550" lon="-4.5963850">
        <ele>819.1</ele>
        <time>2019-08-13T16:23:12Z</time>
      </trkpt>
      <trkpt lat="40.4528680" lon="-4.5964290">
        <ele>819.1</ele>
        <time>2019-08-13T16:23:13Z</time>
      </trkpt>
      <trkpt lat="40.4528810" lon="-4.5964720">
        <ele>819.2</ele>
        <time>2019-08-13T16:23:14Z</time>
      </trkpt>
      <trkpt lat="40.4528940" lon="-4.5965150">
        <ele>819.2</ele>
        <time>2019-08-13T16:23:15Z</time>
      </trkpt>
      <trkpt lat="40.4529060" lon="-4.5965580">
        <ele>819.2</ele>
        <time>2019-08-13T16:23:16Z</time>
      </trkpt>
      <trkpt lat="40.4529190" lon="-4.5966000">
        <ele>819.3</ele>
        <time>2019-08-13T16:23:17Z</time>
      </trkpt>
      <trkpt lat="40.4529320" lon="-4.5966380">
        <ele>819.3</ele>
        <time>2019-08-13T16:23:18Z</time>
      </trkpt>
      <trkpt lat="40.4529450" lon="-4.5966760">
        <ele>819.4</ele>
        <time>2019-08-13T16:23:19Z</time>
      </trkpt>
      <trkpt lat="40.4529590" lon="-4.5967150">
        <ele>819.4</ele>
        <time>2019-08-13T16:23:20Z</time>
      </trkpt>
      <trkpt lat="40.4529710" lon="-4.5967570">
        <ele>819.4</ele>
        <time>2019-08-13T16:23:21Z</time>
      </trkpt>
      <trkpt lat="40.4529830" lon="-4.5967980">
        <ele>819.5</ele>
        <time>2019-08-13T16:23:22Z</time>
      </trkpt>
      <trkpt lat="40.4529960" lon="-4.5968400">
        <ele>819.5</ele>
        <time>2019-08-13T16:23:23Z</time>
      </trkpt>
      <trkpt lat="40.4530080" lon="-4.5968830">
        <ele>819.6</ele>
        <time>2019-08-13T16:23:24Z</time>
      </trkpt>
      <trkpt lat="40.4530220" lon="-4.5969250">
        <ele>819.6</ele>
        <time>2019-08-13T16:23:25Z</time>
      </trkpt>
      <trkpt lat="40.4530360" lon="-4.5969690">
        <ele>819.7</ele>
        <time>2019-08-13T16:23:26Z</time>
      </trkpt>
      <trkpt lat="40.4530500" lon="-4.5970130">
        <ele>819.7</ele>
        <time>2019-08-13T16:23:27Z</time>
      </trkpt>
      <trkpt lat="40.4530640" lon="-4.5970560">
        <ele>819.8</ele>
        <time>2019-08-13T16:23:28Z</time>
      </trkpt>
      <trkpt lat="40.4530770" lon="-4.5970980">
        <ele>819.8</ele>
        <time>2019-08-13T16:23:29Z</time>
      </trkpt>
      <trkpt lat="40.4530890" lon="-4.5971380">
        <ele>819.9</ele>
        <time>2019-08-13T16:23:30Z</time>
      </trkpt>
      <trkpt lat="40.4531010" lon="-4.5971800">
        <ele>819.9</ele>
        <time>2019-08-13T16:23:31Z</time>
      </trkpt>
      <trkpt lat="40.4531150" lon="-4.5972240">
        <ele>819.9</ele>
        <time>2019-08-13T16:23:32Z</time>
      </trkpt>
      <trkpt lat="40.4531300" lon="-4.5972720">
        <ele>820.0</ele>
        <time>2019-08-13T16:23:33Z</time>
      </trkpt>
      <trkpt lat="40.4531470" lon="-4.5973230">
        <ele>820.1</ele>
        <time>2019-08-13T16:23:34Z</time>
      </trkpt>
      <trkpt lat="40.4531620" lon="-4.5973750">
        <ele>820.1</ele>
        <time>2019-08-13T16:23:35Z</time>
      </trkpt>
      <trkpt lat="40.4531770" lon="-4.5974260">
        <ele>820.2</ele>
        <time>2019-08-13T16:23:36Z</time>
      </trkpt>
      <trkpt lat="40.4531920" lon="-4.5974740">
        <ele>820.2</ele>
        <time>2019-08-13T16:23:37Z</time>
      </trkpt>
      <trkpt lat="40.4532050" lon="-4.5975180">
        <ele>820.3</ele>
        <time>2019-08-13T16:23:38Z</time>
      </trkpt>
      <trkpt lat="40.4532200" lon="-4.5975620">
        <ele>820.4</ele>
        <time>2019-08-13T16:23:39Z</time>
      </trkpt>
      <trkpt lat="40.4532350" lon="-4.5976050">
        <ele>820.4</ele>
        <time>2019-08-13T16:23:40Z</time>
      </trkpt>
      <trkpt lat="40.4532480" lon="-4.5976520">
        <ele>820.5</ele>
        <time>2019-08-13T16:23:41Z</time>
      </trkpt>
      <trkpt lat="40.4532610" lon="-4.5977010">
        <ele>820.7</ele>
        <time>2019-08-13T16:23:42Z</time>
      </trkpt>
      <trkpt lat="40.4532760" lon="-4.5977510">
        <ele>820.9</ele>
        <time>2019-08-13T16:23:43Z</time>
      </trkpt>
      <trkpt lat="40.4532940" lon="-4.5978020">
        <ele>821.0</ele>
        <time>2019-08-13T16:23:44Z</time>
      </trkpt>
      <trkpt lat="40.4533110" lon="-4.5978530">
        <ele>821.2</ele>
        <time>2019-08-13T16:23:45Z</time>
      </trkpt>
      <trkpt lat="40.4533270" lon="-4.5979040">
        <ele>821.3</ele>
        <time>2019-08-13T16:23:46Z</time>
      </trkpt>
      <trkpt lat="40.4533410" lon="-4.5979540">
        <ele>821.4</ele>
        <time>2019-08-13T16:23:47Z</time>
      </trkpt>
      <trkpt lat="40.4533550" lon="-4.5980000">
        <ele>821.5</ele>
        <time>2019-08-13T16:23:48Z</time>
      </trkpt>
      <trkpt lat="40.4533680" lon="-4.5980440">
        <ele>821.6</ele>
        <time>2019-08-13T16:23:49Z</time>
      </trkpt>
      <trkpt lat="40.4533830" lon="-4.5980890">
        <ele>821.7</ele>
        <time>2019-08-13T16:23:50Z</time>
      </trkpt>
      <trkpt lat="40.4533980" lon="-4.5981350">
        <ele>821.8</ele>
        <time>2019-08-13T16:23:51Z</time>
      </trkpt>
      <trkpt lat="40.4534130" lon="-4.5981820">
        <ele>821.9</ele>
        <time>2019-08-13T16:23:52Z</time>
      </trkpt>
      <trkpt lat="40.4534280" lon="-4.5982300">
        <ele>822.0</ele>
        <time>2019-08-13T16:23:53Z</time>
      </trkpt>
      <trkpt lat="40.4534420" lon="-4.5982780">
        <ele>822.1</ele>
        <time>2019-08-13T16:23:54Z</time>
      </trkpt>
      <trkpt lat="40.4534570" lon="-4.5983260">
        <ele>822.2</ele>
        <time>2019-08-13T16:23:55Z</time>
      </trkpt>
      <trkpt lat="40.4534720" lon="-4.5983730">
        <ele>822.3</ele>
        <time>2019-08-13T16:23:56Z</time>
      </trkpt>
      <trkpt lat="40.4534850" lon="-4.5984180">
        <ele>822.5</ele>
        <time>2019-08-13T16:23:57Z</time>
      </trkpt>
      <trkpt lat="40.4535000" lon="-4.5984640">
        <ele>822.6</ele>
        <time>2019-08-13T16:23:58Z</time>
      </trkpt>
      <trkpt lat="40.4535140" lon="-4.5985110">
        <ele>822.8</ele>
        <time>2019-08-13T16:23:59Z</time>
      </trkpt>
      <trkpt lat="40.4535280" lon="-4.5985540">
        <ele>822.9</ele>
        <time>2019-08-13T16:24:00Z</time>
      </trkpt>
      <trkpt lat="40.4535410" lon="-4.5985940">
        <ele>823.1</ele>
        <time>2019-08-13T16:24:01Z</time>
      </trkpt>
      <trkpt lat="40.4535520" lon="-4.5986320">
        <ele>823.2</ele>
        <time>2019-08-13T16:24:02Z</time>
      </trkpt>
      <trkpt lat="40.4535640" lon="-4.5986710">
        <ele>823.4</ele>
        <time>2019-08-13T16:24:03Z</time>
      </trkpt>
      <trkpt lat="40.4535780" lon="-4.5987140">
        <ele>823.5</ele>
        <time>2019-08-13T16:24:04Z</time>
      </trkpt>
      <trkpt lat="40.4535930" lon="-4.5987580">
        <ele>823.7</ele>
        <time>2019-08-13T16:24:05Z</time>
      </trkpt>
      <trkpt lat="40.4536080" lon="-4.5988020">
        <ele>823.9</ele>
        <time>2019-08-13T16:24:06Z</time>
      </trkpt>
      <trkpt lat="40.4536210" lon="-4.5988450">
        <ele>824.1</ele>
        <time>2019-08-13T16:24:07Z</time>
      </trkpt>
      <trkpt lat="40.4536340" lon="-4.5988860">
        <ele>824.2</ele>
        <time>2019-08-13T16:24:08Z</time>
      </trkpt>
      <trkpt lat="40.4536460" lon="-4.5989250">
        <ele>824.4</ele>
        <time>2019-08-13T16:24:09Z</time>
      </trkpt>
      <trkpt lat="40.4536560" lon="-4.5989650">
        <ele>824.5</ele>
        <time>2019-08-13T16:24:10Z</time>
      </trkpt>
      <trkpt lat="40.4536680" lon="-4.5990070">
        <ele>824.7</ele>
        <time>2019-08-13T16:24:11Z</time>
      </trkpt>
      <trkpt lat="40.4536820" lon="-4.5990490">
        <ele>824.8</ele>
        <time>2019-08-13T16:24:12Z</time>
      </trkpt>
      <trkpt lat="40.4536960" lon="-4.5990930">
        <ele>825.0</ele>
        <time>2019-08-13T16:24:13Z</time>
      </trkpt>
      <trkpt lat="40.4537100" lon="-4.5991370">
        <ele>825.1</ele>
        <time>2019-08-13T16:24:14Z</time>
      </trkpt>
      <trkpt lat="40.4537230" lon="-4.5991810">
        <ele>825.2</ele>
        <time>2019-08-13T16:24:15Z</time>
      </trkpt>
      <trkpt lat="40.4537370" lon="-4.5992230">
        <ele>825.3</ele>
        <time>2019-08-13T16:24:16Z</time>
      </trkpt>
      <trkpt lat="40.4537510" lon="-4.5992660">
        <ele>825.4</ele>
        <time>2019-08-13T16:24:17Z</time>
      </trkpt>
      <trkpt lat="40.4537640" lon="-4.5993090">
        <ele>825.5</ele>
        <time>2019-08-13T16:24:18Z</time>
      </trkpt>
      <trkpt lat="40.4537750" lon="-4.5993520">
        <ele>825.6</ele>
        <time>2019-08-13T16:24:19Z</time>
      </trkpt>
      <trkpt lat="40.4537870" lon="-4.5993940">
        <ele>825.7</ele>
        <time>2019-08-13T16:24:20Z</time>
      </trkpt>
      <trkpt lat="40.4538000" lon="-4.5994360">
        <ele>825.8</ele>
        <time>2019-08-13T16:24:21Z</time>
      </trkpt>
      <trkpt lat="40.4538140" lon="-4.5994760">
        <ele>825.8</ele>
        <time>2019-08-13T16:24:22Z</time>
      </trkpt>
      <trkpt lat="40.4538270" lon="-4.5995170">
        <ele>825.9</ele>
        <time>2019-08-13T16:24:23Z</time>
      </trkpt>
      <trkpt lat="40.4538410" lon="-4.5995590">
        <ele>826.0</ele>
        <time>2019-08-13T16:24:24Z</time>
      </trkpt>
      <trkpt lat="40.4538540" lon="-4.5996020">
        <ele>826.0</ele>
        <time>2019-08-13T16:24:25Z</time>
      </trkpt>
      <trkpt lat="40.4538670" lon="-4.5996440">
        <ele>826.1</ele>
        <time>2019-08-13T16:24:26Z</time>
      </trkpt>
      <trkpt lat="40.4538810" lon="-4.5996870">
        <ele>826.1</ele>
        <time>2019-08-13T16:24:27Z</time>
      </trkpt>
      <trkpt lat="40.4538940" lon="-4.5997300">
        <ele>826.2</ele>
        <time>2019-08-13T16:24:28Z</time>
      </trkpt>
      <trkpt lat="40.4539050" lon="-4.5997730">
        <ele>826.3</ele>
        <time>2019-08-13T16:24:29Z</time>
      </trkpt>
      <trkpt lat="40.4539170" lon="-4.5998140">
        <ele>826.3</ele>
        <time>2019-08-13T16:24:30Z</time>
      </trkpt>
      <trkpt lat="40.4539310" lon="-4.5998560">
        <ele>826.3</ele>
        <time>2019-08-13T16:24:31Z</time>
      </trkpt>
      <trkpt lat="40.4539460" lon="-4.5998980">
        <ele>826.4</ele>
        <time>2019-08-13T16:24:32Z</time>
      </trkpt>
      <trkpt lat="40.4539600" lon="-4.5999400">
        <ele>826.4</ele>
        <time>2019-08-13T16:24:33Z</time>
      </trkpt>
      <trkpt lat="40.4539730" lon="-4.5999830">
        <ele>826.4</ele>
        <time>2019-08-13T16:24:34Z</time>
      </trkpt>
      <trkpt lat="40.4539860" lon="-4.6000260">
        <ele>826.5</ele>
        <time>2019-08-13T16:24:35Z</time>
      </trkpt>
      <trkpt lat="40.4539990" lon="-4.6000700">
        <ele>826.5</ele>
        <time>2019-08-13T16:24:36Z</time>
      </trkpt>
      <trkpt lat="40.4540130" lon="-4.6001130">
        <ele>826.5</ele>
        <time>2019-08-13T16:24:37Z</time>
      </trkpt>
      <trkpt lat="40.4540270" lon="-4.6001580">
        <ele>826.6</ele>
        <time>2019-08-13T16:24:38Z</time>
      </trkpt>
      <trkpt lat="40.4540420" lon="-4.6002010">
        <ele>826.6</ele>
        <time>2019-08-13T16:24:39Z</time>
      </trkpt>
      <trkpt lat="40.4540550" lon="-4.6002410">
        <ele>826.6</ele>
        <time>2019-08-13T16:24:40Z</time>
      </trkpt>
      <trkpt lat="40.4540670" lon="-4.6002810">
        <ele>826.7</ele>
        <time>2019-08-13T16:24:41Z</time>
      </trkpt>
      <trkpt lat="40.4540790" lon="-4.6003220">
        <ele>826.8</ele>
        <time>2019-08-13T16:24:42Z</time>
      </trkpt>
      <trkpt lat="40.4540920" lon="-4.6003640">
        <ele>826.8</ele>
        <time>2019-08-13T16:24:43Z</time>
      </trkpt>
      <trkpt lat="40.4541070" lon="-4.6004060">
        <ele>826.9</ele>
        <time>2019-08-13T16:24:44Z</time>
      </trkpt>
      <trkpt lat="40.4541210" lon="-4.6004490">
        <ele>827.0</ele>
        <time>2019-08-13T16:24:45Z</time>
      </trkpt>
      <trkpt lat="40.4541340" lon="-4.6004920">
        <ele>827.0</ele>
        <time>2019-08-13T16:24:46Z</time>
      </trkpt>
      <trkpt lat="40.4541470" lon="-4.6005350">
        <ele>827.1</ele>
        <time>2019-08-13T16:24:47Z</time>
      </trkpt>
      <trkpt lat="40.4541600" lon="-4.6005780">
        <ele>827.1</ele>
        <time>2019-08-13T16:24:48Z</time>
      </trkpt>
      <trkpt lat="40.4541740" lon="-4.6006210">
        <ele>827.2</ele>
        <time>2019-08-13T16:24:49Z</time>
      </trkpt>
      <trkpt lat="40.4541890" lon="-4.6006640">
        <ele>827.3</ele>
        <time>2019-08-13T16:24:50Z</time>
      </trkpt>
      <trkpt lat="40.4542030" lon="-4.6007070">
        <ele>827.3</ele>
        <time>2019-08-13T16:24:51Z</time>
      </trkpt>
      <trkpt lat="40.4542140" lon="-4.6007460">
        <ele>827.3</ele>
        <time>2019-08-13T16:24:52Z</time>
      </trkpt>
      <trkpt lat="40.4542260" lon="-4.6007860">
        <ele>827.4</ele>
        <time>2019-08-13T16:24:53Z</time>
      </trkpt>
      <trkpt lat="40.4542390" lon="-4.6008270">
        <ele>827.4</ele>
        <time>2019-08-13T16:24:54Z</time>
      </trkpt>
      <trkpt lat="40.4542520" lon="-4.6008700">
        <ele>827.4</ele>
        <time>2019-08-13T16:24:55Z</time>
      </trkpt>
      <trkpt lat="40.4542660" lon="-4.6009140">
        <ele>827.5</ele>
        <time>2019-08-13T16:24:56Z</time>
      </trkpt>
      <trkpt lat="40.4542800" lon="-4.6009580">
        <ele>827.5</ele>
        <time>2019-08-13T16:24:57Z</time>
      </trkpt>
      <trkpt lat="40.4542950" lon="-4.6010030">
        <ele>827.5</ele>
        <time>2019-08-13T16:24:58Z</time>
      </trkpt>
      <trkpt lat="40.4543090" lon="-4.6010470">
        <ele>827.5</ele>
        <time>2019-08-13T16:24:59Z</time>
      </trkpt>
      <trkpt lat="40.4543230" lon="-4.6010910">
        <ele>827.5</ele>
        <time>2019-08-13T16:25:00Z</time>
      </trkpt>
      <trkpt lat="40.4543370" lon="-4.6011350">
        <ele>827.5</ele>
        <time>2019-08-13T16:25:01Z</time>
      </trkpt>
      <trkpt lat="40.4543490" lon="-4.6011790">
        <ele>827.5</ele>
        <time>2019-08-13T16:25:02Z</time>
      </trkpt>
      <trkpt lat="40.4543620" lon="-4.6012230">
        <ele>827.5</ele>
        <time>2019-08-13T16:25:03Z</time>
      </trkpt>
      <trkpt lat="40.4543760" lon="-4.6012670">
        <ele>827.5</ele>
        <time>2019-08-13T16:25:04Z</time>
      </trkpt>
      <trkpt lat="40.4543910" lon="-4.6013130">
        <ele>827.5</ele>
        <time>2019-08-13T16:25:05Z</time>
      </trkpt>
      <trkpt lat="40.4544050" lon="-4.6013590">
        <ele>827.5</ele>
        <time>2019-08-13T16:25:06Z</time>
      </trkpt>
      <trkpt lat="40.4544190" lon="-4.6014060">
        <ele>827.5</ele>
        <time>2019-08-13T16:25:07Z</time>
      </trkpt>
      <trkpt lat="40.4544340" lon="-4.6014540">
        <ele>827.5</ele>
        <time>2019-08-13T16:25:08Z</time>
      </trkpt>
      <trkpt lat="40.4544500" lon="-4.6015010">
        <ele>827.5</ele>
        <time>2019-08-13T16:25:09Z</time>
      </trkpt>
      <trkpt lat="40.4544660" lon="-4.6015500">
        <ele>827.5</ele>
        <time>2019-08-13T16:25:10Z</time>
      </trkpt>
      <trkpt lat="40.4544810" lon="-4.6015990">
        <ele>827.5</ele>
        <time>2019-08-13T16:25:11Z</time>
      </trkpt>
      <trkpt lat="40.4544950" lon="-4.6016490">
        <ele>827.5</ele>
        <time>2019-08-13T16:25:12Z</time>
      </trkpt>
      <trkpt lat="40.4545110" lon="-4.6016980">
        <ele>827.6</ele>
        <time>2019-08-13T16:25:13Z</time>
      </trkpt>
      <trkpt lat="40.4545270" lon="-4.6017480">
        <ele>827.6</ele>
        <time>2019-08-13T16:25:14Z</time>
      </trkpt>
      <trkpt lat="40.4545410" lon="-4.6017980">
        <ele>827.6</ele>
        <time>2019-08-13T16:25:15Z</time>
      </trkpt>
      <trkpt lat="40.4545550" lon="-4.6018460">
        <ele>827.6</ele>
        <time>2019-08-13T16:25:16Z</time>
      </trkpt>
      <trkpt lat="40.4545660" lon="-4.6018900">
        <ele>827.6</ele>
        <time>2019-08-13T16:25:17Z</time>
      </trkpt>
      <trkpt lat="40.4545790" lon="-4.6019330">
        <ele>827.7</ele>
        <time>2019-08-13T16:25:18Z</time>
      </trkpt>
      <trkpt lat="40.4545920" lon="-4.6019760">
        <ele>827.7</ele>
        <time>2019-08-13T16:25:19Z</time>
      </trkpt>
      <trkpt lat="40.4546070" lon="-4.6020210">
        <ele>827.8</ele>
        <time>2019-08-13T16:25:20Z</time>
      </trkpt>
      <trkpt lat="40.4546240" lon="-4.6020670">
        <ele>827.8</ele>
        <time>2019-08-13T16:25:21Z</time>
      </trkpt>
      <trkpt lat="40.4546400" lon="-4.6021140">
        <ele>827.9</ele>
        <time>2019-08-13T16:25:22Z</time>
      </trkpt>
      <trkpt lat="40.4546560" lon="-4.6021630">
        <ele>828.0</ele>
        <time>2019-08-13T16:25:23Z</time>
      </trkpt>
      <trkpt lat="40.4546720" lon="-4.6022130">
        <ele>828.1</ele>
        <time>2019-08-13T16:25:24Z</time>
      </trkpt>
      <trkpt lat="40.4546860" lon="-4.6022620">
        <ele>828.2</ele>
        <time>2019-08-13T16:25:25Z</time>
      </trkpt>
      <trkpt lat="40.4547000" lon="-4.6023110">
        <ele>828.4</ele>
        <time>2019-08-13T16:25:26Z</time>
      </trkpt>
      <trkpt lat="40.4547140" lon="-4.6023600">
        <ele>828.5</ele>
        <time>2019-08-13T16:25:27Z</time>
      </trkpt>
      <trkpt lat="40.4547290" lon="-4.6024090">
        <ele>828.6</ele>
        <time>2019-08-13T16:25:28Z</time>
      </trkpt>
      <trkpt lat="40.4547440" lon="-4.6024590">
        <ele>828.8</ele>
        <time>2019-08-13T16:25:29Z</time>
      </trkpt>
      <trkpt lat="40.4547590" lon="-4.6025090">
        <ele>828.9</ele>
        <time>2019-08-13T16:25:30Z</time>
      </trkpt>
      <trkpt lat="40.4547730" lon="-4.6025550">
        <ele>829.0</ele>
        <time>2019-08-13T16:25:31Z</time>
      </trkpt>
      <trkpt lat="40.4547860" lon="-4.6025950">
        <ele>829.1</ele>
        <time>2019-08-13T16:25:32Z</time>
      </trkpt>
      <trkpt lat="40.4547980" lon="-4.6026340">
        <ele>829.3</ele>
        <time>2019-08-13T16:25:33Z</time>
      </trkpt>
      <trkpt lat="40.4548100" lon="-4.6026710">
        <ele>829.4</ele>
        <time>2019-08-13T16:25:34Z</time>
      </trkpt>
      <trkpt lat="40.4548230" lon="-4.6027100">
        <ele>829.5</ele>
        <time>2019-08-13T16:25:35Z</time>
      </trkpt>
      <trkpt lat="40.4548370" lon="-4.6027500">
        <ele>829.6</ele>
        <time>2019-08-13T16:25:36Z</time>
      </trkpt>
      <trkpt lat="40.4548500" lon="-4.6027920">
        <ele>829.7</ele>
        <time>2019-08-13T16:25:37Z</time>
      </trkpt>
      <trkpt lat="40.4548640" lon="-4.6028340">
        <ele>829.9</ele>
        <time>2019-08-13T16:25:38Z</time>
      </trkpt>
      <trkpt lat="40.4548780" lon="-4.6028760">
        <ele>830.0</ele>
        <time>2019-08-13T16:25:39Z</time>
      </trkpt>
      <trkpt lat="40.4548920" lon="-4.6029190">
        <ele>830.2</ele>
        <time>2019-08-13T16:25:40Z</time>
      </trkpt>
      <trkpt lat="40.4549060" lon="-4.6029620">
        <ele>830.3</ele>
        <time>2019-08-13T16:25:41Z</time>
      </trkpt>
      <trkpt lat="40.4549190" lon="-4.6030050">
        <ele>830.5</ele>
        <time>2019-08-13T16:25:42Z</time>
      </trkpt>
      <trkpt lat="40.4549330" lon="-4.6030480">
        <ele>830.7</ele>
        <time>2019-08-13T16:25:43Z</time>
      </trkpt>
      <trkpt lat="40.4549480" lon="-4.6030890">
        <ele>830.9</ele>
        <time>2019-08-13T16:25:44Z</time>
      </trkpt>
      <trkpt lat="40.4549610" lon="-4.6031300">
        <ele>831.1</ele>
        <time>2019-08-13T16:25:45Z</time>
      </trkpt>
      <trkpt lat="40.4549740" lon="-4.6031720">
        <ele>831.3</ele>
        <time>2019-08-13T16:25:46Z</time>
      </trkpt>
      <trkpt lat="40.4549860" lon="-4.6032120">
        <ele>831.5</ele>
        <time>2019-08-13T16:25:47Z</time>
      </trkpt>
      <trkpt lat="40.4549990" lon="-4.6032520">
        <ele>831.7</ele>
        <time>2019-08-13T16:25:48Z</time>
      </trkpt>
      <trkpt lat="40.4550100" lon="-4.6032930">
        <ele>831.8</ele>
        <time>2019-08-13T16:25:49Z</time>
      </trkpt>
      <trkpt lat="40.4550220" lon="-4.6033320">
        <ele>832.0</ele>
        <time>2019-08-13T16:25:50Z</time>
      </trkpt>
      <trkpt lat="40.4550340" lon="-4.6033690">
        <ele>832.2</ele>
        <time>2019-08-13T16:25:51Z</time>
      </trkpt>
      <trkpt lat="40.4550450" lon="-4.6034050">
        <ele>832.4</ele>
        <time>2019-08-13T16:25:52Z</time>
      </trkpt>
      <trkpt lat="40.4550560" lon="-4.6034400">
        <ele>832.6</ele>
        <time>2019-08-13T16:25:53Z</time>
      </trkpt>
      <trkpt lat="40.4550670" lon="-4.6034750">
        <ele>832.7</ele>
        <time>2019-08-13T16:25:54Z</time>
      </trkpt>
      <trkpt lat="40.4550780" lon="-4.6035080">
        <ele>832.9</ele>
        <time>2019-08-13T16:25:55Z</time>
      </trkpt>
      <trkpt lat="40.4550880" lon="-4.6035420">
        <ele>833.0</ele>
        <time>2019-08-13T16:25:56Z</time>
      </trkpt>
      <trkpt lat="40.4550980" lon="-4.6035750">
        <ele>833.2</ele>
        <time>2019-08-13T16:25:57Z</time>
      </trkpt>
      <trkpt lat="40.4551090" lon="-4.6036070">
        <ele>833.3</ele>
        <time>2019-08-13T16:25:58Z</time>
      </trkpt>
      <trkpt lat="40.4551190" lon="-4.6036400">
        <ele>833.4</ele>
        <time>2019-08-13T16:25:59Z</time>
      </trkpt>
      <trkpt lat="40.4551380" lon="-4.6037070">
        <ele>833.7</ele>
        <time>2019-08-13T16:26:01Z</time>
      </trkpt>
      <trkpt lat="40.4551480" lon="-4.6037410">
        <ele>833.8</ele>
        <time>2019-08-13T16:26:02Z</time>
      </trkpt>
      <trkpt lat="40.4551590" lon="-4.6037740">
        <ele>834.0</ele>
        <time>2019-08-13T16:26:03Z</time>
      </trkpt>
      <trkpt lat="40.4551710" lon="-4.6038090">
        <ele>834.1</ele>
        <time>2019-08-13T16:26:04Z</time>
      </trkpt>
      <trkpt lat="40.4551820" lon="-4.6038430">
        <ele>834.2</ele>
        <time>2019-08-13T16:26:05Z</time>
      </trkpt>
      <trkpt lat="40.4551930" lon="-4.6038760">
        <ele>834.3</ele>
        <time>2019-08-13T16:26:06Z</time>
      </trkpt>
      <trkpt lat="40.4552030" lon="-4.6039090">
        <ele>834.4</ele>
        <time>2019-08-13T16:26:07Z</time>
      </trkpt>
      <trkpt lat="40.4552140" lon="-4.6039430">
        <ele>834.5</ele>
        <time>2019-08-13T16:26:08Z</time>
      </trkpt>
      <trkpt lat="40.4552240" lon="-4.6039760">
        <ele>834.6</ele>
        <time>2019-08-13T16:26:09Z</time>
      </trkpt>
      <trkpt lat="40.4552340" lon="-4.6040090">
        <ele>834.7</ele>
        <time>2019-08-13T16:26:10Z</time>
      </trkpt>
      <trkpt lat="40.4552450" lon="-4.6040420">
        <ele>834.8</ele>
        <time>2019-08-13T16:26:11Z</time>
      </trkpt>
      <trkpt lat="40.4552640" lon="-4.6041070">
        <ele>835.0</ele>
        <time>2019-08-13T16:26:13Z</time>
      </trkpt>
      <trkpt lat="40.4552830" lon="-4.6041690">
        <ele>835.2</ele>
        <time>2019-08-13T16:26:15Z</time>
      </trkpt>
      <trkpt lat="40.4553040" lon="-4.6042320">
        <ele>835.4</ele>
        <time>2019-08-13T16:26:17Z</time>
      </trkpt>
      <trkpt lat="40.4553250" lon="-4.6042950">
        <ele>835.6</ele>
        <time>2019-08-13T16:26:19Z</time>
      </trkpt>
      <trkpt lat="40.4553420" lon="-4.6043590">
        <ele>835.8</ele>
        <time>2019-08-13T16:26:21Z</time>
      </trkpt>
      <trkpt lat="40.4553630" lon="-4.6044220">
        <ele>836.0</ele>
        <time>2019-08-13T16:26:23Z</time>
      </trkpt>
      <trkpt lat="40.4553840" lon="-4.6044850">
        <ele>836.2</ele>
        <time>2019-08-13T16:26:25Z</time>
      </trkpt>
      <trkpt lat="40.4554040" lon="-4.6045490">
        <ele>836.3</ele>
        <time>2019-08-13T16:26:27Z</time>
      </trkpt>
      <trkpt lat="40.4554230" lon="-4.6046130">
        <ele>836.5</ele>
        <time>2019-08-13T16:26:29Z</time>
      </trkpt>
      <trkpt lat="40.4554430" lon="-4.6046760">
        <ele>836.7</ele>
        <time>2019-08-13T16:26:31Z</time>
      </trkpt>
      <trkpt lat="40.4554640" lon="-4.6047400">
        <ele>836.9</ele>
        <time>2019-08-13T16:26:33Z</time>
      </trkpt>
      <trkpt lat="40.4554830" lon="-4.6048040">
        <ele>837.1</ele>
        <time>2019-08-13T16:26:35Z</time>
      </trkpt>
      <trkpt lat="40.4555030" lon="-4.6048690">
        <ele>837.3</ele>
        <time>2019-08-13T16:26:37Z</time>
      </trkpt>
      <trkpt lat="40.4555130" lon="-4.6049020">
        <ele>837.4</ele>
        <time>2019-08-13T16:26:38Z</time>
      </trkpt>
      <trkpt lat="40.4555240" lon="-4.6049340">
        <ele>837.5</ele>
        <time>2019-08-13T16:26:39Z</time>
      </trkpt>
      <trkpt lat="40.4555420" lon="-4.6049990">
        <ele>837.7</ele>
        <time>2019-08-13T16:26:41Z</time>
      </trkpt>
      <trkpt lat="40.4555610" lon="-4.6050610">
        <ele>837.9</ele>
        <time>2019-08-13T16:26:43Z</time>
      </trkpt>
      <trkpt lat="40.4555810" lon="-4.6051220">
        <ele>838.1</ele>
        <time>2019-08-13T16:26:45Z</time>
      </trkpt>
      <trkpt lat="40.4556000" lon="-4.6051850">
        <ele>838.3</ele>
        <time>2019-08-13T16:26:47Z</time>
      </trkpt>
      <trkpt lat="40.4556210" lon="-4.6052490">
        <ele>838.5</ele>
        <time>2019-08-13T16:26:49Z</time>
      </trkpt>
      <trkpt lat="40.4556400" lon="-4.6053120">
        <ele>838.8</ele>
        <time>2019-08-13T16:26:51Z</time>
      </trkpt>
      <trkpt lat="40.4556580" lon="-4.6053760">
        <ele>839.0</ele>
        <time>2019-08-13T16:26:53Z</time>
      </trkpt>
      <trkpt lat="40.4556790" lon="-4.6054400">
        <ele>839.2</ele>
        <time>2019-08-13T16:26:55Z</time>
      </trkpt>
      <trkpt lat="40.4556900" lon="-4.6054730">
        <ele>839.5</ele>
        <time>2019-08-13T16:26:56Z</time>
      </trkpt>
      <trkpt lat="40.4557020" lon="-4.6055060">
        <ele>839.6</ele>
        <time>2019-08-13T16:26:57Z</time>
      </trkpt>
      <trkpt lat="40.4557130" lon="-4.6055400">
        <ele>839.7</ele>
        <time>2019-08-13T16:26:58Z</time>
      </trkpt>
      <trkpt lat="40.4557230" lon="-4.6055740">
        <ele>839.9</ele>
        <time>2019-08-13T16:26:59Z</time>
      </trkpt>
      <trkpt lat="40.4557330" lon="-4.6056070">
        <ele>840.0</ele>
        <time>2019-08-13T16:27:00Z</time>
      </trkpt>
      <trkpt lat="40.4557530" lon="-4.6056720">
        <ele>840.3</ele>
        <time>2019-08-13T16:27:02Z</time>
      </trkpt>
      <trkpt lat="40.4557710" lon="-4.6057370">
        <ele>840.5</ele>
        <time>2019-08-13T16:27:04Z</time>
      </trkpt>
      <trkpt lat="40.4557930" lon="-4.6058010">
        <ele>840.8</ele>
        <time>2019-08-13T16:27:06Z</time>
      </trkpt>
      <trkpt lat="40.4558140" lon="-4.6058660">
        <ele>841.1</ele>
        <time>2019-08-13T16:27:08Z</time>
      </trkpt>
      <trkpt lat="40.4558340" lon="-4.6059310">
        <ele>841.4</ele>
        <time>2019-08-13T16:27:10Z</time>
      </trkpt>
      <trkpt lat="40.4558540" lon="-4.6059950">
        <ele>841.7</ele>
        <time>2019-08-13T16:27:12Z</time>
      </trkpt>
      <trkpt lat="40.4558750" lon="-4.6060600">
        <ele>842.1</ele>
        <time>2019-08-13T16:27:14Z</time>
      </trkpt>
      <trkpt lat="40.4558950" lon="-4.6061230">
        <ele>842.5</ele>
        <time>2019-08-13T16:27:16Z</time>
      </trkpt>
      <trkpt lat="40.4559140" lon="-4.6061840">
        <ele>842.9</ele>
        <time>2019-08-13T16:27:18Z</time>
      </trkpt>
      <trkpt lat="40.4559340" lon="-4.6062460">
        <ele>843.4</ele>
        <time>2019-08-13T16:27:20Z</time>
      </trkpt>
      <trkpt lat="40.4559540" lon="-4.6063080">
        <ele>843.8</ele>
        <time>2019-08-13T16:27:22Z</time>
      </trkpt>
      <trkpt lat="40.4559740" lon="-4.6063720">
        <ele>844.4</ele>
        <time>2019-08-13T16:27:24Z</time>
      </trkpt>
      <trkpt lat="40.4559950" lon="-4.6064380">
        <ele>845.1</ele>
        <time>2019-08-13T16:27:26Z</time>
      </trkpt>
      <trkpt lat="40.4560150" lon="-4.6065020">
        <ele>845.7</ele>
        <time>2019-08-13T16:27:28Z</time>
      </trkpt>
      <trkpt lat="40.4560340" lon="-4.6065660">
        <ele>846.5</ele>
        <time>2019-08-13T16:27:30Z</time>
      </trkpt>
      <trkpt lat="40.4560550" lon="-4.6066290">
        <ele>847.2</ele>
        <time>2019-08-13T16:27:32Z</time>
      </trkpt>
      <trkpt lat="40.4560740" lon="-4.6066920">
        <ele>848.0</ele>
        <time>2019-08-13T16:27:34Z</time>
      </trkpt>
      <trkpt lat="40.4560920" lon="-4.6067540">
        <ele>848.7</ele>
        <time>2019-08-13T16:27:36Z</time>
      </trkpt>
      <trkpt lat="40.4561130" lon="-4.6068190">
        <ele>849.4</ele>
        <time>2019-08-13T16:27:38Z</time>
      </trkpt>
      <trkpt lat="40.4561320" lon="-4.6068790">
        <ele>849.9</ele>
        <time>2019-08-13T16:27:40Z</time>
      </trkpt>
      <trkpt lat="40.4561480" lon="-4.6069340">
        <ele>850.5</ele>
        <time>2019-08-13T16:27:42Z</time>
      </trkpt>
      <trkpt lat="40.4561670" lon="-4.6069960">
        <ele>851.0</ele>
        <time>2019-08-13T16:27:44Z</time>
      </trkpt>
      <trkpt lat="40.4561870" lon="-4.6070610">
        <ele>851.4</ele>
        <time>2019-08-13T16:27:46Z</time>
      </trkpt>
      <trkpt lat="40.4562070" lon="-4.6071240">
        <ele>851.7</ele>
        <time>2019-08-13T16:27:48Z</time>
      </trkpt>
      <trkpt lat="40.4562240" lon="-4.6071890">
        <ele>852.0</ele>
        <time>2019-08-13T16:27:50Z</time>
      </trkpt>
      <trkpt lat="40.4562400" lon="-4.6072540">
        <ele>852.3</ele>
        <time>2019-08-13T16:27:52Z</time>
      </trkpt>
      <trkpt lat="40.4562560" lon="-4.6073200">
        <ele>852.5</ele>
        <time>2019-08-13T16:27:54Z</time>
      </trkpt>
      <trkpt lat="40.4562720" lon="-4.6073850">
        <ele>852.8</ele>
        <time>2019-08-13T16:27:56Z</time>
      </trkpt>
      <trkpt lat="40.4562890" lon="-4.6074520">
        <ele>853.1</ele>
        <time>2019-08-13T16:27:58Z</time>
      </trkpt>
      <trkpt lat="40.4563030" lon="-4.6075190">
        <ele>853.5</ele>
        <time>2019-08-13T16:28:00Z</time>
      </trkpt>
      <trkpt lat="40.4563160" lon="-4.6075880">
        <ele>854.0</ele>
        <time>2019-08-13T16:28:02Z</time>
      </trkpt>
      <trkpt lat="40.4563290" lon="-4.6076540">
        <ele>854.4</ele>
        <time>2019-08-13T16:28:04Z</time>
      </trkpt>
      <trkpt lat="40.4563410" lon="-4.6077210">
        <ele>855.0</ele>
        <time>2019-08-13T16:28:06Z</time>
      </trkpt>
      <trkpt lat="40.4563560" lon="-4.6077850">
        <ele>855.6</ele>
        <time>2019-08-13T16:28:08Z</time>
      </trkpt>
      <trkpt lat="40.4563800" lon="-4.6078430">
        <ele>856.3</ele>
        <time>2019-08-13T16:28:10Z</time>
      </trkpt>
      <trkpt lat="40.4563990" lon="-4.6079020">
        <ele>856.9</ele>
        <time>2019-08-13T16:28:12Z</time>
      </trkpt>
      <trkpt lat="40.4564110" lon="-4.6079630">
        <ele>857.5</ele>
        <time>2019-08-13T16:28:14Z</time>
      </trkpt>
      <trkpt lat="40.4564120" lon="-4.6080240">
        <ele>858.2</ele>
        <time>2019-08-13T16:28:16Z</time>
      </trkpt>
      <trkpt lat="40.4564030" lon="-4.6080820">
        <ele>858.7</ele>
        <time>2019-08-13T16:28:18Z</time>
      </trkpt>
      <trkpt lat="40.4563920" lon="-4.6081390">
        <ele>859.2</ele>
        <time>2019-08-13T16:28:20Z</time>
      </trkpt>
      <trkpt lat="40.4563910" lon="-4.6081950">
        <ele>859.6</ele>
        <time>2019-08-13T16:28:22Z</time>
      </trkpt>
      <trkpt lat="40.4563940" lon="-4.6082530">
        <ele>860.0</ele>
        <time>2019-08-13T16:28:24Z</time>
      </trkpt>
      <trkpt lat="40.4563970" lon="-4.6083130">
        <ele>860.3</ele>
        <time>2019-08-13T16:28:26Z</time>
      </trkpt>
      <trkpt lat="40.4564000" lon="-4.6083700">
        <ele>860.6</ele>
        <time>2019-08-13T16:28:28Z</time>
      </trkpt>
      <trkpt lat="40.4564010" lon="-4.6084290">
        <ele>860.9</ele>
        <time>2019-08-13T16:28:30Z</time>
      </trkpt>
      <trkpt lat="40.4563980" lon="-4.6084900">
        <ele>861.1</ele>
        <time>2019-08-13T16:28:32Z</time>
      </trkpt>
      <trkpt lat="40.4563980" lon="-4.6085530">
        <ele>861.3</ele>
        <time>2019-08-13T16:28:34Z</time>
      </trkpt>
      <trkpt lat="40.4563970" lon="-4.6086150">
        <ele>861.4</ele>
        <time>2019-08-13T16:28:36Z</time>
      </trkpt>
      <trkpt lat="40.4563940" lon="-4.6086760">
        <ele>861.6</ele>
        <time>2019-08-13T16:28:38Z</time>
      </trkpt>
      <trkpt lat="40.4563900" lon="-4.6087370">
        <ele>861.7</ele>
        <time>2019-08-13T16:28:40Z</time>
      </trkpt>
      <trkpt lat="40.4563850" lon="-4.6087990">
        <ele>861.9</ele>
        <time>2019-08-13T16:28:42Z</time>
      </trkpt>
      <trkpt lat="40.4563810" lon="-4.6088600">
        <ele>862.1</ele>
        <time>2019-08-13T16:28:44Z</time>
      </trkpt>
      <trkpt lat="40.4563780" lon="-4.6089240">
        <ele>862.2</ele>
        <time>2019-08-13T16:28:46Z</time>
      </trkpt>
      <trkpt lat="40.4563720" lon="-4.6089890">
        <ele>862.4</ele>
        <time>2019-08-13T16:28:48Z</time>
      </trkpt>
      <trkpt lat="40.4563650" lon="-4.6090530">
        <ele>862.6</ele>
        <time>2019-08-13T16:28:50Z</time>
      </trkpt>
      <trkpt lat="40.4563570" lon="-4.6091160">
        <ele>862.9</ele>
        <time>2019-08-13T16:28:52Z</time>
      </trkpt>
      <trkpt lat="40.4563490" lon="-4.6091800">
        <ele>863.1</ele>
        <time>2019-08-13T16:28:54Z</time>
      </trkpt>
      <trkpt lat="40.4563410" lon="-4.6092460">
        <ele>863.4</ele>
        <time>2019-08-13T16:28:56Z</time>
      </trkpt>
      <trkpt lat="40.4563340" lon="-4.6093110">
        <ele>863.6</ele>
        <time>2019-08-13T16:28:58Z</time>
      </trkpt>
      <trkpt lat="40.4563270" lon="-4.6093770">
        <ele>863.9</ele>
        <time>2019-08-13T16:29:00Z</time>
      </trkpt>
      <trkpt lat="40.4563170" lon="-4.6094410">
        <ele>864.2</ele>
        <time>2019-08-13T16:29:02Z</time>
      </trkpt>
      <trkpt lat="40.4563070" lon="-4.6095060">
        <ele>864.4</ele>
        <time>2019-08-13T16:29:04Z</time>
      </trkpt>
      <trkpt lat="40.4562990" lon="-4.6095720">
        <ele>864.7</ele>
        <time>2019-08-13T16:29:06Z</time>
      </trkpt>
      <trkpt lat="40.4562910" lon="-4.6096390">
        <ele>865.0</ele>
        <time>2019-08-13T16:29:08Z</time>
      </trkpt>
      <trkpt lat="40.4562820" lon="-4.6097040">
        <ele>865.2</ele>
        <time>2019-08-13T16:29:10Z</time>
      </trkpt>
      <trkpt lat="40.4562730" lon="-4.6097690">
        <ele>865.5</ele>
        <time>2019-08-13T16:29:12Z</time>
      </trkpt>
      <trkpt lat="40.4562640" lon="-4.6098360">
        <ele>865.7</ele>
        <time>2019-08-13T16:29:14Z</time>
      </trkpt>
      <trkpt lat="40.4562550" lon="-4.6099050">
        <ele>865.9</ele>
        <time>2019-08-13T16:29:16Z</time>
      </trkpt>
      <trkpt lat="40.4562460" lon="-4.6099710">
        <ele>866.2</ele>
        <time>2019-08-13T16:29:18Z</time>
      </trkpt>
      <trkpt lat="40.4562390" lon="-4.6100350">
        <ele>866.4</ele>
        <time>2019-08-13T16:29:20Z</time>
      </trkpt>
      <trkpt lat="40.4562310" lon="-4.6100970">
        <ele>866.6</ele>
        <time>2019-08-13T16:29:22Z</time>
      </trkpt>
      <trkpt lat="40.4562240" lon="-4.6101570">
        <ele>866.7</ele>
        <time>2019-08-13T16:29:24Z</time>
      </trkpt>
      <trkpt lat="40.4562190" lon="-4.6102180">
        <ele>866.9</ele>
        <time>2019-08-13T16:29:26Z</time>
      </trkpt>
      <trkpt lat="40.4562110" lon="-4.6102750">
        <ele>867.1</ele>
        <time>2019-08-13T16:29:28Z</time>
      </trkpt>
      <trkpt lat="40.4562050" lon="-4.6103290">
        <ele>867.2</ele>
        <time>2019-08-13T16:29:30Z</time>
      </trkpt>
      <trkpt lat="40.4561980" lon="-4.6103860">
        <ele>867.4</ele>
        <time>2019-08-13T16:29:32Z</time>
      </trkpt>
      <trkpt lat="40.4561930" lon="-4.6104440">
        <ele>867.6</ele>
        <time>2019-08-13T16:29:34Z</time>
      </trkpt>
      <trkpt lat="40.4561880" lon="-4.6105030">
        <ele>867.7</ele>
        <time>2019-08-13T16:29:36Z</time>
      </trkpt>
      <trkpt lat="40.4561850" lon="-4.6105650">
        <ele>867.8</ele>
        <time>2019-08-13T16:29:38Z</time>
      </trkpt>
      <trkpt lat="40.4561800" lon="-4.6106290">
        <ele>868.0</ele>
        <time>2019-08-13T16:29:40Z</time>
      </trkpt>
      <trkpt lat="40.4561780" lon="-4.6106970">
        <ele>868.1</ele>
        <time>2019-08-13T16:29:42Z</time>
      </trkpt>
      <trkpt lat="40.4561770" lon="-4.6107600">
        <ele>868.2</ele>
        <time>2019-08-13T16:29:44Z</time>
      </trkpt>
      <trkpt lat="40.4561790" lon="-4.6108230">
        <ele>868.3</ele>
        <time>2019-08-13T16:29:46Z</time>
      </trkpt>
      <trkpt lat="40.4561840" lon="-4.6108900">
        <ele>868.5</ele>
        <time>2019-08-13T16:29:48Z</time>
      </trkpt>
      <trkpt lat="40.4561880" lon="-4.6109560">
        <ele>868.6</ele>
        <time>2019-08-13T16:29:50Z</time>
      </trkpt>
      <trkpt lat="40.4561950" lon="-4.6110200">
        <ele>868.7</ele>
        <time>2019-08-13T16:29:52Z</time>
      </trkpt>
      <trkpt lat="40.4562010" lon="-4.6110800">
        <ele>868.8</ele>
        <time>2019-08-13T16:29:54Z</time>
      </trkpt>
      <trkpt lat="40.4562090" lon="-4.6111390">
        <ele>868.9</ele>
        <time>2019-08-13T16:29:56Z</time>
      </trkpt>
      <trkpt lat="40.4562190" lon="-4.6111950">
        <ele>869.0</ele>
        <time>2019-08-13T16:29:58Z</time>
      </trkpt>
      <trkpt lat="40.4562290" lon="-4.6112510">
        <ele>869.1</ele>
        <time>2019-08-13T16:30:00Z</time>
      </trkpt>
      <trkpt lat="40.4562410" lon="-4.6113060">
        <ele>869.2</ele>
        <time>2019-08-13T16:30:02Z</time>
      </trkpt>
      <trkpt lat="40.4562570" lon="-4.6113610">
        <ele>869.3</ele>
        <time>2019-08-13T16:30:04Z</time>
      </trkpt>
      <trkpt lat="40.4562710" lon="-4.6114170">
        <ele>869.4</ele>
        <time>2019-08-13T16:30:06Z</time>
      </trkpt>
      <trkpt lat="40.4562880" lon="-4.6114720">
        <ele>869.4</ele>
        <time>2019-08-13T16:30:08Z</time>
      </trkpt>
      <trkpt lat="40.4563080" lon="-4.6115280">
        <ele>869.5</ele>
        <time>2019-08-13T16:30:10Z</time>
      </trkpt>
      <trkpt lat="40.4563310" lon="-4.6115860">
        <ele>869.6</ele>
        <time>2019-08-13T16:30:12Z</time>
      </trkpt>
      <trkpt lat="40.4563520" lon="-4.6116420">
        <ele>869.7</ele>
        <time>2019-08-13T16:30:14Z</time>
      </trkpt>
      <trkpt lat="40.4563770" lon="-4.6116950">
        <ele>869.8</ele>
        <time>2019-08-13T16:30:16Z</time>
      </trkpt>
      <trkpt lat="40.4564030" lon="-4.6117490">
        <ele>869.9</ele>
        <time>2019-08-13T16:30:18Z</time>
      </trkpt>
      <trkpt lat="40.4564300" lon="-4.6118010">
        <ele>870.0</ele>
        <time>2019-08-13T16:30:20Z</time>
      </trkpt>
      <trkpt lat="40.4564610" lon="-4.6118560">
        <ele>870.1</ele>
        <time>2019-08-13T16:30:22Z</time>
      </trkpt>
      <trkpt lat="40.4564930" lon="-4.6119120">
        <ele>870.1</ele>
        <time>2019-08-13T16:30:24Z</time>
      </trkpt>
      <trkpt lat="40.4565280" lon="-4.6119650">
        <ele>870.2</ele>
        <time>2019-08-13T16:30:26Z</time>
      </trkpt>
      <trkpt lat="40.4565460" lon="-4.6119920">
        <ele>870.2</ele>
        <time>2019-08-13T16:30:27Z</time>
      </trkpt>
      <trkpt lat="40.4565640" lon="-4.6120190">
        <ele>870.2</ele>
        <time>2019-08-13T16:30:28Z</time>
      </trkpt>
      <trkpt lat="40.4565820" lon="-4.6120460">
        <ele>870.3</ele>
        <time>2019-08-13T16:30:29Z</time>
      </trkpt>
      <trkpt lat="40.4566020" lon="-4.6120720">
        <ele>870.3</ele>
        <time>2019-08-13T16:30:30Z</time>
      </trkpt>
      <trkpt lat="40.4566220" lon="-4.6120990">
        <ele>870.3</ele>
        <time>2019-08-13T16:30:31Z</time>
      </trkpt>
      <trkpt lat="40.4566430" lon="-4.6121260">
        <ele>870.3</ele>
        <time>2019-08-13T16:30:32Z</time>
      </trkpt>
      <trkpt lat="40.4566650" lon="-4.6121540">
        <ele>870.3</ele>
        <time>2019-08-13T16:30:33Z</time>
      </trkpt>
      <trkpt lat="40.4566870" lon="-4.6121810">
        <ele>870.3</ele>
        <time>2019-08-13T16:30:34Z</time>
      </trkpt>
      <trkpt lat="40.4567230" lon="-4.6122280">
        <ele>870.3</ele>
        <time>2019-08-13T16:30:36Z</time>
      </trkpt>
      <trkpt lat="40.4567610" lon="-4.6122700">
        <ele>870.3</ele>
        <time>2019-08-13T16:30:38Z</time>
      </trkpt>
      <trkpt lat="40.4567840" lon="-4.6122930">
        <ele>870.3</ele>
        <time>2019-08-13T16:30:39Z</time>
      </trkpt>
      <trkpt lat="40.4568070" lon="-4.6123190">
        <ele>870.3</ele>
        <time>2019-08-13T16:30:40Z</time>
      </trkpt>
      <trkpt lat="40.4568300" lon="-4.6123460">
        <ele>870.3</ele>
        <time>2019-08-13T16:30:41Z</time>
      </trkpt>
      <trkpt lat="40.4568530" lon="-4.6123720">
        <ele>870.3</ele>
        <time>2019-08-13T16:30:42Z</time>
      </trkpt>
      <trkpt lat="40.4568760" lon="-4.6123990">
        <ele>870.3</ele>
        <time>2019-08-13T16:30:43Z</time>
      </trkpt>
      <trkpt lat="40.4569000" lon="-4.6124250">
        <ele>870.3</ele>
        <time>2019-08-13T16:30:44Z</time>
      </trkpt>
      <trkpt lat="40.4569250" lon="-4.6124510">
        <ele>870.3</ele>
        <time>2019-08-13T16:30:45Z</time>
      </trkpt>
      <trkpt lat="40.4569490" lon="-4.6124770">
        <ele>870.3</ele>
        <time>2019-08-13T16:30:46Z</time>
      </trkpt>
      <trkpt lat="40.4569730" lon="-4.6125050">
        <ele>870.3</ele>
        <time>2019-08-13T16:30:47Z</time>
      </trkpt>
      <trkpt lat="40.4569950" lon="-4.6125330">
        <ele>870.3</ele>
        <time>2019-08-13T16:30:48Z</time>
      </trkpt>
      <trkpt lat="40.4570180" lon="-4.6125580">
        <ele>870.3</ele>
        <time>2019-08-13T16:30:49Z</time>
      </trkpt>
      <trkpt lat="40.4570400" lon="-4.6125830">
        <ele>870.3</ele>
        <time>2019-08-13T16:30:50Z</time>
      </trkpt>
      <trkpt lat="40.4570620" lon="-4.6126110">
        <ele>870.3</ele>
        <time>2019-08-13T16:30:51Z</time>
      </trkpt>
      <trkpt lat="40.4570860" lon="-4.6126400">
        <ele>870.3</ele>
        <time>2019-08-13T16:30:52Z</time>
      </trkpt>
      <trkpt lat="40.4571100" lon="-4.6126700">
        <ele>870.3</ele>
        <time>2019-08-13T16:30:53Z</time>
      </trkpt>
      <trkpt lat="40.4571350" lon="-4.6127020">
        <ele>870.3</ele>
        <time>2019-08-13T16:30:54Z</time>
      </trkpt>
      <trkpt lat="40.4571600" lon="-4.6127340">
        <ele>870.3</ele>
        <time>2019-08-13T16:30:55Z</time>
      </trkpt>
      <trkpt lat="40.4571860" lon="-4.6127680">
        <ele>870.3</ele>
        <time>2019-08-13T16:30:56Z</time>
      </trkpt>
      <trkpt lat="40.4572120" lon="-4.6128040">
        <ele>870.3</ele>
        <time>2019-08-13T16:30:57Z</time>
      </trkpt>
      <trkpt lat="40.4572370" lon="-4.6128400">
        <ele>870.3</ele>
        <time>2019-08-13T16:30:58Z</time>
      </trkpt>
      <trkpt lat="40.4572620" lon="-4.6128770">
        <ele>870.3</ele>
        <time>2019-08-13T16:30:59Z</time>
      </trkpt>
      <trkpt lat="40.4572860" lon="-4.6129140">
        <ele>870.3</ele>
        <time>2019-08-13T16:31:00Z</time>
      </trkpt>
      <trkpt lat="40.4573090" lon="-4.6129510">
        <ele>870.3</ele>
        <time>2019-08-13T16:31:01Z</time>
      </trkpt>
      <trkpt lat="40.4573310" lon="-4.6129860">
        <ele>870.3</ele>
        <time>2019-08-13T16:31:02Z</time>
      </trkpt>
      <trkpt lat="40.4573500" lon="-4.6130190">
        <ele>870.3</ele>
        <time>2019-08-13T16:31:03Z</time>
      </trkpt>
      <trkpt lat="40.4573670" lon="-4.6130520">
        <ele>870.3</ele>
        <time>2019-08-13T16:31:04Z</time>
      </trkpt>
      <trkpt lat="40.4573840" lon="-4.6130840">
        <ele>870.3</ele>
        <time>2019-08-13T16:31:05Z</time>
      </trkpt>
      <trkpt lat="40.4574000" lon="-4.6131190">
        <ele>870.3</ele>
        <time>2019-08-13T16:31:06Z</time>
      </trkpt>
      <trkpt lat="40.4574180" lon="-4.6131570">
        <ele>870.4</ele>
        <time>2019-08-13T16:31:07Z</time>
      </trkpt>
      <trkpt lat="40.4574360" lon="-4.6131980">
        <ele>870.4</ele>
        <time>2019-08-13T16:31:08Z</time>
      </trkpt>
      <trkpt lat="40.4574530" lon="-4.6132430">
        <ele>870.4</ele>
        <time>2019-08-13T16:31:09Z</time>
      </trkpt>
      <trkpt lat="40.4574690" lon="-4.6132880">
        <ele>870.5</ele>
        <time>2019-08-13T16:31:10Z</time>
      </trkpt>
      <trkpt lat="40.4574840" lon="-4.6133310">
        <ele>870.5</ele>
        <time>2019-08-13T16:31:11Z</time>
      </trkpt>
      <trkpt lat="40.4574970" lon="-4.6133720">
        <ele>870.6</ele>
        <time>2019-08-13T16:31:12Z</time>
      </trkpt>
      <trkpt lat="40.4575090" lon="-4.6134110">
        <ele>870.7</ele>
        <time>2019-08-13T16:31:13Z</time>
      </trkpt>
      <trkpt lat="40.4575190" lon="-4.6134460">
        <ele>870.8</ele>
        <time>2019-08-13T16:31:14Z</time>
      </trkpt>
      <trkpt lat="40.4575280" lon="-4.6134810">
        <ele>870.8</ele>
        <time>2019-08-13T16:31:15Z</time>
      </trkpt>
      <trkpt lat="40.4575380" lon="-4.6135170">
        <ele>870.9</ele>
        <time>2019-08-13T16:31:16Z</time>
      </trkpt>
      <trkpt lat="40.4575500" lon="-4.6135560">
        <ele>871.0</ele>
        <time>2019-08-13T16:31:17Z</time>
      </trkpt>
      <trkpt lat="40.4575610" lon="-4.6135980">
        <ele>871.0</ele>
        <time>2019-08-13T16:31:18Z</time>
      </trkpt>
      <trkpt lat="40.4575730" lon="-4.6136420">
        <ele>871.1</ele>
        <time>2019-08-13T16:31:19Z</time>
      </trkpt>
      <trkpt lat="40.4575840" lon="-4.6136890">
        <ele>871.2</ele>
        <time>2019-08-13T16:31:20Z</time>
      </trkpt>
      <trkpt lat="40.4575930" lon="-4.6137350">
        <ele>871.2</ele>
        <time>2019-08-13T16:31:21Z</time>
      </trkpt>
      <trkpt lat="40.4576020" lon="-4.6137780">
        <ele>871.3</ele>
        <time>2019-08-13T16:31:22Z</time>
      </trkpt>
      <trkpt lat="40.4576110" lon="-4.6138180">
        <ele>871.3</ele>
        <time>2019-08-13T16:31:23Z</time>
      </trkpt>
      <trkpt lat="40.4576200" lon="-4.6138580">
        <ele>871.3</ele>
        <time>2019-08-13T16:31:24Z</time>
      </trkpt>
      <trkpt lat="40.4576290" lon="-4.6139000">
        <ele>871.4</ele>
        <time>2019-08-13T16:31:25Z</time>
      </trkpt>
      <trkpt lat="40.4576380" lon="-4.6139430">
        <ele>871.4</ele>
        <time>2019-08-13T16:31:26Z</time>
      </trkpt>
      <trkpt lat="40.4576470" lon="-4.6139880">
        <ele>871.4</ele>
        <time>2019-08-13T16:31:27Z</time>
      </trkpt>
      <trkpt lat="40.4576570" lon="-4.6140340">
        <ele>871.4</ele>
        <time>2019-08-13T16:31:28Z</time>
      </trkpt>
      <trkpt lat="40.4576660" lon="-4.6140780">
        <ele>871.4</ele>
        <time>2019-08-13T16:31:29Z</time>
      </trkpt>
      <trkpt lat="40.4576750" lon="-4.6141220">
        <ele>871.4</ele>
        <time>2019-08-13T16:31:30Z</time>
      </trkpt>
      <trkpt lat="40.4576840" lon="-4.6141650">
        <ele>871.4</ele>
        <time>2019-08-13T16:31:31Z</time>
      </trkpt>
      <trkpt lat="40.4576940" lon="-4.6142080">
        <ele>871.4</ele>
        <time>2019-08-13T16:31:32Z</time>
      </trkpt>
      <trkpt lat="40.4577040" lon="-4.6142510">
        <ele>871.4</ele>
        <time>2019-08-13T16:31:33Z</time>
      </trkpt>
      <trkpt lat="40.4577140" lon="-4.6142960">
        <ele>871.4</ele>
        <time>2019-08-13T16:31:34Z</time>
      </trkpt>
      <trkpt lat="40.4577220" lon="-4.6143410">
        <ele>871.4</ele>
        <time>2019-08-13T16:31:35Z</time>
      </trkpt>
      <trkpt lat="40.4577300" lon="-4.6143880">
        <ele>871.4</ele>
        <time>2019-08-13T16:31:36Z</time>
      </trkpt>
      <trkpt lat="40.4577380" lon="-4.6144360">
        <ele>871.4</ele>
        <time>2019-08-13T16:31:37Z</time>
      </trkpt>
      <trkpt lat="40.4577480" lon="-4.6144830">
        <ele>871.4</ele>
        <time>2019-08-13T16:31:38Z</time>
      </trkpt>
      <trkpt lat="40.4577590" lon="-4.6145310">
        <ele>871.4</ele>
        <time>2019-08-13T16:31:39Z</time>
      </trkpt>
      <trkpt lat="40.4577690" lon="-4.6145790">
        <ele>871.4</ele>
        <time>2019-08-13T16:31:40Z</time>
      </trkpt>
      <trkpt lat="40.4577780" lon="-4.6146280">
        <ele>871.4</ele>
        <time>2019-08-13T16:31:41Z</time>
      </trkpt>
      <trkpt lat="40.4577880" lon="-4.6146800">
        <ele>871.5</ele>
        <time>2019-08-13T16:31:42Z</time>
      </trkpt>
      <trkpt lat="40.4577980" lon="-4.6147330">
        <ele>871.5</ele>
        <time>2019-08-13T16:31:43Z</time>
      </trkpt>
      <trkpt lat="40.4578090" lon="-4.6147880">
        <ele>871.5</ele>
        <time>2019-08-13T16:31:44Z</time>
      </trkpt>
      <trkpt lat="40.4578210" lon="-4.6148430">
        <ele>871.6</ele>
        <time>2019-08-13T16:31:45Z</time>
      </trkpt>
      <trkpt lat="40.4578360" lon="-4.6149010">
        <ele>871.7</ele>
        <time>2019-08-13T16:31:46Z</time>
      </trkpt>
      <trkpt lat="40.4578500" lon="-4.6149610">
        <ele>871.8</ele>
        <time>2019-08-13T16:31:47Z</time>
      </trkpt>
      <trkpt lat="40.4578670" lon="-4.6150220">
        <ele>871.9</ele>
        <time>2019-08-13T16:31:48Z</time>
      </trkpt>
      <trkpt lat="40.4578860" lon="-4.6150840">
        <ele>872.0</ele>
        <time>2019-08-13T16:31:49Z</time>
      </trkpt>
      <trkpt lat="40.4579080" lon="-4.6151460">
        <ele>872.1</ele>
        <time>2019-08-13T16:31:50Z</time>
      </trkpt>
      <trkpt lat="40.4579320" lon="-4.6152050">
        <ele>872.1</ele>
        <time>2019-08-13T16:31:51Z</time>
      </trkpt>
      <trkpt lat="40.4579590" lon="-4.6152630">
        <ele>872.2</ele>
        <time>2019-08-13T16:31:52Z</time>
      </trkpt>
      <trkpt lat="40.4579870" lon="-4.6153180">
        <ele>872.2</ele>
        <time>2019-08-13T16:31:53Z</time>
      </trkpt>
      <trkpt lat="40.4580180" lon="-4.6153700">
        <ele>872.2</ele>
        <time>2019-08-13T16:31:54Z</time>
      </trkpt>
      <trkpt lat="40.4580490" lon="-4.6154200">
        <ele>872.3</ele>
        <time>2019-08-13T16:31:55Z</time>
      </trkpt>
      <trkpt lat="40.4580840" lon="-4.6154650">
        <ele>872.3</ele>
        <time>2019-08-13T16:31:56Z</time>
      </trkpt>
      <trkpt lat="40.4581190" lon="-4.6155080">
        <ele>872.3</ele>
        <time>2019-08-13T16:31:57Z</time>
      </trkpt>
      <trkpt lat="40.4581510" lon="-4.6155510">
        <ele>872.3</ele>
        <time>2019-08-13T16:31:58Z</time>
      </trkpt>
      <trkpt lat="40.4581840" lon="-4.6155910">
        <ele>872.3</ele>
        <time>2019-08-13T16:31:59Z</time>
      </trkpt>
      <trkpt lat="40.4582180" lon="-4.6156280">
        <ele>872.3</ele>
        <time>2019-08-13T16:32:00Z</time>
      </trkpt>
      <trkpt lat="40.4582550" lon="-4.6156610">
        <ele>872.3</ele>
        <time>2019-08-13T16:32:01Z</time>
      </trkpt>
      <trkpt lat="40.4582900" lon="-4.6156900">
        <ele>872.3</ele>
        <time>2019-08-13T16:32:02Z</time>
      </trkpt>
      <trkpt lat="40.4583270" lon="-4.6157160">
        <ele>872.3</ele>
        <time>2019-08-13T16:32:03Z</time>
      </trkpt>
      <trkpt lat="40.4583630" lon="-4.6157410">
        <ele>872.3</ele>
        <time>2019-08-13T16:32:04Z</time>
      </trkpt>
      <trkpt lat="40.4583980" lon="-4.6157620">
        <ele>872.3</ele>
        <time>2019-08-13T16:32:05Z</time>
      </trkpt>
      <trkpt lat="40.4584340" lon="-4.6157800">
        <ele>872.3</ele>
        <time>2019-08-13T16:32:06Z</time>
      </trkpt>
      <trkpt lat="40.4584690" lon="-4.6157980">
        <ele>872.2</ele>
        <time>2019-08-13T16:32:07Z</time>
      </trkpt>
      <trkpt lat="40.4585060" lon="-4.6158140">
        <ele>872.2</ele>
        <time>2019-08-13T16:32:08Z</time>
      </trkpt>
      <trkpt lat="40.4585480" lon="-4.6158290">
        <ele>872.2</ele>
        <time>2019-08-13T16:32:09Z</time>
      </trkpt>
      <trkpt lat="40.4585900" lon="-4.6158420">
        <ele>872.1</ele>
        <time>2019-08-13T16:32:10Z</time>
      </trkpt>
      <trkpt lat="40.4586340" lon="-4.6158530">
        <ele>872.0</ele>
        <time>2019-08-13T16:32:11Z</time>
      </trkpt>
      <trkpt lat="40.4586780" lon="-4.6158610">
        <ele>871.9</ele>
        <time>2019-08-13T16:32:12Z</time>
      </trkpt>
      <trkpt lat="40.4587230" lon="-4.6158660">
        <ele>871.7</ele>
        <time>2019-08-13T16:32:13Z</time>
      </trkpt>
      <trkpt lat="40.4587680" lon="-4.6158700">
        <ele>871.5</ele>
        <time>2019-08-13T16:32:14Z</time>
      </trkpt>
      <trkpt lat="40.4588140" lon="-4.6158710">
        <ele>871.3</ele>
        <time>2019-08-13T16:32:15Z</time>
      </trkpt>
      <trkpt lat="40.4588610" lon="-4.6158710">
        <ele>871.0</ele>
        <time>2019-08-13T16:32:16Z</time>
      </trkpt>
      <trkpt lat="40.4589080" lon="-4.6158670">
        <ele>870.7</ele>
        <time>2019-08-13T16:32:17Z</time>
      </trkpt>
      <trkpt lat="40.4589540" lon="-4.6158630">
        <ele>870.5</ele>
        <time>2019-08-13T16:32:18Z</time>
      </trkpt>
      <trkpt lat="40.4590000" lon="-4.6158560">
        <ele>870.2</ele>
        <time>2019-08-13T16:32:19Z</time>
      </trkpt>
      <trkpt lat="40.4590460" lon="-4.6158450">
        <ele>870.0</ele>
        <time>2019-08-13T16:32:20Z</time>
      </trkpt>
      <trkpt lat="40.4590900" lon="-4.6158320">
        <ele>869.8</ele>
        <time>2019-08-13T16:32:21Z</time>
      </trkpt>
      <trkpt lat="40.4591340" lon="-4.6158200">
        <ele>869.7</ele>
        <time>2019-08-13T16:32:22Z</time>
      </trkpt>
      <trkpt lat="40.4591770" lon="-4.6158070">
        <ele>869.6</ele>
        <time>2019-08-13T16:32:23Z</time>
      </trkpt>
      <trkpt lat="40.4592200" lon="-4.6157930">
        <ele>869.6</ele>
        <time>2019-08-13T16:32:24Z</time>
      </trkpt>
      <trkpt lat="40.4592600" lon="-4.6157790">
        <ele>869.6</ele>
        <time>2019-08-13T16:32:25Z</time>
      </trkpt>
      <trkpt lat="40.4593000" lon="-4.6157640">
        <ele>869.6</ele>
        <time>2019-08-13T16:32:26Z</time>
      </trkpt>
      <trkpt lat="40.4593410" lon="-4.6157500">
        <ele>869.6</ele>
        <time>2019-08-13T16:32:27Z</time>
      </trkpt>
      <trkpt lat="40.4593800" lon="-4.6157370">
        <ele>869.6</ele>
        <time>2019-08-13T16:32:28Z</time>
      </trkpt>
      <trkpt lat="40.4594180" lon="-4.6157240">
        <ele>869.7</ele>
        <time>2019-08-13T16:32:29Z</time>
      </trkpt>
      <trkpt lat="40.4594550" lon="-4.6157110">
        <ele>869.8</ele>
        <time>2019-08-13T16:32:30Z</time>
      </trkpt>
      <trkpt lat="40.4594910" lon="-4.6156990">
        <ele>869.9</ele>
        <time>2019-08-13T16:32:31Z</time>
      </trkpt>
      <trkpt lat="40.4595280" lon="-4.6156870">
        <ele>870.0</ele>
        <time>2019-08-13T16:32:32Z</time>
      </trkpt>
      <trkpt lat="40.4595640" lon="-4.6156760">
        <ele>870.1</ele>
        <time>2019-08-13T16:32:33Z</time>
      </trkpt>
      <trkpt lat="40.4595990" lon="-4.6156660">
        <ele>870.2</ele>
        <time>2019-08-13T16:32:34Z</time>
      </trkpt>
      <trkpt lat="40.4596360" lon="-4.6156560">
        <ele>870.4</ele>
        <time>2019-08-13T16:32:35Z</time>
      </trkpt>
      <trkpt lat="40.4596730" lon="-4.6156480">
        <ele>870.5</ele>
        <time>2019-08-13T16:32:36Z</time>
      </trkpt>
      <trkpt lat="40.4597090" lon="-4.6156390">
        <ele>870.7</ele>
        <time>2019-08-13T16:32:37Z</time>
      </trkpt>
      <trkpt lat="40.4597460" lon="-4.6156300">
        <ele>870.8</ele>
        <time>2019-08-13T16:32:38Z</time>
      </trkpt>
      <trkpt lat="40.4597840" lon="-4.6156230">
        <ele>871.0</ele>
        <time>2019-08-13T16:32:39Z</time>
      </trkpt>
      <trkpt lat="40.4598210" lon="-4.6156160">
        <ele>871.1</ele>
        <time>2019-08-13T16:32:40Z</time>
      </trkpt>
      <trkpt lat="40.4598600" lon="-4.6156110">
        <ele>871.3</ele>
        <time>2019-08-13T16:32:41Z</time>
      </trkpt>
      <trkpt lat="40.4598980" lon="-4.6156080">
        <ele>871.4</ele>
        <time>2019-08-13T16:32:42Z</time>
      </trkpt>
      <trkpt lat="40.4599360" lon="-4.6156060">
        <ele>871.6</ele>
        <time>2019-08-13T16:32:43Z</time>
      </trkpt>
      <trkpt lat="40.4599730" lon="-4.6156030">
        <ele>871.8</ele>
        <time>2019-08-13T16:32:44Z</time>
      </trkpt>
      <trkpt lat="40.4600110" lon="-4.6156010">
        <ele>871.9</ele>
        <time>2019-08-13T16:32:45Z</time>
      </trkpt>
      <trkpt lat="40.4600480" lon="-4.6156010">
        <ele>872.1</ele>
        <time>2019-08-13T16:32:46Z</time>
      </trkpt>
      <trkpt lat="40.4600850" lon="-4.6156030">
        <ele>872.3</ele>
        <time>2019-08-13T16:32:47Z</time>
      </trkpt>
      <trkpt lat="40.4601210" lon="-4.6156060">
        <ele>872.5</ele>
        <time>2019-08-13T16:32:48Z</time>
      </trkpt>
      <trkpt lat="40.4601550" lon="-4.6156100">
        <ele>872.6</ele>
        <time>2019-08-13T16:32:49Z</time>
      </trkpt>
      <trkpt lat="40.4601890" lon="-4.6156130">
        <ele>872.8</ele>
        <time>2019-08-13T16:32:50Z</time>
      </trkpt>
      <trkpt lat="40.4602210" lon="-4.6156160">
        <ele>873.0</ele>
        <time>2019-08-13T16:32:51Z</time>
      </trkpt>
      <trkpt lat="40.4602530" lon="-4.6156200">
        <ele>873.2</ele>
        <time>2019-08-13T16:32:52Z</time>
      </trkpt>
      <trkpt lat="40.4602840" lon="-4.6156260">
        <ele>873.3</ele>
        <time>2019-08-13T16:32:53Z</time>
      </trkpt>
      <trkpt lat="40.4603150" lon="-4.6156320">
        <ele>873.5</ele>
        <time>2019-08-13T16:32:54Z</time>
      </trkpt>
      <trkpt lat="40.4603460" lon="-4.6156380">
        <ele>873.7</ele>
        <time>2019-08-13T16:32:55Z</time>
      </trkpt>
      <trkpt lat="40.4603800" lon="-4.6156440">
        <ele>873.9</ele>
        <time>2019-08-13T16:32:56Z</time>
      </trkpt>
      <trkpt lat="40.4604130" lon="-4.6156510">
        <ele>874.1</ele>
        <time>2019-08-13T16:32:57Z</time>
      </trkpt>
      <trkpt lat="40.4604470" lon="-4.6156600">
        <ele>874.3</ele>
        <time>2019-08-13T16:32:58Z</time>
      </trkpt>
      <trkpt lat="40.4604800" lon="-4.6156690">
        <ele>874.5</ele>
        <time>2019-08-13T16:32:59Z</time>
      </trkpt>
      <trkpt lat="40.4605130" lon="-4.6156790">
        <ele>874.7</ele>
        <time>2019-08-13T16:33:00Z</time>
      </trkpt>
      <trkpt lat="40.4605460" lon="-4.6156880">
        <ele>874.9</ele>
        <time>2019-08-13T16:33:01Z</time>
      </trkpt>
      <trkpt lat="40.4605780" lon="-4.6156980">
        <ele>875.1</ele>
        <time>2019-08-13T16:33:02Z</time>
      </trkpt>
      <trkpt lat="40.4606100" lon="-4.6157080">
        <ele>875.3</ele>
        <time>2019-08-13T16:33:03Z</time>
      </trkpt>
      <trkpt lat="40.4606410" lon="-4.6157190">
        <ele>875.4</ele>
        <time>2019-08-13T16:33:04Z</time>
      </trkpt>
      <trkpt lat="40.4606720" lon="-4.6157290">
        <ele>875.6</ele>
        <time>2019-08-13T16:33:05Z</time>
      </trkpt>
      <trkpt lat="40.4607040" lon="-4.6157390">
        <ele>875.7</ele>
        <time>2019-08-13T16:33:06Z</time>
      </trkpt>
      <trkpt lat="40.4607350" lon="-4.6157470">
        <ele>875.9</ele>
        <time>2019-08-13T16:33:07Z</time>
      </trkpt>
      <trkpt lat="40.4607660" lon="-4.6157550">
        <ele>876.0</ele>
        <time>2019-08-13T16:33:08Z</time>
      </trkpt>
      <trkpt lat="40.4607970" lon="-4.6157630">
        <ele>876.2</ele>
        <time>2019-08-13T16:33:09Z</time>
      </trkpt>
      <trkpt lat="40.4608270" lon="-4.6157720">
        <ele>876.3</ele>
        <time>2019-08-13T16:33:10Z</time>
      </trkpt>
      <trkpt lat="40.4608560" lon="-4.6157820">
        <ele>876.4</ele>
        <time>2019-08-13T16:33:11Z</time>
      </trkpt>
      <trkpt lat="40.4608860" lon="-4.6157900">
        <ele>876.5</ele>
        <time>2019-08-13T16:33:12Z</time>
      </trkpt>
      <trkpt lat="40.4609160" lon="-4.6157980">
        <ele>876.6</ele>
        <time>2019-08-13T16:33:13Z</time>
      </trkpt>
      <trkpt lat="40.4609460" lon="-4.6158070">
        <ele>876.7</ele>
        <time>2019-08-13T16:33:14Z</time>
      </trkpt>
      <trkpt lat="40.4609760" lon="-4.6158160">
        <ele>876.8</ele>
        <time>2019-08-13T16:33:15Z</time>
      </trkpt>
      <trkpt lat="40.4610070" lon="-4.6158240">
        <ele>876.9</ele>
        <time>2019-08-13T16:33:16Z</time>
      </trkpt>
      <trkpt lat="40.4610370" lon="-4.6158320">
        <ele>877.0</ele>
        <time>2019-08-13T16:33:17Z</time>
      </trkpt>
      <trkpt lat="40.4610680" lon="-4.6158410">
        <ele>877.1</ele>
        <time>2019-08-13T16:33:18Z</time>
      </trkpt>
      <trkpt lat="40.4610990" lon="-4.6158490">
        <ele>877.2</ele>
        <time>2019-08-13T16:33:19Z</time>
      </trkpt>
      <trkpt lat="40.4611290" lon="-4.6158590">
        <ele>877.3</ele>
        <time>2019-08-13T16:33:20Z</time>
      </trkpt>
      <trkpt lat="40.4611590" lon="-4.6158690">
        <ele>877.4</ele>
        <time>2019-08-13T16:33:21Z</time>
      </trkpt>
      <trkpt lat="40.4611890" lon="-4.6158790">
        <ele>877.6</ele>
        <time>2019-08-13T16:33:22Z</time>
      </trkpt>
      <trkpt lat="40.4612190" lon="-4.6158870">
        <ele>877.8</ele>
        <time>2019-08-13T16:33:23Z</time>
      </trkpt>
      <trkpt lat="40.4612470" lon="-4.6158950">
        <ele>877.9</ele>
        <time>2019-08-13T16:33:24Z</time>
      </trkpt>
      <trkpt lat="40.4612740" lon="-4.6159030">
        <ele>878.0</ele>
        <time>2019-08-13T16:33:25Z</time>
      </trkpt>
      <trkpt lat="40.4613260" lon="-4.6159170">
        <ele>878.3</ele>
        <time>2019-08-13T16:33:27Z</time>
      </trkpt>
      <trkpt lat="40.4613760" lon="-4.6159340">
        <ele>878.6</ele>
        <time>2019-08-13T16:33:29Z</time>
      </trkpt>
      <trkpt lat="40.4614030" lon="-4.6159410">
        <ele>878.7</ele>
        <time>2019-08-13T16:33:30Z</time>
      </trkpt>
      <trkpt lat="40.4614300" lon="-4.6159500">
        <ele>878.9</ele>
        <time>2019-08-13T16:33:31Z</time>
      </trkpt>
      <trkpt lat="40.4614570" lon="-4.6159570">
        <ele>879.0</ele>
        <time>2019-08-13T16:33:32Z</time>
      </trkpt>
      <trkpt lat="40.4614840" lon="-4.6159640">
        <ele>879.2</ele>
        <time>2019-08-13T16:33:33Z</time>
      </trkpt>
      <trkpt lat="40.4615350" lon="-4.6159790">
        <ele>879.4</ele>
        <time>2019-08-13T16:33:35Z</time>
      </trkpt>
      <trkpt lat="40.4615850" lon="-4.6159920">
        <ele>879.7</ele>
        <time>2019-08-13T16:33:37Z</time>
      </trkpt>
      <trkpt lat="40.4616350" lon="-4.6160070">
        <ele>880.0</ele>
        <time>2019-08-13T16:33:39Z</time>
      </trkpt>
      <trkpt lat="40.4616830" lon="-4.6160240">
        <ele>880.3</ele>
        <time>2019-08-13T16:33:41Z</time>
      </trkpt>
      <trkpt lat="40.4617320" lon="-4.6160390">
        <ele>880.6</ele>
        <time>2019-08-13T16:33:43Z</time>
      </trkpt>
      <trkpt lat="40.4617810" lon="-4.6160550">
        <ele>880.9</ele>
        <time>2019-08-13T16:33:45Z</time>
      </trkpt>
      <trkpt lat="40.4618280" lon="-4.6160720">
        <ele>881.2</ele>
        <time>2019-08-13T16:33:47Z</time>
      </trkpt>
      <trkpt lat="40.4618750" lon="-4.6160930">
        <ele>881.4</ele>
        <time>2019-08-13T16:33:49Z</time>
      </trkpt>
      <trkpt lat="40.4619240" lon="-4.6161150">
        <ele>881.7</ele>
        <time>2019-08-13T16:33:51Z</time>
      </trkpt>
      <trkpt lat="40.4619740" lon="-4.6161390">
        <ele>882.0</ele>
        <time>2019-08-13T16:33:53Z</time>
      </trkpt>
      <trkpt lat="40.4620230" lon="-4.6161650">
        <ele>882.2</ele>
        <time>2019-08-13T16:33:55Z</time>
      </trkpt>
      <trkpt lat="40.4620720" lon="-4.6161910">
        <ele>882.5</ele>
        <time>2019-08-13T16:33:57Z</time>
      </trkpt>
      <trkpt lat="40.4621180" lon="-4.6162220">
        <ele>882.7</ele>
        <time>2019-08-13T16:33:59Z</time>
      </trkpt>
      <trkpt lat="40.4621620" lon="-4.6162580">
        <ele>883.0</ele>
        <time>2019-08-13T16:34:01Z</time>
      </trkpt>
      <trkpt lat="40.4622060" lon="-4.6162960">
        <ele>883.2</ele>
        <time>2019-08-13T16:34:03Z</time>
      </trkpt>
      <trkpt lat="40.4622490" lon="-4.6163360">
        <ele>883.5</ele>
        <time>2019-08-13T16:34:05Z</time>
      </trkpt>
      <trkpt lat="40.4622910" lon="-4.6163790">
        <ele>883.8</ele>
        <time>2019-08-13T16:34:07Z</time>
      </trkpt>
      <trkpt lat="40.4623310" lon="-4.6164250">
        <ele>884.0</ele>
        <time>2019-08-13T16:34:09Z</time>
      </trkpt>
      <trkpt lat="40.4623690" lon="-4.6164730">
        <ele>884.2</ele>
        <time>2019-08-13T16:34:11Z</time>
      </trkpt>
      <trkpt lat="40.4624040" lon="-4.6165240">
        <ele>884.5</ele>
        <time>2019-08-13T16:34:13Z</time>
      </trkpt>
      <trkpt lat="40.4624360" lon="-4.6165760">
        <ele>884.7</ele>
        <time>2019-08-13T16:34:15Z</time>
      </trkpt>
      <trkpt lat="40.4624660" lon="-4.6166300">
        <ele>884.9</ele>
        <time>2019-08-13T16:34:17Z</time>
      </trkpt>
      <trkpt lat="40.4624940" lon="-4.6166860">
        <ele>885.2</ele>
        <time>2019-08-13T16:34:19Z</time>
      </trkpt>
      <trkpt lat="40.4625230" lon="-4.6167430">
        <ele>885.5</ele>
        <time>2019-08-13T16:34:21Z</time>
      </trkpt>
      <trkpt lat="40.4625490" lon="-4.6168020">
        <ele>885.7</ele>
        <time>2019-08-13T16:34:23Z</time>
      </trkpt>
      <trkpt lat="40.4625730" lon="-4.6168600">
        <ele>886.0</ele>
        <time>2019-08-13T16:34:25Z</time>
      </trkpt>
      <trkpt lat="40.4625950" lon="-4.6169200">
        <ele>886.3</ele>
        <time>2019-08-13T16:34:27Z</time>
      </trkpt>
      <trkpt lat="40.4626130" lon="-4.6169860">
        <ele>886.6</ele>
        <time>2019-08-13T16:34:29Z</time>
      </trkpt>
      <trkpt lat="40.4626330" lon="-4.6170510">
        <ele>886.9</ele>
        <time>2019-08-13T16:34:31Z</time>
      </trkpt>
      <trkpt lat="40.4626480" lon="-4.6171180">
        <ele>887.2</ele>
        <time>2019-08-13T16:34:33Z</time>
      </trkpt>
      <trkpt lat="40.4626610" lon="-4.6171840">
        <ele>887.5</ele>
        <time>2019-08-13T16:34:35Z</time>
      </trkpt>
      <trkpt lat="40.4626720" lon="-4.6172500">
        <ele>887.8</ele>
        <time>2019-08-13T16:34:37Z</time>
      </trkpt>
      <trkpt lat="40.4626830" lon="-4.6173150">
        <ele>888.0</ele>
        <time>2019-08-13T16:34:39Z</time>
      </trkpt>
      <trkpt lat="40.4626930" lon="-4.6173790">
        <ele>888.3</ele>
        <time>2019-08-13T16:34:41Z</time>
      </trkpt>
      <trkpt lat="40.4627030" lon="-4.6174400">
        <ele>888.6</ele>
        <time>2019-08-13T16:34:43Z</time>
      </trkpt>
      <trkpt lat="40.4627100" lon="-4.6175020">
        <ele>888.9</ele>
        <time>2019-08-13T16:34:45Z</time>
      </trkpt>
      <trkpt lat="40.4627200" lon="-4.6175650">
        <ele>889.2</ele>
        <time>2019-08-13T16:34:47Z</time>
      </trkpt>
      <trkpt lat="40.4627280" lon="-4.6176290">
        <ele>889.4</ele>
        <time>2019-08-13T16:34:49Z</time>
      </trkpt>
      <trkpt lat="40.4627370" lon="-4.6176930">
        <ele>889.7</ele>
        <time>2019-08-13T16:34:51Z</time>
      </trkpt>
      <trkpt lat="40.4627460" lon="-4.6177570">
        <ele>890.0</ele>
        <time>2019-08-13T16:34:53Z</time>
      </trkpt>
      <trkpt lat="40.4627540" lon="-4.6178220">
        <ele>890.3</ele>
        <time>2019-08-13T16:34:55Z</time>
      </trkpt>
      <trkpt lat="40.4627610" lon="-4.6178860">
        <ele>890.5</ele>
        <time>2019-08-13T16:34:57Z</time>
      </trkpt>
      <trkpt lat="40.4627680" lon="-4.6179480">
        <ele>890.8</ele>
        <time>2019-08-13T16:34:59Z</time>
      </trkpt>
      <trkpt lat="40.4627780" lon="-4.6180090">
        <ele>891.0</ele>
        <time>2019-08-13T16:35:01Z</time>
      </trkpt>
      <trkpt lat="40.4627870" lon="-4.6180730">
        <ele>891.2</ele>
        <time>2019-08-13T16:35:03Z</time>
      </trkpt>
      <trkpt lat="40.4627940" lon="-4.6181360">
        <ele>891.4</ele>
        <time>2019-08-13T16:35:05Z</time>
      </trkpt>
      <trkpt lat="40.4628020" lon="-4.6181990">
        <ele>891.6</ele>
        <time>2019-08-13T16:35:07Z</time>
      </trkpt>
      <trkpt lat="40.4628110" lon="-4.6182620">
        <ele>891.8</ele>
        <time>2019-08-13T16:35:09Z</time>
      </trkpt>
      <trkpt lat="40.4628210" lon="-4.6183250">
        <ele>892.1</ele>
        <time>2019-08-13T16:35:11Z</time>
      </trkpt>
      <trkpt lat="40.4628280" lon="-4.6183880">
        <ele>892.3</ele>
        <time>2019-08-13T16:35:13Z</time>
      </trkpt>
      <trkpt lat="40.4628390" lon="-4.6184500">
        <ele>892.7</ele>
        <time>2019-08-13T16:35:15Z</time>
      </trkpt>
      <trkpt lat="40.4628460" lon="-4.6185110">
        <ele>893.0</ele>
        <time>2019-08-13T16:35:17Z</time>
      </trkpt>
      <trkpt lat="40.4628530" lon="-4.6185700">
        <ele>893.3</ele>
        <time>2019-08-13T16:35:19Z</time>
      </trkpt>
      <trkpt lat="40.4628610" lon="-4.6186270">
        <ele>893.6</ele>
        <time>2019-08-13T16:35:21Z</time>
      </trkpt>
      <trkpt lat="40.4628680" lon="-4.6186840">
        <ele>894.0</ele>
        <time>2019-08-13T16:35:23Z</time>
      </trkpt>
      <trkpt lat="40.4628750" lon="-4.6187410">
        <ele>894.3</ele>
        <time>2019-08-13T16:35:25Z</time>
      </trkpt>
      <trkpt lat="40.4628850" lon="-4.6187990">
        <ele>894.7</ele>
        <time>2019-08-13T16:35:27Z</time>
      </trkpt>
      <trkpt lat="40.4628940" lon="-4.6188550">
        <ele>895.0</ele>
        <time>2019-08-13T16:35:29Z</time>
      </trkpt>
      <trkpt lat="40.4629000" lon="-4.6189120">
        <ele>895.3</ele>
        <time>2019-08-13T16:35:31Z</time>
      </trkpt>
      <trkpt lat="40.4629090" lon="-4.6189700">
        <ele>895.7</ele>
        <time>2019-08-13T16:35:33Z</time>
      </trkpt>
      <trkpt lat="40.4629140" lon="-4.6190180">
        <ele>895.9</ele>
        <time>2019-08-13T16:35:35Z</time>
      </trkpt>
      <trkpt lat="40.4629220" lon="-4.6190690">
        <ele>896.2</ele>
        <time>2019-08-13T16:35:37Z</time>
      </trkpt>
      <trkpt lat="40.4629340" lon="-4.6191250">
        <ele>896.5</ele>
        <time>2019-08-13T16:35:39Z</time>
      </trkpt>
      <trkpt lat="40.4629440" lon="-4.6191820">
        <ele>896.8</ele>
        <time>2019-08-13T16:35:41Z</time>
      </trkpt>
      <trkpt lat="40.4629540" lon="-4.6192380">
        <ele>897.0</ele>
        <time>2019-08-13T16:35:43Z</time>
      </trkpt>
      <trkpt lat="40.4629640" lon="-4.6192940">
        <ele>897.3</ele>
        <time>2019-08-13T16:35:45Z</time>
      </trkpt>
      <trkpt lat="40.4629760" lon="-4.6193510">
        <ele>897.5</ele>
        <time>2019-08-13T16:35:47Z</time>
      </trkpt>
      <trkpt lat="40.4629870" lon="-4.6194080">
        <ele>897.7</ele>
        <time>2019-08-13T16:35:49Z</time>
      </trkpt>
      <trkpt lat="40.4629990" lon="-4.6194660">
        <ele>897.9</ele>
        <time>2019-08-13T16:35:51Z</time>
      </trkpt>
      <trkpt lat="40.4630110" lon="-4.6195240">
        <ele>898.2</ele>
        <time>2019-08-13T16:35:53Z</time>
      </trkpt>
      <trkpt lat="40.4630260" lon="-4.6195820">
        <ele>898.4</ele>
        <time>2019-08-13T16:35:55Z</time>
      </trkpt>
      <trkpt lat="40.4630400" lon="-4.6196380">
        <ele>898.7</ele>
        <time>2019-08-13T16:35:57Z</time>
      </trkpt>
      <trkpt lat="40.4630540" lon="-4.6196930">
        <ele>899.0</ele>
        <time>2019-08-13T16:35:59Z</time>
      </trkpt>
      <trkpt lat="40.4630680" lon="-4.6197480">
        <ele>899.3</ele>
        <time>2019-08-13T16:36:01Z</time>
      </trkpt>
      <trkpt lat="40.4630830" lon="-4.6198030">
        <ele>899.6</ele>
        <time>2019-08-13T16:36:03Z</time>
      </trkpt>
      <trkpt lat="40.4630970" lon="-4.6198580">
        <ele>899.9</ele>
        <time>2019-08-13T16:36:05Z</time>
      </trkpt>
      <trkpt lat="40.4631130" lon="-4.6199130">
        <ele>900.3</ele>
        <time>2019-08-13T16:36:07Z</time>
      </trkpt>
      <trkpt lat="40.4631270" lon="-4.6199670">
        <ele>900.7</ele>
        <time>2019-08-13T16:36:09Z</time>
      </trkpt>
      <trkpt lat="40.4631430" lon="-4.6200210">
        <ele>901.0</ele>
        <time>2019-08-13T16:36:11Z</time>
      </trkpt>
      <trkpt lat="40.4631610" lon="-4.6200730">
        <ele>901.4</ele>
        <time>2019-08-13T16:36:13Z</time>
      </trkpt>
      <trkpt lat="40.4631820" lon="-4.6201230">
        <ele>901.8</ele>
        <time>2019-08-13T16:36:15Z</time>
      </trkpt>
      <trkpt lat="40.4632030" lon="-4.6201720">
        <ele>902.1</ele>
        <time>2019-08-13T16:36:17Z</time>
      </trkpt>
      <trkpt lat="40.4632230" lon="-4.6202210">
        <ele>902.5</ele>
        <time>2019-08-13T16:36:19Z</time>
      </trkpt>
      <trkpt lat="40.4632430" lon="-4.6202710">
        <ele>902.8</ele>
        <time>2019-08-13T16:36:21Z</time>
      </trkpt>
      <trkpt lat="40.4632650" lon="-4.6203210">
        <ele>903.2</ele>
        <time>2019-08-13T16:36:23Z</time>
      </trkpt>
      <trkpt lat="40.4632880" lon="-4.6203710">
        <ele>903.5</ele>
        <time>2019-08-13T16:36:25Z</time>
      </trkpt>
      <trkpt lat="40.4633100" lon="-4.6204220">
        <ele>903.8</ele>
        <time>2019-08-13T16:36:27Z</time>
      </trkpt>
      <trkpt lat="40.4633330" lon="-4.6204690">
        <ele>904.1</ele>
        <time>2019-08-13T16:36:29Z</time>
      </trkpt>
      <trkpt lat="40.4633550" lon="-4.6205110">
        <ele>904.3</ele>
        <time>2019-08-13T16:36:31Z</time>
      </trkpt>
      <trkpt lat="40.4633760" lon="-4.6205610">
        <ele>904.5</ele>
        <time>2019-08-13T16:36:33Z</time>
      </trkpt>
      <trkpt lat="40.4634000" lon="-4.6206070">
        <ele>904.8</ele>
        <time>2019-08-13T16:36:35Z</time>
      </trkpt>
      <trkpt lat="40.4634260" lon="-4.6206530">
        <ele>905.1</ele>
        <time>2019-08-13T16:36:37Z</time>
      </trkpt>
      <trkpt lat="40.4634510" lon="-4.6206950">
        <ele>905.3</ele>
        <time>2019-08-13T16:36:39Z</time>
      </trkpt>
      <trkpt lat="40.4634810" lon="-4.6207310">
        <ele>905.6</ele>
        <time>2019-08-13T16:36:41Z</time>
      </trkpt>
      <trkpt lat="40.4635120" lon="-4.6207690">
        <ele>905.8</ele>
        <time>2019-08-13T16:36:43Z</time>
      </trkpt>
      <trkpt lat="40.4635390" lon="-4.6208120">
        <ele>906.1</ele>
        <time>2019-08-13T16:36:45Z</time>
      </trkpt>
      <trkpt lat="40.4635580" lon="-4.6208610">
        <ele>906.3</ele>
        <time>2019-08-13T16:36:47Z</time>
      </trkpt>
      <trkpt lat="40.4635720" lon="-4.6209170">
        <ele>906.5</ele>
        <time>2019-08-13T16:36:49Z</time>
      </trkpt>
      <trkpt lat="40.4635820" lon="-4.6209850">
        <ele>906.7</ele>
        <time>2019-08-13T16:36:51Z</time>
      </trkpt>
      <trkpt lat="40.4635890" lon="-4.6210240">
        <ele>906.9</ele>
        <time>2019-08-13T16:36:52Z</time>
      </trkpt>
      <trkpt lat="40.4636010" lon="-4.6210630">
        <ele>907.0</ele>
        <time>2019-08-13T16:36:53Z</time>
      </trkpt>
      <trkpt lat="40.4636190" lon="-4.6211020">
        <ele>907.2</ele>
        <time>2019-08-13T16:36:54Z</time>
      </trkpt>
      <trkpt lat="40.4636390" lon="-4.6211400">
        <ele>907.4</ele>
        <time>2019-08-13T16:36:55Z</time>
      </trkpt>
      <trkpt lat="40.4636580" lon="-4.6211750">
        <ele>907.6</ele>
        <time>2019-08-13T16:36:56Z</time>
      </trkpt>
      <trkpt lat="40.4636750" lon="-4.6212070">
        <ele>907.8</ele>
        <time>2019-08-13T16:36:57Z</time>
      </trkpt>
      <trkpt lat="40.4636920" lon="-4.6212380">
        <ele>907.9</ele>
        <time>2019-08-13T16:36:58Z</time>
      </trkpt>
      <trkpt lat="40.4637100" lon="-4.6212710">
        <ele>908.1</ele>
        <time>2019-08-13T16:36:59Z</time>
      </trkpt>
      <trkpt lat="40.4637310" lon="-4.6213050">
        <ele>908.2</ele>
        <time>2019-08-13T16:37:00Z</time>
      </trkpt>
      <trkpt lat="40.4637530" lon="-4.6213420">
        <ele>908.4</ele>
        <time>2019-08-13T16:37:01Z</time>
      </trkpt>
      <trkpt lat="40.4637750" lon="-4.6213810">
        <ele>908.5</ele>
        <time>2019-08-13T16:37:02Z</time>
      </trkpt>
      <trkpt lat="40.4637980" lon="-4.6214200">
        <ele>908.5</ele>
        <time>2019-08-13T16:37:03Z</time>
      </trkpt>
      <trkpt lat="40.4638190" lon="-4.6214580">
        <ele>908.6</ele>
        <time>2019-08-13T16:37:04Z</time>
      </trkpt>
      <trkpt lat="40.4638400" lon="-4.6214960">
        <ele>908.6</ele>
        <time>2019-08-13T16:37:05Z</time>
      </trkpt>
      <trkpt lat="40.4638610" lon="-4.6215340">
        <ele>908.7</ele>
        <time>2019-08-13T16:37:06Z</time>
      </trkpt>
      <trkpt lat="40.4638830" lon="-4.6215720">
        <ele>908.7</ele>
        <time>2019-08-13T16:37:07Z</time>
      </trkpt>
      <trkpt lat="40.4639070" lon="-4.6216120">
        <ele>908.7</ele>
        <time>2019-08-13T16:37:08Z</time>
      </trkpt>
      <trkpt lat="40.4639310" lon="-4.6216530">
        <ele>908.7</ele>
        <time>2019-08-13T16:37:09Z</time>
      </trkpt>
      <trkpt lat="40.4639560" lon="-4.6216950">
        <ele>908.7</ele>
        <time>2019-08-13T16:37:10Z</time>
      </trkpt>
      <trkpt lat="40.4639800" lon="-4.6217390">
        <ele>908.7</ele>
        <time>2019-08-13T16:37:11Z</time>
      </trkpt>
      <trkpt lat="40.4640050" lon="-4.6217830">
        <ele>908.7</ele>
        <time>2019-08-13T16:37:12Z</time>
      </trkpt>
      <trkpt lat="40.4640310" lon="-4.6218260">
        <ele>908.7</ele>
        <time>2019-08-13T16:37:13Z</time>
      </trkpt>
      <trkpt lat="40.4640570" lon="-4.6218690">
        <ele>908.7</ele>
        <time>2019-08-13T16:37:14Z</time>
      </trkpt>
      <trkpt lat="40.4640830" lon="-4.6219120">
        <ele>908.7</ele>
        <time>2019-08-13T16:37:15Z</time>
      </trkpt>
      <trkpt lat="40.4641090" lon="-4.6219570">
        <ele>908.7</ele>
        <time>2019-08-13T16:37:16Z</time>
      </trkpt>
      <trkpt lat="40.4641350" lon="-4.6220020">
        <ele>908.7</ele>
        <time>2019-08-13T16:37:17Z</time>
      </trkpt>
      <trkpt lat="40.4641590" lon="-4.6220480">
        <ele>908.7</ele>
        <time>2019-08-13T16:37:18Z</time>
      </trkpt>
      <trkpt lat="40.4641840" lon="-4.6220920">
        <ele>908.7</ele>
        <time>2019-08-13T16:37:19Z</time>
      </trkpt>
      <trkpt lat="40.4642050" lon="-4.6221350">
        <ele>908.7</ele>
        <time>2019-08-13T16:37:20Z</time>
      </trkpt>
      <trkpt lat="40.4642240" lon="-4.6221740">
        <ele>908.7</ele>
        <time>2019-08-13T16:37:21Z</time>
      </trkpt>
      <trkpt lat="40.4642430" lon="-4.6222140">
        <ele>908.7</ele>
        <time>2019-08-13T16:37:22Z</time>
      </trkpt>
      <trkpt lat="40.4642630" lon="-4.6222540">
        <ele>908.8</ele>
        <time>2019-08-13T16:37:23Z</time>
      </trkpt>
      <trkpt lat="40.4642840" lon="-4.6222940">
        <ele>908.9</ele>
        <time>2019-08-13T16:37:24Z</time>
      </trkpt>
      <trkpt lat="40.4643050" lon="-4.6223360">
        <ele>909.0</ele>
        <time>2019-08-13T16:37:25Z</time>
      </trkpt>
      <trkpt lat="40.4643260" lon="-4.6223780">
        <ele>909.0</ele>
        <time>2019-08-13T16:37:26Z</time>
      </trkpt>
      <trkpt lat="40.4643460" lon="-4.6224200">
        <ele>909.1</ele>
        <time>2019-08-13T16:37:27Z</time>
      </trkpt>
      <trkpt lat="40.4643670" lon="-4.6224620">
        <ele>909.2</ele>
        <time>2019-08-13T16:37:28Z</time>
      </trkpt>
      <trkpt lat="40.4643870" lon="-4.6225030">
        <ele>909.3</ele>
        <time>2019-08-13T16:37:29Z</time>
      </trkpt>
      <trkpt lat="40.4644060" lon="-4.6225440">
        <ele>909.3</ele>
        <time>2019-08-13T16:37:30Z</time>
      </trkpt>
      <trkpt lat="40.4644250" lon="-4.6225850">
        <ele>909.4</ele>
        <time>2019-08-13T16:37:31Z</time>
      </trkpt>
      <trkpt lat="40.4644440" lon="-4.6226270">
        <ele>909.4</ele>
        <time>2019-08-13T16:37:32Z</time>
      </trkpt>
      <trkpt lat="40.4644610" lon="-4.6226680">
        <ele>909.5</ele>
        <time>2019-08-13T16:37:33Z</time>
      </trkpt>
      <trkpt lat="40.4644770" lon="-4.6227090">
        <ele>909.5</ele>
        <time>2019-08-13T16:37:34Z</time>
      </trkpt>
      <trkpt lat="40.4644940" lon="-4.6227500">
        <ele>909.6</ele>
        <time>2019-08-13T16:37:35Z</time>
      </trkpt>
      <trkpt lat="40.4645110" lon="-4.6227900">
        <ele>909.6</ele>
        <time>2019-08-13T16:37:36Z</time>
      </trkpt>
      <trkpt lat="40.4645270" lon="-4.6228310">
        <ele>909.7</ele>
        <time>2019-08-13T16:37:37Z</time>
      </trkpt>
      <trkpt lat="40.4645440" lon="-4.6228720">
        <ele>909.7</ele>
        <time>2019-08-13T16:37:38Z</time>
      </trkpt>
      <trkpt lat="40.4645620" lon="-4.6229140">
        <ele>909.8</ele>
        <time>2019-08-13T16:37:39Z</time>
      </trkpt>
      <trkpt lat="40.4645800" lon="-4.6229570">
        <ele>909.8</ele>
        <time>2019-08-13T16:37:40Z</time>
      </trkpt>
      <trkpt lat="40.4645980" lon="-4.6230000">
        <ele>909.8</ele>
        <time>2019-08-13T16:37:41Z</time>
      </trkpt>
      <trkpt lat="40.4646150" lon="-4.6230440">
        <ele>909.9</ele>
        <time>2019-08-13T16:37:42Z</time>
      </trkpt>
      <trkpt lat="40.4646320" lon="-4.6230890">
        <ele>909.9</ele>
        <time>2019-08-13T16:37:43Z</time>
      </trkpt>
      <trkpt lat="40.4646500" lon="-4.6231350">
        <ele>909.9</ele>
        <time>2019-08-13T16:37:44Z</time>
      </trkpt>
      <trkpt lat="40.4646680" lon="-4.6231810">
        <ele>910.0</ele>
        <time>2019-08-13T16:37:45Z</time>
      </trkpt>
      <trkpt lat="40.4646840" lon="-4.6232270">
        <ele>910.0</ele>
        <time>2019-08-13T16:37:46Z</time>
      </trkpt>
      <trkpt lat="40.4647010" lon="-4.6232720">
        <ele>910.0</ele>
        <time>2019-08-13T16:37:47Z</time>
      </trkpt>
      <trkpt lat="40.4647180" lon="-4.6233180">
        <ele>910.0</ele>
        <time>2019-08-13T16:37:48Z</time>
      </trkpt>
      <trkpt lat="40.4647350" lon="-4.6233630">
        <ele>910.0</ele>
        <time>2019-08-13T16:37:49Z</time>
      </trkpt>
      <trkpt lat="40.4647530" lon="-4.6234080">
        <ele>910.1</ele>
        <time>2019-08-13T16:37:50Z</time>
      </trkpt>
      <trkpt lat="40.4647710" lon="-4.6234540">
        <ele>910.1</ele>
        <time>2019-08-13T16:37:51Z</time>
      </trkpt>
      <trkpt lat="40.4647880" lon="-4.6234990">
        <ele>910.1</ele>
        <time>2019-08-13T16:37:52Z</time>
      </trkpt>
      <trkpt lat="40.4648050" lon="-4.6235450">
        <ele>910.1</ele>
        <time>2019-08-13T16:37:53Z</time>
      </trkpt>
      <trkpt lat="40.4648220" lon="-4.6235880">
        <ele>910.1</ele>
        <time>2019-08-13T16:37:54Z</time>
      </trkpt>
      <trkpt lat="40.4648390" lon="-4.6236310">
        <ele>910.2</ele>
        <time>2019-08-13T16:37:55Z</time>
      </trkpt>
      <trkpt lat="40.4648570" lon="-4.6236720">
        <ele>910.2</ele>
        <time>2019-08-13T16:37:56Z</time>
      </trkpt>
      <trkpt lat="40.4648750" lon="-4.6237130">
        <ele>910.2</ele>
        <time>2019-08-13T16:37:57Z</time>
      </trkpt>
      <trkpt lat="40.4648910" lon="-4.6237550">
        <ele>910.2</ele>
        <time>2019-08-13T16:37:58Z</time>
      </trkpt>
      <trkpt lat="40.4649080" lon="-4.6237960">
        <ele>910.3</ele>
        <time>2019-08-13T16:37:59Z</time>
      </trkpt>
      <trkpt lat="40.4649240" lon="-4.6238370">
        <ele>910.3</ele>
        <time>2019-08-13T16:38:00Z</time>
      </trkpt>
      <trkpt lat="40.4649420" lon="-4.6238780">
        <ele>910.3</ele>
        <time>2019-08-13T16:38:01Z</time>
      </trkpt>
      <trkpt lat="40.4649610" lon="-4.6239200">
        <ele>910.4</ele>
        <time>2019-08-13T16:38:02Z</time>
      </trkpt>
      <trkpt lat="40.4649810" lon="-4.6239630">
        <ele>910.4</ele>
        <time>2019-08-13T16:38:03Z</time>
      </trkpt>
      <trkpt lat="40.4650020" lon="-4.6240060">
        <ele>910.5</ele>
        <time>2019-08-13T16:38:04Z</time>
      </trkpt>
      <trkpt lat="40.4650240" lon="-4.6240510">
        <ele>910.5</ele>
        <time>2019-08-13T16:38:05Z</time>
      </trkpt>
      <trkpt lat="40.4650470" lon="-4.6240950">
        <ele>910.6</ele>
        <time>2019-08-13T16:38:06Z</time>
      </trkpt>
      <trkpt lat="40.4650690" lon="-4.6241370">
        <ele>910.6</ele>
        <time>2019-08-13T16:38:07Z</time>
      </trkpt>
      <trkpt lat="40.4650900" lon="-4.6241760">
        <ele>910.7</ele>
        <time>2019-08-13T16:38:08Z</time>
      </trkpt>
      <trkpt lat="40.4651080" lon="-4.6242120">
        <ele>910.7</ele>
        <time>2019-08-13T16:38:09Z</time>
      </trkpt>
      <trkpt lat="40.4651260" lon="-4.6242440">
        <ele>910.8</ele>
        <time>2019-08-13T16:38:10Z</time>
      </trkpt>
      <trkpt lat="40.4651440" lon="-4.6242740">
        <ele>910.8</ele>
        <time>2019-08-13T16:38:11Z</time>
      </trkpt>
      <trkpt lat="40.4651640" lon="-4.6243050">
        <ele>910.8</ele>
        <time>2019-08-13T16:38:12Z</time>
      </trkpt>
      <trkpt lat="40.4651860" lon="-4.6243390">
        <ele>910.9</ele>
        <time>2019-08-13T16:38:13Z</time>
      </trkpt>
      <trkpt lat="40.4652100" lon="-4.6243740">
        <ele>911.0</ele>
        <time>2019-08-13T16:38:14Z</time>
      </trkpt>
      <trkpt lat="40.4652330" lon="-4.6244110">
        <ele>911.0</ele>
        <time>2019-08-13T16:38:15Z</time>
      </trkpt>
      <trkpt lat="40.4652580" lon="-4.6244480">
        <ele>911.1</ele>
        <time>2019-08-13T16:38:16Z</time>
      </trkpt>
      <trkpt lat="40.4652840" lon="-4.6244850">
        <ele>911.1</ele>
        <time>2019-08-13T16:38:17Z</time>
      </trkpt>
      <trkpt lat="40.4653100" lon="-4.6245200">
        <ele>911.2</ele>
        <time>2019-08-13T16:38:18Z</time>
      </trkpt>
      <trkpt lat="40.4653370" lon="-4.6245560">
        <ele>911.2</ele>
        <time>2019-08-13T16:38:19Z</time>
      </trkpt>
      <trkpt lat="40.4653640" lon="-4.6245910">
        <ele>911.2</ele>
        <time>2019-08-13T16:38:20Z</time>
      </trkpt>
      <trkpt lat="40.4653930" lon="-4.6246240">
        <ele>911.3</ele>
        <time>2019-08-13T16:38:21Z</time>
      </trkpt>
      <trkpt lat="40.4654200" lon="-4.6246570">
        <ele>911.3</ele>
        <time>2019-08-13T16:38:22Z</time>
      </trkpt>
      <trkpt lat="40.4654450" lon="-4.6246870">
        <ele>911.3</ele>
        <time>2019-08-13T16:38:23Z</time>
      </trkpt>
      <trkpt lat="40.4654700" lon="-4.6247170">
        <ele>911.4</ele>
        <time>2019-08-13T16:38:24Z</time>
      </trkpt>
      <trkpt lat="40.4654950" lon="-4.6247480">
        <ele>911.4</ele>
        <time>2019-08-13T16:38:25Z</time>
      </trkpt>
      <trkpt lat="40.4655220" lon="-4.6247800">
        <ele>911.4</ele>
        <time>2019-08-13T16:38:26Z</time>
      </trkpt>
      <trkpt lat="40.4655500" lon="-4.6248110">
        <ele>911.4</ele>
        <time>2019-08-13T16:38:27Z</time>
      </trkpt>
      <trkpt lat="40.4655810" lon="-4.6248410">
        <ele>911.4</ele>
        <time>2019-08-13T16:38:28Z</time>
      </trkpt>
      <trkpt lat="40.4656120" lon="-4.6248730">
        <ele>911.5</ele>
        <time>2019-08-13T16:38:29Z</time>
      </trkpt>
      <trkpt lat="40.4656430" lon="-4.6249050">
        <ele>911.5</ele>
        <time>2019-08-13T16:38:30Z</time>
      </trkpt>
      <trkpt lat="40.4656750" lon="-4.6249350">
        <ele>911.5</ele>
        <time>2019-08-13T16:38:31Z</time>
      </trkpt>
      <trkpt lat="40.4657080" lon="-4.6249630">
        <ele>911.5</ele>
        <time>2019-08-13T16:38:32Z</time>
      </trkpt>
      <trkpt lat="40.4657380" lon="-4.6249890">
        <ele>911.5</ele>
        <time>2019-08-13T16:38:33Z</time>
      </trkpt>
      <trkpt lat="40.4657700" lon="-4.6250150">
        <ele>911.5</ele>
        <time>2019-08-13T16:38:34Z</time>
      </trkpt>
      <trkpt lat="40.4658030" lon="-4.6250410">
        <ele>911.5</ele>
        <time>2019-08-13T16:38:35Z</time>
      </trkpt>
      <trkpt lat="40.4658350" lon="-4.6250680">
        <ele>911.5</ele>
        <time>2019-08-13T16:38:36Z</time>
      </trkpt>
      <trkpt lat="40.4658680" lon="-4.6250960">
        <ele>911.5</ele>
        <time>2019-08-13T16:38:37Z</time>
      </trkpt>
      <trkpt lat="40.4659010" lon="-4.6251230">
        <ele>911.5</ele>
        <time>2019-08-13T16:38:38Z</time>
      </trkpt>
      <trkpt lat="40.4659320" lon="-4.6251470">
        <ele>911.5</ele>
        <time>2019-08-13T16:38:39Z</time>
      </trkpt>
      <trkpt lat="40.4659580" lon="-4.6251680">
        <ele>911.5</ele>
        <time>2019-08-13T16:38:40Z</time>
      </trkpt>
      <trkpt lat="40.4659840" lon="-4.6251850">
        <ele>911.5</ele>
        <time>2019-08-13T16:38:41Z</time>
      </trkpt>
      <trkpt lat="40.4660100" lon="-4.6252030">
        <ele>911.5</ele>
        <time>2019-08-13T16:38:42Z</time>
      </trkpt>
      <trkpt lat="40.4660390" lon="-4.6252180">
        <ele>911.6</ele>
        <time>2019-08-13T16:38:43Z</time>
      </trkpt>
      <trkpt lat="40.4660680" lon="-4.6252350">
        <ele>911.6</ele>
        <time>2019-08-13T16:38:44Z</time>
      </trkpt>
      <trkpt lat="40.4660980" lon="-4.6252530">
        <ele>911.6</ele>
        <time>2019-08-13T16:38:45Z</time>
      </trkpt>
      <trkpt lat="40.4661280" lon="-4.6252720">
        <ele>911.6</ele>
        <time>2019-08-13T16:38:46Z</time>
      </trkpt>
      <trkpt lat="40.4661580" lon="-4.6252910">
        <ele>911.6</ele>
        <time>2019-08-13T16:38:47Z</time>
      </trkpt>
      <trkpt lat="40.4661890" lon="-4.6253070">
        <ele>911.6</ele>
        <time>2019-08-13T16:38:48Z</time>
      </trkpt>
      <trkpt lat="40.4662210" lon="-4.6253210">
        <ele>911.6</ele>
        <time>2019-08-13T16:38:49Z</time>
      </trkpt>
      <trkpt lat="40.4662520" lon="-4.6253370">
        <ele>911.6</ele>
        <time>2019-08-13T16:38:50Z</time>
      </trkpt>
      <trkpt lat="40.4662820" lon="-4.6253530">
        <ele>911.6</ele>
        <time>2019-08-13T16:38:51Z</time>
      </trkpt>
      <trkpt lat="40.4663130" lon="-4.6253700">
        <ele>911.6</ele>
        <time>2019-08-13T16:38:52Z</time>
      </trkpt>
      <trkpt lat="40.4663450" lon="-4.6253850">
        <ele>911.6</ele>
        <time>2019-08-13T16:38:53Z</time>
      </trkpt>
      <trkpt lat="40.4663770" lon="-4.6253980">
        <ele>911.6</ele>
        <time>2019-08-13T16:38:54Z</time>
      </trkpt>
      <trkpt lat="40.4664100" lon="-4.6254120">
        <ele>911.6</ele>
        <time>2019-08-13T16:38:55Z</time>
      </trkpt>
      <trkpt lat="40.4664420" lon="-4.6254260">
        <ele>911.6</ele>
        <time>2019-08-13T16:38:56Z</time>
      </trkpt>
      <trkpt lat="40.4664740" lon="-4.6254390">
        <ele>911.5</ele>
        <time>2019-08-13T16:38:57Z</time>
      </trkpt>
      <trkpt lat="40.4665080" lon="-4.6254520">
        <ele>911.5</ele>
        <time>2019-08-13T16:38:58Z</time>
      </trkpt>
      <trkpt lat="40.4665410" lon="-4.6254640">
        <ele>911.5</ele>
        <time>2019-08-13T16:38:59Z</time>
      </trkpt>
      <trkpt lat="40.4665750" lon="-4.6254750">
        <ele>911.4</ele>
        <time>2019-08-13T16:39:00Z</time>
      </trkpt>
      <trkpt lat="40.4666100" lon="-4.6254870">
        <ele>911.4</ele>
        <time>2019-08-13T16:39:01Z</time>
      </trkpt>
      <trkpt lat="40.4666440" lon="-4.6254990">
        <ele>911.4</ele>
        <time>2019-08-13T16:39:02Z</time>
      </trkpt>
      <trkpt lat="40.4666790" lon="-4.6255100">
        <ele>911.3</ele>
        <time>2019-08-13T16:39:03Z</time>
      </trkpt>
      <trkpt lat="40.4667140" lon="-4.6255190">
        <ele>911.3</ele>
        <time>2019-08-13T16:39:04Z</time>
      </trkpt>
      <trkpt lat="40.4667500" lon="-4.6255280">
        <ele>911.3</ele>
        <time>2019-08-13T16:39:05Z</time>
      </trkpt>
      <trkpt lat="40.4667840" lon="-4.6255370">
        <ele>911.3</ele>
        <time>2019-08-13T16:39:06Z</time>
      </trkpt>
      <trkpt lat="40.4668170" lon="-4.6255450">
        <ele>911.2</ele>
        <time>2019-08-13T16:39:07Z</time>
      </trkpt>
      <trkpt lat="40.4668470" lon="-4.6255510">
        <ele>911.2</ele>
        <time>2019-08-13T16:39:08Z</time>
      </trkpt>
      <trkpt lat="40.4668760" lon="-4.6255570">
        <ele>911.2</ele>
        <time>2019-08-13T16:39:09Z</time>
      </trkpt>
      <trkpt lat="40.4669050" lon="-4.6255650">
        <ele>911.2</ele>
        <time>2019-08-13T16:39:10Z</time>
      </trkpt>
      <trkpt lat="40.4669370" lon="-4.6255710">
        <ele>911.2</ele>
        <time>2019-08-13T16:39:11Z</time>
      </trkpt>
      <trkpt lat="40.4669700" lon="-4.6255740">
        <ele>911.2</ele>
        <time>2019-08-13T16:39:12Z</time>
      </trkpt>
      <trkpt lat="40.4670050" lon="-4.6255780">
        <ele>911.2</ele>
        <time>2019-08-13T16:39:13Z</time>
      </trkpt>
      <trkpt lat="40.4670410" lon="-4.6255820">
        <ele>911.2</ele>
        <time>2019-08-13T16:39:14Z</time>
      </trkpt>
      <trkpt lat="40.4670780" lon="-4.6255870">
        <ele>911.2</ele>
        <time>2019-08-13T16:39:15Z</time>
      </trkpt>
      <trkpt lat="40.4671140" lon="-4.6255920">
        <ele>911.2</ele>
        <time>2019-08-13T16:39:16Z</time>
      </trkpt>
      <trkpt lat="40.4671490" lon="-4.6255990">
        <ele>911.3</ele>
        <time>2019-08-13T16:39:17Z</time>
      </trkpt>
      <trkpt lat="40.4671840" lon="-4.6256030">
        <ele>911.3</ele>
        <time>2019-08-13T16:39:18Z</time>
      </trkpt>
      <trkpt lat="40.4672200" lon="-4.6256060">
        <ele>911.3</ele>
        <time>2019-08-13T16:39:19Z</time>
      </trkpt>
      <trkpt lat="40.4672570" lon="-4.6256070">
        <ele>911.3</ele>
        <time>2019-08-13T16:39:20Z</time>
      </trkpt>
      <trkpt lat="40.4672950" lon="-4.6256080">
        <ele>911.3</ele>
        <time>2019-08-13T16:39:21Z</time>
      </trkpt>
      <trkpt lat="40.4673330" lon="-4.6256120">
        <ele>911.3</ele>
        <time>2019-08-13T16:39:22Z</time>
      </trkpt>
      <trkpt lat="40.4673720" lon="-4.6256150">
        <ele>911.4</ele>
        <time>2019-08-13T16:39:23Z</time>
      </trkpt>
      <trkpt lat="40.4674120" lon="-4.6256180">
        <ele>911.4</ele>
        <time>2019-08-13T16:39:24Z</time>
      </trkpt>
      <trkpt lat="40.4674520" lon="-4.6256210">
        <ele>911.4</ele>
        <time>2019-08-13T16:39:25Z</time>
      </trkpt>
      <trkpt lat="40.4674920" lon="-4.6256240">
        <ele>911.5</ele>
        <time>2019-08-13T16:39:26Z</time>
      </trkpt>
      <trkpt lat="40.4675320" lon="-4.6256270">
        <ele>911.5</ele>
        <time>2019-08-13T16:39:27Z</time>
      </trkpt>
      <trkpt lat="40.4675740" lon="-4.6256310">
        <ele>911.6</ele>
        <time>2019-08-13T16:39:28Z</time>
      </trkpt>
      <trkpt lat="40.4676160" lon="-4.6256340">
        <ele>911.7</ele>
        <time>2019-08-13T16:39:29Z</time>
      </trkpt>
      <trkpt lat="40.4676560" lon="-4.6256370">
        <ele>911.8</ele>
        <time>2019-08-13T16:39:30Z</time>
      </trkpt>
      <trkpt lat="40.4676960" lon="-4.6256400">
        <ele>911.8</ele>
        <time>2019-08-13T16:39:31Z</time>
      </trkpt>
      <trkpt lat="40.4677360" lon="-4.6256450">
        <ele>911.9</ele>
        <time>2019-08-13T16:39:32Z</time>
      </trkpt>
      <trkpt lat="40.4677760" lon="-4.6256470">
        <ele>912.0</ele>
        <time>2019-08-13T16:39:33Z</time>
      </trkpt>
      <trkpt lat="40.4678140" lon="-4.6256490">
        <ele>912.1</ele>
        <time>2019-08-13T16:39:34Z</time>
      </trkpt>
      <trkpt lat="40.4678530" lon="-4.6256520">
        <ele>912.2</ele>
        <time>2019-08-13T16:39:35Z</time>
      </trkpt>
      <trkpt lat="40.4678920" lon="-4.6256560">
        <ele>912.3</ele>
        <time>2019-08-13T16:39:36Z</time>
      </trkpt>
      <trkpt lat="40.4679310" lon="-4.6256600">
        <ele>912.4</ele>
        <time>2019-08-13T16:39:37Z</time>
      </trkpt>
      <trkpt lat="40.4679690" lon="-4.6256630">
        <ele>912.5</ele>
        <time>2019-08-13T16:39:38Z</time>
      </trkpt>
      <trkpt lat="40.4680070" lon="-4.6256680">
        <ele>912.6</ele>
        <time>2019-08-13T16:39:39Z</time>
      </trkpt>
      <trkpt lat="40.4680450" lon="-4.6256710">
        <ele>912.7</ele>
        <time>2019-08-13T16:39:40Z</time>
      </trkpt>
      <trkpt lat="40.4680830" lon="-4.6256740">
        <ele>912.8</ele>
        <time>2019-08-13T16:39:41Z</time>
      </trkpt>
      <trkpt lat="40.4681190" lon="-4.6256790">
        <ele>912.9</ele>
        <time>2019-08-13T16:39:42Z</time>
      </trkpt>
      <trkpt lat="40.4681550" lon="-4.6256820">
        <ele>912.9</ele>
        <time>2019-08-13T16:39:43Z</time>
      </trkpt>
      <trkpt lat="40.4681920" lon="-4.6256840">
        <ele>913.0</ele>
        <time>2019-08-13T16:39:44Z</time>
      </trkpt>
      <trkpt lat="40.4682280" lon="-4.6256870">
        <ele>913.1</ele>
        <time>2019-08-13T16:39:45Z</time>
      </trkpt>
      <trkpt lat="40.4682660" lon="-4.6256910">
        <ele>913.1</ele>
        <time>2019-08-13T16:39:46Z</time>
      </trkpt>
      <trkpt lat="40.4683040" lon="-4.6256940">
        <ele>913.2</ele>
        <time>2019-08-13T16:39:47Z</time>
      </trkpt>
      <trkpt lat="40.4683430" lon="-4.6256970">
        <ele>913.3</ele>
        <time>2019-08-13T16:39:48Z</time>
      </trkpt>
      <trkpt lat="40.4683820" lon="-4.6257020">
        <ele>913.3</ele>
        <time>2019-08-13T16:39:49Z</time>
      </trkpt>
      <trkpt lat="40.4684210" lon="-4.6257080">
        <ele>913.4</ele>
        <time>2019-08-13T16:39:50Z</time>
      </trkpt>
      <trkpt lat="40.4684580" lon="-4.6257150">
        <ele>913.5</ele>
        <time>2019-08-13T16:39:51Z</time>
      </trkpt>
      <trkpt lat="40.4684930" lon="-4.6257230">
        <ele>913.5</ele>
        <time>2019-08-13T16:39:52Z</time>
      </trkpt>
      <trkpt lat="40.4685290" lon="-4.6257320">
        <ele>913.6</ele>
        <time>2019-08-13T16:39:53Z</time>
      </trkpt>
      <trkpt lat="40.4685680" lon="-4.6257410">
        <ele>913.7</ele>
        <time>2019-08-13T16:39:54Z</time>
      </trkpt>
      <trkpt lat="40.4686050" lon="-4.6257520">
        <ele>913.8</ele>
        <time>2019-08-13T16:39:55Z</time>
      </trkpt>
      <trkpt lat="40.4686420" lon="-4.6257650">
        <ele>913.9</ele>
        <time>2019-08-13T16:39:56Z</time>
      </trkpt>
      <trkpt lat="40.4686790" lon="-4.6257810">
        <ele>914.0</ele>
        <time>2019-08-13T16:39:57Z</time>
      </trkpt>
      <trkpt lat="40.4687170" lon="-4.6257990">
        <ele>914.1</ele>
        <time>2019-08-13T16:39:58Z</time>
      </trkpt>
      <trkpt lat="40.4687560" lon="-4.6258180">
        <ele>914.3</ele>
        <time>2019-08-13T16:39:59Z</time>
      </trkpt>
      <trkpt lat="40.4687950" lon="-4.6258360">
        <ele>914.4</ele>
        <time>2019-08-13T16:40:00Z</time>
      </trkpt>
      <trkpt lat="40.4688340" lon="-4.6258570">
        <ele>914.6</ele>
        <time>2019-08-13T16:40:01Z</time>
      </trkpt>
      <trkpt lat="40.4688730" lon="-4.6258800">
        <ele>914.8</ele>
        <time>2019-08-13T16:40:02Z</time>
      </trkpt>
      <trkpt lat="40.4689110" lon="-4.6259060">
        <ele>915.0</ele>
        <time>2019-08-13T16:40:03Z</time>
      </trkpt>
      <trkpt lat="40.4689490" lon="-4.6259350">
        <ele>915.2</ele>
        <time>2019-08-13T16:40:04Z</time>
      </trkpt>
      <trkpt lat="40.4689850" lon="-4.6259660">
        <ele>915.4</ele>
        <time>2019-08-13T16:40:05Z</time>
      </trkpt>
      <trkpt lat="40.4690210" lon="-4.6259980">
        <ele>915.7</ele>
        <time>2019-08-13T16:40:06Z</time>
      </trkpt>
      <trkpt lat="40.4690560" lon="-4.6260320">
        <ele>915.9</ele>
        <time>2019-08-13T16:40:07Z</time>
      </trkpt>
      <trkpt lat="40.4690900" lon="-4.6260670">
        <ele>916.2</ele>
        <time>2019-08-13T16:40:08Z</time>
      </trkpt>
      <trkpt lat="40.4691200" lon="-4.6261020">
        <ele>916.5</ele>
        <time>2019-08-13T16:40:09Z</time>
      </trkpt>
      <trkpt lat="40.4691470" lon="-4.6261380">
        <ele>916.8</ele>
        <time>2019-08-13T16:40:10Z</time>
      </trkpt>
      <trkpt lat="40.4691750" lon="-4.6261750">
        <ele>917.1</ele>
        <time>2019-08-13T16:40:11Z</time>
      </trkpt>
      <trkpt lat="40.4692020" lon="-4.6262160">
        <ele>917.4</ele>
        <time>2019-08-13T16:40:12Z</time>
      </trkpt>
      <trkpt lat="40.4692280" lon="-4.6262570">
        <ele>917.7</ele>
        <time>2019-08-13T16:40:13Z</time>
      </trkpt>
      <trkpt lat="40.4692530" lon="-4.6263010">
        <ele>918.0</ele>
        <time>2019-08-13T16:40:14Z</time>
      </trkpt>
      <trkpt lat="40.4692780" lon="-4.6263430">
        <ele>918.4</ele>
        <time>2019-08-13T16:40:15Z</time>
      </trkpt>
      <trkpt lat="40.4693020" lon="-4.6263890">
        <ele>918.7</ele>
        <time>2019-08-13T16:40:16Z</time>
      </trkpt>
      <trkpt lat="40.4693240" lon="-4.6264330">
        <ele>919.0</ele>
        <time>2019-08-13T16:40:17Z</time>
      </trkpt>
      <trkpt lat="40.4693460" lon="-4.6264790">
        <ele>919.4</ele>
        <time>2019-08-13T16:40:18Z</time>
      </trkpt>
      <trkpt lat="40.4693640" lon="-4.6265260">
        <ele>919.7</ele>
        <time>2019-08-13T16:40:19Z</time>
      </trkpt>
      <trkpt lat="40.4693800" lon="-4.6265690">
        <ele>920.1</ele>
        <time>2019-08-13T16:40:20Z</time>
      </trkpt>
      <trkpt lat="40.4693920" lon="-4.6266100">
        <ele>920.4</ele>
        <time>2019-08-13T16:40:21Z</time>
      </trkpt>
      <trkpt lat="40.4694030" lon="-4.6266490">
        <ele>920.6</ele>
        <time>2019-08-13T16:40:22Z</time>
      </trkpt>
      <trkpt lat="40.4694130" lon="-4.6266900">
        <ele>920.9</ele>
        <time>2019-08-13T16:40:23Z</time>
      </trkpt>
      <trkpt lat="40.4694230" lon="-4.6267320">
        <ele>921.2</ele>
        <time>2019-08-13T16:40:24Z</time>
      </trkpt>
      <trkpt lat="40.4694320" lon="-4.6267750">
        <ele>921.5</ele>
        <time>2019-08-13T16:40:25Z</time>
      </trkpt>
      <trkpt lat="40.4694410" lon="-4.6268170">
        <ele>921.8</ele>
        <time>2019-08-13T16:40:26Z</time>
      </trkpt>
      <trkpt lat="40.4694500" lon="-4.6268590">
        <ele>922.1</ele>
        <time>2019-08-13T16:40:27Z</time>
      </trkpt>
      <trkpt lat="40.4694560" lon="-4.6269010">
        <ele>922.4</ele>
        <time>2019-08-13T16:40:28Z</time>
      </trkpt>
      <trkpt lat="40.4694630" lon="-4.6269420">
        <ele>922.7</ele>
        <time>2019-08-13T16:40:29Z</time>
      </trkpt>
      <trkpt lat="40.4694670" lon="-4.6269840">
        <ele>923.0</ele>
        <time>2019-08-13T16:40:30Z</time>
      </trkpt>
      <trkpt lat="40.4694710" lon="-4.6270280">
        <ele>923.3</ele>
        <time>2019-08-13T16:40:31Z</time>
      </trkpt>
      <trkpt lat="40.4694740" lon="-4.6270700">
        <ele>923.6</ele>
        <time>2019-08-13T16:40:32Z</time>
      </trkpt>
      <trkpt lat="40.4694760" lon="-4.6271130">
        <ele>923.9</ele>
        <time>2019-08-13T16:40:33Z</time>
      </trkpt>
      <trkpt lat="40.4694770" lon="-4.6271560">
        <ele>924.2</ele>
        <time>2019-08-13T16:40:34Z</time>
      </trkpt>
      <trkpt lat="40.4694770" lon="-4.6271970">
        <ele>924.4</ele>
        <time>2019-08-13T16:40:35Z</time>
      </trkpt>
      <trkpt lat="40.4694760" lon="-4.6272360">
        <ele>924.7</ele>
        <time>2019-08-13T16:40:36Z</time>
      </trkpt>
      <trkpt lat="40.4694750" lon="-4.6272750">
        <ele>924.9</ele>
        <time>2019-08-13T16:40:37Z</time>
      </trkpt>
      <trkpt lat="40.4694740" lon="-4.6273120">
        <ele>925.2</ele>
        <time>2019-08-13T16:40:38Z</time>
      </trkpt>
      <trkpt lat="40.4694690" lon="-4.6273810">
        <ele>925.6</ele>
        <time>2019-08-13T16:40:40Z</time>
      </trkpt>
      <trkpt lat="40.4694660" lon="-4.6274480">
        <ele>926.0</ele>
        <time>2019-08-13T16:40:42Z</time>
      </trkpt>
      <trkpt lat="40.4694770" lon="-4.6275050">
        <ele>926.4</ele>
        <time>2019-08-13T16:40:44Z</time>
      </trkpt>
      <trkpt lat="40.4694910" lon="-4.6275470">
        <ele>926.6</ele>
        <time>2019-08-13T16:40:46Z</time>
      </trkpt>
      <trkpt lat="40.4694390" lon="-4.6275600">
        <ele>927.0</ele>
        <time>2019-08-13T16:43:50Z</time>
      </trkpt>
      <trkpt lat="40.4694230" lon="-4.6276120">
        <ele>927.5</ele>
        <time>2019-08-13T16:43:52Z</time>
      </trkpt>
      <trkpt lat="40.4694210" lon="-4.6276670">
        <ele>927.7</ele>
        <time>2019-08-13T16:43:54Z</time>
      </trkpt>
      <trkpt lat="40.4694140" lon="-4.6277220">
        <ele>928.0</ele>
        <time>2019-08-13T16:43:56Z</time>
      </trkpt>
      <trkpt lat="40.4694060" lon="-4.6277820">
        <ele>928.2</ele>
        <time>2019-08-13T16:43:58Z</time>
      </trkpt>
      <trkpt lat="40.4693980" lon="-4.6278430">
        <ele>928.5</ele>
        <time>2019-08-13T16:44:00Z</time>
      </trkpt>
      <trkpt lat="40.4693880" lon="-4.6279050">
        <ele>928.8</ele>
        <time>2019-08-13T16:44:02Z</time>
      </trkpt>
      <trkpt lat="40.4693770" lon="-4.6279640">
        <ele>929.1</ele>
        <time>2019-08-13T16:44:04Z</time>
      </trkpt>
      <trkpt lat="40.4693680" lon="-4.6280210">
        <ele>929.3</ele>
        <time>2019-08-13T16:44:06Z</time>
      </trkpt>
      <trkpt lat="40.4693590" lon="-4.6280760">
        <ele>929.6</ele>
        <time>2019-08-13T16:44:08Z</time>
      </trkpt>
      <trkpt lat="40.4693470" lon="-4.6281300">
        <ele>929.8</ele>
        <time>2019-08-13T16:44:10Z</time>
      </trkpt>
      <trkpt lat="40.4693380" lon="-4.6281850">
        <ele>930.1</ele>
        <time>2019-08-13T16:44:12Z</time>
      </trkpt>
      <trkpt lat="40.4693280" lon="-4.6282400">
        <ele>930.3</ele>
        <time>2019-08-13T16:44:14Z</time>
      </trkpt>
      <trkpt lat="40.4693200" lon="-4.6282960">
        <ele>930.5</ele>
        <time>2019-08-13T16:44:16Z</time>
      </trkpt>
      <trkpt lat="40.4693100" lon="-4.6283540">
        <ele>930.7</ele>
        <time>2019-08-13T16:44:18Z</time>
      </trkpt>
      <trkpt lat="40.4692970" lon="-4.6284110">
        <ele>930.9</ele>
        <time>2019-08-13T16:44:20Z</time>
      </trkpt>
      <trkpt lat="40.4692870" lon="-4.6284680">
        <ele>931.1</ele>
        <time>2019-08-13T16:44:22Z</time>
      </trkpt>
      <trkpt lat="40.4692780" lon="-4.6285250">
        <ele>931.3</ele>
        <time>2019-08-13T16:44:24Z</time>
      </trkpt>
      <trkpt lat="40.4692680" lon="-4.6285830">
        <ele>931.5</ele>
        <time>2019-08-13T16:44:26Z</time>
      </trkpt>
      <trkpt lat="40.4692610" lon="-4.6286450">
        <ele>931.7</ele>
        <time>2019-08-13T16:44:28Z</time>
      </trkpt>
      <trkpt lat="40.4692540" lon="-4.6287050">
        <ele>931.8</ele>
        <time>2019-08-13T16:44:30Z</time>
      </trkpt>
      <trkpt lat="40.4692490" lon="-4.6287630">
        <ele>931.9</ele>
        <time>2019-08-13T16:44:32Z</time>
      </trkpt>
      <trkpt lat="40.4692440" lon="-4.6288170">
        <ele>932.0</ele>
        <time>2019-08-13T16:44:34Z</time>
      </trkpt>
      <trkpt lat="40.4692400" lon="-4.6288650">
        <ele>932.1</ele>
        <time>2019-08-13T16:44:36Z</time>
      </trkpt>
      <trkpt lat="40.4692370" lon="-4.6289150">
        <ele>932.2</ele>
        <time>2019-08-13T16:44:38Z</time>
      </trkpt>
      <trkpt lat="40.4692350" lon="-4.6289670">
        <ele>932.3</ele>
        <time>2019-08-13T16:44:40Z</time>
      </trkpt>
      <trkpt lat="40.4692360" lon="-4.6290230">
        <ele>932.4</ele>
        <time>2019-08-13T16:44:42Z</time>
      </trkpt>
      <trkpt lat="40.4692380" lon="-4.6290770">
        <ele>932.5</ele>
        <time>2019-08-13T16:44:44Z</time>
      </trkpt>
      <trkpt lat="40.4692410" lon="-4.6291320">
        <ele>932.6</ele>
        <time>2019-08-13T16:44:46Z</time>
      </trkpt>
      <trkpt lat="40.4692450" lon="-4.6291870">
        <ele>932.6</ele>
        <time>2019-08-13T16:44:48Z</time>
      </trkpt>
      <trkpt lat="40.4692520" lon="-4.6292410">
        <ele>932.7</ele>
        <time>2019-08-13T16:44:50Z</time>
      </trkpt>
      <trkpt lat="40.4692610" lon="-4.6292950">
        <ele>932.8</ele>
        <time>2019-08-13T16:44:52Z</time>
      </trkpt>
      <trkpt lat="40.4692720" lon="-4.6293480">
        <ele>932.9</ele>
        <time>2019-08-13T16:44:54Z</time>
      </trkpt>
      <trkpt lat="40.4692850" lon="-4.6294010">
        <ele>932.9</ele>
        <time>2019-08-13T16:44:56Z</time>
      </trkpt>
      <trkpt lat="40.4692970" lon="-4.6294550">
        <ele>933.0</ele>
        <time>2019-08-13T16:44:58Z</time>
      </trkpt>
      <trkpt lat="40.4693100" lon="-4.6295060">
        <ele>933.1</ele>
        <time>2019-08-13T16:45:00Z</time>
      </trkpt>
      <trkpt lat="40.4693260" lon="-4.6295570">
        <ele>933.3</ele>
        <time>2019-08-13T16:45:02Z</time>
      </trkpt>
      <trkpt lat="40.4693460" lon="-4.6296060">
        <ele>933.4</ele>
        <time>2019-08-13T16:45:04Z</time>
      </trkpt>
      <trkpt lat="40.4693660" lon="-4.6296550">
        <ele>933.5</ele>
        <time>2019-08-13T16:45:06Z</time>
      </trkpt>
      <trkpt lat="40.4693880" lon="-4.6297040">
        <ele>933.7</ele>
        <time>2019-08-13T16:45:08Z</time>
      </trkpt>
      <trkpt lat="40.4694120" lon="-4.6297520">
        <ele>933.9</ele>
        <time>2019-08-13T16:45:10Z</time>
      </trkpt>
      <trkpt lat="40.4694360" lon="-4.6297990">
        <ele>934.1</ele>
        <time>2019-08-13T16:45:12Z</time>
      </trkpt>
      <trkpt lat="40.4694630" lon="-4.6298460">
        <ele>934.3</ele>
        <time>2019-08-13T16:45:14Z</time>
      </trkpt>
      <trkpt lat="40.4694900" lon="-4.6298900">
        <ele>934.6</ele>
        <time>2019-08-13T16:45:16Z</time>
      </trkpt>
      <trkpt lat="40.4695200" lon="-4.6299300">
        <ele>934.9</ele>
        <time>2019-08-13T16:45:18Z</time>
      </trkpt>
      <trkpt lat="40.4695540" lon="-4.6299700">
        <ele>935.2</ele>
        <time>2019-08-13T16:45:20Z</time>
      </trkpt>
      <trkpt lat="40.4695880" lon="-4.6300090">
        <ele>935.6</ele>
        <time>2019-08-13T16:45:22Z</time>
      </trkpt>
      <trkpt lat="40.4696220" lon="-4.6300470">
        <ele>935.9</ele>
        <time>2019-08-13T16:45:24Z</time>
      </trkpt>
      <trkpt lat="40.4696570" lon="-4.6300830">
        <ele>936.3</ele>
        <time>2019-08-13T16:45:26Z</time>
      </trkpt>
      <trkpt lat="40.4696940" lon="-4.6301180">
        <ele>936.6</ele>
        <time>2019-08-13T16:45:28Z</time>
      </trkpt>
      <trkpt lat="40.4697340" lon="-4.6301500">
        <ele>937.0</ele>
        <time>2019-08-13T16:45:30Z</time>
      </trkpt>
      <trkpt lat="40.4697750" lon="-4.6301810">
        <ele>937.4</ele>
        <time>2019-08-13T16:45:32Z</time>
      </trkpt>
      <trkpt lat="40.4698180" lon="-4.6302090">
        <ele>937.7</ele>
        <time>2019-08-13T16:45:34Z</time>
      </trkpt>
      <trkpt lat="40.4698620" lon="-4.6302350">
        <ele>938.1</ele>
        <time>2019-08-13T16:45:36Z</time>
      </trkpt>
      <trkpt lat="40.4699060" lon="-4.6302600">
        <ele>938.5</ele>
        <time>2019-08-13T16:45:38Z</time>
      </trkpt>
      <trkpt lat="40.4699500" lon="-4.6302830">
        <ele>938.8</ele>
        <time>2019-08-13T16:45:40Z</time>
      </trkpt>
      <trkpt lat="40.4699970" lon="-4.6303000">
        <ele>939.1</ele>
        <time>2019-08-13T16:45:42Z</time>
      </trkpt>
      <trkpt lat="40.4700430" lon="-4.6303130">
        <ele>939.4</ele>
        <time>2019-08-13T16:45:44Z</time>
      </trkpt>
      <trkpt lat="40.4700890" lon="-4.6303230">
        <ele>939.7</ele>
        <time>2019-08-13T16:45:46Z</time>
      </trkpt>
      <trkpt lat="40.4701350" lon="-4.6303330">
        <ele>940.0</ele>
        <time>2019-08-13T16:45:48Z</time>
      </trkpt>
      <trkpt lat="40.4701780" lon="-4.6303400">
        <ele>940.3</ele>
        <time>2019-08-13T16:45:50Z</time>
      </trkpt>
      <trkpt lat="40.4702220" lon="-4.6303480">
        <ele>940.7</ele>
        <time>2019-08-13T16:45:52Z</time>
      </trkpt>
      <trkpt lat="40.4702680" lon="-4.6303510">
        <ele>941.1</ele>
        <time>2019-08-13T16:45:54Z</time>
      </trkpt>
      <trkpt lat="40.4703150" lon="-4.6303500">
        <ele>941.6</ele>
        <time>2019-08-13T16:45:56Z</time>
      </trkpt>
      <trkpt lat="40.4703600" lon="-4.6303510">
        <ele>942.1</ele>
        <time>2019-08-13T16:45:58Z</time>
      </trkpt>
      <trkpt lat="40.4704040" lon="-4.6303500">
        <ele>942.6</ele>
        <time>2019-08-13T16:46:00Z</time>
      </trkpt>
      <trkpt lat="40.4704470" lon="-4.6303500">
        <ele>943.1</ele>
        <time>2019-08-13T16:46:02Z</time>
      </trkpt>
      <trkpt lat="40.4704910" lon="-4.6303500">
        <ele>943.6</ele>
        <time>2019-08-13T16:46:04Z</time>
      </trkpt>
      <trkpt lat="40.4705360" lon="-4.6303500">
        <ele>944.1</ele>
        <time>2019-08-13T16:46:06Z</time>
      </trkpt>
      <trkpt lat="40.4705800" lon="-4.6303500">
        <ele>944.6</ele>
        <time>2019-08-13T16:46:08Z</time>
      </trkpt>
      <trkpt lat="40.4706240" lon="-4.6303490">
        <ele>945.1</ele>
        <time>2019-08-13T16:46:10Z</time>
      </trkpt>
      <trkpt lat="40.4706700" lon="-4.6303480">
        <ele>945.7</ele>
        <time>2019-08-13T16:46:12Z</time>
      </trkpt>
      <trkpt lat="40.4707170" lon="-4.6303470">
        <ele>946.2</ele>
        <time>2019-08-13T16:46:14Z</time>
      </trkpt>
      <trkpt lat="40.4707620" lon="-4.6303480">
        <ele>946.7</ele>
        <time>2019-08-13T16:46:16Z</time>
      </trkpt>
      <trkpt lat="40.4708030" lon="-4.6303510">
        <ele>947.2</ele>
        <time>2019-08-13T16:46:18Z</time>
      </trkpt>
      <trkpt lat="40.4708400" lon="-4.6303540">
        <ele>947.6</ele>
        <time>2019-08-13T16:46:20Z</time>
      </trkpt>
      <trkpt lat="40.4708800" lon="-4.6303530">
        <ele>948.0</ele>
        <time>2019-08-13T16:46:22Z</time>
      </trkpt>
      <trkpt lat="40.4709200" lon="-4.6303530">
        <ele>948.3</ele>
        <time>2019-08-13T16:46:24Z</time>
      </trkpt>
      <trkpt lat="40.4709580" lon="-4.6303550">
        <ele>948.6</ele>
        <time>2019-08-13T16:46:26Z</time>
      </trkpt>
      <trkpt lat="40.4709960" lon="-4.6303620">
        <ele>948.9</ele>
        <time>2019-08-13T16:46:28Z</time>
      </trkpt>
      <trkpt lat="40.4710360" lon="-4.6303690">
        <ele>949.2</ele>
        <time>2019-08-13T16:46:30Z</time>
      </trkpt>
      <trkpt lat="40.4710770" lon="-4.6303760">
        <ele>949.5</ele>
        <time>2019-08-13T16:46:32Z</time>
      </trkpt>
      <trkpt lat="40.4711180" lon="-4.6303870">
        <ele>949.8</ele>
        <time>2019-08-13T16:46:34Z</time>
      </trkpt>
      <trkpt lat="40.4711590" lon="-4.6303990">
        <ele>950.2</ele>
        <time>2019-08-13T16:46:36Z</time>
      </trkpt>
      <trkpt lat="40.4712010" lon="-4.6304090">
        <ele>950.7</ele>
        <time>2019-08-13T16:46:38Z</time>
      </trkpt>
      <trkpt lat="40.4712430" lon="-4.6304230">
        <ele>951.2</ele>
        <time>2019-08-13T16:46:40Z</time>
      </trkpt>
      <trkpt lat="40.4712840" lon="-4.6304380">
        <ele>951.7</ele>
        <time>2019-08-13T16:46:42Z</time>
      </trkpt>
      <trkpt lat="40.4713260" lon="-4.6304540">
        <ele>952.2</ele>
        <time>2019-08-13T16:46:44Z</time>
      </trkpt>
      <trkpt lat="40.4713660" lon="-4.6304710">
        <ele>952.7</ele>
        <time>2019-08-13T16:46:46Z</time>
      </trkpt>
      <trkpt lat="40.4714030" lon="-4.6304870">
        <ele>953.1</ele>
        <time>2019-08-13T16:46:48Z</time>
      </trkpt>
      <trkpt lat="40.4714390" lon="-4.6305070">
        <ele>953.6</ele>
        <time>2019-08-13T16:46:50Z</time>
      </trkpt>
      <trkpt lat="40.4714760" lon="-4.6305300">
        <ele>954.1</ele>
        <time>2019-08-13T16:46:52Z</time>
      </trkpt>
      <trkpt lat="40.4715130" lon="-4.6305510">
        <ele>954.6</ele>
        <time>2019-08-13T16:46:54Z</time>
      </trkpt>
      <trkpt lat="40.4715530" lon="-4.6305710">
        <ele>955.1</ele>
        <time>2019-08-13T16:46:56Z</time>
      </trkpt>
      <trkpt lat="40.4715900" lon="-4.6305980">
        <ele>955.5</ele>
        <time>2019-08-13T16:46:58Z</time>
      </trkpt>
      <trkpt lat="40.4716250" lon="-4.6306260">
        <ele>956.0</ele>
        <time>2019-08-13T16:47:00Z</time>
      </trkpt>
      <trkpt lat="40.4716640" lon="-4.6306520">
        <ele>956.4</ele>
        <time>2019-08-13T16:47:02Z</time>
      </trkpt>
      <trkpt lat="40.4717000" lon="-4.6306800">
        <ele>956.7</ele>
        <time>2019-08-13T16:47:04Z</time>
      </trkpt>
      <trkpt lat="40.4717370" lon="-4.6307110">
        <ele>957.0</ele>
        <time>2019-08-13T16:47:06Z</time>
      </trkpt>
      <trkpt lat="40.4717740" lon="-4.6307420">
        <ele>957.4</ele>
        <time>2019-08-13T16:47:08Z</time>
      </trkpt>
      <trkpt lat="40.4718100" lon="-4.6307760">
        <ele>957.7</ele>
        <time>2019-08-13T16:47:10Z</time>
      </trkpt>
      <trkpt lat="40.4718450" lon="-4.6308100">
        <ele>958.0</ele>
        <time>2019-08-13T16:47:12Z</time>
      </trkpt>
      <trkpt lat="40.4718790" lon="-4.6308450">
        <ele>958.4</ele>
        <time>2019-08-13T16:47:14Z</time>
      </trkpt>
      <trkpt lat="40.4719120" lon="-4.6308830">
        <ele>958.7</ele>
        <time>2019-08-13T16:47:16Z</time>
      </trkpt>
      <trkpt lat="40.4719460" lon="-4.6309210">
        <ele>959.0</ele>
        <time>2019-08-13T16:47:18Z</time>
      </trkpt>
      <trkpt lat="40.4719790" lon="-4.6309620">
        <ele>959.3</ele>
        <time>2019-08-13T16:47:20Z</time>
      </trkpt>
      <trkpt lat="40.4720100" lon="-4.6310020">
        <ele>959.7</ele>
        <time>2019-08-13T16:47:22Z</time>
      </trkpt>
      <trkpt lat="40.4720400" lon="-4.6310450">
        <ele>959.9</ele>
        <time>2019-08-13T16:47:24Z</time>
      </trkpt>
      <trkpt lat="40.4720710" lon="-4.6310880">
        <ele>960.3</ele>
        <time>2019-08-13T16:47:26Z</time>
      </trkpt>
      <trkpt lat="40.4720990" lon="-4.6311320">
        <ele>960.7</ele>
        <time>2019-08-13T16:47:28Z</time>
      </trkpt>
      <trkpt lat="40.4721250" lon="-4.6311780">
        <ele>961.0</ele>
        <time>2019-08-13T16:47:30Z</time>
      </trkpt>
      <trkpt lat="40.4721520" lon="-4.6312220">
        <ele>961.4</ele>
        <time>2019-08-13T16:47:32Z</time>
      </trkpt>
      <trkpt lat="40.4721790" lon="-4.6312660">
        <ele>961.9</ele>
        <time>2019-08-13T16:47:34Z</time>
      </trkpt>
      <trkpt lat="40.4722020" lon="-4.6313130">
        <ele>962.3</ele>
        <time>2019-08-13T16:47:36Z</time>
      </trkpt>
      <trkpt lat="40.4722260" lon="-4.6313610">
        <ele>962.7</ele>
        <time>2019-08-13T16:47:38Z</time>
      </trkpt>
      <trkpt lat="40.4722490" lon="-4.6314110">
        <ele>963.2</ele>
        <time>2019-08-13T16:47:40Z</time>
      </trkpt>
      <trkpt lat="40.4722710" lon="-4.6314610">
        <ele>963.6</ele>
        <time>2019-08-13T16:47:42Z</time>
      </trkpt>
      <trkpt lat="40.4722910" lon="-4.6315110">
        <ele>964.0</ele>
        <time>2019-08-13T16:47:44Z</time>
      </trkpt>
      <trkpt lat="40.4723100" lon="-4.6315620">
        <ele>964.5</ele>
        <time>2019-08-13T16:47:46Z</time>
      </trkpt>
      <trkpt lat="40.4723290" lon="-4.6316130">
        <ele>965.0</ele>
        <time>2019-08-13T16:47:48Z</time>
      </trkpt>
      <trkpt lat="40.4723470" lon="-4.6316640">
        <ele>965.6</ele>
        <time>2019-08-13T16:47:50Z</time>
      </trkpt>
      <trkpt lat="40.4723640" lon="-4.6317130">
        <ele>966.1</ele>
        <time>2019-08-13T16:47:52Z</time>
      </trkpt>
      <trkpt lat="40.4723790" lon="-4.6317630">
        <ele>966.5</ele>
        <time>2019-08-13T16:47:54Z</time>
      </trkpt>
      <trkpt lat="40.4723930" lon="-4.6318150">
        <ele>966.8</ele>
        <time>2019-08-13T16:47:56Z</time>
      </trkpt>
      <trkpt lat="40.4724060" lon="-4.6318670">
        <ele>967.2</ele>
        <time>2019-08-13T16:47:58Z</time>
      </trkpt>
      <trkpt lat="40.4724170" lon="-4.6319200">
        <ele>967.6</ele>
        <time>2019-08-13T16:48:00Z</time>
      </trkpt>
      <trkpt lat="40.4724280" lon="-4.6319750">
        <ele>968.0</ele>
        <time>2019-08-13T16:48:02Z</time>
      </trkpt>
      <trkpt lat="40.4724390" lon="-4.6320320">
        <ele>968.4</ele>
        <time>2019-08-13T16:48:04Z</time>
      </trkpt>
      <trkpt lat="40.4724490" lon="-4.6320890">
        <ele>968.7</ele>
        <time>2019-08-13T16:48:06Z</time>
      </trkpt>
      <trkpt lat="40.4724600" lon="-4.6321440">
        <ele>969.0</ele>
        <time>2019-08-13T16:48:08Z</time>
      </trkpt>
      <trkpt lat="40.4724680" lon="-4.6321990">
        <ele>969.3</ele>
        <time>2019-08-13T16:48:10Z</time>
      </trkpt>
      <trkpt lat="40.4724760" lon="-4.6322530">
        <ele>969.5</ele>
        <time>2019-08-13T16:48:12Z</time>
      </trkpt>
      <trkpt lat="40.4724840" lon="-4.6323080">
        <ele>969.9</ele>
        <time>2019-08-13T16:48:14Z</time>
      </trkpt>
      <trkpt lat="40.4724870" lon="-4.6323650">
        <ele>970.2</ele>
        <time>2019-08-13T16:48:16Z</time>
      </trkpt>
      <trkpt lat="40.4724900" lon="-4.6324230">
        <ele>970.7</ele>
        <time>2019-08-13T16:48:18Z</time>
      </trkpt>
      <trkpt lat="40.4724980" lon="-4.6324820">
        <ele>971.2</ele>
        <time>2019-08-13T16:48:20Z</time>
      </trkpt>
      <trkpt lat="40.4725050" lon="-4.6325420">
        <ele>971.7</ele>
        <time>2019-08-13T16:48:22Z</time>
      </trkpt>
      <trkpt lat="40.4725100" lon="-4.6326010">
        <ele>972.2</ele>
        <time>2019-08-13T16:48:24Z</time>
      </trkpt>
      <trkpt lat="40.4725160" lon="-4.6326620">
        <ele>972.6</ele>
        <time>2019-08-13T16:48:26Z</time>
      </trkpt>
      <trkpt lat="40.4725230" lon="-4.6327210">
        <ele>973.1</ele>
        <time>2019-08-13T16:48:28Z</time>
      </trkpt>
      <trkpt lat="40.4725290" lon="-4.6327800">
        <ele>973.5</ele>
        <time>2019-08-13T16:48:30Z</time>
      </trkpt>
      <trkpt lat="40.4725370" lon="-4.6328400">
        <ele>973.9</ele>
        <time>2019-08-13T16:48:32Z</time>
      </trkpt>
      <trkpt lat="40.4725440" lon="-4.6328990">
        <ele>974.2</ele>
        <time>2019-08-13T16:48:34Z</time>
      </trkpt>
      <trkpt lat="40.4725500" lon="-4.6329550">
        <ele>974.6</ele>
        <time>2019-08-13T16:48:36Z</time>
      </trkpt>
      <trkpt lat="40.4725560" lon="-4.6330110">
        <ele>974.9</ele>
        <time>2019-08-13T16:48:38Z</time>
      </trkpt>
      <trkpt lat="40.4725620" lon="-4.6330680">
        <ele>975.2</ele>
        <time>2019-08-13T16:48:40Z</time>
      </trkpt>
      <trkpt lat="40.4725680" lon="-4.6331250">
        <ele>975.5</ele>
        <time>2019-08-13T16:48:42Z</time>
      </trkpt>
      <trkpt lat="40.4725730" lon="-4.6331820">
        <ele>975.8</ele>
        <time>2019-08-13T16:48:44Z</time>
      </trkpt>
      <trkpt lat="40.4725780" lon="-4.6332380">
        <ele>976.1</ele>
        <time>2019-08-13T16:48:46Z</time>
      </trkpt>
      <trkpt lat="40.4725850" lon="-4.6332950">
        <ele>976.4</ele>
        <time>2019-08-13T16:48:48Z</time>
      </trkpt>
      <trkpt lat="40.4725930" lon="-4.6333520">
        <ele>976.8</ele>
        <time>2019-08-13T16:48:50Z</time>
      </trkpt>
      <trkpt lat="40.4725980" lon="-4.6334080">
        <ele>977.0</ele>
        <time>2019-08-13T16:48:52Z</time>
      </trkpt>
      <trkpt lat="40.4726040" lon="-4.6334640">
        <ele>977.3</ele>
        <time>2019-08-13T16:48:54Z</time>
      </trkpt>
      <trkpt lat="40.4726100" lon="-4.6335180">
        <ele>977.6</ele>
        <time>2019-08-13T16:48:56Z</time>
      </trkpt>
      <trkpt lat="40.4726160" lon="-4.6335710">
        <ele>977.9</ele>
        <time>2019-08-13T16:48:58Z</time>
      </trkpt>
      <trkpt lat="40.4726200" lon="-4.6336250">
        <ele>978.1</ele>
        <time>2019-08-13T16:49:00Z</time>
      </trkpt>
      <trkpt lat="40.4726280" lon="-4.6336810">
        <ele>978.4</ele>
        <time>2019-08-13T16:49:02Z</time>
      </trkpt>
      <trkpt lat="40.4726350" lon="-4.6337370">
        <ele>978.7</ele>
        <time>2019-08-13T16:49:04Z</time>
      </trkpt>
      <trkpt lat="40.4726410" lon="-4.6337940">
        <ele>979.0</ele>
        <time>2019-08-13T16:49:06Z</time>
      </trkpt>
      <trkpt lat="40.4726470" lon="-4.6338540">
        <ele>979.3</ele>
        <time>2019-08-13T16:49:08Z</time>
      </trkpt>
      <trkpt lat="40.4726520" lon="-4.6339130">
        <ele>979.6</ele>
        <time>2019-08-13T16:49:10Z</time>
      </trkpt>
      <trkpt lat="40.4726590" lon="-4.6339700">
        <ele>979.9</ele>
        <time>2019-08-13T16:49:12Z</time>
      </trkpt>
      <trkpt lat="40.4726640" lon="-4.6340280">
        <ele>980.2</ele>
        <time>2019-08-13T16:49:14Z</time>
      </trkpt>
      <trkpt lat="40.4726700" lon="-4.6340870">
        <ele>980.4</ele>
        <time>2019-08-13T16:49:16Z</time>
      </trkpt>
      <trkpt lat="40.4726760" lon="-4.6341450">
        <ele>980.7</ele>
        <time>2019-08-13T16:49:18Z</time>
      </trkpt>
      <trkpt lat="40.4726830" lon="-4.6342030">
        <ele>981.0</ele>
        <time>2019-08-13T16:49:20Z</time>
      </trkpt>
      <trkpt lat="40.4726890" lon="-4.6342600">
        <ele>981.3</ele>
        <time>2019-08-13T16:49:22Z</time>
      </trkpt>
      <trkpt lat="40.4726940" lon="-4.6343170">
        <ele>981.5</ele>
        <time>2019-08-13T16:49:24Z</time>
      </trkpt>
      <trkpt lat="40.4726970" lon="-4.6343750">
        <ele>981.8</ele>
        <time>2019-08-13T16:49:26Z</time>
      </trkpt>
      <trkpt lat="40.4727000" lon="-4.6344340">
        <ele>982.1</ele>
        <time>2019-08-13T16:49:28Z</time>
      </trkpt>
      <trkpt lat="40.4727010" lon="-4.6344950">
        <ele>982.5</ele>
        <time>2019-08-13T16:49:30Z</time>
      </trkpt>
      <trkpt lat="40.4727010" lon="-4.6345630">
        <ele>982.8</ele>
        <time>2019-08-13T16:49:32Z</time>
      </trkpt>
      <trkpt lat="40.4727000" lon="-4.6346300">
        <ele>983.1</ele>
        <time>2019-08-13T16:49:34Z</time>
      </trkpt>
      <trkpt lat="40.4726990" lon="-4.6346970">
        <ele>983.4</ele>
        <time>2019-08-13T16:49:36Z</time>
      </trkpt>
      <trkpt lat="40.4726970" lon="-4.6347650">
        <ele>983.6</ele>
        <time>2019-08-13T16:49:38Z</time>
      </trkpt>
      <trkpt lat="40.4726940" lon="-4.6348330">
        <ele>983.9</ele>
        <time>2019-08-13T16:49:40Z</time>
      </trkpt>
      <trkpt lat="40.4726890" lon="-4.6349020">
        <ele>984.1</ele>
        <time>2019-08-13T16:49:42Z</time>
      </trkpt>
      <trkpt lat="40.4726830" lon="-4.6349720">
        <ele>984.4</ele>
        <time>2019-08-13T16:49:44Z</time>
      </trkpt>
      <trkpt lat="40.4726760" lon="-4.6350410">
        <ele>984.6</ele>
        <time>2019-08-13T16:49:46Z</time>
      </trkpt>
      <trkpt lat="40.4726670" lon="-4.6351110">
        <ele>984.9</ele>
        <time>2019-08-13T16:49:48Z</time>
      </trkpt>
      <trkpt lat="40.4726630" lon="-4.6351460">
        <ele>985.0</ele>
        <time>2019-08-13T16:49:49Z</time>
      </trkpt>
      <trkpt lat="40.4726590" lon="-4.6351810">
        <ele>985.1</ele>
        <time>2019-08-13T16:49:50Z</time>
      </trkpt>
      <trkpt lat="40.4726560" lon="-4.6352170">
        <ele>985.2</ele>
        <time>2019-08-13T16:49:51Z</time>
      </trkpt>
      <trkpt lat="40.4726520" lon="-4.6352530">
        <ele>985.4</ele>
        <time>2019-08-13T16:49:52Z</time>
      </trkpt>
      <trkpt lat="40.4726490" lon="-4.6352900">
        <ele>985.4</ele>
        <time>2019-08-13T16:49:53Z</time>
      </trkpt>
      <trkpt lat="40.4726450" lon="-4.6353260">
        <ele>985.5</ele>
        <time>2019-08-13T16:49:54Z</time>
      </trkpt>
      <trkpt lat="40.4726410" lon="-4.6353630">
        <ele>985.6</ele>
        <time>2019-08-13T16:49:55Z</time>
      </trkpt>
      <trkpt lat="40.4726370" lon="-4.6354000">
        <ele>985.6</ele>
        <time>2019-08-13T16:49:56Z</time>
      </trkpt>
      <trkpt lat="40.4726340" lon="-4.6354370">
        <ele>985.7</ele>
        <time>2019-08-13T16:49:57Z</time>
      </trkpt>
      <trkpt lat="40.4726330" lon="-4.6354760">
        <ele>985.8</ele>
        <time>2019-08-13T16:49:58Z</time>
      </trkpt>
      <trkpt lat="40.4726310" lon="-4.6355130">
        <ele>985.8</ele>
        <time>2019-08-13T16:49:59Z</time>
      </trkpt>
      <trkpt lat="40.4726320" lon="-4.6355790">
        <ele>985.9</ele>
        <time>2019-08-13T16:50:01Z</time>
      </trkpt>
      <trkpt lat="40.4726400" lon="-4.6356400">
        <ele>986.0</ele>
        <time>2019-08-13T16:50:03Z</time>
      </trkpt>
      <trkpt lat="40.4726500" lon="-4.6356740">
        <ele>986.1</ele>
        <time>2019-08-13T16:50:04Z</time>
      </trkpt>
      <trkpt lat="40.4726630" lon="-4.6357080">
        <ele>986.2</ele>
        <time>2019-08-13T16:50:05Z</time>
      </trkpt>
      <trkpt lat="40.4726770" lon="-4.6357420">
        <ele>986.3</ele>
        <time>2019-08-13T16:50:06Z</time>
      </trkpt>
      <trkpt lat="40.4726920" lon="-4.6357750">
        <ele>986.4</ele>
        <time>2019-08-13T16:50:07Z</time>
      </trkpt>
      <trkpt lat="40.4727090" lon="-4.6358070">
        <ele>986.5</ele>
        <time>2019-08-13T16:50:08Z</time>
      </trkpt>
      <trkpt lat="40.4727270" lon="-4.6358360">
        <ele>986.6</ele>
        <time>2019-08-13T16:50:09Z</time>
      </trkpt>
      <trkpt lat="40.4727460" lon="-4.6358630">
        <ele>986.7</ele>
        <time>2019-08-13T16:50:10Z</time>
      </trkpt>
      <trkpt lat="40.4727890" lon="-4.6359060">
        <ele>987.0</ele>
        <time>2019-08-13T16:50:12Z</time>
      </trkpt>
      <trkpt lat="40.4728120" lon="-4.6359240">
        <ele>987.1</ele>
        <time>2019-08-13T16:50:13Z</time>
      </trkpt>
      <trkpt lat="40.4728360" lon="-4.6359410">
        <ele>987.2</ele>
        <time>2019-08-13T16:50:14Z</time>
      </trkpt>
      <trkpt lat="40.4728820" lon="-4.6359780">
        <ele>987.4</ele>
        <time>2019-08-13T16:50:16Z</time>
      </trkpt>
      <trkpt lat="40.4729230" lon="-4.6360180">
        <ele>987.7</ele>
        <time>2019-08-13T16:50:18Z</time>
      </trkpt>
      <trkpt lat="40.4729660" lon="-4.6360480">
        <ele>987.9</ele>
        <time>2019-08-13T16:50:20Z</time>
      </trkpt>
      <trkpt lat="40.4730090" lon="-4.6360720">
        <ele>988.2</ele>
        <time>2019-08-13T16:50:22Z</time>
      </trkpt>
      <trkpt lat="40.4730540" lon="-4.6360900">
        <ele>988.5</ele>
        <time>2019-08-13T16:50:24Z</time>
      </trkpt>
      <trkpt lat="40.4730990" lon="-4.6361100">
        <ele>988.8</ele>
        <time>2019-08-13T16:50:26Z</time>
      </trkpt>
      <trkpt lat="40.4731400" lon="-4.6361300">
        <ele>989.2</ele>
        <time>2019-08-13T16:50:28Z</time>
      </trkpt>
      <trkpt lat="40.4731800" lon="-4.6361450">
        <ele>989.5</ele>
        <time>2019-08-13T16:50:30Z</time>
      </trkpt>
      <trkpt lat="40.4732160" lon="-4.6361620">
        <ele>989.7</ele>
        <time>2019-08-13T16:50:32Z</time>
      </trkpt>
      <trkpt lat="40.4732520" lon="-4.6361750">
        <ele>989.9</ele>
        <time>2019-08-13T16:50:34Z</time>
      </trkpt>
      <trkpt lat="40.4732860" lon="-4.6361860">
        <ele>990.1</ele>
        <time>2019-08-13T16:50:36Z</time>
      </trkpt>
      <trkpt lat="40.4733230" lon="-4.6361990">
        <ele>990.3</ele>
        <time>2019-08-13T16:50:38Z</time>
      </trkpt>
      <trkpt lat="40.4733620" lon="-4.6362120">
        <ele>990.6</ele>
        <time>2019-08-13T16:50:40Z</time>
      </trkpt>
      <trkpt lat="40.4734030" lon="-4.6362180">
        <ele>991.1</ele>
        <time>2019-08-13T16:50:42Z</time>
      </trkpt>
      <trkpt lat="40.4734440" lon="-4.6362310">
        <ele>991.3</ele>
        <time>2019-08-13T16:50:44Z</time>
      </trkpt>
      <trkpt lat="40.4734850" lon="-4.6362450">
        <ele>991.6</ele>
        <time>2019-08-13T16:50:46Z</time>
      </trkpt>
      <trkpt lat="40.4735240" lon="-4.6362630">
        <ele>991.8</ele>
        <time>2019-08-13T16:50:48Z</time>
      </trkpt>
      <trkpt lat="40.4735630" lon="-4.6362820">
        <ele>992.0</ele>
        <time>2019-08-13T16:50:50Z</time>
      </trkpt>
      <trkpt lat="40.4736020" lon="-4.6363050">
        <ele>992.3</ele>
        <time>2019-08-13T16:50:52Z</time>
      </trkpt>
      <trkpt lat="40.4736400" lon="-4.6363310">
        <ele>992.5</ele>
        <time>2019-08-13T16:50:54Z</time>
      </trkpt>
      <trkpt lat="40.4736740" lon="-4.6363630">
        <ele>992.7</ele>
        <time>2019-08-13T16:50:56Z</time>
      </trkpt>
      <trkpt lat="40.4737080" lon="-4.6363980">
        <ele>993.0</ele>
        <time>2019-08-13T16:50:58Z</time>
      </trkpt>
      <trkpt lat="40.4737420" lon="-4.6364310">
        <ele>993.2</ele>
        <time>2019-08-13T16:51:00Z</time>
      </trkpt>
      <trkpt lat="40.4737740" lon="-4.6364670">
        <ele>993.5</ele>
        <time>2019-08-13T16:51:02Z</time>
      </trkpt>
      <trkpt lat="40.4738070" lon="-4.6365030">
        <ele>993.7</ele>
        <time>2019-08-13T16:51:04Z</time>
      </trkpt>
      <trkpt lat="40.4738390" lon="-4.6365390">
        <ele>994.0</ele>
        <time>2019-08-13T16:51:06Z</time>
      </trkpt>
      <trkpt lat="40.4738660" lon="-4.6365710">
        <ele>994.3</ele>
        <time>2019-08-13T16:51:08Z</time>
      </trkpt>
      <trkpt lat="40.4738940" lon="-4.6366120">
        <ele>994.5</ele>
        <time>2019-08-13T16:51:10Z</time>
      </trkpt>
      <trkpt lat="40.4739240" lon="-4.6366530">
        <ele>994.7</ele>
        <time>2019-08-13T16:51:12Z</time>
      </trkpt>
      <trkpt lat="40.4739550" lon="-4.6366940">
        <ele>995.0</ele>
        <time>2019-08-13T16:51:14Z</time>
      </trkpt>
      <trkpt lat="40.4739840" lon="-4.6367370">
        <ele>995.3</ele>
        <time>2019-08-13T16:51:16Z</time>
      </trkpt>
      <trkpt lat="40.4740100" lon="-4.6367770">
        <ele>995.6</ele>
        <time>2019-08-13T16:51:18Z</time>
      </trkpt>
      <trkpt lat="40.4740360" lon="-4.6368170">
        <ele>995.9</ele>
        <time>2019-08-13T16:51:20Z</time>
      </trkpt>
      <trkpt lat="40.4740660" lon="-4.6368550">
        <ele>996.2</ele>
        <time>2019-08-13T16:51:22Z</time>
      </trkpt>
      <trkpt lat="40.4740940" lon="-4.6368910">
        <ele>996.4</ele>
        <time>2019-08-13T16:51:24Z</time>
      </trkpt>
      <trkpt lat="40.4741190" lon="-4.6369300">
        <ele>996.6</ele>
        <time>2019-08-13T16:51:26Z</time>
      </trkpt>
      <trkpt lat="40.4741470" lon="-4.6369740">
        <ele>996.8</ele>
        <time>2019-08-13T16:51:28Z</time>
      </trkpt>
      <trkpt lat="40.4741770" lon="-4.6370150">
        <ele>997.0</ele>
        <time>2019-08-13T16:51:30Z</time>
      </trkpt>
      <trkpt lat="40.4742030" lon="-4.6370600">
        <ele>997.3</ele>
        <time>2019-08-13T16:51:32Z</time>
      </trkpt>
      <trkpt lat="40.4742250" lon="-4.6371100">
        <ele>997.4</ele>
        <time>2019-08-13T16:51:34Z</time>
      </trkpt>
      <trkpt lat="40.4742450" lon="-4.6371560">
        <ele>997.5</ele>
        <time>2019-08-13T16:51:36Z</time>
      </trkpt>
      <trkpt lat="40.4742600" lon="-4.6371980">
        <ele>997.7</ele>
        <time>2019-08-13T16:51:38Z</time>
      </trkpt>
      <trkpt lat="40.4742810" lon="-4.6372510">
        <ele>997.9</ele>
        <time>2019-08-13T16:51:40Z</time>
      </trkpt>
      <trkpt lat="40.4743100" lon="-4.6373080">
        <ele>998.1</ele>
        <time>2019-08-13T16:51:42Z</time>
      </trkpt>
      <trkpt lat="40.4743440" lon="-4.6373590">
        <ele>998.4</ele>
        <time>2019-08-13T16:51:44Z</time>
      </trkpt>
      <trkpt lat="40.4743760" lon="-4.6374120">
        <ele>998.6</ele>
        <time>2019-08-13T16:51:46Z</time>
      </trkpt>
      <trkpt lat="40.4743940" lon="-4.6374390">
        <ele>998.7</ele>
        <time>2019-08-13T16:51:47Z</time>
      </trkpt>
      <trkpt lat="40.4744150" lon="-4.6374640">
        <ele>998.8</ele>
        <time>2019-08-13T16:51:48Z</time>
      </trkpt>
      <trkpt lat="40.4744350" lon="-4.6374910">
        <ele>998.9</ele>
        <time>2019-08-13T16:51:49Z</time>
      </trkpt>
      <trkpt lat="40.4744540" lon="-4.6375210">
        <ele>999.0</ele>
        <time>2019-08-13T16:51:50Z</time>
      </trkpt>
      <trkpt lat="40.4744730" lon="-4.6375520">
        <ele>999.1</ele>
        <time>2019-08-13T16:51:51Z</time>
      </trkpt>
      <trkpt lat="40.4744920" lon="-4.6375820">
        <ele>999.2</ele>
        <time>2019-08-13T16:51:52Z</time>
      </trkpt>
      <trkpt lat="40.4745100" lon="-4.6376120">
        <ele>999.3</ele>
        <time>2019-08-13T16:51:53Z</time>
      </trkpt>
      <trkpt lat="40.4745420" lon="-4.6376660">
        <ele>999.5</ele>
        <time>2019-08-13T16:51:55Z</time>
      </trkpt>
      <trkpt lat="40.4745730" lon="-4.6377230">
        <ele>999.7</ele>
        <time>2019-08-13T16:51:57Z</time>
      </trkpt>
      <trkpt lat="40.4745900" lon="-4.6377530">
        <ele>999.7</ele>
        <time>2019-08-13T16:51:58Z</time>
      </trkpt>
      <trkpt lat="40.4746070" lon="-4.6377830">
        <ele>999.8</ele>
        <time>2019-08-13T16:51:59Z</time>
      </trkpt>
      <trkpt lat="40.4746240" lon="-4.6378140">
        <ele>999.9</ele>
        <time>2019-08-13T16:52:00Z</time>
      </trkpt>
      <trkpt lat="40.4746410" lon="-4.6378440">
        <ele>1000.0</ele>
        <time>2019-08-13T16:52:01Z</time>
      </trkpt>
      <trkpt lat="40.4746590" lon="-4.6378730">
        <ele>1000.0</ele>
        <time>2019-08-13T16:52:02Z</time>
      </trkpt>
      <trkpt lat="40.4746760" lon="-4.6379020">
        <ele>1000.1</ele>
        <time>2019-08-13T16:52:03Z</time>
      </trkpt>
      <trkpt lat="40.4746930" lon="-4.6379310">
        <ele>1000.2</ele>
        <time>2019-08-13T16:52:04Z</time>
      </trkpt>
      <trkpt lat="40.4747100" lon="-4.6379600">
        <ele>1000.2</ele>
        <time>2019-08-13T16:52:05Z</time>
      </trkpt>
      <trkpt lat="40.4747260" lon="-4.6379900">
        <ele>1000.3</ele>
        <time>2019-08-13T16:52:06Z</time>
      </trkpt>
      <trkpt lat="40.4747410" lon="-4.6380200">
        <ele>1000.4</ele>
        <time>2019-08-13T16:52:07Z</time>
      </trkpt>
      <trkpt lat="40.4747560" lon="-4.6380510">
        <ele>1000.5</ele>
        <time>2019-08-13T16:52:08Z</time>
      </trkpt>
      <trkpt lat="40.4747710" lon="-4.6380810">
        <ele>1000.5</ele>
        <time>2019-08-13T16:52:09Z</time>
      </trkpt>
      <trkpt lat="40.4747850" lon="-4.6381130">
        <ele>1000.6</ele>
        <time>2019-08-13T16:52:10Z</time>
      </trkpt>
      <trkpt lat="40.4748100" lon="-4.6381670">
        <ele>1000.8</ele>
        <time>2019-08-13T16:52:12Z</time>
      </trkpt>
      <trkpt lat="40.4748290" lon="-4.6382030">
        <ele>1001.0</ele>
        <time>2019-08-13T16:52:14Z</time>
      </trkpt>
      <trkpt lat="40.4748550" lon="-4.6382450">
        <ele>1001.2</ele>
        <time>2019-08-13T16:52:16Z</time>
      </trkpt>
      <trkpt lat="40.4748910" lon="-4.6382890">
        <ele>1001.7</ele>
        <time>2019-08-13T16:52:18Z</time>
      </trkpt>
      <trkpt lat="40.4749270" lon="-4.6383370">
        <ele>1002.3</ele>
        <time>2019-08-13T16:52:20Z</time>
      </trkpt>
      <trkpt lat="40.4749370" lon="-4.6384000">
        <ele>1002.5</ele>
        <time>2019-08-13T16:52:22Z</time>
      </trkpt>
      <trkpt lat="40.4749430" lon="-4.6384530">
        <ele>1002.6</ele>
        <time>2019-08-13T16:52:24Z</time>
      </trkpt>
      <trkpt lat="40.4749660" lon="-4.6384970">
        <ele>1002.8</ele>
        <time>2019-08-13T16:52:26Z</time>
      </trkpt>
      <trkpt lat="40.4749980" lon="-4.6385450">
        <ele>1003.0</ele>
        <time>2019-08-13T16:52:28Z</time>
      </trkpt>
      <trkpt lat="40.4750280" lon="-4.6385970">
        <ele>1003.1</ele>
        <time>2019-08-13T16:52:30Z</time>
      </trkpt>
      <trkpt lat="40.4750580" lon="-4.6386470">
        <ele>1003.3</ele>
        <time>2019-08-13T16:52:32Z</time>
      </trkpt>
      <trkpt lat="40.4750870" lon="-4.6386970">
        <ele>1003.5</ele>
        <time>2019-08-13T16:52:34Z</time>
      </trkpt>
      <trkpt lat="40.4751140" lon="-4.6387450">
        <ele>1003.7</ele>
        <time>2019-08-13T16:52:36Z</time>
      </trkpt>
      <trkpt lat="40.4751410" lon="-4.6387880">
        <ele>1003.9</ele>
        <time>2019-08-13T16:52:38Z</time>
      </trkpt>
      <trkpt lat="40.4751680" lon="-4.6388350">
        <ele>1004.1</ele>
        <time>2019-08-13T16:52:40Z</time>
      </trkpt>
      <trkpt lat="40.4751950" lon="-4.6388850">
        <ele>1004.4</ele>
        <time>2019-08-13T16:52:42Z</time>
      </trkpt>
      <trkpt lat="40.4752230" lon="-4.6389330">
        <ele>1004.7</ele>
        <time>2019-08-13T16:52:44Z</time>
      </trkpt>
      <trkpt lat="40.4752480" lon="-4.6389810">
        <ele>1005.0</ele>
        <time>2019-08-13T16:52:46Z</time>
      </trkpt>
      <trkpt lat="40.4752750" lon="-4.6390280">
        <ele>1005.4</ele>
        <time>2019-08-13T16:52:48Z</time>
      </trkpt>
      <trkpt lat="40.4753020" lon="-4.6390760">
        <ele>1005.7</ele>
        <time>2019-08-13T16:52:50Z</time>
      </trkpt>
      <trkpt lat="40.4753290" lon="-4.6391270">
        <ele>1006.2</ele>
        <time>2019-08-13T16:52:52Z</time>
      </trkpt>
      <trkpt lat="40.4753570" lon="-4.6391760">
        <ele>1006.6</ele>
        <time>2019-08-13T16:52:54Z</time>
      </trkpt>
      <trkpt lat="40.4753850" lon="-4.6392260">
        <ele>1007.0</ele>
        <time>2019-08-13T16:52:56Z</time>
      </trkpt>
      <trkpt lat="40.4754130" lon="-4.6392780">
        <ele>1007.4</ele>
        <time>2019-08-13T16:52:58Z</time>
      </trkpt>
      <trkpt lat="40.4754420" lon="-4.6393260">
        <ele>1007.7</ele>
        <time>2019-08-13T16:53:00Z</time>
      </trkpt>
      <trkpt lat="40.4754710" lon="-4.6393750">
        <ele>1008.1</ele>
        <time>2019-08-13T16:53:02Z</time>
      </trkpt>
      <trkpt lat="40.4755010" lon="-4.6394260">
        <ele>1008.4</ele>
        <time>2019-08-13T16:53:04Z</time>
      </trkpt>
      <trkpt lat="40.4755320" lon="-4.6394870">
        <ele>1008.7</ele>
        <time>2019-08-13T16:53:06Z</time>
      </trkpt>
      <trkpt lat="40.4755480" lon="-4.6395170">
        <ele>1008.9</ele>
        <time>2019-08-13T16:53:07Z</time>
      </trkpt>
      <trkpt lat="40.4755800" lon="-4.6395670">
        <ele>1009.1</ele>
        <time>2019-08-13T16:53:09Z</time>
      </trkpt>
      <trkpt lat="40.4756130" lon="-4.6396150">
        <ele>1009.4</ele>
        <time>2019-08-13T16:53:11Z</time>
      </trkpt>
      <trkpt lat="40.4756300" lon="-4.6396450">
        <ele>1009.5</ele>
        <time>2019-08-13T16:53:12Z</time>
      </trkpt>
      <trkpt lat="40.4756480" lon="-4.6396750">
        <ele>1009.7</ele>
        <time>2019-08-13T16:53:13Z</time>
      </trkpt>
      <trkpt lat="40.4756670" lon="-4.6397050">
        <ele>1009.8</ele>
        <time>2019-08-13T16:53:14Z</time>
      </trkpt>
      <trkpt lat="40.4756860" lon="-4.6397350">
        <ele>1009.9</ele>
        <time>2019-08-13T16:53:15Z</time>
      </trkpt>
      <trkpt lat="40.4757030" lon="-4.6397630">
        <ele>1010.1</ele>
        <time>2019-08-13T16:53:16Z</time>
      </trkpt>
      <trkpt lat="40.4757200" lon="-4.6397910">
        <ele>1010.2</ele>
        <time>2019-08-13T16:53:17Z</time>
      </trkpt>
      <trkpt lat="40.4757370" lon="-4.6398200">
        <ele>1010.3</ele>
        <time>2019-08-13T16:53:18Z</time>
      </trkpt>
      <trkpt lat="40.4757550" lon="-4.6398490">
        <ele>1010.4</ele>
        <time>2019-08-13T16:53:19Z</time>
      </trkpt>
      <trkpt lat="40.4757740" lon="-4.6398790">
        <ele>1010.5</ele>
        <time>2019-08-13T16:53:20Z</time>
      </trkpt>
      <trkpt lat="40.4757940" lon="-4.6399090">
        <ele>1010.6</ele>
        <time>2019-08-13T16:53:21Z</time>
      </trkpt>
      <trkpt lat="40.4758140" lon="-4.6399410">
        <ele>1010.7</ele>
        <time>2019-08-13T16:53:22Z</time>
      </trkpt>
      <trkpt lat="40.4758340" lon="-4.6399750">
        <ele>1010.9</ele>
        <time>2019-08-13T16:53:23Z</time>
      </trkpt>
      <trkpt lat="40.4758550" lon="-4.6400080">
        <ele>1011.2</ele>
        <time>2019-08-13T16:53:24Z</time>
      </trkpt>
      <trkpt lat="40.4758750" lon="-4.6400420">
        <ele>1011.5</ele>
        <time>2019-08-13T16:53:25Z</time>
      </trkpt>
      <trkpt lat="40.4758970" lon="-4.6400760">
        <ele>1011.8</ele>
        <time>2019-08-13T16:53:26Z</time>
      </trkpt>
      <trkpt lat="40.4759180" lon="-4.6401110">
        <ele>1012.0</ele>
        <time>2019-08-13T16:53:27Z</time>
      </trkpt>
      <trkpt lat="40.4759390" lon="-4.6401450">
        <ele>1012.3</ele>
        <time>2019-08-13T16:53:28Z</time>
      </trkpt>
      <trkpt lat="40.4759600" lon="-4.6401800">
        <ele>1012.6</ele>
        <time>2019-08-13T16:53:29Z</time>
      </trkpt>
      <trkpt lat="40.4759820" lon="-4.6402160">
        <ele>1012.9</ele>
        <time>2019-08-13T16:53:30Z</time>
      </trkpt>
      <trkpt lat="40.4760040" lon="-4.6402520">
        <ele>1013.2</ele>
        <time>2019-08-13T16:53:31Z</time>
      </trkpt>
      <trkpt lat="40.4760260" lon="-4.6402890">
        <ele>1013.5</ele>
        <time>2019-08-13T16:53:32Z</time>
      </trkpt>
      <trkpt lat="40.4760460" lon="-4.6403230">
        <ele>1013.8</ele>
        <time>2019-08-13T16:53:33Z</time>
      </trkpt>
      <trkpt lat="40.4760650" lon="-4.6403550">
        <ele>1014.0</ele>
        <time>2019-08-13T16:53:34Z</time>
      </trkpt>
      <trkpt lat="40.4760960" lon="-4.6404090">
        <ele>1014.5</ele>
        <time>2019-08-13T16:53:36Z</time>
      </trkpt>
      <trkpt lat="40.4761130" lon="-4.6404380">
        <ele>1014.8</ele>
        <time>2019-08-13T16:53:37Z</time>
      </trkpt>
      <trkpt lat="40.4761330" lon="-4.6404700">
        <ele>1015.2</ele>
        <time>2019-08-13T16:53:38Z</time>
      </trkpt>
      <trkpt lat="40.4761520" lon="-4.6405040">
        <ele>1015.5</ele>
        <time>2019-08-13T16:53:39Z</time>
      </trkpt>
      <trkpt lat="40.4761710" lon="-4.6405390">
        <ele>1015.8</ele>
        <time>2019-08-13T16:53:40Z</time>
      </trkpt>
      <trkpt lat="40.4761890" lon="-4.6405750">
        <ele>1016.0</ele>
        <time>2019-08-13T16:53:41Z</time>
      </trkpt>
      <trkpt lat="40.4762060" lon="-4.6406110">
        <ele>1016.2</ele>
        <time>2019-08-13T16:53:42Z</time>
      </trkpt>
      <trkpt lat="40.4762240" lon="-4.6406470">
        <ele>1016.4</ele>
        <time>2019-08-13T16:53:43Z</time>
      </trkpt>
      <trkpt lat="40.4762410" lon="-4.6406830">
        <ele>1016.6</ele>
        <time>2019-08-13T16:53:44Z</time>
      </trkpt>
      <trkpt lat="40.4762580" lon="-4.6407180">
        <ele>1016.9</ele>
        <time>2019-08-13T16:53:45Z</time>
      </trkpt>
      <trkpt lat="40.4762740" lon="-4.6407530">
        <ele>1017.1</ele>
        <time>2019-08-13T16:53:46Z</time>
      </trkpt>
      <trkpt lat="40.4762880" lon="-4.6407880">
        <ele>1017.3</ele>
        <time>2019-08-13T16:53:47Z</time>
      </trkpt>
      <trkpt lat="40.4763040" lon="-4.6408230">
        <ele>1017.5</ele>
        <time>2019-08-13T16:53:48Z</time>
      </trkpt>
      <trkpt lat="40.4763200" lon="-4.6408570">
        <ele>1017.6</ele>
        <time>2019-08-13T16:53:49Z</time>
      </trkpt>
      <trkpt lat="40.4763360" lon="-4.6408920">
        <ele>1017.8</ele>
        <time>2019-08-13T16:53:50Z</time>
      </trkpt>
      <trkpt lat="40.4763520" lon="-4.6409270">
        <ele>1017.9</ele>
        <time>2019-08-13T16:53:51Z</time>
      </trkpt>
      <trkpt lat="40.4763670" lon="-4.6409610">
        <ele>1018.1</ele>
        <time>2019-08-13T16:53:52Z</time>
      </trkpt>
      <trkpt lat="40.4763800" lon="-4.6409920">
        <ele>1018.2</ele>
        <time>2019-08-13T16:53:53Z</time>
      </trkpt>
      <trkpt lat="40.4764030" lon="-4.6410420">
        <ele>1018.4</ele>
        <time>2019-08-13T16:53:55Z</time>
      </trkpt>
      <trkpt lat="40.4764170" lon="-4.6410730">
        <ele>1018.5</ele>
        <time>2019-08-13T16:53:57Z</time>
      </trkpt>
      <trkpt lat="40.4764450" lon="-4.6411180">
        <ele>1018.9</ele>
        <time>2019-08-13T16:54:01Z</time>
      </trkpt>
      <trkpt lat="40.4764690" lon="-4.6411730">
        <ele>1019.0</ele>
        <time>2019-08-13T16:54:03Z</time>
      </trkpt>
      <trkpt lat="40.4764830" lon="-4.6412030">
        <ele>1019.1</ele>
        <time>2019-08-13T16:54:04Z</time>
      </trkpt>
      <trkpt lat="40.4764980" lon="-4.6412350">
        <ele>1019.2</ele>
        <time>2019-08-13T16:54:05Z</time>
      </trkpt>
      <trkpt lat="40.4765140" lon="-4.6412680">
        <ele>1019.3</ele>
        <time>2019-08-13T16:54:06Z</time>
      </trkpt>
      <trkpt lat="40.4765290" lon="-4.6413030">
        <ele>1019.3</ele>
        <time>2019-08-13T16:54:07Z</time>
      </trkpt>
      <trkpt lat="40.4765440" lon="-4.6413370">
        <ele>1019.4</ele>
        <time>2019-08-13T16:54:08Z</time>
      </trkpt>
      <trkpt lat="40.4765580" lon="-4.6413710">
        <ele>1019.5</ele>
        <time>2019-08-13T16:54:09Z</time>
      </trkpt>
      <trkpt lat="40.4765720" lon="-4.6414050">
        <ele>1019.6</ele>
        <time>2019-08-13T16:54:10Z</time>
      </trkpt>
      <trkpt lat="40.4765870" lon="-4.6414390">
        <ele>1019.7</ele>
        <time>2019-08-13T16:54:11Z</time>
      </trkpt>
      <trkpt lat="40.4766020" lon="-4.6414730">
        <ele>1019.8</ele>
        <time>2019-08-13T16:54:12Z</time>
      </trkpt>
      <trkpt lat="40.4766160" lon="-4.6415080">
        <ele>1019.9</ele>
        <time>2019-08-13T16:54:13Z</time>
      </trkpt>
      <trkpt lat="40.4766290" lon="-4.6415440">
        <ele>1019.9</ele>
        <time>2019-08-13T16:54:14Z</time>
      </trkpt>
      <trkpt lat="40.4766430" lon="-4.6415780">
        <ele>1020.0</ele>
        <time>2019-08-13T16:54:15Z</time>
      </trkpt>
      <trkpt lat="40.4766580" lon="-4.6416130">
        <ele>1020.1</ele>
        <time>2019-08-13T16:54:16Z</time>
      </trkpt>
      <trkpt lat="40.4766730" lon="-4.6416470">
        <ele>1020.1</ele>
        <time>2019-08-13T16:54:17Z</time>
      </trkpt>
      <trkpt lat="40.4766860" lon="-4.6416800">
        <ele>1020.2</ele>
        <time>2019-08-13T16:54:18Z</time>
      </trkpt>
      <trkpt lat="40.4766990" lon="-4.6417140">
        <ele>1020.2</ele>
        <time>2019-08-13T16:54:19Z</time>
      </trkpt>
      <trkpt lat="40.4767120" lon="-4.6417480">
        <ele>1020.3</ele>
        <time>2019-08-13T16:54:20Z</time>
      </trkpt>
      <trkpt lat="40.4767250" lon="-4.6417820">
        <ele>1020.3</ele>
        <time>2019-08-13T16:54:21Z</time>
      </trkpt>
      <trkpt lat="40.4767370" lon="-4.6418140">
        <ele>1020.3</ele>
        <time>2019-08-13T16:54:22Z</time>
      </trkpt>
      <trkpt lat="40.4767630" lon="-4.6418780">
        <ele>1020.4</ele>
        <time>2019-08-13T16:54:24Z</time>
      </trkpt>
      <trkpt lat="40.4767780" lon="-4.6419120">
        <ele>1020.4</ele>
        <time>2019-08-13T16:54:25Z</time>
      </trkpt>
      <trkpt lat="40.4767900" lon="-4.6419490">
        <ele>1020.4</ele>
        <time>2019-08-13T16:54:26Z</time>
      </trkpt>
      <trkpt lat="40.4768010" lon="-4.6419850">
        <ele>1020.4</ele>
        <time>2019-08-13T16:54:27Z</time>
      </trkpt>
      <trkpt lat="40.4768120" lon="-4.6420230">
        <ele>1020.4</ele>
        <time>2019-08-13T16:54:28Z</time>
      </trkpt>
      <trkpt lat="40.4768230" lon="-4.6420590">
        <ele>1020.5</ele>
        <time>2019-08-13T16:54:29Z</time>
      </trkpt>
      <trkpt lat="40.4768340" lon="-4.6420950">
        <ele>1020.5</ele>
        <time>2019-08-13T16:54:30Z</time>
      </trkpt>
      <trkpt lat="40.4768450" lon="-4.6421300">
        <ele>1020.5</ele>
        <time>2019-08-13T16:54:31Z</time>
      </trkpt>
      <trkpt lat="40.4768560" lon="-4.6421670">
        <ele>1020.5</ele>
        <time>2019-08-13T16:54:32Z</time>
      </trkpt>
      <trkpt lat="40.4768650" lon="-4.6422050">
        <ele>1020.5</ele>
        <time>2019-08-13T16:54:33Z</time>
      </trkpt>
      <trkpt lat="40.4768730" lon="-4.6422430">
        <ele>1020.6</ele>
        <time>2019-08-13T16:54:34Z</time>
      </trkpt>
      <trkpt lat="40.4768810" lon="-4.6422810">
        <ele>1020.6</ele>
        <time>2019-08-13T16:54:35Z</time>
      </trkpt>
      <trkpt lat="40.4768920" lon="-4.6423170">
        <ele>1020.6</ele>
        <time>2019-08-13T16:54:36Z</time>
      </trkpt>
      <trkpt lat="40.4769010" lon="-4.6423550">
        <ele>1020.6</ele>
        <time>2019-08-13T16:54:37Z</time>
      </trkpt>
      <trkpt lat="40.4769090" lon="-4.6423950">
        <ele>1020.7</ele>
        <time>2019-08-13T16:54:38Z</time>
      </trkpt>
      <trkpt lat="40.4769170" lon="-4.6424350">
        <ele>1020.7</ele>
        <time>2019-08-13T16:54:39Z</time>
      </trkpt>
      <trkpt lat="40.4769240" lon="-4.6424760">
        <ele>1020.7</ele>
        <time>2019-08-13T16:54:40Z</time>
      </trkpt>
      <trkpt lat="40.4769300" lon="-4.6425180">
        <ele>1020.8</ele>
        <time>2019-08-13T16:54:41Z</time>
      </trkpt>
      <trkpt lat="40.4769380" lon="-4.6425600">
        <ele>1020.8</ele>
        <time>2019-08-13T16:54:42Z</time>
      </trkpt>
      <trkpt lat="40.4769460" lon="-4.6425990">
        <ele>1020.9</ele>
        <time>2019-08-13T16:54:43Z</time>
      </trkpt>
      <trkpt lat="40.4769540" lon="-4.6426410">
        <ele>1021.0</ele>
        <time>2019-08-13T16:54:44Z</time>
      </trkpt>
      <trkpt lat="40.4769630" lon="-4.6426810">
        <ele>1021.1</ele>
        <time>2019-08-13T16:54:45Z</time>
      </trkpt>
      <trkpt lat="40.4769670" lon="-4.6427230">
        <ele>1021.2</ele>
        <time>2019-08-13T16:54:46Z</time>
      </trkpt>
      <trkpt lat="40.4769720" lon="-4.6427660">
        <ele>1021.3</ele>
        <time>2019-08-13T16:54:47Z</time>
      </trkpt>
      <trkpt lat="40.4769770" lon="-4.6428070">
        <ele>1021.4</ele>
        <time>2019-08-13T16:54:48Z</time>
      </trkpt>
      <trkpt lat="40.4769830" lon="-4.6428470">
        <ele>1021.5</ele>
        <time>2019-08-13T16:54:49Z</time>
      </trkpt>
      <trkpt lat="40.4769910" lon="-4.6428860">
        <ele>1021.6</ele>
        <time>2019-08-13T16:54:50Z</time>
      </trkpt>
      <trkpt lat="40.4769950" lon="-4.6429280">
        <ele>1021.7</ele>
        <time>2019-08-13T16:54:51Z</time>
      </trkpt>
      <trkpt lat="40.4770020" lon="-4.6429670">
        <ele>1021.8</ele>
        <time>2019-08-13T16:54:52Z</time>
      </trkpt>
      <trkpt lat="40.4770090" lon="-4.6430050">
        <ele>1021.9</ele>
        <time>2019-08-13T16:54:53Z</time>
      </trkpt>
      <trkpt lat="40.4770150" lon="-4.6430440">
        <ele>1022.0</ele>
        <time>2019-08-13T16:54:54Z</time>
      </trkpt>
      <trkpt lat="40.4770210" lon="-4.6430840">
        <ele>1022.2</ele>
        <time>2019-08-13T16:54:55Z</time>
      </trkpt>
      <trkpt lat="40.4770270" lon="-4.6431250">
        <ele>1022.3</ele>
        <time>2019-08-13T16:54:56Z</time>
      </trkpt>
      <trkpt lat="40.4770340" lon="-4.6431650">
        <ele>1022.5</ele>
        <time>2019-08-13T16:54:57Z</time>
      </trkpt>
      <trkpt lat="40.4770430" lon="-4.6432040">
        <ele>1022.6</ele>
        <time>2019-08-13T16:54:58Z</time>
      </trkpt>
      <trkpt lat="40.4770530" lon="-4.6432420">
        <ele>1022.8</ele>
        <time>2019-08-13T16:54:59Z</time>
      </trkpt>
      <trkpt lat="40.4770640" lon="-4.6432800">
        <ele>1022.9</ele>
        <time>2019-08-13T16:55:00Z</time>
      </trkpt>
      <trkpt lat="40.4770760" lon="-4.6433170">
        <ele>1023.0</ele>
        <time>2019-08-13T16:55:01Z</time>
      </trkpt>
      <trkpt lat="40.4770890" lon="-4.6433530">
        <ele>1023.2</ele>
        <time>2019-08-13T16:55:02Z</time>
      </trkpt>
      <trkpt lat="40.4771030" lon="-4.6433880">
        <ele>1023.3</ele>
        <time>2019-08-13T16:55:03Z</time>
      </trkpt>
      <trkpt lat="40.4771180" lon="-4.6434230">
        <ele>1023.4</ele>
        <time>2019-08-13T16:55:04Z</time>
      </trkpt>
      <trkpt lat="40.4771330" lon="-4.6434570">
        <ele>1023.5</ele>
        <time>2019-08-13T16:55:05Z</time>
      </trkpt>
      <trkpt lat="40.4771520" lon="-4.6434890">
        <ele>1023.7</ele>
        <time>2019-08-13T16:55:06Z</time>
      </trkpt>
      <trkpt lat="40.4771690" lon="-4.6435210">
        <ele>1023.8</ele>
        <time>2019-08-13T16:55:07Z</time>
      </trkpt>
      <trkpt lat="40.4771880" lon="-4.6435530">
        <ele>1023.9</ele>
        <time>2019-08-13T16:55:08Z</time>
      </trkpt>
      <trkpt lat="40.4772060" lon="-4.6435850">
        <ele>1024.1</ele>
        <time>2019-08-13T16:55:09Z</time>
      </trkpt>
      <trkpt lat="40.4772240" lon="-4.6436150">
        <ele>1024.2</ele>
        <time>2019-08-13T16:55:10Z</time>
      </trkpt>
      <trkpt lat="40.4772410" lon="-4.6436470">
        <ele>1024.3</ele>
        <time>2019-08-13T16:55:11Z</time>
      </trkpt>
      <trkpt lat="40.4772590" lon="-4.6436790">
        <ele>1024.5</ele>
        <time>2019-08-13T16:55:12Z</time>
      </trkpt>
      <trkpt lat="40.4772760" lon="-4.6437110">
        <ele>1024.6</ele>
        <time>2019-08-13T16:55:13Z</time>
      </trkpt>
      <trkpt lat="40.4772940" lon="-4.6437440">
        <ele>1024.7</ele>
        <time>2019-08-13T16:55:14Z</time>
      </trkpt>
      <trkpt lat="40.4773110" lon="-4.6437760">
        <ele>1024.9</ele>
        <time>2019-08-13T16:55:15Z</time>
      </trkpt>
      <trkpt lat="40.4773280" lon="-4.6438070">
        <ele>1025.0</ele>
        <time>2019-08-13T16:55:16Z</time>
      </trkpt>
      <trkpt lat="40.4773430" lon="-4.6438380">
        <ele>1025.2</ele>
        <time>2019-08-13T16:55:17Z</time>
      </trkpt>
      <trkpt lat="40.4773570" lon="-4.6438690">
        <ele>1025.2</ele>
        <time>2019-08-13T16:55:18Z</time>
      </trkpt>
      <trkpt lat="40.4773700" lon="-4.6439010">
        <ele>1025.3</ele>
        <time>2019-08-13T16:55:19Z</time>
      </trkpt>
      <trkpt lat="40.4773840" lon="-4.6439330">
        <ele>1025.3</ele>
        <time>2019-08-13T16:55:20Z</time>
      </trkpt>
      <trkpt lat="40.4773970" lon="-4.6439640">
        <ele>1025.6</ele>
        <time>2019-08-13T16:55:21Z</time>
      </trkpt>
      <trkpt lat="40.4774260" lon="-4.6440230">
        <ele>1025.8</ele>
        <time>2019-08-13T16:55:23Z</time>
      </trkpt>
      <trkpt lat="40.4774420" lon="-4.6440520">
        <ele>1025.9</ele>
        <time>2019-08-13T16:55:24Z</time>
      </trkpt>
      <trkpt lat="40.4774730" lon="-4.6441080">
        <ele>1026.2</ele>
        <time>2019-08-13T16:55:26Z</time>
      </trkpt>
      <trkpt lat="40.4775020" lon="-4.6441650">
        <ele>1026.4</ele>
        <time>2019-08-13T16:55:28Z</time>
      </trkpt>
      <trkpt lat="40.4775310" lon="-4.6442220">
        <ele>1026.6</ele>
        <time>2019-08-13T16:55:30Z</time>
      </trkpt>
      <trkpt lat="40.4775610" lon="-4.6442760">
        <ele>1026.8</ele>
        <time>2019-08-13T16:55:32Z</time>
      </trkpt>
      <trkpt lat="40.4775920" lon="-4.6443310">
        <ele>1027.1</ele>
        <time>2019-08-13T16:55:34Z</time>
      </trkpt>
      <trkpt lat="40.4776230" lon="-4.6443870">
        <ele>1027.3</ele>
        <time>2019-08-13T16:55:36Z</time>
      </trkpt>
      <trkpt lat="40.4776550" lon="-4.6444430">
        <ele>1027.6</ele>
        <time>2019-08-13T16:55:38Z</time>
      </trkpt>
      <trkpt lat="40.4776870" lon="-4.6444980">
        <ele>1027.9</ele>
        <time>2019-08-13T16:55:40Z</time>
      </trkpt>
      <trkpt lat="40.4777200" lon="-4.6445530">
        <ele>1028.1</ele>
        <time>2019-08-13T16:55:42Z</time>
      </trkpt>
      <trkpt lat="40.4777530" lon="-4.6446060">
        <ele>1028.3</ele>
        <time>2019-08-13T16:55:44Z</time>
      </trkpt>
      <trkpt lat="40.4777850" lon="-4.6446590">
        <ele>1028.5</ele>
        <time>2019-08-13T16:55:46Z</time>
      </trkpt>
      <trkpt lat="40.4778160" lon="-4.6447140">
        <ele>1028.7</ele>
        <time>2019-08-13T16:55:48Z</time>
      </trkpt>
      <trkpt lat="40.4778460" lon="-4.6447700">
        <ele>1028.9</ele>
        <time>2019-08-13T16:55:50Z</time>
      </trkpt>
      <trkpt lat="40.4778770" lon="-4.6448280">
        <ele>1029.2</ele>
        <time>2019-08-13T16:55:52Z</time>
      </trkpt>
      <trkpt lat="40.4779070" lon="-4.6448840">
        <ele>1029.4</ele>
        <time>2019-08-13T16:55:54Z</time>
      </trkpt>
      <trkpt lat="40.4779360" lon="-4.6449400">
        <ele>1029.7</ele>
        <time>2019-08-13T16:55:56Z</time>
      </trkpt>
      <trkpt lat="40.4779630" lon="-4.6449970">
        <ele>1030.0</ele>
        <time>2019-08-13T16:55:58Z</time>
      </trkpt>
      <trkpt lat="40.4779920" lon="-4.6450540">
        <ele>1030.3</ele>
        <time>2019-08-13T16:56:00Z</time>
      </trkpt>
      <trkpt lat="40.4780200" lon="-4.6451120">
        <ele>1030.5</ele>
        <time>2019-08-13T16:56:02Z</time>
      </trkpt>
      <trkpt lat="40.4780500" lon="-4.6451680">
        <ele>1030.7</ele>
        <time>2019-08-13T16:56:04Z</time>
      </trkpt>
      <trkpt lat="40.4780780" lon="-4.6452280">
        <ele>1031.0</ele>
        <time>2019-08-13T16:56:06Z</time>
      </trkpt>
      <trkpt lat="40.4781080" lon="-4.6452860">
        <ele>1031.3</ele>
        <time>2019-08-13T16:56:08Z</time>
      </trkpt>
      <trkpt lat="40.4781380" lon="-4.6453420">
        <ele>1031.5</ele>
        <time>2019-08-13T16:56:10Z</time>
      </trkpt>
      <trkpt lat="40.4781690" lon="-4.6453940">
        <ele>1031.8</ele>
        <time>2019-08-13T16:56:12Z</time>
      </trkpt>
      <trkpt lat="40.4782000" lon="-4.6454430">
        <ele>1032.1</ele>
        <time>2019-08-13T16:56:14Z</time>
      </trkpt>
      <trkpt lat="40.4782270" lon="-4.6454950">
        <ele>1032.3</ele>
        <time>2019-08-13T16:56:16Z</time>
      </trkpt>
      <trkpt lat="40.4782500" lon="-4.6455480">
        <ele>1032.4</ele>
        <time>2019-08-13T16:56:18Z</time>
      </trkpt>
      <trkpt lat="40.4782670" lon="-4.6456070">
        <ele>1032.6</ele>
        <time>2019-08-13T16:56:20Z</time>
      </trkpt>
      <trkpt lat="40.4782800" lon="-4.6456690">
        <ele>1032.7</ele>
        <time>2019-08-13T16:56:22Z</time>
      </trkpt>
      <trkpt lat="40.4782980" lon="-4.6457300">
        <ele>1032.9</ele>
        <time>2019-08-13T16:56:24Z</time>
      </trkpt>
      <trkpt lat="40.4783140" lon="-4.6457880">
        <ele>1033.0</ele>
        <time>2019-08-13T16:56:26Z</time>
      </trkpt>
      <trkpt lat="40.4783220" lon="-4.6458340">
        <ele>1033.3</ele>
        <time>2019-08-13T16:56:28Z</time>
      </trkpt>
      <trkpt lat="40.4783290" lon="-4.6458900">
        <ele>1033.5</ele>
        <time>2019-08-13T16:56:30Z</time>
      </trkpt>
      <trkpt lat="40.4783390" lon="-4.6459530">
        <ele>1033.7</ele>
        <time>2019-08-13T16:56:32Z</time>
      </trkpt>
      <trkpt lat="40.4783530" lon="-4.6460170">
        <ele>1033.9</ele>
        <time>2019-08-13T16:56:34Z</time>
      </trkpt>
      <trkpt lat="40.4783570" lon="-4.6460820">
        <ele>1034.1</ele>
        <time>2019-08-13T16:56:36Z</time>
      </trkpt>
      <trkpt lat="40.4783620" lon="-4.6461470">
        <ele>1034.3</ele>
        <time>2019-08-13T16:56:38Z</time>
      </trkpt>
      <trkpt lat="40.4783700" lon="-4.6462150">
        <ele>1034.6</ele>
        <time>2019-08-13T16:56:40Z</time>
      </trkpt>
      <trkpt lat="40.4783780" lon="-4.6462800">
        <ele>1034.8</ele>
        <time>2019-08-13T16:56:42Z</time>
      </trkpt>
      <trkpt lat="40.4783820" lon="-4.6463340">
        <ele>1035.0</ele>
        <time>2019-08-13T16:56:44Z</time>
      </trkpt>
      <trkpt lat="40.4783890" lon="-4.6463930">
        <ele>1035.2</ele>
        <time>2019-08-13T16:56:46Z</time>
      </trkpt>
      <trkpt lat="40.4783960" lon="-4.6464540">
        <ele>1035.4</ele>
        <time>2019-08-13T16:56:48Z</time>
      </trkpt>
      <trkpt lat="40.4784030" lon="-4.6465170">
        <ele>1035.6</ele>
        <time>2019-08-13T16:56:50Z</time>
      </trkpt>
      <trkpt lat="40.4784140" lon="-4.6465810">
        <ele>1035.8</ele>
        <time>2019-08-13T16:56:52Z</time>
      </trkpt>
      <trkpt lat="40.4784220" lon="-4.6466440">
        <ele>1036.0</ele>
        <time>2019-08-13T16:56:54Z</time>
      </trkpt>
      <trkpt lat="40.4784250" lon="-4.6467090">
        <ele>1036.1</ele>
        <time>2019-08-13T16:56:56Z</time>
      </trkpt>
      <trkpt lat="40.4784290" lon="-4.6467750">
        <ele>1036.2</ele>
        <time>2019-08-13T16:56:58Z</time>
      </trkpt>
      <trkpt lat="40.4784380" lon="-4.6468400">
        <ele>1036.4</ele>
        <time>2019-08-13T16:57:00Z</time>
      </trkpt>
      <trkpt lat="40.4784470" lon="-4.6469060">
        <ele>1036.5</ele>
        <time>2019-08-13T16:57:02Z</time>
      </trkpt>
      <trkpt lat="40.4784570" lon="-4.6469710">
        <ele>1036.6</ele>
        <time>2019-08-13T16:57:04Z</time>
      </trkpt>
      <trkpt lat="40.4784690" lon="-4.6470360">
        <ele>1036.7</ele>
        <time>2019-08-13T16:57:06Z</time>
      </trkpt>
      <trkpt lat="40.4784790" lon="-4.6471010">
        <ele>1036.8</ele>
        <time>2019-08-13T16:57:08Z</time>
      </trkpt>
      <trkpt lat="40.4784870" lon="-4.6471690">
        <ele>1036.9</ele>
        <time>2019-08-13T16:57:10Z</time>
      </trkpt>
      <trkpt lat="40.4784920" lon="-4.6472400">
        <ele>1037.0</ele>
        <time>2019-08-13T16:57:12Z</time>
      </trkpt>
      <trkpt lat="40.4784950" lon="-4.6472760">
        <ele>1037.0</ele>
        <time>2019-08-13T16:57:13Z</time>
      </trkpt>
      <trkpt lat="40.4784980" lon="-4.6473120">
        <ele>1037.1</ele>
        <time>2019-08-13T16:57:14Z</time>
      </trkpt>
      <trkpt lat="40.4785020" lon="-4.6473470">
        <ele>1037.1</ele>
        <time>2019-08-13T16:57:15Z</time>
      </trkpt>
      <trkpt lat="40.4785090" lon="-4.6474110">
        <ele>1037.1</ele>
        <time>2019-08-13T16:57:17Z</time>
      </trkpt>
      <trkpt lat="40.4785120" lon="-4.6474800">
        <ele>1037.1</ele>
        <time>2019-08-13T16:57:19Z</time>
      </trkpt>
      <trkpt lat="40.4785150" lon="-4.6475160">
        <ele>1037.2</ele>
        <time>2019-08-13T16:57:20Z</time>
      </trkpt>
      <trkpt lat="40.4785170" lon="-4.6475520">
        <ele>1037.2</ele>
        <time>2019-08-13T16:57:21Z</time>
      </trkpt>
      <trkpt lat="40.4785210" lon="-4.6475880">
        <ele>1037.2</ele>
        <time>2019-08-13T16:57:22Z</time>
      </trkpt>
      <trkpt lat="40.4785250" lon="-4.6476230">
        <ele>1037.2</ele>
        <time>2019-08-13T16:57:23Z</time>
      </trkpt>
      <trkpt lat="40.4785290" lon="-4.6476590">
        <ele>1037.2</ele>
        <time>2019-08-13T16:57:24Z</time>
      </trkpt>
      <trkpt lat="40.4785340" lon="-4.6476960">
        <ele>1037.2</ele>
        <time>2019-08-13T16:57:25Z</time>
      </trkpt>
      <trkpt lat="40.4785390" lon="-4.6477340">
        <ele>1037.3</ele>
        <time>2019-08-13T16:57:26Z</time>
      </trkpt>
      <trkpt lat="40.4785430" lon="-4.6477730">
        <ele>1037.3</ele>
        <time>2019-08-13T16:57:27Z</time>
      </trkpt>
      <trkpt lat="40.4785480" lon="-4.6478130">
        <ele>1037.3</ele>
        <time>2019-08-13T16:57:28Z</time>
      </trkpt>
      <trkpt lat="40.4785540" lon="-4.6478530">
        <ele>1037.3</ele>
        <time>2019-08-13T16:57:29Z</time>
      </trkpt>
      <trkpt lat="40.4785610" lon="-4.6478960">
        <ele>1037.4</ele>
        <time>2019-08-13T16:57:30Z</time>
      </trkpt>
      <trkpt lat="40.4785690" lon="-4.6479400">
        <ele>1037.4</ele>
        <time>2019-08-13T16:57:31Z</time>
      </trkpt>
      <trkpt lat="40.4785760" lon="-4.6479820">
        <ele>1037.4</ele>
        <time>2019-08-13T16:57:32Z</time>
      </trkpt>
      <trkpt lat="40.4785830" lon="-4.6480220">
        <ele>1037.4</ele>
        <time>2019-08-13T16:57:33Z</time>
      </trkpt>
      <trkpt lat="40.4785880" lon="-4.6480600">
        <ele>1037.5</ele>
        <time>2019-08-13T16:57:34Z</time>
      </trkpt>
      <trkpt lat="40.4785910" lon="-4.6480980">
        <ele>1037.5</ele>
        <time>2019-08-13T16:57:35Z</time>
      </trkpt>
      <trkpt lat="40.4785950" lon="-4.6481380">
        <ele>1037.5</ele>
        <time>2019-08-13T16:57:36Z</time>
      </trkpt>
      <trkpt lat="40.4786010" lon="-4.6481810">
        <ele>1037.5</ele>
        <time>2019-08-13T16:57:37Z</time>
      </trkpt>
      <trkpt lat="40.4786080" lon="-4.6482240">
        <ele>1037.5</ele>
        <time>2019-08-13T16:57:38Z</time>
      </trkpt>
      <trkpt lat="40.4786140" lon="-4.6482690">
        <ele>1037.5</ele>
        <time>2019-08-13T16:57:39Z</time>
      </trkpt>
      <trkpt lat="40.4786190" lon="-4.6483150">
        <ele>1037.5</ele>
        <time>2019-08-13T16:57:40Z</time>
      </trkpt>
      <trkpt lat="40.4786230" lon="-4.6483610">
        <ele>1037.5</ele>
        <time>2019-08-13T16:57:41Z</time>
      </trkpt>
      <trkpt lat="40.4786280" lon="-4.6484080">
        <ele>1037.5</ele>
        <time>2019-08-13T16:57:42Z</time>
      </trkpt>
      <trkpt lat="40.4786330" lon="-4.6484570">
        <ele>1037.5</ele>
        <time>2019-08-13T16:57:43Z</time>
      </trkpt>
      <trkpt lat="40.4786380" lon="-4.6485080">
        <ele>1037.5</ele>
        <time>2019-08-13T16:57:44Z</time>
      </trkpt>
      <trkpt lat="40.4786440" lon="-4.6485580">
        <ele>1037.5</ele>
        <time>2019-08-13T16:57:45Z</time>
      </trkpt>
      <trkpt lat="40.4786500" lon="-4.6486100">
        <ele>1037.5</ele>
        <time>2019-08-13T16:57:46Z</time>
      </trkpt>
      <trkpt lat="40.4786560" lon="-4.6486620">
        <ele>1037.5</ele>
        <time>2019-08-13T16:57:47Z</time>
      </trkpt>
      <trkpt lat="40.4786610" lon="-4.6487160">
        <ele>1037.5</ele>
        <time>2019-08-13T16:57:48Z</time>
      </trkpt>
      <trkpt lat="40.4786670" lon="-4.6487690">
        <ele>1037.5</ele>
        <time>2019-08-13T16:57:49Z</time>
      </trkpt>
      <trkpt lat="40.4786710" lon="-4.6488190">
        <ele>1037.5</ele>
        <time>2019-08-13T16:57:50Z</time>
      </trkpt>
      <trkpt lat="40.4786750" lon="-4.6488690">
        <ele>1037.5</ele>
        <time>2019-08-13T16:57:51Z</time>
      </trkpt>
      <trkpt lat="40.4786760" lon="-4.6489160">
        <ele>1037.5</ele>
        <time>2019-08-13T16:57:52Z</time>
      </trkpt>
      <trkpt lat="40.4786770" lon="-4.6489610">
        <ele>1037.5</ele>
        <time>2019-08-13T16:57:53Z</time>
      </trkpt>
      <trkpt lat="40.4786780" lon="-4.6490080">
        <ele>1037.5</ele>
        <time>2019-08-13T16:57:54Z</time>
      </trkpt>
      <trkpt lat="40.4786800" lon="-4.6490560">
        <ele>1037.6</ele>
        <time>2019-08-13T16:57:55Z</time>
      </trkpt>
      <trkpt lat="40.4786830" lon="-4.6491050">
        <ele>1037.6</ele>
        <time>2019-08-13T16:57:56Z</time>
      </trkpt>
      <trkpt lat="40.4786880" lon="-4.6491560">
        <ele>1037.6</ele>
        <time>2019-08-13T16:57:57Z</time>
      </trkpt>
      <trkpt lat="40.4786950" lon="-4.6492090">
        <ele>1037.7</ele>
        <time>2019-08-13T16:57:58Z</time>
      </trkpt>
      <trkpt lat="40.4787020" lon="-4.6492630">
        <ele>1037.7</ele>
        <time>2019-08-13T16:57:59Z</time>
      </trkpt>
      <trkpt lat="40.4787080" lon="-4.6493170">
        <ele>1037.8</ele>
        <time>2019-08-13T16:58:00Z</time>
      </trkpt>
      <trkpt lat="40.4787140" lon="-4.6493740">
        <ele>1037.8</ele>
        <time>2019-08-13T16:58:01Z</time>
      </trkpt>
      <trkpt lat="40.4787190" lon="-4.6494320">
        <ele>1037.8</ele>
        <time>2019-08-13T16:58:02Z</time>
      </trkpt>
      <trkpt lat="40.4787250" lon="-4.6494880">
        <ele>1037.8</ele>
        <time>2019-08-13T16:58:03Z</time>
      </trkpt>
      <trkpt lat="40.4787310" lon="-4.6495440">
        <ele>1037.8</ele>
        <time>2019-08-13T16:58:04Z</time>
      </trkpt>
      <trkpt lat="40.4787350" lon="-4.6495970">
        <ele>1037.8</ele>
        <time>2019-08-13T16:58:05Z</time>
      </trkpt>
      <trkpt lat="40.4787390" lon="-4.6496490">
        <ele>1037.8</ele>
        <time>2019-08-13T16:58:06Z</time>
      </trkpt>
      <trkpt lat="40.4787430" lon="-4.6496980">
        <ele>1037.9</ele>
        <time>2019-08-13T16:58:07Z</time>
      </trkpt>
      <trkpt lat="40.4787460" lon="-4.6497470">
        <ele>1037.9</ele>
        <time>2019-08-13T16:58:08Z</time>
      </trkpt>
      <trkpt lat="40.4787510" lon="-4.6497940">
        <ele>1037.9</ele>
        <time>2019-08-13T16:58:09Z</time>
      </trkpt>
      <trkpt lat="40.4787590" lon="-4.6498420">
        <ele>1037.9</ele>
        <time>2019-08-13T16:58:10Z</time>
      </trkpt>
      <trkpt lat="40.4787670" lon="-4.6498910">
        <ele>1038.0</ele>
        <time>2019-08-13T16:58:11Z</time>
      </trkpt>
      <trkpt lat="40.4787750" lon="-4.6499420">
        <ele>1038.0</ele>
        <time>2019-08-13T16:58:12Z</time>
      </trkpt>
      <trkpt lat="40.4787830" lon="-4.6499940">
        <ele>1038.0</ele>
        <time>2019-08-13T16:58:13Z</time>
      </trkpt>
      <trkpt lat="40.4787900" lon="-4.6500470">
        <ele>1038.1</ele>
        <time>2019-08-13T16:58:14Z</time>
      </trkpt>
      <trkpt lat="40.4787980" lon="-4.6501020">
        <ele>1038.1</ele>
        <time>2019-08-13T16:58:15Z</time>
      </trkpt>
      <trkpt lat="40.4788070" lon="-4.6501570">
        <ele>1038.2</ele>
        <time>2019-08-13T16:58:16Z</time>
      </trkpt>
      <trkpt lat="40.4788170" lon="-4.6502140">
        <ele>1038.2</ele>
        <time>2019-08-13T16:58:17Z</time>
      </trkpt>
      <trkpt lat="40.4788260" lon="-4.6502740">
        <ele>1038.3</ele>
        <time>2019-08-13T16:58:18Z</time>
      </trkpt>
      <trkpt lat="40.4788360" lon="-4.6503330">
        <ele>1038.4</ele>
        <time>2019-08-13T16:58:19Z</time>
      </trkpt>
      <trkpt lat="40.4788440" lon="-4.6503900">
        <ele>1038.4</ele>
        <time>2019-08-13T16:58:20Z</time>
      </trkpt>
      <trkpt lat="40.4788540" lon="-4.6504470">
        <ele>1038.5</ele>
        <time>2019-08-13T16:58:21Z</time>
      </trkpt>
      <trkpt lat="40.4788620" lon="-4.6505030">
        <ele>1038.5</ele>
        <time>2019-08-13T16:58:22Z</time>
      </trkpt>
      <trkpt lat="40.4788700" lon="-4.6505620">
        <ele>1038.5</ele>
        <time>2019-08-13T16:58:23Z</time>
      </trkpt>
      <trkpt lat="40.4788800" lon="-4.6506210">
        <ele>1038.5</ele>
        <time>2019-08-13T16:58:24Z</time>
      </trkpt>
      <trkpt lat="40.4788890" lon="-4.6506790">
        <ele>1038.6</ele>
        <time>2019-08-13T16:58:25Z</time>
      </trkpt>
      <trkpt lat="40.4788990" lon="-4.6507350">
        <ele>1038.6</ele>
        <time>2019-08-13T16:58:26Z</time>
      </trkpt>
      <trkpt lat="40.4789070" lon="-4.6507900">
        <ele>1038.6</ele>
        <time>2019-08-13T16:58:27Z</time>
      </trkpt>
      <trkpt lat="40.4789160" lon="-4.6508410">
        <ele>1038.6</ele>
        <time>2019-08-13T16:58:28Z</time>
      </trkpt>
      <trkpt lat="40.4789240" lon="-4.6508830">
        <ele>1038.6</ele>
        <time>2019-08-13T16:58:29Z</time>
      </trkpt>
      <trkpt lat="40.4789370" lon="-4.6509290">
        <ele>1038.7</ele>
        <time>2019-08-13T16:58:31Z</time>
      </trkpt>
      <trkpt lat="40.4789700" lon="-4.6509490">
        <ele>1038.7</ele>
        <time>2019-08-13T16:58:37Z</time>
      </trkpt>
      <trkpt lat="40.4790010" lon="-4.6509760">
        <ele>1038.7</ele>
        <time>2019-08-13T16:58:40Z</time>
      </trkpt>
      <trkpt lat="40.4790020" lon="-4.6509960">
        <ele>1038.7</ele>
        <time>2019-08-13T16:58:50Z</time>
      </trkpt>
      <trkpt lat="40.4789750" lon="-4.6510340">
        <ele>1038.7</ele>
        <time>2019-08-13T16:59:41Z</time>
      </trkpt>
      <trkpt lat="40.4789600" lon="-4.6510570">
        <ele>1038.7</ele>
        <time>2019-08-13T16:59:50Z</time>
      </trkpt>
      <trkpt lat="40.4789590" lon="-4.6511110">
        <ele>1038.7</ele>
        <time>2019-08-13T16:59:53Z</time>
      </trkpt>
      <trkpt lat="40.4789670" lon="-4.6511640">
        <ele>1038.8</ele>
        <time>2019-08-13T16:59:55Z</time>
      </trkpt>
      <trkpt lat="40.4789810" lon="-4.6512200">
        <ele>1038.8</ele>
        <time>2019-08-13T16:59:57Z</time>
      </trkpt>
      <trkpt lat="40.4789920" lon="-4.6512790">
        <ele>1038.8</ele>
        <time>2019-08-13T16:59:59Z</time>
      </trkpt>
      <trkpt lat="40.4790020" lon="-4.6513400">
        <ele>1038.8</ele>
        <time>2019-08-13T17:00:01Z</time>
      </trkpt>
      <trkpt lat="40.4790130" lon="-4.6514030">
        <ele>1038.9</ele>
        <time>2019-08-13T17:00:03Z</time>
      </trkpt>
      <trkpt lat="40.4790230" lon="-4.6514730">
        <ele>1038.9</ele>
        <time>2019-08-13T17:00:05Z</time>
      </trkpt>
      <trkpt lat="40.4790290" lon="-4.6515080">
        <ele>1038.9</ele>
        <time>2019-08-13T17:00:06Z</time>
      </trkpt>
      <trkpt lat="40.4790350" lon="-4.6515430">
        <ele>1038.9</ele>
        <time>2019-08-13T17:00:07Z</time>
      </trkpt>
      <trkpt lat="40.4790410" lon="-4.6515780">
        <ele>1039.0</ele>
        <time>2019-08-13T17:00:08Z</time>
      </trkpt>
      <trkpt lat="40.4790470" lon="-4.6516140">
        <ele>1039.0</ele>
        <time>2019-08-13T17:00:09Z</time>
      </trkpt>
      <trkpt lat="40.4790520" lon="-4.6516490">
        <ele>1039.0</ele>
        <time>2019-08-13T17:00:10Z</time>
      </trkpt>
      <trkpt lat="40.4790580" lon="-4.6516840">
        <ele>1039.1</ele>
        <time>2019-08-13T17:00:11Z</time>
      </trkpt>
      <trkpt lat="40.4790640" lon="-4.6517190">
        <ele>1039.1</ele>
        <time>2019-08-13T17:00:12Z</time>
      </trkpt>
      <trkpt lat="40.4790760" lon="-4.6517880">
        <ele>1039.2</ele>
        <time>2019-08-13T17:00:14Z</time>
      </trkpt>
      <trkpt lat="40.4790820" lon="-4.6518230">
        <ele>1039.2</ele>
        <time>2019-08-13T17:00:15Z</time>
      </trkpt>
      <trkpt lat="40.4790870" lon="-4.6518580">
        <ele>1039.3</ele>
        <time>2019-08-13T17:00:16Z</time>
      </trkpt>
      <trkpt lat="40.4790920" lon="-4.6518930">
        <ele>1039.4</ele>
        <time>2019-08-13T17:00:17Z</time>
      </trkpt>
      <trkpt lat="40.4790980" lon="-4.6519280">
        <ele>1039.4</ele>
        <time>2019-08-13T17:00:18Z</time>
      </trkpt>
      <trkpt lat="40.4791050" lon="-4.6519630">
        <ele>1039.5</ele>
        <time>2019-08-13T17:00:19Z</time>
      </trkpt>
      <trkpt lat="40.4791130" lon="-4.6519990">
        <ele>1039.6</ele>
        <time>2019-08-13T17:00:20Z</time>
      </trkpt>
      <trkpt lat="40.4791220" lon="-4.6520350">
        <ele>1039.7</ele>
        <time>2019-08-13T17:00:21Z</time>
      </trkpt>
      <trkpt lat="40.4791300" lon="-4.6520710">
        <ele>1039.8</ele>
        <time>2019-08-13T17:00:22Z</time>
      </trkpt>
      <trkpt lat="40.4791400" lon="-4.6521070">
        <ele>1040.0</ele>
        <time>2019-08-13T17:00:23Z</time>
      </trkpt>
      <trkpt lat="40.4791510" lon="-4.6521440">
        <ele>1040.1</ele>
        <time>2019-08-13T17:00:24Z</time>
      </trkpt>
      <trkpt lat="40.4791620" lon="-4.6521790">
        <ele>1040.4</ele>
        <time>2019-08-13T17:00:25Z</time>
      </trkpt>
      <trkpt lat="40.4791750" lon="-4.6522140">
        <ele>1040.6</ele>
        <time>2019-08-13T17:00:26Z</time>
      </trkpt>
      <trkpt lat="40.4791880" lon="-4.6522480">
        <ele>1040.8</ele>
        <time>2019-08-13T17:00:27Z</time>
      </trkpt>
      <trkpt lat="40.4792020" lon="-4.6522790">
        <ele>1041.0</ele>
        <time>2019-08-13T17:00:28Z</time>
      </trkpt>
      <trkpt lat="40.4792170" lon="-4.6523090">
        <ele>1041.2</ele>
        <time>2019-08-13T17:00:29Z</time>
      </trkpt>
      <trkpt lat="40.4792460" lon="-4.6523660">
        <ele>1041.6</ele>
        <time>2019-08-13T17:00:31Z</time>
      </trkpt>
      <trkpt lat="40.4792770" lon="-4.6524160">
        <ele>1041.9</ele>
        <time>2019-08-13T17:00:33Z</time>
      </trkpt>
      <trkpt lat="40.4793090" lon="-4.6524600">
        <ele>1042.3</ele>
        <time>2019-08-13T17:00:35Z</time>
      </trkpt>
      <trkpt lat="40.4793400" lon="-4.6525030">
        <ele>1042.6</ele>
        <time>2019-08-13T17:00:37Z</time>
      </trkpt>
      <trkpt lat="40.4793720" lon="-4.6525430">
        <ele>1042.9</ele>
        <time>2019-08-13T17:00:39Z</time>
      </trkpt>
      <trkpt lat="40.4794050" lon="-4.6525810">
        <ele>1043.4</ele>
        <time>2019-08-13T17:00:41Z</time>
      </trkpt>
      <trkpt lat="40.4794410" lon="-4.6526160">
        <ele>1043.9</ele>
        <time>2019-08-13T17:00:43Z</time>
      </trkpt>
      <trkpt lat="40.4794780" lon="-4.6526470">
        <ele>1044.5</ele>
        <time>2019-08-13T17:00:45Z</time>
      </trkpt>
      <trkpt lat="40.4795150" lon="-4.6526780">
        <ele>1045.1</ele>
        <time>2019-08-13T17:00:47Z</time>
      </trkpt>
      <trkpt lat="40.4795530" lon="-4.6527100">
        <ele>1045.7</ele>
        <time>2019-08-13T17:00:49Z</time>
      </trkpt>
      <trkpt lat="40.4795890" lon="-4.6527440">
        <ele>1046.2</ele>
        <time>2019-08-13T17:00:51Z</time>
      </trkpt>
      <trkpt lat="40.4796260" lon="-4.6527740">
        <ele>1046.8</ele>
        <time>2019-08-13T17:00:53Z</time>
      </trkpt>
      <trkpt lat="40.4796640" lon="-4.6528050">
        <ele>1047.4</ele>
        <time>2019-08-13T17:00:55Z</time>
      </trkpt>
      <trkpt lat="40.4797000" lon="-4.6528400">
        <ele>1048.1</ele>
        <time>2019-08-13T17:00:57Z</time>
      </trkpt>
      <trkpt lat="40.4797350" lon="-4.6528790">
        <ele>1048.7</ele>
        <time>2019-08-13T17:00:59Z</time>
      </trkpt>
      <trkpt lat="40.4797700" lon="-4.6529170">
        <ele>1049.8</ele>
        <time>2019-08-13T17:01:01Z</time>
      </trkpt>
      <trkpt lat="40.4798100" lon="-4.6529490">
        <ele>1050.1</ele>
        <time>2019-08-13T17:01:03Z</time>
      </trkpt>
      <trkpt lat="40.4798490" lon="-4.6529840">
        <ele>1050.4</ele>
        <time>2019-08-13T17:01:05Z</time>
      </trkpt>
      <trkpt lat="40.4798850" lon="-4.6530200">
        <ele>1050.7</ele>
        <time>2019-08-13T17:01:07Z</time>
      </trkpt>
      <trkpt lat="40.4799230" lon="-4.6530550">
        <ele>1051.1</ele>
        <time>2019-08-13T17:01:09Z</time>
      </trkpt>
      <trkpt lat="40.4799610" lon="-4.6530930">
        <ele>1051.5</ele>
        <time>2019-08-13T17:01:11Z</time>
      </trkpt>
      <trkpt lat="40.4799990" lon="-4.6531310">
        <ele>1051.8</ele>
        <time>2019-08-13T17:01:13Z</time>
      </trkpt>
      <trkpt lat="40.4800370" lon="-4.6531660">
        <ele>1052.2</ele>
        <time>2019-08-13T17:01:15Z</time>
      </trkpt>
      <trkpt lat="40.4800770" lon="-4.6532010">
        <ele>1052.5</ele>
        <time>2019-08-13T17:01:17Z</time>
      </trkpt>
      <trkpt lat="40.4801150" lon="-4.6532380">
        <ele>1052.9</ele>
        <time>2019-08-13T17:01:19Z</time>
      </trkpt>
      <trkpt lat="40.4801550" lon="-4.6532750">
        <ele>1053.2</ele>
        <time>2019-08-13T17:01:21Z</time>
      </trkpt>
      <trkpt lat="40.4801940" lon="-4.6533140">
        <ele>1053.6</ele>
        <time>2019-08-13T17:01:23Z</time>
      </trkpt>
      <trkpt lat="40.4802340" lon="-4.6533520">
        <ele>1053.9</ele>
        <time>2019-08-13T17:01:25Z</time>
      </trkpt>
      <trkpt lat="40.4802720" lon="-4.6533890">
        <ele>1054.3</ele>
        <time>2019-08-13T17:01:27Z</time>
      </trkpt>
      <trkpt lat="40.4803080" lon="-4.6534270">
        <ele>1054.6</ele>
        <time>2019-08-13T17:01:29Z</time>
      </trkpt>
      <trkpt lat="40.4803470" lon="-4.6534650">
        <ele>1055.0</ele>
        <time>2019-08-13T17:01:31Z</time>
      </trkpt>
      <trkpt lat="40.4803870" lon="-4.6535050">
        <ele>1055.3</ele>
        <time>2019-08-13T17:01:33Z</time>
      </trkpt>
      <trkpt lat="40.4804250" lon="-4.6535470">
        <ele>1055.7</ele>
        <time>2019-08-13T17:01:35Z</time>
      </trkpt>
      <trkpt lat="40.4804620" lon="-4.6535860">
        <ele>1056.1</ele>
        <time>2019-08-13T17:01:37Z</time>
      </trkpt>
      <trkpt lat="40.4805000" lon="-4.6536230">
        <ele>1056.4</ele>
        <time>2019-08-13T17:01:39Z</time>
      </trkpt>
      <trkpt lat="40.4805370" lon="-4.6536640">
        <ele>1056.8</ele>
        <time>2019-08-13T17:01:41Z</time>
      </trkpt>
      <trkpt lat="40.4805720" lon="-4.6537060">
        <ele>1057.2</ele>
        <time>2019-08-13T17:01:43Z</time>
      </trkpt>
      <trkpt lat="40.4806070" lon="-4.6537470">
        <ele>1057.6</ele>
        <time>2019-08-13T17:01:45Z</time>
      </trkpt>
      <trkpt lat="40.4806430" lon="-4.6537890">
        <ele>1058.1</ele>
        <time>2019-08-13T17:01:47Z</time>
      </trkpt>
      <trkpt lat="40.4806770" lon="-4.6538350">
        <ele>1058.6</ele>
        <time>2019-08-13T17:01:49Z</time>
      </trkpt>
      <trkpt lat="40.4807110" lon="-4.6538790">
        <ele>1059.1</ele>
        <time>2019-08-13T17:01:51Z</time>
      </trkpt>
      <trkpt lat="40.4807460" lon="-4.6539230">
        <ele>1059.6</ele>
        <time>2019-08-13T17:01:53Z</time>
      </trkpt>
      <trkpt lat="40.4807770" lon="-4.6539690">
        <ele>1060.0</ele>
        <time>2019-08-13T17:01:55Z</time>
      </trkpt>
      <trkpt lat="40.4808070" lon="-4.6540140">
        <ele>1060.6</ele>
        <time>2019-08-13T17:01:57Z</time>
      </trkpt>
      <trkpt lat="40.4808370" lon="-4.6540600">
        <ele>1061.1</ele>
        <time>2019-08-13T17:01:59Z</time>
      </trkpt>
      <trkpt lat="40.4808660" lon="-4.6541100">
        <ele>1061.6</ele>
        <time>2019-08-13T17:02:01Z</time>
      </trkpt>
      <trkpt lat="40.4808940" lon="-4.6541610">
        <ele>1062.1</ele>
        <time>2019-08-13T17:02:03Z</time>
      </trkpt>
      <trkpt lat="40.4809220" lon="-4.6542130">
        <ele>1062.6</ele>
        <time>2019-08-13T17:02:05Z</time>
      </trkpt>
      <trkpt lat="40.4809500" lon="-4.6542640">
        <ele>1062.9</ele>
        <time>2019-08-13T17:02:07Z</time>
      </trkpt>
      <trkpt lat="40.4809800" lon="-4.6543150">
        <ele>1063.1</ele>
        <time>2019-08-13T17:02:09Z</time>
      </trkpt>
      <trkpt lat="40.4810060" lon="-4.6543660">
        <ele>1063.3</ele>
        <time>2019-08-13T17:02:11Z</time>
      </trkpt>
      <trkpt lat="40.4810300" lon="-4.6544190">
        <ele>1063.6</ele>
        <time>2019-08-13T17:02:13Z</time>
      </trkpt>
      <trkpt lat="40.4810560" lon="-4.6544730">
        <ele>1063.8</ele>
        <time>2019-08-13T17:02:15Z</time>
      </trkpt>
      <trkpt lat="40.4810800" lon="-4.6545280">
        <ele>1064.1</ele>
        <time>2019-08-13T17:02:17Z</time>
      </trkpt>
      <trkpt lat="40.4811030" lon="-4.6545830">
        <ele>1064.3</ele>
        <time>2019-08-13T17:02:19Z</time>
      </trkpt>
      <trkpt lat="40.4811240" lon="-4.6546380">
        <ele>1064.5</ele>
        <time>2019-08-13T17:02:21Z</time>
      </trkpt>
      <trkpt lat="40.4811460" lon="-4.6546950">
        <ele>1064.8</ele>
        <time>2019-08-13T17:02:23Z</time>
      </trkpt>
      <trkpt lat="40.4811690" lon="-4.6547500">
        <ele>1065.1</ele>
        <time>2019-08-13T17:02:25Z</time>
      </trkpt>
      <trkpt lat="40.4811890" lon="-4.6548040">
        <ele>1065.3</ele>
        <time>2019-08-13T17:02:27Z</time>
      </trkpt>
      <trkpt lat="40.4812090" lon="-4.6548570">
        <ele>1065.6</ele>
        <time>2019-08-13T17:02:29Z</time>
      </trkpt>
      <trkpt lat="40.4812270" lon="-4.6549070">
        <ele>1065.8</ele>
        <time>2019-08-13T17:02:31Z</time>
      </trkpt>
      <trkpt lat="40.4812430" lon="-4.6549560">
        <ele>1066.0</ele>
        <time>2019-08-13T17:02:33Z</time>
      </trkpt>
      <trkpt lat="40.4812600" lon="-4.6550050">
        <ele>1066.2</ele>
        <time>2019-08-13T17:02:35Z</time>
      </trkpt>
      <trkpt lat="40.4812760" lon="-4.6550560">
        <ele>1066.4</ele>
        <time>2019-08-13T17:02:37Z</time>
      </trkpt>
      <trkpt lat="40.4812920" lon="-4.6551070">
        <ele>1066.7</ele>
        <time>2019-08-13T17:02:39Z</time>
      </trkpt>
      <trkpt lat="40.4813110" lon="-4.6551570">
        <ele>1066.9</ele>
        <time>2019-08-13T17:02:41Z</time>
      </trkpt>
      <trkpt lat="40.4813310" lon="-4.6552080">
        <ele>1067.1</ele>
        <time>2019-08-13T17:02:43Z</time>
      </trkpt>
      <trkpt lat="40.4813490" lon="-4.6552610">
        <ele>1067.3</ele>
        <time>2019-08-13T17:02:45Z</time>
      </trkpt>
      <trkpt lat="40.4813640" lon="-4.6553140">
        <ele>1067.5</ele>
        <time>2019-08-13T17:02:47Z</time>
      </trkpt>
      <trkpt lat="40.4813810" lon="-4.6553650">
        <ele>1067.7</ele>
        <time>2019-08-13T17:02:49Z</time>
      </trkpt>
      <trkpt lat="40.4813990" lon="-4.6554150">
        <ele>1067.9</ele>
        <time>2019-08-13T17:02:51Z</time>
      </trkpt>
      <trkpt lat="40.4814170" lon="-4.6554660">
        <ele>1068.1</ele>
        <time>2019-08-13T17:02:53Z</time>
      </trkpt>
      <trkpt lat="40.4814350" lon="-4.6555160">
        <ele>1068.3</ele>
        <time>2019-08-13T17:02:55Z</time>
      </trkpt>
      <trkpt lat="40.4814510" lon="-4.6555660">
        <ele>1068.5</ele>
        <time>2019-08-13T17:02:57Z</time>
      </trkpt>
      <trkpt lat="40.4814680" lon="-4.6556170">
        <ele>1068.6</ele>
        <time>2019-08-13T17:02:59Z</time>
      </trkpt>
      <trkpt lat="40.4814850" lon="-4.6556690">
        <ele>1068.8</ele>
        <time>2019-08-13T17:03:01Z</time>
      </trkpt>
      <trkpt lat="40.4815040" lon="-4.6557190">
        <ele>1069.0</ele>
        <time>2019-08-13T17:03:03Z</time>
      </trkpt>
      <trkpt lat="40.4815210" lon="-4.6557710">
        <ele>1069.1</ele>
        <time>2019-08-13T17:03:05Z</time>
      </trkpt>
      <trkpt lat="40.4815370" lon="-4.6558210">
        <ele>1069.3</ele>
        <time>2019-08-13T17:03:07Z</time>
      </trkpt>
      <trkpt lat="40.4815550" lon="-4.6558700">
        <ele>1069.4</ele>
        <time>2019-08-13T17:03:09Z</time>
      </trkpt>
      <trkpt lat="40.4815730" lon="-4.6559200">
        <ele>1069.5</ele>
        <time>2019-08-13T17:03:11Z</time>
      </trkpt>
      <trkpt lat="40.4815920" lon="-4.6559700">
        <ele>1069.7</ele>
        <time>2019-08-13T17:03:13Z</time>
      </trkpt>
      <trkpt lat="40.4816130" lon="-4.6560200">
        <ele>1069.8</ele>
        <time>2019-08-13T17:03:15Z</time>
      </trkpt>
      <trkpt lat="40.4816350" lon="-4.6560690">
        <ele>1069.9</ele>
        <time>2019-08-13T17:03:17Z</time>
      </trkpt>
      <trkpt lat="40.4816570" lon="-4.6561180">
        <ele>1070.1</ele>
        <time>2019-08-13T17:03:19Z</time>
      </trkpt>
      <trkpt lat="40.4816800" lon="-4.6561650">
        <ele>1070.2</ele>
        <time>2019-08-13T17:03:21Z</time>
      </trkpt>
      <trkpt lat="40.4817040" lon="-4.6562110">
        <ele>1070.3</ele>
        <time>2019-08-13T17:03:23Z</time>
      </trkpt>
      <trkpt lat="40.4817270" lon="-4.6562560">
        <ele>1070.3</ele>
        <time>2019-08-13T17:03:25Z</time>
      </trkpt>
      <trkpt lat="40.4817510" lon="-4.6562990">
        <ele>1070.4</ele>
        <time>2019-08-13T17:03:27Z</time>
      </trkpt>
      <trkpt lat="40.4817780" lon="-4.6563420">
        <ele>1070.5</ele>
        <time>2019-08-13T17:03:29Z</time>
      </trkpt>
      <trkpt lat="40.4818060" lon="-4.6563810">
        <ele>1070.6</ele>
        <time>2019-08-13T17:03:31Z</time>
      </trkpt>
      <trkpt lat="40.4818340" lon="-4.6564200">
        <ele>1070.7</ele>
        <time>2019-08-13T17:03:33Z</time>
      </trkpt>
      <trkpt lat="40.4818630" lon="-4.6564560">
        <ele>1070.7</ele>
        <time>2019-08-13T17:03:35Z</time>
      </trkpt>
      <trkpt lat="40.4818930" lon="-4.6564880">
        <ele>1070.8</ele>
        <time>2019-08-13T17:03:37Z</time>
      </trkpt>
      <trkpt lat="40.4819230" lon="-4.6565200">
        <ele>1070.8</ele>
        <time>2019-08-13T17:03:39Z</time>
      </trkpt>
      <trkpt lat="40.4819560" lon="-4.6565510">
        <ele>1070.9</ele>
        <time>2019-08-13T17:03:41Z</time>
      </trkpt>
      <trkpt lat="40.4819890" lon="-4.6565820">
        <ele>1070.9</ele>
        <time>2019-08-13T17:03:43Z</time>
      </trkpt>
      <trkpt lat="40.4820230" lon="-4.6566110">
        <ele>1071.0</ele>
        <time>2019-08-13T17:03:45Z</time>
      </trkpt>
      <trkpt lat="40.4820570" lon="-4.6566380">
        <ele>1071.0</ele>
        <time>2019-08-13T17:03:47Z</time>
      </trkpt>
      <trkpt lat="40.4820930" lon="-4.6566620">
        <ele>1071.1</ele>
        <time>2019-08-13T17:03:49Z</time>
      </trkpt>
      <trkpt lat="40.4821300" lon="-4.6566860">
        <ele>1071.2</ele>
        <time>2019-08-13T17:03:51Z</time>
      </trkpt>
      <trkpt lat="40.4821670" lon="-4.6567090">
        <ele>1071.2</ele>
        <time>2019-08-13T17:03:53Z</time>
      </trkpt>
      <trkpt lat="40.4822050" lon="-4.6567290">
        <ele>1071.3</ele>
        <time>2019-08-13T17:03:55Z</time>
      </trkpt>
      <trkpt lat="40.4822440" lon="-4.6567480">
        <ele>1071.4</ele>
        <time>2019-08-13T17:03:57Z</time>
      </trkpt>
      <trkpt lat="40.4822820" lon="-4.6567690">
        <ele>1071.5</ele>
        <time>2019-08-13T17:03:59Z</time>
      </trkpt>
      <trkpt lat="40.4823170" lon="-4.6567910">
        <ele>1071.6</ele>
        <time>2019-08-13T17:04:01Z</time>
      </trkpt>
      <trkpt lat="40.4823540" lon="-4.6568080">
        <ele>1071.7</ele>
        <time>2019-08-13T17:04:03Z</time>
      </trkpt>
      <trkpt lat="40.4823910" lon="-4.6568220">
        <ele>1071.7</ele>
        <time>2019-08-13T17:04:05Z</time>
      </trkpt>
      <trkpt lat="40.4824280" lon="-4.6568380">
        <ele>1071.8</ele>
        <time>2019-08-13T17:04:07Z</time>
      </trkpt>
      <trkpt lat="40.4824650" lon="-4.6568540">
        <ele>1071.9</ele>
        <time>2019-08-13T17:04:09Z</time>
      </trkpt>
      <trkpt lat="40.4825020" lon="-4.6568720">
        <ele>1072.0</ele>
        <time>2019-08-13T17:04:11Z</time>
      </trkpt>
      <trkpt lat="40.4825380" lon="-4.6568850">
        <ele>1072.1</ele>
        <time>2019-08-13T17:04:13Z</time>
      </trkpt>
      <trkpt lat="40.4825740" lon="-4.6569030">
        <ele>1072.6</ele>
        <time>2019-08-13T17:04:15Z</time>
      </trkpt>
      <trkpt lat="40.4826120" lon="-4.6569200">
        <ele>1073.1</ele>
        <time>2019-08-13T17:04:17Z</time>
      </trkpt>
      <trkpt lat="40.4826360" lon="-4.6569370">
        <ele>1073.4</ele>
        <time>2019-08-13T17:04:19Z</time>
      </trkpt>
      <trkpt lat="40.4827150" lon="-4.6569710">
        <ele>1074.5</ele>
        <time>2019-08-13T17:04:36Z</time>
      </trkpt>
      <trkpt lat="40.4827410" lon="-4.6569850">
        <ele>1074.8</ele>
        <time>2019-08-13T17:04:38Z</time>
      </trkpt>
      <trkpt lat="40.4827720" lon="-4.6570060">
        <ele>1075.3</ele>
        <time>2019-08-13T17:04:40Z</time>
      </trkpt>
      <trkpt lat="40.4828040" lon="-4.6570260">
        <ele>1075.7</ele>
        <time>2019-08-13T17:04:42Z</time>
      </trkpt>
      <trkpt lat="40.4828360" lon="-4.6570470">
        <ele>1076.1</ele>
        <time>2019-08-13T17:04:44Z</time>
      </trkpt>
      <trkpt lat="40.4828680" lon="-4.6570730">
        <ele>1076.6</ele>
        <time>2019-08-13T17:04:46Z</time>
      </trkpt>
      <trkpt lat="40.4829010" lon="-4.6570990">
        <ele>1077.1</ele>
        <time>2019-08-13T17:04:48Z</time>
      </trkpt>
      <trkpt lat="40.4829330" lon="-4.6571270">
        <ele>1077.5</ele>
        <time>2019-08-13T17:04:50Z</time>
      </trkpt>
      <trkpt lat="40.4829650" lon="-4.6571550">
        <ele>1078.0</ele>
        <time>2019-08-13T17:04:52Z</time>
      </trkpt>
      <trkpt lat="40.4829970" lon="-4.6571870">
        <ele>1078.4</ele>
        <time>2019-08-13T17:04:54Z</time>
      </trkpt>
      <trkpt lat="40.4830280" lon="-4.6572220">
        <ele>1078.9</ele>
        <time>2019-08-13T17:04:56Z</time>
      </trkpt>
      <trkpt lat="40.4830580" lon="-4.6572590">
        <ele>1079.4</ele>
        <time>2019-08-13T17:04:58Z</time>
      </trkpt>
      <trkpt lat="40.4830850" lon="-4.6572990">
        <ele>1079.8</ele>
        <time>2019-08-13T17:05:00Z</time>
      </trkpt>
      <trkpt lat="40.4831140" lon="-4.6573360">
        <ele>1080.2</ele>
        <time>2019-08-13T17:05:02Z</time>
      </trkpt>
      <trkpt lat="40.4831410" lon="-4.6573760">
        <ele>1080.7</ele>
        <time>2019-08-13T17:05:04Z</time>
      </trkpt>
      <trkpt lat="40.4831670" lon="-4.6574160">
        <ele>1081.1</ele>
        <time>2019-08-13T17:05:06Z</time>
      </trkpt>
      <trkpt lat="40.4831930" lon="-4.6574580">
        <ele>1081.5</ele>
        <time>2019-08-13T17:05:08Z</time>
      </trkpt>
      <trkpt lat="40.4832160" lon="-4.6575030">
        <ele>1081.9</ele>
        <time>2019-08-13T17:05:10Z</time>
      </trkpt>
      <trkpt lat="40.4832390" lon="-4.6575470">
        <ele>1082.3</ele>
        <time>2019-08-13T17:05:12Z</time>
      </trkpt>
      <trkpt lat="40.4832610" lon="-4.6575890">
        <ele>1082.7</ele>
        <time>2019-08-13T17:05:14Z</time>
      </trkpt>
      <trkpt lat="40.4832810" lon="-4.6576340">
        <ele>1083.1</ele>
        <time>2019-08-13T17:05:16Z</time>
      </trkpt>
      <trkpt lat="40.4833000" lon="-4.6576790">
        <ele>1083.4</ele>
        <time>2019-08-13T17:05:18Z</time>
      </trkpt>
      <trkpt lat="40.4833180" lon="-4.6577220">
        <ele>1083.8</ele>
        <time>2019-08-13T17:05:20Z</time>
      </trkpt>
      <trkpt lat="40.4833320" lon="-4.6577640">
        <ele>1084.1</ele>
        <time>2019-08-13T17:05:22Z</time>
      </trkpt>
      <trkpt lat="40.4833450" lon="-4.6578030">
        <ele>1084.4</ele>
        <time>2019-08-13T17:05:24Z</time>
      </trkpt>
      <trkpt lat="40.4833590" lon="-4.6578450">
        <ele>1084.7</ele>
        <time>2019-08-13T17:05:26Z</time>
      </trkpt>
      <trkpt lat="40.4833710" lon="-4.6578930">
        <ele>1085.1</ele>
        <time>2019-08-13T17:05:28Z</time>
      </trkpt>
      <trkpt lat="40.4833800" lon="-4.6579410">
        <ele>1085.4</ele>
        <time>2019-08-13T17:05:30Z</time>
      </trkpt>
      <trkpt lat="40.4833920" lon="-4.6579900">
        <ele>1085.8</ele>
        <time>2019-08-13T17:05:32Z</time>
      </trkpt>
      <trkpt lat="40.4834010" lon="-4.6580410">
        <ele>1086.1</ele>
        <time>2019-08-13T17:05:34Z</time>
      </trkpt>
      <trkpt lat="40.4834080" lon="-4.6580950">
        <ele>1086.5</ele>
        <time>2019-08-13T17:05:36Z</time>
      </trkpt>
      <trkpt lat="40.4834170" lon="-4.6581470">
        <ele>1086.9</ele>
        <time>2019-08-13T17:05:38Z</time>
      </trkpt>
      <trkpt lat="40.4834240" lon="-4.6581990">
        <ele>1087.3</ele>
        <time>2019-08-13T17:05:40Z</time>
      </trkpt>
      <trkpt lat="40.4834290" lon="-4.6582500">
        <ele>1087.6</ele>
        <time>2019-08-13T17:05:42Z</time>
      </trkpt>
      <trkpt lat="40.4834320" lon="-4.6583010">
        <ele>1088.0</ele>
        <time>2019-08-13T17:05:44Z</time>
      </trkpt>
      <trkpt lat="40.4834340" lon="-4.6583510">
        <ele>1088.3</ele>
        <time>2019-08-13T17:05:46Z</time>
      </trkpt>
      <trkpt lat="40.4834340" lon="-4.6583970">
        <ele>1088.6</ele>
        <time>2019-08-13T17:05:48Z</time>
      </trkpt>
      <trkpt lat="40.4834380" lon="-4.6584480">
        <ele>1089.0</ele>
        <time>2019-08-13T17:05:50Z</time>
      </trkpt>
      <trkpt lat="40.4834390" lon="-4.6584980">
        <ele>1089.3</ele>
        <time>2019-08-13T17:05:52Z</time>
      </trkpt>
      <trkpt lat="40.4834400" lon="-4.6585470">
        <ele>1089.5</ele>
        <time>2019-08-13T17:05:54Z</time>
      </trkpt>
      <trkpt lat="40.4834400" lon="-4.6585970">
        <ele>1089.8</ele>
        <time>2019-08-13T17:05:56Z</time>
      </trkpt>
      <trkpt lat="40.4834400" lon="-4.6586470">
        <ele>1090.0</ele>
        <time>2019-08-13T17:05:58Z</time>
      </trkpt>
      <trkpt lat="40.4834420" lon="-4.6586960">
        <ele>1090.3</ele>
        <time>2019-08-13T17:06:00Z</time>
      </trkpt>
      <trkpt lat="40.4834450" lon="-4.6587450">
        <ele>1090.5</ele>
        <time>2019-08-13T17:06:02Z</time>
      </trkpt>
      <trkpt lat="40.4834460" lon="-4.6587950">
        <ele>1090.8</ele>
        <time>2019-08-13T17:06:04Z</time>
      </trkpt>
      <trkpt lat="40.4834460" lon="-4.6588440">
        <ele>1091.1</ele>
        <time>2019-08-13T17:06:06Z</time>
      </trkpt>
      <trkpt lat="40.4834460" lon="-4.6588930">
        <ele>1091.3</ele>
        <time>2019-08-13T17:06:08Z</time>
      </trkpt>
      <trkpt lat="40.4834450" lon="-4.6589430">
        <ele>1091.6</ele>
        <time>2019-08-13T17:06:10Z</time>
      </trkpt>
      <trkpt lat="40.4834440" lon="-4.6589940">
        <ele>1091.9</ele>
        <time>2019-08-13T17:06:12Z</time>
      </trkpt>
      <trkpt lat="40.4834450" lon="-4.6590460">
        <ele>1092.2</ele>
        <time>2019-08-13T17:06:14Z</time>
      </trkpt>
      <trkpt lat="40.4834470" lon="-4.6590970">
        <ele>1092.5</ele>
        <time>2019-08-13T17:06:16Z</time>
      </trkpt>
      <trkpt lat="40.4834490" lon="-4.6591490">
        <ele>1092.8</ele>
        <time>2019-08-13T17:06:18Z</time>
      </trkpt>
      <trkpt lat="40.4834530" lon="-4.6592000">
        <ele>1093.1</ele>
        <time>2019-08-13T17:06:20Z</time>
      </trkpt>
      <trkpt lat="40.4834540" lon="-4.6592520">
        <ele>1093.5</ele>
        <time>2019-08-13T17:06:22Z</time>
      </trkpt>
      <trkpt lat="40.4834570" lon="-4.6593030">
        <ele>1093.8</ele>
        <time>2019-08-13T17:06:24Z</time>
      </trkpt>
      <trkpt lat="40.4834620" lon="-4.6593550">
        <ele>1094.1</ele>
        <time>2019-08-13T17:06:26Z</time>
      </trkpt>
      <trkpt lat="40.4834660" lon="-4.6594080">
        <ele>1094.5</ele>
        <time>2019-08-13T17:06:28Z</time>
      </trkpt>
      <trkpt lat="40.4834700" lon="-4.6594590">
        <ele>1094.8</ele>
        <time>2019-08-13T17:06:30Z</time>
      </trkpt>
      <trkpt lat="40.4834750" lon="-4.6595090">
        <ele>1095.2</ele>
        <time>2019-08-13T17:06:32Z</time>
      </trkpt>
      <trkpt lat="40.4834800" lon="-4.6595550">
        <ele>1095.5</ele>
        <time>2019-08-13T17:06:34Z</time>
      </trkpt>
      <trkpt lat="40.4834850" lon="-4.6596030">
        <ele>1095.8</ele>
        <time>2019-08-13T17:06:36Z</time>
      </trkpt>
      <trkpt lat="40.4834920" lon="-4.6596520">
        <ele>1096.1</ele>
        <time>2019-08-13T17:06:38Z</time>
      </trkpt>
      <trkpt lat="40.4834990" lon="-4.6597020">
        <ele>1096.4</ele>
        <time>2019-08-13T17:06:40Z</time>
      </trkpt>
      <trkpt lat="40.4835050" lon="-4.6597500">
        <ele>1096.7</ele>
        <time>2019-08-13T17:06:42Z</time>
      </trkpt>
      <trkpt lat="40.4835130" lon="-4.6597990">
        <ele>1097.0</ele>
        <time>2019-08-13T17:06:44Z</time>
      </trkpt>
      <trkpt lat="40.4835220" lon="-4.6598460">
        <ele>1097.2</ele>
        <time>2019-08-13T17:06:46Z</time>
      </trkpt>
      <trkpt lat="40.4835320" lon="-4.6598940">
        <ele>1097.5</ele>
        <time>2019-08-13T17:06:48Z</time>
      </trkpt>
      <trkpt lat="40.4835420" lon="-4.6599410">
        <ele>1097.7</ele>
        <time>2019-08-13T17:06:50Z</time>
      </trkpt>
      <trkpt lat="40.4835520" lon="-4.6599870">
        <ele>1097.9</ele>
        <time>2019-08-13T17:06:52Z</time>
      </trkpt>
      <trkpt lat="40.4835610" lon="-4.6600350">
        <ele>1098.2</ele>
        <time>2019-08-13T17:06:54Z</time>
      </trkpt>
      <trkpt lat="40.4835710" lon="-4.6600820">
        <ele>1098.4</ele>
        <time>2019-08-13T17:06:56Z</time>
      </trkpt>
      <trkpt lat="40.4835830" lon="-4.6601280">
        <ele>1098.6</ele>
        <time>2019-08-13T17:06:58Z</time>
      </trkpt>
      <trkpt lat="40.4835940" lon="-4.6601730">
        <ele>1098.8</ele>
        <time>2019-08-13T17:07:00Z</time>
      </trkpt>
      <trkpt lat="40.4836070" lon="-4.6602180">
        <ele>1099.0</ele>
        <time>2019-08-13T17:07:02Z</time>
      </trkpt>
      <trkpt lat="40.4836190" lon="-4.6602660">
        <ele>1099.2</ele>
        <time>2019-08-13T17:07:04Z</time>
      </trkpt>
      <trkpt lat="40.4836320" lon="-4.6603140">
        <ele>1099.5</ele>
        <time>2019-08-13T17:07:06Z</time>
      </trkpt>
      <trkpt lat="40.4836460" lon="-4.6603620">
        <ele>1099.7</ele>
        <time>2019-08-13T17:07:08Z</time>
      </trkpt>
      <trkpt lat="40.4836630" lon="-4.6604100">
        <ele>1099.9</ele>
        <time>2019-08-13T17:07:10Z</time>
      </trkpt>
      <trkpt lat="40.4836790" lon="-4.6604570">
        <ele>1100.1</ele>
        <time>2019-08-13T17:07:12Z</time>
      </trkpt>
      <trkpt lat="40.4836940" lon="-4.6605030">
        <ele>1100.3</ele>
        <time>2019-08-13T17:07:14Z</time>
      </trkpt>
      <trkpt lat="40.4837120" lon="-4.6605500">
        <ele>1100.6</ele>
        <time>2019-08-13T17:07:16Z</time>
      </trkpt>
      <trkpt lat="40.4837300" lon="-4.6605960">
        <ele>1100.8</ele>
        <time>2019-08-13T17:07:18Z</time>
      </trkpt>
      <trkpt lat="40.4837450" lon="-4.6606410">
        <ele>1101.0</ele>
        <time>2019-08-13T17:07:20Z</time>
      </trkpt>
      <trkpt lat="40.4837660" lon="-4.6606840">
        <ele>1101.2</ele>
        <time>2019-08-13T17:07:22Z</time>
      </trkpt>
      <trkpt lat="40.4837850" lon="-4.6607280">
        <ele>1101.5</ele>
        <time>2019-08-13T17:07:24Z</time>
      </trkpt>
      <trkpt lat="40.4838010" lon="-4.6607700">
        <ele>1101.7</ele>
        <time>2019-08-13T17:07:26Z</time>
      </trkpt>
      <trkpt lat="40.4838180" lon="-4.6608060">
        <ele>1101.8</ele>
        <time>2019-08-13T17:07:28Z</time>
      </trkpt>
      <trkpt lat="40.4838360" lon="-4.6608470">
        <ele>1102.0</ele>
        <time>2019-08-13T17:07:30Z</time>
      </trkpt>
      <trkpt lat="40.4838550" lon="-4.6608890">
        <ele>1102.2</ele>
        <time>2019-08-13T17:07:32Z</time>
      </trkpt>
      <trkpt lat="40.4838760" lon="-4.6609310">
        <ele>1102.3</ele>
        <time>2019-08-13T17:07:34Z</time>
      </trkpt>
      <trkpt lat="40.4838960" lon="-4.6609720">
        <ele>1102.5</ele>
        <time>2019-08-13T17:07:36Z</time>
      </trkpt>
      <trkpt lat="40.4839170" lon="-4.6610120">
        <ele>1102.6</ele>
        <time>2019-08-13T17:07:38Z</time>
      </trkpt>
      <trkpt lat="40.4839400" lon="-4.6610530">
        <ele>1102.8</ele>
        <time>2019-08-13T17:07:40Z</time>
      </trkpt>
      <trkpt lat="40.4839640" lon="-4.6610950">
        <ele>1102.9</ele>
        <time>2019-08-13T17:07:42Z</time>
      </trkpt>
      <trkpt lat="40.4839880" lon="-4.6611370">
        <ele>1103.0</ele>
        <time>2019-08-13T17:07:44Z</time>
      </trkpt>
      <trkpt lat="40.4840110" lon="-4.6611780">
        <ele>1103.1</ele>
        <time>2019-08-13T17:07:46Z</time>
      </trkpt>
      <trkpt lat="40.4840340" lon="-4.6612180">
        <ele>1103.2</ele>
        <time>2019-08-13T17:07:48Z</time>
      </trkpt>
      <trkpt lat="40.4840580" lon="-4.6612580">
        <ele>1103.3</ele>
        <time>2019-08-13T17:07:50Z</time>
      </trkpt>
      <trkpt lat="40.4840810" lon="-4.6612980">
        <ele>1103.4</ele>
        <time>2019-08-13T17:07:52Z</time>
      </trkpt>
      <trkpt lat="40.4841070" lon="-4.6613360">
        <ele>1103.5</ele>
        <time>2019-08-13T17:07:54Z</time>
      </trkpt>
      <trkpt lat="40.4841340" lon="-4.6613740">
        <ele>1103.6</ele>
        <time>2019-08-13T17:07:56Z</time>
      </trkpt>
      <trkpt lat="40.4841630" lon="-4.6614110">
        <ele>1103.8</ele>
        <time>2019-08-13T17:07:58Z</time>
      </trkpt>
      <trkpt lat="40.4841910" lon="-4.6614480">
        <ele>1103.9</ele>
        <time>2019-08-13T17:08:00Z</time>
      </trkpt>
      <trkpt lat="40.4842170" lon="-4.6614840">
        <ele>1104.0</ele>
        <time>2019-08-13T17:08:02Z</time>
      </trkpt>
      <trkpt lat="40.4842430" lon="-4.6615220">
        <ele>1104.2</ele>
        <time>2019-08-13T17:08:04Z</time>
      </trkpt>
      <trkpt lat="40.4842710" lon="-4.6615560">
        <ele>1104.3</ele>
        <time>2019-08-13T17:08:06Z</time>
      </trkpt>
      <trkpt lat="40.4842990" lon="-4.6615900">
        <ele>1104.5</ele>
        <time>2019-08-13T17:08:08Z</time>
      </trkpt>
      <trkpt lat="40.4843270" lon="-4.6616220">
        <ele>1104.6</ele>
        <time>2019-08-13T17:08:10Z</time>
      </trkpt>
      <trkpt lat="40.4843560" lon="-4.6616530">
        <ele>1104.8</ele>
        <time>2019-08-13T17:08:12Z</time>
      </trkpt>
      <trkpt lat="40.4843840" lon="-4.6616860">
        <ele>1105.0</ele>
        <time>2019-08-13T17:08:14Z</time>
      </trkpt>
      <trkpt lat="40.4844120" lon="-4.6617180">
        <ele>1105.2</ele>
        <time>2019-08-13T17:08:16Z</time>
      </trkpt>
      <trkpt lat="40.4844380" lon="-4.6617470">
        <ele>1105.4</ele>
        <time>2019-08-13T17:08:18Z</time>
      </trkpt>
      <trkpt lat="40.4844670" lon="-4.6617790">
        <ele>1105.7</ele>
        <time>2019-08-13T17:08:20Z</time>
      </trkpt>
      <trkpt lat="40.4844970" lon="-4.6618100">
        <ele>1105.9</ele>
        <time>2019-08-13T17:08:22Z</time>
      </trkpt>
      <trkpt lat="40.4845270" lon="-4.6618420">
        <ele>1106.1</ele>
        <time>2019-08-13T17:08:24Z</time>
      </trkpt>
      <trkpt lat="40.4845600" lon="-4.6618710">
        <ele>1106.4</ele>
        <time>2019-08-13T17:08:26Z</time>
      </trkpt>
      <trkpt lat="40.4845940" lon="-4.6619010">
        <ele>1106.7</ele>
        <time>2019-08-13T17:08:28Z</time>
      </trkpt>
      <trkpt lat="40.4846260" lon="-4.6619340">
        <ele>1106.9</ele>
        <time>2019-08-13T17:08:30Z</time>
      </trkpt>
      <trkpt lat="40.4846590" lon="-4.6619660">
        <ele>1107.1</ele>
        <time>2019-08-13T17:08:32Z</time>
      </trkpt>
      <trkpt lat="40.4846940" lon="-4.6619940">
        <ele>1107.4</ele>
        <time>2019-08-13T17:08:34Z</time>
      </trkpt>
      <trkpt lat="40.4847260" lon="-4.6620220">
        <ele>1107.6</ele>
        <time>2019-08-13T17:08:36Z</time>
      </trkpt>
      <trkpt lat="40.4847590" lon="-4.6620530">
        <ele>1107.8</ele>
        <time>2019-08-13T17:08:38Z</time>
      </trkpt>
      <trkpt lat="40.4847880" lon="-4.6620750">
        <ele>1108.0</ele>
        <time>2019-08-13T17:08:40Z</time>
      </trkpt>
      <trkpt lat="40.4848190" lon="-4.6621020">
        <ele>1108.2</ele>
        <time>2019-08-13T17:08:42Z</time>
      </trkpt>
      <trkpt lat="40.4848520" lon="-4.6621300">
        <ele>1108.4</ele>
        <time>2019-08-13T17:08:44Z</time>
      </trkpt>
      <trkpt lat="40.4848850" lon="-4.6621580">
        <ele>1108.5</ele>
        <time>2019-08-13T17:08:46Z</time>
      </trkpt>
      <trkpt lat="40.4849170" lon="-4.6621870">
        <ele>1108.7</ele>
        <time>2019-08-13T17:08:48Z</time>
      </trkpt>
      <trkpt lat="40.4849500" lon="-4.6622180">
        <ele>1108.9</ele>
        <time>2019-08-13T17:08:50Z</time>
      </trkpt>
      <trkpt lat="40.4849850" lon="-4.6622460">
        <ele>1109.1</ele>
        <time>2019-08-13T17:08:52Z</time>
      </trkpt>
      <trkpt lat="40.4850190" lon="-4.6622740">
        <ele>1109.3</ele>
        <time>2019-08-13T17:08:54Z</time>
      </trkpt>
      <trkpt lat="40.4850520" lon="-4.6623030">
        <ele>1109.5</ele>
        <time>2019-08-13T17:08:56Z</time>
      </trkpt>
      <trkpt lat="40.4850860" lon="-4.6623310">
        <ele>1109.7</ele>
        <time>2019-08-13T17:08:58Z</time>
      </trkpt>
      <trkpt lat="40.4851190" lon="-4.6623610">
        <ele>1109.9</ele>
        <time>2019-08-13T17:09:00Z</time>
      </trkpt>
      <trkpt lat="40.4851520" lon="-4.6623900">
        <ele>1110.2</ele>
        <time>2019-08-13T17:09:02Z</time>
      </trkpt>
      <trkpt lat="40.4851850" lon="-4.6624200">
        <ele>1110.4</ele>
        <time>2019-08-13T17:09:04Z</time>
      </trkpt>
      <trkpt lat="40.4852160" lon="-4.6624490">
        <ele>1110.6</ele>
        <time>2019-08-13T17:09:06Z</time>
      </trkpt>
      <trkpt lat="40.4852430" lon="-4.6624770">
        <ele>1110.8</ele>
        <time>2019-08-13T17:09:08Z</time>
      </trkpt>
      <trkpt lat="40.4852760" lon="-4.6625080">
        <ele>1111.1</ele>
        <time>2019-08-13T17:09:10Z</time>
      </trkpt>
      <trkpt lat="40.4853100" lon="-4.6625380">
        <ele>1111.3</ele>
        <time>2019-08-13T17:09:12Z</time>
      </trkpt>
      <trkpt lat="40.4853440" lon="-4.6625710">
        <ele>1111.6</ele>
        <time>2019-08-13T17:09:14Z</time>
      </trkpt>
      <trkpt lat="40.4853780" lon="-4.6626050">
        <ele>1111.8</ele>
        <time>2019-08-13T17:09:16Z</time>
      </trkpt>
      <trkpt lat="40.4854100" lon="-4.6626400">
        <ele>1112.1</ele>
        <time>2019-08-13T17:09:18Z</time>
      </trkpt>
      <trkpt lat="40.4854430" lon="-4.6626730">
        <ele>1112.3</ele>
        <time>2019-08-13T17:09:20Z</time>
      </trkpt>
      <trkpt lat="40.4854710" lon="-4.6627060">
        <ele>1112.5</ele>
        <time>2019-08-13T17:09:22Z</time>
      </trkpt>
      <trkpt lat="40.4855000" lon="-4.6627390">
        <ele>1112.8</ele>
        <time>2019-08-13T17:09:24Z</time>
      </trkpt>
      <trkpt lat="40.4855320" lon="-4.6627730">
        <ele>1113.0</ele>
        <time>2019-08-13T17:09:26Z</time>
      </trkpt>
      <trkpt lat="40.4855620" lon="-4.6628100">
        <ele>1113.2</ele>
        <time>2019-08-13T17:09:28Z</time>
      </trkpt>
      <trkpt lat="40.4855920" lon="-4.6628490">
        <ele>1113.5</ele>
        <time>2019-08-13T17:09:30Z</time>
      </trkpt>
      <trkpt lat="40.4856220" lon="-4.6628850">
        <ele>1113.7</ele>
        <time>2019-08-13T17:09:32Z</time>
      </trkpt>
      <trkpt lat="40.4856510" lon="-4.6629240">
        <ele>1113.9</ele>
        <time>2019-08-13T17:09:34Z</time>
      </trkpt>
      <trkpt lat="40.4856750" lon="-4.6629580">
        <ele>1114.1</ele>
        <time>2019-08-13T17:09:36Z</time>
      </trkpt>
      <trkpt lat="40.4857020" lon="-4.6629970">
        <ele>1114.4</ele>
        <time>2019-08-13T17:09:38Z</time>
      </trkpt>
      <trkpt lat="40.4857340" lon="-4.6630370">
        <ele>1114.6</ele>
        <time>2019-08-13T17:09:40Z</time>
      </trkpt>
      <trkpt lat="40.4857640" lon="-4.6630790">
        <ele>1114.9</ele>
        <time>2019-08-13T17:09:42Z</time>
      </trkpt>
      <trkpt lat="40.4857910" lon="-4.6631230">
        <ele>1115.2</ele>
        <time>2019-08-13T17:09:44Z</time>
      </trkpt>
      <trkpt lat="40.4858200" lon="-4.6631680">
        <ele>1115.5</ele>
        <time>2019-08-13T17:09:46Z</time>
      </trkpt>
      <trkpt lat="40.4858480" lon="-4.6632140">
        <ele>1115.8</ele>
        <time>2019-08-13T17:09:48Z</time>
      </trkpt>
      <trkpt lat="40.4858760" lon="-4.6632600">
        <ele>1116.2</ele>
        <time>2019-08-13T17:09:50Z</time>
      </trkpt>
      <trkpt lat="40.4859030" lon="-4.6633070">
        <ele>1116.5</ele>
        <time>2019-08-13T17:09:52Z</time>
      </trkpt>
      <trkpt lat="40.4859310" lon="-4.6633540">
        <ele>1116.9</ele>
        <time>2019-08-13T17:09:54Z</time>
      </trkpt>
      <trkpt lat="40.4859590" lon="-4.6634010">
        <ele>1117.2</ele>
        <time>2019-08-13T17:09:56Z</time>
      </trkpt>
      <trkpt lat="40.4859850" lon="-4.6634490">
        <ele>1117.6</ele>
        <time>2019-08-13T17:09:58Z</time>
      </trkpt>
      <trkpt lat="40.4860090" lon="-4.6634990">
        <ele>1118.0</ele>
        <time>2019-08-13T17:10:00Z</time>
      </trkpt>
      <trkpt lat="40.4860330" lon="-4.6635490">
        <ele>1118.4</ele>
        <time>2019-08-13T17:10:02Z</time>
      </trkpt>
      <trkpt lat="40.4860570" lon="-4.6635970">
        <ele>1118.7</ele>
        <time>2019-08-13T17:10:04Z</time>
      </trkpt>
      <trkpt lat="40.4860790" lon="-4.6636480">
        <ele>1119.1</ele>
        <time>2019-08-13T17:10:06Z</time>
      </trkpt>
      <trkpt lat="40.4861000" lon="-4.6636970">
        <ele>1119.4</ele>
        <time>2019-08-13T17:10:08Z</time>
      </trkpt>
      <trkpt lat="40.4861200" lon="-4.6637470">
        <ele>1119.7</ele>
        <time>2019-08-13T17:10:10Z</time>
      </trkpt>
      <trkpt lat="40.4861420" lon="-4.6637990">
        <ele>1120.0</ele>
        <time>2019-08-13T17:10:12Z</time>
      </trkpt>
      <trkpt lat="40.4861620" lon="-4.6638540">
        <ele>1120.4</ele>
        <time>2019-08-13T17:10:14Z</time>
      </trkpt>
      <trkpt lat="40.4861820" lon="-4.6639070">
        <ele>1120.7</ele>
        <time>2019-08-13T17:10:16Z</time>
      </trkpt>
      <trkpt lat="40.4862020" lon="-4.6639610">
        <ele>1121.0</ele>
        <time>2019-08-13T17:10:18Z</time>
      </trkpt>
      <trkpt lat="40.4862190" lon="-4.6640150">
        <ele>1121.3</ele>
        <time>2019-08-13T17:10:20Z</time>
      </trkpt>
      <trkpt lat="40.4862370" lon="-4.6640710">
        <ele>1121.5</ele>
        <time>2019-08-13T17:10:22Z</time>
      </trkpt>
      <trkpt lat="40.4862540" lon="-4.6641280">
        <ele>1121.8</ele>
        <time>2019-08-13T17:10:24Z</time>
      </trkpt>
      <trkpt lat="40.4862690" lon="-4.6641860">
        <ele>1122.1</ele>
        <time>2019-08-13T17:10:26Z</time>
      </trkpt>
      <trkpt lat="40.4862840" lon="-4.6642430">
        <ele>1122.3</ele>
        <time>2019-08-13T17:10:28Z</time>
      </trkpt>
      <trkpt lat="40.4863010" lon="-4.6642980">
        <ele>1122.6</ele>
        <time>2019-08-13T17:10:30Z</time>
      </trkpt>
      <trkpt lat="40.4863150" lon="-4.6643550">
        <ele>1122.9</ele>
        <time>2019-08-13T17:10:32Z</time>
      </trkpt>
      <trkpt lat="40.4863270" lon="-4.6644030">
        <ele>1123.1</ele>
        <time>2019-08-13T17:10:34Z</time>
      </trkpt>
      <trkpt lat="40.4863390" lon="-4.6644510">
        <ele>1123.3</ele>
        <time>2019-08-13T17:10:36Z</time>
      </trkpt>
      <trkpt lat="40.4863500" lon="-4.6645090">
        <ele>1123.5</ele>
        <time>2019-08-13T17:10:38Z</time>
      </trkpt>
      <trkpt lat="40.4863610" lon="-4.6645660">
        <ele>1123.8</ele>
        <time>2019-08-13T17:10:40Z</time>
      </trkpt>
      <trkpt lat="40.4863710" lon="-4.6646230">
        <ele>1124.0</ele>
        <time>2019-08-13T17:10:42Z</time>
      </trkpt>
      <trkpt lat="40.4863790" lon="-4.6646810">
        <ele>1124.2</ele>
        <time>2019-08-13T17:10:44Z</time>
      </trkpt>
      <trkpt lat="40.4863890" lon="-4.6647380">
        <ele>1124.4</ele>
        <time>2019-08-13T17:10:46Z</time>
      </trkpt>
      <trkpt lat="40.4863980" lon="-4.6647940">
        <ele>1124.7</ele>
        <time>2019-08-13T17:10:48Z</time>
      </trkpt>
      <trkpt lat="40.4864070" lon="-4.6648510">
        <ele>1125.0</ele>
        <time>2019-08-13T17:10:50Z</time>
      </trkpt>
      <trkpt lat="40.4864150" lon="-4.6649110">
        <ele>1125.2</ele>
        <time>2019-08-13T17:10:52Z</time>
      </trkpt>
      <trkpt lat="40.4864210" lon="-4.6649710">
        <ele>1125.4</ele>
        <time>2019-08-13T17:10:54Z</time>
      </trkpt>
      <trkpt lat="40.4864250" lon="-4.6650300">
        <ele>1125.6</ele>
        <time>2019-08-13T17:10:56Z</time>
      </trkpt>
      <trkpt lat="40.4864290" lon="-4.6650900">
        <ele>1125.8</ele>
        <time>2019-08-13T17:10:58Z</time>
      </trkpt>
      <trkpt lat="40.4864340" lon="-4.6651480">
        <ele>1126.0</ele>
        <time>2019-08-13T17:11:00Z</time>
      </trkpt>
      <trkpt lat="40.4864370" lon="-4.6651930">
        <ele>1126.1</ele>
        <time>2019-08-13T17:11:02Z</time>
      </trkpt>
      <trkpt lat="40.4864430" lon="-4.6652470">
        <ele>1126.2</ele>
        <time>2019-08-13T17:11:04Z</time>
      </trkpt>
      <trkpt lat="40.4864460" lon="-4.6653070">
        <ele>1126.4</ele>
        <time>2019-08-13T17:11:06Z</time>
      </trkpt>
      <trkpt lat="40.4864490" lon="-4.6653660">
        <ele>1126.6</ele>
        <time>2019-08-13T17:11:08Z</time>
      </trkpt>
      <trkpt lat="40.4864500" lon="-4.6654250">
        <ele>1126.7</ele>
        <time>2019-08-13T17:11:10Z</time>
      </trkpt>
      <trkpt lat="40.4864520" lon="-4.6654820">
        <ele>1126.9</ele>
        <time>2019-08-13T17:11:12Z</time>
      </trkpt>
      <trkpt lat="40.4864530" lon="-4.6655410">
        <ele>1127.1</ele>
        <time>2019-08-13T17:11:14Z</time>
      </trkpt>
      <trkpt lat="40.4864530" lon="-4.6655970">
        <ele>1127.2</ele>
        <time>2019-08-13T17:11:16Z</time>
      </trkpt>
      <trkpt lat="40.4864550" lon="-4.6656380">
        <ele>1127.4</ele>
        <time>2019-08-13T17:11:18Z</time>
      </trkpt>
      <trkpt lat="40.4864560" lon="-4.6656890">
        <ele>1127.6</ele>
        <time>2019-08-13T17:11:20Z</time>
      </trkpt>
      <trkpt lat="40.4864540" lon="-4.6657460">
        <ele>1127.8</ele>
        <time>2019-08-13T17:11:22Z</time>
      </trkpt>
      <trkpt lat="40.4864520" lon="-4.6658060">
        <ele>1128.0</ele>
        <time>2019-08-13T17:11:24Z</time>
      </trkpt>
      <trkpt lat="40.4864540" lon="-4.6658650">
        <ele>1128.3</ele>
        <time>2019-08-13T17:11:26Z</time>
      </trkpt>
      <trkpt lat="40.4864530" lon="-4.6659250">
        <ele>1128.5</ele>
        <time>2019-08-13T17:11:28Z</time>
      </trkpt>
      <trkpt lat="40.4864530" lon="-4.6659810">
        <ele>1128.8</ele>
        <time>2019-08-13T17:11:30Z</time>
      </trkpt>
      <trkpt lat="40.4864540" lon="-4.6660220">
        <ele>1128.9</ele>
        <time>2019-08-13T17:11:32Z</time>
      </trkpt>
      <trkpt lat="40.4864540" lon="-4.6660690">
        <ele>1129.1</ele>
        <time>2019-08-13T17:11:34Z</time>
      </trkpt>
      <trkpt lat="40.4864540" lon="-4.6661180">
        <ele>1129.3</ele>
        <time>2019-08-13T17:11:36Z</time>
      </trkpt>
      <trkpt lat="40.4864520" lon="-4.6661780">
        <ele>1129.5</ele>
        <time>2019-08-13T17:11:38Z</time>
      </trkpt>
      <trkpt lat="40.4864520" lon="-4.6662380">
        <ele>1129.7</ele>
        <time>2019-08-13T17:11:40Z</time>
      </trkpt>
      <trkpt lat="40.4864550" lon="-4.6662960">
        <ele>1130.0</ele>
        <time>2019-08-13T17:11:42Z</time>
      </trkpt>
      <trkpt lat="40.4864570" lon="-4.6663540">
        <ele>1130.2</ele>
        <time>2019-08-13T17:11:44Z</time>
      </trkpt>
      <trkpt lat="40.4864570" lon="-4.6664130">
        <ele>1130.4</ele>
        <time>2019-08-13T17:11:46Z</time>
      </trkpt>
      <trkpt lat="40.4864580" lon="-4.6664710">
        <ele>1130.6</ele>
        <time>2019-08-13T17:11:48Z</time>
      </trkpt>
      <trkpt lat="40.4864600" lon="-4.6665290">
        <ele>1130.8</ele>
        <time>2019-08-13T17:11:50Z</time>
      </trkpt>
      <trkpt lat="40.4864620" lon="-4.6665880">
        <ele>1131.1</ele>
        <time>2019-08-13T17:11:52Z</time>
      </trkpt>
      <trkpt lat="40.4864650" lon="-4.6666490">
        <ele>1131.4</ele>
        <time>2019-08-13T17:11:54Z</time>
      </trkpt>
      <trkpt lat="40.4864730" lon="-4.6667110">
        <ele>1131.7</ele>
        <time>2019-08-13T17:11:56Z</time>
      </trkpt>
      <trkpt lat="40.4864820" lon="-4.6667720">
        <ele>1132.1</ele>
        <time>2019-08-13T17:11:58Z</time>
      </trkpt>
      <trkpt lat="40.4864930" lon="-4.6668320">
        <ele>1132.4</ele>
        <time>2019-08-13T17:12:00Z</time>
      </trkpt>
      <trkpt lat="40.4865070" lon="-4.6668910">
        <ele>1132.7</ele>
        <time>2019-08-13T17:12:02Z</time>
      </trkpt>
      <trkpt lat="40.4865270" lon="-4.6669480">
        <ele>1133.0</ele>
        <time>2019-08-13T17:12:04Z</time>
      </trkpt>
      <trkpt lat="40.4865440" lon="-4.6670020">
        <ele>1133.4</ele>
        <time>2019-08-13T17:12:06Z</time>
      </trkpt>
      <trkpt lat="40.4865680" lon="-4.6670510">
        <ele>1133.8</ele>
        <time>2019-08-13T17:12:08Z</time>
      </trkpt>
      <trkpt lat="40.4865930" lon="-4.6670970">
        <ele>1134.1</ele>
        <time>2019-08-13T17:12:10Z</time>
      </trkpt>
      <trkpt lat="40.4866230" lon="-4.6671410">
        <ele>1134.5</ele>
        <time>2019-08-13T17:12:12Z</time>
      </trkpt>
      <trkpt lat="40.4866500" lon="-4.6671790">
        <ele>1134.9</ele>
        <time>2019-08-13T17:12:14Z</time>
      </trkpt>
      <trkpt lat="40.4866780" lon="-4.6672130">
        <ele>1135.2</ele>
        <time>2019-08-13T17:12:16Z</time>
      </trkpt>
      <trkpt lat="40.4867080" lon="-4.6672450">
        <ele>1135.4</ele>
        <time>2019-08-13T17:12:18Z</time>
      </trkpt>
      <trkpt lat="40.4867380" lon="-4.6672740">
        <ele>1135.7</ele>
        <time>2019-08-13T17:12:20Z</time>
      </trkpt>
      <trkpt lat="40.4867740" lon="-4.6673000">
        <ele>1135.9</ele>
        <time>2019-08-13T17:12:22Z</time>
      </trkpt>
      <trkpt lat="40.4868110" lon="-4.6673240">
        <ele>1136.2</ele>
        <time>2019-08-13T17:12:24Z</time>
      </trkpt>
      <trkpt lat="40.4868460" lon="-4.6673440">
        <ele>1136.4</ele>
        <time>2019-08-13T17:12:26Z</time>
      </trkpt>
      <trkpt lat="40.4868870" lon="-4.6673610">
        <ele>1136.7</ele>
        <time>2019-08-13T17:12:28Z</time>
      </trkpt>
      <trkpt lat="40.4869300" lon="-4.6673750">
        <ele>1137.1</ele>
        <time>2019-08-13T17:12:30Z</time>
      </trkpt>
      <trkpt lat="40.4869720" lon="-4.6673830">
        <ele>1137.4</ele>
        <time>2019-08-13T17:12:32Z</time>
      </trkpt>
      <trkpt lat="40.4870150" lon="-4.6673880">
        <ele>1137.8</ele>
        <time>2019-08-13T17:12:34Z</time>
      </trkpt>
      <trkpt lat="40.4870580" lon="-4.6673890">
        <ele>1138.0</ele>
        <time>2019-08-13T17:12:36Z</time>
      </trkpt>
      <trkpt lat="40.4871030" lon="-4.6673880">
        <ele>1138.3</ele>
        <time>2019-08-13T17:12:38Z</time>
      </trkpt>
      <trkpt lat="40.4871480" lon="-4.6673810">
        <ele>1138.5</ele>
        <time>2019-08-13T17:12:40Z</time>
      </trkpt>
      <trkpt lat="40.4871940" lon="-4.6673680">
        <ele>1138.7</ele>
        <time>2019-08-13T17:12:42Z</time>
      </trkpt>
      <trkpt lat="40.4872380" lon="-4.6673510">
        <ele>1138.9</ele>
        <time>2019-08-13T17:12:44Z</time>
      </trkpt>
      <trkpt lat="40.4872850" lon="-4.6673280">
        <ele>1139.0</ele>
        <time>2019-08-13T17:12:46Z</time>
      </trkpt>
      <trkpt lat="40.4873350" lon="-4.6673010">
        <ele>1139.2</ele>
        <time>2019-08-13T17:12:48Z</time>
      </trkpt>
      <trkpt lat="40.4873610" lon="-4.6672850">
        <ele>1139.3</ele>
        <time>2019-08-13T17:12:49Z</time>
      </trkpt>
      <trkpt lat="40.4873860" lon="-4.6672680">
        <ele>1139.4</ele>
        <time>2019-08-13T17:12:50Z</time>
      </trkpt>
      <trkpt lat="40.4874110" lon="-4.6672470">
        <ele>1139.5</ele>
        <time>2019-08-13T17:12:51Z</time>
      </trkpt>
      <trkpt lat="40.4874360" lon="-4.6672240">
        <ele>1139.6</ele>
        <time>2019-08-13T17:12:52Z</time>
      </trkpt>
      <trkpt lat="40.4874600" lon="-4.6672010">
        <ele>1139.6</ele>
        <time>2019-08-13T17:12:53Z</time>
      </trkpt>
      <trkpt lat="40.4874850" lon="-4.6671770">
        <ele>1139.7</ele>
        <time>2019-08-13T17:12:54Z</time>
      </trkpt>
      <trkpt lat="40.4875100" lon="-4.6671540">
        <ele>1139.8</ele>
        <time>2019-08-13T17:12:55Z</time>
      </trkpt>
      <trkpt lat="40.4875350" lon="-4.6671310">
        <ele>1139.9</ele>
        <time>2019-08-13T17:12:56Z</time>
      </trkpt>
      <trkpt lat="40.4875590" lon="-4.6671070">
        <ele>1140.0</ele>
        <time>2019-08-13T17:12:57Z</time>
      </trkpt>
      <trkpt lat="40.4875840" lon="-4.6670830">
        <ele>1140.1</ele>
        <time>2019-08-13T17:12:58Z</time>
      </trkpt>
      <trkpt lat="40.4876090" lon="-4.6670600">
        <ele>1140.2</ele>
        <time>2019-08-13T17:12:59Z</time>
      </trkpt>
      <trkpt lat="40.4876330" lon="-4.6670370">
        <ele>1140.3</ele>
        <time>2019-08-13T17:13:00Z</time>
      </trkpt>
      <trkpt lat="40.4876580" lon="-4.6670140">
        <ele>1140.4</ele>
        <time>2019-08-13T17:13:01Z</time>
      </trkpt>
      <trkpt lat="40.4876830" lon="-4.6669900">
        <ele>1140.5</ele>
        <time>2019-08-13T17:13:02Z</time>
      </trkpt>
      <trkpt lat="40.4877070" lon="-4.6669660">
        <ele>1140.6</ele>
        <time>2019-08-13T17:13:03Z</time>
      </trkpt>
      <trkpt lat="40.4877330" lon="-4.6669400">
        <ele>1140.7</ele>
        <time>2019-08-13T17:13:04Z</time>
      </trkpt>
      <trkpt lat="40.4877580" lon="-4.6669150">
        <ele>1140.8</ele>
        <time>2019-08-13T17:13:05Z</time>
      </trkpt>
      <trkpt lat="40.4877840" lon="-4.6668910">
        <ele>1140.9</ele>
        <time>2019-08-13T17:13:06Z</time>
      </trkpt>
      <trkpt lat="40.4878090" lon="-4.6668670">
        <ele>1140.9</ele>
        <time>2019-08-13T17:13:07Z</time>
      </trkpt>
      <trkpt lat="40.4878350" lon="-4.6668430">
        <ele>1141.0</ele>
        <time>2019-08-13T17:13:08Z</time>
      </trkpt>
      <trkpt lat="40.4878610" lon="-4.6668200">
        <ele>1141.1</ele>
        <time>2019-08-13T17:13:09Z</time>
      </trkpt>
      <trkpt lat="40.4878870" lon="-4.6667980">
        <ele>1141.2</ele>
        <time>2019-08-13T17:13:10Z</time>
      </trkpt>
      <trkpt lat="40.4879120" lon="-4.6667760">
        <ele>1141.3</ele>
        <time>2019-08-13T17:13:11Z</time>
      </trkpt>
      <trkpt lat="40.4879360" lon="-4.6667550">
        <ele>1141.3</ele>
        <time>2019-08-13T17:13:12Z</time>
      </trkpt>
      <trkpt lat="40.4879600" lon="-4.6667350">
        <ele>1141.4</ele>
        <time>2019-08-13T17:13:13Z</time>
      </trkpt>
      <trkpt lat="40.4879850" lon="-4.6667150">
        <ele>1141.5</ele>
        <time>2019-08-13T17:13:14Z</time>
      </trkpt>
      <trkpt lat="40.4880090" lon="-4.6666960">
        <ele>1141.5</ele>
        <time>2019-08-13T17:13:15Z</time>
      </trkpt>
      <trkpt lat="40.4880320" lon="-4.6666790">
        <ele>1141.6</ele>
        <time>2019-08-13T17:13:16Z</time>
      </trkpt>
      <trkpt lat="40.4880790" lon="-4.6666450">
        <ele>1141.7</ele>
        <time>2019-08-13T17:13:18Z</time>
      </trkpt>
      <trkpt lat="40.4881270" lon="-4.6666140">
        <ele>1141.8</ele>
        <time>2019-08-13T17:13:20Z</time>
      </trkpt>
      <trkpt lat="40.4881520" lon="-4.6665990">
        <ele>1141.8</ele>
        <time>2019-08-13T17:13:21Z</time>
      </trkpt>
      <trkpt lat="40.4881760" lon="-4.6665830">
        <ele>1141.9</ele>
        <time>2019-08-13T17:13:22Z</time>
      </trkpt>
      <trkpt lat="40.4882010" lon="-4.6665690">
        <ele>1142.1</ele>
        <time>2019-08-13T17:13:23Z</time>
      </trkpt>
      <trkpt lat="40.4882270" lon="-4.6665560">
        <ele>1142.1</ele>
        <time>2019-08-13T17:13:24Z</time>
      </trkpt>
      <trkpt lat="40.4882780" lon="-4.6665360">
        <ele>1142.3</ele>
        <time>2019-08-13T17:13:26Z</time>
      </trkpt>
      <trkpt lat="40.4883320" lon="-4.6665260">
        <ele>1142.5</ele>
        <time>2019-08-13T17:13:28Z</time>
      </trkpt>
      <trkpt lat="40.4883580" lon="-4.6665200">
        <ele>1142.6</ele>
        <time>2019-08-13T17:13:29Z</time>
      </trkpt>
      <trkpt lat="40.4883850" lon="-4.6665150">
        <ele>1142.7</ele>
        <time>2019-08-13T17:13:30Z</time>
      </trkpt>
      <trkpt lat="40.4884380" lon="-4.6665120">
        <ele>1142.8</ele>
        <time>2019-08-13T17:13:32Z</time>
      </trkpt>
      <trkpt lat="40.4884660" lon="-4.6665120">
        <ele>1143.0</ele>
        <time>2019-08-13T17:13:33Z</time>
      </trkpt>
      <trkpt lat="40.4884940" lon="-4.6665120">
        <ele>1143.1</ele>
        <time>2019-08-13T17:13:34Z</time>
      </trkpt>
      <trkpt lat="40.4885220" lon="-4.6665120">
        <ele>1143.2</ele>
        <time>2019-08-13T17:13:35Z</time>
      </trkpt>
      <trkpt lat="40.4885510" lon="-4.6665150">
        <ele>1143.3</ele>
        <time>2019-08-13T17:13:36Z</time>
      </trkpt>
      <trkpt lat="40.4885790" lon="-4.6665180">
        <ele>1143.4</ele>
        <time>2019-08-13T17:13:37Z</time>
      </trkpt>
      <trkpt lat="40.4886080" lon="-4.6665220">
        <ele>1143.5</ele>
        <time>2019-08-13T17:13:38Z</time>
      </trkpt>
      <trkpt lat="40.4886360" lon="-4.6665270">
        <ele>1143.6</ele>
        <time>2019-08-13T17:13:39Z</time>
      </trkpt>
      <trkpt lat="40.4886640" lon="-4.6665340">
        <ele>1143.7</ele>
        <time>2019-08-13T17:13:40Z</time>
      </trkpt>
      <trkpt lat="40.4886910" lon="-4.6665430">
        <ele>1143.8</ele>
        <time>2019-08-13T17:13:41Z</time>
      </trkpt>
      <trkpt lat="40.4887190" lon="-4.6665520">
        <ele>1143.9</ele>
        <time>2019-08-13T17:13:42Z</time>
      </trkpt>
      <trkpt lat="40.4887470" lon="-4.6665630">
        <ele>1144.0</ele>
        <time>2019-08-13T17:13:43Z</time>
      </trkpt>
      <trkpt lat="40.4887750" lon="-4.6665750">
        <ele>1144.2</ele>
        <time>2019-08-13T17:13:44Z</time>
      </trkpt>
      <trkpt lat="40.4888030" lon="-4.6665890">
        <ele>1144.3</ele>
        <time>2019-08-13T17:13:45Z</time>
      </trkpt>
      <trkpt lat="40.4888310" lon="-4.6666040">
        <ele>1144.4</ele>
        <time>2019-08-13T17:13:46Z</time>
      </trkpt>
      <trkpt lat="40.4888580" lon="-4.6666210">
        <ele>1144.6</ele>
        <time>2019-08-13T17:13:47Z</time>
      </trkpt>
      <trkpt lat="40.4888850" lon="-4.6666380">
        <ele>1144.7</ele>
        <time>2019-08-13T17:13:48Z</time>
      </trkpt>
      <trkpt lat="40.4889120" lon="-4.6666570">
        <ele>1144.8</ele>
        <time>2019-08-13T17:13:49Z</time>
      </trkpt>
      <trkpt lat="40.4889380" lon="-4.6666770">
        <ele>1144.9</ele>
        <time>2019-08-13T17:13:50Z</time>
      </trkpt>
      <trkpt lat="40.4889630" lon="-4.6666980">
        <ele>1145.0</ele>
        <time>2019-08-13T17:13:51Z</time>
      </trkpt>
      <trkpt lat="40.4889880" lon="-4.6667200">
        <ele>1145.1</ele>
        <time>2019-08-13T17:13:52Z</time>
      </trkpt>
      <trkpt lat="40.4890120" lon="-4.6667430">
        <ele>1145.2</ele>
        <time>2019-08-13T17:13:53Z</time>
      </trkpt>
      <trkpt lat="40.4890360" lon="-4.6667680">
        <ele>1145.3</ele>
        <time>2019-08-13T17:13:54Z</time>
      </trkpt>
      <trkpt lat="40.4890580" lon="-4.6667920">
        <ele>1145.4</ele>
        <time>2019-08-13T17:13:55Z</time>
      </trkpt>
      <trkpt lat="40.4890800" lon="-4.6668180">
        <ele>1145.6</ele>
        <time>2019-08-13T17:13:56Z</time>
      </trkpt>
      <trkpt lat="40.4891000" lon="-4.6668440">
        <ele>1145.7</ele>
        <time>2019-08-13T17:13:57Z</time>
      </trkpt>
      <trkpt lat="40.4891200" lon="-4.6668700">
        <ele>1145.9</ele>
        <time>2019-08-13T17:13:58Z</time>
      </trkpt>
      <trkpt lat="40.4891400" lon="-4.6668970">
        <ele>1146.0</ele>
        <time>2019-08-13T17:13:59Z</time>
      </trkpt>
      <trkpt lat="40.4891580" lon="-4.6669250">
        <ele>1146.1</ele>
        <time>2019-08-13T17:14:00Z</time>
      </trkpt>
      <trkpt lat="40.4891750" lon="-4.6669530">
        <ele>1146.2</ele>
        <time>2019-08-13T17:14:01Z</time>
      </trkpt>
      <trkpt lat="40.4891910" lon="-4.6669830">
        <ele>1146.3</ele>
        <time>2019-08-13T17:14:02Z</time>
      </trkpt>
      <trkpt lat="40.4892060" lon="-4.6670140">
        <ele>1146.4</ele>
        <time>2019-08-13T17:14:03Z</time>
      </trkpt>
      <trkpt lat="40.4892210" lon="-4.6670440">
        <ele>1146.5</ele>
        <time>2019-08-13T17:14:04Z</time>
      </trkpt>
      <trkpt lat="40.4892360" lon="-4.6670750">
        <ele>1146.6</ele>
        <time>2019-08-13T17:14:05Z</time>
      </trkpt>
      <trkpt lat="40.4892610" lon="-4.6671370">
        <ele>1146.8</ele>
        <time>2019-08-13T17:14:07Z</time>
      </trkpt>
      <trkpt lat="40.4892840" lon="-4.6672000">
        <ele>1146.9</ele>
        <time>2019-08-13T17:14:09Z</time>
      </trkpt>
      <trkpt lat="40.4893030" lon="-4.6672670">
        <ele>1147.1</ele>
        <time>2019-08-13T17:14:11Z</time>
      </trkpt>
      <trkpt lat="40.4893120" lon="-4.6673010">
        <ele>1147.2</ele>
        <time>2019-08-13T17:14:12Z</time>
      </trkpt>
      <trkpt lat="40.4893200" lon="-4.6673360">
        <ele>1147.3</ele>
        <time>2019-08-13T17:14:13Z</time>
      </trkpt>
      <trkpt lat="40.4893280" lon="-4.6673710">
        <ele>1147.4</ele>
        <time>2019-08-13T17:14:14Z</time>
      </trkpt>
      <trkpt lat="40.4893340" lon="-4.6674070">
        <ele>1147.5</ele>
        <time>2019-08-13T17:14:15Z</time>
      </trkpt>
      <trkpt lat="40.4893400" lon="-4.6674420">
        <ele>1147.7</ele>
        <time>2019-08-13T17:14:16Z</time>
      </trkpt>
      <trkpt lat="40.4893440" lon="-4.6674780">
        <ele>1147.8</ele>
        <time>2019-08-13T17:14:17Z</time>
      </trkpt>
      <trkpt lat="40.4893470" lon="-4.6675150">
        <ele>1147.9</ele>
        <time>2019-08-13T17:14:18Z</time>
      </trkpt>
      <trkpt lat="40.4893510" lon="-4.6675510">
        <ele>1148.0</ele>
        <time>2019-08-13T17:14:19Z</time>
      </trkpt>
      <trkpt lat="40.4893540" lon="-4.6675870">
        <ele>1148.1</ele>
        <time>2019-08-13T17:14:20Z</time>
      </trkpt>
      <trkpt lat="40.4893560" lon="-4.6676240">
        <ele>1148.2</ele>
        <time>2019-08-13T17:14:21Z</time>
      </trkpt>
      <trkpt lat="40.4893580" lon="-4.6676610">
        <ele>1148.3</ele>
        <time>2019-08-13T17:14:22Z</time>
      </trkpt>
      <trkpt lat="40.4893600" lon="-4.6676980">
        <ele>1148.4</ele>
        <time>2019-08-13T17:14:23Z</time>
      </trkpt>
      <trkpt lat="40.4893610" lon="-4.6677350">
        <ele>1148.5</ele>
        <time>2019-08-13T17:14:24Z</time>
      </trkpt>
      <trkpt lat="40.4893620" lon="-4.6677720">
        <ele>1148.5</ele>
        <time>2019-08-13T17:14:25Z</time>
      </trkpt>
      <trkpt lat="40.4893620" lon="-4.6678080">
        <ele>1148.6</ele>
        <time>2019-08-13T17:14:26Z</time>
      </trkpt>
      <trkpt lat="40.4893610" lon="-4.6678450">
        <ele>1148.7</ele>
        <time>2019-08-13T17:14:27Z</time>
      </trkpt>
      <trkpt lat="40.4893610" lon="-4.6678810">
        <ele>1148.8</ele>
        <time>2019-08-13T17:14:28Z</time>
      </trkpt>
      <trkpt lat="40.4893600" lon="-4.6679170">
        <ele>1149.0</ele>
        <time>2019-08-13T17:14:29Z</time>
      </trkpt>
      <trkpt lat="40.4893600" lon="-4.6679520">
        <ele>1149.1</ele>
        <time>2019-08-13T17:14:30Z</time>
      </trkpt>
      <trkpt lat="40.4893590" lon="-4.6679880">
        <ele>1149.2</ele>
        <time>2019-08-13T17:14:31Z</time>
      </trkpt>
      <trkpt lat="40.4893590" lon="-4.6680240">
        <ele>1149.3</ele>
        <time>2019-08-13T17:14:32Z</time>
      </trkpt>
      <trkpt lat="40.4893570" lon="-4.6680920">
        <ele>1149.5</ele>
        <time>2019-08-13T17:14:34Z</time>
      </trkpt>
      <trkpt lat="40.4893570" lon="-4.6681590">
        <ele>1149.8</ele>
        <time>2019-08-13T17:14:36Z</time>
      </trkpt>
      <trkpt lat="40.4893570" lon="-4.6682270">
        <ele>1150.0</ele>
        <time>2019-08-13T17:14:38Z</time>
      </trkpt>
      <trkpt lat="40.4893560" lon="-4.6682970">
        <ele>1150.2</ele>
        <time>2019-08-13T17:14:40Z</time>
      </trkpt>
      <trkpt lat="40.4893560" lon="-4.6683320">
        <ele>1150.3</ele>
        <time>2019-08-13T17:14:41Z</time>
      </trkpt>
      <trkpt lat="40.4893560" lon="-4.6683680">
        <ele>1150.4</ele>
        <time>2019-08-13T17:14:42Z</time>
      </trkpt>
      <trkpt lat="40.4893560" lon="-4.6684030">
        <ele>1150.5</ele>
        <time>2019-08-13T17:14:43Z</time>
      </trkpt>
      <trkpt lat="40.4893550" lon="-4.6684720">
        <ele>1150.7</ele>
        <time>2019-08-13T17:14:45Z</time>
      </trkpt>
      <trkpt lat="40.4893560" lon="-4.6685420">
        <ele>1150.9</ele>
        <time>2019-08-13T17:14:47Z</time>
      </trkpt>
      <trkpt lat="40.4893570" lon="-4.6686090">
        <ele>1151.1</ele>
        <time>2019-08-13T17:14:49Z</time>
      </trkpt>
      <trkpt lat="40.4893550" lon="-4.6686740">
        <ele>1151.2</ele>
        <time>2019-08-13T17:14:51Z</time>
      </trkpt>
      <trkpt lat="40.4893550" lon="-4.6687390">
        <ele>1151.5</ele>
        <time>2019-08-13T17:14:53Z</time>
      </trkpt>
      <trkpt lat="40.4893540" lon="-4.6688030">
        <ele>1151.7</ele>
        <time>2019-08-13T17:14:55Z</time>
      </trkpt>
      <trkpt lat="40.4893550" lon="-4.6688670">
        <ele>1151.9</ele>
        <time>2019-08-13T17:14:57Z</time>
      </trkpt>
      <trkpt lat="40.4893540" lon="-4.6689320">
        <ele>1152.1</ele>
        <time>2019-08-13T17:14:59Z</time>
      </trkpt>
      <trkpt lat="40.4893530" lon="-4.6689930">
        <ele>1152.3</ele>
        <time>2019-08-13T17:15:01Z</time>
      </trkpt>
      <trkpt lat="40.4893520" lon="-4.6690500">
        <ele>1152.5</ele>
        <time>2019-08-13T17:15:03Z</time>
      </trkpt>
      <trkpt lat="40.4893500" lon="-4.6691120">
        <ele>1152.7</ele>
        <time>2019-08-13T17:15:05Z</time>
      </trkpt>
      <trkpt lat="40.4893480" lon="-4.6691760">
        <ele>1152.9</ele>
        <time>2019-08-13T17:15:07Z</time>
      </trkpt>
      <trkpt lat="40.4893450" lon="-4.6692360">
        <ele>1153.1</ele>
        <time>2019-08-13T17:15:09Z</time>
      </trkpt>
      <trkpt lat="40.4893380" lon="-4.6692980">
        <ele>1153.3</ele>
        <time>2019-08-13T17:15:11Z</time>
      </trkpt>
      <trkpt lat="40.4893300" lon="-4.6693670">
        <ele>1153.5</ele>
        <time>2019-08-13T17:15:13Z</time>
      </trkpt>
      <trkpt lat="40.4893240" lon="-4.6694020">
        <ele>1153.6</ele>
        <time>2019-08-13T17:15:14Z</time>
      </trkpt>
      <trkpt lat="40.4893180" lon="-4.6694380">
        <ele>1153.8</ele>
        <time>2019-08-13T17:15:15Z</time>
      </trkpt>
      <trkpt lat="40.4893120" lon="-4.6694740">
        <ele>1153.9</ele>
        <time>2019-08-13T17:15:16Z</time>
      </trkpt>
      <trkpt lat="40.4893050" lon="-4.6695100">
        <ele>1154.0</ele>
        <time>2019-08-13T17:15:17Z</time>
      </trkpt>
      <trkpt lat="40.4892990" lon="-4.6695450">
        <ele>1154.1</ele>
        <time>2019-08-13T17:15:18Z</time>
      </trkpt>
      <trkpt lat="40.4892920" lon="-4.6695800">
        <ele>1154.3</ele>
        <time>2019-08-13T17:15:19Z</time>
      </trkpt>
      <trkpt lat="40.4892790" lon="-4.6696420">
        <ele>1154.5</ele>
        <time>2019-08-13T17:15:21Z</time>
      </trkpt>
      <trkpt lat="40.4892670" lon="-4.6697010">
        <ele>1154.7</ele>
        <time>2019-08-13T17:15:23Z</time>
      </trkpt>
      <trkpt lat="40.4892510" lon="-4.6697620">
        <ele>1154.9</ele>
        <time>2019-08-13T17:15:25Z</time>
      </trkpt>
      <trkpt lat="40.4892360" lon="-4.6698250">
        <ele>1155.2</ele>
        <time>2019-08-13T17:15:27Z</time>
      </trkpt>
      <trkpt lat="40.4892200" lon="-4.6698930">
        <ele>1155.4</ele>
        <time>2019-08-13T17:15:29Z</time>
      </trkpt>
      <trkpt lat="40.4892100" lon="-4.6699280">
        <ele>1155.6</ele>
        <time>2019-08-13T17:15:30Z</time>
      </trkpt>
      <trkpt lat="40.4892010" lon="-4.6699620">
        <ele>1155.8</ele>
        <time>2019-08-13T17:15:31Z</time>
      </trkpt>
      <trkpt lat="40.4891870" lon="-4.6700200">
        <ele>1156.1</ele>
        <time>2019-08-13T17:15:33Z</time>
      </trkpt>
      <trkpt lat="40.4891740" lon="-4.6700760">
        <ele>1156.3</ele>
        <time>2019-08-13T17:15:35Z</time>
      </trkpt>
      <trkpt lat="40.4891590" lon="-4.6701320">
        <ele>1156.4</ele>
        <time>2019-08-13T17:15:37Z</time>
      </trkpt>
      <trkpt lat="40.4891450" lon="-4.6701900">
        <ele>1156.6</ele>
        <time>2019-08-13T17:15:39Z</time>
      </trkpt>
      <trkpt lat="40.4891330" lon="-4.6702530">
        <ele>1156.8</ele>
        <time>2019-08-13T17:15:41Z</time>
      </trkpt>
      <trkpt lat="40.4891190" lon="-4.6703180">
        <ele>1157.0</ele>
        <time>2019-08-13T17:15:43Z</time>
      </trkpt>
      <trkpt lat="40.4891090" lon="-4.6703860">
        <ele>1157.2</ele>
        <time>2019-08-13T17:15:45Z</time>
      </trkpt>
      <trkpt lat="40.4891020" lon="-4.6704560">
        <ele>1157.4</ele>
        <time>2019-08-13T17:15:47Z</time>
      </trkpt>
      <trkpt lat="40.4890960" lon="-4.6705260">
        <ele>1157.6</ele>
        <time>2019-08-13T17:15:49Z</time>
      </trkpt>
      <trkpt lat="40.4890920" lon="-4.6705910">
        <ele>1157.8</ele>
        <time>2019-08-13T17:15:51Z</time>
      </trkpt>
      <trkpt lat="40.4890900" lon="-4.6706540">
        <ele>1158.1</ele>
        <time>2019-08-13T17:15:53Z</time>
      </trkpt>
      <trkpt lat="40.4890900" lon="-4.6707150">
        <ele>1158.4</ele>
        <time>2019-08-13T17:15:55Z</time>
      </trkpt>
      <trkpt lat="40.4890930" lon="-4.6707770">
        <ele>1158.7</ele>
        <time>2019-08-13T17:15:57Z</time>
      </trkpt>
      <trkpt lat="40.4890970" lon="-4.6708400">
        <ele>1158.9</ele>
        <time>2019-08-13T17:15:59Z</time>
      </trkpt>
      <trkpt lat="40.4891030" lon="-4.6709030">
        <ele>1159.1</ele>
        <time>2019-08-13T17:16:01Z</time>
      </trkpt>
      <trkpt lat="40.4891120" lon="-4.6709650">
        <ele>1159.4</ele>
        <time>2019-08-13T17:16:03Z</time>
      </trkpt>
      <trkpt lat="40.4891200" lon="-4.6710250">
        <ele>1159.6</ele>
        <time>2019-08-13T17:16:05Z</time>
      </trkpt>
      <trkpt lat="40.4891330" lon="-4.6710840">
        <ele>1159.8</ele>
        <time>2019-08-13T17:16:07Z</time>
      </trkpt>
      <trkpt lat="40.4891490" lon="-4.6711440">
        <ele>1160.1</ele>
        <time>2019-08-13T17:16:09Z</time>
      </trkpt>
      <trkpt lat="40.4891680" lon="-4.6712020">
        <ele>1160.4</ele>
        <time>2019-08-13T17:16:11Z</time>
      </trkpt>
      <trkpt lat="40.4891890" lon="-4.6712610">
        <ele>1160.6</ele>
        <time>2019-08-13T17:16:13Z</time>
      </trkpt>
      <trkpt lat="40.4892070" lon="-4.6713200">
        <ele>1160.8</ele>
        <time>2019-08-13T17:16:15Z</time>
      </trkpt>
      <trkpt lat="40.4892260" lon="-4.6713780">
        <ele>1161.0</ele>
        <time>2019-08-13T17:16:17Z</time>
      </trkpt>
      <trkpt lat="40.4892450" lon="-4.6714350">
        <ele>1161.2</ele>
        <time>2019-08-13T17:16:19Z</time>
      </trkpt>
      <trkpt lat="40.4892640" lon="-4.6714940">
        <ele>1161.6</ele>
        <time>2019-08-13T17:16:21Z</time>
      </trkpt>
      <trkpt lat="40.4892890" lon="-4.6715530">
        <ele>1161.8</ele>
        <time>2019-08-13T17:16:23Z</time>
      </trkpt>
      <trkpt lat="40.4893120" lon="-4.6716120">
        <ele>1162.0</ele>
        <time>2019-08-13T17:16:25Z</time>
      </trkpt>
      <trkpt lat="40.4893330" lon="-4.6716700">
        <ele>1162.2</ele>
        <time>2019-08-13T17:16:27Z</time>
      </trkpt>
      <trkpt lat="40.4893560" lon="-4.6717270">
        <ele>1162.4</ele>
        <time>2019-08-13T17:16:29Z</time>
      </trkpt>
      <trkpt lat="40.4893800" lon="-4.6717850">
        <ele>1162.6</ele>
        <time>2019-08-13T17:16:31Z</time>
      </trkpt>
      <trkpt lat="40.4894030" lon="-4.6718440">
        <ele>1162.8</ele>
        <time>2019-08-13T17:16:33Z</time>
      </trkpt>
      <trkpt lat="40.4894250" lon="-4.6719010">
        <ele>1163.0</ele>
        <time>2019-08-13T17:16:35Z</time>
      </trkpt>
      <trkpt lat="40.4894480" lon="-4.6719570">
        <ele>1163.2</ele>
        <time>2019-08-13T17:16:37Z</time>
      </trkpt>
      <trkpt lat="40.4894710" lon="-4.6720130">
        <ele>1163.5</ele>
        <time>2019-08-13T17:16:39Z</time>
      </trkpt>
      <trkpt lat="40.4894970" lon="-4.6720680">
        <ele>1163.7</ele>
        <time>2019-08-13T17:16:41Z</time>
      </trkpt>
      <trkpt lat="40.4895250" lon="-4.6721190">
        <ele>1163.9</ele>
        <time>2019-08-13T17:16:43Z</time>
      </trkpt>
      <trkpt lat="40.4895510" lon="-4.6721700">
        <ele>1164.1</ele>
        <time>2019-08-13T17:16:45Z</time>
      </trkpt>
      <trkpt lat="40.4895740" lon="-4.6722170">
        <ele>1164.2</ele>
        <time>2019-08-13T17:16:47Z</time>
      </trkpt>
      <trkpt lat="40.4896030" lon="-4.6722620">
        <ele>1164.5</ele>
        <time>2019-08-13T17:16:49Z</time>
      </trkpt>
      <trkpt lat="40.4896320" lon="-4.6723090">
        <ele>1164.8</ele>
        <time>2019-08-13T17:16:51Z</time>
      </trkpt>
      <trkpt lat="40.4896640" lon="-4.6723540">
        <ele>1165.1</ele>
        <time>2019-08-13T17:16:53Z</time>
      </trkpt>
      <trkpt lat="40.4897010" lon="-4.6723940">
        <ele>1165.3</ele>
        <time>2019-08-13T17:16:55Z</time>
      </trkpt>
      <trkpt lat="40.4897380" lon="-4.6724350">
        <ele>1165.6</ele>
        <time>2019-08-13T17:16:57Z</time>
      </trkpt>
      <trkpt lat="40.4897740" lon="-4.6724730">
        <ele>1166.0</ele>
        <time>2019-08-13T17:16:59Z</time>
      </trkpt>
      <trkpt lat="40.4898120" lon="-4.6725060">
        <ele>1166.3</ele>
        <time>2019-08-13T17:17:01Z</time>
      </trkpt>
      <trkpt lat="40.4898520" lon="-4.6725400">
        <ele>1166.6</ele>
        <time>2019-08-13T17:17:03Z</time>
      </trkpt>
      <trkpt lat="40.4898930" lon="-4.6725710">
        <ele>1166.9</ele>
        <time>2019-08-13T17:17:05Z</time>
      </trkpt>
      <trkpt lat="40.4899360" lon="-4.6725990">
        <ele>1167.1</ele>
        <time>2019-08-13T17:17:07Z</time>
      </trkpt>
      <trkpt lat="40.4899750" lon="-4.6726240">
        <ele>1167.3</ele>
        <time>2019-08-13T17:17:09Z</time>
      </trkpt>
      <trkpt lat="40.4900140" lon="-4.6726450">
        <ele>1167.4</ele>
        <time>2019-08-13T17:17:11Z</time>
      </trkpt>
      <trkpt lat="40.4900550" lon="-4.6726660">
        <ele>1167.6</ele>
        <time>2019-08-13T17:17:13Z</time>
      </trkpt>
      <trkpt lat="40.4900910" lon="-4.6726810">
        <ele>1167.8</ele>
        <time>2019-08-13T17:17:15Z</time>
      </trkpt>
      <trkpt lat="40.4901340" lon="-4.6726950">
        <ele>1168.1</ele>
        <time>2019-08-13T17:17:17Z</time>
      </trkpt>
      <trkpt lat="40.4901850" lon="-4.6727090">
        <ele>1168.4</ele>
        <time>2019-08-13T17:17:19Z</time>
      </trkpt>
      <trkpt lat="40.4902310" lon="-4.6727190">
        <ele>1168.6</ele>
        <time>2019-08-13T17:17:21Z</time>
      </trkpt>
      <trkpt lat="40.4902800" lon="-4.6727290">
        <ele>1168.9</ele>
        <time>2019-08-13T17:17:23Z</time>
      </trkpt>
      <trkpt lat="40.4903280" lon="-4.6727370">
        <ele>1169.1</ele>
        <time>2019-08-13T17:17:25Z</time>
      </trkpt>
      <trkpt lat="40.4903770" lon="-4.6727400">
        <ele>1169.3</ele>
        <time>2019-08-13T17:17:27Z</time>
      </trkpt>
      <trkpt lat="40.4904270" lon="-4.6727370">
        <ele>1169.5</ele>
        <time>2019-08-13T17:17:29Z</time>
      </trkpt>
      <trkpt lat="40.4904770" lon="-4.6727310">
        <ele>1169.7</ele>
        <time>2019-08-13T17:17:31Z</time>
      </trkpt>
      <trkpt lat="40.4905260" lon="-4.6727230">
        <ele>1169.8</ele>
        <time>2019-08-13T17:17:33Z</time>
      </trkpt>
      <trkpt lat="40.4905740" lon="-4.6727120">
        <ele>1170.0</ele>
        <time>2019-08-13T17:17:35Z</time>
      </trkpt>
      <trkpt lat="40.4906200" lon="-4.6726970">
        <ele>1170.2</ele>
        <time>2019-08-13T17:17:37Z</time>
      </trkpt>
      <trkpt lat="40.4906660" lon="-4.6726810">
        <ele>1170.3</ele>
        <time>2019-08-13T17:17:39Z</time>
      </trkpt>
      <trkpt lat="40.4907140" lon="-4.6726640">
        <ele>1170.5</ele>
        <time>2019-08-13T17:17:41Z</time>
      </trkpt>
      <trkpt lat="40.4907620" lon="-4.6726440">
        <ele>1170.6</ele>
        <time>2019-08-13T17:17:43Z</time>
      </trkpt>
      <trkpt lat="40.4908090" lon="-4.6726210">
        <ele>1170.8</ele>
        <time>2019-08-13T17:17:45Z</time>
      </trkpt>
      <trkpt lat="40.4908560" lon="-4.6725950">
        <ele>1171.1</ele>
        <time>2019-08-13T17:17:47Z</time>
      </trkpt>
      <trkpt lat="40.4909040" lon="-4.6725730">
        <ele>1171.3</ele>
        <time>2019-08-13T17:17:49Z</time>
      </trkpt>
      <trkpt lat="40.4909490" lon="-4.6725500">
        <ele>1171.5</ele>
        <time>2019-08-13T17:17:51Z</time>
      </trkpt>
      <trkpt lat="40.4909940" lon="-4.6725190">
        <ele>1171.6</ele>
        <time>2019-08-13T17:17:53Z</time>
      </trkpt>
      <trkpt lat="40.4910410" lon="-4.6724870">
        <ele>1171.8</ele>
        <time>2019-08-13T17:17:55Z</time>
      </trkpt>
      <trkpt lat="40.4910890" lon="-4.6724590">
        <ele>1171.9</ele>
        <time>2019-08-13T17:17:57Z</time>
      </trkpt>
      <trkpt lat="40.4911370" lon="-4.6724300">
        <ele>1172.1</ele>
        <time>2019-08-13T17:17:59Z</time>
      </trkpt>
      <trkpt lat="40.4911840" lon="-4.6724020">
        <ele>1172.2</ele>
        <time>2019-08-13T17:18:01Z</time>
      </trkpt>
      <trkpt lat="40.4912310" lon="-4.6723740">
        <ele>1172.4</ele>
        <time>2019-08-13T17:18:03Z</time>
      </trkpt>
      <trkpt lat="40.4912800" lon="-4.6723490">
        <ele>1172.6</ele>
        <time>2019-08-13T17:18:05Z</time>
      </trkpt>
      <trkpt lat="40.4913270" lon="-4.6723250">
        <ele>1172.7</ele>
        <time>2019-08-13T17:18:07Z</time>
      </trkpt>
      <trkpt lat="40.4913640" lon="-4.6723030">
        <ele>1172.8</ele>
        <time>2019-08-13T17:18:09Z</time>
      </trkpt>
      <trkpt lat="40.4914090" lon="-4.6722840">
        <ele>1172.9</ele>
        <time>2019-08-13T17:18:11Z</time>
      </trkpt>
      <trkpt lat="40.4914600" lon="-4.6722590">
        <ele>1173.1</ele>
        <time>2019-08-13T17:18:13Z</time>
      </trkpt>
      <trkpt lat="40.4914860" lon="-4.6722460">
        <ele>1173.1</ele>
        <time>2019-08-13T17:18:14Z</time>
      </trkpt>
      <trkpt lat="40.4915130" lon="-4.6722330">
        <ele>1173.2</ele>
        <time>2019-08-13T17:18:15Z</time>
      </trkpt>
      <trkpt lat="40.4915390" lon="-4.6722230">
        <ele>1173.3</ele>
        <time>2019-08-13T17:18:16Z</time>
      </trkpt>
      <trkpt lat="40.4915660" lon="-4.6722150">
        <ele>1173.4</ele>
        <time>2019-08-13T17:18:17Z</time>
      </trkpt>
      <trkpt lat="40.4915930" lon="-4.6722090">
        <ele>1173.5</ele>
        <time>2019-08-13T17:18:18Z</time>
      </trkpt>
      <trkpt lat="40.4916200" lon="-4.6722030">
        <ele>1173.6</ele>
        <time>2019-08-13T17:18:19Z</time>
      </trkpt>
      <trkpt lat="40.4916480" lon="-4.6721940">
        <ele>1173.7</ele>
        <time>2019-08-13T17:18:20Z</time>
      </trkpt>
      <trkpt lat="40.4916760" lon="-4.6721870">
        <ele>1173.8</ele>
        <time>2019-08-13T17:18:21Z</time>
      </trkpt>
      <trkpt lat="40.4917060" lon="-4.6721800">
        <ele>1173.9</ele>
        <time>2019-08-13T17:18:22Z</time>
      </trkpt>
      <trkpt lat="40.4917350" lon="-4.6721740">
        <ele>1174.0</ele>
        <time>2019-08-13T17:18:23Z</time>
      </trkpt>
      <trkpt lat="40.4917660" lon="-4.6721710">
        <ele>1174.1</ele>
        <time>2019-08-13T17:18:24Z</time>
      </trkpt>
      <trkpt lat="40.4917960" lon="-4.6721690">
        <ele>1174.3</ele>
        <time>2019-08-13T17:18:25Z</time>
      </trkpt>
      <trkpt lat="40.4918250" lon="-4.6721690">
        <ele>1174.3</ele>
        <time>2019-08-13T17:18:26Z</time>
      </trkpt>
      <trkpt lat="40.4918550" lon="-4.6721690">
        <ele>1174.4</ele>
        <time>2019-08-13T17:18:27Z</time>
      </trkpt>
      <trkpt lat="40.4918840" lon="-4.6721710">
        <ele>1174.5</ele>
        <time>2019-08-13T17:18:28Z</time>
      </trkpt>
      <trkpt lat="40.4919130" lon="-4.6721730">
        <ele>1174.6</ele>
        <time>2019-08-13T17:18:29Z</time>
      </trkpt>
      <trkpt lat="40.4919420" lon="-4.6721760">
        <ele>1174.7</ele>
        <time>2019-08-13T17:18:30Z</time>
      </trkpt>
      <trkpt lat="40.4919710" lon="-4.6721790">
        <ele>1174.8</ele>
        <time>2019-08-13T17:18:31Z</time>
      </trkpt>
      <trkpt lat="40.4920000" lon="-4.6721840">
        <ele>1174.9</ele>
        <time>2019-08-13T17:18:32Z</time>
      </trkpt>
      <trkpt lat="40.4920280" lon="-4.6721900">
        <ele>1175.0</ele>
        <time>2019-08-13T17:18:33Z</time>
      </trkpt>
      <trkpt lat="40.4920550" lon="-4.6721970">
        <ele>1175.1</ele>
        <time>2019-08-13T17:18:34Z</time>
      </trkpt>
      <trkpt lat="40.4920830" lon="-4.6722060">
        <ele>1175.2</ele>
        <time>2019-08-13T17:18:35Z</time>
      </trkpt>
      <trkpt lat="40.4921110" lon="-4.6722150">
        <ele>1175.3</ele>
        <time>2019-08-13T17:18:36Z</time>
      </trkpt>
      <trkpt lat="40.4921390" lon="-4.6722240">
        <ele>1175.4</ele>
        <time>2019-08-13T17:18:37Z</time>
      </trkpt>
      <trkpt lat="40.4921670" lon="-4.6722350">
        <ele>1175.5</ele>
        <time>2019-08-13T17:18:38Z</time>
      </trkpt>
      <trkpt lat="40.4921940" lon="-4.6722470">
        <ele>1175.6</ele>
        <time>2019-08-13T17:18:39Z</time>
      </trkpt>
      <trkpt lat="40.4922220" lon="-4.6722600">
        <ele>1175.7</ele>
        <time>2019-08-13T17:18:40Z</time>
      </trkpt>
      <trkpt lat="40.4922500" lon="-4.6722730">
        <ele>1175.8</ele>
        <time>2019-08-13T17:18:41Z</time>
      </trkpt>
      <trkpt lat="40.4922790" lon="-4.6722870">
        <ele>1176.0</ele>
        <time>2019-08-13T17:18:42Z</time>
      </trkpt>
      <trkpt lat="40.4923070" lon="-4.6723020">
        <ele>1176.1</ele>
        <time>2019-08-13T17:18:43Z</time>
      </trkpt>
      <trkpt lat="40.4923350" lon="-4.6723180">
        <ele>1176.2</ele>
        <time>2019-08-13T17:18:44Z</time>
      </trkpt>
      <trkpt lat="40.4923620" lon="-4.6723360">
        <ele>1176.4</ele>
        <time>2019-08-13T17:18:45Z</time>
      </trkpt>
      <trkpt lat="40.4923890" lon="-4.6723550">
        <ele>1176.5</ele>
        <time>2019-08-13T17:18:46Z</time>
      </trkpt>
      <trkpt lat="40.4924150" lon="-4.6723750">
        <ele>1176.7</ele>
        <time>2019-08-13T17:18:47Z</time>
      </trkpt>
      <trkpt lat="40.4924400" lon="-4.6723950">
        <ele>1176.9</ele>
        <time>2019-08-13T17:18:48Z</time>
      </trkpt>
      <trkpt lat="40.4924640" lon="-4.6724150">
        <ele>1177.0</ele>
        <time>2019-08-13T17:18:49Z</time>
      </trkpt>
      <trkpt lat="40.4924880" lon="-4.6724360">
        <ele>1177.1</ele>
        <time>2019-08-13T17:18:50Z</time>
      </trkpt>
      <trkpt lat="40.4925120" lon="-4.6724580">
        <ele>1177.2</ele>
        <time>2019-08-13T17:18:51Z</time>
      </trkpt>
      <trkpt lat="40.4925340" lon="-4.6724810">
        <ele>1177.3</ele>
        <time>2019-08-13T17:18:52Z</time>
      </trkpt>
      <trkpt lat="40.4925560" lon="-4.6725040">
        <ele>1177.4</ele>
        <time>2019-08-13T17:18:53Z</time>
      </trkpt>
      <trkpt lat="40.4925770" lon="-4.6725270">
        <ele>1177.4</ele>
        <time>2019-08-13T17:18:54Z</time>
      </trkpt>
      <trkpt lat="40.4925990" lon="-4.6725520">
        <ele>1177.5</ele>
        <time>2019-08-13T17:18:55Z</time>
      </trkpt>
      <trkpt lat="40.4926200" lon="-4.6725780">
        <ele>1177.7</ele>
        <time>2019-08-13T17:18:56Z</time>
      </trkpt>
      <trkpt lat="40.4926400" lon="-4.6726050">
        <ele>1177.8</ele>
        <time>2019-08-13T17:18:57Z</time>
      </trkpt>
      <trkpt lat="40.4926590" lon="-4.6726330">
        <ele>1177.9</ele>
        <time>2019-08-13T17:18:58Z</time>
      </trkpt>
      <trkpt lat="40.4926780" lon="-4.6726620">
        <ele>1178.1</ele>
        <time>2019-08-13T17:18:59Z</time>
      </trkpt>
      <trkpt lat="40.4926960" lon="-4.6726910">
        <ele>1178.2</ele>
        <time>2019-08-13T17:19:00Z</time>
      </trkpt>
      <trkpt lat="40.4927140" lon="-4.6727200">
        <ele>1178.3</ele>
        <time>2019-08-13T17:19:01Z</time>
      </trkpt>
      <trkpt lat="40.4927320" lon="-4.6727500">
        <ele>1178.5</ele>
        <time>2019-08-13T17:19:02Z</time>
      </trkpt>
      <trkpt lat="40.4927490" lon="-4.6727810">
        <ele>1178.6</ele>
        <time>2019-08-13T17:19:03Z</time>
      </trkpt>
      <trkpt lat="40.4927660" lon="-4.6728120">
        <ele>1178.7</ele>
        <time>2019-08-13T17:19:04Z</time>
      </trkpt>
      <trkpt lat="40.4927830" lon="-4.6728440">
        <ele>1178.8</ele>
        <time>2019-08-13T17:19:05Z</time>
      </trkpt>
      <trkpt lat="40.4927990" lon="-4.6728770">
        <ele>1179.0</ele>
        <time>2019-08-13T17:19:06Z</time>
      </trkpt>
      <trkpt lat="40.4928150" lon="-4.6729100">
        <ele>1179.1</ele>
        <time>2019-08-13T17:19:07Z</time>
      </trkpt>
      <trkpt lat="40.4928300" lon="-4.6729430">
        <ele>1179.3</ele>
        <time>2019-08-13T17:19:08Z</time>
      </trkpt>
      <trkpt lat="40.4928440" lon="-4.6729780">
        <ele>1179.4</ele>
        <time>2019-08-13T17:19:09Z</time>
      </trkpt>
      <trkpt lat="40.4928590" lon="-4.6730130">
        <ele>1179.5</ele>
        <time>2019-08-13T17:19:10Z</time>
      </trkpt>
      <trkpt lat="40.4928730" lon="-4.6730480">
        <ele>1179.6</ele>
        <time>2019-08-13T17:19:11Z</time>
      </trkpt>
      <trkpt lat="40.4928870" lon="-4.6730820">
        <ele>1179.7</ele>
        <time>2019-08-13T17:19:12Z</time>
      </trkpt>
      <trkpt lat="40.4929000" lon="-4.6731180">
        <ele>1179.8</ele>
        <time>2019-08-13T17:19:13Z</time>
      </trkpt>
      <trkpt lat="40.4929120" lon="-4.6731550">
        <ele>1179.9</ele>
        <time>2019-08-13T17:19:14Z</time>
      </trkpt>
      <trkpt lat="40.4929230" lon="-4.6731920">
        <ele>1180.0</ele>
        <time>2019-08-13T17:19:15Z</time>
      </trkpt>
      <trkpt lat="40.4929350" lon="-4.6732290">
        <ele>1180.1</ele>
        <time>2019-08-13T17:19:16Z</time>
      </trkpt>
      <trkpt lat="40.4929460" lon="-4.6732670">
        <ele>1180.2</ele>
        <time>2019-08-13T17:19:17Z</time>
      </trkpt>
      <trkpt lat="40.4929580" lon="-4.6733050">
        <ele>1180.3</ele>
        <time>2019-08-13T17:19:18Z</time>
      </trkpt>
      <trkpt lat="40.4929700" lon="-4.6733430">
        <ele>1180.4</ele>
        <time>2019-08-13T17:19:19Z</time>
      </trkpt>
      <trkpt lat="40.4929820" lon="-4.6733790">
        <ele>1180.5</ele>
        <time>2019-08-13T17:19:20Z</time>
      </trkpt>
      <trkpt lat="40.4929940" lon="-4.6734110">
        <ele>1180.6</ele>
        <time>2019-08-13T17:19:21Z</time>
      </trkpt>
      <trkpt lat="40.4930210" lon="-4.6734710">
        <ele>1180.7</ele>
        <time>2019-08-13T17:19:23Z</time>
      </trkpt>
      <trkpt lat="40.4930340" lon="-4.6735030">
        <ele>1180.8</ele>
        <time>2019-08-13T17:19:24Z</time>
      </trkpt>
      <trkpt lat="40.4930470" lon="-4.6735360">
        <ele>1180.9</ele>
        <time>2019-08-13T17:19:25Z</time>
      </trkpt>
      <trkpt lat="40.4930580" lon="-4.6735700">
        <ele>1181.0</ele>
        <time>2019-08-13T17:19:26Z</time>
      </trkpt>
      <trkpt lat="40.4930690" lon="-4.6736030">
        <ele>1181.0</ele>
        <time>2019-08-13T17:19:27Z</time>
      </trkpt>
      <trkpt lat="40.4930890" lon="-4.6736640">
        <ele>1181.2</ele>
        <time>2019-08-13T17:19:29Z</time>
      </trkpt>
      <trkpt lat="40.4931080" lon="-4.6737270">
        <ele>1181.3</ele>
        <time>2019-08-13T17:19:31Z</time>
      </trkpt>
      <trkpt lat="40.4931270" lon="-4.6737920">
        <ele>1181.5</ele>
        <time>2019-08-13T17:19:33Z</time>
      </trkpt>
      <trkpt lat="40.4931390" lon="-4.6738260">
        <ele>1181.5</ele>
        <time>2019-08-13T17:19:34Z</time>
      </trkpt>
      <trkpt lat="40.4931500" lon="-4.6738610">
        <ele>1181.6</ele>
        <time>2019-08-13T17:19:35Z</time>
      </trkpt>
      <trkpt lat="40.4931690" lon="-4.6739230">
        <ele>1181.8</ele>
        <time>2019-08-13T17:19:37Z</time>
      </trkpt>
      <trkpt lat="40.4931860" lon="-4.6739840">
        <ele>1181.9</ele>
        <time>2019-08-13T17:19:39Z</time>
      </trkpt>
      <trkpt lat="40.4932070" lon="-4.6740470">
        <ele>1182.0</ele>
        <time>2019-08-13T17:19:41Z</time>
      </trkpt>
      <trkpt lat="40.4932280" lon="-4.6741080">
        <ele>1182.2</ele>
        <time>2019-08-13T17:19:43Z</time>
      </trkpt>
      <trkpt lat="40.4932460" lon="-4.6741590">
        <ele>1182.3</ele>
        <time>2019-08-13T17:19:45Z</time>
      </trkpt>
      <trkpt lat="40.4932620" lon="-4.6742180">
        <ele>1182.4</ele>
        <time>2019-08-13T17:19:47Z</time>
      </trkpt>
      <trkpt lat="40.4932830" lon="-4.6742820">
        <ele>1182.5</ele>
        <time>2019-08-13T17:19:49Z</time>
      </trkpt>
      <trkpt lat="40.4932940" lon="-4.6743160">
        <ele>1182.6</ele>
        <time>2019-08-13T17:19:50Z</time>
      </trkpt>
      <trkpt lat="40.4933050" lon="-4.6743500">
        <ele>1182.7</ele>
        <time>2019-08-13T17:19:51Z</time>
      </trkpt>
      <trkpt lat="40.4933160" lon="-4.6743840">
        <ele>1182.8</ele>
        <time>2019-08-13T17:19:52Z</time>
      </trkpt>
      <trkpt lat="40.4933270" lon="-4.6744170">
        <ele>1182.8</ele>
        <time>2019-08-13T17:19:53Z</time>
      </trkpt>
      <trkpt lat="40.4933390" lon="-4.6744500">
        <ele>1182.9</ele>
        <time>2019-08-13T17:19:54Z</time>
      </trkpt>
      <trkpt lat="40.4933520" lon="-4.6744830">
        <ele>1183.0</ele>
        <time>2019-08-13T17:19:55Z</time>
      </trkpt>
      <trkpt lat="40.4933650" lon="-4.6745170">
        <ele>1183.1</ele>
        <time>2019-08-13T17:19:56Z</time>
      </trkpt>
      <trkpt lat="40.4933780" lon="-4.6745480">
        <ele>1183.1</ele>
        <time>2019-08-13T17:19:57Z</time>
      </trkpt>
      <trkpt lat="40.4934000" lon="-4.6745990">
        <ele>1183.2</ele>
        <time>2019-08-13T17:19:59Z</time>
      </trkpt>
      <trkpt lat="40.4934190" lon="-4.6746350">
        <ele>1183.3</ele>
        <time>2019-08-13T17:20:01Z</time>
      </trkpt>
      <trkpt lat="40.4934530" lon="-4.6747130">
        <ele>1183.5</ele>
        <time>2019-08-13T17:21:12Z</time>
      </trkpt>
      <trkpt lat="40.4934700" lon="-4.6747470">
        <ele>1183.6</ele>
        <time>2019-08-13T17:21:14Z</time>
      </trkpt>
      <trkpt lat="40.4934940" lon="-4.6747830">
        <ele>1183.7</ele>
        <time>2019-08-13T17:21:16Z</time>
      </trkpt>
      <trkpt lat="40.4935200" lon="-4.6748260">
        <ele>1183.8</ele>
        <time>2019-08-13T17:21:18Z</time>
      </trkpt>
      <trkpt lat="40.4935520" lon="-4.6748680">
        <ele>1183.9</ele>
        <time>2019-08-13T17:21:20Z</time>
      </trkpt>
      <trkpt lat="40.4935860" lon="-4.6749060">
        <ele>1184.0</ele>
        <time>2019-08-13T17:21:22Z</time>
      </trkpt>
      <trkpt lat="40.4936200" lon="-4.6749460">
        <ele>1184.1</ele>
        <time>2019-08-13T17:21:24Z</time>
      </trkpt>
      <trkpt lat="40.4936550" lon="-4.6749860">
        <ele>1184.3</ele>
        <time>2019-08-13T17:21:26Z</time>
      </trkpt>
      <trkpt lat="40.4936880" lon="-4.6750260">
        <ele>1184.5</ele>
        <time>2019-08-13T17:21:28Z</time>
      </trkpt>
      <trkpt lat="40.4937240" lon="-4.6750660">
        <ele>1184.7</ele>
        <time>2019-08-13T17:21:30Z</time>
      </trkpt>
      <trkpt lat="40.4937580" lon="-4.6751090">
        <ele>1184.8</ele>
        <time>2019-08-13T17:21:32Z</time>
      </trkpt>
      <trkpt lat="40.4937970" lon="-4.6751480">
        <ele>1185.0</ele>
        <time>2019-08-13T17:21:34Z</time>
      </trkpt>
      <trkpt lat="40.4938360" lon="-4.6751840">
        <ele>1185.1</ele>
        <time>2019-08-13T17:21:36Z</time>
      </trkpt>
      <trkpt lat="40.4938770" lon="-4.6752190">
        <ele>1185.2</ele>
        <time>2019-08-13T17:21:38Z</time>
      </trkpt>
      <trkpt lat="40.4939210" lon="-4.6752570">
        <ele>1185.4</ele>
        <time>2019-08-13T17:21:40Z</time>
      </trkpt>
      <trkpt lat="40.4939640" lon="-4.6752930">
        <ele>1185.5</ele>
        <time>2019-08-13T17:21:42Z</time>
      </trkpt>
      <trkpt lat="40.4940080" lon="-4.6753290">
        <ele>1185.6</ele>
        <time>2019-08-13T17:21:44Z</time>
      </trkpt>
      <trkpt lat="40.4940510" lon="-4.6753660">
        <ele>1185.8</ele>
        <time>2019-08-13T17:21:46Z</time>
      </trkpt>
      <trkpt lat="40.4940920" lon="-4.6754020">
        <ele>1186.0</ele>
        <time>2019-08-13T17:21:48Z</time>
      </trkpt>
      <trkpt lat="40.4941360" lon="-4.6754380">
        <ele>1186.1</ele>
        <time>2019-08-13T17:21:50Z</time>
      </trkpt>
      <trkpt lat="40.4941790" lon="-4.6754780">
        <ele>1186.3</ele>
        <time>2019-08-13T17:21:52Z</time>
      </trkpt>
      <trkpt lat="40.4942220" lon="-4.6755130">
        <ele>1186.5</ele>
        <time>2019-08-13T17:21:54Z</time>
      </trkpt>
      <trkpt lat="40.4942660" lon="-4.6755470">
        <ele>1186.6</ele>
        <time>2019-08-13T17:21:56Z</time>
      </trkpt>
      <trkpt lat="40.4942900" lon="-4.6755650">
        <ele>1186.7</ele>
        <time>2019-08-13T17:21:57Z</time>
      </trkpt>
      <trkpt lat="40.4943340" lon="-4.6756000">
        <ele>1186.8</ele>
        <time>2019-08-13T17:21:59Z</time>
      </trkpt>
      <trkpt lat="40.4943810" lon="-4.6756340">
        <ele>1187.0</ele>
        <time>2019-08-13T17:22:01Z</time>
      </trkpt>
      <trkpt lat="40.4944280" lon="-4.6756670">
        <ele>1187.1</ele>
        <time>2019-08-13T17:22:03Z</time>
      </trkpt>
      <trkpt lat="40.4944760" lon="-4.6756960">
        <ele>1187.3</ele>
        <time>2019-08-13T17:22:05Z</time>
      </trkpt>
      <trkpt lat="40.4945230" lon="-4.6757240">
        <ele>1187.4</ele>
        <time>2019-08-13T17:22:07Z</time>
      </trkpt>
      <trkpt lat="40.4945690" lon="-4.6757490">
        <ele>1187.7</ele>
        <time>2019-08-13T17:22:09Z</time>
      </trkpt>
      <trkpt lat="40.4946090" lon="-4.6757710">
        <ele>1187.9</ele>
        <time>2019-08-13T17:22:11Z</time>
      </trkpt>
      <trkpt lat="40.4946460" lon="-4.6757910">
        <ele>1188.0</ele>
        <time>2019-08-13T17:22:13Z</time>
      </trkpt>
      <trkpt lat="40.4946880" lon="-4.6758070">
        <ele>1188.3</ele>
        <time>2019-08-13T17:22:15Z</time>
      </trkpt>
      <trkpt lat="40.4947290" lon="-4.6758230">
        <ele>1188.5</ele>
        <time>2019-08-13T17:22:17Z</time>
      </trkpt>
      <trkpt lat="40.4947690" lon="-4.6758390">
        <ele>1188.8</ele>
        <time>2019-08-13T17:22:19Z</time>
      </trkpt>
      <trkpt lat="40.4948090" lon="-4.6758530">
        <ele>1189.0</ele>
        <time>2019-08-13T17:22:21Z</time>
      </trkpt>
      <trkpt lat="40.4948500" lon="-4.6758630">
        <ele>1189.2</ele>
        <time>2019-08-13T17:22:23Z</time>
      </trkpt>
      <trkpt lat="40.4948940" lon="-4.6758700">
        <ele>1189.5</ele>
        <time>2019-08-13T17:22:25Z</time>
      </trkpt>
      <trkpt lat="40.4949380" lon="-4.6758760">
        <ele>1189.8</ele>
        <time>2019-08-13T17:22:27Z</time>
      </trkpt>
      <trkpt lat="40.4949810" lon="-4.6758870">
        <ele>1190.1</ele>
        <time>2019-08-13T17:22:29Z</time>
      </trkpt>
      <trkpt lat="40.4950230" lon="-4.6759070">
        <ele>1190.4</ele>
        <time>2019-08-13T17:22:31Z</time>
      </trkpt>
      <trkpt lat="40.4950630" lon="-4.6759240">
        <ele>1190.7</ele>
        <time>2019-08-13T17:22:33Z</time>
      </trkpt>
      <trkpt lat="40.4951060" lon="-4.6759330">
        <ele>1191.0</ele>
        <time>2019-08-13T17:22:35Z</time>
      </trkpt>
      <trkpt lat="40.4951520" lon="-4.6759400">
        <ele>1191.3</ele>
        <time>2019-08-13T17:22:37Z</time>
      </trkpt>
      <trkpt lat="40.4952010" lon="-4.6759460">
        <ele>1191.7</ele>
        <time>2019-08-13T17:22:39Z</time>
      </trkpt>
      <trkpt lat="40.4952500" lon="-4.6759530">
        <ele>1192.0</ele>
        <time>2019-08-13T17:22:41Z</time>
      </trkpt>
      <trkpt lat="40.4953000" lon="-4.6759570">
        <ele>1192.2</ele>
        <time>2019-08-13T17:22:43Z</time>
      </trkpt>
      <trkpt lat="40.4953500" lon="-4.6759640">
        <ele>1192.5</ele>
        <time>2019-08-13T17:22:45Z</time>
      </trkpt>
      <trkpt lat="40.4953980" lon="-4.6759700">
        <ele>1192.7</ele>
        <time>2019-08-13T17:22:47Z</time>
      </trkpt>
      <trkpt lat="40.4954440" lon="-4.6759760">
        <ele>1192.9</ele>
        <time>2019-08-13T17:22:49Z</time>
      </trkpt>
      <trkpt lat="40.4954900" lon="-4.6759810">
        <ele>1193.1</ele>
        <time>2019-08-13T17:22:51Z</time>
      </trkpt>
      <trkpt lat="40.4955360" lon="-4.6759870">
        <ele>1193.4</ele>
        <time>2019-08-13T17:22:53Z</time>
      </trkpt>
      <trkpt lat="40.4955820" lon="-4.6759940">
        <ele>1193.6</ele>
        <time>2019-08-13T17:22:55Z</time>
      </trkpt>
      <trkpt lat="40.4956300" lon="-4.6760010">
        <ele>1193.8</ele>
        <time>2019-08-13T17:22:57Z</time>
      </trkpt>
      <trkpt lat="40.4956800" lon="-4.6760080">
        <ele>1194.1</ele>
        <time>2019-08-13T17:22:59Z</time>
      </trkpt>
      <trkpt lat="40.4957300" lon="-4.6760150">
        <ele>1194.3</ele>
        <time>2019-08-13T17:23:01Z</time>
      </trkpt>
      <trkpt lat="40.4957770" lon="-4.6760220">
        <ele>1194.5</ele>
        <time>2019-08-13T17:23:03Z</time>
      </trkpt>
      <trkpt lat="40.4958210" lon="-4.6760260">
        <ele>1194.7</ele>
        <time>2019-08-13T17:23:05Z</time>
      </trkpt>
      <trkpt lat="40.4958690" lon="-4.6760350">
        <ele>1195.0</ele>
        <time>2019-08-13T17:23:07Z</time>
      </trkpt>
      <trkpt lat="40.4959200" lon="-4.6760460">
        <ele>1195.2</ele>
        <time>2019-08-13T17:23:09Z</time>
      </trkpt>
      <trkpt lat="40.4959710" lon="-4.6760530">
        <ele>1195.5</ele>
        <time>2019-08-13T17:23:11Z</time>
      </trkpt>
      <trkpt lat="40.4960210" lon="-4.6760580">
        <ele>1195.7</ele>
        <time>2019-08-13T17:23:13Z</time>
      </trkpt>
      <trkpt lat="40.4960700" lon="-4.6760630">
        <ele>1196.0</ele>
        <time>2019-08-13T17:23:15Z</time>
      </trkpt>
      <trkpt lat="40.4961200" lon="-4.6760690">
        <ele>1196.2</ele>
        <time>2019-08-13T17:23:17Z</time>
      </trkpt>
      <trkpt lat="40.4961720" lon="-4.6760760">
        <ele>1196.5</ele>
        <time>2019-08-13T17:23:19Z</time>
      </trkpt>
      <trkpt lat="40.4962240" lon="-4.6760830">
        <ele>1197.0</ele>
        <time>2019-08-13T17:23:21Z</time>
      </trkpt>
      <trkpt lat="40.4962760" lon="-4.6760910">
        <ele>1197.2</ele>
        <time>2019-08-13T17:23:23Z</time>
      </trkpt>
      <trkpt lat="40.4963260" lon="-4.6760980">
        <ele>1197.5</ele>
        <time>2019-08-13T17:23:25Z</time>
      </trkpt>
      <trkpt lat="40.4963770" lon="-4.6761060">
        <ele>1197.7</ele>
        <time>2019-08-13T17:23:27Z</time>
      </trkpt>
      <trkpt lat="40.4964270" lon="-4.6761110">
        <ele>1198.0</ele>
        <time>2019-08-13T17:23:29Z</time>
      </trkpt>
      <trkpt lat="40.4964770" lon="-4.6761150">
        <ele>1198.2</ele>
        <time>2019-08-13T17:23:31Z</time>
      </trkpt>
      <trkpt lat="40.4965280" lon="-4.6761150">
        <ele>1198.5</ele>
        <time>2019-08-13T17:23:33Z</time>
      </trkpt>
      <trkpt lat="40.4965810" lon="-4.6761190">
        <ele>1198.8</ele>
        <time>2019-08-13T17:23:35Z</time>
      </trkpt>
      <trkpt lat="40.4966310" lon="-4.6761290">
        <ele>1199.0</ele>
        <time>2019-08-13T17:23:37Z</time>
      </trkpt>
      <trkpt lat="40.4966820" lon="-4.6761340">
        <ele>1199.3</ele>
        <time>2019-08-13T17:23:39Z</time>
      </trkpt>
      <trkpt lat="40.4967320" lon="-4.6761420">
        <ele>1199.5</ele>
        <time>2019-08-13T17:23:41Z</time>
      </trkpt>
      <trkpt lat="40.4967810" lon="-4.6761520">
        <ele>1199.8</ele>
        <time>2019-08-13T17:23:43Z</time>
      </trkpt>
      <trkpt lat="40.4968250" lon="-4.6761660">
        <ele>1200.0</ele>
        <time>2019-08-13T17:23:45Z</time>
      </trkpt>
      <trkpt lat="40.4968700" lon="-4.6761700">
        <ele>1200.2</ele>
        <time>2019-08-13T17:23:47Z</time>
      </trkpt>
      <trkpt lat="40.4969190" lon="-4.6761770">
        <ele>1200.5</ele>
        <time>2019-08-13T17:23:49Z</time>
      </trkpt>
      <trkpt lat="40.4969630" lon="-4.6761950">
        <ele>1200.7</ele>
        <time>2019-08-13T17:23:51Z</time>
      </trkpt>
      <trkpt lat="40.4970050" lon="-4.6762130">
        <ele>1201.0</ele>
        <time>2019-08-13T17:23:53Z</time>
      </trkpt>
      <trkpt lat="40.4970490" lon="-4.6762330">
        <ele>1201.2</ele>
        <time>2019-08-13T17:23:55Z</time>
      </trkpt>
      <trkpt lat="40.4970980" lon="-4.6762500">
        <ele>1201.5</ele>
        <time>2019-08-13T17:23:57Z</time>
      </trkpt>
      <trkpt lat="40.4971470" lon="-4.6762660">
        <ele>1201.8</ele>
        <time>2019-08-13T17:23:59Z</time>
      </trkpt>
      <trkpt lat="40.4971940" lon="-4.6762860">
        <ele>1202.1</ele>
        <time>2019-08-13T17:24:01Z</time>
      </trkpt>
      <trkpt lat="40.4972400" lon="-4.6763080">
        <ele>1202.5</ele>
        <time>2019-08-13T17:24:03Z</time>
      </trkpt>
      <trkpt lat="40.4972860" lon="-4.6763300">
        <ele>1202.9</ele>
        <time>2019-08-13T17:24:05Z</time>
      </trkpt>
      <trkpt lat="40.4973290" lon="-4.6763530">
        <ele>1203.2</ele>
        <time>2019-08-13T17:24:07Z</time>
      </trkpt>
      <trkpt lat="40.4973660" lon="-4.6763790">
        <ele>1203.5</ele>
        <time>2019-08-13T17:24:09Z</time>
      </trkpt>
      <trkpt lat="40.4974080" lon="-4.6764050">
        <ele>1203.9</ele>
        <time>2019-08-13T17:24:11Z</time>
      </trkpt>
      <trkpt lat="40.4974490" lon="-4.6764280">
        <ele>1204.2</ele>
        <time>2019-08-13T17:24:13Z</time>
      </trkpt>
      <trkpt lat="40.4974910" lon="-4.6764570">
        <ele>1204.5</ele>
        <time>2019-08-13T17:24:15Z</time>
      </trkpt>
      <trkpt lat="40.4975330" lon="-4.6764880">
        <ele>1204.9</ele>
        <time>2019-08-13T17:24:17Z</time>
      </trkpt>
      <trkpt lat="40.4975750" lon="-4.6765220">
        <ele>1205.3</ele>
        <time>2019-08-13T17:24:19Z</time>
      </trkpt>
      <trkpt lat="40.4976160" lon="-4.6765590">
        <ele>1205.6</ele>
        <time>2019-08-13T17:24:21Z</time>
      </trkpt>
      <trkpt lat="40.4976570" lon="-4.6765970">
        <ele>1206.0</ele>
        <time>2019-08-13T17:24:23Z</time>
      </trkpt>
      <trkpt lat="40.4976970" lon="-4.6766350">
        <ele>1206.4</ele>
        <time>2019-08-13T17:24:25Z</time>
      </trkpt>
      <trkpt lat="40.4977370" lon="-4.6766740">
        <ele>1206.8</ele>
        <time>2019-08-13T17:24:27Z</time>
      </trkpt>
      <trkpt lat="40.4977780" lon="-4.6767150">
        <ele>1207.2</ele>
        <time>2019-08-13T17:24:29Z</time>
      </trkpt>
      <trkpt lat="40.4978200" lon="-4.6767580">
        <ele>1207.5</ele>
        <time>2019-08-13T17:24:31Z</time>
      </trkpt>
      <trkpt lat="40.4978400" lon="-4.6767820">
        <ele>1207.6</ele>
        <time>2019-08-13T17:24:32Z</time>
      </trkpt>
      <trkpt lat="40.4978610" lon="-4.6768050">
        <ele>1207.6</ele>
        <time>2019-08-13T17:24:33Z</time>
      </trkpt>
      <trkpt lat="40.4979010" lon="-4.6768510">
        <ele>1207.6</ele>
        <time>2019-08-13T17:24:35Z</time>
      </trkpt>
      <trkpt lat="40.4979430" lon="-4.6768940">
        <ele>1207.6</ele>
        <time>2019-08-13T17:24:37Z</time>
      </trkpt>
      <trkpt lat="40.4979840" lon="-4.6769370">
        <ele>1207.6</ele>
        <time>2019-08-13T17:24:39Z</time>
      </trkpt>
      <trkpt lat="40.4980240" lon="-4.6769840">
        <ele>1207.6</ele>
        <time>2019-08-13T17:24:41Z</time>
      </trkpt>
      <trkpt lat="40.4980640" lon="-4.6770300">
        <ele>1207.6</ele>
        <time>2019-08-13T17:24:43Z</time>
      </trkpt>
      <trkpt lat="40.4981050" lon="-4.6770760">
        <ele>1207.7</ele>
        <time>2019-08-13T17:24:45Z</time>
      </trkpt>
      <trkpt lat="40.4981260" lon="-4.6770980">
        <ele>1207.7</ele>
        <time>2019-08-13T17:24:46Z</time>
      </trkpt>
      <trkpt lat="40.4981680" lon="-4.6771430">
        <ele>1207.7</ele>
        <time>2019-08-13T17:24:48Z</time>
      </trkpt>
      <trkpt lat="40.4982090" lon="-4.6771850">
        <ele>1208.0</ele>
        <time>2019-08-13T17:24:50Z</time>
      </trkpt>
      <trkpt lat="40.4982490" lon="-4.6772230">
        <ele>1208.3</ele>
        <time>2019-08-13T17:24:52Z</time>
      </trkpt>
      <trkpt lat="40.4982870" lon="-4.6772550">
        <ele>1208.5</ele>
        <time>2019-08-13T17:24:54Z</time>
      </trkpt>
      <trkpt lat="40.4983280" lon="-4.6772850">
        <ele>1208.7</ele>
        <time>2019-08-13T17:24:56Z</time>
      </trkpt>
      <trkpt lat="40.4983700" lon="-4.6773120">
        <ele>1208.8</ele>
        <time>2019-08-13T17:24:58Z</time>
      </trkpt>
      <trkpt lat="40.4984120" lon="-4.6773390">
        <ele>1209.0</ele>
        <time>2019-08-13T17:25:00Z</time>
      </trkpt>
      <trkpt lat="40.4984530" lon="-4.6773670">
        <ele>1209.2</ele>
        <time>2019-08-13T17:25:02Z</time>
      </trkpt>
      <trkpt lat="40.4984910" lon="-4.6773940">
        <ele>1209.3</ele>
        <time>2019-08-13T17:25:04Z</time>
      </trkpt>
      <trkpt lat="40.4985300" lon="-4.6774170">
        <ele>1209.5</ele>
        <time>2019-08-13T17:25:06Z</time>
      </trkpt>
      <trkpt lat="40.4985660" lon="-4.6774410">
        <ele>1209.6</ele>
        <time>2019-08-13T17:25:08Z</time>
      </trkpt>
      <trkpt lat="40.4986020" lon="-4.6774620">
        <ele>1209.8</ele>
        <time>2019-08-13T17:25:10Z</time>
      </trkpt>
      <trkpt lat="40.4986360" lon="-4.6774810">
        <ele>1210.1</ele>
        <time>2019-08-13T17:25:12Z</time>
      </trkpt>
      <trkpt lat="40.4986720" lon="-4.6774990">
        <ele>1210.4</ele>
        <time>2019-08-13T17:25:14Z</time>
      </trkpt>
      <trkpt lat="40.4987090" lon="-4.6775160">
        <ele>1210.8</ele>
        <time>2019-08-13T17:25:16Z</time>
      </trkpt>
      <trkpt lat="40.4987470" lon="-4.6775340">
        <ele>1211.2</ele>
        <time>2019-08-13T17:25:18Z</time>
      </trkpt>
      <trkpt lat="40.4987850" lon="-4.6775510">
        <ele>1211.6</ele>
        <time>2019-08-13T17:25:20Z</time>
      </trkpt>
      <trkpt lat="40.4988230" lon="-4.6775670">
        <ele>1211.9</ele>
        <time>2019-08-13T17:25:22Z</time>
      </trkpt>
      <trkpt lat="40.4988610" lon="-4.6775830">
        <ele>1212.3</ele>
        <time>2019-08-13T17:25:24Z</time>
      </trkpt>
      <trkpt lat="40.4989010" lon="-4.6775960">
        <ele>1212.7</ele>
        <time>2019-08-13T17:25:26Z</time>
      </trkpt>
      <trkpt lat="40.4989400" lon="-4.6776060">
        <ele>1213.0</ele>
        <time>2019-08-13T17:25:28Z</time>
      </trkpt>
      <trkpt lat="40.4989780" lon="-4.6776170">
        <ele>1213.4</ele>
        <time>2019-08-13T17:25:30Z</time>
      </trkpt>
      <trkpt lat="40.4990170" lon="-4.6776280">
        <ele>1213.8</ele>
        <time>2019-08-13T17:25:32Z</time>
      </trkpt>
      <trkpt lat="40.4990550" lon="-4.6776360">
        <ele>1214.1</ele>
        <time>2019-08-13T17:25:34Z</time>
      </trkpt>
      <trkpt lat="40.4990920" lon="-4.6776440">
        <ele>1214.4</ele>
        <time>2019-08-13T17:25:36Z</time>
      </trkpt>
      <trkpt lat="40.4991290" lon="-4.6776490">
        <ele>1214.7</ele>
        <time>2019-08-13T17:25:38Z</time>
      </trkpt>
      <trkpt lat="40.4991670" lon="-4.6776540">
        <ele>1215.1</ele>
        <time>2019-08-13T17:25:40Z</time>
      </trkpt>
      <trkpt lat="40.4992060" lon="-4.6776570">
        <ele>1215.4</ele>
        <time>2019-08-13T17:25:42Z</time>
      </trkpt>
      <trkpt lat="40.4992420" lon="-4.6776590">
        <ele>1215.7</ele>
        <time>2019-08-13T17:25:44Z</time>
      </trkpt>
      <trkpt lat="40.4992770" lon="-4.6776610">
        <ele>1216.1</ele>
        <time>2019-08-13T17:25:46Z</time>
      </trkpt>
      <trkpt lat="40.4993130" lon="-4.6776610">
        <ele>1216.4</ele>
        <time>2019-08-13T17:25:48Z</time>
      </trkpt>
      <trkpt lat="40.4993480" lon="-4.6776620">
        <ele>1216.8</ele>
        <time>2019-08-13T17:25:50Z</time>
      </trkpt>
      <trkpt lat="40.4993830" lon="-4.6776620">
        <ele>1217.1</ele>
        <time>2019-08-13T17:25:52Z</time>
      </trkpt>
      <trkpt lat="40.4994190" lon="-4.6776610">
        <ele>1217.5</ele>
        <time>2019-08-13T17:25:54Z</time>
      </trkpt>
      <trkpt lat="40.4994550" lon="-4.6776600">
        <ele>1217.8</ele>
        <time>2019-08-13T17:25:56Z</time>
      </trkpt>
      <trkpt lat="40.4994890" lon="-4.6776600">
        <ele>1218.1</ele>
        <time>2019-08-13T17:25:58Z</time>
      </trkpt>
      <trkpt lat="40.4995240" lon="-4.6776600">
        <ele>1218.4</ele>
        <time>2019-08-13T17:26:00Z</time>
      </trkpt>
      <trkpt lat="40.4995600" lon="-4.6776580">
        <ele>1218.8</ele>
        <time>2019-08-13T17:26:02Z</time>
      </trkpt>
      <trkpt lat="40.4995960" lon="-4.6776600">
        <ele>1219.2</ele>
        <time>2019-08-13T17:26:04Z</time>
      </trkpt>
      <trkpt lat="40.4996310" lon="-4.6776600">
        <ele>1219.5</ele>
        <time>2019-08-13T17:26:06Z</time>
      </trkpt>
      <trkpt lat="40.4996660" lon="-4.6776580">
        <ele>1220.0</ele>
        <time>2019-08-13T17:26:08Z</time>
      </trkpt>
      <trkpt lat="40.4997000" lon="-4.6776570">
        <ele>1220.4</ele>
        <time>2019-08-13T17:26:10Z</time>
      </trkpt>
      <trkpt lat="40.4997330" lon="-4.6776550">
        <ele>1220.7</ele>
        <time>2019-08-13T17:26:12Z</time>
      </trkpt>
      <trkpt lat="40.4997670" lon="-4.6776540">
        <ele>1221.1</ele>
        <time>2019-08-13T17:26:14Z</time>
      </trkpt>
      <trkpt lat="40.4998020" lon="-4.6776540">
        <ele>1221.5</ele>
        <time>2019-08-13T17:26:16Z</time>
      </trkpt>
      <trkpt lat="40.4998360" lon="-4.6776530">
        <ele>1221.9</ele>
        <time>2019-08-13T17:26:18Z</time>
      </trkpt>
      <trkpt lat="40.4998720" lon="-4.6776520">
        <ele>1222.3</ele>
        <time>2019-08-13T17:26:20Z</time>
      </trkpt>
      <trkpt lat="40.4999080" lon="-4.6776510">
        <ele>1222.7</ele>
        <time>2019-08-13T17:26:22Z</time>
      </trkpt>
      <trkpt lat="40.4999450" lon="-4.6776500">
        <ele>1223.1</ele>
        <time>2019-08-13T17:26:24Z</time>
      </trkpt>
      <trkpt lat="40.4999830" lon="-4.6776500">
        <ele>1223.5</ele>
        <time>2019-08-13T17:26:26Z</time>
      </trkpt>
      <trkpt lat="40.5000190" lon="-4.6776500">
        <ele>1223.9</ele>
        <time>2019-08-13T17:26:28Z</time>
      </trkpt>
      <trkpt lat="40.5000550" lon="-4.6776500">
        <ele>1224.2</ele>
        <time>2019-08-13T17:26:30Z</time>
      </trkpt>
      <trkpt lat="40.5000900" lon="-4.6776500">
        <ele>1224.6</ele>
        <time>2019-08-13T17:26:32Z</time>
      </trkpt>
      <trkpt lat="40.5001240" lon="-4.6776480">
        <ele>1224.9</ele>
        <time>2019-08-13T17:26:34Z</time>
      </trkpt>
      <trkpt lat="40.5001590" lon="-4.6776490">
        <ele>1225.3</ele>
        <time>2019-08-13T17:26:36Z</time>
      </trkpt>
      <trkpt lat="40.5001940" lon="-4.6776470">
        <ele>1225.6</ele>
        <time>2019-08-13T17:26:38Z</time>
      </trkpt>
      <trkpt lat="40.5002280" lon="-4.6776460">
        <ele>1225.9</ele>
        <time>2019-08-13T17:26:40Z</time>
      </trkpt>
      <trkpt lat="40.5002630" lon="-4.6776460">
        <ele>1226.2</ele>
        <time>2019-08-13T17:26:42Z</time>
      </trkpt>
      <trkpt lat="40.5002980" lon="-4.6776460">
        <ele>1226.5</ele>
        <time>2019-08-13T17:26:44Z</time>
      </trkpt>
      <trkpt lat="40.5003340" lon="-4.6776460">
        <ele>1226.7</ele>
        <time>2019-08-13T17:26:46Z</time>
      </trkpt>
      <trkpt lat="40.5003690" lon="-4.6776450">
        <ele>1227.0</ele>
        <time>2019-08-13T17:26:48Z</time>
      </trkpt>
      <trkpt lat="40.5004050" lon="-4.6776430">
        <ele>1227.3</ele>
        <time>2019-08-13T17:26:50Z</time>
      </trkpt>
      <trkpt lat="40.5004410" lon="-4.6776430">
        <ele>1227.6</ele>
        <time>2019-08-13T17:26:52Z</time>
      </trkpt>
      <trkpt lat="40.5004760" lon="-4.6776420">
        <ele>1227.9</ele>
        <time>2019-08-13T17:26:54Z</time>
      </trkpt>
      <trkpt lat="40.5005120" lon="-4.6776400">
        <ele>1228.3</ele>
        <time>2019-08-13T17:26:56Z</time>
      </trkpt>
      <trkpt lat="40.5005470" lon="-4.6776400">
        <ele>1228.6</ele>
        <time>2019-08-13T17:26:58Z</time>
      </trkpt>
      <trkpt lat="40.5005830" lon="-4.6776400">
        <ele>1228.9</ele>
        <time>2019-08-13T17:27:00Z</time>
      </trkpt>
      <trkpt lat="40.5006180" lon="-4.6776390">
        <ele>1229.3</ele>
        <time>2019-08-13T17:27:02Z</time>
      </trkpt>
      <trkpt lat="40.5006520" lon="-4.6776390">
        <ele>1229.6</ele>
        <time>2019-08-13T17:27:04Z</time>
      </trkpt>
      <trkpt lat="40.5006850" lon="-4.6776390">
        <ele>1229.9</ele>
        <time>2019-08-13T17:27:06Z</time>
      </trkpt>
      <trkpt lat="40.5007180" lon="-4.6776380">
        <ele>1230.3</ele>
        <time>2019-08-13T17:27:08Z</time>
      </trkpt>
      <trkpt lat="40.5007510" lon="-4.6776400">
        <ele>1230.6</ele>
        <time>2019-08-13T17:27:10Z</time>
      </trkpt>
      <trkpt lat="40.5007840" lon="-4.6776380">
        <ele>1230.9</ele>
        <time>2019-08-13T17:27:12Z</time>
      </trkpt>
      <trkpt lat="40.5008180" lon="-4.6776380">
        <ele>1231.2</ele>
        <time>2019-08-13T17:27:14Z</time>
      </trkpt>
      <trkpt lat="40.5008510" lon="-4.6776370">
        <ele>1231.5</ele>
        <time>2019-08-13T17:27:16Z</time>
      </trkpt>
      <trkpt lat="40.5008850" lon="-4.6776350">
        <ele>1231.7</ele>
        <time>2019-08-13T17:27:18Z</time>
      </trkpt>
      <trkpt lat="40.5009180" lon="-4.6776360">
        <ele>1231.9</ele>
        <time>2019-08-13T17:27:20Z</time>
      </trkpt>
      <trkpt lat="40.5009520" lon="-4.6776370">
        <ele>1232.2</ele>
        <time>2019-08-13T17:27:22Z</time>
      </trkpt>
      <trkpt lat="40.5009850" lon="-4.6776360">
        <ele>1232.4</ele>
        <time>2019-08-13T17:27:24Z</time>
      </trkpt>
      <trkpt lat="40.5010190" lon="-4.6776370">
        <ele>1232.6</ele>
        <time>2019-08-13T17:27:26Z</time>
      </trkpt>
      <trkpt lat="40.5010530" lon="-4.6776360">
        <ele>1232.9</ele>
        <time>2019-08-13T17:27:28Z</time>
      </trkpt>
      <trkpt lat="40.5010880" lon="-4.6776350">
        <ele>1233.1</ele>
        <time>2019-08-13T17:27:30Z</time>
      </trkpt>
      <trkpt lat="40.5011230" lon="-4.6776360">
        <ele>1233.5</ele>
        <time>2019-08-13T17:27:32Z</time>
      </trkpt>
      <trkpt lat="40.5011580" lon="-4.6776340">
        <ele>1233.8</ele>
        <time>2019-08-13T17:27:34Z</time>
      </trkpt>
      <trkpt lat="40.5011910" lon="-4.6776330">
        <ele>1234.1</ele>
        <time>2019-08-13T17:27:36Z</time>
      </trkpt>
      <trkpt lat="40.5012240" lon="-4.6776320">
        <ele>1234.4</ele>
        <time>2019-08-13T17:27:38Z</time>
      </trkpt>
      <trkpt lat="40.5012570" lon="-4.6776310">
        <ele>1234.6</ele>
        <time>2019-08-13T17:27:40Z</time>
      </trkpt>
      <trkpt lat="40.5012870" lon="-4.6776300">
        <ele>1234.9</ele>
        <time>2019-08-13T17:27:42Z</time>
      </trkpt>
      <trkpt lat="40.5013160" lon="-4.6776300">
        <ele>1235.1</ele>
        <time>2019-08-13T17:27:44Z</time>
      </trkpt>
      <trkpt lat="40.5013480" lon="-4.6776290">
        <ele>1235.3</ele>
        <time>2019-08-13T17:27:46Z</time>
      </trkpt>
      <trkpt lat="40.5013810" lon="-4.6776270">
        <ele>1235.6</ele>
        <time>2019-08-13T17:27:48Z</time>
      </trkpt>
      <trkpt lat="40.5014130" lon="-4.6776270">
        <ele>1235.8</ele>
        <time>2019-08-13T17:27:50Z</time>
      </trkpt>
      <trkpt lat="40.5014480" lon="-4.6776260">
        <ele>1236.1</ele>
        <time>2019-08-13T17:27:52Z</time>
      </trkpt>
      <trkpt lat="40.5014850" lon="-4.6776260">
        <ele>1236.4</ele>
        <time>2019-08-13T17:27:54Z</time>
      </trkpt>
      <trkpt lat="40.5015230" lon="-4.6776210">
        <ele>1236.7</ele>
        <time>2019-08-13T17:27:56Z</time>
      </trkpt>
      <trkpt lat="40.5015620" lon="-4.6776130">
        <ele>1237.0</ele>
        <time>2019-08-13T17:27:58Z</time>
      </trkpt>
      <trkpt lat="40.5015980" lon="-4.6776090">
        <ele>1237.3</ele>
        <time>2019-08-13T17:28:00Z</time>
      </trkpt>
      <trkpt lat="40.5016370" lon="-4.6776060">
        <ele>1237.6</ele>
        <time>2019-08-13T17:28:02Z</time>
      </trkpt>
      <trkpt lat="40.5016750" lon="-4.6775980">
        <ele>1237.9</ele>
        <time>2019-08-13T17:28:04Z</time>
      </trkpt>
      <trkpt lat="40.5017120" lon="-4.6775910">
        <ele>1238.3</ele>
        <time>2019-08-13T17:28:06Z</time>
      </trkpt>
      <trkpt lat="40.5017450" lon="-4.6775870">
        <ele>1238.5</ele>
        <time>2019-08-13T17:28:08Z</time>
      </trkpt>
      <trkpt lat="40.5017780" lon="-4.6775770">
        <ele>1238.7</ele>
        <time>2019-08-13T17:28:10Z</time>
      </trkpt>
      <trkpt lat="40.5018120" lon="-4.6775670">
        <ele>1238.9</ele>
        <time>2019-08-13T17:28:12Z</time>
      </trkpt>
      <trkpt lat="40.5018460" lon="-4.6775570">
        <ele>1239.1</ele>
        <time>2019-08-13T17:28:14Z</time>
      </trkpt>
      <trkpt lat="40.5018810" lon="-4.6775430">
        <ele>1239.3</ele>
        <time>2019-08-13T17:28:16Z</time>
      </trkpt>
      <trkpt lat="40.5019150" lon="-4.6775280">
        <ele>1239.5</ele>
        <time>2019-08-13T17:28:18Z</time>
      </trkpt>
      <trkpt lat="40.5019510" lon="-4.6775120">
        <ele>1239.7</ele>
        <time>2019-08-13T17:28:20Z</time>
      </trkpt>
      <trkpt lat="40.5019850" lon="-4.6774940">
        <ele>1240.0</ele>
        <time>2019-08-13T17:28:22Z</time>
      </trkpt>
      <trkpt lat="40.5020190" lon="-4.6774750">
        <ele>1240.2</ele>
        <time>2019-08-13T17:28:24Z</time>
      </trkpt>
      <trkpt lat="40.5020520" lon="-4.6774540">
        <ele>1240.5</ele>
        <time>2019-08-13T17:28:26Z</time>
      </trkpt>
      <trkpt lat="40.5020850" lon="-4.6774320">
        <ele>1240.8</ele>
        <time>2019-08-13T17:28:28Z</time>
      </trkpt>
      <trkpt lat="40.5021170" lon="-4.6774070">
        <ele>1241.1</ele>
        <time>2019-08-13T17:28:30Z</time>
      </trkpt>
      <trkpt lat="40.5021490" lon="-4.6773790">
        <ele>1241.5</ele>
        <time>2019-08-13T17:28:32Z</time>
      </trkpt>
      <trkpt lat="40.5021810" lon="-4.6773520">
        <ele>1241.8</ele>
        <time>2019-08-13T17:28:34Z</time>
      </trkpt>
      <trkpt lat="40.5022100" lon="-4.6773240">
        <ele>1242.1</ele>
        <time>2019-08-13T17:28:36Z</time>
      </trkpt>
      <trkpt lat="40.5022390" lon="-4.6772940">
        <ele>1242.4</ele>
        <time>2019-08-13T17:28:38Z</time>
      </trkpt>
      <trkpt lat="40.5022670" lon="-4.6772640">
        <ele>1242.7</ele>
        <time>2019-08-13T17:28:40Z</time>
      </trkpt>
      <trkpt lat="40.5022950" lon="-4.6772330">
        <ele>1243.1</ele>
        <time>2019-08-13T17:28:42Z</time>
      </trkpt>
      <trkpt lat="40.5023220" lon="-4.6771980">
        <ele>1243.5</ele>
        <time>2019-08-13T17:28:44Z</time>
      </trkpt>
      <trkpt lat="40.5023490" lon="-4.6771630">
        <ele>1243.8</ele>
        <time>2019-08-13T17:28:46Z</time>
      </trkpt>
      <trkpt lat="40.5023760" lon="-4.6771270">
        <ele>1244.2</ele>
        <time>2019-08-13T17:28:48Z</time>
      </trkpt>
      <trkpt lat="40.5024020" lon="-4.6770930">
        <ele>1244.6</ele>
        <time>2019-08-13T17:28:50Z</time>
      </trkpt>
      <trkpt lat="40.5024290" lon="-4.6770560">
        <ele>1245.0</ele>
        <time>2019-08-13T17:28:52Z</time>
      </trkpt>
      <trkpt lat="40.5024560" lon="-4.6770190">
        <ele>1245.4</ele>
        <time>2019-08-13T17:28:54Z</time>
      </trkpt>
      <trkpt lat="40.5024830" lon="-4.6769810">
        <ele>1245.8</ele>
        <time>2019-08-13T17:28:56Z</time>
      </trkpt>
      <trkpt lat="40.5025100" lon="-4.6769440">
        <ele>1246.2</ele>
        <time>2019-08-13T17:28:58Z</time>
      </trkpt>
      <trkpt lat="40.5025370" lon="-4.6769090">
        <ele>1246.5</ele>
        <time>2019-08-13T17:29:00Z</time>
      </trkpt>
      <trkpt lat="40.5025640" lon="-4.6768730">
        <ele>1246.8</ele>
        <time>2019-08-13T17:29:02Z</time>
      </trkpt>
      <trkpt lat="40.5025920" lon="-4.6768360">
        <ele>1247.0</ele>
        <time>2019-08-13T17:29:04Z</time>
      </trkpt>
      <trkpt lat="40.5026200" lon="-4.6768000">
        <ele>1247.2</ele>
        <time>2019-08-13T17:29:06Z</time>
      </trkpt>
      <trkpt lat="40.5026470" lon="-4.6767670">
        <ele>1247.4</ele>
        <time>2019-08-13T17:29:08Z</time>
      </trkpt>
      <trkpt lat="40.5026760" lon="-4.6767330">
        <ele>1247.6</ele>
        <time>2019-08-13T17:29:10Z</time>
      </trkpt>
      <trkpt lat="40.5027050" lon="-4.6766990">
        <ele>1247.8</ele>
        <time>2019-08-13T17:29:12Z</time>
      </trkpt>
      <trkpt lat="40.5027350" lon="-4.6766650">
        <ele>1248.0</ele>
        <time>2019-08-13T17:29:14Z</time>
      </trkpt>
      <trkpt lat="40.5027660" lon="-4.6766350">
        <ele>1248.2</ele>
        <time>2019-08-13T17:29:16Z</time>
      </trkpt>
      <trkpt lat="40.5027980" lon="-4.6766050">
        <ele>1248.5</ele>
        <time>2019-08-13T17:29:18Z</time>
      </trkpt>
      <trkpt lat="40.5028310" lon="-4.6765760">
        <ele>1248.7</ele>
        <time>2019-08-13T17:29:20Z</time>
      </trkpt>
      <trkpt lat="40.5028640" lon="-4.6765480">
        <ele>1249.0</ele>
        <time>2019-08-13T17:29:22Z</time>
      </trkpt>
      <trkpt lat="40.5029000" lon="-4.6765220">
        <ele>1249.2</ele>
        <time>2019-08-13T17:29:24Z</time>
      </trkpt>
      <trkpt lat="40.5029350" lon="-4.6764970">
        <ele>1249.4</ele>
        <time>2019-08-13T17:29:26Z</time>
      </trkpt>
      <trkpt lat="40.5029710" lon="-4.6764740">
        <ele>1249.7</ele>
        <time>2019-08-13T17:29:28Z</time>
      </trkpt>
      <trkpt lat="40.5030080" lon="-4.6764530">
        <ele>1249.9</ele>
        <time>2019-08-13T17:29:30Z</time>
      </trkpt>
      <trkpt lat="40.5030450" lon="-4.6764300">
        <ele>1250.1</ele>
        <time>2019-08-13T17:29:32Z</time>
      </trkpt>
      <trkpt lat="40.5030820" lon="-4.6764090">
        <ele>1250.3</ele>
        <time>2019-08-13T17:29:34Z</time>
      </trkpt>
      <trkpt lat="40.5031190" lon="-4.6763900">
        <ele>1250.5</ele>
        <time>2019-08-13T17:29:36Z</time>
      </trkpt>
      <trkpt lat="40.5031550" lon="-4.6763680">
        <ele>1250.8</ele>
        <time>2019-08-13T17:29:38Z</time>
      </trkpt>
      <trkpt lat="40.5031910" lon="-4.6763500">
        <ele>1251.0</ele>
        <time>2019-08-13T17:29:40Z</time>
      </trkpt>
      <trkpt lat="40.5032250" lon="-4.6763310">
        <ele>1251.3</ele>
        <time>2019-08-13T17:29:42Z</time>
      </trkpt>
      <trkpt lat="40.5032570" lon="-4.6763160">
        <ele>1251.5</ele>
        <time>2019-08-13T17:29:44Z</time>
      </trkpt>
      <trkpt lat="40.5032900" lon="-4.6762990">
        <ele>1251.8</ele>
        <time>2019-08-13T17:29:46Z</time>
      </trkpt>
      <trkpt lat="40.5033240" lon="-4.6762800">
        <ele>1252.1</ele>
        <time>2019-08-13T17:29:48Z</time>
      </trkpt>
      <trkpt lat="40.5033590" lon="-4.6762620">
        <ele>1252.4</ele>
        <time>2019-08-13T17:29:50Z</time>
      </trkpt>
      <trkpt lat="40.5033930" lon="-4.6762430">
        <ele>1252.7</ele>
        <time>2019-08-13T17:29:52Z</time>
      </trkpt>
      <trkpt lat="40.5034280" lon="-4.6762240">
        <ele>1253.0</ele>
        <time>2019-08-13T17:29:54Z</time>
      </trkpt>
      <trkpt lat="40.5034620" lon="-4.6762050">
        <ele>1253.3</ele>
        <time>2019-08-13T17:29:56Z</time>
      </trkpt>
      <trkpt lat="40.5034980" lon="-4.6761860">
        <ele>1253.5</ele>
        <time>2019-08-13T17:29:58Z</time>
      </trkpt>
      <trkpt lat="40.5035330" lon="-4.6761680">
        <ele>1253.8</ele>
        <time>2019-08-13T17:30:00Z</time>
      </trkpt>
      <trkpt lat="40.5035690" lon="-4.6761500">
        <ele>1254.1</ele>
        <time>2019-08-13T17:30:02Z</time>
      </trkpt>
      <trkpt lat="40.5036040" lon="-4.6761320">
        <ele>1254.3</ele>
        <time>2019-08-13T17:30:04Z</time>
      </trkpt>
      <trkpt lat="40.5036410" lon="-4.6761130">
        <ele>1254.6</ele>
        <time>2019-08-13T17:30:06Z</time>
      </trkpt>
      <trkpt lat="40.5036770" lon="-4.6760940">
        <ele>1254.8</ele>
        <time>2019-08-13T17:30:08Z</time>
      </trkpt>
      <trkpt lat="40.5037130" lon="-4.6760760">
        <ele>1255.1</ele>
        <time>2019-08-13T17:30:10Z</time>
      </trkpt>
      <trkpt lat="40.5037500" lon="-4.6760580">
        <ele>1255.3</ele>
        <time>2019-08-13T17:30:12Z</time>
      </trkpt>
      <trkpt lat="40.5037870" lon="-4.6760400">
        <ele>1255.5</ele>
        <time>2019-08-13T17:30:14Z</time>
      </trkpt>
      <trkpt lat="40.5038240" lon="-4.6760230">
        <ele>1255.7</ele>
        <time>2019-08-13T17:30:16Z</time>
      </trkpt>
      <trkpt lat="40.5038620" lon="-4.6760080">
        <ele>1255.9</ele>
        <time>2019-08-13T17:30:18Z</time>
      </trkpt>
      <trkpt lat="40.5039010" lon="-4.6759930">
        <ele>1256.1</ele>
        <time>2019-08-13T17:30:20Z</time>
      </trkpt>
      <trkpt lat="40.5039390" lon="-4.6759790">
        <ele>1256.3</ele>
        <time>2019-08-13T17:30:22Z</time>
      </trkpt>
      <trkpt lat="40.5039780" lon="-4.6759640">
        <ele>1256.5</ele>
        <time>2019-08-13T17:30:24Z</time>
      </trkpt>
      <trkpt lat="40.5040160" lon="-4.6759510">
        <ele>1256.7</ele>
        <time>2019-08-13T17:30:26Z</time>
      </trkpt>
      <trkpt lat="40.5040550" lon="-4.6759400">
        <ele>1257.0</ele>
        <time>2019-08-13T17:30:28Z</time>
      </trkpt>
      <trkpt lat="40.5040950" lon="-4.6759310">
        <ele>1257.2</ele>
        <time>2019-08-13T17:30:30Z</time>
      </trkpt>
      <trkpt lat="40.5041340" lon="-4.6759200">
        <ele>1257.4</ele>
        <time>2019-08-13T17:30:32Z</time>
      </trkpt>
      <trkpt lat="40.5041740" lon="-4.6759110">
        <ele>1257.7</ele>
        <time>2019-08-13T17:30:34Z</time>
      </trkpt>
      <trkpt lat="40.5042140" lon="-4.6759050">
        <ele>1257.9</ele>
        <time>2019-08-13T17:30:36Z</time>
      </trkpt>
      <trkpt lat="40.5042550" lon="-4.6759000">
        <ele>1258.2</ele>
        <time>2019-08-13T17:30:38Z</time>
      </trkpt>
      <trkpt lat="40.5042950" lon="-4.6758940">
        <ele>1258.4</ele>
        <time>2019-08-13T17:30:40Z</time>
      </trkpt>
      <trkpt lat="40.5043360" lon="-4.6758890">
        <ele>1258.7</ele>
        <time>2019-08-13T17:30:42Z</time>
      </trkpt>
      <trkpt lat="40.5043760" lon="-4.6758860">
        <ele>1258.9</ele>
        <time>2019-08-13T17:30:44Z</time>
      </trkpt>
      <trkpt lat="40.5044160" lon="-4.6758840">
        <ele>1259.2</ele>
        <time>2019-08-13T17:30:46Z</time>
      </trkpt>
      <trkpt lat="40.5044580" lon="-4.6758820">
        <ele>1259.4</ele>
        <time>2019-08-13T17:30:48Z</time>
      </trkpt>
      <trkpt lat="40.5045000" lon="-4.6758790">
        <ele>1259.7</ele>
        <time>2019-08-13T17:30:50Z</time>
      </trkpt>
      <trkpt lat="40.5045430" lon="-4.6758780">
        <ele>1259.9</ele>
        <time>2019-08-13T17:30:52Z</time>
      </trkpt>
      <trkpt lat="40.5045850" lon="-4.6758770">
        <ele>1260.1</ele>
        <time>2019-08-13T17:30:54Z</time>
      </trkpt>
      <trkpt lat="40.5046270" lon="-4.6758780">
        <ele>1260.3</ele>
        <time>2019-08-13T17:30:56Z</time>
      </trkpt>
      <trkpt lat="40.5046710" lon="-4.6758780">
        <ele>1260.5</ele>
        <time>2019-08-13T17:30:58Z</time>
      </trkpt>
      <trkpt lat="40.5047160" lon="-4.6758750">
        <ele>1260.7</ele>
        <time>2019-08-13T17:31:00Z</time>
      </trkpt>
      <trkpt lat="40.5047600" lon="-4.6758740">
        <ele>1260.9</ele>
        <time>2019-08-13T17:31:02Z</time>
      </trkpt>
      <trkpt lat="40.5048040" lon="-4.6758740">
        <ele>1261.1</ele>
        <time>2019-08-13T17:31:04Z</time>
      </trkpt>
      <trkpt lat="40.5048470" lon="-4.6758750">
        <ele>1261.2</ele>
        <time>2019-08-13T17:31:06Z</time>
      </trkpt>
      <trkpt lat="40.5048900" lon="-4.6758770">
        <ele>1261.4</ele>
        <time>2019-08-13T17:31:08Z</time>
      </trkpt>
      <trkpt lat="40.5049330" lon="-4.6758770">
        <ele>1261.5</ele>
        <time>2019-08-13T17:31:10Z</time>
      </trkpt>
      <trkpt lat="40.5049760" lon="-4.6758760">
        <ele>1261.7</ele>
        <time>2019-08-13T17:31:12Z</time>
      </trkpt>
      <trkpt lat="40.5050190" lon="-4.6758770">
        <ele>1261.9</ele>
        <time>2019-08-13T17:31:14Z</time>
      </trkpt>
      <trkpt lat="40.5050620" lon="-4.6758790">
        <ele>1262.0</ele>
        <time>2019-08-13T17:31:16Z</time>
      </trkpt>
      <trkpt lat="40.5051040" lon="-4.6758790">
        <ele>1262.2</ele>
        <time>2019-08-13T17:31:18Z</time>
      </trkpt>
      <trkpt lat="40.5051470" lon="-4.6758790">
        <ele>1262.4</ele>
        <time>2019-08-13T17:31:20Z</time>
      </trkpt>
      <trkpt lat="40.5051900" lon="-4.6758790">
        <ele>1262.5</ele>
        <time>2019-08-13T17:31:22Z</time>
      </trkpt>
      <trkpt lat="40.5052330" lon="-4.6758770">
        <ele>1262.7</ele>
        <time>2019-08-13T17:31:24Z</time>
      </trkpt>
      <trkpt lat="40.5052770" lon="-4.6758760">
        <ele>1263.0</ele>
        <time>2019-08-13T17:31:26Z</time>
      </trkpt>
      <trkpt lat="40.5053220" lon="-4.6758740">
        <ele>1263.3</ele>
        <time>2019-08-13T17:31:28Z</time>
      </trkpt>
      <trkpt lat="40.5053670" lon="-4.6758740">
        <ele>1263.6</ele>
        <time>2019-08-13T17:31:30Z</time>
      </trkpt>
      <trkpt lat="40.5054130" lon="-4.6758700">
        <ele>1264.0</ele>
        <time>2019-08-13T17:31:32Z</time>
      </trkpt>
      <trkpt lat="40.5054590" lon="-4.6758670">
        <ele>1264.4</ele>
        <time>2019-08-13T17:31:34Z</time>
      </trkpt>
      <trkpt lat="40.5055040" lon="-4.6758630">
        <ele>1264.9</ele>
        <time>2019-08-13T17:31:36Z</time>
      </trkpt>
      <trkpt lat="40.5055490" lon="-4.6758590">
        <ele>1265.3</ele>
        <time>2019-08-13T17:31:38Z</time>
      </trkpt>
      <trkpt lat="40.5055950" lon="-4.6758520">
        <ele>1265.7</ele>
        <time>2019-08-13T17:31:40Z</time>
      </trkpt>
      <trkpt lat="40.5056400" lon="-4.6758440">
        <ele>1266.0</ele>
        <time>2019-08-13T17:31:42Z</time>
      </trkpt>
      <trkpt lat="40.5056850" lon="-4.6758350">
        <ele>1266.3</ele>
        <time>2019-08-13T17:31:44Z</time>
      </trkpt>
      <trkpt lat="40.5057310" lon="-4.6758230">
        <ele>1266.6</ele>
        <time>2019-08-13T17:31:46Z</time>
      </trkpt>
      <trkpt lat="40.5057770" lon="-4.6758110">
        <ele>1266.9</ele>
        <time>2019-08-13T17:31:48Z</time>
      </trkpt>
      <trkpt lat="40.5058220" lon="-4.6757970">
        <ele>1267.1</ele>
        <time>2019-08-13T17:31:50Z</time>
      </trkpt>
      <trkpt lat="40.5058670" lon="-4.6757820">
        <ele>1267.3</ele>
        <time>2019-08-13T17:31:52Z</time>
      </trkpt>
      <trkpt lat="40.5059110" lon="-4.6757650">
        <ele>1267.5</ele>
        <time>2019-08-13T17:31:54Z</time>
      </trkpt>
      <trkpt lat="40.5059530" lon="-4.6757470">
        <ele>1267.7</ele>
        <time>2019-08-13T17:31:56Z</time>
      </trkpt>
      <trkpt lat="40.5059940" lon="-4.6757300">
        <ele>1267.9</ele>
        <time>2019-08-13T17:31:58Z</time>
      </trkpt>
      <trkpt lat="40.5060350" lon="-4.6757130">
        <ele>1268.1</ele>
        <time>2019-08-13T17:32:00Z</time>
      </trkpt>
      <trkpt lat="40.5060750" lon="-4.6756910">
        <ele>1268.4</ele>
        <time>2019-08-13T17:32:02Z</time>
      </trkpt>
      <trkpt lat="40.5061150" lon="-4.6756710">
        <ele>1268.6</ele>
        <time>2019-08-13T17:32:04Z</time>
      </trkpt>
      <trkpt lat="40.5061530" lon="-4.6756500">
        <ele>1268.9</ele>
        <time>2019-08-13T17:32:06Z</time>
      </trkpt>
      <trkpt lat="40.5061880" lon="-4.6756290">
        <ele>1269.1</ele>
        <time>2019-08-13T17:32:08Z</time>
      </trkpt>
      <trkpt lat="40.5062140" lon="-4.6756090">
        <ele>1269.3</ele>
        <time>2019-08-13T17:32:10Z</time>
      </trkpt>
      <trkpt lat="40.5062310" lon="-4.6755880">
        <ele>1269.5</ele>
        <time>2019-08-13T17:32:17Z</time>
      </trkpt>
      <trkpt lat="40.5061940" lon="-4.6755590">
        <ele>1269.7</ele>
        <time>2019-08-13T17:32:43Z</time>
      </trkpt>
      <trkpt lat="40.5062540" lon="-4.6755920">
        <ele>1270.2</ele>
        <time>2019-08-13T17:34:38Z</time>
      </trkpt>
      <trkpt lat="40.5062900" lon="-4.6755780">
        <ele>1270.4</ele>
        <time>2019-08-13T17:34:41Z</time>
      </trkpt>
      <trkpt lat="40.5063280" lon="-4.6755530">
        <ele>1270.7</ele>
        <time>2019-08-13T17:34:43Z</time>
      </trkpt>
      <trkpt lat="40.5063740" lon="-4.6755300">
        <ele>1271.0</ele>
        <time>2019-08-13T17:34:45Z</time>
      </trkpt>
      <trkpt lat="40.5063990" lon="-4.6755170">
        <ele>1271.1</ele>
        <time>2019-08-13T17:34:46Z</time>
      </trkpt>
      <trkpt lat="40.5064470" lon="-4.6754880">
        <ele>1271.5</ele>
        <time>2019-08-13T17:34:48Z</time>
      </trkpt>
      <trkpt lat="40.5064720" lon="-4.6754750">
        <ele>1271.7</ele>
        <time>2019-08-13T17:34:49Z</time>
      </trkpt>
      <trkpt lat="40.5065210" lon="-4.6754490">
        <ele>1272.1</ele>
        <time>2019-08-13T17:34:51Z</time>
      </trkpt>
      <trkpt lat="40.5065690" lon="-4.6754220">
        <ele>1272.4</ele>
        <time>2019-08-13T17:34:53Z</time>
      </trkpt>
      <trkpt lat="40.5066170" lon="-4.6753970">
        <ele>1272.8</ele>
        <time>2019-08-13T17:34:55Z</time>
      </trkpt>
      <trkpt lat="40.5066660" lon="-4.6753700">
        <ele>1273.2</ele>
        <time>2019-08-13T17:34:57Z</time>
      </trkpt>
      <trkpt lat="40.5066910" lon="-4.6753550">
        <ele>1273.3</ele>
        <time>2019-08-13T17:34:58Z</time>
      </trkpt>
      <trkpt lat="40.5067160" lon="-4.6753400">
        <ele>1273.5</ele>
        <time>2019-08-13T17:34:59Z</time>
      </trkpt>
      <trkpt lat="40.5067410" lon="-4.6753250">
        <ele>1273.7</ele>
        <time>2019-08-13T17:35:00Z</time>
      </trkpt>
      <trkpt lat="40.5067660" lon="-4.6753100">
        <ele>1273.8</ele>
        <time>2019-08-13T17:35:01Z</time>
      </trkpt>
      <trkpt lat="40.5067910" lon="-4.6752940">
        <ele>1274.0</ele>
        <time>2019-08-13T17:35:02Z</time>
      </trkpt>
      <trkpt lat="40.5068170" lon="-4.6752800">
        <ele>1274.1</ele>
        <time>2019-08-13T17:35:03Z</time>
      </trkpt>
      <trkpt lat="40.5068420" lon="-4.6752650">
        <ele>1274.3</ele>
        <time>2019-08-13T17:35:04Z</time>
      </trkpt>
      <trkpt lat="40.5068670" lon="-4.6752510">
        <ele>1274.4</ele>
        <time>2019-08-13T17:35:05Z</time>
      </trkpt>
      <trkpt lat="40.5068930" lon="-4.6752370">
        <ele>1274.6</ele>
        <time>2019-08-13T17:35:06Z</time>
      </trkpt>
      <trkpt lat="40.5069180" lon="-4.6752220">
        <ele>1274.7</ele>
        <time>2019-08-13T17:35:07Z</time>
      </trkpt>
      <trkpt lat="40.5069430" lon="-4.6752070">
        <ele>1274.9</ele>
        <time>2019-08-13T17:35:08Z</time>
      </trkpt>
      <trkpt lat="40.5069680" lon="-4.6751920">
        <ele>1275.0</ele>
        <time>2019-08-13T17:35:09Z</time>
      </trkpt>
      <trkpt lat="40.5069940" lon="-4.6751770">
        <ele>1275.2</ele>
        <time>2019-08-13T17:35:10Z</time>
      </trkpt>
      <trkpt lat="40.5070190" lon="-4.6751620">
        <ele>1275.4</ele>
        <time>2019-08-13T17:35:11Z</time>
      </trkpt>
      <trkpt lat="40.5070440" lon="-4.6751480">
        <ele>1275.5</ele>
        <time>2019-08-13T17:35:12Z</time>
      </trkpt>
      <trkpt lat="40.5070700" lon="-4.6751340">
        <ele>1275.7</ele>
        <time>2019-08-13T17:35:13Z</time>
      </trkpt>
      <trkpt lat="40.5070950" lon="-4.6751200">
        <ele>1275.9</ele>
        <time>2019-08-13T17:35:14Z</time>
      </trkpt>
      <trkpt lat="40.5071200" lon="-4.6751040">
        <ele>1276.0</ele>
        <time>2019-08-13T17:35:15Z</time>
      </trkpt>
      <trkpt lat="40.5071450" lon="-4.6750890">
        <ele>1276.2</ele>
        <time>2019-08-13T17:35:16Z</time>
      </trkpt>
      <trkpt lat="40.5071700" lon="-4.6750750">
        <ele>1276.3</ele>
        <time>2019-08-13T17:35:17Z</time>
      </trkpt>
      <trkpt lat="40.5072190" lon="-4.6750460">
        <ele>1276.6</ele>
        <time>2019-08-13T17:35:19Z</time>
      </trkpt>
      <trkpt lat="40.5072670" lon="-4.6750190">
        <ele>1276.9</ele>
        <time>2019-08-13T17:35:21Z</time>
      </trkpt>
      <trkpt lat="40.5073150" lon="-4.6749910">
        <ele>1277.2</ele>
        <time>2019-08-13T17:35:23Z</time>
      </trkpt>
      <trkpt lat="40.5073600" lon="-4.6749630">
        <ele>1277.5</ele>
        <time>2019-08-13T17:35:25Z</time>
      </trkpt>
      <trkpt lat="40.5074060" lon="-4.6749360">
        <ele>1277.9</ele>
        <time>2019-08-13T17:35:27Z</time>
      </trkpt>
      <trkpt lat="40.5074520" lon="-4.6749080">
        <ele>1278.3</ele>
        <time>2019-08-13T17:35:29Z</time>
      </trkpt>
      <trkpt lat="40.5074970" lon="-4.6748830">
        <ele>1278.7</ele>
        <time>2019-08-13T17:35:31Z</time>
      </trkpt>
      <trkpt lat="40.5075410" lon="-4.6748580">
        <ele>1279.0</ele>
        <time>2019-08-13T17:35:33Z</time>
      </trkpt>
      <trkpt lat="40.5075860" lon="-4.6748330">
        <ele>1279.4</ele>
        <time>2019-08-13T17:35:35Z</time>
      </trkpt>
      <trkpt lat="40.5076300" lon="-4.6748080">
        <ele>1279.7</ele>
        <time>2019-08-13T17:35:37Z</time>
      </trkpt>
      <trkpt lat="40.5076770" lon="-4.6747810">
        <ele>1280.0</ele>
        <time>2019-08-13T17:35:39Z</time>
      </trkpt>
      <trkpt lat="40.5077220" lon="-4.6747540">
        <ele>1280.3</ele>
        <time>2019-08-13T17:35:41Z</time>
      </trkpt>
      <trkpt lat="40.5077680" lon="-4.6747280">
        <ele>1280.6</ele>
        <time>2019-08-13T17:35:43Z</time>
      </trkpt>
      <trkpt lat="40.5078150" lon="-4.6747030">
        <ele>1280.9</ele>
        <time>2019-08-13T17:35:45Z</time>
      </trkpt>
      <trkpt lat="40.5078620" lon="-4.6746760">
        <ele>1281.1</ele>
        <time>2019-08-13T17:35:47Z</time>
      </trkpt>
      <trkpt lat="40.5079080" lon="-4.6746490">
        <ele>1281.3</ele>
        <time>2019-08-13T17:35:49Z</time>
      </trkpt>
      <trkpt lat="40.5079530" lon="-4.6746240">
        <ele>1281.5</ele>
        <time>2019-08-13T17:35:51Z</time>
      </trkpt>
      <trkpt lat="40.5079980" lon="-4.6745960">
        <ele>1281.7</ele>
        <time>2019-08-13T17:35:53Z</time>
      </trkpt>
      <trkpt lat="40.5080440" lon="-4.6745690">
        <ele>1281.9</ele>
        <time>2019-08-13T17:35:55Z</time>
      </trkpt>
      <trkpt lat="40.5080910" lon="-4.6745400">
        <ele>1282.2</ele>
        <time>2019-08-13T17:35:57Z</time>
      </trkpt>
      <trkpt lat="40.5081370" lon="-4.6745090">
        <ele>1282.5</ele>
        <time>2019-08-13T17:35:59Z</time>
      </trkpt>
      <trkpt lat="40.5081820" lon="-4.6744760">
        <ele>1282.9</ele>
        <time>2019-08-13T17:36:01Z</time>
      </trkpt>
      <trkpt lat="40.5082280" lon="-4.6744410">
        <ele>1283.3</ele>
        <time>2019-08-13T17:36:03Z</time>
      </trkpt>
      <trkpt lat="40.5082730" lon="-4.6744040">
        <ele>1283.7</ele>
        <time>2019-08-13T17:36:05Z</time>
      </trkpt>
      <trkpt lat="40.5083180" lon="-4.6743660">
        <ele>1284.1</ele>
        <time>2019-08-13T17:36:07Z</time>
      </trkpt>
      <trkpt lat="40.5083610" lon="-4.6743290">
        <ele>1284.5</ele>
        <time>2019-08-13T17:36:09Z</time>
      </trkpt>
      <trkpt lat="40.5084040" lon="-4.6742870">
        <ele>1284.8</ele>
        <time>2019-08-13T17:36:11Z</time>
      </trkpt>
      <trkpt lat="40.5084430" lon="-4.6742440">
        <ele>1285.1</ele>
        <time>2019-08-13T17:36:13Z</time>
      </trkpt>
      <trkpt lat="40.5084810" lon="-4.6742000">
        <ele>1285.4</ele>
        <time>2019-08-13T17:36:15Z</time>
      </trkpt>
      <trkpt lat="40.5085200" lon="-4.6741570">
        <ele>1285.6</ele>
        <time>2019-08-13T17:36:17Z</time>
      </trkpt>
      <trkpt lat="40.5085560" lon="-4.6741100">
        <ele>1285.8</ele>
        <time>2019-08-13T17:36:19Z</time>
      </trkpt>
      <trkpt lat="40.5085900" lon="-4.6740620">
        <ele>1286.0</ele>
        <time>2019-08-13T17:36:21Z</time>
      </trkpt>
      <trkpt lat="40.5086240" lon="-4.6740130">
        <ele>1286.3</ele>
        <time>2019-08-13T17:36:23Z</time>
      </trkpt>
      <trkpt lat="40.5086570" lon="-4.6739630">
        <ele>1286.6</ele>
        <time>2019-08-13T17:36:25Z</time>
      </trkpt>
      <trkpt lat="40.5086890" lon="-4.6739150">
        <ele>1286.9</ele>
        <time>2019-08-13T17:36:27Z</time>
      </trkpt>
      <trkpt lat="40.5087200" lon="-4.6738670">
        <ele>1287.2</ele>
        <time>2019-08-13T17:36:29Z</time>
      </trkpt>
      <trkpt lat="40.5087490" lon="-4.6738160">
        <ele>1287.6</ele>
        <time>2019-08-13T17:36:31Z</time>
      </trkpt>
      <trkpt lat="40.5087770" lon="-4.6737640">
        <ele>1288.0</ele>
        <time>2019-08-13T17:36:33Z</time>
      </trkpt>
      <trkpt lat="40.5088050" lon="-4.6737120">
        <ele>1288.4</ele>
        <time>2019-08-13T17:36:35Z</time>
      </trkpt>
      <trkpt lat="40.5088320" lon="-4.6736610">
        <ele>1288.7</ele>
        <time>2019-08-13T17:36:37Z</time>
      </trkpt>
      <trkpt lat="40.5088600" lon="-4.6736090">
        <ele>1289.2</ele>
        <time>2019-08-13T17:36:39Z</time>
      </trkpt>
      <trkpt lat="40.5088860" lon="-4.6735540">
        <ele>1289.6</ele>
        <time>2019-08-13T17:36:41Z</time>
      </trkpt>
      <trkpt lat="40.5089140" lon="-4.6735010">
        <ele>1290.0</ele>
        <time>2019-08-13T17:36:43Z</time>
      </trkpt>
      <trkpt lat="40.5089410" lon="-4.6734480">
        <ele>1290.4</ele>
        <time>2019-08-13T17:36:45Z</time>
      </trkpt>
      <trkpt lat="40.5089660" lon="-4.6733960">
        <ele>1290.7</ele>
        <time>2019-08-13T17:36:47Z</time>
      </trkpt>
      <trkpt lat="40.5089910" lon="-4.6733450">
        <ele>1291.0</ele>
        <time>2019-08-13T17:36:49Z</time>
      </trkpt>
      <trkpt lat="40.5090160" lon="-4.6732960">
        <ele>1291.3</ele>
        <time>2019-08-13T17:36:51Z</time>
      </trkpt>
      <trkpt lat="40.5090410" lon="-4.6732500">
        <ele>1291.6</ele>
        <time>2019-08-13T17:36:53Z</time>
      </trkpt>
      <trkpt lat="40.5090660" lon="-4.6732030">
        <ele>1291.9</ele>
        <time>2019-08-13T17:36:55Z</time>
      </trkpt>
      <trkpt lat="40.5090880" lon="-4.6731540">
        <ele>1292.2</ele>
        <time>2019-08-13T17:36:57Z</time>
      </trkpt>
      <trkpt lat="40.5091110" lon="-4.6731050">
        <ele>1292.4</ele>
        <time>2019-08-13T17:36:59Z</time>
      </trkpt>
      <trkpt lat="40.5091340" lon="-4.6730570">
        <ele>1292.7</ele>
        <time>2019-08-13T17:37:01Z</time>
      </trkpt>
      <trkpt lat="40.5091590" lon="-4.6730130">
        <ele>1293.0</ele>
        <time>2019-08-13T17:37:03Z</time>
      </trkpt>
      <trkpt lat="40.5091840" lon="-4.6729680">
        <ele>1293.3</ele>
        <time>2019-08-13T17:37:05Z</time>
      </trkpt>
      <trkpt lat="40.5092100" lon="-4.6729240">
        <ele>1293.6</ele>
        <time>2019-08-13T17:37:07Z</time>
      </trkpt>
      <trkpt lat="40.5092310" lon="-4.6728780">
        <ele>1293.9</ele>
        <time>2019-08-13T17:37:09Z</time>
      </trkpt>
      <trkpt lat="40.5092540" lon="-4.6728290">
        <ele>1294.2</ele>
        <time>2019-08-13T17:37:11Z</time>
      </trkpt>
      <trkpt lat="40.5092800" lon="-4.6727820">
        <ele>1294.5</ele>
        <time>2019-08-13T17:37:13Z</time>
      </trkpt>
      <trkpt lat="40.5093060" lon="-4.6727330">
        <ele>1294.8</ele>
        <time>2019-08-13T17:37:15Z</time>
      </trkpt>
      <trkpt lat="40.5093320" lon="-4.6726830">
        <ele>1295.1</ele>
        <time>2019-08-13T17:37:17Z</time>
      </trkpt>
      <trkpt lat="40.5093590" lon="-4.6726340">
        <ele>1295.4</ele>
        <time>2019-08-13T17:37:19Z</time>
      </trkpt>
      <trkpt lat="40.5093860" lon="-4.6725830">
        <ele>1295.7</ele>
        <time>2019-08-13T17:37:21Z</time>
      </trkpt>
      <trkpt lat="40.5094120" lon="-4.6725330">
        <ele>1295.9</ele>
        <time>2019-08-13T17:37:23Z</time>
      </trkpt>
      <trkpt lat="40.5094380" lon="-4.6724850">
        <ele>1296.2</ele>
        <time>2019-08-13T17:37:25Z</time>
      </trkpt>
      <trkpt lat="40.5094640" lon="-4.6724380">
        <ele>1296.4</ele>
        <time>2019-08-13T17:37:27Z</time>
      </trkpt>
      <trkpt lat="40.5094920" lon="-4.6723910">
        <ele>1296.7</ele>
        <time>2019-08-13T17:37:29Z</time>
      </trkpt>
      <trkpt lat="40.5095190" lon="-4.6723420">
        <ele>1296.9</ele>
        <time>2019-08-13T17:37:31Z</time>
      </trkpt>
      <trkpt lat="40.5095460" lon="-4.6722940">
        <ele>1297.1</ele>
        <time>2019-08-13T17:37:33Z</time>
      </trkpt>
      <trkpt lat="40.5095720" lon="-4.6722460">
        <ele>1297.2</ele>
        <time>2019-08-13T17:37:35Z</time>
      </trkpt>
      <trkpt lat="40.5095990" lon="-4.6721960">
        <ele>1297.4</ele>
        <time>2019-08-13T17:37:37Z</time>
      </trkpt>
      <trkpt lat="40.5096270" lon="-4.6721460">
        <ele>1297.5</ele>
        <time>2019-08-13T17:37:39Z</time>
      </trkpt>
      <trkpt lat="40.5096570" lon="-4.6720990">
        <ele>1297.6</ele>
        <time>2019-08-13T17:37:41Z</time>
      </trkpt>
      <trkpt lat="40.5096870" lon="-4.6720510">
        <ele>1297.8</ele>
        <time>2019-08-13T17:37:43Z</time>
      </trkpt>
      <trkpt lat="40.5097180" lon="-4.6720020">
        <ele>1297.9</ele>
        <time>2019-08-13T17:37:45Z</time>
      </trkpt>
      <trkpt lat="40.5097470" lon="-4.6719520">
        <ele>1298.0</ele>
        <time>2019-08-13T17:37:47Z</time>
      </trkpt>
      <trkpt lat="40.5097770" lon="-4.6719010">
        <ele>1298.1</ele>
        <time>2019-08-13T17:37:49Z</time>
      </trkpt>
      <trkpt lat="40.5098070" lon="-4.6718520">
        <ele>1298.3</ele>
        <time>2019-08-13T17:37:51Z</time>
      </trkpt>
      <trkpt lat="40.5098370" lon="-4.6718030">
        <ele>1298.5</ele>
        <time>2019-08-13T17:37:53Z</time>
      </trkpt>
      <trkpt lat="40.5098670" lon="-4.6717560">
        <ele>1298.7</ele>
        <time>2019-08-13T17:37:55Z</time>
      </trkpt>
      <trkpt lat="40.5098970" lon="-4.6717090">
        <ele>1299.0</ele>
        <time>2019-08-13T17:37:57Z</time>
      </trkpt>
      <trkpt lat="40.5099270" lon="-4.6716630">
        <ele>1299.3</ele>
        <time>2019-08-13T17:37:59Z</time>
      </trkpt>
      <trkpt lat="40.5099560" lon="-4.6716160">
        <ele>1299.7</ele>
        <time>2019-08-13T17:38:01Z</time>
      </trkpt>
      <trkpt lat="40.5099850" lon="-4.6715710">
        <ele>1300.0</ele>
        <time>2019-08-13T17:38:03Z</time>
      </trkpt>
      <trkpt lat="40.5100140" lon="-4.6715230">
        <ele>1300.5</ele>
        <time>2019-08-13T17:38:05Z</time>
      </trkpt>
      <trkpt lat="40.5100420" lon="-4.6714750">
        <ele>1300.9</ele>
        <time>2019-08-13T17:38:07Z</time>
      </trkpt>
      <trkpt lat="40.5100710" lon="-4.6714290">
        <ele>1301.3</ele>
        <time>2019-08-13T17:38:09Z</time>
      </trkpt>
      <trkpt lat="40.5100990" lon="-4.6713840">
        <ele>1301.7</ele>
        <time>2019-08-13T17:38:11Z</time>
      </trkpt>
      <trkpt lat="40.5101280" lon="-4.6713420">
        <ele>1302.1</ele>
        <time>2019-08-13T17:38:13Z</time>
      </trkpt>
      <trkpt lat="40.5101550" lon="-4.6712990">
        <ele>1302.4</ele>
        <time>2019-08-13T17:38:15Z</time>
      </trkpt>
      <trkpt lat="40.5101820" lon="-4.6712560">
        <ele>1302.7</ele>
        <time>2019-08-13T17:38:17Z</time>
      </trkpt>
      <trkpt lat="40.5102090" lon="-4.6712130">
        <ele>1303.0</ele>
        <time>2019-08-13T17:38:19Z</time>
      </trkpt>
      <trkpt lat="40.5102360" lon="-4.6711690">
        <ele>1303.3</ele>
        <time>2019-08-13T17:38:21Z</time>
      </trkpt>
      <trkpt lat="40.5102640" lon="-4.6711260">
        <ele>1303.6</ele>
        <time>2019-08-13T17:38:23Z</time>
      </trkpt>
      <trkpt lat="40.5102910" lon="-4.6710810">
        <ele>1303.9</ele>
        <time>2019-08-13T17:38:25Z</time>
      </trkpt>
      <trkpt lat="40.5103190" lon="-4.6710390">
        <ele>1304.2</ele>
        <time>2019-08-13T17:38:27Z</time>
      </trkpt>
      <trkpt lat="40.5103460" lon="-4.6709960">
        <ele>1304.4</ele>
        <time>2019-08-13T17:38:29Z</time>
      </trkpt>
      <trkpt lat="40.5103740" lon="-4.6709540">
        <ele>1304.7</ele>
        <time>2019-08-13T17:38:31Z</time>
      </trkpt>
      <trkpt lat="40.5104010" lon="-4.6709110">
        <ele>1305.0</ele>
        <time>2019-08-13T17:38:33Z</time>
      </trkpt>
      <trkpt lat="40.5104270" lon="-4.6708670">
        <ele>1305.2</ele>
        <time>2019-08-13T17:38:35Z</time>
      </trkpt>
      <trkpt lat="40.5104530" lon="-4.6708230">
        <ele>1305.4</ele>
        <time>2019-08-13T17:38:37Z</time>
      </trkpt>
      <trkpt lat="40.5104800" lon="-4.6707820">
        <ele>1305.7</ele>
        <time>2019-08-13T17:38:39Z</time>
      </trkpt>
      <trkpt lat="40.5105070" lon="-4.6707400">
        <ele>1305.9</ele>
        <time>2019-08-13T17:38:41Z</time>
      </trkpt>
      <trkpt lat="40.5105330" lon="-4.6706990">
        <ele>1306.2</ele>
        <time>2019-08-13T17:38:43Z</time>
      </trkpt>
      <trkpt lat="40.5105590" lon="-4.6706580">
        <ele>1306.4</ele>
        <time>2019-08-13T17:38:45Z</time>
      </trkpt>
      <trkpt lat="40.5105860" lon="-4.6706150">
        <ele>1306.7</ele>
        <time>2019-08-13T17:38:47Z</time>
      </trkpt>
      <trkpt lat="40.5106130" lon="-4.6705720">
        <ele>1307.0</ele>
        <time>2019-08-13T17:38:49Z</time>
      </trkpt>
      <trkpt lat="40.5106390" lon="-4.6705280">
        <ele>1307.3</ele>
        <time>2019-08-13T17:38:51Z</time>
      </trkpt>
      <trkpt lat="40.5106660" lon="-4.6704840">
        <ele>1307.6</ele>
        <time>2019-08-13T17:38:53Z</time>
      </trkpt>
      <trkpt lat="40.5106940" lon="-4.6704410">
        <ele>1307.9</ele>
        <time>2019-08-13T17:38:55Z</time>
      </trkpt>
      <trkpt lat="40.5107210" lon="-4.6703980">
        <ele>1308.2</ele>
        <time>2019-08-13T17:38:57Z</time>
      </trkpt>
      <trkpt lat="40.5107480" lon="-4.6703550">
        <ele>1308.4</ele>
        <time>2019-08-13T17:38:59Z</time>
      </trkpt>
      <trkpt lat="40.5107750" lon="-4.6703130">
        <ele>1308.7</ele>
        <time>2019-08-13T17:39:01Z</time>
      </trkpt>
      <trkpt lat="40.5108010" lon="-4.6702700">
        <ele>1308.9</ele>
        <time>2019-08-13T17:39:03Z</time>
      </trkpt>
      <trkpt lat="40.5108280" lon="-4.6702270">
        <ele>1309.2</ele>
        <time>2019-08-13T17:39:05Z</time>
      </trkpt>
      <trkpt lat="40.5108550" lon="-4.6701840">
        <ele>1309.4</ele>
        <time>2019-08-13T17:39:07Z</time>
      </trkpt>
      <trkpt lat="40.5108820" lon="-4.6701410">
        <ele>1309.7</ele>
        <time>2019-08-13T17:39:09Z</time>
      </trkpt>
      <trkpt lat="40.5109090" lon="-4.6700980">
        <ele>1309.9</ele>
        <time>2019-08-13T17:39:11Z</time>
      </trkpt>
      <trkpt lat="40.5109350" lon="-4.6700560">
        <ele>1310.1</ele>
        <time>2019-08-13T17:39:13Z</time>
      </trkpt>
      <trkpt lat="40.5109620" lon="-4.6700130">
        <ele>1310.4</ele>
        <time>2019-08-13T17:39:15Z</time>
      </trkpt>
      <trkpt lat="40.5109900" lon="-4.6699710">
        <ele>1310.6</ele>
        <time>2019-08-13T17:39:17Z</time>
      </trkpt>
      <trkpt lat="40.5110180" lon="-4.6699280">
        <ele>1310.9</ele>
        <time>2019-08-13T17:39:19Z</time>
      </trkpt>
      <trkpt lat="40.5110450" lon="-4.6698850">
        <ele>1311.1</ele>
        <time>2019-08-13T17:39:21Z</time>
      </trkpt>
      <trkpt lat="40.5110720" lon="-4.6698430">
        <ele>1311.3</ele>
        <time>2019-08-13T17:39:23Z</time>
      </trkpt>
      <trkpt lat="40.5111000" lon="-4.6698020">
        <ele>1311.5</ele>
        <time>2019-08-13T17:39:25Z</time>
      </trkpt>
      <trkpt lat="40.5111280" lon="-4.6697600">
        <ele>1311.7</ele>
        <time>2019-08-13T17:39:27Z</time>
      </trkpt>
      <trkpt lat="40.5111540" lon="-4.6697190">
        <ele>1311.9</ele>
        <time>2019-08-13T17:39:29Z</time>
      </trkpt>
      <trkpt lat="40.5111800" lon="-4.6696770">
        <ele>1312.1</ele>
        <time>2019-08-13T17:39:31Z</time>
      </trkpt>
      <trkpt lat="40.5112080" lon="-4.6696380">
        <ele>1312.2</ele>
        <time>2019-08-13T17:39:33Z</time>
      </trkpt>
      <trkpt lat="40.5112370" lon="-4.6696000">
        <ele>1312.3</ele>
        <time>2019-08-13T17:39:35Z</time>
      </trkpt>
      <trkpt lat="40.5112640" lon="-4.6695580">
        <ele>1312.5</ele>
        <time>2019-08-13T17:39:37Z</time>
      </trkpt>
      <trkpt lat="40.5112910" lon="-4.6695150">
        <ele>1312.6</ele>
        <time>2019-08-13T17:39:39Z</time>
      </trkpt>
      <trkpt lat="40.5113180" lon="-4.6694740">
        <ele>1312.8</ele>
        <time>2019-08-13T17:39:41Z</time>
      </trkpt>
      <trkpt lat="40.5113470" lon="-4.6694350">
        <ele>1313.0</ele>
        <time>2019-08-13T17:39:43Z</time>
      </trkpt>
      <trkpt lat="40.5113750" lon="-4.6693950">
        <ele>1313.2</ele>
        <time>2019-08-13T17:39:45Z</time>
      </trkpt>
      <trkpt lat="40.5114020" lon="-4.6693560">
        <ele>1313.4</ele>
        <time>2019-08-13T17:39:47Z</time>
      </trkpt>
      <trkpt lat="40.5114290" lon="-4.6693160">
        <ele>1313.7</ele>
        <time>2019-08-13T17:39:49Z</time>
      </trkpt>
      <trkpt lat="40.5114580" lon="-4.6692770">
        <ele>1314.0</ele>
        <time>2019-08-13T17:39:51Z</time>
      </trkpt>
      <trkpt lat="40.5114890" lon="-4.6692370">
        <ele>1314.3</ele>
        <time>2019-08-13T17:39:53Z</time>
      </trkpt>
      <trkpt lat="40.5115210" lon="-4.6691960">
        <ele>1314.6</ele>
        <time>2019-08-13T17:39:55Z</time>
      </trkpt>
      <trkpt lat="40.5115520" lon="-4.6691540">
        <ele>1314.9</ele>
        <time>2019-08-13T17:39:57Z</time>
      </trkpt>
      <trkpt lat="40.5115830" lon="-4.6691120">
        <ele>1315.2</ele>
        <time>2019-08-13T17:39:59Z</time>
      </trkpt>
      <trkpt lat="40.5116170" lon="-4.6690690">
        <ele>1315.4</ele>
        <time>2019-08-13T17:40:01Z</time>
      </trkpt>
      <trkpt lat="40.5116500" lon="-4.6690280">
        <ele>1315.7</ele>
        <time>2019-08-13T17:40:03Z</time>
      </trkpt>
      <trkpt lat="40.5116830" lon="-4.6689880">
        <ele>1315.9</ele>
        <time>2019-08-13T17:40:05Z</time>
      </trkpt>
      <trkpt lat="40.5117170" lon="-4.6689470">
        <ele>1316.2</ele>
        <time>2019-08-13T17:40:07Z</time>
      </trkpt>
      <trkpt lat="40.5117500" lon="-4.6689050">
        <ele>1316.4</ele>
        <time>2019-08-13T17:40:09Z</time>
      </trkpt>
      <trkpt lat="40.5117820" lon="-4.6688640">
        <ele>1316.7</ele>
        <time>2019-08-13T17:40:11Z</time>
      </trkpt>
      <trkpt lat="40.5118170" lon="-4.6688230">
        <ele>1316.9</ele>
        <time>2019-08-13T17:40:13Z</time>
      </trkpt>
      <trkpt lat="40.5118520" lon="-4.6687830">
        <ele>1317.2</ele>
        <time>2019-08-13T17:40:15Z</time>
      </trkpt>
      <trkpt lat="40.5118870" lon="-4.6687410">
        <ele>1317.5</ele>
        <time>2019-08-13T17:40:17Z</time>
      </trkpt>
      <trkpt lat="40.5119230" lon="-4.6687000">
        <ele>1317.8</ele>
        <time>2019-08-13T17:40:19Z</time>
      </trkpt>
      <trkpt lat="40.5119580" lon="-4.6686580">
        <ele>1318.2</ele>
        <time>2019-08-13T17:40:21Z</time>
      </trkpt>
      <trkpt lat="40.5119940" lon="-4.6686160">
        <ele>1318.5</ele>
        <time>2019-08-13T17:40:23Z</time>
      </trkpt>
      <trkpt lat="40.5120300" lon="-4.6685740">
        <ele>1318.8</ele>
        <time>2019-08-13T17:40:25Z</time>
      </trkpt>
      <trkpt lat="40.5120650" lon="-4.6685330">
        <ele>1319.1</ele>
        <time>2019-08-13T17:40:27Z</time>
      </trkpt>
      <trkpt lat="40.5121000" lon="-4.6684900">
        <ele>1319.5</ele>
        <time>2019-08-13T17:40:29Z</time>
      </trkpt>
      <trkpt lat="40.5121350" lon="-4.6684470">
        <ele>1319.8</ele>
        <time>2019-08-13T17:40:31Z</time>
      </trkpt>
      <trkpt lat="40.5121690" lon="-4.6684060">
        <ele>1320.1</ele>
        <time>2019-08-13T17:40:33Z</time>
      </trkpt>
      <trkpt lat="40.5122040" lon="-4.6683650">
        <ele>1320.4</ele>
        <time>2019-08-13T17:40:35Z</time>
      </trkpt>
      <trkpt lat="40.5122390" lon="-4.6683250">
        <ele>1320.7</ele>
        <time>2019-08-13T17:40:37Z</time>
      </trkpt>
      <trkpt lat="40.5122720" lon="-4.6682830">
        <ele>1321.0</ele>
        <time>2019-08-13T17:40:39Z</time>
      </trkpt>
      <trkpt lat="40.5123060" lon="-4.6682400">
        <ele>1321.3</ele>
        <time>2019-08-13T17:40:41Z</time>
      </trkpt>
      <trkpt lat="40.5123390" lon="-4.6681970">
        <ele>1321.7</ele>
        <time>2019-08-13T17:40:43Z</time>
      </trkpt>
      <trkpt lat="40.5123740" lon="-4.6681560">
        <ele>1322.0</ele>
        <time>2019-08-13T17:40:45Z</time>
      </trkpt>
      <trkpt lat="40.5124080" lon="-4.6681110">
        <ele>1322.3</ele>
        <time>2019-08-13T17:40:47Z</time>
      </trkpt>
      <trkpt lat="40.5124400" lon="-4.6680640">
        <ele>1322.6</ele>
        <time>2019-08-13T17:40:49Z</time>
      </trkpt>
      <trkpt lat="40.5124730" lon="-4.6680190">
        <ele>1323.0</ele>
        <time>2019-08-13T17:40:51Z</time>
      </trkpt>
      <trkpt lat="40.5125050" lon="-4.6679720">
        <ele>1323.3</ele>
        <time>2019-08-13T17:40:53Z</time>
      </trkpt>
      <trkpt lat="40.5125360" lon="-4.6679240">
        <ele>1323.6</ele>
        <time>2019-08-13T17:40:55Z</time>
      </trkpt>
      <trkpt lat="40.5125660" lon="-4.6678770">
        <ele>1323.9</ele>
        <time>2019-08-13T17:40:57Z</time>
      </trkpt>
      <trkpt lat="40.5125940" lon="-4.6678300">
        <ele>1324.3</ele>
        <time>2019-08-13T17:40:59Z</time>
      </trkpt>
      <trkpt lat="40.5126220" lon="-4.6677830">
        <ele>1324.6</ele>
        <time>2019-08-13T17:41:01Z</time>
      </trkpt>
      <trkpt lat="40.5126490" lon="-4.6677370">
        <ele>1324.9</ele>
        <time>2019-08-13T17:41:03Z</time>
      </trkpt>
      <trkpt lat="40.5126760" lon="-4.6676890">
        <ele>1325.3</ele>
        <time>2019-08-13T17:41:05Z</time>
      </trkpt>
      <trkpt lat="40.5127020" lon="-4.6676400">
        <ele>1325.6</ele>
        <time>2019-08-13T17:41:07Z</time>
      </trkpt>
      <trkpt lat="40.5127280" lon="-4.6675910">
        <ele>1326.0</ele>
        <time>2019-08-13T17:41:09Z</time>
      </trkpt>
      <trkpt lat="40.5127530" lon="-4.6675410">
        <ele>1326.4</ele>
        <time>2019-08-13T17:41:11Z</time>
      </trkpt>
      <trkpt lat="40.5127780" lon="-4.6674900">
        <ele>1326.9</ele>
        <time>2019-08-13T17:41:13Z</time>
      </trkpt>
      <trkpt lat="40.5128040" lon="-4.6674390">
        <ele>1327.3</ele>
        <time>2019-08-13T17:41:15Z</time>
      </trkpt>
      <trkpt lat="40.5128300" lon="-4.6673860">
        <ele>1327.7</ele>
        <time>2019-08-13T17:41:17Z</time>
      </trkpt>
      <trkpt lat="40.5128570" lon="-4.6673320">
        <ele>1328.1</ele>
        <time>2019-08-13T17:41:19Z</time>
      </trkpt>
      <trkpt lat="40.5128830" lon="-4.6672780">
        <ele>1328.5</ele>
        <time>2019-08-13T17:41:21Z</time>
      </trkpt>
      <trkpt lat="40.5129100" lon="-4.6672260">
        <ele>1328.9</ele>
        <time>2019-08-13T17:41:23Z</time>
      </trkpt>
      <trkpt lat="40.5129360" lon="-4.6671740">
        <ele>1329.3</ele>
        <time>2019-08-13T17:41:25Z</time>
      </trkpt>
      <trkpt lat="40.5129610" lon="-4.6671190">
        <ele>1329.7</ele>
        <time>2019-08-13T17:41:27Z</time>
      </trkpt>
      <trkpt lat="40.5129860" lon="-4.6670670">
        <ele>1330.0</ele>
        <time>2019-08-13T17:41:29Z</time>
      </trkpt>
      <trkpt lat="40.5130130" lon="-4.6670130">
        <ele>1330.2</ele>
        <time>2019-08-13T17:41:31Z</time>
      </trkpt>
      <trkpt lat="40.5130390" lon="-4.6669580">
        <ele>1330.5</ele>
        <time>2019-08-13T17:41:33Z</time>
      </trkpt>
      <trkpt lat="40.5130640" lon="-4.6669030">
        <ele>1330.7</ele>
        <time>2019-08-13T17:41:35Z</time>
      </trkpt>
      <trkpt lat="40.5130910" lon="-4.6668490">
        <ele>1331.0</ele>
        <time>2019-08-13T17:41:37Z</time>
      </trkpt>
      <trkpt lat="40.5131180" lon="-4.6667940">
        <ele>1331.2</ele>
        <time>2019-08-13T17:41:39Z</time>
      </trkpt>
      <trkpt lat="40.5131440" lon="-4.6667390">
        <ele>1331.4</ele>
        <time>2019-08-13T17:41:41Z</time>
      </trkpt>
      <trkpt lat="40.5131700" lon="-4.6666850">
        <ele>1331.7</ele>
        <time>2019-08-13T17:41:43Z</time>
      </trkpt>
      <trkpt lat="40.5131960" lon="-4.6666320">
        <ele>1332.0</ele>
        <time>2019-08-13T17:41:45Z</time>
      </trkpt>
      <trkpt lat="40.5132220" lon="-4.6665790">
        <ele>1332.2</ele>
        <time>2019-08-13T17:41:47Z</time>
      </trkpt>
      <trkpt lat="40.5132490" lon="-4.6665240">
        <ele>1332.5</ele>
        <time>2019-08-13T17:41:49Z</time>
      </trkpt>
      <trkpt lat="40.5132740" lon="-4.6664690">
        <ele>1332.8</ele>
        <time>2019-08-13T17:41:51Z</time>
      </trkpt>
      <trkpt lat="40.5133000" lon="-4.6664150">
        <ele>1333.1</ele>
        <time>2019-08-13T17:41:53Z</time>
      </trkpt>
      <trkpt lat="40.5133270" lon="-4.6663610">
        <ele>1333.3</ele>
        <time>2019-08-13T17:41:55Z</time>
      </trkpt>
      <trkpt lat="40.5133530" lon="-4.6663070">
        <ele>1333.5</ele>
        <time>2019-08-13T17:41:57Z</time>
      </trkpt>
      <trkpt lat="40.5133790" lon="-4.6662530">
        <ele>1333.8</ele>
        <time>2019-08-13T17:41:59Z</time>
      </trkpt>
      <trkpt lat="40.5134060" lon="-4.6662010">
        <ele>1334.0</ele>
        <time>2019-08-13T17:42:01Z</time>
      </trkpt>
      <trkpt lat="40.5134320" lon="-4.6661470">
        <ele>1334.2</ele>
        <time>2019-08-13T17:42:03Z</time>
      </trkpt>
      <trkpt lat="40.5134570" lon="-4.6660930">
        <ele>1334.4</ele>
        <time>2019-08-13T17:42:05Z</time>
      </trkpt>
      <trkpt lat="40.5134790" lon="-4.6660470">
        <ele>1334.6</ele>
        <time>2019-08-13T17:42:07Z</time>
      </trkpt>
      <trkpt lat="40.5135040" lon="-4.6659960">
        <ele>1334.8</ele>
        <time>2019-08-13T17:42:09Z</time>
      </trkpt>
      <trkpt lat="40.5135300" lon="-4.6659420">
        <ele>1335.0</ele>
        <time>2019-08-13T17:42:11Z</time>
      </trkpt>
      <trkpt lat="40.5135570" lon="-4.6658890">
        <ele>1335.2</ele>
        <time>2019-08-13T17:42:13Z</time>
      </trkpt>
      <trkpt lat="40.5135820" lon="-4.6658360">
        <ele>1335.4</ele>
        <time>2019-08-13T17:42:15Z</time>
      </trkpt>
      <trkpt lat="40.5136070" lon="-4.6657830">
        <ele>1335.5</ele>
        <time>2019-08-13T17:42:17Z</time>
      </trkpt>
      <trkpt lat="40.5136310" lon="-4.6657310">
        <ele>1335.7</ele>
        <time>2019-08-13T17:42:19Z</time>
      </trkpt>
      <trkpt lat="40.5136560" lon="-4.6656800">
        <ele>1335.9</ele>
        <time>2019-08-13T17:42:21Z</time>
      </trkpt>
      <trkpt lat="40.5136820" lon="-4.6656300">
        <ele>1336.1</ele>
        <time>2019-08-13T17:42:23Z</time>
      </trkpt>
      <trkpt lat="40.5137070" lon="-4.6655780">
        <ele>1336.4</ele>
        <time>2019-08-13T17:42:25Z</time>
      </trkpt>
      <trkpt lat="40.5137310" lon="-4.6655250">
        <ele>1336.6</ele>
        <time>2019-08-13T17:42:27Z</time>
      </trkpt>
      <trkpt lat="40.5137560" lon="-4.6654720">
        <ele>1336.9</ele>
        <time>2019-08-13T17:42:29Z</time>
      </trkpt>
      <trkpt lat="40.5137800" lon="-4.6654220">
        <ele>1337.1</ele>
        <time>2019-08-13T17:42:31Z</time>
      </trkpt>
      <trkpt lat="40.5138040" lon="-4.6653710">
        <ele>1337.4</ele>
        <time>2019-08-13T17:42:33Z</time>
      </trkpt>
      <trkpt lat="40.5138280" lon="-4.6653200">
        <ele>1337.7</ele>
        <time>2019-08-13T17:42:35Z</time>
      </trkpt>
      <trkpt lat="40.5138530" lon="-4.6652700">
        <ele>1337.9</ele>
        <time>2019-08-13T17:42:37Z</time>
      </trkpt>
      <trkpt lat="40.5138780" lon="-4.6652200">
        <ele>1338.2</ele>
        <time>2019-08-13T17:42:39Z</time>
      </trkpt>
      <trkpt lat="40.5139020" lon="-4.6651700">
        <ele>1338.4</ele>
        <time>2019-08-13T17:42:41Z</time>
      </trkpt>
      <trkpt lat="40.5139250" lon="-4.6651210">
        <ele>1338.7</ele>
        <time>2019-08-13T17:42:43Z</time>
      </trkpt>
      <trkpt lat="40.5139490" lon="-4.6650720">
        <ele>1338.9</ele>
        <time>2019-08-13T17:42:45Z</time>
      </trkpt>
      <trkpt lat="40.5139730" lon="-4.6650220">
        <ele>1339.2</ele>
        <time>2019-08-13T17:42:47Z</time>
      </trkpt>
      <trkpt lat="40.5139970" lon="-4.6649720">
        <ele>1339.4</ele>
        <time>2019-08-13T17:42:49Z</time>
      </trkpt>
      <trkpt lat="40.5140220" lon="-4.6649220">
        <ele>1339.6</ele>
        <time>2019-08-13T17:42:51Z</time>
      </trkpt>
      <trkpt lat="40.5140430" lon="-4.6648790">
        <ele>1339.8</ele>
        <time>2019-08-13T17:42:53Z</time>
      </trkpt>
      <trkpt lat="40.5140630" lon="-4.6648390">
        <ele>1339.9</ele>
        <time>2019-08-13T17:42:55Z</time>
      </trkpt>
      <trkpt lat="40.5140850" lon="-4.6647940">
        <ele>1340.1</ele>
        <time>2019-08-13T17:42:57Z</time>
      </trkpt>
      <trkpt lat="40.5141100" lon="-4.6647440">
        <ele>1340.4</ele>
        <time>2019-08-13T17:42:59Z</time>
      </trkpt>
      <trkpt lat="40.5141340" lon="-4.6646920">
        <ele>1340.7</ele>
        <time>2019-08-13T17:43:01Z</time>
      </trkpt>
      <trkpt lat="40.5141610" lon="-4.6646380">
        <ele>1340.9</ele>
        <time>2019-08-13T17:43:03Z</time>
      </trkpt>
      <trkpt lat="40.5141880" lon="-4.6645840">
        <ele>1341.3</ele>
        <time>2019-08-13T17:43:05Z</time>
      </trkpt>
      <trkpt lat="40.5142130" lon="-4.6645310">
        <ele>1341.6</ele>
        <time>2019-08-13T17:43:07Z</time>
      </trkpt>
      <trkpt lat="40.5142390" lon="-4.6644810">
        <ele>1341.9</ele>
        <time>2019-08-13T17:43:09Z</time>
      </trkpt>
      <trkpt lat="40.5142660" lon="-4.6644310">
        <ele>1342.2</ele>
        <time>2019-08-13T17:43:11Z</time>
      </trkpt>
      <trkpt lat="40.5142940" lon="-4.6643800">
        <ele>1342.5</ele>
        <time>2019-08-13T17:43:13Z</time>
      </trkpt>
      <trkpt lat="40.5143210" lon="-4.6643280">
        <ele>1342.7</ele>
        <time>2019-08-13T17:43:15Z</time>
      </trkpt>
      <trkpt lat="40.5143500" lon="-4.6642780">
        <ele>1343.0</ele>
        <time>2019-08-13T17:43:17Z</time>
      </trkpt>
      <trkpt lat="40.5143770" lon="-4.6642280">
        <ele>1343.3</ele>
        <time>2019-08-13T17:43:19Z</time>
      </trkpt>
      <trkpt lat="40.5144040" lon="-4.6641790">
        <ele>1343.5</ele>
        <time>2019-08-13T17:43:21Z</time>
      </trkpt>
      <trkpt lat="40.5144330" lon="-4.6641260">
        <ele>1343.7</ele>
        <time>2019-08-13T17:43:23Z</time>
      </trkpt>
      <trkpt lat="40.5144640" lon="-4.6640740">
        <ele>1343.9</ele>
        <time>2019-08-13T17:43:25Z</time>
      </trkpt>
      <trkpt lat="40.5144940" lon="-4.6640200">
        <ele>1344.1</ele>
        <time>2019-08-13T17:43:27Z</time>
      </trkpt>
      <trkpt lat="40.5145240" lon="-4.6639690">
        <ele>1344.3</ele>
        <time>2019-08-13T17:43:29Z</time>
      </trkpt>
      <trkpt lat="40.5145540" lon="-4.6639190">
        <ele>1344.5</ele>
        <time>2019-08-13T17:43:31Z</time>
      </trkpt>
      <trkpt lat="40.5145840" lon="-4.6638690">
        <ele>1344.7</ele>
        <time>2019-08-13T17:43:33Z</time>
      </trkpt>
      <trkpt lat="40.5146150" lon="-4.6638220">
        <ele>1344.9</ele>
        <time>2019-08-13T17:43:35Z</time>
      </trkpt>
      <trkpt lat="40.5146470" lon="-4.6637740">
        <ele>1345.1</ele>
        <time>2019-08-13T17:43:37Z</time>
      </trkpt>
      <trkpt lat="40.5146780" lon="-4.6637240">
        <ele>1345.3</ele>
        <time>2019-08-13T17:43:39Z</time>
      </trkpt>
      <trkpt lat="40.5147110" lon="-4.6636770">
        <ele>1345.5</ele>
        <time>2019-08-13T17:43:41Z</time>
      </trkpt>
      <trkpt lat="40.5147420" lon="-4.6636300">
        <ele>1345.7</ele>
        <time>2019-08-13T17:43:43Z</time>
      </trkpt>
      <trkpt lat="40.5147750" lon="-4.6635830">
        <ele>1345.9</ele>
        <time>2019-08-13T17:43:45Z</time>
      </trkpt>
      <trkpt lat="40.5148060" lon="-4.6635370">
        <ele>1346.1</ele>
        <time>2019-08-13T17:43:47Z</time>
      </trkpt>
      <trkpt lat="40.5148370" lon="-4.6634920">
        <ele>1346.3</ele>
        <time>2019-08-13T17:43:49Z</time>
      </trkpt>
      <trkpt lat="40.5148680" lon="-4.6634500">
        <ele>1346.5</ele>
        <time>2019-08-13T17:43:51Z</time>
      </trkpt>
      <trkpt lat="40.5149010" lon="-4.6634090">
        <ele>1346.7</ele>
        <time>2019-08-13T17:43:53Z</time>
      </trkpt>
      <trkpt lat="40.5149320" lon="-4.6633660">
        <ele>1346.9</ele>
        <time>2019-08-13T17:43:55Z</time>
      </trkpt>
      <trkpt lat="40.5149650" lon="-4.6633220">
        <ele>1347.1</ele>
        <time>2019-08-13T17:43:57Z</time>
      </trkpt>
      <trkpt lat="40.5149980" lon="-4.6632770">
        <ele>1347.3</ele>
        <time>2019-08-13T17:43:59Z</time>
      </trkpt>
      <trkpt lat="40.5150330" lon="-4.6632340">
        <ele>1347.5</ele>
        <time>2019-08-13T17:44:01Z</time>
      </trkpt>
      <trkpt lat="40.5150680" lon="-4.6631900">
        <ele>1347.7</ele>
        <time>2019-08-13T17:44:03Z</time>
      </trkpt>
      <trkpt lat="40.5151030" lon="-4.6631450">
        <ele>1347.9</ele>
        <time>2019-08-13T17:44:05Z</time>
      </trkpt>
      <trkpt lat="40.5151370" lon="-4.6631020">
        <ele>1348.0</ele>
        <time>2019-08-13T17:44:07Z</time>
      </trkpt>
      <trkpt lat="40.5151720" lon="-4.6630600">
        <ele>1348.2</ele>
        <time>2019-08-13T17:44:09Z</time>
      </trkpt>
      <trkpt lat="40.5152080" lon="-4.6630180">
        <ele>1348.4</ele>
        <time>2019-08-13T17:44:11Z</time>
      </trkpt>
      <trkpt lat="40.5152450" lon="-4.6629770">
        <ele>1348.7</ele>
        <time>2019-08-13T17:44:13Z</time>
      </trkpt>
      <trkpt lat="40.5152820" lon="-4.6629340">
        <ele>1349.0</ele>
        <time>2019-08-13T17:44:15Z</time>
      </trkpt>
      <trkpt lat="40.5153210" lon="-4.6628940">
        <ele>1349.3</ele>
        <time>2019-08-13T17:44:17Z</time>
      </trkpt>
      <trkpt lat="40.5153600" lon="-4.6628510">
        <ele>1349.8</ele>
        <time>2019-08-13T17:44:19Z</time>
      </trkpt>
      <trkpt lat="40.5153970" lon="-4.6628090">
        <ele>1350.2</ele>
        <time>2019-08-13T17:44:21Z</time>
      </trkpt>
      <trkpt lat="40.5154330" lon="-4.6627660">
        <ele>1350.6</ele>
        <time>2019-08-13T17:44:23Z</time>
      </trkpt>
      <trkpt lat="40.5154690" lon="-4.6627250">
        <ele>1351.0</ele>
        <time>2019-08-13T17:44:25Z</time>
      </trkpt>
      <trkpt lat="40.5155060" lon="-4.6626860">
        <ele>1351.4</ele>
        <time>2019-08-13T17:44:27Z</time>
      </trkpt>
      <trkpt lat="40.5155430" lon="-4.6626470">
        <ele>1351.7</ele>
        <time>2019-08-13T17:44:29Z</time>
      </trkpt>
      <trkpt lat="40.5155800" lon="-4.6626060">
        <ele>1352.1</ele>
        <time>2019-08-13T17:44:31Z</time>
      </trkpt>
      <trkpt lat="40.5156160" lon="-4.6625650">
        <ele>1352.3</ele>
        <time>2019-08-13T17:44:33Z</time>
      </trkpt>
      <trkpt lat="40.5156520" lon="-4.6625250">
        <ele>1352.6</ele>
        <time>2019-08-13T17:44:35Z</time>
      </trkpt>
      <trkpt lat="40.5156890" lon="-4.6624840">
        <ele>1352.9</ele>
        <time>2019-08-13T17:44:37Z</time>
      </trkpt>
      <trkpt lat="40.5157260" lon="-4.6624440">
        <ele>1353.1</ele>
        <time>2019-08-13T17:44:39Z</time>
      </trkpt>
      <trkpt lat="40.5157630" lon="-4.6624020">
        <ele>1353.3</ele>
        <time>2019-08-13T17:44:41Z</time>
      </trkpt>
      <trkpt lat="40.5158010" lon="-4.6623600">
        <ele>1353.5</ele>
        <time>2019-08-13T17:44:43Z</time>
      </trkpt>
      <trkpt lat="40.5158390" lon="-4.6623170">
        <ele>1353.7</ele>
        <time>2019-08-13T17:44:45Z</time>
      </trkpt>
      <trkpt lat="40.5158770" lon="-4.6622740">
        <ele>1353.9</ele>
        <time>2019-08-13T17:44:47Z</time>
      </trkpt>
      <trkpt lat="40.5159150" lon="-4.6622300">
        <ele>1354.1</ele>
        <time>2019-08-13T17:44:49Z</time>
      </trkpt>
      <trkpt lat="40.5159520" lon="-4.6621870">
        <ele>1354.3</ele>
        <time>2019-08-13T17:44:51Z</time>
      </trkpt>
      <trkpt lat="40.5159860" lon="-4.6621460">
        <ele>1354.5</ele>
        <time>2019-08-13T17:44:53Z</time>
      </trkpt>
      <trkpt lat="40.5160190" lon="-4.6620980">
        <ele>1354.7</ele>
        <time>2019-08-13T17:44:55Z</time>
      </trkpt>
      <trkpt lat="40.5160510" lon="-4.6620490">
        <ele>1354.8</ele>
        <time>2019-08-13T17:44:57Z</time>
      </trkpt>
      <trkpt lat="40.5160830" lon="-4.6620000">
        <ele>1355.0</ele>
        <time>2019-08-13T17:44:59Z</time>
      </trkpt>
      <trkpt lat="40.5161120" lon="-4.6619480">
        <ele>1355.2</ele>
        <time>2019-08-13T17:45:01Z</time>
      </trkpt>
      <trkpt lat="40.5161390" lon="-4.6618940">
        <ele>1355.4</ele>
        <time>2019-08-13T17:45:03Z</time>
      </trkpt>
      <trkpt lat="40.5161640" lon="-4.6618370">
        <ele>1355.5</ele>
        <time>2019-08-13T17:45:05Z</time>
      </trkpt>
      <trkpt lat="40.5161870" lon="-4.6617790">
        <ele>1355.7</ele>
        <time>2019-08-13T17:45:07Z</time>
      </trkpt>
      <trkpt lat="40.5162090" lon="-4.6617210">
        <ele>1355.8</ele>
        <time>2019-08-13T17:45:09Z</time>
      </trkpt>
      <trkpt lat="40.5162300" lon="-4.6616610">
        <ele>1356.0</ele>
        <time>2019-08-13T17:45:11Z</time>
      </trkpt>
      <trkpt lat="40.5162500" lon="-4.6616000">
        <ele>1356.1</ele>
        <time>2019-08-13T17:45:13Z</time>
      </trkpt>
      <trkpt lat="40.5162700" lon="-4.6615390">
        <ele>1356.3</ele>
        <time>2019-08-13T17:45:15Z</time>
      </trkpt>
      <trkpt lat="40.5162880" lon="-4.6614770">
        <ele>1356.5</ele>
        <time>2019-08-13T17:45:17Z</time>
      </trkpt>
      <trkpt lat="40.5163030" lon="-4.6614170">
        <ele>1356.7</ele>
        <time>2019-08-13T17:45:19Z</time>
      </trkpt>
      <trkpt lat="40.5163170" lon="-4.6613680">
        <ele>1356.8</ele>
        <time>2019-08-13T17:45:21Z</time>
      </trkpt>
      <trkpt lat="40.5163320" lon="-4.6613120">
        <ele>1357.0</ele>
        <time>2019-08-13T17:45:23Z</time>
      </trkpt>
      <trkpt lat="40.5163480" lon="-4.6612530">
        <ele>1357.2</ele>
        <time>2019-08-13T17:45:25Z</time>
      </trkpt>
      <trkpt lat="40.5163660" lon="-4.6611930">
        <ele>1357.4</ele>
        <time>2019-08-13T17:45:27Z</time>
      </trkpt>
      <trkpt lat="40.5163820" lon="-4.6611310">
        <ele>1357.7</ele>
        <time>2019-08-13T17:45:29Z</time>
      </trkpt>
      <trkpt lat="40.5163980" lon="-4.6610720">
        <ele>1357.9</ele>
        <time>2019-08-13T17:45:31Z</time>
      </trkpt>
      <trkpt lat="40.5164130" lon="-4.6610140">
        <ele>1358.1</ele>
        <time>2019-08-13T17:45:33Z</time>
      </trkpt>
      <trkpt lat="40.5164300" lon="-4.6609570">
        <ele>1358.3</ele>
        <time>2019-08-13T17:45:35Z</time>
      </trkpt>
      <trkpt lat="40.5164450" lon="-4.6608980">
        <ele>1358.6</ele>
        <time>2019-08-13T17:45:37Z</time>
      </trkpt>
      <trkpt lat="40.5164610" lon="-4.6608400">
        <ele>1358.9</ele>
        <time>2019-08-13T17:45:39Z</time>
      </trkpt>
      <trkpt lat="40.5164780" lon="-4.6607830">
        <ele>1359.2</ele>
        <time>2019-08-13T17:45:41Z</time>
      </trkpt>
      <trkpt lat="40.5164930" lon="-4.6607270">
        <ele>1359.6</ele>
        <time>2019-08-13T17:45:43Z</time>
      </trkpt>
      <trkpt lat="40.5165090" lon="-4.6606690">
        <ele>1359.9</ele>
        <time>2019-08-13T17:45:45Z</time>
      </trkpt>
      <trkpt lat="40.5165260" lon="-4.6606100">
        <ele>1360.3</ele>
        <time>2019-08-13T17:45:47Z</time>
      </trkpt>
      <trkpt lat="40.5165420" lon="-4.6605510">
        <ele>1360.8</ele>
        <time>2019-08-13T17:45:49Z</time>
      </trkpt>
      <trkpt lat="40.5165580" lon="-4.6604940">
        <ele>1361.1</ele>
        <time>2019-08-13T17:45:51Z</time>
      </trkpt>
      <trkpt lat="40.5165740" lon="-4.6604360">
        <ele>1361.5</ele>
        <time>2019-08-13T17:45:53Z</time>
      </trkpt>
      <trkpt lat="40.5165920" lon="-4.6603780">
        <ele>1361.9</ele>
        <time>2019-08-13T17:45:55Z</time>
      </trkpt>
      <trkpt lat="40.5166080" lon="-4.6603180">
        <ele>1362.3</ele>
        <time>2019-08-13T17:45:57Z</time>
      </trkpt>
      <trkpt lat="40.5166220" lon="-4.6602580">
        <ele>1362.6</ele>
        <time>2019-08-13T17:45:59Z</time>
      </trkpt>
      <trkpt lat="40.5166390" lon="-4.6602010">
        <ele>1362.8</ele>
        <time>2019-08-13T17:46:01Z</time>
      </trkpt>
      <trkpt lat="40.5166560" lon="-4.6601470">
        <ele>1363.1</ele>
        <time>2019-08-13T17:46:03Z</time>
      </trkpt>
      <trkpt lat="40.5166700" lon="-4.6600910">
        <ele>1363.3</ele>
        <time>2019-08-13T17:46:05Z</time>
      </trkpt>
      <trkpt lat="40.5166850" lon="-4.6600320">
        <ele>1363.5</ele>
        <time>2019-08-13T17:46:07Z</time>
      </trkpt>
      <trkpt lat="40.5167000" lon="-4.6599730">
        <ele>1363.8</ele>
        <time>2019-08-13T17:46:09Z</time>
      </trkpt>
      <trkpt lat="40.5167160" lon="-4.6599150">
        <ele>1364.1</ele>
        <time>2019-08-13T17:46:11Z</time>
      </trkpt>
      <trkpt lat="40.5167320" lon="-4.6598570">
        <ele>1364.4</ele>
        <time>2019-08-13T17:46:13Z</time>
      </trkpt>
      <trkpt lat="40.5167470" lon="-4.6597980">
        <ele>1364.8</ele>
        <time>2019-08-13T17:46:15Z</time>
      </trkpt>
      <trkpt lat="40.5167620" lon="-4.6597390">
        <ele>1365.1</ele>
        <time>2019-08-13T17:46:17Z</time>
      </trkpt>
      <trkpt lat="40.5167800" lon="-4.6596800">
        <ele>1365.4</ele>
        <time>2019-08-13T17:46:19Z</time>
      </trkpt>
      <trkpt lat="40.5167960" lon="-4.6596210">
        <ele>1365.7</ele>
        <time>2019-08-13T17:46:21Z</time>
      </trkpt>
      <trkpt lat="40.5168120" lon="-4.6595620">
        <ele>1366.0</ele>
        <time>2019-08-13T17:46:23Z</time>
      </trkpt>
      <trkpt lat="40.5168290" lon="-4.6595030">
        <ele>1366.3</ele>
        <time>2019-08-13T17:46:25Z</time>
      </trkpt>
      <trkpt lat="40.5168450" lon="-4.6594430">
        <ele>1366.6</ele>
        <time>2019-08-13T17:46:27Z</time>
      </trkpt>
      <trkpt lat="40.5168610" lon="-4.6593830">
        <ele>1366.8</ele>
        <time>2019-08-13T17:46:29Z</time>
      </trkpt>
      <trkpt lat="40.5168790" lon="-4.6593230">
        <ele>1367.1</ele>
        <time>2019-08-13T17:46:31Z</time>
      </trkpt>
      <trkpt lat="40.5168940" lon="-4.6592630">
        <ele>1367.3</ele>
        <time>2019-08-13T17:46:33Z</time>
      </trkpt>
      <trkpt lat="40.5169100" lon="-4.6592070">
        <ele>1367.6</ele>
        <time>2019-08-13T17:46:35Z</time>
      </trkpt>
      <trkpt lat="40.5169260" lon="-4.6591500">
        <ele>1367.8</ele>
        <time>2019-08-13T17:46:37Z</time>
      </trkpt>
      <trkpt lat="40.5169410" lon="-4.6590940">
        <ele>1368.1</ele>
        <time>2019-08-13T17:46:39Z</time>
      </trkpt>
      <trkpt lat="40.5169570" lon="-4.6590380">
        <ele>1368.3</ele>
        <time>2019-08-13T17:46:41Z</time>
      </trkpt>
      <trkpt lat="40.5169720" lon="-4.6589800">
        <ele>1368.6</ele>
        <time>2019-08-13T17:46:43Z</time>
      </trkpt>
      <trkpt lat="40.5169880" lon="-4.6589220">
        <ele>1368.8</ele>
        <time>2019-08-13T17:46:45Z</time>
      </trkpt>
      <trkpt lat="40.5170050" lon="-4.6588640">
        <ele>1369.1</ele>
        <time>2019-08-13T17:46:47Z</time>
      </trkpt>
      <trkpt lat="40.5170210" lon="-4.6588060">
        <ele>1369.5</ele>
        <time>2019-08-13T17:46:49Z</time>
      </trkpt>
      <trkpt lat="40.5170370" lon="-4.6587480">
        <ele>1369.8</ele>
        <time>2019-08-13T17:46:51Z</time>
      </trkpt>
      <trkpt lat="40.5170520" lon="-4.6586890">
        <ele>1370.1</ele>
        <time>2019-08-13T17:46:53Z</time>
      </trkpt>
      <trkpt lat="40.5170680" lon="-4.6586310">
        <ele>1370.4</ele>
        <time>2019-08-13T17:46:55Z</time>
      </trkpt>
      <trkpt lat="40.5170820" lon="-4.6585730">
        <ele>1370.7</ele>
        <time>2019-08-13T17:46:57Z</time>
      </trkpt>
      <trkpt lat="40.5170990" lon="-4.6585170">
        <ele>1370.9</ele>
        <time>2019-08-13T17:46:59Z</time>
      </trkpt>
      <trkpt lat="40.5171150" lon="-4.6584610">
        <ele>1371.1</ele>
        <time>2019-08-13T17:47:01Z</time>
      </trkpt>
      <trkpt lat="40.5171330" lon="-4.6584050">
        <ele>1371.3</ele>
        <time>2019-08-13T17:47:03Z</time>
      </trkpt>
      <trkpt lat="40.5171510" lon="-4.6583480">
        <ele>1371.6</ele>
        <time>2019-08-13T17:47:05Z</time>
      </trkpt>
      <trkpt lat="40.5171700" lon="-4.6582910">
        <ele>1371.8</ele>
        <time>2019-08-13T17:47:07Z</time>
      </trkpt>
      <trkpt lat="40.5171900" lon="-4.6582360">
        <ele>1372.0</ele>
        <time>2019-08-13T17:47:09Z</time>
      </trkpt>
      <trkpt lat="40.5172100" lon="-4.6581830">
        <ele>1372.2</ele>
        <time>2019-08-13T17:47:11Z</time>
      </trkpt>
      <trkpt lat="40.5172300" lon="-4.6581300">
        <ele>1372.4</ele>
        <time>2019-08-13T17:47:13Z</time>
      </trkpt>
      <trkpt lat="40.5172520" lon="-4.6580780">
        <ele>1372.6</ele>
        <time>2019-08-13T17:47:15Z</time>
      </trkpt>
      <trkpt lat="40.5172780" lon="-4.6580290">
        <ele>1372.9</ele>
        <time>2019-08-13T17:47:17Z</time>
      </trkpt>
      <trkpt lat="40.5173050" lon="-4.6579810">
        <ele>1373.2</ele>
        <time>2019-08-13T17:47:19Z</time>
      </trkpt>
      <trkpt lat="40.5173320" lon="-4.6579310">
        <ele>1373.5</ele>
        <time>2019-08-13T17:47:21Z</time>
      </trkpt>
      <trkpt lat="40.5173600" lon="-4.6578830">
        <ele>1373.7</ele>
        <time>2019-08-13T17:47:23Z</time>
      </trkpt>
      <trkpt lat="40.5173900" lon="-4.6578360">
        <ele>1374.0</ele>
        <time>2019-08-13T17:47:25Z</time>
      </trkpt>
      <trkpt lat="40.5174230" lon="-4.6577910">
        <ele>1374.3</ele>
        <time>2019-08-13T17:47:27Z</time>
      </trkpt>
      <trkpt lat="40.5174560" lon="-4.6577470">
        <ele>1374.5</ele>
        <time>2019-08-13T17:47:29Z</time>
      </trkpt>
      <trkpt lat="40.5174890" lon="-4.6577060">
        <ele>1374.7</ele>
        <time>2019-08-13T17:47:31Z</time>
      </trkpt>
      <trkpt lat="40.5175240" lon="-4.6576680">
        <ele>1374.9</ele>
        <time>2019-08-13T17:47:33Z</time>
      </trkpt>
      <trkpt lat="40.5175600" lon="-4.6576310">
        <ele>1375.1</ele>
        <time>2019-08-13T17:47:35Z</time>
      </trkpt>
      <trkpt lat="40.5175970" lon="-4.6575960">
        <ele>1375.4</ele>
        <time>2019-08-13T17:47:37Z</time>
      </trkpt>
      <trkpt lat="40.5176340" lon="-4.6575650">
        <ele>1375.6</ele>
        <time>2019-08-13T17:47:39Z</time>
      </trkpt>
      <trkpt lat="40.5176740" lon="-4.6575360">
        <ele>1375.8</ele>
        <time>2019-08-13T17:47:41Z</time>
      </trkpt>
      <trkpt lat="40.5177160" lon="-4.6575080">
        <ele>1376.1</ele>
        <time>2019-08-13T17:47:43Z</time>
      </trkpt>
      <trkpt lat="40.5177540" lon="-4.6574760">
        <ele>1376.4</ele>
        <time>2019-08-13T17:47:45Z</time>
      </trkpt>
      <trkpt lat="40.5177830" lon="-4.6574450">
        <ele>1376.7</ele>
        <time>2019-08-13T17:47:47Z</time>
      </trkpt>
      <trkpt lat="40.5178070" lon="-4.6574250">
        <ele>1376.9</ele>
        <time>2019-08-13T17:47:50Z</time>
      </trkpt>
      <trkpt lat="40.5178760" lon="-4.6574250">
        <ele>1377.3</ele>
        <time>2019-08-13T17:48:53Z</time>
      </trkpt>
      <trkpt lat="40.5179020" lon="-4.6574100">
        <ele>1377.5</ele>
        <time>2019-08-13T17:48:54Z</time>
      </trkpt>
      <trkpt lat="40.5179280" lon="-4.6574000">
        <ele>1377.7</ele>
        <time>2019-08-13T17:48:55Z</time>
      </trkpt>
      <trkpt lat="40.5179580" lon="-4.6573880">
        <ele>1377.9</ele>
        <time>2019-08-13T17:48:56Z</time>
      </trkpt>
      <trkpt lat="40.5179900" lon="-4.6573800">
        <ele>1378.1</ele>
        <time>2019-08-13T17:48:57Z</time>
      </trkpt>
      <trkpt lat="40.5180210" lon="-4.6573690">
        <ele>1378.2</ele>
        <time>2019-08-13T17:48:58Z</time>
      </trkpt>
      <trkpt lat="40.5180550" lon="-4.6573610">
        <ele>1378.4</ele>
        <time>2019-08-13T17:48:59Z</time>
      </trkpt>
      <trkpt lat="40.5180900" lon="-4.6573540">
        <ele>1378.6</ele>
        <time>2019-08-13T17:49:00Z</time>
      </trkpt>
      <trkpt lat="40.5181280" lon="-4.6573480">
        <ele>1378.8</ele>
        <time>2019-08-13T17:49:01Z</time>
      </trkpt>
      <trkpt lat="40.5181670" lon="-4.6573420">
        <ele>1379.0</ele>
        <time>2019-08-13T17:49:02Z</time>
      </trkpt>
      <trkpt lat="40.5182080" lon="-4.6573390">
        <ele>1379.1</ele>
        <time>2019-08-13T17:49:03Z</time>
      </trkpt>
      <trkpt lat="40.5182480" lon="-4.6573380">
        <ele>1379.3</ele>
        <time>2019-08-13T17:49:04Z</time>
      </trkpt>
      <trkpt lat="40.5182880" lon="-4.6573400">
        <ele>1379.5</ele>
        <time>2019-08-13T17:49:05Z</time>
      </trkpt>
      <trkpt lat="40.5183250" lon="-4.6573450">
        <ele>1379.6</ele>
        <time>2019-08-13T17:49:06Z</time>
      </trkpt>
      <trkpt lat="40.5183610" lon="-4.6573520">
        <ele>1379.8</ele>
        <time>2019-08-13T17:49:07Z</time>
      </trkpt>
      <trkpt lat="40.5183960" lon="-4.6573580">
        <ele>1379.9</ele>
        <time>2019-08-13T17:49:08Z</time>
      </trkpt>
      <trkpt lat="40.5184300" lon="-4.6573640">
        <ele>1380.0</ele>
        <time>2019-08-13T17:49:09Z</time>
      </trkpt>
      <trkpt lat="40.5184620" lon="-4.6573730">
        <ele>1380.1</ele>
        <time>2019-08-13T17:49:10Z</time>
      </trkpt>
      <trkpt lat="40.5184950" lon="-4.6573820">
        <ele>1380.2</ele>
        <time>2019-08-13T17:49:11Z</time>
      </trkpt>
      <trkpt lat="40.5185290" lon="-4.6573920">
        <ele>1380.3</ele>
        <time>2019-08-13T17:49:12Z</time>
      </trkpt>
      <trkpt lat="40.5185620" lon="-4.6574050">
        <ele>1380.3</ele>
        <time>2019-08-13T17:49:13Z</time>
      </trkpt>
      <trkpt lat="40.5185970" lon="-4.6574210">
        <ele>1380.4</ele>
        <time>2019-08-13T17:49:14Z</time>
      </trkpt>
      <trkpt lat="40.5186330" lon="-4.6574400">
        <ele>1380.4</ele>
        <time>2019-08-13T17:49:15Z</time>
      </trkpt>
      <trkpt lat="40.5186690" lon="-4.6574600">
        <ele>1380.5</ele>
        <time>2019-08-13T17:49:16Z</time>
      </trkpt>
      <trkpt lat="40.5187080" lon="-4.6574830">
        <ele>1380.5</ele>
        <time>2019-08-13T17:49:17Z</time>
      </trkpt>
      <trkpt lat="40.5187500" lon="-4.6575090">
        <ele>1380.5</ele>
        <time>2019-08-13T17:49:18Z</time>
      </trkpt>
      <trkpt lat="40.5187950" lon="-4.6575380">
        <ele>1380.6</ele>
        <time>2019-08-13T17:49:19Z</time>
      </trkpt>
      <trkpt lat="40.5188440" lon="-4.6575690">
        <ele>1380.6</ele>
        <time>2019-08-13T17:49:20Z</time>
      </trkpt>
      <trkpt lat="40.5188970" lon="-4.6576020">
        <ele>1380.6</ele>
        <time>2019-08-13T17:49:21Z</time>
      </trkpt>
      <trkpt lat="40.5189510" lon="-4.6576380">
        <ele>1380.6</ele>
        <time>2019-08-13T17:49:22Z</time>
      </trkpt>
      <trkpt lat="40.5190080" lon="-4.6576770">
        <ele>1380.6</ele>
        <time>2019-08-13T17:49:23Z</time>
      </trkpt>
      <trkpt lat="40.5190660" lon="-4.6577170">
        <ele>1380.6</ele>
        <time>2019-08-13T17:49:24Z</time>
      </trkpt>
      <trkpt lat="40.5191270" lon="-4.6577590">
        <ele>1380.5</ele>
        <time>2019-08-13T17:49:25Z</time>
      </trkpt>
      <trkpt lat="40.5191890" lon="-4.6578030">
        <ele>1380.0</ele>
        <time>2019-08-13T17:49:26Z</time>
      </trkpt>
      <trkpt lat="40.5192550" lon="-4.6578460">
        <ele>1379.5</ele>
        <time>2019-08-13T17:49:27Z</time>
      </trkpt>
      <trkpt lat="40.5193220" lon="-4.6578900">
        <ele>1379.1</ele>
        <time>2019-08-13T17:49:28Z</time>
      </trkpt>
      <trkpt lat="40.5193920" lon="-4.6579320">
        <ele>1378.8</ele>
        <time>2019-08-13T17:49:29Z</time>
      </trkpt>
      <trkpt lat="40.5194670" lon="-4.6579690">
        <ele>1378.5</ele>
        <time>2019-08-13T17:49:30Z</time>
      </trkpt>
      <trkpt lat="40.5195440" lon="-4.6580020">
        <ele>1378.3</ele>
        <time>2019-08-13T17:49:31Z</time>
      </trkpt>
      <trkpt lat="40.5196230" lon="-4.6580290">
        <ele>1378.2</ele>
        <time>2019-08-13T17:49:32Z</time>
      </trkpt>
      <trkpt lat="40.5197040" lon="-4.6580480">
        <ele>1378.2</ele>
        <time>2019-08-13T17:49:33Z</time>
      </trkpt>
      <trkpt lat="40.5197830" lon="-4.6580600">
        <ele>1378.3</ele>
        <time>2019-08-13T17:49:34Z</time>
      </trkpt>
      <trkpt lat="40.5198590" lon="-4.6580610">
        <ele>1378.5</ele>
        <time>2019-08-13T17:49:35Z</time>
      </trkpt>
      <trkpt lat="40.5199310" lon="-4.6580530">
        <ele>1378.6</ele>
        <time>2019-08-13T17:49:36Z</time>
      </trkpt>
      <trkpt lat="40.5199990" lon="-4.6580410">
        <ele>1378.9</ele>
        <time>2019-08-13T17:49:37Z</time>
      </trkpt>
      <trkpt lat="40.5200630" lon="-4.6580250">
        <ele>1379.1</ele>
        <time>2019-08-13T17:49:38Z</time>
      </trkpt>
      <trkpt lat="40.5201210" lon="-4.6580070">
        <ele>1379.4</ele>
        <time>2019-08-13T17:49:39Z</time>
      </trkpt>
      <trkpt lat="40.5201740" lon="-4.6579850">
        <ele>1379.6</ele>
        <time>2019-08-13T17:49:40Z</time>
      </trkpt>
      <trkpt lat="40.5202210" lon="-4.6579620">
        <ele>1379.8</ele>
        <time>2019-08-13T17:49:41Z</time>
      </trkpt>
      <trkpt lat="40.5202640" lon="-4.6579390">
        <ele>1380.0</ele>
        <time>2019-08-13T17:49:42Z</time>
      </trkpt>
      <trkpt lat="40.5203020" lon="-4.6579150">
        <ele>1380.1</ele>
        <time>2019-08-13T17:49:43Z</time>
      </trkpt>
      <trkpt lat="40.5203360" lon="-4.6578900">
        <ele>1380.3</ele>
        <time>2019-08-13T17:49:44Z</time>
      </trkpt>
      <trkpt lat="40.5203670" lon="-4.6578670">
        <ele>1380.4</ele>
        <time>2019-08-13T17:49:45Z</time>
      </trkpt>
      <trkpt lat="40.5203960" lon="-4.6578430">
        <ele>1380.5</ele>
        <time>2019-08-13T17:49:46Z</time>
      </trkpt>
      <trkpt lat="40.5204230" lon="-4.6578180">
        <ele>1380.6</ele>
        <time>2019-08-13T17:49:47Z</time>
      </trkpt>
      <trkpt lat="40.5204470" lon="-4.6577940">
        <ele>1380.7</ele>
        <time>2019-08-13T17:49:48Z</time>
      </trkpt>
      <trkpt lat="40.5204690" lon="-4.6577710">
        <ele>1380.8</ele>
        <time>2019-08-13T17:49:49Z</time>
      </trkpt>
      <trkpt lat="40.5204900" lon="-4.6577480">
        <ele>1380.9</ele>
        <time>2019-08-13T17:49:50Z</time>
      </trkpt>
      <trkpt lat="40.5205110" lon="-4.6577240">
        <ele>1381.0</ele>
        <time>2019-08-13T17:49:51Z</time>
      </trkpt>
      <trkpt lat="40.5205310" lon="-4.6577000">
        <ele>1381.1</ele>
        <time>2019-08-13T17:49:52Z</time>
      </trkpt>
      <trkpt lat="40.5205510" lon="-4.6576740">
        <ele>1381.2</ele>
        <time>2019-08-13T17:49:53Z</time>
      </trkpt>
      <trkpt lat="40.5205720" lon="-4.6576460">
        <ele>1381.3</ele>
        <time>2019-08-13T17:49:54Z</time>
      </trkpt>
      <trkpt lat="40.5205920" lon="-4.6576180">
        <ele>1381.4</ele>
        <time>2019-08-13T17:49:55Z</time>
      </trkpt>
      <trkpt lat="40.5206100" lon="-4.6575900">
        <ele>1381.6</ele>
        <time>2019-08-13T17:49:56Z</time>
      </trkpt>
      <trkpt lat="40.5206280" lon="-4.6575610">
        <ele>1381.7</ele>
        <time>2019-08-13T17:49:57Z</time>
      </trkpt>
      <trkpt lat="40.5206620" lon="-4.6575060">
        <ele>1381.9</ele>
        <time>2019-08-13T17:49:59Z</time>
      </trkpt>
      <trkpt lat="40.5206930" lon="-4.6574480">
        <ele>1382.2</ele>
        <time>2019-08-13T17:50:01Z</time>
      </trkpt>
      <trkpt lat="40.5207210" lon="-4.6573890">
        <ele>1382.5</ele>
        <time>2019-08-13T17:50:03Z</time>
      </trkpt>
      <trkpt lat="40.5207470" lon="-4.6573280">
        <ele>1382.8</ele>
        <time>2019-08-13T17:50:05Z</time>
      </trkpt>
      <trkpt lat="40.5207700" lon="-4.6572650">
        <ele>1383.1</ele>
        <time>2019-08-13T17:50:07Z</time>
      </trkpt>
      <trkpt lat="40.5207940" lon="-4.6572050">
        <ele>1383.4</ele>
        <time>2019-08-13T17:50:09Z</time>
      </trkpt>
      <trkpt lat="40.5208180" lon="-4.6571440">
        <ele>1383.8</ele>
        <time>2019-08-13T17:50:11Z</time>
      </trkpt>
      <trkpt lat="40.5208410" lon="-4.6570810">
        <ele>1384.1</ele>
        <time>2019-08-13T17:50:13Z</time>
      </trkpt>
      <trkpt lat="40.5208650" lon="-4.6570190">
        <ele>1384.4</ele>
        <time>2019-08-13T17:50:15Z</time>
      </trkpt>
      <trkpt lat="40.5208750" lon="-4.6569860">
        <ele>1384.6</ele>
        <time>2019-08-13T17:50:16Z</time>
      </trkpt>
      <trkpt lat="40.5208850" lon="-4.6569520">
        <ele>1384.7</ele>
        <time>2019-08-13T17:50:17Z</time>
      </trkpt>
      <trkpt lat="40.5208960" lon="-4.6569200">
        <ele>1384.9</ele>
        <time>2019-08-13T17:50:18Z</time>
      </trkpt>
      <trkpt lat="40.5209180" lon="-4.6568570">
        <ele>1385.2</ele>
        <time>2019-08-13T17:50:20Z</time>
      </trkpt>
      <trkpt lat="40.5209420" lon="-4.6567930">
        <ele>1385.5</ele>
        <time>2019-08-13T17:50:22Z</time>
      </trkpt>
      <trkpt lat="40.5209520" lon="-4.6567590">
        <ele>1385.7</ele>
        <time>2019-08-13T17:50:23Z</time>
      </trkpt>
      <trkpt lat="40.5209630" lon="-4.6567240">
        <ele>1385.8</ele>
        <time>2019-08-13T17:50:24Z</time>
      </trkpt>
      <trkpt lat="40.5209730" lon="-4.6566910">
        <ele>1386.0</ele>
        <time>2019-08-13T17:50:25Z</time>
      </trkpt>
      <trkpt lat="40.5209850" lon="-4.6566580">
        <ele>1386.1</ele>
        <time>2019-08-13T17:50:26Z</time>
      </trkpt>
      <trkpt lat="40.5210070" lon="-4.6565960">
        <ele>1386.4</ele>
        <time>2019-08-13T17:50:28Z</time>
      </trkpt>
      <trkpt lat="40.5210280" lon="-4.6565350">
        <ele>1386.7</ele>
        <time>2019-08-13T17:50:30Z</time>
      </trkpt>
      <trkpt lat="40.5210500" lon="-4.6564770">
        <ele>1387.0</ele>
        <time>2019-08-13T17:50:32Z</time>
      </trkpt>
      <trkpt lat="40.5210690" lon="-4.6564170">
        <ele>1387.2</ele>
        <time>2019-08-13T17:50:34Z</time>
      </trkpt>
      <trkpt lat="40.5210880" lon="-4.6563530">
        <ele>1387.5</ele>
        <time>2019-08-13T17:50:36Z</time>
      </trkpt>
      <trkpt lat="40.5211080" lon="-4.6562910">
        <ele>1387.8</ele>
        <time>2019-08-13T17:50:38Z</time>
      </trkpt>
      <trkpt lat="40.5211300" lon="-4.6562290">
        <ele>1388.1</ele>
        <time>2019-08-13T17:50:40Z</time>
      </trkpt>
      <trkpt lat="40.5211500" lon="-4.6561690">
        <ele>1388.4</ele>
        <time>2019-08-13T17:50:42Z</time>
      </trkpt>
      <trkpt lat="40.5211710" lon="-4.6561080">
        <ele>1388.7</ele>
        <time>2019-08-13T17:50:44Z</time>
      </trkpt>
      <trkpt lat="40.5211930" lon="-4.6560480">
        <ele>1389.0</ele>
        <time>2019-08-13T17:50:46Z</time>
      </trkpt>
      <trkpt lat="40.5212120" lon="-4.6559860">
        <ele>1389.3</ele>
        <time>2019-08-13T17:50:48Z</time>
      </trkpt>
      <trkpt lat="40.5212310" lon="-4.6559250">
        <ele>1389.6</ele>
        <time>2019-08-13T17:50:50Z</time>
      </trkpt>
      <trkpt lat="40.5212530" lon="-4.6558670">
        <ele>1390.0</ele>
        <time>2019-08-13T17:50:52Z</time>
      </trkpt>
      <trkpt lat="40.5212720" lon="-4.6558100">
        <ele>1390.3</ele>
        <time>2019-08-13T17:50:54Z</time>
      </trkpt>
      <trkpt lat="40.5212910" lon="-4.6557540">
        <ele>1390.7</ele>
        <time>2019-08-13T17:50:56Z</time>
      </trkpt>
      <trkpt lat="40.5213110" lon="-4.6557010">
        <ele>1391.0</ele>
        <time>2019-08-13T17:50:58Z</time>
      </trkpt>
      <trkpt lat="40.5213310" lon="-4.6556480">
        <ele>1391.4</ele>
        <time>2019-08-13T17:51:00Z</time>
      </trkpt>
      <trkpt lat="40.5213500" lon="-4.6555900">
        <ele>1391.8</ele>
        <time>2019-08-13T17:51:02Z</time>
      </trkpt>
      <trkpt lat="40.5213690" lon="-4.6555310">
        <ele>1392.2</ele>
        <time>2019-08-13T17:51:04Z</time>
      </trkpt>
      <trkpt lat="40.5213880" lon="-4.6554740">
        <ele>1392.6</ele>
        <time>2019-08-13T17:51:06Z</time>
      </trkpt>
      <trkpt lat="40.5214100" lon="-4.6554200">
        <ele>1393.0</ele>
        <time>2019-08-13T17:51:08Z</time>
      </trkpt>
      <trkpt lat="40.5214290" lon="-4.6553620">
        <ele>1393.4</ele>
        <time>2019-08-13T17:51:10Z</time>
      </trkpt>
      <trkpt lat="40.5214490" lon="-4.6553030">
        <ele>1393.9</ele>
        <time>2019-08-13T17:51:12Z</time>
      </trkpt>
      <trkpt lat="40.5214700" lon="-4.6552440">
        <ele>1394.3</ele>
        <time>2019-08-13T17:51:14Z</time>
      </trkpt>
      <trkpt lat="40.5214910" lon="-4.6551860">
        <ele>1394.8</ele>
        <time>2019-08-13T17:51:16Z</time>
      </trkpt>
      <trkpt lat="40.5215140" lon="-4.6551310">
        <ele>1395.2</ele>
        <time>2019-08-13T17:51:18Z</time>
      </trkpt>
      <trkpt lat="40.5215370" lon="-4.6550760">
        <ele>1395.6</ele>
        <time>2019-08-13T17:51:20Z</time>
      </trkpt>
      <trkpt lat="40.5215600" lon="-4.6550200">
        <ele>1396.1</ele>
        <time>2019-08-13T17:51:22Z</time>
      </trkpt>
      <trkpt lat="40.5215850" lon="-4.6549660">
        <ele>1396.5</ele>
        <time>2019-08-13T17:51:24Z</time>
      </trkpt>
      <trkpt lat="40.5216110" lon="-4.6549130">
        <ele>1397.0</ele>
        <time>2019-08-13T17:51:26Z</time>
      </trkpt>
      <trkpt lat="40.5216390" lon="-4.6548610">
        <ele>1397.4</ele>
        <time>2019-08-13T17:51:28Z</time>
      </trkpt>
      <trkpt lat="40.5216680" lon="-4.6548100">
        <ele>1397.9</ele>
        <time>2019-08-13T17:51:30Z</time>
      </trkpt>
      <trkpt lat="40.5217000" lon="-4.6547610">
        <ele>1398.4</ele>
        <time>2019-08-13T17:51:32Z</time>
      </trkpt>
      <trkpt lat="40.5217320" lon="-4.6547130">
        <ele>1398.9</ele>
        <time>2019-08-13T17:51:34Z</time>
      </trkpt>
      <trkpt lat="40.5217650" lon="-4.6546660">
        <ele>1399.4</ele>
        <time>2019-08-13T17:51:36Z</time>
      </trkpt>
      <trkpt lat="40.5218000" lon="-4.6546210">
        <ele>1399.9</ele>
        <time>2019-08-13T17:51:38Z</time>
      </trkpt>
      <trkpt lat="40.5218370" lon="-4.6545760">
        <ele>1400.4</ele>
        <time>2019-08-13T17:51:40Z</time>
      </trkpt>
      <trkpt lat="40.5218760" lon="-4.6545340">
        <ele>1400.9</ele>
        <time>2019-08-13T17:51:42Z</time>
      </trkpt>
      <trkpt lat="40.5219150" lon="-4.6544940">
        <ele>1401.4</ele>
        <time>2019-08-13T17:51:44Z</time>
      </trkpt>
      <trkpt lat="40.5219560" lon="-4.6544550">
        <ele>1401.9</ele>
        <time>2019-08-13T17:51:46Z</time>
      </trkpt>
      <trkpt lat="40.5219990" lon="-4.6544180">
        <ele>1402.4</ele>
        <time>2019-08-13T17:51:48Z</time>
      </trkpt>
      <trkpt lat="40.5220430" lon="-4.6543840">
        <ele>1402.9</ele>
        <time>2019-08-13T17:51:50Z</time>
      </trkpt>
      <trkpt lat="40.5220890" lon="-4.6543520">
        <ele>1403.3</ele>
        <time>2019-08-13T17:51:52Z</time>
      </trkpt>
      <trkpt lat="40.5221360" lon="-4.6543200">
        <ele>1403.7</ele>
        <time>2019-08-13T17:51:54Z</time>
      </trkpt>
      <trkpt lat="40.5221610" lon="-4.6543040">
        <ele>1403.9</ele>
        <time>2019-08-13T17:51:55Z</time>
      </trkpt>
      <trkpt lat="40.5221870" lon="-4.6542890">
        <ele>1404.0</ele>
        <time>2019-08-13T17:51:56Z</time>
      </trkpt>
      <trkpt lat="40.5222150" lon="-4.6542740">
        <ele>1404.2</ele>
        <time>2019-08-13T17:51:57Z</time>
      </trkpt>
      <trkpt lat="40.5222440" lon="-4.6542600">
        <ele>1404.4</ele>
        <time>2019-08-13T17:51:58Z</time>
      </trkpt>
      <trkpt lat="40.5222750" lon="-4.6542460">
        <ele>1404.5</ele>
        <time>2019-08-13T17:51:59Z</time>
      </trkpt>
      <trkpt lat="40.5223060" lon="-4.6542330">
        <ele>1404.6</ele>
        <time>2019-08-13T17:52:00Z</time>
      </trkpt>
      <trkpt lat="40.5223370" lon="-4.6542210">
        <ele>1404.7</ele>
        <time>2019-08-13T17:52:01Z</time>
      </trkpt>
      <trkpt lat="40.5223680" lon="-4.6542100">
        <ele>1404.8</ele>
        <time>2019-08-13T17:52:02Z</time>
      </trkpt>
      <trkpt lat="40.5223990" lon="-4.6541990">
        <ele>1404.9</ele>
        <time>2019-08-13T17:52:03Z</time>
      </trkpt>
      <trkpt lat="40.5224300" lon="-4.6541880">
        <ele>1405.0</ele>
        <time>2019-08-13T17:52:04Z</time>
      </trkpt>
      <trkpt lat="40.5224610" lon="-4.6541780">
        <ele>1405.0</ele>
        <time>2019-08-13T17:52:05Z</time>
      </trkpt>
      <trkpt lat="40.5224940" lon="-4.6541700">
        <ele>1405.1</ele>
        <time>2019-08-13T17:52:06Z</time>
      </trkpt>
      <trkpt lat="40.5225270" lon="-4.6541630">
        <ele>1405.1</ele>
        <time>2019-08-13T17:52:07Z</time>
      </trkpt>
      <trkpt lat="40.5225610" lon="-4.6541560">
        <ele>1405.1</ele>
        <time>2019-08-13T17:52:08Z</time>
      </trkpt>
      <trkpt lat="40.5225940" lon="-4.6541490">
        <ele>1405.1</ele>
        <time>2019-08-13T17:52:09Z</time>
      </trkpt>
      <trkpt lat="40.5226240" lon="-4.6541430">
        <ele>1405.1</ele>
        <time>2019-08-13T17:52:10Z</time>
      </trkpt>
      <trkpt lat="40.5226530" lon="-4.6541360">
        <ele>1405.1</ele>
        <time>2019-08-13T17:52:11Z</time>
      </trkpt>
      <trkpt lat="40.5226830" lon="-4.6541310">
        <ele>1405.1</ele>
        <time>2019-08-13T17:52:12Z</time>
      </trkpt>
      <trkpt lat="40.5227150" lon="-4.6541250">
        <ele>1405.0</ele>
        <time>2019-08-13T17:52:13Z</time>
      </trkpt>
      <trkpt lat="40.5227490" lon="-4.6541200">
        <ele>1405.0</ele>
        <time>2019-08-13T17:52:14Z</time>
      </trkpt>
      <trkpt lat="40.5227830" lon="-4.6541160">
        <ele>1405.0</ele>
        <time>2019-08-13T17:52:15Z</time>
      </trkpt>
      <trkpt lat="40.5228190" lon="-4.6541110">
        <ele>1404.9</ele>
        <time>2019-08-13T17:52:16Z</time>
      </trkpt>
      <trkpt lat="40.5228560" lon="-4.6541060">
        <ele>1404.9</ele>
        <time>2019-08-13T17:52:17Z</time>
      </trkpt>
      <trkpt lat="40.5228940" lon="-4.6540990">
        <ele>1404.8</ele>
        <time>2019-08-13T17:52:18Z</time>
      </trkpt>
      <trkpt lat="40.5229330" lon="-4.6540930">
        <ele>1404.7</ele>
        <time>2019-08-13T17:52:19Z</time>
      </trkpt>
      <trkpt lat="40.5229720" lon="-4.6540880">
        <ele>1404.6</ele>
        <time>2019-08-13T17:52:20Z</time>
      </trkpt>
      <trkpt lat="40.5230130" lon="-4.6540830">
        <ele>1404.5</ele>
        <time>2019-08-13T17:52:21Z</time>
      </trkpt>
      <trkpt lat="40.5230550" lon="-4.6540770">
        <ele>1404.4</ele>
        <time>2019-08-13T17:52:22Z</time>
      </trkpt>
      <trkpt lat="40.5230970" lon="-4.6540720">
        <ele>1404.3</ele>
        <time>2019-08-13T17:52:23Z</time>
      </trkpt>
      <trkpt lat="40.5231400" lon="-4.6540660">
        <ele>1404.2</ele>
        <time>2019-08-13T17:52:24Z</time>
      </trkpt>
      <trkpt lat="40.5231840" lon="-4.6540590">
        <ele>1404.2</ele>
        <time>2019-08-13T17:52:25Z</time>
      </trkpt>
      <trkpt lat="40.5232290" lon="-4.6540530">
        <ele>1404.1</ele>
        <time>2019-08-13T17:52:26Z</time>
      </trkpt>
      <trkpt lat="40.5232760" lon="-4.6540470">
        <ele>1404.0</ele>
        <time>2019-08-13T17:52:27Z</time>
      </trkpt>
      <trkpt lat="40.5233230" lon="-4.6540400">
        <ele>1404.0</ele>
        <time>2019-08-13T17:52:28Z</time>
      </trkpt>
      <trkpt lat="40.5233710" lon="-4.6540340">
        <ele>1403.9</ele>
        <time>2019-08-13T17:52:29Z</time>
      </trkpt>
      <trkpt lat="40.5234190" lon="-4.6540280">
        <ele>1403.8</ele>
        <time>2019-08-13T17:52:30Z</time>
      </trkpt>
      <trkpt lat="40.5234700" lon="-4.6540210">
        <ele>1403.8</ele>
        <time>2019-08-13T17:52:31Z</time>
      </trkpt>
      <trkpt lat="40.5235200" lon="-4.6540150">
        <ele>1403.7</ele>
        <time>2019-08-13T17:52:32Z</time>
      </trkpt>
      <trkpt lat="40.5235700" lon="-4.6540090">
        <ele>1403.7</ele>
        <time>2019-08-13T17:52:33Z</time>
      </trkpt>
      <trkpt lat="40.5236220" lon="-4.6540010">
        <ele>1403.6</ele>
        <time>2019-08-13T17:52:34Z</time>
      </trkpt>
      <trkpt lat="40.5236730" lon="-4.6539940">
        <ele>1403.7</ele>
        <time>2019-08-13T17:52:35Z</time>
      </trkpt>
      <trkpt lat="40.5237250" lon="-4.6539860">
        <ele>1403.7</ele>
        <time>2019-08-13T17:52:36Z</time>
      </trkpt>
      <trkpt lat="40.5237780" lon="-4.6539780">
        <ele>1403.8</ele>
        <time>2019-08-13T17:52:37Z</time>
      </trkpt>
      <trkpt lat="40.5238330" lon="-4.6539700">
        <ele>1403.9</ele>
        <time>2019-08-13T17:52:38Z</time>
      </trkpt>
      <trkpt lat="40.5238870" lon="-4.6539620">
        <ele>1404.0</ele>
        <time>2019-08-13T17:52:39Z</time>
      </trkpt>
      <trkpt lat="40.5239410" lon="-4.6539520">
        <ele>1404.1</ele>
        <time>2019-08-13T17:52:40Z</time>
      </trkpt>
      <trkpt lat="40.5239940" lon="-4.6539420">
        <ele>1404.3</ele>
        <time>2019-08-13T17:52:41Z</time>
      </trkpt>
      <trkpt lat="40.5240490" lon="-4.6539320">
        <ele>1404.5</ele>
        <time>2019-08-13T17:52:42Z</time>
      </trkpt>
      <trkpt lat="40.5241030" lon="-4.6539190">
        <ele>1404.7</ele>
        <time>2019-08-13T17:52:43Z</time>
      </trkpt>
      <trkpt lat="40.5241570" lon="-4.6539020">
        <ele>1405.0</ele>
        <time>2019-08-13T17:52:44Z</time>
      </trkpt>
      <trkpt lat="40.5242080" lon="-4.6538830">
        <ele>1405.3</ele>
        <time>2019-08-13T17:52:45Z</time>
      </trkpt>
      <trkpt lat="40.5242590" lon="-4.6538630">
        <ele>1405.5</ele>
        <time>2019-08-13T17:52:46Z</time>
      </trkpt>
      <trkpt lat="40.5243100" lon="-4.6538420">
        <ele>1405.8</ele>
        <time>2019-08-13T17:52:47Z</time>
      </trkpt>
      <trkpt lat="40.5243600" lon="-4.6538200">
        <ele>1406.1</ele>
        <time>2019-08-13T17:52:48Z</time>
      </trkpt>
      <trkpt lat="40.5244080" lon="-4.6537990">
        <ele>1406.3</ele>
        <time>2019-08-13T17:52:49Z</time>
      </trkpt>
      <trkpt lat="40.5244540" lon="-4.6537780">
        <ele>1406.6</ele>
        <time>2019-08-13T17:52:50Z</time>
      </trkpt>
      <trkpt lat="40.5245010" lon="-4.6537590">
        <ele>1406.9</ele>
        <time>2019-08-13T17:52:51Z</time>
      </trkpt>
      <trkpt lat="40.5245480" lon="-4.6537390">
        <ele>1407.1</ele>
        <time>2019-08-13T17:52:52Z</time>
      </trkpt>
      <trkpt lat="40.5245950" lon="-4.6537170">
        <ele>1407.4</ele>
        <time>2019-08-13T17:52:53Z</time>
      </trkpt>
      <trkpt lat="40.5246420" lon="-4.6536950">
        <ele>1407.7</ele>
        <time>2019-08-13T17:52:54Z</time>
      </trkpt>
      <trkpt lat="40.5246880" lon="-4.6536750">
        <ele>1408.0</ele>
        <time>2019-08-13T17:52:55Z</time>
      </trkpt>
      <trkpt lat="40.5247350" lon="-4.6536560">
        <ele>1408.3</ele>
        <time>2019-08-13T17:52:56Z</time>
      </trkpt>
      <trkpt lat="40.5247810" lon="-4.6536380">
        <ele>1408.6</ele>
        <time>2019-08-13T17:52:57Z</time>
      </trkpt>
      <trkpt lat="40.5248260" lon="-4.6536200">
        <ele>1408.9</ele>
        <time>2019-08-13T17:52:58Z</time>
      </trkpt>
      <trkpt lat="40.5248710" lon="-4.6536030">
        <ele>1409.2</ele>
        <time>2019-08-13T17:52:59Z</time>
      </trkpt>
      <trkpt lat="40.5249160" lon="-4.6535880">
        <ele>1409.5</ele>
        <time>2019-08-13T17:53:00Z</time>
      </trkpt>
      <trkpt lat="40.5249590" lon="-4.6535740">
        <ele>1409.8</ele>
        <time>2019-08-13T17:53:01Z</time>
      </trkpt>
      <trkpt lat="40.5250010" lon="-4.6535620">
        <ele>1410.1</ele>
        <time>2019-08-13T17:53:02Z</time>
      </trkpt>
      <trkpt lat="40.5250450" lon="-4.6535520">
        <ele>1410.4</ele>
        <time>2019-08-13T17:53:03Z</time>
      </trkpt>
      <trkpt lat="40.5250880" lon="-4.6535430">
        <ele>1410.7</ele>
        <time>2019-08-13T17:53:04Z</time>
      </trkpt>
      <trkpt lat="40.5251310" lon="-4.6535360">
        <ele>1411.0</ele>
        <time>2019-08-13T17:53:05Z</time>
      </trkpt>
      <trkpt lat="40.5251730" lon="-4.6535300">
        <ele>1411.3</ele>
        <time>2019-08-13T17:53:06Z</time>
      </trkpt>
      <trkpt lat="40.5252150" lon="-4.6535230">
        <ele>1411.5</ele>
        <time>2019-08-13T17:53:07Z</time>
      </trkpt>
      <trkpt lat="40.5252570" lon="-4.6535180">
        <ele>1411.8</ele>
        <time>2019-08-13T17:53:08Z</time>
      </trkpt>
      <trkpt lat="40.5252980" lon="-4.6535130">
        <ele>1412.0</ele>
        <time>2019-08-13T17:53:09Z</time>
      </trkpt>
      <trkpt lat="40.5253390" lon="-4.6535130">
        <ele>1412.2</ele>
        <time>2019-08-13T17:53:10Z</time>
      </trkpt>
      <trkpt lat="40.5253800" lon="-4.6535130">
        <ele>1412.5</ele>
        <time>2019-08-13T17:53:11Z</time>
      </trkpt>
      <trkpt lat="40.5254210" lon="-4.6535160">
        <ele>1412.7</ele>
        <time>2019-08-13T17:53:12Z</time>
      </trkpt>
      <trkpt lat="40.5254620" lon="-4.6535190">
        <ele>1412.8</ele>
        <time>2019-08-13T17:53:13Z</time>
      </trkpt>
      <trkpt lat="40.5255010" lon="-4.6535230">
        <ele>1413.0</ele>
        <time>2019-08-13T17:53:14Z</time>
      </trkpt>
      <trkpt lat="40.5255400" lon="-4.6535260">
        <ele>1413.2</ele>
        <time>2019-08-13T17:53:15Z</time>
      </trkpt>
      <trkpt lat="40.5255780" lon="-4.6535300">
        <ele>1413.3</ele>
        <time>2019-08-13T17:53:16Z</time>
      </trkpt>
      <trkpt lat="40.5256150" lon="-4.6535360">
        <ele>1413.5</ele>
        <time>2019-08-13T17:53:17Z</time>
      </trkpt>
      <trkpt lat="40.5256510" lon="-4.6535430">
        <ele>1413.7</ele>
        <time>2019-08-13T17:53:18Z</time>
      </trkpt>
      <trkpt lat="40.5256870" lon="-4.6535490">
        <ele>1413.8</ele>
        <time>2019-08-13T17:53:19Z</time>
      </trkpt>
      <trkpt lat="40.5257210" lon="-4.6535560">
        <ele>1413.9</ele>
        <time>2019-08-13T17:53:20Z</time>
      </trkpt>
      <trkpt lat="40.5257550" lon="-4.6535630">
        <ele>1414.0</ele>
        <time>2019-08-13T17:53:21Z</time>
      </trkpt>
      <trkpt lat="40.5257880" lon="-4.6535710">
        <ele>1414.0</ele>
        <time>2019-08-13T17:53:22Z</time>
      </trkpt>
      <trkpt lat="40.5258210" lon="-4.6535810">
        <ele>1414.0</ele>
        <time>2019-08-13T17:53:23Z</time>
      </trkpt>
      <trkpt lat="40.5258520" lon="-4.6535940">
        <ele>1414.0</ele>
        <time>2019-08-13T17:53:24Z</time>
      </trkpt>
      <trkpt lat="40.5258820" lon="-4.6536060">
        <ele>1414.0</ele>
        <time>2019-08-13T17:53:25Z</time>
      </trkpt>
      <trkpt lat="40.5259130" lon="-4.6536180">
        <ele>1414.0</ele>
        <time>2019-08-13T17:53:26Z</time>
      </trkpt>
      <trkpt lat="40.5259420" lon="-4.6536280">
        <ele>1414.0</ele>
        <time>2019-08-13T17:53:27Z</time>
      </trkpt>
      <trkpt lat="40.5259710" lon="-4.6536380">
        <ele>1414.0</ele>
        <time>2019-08-13T17:53:28Z</time>
      </trkpt>
      <trkpt lat="40.5260000" lon="-4.6536480">
        <ele>1414.0</ele>
        <time>2019-08-13T17:53:29Z</time>
      </trkpt>
      <trkpt lat="40.5260290" lon="-4.6536590">
        <ele>1414.0</ele>
        <time>2019-08-13T17:53:30Z</time>
      </trkpt>
      <trkpt lat="40.5260570" lon="-4.6536730">
        <ele>1414.0</ele>
        <time>2019-08-13T17:53:31Z</time>
      </trkpt>
      <trkpt lat="40.5260870" lon="-4.6536890">
        <ele>1414.0</ele>
        <time>2019-08-13T17:53:32Z</time>
      </trkpt>
      <trkpt lat="40.5261170" lon="-4.6537060">
        <ele>1414.0</ele>
        <time>2019-08-13T17:53:33Z</time>
      </trkpt>
      <trkpt lat="40.5261460" lon="-4.6537220">
        <ele>1414.0</ele>
        <time>2019-08-13T17:53:34Z</time>
      </trkpt>
      <trkpt lat="40.5261750" lon="-4.6537390">
        <ele>1414.0</ele>
        <time>2019-08-13T17:53:35Z</time>
      </trkpt>
      <trkpt lat="40.5262010" lon="-4.6537530">
        <ele>1414.0</ele>
        <time>2019-08-13T17:53:36Z</time>
      </trkpt>
      <trkpt lat="40.5262400" lon="-4.6537700">
        <ele>1414.0</ele>
        <time>2019-08-13T17:53:38Z</time>
      </trkpt>
      <trkpt lat="40.5262700" lon="-4.6537690">
        <ele>1414.0</ele>
        <time>2019-08-13T17:53:40Z</time>
      </trkpt>
      <trkpt lat="40.5262910" lon="-4.6537410">
        <ele>1414.0</ele>
        <time>2019-08-13T17:53:49Z</time>
      </trkpt>
      <trkpt lat="40.5263040" lon="-4.6537560">
        <ele>1414.0</ele>
        <time>2019-08-13T17:53:58Z</time>
      </trkpt>
      <trkpt lat="40.5262680" lon="-4.6537820">
        <ele>1414.0</ele>
        <time>2019-08-13T17:54:54Z</time>
      </trkpt>
      <trkpt lat="40.5262680" lon="-4.6537840">
        <ele>1414.0</ele>
        <time>2019-08-13T17:55:00Z</time>
      </trkpt>
      <trkpt lat="40.5262940" lon="-4.6538080">
        <ele>1414.0</ele>
        <time>2019-08-13T17:55:03Z</time>
      </trkpt>
      <trkpt lat="40.5263160" lon="-4.6538310">
        <ele>1414.0</ele>
        <time>2019-08-13T17:55:06Z</time>
      </trkpt>
      <trkpt lat="40.5263330" lon="-4.6538570">
        <ele>1414.0</ele>
        <time>2019-08-13T17:55:11Z</time>
      </trkpt>
      <trkpt lat="40.5263520" lon="-4.6538730">
        <ele>1414.0</ele>
        <time>2019-08-13T17:55:18Z</time>
      </trkpt>
      <trkpt lat="40.5263840" lon="-4.6539000">
        <ele>1414.0</ele>
        <time>2019-08-13T17:55:20Z</time>
      </trkpt>
      <trkpt lat="40.5264300" lon="-4.6539290">
        <ele>1414.0</ele>
        <time>2019-08-13T17:55:22Z</time>
      </trkpt>
      <trkpt lat="40.5264560" lon="-4.6539450">
        <ele>1414.0</ele>
        <time>2019-08-13T17:55:23Z</time>
      </trkpt>
      <trkpt lat="40.5264830" lon="-4.6539640">
        <ele>1414.0</ele>
        <time>2019-08-13T17:55:24Z</time>
      </trkpt>
      <trkpt lat="40.5265120" lon="-4.6539830">
        <ele>1414.0</ele>
        <time>2019-08-13T17:55:25Z</time>
      </trkpt>
      <trkpt lat="40.5265450" lon="-4.6540040">
        <ele>1414.0</ele>
        <time>2019-08-13T17:55:26Z</time>
      </trkpt>
      <trkpt lat="40.5265790" lon="-4.6540270">
        <ele>1414.0</ele>
        <time>2019-08-13T17:55:27Z</time>
      </trkpt>
      <trkpt lat="40.5266150" lon="-4.6540520">
        <ele>1414.0</ele>
        <time>2019-08-13T17:55:28Z</time>
      </trkpt>
      <trkpt lat="40.5266510" lon="-4.6540780">
        <ele>1414.0</ele>
        <time>2019-08-13T17:55:29Z</time>
      </trkpt>
      <trkpt lat="40.5266870" lon="-4.6541030">
        <ele>1414.0</ele>
        <time>2019-08-13T17:55:30Z</time>
      </trkpt>
      <trkpt lat="40.5267220" lon="-4.6541270">
        <ele>1414.0</ele>
        <time>2019-08-13T17:55:31Z</time>
      </trkpt>
      <trkpt lat="40.5267560" lon="-4.6541480">
        <ele>1414.0</ele>
        <time>2019-08-13T17:55:32Z</time>
      </trkpt>
      <trkpt lat="40.5267900" lon="-4.6541690">
        <ele>1414.0</ele>
        <time>2019-08-13T17:55:33Z</time>
      </trkpt>
      <trkpt lat="40.5268240" lon="-4.6541870">
        <ele>1414.0</ele>
        <time>2019-08-13T17:55:34Z</time>
      </trkpt>
      <trkpt lat="40.5268580" lon="-4.6542050">
        <ele>1414.0</ele>
        <time>2019-08-13T17:55:35Z</time>
      </trkpt>
      <trkpt lat="40.5268910" lon="-4.6542210">
        <ele>1414.0</ele>
        <time>2019-08-13T17:55:36Z</time>
      </trkpt>
      <trkpt lat="40.5269260" lon="-4.6542370">
        <ele>1414.0</ele>
        <time>2019-08-13T17:55:37Z</time>
      </trkpt>
      <trkpt lat="40.5269610" lon="-4.6542520">
        <ele>1414.0</ele>
        <time>2019-08-13T17:55:38Z</time>
      </trkpt>
      <trkpt lat="40.5269970" lon="-4.6542680">
        <ele>1414.0</ele>
        <time>2019-08-13T17:55:39Z</time>
      </trkpt>
      <trkpt lat="40.5270330" lon="-4.6542850">
        <ele>1413.9</ele>
        <time>2019-08-13T17:55:40Z</time>
      </trkpt>
      <trkpt lat="40.5270720" lon="-4.6543000">
        <ele>1413.9</ele>
        <time>2019-08-13T17:55:41Z</time>
      </trkpt>
      <trkpt lat="40.5271110" lon="-4.6543150">
        <ele>1413.9</ele>
        <time>2019-08-13T17:55:42Z</time>
      </trkpt>
      <trkpt lat="40.5271510" lon="-4.6543310">
        <ele>1413.9</ele>
        <time>2019-08-13T17:55:43Z</time>
      </trkpt>
      <trkpt lat="40.5271920" lon="-4.6543460">
        <ele>1413.9</ele>
        <time>2019-08-13T17:55:44Z</time>
      </trkpt>
      <trkpt lat="40.5272330" lon="-4.6543590">
        <ele>1413.9</ele>
        <time>2019-08-13T17:55:45Z</time>
      </trkpt>
      <trkpt lat="40.5272760" lon="-4.6543720">
        <ele>1413.9</ele>
        <time>2019-08-13T17:55:46Z</time>
      </trkpt>
      <trkpt lat="40.5273170" lon="-4.6543850">
        <ele>1413.9</ele>
        <time>2019-08-13T17:55:47Z</time>
      </trkpt>
      <trkpt lat="40.5273570" lon="-4.6543970">
        <ele>1413.9</ele>
        <time>2019-08-13T17:55:48Z</time>
      </trkpt>
      <trkpt lat="40.5273990" lon="-4.6544080">
        <ele>1413.8</ele>
        <time>2019-08-13T17:55:49Z</time>
      </trkpt>
      <trkpt lat="40.5274430" lon="-4.6544170">
        <ele>1413.7</ele>
        <time>2019-08-13T17:55:50Z</time>
      </trkpt>
      <trkpt lat="40.5274880" lon="-4.6544240">
        <ele>1413.6</ele>
        <time>2019-08-13T17:55:51Z</time>
      </trkpt>
      <trkpt lat="40.5275350" lon="-4.6544320">
        <ele>1413.4</ele>
        <time>2019-08-13T17:55:52Z</time>
      </trkpt>
      <trkpt lat="40.5275830" lon="-4.6544420">
        <ele>1413.1</ele>
        <time>2019-08-13T17:55:53Z</time>
      </trkpt>
      <trkpt lat="40.5276310" lon="-4.6544520">
        <ele>1412.8</ele>
        <time>2019-08-13T17:55:54Z</time>
      </trkpt>
      <trkpt lat="40.5276820" lon="-4.6544560">
        <ele>1412.4</ele>
        <time>2019-08-13T17:55:55Z</time>
      </trkpt>
      <trkpt lat="40.5277330" lon="-4.6544590">
        <ele>1411.9</ele>
        <time>2019-08-13T17:55:56Z</time>
      </trkpt>
      <trkpt lat="40.5277860" lon="-4.6544600">
        <ele>1411.3</ele>
        <time>2019-08-13T17:55:57Z</time>
      </trkpt>
      <trkpt lat="40.5278420" lon="-4.6544590">
        <ele>1410.8</ele>
        <time>2019-08-13T17:55:58Z</time>
      </trkpt>
      <trkpt lat="40.5279000" lon="-4.6544580">
        <ele>1410.3</ele>
        <time>2019-08-13T17:55:59Z</time>
      </trkpt>
      <trkpt lat="40.5279610" lon="-4.6544570">
        <ele>1409.8</ele>
        <time>2019-08-13T17:56:00Z</time>
      </trkpt>
      <trkpt lat="40.5280220" lon="-4.6544530">
        <ele>1409.5</ele>
        <time>2019-08-13T17:56:01Z</time>
      </trkpt>
      <trkpt lat="40.5280860" lon="-4.6544490">
        <ele>1409.2</ele>
        <time>2019-08-13T17:56:02Z</time>
      </trkpt>
      <trkpt lat="40.5281540" lon="-4.6544440">
        <ele>1409.0</ele>
        <time>2019-08-13T17:56:03Z</time>
      </trkpt>
      <trkpt lat="40.5282240" lon="-4.6544380">
        <ele>1408.8</ele>
        <time>2019-08-13T17:56:04Z</time>
      </trkpt>
      <trkpt lat="40.5282960" lon="-4.6544320">
        <ele>1408.7</ele>
        <time>2019-08-13T17:56:05Z</time>
      </trkpt>
      <trkpt lat="40.5283700" lon="-4.6544260">
        <ele>1408.5</ele>
        <time>2019-08-13T17:56:06Z</time>
      </trkpt>
      <trkpt lat="40.5284440" lon="-4.6544210">
        <ele>1408.3</ele>
        <time>2019-08-13T17:56:07Z</time>
      </trkpt>
      <trkpt lat="40.5285170" lon="-4.6544150">
        <ele>1408.0</ele>
        <time>2019-08-13T17:56:08Z</time>
      </trkpt>
      <trkpt lat="40.5285900" lon="-4.6544100">
        <ele>1407.6</ele>
        <time>2019-08-13T17:56:09Z</time>
      </trkpt>
      <trkpt lat="40.5286650" lon="-4.6544050">
        <ele>1407.3</ele>
        <time>2019-08-13T17:56:10Z</time>
      </trkpt>
      <trkpt lat="40.5287390" lon="-4.6543990">
        <ele>1406.9</ele>
        <time>2019-08-13T17:56:11Z</time>
      </trkpt>
      <trkpt lat="40.5288140" lon="-4.6543950">
        <ele>1406.6</ele>
        <time>2019-08-13T17:56:12Z</time>
      </trkpt>
      <trkpt lat="40.5288890" lon="-4.6543910">
        <ele>1406.4</ele>
        <time>2019-08-13T17:56:13Z</time>
      </trkpt>
      <trkpt lat="40.5289640" lon="-4.6543870">
        <ele>1406.2</ele>
        <time>2019-08-13T17:56:14Z</time>
      </trkpt>
      <trkpt lat="40.5290380" lon="-4.6543880">
        <ele>1406.1</ele>
        <time>2019-08-13T17:56:15Z</time>
      </trkpt>
      <trkpt lat="40.5291110" lon="-4.6543910">
        <ele>1406.0</ele>
        <time>2019-08-13T17:56:16Z</time>
      </trkpt>
      <trkpt lat="40.5291820" lon="-4.6543990">
        <ele>1405.9</ele>
        <time>2019-08-13T17:56:17Z</time>
      </trkpt>
      <trkpt lat="40.5292520" lon="-4.6544090">
        <ele>1405.7</ele>
        <time>2019-08-13T17:56:18Z</time>
      </trkpt>
      <trkpt lat="40.5293200" lon="-4.6544210">
        <ele>1405.5</ele>
        <time>2019-08-13T17:56:19Z</time>
      </trkpt>
      <trkpt lat="40.5293890" lon="-4.6544360">
        <ele>1405.3</ele>
        <time>2019-08-13T17:56:20Z</time>
      </trkpt>
      <trkpt lat="40.5294570" lon="-4.6544530">
        <ele>1405.0</ele>
        <time>2019-08-13T17:56:21Z</time>
      </trkpt>
      <trkpt lat="40.5295250" lon="-4.6544750">
        <ele>1404.7</ele>
        <time>2019-08-13T17:56:22Z</time>
      </trkpt>
      <trkpt lat="40.5295930" lon="-4.6545000">
        <ele>1404.4</ele>
        <time>2019-08-13T17:56:23Z</time>
      </trkpt>
      <trkpt lat="40.5296610" lon="-4.6545280">
        <ele>1404.0</ele>
        <time>2019-08-13T17:56:24Z</time>
      </trkpt>
      <trkpt lat="40.5297280" lon="-4.6545610">
        <ele>1403.6</ele>
        <time>2019-08-13T17:56:25Z</time>
      </trkpt>
      <trkpt lat="40.5297920" lon="-4.6546010">
        <ele>1403.2</ele>
        <time>2019-08-13T17:56:26Z</time>
      </trkpt>
      <trkpt lat="40.5298580" lon="-4.6546450">
        <ele>1402.7</ele>
        <time>2019-08-13T17:56:27Z</time>
      </trkpt>
      <trkpt lat="40.5299240" lon="-4.6546920">
        <ele>1402.2</ele>
        <time>2019-08-13T17:56:28Z</time>
      </trkpt>
      <trkpt lat="40.5299920" lon="-4.6547440">
        <ele>1401.6</ele>
        <time>2019-08-13T17:56:29Z</time>
      </trkpt>
      <trkpt lat="40.5300600" lon="-4.6548000">
        <ele>1400.9</ele>
        <time>2019-08-13T17:56:30Z</time>
      </trkpt>
      <trkpt lat="40.5301310" lon="-4.6548600">
        <ele>1400.2</ele>
        <time>2019-08-13T17:56:31Z</time>
      </trkpt>
      <trkpt lat="40.5302030" lon="-4.6549250">
        <ele>1399.4</ele>
        <time>2019-08-13T17:56:32Z</time>
      </trkpt>
      <trkpt lat="40.5302760" lon="-4.6549930">
        <ele>1398.6</ele>
        <time>2019-08-13T17:56:33Z</time>
      </trkpt>
      <trkpt lat="40.5303520" lon="-4.6550660">
        <ele>1397.7</ele>
        <time>2019-08-13T17:56:34Z</time>
      </trkpt>
      <trkpt lat="40.5304270" lon="-4.6551400">
        <ele>1396.8</ele>
        <time>2019-08-13T17:56:35Z</time>
      </trkpt>
      <trkpt lat="40.5305030" lon="-4.6552150">
        <ele>1395.9</ele>
        <time>2019-08-13T17:56:36Z</time>
      </trkpt>
      <trkpt lat="40.5305770" lon="-4.6552930">
        <ele>1395.0</ele>
        <time>2019-08-13T17:56:37Z</time>
      </trkpt>
      <trkpt lat="40.5306510" lon="-4.6553730">
        <ele>1394.1</ele>
        <time>2019-08-13T17:56:38Z</time>
      </trkpt>
      <trkpt lat="40.5307210" lon="-4.6554570">
        <ele>1393.3</ele>
        <time>2019-08-13T17:56:39Z</time>
      </trkpt>
      <trkpt lat="40.5307870" lon="-4.6555430">
        <ele>1392.6</ele>
        <time>2019-08-13T17:56:40Z</time>
      </trkpt>
      <trkpt lat="40.5308510" lon="-4.6556310">
        <ele>1391.8</ele>
        <time>2019-08-13T17:56:41Z</time>
      </trkpt>
      <trkpt lat="40.5309110" lon="-4.6557230">
        <ele>1391.1</ele>
        <time>2019-08-13T17:56:42Z</time>
      </trkpt>
      <trkpt lat="40.5309710" lon="-4.6558190">
        <ele>1390.4</ele>
        <time>2019-08-13T17:56:43Z</time>
      </trkpt>
      <trkpt lat="40.5310270" lon="-4.6559190">
        <ele>1389.7</ele>
        <time>2019-08-13T17:56:44Z</time>
      </trkpt>
      <trkpt lat="40.5310830" lon="-4.6560220">
        <ele>1389.0</ele>
        <time>2019-08-13T17:56:45Z</time>
      </trkpt>
      <trkpt lat="40.5311370" lon="-4.6561270">
        <ele>1388.3</ele>
        <time>2019-08-13T17:56:46Z</time>
      </trkpt>
      <trkpt lat="40.5311920" lon="-4.6562330">
        <ele>1387.6</ele>
        <time>2019-08-13T17:56:47Z</time>
      </trkpt>
      <trkpt lat="40.5312460" lon="-4.6563390">
        <ele>1386.9</ele>
        <time>2019-08-13T17:56:48Z</time>
      </trkpt>
      <trkpt lat="40.5313000" lon="-4.6564430">
        <ele>1386.2</ele>
        <time>2019-08-13T17:56:49Z</time>
      </trkpt>
      <trkpt lat="40.5313520" lon="-4.6565480">
        <ele>1385.5</ele>
        <time>2019-08-13T17:56:50Z</time>
      </trkpt>
      <trkpt lat="40.5314040" lon="-4.6566520">
        <ele>1384.9</ele>
        <time>2019-08-13T17:56:51Z</time>
      </trkpt>
      <trkpt lat="40.5314550" lon="-4.6567560">
        <ele>1384.3</ele>
        <time>2019-08-13T17:56:52Z</time>
      </trkpt>
      <trkpt lat="40.5315060" lon="-4.6568600">
        <ele>1383.8</ele>
        <time>2019-08-13T17:56:53Z</time>
      </trkpt>
      <trkpt lat="40.5315550" lon="-4.6569620">
        <ele>1383.3</ele>
        <time>2019-08-13T17:56:54Z</time>
      </trkpt>
      <trkpt lat="40.5316080" lon="-4.6570610">
        <ele>1382.8</ele>
        <time>2019-08-13T17:56:55Z</time>
      </trkpt>
      <trkpt lat="40.5316580" lon="-4.6571590">
        <ele>1382.4</ele>
        <time>2019-08-13T17:56:56Z</time>
      </trkpt>
      <trkpt lat="40.5317050" lon="-4.6572580">
        <ele>1382.0</ele>
        <time>2019-08-13T17:56:57Z</time>
      </trkpt>
      <trkpt lat="40.5317520" lon="-4.6573510">
        <ele>1381.7</ele>
        <time>2019-08-13T17:56:58Z</time>
      </trkpt>
      <trkpt lat="40.5317960" lon="-4.6574410">
        <ele>1381.4</ele>
        <time>2019-08-13T17:56:59Z</time>
      </trkpt>
      <trkpt lat="40.5318420" lon="-4.6575260">
        <ele>1381.3</ele>
        <time>2019-08-13T17:57:00Z</time>
      </trkpt>
      <trkpt lat="40.5318860" lon="-4.6576060">
        <ele>1381.2</ele>
        <time>2019-08-13T17:57:01Z</time>
      </trkpt>
      <trkpt lat="40.5319250" lon="-4.6576830">
        <ele>1381.2</ele>
        <time>2019-08-13T17:57:02Z</time>
      </trkpt>
      <trkpt lat="40.5319630" lon="-4.6577590">
        <ele>1381.2</ele>
        <time>2019-08-13T17:57:03Z</time>
      </trkpt>
      <trkpt lat="40.5320030" lon="-4.6578280">
        <ele>1381.3</ele>
        <time>2019-08-13T17:57:04Z</time>
      </trkpt>
      <trkpt lat="40.5320420" lon="-4.6578930">
        <ele>1381.3</ele>
        <time>2019-08-13T17:57:05Z</time>
      </trkpt>
      <trkpt lat="40.5320790" lon="-4.6579550">
        <ele>1381.4</ele>
        <time>2019-08-13T17:57:06Z</time>
      </trkpt>
      <trkpt lat="40.5321160" lon="-4.6580160">
        <ele>1381.5</ele>
        <time>2019-08-13T17:57:07Z</time>
      </trkpt>
      <trkpt lat="40.5321510" lon="-4.6580760">
        <ele>1381.6</ele>
        <time>2019-08-13T17:57:08Z</time>
      </trkpt>
      <trkpt lat="40.5321870" lon="-4.6581350">
        <ele>1381.6</ele>
        <time>2019-08-13T17:57:09Z</time>
      </trkpt>
      <trkpt lat="40.5322220" lon="-4.6581940">
        <ele>1381.7</ele>
        <time>2019-08-13T17:57:10Z</time>
      </trkpt>
      <trkpt lat="40.5322590" lon="-4.6582520">
        <ele>1381.6</ele>
        <time>2019-08-13T17:57:11Z</time>
      </trkpt>
      <trkpt lat="40.5322990" lon="-4.6583080">
        <ele>1381.6</ele>
        <time>2019-08-13T17:57:12Z</time>
      </trkpt>
      <trkpt lat="40.5323390" lon="-4.6583650">
        <ele>1381.5</ele>
        <time>2019-08-13T17:57:13Z</time>
      </trkpt>
      <trkpt lat="40.5323800" lon="-4.6584230">
        <ele>1381.4</ele>
        <time>2019-08-13T17:57:14Z</time>
      </trkpt>
      <trkpt lat="40.5324190" lon="-4.6584820">
        <ele>1381.2</ele>
        <time>2019-08-13T17:57:15Z</time>
      </trkpt>
      <trkpt lat="40.5324600" lon="-4.6585410">
        <ele>1381.0</ele>
        <time>2019-08-13T17:57:16Z</time>
      </trkpt>
      <trkpt lat="40.5325020" lon="-4.6586010">
        <ele>1380.8</ele>
        <time>2019-08-13T17:57:17Z</time>
      </trkpt>
      <trkpt lat="40.5325440" lon="-4.6586620">
        <ele>1380.6</ele>
        <time>2019-08-13T17:57:18Z</time>
      </trkpt>
      <trkpt lat="40.5325850" lon="-4.6587230">
        <ele>1380.4</ele>
        <time>2019-08-13T17:57:19Z</time>
      </trkpt>
      <trkpt lat="40.5326290" lon="-4.6587840">
        <ele>1380.3</ele>
        <time>2019-08-13T17:57:20Z</time>
      </trkpt>
      <trkpt lat="40.5326730" lon="-4.6588450">
        <ele>1380.1</ele>
        <time>2019-08-13T17:57:21Z</time>
      </trkpt>
      <trkpt lat="40.5327170" lon="-4.6589070">
        <ele>1379.9</ele>
        <time>2019-08-13T17:57:22Z</time>
      </trkpt>
      <trkpt lat="40.5327610" lon="-4.6589720">
        <ele>1379.8</ele>
        <time>2019-08-13T17:57:23Z</time>
      </trkpt>
      <trkpt lat="40.5328060" lon="-4.6590370">
        <ele>1379.7</ele>
        <time>2019-08-13T17:57:24Z</time>
      </trkpt>
      <trkpt lat="40.5328520" lon="-4.6591030">
        <ele>1379.5</ele>
        <time>2019-08-13T17:57:25Z</time>
      </trkpt>
      <trkpt lat="40.5328980" lon="-4.6591680">
        <ele>1379.4</ele>
        <time>2019-08-13T17:57:26Z</time>
      </trkpt>
      <trkpt lat="40.5329450" lon="-4.6592340">
        <ele>1379.3</ele>
        <time>2019-08-13T17:57:27Z</time>
      </trkpt>
      <trkpt lat="40.5329920" lon="-4.6592990">
        <ele>1379.1</ele>
        <time>2019-08-13T17:57:28Z</time>
      </trkpt>
      <trkpt lat="40.5330390" lon="-4.6593670">
        <ele>1379.0</ele>
        <time>2019-08-13T17:57:29Z</time>
      </trkpt>
      <trkpt lat="40.5330860" lon="-4.6594370">
        <ele>1378.9</ele>
        <time>2019-08-13T17:57:30Z</time>
      </trkpt>
      <trkpt lat="40.5331340" lon="-4.6595060">
        <ele>1378.7</ele>
        <time>2019-08-13T17:57:31Z</time>
      </trkpt>
      <trkpt lat="40.5331840" lon="-4.6595760">
        <ele>1378.4</ele>
        <time>2019-08-13T17:57:32Z</time>
      </trkpt>
      <trkpt lat="40.5332340" lon="-4.6596450">
        <ele>1378.0</ele>
        <time>2019-08-13T17:57:33Z</time>
      </trkpt>
      <trkpt lat="40.5332840" lon="-4.6597150">
        <ele>1377.6</ele>
        <time>2019-08-13T17:57:34Z</time>
      </trkpt>
      <trkpt lat="40.5333330" lon="-4.6597870">
        <ele>1377.1</ele>
        <time>2019-08-13T17:57:35Z</time>
      </trkpt>
      <trkpt lat="40.5333810" lon="-4.6598570">
        <ele>1376.5</ele>
        <time>2019-08-13T17:57:36Z</time>
      </trkpt>
      <trkpt lat="40.5334300" lon="-4.6599270">
        <ele>1376.1</ele>
        <time>2019-08-13T17:57:37Z</time>
      </trkpt>
      <trkpt lat="40.5334770" lon="-4.6599950">
        <ele>1375.7</ele>
        <time>2019-08-13T17:57:38Z</time>
      </trkpt>
      <trkpt lat="40.5335220" lon="-4.6600640">
        <ele>1375.4</ele>
        <time>2019-08-13T17:57:39Z</time>
      </trkpt>
      <trkpt lat="40.5335680" lon="-4.6601310">
        <ele>1375.1</ele>
        <time>2019-08-13T17:57:40Z</time>
      </trkpt>
      <trkpt lat="40.5336140" lon="-4.6601980">
        <ele>1374.9</ele>
        <time>2019-08-13T17:57:41Z</time>
      </trkpt>
      <trkpt lat="40.5336590" lon="-4.6602640">
        <ele>1374.7</ele>
        <time>2019-08-13T17:57:42Z</time>
      </trkpt>
      <trkpt lat="40.5337040" lon="-4.6603260">
        <ele>1374.5</ele>
        <time>2019-08-13T17:57:43Z</time>
      </trkpt>
      <trkpt lat="40.5337480" lon="-4.6603890">
        <ele>1374.4</ele>
        <time>2019-08-13T17:57:44Z</time>
      </trkpt>
      <trkpt lat="40.5337930" lon="-4.6604510">
        <ele>1374.2</ele>
        <time>2019-08-13T17:57:45Z</time>
      </trkpt>
      <trkpt lat="40.5338370" lon="-4.6605140">
        <ele>1374.0</ele>
        <time>2019-08-13T17:57:46Z</time>
      </trkpt>
      <trkpt lat="40.5338810" lon="-4.6605780">
        <ele>1373.9</ele>
        <time>2019-08-13T17:57:47Z</time>
      </trkpt>
      <trkpt lat="40.5339240" lon="-4.6606430">
        <ele>1373.7</ele>
        <time>2019-08-13T17:57:48Z</time>
      </trkpt>
      <trkpt lat="40.5339670" lon="-4.6607080">
        <ele>1373.6</ele>
        <time>2019-08-13T17:57:49Z</time>
      </trkpt>
      <trkpt lat="40.5340110" lon="-4.6607720">
        <ele>1373.4</ele>
        <time>2019-08-13T17:57:50Z</time>
      </trkpt>
      <trkpt lat="40.5340560" lon="-4.6608340">
        <ele>1373.3</ele>
        <time>2019-08-13T17:57:51Z</time>
      </trkpt>
      <trkpt lat="40.5341010" lon="-4.6608940">
        <ele>1373.1</ele>
        <time>2019-08-13T17:57:52Z</time>
      </trkpt>
      <trkpt lat="40.5341440" lon="-4.6609550">
        <ele>1373.0</ele>
        <time>2019-08-13T17:57:53Z</time>
      </trkpt>
      <trkpt lat="40.5341860" lon="-4.6610150">
        <ele>1373.0</ele>
        <time>2019-08-13T17:57:54Z</time>
      </trkpt>
      <trkpt lat="40.5342290" lon="-4.6610750">
        <ele>1372.9</ele>
        <time>2019-08-13T17:57:55Z</time>
      </trkpt>
      <trkpt lat="40.5342720" lon="-4.6611320">
        <ele>1372.8</ele>
        <time>2019-08-13T17:57:56Z</time>
      </trkpt>
      <trkpt lat="40.5343140" lon="-4.6611890">
        <ele>1372.7</ele>
        <time>2019-08-13T17:57:57Z</time>
      </trkpt>
      <trkpt lat="40.5343560" lon="-4.6612440">
        <ele>1372.6</ele>
        <time>2019-08-13T17:57:58Z</time>
      </trkpt>
      <trkpt lat="40.5343990" lon="-4.6612980">
        <ele>1372.5</ele>
        <time>2019-08-13T17:57:59Z</time>
      </trkpt>
      <trkpt lat="40.5344430" lon="-4.6613540">
        <ele>1372.3</ele>
        <time>2019-08-13T17:58:00Z</time>
      </trkpt>
      <trkpt lat="40.5344880" lon="-4.6614110">
        <ele>1372.2</ele>
        <time>2019-08-13T17:58:01Z</time>
      </trkpt>
      <trkpt lat="40.5345330" lon="-4.6614660">
        <ele>1372.0</ele>
        <time>2019-08-13T17:58:02Z</time>
      </trkpt>
      <trkpt lat="40.5345780" lon="-4.6615190">
        <ele>1371.9</ele>
        <time>2019-08-13T17:58:03Z</time>
      </trkpt>
      <trkpt lat="40.5346250" lon="-4.6615720">
        <ele>1371.7</ele>
        <time>2019-08-13T17:58:04Z</time>
      </trkpt>
      <trkpt lat="40.5346720" lon="-4.6616250">
        <ele>1371.6</ele>
        <time>2019-08-13T17:58:05Z</time>
      </trkpt>
      <trkpt lat="40.5347210" lon="-4.6616760">
        <ele>1371.4</ele>
        <time>2019-08-13T17:58:06Z</time>
      </trkpt>
      <trkpt lat="40.5347710" lon="-4.6617280">
        <ele>1371.3</ele>
        <time>2019-08-13T17:58:07Z</time>
      </trkpt>
      <trkpt lat="40.5348230" lon="-4.6617820">
        <ele>1371.1</ele>
        <time>2019-08-13T17:58:08Z</time>
      </trkpt>
      <trkpt lat="40.5348770" lon="-4.6618370">
        <ele>1370.9</ele>
        <time>2019-08-13T17:58:09Z</time>
      </trkpt>
      <trkpt lat="40.5349330" lon="-4.6618920">
        <ele>1370.7</ele>
        <time>2019-08-13T17:58:10Z</time>
      </trkpt>
      <trkpt lat="40.5349920" lon="-4.6619450">
        <ele>1370.5</ele>
        <time>2019-08-13T17:58:11Z</time>
      </trkpt>
      <trkpt lat="40.5350540" lon="-4.6619970">
        <ele>1370.1</ele>
        <time>2019-08-13T17:58:12Z</time>
      </trkpt>
      <trkpt lat="40.5351170" lon="-4.6620490">
        <ele>1369.6</ele>
        <time>2019-08-13T17:58:13Z</time>
      </trkpt>
      <trkpt lat="40.5351830" lon="-4.6621010">
        <ele>1368.9</ele>
        <time>2019-08-13T17:58:14Z</time>
      </trkpt>
      <trkpt lat="40.5352510" lon="-4.6621530">
        <ele>1368.1</ele>
        <time>2019-08-13T17:58:15Z</time>
      </trkpt>
      <trkpt lat="40.5353200" lon="-4.6622050">
        <ele>1367.3</ele>
        <time>2019-08-13T17:58:16Z</time>
      </trkpt>
      <trkpt lat="40.5353920" lon="-4.6622560">
        <ele>1366.4</ele>
        <time>2019-08-13T17:58:17Z</time>
      </trkpt>
      <trkpt lat="40.5354660" lon="-4.6623070">
        <ele>1365.7</ele>
        <time>2019-08-13T17:58:18Z</time>
      </trkpt>
      <trkpt lat="40.5355420" lon="-4.6623560">
        <ele>1365.0</ele>
        <time>2019-08-13T17:58:19Z</time>
      </trkpt>
      <trkpt lat="40.5356200" lon="-4.6624030">
        <ele>1364.4</ele>
        <time>2019-08-13T17:58:20Z</time>
      </trkpt>
      <trkpt lat="40.5357000" lon="-4.6624500">
        <ele>1363.8</ele>
        <time>2019-08-13T17:58:21Z</time>
      </trkpt>
      <trkpt lat="40.5357830" lon="-4.6624920">
        <ele>1363.2</ele>
        <time>2019-08-13T17:58:22Z</time>
      </trkpt>
      <trkpt lat="40.5358660" lon="-4.6625350">
        <ele>1362.6</ele>
        <time>2019-08-13T17:58:23Z</time>
      </trkpt>
      <trkpt lat="40.5359510" lon="-4.6625750">
        <ele>1362.0</ele>
        <time>2019-08-13T17:58:24Z</time>
      </trkpt>
      <trkpt lat="40.5360370" lon="-4.6626140">
        <ele>1361.4</ele>
        <time>2019-08-13T17:58:25Z</time>
      </trkpt>
      <trkpt lat="40.5361250" lon="-4.6626510">
        <ele>1360.8</ele>
        <time>2019-08-13T17:58:26Z</time>
      </trkpt>
      <trkpt lat="40.5362140" lon="-4.6626840">
        <ele>1360.2</ele>
        <time>2019-08-13T17:58:27Z</time>
      </trkpt>
      <trkpt lat="40.5363030" lon="-4.6627150">
        <ele>1359.7</ele>
        <time>2019-08-13T17:58:28Z</time>
      </trkpt>
      <trkpt lat="40.5363920" lon="-4.6627440">
        <ele>1359.1</ele>
        <time>2019-08-13T17:58:29Z</time>
      </trkpt>
      <trkpt lat="40.5364810" lon="-4.6627700">
        <ele>1358.6</ele>
        <time>2019-08-13T17:58:30Z</time>
      </trkpt>
      <trkpt lat="40.5365700" lon="-4.6627920">
        <ele>1358.1</ele>
        <time>2019-08-13T17:58:31Z</time>
      </trkpt>
      <trkpt lat="40.5366560" lon="-4.6628110">
        <ele>1357.7</ele>
        <time>2019-08-13T17:58:32Z</time>
      </trkpt>
      <trkpt lat="40.5367410" lon="-4.6628290">
        <ele>1357.4</ele>
        <time>2019-08-13T17:58:33Z</time>
      </trkpt>
      <trkpt lat="40.5368280" lon="-4.6628440">
        <ele>1357.0</ele>
        <time>2019-08-13T17:58:34Z</time>
      </trkpt>
      <trkpt lat="40.5369150" lon="-4.6628560">
        <ele>1356.7</ele>
        <time>2019-08-13T17:58:35Z</time>
      </trkpt>
      <trkpt lat="40.5370030" lon="-4.6628640">
        <ele>1356.4</ele>
        <time>2019-08-13T17:58:36Z</time>
      </trkpt>
      <trkpt lat="40.5370890" lon="-4.6628700">
        <ele>1356.2</ele>
        <time>2019-08-13T17:58:37Z</time>
      </trkpt>
      <trkpt lat="40.5371770" lon="-4.6628740">
        <ele>1356.0</ele>
        <time>2019-08-13T17:58:38Z</time>
      </trkpt>
      <trkpt lat="40.5372630" lon="-4.6628760">
        <ele>1355.8</ele>
        <time>2019-08-13T17:58:39Z</time>
      </trkpt>
      <trkpt lat="40.5373490" lon="-4.6628770">
        <ele>1355.5</ele>
        <time>2019-08-13T17:58:40Z</time>
      </trkpt>
      <trkpt lat="40.5374330" lon="-4.6628780">
        <ele>1355.3</ele>
        <time>2019-08-13T17:58:41Z</time>
      </trkpt>
      <trkpt lat="40.5375170" lon="-4.6628740">
        <ele>1355.0</ele>
        <time>2019-08-13T17:58:42Z</time>
      </trkpt>
      <trkpt lat="40.5376010" lon="-4.6628670">
        <ele>1354.7</ele>
        <time>2019-08-13T17:58:43Z</time>
      </trkpt>
      <trkpt lat="40.5376850" lon="-4.6628580">
        <ele>1354.5</ele>
        <time>2019-08-13T17:58:44Z</time>
      </trkpt>
      <trkpt lat="40.5377670" lon="-4.6628460">
        <ele>1354.3</ele>
        <time>2019-08-13T17:58:45Z</time>
      </trkpt>
      <trkpt lat="40.5378480" lon="-4.6628330">
        <ele>1354.1</ele>
        <time>2019-08-13T17:58:46Z</time>
      </trkpt>
      <trkpt lat="40.5379280" lon="-4.6628190">
        <ele>1354.0</ele>
        <time>2019-08-13T17:58:47Z</time>
      </trkpt>
      <trkpt lat="40.5380090" lon="-4.6628010">
        <ele>1353.9</ele>
        <time>2019-08-13T17:58:48Z</time>
      </trkpt>
      <trkpt lat="40.5380890" lon="-4.6627800">
        <ele>1353.8</ele>
        <time>2019-08-13T17:58:49Z</time>
      </trkpt>
      <trkpt lat="40.5381690" lon="-4.6627570">
        <ele>1353.6</ele>
        <time>2019-08-13T17:58:50Z</time>
      </trkpt>
      <trkpt lat="40.5382480" lon="-4.6627340">
        <ele>1353.4</ele>
        <time>2019-08-13T17:58:51Z</time>
      </trkpt>
      <trkpt lat="40.5383270" lon="-4.6627100">
        <ele>1353.2</ele>
        <time>2019-08-13T17:58:52Z</time>
      </trkpt>
      <trkpt lat="40.5384050" lon="-4.6626860">
        <ele>1353.1</ele>
        <time>2019-08-13T17:58:53Z</time>
      </trkpt>
      <trkpt lat="40.5384840" lon="-4.6626600">
        <ele>1353.0</ele>
        <time>2019-08-13T17:58:54Z</time>
      </trkpt>
      <trkpt lat="40.5385610" lon="-4.6626320">
        <ele>1353.0</ele>
        <time>2019-08-13T17:58:55Z</time>
      </trkpt>
      <trkpt lat="40.5386370" lon="-4.6626030">
        <ele>1353.0</ele>
        <time>2019-08-13T17:58:56Z</time>
      </trkpt>
      <trkpt lat="40.5387130" lon="-4.6625750">
        <ele>1352.9</ele>
        <time>2019-08-13T17:58:57Z</time>
      </trkpt>
      <trkpt lat="40.5387880" lon="-4.6625480">
        <ele>1352.9</ele>
        <time>2019-08-13T17:58:58Z</time>
      </trkpt>
      <trkpt lat="40.5388620" lon="-4.6625210">
        <ele>1352.9</ele>
        <time>2019-08-13T17:58:59Z</time>
      </trkpt>
      <trkpt lat="40.5389350" lon="-4.6624920">
        <ele>1352.9</ele>
        <time>2019-08-13T17:59:00Z</time>
      </trkpt>
      <trkpt lat="40.5390070" lon="-4.6624650">
        <ele>1352.9</ele>
        <time>2019-08-13T17:59:01Z</time>
      </trkpt>
      <trkpt lat="40.5390770" lon="-4.6624410">
        <ele>1352.9</ele>
        <time>2019-08-13T17:59:02Z</time>
      </trkpt>
      <trkpt lat="40.5391450" lon="-4.6624150">
        <ele>1352.9</ele>
        <time>2019-08-13T17:59:03Z</time>
      </trkpt>
      <trkpt lat="40.5392120" lon="-4.6623900">
        <ele>1353.0</ele>
        <time>2019-08-13T17:59:04Z</time>
      </trkpt>
      <trkpt lat="40.5392770" lon="-4.6623660">
        <ele>1353.0</ele>
        <time>2019-08-13T17:59:05Z</time>
      </trkpt>
      <trkpt lat="40.5393420" lon="-4.6623430">
        <ele>1353.0</ele>
        <time>2019-08-13T17:59:06Z</time>
      </trkpt>
      <trkpt lat="40.5394070" lon="-4.6623170">
        <ele>1353.1</ele>
        <time>2019-08-13T17:59:07Z</time>
      </trkpt>
      <trkpt lat="40.5394690" lon="-4.6622950">
        <ele>1353.2</ele>
        <time>2019-08-13T17:59:08Z</time>
      </trkpt>
      <trkpt lat="40.5395320" lon="-4.6622720">
        <ele>1353.3</ele>
        <time>2019-08-13T17:59:09Z</time>
      </trkpt>
      <trkpt lat="40.5395930" lon="-4.6622510">
        <ele>1353.5</ele>
        <time>2019-08-13T17:59:10Z</time>
      </trkpt>
      <trkpt lat="40.5396530" lon="-4.6622300">
        <ele>1353.7</ele>
        <time>2019-08-13T17:59:11Z</time>
      </trkpt>
      <trkpt lat="40.5397120" lon="-4.6622070">
        <ele>1353.8</ele>
        <time>2019-08-13T17:59:12Z</time>
      </trkpt>
      <trkpt lat="40.5397690" lon="-4.6621840">
        <ele>1353.9</ele>
        <time>2019-08-13T17:59:13Z</time>
      </trkpt>
      <trkpt lat="40.5398260" lon="-4.6621630">
        <ele>1354.0</ele>
        <time>2019-08-13T17:59:14Z</time>
      </trkpt>
      <trkpt lat="40.5398830" lon="-4.6621430">
        <ele>1354.0</ele>
        <time>2019-08-13T17:59:15Z</time>
      </trkpt>
      <trkpt lat="40.5399390" lon="-4.6621220">
        <ele>1353.9</ele>
        <time>2019-08-13T17:59:16Z</time>
      </trkpt>
      <trkpt lat="40.5399960" lon="-4.6621020">
        <ele>1353.8</ele>
        <time>2019-08-13T17:59:17Z</time>
      </trkpt>
      <trkpt lat="40.5400520" lon="-4.6620800">
        <ele>1353.7</ele>
        <time>2019-08-13T17:59:18Z</time>
      </trkpt>
      <trkpt lat="40.5401080" lon="-4.6620600">
        <ele>1353.6</ele>
        <time>2019-08-13T17:59:19Z</time>
      </trkpt>
      <trkpt lat="40.5401650" lon="-4.6620400">
        <ele>1353.4</ele>
        <time>2019-08-13T17:59:20Z</time>
      </trkpt>
      <trkpt lat="40.5402230" lon="-4.6620200">
        <ele>1353.2</ele>
        <time>2019-08-13T17:59:21Z</time>
      </trkpt>
      <trkpt lat="40.5402790" lon="-4.6620000">
        <ele>1353.1</ele>
        <time>2019-08-13T17:59:22Z</time>
      </trkpt>
      <trkpt lat="40.5403360" lon="-4.6619820">
        <ele>1353.0</ele>
        <time>2019-08-13T17:59:23Z</time>
      </trkpt>
      <trkpt lat="40.5403950" lon="-4.6619640">
        <ele>1353.0</ele>
        <time>2019-08-13T17:59:24Z</time>
      </trkpt>
      <trkpt lat="40.5404550" lon="-4.6619480">
        <ele>1353.0</ele>
        <time>2019-08-13T17:59:25Z</time>
      </trkpt>
      <trkpt lat="40.5405150" lon="-4.6619320">
        <ele>1352.9</ele>
        <time>2019-08-13T17:59:26Z</time>
      </trkpt>
      <trkpt lat="40.5405750" lon="-4.6619170">
        <ele>1352.9</ele>
        <time>2019-08-13T17:59:27Z</time>
      </trkpt>
      <trkpt lat="40.5406360" lon="-4.6618990">
        <ele>1352.8</ele>
        <time>2019-08-13T17:59:28Z</time>
      </trkpt>
      <trkpt lat="40.5406980" lon="-4.6618810">
        <ele>1352.8</ele>
        <time>2019-08-13T17:59:29Z</time>
      </trkpt>
      <trkpt lat="40.5407610" lon="-4.6618640">
        <ele>1352.6</ele>
        <time>2019-08-13T17:59:30Z</time>
      </trkpt>
      <trkpt lat="40.5408250" lon="-4.6618470">
        <ele>1352.5</ele>
        <time>2019-08-13T17:59:31Z</time>
      </trkpt>
      <trkpt lat="40.5408900" lon="-4.6618330">
        <ele>1352.3</ele>
        <time>2019-08-13T17:59:32Z</time>
      </trkpt>
      <trkpt lat="40.5409550" lon="-4.6618190">
        <ele>1352.1</ele>
        <time>2019-08-13T17:59:33Z</time>
      </trkpt>
      <trkpt lat="40.5410200" lon="-4.6618050">
        <ele>1351.9</ele>
        <time>2019-08-13T17:59:34Z</time>
      </trkpt>
      <trkpt lat="40.5410850" lon="-4.6617920">
        <ele>1351.6</ele>
        <time>2019-08-13T17:59:35Z</time>
      </trkpt>
      <trkpt lat="40.5411510" lon="-4.6617800">
        <ele>1351.4</ele>
        <time>2019-08-13T17:59:36Z</time>
      </trkpt>
      <trkpt lat="40.5412180" lon="-4.6617690">
        <ele>1351.2</ele>
        <time>2019-08-13T17:59:37Z</time>
      </trkpt>
      <trkpt lat="40.5412840" lon="-4.6617600">
        <ele>1351.0</ele>
        <time>2019-08-13T17:59:38Z</time>
      </trkpt>
      <trkpt lat="40.5413510" lon="-4.6617500">
        <ele>1350.8</ele>
        <time>2019-08-13T17:59:39Z</time>
      </trkpt>
      <trkpt lat="40.5414190" lon="-4.6617390">
        <ele>1350.5</ele>
        <time>2019-08-13T17:59:40Z</time>
      </trkpt>
      <trkpt lat="40.5414870" lon="-4.6617290">
        <ele>1350.3</ele>
        <time>2019-08-13T17:59:41Z</time>
      </trkpt>
      <trkpt lat="40.5415550" lon="-4.6617190">
        <ele>1349.9</ele>
        <time>2019-08-13T17:59:42Z</time>
      </trkpt>
      <trkpt lat="40.5416220" lon="-4.6617100">
        <ele>1349.6</ele>
        <time>2019-08-13T17:59:43Z</time>
      </trkpt>
      <trkpt lat="40.5416890" lon="-4.6617000">
        <ele>1349.2</ele>
        <time>2019-08-13T17:59:44Z</time>
      </trkpt>
      <trkpt lat="40.5417550" lon="-4.6616890">
        <ele>1348.9</ele>
        <time>2019-08-13T17:59:45Z</time>
      </trkpt>
      <trkpt lat="40.5418200" lon="-4.6616800">
        <ele>1348.6</ele>
        <time>2019-08-13T17:59:46Z</time>
      </trkpt>
      <trkpt lat="40.5418860" lon="-4.6616710">
        <ele>1348.3</ele>
        <time>2019-08-13T17:59:47Z</time>
      </trkpt>
      <trkpt lat="40.5419520" lon="-4.6616610">
        <ele>1348.0</ele>
        <time>2019-08-13T17:59:48Z</time>
      </trkpt>
      <trkpt lat="40.5420160" lon="-4.6616510">
        <ele>1347.8</ele>
        <time>2019-08-13T17:59:49Z</time>
      </trkpt>
      <trkpt lat="40.5420810" lon="-4.6616430">
        <ele>1347.6</ele>
        <time>2019-08-13T17:59:50Z</time>
      </trkpt>
      <trkpt lat="40.5421460" lon="-4.6616340">
        <ele>1347.3</ele>
        <time>2019-08-13T17:59:51Z</time>
      </trkpt>
      <trkpt lat="40.5422110" lon="-4.6616230">
        <ele>1347.1</ele>
        <time>2019-08-13T17:59:52Z</time>
      </trkpt>
      <trkpt lat="40.5422760" lon="-4.6616150">
        <ele>1346.8</ele>
        <time>2019-08-13T17:59:53Z</time>
      </trkpt>
      <trkpt lat="40.5423420" lon="-4.6616040">
        <ele>1346.5</ele>
        <time>2019-08-13T17:59:54Z</time>
      </trkpt>
      <trkpt lat="40.5424070" lon="-4.6615940">
        <ele>1346.3</ele>
        <time>2019-08-13T17:59:55Z</time>
      </trkpt>
      <trkpt lat="40.5424730" lon="-4.6615840">
        <ele>1346.1</ele>
        <time>2019-08-13T17:59:56Z</time>
      </trkpt>
      <trkpt lat="40.5425380" lon="-4.6615750">
        <ele>1345.9</ele>
        <time>2019-08-13T17:59:57Z</time>
      </trkpt>
      <trkpt lat="40.5426010" lon="-4.6615670">
        <ele>1345.6</ele>
        <time>2019-08-13T17:59:58Z</time>
      </trkpt>
      <trkpt lat="40.5426640" lon="-4.6615580">
        <ele>1345.4</ele>
        <time>2019-08-13T17:59:59Z</time>
      </trkpt>
      <trkpt lat="40.5427260" lon="-4.6615490">
        <ele>1345.2</ele>
        <time>2019-08-13T18:00:00Z</time>
      </trkpt>
      <trkpt lat="40.5427880" lon="-4.6615390">
        <ele>1344.9</ele>
        <time>2019-08-13T18:00:01Z</time>
      </trkpt>
      <trkpt lat="40.5428520" lon="-4.6615290">
        <ele>1344.7</ele>
        <time>2019-08-13T18:00:02Z</time>
      </trkpt>
      <trkpt lat="40.5429170" lon="-4.6615180">
        <ele>1344.4</ele>
        <time>2019-08-13T18:00:03Z</time>
      </trkpt>
      <trkpt lat="40.5429830" lon="-4.6615080">
        <ele>1344.2</ele>
        <time>2019-08-13T18:00:04Z</time>
      </trkpt>
      <trkpt lat="40.5430500" lon="-4.6614970">
        <ele>1343.9</ele>
        <time>2019-08-13T18:00:05Z</time>
      </trkpt>
      <trkpt lat="40.5431180" lon="-4.6614870">
        <ele>1343.7</ele>
        <time>2019-08-13T18:00:06Z</time>
      </trkpt>
      <trkpt lat="40.5431880" lon="-4.6614770">
        <ele>1343.4</ele>
        <time>2019-08-13T18:00:07Z</time>
      </trkpt>
      <trkpt lat="40.5432610" lon="-4.6614660">
        <ele>1343.1</ele>
        <time>2019-08-13T18:00:08Z</time>
      </trkpt>
      <trkpt lat="40.5433350" lon="-4.6614560">
        <ele>1342.8</ele>
        <time>2019-08-13T18:00:09Z</time>
      </trkpt>
      <trkpt lat="40.5434100" lon="-4.6614480">
        <ele>1342.4</ele>
        <time>2019-08-13T18:00:10Z</time>
      </trkpt>
      <trkpt lat="40.5434870" lon="-4.6614380">
        <ele>1342.0</ele>
        <time>2019-08-13T18:00:11Z</time>
      </trkpt>
      <trkpt lat="40.5435640" lon="-4.6614250">
        <ele>1341.7</ele>
        <time>2019-08-13T18:00:12Z</time>
      </trkpt>
      <trkpt lat="40.5436420" lon="-4.6614110">
        <ele>1341.3</ele>
        <time>2019-08-13T18:00:13Z</time>
      </trkpt>
      <trkpt lat="40.5437230" lon="-4.6613990">
        <ele>1340.9</ele>
        <time>2019-08-13T18:00:14Z</time>
      </trkpt>
      <trkpt lat="40.5438050" lon="-4.6613870">
        <ele>1340.5</ele>
        <time>2019-08-13T18:00:15Z</time>
      </trkpt>
      <trkpt lat="40.5438880" lon="-4.6613740">
        <ele>1340.1</ele>
        <time>2019-08-13T18:00:16Z</time>
      </trkpt>
      <trkpt lat="40.5439720" lon="-4.6613610">
        <ele>1339.7</ele>
        <time>2019-08-13T18:00:17Z</time>
      </trkpt>
      <trkpt lat="40.5440570" lon="-4.6613480">
        <ele>1339.3</ele>
        <time>2019-08-13T18:00:18Z</time>
      </trkpt>
      <trkpt lat="40.5441440" lon="-4.6613350">
        <ele>1338.9</ele>
        <time>2019-08-13T18:00:19Z</time>
      </trkpt>
      <trkpt lat="40.5442300" lon="-4.6613230">
        <ele>1338.6</ele>
        <time>2019-08-13T18:00:20Z</time>
      </trkpt>
      <trkpt lat="40.5443160" lon="-4.6613100">
        <ele>1338.4</ele>
        <time>2019-08-13T18:00:21Z</time>
      </trkpt>
      <trkpt lat="40.5444010" lon="-4.6612970">
        <ele>1338.2</ele>
        <time>2019-08-13T18:00:22Z</time>
      </trkpt>
      <trkpt lat="40.5444850" lon="-4.6612850">
        <ele>1338.1</ele>
        <time>2019-08-13T18:00:23Z</time>
      </trkpt>
      <trkpt lat="40.5445650" lon="-4.6612740">
        <ele>1338.1</ele>
        <time>2019-08-13T18:00:24Z</time>
      </trkpt>
      <trkpt lat="40.5446440" lon="-4.6612640">
        <ele>1338.1</ele>
        <time>2019-08-13T18:00:25Z</time>
      </trkpt>
      <trkpt lat="40.5447210" lon="-4.6612540">
        <ele>1338.0</ele>
        <time>2019-08-13T18:00:26Z</time>
      </trkpt>
      <trkpt lat="40.5447970" lon="-4.6612430">
        <ele>1338.0</ele>
        <time>2019-08-13T18:00:27Z</time>
      </trkpt>
      <trkpt lat="40.5448700" lon="-4.6612340">
        <ele>1338.0</ele>
        <time>2019-08-13T18:00:28Z</time>
      </trkpt>
      <trkpt lat="40.5449410" lon="-4.6612260">
        <ele>1338.0</ele>
        <time>2019-08-13T18:00:29Z</time>
      </trkpt>
      <trkpt lat="40.5450090" lon="-4.6612170">
        <ele>1338.1</ele>
        <time>2019-08-13T18:00:30Z</time>
      </trkpt>
      <trkpt lat="40.5450740" lon="-4.6612080">
        <ele>1338.1</ele>
        <time>2019-08-13T18:00:31Z</time>
      </trkpt>
      <trkpt lat="40.5451370" lon="-4.6611980">
        <ele>1338.1</ele>
        <time>2019-08-13T18:00:32Z</time>
      </trkpt>
      <trkpt lat="40.5451980" lon="-4.6611900">
        <ele>1338.2</ele>
        <time>2019-08-13T18:00:33Z</time>
      </trkpt>
      <trkpt lat="40.5452580" lon="-4.6611830">
        <ele>1338.3</ele>
        <time>2019-08-13T18:00:34Z</time>
      </trkpt>
      <trkpt lat="40.5453160" lon="-4.6611760">
        <ele>1338.4</ele>
        <time>2019-08-13T18:00:35Z</time>
      </trkpt>
      <trkpt lat="40.5453720" lon="-4.6611700">
        <ele>1338.5</ele>
        <time>2019-08-13T18:00:36Z</time>
      </trkpt>
      <trkpt lat="40.5454270" lon="-4.6611630">
        <ele>1338.7</ele>
        <time>2019-08-13T18:00:37Z</time>
      </trkpt>
      <trkpt lat="40.5454820" lon="-4.6611570">
        <ele>1338.8</ele>
        <time>2019-08-13T18:00:38Z</time>
      </trkpt>
      <trkpt lat="40.5455350" lon="-4.6611490">
        <ele>1338.9</ele>
        <time>2019-08-13T18:00:39Z</time>
      </trkpt>
      <trkpt lat="40.5455880" lon="-4.6611430">
        <ele>1338.9</ele>
        <time>2019-08-13T18:00:40Z</time>
      </trkpt>
      <trkpt lat="40.5456410" lon="-4.6611390">
        <ele>1338.9</ele>
        <time>2019-08-13T18:00:41Z</time>
      </trkpt>
      <trkpt lat="40.5456930" lon="-4.6611350">
        <ele>1338.9</ele>
        <time>2019-08-13T18:00:42Z</time>
      </trkpt>
      <trkpt lat="40.5457450" lon="-4.6611320">
        <ele>1338.9</ele>
        <time>2019-08-13T18:00:43Z</time>
      </trkpt>
      <trkpt lat="40.5457960" lon="-4.6611270">
        <ele>1338.9</ele>
        <time>2019-08-13T18:00:44Z</time>
      </trkpt>
      <trkpt lat="40.5458480" lon="-4.6611220">
        <ele>1338.9</ele>
        <time>2019-08-13T18:00:45Z</time>
      </trkpt>
      <trkpt lat="40.5459030" lon="-4.6611190">
        <ele>1338.9</ele>
        <time>2019-08-13T18:00:46Z</time>
      </trkpt>
      <trkpt lat="40.5459560" lon="-4.6611170">
        <ele>1338.9</ele>
        <time>2019-08-13T18:00:47Z</time>
      </trkpt>
      <trkpt lat="40.5460110" lon="-4.6611150">
        <ele>1338.9</ele>
        <time>2019-08-13T18:00:48Z</time>
      </trkpt>
      <trkpt lat="40.5460680" lon="-4.6611150">
        <ele>1338.9</ele>
        <time>2019-08-13T18:00:49Z</time>
      </trkpt>
      <trkpt lat="40.5461270" lon="-4.6611150">
        <ele>1338.9</ele>
        <time>2019-08-13T18:00:50Z</time>
      </trkpt>
      <trkpt lat="40.5461870" lon="-4.6611150">
        <ele>1338.9</ele>
        <time>2019-08-13T18:00:51Z</time>
      </trkpt>
      <trkpt lat="40.5462480" lon="-4.6611190">
        <ele>1338.9</ele>
        <time>2019-08-13T18:00:52Z</time>
      </trkpt>
      <trkpt lat="40.5463120" lon="-4.6611230">
        <ele>1338.8</ele>
        <time>2019-08-13T18:00:53Z</time>
      </trkpt>
      <trkpt lat="40.5463750" lon="-4.6611280">
        <ele>1338.7</ele>
        <time>2019-08-13T18:00:54Z</time>
      </trkpt>
      <trkpt lat="40.5464390" lon="-4.6611340">
        <ele>1338.6</ele>
        <time>2019-08-13T18:00:55Z</time>
      </trkpt>
      <trkpt lat="40.5465040" lon="-4.6611390">
        <ele>1338.5</ele>
        <time>2019-08-13T18:00:56Z</time>
      </trkpt>
      <trkpt lat="40.5465680" lon="-4.6611460">
        <ele>1338.3</ele>
        <time>2019-08-13T18:00:57Z</time>
      </trkpt>
      <trkpt lat="40.5466330" lon="-4.6611520">
        <ele>1338.2</ele>
        <time>2019-08-13T18:00:58Z</time>
      </trkpt>
      <trkpt lat="40.5466960" lon="-4.6611610">
        <ele>1338.1</ele>
        <time>2019-08-13T18:00:59Z</time>
      </trkpt>
      <trkpt lat="40.5467610" lon="-4.6611710">
        <ele>1338.1</ele>
        <time>2019-08-13T18:01:00Z</time>
      </trkpt>
      <trkpt lat="40.5468250" lon="-4.6611810">
        <ele>1338.0</ele>
        <time>2019-08-13T18:01:01Z</time>
      </trkpt>
      <trkpt lat="40.5468860" lon="-4.6611910">
        <ele>1338.0</ele>
        <time>2019-08-13T18:01:02Z</time>
      </trkpt>
      <trkpt lat="40.5469450" lon="-4.6612030">
        <ele>1338.0</ele>
        <time>2019-08-13T18:01:03Z</time>
      </trkpt>
      <trkpt lat="40.5470030" lon="-4.6612170">
        <ele>1337.9</ele>
        <time>2019-08-13T18:01:04Z</time>
      </trkpt>
      <trkpt lat="40.5470600" lon="-4.6612300">
        <ele>1337.8</ele>
        <time>2019-08-13T18:01:05Z</time>
      </trkpt>
      <trkpt lat="40.5471130" lon="-4.6612390">
        <ele>1337.7</ele>
        <time>2019-08-13T18:01:06Z</time>
      </trkpt>
      <trkpt lat="40.5471650" lon="-4.6612480">
        <ele>1337.6</ele>
        <time>2019-08-13T18:01:07Z</time>
      </trkpt>
      <trkpt lat="40.5472170" lon="-4.6612560">
        <ele>1337.4</ele>
        <time>2019-08-13T18:01:08Z</time>
      </trkpt>
      <trkpt lat="40.5472680" lon="-4.6612660">
        <ele>1337.3</ele>
        <time>2019-08-13T18:01:09Z</time>
      </trkpt>
      <trkpt lat="40.5473200" lon="-4.6612780">
        <ele>1337.1</ele>
        <time>2019-08-13T18:01:10Z</time>
      </trkpt>
      <trkpt lat="40.5473710" lon="-4.6612890">
        <ele>1337.1</ele>
        <time>2019-08-13T18:01:11Z</time>
      </trkpt>
      <trkpt lat="40.5474210" lon="-4.6613010">
        <ele>1337.0</ele>
        <time>2019-08-13T18:01:12Z</time>
      </trkpt>
      <trkpt lat="40.5474710" lon="-4.6613110">
        <ele>1337.0</ele>
        <time>2019-08-13T18:01:13Z</time>
      </trkpt>
      <trkpt lat="40.5475220" lon="-4.6613210">
        <ele>1337.0</ele>
        <time>2019-08-13T18:01:14Z</time>
      </trkpt>
      <trkpt lat="40.5475700" lon="-4.6613320">
        <ele>1337.0</ele>
        <time>2019-08-13T18:01:15Z</time>
      </trkpt>
      <trkpt lat="40.5476190" lon="-4.6613420">
        <ele>1337.0</ele>
        <time>2019-08-13T18:01:16Z</time>
      </trkpt>
      <trkpt lat="40.5476670" lon="-4.6613510">
        <ele>1337.1</ele>
        <time>2019-08-13T18:01:17Z</time>
      </trkpt>
      <trkpt lat="40.5477150" lon="-4.6613610">
        <ele>1337.1</ele>
        <time>2019-08-13T18:01:18Z</time>
      </trkpt>
      <trkpt lat="40.5477620" lon="-4.6613690">
        <ele>1337.2</ele>
        <time>2019-08-13T18:01:19Z</time>
      </trkpt>
      <trkpt lat="40.5478090" lon="-4.6613760">
        <ele>1337.4</ele>
        <time>2019-08-13T18:01:20Z</time>
      </trkpt>
      <trkpt lat="40.5478560" lon="-4.6613820">
        <ele>1337.5</ele>
        <time>2019-08-13T18:01:21Z</time>
      </trkpt>
      <trkpt lat="40.5479020" lon="-4.6613860">
        <ele>1337.7</ele>
        <time>2019-08-13T18:01:22Z</time>
      </trkpt>
      <trkpt lat="40.5479480" lon="-4.6613890">
        <ele>1337.8</ele>
        <time>2019-08-13T18:01:23Z</time>
      </trkpt>
      <trkpt lat="40.5479920" lon="-4.6613920">
        <ele>1337.9</ele>
        <time>2019-08-13T18:01:24Z</time>
      </trkpt>
      <trkpt lat="40.5480360" lon="-4.6613950">
        <ele>1337.9</ele>
        <time>2019-08-13T18:01:25Z</time>
      </trkpt>
      <trkpt lat="40.5480810" lon="-4.6613970">
        <ele>1338.0</ele>
        <time>2019-08-13T18:01:26Z</time>
      </trkpt>
      <trkpt lat="40.5481250" lon="-4.6613980">
        <ele>1338.0</ele>
        <time>2019-08-13T18:01:27Z</time>
      </trkpt>
      <trkpt lat="40.5481700" lon="-4.6613990">
        <ele>1338.3</ele>
        <time>2019-08-13T18:01:28Z</time>
      </trkpt>
      <trkpt lat="40.5482140" lon="-4.6614010">
        <ele>1338.5</ele>
        <time>2019-08-13T18:01:29Z</time>
      </trkpt>
      <trkpt lat="40.5482570" lon="-4.6614030">
        <ele>1338.7</ele>
        <time>2019-08-13T18:01:30Z</time>
      </trkpt>
      <trkpt lat="40.5483000" lon="-4.6614040">
        <ele>1338.9</ele>
        <time>2019-08-13T18:01:31Z</time>
      </trkpt>
      <trkpt lat="40.5483430" lon="-4.6614030">
        <ele>1339.1</ele>
        <time>2019-08-13T18:01:32Z</time>
      </trkpt>
      <trkpt lat="40.5483870" lon="-4.6614020">
        <ele>1339.2</ele>
        <time>2019-08-13T18:01:33Z</time>
      </trkpt>
      <trkpt lat="40.5484300" lon="-4.6614020">
        <ele>1339.3</ele>
        <time>2019-08-13T18:01:34Z</time>
      </trkpt>
      <trkpt lat="40.5484740" lon="-4.6614000">
        <ele>1339.5</ele>
        <time>2019-08-13T18:01:35Z</time>
      </trkpt>
      <trkpt lat="40.5485160" lon="-4.6613980">
        <ele>1339.6</ele>
        <time>2019-08-13T18:01:36Z</time>
      </trkpt>
      <trkpt lat="40.5485580" lon="-4.6613950">
        <ele>1339.7</ele>
        <time>2019-08-13T18:01:37Z</time>
      </trkpt>
      <trkpt lat="40.5485990" lon="-4.6613910">
        <ele>1339.9</ele>
        <time>2019-08-13T18:01:38Z</time>
      </trkpt>
      <trkpt lat="40.5486390" lon="-4.6613860">
        <ele>1340.0</ele>
        <time>2019-08-13T18:01:39Z</time>
      </trkpt>
      <trkpt lat="40.5486770" lon="-4.6613820">
        <ele>1340.1</ele>
        <time>2019-08-13T18:01:40Z</time>
      </trkpt>
      <trkpt lat="40.5487170" lon="-4.6613770">
        <ele>1340.2</ele>
        <time>2019-08-13T18:01:41Z</time>
      </trkpt>
      <trkpt lat="40.5487580" lon="-4.6613720">
        <ele>1340.3</ele>
        <time>2019-08-13T18:01:42Z</time>
      </trkpt>
      <trkpt lat="40.5487980" lon="-4.6613680">
        <ele>1340.4</ele>
        <time>2019-08-13T18:01:43Z</time>
      </trkpt>
      <trkpt lat="40.5488390" lon="-4.6613620">
        <ele>1340.6</ele>
        <time>2019-08-13T18:01:44Z</time>
      </trkpt>
      <trkpt lat="40.5488800" lon="-4.6613540">
        <ele>1340.7</ele>
        <time>2019-08-13T18:01:45Z</time>
      </trkpt>
      <trkpt lat="40.5489200" lon="-4.6613460">
        <ele>1340.8</ele>
        <time>2019-08-13T18:01:46Z</time>
      </trkpt>
      <trkpt lat="40.5489600" lon="-4.6613380">
        <ele>1341.0</ele>
        <time>2019-08-13T18:01:47Z</time>
      </trkpt>
      <trkpt lat="40.5490010" lon="-4.6613300">
        <ele>1341.1</ele>
        <time>2019-08-13T18:01:48Z</time>
      </trkpt>
      <trkpt lat="40.5490410" lon="-4.6613220">
        <ele>1341.3</ele>
        <time>2019-08-13T18:01:49Z</time>
      </trkpt>
      <trkpt lat="40.5490820" lon="-4.6613130">
        <ele>1341.5</ele>
        <time>2019-08-13T18:01:50Z</time>
      </trkpt>
      <trkpt lat="40.5491230" lon="-4.6613050">
        <ele>1341.7</ele>
        <time>2019-08-13T18:01:51Z</time>
      </trkpt>
      <trkpt lat="40.5491620" lon="-4.6612960">
        <ele>1341.9</ele>
        <time>2019-08-13T18:01:52Z</time>
      </trkpt>
      <trkpt lat="40.5492030" lon="-4.6612880">
        <ele>1342.1</ele>
        <time>2019-08-13T18:01:53Z</time>
      </trkpt>
      <trkpt lat="40.5492440" lon="-4.6612810">
        <ele>1342.3</ele>
        <time>2019-08-13T18:01:54Z</time>
      </trkpt>
      <trkpt lat="40.5492850" lon="-4.6612730">
        <ele>1342.5</ele>
        <time>2019-08-13T18:01:55Z</time>
      </trkpt>
      <trkpt lat="40.5493260" lon="-4.6612630">
        <ele>1342.7</ele>
        <time>2019-08-13T18:01:56Z</time>
      </trkpt>
      <trkpt lat="40.5493670" lon="-4.6612540">
        <ele>1343.0</ele>
        <time>2019-08-13T18:01:57Z</time>
      </trkpt>
      <trkpt lat="40.5494080" lon="-4.6612430">
        <ele>1343.2</ele>
        <time>2019-08-13T18:01:58Z</time>
      </trkpt>
      <trkpt lat="40.5494480" lon="-4.6612340">
        <ele>1343.4</ele>
        <time>2019-08-13T18:01:59Z</time>
      </trkpt>
      <trkpt lat="40.5494900" lon="-4.6612240">
        <ele>1343.7</ele>
        <time>2019-08-13T18:02:00Z</time>
      </trkpt>
      <trkpt lat="40.5495320" lon="-4.6612150">
        <ele>1343.9</ele>
        <time>2019-08-13T18:02:01Z</time>
      </trkpt>
      <trkpt lat="40.5495740" lon="-4.6612070">
        <ele>1344.2</ele>
        <time>2019-08-13T18:02:02Z</time>
      </trkpt>
      <trkpt lat="40.5496150" lon="-4.6612000">
        <ele>1344.4</ele>
        <time>2019-08-13T18:02:03Z</time>
      </trkpt>
      <trkpt lat="40.5496570" lon="-4.6611930">
        <ele>1344.7</ele>
        <time>2019-08-13T18:02:04Z</time>
      </trkpt>
      <trkpt lat="40.5497000" lon="-4.6611840">
        <ele>1345.0</ele>
        <time>2019-08-13T18:02:05Z</time>
      </trkpt>
      <trkpt lat="40.5497430" lon="-4.6611740">
        <ele>1345.3</ele>
        <time>2019-08-13T18:02:06Z</time>
      </trkpt>
      <trkpt lat="40.5497870" lon="-4.6611640">
        <ele>1345.3</ele>
        <time>2019-08-13T18:02:07Z</time>
      </trkpt>
      <trkpt lat="40.5498310" lon="-4.6611540">
        <ele>1345.3</ele>
        <time>2019-08-13T18:02:08Z</time>
      </trkpt>
      <trkpt lat="40.5498730" lon="-4.6611450">
        <ele>1345.3</ele>
        <time>2019-08-13T18:02:09Z</time>
      </trkpt>
      <trkpt lat="40.5499150" lon="-4.6611390">
        <ele>1345.3</ele>
        <time>2019-08-13T18:02:10Z</time>
      </trkpt>
      <trkpt lat="40.5499580" lon="-4.6611320">
        <ele>1345.3</ele>
        <time>2019-08-13T18:02:11Z</time>
      </trkpt>
      <trkpt lat="40.5500010" lon="-4.6611220">
        <ele>1345.3</ele>
        <time>2019-08-13T18:02:12Z</time>
      </trkpt>
      <trkpt lat="40.5500440" lon="-4.6611130">
        <ele>1345.1</ele>
        <time>2019-08-13T18:02:13Z</time>
      </trkpt>
      <trkpt lat="40.5500890" lon="-4.6611040">
        <ele>1345.0</ele>
        <time>2019-08-13T18:02:14Z</time>
      </trkpt>
      <trkpt lat="40.5501330" lon="-4.6610970">
        <ele>1344.9</ele>
        <time>2019-08-13T18:02:15Z</time>
      </trkpt>
      <trkpt lat="40.5501790" lon="-4.6610900">
        <ele>1344.9</ele>
        <time>2019-08-13T18:02:16Z</time>
      </trkpt>
      <trkpt lat="40.5502240" lon="-4.6610820">
        <ele>1344.9</ele>
        <time>2019-08-13T18:02:17Z</time>
      </trkpt>
      <trkpt lat="40.5502690" lon="-4.6610750">
        <ele>1344.9</ele>
        <time>2019-08-13T18:02:18Z</time>
      </trkpt>
      <trkpt lat="40.5503140" lon="-4.6610670">
        <ele>1344.9</ele>
        <time>2019-08-13T18:02:19Z</time>
      </trkpt>
      <trkpt lat="40.5503590" lon="-4.6610600">
        <ele>1345.0</ele>
        <time>2019-08-13T18:02:20Z</time>
      </trkpt>
      <trkpt lat="40.5504040" lon="-4.6610530">
        <ele>1345.0</ele>
        <time>2019-08-13T18:02:21Z</time>
      </trkpt>
      <trkpt lat="40.5504500" lon="-4.6610460">
        <ele>1345.1</ele>
        <time>2019-08-13T18:02:22Z</time>
      </trkpt>
      <trkpt lat="40.5504960" lon="-4.6610390">
        <ele>1345.2</ele>
        <time>2019-08-13T18:02:23Z</time>
      </trkpt>
      <trkpt lat="40.5505420" lon="-4.6610320">
        <ele>1345.3</ele>
        <time>2019-08-13T18:02:24Z</time>
      </trkpt>
      <trkpt lat="40.5505870" lon="-4.6610250">
        <ele>1345.3</ele>
        <time>2019-08-13T18:02:25Z</time>
      </trkpt>
      <trkpt lat="40.5506320" lon="-4.6610180">
        <ele>1345.4</ele>
        <time>2019-08-13T18:02:26Z</time>
      </trkpt>
      <trkpt lat="40.5506780" lon="-4.6610110">
        <ele>1345.5</ele>
        <time>2019-08-13T18:02:27Z</time>
      </trkpt>
      <trkpt lat="40.5507240" lon="-4.6610030">
        <ele>1345.6</ele>
        <time>2019-08-13T18:02:28Z</time>
      </trkpt>
      <trkpt lat="40.5507690" lon="-4.6609960">
        <ele>1345.7</ele>
        <time>2019-08-13T18:02:29Z</time>
      </trkpt>
      <trkpt lat="40.5508140" lon="-4.6609880">
        <ele>1345.8</ele>
        <time>2019-08-13T18:02:30Z</time>
      </trkpt>
      <trkpt lat="40.5508590" lon="-4.6609800">
        <ele>1345.9</ele>
        <time>2019-08-13T18:02:31Z</time>
      </trkpt>
      <trkpt lat="40.5509040" lon="-4.6609730">
        <ele>1346.0</ele>
        <time>2019-08-13T18:02:32Z</time>
      </trkpt>
      <trkpt lat="40.5509490" lon="-4.6609650">
        <ele>1346.1</ele>
        <time>2019-08-13T18:02:33Z</time>
      </trkpt>
      <trkpt lat="40.5509940" lon="-4.6609580">
        <ele>1346.2</ele>
        <time>2019-08-13T18:02:34Z</time>
      </trkpt>
      <trkpt lat="40.5510390" lon="-4.6609510">
        <ele>1346.3</ele>
        <time>2019-08-13T18:02:35Z</time>
      </trkpt>
      <trkpt lat="40.5510830" lon="-4.6609420">
        <ele>1346.4</ele>
        <time>2019-08-13T18:02:36Z</time>
      </trkpt>
      <trkpt lat="40.5511270" lon="-4.6609350">
        <ele>1346.5</ele>
        <time>2019-08-13T18:02:37Z</time>
      </trkpt>
      <trkpt lat="40.5511710" lon="-4.6609290">
        <ele>1346.5</ele>
        <time>2019-08-13T18:02:38Z</time>
      </trkpt>
      <trkpt lat="40.5512140" lon="-4.6609240">
        <ele>1346.6</ele>
        <time>2019-08-13T18:02:39Z</time>
      </trkpt>
      <trkpt lat="40.5512570" lon="-4.6609180">
        <ele>1346.6</ele>
        <time>2019-08-13T18:02:40Z</time>
      </trkpt>
      <trkpt lat="40.5512990" lon="-4.6609120">
        <ele>1346.7</ele>
        <time>2019-08-13T18:02:41Z</time>
      </trkpt>
      <trkpt lat="40.5513400" lon="-4.6609070">
        <ele>1346.7</ele>
        <time>2019-08-13T18:02:42Z</time>
      </trkpt>
      <trkpt lat="40.5513810" lon="-4.6609010">
        <ele>1346.7</ele>
        <time>2019-08-13T18:02:43Z</time>
      </trkpt>
      <trkpt lat="40.5514220" lon="-4.6608950">
        <ele>1346.8</ele>
        <time>2019-08-13T18:02:44Z</time>
      </trkpt>
      <trkpt lat="40.5514640" lon="-4.6608880">
        <ele>1346.8</ele>
        <time>2019-08-13T18:02:45Z</time>
      </trkpt>
      <trkpt lat="40.5515070" lon="-4.6608820">
        <ele>1346.8</ele>
        <time>2019-08-13T18:02:46Z</time>
      </trkpt>
      <trkpt lat="40.5515490" lon="-4.6608760">
        <ele>1346.8</ele>
        <time>2019-08-13T18:02:47Z</time>
      </trkpt>
      <trkpt lat="40.5515920" lon="-4.6608690">
        <ele>1346.8</ele>
        <time>2019-08-13T18:02:48Z</time>
      </trkpt>
      <trkpt lat="40.5516340" lon="-4.6608620">
        <ele>1346.8</ele>
        <time>2019-08-13T18:02:49Z</time>
      </trkpt>
      <trkpt lat="40.5516790" lon="-4.6608560">
        <ele>1346.8</ele>
        <time>2019-08-13T18:02:50Z</time>
      </trkpt>
      <trkpt lat="40.5517230" lon="-4.6608500">
        <ele>1346.8</ele>
        <time>2019-08-13T18:02:51Z</time>
      </trkpt>
      <trkpt lat="40.5517680" lon="-4.6608430">
        <ele>1346.8</ele>
        <time>2019-08-13T18:02:52Z</time>
      </trkpt>
      <trkpt lat="40.5518130" lon="-4.6608350">
        <ele>1346.9</ele>
        <time>2019-08-13T18:02:53Z</time>
      </trkpt>
      <trkpt lat="40.5518580" lon="-4.6608270">
        <ele>1346.9</ele>
        <time>2019-08-13T18:02:54Z</time>
      </trkpt>
      <trkpt lat="40.5519030" lon="-4.6608210">
        <ele>1346.9</ele>
        <time>2019-08-13T18:02:55Z</time>
      </trkpt>
      <trkpt lat="40.5519480" lon="-4.6608150">
        <ele>1346.9</ele>
        <time>2019-08-13T18:02:56Z</time>
      </trkpt>
      <trkpt lat="40.5519940" lon="-4.6608090">
        <ele>1347.0</ele>
        <time>2019-08-13T18:02:57Z</time>
      </trkpt>
      <trkpt lat="40.5520400" lon="-4.6608010">
        <ele>1347.0</ele>
        <time>2019-08-13T18:02:58Z</time>
      </trkpt>
      <trkpt lat="40.5520860" lon="-4.6607950">
        <ele>1347.1</ele>
        <time>2019-08-13T18:02:59Z</time>
      </trkpt>
      <trkpt lat="40.5521330" lon="-4.6607890">
        <ele>1347.1</ele>
        <time>2019-08-13T18:03:00Z</time>
      </trkpt>
      <trkpt lat="40.5521800" lon="-4.6607840">
        <ele>1347.2</ele>
        <time>2019-08-13T18:03:01Z</time>
      </trkpt>
      <trkpt lat="40.5522260" lon="-4.6607780">
        <ele>1347.2</ele>
        <time>2019-08-13T18:03:02Z</time>
      </trkpt>
      <trkpt lat="40.5522720" lon="-4.6607720">
        <ele>1347.2</ele>
        <time>2019-08-13T18:03:03Z</time>
      </trkpt>
      <trkpt lat="40.5523160" lon="-4.6607660">
        <ele>1347.2</ele>
        <time>2019-08-13T18:03:04Z</time>
      </trkpt>
      <trkpt lat="40.5523610" lon="-4.6607590">
        <ele>1347.2</ele>
        <time>2019-08-13T18:03:05Z</time>
      </trkpt>
      <trkpt lat="40.5524090" lon="-4.6607510">
        <ele>1347.2</ele>
        <time>2019-08-13T18:03:06Z</time>
      </trkpt>
      <trkpt lat="40.5524560" lon="-4.6607440">
        <ele>1347.1</ele>
        <time>2019-08-13T18:03:07Z</time>
      </trkpt>
      <trkpt lat="40.5525030" lon="-4.6607360">
        <ele>1347.1</ele>
        <time>2019-08-13T18:03:08Z</time>
      </trkpt>
      <trkpt lat="40.5525520" lon="-4.6607280">
        <ele>1347.0</ele>
        <time>2019-08-13T18:03:09Z</time>
      </trkpt>
      <trkpt lat="40.5525990" lon="-4.6607220">
        <ele>1347.0</ele>
        <time>2019-08-13T18:03:10Z</time>
      </trkpt>
      <trkpt lat="40.5526430" lon="-4.6607150">
        <ele>1347.0</ele>
        <time>2019-08-13T18:03:11Z</time>
      </trkpt>
      <trkpt lat="40.5526890" lon="-4.6607080">
        <ele>1347.0</ele>
        <time>2019-08-13T18:03:12Z</time>
      </trkpt>
      <trkpt lat="40.5527350" lon="-4.6607000">
        <ele>1347.0</ele>
        <time>2019-08-13T18:03:13Z</time>
      </trkpt>
      <trkpt lat="40.5527810" lon="-4.6606920">
        <ele>1347.0</ele>
        <time>2019-08-13T18:03:14Z</time>
      </trkpt>
      <trkpt lat="40.5528270" lon="-4.6606840">
        <ele>1347.1</ele>
        <time>2019-08-13T18:03:15Z</time>
      </trkpt>
      <trkpt lat="40.5528740" lon="-4.6606770">
        <ele>1347.2</ele>
        <time>2019-08-13T18:03:16Z</time>
      </trkpt>
      <trkpt lat="40.5529200" lon="-4.6606690">
        <ele>1347.3</ele>
        <time>2019-08-13T18:03:17Z</time>
      </trkpt>
      <trkpt lat="40.5529660" lon="-4.6606600">
        <ele>1347.4</ele>
        <time>2019-08-13T18:03:18Z</time>
      </trkpt>
      <trkpt lat="40.5530120" lon="-4.6606520">
        <ele>1347.6</ele>
        <time>2019-08-13T18:03:19Z</time>
      </trkpt>
      <trkpt lat="40.5530560" lon="-4.6606450">
        <ele>1347.8</ele>
        <time>2019-08-13T18:03:20Z</time>
      </trkpt>
      <trkpt lat="40.5530990" lon="-4.6606390">
        <ele>1347.9</ele>
        <time>2019-08-13T18:03:21Z</time>
      </trkpt>
      <trkpt lat="40.5531420" lon="-4.6606330">
        <ele>1348.0</ele>
        <time>2019-08-13T18:03:22Z</time>
      </trkpt>
      <trkpt lat="40.5531840" lon="-4.6606280">
        <ele>1348.1</ele>
        <time>2019-08-13T18:03:23Z</time>
      </trkpt>
      <trkpt lat="40.5532240" lon="-4.6606230">
        <ele>1348.1</ele>
        <time>2019-08-13T18:03:24Z</time>
      </trkpt>
      <trkpt lat="40.5532660" lon="-4.6606190">
        <ele>1348.1</ele>
        <time>2019-08-13T18:03:25Z</time>
      </trkpt>
      <trkpt lat="40.5533080" lon="-4.6606150">
        <ele>1348.1</ele>
        <time>2019-08-13T18:03:26Z</time>
      </trkpt>
      <trkpt lat="40.5533490" lon="-4.6606090">
        <ele>1348.0</ele>
        <time>2019-08-13T18:03:27Z</time>
      </trkpt>
      <trkpt lat="40.5533910" lon="-4.6606020">
        <ele>1347.9</ele>
        <time>2019-08-13T18:03:28Z</time>
      </trkpt>
      <trkpt lat="40.5534340" lon="-4.6605960">
        <ele>1347.8</ele>
        <time>2019-08-13T18:03:29Z</time>
      </trkpt>
      <trkpt lat="40.5534770" lon="-4.6605880">
        <ele>1347.7</ele>
        <time>2019-08-13T18:03:30Z</time>
      </trkpt>
      <trkpt lat="40.5535210" lon="-4.6605820">
        <ele>1347.5</ele>
        <time>2019-08-13T18:03:31Z</time>
      </trkpt>
      <trkpt lat="40.5535670" lon="-4.6605760">
        <ele>1347.4</ele>
        <time>2019-08-13T18:03:32Z</time>
      </trkpt>
      <trkpt lat="40.5536130" lon="-4.6605710">
        <ele>1347.2</ele>
        <time>2019-08-13T18:03:33Z</time>
      </trkpt>
      <trkpt lat="40.5536600" lon="-4.6605640">
        <ele>1347.1</ele>
        <time>2019-08-13T18:03:34Z</time>
      </trkpt>
      <trkpt lat="40.5537060" lon="-4.6605570">
        <ele>1347.0</ele>
        <time>2019-08-13T18:03:35Z</time>
      </trkpt>
      <trkpt lat="40.5537530" lon="-4.6605500">
        <ele>1346.9</ele>
        <time>2019-08-13T18:03:36Z</time>
      </trkpt>
      <trkpt lat="40.5538000" lon="-4.6605420">
        <ele>1346.9</ele>
        <time>2019-08-13T18:03:37Z</time>
      </trkpt>
      <trkpt lat="40.5538460" lon="-4.6605350">
        <ele>1346.9</ele>
        <time>2019-08-13T18:03:38Z</time>
      </trkpt>
      <trkpt lat="40.5538920" lon="-4.6605300">
        <ele>1346.9</ele>
        <time>2019-08-13T18:03:39Z</time>
      </trkpt>
      <trkpt lat="40.5539380" lon="-4.6605250">
        <ele>1346.9</ele>
        <time>2019-08-13T18:03:40Z</time>
      </trkpt>
      <trkpt lat="40.5539830" lon="-4.6605200">
        <ele>1346.9</ele>
        <time>2019-08-13T18:03:41Z</time>
      </trkpt>
      <trkpt lat="40.5540280" lon="-4.6605140">
        <ele>1346.9</ele>
        <time>2019-08-13T18:03:42Z</time>
      </trkpt>
      <trkpt lat="40.5540740" lon="-4.6605080">
        <ele>1346.9</ele>
        <time>2019-08-13T18:03:43Z</time>
      </trkpt>
      <trkpt lat="40.5541200" lon="-4.6605000">
        <ele>1346.9</ele>
        <time>2019-08-13T18:03:44Z</time>
      </trkpt>
      <trkpt lat="40.5541680" lon="-4.6604920">
        <ele>1346.8</ele>
        <time>2019-08-13T18:03:45Z</time>
      </trkpt>
      <trkpt lat="40.5542150" lon="-4.6604860">
        <ele>1346.7</ele>
        <time>2019-08-13T18:03:46Z</time>
      </trkpt>
      <trkpt lat="40.5542620" lon="-4.6604820">
        <ele>1346.6</ele>
        <time>2019-08-13T18:03:47Z</time>
      </trkpt>
      <trkpt lat="40.5543090" lon="-4.6604780">
        <ele>1346.6</ele>
        <time>2019-08-13T18:03:48Z</time>
      </trkpt>
      <trkpt lat="40.5543570" lon="-4.6604760">
        <ele>1346.5</ele>
        <time>2019-08-13T18:03:49Z</time>
      </trkpt>
      <trkpt lat="40.5544070" lon="-4.6604750">
        <ele>1346.6</ele>
        <time>2019-08-13T18:03:50Z</time>
      </trkpt>
      <trkpt lat="40.5544580" lon="-4.6604750">
        <ele>1346.6</ele>
        <time>2019-08-13T18:03:51Z</time>
      </trkpt>
      <trkpt lat="40.5545090" lon="-4.6604760">
        <ele>1346.7</ele>
        <time>2019-08-13T18:03:52Z</time>
      </trkpt>
      <trkpt lat="40.5545600" lon="-4.6604810">
        <ele>1346.8</ele>
        <time>2019-08-13T18:03:53Z</time>
      </trkpt>
      <trkpt lat="40.5546120" lon="-4.6604870">
        <ele>1346.9</ele>
        <time>2019-08-13T18:03:54Z</time>
      </trkpt>
      <trkpt lat="40.5546660" lon="-4.6604970">
        <ele>1347.0</ele>
        <time>2019-08-13T18:03:55Z</time>
      </trkpt>
      <trkpt lat="40.5547200" lon="-4.6605090">
        <ele>1347.1</ele>
        <time>2019-08-13T18:03:56Z</time>
      </trkpt>
      <trkpt lat="40.5547730" lon="-4.6605220">
        <ele>1347.3</ele>
        <time>2019-08-13T18:03:57Z</time>
      </trkpt>
      <trkpt lat="40.5548270" lon="-4.6605390">
        <ele>1347.4</ele>
        <time>2019-08-13T18:03:58Z</time>
      </trkpt>
      <trkpt lat="40.5548800" lon="-4.6605590">
        <ele>1347.4</ele>
        <time>2019-08-13T18:03:59Z</time>
      </trkpt>
      <trkpt lat="40.5549340" lon="-4.6605810">
        <ele>1347.5</ele>
        <time>2019-08-13T18:04:00Z</time>
      </trkpt>
      <trkpt lat="40.5549870" lon="-4.6606050">
        <ele>1347.6</ele>
        <time>2019-08-13T18:04:01Z</time>
      </trkpt>
      <trkpt lat="40.5550390" lon="-4.6606320">
        <ele>1347.7</ele>
        <time>2019-08-13T18:04:02Z</time>
      </trkpt>
      <trkpt lat="40.5550910" lon="-4.6606610">
        <ele>1347.7</ele>
        <time>2019-08-13T18:04:03Z</time>
      </trkpt>
      <trkpt lat="40.5551410" lon="-4.6606920">
        <ele>1347.7</ele>
        <time>2019-08-13T18:04:04Z</time>
      </trkpt>
      <trkpt lat="40.5551890" lon="-4.6607250">
        <ele>1347.8</ele>
        <time>2019-08-13T18:04:05Z</time>
      </trkpt>
      <trkpt lat="40.5552360" lon="-4.6607590">
        <ele>1347.8</ele>
        <time>2019-08-13T18:04:06Z</time>
      </trkpt>
      <trkpt lat="40.5552810" lon="-4.6607960">
        <ele>1347.8</ele>
        <time>2019-08-13T18:04:07Z</time>
      </trkpt>
      <trkpt lat="40.5553240" lon="-4.6608330">
        <ele>1347.8</ele>
        <time>2019-08-13T18:04:08Z</time>
      </trkpt>
      <trkpt lat="40.5553680" lon="-4.6608730">
        <ele>1347.9</ele>
        <time>2019-08-13T18:04:09Z</time>
      </trkpt>
      <trkpt lat="40.5554110" lon="-4.6609160">
        <ele>1348.0</ele>
        <time>2019-08-13T18:04:10Z</time>
      </trkpt>
      <trkpt lat="40.5554510" lon="-4.6609610">
        <ele>1348.1</ele>
        <time>2019-08-13T18:04:11Z</time>
      </trkpt>
      <trkpt lat="40.5554930" lon="-4.6610060">
        <ele>1348.2</ele>
        <time>2019-08-13T18:04:12Z</time>
      </trkpt>
      <trkpt lat="40.5555350" lon="-4.6610540">
        <ele>1348.3</ele>
        <time>2019-08-13T18:04:13Z</time>
      </trkpt>
      <trkpt lat="40.5555740" lon="-4.6611020">
        <ele>1348.4</ele>
        <time>2019-08-13T18:04:14Z</time>
      </trkpt>
      <trkpt lat="40.5556110" lon="-4.6611520">
        <ele>1348.5</ele>
        <time>2019-08-13T18:04:15Z</time>
      </trkpt>
      <trkpt lat="40.5556460" lon="-4.6612030">
        <ele>1348.5</ele>
        <time>2019-08-13T18:04:16Z</time>
      </trkpt>
      <trkpt lat="40.5556800" lon="-4.6612540">
        <ele>1348.6</ele>
        <time>2019-08-13T18:04:17Z</time>
      </trkpt>
      <trkpt lat="40.5557130" lon="-4.6613060">
        <ele>1348.6</ele>
        <time>2019-08-13T18:04:18Z</time>
      </trkpt>
      <trkpt lat="40.5557450" lon="-4.6613580">
        <ele>1348.6</ele>
        <time>2019-08-13T18:04:19Z</time>
      </trkpt>
      <trkpt lat="40.5557740" lon="-4.6614110">
        <ele>1348.6</ele>
        <time>2019-08-13T18:04:20Z</time>
      </trkpt>
      <trkpt lat="40.5558010" lon="-4.6614630">
        <ele>1348.5</ele>
        <time>2019-08-13T18:04:21Z</time>
      </trkpt>
      <trkpt lat="40.5558280" lon="-4.6615160">
        <ele>1348.5</ele>
        <time>2019-08-13T18:04:22Z</time>
      </trkpt>
      <trkpt lat="40.5558550" lon="-4.6615680">
        <ele>1348.4</ele>
        <time>2019-08-13T18:04:23Z</time>
      </trkpt>
      <trkpt lat="40.5558800" lon="-4.6616230">
        <ele>1348.3</ele>
        <time>2019-08-13T18:04:24Z</time>
      </trkpt>
      <trkpt lat="40.5559070" lon="-4.6616770">
        <ele>1348.2</ele>
        <time>2019-08-13T18:04:25Z</time>
      </trkpt>
      <trkpt lat="40.5559320" lon="-4.6617320">
        <ele>1348.1</ele>
        <time>2019-08-13T18:04:26Z</time>
      </trkpt>
      <trkpt lat="40.5559570" lon="-4.6617870">
        <ele>1348.0</ele>
        <time>2019-08-13T18:04:27Z</time>
      </trkpt>
      <trkpt lat="40.5559830" lon="-4.6618430">
        <ele>1347.8</ele>
        <time>2019-08-13T18:04:28Z</time>
      </trkpt>
      <trkpt lat="40.5560090" lon="-4.6619000">
        <ele>1347.7</ele>
        <time>2019-08-13T18:04:29Z</time>
      </trkpt>
      <trkpt lat="40.5560360" lon="-4.6619580">
        <ele>1347.5</ele>
        <time>2019-08-13T18:04:30Z</time>
      </trkpt>
      <trkpt lat="40.5560630" lon="-4.6620170">
        <ele>1347.3</ele>
        <time>2019-08-13T18:04:31Z</time>
      </trkpt>
      <trkpt lat="40.5560900" lon="-4.6620750">
        <ele>1347.0</ele>
        <time>2019-08-13T18:04:32Z</time>
      </trkpt>
      <trkpt lat="40.5561190" lon="-4.6621340">
        <ele>1346.8</ele>
        <time>2019-08-13T18:04:33Z</time>
      </trkpt>
      <trkpt lat="40.5561470" lon="-4.6621930">
        <ele>1346.6</ele>
        <time>2019-08-13T18:04:34Z</time>
      </trkpt>
      <trkpt lat="40.5561740" lon="-4.6622520">
        <ele>1346.3</ele>
        <time>2019-08-13T18:04:35Z</time>
      </trkpt>
      <trkpt lat="40.5562030" lon="-4.6623130">
        <ele>1346.1</ele>
        <time>2019-08-13T18:04:36Z</time>
      </trkpt>
      <trkpt lat="40.5562320" lon="-4.6623760">
        <ele>1345.9</ele>
        <time>2019-08-13T18:04:37Z</time>
      </trkpt>
      <trkpt lat="40.5562600" lon="-4.6624400">
        <ele>1345.8</ele>
        <time>2019-08-13T18:04:38Z</time>
      </trkpt>
      <trkpt lat="40.5562900" lon="-4.6625030">
        <ele>1345.7</ele>
        <time>2019-08-13T18:04:39Z</time>
      </trkpt>
      <trkpt lat="40.5563200" lon="-4.6625690">
        <ele>1345.6</ele>
        <time>2019-08-13T18:04:40Z</time>
      </trkpt>
      <trkpt lat="40.5563500" lon="-4.6626350">
        <ele>1345.6</ele>
        <time>2019-08-13T18:04:41Z</time>
      </trkpt>
      <trkpt lat="40.5563800" lon="-4.6627020">
        <ele>1345.6</ele>
        <time>2019-08-13T18:04:42Z</time>
      </trkpt>
      <trkpt lat="40.5564120" lon="-4.6627690">
        <ele>1345.6</ele>
        <time>2019-08-13T18:04:43Z</time>
      </trkpt>
      <trkpt lat="40.5564440" lon="-4.6628370">
        <ele>1345.7</ele>
        <time>2019-08-13T18:04:44Z</time>
      </trkpt>
      <trkpt lat="40.5564770" lon="-4.6629070">
        <ele>1345.7</ele>
        <time>2019-08-13T18:04:45Z</time>
      </trkpt>
      <trkpt lat="40.5565090" lon="-4.6629780">
        <ele>1345.7</ele>
        <time>2019-08-13T18:04:46Z</time>
      </trkpt>
      <trkpt lat="40.5565420" lon="-4.6630480">
        <ele>1345.6</ele>
        <time>2019-08-13T18:04:47Z</time>
      </trkpt>
      <trkpt lat="40.5565740" lon="-4.6631190">
        <ele>1345.6</ele>
        <time>2019-08-13T18:04:48Z</time>
      </trkpt>
      <trkpt lat="40.5566080" lon="-4.6631910">
        <ele>1345.6</ele>
        <time>2019-08-13T18:04:49Z</time>
      </trkpt>
      <trkpt lat="40.5566430" lon="-4.6632620">
        <ele>1345.6</ele>
        <time>2019-08-13T18:04:50Z</time>
      </trkpt>
      <trkpt lat="40.5566780" lon="-4.6633340">
        <ele>1345.7</ele>
        <time>2019-08-13T18:04:51Z</time>
      </trkpt>
      <trkpt lat="40.5567110" lon="-4.6634060">
        <ele>1345.8</ele>
        <time>2019-08-13T18:04:52Z</time>
      </trkpt>
      <trkpt lat="40.5567440" lon="-4.6634770">
        <ele>1346.1</ele>
        <time>2019-08-13T18:04:53Z</time>
      </trkpt>
      <trkpt lat="40.5567770" lon="-4.6635470">
        <ele>1346.3</ele>
        <time>2019-08-13T18:04:54Z</time>
      </trkpt>
      <trkpt lat="40.5568080" lon="-4.6636170">
        <ele>1346.6</ele>
        <time>2019-08-13T18:04:55Z</time>
      </trkpt>
      <trkpt lat="40.5568390" lon="-4.6636840">
        <ele>1346.8</ele>
        <time>2019-08-13T18:04:56Z</time>
      </trkpt>
      <trkpt lat="40.5568680" lon="-4.6637510">
        <ele>1347.1</ele>
        <time>2019-08-13T18:04:57Z</time>
      </trkpt>
      <trkpt lat="40.5568970" lon="-4.6638170">
        <ele>1347.4</ele>
        <time>2019-08-13T18:04:58Z</time>
      </trkpt>
      <trkpt lat="40.5569270" lon="-4.6638790">
        <ele>1347.6</ele>
        <time>2019-08-13T18:04:59Z</time>
      </trkpt>
      <trkpt lat="40.5569570" lon="-4.6639360">
        <ele>1347.8</ele>
        <time>2019-08-13T18:05:00Z</time>
      </trkpt>
      <trkpt lat="40.5569840" lon="-4.6639900">
        <ele>1347.9</ele>
        <time>2019-08-13T18:05:01Z</time>
      </trkpt>
      <trkpt lat="40.5570080" lon="-4.6640420">
        <ele>1348.1</ele>
        <time>2019-08-13T18:05:02Z</time>
      </trkpt>
      <trkpt lat="40.5570310" lon="-4.6640920">
        <ele>1348.1</ele>
        <time>2019-08-13T18:05:03Z</time>
      </trkpt>
      <trkpt lat="40.5570520" lon="-4.6641400">
        <ele>1348.2</ele>
        <time>2019-08-13T18:05:04Z</time>
      </trkpt>
      <trkpt lat="40.5570740" lon="-4.6641850">
        <ele>1348.3</ele>
        <time>2019-08-13T18:05:05Z</time>
      </trkpt>
      <trkpt lat="40.5570960" lon="-4.6642270">
        <ele>1348.4</ele>
        <time>2019-08-13T18:05:06Z</time>
      </trkpt>
      <trkpt lat="40.5571170" lon="-4.6642680">
        <ele>1348.5</ele>
        <time>2019-08-13T18:05:07Z</time>
      </trkpt>
      <trkpt lat="40.5571370" lon="-4.6643080">
        <ele>1348.6</ele>
        <time>2019-08-13T18:05:08Z</time>
      </trkpt>
      <trkpt lat="40.5571550" lon="-4.6643480">
        <ele>1348.6</ele>
        <time>2019-08-13T18:05:09Z</time>
      </trkpt>
      <trkpt lat="40.5571730" lon="-4.6643860">
        <ele>1348.7</ele>
        <time>2019-08-13T18:05:10Z</time>
      </trkpt>
      <trkpt lat="40.5571900" lon="-4.6644240">
        <ele>1348.8</ele>
        <time>2019-08-13T18:05:11Z</time>
      </trkpt>
      <trkpt lat="40.5572070" lon="-4.6644610">
        <ele>1348.8</ele>
        <time>2019-08-13T18:05:12Z</time>
      </trkpt>
      <trkpt lat="40.5572250" lon="-4.6644970">
        <ele>1348.8</ele>
        <time>2019-08-13T18:05:13Z</time>
      </trkpt>
      <trkpt lat="40.5572420" lon="-4.6645340">
        <ele>1348.9</ele>
        <time>2019-08-13T18:05:14Z</time>
      </trkpt>
      <trkpt lat="40.5572600" lon="-4.6645710">
        <ele>1348.9</ele>
        <time>2019-08-13T18:05:15Z</time>
      </trkpt>
      <trkpt lat="40.5572770" lon="-4.6646070">
        <ele>1348.9</ele>
        <time>2019-08-13T18:05:16Z</time>
      </trkpt>
      <trkpt lat="40.5572950" lon="-4.6646420">
        <ele>1348.8</ele>
        <time>2019-08-13T18:05:17Z</time>
      </trkpt>
      <trkpt lat="40.5573120" lon="-4.6646780">
        <ele>1348.8</ele>
        <time>2019-08-13T18:05:18Z</time>
      </trkpt>
      <trkpt lat="40.5573300" lon="-4.6647140">
        <ele>1348.7</ele>
        <time>2019-08-13T18:05:19Z</time>
      </trkpt>
      <trkpt lat="40.5573470" lon="-4.6647500">
        <ele>1348.7</ele>
        <time>2019-08-13T18:05:20Z</time>
      </trkpt>
      <trkpt lat="40.5573640" lon="-4.6647860">
        <ele>1348.6</ele>
        <time>2019-08-13T18:05:21Z</time>
      </trkpt>
      <trkpt lat="40.5573820" lon="-4.6648230">
        <ele>1348.6</ele>
        <time>2019-08-13T18:05:22Z</time>
      </trkpt>
      <trkpt lat="40.5574000" lon="-4.6648610">
        <ele>1348.5</ele>
        <time>2019-08-13T18:05:23Z</time>
      </trkpt>
      <trkpt lat="40.5574180" lon="-4.6649000">
        <ele>1348.5</ele>
        <time>2019-08-13T18:05:24Z</time>
      </trkpt>
      <trkpt lat="40.5574350" lon="-4.6649390">
        <ele>1348.4</ele>
        <time>2019-08-13T18:05:25Z</time>
      </trkpt>
      <trkpt lat="40.5574540" lon="-4.6649770">
        <ele>1348.3</ele>
        <time>2019-08-13T18:05:26Z</time>
      </trkpt>
      <trkpt lat="40.5574730" lon="-4.6650160">
        <ele>1348.2</ele>
        <time>2019-08-13T18:05:27Z</time>
      </trkpt>
      <trkpt lat="40.5574940" lon="-4.6650560">
        <ele>1348.1</ele>
        <time>2019-08-13T18:05:28Z</time>
      </trkpt>
      <trkpt lat="40.5575150" lon="-4.6650980">
        <ele>1348.0</ele>
        <time>2019-08-13T18:05:29Z</time>
      </trkpt>
      <trkpt lat="40.5575360" lon="-4.6651400">
        <ele>1347.9</ele>
        <time>2019-08-13T18:05:30Z</time>
      </trkpt>
      <trkpt lat="40.5575580" lon="-4.6651850">
        <ele>1347.7</ele>
        <time>2019-08-13T18:05:31Z</time>
      </trkpt>
      <trkpt lat="40.5575810" lon="-4.6652290">
        <ele>1347.6</ele>
        <time>2019-08-13T18:05:32Z</time>
      </trkpt>
      <trkpt lat="40.5576040" lon="-4.6652740">
        <ele>1347.5</ele>
        <time>2019-08-13T18:05:33Z</time>
      </trkpt>
      <trkpt lat="40.5576280" lon="-4.6653180">
        <ele>1347.3</ele>
        <time>2019-08-13T18:05:34Z</time>
      </trkpt>
      <trkpt lat="40.5576550" lon="-4.6653640">
        <ele>1347.1</ele>
        <time>2019-08-13T18:05:35Z</time>
      </trkpt>
      <trkpt lat="40.5576850" lon="-4.6654090">
        <ele>1347.0</ele>
        <time>2019-08-13T18:05:36Z</time>
      </trkpt>
      <trkpt lat="40.5577140" lon="-4.6654570">
        <ele>1346.8</ele>
        <time>2019-08-13T18:05:37Z</time>
      </trkpt>
      <trkpt lat="40.5577420" lon="-4.6655040">
        <ele>1346.7</ele>
        <time>2019-08-13T18:05:38Z</time>
      </trkpt>
      <trkpt lat="40.5577720" lon="-4.6655500">
        <ele>1346.5</ele>
        <time>2019-08-13T18:05:39Z</time>
      </trkpt>
      <trkpt lat="40.5578040" lon="-4.6655960">
        <ele>1346.4</ele>
        <time>2019-08-13T18:05:40Z</time>
      </trkpt>
      <trkpt lat="40.5578380" lon="-4.6656410">
        <ele>1346.2</ele>
        <time>2019-08-13T18:05:41Z</time>
      </trkpt>
      <trkpt lat="40.5578740" lon="-4.6656870">
        <ele>1345.9</ele>
        <time>2019-08-13T18:05:42Z</time>
      </trkpt>
      <trkpt lat="40.5579120" lon="-4.6657330">
        <ele>1345.6</ele>
        <time>2019-08-13T18:05:43Z</time>
      </trkpt>
      <trkpt lat="40.5579540" lon="-4.6657780">
        <ele>1345.4</ele>
        <time>2019-08-13T18:05:44Z</time>
      </trkpt>
      <trkpt lat="40.5580000" lon="-4.6658250">
        <ele>1345.0</ele>
        <time>2019-08-13T18:05:45Z</time>
      </trkpt>
      <trkpt lat="40.5580480" lon="-4.6658730">
        <ele>1344.6</ele>
        <time>2019-08-13T18:05:46Z</time>
      </trkpt>
      <trkpt lat="40.5581020" lon="-4.6659200">
        <ele>1344.2</ele>
        <time>2019-08-13T18:05:47Z</time>
      </trkpt>
      <trkpt lat="40.5581590" lon="-4.6659670">
        <ele>1343.8</ele>
        <time>2019-08-13T18:05:48Z</time>
      </trkpt>
      <trkpt lat="40.5582190" lon="-4.6660130">
        <ele>1343.2</ele>
        <time>2019-08-13T18:05:49Z</time>
      </trkpt>
      <trkpt lat="40.5582840" lon="-4.6660560">
        <ele>1342.6</ele>
        <time>2019-08-13T18:05:50Z</time>
      </trkpt>
      <trkpt lat="40.5583530" lon="-4.6660980">
        <ele>1342.0</ele>
        <time>2019-08-13T18:05:51Z</time>
      </trkpt>
      <trkpt lat="40.5584270" lon="-4.6661370">
        <ele>1341.4</ele>
        <time>2019-08-13T18:05:52Z</time>
      </trkpt>
      <trkpt lat="40.5585060" lon="-4.6661730">
        <ele>1340.7</ele>
        <time>2019-08-13T18:05:53Z</time>
      </trkpt>
      <trkpt lat="40.5585860" lon="-4.6662050">
        <ele>1340.1</ele>
        <time>2019-08-13T18:05:54Z</time>
      </trkpt>
      <trkpt lat="40.5586700" lon="-4.6662350">
        <ele>1339.5</ele>
        <time>2019-08-13T18:05:55Z</time>
      </trkpt>
      <trkpt lat="40.5587570" lon="-4.6662580">
        <ele>1338.9</ele>
        <time>2019-08-13T18:05:56Z</time>
      </trkpt>
      <trkpt lat="40.5588480" lon="-4.6662760">
        <ele>1338.2</ele>
        <time>2019-08-13T18:05:57Z</time>
      </trkpt>
      <trkpt lat="40.5589420" lon="-4.6662860">
        <ele>1337.6</ele>
        <time>2019-08-13T18:05:58Z</time>
      </trkpt>
      <trkpt lat="40.5590390" lon="-4.6662900">
        <ele>1336.9</ele>
        <time>2019-08-13T18:05:59Z</time>
      </trkpt>
      <trkpt lat="40.5591370" lon="-4.6662870">
        <ele>1336.2</ele>
        <time>2019-08-13T18:06:00Z</time>
      </trkpt>
      <trkpt lat="40.5592380" lon="-4.6662770">
        <ele>1335.6</ele>
        <time>2019-08-13T18:06:01Z</time>
      </trkpt>
      <trkpt lat="40.5593410" lon="-4.6662590">
        <ele>1334.8</ele>
        <time>2019-08-13T18:06:02Z</time>
      </trkpt>
      <trkpt lat="40.5594440" lon="-4.6662350">
        <ele>1334.1</ele>
        <time>2019-08-13T18:06:03Z</time>
      </trkpt>
      <trkpt lat="40.5595460" lon="-4.6662050">
        <ele>1333.4</ele>
        <time>2019-08-13T18:06:04Z</time>
      </trkpt>
      <trkpt lat="40.5596450" lon="-4.6661680">
        <ele>1332.7</ele>
        <time>2019-08-13T18:06:05Z</time>
      </trkpt>
      <trkpt lat="40.5597410" lon="-4.6661270">
        <ele>1331.9</ele>
        <time>2019-08-13T18:06:06Z</time>
      </trkpt>
      <trkpt lat="40.5598330" lon="-4.6660830">
        <ele>1331.3</ele>
        <time>2019-08-13T18:06:07Z</time>
      </trkpt>
      <trkpt lat="40.5599250" lon="-4.6660360">
        <ele>1330.8</ele>
        <time>2019-08-13T18:06:08Z</time>
      </trkpt>
      <trkpt lat="40.5600150" lon="-4.6659900">
        <ele>1330.3</ele>
        <time>2019-08-13T18:06:09Z</time>
      </trkpt>
      <trkpt lat="40.5601040" lon="-4.6659450">
        <ele>1329.7</ele>
        <time>2019-08-13T18:06:10Z</time>
      </trkpt>
      <trkpt lat="40.5601910" lon="-4.6659020">
        <ele>1329.1</ele>
        <time>2019-08-13T18:06:11Z</time>
      </trkpt>
      <trkpt lat="40.5602760" lon="-4.6658620">
        <ele>1328.5</ele>
        <time>2019-08-13T18:06:12Z</time>
      </trkpt>
      <trkpt lat="40.5603590" lon="-4.6658220">
        <ele>1328.0</ele>
        <time>2019-08-13T18:06:13Z</time>
      </trkpt>
      <trkpt lat="40.5604410" lon="-4.6657830">
        <ele>1327.3</ele>
        <time>2019-08-13T18:06:14Z</time>
      </trkpt>
      <trkpt lat="40.5605250" lon="-4.6657460">
        <ele>1326.7</ele>
        <time>2019-08-13T18:06:15Z</time>
      </trkpt>
      <trkpt lat="40.5606100" lon="-4.6657110">
        <ele>1326.0</ele>
        <time>2019-08-13T18:06:16Z</time>
      </trkpt>
      <trkpt lat="40.5606940" lon="-4.6656770">
        <ele>1325.3</ele>
        <time>2019-08-13T18:06:17Z</time>
      </trkpt>
      <trkpt lat="40.5607780" lon="-4.6656460">
        <ele>1324.6</ele>
        <time>2019-08-13T18:06:18Z</time>
      </trkpt>
      <trkpt lat="40.5608660" lon="-4.6656150">
        <ele>1323.9</ele>
        <time>2019-08-13T18:06:19Z</time>
      </trkpt>
      <trkpt lat="40.5609540" lon="-4.6655880">
        <ele>1323.1</ele>
        <time>2019-08-13T18:06:20Z</time>
      </trkpt>
      <trkpt lat="40.5610430" lon="-4.6655600">
        <ele>1322.3</ele>
        <time>2019-08-13T18:06:21Z</time>
      </trkpt>
      <trkpt lat="40.5611340" lon="-4.6655310">
        <ele>1321.4</ele>
        <time>2019-08-13T18:06:22Z</time>
      </trkpt>
      <trkpt lat="40.5612260" lon="-4.6655030">
        <ele>1320.6</ele>
        <time>2019-08-13T18:06:23Z</time>
      </trkpt>
      <trkpt lat="40.5613200" lon="-4.6654780">
        <ele>1319.7</ele>
        <time>2019-08-13T18:06:24Z</time>
      </trkpt>
      <trkpt lat="40.5614140" lon="-4.6654540">
        <ele>1318.7</ele>
        <time>2019-08-13T18:06:25Z</time>
      </trkpt>
      <trkpt lat="40.5615100" lon="-4.6654310">
        <ele>1317.8</ele>
        <time>2019-08-13T18:06:26Z</time>
      </trkpt>
      <trkpt lat="40.5616070" lon="-4.6654070">
        <ele>1316.8</ele>
        <time>2019-08-13T18:06:27Z</time>
      </trkpt>
      <trkpt lat="40.5617030" lon="-4.6653840">
        <ele>1315.9</ele>
        <time>2019-08-13T18:06:28Z</time>
      </trkpt>
      <trkpt lat="40.5617990" lon="-4.6653640">
        <ele>1314.9</ele>
        <time>2019-08-13T18:06:29Z</time>
      </trkpt>
      <trkpt lat="40.5618960" lon="-4.6653460">
        <ele>1314.0</ele>
        <time>2019-08-13T18:06:30Z</time>
      </trkpt>
      <trkpt lat="40.5619930" lon="-4.6653320">
        <ele>1313.2</ele>
        <time>2019-08-13T18:06:31Z</time>
      </trkpt>
      <trkpt lat="40.5620900" lon="-4.6653230">
        <ele>1312.4</ele>
        <time>2019-08-13T18:06:32Z</time>
      </trkpt>
      <trkpt lat="40.5621900" lon="-4.6653170">
        <ele>1311.6</ele>
        <time>2019-08-13T18:06:33Z</time>
      </trkpt>
      <trkpt lat="40.5622910" lon="-4.6653210">
        <ele>1311.0</ele>
        <time>2019-08-13T18:06:34Z</time>
      </trkpt>
      <trkpt lat="40.5623930" lon="-4.6653310">
        <ele>1310.4</ele>
        <time>2019-08-13T18:06:35Z</time>
      </trkpt>
      <trkpt lat="40.5624940" lon="-4.6653470">
        <ele>1309.7</ele>
        <time>2019-08-13T18:06:36Z</time>
      </trkpt>
      <trkpt lat="40.5625960" lon="-4.6653720">
        <ele>1308.9</ele>
        <time>2019-08-13T18:06:37Z</time>
      </trkpt>
      <trkpt lat="40.5626970" lon="-4.6654040">
        <ele>1308.1</ele>
        <time>2019-08-13T18:06:38Z</time>
      </trkpt>
      <trkpt lat="40.5627960" lon="-4.6654390">
        <ele>1307.3</ele>
        <time>2019-08-13T18:06:39Z</time>
      </trkpt>
      <trkpt lat="40.5628920" lon="-4.6654780">
        <ele>1306.5</ele>
        <time>2019-08-13T18:06:40Z</time>
      </trkpt>
      <trkpt lat="40.5629850" lon="-4.6655170">
        <ele>1305.8</ele>
        <time>2019-08-13T18:06:41Z</time>
      </trkpt>
      <trkpt lat="40.5630760" lon="-4.6655560">
        <ele>1305.1</ele>
        <time>2019-08-13T18:06:42Z</time>
      </trkpt>
      <trkpt lat="40.5631630" lon="-4.6655930">
        <ele>1304.4</ele>
        <time>2019-08-13T18:06:43Z</time>
      </trkpt>
      <trkpt lat="40.5632480" lon="-4.6656290">
        <ele>1303.7</ele>
        <time>2019-08-13T18:06:44Z</time>
      </trkpt>
      <trkpt lat="40.5633320" lon="-4.6656630">
        <ele>1303.1</ele>
        <time>2019-08-13T18:06:45Z</time>
      </trkpt>
      <trkpt lat="40.5634160" lon="-4.6656980">
        <ele>1302.4</ele>
        <time>2019-08-13T18:06:46Z</time>
      </trkpt>
      <trkpt lat="40.5634990" lon="-4.6657320">
        <ele>1301.9</ele>
        <time>2019-08-13T18:06:47Z</time>
      </trkpt>
      <trkpt lat="40.5635820" lon="-4.6657640">
        <ele>1301.4</ele>
        <time>2019-08-13T18:06:48Z</time>
      </trkpt>
      <trkpt lat="40.5636620" lon="-4.6657950">
        <ele>1300.9</ele>
        <time>2019-08-13T18:06:49Z</time>
      </trkpt>
      <trkpt lat="40.5637370" lon="-4.6658230">
        <ele>1300.4</ele>
        <time>2019-08-13T18:06:50Z</time>
      </trkpt>
      <trkpt lat="40.5638070" lon="-4.6658460">
        <ele>1299.9</ele>
        <time>2019-08-13T18:06:51Z</time>
      </trkpt>
      <trkpt lat="40.5638700" lon="-4.6658630">
        <ele>1299.5</ele>
        <time>2019-08-13T18:06:52Z</time>
      </trkpt>
      <trkpt lat="40.5639290" lon="-4.6658760">
        <ele>1299.1</ele>
        <time>2019-08-13T18:06:53Z</time>
      </trkpt>
      <trkpt lat="40.5639850" lon="-4.6658890">
        <ele>1298.7</ele>
        <time>2019-08-13T18:06:54Z</time>
      </trkpt>
      <trkpt lat="40.5640370" lon="-4.6659080">
        <ele>1298.3</ele>
        <time>2019-08-13T18:06:55Z</time>
      </trkpt>
      <trkpt lat="40.5640850" lon="-4.6659290">
        <ele>1298.0</ele>
        <time>2019-08-13T18:06:56Z</time>
      </trkpt>
      <trkpt lat="40.5641280" lon="-4.6659500">
        <ele>1297.7</ele>
        <time>2019-08-13T18:06:57Z</time>
      </trkpt>
      <trkpt lat="40.5641690" lon="-4.6659710">
        <ele>1297.4</ele>
        <time>2019-08-13T18:06:58Z</time>
      </trkpt>
      <trkpt lat="40.5642100" lon="-4.6659930">
        <ele>1297.1</ele>
        <time>2019-08-13T18:06:59Z</time>
      </trkpt>
      <trkpt lat="40.5642520" lon="-4.6660180">
        <ele>1296.8</ele>
        <time>2019-08-13T18:07:00Z</time>
      </trkpt>
      <trkpt lat="40.5642950" lon="-4.6660440">
        <ele>1296.5</ele>
        <time>2019-08-13T18:07:01Z</time>
      </trkpt>
      <trkpt lat="40.5643380" lon="-4.6660690">
        <ele>1296.2</ele>
        <time>2019-08-13T18:07:02Z</time>
      </trkpt>
      <trkpt lat="40.5643830" lon="-4.6660900">
        <ele>1295.8</ele>
        <time>2019-08-13T18:07:03Z</time>
      </trkpt>
      <trkpt lat="40.5644310" lon="-4.6661110">
        <ele>1295.5</ele>
        <time>2019-08-13T18:07:04Z</time>
      </trkpt>
      <trkpt lat="40.5644800" lon="-4.6661320">
        <ele>1295.2</ele>
        <time>2019-08-13T18:07:05Z</time>
      </trkpt>
      <trkpt lat="40.5645310" lon="-4.6661540">
        <ele>1294.9</ele>
        <time>2019-08-13T18:07:06Z</time>
      </trkpt>
      <trkpt lat="40.5645840" lon="-4.6661770">
        <ele>1294.6</ele>
        <time>2019-08-13T18:07:07Z</time>
      </trkpt>
      <trkpt lat="40.5646430" lon="-4.6661990">
        <ele>1294.1</ele>
        <time>2019-08-13T18:07:08Z</time>
      </trkpt>
      <trkpt lat="40.5647030" lon="-4.6662220">
        <ele>1293.6</ele>
        <time>2019-08-13T18:07:09Z</time>
      </trkpt>
      <trkpt lat="40.5647660" lon="-4.6662480">
        <ele>1293.1</ele>
        <time>2019-08-13T18:07:10Z</time>
      </trkpt>
      <trkpt lat="40.5648330" lon="-4.6662740">
        <ele>1292.6</ele>
        <time>2019-08-13T18:07:11Z</time>
      </trkpt>
      <trkpt lat="40.5649030" lon="-4.6663030">
        <ele>1292.0</ele>
        <time>2019-08-13T18:07:12Z</time>
      </trkpt>
      <trkpt lat="40.5649750" lon="-4.6663330">
        <ele>1291.4</ele>
        <time>2019-08-13T18:07:13Z</time>
      </trkpt>
      <trkpt lat="40.5650480" lon="-4.6663620">
        <ele>1290.7</ele>
        <time>2019-08-13T18:07:14Z</time>
      </trkpt>
      <trkpt lat="40.5651240" lon="-4.6663920">
        <ele>1289.9</ele>
        <time>2019-08-13T18:07:15Z</time>
      </trkpt>
      <trkpt lat="40.5652030" lon="-4.6664220">
        <ele>1289.1</ele>
        <time>2019-08-13T18:07:16Z</time>
      </trkpt>
      <trkpt lat="40.5652840" lon="-4.6664520">
        <ele>1288.3</ele>
        <time>2019-08-13T18:07:17Z</time>
      </trkpt>
      <trkpt lat="40.5653680" lon="-4.6664820">
        <ele>1287.6</ele>
        <time>2019-08-13T18:07:18Z</time>
      </trkpt>
      <trkpt lat="40.5654550" lon="-4.6665150">
        <ele>1286.8</ele>
        <time>2019-08-13T18:07:19Z</time>
      </trkpt>
      <trkpt lat="40.5655430" lon="-4.6665480">
        <ele>1286.1</ele>
        <time>2019-08-13T18:07:20Z</time>
      </trkpt>
      <trkpt lat="40.5656330" lon="-4.6665820">
        <ele>1285.4</ele>
        <time>2019-08-13T18:07:21Z</time>
      </trkpt>
      <trkpt lat="40.5657260" lon="-4.6666190">
        <ele>1284.6</ele>
        <time>2019-08-13T18:07:22Z</time>
      </trkpt>
      <trkpt lat="40.5658210" lon="-4.6666560">
        <ele>1283.8</ele>
        <time>2019-08-13T18:07:23Z</time>
      </trkpt>
      <trkpt lat="40.5659190" lon="-4.6666940">
        <ele>1283.0</ele>
        <time>2019-08-13T18:07:24Z</time>
      </trkpt>
      <trkpt lat="40.5660170" lon="-4.6667330">
        <ele>1282.1</ele>
        <time>2019-08-13T18:07:25Z</time>
      </trkpt>
      <trkpt lat="40.5661170" lon="-4.6667730">
        <ele>1281.2</ele>
        <time>2019-08-13T18:07:26Z</time>
      </trkpt>
      <trkpt lat="40.5662170" lon="-4.6668170">
        <ele>1280.2</ele>
        <time>2019-08-13T18:07:27Z</time>
      </trkpt>
      <trkpt lat="40.5663180" lon="-4.6668630">
        <ele>1279.0</ele>
        <time>2019-08-13T18:07:28Z</time>
      </trkpt>
      <trkpt lat="40.5664190" lon="-4.6669130">
        <ele>1277.6</ele>
        <time>2019-08-13T18:07:29Z</time>
      </trkpt>
      <trkpt lat="40.5665180" lon="-4.6669670">
        <ele>1276.4</ele>
        <time>2019-08-13T18:07:30Z</time>
      </trkpt>
      <trkpt lat="40.5666170" lon="-4.6670240">
        <ele>1275.1</ele>
        <time>2019-08-13T18:07:31Z</time>
      </trkpt>
      <trkpt lat="40.5667150" lon="-4.6670900">
        <ele>1274.1</ele>
        <time>2019-08-13T18:07:32Z</time>
      </trkpt>
      <trkpt lat="40.5668120" lon="-4.6671630">
        <ele>1273.3</ele>
        <time>2019-08-13T18:07:33Z</time>
      </trkpt>
      <trkpt lat="40.5669070" lon="-4.6672420">
        <ele>1272.3</ele>
        <time>2019-08-13T18:07:34Z</time>
      </trkpt>
      <trkpt lat="40.5669990" lon="-4.6673250">
        <ele>1271.3</ele>
        <time>2019-08-13T18:07:35Z</time>
      </trkpt>
      <trkpt lat="40.5670890" lon="-4.6674160">
        <ele>1270.3</ele>
        <time>2019-08-13T18:07:36Z</time>
      </trkpt>
      <trkpt lat="40.5671780" lon="-4.6675150">
        <ele>1269.3</ele>
        <time>2019-08-13T18:07:37Z</time>
      </trkpt>
      <trkpt lat="40.5672640" lon="-4.6676210">
        <ele>1268.5</ele>
        <time>2019-08-13T18:07:38Z</time>
      </trkpt>
      <trkpt lat="40.5673490" lon="-4.6677320">
        <ele>1267.7</ele>
        <time>2019-08-13T18:07:39Z</time>
      </trkpt>
      <trkpt lat="40.5674320" lon="-4.6678470">
        <ele>1266.9</ele>
        <time>2019-08-13T18:07:40Z</time>
      </trkpt>
      <trkpt lat="40.5675120" lon="-4.6679660">
        <ele>1266.3</ele>
        <time>2019-08-13T18:07:41Z</time>
      </trkpt>
      <trkpt lat="40.5675870" lon="-4.6680910">
        <ele>1265.8</ele>
        <time>2019-08-13T18:07:42Z</time>
      </trkpt>
      <trkpt lat="40.5676600" lon="-4.6682190">
        <ele>1265.3</ele>
        <time>2019-08-13T18:07:43Z</time>
      </trkpt>
      <trkpt lat="40.5677330" lon="-4.6683500">
        <ele>1264.8</ele>
        <time>2019-08-13T18:07:44Z</time>
      </trkpt>
      <trkpt lat="40.5678070" lon="-4.6684800">
        <ele>1264.2</ele>
        <time>2019-08-13T18:07:45Z</time>
      </trkpt>
      <trkpt lat="40.5678810" lon="-4.6686120">
        <ele>1263.6</ele>
        <time>2019-08-13T18:07:46Z</time>
      </trkpt>
      <trkpt lat="40.5679570" lon="-4.6687410">
        <ele>1263.1</ele>
        <time>2019-08-13T18:07:47Z</time>
      </trkpt>
      <trkpt lat="40.5680380" lon="-4.6688660">
        <ele>1262.7</ele>
        <time>2019-08-13T18:07:48Z</time>
      </trkpt>
      <trkpt lat="40.5681200" lon="-4.6689840">
        <ele>1262.5</ele>
        <time>2019-08-13T18:07:49Z</time>
      </trkpt>
      <trkpt lat="40.5682100" lon="-4.6690930">
        <ele>1262.3</ele>
        <time>2019-08-13T18:07:50Z</time>
      </trkpt>
      <trkpt lat="40.5683060" lon="-4.6691950">
        <ele>1262.2</ele>
        <time>2019-08-13T18:07:51Z</time>
      </trkpt>
      <trkpt lat="40.5684070" lon="-4.6692870">
        <ele>1262.1</ele>
        <time>2019-08-13T18:07:52Z</time>
      </trkpt>
      <trkpt lat="40.5685160" lon="-4.6693700">
        <ele>1261.8</ele>
        <time>2019-08-13T18:07:53Z</time>
      </trkpt>
      <trkpt lat="40.5686310" lon="-4.6694430">
        <ele>1261.2</ele>
        <time>2019-08-13T18:07:54Z</time>
      </trkpt>
      <trkpt lat="40.5687500" lon="-4.6695050">
        <ele>1260.3</ele>
        <time>2019-08-13T18:07:55Z</time>
      </trkpt>
      <trkpt lat="40.5688730" lon="-4.6695550">
        <ele>1259.1</ele>
        <time>2019-08-13T18:07:56Z</time>
      </trkpt>
      <trkpt lat="40.5689980" lon="-4.6695950">
        <ele>1258.0</ele>
        <time>2019-08-13T18:07:57Z</time>
      </trkpt>
      <trkpt lat="40.5691280" lon="-4.6696220">
        <ele>1257.0</ele>
        <time>2019-08-13T18:07:58Z</time>
      </trkpt>
      <trkpt lat="40.5692610" lon="-4.6696360">
        <ele>1256.4</ele>
        <time>2019-08-13T18:07:59Z</time>
      </trkpt>
      <trkpt lat="40.5693930" lon="-4.6696350">
        <ele>1255.9</ele>
        <time>2019-08-13T18:08:00Z</time>
      </trkpt>
      <trkpt lat="40.5695270" lon="-4.6696210">
        <ele>1255.4</ele>
        <time>2019-08-13T18:08:01Z</time>
      </trkpt>
      <trkpt lat="40.5696590" lon="-4.6695970">
        <ele>1254.6</ele>
        <time>2019-08-13T18:08:02Z</time>
      </trkpt>
      <trkpt lat="40.5697900" lon="-4.6695570">
        <ele>1253.2</ele>
        <time>2019-08-13T18:08:03Z</time>
      </trkpt>
      <trkpt lat="40.5699180" lon="-4.6695050">
        <ele>1251.1</ele>
        <time>2019-08-13T18:08:04Z</time>
      </trkpt>
      <trkpt lat="40.5700410" lon="-4.6694480">
        <ele>1249.7</ele>
        <time>2019-08-13T18:08:05Z</time>
      </trkpt>
      <trkpt lat="40.5701620" lon="-4.6693830">
        <ele>1248.9</ele>
        <time>2019-08-13T18:08:06Z</time>
      </trkpt>
      <trkpt lat="40.5702770" lon="-4.6693150">
        <ele>1248.2</ele>
        <time>2019-08-13T18:08:07Z</time>
      </trkpt>
      <trkpt lat="40.5703880" lon="-4.6692480">
        <ele>1247.6</ele>
        <time>2019-08-13T18:08:08Z</time>
      </trkpt>
      <trkpt lat="40.5704960" lon="-4.6691840">
        <ele>1247.2</ele>
        <time>2019-08-13T18:08:09Z</time>
      </trkpt>
      <trkpt lat="40.5706000" lon="-4.6691210">
        <ele>1246.8</ele>
        <time>2019-08-13T18:08:10Z</time>
      </trkpt>
      <trkpt lat="40.5706970" lon="-4.6690590">
        <ele>1246.6</ele>
        <time>2019-08-13T18:08:11Z</time>
      </trkpt>
      <trkpt lat="40.5707920" lon="-4.6690000">
        <ele>1246.4</ele>
        <time>2019-08-13T18:08:12Z</time>
      </trkpt>
      <trkpt lat="40.5708870" lon="-4.6689400">
        <ele>1246.2</ele>
        <time>2019-08-13T18:08:13Z</time>
      </trkpt>
      <trkpt lat="40.5709790" lon="-4.6688830">
        <ele>1245.9</ele>
        <time>2019-08-13T18:08:14Z</time>
      </trkpt>
      <trkpt lat="40.5710720" lon="-4.6688250">
        <ele>1245.7</ele>
        <time>2019-08-13T18:08:15Z</time>
      </trkpt>
      <trkpt lat="40.5711630" lon="-4.6687650">
        <ele>1245.3</ele>
        <time>2019-08-13T18:08:16Z</time>
      </trkpt>
      <trkpt lat="40.5712550" lon="-4.6687020">
        <ele>1244.9</ele>
        <time>2019-08-13T18:08:17Z</time>
      </trkpt>
      <trkpt lat="40.5713460" lon="-4.6686390">
        <ele>1244.3</ele>
        <time>2019-08-13T18:08:18Z</time>
      </trkpt>
      <trkpt lat="40.5714390" lon="-4.6685750">
        <ele>1243.6</ele>
        <time>2019-08-13T18:08:19Z</time>
      </trkpt>
      <trkpt lat="40.5715320" lon="-4.6685100">
        <ele>1242.7</ele>
        <time>2019-08-13T18:08:20Z</time>
      </trkpt>
      <trkpt lat="40.5716240" lon="-4.6684470">
        <ele>1241.6</ele>
        <time>2019-08-13T18:08:21Z</time>
      </trkpt>
      <trkpt lat="40.5717170" lon="-4.6683830">
        <ele>1240.6</ele>
        <time>2019-08-13T18:08:22Z</time>
      </trkpt>
      <trkpt lat="40.5718080" lon="-4.6683200">
        <ele>1239.8</ele>
        <time>2019-08-13T18:08:23Z</time>
      </trkpt>
      <trkpt lat="40.5718990" lon="-4.6682560">
        <ele>1238.9</ele>
        <time>2019-08-13T18:08:24Z</time>
      </trkpt>
      <trkpt lat="40.5719930" lon="-4.6681940">
        <ele>1238.0</ele>
        <time>2019-08-13T18:08:25Z</time>
      </trkpt>
      <trkpt lat="40.5720860" lon="-4.6681350">
        <ele>1237.1</ele>
        <time>2019-08-13T18:08:26Z</time>
      </trkpt>
      <trkpt lat="40.5721800" lon="-4.6680820">
        <ele>1236.5</ele>
        <time>2019-08-13T18:08:27Z</time>
      </trkpt>
      <trkpt lat="40.5722730" lon="-4.6680370">
        <ele>1236.1</ele>
        <time>2019-08-13T18:08:28Z</time>
      </trkpt>
      <trkpt lat="40.5723640" lon="-4.6680000">
        <ele>1235.9</ele>
        <time>2019-08-13T18:08:29Z</time>
      </trkpt>
      <trkpt lat="40.5724530" lon="-4.6679700">
        <ele>1235.8</ele>
        <time>2019-08-13T18:08:30Z</time>
      </trkpt>
      <trkpt lat="40.5725410" lon="-4.6679460">
        <ele>1235.8</ele>
        <time>2019-08-13T18:08:31Z</time>
      </trkpt>
      <trkpt lat="40.5726250" lon="-4.6679290">
        <ele>1236.0</ele>
        <time>2019-08-13T18:08:32Z</time>
      </trkpt>
      <trkpt lat="40.5727060" lon="-4.6679160">
        <ele>1236.2</ele>
        <time>2019-08-13T18:08:33Z</time>
      </trkpt>
      <trkpt lat="40.5727830" lon="-4.6679080">
        <ele>1236.6</ele>
        <time>2019-08-13T18:08:34Z</time>
      </trkpt>
      <trkpt lat="40.5728570" lon="-4.6678990">
        <ele>1237.0</ele>
        <time>2019-08-13T18:08:35Z</time>
      </trkpt>
      <trkpt lat="40.5729260" lon="-4.6678930">
        <ele>1237.3</ele>
        <time>2019-08-13T18:08:36Z</time>
      </trkpt>
      <trkpt lat="40.5729910" lon="-4.6678890">
        <ele>1237.7</ele>
        <time>2019-08-13T18:08:37Z</time>
      </trkpt>
      <trkpt lat="40.5730530" lon="-4.6678870">
        <ele>1238.0</ele>
        <time>2019-08-13T18:08:38Z</time>
      </trkpt>
      <trkpt lat="40.5731150" lon="-4.6678870">
        <ele>1238.2</ele>
        <time>2019-08-13T18:08:39Z</time>
      </trkpt>
      <trkpt lat="40.5731750" lon="-4.6678860">
        <ele>1238.3</ele>
        <time>2019-08-13T18:08:40Z</time>
      </trkpt>
      <trkpt lat="40.5732350" lon="-4.6678860">
        <ele>1238.4</ele>
        <time>2019-08-13T18:08:41Z</time>
      </trkpt>
      <trkpt lat="40.5732940" lon="-4.6678870">
        <ele>1238.4</ele>
        <time>2019-08-13T18:08:42Z</time>
      </trkpt>
      <trkpt lat="40.5733550" lon="-4.6678850">
        <ele>1238.5</ele>
        <time>2019-08-13T18:08:43Z</time>
      </trkpt>
      <trkpt lat="40.5734150" lon="-4.6678820">
        <ele>1238.5</ele>
        <time>2019-08-13T18:08:44Z</time>
      </trkpt>
      <trkpt lat="40.5734750" lon="-4.6678810">
        <ele>1238.4</ele>
        <time>2019-08-13T18:08:45Z</time>
      </trkpt>
      <trkpt lat="40.5735340" lon="-4.6678800">
        <ele>1238.4</ele>
        <time>2019-08-13T18:08:46Z</time>
      </trkpt>
      <trkpt lat="40.5735930" lon="-4.6678800">
        <ele>1238.5</ele>
        <time>2019-08-13T18:08:47Z</time>
      </trkpt>
      <trkpt lat="40.5736510" lon="-4.6678780">
        <ele>1238.5</ele>
        <time>2019-08-13T18:08:48Z</time>
      </trkpt>
      <trkpt lat="40.5737070" lon="-4.6678790">
        <ele>1238.6</ele>
        <time>2019-08-13T18:08:49Z</time>
      </trkpt>
      <trkpt lat="40.5737610" lon="-4.6678790">
        <ele>1238.7</ele>
        <time>2019-08-13T18:08:50Z</time>
      </trkpt>
      <trkpt lat="40.5738120" lon="-4.6678820">
        <ele>1238.8</ele>
        <time>2019-08-13T18:08:51Z</time>
      </trkpt>
      <trkpt lat="40.5738620" lon="-4.6678870">
        <ele>1238.9</ele>
        <time>2019-08-13T18:08:52Z</time>
      </trkpt>
      <trkpt lat="40.5739100" lon="-4.6678930">
        <ele>1239.0</ele>
        <time>2019-08-13T18:08:53Z</time>
      </trkpt>
      <trkpt lat="40.5739570" lon="-4.6678990">
        <ele>1239.1</ele>
        <time>2019-08-13T18:08:54Z</time>
      </trkpt>
      <trkpt lat="40.5740040" lon="-4.6679080">
        <ele>1239.2</ele>
        <time>2019-08-13T18:08:55Z</time>
      </trkpt>
      <trkpt lat="40.5740500" lon="-4.6679160">
        <ele>1239.3</ele>
        <time>2019-08-13T18:08:56Z</time>
      </trkpt>
      <trkpt lat="40.5740920" lon="-4.6679270">
        <ele>1239.4</ele>
        <time>2019-08-13T18:08:57Z</time>
      </trkpt>
      <trkpt lat="40.5741340" lon="-4.6679370">
        <ele>1239.5</ele>
        <time>2019-08-13T18:08:58Z</time>
      </trkpt>
      <trkpt lat="40.5741740" lon="-4.6679490">
        <ele>1239.6</ele>
        <time>2019-08-13T18:08:59Z</time>
      </trkpt>
      <trkpt lat="40.5742140" lon="-4.6679600">
        <ele>1239.7</ele>
        <time>2019-08-13T18:09:00Z</time>
      </trkpt>
      <trkpt lat="40.5742530" lon="-4.6679710">
        <ele>1239.8</ele>
        <time>2019-08-13T18:09:01Z</time>
      </trkpt>
      <trkpt lat="40.5742920" lon="-4.6679840">
        <ele>1239.9</ele>
        <time>2019-08-13T18:09:02Z</time>
      </trkpt>
      <trkpt lat="40.5743300" lon="-4.6680000">
        <ele>1240.0</ele>
        <time>2019-08-13T18:09:03Z</time>
      </trkpt>
      <trkpt lat="40.5743690" lon="-4.6680180">
        <ele>1240.0</ele>
        <time>2019-08-13T18:09:04Z</time>
      </trkpt>
      <trkpt lat="40.5744080" lon="-4.6680370">
        <ele>1240.1</ele>
        <time>2019-08-13T18:09:05Z</time>
      </trkpt>
      <trkpt lat="40.5744480" lon="-4.6680580">
        <ele>1240.2</ele>
        <time>2019-08-13T18:09:06Z</time>
      </trkpt>
      <trkpt lat="40.5744880" lon="-4.6680810">
        <ele>1240.3</ele>
        <time>2019-08-13T18:09:07Z</time>
      </trkpt>
      <trkpt lat="40.5745280" lon="-4.6681030">
        <ele>1240.4</ele>
        <time>2019-08-13T18:09:08Z</time>
      </trkpt>
      <trkpt lat="40.5745680" lon="-4.6681250">
        <ele>1240.4</ele>
        <time>2019-08-13T18:09:09Z</time>
      </trkpt>
      <trkpt lat="40.5746080" lon="-4.6681460">
        <ele>1240.5</ele>
        <time>2019-08-13T18:09:10Z</time>
      </trkpt>
      <trkpt lat="40.5746460" lon="-4.6681660">
        <ele>1240.6</ele>
        <time>2019-08-13T18:09:11Z</time>
      </trkpt>
      <trkpt lat="40.5746830" lon="-4.6681850">
        <ele>1240.7</ele>
        <time>2019-08-13T18:09:12Z</time>
      </trkpt>
      <trkpt lat="40.5747180" lon="-4.6682020">
        <ele>1240.8</ele>
        <time>2019-08-13T18:09:13Z</time>
      </trkpt>
      <trkpt lat="40.5747520" lon="-4.6682190">
        <ele>1241.0</ele>
        <time>2019-08-13T18:09:14Z</time>
      </trkpt>
      <trkpt lat="40.5747860" lon="-4.6682370">
        <ele>1241.1</ele>
        <time>2019-08-13T18:09:15Z</time>
      </trkpt>
      <trkpt lat="40.5748170" lon="-4.6682550">
        <ele>1241.3</ele>
        <time>2019-08-13T18:09:16Z</time>
      </trkpt>
      <trkpt lat="40.5748470" lon="-4.6682730">
        <ele>1241.4</ele>
        <time>2019-08-13T18:09:17Z</time>
      </trkpt>
      <trkpt lat="40.5748760" lon="-4.6682900">
        <ele>1241.5</ele>
        <time>2019-08-13T18:09:18Z</time>
      </trkpt>
      <trkpt lat="40.5749070" lon="-4.6683060">
        <ele>1241.7</ele>
        <time>2019-08-13T18:09:19Z</time>
      </trkpt>
      <trkpt lat="40.5749370" lon="-4.6683210">
        <ele>1241.9</ele>
        <time>2019-08-13T18:09:20Z</time>
      </trkpt>
      <trkpt lat="40.5749690" lon="-4.6683380">
        <ele>1242.0</ele>
        <time>2019-08-13T18:09:21Z</time>
      </trkpt>
      <trkpt lat="40.5750000" lon="-4.6683540">
        <ele>1242.2</ele>
        <time>2019-08-13T18:09:22Z</time>
      </trkpt>
      <trkpt lat="40.5750320" lon="-4.6683690">
        <ele>1242.4</ele>
        <time>2019-08-13T18:09:23Z</time>
      </trkpt>
      <trkpt lat="40.5750630" lon="-4.6683850">
        <ele>1242.5</ele>
        <time>2019-08-13T18:09:24Z</time>
      </trkpt>
      <trkpt lat="40.5750940" lon="-4.6684020">
        <ele>1242.6</ele>
        <time>2019-08-13T18:09:25Z</time>
      </trkpt>
      <trkpt lat="40.5751250" lon="-4.6684190">
        <ele>1242.7</ele>
        <time>2019-08-13T18:09:26Z</time>
      </trkpt>
      <trkpt lat="40.5751550" lon="-4.6684360">
        <ele>1242.8</ele>
        <time>2019-08-13T18:09:27Z</time>
      </trkpt>
      <trkpt lat="40.5751860" lon="-4.6684540">
        <ele>1242.9</ele>
        <time>2019-08-13T18:09:28Z</time>
      </trkpt>
      <trkpt lat="40.5752170" lon="-4.6684710">
        <ele>1243.0</ele>
        <time>2019-08-13T18:09:29Z</time>
      </trkpt>
      <trkpt lat="40.5752490" lon="-4.6684880">
        <ele>1243.1</ele>
        <time>2019-08-13T18:09:30Z</time>
      </trkpt>
      <trkpt lat="40.5752830" lon="-4.6685060">
        <ele>1243.1</ele>
        <time>2019-08-13T18:09:31Z</time>
      </trkpt>
      <trkpt lat="40.5753190" lon="-4.6685260">
        <ele>1243.1</ele>
        <time>2019-08-13T18:09:32Z</time>
      </trkpt>
      <trkpt lat="40.5753580" lon="-4.6685460">
        <ele>1243.2</ele>
        <time>2019-08-13T18:09:33Z</time>
      </trkpt>
      <trkpt lat="40.5753980" lon="-4.6685680">
        <ele>1243.2</ele>
        <time>2019-08-13T18:09:34Z</time>
      </trkpt>
      <trkpt lat="40.5754390" lon="-4.6685890">
        <ele>1243.2</ele>
        <time>2019-08-13T18:09:35Z</time>
      </trkpt>
      <trkpt lat="40.5754810" lon="-4.6686110">
        <ele>1243.2</ele>
        <time>2019-08-13T18:09:36Z</time>
      </trkpt>
      <trkpt lat="40.5755250" lon="-4.6686340">
        <ele>1243.2</ele>
        <time>2019-08-13T18:09:37Z</time>
      </trkpt>
      <trkpt lat="40.5755700" lon="-4.6686610">
        <ele>1243.2</ele>
        <time>2019-08-13T18:09:38Z</time>
      </trkpt>
      <trkpt lat="40.5756130" lon="-4.6686880">
        <ele>1243.2</ele>
        <time>2019-08-13T18:09:39Z</time>
      </trkpt>
      <trkpt lat="40.5756580" lon="-4.6687130">
        <ele>1243.2</ele>
        <time>2019-08-13T18:09:40Z</time>
      </trkpt>
      <trkpt lat="40.5757030" lon="-4.6687380">
        <ele>1243.1</ele>
        <time>2019-08-13T18:09:41Z</time>
      </trkpt>
      <trkpt lat="40.5757480" lon="-4.6687620">
        <ele>1243.1</ele>
        <time>2019-08-13T18:09:42Z</time>
      </trkpt>
      <trkpt lat="40.5757950" lon="-4.6687850">
        <ele>1243.1</ele>
        <time>2019-08-13T18:09:43Z</time>
      </trkpt>
      <trkpt lat="40.5758410" lon="-4.6688100">
        <ele>1243.1</ele>
        <time>2019-08-13T18:09:44Z</time>
      </trkpt>
      <trkpt lat="40.5758870" lon="-4.6688360">
        <ele>1243.0</ele>
        <time>2019-08-13T18:09:45Z</time>
      </trkpt>
      <trkpt lat="40.5759310" lon="-4.6688640">
        <ele>1243.0</ele>
        <time>2019-08-13T18:09:46Z</time>
      </trkpt>
      <trkpt lat="40.5759720" lon="-4.6688890">
        <ele>1243.0</ele>
        <time>2019-08-13T18:09:47Z</time>
      </trkpt>
      <trkpt lat="40.5760130" lon="-4.6689100">
        <ele>1243.0</ele>
        <time>2019-08-13T18:09:48Z</time>
      </trkpt>
      <trkpt lat="40.5760510" lon="-4.6689290">
        <ele>1243.0</ele>
        <time>2019-08-13T18:09:49Z</time>
      </trkpt>
      <trkpt lat="40.5760910" lon="-4.6689450">
        <ele>1243.0</ele>
        <time>2019-08-13T18:09:50Z</time>
      </trkpt>
      <trkpt lat="40.5761290" lon="-4.6689620">
        <ele>1243.0</ele>
        <time>2019-08-13T18:09:51Z</time>
      </trkpt>
      <trkpt lat="40.5761680" lon="-4.6689810">
        <ele>1243.0</ele>
        <time>2019-08-13T18:09:52Z</time>
      </trkpt>
      <trkpt lat="40.5762070" lon="-4.6690010">
        <ele>1243.1</ele>
        <time>2019-08-13T18:09:53Z</time>
      </trkpt>
      <trkpt lat="40.5762460" lon="-4.6690230">
        <ele>1243.2</ele>
        <time>2019-08-13T18:09:54Z</time>
      </trkpt>
      <trkpt lat="40.5762830" lon="-4.6690450">
        <ele>1243.2</ele>
        <time>2019-08-13T18:09:55Z</time>
      </trkpt>
      <trkpt lat="40.5763190" lon="-4.6690650">
        <ele>1243.3</ele>
        <time>2019-08-13T18:09:56Z</time>
      </trkpt>
      <trkpt lat="40.5763530" lon="-4.6690840">
        <ele>1243.4</ele>
        <time>2019-08-13T18:09:57Z</time>
      </trkpt>
      <trkpt lat="40.5763860" lon="-4.6691020">
        <ele>1243.5</ele>
        <time>2019-08-13T18:09:58Z</time>
      </trkpt>
      <trkpt lat="40.5764160" lon="-4.6691180">
        <ele>1243.5</ele>
        <time>2019-08-13T18:09:59Z</time>
      </trkpt>
      <trkpt lat="40.5764430" lon="-4.6691330">
        <ele>1243.6</ele>
        <time>2019-08-13T18:10:00Z</time>
      </trkpt>
      <trkpt lat="40.5764690" lon="-4.6691480">
        <ele>1243.7</ele>
        <time>2019-08-13T18:10:01Z</time>
      </trkpt>
      <trkpt lat="40.5764950" lon="-4.6691620">
        <ele>1243.8</ele>
        <time>2019-08-13T18:10:02Z</time>
      </trkpt>
      <trkpt lat="40.5765210" lon="-4.6691750">
        <ele>1243.9</ele>
        <time>2019-08-13T18:10:03Z</time>
      </trkpt>
      <trkpt lat="40.5765480" lon="-4.6691880">
        <ele>1244.0</ele>
        <time>2019-08-13T18:10:04Z</time>
      </trkpt>
      <trkpt lat="40.5765750" lon="-4.6692030">
        <ele>1244.1</ele>
        <time>2019-08-13T18:10:05Z</time>
      </trkpt>
      <trkpt lat="40.5766030" lon="-4.6692170">
        <ele>1244.2</ele>
        <time>2019-08-13T18:10:06Z</time>
      </trkpt>
      <trkpt lat="40.5766310" lon="-4.6692320">
        <ele>1244.3</ele>
        <time>2019-08-13T18:10:07Z</time>
      </trkpt>
      <trkpt lat="40.5766590" lon="-4.6692490">
        <ele>1244.5</ele>
        <time>2019-08-13T18:10:08Z</time>
      </trkpt>
      <trkpt lat="40.5766880" lon="-4.6692640">
        <ele>1244.6</ele>
        <time>2019-08-13T18:10:09Z</time>
      </trkpt>
      <trkpt lat="40.5767170" lon="-4.6692780">
        <ele>1244.7</ele>
        <time>2019-08-13T18:10:10Z</time>
      </trkpt>
      <trkpt lat="40.5767470" lon="-4.6692940">
        <ele>1244.9</ele>
        <time>2019-08-13T18:10:11Z</time>
      </trkpt>
      <trkpt lat="40.5767760" lon="-4.6693100">
        <ele>1245.0</ele>
        <time>2019-08-13T18:10:12Z</time>
      </trkpt>
      <trkpt lat="40.5768050" lon="-4.6693250">
        <ele>1245.1</ele>
        <time>2019-08-13T18:10:13Z</time>
      </trkpt>
      <trkpt lat="40.5768350" lon="-4.6693410">
        <ele>1245.3</ele>
        <time>2019-08-13T18:10:14Z</time>
      </trkpt>
      <trkpt lat="40.5768660" lon="-4.6693590">
        <ele>1245.4</ele>
        <time>2019-08-13T18:10:15Z</time>
      </trkpt>
      <trkpt lat="40.5768950" lon="-4.6693780">
        <ele>1245.5</ele>
        <time>2019-08-13T18:10:16Z</time>
      </trkpt>
      <trkpt lat="40.5769250" lon="-4.6693980">
        <ele>1245.6</ele>
        <time>2019-08-13T18:10:17Z</time>
      </trkpt>
      <trkpt lat="40.5769550" lon="-4.6694180">
        <ele>1245.8</ele>
        <time>2019-08-13T18:10:18Z</time>
      </trkpt>
      <trkpt lat="40.5769860" lon="-4.6694370">
        <ele>1245.9</ele>
        <time>2019-08-13T18:10:19Z</time>
      </trkpt>
      <trkpt lat="40.5770160" lon="-4.6694570">
        <ele>1246.0</ele>
        <time>2019-08-13T18:10:20Z</time>
      </trkpt>
      <trkpt lat="40.5770450" lon="-4.6694780">
        <ele>1246.1</ele>
        <time>2019-08-13T18:10:21Z</time>
      </trkpt>
      <trkpt lat="40.5770750" lon="-4.6694990">
        <ele>1246.2</ele>
        <time>2019-08-13T18:10:22Z</time>
      </trkpt>
      <trkpt lat="40.5771050" lon="-4.6695210">
        <ele>1246.3</ele>
        <time>2019-08-13T18:10:23Z</time>
      </trkpt>
      <trkpt lat="40.5771370" lon="-4.6695430">
        <ele>1246.4</ele>
        <time>2019-08-13T18:10:24Z</time>
      </trkpt>
      <trkpt lat="40.5771690" lon="-4.6695650">
        <ele>1246.5</ele>
        <time>2019-08-13T18:10:25Z</time>
      </trkpt>
      <trkpt lat="40.5772020" lon="-4.6695900">
        <ele>1246.6</ele>
        <time>2019-08-13T18:10:26Z</time>
      </trkpt>
      <trkpt lat="40.5772360" lon="-4.6696180">
        <ele>1246.7</ele>
        <time>2019-08-13T18:10:27Z</time>
      </trkpt>
      <trkpt lat="40.5772710" lon="-4.6696480">
        <ele>1246.7</ele>
        <time>2019-08-13T18:10:28Z</time>
      </trkpt>
      <trkpt lat="40.5773060" lon="-4.6696790">
        <ele>1246.8</ele>
        <time>2019-08-13T18:10:29Z</time>
      </trkpt>
      <trkpt lat="40.5773410" lon="-4.6697110">
        <ele>1246.8</ele>
        <time>2019-08-13T18:10:30Z</time>
      </trkpt>
      <trkpt lat="40.5773770" lon="-4.6697440">
        <ele>1246.8</ele>
        <time>2019-08-13T18:10:31Z</time>
      </trkpt>
      <trkpt lat="40.5774120" lon="-4.6697770">
        <ele>1246.8</ele>
        <time>2019-08-13T18:10:32Z</time>
      </trkpt>
      <trkpt lat="40.5774480" lon="-4.6698110">
        <ele>1246.8</ele>
        <time>2019-08-13T18:10:33Z</time>
      </trkpt>
      <trkpt lat="40.5774840" lon="-4.6698480">
        <ele>1246.8</ele>
        <time>2019-08-13T18:10:34Z</time>
      </trkpt>
      <trkpt lat="40.5775210" lon="-4.6698840">
        <ele>1246.8</ele>
        <time>2019-08-13T18:10:35Z</time>
      </trkpt>
      <trkpt lat="40.5775590" lon="-4.6699230">
        <ele>1246.7</ele>
        <time>2019-08-13T18:10:36Z</time>
      </trkpt>
      <trkpt lat="40.5775980" lon="-4.6699640">
        <ele>1246.7</ele>
        <time>2019-08-13T18:10:37Z</time>
      </trkpt>
      <trkpt lat="40.5776390" lon="-4.6700060">
        <ele>1246.6</ele>
        <time>2019-08-13T18:10:38Z</time>
      </trkpt>
      <trkpt lat="40.5776820" lon="-4.6700510">
        <ele>1246.5</ele>
        <time>2019-08-13T18:10:39Z</time>
      </trkpt>
      <trkpt lat="40.5777240" lon="-4.6700980">
        <ele>1246.4</ele>
        <time>2019-08-13T18:10:40Z</time>
      </trkpt>
      <trkpt lat="40.5777660" lon="-4.6701460">
        <ele>1246.3</ele>
        <time>2019-08-13T18:10:41Z</time>
      </trkpt>
      <trkpt lat="40.5778110" lon="-4.6701920">
        <ele>1246.1</ele>
        <time>2019-08-13T18:10:42Z</time>
      </trkpt>
      <trkpt lat="40.5778550" lon="-4.6702390">
        <ele>1246.0</ele>
        <time>2019-08-13T18:10:43Z</time>
      </trkpt>
      <trkpt lat="40.5779000" lon="-4.6702860">
        <ele>1245.7</ele>
        <time>2019-08-13T18:10:44Z</time>
      </trkpt>
      <trkpt lat="40.5779440" lon="-4.6703330">
        <ele>1245.5</ele>
        <time>2019-08-13T18:10:45Z</time>
      </trkpt>
      <trkpt lat="40.5779900" lon="-4.6703790">
        <ele>1245.2</ele>
        <time>2019-08-13T18:10:46Z</time>
      </trkpt>
      <trkpt lat="40.5780360" lon="-4.6704250">
        <ele>1244.9</ele>
        <time>2019-08-13T18:10:47Z</time>
      </trkpt>
      <trkpt lat="40.5780800" lon="-4.6704710">
        <ele>1244.6</ele>
        <time>2019-08-13T18:10:48Z</time>
      </trkpt>
      <trkpt lat="40.5781260" lon="-4.6705180">
        <ele>1244.2</ele>
        <time>2019-08-13T18:10:49Z</time>
      </trkpt>
      <trkpt lat="40.5781720" lon="-4.6705640">
        <ele>1243.7</ele>
        <time>2019-08-13T18:10:50Z</time>
      </trkpt>
      <trkpt lat="40.5782190" lon="-4.6706100">
        <ele>1243.1</ele>
        <time>2019-08-13T18:10:51Z</time>
      </trkpt>
      <trkpt lat="40.5782680" lon="-4.6706560">
        <ele>1242.5</ele>
        <time>2019-08-13T18:10:52Z</time>
      </trkpt>
      <trkpt lat="40.5783200" lon="-4.6707000">
        <ele>1241.8</ele>
        <time>2019-08-13T18:10:53Z</time>
      </trkpt>
      <trkpt lat="40.5783730" lon="-4.6707430">
        <ele>1241.2</ele>
        <time>2019-08-13T18:10:54Z</time>
      </trkpt>
      <trkpt lat="40.5784280" lon="-4.6707870">
        <ele>1240.6</ele>
        <time>2019-08-13T18:10:55Z</time>
      </trkpt>
      <trkpt lat="40.5784870" lon="-4.6708310">
        <ele>1240.1</ele>
        <time>2019-08-13T18:10:56Z</time>
      </trkpt>
      <trkpt lat="40.5785460" lon="-4.6708750">
        <ele>1239.9</ele>
        <time>2019-08-13T18:10:57Z</time>
      </trkpt>
      <trkpt lat="40.5786070" lon="-4.6709170">
        <ele>1239.9</ele>
        <time>2019-08-13T18:10:58Z</time>
      </trkpt>
      <trkpt lat="40.5786710" lon="-4.6709550">
        <ele>1239.9</ele>
        <time>2019-08-13T18:10:59Z</time>
      </trkpt>
      <trkpt lat="40.5787360" lon="-4.6709920">
        <ele>1240.1</ele>
        <time>2019-08-13T18:11:00Z</time>
      </trkpt>
      <trkpt lat="40.5788040" lon="-4.6710280">
        <ele>1240.1</ele>
        <time>2019-08-13T18:11:01Z</time>
      </trkpt>
      <trkpt lat="40.5788740" lon="-4.6710640">
        <ele>1240.1</ele>
        <time>2019-08-13T18:11:02Z</time>
      </trkpt>
      <trkpt lat="40.5789460" lon="-4.6710980">
        <ele>1240.0</ele>
        <time>2019-08-13T18:11:03Z</time>
      </trkpt>
      <trkpt lat="40.5790190" lon="-4.6711330">
        <ele>1239.7</ele>
        <time>2019-08-13T18:11:04Z</time>
      </trkpt>
      <trkpt lat="40.5790940" lon="-4.6711660">
        <ele>1239.5</ele>
        <time>2019-08-13T18:11:05Z</time>
      </trkpt>
      <trkpt lat="40.5791750" lon="-4.6711980">
        <ele>1239.1</ele>
        <time>2019-08-13T18:11:06Z</time>
      </trkpt>
      <trkpt lat="40.5792610" lon="-4.6712290">
        <ele>1238.7</ele>
        <time>2019-08-13T18:11:07Z</time>
      </trkpt>
      <trkpt lat="40.5793490" lon="-4.6712610">
        <ele>1238.2</ele>
        <time>2019-08-13T18:11:08Z</time>
      </trkpt>
      <trkpt lat="40.5794350" lon="-4.6712940">
        <ele>1237.7</ele>
        <time>2019-08-13T18:11:09Z</time>
      </trkpt>
      <trkpt lat="40.5795210" lon="-4.6713290">
        <ele>1237.3</ele>
        <time>2019-08-13T18:11:10Z</time>
      </trkpt>
      <trkpt lat="40.5796080" lon="-4.6713620">
        <ele>1236.8</ele>
        <time>2019-08-13T18:11:11Z</time>
      </trkpt>
      <trkpt lat="40.5796950" lon="-4.6713970">
        <ele>1236.3</ele>
        <time>2019-08-13T18:11:12Z</time>
      </trkpt>
      <trkpt lat="40.5797820" lon="-4.6714320">
        <ele>1235.8</ele>
        <time>2019-08-13T18:11:13Z</time>
      </trkpt>
      <trkpt lat="40.5798680" lon="-4.6714670">
        <ele>1235.4</ele>
        <time>2019-08-13T18:11:14Z</time>
      </trkpt>
      <trkpt lat="40.5799540" lon="-4.6715040">
        <ele>1235.0</ele>
        <time>2019-08-13T18:11:15Z</time>
      </trkpt>
      <trkpt lat="40.5800410" lon="-4.6715430">
        <ele>1234.5</ele>
        <time>2019-08-13T18:11:16Z</time>
      </trkpt>
      <trkpt lat="40.5801290" lon="-4.6715790">
        <ele>1234.1</ele>
        <time>2019-08-13T18:11:17Z</time>
      </trkpt>
      <trkpt lat="40.5802160" lon="-4.6716120">
        <ele>1233.6</ele>
        <time>2019-08-13T18:11:18Z</time>
      </trkpt>
      <trkpt lat="40.5803030" lon="-4.6716470">
        <ele>1233.1</ele>
        <time>2019-08-13T18:11:19Z</time>
      </trkpt>
      <trkpt lat="40.5803900" lon="-4.6716830">
        <ele>1232.6</ele>
        <time>2019-08-13T18:11:20Z</time>
      </trkpt>
      <trkpt lat="40.5804770" lon="-4.6717180">
        <ele>1232.1</ele>
        <time>2019-08-13T18:11:21Z</time>
      </trkpt>
      <trkpt lat="40.5805630" lon="-4.6717520">
        <ele>1231.6</ele>
        <time>2019-08-13T18:11:22Z</time>
      </trkpt>
      <trkpt lat="40.5806500" lon="-4.6717870">
        <ele>1231.1</ele>
        <time>2019-08-13T18:11:23Z</time>
      </trkpt>
      <trkpt lat="40.5807360" lon="-4.6718230">
        <ele>1230.6</ele>
        <time>2019-08-13T18:11:24Z</time>
      </trkpt>
      <trkpt lat="40.5808230" lon="-4.6718600">
        <ele>1230.1</ele>
        <time>2019-08-13T18:11:25Z</time>
      </trkpt>
      <trkpt lat="40.5809120" lon="-4.6718970">
        <ele>1229.6</ele>
        <time>2019-08-13T18:11:26Z</time>
      </trkpt>
      <trkpt lat="40.5810010" lon="-4.6719350">
        <ele>1229.1</ele>
        <time>2019-08-13T18:11:27Z</time>
      </trkpt>
      <trkpt lat="40.5810900" lon="-4.6719730">
        <ele>1228.6</ele>
        <time>2019-08-13T18:11:28Z</time>
      </trkpt>
      <trkpt lat="40.5811790" lon="-4.6720110">
        <ele>1228.1</ele>
        <time>2019-08-13T18:11:29Z</time>
      </trkpt>
      <trkpt lat="40.5812690" lon="-4.6720470">
        <ele>1227.7</ele>
        <time>2019-08-13T18:11:30Z</time>
      </trkpt>
      <trkpt lat="40.5813590" lon="-4.6720830">
        <ele>1227.3</ele>
        <time>2019-08-13T18:11:31Z</time>
      </trkpt>
      <trkpt lat="40.5814470" lon="-4.6721200">
        <ele>1227.0</ele>
        <time>2019-08-13T18:11:32Z</time>
      </trkpt>
      <trkpt lat="40.5815370" lon="-4.6721580">
        <ele>1226.6</ele>
        <time>2019-08-13T18:11:33Z</time>
      </trkpt>
      <trkpt lat="40.5816250" lon="-4.6721960">
        <ele>1226.2</ele>
        <time>2019-08-13T18:11:34Z</time>
      </trkpt>
      <trkpt lat="40.5817130" lon="-4.6722340">
        <ele>1225.9</ele>
        <time>2019-08-13T18:11:35Z</time>
      </trkpt>
      <trkpt lat="40.5818000" lon="-4.6722680">
        <ele>1225.5</ele>
        <time>2019-08-13T18:11:36Z</time>
      </trkpt>
      <trkpt lat="40.5818880" lon="-4.6723020">
        <ele>1225.1</ele>
        <time>2019-08-13T18:11:37Z</time>
      </trkpt>
      <trkpt lat="40.5819740" lon="-4.6723370">
        <ele>1224.6</ele>
        <time>2019-08-13T18:11:38Z</time>
      </trkpt>
      <trkpt lat="40.5820590" lon="-4.6723750">
        <ele>1224.2</ele>
        <time>2019-08-13T18:11:39Z</time>
      </trkpt>
      <trkpt lat="40.5821420" lon="-4.6724120">
        <ele>1223.7</ele>
        <time>2019-08-13T18:11:40Z</time>
      </trkpt>
      <trkpt lat="40.5822250" lon="-4.6724450">
        <ele>1223.3</ele>
        <time>2019-08-13T18:11:41Z</time>
      </trkpt>
      <trkpt lat="40.5823060" lon="-4.6724790">
        <ele>1222.8</ele>
        <time>2019-08-13T18:11:42Z</time>
      </trkpt>
      <trkpt lat="40.5823850" lon="-4.6725120">
        <ele>1222.4</ele>
        <time>2019-08-13T18:11:43Z</time>
      </trkpt>
      <trkpt lat="40.5824630" lon="-4.6725460">
        <ele>1222.0</ele>
        <time>2019-08-13T18:11:44Z</time>
      </trkpt>
      <trkpt lat="40.5825420" lon="-4.6725790">
        <ele>1221.6</ele>
        <time>2019-08-13T18:11:45Z</time>
      </trkpt>
      <trkpt lat="40.5826200" lon="-4.6726100">
        <ele>1221.2</ele>
        <time>2019-08-13T18:11:46Z</time>
      </trkpt>
      <trkpt lat="40.5826990" lon="-4.6726420">
        <ele>1220.8</ele>
        <time>2019-08-13T18:11:47Z</time>
      </trkpt>
      <trkpt lat="40.5827760" lon="-4.6726750">
        <ele>1220.4</ele>
        <time>2019-08-13T18:11:48Z</time>
      </trkpt>
      <trkpt lat="40.5828540" lon="-4.6727090">
        <ele>1220.0</ele>
        <time>2019-08-13T18:11:49Z</time>
      </trkpt>
      <trkpt lat="40.5829300" lon="-4.6727440">
        <ele>1219.5</ele>
        <time>2019-08-13T18:11:50Z</time>
      </trkpt>
      <trkpt lat="40.5830060" lon="-4.6727820">
        <ele>1219.1</ele>
        <time>2019-08-13T18:11:51Z</time>
      </trkpt>
      <trkpt lat="40.5830820" lon="-4.6728210">
        <ele>1218.6</ele>
        <time>2019-08-13T18:11:52Z</time>
      </trkpt>
      <trkpt lat="40.5831590" lon="-4.6728630">
        <ele>1218.1</ele>
        <time>2019-08-13T18:11:53Z</time>
      </trkpt>
      <trkpt lat="40.5832350" lon="-4.6729110">
        <ele>1217.5</ele>
        <time>2019-08-13T18:11:54Z</time>
      </trkpt>
      <trkpt lat="40.5833120" lon="-4.6729630">
        <ele>1216.9</ele>
        <time>2019-08-13T18:11:55Z</time>
      </trkpt>
      <trkpt lat="40.5833890" lon="-4.6730230">
        <ele>1216.3</ele>
        <time>2019-08-13T18:11:56Z</time>
      </trkpt>
      <trkpt lat="40.5834640" lon="-4.6730890">
        <ele>1215.6</ele>
        <time>2019-08-13T18:11:57Z</time>
      </trkpt>
      <trkpt lat="40.5835370" lon="-4.6731640">
        <ele>1214.9</ele>
        <time>2019-08-13T18:11:58Z</time>
      </trkpt>
      <trkpt lat="40.5836100" lon="-4.6732440">
        <ele>1214.1</ele>
        <time>2019-08-13T18:11:59Z</time>
      </trkpt>
      <trkpt lat="40.5836800" lon="-4.6733290">
        <ele>1213.5</ele>
        <time>2019-08-13T18:12:00Z</time>
      </trkpt>
      <trkpt lat="40.5837490" lon="-4.6734200">
        <ele>1212.8</ele>
        <time>2019-08-13T18:12:01Z</time>
      </trkpt>
      <trkpt lat="40.5838160" lon="-4.6735130">
        <ele>1212.2</ele>
        <time>2019-08-13T18:12:02Z</time>
      </trkpt>
      <trkpt lat="40.5838780" lon="-4.6736120">
        <ele>1211.6</ele>
        <time>2019-08-13T18:12:03Z</time>
      </trkpt>
      <trkpt lat="40.5839360" lon="-4.6737140">
        <ele>1211.1</ele>
        <time>2019-08-13T18:12:04Z</time>
      </trkpt>
      <trkpt lat="40.5839930" lon="-4.6738190">
        <ele>1210.6</ele>
        <time>2019-08-13T18:12:05Z</time>
      </trkpt>
      <trkpt lat="40.5840490" lon="-4.6739230">
        <ele>1210.1</ele>
        <time>2019-08-13T18:12:06Z</time>
      </trkpt>
      <trkpt lat="40.5841050" lon="-4.6740260">
        <ele>1209.7</ele>
        <time>2019-08-13T18:12:07Z</time>
      </trkpt>
      <trkpt lat="40.5841620" lon="-4.6741270">
        <ele>1209.3</ele>
        <time>2019-08-13T18:12:08Z</time>
      </trkpt>
      <trkpt lat="40.5842180" lon="-4.6742260">
        <ele>1208.9</ele>
        <time>2019-08-13T18:12:09Z</time>
      </trkpt>
      <trkpt lat="40.5842740" lon="-4.6743250">
        <ele>1208.5</ele>
        <time>2019-08-13T18:12:10Z</time>
      </trkpt>
      <trkpt lat="40.5843280" lon="-4.6744220">
        <ele>1208.0</ele>
        <time>2019-08-13T18:12:11Z</time>
      </trkpt>
      <trkpt lat="40.5843810" lon="-4.6745170">
        <ele>1207.4</ele>
        <time>2019-08-13T18:12:12Z</time>
      </trkpt>
      <trkpt lat="40.5844340" lon="-4.6746120">
        <ele>1206.7</ele>
        <time>2019-08-13T18:12:13Z</time>
      </trkpt>
      <trkpt lat="40.5844870" lon="-4.6747020">
        <ele>1205.9</ele>
        <time>2019-08-13T18:12:14Z</time>
      </trkpt>
      <trkpt lat="40.5845410" lon="-4.6747910">
        <ele>1205.1</ele>
        <time>2019-08-13T18:12:15Z</time>
      </trkpt>
      <trkpt lat="40.5845970" lon="-4.6748780">
        <ele>1204.4</ele>
        <time>2019-08-13T18:12:16Z</time>
      </trkpt>
      <trkpt lat="40.5846540" lon="-4.6749660">
        <ele>1203.8</ele>
        <time>2019-08-13T18:12:17Z</time>
      </trkpt>
      <trkpt lat="40.5847140" lon="-4.6750570">
        <ele>1203.7</ele>
        <time>2019-08-13T18:12:18Z</time>
      </trkpt>
      <trkpt lat="40.5847750" lon="-4.6751480">
        <ele>1203.8</ele>
        <time>2019-08-13T18:12:19Z</time>
      </trkpt>
      <trkpt lat="40.5848380" lon="-4.6752380">
        <ele>1204.2</ele>
        <time>2019-08-13T18:12:20Z</time>
      </trkpt>
      <trkpt lat="40.5849020" lon="-4.6753270">
        <ele>1204.6</ele>
        <time>2019-08-13T18:12:21Z</time>
      </trkpt>
      <trkpt lat="40.5849670" lon="-4.6754160">
        <ele>1204.9</ele>
        <time>2019-08-13T18:12:22Z</time>
      </trkpt>
      <trkpt lat="40.5850310" lon="-4.6755070">
        <ele>1205.1</ele>
        <time>2019-08-13T18:12:23Z</time>
      </trkpt>
      <trkpt lat="40.5850940" lon="-4.6755990">
        <ele>1205.1</ele>
        <time>2019-08-13T18:12:24Z</time>
      </trkpt>
      <trkpt lat="40.5851570" lon="-4.6756890">
        <ele>1205.0</ele>
        <time>2019-08-13T18:12:25Z</time>
      </trkpt>
      <trkpt lat="40.5852210" lon="-4.6757810">
        <ele>1204.7</ele>
        <time>2019-08-13T18:12:26Z</time>
      </trkpt>
      <trkpt lat="40.5852860" lon="-4.6758720">
        <ele>1204.4</ele>
        <time>2019-08-13T18:12:27Z</time>
      </trkpt>
      <trkpt lat="40.5853530" lon="-4.6759630">
        <ele>1203.9</ele>
        <time>2019-08-13T18:12:28Z</time>
      </trkpt>
      <trkpt lat="40.5854210" lon="-4.6760540">
        <ele>1203.4</ele>
        <time>2019-08-13T18:12:29Z</time>
      </trkpt>
      <trkpt lat="40.5854870" lon="-4.6761460">
        <ele>1202.8</ele>
        <time>2019-08-13T18:12:30Z</time>
      </trkpt>
      <trkpt lat="40.5855540" lon="-4.6762370">
        <ele>1202.1</ele>
        <time>2019-08-13T18:12:31Z</time>
      </trkpt>
      <trkpt lat="40.5856220" lon="-4.6763270">
        <ele>1201.4</ele>
        <time>2019-08-13T18:12:32Z</time>
      </trkpt>
      <trkpt lat="40.5856900" lon="-4.6764180">
        <ele>1200.6</ele>
        <time>2019-08-13T18:12:33Z</time>
      </trkpt>
      <trkpt lat="40.5857570" lon="-4.6765080">
        <ele>1199.8</ele>
        <time>2019-08-13T18:12:34Z</time>
      </trkpt>
      <trkpt lat="40.5858260" lon="-4.6765940">
        <ele>1198.9</ele>
        <time>2019-08-13T18:12:35Z</time>
      </trkpt>
      <trkpt lat="40.5858970" lon="-4.6766760">
        <ele>1198.2</ele>
        <time>2019-08-13T18:12:36Z</time>
      </trkpt>
      <trkpt lat="40.5859680" lon="-4.6767510">
        <ele>1197.7</ele>
        <time>2019-08-13T18:12:37Z</time>
      </trkpt>
      <trkpt lat="40.5860390" lon="-4.6768190">
        <ele>1197.2</ele>
        <time>2019-08-13T18:12:38Z</time>
      </trkpt>
      <trkpt lat="40.5861100" lon="-4.6768820">
        <ele>1196.9</ele>
        <time>2019-08-13T18:12:39Z</time>
      </trkpt>
      <trkpt lat="40.5861800" lon="-4.6769390">
        <ele>1196.8</ele>
        <time>2019-08-13T18:12:40Z</time>
      </trkpt>
      <trkpt lat="40.5862500" lon="-4.6769910">
        <ele>1196.6</ele>
        <time>2019-08-13T18:12:41Z</time>
      </trkpt>
      <trkpt lat="40.5863180" lon="-4.6770350">
        <ele>1196.4</ele>
        <time>2019-08-13T18:12:42Z</time>
      </trkpt>
      <trkpt lat="40.5863850" lon="-4.6770730">
        <ele>1196.3</ele>
        <time>2019-08-13T18:12:43Z</time>
      </trkpt>
      <trkpt lat="40.5864530" lon="-4.6771050">
        <ele>1196.1</ele>
        <time>2019-08-13T18:12:44Z</time>
      </trkpt>
      <trkpt lat="40.5865200" lon="-4.6771320">
        <ele>1195.9</ele>
        <time>2019-08-13T18:12:45Z</time>
      </trkpt>
      <trkpt lat="40.5865870" lon="-4.6771550">
        <ele>1195.6</ele>
        <time>2019-08-13T18:12:46Z</time>
      </trkpt>
      <trkpt lat="40.5866530" lon="-4.6771720">
        <ele>1195.4</ele>
        <time>2019-08-13T18:12:47Z</time>
      </trkpt>
      <trkpt lat="40.5867190" lon="-4.6771860">
        <ele>1195.2</ele>
        <time>2019-08-13T18:12:48Z</time>
      </trkpt>
      <trkpt lat="40.5867870" lon="-4.6771950">
        <ele>1194.9</ele>
        <time>2019-08-13T18:12:49Z</time>
      </trkpt>
      <trkpt lat="40.5868530" lon="-4.6772020">
        <ele>1194.7</ele>
        <time>2019-08-13T18:12:50Z</time>
      </trkpt>
      <trkpt lat="40.5869180" lon="-4.6772070">
        <ele>1194.5</ele>
        <time>2019-08-13T18:12:51Z</time>
      </trkpt>
      <trkpt lat="40.5869830" lon="-4.6772060">
        <ele>1194.3</ele>
        <time>2019-08-13T18:12:52Z</time>
      </trkpt>
      <trkpt lat="40.5870470" lon="-4.6772020">
        <ele>1194.2</ele>
        <time>2019-08-13T18:12:53Z</time>
      </trkpt>
      <trkpt lat="40.5871090" lon="-4.6771950">
        <ele>1194.1</ele>
        <time>2019-08-13T18:12:54Z</time>
      </trkpt>
      <trkpt lat="40.5871720" lon="-4.6771840">
        <ele>1194.0</ele>
        <time>2019-08-13T18:12:55Z</time>
      </trkpt>
      <trkpt lat="40.5872320" lon="-4.6771700">
        <ele>1194.0</ele>
        <time>2019-08-13T18:12:56Z</time>
      </trkpt>
      <trkpt lat="40.5872910" lon="-4.6771560">
        <ele>1193.9</ele>
        <time>2019-08-13T18:12:57Z</time>
      </trkpt>
      <trkpt lat="40.5873510" lon="-4.6771430">
        <ele>1193.8</ele>
        <time>2019-08-13T18:12:58Z</time>
      </trkpt>
      <trkpt lat="40.5874090" lon="-4.6771270">
        <ele>1193.7</ele>
        <time>2019-08-13T18:12:59Z</time>
      </trkpt>
      <trkpt lat="40.5874680" lon="-4.6771120">
        <ele>1193.6</ele>
        <time>2019-08-13T18:13:00Z</time>
      </trkpt>
      <trkpt lat="40.5875260" lon="-4.6770970">
        <ele>1193.4</ele>
        <time>2019-08-13T18:13:01Z</time>
      </trkpt>
      <trkpt lat="40.5875840" lon="-4.6770830">
        <ele>1193.2</ele>
        <time>2019-08-13T18:13:02Z</time>
      </trkpt>
      <trkpt lat="40.5876410" lon="-4.6770680">
        <ele>1192.9</ele>
        <time>2019-08-13T18:13:03Z</time>
      </trkpt>
      <trkpt lat="40.5876970" lon="-4.6770530">
        <ele>1192.5</ele>
        <time>2019-08-13T18:13:04Z</time>
      </trkpt>
      <trkpt lat="40.5877510" lon="-4.6770380">
        <ele>1192.2</ele>
        <time>2019-08-13T18:13:05Z</time>
      </trkpt>
      <trkpt lat="40.5878050" lon="-4.6770230">
        <ele>1191.7</ele>
        <time>2019-08-13T18:13:06Z</time>
      </trkpt>
      <trkpt lat="40.5878580" lon="-4.6770100">
        <ele>1191.4</ele>
        <time>2019-08-13T18:13:07Z</time>
      </trkpt>
      <trkpt lat="40.5879100" lon="-4.6769990">
        <ele>1191.0</ele>
        <time>2019-08-13T18:13:08Z</time>
      </trkpt>
      <trkpt lat="40.5879620" lon="-4.6769890">
        <ele>1190.9</ele>
        <time>2019-08-13T18:13:09Z</time>
      </trkpt>
      <trkpt lat="40.5880140" lon="-4.6769830">
        <ele>1190.8</ele>
        <time>2019-08-13T18:13:10Z</time>
      </trkpt>
      <trkpt lat="40.5880660" lon="-4.6769780">
        <ele>1190.9</ele>
        <time>2019-08-13T18:13:11Z</time>
      </trkpt>
      <trkpt lat="40.5881160" lon="-4.6769770">
        <ele>1191.1</ele>
        <time>2019-08-13T18:13:12Z</time>
      </trkpt>
      <trkpt lat="40.5881690" lon="-4.6769760">
        <ele>1191.5</ele>
        <time>2019-08-13T18:13:13Z</time>
      </trkpt>
      <trkpt lat="40.5882240" lon="-4.6769770">
        <ele>1191.8</ele>
        <time>2019-08-13T18:13:14Z</time>
      </trkpt>
      <trkpt lat="40.5882820" lon="-4.6769770">
        <ele>1192.3</ele>
        <time>2019-08-13T18:13:15Z</time>
      </trkpt>
      <trkpt lat="40.5883400" lon="-4.6769790">
        <ele>1192.6</ele>
        <time>2019-08-13T18:13:16Z</time>
      </trkpt>
      <trkpt lat="40.5883980" lon="-4.6769820">
        <ele>1192.9</ele>
        <time>2019-08-13T18:13:17Z</time>
      </trkpt>
      <trkpt lat="40.5884560" lon="-4.6769860">
        <ele>1193.2</ele>
        <time>2019-08-13T18:13:18Z</time>
      </trkpt>
      <trkpt lat="40.5885150" lon="-4.6769920">
        <ele>1193.3</ele>
        <time>2019-08-13T18:13:19Z</time>
      </trkpt>
      <trkpt lat="40.5885750" lon="-4.6769990">
        <ele>1193.4</ele>
        <time>2019-08-13T18:13:20Z</time>
      </trkpt>
      <trkpt lat="40.5886350" lon="-4.6770050">
        <ele>1193.4</ele>
        <time>2019-08-13T18:13:21Z</time>
      </trkpt>
      <trkpt lat="40.5886940" lon="-4.6770110">
        <ele>1193.3</ele>
        <time>2019-08-13T18:13:22Z</time>
      </trkpt>
      <trkpt lat="40.5887550" lon="-4.6770170">
        <ele>1193.3</ele>
        <time>2019-08-13T18:13:23Z</time>
      </trkpt>
      <trkpt lat="40.5888140" lon="-4.6770210">
        <ele>1193.2</ele>
        <time>2019-08-13T18:13:24Z</time>
      </trkpt>
      <trkpt lat="40.5888740" lon="-4.6770240">
        <ele>1193.1</ele>
        <time>2019-08-13T18:13:25Z</time>
      </trkpt>
      <trkpt lat="40.5889320" lon="-4.6770270">
        <ele>1193.0</ele>
        <time>2019-08-13T18:13:26Z</time>
      </trkpt>
      <trkpt lat="40.5889910" lon="-4.6770310">
        <ele>1192.9</ele>
        <time>2019-08-13T18:13:27Z</time>
      </trkpt>
      <trkpt lat="40.5890500" lon="-4.6770350">
        <ele>1192.8</ele>
        <time>2019-08-13T18:13:28Z</time>
      </trkpt>
      <trkpt lat="40.5891090" lon="-4.6770400">
        <ele>1192.7</ele>
        <time>2019-08-13T18:13:29Z</time>
      </trkpt>
      <trkpt lat="40.5891680" lon="-4.6770440">
        <ele>1192.7</ele>
        <time>2019-08-13T18:13:30Z</time>
      </trkpt>
      <trkpt lat="40.5892270" lon="-4.6770480">
        <ele>1192.6</ele>
        <time>2019-08-13T18:13:31Z</time>
      </trkpt>
      <trkpt lat="40.5892860" lon="-4.6770530">
        <ele>1192.6</ele>
        <time>2019-08-13T18:13:32Z</time>
      </trkpt>
      <trkpt lat="40.5893460" lon="-4.6770580">
        <ele>1192.6</ele>
        <time>2019-08-13T18:13:33Z</time>
      </trkpt>
      <trkpt lat="40.5894050" lon="-4.6770640">
        <ele>1192.6</ele>
        <time>2019-08-13T18:13:34Z</time>
      </trkpt>
      <trkpt lat="40.5894640" lon="-4.6770700">
        <ele>1192.6</ele>
        <time>2019-08-13T18:13:35Z</time>
      </trkpt>
      <trkpt lat="40.5895230" lon="-4.6770740">
        <ele>1192.6</ele>
        <time>2019-08-13T18:13:36Z</time>
      </trkpt>
      <trkpt lat="40.5895830" lon="-4.6770810">
        <ele>1192.5</ele>
        <time>2019-08-13T18:13:37Z</time>
      </trkpt>
      <trkpt lat="40.5896430" lon="-4.6770890">
        <ele>1192.4</ele>
        <time>2019-08-13T18:13:38Z</time>
      </trkpt>
      <trkpt lat="40.5897040" lon="-4.6770930">
        <ele>1192.2</ele>
        <time>2019-08-13T18:13:39Z</time>
      </trkpt>
      <trkpt lat="40.5897630" lon="-4.6770980">
        <ele>1192.1</ele>
        <time>2019-08-13T18:13:40Z</time>
      </trkpt>
      <trkpt lat="40.5898220" lon="-4.6771020">
        <ele>1191.8</ele>
        <time>2019-08-13T18:13:41Z</time>
      </trkpt>
      <trkpt lat="40.5898800" lon="-4.6771050">
        <ele>1191.6</ele>
        <time>2019-08-13T18:13:42Z</time>
      </trkpt>
      <trkpt lat="40.5899380" lon="-4.6771080">
        <ele>1191.4</ele>
        <time>2019-08-13T18:13:43Z</time>
      </trkpt>
      <trkpt lat="40.5899950" lon="-4.6771110">
        <ele>1191.1</ele>
        <time>2019-08-13T18:13:44Z</time>
      </trkpt>
      <trkpt lat="40.5900530" lon="-4.6771160">
        <ele>1190.9</ele>
        <time>2019-08-13T18:13:45Z</time>
      </trkpt>
      <trkpt lat="40.5901100" lon="-4.6771230">
        <ele>1190.7</ele>
        <time>2019-08-13T18:13:46Z</time>
      </trkpt>
      <trkpt lat="40.5901690" lon="-4.6771280">
        <ele>1190.5</ele>
        <time>2019-08-13T18:13:47Z</time>
      </trkpt>
      <trkpt lat="40.5902290" lon="-4.6771330">
        <ele>1190.3</ele>
        <time>2019-08-13T18:13:48Z</time>
      </trkpt>
      <trkpt lat="40.5902880" lon="-4.6771370">
        <ele>1190.1</ele>
        <time>2019-08-13T18:13:49Z</time>
      </trkpt>
      <trkpt lat="40.5903480" lon="-4.6771430">
        <ele>1190.0</ele>
        <time>2019-08-13T18:13:50Z</time>
      </trkpt>
      <trkpt lat="40.5904080" lon="-4.6771490">
        <ele>1189.9</ele>
        <time>2019-08-13T18:13:51Z</time>
      </trkpt>
      <trkpt lat="40.5904680" lon="-4.6771530">
        <ele>1189.8</ele>
        <time>2019-08-13T18:13:52Z</time>
      </trkpt>
      <trkpt lat="40.5905280" lon="-4.6771570">
        <ele>1189.8</ele>
        <time>2019-08-13T18:13:53Z</time>
      </trkpt>
      <trkpt lat="40.5905880" lon="-4.6771600">
        <ele>1189.8</ele>
        <time>2019-08-13T18:13:54Z</time>
      </trkpt>
      <trkpt lat="40.5906480" lon="-4.6771650">
        <ele>1189.8</ele>
        <time>2019-08-13T18:13:55Z</time>
      </trkpt>
      <trkpt lat="40.5907080" lon="-4.6771680">
        <ele>1189.8</ele>
        <time>2019-08-13T18:13:56Z</time>
      </trkpt>
      <trkpt lat="40.5907670" lon="-4.6771710">
        <ele>1189.9</ele>
        <time>2019-08-13T18:13:57Z</time>
      </trkpt>
      <trkpt lat="40.5908250" lon="-4.6771740">
        <ele>1190.0</ele>
        <time>2019-08-13T18:13:58Z</time>
      </trkpt>
      <trkpt lat="40.5908830" lon="-4.6771760">
        <ele>1190.1</ele>
        <time>2019-08-13T18:13:59Z</time>
      </trkpt>
      <trkpt lat="40.5909400" lon="-4.6771770">
        <ele>1190.2</ele>
        <time>2019-08-13T18:14:00Z</time>
      </trkpt>
      <trkpt lat="40.5909960" lon="-4.6771790">
        <ele>1190.3</ele>
        <time>2019-08-13T18:14:01Z</time>
      </trkpt>
      <trkpt lat="40.5910530" lon="-4.6771800">
        <ele>1190.3</ele>
        <time>2019-08-13T18:14:02Z</time>
      </trkpt>
      <trkpt lat="40.5911080" lon="-4.6771780">
        <ele>1190.4</ele>
        <time>2019-08-13T18:14:03Z</time>
      </trkpt>
      <trkpt lat="40.5911630" lon="-4.6771770">
        <ele>1190.4</ele>
        <time>2019-08-13T18:14:04Z</time>
      </trkpt>
      <trkpt lat="40.5912180" lon="-4.6771740">
        <ele>1190.4</ele>
        <time>2019-08-13T18:14:05Z</time>
      </trkpt>
      <trkpt lat="40.5912720" lon="-4.6771700">
        <ele>1190.4</ele>
        <time>2019-08-13T18:14:06Z</time>
      </trkpt>
      <trkpt lat="40.5913250" lon="-4.6771640">
        <ele>1190.3</ele>
        <time>2019-08-13T18:14:07Z</time>
      </trkpt>
      <trkpt lat="40.5913790" lon="-4.6771560">
        <ele>1190.3</ele>
        <time>2019-08-13T18:14:08Z</time>
      </trkpt>
      <trkpt lat="40.5914310" lon="-4.6771470">
        <ele>1190.3</ele>
        <time>2019-08-13T18:14:09Z</time>
      </trkpt>
      <trkpt lat="40.5914830" lon="-4.6771380">
        <ele>1190.3</ele>
        <time>2019-08-13T18:14:10Z</time>
      </trkpt>
      <trkpt lat="40.5915340" lon="-4.6771280">
        <ele>1190.3</ele>
        <time>2019-08-13T18:14:11Z</time>
      </trkpt>
      <trkpt lat="40.5915850" lon="-4.6771200">
        <ele>1190.3</ele>
        <time>2019-08-13T18:14:12Z</time>
      </trkpt>
      <trkpt lat="40.5916350" lon="-4.6771090">
        <ele>1190.3</ele>
        <time>2019-08-13T18:14:13Z</time>
      </trkpt>
      <trkpt lat="40.5916840" lon="-4.6770960">
        <ele>1190.3</ele>
        <time>2019-08-13T18:14:14Z</time>
      </trkpt>
      <trkpt lat="40.5917330" lon="-4.6770830">
        <ele>1190.4</ele>
        <time>2019-08-13T18:14:15Z</time>
      </trkpt>
      <trkpt lat="40.5917830" lon="-4.6770700">
        <ele>1190.5</ele>
        <time>2019-08-13T18:14:16Z</time>
      </trkpt>
      <trkpt lat="40.5918330" lon="-4.6770560">
        <ele>1190.5</ele>
        <time>2019-08-13T18:14:17Z</time>
      </trkpt>
      <trkpt lat="40.5918830" lon="-4.6770410">
        <ele>1190.6</ele>
        <time>2019-08-13T18:14:18Z</time>
      </trkpt>
      <trkpt lat="40.5919350" lon="-4.6770260">
        <ele>1190.6</ele>
        <time>2019-08-13T18:14:19Z</time>
      </trkpt>
      <trkpt lat="40.5919850" lon="-4.6770110">
        <ele>1190.7</ele>
        <time>2019-08-13T18:14:20Z</time>
      </trkpt>
      <trkpt lat="40.5920340" lon="-4.6769940">
        <ele>1190.8</ele>
        <time>2019-08-13T18:14:21Z</time>
      </trkpt>
      <trkpt lat="40.5920820" lon="-4.6769770">
        <ele>1190.8</ele>
        <time>2019-08-13T18:14:22Z</time>
      </trkpt>
      <trkpt lat="40.5921310" lon="-4.6769590">
        <ele>1190.8</ele>
        <time>2019-08-13T18:14:23Z</time>
      </trkpt>
      <trkpt lat="40.5921810" lon="-4.6769400">
        <ele>1190.8</ele>
        <time>2019-08-13T18:14:24Z</time>
      </trkpt>
      <trkpt lat="40.5922300" lon="-4.6769210">
        <ele>1190.8</ele>
        <time>2019-08-13T18:14:25Z</time>
      </trkpt>
      <trkpt lat="40.5922790" lon="-4.6769020">
        <ele>1190.8</ele>
        <time>2019-08-13T18:14:26Z</time>
      </trkpt>
      <trkpt lat="40.5923290" lon="-4.6768820">
        <ele>1190.8</ele>
        <time>2019-08-13T18:14:27Z</time>
      </trkpt>
      <trkpt lat="40.5923800" lon="-4.6768620">
        <ele>1190.8</ele>
        <time>2019-08-13T18:14:28Z</time>
      </trkpt>
      <trkpt lat="40.5924310" lon="-4.6768410">
        <ele>1190.8</ele>
        <time>2019-08-13T18:14:29Z</time>
      </trkpt>
      <trkpt lat="40.5924830" lon="-4.6768200">
        <ele>1190.7</ele>
        <time>2019-08-13T18:14:30Z</time>
      </trkpt>
      <trkpt lat="40.5925340" lon="-4.6767990">
        <ele>1190.6</ele>
        <time>2019-08-13T18:14:31Z</time>
      </trkpt>
      <trkpt lat="40.5925850" lon="-4.6767790">
        <ele>1190.5</ele>
        <time>2019-08-13T18:14:32Z</time>
      </trkpt>
      <trkpt lat="40.5926350" lon="-4.6767570">
        <ele>1190.3</ele>
        <time>2019-08-13T18:14:33Z</time>
      </trkpt>
      <trkpt lat="40.5926840" lon="-4.6767350">
        <ele>1190.1</ele>
        <time>2019-08-13T18:14:34Z</time>
      </trkpt>
      <trkpt lat="40.5927330" lon="-4.6767140">
        <ele>1189.9</ele>
        <time>2019-08-13T18:14:35Z</time>
      </trkpt>
      <trkpt lat="40.5927810" lon="-4.6766930">
        <ele>1189.7</ele>
        <time>2019-08-13T18:14:36Z</time>
      </trkpt>
      <trkpt lat="40.5928300" lon="-4.6766710">
        <ele>1189.4</ele>
        <time>2019-08-13T18:14:37Z</time>
      </trkpt>
      <trkpt lat="40.5928780" lon="-4.6766490">
        <ele>1189.0</ele>
        <time>2019-08-13T18:14:38Z</time>
      </trkpt>
      <trkpt lat="40.5929260" lon="-4.6766280">
        <ele>1188.7</ele>
        <time>2019-08-13T18:14:39Z</time>
      </trkpt>
      <trkpt lat="40.5929740" lon="-4.6766070">
        <ele>1188.4</ele>
        <time>2019-08-13T18:14:40Z</time>
      </trkpt>
      <trkpt lat="40.5930230" lon="-4.6765870">
        <ele>1188.2</ele>
        <time>2019-08-13T18:14:41Z</time>
      </trkpt>
      <trkpt lat="40.5930710" lon="-4.6765680">
        <ele>1188.0</ele>
        <time>2019-08-13T18:14:42Z</time>
      </trkpt>
      <trkpt lat="40.5931190" lon="-4.6765510">
        <ele>1188.0</ele>
        <time>2019-08-13T18:14:43Z</time>
      </trkpt>
      <trkpt lat="40.5931670" lon="-4.6765320">
        <ele>1188.1</ele>
        <time>2019-08-13T18:14:44Z</time>
      </trkpt>
      <trkpt lat="40.5932130" lon="-4.6765140">
        <ele>1188.3</ele>
        <time>2019-08-13T18:14:45Z</time>
      </trkpt>
      <trkpt lat="40.5932580" lon="-4.6764960">
        <ele>1188.6</ele>
        <time>2019-08-13T18:14:46Z</time>
      </trkpt>
      <trkpt lat="40.5933030" lon="-4.6764780">
        <ele>1188.9</ele>
        <time>2019-08-13T18:14:47Z</time>
      </trkpt>
      <trkpt lat="40.5933470" lon="-4.6764620">
        <ele>1189.3</ele>
        <time>2019-08-13T18:14:48Z</time>
      </trkpt>
      <trkpt lat="40.5933880" lon="-4.6764470">
        <ele>1189.6</ele>
        <time>2019-08-13T18:14:49Z</time>
      </trkpt>
      <trkpt lat="40.5934270" lon="-4.6764300">
        <ele>1189.9</ele>
        <time>2019-08-13T18:14:50Z</time>
      </trkpt>
      <trkpt lat="40.5934660" lon="-4.6764130">
        <ele>1190.2</ele>
        <time>2019-08-13T18:14:51Z</time>
      </trkpt>
      <trkpt lat="40.5935040" lon="-4.6763990">
        <ele>1190.5</ele>
        <time>2019-08-13T18:14:52Z</time>
      </trkpt>
      <trkpt lat="40.5935420" lon="-4.6763840">
        <ele>1190.8</ele>
        <time>2019-08-13T18:14:53Z</time>
      </trkpt>
      <trkpt lat="40.5935800" lon="-4.6763680">
        <ele>1191.0</ele>
        <time>2019-08-13T18:14:54Z</time>
      </trkpt>
      <trkpt lat="40.5936180" lon="-4.6763540">
        <ele>1191.3</ele>
        <time>2019-08-13T18:14:55Z</time>
      </trkpt>
      <trkpt lat="40.5936560" lon="-4.6763380">
        <ele>1191.5</ele>
        <time>2019-08-13T18:14:56Z</time>
      </trkpt>
      <trkpt lat="40.5936970" lon="-4.6763250">
        <ele>1191.8</ele>
        <time>2019-08-13T18:14:57Z</time>
      </trkpt>
      <trkpt lat="40.5937370" lon="-4.6763120">
        <ele>1192.0</ele>
        <time>2019-08-13T18:14:58Z</time>
      </trkpt>
      <trkpt lat="40.5937780" lon="-4.6763010">
        <ele>1192.3</ele>
        <time>2019-08-13T18:14:59Z</time>
      </trkpt>
      <trkpt lat="40.5938190" lon="-4.6762900">
        <ele>1192.5</ele>
        <time>2019-08-13T18:15:00Z</time>
      </trkpt>
      <trkpt lat="40.5938600" lon="-4.6762790">
        <ele>1192.8</ele>
        <time>2019-08-13T18:15:01Z</time>
      </trkpt>
      <trkpt lat="40.5939000" lon="-4.6762680">
        <ele>1192.9</ele>
        <time>2019-08-13T18:15:02Z</time>
      </trkpt>
      <trkpt lat="40.5939400" lon="-4.6762600">
        <ele>1193.1</ele>
        <time>2019-08-13T18:15:03Z</time>
      </trkpt>
      <trkpt lat="40.5939790" lon="-4.6762520">
        <ele>1193.2</ele>
        <time>2019-08-13T18:15:04Z</time>
      </trkpt>
      <trkpt lat="40.5940190" lon="-4.6762430">
        <ele>1193.4</ele>
        <time>2019-08-13T18:15:05Z</time>
      </trkpt>
      <trkpt lat="40.5940610" lon="-4.6762340">
        <ele>1193.5</ele>
        <time>2019-08-13T18:15:06Z</time>
      </trkpt>
      <trkpt lat="40.5941030" lon="-4.6762260">
        <ele>1193.5</ele>
        <time>2019-08-13T18:15:07Z</time>
      </trkpt>
      <trkpt lat="40.5941440" lon="-4.6762170">
        <ele>1193.6</ele>
        <time>2019-08-13T18:15:08Z</time>
      </trkpt>
      <trkpt lat="40.5941860" lon="-4.6762110">
        <ele>1193.7</ele>
        <time>2019-08-13T18:15:09Z</time>
      </trkpt>
      <trkpt lat="40.5942270" lon="-4.6762050">
        <ele>1193.7</ele>
        <time>2019-08-13T18:15:10Z</time>
      </trkpt>
      <trkpt lat="40.5942690" lon="-4.6761980">
        <ele>1193.8</ele>
        <time>2019-08-13T18:15:11Z</time>
      </trkpt>
      <trkpt lat="40.5943090" lon="-4.6761930">
        <ele>1193.9</ele>
        <time>2019-08-13T18:15:12Z</time>
      </trkpt>
      <trkpt lat="40.5943500" lon="-4.6761880">
        <ele>1194.0</ele>
        <time>2019-08-13T18:15:13Z</time>
      </trkpt>
      <trkpt lat="40.5943910" lon="-4.6761840">
        <ele>1194.1</ele>
        <time>2019-08-13T18:15:14Z</time>
      </trkpt>
      <trkpt lat="40.5944320" lon="-4.6761800">
        <ele>1194.2</ele>
        <time>2019-08-13T18:15:15Z</time>
      </trkpt>
      <trkpt lat="40.5944740" lon="-4.6761760">
        <ele>1194.3</ele>
        <time>2019-08-13T18:15:16Z</time>
      </trkpt>
      <trkpt lat="40.5945160" lon="-4.6761700">
        <ele>1194.4</ele>
        <time>2019-08-13T18:15:17Z</time>
      </trkpt>
      <trkpt lat="40.5945580" lon="-4.6761640">
        <ele>1194.6</ele>
        <time>2019-08-13T18:15:18Z</time>
      </trkpt>
      <trkpt lat="40.5945990" lon="-4.6761590">
        <ele>1194.7</ele>
        <time>2019-08-13T18:15:19Z</time>
      </trkpt>
      <trkpt lat="40.5946400" lon="-4.6761550">
        <ele>1194.9</ele>
        <time>2019-08-13T18:15:20Z</time>
      </trkpt>
      <trkpt lat="40.5946810" lon="-4.6761520">
        <ele>1195.1</ele>
        <time>2019-08-13T18:15:21Z</time>
      </trkpt>
      <trkpt lat="40.5947210" lon="-4.6761480">
        <ele>1195.2</ele>
        <time>2019-08-13T18:15:22Z</time>
      </trkpt>
      <trkpt lat="40.5947600" lon="-4.6761450">
        <ele>1195.4</ele>
        <time>2019-08-13T18:15:23Z</time>
      </trkpt>
      <trkpt lat="40.5947990" lon="-4.6761430">
        <ele>1195.5</ele>
        <time>2019-08-13T18:15:24Z</time>
      </trkpt>
      <trkpt lat="40.5948380" lon="-4.6761410">
        <ele>1195.6</ele>
        <time>2019-08-13T18:15:25Z</time>
      </trkpt>
      <trkpt lat="40.5948750" lon="-4.6761370">
        <ele>1195.8</ele>
        <time>2019-08-13T18:15:26Z</time>
      </trkpt>
      <trkpt lat="40.5949130" lon="-4.6761340">
        <ele>1195.9</ele>
        <time>2019-08-13T18:15:27Z</time>
      </trkpt>
      <trkpt lat="40.5949500" lon="-4.6761320">
        <ele>1195.9</ele>
        <time>2019-08-13T18:15:28Z</time>
      </trkpt>
      <trkpt lat="40.5949880" lon="-4.6761280">
        <ele>1196.0</ele>
        <time>2019-08-13T18:15:29Z</time>
      </trkpt>
      <trkpt lat="40.5950260" lon="-4.6761260">
        <ele>1196.1</ele>
        <time>2019-08-13T18:15:30Z</time>
      </trkpt>
      <trkpt lat="40.5950630" lon="-4.6761220">
        <ele>1196.2</ele>
        <time>2019-08-13T18:15:31Z</time>
      </trkpt>
      <trkpt lat="40.5950990" lon="-4.6761190">
        <ele>1196.3</ele>
        <time>2019-08-13T18:15:32Z</time>
      </trkpt>
      <trkpt lat="40.5951350" lon="-4.6761160">
        <ele>1196.4</ele>
        <time>2019-08-13T18:15:33Z</time>
      </trkpt>
      <trkpt lat="40.5951710" lon="-4.6761140">
        <ele>1196.5</ele>
        <time>2019-08-13T18:15:34Z</time>
      </trkpt>
      <trkpt lat="40.5952060" lon="-4.6761110">
        <ele>1196.6</ele>
        <time>2019-08-13T18:15:35Z</time>
      </trkpt>
      <trkpt lat="40.5952400" lon="-4.6761090">
        <ele>1196.7</ele>
        <time>2019-08-13T18:15:36Z</time>
      </trkpt>
      <trkpt lat="40.5952750" lon="-4.6761090">
        <ele>1196.8</ele>
        <time>2019-08-13T18:15:37Z</time>
      </trkpt>
      <trkpt lat="40.5953090" lon="-4.6761070">
        <ele>1196.9</ele>
        <time>2019-08-13T18:15:38Z</time>
      </trkpt>
      <trkpt lat="40.5953450" lon="-4.6761040">
        <ele>1197.0</ele>
        <time>2019-08-13T18:15:39Z</time>
      </trkpt>
      <trkpt lat="40.5953810" lon="-4.6761010">
        <ele>1197.1</ele>
        <time>2019-08-13T18:15:40Z</time>
      </trkpt>
      <trkpt lat="40.5954170" lon="-4.6760990">
        <ele>1197.3</ele>
        <time>2019-08-13T18:15:41Z</time>
      </trkpt>
      <trkpt lat="40.5954530" lon="-4.6760980">
        <ele>1197.4</ele>
        <time>2019-08-13T18:15:42Z</time>
      </trkpt>
      <trkpt lat="40.5954890" lon="-4.6760960">
        <ele>1197.5</ele>
        <time>2019-08-13T18:15:43Z</time>
      </trkpt>
      <trkpt lat="40.5955250" lon="-4.6760940">
        <ele>1197.6</ele>
        <time>2019-08-13T18:15:44Z</time>
      </trkpt>
      <trkpt lat="40.5955600" lon="-4.6760920">
        <ele>1197.8</ele>
        <time>2019-08-13T18:15:45Z</time>
      </trkpt>
      <trkpt lat="40.5955960" lon="-4.6760900">
        <ele>1197.9</ele>
        <time>2019-08-13T18:15:46Z</time>
      </trkpt>
      <trkpt lat="40.5956310" lon="-4.6760890">
        <ele>1198.0</ele>
        <time>2019-08-13T18:15:47Z</time>
      </trkpt>
      <trkpt lat="40.5956660" lon="-4.6760870">
        <ele>1198.2</ele>
        <time>2019-08-13T18:15:48Z</time>
      </trkpt>
      <trkpt lat="40.5957030" lon="-4.6760840">
        <ele>1198.3</ele>
        <time>2019-08-13T18:15:49Z</time>
      </trkpt>
      <trkpt lat="40.5957390" lon="-4.6760820">
        <ele>1198.4</ele>
        <time>2019-08-13T18:15:50Z</time>
      </trkpt>
      <trkpt lat="40.5957750" lon="-4.6760780">
        <ele>1198.5</ele>
        <time>2019-08-13T18:15:51Z</time>
      </trkpt>
      <trkpt lat="40.5958100" lon="-4.6760750">
        <ele>1198.7</ele>
        <time>2019-08-13T18:15:52Z</time>
      </trkpt>
      <trkpt lat="40.5958460" lon="-4.6760730">
        <ele>1198.8</ele>
        <time>2019-08-13T18:15:53Z</time>
      </trkpt>
      <trkpt lat="40.5958810" lon="-4.6760720">
        <ele>1199.0</ele>
        <time>2019-08-13T18:15:54Z</time>
      </trkpt>
      <trkpt lat="40.5959160" lon="-4.6760710">
        <ele>1199.1</ele>
        <time>2019-08-13T18:15:55Z</time>
      </trkpt>
      <trkpt lat="40.5959520" lon="-4.6760710">
        <ele>1199.3</ele>
        <time>2019-08-13T18:15:56Z</time>
      </trkpt>
      <trkpt lat="40.5959860" lon="-4.6760720">
        <ele>1199.4</ele>
        <time>2019-08-13T18:15:57Z</time>
      </trkpt>
      <trkpt lat="40.5960210" lon="-4.6760710">
        <ele>1199.6</ele>
        <time>2019-08-13T18:15:58Z</time>
      </trkpt>
      <trkpt lat="40.5960550" lon="-4.6760710">
        <ele>1199.7</ele>
        <time>2019-08-13T18:15:59Z</time>
      </trkpt>
      <trkpt lat="40.5960900" lon="-4.6760700">
        <ele>1199.9</ele>
        <time>2019-08-13T18:16:00Z</time>
      </trkpt>
      <trkpt lat="40.5961240" lon="-4.6760700">
        <ele>1200.0</ele>
        <time>2019-08-13T18:16:01Z</time>
      </trkpt>
      <trkpt lat="40.5961580" lon="-4.6760700">
        <ele>1200.2</ele>
        <time>2019-08-13T18:16:02Z</time>
      </trkpt>
      <trkpt lat="40.5961900" lon="-4.6760710">
        <ele>1200.3</ele>
        <time>2019-08-13T18:16:03Z</time>
      </trkpt>
      <trkpt lat="40.5962210" lon="-4.6760730">
        <ele>1200.4</ele>
        <time>2019-08-13T18:16:04Z</time>
      </trkpt>
      <trkpt lat="40.5962520" lon="-4.6760750">
        <ele>1200.5</ele>
        <time>2019-08-13T18:16:05Z</time>
      </trkpt>
      <trkpt lat="40.5962810" lon="-4.6760780">
        <ele>1200.6</ele>
        <time>2019-08-13T18:16:06Z</time>
      </trkpt>
      <trkpt lat="40.5963100" lon="-4.6760810">
        <ele>1200.7</ele>
        <time>2019-08-13T18:16:07Z</time>
      </trkpt>
      <trkpt lat="40.5963380" lon="-4.6760840">
        <ele>1200.8</ele>
        <time>2019-08-13T18:16:08Z</time>
      </trkpt>
      <trkpt lat="40.5963650" lon="-4.6760880">
        <ele>1200.9</ele>
        <time>2019-08-13T18:16:09Z</time>
      </trkpt>
      <trkpt lat="40.5963930" lon="-4.6760930">
        <ele>1201.0</ele>
        <time>2019-08-13T18:16:10Z</time>
      </trkpt>
      <trkpt lat="40.5964210" lon="-4.6760980">
        <ele>1201.1</ele>
        <time>2019-08-13T18:16:11Z</time>
      </trkpt>
      <trkpt lat="40.5964500" lon="-4.6761020">
        <ele>1201.1</ele>
        <time>2019-08-13T18:16:12Z</time>
      </trkpt>
      <trkpt lat="40.5964790" lon="-4.6761080">
        <ele>1201.2</ele>
        <time>2019-08-13T18:16:13Z</time>
      </trkpt>
      <trkpt lat="40.5965080" lon="-4.6761160">
        <ele>1201.3</ele>
        <time>2019-08-13T18:16:14Z</time>
      </trkpt>
      <trkpt lat="40.5965390" lon="-4.6761250">
        <ele>1201.4</ele>
        <time>2019-08-13T18:16:15Z</time>
      </trkpt>
      <trkpt lat="40.5965710" lon="-4.6761320">
        <ele>1201.4</ele>
        <time>2019-08-13T18:16:16Z</time>
      </trkpt>
      <trkpt lat="40.5966030" lon="-4.6761390">
        <ele>1201.5</ele>
        <time>2019-08-13T18:16:17Z</time>
      </trkpt>
      <trkpt lat="40.5966360" lon="-4.6761470">
        <ele>1201.6</ele>
        <time>2019-08-13T18:16:18Z</time>
      </trkpt>
      <trkpt lat="40.5966680" lon="-4.6761560">
        <ele>1201.7</ele>
        <time>2019-08-13T18:16:19Z</time>
      </trkpt>
      <trkpt lat="40.5966990" lon="-4.6761670">
        <ele>1201.8</ele>
        <time>2019-08-13T18:16:20Z</time>
      </trkpt>
      <trkpt lat="40.5967310" lon="-4.6761770">
        <ele>1201.8</ele>
        <time>2019-08-13T18:16:21Z</time>
      </trkpt>
      <trkpt lat="40.5967620" lon="-4.6761860">
        <ele>1201.9</ele>
        <time>2019-08-13T18:16:22Z</time>
      </trkpt>
      <trkpt lat="40.5967930" lon="-4.6761970">
        <ele>1202.0</ele>
        <time>2019-08-13T18:16:23Z</time>
      </trkpt>
      <trkpt lat="40.5968240" lon="-4.6762080">
        <ele>1202.1</ele>
        <time>2019-08-13T18:16:24Z</time>
      </trkpt>
      <trkpt lat="40.5968540" lon="-4.6762190">
        <ele>1202.2</ele>
        <time>2019-08-13T18:16:25Z</time>
      </trkpt>
      <trkpt lat="40.5968840" lon="-4.6762300">
        <ele>1202.3</ele>
        <time>2019-08-13T18:16:26Z</time>
      </trkpt>
      <trkpt lat="40.5969130" lon="-4.6762400">
        <ele>1202.5</ele>
        <time>2019-08-13T18:16:27Z</time>
      </trkpt>
      <trkpt lat="40.5969430" lon="-4.6762510">
        <ele>1202.6</ele>
        <time>2019-08-13T18:16:28Z</time>
      </trkpt>
      <trkpt lat="40.5969720" lon="-4.6762630">
        <ele>1202.7</ele>
        <time>2019-08-13T18:16:29Z</time>
      </trkpt>
      <trkpt lat="40.5970000" lon="-4.6762740">
        <ele>1202.8</ele>
        <time>2019-08-13T18:16:30Z</time>
      </trkpt>
      <trkpt lat="40.5970280" lon="-4.6762870">
        <ele>1202.9</ele>
        <time>2019-08-13T18:16:31Z</time>
      </trkpt>
      <trkpt lat="40.5970560" lon="-4.6762980">
        <ele>1203.0</ele>
        <time>2019-08-13T18:16:32Z</time>
      </trkpt>
      <trkpt lat="40.5970850" lon="-4.6763090">
        <ele>1203.2</ele>
        <time>2019-08-13T18:16:33Z</time>
      </trkpt>
      <trkpt lat="40.5971130" lon="-4.6763210">
        <ele>1203.3</ele>
        <time>2019-08-13T18:16:34Z</time>
      </trkpt>
      <trkpt lat="40.5971410" lon="-4.6763310">
        <ele>1203.4</ele>
        <time>2019-08-13T18:16:35Z</time>
      </trkpt>
      <trkpt lat="40.5971690" lon="-4.6763430">
        <ele>1203.6</ele>
        <time>2019-08-13T18:16:36Z</time>
      </trkpt>
      <trkpt lat="40.5971970" lon="-4.6763540">
        <ele>1203.7</ele>
        <time>2019-08-13T18:16:37Z</time>
      </trkpt>
      <trkpt lat="40.5972250" lon="-4.6763670">
        <ele>1203.8</ele>
        <time>2019-08-13T18:16:38Z</time>
      </trkpt>
      <trkpt lat="40.5972530" lon="-4.6763790">
        <ele>1204.0</ele>
        <time>2019-08-13T18:16:39Z</time>
      </trkpt>
      <trkpt lat="40.5972810" lon="-4.6763910">
        <ele>1204.1</ele>
        <time>2019-08-13T18:16:40Z</time>
      </trkpt>
      <trkpt lat="40.5973090" lon="-4.6764040">
        <ele>1204.3</ele>
        <time>2019-08-13T18:16:41Z</time>
      </trkpt>
      <trkpt lat="40.5973370" lon="-4.6764160">
        <ele>1204.4</ele>
        <time>2019-08-13T18:16:42Z</time>
      </trkpt>
      <trkpt lat="40.5973650" lon="-4.6764290">
        <ele>1204.5</ele>
        <time>2019-08-13T18:16:43Z</time>
      </trkpt>
      <trkpt lat="40.5973930" lon="-4.6764410">
        <ele>1204.7</ele>
        <time>2019-08-13T18:16:44Z</time>
      </trkpt>
      <trkpt lat="40.5974210" lon="-4.6764540">
        <ele>1204.8</ele>
        <time>2019-08-13T18:16:45Z</time>
      </trkpt>
      <trkpt lat="40.5974490" lon="-4.6764660">
        <ele>1205.0</ele>
        <time>2019-08-13T18:16:46Z</time>
      </trkpt>
      <trkpt lat="40.5974770" lon="-4.6764800">
        <ele>1205.1</ele>
        <time>2019-08-13T18:16:47Z</time>
      </trkpt>
      <trkpt lat="40.5975060" lon="-4.6764920">
        <ele>1205.2</ele>
        <time>2019-08-13T18:16:48Z</time>
      </trkpt>
      <trkpt lat="40.5975350" lon="-4.6765040">
        <ele>1205.3</ele>
        <time>2019-08-13T18:16:49Z</time>
      </trkpt>
      <trkpt lat="40.5975640" lon="-4.6765170">
        <ele>1205.4</ele>
        <time>2019-08-13T18:16:50Z</time>
      </trkpt>
      <trkpt lat="40.5975930" lon="-4.6765290">
        <ele>1205.5</ele>
        <time>2019-08-13T18:16:51Z</time>
      </trkpt>
      <trkpt lat="40.5976230" lon="-4.6765420">
        <ele>1205.6</ele>
        <time>2019-08-13T18:16:52Z</time>
      </trkpt>
      <trkpt lat="40.5976540" lon="-4.6765540">
        <ele>1205.7</ele>
        <time>2019-08-13T18:16:53Z</time>
      </trkpt>
      <trkpt lat="40.5976850" lon="-4.6765680">
        <ele>1205.7</ele>
        <time>2019-08-13T18:16:54Z</time>
      </trkpt>
      <trkpt lat="40.5977160" lon="-4.6765820">
        <ele>1205.7</ele>
        <time>2019-08-13T18:16:55Z</time>
      </trkpt>
      <trkpt lat="40.5977480" lon="-4.6765970">
        <ele>1205.6</ele>
        <time>2019-08-13T18:16:56Z</time>
      </trkpt>
      <trkpt lat="40.5977810" lon="-4.6766110">
        <ele>1205.5</ele>
        <time>2019-08-13T18:16:57Z</time>
      </trkpt>
      <trkpt lat="40.5978150" lon="-4.6766240">
        <ele>1205.4</ele>
        <time>2019-08-13T18:16:58Z</time>
      </trkpt>
      <trkpt lat="40.5978500" lon="-4.6766390">
        <ele>1205.2</ele>
        <time>2019-08-13T18:16:59Z</time>
      </trkpt>
      <trkpt lat="40.5978820" lon="-4.6766560">
        <ele>1205.0</ele>
        <time>2019-08-13T18:17:00Z</time>
      </trkpt>
      <trkpt lat="40.5979130" lon="-4.6766700">
        <ele>1204.8</ele>
        <time>2019-08-13T18:17:01Z</time>
      </trkpt>
      <trkpt lat="40.5979440" lon="-4.6766820">
        <ele>1204.5</ele>
        <time>2019-08-13T18:17:02Z</time>
      </trkpt>
      <trkpt lat="40.5979770" lon="-4.6766940">
        <ele>1204.2</ele>
        <time>2019-08-13T18:17:03Z</time>
      </trkpt>
      <trkpt lat="40.5980120" lon="-4.6767080">
        <ele>1203.9</ele>
        <time>2019-08-13T18:17:04Z</time>
      </trkpt>
      <trkpt lat="40.5980480" lon="-4.6767240">
        <ele>1203.6</ele>
        <time>2019-08-13T18:17:05Z</time>
      </trkpt>
      <trkpt lat="40.5980860" lon="-4.6767400">
        <ele>1203.3</ele>
        <time>2019-08-13T18:17:06Z</time>
      </trkpt>
      <trkpt lat="40.5981240" lon="-4.6767580">
        <ele>1203.0</ele>
        <time>2019-08-13T18:17:07Z</time>
      </trkpt>
      <trkpt lat="40.5981630" lon="-4.6767770">
        <ele>1202.7</ele>
        <time>2019-08-13T18:17:08Z</time>
      </trkpt>
      <trkpt lat="40.5982020" lon="-4.6767950">
        <ele>1202.5</ele>
        <time>2019-08-13T18:17:09Z</time>
      </trkpt>
      <trkpt lat="40.5982400" lon="-4.6768110">
        <ele>1202.3</ele>
        <time>2019-08-13T18:17:10Z</time>
      </trkpt>
      <trkpt lat="40.5982790" lon="-4.6768270">
        <ele>1202.2</ele>
        <time>2019-08-13T18:17:11Z</time>
      </trkpt>
      <trkpt lat="40.5983190" lon="-4.6768450">
        <ele>1202.0</ele>
        <time>2019-08-13T18:17:12Z</time>
      </trkpt>
      <trkpt lat="40.5983600" lon="-4.6768630">
        <ele>1201.9</ele>
        <time>2019-08-13T18:17:13Z</time>
      </trkpt>
      <trkpt lat="40.5984010" lon="-4.6768810">
        <ele>1201.8</ele>
        <time>2019-08-13T18:17:14Z</time>
      </trkpt>
      <trkpt lat="40.5984440" lon="-4.6769000">
        <ele>1201.7</ele>
        <time>2019-08-13T18:17:15Z</time>
      </trkpt>
      <trkpt lat="40.5984880" lon="-4.6769190">
        <ele>1201.6</ele>
        <time>2019-08-13T18:17:16Z</time>
      </trkpt>
      <trkpt lat="40.5985330" lon="-4.6769380">
        <ele>1201.6</ele>
        <time>2019-08-13T18:17:17Z</time>
      </trkpt>
      <trkpt lat="40.5985790" lon="-4.6769570">
        <ele>1201.5</ele>
        <time>2019-08-13T18:17:18Z</time>
      </trkpt>
      <trkpt lat="40.5986250" lon="-4.6769780">
        <ele>1201.5</ele>
        <time>2019-08-13T18:17:19Z</time>
      </trkpt>
      <trkpt lat="40.5986700" lon="-4.6770000">
        <ele>1201.4</ele>
        <time>2019-08-13T18:17:20Z</time>
      </trkpt>
      <trkpt lat="40.5987160" lon="-4.6770190">
        <ele>1201.4</ele>
        <time>2019-08-13T18:17:21Z</time>
      </trkpt>
      <trkpt lat="40.5987600" lon="-4.6770360">
        <ele>1201.3</ele>
        <time>2019-08-13T18:17:22Z</time>
      </trkpt>
      <trkpt lat="40.5988030" lon="-4.6770540">
        <ele>1201.2</ele>
        <time>2019-08-13T18:17:23Z</time>
      </trkpt>
      <trkpt lat="40.5988430" lon="-4.6770720">
        <ele>1201.2</ele>
        <time>2019-08-13T18:17:24Z</time>
      </trkpt>
      <trkpt lat="40.5988840" lon="-4.6770900">
        <ele>1201.1</ele>
        <time>2019-08-13T18:17:25Z</time>
      </trkpt>
      <trkpt lat="40.5989270" lon="-4.6771070">
        <ele>1201.1</ele>
        <time>2019-08-13T18:17:26Z</time>
      </trkpt>
      <trkpt lat="40.5989710" lon="-4.6771240">
        <ele>1201.0</ele>
        <time>2019-08-13T18:17:27Z</time>
      </trkpt>
      <trkpt lat="40.5990160" lon="-4.6771410">
        <ele>1200.9</ele>
        <time>2019-08-13T18:17:28Z</time>
      </trkpt>
      <trkpt lat="40.5990600" lon="-4.6771600">
        <ele>1200.9</ele>
        <time>2019-08-13T18:17:29Z</time>
      </trkpt>
      <trkpt lat="40.5991050" lon="-4.6771780">
        <ele>1200.8</ele>
        <time>2019-08-13T18:17:30Z</time>
      </trkpt>
      <trkpt lat="40.5991490" lon="-4.6771970">
        <ele>1200.7</ele>
        <time>2019-08-13T18:17:31Z</time>
      </trkpt>
      <trkpt lat="40.5991940" lon="-4.6772190">
        <ele>1200.7</ele>
        <time>2019-08-13T18:17:32Z</time>
      </trkpt>
      <trkpt lat="40.5992390" lon="-4.6772390">
        <ele>1200.6</ele>
        <time>2019-08-13T18:17:33Z</time>
      </trkpt>
      <trkpt lat="40.5992830" lon="-4.6772590">
        <ele>1200.5</ele>
        <time>2019-08-13T18:17:34Z</time>
      </trkpt>
      <trkpt lat="40.5993260" lon="-4.6772800">
        <ele>1200.5</ele>
        <time>2019-08-13T18:17:35Z</time>
      </trkpt>
      <trkpt lat="40.5993690" lon="-4.6772990">
        <ele>1200.4</ele>
        <time>2019-08-13T18:17:36Z</time>
      </trkpt>
      <trkpt lat="40.5994120" lon="-4.6773170">
        <ele>1200.3</ele>
        <time>2019-08-13T18:17:37Z</time>
      </trkpt>
      <trkpt lat="40.5994550" lon="-4.6773360">
        <ele>1200.3</ele>
        <time>2019-08-13T18:17:38Z</time>
      </trkpt>
      <trkpt lat="40.5994970" lon="-4.6773540">
        <ele>1200.2</ele>
        <time>2019-08-13T18:17:39Z</time>
      </trkpt>
      <trkpt lat="40.5995400" lon="-4.6773730">
        <ele>1200.2</ele>
        <time>2019-08-13T18:17:40Z</time>
      </trkpt>
      <trkpt lat="40.5995820" lon="-4.6773910">
        <ele>1200.1</ele>
        <time>2019-08-13T18:17:41Z</time>
      </trkpt>
      <trkpt lat="40.5996250" lon="-4.6774080">
        <ele>1200.0</ele>
        <time>2019-08-13T18:17:42Z</time>
      </trkpt>
      <trkpt lat="40.5996680" lon="-4.6774250">
        <ele>1199.9</ele>
        <time>2019-08-13T18:17:43Z</time>
      </trkpt>
      <trkpt lat="40.5997100" lon="-4.6774400">
        <ele>1199.8</ele>
        <time>2019-08-13T18:17:44Z</time>
      </trkpt>
      <trkpt lat="40.5997530" lon="-4.6774550">
        <ele>1199.7</ele>
        <time>2019-08-13T18:17:45Z</time>
      </trkpt>
      <trkpt lat="40.5997940" lon="-4.6774700">
        <ele>1199.6</ele>
        <time>2019-08-13T18:17:46Z</time>
      </trkpt>
      <trkpt lat="40.5998330" lon="-4.6774850">
        <ele>1199.5</ele>
        <time>2019-08-13T18:17:47Z</time>
      </trkpt>
      <trkpt lat="40.5998730" lon="-4.6774980">
        <ele>1199.3</ele>
        <time>2019-08-13T18:17:48Z</time>
      </trkpt>
      <trkpt lat="40.5999130" lon="-4.6775140">
        <ele>1199.3</ele>
        <time>2019-08-13T18:17:49Z</time>
      </trkpt>
      <trkpt lat="40.5999540" lon="-4.6775290">
        <ele>1199.4</ele>
        <time>2019-08-13T18:17:50Z</time>
      </trkpt>
      <trkpt lat="40.5999940" lon="-4.6775410">
        <ele>1199.5</ele>
        <time>2019-08-13T18:17:51Z</time>
      </trkpt>
      <trkpt lat="40.6000360" lon="-4.6775520">
        <ele>1199.6</ele>
        <time>2019-08-13T18:17:52Z</time>
      </trkpt>
      <trkpt lat="40.6000750" lon="-4.6775660">
        <ele>1199.7</ele>
        <time>2019-08-13T18:17:53Z</time>
      </trkpt>
      <trkpt lat="40.6001140" lon="-4.6775800">
        <ele>1199.8</ele>
        <time>2019-08-13T18:17:54Z</time>
      </trkpt>
      <trkpt lat="40.6001540" lon="-4.6775900">
        <ele>1199.9</ele>
        <time>2019-08-13T18:17:55Z</time>
      </trkpt>
      <trkpt lat="40.6001950" lon="-4.6776000">
        <ele>1200.0</ele>
        <time>2019-08-13T18:17:56Z</time>
      </trkpt>
      <trkpt lat="40.6002360" lon="-4.6776100">
        <ele>1200.1</ele>
        <time>2019-08-13T18:17:57Z</time>
      </trkpt>
      <trkpt lat="40.6002770" lon="-4.6776190">
        <ele>1200.2</ele>
        <time>2019-08-13T18:17:58Z</time>
      </trkpt>
      <trkpt lat="40.6003170" lon="-4.6776270">
        <ele>1200.3</ele>
        <time>2019-08-13T18:17:59Z</time>
      </trkpt>
      <trkpt lat="40.6003570" lon="-4.6776340">
        <ele>1200.5</ele>
        <time>2019-08-13T18:18:00Z</time>
      </trkpt>
      <trkpt lat="40.6003960" lon="-4.6776420">
        <ele>1200.6</ele>
        <time>2019-08-13T18:18:01Z</time>
      </trkpt>
      <trkpt lat="40.6004360" lon="-4.6776500">
        <ele>1200.7</ele>
        <time>2019-08-13T18:18:02Z</time>
      </trkpt>
      <trkpt lat="40.6004750" lon="-4.6776570">
        <ele>1200.8</ele>
        <time>2019-08-13T18:18:03Z</time>
      </trkpt>
      <trkpt lat="40.6005130" lon="-4.6776640">
        <ele>1200.9</ele>
        <time>2019-08-13T18:18:04Z</time>
      </trkpt>
      <trkpt lat="40.6005520" lon="-4.6776710">
        <ele>1201.0</ele>
        <time>2019-08-13T18:18:05Z</time>
      </trkpt>
      <trkpt lat="40.6005890" lon="-4.6776790">
        <ele>1201.1</ele>
        <time>2019-08-13T18:18:06Z</time>
      </trkpt>
      <trkpt lat="40.6006260" lon="-4.6776890">
        <ele>1201.2</ele>
        <time>2019-08-13T18:18:07Z</time>
      </trkpt>
      <trkpt lat="40.6006630" lon="-4.6777000">
        <ele>1201.3</ele>
        <time>2019-08-13T18:18:08Z</time>
      </trkpt>
      <trkpt lat="40.6007000" lon="-4.6777090">
        <ele>1201.4</ele>
        <time>2019-08-13T18:18:09Z</time>
      </trkpt>
      <trkpt lat="40.6007360" lon="-4.6777150">
        <ele>1201.5</ele>
        <time>2019-08-13T18:18:10Z</time>
      </trkpt>
      <trkpt lat="40.6007710" lon="-4.6777220">
        <ele>1201.7</ele>
        <time>2019-08-13T18:18:11Z</time>
      </trkpt>
      <trkpt lat="40.6008090" lon="-4.6777270">
        <ele>1201.8</ele>
        <time>2019-08-13T18:18:12Z</time>
      </trkpt>
      <trkpt lat="40.6008440" lon="-4.6777340">
        <ele>1201.9</ele>
        <time>2019-08-13T18:18:13Z</time>
      </trkpt>
      <trkpt lat="40.6008790" lon="-4.6777380">
        <ele>1202.0</ele>
        <time>2019-08-13T18:18:14Z</time>
      </trkpt>
      <trkpt lat="40.6009160" lon="-4.6777420">
        <ele>1202.1</ele>
        <time>2019-08-13T18:18:15Z</time>
      </trkpt>
      <trkpt lat="40.6009510" lon="-4.6777490">
        <ele>1202.2</ele>
        <time>2019-08-13T18:18:16Z</time>
      </trkpt>
      <trkpt lat="40.6009860" lon="-4.6777560">
        <ele>1202.4</ele>
        <time>2019-08-13T18:18:17Z</time>
      </trkpt>
      <trkpt lat="40.6010210" lon="-4.6777630">
        <ele>1202.5</ele>
        <time>2019-08-13T18:18:18Z</time>
      </trkpt>
      <trkpt lat="40.6010540" lon="-4.6777680">
        <ele>1202.6</ele>
        <time>2019-08-13T18:18:19Z</time>
      </trkpt>
      <trkpt lat="40.6010880" lon="-4.6777740">
        <ele>1202.7</ele>
        <time>2019-08-13T18:18:20Z</time>
      </trkpt>
      <trkpt lat="40.6011220" lon="-4.6777810">
        <ele>1202.9</ele>
        <time>2019-08-13T18:18:21Z</time>
      </trkpt>
      <trkpt lat="40.6011550" lon="-4.6777870">
        <ele>1203.0</ele>
        <time>2019-08-13T18:18:22Z</time>
      </trkpt>
      <trkpt lat="40.6011860" lon="-4.6777920">
        <ele>1203.1</ele>
        <time>2019-08-13T18:18:23Z</time>
      </trkpt>
      <trkpt lat="40.6012180" lon="-4.6777960">
        <ele>1203.2</ele>
        <time>2019-08-13T18:18:24Z</time>
      </trkpt>
      <trkpt lat="40.6012490" lon="-4.6778030">
        <ele>1203.4</ele>
        <time>2019-08-13T18:18:25Z</time>
      </trkpt>
      <trkpt lat="40.6012780" lon="-4.6778100">
        <ele>1203.5</ele>
        <time>2019-08-13T18:18:26Z</time>
      </trkpt>
      <trkpt lat="40.6013070" lon="-4.6778160">
        <ele>1203.6</ele>
        <time>2019-08-13T18:18:27Z</time>
      </trkpt>
      <trkpt lat="40.6013340" lon="-4.6778200">
        <ele>1203.7</ele>
        <time>2019-08-13T18:18:28Z</time>
      </trkpt>
      <trkpt lat="40.6013620" lon="-4.6778240">
        <ele>1203.8</ele>
        <time>2019-08-13T18:18:29Z</time>
      </trkpt>
      <trkpt lat="40.6013890" lon="-4.6778290">
        <ele>1203.9</ele>
        <time>2019-08-13T18:18:30Z</time>
      </trkpt>
      <trkpt lat="40.6014160" lon="-4.6778340">
        <ele>1204.0</ele>
        <time>2019-08-13T18:18:31Z</time>
      </trkpt>
      <trkpt lat="40.6014430" lon="-4.6778390">
        <ele>1204.1</ele>
        <time>2019-08-13T18:18:32Z</time>
      </trkpt>
      <trkpt lat="40.6014700" lon="-4.6778440">
        <ele>1204.2</ele>
        <time>2019-08-13T18:18:33Z</time>
      </trkpt>
      <trkpt lat="40.6014980" lon="-4.6778500">
        <ele>1204.4</ele>
        <time>2019-08-13T18:18:34Z</time>
      </trkpt>
      <trkpt lat="40.6015250" lon="-4.6778560">
        <ele>1204.5</ele>
        <time>2019-08-13T18:18:35Z</time>
      </trkpt>
      <trkpt lat="40.6015540" lon="-4.6778620">
        <ele>1204.6</ele>
        <time>2019-08-13T18:18:36Z</time>
      </trkpt>
      <trkpt lat="40.6015820" lon="-4.6778670">
        <ele>1204.7</ele>
        <time>2019-08-13T18:18:37Z</time>
      </trkpt>
      <trkpt lat="40.6016110" lon="-4.6778710">
        <ele>1204.9</ele>
        <time>2019-08-13T18:18:38Z</time>
      </trkpt>
      <trkpt lat="40.6016400" lon="-4.6778750">
        <ele>1205.1</ele>
        <time>2019-08-13T18:18:39Z</time>
      </trkpt>
      <trkpt lat="40.6016690" lon="-4.6778800">
        <ele>1205.2</ele>
        <time>2019-08-13T18:18:40Z</time>
      </trkpt>
      <trkpt lat="40.6016980" lon="-4.6778840">
        <ele>1205.4</ele>
        <time>2019-08-13T18:18:41Z</time>
      </trkpt>
      <trkpt lat="40.6017270" lon="-4.6778900">
        <ele>1205.5</ele>
        <time>2019-08-13T18:18:42Z</time>
      </trkpt>
      <trkpt lat="40.6017550" lon="-4.6778950">
        <ele>1205.6</ele>
        <time>2019-08-13T18:18:43Z</time>
      </trkpt>
      <trkpt lat="40.6017830" lon="-4.6779000">
        <ele>1205.8</ele>
        <time>2019-08-13T18:18:44Z</time>
      </trkpt>
      <trkpt lat="40.6018100" lon="-4.6779050">
        <ele>1205.9</ele>
        <time>2019-08-13T18:18:45Z</time>
      </trkpt>
      <trkpt lat="40.6018580" lon="-4.6779150">
        <ele>1206.1</ele>
        <time>2019-08-13T18:18:47Z</time>
      </trkpt>
      <trkpt lat="40.6019110" lon="-4.6779250">
        <ele>1206.4</ele>
        <time>2019-08-13T18:18:49Z</time>
      </trkpt>
      <trkpt lat="40.6019400" lon="-4.6779300">
        <ele>1206.5</ele>
        <time>2019-08-13T18:18:50Z</time>
      </trkpt>
      <trkpt lat="40.6019690" lon="-4.6779350">
        <ele>1206.7</ele>
        <time>2019-08-13T18:18:51Z</time>
      </trkpt>
      <trkpt lat="40.6019990" lon="-4.6779410">
        <ele>1206.8</ele>
        <time>2019-08-13T18:18:52Z</time>
      </trkpt>
      <trkpt lat="40.6020280" lon="-4.6779460">
        <ele>1207.0</ele>
        <time>2019-08-13T18:18:53Z</time>
      </trkpt>
      <trkpt lat="40.6020580" lon="-4.6779510">
        <ele>1207.1</ele>
        <time>2019-08-13T18:18:54Z</time>
      </trkpt>
      <trkpt lat="40.6020880" lon="-4.6779570">
        <ele>1207.3</ele>
        <time>2019-08-13T18:18:55Z</time>
      </trkpt>
      <trkpt lat="40.6021180" lon="-4.6779630">
        <ele>1207.4</ele>
        <time>2019-08-13T18:18:56Z</time>
      </trkpt>
      <trkpt lat="40.6021480" lon="-4.6779680">
        <ele>1207.6</ele>
        <time>2019-08-13T18:18:57Z</time>
      </trkpt>
      <trkpt lat="40.6021770" lon="-4.6779730">
        <ele>1207.8</ele>
        <time>2019-08-13T18:18:58Z</time>
      </trkpt>
      <trkpt lat="40.6022280" lon="-4.6779830">
        <ele>1208.1</ele>
        <time>2019-08-13T18:19:00Z</time>
      </trkpt>
      <trkpt lat="40.6022760" lon="-4.6779940">
        <ele>1208.3</ele>
        <time>2019-08-13T18:19:02Z</time>
      </trkpt>
      <trkpt lat="40.6023270" lon="-4.6780050">
        <ele>1208.5</ele>
        <time>2019-08-13T18:19:04Z</time>
      </trkpt>
      <trkpt lat="40.6023760" lon="-4.6780120">
        <ele>1208.7</ele>
        <time>2019-08-13T18:19:06Z</time>
      </trkpt>
      <trkpt lat="40.6024230" lon="-4.6780190">
        <ele>1208.9</ele>
        <time>2019-08-13T18:19:08Z</time>
      </trkpt>
      <trkpt lat="40.6024690" lon="-4.6780310">
        <ele>1209.0</ele>
        <time>2019-08-13T18:19:10Z</time>
      </trkpt>
      <trkpt lat="40.6025190" lon="-4.6780400">
        <ele>1209.2</ele>
        <time>2019-08-13T18:19:12Z</time>
      </trkpt>
      <trkpt lat="40.6025680" lon="-4.6780480">
        <ele>1209.3</ele>
        <time>2019-08-13T18:19:14Z</time>
      </trkpt>
      <trkpt lat="40.6026170" lon="-4.6780550">
        <ele>1209.4</ele>
        <time>2019-08-13T18:19:16Z</time>
      </trkpt>
      <trkpt lat="40.6026660" lon="-4.6780640">
        <ele>1209.6</ele>
        <time>2019-08-13T18:19:18Z</time>
      </trkpt>
      <trkpt lat="40.6027160" lon="-4.6780740">
        <ele>1209.8</ele>
        <time>2019-08-13T18:19:20Z</time>
      </trkpt>
      <trkpt lat="40.6027670" lon="-4.6780830">
        <ele>1209.9</ele>
        <time>2019-08-13T18:19:22Z</time>
      </trkpt>
      <trkpt lat="40.6028180" lon="-4.6780930">
        <ele>1210.1</ele>
        <time>2019-08-13T18:19:24Z</time>
      </trkpt>
      <trkpt lat="40.6028680" lon="-4.6781040">
        <ele>1210.2</ele>
        <time>2019-08-13T18:19:26Z</time>
      </trkpt>
      <trkpt lat="40.6029110" lon="-4.6781120">
        <ele>1210.3</ele>
        <time>2019-08-13T18:19:28Z</time>
      </trkpt>
      <trkpt lat="40.6029530" lon="-4.6781180">
        <ele>1210.4</ele>
        <time>2019-08-13T18:19:30Z</time>
      </trkpt>
      <trkpt lat="40.6030020" lon="-4.6781270">
        <ele>1210.5</ele>
        <time>2019-08-13T18:19:32Z</time>
      </trkpt>
      <trkpt lat="40.6030550" lon="-4.6781390">
        <ele>1210.7</ele>
        <time>2019-08-13T18:19:34Z</time>
      </trkpt>
      <trkpt lat="40.6031070" lon="-4.6781470">
        <ele>1210.9</ele>
        <time>2019-08-13T18:19:36Z</time>
      </trkpt>
      <trkpt lat="40.6031550" lon="-4.6781570">
        <ele>1211.1</ele>
        <time>2019-08-13T18:19:38Z</time>
      </trkpt>
      <trkpt lat="40.6032030" lon="-4.6781650">
        <ele>1211.3</ele>
        <time>2019-08-13T18:19:40Z</time>
      </trkpt>
      <trkpt lat="40.6032530" lon="-4.6781740">
        <ele>1211.6</ele>
        <time>2019-08-13T18:19:42Z</time>
      </trkpt>
      <trkpt lat="40.6033040" lon="-4.6781840">
        <ele>1211.9</ele>
        <time>2019-08-13T18:19:44Z</time>
      </trkpt>
      <trkpt lat="40.6033560" lon="-4.6781930">
        <ele>1212.2</ele>
        <time>2019-08-13T18:19:46Z</time>
      </trkpt>
      <trkpt lat="40.6034090" lon="-4.6782040">
        <ele>1212.5</ele>
        <time>2019-08-13T18:19:48Z</time>
      </trkpt>
      <trkpt lat="40.6034360" lon="-4.6782100">
        <ele>1212.7</ele>
        <time>2019-08-13T18:19:49Z</time>
      </trkpt>
      <trkpt lat="40.6034630" lon="-4.6782160">
        <ele>1212.8</ele>
        <time>2019-08-13T18:19:50Z</time>
      </trkpt>
      <trkpt lat="40.6034900" lon="-4.6782220">
        <ele>1213.0</ele>
        <time>2019-08-13T18:19:51Z</time>
      </trkpt>
      <trkpt lat="40.6035170" lon="-4.6782270">
        <ele>1213.1</ele>
        <time>2019-08-13T18:19:52Z</time>
      </trkpt>
      <trkpt lat="40.6035440" lon="-4.6782330">
        <ele>1213.2</ele>
        <time>2019-08-13T18:19:53Z</time>
      </trkpt>
      <trkpt lat="40.6035700" lon="-4.6782400">
        <ele>1213.3</ele>
        <time>2019-08-13T18:19:54Z</time>
      </trkpt>
      <trkpt lat="40.6035970" lon="-4.6782480">
        <ele>1213.4</ele>
        <time>2019-08-13T18:19:55Z</time>
      </trkpt>
      <trkpt lat="40.6036240" lon="-4.6782550">
        <ele>1213.5</ele>
        <time>2019-08-13T18:19:56Z</time>
      </trkpt>
      <trkpt lat="40.6036510" lon="-4.6782630">
        <ele>1213.6</ele>
        <time>2019-08-13T18:19:57Z</time>
      </trkpt>
      <trkpt lat="40.6036780" lon="-4.6782700">
        <ele>1213.6</ele>
        <time>2019-08-13T18:19:58Z</time>
      </trkpt>
      <trkpt lat="40.6037060" lon="-4.6782770">
        <ele>1213.7</ele>
        <time>2019-08-13T18:19:59Z</time>
      </trkpt>
      <trkpt lat="40.6037330" lon="-4.6782850">
        <ele>1213.8</ele>
        <time>2019-08-13T18:20:00Z</time>
      </trkpt>
      <trkpt lat="40.6037600" lon="-4.6782920">
        <ele>1213.8</ele>
        <time>2019-08-13T18:20:01Z</time>
      </trkpt>
      <trkpt lat="40.6037880" lon="-4.6782990">
        <ele>1213.9</ele>
        <time>2019-08-13T18:20:02Z</time>
      </trkpt>
      <trkpt lat="40.6038160" lon="-4.6783060">
        <ele>1213.9</ele>
        <time>2019-08-13T18:20:03Z</time>
      </trkpt>
      <trkpt lat="40.6038440" lon="-4.6783140">
        <ele>1213.9</ele>
        <time>2019-08-13T18:20:04Z</time>
      </trkpt>
      <trkpt lat="40.6038730" lon="-4.6783230">
        <ele>1214.0</ele>
        <time>2019-08-13T18:20:05Z</time>
      </trkpt>
      <trkpt lat="40.6039010" lon="-4.6783320">
        <ele>1214.0</ele>
        <time>2019-08-13T18:20:06Z</time>
      </trkpt>
      <trkpt lat="40.6039300" lon="-4.6783410">
        <ele>1214.0</ele>
        <time>2019-08-13T18:20:07Z</time>
      </trkpt>
      <trkpt lat="40.6039590" lon="-4.6783510">
        <ele>1214.1</ele>
        <time>2019-08-13T18:20:08Z</time>
      </trkpt>
      <trkpt lat="40.6039870" lon="-4.6783610">
        <ele>1214.1</ele>
        <time>2019-08-13T18:20:09Z</time>
      </trkpt>
      <trkpt lat="40.6040160" lon="-4.6783730">
        <ele>1214.1</ele>
        <time>2019-08-13T18:20:10Z</time>
      </trkpt>
      <trkpt lat="40.6040450" lon="-4.6783840">
        <ele>1214.2</ele>
        <time>2019-08-13T18:20:11Z</time>
      </trkpt>
      <trkpt lat="40.6040750" lon="-4.6783940">
        <ele>1214.2</ele>
        <time>2019-08-13T18:20:12Z</time>
      </trkpt>
      <trkpt lat="40.6041050" lon="-4.6784030">
        <ele>1214.2</ele>
        <time>2019-08-13T18:20:13Z</time>
      </trkpt>
      <trkpt lat="40.6041350" lon="-4.6784140">
        <ele>1214.3</ele>
        <time>2019-08-13T18:20:14Z</time>
      </trkpt>
      <trkpt lat="40.6041650" lon="-4.6784260">
        <ele>1214.3</ele>
        <time>2019-08-13T18:20:15Z</time>
      </trkpt>
      <trkpt lat="40.6041950" lon="-4.6784380">
        <ele>1214.3</ele>
        <time>2019-08-13T18:20:16Z</time>
      </trkpt>
      <trkpt lat="40.6042260" lon="-4.6784490">
        <ele>1214.4</ele>
        <time>2019-08-13T18:20:17Z</time>
      </trkpt>
      <trkpt lat="40.6042560" lon="-4.6784620">
        <ele>1214.4</ele>
        <time>2019-08-13T18:20:18Z</time>
      </trkpt>
      <trkpt lat="40.6042870" lon="-4.6784750">
        <ele>1214.4</ele>
        <time>2019-08-13T18:20:19Z</time>
      </trkpt>
      <trkpt lat="40.6043180" lon="-4.6784880">
        <ele>1214.4</ele>
        <time>2019-08-13T18:20:20Z</time>
      </trkpt>
      <trkpt lat="40.6043480" lon="-4.6785010">
        <ele>1214.5</ele>
        <time>2019-08-13T18:20:21Z</time>
      </trkpt>
      <trkpt lat="40.6043750" lon="-4.6785130">
        <ele>1214.5</ele>
        <time>2019-08-13T18:20:22Z</time>
      </trkpt>
      <trkpt lat="40.6044020" lon="-4.6785260">
        <ele>1214.5</ele>
        <time>2019-08-13T18:20:23Z</time>
      </trkpt>
      <trkpt lat="40.6044280" lon="-4.6785390">
        <ele>1214.5</ele>
        <time>2019-08-13T18:20:24Z</time>
      </trkpt>
      <trkpt lat="40.6044550" lon="-4.6785510">
        <ele>1214.5</ele>
        <time>2019-08-13T18:20:25Z</time>
      </trkpt>
      <trkpt lat="40.6045050" lon="-4.6785740">
        <ele>1214.5</ele>
        <time>2019-08-13T18:20:27Z</time>
      </trkpt>
      <trkpt lat="40.6045320" lon="-4.6785850">
        <ele>1214.6</ele>
        <time>2019-08-13T18:20:28Z</time>
      </trkpt>
      <trkpt lat="40.6045590" lon="-4.6785980">
        <ele>1214.6</ele>
        <time>2019-08-13T18:20:29Z</time>
      </trkpt>
      <trkpt lat="40.6045860" lon="-4.6786120">
        <ele>1214.6</ele>
        <time>2019-08-13T18:20:30Z</time>
      </trkpt>
      <trkpt lat="40.6046130" lon="-4.6786270">
        <ele>1214.6</ele>
        <time>2019-08-13T18:20:31Z</time>
      </trkpt>
      <trkpt lat="40.6046420" lon="-4.6786400">
        <ele>1214.6</ele>
        <time>2019-08-13T18:20:32Z</time>
      </trkpt>
      <trkpt lat="40.6046710" lon="-4.6786530">
        <ele>1214.6</ele>
        <time>2019-08-13T18:20:33Z</time>
      </trkpt>
      <trkpt lat="40.6047000" lon="-4.6786670">
        <ele>1214.6</ele>
        <time>2019-08-13T18:20:34Z</time>
      </trkpt>
      <trkpt lat="40.6047290" lon="-4.6786820">
        <ele>1214.6</ele>
        <time>2019-08-13T18:20:35Z</time>
      </trkpt>
      <trkpt lat="40.6047590" lon="-4.6786960">
        <ele>1214.6</ele>
        <time>2019-08-13T18:20:36Z</time>
      </trkpt>
      <trkpt lat="40.6047890" lon="-4.6787110">
        <ele>1214.7</ele>
        <time>2019-08-13T18:20:37Z</time>
      </trkpt>
      <trkpt lat="40.6048190" lon="-4.6787270">
        <ele>1214.7</ele>
        <time>2019-08-13T18:20:38Z</time>
      </trkpt>
      <trkpt lat="40.6048490" lon="-4.6787430">
        <ele>1214.7</ele>
        <time>2019-08-13T18:20:39Z</time>
      </trkpt>
      <trkpt lat="40.6048790" lon="-4.6787590">
        <ele>1214.7</ele>
        <time>2019-08-13T18:20:40Z</time>
      </trkpt>
      <trkpt lat="40.6049100" lon="-4.6787750">
        <ele>1214.7</ele>
        <time>2019-08-13T18:20:41Z</time>
      </trkpt>
      <trkpt lat="40.6049410" lon="-4.6787900">
        <ele>1214.7</ele>
        <time>2019-08-13T18:20:42Z</time>
      </trkpt>
      <trkpt lat="40.6049720" lon="-4.6788050">
        <ele>1214.7</ele>
        <time>2019-08-13T18:20:43Z</time>
      </trkpt>
      <trkpt lat="40.6050040" lon="-4.6788220">
        <ele>1214.8</ele>
        <time>2019-08-13T18:20:44Z</time>
      </trkpt>
      <trkpt lat="40.6050350" lon="-4.6788380">
        <ele>1214.8</ele>
        <time>2019-08-13T18:20:45Z</time>
      </trkpt>
      <trkpt lat="40.6050680" lon="-4.6788550">
        <ele>1214.8</ele>
        <time>2019-08-13T18:20:46Z</time>
      </trkpt>
      <trkpt lat="40.6051000" lon="-4.6788720">
        <ele>1214.9</ele>
        <time>2019-08-13T18:20:47Z</time>
      </trkpt>
      <trkpt lat="40.6051330" lon="-4.6788890">
        <ele>1214.9</ele>
        <time>2019-08-13T18:20:48Z</time>
      </trkpt>
      <trkpt lat="40.6051660" lon="-4.6789060">
        <ele>1215.0</ele>
        <time>2019-08-13T18:20:49Z</time>
      </trkpt>
      <trkpt lat="40.6051990" lon="-4.6789240">
        <ele>1215.0</ele>
        <time>2019-08-13T18:20:50Z</time>
      </trkpt>
      <trkpt lat="40.6052320" lon="-4.6789420">
        <ele>1215.1</ele>
        <time>2019-08-13T18:20:51Z</time>
      </trkpt>
      <trkpt lat="40.6052660" lon="-4.6789590">
        <ele>1215.1</ele>
        <time>2019-08-13T18:20:52Z</time>
      </trkpt>
      <trkpt lat="40.6052990" lon="-4.6789740">
        <ele>1215.2</ele>
        <time>2019-08-13T18:20:53Z</time>
      </trkpt>
      <trkpt lat="40.6053330" lon="-4.6789910">
        <ele>1215.2</ele>
        <time>2019-08-13T18:20:54Z</time>
      </trkpt>
      <trkpt lat="40.6053650" lon="-4.6790080">
        <ele>1215.3</ele>
        <time>2019-08-13T18:20:55Z</time>
      </trkpt>
      <trkpt lat="40.6053960" lon="-4.6790240">
        <ele>1215.3</ele>
        <time>2019-08-13T18:20:56Z</time>
      </trkpt>
      <trkpt lat="40.6054280" lon="-4.6790400">
        <ele>1215.3</ele>
        <time>2019-08-13T18:20:57Z</time>
      </trkpt>
      <trkpt lat="40.6054610" lon="-4.6790560">
        <ele>1215.3</ele>
        <time>2019-08-13T18:20:58Z</time>
      </trkpt>
      <trkpt lat="40.6054940" lon="-4.6790720">
        <ele>1215.4</ele>
        <time>2019-08-13T18:20:59Z</time>
      </trkpt>
      <trkpt lat="40.6055280" lon="-4.6790890">
        <ele>1215.4</ele>
        <time>2019-08-13T18:21:00Z</time>
      </trkpt>
      <trkpt lat="40.6055620" lon="-4.6791070">
        <ele>1215.4</ele>
        <time>2019-08-13T18:21:01Z</time>
      </trkpt>
      <trkpt lat="40.6055970" lon="-4.6791260">
        <ele>1215.5</ele>
        <time>2019-08-13T18:21:02Z</time>
      </trkpt>
      <trkpt lat="40.6056320" lon="-4.6791440">
        <ele>1215.5</ele>
        <time>2019-08-13T18:21:03Z</time>
      </trkpt>
      <trkpt lat="40.6056660" lon="-4.6791620">
        <ele>1215.5</ele>
        <time>2019-08-13T18:21:04Z</time>
      </trkpt>
      <trkpt lat="40.6057010" lon="-4.6791790">
        <ele>1215.6</ele>
        <time>2019-08-13T18:21:05Z</time>
      </trkpt>
      <trkpt lat="40.6057360" lon="-4.6791980">
        <ele>1215.6</ele>
        <time>2019-08-13T18:21:06Z</time>
      </trkpt>
      <trkpt lat="40.6057720" lon="-4.6792160">
        <ele>1215.7</ele>
        <time>2019-08-13T18:21:07Z</time>
      </trkpt>
      <trkpt lat="40.6058070" lon="-4.6792350">
        <ele>1215.7</ele>
        <time>2019-08-13T18:21:08Z</time>
      </trkpt>
      <trkpt lat="40.6058420" lon="-4.6792530">
        <ele>1215.7</ele>
        <time>2019-08-13T18:21:09Z</time>
      </trkpt>
      <trkpt lat="40.6058780" lon="-4.6792720">
        <ele>1215.8</ele>
        <time>2019-08-13T18:21:10Z</time>
      </trkpt>
      <trkpt lat="40.6059130" lon="-4.6792900">
        <ele>1215.8</ele>
        <time>2019-08-13T18:21:11Z</time>
      </trkpt>
      <trkpt lat="40.6059480" lon="-4.6793090">
        <ele>1215.9</ele>
        <time>2019-08-13T18:21:12Z</time>
      </trkpt>
      <trkpt lat="40.6059810" lon="-4.6793260">
        <ele>1215.9</ele>
        <time>2019-08-13T18:21:13Z</time>
      </trkpt>
      <trkpt lat="40.6060140" lon="-4.6793430">
        <ele>1215.9</ele>
        <time>2019-08-13T18:21:14Z</time>
      </trkpt>
      <trkpt lat="40.6060470" lon="-4.6793590">
        <ele>1216.0</ele>
        <time>2019-08-13T18:21:15Z</time>
      </trkpt>
      <trkpt lat="40.6060800" lon="-4.6793770">
        <ele>1216.0</ele>
        <time>2019-08-13T18:21:16Z</time>
      </trkpt>
      <trkpt lat="40.6061110" lon="-4.6793930">
        <ele>1216.1</ele>
        <time>2019-08-13T18:21:17Z</time>
      </trkpt>
      <trkpt lat="40.6061440" lon="-4.6794090">
        <ele>1216.1</ele>
        <time>2019-08-13T18:21:18Z</time>
      </trkpt>
      <trkpt lat="40.6061760" lon="-4.6794230">
        <ele>1216.1</ele>
        <time>2019-08-13T18:21:19Z</time>
      </trkpt>
      <trkpt lat="40.6062080" lon="-4.6794390">
        <ele>1216.2</ele>
        <time>2019-08-13T18:21:20Z</time>
      </trkpt>
      <trkpt lat="40.6062400" lon="-4.6794550">
        <ele>1216.2</ele>
        <time>2019-08-13T18:21:21Z</time>
      </trkpt>
      <trkpt lat="40.6062720" lon="-4.6794700">
        <ele>1216.2</ele>
        <time>2019-08-13T18:21:22Z</time>
      </trkpt>
      <trkpt lat="40.6063040" lon="-4.6794860">
        <ele>1216.2</ele>
        <time>2019-08-13T18:21:23Z</time>
      </trkpt>
      <trkpt lat="40.6063360" lon="-4.6795000">
        <ele>1216.3</ele>
        <time>2019-08-13T18:21:24Z</time>
      </trkpt>
      <trkpt lat="40.6063690" lon="-4.6795130">
        <ele>1216.3</ele>
        <time>2019-08-13T18:21:25Z</time>
      </trkpt>
      <trkpt lat="40.6064030" lon="-4.6795260">
        <ele>1216.3</ele>
        <time>2019-08-13T18:21:26Z</time>
      </trkpt>
      <trkpt lat="40.6064360" lon="-4.6795380">
        <ele>1216.3</ele>
        <time>2019-08-13T18:21:27Z</time>
      </trkpt>
      <trkpt lat="40.6064660" lon="-4.6795490">
        <ele>1216.3</ele>
        <time>2019-08-13T18:21:28Z</time>
      </trkpt>
      <trkpt lat="40.6064950" lon="-4.6795610">
        <ele>1216.4</ele>
        <time>2019-08-13T18:21:29Z</time>
      </trkpt>
      <trkpt lat="40.6065260" lon="-4.6795730">
        <ele>1216.4</ele>
        <time>2019-08-13T18:21:30Z</time>
      </trkpt>
      <trkpt lat="40.6065590" lon="-4.6795860">
        <ele>1216.4</ele>
        <time>2019-08-13T18:21:31Z</time>
      </trkpt>
      <trkpt lat="40.6065930" lon="-4.6795970">
        <ele>1216.4</ele>
        <time>2019-08-13T18:21:32Z</time>
      </trkpt>
      <trkpt lat="40.6066260" lon="-4.6796090">
        <ele>1216.4</ele>
        <time>2019-08-13T18:21:33Z</time>
      </trkpt>
      <trkpt lat="40.6066600" lon="-4.6796200">
        <ele>1216.4</ele>
        <time>2019-08-13T18:21:34Z</time>
      </trkpt>
      <trkpt lat="40.6066930" lon="-4.6796300">
        <ele>1216.4</ele>
        <time>2019-08-13T18:21:35Z</time>
      </trkpt>
      <trkpt lat="40.6067260" lon="-4.6796390">
        <ele>1216.4</ele>
        <time>2019-08-13T18:21:36Z</time>
      </trkpt>
      <trkpt lat="40.6067580" lon="-4.6796480">
        <ele>1216.4</ele>
        <time>2019-08-13T18:21:37Z</time>
      </trkpt>
      <trkpt lat="40.6067900" lon="-4.6796550">
        <ele>1216.4</ele>
        <time>2019-08-13T18:21:38Z</time>
      </trkpt>
      <trkpt lat="40.6068220" lon="-4.6796630">
        <ele>1216.4</ele>
        <time>2019-08-13T18:21:39Z</time>
      </trkpt>
      <trkpt lat="40.6068550" lon="-4.6796700">
        <ele>1216.4</ele>
        <time>2019-08-13T18:21:40Z</time>
      </trkpt>
      <trkpt lat="40.6068880" lon="-4.6796780">
        <ele>1216.4</ele>
        <time>2019-08-13T18:21:41Z</time>
      </trkpt>
      <trkpt lat="40.6069210" lon="-4.6796850">
        <ele>1216.4</ele>
        <time>2019-08-13T18:21:42Z</time>
      </trkpt>
      <trkpt lat="40.6069550" lon="-4.6796920">
        <ele>1216.3</ele>
        <time>2019-08-13T18:21:43Z</time>
      </trkpt>
      <trkpt lat="40.6069900" lon="-4.6796980">
        <ele>1216.3</ele>
        <time>2019-08-13T18:21:44Z</time>
      </trkpt>
      <trkpt lat="40.6070240" lon="-4.6797060">
        <ele>1216.3</ele>
        <time>2019-08-13T18:21:45Z</time>
      </trkpt>
      <trkpt lat="40.6070590" lon="-4.6797130">
        <ele>1216.3</ele>
        <time>2019-08-13T18:21:46Z</time>
      </trkpt>
      <trkpt lat="40.6070940" lon="-4.6797210">
        <ele>1216.3</ele>
        <time>2019-08-13T18:21:47Z</time>
      </trkpt>
      <trkpt lat="40.6071290" lon="-4.6797290">
        <ele>1216.2</ele>
        <time>2019-08-13T18:21:48Z</time>
      </trkpt>
      <trkpt lat="40.6071640" lon="-4.6797360">
        <ele>1216.2</ele>
        <time>2019-08-13T18:21:49Z</time>
      </trkpt>
      <trkpt lat="40.6072000" lon="-4.6797440">
        <ele>1216.2</ele>
        <time>2019-08-13T18:21:50Z</time>
      </trkpt>
      <trkpt lat="40.6072350" lon="-4.6797520">
        <ele>1216.2</ele>
        <time>2019-08-13T18:21:51Z</time>
      </trkpt>
      <trkpt lat="40.6072700" lon="-4.6797600">
        <ele>1216.1</ele>
        <time>2019-08-13T18:21:52Z</time>
      </trkpt>
      <trkpt lat="40.6073060" lon="-4.6797670">
        <ele>1216.1</ele>
        <time>2019-08-13T18:21:53Z</time>
      </trkpt>
      <trkpt lat="40.6073420" lon="-4.6797750">
        <ele>1216.1</ele>
        <time>2019-08-13T18:21:54Z</time>
      </trkpt>
      <trkpt lat="40.6073780" lon="-4.6797820">
        <ele>1216.0</ele>
        <time>2019-08-13T18:21:55Z</time>
      </trkpt>
      <trkpt lat="40.6074140" lon="-4.6797900">
        <ele>1216.0</ele>
        <time>2019-08-13T18:21:56Z</time>
      </trkpt>
      <trkpt lat="40.6074510" lon="-4.6797980">
        <ele>1216.0</ele>
        <time>2019-08-13T18:21:57Z</time>
      </trkpt>
      <trkpt lat="40.6074880" lon="-4.6798070">
        <ele>1215.9</ele>
        <time>2019-08-13T18:21:58Z</time>
      </trkpt>
      <trkpt lat="40.6075270" lon="-4.6798150">
        <ele>1215.9</ele>
        <time>2019-08-13T18:21:59Z</time>
      </trkpt>
      <trkpt lat="40.6075660" lon="-4.6798240">
        <ele>1215.9</ele>
        <time>2019-08-13T18:22:00Z</time>
      </trkpt>
      <trkpt lat="40.6076010" lon="-4.6798330">
        <ele>1215.8</ele>
        <time>2019-08-13T18:22:01Z</time>
      </trkpt>
      <trkpt lat="40.6076350" lon="-4.6798410">
        <ele>1215.8</ele>
        <time>2019-08-13T18:22:02Z</time>
      </trkpt>
      <trkpt lat="40.6076690" lon="-4.6798500">
        <ele>1215.7</ele>
        <time>2019-08-13T18:22:03Z</time>
      </trkpt>
      <trkpt lat="40.6077040" lon="-4.6798590">
        <ele>1215.7</ele>
        <time>2019-08-13T18:22:04Z</time>
      </trkpt>
      <trkpt lat="40.6077410" lon="-4.6798700">
        <ele>1215.6</ele>
        <time>2019-08-13T18:22:05Z</time>
      </trkpt>
      <trkpt lat="40.6077790" lon="-4.6798800">
        <ele>1215.6</ele>
        <time>2019-08-13T18:22:06Z</time>
      </trkpt>
      <trkpt lat="40.6078170" lon="-4.6798910">
        <ele>1215.5</ele>
        <time>2019-08-13T18:22:07Z</time>
      </trkpt>
      <trkpt lat="40.6078550" lon="-4.6799030">
        <ele>1215.5</ele>
        <time>2019-08-13T18:22:08Z</time>
      </trkpt>
      <trkpt lat="40.6078930" lon="-4.6799150">
        <ele>1215.4</ele>
        <time>2019-08-13T18:22:09Z</time>
      </trkpt>
      <trkpt lat="40.6079320" lon="-4.6799290">
        <ele>1215.4</ele>
        <time>2019-08-13T18:22:10Z</time>
      </trkpt>
      <trkpt lat="40.6079710" lon="-4.6799440">
        <ele>1215.3</ele>
        <time>2019-08-13T18:22:11Z</time>
      </trkpt>
      <trkpt lat="40.6080110" lon="-4.6799590">
        <ele>1215.3</ele>
        <time>2019-08-13T18:22:12Z</time>
      </trkpt>
      <trkpt lat="40.6080510" lon="-4.6799750">
        <ele>1215.2</ele>
        <time>2019-08-13T18:22:13Z</time>
      </trkpt>
      <trkpt lat="40.6080920" lon="-4.6799920">
        <ele>1215.2</ele>
        <time>2019-08-13T18:22:14Z</time>
      </trkpt>
      <trkpt lat="40.6081330" lon="-4.6800100">
        <ele>1215.1</ele>
        <time>2019-08-13T18:22:15Z</time>
      </trkpt>
      <trkpt lat="40.6081740" lon="-4.6800290">
        <ele>1215.1</ele>
        <time>2019-08-13T18:22:16Z</time>
      </trkpt>
      <trkpt lat="40.6082130" lon="-4.6800490">
        <ele>1215.1</ele>
        <time>2019-08-13T18:22:17Z</time>
      </trkpt>
      <trkpt lat="40.6082540" lon="-4.6800680">
        <ele>1215.0</ele>
        <time>2019-08-13T18:22:18Z</time>
      </trkpt>
      <trkpt lat="40.6082960" lon="-4.6800860">
        <ele>1215.0</ele>
        <time>2019-08-13T18:22:19Z</time>
      </trkpt>
      <trkpt lat="40.6083390" lon="-4.6801060">
        <ele>1215.0</ele>
        <time>2019-08-13T18:22:20Z</time>
      </trkpt>
      <trkpt lat="40.6083830" lon="-4.6801280">
        <ele>1214.9</ele>
        <time>2019-08-13T18:22:21Z</time>
      </trkpt>
      <trkpt lat="40.6084260" lon="-4.6801500">
        <ele>1214.9</ele>
        <time>2019-08-13T18:22:22Z</time>
      </trkpt>
      <trkpt lat="40.6084690" lon="-4.6801720">
        <ele>1214.9</ele>
        <time>2019-08-13T18:22:23Z</time>
      </trkpt>
      <trkpt lat="40.6085080" lon="-4.6801930">
        <ele>1214.9</ele>
        <time>2019-08-13T18:22:24Z</time>
      </trkpt>
      <trkpt lat="40.6085460" lon="-4.6802150">
        <ele>1214.9</ele>
        <time>2019-08-13T18:22:25Z</time>
      </trkpt>
      <trkpt lat="40.6085860" lon="-4.6802380">
        <ele>1214.8</ele>
        <time>2019-08-13T18:22:26Z</time>
      </trkpt>
      <trkpt lat="40.6086260" lon="-4.6802620">
        <ele>1214.8</ele>
        <time>2019-08-13T18:22:27Z</time>
      </trkpt>
      <trkpt lat="40.6086680" lon="-4.6802870">
        <ele>1214.8</ele>
        <time>2019-08-13T18:22:28Z</time>
      </trkpt>
      <trkpt lat="40.6087110" lon="-4.6803110">
        <ele>1214.8</ele>
        <time>2019-08-13T18:22:29Z</time>
      </trkpt>
      <trkpt lat="40.6087550" lon="-4.6803360">
        <ele>1214.9</ele>
        <time>2019-08-13T18:22:30Z</time>
      </trkpt>
      <trkpt lat="40.6088000" lon="-4.6803600">
        <ele>1214.9</ele>
        <time>2019-08-13T18:22:31Z</time>
      </trkpt>
      <trkpt lat="40.6088420" lon="-4.6803870">
        <ele>1214.9</ele>
        <time>2019-08-13T18:22:32Z</time>
      </trkpt>
      <trkpt lat="40.6088860" lon="-4.6804120">
        <ele>1215.0</ele>
        <time>2019-08-13T18:22:33Z</time>
      </trkpt>
      <trkpt lat="40.6089310" lon="-4.6804380">
        <ele>1215.0</ele>
        <time>2019-08-13T18:22:34Z</time>
      </trkpt>
      <trkpt lat="40.6089750" lon="-4.6804640">
        <ele>1215.1</ele>
        <time>2019-08-13T18:22:35Z</time>
      </trkpt>
      <trkpt lat="40.6090200" lon="-4.6804880">
        <ele>1215.2</ele>
        <time>2019-08-13T18:22:36Z</time>
      </trkpt>
      <trkpt lat="40.6090640" lon="-4.6805140">
        <ele>1215.2</ele>
        <time>2019-08-13T18:22:37Z</time>
      </trkpt>
      <trkpt lat="40.6091090" lon="-4.6805410">
        <ele>1215.3</ele>
        <time>2019-08-13T18:22:38Z</time>
      </trkpt>
      <trkpt lat="40.6091530" lon="-4.6805660">
        <ele>1215.3</ele>
        <time>2019-08-13T18:22:39Z</time>
      </trkpt>
      <trkpt lat="40.6091970" lon="-4.6805930">
        <ele>1215.4</ele>
        <time>2019-08-13T18:22:40Z</time>
      </trkpt>
      <trkpt lat="40.6092410" lon="-4.6806190">
        <ele>1215.4</ele>
        <time>2019-08-13T18:22:41Z</time>
      </trkpt>
      <trkpt lat="40.6092830" lon="-4.6806430">
        <ele>1215.5</ele>
        <time>2019-08-13T18:22:42Z</time>
      </trkpt>
      <trkpt lat="40.6093260" lon="-4.6806670">
        <ele>1215.5</ele>
        <time>2019-08-13T18:22:43Z</time>
      </trkpt>
      <trkpt lat="40.6093690" lon="-4.6806910">
        <ele>1215.6</ele>
        <time>2019-08-13T18:22:44Z</time>
      </trkpt>
      <trkpt lat="40.6094100" lon="-4.6807150">
        <ele>1215.6</ele>
        <time>2019-08-13T18:22:45Z</time>
      </trkpt>
      <trkpt lat="40.6094520" lon="-4.6807390">
        <ele>1215.6</ele>
        <time>2019-08-13T18:22:46Z</time>
      </trkpt>
      <trkpt lat="40.6094920" lon="-4.6807620">
        <ele>1215.6</ele>
        <time>2019-08-13T18:22:47Z</time>
      </trkpt>
      <trkpt lat="40.6095330" lon="-4.6807840">
        <ele>1215.7</ele>
        <time>2019-08-13T18:22:48Z</time>
      </trkpt>
      <trkpt lat="40.6095740" lon="-4.6808070">
        <ele>1215.7</ele>
        <time>2019-08-13T18:22:49Z</time>
      </trkpt>
      <trkpt lat="40.6096150" lon="-4.6808320">
        <ele>1215.7</ele>
        <time>2019-08-13T18:22:50Z</time>
      </trkpt>
      <trkpt lat="40.6096560" lon="-4.6808550">
        <ele>1215.7</ele>
        <time>2019-08-13T18:22:51Z</time>
      </trkpt>
      <trkpt lat="40.6096970" lon="-4.6808780">
        <ele>1215.7</ele>
        <time>2019-08-13T18:22:52Z</time>
      </trkpt>
      <trkpt lat="40.6097390" lon="-4.6809010">
        <ele>1215.7</ele>
        <time>2019-08-13T18:22:53Z</time>
      </trkpt>
      <trkpt lat="40.6097790" lon="-4.6809240">
        <ele>1215.8</ele>
        <time>2019-08-13T18:22:54Z</time>
      </trkpt>
      <trkpt lat="40.6098190" lon="-4.6809460">
        <ele>1215.8</ele>
        <time>2019-08-13T18:22:55Z</time>
      </trkpt>
      <trkpt lat="40.6098590" lon="-4.6809680">
        <ele>1215.8</ele>
        <time>2019-08-13T18:22:56Z</time>
      </trkpt>
      <trkpt lat="40.6099000" lon="-4.6809900">
        <ele>1215.8</ele>
        <time>2019-08-13T18:22:57Z</time>
      </trkpt>
      <trkpt lat="40.6099410" lon="-4.6810110">
        <ele>1215.8</ele>
        <time>2019-08-13T18:22:58Z</time>
      </trkpt>
      <trkpt lat="40.6099820" lon="-4.6810320">
        <ele>1215.8</ele>
        <time>2019-08-13T18:22:59Z</time>
      </trkpt>
      <trkpt lat="40.6100250" lon="-4.6810520">
        <ele>1215.8</ele>
        <time>2019-08-13T18:23:00Z</time>
      </trkpt>
      <trkpt lat="40.6100670" lon="-4.6810710">
        <ele>1215.8</ele>
        <time>2019-08-13T18:23:01Z</time>
      </trkpt>
      <trkpt lat="40.6101090" lon="-4.6810900">
        <ele>1215.8</ele>
        <time>2019-08-13T18:23:02Z</time>
      </trkpt>
      <trkpt lat="40.6101500" lon="-4.6811060">
        <ele>1215.7</ele>
        <time>2019-08-13T18:23:03Z</time>
      </trkpt>
      <trkpt lat="40.6101910" lon="-4.6811230">
        <ele>1215.7</ele>
        <time>2019-08-13T18:23:04Z</time>
      </trkpt>
      <trkpt lat="40.6102320" lon="-4.6811360">
        <ele>1215.6</ele>
        <time>2019-08-13T18:23:05Z</time>
      </trkpt>
      <trkpt lat="40.6102720" lon="-4.6811490">
        <ele>1215.5</ele>
        <time>2019-08-13T18:23:06Z</time>
      </trkpt>
      <trkpt lat="40.6103120" lon="-4.6811610">
        <ele>1215.4</ele>
        <time>2019-08-13T18:23:07Z</time>
      </trkpt>
      <trkpt lat="40.6103520" lon="-4.6811740">
        <ele>1215.3</ele>
        <time>2019-08-13T18:23:08Z</time>
      </trkpt>
      <trkpt lat="40.6103900" lon="-4.6811850">
        <ele>1215.2</ele>
        <time>2019-08-13T18:23:09Z</time>
      </trkpt>
      <trkpt lat="40.6104270" lon="-4.6811950">
        <ele>1215.1</ele>
        <time>2019-08-13T18:23:10Z</time>
      </trkpt>
      <trkpt lat="40.6104630" lon="-4.6812040">
        <ele>1215.0</ele>
        <time>2019-08-13T18:23:11Z</time>
      </trkpt>
      <trkpt lat="40.6105000" lon="-4.6812120">
        <ele>1214.8</ele>
        <time>2019-08-13T18:23:12Z</time>
      </trkpt>
      <trkpt lat="40.6105370" lon="-4.6812170">
        <ele>1214.7</ele>
        <time>2019-08-13T18:23:13Z</time>
      </trkpt>
      <trkpt lat="40.6105740" lon="-4.6812210">
        <ele>1214.6</ele>
        <time>2019-08-13T18:23:14Z</time>
      </trkpt>
      <trkpt lat="40.6106120" lon="-4.6812250">
        <ele>1214.4</ele>
        <time>2019-08-13T18:23:15Z</time>
      </trkpt>
      <trkpt lat="40.6106500" lon="-4.6812270">
        <ele>1214.3</ele>
        <time>2019-08-13T18:23:16Z</time>
      </trkpt>
      <trkpt lat="40.6106880" lon="-4.6812300">
        <ele>1214.1</ele>
        <time>2019-08-13T18:23:17Z</time>
      </trkpt>
      <trkpt lat="40.6107270" lon="-4.6812330">
        <ele>1213.9</ele>
        <time>2019-08-13T18:23:18Z</time>
      </trkpt>
      <trkpt lat="40.6107670" lon="-4.6812360">
        <ele>1213.8</ele>
        <time>2019-08-13T18:23:19Z</time>
      </trkpt>
      <trkpt lat="40.6108080" lon="-4.6812370">
        <ele>1213.6</ele>
        <time>2019-08-13T18:23:20Z</time>
      </trkpt>
      <trkpt lat="40.6108520" lon="-4.6812370">
        <ele>1213.3</ele>
        <time>2019-08-13T18:23:21Z</time>
      </trkpt>
      <trkpt lat="40.6108960" lon="-4.6812360">
        <ele>1213.1</ele>
        <time>2019-08-13T18:23:22Z</time>
      </trkpt>
      <trkpt lat="40.6109430" lon="-4.6812340">
        <ele>1212.8</ele>
        <time>2019-08-13T18:23:23Z</time>
      </trkpt>
      <trkpt lat="40.6109940" lon="-4.6812330">
        <ele>1212.5</ele>
        <time>2019-08-13T18:23:24Z</time>
      </trkpt>
      <trkpt lat="40.6110470" lon="-4.6812310">
        <ele>1212.2</ele>
        <time>2019-08-13T18:23:25Z</time>
      </trkpt>
      <trkpt lat="40.6111040" lon="-4.6812280">
        <ele>1211.9</ele>
        <time>2019-08-13T18:23:26Z</time>
      </trkpt>
      <trkpt lat="40.6111620" lon="-4.6812220">
        <ele>1211.6</ele>
        <time>2019-08-13T18:23:27Z</time>
      </trkpt>
      <trkpt lat="40.6112210" lon="-4.6812140">
        <ele>1211.3</ele>
        <time>2019-08-13T18:23:28Z</time>
      </trkpt>
      <trkpt lat="40.6112820" lon="-4.6812070">
        <ele>1211.0</ele>
        <time>2019-08-13T18:23:29Z</time>
      </trkpt>
      <trkpt lat="40.6113460" lon="-4.6811990">
        <ele>1210.7</ele>
        <time>2019-08-13T18:23:30Z</time>
      </trkpt>
      <trkpt lat="40.6114100" lon="-4.6811860">
        <ele>1210.4</ele>
        <time>2019-08-13T18:23:31Z</time>
      </trkpt>
      <trkpt lat="40.6114750" lon="-4.6811710">
        <ele>1210.1</ele>
        <time>2019-08-13T18:23:32Z</time>
      </trkpt>
      <trkpt lat="40.6115400" lon="-4.6811510">
        <ele>1209.9</ele>
        <time>2019-08-13T18:23:33Z</time>
      </trkpt>
      <trkpt lat="40.6116060" lon="-4.6811290">
        <ele>1209.7</ele>
        <time>2019-08-13T18:23:34Z</time>
      </trkpt>
      <trkpt lat="40.6116720" lon="-4.6811070">
        <ele>1209.4</ele>
        <time>2019-08-13T18:23:35Z</time>
      </trkpt>
      <trkpt lat="40.6117380" lon="-4.6810830">
        <ele>1209.2</ele>
        <time>2019-08-13T18:23:36Z</time>
      </trkpt>
      <trkpt lat="40.6118050" lon="-4.6810550">
        <ele>1208.9</ele>
        <time>2019-08-13T18:23:37Z</time>
      </trkpt>
      <trkpt lat="40.6118680" lon="-4.6810250">
        <ele>1208.6</ele>
        <time>2019-08-13T18:23:38Z</time>
      </trkpt>
      <trkpt lat="40.6119270" lon="-4.6809940">
        <ele>1208.4</ele>
        <time>2019-08-13T18:23:39Z</time>
      </trkpt>
      <trkpt lat="40.6119850" lon="-4.6809620">
        <ele>1208.2</ele>
        <time>2019-08-13T18:23:40Z</time>
      </trkpt>
      <trkpt lat="40.6120410" lon="-4.6809290">
        <ele>1207.9</ele>
        <time>2019-08-13T18:23:41Z</time>
      </trkpt>
      <trkpt lat="40.6120940" lon="-4.6808960">
        <ele>1207.6</ele>
        <time>2019-08-13T18:23:42Z</time>
      </trkpt>
      <trkpt lat="40.6121460" lon="-4.6808640">
        <ele>1207.3</ele>
        <time>2019-08-13T18:23:43Z</time>
      </trkpt>
      <trkpt lat="40.6121970" lon="-4.6808310">
        <ele>1207.0</ele>
        <time>2019-08-13T18:23:44Z</time>
      </trkpt>
      <trkpt lat="40.6122470" lon="-4.6807990">
        <ele>1206.7</ele>
        <time>2019-08-13T18:23:45Z</time>
      </trkpt>
      <trkpt lat="40.6122970" lon="-4.6807660">
        <ele>1206.4</ele>
        <time>2019-08-13T18:23:46Z</time>
      </trkpt>
      <trkpt lat="40.6123490" lon="-4.6807320">
        <ele>1206.1</ele>
        <time>2019-08-13T18:23:47Z</time>
      </trkpt>
      <trkpt lat="40.6124020" lon="-4.6806960">
        <ele>1205.8</ele>
        <time>2019-08-13T18:23:48Z</time>
      </trkpt>
      <trkpt lat="40.6124560" lon="-4.6806590">
        <ele>1205.5</ele>
        <time>2019-08-13T18:23:49Z</time>
      </trkpt>
      <trkpt lat="40.6125130" lon="-4.6806220">
        <ele>1205.3</ele>
        <time>2019-08-13T18:23:50Z</time>
      </trkpt>
      <trkpt lat="40.6125710" lon="-4.6805840">
        <ele>1205.0</ele>
        <time>2019-08-13T18:23:51Z</time>
      </trkpt>
      <trkpt lat="40.6126290" lon="-4.6805470">
        <ele>1204.8</ele>
        <time>2019-08-13T18:23:52Z</time>
      </trkpt>
      <trkpt lat="40.6126870" lon="-4.6805060">
        <ele>1204.5</ele>
        <time>2019-08-13T18:23:53Z</time>
      </trkpt>
      <trkpt lat="40.6127470" lon="-4.6804650">
        <ele>1204.3</ele>
        <time>2019-08-13T18:23:54Z</time>
      </trkpt>
      <trkpt lat="40.6128070" lon="-4.6804260">
        <ele>1204.0</ele>
        <time>2019-08-13T18:23:55Z</time>
      </trkpt>
      <trkpt lat="40.6128680" lon="-4.6803890">
        <ele>1203.7</ele>
        <time>2019-08-13T18:23:56Z</time>
      </trkpt>
      <trkpt lat="40.6129300" lon="-4.6803520">
        <ele>1203.5</ele>
        <time>2019-08-13T18:23:57Z</time>
      </trkpt>
      <trkpt lat="40.6129910" lon="-4.6803160">
        <ele>1203.2</ele>
        <time>2019-08-13T18:23:58Z</time>
      </trkpt>
      <trkpt lat="40.6130530" lon="-4.6802770">
        <ele>1202.9</ele>
        <time>2019-08-13T18:23:59Z</time>
      </trkpt>
      <trkpt lat="40.6131150" lon="-4.6802380">
        <ele>1202.5</ele>
        <time>2019-08-13T18:24:00Z</time>
      </trkpt>
      <trkpt lat="40.6131770" lon="-4.6801980">
        <ele>1202.2</ele>
        <time>2019-08-13T18:24:01Z</time>
      </trkpt>
      <trkpt lat="40.6132390" lon="-4.6801560">
        <ele>1201.9</ele>
        <time>2019-08-13T18:24:02Z</time>
      </trkpt>
      <trkpt lat="40.6133020" lon="-4.6801110">
        <ele>1201.5</ele>
        <time>2019-08-13T18:24:03Z</time>
      </trkpt>
      <trkpt lat="40.6133610" lon="-4.6800660">
        <ele>1201.1</ele>
        <time>2019-08-13T18:24:04Z</time>
      </trkpt>
      <trkpt lat="40.6134220" lon="-4.6800230">
        <ele>1200.7</ele>
        <time>2019-08-13T18:24:05Z</time>
      </trkpt>
      <trkpt lat="40.6134830" lon="-4.6799800">
        <ele>1200.4</ele>
        <time>2019-08-13T18:24:06Z</time>
      </trkpt>
      <trkpt lat="40.6135440" lon="-4.6799380">
        <ele>1200.0</ele>
        <time>2019-08-13T18:24:07Z</time>
      </trkpt>
      <trkpt lat="40.6136030" lon="-4.6798960">
        <ele>1199.7</ele>
        <time>2019-08-13T18:24:08Z</time>
      </trkpt>
      <trkpt lat="40.6136650" lon="-4.6798550">
        <ele>1199.3</ele>
        <time>2019-08-13T18:24:09Z</time>
      </trkpt>
      <trkpt lat="40.6137250" lon="-4.6798130">
        <ele>1199.0</ele>
        <time>2019-08-13T18:24:10Z</time>
      </trkpt>
      <trkpt lat="40.6137860" lon="-4.6797730">
        <ele>1198.6</ele>
        <time>2019-08-13T18:24:11Z</time>
      </trkpt>
      <trkpt lat="40.6138480" lon="-4.6797330">
        <ele>1198.3</ele>
        <time>2019-08-13T18:24:12Z</time>
      </trkpt>
      <trkpt lat="40.6139080" lon="-4.6796920">
        <ele>1198.0</ele>
        <time>2019-08-13T18:24:13Z</time>
      </trkpt>
      <trkpt lat="40.6139690" lon="-4.6796510">
        <ele>1197.7</ele>
        <time>2019-08-13T18:24:14Z</time>
      </trkpt>
      <trkpt lat="40.6140290" lon="-4.6796100">
        <ele>1197.3</ele>
        <time>2019-08-13T18:24:15Z</time>
      </trkpt>
      <trkpt lat="40.6140890" lon="-4.6795720">
        <ele>1197.0</ele>
        <time>2019-08-13T18:24:16Z</time>
      </trkpt>
      <trkpt lat="40.6141490" lon="-4.6795350">
        <ele>1196.6</ele>
        <time>2019-08-13T18:24:17Z</time>
      </trkpt>
      <trkpt lat="40.6142090" lon="-4.6794960">
        <ele>1196.2</ele>
        <time>2019-08-13T18:24:18Z</time>
      </trkpt>
      <trkpt lat="40.6142690" lon="-4.6794560">
        <ele>1195.8</ele>
        <time>2019-08-13T18:24:19Z</time>
      </trkpt>
      <trkpt lat="40.6143300" lon="-4.6794170">
        <ele>1195.3</ele>
        <time>2019-08-13T18:24:20Z</time>
      </trkpt>
      <trkpt lat="40.6143920" lon="-4.6793750">
        <ele>1194.9</ele>
        <time>2019-08-13T18:24:21Z</time>
      </trkpt>
      <trkpt lat="40.6144540" lon="-4.6793360">
        <ele>1194.6</ele>
        <time>2019-08-13T18:24:22Z</time>
      </trkpt>
      <trkpt lat="40.6145160" lon="-4.6792990">
        <ele>1194.1</ele>
        <time>2019-08-13T18:24:23Z</time>
      </trkpt>
      <trkpt lat="40.6145780" lon="-4.6792610">
        <ele>1193.8</ele>
        <time>2019-08-13T18:24:24Z</time>
      </trkpt>
      <trkpt lat="40.6146400" lon="-4.6792260">
        <ele>1193.5</ele>
        <time>2019-08-13T18:24:25Z</time>
      </trkpt>
      <trkpt lat="40.6147020" lon="-4.6791910">
        <ele>1193.2</ele>
        <time>2019-08-13T18:24:26Z</time>
      </trkpt>
      <trkpt lat="40.6147620" lon="-4.6791550">
        <ele>1192.9</ele>
        <time>2019-08-13T18:24:27Z</time>
      </trkpt>
      <trkpt lat="40.6148220" lon="-4.6791200">
        <ele>1192.7</ele>
        <time>2019-08-13T18:24:28Z</time>
      </trkpt>
      <trkpt lat="40.6148820" lon="-4.6790900">
        <ele>1192.4</ele>
        <time>2019-08-13T18:24:29Z</time>
      </trkpt>
      <trkpt lat="40.6149410" lon="-4.6790600">
        <ele>1192.2</ele>
        <time>2019-08-13T18:24:30Z</time>
      </trkpt>
      <trkpt lat="40.6150010" lon="-4.6790270">
        <ele>1191.9</ele>
        <time>2019-08-13T18:24:31Z</time>
      </trkpt>
      <trkpt lat="40.6150600" lon="-4.6789930">
        <ele>1191.6</ele>
        <time>2019-08-13T18:24:32Z</time>
      </trkpt>
      <trkpt lat="40.6151210" lon="-4.6789570">
        <ele>1191.3</ele>
        <time>2019-08-13T18:24:33Z</time>
      </trkpt>
      <trkpt lat="40.6151850" lon="-4.6789210">
        <ele>1191.0</ele>
        <time>2019-08-13T18:24:34Z</time>
      </trkpt>
      <trkpt lat="40.6152490" lon="-4.6788850">
        <ele>1190.7</ele>
        <time>2019-08-13T18:24:35Z</time>
      </trkpt>
      <trkpt lat="40.6153140" lon="-4.6788490">
        <ele>1190.4</ele>
        <time>2019-08-13T18:24:36Z</time>
      </trkpt>
      <trkpt lat="40.6153800" lon="-4.6788150">
        <ele>1190.1</ele>
        <time>2019-08-13T18:24:37Z</time>
      </trkpt>
      <trkpt lat="40.6154470" lon="-4.6787820">
        <ele>1189.8</ele>
        <time>2019-08-13T18:24:38Z</time>
      </trkpt>
      <trkpt lat="40.6155160" lon="-4.6787500">
        <ele>1189.4</ele>
        <time>2019-08-13T18:24:39Z</time>
      </trkpt>
      <trkpt lat="40.6155850" lon="-4.6787180">
        <ele>1189.1</ele>
        <time>2019-08-13T18:24:40Z</time>
      </trkpt>
      <trkpt lat="40.6156540" lon="-4.6786870">
        <ele>1188.8</ele>
        <time>2019-08-13T18:24:41Z</time>
      </trkpt>
      <trkpt lat="40.6157240" lon="-4.6786550">
        <ele>1188.5</ele>
        <time>2019-08-13T18:24:42Z</time>
      </trkpt>
      <trkpt lat="40.6157940" lon="-4.6786240">
        <ele>1188.2</ele>
        <time>2019-08-13T18:24:43Z</time>
      </trkpt>
      <trkpt lat="40.6158630" lon="-4.6785930">
        <ele>1187.9</ele>
        <time>2019-08-13T18:24:44Z</time>
      </trkpt>
      <trkpt lat="40.6159330" lon="-4.6785630">
        <ele>1187.6</ele>
        <time>2019-08-13T18:24:45Z</time>
      </trkpt>
      <trkpt lat="40.6160050" lon="-4.6785330">
        <ele>1187.2</ele>
        <time>2019-08-13T18:24:46Z</time>
      </trkpt>
      <trkpt lat="40.6160770" lon="-4.6785020">
        <ele>1186.9</ele>
        <time>2019-08-13T18:24:47Z</time>
      </trkpt>
      <trkpt lat="40.6161480" lon="-4.6784700">
        <ele>1186.5</ele>
        <time>2019-08-13T18:24:48Z</time>
      </trkpt>
      <trkpt lat="40.6162200" lon="-4.6784370">
        <ele>1186.0</ele>
        <time>2019-08-13T18:24:49Z</time>
      </trkpt>
      <trkpt lat="40.6162940" lon="-4.6784040">
        <ele>1185.6</ele>
        <time>2019-08-13T18:24:50Z</time>
      </trkpt>
      <trkpt lat="40.6163660" lon="-4.6783690">
        <ele>1185.2</ele>
        <time>2019-08-13T18:24:51Z</time>
      </trkpt>
      <trkpt lat="40.6164390" lon="-4.6783320">
        <ele>1184.9</ele>
        <time>2019-08-13T18:24:52Z</time>
      </trkpt>
      <trkpt lat="40.6165110" lon="-4.6782930">
        <ele>1184.5</ele>
        <time>2019-08-13T18:24:53Z</time>
      </trkpt>
      <trkpt lat="40.6165860" lon="-4.6782530">
        <ele>1184.1</ele>
        <time>2019-08-13T18:24:54Z</time>
      </trkpt>
      <trkpt lat="40.6166610" lon="-4.6782150">
        <ele>1183.7</ele>
        <time>2019-08-13T18:24:55Z</time>
      </trkpt>
      <trkpt lat="40.6167370" lon="-4.6781750">
        <ele>1183.3</ele>
        <time>2019-08-13T18:24:56Z</time>
      </trkpt>
      <trkpt lat="40.6168120" lon="-4.6781320">
        <ele>1182.8</ele>
        <time>2019-08-13T18:24:57Z</time>
      </trkpt>
      <trkpt lat="40.6168890" lon="-4.6780890">
        <ele>1182.4</ele>
        <time>2019-08-13T18:24:58Z</time>
      </trkpt>
      <trkpt lat="40.6169670" lon="-4.6780460">
        <ele>1182.0</ele>
        <time>2019-08-13T18:24:59Z</time>
      </trkpt>
      <trkpt lat="40.6170450" lon="-4.6780020">
        <ele>1181.5</ele>
        <time>2019-08-13T18:25:00Z</time>
      </trkpt>
      <trkpt lat="40.6171240" lon="-4.6779550">
        <ele>1181.1</ele>
        <time>2019-08-13T18:25:01Z</time>
      </trkpt>
      <trkpt lat="40.6172030" lon="-4.6779080">
        <ele>1180.6</ele>
        <time>2019-08-13T18:25:02Z</time>
      </trkpt>
      <trkpt lat="40.6172820" lon="-4.6778600">
        <ele>1180.0</ele>
        <time>2019-08-13T18:25:03Z</time>
      </trkpt>
      <trkpt lat="40.6173620" lon="-4.6778130">
        <ele>1179.6</ele>
        <time>2019-08-13T18:25:04Z</time>
      </trkpt>
      <trkpt lat="40.6174390" lon="-4.6777670">
        <ele>1179.1</ele>
        <time>2019-08-13T18:25:05Z</time>
      </trkpt>
      <trkpt lat="40.6175140" lon="-4.6777210">
        <ele>1178.7</ele>
        <time>2019-08-13T18:25:06Z</time>
      </trkpt>
      <trkpt lat="40.6175900" lon="-4.6776760">
        <ele>1178.2</ele>
        <time>2019-08-13T18:25:07Z</time>
      </trkpt>
      <trkpt lat="40.6176650" lon="-4.6776310">
        <ele>1177.8</ele>
        <time>2019-08-13T18:25:08Z</time>
      </trkpt>
      <trkpt lat="40.6177400" lon="-4.6775850">
        <ele>1177.5</ele>
        <time>2019-08-13T18:25:09Z</time>
      </trkpt>
      <trkpt lat="40.6178150" lon="-4.6775410">
        <ele>1177.2</ele>
        <time>2019-08-13T18:25:10Z</time>
      </trkpt>
      <trkpt lat="40.6178880" lon="-4.6774980">
        <ele>1176.9</ele>
        <time>2019-08-13T18:25:11Z</time>
      </trkpt>
      <trkpt lat="40.6179600" lon="-4.6774550">
        <ele>1176.6</ele>
        <time>2019-08-13T18:25:12Z</time>
      </trkpt>
      <trkpt lat="40.6180310" lon="-4.6774120">
        <ele>1176.3</ele>
        <time>2019-08-13T18:25:13Z</time>
      </trkpt>
      <trkpt lat="40.6180990" lon="-4.6773710">
        <ele>1176.0</ele>
        <time>2019-08-13T18:25:14Z</time>
      </trkpt>
      <trkpt lat="40.6181670" lon="-4.6773320">
        <ele>1175.8</ele>
        <time>2019-08-13T18:25:15Z</time>
      </trkpt>
      <trkpt lat="40.6182340" lon="-4.6772930">
        <ele>1175.5</ele>
        <time>2019-08-13T18:25:16Z</time>
      </trkpt>
      <trkpt lat="40.6183020" lon="-4.6772530">
        <ele>1175.2</ele>
        <time>2019-08-13T18:25:17Z</time>
      </trkpt>
      <trkpt lat="40.6183710" lon="-4.6772130">
        <ele>1174.9</ele>
        <time>2019-08-13T18:25:18Z</time>
      </trkpt>
      <trkpt lat="40.6184390" lon="-4.6771740">
        <ele>1174.5</ele>
        <time>2019-08-13T18:25:19Z</time>
      </trkpt>
      <trkpt lat="40.6185060" lon="-4.6771360">
        <ele>1174.2</ele>
        <time>2019-08-13T18:25:20Z</time>
      </trkpt>
      <trkpt lat="40.6185730" lon="-4.6770970">
        <ele>1173.9</ele>
        <time>2019-08-13T18:25:21Z</time>
      </trkpt>
      <trkpt lat="40.6186380" lon="-4.6770600">
        <ele>1173.5</ele>
        <time>2019-08-13T18:25:22Z</time>
      </trkpt>
      <trkpt lat="40.6187030" lon="-4.6770230">
        <ele>1173.2</ele>
        <time>2019-08-13T18:25:23Z</time>
      </trkpt>
      <trkpt lat="40.6187680" lon="-4.6769850">
        <ele>1172.9</ele>
        <time>2019-08-13T18:25:24Z</time>
      </trkpt>
      <trkpt lat="40.6188330" lon="-4.6769480">
        <ele>1172.5</ele>
        <time>2019-08-13T18:25:25Z</time>
      </trkpt>
      <trkpt lat="40.6188980" lon="-4.6769110">
        <ele>1172.0</ele>
        <time>2019-08-13T18:25:26Z</time>
      </trkpt>
      <trkpt lat="40.6189630" lon="-4.6768760">
        <ele>1171.6</ele>
        <time>2019-08-13T18:25:27Z</time>
      </trkpt>
      <trkpt lat="40.6190290" lon="-4.6768410">
        <ele>1171.1</ele>
        <time>2019-08-13T18:25:28Z</time>
      </trkpt>
      <trkpt lat="40.6190950" lon="-4.6768060">
        <ele>1170.5</ele>
        <time>2019-08-13T18:25:29Z</time>
      </trkpt>
      <trkpt lat="40.6191630" lon="-4.6767740">
        <ele>1170.0</ele>
        <time>2019-08-13T18:25:30Z</time>
      </trkpt>
      <trkpt lat="40.6192330" lon="-4.6767430">
        <ele>1169.5</ele>
        <time>2019-08-13T18:25:31Z</time>
      </trkpt>
      <trkpt lat="40.6193040" lon="-4.6767150">
        <ele>1168.9</ele>
        <time>2019-08-13T18:25:32Z</time>
      </trkpt>
      <trkpt lat="40.6193770" lon="-4.6766880">
        <ele>1168.4</ele>
        <time>2019-08-13T18:25:33Z</time>
      </trkpt>
      <trkpt lat="40.6194530" lon="-4.6766660">
        <ele>1167.7</ele>
        <time>2019-08-13T18:25:34Z</time>
      </trkpt>
      <trkpt lat="40.6195290" lon="-4.6766470">
        <ele>1167.0</ele>
        <time>2019-08-13T18:25:35Z</time>
      </trkpt>
      <trkpt lat="40.6196060" lon="-4.6766340">
        <ele>1166.7</ele>
        <time>2019-08-13T18:25:36Z</time>
      </trkpt>
      <trkpt lat="40.6196820" lon="-4.6766250">
        <ele>1166.2</ele>
        <time>2019-08-13T18:25:37Z</time>
      </trkpt>
      <trkpt lat="40.6197570" lon="-4.6766200">
        <ele>1166.3</ele>
        <time>2019-08-13T18:25:38Z</time>
      </trkpt>
      <trkpt lat="40.6198320" lon="-4.6766160">
        <ele>1166.3</ele>
        <time>2019-08-13T18:25:39Z</time>
      </trkpt>
      <trkpt lat="40.6199090" lon="-4.6766130">
        <ele>1166.4</ele>
        <time>2019-08-13T18:25:40Z</time>
      </trkpt>
      <trkpt lat="40.6199840" lon="-4.6766140">
        <ele>1166.5</ele>
        <time>2019-08-13T18:25:41Z</time>
      </trkpt>
      <trkpt lat="40.6200620" lon="-4.6766130">
        <ele>1167.0</ele>
        <time>2019-08-13T18:25:42Z</time>
      </trkpt>
      <trkpt lat="40.6201350" lon="-4.6766130">
        <ele>1167.2</ele>
        <time>2019-08-13T18:25:43Z</time>
      </trkpt>
      <trkpt lat="40.6202030" lon="-4.6766150">
        <ele>1167.4</ele>
        <time>2019-08-13T18:25:44Z</time>
      </trkpt>
      <trkpt lat="40.6202670" lon="-4.6766170">
        <ele>1167.6</ele>
        <time>2019-08-13T18:25:45Z</time>
      </trkpt>
      <trkpt lat="40.6203270" lon="-4.6766200">
        <ele>1167.7</ele>
        <time>2019-08-13T18:25:46Z</time>
      </trkpt>
      <trkpt lat="40.6203810" lon="-4.6766190">
        <ele>1167.8</ele>
        <time>2019-08-13T18:25:47Z</time>
      </trkpt>
      <trkpt lat="40.6204300" lon="-4.6766110">
        <ele>1167.9</ele>
        <time>2019-08-13T18:25:48Z</time>
      </trkpt>
      <trkpt lat="40.6204730" lon="-4.6765940">
        <ele>1168.0</ele>
        <time>2019-08-13T18:25:49Z</time>
      </trkpt>
      <trkpt lat="40.6205110" lon="-4.6765640">
        <ele>1168.2</ele>
        <time>2019-08-13T18:25:50Z</time>
      </trkpt>
      <trkpt lat="40.6205420" lon="-4.6765190">
        <ele>1168.3</ele>
        <time>2019-08-13T18:25:51Z</time>
      </trkpt>
      <trkpt lat="40.6205660" lon="-4.6764630">
        <ele>1168.4</ele>
        <time>2019-08-13T18:25:52Z</time>
      </trkpt>
      <trkpt lat="40.6205830" lon="-4.6764020">
        <ele>1168.6</ele>
        <time>2019-08-13T18:25:53Z</time>
      </trkpt>
      <trkpt lat="40.6205940" lon="-4.6763420">
        <ele>1168.7</ele>
        <time>2019-08-13T18:25:54Z</time>
      </trkpt>
      <trkpt lat="40.6206030" lon="-4.6762870">
        <ele>1168.7</ele>
        <time>2019-08-13T18:25:55Z</time>
      </trkpt>
      <trkpt lat="40.6206110" lon="-4.6762390">
        <ele>1168.8</ele>
        <time>2019-08-13T18:25:56Z</time>
      </trkpt>
      <trkpt lat="40.6206170" lon="-4.6761970">
        <ele>1168.9</ele>
        <time>2019-08-13T18:25:57Z</time>
      </trkpt>
      <trkpt lat="40.6206230" lon="-4.6761610">
        <ele>1169.0</ele>
        <time>2019-08-13T18:25:58Z</time>
      </trkpt>
      <trkpt lat="40.6206370" lon="-4.6761020">
        <ele>1168.9</ele>
        <time>2019-08-13T18:26:00Z</time>
      </trkpt>
      <trkpt lat="40.6206550" lon="-4.6760650">
        <ele>1169.0</ele>
        <time>2019-08-13T18:26:02Z</time>
      </trkpt>
      <trkpt lat="40.6206760" lon="-4.6760440">
        <ele>1168.8</ele>
        <time>2019-08-13T18:26:09Z</time>
      </trkpt>
      <trkpt lat="40.6207460" lon="-4.6760750">
        <ele>1168.1</ele>
        <time>2019-08-13T18:26:23Z</time>
      </trkpt>
      <trkpt lat="40.6207750" lon="-4.6760700">
        <ele>1167.8</ele>
        <time>2019-08-13T18:26:27Z</time>
      </trkpt>
      <trkpt lat="40.6208050" lon="-4.6760660">
        <ele>1167.5</ele>
        <time>2019-08-13T18:26:32Z</time>
      </trkpt>
      <trkpt lat="40.6208290" lon="-4.6760780">
        <ele>1167.2</ele>
        <time>2019-08-13T18:26:37Z</time>
      </trkpt>
      <trkpt lat="40.6208580" lon="-4.6760820">
        <ele>1167.2</ele>
        <time>2019-08-13T18:26:40Z</time>
      </trkpt>
      <trkpt lat="40.6208840" lon="-4.6760740">
        <ele>1166.9</ele>
        <time>2019-08-13T18:26:45Z</time>
      </trkpt>
      <trkpt lat="40.6209200" lon="-4.6760820">
        <ele>1166.7</ele>
        <time>2019-08-13T18:26:49Z</time>
      </trkpt>
      <trkpt lat="40.6209510" lon="-4.6760930">
        <ele>1166.4</ele>
        <time>2019-08-13T18:26:53Z</time>
      </trkpt>
      <trkpt lat="40.6209780" lon="-4.6760860">
        <ele>1166.3</ele>
        <time>2019-08-13T18:26:56Z</time>
      </trkpt>
      <trkpt lat="40.6210080" lon="-4.6760860">
        <ele>1166.1</ele>
        <time>2019-08-13T18:27:00Z</time>
      </trkpt>
      <trkpt lat="40.6210380" lon="-4.6761000">
        <ele>1166.0</ele>
        <time>2019-08-13T18:27:04Z</time>
      </trkpt>
      <trkpt lat="40.6210740" lon="-4.6761110">
        <ele>1165.9</ele>
        <time>2019-08-13T18:27:07Z</time>
      </trkpt>
      <trkpt lat="40.6211000" lon="-4.6761270">
        <ele>1165.7</ele>
        <time>2019-08-13T18:27:12Z</time>
      </trkpt>
      <trkpt lat="40.6211340" lon="-4.6761310">
        <ele>1165.6</ele>
        <time>2019-08-13T18:27:16Z</time>
      </trkpt>
      <trkpt lat="40.6211610" lon="-4.6761010">
        <ele>1165.4</ele>
        <time>2019-08-13T18:27:19Z</time>
      </trkpt>
      <trkpt lat="40.6211900" lon="-4.6760920">
        <ele>1165.3</ele>
        <time>2019-08-13T18:27:21Z</time>
      </trkpt>
      <trkpt lat="40.6212210" lon="-4.6760880">
        <ele>1165.1</ele>
        <time>2019-08-13T18:27:23Z</time>
      </trkpt>
      <trkpt lat="40.6212420" lon="-4.6760650">
        <ele>1165.1</ele>
        <time>2019-08-13T18:27:26Z</time>
      </trkpt>
      <trkpt lat="40.6212610" lon="-4.6760390">
        <ele>1164.9</ele>
        <time>2019-08-13T18:27:33Z</time>
      </trkpt>
      <trkpt lat="40.6213220" lon="-4.6760090">
        <ele>1164.5</ele>
        <time>2019-08-13T18:28:54Z</time>
      </trkpt>
      <trkpt lat="40.6213080" lon="-4.6759700">
        <ele>1164.8</ele>
        <time>2019-08-13T18:28:57Z</time>
      </trkpt>
      <trkpt lat="40.6213060" lon="-4.6759280">
        <ele>1164.8</ele>
        <time>2019-08-13T18:29:02Z</time>
      </trkpt>
      <trkpt lat="40.6213090" lon="-4.6759180">
        <ele>1164.8</ele>
        <time>2019-08-13T18:29:09Z</time>
      </trkpt>
      <trkpt lat="40.6213040" lon="-4.6759540">
        <ele>1164.8</ele>
        <time>2019-08-13T18:29:12Z</time>
      </trkpt>
      <trkpt lat="40.6212390" lon="-4.6760050">
        <ele>1165.1</ele>
        <time>2019-08-13T18:29:40Z</time>
      </trkpt>
      <trkpt lat="40.6212040" lon="-4.6760060">
        <ele>1165.2</ele>
        <time>2019-08-13T18:29:44Z</time>
      </trkpt>
      <trkpt lat="40.6211700" lon="-4.6760030">
        <ele>1165.4</ele>
        <time>2019-08-13T18:29:47Z</time>
      </trkpt>
      <trkpt lat="40.6211430" lon="-4.6759930">
        <ele>1165.5</ele>
        <time>2019-08-13T18:29:50Z</time>
      </trkpt>
      <trkpt lat="40.6211600" lon="-4.6759990">
        <ele>1165.4</ele>
        <time>2019-08-13T18:29:59Z</time>
      </trkpt>
      <trkpt lat="40.6212050" lon="-4.6760390">
        <ele>1165.2</ele>
        <time>2019-08-13T18:30:09Z</time>
      </trkpt>
      <trkpt lat="40.6211710" lon="-4.6760050">
        <ele>1165.4</ele>
        <time>2019-08-13T18:31:16Z</time>
      </trkpt>
      <trkpt lat="40.6212000" lon="-4.6760380">
        <ele>1165.2</ele>
        <time>2019-08-13T18:31:18Z</time>
      </trkpt>
      <trkpt lat="40.6212160" lon="-4.6759980">
        <ele>1165.2</ele>
        <time>2019-08-13T18:31:20Z</time>
      </trkpt>
      <trkpt lat="40.6212350" lon="-4.6759740">
        <ele>1165.1</ele>
        <time>2019-08-13T18:52:42Z</time>
      </trkpt>
      <trkpt lat="40.6212030" lon="-4.6759790">
        <ele>1165.2</ele>
        <time>2019-08-13T18:52:46Z</time>
      </trkpt>
      <trkpt lat="40.6211720" lon="-4.6759810">
        <ele>1165.4</ele>
        <time>2019-08-13T18:52:49Z</time>
      </trkpt>
      <trkpt lat="40.6211430" lon="-4.6759800">
        <ele>1165.5</ele>
        <time>2019-08-13T18:52:52Z</time>
      </trkpt>
      <trkpt lat="40.6211140" lon="-4.6759840">
        <ele>1165.6</ele>
        <time>2019-08-13T18:52:54Z</time>
      </trkpt>
      <trkpt lat="40.6210780" lon="-4.6759960">
        <ele>1165.7</ele>
        <time>2019-08-13T18:52:57Z</time>
      </trkpt>
      <trkpt lat="40.6210440" lon="-4.6760020">
        <ele>1165.9</ele>
        <time>2019-08-13T18:52:59Z</time>
      </trkpt>
      <trkpt lat="40.6210100" lon="-4.6760100">
        <ele>1166.0</ele>
        <time>2019-08-13T18:53:02Z</time>
      </trkpt>
      <trkpt lat="40.6209810" lon="-4.6760110">
        <ele>1166.2</ele>
        <time>2019-08-13T18:53:05Z</time>
      </trkpt>
      <trkpt lat="40.6209490" lon="-4.6760180">
        <ele>1166.3</ele>
        <time>2019-08-13T18:53:08Z</time>
      </trkpt>
      <trkpt lat="40.6209200" lon="-4.6760150">
        <ele>1166.6</ele>
        <time>2019-08-13T18:53:10Z</time>
      </trkpt>
      <trkpt lat="40.6208870" lon="-4.6760240">
        <ele>1166.9</ele>
        <time>2019-08-13T18:53:13Z</time>
      </trkpt>
      <trkpt lat="40.6208610" lon="-4.6760360">
        <ele>1166.9</ele>
        <time>2019-08-13T18:53:15Z</time>
      </trkpt>
      <trkpt lat="40.6208250" lon="-4.6760400">
        <ele>1167.5</ele>
        <time>2019-08-13T18:53:18Z</time>
      </trkpt>
      <trkpt lat="40.6207960" lon="-4.6760190">
        <ele>1167.5</ele>
        <time>2019-08-13T18:53:21Z</time>
      </trkpt>
      <trkpt lat="40.6207660" lon="-4.6760260">
        <ele>1167.8</ele>
        <time>2019-08-13T18:53:24Z</time>
      </trkpt>
      <trkpt lat="40.6207580" lon="-4.6760180">
        <ele>1168.1</ele>
        <time>2019-08-13T18:53:32Z</time>
      </trkpt>
      <trkpt lat="40.6207450" lon="-4.6760670">
        <ele>1168.0</ele>
        <time>2019-08-13T18:53:50Z</time>
      </trkpt>
      <trkpt lat="40.6207120" lon="-4.6760620">
        <ele>1168.3</ele>
        <time>2019-08-13T18:53:53Z</time>
      </trkpt>
      <trkpt lat="40.6206860" lon="-4.6760600">
        <ele>1168.6</ele>
        <time>2019-08-13T18:54:01Z</time>
      </trkpt>
      <trkpt lat="40.6206460" lon="-4.6760750">
        <ele>1168.9</ele>
        <time>2019-08-13T18:54:04Z</time>
      </trkpt>
      <trkpt lat="40.6206250" lon="-4.6761150">
        <ele>1169.0</ele>
        <time>2019-08-13T18:54:06Z</time>
      </trkpt>
      <trkpt lat="40.6206150" lon="-4.6761570">
        <ele>1168.9</ele>
        <time>2019-08-13T18:54:08Z</time>
      </trkpt>
      <trkpt lat="40.6206150" lon="-4.6762050">
        <ele>1168.8</ele>
        <time>2019-08-13T18:54:10Z</time>
      </trkpt>
      <trkpt lat="40.6206130" lon="-4.6762540">
        <ele>1168.7</ele>
        <time>2019-08-13T18:54:12Z</time>
      </trkpt>
      <trkpt lat="40.6206070" lon="-4.6763060">
        <ele>1168.5</ele>
        <time>2019-08-13T18:54:14Z</time>
      </trkpt>
      <trkpt lat="40.6206120" lon="-4.6763570">
        <ele>1168.2</ele>
        <time>2019-08-13T18:54:16Z</time>
      </trkpt>
      <trkpt lat="40.6206320" lon="-4.6764090">
        <ele>1168.1</ele>
        <time>2019-08-13T18:54:18Z</time>
      </trkpt>
      <trkpt lat="40.6206520" lon="-4.6764700">
        <ele>1167.9</ele>
        <time>2019-08-13T18:54:20Z</time>
      </trkpt>
      <trkpt lat="40.6206580" lon="-4.6765050">
        <ele>1167.8</ele>
        <time>2019-08-13T18:54:21Z</time>
      </trkpt>
      <trkpt lat="40.6206620" lon="-4.6765430">
        <ele>1167.7</ele>
        <time>2019-08-13T18:54:22Z</time>
      </trkpt>
      <trkpt lat="40.6206660" lon="-4.6765780">
        <ele>1167.6</ele>
        <time>2019-08-13T18:54:23Z</time>
      </trkpt>
      <trkpt lat="40.6206810" lon="-4.6766380">
        <ele>1167.3</ele>
        <time>2019-08-13T18:54:25Z</time>
      </trkpt>
      <trkpt lat="40.6206990" lon="-4.6766820">
        <ele>1167.1</ele>
        <time>2019-08-13T18:54:27Z</time>
      </trkpt>
      <trkpt lat="40.6207170" lon="-4.6767280">
        <ele>1166.9</ele>
        <time>2019-08-13T18:54:29Z</time>
      </trkpt>
      <trkpt lat="40.6207400" lon="-4.6767690">
        <ele>1166.8</ele>
        <time>2019-08-13T18:54:31Z</time>
      </trkpt>
      <trkpt lat="40.6207700" lon="-4.6768070">
        <ele>1166.6</ele>
        <time>2019-08-13T18:54:33Z</time>
      </trkpt>
      <trkpt lat="40.6208220" lon="-4.6768290">
        <ele>1166.3</ele>
        <time>2019-08-13T18:54:35Z</time>
      </trkpt>
      <trkpt lat="40.6208540" lon="-4.6768370">
        <ele>1166.3</ele>
        <time>2019-08-13T18:54:36Z</time>
      </trkpt>
      <trkpt lat="40.6208920" lon="-4.6768470">
        <ele>1166.3</ele>
        <time>2019-08-13T18:54:37Z</time>
      </trkpt>
      <trkpt lat="40.6209340" lon="-4.6768580">
        <ele>1166.3</ele>
        <time>2019-08-13T18:54:38Z</time>
      </trkpt>
      <trkpt lat="40.6209770" lon="-4.6768700">
        <ele>1166.3</ele>
        <time>2019-08-13T18:54:39Z</time>
      </trkpt>
      <trkpt lat="40.6210200" lon="-4.6768820">
        <ele>1166.3</ele>
        <time>2019-08-13T18:54:40Z</time>
      </trkpt>
      <trkpt lat="40.6210640" lon="-4.6768930">
        <ele>1166.2</ele>
        <time>2019-08-13T18:54:41Z</time>
      </trkpt>
      <trkpt lat="40.6211100" lon="-4.6769040">
        <ele>1166.2</ele>
        <time>2019-08-13T18:54:42Z</time>
      </trkpt>
      <trkpt lat="40.6211560" lon="-4.6769120">
        <ele>1166.1</ele>
        <time>2019-08-13T18:54:43Z</time>
      </trkpt>
      <trkpt lat="40.6212040" lon="-4.6769200">
        <ele>1166.0</ele>
        <time>2019-08-13T18:54:44Z</time>
      </trkpt>
      <trkpt lat="40.6212550" lon="-4.6769260">
        <ele>1165.9</ele>
        <time>2019-08-13T18:54:45Z</time>
      </trkpt>
      <trkpt lat="40.6213080" lon="-4.6769300">
        <ele>1165.8</ele>
        <time>2019-08-13T18:54:46Z</time>
      </trkpt>
      <trkpt lat="40.6213630" lon="-4.6769330">
        <ele>1165.4</ele>
        <time>2019-08-13T18:54:47Z</time>
      </trkpt>
      <trkpt lat="40.6214190" lon="-4.6769350">
        <ele>1165.1</ele>
        <time>2019-08-13T18:54:48Z</time>
      </trkpt>
      <trkpt lat="40.6214770" lon="-4.6769330">
        <ele>1164.7</ele>
        <time>2019-08-13T18:54:49Z</time>
      </trkpt>
      <trkpt lat="40.6215340" lon="-4.6769290">
        <ele>1164.3</ele>
        <time>2019-08-13T18:54:50Z</time>
      </trkpt>
      <trkpt lat="40.6215910" lon="-4.6769230">
        <ele>1163.9</ele>
        <time>2019-08-13T18:54:51Z</time>
      </trkpt>
      <trkpt lat="40.6216490" lon="-4.6769150">
        <ele>1163.4</ele>
        <time>2019-08-13T18:54:52Z</time>
      </trkpt>
      <trkpt lat="40.6217090" lon="-4.6769050">
        <ele>1162.8</ele>
        <time>2019-08-13T18:54:53Z</time>
      </trkpt>
      <trkpt lat="40.6217710" lon="-4.6768960">
        <ele>1162.1</ele>
        <time>2019-08-13T18:54:54Z</time>
      </trkpt>
      <trkpt lat="40.6218350" lon="-4.6768830">
        <ele>1161.5</ele>
        <time>2019-08-13T18:54:55Z</time>
      </trkpt>
      <trkpt lat="40.6219020" lon="-4.6768700">
        <ele>1161.0</ele>
        <time>2019-08-13T18:54:56Z</time>
      </trkpt>
      <trkpt lat="40.6219700" lon="-4.6768570">
        <ele>1160.4</ele>
        <time>2019-08-13T18:54:57Z</time>
      </trkpt>
      <trkpt lat="40.6220400" lon="-4.6768440">
        <ele>1159.9</ele>
        <time>2019-08-13T18:54:58Z</time>
      </trkpt>
      <trkpt lat="40.6221140" lon="-4.6768290">
        <ele>1159.1</ele>
        <time>2019-08-13T18:54:59Z</time>
      </trkpt>
      <trkpt lat="40.6221900" lon="-4.6768160">
        <ele>1158.2</ele>
        <time>2019-08-13T18:55:00Z</time>
      </trkpt>
      <trkpt lat="40.6222680" lon="-4.6768080">
        <ele>1157.5</ele>
        <time>2019-08-13T18:55:01Z</time>
      </trkpt>
      <trkpt lat="40.6223480" lon="-4.6768040">
        <ele>1156.7</ele>
        <time>2019-08-13T18:55:02Z</time>
      </trkpt>
      <trkpt lat="40.6224300" lon="-4.6768030">
        <ele>1156.1</ele>
        <time>2019-08-13T18:55:03Z</time>
      </trkpt>
      <trkpt lat="40.6225130" lon="-4.6768080">
        <ele>1155.4</ele>
        <time>2019-08-13T18:55:04Z</time>
      </trkpt>
      <trkpt lat="40.6225960" lon="-4.6768180">
        <ele>1154.7</ele>
        <time>2019-08-13T18:55:05Z</time>
      </trkpt>
      <trkpt lat="40.6226800" lon="-4.6768340">
        <ele>1153.8</ele>
        <time>2019-08-13T18:55:06Z</time>
      </trkpt>
      <trkpt lat="40.6227640" lon="-4.6768550">
        <ele>1152.9</ele>
        <time>2019-08-13T18:55:07Z</time>
      </trkpt>
      <trkpt lat="40.6228480" lon="-4.6768810">
        <ele>1152.4</ele>
        <time>2019-08-13T18:55:08Z</time>
      </trkpt>
      <trkpt lat="40.6229320" lon="-4.6769090">
        <ele>1152.1</ele>
        <time>2019-08-13T18:55:09Z</time>
      </trkpt>
      <trkpt lat="40.6230150" lon="-4.6769390">
        <ele>1151.6</ele>
        <time>2019-08-13T18:55:10Z</time>
      </trkpt>
      <trkpt lat="40.6230960" lon="-4.6769730">
        <ele>1151.2</ele>
        <time>2019-08-13T18:55:11Z</time>
      </trkpt>
      <trkpt lat="40.6231760" lon="-4.6770130">
        <ele>1150.8</ele>
        <time>2019-08-13T18:55:12Z</time>
      </trkpt>
      <trkpt lat="40.6232550" lon="-4.6770530">
        <ele>1150.3</ele>
        <time>2019-08-13T18:55:13Z</time>
      </trkpt>
      <trkpt lat="40.6233340" lon="-4.6770940">
        <ele>1149.7</ele>
        <time>2019-08-13T18:55:14Z</time>
      </trkpt>
      <trkpt lat="40.6234110" lon="-4.6771350">
        <ele>1149.2</ele>
        <time>2019-08-13T18:55:15Z</time>
      </trkpt>
      <trkpt lat="40.6234880" lon="-4.6771780">
        <ele>1148.7</ele>
        <time>2019-08-13T18:55:16Z</time>
      </trkpt>
      <trkpt lat="40.6235640" lon="-4.6772190">
        <ele>1148.2</ele>
        <time>2019-08-13T18:55:17Z</time>
      </trkpt>
      <trkpt lat="40.6236400" lon="-4.6772620">
        <ele>1147.7</ele>
        <time>2019-08-13T18:55:18Z</time>
      </trkpt>
      <trkpt lat="40.6237160" lon="-4.6773050">
        <ele>1147.3</ele>
        <time>2019-08-13T18:55:19Z</time>
      </trkpt>
      <trkpt lat="40.6237890" lon="-4.6773490">
        <ele>1146.9</ele>
        <time>2019-08-13T18:55:20Z</time>
      </trkpt>
      <trkpt lat="40.6238610" lon="-4.6773970">
        <ele>1146.5</ele>
        <time>2019-08-13T18:55:21Z</time>
      </trkpt>
      <trkpt lat="40.6239320" lon="-4.6774480">
        <ele>1146.1</ele>
        <time>2019-08-13T18:55:22Z</time>
      </trkpt>
      <trkpt lat="40.6240020" lon="-4.6775030">
        <ele>1145.7</ele>
        <time>2019-08-13T18:55:23Z</time>
      </trkpt>
      <trkpt lat="40.6240710" lon="-4.6775570">
        <ele>1145.4</ele>
        <time>2019-08-13T18:55:24Z</time>
      </trkpt>
      <trkpt lat="40.6241360" lon="-4.6776140">
        <ele>1145.1</ele>
        <time>2019-08-13T18:55:25Z</time>
      </trkpt>
      <trkpt lat="40.6242000" lon="-4.6776750">
        <ele>1144.8</ele>
        <time>2019-08-13T18:55:26Z</time>
      </trkpt>
      <trkpt lat="40.6242610" lon="-4.6777400">
        <ele>1144.4</ele>
        <time>2019-08-13T18:55:27Z</time>
      </trkpt>
      <trkpt lat="40.6243180" lon="-4.6778090">
        <ele>1143.9</ele>
        <time>2019-08-13T18:55:28Z</time>
      </trkpt>
      <trkpt lat="40.6243730" lon="-4.6778830">
        <ele>1143.6</ele>
        <time>2019-08-13T18:55:29Z</time>
      </trkpt>
      <trkpt lat="40.6244260" lon="-4.6779590">
        <ele>1143.2</ele>
        <time>2019-08-13T18:55:30Z</time>
      </trkpt>
      <trkpt lat="40.6244770" lon="-4.6780380">
        <ele>1142.8</ele>
        <time>2019-08-13T18:55:31Z</time>
      </trkpt>
      <trkpt lat="40.6245260" lon="-4.6781220">
        <ele>1142.4</ele>
        <time>2019-08-13T18:55:32Z</time>
      </trkpt>
      <trkpt lat="40.6245730" lon="-4.6782100">
        <ele>1142.0</ele>
        <time>2019-08-13T18:55:33Z</time>
      </trkpt>
      <trkpt lat="40.6246180" lon="-4.6783020">
        <ele>1141.7</ele>
        <time>2019-08-13T18:55:34Z</time>
      </trkpt>
      <trkpt lat="40.6246630" lon="-4.6784000">
        <ele>1141.4</ele>
        <time>2019-08-13T18:55:35Z</time>
      </trkpt>
      <trkpt lat="40.6247050" lon="-4.6785020">
        <ele>1140.8</ele>
        <time>2019-08-13T18:55:36Z</time>
      </trkpt>
      <trkpt lat="40.6247420" lon="-4.6786060">
        <ele>1140.4</ele>
        <time>2019-08-13T18:55:37Z</time>
      </trkpt>
      <trkpt lat="40.6247720" lon="-4.6787110">
        <ele>1140.0</ele>
        <time>2019-08-13T18:55:38Z</time>
      </trkpt>
      <trkpt lat="40.6247980" lon="-4.6788170">
        <ele>1139.5</ele>
        <time>2019-08-13T18:55:39Z</time>
      </trkpt>
      <trkpt lat="40.6248260" lon="-4.6789190">
        <ele>1138.9</ele>
        <time>2019-08-13T18:55:40Z</time>
      </trkpt>
      <trkpt lat="40.6248560" lon="-4.6790140">
        <ele>1138.5</ele>
        <time>2019-08-13T18:55:41Z</time>
      </trkpt>
      <trkpt lat="40.6248820" lon="-4.6791050">
        <ele>1138.1</ele>
        <time>2019-08-13T18:55:42Z</time>
      </trkpt>
      <trkpt lat="40.6249070" lon="-4.6791930">
        <ele>1137.6</ele>
        <time>2019-08-13T18:55:43Z</time>
      </trkpt>
      <trkpt lat="40.6249300" lon="-4.6792770">
        <ele>1137.2</ele>
        <time>2019-08-13T18:55:44Z</time>
      </trkpt>
      <trkpt lat="40.6249510" lon="-4.6793590">
        <ele>1136.7</ele>
        <time>2019-08-13T18:55:45Z</time>
      </trkpt>
      <trkpt lat="40.6249710" lon="-4.6794400">
        <ele>1136.3</ele>
        <time>2019-08-13T18:55:46Z</time>
      </trkpt>
      <trkpt lat="40.6249910" lon="-4.6795210">
        <ele>1135.8</ele>
        <time>2019-08-13T18:55:47Z</time>
      </trkpt>
      <trkpt lat="40.6250120" lon="-4.6796020">
        <ele>1135.2</ele>
        <time>2019-08-13T18:55:48Z</time>
      </trkpt>
      <trkpt lat="40.6250340" lon="-4.6796810">
        <ele>1134.7</ele>
        <time>2019-08-13T18:55:49Z</time>
      </trkpt>
      <trkpt lat="40.6250550" lon="-4.6797570">
        <ele>1134.3</ele>
        <time>2019-08-13T18:55:50Z</time>
      </trkpt>
      <trkpt lat="40.6250740" lon="-4.6798310">
        <ele>1133.9</ele>
        <time>2019-08-13T18:55:51Z</time>
      </trkpt>
      <trkpt lat="40.6250900" lon="-4.6799050">
        <ele>1133.6</ele>
        <time>2019-08-13T18:55:52Z</time>
      </trkpt>
      <trkpt lat="40.6251080" lon="-4.6799810">
        <ele>1133.2</ele>
        <time>2019-08-13T18:55:53Z</time>
      </trkpt>
      <trkpt lat="40.6251320" lon="-4.6800600">
        <ele>1132.8</ele>
        <time>2019-08-13T18:55:54Z</time>
      </trkpt>
      <trkpt lat="40.6251550" lon="-4.6801450">
        <ele>1132.4</ele>
        <time>2019-08-13T18:55:55Z</time>
      </trkpt>
      <trkpt lat="40.6251790" lon="-4.6802330">
        <ele>1132.0</ele>
        <time>2019-08-13T18:55:56Z</time>
      </trkpt>
      <trkpt lat="40.6252040" lon="-4.6803250">
        <ele>1131.6</ele>
        <time>2019-08-13T18:55:57Z</time>
      </trkpt>
      <trkpt lat="40.6252310" lon="-4.6804180">
        <ele>1131.1</ele>
        <time>2019-08-13T18:55:58Z</time>
      </trkpt>
      <trkpt lat="40.6252580" lon="-4.6805160">
        <ele>1130.7</ele>
        <time>2019-08-13T18:55:59Z</time>
      </trkpt>
      <trkpt lat="40.6252860" lon="-4.6806170">
        <ele>1130.2</ele>
        <time>2019-08-13T18:56:00Z</time>
      </trkpt>
      <trkpt lat="40.6253140" lon="-4.6807230">
        <ele>1129.8</ele>
        <time>2019-08-13T18:56:01Z</time>
      </trkpt>
      <trkpt lat="40.6253430" lon="-4.6808300">
        <ele>1129.3</ele>
        <time>2019-08-13T18:56:02Z</time>
      </trkpt>
      <trkpt lat="40.6253730" lon="-4.6809350">
        <ele>1128.8</ele>
        <time>2019-08-13T18:56:03Z</time>
      </trkpt>
      <trkpt lat="40.6253990" lon="-4.6810380">
        <ele>1128.3</ele>
        <time>2019-08-13T18:56:04Z</time>
      </trkpt>
      <trkpt lat="40.6254250" lon="-4.6811380">
        <ele>1127.8</ele>
        <time>2019-08-13T18:56:05Z</time>
      </trkpt>
      <trkpt lat="40.6254510" lon="-4.6812360">
        <ele>1127.4</ele>
        <time>2019-08-13T18:56:06Z</time>
      </trkpt>
      <trkpt lat="40.6254750" lon="-4.6813320">
        <ele>1126.9</ele>
        <time>2019-08-13T18:56:07Z</time>
      </trkpt>
      <trkpt lat="40.6254950" lon="-4.6814290">
        <ele>1126.6</ele>
        <time>2019-08-13T18:56:08Z</time>
      </trkpt>
      <trkpt lat="40.6255140" lon="-4.6815240">
        <ele>1126.3</ele>
        <time>2019-08-13T18:56:09Z</time>
      </trkpt>
      <trkpt lat="40.6255300" lon="-4.6816200">
        <ele>1125.9</ele>
        <time>2019-08-13T18:56:10Z</time>
      </trkpt>
      <trkpt lat="40.6255430" lon="-4.6817180">
        <ele>1125.7</ele>
        <time>2019-08-13T18:56:11Z</time>
      </trkpt>
      <trkpt lat="40.6255560" lon="-4.6818170">
        <ele>1125.4</ele>
        <time>2019-08-13T18:56:12Z</time>
      </trkpt>
      <trkpt lat="40.6255660" lon="-4.6819160">
        <ele>1125.2</ele>
        <time>2019-08-13T18:56:13Z</time>
      </trkpt>
      <trkpt lat="40.6255750" lon="-4.6820170">
        <ele>1125.0</ele>
        <time>2019-08-13T18:56:14Z</time>
      </trkpt>
      <trkpt lat="40.6255830" lon="-4.6821190">
        <ele>1124.7</ele>
        <time>2019-08-13T18:56:15Z</time>
      </trkpt>
      <trkpt lat="40.6255880" lon="-4.6822210">
        <ele>1124.4</ele>
        <time>2019-08-13T18:56:16Z</time>
      </trkpt>
      <trkpt lat="40.6255940" lon="-4.6823260">
        <ele>1124.1</ele>
        <time>2019-08-13T18:56:17Z</time>
      </trkpt>
      <trkpt lat="40.6255980" lon="-4.6824320">
        <ele>1123.8</ele>
        <time>2019-08-13T18:56:18Z</time>
      </trkpt>
      <trkpt lat="40.6256000" lon="-4.6825410">
        <ele>1123.6</ele>
        <time>2019-08-13T18:56:19Z</time>
      </trkpt>
      <trkpt lat="40.6255950" lon="-4.6826530">
        <ele>1123.2</ele>
        <time>2019-08-13T18:56:20Z</time>
      </trkpt>
      <trkpt lat="40.6255860" lon="-4.6827670">
        <ele>1122.9</ele>
        <time>2019-08-13T18:56:21Z</time>
      </trkpt>
      <trkpt lat="40.6255710" lon="-4.6828830">
        <ele>1122.5</ele>
        <time>2019-08-13T18:56:22Z</time>
      </trkpt>
      <trkpt lat="40.6255520" lon="-4.6830000">
        <ele>1122.0</ele>
        <time>2019-08-13T18:56:23Z</time>
      </trkpt>
      <trkpt lat="40.6255290" lon="-4.6831190">
        <ele>1121.5</ele>
        <time>2019-08-13T18:56:24Z</time>
      </trkpt>
      <trkpt lat="40.6255040" lon="-4.6832410">
        <ele>1121.0</ele>
        <time>2019-08-13T18:56:25Z</time>
      </trkpt>
      <trkpt lat="40.6254780" lon="-4.6833650">
        <ele>1120.4</ele>
        <time>2019-08-13T18:56:26Z</time>
      </trkpt>
      <trkpt lat="40.6254520" lon="-4.6834920">
        <ele>1120.0</ele>
        <time>2019-08-13T18:56:27Z</time>
      </trkpt>
      <trkpt lat="40.6254260" lon="-4.6836220">
        <ele>1119.5</ele>
        <time>2019-08-13T18:56:28Z</time>
      </trkpt>
      <trkpt lat="40.6253980" lon="-4.6837550">
        <ele>1118.9</ele>
        <time>2019-08-13T18:56:29Z</time>
      </trkpt>
      <trkpt lat="40.6253690" lon="-4.6838900">
        <ele>1118.2</ele>
        <time>2019-08-13T18:56:30Z</time>
      </trkpt>
      <trkpt lat="40.6253390" lon="-4.6840280">
        <ele>1117.6</ele>
        <time>2019-08-13T18:56:31Z</time>
      </trkpt>
      <trkpt lat="40.6253090" lon="-4.6841650">
        <ele>1116.9</ele>
        <time>2019-08-13T18:56:32Z</time>
      </trkpt>
      <trkpt lat="40.6252810" lon="-4.6843060">
        <ele>1116.0</ele>
        <time>2019-08-13T18:56:33Z</time>
      </trkpt>
      <trkpt lat="40.6252540" lon="-4.6844480">
        <ele>1115.3</ele>
        <time>2019-08-13T18:56:34Z</time>
      </trkpt>
      <trkpt lat="40.6252250" lon="-4.6845920">
        <ele>1114.6</ele>
        <time>2019-08-13T18:56:35Z</time>
      </trkpt>
      <trkpt lat="40.6251950" lon="-4.6847370">
        <ele>1113.8</ele>
        <time>2019-08-13T18:56:36Z</time>
      </trkpt>
      <trkpt lat="40.6251660" lon="-4.6848810">
        <ele>1113.1</ele>
        <time>2019-08-13T18:56:37Z</time>
      </trkpt>
      <trkpt lat="40.6251370" lon="-4.6850240">
        <ele>1112.4</ele>
        <time>2019-08-13T18:56:38Z</time>
      </trkpt>
      <trkpt lat="40.6251090" lon="-4.6851640">
        <ele>1111.6</ele>
        <time>2019-08-13T18:56:39Z</time>
      </trkpt>
      <trkpt lat="40.6250810" lon="-4.6853030">
        <ele>1110.8</ele>
        <time>2019-08-13T18:56:40Z</time>
      </trkpt>
      <trkpt lat="40.6250530" lon="-4.6854440">
        <ele>1110.0</ele>
        <time>2019-08-13T18:56:41Z</time>
      </trkpt>
      <trkpt lat="40.6250250" lon="-4.6855850">
        <ele>1109.4</ele>
        <time>2019-08-13T18:56:42Z</time>
      </trkpt>
      <trkpt lat="40.6249960" lon="-4.6857290">
        <ele>1108.8</ele>
        <time>2019-08-13T18:56:43Z</time>
      </trkpt>
      <trkpt lat="40.6249680" lon="-4.6858750">
        <ele>1108.1</ele>
        <time>2019-08-13T18:56:44Z</time>
      </trkpt>
      <trkpt lat="40.6249400" lon="-4.6860240">
        <ele>1107.4</ele>
        <time>2019-08-13T18:56:45Z</time>
      </trkpt>
      <trkpt lat="40.6249110" lon="-4.6861720">
        <ele>1106.7</ele>
        <time>2019-08-13T18:56:46Z</time>
      </trkpt>
      <trkpt lat="40.6248830" lon="-4.6863190">
        <ele>1106.1</ele>
        <time>2019-08-13T18:56:47Z</time>
      </trkpt>
      <trkpt lat="40.6248580" lon="-4.6864670">
        <ele>1104.8</ele>
        <time>2019-08-13T18:56:48Z</time>
      </trkpt>
      <trkpt lat="40.6248380" lon="-4.6866150">
        <ele>1103.6</ele>
        <time>2019-08-13T18:56:49Z</time>
      </trkpt>
      <trkpt lat="40.6248290" lon="-4.6867660">
        <ele>1102.5</ele>
        <time>2019-08-13T18:56:50Z</time>
      </trkpt>
      <trkpt lat="40.6248330" lon="-4.6869160">
        <ele>1101.5</ele>
        <time>2019-08-13T18:56:51Z</time>
      </trkpt>
      <trkpt lat="40.6248520" lon="-4.6870660">
        <ele>1100.5</ele>
        <time>2019-08-13T18:56:52Z</time>
      </trkpt>
      <trkpt lat="40.6248800" lon="-4.6872110">
        <ele>1099.7</ele>
        <time>2019-08-13T18:56:53Z</time>
      </trkpt>
      <trkpt lat="40.6249200" lon="-4.6873530">
        <ele>1099.1</ele>
        <time>2019-08-13T18:56:54Z</time>
      </trkpt>
      <trkpt lat="40.6249700" lon="-4.6874900">
        <ele>1098.7</ele>
        <time>2019-08-13T18:56:55Z</time>
      </trkpt>
      <trkpt lat="40.6250290" lon="-4.6876190">
        <ele>1098.3</ele>
        <time>2019-08-13T18:56:56Z</time>
      </trkpt>
      <trkpt lat="40.6250990" lon="-4.6877360">
        <ele>1097.9</ele>
        <time>2019-08-13T18:56:57Z</time>
      </trkpt>
      <trkpt lat="40.6251780" lon="-4.6878430">
        <ele>1097.4</ele>
        <time>2019-08-13T18:56:58Z</time>
      </trkpt>
      <trkpt lat="40.6252660" lon="-4.6879370">
        <ele>1096.8</ele>
        <time>2019-08-13T18:56:59Z</time>
      </trkpt>
      <trkpt lat="40.6253590" lon="-4.6880190">
        <ele>1096.3</ele>
        <time>2019-08-13T18:57:00Z</time>
      </trkpt>
      <trkpt lat="40.6254560" lon="-4.6880860">
        <ele>1095.9</ele>
        <time>2019-08-13T18:57:01Z</time>
      </trkpt>
      <trkpt lat="40.6255550" lon="-4.6881410">
        <ele>1095.6</ele>
        <time>2019-08-13T18:57:02Z</time>
      </trkpt>
      <trkpt lat="40.6256550" lon="-4.6881840">
        <ele>1095.3</ele>
        <time>2019-08-13T18:57:03Z</time>
      </trkpt>
      <trkpt lat="40.6257570" lon="-4.6882210">
        <ele>1094.9</ele>
        <time>2019-08-13T18:57:04Z</time>
      </trkpt>
      <trkpt lat="40.6258590" lon="-4.6882560">
        <ele>1094.4</ele>
        <time>2019-08-13T18:57:05Z</time>
      </trkpt>
      <trkpt lat="40.6259610" lon="-4.6882930">
        <ele>1093.7</ele>
        <time>2019-08-13T18:57:06Z</time>
      </trkpt>
      <trkpt lat="40.6260630" lon="-4.6883300">
        <ele>1093.0</ele>
        <time>2019-08-13T18:57:07Z</time>
      </trkpt>
      <trkpt lat="40.6261660" lon="-4.6883680">
        <ele>1092.2</ele>
        <time>2019-08-13T18:57:08Z</time>
      </trkpt>
      <trkpt lat="40.6262690" lon="-4.6884030">
        <ele>1091.3</ele>
        <time>2019-08-13T18:57:09Z</time>
      </trkpt>
      <trkpt lat="40.6263740" lon="-4.6884380">
        <ele>1090.4</ele>
        <time>2019-08-13T18:57:10Z</time>
      </trkpt>
      <trkpt lat="40.6264790" lon="-4.6884740">
        <ele>1089.8</ele>
        <time>2019-08-13T18:57:11Z</time>
      </trkpt>
      <trkpt lat="40.6265820" lon="-4.6885110">
        <ele>1089.3</ele>
        <time>2019-08-13T18:57:12Z</time>
      </trkpt>
      <trkpt lat="40.6266820" lon="-4.6885460">
        <ele>1088.7</ele>
        <time>2019-08-13T18:57:13Z</time>
      </trkpt>
      <trkpt lat="40.6267790" lon="-4.6885810">
        <ele>1088.4</ele>
        <time>2019-08-13T18:57:14Z</time>
      </trkpt>
      <trkpt lat="40.6268750" lon="-4.6886150">
        <ele>1088.0</ele>
        <time>2019-08-13T18:57:15Z</time>
      </trkpt>
      <trkpt lat="40.6269680" lon="-4.6886480">
        <ele>1087.8</ele>
        <time>2019-08-13T18:57:16Z</time>
      </trkpt>
      <trkpt lat="40.6270590" lon="-4.6886810">
        <ele>1087.6</ele>
        <time>2019-08-13T18:57:17Z</time>
      </trkpt>
      <trkpt lat="40.6271480" lon="-4.6887140">
        <ele>1087.4</ele>
        <time>2019-08-13T18:57:18Z</time>
      </trkpt>
      <trkpt lat="40.6272350" lon="-4.6887450">
        <ele>1087.2</ele>
        <time>2019-08-13T18:57:19Z</time>
      </trkpt>
      <trkpt lat="40.6273200" lon="-4.6887760">
        <ele>1087.0</ele>
        <time>2019-08-13T18:57:20Z</time>
      </trkpt>
      <trkpt lat="40.6274030" lon="-4.6888070">
        <ele>1086.9</ele>
        <time>2019-08-13T18:57:21Z</time>
      </trkpt>
      <trkpt lat="40.6274850" lon="-4.6888370">
        <ele>1086.7</ele>
        <time>2019-08-13T18:57:22Z</time>
      </trkpt>
      <trkpt lat="40.6275650" lon="-4.6888660">
        <ele>1086.6</ele>
        <time>2019-08-13T18:57:23Z</time>
      </trkpt>
      <trkpt lat="40.6276430" lon="-4.6888940">
        <ele>1086.6</ele>
        <time>2019-08-13T18:57:24Z</time>
      </trkpt>
      <trkpt lat="40.6277200" lon="-4.6889210">
        <ele>1086.5</ele>
        <time>2019-08-13T18:57:25Z</time>
      </trkpt>
      <trkpt lat="40.6277960" lon="-4.6889480">
        <ele>1086.4</ele>
        <time>2019-08-13T18:57:26Z</time>
      </trkpt>
      <trkpt lat="40.6278690" lon="-4.6889730">
        <ele>1086.3</ele>
        <time>2019-08-13T18:57:27Z</time>
      </trkpt>
      <trkpt lat="40.6279420" lon="-4.6889960">
        <ele>1086.2</ele>
        <time>2019-08-13T18:57:28Z</time>
      </trkpt>
      <trkpt lat="40.6280140" lon="-4.6890190">
        <ele>1086.0</ele>
        <time>2019-08-13T18:57:29Z</time>
      </trkpt>
      <trkpt lat="40.6280870" lon="-4.6890410">
        <ele>1085.9</ele>
        <time>2019-08-13T18:57:30Z</time>
      </trkpt>
      <trkpt lat="40.6281590" lon="-4.6890640">
        <ele>1085.6</ele>
        <time>2019-08-13T18:57:31Z</time>
      </trkpt>
      <trkpt lat="40.6282330" lon="-4.6890880">
        <ele>1085.3</ele>
        <time>2019-08-13T18:57:32Z</time>
      </trkpt>
      <trkpt lat="40.6283070" lon="-4.6891130">
        <ele>1084.9</ele>
        <time>2019-08-13T18:57:33Z</time>
      </trkpt>
      <trkpt lat="40.6283810" lon="-4.6891390">
        <ele>1084.5</ele>
        <time>2019-08-13T18:57:34Z</time>
      </trkpt>
      <trkpt lat="40.6284570" lon="-4.6891640">
        <ele>1084.2</ele>
        <time>2019-08-13T18:57:35Z</time>
      </trkpt>
      <trkpt lat="40.6285330" lon="-4.6891880">
        <ele>1083.8</ele>
        <time>2019-08-13T18:57:36Z</time>
      </trkpt>
      <trkpt lat="40.6286100" lon="-4.6892120">
        <ele>1083.4</ele>
        <time>2019-08-13T18:57:37Z</time>
      </trkpt>
      <trkpt lat="40.6286890" lon="-4.6892330">
        <ele>1082.8</ele>
        <time>2019-08-13T18:57:38Z</time>
      </trkpt>
      <trkpt lat="40.6287690" lon="-4.6892540">
        <ele>1082.4</ele>
        <time>2019-08-13T18:57:39Z</time>
      </trkpt>
      <trkpt lat="40.6288500" lon="-4.6892770">
        <ele>1082.0</ele>
        <time>2019-08-13T18:57:40Z</time>
      </trkpt>
      <trkpt lat="40.6289310" lon="-4.6893020">
        <ele>1081.7</ele>
        <time>2019-08-13T18:57:41Z</time>
      </trkpt>
      <trkpt lat="40.6290140" lon="-4.6893260">
        <ele>1081.4</ele>
        <time>2019-08-13T18:57:42Z</time>
      </trkpt>
      <trkpt lat="40.6290970" lon="-4.6893510">
        <ele>1081.0</ele>
        <time>2019-08-13T18:57:43Z</time>
      </trkpt>
      <trkpt lat="40.6291820" lon="-4.6893760">
        <ele>1080.6</ele>
        <time>2019-08-13T18:57:44Z</time>
      </trkpt>
      <trkpt lat="40.6292650" lon="-4.6894020">
        <ele>1080.1</ele>
        <time>2019-08-13T18:57:45Z</time>
      </trkpt>
      <trkpt lat="40.6293490" lon="-4.6894300">
        <ele>1079.7</ele>
        <time>2019-08-13T18:57:46Z</time>
      </trkpt>
      <trkpt lat="40.6294340" lon="-4.6894580">
        <ele>1079.2</ele>
        <time>2019-08-13T18:57:47Z</time>
      </trkpt>
      <trkpt lat="40.6295210" lon="-4.6894850">
        <ele>1078.8</ele>
        <time>2019-08-13T18:57:48Z</time>
      </trkpt>
      <trkpt lat="40.6296070" lon="-4.6895140">
        <ele>1078.4</ele>
        <time>2019-08-13T18:57:49Z</time>
      </trkpt>
      <trkpt lat="40.6296920" lon="-4.6895450">
        <ele>1078.1</ele>
        <time>2019-08-13T18:57:50Z</time>
      </trkpt>
      <trkpt lat="40.6297770" lon="-4.6895750">
        <ele>1077.7</ele>
        <time>2019-08-13T18:57:51Z</time>
      </trkpt>
      <trkpt lat="40.6298630" lon="-4.6896040">
        <ele>1077.3</ele>
        <time>2019-08-13T18:57:52Z</time>
      </trkpt>
      <trkpt lat="40.6299480" lon="-4.6896350">
        <ele>1076.8</ele>
        <time>2019-08-13T18:57:53Z</time>
      </trkpt>
      <trkpt lat="40.6300350" lon="-4.6896670">
        <ele>1076.5</ele>
        <time>2019-08-13T18:57:54Z</time>
      </trkpt>
      <trkpt lat="40.6301210" lon="-4.6896980">
        <ele>1076.2</ele>
        <time>2019-08-13T18:57:55Z</time>
      </trkpt>
      <trkpt lat="40.6302060" lon="-4.6897310">
        <ele>1075.9</ele>
        <time>2019-08-13T18:57:56Z</time>
      </trkpt>
      <trkpt lat="40.6302910" lon="-4.6897640">
        <ele>1075.6</ele>
        <time>2019-08-13T18:57:57Z</time>
      </trkpt>
      <trkpt lat="40.6303740" lon="-4.6897960">
        <ele>1075.5</ele>
        <time>2019-08-13T18:57:58Z</time>
      </trkpt>
      <trkpt lat="40.6304560" lon="-4.6898260">
        <ele>1075.3</ele>
        <time>2019-08-13T18:57:59Z</time>
      </trkpt>
      <trkpt lat="40.6305370" lon="-4.6898550">
        <ele>1075.2</ele>
        <time>2019-08-13T18:58:00Z</time>
      </trkpt>
      <trkpt lat="40.6306170" lon="-4.6898830">
        <ele>1075.1</ele>
        <time>2019-08-13T18:58:01Z</time>
      </trkpt>
      <trkpt lat="40.6306960" lon="-4.6899120">
        <ele>1075.0</ele>
        <time>2019-08-13T18:58:02Z</time>
      </trkpt>
      <trkpt lat="40.6307730" lon="-4.6899400">
        <ele>1075.0</ele>
        <time>2019-08-13T18:58:03Z</time>
      </trkpt>
      <trkpt lat="40.6308500" lon="-4.6899680">
        <ele>1074.9</ele>
        <time>2019-08-13T18:58:04Z</time>
      </trkpt>
      <trkpt lat="40.6309260" lon="-4.6899950">
        <ele>1074.9</ele>
        <time>2019-08-13T18:58:05Z</time>
      </trkpt>
      <trkpt lat="40.6310010" lon="-4.6900210">
        <ele>1074.8</ele>
        <time>2019-08-13T18:58:06Z</time>
      </trkpt>
      <trkpt lat="40.6310750" lon="-4.6900480">
        <ele>1074.8</ele>
        <time>2019-08-13T18:58:07Z</time>
      </trkpt>
      <trkpt lat="40.6311510" lon="-4.6900730">
        <ele>1074.7</ele>
        <time>2019-08-13T18:58:08Z</time>
      </trkpt>
      <trkpt lat="40.6312240" lon="-4.6901000">
        <ele>1074.6</ele>
        <time>2019-08-13T18:58:09Z</time>
      </trkpt>
      <trkpt lat="40.6312970" lon="-4.6901260">
        <ele>1074.5</ele>
        <time>2019-08-13T18:58:10Z</time>
      </trkpt>
      <trkpt lat="40.6313690" lon="-4.6901520">
        <ele>1074.4</ele>
        <time>2019-08-13T18:58:11Z</time>
      </trkpt>
      <trkpt lat="40.6314390" lon="-4.6901770">
        <ele>1074.3</ele>
        <time>2019-08-13T18:58:12Z</time>
      </trkpt>
      <trkpt lat="40.6315090" lon="-4.6902010">
        <ele>1074.2</ele>
        <time>2019-08-13T18:58:13Z</time>
      </trkpt>
      <trkpt lat="40.6315790" lon="-4.6902260">
        <ele>1074.2</ele>
        <time>2019-08-13T18:58:14Z</time>
      </trkpt>
      <trkpt lat="40.6316470" lon="-4.6902500">
        <ele>1074.1</ele>
        <time>2019-08-13T18:58:15Z</time>
      </trkpt>
      <trkpt lat="40.6317160" lon="-4.6902750">
        <ele>1074.1</ele>
        <time>2019-08-13T18:58:16Z</time>
      </trkpt>
      <trkpt lat="40.6317830" lon="-4.6902990">
        <ele>1074.1</ele>
        <time>2019-08-13T18:58:17Z</time>
      </trkpt>
      <trkpt lat="40.6318510" lon="-4.6903230">
        <ele>1074.1</ele>
        <time>2019-08-13T18:58:18Z</time>
      </trkpt>
      <trkpt lat="40.6319180" lon="-4.6903470">
        <ele>1074.2</ele>
        <time>2019-08-13T18:58:19Z</time>
      </trkpt>
      <trkpt lat="40.6319860" lon="-4.6903720">
        <ele>1074.2</ele>
        <time>2019-08-13T18:58:20Z</time>
      </trkpt>
      <trkpt lat="40.6320510" lon="-4.6903930">
        <ele>1074.2</ele>
        <time>2019-08-13T18:58:21Z</time>
      </trkpt>
      <trkpt lat="40.6321160" lon="-4.6904150">
        <ele>1074.2</ele>
        <time>2019-08-13T18:58:22Z</time>
      </trkpt>
      <trkpt lat="40.6321790" lon="-4.6904390">
        <ele>1074.0</ele>
        <time>2019-08-13T18:58:23Z</time>
      </trkpt>
      <trkpt lat="40.6322400" lon="-4.6904620">
        <ele>1073.9</ele>
        <time>2019-08-13T18:58:24Z</time>
      </trkpt>
      <trkpt lat="40.6323000" lon="-4.6904830">
        <ele>1073.8</ele>
        <time>2019-08-13T18:58:25Z</time>
      </trkpt>
      <trkpt lat="40.6323580" lon="-4.6905020">
        <ele>1073.7</ele>
        <time>2019-08-13T18:58:26Z</time>
      </trkpt>
      <trkpt lat="40.6324150" lon="-4.6905170">
        <ele>1073.5</ele>
        <time>2019-08-13T18:58:27Z</time>
      </trkpt>
      <trkpt lat="40.6324710" lon="-4.6905210">
        <ele>1073.4</ele>
        <time>2019-08-13T18:58:28Z</time>
      </trkpt>
      <trkpt lat="40.6325260" lon="-4.6905110">
        <ele>1073.1</ele>
        <time>2019-08-13T18:58:29Z</time>
      </trkpt>
      <trkpt lat="40.6325770" lon="-4.6904850">
        <ele>1073.1</ele>
        <time>2019-08-13T18:58:30Z</time>
      </trkpt>
      <trkpt lat="40.6326180" lon="-4.6904380">
        <ele>1073.0</ele>
        <time>2019-08-13T18:58:31Z</time>
      </trkpt>
      <trkpt lat="40.6326440" lon="-4.6903720">
        <ele>1072.9</ele>
        <time>2019-08-13T18:58:32Z</time>
      </trkpt>
      <trkpt lat="40.6326560" lon="-4.6903000">
        <ele>1072.9</ele>
        <time>2019-08-13T18:58:33Z</time>
      </trkpt>
      <trkpt lat="40.6326560" lon="-4.6902260">
        <ele>1072.9</ele>
        <time>2019-08-13T18:58:34Z</time>
      </trkpt>
      <trkpt lat="40.6326480" lon="-4.6901570">
        <ele>1072.9</ele>
        <time>2019-08-13T18:58:35Z</time>
      </trkpt>
      <trkpt lat="40.6326380" lon="-4.6900890">
        <ele>1073.0</ele>
        <time>2019-08-13T18:58:36Z</time>
      </trkpt>
      <trkpt lat="40.6326320" lon="-4.6900210">
        <ele>1073.0</ele>
        <time>2019-08-13T18:58:37Z</time>
      </trkpt>
      <trkpt lat="40.6326310" lon="-4.6899530">
        <ele>1073.0</ele>
        <time>2019-08-13T18:58:38Z</time>
      </trkpt>
      <trkpt lat="40.6326330" lon="-4.6898860">
        <ele>1073.1</ele>
        <time>2019-08-13T18:58:39Z</time>
      </trkpt>
      <trkpt lat="40.6326360" lon="-4.6898180">
        <ele>1073.1</ele>
        <time>2019-08-13T18:58:40Z</time>
      </trkpt>
      <trkpt lat="40.6326400" lon="-4.6897500">
        <ele>1073.2</ele>
        <time>2019-08-13T18:58:41Z</time>
      </trkpt>
      <trkpt lat="40.6326460" lon="-4.6896820">
        <ele>1073.2</ele>
        <time>2019-08-13T18:58:42Z</time>
      </trkpt>
      <trkpt lat="40.6326480" lon="-4.6896150">
        <ele>1073.3</ele>
        <time>2019-08-13T18:58:43Z</time>
      </trkpt>
      <trkpt lat="40.6326480" lon="-4.6895470">
        <ele>1073.3</ele>
        <time>2019-08-13T18:58:44Z</time>
      </trkpt>
      <trkpt lat="40.6326510" lon="-4.6894780">
        <ele>1073.4</ele>
        <time>2019-08-13T18:58:45Z</time>
      </trkpt>
      <trkpt lat="40.6326530" lon="-4.6894100">
        <ele>1073.5</ele>
        <time>2019-08-13T18:58:46Z</time>
      </trkpt>
      <trkpt lat="40.6326550" lon="-4.6893410">
        <ele>1073.7</ele>
        <time>2019-08-13T18:58:47Z</time>
      </trkpt>
      <trkpt lat="40.6326570" lon="-4.6892740">
        <ele>1073.8</ele>
        <time>2019-08-13T18:58:48Z</time>
      </trkpt>
      <trkpt lat="40.6326610" lon="-4.6892080">
        <ele>1073.9</ele>
        <time>2019-08-13T18:58:49Z</time>
      </trkpt>
      <trkpt lat="40.6326630" lon="-4.6891460">
        <ele>1073.9</ele>
        <time>2019-08-13T18:58:50Z</time>
      </trkpt>
      <trkpt lat="40.6326640" lon="-4.6890860">
        <ele>1074.0</ele>
        <time>2019-08-13T18:58:51Z</time>
      </trkpt>
      <trkpt lat="40.6326660" lon="-4.6890300">
        <ele>1074.1</ele>
        <time>2019-08-13T18:58:52Z</time>
      </trkpt>
      <trkpt lat="40.6326680" lon="-4.6889770">
        <ele>1074.1</ele>
        <time>2019-08-13T18:58:53Z</time>
      </trkpt>
      <trkpt lat="40.6326710" lon="-4.6889260">
        <ele>1074.1</ele>
        <time>2019-08-13T18:58:54Z</time>
      </trkpt>
      <trkpt lat="40.6326770" lon="-4.6888790">
        <ele>1074.2</ele>
        <time>2019-08-13T18:58:55Z</time>
      </trkpt>
      <trkpt lat="40.6326900" lon="-4.6888400">
        <ele>1074.2</ele>
        <time>2019-08-13T18:58:56Z</time>
      </trkpt>
      <trkpt lat="40.6327120" lon="-4.6888090">
        <ele>1074.2</ele>
        <time>2019-08-13T18:58:57Z</time>
      </trkpt>
      <trkpt lat="40.6327400" lon="-4.6887890">
        <ele>1074.2</ele>
        <time>2019-08-13T18:58:58Z</time>
      </trkpt>
      <trkpt lat="40.6327720" lon="-4.6887840">
        <ele>1074.1</ele>
        <time>2019-08-13T18:58:59Z</time>
      </trkpt>
      <trkpt lat="40.6328060" lon="-4.6887880">
        <ele>1074.1</ele>
        <time>2019-08-13T18:59:00Z</time>
      </trkpt>
      <trkpt lat="40.6328410" lon="-4.6887980">
        <ele>1074.0</ele>
        <time>2019-08-13T18:59:01Z</time>
      </trkpt>
      <trkpt lat="40.6328780" lon="-4.6888080">
        <ele>1073.9</ele>
        <time>2019-08-13T18:59:02Z</time>
      </trkpt>
      <trkpt lat="40.6329170" lon="-4.6888170">
        <ele>1073.9</ele>
        <time>2019-08-13T18:59:03Z</time>
      </trkpt>
      <trkpt lat="40.6329590" lon="-4.6888270">
        <ele>1073.8</ele>
        <time>2019-08-13T18:59:04Z</time>
      </trkpt>
      <trkpt lat="40.6330010" lon="-4.6888380">
        <ele>1073.7</ele>
        <time>2019-08-13T18:59:05Z</time>
      </trkpt>
      <trkpt lat="40.6330450" lon="-4.6888490">
        <ele>1073.6</ele>
        <time>2019-08-13T18:59:06Z</time>
      </trkpt>
      <trkpt lat="40.6330900" lon="-4.6888610">
        <ele>1073.6</ele>
        <time>2019-08-13T18:59:07Z</time>
      </trkpt>
      <trkpt lat="40.6331350" lon="-4.6888740">
        <ele>1073.5</ele>
        <time>2019-08-13T18:59:08Z</time>
      </trkpt>
      <trkpt lat="40.6331800" lon="-4.6888880">
        <ele>1073.3</ele>
        <time>2019-08-13T18:59:09Z</time>
      </trkpt>
      <trkpt lat="40.6332230" lon="-4.6889000">
        <ele>1073.3</ele>
        <time>2019-08-13T18:59:10Z</time>
      </trkpt>
      <trkpt lat="40.6332640" lon="-4.6889110">
        <ele>1073.2</ele>
        <time>2019-08-13T18:59:11Z</time>
      </trkpt>
      <trkpt lat="40.6333050" lon="-4.6889210">
        <ele>1073.1</ele>
        <time>2019-08-13T18:59:12Z</time>
      </trkpt>
      <trkpt lat="40.6333450" lon="-4.6889330">
        <ele>1073.0</ele>
        <time>2019-08-13T18:59:13Z</time>
      </trkpt>
      <trkpt lat="40.6333860" lon="-4.6889460">
        <ele>1072.9</ele>
        <time>2019-08-13T18:59:14Z</time>
      </trkpt>
      <trkpt lat="40.6334240" lon="-4.6889560">
        <ele>1072.8</ele>
        <time>2019-08-13T18:59:15Z</time>
      </trkpt>
      <trkpt lat="40.6334620" lon="-4.6889640">
        <ele>1072.8</ele>
        <time>2019-08-13T18:59:16Z</time>
      </trkpt>
      <trkpt lat="40.6334980" lon="-4.6889720">
        <ele>1072.6</ele>
        <time>2019-08-13T18:59:17Z</time>
      </trkpt>
      <trkpt lat="40.6335330" lon="-4.6889820">
        <ele>1072.5</ele>
        <time>2019-08-13T18:59:18Z</time>
      </trkpt>
      <trkpt lat="40.6335680" lon="-4.6889920">
        <ele>1072.5</ele>
        <time>2019-08-13T18:59:19Z</time>
      </trkpt>
      <trkpt lat="40.6336030" lon="-4.6889990">
        <ele>1072.4</ele>
        <time>2019-08-13T18:59:20Z</time>
      </trkpt>
      <trkpt lat="40.6336370" lon="-4.6890060">
        <ele>1072.3</ele>
        <time>2019-08-13T18:59:21Z</time>
      </trkpt>
      <trkpt lat="40.6336700" lon="-4.6890140">
        <ele>1072.2</ele>
        <time>2019-08-13T18:59:22Z</time>
      </trkpt>
      <trkpt lat="40.6337020" lon="-4.6890210">
        <ele>1072.1</ele>
        <time>2019-08-13T18:59:23Z</time>
      </trkpt>
      <trkpt lat="40.6337330" lon="-4.6890250">
        <ele>1072.1</ele>
        <time>2019-08-13T18:59:24Z</time>
      </trkpt>
      <trkpt lat="40.6337630" lon="-4.6890230">
        <ele>1072.0</ele>
        <time>2019-08-13T18:59:25Z</time>
      </trkpt>
      <trkpt lat="40.6337930" lon="-4.6890150">
        <ele>1072.0</ele>
        <time>2019-08-13T18:59:26Z</time>
      </trkpt>
      <trkpt lat="40.6338220" lon="-4.6890050">
        <ele>1071.9</ele>
        <time>2019-08-13T18:59:27Z</time>
      </trkpt>
      <trkpt lat="40.6338510" lon="-4.6889940">
        <ele>1071.9</ele>
        <time>2019-08-13T18:59:28Z</time>
      </trkpt>
      <trkpt lat="40.6338770" lon="-4.6889810">
        <ele>1071.8</ele>
        <time>2019-08-13T18:59:29Z</time>
      </trkpt>
      <trkpt lat="40.6339040" lon="-4.6889710">
        <ele>1071.7</ele>
        <time>2019-08-13T18:59:30Z</time>
      </trkpt>
      <trkpt lat="40.6339520" lon="-4.6889630">
        <ele>1071.7</ele>
        <time>2019-08-13T18:59:32Z</time>
      </trkpt>
      <trkpt lat="40.6340040" lon="-4.6889660">
        <ele>1071.6</ele>
        <time>2019-08-13T18:59:34Z</time>
      </trkpt>
      <trkpt lat="40.6340370" lon="-4.6889680">
        <ele>1071.5</ele>
        <time>2019-08-13T18:59:36Z</time>
      </trkpt>
      <trkpt lat="40.6340680" lon="-4.6889510">
        <ele>1071.5</ele>
        <time>2019-08-13T18:59:38Z</time>
      </trkpt>
      <trkpt lat="40.6340830" lon="-4.6888970">
        <ele>1071.6</ele>
        <time>2019-08-13T18:59:40Z</time>
      </trkpt>
      <trkpt lat="40.6340880" lon="-4.6888270">
        <ele>1071.6</ele>
        <time>2019-08-13T18:59:42Z</time>
      </trkpt>
      <trkpt lat="40.6340940" lon="-4.6887910">
        <ele>1071.5</ele>
        <time>2019-08-13T18:59:43Z</time>
      </trkpt>
      <trkpt lat="40.6340990" lon="-4.6887550">
        <ele>1071.5</ele>
        <time>2019-08-13T18:59:44Z</time>
      </trkpt>
      <trkpt lat="40.6341120" lon="-4.6886950">
        <ele>1071.5</ele>
        <time>2019-08-13T18:59:46Z</time>
      </trkpt>
      <trkpt lat="40.6341190" lon="-4.6886340">
        <ele>1071.5</ele>
        <time>2019-08-13T18:59:48Z</time>
      </trkpt>
      <trkpt lat="40.6341370" lon="-4.6885770">
        <ele>1071.5</ele>
        <time>2019-08-13T18:59:50Z</time>
      </trkpt>
      <trkpt lat="40.6341550" lon="-4.6885500">
        <ele>1071.4</ele>
        <time>2019-08-13T18:59:51Z</time>
      </trkpt>
      <trkpt lat="40.6341920" lon="-4.6885070">
        <ele>1071.4</ele>
        <time>2019-08-13T18:59:53Z</time>
      </trkpt>
      <trkpt lat="40.6342240" lon="-4.6884610">
        <ele>1071.4</ele>
        <time>2019-08-13T19:00:14Z</time>
      </trkpt>
      <trkpt lat="40.6342390" lon="-4.6884080">
        <ele>1071.2</ele>
        <time>2019-08-13T19:00:16Z</time>
      </trkpt>
      <trkpt lat="40.6342480" lon="-4.6883690">
        <ele>1071.2</ele>
        <time>2019-08-13T19:00:17Z</time>
      </trkpt>
      <trkpt lat="40.6342630" lon="-4.6883360">
        <ele>1071.1</ele>
        <time>2019-08-13T19:00:18Z</time>
      </trkpt>
      <trkpt lat="40.6342880" lon="-4.6883080">
        <ele>1071.0</ele>
        <time>2019-08-13T19:00:19Z</time>
      </trkpt>
      <trkpt lat="40.6343190" lon="-4.6882900">
        <ele>1071.0</ele>
        <time>2019-08-13T19:00:20Z</time>
      </trkpt>
      <trkpt lat="40.6343550" lon="-4.6882800">
        <ele>1070.9</ele>
        <time>2019-08-13T19:00:21Z</time>
      </trkpt>
      <trkpt lat="40.6343930" lon="-4.6882780">
        <ele>1070.8</ele>
        <time>2019-08-13T19:00:22Z</time>
      </trkpt>
      <trkpt lat="40.6344320" lon="-4.6882820">
        <ele>1070.8</ele>
        <time>2019-08-13T19:00:23Z</time>
      </trkpt>
      <trkpt lat="40.6344730" lon="-4.6882930">
        <ele>1070.7</ele>
        <time>2019-08-13T19:00:24Z</time>
      </trkpt>
      <trkpt lat="40.6345120" lon="-4.6883040">
        <ele>1070.6</ele>
        <time>2019-08-13T19:00:25Z</time>
      </trkpt>
      <trkpt lat="40.6345510" lon="-4.6883190">
        <ele>1070.6</ele>
        <time>2019-08-13T19:00:26Z</time>
      </trkpt>
      <trkpt lat="40.6345940" lon="-4.6883310">
        <ele>1070.6</ele>
        <time>2019-08-13T19:00:27Z</time>
      </trkpt>
      <trkpt lat="40.6346340" lon="-4.6883420">
        <ele>1070.6</ele>
        <time>2019-08-13T19:00:28Z</time>
      </trkpt>
      <trkpt lat="40.6346730" lon="-4.6883520">
        <ele>1070.5</ele>
        <time>2019-08-13T19:00:29Z</time>
      </trkpt>
      <trkpt lat="40.6347100" lon="-4.6883620">
        <ele>1070.5</ele>
        <time>2019-08-13T19:00:30Z</time>
      </trkpt>
      <trkpt lat="40.6347490" lon="-4.6883720">
        <ele>1070.5</ele>
        <time>2019-08-13T19:00:31Z</time>
      </trkpt>
      <trkpt lat="40.6347900" lon="-4.6883840">
        <ele>1070.4</ele>
        <time>2019-08-13T19:00:32Z</time>
      </trkpt>
      <trkpt lat="40.6348290" lon="-4.6883970">
        <ele>1070.4</ele>
        <time>2019-08-13T19:00:33Z</time>
      </trkpt>
      <trkpt lat="40.6348690" lon="-4.6884070">
        <ele>1070.3</ele>
        <time>2019-08-13T19:00:34Z</time>
      </trkpt>
      <trkpt lat="40.6349110" lon="-4.6884160">
        <ele>1070.3</ele>
        <time>2019-08-13T19:00:35Z</time>
      </trkpt>
      <trkpt lat="40.6349540" lon="-4.6884180">
        <ele>1070.3</ele>
        <time>2019-08-13T19:00:36Z</time>
      </trkpt>
      <trkpt lat="40.6349960" lon="-4.6884090">
        <ele>1070.2</ele>
        <time>2019-08-13T19:00:37Z</time>
      </trkpt>
      <trkpt lat="40.6350370" lon="-4.6883910">
        <ele>1069.9</ele>
        <time>2019-08-13T19:00:38Z</time>
      </trkpt>
      <trkpt lat="40.6350780" lon="-4.6883720">
        <ele>1069.7</ele>
        <time>2019-08-13T19:00:39Z</time>
      </trkpt>
      <trkpt lat="40.6351200" lon="-4.6883610">
        <ele>1069.6</ele>
        <time>2019-08-13T19:00:40Z</time>
      </trkpt>
      <trkpt lat="40.6351620" lon="-4.6883630">
        <ele>1069.4</ele>
        <time>2019-08-13T19:00:41Z</time>
      </trkpt>
      <trkpt lat="40.6352020" lon="-4.6883820">
        <ele>1069.4</ele>
        <time>2019-08-13T19:00:42Z</time>
      </trkpt>
      <trkpt lat="40.6352380" lon="-4.6884120">
        <ele>1069.4</ele>
        <time>2019-08-13T19:00:43Z</time>
      </trkpt>
      <trkpt lat="40.6352740" lon="-4.6884460">
        <ele>1069.4</ele>
        <time>2019-08-13T19:00:44Z</time>
      </trkpt>
      <trkpt lat="40.6353090" lon="-4.6884820">
        <ele>1069.3</ele>
        <time>2019-08-13T19:00:45Z</time>
      </trkpt>
      <trkpt lat="40.6353480" lon="-4.6885090">
        <ele>1069.2</ele>
        <time>2019-08-13T19:00:46Z</time>
      </trkpt>
      <trkpt lat="40.6353920" lon="-4.6885280">
        <ele>1069.1</ele>
        <time>2019-08-13T19:00:47Z</time>
      </trkpt>
      <trkpt lat="40.6354370" lon="-4.6885390">
        <ele>1069.0</ele>
        <time>2019-08-13T19:00:48Z</time>
      </trkpt>
      <trkpt lat="40.6354830" lon="-4.6885500">
        <ele>1068.9</ele>
        <time>2019-08-13T19:00:49Z</time>
      </trkpt>
      <trkpt lat="40.6355300" lon="-4.6885620">
        <ele>1068.8</ele>
        <time>2019-08-13T19:00:50Z</time>
      </trkpt>
      <trkpt lat="40.6355780" lon="-4.6885740">
        <ele>1068.7</ele>
        <time>2019-08-13T19:00:51Z</time>
      </trkpt>
      <trkpt lat="40.6356270" lon="-4.6885840">
        <ele>1068.6</ele>
        <time>2019-08-13T19:00:52Z</time>
      </trkpt>
      <trkpt lat="40.6356760" lon="-4.6885940">
        <ele>1068.5</ele>
        <time>2019-08-13T19:00:53Z</time>
      </trkpt>
      <trkpt lat="40.6357260" lon="-4.6886060">
        <ele>1068.5</ele>
        <time>2019-08-13T19:00:54Z</time>
      </trkpt>
      <trkpt lat="40.6357760" lon="-4.6886170">
        <ele>1068.4</ele>
        <time>2019-08-13T19:00:55Z</time>
      </trkpt>
      <trkpt lat="40.6358250" lon="-4.6886270">
        <ele>1068.3</ele>
        <time>2019-08-13T19:00:56Z</time>
      </trkpt>
      <trkpt lat="40.6358750" lon="-4.6886370">
        <ele>1068.2</ele>
        <time>2019-08-13T19:00:57Z</time>
      </trkpt>
      <trkpt lat="40.6359250" lon="-4.6886490">
        <ele>1068.2</ele>
        <time>2019-08-13T19:00:58Z</time>
      </trkpt>
      <trkpt lat="40.6359750" lon="-4.6886590">
        <ele>1068.2</ele>
        <time>2019-08-13T19:00:59Z</time>
      </trkpt>
      <trkpt lat="40.6360260" lon="-4.6886720">
        <ele>1068.2</ele>
        <time>2019-08-13T19:01:00Z</time>
      </trkpt>
      <trkpt lat="40.6360760" lon="-4.6886840">
        <ele>1068.1</ele>
        <time>2019-08-13T19:01:01Z</time>
      </trkpt>
      <trkpt lat="40.6361260" lon="-4.6886960">
        <ele>1068.1</ele>
        <time>2019-08-13T19:01:02Z</time>
      </trkpt>
      <trkpt lat="40.6361770" lon="-4.6887080">
        <ele>1068.1</ele>
        <time>2019-08-13T19:01:03Z</time>
      </trkpt>
      <trkpt lat="40.6362270" lon="-4.6887190">
        <ele>1068.0</ele>
        <time>2019-08-13T19:01:04Z</time>
      </trkpt>
      <trkpt lat="40.6362770" lon="-4.6887310">
        <ele>1068.1</ele>
        <time>2019-08-13T19:01:05Z</time>
      </trkpt>
      <trkpt lat="40.6363270" lon="-4.6887420">
        <ele>1068.1</ele>
        <time>2019-08-13T19:01:06Z</time>
      </trkpt>
      <trkpt lat="40.6363750" lon="-4.6887540">
        <ele>1068.1</ele>
        <time>2019-08-13T19:01:07Z</time>
      </trkpt>
      <trkpt lat="40.6364230" lon="-4.6887650">
        <ele>1068.1</ele>
        <time>2019-08-13T19:01:08Z</time>
      </trkpt>
      <trkpt lat="40.6364710" lon="-4.6887770">
        <ele>1068.0</ele>
        <time>2019-08-13T19:01:09Z</time>
      </trkpt>
      <trkpt lat="40.6365200" lon="-4.6887870">
        <ele>1068.0</ele>
        <time>2019-08-13T19:01:10Z</time>
      </trkpt>
      <trkpt lat="40.6365690" lon="-4.6887970">
        <ele>1068.0</ele>
        <time>2019-08-13T19:01:11Z</time>
      </trkpt>
      <trkpt lat="40.6366190" lon="-4.6888070">
        <ele>1068.0</ele>
        <time>2019-08-13T19:01:12Z</time>
      </trkpt>
      <trkpt lat="40.6366700" lon="-4.6888180">
        <ele>1068.0</ele>
        <time>2019-08-13T19:01:13Z</time>
      </trkpt>
      <trkpt lat="40.6367210" lon="-4.6888230">
        <ele>1068.0</ele>
        <time>2019-08-13T19:01:14Z</time>
      </trkpt>
      <trkpt lat="40.6367690" lon="-4.6888110">
        <ele>1068.0</ele>
        <time>2019-08-13T19:01:15Z</time>
      </trkpt>
      <trkpt lat="40.6368140" lon="-4.6887860">
        <ele>1068.0</ele>
        <time>2019-08-13T19:01:16Z</time>
      </trkpt>
      <trkpt lat="40.6368550" lon="-4.6887560">
        <ele>1067.8</ele>
        <time>2019-08-13T19:01:17Z</time>
      </trkpt>
      <trkpt lat="40.6368970" lon="-4.6887260">
        <ele>1067.8</ele>
        <time>2019-08-13T19:01:18Z</time>
      </trkpt>
      <trkpt lat="40.6369400" lon="-4.6887010">
        <ele>1067.7</ele>
        <time>2019-08-13T19:01:19Z</time>
      </trkpt>
      <trkpt lat="40.6369850" lon="-4.6886860">
        <ele>1067.6</ele>
        <time>2019-08-13T19:01:20Z</time>
      </trkpt>
      <trkpt lat="40.6370300" lon="-4.6886810">
        <ele>1067.6</ele>
        <time>2019-08-13T19:01:21Z</time>
      </trkpt>
      <trkpt lat="40.6370750" lon="-4.6886890">
        <ele>1067.6</ele>
        <time>2019-08-13T19:01:22Z</time>
      </trkpt>
      <trkpt lat="40.6371190" lon="-4.6887100">
        <ele>1067.6</ele>
        <time>2019-08-13T19:01:23Z</time>
      </trkpt>
      <trkpt lat="40.6371590" lon="-4.6887400">
        <ele>1067.7</ele>
        <time>2019-08-13T19:01:24Z</time>
      </trkpt>
      <trkpt lat="40.6371950" lon="-4.6887780">
        <ele>1067.7</ele>
        <time>2019-08-13T19:01:25Z</time>
      </trkpt>
      <trkpt lat="40.6372280" lon="-4.6888200">
        <ele>1067.7</ele>
        <time>2019-08-13T19:01:26Z</time>
      </trkpt>
      <trkpt lat="40.6372580" lon="-4.6888640">
        <ele>1067.7</ele>
        <time>2019-08-13T19:01:27Z</time>
      </trkpt>
      <trkpt lat="40.6372950" lon="-4.6889040">
        <ele>1067.7</ele>
        <time>2019-08-13T19:01:28Z</time>
      </trkpt>
      <trkpt lat="40.6373320" lon="-4.6889360">
        <ele>1067.8</ele>
        <time>2019-08-13T19:01:29Z</time>
      </trkpt>
      <trkpt lat="40.6373720" lon="-4.6889550">
        <ele>1067.8</ele>
        <time>2019-08-13T19:01:30Z</time>
      </trkpt>
      <trkpt lat="40.6374100" lon="-4.6889650">
        <ele>1067.8</ele>
        <time>2019-08-13T19:01:31Z</time>
      </trkpt>
      <trkpt lat="40.6374470" lon="-4.6889690">
        <ele>1067.9</ele>
        <time>2019-08-13T19:01:32Z</time>
      </trkpt>
      <trkpt lat="40.6374820" lon="-4.6889690">
        <ele>1067.9</ele>
        <time>2019-08-13T19:01:33Z</time>
      </trkpt>
      <trkpt lat="40.6375140" lon="-4.6889690">
        <ele>1067.9</ele>
        <time>2019-08-13T19:01:34Z</time>
      </trkpt>
      <trkpt lat="40.6375420" lon="-4.6889750">
        <ele>1067.9</ele>
        <time>2019-08-13T19:01:35Z</time>
      </trkpt>
      <trkpt lat="40.6375870" lon="-4.6890110">
        <ele>1068.0</ele>
        <time>2019-08-13T19:01:37Z</time>
      </trkpt>
      <trkpt lat="40.6376230" lon="-4.6890560">
        <ele>1068.3</ele>
        <time>2019-08-13T19:01:39Z</time>
      </trkpt>
      <trkpt lat="40.6376530" lon="-4.6890820">
        <ele>1068.5</ele>
        <time>2019-08-13T19:01:41Z</time>
      </trkpt>
      <trkpt lat="40.6376840" lon="-4.6891020">
        <ele>1068.7</ele>
        <time>2019-08-13T19:01:43Z</time>
      </trkpt>
      <trkpt lat="40.6377290" lon="-4.6891010">
        <ele>1068.8</ele>
        <time>2019-08-13T19:01:45Z</time>
      </trkpt>
      <trkpt lat="40.6377800" lon="-4.6890840">
        <ele>1069.0</ele>
        <time>2019-08-13T19:01:47Z</time>
      </trkpt>
      <trkpt lat="40.6378100" lon="-4.6890800">
        <ele>1069.0</ele>
        <time>2019-08-13T19:01:48Z</time>
      </trkpt>
      <trkpt lat="40.6378400" lon="-4.6890800">
        <ele>1069.1</ele>
        <time>2019-08-13T19:01:49Z</time>
      </trkpt>
      <trkpt lat="40.6378720" lon="-4.6890820">
        <ele>1069.1</ele>
        <time>2019-08-13T19:01:50Z</time>
      </trkpt>
      <trkpt lat="40.6379060" lon="-4.6890850">
        <ele>1069.1</ele>
        <time>2019-08-13T19:01:51Z</time>
      </trkpt>
      <trkpt lat="40.6379400" lon="-4.6890870">
        <ele>1069.1</ele>
        <time>2019-08-13T19:01:52Z</time>
      </trkpt>
      <trkpt lat="40.6379760" lon="-4.6890870">
        <ele>1069.1</ele>
        <time>2019-08-13T19:01:53Z</time>
      </trkpt>
      <trkpt lat="40.6380130" lon="-4.6890890">
        <ele>1069.1</ele>
        <time>2019-08-13T19:01:54Z</time>
      </trkpt>
      <trkpt lat="40.6380500" lon="-4.6890910">
        <ele>1069.1</ele>
        <time>2019-08-13T19:01:55Z</time>
      </trkpt>
      <trkpt lat="40.6380880" lon="-4.6890920">
        <ele>1069.0</ele>
        <time>2019-08-13T19:01:56Z</time>
      </trkpt>
      <trkpt lat="40.6381270" lon="-4.6890930">
        <ele>1069.0</ele>
        <time>2019-08-13T19:01:57Z</time>
      </trkpt>
      <trkpt lat="40.6381630" lon="-4.6890940">
        <ele>1069.0</ele>
        <time>2019-08-13T19:01:58Z</time>
      </trkpt>
      <trkpt lat="40.6381990" lon="-4.6890960">
        <ele>1068.9</ele>
        <time>2019-08-13T19:01:59Z</time>
      </trkpt>
      <trkpt lat="40.6382340" lon="-4.6890980">
        <ele>1068.9</ele>
        <time>2019-08-13T19:02:00Z</time>
      </trkpt>
      <trkpt lat="40.6382690" lon="-4.6891000">
        <ele>1068.8</ele>
        <time>2019-08-13T19:02:01Z</time>
      </trkpt>
      <trkpt lat="40.6383030" lon="-4.6891020">
        <ele>1068.7</ele>
        <time>2019-08-13T19:02:02Z</time>
      </trkpt>
      <trkpt lat="40.6383370" lon="-4.6891030">
        <ele>1068.7</ele>
        <time>2019-08-13T19:02:03Z</time>
      </trkpt>
      <trkpt lat="40.6383710" lon="-4.6891040">
        <ele>1068.6</ele>
        <time>2019-08-13T19:02:04Z</time>
      </trkpt>
      <trkpt lat="40.6384040" lon="-4.6891030">
        <ele>1068.5</ele>
        <time>2019-08-13T19:02:05Z</time>
      </trkpt>
      <trkpt lat="40.6384350" lon="-4.6891030">
        <ele>1068.4</ele>
        <time>2019-08-13T19:02:06Z</time>
      </trkpt>
      <trkpt lat="40.6384660" lon="-4.6891020">
        <ele>1068.3</ele>
        <time>2019-08-13T19:02:07Z</time>
      </trkpt>
      <trkpt lat="40.6384950" lon="-4.6891020">
        <ele>1068.2</ele>
        <time>2019-08-13T19:02:08Z</time>
      </trkpt>
      <trkpt lat="40.6385240" lon="-4.6891030">
        <ele>1068.1</ele>
        <time>2019-08-13T19:02:09Z</time>
      </trkpt>
      <trkpt lat="40.6385530" lon="-4.6891040">
        <ele>1068.1</ele>
        <time>2019-08-13T19:02:10Z</time>
      </trkpt>
      <trkpt lat="40.6385830" lon="-4.6891040">
        <ele>1068.0</ele>
        <time>2019-08-13T19:02:11Z</time>
      </trkpt>
      <trkpt lat="40.6386140" lon="-4.6891020">
        <ele>1067.9</ele>
        <time>2019-08-13T19:02:12Z</time>
      </trkpt>
      <trkpt lat="40.6386460" lon="-4.6890960">
        <ele>1067.8</ele>
        <time>2019-08-13T19:02:13Z</time>
      </trkpt>
      <trkpt lat="40.6386800" lon="-4.6890870">
        <ele>1067.7</ele>
        <time>2019-08-13T19:02:14Z</time>
      </trkpt>
      <trkpt lat="40.6387120" lon="-4.6890760">
        <ele>1067.6</ele>
        <time>2019-08-13T19:02:15Z</time>
      </trkpt>
      <trkpt lat="40.6387440" lon="-4.6890650">
        <ele>1067.5</ele>
        <time>2019-08-13T19:02:16Z</time>
      </trkpt>
      <trkpt lat="40.6387740" lon="-4.6890570">
        <ele>1067.4</ele>
        <time>2019-08-13T19:02:17Z</time>
      </trkpt>
      <trkpt lat="40.6388060" lon="-4.6890490">
        <ele>1067.3</ele>
        <time>2019-08-13T19:02:18Z</time>
      </trkpt>
      <trkpt lat="40.6388390" lon="-4.6890440">
        <ele>1067.2</ele>
        <time>2019-08-13T19:02:19Z</time>
      </trkpt>
      <trkpt lat="40.6388750" lon="-4.6890390">
        <ele>1067.1</ele>
        <time>2019-08-13T19:02:20Z</time>
      </trkpt>
      <trkpt lat="40.6389130" lon="-4.6890360">
        <ele>1067.0</ele>
        <time>2019-08-13T19:02:21Z</time>
      </trkpt>
      <trkpt lat="40.6389510" lon="-4.6890330">
        <ele>1066.9</ele>
        <time>2019-08-13T19:02:22Z</time>
      </trkpt>
      <trkpt lat="40.6389910" lon="-4.6890320">
        <ele>1066.8</ele>
        <time>2019-08-13T19:02:23Z</time>
      </trkpt>
      <trkpt lat="40.6390320" lon="-4.6890340">
        <ele>1066.7</ele>
        <time>2019-08-13T19:02:24Z</time>
      </trkpt>
      <trkpt lat="40.6390740" lon="-4.6890350">
        <ele>1066.6</ele>
        <time>2019-08-13T19:02:25Z</time>
      </trkpt>
      <trkpt lat="40.6391170" lon="-4.6890370">
        <ele>1066.5</ele>
        <time>2019-08-13T19:02:26Z</time>
      </trkpt>
      <trkpt lat="40.6391600" lon="-4.6890380">
        <ele>1066.5</ele>
        <time>2019-08-13T19:02:27Z</time>
      </trkpt>
      <trkpt lat="40.6392030" lon="-4.6890380">
        <ele>1066.4</ele>
        <time>2019-08-13T19:02:28Z</time>
      </trkpt>
      <trkpt lat="40.6392480" lon="-4.6890390">
        <ele>1066.4</ele>
        <time>2019-08-13T19:02:29Z</time>
      </trkpt>
      <trkpt lat="40.6392920" lon="-4.6890410">
        <ele>1066.4</ele>
        <time>2019-08-13T19:02:30Z</time>
      </trkpt>
      <trkpt lat="40.6393350" lon="-4.6890460">
        <ele>1066.5</ele>
        <time>2019-08-13T19:02:31Z</time>
      </trkpt>
      <trkpt lat="40.6393770" lon="-4.6890520">
        <ele>1066.6</ele>
        <time>2019-08-13T19:02:32Z</time>
      </trkpt>
      <trkpt lat="40.6394170" lon="-4.6890550">
        <ele>1066.7</ele>
        <time>2019-08-13T19:02:33Z</time>
      </trkpt>
      <trkpt lat="40.6394560" lon="-4.6890560">
        <ele>1066.8</ele>
        <time>2019-08-13T19:02:34Z</time>
      </trkpt>
      <trkpt lat="40.6394920" lon="-4.6890570">
        <ele>1066.9</ele>
        <time>2019-08-13T19:02:35Z</time>
      </trkpt>
      <trkpt lat="40.6395290" lon="-4.6890580">
        <ele>1067.0</ele>
        <time>2019-08-13T19:02:36Z</time>
      </trkpt>
      <trkpt lat="40.6395650" lon="-4.6890560">
        <ele>1067.1</ele>
        <time>2019-08-13T19:02:37Z</time>
      </trkpt>
      <trkpt lat="40.6396010" lon="-4.6890540">
        <ele>1067.1</ele>
        <time>2019-08-13T19:02:38Z</time>
      </trkpt>
      <trkpt lat="40.6396390" lon="-4.6890560">
        <ele>1067.1</ele>
        <time>2019-08-13T19:02:39Z</time>
      </trkpt>
      <trkpt lat="40.6396780" lon="-4.6890610">
        <ele>1067.1</ele>
        <time>2019-08-13T19:02:40Z</time>
      </trkpt>
      <trkpt lat="40.6397180" lon="-4.6890640">
        <ele>1067.1</ele>
        <time>2019-08-13T19:02:41Z</time>
      </trkpt>
      <trkpt lat="40.6397590" lon="-4.6890660">
        <ele>1067.2</ele>
        <time>2019-08-13T19:02:42Z</time>
      </trkpt>
      <trkpt lat="40.6398010" lon="-4.6890680">
        <ele>1067.2</ele>
        <time>2019-08-13T19:02:43Z</time>
      </trkpt>
      <trkpt lat="40.6398440" lon="-4.6890690">
        <ele>1067.2</ele>
        <time>2019-08-13T19:02:44Z</time>
      </trkpt>
      <trkpt lat="40.6398900" lon="-4.6890700">
        <ele>1067.2</ele>
        <time>2019-08-13T19:02:45Z</time>
      </trkpt>
      <trkpt lat="40.6399370" lon="-4.6890730">
        <ele>1067.2</ele>
        <time>2019-08-13T19:02:46Z</time>
      </trkpt>
      <trkpt lat="40.6399850" lon="-4.6890770">
        <ele>1067.2</ele>
        <time>2019-08-13T19:02:47Z</time>
      </trkpt>
      <trkpt lat="40.6400320" lon="-4.6890850">
        <ele>1067.2</ele>
        <time>2019-08-13T19:02:48Z</time>
      </trkpt>
      <trkpt lat="40.6400760" lon="-4.6890890">
        <ele>1067.2</ele>
        <time>2019-08-13T19:02:49Z</time>
      </trkpt>
      <trkpt lat="40.6401180" lon="-4.6890930">
        <ele>1067.2</ele>
        <time>2019-08-13T19:02:50Z</time>
      </trkpt>
      <trkpt lat="40.6401610" lon="-4.6890950">
        <ele>1067.2</ele>
        <time>2019-08-13T19:02:51Z</time>
      </trkpt>
      <trkpt lat="40.6402010" lon="-4.6890980">
        <ele>1067.2</ele>
        <time>2019-08-13T19:02:52Z</time>
      </trkpt>
      <trkpt lat="40.6402390" lon="-4.6891040">
        <ele>1067.2</ele>
        <time>2019-08-13T19:02:53Z</time>
      </trkpt>
      <trkpt lat="40.6402770" lon="-4.6891090">
        <ele>1067.2</ele>
        <time>2019-08-13T19:02:54Z</time>
      </trkpt>
      <trkpt lat="40.6403130" lon="-4.6891110">
        <ele>1067.1</ele>
        <time>2019-08-13T19:02:55Z</time>
      </trkpt>
      <trkpt lat="40.6403490" lon="-4.6891110">
        <ele>1067.1</ele>
        <time>2019-08-13T19:02:56Z</time>
      </trkpt>
      <trkpt lat="40.6403830" lon="-4.6891130">
        <ele>1067.1</ele>
        <time>2019-08-13T19:02:57Z</time>
      </trkpt>
      <trkpt lat="40.6404160" lon="-4.6891130">
        <ele>1067.1</ele>
        <time>2019-08-13T19:02:58Z</time>
      </trkpt>
      <trkpt lat="40.6404510" lon="-4.6891130">
        <ele>1067.1</ele>
        <time>2019-08-13T19:02:59Z</time>
      </trkpt>
      <trkpt lat="40.6404870" lon="-4.6891140">
        <ele>1067.0</ele>
        <time>2019-08-13T19:03:00Z</time>
      </trkpt>
      <trkpt lat="40.6405240" lon="-4.6891160">
        <ele>1067.0</ele>
        <time>2019-08-13T19:03:01Z</time>
      </trkpt>
      <trkpt lat="40.6405630" lon="-4.6891150">
        <ele>1067.0</ele>
        <time>2019-08-13T19:03:02Z</time>
      </trkpt>
      <trkpt lat="40.6406050" lon="-4.6891120">
        <ele>1067.0</ele>
        <time>2019-08-13T19:03:03Z</time>
      </trkpt>
      <trkpt lat="40.6406510" lon="-4.6891090">
        <ele>1067.0</ele>
        <time>2019-08-13T19:03:04Z</time>
      </trkpt>
      <trkpt lat="40.6406980" lon="-4.6891080">
        <ele>1067.0</ele>
        <time>2019-08-13T19:03:05Z</time>
      </trkpt>
      <trkpt lat="40.6407460" lon="-4.6891070">
        <ele>1067.0</ele>
        <time>2019-08-13T19:03:06Z</time>
      </trkpt>
      <trkpt lat="40.6407940" lon="-4.6891050">
        <ele>1066.9</ele>
        <time>2019-08-13T19:03:07Z</time>
      </trkpt>
      <trkpt lat="40.6408410" lon="-4.6891030">
        <ele>1066.9</ele>
        <time>2019-08-13T19:03:08Z</time>
      </trkpt>
      <trkpt lat="40.6408860" lon="-4.6891010">
        <ele>1066.9</ele>
        <time>2019-08-13T19:03:09Z</time>
      </trkpt>
      <trkpt lat="40.6409290" lon="-4.6890990">
        <ele>1066.9</ele>
        <time>2019-08-13T19:03:10Z</time>
      </trkpt>
      <trkpt lat="40.6409710" lon="-4.6890970">
        <ele>1066.9</ele>
        <time>2019-08-13T19:03:11Z</time>
      </trkpt>
      <trkpt lat="40.6410110" lon="-4.6890970">
        <ele>1066.9</ele>
        <time>2019-08-13T19:03:12Z</time>
      </trkpt>
      <trkpt lat="40.6410490" lon="-4.6891020">
        <ele>1066.9</ele>
        <time>2019-08-13T19:03:13Z</time>
      </trkpt>
      <trkpt lat="40.6410860" lon="-4.6891070">
        <ele>1066.8</ele>
        <time>2019-08-13T19:03:14Z</time>
      </trkpt>
      <trkpt lat="40.6411230" lon="-4.6891080">
        <ele>1066.8</ele>
        <time>2019-08-13T19:03:15Z</time>
      </trkpt>
      <trkpt lat="40.6411580" lon="-4.6891120">
        <ele>1066.8</ele>
        <time>2019-08-13T19:03:16Z</time>
      </trkpt>
      <trkpt lat="40.6411920" lon="-4.6891170">
        <ele>1066.8</ele>
        <time>2019-08-13T19:03:17Z</time>
      </trkpt>
      <trkpt lat="40.6412250" lon="-4.6891190">
        <ele>1066.7</ele>
        <time>2019-08-13T19:03:18Z</time>
      </trkpt>
      <trkpt lat="40.6412580" lon="-4.6891200">
        <ele>1066.7</ele>
        <time>2019-08-13T19:03:19Z</time>
      </trkpt>
      <trkpt lat="40.6412920" lon="-4.6891210">
        <ele>1066.7</ele>
        <time>2019-08-13T19:03:20Z</time>
      </trkpt>
      <trkpt lat="40.6413260" lon="-4.6891210">
        <ele>1066.7</ele>
        <time>2019-08-13T19:03:21Z</time>
      </trkpt>
      <trkpt lat="40.6413620" lon="-4.6891220">
        <ele>1066.7</ele>
        <time>2019-08-13T19:03:22Z</time>
      </trkpt>
      <trkpt lat="40.6413980" lon="-4.6891230">
        <ele>1066.7</ele>
        <time>2019-08-13T19:03:23Z</time>
      </trkpt>
      <trkpt lat="40.6414290" lon="-4.6891220">
        <ele>1066.7</ele>
        <time>2019-08-13T19:03:24Z</time>
      </trkpt>
      <trkpt lat="40.6414570" lon="-4.6891210">
        <ele>1066.8</ele>
        <time>2019-08-13T19:03:25Z</time>
      </trkpt>
      <trkpt lat="40.6415070" lon="-4.6891240">
        <ele>1066.9</ele>
        <time>2019-08-13T19:03:27Z</time>
      </trkpt>
      <trkpt lat="40.6415510" lon="-4.6891220">
        <ele>1067.0</ele>
        <time>2019-08-13T19:03:29Z</time>
      </trkpt>
      <trkpt lat="40.6415930" lon="-4.6891090">
        <ele>1067.2</ele>
        <time>2019-08-13T19:03:31Z</time>
      </trkpt>
      <trkpt lat="40.6416360" lon="-4.6890680">
        <ele>1067.3</ele>
        <time>2019-08-13T19:03:33Z</time>
      </trkpt>
      <trkpt lat="40.6416590" lon="-4.6890380">
        <ele>1067.3</ele>
        <time>2019-08-13T19:03:34Z</time>
      </trkpt>
      <trkpt lat="40.6416800" lon="-4.6890040">
        <ele>1067.4</ele>
        <time>2019-08-13T19:03:35Z</time>
      </trkpt>
      <trkpt lat="40.6417020" lon="-4.6889700">
        <ele>1067.4</ele>
        <time>2019-08-13T19:03:36Z</time>
      </trkpt>
      <trkpt lat="40.6417260" lon="-4.6889390">
        <ele>1067.5</ele>
        <time>2019-08-13T19:03:37Z</time>
      </trkpt>
      <trkpt lat="40.6417510" lon="-4.6889150">
        <ele>1067.5</ele>
        <time>2019-08-13T19:03:38Z</time>
      </trkpt>
      <trkpt lat="40.6417820" lon="-4.6889050">
        <ele>1067.6</ele>
        <time>2019-08-13T19:03:39Z</time>
      </trkpt>
      <trkpt lat="40.6418170" lon="-4.6889080">
        <ele>1067.7</ele>
        <time>2019-08-13T19:03:40Z</time>
      </trkpt>
      <trkpt lat="40.6418550" lon="-4.6889210">
        <ele>1067.8</ele>
        <time>2019-08-13T19:03:41Z</time>
      </trkpt>
      <trkpt lat="40.6418920" lon="-4.6889440">
        <ele>1067.8</ele>
        <time>2019-08-13T19:03:42Z</time>
      </trkpt>
      <trkpt lat="40.6419260" lon="-4.6889740">
        <ele>1067.8</ele>
        <time>2019-08-13T19:03:43Z</time>
      </trkpt>
      <trkpt lat="40.6419580" lon="-4.6890120">
        <ele>1067.9</ele>
        <time>2019-08-13T19:03:44Z</time>
      </trkpt>
      <trkpt lat="40.6419890" lon="-4.6890530">
        <ele>1067.9</ele>
        <time>2019-08-13T19:03:45Z</time>
      </trkpt>
      <trkpt lat="40.6420260" lon="-4.6890890">
        <ele>1067.9</ele>
        <time>2019-08-13T19:03:46Z</time>
      </trkpt>
      <trkpt lat="40.6420680" lon="-4.6891080">
        <ele>1068.3</ele>
        <time>2019-08-13T19:03:47Z</time>
      </trkpt>
      <trkpt lat="40.6421110" lon="-4.6891100">
        <ele>1068.4</ele>
        <time>2019-08-13T19:03:48Z</time>
      </trkpt>
      <trkpt lat="40.6421540" lon="-4.6890980">
        <ele>1068.5</ele>
        <time>2019-08-13T19:03:49Z</time>
      </trkpt>
      <trkpt lat="40.6421960" lon="-4.6890810">
        <ele>1068.5</ele>
        <time>2019-08-13T19:03:50Z</time>
      </trkpt>
      <trkpt lat="40.6422400" lon="-4.6890630">
        <ele>1068.6</ele>
        <time>2019-08-13T19:03:51Z</time>
      </trkpt>
      <trkpt lat="40.6422830" lon="-4.6890460">
        <ele>1068.7</ele>
        <time>2019-08-13T19:03:52Z</time>
      </trkpt>
      <trkpt lat="40.6423250" lon="-4.6890260">
        <ele>1068.7</ele>
        <time>2019-08-13T19:03:53Z</time>
      </trkpt>
      <trkpt lat="40.6423630" lon="-4.6890030">
        <ele>1068.7</ele>
        <time>2019-08-13T19:03:54Z</time>
      </trkpt>
      <trkpt lat="40.6424000" lon="-4.6889790">
        <ele>1068.7</ele>
        <time>2019-08-13T19:03:55Z</time>
      </trkpt>
      <trkpt lat="40.6424360" lon="-4.6889560">
        <ele>1068.7</ele>
        <time>2019-08-13T19:03:56Z</time>
      </trkpt>
      <trkpt lat="40.6424710" lon="-4.6889310">
        <ele>1068.7</ele>
        <time>2019-08-13T19:03:57Z</time>
      </trkpt>
      <trkpt lat="40.6425070" lon="-4.6889090">
        <ele>1068.6</ele>
        <time>2019-08-13T19:03:58Z</time>
      </trkpt>
      <trkpt lat="40.6425440" lon="-4.6888860">
        <ele>1068.6</ele>
        <time>2019-08-13T19:03:59Z</time>
      </trkpt>
      <trkpt lat="40.6425820" lon="-4.6888620">
        <ele>1068.6</ele>
        <time>2019-08-13T19:04:00Z</time>
      </trkpt>
      <trkpt lat="40.6426210" lon="-4.6888380">
        <ele>1068.5</ele>
        <time>2019-08-13T19:04:01Z</time>
      </trkpt>
      <trkpt lat="40.6426600" lon="-4.6888160">
        <ele>1068.5</ele>
        <time>2019-08-13T19:04:02Z</time>
      </trkpt>
      <trkpt lat="40.6427010" lon="-4.6887940">
        <ele>1068.4</ele>
        <time>2019-08-13T19:04:03Z</time>
      </trkpt>
      <trkpt lat="40.6427430" lon="-4.6887710">
        <ele>1068.3</ele>
        <time>2019-08-13T19:04:04Z</time>
      </trkpt>
      <trkpt lat="40.6427860" lon="-4.6887480">
        <ele>1068.2</ele>
        <time>2019-08-13T19:04:05Z</time>
      </trkpt>
      <trkpt lat="40.6428280" lon="-4.6887260">
        <ele>1068.1</ele>
        <time>2019-08-13T19:04:06Z</time>
      </trkpt>
      <trkpt lat="40.6428710" lon="-4.6887030">
        <ele>1068.1</ele>
        <time>2019-08-13T19:04:07Z</time>
      </trkpt>
      <trkpt lat="40.6429140" lon="-4.6886800">
        <ele>1068.0</ele>
        <time>2019-08-13T19:04:08Z</time>
      </trkpt>
      <trkpt lat="40.6429540" lon="-4.6886580">
        <ele>1068.0</ele>
        <time>2019-08-13T19:04:09Z</time>
      </trkpt>
      <trkpt lat="40.6429930" lon="-4.6886360">
        <ele>1067.9</ele>
        <time>2019-08-13T19:04:10Z</time>
      </trkpt>
      <trkpt lat="40.6430290" lon="-4.6886140">
        <ele>1067.9</ele>
        <time>2019-08-13T19:04:11Z</time>
      </trkpt>
      <trkpt lat="40.6430640" lon="-4.6885950">
        <ele>1068.1</ele>
        <time>2019-08-13T19:04:12Z</time>
      </trkpt>
      <trkpt lat="40.6430980" lon="-4.6885770">
        <ele>1068.4</ele>
        <time>2019-08-13T19:04:13Z</time>
      </trkpt>
      <trkpt lat="40.6431300" lon="-4.6885610">
        <ele>1068.7</ele>
        <time>2019-08-13T19:04:14Z</time>
      </trkpt>
      <trkpt lat="40.6431620" lon="-4.6885460">
        <ele>1069.0</ele>
        <time>2019-08-13T19:04:15Z</time>
      </trkpt>
      <trkpt lat="40.6431920" lon="-4.6885320">
        <ele>1069.2</ele>
        <time>2019-08-13T19:04:16Z</time>
      </trkpt>
      <trkpt lat="40.6432210" lon="-4.6885190">
        <ele>1069.4</ele>
        <time>2019-08-13T19:04:17Z</time>
      </trkpt>
      <trkpt lat="40.6432520" lon="-4.6885100">
        <ele>1069.6</ele>
        <time>2019-08-13T19:04:18Z</time>
      </trkpt>
      <trkpt lat="40.6432830" lon="-4.6885010">
        <ele>1069.8</ele>
        <time>2019-08-13T19:04:19Z</time>
      </trkpt>
      <trkpt lat="40.6433130" lon="-4.6884930">
        <ele>1070.0</ele>
        <time>2019-08-13T19:04:20Z</time>
      </trkpt>
      <trkpt lat="40.6433430" lon="-4.6884870">
        <ele>1070.1</ele>
        <time>2019-08-13T19:04:21Z</time>
      </trkpt>
      <trkpt lat="40.6433740" lon="-4.6884820">
        <ele>1070.2</ele>
        <time>2019-08-13T19:04:22Z</time>
      </trkpt>
      <trkpt lat="40.6434050" lon="-4.6884760">
        <ele>1070.4</ele>
        <time>2019-08-13T19:04:23Z</time>
      </trkpt>
      <trkpt lat="40.6434360" lon="-4.6884700">
        <ele>1070.5</ele>
        <time>2019-08-13T19:04:24Z</time>
      </trkpt>
      <trkpt lat="40.6434680" lon="-4.6884650">
        <ele>1070.6</ele>
        <time>2019-08-13T19:04:25Z</time>
      </trkpt>
      <trkpt lat="40.6434990" lon="-4.6884620">
        <ele>1070.8</ele>
        <time>2019-08-13T19:04:26Z</time>
      </trkpt>
      <trkpt lat="40.6435320" lon="-4.6884610">
        <ele>1070.9</ele>
        <time>2019-08-13T19:04:27Z</time>
      </trkpt>
      <trkpt lat="40.6435650" lon="-4.6884620">
        <ele>1071.0</ele>
        <time>2019-08-13T19:04:28Z</time>
      </trkpt>
      <trkpt lat="40.6435990" lon="-4.6884620">
        <ele>1071.1</ele>
        <time>2019-08-13T19:04:29Z</time>
      </trkpt>
      <trkpt lat="40.6436320" lon="-4.6884600">
        <ele>1071.2</ele>
        <time>2019-08-13T19:04:30Z</time>
      </trkpt>
      <trkpt lat="40.6436680" lon="-4.6884580">
        <ele>1071.2</ele>
        <time>2019-08-13T19:04:31Z</time>
      </trkpt>
      <trkpt lat="40.6437050" lon="-4.6884550">
        <ele>1071.3</ele>
        <time>2019-08-13T19:04:32Z</time>
      </trkpt>
      <trkpt lat="40.6437440" lon="-4.6884540">
        <ele>1071.3</ele>
        <time>2019-08-13T19:04:33Z</time>
      </trkpt>
      <trkpt lat="40.6437830" lon="-4.6884520">
        <ele>1071.2</ele>
        <time>2019-08-13T19:04:34Z</time>
      </trkpt>
      <trkpt lat="40.6438230" lon="-4.6884510">
        <ele>1071.2</ele>
        <time>2019-08-13T19:04:35Z</time>
      </trkpt>
      <trkpt lat="40.6438650" lon="-4.6884530">
        <ele>1071.1</ele>
        <time>2019-08-13T19:04:36Z</time>
      </trkpt>
      <trkpt lat="40.6439100" lon="-4.6884540">
        <ele>1071.0</ele>
        <time>2019-08-13T19:04:37Z</time>
      </trkpt>
      <trkpt lat="40.6439550" lon="-4.6884540">
        <ele>1070.9</ele>
        <time>2019-08-13T19:04:38Z</time>
      </trkpt>
      <trkpt lat="40.6440010" lon="-4.6884590">
        <ele>1070.8</ele>
        <time>2019-08-13T19:04:39Z</time>
      </trkpt>
      <trkpt lat="40.6440470" lon="-4.6884700">
        <ele>1070.7</ele>
        <time>2019-08-13T19:04:40Z</time>
      </trkpt>
      <trkpt lat="40.6440940" lon="-4.6884850">
        <ele>1070.6</ele>
        <time>2019-08-13T19:04:41Z</time>
      </trkpt>
      <trkpt lat="40.6441400" lon="-4.6885080">
        <ele>1070.4</ele>
        <time>2019-08-13T19:04:42Z</time>
      </trkpt>
      <trkpt lat="40.6441870" lon="-4.6885380">
        <ele>1070.2</ele>
        <time>2019-08-13T19:04:43Z</time>
      </trkpt>
      <trkpt lat="40.6442340" lon="-4.6885720">
        <ele>1070.0</ele>
        <time>2019-08-13T19:04:44Z</time>
      </trkpt>
      <trkpt lat="40.6442850" lon="-4.6886050">
        <ele>1069.7</ele>
        <time>2019-08-13T19:04:45Z</time>
      </trkpt>
      <trkpt lat="40.6443380" lon="-4.6886370">
        <ele>1069.4</ele>
        <time>2019-08-13T19:04:46Z</time>
      </trkpt>
      <trkpt lat="40.6443940" lon="-4.6886630">
        <ele>1069.2</ele>
        <time>2019-08-13T19:04:47Z</time>
      </trkpt>
      <trkpt lat="40.6444530" lon="-4.6886780">
        <ele>1069.3</ele>
        <time>2019-08-13T19:04:48Z</time>
      </trkpt>
      <trkpt lat="40.6445150" lon="-4.6886840">
        <ele>1069.5</ele>
        <time>2019-08-13T19:04:49Z</time>
      </trkpt>
      <trkpt lat="40.6445760" lon="-4.6886800">
        <ele>1069.6</ele>
        <time>2019-08-13T19:04:50Z</time>
      </trkpt>
      <trkpt lat="40.6446350" lon="-4.6886700">
        <ele>1069.9</ele>
        <time>2019-08-13T19:04:51Z</time>
      </trkpt>
      <trkpt lat="40.6446920" lon="-4.6886540">
        <ele>1070.1</ele>
        <time>2019-08-13T19:04:52Z</time>
      </trkpt>
      <trkpt lat="40.6447470" lon="-4.6886380">
        <ele>1070.3</ele>
        <time>2019-08-13T19:04:53Z</time>
      </trkpt>
      <trkpt lat="40.6448000" lon="-4.6886220">
        <ele>1070.6</ele>
        <time>2019-08-13T19:04:54Z</time>
      </trkpt>
      <trkpt lat="40.6448520" lon="-4.6886070">
        <ele>1070.8</ele>
        <time>2019-08-13T19:04:55Z</time>
      </trkpt>
      <trkpt lat="40.6449020" lon="-4.6885940">
        <ele>1070.9</ele>
        <time>2019-08-13T19:04:56Z</time>
      </trkpt>
      <trkpt lat="40.6449510" lon="-4.6885820">
        <ele>1071.1</ele>
        <time>2019-08-13T19:04:57Z</time>
      </trkpt>
      <trkpt lat="40.6449980" lon="-4.6885700">
        <ele>1071.2</ele>
        <time>2019-08-13T19:04:58Z</time>
      </trkpt>
      <trkpt lat="40.6450440" lon="-4.6885590">
        <ele>1071.2</ele>
        <time>2019-08-13T19:04:59Z</time>
      </trkpt>
      <trkpt lat="40.6450870" lon="-4.6885480">
        <ele>1071.3</ele>
        <time>2019-08-13T19:05:00Z</time>
      </trkpt>
      <trkpt lat="40.6451250" lon="-4.6885370">
        <ele>1071.3</ele>
        <time>2019-08-13T19:05:01Z</time>
      </trkpt>
      <trkpt lat="40.6451590" lon="-4.6885300">
        <ele>1071.4</ele>
        <time>2019-08-13T19:05:02Z</time>
      </trkpt>
      <trkpt lat="40.6451930" lon="-4.6885250">
        <ele>1071.5</ele>
        <time>2019-08-13T19:05:03Z</time>
      </trkpt>
      <trkpt lat="40.6452270" lon="-4.6885170">
        <ele>1071.6</ele>
        <time>2019-08-13T19:05:04Z</time>
      </trkpt>
      <trkpt lat="40.6452610" lon="-4.6885090">
        <ele>1071.7</ele>
        <time>2019-08-13T19:05:05Z</time>
      </trkpt>
      <trkpt lat="40.6452960" lon="-4.6885000">
        <ele>1071.8</ele>
        <time>2019-08-13T19:05:06Z</time>
      </trkpt>
      <trkpt lat="40.6453310" lon="-4.6884900">
        <ele>1072.0</ele>
        <time>2019-08-13T19:05:07Z</time>
      </trkpt>
      <trkpt lat="40.6453660" lon="-4.6884810">
        <ele>1072.2</ele>
        <time>2019-08-13T19:05:08Z</time>
      </trkpt>
      <trkpt lat="40.6454010" lon="-4.6884730">
        <ele>1072.4</ele>
        <time>2019-08-13T19:05:09Z</time>
      </trkpt>
      <trkpt lat="40.6454370" lon="-4.6884620">
        <ele>1072.7</ele>
        <time>2019-08-13T19:05:10Z</time>
      </trkpt>
      <trkpt lat="40.6454740" lon="-4.6884510">
        <ele>1073.0</ele>
        <time>2019-08-13T19:05:11Z</time>
      </trkpt>
      <trkpt lat="40.6455120" lon="-4.6884400">
        <ele>1073.2</ele>
        <time>2019-08-13T19:05:12Z</time>
      </trkpt>
      <trkpt lat="40.6455500" lon="-4.6884300">
        <ele>1073.4</ele>
        <time>2019-08-13T19:05:13Z</time>
      </trkpt>
      <trkpt lat="40.6455860" lon="-4.6884190">
        <ele>1073.5</ele>
        <time>2019-08-13T19:05:14Z</time>
      </trkpt>
      <trkpt lat="40.6456230" lon="-4.6884100">
        <ele>1073.6</ele>
        <time>2019-08-13T19:05:15Z</time>
      </trkpt>
      <trkpt lat="40.6456600" lon="-4.6884030">
        <ele>1073.6</ele>
        <time>2019-08-13T19:05:16Z</time>
      </trkpt>
      <trkpt lat="40.6456970" lon="-4.6883950">
        <ele>1073.6</ele>
        <time>2019-08-13T19:05:17Z</time>
      </trkpt>
      <trkpt lat="40.6457340" lon="-4.6883830">
        <ele>1073.7</ele>
        <time>2019-08-13T19:05:18Z</time>
      </trkpt>
      <trkpt lat="40.6457690" lon="-4.6883710">
        <ele>1073.7</ele>
        <time>2019-08-13T19:05:19Z</time>
      </trkpt>
      <trkpt lat="40.6458050" lon="-4.6883600">
        <ele>1073.7</ele>
        <time>2019-08-13T19:05:20Z</time>
      </trkpt>
      <trkpt lat="40.6458410" lon="-4.6883500">
        <ele>1073.7</ele>
        <time>2019-08-13T19:05:21Z</time>
      </trkpt>
      <trkpt lat="40.6458770" lon="-4.6883390">
        <ele>1073.7</ele>
        <time>2019-08-13T19:05:22Z</time>
      </trkpt>
      <trkpt lat="40.6459140" lon="-4.6883290">
        <ele>1073.7</ele>
        <time>2019-08-13T19:05:23Z</time>
      </trkpt>
      <trkpt lat="40.6459510" lon="-4.6883160">
        <ele>1073.6</ele>
        <time>2019-08-13T19:05:24Z</time>
      </trkpt>
      <trkpt lat="40.6459900" lon="-4.6883040">
        <ele>1073.6</ele>
        <time>2019-08-13T19:05:25Z</time>
      </trkpt>
      <trkpt lat="40.6460270" lon="-4.6882900">
        <ele>1073.6</ele>
        <time>2019-08-13T19:05:26Z</time>
      </trkpt>
      <trkpt lat="40.6460650" lon="-4.6882760">
        <ele>1073.6</ele>
        <time>2019-08-13T19:05:27Z</time>
      </trkpt>
      <trkpt lat="40.6461000" lon="-4.6882620">
        <ele>1073.6</ele>
        <time>2019-08-13T19:05:28Z</time>
      </trkpt>
      <trkpt lat="40.6461330" lon="-4.6882510">
        <ele>1073.6</ele>
        <time>2019-08-13T19:05:29Z</time>
      </trkpt>
      <trkpt lat="40.6461630" lon="-4.6882390">
        <ele>1073.6</ele>
        <time>2019-08-13T19:05:30Z</time>
      </trkpt>
      <trkpt lat="40.6461920" lon="-4.6882300">
        <ele>1073.6</ele>
        <time>2019-08-13T19:05:31Z</time>
      </trkpt>
      <trkpt lat="40.6462180" lon="-4.6882230">
        <ele>1073.6</ele>
        <time>2019-08-13T19:05:32Z</time>
      </trkpt>
      <trkpt lat="40.6462710" lon="-4.6882090">
        <ele>1073.6</ele>
        <time>2019-08-13T19:05:34Z</time>
      </trkpt>
      <trkpt lat="40.6462980" lon="-4.6882030">
        <ele>1073.6</ele>
        <time>2019-08-13T19:05:35Z</time>
      </trkpt>
      <trkpt lat="40.6463270" lon="-4.6881990">
        <ele>1073.6</ele>
        <time>2019-08-13T19:05:36Z</time>
      </trkpt>
      <trkpt lat="40.6463540" lon="-4.6881920">
        <ele>1073.6</ele>
        <time>2019-08-13T19:05:37Z</time>
      </trkpt>
      <trkpt lat="40.6463810" lon="-4.6881830">
        <ele>1073.6</ele>
        <time>2019-08-13T19:05:38Z</time>
      </trkpt>
      <trkpt lat="40.6464090" lon="-4.6881740">
        <ele>1073.6</ele>
        <time>2019-08-13T19:05:39Z</time>
      </trkpt>
      <trkpt lat="40.6464360" lon="-4.6881640">
        <ele>1073.6</ele>
        <time>2019-08-13T19:05:40Z</time>
      </trkpt>
      <trkpt lat="40.6464640" lon="-4.6881550">
        <ele>1073.6</ele>
        <time>2019-08-13T19:05:41Z</time>
      </trkpt>
      <trkpt lat="40.6464930" lon="-4.6881460">
        <ele>1073.6</ele>
        <time>2019-08-13T19:05:42Z</time>
      </trkpt>
      <trkpt lat="40.6465220" lon="-4.6881340">
        <ele>1073.6</ele>
        <time>2019-08-13T19:05:43Z</time>
      </trkpt>
      <trkpt lat="40.6465510" lon="-4.6881200">
        <ele>1073.6</ele>
        <time>2019-08-13T19:05:44Z</time>
      </trkpt>
      <trkpt lat="40.6465820" lon="-4.6881080">
        <ele>1073.6</ele>
        <time>2019-08-13T19:05:45Z</time>
      </trkpt>
      <trkpt lat="40.6466150" lon="-4.6880980">
        <ele>1073.6</ele>
        <time>2019-08-13T19:05:46Z</time>
      </trkpt>
      <trkpt lat="40.6466470" lon="-4.6880870">
        <ele>1073.6</ele>
        <time>2019-08-13T19:05:47Z</time>
      </trkpt>
      <trkpt lat="40.6466800" lon="-4.6880770">
        <ele>1073.6</ele>
        <time>2019-08-13T19:05:48Z</time>
      </trkpt>
      <trkpt lat="40.6467120" lon="-4.6880680">
        <ele>1073.6</ele>
        <time>2019-08-13T19:05:49Z</time>
      </trkpt>
      <trkpt lat="40.6467430" lon="-4.6880560">
        <ele>1073.6</ele>
        <time>2019-08-13T19:05:50Z</time>
      </trkpt>
      <trkpt lat="40.6467720" lon="-4.6880440">
        <ele>1073.6</ele>
        <time>2019-08-13T19:05:51Z</time>
      </trkpt>
      <trkpt lat="40.6468010" lon="-4.6880300">
        <ele>1073.7</ele>
        <time>2019-08-13T19:05:52Z</time>
      </trkpt>
      <trkpt lat="40.6468280" lon="-4.6880170">
        <ele>1073.7</ele>
        <time>2019-08-13T19:05:53Z</time>
      </trkpt>
      <trkpt lat="40.6468550" lon="-4.6880030">
        <ele>1073.8</ele>
        <time>2019-08-13T19:05:54Z</time>
      </trkpt>
      <trkpt lat="40.6468830" lon="-4.6879910">
        <ele>1073.8</ele>
        <time>2019-08-13T19:05:55Z</time>
      </trkpt>
      <trkpt lat="40.6469130" lon="-4.6879800">
        <ele>1073.9</ele>
        <time>2019-08-13T19:05:56Z</time>
      </trkpt>
      <trkpt lat="40.6469420" lon="-4.6879690">
        <ele>1073.9</ele>
        <time>2019-08-13T19:05:57Z</time>
      </trkpt>
      <trkpt lat="40.6469720" lon="-4.6879600">
        <ele>1074.0</ele>
        <time>2019-08-13T19:05:58Z</time>
      </trkpt>
      <trkpt lat="40.6470030" lon="-4.6879520">
        <ele>1074.0</ele>
        <time>2019-08-13T19:05:59Z</time>
      </trkpt>
      <trkpt lat="40.6470330" lon="-4.6879440">
        <ele>1074.1</ele>
        <time>2019-08-13T19:06:00Z</time>
      </trkpt>
      <trkpt lat="40.6470640" lon="-4.6879350">
        <ele>1074.2</ele>
        <time>2019-08-13T19:06:01Z</time>
      </trkpt>
      <trkpt lat="40.6470950" lon="-4.6879250">
        <ele>1074.3</ele>
        <time>2019-08-13T19:06:02Z</time>
      </trkpt>
      <trkpt lat="40.6471260" lon="-4.6879160">
        <ele>1074.3</ele>
        <time>2019-08-13T19:06:03Z</time>
      </trkpt>
      <trkpt lat="40.6471580" lon="-4.6879050">
        <ele>1074.4</ele>
        <time>2019-08-13T19:06:04Z</time>
      </trkpt>
      <trkpt lat="40.6471900" lon="-4.6878940">
        <ele>1074.6</ele>
        <time>2019-08-13T19:06:05Z</time>
      </trkpt>
      <trkpt lat="40.6472220" lon="-4.6878820">
        <ele>1074.6</ele>
        <time>2019-08-13T19:06:06Z</time>
      </trkpt>
      <trkpt lat="40.6472560" lon="-4.6878710">
        <ele>1074.6</ele>
        <time>2019-08-13T19:06:07Z</time>
      </trkpt>
      <trkpt lat="40.6472910" lon="-4.6878580">
        <ele>1074.7</ele>
        <time>2019-08-13T19:06:08Z</time>
      </trkpt>
      <trkpt lat="40.6473240" lon="-4.6878460">
        <ele>1074.7</ele>
        <time>2019-08-13T19:06:09Z</time>
      </trkpt>
      <trkpt lat="40.6473560" lon="-4.6878330">
        <ele>1074.8</ele>
        <time>2019-08-13T19:06:10Z</time>
      </trkpt>
      <trkpt lat="40.6473860" lon="-4.6878200">
        <ele>1074.9</ele>
        <time>2019-08-13T19:06:11Z</time>
      </trkpt>
      <trkpt lat="40.6474160" lon="-4.6878060">
        <ele>1075.0</ele>
        <time>2019-08-13T19:06:12Z</time>
      </trkpt>
      <trkpt lat="40.6474440" lon="-4.6877920">
        <ele>1075.2</ele>
        <time>2019-08-13T19:06:13Z</time>
      </trkpt>
      <trkpt lat="40.6474720" lon="-4.6877790">
        <ele>1075.3</ele>
        <time>2019-08-13T19:06:14Z</time>
      </trkpt>
      <trkpt lat="40.6475000" lon="-4.6877660">
        <ele>1075.5</ele>
        <time>2019-08-13T19:06:15Z</time>
      </trkpt>
      <trkpt lat="40.6475270" lon="-4.6877550">
        <ele>1075.7</ele>
        <time>2019-08-13T19:06:16Z</time>
      </trkpt>
      <trkpt lat="40.6475530" lon="-4.6877450">
        <ele>1075.8</ele>
        <time>2019-08-13T19:06:17Z</time>
      </trkpt>
      <trkpt lat="40.6476030" lon="-4.6877240">
        <ele>1076.1</ele>
        <time>2019-08-13T19:06:19Z</time>
      </trkpt>
      <trkpt lat="40.6476530" lon="-4.6877050">
        <ele>1076.3</ele>
        <time>2019-08-13T19:06:21Z</time>
      </trkpt>
      <trkpt lat="40.6477020" lon="-4.6876880">
        <ele>1076.5</ele>
        <time>2019-08-13T19:06:23Z</time>
      </trkpt>
      <trkpt lat="40.6477510" lon="-4.6876710">
        <ele>1076.8</ele>
        <time>2019-08-13T19:06:25Z</time>
      </trkpt>
      <trkpt lat="40.6478010" lon="-4.6876560">
        <ele>1077.0</ele>
        <time>2019-08-13T19:06:27Z</time>
      </trkpt>
      <trkpt lat="40.6478500" lon="-4.6876350">
        <ele>1077.2</ele>
        <time>2019-08-13T19:06:29Z</time>
      </trkpt>
      <trkpt lat="40.6479020" lon="-4.6876220">
        <ele>1077.4</ele>
        <time>2019-08-13T19:06:31Z</time>
      </trkpt>
      <trkpt lat="40.6479520" lon="-4.6876090">
        <ele>1077.6</ele>
        <time>2019-08-13T19:06:33Z</time>
      </trkpt>
      <trkpt lat="40.6480020" lon="-4.6875990">
        <ele>1078.0</ele>
        <time>2019-08-13T19:06:35Z</time>
      </trkpt>
      <trkpt lat="40.6480510" lon="-4.6875910">
        <ele>1078.3</ele>
        <time>2019-08-13T19:06:37Z</time>
      </trkpt>
      <trkpt lat="40.6480980" lon="-4.6875820">
        <ele>1078.7</ele>
        <time>2019-08-13T19:06:39Z</time>
      </trkpt>
      <trkpt lat="40.6481440" lon="-4.6875650">
        <ele>1079.0</ele>
        <time>2019-08-13T19:06:41Z</time>
      </trkpt>
      <trkpt lat="40.6481910" lon="-4.6875450">
        <ele>1079.4</ele>
        <time>2019-08-13T19:06:43Z</time>
      </trkpt>
      <trkpt lat="40.6482330" lon="-4.6875070">
        <ele>1079.8</ele>
        <time>2019-08-13T19:06:45Z</time>
      </trkpt>
      <trkpt lat="40.6482570" lon="-4.6874450">
        <ele>1079.9</ele>
        <time>2019-08-13T19:06:47Z</time>
      </trkpt>
      <trkpt lat="40.6482710" lon="-4.6873790">
        <ele>1079.9</ele>
        <time>2019-08-13T19:06:49Z</time>
      </trkpt>
      <trkpt lat="40.6482850" lon="-4.6873100">
        <ele>1079.9</ele>
        <time>2019-08-13T19:06:51Z</time>
      </trkpt>
      <trkpt lat="40.6482920" lon="-4.6872740">
        <ele>1080.4</ele>
        <time>2019-08-13T19:06:52Z</time>
      </trkpt>
      <trkpt lat="40.6482980" lon="-4.6872360">
        <ele>1080.3</ele>
        <time>2019-08-13T19:06:53Z</time>
      </trkpt>
      <trkpt lat="40.6483040" lon="-4.6871980">
        <ele>1080.2</ele>
        <time>2019-08-13T19:06:54Z</time>
      </trkpt>
      <trkpt lat="40.6483090" lon="-4.6871560">
        <ele>1080.1</ele>
        <time>2019-08-13T19:06:55Z</time>
      </trkpt>
      <trkpt lat="40.6483130" lon="-4.6871100">
        <ele>1079.9</ele>
        <time>2019-08-13T19:06:56Z</time>
      </trkpt>
      <trkpt lat="40.6483110" lon="-4.6870640">
        <ele>1079.8</ele>
        <time>2019-08-13T19:06:57Z</time>
      </trkpt>
      <trkpt lat="40.6483080" lon="-4.6870200">
        <ele>1079.7</ele>
        <time>2019-08-13T19:06:58Z</time>
      </trkpt>
      <trkpt lat="40.6483040" lon="-4.6869760">
        <ele>1079.6</ele>
        <time>2019-08-13T19:06:59Z</time>
      </trkpt>
      <trkpt lat="40.6482990" lon="-4.6869330">
        <ele>1079.5</ele>
        <time>2019-08-13T19:07:00Z</time>
      </trkpt>
      <trkpt lat="40.6482940" lon="-4.6868900">
        <ele>1079.4</ele>
        <time>2019-08-13T19:07:01Z</time>
      </trkpt>
      <trkpt lat="40.6482910" lon="-4.6868480">
        <ele>1079.3</ele>
        <time>2019-08-13T19:07:02Z</time>
      </trkpt>
      <trkpt lat="40.6482870" lon="-4.6868110">
        <ele>1079.2</ele>
        <time>2019-08-13T19:07:03Z</time>
      </trkpt>
      <trkpt lat="40.6482820" lon="-4.6867620">
        <ele>1079.1</ele>
        <time>2019-08-13T19:07:05Z</time>
      </trkpt>
      <trkpt lat="40.6483030" lon="-4.6866380">
        <ele>1079.7</ele>
        <time>2019-08-13T19:07:30Z</time>
      </trkpt>
      <trkpt lat="40.6482940" lon="-4.6865690">
        <ele>1079.9</ele>
        <time>2019-08-13T19:07:32Z</time>
      </trkpt>
      <trkpt lat="40.6482880" lon="-4.6865310">
        <ele>1080.0</ele>
        <time>2019-08-13T19:07:33Z</time>
      </trkpt>
      <trkpt lat="40.6482810" lon="-4.6864920">
        <ele>1080.1</ele>
        <time>2019-08-13T19:07:34Z</time>
      </trkpt>
      <trkpt lat="40.6482750" lon="-4.6864530">
        <ele>1080.2</ele>
        <time>2019-08-13T19:07:35Z</time>
      </trkpt>
      <trkpt lat="40.6482670" lon="-4.6864130">
        <ele>1080.3</ele>
        <time>2019-08-13T19:07:36Z</time>
      </trkpt>
      <trkpt lat="40.6482590" lon="-4.6863700">
        <ele>1080.4</ele>
        <time>2019-08-13T19:07:37Z</time>
      </trkpt>
      <trkpt lat="40.6482530" lon="-4.6863290">
        <ele>1080.5</ele>
        <time>2019-08-13T19:07:38Z</time>
      </trkpt>
      <trkpt lat="40.6482450" lon="-4.6862890">
        <ele>1080.6</ele>
        <time>2019-08-13T19:07:39Z</time>
      </trkpt>
      <trkpt lat="40.6482360" lon="-4.6862500">
        <ele>1080.7</ele>
        <time>2019-08-13T19:07:40Z</time>
      </trkpt>
      <trkpt lat="40.6482280" lon="-4.6862100">
        <ele>1080.8</ele>
        <time>2019-08-13T19:07:41Z</time>
      </trkpt>
      <trkpt lat="40.6482210" lon="-4.6861720">
        <ele>1080.8</ele>
        <time>2019-08-13T19:07:42Z</time>
      </trkpt>
      <trkpt lat="40.6482160" lon="-4.6861340">
        <ele>1080.9</ele>
        <time>2019-08-13T19:07:43Z</time>
      </trkpt>
      <trkpt lat="40.6482110" lon="-4.6860970">
        <ele>1081.0</ele>
        <time>2019-08-13T19:07:44Z</time>
      </trkpt>
      <trkpt lat="40.6482050" lon="-4.6860610">
        <ele>1081.1</ele>
        <time>2019-08-13T19:07:45Z</time>
      </trkpt>
      <trkpt lat="40.6482000" lon="-4.6860260">
        <ele>1081.1</ele>
        <time>2019-08-13T19:07:46Z</time>
      </trkpt>
      <trkpt lat="40.6481900" lon="-4.6859580">
        <ele>1081.3</ele>
        <time>2019-08-13T19:07:48Z</time>
      </trkpt>
      <trkpt lat="40.6481820" lon="-4.6858900">
        <ele>1081.4</ele>
        <time>2019-08-13T19:07:50Z</time>
      </trkpt>
      <trkpt lat="40.6481700" lon="-4.6858210">
        <ele>1081.7</ele>
        <time>2019-08-13T19:07:52Z</time>
      </trkpt>
      <trkpt lat="40.6481590" lon="-4.6857520">
        <ele>1082.0</ele>
        <time>2019-08-13T19:07:54Z</time>
      </trkpt>
      <trkpt lat="40.6481480" lon="-4.6856850">
        <ele>1082.2</ele>
        <time>2019-08-13T19:07:56Z</time>
      </trkpt>
      <trkpt lat="40.6481390" lon="-4.6856180">
        <ele>1082.3</ele>
        <time>2019-08-13T19:07:58Z</time>
      </trkpt>
      <trkpt lat="40.6481330" lon="-4.6855520">
        <ele>1082.5</ele>
        <time>2019-08-13T19:08:00Z</time>
      </trkpt>
      <trkpt lat="40.6481250" lon="-4.6854850">
        <ele>1082.7</ele>
        <time>2019-08-13T19:08:02Z</time>
      </trkpt>
      <trkpt lat="40.6481170" lon="-4.6854200">
        <ele>1082.9</ele>
        <time>2019-08-13T19:08:04Z</time>
      </trkpt>
      <trkpt lat="40.6481090" lon="-4.6853570">
        <ele>1083.1</ele>
        <time>2019-08-13T19:08:06Z</time>
      </trkpt>
      <trkpt lat="40.6481010" lon="-4.6852950">
        <ele>1083.3</ele>
        <time>2019-08-13T19:08:08Z</time>
      </trkpt>
      <trkpt lat="40.6480900" lon="-4.6852350">
        <ele>1083.5</ele>
        <time>2019-08-13T19:08:10Z</time>
      </trkpt>
      <trkpt lat="40.6480810" lon="-4.6851770">
        <ele>1083.7</ele>
        <time>2019-08-13T19:08:12Z</time>
      </trkpt>
      <trkpt lat="40.6480750" lon="-4.6851180">
        <ele>1083.9</ele>
        <time>2019-08-13T19:08:14Z</time>
      </trkpt>
      <trkpt lat="40.6480680" lon="-4.6850590">
        <ele>1084.1</ele>
        <time>2019-08-13T19:08:16Z</time>
      </trkpt>
      <trkpt lat="40.6480600" lon="-4.6850000">
        <ele>1084.4</ele>
        <time>2019-08-13T19:08:18Z</time>
      </trkpt>
      <trkpt lat="40.6480510" lon="-4.6849420">
        <ele>1084.7</ele>
        <time>2019-08-13T19:08:20Z</time>
      </trkpt>
      <trkpt lat="40.6480440" lon="-4.6848880">
        <ele>1084.9</ele>
        <time>2019-08-13T19:08:22Z</time>
      </trkpt>
      <trkpt lat="40.6480410" lon="-4.6848340">
        <ele>1085.2</ele>
        <time>2019-08-13T19:08:24Z</time>
      </trkpt>
      <trkpt lat="40.6480350" lon="-4.6847790">
        <ele>1085.5</ele>
        <time>2019-08-13T19:08:26Z</time>
      </trkpt>
      <trkpt lat="40.6480260" lon="-4.6847210">
        <ele>1085.8</ele>
        <time>2019-08-13T19:08:28Z</time>
      </trkpt>
      <trkpt lat="40.6480200" lon="-4.6846660">
        <ele>1086.1</ele>
        <time>2019-08-13T19:08:30Z</time>
      </trkpt>
      <trkpt lat="40.6480340" lon="-4.6846270">
        <ele>1086.3</ele>
        <time>2019-08-13T19:08:32Z</time>
      </trkpt>
      <trkpt lat="40.6480730" lon="-4.6846140">
        <ele>1087.1</ele>
        <time>2019-08-13T19:08:34Z</time>
      </trkpt>
      <trkpt lat="40.6481280" lon="-4.6846010">
        <ele>1087.2</ele>
        <time>2019-08-13T19:08:36Z</time>
      </trkpt>
      <trkpt lat="40.6481510" lon="-4.6845820">
        <ele>1087.2</ele>
        <time>2019-08-13T19:08:37Z</time>
      </trkpt>
      <trkpt lat="40.6481630" lon="-4.6845210">
        <ele>1087.6</ele>
        <time>2019-08-13T19:08:39Z</time>
      </trkpt>
      <trkpt lat="40.6481570" lon="-4.6844550">
        <ele>1087.8</ele>
        <time>2019-08-13T19:08:41Z</time>
      </trkpt>
      <trkpt lat="40.6481490" lon="-4.6843870">
        <ele>1088.0</ele>
        <time>2019-08-13T19:08:43Z</time>
      </trkpt>
      <trkpt lat="40.6481430" lon="-4.6843510">
        <ele>1088.1</ele>
        <time>2019-08-13T19:08:44Z</time>
      </trkpt>
      <trkpt lat="40.6481370" lon="-4.6843160">
        <ele>1088.2</ele>
        <time>2019-08-13T19:08:45Z</time>
      </trkpt>
      <trkpt lat="40.6481290" lon="-4.6842810">
        <ele>1088.3</ele>
        <time>2019-08-13T19:08:46Z</time>
      </trkpt>
      <trkpt lat="40.6481130" lon="-4.6842160">
        <ele>1088.6</ele>
        <time>2019-08-13T19:08:48Z</time>
      </trkpt>
      <trkpt lat="40.6481190" lon="-4.6841600">
        <ele>1088.7</ele>
        <time>2019-08-13T19:08:50Z</time>
      </trkpt>
      <trkpt lat="40.6481300" lon="-4.6841130">
        <ele>1088.9</ele>
        <time>2019-08-13T19:08:52Z</time>
      </trkpt>
      <trkpt lat="40.6481250" lon="-4.6840620">
        <ele>1088.9</ele>
        <time>2019-08-13T19:08:54Z</time>
      </trkpt>
      <trkpt lat="40.6481160" lon="-4.6839950">
        <ele>1088.9</ele>
        <time>2019-08-13T19:08:56Z</time>
      </trkpt>
      <trkpt lat="40.6481090" lon="-4.6839520">
        <ele>1088.9</ele>
        <time>2019-08-13T19:08:57Z</time>
      </trkpt>
      <trkpt lat="40.6481080" lon="-4.6839000">
        <ele>1088.9</ele>
        <time>2019-08-13T19:08:58Z</time>
      </trkpt>
      <trkpt lat="40.6481090" lon="-4.6838460">
        <ele>1088.9</ele>
        <time>2019-08-13T19:08:59Z</time>
      </trkpt>
      <trkpt lat="40.6481060" lon="-4.6837980">
        <ele>1088.8</ele>
        <time>2019-08-13T19:09:00Z</time>
      </trkpt>
      <trkpt lat="40.6481090" lon="-4.6837520">
        <ele>1088.8</ele>
        <time>2019-08-13T19:09:01Z</time>
      </trkpt>
      <trkpt lat="40.6481050" lon="-4.6837100">
        <ele>1088.8</ele>
        <time>2019-08-13T19:09:02Z</time>
      </trkpt>
      <trkpt lat="40.6480960" lon="-4.6836500">
        <ele>1088.7</ele>
        <time>2019-08-13T19:09:04Z</time>
      </trkpt>
      <trkpt lat="40.6480950" lon="-4.6836100">
        <ele>1088.7</ele>
        <time>2019-08-13T19:09:05Z</time>
      </trkpt>
      <trkpt lat="40.6480890" lon="-4.6835700">
        <ele>1088.7</ele>
        <time>2019-08-13T19:09:06Z</time>
      </trkpt>
      <trkpt lat="40.6480860" lon="-4.6835170">
        <ele>1088.6</ele>
        <time>2019-08-13T19:09:07Z</time>
      </trkpt>
      <trkpt lat="40.6480860" lon="-4.6834650">
        <ele>1088.5</ele>
        <time>2019-08-13T19:09:08Z</time>
      </trkpt>
      <trkpt lat="40.6480870" lon="-4.6834140">
        <ele>1088.5</ele>
        <time>2019-08-13T19:09:09Z</time>
      </trkpt>
      <trkpt lat="40.6480930" lon="-4.6833630">
        <ele>1088.4</ele>
        <time>2019-08-13T19:09:10Z</time>
      </trkpt>
      <trkpt lat="40.6481060" lon="-4.6833070">
        <ele>1088.3</ele>
        <time>2019-08-13T19:09:11Z</time>
      </trkpt>
      <trkpt lat="40.6480990" lon="-4.6832420">
        <ele>1088.2</ele>
        <time>2019-08-13T19:09:12Z</time>
      </trkpt>
      <trkpt lat="40.6480990" lon="-4.6831690">
        <ele>1088.2</ele>
        <time>2019-08-13T19:09:13Z</time>
      </trkpt>
      <trkpt lat="40.6480950" lon="-4.6831000">
        <ele>1088.1</ele>
        <time>2019-08-13T19:09:14Z</time>
      </trkpt>
      <trkpt lat="40.6480940" lon="-4.6830310">
        <ele>1088.0</ele>
        <time>2019-08-13T19:09:15Z</time>
      </trkpt>
      <trkpt lat="40.6480970" lon="-4.6829590">
        <ele>1088.0</ele>
        <time>2019-08-13T19:09:16Z</time>
      </trkpt>
      <trkpt lat="40.6481080" lon="-4.6828800">
        <ele>1087.9</ele>
        <time>2019-08-13T19:09:17Z</time>
      </trkpt>
      <trkpt lat="40.6481140" lon="-4.6828020">
        <ele>1087.9</ele>
        <time>2019-08-13T19:09:18Z</time>
      </trkpt>
      <trkpt lat="40.6481200" lon="-4.6827230">
        <ele>1087.9</ele>
        <time>2019-08-13T19:09:19Z</time>
      </trkpt>
      <trkpt lat="40.6481190" lon="-4.6826520">
        <ele>1087.9</ele>
        <time>2019-08-13T19:09:20Z</time>
      </trkpt>
      <trkpt lat="40.6481230" lon="-4.6825850">
        <ele>1087.9</ele>
        <time>2019-08-13T19:09:21Z</time>
      </trkpt>
      <trkpt lat="40.6481220" lon="-4.6825200">
        <ele>1087.9</ele>
        <time>2019-08-13T19:09:22Z</time>
      </trkpt>
      <trkpt lat="40.6481210" lon="-4.6824700">
        <ele>1088.2</ele>
        <time>2019-08-13T19:09:23Z</time>
      </trkpt>
      <trkpt lat="40.6481270" lon="-4.6824320">
        <ele>1088.3</ele>
        <time>2019-08-13T19:09:24Z</time>
      </trkpt>
      <trkpt lat="40.6481600" lon="-4.6823820">
        <ele>1088.4</ele>
        <time>2019-08-13T19:09:26Z</time>
      </trkpt>
      <trkpt lat="40.6481980" lon="-4.6823750">
        <ele>1089.3</ele>
        <time>2019-08-13T19:09:28Z</time>
      </trkpt>
      <trkpt lat="40.6482270" lon="-4.6823680">
        <ele>1089.5</ele>
        <time>2019-08-13T19:09:31Z</time>
      </trkpt>
      <trkpt lat="40.6482370" lon="-4.6823270">
        <ele>1089.8</ele>
        <time>2019-08-13T19:09:33Z</time>
      </trkpt>
      <trkpt lat="40.6482530" lon="-4.6823120">
        <ele>1089.9</ele>
        <time>2019-08-13T19:09:38Z</time>
      </trkpt>
      <trkpt lat="40.6482500" lon="-4.6822470">
        <ele>1090.2</ele>
        <time>2019-08-13T19:10:22Z</time>
      </trkpt>
      <trkpt lat="40.6482840" lon="-4.6822740">
        <ele>1090.5</ele>
        <time>2019-08-13T19:10:24Z</time>
      </trkpt>
      <trkpt lat="40.6483190" lon="-4.6822730">
        <ele>1090.7</ele>
        <time>2019-08-13T19:10:26Z</time>
      </trkpt>
      <trkpt lat="40.6483520" lon="-4.6822790">
        <ele>1090.9</ele>
        <time>2019-08-13T19:10:28Z</time>
      </trkpt>
      <trkpt lat="40.6483910" lon="-4.6822650">
        <ele>1091.2</ele>
        <time>2019-08-13T19:10:31Z</time>
      </trkpt>
      <trkpt lat="40.6484230" lon="-4.6822550">
        <ele>1091.4</ele>
        <time>2019-08-13T19:10:33Z</time>
      </trkpt>
      <trkpt lat="40.6484580" lon="-4.6822430">
        <ele>1091.6</ele>
        <time>2019-08-13T19:10:35Z</time>
      </trkpt>
      <trkpt lat="40.6484950" lon="-4.6822250">
        <ele>1091.9</ele>
        <time>2019-08-13T19:10:37Z</time>
      </trkpt>
      <trkpt lat="40.6485260" lon="-4.6821930">
        <ele>1092.2</ele>
        <time>2019-08-13T19:10:39Z</time>
      </trkpt>
      <trkpt lat="40.6485530" lon="-4.6821510">
        <ele>1092.3</ele>
        <time>2019-08-13T19:10:41Z</time>
      </trkpt>
      <trkpt lat="40.6485900" lon="-4.6821410">
        <ele>1092.5</ele>
        <time>2019-08-13T19:10:43Z</time>
      </trkpt>
      <trkpt lat="40.6486270" lon="-4.6821310">
        <ele>1092.6</ele>
        <time>2019-08-13T19:10:45Z</time>
      </trkpt>
      <trkpt lat="40.6486620" lon="-4.6821220">
        <ele>1092.8</ele>
        <time>2019-08-13T19:10:47Z</time>
      </trkpt>
      <trkpt lat="40.6486980" lon="-4.6821180">
        <ele>1092.9</ele>
        <time>2019-08-13T19:10:49Z</time>
      </trkpt>
      <trkpt lat="40.6487340" lon="-4.6821100">
        <ele>1093.1</ele>
        <time>2019-08-13T19:10:51Z</time>
      </trkpt>
      <trkpt lat="40.6487740" lon="-4.6821000">
        <ele>1093.2</ele>
        <time>2019-08-13T19:10:53Z</time>
      </trkpt>
      <trkpt lat="40.6488140" lon="-4.6820950">
        <ele>1093.3</ele>
        <time>2019-08-13T19:10:55Z</time>
      </trkpt>
      <trkpt lat="40.6488550" lon="-4.6820910">
        <ele>1093.4</ele>
        <time>2019-08-13T19:10:57Z</time>
      </trkpt>
      <trkpt lat="40.6488980" lon="-4.6820790">
        <ele>1093.5</ele>
        <time>2019-08-13T19:10:59Z</time>
      </trkpt>
      <trkpt lat="40.6489420" lon="-4.6820660">
        <ele>1093.6</ele>
        <time>2019-08-13T19:11:01Z</time>
      </trkpt>
      <trkpt lat="40.6489870" lon="-4.6820570">
        <ele>1093.7</ele>
        <time>2019-08-13T19:11:03Z</time>
      </trkpt>
      <trkpt lat="40.6490320" lon="-4.6820460">
        <ele>1093.9</ele>
        <time>2019-08-13T19:11:05Z</time>
      </trkpt>
      <trkpt lat="40.6490760" lon="-4.6820380">
        <ele>1094.0</ele>
        <time>2019-08-13T19:11:07Z</time>
      </trkpt>
      <trkpt lat="40.6491200" lon="-4.6820260">
        <ele>1094.1</ele>
        <time>2019-08-13T19:11:09Z</time>
      </trkpt>
      <trkpt lat="40.6491630" lon="-4.6820100">
        <ele>1094.3</ele>
        <time>2019-08-13T19:11:11Z</time>
      </trkpt>
      <trkpt lat="40.6492070" lon="-4.6820000">
        <ele>1094.4</ele>
        <time>2019-08-13T19:11:13Z</time>
      </trkpt>
      <trkpt lat="40.6492520" lon="-4.6819950">
        <ele>1094.6</ele>
        <time>2019-08-13T19:11:15Z</time>
      </trkpt>
      <trkpt lat="40.6492960" lon="-4.6819930">
        <ele>1094.7</ele>
        <time>2019-08-13T19:11:17Z</time>
      </trkpt>
      <trkpt lat="40.6493400" lon="-4.6819870">
        <ele>1094.9</ele>
        <time>2019-08-13T19:11:19Z</time>
      </trkpt>
      <trkpt lat="40.6493850" lon="-4.6819800">
        <ele>1095.0</ele>
        <time>2019-08-13T19:11:21Z</time>
      </trkpt>
      <trkpt lat="40.6494300" lon="-4.6819710">
        <ele>1095.1</ele>
        <time>2019-08-13T19:11:23Z</time>
      </trkpt>
      <trkpt lat="40.6494740" lon="-4.6819610">
        <ele>1095.2</ele>
        <time>2019-08-13T19:11:25Z</time>
      </trkpt>
      <trkpt lat="40.6495200" lon="-4.6819560">
        <ele>1095.4</ele>
        <time>2019-08-13T19:11:27Z</time>
      </trkpt>
      <trkpt lat="40.6495660" lon="-4.6819530">
        <ele>1095.5</ele>
        <time>2019-08-13T19:11:29Z</time>
      </trkpt>
      <trkpt lat="40.6496090" lon="-4.6819460">
        <ele>1095.6</ele>
        <time>2019-08-13T19:11:31Z</time>
      </trkpt>
      <trkpt lat="40.6496540" lon="-4.6819400">
        <ele>1095.9</ele>
        <time>2019-08-13T19:11:33Z</time>
      </trkpt>
      <trkpt lat="40.6497000" lon="-4.6819300">
        <ele>1096.1</ele>
        <time>2019-08-13T19:11:35Z</time>
      </trkpt>
      <trkpt lat="40.6497470" lon="-4.6819260">
        <ele>1096.2</ele>
        <time>2019-08-13T19:11:37Z</time>
      </trkpt>
      <trkpt lat="40.6497950" lon="-4.6819190">
        <ele>1096.3</ele>
        <time>2019-08-13T19:11:39Z</time>
      </trkpt>
      <trkpt lat="40.6498420" lon="-4.6819090">
        <ele>1096.5</ele>
        <time>2019-08-13T19:11:41Z</time>
      </trkpt>
      <trkpt lat="40.6498890" lon="-4.6818980">
        <ele>1096.6</ele>
        <time>2019-08-13T19:11:43Z</time>
      </trkpt>
      <trkpt lat="40.6499350" lon="-4.6818870">
        <ele>1096.7</ele>
        <time>2019-08-13T19:11:45Z</time>
      </trkpt>
      <trkpt lat="40.6499810" lon="-4.6818850">
        <ele>1096.9</ele>
        <time>2019-08-13T19:11:47Z</time>
      </trkpt>
      <trkpt lat="40.6500320" lon="-4.6819030">
        <ele>1097.2</ele>
        <time>2019-08-13T19:11:49Z</time>
      </trkpt>
      <trkpt lat="40.6500600" lon="-4.6819200">
        <ele>1097.4</ele>
        <time>2019-08-13T19:11:50Z</time>
      </trkpt>
      <trkpt lat="40.6500870" lon="-4.6819470">
        <ele>1097.5</ele>
        <time>2019-08-13T19:11:51Z</time>
      </trkpt>
      <trkpt lat="40.6501070" lon="-4.6819810">
        <ele>1097.7</ele>
        <time>2019-08-13T19:11:52Z</time>
      </trkpt>
      <trkpt lat="40.6501220" lon="-4.6820230">
        <ele>1097.8</ele>
        <time>2019-08-13T19:11:53Z</time>
      </trkpt>
      <trkpt lat="40.6501340" lon="-4.6820670">
        <ele>1098.0</ele>
        <time>2019-08-13T19:11:54Z</time>
      </trkpt>
      <trkpt lat="40.6501440" lon="-4.6821090">
        <ele>1098.1</ele>
        <time>2019-08-13T19:11:55Z</time>
      </trkpt>
      <trkpt lat="40.6501570" lon="-4.6821550">
        <ele>1098.2</ele>
        <time>2019-08-13T19:11:56Z</time>
      </trkpt>
      <trkpt lat="40.6501700" lon="-4.6822020">
        <ele>1098.3</ele>
        <time>2019-08-13T19:11:57Z</time>
      </trkpt>
      <trkpt lat="40.6501830" lon="-4.6822500">
        <ele>1098.3</ele>
        <time>2019-08-13T19:11:58Z</time>
      </trkpt>
      <trkpt lat="40.6501970" lon="-4.6822990">
        <ele>1098.4</ele>
        <time>2019-08-13T19:11:59Z</time>
      </trkpt>
      <trkpt lat="40.6502100" lon="-4.6823490">
        <ele>1098.4</ele>
        <time>2019-08-13T19:12:00Z</time>
      </trkpt>
      <trkpt lat="40.6502230" lon="-4.6823990">
        <ele>1098.4</ele>
        <time>2019-08-13T19:12:01Z</time>
      </trkpt>
      <trkpt lat="40.6502360" lon="-4.6824490">
        <ele>1098.4</ele>
        <time>2019-08-13T19:12:02Z</time>
      </trkpt>
      <trkpt lat="40.6502480" lon="-4.6824990">
        <ele>1098.4</ele>
        <time>2019-08-13T19:12:03Z</time>
      </trkpt>
      <trkpt lat="40.6502610" lon="-4.6825490">
        <ele>1098.3</ele>
        <time>2019-08-13T19:12:04Z</time>
      </trkpt>
      <trkpt lat="40.6502740" lon="-4.6826000">
        <ele>1098.3</ele>
        <time>2019-08-13T19:12:05Z</time>
      </trkpt>
      <trkpt lat="40.6502880" lon="-4.6826500">
        <ele>1098.2</ele>
        <time>2019-08-13T19:12:06Z</time>
      </trkpt>
      <trkpt lat="40.6503020" lon="-4.6827000">
        <ele>1098.2</ele>
        <time>2019-08-13T19:12:07Z</time>
      </trkpt>
      <trkpt lat="40.6503150" lon="-4.6827500">
        <ele>1098.2</ele>
        <time>2019-08-13T19:12:08Z</time>
      </trkpt>
      <trkpt lat="40.6503300" lon="-4.6828020">
        <ele>1098.1</ele>
        <time>2019-08-13T19:12:09Z</time>
      </trkpt>
      <trkpt lat="40.6503430" lon="-4.6828530">
        <ele>1098.2</ele>
        <time>2019-08-13T19:12:10Z</time>
      </trkpt>
      <trkpt lat="40.6503560" lon="-4.6829040">
        <ele>1098.2</ele>
        <time>2019-08-13T19:12:11Z</time>
      </trkpt>
      <trkpt lat="40.6503660" lon="-4.6829530">
        <ele>1098.2</ele>
        <time>2019-08-13T19:12:12Z</time>
      </trkpt>
      <trkpt lat="40.6503770" lon="-4.6829990">
        <ele>1098.3</ele>
        <time>2019-08-13T19:12:13Z</time>
      </trkpt>
      <trkpt lat="40.6503890" lon="-4.6830430">
        <ele>1098.3</ele>
        <time>2019-08-13T19:12:14Z</time>
      </trkpt>
      <trkpt lat="40.6504020" lon="-4.6830890">
        <ele>1098.4</ele>
        <time>2019-08-13T19:12:15Z</time>
      </trkpt>
      <trkpt lat="40.6504150" lon="-4.6831340">
        <ele>1098.5</ele>
        <time>2019-08-13T19:12:16Z</time>
      </trkpt>
      <trkpt lat="40.6504270" lon="-4.6831780">
        <ele>1098.6</ele>
        <time>2019-08-13T19:12:17Z</time>
      </trkpt>
      <trkpt lat="40.6504380" lon="-4.6832230">
        <ele>1098.7</ele>
        <time>2019-08-13T19:12:18Z</time>
      </trkpt>
      <trkpt lat="40.6504490" lon="-4.6832650">
        <ele>1098.8</ele>
        <time>2019-08-13T19:12:19Z</time>
      </trkpt>
      <trkpt lat="40.6504590" lon="-4.6833070">
        <ele>1098.8</ele>
        <time>2019-08-13T19:12:20Z</time>
      </trkpt>
      <trkpt lat="40.6504690" lon="-4.6833480">
        <ele>1098.9</ele>
        <time>2019-08-13T19:12:21Z</time>
      </trkpt>
      <trkpt lat="40.6504770" lon="-4.6833860">
        <ele>1098.9</ele>
        <time>2019-08-13T19:12:22Z</time>
      </trkpt>
      <trkpt lat="40.6504850" lon="-4.6834250">
        <ele>1098.9</ele>
        <time>2019-08-13T19:12:23Z</time>
      </trkpt>
      <trkpt lat="40.6504930" lon="-4.6834640">
        <ele>1098.9</ele>
        <time>2019-08-13T19:12:24Z</time>
      </trkpt>
      <trkpt lat="40.6504990" lon="-4.6835040">
        <ele>1099.0</ele>
        <time>2019-08-13T19:12:25Z</time>
      </trkpt>
      <trkpt lat="40.6505050" lon="-4.6835440">
        <ele>1099.0</ele>
        <time>2019-08-13T19:12:26Z</time>
      </trkpt>
      <trkpt lat="40.6505130" lon="-4.6835830">
        <ele>1099.0</ele>
        <time>2019-08-13T19:12:27Z</time>
      </trkpt>
      <trkpt lat="40.6505220" lon="-4.6836230">
        <ele>1099.0</ele>
        <time>2019-08-13T19:12:28Z</time>
      </trkpt>
      <trkpt lat="40.6505310" lon="-4.6836650">
        <ele>1099.0</ele>
        <time>2019-08-13T19:12:29Z</time>
      </trkpt>
      <trkpt lat="40.6505400" lon="-4.6837080">
        <ele>1099.0</ele>
        <time>2019-08-13T19:12:30Z</time>
      </trkpt>
      <trkpt lat="40.6505480" lon="-4.6837510">
        <ele>1099.1</ele>
        <time>2019-08-13T19:12:31Z</time>
      </trkpt>
      <trkpt lat="40.6505550" lon="-4.6837940">
        <ele>1099.1</ele>
        <time>2019-08-13T19:12:32Z</time>
      </trkpt>
      <trkpt lat="40.6505610" lon="-4.6838370">
        <ele>1099.2</ele>
        <time>2019-08-13T19:12:33Z</time>
      </trkpt>
      <trkpt lat="40.6505680" lon="-4.6838830">
        <ele>1099.2</ele>
        <time>2019-08-13T19:12:34Z</time>
      </trkpt>
      <trkpt lat="40.6505740" lon="-4.6839300">
        <ele>1099.3</ele>
        <time>2019-08-13T19:12:35Z</time>
      </trkpt>
      <trkpt lat="40.6505790" lon="-4.6839820">
        <ele>1099.3</ele>
        <time>2019-08-13T19:12:36Z</time>
      </trkpt>
      <trkpt lat="40.6505840" lon="-4.6840350">
        <ele>1099.3</ele>
        <time>2019-08-13T19:12:37Z</time>
      </trkpt>
      <trkpt lat="40.6505870" lon="-4.6840890">
        <ele>1099.4</ele>
        <time>2019-08-13T19:12:38Z</time>
      </trkpt>
      <trkpt lat="40.6505900" lon="-4.6841450">
        <ele>1099.4</ele>
        <time>2019-08-13T19:12:39Z</time>
      </trkpt>
      <trkpt lat="40.6505940" lon="-4.6842010">
        <ele>1099.4</ele>
        <time>2019-08-13T19:12:40Z</time>
      </trkpt>
      <trkpt lat="40.6505950" lon="-4.6842600">
        <ele>1099.4</ele>
        <time>2019-08-13T19:12:41Z</time>
      </trkpt>
      <trkpt lat="40.6505950" lon="-4.6843200">
        <ele>1099.4</ele>
        <time>2019-08-13T19:12:42Z</time>
      </trkpt>
      <trkpt lat="40.6505950" lon="-4.6843830">
        <ele>1099.4</ele>
        <time>2019-08-13T19:12:43Z</time>
      </trkpt>
      <trkpt lat="40.6505970" lon="-4.6844480">
        <ele>1099.4</ele>
        <time>2019-08-13T19:12:44Z</time>
      </trkpt>
      <trkpt lat="40.6505970" lon="-4.6845140">
        <ele>1099.4</ele>
        <time>2019-08-13T19:12:45Z</time>
      </trkpt>
      <trkpt lat="40.6505980" lon="-4.6845810">
        <ele>1099.3</ele>
        <time>2019-08-13T19:12:46Z</time>
      </trkpt>
      <trkpt lat="40.6506010" lon="-4.6846460">
        <ele>1099.3</ele>
        <time>2019-08-13T19:12:47Z</time>
      </trkpt>
      <trkpt lat="40.6506040" lon="-4.6847130">
        <ele>1099.2</ele>
        <time>2019-08-13T19:12:48Z</time>
      </trkpt>
      <trkpt lat="40.6506070" lon="-4.6847820">
        <ele>1099.2</ele>
        <time>2019-08-13T19:12:49Z</time>
      </trkpt>
      <trkpt lat="40.6506090" lon="-4.6848520">
        <ele>1099.1</ele>
        <time>2019-08-13T19:12:50Z</time>
      </trkpt>
      <trkpt lat="40.6506120" lon="-4.6849210">
        <ele>1099.0</ele>
        <time>2019-08-13T19:12:51Z</time>
      </trkpt>
      <trkpt lat="40.6506140" lon="-4.6849860">
        <ele>1098.8</ele>
        <time>2019-08-13T19:12:52Z</time>
      </trkpt>
      <trkpt lat="40.6506160" lon="-4.6850470">
        <ele>1098.7</ele>
        <time>2019-08-13T19:12:53Z</time>
      </trkpt>
      <trkpt lat="40.6506190" lon="-4.6851040">
        <ele>1098.6</ele>
        <time>2019-08-13T19:12:54Z</time>
      </trkpt>
      <trkpt lat="40.6506230" lon="-4.6851550">
        <ele>1098.5</ele>
        <time>2019-08-13T19:12:55Z</time>
      </trkpt>
      <trkpt lat="40.6506360" lon="-4.6852000">
        <ele>1098.4</ele>
        <time>2019-08-13T19:12:56Z</time>
      </trkpt>
      <trkpt lat="40.6506600" lon="-4.6852290">
        <ele>1098.6</ele>
        <time>2019-08-13T19:12:57Z</time>
      </trkpt>
      <trkpt lat="40.6506930" lon="-4.6852370">
        <ele>1098.8</ele>
        <time>2019-08-13T19:12:58Z</time>
      </trkpt>
      <trkpt lat="40.6507260" lon="-4.6852310">
        <ele>1098.9</ele>
        <time>2019-08-13T19:12:59Z</time>
      </trkpt>
      <trkpt lat="40.6507630" lon="-4.6852250">
        <ele>1099.1</ele>
        <time>2019-08-13T19:13:00Z</time>
      </trkpt>
      <trkpt lat="40.6507980" lon="-4.6852190">
        <ele>1099.2</ele>
        <time>2019-08-13T19:13:01Z</time>
      </trkpt>
      <trkpt lat="40.6508330" lon="-4.6852140">
        <ele>1099.3</ele>
        <time>2019-08-13T19:13:02Z</time>
      </trkpt>
      <trkpt lat="40.6508660" lon="-4.6852110">
        <ele>1099.5</ele>
        <time>2019-08-13T19:13:03Z</time>
      </trkpt>
      <trkpt lat="40.6508990" lon="-4.6852100">
        <ele>1099.6</ele>
        <time>2019-08-13T19:13:04Z</time>
      </trkpt>
      <trkpt lat="40.6509320" lon="-4.6852080">
        <ele>1099.7</ele>
        <time>2019-08-13T19:13:05Z</time>
      </trkpt>
      <trkpt lat="40.6509620" lon="-4.6852040">
        <ele>1099.9</ele>
        <time>2019-08-13T19:13:06Z</time>
      </trkpt>
      <trkpt lat="40.6509930" lon="-4.6852010">
        <ele>1100.0</ele>
        <time>2019-08-13T19:13:07Z</time>
      </trkpt>
      <trkpt lat="40.6510260" lon="-4.6851980">
        <ele>1100.1</ele>
        <time>2019-08-13T19:13:08Z</time>
      </trkpt>
      <trkpt lat="40.6510580" lon="-4.6851950">
        <ele>1100.7</ele>
        <time>2019-08-13T19:13:09Z</time>
      </trkpt>
      <trkpt lat="40.6510880" lon="-4.6851930">
        <ele>1101.0</ele>
        <time>2019-08-13T19:13:10Z</time>
      </trkpt>
      <trkpt lat="40.6511180" lon="-4.6851940">
        <ele>1101.3</ele>
        <time>2019-08-13T19:13:11Z</time>
      </trkpt>
      <trkpt lat="40.6511470" lon="-4.6851960">
        <ele>1101.6</ele>
        <time>2019-08-13T19:13:12Z</time>
      </trkpt>
      <trkpt lat="40.6511770" lon="-4.6851940">
        <ele>1101.9</ele>
        <time>2019-08-13T19:13:13Z</time>
      </trkpt>
      <trkpt lat="40.6512060" lon="-4.6851900">
        <ele>1102.2</ele>
        <time>2019-08-13T19:13:14Z</time>
      </trkpt>
      <trkpt lat="40.6512360" lon="-4.6851870">
        <ele>1102.6</ele>
        <time>2019-08-13T19:13:15Z</time>
      </trkpt>
      <trkpt lat="40.6512660" lon="-4.6851850">
        <ele>1102.9</ele>
        <time>2019-08-13T19:13:16Z</time>
      </trkpt>
      <trkpt lat="40.6512950" lon="-4.6851810">
        <ele>1103.2</ele>
        <time>2019-08-13T19:13:17Z</time>
      </trkpt>
      <trkpt lat="40.6513240" lon="-4.6851730">
        <ele>1103.5</ele>
        <time>2019-08-13T19:13:18Z</time>
      </trkpt>
      <trkpt lat="40.6513520" lon="-4.6851670">
        <ele>1103.8</ele>
        <time>2019-08-13T19:13:19Z</time>
      </trkpt>
      <trkpt lat="40.6513800" lon="-4.6851600">
        <ele>1104.1</ele>
        <time>2019-08-13T19:13:20Z</time>
      </trkpt>
      <trkpt lat="40.6514080" lon="-4.6851570">
        <ele>1104.5</ele>
        <time>2019-08-13T19:13:21Z</time>
      </trkpt>
      <trkpt lat="40.6514370" lon="-4.6851590">
        <ele>1104.9</ele>
        <time>2019-08-13T19:13:22Z</time>
      </trkpt>
      <trkpt lat="40.6514660" lon="-4.6851570">
        <ele>1105.4</ele>
        <time>2019-08-13T19:13:23Z</time>
      </trkpt>
      <trkpt lat="40.6514940" lon="-4.6851550">
        <ele>1105.9</ele>
        <time>2019-08-13T19:13:24Z</time>
      </trkpt>
      <trkpt lat="40.6515220" lon="-4.6851550">
        <ele>1106.4</ele>
        <time>2019-08-13T19:13:25Z</time>
      </trkpt>
      <trkpt lat="40.6515740" lon="-4.6851520">
        <ele>1107.2</ele>
        <time>2019-08-13T19:13:27Z</time>
      </trkpt>
      <trkpt lat="40.6516280" lon="-4.6851500">
        <ele>1108.1</ele>
        <time>2019-08-13T19:13:29Z</time>
      </trkpt>
      <trkpt lat="40.6516810" lon="-4.6851320">
        <ele>1109.0</ele>
        <time>2019-08-13T19:13:31Z</time>
      </trkpt>
      <trkpt lat="40.6517180" lon="-4.6851010">
        <ele>1109.8</ele>
        <time>2019-08-13T19:13:33Z</time>
      </trkpt>
      <trkpt lat="40.6517280" lon="-4.6850500">
        <ele>1110.0</ele>
        <time>2019-08-13T19:13:35Z</time>
      </trkpt>
      <trkpt lat="40.6517240" lon="-4.6849710">
        <ele>1109.8</ele>
        <time>2019-08-13T19:13:37Z</time>
      </trkpt>
      <trkpt lat="40.6517230" lon="-4.6849270">
        <ele>1109.5</ele>
        <time>2019-08-13T19:13:38Z</time>
      </trkpt>
      <trkpt lat="40.6517240" lon="-4.6848860">
        <ele>1109.3</ele>
        <time>2019-08-13T19:13:39Z</time>
      </trkpt>
      <trkpt lat="40.6517250" lon="-4.6848440">
        <ele>1109.1</ele>
        <time>2019-08-13T19:13:40Z</time>
      </trkpt>
      <trkpt lat="40.6517260" lon="-4.6848010">
        <ele>1108.9</ele>
        <time>2019-08-13T19:13:41Z</time>
      </trkpt>
      <trkpt lat="40.6517260" lon="-4.6847580">
        <ele>1108.6</ele>
        <time>2019-08-13T19:13:42Z</time>
      </trkpt>
      <trkpt lat="40.6517230" lon="-4.6847150">
        <ele>1108.4</ele>
        <time>2019-08-13T19:13:43Z</time>
      </trkpt>
      <trkpt lat="40.6517200" lon="-4.6846750">
        <ele>1108.1</ele>
        <time>2019-08-13T19:13:44Z</time>
      </trkpt>
      <trkpt lat="40.6517160" lon="-4.6846360">
        <ele>1107.8</ele>
        <time>2019-08-13T19:13:45Z</time>
      </trkpt>
      <trkpt lat="40.6517100" lon="-4.6845980">
        <ele>1107.6</ele>
        <time>2019-08-13T19:13:46Z</time>
      </trkpt>
      <trkpt lat="40.6517070" lon="-4.6845600">
        <ele>1107.4</ele>
        <time>2019-08-13T19:13:47Z</time>
      </trkpt>
      <trkpt lat="40.6517040" lon="-4.6845210">
        <ele>1107.2</ele>
        <time>2019-08-13T19:13:48Z</time>
      </trkpt>
      <trkpt lat="40.6516990" lon="-4.6844820">
        <ele>1106.6</ele>
        <time>2019-08-13T19:13:49Z</time>
      </trkpt>
      <trkpt lat="40.6516970" lon="-4.6844450">
        <ele>1106.6</ele>
        <time>2019-08-13T19:13:50Z</time>
      </trkpt>
      <trkpt lat="40.6516950" lon="-4.6844080">
        <ele>1106.6</ele>
        <time>2019-08-13T19:13:51Z</time>
      </trkpt>
      <trkpt lat="40.6516950" lon="-4.6843710">
        <ele>1106.6</ele>
        <time>2019-08-13T19:13:52Z</time>
      </trkpt>
      <trkpt lat="40.6516940" lon="-4.6843340">
        <ele>1106.5</ele>
        <time>2019-08-13T19:13:53Z</time>
      </trkpt>
      <trkpt lat="40.6516920" lon="-4.6842970">
        <ele>1106.3</ele>
        <time>2019-08-13T19:13:54Z</time>
      </trkpt>
      <trkpt lat="40.6516900" lon="-4.6842590">
        <ele>1106.1</ele>
        <time>2019-08-13T19:13:55Z</time>
      </trkpt>
      <trkpt lat="40.6516890" lon="-4.6842220">
        <ele>1106.0</ele>
        <time>2019-08-13T19:13:56Z</time>
      </trkpt>
      <trkpt lat="40.6516880" lon="-4.6841840">
        <ele>1105.9</ele>
        <time>2019-08-13T19:13:57Z</time>
      </trkpt>
      <trkpt lat="40.6516870" lon="-4.6841460">
        <ele>1105.8</ele>
        <time>2019-08-13T19:13:58Z</time>
      </trkpt>
      <trkpt lat="40.6516860" lon="-4.6841080">
        <ele>1105.6</ele>
        <time>2019-08-13T19:13:59Z</time>
      </trkpt>
      <trkpt lat="40.6516840" lon="-4.6840700">
        <ele>1105.5</ele>
        <time>2019-08-13T19:14:00Z</time>
      </trkpt>
      <trkpt lat="40.6516820" lon="-4.6840310">
        <ele>1105.4</ele>
        <time>2019-08-13T19:14:01Z</time>
      </trkpt>
      <trkpt lat="40.6516810" lon="-4.6839930">
        <ele>1105.3</ele>
        <time>2019-08-13T19:14:02Z</time>
      </trkpt>
      <trkpt lat="40.6516810" lon="-4.6839540">
        <ele>1105.2</ele>
        <time>2019-08-13T19:14:03Z</time>
      </trkpt>
      <trkpt lat="40.6516800" lon="-4.6839140">
        <ele>1105.1</ele>
        <time>2019-08-13T19:14:04Z</time>
      </trkpt>
      <trkpt lat="40.6516810" lon="-4.6838740">
        <ele>1105.0</ele>
        <time>2019-08-13T19:14:05Z</time>
      </trkpt>
      <trkpt lat="40.6516810" lon="-4.6838340">
        <ele>1105.0</ele>
        <time>2019-08-13T19:14:06Z</time>
      </trkpt>
      <trkpt lat="40.6516800" lon="-4.6837950">
        <ele>1104.9</ele>
        <time>2019-08-13T19:14:07Z</time>
      </trkpt>
      <trkpt lat="40.6516800" lon="-4.6837560">
        <ele>1104.8</ele>
        <time>2019-08-13T19:14:08Z</time>
      </trkpt>
      <trkpt lat="40.6516800" lon="-4.6837180">
        <ele>1104.8</ele>
        <time>2019-08-13T19:14:09Z</time>
      </trkpt>
      <trkpt lat="40.6516790" lon="-4.6836800">
        <ele>1104.7</ele>
        <time>2019-08-13T19:14:10Z</time>
      </trkpt>
      <trkpt lat="40.6516780" lon="-4.6836440">
        <ele>1104.6</ele>
        <time>2019-08-13T19:14:11Z</time>
      </trkpt>
      <trkpt lat="40.6516790" lon="-4.6836080">
        <ele>1104.2</ele>
        <time>2019-08-13T19:14:12Z</time>
      </trkpt>
      <trkpt lat="40.6516800" lon="-4.6835430">
        <ele>1104.4</ele>
        <time>2019-08-13T19:14:14Z</time>
      </trkpt>
      <trkpt lat="40.6516830" lon="-4.6834850">
        <ele>1104.5</ele>
        <time>2019-08-13T19:14:16Z</time>
      </trkpt>
      <trkpt lat="40.6516940" lon="-4.6834310">
        <ele>1104.6</ele>
        <time>2019-08-13T19:14:18Z</time>
      </trkpt>
      <trkpt lat="40.6516930" lon="-4.6833730">
        <ele>1104.6</ele>
        <time>2019-08-13T19:14:20Z</time>
      </trkpt>
      <trkpt lat="40.6516810" lon="-4.6833190">
        <ele>1104.4</ele>
        <time>2019-08-13T19:14:22Z</time>
      </trkpt>
      <trkpt lat="40.6516720" lon="-4.6832690">
        <ele>1104.4</ele>
        <time>2019-08-13T19:14:24Z</time>
      </trkpt>
      <trkpt lat="40.6516690" lon="-4.6832200">
        <ele>1104.4</ele>
        <time>2019-08-13T19:14:26Z</time>
      </trkpt>
      <trkpt lat="40.6516650" lon="-4.6831700">
        <ele>1104.4</ele>
        <time>2019-08-13T19:14:28Z</time>
      </trkpt>
      <trkpt lat="40.6516680" lon="-4.6831260">
        <ele>1104.8</ele>
        <time>2019-08-13T19:14:30Z</time>
      </trkpt>
      <trkpt lat="40.6516850" lon="-4.6830990">
        <ele>1104.8</ele>
        <time>2019-08-13T19:14:32Z</time>
      </trkpt>
      <trkpt lat="40.6517180" lon="-4.6830840">
        <ele>1105.3</ele>
        <time>2019-08-13T19:14:34Z</time>
      </trkpt>
      <trkpt lat="40.6517540" lon="-4.6830790">
        <ele>1105.7</ele>
        <time>2019-08-13T19:14:36Z</time>
      </trkpt>
      <trkpt lat="40.6517840" lon="-4.6830720">
        <ele>1106.2</ele>
        <time>2019-08-13T19:14:38Z</time>
      </trkpt>
      <trkpt lat="40.6518040" lon="-4.6830900">
        <ele>1106.6</ele>
        <time>2019-08-13T19:14:46Z</time>
      </trkpt>
      <trkpt lat="40.6518210" lon="-4.6831180">
        <ele>1106.5</ele>
        <time>2019-08-13T19:14:52Z</time>
      </trkpt>
      <trkpt lat="40.6518760" lon="-4.6831440">
        <ele>1107.3</ele>
        <time>2019-08-13T19:15:02Z</time>
      </trkpt>
      <trkpt lat="40.6519060" lon="-4.6831350">
        <ele>1107.8</ele>
        <time>2019-08-13T19:15:05Z</time>
      </trkpt>
      <trkpt lat="40.6519350" lon="-4.6831240">
        <ele>1108.3</ele>
        <time>2019-08-13T19:15:08Z</time>
      </trkpt>
      <trkpt lat="40.6519580" lon="-4.6831110">
        <ele>1108.3</ele>
        <time>2019-08-13T19:15:14Z</time>
      </trkpt>
      <trkpt lat="40.6519830" lon="-4.6830980">
        <ele>1108.8</ele>
        <time>2019-08-13T19:15:18Z</time>
      </trkpt>
      <trkpt lat="40.6520180" lon="-4.6830880">
        <ele>1109.4</ele>
        <time>2019-08-13T19:15:20Z</time>
      </trkpt>
      <trkpt lat="40.6520580" lon="-4.6830810">
        <ele>1110.3</ele>
        <time>2019-08-13T19:15:22Z</time>
      </trkpt>
      <trkpt lat="40.6521030" lon="-4.6830750">
        <ele>1110.7</ele>
        <time>2019-08-13T19:15:24Z</time>
      </trkpt>
      <trkpt lat="40.6521500" lon="-4.6830690">
        <ele>1111.1</ele>
        <time>2019-08-13T19:15:26Z</time>
      </trkpt>
      <trkpt lat="40.6522000" lon="-4.6830620">
        <ele>1112.0</ele>
        <time>2019-08-13T19:15:28Z</time>
      </trkpt>
      <trkpt lat="40.6522430" lon="-4.6830400">
        <ele>1112.6</ele>
        <time>2019-08-13T19:15:30Z</time>
      </trkpt>
      <trkpt lat="40.6522710" lon="-4.6830130">
        <ele>1113.1</ele>
        <time>2019-08-13T19:15:32Z</time>
      </trkpt>
      <trkpt lat="40.6522940" lon="-4.6829840">
        <ele>1113.8</ele>
        <time>2019-08-13T19:15:34Z</time>
      </trkpt>
      <trkpt lat="40.6523200" lon="-4.6829510">
        <ele>1114.5</ele>
        <time>2019-08-13T19:15:36Z</time>
      </trkpt>
      <trkpt lat="40.6523450" lon="-4.6829190">
        <ele>1114.8</ele>
        <time>2019-08-13T19:15:38Z</time>
      </trkpt>
      <trkpt lat="40.6523690" lon="-4.6828870">
        <ele>1115.1</ele>
        <time>2019-08-13T19:15:40Z</time>
      </trkpt>
      <trkpt lat="40.6523930" lon="-4.6828570">
        <ele>1115.7</ele>
        <time>2019-08-13T19:15:42Z</time>
      </trkpt>
      <trkpt lat="40.6524190" lon="-4.6828270">
        <ele>1116.4</ele>
        <time>2019-08-13T19:15:44Z</time>
      </trkpt>
      <trkpt lat="40.6524460" lon="-4.6828010">
        <ele>1116.4</ele>
        <time>2019-08-13T19:15:46Z</time>
      </trkpt>
      <trkpt lat="40.6524710" lon="-4.6827710">
        <ele>1117.0</ele>
        <time>2019-08-13T19:15:48Z</time>
      </trkpt>
      <trkpt lat="40.6524940" lon="-4.6827390">
        <ele>1117.7</ele>
        <time>2019-08-13T19:15:50Z</time>
      </trkpt>
      <trkpt lat="40.6525190" lon="-4.6827080">
        <ele>1118.0</ele>
        <time>2019-08-13T19:15:52Z</time>
      </trkpt>
      <trkpt lat="40.6525430" lon="-4.6826750">
        <ele>1118.3</ele>
        <time>2019-08-13T19:15:54Z</time>
      </trkpt>
      <trkpt lat="40.6525690" lon="-4.6826450">
        <ele>1119.0</ele>
        <time>2019-08-13T19:15:56Z</time>
      </trkpt>
      <trkpt lat="40.6525980" lon="-4.6826210">
        <ele>1119.6</ele>
        <time>2019-08-13T19:15:58Z</time>
      </trkpt>
      <trkpt lat="40.6526240" lon="-4.6826030">
        <ele>1119.9</ele>
        <time>2019-08-13T19:16:00Z</time>
      </trkpt>
      <trkpt lat="40.6526590" lon="-4.6825900">
        <ele>1120.2</ele>
        <time>2019-08-13T19:16:03Z</time>
      </trkpt>
      <trkpt lat="40.6526910" lon="-4.6825900">
        <ele>1120.6</ele>
        <time>2019-08-13T19:16:05Z</time>
      </trkpt>
      <trkpt lat="40.6527250" lon="-4.6825880">
        <ele>1121.0</ele>
        <time>2019-08-13T19:16:07Z</time>
      </trkpt>
      <trkpt lat="40.6527590" lon="-4.6825940">
        <ele>1121.6</ele>
        <time>2019-08-13T19:16:09Z</time>
      </trkpt>
      <trkpt lat="40.6527890" lon="-4.6825930">
        <ele>1122.2</ele>
        <time>2019-08-13T19:16:11Z</time>
      </trkpt>
      <trkpt lat="40.6528130" lon="-4.6825670">
        <ele>1123.0</ele>
        <time>2019-08-13T19:16:14Z</time>
      </trkpt>
      <trkpt lat="40.6528220" lon="-4.6825310">
        <ele>1123.2</ele>
        <time>2019-08-13T19:16:19Z</time>
      </trkpt>
      <trkpt lat="40.6528200" lon="-4.6824830">
        <ele>1123.4</ele>
        <time>2019-08-13T19:16:21Z</time>
      </trkpt>
      <trkpt lat="40.6528330" lon="-4.6824510">
        <ele>1123.4</ele>
        <time>2019-08-13T19:16:22Z</time>
      </trkpt>
      <trkpt lat="40.6528560" lon="-4.6824240">
        <ele>1124.2</ele>
        <time>2019-08-13T19:16:23Z</time>
      </trkpt>
      <trkpt lat="40.6528840" lon="-4.6824020">
        <ele>1124.8</ele>
        <time>2019-08-13T19:16:24Z</time>
      </trkpt>
      <trkpt lat="40.6529130" lon="-4.6823840">
        <ele>1125.2</ele>
        <time>2019-08-13T19:16:25Z</time>
      </trkpt>
      <trkpt lat="40.6529400" lon="-4.6823710">
        <ele>1125.7</ele>
        <time>2019-08-13T19:16:26Z</time>
      </trkpt>
      <trkpt lat="40.6529830" lon="-4.6823500">
        <ele>1126.2</ele>
        <time>2019-08-13T19:16:28Z</time>
      </trkpt>
      <trkpt lat="40.6530270" lon="-4.6823350">
        <ele>1126.6</ele>
        <time>2019-08-13T19:16:30Z</time>
      </trkpt>
      <trkpt lat="40.6530720" lon="-4.6823270">
        <ele>1127.5</ele>
        <time>2019-08-13T19:16:32Z</time>
      </trkpt>
      <trkpt lat="40.6531180" lon="-4.6823280">
        <ele>1127.9</ele>
        <time>2019-08-13T19:16:34Z</time>
      </trkpt>
      <trkpt lat="40.6531670" lon="-4.6823300">
        <ele>1128.6</ele>
        <time>2019-08-13T19:16:36Z</time>
      </trkpt>
      <trkpt lat="40.6532140" lon="-4.6823430">
        <ele>1129.0</ele>
        <time>2019-08-13T19:16:38Z</time>
      </trkpt>
      <trkpt lat="40.6532490" lon="-4.6823480">
        <ele>1129.4</ele>
        <time>2019-08-13T19:16:40Z</time>
      </trkpt>
      <trkpt lat="40.6532820" lon="-4.6823600">
        <ele>1129.8</ele>
        <time>2019-08-13T19:16:42Z</time>
      </trkpt>
      <trkpt lat="40.6533120" lon="-4.6823720">
        <ele>1130.3</ele>
        <time>2019-08-13T19:16:44Z</time>
      </trkpt>
      <trkpt lat="40.6533430" lon="-4.6823890">
        <ele>1130.7</ele>
        <time>2019-08-13T19:16:46Z</time>
      </trkpt>
      <trkpt lat="40.6533710" lon="-4.6824070">
        <ele>1131.1</ele>
        <time>2019-08-13T19:16:48Z</time>
      </trkpt>
      <trkpt lat="40.6533900" lon="-4.6824280">
        <ele>1131.2</ele>
        <time>2019-08-13T19:16:53Z</time>
      </trkpt>
      <trkpt lat="40.6534220" lon="-4.6824900">
        <ele>1131.6</ele>
        <time>2019-08-13T19:17:30Z</time>
      </trkpt>
      <trkpt lat="40.6534630" lon="-4.6825040">
        <ele>1132.4</ele>
        <time>2019-08-13T19:17:32Z</time>
      </trkpt>
      <trkpt lat="40.6534870" lon="-4.6825230">
        <ele>1132.4</ele>
        <time>2019-08-13T19:17:35Z</time>
      </trkpt>
      <trkpt lat="40.6535110" lon="-4.6825480">
        <ele>1132.7</ele>
        <time>2019-08-13T19:17:40Z</time>
      </trkpt>
      <trkpt lat="40.6535380" lon="-4.6825430">
        <ele>1133.1</ele>
        <time>2019-08-13T19:17:45Z</time>
      </trkpt>
      <trkpt lat="40.6535620" lon="-4.6825400">
        <ele>1133.4</ele>
        <time>2019-08-13T19:17:51Z</time>
      </trkpt>
      <trkpt lat="40.6535920" lon="-4.6825600">
        <ele>1133.7</ele>
        <time>2019-08-13T19:18:10Z</time>
      </trkpt>
      <trkpt lat="40.6536150" lon="-4.6825790">
        <ele>1133.7</ele>
        <time>2019-08-13T19:18:12Z</time>
      </trkpt>
      <trkpt lat="40.6536460" lon="-4.6825880">
        <ele>1134.1</ele>
        <time>2019-08-13T19:18:14Z</time>
      </trkpt>
      <trkpt lat="40.6536830" lon="-4.6825970">
        <ele>1134.3</ele>
        <time>2019-08-13T19:18:17Z</time>
      </trkpt>
      <trkpt lat="40.6537150" lon="-4.6826250">
        <ele>1134.6</ele>
        <time>2019-08-13T19:18:20Z</time>
      </trkpt>
      <trkpt lat="40.6537390" lon="-4.6826420">
        <ele>1134.7</ele>
        <time>2019-08-13T19:18:22Z</time>
      </trkpt>
      <trkpt lat="40.6537730" lon="-4.6826650">
        <ele>1135.3</ele>
        <time>2019-08-13T19:18:25Z</time>
      </trkpt>
      <trkpt lat="40.6538080" lon="-4.6826820">
        <ele>1135.4</ele>
        <time>2019-08-13T19:18:28Z</time>
      </trkpt>
      <trkpt lat="40.6538410" lon="-4.6827030">
        <ele>1135.5</ele>
        <time>2019-08-13T19:18:31Z</time>
      </trkpt>
      <trkpt lat="40.6538730" lon="-4.6827160">
        <ele>1135.5</ele>
        <time>2019-08-13T19:18:34Z</time>
      </trkpt>
      <trkpt lat="40.6539070" lon="-4.6827160">
        <ele>1135.6</ele>
        <time>2019-08-13T19:18:37Z</time>
      </trkpt>
      <trkpt lat="40.6539340" lon="-4.6827260">
        <ele>1135.7</ele>
        <time>2019-08-13T19:18:40Z</time>
      </trkpt>
      <trkpt lat="40.6539600" lon="-4.6826880">
        <ele>1135.8</ele>
        <time>2019-08-13T19:18:43Z</time>
      </trkpt>
      <trkpt lat="40.6539760" lon="-4.6826450">
        <ele>1135.8</ele>
        <time>2019-08-13T19:18:45Z</time>
      </trkpt>
      <trkpt lat="40.6539910" lon="-4.6825980">
        <ele>1135.7</ele>
        <time>2019-08-13T19:18:47Z</time>
      </trkpt>
      <trkpt lat="40.6540060" lon="-4.6825420">
        <ele>1135.7</ele>
        <time>2019-08-13T19:18:49Z</time>
      </trkpt>
      <trkpt lat="40.6540270" lon="-4.6824910">
        <ele>1135.5</ele>
        <time>2019-08-13T19:18:51Z</time>
      </trkpt>
      <trkpt lat="40.6540500" lon="-4.6824430">
        <ele>1135.3</ele>
        <time>2019-08-13T19:18:53Z</time>
      </trkpt>
      <trkpt lat="40.6540730" lon="-4.6823950">
        <ele>1135.0</ele>
        <time>2019-08-13T19:18:55Z</time>
      </trkpt>
      <trkpt lat="40.6540980" lon="-4.6823510">
        <ele>1134.7</ele>
        <time>2019-08-13T19:18:57Z</time>
      </trkpt>
      <trkpt lat="40.6541240" lon="-4.6823080">
        <ele>1134.3</ele>
        <time>2019-08-13T19:18:59Z</time>
      </trkpt>
      <trkpt lat="40.6541620" lon="-4.6822760">
        <ele>1134.0</ele>
        <time>2019-08-13T19:19:01Z</time>
      </trkpt>
      <trkpt lat="40.6542100" lon="-4.6822750">
        <ele>1133.9</ele>
        <time>2019-08-13T19:19:03Z</time>
      </trkpt>
      <trkpt lat="40.6542570" lon="-4.6823010">
        <ele>1134.1</ele>
        <time>2019-08-13T19:19:05Z</time>
      </trkpt>
      <trkpt lat="40.6543030" lon="-4.6823370">
        <ele>1134.2</ele>
        <time>2019-08-13T19:19:07Z</time>
      </trkpt>
      <trkpt lat="40.6543270" lon="-4.6823570">
        <ele>1134.2</ele>
        <time>2019-08-13T19:19:08Z</time>
      </trkpt>
      <trkpt lat="40.6543520" lon="-4.6823790">
        <ele>1134.3</ele>
        <time>2019-08-13T19:19:09Z</time>
      </trkpt>
      <trkpt lat="40.6543770" lon="-4.6824010">
        <ele>1134.3</ele>
        <time>2019-08-13T19:19:10Z</time>
      </trkpt>
      <trkpt lat="40.6544010" lon="-4.6824230">
        <ele>1134.3</ele>
        <time>2019-08-13T19:19:11Z</time>
      </trkpt>
      <trkpt lat="40.6544260" lon="-4.6824450">
        <ele>1134.3</ele>
        <time>2019-08-13T19:19:12Z</time>
      </trkpt>
      <trkpt lat="40.6544520" lon="-4.6824650">
        <ele>1134.3</ele>
        <time>2019-08-13T19:19:13Z</time>
      </trkpt>
      <trkpt lat="40.6544780" lon="-4.6824850">
        <ele>1134.3</ele>
        <time>2019-08-13T19:19:14Z</time>
      </trkpt>
      <trkpt lat="40.6545060" lon="-4.6825050">
        <ele>1134.3</ele>
        <time>2019-08-13T19:19:15Z</time>
      </trkpt>
      <trkpt lat="40.6545370" lon="-4.6825240">
        <ele>1134.3</ele>
        <time>2019-08-13T19:19:16Z</time>
      </trkpt>
      <trkpt lat="40.6545700" lon="-4.6825450">
        <ele>1134.3</ele>
        <time>2019-08-13T19:19:17Z</time>
      </trkpt>
      <trkpt lat="40.6546050" lon="-4.6825680">
        <ele>1134.4</ele>
        <time>2019-08-13T19:19:18Z</time>
      </trkpt>
      <trkpt lat="40.6546430" lon="-4.6825920">
        <ele>1134.4</ele>
        <time>2019-08-13T19:19:19Z</time>
      </trkpt>
      <trkpt lat="40.6546820" lon="-4.6826170">
        <ele>1134.4</ele>
        <time>2019-08-13T19:19:20Z</time>
      </trkpt>
      <trkpt lat="40.6547220" lon="-4.6826430">
        <ele>1134.4</ele>
        <time>2019-08-13T19:19:21Z</time>
      </trkpt>
      <trkpt lat="40.6547630" lon="-4.6826700">
        <ele>1134.3</ele>
        <time>2019-08-13T19:19:22Z</time>
      </trkpt>
      <trkpt lat="40.6548060" lon="-4.6826990">
        <ele>1134.3</ele>
        <time>2019-08-13T19:19:23Z</time>
      </trkpt>
      <trkpt lat="40.6548500" lon="-4.6827300">
        <ele>1134.2</ele>
        <time>2019-08-13T19:19:24Z</time>
      </trkpt>
      <trkpt lat="40.6548960" lon="-4.6827630">
        <ele>1134.0</ele>
        <time>2019-08-13T19:19:25Z</time>
      </trkpt>
      <trkpt lat="40.6549420" lon="-4.6827950">
        <ele>1133.8</ele>
        <time>2019-08-13T19:19:26Z</time>
      </trkpt>
      <trkpt lat="40.6549870" lon="-4.6828280">
        <ele>1133.8</ele>
        <time>2019-08-13T19:19:27Z</time>
      </trkpt>
      <trkpt lat="40.6550330" lon="-4.6828570">
        <ele>1133.8</ele>
        <time>2019-08-13T19:19:28Z</time>
      </trkpt>
      <trkpt lat="40.6550770" lon="-4.6828850">
        <ele>1133.8</ele>
        <time>2019-08-13T19:19:29Z</time>
      </trkpt>
      <trkpt lat="40.6551240" lon="-4.6829110">
        <ele>1133.7</ele>
        <time>2019-08-13T19:19:30Z</time>
      </trkpt>
      <trkpt lat="40.6551720" lon="-4.6829370">
        <ele>1133.7</ele>
        <time>2019-08-13T19:19:31Z</time>
      </trkpt>
      <trkpt lat="40.6552210" lon="-4.6829650">
        <ele>1133.7</ele>
        <time>2019-08-13T19:19:32Z</time>
      </trkpt>
      <trkpt lat="40.6552710" lon="-4.6829960">
        <ele>1133.6</ele>
        <time>2019-08-13T19:19:33Z</time>
      </trkpt>
      <trkpt lat="40.6553210" lon="-4.6830260">
        <ele>1133.6</ele>
        <time>2019-08-13T19:19:34Z</time>
      </trkpt>
      <trkpt lat="40.6553730" lon="-4.6830550">
        <ele>1133.6</ele>
        <time>2019-08-13T19:19:35Z</time>
      </trkpt>
      <trkpt lat="40.6554260" lon="-4.6830810">
        <ele>1133.4</ele>
        <time>2019-08-13T19:19:36Z</time>
      </trkpt>
      <trkpt lat="40.6554810" lon="-4.6831050">
        <ele>1133.1</ele>
        <time>2019-08-13T19:19:37Z</time>
      </trkpt>
      <trkpt lat="40.6555360" lon="-4.6831250">
        <ele>1133.0</ele>
        <time>2019-08-13T19:19:38Z</time>
      </trkpt>
      <trkpt lat="40.6555910" lon="-4.6831400">
        <ele>1133.0</ele>
        <time>2019-08-13T19:19:39Z</time>
      </trkpt>
      <trkpt lat="40.6556450" lon="-4.6831540">
        <ele>1132.9</ele>
        <time>2019-08-13T19:19:40Z</time>
      </trkpt>
      <trkpt lat="40.6556980" lon="-4.6831680">
        <ele>1132.8</ele>
        <time>2019-08-13T19:19:41Z</time>
      </trkpt>
      <trkpt lat="40.6557490" lon="-4.6831830">
        <ele>1132.5</ele>
        <time>2019-08-13T19:19:42Z</time>
      </trkpt>
      <trkpt lat="40.6558000" lon="-4.6831970">
        <ele>1132.3</ele>
        <time>2019-08-13T19:19:43Z</time>
      </trkpt>
      <trkpt lat="40.6558490" lon="-4.6832120">
        <ele>1132.2</ele>
        <time>2019-08-13T19:19:44Z</time>
      </trkpt>
      <trkpt lat="40.6558970" lon="-4.6832260">
        <ele>1132.2</ele>
        <time>2019-08-13T19:19:45Z</time>
      </trkpt>
      <trkpt lat="40.6559460" lon="-4.6832380">
        <ele>1132.1</ele>
        <time>2019-08-13T19:19:46Z</time>
      </trkpt>
      <trkpt lat="40.6559960" lon="-4.6832500">
        <ele>1132.1</ele>
        <time>2019-08-13T19:19:47Z</time>
      </trkpt>
      <trkpt lat="40.6560470" lon="-4.6832630">
        <ele>1132.0</ele>
        <time>2019-08-13T19:19:48Z</time>
      </trkpt>
      <trkpt lat="40.6560970" lon="-4.6832750">
        <ele>1132.0</ele>
        <time>2019-08-13T19:19:49Z</time>
      </trkpt>
      <trkpt lat="40.6561460" lon="-4.6832860">
        <ele>1131.9</ele>
        <time>2019-08-13T19:19:50Z</time>
      </trkpt>
      <trkpt lat="40.6561960" lon="-4.6832990">
        <ele>1131.9</ele>
        <time>2019-08-13T19:19:51Z</time>
      </trkpt>
      <trkpt lat="40.6562470" lon="-4.6833120">
        <ele>1131.8</ele>
        <time>2019-08-13T19:19:52Z</time>
      </trkpt>
      <trkpt lat="40.6562970" lon="-4.6833260">
        <ele>1131.7</ele>
        <time>2019-08-13T19:19:53Z</time>
      </trkpt>
      <trkpt lat="40.6563480" lon="-4.6833390">
        <ele>1131.7</ele>
        <time>2019-08-13T19:19:54Z</time>
      </trkpt>
      <trkpt lat="40.6563970" lon="-4.6833520">
        <ele>1131.6</ele>
        <time>2019-08-13T19:19:55Z</time>
      </trkpt>
      <trkpt lat="40.6564460" lon="-4.6833620">
        <ele>1131.5</ele>
        <time>2019-08-13T19:19:56Z</time>
      </trkpt>
      <trkpt lat="40.6564940" lon="-4.6833740">
        <ele>1131.4</ele>
        <time>2019-08-13T19:19:57Z</time>
      </trkpt>
      <trkpt lat="40.6565390" lon="-4.6833840">
        <ele>1131.3</ele>
        <time>2019-08-13T19:19:58Z</time>
      </trkpt>
      <trkpt lat="40.6565830" lon="-4.6833940">
        <ele>1131.3</ele>
        <time>2019-08-13T19:19:59Z</time>
      </trkpt>
      <trkpt lat="40.6566260" lon="-4.6834050">
        <ele>1131.2</ele>
        <time>2019-08-13T19:20:00Z</time>
      </trkpt>
      <trkpt lat="40.6566630" lon="-4.6834160">
        <ele>1131.2</ele>
        <time>2019-08-13T19:20:01Z</time>
      </trkpt>
      <trkpt lat="40.6566950" lon="-4.6834330">
        <ele>1131.2</ele>
        <time>2019-08-13T19:20:02Z</time>
      </trkpt>
      <trkpt lat="40.6567190" lon="-4.6834640">
        <ele>1131.2</ele>
        <time>2019-08-13T19:20:03Z</time>
      </trkpt>
      <trkpt lat="40.6567320" lon="-4.6835070">
        <ele>1131.3</ele>
        <time>2019-08-13T19:20:04Z</time>
      </trkpt>
      <trkpt lat="40.6567320" lon="-4.6835590">
        <ele>1131.4</ele>
        <time>2019-08-13T19:20:05Z</time>
      </trkpt>
      <trkpt lat="40.6567220" lon="-4.6836120">
        <ele>1131.7</ele>
        <time>2019-08-13T19:20:06Z</time>
      </trkpt>
      <trkpt lat="40.6567060" lon="-4.6836650">
        <ele>1131.9</ele>
        <time>2019-08-13T19:20:07Z</time>
      </trkpt>
      <trkpt lat="40.6566880" lon="-4.6837180">
        <ele>1132.2</ele>
        <time>2019-08-13T19:20:08Z</time>
      </trkpt>
      <trkpt lat="40.6566710" lon="-4.6837720">
        <ele>1132.5</ele>
        <time>2019-08-13T19:20:09Z</time>
      </trkpt>
      <trkpt lat="40.6566560" lon="-4.6838320">
        <ele>1132.8</ele>
        <time>2019-08-13T19:20:10Z</time>
      </trkpt>
      <trkpt lat="40.6566440" lon="-4.6838940">
        <ele>1133.1</ele>
        <time>2019-08-13T19:20:11Z</time>
      </trkpt>
      <trkpt lat="40.6566350" lon="-4.6839540">
        <ele>1133.4</ele>
        <time>2019-08-13T19:20:12Z</time>
      </trkpt>
      <trkpt lat="40.6566270" lon="-4.6840120">
        <ele>1133.6</ele>
        <time>2019-08-13T19:20:13Z</time>
      </trkpt>
      <trkpt lat="40.6566180" lon="-4.6840670">
        <ele>1133.9</ele>
        <time>2019-08-13T19:20:14Z</time>
      </trkpt>
      <trkpt lat="40.6566140" lon="-4.6841210">
        <ele>1134.2</ele>
        <time>2019-08-13T19:20:15Z</time>
      </trkpt>
      <trkpt lat="40.6566210" lon="-4.6841720">
        <ele>1134.4</ele>
        <time>2019-08-13T19:20:16Z</time>
      </trkpt>
      <trkpt lat="40.6566430" lon="-4.6842140">
        <ele>1134.4</ele>
        <time>2019-08-13T19:20:17Z</time>
      </trkpt>
      <trkpt lat="40.6566750" lon="-4.6842390">
        <ele>1134.3</ele>
        <time>2019-08-13T19:20:18Z</time>
      </trkpt>
      <trkpt lat="40.6567130" lon="-4.6842500">
        <ele>1134.3</ele>
        <time>2019-08-13T19:20:19Z</time>
      </trkpt>
      <trkpt lat="40.6567510" lon="-4.6842550">
        <ele>1134.2</ele>
        <time>2019-08-13T19:20:20Z</time>
      </trkpt>
      <trkpt lat="40.6567910" lon="-4.6842600">
        <ele>1134.1</ele>
        <time>2019-08-13T19:20:21Z</time>
      </trkpt>
      <trkpt lat="40.6568300" lon="-4.6842650">
        <ele>1134.0</ele>
        <time>2019-08-13T19:20:22Z</time>
      </trkpt>
      <trkpt lat="40.6568690" lon="-4.6842670">
        <ele>1134.0</ele>
        <time>2019-08-13T19:20:23Z</time>
      </trkpt>
      <trkpt lat="40.6569080" lon="-4.6842710">
        <ele>1133.9</ele>
        <time>2019-08-13T19:20:24Z</time>
      </trkpt>
      <trkpt lat="40.6569440" lon="-4.6842750">
        <ele>1133.8</ele>
        <time>2019-08-13T19:20:25Z</time>
      </trkpt>
      <trkpt lat="40.6569790" lon="-4.6842810">
        <ele>1133.8</ele>
        <time>2019-08-13T19:20:26Z</time>
      </trkpt>
      <trkpt lat="40.6570150" lon="-4.6842890">
        <ele>1133.7</ele>
        <time>2019-08-13T19:20:27Z</time>
      </trkpt>
      <trkpt lat="40.6570500" lon="-4.6842970">
        <ele>1133.7</ele>
        <time>2019-08-13T19:20:28Z</time>
      </trkpt>
      <trkpt lat="40.6570810" lon="-4.6843070">
        <ele>1133.9</ele>
        <time>2019-08-13T19:20:29Z</time>
      </trkpt>
      <trkpt lat="40.6571080" lon="-4.6843230">
        <ele>1133.9</ele>
        <time>2019-08-13T19:20:30Z</time>
      </trkpt>
      <trkpt lat="40.6571310" lon="-4.6843420">
        <ele>1133.8</ele>
        <time>2019-08-13T19:20:31Z</time>
      </trkpt>
      <trkpt lat="40.6571560" lon="-4.6843620">
        <ele>1133.8</ele>
        <time>2019-08-13T19:20:32Z</time>
      </trkpt>
      <trkpt lat="40.6571810" lon="-4.6843790">
        <ele>1133.8</ele>
        <time>2019-08-13T19:20:33Z</time>
      </trkpt>
      <trkpt lat="40.6572320" lon="-4.6843890">
        <ele>1133.5</ele>
        <time>2019-08-13T19:20:35Z</time>
      </trkpt>
      <trkpt lat="40.6572790" lon="-4.6843820">
        <ele>1133.3</ele>
        <time>2019-08-13T19:20:37Z</time>
      </trkpt>
      <trkpt lat="40.6573120" lon="-4.6843700">
        <ele>1133.2</ele>
        <time>2019-08-13T19:20:39Z</time>
      </trkpt>
      <trkpt lat="40.6573380" lon="-4.6843480">
        <ele>1133.0</ele>
        <time>2019-08-13T19:20:41Z</time>
      </trkpt>
      <trkpt lat="40.6573670" lon="-4.6843030">
        <ele>1132.7</ele>
        <time>2019-08-13T19:20:43Z</time>
      </trkpt>
      <trkpt lat="40.6573900" lon="-4.6842820">
        <ele>1132.6</ele>
        <time>2019-08-13T19:20:44Z</time>
      </trkpt>
      <trkpt lat="40.6574160" lon="-4.6842630">
        <ele>1132.4</ele>
        <time>2019-08-13T19:20:45Z</time>
      </trkpt>
      <trkpt lat="40.6574460" lon="-4.6842440">
        <ele>1132.2</ele>
        <time>2019-08-13T19:20:46Z</time>
      </trkpt>
      <trkpt lat="40.6574800" lon="-4.6842220">
        <ele>1132.0</ele>
        <time>2019-08-13T19:20:47Z</time>
      </trkpt>
      <trkpt lat="40.6575160" lon="-4.6841990">
        <ele>1131.8</ele>
        <time>2019-08-13T19:20:48Z</time>
      </trkpt>
      <trkpt lat="40.6575540" lon="-4.6841710">
        <ele>1131.6</ele>
        <time>2019-08-13T19:20:49Z</time>
      </trkpt>
      <trkpt lat="40.6575960" lon="-4.6841430">
        <ele>1131.4</ele>
        <time>2019-08-13T19:20:50Z</time>
      </trkpt>
      <trkpt lat="40.6576380" lon="-4.6841150">
        <ele>1131.1</ele>
        <time>2019-08-13T19:20:51Z</time>
      </trkpt>
      <trkpt lat="40.6576770" lon="-4.6840880">
        <ele>1130.9</ele>
        <time>2019-08-13T19:20:52Z</time>
      </trkpt>
      <trkpt lat="40.6577140" lon="-4.6840620">
        <ele>1130.7</ele>
        <time>2019-08-13T19:20:53Z</time>
      </trkpt>
      <trkpt lat="40.6577510" lon="-4.6840380">
        <ele>1130.5</ele>
        <time>2019-08-13T19:20:54Z</time>
      </trkpt>
      <trkpt lat="40.6577860" lon="-4.6840140">
        <ele>1130.4</ele>
        <time>2019-08-13T19:20:55Z</time>
      </trkpt>
      <trkpt lat="40.6578220" lon="-4.6839890">
        <ele>1130.2</ele>
        <time>2019-08-13T19:20:56Z</time>
      </trkpt>
      <trkpt lat="40.6578590" lon="-4.6839660">
        <ele>1130.2</ele>
        <time>2019-08-13T19:20:57Z</time>
      </trkpt>
      <trkpt lat="40.6578960" lon="-4.6839430">
        <ele>1130.1</ele>
        <time>2019-08-13T19:20:58Z</time>
      </trkpt>
      <trkpt lat="40.6579320" lon="-4.6839200">
        <ele>1130.0</ele>
        <time>2019-08-13T19:20:59Z</time>
      </trkpt>
      <trkpt lat="40.6579700" lon="-4.6839000">
        <ele>1129.7</ele>
        <time>2019-08-13T19:21:00Z</time>
      </trkpt>
      <trkpt lat="40.6580100" lon="-4.6838840">
        <ele>1129.6</ele>
        <time>2019-08-13T19:21:01Z</time>
      </trkpt>
      <trkpt lat="40.6580490" lon="-4.6838680">
        <ele>1129.4</ele>
        <time>2019-08-13T19:21:02Z</time>
      </trkpt>
      <trkpt lat="40.6580850" lon="-4.6838500">
        <ele>1129.1</ele>
        <time>2019-08-13T19:21:03Z</time>
      </trkpt>
      <trkpt lat="40.6581210" lon="-4.6838380">
        <ele>1128.9</ele>
        <time>2019-08-13T19:21:04Z</time>
      </trkpt>
      <trkpt lat="40.6581550" lon="-4.6838310">
        <ele>1128.6</ele>
        <time>2019-08-13T19:21:05Z</time>
      </trkpt>
      <trkpt lat="40.6581870" lon="-4.6838270">
        <ele>1128.4</ele>
        <time>2019-08-13T19:21:06Z</time>
      </trkpt>
      <trkpt lat="40.6582220" lon="-4.6838150">
        <ele>1128.2</ele>
        <time>2019-08-13T19:21:07Z</time>
      </trkpt>
      <trkpt lat="40.6582580" lon="-4.6837960">
        <ele>1127.9</ele>
        <time>2019-08-13T19:21:08Z</time>
      </trkpt>
      <trkpt lat="40.6582910" lon="-4.6837720">
        <ele>1127.7</ele>
        <time>2019-08-13T19:21:09Z</time>
      </trkpt>
      <trkpt lat="40.6583200" lon="-4.6837370">
        <ele>1127.7</ele>
        <time>2019-08-13T19:21:10Z</time>
      </trkpt>
      <trkpt lat="40.6583440" lon="-4.6836970">
        <ele>1127.7</ele>
        <time>2019-08-13T19:21:11Z</time>
      </trkpt>
      <trkpt lat="40.6583610" lon="-4.6836530">
        <ele>1127.7</ele>
        <time>2019-08-13T19:21:12Z</time>
      </trkpt>
      <trkpt lat="40.6583710" lon="-4.6836020">
        <ele>1127.7</ele>
        <time>2019-08-13T19:21:13Z</time>
      </trkpt>
      <trkpt lat="40.6583810" lon="-4.6835550">
        <ele>1127.8</ele>
        <time>2019-08-13T19:21:14Z</time>
      </trkpt>
      <trkpt lat="40.6583940" lon="-4.6835110">
        <ele>1127.8</ele>
        <time>2019-08-13T19:21:15Z</time>
      </trkpt>
      <trkpt lat="40.6584100" lon="-4.6834670">
        <ele>1127.9</ele>
        <time>2019-08-13T19:21:16Z</time>
      </trkpt>
      <trkpt lat="40.6584260" lon="-4.6834260">
        <ele>1128.0</ele>
        <time>2019-08-13T19:21:17Z</time>
      </trkpt>
      <trkpt lat="40.6584400" lon="-4.6833760">
        <ele>1128.1</ele>
        <time>2019-08-13T19:21:18Z</time>
      </trkpt>
      <trkpt lat="40.6584650" lon="-4.6832960">
        <ele>1128.3</ele>
        <time>2019-08-13T19:21:20Z</time>
      </trkpt>
      <trkpt lat="40.6584750" lon="-4.6832540">
        <ele>1128.3</ele>
        <time>2019-08-13T19:21:21Z</time>
      </trkpt>
      <trkpt lat="40.6584730" lon="-4.6832030">
        <ele>1128.4</ele>
        <time>2019-08-13T19:21:22Z</time>
      </trkpt>
      <trkpt lat="40.6584740" lon="-4.6831520">
        <ele>1128.5</ele>
        <time>2019-08-13T19:21:23Z</time>
      </trkpt>
      <trkpt lat="40.6584850" lon="-4.6831190">
        <ele>1128.6</ele>
        <time>2019-08-13T19:21:24Z</time>
      </trkpt>
      <trkpt lat="40.6585110" lon="-4.6830960">
        <ele>1128.7</ele>
        <time>2019-08-13T19:21:28Z</time>
      </trkpt>
      <trkpt lat="40.6584900" lon="-4.6830310">
        <ele>1128.7</ele>
        <time>2019-08-13T19:21:30Z</time>
      </trkpt>
      <trkpt lat="40.6585130" lon="-4.6830050">
        <ele>1128.7</ele>
        <time>2019-08-13T19:21:31Z</time>
      </trkpt>
      <trkpt lat="40.6585340" lon="-4.6829780">
        <ele>1128.7</ele>
        <time>2019-08-13T19:21:32Z</time>
      </trkpt>
      <trkpt lat="40.6585380" lon="-4.6829310">
        <ele>1128.7</ele>
        <time>2019-08-13T19:21:34Z</time>
      </trkpt>
      <trkpt lat="40.6585650" lon="-4.6829110">
        <ele>1128.7</ele>
        <time>2019-08-13T19:21:35Z</time>
      </trkpt>
      <trkpt lat="40.6585600" lon="-4.6828540">
        <ele>1128.7</ele>
        <time>2019-08-13T19:21:37Z</time>
      </trkpt>
      <trkpt lat="40.6585910" lon="-4.6827870">
        <ele>1128.7</ele>
        <time>2019-08-13T19:21:39Z</time>
      </trkpt>
      <trkpt lat="40.6586300" lon="-4.6827520">
        <ele>1128.8</ele>
        <time>2019-08-13T19:21:40Z</time>
      </trkpt>
      <trkpt lat="40.6586520" lon="-4.6827130">
        <ele>1128.8</ele>
        <time>2019-08-13T19:21:41Z</time>
      </trkpt>
      <trkpt lat="40.6586610" lon="-4.6826680">
        <ele>1128.8</ele>
        <time>2019-08-13T19:21:42Z</time>
      </trkpt>
      <trkpt lat="40.6586720" lon="-4.6826200">
        <ele>1128.8</ele>
        <time>2019-08-13T19:21:43Z</time>
      </trkpt>
      <trkpt lat="40.6586790" lon="-4.6825710">
        <ele>1128.8</ele>
        <time>2019-08-13T19:21:44Z</time>
      </trkpt>
      <trkpt lat="40.6586870" lon="-4.6825230">
        <ele>1128.8</ele>
        <time>2019-08-13T19:21:45Z</time>
      </trkpt>
      <trkpt lat="40.6586930" lon="-4.6824730">
        <ele>1128.8</ele>
        <time>2019-08-13T19:21:46Z</time>
      </trkpt>
      <trkpt lat="40.6587010" lon="-4.6824250">
        <ele>1128.8</ele>
        <time>2019-08-13T19:21:47Z</time>
      </trkpt>
      <trkpt lat="40.6587080" lon="-4.6823780">
        <ele>1128.8</ele>
        <time>2019-08-13T19:21:48Z</time>
      </trkpt>
      <trkpt lat="40.6587170" lon="-4.6823310">
        <ele>1128.8</ele>
        <time>2019-08-13T19:21:49Z</time>
      </trkpt>
      <trkpt lat="40.6587250" lon="-4.6822840">
        <ele>1128.9</ele>
        <time>2019-08-13T19:21:50Z</time>
      </trkpt>
      <trkpt lat="40.6587320" lon="-4.6822400">
        <ele>1128.9</ele>
        <time>2019-08-13T19:21:51Z</time>
      </trkpt>
      <trkpt lat="40.6587390" lon="-4.6821960">
        <ele>1128.9</ele>
        <time>2019-08-13T19:21:52Z</time>
      </trkpt>
      <trkpt lat="40.6587460" lon="-4.6821520">
        <ele>1128.9</ele>
        <time>2019-08-13T19:21:53Z</time>
      </trkpt>
      <trkpt lat="40.6587540" lon="-4.6821070">
        <ele>1128.9</ele>
        <time>2019-08-13T19:21:54Z</time>
      </trkpt>
      <trkpt lat="40.6587620" lon="-4.6820630">
        <ele>1128.9</ele>
        <time>2019-08-13T19:21:55Z</time>
      </trkpt>
      <trkpt lat="40.6587710" lon="-4.6820190">
        <ele>1128.9</ele>
        <time>2019-08-13T19:21:56Z</time>
      </trkpt>
      <trkpt lat="40.6587800" lon="-4.6819740">
        <ele>1129.0</ele>
        <time>2019-08-13T19:21:57Z</time>
      </trkpt>
      <trkpt lat="40.6587900" lon="-4.6819290">
        <ele>1129.0</ele>
        <time>2019-08-13T19:21:58Z</time>
      </trkpt>
      <trkpt lat="40.6588010" lon="-4.6818850">
        <ele>1129.0</ele>
        <time>2019-08-13T19:21:59Z</time>
      </trkpt>
      <trkpt lat="40.6588110" lon="-4.6818410">
        <ele>1129.0</ele>
        <time>2019-08-13T19:22:00Z</time>
      </trkpt>
      <trkpt lat="40.6588210" lon="-4.6817970">
        <ele>1129.0</ele>
        <time>2019-08-13T19:22:01Z</time>
      </trkpt>
      <trkpt lat="40.6588290" lon="-4.6817530">
        <ele>1129.1</ele>
        <time>2019-08-13T19:22:02Z</time>
      </trkpt>
      <trkpt lat="40.6588330" lon="-4.6817080">
        <ele>1129.1</ele>
        <time>2019-08-13T19:22:03Z</time>
      </trkpt>
      <trkpt lat="40.6588340" lon="-4.6816630">
        <ele>1129.1</ele>
        <time>2019-08-13T19:22:04Z</time>
      </trkpt>
      <trkpt lat="40.6588330" lon="-4.6816160">
        <ele>1129.3</ele>
        <time>2019-08-13T19:22:05Z</time>
      </trkpt>
      <trkpt lat="40.6588320" lon="-4.6815690">
        <ele>1129.3</ele>
        <time>2019-08-13T19:22:06Z</time>
      </trkpt>
      <trkpt lat="40.6588330" lon="-4.6815230">
        <ele>1129.3</ele>
        <time>2019-08-13T19:22:07Z</time>
      </trkpt>
      <trkpt lat="40.6588360" lon="-4.6814770">
        <ele>1129.6</ele>
        <time>2019-08-13T19:22:08Z</time>
      </trkpt>
      <trkpt lat="40.6588420" lon="-4.6814320">
        <ele>1129.6</ele>
        <time>2019-08-13T19:22:09Z</time>
      </trkpt>
      <trkpt lat="40.6588500" lon="-4.6813860">
        <ele>1129.6</ele>
        <time>2019-08-13T19:22:10Z</time>
      </trkpt>
      <trkpt lat="40.6588610" lon="-4.6813390">
        <ele>1129.8</ele>
        <time>2019-08-13T19:22:11Z</time>
      </trkpt>
      <trkpt lat="40.6588730" lon="-4.6812920">
        <ele>1129.9</ele>
        <time>2019-08-13T19:22:12Z</time>
      </trkpt>
      <trkpt lat="40.6588870" lon="-4.6812470">
        <ele>1130.0</ele>
        <time>2019-08-13T19:22:13Z</time>
      </trkpt>
      <trkpt lat="40.6589020" lon="-4.6812030">
        <ele>1130.1</ele>
        <time>2019-08-13T19:22:14Z</time>
      </trkpt>
      <trkpt lat="40.6589190" lon="-4.6811580">
        <ele>1130.1</ele>
        <time>2019-08-13T19:22:15Z</time>
      </trkpt>
      <trkpt lat="40.6589370" lon="-4.6811130">
        <ele>1130.2</ele>
        <time>2019-08-13T19:22:16Z</time>
      </trkpt>
      <trkpt lat="40.6589550" lon="-4.6810670">
        <ele>1130.3</ele>
        <time>2019-08-13T19:22:17Z</time>
      </trkpt>
      <trkpt lat="40.6589740" lon="-4.6810220">
        <ele>1130.4</ele>
        <time>2019-08-13T19:22:18Z</time>
      </trkpt>
      <trkpt lat="40.6589920" lon="-4.6809750">
        <ele>1130.5</ele>
        <time>2019-08-13T19:22:19Z</time>
      </trkpt>
      <trkpt lat="40.6590090" lon="-4.6809260">
        <ele>1130.4</ele>
        <time>2019-08-13T19:22:20Z</time>
      </trkpt>
      <trkpt lat="40.6590280" lon="-4.6808750">
        <ele>1130.3</ele>
        <time>2019-08-13T19:22:21Z</time>
      </trkpt>
      <trkpt lat="40.6590450" lon="-4.6808240">
        <ele>1130.2</ele>
        <time>2019-08-13T19:22:22Z</time>
      </trkpt>
      <trkpt lat="40.6590640" lon="-4.6807710">
        <ele>1130.2</ele>
        <time>2019-08-13T19:22:23Z</time>
      </trkpt>
      <trkpt lat="40.6590830" lon="-4.6807190">
        <ele>1130.1</ele>
        <time>2019-08-13T19:22:24Z</time>
      </trkpt>
      <trkpt lat="40.6591020" lon="-4.6806660">
        <ele>1130.1</ele>
        <time>2019-08-13T19:22:25Z</time>
      </trkpt>
      <trkpt lat="40.6591210" lon="-4.6806130">
        <ele>1130.0</ele>
        <time>2019-08-13T19:22:26Z</time>
      </trkpt>
      <trkpt lat="40.6591410" lon="-4.6805620">
        <ele>1130.0</ele>
        <time>2019-08-13T19:22:27Z</time>
      </trkpt>
      <trkpt lat="40.6591610" lon="-4.6805130">
        <ele>1129.9</ele>
        <time>2019-08-13T19:22:28Z</time>
      </trkpt>
      <trkpt lat="40.6591810" lon="-4.6804660">
        <ele>1129.9</ele>
        <time>2019-08-13T19:22:29Z</time>
      </trkpt>
      <trkpt lat="40.6592030" lon="-4.6804220">
        <ele>1129.9</ele>
        <time>2019-08-13T19:22:30Z</time>
      </trkpt>
      <trkpt lat="40.6592240" lon="-4.6803790">
        <ele>1129.9</ele>
        <time>2019-08-13T19:22:31Z</time>
      </trkpt>
      <trkpt lat="40.6592450" lon="-4.6803370">
        <ele>1129.8</ele>
        <time>2019-08-13T19:22:32Z</time>
      </trkpt>
      <trkpt lat="40.6592650" lon="-4.6802920">
        <ele>1129.7</ele>
        <time>2019-08-13T19:22:33Z</time>
      </trkpt>
      <trkpt lat="40.6592840" lon="-4.6802450">
        <ele>1129.6</ele>
        <time>2019-08-13T19:22:34Z</time>
      </trkpt>
      <trkpt lat="40.6593040" lon="-4.6801950">
        <ele>1129.6</ele>
        <time>2019-08-13T19:22:35Z</time>
      </trkpt>
      <trkpt lat="40.6593230" lon="-4.6801440">
        <ele>1129.5</ele>
        <time>2019-08-13T19:22:36Z</time>
      </trkpt>
      <trkpt lat="40.6593440" lon="-4.6800920">
        <ele>1129.4</ele>
        <time>2019-08-13T19:22:37Z</time>
      </trkpt>
      <trkpt lat="40.6593640" lon="-4.6800390">
        <ele>1129.3</ele>
        <time>2019-08-13T19:22:38Z</time>
      </trkpt>
      <trkpt lat="40.6593830" lon="-4.6799850">
        <ele>1129.2</ele>
        <time>2019-08-13T19:22:39Z</time>
      </trkpt>
      <trkpt lat="40.6594010" lon="-4.6799280">
        <ele>1129.2</ele>
        <time>2019-08-13T19:22:40Z</time>
      </trkpt>
      <trkpt lat="40.6594160" lon="-4.6798710">
        <ele>1129.1</ele>
        <time>2019-08-13T19:22:41Z</time>
      </trkpt>
      <trkpt lat="40.6594310" lon="-4.6798140">
        <ele>1129.1</ele>
        <time>2019-08-13T19:22:42Z</time>
      </trkpt>
      <trkpt lat="40.6594450" lon="-4.6797570">
        <ele>1129.1</ele>
        <time>2019-08-13T19:22:43Z</time>
      </trkpt>
      <trkpt lat="40.6594560" lon="-4.6797010">
        <ele>1129.1</ele>
        <time>2019-08-13T19:22:44Z</time>
      </trkpt>
      <trkpt lat="40.6594610" lon="-4.6796460">
        <ele>1129.1</ele>
        <time>2019-08-13T19:22:45Z</time>
      </trkpt>
      <trkpt lat="40.6594620" lon="-4.6795920">
        <ele>1129.1</ele>
        <time>2019-08-13T19:22:46Z</time>
      </trkpt>
      <trkpt lat="40.6594640" lon="-4.6795390">
        <ele>1129.2</ele>
        <time>2019-08-13T19:22:47Z</time>
      </trkpt>
      <trkpt lat="40.6594680" lon="-4.6794880">
        <ele>1129.3</ele>
        <time>2019-08-13T19:22:48Z</time>
      </trkpt>
      <trkpt lat="40.6594730" lon="-4.6794350">
        <ele>1129.4</ele>
        <time>2019-08-13T19:22:49Z</time>
      </trkpt>
      <trkpt lat="40.6594790" lon="-4.6793820">
        <ele>1129.5</ele>
        <time>2019-08-13T19:22:50Z</time>
      </trkpt>
      <trkpt lat="40.6594860" lon="-4.6793300">
        <ele>1129.6</ele>
        <time>2019-08-13T19:22:51Z</time>
      </trkpt>
      <trkpt lat="40.6594960" lon="-4.6792770">
        <ele>1129.7</ele>
        <time>2019-08-13T19:22:52Z</time>
      </trkpt>
      <trkpt lat="40.6595090" lon="-4.6792250">
        <ele>1129.8</ele>
        <time>2019-08-13T19:22:53Z</time>
      </trkpt>
      <trkpt lat="40.6595270" lon="-4.6791740">
        <ele>1129.9</ele>
        <time>2019-08-13T19:22:54Z</time>
      </trkpt>
      <trkpt lat="40.6595500" lon="-4.6791250">
        <ele>1130.0</ele>
        <time>2019-08-13T19:22:55Z</time>
      </trkpt>
      <trkpt lat="40.6595780" lon="-4.6790790">
        <ele>1130.0</ele>
        <time>2019-08-13T19:22:56Z</time>
      </trkpt>
      <trkpt lat="40.6596100" lon="-4.6790370">
        <ele>1130.2</ele>
        <time>2019-08-13T19:22:57Z</time>
      </trkpt>
      <trkpt lat="40.6596460" lon="-4.6789990">
        <ele>1130.4</ele>
        <time>2019-08-13T19:22:58Z</time>
      </trkpt>
      <trkpt lat="40.6596850" lon="-4.6789670">
        <ele>1130.6</ele>
        <time>2019-08-13T19:22:59Z</time>
      </trkpt>
      <trkpt lat="40.6597280" lon="-4.6789420">
        <ele>1130.7</ele>
        <time>2019-08-13T19:23:00Z</time>
      </trkpt>
      <trkpt lat="40.6597750" lon="-4.6789230">
        <ele>1130.9</ele>
        <time>2019-08-13T19:23:01Z</time>
      </trkpt>
      <trkpt lat="40.6598240" lon="-4.6789120">
        <ele>1131.1</ele>
        <time>2019-08-13T19:23:02Z</time>
      </trkpt>
      <trkpt lat="40.6598740" lon="-4.6789110">
        <ele>1131.3</ele>
        <time>2019-08-13T19:23:03Z</time>
      </trkpt>
      <trkpt lat="40.6599250" lon="-4.6789240">
        <ele>1131.2</ele>
        <time>2019-08-13T19:23:04Z</time>
      </trkpt>
      <trkpt lat="40.6599730" lon="-4.6789500">
        <ele>1131.2</ele>
        <time>2019-08-13T19:23:05Z</time>
      </trkpt>
      <trkpt lat="40.6600180" lon="-4.6789880">
        <ele>1131.1</ele>
        <time>2019-08-13T19:23:06Z</time>
      </trkpt>
      <trkpt lat="40.6600590" lon="-4.6790360">
        <ele>1130.5</ele>
        <time>2019-08-13T19:23:07Z</time>
      </trkpt>
      <trkpt lat="40.6600960" lon="-4.6790870">
        <ele>1130.4</ele>
        <time>2019-08-13T19:23:08Z</time>
      </trkpt>
      <trkpt lat="40.6601310" lon="-4.6791360">
        <ele>1130.2</ele>
        <time>2019-08-13T19:23:09Z</time>
      </trkpt>
      <trkpt lat="40.6601700" lon="-4.6791760">
        <ele>1129.9</ele>
        <time>2019-08-13T19:23:10Z</time>
      </trkpt>
      <trkpt lat="40.6602140" lon="-4.6792080">
        <ele>1129.8</ele>
        <time>2019-08-13T19:23:11Z</time>
      </trkpt>
      <trkpt lat="40.6602600" lon="-4.6792290">
        <ele>1129.6</ele>
        <time>2019-08-13T19:23:12Z</time>
      </trkpt>
      <trkpt lat="40.6603090" lon="-4.6792400">
        <ele>1129.5</ele>
        <time>2019-08-13T19:23:13Z</time>
      </trkpt>
      <trkpt lat="40.6603600" lon="-4.6792430">
        <ele>1129.7</ele>
        <time>2019-08-13T19:23:14Z</time>
      </trkpt>
      <trkpt lat="40.6604120" lon="-4.6792440">
        <ele>1129.8</ele>
        <time>2019-08-13T19:23:15Z</time>
      </trkpt>
      <trkpt lat="40.6604620" lon="-4.6792440">
        <ele>1129.8</ele>
        <time>2019-08-13T19:23:16Z</time>
      </trkpt>
      <trkpt lat="40.6605130" lon="-4.6792460">
        <ele>1129.9</ele>
        <time>2019-08-13T19:23:17Z</time>
      </trkpt>
      <trkpt lat="40.6605630" lon="-4.6792500">
        <ele>1130.0</ele>
        <time>2019-08-13T19:23:18Z</time>
      </trkpt>
      <trkpt lat="40.6606120" lon="-4.6792570">
        <ele>1130.1</ele>
        <time>2019-08-13T19:23:19Z</time>
      </trkpt>
      <trkpt lat="40.6606600" lon="-4.6792660">
        <ele>1130.2</ele>
        <time>2019-08-13T19:23:20Z</time>
      </trkpt>
      <trkpt lat="40.6607080" lon="-4.6792750">
        <ele>1130.2</ele>
        <time>2019-08-13T19:23:21Z</time>
      </trkpt>
      <trkpt lat="40.6607560" lon="-4.6792850">
        <ele>1130.3</ele>
        <time>2019-08-13T19:23:22Z</time>
      </trkpt>
      <trkpt lat="40.6608050" lon="-4.6792950">
        <ele>1130.3</ele>
        <time>2019-08-13T19:23:23Z</time>
      </trkpt>
      <trkpt lat="40.6608550" lon="-4.6793030">
        <ele>1130.4</ele>
        <time>2019-08-13T19:23:24Z</time>
      </trkpt>
      <trkpt lat="40.6609040" lon="-4.6793080">
        <ele>1130.5</ele>
        <time>2019-08-13T19:23:25Z</time>
      </trkpt>
      <trkpt lat="40.6609540" lon="-4.6793110">
        <ele>1130.5</ele>
        <time>2019-08-13T19:23:26Z</time>
      </trkpt>
      <trkpt lat="40.6610060" lon="-4.6793110">
        <ele>1130.6</ele>
        <time>2019-08-13T19:23:27Z</time>
      </trkpt>
      <trkpt lat="40.6610550" lon="-4.6793060">
        <ele>1130.8</ele>
        <time>2019-08-13T19:23:28Z</time>
      </trkpt>
      <trkpt lat="40.6611040" lon="-4.6792980">
        <ele>1131.2</ele>
        <time>2019-08-13T19:23:29Z</time>
      </trkpt>
      <trkpt lat="40.6611520" lon="-4.6792890">
        <ele>1131.5</ele>
        <time>2019-08-13T19:23:30Z</time>
      </trkpt>
      <trkpt lat="40.6611980" lon="-4.6792770">
        <ele>1131.7</ele>
        <time>2019-08-13T19:23:31Z</time>
      </trkpt>
      <trkpt lat="40.6612410" lon="-4.6792570">
        <ele>1132.0</ele>
        <time>2019-08-13T19:23:32Z</time>
      </trkpt>
      <trkpt lat="40.6612790" lon="-4.6792320">
        <ele>1132.2</ele>
        <time>2019-08-13T19:23:33Z</time>
      </trkpt>
      <trkpt lat="40.6613100" lon="-4.6791990">
        <ele>1132.4</ele>
        <time>2019-08-13T19:23:34Z</time>
      </trkpt>
      <trkpt lat="40.6613340" lon="-4.6791580">
        <ele>1132.6</ele>
        <time>2019-08-13T19:23:35Z</time>
      </trkpt>
      <trkpt lat="40.6613540" lon="-4.6791160">
        <ele>1132.8</ele>
        <time>2019-08-13T19:23:36Z</time>
      </trkpt>
      <trkpt lat="40.6613710" lon="-4.6790800">
        <ele>1133.0</ele>
        <time>2019-08-13T19:23:37Z</time>
      </trkpt>
      <trkpt lat="40.6613870" lon="-4.6790460">
        <ele>1133.2</ele>
        <time>2019-08-13T19:23:38Z</time>
      </trkpt>
      <trkpt lat="40.6614170" lon="-4.6790060">
        <ele>1133.4</ele>
        <time>2019-08-13T19:23:40Z</time>
      </trkpt>
      <trkpt lat="40.6614440" lon="-4.6789840">
        <ele>1133.7</ele>
        <time>2019-08-13T19:23:42Z</time>
      </trkpt>
      <trkpt lat="40.6614680" lon="-4.6789570">
        <ele>1133.9</ele>
        <time>2019-08-13T19:23:44Z</time>
      </trkpt>
      <trkpt lat="40.6614930" lon="-4.6789200">
        <ele>1134.1</ele>
        <time>2019-08-13T19:23:46Z</time>
      </trkpt>
      <trkpt lat="40.6615160" lon="-4.6788750">
        <ele>1134.3</ele>
        <time>2019-08-13T19:23:48Z</time>
      </trkpt>
      <trkpt lat="40.6615370" lon="-4.6788230">
        <ele>1134.5</ele>
        <time>2019-08-13T19:23:50Z</time>
      </trkpt>
      <trkpt lat="40.6615610" lon="-4.6787740">
        <ele>1134.7</ele>
        <time>2019-08-13T19:23:52Z</time>
      </trkpt>
      <trkpt lat="40.6615840" lon="-4.6787260">
        <ele>1134.9</ele>
        <time>2019-08-13T19:23:54Z</time>
      </trkpt>
      <trkpt lat="40.6616060" lon="-4.6787020">
        <ele>1135.0</ele>
        <time>2019-08-13T19:23:56Z</time>
      </trkpt>
      <trkpt lat="40.6612640" lon="-4.6791110">
        <ele>1133.4</ele>
        <time>2019-08-14T07:00:33Z</time>
      </trkpt>
      <trkpt lat="40.6612860" lon="-4.6790740">
        <ele>1133.4</ele>
        <time>2019-08-14T07:00:35Z</time>
      </trkpt>
      <trkpt lat="40.6613480" lon="-4.6790180">
        <ele>1133.4</ele>
        <time>2019-08-14T07:00:36Z</time>
      </trkpt>
      <trkpt lat="40.6613910" lon="-4.6790680">
        <ele>1133.4</ele>
        <time>2019-08-14T07:00:37Z</time>
      </trkpt>
      <trkpt lat="40.6614040" lon="-4.6790020">
        <ele>1133.4</ele>
        <time>2019-08-14T07:00:38Z</time>
      </trkpt>
      <trkpt lat="40.6613810" lon="-4.6789870">
        <ele>1133.4</ele>
        <time>2019-08-14T07:00:40Z</time>
      </trkpt>
      <trkpt lat="40.6613550" lon="-4.6789660">
        <ele>1133.4</ele>
        <time>2019-08-14T07:00:44Z</time>
      </trkpt>
      <trkpt lat="40.6613650" lon="-4.6790020">
        <ele>1133.4</ele>
        <time>2019-08-14T07:01:41Z</time>
      </trkpt>
      <trkpt lat="40.6613510" lon="-4.6790370">
        <ele>1133.4</ele>
        <time>2019-08-14T07:01:43Z</time>
      </trkpt>
      <trkpt lat="40.6613520" lon="-4.6790680">
        <ele>1133.4</ele>
        <time>2019-08-14T07:01:47Z</time>
      </trkpt>
      <trkpt lat="40.6613620" lon="-4.6791030">
        <ele>1133.0</ele>
        <time>2019-08-14T07:01:49Z</time>
      </trkpt>
      <trkpt lat="40.6613570" lon="-4.6791570">
        <ele>1132.7</ele>
        <time>2019-08-14T07:01:51Z</time>
      </trkpt>
      <trkpt lat="40.6613440" lon="-4.6792180">
        <ele>1132.4</ele>
        <time>2019-08-14T07:01:53Z</time>
      </trkpt>
      <trkpt lat="40.6613270" lon="-4.6792750">
        <ele>1132.1</ele>
        <time>2019-08-14T07:01:55Z</time>
      </trkpt>
      <trkpt lat="40.6613080" lon="-4.6793210">
        <ele>1131.9</ele>
        <time>2019-08-14T07:01:57Z</time>
      </trkpt>
      <trkpt lat="40.6612920" lon="-4.6793610">
        <ele>1131.6</ele>
        <time>2019-08-14T07:01:59Z</time>
      </trkpt>
      <trkpt lat="40.6612800" lon="-4.6794160">
        <ele>1131.2</ele>
        <time>2019-08-14T07:02:02Z</time>
      </trkpt>
      <trkpt lat="40.6612820" lon="-4.6794900">
        <ele>1130.3</ele>
        <time>2019-08-14T07:02:04Z</time>
      </trkpt>
      <trkpt lat="40.6612780" lon="-4.6795370">
        <ele>1130.1</ele>
        <time>2019-08-14T07:02:05Z</time>
      </trkpt>
      <trkpt lat="40.6612650" lon="-4.6795870">
        <ele>1129.8</ele>
        <time>2019-08-14T07:02:06Z</time>
      </trkpt>
      <trkpt lat="40.6612430" lon="-4.6796340">
        <ele>1129.5</ele>
        <time>2019-08-14T07:02:07Z</time>
      </trkpt>
      <trkpt lat="40.6612120" lon="-4.6796730">
        <ele>1129.2</ele>
        <time>2019-08-14T07:02:08Z</time>
      </trkpt>
      <trkpt lat="40.6611710" lon="-4.6797010">
        <ele>1128.8</ele>
        <time>2019-08-14T07:02:09Z</time>
      </trkpt>
      <trkpt lat="40.6611260" lon="-4.6797150">
        <ele>1127.9</ele>
        <time>2019-08-14T07:02:10Z</time>
      </trkpt>
      <trkpt lat="40.6610790" lon="-4.6797140">
        <ele>1127.9</ele>
        <time>2019-08-14T07:02:11Z</time>
      </trkpt>
      <trkpt lat="40.6610380" lon="-4.6796950">
        <ele>1127.7</ele>
        <time>2019-08-14T07:02:12Z</time>
      </trkpt>
      <trkpt lat="40.6610020" lon="-4.6796630">
        <ele>1127.8</ele>
        <time>2019-08-14T07:02:13Z</time>
      </trkpt>
      <trkpt lat="40.6609670" lon="-4.6796240">
        <ele>1128.1</ele>
        <time>2019-08-14T07:02:14Z</time>
      </trkpt>
      <trkpt lat="40.6609330" lon="-4.6795860">
        <ele>1127.9</ele>
        <time>2019-08-14T07:02:15Z</time>
      </trkpt>
      <trkpt lat="40.6608930" lon="-4.6795530">
        <ele>1127.7</ele>
        <time>2019-08-14T07:02:16Z</time>
      </trkpt>
      <trkpt lat="40.6608480" lon="-4.6795290">
        <ele>1127.5</ele>
        <time>2019-08-14T07:02:17Z</time>
      </trkpt>
      <trkpt lat="40.6608010" lon="-4.6795140">
        <ele>1127.4</ele>
        <time>2019-08-14T07:02:18Z</time>
      </trkpt>
      <trkpt lat="40.6607540" lon="-4.6795030">
        <ele>1127.4</ele>
        <time>2019-08-14T07:02:19Z</time>
      </trkpt>
      <trkpt lat="40.6607040" lon="-4.6794920">
        <ele>1127.4</ele>
        <time>2019-08-14T07:02:20Z</time>
      </trkpt>
      <trkpt lat="40.6606540" lon="-4.6794810">
        <ele>1127.4</ele>
        <time>2019-08-14T07:02:21Z</time>
      </trkpt>
      <trkpt lat="40.6606050" lon="-4.6794700">
        <ele>1127.5</ele>
        <time>2019-08-14T07:02:22Z</time>
      </trkpt>
      <trkpt lat="40.6605580" lon="-4.6794600">
        <ele>1127.7</ele>
        <time>2019-08-14T07:02:23Z</time>
      </trkpt>
      <trkpt lat="40.6605100" lon="-4.6794530">
        <ele>1127.8</ele>
        <time>2019-08-14T07:02:24Z</time>
      </trkpt>
      <trkpt lat="40.6604640" lon="-4.6794480">
        <ele>1128.0</ele>
        <time>2019-08-14T07:02:25Z</time>
      </trkpt>
      <trkpt lat="40.6604190" lon="-4.6794470">
        <ele>1128.1</ele>
        <time>2019-08-14T07:02:26Z</time>
      </trkpt>
      <trkpt lat="40.6603740" lon="-4.6794500">
        <ele>1128.1</ele>
        <time>2019-08-14T07:02:27Z</time>
      </trkpt>
      <trkpt lat="40.6603300" lon="-4.6794570">
        <ele>1128.1</ele>
        <time>2019-08-14T07:02:28Z</time>
      </trkpt>
      <trkpt lat="40.6602840" lon="-4.6794690">
        <ele>1128.1</ele>
        <time>2019-08-14T07:02:29Z</time>
      </trkpt>
      <trkpt lat="40.6602400" lon="-4.6794870">
        <ele>1128.0</ele>
        <time>2019-08-14T07:02:30Z</time>
      </trkpt>
      <trkpt lat="40.6601960" lon="-4.6795070">
        <ele>1128.0</ele>
        <time>2019-08-14T07:02:31Z</time>
      </trkpt>
      <trkpt lat="40.6601530" lon="-4.6795340">
        <ele>1127.8</ele>
        <time>2019-08-14T07:02:32Z</time>
      </trkpt>
      <trkpt lat="40.6601130" lon="-4.6795690">
        <ele>1127.7</ele>
        <time>2019-08-14T07:02:33Z</time>
      </trkpt>
      <trkpt lat="40.6600770" lon="-4.6796130">
        <ele>1127.5</ele>
        <time>2019-08-14T07:02:34Z</time>
      </trkpt>
      <trkpt lat="40.6600420" lon="-4.6796580">
        <ele>1127.5</ele>
        <time>2019-08-14T07:02:35Z</time>
      </trkpt>
      <trkpt lat="40.6600090" lon="-4.6797050">
        <ele>1127.4</ele>
        <time>2019-08-14T07:02:36Z</time>
      </trkpt>
      <trkpt lat="40.6599730" lon="-4.6797470">
        <ele>1127.4</ele>
        <time>2019-08-14T07:02:37Z</time>
      </trkpt>
      <trkpt lat="40.6599340" lon="-4.6797820">
        <ele>1127.3</ele>
        <time>2019-08-14T07:02:38Z</time>
      </trkpt>
      <trkpt lat="40.6598930" lon="-4.6798110">
        <ele>1127.3</ele>
        <time>2019-08-14T07:02:39Z</time>
      </trkpt>
      <trkpt lat="40.6598530" lon="-4.6798370">
        <ele>1127.3</ele>
        <time>2019-08-14T07:02:40Z</time>
      </trkpt>
      <trkpt lat="40.6598130" lon="-4.6798590">
        <ele>1127.3</ele>
        <time>2019-08-14T07:02:41Z</time>
      </trkpt>
      <trkpt lat="40.6597740" lon="-4.6798800">
        <ele>1127.3</ele>
        <time>2019-08-14T07:02:42Z</time>
      </trkpt>
      <trkpt lat="40.6597330" lon="-4.6799050">
        <ele>1127.3</ele>
        <time>2019-08-14T07:02:43Z</time>
      </trkpt>
      <trkpt lat="40.6596920" lon="-4.6799330">
        <ele>1127.3</ele>
        <time>2019-08-14T07:02:44Z</time>
      </trkpt>
      <trkpt lat="40.6596550" lon="-4.6799680">
        <ele>1127.3</ele>
        <time>2019-08-14T07:02:45Z</time>
      </trkpt>
      <trkpt lat="40.6596210" lon="-4.6800080">
        <ele>1127.3</ele>
        <time>2019-08-14T07:02:46Z</time>
      </trkpt>
      <trkpt lat="40.6595930" lon="-4.6800550">
        <ele>1127.3</ele>
        <time>2019-08-14T07:02:47Z</time>
      </trkpt>
      <trkpt lat="40.6595690" lon="-4.6801050">
        <ele>1127.3</ele>
        <time>2019-08-14T07:02:48Z</time>
      </trkpt>
      <trkpt lat="40.6595460" lon="-4.6801560">
        <ele>1127.3</ele>
        <time>2019-08-14T07:02:49Z</time>
      </trkpt>
      <trkpt lat="40.6595220" lon="-4.6802060">
        <ele>1127.3</ele>
        <time>2019-08-14T07:02:50Z</time>
      </trkpt>
      <trkpt lat="40.6594980" lon="-4.6802550">
        <ele>1127.3</ele>
        <time>2019-08-14T07:02:51Z</time>
      </trkpt>
      <trkpt lat="40.6594740" lon="-4.6803080">
        <ele>1127.3</ele>
        <time>2019-08-14T07:02:52Z</time>
      </trkpt>
      <trkpt lat="40.6594520" lon="-4.6803640">
        <ele>1127.3</ele>
        <time>2019-08-14T07:02:53Z</time>
      </trkpt>
      <trkpt lat="40.6594280" lon="-4.6804210">
        <ele>1127.3</ele>
        <time>2019-08-14T07:02:54Z</time>
      </trkpt>
      <trkpt lat="40.6594050" lon="-4.6804790">
        <ele>1127.3</ele>
        <time>2019-08-14T07:02:55Z</time>
      </trkpt>
      <trkpt lat="40.6593810" lon="-4.6805380">
        <ele>1127.4</ele>
        <time>2019-08-14T07:02:56Z</time>
      </trkpt>
      <trkpt lat="40.6593580" lon="-4.6805970">
        <ele>1127.5</ele>
        <time>2019-08-14T07:02:57Z</time>
      </trkpt>
      <trkpt lat="40.6593350" lon="-4.6806560">
        <ele>1127.6</ele>
        <time>2019-08-14T07:02:58Z</time>
      </trkpt>
      <trkpt lat="40.6593120" lon="-4.6807140">
        <ele>1127.7</ele>
        <time>2019-08-14T07:02:59Z</time>
      </trkpt>
      <trkpt lat="40.6592900" lon="-4.6807690">
        <ele>1127.8</ele>
        <time>2019-08-14T07:03:00Z</time>
      </trkpt>
      <trkpt lat="40.6592700" lon="-4.6808230">
        <ele>1127.9</ele>
        <time>2019-08-14T07:03:01Z</time>
      </trkpt>
      <trkpt lat="40.6592490" lon="-4.6808760">
        <ele>1127.9</ele>
        <time>2019-08-14T07:03:02Z</time>
      </trkpt>
      <trkpt lat="40.6592280" lon="-4.6809280">
        <ele>1128.0</ele>
        <time>2019-08-14T07:03:03Z</time>
      </trkpt>
      <trkpt lat="40.6592060" lon="-4.6809810">
        <ele>1128.2</ele>
        <time>2019-08-14T07:03:04Z</time>
      </trkpt>
      <trkpt lat="40.6591840" lon="-4.6810360">
        <ele>1128.3</ele>
        <time>2019-08-14T07:03:05Z</time>
      </trkpt>
      <trkpt lat="40.6591620" lon="-4.6810920">
        <ele>1128.5</ele>
        <time>2019-08-14T07:03:06Z</time>
      </trkpt>
      <trkpt lat="40.6591390" lon="-4.6811480">
        <ele>1128.6</ele>
        <time>2019-08-14T07:03:07Z</time>
      </trkpt>
      <trkpt lat="40.6591180" lon="-4.6812040">
        <ele>1128.8</ele>
        <time>2019-08-14T07:03:08Z</time>
      </trkpt>
      <trkpt lat="40.6590980" lon="-4.6812610">
        <ele>1128.9</ele>
        <time>2019-08-14T07:03:09Z</time>
      </trkpt>
      <trkpt lat="40.6590800" lon="-4.6813180">
        <ele>1129.0</ele>
        <time>2019-08-14T07:03:10Z</time>
      </trkpt>
      <trkpt lat="40.6590630" lon="-4.6813760">
        <ele>1129.2</ele>
        <time>2019-08-14T07:03:11Z</time>
      </trkpt>
      <trkpt lat="40.6590530" lon="-4.6814380">
        <ele>1129.3</ele>
        <time>2019-08-14T07:03:12Z</time>
      </trkpt>
      <trkpt lat="40.6590520" lon="-4.6815030">
        <ele>1128.9</ele>
        <time>2019-08-14T07:03:13Z</time>
      </trkpt>
      <trkpt lat="40.6590510" lon="-4.6815690">
        <ele>1128.9</ele>
        <time>2019-08-14T07:03:14Z</time>
      </trkpt>
      <trkpt lat="40.6590440" lon="-4.6816350">
        <ele>1128.8</ele>
        <time>2019-08-14T07:03:15Z</time>
      </trkpt>
      <trkpt lat="40.6590270" lon="-4.6817020">
        <ele>1128.7</ele>
        <time>2019-08-14T07:03:16Z</time>
      </trkpt>
      <trkpt lat="40.6590010" lon="-4.6817650">
        <ele>1128.6</ele>
        <time>2019-08-14T07:03:17Z</time>
      </trkpt>
      <trkpt lat="40.6589700" lon="-4.6818270">
        <ele>1128.5</ele>
        <time>2019-08-14T07:03:18Z</time>
      </trkpt>
      <trkpt lat="40.6589360" lon="-4.6818880">
        <ele>1128.4</ele>
        <time>2019-08-14T07:03:19Z</time>
      </trkpt>
      <trkpt lat="40.6589060" lon="-4.6819550">
        <ele>1128.3</ele>
        <time>2019-08-14T07:03:20Z</time>
      </trkpt>
      <trkpt lat="40.6588840" lon="-4.6820270">
        <ele>1128.2</ele>
        <time>2019-08-14T07:03:21Z</time>
      </trkpt>
      <trkpt lat="40.6588690" lon="-4.6821020">
        <ele>1128.0</ele>
        <time>2019-08-14T07:03:22Z</time>
      </trkpt>
      <trkpt lat="40.6588550" lon="-4.6821800">
        <ele>1127.9</ele>
        <time>2019-08-14T07:03:23Z</time>
      </trkpt>
      <trkpt lat="40.6588420" lon="-4.6822570">
        <ele>1127.8</ele>
        <time>2019-08-14T07:03:24Z</time>
      </trkpt>
      <trkpt lat="40.6588280" lon="-4.6823330">
        <ele>1127.8</ele>
        <time>2019-08-14T07:03:25Z</time>
      </trkpt>
      <trkpt lat="40.6588170" lon="-4.6824100">
        <ele>1127.7</ele>
        <time>2019-08-14T07:03:26Z</time>
      </trkpt>
      <trkpt lat="40.6588060" lon="-4.6824890">
        <ele>1127.7</ele>
        <time>2019-08-14T07:03:27Z</time>
      </trkpt>
      <trkpt lat="40.6587940" lon="-4.6825700">
        <ele>1127.7</ele>
        <time>2019-08-14T07:03:28Z</time>
      </trkpt>
      <trkpt lat="40.6587820" lon="-4.6826500">
        <ele>1127.7</ele>
        <time>2019-08-14T07:03:29Z</time>
      </trkpt>
      <trkpt lat="40.6587670" lon="-4.6827310">
        <ele>1127.8</ele>
        <time>2019-08-14T07:03:30Z</time>
      </trkpt>
      <trkpt lat="40.6587480" lon="-4.6828120">
        <ele>1127.9</ele>
        <time>2019-08-14T07:03:31Z</time>
      </trkpt>
      <trkpt lat="40.6587280" lon="-4.6828940">
        <ele>1128.1</ele>
        <time>2019-08-14T07:03:32Z</time>
      </trkpt>
      <trkpt lat="40.6587070" lon="-4.6829740">
        <ele>1128.2</ele>
        <time>2019-08-14T07:03:33Z</time>
      </trkpt>
      <trkpt lat="40.6586830" lon="-4.6830550">
        <ele>1128.4</ele>
        <time>2019-08-14T07:03:34Z</time>
      </trkpt>
      <trkpt lat="40.6586600" lon="-4.6831370">
        <ele>1128.5</ele>
        <time>2019-08-14T07:03:35Z</time>
      </trkpt>
      <trkpt lat="40.6586370" lon="-4.6832160">
        <ele>1128.3</ele>
        <time>2019-08-14T07:03:36Z</time>
      </trkpt>
      <trkpt lat="40.6586120" lon="-4.6832930">
        <ele>1128.1</ele>
        <time>2019-08-14T07:03:37Z</time>
      </trkpt>
      <trkpt lat="40.6585870" lon="-4.6833680">
        <ele>1128.0</ele>
        <time>2019-08-14T07:03:38Z</time>
      </trkpt>
      <trkpt lat="40.6585510" lon="-4.6834250">
        <ele>1127.8</ele>
        <time>2019-08-14T07:03:39Z</time>
      </trkpt>
      <trkpt lat="40.6585210" lon="-4.6835020">
        <ele>1127.6</ele>
        <time>2019-08-14T07:03:40Z</time>
      </trkpt>
      <trkpt lat="40.6584990" lon="-4.6835630">
        <ele>1127.5</ele>
        <time>2019-08-14T07:03:41Z</time>
      </trkpt>
      <trkpt lat="40.6584840" lon="-4.6836160">
        <ele>1127.4</ele>
        <time>2019-08-14T07:03:42Z</time>
      </trkpt>
      <trkpt lat="40.6584760" lon="-4.6836890">
        <ele>1127.3</ele>
        <time>2019-08-14T07:03:43Z</time>
      </trkpt>
      <trkpt lat="40.6584690" lon="-4.6837730">
        <ele>1127.1</ele>
        <time>2019-08-14T07:03:44Z</time>
      </trkpt>
      <trkpt lat="40.6584500" lon="-4.6838390">
        <ele>1127.1</ele>
        <time>2019-08-14T07:03:45Z</time>
      </trkpt>
      <trkpt lat="40.6584310" lon="-4.6839050">
        <ele>1127.2</ele>
        <time>2019-08-14T07:03:46Z</time>
      </trkpt>
      <trkpt lat="40.6584080" lon="-4.6839560">
        <ele>1127.2</ele>
        <time>2019-08-14T07:03:47Z</time>
      </trkpt>
      <trkpt lat="40.6583970" lon="-4.6840150">
        <ele>1127.3</ele>
        <time>2019-08-14T07:03:48Z</time>
      </trkpt>
      <trkpt lat="40.6583830" lon="-4.6840760">
        <ele>1127.3</ele>
        <time>2019-08-14T07:03:49Z</time>
      </trkpt>
      <trkpt lat="40.6583680" lon="-4.6841400">
        <ele>1127.4</ele>
        <time>2019-08-14T07:03:50Z</time>
      </trkpt>
      <trkpt lat="40.6583570" lon="-4.6842080">
        <ele>1127.4</ele>
        <time>2019-08-14T07:03:51Z</time>
      </trkpt>
      <trkpt lat="40.6583510" lon="-4.6842790">
        <ele>1127.5</ele>
        <time>2019-08-14T07:03:52Z</time>
      </trkpt>
      <trkpt lat="40.6583430" lon="-4.6843520">
        <ele>1127.6</ele>
        <time>2019-08-14T07:03:53Z</time>
      </trkpt>
      <trkpt lat="40.6583350" lon="-4.6844250">
        <ele>1127.5</ele>
        <time>2019-08-14T07:03:54Z</time>
      </trkpt>
      <trkpt lat="40.6583220" lon="-4.6844980">
        <ele>1127.5</ele>
        <time>2019-08-14T07:03:55Z</time>
      </trkpt>
      <trkpt lat="40.6583010" lon="-4.6845700">
        <ele>1128.2</ele>
        <time>2019-08-14T07:03:56Z</time>
      </trkpt>
      <trkpt lat="40.6582690" lon="-4.6846320">
        <ele>1128.5</ele>
        <time>2019-08-14T07:03:57Z</time>
      </trkpt>
      <trkpt lat="40.6582270" lon="-4.6846800">
        <ele>1128.9</ele>
        <time>2019-08-14T07:03:58Z</time>
      </trkpt>
      <trkpt lat="40.6581830" lon="-4.6847200">
        <ele>1129.1</ele>
        <time>2019-08-14T07:03:59Z</time>
      </trkpt>
      <trkpt lat="40.6581380" lon="-4.6847590">
        <ele>1129.7</ele>
        <time>2019-08-14T07:04:00Z</time>
      </trkpt>
      <trkpt lat="40.6580930" lon="-4.6847990">
        <ele>1129.7</ele>
        <time>2019-08-14T07:04:01Z</time>
      </trkpt>
      <trkpt lat="40.6580540" lon="-4.6848460">
        <ele>1129.7</ele>
        <time>2019-08-14T07:04:02Z</time>
      </trkpt>
      <trkpt lat="40.6580210" lon="-4.6848990">
        <ele>1129.6</ele>
        <time>2019-08-14T07:04:03Z</time>
      </trkpt>
      <trkpt lat="40.6579920" lon="-4.6849560">
        <ele>1129.6</ele>
        <time>2019-08-14T07:04:04Z</time>
      </trkpt>
      <trkpt lat="40.6579650" lon="-4.6850170">
        <ele>1129.6</ele>
        <time>2019-08-14T07:04:05Z</time>
      </trkpt>
      <trkpt lat="40.6579390" lon="-4.6850790">
        <ele>1129.5</ele>
        <time>2019-08-14T07:04:06Z</time>
      </trkpt>
      <trkpt lat="40.6579100" lon="-4.6851430">
        <ele>1129.5</ele>
        <time>2019-08-14T07:04:07Z</time>
      </trkpt>
      <trkpt lat="40.6578840" lon="-4.6852060">
        <ele>1129.4</ele>
        <time>2019-08-14T07:04:08Z</time>
      </trkpt>
      <trkpt lat="40.6578590" lon="-4.6852650">
        <ele>1129.4</ele>
        <time>2019-08-14T07:04:09Z</time>
      </trkpt>
      <trkpt lat="40.6578350" lon="-4.6853250">
        <ele>1129.3</ele>
        <time>2019-08-14T07:04:10Z</time>
      </trkpt>
      <trkpt lat="40.6578110" lon="-4.6853860">
        <ele>1129.3</ele>
        <time>2019-08-14T07:04:11Z</time>
      </trkpt>
      <trkpt lat="40.6577890" lon="-4.6854460">
        <ele>1129.2</ele>
        <time>2019-08-14T07:04:12Z</time>
      </trkpt>
      <trkpt lat="40.6577670" lon="-4.6855060">
        <ele>1129.1</ele>
        <time>2019-08-14T07:04:13Z</time>
      </trkpt>
      <trkpt lat="40.6577450" lon="-4.6855690">
        <ele>1129.1</ele>
        <time>2019-08-14T07:04:14Z</time>
      </trkpt>
      <trkpt lat="40.6577220" lon="-4.6856320">
        <ele>1129.0</ele>
        <time>2019-08-14T07:04:15Z</time>
      </trkpt>
      <trkpt lat="40.6577010" lon="-4.6856960">
        <ele>1129.0</ele>
        <time>2019-08-14T07:04:16Z</time>
      </trkpt>
      <trkpt lat="40.6576800" lon="-4.6857610">
        <ele>1128.9</ele>
        <time>2019-08-14T07:04:17Z</time>
      </trkpt>
      <trkpt lat="40.6576590" lon="-4.6858290">
        <ele>1128.9</ele>
        <time>2019-08-14T07:04:18Z</time>
      </trkpt>
      <trkpt lat="40.6576400" lon="-4.6858990">
        <ele>1128.8</ele>
        <time>2019-08-14T07:04:19Z</time>
      </trkpt>
      <trkpt lat="40.6576180" lon="-4.6859690">
        <ele>1128.8</ele>
        <time>2019-08-14T07:04:20Z</time>
      </trkpt>
      <trkpt lat="40.6575960" lon="-4.6860390">
        <ele>1128.8</ele>
        <time>2019-08-14T07:04:21Z</time>
      </trkpt>
      <trkpt lat="40.6575740" lon="-4.6861100">
        <ele>1128.7</ele>
        <time>2019-08-14T07:04:22Z</time>
      </trkpt>
      <trkpt lat="40.6575520" lon="-4.6861800">
        <ele>1128.7</ele>
        <time>2019-08-14T07:04:23Z</time>
      </trkpt>
      <trkpt lat="40.6575300" lon="-4.6862490">
        <ele>1128.6</ele>
        <time>2019-08-14T07:04:24Z</time>
      </trkpt>
      <trkpt lat="40.6575070" lon="-4.6863180">
        <ele>1128.6</ele>
        <time>2019-08-14T07:04:25Z</time>
      </trkpt>
      <trkpt lat="40.6574840" lon="-4.6863870">
        <ele>1128.6</ele>
        <time>2019-08-14T07:04:26Z</time>
      </trkpt>
      <trkpt lat="40.6574620" lon="-4.6864580">
        <ele>1128.5</ele>
        <time>2019-08-14T07:04:27Z</time>
      </trkpt>
      <trkpt lat="40.6574400" lon="-4.6865300">
        <ele>1128.5</ele>
        <time>2019-08-14T07:04:28Z</time>
      </trkpt>
      <trkpt lat="40.6574180" lon="-4.6866040">
        <ele>1128.4</ele>
        <time>2019-08-14T07:04:29Z</time>
      </trkpt>
      <trkpt lat="40.6573970" lon="-4.6866720">
        <ele>1128.4</ele>
        <time>2019-08-14T07:04:30Z</time>
      </trkpt>
      <trkpt lat="40.6573780" lon="-4.6867380">
        <ele>1128.3</ele>
        <time>2019-08-14T07:04:31Z</time>
      </trkpt>
      <trkpt lat="40.6573550" lon="-4.6868060">
        <ele>1128.3</ele>
        <time>2019-08-14T07:04:32Z</time>
      </trkpt>
      <trkpt lat="40.6573330" lon="-4.6868720">
        <ele>1128.2</ele>
        <time>2019-08-14T07:04:33Z</time>
      </trkpt>
      <trkpt lat="40.6573130" lon="-4.6869390">
        <ele>1128.2</ele>
        <time>2019-08-14T07:04:34Z</time>
      </trkpt>
      <trkpt lat="40.6572960" lon="-4.6870040">
        <ele>1128.2</ele>
        <time>2019-08-14T07:04:35Z</time>
      </trkpt>
      <trkpt lat="40.6572790" lon="-4.6870690">
        <ele>1128.1</ele>
        <time>2019-08-14T07:04:36Z</time>
      </trkpt>
      <trkpt lat="40.6572610" lon="-4.6871340">
        <ele>1128.0</ele>
        <time>2019-08-14T07:04:37Z</time>
      </trkpt>
      <trkpt lat="40.6572430" lon="-4.6872000">
        <ele>1127.9</ele>
        <time>2019-08-14T07:04:38Z</time>
      </trkpt>
      <trkpt lat="40.6572270" lon="-4.6872640">
        <ele>1127.7</ele>
        <time>2019-08-14T07:04:39Z</time>
      </trkpt>
      <trkpt lat="40.6572120" lon="-4.6873300">
        <ele>1127.4</ele>
        <time>2019-08-14T07:04:40Z</time>
      </trkpt>
      <trkpt lat="40.6572000" lon="-4.6873950">
        <ele>1127.1</ele>
        <time>2019-08-14T07:04:41Z</time>
      </trkpt>
      <trkpt lat="40.6571880" lon="-4.6874600">
        <ele>1126.9</ele>
        <time>2019-08-14T07:04:42Z</time>
      </trkpt>
      <trkpt lat="40.6571770" lon="-4.6875230">
        <ele>1126.6</ele>
        <time>2019-08-14T07:04:43Z</time>
      </trkpt>
      <trkpt lat="40.6571670" lon="-4.6875850">
        <ele>1126.4</ele>
        <time>2019-08-14T07:04:44Z</time>
      </trkpt>
      <trkpt lat="40.6571570" lon="-4.6876480">
        <ele>1126.2</ele>
        <time>2019-08-14T07:04:45Z</time>
      </trkpt>
      <trkpt lat="40.6571470" lon="-4.6877090">
        <ele>1126.1</ele>
        <time>2019-08-14T07:04:46Z</time>
      </trkpt>
      <trkpt lat="40.6571350" lon="-4.6877680">
        <ele>1126.0</ele>
        <time>2019-08-14T07:04:47Z</time>
      </trkpt>
      <trkpt lat="40.6571230" lon="-4.6878250">
        <ele>1125.9</ele>
        <time>2019-08-14T07:04:48Z</time>
      </trkpt>
      <trkpt lat="40.6571120" lon="-4.6878810">
        <ele>1125.9</ele>
        <time>2019-08-14T07:04:49Z</time>
      </trkpt>
      <trkpt lat="40.6571030" lon="-4.6879340">
        <ele>1125.9</ele>
        <time>2019-08-14T07:04:50Z</time>
      </trkpt>
      <trkpt lat="40.6570940" lon="-4.6879870">
        <ele>1125.9</ele>
        <time>2019-08-14T07:04:51Z</time>
      </trkpt>
      <trkpt lat="40.6570850" lon="-4.6880380">
        <ele>1125.9</ele>
        <time>2019-08-14T07:04:52Z</time>
      </trkpt>
      <trkpt lat="40.6570760" lon="-4.6880910">
        <ele>1125.9</ele>
        <time>2019-08-14T07:04:53Z</time>
      </trkpt>
      <trkpt lat="40.6570700" lon="-4.6881440">
        <ele>1125.8</ele>
        <time>2019-08-14T07:04:54Z</time>
      </trkpt>
      <trkpt lat="40.6570670" lon="-4.6882020">
        <ele>1125.7</ele>
        <time>2019-08-14T07:04:55Z</time>
      </trkpt>
      <trkpt lat="40.6570680" lon="-4.6882650">
        <ele>1125.6</ele>
        <time>2019-08-14T07:04:56Z</time>
      </trkpt>
      <trkpt lat="40.6570740" lon="-4.6883270">
        <ele>1125.5</ele>
        <time>2019-08-14T07:04:57Z</time>
      </trkpt>
      <trkpt lat="40.6570780" lon="-4.6883930">
        <ele>1125.4</ele>
        <time>2019-08-14T07:04:58Z</time>
      </trkpt>
      <trkpt lat="40.6570790" lon="-4.6884590">
        <ele>1125.3</ele>
        <time>2019-08-14T07:04:59Z</time>
      </trkpt>
      <trkpt lat="40.6570800" lon="-4.6885260">
        <ele>1125.3</ele>
        <time>2019-08-14T07:05:00Z</time>
      </trkpt>
      <trkpt lat="40.6570810" lon="-4.6885890">
        <ele>1125.2</ele>
        <time>2019-08-14T07:05:01Z</time>
      </trkpt>
      <trkpt lat="40.6570830" lon="-4.6886550">
        <ele>1125.2</ele>
        <time>2019-08-14T07:05:02Z</time>
      </trkpt>
      <trkpt lat="40.6570840" lon="-4.6887180">
        <ele>1125.1</ele>
        <time>2019-08-14T07:05:03Z</time>
      </trkpt>
      <trkpt lat="40.6570860" lon="-4.6887820">
        <ele>1125.1</ele>
        <time>2019-08-14T07:05:04Z</time>
      </trkpt>
      <trkpt lat="40.6570890" lon="-4.6888460">
        <ele>1125.0</ele>
        <time>2019-08-14T07:05:05Z</time>
      </trkpt>
      <trkpt lat="40.6570920" lon="-4.6889100">
        <ele>1124.9</ele>
        <time>2019-08-14T07:05:06Z</time>
      </trkpt>
      <trkpt lat="40.6570980" lon="-4.6889720">
        <ele>1124.8</ele>
        <time>2019-08-14T07:05:07Z</time>
      </trkpt>
      <trkpt lat="40.6571060" lon="-4.6890310">
        <ele>1124.7</ele>
        <time>2019-08-14T07:05:08Z</time>
      </trkpt>
      <trkpt lat="40.6571160" lon="-4.6890890">
        <ele>1124.5</ele>
        <time>2019-08-14T07:05:09Z</time>
      </trkpt>
      <trkpt lat="40.6571280" lon="-4.6891460">
        <ele>1124.3</ele>
        <time>2019-08-14T07:05:10Z</time>
      </trkpt>
      <trkpt lat="40.6571400" lon="-4.6892010">
        <ele>1124.2</ele>
        <time>2019-08-14T07:05:11Z</time>
      </trkpt>
      <trkpt lat="40.6571530" lon="-4.6892500">
        <ele>1124.0</ele>
        <time>2019-08-14T07:05:12Z</time>
      </trkpt>
      <trkpt lat="40.6571660" lon="-4.6892980">
        <ele>1123.9</ele>
        <time>2019-08-14T07:05:13Z</time>
      </trkpt>
      <trkpt lat="40.6571780" lon="-4.6893520">
        <ele>1123.8</ele>
        <time>2019-08-14T07:05:14Z</time>
      </trkpt>
      <trkpt lat="40.6571940" lon="-4.6894090">
        <ele>1123.6</ele>
        <time>2019-08-14T07:05:15Z</time>
      </trkpt>
      <trkpt lat="40.6572110" lon="-4.6894680">
        <ele>1123.4</ele>
        <time>2019-08-14T07:05:16Z</time>
      </trkpt>
      <trkpt lat="40.6572310" lon="-4.6895290">
        <ele>1123.3</ele>
        <time>2019-08-14T07:05:17Z</time>
      </trkpt>
      <trkpt lat="40.6572500" lon="-4.6895940">
        <ele>1123.1</ele>
        <time>2019-08-14T07:05:18Z</time>
      </trkpt>
      <trkpt lat="40.6572700" lon="-4.6896620">
        <ele>1122.8</ele>
        <time>2019-08-14T07:05:19Z</time>
      </trkpt>
      <trkpt lat="40.6572870" lon="-4.6897310">
        <ele>1122.6</ele>
        <time>2019-08-14T07:05:20Z</time>
      </trkpt>
      <trkpt lat="40.6573070" lon="-4.6898010">
        <ele>1122.5</ele>
        <time>2019-08-14T07:05:21Z</time>
      </trkpt>
      <trkpt lat="40.6573290" lon="-4.6898700">
        <ele>1122.3</ele>
        <time>2019-08-14T07:05:22Z</time>
      </trkpt>
      <trkpt lat="40.6573520" lon="-4.6899390">
        <ele>1122.2</ele>
        <time>2019-08-14T07:05:23Z</time>
      </trkpt>
      <trkpt lat="40.6573740" lon="-4.6900070">
        <ele>1122.1</ele>
        <time>2019-08-14T07:05:24Z</time>
      </trkpt>
      <trkpt lat="40.6573970" lon="-4.6900760">
        <ele>1121.9</ele>
        <time>2019-08-14T07:05:25Z</time>
      </trkpt>
      <trkpt lat="40.6574210" lon="-4.6901430">
        <ele>1121.8</ele>
        <time>2019-08-14T07:05:26Z</time>
      </trkpt>
      <trkpt lat="40.6574460" lon="-4.6902120">
        <ele>1121.6</ele>
        <time>2019-08-14T07:05:27Z</time>
      </trkpt>
      <trkpt lat="40.6574710" lon="-4.6902820">
        <ele>1121.3</ele>
        <time>2019-08-14T07:05:28Z</time>
      </trkpt>
      <trkpt lat="40.6574960" lon="-4.6903530">
        <ele>1121.7</ele>
        <time>2019-08-14T07:05:29Z</time>
      </trkpt>
      <trkpt lat="40.6575200" lon="-4.6904240">
        <ele>1122.0</ele>
        <time>2019-08-14T07:05:30Z</time>
      </trkpt>
      <trkpt lat="40.6575440" lon="-4.6904950">
        <ele>1122.3</ele>
        <time>2019-08-14T07:05:31Z</time>
      </trkpt>
      <trkpt lat="40.6575680" lon="-4.6905660">
        <ele>1122.6</ele>
        <time>2019-08-14T07:05:32Z</time>
      </trkpt>
      <trkpt lat="40.6575910" lon="-4.6906360">
        <ele>1122.7</ele>
        <time>2019-08-14T07:05:33Z</time>
      </trkpt>
      <trkpt lat="40.6576110" lon="-4.6907070">
        <ele>1122.8</ele>
        <time>2019-08-14T07:05:34Z</time>
      </trkpt>
      <trkpt lat="40.6576310" lon="-4.6907790">
        <ele>1122.8</ele>
        <time>2019-08-14T07:05:35Z</time>
      </trkpt>
      <trkpt lat="40.6576500" lon="-4.6908510">
        <ele>1122.8</ele>
        <time>2019-08-14T07:05:36Z</time>
      </trkpt>
      <trkpt lat="40.6576680" lon="-4.6909220">
        <ele>1122.8</ele>
        <time>2019-08-14T07:05:37Z</time>
      </trkpt>
      <trkpt lat="40.6576850" lon="-4.6909930">
        <ele>1122.8</ele>
        <time>2019-08-14T07:05:38Z</time>
      </trkpt>
      <trkpt lat="40.6577000" lon="-4.6910670">
        <ele>1122.8</ele>
        <time>2019-08-14T07:05:39Z</time>
      </trkpt>
      <trkpt lat="40.6577130" lon="-4.6911400">
        <ele>1122.8</ele>
        <time>2019-08-14T07:05:40Z</time>
      </trkpt>
      <trkpt lat="40.6577240" lon="-4.6912130">
        <ele>1122.8</ele>
        <time>2019-08-14T07:05:41Z</time>
      </trkpt>
      <trkpt lat="40.6577360" lon="-4.6912830">
        <ele>1122.9</ele>
        <time>2019-08-14T07:05:42Z</time>
      </trkpt>
      <trkpt lat="40.6577470" lon="-4.6913500">
        <ele>1123.0</ele>
        <time>2019-08-14T07:05:43Z</time>
      </trkpt>
      <trkpt lat="40.6577560" lon="-4.6914130">
        <ele>1123.1</ele>
        <time>2019-08-14T07:05:44Z</time>
      </trkpt>
      <trkpt lat="40.6577640" lon="-4.6914710">
        <ele>1123.2</ele>
        <time>2019-08-14T07:05:45Z</time>
      </trkpt>
      <trkpt lat="40.6577740" lon="-4.6915220">
        <ele>1123.3</ele>
        <time>2019-08-14T07:05:46Z</time>
      </trkpt>
      <trkpt lat="40.6577900" lon="-4.6915660">
        <ele>1123.4</ele>
        <time>2019-08-14T07:05:47Z</time>
      </trkpt>
      <trkpt lat="40.6578130" lon="-4.6916010">
        <ele>1123.5</ele>
        <time>2019-08-14T07:05:48Z</time>
      </trkpt>
      <trkpt lat="40.6578380" lon="-4.6916320">
        <ele>1123.6</ele>
        <time>2019-08-14T07:05:49Z</time>
      </trkpt>
      <trkpt lat="40.6578620" lon="-4.6916620">
        <ele>1123.7</ele>
        <time>2019-08-14T07:05:50Z</time>
      </trkpt>
      <trkpt lat="40.6578830" lon="-4.6916930">
        <ele>1123.7</ele>
        <time>2019-08-14T07:05:51Z</time>
      </trkpt>
      <trkpt lat="40.6579020" lon="-4.6917260">
        <ele>1123.8</ele>
        <time>2019-08-14T07:05:52Z</time>
      </trkpt>
      <trkpt lat="40.6579180" lon="-4.6917600">
        <ele>1123.9</ele>
        <time>2019-08-14T07:05:53Z</time>
      </trkpt>
      <trkpt lat="40.6579300" lon="-4.6917910">
        <ele>1123.9</ele>
        <time>2019-08-14T07:05:54Z</time>
      </trkpt>
      <trkpt lat="40.6579460" lon="-4.6918530">
        <ele>1124.0</ele>
        <time>2019-08-14T07:05:56Z</time>
      </trkpt>
      <trkpt lat="40.6579500" lon="-4.6918890">
        <ele>1124.1</ele>
        <time>2019-08-14T07:05:57Z</time>
      </trkpt>
      <trkpt lat="40.6579540" lon="-4.6919250">
        <ele>1124.1</ele>
        <time>2019-08-14T07:05:58Z</time>
      </trkpt>
      <trkpt lat="40.6579360" lon="-4.6919620">
        <ele>1124.5</ele>
        <time>2019-08-14T07:05:59Z</time>
      </trkpt>
      <trkpt lat="40.6579170" lon="-4.6920090">
        <ele>1124.5</ele>
        <time>2019-08-14T07:06:01Z</time>
      </trkpt>
      <trkpt lat="40.6578960" lon="-4.6920150">
        <ele>1124.5</ele>
        <time>2019-08-14T07:06:08Z</time>
      </trkpt>
      <trkpt lat="40.6578840" lon="-4.6919390">
        <ele>1124.5</ele>
        <time>2019-08-14T07:06:21Z</time>
      </trkpt>
      <trkpt lat="40.6578870" lon="-4.6918980">
        <ele>1124.5</ele>
        <time>2019-08-14T07:06:25Z</time>
      </trkpt>
      <trkpt lat="40.6578660" lon="-4.6918740">
        <ele>1124.5</ele>
        <time>2019-08-14T07:06:31Z</time>
      </trkpt>
      <trkpt lat="40.6578400" lon="-4.6918940">
        <ele>1124.5</ele>
        <time>2019-08-14T07:06:36Z</time>
      </trkpt>
      <trkpt lat="40.6578810" lon="-4.6919580">
        <ele>1124.5</ele>
        <time>2019-08-14T07:07:12Z</time>
      </trkpt>
      <trkpt lat="40.6578920" lon="-4.6919940">
        <ele>1124.5</ele>
        <time>2019-08-14T07:07:14Z</time>
      </trkpt>
      <trkpt lat="40.6578910" lon="-4.6920300">
        <ele>1124.5</ele>
        <time>2019-08-14T07:07:16Z</time>
      </trkpt>
      <trkpt lat="40.6578780" lon="-4.6920580">
        <ele>1124.5</ele>
        <time>2019-08-14T07:07:19Z</time>
      </trkpt>
      <trkpt lat="40.6578870" lon="-4.6920310">
        <ele>1124.5</ele>
        <time>2019-08-14T07:07:23Z</time>
      </trkpt>
      <trkpt lat="40.6578920" lon="-4.6920100">
        <ele>1124.5</ele>
        <time>2019-08-14T07:07:28Z</time>
      </trkpt>
      <trkpt lat="40.6578880" lon="-4.6920080">
        <ele>1124.5</ele>
        <time>2019-08-14T07:07:37Z</time>
      </trkpt>
      <trkpt lat="40.6579340" lon="-4.6921220">
        <ele>1124.9</ele>
        <time>2019-08-14T07:12:29Z</time>
      </trkpt>
      <trkpt lat="40.6579550" lon="-4.6921870">
        <ele>1124.7</ele>
        <time>2019-08-14T07:12:31Z</time>
      </trkpt>
      <trkpt lat="40.6579650" lon="-4.6922240">
        <ele>1124.7</ele>
        <time>2019-08-14T07:12:32Z</time>
      </trkpt>
      <trkpt lat="40.6579740" lon="-4.6922650">
        <ele>1124.7</ele>
        <time>2019-08-14T07:12:33Z</time>
      </trkpt>
      <trkpt lat="40.6579820" lon="-4.6923080">
        <ele>1124.7</ele>
        <time>2019-08-14T07:12:34Z</time>
      </trkpt>
      <trkpt lat="40.6579870" lon="-4.6923540">
        <ele>1124.7</ele>
        <time>2019-08-14T07:12:35Z</time>
      </trkpt>
      <trkpt lat="40.6579880" lon="-4.6924060">
        <ele>1124.9</ele>
        <time>2019-08-14T07:12:36Z</time>
      </trkpt>
      <trkpt lat="40.6579860" lon="-4.6924580">
        <ele>1125.0</ele>
        <time>2019-08-14T07:12:37Z</time>
      </trkpt>
      <trkpt lat="40.6579790" lon="-4.6925090">
        <ele>1125.2</ele>
        <time>2019-08-14T07:12:38Z</time>
      </trkpt>
      <trkpt lat="40.6579700" lon="-4.6925580">
        <ele>1125.4</ele>
        <time>2019-08-14T07:12:39Z</time>
      </trkpt>
      <trkpt lat="40.6579610" lon="-4.6926080">
        <ele>1125.7</ele>
        <time>2019-08-14T07:12:40Z</time>
      </trkpt>
      <trkpt lat="40.6579530" lon="-4.6926540">
        <ele>1125.8</ele>
        <time>2019-08-14T07:12:41Z</time>
      </trkpt>
      <trkpt lat="40.6579460" lon="-4.6927000">
        <ele>1125.9</ele>
        <time>2019-08-14T07:12:42Z</time>
      </trkpt>
      <trkpt lat="40.6579390" lon="-4.6927480">
        <ele>1126.1</ele>
        <time>2019-08-14T07:12:43Z</time>
      </trkpt>
      <trkpt lat="40.6579360" lon="-4.6927950">
        <ele>1126.2</ele>
        <time>2019-08-14T07:12:44Z</time>
      </trkpt>
      <trkpt lat="40.6579330" lon="-4.6928440">
        <ele>1126.4</ele>
        <time>2019-08-14T07:12:45Z</time>
      </trkpt>
      <trkpt lat="40.6579330" lon="-4.6928940">
        <ele>1126.5</ele>
        <time>2019-08-14T07:12:46Z</time>
      </trkpt>
      <trkpt lat="40.6579340" lon="-4.6929460">
        <ele>1126.6</ele>
        <time>2019-08-14T07:12:47Z</time>
      </trkpt>
      <trkpt lat="40.6579360" lon="-4.6929970">
        <ele>1126.8</ele>
        <time>2019-08-14T07:12:48Z</time>
      </trkpt>
      <trkpt lat="40.6579380" lon="-4.6930500">
        <ele>1126.9</ele>
        <time>2019-08-14T07:12:49Z</time>
      </trkpt>
      <trkpt lat="40.6579410" lon="-4.6931030">
        <ele>1126.9</ele>
        <time>2019-08-14T07:12:50Z</time>
      </trkpt>
      <trkpt lat="40.6579440" lon="-4.6931550">
        <ele>1126.9</ele>
        <time>2019-08-14T07:12:51Z</time>
      </trkpt>
      <trkpt lat="40.6579460" lon="-4.6932070">
        <ele>1126.9</ele>
        <time>2019-08-14T07:12:52Z</time>
      </trkpt>
      <trkpt lat="40.6579470" lon="-4.6932590">
        <ele>1126.8</ele>
        <time>2019-08-14T07:12:53Z</time>
      </trkpt>
      <trkpt lat="40.6579470" lon="-4.6933120">
        <ele>1126.8</ele>
        <time>2019-08-14T07:12:54Z</time>
      </trkpt>
      <trkpt lat="40.6579490" lon="-4.6933670">
        <ele>1126.7</ele>
        <time>2019-08-14T07:12:55Z</time>
      </trkpt>
      <trkpt lat="40.6579540" lon="-4.6934190">
        <ele>1126.7</ele>
        <time>2019-08-14T07:12:56Z</time>
      </trkpt>
      <trkpt lat="40.6579570" lon="-4.6934710">
        <ele>1126.6</ele>
        <time>2019-08-14T07:12:57Z</time>
      </trkpt>
      <trkpt lat="40.6579610" lon="-4.6935230">
        <ele>1126.4</ele>
        <time>2019-08-14T07:12:58Z</time>
      </trkpt>
      <trkpt lat="40.6579670" lon="-4.6935770">
        <ele>1126.2</ele>
        <time>2019-08-14T07:12:59Z</time>
      </trkpt>
      <trkpt lat="40.6579700" lon="-4.6936310">
        <ele>1126.0</ele>
        <time>2019-08-14T07:13:00Z</time>
      </trkpt>
      <trkpt lat="40.6579720" lon="-4.6936850">
        <ele>1125.8</ele>
        <time>2019-08-14T07:13:01Z</time>
      </trkpt>
      <trkpt lat="40.6579710" lon="-4.6937390">
        <ele>1125.6</ele>
        <time>2019-08-14T07:13:02Z</time>
      </trkpt>
      <trkpt lat="40.6579700" lon="-4.6937940">
        <ele>1125.4</ele>
        <time>2019-08-14T07:13:03Z</time>
      </trkpt>
      <trkpt lat="40.6579680" lon="-4.6938520">
        <ele>1125.3</ele>
        <time>2019-08-14T07:13:04Z</time>
      </trkpt>
      <trkpt lat="40.6579670" lon="-4.6939130">
        <ele>1125.2</ele>
        <time>2019-08-14T07:13:05Z</time>
      </trkpt>
      <trkpt lat="40.6579640" lon="-4.6939710">
        <ele>1125.1</ele>
        <time>2019-08-14T07:13:06Z</time>
      </trkpt>
      <trkpt lat="40.6579580" lon="-4.6940260">
        <ele>1125.0</ele>
        <time>2019-08-14T07:13:07Z</time>
      </trkpt>
      <trkpt lat="40.6579540" lon="-4.6940840">
        <ele>1124.7</ele>
        <time>2019-08-14T07:13:08Z</time>
      </trkpt>
      <trkpt lat="40.6579500" lon="-4.6941400">
        <ele>1124.4</ele>
        <time>2019-08-14T07:13:09Z</time>
      </trkpt>
      <trkpt lat="40.6579470" lon="-4.6941970">
        <ele>1123.9</ele>
        <time>2019-08-14T07:13:10Z</time>
      </trkpt>
      <trkpt lat="40.6579460" lon="-4.6942540">
        <ele>1123.4</ele>
        <time>2019-08-14T07:13:11Z</time>
      </trkpt>
      <trkpt lat="40.6579480" lon="-4.6943100">
        <ele>1122.9</ele>
        <time>2019-08-14T07:13:12Z</time>
      </trkpt>
      <trkpt lat="40.6579530" lon="-4.6943670">
        <ele>1122.6</ele>
        <time>2019-08-14T07:13:13Z</time>
      </trkpt>
      <trkpt lat="40.6579590" lon="-4.6944270">
        <ele>1122.3</ele>
        <time>2019-08-14T07:13:14Z</time>
      </trkpt>
      <trkpt lat="40.6579630" lon="-4.6944860">
        <ele>1122.1</ele>
        <time>2019-08-14T07:13:15Z</time>
      </trkpt>
      <trkpt lat="40.6579690" lon="-4.6945420">
        <ele>1121.8</ele>
        <time>2019-08-14T07:13:16Z</time>
      </trkpt>
      <trkpt lat="40.6579760" lon="-4.6945960">
        <ele>1121.6</ele>
        <time>2019-08-14T07:13:17Z</time>
      </trkpt>
      <trkpt lat="40.6579840" lon="-4.6946510">
        <ele>1121.3</ele>
        <time>2019-08-14T07:13:18Z</time>
      </trkpt>
      <trkpt lat="40.6579940" lon="-4.6947070">
        <ele>1121.3</ele>
        <time>2019-08-14T07:13:19Z</time>
      </trkpt>
      <trkpt lat="40.6580020" lon="-4.6947610">
        <ele>1121.3</ele>
        <time>2019-08-14T07:13:20Z</time>
      </trkpt>
      <trkpt lat="40.6580100" lon="-4.6948160">
        <ele>1121.3</ele>
        <time>2019-08-14T07:13:21Z</time>
      </trkpt>
      <trkpt lat="40.6580190" lon="-4.6948710">
        <ele>1121.2</ele>
        <time>2019-08-14T07:13:22Z</time>
      </trkpt>
      <trkpt lat="40.6580270" lon="-4.6949270">
        <ele>1121.2</ele>
        <time>2019-08-14T07:13:23Z</time>
      </trkpt>
      <trkpt lat="40.6580360" lon="-4.6949830">
        <ele>1121.1</ele>
        <time>2019-08-14T07:13:24Z</time>
      </trkpt>
      <trkpt lat="40.6580470" lon="-4.6950350">
        <ele>1121.0</ele>
        <time>2019-08-14T07:13:25Z</time>
      </trkpt>
      <trkpt lat="40.6580590" lon="-4.6950910">
        <ele>1120.8</ele>
        <time>2019-08-14T07:13:26Z</time>
      </trkpt>
      <trkpt lat="40.6580760" lon="-4.6951430">
        <ele>1120.5</ele>
        <time>2019-08-14T07:13:27Z</time>
      </trkpt>
      <trkpt lat="40.6580930" lon="-4.6951980">
        <ele>1120.3</ele>
        <time>2019-08-14T07:13:28Z</time>
      </trkpt>
      <trkpt lat="40.6581100" lon="-4.6952540">
        <ele>1120.0</ele>
        <time>2019-08-14T07:13:29Z</time>
      </trkpt>
      <trkpt lat="40.6581260" lon="-4.6953120">
        <ele>1119.7</ele>
        <time>2019-08-14T07:13:30Z</time>
      </trkpt>
      <trkpt lat="40.6581410" lon="-4.6953730">
        <ele>1119.6</ele>
        <time>2019-08-14T07:13:31Z</time>
      </trkpt>
      <trkpt lat="40.6581580" lon="-4.6954350">
        <ele>1119.4</ele>
        <time>2019-08-14T07:13:32Z</time>
      </trkpt>
      <trkpt lat="40.6581760" lon="-4.6954940">
        <ele>1119.3</ele>
        <time>2019-08-14T07:13:33Z</time>
      </trkpt>
      <trkpt lat="40.6581940" lon="-4.6955520">
        <ele>1119.2</ele>
        <time>2019-08-14T07:13:34Z</time>
      </trkpt>
      <trkpt lat="40.6582120" lon="-4.6956110">
        <ele>1119.1</ele>
        <time>2019-08-14T07:13:35Z</time>
      </trkpt>
      <trkpt lat="40.6582300" lon="-4.6956710">
        <ele>1119.0</ele>
        <time>2019-08-14T07:13:36Z</time>
      </trkpt>
      <trkpt lat="40.6582450" lon="-4.6957310">
        <ele>1118.8</ele>
        <time>2019-08-14T07:13:37Z</time>
      </trkpt>
      <trkpt lat="40.6582630" lon="-4.6957920">
        <ele>1118.7</ele>
        <time>2019-08-14T07:13:38Z</time>
      </trkpt>
      <trkpt lat="40.6582790" lon="-4.6958530">
        <ele>1118.4</ele>
        <time>2019-08-14T07:13:39Z</time>
      </trkpt>
      <trkpt lat="40.6582960" lon="-4.6959170">
        <ele>1118.0</ele>
        <time>2019-08-14T07:13:40Z</time>
      </trkpt>
      <trkpt lat="40.6583130" lon="-4.6959790">
        <ele>1117.6</ele>
        <time>2019-08-14T07:13:41Z</time>
      </trkpt>
      <trkpt lat="40.6583300" lon="-4.6960430">
        <ele>1117.3</ele>
        <time>2019-08-14T07:13:42Z</time>
      </trkpt>
      <trkpt lat="40.6583470" lon="-4.6961080">
        <ele>1116.9</ele>
        <time>2019-08-14T07:13:43Z</time>
      </trkpt>
      <trkpt lat="40.6583630" lon="-4.6961750">
        <ele>1116.4</ele>
        <time>2019-08-14T07:13:44Z</time>
      </trkpt>
      <trkpt lat="40.6583790" lon="-4.6962390">
        <ele>1116.1</ele>
        <time>2019-08-14T07:13:45Z</time>
      </trkpt>
      <trkpt lat="40.6583950" lon="-4.6963010">
        <ele>1115.7</ele>
        <time>2019-08-14T07:13:46Z</time>
      </trkpt>
      <trkpt lat="40.6584100" lon="-4.6963590">
        <ele>1115.4</ele>
        <time>2019-08-14T07:13:47Z</time>
      </trkpt>
      <trkpt lat="40.6584270" lon="-4.6964140">
        <ele>1115.1</ele>
        <time>2019-08-14T07:13:48Z</time>
      </trkpt>
      <trkpt lat="40.6584430" lon="-4.6964660">
        <ele>1114.8</ele>
        <time>2019-08-14T07:13:49Z</time>
      </trkpt>
      <trkpt lat="40.6584580" lon="-4.6965200">
        <ele>1114.5</ele>
        <time>2019-08-14T07:13:50Z</time>
      </trkpt>
      <trkpt lat="40.6584730" lon="-4.6965750">
        <ele>1114.2</ele>
        <time>2019-08-14T07:13:51Z</time>
      </trkpt>
      <trkpt lat="40.6584880" lon="-4.6966320">
        <ele>1113.9</ele>
        <time>2019-08-14T07:13:52Z</time>
      </trkpt>
      <trkpt lat="40.6585030" lon="-4.6966880">
        <ele>1113.6</ele>
        <time>2019-08-14T07:13:53Z</time>
      </trkpt>
      <trkpt lat="40.6585180" lon="-4.6967460">
        <ele>1112.2</ele>
        <time>2019-08-14T07:13:54Z</time>
      </trkpt>
      <trkpt lat="40.6585330" lon="-4.6968050">
        <ele>1111.5</ele>
        <time>2019-08-14T07:13:55Z</time>
      </trkpt>
      <trkpt lat="40.6585520" lon="-4.6968620">
        <ele>1111.1</ele>
        <time>2019-08-14T07:13:56Z</time>
      </trkpt>
      <trkpt lat="40.6585690" lon="-4.6969200">
        <ele>1110.8</ele>
        <time>2019-08-14T07:13:57Z</time>
      </trkpt>
      <trkpt lat="40.6585880" lon="-4.6969780">
        <ele>1110.7</ele>
        <time>2019-08-14T07:13:58Z</time>
      </trkpt>
      <trkpt lat="40.6586040" lon="-4.6970380">
        <ele>1110.6</ele>
        <time>2019-08-14T07:13:59Z</time>
      </trkpt>
      <trkpt lat="40.6586210" lon="-4.6970970">
        <ele>1110.5</ele>
        <time>2019-08-14T07:14:00Z</time>
      </trkpt>
      <trkpt lat="40.6586370" lon="-4.6971570">
        <ele>1110.5</ele>
        <time>2019-08-14T07:14:01Z</time>
      </trkpt>
      <trkpt lat="40.6586530" lon="-4.6972180">
        <ele>1110.5</ele>
        <time>2019-08-14T07:14:02Z</time>
      </trkpt>
      <trkpt lat="40.6586660" lon="-4.6972800">
        <ele>1110.5</ele>
        <time>2019-08-14T07:14:03Z</time>
      </trkpt>
      <trkpt lat="40.6586760" lon="-4.6973380">
        <ele>1110.4</ele>
        <time>2019-08-14T07:14:04Z</time>
      </trkpt>
      <trkpt lat="40.6586830" lon="-4.6973940">
        <ele>1110.2</ele>
        <time>2019-08-14T07:14:05Z</time>
      </trkpt>
      <trkpt lat="40.6586880" lon="-4.6974510">
        <ele>1110.1</ele>
        <time>2019-08-14T07:14:06Z</time>
      </trkpt>
      <trkpt lat="40.6586930" lon="-4.6975080">
        <ele>1110.1</ele>
        <time>2019-08-14T07:14:07Z</time>
      </trkpt>
      <trkpt lat="40.6586960" lon="-4.6975690">
        <ele>1110.1</ele>
        <time>2019-08-14T07:14:08Z</time>
      </trkpt>
      <trkpt lat="40.6586990" lon="-4.6976310">
        <ele>1110.2</ele>
        <time>2019-08-14T07:14:09Z</time>
      </trkpt>
      <trkpt lat="40.6586990" lon="-4.6976970">
        <ele>1110.3</ele>
        <time>2019-08-14T07:14:10Z</time>
      </trkpt>
      <trkpt lat="40.6586990" lon="-4.6977650">
        <ele>1110.3</ele>
        <time>2019-08-14T07:14:11Z</time>
      </trkpt>
      <trkpt lat="40.6586960" lon="-4.6978360">
        <ele>1110.4</ele>
        <time>2019-08-14T07:14:12Z</time>
      </trkpt>
      <trkpt lat="40.6586920" lon="-4.6979080">
        <ele>1110.4</ele>
        <time>2019-08-14T07:14:13Z</time>
      </trkpt>
      <trkpt lat="40.6586900" lon="-4.6979840">
        <ele>1110.4</ele>
        <time>2019-08-14T07:14:14Z</time>
      </trkpt>
      <trkpt lat="40.6586880" lon="-4.6980630">
        <ele>1110.1</ele>
        <time>2019-08-14T07:14:15Z</time>
      </trkpt>
      <trkpt lat="40.6586850" lon="-4.6981460">
        <ele>1109.8</ele>
        <time>2019-08-14T07:14:16Z</time>
      </trkpt>
      <trkpt lat="40.6586870" lon="-4.6982300">
        <ele>1109.5</ele>
        <time>2019-08-14T07:14:17Z</time>
      </trkpt>
      <trkpt lat="40.6586920" lon="-4.6983180">
        <ele>1109.3</ele>
        <time>2019-08-14T07:14:18Z</time>
      </trkpt>
      <trkpt lat="40.6587010" lon="-4.6984050">
        <ele>1109.0</ele>
        <time>2019-08-14T07:14:19Z</time>
      </trkpt>
      <trkpt lat="40.6587160" lon="-4.6984940">
        <ele>1108.6</ele>
        <time>2019-08-14T07:14:20Z</time>
      </trkpt>
      <trkpt lat="40.6587370" lon="-4.6985850">
        <ele>1108.2</ele>
        <time>2019-08-14T07:14:21Z</time>
      </trkpt>
      <trkpt lat="40.6587590" lon="-4.6986770">
        <ele>1107.9</ele>
        <time>2019-08-14T07:14:22Z</time>
      </trkpt>
      <trkpt lat="40.6587840" lon="-4.6987730">
        <ele>1107.7</ele>
        <time>2019-08-14T07:14:23Z</time>
      </trkpt>
      <trkpt lat="40.6588070" lon="-4.6988720">
        <ele>1107.4</ele>
        <time>2019-08-14T07:14:24Z</time>
      </trkpt>
      <trkpt lat="40.6588310" lon="-4.6989720">
        <ele>1107.2</ele>
        <time>2019-08-14T07:14:25Z</time>
      </trkpt>
      <trkpt lat="40.6588540" lon="-4.6990760">
        <ele>1106.9</ele>
        <time>2019-08-14T07:14:26Z</time>
      </trkpt>
      <trkpt lat="40.6588780" lon="-4.6991770">
        <ele>1106.6</ele>
        <time>2019-08-14T07:14:27Z</time>
      </trkpt>
      <trkpt lat="40.6589020" lon="-4.6992740">
        <ele>1106.3</ele>
        <time>2019-08-14T07:14:28Z</time>
      </trkpt>
      <trkpt lat="40.6589240" lon="-4.6993620">
        <ele>1106.1</ele>
        <time>2019-08-14T07:14:29Z</time>
      </trkpt>
      <trkpt lat="40.6589420" lon="-4.6994430">
        <ele>1105.8</ele>
        <time>2019-08-14T07:14:30Z</time>
      </trkpt>
      <trkpt lat="40.6589600" lon="-4.6995190">
        <ele>1105.6</ele>
        <time>2019-08-14T07:14:31Z</time>
      </trkpt>
      <trkpt lat="40.6589760" lon="-4.6995890">
        <ele>1105.1</ele>
        <time>2019-08-14T07:14:32Z</time>
      </trkpt>
      <trkpt lat="40.6589940" lon="-4.6996540">
        <ele>1104.4</ele>
        <time>2019-08-14T07:14:33Z</time>
      </trkpt>
      <trkpt lat="40.6590170" lon="-4.6997170">
        <ele>1103.7</ele>
        <time>2019-08-14T07:14:34Z</time>
      </trkpt>
      <trkpt lat="40.6590500" lon="-4.6997760">
        <ele>1102.4</ele>
        <time>2019-08-14T07:14:35Z</time>
      </trkpt>
      <trkpt lat="40.6590860" lon="-4.6998370">
        <ele>1102.4</ele>
        <time>2019-08-14T07:14:36Z</time>
      </trkpt>
      <trkpt lat="40.6591130" lon="-4.6999030">
        <ele>1100.8</ele>
        <time>2019-08-14T07:14:37Z</time>
      </trkpt>
      <trkpt lat="40.6591250" lon="-4.6999720">
        <ele>1101.3</ele>
        <time>2019-08-14T07:14:38Z</time>
      </trkpt>
      <trkpt lat="40.6591280" lon="-4.7000390">
        <ele>1101.4</ele>
        <time>2019-08-14T07:14:39Z</time>
      </trkpt>
      <trkpt lat="40.6591270" lon="-4.7001020">
        <ele>1101.6</ele>
        <time>2019-08-14T07:14:40Z</time>
      </trkpt>
      <trkpt lat="40.6591260" lon="-4.7001590">
        <ele>1101.7</ele>
        <time>2019-08-14T07:14:41Z</time>
      </trkpt>
      <trkpt lat="40.6591270" lon="-4.7002170">
        <ele>1101.5</ele>
        <time>2019-08-14T07:14:42Z</time>
      </trkpt>
      <trkpt lat="40.6591260" lon="-4.7002790">
        <ele>1101.1</ele>
        <time>2019-08-14T07:14:43Z</time>
      </trkpt>
      <trkpt lat="40.6591240" lon="-4.7003370">
        <ele>1100.7</ele>
        <time>2019-08-14T07:14:44Z</time>
      </trkpt>
      <trkpt lat="40.6591190" lon="-4.7003900">
        <ele>1100.8</ele>
        <time>2019-08-14T07:14:45Z</time>
      </trkpt>
      <trkpt lat="40.6591040" lon="-4.7004310">
        <ele>1101.1</ele>
        <time>2019-08-14T07:14:46Z</time>
      </trkpt>
      <trkpt lat="40.6590820" lon="-4.7004550">
        <ele>1101.3</ele>
        <time>2019-08-14T07:14:47Z</time>
      </trkpt>
      <trkpt lat="40.6590440" lon="-4.7004710">
        <ele>1101.6</ele>
        <time>2019-08-14T07:14:49Z</time>
      </trkpt>
      <trkpt lat="40.6590340" lon="-4.7005060">
        <ele>1103.1</ele>
        <time>2019-08-14T07:14:58Z</time>
      </trkpt>
      <trkpt lat="40.6590320" lon="-4.7005440">
        <ele>1103.0</ele>
        <time>2019-08-14T07:15:02Z</time>
      </trkpt>
      <trkpt lat="40.6590240" lon="-4.7005800">
        <ele>1102.8</ele>
        <time>2019-08-14T07:15:06Z</time>
      </trkpt>
      <trkpt lat="40.6590180" lon="-4.7006420">
        <ele>1102.7</ele>
        <time>2019-08-14T07:16:38Z</time>
      </trkpt>
      <trkpt lat="40.6590210" lon="-4.7006810">
        <ele>1102.6</ele>
        <time>2019-08-14T07:16:39Z</time>
      </trkpt>
      <trkpt lat="40.6590240" lon="-4.7007220">
        <ele>1102.5</ele>
        <time>2019-08-14T07:16:40Z</time>
      </trkpt>
      <trkpt lat="40.6590260" lon="-4.7007680">
        <ele>1102.4</ele>
        <time>2019-08-14T07:16:41Z</time>
      </trkpt>
      <trkpt lat="40.6590280" lon="-4.7008180">
        <ele>1102.3</ele>
        <time>2019-08-14T07:16:42Z</time>
      </trkpt>
      <trkpt lat="40.6590320" lon="-4.7008700">
        <ele>1102.1</ele>
        <time>2019-08-14T07:16:43Z</time>
      </trkpt>
      <trkpt lat="40.6590360" lon="-4.7009250">
        <ele>1102.1</ele>
        <time>2019-08-14T07:16:44Z</time>
      </trkpt>
      <trkpt lat="40.6590390" lon="-4.7009810">
        <ele>1102.0</ele>
        <time>2019-08-14T07:16:45Z</time>
      </trkpt>
      <trkpt lat="40.6590420" lon="-4.7010370">
        <ele>1101.9</ele>
        <time>2019-08-14T07:16:46Z</time>
      </trkpt>
      <trkpt lat="40.6590450" lon="-4.7010940">
        <ele>1101.8</ele>
        <time>2019-08-14T07:16:47Z</time>
      </trkpt>
      <trkpt lat="40.6590490" lon="-4.7011490">
        <ele>1101.8</ele>
        <time>2019-08-14T07:16:48Z</time>
      </trkpt>
      <trkpt lat="40.6590530" lon="-4.7012050">
        <ele>1101.7</ele>
        <time>2019-08-14T07:16:49Z</time>
      </trkpt>
      <trkpt lat="40.6590580" lon="-4.7012600">
        <ele>1101.7</ele>
        <time>2019-08-14T07:16:50Z</time>
      </trkpt>
      <trkpt lat="40.6590600" lon="-4.7013140">
        <ele>1101.6</ele>
        <time>2019-08-14T07:16:51Z</time>
      </trkpt>
      <trkpt lat="40.6590640" lon="-4.7013670">
        <ele>1101.6</ele>
        <time>2019-08-14T07:16:52Z</time>
      </trkpt>
      <trkpt lat="40.6590670" lon="-4.7014190">
        <ele>1101.5</ele>
        <time>2019-08-14T07:16:53Z</time>
      </trkpt>
      <trkpt lat="40.6590720" lon="-4.7014690">
        <ele>1101.5</ele>
        <time>2019-08-14T07:16:54Z</time>
      </trkpt>
      <trkpt lat="40.6590750" lon="-4.7015210">
        <ele>1101.4</ele>
        <time>2019-08-14T07:16:55Z</time>
      </trkpt>
      <trkpt lat="40.6590790" lon="-4.7015700">
        <ele>1101.3</ele>
        <time>2019-08-14T07:16:56Z</time>
      </trkpt>
      <trkpt lat="40.6590830" lon="-4.7016170">
        <ele>1101.2</ele>
        <time>2019-08-14T07:16:57Z</time>
      </trkpt>
      <trkpt lat="40.6590850" lon="-4.7016620">
        <ele>1101.1</ele>
        <time>2019-08-14T07:16:58Z</time>
      </trkpt>
      <trkpt lat="40.6590870" lon="-4.7017060">
        <ele>1101.0</ele>
        <time>2019-08-14T07:16:59Z</time>
      </trkpt>
      <trkpt lat="40.6590890" lon="-4.7017480">
        <ele>1100.9</ele>
        <time>2019-08-14T07:17:00Z</time>
      </trkpt>
      <trkpt lat="40.6590930" lon="-4.7017890">
        <ele>1100.8</ele>
        <time>2019-08-14T07:17:01Z</time>
      </trkpt>
      <trkpt lat="40.6590950" lon="-4.7018280">
        <ele>1100.7</ele>
        <time>2019-08-14T07:17:02Z</time>
      </trkpt>
      <trkpt lat="40.6590970" lon="-4.7018660">
        <ele>1100.7</ele>
        <time>2019-08-14T07:17:03Z</time>
      </trkpt>
      <trkpt lat="40.6590970" lon="-4.7019040">
        <ele>1100.6</ele>
        <time>2019-08-14T07:17:04Z</time>
      </trkpt>
      <trkpt lat="40.6590960" lon="-4.7019430">
        <ele>1100.5</ele>
        <time>2019-08-14T07:17:05Z</time>
      </trkpt>
      <trkpt lat="40.6590920" lon="-4.7019800">
        <ele>1100.4</ele>
        <time>2019-08-14T07:17:06Z</time>
      </trkpt>
      <trkpt lat="40.6590860" lon="-4.7020150">
        <ele>1100.4</ele>
        <time>2019-08-14T07:17:07Z</time>
      </trkpt>
      <trkpt lat="40.6590620" lon="-4.7020780">
        <ele>1099.3</ele>
        <time>2019-08-14T07:17:09Z</time>
      </trkpt>
      <trkpt lat="40.6590460" lon="-4.7021100">
        <ele>1099.0</ele>
        <time>2019-08-14T07:17:10Z</time>
      </trkpt>
      <trkpt lat="40.6590340" lon="-4.7021490">
        <ele>1098.8</ele>
        <time>2019-08-14T07:17:11Z</time>
      </trkpt>
      <trkpt lat="40.6590280" lon="-4.7021910">
        <ele>1098.6</ele>
        <time>2019-08-14T07:17:12Z</time>
      </trkpt>
      <trkpt lat="40.6590290" lon="-4.7022330">
        <ele>1098.3</ele>
        <time>2019-08-14T07:17:13Z</time>
      </trkpt>
      <trkpt lat="40.6590340" lon="-4.7022770">
        <ele>1098.1</ele>
        <time>2019-08-14T07:17:14Z</time>
      </trkpt>
      <trkpt lat="40.6590420" lon="-4.7023240">
        <ele>1097.8</ele>
        <time>2019-08-14T07:17:15Z</time>
      </trkpt>
      <trkpt lat="40.6590520" lon="-4.7023760">
        <ele>1097.4</ele>
        <time>2019-08-14T07:17:16Z</time>
      </trkpt>
      <trkpt lat="40.6590630" lon="-4.7024330">
        <ele>1097.0</ele>
        <time>2019-08-14T07:17:17Z</time>
      </trkpt>
      <trkpt lat="40.6590760" lon="-4.7024920">
        <ele>1096.6</ele>
        <time>2019-08-14T07:17:18Z</time>
      </trkpt>
      <trkpt lat="40.6590920" lon="-4.7025540">
        <ele>1096.2</ele>
        <time>2019-08-14T07:17:19Z</time>
      </trkpt>
      <trkpt lat="40.6591100" lon="-4.7026160">
        <ele>1095.9</ele>
        <time>2019-08-14T07:17:20Z</time>
      </trkpt>
      <trkpt lat="40.6591280" lon="-4.7026780">
        <ele>1095.5</ele>
        <time>2019-08-14T07:17:21Z</time>
      </trkpt>
      <trkpt lat="40.6591450" lon="-4.7027340">
        <ele>1095.2</ele>
        <time>2019-08-14T07:17:22Z</time>
      </trkpt>
      <trkpt lat="40.6591600" lon="-4.7027830">
        <ele>1094.9</ele>
        <time>2019-08-14T07:17:23Z</time>
      </trkpt>
      <trkpt lat="40.6591740" lon="-4.7028270">
        <ele>1094.4</ele>
        <time>2019-08-14T07:17:24Z</time>
      </trkpt>
      <trkpt lat="40.6591860" lon="-4.7028680">
        <ele>1094.1</ele>
        <time>2019-08-14T07:17:25Z</time>
      </trkpt>
      <trkpt lat="40.6591970" lon="-4.7029100">
        <ele>1093.8</ele>
        <time>2019-08-14T07:17:26Z</time>
      </trkpt>
      <trkpt lat="40.6592120" lon="-4.7029550">
        <ele>1093.4</ele>
        <time>2019-08-14T07:17:27Z</time>
      </trkpt>
      <trkpt lat="40.6592290" lon="-4.7030000">
        <ele>1093.0</ele>
        <time>2019-08-14T07:17:28Z</time>
      </trkpt>
      <trkpt lat="40.6592500" lon="-4.7030440">
        <ele>1092.7</ele>
        <time>2019-08-14T07:17:29Z</time>
      </trkpt>
      <trkpt lat="40.6592710" lon="-4.7030890">
        <ele>1092.3</ele>
        <time>2019-08-14T07:17:30Z</time>
      </trkpt>
      <trkpt lat="40.6592910" lon="-4.7031340">
        <ele>1091.9</ele>
        <time>2019-08-14T07:17:31Z</time>
      </trkpt>
      <trkpt lat="40.6593090" lon="-4.7031780">
        <ele>1091.6</ele>
        <time>2019-08-14T07:17:32Z</time>
      </trkpt>
      <trkpt lat="40.6593280" lon="-4.7032170">
        <ele>1091.3</ele>
        <time>2019-08-14T07:17:33Z</time>
      </trkpt>
      <trkpt lat="40.6593490" lon="-4.7032550">
        <ele>1090.8</ele>
        <time>2019-08-14T07:17:34Z</time>
      </trkpt>
      <trkpt lat="40.6593730" lon="-4.7032940">
        <ele>1090.3</ele>
        <time>2019-08-14T07:17:35Z</time>
      </trkpt>
      <trkpt lat="40.6593980" lon="-4.7033380">
        <ele>1089.8</ele>
        <time>2019-08-14T07:17:36Z</time>
      </trkpt>
      <trkpt lat="40.6594230" lon="-4.7033870">
        <ele>1089.4</ele>
        <time>2019-08-14T07:17:37Z</time>
      </trkpt>
      <trkpt lat="40.6594460" lon="-4.7034400">
        <ele>1089.0</ele>
        <time>2019-08-14T07:17:38Z</time>
      </trkpt>
      <trkpt lat="40.6594680" lon="-4.7034910">
        <ele>1088.6</ele>
        <time>2019-08-14T07:17:39Z</time>
      </trkpt>
      <trkpt lat="40.6594880" lon="-4.7035380">
        <ele>1088.3</ele>
        <time>2019-08-14T07:17:40Z</time>
      </trkpt>
      <trkpt lat="40.6595030" lon="-4.7035810">
        <ele>1087.9</ele>
        <time>2019-08-14T07:17:41Z</time>
      </trkpt>
      <trkpt lat="40.6595050" lon="-4.7036240">
        <ele>1087.5</ele>
        <time>2019-08-14T07:17:42Z</time>
      </trkpt>
      <trkpt lat="40.6594990" lon="-4.7036720">
        <ele>1087.1</ele>
        <time>2019-08-14T07:17:43Z</time>
      </trkpt>
      <trkpt lat="40.6595010" lon="-4.7037220">
        <ele>1087.1</ele>
        <time>2019-08-14T07:17:44Z</time>
      </trkpt>
      <trkpt lat="40.6595140" lon="-4.7037720">
        <ele>1086.9</ele>
        <time>2019-08-14T07:17:45Z</time>
      </trkpt>
      <trkpt lat="40.6595360" lon="-4.7038240">
        <ele>1086.6</ele>
        <time>2019-08-14T07:17:46Z</time>
      </trkpt>
      <trkpt lat="40.6595630" lon="-4.7038850">
        <ele>1086.2</ele>
        <time>2019-08-14T07:17:47Z</time>
      </trkpt>
      <trkpt lat="40.6595910" lon="-4.7039520">
        <ele>1085.8</ele>
        <time>2019-08-14T07:17:48Z</time>
      </trkpt>
      <trkpt lat="40.6596170" lon="-4.7040280">
        <ele>1085.4</ele>
        <time>2019-08-14T07:17:49Z</time>
      </trkpt>
      <trkpt lat="40.6596380" lon="-4.7041050">
        <ele>1084.6</ele>
        <time>2019-08-14T07:17:50Z</time>
      </trkpt>
      <trkpt lat="40.6596540" lon="-4.7041780">
        <ele>1084.3</ele>
        <time>2019-08-14T07:17:51Z</time>
      </trkpt>
      <trkpt lat="40.6596620" lon="-4.7042460">
        <ele>1084.0</ele>
        <time>2019-08-14T07:17:52Z</time>
      </trkpt>
      <trkpt lat="40.6596660" lon="-4.7043100">
        <ele>1083.7</ele>
        <time>2019-08-14T07:17:53Z</time>
      </trkpt>
      <trkpt lat="40.6596660" lon="-4.7043690">
        <ele>1083.5</ele>
        <time>2019-08-14T07:17:54Z</time>
      </trkpt>
      <trkpt lat="40.6596650" lon="-4.7044250">
        <ele>1083.3</ele>
        <time>2019-08-14T07:17:55Z</time>
      </trkpt>
      <trkpt lat="40.6596620" lon="-4.7044830">
        <ele>1083.2</ele>
        <time>2019-08-14T07:17:56Z</time>
      </trkpt>
      <trkpt lat="40.6596590" lon="-4.7045450">
        <ele>1083.0</ele>
        <time>2019-08-14T07:17:57Z</time>
      </trkpt>
      <trkpt lat="40.6596580" lon="-4.7046070">
        <ele>1082.8</ele>
        <time>2019-08-14T07:17:58Z</time>
      </trkpt>
      <trkpt lat="40.6596550" lon="-4.7046660">
        <ele>1082.7</ele>
        <time>2019-08-14T07:17:59Z</time>
      </trkpt>
      <trkpt lat="40.6596500" lon="-4.7047250">
        <ele>1082.6</ele>
        <time>2019-08-14T07:18:00Z</time>
      </trkpt>
      <trkpt lat="40.6596450" lon="-4.7047850">
        <ele>1082.4</ele>
        <time>2019-08-14T07:18:01Z</time>
      </trkpt>
      <trkpt lat="40.6596380" lon="-4.7048430">
        <ele>1082.3</ele>
        <time>2019-08-14T07:18:02Z</time>
      </trkpt>
      <trkpt lat="40.6596310" lon="-4.7049000">
        <ele>1082.1</ele>
        <time>2019-08-14T07:18:03Z</time>
      </trkpt>
      <trkpt lat="40.6596240" lon="-4.7049560">
        <ele>1081.8</ele>
        <time>2019-08-14T07:18:04Z</time>
      </trkpt>
      <trkpt lat="40.6596160" lon="-4.7050120">
        <ele>1081.6</ele>
        <time>2019-08-14T07:18:05Z</time>
      </trkpt>
      <trkpt lat="40.6596070" lon="-4.7050670">
        <ele>1081.3</ele>
        <time>2019-08-14T07:18:06Z</time>
      </trkpt>
      <trkpt lat="40.6595960" lon="-4.7051200">
        <ele>1081.0</ele>
        <time>2019-08-14T07:18:07Z</time>
      </trkpt>
      <trkpt lat="40.6595870" lon="-4.7051710">
        <ele>1080.8</ele>
        <time>2019-08-14T07:18:08Z</time>
      </trkpt>
      <trkpt lat="40.6595760" lon="-4.7052200">
        <ele>1080.6</ele>
        <time>2019-08-14T07:18:09Z</time>
      </trkpt>
      <trkpt lat="40.6595660" lon="-4.7052660">
        <ele>1080.4</ele>
        <time>2019-08-14T07:18:10Z</time>
      </trkpt>
      <trkpt lat="40.6595590" lon="-4.7053080">
        <ele>1080.2</ele>
        <time>2019-08-14T07:18:11Z</time>
      </trkpt>
      <trkpt lat="40.6595520" lon="-4.7053450">
        <ele>1080.0</ele>
        <time>2019-08-14T07:18:12Z</time>
      </trkpt>
      <trkpt lat="40.6595460" lon="-4.7053800">
        <ele>1079.9</ele>
        <time>2019-08-14T07:18:13Z</time>
      </trkpt>
      <trkpt lat="40.6595390" lon="-4.7054140">
        <ele>1079.7</ele>
        <time>2019-08-14T07:18:14Z</time>
      </trkpt>
      <trkpt lat="40.6595280" lon="-4.7054660">
        <ele>1079.4</ele>
        <time>2019-08-14T07:18:16Z</time>
      </trkpt>
      <trkpt lat="40.6595200" lon="-4.7055080">
        <ele>1079.2</ele>
        <time>2019-08-14T07:18:20Z</time>
      </trkpt>
      <trkpt lat="40.6595110" lon="-4.7055460">
        <ele>1078.9</ele>
        <time>2019-08-14T07:18:22Z</time>
      </trkpt>
      <trkpt lat="40.6595040" lon="-4.7056250">
        <ele>1078.5</ele>
        <time>2019-08-14T07:19:12Z</time>
      </trkpt>
      <trkpt lat="40.6594960" lon="-4.7056840">
        <ele>1078.2</ele>
        <time>2019-08-14T07:19:14Z</time>
      </trkpt>
      <trkpt lat="40.6594850" lon="-4.7057410">
        <ele>1078.0</ele>
        <time>2019-08-14T07:19:16Z</time>
      </trkpt>
      <trkpt lat="40.6594740" lon="-4.7057750">
        <ele>1077.9</ele>
        <time>2019-08-14T07:19:18Z</time>
      </trkpt>
      <trkpt lat="40.6594800" lon="-4.7057990">
        <ele>1077.8</ele>
        <time>2019-08-14T07:19:25Z</time>
      </trkpt>
      <trkpt lat="40.6594430" lon="-4.7058580">
        <ele>1077.7</ele>
        <time>2019-08-14T07:20:44Z</time>
      </trkpt>
      <trkpt lat="40.6594310" lon="-4.7059080">
        <ele>1077.6</ele>
        <time>2019-08-14T07:20:46Z</time>
      </trkpt>
      <trkpt lat="40.6594180" lon="-4.7059690">
        <ele>1077.5</ele>
        <time>2019-08-14T07:20:48Z</time>
      </trkpt>
      <trkpt lat="40.6594070" lon="-4.7060060">
        <ele>1077.4</ele>
        <time>2019-08-14T07:20:49Z</time>
      </trkpt>
      <trkpt lat="40.6593960" lon="-4.7060430">
        <ele>1077.3</ele>
        <time>2019-08-14T07:20:50Z</time>
      </trkpt>
      <trkpt lat="40.6593860" lon="-4.7060830">
        <ele>1077.2</ele>
        <time>2019-08-14T07:20:51Z</time>
      </trkpt>
      <trkpt lat="40.6593770" lon="-4.7061250">
        <ele>1077.1</ele>
        <time>2019-08-14T07:20:52Z</time>
      </trkpt>
      <trkpt lat="40.6593690" lon="-4.7061690">
        <ele>1077.0</ele>
        <time>2019-08-14T07:20:53Z</time>
      </trkpt>
      <trkpt lat="40.6593580" lon="-4.7062150">
        <ele>1076.9</ele>
        <time>2019-08-14T07:20:54Z</time>
      </trkpt>
      <trkpt lat="40.6593430" lon="-4.7062630">
        <ele>1076.7</ele>
        <time>2019-08-14T07:20:55Z</time>
      </trkpt>
      <trkpt lat="40.6593240" lon="-4.7063130">
        <ele>1076.5</ele>
        <time>2019-08-14T07:20:56Z</time>
      </trkpt>
      <trkpt lat="40.6593040" lon="-4.7063620">
        <ele>1076.4</ele>
        <time>2019-08-14T07:20:57Z</time>
      </trkpt>
      <trkpt lat="40.6592810" lon="-4.7064120">
        <ele>1076.1</ele>
        <time>2019-08-14T07:20:58Z</time>
      </trkpt>
      <trkpt lat="40.6592550" lon="-4.7064610">
        <ele>1075.9</ele>
        <time>2019-08-14T07:20:59Z</time>
      </trkpt>
      <trkpt lat="40.6592260" lon="-4.7065070">
        <ele>1075.6</ele>
        <time>2019-08-14T07:21:00Z</time>
      </trkpt>
      <trkpt lat="40.6591990" lon="-4.7065480">
        <ele>1075.3</ele>
        <time>2019-08-14T07:21:01Z</time>
      </trkpt>
      <trkpt lat="40.6591760" lon="-4.7065810">
        <ele>1075.0</ele>
        <time>2019-08-14T07:21:02Z</time>
      </trkpt>
      <trkpt lat="40.6591510" lon="-4.7066300">
        <ele>1074.6</ele>
        <time>2019-08-14T07:21:04Z</time>
      </trkpt>
      <trkpt lat="40.6591620" lon="-4.7066830">
        <ele>1072.7</ele>
        <time>2019-08-14T07:21:06Z</time>
      </trkpt>
      <trkpt lat="40.6591640" lon="-4.7067190">
        <ele>1072.6</ele>
        <time>2019-08-14T07:21:07Z</time>
      </trkpt>
      <trkpt lat="40.6591510" lon="-4.7067570">
        <ele>1072.4</ele>
        <time>2019-08-14T07:21:08Z</time>
      </trkpt>
      <trkpt lat="40.6591300" lon="-4.7067920">
        <ele>1072.2</ele>
        <time>2019-08-14T07:21:09Z</time>
      </trkpt>
      <trkpt lat="40.6591050" lon="-4.7068250">
        <ele>1071.9</ele>
        <time>2019-08-14T07:21:10Z</time>
      </trkpt>
      <trkpt lat="40.6590740" lon="-4.7068560">
        <ele>1071.8</ele>
        <time>2019-08-14T07:21:11Z</time>
      </trkpt>
      <trkpt lat="40.6590410" lon="-4.7068830">
        <ele>1071.7</ele>
        <time>2019-08-14T07:21:12Z</time>
      </trkpt>
      <trkpt lat="40.6590050" lon="-4.7069070">
        <ele>1071.6</ele>
        <time>2019-08-14T07:21:13Z</time>
      </trkpt>
      <trkpt lat="40.6589650" lon="-4.7069290">
        <ele>1071.5</ele>
        <time>2019-08-14T07:21:14Z</time>
      </trkpt>
      <trkpt lat="40.6589230" lon="-4.7069500">
        <ele>1071.4</ele>
        <time>2019-08-14T07:21:15Z</time>
      </trkpt>
      <trkpt lat="40.6588810" lon="-4.7069670">
        <ele>1071.2</ele>
        <time>2019-08-14T07:21:16Z</time>
      </trkpt>
      <trkpt lat="40.6588400" lon="-4.7069850">
        <ele>1071.1</ele>
        <time>2019-08-14T07:21:17Z</time>
      </trkpt>
      <trkpt lat="40.6587980" lon="-4.7070010">
        <ele>1071.0</ele>
        <time>2019-08-14T07:21:18Z</time>
      </trkpt>
      <trkpt lat="40.6587590" lon="-4.7070170">
        <ele>1070.9</ele>
        <time>2019-08-14T07:21:19Z</time>
      </trkpt>
      <trkpt lat="40.6587230" lon="-4.7070350">
        <ele>1070.8</ele>
        <time>2019-08-14T07:21:20Z</time>
      </trkpt>
      <trkpt lat="40.6586880" lon="-4.7070510">
        <ele>1070.8</ele>
        <time>2019-08-14T07:21:21Z</time>
      </trkpt>
      <trkpt lat="40.6586490" lon="-4.7070620">
        <ele>1070.7</ele>
        <time>2019-08-14T07:21:22Z</time>
      </trkpt>
      <trkpt lat="40.6586080" lon="-4.7070750">
        <ele>1070.6</ele>
        <time>2019-08-14T07:21:23Z</time>
      </trkpt>
      <trkpt lat="40.6585690" lon="-4.7070870">
        <ele>1070.5</ele>
        <time>2019-08-14T07:21:24Z</time>
      </trkpt>
      <trkpt lat="40.6585310" lon="-4.7070970">
        <ele>1070.4</ele>
        <time>2019-08-14T07:21:25Z</time>
      </trkpt>
      <trkpt lat="40.6584950" lon="-4.7071070">
        <ele>1070.3</ele>
        <time>2019-08-14T07:21:26Z</time>
      </trkpt>
      <trkpt lat="40.6584580" lon="-4.7071200">
        <ele>1070.3</ele>
        <time>2019-08-14T07:21:27Z</time>
      </trkpt>
      <trkpt lat="40.6584210" lon="-4.7071380">
        <ele>1070.2</ele>
        <time>2019-08-14T07:21:28Z</time>
      </trkpt>
      <trkpt lat="40.6583860" lon="-4.7071590">
        <ele>1070.2</ele>
        <time>2019-08-14T07:21:29Z</time>
      </trkpt>
      <trkpt lat="40.6583490" lon="-4.7071780">
        <ele>1070.1</ele>
        <time>2019-08-14T07:21:30Z</time>
      </trkpt>
      <trkpt lat="40.6583130" lon="-4.7071980">
        <ele>1070.1</ele>
        <time>2019-08-14T07:21:31Z</time>
      </trkpt>
      <trkpt lat="40.6582730" lon="-4.7072180">
        <ele>1070.0</ele>
        <time>2019-08-14T07:21:32Z</time>
      </trkpt>
      <trkpt lat="40.6582370" lon="-4.7072370">
        <ele>1070.0</ele>
        <time>2019-08-14T07:21:33Z</time>
      </trkpt>
      <trkpt lat="40.6582000" lon="-4.7072560">
        <ele>1069.9</ele>
        <time>2019-08-14T07:21:34Z</time>
      </trkpt>
      <trkpt lat="40.6581620" lon="-4.7072750">
        <ele>1069.9</ele>
        <time>2019-08-14T07:21:35Z</time>
      </trkpt>
      <trkpt lat="40.6581270" lon="-4.7072940">
        <ele>1069.8</ele>
        <time>2019-08-14T07:21:36Z</time>
      </trkpt>
      <trkpt lat="40.6580890" lon="-4.7073130">
        <ele>1069.7</ele>
        <time>2019-08-14T07:21:37Z</time>
      </trkpt>
      <trkpt lat="40.6580500" lon="-4.7073360">
        <ele>1069.6</ele>
        <time>2019-08-14T07:21:38Z</time>
      </trkpt>
      <trkpt lat="40.6580130" lon="-4.7073560">
        <ele>1069.5</ele>
        <time>2019-08-14T07:21:39Z</time>
      </trkpt>
      <trkpt lat="40.6579760" lon="-4.7073760">
        <ele>1069.4</ele>
        <time>2019-08-14T07:21:40Z</time>
      </trkpt>
      <trkpt lat="40.6579380" lon="-4.7073990">
        <ele>1069.3</ele>
        <time>2019-08-14T07:21:41Z</time>
      </trkpt>
      <trkpt lat="40.6579000" lon="-4.7074260">
        <ele>1069.1</ele>
        <time>2019-08-14T07:21:42Z</time>
      </trkpt>
      <trkpt lat="40.6578600" lon="-4.7074490">
        <ele>1068.9</ele>
        <time>2019-08-14T07:21:43Z</time>
      </trkpt>
      <trkpt lat="40.6578180" lon="-4.7074770">
        <ele>1068.7</ele>
        <time>2019-08-14T07:21:44Z</time>
      </trkpt>
      <trkpt lat="40.6577770" lon="-4.7075000">
        <ele>1068.6</ele>
        <time>2019-08-14T07:21:45Z</time>
      </trkpt>
      <trkpt lat="40.6577380" lon="-4.7075260">
        <ele>1068.4</ele>
        <time>2019-08-14T07:21:46Z</time>
      </trkpt>
      <trkpt lat="40.6577000" lon="-4.7075510">
        <ele>1068.3</ele>
        <time>2019-08-14T07:21:47Z</time>
      </trkpt>
      <trkpt lat="40.6576660" lon="-4.7075790">
        <ele>1068.2</ele>
        <time>2019-08-14T07:21:48Z</time>
      </trkpt>
      <trkpt lat="40.6576320" lon="-4.7076160">
        <ele>1067.9</ele>
        <time>2019-08-14T07:21:49Z</time>
      </trkpt>
      <trkpt lat="40.6576100" lon="-4.7076710">
        <ele>1067.5</ele>
        <time>2019-08-14T07:21:50Z</time>
      </trkpt>
      <trkpt lat="40.6575950" lon="-4.7077380">
        <ele>1066.4</ele>
        <time>2019-08-14T07:21:51Z</time>
      </trkpt>
      <trkpt lat="40.6575630" lon="-4.7078060">
        <ele>1065.6</ele>
        <time>2019-08-14T07:21:52Z</time>
      </trkpt>
      <trkpt lat="40.6575510" lon="-4.7078890">
        <ele>1064.7</ele>
        <time>2019-08-14T07:21:53Z</time>
      </trkpt>
      <trkpt lat="40.6575400" lon="-4.7079730">
        <ele>1063.7</ele>
        <time>2019-08-14T07:21:54Z</time>
      </trkpt>
      <trkpt lat="40.6575260" lon="-4.7080590">
        <ele>1062.8</ele>
        <time>2019-08-14T07:21:55Z</time>
      </trkpt>
      <trkpt lat="40.6575130" lon="-4.7081480">
        <ele>1061.8</ele>
        <time>2019-08-14T07:21:56Z</time>
      </trkpt>
      <trkpt lat="40.6574970" lon="-4.7082420">
        <ele>1060.9</ele>
        <time>2019-08-14T07:21:57Z</time>
      </trkpt>
      <trkpt lat="40.6574830" lon="-4.7083360">
        <ele>1061.1</ele>
        <time>2019-08-14T07:21:58Z</time>
      </trkpt>
      <trkpt lat="40.6574660" lon="-4.7084350">
        <ele>1061.4</ele>
        <time>2019-08-14T07:21:59Z</time>
      </trkpt>
      <trkpt lat="40.6574500" lon="-4.7085350">
        <ele>1061.6</ele>
        <time>2019-08-14T07:22:00Z</time>
      </trkpt>
      <trkpt lat="40.6574310" lon="-4.7086330">
        <ele>1062.0</ele>
        <time>2019-08-14T07:22:01Z</time>
      </trkpt>
      <trkpt lat="40.6574140" lon="-4.7087290">
        <ele>1062.3</ele>
        <time>2019-08-14T07:22:02Z</time>
      </trkpt>
      <trkpt lat="40.6573990" lon="-4.7088230">
        <ele>1062.7</ele>
        <time>2019-08-14T07:22:03Z</time>
      </trkpt>
      <trkpt lat="40.6573840" lon="-4.7089170">
        <ele>1063.1</ele>
        <time>2019-08-14T07:22:04Z</time>
      </trkpt>
      <trkpt lat="40.6573700" lon="-4.7090040">
        <ele>1063.6</ele>
        <time>2019-08-14T07:22:05Z</time>
      </trkpt>
      <trkpt lat="40.6573590" lon="-4.7090840">
        <ele>1064.1</ele>
        <time>2019-08-14T07:22:06Z</time>
      </trkpt>
      <trkpt lat="40.6573510" lon="-4.7091580">
        <ele>1064.5</ele>
        <time>2019-08-14T07:22:07Z</time>
      </trkpt>
      <trkpt lat="40.6573500" lon="-4.7092260">
        <ele>1064.8</ele>
        <time>2019-08-14T07:22:08Z</time>
      </trkpt>
      <trkpt lat="40.6573570" lon="-4.7092910">
        <ele>1065.2</ele>
        <time>2019-08-14T07:22:09Z</time>
      </trkpt>
      <trkpt lat="40.6573690" lon="-4.7093530">
        <ele>1066.7</ele>
        <time>2019-08-14T07:22:10Z</time>
      </trkpt>
      <trkpt lat="40.6573840" lon="-4.7094100">
        <ele>1066.8</ele>
        <time>2019-08-14T07:22:11Z</time>
      </trkpt>
      <trkpt lat="40.6574040" lon="-4.7094610">
        <ele>1066.9</ele>
        <time>2019-08-14T07:22:12Z</time>
      </trkpt>
      <trkpt lat="40.6574250" lon="-4.7095080">
        <ele>1067.2</ele>
        <time>2019-08-14T07:22:13Z</time>
      </trkpt>
      <trkpt lat="40.6574460" lon="-4.7095490">
        <ele>1067.5</ele>
        <time>2019-08-14T07:22:14Z</time>
      </trkpt>
      <trkpt lat="40.6574680" lon="-4.7095840">
        <ele>1067.8</ele>
        <time>2019-08-14T07:22:15Z</time>
      </trkpt>
      <trkpt lat="40.6574910" lon="-4.7096160">
        <ele>1068.0</ele>
        <time>2019-08-14T07:22:16Z</time>
      </trkpt>
      <trkpt lat="40.6575160" lon="-4.7096450">
        <ele>1068.3</ele>
        <time>2019-08-14T07:22:17Z</time>
      </trkpt>
      <trkpt lat="40.6575400" lon="-4.7096710">
        <ele>1068.6</ele>
        <time>2019-08-14T07:22:18Z</time>
      </trkpt>
      <trkpt lat="40.6575670" lon="-4.7096970">
        <ele>1068.8</ele>
        <time>2019-08-14T07:22:19Z</time>
      </trkpt>
      <trkpt lat="40.6575940" lon="-4.7097210">
        <ele>1068.9</ele>
        <time>2019-08-14T07:22:20Z</time>
      </trkpt>
      <trkpt lat="40.6576210" lon="-4.7097470">
        <ele>1069.0</ele>
        <time>2019-08-14T07:22:21Z</time>
      </trkpt>
      <trkpt lat="40.6576490" lon="-4.7097730">
        <ele>1069.2</ele>
        <time>2019-08-14T07:22:22Z</time>
      </trkpt>
      <trkpt lat="40.6576770" lon="-4.7098020">
        <ele>1069.4</ele>
        <time>2019-08-14T07:22:23Z</time>
      </trkpt>
      <trkpt lat="40.6577050" lon="-4.7098320">
        <ele>1069.5</ele>
        <time>2019-08-14T07:22:24Z</time>
      </trkpt>
      <trkpt lat="40.6577330" lon="-4.7098600">
        <ele>1069.7</ele>
        <time>2019-08-14T07:22:25Z</time>
      </trkpt>
      <trkpt lat="40.6577600" lon="-4.7098880">
        <ele>1069.8</ele>
        <time>2019-08-14T07:22:26Z</time>
      </trkpt>
      <trkpt lat="40.6577860" lon="-4.7099160">
        <ele>1070.0</ele>
        <time>2019-08-14T07:22:27Z</time>
      </trkpt>
      <trkpt lat="40.6578110" lon="-4.7099470">
        <ele>1070.2</ele>
        <time>2019-08-14T07:22:28Z</time>
      </trkpt>
      <trkpt lat="40.6578360" lon="-4.7099790">
        <ele>1070.5</ele>
        <time>2019-08-14T07:22:29Z</time>
      </trkpt>
      <trkpt lat="40.6578600" lon="-4.7100110">
        <ele>1070.7</ele>
        <time>2019-08-14T07:22:30Z</time>
      </trkpt>
      <trkpt lat="40.6578840" lon="-4.7100450">
        <ele>1070.9</ele>
        <time>2019-08-14T07:22:31Z</time>
      </trkpt>
      <trkpt lat="40.6579070" lon="-4.7100780">
        <ele>1071.1</ele>
        <time>2019-08-14T07:22:32Z</time>
      </trkpt>
      <trkpt lat="40.6579290" lon="-4.7101130">
        <ele>1071.3</ele>
        <time>2019-08-14T07:22:33Z</time>
      </trkpt>
      <trkpt lat="40.6579510" lon="-4.7101480">
        <ele>1071.4</ele>
        <time>2019-08-14T07:22:34Z</time>
      </trkpt>
      <trkpt lat="40.6579720" lon="-4.7101850">
        <ele>1071.6</ele>
        <time>2019-08-14T07:22:35Z</time>
      </trkpt>
      <trkpt lat="40.6579910" lon="-4.7102230">
        <ele>1071.8</ele>
        <time>2019-08-14T07:22:36Z</time>
      </trkpt>
      <trkpt lat="40.6580100" lon="-4.7102600">
        <ele>1071.9</ele>
        <time>2019-08-14T07:22:37Z</time>
      </trkpt>
      <trkpt lat="40.6580290" lon="-4.7102980">
        <ele>1072.1</ele>
        <time>2019-08-14T07:22:38Z</time>
      </trkpt>
      <trkpt lat="40.6580460" lon="-4.7103360">
        <ele>1072.3</ele>
        <time>2019-08-14T07:22:39Z</time>
      </trkpt>
      <trkpt lat="40.6580630" lon="-4.7103740">
        <ele>1072.4</ele>
        <time>2019-08-14T07:22:40Z</time>
      </trkpt>
      <trkpt lat="40.6580800" lon="-4.7104140">
        <ele>1072.6</ele>
        <time>2019-08-14T07:22:41Z</time>
      </trkpt>
      <trkpt lat="40.6580990" lon="-4.7104540">
        <ele>1072.9</ele>
        <time>2019-08-14T07:22:42Z</time>
      </trkpt>
      <trkpt lat="40.6581160" lon="-4.7104930">
        <ele>1073.2</ele>
        <time>2019-08-14T07:22:43Z</time>
      </trkpt>
      <trkpt lat="40.6581330" lon="-4.7105310">
        <ele>1073.4</ele>
        <time>2019-08-14T07:22:44Z</time>
      </trkpt>
      <trkpt lat="40.6581490" lon="-4.7105690">
        <ele>1073.7</ele>
        <time>2019-08-14T07:22:45Z</time>
      </trkpt>
      <trkpt lat="40.6581620" lon="-4.7106070">
        <ele>1073.9</ele>
        <time>2019-08-14T07:22:46Z</time>
      </trkpt>
      <trkpt lat="40.6581770" lon="-4.7106420">
        <ele>1074.0</ele>
        <time>2019-08-14T07:22:47Z</time>
      </trkpt>
      <trkpt lat="40.6581930" lon="-4.7106790">
        <ele>1074.2</ele>
        <time>2019-08-14T07:22:48Z</time>
      </trkpt>
      <trkpt lat="40.6582100" lon="-4.7107170">
        <ele>1074.4</ele>
        <time>2019-08-14T07:22:49Z</time>
      </trkpt>
      <trkpt lat="40.6582260" lon="-4.7107550">
        <ele>1074.6</ele>
        <time>2019-08-14T07:22:50Z</time>
      </trkpt>
      <trkpt lat="40.6582430" lon="-4.7107930">
        <ele>1074.8</ele>
        <time>2019-08-14T07:22:51Z</time>
      </trkpt>
      <trkpt lat="40.6582590" lon="-4.7108310">
        <ele>1075.0</ele>
        <time>2019-08-14T07:22:52Z</time>
      </trkpt>
      <trkpt lat="40.6582760" lon="-4.7108690">
        <ele>1075.2</ele>
        <time>2019-08-14T07:22:53Z</time>
      </trkpt>
      <trkpt lat="40.6582930" lon="-4.7109070">
        <ele>1075.3</ele>
        <time>2019-08-14T07:22:54Z</time>
      </trkpt>
      <trkpt lat="40.6583100" lon="-4.7109450">
        <ele>1075.5</ele>
        <time>2019-08-14T07:22:55Z</time>
      </trkpt>
      <trkpt lat="40.6583270" lon="-4.7109840">
        <ele>1075.7</ele>
        <time>2019-08-14T07:22:56Z</time>
      </trkpt>
      <trkpt lat="40.6583440" lon="-4.7110220">
        <ele>1075.9</ele>
        <time>2019-08-14T07:22:57Z</time>
      </trkpt>
      <trkpt lat="40.6583610" lon="-4.7110600">
        <ele>1076.1</ele>
        <time>2019-08-14T07:22:58Z</time>
      </trkpt>
      <trkpt lat="40.6583780" lon="-4.7110980">
        <ele>1076.2</ele>
        <time>2019-08-14T07:22:59Z</time>
      </trkpt>
      <trkpt lat="40.6583960" lon="-4.7111350">
        <ele>1076.4</ele>
        <time>2019-08-14T07:23:00Z</time>
      </trkpt>
      <trkpt lat="40.6584140" lon="-4.7111720">
        <ele>1076.6</ele>
        <time>2019-08-14T07:23:01Z</time>
      </trkpt>
      <trkpt lat="40.6584320" lon="-4.7112090">
        <ele>1076.8</ele>
        <time>2019-08-14T07:23:02Z</time>
      </trkpt>
      <trkpt lat="40.6584500" lon="-4.7112450">
        <ele>1076.9</ele>
        <time>2019-08-14T07:23:03Z</time>
      </trkpt>
      <trkpt lat="40.6584690" lon="-4.7112810">
        <ele>1077.1</ele>
        <time>2019-08-14T07:23:04Z</time>
      </trkpt>
      <trkpt lat="40.6584880" lon="-4.7113150">
        <ele>1077.3</ele>
        <time>2019-08-14T07:23:05Z</time>
      </trkpt>
      <trkpt lat="40.6585060" lon="-4.7113490">
        <ele>1077.4</ele>
        <time>2019-08-14T07:23:06Z</time>
      </trkpt>
      <trkpt lat="40.6585260" lon="-4.7113820">
        <ele>1077.6</ele>
        <time>2019-08-14T07:23:07Z</time>
      </trkpt>
      <trkpt lat="40.6585460" lon="-4.7114140">
        <ele>1077.8</ele>
        <time>2019-08-14T07:23:08Z</time>
      </trkpt>
      <trkpt lat="40.6585680" lon="-4.7114450">
        <ele>1078.0</ele>
        <time>2019-08-14T07:23:09Z</time>
      </trkpt>
      <trkpt lat="40.6585900" lon="-4.7114760">
        <ele>1078.2</ele>
        <time>2019-08-14T07:23:10Z</time>
      </trkpt>
      <trkpt lat="40.6586140" lon="-4.7115060">
        <ele>1078.4</ele>
        <time>2019-08-14T07:23:11Z</time>
      </trkpt>
      <trkpt lat="40.6586390" lon="-4.7115340">
        <ele>1078.7</ele>
        <time>2019-08-14T07:23:12Z</time>
      </trkpt>
      <trkpt lat="40.6586640" lon="-4.7115610">
        <ele>1078.6</ele>
        <time>2019-08-14T07:23:13Z</time>
      </trkpt>
      <trkpt lat="40.6586910" lon="-4.7115870">
        <ele>1078.6</ele>
        <time>2019-08-14T07:23:14Z</time>
      </trkpt>
      <trkpt lat="40.6587180" lon="-4.7116110">
        <ele>1078.6</ele>
        <time>2019-08-14T07:23:15Z</time>
      </trkpt>
      <trkpt lat="40.6587450" lon="-4.7116340">
        <ele>1078.5</ele>
        <time>2019-08-14T07:23:16Z</time>
      </trkpt>
      <trkpt lat="40.6587740" lon="-4.7116560">
        <ele>1078.5</ele>
        <time>2019-08-14T07:23:17Z</time>
      </trkpt>
      <trkpt lat="40.6588020" lon="-4.7116770">
        <ele>1078.5</ele>
        <time>2019-08-14T07:23:18Z</time>
      </trkpt>
      <trkpt lat="40.6588310" lon="-4.7116960">
        <ele>1078.5</ele>
        <time>2019-08-14T07:23:19Z</time>
      </trkpt>
      <trkpt lat="40.6588610" lon="-4.7117130">
        <ele>1078.4</ele>
        <time>2019-08-14T07:23:20Z</time>
      </trkpt>
      <trkpt lat="40.6588910" lon="-4.7117270">
        <ele>1078.4</ele>
        <time>2019-08-14T07:23:21Z</time>
      </trkpt>
      <trkpt lat="40.6589220" lon="-4.7117400">
        <ele>1078.4</ele>
        <time>2019-08-14T07:23:22Z</time>
      </trkpt>
      <trkpt lat="40.6589530" lon="-4.7117520">
        <ele>1078.4</ele>
        <time>2019-08-14T07:23:23Z</time>
      </trkpt>
      <trkpt lat="40.6589850" lon="-4.7117640">
        <ele>1078.2</ele>
        <time>2019-08-14T07:23:24Z</time>
      </trkpt>
      <trkpt lat="40.6590170" lon="-4.7117740">
        <ele>1078.2</ele>
        <time>2019-08-14T07:23:25Z</time>
      </trkpt>
      <trkpt lat="40.6590510" lon="-4.7117830">
        <ele>1078.1</ele>
        <time>2019-08-14T07:23:26Z</time>
      </trkpt>
      <trkpt lat="40.6590840" lon="-4.7117920">
        <ele>1078.1</ele>
        <time>2019-08-14T07:23:27Z</time>
      </trkpt>
      <trkpt lat="40.6591160" lon="-4.7117990">
        <ele>1078.0</ele>
        <time>2019-08-14T07:23:28Z</time>
      </trkpt>
      <trkpt lat="40.6591490" lon="-4.7118070">
        <ele>1078.0</ele>
        <time>2019-08-14T07:23:29Z</time>
      </trkpt>
      <trkpt lat="40.6591820" lon="-4.7118130">
        <ele>1077.9</ele>
        <time>2019-08-14T07:23:30Z</time>
      </trkpt>
      <trkpt lat="40.6592150" lon="-4.7118180">
        <ele>1077.9</ele>
        <time>2019-08-14T07:23:31Z</time>
      </trkpt>
      <trkpt lat="40.6592480" lon="-4.7118220">
        <ele>1077.8</ele>
        <time>2019-08-14T07:23:32Z</time>
      </trkpt>
      <trkpt lat="40.6592820" lon="-4.7118260">
        <ele>1077.7</ele>
        <time>2019-08-14T07:23:33Z</time>
      </trkpt>
      <trkpt lat="40.6593160" lon="-4.7118260">
        <ele>1077.7</ele>
        <time>2019-08-14T07:23:34Z</time>
      </trkpt>
      <trkpt lat="40.6593490" lon="-4.7118250">
        <ele>1077.6</ele>
        <time>2019-08-14T07:23:35Z</time>
      </trkpt>
      <trkpt lat="40.6593830" lon="-4.7118220">
        <ele>1077.6</ele>
        <time>2019-08-14T07:23:36Z</time>
      </trkpt>
      <trkpt lat="40.6594170" lon="-4.7118180">
        <ele>1077.7</ele>
        <time>2019-08-14T07:23:37Z</time>
      </trkpt>
      <trkpt lat="40.6594510" lon="-4.7118130">
        <ele>1077.7</ele>
        <time>2019-08-14T07:23:38Z</time>
      </trkpt>
      <trkpt lat="40.6594850" lon="-4.7118080">
        <ele>1077.8</ele>
        <time>2019-08-14T07:23:39Z</time>
      </trkpt>
      <trkpt lat="40.6595200" lon="-4.7118030">
        <ele>1077.9</ele>
        <time>2019-08-14T07:23:40Z</time>
      </trkpt>
      <trkpt lat="40.6595540" lon="-4.7118000">
        <ele>1078.0</ele>
        <time>2019-08-14T07:23:41Z</time>
      </trkpt>
      <trkpt lat="40.6595870" lon="-4.7117940">
        <ele>1078.0</ele>
        <time>2019-08-14T07:23:42Z</time>
      </trkpt>
      <trkpt lat="40.6596200" lon="-4.7117860">
        <ele>1078.1</ele>
        <time>2019-08-14T07:23:43Z</time>
      </trkpt>
      <trkpt lat="40.6596500" lon="-4.7117770">
        <ele>1078.2</ele>
        <time>2019-08-14T07:23:44Z</time>
      </trkpt>
      <trkpt lat="40.6596810" lon="-4.7117680">
        <ele>1078.3</ele>
        <time>2019-08-14T07:23:45Z</time>
      </trkpt>
      <trkpt lat="40.6597130" lon="-4.7117580">
        <ele>1078.3</ele>
        <time>2019-08-14T07:23:46Z</time>
      </trkpt>
      <trkpt lat="40.6597450" lon="-4.7117460">
        <ele>1078.4</ele>
        <time>2019-08-14T07:23:47Z</time>
      </trkpt>
      <trkpt lat="40.6597770" lon="-4.7117330">
        <ele>1078.4</ele>
        <time>2019-08-14T07:23:48Z</time>
      </trkpt>
      <trkpt lat="40.6598080" lon="-4.7117200">
        <ele>1078.5</ele>
        <time>2019-08-14T07:23:49Z</time>
      </trkpt>
      <trkpt lat="40.6598350" lon="-4.7117050">
        <ele>1078.5</ele>
        <time>2019-08-14T07:23:50Z</time>
      </trkpt>
      <trkpt lat="40.6598700" lon="-4.7116700">
        <ele>1078.5</ele>
        <time>2019-08-14T07:23:52Z</time>
      </trkpt>
      <trkpt lat="40.6598840" lon="-4.7116450">
        <ele>1078.5</ele>
        <time>2019-08-14T07:24:01Z</time>
      </trkpt>
      <trkpt lat="40.6598490" lon="-4.7115350">
        <ele>1077.5</ele>
        <time>2019-08-14T07:24:12Z</time>
      </trkpt>
      <trkpt lat="40.6598570" lon="-4.7114920">
        <ele>1077.3</ele>
        <time>2019-08-14T07:24:13Z</time>
      </trkpt>
      <trkpt lat="40.6598770" lon="-4.7114410">
        <ele>1077.3</ele>
        <time>2019-08-14T07:24:15Z</time>
      </trkpt>
      <trkpt lat="40.6599100" lon="-4.7114000">
        <ele>1077.3</ele>
        <time>2019-08-14T07:24:17Z</time>
      </trkpt>
      <trkpt lat="40.6599500" lon="-4.7113650">
        <ele>1077.3</ele>
        <time>2019-08-14T07:24:19Z</time>
      </trkpt>
      <trkpt lat="40.6599760" lon="-4.7113330">
        <ele>1077.4</ele>
        <time>2019-08-14T07:24:21Z</time>
      </trkpt>
      <trkpt lat="40.6600040" lon="-4.7112960">
        <ele>1077.4</ele>
        <time>2019-08-14T07:24:23Z</time>
      </trkpt>
      <trkpt lat="40.6600230" lon="-4.7112440">
        <ele>1077.4</ele>
        <time>2019-08-14T07:24:25Z</time>
      </trkpt>
      <trkpt lat="40.6600360" lon="-4.7111940">
        <ele>1077.4</ele>
        <time>2019-08-14T07:24:27Z</time>
      </trkpt>
      <trkpt lat="40.6600550" lon="-4.7111520">
        <ele>1077.4</ele>
        <time>2019-08-14T07:24:29Z</time>
      </trkpt>
      <trkpt lat="40.6600710" lon="-4.7111170">
        <ele>1077.4</ele>
        <time>2019-08-14T07:24:32Z</time>
      </trkpt>
      <trkpt lat="40.6600800" lon="-4.7111230">
        <ele>1077.4</ele>
        <time>2019-08-14T07:24:41Z</time>
      </trkpt>
      <trkpt lat="40.6600960" lon="-4.7112410">
        <ele>1077.4</ele>
        <time>2019-08-14T07:25:15Z</time>
      </trkpt>
      <trkpt lat="40.6601140" lon="-4.7113080">
        <ele>1077.5</ele>
        <time>2019-08-14T07:25:28Z</time>
      </trkpt>
      <trkpt lat="40.6601630" lon="-4.7113210">
        <ele>1077.5</ele>
        <time>2019-08-14T07:25:30Z</time>
      </trkpt>
      <trkpt lat="40.6601900" lon="-4.7113250">
        <ele>1077.5</ele>
        <time>2019-08-14T07:25:31Z</time>
      </trkpt>
      <trkpt lat="40.6602180" lon="-4.7113290">
        <ele>1077.5</ele>
        <time>2019-08-14T07:25:32Z</time>
      </trkpt>
      <trkpt lat="40.6602620" lon="-4.7113380">
        <ele>1077.5</ele>
        <time>2019-08-14T07:25:34Z</time>
      </trkpt>
      <trkpt lat="40.6602860" lon="-4.7113400">
        <ele>1077.5</ele>
        <time>2019-08-14T07:25:39Z</time>
      </trkpt>
      <trkpt lat="40.6603460" lon="-4.7113540">
        <ele>1077.5</ele>
        <time>2019-08-14T07:25:51Z</time>
      </trkpt>
      <trkpt lat="40.6603870" lon="-4.7113480">
        <ele>1077.5</ele>
        <time>2019-08-14T07:25:53Z</time>
      </trkpt>
      <trkpt lat="40.6604290" lon="-4.7113500">
        <ele>1077.5</ele>
        <time>2019-08-14T07:25:55Z</time>
      </trkpt>
      <trkpt lat="40.6604670" lon="-4.7113530">
        <ele>1077.4</ele>
        <time>2019-08-14T07:25:57Z</time>
      </trkpt>
      <trkpt lat="40.6605140" lon="-4.7113550">
        <ele>1077.4</ele>
        <time>2019-08-14T07:25:59Z</time>
      </trkpt>
      <trkpt lat="40.6605410" lon="-4.7113560">
        <ele>1077.4</ele>
        <time>2019-08-14T07:26:00Z</time>
      </trkpt>
      <trkpt lat="40.6605710" lon="-4.7113560">
        <ele>1077.4</ele>
        <time>2019-08-14T07:26:01Z</time>
      </trkpt>
      <trkpt lat="40.6606010" lon="-4.7113570">
        <ele>1077.3</ele>
        <time>2019-08-14T07:26:02Z</time>
      </trkpt>
      <trkpt lat="40.6606340" lon="-4.7113620">
        <ele>1077.3</ele>
        <time>2019-08-14T07:26:03Z</time>
      </trkpt>
      <trkpt lat="40.6606710" lon="-4.7113670">
        <ele>1077.3</ele>
        <time>2019-08-14T07:26:04Z</time>
      </trkpt>
      <trkpt lat="40.6607100" lon="-4.7113720">
        <ele>1077.2</ele>
        <time>2019-08-14T07:26:05Z</time>
      </trkpt>
      <trkpt lat="40.6607510" lon="-4.7113750">
        <ele>1077.1</ele>
        <time>2019-08-14T07:26:06Z</time>
      </trkpt>
      <trkpt lat="40.6607930" lon="-4.7113790">
        <ele>1077.1</ele>
        <time>2019-08-14T07:26:07Z</time>
      </trkpt>
      <trkpt lat="40.6608360" lon="-4.7113830">
        <ele>1077.1</ele>
        <time>2019-08-14T07:26:08Z</time>
      </trkpt>
      <trkpt lat="40.6608800" lon="-4.7113890">
        <ele>1077.1</ele>
        <time>2019-08-14T07:26:09Z</time>
      </trkpt>
      <trkpt lat="40.6609230" lon="-4.7113950">
        <ele>1077.2</ele>
        <time>2019-08-14T07:26:10Z</time>
      </trkpt>
      <trkpt lat="40.6609660" lon="-4.7113990">
        <ele>1077.2</ele>
        <time>2019-08-14T07:26:11Z</time>
      </trkpt>
      <trkpt lat="40.6610070" lon="-4.7113990">
        <ele>1077.3</ele>
        <time>2019-08-14T07:26:12Z</time>
      </trkpt>
      <trkpt lat="40.6610470" lon="-4.7113990">
        <ele>1077.3</ele>
        <time>2019-08-14T07:26:13Z</time>
      </trkpt>
      <trkpt lat="40.6610870" lon="-4.7113980">
        <ele>1077.3</ele>
        <time>2019-08-14T07:26:14Z</time>
      </trkpt>
      <trkpt lat="40.6611260" lon="-4.7113990">
        <ele>1077.4</ele>
        <time>2019-08-14T07:26:15Z</time>
      </trkpt>
      <trkpt lat="40.6611660" lon="-4.7114000">
        <ele>1077.4</ele>
        <time>2019-08-14T07:26:16Z</time>
      </trkpt>
      <trkpt lat="40.6612060" lon="-4.7114050">
        <ele>1077.5</ele>
        <time>2019-08-14T07:26:17Z</time>
      </trkpt>
      <trkpt lat="40.6612440" lon="-4.7114120">
        <ele>1077.5</ele>
        <time>2019-08-14T07:26:18Z</time>
      </trkpt>
      <trkpt lat="40.6612800" lon="-4.7114160">
        <ele>1077.6</ele>
        <time>2019-08-14T07:26:19Z</time>
      </trkpt>
      <trkpt lat="40.6613150" lon="-4.7114200">
        <ele>1077.6</ele>
        <time>2019-08-14T07:26:20Z</time>
      </trkpt>
      <trkpt lat="40.6613480" lon="-4.7114240">
        <ele>1077.8</ele>
        <time>2019-08-14T07:26:21Z</time>
      </trkpt>
      <trkpt lat="40.6613830" lon="-4.7114320">
        <ele>1078.0</ele>
        <time>2019-08-14T07:26:22Z</time>
      </trkpt>
      <trkpt lat="40.6614200" lon="-4.7114390">
        <ele>1078.1</ele>
        <time>2019-08-14T07:26:23Z</time>
      </trkpt>
      <trkpt lat="40.6614580" lon="-4.7114450">
        <ele>1078.3</ele>
        <time>2019-08-14T07:26:24Z</time>
      </trkpt>
      <trkpt lat="40.6614960" lon="-4.7114510">
        <ele>1078.4</ele>
        <time>2019-08-14T07:26:25Z</time>
      </trkpt>
      <trkpt lat="40.6615350" lon="-4.7114580">
        <ele>1078.6</ele>
        <time>2019-08-14T07:26:26Z</time>
      </trkpt>
      <trkpt lat="40.6615740" lon="-4.7114620">
        <ele>1078.7</ele>
        <time>2019-08-14T07:26:27Z</time>
      </trkpt>
      <trkpt lat="40.6616160" lon="-4.7114660">
        <ele>1078.9</ele>
        <time>2019-08-14T07:26:28Z</time>
      </trkpt>
      <trkpt lat="40.6616590" lon="-4.7114700">
        <ele>1079.1</ele>
        <time>2019-08-14T07:26:29Z</time>
      </trkpt>
      <trkpt lat="40.6617020" lon="-4.7114740">
        <ele>1079.2</ele>
        <time>2019-08-14T07:26:30Z</time>
      </trkpt>
      <trkpt lat="40.6617440" lon="-4.7114790">
        <ele>1079.4</ele>
        <time>2019-08-14T07:26:31Z</time>
      </trkpt>
      <trkpt lat="40.6617880" lon="-4.7114870">
        <ele>1079.6</ele>
        <time>2019-08-14T07:26:32Z</time>
      </trkpt>
      <trkpt lat="40.6618300" lon="-4.7114960">
        <ele>1079.7</ele>
        <time>2019-08-14T07:26:33Z</time>
      </trkpt>
      <trkpt lat="40.6618750" lon="-4.7115060">
        <ele>1079.9</ele>
        <time>2019-08-14T07:26:34Z</time>
      </trkpt>
      <trkpt lat="40.6619170" lon="-4.7115120">
        <ele>1080.1</ele>
        <time>2019-08-14T07:26:35Z</time>
      </trkpt>
      <trkpt lat="40.6619580" lon="-4.7115200">
        <ele>1080.3</ele>
        <time>2019-08-14T07:26:36Z</time>
      </trkpt>
      <trkpt lat="40.6620000" lon="-4.7115290">
        <ele>1080.5</ele>
        <time>2019-08-14T07:26:37Z</time>
      </trkpt>
      <trkpt lat="40.6620440" lon="-4.7115370">
        <ele>1080.7</ele>
        <time>2019-08-14T07:26:38Z</time>
      </trkpt>
      <trkpt lat="40.6620870" lon="-4.7115440">
        <ele>1080.8</ele>
        <time>2019-08-14T07:26:39Z</time>
      </trkpt>
      <trkpt lat="40.6621290" lon="-4.7115510">
        <ele>1081.0</ele>
        <time>2019-08-14T07:26:40Z</time>
      </trkpt>
      <trkpt lat="40.6621720" lon="-4.7115540">
        <ele>1081.2</ele>
        <time>2019-08-14T07:26:41Z</time>
      </trkpt>
      <trkpt lat="40.6622150" lon="-4.7115600">
        <ele>1081.4</ele>
        <time>2019-08-14T07:26:42Z</time>
      </trkpt>
      <trkpt lat="40.6622570" lon="-4.7115680">
        <ele>1081.6</ele>
        <time>2019-08-14T07:26:43Z</time>
      </trkpt>
      <trkpt lat="40.6622990" lon="-4.7115760">
        <ele>1081.8</ele>
        <time>2019-08-14T07:26:44Z</time>
      </trkpt>
      <trkpt lat="40.6623430" lon="-4.7115840">
        <ele>1082.0</ele>
        <time>2019-08-14T07:26:45Z</time>
      </trkpt>
      <trkpt lat="40.6623860" lon="-4.7115910">
        <ele>1082.2</ele>
        <time>2019-08-14T07:26:46Z</time>
      </trkpt>
      <trkpt lat="40.6624280" lon="-4.7115950">
        <ele>1082.4</ele>
        <time>2019-08-14T07:26:47Z</time>
      </trkpt>
      <trkpt lat="40.6624690" lon="-4.7115980">
        <ele>1082.5</ele>
        <time>2019-08-14T07:26:48Z</time>
      </trkpt>
      <trkpt lat="40.6625080" lon="-4.7116010">
        <ele>1082.7</ele>
        <time>2019-08-14T07:26:49Z</time>
      </trkpt>
      <trkpt lat="40.6625470" lon="-4.7116040">
        <ele>1082.9</ele>
        <time>2019-08-14T07:26:50Z</time>
      </trkpt>
      <trkpt lat="40.6625850" lon="-4.7116080">
        <ele>1083.1</ele>
        <time>2019-08-14T07:26:51Z</time>
      </trkpt>
      <trkpt lat="40.6626250" lon="-4.7116150">
        <ele>1083.2</ele>
        <time>2019-08-14T07:26:52Z</time>
      </trkpt>
      <trkpt lat="40.6626630" lon="-4.7116190">
        <ele>1083.4</ele>
        <time>2019-08-14T07:26:53Z</time>
      </trkpt>
      <trkpt lat="40.6627000" lon="-4.7116220">
        <ele>1083.6</ele>
        <time>2019-08-14T07:26:54Z</time>
      </trkpt>
      <trkpt lat="40.6627370" lon="-4.7116260">
        <ele>1083.8</ele>
        <time>2019-08-14T07:26:55Z</time>
      </trkpt>
      <trkpt lat="40.6627740" lon="-4.7116320">
        <ele>1083.9</ele>
        <time>2019-08-14T07:26:56Z</time>
      </trkpt>
      <trkpt lat="40.6628110" lon="-4.7116360">
        <ele>1084.1</ele>
        <time>2019-08-14T07:26:57Z</time>
      </trkpt>
      <trkpt lat="40.6628480" lon="-4.7116390">
        <ele>1084.3</ele>
        <time>2019-08-14T07:26:58Z</time>
      </trkpt>
      <trkpt lat="40.6628850" lon="-4.7116410">
        <ele>1084.4</ele>
        <time>2019-08-14T07:26:59Z</time>
      </trkpt>
      <trkpt lat="40.6629210" lon="-4.7116430">
        <ele>1084.6</ele>
        <time>2019-08-14T07:27:00Z</time>
      </trkpt>
      <trkpt lat="40.6629580" lon="-4.7116440">
        <ele>1084.6</ele>
        <time>2019-08-14T07:27:01Z</time>
      </trkpt>
      <trkpt lat="40.6629960" lon="-4.7116480">
        <ele>1084.7</ele>
        <time>2019-08-14T07:27:02Z</time>
      </trkpt>
      <trkpt lat="40.6630310" lon="-4.7116530">
        <ele>1084.7</ele>
        <time>2019-08-14T07:27:03Z</time>
      </trkpt>
      <trkpt lat="40.6630650" lon="-4.7116570">
        <ele>1084.7</ele>
        <time>2019-08-14T07:27:04Z</time>
      </trkpt>
      <trkpt lat="40.6630980" lon="-4.7116610">
        <ele>1084.7</ele>
        <time>2019-08-14T07:27:05Z</time>
      </trkpt>
      <trkpt lat="40.6631330" lon="-4.7116680">
        <ele>1084.7</ele>
        <time>2019-08-14T07:27:06Z</time>
      </trkpt>
      <trkpt lat="40.6631690" lon="-4.7116770">
        <ele>1084.7</ele>
        <time>2019-08-14T07:27:07Z</time>
      </trkpt>
      <trkpt lat="40.6632050" lon="-4.7116880">
        <ele>1084.7</ele>
        <time>2019-08-14T07:27:08Z</time>
      </trkpt>
      <trkpt lat="40.6632420" lon="-4.7116980">
        <ele>1084.7</ele>
        <time>2019-08-14T07:27:09Z</time>
      </trkpt>
      <trkpt lat="40.6632790" lon="-4.7117070">
        <ele>1084.7</ele>
        <time>2019-08-14T07:27:10Z</time>
      </trkpt>
      <trkpt lat="40.6633140" lon="-4.7117150">
        <ele>1084.7</ele>
        <time>2019-08-14T07:27:11Z</time>
      </trkpt>
      <trkpt lat="40.6633500" lon="-4.7117260">
        <ele>1084.6</ele>
        <time>2019-08-14T07:27:12Z</time>
      </trkpt>
      <trkpt lat="40.6633850" lon="-4.7117370">
        <ele>1084.6</ele>
        <time>2019-08-14T07:27:13Z</time>
      </trkpt>
      <trkpt lat="40.6634200" lon="-4.7117500">
        <ele>1084.5</ele>
        <time>2019-08-14T07:27:14Z</time>
      </trkpt>
      <trkpt lat="40.6634580" lon="-4.7117630">
        <ele>1084.5</ele>
        <time>2019-08-14T07:27:15Z</time>
      </trkpt>
      <trkpt lat="40.6634950" lon="-4.7117740">
        <ele>1084.4</ele>
        <time>2019-08-14T07:27:16Z</time>
      </trkpt>
      <trkpt lat="40.6635310" lon="-4.7117850">
        <ele>1084.4</ele>
        <time>2019-08-14T07:27:17Z</time>
      </trkpt>
      <trkpt lat="40.6635660" lon="-4.7117960">
        <ele>1084.3</ele>
        <time>2019-08-14T07:27:18Z</time>
      </trkpt>
      <trkpt lat="40.6635990" lon="-4.7118110">
        <ele>1084.3</ele>
        <time>2019-08-14T07:27:19Z</time>
      </trkpt>
      <trkpt lat="40.6636310" lon="-4.7118260">
        <ele>1084.2</ele>
        <time>2019-08-14T07:27:20Z</time>
      </trkpt>
      <trkpt lat="40.6636620" lon="-4.7118380">
        <ele>1084.1</ele>
        <time>2019-08-14T07:27:21Z</time>
      </trkpt>
      <trkpt lat="40.6636920" lon="-4.7118460">
        <ele>1084.1</ele>
        <time>2019-08-14T07:27:22Z</time>
      </trkpt>
      <trkpt lat="40.6637230" lon="-4.7118540">
        <ele>1084.0</ele>
        <time>2019-08-14T07:27:23Z</time>
      </trkpt>
      <trkpt lat="40.6637520" lon="-4.7118620">
        <ele>1083.9</ele>
        <time>2019-08-14T07:27:24Z</time>
      </trkpt>
      <trkpt lat="40.6637800" lon="-4.7118690">
        <ele>1083.9</ele>
        <time>2019-08-14T07:27:25Z</time>
      </trkpt>
      <trkpt lat="40.6638100" lon="-4.7118760">
        <ele>1083.8</ele>
        <time>2019-08-14T07:27:26Z</time>
      </trkpt>
      <trkpt lat="40.6638430" lon="-4.7118820">
        <ele>1083.7</ele>
        <time>2019-08-14T07:27:27Z</time>
      </trkpt>
      <trkpt lat="40.6638780" lon="-4.7118900">
        <ele>1083.7</ele>
        <time>2019-08-14T07:27:28Z</time>
      </trkpt>
      <trkpt lat="40.6639150" lon="-4.7118990">
        <ele>1083.6</ele>
        <time>2019-08-14T07:27:29Z</time>
      </trkpt>
      <trkpt lat="40.6639530" lon="-4.7119020">
        <ele>1083.5</ele>
        <time>2019-08-14T07:27:30Z</time>
      </trkpt>
      <trkpt lat="40.6639920" lon="-4.7118950">
        <ele>1083.2</ele>
        <time>2019-08-14T07:27:31Z</time>
      </trkpt>
      <trkpt lat="40.6640290" lon="-4.7118810">
        <ele>1083.0</ele>
        <time>2019-08-14T07:27:32Z</time>
      </trkpt>
      <trkpt lat="40.6640630" lon="-4.7118650">
        <ele>1082.9</ele>
        <time>2019-08-14T07:27:33Z</time>
      </trkpt>
      <trkpt lat="40.6640960" lon="-4.7118510">
        <ele>1082.8</ele>
        <time>2019-08-14T07:27:34Z</time>
      </trkpt>
      <trkpt lat="40.6641270" lon="-4.7118380">
        <ele>1082.6</ele>
        <time>2019-08-14T07:27:35Z</time>
      </trkpt>
      <trkpt lat="40.6641610" lon="-4.7118310">
        <ele>1082.5</ele>
        <time>2019-08-14T07:27:36Z</time>
      </trkpt>
      <trkpt lat="40.6641980" lon="-4.7118310">
        <ele>1082.4</ele>
        <time>2019-08-14T07:27:37Z</time>
      </trkpt>
      <trkpt lat="40.6642360" lon="-4.7118390">
        <ele>1082.2</ele>
        <time>2019-08-14T07:27:38Z</time>
      </trkpt>
      <trkpt lat="40.6642730" lon="-4.7118540">
        <ele>1082.1</ele>
        <time>2019-08-14T07:27:39Z</time>
      </trkpt>
      <trkpt lat="40.6643110" lon="-4.7118760">
        <ele>1081.9</ele>
        <time>2019-08-14T07:27:40Z</time>
      </trkpt>
      <trkpt lat="40.6643450" lon="-4.7119060">
        <ele>1081.7</ele>
        <time>2019-08-14T07:27:41Z</time>
      </trkpt>
      <trkpt lat="40.6643750" lon="-4.7119450">
        <ele>1081.6</ele>
        <time>2019-08-14T07:27:42Z</time>
      </trkpt>
      <trkpt lat="40.6643980" lon="-4.7119910">
        <ele>1081.4</ele>
        <time>2019-08-14T07:27:43Z</time>
      </trkpt>
      <trkpt lat="40.6644160" lon="-4.7120420">
        <ele>1081.2</ele>
        <time>2019-08-14T07:27:44Z</time>
      </trkpt>
      <trkpt lat="40.6644290" lon="-4.7120940">
        <ele>1081.0</ele>
        <time>2019-08-14T07:27:45Z</time>
      </trkpt>
      <trkpt lat="40.6644400" lon="-4.7121480">
        <ele>1080.8</ele>
        <time>2019-08-14T07:27:46Z</time>
      </trkpt>
      <trkpt lat="40.6644540" lon="-4.7122020">
        <ele>1080.9</ele>
        <time>2019-08-14T07:27:47Z</time>
      </trkpt>
      <trkpt lat="40.6644720" lon="-4.7122540">
        <ele>1080.9</ele>
        <time>2019-08-14T07:27:48Z</time>
      </trkpt>
      <trkpt lat="40.6644920" lon="-4.7123000">
        <ele>1080.9</ele>
        <time>2019-08-14T07:27:49Z</time>
      </trkpt>
      <trkpt lat="40.6645170" lon="-4.7123400">
        <ele>1081.0</ele>
        <time>2019-08-14T07:27:50Z</time>
      </trkpt>
      <trkpt lat="40.6645440" lon="-4.7123780">
        <ele>1081.0</ele>
        <time>2019-08-14T07:27:51Z</time>
      </trkpt>
      <trkpt lat="40.6645730" lon="-4.7124100">
        <ele>1081.1</ele>
        <time>2019-08-14T07:27:52Z</time>
      </trkpt>
      <trkpt lat="40.6646000" lon="-4.7124390">
        <ele>1081.1</ele>
        <time>2019-08-14T07:27:53Z</time>
      </trkpt>
      <trkpt lat="40.6646310" lon="-4.7124690">
        <ele>1081.1</ele>
        <time>2019-08-14T07:27:54Z</time>
      </trkpt>
      <trkpt lat="40.6646600" lon="-4.7124970">
        <ele>1081.2</ele>
        <time>2019-08-14T07:27:55Z</time>
      </trkpt>
      <trkpt lat="40.6646890" lon="-4.7125270">
        <ele>1081.2</ele>
        <time>2019-08-14T07:27:56Z</time>
      </trkpt>
      <trkpt lat="40.6647180" lon="-4.7125570">
        <ele>1081.2</ele>
        <time>2019-08-14T07:27:57Z</time>
      </trkpt>
      <trkpt lat="40.6647460" lon="-4.7125880">
        <ele>1081.3</ele>
        <time>2019-08-14T07:27:58Z</time>
      </trkpt>
      <trkpt lat="40.6647740" lon="-4.7126190">
        <ele>1081.3</ele>
        <time>2019-08-14T07:27:59Z</time>
      </trkpt>
      <trkpt lat="40.6648020" lon="-4.7126490">
        <ele>1081.3</ele>
        <time>2019-08-14T07:28:00Z</time>
      </trkpt>
      <trkpt lat="40.6648300" lon="-4.7126810">
        <ele>1081.4</ele>
        <time>2019-08-14T07:28:01Z</time>
      </trkpt>
      <trkpt lat="40.6648580" lon="-4.7127110">
        <ele>1081.4</ele>
        <time>2019-08-14T07:28:02Z</time>
      </trkpt>
      <trkpt lat="40.6648870" lon="-4.7127420">
        <ele>1081.5</ele>
        <time>2019-08-14T07:28:03Z</time>
      </trkpt>
      <trkpt lat="40.6649160" lon="-4.7127730">
        <ele>1081.5</ele>
        <time>2019-08-14T07:28:04Z</time>
      </trkpt>
      <trkpt lat="40.6649440" lon="-4.7128060">
        <ele>1081.5</ele>
        <time>2019-08-14T07:28:05Z</time>
      </trkpt>
      <trkpt lat="40.6649720" lon="-4.7128390">
        <ele>1081.6</ele>
        <time>2019-08-14T07:28:06Z</time>
      </trkpt>
      <trkpt lat="40.6650000" lon="-4.7128730">
        <ele>1081.6</ele>
        <time>2019-08-14T07:28:07Z</time>
      </trkpt>
      <trkpt lat="40.6650270" lon="-4.7129070">
        <ele>1081.7</ele>
        <time>2019-08-14T07:28:08Z</time>
      </trkpt>
      <trkpt lat="40.6650540" lon="-4.7129420">
        <ele>1081.7</ele>
        <time>2019-08-14T07:28:09Z</time>
      </trkpt>
      <trkpt lat="40.6650810" lon="-4.7129780">
        <ele>1081.8</ele>
        <time>2019-08-14T07:28:10Z</time>
      </trkpt>
      <trkpt lat="40.6651080" lon="-4.7130160">
        <ele>1081.8</ele>
        <time>2019-08-14T07:28:11Z</time>
      </trkpt>
      <trkpt lat="40.6651340" lon="-4.7130530">
        <ele>1081.9</ele>
        <time>2019-08-14T07:28:12Z</time>
      </trkpt>
      <trkpt lat="40.6651630" lon="-4.7130920">
        <ele>1081.9</ele>
        <time>2019-08-14T07:28:13Z</time>
      </trkpt>
      <trkpt lat="40.6651910" lon="-4.7131330">
        <ele>1081.9</ele>
        <time>2019-08-14T07:28:14Z</time>
      </trkpt>
      <trkpt lat="40.6652210" lon="-4.7131740">
        <ele>1082.0</ele>
        <time>2019-08-14T07:28:15Z</time>
      </trkpt>
      <trkpt lat="40.6652490" lon="-4.7132150">
        <ele>1082.0</ele>
        <time>2019-08-14T07:28:16Z</time>
      </trkpt>
      <trkpt lat="40.6652780" lon="-4.7132570">
        <ele>1082.1</ele>
        <time>2019-08-14T07:28:17Z</time>
      </trkpt>
      <trkpt lat="40.6653070" lon="-4.7132990">
        <ele>1082.1</ele>
        <time>2019-08-14T07:28:18Z</time>
      </trkpt>
      <trkpt lat="40.6653360" lon="-4.7133430">
        <ele>1082.1</ele>
        <time>2019-08-14T07:28:19Z</time>
      </trkpt>
      <trkpt lat="40.6653660" lon="-4.7133860">
        <ele>1082.2</ele>
        <time>2019-08-14T07:28:20Z</time>
      </trkpt>
      <trkpt lat="40.6653930" lon="-4.7134280">
        <ele>1082.2</ele>
        <time>2019-08-14T07:28:21Z</time>
      </trkpt>
      <trkpt lat="40.6654190" lon="-4.7134710">
        <ele>1082.2</ele>
        <time>2019-08-14T07:28:22Z</time>
      </trkpt>
      <trkpt lat="40.6654450" lon="-4.7135100">
        <ele>1082.2</ele>
        <time>2019-08-14T07:28:23Z</time>
      </trkpt>
      <trkpt lat="40.6654720" lon="-4.7135500">
        <ele>1082.2</ele>
        <time>2019-08-14T07:28:24Z</time>
      </trkpt>
      <trkpt lat="40.6654980" lon="-4.7135920">
        <ele>1082.2</ele>
        <time>2019-08-14T07:28:25Z</time>
      </trkpt>
      <trkpt lat="40.6655250" lon="-4.7136340">
        <ele>1082.3</ele>
        <time>2019-08-14T07:28:26Z</time>
      </trkpt>
      <trkpt lat="40.6655520" lon="-4.7136780">
        <ele>1082.3</ele>
        <time>2019-08-14T07:28:27Z</time>
      </trkpt>
      <trkpt lat="40.6655790" lon="-4.7137240">
        <ele>1082.3</ele>
        <time>2019-08-14T07:28:28Z</time>
      </trkpt>
      <trkpt lat="40.6656060" lon="-4.7137690">
        <ele>1082.3</ele>
        <time>2019-08-14T07:28:29Z</time>
      </trkpt>
      <trkpt lat="40.6656320" lon="-4.7138140">
        <ele>1082.4</ele>
        <time>2019-08-14T07:28:30Z</time>
      </trkpt>
      <trkpt lat="40.6656590" lon="-4.7138590">
        <ele>1082.4</ele>
        <time>2019-08-14T07:28:31Z</time>
      </trkpt>
      <trkpt lat="40.6656850" lon="-4.7139040">
        <ele>1082.4</ele>
        <time>2019-08-14T07:28:32Z</time>
      </trkpt>
      <trkpt lat="40.6657120" lon="-4.7139490">
        <ele>1082.5</ele>
        <time>2019-08-14T07:28:33Z</time>
      </trkpt>
      <trkpt lat="40.6657370" lon="-4.7139900">
        <ele>1082.5</ele>
        <time>2019-08-14T07:28:34Z</time>
      </trkpt>
      <trkpt lat="40.6657610" lon="-4.7140320">
        <ele>1082.6</ele>
        <time>2019-08-14T07:28:35Z</time>
      </trkpt>
      <trkpt lat="40.6657840" lon="-4.7140730">
        <ele>1082.6</ele>
        <time>2019-08-14T07:28:36Z</time>
      </trkpt>
      <trkpt lat="40.6658060" lon="-4.7141140">
        <ele>1082.7</ele>
        <time>2019-08-14T07:28:37Z</time>
      </trkpt>
      <trkpt lat="40.6658280" lon="-4.7141560">
        <ele>1082.8</ele>
        <time>2019-08-14T07:28:38Z</time>
      </trkpt>
      <trkpt lat="40.6658490" lon="-4.7141960">
        <ele>1082.8</ele>
        <time>2019-08-14T07:28:39Z</time>
      </trkpt>
      <trkpt lat="40.6658700" lon="-4.7142340">
        <ele>1082.9</ele>
        <time>2019-08-14T07:28:40Z</time>
      </trkpt>
      <trkpt lat="40.6658900" lon="-4.7142720">
        <ele>1082.9</ele>
        <time>2019-08-14T07:28:41Z</time>
      </trkpt>
      <trkpt lat="40.6659090" lon="-4.7143090">
        <ele>1082.8</ele>
        <time>2019-08-14T07:28:42Z</time>
      </trkpt>
      <trkpt lat="40.6659290" lon="-4.7143460">
        <ele>1082.8</ele>
        <time>2019-08-14T07:28:43Z</time>
      </trkpt>
      <trkpt lat="40.6659480" lon="-4.7143810">
        <ele>1082.8</ele>
        <time>2019-08-14T07:28:44Z</time>
      </trkpt>
      <trkpt lat="40.6659590" lon="-4.7144140">
        <ele>1082.8</ele>
        <time>2019-08-14T07:28:45Z</time>
      </trkpt>
      <trkpt lat="40.6659330" lon="-4.7144670">
        <ele>1082.8</ele>
        <time>2019-08-14T07:28:47Z</time>
      </trkpt>
      <trkpt lat="40.6659040" lon="-4.7144660">
        <ele>1082.8</ele>
        <time>2019-08-14T07:28:48Z</time>
      </trkpt>
      <trkpt lat="40.6658750" lon="-4.7144440">
        <ele>1082.7</ele>
        <time>2019-08-14T07:28:49Z</time>
      </trkpt>
      <trkpt lat="40.6658490" lon="-4.7144080">
        <ele>1082.8</ele>
        <time>2019-08-14T07:28:50Z</time>
      </trkpt>
      <trkpt lat="40.6658250" lon="-4.7143640">
        <ele>1082.8</ele>
        <time>2019-08-14T07:28:51Z</time>
      </trkpt>
      <trkpt lat="40.6658020" lon="-4.7143170">
        <ele>1082.9</ele>
        <time>2019-08-14T07:28:52Z</time>
      </trkpt>
      <trkpt lat="40.6657770" lon="-4.7142680">
        <ele>1082.8</ele>
        <time>2019-08-14T07:28:53Z</time>
      </trkpt>
      <trkpt lat="40.6657500" lon="-4.7142190">
        <ele>1082.7</ele>
        <time>2019-08-14T07:28:54Z</time>
      </trkpt>
      <trkpt lat="40.6657220" lon="-4.7141700">
        <ele>1082.7</ele>
        <time>2019-08-14T07:28:55Z</time>
      </trkpt>
      <trkpt lat="40.6656940" lon="-4.7141200">
        <ele>1082.6</ele>
        <time>2019-08-14T07:28:56Z</time>
      </trkpt>
      <trkpt lat="40.6656660" lon="-4.7140690">
        <ele>1082.5</ele>
        <time>2019-08-14T07:28:57Z</time>
      </trkpt>
      <trkpt lat="40.6656360" lon="-4.7140180">
        <ele>1082.5</ele>
        <time>2019-08-14T07:28:58Z</time>
      </trkpt>
      <trkpt lat="40.6656060" lon="-4.7139680">
        <ele>1082.4</ele>
        <time>2019-08-14T07:28:59Z</time>
      </trkpt>
      <trkpt lat="40.6655770" lon="-4.7139170">
        <ele>1082.4</ele>
        <time>2019-08-14T07:29:00Z</time>
      </trkpt>
      <trkpt lat="40.6655480" lon="-4.7138660">
        <ele>1082.3</ele>
        <time>2019-08-14T07:29:01Z</time>
      </trkpt>
      <trkpt lat="40.6655200" lon="-4.7138180">
        <ele>1082.3</ele>
        <time>2019-08-14T07:29:02Z</time>
      </trkpt>
      <trkpt lat="40.6654910" lon="-4.7137700">
        <ele>1082.3</ele>
        <time>2019-08-14T07:29:03Z</time>
      </trkpt>
      <trkpt lat="40.6654610" lon="-4.7137220">
        <ele>1082.3</ele>
        <time>2019-08-14T07:29:04Z</time>
      </trkpt>
      <trkpt lat="40.6654320" lon="-4.7136740">
        <ele>1082.2</ele>
        <time>2019-08-14T07:29:05Z</time>
      </trkpt>
      <trkpt lat="40.6654020" lon="-4.7136260">
        <ele>1082.2</ele>
        <time>2019-08-14T07:29:06Z</time>
      </trkpt>
      <trkpt lat="40.6653710" lon="-4.7135770">
        <ele>1082.2</ele>
        <time>2019-08-14T07:29:07Z</time>
      </trkpt>
      <trkpt lat="40.6653380" lon="-4.7135290">
        <ele>1082.2</ele>
        <time>2019-08-14T07:29:08Z</time>
      </trkpt>
      <trkpt lat="40.6653060" lon="-4.7134800">
        <ele>1082.2</ele>
        <time>2019-08-14T07:29:09Z</time>
      </trkpt>
      <trkpt lat="40.6652740" lon="-4.7134330">
        <ele>1082.1</ele>
        <time>2019-08-14T07:29:10Z</time>
      </trkpt>
      <trkpt lat="40.6652410" lon="-4.7133860">
        <ele>1082.1</ele>
        <time>2019-08-14T07:29:11Z</time>
      </trkpt>
      <trkpt lat="40.6652100" lon="-4.7133410">
        <ele>1082.1</ele>
        <time>2019-08-14T07:29:12Z</time>
      </trkpt>
      <trkpt lat="40.6651780" lon="-4.7132960">
        <ele>1082.0</ele>
        <time>2019-08-14T07:29:13Z</time>
      </trkpt>
      <trkpt lat="40.6651440" lon="-4.7132490">
        <ele>1082.0</ele>
        <time>2019-08-14T07:29:14Z</time>
      </trkpt>
      <trkpt lat="40.6651120" lon="-4.7132020">
        <ele>1081.9</ele>
        <time>2019-08-14T07:29:15Z</time>
      </trkpt>
      <trkpt lat="40.6650780" lon="-4.7131540">
        <ele>1081.9</ele>
        <time>2019-08-14T07:29:16Z</time>
      </trkpt>
      <trkpt lat="40.6650450" lon="-4.7131070">
        <ele>1081.8</ele>
        <time>2019-08-14T07:29:17Z</time>
      </trkpt>
      <trkpt lat="40.6650110" lon="-4.7130600">
        <ele>1081.8</ele>
        <time>2019-08-14T07:29:18Z</time>
      </trkpt>
      <trkpt lat="40.6649760" lon="-4.7130120">
        <ele>1081.7</ele>
        <time>2019-08-14T07:29:19Z</time>
      </trkpt>
      <trkpt lat="40.6649410" lon="-4.7129670">
        <ele>1081.6</ele>
        <time>2019-08-14T07:29:20Z</time>
      </trkpt>
      <trkpt lat="40.6649050" lon="-4.7129230">
        <ele>1081.6</ele>
        <time>2019-08-14T07:29:21Z</time>
      </trkpt>
      <trkpt lat="40.6648690" lon="-4.7128820">
        <ele>1081.5</ele>
        <time>2019-08-14T07:29:22Z</time>
      </trkpt>
      <trkpt lat="40.6648330" lon="-4.7128410">
        <ele>1081.5</ele>
        <time>2019-08-14T07:29:23Z</time>
      </trkpt>
      <trkpt lat="40.6647970" lon="-4.7128000">
        <ele>1081.4</ele>
        <time>2019-08-14T07:29:24Z</time>
      </trkpt>
      <trkpt lat="40.6647610" lon="-4.7127610">
        <ele>1081.4</ele>
        <time>2019-08-14T07:29:25Z</time>
      </trkpt>
      <trkpt lat="40.6647250" lon="-4.7127230">
        <ele>1081.3</ele>
        <time>2019-08-14T07:29:26Z</time>
      </trkpt>
      <trkpt lat="40.6646890" lon="-4.7126860">
        <ele>1081.3</ele>
        <time>2019-08-14T07:29:27Z</time>
      </trkpt>
      <trkpt lat="40.6646540" lon="-4.7126510">
        <ele>1081.2</ele>
        <time>2019-08-14T07:29:28Z</time>
      </trkpt>
      <trkpt lat="40.6646200" lon="-4.7126160">
        <ele>1081.2</ele>
        <time>2019-08-14T07:29:29Z</time>
      </trkpt>
      <trkpt lat="40.6645860" lon="-4.7125840">
        <ele>1081.2</ele>
        <time>2019-08-14T07:29:30Z</time>
      </trkpt>
      <trkpt lat="40.6645520" lon="-4.7125530">
        <ele>1081.1</ele>
        <time>2019-08-14T07:29:31Z</time>
      </trkpt>
      <trkpt lat="40.6645190" lon="-4.7125260">
        <ele>1081.1</ele>
        <time>2019-08-14T07:29:32Z</time>
      </trkpt>
      <trkpt lat="40.6644850" lon="-4.7125010">
        <ele>1081.1</ele>
        <time>2019-08-14T07:29:33Z</time>
      </trkpt>
      <trkpt lat="40.6644510" lon="-4.7124770">
        <ele>1081.2</ele>
        <time>2019-08-14T07:29:34Z</time>
      </trkpt>
      <trkpt lat="40.6644160" lon="-4.7124570">
        <ele>1081.3</ele>
        <time>2019-08-14T07:29:35Z</time>
      </trkpt>
      <trkpt lat="40.6643800" lon="-4.7124430">
        <ele>1081.3</ele>
        <time>2019-08-14T07:29:36Z</time>
      </trkpt>
      <trkpt lat="40.6643430" lon="-4.7124370">
        <ele>1081.4</ele>
        <time>2019-08-14T07:29:37Z</time>
      </trkpt>
      <trkpt lat="40.6643080" lon="-4.7124380">
        <ele>1081.9</ele>
        <time>2019-08-14T07:29:38Z</time>
      </trkpt>
      <trkpt lat="40.6642730" lon="-4.7124430">
        <ele>1082.1</ele>
        <time>2019-08-14T07:29:39Z</time>
      </trkpt>
      <trkpt lat="40.6642360" lon="-4.7124460">
        <ele>1082.3</ele>
        <time>2019-08-14T07:29:40Z</time>
      </trkpt>
      <trkpt lat="40.6641990" lon="-4.7124510">
        <ele>1082.6</ele>
        <time>2019-08-14T07:29:41Z</time>
      </trkpt>
      <trkpt lat="40.6641610" lon="-4.7124550">
        <ele>1082.9</ele>
        <time>2019-08-14T07:29:42Z</time>
      </trkpt>
      <trkpt lat="40.6641220" lon="-4.7124520">
        <ele>1083.1</ele>
        <time>2019-08-14T07:29:43Z</time>
      </trkpt>
      <trkpt lat="40.6640830" lon="-4.7124390">
        <ele>1083.4</ele>
        <time>2019-08-14T07:29:44Z</time>
      </trkpt>
      <trkpt lat="40.6640460" lon="-4.7124180">
        <ele>1083.6</ele>
        <time>2019-08-14T07:29:45Z</time>
      </trkpt>
      <trkpt lat="40.6640120" lon="-4.7123890">
        <ele>1083.8</ele>
        <time>2019-08-14T07:29:46Z</time>
      </trkpt>
      <trkpt lat="40.6639820" lon="-4.7123560">
        <ele>1083.9</ele>
        <time>2019-08-14T07:29:47Z</time>
      </trkpt>
      <trkpt lat="40.6639550" lon="-4.7123200">
        <ele>1083.8</ele>
        <time>2019-08-14T07:29:48Z</time>
      </trkpt>
      <trkpt lat="40.6639340" lon="-4.7122810">
        <ele>1083.8</ele>
        <time>2019-08-14T07:29:49Z</time>
      </trkpt>
      <trkpt lat="40.6639160" lon="-4.7122420">
        <ele>1083.7</ele>
        <time>2019-08-14T07:29:50Z</time>
      </trkpt>
      <trkpt lat="40.6638970" lon="-4.7122030">
        <ele>1083.7</ele>
        <time>2019-08-14T07:29:51Z</time>
      </trkpt>
      <trkpt lat="40.6638760" lon="-4.7121680">
        <ele>1083.7</ele>
        <time>2019-08-14T07:29:52Z</time>
      </trkpt>
      <trkpt lat="40.6638510" lon="-4.7121340">
        <ele>1083.7</ele>
        <time>2019-08-14T07:29:53Z</time>
      </trkpt>
      <trkpt lat="40.6638240" lon="-4.7121010">
        <ele>1083.7</ele>
        <time>2019-08-14T07:29:54Z</time>
      </trkpt>
      <trkpt lat="40.6637940" lon="-4.7120680">
        <ele>1083.7</ele>
        <time>2019-08-14T07:29:55Z</time>
      </trkpt>
      <trkpt lat="40.6637650" lon="-4.7120380">
        <ele>1083.8</ele>
        <time>2019-08-14T07:29:56Z</time>
      </trkpt>
      <trkpt lat="40.6637340" lon="-4.7120040">
        <ele>1083.8</ele>
        <time>2019-08-14T07:29:57Z</time>
      </trkpt>
      <trkpt lat="40.6637080" lon="-4.7119590">
        <ele>1083.8</ele>
        <time>2019-08-14T07:29:58Z</time>
      </trkpt>
      <trkpt lat="40.6636910" lon="-4.7119060">
        <ele>1083.9</ele>
        <time>2019-08-14T07:29:59Z</time>
      </trkpt>
      <trkpt lat="40.6636810" lon="-4.7118520">
        <ele>1083.9</ele>
        <time>2019-08-14T07:30:00Z</time>
      </trkpt>
      <trkpt lat="40.6636730" lon="-4.7118040">
        <ele>1084.0</ele>
        <time>2019-08-14T07:30:01Z</time>
      </trkpt>
      <trkpt lat="40.6636640" lon="-4.7117610">
        <ele>1084.0</ele>
        <time>2019-08-14T07:30:02Z</time>
      </trkpt>
      <trkpt lat="40.6636690" lon="-4.7117040">
        <ele>1084.1</ele>
        <time>2019-08-14T07:30:04Z</time>
      </trkpt>
      <trkpt lat="40.6636990" lon="-4.7116670">
        <ele>1084.1</ele>
        <time>2019-08-14T07:30:06Z</time>
      </trkpt>
      <trkpt lat="40.6637280" lon="-4.7116510">
        <ele>1083.7</ele>
        <time>2019-08-14T07:30:07Z</time>
      </trkpt>
      <trkpt lat="40.6637670" lon="-4.7116370">
        <ele>1083.4</ele>
        <time>2019-08-14T07:30:08Z</time>
      </trkpt>
      <trkpt lat="40.6638140" lon="-4.7116230">
        <ele>1083.1</ele>
        <time>2019-08-14T07:30:09Z</time>
      </trkpt>
      <trkpt lat="40.6638630" lon="-4.7116070">
        <ele>1082.8</ele>
        <time>2019-08-14T07:30:10Z</time>
      </trkpt>
      <trkpt lat="40.6639040" lon="-4.7115970">
        <ele>1082.5</ele>
        <time>2019-08-14T07:30:11Z</time>
      </trkpt>
      <trkpt lat="40.6639330" lon="-4.7115870">
        <ele>1082.2</ele>
        <time>2019-08-14T07:30:12Z</time>
      </trkpt>
      <trkpt lat="40.6639660" lon="-4.7115810">
        <ele>1082.0</ele>
        <time>2019-08-14T07:30:14Z</time>
      </trkpt>
      <trkpt lat="40.6639760" lon="-4.7115880">
        <ele>1081.9</ele>
        <time>2019-08-14T07:30:21Z</time>
      </trkpt>
      <trkpt lat="40.6639470" lon="-4.7115890">
        <ele>1081.7</ele>
        <time>2019-08-14T07:30:26Z</time>
      </trkpt>
      <trkpt lat="40.6639130" lon="-4.7116010">
        <ele>1082.0</ele>
        <time>2019-08-14T07:30:29Z</time>
      </trkpt>
      <trkpt lat="40.6638730" lon="-4.7116110">
        <ele>1082.4</ele>
        <time>2019-08-14T07:30:32Z</time>
      </trkpt>
      <trkpt lat="40.6638460" lon="-4.7116140">
        <ele>1082.6</ele>
        <time>2019-08-14T07:30:34Z</time>
      </trkpt>
      <trkpt lat="40.6638100" lon="-4.7116240">
        <ele>1083.0</ele>
        <time>2019-08-14T07:30:37Z</time>
      </trkpt>
      <trkpt lat="40.6637760" lon="-4.7116310">
        <ele>1083.3</ele>
        <time>2019-08-14T07:30:40Z</time>
      </trkpt>
      <trkpt lat="40.6637440" lon="-4.7116340">
        <ele>1083.5</ele>
        <time>2019-08-14T07:30:43Z</time>
      </trkpt>
      <trkpt lat="40.6637100" lon="-4.7116340">
        <ele>1083.8</ele>
        <time>2019-08-14T07:30:47Z</time>
      </trkpt>
      <trkpt lat="40.6636880" lon="-4.7116390">
        <ele>1084.0</ele>
        <time>2019-08-14T07:30:53Z</time>
      </trkpt>
      <trkpt lat="40.6637020" lon="-4.7116840">
        <ele>1084.1</ele>
        <time>2019-08-14T07:30:57Z</time>
      </trkpt>
      <trkpt lat="40.6637250" lon="-4.7117230">
        <ele>1084.0</ele>
        <time>2019-08-14T07:31:00Z</time>
      </trkpt>
      <trkpt lat="40.6637490" lon="-4.7117640">
        <ele>1084.0</ele>
        <time>2019-08-14T07:31:03Z</time>
      </trkpt>
      <trkpt lat="40.6637730" lon="-4.7118020">
        <ele>1083.9</ele>
        <time>2019-08-14T07:31:06Z</time>
      </trkpt>
      <trkpt lat="40.6637990" lon="-4.7118300">
        <ele>1083.8</ele>
        <time>2019-08-14T07:31:10Z</time>
      </trkpt>
      <trkpt lat="40.6638240" lon="-4.7118530">
        <ele>1083.8</ele>
        <time>2019-08-14T07:31:14Z</time>
      </trkpt>
      <trkpt lat="40.6638620" lon="-4.7118720">
        <ele>1083.7</ele>
        <time>2019-08-14T07:31:17Z</time>
      </trkpt>
      <trkpt lat="40.6639030" lon="-4.7118900">
        <ele>1083.5</ele>
        <time>2019-08-14T07:31:19Z</time>
      </trkpt>
      <trkpt lat="40.6639550" lon="-4.7119000">
        <ele>1083.4</ele>
        <time>2019-08-14T07:31:21Z</time>
      </trkpt>
      <trkpt lat="40.6639840" lon="-4.7118950">
        <ele>1083.4</ele>
        <time>2019-08-14T07:31:22Z</time>
      </trkpt>
      <trkpt lat="40.6640150" lon="-4.7118850">
        <ele>1083.1</ele>
        <time>2019-08-14T07:31:23Z</time>
      </trkpt>
      <trkpt lat="40.6640460" lon="-4.7118690">
        <ele>1083.0</ele>
        <time>2019-08-14T07:31:24Z</time>
      </trkpt>
      <trkpt lat="40.6640770" lon="-4.7118520">
        <ele>1082.9</ele>
        <time>2019-08-14T07:31:25Z</time>
      </trkpt>
      <trkpt lat="40.6641100" lon="-4.7118370">
        <ele>1082.7</ele>
        <time>2019-08-14T07:31:26Z</time>
      </trkpt>
      <trkpt lat="40.6641440" lon="-4.7118270">
        <ele>1082.6</ele>
        <time>2019-08-14T07:31:27Z</time>
      </trkpt>
      <trkpt lat="40.6641800" lon="-4.7118220">
        <ele>1082.5</ele>
        <time>2019-08-14T07:31:28Z</time>
      </trkpt>
      <trkpt lat="40.6642160" lon="-4.7118260">
        <ele>1082.3</ele>
        <time>2019-08-14T07:31:29Z</time>
      </trkpt>
      <trkpt lat="40.6642510" lon="-4.7118380">
        <ele>1082.2</ele>
        <time>2019-08-14T07:31:30Z</time>
      </trkpt>
      <trkpt lat="40.6642840" lon="-4.7118560">
        <ele>1082.0</ele>
        <time>2019-08-14T07:31:31Z</time>
      </trkpt>
      <trkpt lat="40.6643160" lon="-4.7118790">
        <ele>1081.9</ele>
        <time>2019-08-14T07:31:32Z</time>
      </trkpt>
      <trkpt lat="40.6643450" lon="-4.7119070">
        <ele>1081.7</ele>
        <time>2019-08-14T07:31:33Z</time>
      </trkpt>
      <trkpt lat="40.6643710" lon="-4.7119410">
        <ele>1081.6</ele>
        <time>2019-08-14T07:31:34Z</time>
      </trkpt>
      <trkpt lat="40.6643930" lon="-4.7119790">
        <ele>1081.5</ele>
        <time>2019-08-14T07:31:35Z</time>
      </trkpt>
      <trkpt lat="40.6644120" lon="-4.7120220">
        <ele>1081.3</ele>
        <time>2019-08-14T07:31:36Z</time>
      </trkpt>
      <trkpt lat="40.6644270" lon="-4.7120690">
        <ele>1081.1</ele>
        <time>2019-08-14T07:31:37Z</time>
      </trkpt>
      <trkpt lat="40.6644400" lon="-4.7121190">
        <ele>1080.8</ele>
        <time>2019-08-14T07:31:38Z</time>
      </trkpt>
      <trkpt lat="40.6644520" lon="-4.7121730">
        <ele>1080.8</ele>
        <time>2019-08-14T07:31:39Z</time>
      </trkpt>
      <trkpt lat="40.6644660" lon="-4.7122270">
        <ele>1080.9</ele>
        <time>2019-08-14T07:31:40Z</time>
      </trkpt>
      <trkpt lat="40.6644840" lon="-4.7122790">
        <ele>1080.9</ele>
        <time>2019-08-14T07:31:41Z</time>
      </trkpt>
      <trkpt lat="40.6645080" lon="-4.7123270">
        <ele>1081.0</ele>
        <time>2019-08-14T07:31:42Z</time>
      </trkpt>
      <trkpt lat="40.6645380" lon="-4.7123720">
        <ele>1081.0</ele>
        <time>2019-08-14T07:31:43Z</time>
      </trkpt>
      <trkpt lat="40.6645730" lon="-4.7124120">
        <ele>1081.1</ele>
        <time>2019-08-14T07:31:44Z</time>
      </trkpt>
      <trkpt lat="40.6646100" lon="-4.7124510">
        <ele>1081.1</ele>
        <time>2019-08-14T07:31:45Z</time>
      </trkpt>
      <trkpt lat="40.6646500" lon="-4.7124900">
        <ele>1081.2</ele>
        <time>2019-08-14T07:31:46Z</time>
      </trkpt>
      <trkpt lat="40.6646910" lon="-4.7125310">
        <ele>1081.2</ele>
        <time>2019-08-14T07:31:47Z</time>
      </trkpt>
      <trkpt lat="40.6647320" lon="-4.7125740">
        <ele>1081.2</ele>
        <time>2019-08-14T07:31:48Z</time>
      </trkpt>
      <trkpt lat="40.6647740" lon="-4.7126180">
        <ele>1081.3</ele>
        <time>2019-08-14T07:31:49Z</time>
      </trkpt>
      <trkpt lat="40.6648170" lon="-4.7126640">
        <ele>1081.3</ele>
        <time>2019-08-14T07:31:50Z</time>
      </trkpt>
      <trkpt lat="40.6648590" lon="-4.7127100">
        <ele>1081.4</ele>
        <time>2019-08-14T07:31:51Z</time>
      </trkpt>
      <trkpt lat="40.6649020" lon="-4.7127600">
        <ele>1081.5</ele>
        <time>2019-08-14T07:31:52Z</time>
      </trkpt>
      <trkpt lat="40.6649450" lon="-4.7128120">
        <ele>1081.5</ele>
        <time>2019-08-14T07:31:53Z</time>
      </trkpt>
      <trkpt lat="40.6649880" lon="-4.7128670">
        <ele>1081.6</ele>
        <time>2019-08-14T07:31:54Z</time>
      </trkpt>
      <trkpt lat="40.6650310" lon="-4.7129240">
        <ele>1081.7</ele>
        <time>2019-08-14T07:31:55Z</time>
      </trkpt>
      <trkpt lat="40.6650750" lon="-4.7129800">
        <ele>1081.7</ele>
        <time>2019-08-14T07:31:56Z</time>
      </trkpt>
      <trkpt lat="40.6651180" lon="-4.7130380">
        <ele>1081.8</ele>
        <time>2019-08-14T07:31:57Z</time>
      </trkpt>
      <trkpt lat="40.6651590" lon="-4.7130950">
        <ele>1081.9</ele>
        <time>2019-08-14T07:31:58Z</time>
      </trkpt>
      <trkpt lat="40.6652000" lon="-4.7131530">
        <ele>1081.9</ele>
        <time>2019-08-14T07:31:59Z</time>
      </trkpt>
      <trkpt lat="40.6652400" lon="-4.7132110">
        <ele>1082.0</ele>
        <time>2019-08-14T07:32:00Z</time>
      </trkpt>
      <trkpt lat="40.6652790" lon="-4.7132690">
        <ele>1082.0</ele>
        <time>2019-08-14T07:32:01Z</time>
      </trkpt>
      <trkpt lat="40.6653170" lon="-4.7133270">
        <ele>1082.1</ele>
        <time>2019-08-14T07:32:02Z</time>
      </trkpt>
      <trkpt lat="40.6653560" lon="-4.7133850">
        <ele>1082.1</ele>
        <time>2019-08-14T07:32:03Z</time>
      </trkpt>
      <trkpt lat="40.6653930" lon="-4.7134420">
        <ele>1082.2</ele>
        <time>2019-08-14T07:32:04Z</time>
      </trkpt>
      <trkpt lat="40.6654300" lon="-4.7134980">
        <ele>1082.2</ele>
        <time>2019-08-14T07:32:05Z</time>
      </trkpt>
      <trkpt lat="40.6654650" lon="-4.7135550">
        <ele>1082.2</ele>
        <time>2019-08-14T07:32:06Z</time>
      </trkpt>
      <trkpt lat="40.6655000" lon="-4.7136110">
        <ele>1082.2</ele>
        <time>2019-08-14T07:32:07Z</time>
      </trkpt>
      <trkpt lat="40.6655350" lon="-4.7136680">
        <ele>1082.3</ele>
        <time>2019-08-14T07:32:08Z</time>
      </trkpt>
      <trkpt lat="40.6655700" lon="-4.7137250">
        <ele>1082.3</ele>
        <time>2019-08-14T07:32:09Z</time>
      </trkpt>
      <trkpt lat="40.6656060" lon="-4.7137830">
        <ele>1082.3</ele>
        <time>2019-08-14T07:32:10Z</time>
      </trkpt>
      <trkpt lat="40.6656410" lon="-4.7138430">
        <ele>1082.3</ele>
        <time>2019-08-14T07:32:11Z</time>
      </trkpt>
      <trkpt lat="40.6656760" lon="-4.7139040">
        <ele>1082.4</ele>
        <time>2019-08-14T07:32:12Z</time>
      </trkpt>
      <trkpt lat="40.6657090" lon="-4.7139650">
        <ele>1082.5</ele>
        <time>2019-08-14T07:32:13Z</time>
      </trkpt>
      <trkpt lat="40.6657420" lon="-4.7140240">
        <ele>1082.5</ele>
        <time>2019-08-14T07:32:14Z</time>
      </trkpt>
      <trkpt lat="40.6657740" lon="-4.7140830">
        <ele>1082.6</ele>
        <time>2019-08-14T07:32:15Z</time>
      </trkpt>
      <trkpt lat="40.6658050" lon="-4.7141400">
        <ele>1082.7</ele>
        <time>2019-08-14T07:32:16Z</time>
      </trkpt>
      <trkpt lat="40.6658360" lon="-4.7141970">
        <ele>1082.7</ele>
        <time>2019-08-14T07:32:17Z</time>
      </trkpt>
      <trkpt lat="40.6658660" lon="-4.7142560">
        <ele>1082.8</ele>
        <time>2019-08-14T07:32:18Z</time>
      </trkpt>
      <trkpt lat="40.6658960" lon="-4.7143150">
        <ele>1082.9</ele>
        <time>2019-08-14T07:32:19Z</time>
      </trkpt>
      <trkpt lat="40.6659270" lon="-4.7143740">
        <ele>1082.8</ele>
        <time>2019-08-14T07:32:20Z</time>
      </trkpt>
      <trkpt lat="40.6659580" lon="-4.7144340">
        <ele>1082.7</ele>
        <time>2019-08-14T07:32:21Z</time>
      </trkpt>
      <trkpt lat="40.6659890" lon="-4.7144960">
        <ele>1082.7</ele>
        <time>2019-08-14T07:32:22Z</time>
      </trkpt>
      <trkpt lat="40.6660190" lon="-4.7145570">
        <ele>1082.6</ele>
        <time>2019-08-14T07:32:23Z</time>
      </trkpt>
      <trkpt lat="40.6660480" lon="-4.7146180">
        <ele>1082.6</ele>
        <time>2019-08-14T07:32:24Z</time>
      </trkpt>
      <trkpt lat="40.6660770" lon="-4.7146780">
        <ele>1082.6</ele>
        <time>2019-08-14T07:32:25Z</time>
      </trkpt>
      <trkpt lat="40.6661050" lon="-4.7147380">
        <ele>1082.5</ele>
        <time>2019-08-14T07:32:26Z</time>
      </trkpt>
      <trkpt lat="40.6661330" lon="-4.7147980">
        <ele>1082.5</ele>
        <time>2019-08-14T07:32:27Z</time>
      </trkpt>
      <trkpt lat="40.6661620" lon="-4.7148570">
        <ele>1082.5</ele>
        <time>2019-08-14T07:32:28Z</time>
      </trkpt>
      <trkpt lat="40.6661890" lon="-4.7149170">
        <ele>1082.5</ele>
        <time>2019-08-14T07:32:29Z</time>
      </trkpt>
      <trkpt lat="40.6662160" lon="-4.7149780">
        <ele>1082.5</ele>
        <time>2019-08-14T07:32:30Z</time>
      </trkpt>
      <trkpt lat="40.6662420" lon="-4.7150390">
        <ele>1082.4</ele>
        <time>2019-08-14T07:32:31Z</time>
      </trkpt>
      <trkpt lat="40.6662680" lon="-4.7151010">
        <ele>1082.4</ele>
        <time>2019-08-14T07:32:32Z</time>
      </trkpt>
      <trkpt lat="40.6662930" lon="-4.7151650">
        <ele>1082.4</ele>
        <time>2019-08-14T07:32:33Z</time>
      </trkpt>
      <trkpt lat="40.6663180" lon="-4.7152280">
        <ele>1082.6</ele>
        <time>2019-08-14T07:32:34Z</time>
      </trkpt>
      <trkpt lat="40.6663440" lon="-4.7152920">
        <ele>1082.7</ele>
        <time>2019-08-14T07:32:35Z</time>
      </trkpt>
      <trkpt lat="40.6663710" lon="-4.7153570">
        <ele>1082.8</ele>
        <time>2019-08-14T07:32:36Z</time>
      </trkpt>
      <trkpt lat="40.6663970" lon="-4.7154230">
        <ele>1082.9</ele>
        <time>2019-08-14T07:32:37Z</time>
      </trkpt>
      <trkpt lat="40.6664240" lon="-4.7154870">
        <ele>1083.0</ele>
        <time>2019-08-14T07:32:38Z</time>
      </trkpt>
      <trkpt lat="40.6664500" lon="-4.7155530">
        <ele>1083.1</ele>
        <time>2019-08-14T07:32:39Z</time>
      </trkpt>
      <trkpt lat="40.6664760" lon="-4.7156180">
        <ele>1083.2</ele>
        <time>2019-08-14T07:32:40Z</time>
      </trkpt>
      <trkpt lat="40.6665030" lon="-4.7156820">
        <ele>1083.2</ele>
        <time>2019-08-14T07:32:41Z</time>
      </trkpt>
      <trkpt lat="40.6665310" lon="-4.7157470">
        <ele>1083.3</ele>
        <time>2019-08-14T07:32:42Z</time>
      </trkpt>
      <trkpt lat="40.6665590" lon="-4.7158130">
        <ele>1083.4</ele>
        <time>2019-08-14T07:32:43Z</time>
      </trkpt>
      <trkpt lat="40.6665880" lon="-4.7158800">
        <ele>1083.4</ele>
        <time>2019-08-14T07:32:44Z</time>
      </trkpt>
      <trkpt lat="40.6666160" lon="-4.7159450">
        <ele>1083.5</ele>
        <time>2019-08-14T07:32:45Z</time>
      </trkpt>
      <trkpt lat="40.6666440" lon="-4.7160080">
        <ele>1083.5</ele>
        <time>2019-08-14T07:32:46Z</time>
      </trkpt>
      <trkpt lat="40.6666750" lon="-4.7160690">
        <ele>1083.6</ele>
        <time>2019-08-14T07:32:47Z</time>
      </trkpt>
      <trkpt lat="40.6667080" lon="-4.7161270">
        <ele>1083.6</ele>
        <time>2019-08-14T07:32:48Z</time>
      </trkpt>
      <trkpt lat="40.6667470" lon="-4.7161830">
        <ele>1083.7</ele>
        <time>2019-08-14T07:32:49Z</time>
      </trkpt>
      <trkpt lat="40.6667850" lon="-4.7162420">
        <ele>1083.7</ele>
        <time>2019-08-14T07:32:50Z</time>
      </trkpt>
      <trkpt lat="40.6668200" lon="-4.7163060">
        <ele>1083.7</ele>
        <time>2019-08-14T07:32:51Z</time>
      </trkpt>
      <trkpt lat="40.6668530" lon="-4.7163740">
        <ele>1083.8</ele>
        <time>2019-08-14T07:32:52Z</time>
      </trkpt>
      <trkpt lat="40.6668880" lon="-4.7164410">
        <ele>1083.8</ele>
        <time>2019-08-14T07:32:53Z</time>
      </trkpt>
      <trkpt lat="40.6669250" lon="-4.7165090">
        <ele>1083.7</ele>
        <time>2019-08-14T07:32:54Z</time>
      </trkpt>
      <trkpt lat="40.6669640" lon="-4.7165770">
        <ele>1083.7</ele>
        <time>2019-08-14T07:32:55Z</time>
      </trkpt>
      <trkpt lat="40.6670030" lon="-4.7166480">
        <ele>1083.7</ele>
        <time>2019-08-14T07:32:56Z</time>
      </trkpt>
      <trkpt lat="40.6670410" lon="-4.7167180">
        <ele>1083.6</ele>
        <time>2019-08-14T07:32:57Z</time>
      </trkpt>
      <trkpt lat="40.6670790" lon="-4.7167910">
        <ele>1083.6</ele>
        <time>2019-08-14T07:32:58Z</time>
      </trkpt>
      <trkpt lat="40.6671180" lon="-4.7168630">
        <ele>1083.6</ele>
        <time>2019-08-14T07:32:59Z</time>
      </trkpt>
      <trkpt lat="40.6671570" lon="-4.7169360">
        <ele>1083.6</ele>
        <time>2019-08-14T07:33:00Z</time>
      </trkpt>
      <trkpt lat="40.6671970" lon="-4.7170110">
        <ele>1083.7</ele>
        <time>2019-08-14T07:33:01Z</time>
      </trkpt>
      <trkpt lat="40.6672380" lon="-4.7170860">
        <ele>1083.7</ele>
        <time>2019-08-14T07:33:02Z</time>
      </trkpt>
      <trkpt lat="40.6672780" lon="-4.7171600">
        <ele>1083.7</ele>
        <time>2019-08-14T07:33:03Z</time>
      </trkpt>
      <trkpt lat="40.6673160" lon="-4.7172300">
        <ele>1083.7</ele>
        <time>2019-08-14T07:33:04Z</time>
      </trkpt>
      <trkpt lat="40.6673540" lon="-4.7172980">
        <ele>1083.6</ele>
        <time>2019-08-14T07:33:05Z</time>
      </trkpt>
      <trkpt lat="40.6673970" lon="-4.7173740">
        <ele>1083.6</ele>
        <time>2019-08-14T07:33:06Z</time>
      </trkpt>
      <trkpt lat="40.6674410" lon="-4.7174470">
        <ele>1083.4</ele>
        <time>2019-08-14T07:33:07Z</time>
      </trkpt>
      <trkpt lat="40.6674860" lon="-4.7175180">
        <ele>1082.9</ele>
        <time>2019-08-14T07:33:08Z</time>
      </trkpt>
      <trkpt lat="40.6675320" lon="-4.7175910">
        <ele>1082.6</ele>
        <time>2019-08-14T07:33:09Z</time>
      </trkpt>
      <trkpt lat="40.6675770" lon="-4.7176620">
        <ele>1082.3</ele>
        <time>2019-08-14T07:33:10Z</time>
      </trkpt>
      <trkpt lat="40.6676230" lon="-4.7177330">
        <ele>1082.0</ele>
        <time>2019-08-14T07:33:11Z</time>
      </trkpt>
      <trkpt lat="40.6676710" lon="-4.7178040">
        <ele>1081.8</ele>
        <time>2019-08-14T07:33:12Z</time>
      </trkpt>
      <trkpt lat="40.6677200" lon="-4.7178770">
        <ele>1081.5</ele>
        <time>2019-08-14T07:33:13Z</time>
      </trkpt>
      <trkpt lat="40.6677690" lon="-4.7179450">
        <ele>1081.3</ele>
        <time>2019-08-14T07:33:14Z</time>
      </trkpt>
      <trkpt lat="40.6678170" lon="-4.7180140">
        <ele>1081.0</ele>
        <time>2019-08-14T07:33:15Z</time>
      </trkpt>
      <trkpt lat="40.6678680" lon="-4.7180830">
        <ele>1080.5</ele>
        <time>2019-08-14T07:33:16Z</time>
      </trkpt>
      <trkpt lat="40.6679200" lon="-4.7181510">
        <ele>1080.2</ele>
        <time>2019-08-14T07:33:17Z</time>
      </trkpt>
      <trkpt lat="40.6679730" lon="-4.7182200">
        <ele>1079.6</ele>
        <time>2019-08-14T07:33:18Z</time>
      </trkpt>
      <trkpt lat="40.6680250" lon="-4.7182920">
        <ele>1079.2</ele>
        <time>2019-08-14T07:33:19Z</time>
      </trkpt>
      <trkpt lat="40.6680780" lon="-4.7183620">
        <ele>1078.9</ele>
        <time>2019-08-14T07:33:20Z</time>
      </trkpt>
      <trkpt lat="40.6681310" lon="-4.7184310">
        <ele>1078.4</ele>
        <time>2019-08-14T07:33:21Z</time>
      </trkpt>
      <trkpt lat="40.6681830" lon="-4.7185010">
        <ele>1077.9</ele>
        <time>2019-08-14T07:33:22Z</time>
      </trkpt>
      <trkpt lat="40.6682350" lon="-4.7185720">
        <ele>1077.3</ele>
        <time>2019-08-14T07:33:23Z</time>
      </trkpt>
      <trkpt lat="40.6682880" lon="-4.7186430">
        <ele>1076.8</ele>
        <time>2019-08-14T07:33:24Z</time>
      </trkpt>
      <trkpt lat="40.6683400" lon="-4.7187180">
        <ele>1076.5</ele>
        <time>2019-08-14T07:33:25Z</time>
      </trkpt>
      <trkpt lat="40.6683910" lon="-4.7187910">
        <ele>1076.2</ele>
        <time>2019-08-14T07:33:26Z</time>
      </trkpt>
      <trkpt lat="40.6684420" lon="-4.7188630">
        <ele>1075.9</ele>
        <time>2019-08-14T07:33:27Z</time>
      </trkpt>
      <trkpt lat="40.6684930" lon="-4.7189350">
        <ele>1075.6</ele>
        <time>2019-08-14T07:33:28Z</time>
      </trkpt>
      <trkpt lat="40.6685440" lon="-4.7190080">
        <ele>1075.5</ele>
        <time>2019-08-14T07:33:29Z</time>
      </trkpt>
      <trkpt lat="40.6685960" lon="-4.7190750">
        <ele>1075.5</ele>
        <time>2019-08-14T07:33:30Z</time>
      </trkpt>
      <trkpt lat="40.6686460" lon="-4.7191250">
        <ele>1075.4</ele>
        <time>2019-08-14T07:33:31Z</time>
      </trkpt>
      <trkpt lat="40.6686800" lon="-4.7191820">
        <ele>1075.4</ele>
        <time>2019-08-14T07:33:32Z</time>
      </trkpt>
      <trkpt lat="40.6687180" lon="-4.7192460">
        <ele>1075.4</ele>
        <time>2019-08-14T07:33:33Z</time>
      </trkpt>
      <trkpt lat="40.6687550" lon="-4.7193040">
        <ele>1075.4</ele>
        <time>2019-08-14T07:33:34Z</time>
      </trkpt>
      <trkpt lat="40.6687930" lon="-4.7193540">
        <ele>1075.4</ele>
        <time>2019-08-14T07:33:35Z</time>
      </trkpt>
      <trkpt lat="40.6688320" lon="-4.7193880">
        <ele>1075.5</ele>
        <time>2019-08-14T07:33:36Z</time>
      </trkpt>
      <trkpt lat="40.6688770" lon="-4.7194050">
        <ele>1075.5</ele>
        <time>2019-08-14T07:33:37Z</time>
      </trkpt>
      <trkpt lat="40.6689230" lon="-4.7193990">
        <ele>1075.6</ele>
        <time>2019-08-14T07:33:38Z</time>
      </trkpt>
      <trkpt lat="40.6689620" lon="-4.7193750">
        <ele>1075.6</ele>
        <time>2019-08-14T07:33:39Z</time>
      </trkpt>
      <trkpt lat="40.6690040" lon="-4.7193450">
        <ele>1075.7</ele>
        <time>2019-08-14T07:33:40Z</time>
      </trkpt>
      <trkpt lat="40.6690430" lon="-4.7193140">
        <ele>1075.8</ele>
        <time>2019-08-14T07:33:41Z</time>
      </trkpt>
      <trkpt lat="40.6690810" lon="-4.7192900">
        <ele>1075.9</ele>
        <time>2019-08-14T07:33:42Z</time>
      </trkpt>
      <trkpt lat="40.6691200" lon="-4.7192690">
        <ele>1076.0</ele>
        <time>2019-08-14T07:33:43Z</time>
      </trkpt>
      <trkpt lat="40.6691610" lon="-4.7192460">
        <ele>1076.1</ele>
        <time>2019-08-14T07:33:44Z</time>
      </trkpt>
      <trkpt lat="40.6692020" lon="-4.7192170">
        <ele>1076.3</ele>
        <time>2019-08-14T07:33:45Z</time>
      </trkpt>
      <trkpt lat="40.6692400" lon="-4.7191780">
        <ele>1076.4</ele>
        <time>2019-08-14T07:33:46Z</time>
      </trkpt>
      <trkpt lat="40.6692750" lon="-4.7191360">
        <ele>1076.6</ele>
        <time>2019-08-14T07:33:47Z</time>
      </trkpt>
      <trkpt lat="40.6693090" lon="-4.7190940">
        <ele>1076.8</ele>
        <time>2019-08-14T07:33:48Z</time>
      </trkpt>
      <trkpt lat="40.6693420" lon="-4.7190550">
        <ele>1076.9</ele>
        <time>2019-08-14T07:33:49Z</time>
      </trkpt>
      <trkpt lat="40.6693770" lon="-4.7190240">
        <ele>1077.0</ele>
        <time>2019-08-14T07:33:50Z</time>
      </trkpt>
      <trkpt lat="40.6694150" lon="-4.7189990">
        <ele>1077.2</ele>
        <time>2019-08-14T07:33:51Z</time>
      </trkpt>
      <trkpt lat="40.6694580" lon="-4.7189750">
        <ele>1077.5</ele>
        <time>2019-08-14T07:33:52Z</time>
      </trkpt>
      <trkpt lat="40.6694960" lon="-4.7189500">
        <ele>1077.8</ele>
        <time>2019-08-14T07:33:53Z</time>
      </trkpt>
      <trkpt lat="40.6695440" lon="-4.7189220">
        <ele>1078.0</ele>
        <time>2019-08-14T07:33:55Z</time>
      </trkpt>
      <trkpt lat="40.6695710" lon="-4.7188840">
        <ele>1078.2</ele>
        <time>2019-08-14T07:33:57Z</time>
      </trkpt>
      <trkpt lat="40.6696210" lon="-4.7188600">
        <ele>1078.5</ele>
        <time>2019-08-14T07:33:59Z</time>
      </trkpt>
      <trkpt lat="40.6696510" lon="-4.7188460">
        <ele>1078.6</ele>
        <time>2019-08-14T07:34:00Z</time>
      </trkpt>
      <trkpt lat="40.6696780" lon="-4.7188360">
        <ele>1078.8</ele>
        <time>2019-08-14T07:34:01Z</time>
      </trkpt>
      <trkpt lat="40.6697070" lon="-4.7188270">
        <ele>1078.9</ele>
        <time>2019-08-14T07:34:02Z</time>
      </trkpt>
      <trkpt lat="40.6697340" lon="-4.7188200">
        <ele>1079.0</ele>
        <time>2019-08-14T07:34:03Z</time>
      </trkpt>
      <trkpt lat="40.6697640" lon="-4.7188130">
        <ele>1079.2</ele>
        <time>2019-08-14T07:34:04Z</time>
      </trkpt>
      <trkpt lat="40.6697920" lon="-4.7188050">
        <ele>1079.3</ele>
        <time>2019-08-14T07:34:05Z</time>
      </trkpt>
      <trkpt lat="40.6698200" lon="-4.7187940">
        <ele>1079.5</ele>
        <time>2019-08-14T07:34:06Z</time>
      </trkpt>
      <trkpt lat="40.6698480" lon="-4.7187850">
        <ele>1079.6</ele>
        <time>2019-08-14T07:34:07Z</time>
      </trkpt>
      <trkpt lat="40.6698770" lon="-4.7187780">
        <ele>1079.7</ele>
        <time>2019-08-14T07:34:08Z</time>
      </trkpt>
      <trkpt lat="40.6699060" lon="-4.7187730">
        <ele>1079.9</ele>
        <time>2019-08-14T07:34:09Z</time>
      </trkpt>
      <trkpt lat="40.6699350" lon="-4.7187670">
        <ele>1080.0</ele>
        <time>2019-08-14T07:34:10Z</time>
      </trkpt>
      <trkpt lat="40.6699630" lon="-4.7187610">
        <ele>1080.1</ele>
        <time>2019-08-14T07:34:11Z</time>
      </trkpt>
      <trkpt lat="40.6699920" lon="-4.7187590">
        <ele>1080.3</ele>
        <time>2019-08-14T07:34:12Z</time>
      </trkpt>
      <trkpt lat="40.6700210" lon="-4.7187580">
        <ele>1080.4</ele>
        <time>2019-08-14T07:34:13Z</time>
      </trkpt>
      <trkpt lat="40.6700510" lon="-4.7187560">
        <ele>1080.5</ele>
        <time>2019-08-14T07:34:14Z</time>
      </trkpt>
      <trkpt lat="40.6700800" lon="-4.7187550">
        <ele>1080.7</ele>
        <time>2019-08-14T07:34:15Z</time>
      </trkpt>
      <trkpt lat="40.6701090" lon="-4.7187540">
        <ele>1080.8</ele>
        <time>2019-08-14T07:34:16Z</time>
      </trkpt>
      <trkpt lat="40.6701390" lon="-4.7187540">
        <ele>1080.9</ele>
        <time>2019-08-14T07:34:17Z</time>
      </trkpt>
      <trkpt lat="40.6701670" lon="-4.7187530">
        <ele>1081.1</ele>
        <time>2019-08-14T07:34:18Z</time>
      </trkpt>
      <trkpt lat="40.6701950" lon="-4.7187520">
        <ele>1081.2</ele>
        <time>2019-08-14T07:34:19Z</time>
      </trkpt>
      <trkpt lat="40.6702240" lon="-4.7187520">
        <ele>1081.3</ele>
        <time>2019-08-14T07:34:20Z</time>
      </trkpt>
      <trkpt lat="40.6702510" lon="-4.7187530">
        <ele>1081.5</ele>
        <time>2019-08-14T07:34:21Z</time>
      </trkpt>
      <trkpt lat="40.6702780" lon="-4.7187540">
        <ele>1081.6</ele>
        <time>2019-08-14T07:34:22Z</time>
      </trkpt>
      <trkpt lat="40.6703330" lon="-4.7187530">
        <ele>1081.9</ele>
        <time>2019-08-14T07:34:24Z</time>
      </trkpt>
      <trkpt lat="40.6703610" lon="-4.7187540">
        <ele>1082.0</ele>
        <time>2019-08-14T07:34:25Z</time>
      </trkpt>
      <trkpt lat="40.6703890" lon="-4.7187550">
        <ele>1082.1</ele>
        <time>2019-08-14T07:34:26Z</time>
      </trkpt>
      <trkpt lat="40.6704170" lon="-4.7187560">
        <ele>1082.3</ele>
        <time>2019-08-14T07:34:27Z</time>
      </trkpt>
      <trkpt lat="40.6704460" lon="-4.7187550">
        <ele>1082.4</ele>
        <time>2019-08-14T07:34:28Z</time>
      </trkpt>
      <trkpt lat="40.6704760" lon="-4.7187540">
        <ele>1082.6</ele>
        <time>2019-08-14T07:34:29Z</time>
      </trkpt>
      <trkpt lat="40.6705050" lon="-4.7187520">
        <ele>1082.7</ele>
        <time>2019-08-14T07:34:30Z</time>
      </trkpt>
      <trkpt lat="40.6705360" lon="-4.7187520">
        <ele>1082.9</ele>
        <time>2019-08-14T07:34:31Z</time>
      </trkpt>
      <trkpt lat="40.6705660" lon="-4.7187520">
        <ele>1083.0</ele>
        <time>2019-08-14T07:34:32Z</time>
      </trkpt>
      <trkpt lat="40.6705950" lon="-4.7187520">
        <ele>1083.2</ele>
        <time>2019-08-14T07:34:33Z</time>
      </trkpt>
      <trkpt lat="40.6706230" lon="-4.7187510">
        <ele>1083.3</ele>
        <time>2019-08-14T07:34:34Z</time>
      </trkpt>
      <trkpt lat="40.6706520" lon="-4.7187520">
        <ele>1083.5</ele>
        <time>2019-08-14T07:34:35Z</time>
      </trkpt>
      <trkpt lat="40.6706820" lon="-4.7187520">
        <ele>1083.6</ele>
        <time>2019-08-14T07:34:36Z</time>
      </trkpt>
      <trkpt lat="40.6707130" lon="-4.7187510">
        <ele>1083.8</ele>
        <time>2019-08-14T07:34:37Z</time>
      </trkpt>
      <trkpt lat="40.6707450" lon="-4.7187500">
        <ele>1084.0</ele>
        <time>2019-08-14T07:34:38Z</time>
      </trkpt>
      <trkpt lat="40.6707760" lon="-4.7187490">
        <ele>1084.1</ele>
        <time>2019-08-14T07:34:39Z</time>
      </trkpt>
      <trkpt lat="40.6708070" lon="-4.7187470">
        <ele>1084.3</ele>
        <time>2019-08-14T07:34:40Z</time>
      </trkpt>
      <trkpt lat="40.6708380" lon="-4.7187450">
        <ele>1084.4</ele>
        <time>2019-08-14T07:34:41Z</time>
      </trkpt>
      <trkpt lat="40.6708690" lon="-4.7187440">
        <ele>1084.6</ele>
        <time>2019-08-14T07:34:42Z</time>
      </trkpt>
      <trkpt lat="40.6709000" lon="-4.7187440">
        <ele>1084.7</ele>
        <time>2019-08-14T07:34:43Z</time>
      </trkpt>
      <trkpt lat="40.6709320" lon="-4.7187430">
        <ele>1084.9</ele>
        <time>2019-08-14T07:34:44Z</time>
      </trkpt>
      <trkpt lat="40.6709640" lon="-4.7187420">
        <ele>1085.0</ele>
        <time>2019-08-14T07:34:45Z</time>
      </trkpt>
      <trkpt lat="40.6709970" lon="-4.7187420">
        <ele>1085.2</ele>
        <time>2019-08-14T07:34:46Z</time>
      </trkpt>
      <trkpt lat="40.6710300" lon="-4.7187420">
        <ele>1085.3</ele>
        <time>2019-08-14T07:34:47Z</time>
      </trkpt>
      <trkpt lat="40.6710620" lon="-4.7187430">
        <ele>1085.5</ele>
        <time>2019-08-14T07:34:48Z</time>
      </trkpt>
      <trkpt lat="40.6710930" lon="-4.7187430">
        <ele>1085.6</ele>
        <time>2019-08-14T07:34:49Z</time>
      </trkpt>
      <trkpt lat="40.6711230" lon="-4.7187440">
        <ele>1085.7</ele>
        <time>2019-08-14T07:34:50Z</time>
      </trkpt>
      <trkpt lat="40.6711530" lon="-4.7187440">
        <ele>1085.8</ele>
        <time>2019-08-14T07:34:51Z</time>
      </trkpt>
      <trkpt lat="40.6711830" lon="-4.7187440">
        <ele>1085.9</ele>
        <time>2019-08-14T07:34:52Z</time>
      </trkpt>
      <trkpt lat="40.6712130" lon="-4.7187440">
        <ele>1086.0</ele>
        <time>2019-08-14T07:34:53Z</time>
      </trkpt>
      <trkpt lat="40.6712430" lon="-4.7187430">
        <ele>1086.0</ele>
        <time>2019-08-14T07:34:54Z</time>
      </trkpt>
      <trkpt lat="40.6712730" lon="-4.7187440">
        <ele>1086.1</ele>
        <time>2019-08-14T07:34:55Z</time>
      </trkpt>
      <trkpt lat="40.6713040" lon="-4.7187440">
        <ele>1086.3</ele>
        <time>2019-08-14T07:34:56Z</time>
      </trkpt>
      <trkpt lat="40.6713340" lon="-4.7187450">
        <ele>1086.4</ele>
        <time>2019-08-14T07:34:57Z</time>
      </trkpt>
      <trkpt lat="40.6713640" lon="-4.7187440">
        <ele>1086.5</ele>
        <time>2019-08-14T07:34:58Z</time>
      </trkpt>
      <trkpt lat="40.6713940" lon="-4.7187440">
        <ele>1086.7</ele>
        <time>2019-08-14T07:34:59Z</time>
      </trkpt>
      <trkpt lat="40.6714240" lon="-4.7187440">
        <ele>1086.8</ele>
        <time>2019-08-14T07:35:00Z</time>
      </trkpt>
      <trkpt lat="40.6714530" lon="-4.7187460">
        <ele>1086.9</ele>
        <time>2019-08-14T07:35:01Z</time>
      </trkpt>
      <trkpt lat="40.6714820" lon="-4.7187470">
        <ele>1087.1</ele>
        <time>2019-08-14T07:35:02Z</time>
      </trkpt>
      <trkpt lat="40.6715110" lon="-4.7187470">
        <ele>1087.2</ele>
        <time>2019-08-14T07:35:03Z</time>
      </trkpt>
      <trkpt lat="40.6715400" lon="-4.7187480">
        <ele>1087.4</ele>
        <time>2019-08-14T07:35:04Z</time>
      </trkpt>
      <trkpt lat="40.6715690" lon="-4.7187500">
        <ele>1087.5</ele>
        <time>2019-08-14T07:35:05Z</time>
      </trkpt>
      <trkpt lat="40.6715980" lon="-4.7187500">
        <ele>1087.6</ele>
        <time>2019-08-14T07:35:06Z</time>
      </trkpt>
      <trkpt lat="40.6716270" lon="-4.7187490">
        <ele>1087.8</ele>
        <time>2019-08-14T07:35:07Z</time>
      </trkpt>
      <trkpt lat="40.6716560" lon="-4.7187490">
        <ele>1087.9</ele>
        <time>2019-08-14T07:35:08Z</time>
      </trkpt>
      <trkpt lat="40.6716830" lon="-4.7187500">
        <ele>1088.1</ele>
        <time>2019-08-14T07:35:09Z</time>
      </trkpt>
      <trkpt lat="40.6717110" lon="-4.7187510">
        <ele>1088.2</ele>
        <time>2019-08-14T07:35:10Z</time>
      </trkpt>
      <trkpt lat="40.6717380" lon="-4.7187510">
        <ele>1088.3</ele>
        <time>2019-08-14T07:35:11Z</time>
      </trkpt>
      <trkpt lat="40.6717920" lon="-4.7187490">
        <ele>1088.6</ele>
        <time>2019-08-14T07:35:13Z</time>
      </trkpt>
      <trkpt lat="40.6718450" lon="-4.7187500">
        <ele>1088.9</ele>
        <time>2019-08-14T07:35:15Z</time>
      </trkpt>
      <trkpt lat="40.6718980" lon="-4.7187490">
        <ele>1089.1</ele>
        <time>2019-08-14T07:35:17Z</time>
      </trkpt>
      <trkpt lat="40.6719250" lon="-4.7187480">
        <ele>1089.2</ele>
        <time>2019-08-14T07:35:18Z</time>
      </trkpt>
      <trkpt lat="40.6719530" lon="-4.7187470">
        <ele>1089.4</ele>
        <time>2019-08-14T07:35:19Z</time>
      </trkpt>
      <trkpt lat="40.6719810" lon="-4.7187480">
        <ele>1089.5</ele>
        <time>2019-08-14T07:35:20Z</time>
      </trkpt>
      <trkpt lat="40.6720100" lon="-4.7187490">
        <ele>1089.6</ele>
        <time>2019-08-14T07:35:21Z</time>
      </trkpt>
      <trkpt lat="40.6720400" lon="-4.7187500">
        <ele>1089.7</ele>
        <time>2019-08-14T07:35:22Z</time>
      </trkpt>
      <trkpt lat="40.6720700" lon="-4.7187540">
        <ele>1089.8</ele>
        <time>2019-08-14T07:35:23Z</time>
      </trkpt>
      <trkpt lat="40.6721010" lon="-4.7187590">
        <ele>1089.9</ele>
        <time>2019-08-14T07:35:24Z</time>
      </trkpt>
      <trkpt lat="40.6721320" lon="-4.7187650">
        <ele>1090.0</ele>
        <time>2019-08-14T07:35:25Z</time>
      </trkpt>
      <trkpt lat="40.6721630" lon="-4.7187730">
        <ele>1090.1</ele>
        <time>2019-08-14T07:35:26Z</time>
      </trkpt>
      <trkpt lat="40.6721960" lon="-4.7187830">
        <ele>1090.1</ele>
        <time>2019-08-14T07:35:27Z</time>
      </trkpt>
      <trkpt lat="40.6722280" lon="-4.7187940">
        <ele>1090.1</ele>
        <time>2019-08-14T07:35:28Z</time>
      </trkpt>
      <trkpt lat="40.6722610" lon="-4.7188060">
        <ele>1090.2</ele>
        <time>2019-08-14T07:35:29Z</time>
      </trkpt>
      <trkpt lat="40.6722940" lon="-4.7188170">
        <ele>1090.2</ele>
        <time>2019-08-14T07:35:30Z</time>
      </trkpt>
      <trkpt lat="40.6723270" lon="-4.7188290">
        <ele>1090.2</ele>
        <time>2019-08-14T07:35:31Z</time>
      </trkpt>
      <trkpt lat="40.6723590" lon="-4.7188410">
        <ele>1090.3</ele>
        <time>2019-08-14T07:35:32Z</time>
      </trkpt>
      <trkpt lat="40.6723920" lon="-4.7188520">
        <ele>1090.3</ele>
        <time>2019-08-14T07:35:33Z</time>
      </trkpt>
      <trkpt lat="40.6724250" lon="-4.7188650">
        <ele>1090.3</ele>
        <time>2019-08-14T07:35:34Z</time>
      </trkpt>
      <trkpt lat="40.6724570" lon="-4.7188780">
        <ele>1090.3</ele>
        <time>2019-08-14T07:35:35Z</time>
      </trkpt>
      <trkpt lat="40.6724910" lon="-4.7188910">
        <ele>1090.4</ele>
        <time>2019-08-14T07:35:36Z</time>
      </trkpt>
      <trkpt lat="40.6725270" lon="-4.7189030">
        <ele>1090.2</ele>
        <time>2019-08-14T07:35:37Z</time>
      </trkpt>
      <trkpt lat="40.6725650" lon="-4.7189160">
        <ele>1090.1</ele>
        <time>2019-08-14T07:35:38Z</time>
      </trkpt>
      <trkpt lat="40.6726050" lon="-4.7189290">
        <ele>1090.0</ele>
        <time>2019-08-14T07:35:39Z</time>
      </trkpt>
      <trkpt lat="40.6726480" lon="-4.7189430">
        <ele>1089.9</ele>
        <time>2019-08-14T07:35:40Z</time>
      </trkpt>
      <trkpt lat="40.6726900" lon="-4.7189590">
        <ele>1089.8</ele>
        <time>2019-08-14T07:35:41Z</time>
      </trkpt>
      <trkpt lat="40.6727320" lon="-4.7189750">
        <ele>1089.7</ele>
        <time>2019-08-14T07:35:42Z</time>
      </trkpt>
      <trkpt lat="40.6727750" lon="-4.7189910">
        <ele>1089.6</ele>
        <time>2019-08-14T07:35:43Z</time>
      </trkpt>
      <trkpt lat="40.6728190" lon="-4.7190090">
        <ele>1089.6</ele>
        <time>2019-08-14T07:35:44Z</time>
      </trkpt>
      <trkpt lat="40.6728610" lon="-4.7190240">
        <ele>1089.5</ele>
        <time>2019-08-14T07:35:45Z</time>
      </trkpt>
      <trkpt lat="40.6729020" lon="-4.7190390">
        <ele>1089.5</ele>
        <time>2019-08-14T07:35:46Z</time>
      </trkpt>
      <trkpt lat="40.6729440" lon="-4.7190530">
        <ele>1089.4</ele>
        <time>2019-08-14T07:35:47Z</time>
      </trkpt>
      <trkpt lat="40.6729850" lon="-4.7190670">
        <ele>1089.4</ele>
        <time>2019-08-14T07:35:48Z</time>
      </trkpt>
      <trkpt lat="40.6730260" lon="-4.7190810">
        <ele>1089.4</ele>
        <time>2019-08-14T07:35:49Z</time>
      </trkpt>
      <trkpt lat="40.6730690" lon="-4.7190970">
        <ele>1089.4</ele>
        <time>2019-08-14T07:35:50Z</time>
      </trkpt>
      <trkpt lat="40.6731140" lon="-4.7191120">
        <ele>1089.4</ele>
        <time>2019-08-14T07:35:51Z</time>
      </trkpt>
      <trkpt lat="40.6731620" lon="-4.7191270">
        <ele>1089.4</ele>
        <time>2019-08-14T07:35:52Z</time>
      </trkpt>
      <trkpt lat="40.6732100" lon="-4.7191420">
        <ele>1089.5</ele>
        <time>2019-08-14T07:35:53Z</time>
      </trkpt>
      <trkpt lat="40.6732580" lon="-4.7191590">
        <ele>1089.5</ele>
        <time>2019-08-14T07:35:54Z</time>
      </trkpt>
      <trkpt lat="40.6733060" lon="-4.7191740">
        <ele>1089.5</ele>
        <time>2019-08-14T07:35:55Z</time>
      </trkpt>
      <trkpt lat="40.6733550" lon="-4.7191880">
        <ele>1089.6</ele>
        <time>2019-08-14T07:35:56Z</time>
      </trkpt>
      <trkpt lat="40.6734030" lon="-4.7192040">
        <ele>1089.6</ele>
        <time>2019-08-14T07:35:57Z</time>
      </trkpt>
      <trkpt lat="40.6734490" lon="-4.7192190">
        <ele>1089.7</ele>
        <time>2019-08-14T07:35:58Z</time>
      </trkpt>
      <trkpt lat="40.6734950" lon="-4.7192350">
        <ele>1089.7</ele>
        <time>2019-08-14T07:35:59Z</time>
      </trkpt>
      <trkpt lat="40.6735420" lon="-4.7192490">
        <ele>1089.8</ele>
        <time>2019-08-14T07:36:00Z</time>
      </trkpt>
      <trkpt lat="40.6735890" lon="-4.7192650">
        <ele>1089.9</ele>
        <time>2019-08-14T07:36:01Z</time>
      </trkpt>
      <trkpt lat="40.6736370" lon="-4.7192840">
        <ele>1090.0</ele>
        <time>2019-08-14T07:36:02Z</time>
      </trkpt>
      <trkpt lat="40.6736850" lon="-4.7193040">
        <ele>1090.1</ele>
        <time>2019-08-14T07:36:03Z</time>
      </trkpt>
      <trkpt lat="40.6737330" lon="-4.7193220">
        <ele>1090.2</ele>
        <time>2019-08-14T07:36:04Z</time>
      </trkpt>
      <trkpt lat="40.6737820" lon="-4.7193420">
        <ele>1090.3</ele>
        <time>2019-08-14T07:36:05Z</time>
      </trkpt>
      <trkpt lat="40.6738310" lon="-4.7193660">
        <ele>1090.4</ele>
        <time>2019-08-14T07:36:06Z</time>
      </trkpt>
      <trkpt lat="40.6738770" lon="-4.7193930">
        <ele>1090.4</ele>
        <time>2019-08-14T07:36:07Z</time>
      </trkpt>
      <trkpt lat="40.6739200" lon="-4.7194230">
        <ele>1090.5</ele>
        <time>2019-08-14T07:36:08Z</time>
      </trkpt>
      <trkpt lat="40.6739620" lon="-4.7194530">
        <ele>1090.5</ele>
        <time>2019-08-14T07:36:09Z</time>
      </trkpt>
      <trkpt lat="40.6740000" lon="-4.7194830">
        <ele>1090.5</ele>
        <time>2019-08-14T07:36:10Z</time>
      </trkpt>
      <trkpt lat="40.6740370" lon="-4.7195150">
        <ele>1090.5</ele>
        <time>2019-08-14T07:36:11Z</time>
      </trkpt>
      <trkpt lat="40.6740750" lon="-4.7195490">
        <ele>1090.7</ele>
        <time>2019-08-14T07:36:12Z</time>
      </trkpt>
      <trkpt lat="40.6741130" lon="-4.7195830">
        <ele>1090.8</ele>
        <time>2019-08-14T07:36:13Z</time>
      </trkpt>
      <trkpt lat="40.6741530" lon="-4.7196200">
        <ele>1090.8</ele>
        <time>2019-08-14T07:36:14Z</time>
      </trkpt>
      <trkpt lat="40.6741910" lon="-4.7196580">
        <ele>1090.8</ele>
        <time>2019-08-14T07:36:15Z</time>
      </trkpt>
      <trkpt lat="40.6742290" lon="-4.7196970">
        <ele>1090.8</ele>
        <time>2019-08-14T07:36:16Z</time>
      </trkpt>
      <trkpt lat="40.6742650" lon="-4.7197360">
        <ele>1090.8</ele>
        <time>2019-08-14T07:36:17Z</time>
      </trkpt>
      <trkpt lat="40.6743000" lon="-4.7197760">
        <ele>1090.8</ele>
        <time>2019-08-14T07:36:18Z</time>
      </trkpt>
      <trkpt lat="40.6743340" lon="-4.7198140">
        <ele>1090.8</ele>
        <time>2019-08-14T07:36:19Z</time>
      </trkpt>
      <trkpt lat="40.6743670" lon="-4.7198520">
        <ele>1090.8</ele>
        <time>2019-08-14T07:36:20Z</time>
      </trkpt>
      <trkpt lat="40.6743990" lon="-4.7198910">
        <ele>1090.8</ele>
        <time>2019-08-14T07:36:21Z</time>
      </trkpt>
      <trkpt lat="40.6744300" lon="-4.7199300">
        <ele>1090.8</ele>
        <time>2019-08-14T07:36:22Z</time>
      </trkpt>
      <trkpt lat="40.6744600" lon="-4.7199710">
        <ele>1090.8</ele>
        <time>2019-08-14T07:36:23Z</time>
      </trkpt>
      <trkpt lat="40.6744900" lon="-4.7200110">
        <ele>1090.8</ele>
        <time>2019-08-14T07:36:24Z</time>
      </trkpt>
      <trkpt lat="40.6745200" lon="-4.7200530">
        <ele>1090.8</ele>
        <time>2019-08-14T07:36:25Z</time>
      </trkpt>
      <trkpt lat="40.6745490" lon="-4.7200910">
        <ele>1090.8</ele>
        <time>2019-08-14T07:36:26Z</time>
      </trkpt>
      <trkpt lat="40.6745780" lon="-4.7201280">
        <ele>1090.8</ele>
        <time>2019-08-14T07:36:27Z</time>
      </trkpt>
      <trkpt lat="40.6746060" lon="-4.7201680">
        <ele>1090.8</ele>
        <time>2019-08-14T07:36:28Z</time>
      </trkpt>
      <trkpt lat="40.6746340" lon="-4.7202070">
        <ele>1090.8</ele>
        <time>2019-08-14T07:36:29Z</time>
      </trkpt>
      <trkpt lat="40.6746600" lon="-4.7202450">
        <ele>1090.8</ele>
        <time>2019-08-14T07:36:30Z</time>
      </trkpt>
      <trkpt lat="40.6746850" lon="-4.7202820">
        <ele>1090.8</ele>
        <time>2019-08-14T07:36:31Z</time>
      </trkpt>
      <trkpt lat="40.6747120" lon="-4.7203200">
        <ele>1090.7</ele>
        <time>2019-08-14T07:36:32Z</time>
      </trkpt>
      <trkpt lat="40.6747390" lon="-4.7203570">
        <ele>1090.7</ele>
        <time>2019-08-14T07:36:33Z</time>
      </trkpt>
      <trkpt lat="40.6747670" lon="-4.7203930">
        <ele>1090.7</ele>
        <time>2019-08-14T07:36:34Z</time>
      </trkpt>
      <trkpt lat="40.6747950" lon="-4.7204310">
        <ele>1090.7</ele>
        <time>2019-08-14T07:36:35Z</time>
      </trkpt>
      <trkpt lat="40.6748230" lon="-4.7204690">
        <ele>1090.7</ele>
        <time>2019-08-14T07:36:36Z</time>
      </trkpt>
      <trkpt lat="40.6748510" lon="-4.7205090">
        <ele>1090.7</ele>
        <time>2019-08-14T07:36:37Z</time>
      </trkpt>
      <trkpt lat="40.6748800" lon="-4.7205480">
        <ele>1090.7</ele>
        <time>2019-08-14T07:36:38Z</time>
      </trkpt>
      <trkpt lat="40.6749090" lon="-4.7205890">
        <ele>1090.7</ele>
        <time>2019-08-14T07:36:39Z</time>
      </trkpt>
      <trkpt lat="40.6749390" lon="-4.7206290">
        <ele>1090.6</ele>
        <time>2019-08-14T07:36:40Z</time>
      </trkpt>
      <trkpt lat="40.6749700" lon="-4.7206700">
        <ele>1090.6</ele>
        <time>2019-08-14T07:36:41Z</time>
      </trkpt>
      <trkpt lat="40.6749990" lon="-4.7207100">
        <ele>1090.6</ele>
        <time>2019-08-14T07:36:42Z</time>
      </trkpt>
      <trkpt lat="40.6750270" lon="-4.7207490">
        <ele>1090.5</ele>
        <time>2019-08-14T07:36:43Z</time>
      </trkpt>
      <trkpt lat="40.6750530" lon="-4.7207860">
        <ele>1090.5</ele>
        <time>2019-08-14T07:36:44Z</time>
      </trkpt>
      <trkpt lat="40.6750790" lon="-4.7208230">
        <ele>1090.4</ele>
        <time>2019-08-14T07:36:45Z</time>
      </trkpt>
      <trkpt lat="40.6751040" lon="-4.7208580">
        <ele>1090.4</ele>
        <time>2019-08-14T07:36:46Z</time>
      </trkpt>
      <trkpt lat="40.6751310" lon="-4.7208930">
        <ele>1090.3</ele>
        <time>2019-08-14T07:36:47Z</time>
      </trkpt>
      <trkpt lat="40.6751590" lon="-4.7209260">
        <ele>1090.2</ele>
        <time>2019-08-14T07:36:48Z</time>
      </trkpt>
      <trkpt lat="40.6751870" lon="-4.7209600">
        <ele>1090.2</ele>
        <time>2019-08-14T07:36:49Z</time>
      </trkpt>
      <trkpt lat="40.6752150" lon="-4.7209970">
        <ele>1090.1</ele>
        <time>2019-08-14T07:36:50Z</time>
      </trkpt>
      <trkpt lat="40.6752460" lon="-4.7210370">
        <ele>1090.1</ele>
        <time>2019-08-14T07:36:51Z</time>
      </trkpt>
      <trkpt lat="40.6752780" lon="-4.7210790">
        <ele>1090.0</ele>
        <time>2019-08-14T07:36:52Z</time>
      </trkpt>
      <trkpt lat="40.6753120" lon="-4.7211220">
        <ele>1090.0</ele>
        <time>2019-08-14T07:36:53Z</time>
      </trkpt>
      <trkpt lat="40.6753460" lon="-4.7211670">
        <ele>1089.9</ele>
        <time>2019-08-14T07:36:54Z</time>
      </trkpt>
      <trkpt lat="40.6753800" lon="-4.7212120">
        <ele>1089.9</ele>
        <time>2019-08-14T07:36:55Z</time>
      </trkpt>
      <trkpt lat="40.6754150" lon="-4.7212560">
        <ele>1089.8</ele>
        <time>2019-08-14T07:36:56Z</time>
      </trkpt>
      <trkpt lat="40.6754480" lon="-4.7212990">
        <ele>1089.8</ele>
        <time>2019-08-14T07:36:57Z</time>
      </trkpt>
      <trkpt lat="40.6754810" lon="-4.7213420">
        <ele>1089.8</ele>
        <time>2019-08-14T07:36:58Z</time>
      </trkpt>
      <trkpt lat="40.6755150" lon="-4.7213860">
        <ele>1089.8</ele>
        <time>2019-08-14T07:36:59Z</time>
      </trkpt>
      <trkpt lat="40.6755490" lon="-4.7214290">
        <ele>1089.8</ele>
        <time>2019-08-14T07:37:00Z</time>
      </trkpt>
      <trkpt lat="40.6755820" lon="-4.7214740">
        <ele>1089.8</ele>
        <time>2019-08-14T07:37:01Z</time>
      </trkpt>
      <trkpt lat="40.6756160" lon="-4.7215210">
        <ele>1089.8</ele>
        <time>2019-08-14T07:37:02Z</time>
      </trkpt>
      <trkpt lat="40.6756500" lon="-4.7215660">
        <ele>1089.8</ele>
        <time>2019-08-14T07:37:03Z</time>
      </trkpt>
      <trkpt lat="40.6756840" lon="-4.7216100">
        <ele>1089.8</ele>
        <time>2019-08-14T07:37:04Z</time>
      </trkpt>
      <trkpt lat="40.6757170" lon="-4.7216540">
        <ele>1089.8</ele>
        <time>2019-08-14T07:37:05Z</time>
      </trkpt>
      <trkpt lat="40.6757500" lon="-4.7216940">
        <ele>1089.8</ele>
        <time>2019-08-14T07:37:06Z</time>
      </trkpt>
      <trkpt lat="40.6757830" lon="-4.7217370">
        <ele>1089.8</ele>
        <time>2019-08-14T07:37:07Z</time>
      </trkpt>
      <trkpt lat="40.6758150" lon="-4.7217800">
        <ele>1089.8</ele>
        <time>2019-08-14T07:37:08Z</time>
      </trkpt>
      <trkpt lat="40.6758480" lon="-4.7218260">
        <ele>1089.8</ele>
        <time>2019-08-14T07:37:09Z</time>
      </trkpt>
      <trkpt lat="40.6758840" lon="-4.7218730">
        <ele>1089.8</ele>
        <time>2019-08-14T07:37:10Z</time>
      </trkpt>
      <trkpt lat="40.6759210" lon="-4.7219200">
        <ele>1089.8</ele>
        <time>2019-08-14T07:37:11Z</time>
      </trkpt>
      <trkpt lat="40.6759580" lon="-4.7219670">
        <ele>1089.9</ele>
        <time>2019-08-14T07:37:12Z</time>
      </trkpt>
      <trkpt lat="40.6759950" lon="-4.7220130">
        <ele>1089.9</ele>
        <time>2019-08-14T07:37:13Z</time>
      </trkpt>
      <trkpt lat="40.6760320" lon="-4.7220570">
        <ele>1090.0</ele>
        <time>2019-08-14T07:37:14Z</time>
      </trkpt>
      <trkpt lat="40.6760680" lon="-4.7221010">
        <ele>1090.0</ele>
        <time>2019-08-14T07:37:15Z</time>
      </trkpt>
      <trkpt lat="40.6761040" lon="-4.7221460">
        <ele>1090.1</ele>
        <time>2019-08-14T07:37:16Z</time>
      </trkpt>
      <trkpt lat="40.6761400" lon="-4.7221930">
        <ele>1090.2</ele>
        <time>2019-08-14T07:37:17Z</time>
      </trkpt>
      <trkpt lat="40.6761780" lon="-4.7222410">
        <ele>1090.2</ele>
        <time>2019-08-14T07:37:18Z</time>
      </trkpt>
      <trkpt lat="40.6762150" lon="-4.7222900">
        <ele>1090.3</ele>
        <time>2019-08-14T07:37:19Z</time>
      </trkpt>
      <trkpt lat="40.6762520" lon="-4.7223390">
        <ele>1090.3</ele>
        <time>2019-08-14T07:37:20Z</time>
      </trkpt>
      <trkpt lat="40.6762880" lon="-4.7223860">
        <ele>1090.4</ele>
        <time>2019-08-14T07:37:21Z</time>
      </trkpt>
      <trkpt lat="40.6763250" lon="-4.7224330">
        <ele>1090.5</ele>
        <time>2019-08-14T07:37:22Z</time>
      </trkpt>
      <trkpt lat="40.6763610" lon="-4.7224790">
        <ele>1090.5</ele>
        <time>2019-08-14T07:37:23Z</time>
      </trkpt>
      <trkpt lat="40.6763950" lon="-4.7225250">
        <ele>1090.6</ele>
        <time>2019-08-14T07:37:24Z</time>
      </trkpt>
      <trkpt lat="40.6764300" lon="-4.7225720">
        <ele>1090.7</ele>
        <time>2019-08-14T07:37:25Z</time>
      </trkpt>
      <trkpt lat="40.6764650" lon="-4.7226180">
        <ele>1090.7</ele>
        <time>2019-08-14T07:37:26Z</time>
      </trkpt>
      <trkpt lat="40.6764980" lon="-4.7226640">
        <ele>1090.8</ele>
        <time>2019-08-14T07:37:27Z</time>
      </trkpt>
      <trkpt lat="40.6765320" lon="-4.7227090">
        <ele>1090.9</ele>
        <time>2019-08-14T07:37:28Z</time>
      </trkpt>
      <trkpt lat="40.6765670" lon="-4.7227520">
        <ele>1090.9</ele>
        <time>2019-08-14T07:37:29Z</time>
      </trkpt>
      <trkpt lat="40.6766010" lon="-4.7227950">
        <ele>1091.0</ele>
        <time>2019-08-14T07:37:30Z</time>
      </trkpt>
      <trkpt lat="40.6766350" lon="-4.7228390">
        <ele>1091.1</ele>
        <time>2019-08-14T07:37:31Z</time>
      </trkpt>
      <trkpt lat="40.6766690" lon="-4.7228840">
        <ele>1091.1</ele>
        <time>2019-08-14T07:37:32Z</time>
      </trkpt>
      <trkpt lat="40.6767020" lon="-4.7229290">
        <ele>1091.2</ele>
        <time>2019-08-14T07:37:33Z</time>
      </trkpt>
      <trkpt lat="40.6767350" lon="-4.7229760">
        <ele>1091.3</ele>
        <time>2019-08-14T07:37:34Z</time>
      </trkpt>
      <trkpt lat="40.6767670" lon="-4.7230210">
        <ele>1091.4</ele>
        <time>2019-08-14T07:37:35Z</time>
      </trkpt>
      <trkpt lat="40.6768000" lon="-4.7230650">
        <ele>1091.4</ele>
        <time>2019-08-14T07:37:36Z</time>
      </trkpt>
      <trkpt lat="40.6768330" lon="-4.7231100">
        <ele>1091.5</ele>
        <time>2019-08-14T07:37:37Z</time>
      </trkpt>
      <trkpt lat="40.6768660" lon="-4.7231550">
        <ele>1091.7</ele>
        <time>2019-08-14T07:37:38Z</time>
      </trkpt>
      <trkpt lat="40.6768990" lon="-4.7231990">
        <ele>1091.8</ele>
        <time>2019-08-14T07:37:39Z</time>
      </trkpt>
      <trkpt lat="40.6769320" lon="-4.7232430">
        <ele>1091.9</ele>
        <time>2019-08-14T07:37:40Z</time>
      </trkpt>
      <trkpt lat="40.6769650" lon="-4.7232860">
        <ele>1092.1</ele>
        <time>2019-08-14T07:37:41Z</time>
      </trkpt>
      <trkpt lat="40.6769970" lon="-4.7233270">
        <ele>1092.2</ele>
        <time>2019-08-14T07:37:42Z</time>
      </trkpt>
      <trkpt lat="40.6770300" lon="-4.7233690">
        <ele>1092.4</ele>
        <time>2019-08-14T07:37:43Z</time>
      </trkpt>
      <trkpt lat="40.6770640" lon="-4.7234120">
        <ele>1092.5</ele>
        <time>2019-08-14T07:37:44Z</time>
      </trkpt>
      <trkpt lat="40.6770980" lon="-4.7234530">
        <ele>1092.7</ele>
        <time>2019-08-14T07:37:45Z</time>
      </trkpt>
      <trkpt lat="40.6771340" lon="-4.7234930">
        <ele>1092.9</ele>
        <time>2019-08-14T07:37:46Z</time>
      </trkpt>
      <trkpt lat="40.6771690" lon="-4.7235340">
        <ele>1093.0</ele>
        <time>2019-08-14T07:37:47Z</time>
      </trkpt>
      <trkpt lat="40.6772050" lon="-4.7235710">
        <ele>1093.2</ele>
        <time>2019-08-14T07:37:48Z</time>
      </trkpt>
      <trkpt lat="40.6772390" lon="-4.7236070">
        <ele>1093.2</ele>
        <time>2019-08-14T07:37:49Z</time>
      </trkpt>
      <trkpt lat="40.6772720" lon="-4.7236430">
        <ele>1093.3</ele>
        <time>2019-08-14T07:37:50Z</time>
      </trkpt>
      <trkpt lat="40.6773050" lon="-4.7236780">
        <ele>1093.4</ele>
        <time>2019-08-14T07:37:51Z</time>
      </trkpt>
      <trkpt lat="40.6773400" lon="-4.7237110">
        <ele>1093.4</ele>
        <time>2019-08-14T07:37:52Z</time>
      </trkpt>
      <trkpt lat="40.6773730" lon="-4.7237440">
        <ele>1093.5</ele>
        <time>2019-08-14T07:37:53Z</time>
      </trkpt>
      <trkpt lat="40.6774070" lon="-4.7237780">
        <ele>1093.5</ele>
        <time>2019-08-14T07:37:54Z</time>
      </trkpt>
      <trkpt lat="40.6774410" lon="-4.7238120">
        <ele>1093.5</ele>
        <time>2019-08-14T07:37:55Z</time>
      </trkpt>
      <trkpt lat="40.6774760" lon="-4.7238460">
        <ele>1093.5</ele>
        <time>2019-08-14T07:37:56Z</time>
      </trkpt>
      <trkpt lat="40.6775100" lon="-4.7238790">
        <ele>1093.5</ele>
        <time>2019-08-14T07:37:57Z</time>
      </trkpt>
      <trkpt lat="40.6775430" lon="-4.7239120">
        <ele>1093.5</ele>
        <time>2019-08-14T07:37:58Z</time>
      </trkpt>
      <trkpt lat="40.6775750" lon="-4.7239440">
        <ele>1093.5</ele>
        <time>2019-08-14T07:37:59Z</time>
      </trkpt>
      <trkpt lat="40.6776070" lon="-4.7239740">
        <ele>1093.5</ele>
        <time>2019-08-14T07:38:00Z</time>
      </trkpt>
      <trkpt lat="40.6776410" lon="-4.7240020">
        <ele>1093.5</ele>
        <time>2019-08-14T07:38:01Z</time>
      </trkpt>
      <trkpt lat="40.6776730" lon="-4.7240310">
        <ele>1093.5</ele>
        <time>2019-08-14T07:38:02Z</time>
      </trkpt>
      <trkpt lat="40.6777050" lon="-4.7240590">
        <ele>1093.5</ele>
        <time>2019-08-14T07:38:03Z</time>
      </trkpt>
      <trkpt lat="40.6777400" lon="-4.7240890">
        <ele>1093.5</ele>
        <time>2019-08-14T07:38:04Z</time>
      </trkpt>
      <trkpt lat="40.6777740" lon="-4.7241180">
        <ele>1093.4</ele>
        <time>2019-08-14T07:38:05Z</time>
      </trkpt>
      <trkpt lat="40.6778080" lon="-4.7241490">
        <ele>1093.4</ele>
        <time>2019-08-14T07:38:06Z</time>
      </trkpt>
      <trkpt lat="40.6778420" lon="-4.7241810">
        <ele>1093.3</ele>
        <time>2019-08-14T07:38:07Z</time>
      </trkpt>
      <trkpt lat="40.6778770" lon="-4.7242110">
        <ele>1093.2</ele>
        <time>2019-08-14T07:38:08Z</time>
      </trkpt>
      <trkpt lat="40.6779130" lon="-4.7242440">
        <ele>1093.1</ele>
        <time>2019-08-14T07:38:09Z</time>
      </trkpt>
      <trkpt lat="40.6779490" lon="-4.7242760">
        <ele>1093.0</ele>
        <time>2019-08-14T07:38:10Z</time>
      </trkpt>
      <trkpt lat="40.6779840" lon="-4.7243090">
        <ele>1092.8</ele>
        <time>2019-08-14T07:38:11Z</time>
      </trkpt>
      <trkpt lat="40.6780200" lon="-4.7243400">
        <ele>1092.7</ele>
        <time>2019-08-14T07:38:12Z</time>
      </trkpt>
      <trkpt lat="40.6780560" lon="-4.7243730">
        <ele>1092.5</ele>
        <time>2019-08-14T07:38:13Z</time>
      </trkpt>
      <trkpt lat="40.6780910" lon="-4.7244050">
        <ele>1092.2</ele>
        <time>2019-08-14T07:38:14Z</time>
      </trkpt>
      <trkpt lat="40.6781260" lon="-4.7244360">
        <ele>1092.0</ele>
        <time>2019-08-14T07:38:15Z</time>
      </trkpt>
      <trkpt lat="40.6781610" lon="-4.7244660">
        <ele>1091.8</ele>
        <time>2019-08-14T07:38:16Z</time>
      </trkpt>
      <trkpt lat="40.6781970" lon="-4.7244970">
        <ele>1091.5</ele>
        <time>2019-08-14T07:38:17Z</time>
      </trkpt>
      <trkpt lat="40.6782330" lon="-4.7245260">
        <ele>1091.2</ele>
        <time>2019-08-14T07:38:18Z</time>
      </trkpt>
      <trkpt lat="40.6782700" lon="-4.7245570">
        <ele>1091.0</ele>
        <time>2019-08-14T07:38:19Z</time>
      </trkpt>
      <trkpt lat="40.6783090" lon="-4.7245890">
        <ele>1090.7</ele>
        <time>2019-08-14T07:38:20Z</time>
      </trkpt>
      <trkpt lat="40.6783480" lon="-4.7246220">
        <ele>1090.4</ele>
        <time>2019-08-14T07:38:21Z</time>
      </trkpt>
      <trkpt lat="40.6783850" lon="-4.7246530">
        <ele>1090.1</ele>
        <time>2019-08-14T07:38:22Z</time>
      </trkpt>
      <trkpt lat="40.6784250" lon="-4.7246850">
        <ele>1089.8</ele>
        <time>2019-08-14T07:38:23Z</time>
      </trkpt>
      <trkpt lat="40.6784650" lon="-4.7247170">
        <ele>1089.5</ele>
        <time>2019-08-14T07:38:24Z</time>
      </trkpt>
      <trkpt lat="40.6785070" lon="-4.7247500">
        <ele>1089.3</ele>
        <time>2019-08-14T07:38:25Z</time>
      </trkpt>
      <trkpt lat="40.6785510" lon="-4.7247830">
        <ele>1089.1</ele>
        <time>2019-08-14T07:38:26Z</time>
      </trkpt>
      <trkpt lat="40.6785960" lon="-4.7248170">
        <ele>1088.9</ele>
        <time>2019-08-14T07:38:27Z</time>
      </trkpt>
      <trkpt lat="40.6786450" lon="-4.7248530">
        <ele>1088.7</ele>
        <time>2019-08-14T07:38:28Z</time>
      </trkpt>
      <trkpt lat="40.6786930" lon="-4.7248880">
        <ele>1088.6</ele>
        <time>2019-08-14T07:38:29Z</time>
      </trkpt>
      <trkpt lat="40.6787430" lon="-4.7249230">
        <ele>1088.5</ele>
        <time>2019-08-14T07:38:30Z</time>
      </trkpt>
      <trkpt lat="40.6787940" lon="-4.7249600">
        <ele>1088.4</ele>
        <time>2019-08-14T07:38:31Z</time>
      </trkpt>
      <trkpt lat="40.6788450" lon="-4.7249980">
        <ele>1088.4</ele>
        <time>2019-08-14T07:38:32Z</time>
      </trkpt>
      <trkpt lat="40.6788960" lon="-4.7250360">
        <ele>1088.4</ele>
        <time>2019-08-14T07:38:33Z</time>
      </trkpt>
      <trkpt lat="40.6789490" lon="-4.7250740">
        <ele>1088.4</ele>
        <time>2019-08-14T07:38:34Z</time>
      </trkpt>
      <trkpt lat="40.6790010" lon="-4.7251150">
        <ele>1088.4</ele>
        <time>2019-08-14T07:38:35Z</time>
      </trkpt>
      <trkpt lat="40.6790560" lon="-4.7251540">
        <ele>1088.4</ele>
        <time>2019-08-14T07:38:36Z</time>
      </trkpt>
      <trkpt lat="40.6791110" lon="-4.7251950">
        <ele>1088.5</ele>
        <time>2019-08-14T07:38:37Z</time>
      </trkpt>
      <trkpt lat="40.6791670" lon="-4.7252360">
        <ele>1088.5</ele>
        <time>2019-08-14T07:38:38Z</time>
      </trkpt>
      <trkpt lat="40.6792210" lon="-4.7252760">
        <ele>1088.6</ele>
        <time>2019-08-14T07:38:39Z</time>
      </trkpt>
      <trkpt lat="40.6792750" lon="-4.7253140">
        <ele>1088.7</ele>
        <time>2019-08-14T07:38:40Z</time>
      </trkpt>
      <trkpt lat="40.6793290" lon="-4.7253520">
        <ele>1088.9</ele>
        <time>2019-08-14T07:38:41Z</time>
      </trkpt>
      <trkpt lat="40.6793830" lon="-4.7253930">
        <ele>1089.1</ele>
        <time>2019-08-14T07:38:42Z</time>
      </trkpt>
      <trkpt lat="40.6794350" lon="-4.7254320">
        <ele>1089.4</ele>
        <time>2019-08-14T07:38:43Z</time>
      </trkpt>
      <trkpt lat="40.6794890" lon="-4.7254660">
        <ele>1089.6</ele>
        <time>2019-08-14T07:38:44Z</time>
      </trkpt>
      <trkpt lat="40.6795410" lon="-4.7254940">
        <ele>1090.0</ele>
        <time>2019-08-14T07:38:45Z</time>
      </trkpt>
      <trkpt lat="40.6795900" lon="-4.7255180">
        <ele>1090.3</ele>
        <time>2019-08-14T07:38:46Z</time>
      </trkpt>
      <trkpt lat="40.6796400" lon="-4.7255370">
        <ele>1090.7</ele>
        <time>2019-08-14T07:38:47Z</time>
      </trkpt>
      <trkpt lat="40.6796900" lon="-4.7255500">
        <ele>1091.1</ele>
        <time>2019-08-14T07:38:48Z</time>
      </trkpt>
      <trkpt lat="40.6797400" lon="-4.7255550">
        <ele>1091.6</ele>
        <time>2019-08-14T07:38:49Z</time>
      </trkpt>
      <trkpt lat="40.6797890" lon="-4.7255550">
        <ele>1092.0</ele>
        <time>2019-08-14T07:38:50Z</time>
      </trkpt>
      <trkpt lat="40.6798360" lon="-4.7255540">
        <ele>1092.5</ele>
        <time>2019-08-14T07:38:51Z</time>
      </trkpt>
      <trkpt lat="40.6798850" lon="-4.7255480">
        <ele>1093.0</ele>
        <time>2019-08-14T07:38:52Z</time>
      </trkpt>
      <trkpt lat="40.6799300" lon="-4.7255430">
        <ele>1093.4</ele>
        <time>2019-08-14T07:38:53Z</time>
      </trkpt>
      <trkpt lat="40.6799700" lon="-4.7255380">
        <ele>1093.8</ele>
        <time>2019-08-14T07:38:54Z</time>
      </trkpt>
      <trkpt lat="40.6800100" lon="-4.7255270">
        <ele>1094.3</ele>
        <time>2019-08-14T07:38:55Z</time>
      </trkpt>
      <trkpt lat="40.6800530" lon="-4.7255160">
        <ele>1094.7</ele>
        <time>2019-08-14T07:38:56Z</time>
      </trkpt>
      <trkpt lat="40.6800970" lon="-4.7255030">
        <ele>1094.7</ele>
        <time>2019-08-14T07:38:57Z</time>
      </trkpt>
      <trkpt lat="40.6801430" lon="-4.7254900">
        <ele>1094.8</ele>
        <time>2019-08-14T07:38:58Z</time>
      </trkpt>
      <trkpt lat="40.6801880" lon="-4.7254760">
        <ele>1094.8</ele>
        <time>2019-08-14T07:38:59Z</time>
      </trkpt>
      <trkpt lat="40.6802330" lon="-4.7254620">
        <ele>1094.8</ele>
        <time>2019-08-14T07:39:00Z</time>
      </trkpt>
      <trkpt lat="40.6802750" lon="-4.7254480">
        <ele>1094.8</ele>
        <time>2019-08-14T07:39:01Z</time>
      </trkpt>
      <trkpt lat="40.6803140" lon="-4.7254350">
        <ele>1094.8</ele>
        <time>2019-08-14T07:39:02Z</time>
      </trkpt>
      <trkpt lat="40.6803510" lon="-4.7254220">
        <ele>1094.8</ele>
        <time>2019-08-14T07:39:03Z</time>
      </trkpt>
      <trkpt lat="40.6803860" lon="-4.7254110">
        <ele>1094.8</ele>
        <time>2019-08-14T07:39:04Z</time>
      </trkpt>
      <trkpt lat="40.6804190" lon="-4.7253980">
        <ele>1094.9</ele>
        <time>2019-08-14T07:39:05Z</time>
      </trkpt>
      <trkpt lat="40.6804490" lon="-4.7253870">
        <ele>1094.9</ele>
        <time>2019-08-14T07:39:06Z</time>
      </trkpt>
      <trkpt lat="40.6804780" lon="-4.7253750">
        <ele>1095.0</ele>
        <time>2019-08-14T07:39:07Z</time>
      </trkpt>
      <trkpt lat="40.6805060" lon="-4.7253660">
        <ele>1095.1</ele>
        <time>2019-08-14T07:39:08Z</time>
      </trkpt>
      <trkpt lat="40.6805340" lon="-4.7253570">
        <ele>1095.2</ele>
        <time>2019-08-14T07:39:09Z</time>
      </trkpt>
      <trkpt lat="40.6805850" lon="-4.7253410">
        <ele>1095.5</ele>
        <time>2019-08-14T07:39:11Z</time>
      </trkpt>
      <trkpt lat="40.6806320" lon="-4.7253260">
        <ele>1095.7</ele>
        <time>2019-08-14T07:39:13Z</time>
      </trkpt>
      <trkpt lat="40.6806770" lon="-4.7253080">
        <ele>1096.0</ele>
        <time>2019-08-14T07:39:15Z</time>
      </trkpt>
      <trkpt lat="40.6807230" lon="-4.7252910">
        <ele>1096.4</ele>
        <time>2019-08-14T07:39:17Z</time>
      </trkpt>
      <trkpt lat="40.6807670" lon="-4.7252760">
        <ele>1096.8</ele>
        <time>2019-08-14T07:39:19Z</time>
      </trkpt>
      <trkpt lat="40.6808120" lon="-4.7252610">
        <ele>1097.3</ele>
        <time>2019-08-14T07:39:21Z</time>
      </trkpt>
      <trkpt lat="40.6808550" lon="-4.7252420">
        <ele>1097.8</ele>
        <time>2019-08-14T07:39:23Z</time>
      </trkpt>
      <trkpt lat="40.6808990" lon="-4.7252250">
        <ele>1098.3</ele>
        <time>2019-08-14T07:39:25Z</time>
      </trkpt>
      <trkpt lat="40.6809430" lon="-4.7252090">
        <ele>1098.8</ele>
        <time>2019-08-14T07:39:27Z</time>
      </trkpt>
      <trkpt lat="40.6809850" lon="-4.7251920">
        <ele>1099.2</ele>
        <time>2019-08-14T07:39:29Z</time>
      </trkpt>
      <trkpt lat="40.6810270" lon="-4.7251760">
        <ele>1099.7</ele>
        <time>2019-08-14T07:39:31Z</time>
      </trkpt>
      <trkpt lat="40.6810700" lon="-4.7251570">
        <ele>1100.2</ele>
        <time>2019-08-14T07:39:33Z</time>
      </trkpt>
      <trkpt lat="40.6811140" lon="-4.7251410">
        <ele>1100.6</ele>
        <time>2019-08-14T07:39:35Z</time>
      </trkpt>
      <trkpt lat="40.6811580" lon="-4.7251240">
        <ele>1101.1</ele>
        <time>2019-08-14T07:39:37Z</time>
      </trkpt>
      <trkpt lat="40.6812000" lon="-4.7251090">
        <ele>1101.5</ele>
        <time>2019-08-14T07:39:39Z</time>
      </trkpt>
      <trkpt lat="40.6812410" lon="-4.7250940">
        <ele>1101.9</ele>
        <time>2019-08-14T07:39:41Z</time>
      </trkpt>
      <trkpt lat="40.6812830" lon="-4.7250810">
        <ele>1102.3</ele>
        <time>2019-08-14T07:39:43Z</time>
      </trkpt>
      <trkpt lat="40.6813240" lon="-4.7250650">
        <ele>1102.7</ele>
        <time>2019-08-14T07:39:45Z</time>
      </trkpt>
      <trkpt lat="40.6813640" lon="-4.7250490">
        <ele>1103.0</ele>
        <time>2019-08-14T07:39:47Z</time>
      </trkpt>
      <trkpt lat="40.6814050" lon="-4.7250350">
        <ele>1103.4</ele>
        <time>2019-08-14T07:39:49Z</time>
      </trkpt>
      <trkpt lat="40.6814450" lon="-4.7250210">
        <ele>1103.9</ele>
        <time>2019-08-14T07:39:51Z</time>
      </trkpt>
      <trkpt lat="40.6814850" lon="-4.7250070">
        <ele>1104.3</ele>
        <time>2019-08-14T07:39:53Z</time>
      </trkpt>
      <trkpt lat="40.6815240" lon="-4.7249930">
        <ele>1104.8</ele>
        <time>2019-08-14T07:39:55Z</time>
      </trkpt>
      <trkpt lat="40.6815650" lon="-4.7249800">
        <ele>1105.3</ele>
        <time>2019-08-14T07:39:57Z</time>
      </trkpt>
      <trkpt lat="40.6816050" lon="-4.7249690">
        <ele>1105.8</ele>
        <time>2019-08-14T07:39:59Z</time>
      </trkpt>
      <trkpt lat="40.6816440" lon="-4.7249580">
        <ele>1106.2</ele>
        <time>2019-08-14T07:40:01Z</time>
      </trkpt>
      <trkpt lat="40.6816870" lon="-4.7249480">
        <ele>1106.8</ele>
        <time>2019-08-14T07:40:03Z</time>
      </trkpt>
      <trkpt lat="40.6817330" lon="-4.7249370">
        <ele>1107.3</ele>
        <time>2019-08-14T07:40:05Z</time>
      </trkpt>
      <trkpt lat="40.6817790" lon="-4.7249280">
        <ele>1107.9</ele>
        <time>2019-08-14T07:40:07Z</time>
      </trkpt>
      <trkpt lat="40.6818250" lon="-4.7249240">
        <ele>1108.4</ele>
        <time>2019-08-14T07:40:09Z</time>
      </trkpt>
      <trkpt lat="40.6818720" lon="-4.7249210">
        <ele>1108.9</ele>
        <time>2019-08-14T07:40:11Z</time>
      </trkpt>
      <trkpt lat="40.6819220" lon="-4.7249220">
        <ele>1109.3</ele>
        <time>2019-08-14T07:40:13Z</time>
      </trkpt>
      <trkpt lat="40.6819740" lon="-4.7249240">
        <ele>1109.8</ele>
        <time>2019-08-14T07:40:15Z</time>
      </trkpt>
      <trkpt lat="40.6820280" lon="-4.7249270">
        <ele>1110.2</ele>
        <time>2019-08-14T07:40:17Z</time>
      </trkpt>
      <trkpt lat="40.6820810" lon="-4.7249300">
        <ele>1110.6</ele>
        <time>2019-08-14T07:40:19Z</time>
      </trkpt>
      <trkpt lat="40.6821090" lon="-4.7249320">
        <ele>1110.8</ele>
        <time>2019-08-14T07:40:20Z</time>
      </trkpt>
      <trkpt lat="40.6821370" lon="-4.7249340">
        <ele>1110.9</ele>
        <time>2019-08-14T07:40:21Z</time>
      </trkpt>
      <trkpt lat="40.6821650" lon="-4.7249350">
        <ele>1111.1</ele>
        <time>2019-08-14T07:40:22Z</time>
      </trkpt>
      <trkpt lat="40.6821930" lon="-4.7249350">
        <ele>1111.2</ele>
        <time>2019-08-14T07:40:23Z</time>
      </trkpt>
      <trkpt lat="40.6822210" lon="-4.7249360">
        <ele>1111.4</ele>
        <time>2019-08-14T07:40:24Z</time>
      </trkpt>
      <trkpt lat="40.6822510" lon="-4.7249380">
        <ele>1111.5</ele>
        <time>2019-08-14T07:40:25Z</time>
      </trkpt>
      <trkpt lat="40.6822850" lon="-4.7249420">
        <ele>1111.7</ele>
        <time>2019-08-14T07:40:26Z</time>
      </trkpt>
      <trkpt lat="40.6823200" lon="-4.7249460">
        <ele>1111.8</ele>
        <time>2019-08-14T07:40:27Z</time>
      </trkpt>
      <trkpt lat="40.6823540" lon="-4.7249470">
        <ele>1111.9</ele>
        <time>2019-08-14T07:40:28Z</time>
      </trkpt>
      <trkpt lat="40.6823870" lon="-4.7249510">
        <ele>1112.0</ele>
        <time>2019-08-14T07:40:29Z</time>
      </trkpt>
      <trkpt lat="40.6824190" lon="-4.7249560">
        <ele>1112.1</ele>
        <time>2019-08-14T07:40:30Z</time>
      </trkpt>
      <trkpt lat="40.6824510" lon="-4.7249620">
        <ele>1112.2</ele>
        <time>2019-08-14T07:40:31Z</time>
      </trkpt>
      <trkpt lat="40.6824850" lon="-4.7249670">
        <ele>1112.3</ele>
        <time>2019-08-14T07:40:32Z</time>
      </trkpt>
      <trkpt lat="40.6825200" lon="-4.7249730">
        <ele>1112.3</ele>
        <time>2019-08-14T07:40:33Z</time>
      </trkpt>
      <trkpt lat="40.6825560" lon="-4.7249790">
        <ele>1112.4</ele>
        <time>2019-08-14T07:40:34Z</time>
      </trkpt>
      <trkpt lat="40.6825940" lon="-4.7249870">
        <ele>1112.5</ele>
        <time>2019-08-14T07:40:35Z</time>
      </trkpt>
      <trkpt lat="40.6826320" lon="-4.7249960">
        <ele>1112.5</ele>
        <time>2019-08-14T07:40:36Z</time>
      </trkpt>
      <trkpt lat="40.6826700" lon="-4.7250050">
        <ele>1112.6</ele>
        <time>2019-08-14T07:40:37Z</time>
      </trkpt>
      <trkpt lat="40.6827100" lon="-4.7250140">
        <ele>1112.6</ele>
        <time>2019-08-14T07:40:38Z</time>
      </trkpt>
      <trkpt lat="40.6827510" lon="-4.7250220">
        <ele>1112.6</ele>
        <time>2019-08-14T07:40:39Z</time>
      </trkpt>
      <trkpt lat="40.6827910" lon="-4.7250290">
        <ele>1112.6</ele>
        <time>2019-08-14T07:40:40Z</time>
      </trkpt>
      <trkpt lat="40.6828310" lon="-4.7250340">
        <ele>1112.7</ele>
        <time>2019-08-14T07:40:41Z</time>
      </trkpt>
      <trkpt lat="40.6828720" lon="-4.7250410">
        <ele>1112.7</ele>
        <time>2019-08-14T07:40:42Z</time>
      </trkpt>
      <trkpt lat="40.6829140" lon="-4.7250480">
        <ele>1112.7</ele>
        <time>2019-08-14T07:40:43Z</time>
      </trkpt>
      <trkpt lat="40.6829570" lon="-4.7250540">
        <ele>1112.7</ele>
        <time>2019-08-14T07:40:44Z</time>
      </trkpt>
      <trkpt lat="40.6830010" lon="-4.7250600">
        <ele>1112.7</ele>
        <time>2019-08-14T07:40:45Z</time>
      </trkpt>
      <trkpt lat="40.6830450" lon="-4.7250630">
        <ele>1112.7</ele>
        <time>2019-08-14T07:40:46Z</time>
      </trkpt>
      <trkpt lat="40.6830880" lon="-4.7250660">
        <ele>1112.7</ele>
        <time>2019-08-14T07:40:47Z</time>
      </trkpt>
      <trkpt lat="40.6831290" lon="-4.7250680">
        <ele>1112.7</ele>
        <time>2019-08-14T07:40:48Z</time>
      </trkpt>
      <trkpt lat="40.6831730" lon="-4.7250710">
        <ele>1112.7</ele>
        <time>2019-08-14T07:40:49Z</time>
      </trkpt>
      <trkpt lat="40.6832170" lon="-4.7250710">
        <ele>1112.7</ele>
        <time>2019-08-14T07:40:50Z</time>
      </trkpt>
      <trkpt lat="40.6832610" lon="-4.7250710">
        <ele>1112.6</ele>
        <time>2019-08-14T07:40:51Z</time>
      </trkpt>
      <trkpt lat="40.6833050" lon="-4.7250690">
        <ele>1112.6</ele>
        <time>2019-08-14T07:40:52Z</time>
      </trkpt>
      <trkpt lat="40.6833480" lon="-4.7250620">
        <ele>1112.6</ele>
        <time>2019-08-14T07:40:53Z</time>
      </trkpt>
      <trkpt lat="40.6833890" lon="-4.7250560">
        <ele>1112.6</ele>
        <time>2019-08-14T07:40:54Z</time>
      </trkpt>
      <trkpt lat="40.6834300" lon="-4.7250500">
        <ele>1112.5</ele>
        <time>2019-08-14T07:40:55Z</time>
      </trkpt>
      <trkpt lat="40.6834720" lon="-4.7250450">
        <ele>1112.5</ele>
        <time>2019-08-14T07:40:56Z</time>
      </trkpt>
      <trkpt lat="40.6835120" lon="-4.7250390">
        <ele>1112.5</ele>
        <time>2019-08-14T07:40:57Z</time>
      </trkpt>
      <trkpt lat="40.6835520" lon="-4.7250330">
        <ele>1112.5</ele>
        <time>2019-08-14T07:40:58Z</time>
      </trkpt>
      <trkpt lat="40.6835920" lon="-4.7250280">
        <ele>1112.6</ele>
        <time>2019-08-14T07:40:59Z</time>
      </trkpt>
      <trkpt lat="40.6836320" lon="-4.7250230">
        <ele>1112.6</ele>
        <time>2019-08-14T07:41:00Z</time>
      </trkpt>
      <trkpt lat="40.6836710" lon="-4.7250170">
        <ele>1112.6</ele>
        <time>2019-08-14T07:41:01Z</time>
      </trkpt>
      <trkpt lat="40.6837100" lon="-4.7250120">
        <ele>1112.6</ele>
        <time>2019-08-14T07:41:02Z</time>
      </trkpt>
      <trkpt lat="40.6837500" lon="-4.7250070">
        <ele>1112.7</ele>
        <time>2019-08-14T07:41:03Z</time>
      </trkpt>
      <trkpt lat="40.6837890" lon="-4.7250010">
        <ele>1112.7</ele>
        <time>2019-08-14T07:41:04Z</time>
      </trkpt>
      <trkpt lat="40.6838280" lon="-4.7249980">
        <ele>1112.8</ele>
        <time>2019-08-14T07:41:05Z</time>
      </trkpt>
      <trkpt lat="40.6838660" lon="-4.7249980">
        <ele>1112.8</ele>
        <time>2019-08-14T07:41:06Z</time>
      </trkpt>
      <trkpt lat="40.6839050" lon="-4.7250010">
        <ele>1112.9</ele>
        <time>2019-08-14T07:41:07Z</time>
      </trkpt>
      <trkpt lat="40.6839450" lon="-4.7250040">
        <ele>1112.9</ele>
        <time>2019-08-14T07:41:08Z</time>
      </trkpt>
      <trkpt lat="40.6839860" lon="-4.7250070">
        <ele>1113.0</ele>
        <time>2019-08-14T07:41:09Z</time>
      </trkpt>
      <trkpt lat="40.6840270" lon="-4.7250090">
        <ele>1113.1</ele>
        <time>2019-08-14T07:41:10Z</time>
      </trkpt>
      <trkpt lat="40.6840670" lon="-4.7250130">
        <ele>1113.2</ele>
        <time>2019-08-14T07:41:11Z</time>
      </trkpt>
      <trkpt lat="40.6841070" lon="-4.7250180">
        <ele>1113.4</ele>
        <time>2019-08-14T07:41:12Z</time>
      </trkpt>
      <trkpt lat="40.6841460" lon="-4.7250220">
        <ele>1113.5</ele>
        <time>2019-08-14T07:41:13Z</time>
      </trkpt>
      <trkpt lat="40.6841840" lon="-4.7250260">
        <ele>1113.6</ele>
        <time>2019-08-14T07:41:14Z</time>
      </trkpt>
      <trkpt lat="40.6842240" lon="-4.7250320">
        <ele>1113.7</ele>
        <time>2019-08-14T07:41:15Z</time>
      </trkpt>
      <trkpt lat="40.6842640" lon="-4.7250380">
        <ele>1113.8</ele>
        <time>2019-08-14T07:41:16Z</time>
      </trkpt>
      <trkpt lat="40.6843020" lon="-4.7250440">
        <ele>1113.9</ele>
        <time>2019-08-14T07:41:17Z</time>
      </trkpt>
      <trkpt lat="40.6843410" lon="-4.7250510">
        <ele>1114.0</ele>
        <time>2019-08-14T07:41:18Z</time>
      </trkpt>
      <trkpt lat="40.6843790" lon="-4.7250590">
        <ele>1114.1</ele>
        <time>2019-08-14T07:41:19Z</time>
      </trkpt>
      <trkpt lat="40.6844200" lon="-4.7250640">
        <ele>1114.2</ele>
        <time>2019-08-14T07:41:20Z</time>
      </trkpt>
      <trkpt lat="40.6844610" lon="-4.7250700">
        <ele>1114.3</ele>
        <time>2019-08-14T07:41:21Z</time>
      </trkpt>
      <trkpt lat="40.6845030" lon="-4.7250760">
        <ele>1114.5</ele>
        <time>2019-08-14T07:41:22Z</time>
      </trkpt>
      <trkpt lat="40.6845450" lon="-4.7250830">
        <ele>1114.6</ele>
        <time>2019-08-14T07:41:23Z</time>
      </trkpt>
      <trkpt lat="40.6845880" lon="-4.7250900">
        <ele>1114.7</ele>
        <time>2019-08-14T07:41:24Z</time>
      </trkpt>
      <trkpt lat="40.6846320" lon="-4.7250980">
        <ele>1114.8</ele>
        <time>2019-08-14T07:41:25Z</time>
      </trkpt>
      <trkpt lat="40.6846780" lon="-4.7251050">
        <ele>1114.9</ele>
        <time>2019-08-14T07:41:26Z</time>
      </trkpt>
      <trkpt lat="40.6847220" lon="-4.7251130">
        <ele>1115.0</ele>
        <time>2019-08-14T07:41:27Z</time>
      </trkpt>
      <trkpt lat="40.6847660" lon="-4.7251180">
        <ele>1115.1</ele>
        <time>2019-08-14T07:41:28Z</time>
      </trkpt>
      <trkpt lat="40.6848090" lon="-4.7251230">
        <ele>1115.1</ele>
        <time>2019-08-14T07:41:29Z</time>
      </trkpt>
      <trkpt lat="40.6848510" lon="-4.7251260">
        <ele>1115.2</ele>
        <time>2019-08-14T07:41:30Z</time>
      </trkpt>
      <trkpt lat="40.6848930" lon="-4.7251280">
        <ele>1115.2</ele>
        <time>2019-08-14T07:41:31Z</time>
      </trkpt>
      <trkpt lat="40.6849360" lon="-4.7251300">
        <ele>1115.4</ele>
        <time>2019-08-14T07:41:32Z</time>
      </trkpt>
      <trkpt lat="40.6849790" lon="-4.7251320">
        <ele>1115.5</ele>
        <time>2019-08-14T07:41:33Z</time>
      </trkpt>
      <trkpt lat="40.6850220" lon="-4.7251320">
        <ele>1115.6</ele>
        <time>2019-08-14T07:41:34Z</time>
      </trkpt>
      <trkpt lat="40.6850660" lon="-4.7251290">
        <ele>1115.7</ele>
        <time>2019-08-14T07:41:35Z</time>
      </trkpt>
      <trkpt lat="40.6851100" lon="-4.7251250">
        <ele>1115.8</ele>
        <time>2019-08-14T07:41:36Z</time>
      </trkpt>
      <trkpt lat="40.6851530" lon="-4.7251190">
        <ele>1116.0</ele>
        <time>2019-08-14T07:41:37Z</time>
      </trkpt>
      <trkpt lat="40.6851960" lon="-4.7251130">
        <ele>1116.1</ele>
        <time>2019-08-14T07:41:38Z</time>
      </trkpt>
      <trkpt lat="40.6852390" lon="-4.7251090">
        <ele>1116.2</ele>
        <time>2019-08-14T07:41:39Z</time>
      </trkpt>
      <trkpt lat="40.6852800" lon="-4.7251040">
        <ele>1116.4</ele>
        <time>2019-08-14T07:41:40Z</time>
      </trkpt>
      <trkpt lat="40.6853210" lon="-4.7250990">
        <ele>1116.5</ele>
        <time>2019-08-14T07:41:41Z</time>
      </trkpt>
      <trkpt lat="40.6853620" lon="-4.7250960">
        <ele>1116.6</ele>
        <time>2019-08-14T07:41:42Z</time>
      </trkpt>
      <trkpt lat="40.6854010" lon="-4.7250930">
        <ele>1116.7</ele>
        <time>2019-08-14T07:41:43Z</time>
      </trkpt>
      <trkpt lat="40.6854390" lon="-4.7250900">
        <ele>1116.9</ele>
        <time>2019-08-14T07:41:44Z</time>
      </trkpt>
      <trkpt lat="40.6854750" lon="-4.7250860">
        <ele>1117.0</ele>
        <time>2019-08-14T07:41:45Z</time>
      </trkpt>
      <trkpt lat="40.6855090" lon="-4.7250830">
        <ele>1117.1</ele>
        <time>2019-08-14T07:41:46Z</time>
      </trkpt>
      <trkpt lat="40.6855420" lon="-4.7250790">
        <ele>1117.2</ele>
        <time>2019-08-14T07:41:47Z</time>
      </trkpt>
      <trkpt lat="40.6855730" lon="-4.7250760">
        <ele>1117.2</ele>
        <time>2019-08-14T07:41:48Z</time>
      </trkpt>
      <trkpt lat="40.6856040" lon="-4.7250720">
        <ele>1117.3</ele>
        <time>2019-08-14T07:41:49Z</time>
      </trkpt>
      <trkpt lat="40.6856330" lon="-4.7250690">
        <ele>1117.4</ele>
        <time>2019-08-14T07:41:50Z</time>
      </trkpt>
      <trkpt lat="40.6856620" lon="-4.7250660">
        <ele>1117.5</ele>
        <time>2019-08-14T07:41:51Z</time>
      </trkpt>
      <trkpt lat="40.6856900" lon="-4.7250630">
        <ele>1117.6</ele>
        <time>2019-08-14T07:41:52Z</time>
      </trkpt>
      <trkpt lat="40.6857180" lon="-4.7250600">
        <ele>1117.7</ele>
        <time>2019-08-14T07:41:53Z</time>
      </trkpt>
      <trkpt lat="40.6857460" lon="-4.7250570">
        <ele>1117.8</ele>
        <time>2019-08-14T07:41:54Z</time>
      </trkpt>
      <trkpt lat="40.6857740" lon="-4.7250540">
        <ele>1117.9</ele>
        <time>2019-08-14T07:41:55Z</time>
      </trkpt>
      <trkpt lat="40.6858020" lon="-4.7250520">
        <ele>1118.0</ele>
        <time>2019-08-14T07:41:56Z</time>
      </trkpt>
      <trkpt lat="40.6858300" lon="-4.7250490">
        <ele>1118.1</ele>
        <time>2019-08-14T07:41:57Z</time>
      </trkpt>
      <trkpt lat="40.6858570" lon="-4.7250460">
        <ele>1118.2</ele>
        <time>2019-08-14T07:41:58Z</time>
      </trkpt>
      <trkpt lat="40.6859080" lon="-4.7250390">
        <ele>1118.5</ele>
        <time>2019-08-14T07:42:00Z</time>
      </trkpt>
      <trkpt lat="40.6859570" lon="-4.7250320">
        <ele>1118.7</ele>
        <time>2019-08-14T07:42:02Z</time>
      </trkpt>
      <trkpt lat="40.6860030" lon="-4.7250250">
        <ele>1119.0</ele>
        <time>2019-08-14T07:42:04Z</time>
      </trkpt>
      <trkpt lat="40.6860470" lon="-4.7250190">
        <ele>1119.2</ele>
        <time>2019-08-14T07:42:06Z</time>
      </trkpt>
      <trkpt lat="40.6860930" lon="-4.7250150">
        <ele>1119.4</ele>
        <time>2019-08-14T07:42:08Z</time>
      </trkpt>
      <trkpt lat="40.6861380" lon="-4.7250100">
        <ele>1119.6</ele>
        <time>2019-08-14T07:42:10Z</time>
      </trkpt>
      <trkpt lat="40.6861840" lon="-4.7250060">
        <ele>1119.8</ele>
        <time>2019-08-14T07:42:12Z</time>
      </trkpt>
      <trkpt lat="40.6862280" lon="-4.7249990">
        <ele>1120.0</ele>
        <time>2019-08-14T07:42:14Z</time>
      </trkpt>
      <trkpt lat="40.6862710" lon="-4.7249930">
        <ele>1120.2</ele>
        <time>2019-08-14T07:42:16Z</time>
      </trkpt>
      <trkpt lat="40.6863140" lon="-4.7249860">
        <ele>1120.6</ele>
        <time>2019-08-14T07:42:18Z</time>
      </trkpt>
      <trkpt lat="40.6863560" lon="-4.7249790">
        <ele>1120.8</ele>
        <time>2019-08-14T07:42:20Z</time>
      </trkpt>
      <trkpt lat="40.6863990" lon="-4.7249710">
        <ele>1121.1</ele>
        <time>2019-08-14T07:42:22Z</time>
      </trkpt>
      <trkpt lat="40.6864450" lon="-4.7249650">
        <ele>1121.4</ele>
        <time>2019-08-14T07:42:24Z</time>
      </trkpt>
      <trkpt lat="40.6864910" lon="-4.7249580">
        <ele>1121.7</ele>
        <time>2019-08-14T07:42:26Z</time>
      </trkpt>
      <trkpt lat="40.6865370" lon="-4.7249500">
        <ele>1122.0</ele>
        <time>2019-08-14T07:42:28Z</time>
      </trkpt>
      <trkpt lat="40.6865820" lon="-4.7249410">
        <ele>1122.4</ele>
        <time>2019-08-14T07:42:30Z</time>
      </trkpt>
      <trkpt lat="40.6866270" lon="-4.7249310">
        <ele>1122.8</ele>
        <time>2019-08-14T07:42:32Z</time>
      </trkpt>
      <trkpt lat="40.6866730" lon="-4.7249240">
        <ele>1123.0</ele>
        <time>2019-08-14T07:42:34Z</time>
      </trkpt>
      <trkpt lat="40.6867180" lon="-4.7249150">
        <ele>1123.2</ele>
        <time>2019-08-14T07:42:36Z</time>
      </trkpt>
      <trkpt lat="40.6867620" lon="-4.7249050">
        <ele>1123.4</ele>
        <time>2019-08-14T07:42:38Z</time>
      </trkpt>
      <trkpt lat="40.6868070" lon="-4.7248950">
        <ele>1123.7</ele>
        <time>2019-08-14T07:42:40Z</time>
      </trkpt>
      <trkpt lat="40.6868510" lon="-4.7248870">
        <ele>1123.9</ele>
        <time>2019-08-14T07:42:42Z</time>
      </trkpt>
      <trkpt lat="40.6868950" lon="-4.7248790">
        <ele>1124.2</ele>
        <time>2019-08-14T07:42:44Z</time>
      </trkpt>
      <trkpt lat="40.6869370" lon="-4.7248690">
        <ele>1124.4</ele>
        <time>2019-08-14T07:42:46Z</time>
      </trkpt>
      <trkpt lat="40.6869790" lon="-4.7248620">
        <ele>1124.6</ele>
        <time>2019-08-14T07:42:48Z</time>
      </trkpt>
      <trkpt lat="40.6870220" lon="-4.7248530">
        <ele>1124.9</ele>
        <time>2019-08-14T07:42:50Z</time>
      </trkpt>
      <trkpt lat="40.6870670" lon="-4.7248440">
        <ele>1125.1</ele>
        <time>2019-08-14T07:42:52Z</time>
      </trkpt>
      <trkpt lat="40.6871130" lon="-4.7248330">
        <ele>1125.3</ele>
        <time>2019-08-14T07:42:54Z</time>
      </trkpt>
      <trkpt lat="40.6871590" lon="-4.7248210">
        <ele>1125.6</ele>
        <time>2019-08-14T07:42:56Z</time>
      </trkpt>
      <trkpt lat="40.6872070" lon="-4.7248100">
        <ele>1125.8</ele>
        <time>2019-08-14T07:42:58Z</time>
      </trkpt>
      <trkpt lat="40.6872560" lon="-4.7247990">
        <ele>1126.0</ele>
        <time>2019-08-14T07:43:00Z</time>
      </trkpt>
      <trkpt lat="40.6873050" lon="-4.7247880">
        <ele>1126.3</ele>
        <time>2019-08-14T07:43:02Z</time>
      </trkpt>
      <trkpt lat="40.6873570" lon="-4.7247750">
        <ele>1126.5</ele>
        <time>2019-08-14T07:43:04Z</time>
      </trkpt>
      <trkpt lat="40.6874090" lon="-4.7247620">
        <ele>1126.7</ele>
        <time>2019-08-14T07:43:06Z</time>
      </trkpt>
      <trkpt lat="40.6874610" lon="-4.7247510">
        <ele>1127.0</ele>
        <time>2019-08-14T07:43:08Z</time>
      </trkpt>
      <trkpt lat="40.6875140" lon="-4.7247390">
        <ele>1127.2</ele>
        <time>2019-08-14T07:43:10Z</time>
      </trkpt>
      <trkpt lat="40.6875670" lon="-4.7247250">
        <ele>1127.5</ele>
        <time>2019-08-14T07:43:12Z</time>
      </trkpt>
      <trkpt lat="40.6875940" lon="-4.7247180">
        <ele>1127.6</ele>
        <time>2019-08-14T07:43:13Z</time>
      </trkpt>
      <trkpt lat="40.6876210" lon="-4.7247120">
        <ele>1127.8</ele>
        <time>2019-08-14T07:43:14Z</time>
      </trkpt>
      <trkpt lat="40.6876490" lon="-4.7247060">
        <ele>1127.9</ele>
        <time>2019-08-14T07:43:15Z</time>
      </trkpt>
      <trkpt lat="40.6876770" lon="-4.7246990">
        <ele>1128.0</ele>
        <time>2019-08-14T07:43:16Z</time>
      </trkpt>
      <trkpt lat="40.6877050" lon="-4.7246920">
        <ele>1128.2</ele>
        <time>2019-08-14T07:43:17Z</time>
      </trkpt>
      <trkpt lat="40.6877320" lon="-4.7246860">
        <ele>1128.3</ele>
        <time>2019-08-14T07:43:18Z</time>
      </trkpt>
      <trkpt lat="40.6877590" lon="-4.7246800">
        <ele>1128.5</ele>
        <time>2019-08-14T07:43:19Z</time>
      </trkpt>
      <trkpt lat="40.6878110" lon="-4.7246670">
        <ele>1128.7</ele>
        <time>2019-08-14T07:43:21Z</time>
      </trkpt>
      <trkpt lat="40.6878630" lon="-4.7246560">
        <ele>1129.0</ele>
        <time>2019-08-14T07:43:23Z</time>
      </trkpt>
      <trkpt lat="40.6879160" lon="-4.7246450">
        <ele>1129.3</ele>
        <time>2019-08-14T07:43:25Z</time>
      </trkpt>
      <trkpt lat="40.6879670" lon="-4.7246340">
        <ele>1129.6</ele>
        <time>2019-08-14T07:43:27Z</time>
      </trkpt>
      <trkpt lat="40.6880180" lon="-4.7246220">
        <ele>1129.8</ele>
        <time>2019-08-14T07:43:29Z</time>
      </trkpt>
      <trkpt lat="40.6880700" lon="-4.7246070">
        <ele>1130.1</ele>
        <time>2019-08-14T07:43:31Z</time>
      </trkpt>
      <trkpt lat="40.6881220" lon="-4.7245950">
        <ele>1130.4</ele>
        <time>2019-08-14T07:43:33Z</time>
      </trkpt>
      <trkpt lat="40.6881730" lon="-4.7245840">
        <ele>1130.7</ele>
        <time>2019-08-14T07:43:35Z</time>
      </trkpt>
      <trkpt lat="40.6882230" lon="-4.7245720">
        <ele>1130.9</ele>
        <time>2019-08-14T07:43:37Z</time>
      </trkpt>
      <trkpt lat="40.6882720" lon="-4.7245610">
        <ele>1131.2</ele>
        <time>2019-08-14T07:43:39Z</time>
      </trkpt>
      <trkpt lat="40.6883210" lon="-4.7245490">
        <ele>1131.5</ele>
        <time>2019-08-14T07:43:41Z</time>
      </trkpt>
      <trkpt lat="40.6883710" lon="-4.7245380">
        <ele>1131.8</ele>
        <time>2019-08-14T07:43:43Z</time>
      </trkpt>
      <trkpt lat="40.6884200" lon="-4.7245260">
        <ele>1132.0</ele>
        <time>2019-08-14T07:43:45Z</time>
      </trkpt>
      <trkpt lat="40.6884680" lon="-4.7245120">
        <ele>1132.3</ele>
        <time>2019-08-14T07:43:47Z</time>
      </trkpt>
      <trkpt lat="40.6885150" lon="-4.7245020">
        <ele>1132.6</ele>
        <time>2019-08-14T07:43:49Z</time>
      </trkpt>
      <trkpt lat="40.6885590" lon="-4.7244920">
        <ele>1132.9</ele>
        <time>2019-08-14T07:43:51Z</time>
      </trkpt>
      <trkpt lat="40.6886020" lon="-4.7244820">
        <ele>1133.2</ele>
        <time>2019-08-14T07:43:53Z</time>
      </trkpt>
      <trkpt lat="40.6886450" lon="-4.7244720">
        <ele>1133.4</ele>
        <time>2019-08-14T07:43:55Z</time>
      </trkpt>
      <trkpt lat="40.6886880" lon="-4.7244600">
        <ele>1133.7</ele>
        <time>2019-08-14T07:43:57Z</time>
      </trkpt>
      <trkpt lat="40.6887300" lon="-4.7244510">
        <ele>1134.0</ele>
        <time>2019-08-14T07:43:59Z</time>
      </trkpt>
      <trkpt lat="40.6887720" lon="-4.7244400">
        <ele>1134.3</ele>
        <time>2019-08-14T07:44:01Z</time>
      </trkpt>
      <trkpt lat="40.6888150" lon="-4.7244300">
        <ele>1134.6</ele>
        <time>2019-08-14T07:44:03Z</time>
      </trkpt>
      <trkpt lat="40.6888580" lon="-4.7244170">
        <ele>1134.8</ele>
        <time>2019-08-14T07:44:05Z</time>
      </trkpt>
      <trkpt lat="40.6889010" lon="-4.7244070">
        <ele>1135.1</ele>
        <time>2019-08-14T07:44:07Z</time>
      </trkpt>
      <trkpt lat="40.6889430" lon="-4.7243980">
        <ele>1135.4</ele>
        <time>2019-08-14T07:44:09Z</time>
      </trkpt>
      <trkpt lat="40.6889860" lon="-4.7243900">
        <ele>1135.7</ele>
        <time>2019-08-14T07:44:11Z</time>
      </trkpt>
      <trkpt lat="40.6890270" lon="-4.7243820">
        <ele>1136.0</ele>
        <time>2019-08-14T07:44:13Z</time>
      </trkpt>
      <trkpt lat="40.6890690" lon="-4.7243780">
        <ele>1136.3</ele>
        <time>2019-08-14T07:44:15Z</time>
      </trkpt>
      <trkpt lat="40.6891120" lon="-4.7243780">
        <ele>1136.6</ele>
        <time>2019-08-14T07:44:17Z</time>
      </trkpt>
      <trkpt lat="40.6891560" lon="-4.7243830">
        <ele>1136.9</ele>
        <time>2019-08-14T07:44:19Z</time>
      </trkpt>
      <trkpt lat="40.6892000" lon="-4.7243930">
        <ele>1137.2</ele>
        <time>2019-08-14T07:44:21Z</time>
      </trkpt>
      <trkpt lat="40.6892450" lon="-4.7244020">
        <ele>1137.6</ele>
        <time>2019-08-14T07:44:23Z</time>
      </trkpt>
      <trkpt lat="40.6892900" lon="-4.7244170">
        <ele>1138.1</ele>
        <time>2019-08-14T07:44:25Z</time>
      </trkpt>
      <trkpt lat="40.6893340" lon="-4.7244330">
        <ele>1138.5</ele>
        <time>2019-08-14T07:44:27Z</time>
      </trkpt>
      <trkpt lat="40.6893780" lon="-4.7244500">
        <ele>1138.9</ele>
        <time>2019-08-14T07:44:29Z</time>
      </trkpt>
      <trkpt lat="40.6894200" lon="-4.7244680">
        <ele>1139.3</ele>
        <time>2019-08-14T07:44:31Z</time>
      </trkpt>
      <trkpt lat="40.6894640" lon="-4.7244810">
        <ele>1139.6</ele>
        <time>2019-08-14T07:44:33Z</time>
      </trkpt>
      <trkpt lat="40.6895090" lon="-4.7244960">
        <ele>1140.0</ele>
        <time>2019-08-14T07:44:35Z</time>
      </trkpt>
      <trkpt lat="40.6895530" lon="-4.7245110">
        <ele>1140.4</ele>
        <time>2019-08-14T07:44:37Z</time>
      </trkpt>
      <trkpt lat="40.6895970" lon="-4.7245280">
        <ele>1140.6</ele>
        <time>2019-08-14T07:44:39Z</time>
      </trkpt>
      <trkpt lat="40.6896410" lon="-4.7245410">
        <ele>1140.9</ele>
        <time>2019-08-14T07:44:41Z</time>
      </trkpt>
      <trkpt lat="40.6896870" lon="-4.7245540">
        <ele>1141.1</ele>
        <time>2019-08-14T07:44:43Z</time>
      </trkpt>
      <trkpt lat="40.6897360" lon="-4.7245670">
        <ele>1141.4</ele>
        <time>2019-08-14T07:44:45Z</time>
      </trkpt>
      <trkpt lat="40.6897890" lon="-4.7245810">
        <ele>1141.8</ele>
        <time>2019-08-14T07:44:47Z</time>
      </trkpt>
      <trkpt lat="40.6898170" lon="-4.7245880">
        <ele>1142.0</ele>
        <time>2019-08-14T07:44:48Z</time>
      </trkpt>
      <trkpt lat="40.6898480" lon="-4.7245950">
        <ele>1142.2</ele>
        <time>2019-08-14T07:44:49Z</time>
      </trkpt>
      <trkpt lat="40.6898810" lon="-4.7246030">
        <ele>1142.4</ele>
        <time>2019-08-14T07:44:50Z</time>
      </trkpt>
      <trkpt lat="40.6899160" lon="-4.7246120">
        <ele>1142.5</ele>
        <time>2019-08-14T07:44:51Z</time>
      </trkpt>
      <trkpt lat="40.6899510" lon="-4.7246210">
        <ele>1142.7</ele>
        <time>2019-08-14T07:44:52Z</time>
      </trkpt>
      <trkpt lat="40.6899860" lon="-4.7246310">
        <ele>1142.9</ele>
        <time>2019-08-14T07:44:53Z</time>
      </trkpt>
      <trkpt lat="40.6900240" lon="-4.7246400">
        <ele>1143.0</ele>
        <time>2019-08-14T07:44:54Z</time>
      </trkpt>
      <trkpt lat="40.6900630" lon="-4.7246490">
        <ele>1143.2</ele>
        <time>2019-08-14T07:44:55Z</time>
      </trkpt>
      <trkpt lat="40.6901040" lon="-4.7246590">
        <ele>1143.3</ele>
        <time>2019-08-14T07:44:56Z</time>
      </trkpt>
      <trkpt lat="40.6901450" lon="-4.7246700">
        <ele>1143.5</ele>
        <time>2019-08-14T07:44:57Z</time>
      </trkpt>
      <trkpt lat="40.6901850" lon="-4.7246800">
        <ele>1143.6</ele>
        <time>2019-08-14T07:44:58Z</time>
      </trkpt>
      <trkpt lat="40.6902260" lon="-4.7246890">
        <ele>1143.7</ele>
        <time>2019-08-14T07:44:59Z</time>
      </trkpt>
      <trkpt lat="40.6902680" lon="-4.7246990">
        <ele>1143.8</ele>
        <time>2019-08-14T07:45:00Z</time>
      </trkpt>
      <trkpt lat="40.6903090" lon="-4.7247090">
        <ele>1143.8</ele>
        <time>2019-08-14T07:45:01Z</time>
      </trkpt>
      <trkpt lat="40.6903510" lon="-4.7247200">
        <ele>1143.9</ele>
        <time>2019-08-14T07:45:02Z</time>
      </trkpt>
      <trkpt lat="40.6903950" lon="-4.7247300">
        <ele>1143.9</ele>
        <time>2019-08-14T07:45:03Z</time>
      </trkpt>
      <trkpt lat="40.6904390" lon="-4.7247400">
        <ele>1144.0</ele>
        <time>2019-08-14T07:45:04Z</time>
      </trkpt>
      <trkpt lat="40.6904830" lon="-4.7247500">
        <ele>1144.0</ele>
        <time>2019-08-14T07:45:05Z</time>
      </trkpt>
      <trkpt lat="40.6905250" lon="-4.7247580">
        <ele>1144.1</ele>
        <time>2019-08-14T07:45:06Z</time>
      </trkpt>
      <trkpt lat="40.6905670" lon="-4.7247640">
        <ele>1144.1</ele>
        <time>2019-08-14T07:45:07Z</time>
      </trkpt>
      <trkpt lat="40.6906120" lon="-4.7247680">
        <ele>1144.1</ele>
        <time>2019-08-14T07:45:08Z</time>
      </trkpt>
      <trkpt lat="40.6906560" lon="-4.7247700">
        <ele>1144.1</ele>
        <time>2019-08-14T07:45:09Z</time>
      </trkpt>
      <trkpt lat="40.6907010" lon="-4.7247710">
        <ele>1144.2</ele>
        <time>2019-08-14T07:45:10Z</time>
      </trkpt>
      <trkpt lat="40.6907460" lon="-4.7247720">
        <ele>1144.2</ele>
        <time>2019-08-14T07:45:11Z</time>
      </trkpt>
      <trkpt lat="40.6907910" lon="-4.7247710">
        <ele>1144.2</ele>
        <time>2019-08-14T07:45:12Z</time>
      </trkpt>
      <trkpt lat="40.6908350" lon="-4.7247700">
        <ele>1144.2</ele>
        <time>2019-08-14T07:45:13Z</time>
      </trkpt>
      <trkpt lat="40.6908820" lon="-4.7247680">
        <ele>1144.2</ele>
        <time>2019-08-14T07:45:14Z</time>
      </trkpt>
      <trkpt lat="40.6909280" lon="-4.7247670">
        <ele>1144.2</ele>
        <time>2019-08-14T07:45:15Z</time>
      </trkpt>
      <trkpt lat="40.6909760" lon="-4.7247660">
        <ele>1144.2</ele>
        <time>2019-08-14T07:45:16Z</time>
      </trkpt>
      <trkpt lat="40.6910240" lon="-4.7247640">
        <ele>1144.2</ele>
        <time>2019-08-14T07:45:17Z</time>
      </trkpt>
      <trkpt lat="40.6910710" lon="-4.7247630">
        <ele>1144.2</ele>
        <time>2019-08-14T07:45:18Z</time>
      </trkpt>
      <trkpt lat="40.6911200" lon="-4.7247600">
        <ele>1144.2</ele>
        <time>2019-08-14T07:45:19Z</time>
      </trkpt>
      <trkpt lat="40.6911670" lon="-4.7247580">
        <ele>1144.2</ele>
        <time>2019-08-14T07:45:20Z</time>
      </trkpt>
      <trkpt lat="40.6912120" lon="-4.7247570">
        <ele>1144.2</ele>
        <time>2019-08-14T07:45:21Z</time>
      </trkpt>
      <trkpt lat="40.6912580" lon="-4.7247550">
        <ele>1144.2</ele>
        <time>2019-08-14T07:45:22Z</time>
      </trkpt>
      <trkpt lat="40.6913050" lon="-4.7247550">
        <ele>1144.1</ele>
        <time>2019-08-14T07:45:23Z</time>
      </trkpt>
      <trkpt lat="40.6913510" lon="-4.7247540">
        <ele>1144.0</ele>
        <time>2019-08-14T07:45:24Z</time>
      </trkpt>
      <trkpt lat="40.6913990" lon="-4.7247530">
        <ele>1144.0</ele>
        <time>2019-08-14T07:45:25Z</time>
      </trkpt>
      <trkpt lat="40.6914480" lon="-4.7247540">
        <ele>1143.9</ele>
        <time>2019-08-14T07:45:26Z</time>
      </trkpt>
      <trkpt lat="40.6914970" lon="-4.7247550">
        <ele>1143.8</ele>
        <time>2019-08-14T07:45:27Z</time>
      </trkpt>
      <trkpt lat="40.6915470" lon="-4.7247550">
        <ele>1143.8</ele>
        <time>2019-08-14T07:45:28Z</time>
      </trkpt>
      <trkpt lat="40.6915950" lon="-4.7247540">
        <ele>1143.7</ele>
        <time>2019-08-14T07:45:29Z</time>
      </trkpt>
      <trkpt lat="40.6916440" lon="-4.7247540">
        <ele>1143.6</ele>
        <time>2019-08-14T07:45:30Z</time>
      </trkpt>
      <trkpt lat="40.6916900" lon="-4.7247530">
        <ele>1143.5</ele>
        <time>2019-08-14T07:45:31Z</time>
      </trkpt>
      <trkpt lat="40.6917360" lon="-4.7247510">
        <ele>1143.5</ele>
        <time>2019-08-14T07:45:32Z</time>
      </trkpt>
      <trkpt lat="40.6917860" lon="-4.7247500">
        <ele>1143.4</ele>
        <time>2019-08-14T07:45:33Z</time>
      </trkpt>
      <trkpt lat="40.6918380" lon="-4.7247500">
        <ele>1143.3</ele>
        <time>2019-08-14T07:45:34Z</time>
      </trkpt>
      <trkpt lat="40.6918860" lon="-4.7247500">
        <ele>1143.2</ele>
        <time>2019-08-14T07:45:35Z</time>
      </trkpt>
      <trkpt lat="40.6919330" lon="-4.7247480">
        <ele>1143.2</ele>
        <time>2019-08-14T07:45:36Z</time>
      </trkpt>
      <trkpt lat="40.6919790" lon="-4.7247480">
        <ele>1143.2</ele>
        <time>2019-08-14T07:45:37Z</time>
      </trkpt>
      <trkpt lat="40.6920250" lon="-4.7247490">
        <ele>1143.2</ele>
        <time>2019-08-14T07:45:38Z</time>
      </trkpt>
      <trkpt lat="40.6920710" lon="-4.7247500">
        <ele>1143.3</ele>
        <time>2019-08-14T07:45:39Z</time>
      </trkpt>
      <trkpt lat="40.6921190" lon="-4.7247510">
        <ele>1143.3</ele>
        <time>2019-08-14T07:45:40Z</time>
      </trkpt>
      <trkpt lat="40.6921690" lon="-4.7247500">
        <ele>1143.3</ele>
        <time>2019-08-14T07:45:41Z</time>
      </trkpt>
      <trkpt lat="40.6922190" lon="-4.7247460">
        <ele>1143.4</ele>
        <time>2019-08-14T07:45:42Z</time>
      </trkpt>
      <trkpt lat="40.6922670" lon="-4.7247430">
        <ele>1143.4</ele>
        <time>2019-08-14T07:45:43Z</time>
      </trkpt>
      <trkpt lat="40.6923150" lon="-4.7247420">
        <ele>1143.5</ele>
        <time>2019-08-14T07:45:44Z</time>
      </trkpt>
      <trkpt lat="40.6923620" lon="-4.7247410">
        <ele>1143.6</ele>
        <time>2019-08-14T07:45:45Z</time>
      </trkpt>
      <trkpt lat="40.6924060" lon="-4.7247400">
        <ele>1143.8</ele>
        <time>2019-08-14T07:45:46Z</time>
      </trkpt>
      <trkpt lat="40.6924500" lon="-4.7247390">
        <ele>1143.9</ele>
        <time>2019-08-14T07:45:47Z</time>
      </trkpt>
      <trkpt lat="40.6924920" lon="-4.7247390">
        <ele>1144.1</ele>
        <time>2019-08-14T07:45:48Z</time>
      </trkpt>
      <trkpt lat="40.6925320" lon="-4.7247410">
        <ele>1144.3</ele>
        <time>2019-08-14T07:45:49Z</time>
      </trkpt>
      <trkpt lat="40.6925720" lon="-4.7247450">
        <ele>1144.5</ele>
        <time>2019-08-14T07:45:50Z</time>
      </trkpt>
      <trkpt lat="40.6926110" lon="-4.7247520">
        <ele>1144.7</ele>
        <time>2019-08-14T07:45:51Z</time>
      </trkpt>
      <trkpt lat="40.6926490" lon="-4.7247590">
        <ele>1144.9</ele>
        <time>2019-08-14T07:45:52Z</time>
      </trkpt>
      <trkpt lat="40.6926880" lon="-4.7247680">
        <ele>1145.2</ele>
        <time>2019-08-14T07:45:53Z</time>
      </trkpt>
      <trkpt lat="40.6927250" lon="-4.7247780">
        <ele>1145.4</ele>
        <time>2019-08-14T07:45:54Z</time>
      </trkpt>
      <trkpt lat="40.6927610" lon="-4.7247920">
        <ele>1145.5</ele>
        <time>2019-08-14T07:45:55Z</time>
      </trkpt>
      <trkpt lat="40.6927970" lon="-4.7248080">
        <ele>1145.7</ele>
        <time>2019-08-14T07:45:56Z</time>
      </trkpt>
      <trkpt lat="40.6928320" lon="-4.7248260">
        <ele>1145.7</ele>
        <time>2019-08-14T07:45:57Z</time>
      </trkpt>
      <trkpt lat="40.6928660" lon="-4.7248460">
        <ele>1145.8</ele>
        <time>2019-08-14T07:45:58Z</time>
      </trkpt>
      <trkpt lat="40.6929000" lon="-4.7248640">
        <ele>1145.8</ele>
        <time>2019-08-14T07:45:59Z</time>
      </trkpt>
      <trkpt lat="40.6929340" lon="-4.7248820">
        <ele>1145.9</ele>
        <time>2019-08-14T07:46:00Z</time>
      </trkpt>
      <trkpt lat="40.6929700" lon="-4.7249010">
        <ele>1146.1</ele>
        <time>2019-08-14T07:46:01Z</time>
      </trkpt>
      <trkpt lat="40.6930050" lon="-4.7249200">
        <ele>1146.3</ele>
        <time>2019-08-14T07:46:02Z</time>
      </trkpt>
      <trkpt lat="40.6930390" lon="-4.7249390">
        <ele>1146.5</ele>
        <time>2019-08-14T07:46:03Z</time>
      </trkpt>
      <trkpt lat="40.6930750" lon="-4.7249570">
        <ele>1146.8</ele>
        <time>2019-08-14T07:46:04Z</time>
      </trkpt>
      <trkpt lat="40.6931090" lon="-4.7249770">
        <ele>1147.0</ele>
        <time>2019-08-14T07:46:05Z</time>
      </trkpt>
      <trkpt lat="40.6931440" lon="-4.7249960">
        <ele>1147.2</ele>
        <time>2019-08-14T07:46:06Z</time>
      </trkpt>
      <trkpt lat="40.6931790" lon="-4.7250150">
        <ele>1147.4</ele>
        <time>2019-08-14T07:46:07Z</time>
      </trkpt>
      <trkpt lat="40.6932140" lon="-4.7250340">
        <ele>1147.7</ele>
        <time>2019-08-14T07:46:08Z</time>
      </trkpt>
      <trkpt lat="40.6932510" lon="-4.7250530">
        <ele>1147.9</ele>
        <time>2019-08-14T07:46:09Z</time>
      </trkpt>
      <trkpt lat="40.6932880" lon="-4.7250710">
        <ele>1148.0</ele>
        <time>2019-08-14T07:46:10Z</time>
      </trkpt>
      <trkpt lat="40.6933250" lon="-4.7250890">
        <ele>1148.2</ele>
        <time>2019-08-14T07:46:11Z</time>
      </trkpt>
      <trkpt lat="40.6933610" lon="-4.7251070">
        <ele>1148.4</ele>
        <time>2019-08-14T07:46:12Z</time>
      </trkpt>
      <trkpt lat="40.6933980" lon="-4.7251240">
        <ele>1148.6</ele>
        <time>2019-08-14T07:46:13Z</time>
      </trkpt>
      <trkpt lat="40.6934350" lon="-4.7251390">
        <ele>1148.8</ele>
        <time>2019-08-14T07:46:14Z</time>
      </trkpt>
      <trkpt lat="40.6934720" lon="-4.7251520">
        <ele>1149.0</ele>
        <time>2019-08-14T07:46:15Z</time>
      </trkpt>
      <trkpt lat="40.6935090" lon="-4.7251670">
        <ele>1149.2</ele>
        <time>2019-08-14T07:46:16Z</time>
      </trkpt>
      <trkpt lat="40.6935470" lon="-4.7251800">
        <ele>1149.3</ele>
        <time>2019-08-14T07:46:17Z</time>
      </trkpt>
      <trkpt lat="40.6935860" lon="-4.7251910">
        <ele>1149.5</ele>
        <time>2019-08-14T07:46:18Z</time>
      </trkpt>
      <trkpt lat="40.6936260" lon="-4.7252010">
        <ele>1149.6</ele>
        <time>2019-08-14T07:46:19Z</time>
      </trkpt>
      <trkpt lat="40.6936650" lon="-4.7252090">
        <ele>1149.7</ele>
        <time>2019-08-14T07:46:20Z</time>
      </trkpt>
      <trkpt lat="40.6937040" lon="-4.7252150">
        <ele>1149.8</ele>
        <time>2019-08-14T07:46:21Z</time>
      </trkpt>
      <trkpt lat="40.6937450" lon="-4.7252170">
        <ele>1150.0</ele>
        <time>2019-08-14T07:46:22Z</time>
      </trkpt>
      <trkpt lat="40.6937850" lon="-4.7252160">
        <ele>1150.1</ele>
        <time>2019-08-14T07:46:23Z</time>
      </trkpt>
      <trkpt lat="40.6938250" lon="-4.7252140">
        <ele>1150.3</ele>
        <time>2019-08-14T07:46:24Z</time>
      </trkpt>
      <trkpt lat="40.6938660" lon="-4.7252100">
        <ele>1150.4</ele>
        <time>2019-08-14T07:46:25Z</time>
      </trkpt>
      <trkpt lat="40.6939040" lon="-4.7252050">
        <ele>1150.6</ele>
        <time>2019-08-14T07:46:26Z</time>
      </trkpt>
      <trkpt lat="40.6939430" lon="-4.7251960">
        <ele>1150.7</ele>
        <time>2019-08-14T07:46:27Z</time>
      </trkpt>
      <trkpt lat="40.6939820" lon="-4.7251880">
        <ele>1150.8</ele>
        <time>2019-08-14T07:46:28Z</time>
      </trkpt>
      <trkpt lat="40.6940200" lon="-4.7251800">
        <ele>1151.0</ele>
        <time>2019-08-14T07:46:29Z</time>
      </trkpt>
      <trkpt lat="40.6940590" lon="-4.7251720">
        <ele>1151.1</ele>
        <time>2019-08-14T07:46:30Z</time>
      </trkpt>
      <trkpt lat="40.6940970" lon="-4.7251630">
        <ele>1151.3</ele>
        <time>2019-08-14T07:46:31Z</time>
      </trkpt>
      <trkpt lat="40.6941350" lon="-4.7251540">
        <ele>1151.4</ele>
        <time>2019-08-14T07:46:32Z</time>
      </trkpt>
      <trkpt lat="40.6941730" lon="-4.7251460">
        <ele>1151.7</ele>
        <time>2019-08-14T07:46:33Z</time>
      </trkpt>
      <trkpt lat="40.6942120" lon="-4.7251360">
        <ele>1151.9</ele>
        <time>2019-08-14T07:46:34Z</time>
      </trkpt>
      <trkpt lat="40.6942520" lon="-4.7251270">
        <ele>1152.1</ele>
        <time>2019-08-14T07:46:35Z</time>
      </trkpt>
      <trkpt lat="40.6942910" lon="-4.7251170">
        <ele>1152.4</ele>
        <time>2019-08-14T07:46:36Z</time>
      </trkpt>
      <trkpt lat="40.6943310" lon="-4.7251080">
        <ele>1152.6</ele>
        <time>2019-08-14T07:46:37Z</time>
      </trkpt>
      <trkpt lat="40.6943710" lon="-4.7250970">
        <ele>1152.8</ele>
        <time>2019-08-14T07:46:38Z</time>
      </trkpt>
      <trkpt lat="40.6944110" lon="-4.7250920">
        <ele>1153.0</ele>
        <time>2019-08-14T07:46:39Z</time>
      </trkpt>
      <trkpt lat="40.6944500" lon="-4.7250840">
        <ele>1153.2</ele>
        <time>2019-08-14T07:46:40Z</time>
      </trkpt>
      <trkpt lat="40.6944890" lon="-4.7250770">
        <ele>1153.4</ele>
        <time>2019-08-14T07:46:41Z</time>
      </trkpt>
      <trkpt lat="40.6945290" lon="-4.7250680">
        <ele>1153.6</ele>
        <time>2019-08-14T07:46:42Z</time>
      </trkpt>
      <trkpt lat="40.6945690" lon="-4.7250600">
        <ele>1153.7</ele>
        <time>2019-08-14T07:46:43Z</time>
      </trkpt>
      <trkpt lat="40.6946080" lon="-4.7250510">
        <ele>1153.9</ele>
        <time>2019-08-14T07:46:44Z</time>
      </trkpt>
      <trkpt lat="40.6946490" lon="-4.7250410">
        <ele>1154.0</ele>
        <time>2019-08-14T07:46:45Z</time>
      </trkpt>
      <trkpt lat="40.6946870" lon="-4.7250310">
        <ele>1154.1</ele>
        <time>2019-08-14T07:46:46Z</time>
      </trkpt>
      <trkpt lat="40.6947220" lon="-4.7250230">
        <ele>1154.3</ele>
        <time>2019-08-14T07:46:47Z</time>
      </trkpt>
      <trkpt lat="40.6947540" lon="-4.7250160">
        <ele>1154.4</ele>
        <time>2019-08-14T07:46:48Z</time>
      </trkpt>
      <trkpt lat="40.6947850" lon="-4.7250080">
        <ele>1154.5</ele>
        <time>2019-08-14T07:46:49Z</time>
      </trkpt>
      <trkpt lat="40.6948110" lon="-4.7249990">
        <ele>1154.6</ele>
        <time>2019-08-14T07:46:50Z</time>
      </trkpt>
      <trkpt lat="40.6948500" lon="-4.7249710">
        <ele>1154.9</ele>
        <time>2019-08-14T07:46:52Z</time>
      </trkpt>
      <trkpt lat="40.6948870" lon="-4.7249330">
        <ele>1154.8</ele>
        <time>2019-08-14T07:46:54Z</time>
      </trkpt>
      <trkpt lat="40.6949290" lon="-4.7249070">
        <ele>1154.7</ele>
        <time>2019-08-14T07:46:56Z</time>
      </trkpt>
      <trkpt lat="40.6949620" lon="-4.7248920">
        <ele>1155.1</ele>
        <time>2019-08-14T07:46:58Z</time>
      </trkpt>
      <trkpt lat="40.6949880" lon="-4.7248820">
        <ele>1155.1</ele>
        <time>2019-08-14T07:47:00Z</time>
      </trkpt>
      <trkpt lat="40.6950150" lon="-4.7248530">
        <ele>1155.2</ele>
        <time>2019-08-14T07:47:02Z</time>
      </trkpt>
      <trkpt lat="40.6950480" lon="-4.7248200">
        <ele>1155.3</ele>
        <time>2019-08-14T07:47:04Z</time>
      </trkpt>
      <trkpt lat="40.6950870" lon="-4.7248010">
        <ele>1155.3</ele>
        <time>2019-08-14T07:47:06Z</time>
      </trkpt>
      <trkpt lat="40.6951250" lon="-4.7247880">
        <ele>1155.4</ele>
        <time>2019-08-14T07:47:08Z</time>
      </trkpt>
      <trkpt lat="40.6951580" lon="-4.7247780">
        <ele>1155.5</ele>
        <time>2019-08-14T07:47:10Z</time>
      </trkpt>
      <trkpt lat="40.6951890" lon="-4.7247740">
        <ele>1155.6</ele>
        <time>2019-08-14T07:47:12Z</time>
      </trkpt>
      <trkpt lat="40.6952210" lon="-4.7247830">
        <ele>1155.6</ele>
        <time>2019-08-14T07:47:15Z</time>
      </trkpt>
      <trkpt lat="40.6952440" lon="-4.7247850">
        <ele>1155.7</ele>
        <time>2019-08-14T07:47:18Z</time>
      </trkpt>
      <trkpt lat="40.6952310" lon="-4.7247510">
        <ele>1155.7</ele>
        <time>2019-08-14T07:47:21Z</time>
      </trkpt>
      <trkpt lat="40.6951920" lon="-4.7247740">
        <ele>1155.8</ele>
        <time>2019-08-14T07:47:24Z</time>
      </trkpt>
      <trkpt lat="40.6951590" lon="-4.7247910">
        <ele>1155.9</ele>
        <time>2019-08-14T07:47:26Z</time>
      </trkpt>
      <trkpt lat="40.6951110" lon="-4.7248220">
        <ele>1155.7</ele>
        <time>2019-08-14T07:47:28Z</time>
      </trkpt>
      <trkpt lat="40.6950800" lon="-4.7248400">
        <ele>1155.5</ele>
        <time>2019-08-14T07:47:29Z</time>
      </trkpt>
      <trkpt lat="40.6950470" lon="-4.7248600">
        <ele>1155.4</ele>
        <time>2019-08-14T07:47:30Z</time>
      </trkpt>
      <trkpt lat="40.6950160" lon="-4.7248810">
        <ele>1155.1</ele>
        <time>2019-08-14T07:47:31Z</time>
      </trkpt>
      <trkpt lat="40.6949870" lon="-4.7249030">
        <ele>1155.0</ele>
        <time>2019-08-14T07:47:32Z</time>
      </trkpt>
      <trkpt lat="40.6949620" lon="-4.7249250">
        <ele>1155.0</ele>
        <time>2019-08-14T07:47:33Z</time>
      </trkpt>
      <trkpt lat="40.6949220" lon="-4.7249670">
        <ele>1154.9</ele>
        <time>2019-08-14T07:47:35Z</time>
      </trkpt>
      <trkpt lat="40.6948960" lon="-4.7250250">
        <ele>1154.9</ele>
        <time>2019-08-14T07:47:37Z</time>
      </trkpt>
      <trkpt lat="40.6948890" lon="-4.7250630">
        <ele>1154.9</ele>
        <time>2019-08-14T07:47:38Z</time>
      </trkpt>
      <trkpt lat="40.6948860" lon="-4.7251060">
        <ele>1154.9</ele>
        <time>2019-08-14T07:47:39Z</time>
      </trkpt>
      <trkpt lat="40.6948850" lon="-4.7251490">
        <ele>1154.9</ele>
        <time>2019-08-14T07:47:40Z</time>
      </trkpt>
      <trkpt lat="40.6948850" lon="-4.7251910">
        <ele>1155.0</ele>
        <time>2019-08-14T07:47:41Z</time>
      </trkpt>
      <trkpt lat="40.6948870" lon="-4.7252360">
        <ele>1155.0</ele>
        <time>2019-08-14T07:47:42Z</time>
      </trkpt>
      <trkpt lat="40.6948890" lon="-4.7252810">
        <ele>1155.0</ele>
        <time>2019-08-14T07:47:43Z</time>
      </trkpt>
      <trkpt lat="40.6948910" lon="-4.7253250">
        <ele>1155.0</ele>
        <time>2019-08-14T07:47:44Z</time>
      </trkpt>
      <trkpt lat="40.6948900" lon="-4.7253690">
        <ele>1155.0</ele>
        <time>2019-08-14T07:47:45Z</time>
      </trkpt>
      <trkpt lat="40.6948890" lon="-4.7254130">
        <ele>1155.1</ele>
        <time>2019-08-14T07:47:46Z</time>
      </trkpt>
      <trkpt lat="40.6948870" lon="-4.7254590">
        <ele>1155.1</ele>
        <time>2019-08-14T07:47:47Z</time>
      </trkpt>
      <trkpt lat="40.6948860" lon="-4.7255070">
        <ele>1155.1</ele>
        <time>2019-08-14T07:47:48Z</time>
      </trkpt>
      <trkpt lat="40.6948850" lon="-4.7255560">
        <ele>1155.2</ele>
        <time>2019-08-14T07:47:49Z</time>
      </trkpt>
      <trkpt lat="40.6948840" lon="-4.7256060">
        <ele>1155.2</ele>
        <time>2019-08-14T07:47:50Z</time>
      </trkpt>
      <trkpt lat="40.6948830" lon="-4.7256550">
        <ele>1155.1</ele>
        <time>2019-08-14T07:47:51Z</time>
      </trkpt>
      <trkpt lat="40.6948840" lon="-4.7257070">
        <ele>1155.1</ele>
        <time>2019-08-14T07:47:52Z</time>
      </trkpt>
      <trkpt lat="40.6948830" lon="-4.7257540">
        <ele>1155.0</ele>
        <time>2019-08-14T07:47:53Z</time>
      </trkpt>
      <trkpt lat="40.6948830" lon="-4.7257980">
        <ele>1155.0</ele>
        <time>2019-08-14T07:47:54Z</time>
      </trkpt>
      <trkpt lat="40.6948840" lon="-4.7258400">
        <ele>1155.0</ele>
        <time>2019-08-14T07:47:55Z</time>
      </trkpt>
      <trkpt lat="40.6948860" lon="-4.7258840">
        <ele>1154.9</ele>
        <time>2019-08-14T07:47:56Z</time>
      </trkpt>
      <trkpt lat="40.6948870" lon="-4.7259290">
        <ele>1154.9</ele>
        <time>2019-08-14T07:47:57Z</time>
      </trkpt>
      <trkpt lat="40.6948890" lon="-4.7259770">
        <ele>1154.9</ele>
        <time>2019-08-14T07:47:58Z</time>
      </trkpt>
      <trkpt lat="40.6948910" lon="-4.7260240">
        <ele>1154.9</ele>
        <time>2019-08-14T07:47:59Z</time>
      </trkpt>
      <trkpt lat="40.6948940" lon="-4.7260690">
        <ele>1154.9</ele>
        <time>2019-08-14T07:48:00Z</time>
      </trkpt>
      <trkpt lat="40.6948980" lon="-4.7261130">
        <ele>1154.9</ele>
        <time>2019-08-14T07:48:01Z</time>
      </trkpt>
      <trkpt lat="40.6949010" lon="-4.7261570">
        <ele>1154.9</ele>
        <time>2019-08-14T07:48:02Z</time>
      </trkpt>
      <trkpt lat="40.6949040" lon="-4.7262030">
        <ele>1154.9</ele>
        <time>2019-08-14T07:48:03Z</time>
      </trkpt>
      <trkpt lat="40.6949060" lon="-4.7262490">
        <ele>1154.9</ele>
        <time>2019-08-14T07:48:04Z</time>
      </trkpt>
      <trkpt lat="40.6949090" lon="-4.7262950">
        <ele>1155.0</ele>
        <time>2019-08-14T07:48:05Z</time>
      </trkpt>
      <trkpt lat="40.6949150" lon="-4.7263390">
        <ele>1155.0</ele>
        <time>2019-08-14T07:48:06Z</time>
      </trkpt>
      <trkpt lat="40.6949230" lon="-4.7263810">
        <ele>1155.1</ele>
        <time>2019-08-14T07:48:07Z</time>
      </trkpt>
      <trkpt lat="40.6949340" lon="-4.7264180">
        <ele>1155.1</ele>
        <time>2019-08-14T07:48:08Z</time>
      </trkpt>
      <trkpt lat="40.6949670" lon="-4.7264570">
        <ele>1155.6</ele>
        <time>2019-08-14T07:48:10Z</time>
      </trkpt>
      <trkpt lat="40.6950010" lon="-4.7264430">
        <ele>1155.8</ele>
        <time>2019-08-14T07:48:12Z</time>
      </trkpt>
      <trkpt lat="40.6950310" lon="-4.7264040">
        <ele>1156.0</ele>
        <time>2019-08-14T07:48:14Z</time>
      </trkpt>
      <trkpt lat="40.6950570" lon="-4.7263630">
        <ele>1156.2</ele>
        <time>2019-08-14T07:48:16Z</time>
      </trkpt>
      <trkpt lat="40.6950770" lon="-4.7263200">
        <ele>1156.4</ele>
        <time>2019-08-14T07:48:18Z</time>
      </trkpt>
      <trkpt lat="40.6950970" lon="-4.7262620">
        <ele>1156.5</ele>
        <time>2019-08-14T07:48:20Z</time>
      </trkpt>
      <trkpt lat="40.6951090" lon="-4.7262250">
        <ele>1156.5</ele>
        <time>2019-08-14T07:48:21Z</time>
      </trkpt>
      <trkpt lat="40.6951210" lon="-4.7261840">
        <ele>1156.6</ele>
        <time>2019-08-14T07:48:22Z</time>
      </trkpt>
      <trkpt lat="40.6951350" lon="-4.7261400">
        <ele>1156.6</ele>
        <time>2019-08-14T07:48:23Z</time>
      </trkpt>
      <trkpt lat="40.6951520" lon="-4.7260940">
        <ele>1156.6</ele>
        <time>2019-08-14T07:48:24Z</time>
      </trkpt>
      <trkpt lat="40.6951700" lon="-4.7260480">
        <ele>1156.6</ele>
        <time>2019-08-14T07:48:25Z</time>
      </trkpt>
      <trkpt lat="40.6951880" lon="-4.7260040">
        <ele>1156.5</ele>
        <time>2019-08-14T07:48:26Z</time>
      </trkpt>
      <trkpt lat="40.6952060" lon="-4.7259600">
        <ele>1156.5</ele>
        <time>2019-08-14T07:48:27Z</time>
      </trkpt>
      <trkpt lat="40.6952240" lon="-4.7259170">
        <ele>1156.5</ele>
        <time>2019-08-14T07:48:28Z</time>
      </trkpt>
      <trkpt lat="40.6952450" lon="-4.7258740">
        <ele>1156.5</ele>
        <time>2019-08-14T07:48:29Z</time>
      </trkpt>
      <trkpt lat="40.6952690" lon="-4.7258340">
        <ele>1156.4</ele>
        <time>2019-08-14T07:48:30Z</time>
      </trkpt>
      <trkpt lat="40.6952980" lon="-4.7257950">
        <ele>1156.4</ele>
        <time>2019-08-14T07:48:31Z</time>
      </trkpt>
      <trkpt lat="40.6953290" lon="-4.7257580">
        <ele>1156.4</ele>
        <time>2019-08-14T07:48:32Z</time>
      </trkpt>
      <trkpt lat="40.6953600" lon="-4.7257220">
        <ele>1156.4</ele>
        <time>2019-08-14T07:48:33Z</time>
      </trkpt>
      <trkpt lat="40.6953880" lon="-4.7256870">
        <ele>1156.3</ele>
        <time>2019-08-14T07:48:34Z</time>
      </trkpt>
      <trkpt lat="40.6954170" lon="-4.7256540">
        <ele>1156.3</ele>
        <time>2019-08-14T07:48:35Z</time>
      </trkpt>
      <trkpt lat="40.6954480" lon="-4.7256250">
        <ele>1156.2</ele>
        <time>2019-08-14T07:48:36Z</time>
      </trkpt>
      <trkpt lat="40.6954800" lon="-4.7255990">
        <ele>1156.2</ele>
        <time>2019-08-14T07:48:37Z</time>
      </trkpt>
      <trkpt lat="40.6955130" lon="-4.7255770">
        <ele>1156.2</ele>
        <time>2019-08-14T07:48:38Z</time>
      </trkpt>
      <trkpt lat="40.6955450" lon="-4.7255580">
        <ele>1156.3</ele>
        <time>2019-08-14T07:48:39Z</time>
      </trkpt>
      <trkpt lat="40.6955750" lon="-4.7255420">
        <ele>1156.3</ele>
        <time>2019-08-14T07:48:40Z</time>
      </trkpt>
      <trkpt lat="40.6956050" lon="-4.7255260">
        <ele>1156.4</ele>
        <time>2019-08-14T07:48:41Z</time>
      </trkpt>
      <trkpt lat="40.6956330" lon="-4.7255120">
        <ele>1156.5</ele>
        <time>2019-08-14T07:48:42Z</time>
      </trkpt>
      <trkpt lat="40.6956610" lon="-4.7255000">
        <ele>1156.6</ele>
        <time>2019-08-14T07:48:43Z</time>
      </trkpt>
      <trkpt lat="40.6956880" lon="-4.7254890">
        <ele>1156.7</ele>
        <time>2019-08-14T07:48:44Z</time>
      </trkpt>
      <trkpt lat="40.6957150" lon="-4.7254780">
        <ele>1156.8</ele>
        <time>2019-08-14T07:48:45Z</time>
      </trkpt>
      <trkpt lat="40.6957420" lon="-4.7254670">
        <ele>1156.9</ele>
        <time>2019-08-14T07:48:46Z</time>
      </trkpt>
      <trkpt lat="40.6957680" lon="-4.7254570">
        <ele>1157.0</ele>
        <time>2019-08-14T07:48:47Z</time>
      </trkpt>
      <trkpt lat="40.6958190" lon="-4.7254380">
        <ele>1157.1</ele>
        <time>2019-08-14T07:48:49Z</time>
      </trkpt>
      <trkpt lat="40.6958710" lon="-4.7254200">
        <ele>1157.3</ele>
        <time>2019-08-14T07:48:51Z</time>
      </trkpt>
      <trkpt lat="40.6959230" lon="-4.7254030">
        <ele>1157.4</ele>
        <time>2019-08-14T07:48:53Z</time>
      </trkpt>
      <trkpt lat="40.6959500" lon="-4.7253960">
        <ele>1157.4</ele>
        <time>2019-08-14T07:48:54Z</time>
      </trkpt>
      <trkpt lat="40.6959780" lon="-4.7253890">
        <ele>1157.5</ele>
        <time>2019-08-14T07:48:55Z</time>
      </trkpt>
      <trkpt lat="40.6960050" lon="-4.7253780">
        <ele>1157.5</ele>
        <time>2019-08-14T07:48:56Z</time>
      </trkpt>
      <trkpt lat="40.6960320" lon="-4.7253650">
        <ele>1157.6</ele>
        <time>2019-08-14T07:48:57Z</time>
      </trkpt>
      <trkpt lat="40.6960590" lon="-4.7253490">
        <ele>1157.6</ele>
        <time>2019-08-14T07:48:58Z</time>
      </trkpt>
      <trkpt lat="40.6960850" lon="-4.7253290">
        <ele>1157.7</ele>
        <time>2019-08-14T07:48:59Z</time>
      </trkpt>
      <trkpt lat="40.6961100" lon="-4.7253090">
        <ele>1157.7</ele>
        <time>2019-08-14T07:49:00Z</time>
      </trkpt>
      <trkpt lat="40.6961350" lon="-4.7252870">
        <ele>1157.7</ele>
        <time>2019-08-14T07:49:01Z</time>
      </trkpt>
      <trkpt lat="40.6961590" lon="-4.7252640">
        <ele>1157.7</ele>
        <time>2019-08-14T07:49:02Z</time>
      </trkpt>
      <trkpt lat="40.6961830" lon="-4.7252390">
        <ele>1157.7</ele>
        <time>2019-08-14T07:49:03Z</time>
      </trkpt>
      <trkpt lat="40.6962060" lon="-4.7252120">
        <ele>1157.7</ele>
        <time>2019-08-14T07:49:04Z</time>
      </trkpt>
      <trkpt lat="40.6962290" lon="-4.7251840">
        <ele>1157.7</ele>
        <time>2019-08-14T07:49:05Z</time>
      </trkpt>
      <trkpt lat="40.6962530" lon="-4.7251550">
        <ele>1157.7</ele>
        <time>2019-08-14T07:49:06Z</time>
      </trkpt>
      <trkpt lat="40.6962780" lon="-4.7251270">
        <ele>1157.7</ele>
        <time>2019-08-14T07:49:07Z</time>
      </trkpt>
      <trkpt lat="40.6963040" lon="-4.7250960">
        <ele>1157.7</ele>
        <time>2019-08-14T07:49:08Z</time>
      </trkpt>
      <trkpt lat="40.6963310" lon="-4.7250640">
        <ele>1157.7</ele>
        <time>2019-08-14T07:49:09Z</time>
      </trkpt>
      <trkpt lat="40.6963630" lon="-4.7250320">
        <ele>1157.6</ele>
        <time>2019-08-14T07:49:10Z</time>
      </trkpt>
      <trkpt lat="40.6964000" lon="-4.7250000">
        <ele>1157.6</ele>
        <time>2019-08-14T07:49:11Z</time>
      </trkpt>
      <trkpt lat="40.6964410" lon="-4.7249670">
        <ele>1157.6</ele>
        <time>2019-08-14T07:49:12Z</time>
      </trkpt>
      <trkpt lat="40.6964860" lon="-4.7249360">
        <ele>1157.6</ele>
        <time>2019-08-14T07:49:13Z</time>
      </trkpt>
      <trkpt lat="40.6965340" lon="-4.7249100">
        <ele>1157.6</ele>
        <time>2019-08-14T07:49:14Z</time>
      </trkpt>
      <trkpt lat="40.6965830" lon="-4.7248930">
        <ele>1157.5</ele>
        <time>2019-08-14T07:49:15Z</time>
      </trkpt>
      <trkpt lat="40.6966340" lon="-4.7248870">
        <ele>1157.5</ele>
        <time>2019-08-14T07:49:16Z</time>
      </trkpt>
      <trkpt lat="40.6966840" lon="-4.7248910">
        <ele>1157.5</ele>
        <time>2019-08-14T07:49:17Z</time>
      </trkpt>
      <trkpt lat="40.6967330" lon="-4.7249000">
        <ele>1157.5</ele>
        <time>2019-08-14T07:49:18Z</time>
      </trkpt>
      <trkpt lat="40.6967810" lon="-4.7249130">
        <ele>1157.5</ele>
        <time>2019-08-14T07:49:19Z</time>
      </trkpt>
      <trkpt lat="40.6968290" lon="-4.7249290">
        <ele>1157.5</ele>
        <time>2019-08-14T07:49:20Z</time>
      </trkpt>
      <trkpt lat="40.6968770" lon="-4.7249480">
        <ele>1157.5</ele>
        <time>2019-08-14T07:49:21Z</time>
      </trkpt>
      <trkpt lat="40.6969270" lon="-4.7249680">
        <ele>1157.5</ele>
        <time>2019-08-14T07:49:22Z</time>
      </trkpt>
      <trkpt lat="40.6969750" lon="-4.7249880">
        <ele>1157.5</ele>
        <time>2019-08-14T07:49:23Z</time>
      </trkpt>
      <trkpt lat="40.6970230" lon="-4.7250090">
        <ele>1157.5</ele>
        <time>2019-08-14T07:49:24Z</time>
      </trkpt>
      <trkpt lat="40.6970720" lon="-4.7250320">
        <ele>1157.5</ele>
        <time>2019-08-14T07:49:25Z</time>
      </trkpt>
      <trkpt lat="40.6971210" lon="-4.7250550">
        <ele>1157.5</ele>
        <time>2019-08-14T07:49:26Z</time>
      </trkpt>
      <trkpt lat="40.6971710" lon="-4.7250790">
        <ele>1157.5</ele>
        <time>2019-08-14T07:49:27Z</time>
      </trkpt>
      <trkpt lat="40.6972190" lon="-4.7251050">
        <ele>1157.5</ele>
        <time>2019-08-14T07:49:28Z</time>
      </trkpt>
      <trkpt lat="40.6972650" lon="-4.7251300">
        <ele>1157.5</ele>
        <time>2019-08-14T07:49:29Z</time>
      </trkpt>
      <trkpt lat="40.6973120" lon="-4.7251510">
        <ele>1157.5</ele>
        <time>2019-08-14T07:49:30Z</time>
      </trkpt>
      <trkpt lat="40.6973580" lon="-4.7251710">
        <ele>1157.5</ele>
        <time>2019-08-14T07:49:31Z</time>
      </trkpt>
      <trkpt lat="40.6974060" lon="-4.7251920">
        <ele>1157.5</ele>
        <time>2019-08-14T07:49:32Z</time>
      </trkpt>
      <trkpt lat="40.6974540" lon="-4.7252140">
        <ele>1157.5</ele>
        <time>2019-08-14T07:49:33Z</time>
      </trkpt>
      <trkpt lat="40.6975030" lon="-4.7252370">
        <ele>1157.6</ele>
        <time>2019-08-14T07:49:34Z</time>
      </trkpt>
      <trkpt lat="40.6975510" lon="-4.7252610">
        <ele>1157.6</ele>
        <time>2019-08-14T07:49:35Z</time>
      </trkpt>
      <trkpt lat="40.6975990" lon="-4.7252870">
        <ele>1157.7</ele>
        <time>2019-08-14T07:49:36Z</time>
      </trkpt>
      <trkpt lat="40.6976470" lon="-4.7253120">
        <ele>1157.8</ele>
        <time>2019-08-14T07:49:37Z</time>
      </trkpt>
      <trkpt lat="40.6976950" lon="-4.7253370">
        <ele>1157.8</ele>
        <time>2019-08-14T07:49:38Z</time>
      </trkpt>
      <trkpt lat="40.6977420" lon="-4.7253580">
        <ele>1157.9</ele>
        <time>2019-08-14T07:49:39Z</time>
      </trkpt>
      <trkpt lat="40.6977860" lon="-4.7253800">
        <ele>1158.0</ele>
        <time>2019-08-14T07:49:40Z</time>
      </trkpt>
      <trkpt lat="40.6978270" lon="-4.7254010">
        <ele>1158.1</ele>
        <time>2019-08-14T07:49:41Z</time>
      </trkpt>
      <trkpt lat="40.6978660" lon="-4.7254220">
        <ele>1158.1</ele>
        <time>2019-08-14T07:49:42Z</time>
      </trkpt>
      <trkpt lat="40.6979060" lon="-4.7254420">
        <ele>1158.2</ele>
        <time>2019-08-14T07:49:43Z</time>
      </trkpt>
      <trkpt lat="40.6979480" lon="-4.7254620">
        <ele>1158.2</ele>
        <time>2019-08-14T07:49:44Z</time>
      </trkpt>
      <trkpt lat="40.6979910" lon="-4.7254820">
        <ele>1158.3</ele>
        <time>2019-08-14T07:49:45Z</time>
      </trkpt>
      <trkpt lat="40.6980350" lon="-4.7255040">
        <ele>1158.4</ele>
        <time>2019-08-14T07:49:46Z</time>
      </trkpt>
      <trkpt lat="40.6980780" lon="-4.7255240">
        <ele>1158.4</ele>
        <time>2019-08-14T07:49:47Z</time>
      </trkpt>
      <trkpt lat="40.6981220" lon="-4.7255460">
        <ele>1158.5</ele>
        <time>2019-08-14T07:49:48Z</time>
      </trkpt>
      <trkpt lat="40.6981650" lon="-4.7255690">
        <ele>1158.7</ele>
        <time>2019-08-14T07:49:49Z</time>
      </trkpt>
      <trkpt lat="40.6982070" lon="-4.7255910">
        <ele>1158.9</ele>
        <time>2019-08-14T07:49:50Z</time>
      </trkpt>
      <trkpt lat="40.6982480" lon="-4.7256150">
        <ele>1159.1</ele>
        <time>2019-08-14T07:49:51Z</time>
      </trkpt>
      <trkpt lat="40.6982870" lon="-4.7256390">
        <ele>1159.2</ele>
        <time>2019-08-14T07:49:52Z</time>
      </trkpt>
      <trkpt lat="40.6983250" lon="-4.7256630">
        <ele>1159.4</ele>
        <time>2019-08-14T07:49:53Z</time>
      </trkpt>
      <trkpt lat="40.6983590" lon="-4.7256890">
        <ele>1159.6</ele>
        <time>2019-08-14T07:49:54Z</time>
      </trkpt>
      <trkpt lat="40.6983940" lon="-4.7257140">
        <ele>1159.8</ele>
        <time>2019-08-14T07:49:55Z</time>
      </trkpt>
      <trkpt lat="40.6984260" lon="-4.7257400">
        <ele>1160.0</ele>
        <time>2019-08-14T07:49:56Z</time>
      </trkpt>
      <trkpt lat="40.6984570" lon="-4.7257610">
        <ele>1160.1</ele>
        <time>2019-08-14T07:49:57Z</time>
      </trkpt>
      <trkpt lat="40.6984900" lon="-4.7257810">
        <ele>1160.3</ele>
        <time>2019-08-14T07:49:58Z</time>
      </trkpt>
      <trkpt lat="40.6985200" lon="-4.7258020">
        <ele>1160.4</ele>
        <time>2019-08-14T07:49:59Z</time>
      </trkpt>
      <trkpt lat="40.6985490" lon="-4.7258240">
        <ele>1160.6</ele>
        <time>2019-08-14T07:50:00Z</time>
      </trkpt>
      <trkpt lat="40.6985790" lon="-4.7258440">
        <ele>1160.7</ele>
        <time>2019-08-14T07:50:01Z</time>
      </trkpt>
      <trkpt lat="40.6986110" lon="-4.7258610">
        <ele>1160.9</ele>
        <time>2019-08-14T07:50:02Z</time>
      </trkpt>
      <trkpt lat="40.6986440" lon="-4.7258780">
        <ele>1161.0</ele>
        <time>2019-08-14T07:50:03Z</time>
      </trkpt>
      <trkpt lat="40.6986800" lon="-4.7258910">
        <ele>1161.2</ele>
        <time>2019-08-14T07:50:04Z</time>
      </trkpt>
      <trkpt lat="40.6987170" lon="-4.7259020">
        <ele>1161.3</ele>
        <time>2019-08-14T07:50:05Z</time>
      </trkpt>
      <trkpt lat="40.6987540" lon="-4.7259070">
        <ele>1161.4</ele>
        <time>2019-08-14T07:50:06Z</time>
      </trkpt>
      <trkpt lat="40.6987910" lon="-4.7259130">
        <ele>1161.5</ele>
        <time>2019-08-14T07:50:07Z</time>
      </trkpt>
      <trkpt lat="40.6988300" lon="-4.7259210">
        <ele>1161.6</ele>
        <time>2019-08-14T07:50:08Z</time>
      </trkpt>
      <trkpt lat="40.6988680" lon="-4.7259340">
        <ele>1161.8</ele>
        <time>2019-08-14T07:50:09Z</time>
      </trkpt>
      <trkpt lat="40.6989020" lon="-4.7259550">
        <ele>1161.9</ele>
        <time>2019-08-14T07:50:10Z</time>
      </trkpt>
      <trkpt lat="40.6989350" lon="-4.7259840">
        <ele>1162.1</ele>
        <time>2019-08-14T07:50:11Z</time>
      </trkpt>
      <trkpt lat="40.6989660" lon="-4.7260160">
        <ele>1162.2</ele>
        <time>2019-08-14T07:50:12Z</time>
      </trkpt>
      <trkpt lat="40.6989960" lon="-4.7260500">
        <ele>1162.4</ele>
        <time>2019-08-14T07:50:13Z</time>
      </trkpt>
      <trkpt lat="40.6990250" lon="-4.7260840">
        <ele>1162.5</ele>
        <time>2019-08-14T07:50:14Z</time>
      </trkpt>
      <trkpt lat="40.6990530" lon="-4.7261170">
        <ele>1162.7</ele>
        <time>2019-08-14T07:50:15Z</time>
      </trkpt>
      <trkpt lat="40.6990830" lon="-4.7261460">
        <ele>1162.9</ele>
        <time>2019-08-14T07:50:16Z</time>
      </trkpt>
      <trkpt lat="40.6991150" lon="-4.7261690">
        <ele>1163.0</ele>
        <time>2019-08-14T07:50:17Z</time>
      </trkpt>
      <trkpt lat="40.6991480" lon="-4.7261850">
        <ele>1163.1</ele>
        <time>2019-08-14T07:50:18Z</time>
      </trkpt>
      <trkpt lat="40.6991820" lon="-4.7261960">
        <ele>1163.3</ele>
        <time>2019-08-14T07:50:19Z</time>
      </trkpt>
      <trkpt lat="40.6992160" lon="-4.7262000">
        <ele>1163.4</ele>
        <time>2019-08-14T07:50:20Z</time>
      </trkpt>
      <trkpt lat="40.6992510" lon="-4.7261980">
        <ele>1163.5</ele>
        <time>2019-08-14T07:50:21Z</time>
      </trkpt>
      <trkpt lat="40.6992860" lon="-4.7261940">
        <ele>1163.6</ele>
        <time>2019-08-14T07:50:22Z</time>
      </trkpt>
      <trkpt lat="40.6993230" lon="-4.7261950">
        <ele>1163.7</ele>
        <time>2019-08-14T07:50:23Z</time>
      </trkpt>
      <trkpt lat="40.6993610" lon="-4.7262000">
        <ele>1163.8</ele>
        <time>2019-08-14T07:50:24Z</time>
      </trkpt>
      <trkpt lat="40.6994000" lon="-4.7262090">
        <ele>1163.9</ele>
        <time>2019-08-14T07:50:25Z</time>
      </trkpt>
      <trkpt lat="40.6994400" lon="-4.7262210">
        <ele>1164.0</ele>
        <time>2019-08-14T07:50:26Z</time>
      </trkpt>
      <trkpt lat="40.6994760" lon="-4.7262380">
        <ele>1164.2</ele>
        <time>2019-08-14T07:50:27Z</time>
      </trkpt>
      <trkpt lat="40.6995120" lon="-4.7262590">
        <ele>1164.3</ele>
        <time>2019-08-14T07:50:28Z</time>
      </trkpt>
      <trkpt lat="40.6995450" lon="-4.7262810">
        <ele>1164.4</ele>
        <time>2019-08-14T07:50:29Z</time>
      </trkpt>
      <trkpt lat="40.6995780" lon="-4.7263030">
        <ele>1164.5</ele>
        <time>2019-08-14T07:50:30Z</time>
      </trkpt>
      <trkpt lat="40.6996120" lon="-4.7263250">
        <ele>1164.6</ele>
        <time>2019-08-14T07:50:31Z</time>
      </trkpt>
      <trkpt lat="40.6996440" lon="-4.7263450">
        <ele>1164.7</ele>
        <time>2019-08-14T07:50:32Z</time>
      </trkpt>
      <trkpt lat="40.6996780" lon="-4.7263660">
        <ele>1164.8</ele>
        <time>2019-08-14T07:50:33Z</time>
      </trkpt>
      <trkpt lat="40.6997100" lon="-4.7263860">
        <ele>1164.9</ele>
        <time>2019-08-14T07:50:34Z</time>
      </trkpt>
      <trkpt lat="40.6997420" lon="-4.7264050">
        <ele>1165.0</ele>
        <time>2019-08-14T07:50:35Z</time>
      </trkpt>
      <trkpt lat="40.6997720" lon="-4.7264230">
        <ele>1165.1</ele>
        <time>2019-08-14T07:50:36Z</time>
      </trkpt>
      <trkpt lat="40.6998020" lon="-4.7264420">
        <ele>1165.2</ele>
        <time>2019-08-14T07:50:37Z</time>
      </trkpt>
      <trkpt lat="40.6998290" lon="-4.7264650">
        <ele>1165.3</ele>
        <time>2019-08-14T07:50:38Z</time>
      </trkpt>
      <trkpt lat="40.6998540" lon="-4.7264900">
        <ele>1165.4</ele>
        <time>2019-08-14T07:50:39Z</time>
      </trkpt>
      <trkpt lat="40.6998790" lon="-4.7265170">
        <ele>1165.5</ele>
        <time>2019-08-14T07:50:40Z</time>
      </trkpt>
      <trkpt lat="40.6999030" lon="-4.7265450">
        <ele>1165.8</ele>
        <time>2019-08-14T07:50:41Z</time>
      </trkpt>
      <trkpt lat="40.6999270" lon="-4.7265730">
        <ele>1166.0</ele>
        <time>2019-08-14T07:50:42Z</time>
      </trkpt>
      <trkpt lat="40.6999510" lon="-4.7265990">
        <ele>1166.1</ele>
        <time>2019-08-14T07:50:43Z</time>
      </trkpt>
      <trkpt lat="40.6999750" lon="-4.7266230">
        <ele>1166.2</ele>
        <time>2019-08-14T07:50:44Z</time>
      </trkpt>
      <trkpt lat="40.7000000" lon="-4.7266460">
        <ele>1166.4</ele>
        <time>2019-08-14T07:50:45Z</time>
      </trkpt>
      <trkpt lat="40.7000250" lon="-4.7266680">
        <ele>1166.5</ele>
        <time>2019-08-14T07:50:46Z</time>
      </trkpt>
      <trkpt lat="40.7000500" lon="-4.7266890">
        <ele>1166.6</ele>
        <time>2019-08-14T07:50:47Z</time>
      </trkpt>
      <trkpt lat="40.7000740" lon="-4.7267110">
        <ele>1166.8</ele>
        <time>2019-08-14T07:50:48Z</time>
      </trkpt>
      <trkpt lat="40.7000990" lon="-4.7267330">
        <ele>1166.9</ele>
        <time>2019-08-14T07:50:49Z</time>
      </trkpt>
      <trkpt lat="40.7001220" lon="-4.7267560">
        <ele>1167.0</ele>
        <time>2019-08-14T07:50:50Z</time>
      </trkpt>
      <trkpt lat="40.7001440" lon="-4.7267790">
        <ele>1167.1</ele>
        <time>2019-08-14T07:50:51Z</time>
      </trkpt>
      <trkpt lat="40.7001660" lon="-4.7268010">
        <ele>1167.2</ele>
        <time>2019-08-14T07:50:52Z</time>
      </trkpt>
      <trkpt lat="40.7001870" lon="-4.7268240">
        <ele>1167.3</ele>
        <time>2019-08-14T07:50:53Z</time>
      </trkpt>
      <trkpt lat="40.7002080" lon="-4.7268480">
        <ele>1167.4</ele>
        <time>2019-08-14T07:50:54Z</time>
      </trkpt>
      <trkpt lat="40.7002300" lon="-4.7268720">
        <ele>1167.5</ele>
        <time>2019-08-14T07:50:55Z</time>
      </trkpt>
      <trkpt lat="40.7002520" lon="-4.7268970">
        <ele>1167.6</ele>
        <time>2019-08-14T07:50:56Z</time>
      </trkpt>
      <trkpt lat="40.7002720" lon="-4.7269210">
        <ele>1167.6</ele>
        <time>2019-08-14T07:50:57Z</time>
      </trkpt>
      <trkpt lat="40.7003130" lon="-4.7269680">
        <ele>1167.8</ele>
        <time>2019-08-14T07:50:59Z</time>
      </trkpt>
      <trkpt lat="40.7003510" lon="-4.7270170">
        <ele>1168.0</ele>
        <time>2019-08-14T07:51:01Z</time>
      </trkpt>
      <trkpt lat="40.7003700" lon="-4.7270420">
        <ele>1168.1</ele>
        <time>2019-08-14T07:51:02Z</time>
      </trkpt>
      <trkpt lat="40.7003910" lon="-4.7270650">
        <ele>1168.2</ele>
        <time>2019-08-14T07:51:03Z</time>
      </trkpt>
      <trkpt lat="40.7004290" lon="-4.7271140">
        <ele>1168.4</ele>
        <time>2019-08-14T07:51:05Z</time>
      </trkpt>
      <trkpt lat="40.7004660" lon="-4.7271610">
        <ele>1168.6</ele>
        <time>2019-08-14T07:51:07Z</time>
      </trkpt>
      <trkpt lat="40.7005000" lon="-4.7272070">
        <ele>1168.9</ele>
        <time>2019-08-14T07:51:09Z</time>
      </trkpt>
      <trkpt lat="40.7005330" lon="-4.7272520">
        <ele>1169.2</ele>
        <time>2019-08-14T07:51:11Z</time>
      </trkpt>
      <trkpt lat="40.7005640" lon="-4.7272990">
        <ele>1169.4</ele>
        <time>2019-08-14T07:51:13Z</time>
      </trkpt>
      <trkpt lat="40.7005960" lon="-4.7273450">
        <ele>1169.7</ele>
        <time>2019-08-14T07:51:15Z</time>
      </trkpt>
      <trkpt lat="40.7006270" lon="-4.7273860">
        <ele>1169.9</ele>
        <time>2019-08-14T07:51:17Z</time>
      </trkpt>
      <trkpt lat="40.7006600" lon="-4.7274240">
        <ele>1170.2</ele>
        <time>2019-08-14T07:51:19Z</time>
      </trkpt>
      <trkpt lat="40.7006930" lon="-4.7274660">
        <ele>1170.5</ele>
        <time>2019-08-14T07:51:21Z</time>
      </trkpt>
      <trkpt lat="40.7007280" lon="-4.7275070">
        <ele>1170.6</ele>
        <time>2019-08-14T07:51:23Z</time>
      </trkpt>
      <trkpt lat="40.7007690" lon="-4.7275500">
        <ele>1170.8</ele>
        <time>2019-08-14T07:51:25Z</time>
      </trkpt>
      <trkpt lat="40.7008100" lon="-4.7275940">
        <ele>1170.9</ele>
        <time>2019-08-14T07:51:27Z</time>
      </trkpt>
      <trkpt lat="40.7008560" lon="-4.7276340">
        <ele>1171.1</ele>
        <time>2019-08-14T07:51:29Z</time>
      </trkpt>
      <trkpt lat="40.7008790" lon="-4.7276540">
        <ele>1171.4</ele>
        <time>2019-08-14T07:51:30Z</time>
      </trkpt>
      <trkpt lat="40.7009020" lon="-4.7276750">
        <ele>1171.5</ele>
        <time>2019-08-14T07:51:31Z</time>
      </trkpt>
      <trkpt lat="40.7009260" lon="-4.7276950">
        <ele>1171.6</ele>
        <time>2019-08-14T07:51:32Z</time>
      </trkpt>
      <trkpt lat="40.7009500" lon="-4.7277160">
        <ele>1171.7</ele>
        <time>2019-08-14T07:51:33Z</time>
      </trkpt>
      <trkpt lat="40.7009740" lon="-4.7277370">
        <ele>1171.8</ele>
        <time>2019-08-14T07:51:34Z</time>
      </trkpt>
      <trkpt lat="40.7009980" lon="-4.7277590">
        <ele>1171.9</ele>
        <time>2019-08-14T07:51:35Z</time>
      </trkpt>
      <trkpt lat="40.7010220" lon="-4.7277810">
        <ele>1172.1</ele>
        <time>2019-08-14T07:51:36Z</time>
      </trkpt>
      <trkpt lat="40.7010450" lon="-4.7278020">
        <ele>1172.2</ele>
        <time>2019-08-14T07:51:37Z</time>
      </trkpt>
      <trkpt lat="40.7010680" lon="-4.7278230">
        <ele>1172.3</ele>
        <time>2019-08-14T07:51:38Z</time>
      </trkpt>
      <trkpt lat="40.7010900" lon="-4.7278450">
        <ele>1172.4</ele>
        <time>2019-08-14T07:51:39Z</time>
      </trkpt>
      <trkpt lat="40.7011130" lon="-4.7278670">
        <ele>1172.5</ele>
        <time>2019-08-14T07:51:40Z</time>
      </trkpt>
      <trkpt lat="40.7011350" lon="-4.7278900">
        <ele>1172.6</ele>
        <time>2019-08-14T07:51:41Z</time>
      </trkpt>
      <trkpt lat="40.7011560" lon="-4.7279150">
        <ele>1172.7</ele>
        <time>2019-08-14T07:51:42Z</time>
      </trkpt>
      <trkpt lat="40.7011760" lon="-4.7279420">
        <ele>1172.8</ele>
        <time>2019-08-14T07:51:43Z</time>
      </trkpt>
      <trkpt lat="40.7011940" lon="-4.7279700">
        <ele>1172.9</ele>
        <time>2019-08-14T07:51:44Z</time>
      </trkpt>
      <trkpt lat="40.7012310" lon="-4.7280220">
        <ele>1173.1</ele>
        <time>2019-08-14T07:51:46Z</time>
      </trkpt>
      <trkpt lat="40.7012550" lon="-4.7280420">
        <ele>1173.3</ele>
        <time>2019-08-14T07:51:47Z</time>
      </trkpt>
      <trkpt lat="40.7012800" lon="-4.7280600">
        <ele>1173.4</ele>
        <time>2019-08-14T07:51:48Z</time>
      </trkpt>
      <trkpt lat="40.7013310" lon="-4.7280710">
        <ele>1173.5</ele>
        <time>2019-08-14T07:51:50Z</time>
      </trkpt>
      <trkpt lat="40.7013580" lon="-4.7280670">
        <ele>1173.5</ele>
        <time>2019-08-14T07:51:51Z</time>
      </trkpt>
      <trkpt lat="40.7014090" lon="-4.7280590">
        <ele>1173.7</ele>
        <time>2019-08-14T07:51:53Z</time>
      </trkpt>
      <trkpt lat="40.7014600" lon="-4.7280740">
        <ele>1173.7</ele>
        <time>2019-08-14T07:51:55Z</time>
      </trkpt>
      <trkpt lat="40.7014850" lon="-4.7280900">
        <ele>1173.8</ele>
        <time>2019-08-14T07:51:56Z</time>
      </trkpt>
      <trkpt lat="40.7015090" lon="-4.7281110">
        <ele>1173.8</ele>
        <time>2019-08-14T07:51:57Z</time>
      </trkpt>
      <trkpt lat="40.7015330" lon="-4.7281330">
        <ele>1173.8</ele>
        <time>2019-08-14T07:51:58Z</time>
      </trkpt>
      <trkpt lat="40.7015550" lon="-4.7281560">
        <ele>1173.8</ele>
        <time>2019-08-14T07:51:59Z</time>
      </trkpt>
      <trkpt lat="40.7015770" lon="-4.7281820">
        <ele>1173.8</ele>
        <time>2019-08-14T07:52:00Z</time>
      </trkpt>
      <trkpt lat="40.7015970" lon="-4.7282090">
        <ele>1173.7</ele>
        <time>2019-08-14T07:52:01Z</time>
      </trkpt>
      <trkpt lat="40.7016170" lon="-4.7282360">
        <ele>1173.7</ele>
        <time>2019-08-14T07:52:02Z</time>
      </trkpt>
      <trkpt lat="40.7016360" lon="-4.7282630">
        <ele>1173.7</ele>
        <time>2019-08-14T07:52:03Z</time>
      </trkpt>
      <trkpt lat="40.7016540" lon="-4.7282930">
        <ele>1173.7</ele>
        <time>2019-08-14T07:52:04Z</time>
      </trkpt>
      <trkpt lat="40.7016710" lon="-4.7283250">
        <ele>1173.7</ele>
        <time>2019-08-14T07:52:05Z</time>
      </trkpt>
      <trkpt lat="40.7016880" lon="-4.7283590">
        <ele>1173.7</ele>
        <time>2019-08-14T07:52:06Z</time>
      </trkpt>
      <trkpt lat="40.7017030" lon="-4.7283920">
        <ele>1173.8</ele>
        <time>2019-08-14T07:52:07Z</time>
      </trkpt>
      <trkpt lat="40.7017180" lon="-4.7284250">
        <ele>1173.8</ele>
        <time>2019-08-14T07:52:08Z</time>
      </trkpt>
      <trkpt lat="40.7017390" lon="-4.7284690">
        <ele>1173.8</ele>
        <time>2019-08-14T07:52:10Z</time>
      </trkpt>
      <trkpt lat="40.7017610" lon="-4.7285020">
        <ele>1173.8</ele>
        <time>2019-08-14T07:52:19Z</time>
      </trkpt>
      <trkpt lat="40.7017910" lon="-4.7285360">
        <ele>1173.8</ele>
        <time>2019-08-14T07:52:22Z</time>
      </trkpt>
      <trkpt lat="40.7018340" lon="-4.7285770">
        <ele>1173.8</ele>
        <time>2019-08-14T07:52:24Z</time>
      </trkpt>
      <trkpt lat="40.7018580" lon="-4.7286060">
        <ele>1173.8</ele>
        <time>2019-08-14T07:52:25Z</time>
      </trkpt>
      <trkpt lat="40.7018810" lon="-4.7286400">
        <ele>1173.8</ele>
        <time>2019-08-14T07:52:26Z</time>
      </trkpt>
      <trkpt lat="40.7019040" lon="-4.7286740">
        <ele>1173.8</ele>
        <time>2019-08-14T07:52:27Z</time>
      </trkpt>
      <trkpt lat="40.7019270" lon="-4.7287080">
        <ele>1173.7</ele>
        <time>2019-08-14T07:52:28Z</time>
      </trkpt>
      <trkpt lat="40.7019520" lon="-4.7287430">
        <ele>1173.6</ele>
        <time>2019-08-14T07:52:29Z</time>
      </trkpt>
      <trkpt lat="40.7019760" lon="-4.7287810">
        <ele>1173.5</ele>
        <time>2019-08-14T07:52:30Z</time>
      </trkpt>
      <trkpt lat="40.7020000" lon="-4.7288190">
        <ele>1173.3</ele>
        <time>2019-08-14T07:52:31Z</time>
      </trkpt>
      <trkpt lat="40.7020240" lon="-4.7288590">
        <ele>1173.1</ele>
        <time>2019-08-14T07:52:32Z</time>
      </trkpt>
      <trkpt lat="40.7020490" lon="-4.7289010">
        <ele>1172.9</ele>
        <time>2019-08-14T07:52:33Z</time>
      </trkpt>
      <trkpt lat="40.7020750" lon="-4.7289450">
        <ele>1172.8</ele>
        <time>2019-08-14T07:52:34Z</time>
      </trkpt>
      <trkpt lat="40.7021050" lon="-4.7289880">
        <ele>1172.6</ele>
        <time>2019-08-14T07:52:35Z</time>
      </trkpt>
      <trkpt lat="40.7021390" lon="-4.7290290">
        <ele>1172.4</ele>
        <time>2019-08-14T07:52:36Z</time>
      </trkpt>
      <trkpt lat="40.7021740" lon="-4.7290710">
        <ele>1172.2</ele>
        <time>2019-08-14T07:52:37Z</time>
      </trkpt>
      <trkpt lat="40.7022100" lon="-4.7291160">
        <ele>1172.0</ele>
        <time>2019-08-14T07:52:38Z</time>
      </trkpt>
      <trkpt lat="40.7022460" lon="-4.7291610">
        <ele>1171.8</ele>
        <time>2019-08-14T07:52:39Z</time>
      </trkpt>
      <trkpt lat="40.7022820" lon="-4.7292050">
        <ele>1171.6</ele>
        <time>2019-08-14T07:52:40Z</time>
      </trkpt>
      <trkpt lat="40.7023160" lon="-4.7292500">
        <ele>1171.4</ele>
        <time>2019-08-14T07:52:41Z</time>
      </trkpt>
      <trkpt lat="40.7023500" lon="-4.7292950">
        <ele>1171.1</ele>
        <time>2019-08-14T07:52:42Z</time>
      </trkpt>
      <trkpt lat="40.7023820" lon="-4.7293430">
        <ele>1170.7</ele>
        <time>2019-08-14T07:52:43Z</time>
      </trkpt>
      <trkpt lat="40.7024130" lon="-4.7293900">
        <ele>1170.4</ele>
        <time>2019-08-14T07:52:44Z</time>
      </trkpt>
      <trkpt lat="40.7024430" lon="-4.7294370">
        <ele>1170.2</ele>
        <time>2019-08-14T07:52:45Z</time>
      </trkpt>
      <trkpt lat="40.7024710" lon="-4.7294850">
        <ele>1170.1</ele>
        <time>2019-08-14T07:52:46Z</time>
      </trkpt>
      <trkpt lat="40.7024980" lon="-4.7295370">
        <ele>1169.9</ele>
        <time>2019-08-14T07:52:47Z</time>
      </trkpt>
      <trkpt lat="40.7025240" lon="-4.7295910">
        <ele>1169.6</ele>
        <time>2019-08-14T07:52:48Z</time>
      </trkpt>
      <trkpt lat="40.7025500" lon="-4.7296430">
        <ele>1169.4</ele>
        <time>2019-08-14T07:52:49Z</time>
      </trkpt>
      <trkpt lat="40.7025750" lon="-4.7296900">
        <ele>1169.3</ele>
        <time>2019-08-14T07:52:50Z</time>
      </trkpt>
      <trkpt lat="40.7025950" lon="-4.7297260">
        <ele>1169.2</ele>
        <time>2019-08-14T07:52:51Z</time>
      </trkpt>
      <trkpt lat="40.7026210" lon="-4.7297620">
        <ele>1169.0</ele>
        <time>2019-08-14T07:52:53Z</time>
      </trkpt>
      <trkpt lat="40.7026320" lon="-4.7297770">
        <ele>1168.9</ele>
        <time>2019-08-14T07:53:01Z</time>
      </trkpt>
      <trkpt lat="40.7026550" lon="-4.7297570">
        <ele>1168.8</ele>
        <time>2019-08-14T07:53:12Z</time>
      </trkpt>
      <trkpt lat="40.7027330" lon="-4.7297560">
        <ele>1168.3</ele>
        <time>2019-08-14T07:54:14Z</time>
      </trkpt>
      <trkpt lat="40.7027690" lon="-4.7297730">
        <ele>1168.0</ele>
        <time>2019-08-14T07:54:16Z</time>
      </trkpt>
      <trkpt lat="40.7028170" lon="-4.7298110">
        <ele>1167.7</ele>
        <time>2019-08-14T07:54:18Z</time>
      </trkpt>
      <trkpt lat="40.7028450" lon="-4.7298290">
        <ele>1167.5</ele>
        <time>2019-08-14T07:54:19Z</time>
      </trkpt>
      <trkpt lat="40.7028760" lon="-4.7298470">
        <ele>1167.3</ele>
        <time>2019-08-14T07:54:20Z</time>
      </trkpt>
      <trkpt lat="40.7029080" lon="-4.7298650">
        <ele>1167.1</ele>
        <time>2019-08-14T07:54:21Z</time>
      </trkpt>
      <trkpt lat="40.7029390" lon="-4.7298830">
        <ele>1166.9</ele>
        <time>2019-08-14T07:54:22Z</time>
      </trkpt>
      <trkpt lat="40.7029700" lon="-4.7299000">
        <ele>1166.7</ele>
        <time>2019-08-14T07:54:23Z</time>
      </trkpt>
      <trkpt lat="40.7030030" lon="-4.7299120">
        <ele>1166.5</ele>
        <time>2019-08-14T07:54:24Z</time>
      </trkpt>
      <trkpt lat="40.7030360" lon="-4.7299210">
        <ele>1166.2</ele>
        <time>2019-08-14T07:54:25Z</time>
      </trkpt>
      <trkpt lat="40.7030710" lon="-4.7299280">
        <ele>1166.0</ele>
        <time>2019-08-14T07:54:26Z</time>
      </trkpt>
      <trkpt lat="40.7031070" lon="-4.7299370">
        <ele>1165.8</ele>
        <time>2019-08-14T07:54:27Z</time>
      </trkpt>
      <trkpt lat="40.7031430" lon="-4.7299480">
        <ele>1165.5</ele>
        <time>2019-08-14T07:54:28Z</time>
      </trkpt>
      <trkpt lat="40.7031770" lon="-4.7299630">
        <ele>1165.4</ele>
        <time>2019-08-14T07:54:29Z</time>
      </trkpt>
      <trkpt lat="40.7032090" lon="-4.7299800">
        <ele>1165.2</ele>
        <time>2019-08-14T07:54:30Z</time>
      </trkpt>
      <trkpt lat="40.7032360" lon="-4.7299970">
        <ele>1164.9</ele>
        <time>2019-08-14T07:54:31Z</time>
      </trkpt>
      <trkpt lat="40.7032810" lon="-4.7300330">
        <ele>1164.5</ele>
        <time>2019-08-14T07:54:33Z</time>
      </trkpt>
      <trkpt lat="40.7033210" lon="-4.7300760">
        <ele>1164.1</ele>
        <time>2019-08-14T07:54:35Z</time>
      </trkpt>
      <trkpt lat="40.7033440" lon="-4.7301010">
        <ele>1163.9</ele>
        <time>2019-08-14T07:54:36Z</time>
      </trkpt>
      <trkpt lat="40.7033710" lon="-4.7301250">
        <ele>1163.8</ele>
        <time>2019-08-14T07:54:37Z</time>
      </trkpt>
      <trkpt lat="40.7034000" lon="-4.7301520">
        <ele>1163.6</ele>
        <time>2019-08-14T07:54:38Z</time>
      </trkpt>
      <trkpt lat="40.7034290" lon="-4.7301840">
        <ele>1163.4</ele>
        <time>2019-08-14T07:54:39Z</time>
      </trkpt>
      <trkpt lat="40.7034570" lon="-4.7302200">
        <ele>1163.2</ele>
        <time>2019-08-14T07:54:40Z</time>
      </trkpt>
      <trkpt lat="40.7034840" lon="-4.7302470">
        <ele>1162.9</ele>
        <time>2019-08-14T07:54:41Z</time>
      </trkpt>
      <trkpt lat="40.7035110" lon="-4.7302640">
        <ele>1162.6</ele>
        <time>2019-08-14T07:54:42Z</time>
      </trkpt>
      <trkpt lat="40.7035430" lon="-4.7302670">
        <ele>1162.4</ele>
        <time>2019-08-14T07:54:43Z</time>
      </trkpt>
      <trkpt lat="40.7035810" lon="-4.7302560">
        <ele>1162.1</ele>
        <time>2019-08-14T07:54:44Z</time>
      </trkpt>
      <trkpt lat="40.7036280" lon="-4.7302410">
        <ele>1161.8</ele>
        <time>2019-08-14T07:54:45Z</time>
      </trkpt>
      <trkpt lat="40.7036800" lon="-4.7302330">
        <ele>1161.5</ele>
        <time>2019-08-14T07:54:46Z</time>
      </trkpt>
      <trkpt lat="40.7037350" lon="-4.7302400">
        <ele>1161.1</ele>
        <time>2019-08-14T07:54:47Z</time>
      </trkpt>
      <trkpt lat="40.7037890" lon="-4.7302600">
        <ele>1160.8</ele>
        <time>2019-08-14T07:54:48Z</time>
      </trkpt>
      <trkpt lat="40.7038410" lon="-4.7302840">
        <ele>1160.5</ele>
        <time>2019-08-14T07:54:49Z</time>
      </trkpt>
      <trkpt lat="40.7038930" lon="-4.7303010">
        <ele>1160.1</ele>
        <time>2019-08-14T07:54:50Z</time>
      </trkpt>
      <trkpt lat="40.7039420" lon="-4.7303160">
        <ele>1159.8</ele>
        <time>2019-08-14T07:54:51Z</time>
      </trkpt>
      <trkpt lat="40.7039870" lon="-4.7303360">
        <ele>1159.5</ele>
        <time>2019-08-14T07:54:52Z</time>
      </trkpt>
      <trkpt lat="40.7040300" lon="-4.7303700">
        <ele>1159.3</ele>
        <time>2019-08-14T07:54:53Z</time>
      </trkpt>
      <trkpt lat="40.7040670" lon="-4.7304180">
        <ele>1159.0</ele>
        <time>2019-08-14T07:54:54Z</time>
      </trkpt>
      <trkpt lat="40.7040990" lon="-4.7304780">
        <ele>1158.8</ele>
        <time>2019-08-14T07:54:55Z</time>
      </trkpt>
      <trkpt lat="40.7041270" lon="-4.7305480">
        <ele>1158.7</ele>
        <time>2019-08-14T07:54:56Z</time>
      </trkpt>
      <trkpt lat="40.7041550" lon="-4.7306190">
        <ele>1158.5</ele>
        <time>2019-08-14T07:54:57Z</time>
      </trkpt>
      <trkpt lat="40.7041890" lon="-4.7306880">
        <ele>1158.4</ele>
        <time>2019-08-14T07:54:58Z</time>
      </trkpt>
      <trkpt lat="40.7042310" lon="-4.7307520">
        <ele>1158.0</ele>
        <time>2019-08-14T07:54:59Z</time>
      </trkpt>
      <trkpt lat="40.7042780" lon="-4.7308130">
        <ele>1157.8</ele>
        <time>2019-08-14T07:55:00Z</time>
      </trkpt>
      <trkpt lat="40.7043220" lon="-4.7308790">
        <ele>1157.6</ele>
        <time>2019-08-14T07:55:01Z</time>
      </trkpt>
      <trkpt lat="40.7043650" lon="-4.7309460">
        <ele>1157.4</ele>
        <time>2019-08-14T07:55:02Z</time>
      </trkpt>
      <trkpt lat="40.7044130" lon="-4.7310100">
        <ele>1157.2</ele>
        <time>2019-08-14T07:55:03Z</time>
      </trkpt>
      <trkpt lat="40.7044650" lon="-4.7310670">
        <ele>1156.9</ele>
        <time>2019-08-14T07:55:04Z</time>
      </trkpt>
      <trkpt lat="40.7045220" lon="-4.7311120">
        <ele>1156.7</ele>
        <time>2019-08-14T07:55:05Z</time>
      </trkpt>
      <trkpt lat="40.7045810" lon="-4.7311460">
        <ele>1156.5</ele>
        <time>2019-08-14T07:55:06Z</time>
      </trkpt>
      <trkpt lat="40.7046420" lon="-4.7311740">
        <ele>1156.2</ele>
        <time>2019-08-14T07:55:07Z</time>
      </trkpt>
      <trkpt lat="40.7046970" lon="-4.7312090">
        <ele>1155.9</ele>
        <time>2019-08-14T07:55:08Z</time>
      </trkpt>
      <trkpt lat="40.7047510" lon="-4.7312580">
        <ele>1155.8</ele>
        <time>2019-08-14T07:55:09Z</time>
      </trkpt>
      <trkpt lat="40.7048040" lon="-4.7313150">
        <ele>1155.5</ele>
        <time>2019-08-14T07:55:10Z</time>
      </trkpt>
      <trkpt lat="40.7048570" lon="-4.7313740">
        <ele>1155.2</ele>
        <time>2019-08-14T07:55:11Z</time>
      </trkpt>
      <trkpt lat="40.7049120" lon="-4.7314310">
        <ele>1155.0</ele>
        <time>2019-08-14T07:55:12Z</time>
      </trkpt>
      <trkpt lat="40.7049700" lon="-4.7314810">
        <ele>1154.8</ele>
        <time>2019-08-14T07:55:13Z</time>
      </trkpt>
      <trkpt lat="40.7050280" lon="-4.7315260">
        <ele>1154.5</ele>
        <time>2019-08-14T07:55:14Z</time>
      </trkpt>
      <trkpt lat="40.7050820" lon="-4.7315720">
        <ele>1154.3</ele>
        <time>2019-08-14T07:55:15Z</time>
      </trkpt>
      <trkpt lat="40.7051360" lon="-4.7316170">
        <ele>1154.1</ele>
        <time>2019-08-14T07:55:16Z</time>
      </trkpt>
      <trkpt lat="40.7051950" lon="-4.7316520">
        <ele>1154.0</ele>
        <time>2019-08-14T07:55:17Z</time>
      </trkpt>
      <trkpt lat="40.7052600" lon="-4.7316830">
        <ele>1153.7</ele>
        <time>2019-08-14T07:55:18Z</time>
      </trkpt>
      <trkpt lat="40.7053250" lon="-4.7317170">
        <ele>1153.5</ele>
        <time>2019-08-14T07:55:19Z</time>
      </trkpt>
      <trkpt lat="40.7053890" lon="-4.7317520">
        <ele>1153.2</ele>
        <time>2019-08-14T07:55:20Z</time>
      </trkpt>
      <trkpt lat="40.7054550" lon="-4.7317850">
        <ele>1152.9</ele>
        <time>2019-08-14T07:55:21Z</time>
      </trkpt>
      <trkpt lat="40.7055160" lon="-4.7318240">
        <ele>1152.5</ele>
        <time>2019-08-14T07:55:22Z</time>
      </trkpt>
      <trkpt lat="40.7055730" lon="-4.7318660">
        <ele>1152.2</ele>
        <time>2019-08-14T07:55:23Z</time>
      </trkpt>
      <trkpt lat="40.7056240" lon="-4.7319030">
        <ele>1151.8</ele>
        <time>2019-08-14T07:55:24Z</time>
      </trkpt>
      <trkpt lat="40.7056720" lon="-4.7319330">
        <ele>1151.5</ele>
        <time>2019-08-14T07:55:25Z</time>
      </trkpt>
      <trkpt lat="40.7057180" lon="-4.7319530">
        <ele>1151.1</ele>
        <time>2019-08-14T07:55:26Z</time>
      </trkpt>
      <trkpt lat="40.7057610" lon="-4.7319690">
        <ele>1150.8</ele>
        <time>2019-08-14T07:55:27Z</time>
      </trkpt>
      <trkpt lat="40.7058020" lon="-4.7319820">
        <ele>1150.5</ele>
        <time>2019-08-14T07:55:28Z</time>
      </trkpt>
      <trkpt lat="40.7058430" lon="-4.7319930">
        <ele>1150.4</ele>
        <time>2019-08-14T07:55:29Z</time>
      </trkpt>
      <trkpt lat="40.7058860" lon="-4.7320030">
        <ele>1150.1</ele>
        <time>2019-08-14T07:55:30Z</time>
      </trkpt>
      <trkpt lat="40.7059280" lon="-4.7320120">
        <ele>1149.8</ele>
        <time>2019-08-14T07:55:31Z</time>
      </trkpt>
      <trkpt lat="40.7059720" lon="-4.7320250">
        <ele>1149.5</ele>
        <time>2019-08-14T07:55:32Z</time>
      </trkpt>
      <trkpt lat="40.7060170" lon="-4.7320400">
        <ele>1149.2</ele>
        <time>2019-08-14T07:55:33Z</time>
      </trkpt>
      <trkpt lat="40.7060630" lon="-4.7320560">
        <ele>1149.1</ele>
        <time>2019-08-14T07:55:34Z</time>
      </trkpt>
      <trkpt lat="40.7061090" lon="-4.7320700">
        <ele>1148.8</ele>
        <time>2019-08-14T07:55:35Z</time>
      </trkpt>
      <trkpt lat="40.7061520" lon="-4.7320850">
        <ele>1148.5</ele>
        <time>2019-08-14T07:55:36Z</time>
      </trkpt>
      <trkpt lat="40.7061950" lon="-4.7321020">
        <ele>1148.2</ele>
        <time>2019-08-14T07:55:37Z</time>
      </trkpt>
      <trkpt lat="40.7062390" lon="-4.7321170">
        <ele>1147.9</ele>
        <time>2019-08-14T07:55:38Z</time>
      </trkpt>
      <trkpt lat="40.7062850" lon="-4.7321260">
        <ele>1147.7</ele>
        <time>2019-08-14T07:55:39Z</time>
      </trkpt>
      <trkpt lat="40.7063280" lon="-4.7321310">
        <ele>1147.5</ele>
        <time>2019-08-14T07:55:40Z</time>
      </trkpt>
      <trkpt lat="40.7063710" lon="-4.7321360">
        <ele>1147.4</ele>
        <time>2019-08-14T07:55:41Z</time>
      </trkpt>
      <trkpt lat="40.7064140" lon="-4.7321470">
        <ele>1147.2</ele>
        <time>2019-08-14T07:55:42Z</time>
      </trkpt>
      <trkpt lat="40.7064570" lon="-4.7321630">
        <ele>1147.1</ele>
        <time>2019-08-14T07:55:43Z</time>
      </trkpt>
      <trkpt lat="40.7065000" lon="-4.7321850">
        <ele>1147.0</ele>
        <time>2019-08-14T07:55:44Z</time>
      </trkpt>
      <trkpt lat="40.7065430" lon="-4.7322030">
        <ele>1146.7</ele>
        <time>2019-08-14T07:55:45Z</time>
      </trkpt>
      <trkpt lat="40.7065850" lon="-4.7322200">
        <ele>1146.6</ele>
        <time>2019-08-14T07:55:46Z</time>
      </trkpt>
      <trkpt lat="40.7066270" lon="-4.7322340">
        <ele>1146.4</ele>
        <time>2019-08-14T07:55:47Z</time>
      </trkpt>
      <trkpt lat="40.7066700" lon="-4.7322440">
        <ele>1146.2</ele>
        <time>2019-08-14T07:55:48Z</time>
      </trkpt>
      <trkpt lat="40.7067130" lon="-4.7322530">
        <ele>1146.1</ele>
        <time>2019-08-14T07:55:49Z</time>
      </trkpt>
      <trkpt lat="40.7067540" lon="-4.7322620">
        <ele>1146.0</ele>
        <time>2019-08-14T07:55:50Z</time>
      </trkpt>
      <trkpt lat="40.7067950" lon="-4.7322720">
        <ele>1146.0</ele>
        <time>2019-08-14T07:55:51Z</time>
      </trkpt>
      <trkpt lat="40.7068350" lon="-4.7322840">
        <ele>1145.8</ele>
        <time>2019-08-14T07:55:52Z</time>
      </trkpt>
      <trkpt lat="40.7068730" lon="-4.7322940">
        <ele>1145.7</ele>
        <time>2019-08-14T07:55:53Z</time>
      </trkpt>
      <trkpt lat="40.7069070" lon="-4.7323010">
        <ele>1145.7</ele>
        <time>2019-08-14T07:55:54Z</time>
      </trkpt>
      <trkpt lat="40.7069350" lon="-4.7323050">
        <ele>1145.6</ele>
        <time>2019-08-14T07:55:55Z</time>
      </trkpt>
      <trkpt lat="40.7069730" lon="-4.7323070">
        <ele>1145.6</ele>
        <time>2019-08-14T07:55:57Z</time>
      </trkpt>
      <trkpt lat="40.7070060" lon="-4.7323050">
        <ele>1145.5</ele>
        <time>2019-08-14T07:55:59Z</time>
      </trkpt>
      <trkpt lat="40.7070580" lon="-4.7322930">
        <ele>1145.5</ele>
        <time>2019-08-14T07:56:01Z</time>
      </trkpt>
      <trkpt lat="40.7070910" lon="-4.7322850">
        <ele>1145.4</ele>
        <time>2019-08-14T07:56:02Z</time>
      </trkpt>
      <trkpt lat="40.7071280" lon="-4.7322800">
        <ele>1145.3</ele>
        <time>2019-08-14T07:56:03Z</time>
      </trkpt>
      <trkpt lat="40.7071680" lon="-4.7322770">
        <ele>1145.2</ele>
        <time>2019-08-14T07:56:04Z</time>
      </trkpt>
      <trkpt lat="40.7072100" lon="-4.7322740">
        <ele>1145.2</ele>
        <time>2019-08-14T07:56:05Z</time>
      </trkpt>
      <trkpt lat="40.7072540" lon="-4.7322720">
        <ele>1145.1</ele>
        <time>2019-08-14T07:56:06Z</time>
      </trkpt>
      <trkpt lat="40.7072990" lon="-4.7322720">
        <ele>1145.0</ele>
        <time>2019-08-14T07:56:07Z</time>
      </trkpt>
      <trkpt lat="40.7073470" lon="-4.7322760">
        <ele>1144.9</ele>
        <time>2019-08-14T07:56:08Z</time>
      </trkpt>
      <trkpt lat="40.7073990" lon="-4.7322820">
        <ele>1144.7</ele>
        <time>2019-08-14T07:56:09Z</time>
      </trkpt>
      <trkpt lat="40.7074560" lon="-4.7322910">
        <ele>1144.5</ele>
        <time>2019-08-14T07:56:10Z</time>
      </trkpt>
      <trkpt lat="40.7075170" lon="-4.7322980">
        <ele>1144.3</ele>
        <time>2019-08-14T07:56:11Z</time>
      </trkpt>
      <trkpt lat="40.7075810" lon="-4.7323090">
        <ele>1144.1</ele>
        <time>2019-08-14T07:56:12Z</time>
      </trkpt>
      <trkpt lat="40.7076460" lon="-4.7323250">
        <ele>1143.8</ele>
        <time>2019-08-14T07:56:13Z</time>
      </trkpt>
      <trkpt lat="40.7077110" lon="-4.7323420">
        <ele>1143.5</ele>
        <time>2019-08-14T07:56:14Z</time>
      </trkpt>
      <trkpt lat="40.7077780" lon="-4.7323590">
        <ele>1143.2</ele>
        <time>2019-08-14T07:56:15Z</time>
      </trkpt>
      <trkpt lat="40.7078440" lon="-4.7323760">
        <ele>1142.9</ele>
        <time>2019-08-14T07:56:16Z</time>
      </trkpt>
      <trkpt lat="40.7079100" lon="-4.7323960">
        <ele>1142.6</ele>
        <time>2019-08-14T07:56:17Z</time>
      </trkpt>
      <trkpt lat="40.7079730" lon="-4.7324140">
        <ele>1142.2</ele>
        <time>2019-08-14T07:56:18Z</time>
      </trkpt>
      <trkpt lat="40.7080340" lon="-4.7324280">
        <ele>1142.1</ele>
        <time>2019-08-14T07:56:19Z</time>
      </trkpt>
      <trkpt lat="40.7080960" lon="-4.7324420">
        <ele>1141.8</ele>
        <time>2019-08-14T07:56:20Z</time>
      </trkpt>
      <trkpt lat="40.7081560" lon="-4.7324560">
        <ele>1141.4</ele>
        <time>2019-08-14T07:56:21Z</time>
      </trkpt>
      <trkpt lat="40.7082130" lon="-4.7324690">
        <ele>1141.2</ele>
        <time>2019-08-14T07:56:22Z</time>
      </trkpt>
      <trkpt lat="40.7082700" lon="-4.7324830">
        <ele>1140.9</ele>
        <time>2019-08-14T07:56:23Z</time>
      </trkpt>
      <trkpt lat="40.7083250" lon="-4.7324950">
        <ele>1140.6</ele>
        <time>2019-08-14T07:56:24Z</time>
      </trkpt>
      <trkpt lat="40.7083810" lon="-4.7325070">
        <ele>1140.3</ele>
        <time>2019-08-14T07:56:25Z</time>
      </trkpt>
      <trkpt lat="40.7084370" lon="-4.7325190">
        <ele>1140.0</ele>
        <time>2019-08-14T07:56:26Z</time>
      </trkpt>
      <trkpt lat="40.7084920" lon="-4.7325290">
        <ele>1139.6</ele>
        <time>2019-08-14T07:56:27Z</time>
      </trkpt>
      <trkpt lat="40.7085460" lon="-4.7325390">
        <ele>1139.5</ele>
        <time>2019-08-14T07:56:28Z</time>
      </trkpt>
      <trkpt lat="40.7086010" lon="-4.7325510">
        <ele>1139.1</ele>
        <time>2019-08-14T07:56:29Z</time>
      </trkpt>
      <trkpt lat="40.7086540" lon="-4.7325620">
        <ele>1138.8</ele>
        <time>2019-08-14T07:56:30Z</time>
      </trkpt>
      <trkpt lat="40.7087070" lon="-4.7325750">
        <ele>1138.6</ele>
        <time>2019-08-14T07:56:31Z</time>
      </trkpt>
      <trkpt lat="40.7087620" lon="-4.7325870">
        <ele>1138.3</ele>
        <time>2019-08-14T07:56:32Z</time>
      </trkpt>
      <trkpt lat="40.7088160" lon="-4.7325970">
        <ele>1138.2</ele>
        <time>2019-08-14T07:56:33Z</time>
      </trkpt>
      <trkpt lat="40.7088710" lon="-4.7326070">
        <ele>1138.0</ele>
        <time>2019-08-14T07:56:34Z</time>
      </trkpt>
      <trkpt lat="40.7089290" lon="-4.7326190">
        <ele>1137.8</ele>
        <time>2019-08-14T07:56:35Z</time>
      </trkpt>
      <trkpt lat="40.7089880" lon="-4.7326300">
        <ele>1137.7</ele>
        <time>2019-08-14T07:56:36Z</time>
      </trkpt>
      <trkpt lat="40.7090450" lon="-4.7326440">
        <ele>1137.6</ele>
        <time>2019-08-14T07:56:37Z</time>
      </trkpt>
      <trkpt lat="40.7091020" lon="-4.7326560">
        <ele>1137.5</ele>
        <time>2019-08-14T07:56:38Z</time>
      </trkpt>
      <trkpt lat="40.7091610" lon="-4.7326680">
        <ele>1137.4</ele>
        <time>2019-08-14T07:56:39Z</time>
      </trkpt>
      <trkpt lat="40.7092190" lon="-4.7326780">
        <ele>1137.4</ele>
        <time>2019-08-14T07:56:40Z</time>
      </trkpt>
      <trkpt lat="40.7092770" lon="-4.7326850">
        <ele>1137.3</ele>
        <time>2019-08-14T07:56:41Z</time>
      </trkpt>
      <trkpt lat="40.7093360" lon="-4.7326910">
        <ele>1137.3</ele>
        <time>2019-08-14T07:56:42Z</time>
      </trkpt>
      <trkpt lat="40.7093930" lon="-4.7326980">
        <ele>1137.3</ele>
        <time>2019-08-14T07:56:43Z</time>
      </trkpt>
      <trkpt lat="40.7094500" lon="-4.7327070">
        <ele>1137.1</ele>
        <time>2019-08-14T07:56:44Z</time>
      </trkpt>
      <trkpt lat="40.7095070" lon="-4.7327180">
        <ele>1137.0</ele>
        <time>2019-08-14T07:56:45Z</time>
      </trkpt>
      <trkpt lat="40.7095640" lon="-4.7327280">
        <ele>1137.0</ele>
        <time>2019-08-14T07:56:46Z</time>
      </trkpt>
      <trkpt lat="40.7096210" lon="-4.7327360">
        <ele>1137.0</ele>
        <time>2019-08-14T07:56:47Z</time>
      </trkpt>
      <trkpt lat="40.7096770" lon="-4.7327430">
        <ele>1136.9</ele>
        <time>2019-08-14T07:56:48Z</time>
      </trkpt>
      <trkpt lat="40.7097310" lon="-4.7327510">
        <ele>1136.7</ele>
        <time>2019-08-14T07:56:49Z</time>
      </trkpt>
      <trkpt lat="40.7097860" lon="-4.7327600">
        <ele>1136.7</ele>
        <time>2019-08-14T07:56:50Z</time>
      </trkpt>
      <trkpt lat="40.7098380" lon="-4.7327700">
        <ele>1136.7</ele>
        <time>2019-08-14T07:56:51Z</time>
      </trkpt>
      <trkpt lat="40.7098910" lon="-4.7327810">
        <ele>1136.7</ele>
        <time>2019-08-14T07:56:52Z</time>
      </trkpt>
      <trkpt lat="40.7099420" lon="-4.7327970">
        <ele>1136.5</ele>
        <time>2019-08-14T07:56:53Z</time>
      </trkpt>
      <trkpt lat="40.7099910" lon="-4.7328150">
        <ele>1136.5</ele>
        <time>2019-08-14T07:56:54Z</time>
      </trkpt>
      <trkpt lat="40.7100410" lon="-4.7328350">
        <ele>1136.3</ele>
        <time>2019-08-14T07:56:55Z</time>
      </trkpt>
      <trkpt lat="40.7100870" lon="-4.7328570">
        <ele>1136.3</ele>
        <time>2019-08-14T07:56:56Z</time>
      </trkpt>
      <trkpt lat="40.7101330" lon="-4.7328810">
        <ele>1136.1</ele>
        <time>2019-08-14T07:56:57Z</time>
      </trkpt>
      <trkpt lat="40.7101790" lon="-4.7329070">
        <ele>1136.1</ele>
        <time>2019-08-14T07:56:58Z</time>
      </trkpt>
      <trkpt lat="40.7102230" lon="-4.7329370">
        <ele>1135.9</ele>
        <time>2019-08-14T07:56:59Z</time>
      </trkpt>
      <trkpt lat="40.7102650" lon="-4.7329690">
        <ele>1135.7</ele>
        <time>2019-08-14T07:57:00Z</time>
      </trkpt>
      <trkpt lat="40.7103050" lon="-4.7330020">
        <ele>1135.7</ele>
        <time>2019-08-14T07:57:01Z</time>
      </trkpt>
      <trkpt lat="40.7103450" lon="-4.7330330">
        <ele>1135.5</ele>
        <time>2019-08-14T07:57:02Z</time>
      </trkpt>
      <trkpt lat="40.7103850" lon="-4.7330560">
        <ele>1135.3</ele>
        <time>2019-08-14T07:57:03Z</time>
      </trkpt>
      <trkpt lat="40.7104230" lon="-4.7330760">
        <ele>1135.3</ele>
        <time>2019-08-14T07:57:04Z</time>
      </trkpt>
      <trkpt lat="40.7104600" lon="-4.7330940">
        <ele>1135.2</ele>
        <time>2019-08-14T07:57:05Z</time>
      </trkpt>
      <trkpt lat="40.7104960" lon="-4.7331110">
        <ele>1135.2</ele>
        <time>2019-08-14T07:57:06Z</time>
      </trkpt>
      <trkpt lat="40.7105330" lon="-4.7331260">
        <ele>1135.2</ele>
        <time>2019-08-14T07:57:07Z</time>
      </trkpt>
      <trkpt lat="40.7105670" lon="-4.7331400">
        <ele>1135.1</ele>
        <time>2019-08-14T07:57:08Z</time>
      </trkpt>
      <trkpt lat="40.7105990" lon="-4.7331560">
        <ele>1135.1</ele>
        <time>2019-08-14T07:57:09Z</time>
      </trkpt>
      <trkpt lat="40.7106290" lon="-4.7331700">
        <ele>1135.2</ele>
        <time>2019-08-14T07:57:10Z</time>
      </trkpt>
      <trkpt lat="40.7106570" lon="-4.7331780">
        <ele>1135.0</ele>
        <time>2019-08-14T07:57:11Z</time>
      </trkpt>
      <trkpt lat="40.7106840" lon="-4.7331910">
        <ele>1135.0</ele>
        <time>2019-08-14T07:57:12Z</time>
      </trkpt>
      <trkpt lat="40.7107140" lon="-4.7332110">
        <ele>1135.0</ele>
        <time>2019-08-14T07:57:13Z</time>
      </trkpt>
      <trkpt lat="40.7107450" lon="-4.7332340">
        <ele>1134.9</ele>
        <time>2019-08-14T07:57:14Z</time>
      </trkpt>
      <trkpt lat="40.7107790" lon="-4.7332550">
        <ele>1134.8</ele>
        <time>2019-08-14T07:57:15Z</time>
      </trkpt>
      <trkpt lat="40.7108150" lon="-4.7332770">
        <ele>1134.6</ele>
        <time>2019-08-14T07:57:16Z</time>
      </trkpt>
      <trkpt lat="40.7108500" lon="-4.7332970">
        <ele>1134.5</ele>
        <time>2019-08-14T07:57:17Z</time>
      </trkpt>
      <trkpt lat="40.7108830" lon="-4.7333140">
        <ele>1134.3</ele>
        <time>2019-08-14T07:57:18Z</time>
      </trkpt>
      <trkpt lat="40.7109160" lon="-4.7333300">
        <ele>1134.2</ele>
        <time>2019-08-14T07:57:19Z</time>
      </trkpt>
      <trkpt lat="40.7109480" lon="-4.7333470">
        <ele>1134.2</ele>
        <time>2019-08-14T07:57:20Z</time>
      </trkpt>
      <trkpt lat="40.7109800" lon="-4.7333620">
        <ele>1133.9</ele>
        <time>2019-08-14T07:57:21Z</time>
      </trkpt>
      <trkpt lat="40.7110140" lon="-4.7333760">
        <ele>1133.8</ele>
        <time>2019-08-14T07:57:22Z</time>
      </trkpt>
      <trkpt lat="40.7110470" lon="-4.7333880">
        <ele>1133.8</ele>
        <time>2019-08-14T07:57:23Z</time>
      </trkpt>
      <trkpt lat="40.7110790" lon="-4.7334040">
        <ele>1133.4</ele>
        <time>2019-08-14T07:57:24Z</time>
      </trkpt>
      <trkpt lat="40.7111110" lon="-4.7334260">
        <ele>1133.4</ele>
        <time>2019-08-14T07:57:25Z</time>
      </trkpt>
      <trkpt lat="40.7111440" lon="-4.7334460">
        <ele>1133.0</ele>
        <time>2019-08-14T07:57:26Z</time>
      </trkpt>
      <trkpt lat="40.7111810" lon="-4.7334640">
        <ele>1132.9</ele>
        <time>2019-08-14T07:57:27Z</time>
      </trkpt>
      <trkpt lat="40.7112190" lon="-4.7334800">
        <ele>1132.5</ele>
        <time>2019-08-14T07:57:28Z</time>
      </trkpt>
      <trkpt lat="40.7112590" lon="-4.7334900">
        <ele>1132.3</ele>
        <time>2019-08-14T07:57:29Z</time>
      </trkpt>
      <trkpt lat="40.7113020" lon="-4.7334970">
        <ele>1132.2</ele>
        <time>2019-08-14T07:57:30Z</time>
      </trkpt>
      <trkpt lat="40.7113490" lon="-4.7335050">
        <ele>1132.1</ele>
        <time>2019-08-14T07:57:31Z</time>
      </trkpt>
      <trkpt lat="40.7113980" lon="-4.7335140">
        <ele>1131.6</ele>
        <time>2019-08-14T07:57:32Z</time>
      </trkpt>
      <trkpt lat="40.7114460" lon="-4.7335210">
        <ele>1131.2</ele>
        <time>2019-08-14T07:57:33Z</time>
      </trkpt>
      <trkpt lat="40.7114940" lon="-4.7335240">
        <ele>1130.9</ele>
        <time>2019-08-14T07:57:34Z</time>
      </trkpt>
      <trkpt lat="40.7115390" lon="-4.7335170">
        <ele>1130.6</ele>
        <time>2019-08-14T07:57:35Z</time>
      </trkpt>
      <trkpt lat="40.7115810" lon="-4.7335030">
        <ele>1130.2</ele>
        <time>2019-08-14T07:57:36Z</time>
      </trkpt>
      <trkpt lat="40.7116200" lon="-4.7334850">
        <ele>1129.8</ele>
        <time>2019-08-14T07:57:37Z</time>
      </trkpt>
      <trkpt lat="40.7116520" lon="-4.7334720">
        <ele>1129.5</ele>
        <time>2019-08-14T07:57:38Z</time>
      </trkpt>
      <trkpt lat="40.7116920" lon="-4.7334610">
        <ele>1129.0</ele>
        <time>2019-08-14T07:57:40Z</time>
      </trkpt>
      <trkpt lat="40.7117130" lon="-4.7334580">
        <ele>1128.9</ele>
        <time>2019-08-14T07:57:48Z</time>
      </trkpt>
      <trkpt lat="40.7117630" lon="-4.7335020">
        <ele>1128.5</ele>
        <time>2019-08-14T07:59:03Z</time>
      </trkpt>
      <trkpt lat="40.7117790" lon="-4.7335300">
        <ele>1128.4</ele>
        <time>2019-08-14T07:59:04Z</time>
      </trkpt>
      <trkpt lat="40.7117970" lon="-4.7335580">
        <ele>1128.3</ele>
        <time>2019-08-14T07:59:05Z</time>
      </trkpt>
      <trkpt lat="40.7118220" lon="-4.7335780">
        <ele>1128.1</ele>
        <time>2019-08-14T07:59:06Z</time>
      </trkpt>
      <trkpt lat="40.7118520" lon="-4.7335910">
        <ele>1127.9</ele>
        <time>2019-08-14T07:59:07Z</time>
      </trkpt>
      <trkpt lat="40.7118860" lon="-4.7335940">
        <ele>1127.8</ele>
        <time>2019-08-14T07:59:08Z</time>
      </trkpt>
      <trkpt lat="40.7119210" lon="-4.7335950">
        <ele>1127.6</ele>
        <time>2019-08-14T07:59:09Z</time>
      </trkpt>
      <trkpt lat="40.7119570" lon="-4.7335970">
        <ele>1127.5</ele>
        <time>2019-08-14T07:59:10Z</time>
      </trkpt>
      <trkpt lat="40.7119930" lon="-4.7336000">
        <ele>1127.4</ele>
        <time>2019-08-14T07:59:11Z</time>
      </trkpt>
      <trkpt lat="40.7120300" lon="-4.7336030">
        <ele>1127.3</ele>
        <time>2019-08-14T07:59:12Z</time>
      </trkpt>
      <trkpt lat="40.7120650" lon="-4.7336090">
        <ele>1127.2</ele>
        <time>2019-08-14T07:59:13Z</time>
      </trkpt>
      <trkpt lat="40.7120970" lon="-4.7336170">
        <ele>1127.1</ele>
        <time>2019-08-14T07:59:14Z</time>
      </trkpt>
      <trkpt lat="40.7121270" lon="-4.7336220">
        <ele>1127.0</ele>
        <time>2019-08-14T07:59:15Z</time>
      </trkpt>
      <trkpt lat="40.7121560" lon="-4.7336210">
        <ele>1126.9</ele>
        <time>2019-08-14T07:59:16Z</time>
      </trkpt>
      <trkpt lat="40.7121840" lon="-4.7336140">
        <ele>1126.8</ele>
        <time>2019-08-14T07:59:17Z</time>
      </trkpt>
      <trkpt lat="40.7122110" lon="-4.7336030">
        <ele>1126.6</ele>
        <time>2019-08-14T07:59:18Z</time>
      </trkpt>
      <trkpt lat="40.7122410" lon="-4.7335920">
        <ele>1126.5</ele>
        <time>2019-08-14T07:59:19Z</time>
      </trkpt>
      <trkpt lat="40.7122720" lon="-4.7335840">
        <ele>1126.5</ele>
        <time>2019-08-14T07:59:20Z</time>
      </trkpt>
      <trkpt lat="40.7123060" lon="-4.7335780">
        <ele>1126.4</ele>
        <time>2019-08-14T07:59:21Z</time>
      </trkpt>
      <trkpt lat="40.7123380" lon="-4.7335710">
        <ele>1126.3</ele>
        <time>2019-08-14T07:59:22Z</time>
      </trkpt>
      <trkpt lat="40.7123710" lon="-4.7335680">
        <ele>1126.3</ele>
        <time>2019-08-14T07:59:23Z</time>
      </trkpt>
      <trkpt lat="40.7124030" lon="-4.7335650">
        <ele>1126.2</ele>
        <time>2019-08-14T07:59:24Z</time>
      </trkpt>
      <trkpt lat="40.7124330" lon="-4.7335610">
        <ele>1126.1</ele>
        <time>2019-08-14T07:59:25Z</time>
      </trkpt>
      <trkpt lat="40.7124600" lon="-4.7335580">
        <ele>1126.1</ele>
        <time>2019-08-14T07:59:26Z</time>
      </trkpt>
      <trkpt lat="40.7125140" lon="-4.7335590">
        <ele>1126.0</ele>
        <time>2019-08-14T07:59:28Z</time>
      </trkpt>
      <trkpt lat="40.7125460" lon="-4.7335590">
        <ele>1125.9</ele>
        <time>2019-08-14T07:59:29Z</time>
      </trkpt>
      <trkpt lat="40.7125780" lon="-4.7335590">
        <ele>1125.8</ele>
        <time>2019-08-14T07:59:30Z</time>
      </trkpt>
      <trkpt lat="40.7126090" lon="-4.7335610">
        <ele>1125.7</ele>
        <time>2019-08-14T07:59:31Z</time>
      </trkpt>
      <trkpt lat="40.7126390" lon="-4.7335670">
        <ele>1125.7</ele>
        <time>2019-08-14T07:59:32Z</time>
      </trkpt>
      <trkpt lat="40.7126710" lon="-4.7335720">
        <ele>1125.6</ele>
        <time>2019-08-14T07:59:33Z</time>
      </trkpt>
      <trkpt lat="40.7127040" lon="-4.7335720">
        <ele>1125.6</ele>
        <time>2019-08-14T07:59:34Z</time>
      </trkpt>
      <trkpt lat="40.7127350" lon="-4.7335690">
        <ele>1125.5</ele>
        <time>2019-08-14T07:59:35Z</time>
      </trkpt>
      <trkpt lat="40.7127620" lon="-4.7335640">
        <ele>1125.4</ele>
        <time>2019-08-14T07:59:36Z</time>
      </trkpt>
      <trkpt lat="40.7128140" lon="-4.7335570">
        <ele>1125.3</ele>
        <time>2019-08-14T07:59:38Z</time>
      </trkpt>
      <trkpt lat="40.7128630" lon="-4.7335510">
        <ele>1125.2</ele>
        <time>2019-08-14T07:59:40Z</time>
      </trkpt>
      <trkpt lat="40.7129160" lon="-4.7335410">
        <ele>1125.1</ele>
        <time>2019-08-14T07:59:42Z</time>
      </trkpt>
      <trkpt lat="40.7129460" lon="-4.7335370">
        <ele>1125.0</ele>
        <time>2019-08-14T07:59:43Z</time>
      </trkpt>
      <trkpt lat="40.7129800" lon="-4.7335370">
        <ele>1125.0</ele>
        <time>2019-08-14T07:59:44Z</time>
      </trkpt>
      <trkpt lat="40.7130140" lon="-4.7335420">
        <ele>1124.9</ele>
        <time>2019-08-14T07:59:45Z</time>
      </trkpt>
      <trkpt lat="40.7130480" lon="-4.7335470">
        <ele>1124.9</ele>
        <time>2019-08-14T07:59:46Z</time>
      </trkpt>
      <trkpt lat="40.7130820" lon="-4.7335510">
        <ele>1124.9</ele>
        <time>2019-08-14T07:59:47Z</time>
      </trkpt>
      <trkpt lat="40.7131180" lon="-4.7335540">
        <ele>1124.9</ele>
        <time>2019-08-14T07:59:48Z</time>
      </trkpt>
      <trkpt lat="40.7131530" lon="-4.7335620">
        <ele>1124.9</ele>
        <time>2019-08-14T07:59:49Z</time>
      </trkpt>
      <trkpt lat="40.7131850" lon="-4.7335700">
        <ele>1124.9</ele>
        <time>2019-08-14T07:59:50Z</time>
      </trkpt>
      <trkpt lat="40.7132140" lon="-4.7335770">
        <ele>1124.9</ele>
        <time>2019-08-14T07:59:51Z</time>
      </trkpt>
      <trkpt lat="40.7132440" lon="-4.7335860">
        <ele>1125.0</ele>
        <time>2019-08-14T07:59:52Z</time>
      </trkpt>
      <trkpt lat="40.7132760" lon="-4.7335940">
        <ele>1125.0</ele>
        <time>2019-08-14T07:59:53Z</time>
      </trkpt>
      <trkpt lat="40.7133080" lon="-4.7336010">
        <ele>1125.1</ele>
        <time>2019-08-14T07:59:54Z</time>
      </trkpt>
      <trkpt lat="40.7133400" lon="-4.7336070">
        <ele>1125.2</ele>
        <time>2019-08-14T07:59:55Z</time>
      </trkpt>
      <trkpt lat="40.7133710" lon="-4.7336100">
        <ele>1125.2</ele>
        <time>2019-08-14T07:59:56Z</time>
      </trkpt>
      <trkpt lat="40.7134000" lon="-4.7336090">
        <ele>1125.3</ele>
        <time>2019-08-14T07:59:57Z</time>
      </trkpt>
      <trkpt lat="40.7134500" lon="-4.7335980">
        <ele>1125.5</ele>
        <time>2019-08-14T07:59:59Z</time>
      </trkpt>
      <trkpt lat="40.7134930" lon="-4.7335780">
        <ele>1125.6</ele>
        <time>2019-08-14T08:00:01Z</time>
      </trkpt>
      <trkpt lat="40.7135320" lon="-4.7335360">
        <ele>1125.7</ele>
        <time>2019-08-14T08:00:03Z</time>
      </trkpt>
      <trkpt lat="40.7135750" lon="-4.7335000">
        <ele>1125.9</ele>
        <time>2019-08-14T08:00:05Z</time>
      </trkpt>
      <trkpt lat="40.7136170" lon="-4.7334760">
        <ele>1126.0</ele>
        <time>2019-08-14T08:00:07Z</time>
      </trkpt>
      <trkpt lat="40.7136600" lon="-4.7334650">
        <ele>1126.2</ele>
        <time>2019-08-14T08:00:09Z</time>
      </trkpt>
      <trkpt lat="40.7137080" lon="-4.7334630">
        <ele>1126.3</ele>
        <time>2019-08-14T08:00:11Z</time>
      </trkpt>
      <trkpt lat="40.7137520" lon="-4.7334660">
        <ele>1126.5</ele>
        <time>2019-08-14T08:00:13Z</time>
      </trkpt>
      <trkpt lat="40.7137830" lon="-4.7334720">
        <ele>1126.6</ele>
        <time>2019-08-14T08:00:15Z</time>
      </trkpt>
      <trkpt lat="40.7138220" lon="-4.7334720">
        <ele>1126.8</ele>
        <time>2019-08-14T08:00:17Z</time>
      </trkpt>
      <trkpt lat="40.7138610" lon="-4.7334750">
        <ele>1126.9</ele>
        <time>2019-08-14T08:00:19Z</time>
      </trkpt>
      <trkpt lat="40.7138960" lon="-4.7334850">
        <ele>1127.1</ele>
        <time>2019-08-14T08:00:21Z</time>
      </trkpt>
      <trkpt lat="40.7139310" lon="-4.7335130">
        <ele>1127.2</ele>
        <time>2019-08-14T08:00:23Z</time>
      </trkpt>
      <trkpt lat="40.7139600" lon="-4.7335430">
        <ele>1127.2</ele>
        <time>2019-08-14T08:00:25Z</time>
      </trkpt>
      <trkpt lat="40.7139610" lon="-4.7336850">
        <ele>1127.2</ele>
        <time>2019-08-14T08:02:53Z</time>
      </trkpt>
      <trkpt lat="40.7139420" lon="-4.7337140">
        <ele>1127.2</ele>
        <time>2019-08-14T08:02:54Z</time>
      </trkpt>
      <trkpt lat="40.7139190" lon="-4.7337440">
        <ele>1127.2</ele>
        <time>2019-08-14T08:02:55Z</time>
      </trkpt>
      <trkpt lat="40.7138960" lon="-4.7337760">
        <ele>1127.2</ele>
        <time>2019-08-14T08:02:56Z</time>
      </trkpt>
      <trkpt lat="40.7138720" lon="-4.7338090">
        <ele>1127.2</ele>
        <time>2019-08-14T08:02:57Z</time>
      </trkpt>
      <trkpt lat="40.7138470" lon="-4.7338410">
        <ele>1127.2</ele>
        <time>2019-08-14T08:02:58Z</time>
      </trkpt>
      <trkpt lat="40.7138220" lon="-4.7338760">
        <ele>1127.2</ele>
        <time>2019-08-14T08:02:59Z</time>
      </trkpt>
      <trkpt lat="40.7137960" lon="-4.7339100">
        <ele>1127.2</ele>
        <time>2019-08-14T08:03:00Z</time>
      </trkpt>
      <trkpt lat="40.7137700" lon="-4.7339460">
        <ele>1127.2</ele>
        <time>2019-08-14T08:03:01Z</time>
      </trkpt>
      <trkpt lat="40.7137430" lon="-4.7339820">
        <ele>1127.2</ele>
        <time>2019-08-14T08:03:02Z</time>
      </trkpt>
      <trkpt lat="40.7137160" lon="-4.7340180">
        <ele>1127.2</ele>
        <time>2019-08-14T08:03:03Z</time>
      </trkpt>
      <trkpt lat="40.7136870" lon="-4.7340560">
        <ele>1127.2</ele>
        <time>2019-08-14T08:03:04Z</time>
      </trkpt>
      <trkpt lat="40.7136600" lon="-4.7340920">
        <ele>1127.2</ele>
        <time>2019-08-14T08:03:05Z</time>
      </trkpt>
      <trkpt lat="40.7136300" lon="-4.7341300">
        <ele>1127.2</ele>
        <time>2019-08-14T08:03:06Z</time>
      </trkpt>
      <trkpt lat="40.7136020" lon="-4.7341680">
        <ele>1127.2</ele>
        <time>2019-08-14T08:03:07Z</time>
      </trkpt>
      <trkpt lat="40.7135730" lon="-4.7342060">
        <ele>1127.2</ele>
        <time>2019-08-14T08:03:08Z</time>
      </trkpt>
      <trkpt lat="40.7135440" lon="-4.7342450">
        <ele>1127.2</ele>
        <time>2019-08-14T08:03:09Z</time>
      </trkpt>
      <trkpt lat="40.7135160" lon="-4.7342850">
        <ele>1127.2</ele>
        <time>2019-08-14T08:03:10Z</time>
      </trkpt>
      <trkpt lat="40.7134890" lon="-4.7343230">
        <ele>1127.2</ele>
        <time>2019-08-14T08:03:11Z</time>
      </trkpt>
      <trkpt lat="40.7134610" lon="-4.7343610">
        <ele>1127.3</ele>
        <time>2019-08-14T08:03:12Z</time>
      </trkpt>
      <trkpt lat="40.7134320" lon="-4.7343980">
        <ele>1127.3</ele>
        <time>2019-08-14T08:03:13Z</time>
      </trkpt>
      <trkpt lat="40.7134040" lon="-4.7344360">
        <ele>1127.4</ele>
        <time>2019-08-14T08:03:14Z</time>
      </trkpt>
      <trkpt lat="40.7133750" lon="-4.7344720">
        <ele>1127.4</ele>
        <time>2019-08-14T08:03:15Z</time>
      </trkpt>
      <trkpt lat="40.7133460" lon="-4.7345080">
        <ele>1127.5</ele>
        <time>2019-08-14T08:03:16Z</time>
      </trkpt>
      <trkpt lat="40.7133170" lon="-4.7345440">
        <ele>1127.6</ele>
        <time>2019-08-14T08:03:17Z</time>
      </trkpt>
      <trkpt lat="40.7132890" lon="-4.7345810">
        <ele>1127.7</ele>
        <time>2019-08-14T08:03:18Z</time>
      </trkpt>
      <trkpt lat="40.7132600" lon="-4.7346180">
        <ele>1127.8</ele>
        <time>2019-08-14T08:03:19Z</time>
      </trkpt>
      <trkpt lat="40.7132310" lon="-4.7346520">
        <ele>1127.9</ele>
        <time>2019-08-14T08:03:20Z</time>
      </trkpt>
      <trkpt lat="40.7132030" lon="-4.7346860">
        <ele>1128.0</ele>
        <time>2019-08-14T08:03:21Z</time>
      </trkpt>
      <trkpt lat="40.7131750" lon="-4.7347190">
        <ele>1128.1</ele>
        <time>2019-08-14T08:03:22Z</time>
      </trkpt>
      <trkpt lat="40.7131470" lon="-4.7347500">
        <ele>1128.2</ele>
        <time>2019-08-14T08:03:23Z</time>
      </trkpt>
      <trkpt lat="40.7131190" lon="-4.7347800">
        <ele>1128.3</ele>
        <time>2019-08-14T08:03:24Z</time>
      </trkpt>
      <trkpt lat="40.7130920" lon="-4.7348070">
        <ele>1128.4</ele>
        <time>2019-08-14T08:03:25Z</time>
      </trkpt>
      <trkpt lat="40.7130640" lon="-4.7348360">
        <ele>1128.5</ele>
        <time>2019-08-14T08:03:26Z</time>
      </trkpt>
      <trkpt lat="40.7130360" lon="-4.7348650">
        <ele>1128.6</ele>
        <time>2019-08-14T08:03:27Z</time>
      </trkpt>
      <trkpt lat="40.7130080" lon="-4.7348940">
        <ele>1128.7</ele>
        <time>2019-08-14T08:03:28Z</time>
      </trkpt>
      <trkpt lat="40.7129790" lon="-4.7349210">
        <ele>1128.7</ele>
        <time>2019-08-14T08:03:29Z</time>
      </trkpt>
      <trkpt lat="40.7129500" lon="-4.7349480">
        <ele>1128.8</ele>
        <time>2019-08-14T08:03:30Z</time>
      </trkpt>
      <trkpt lat="40.7129210" lon="-4.7349760">
        <ele>1128.8</ele>
        <time>2019-08-14T08:03:31Z</time>
      </trkpt>
      <trkpt lat="40.7128920" lon="-4.7350020">
        <ele>1128.9</ele>
        <time>2019-08-14T08:03:32Z</time>
      </trkpt>
      <trkpt lat="40.7128610" lon="-4.7350280">
        <ele>1128.9</ele>
        <time>2019-08-14T08:03:33Z</time>
      </trkpt>
      <trkpt lat="40.7128320" lon="-4.7350540">
        <ele>1128.9</ele>
        <time>2019-08-14T08:03:34Z</time>
      </trkpt>
      <trkpt lat="40.7128010" lon="-4.7350790">
        <ele>1129.0</ele>
        <time>2019-08-14T08:03:35Z</time>
      </trkpt>
      <trkpt lat="40.7127710" lon="-4.7351010">
        <ele>1128.6</ele>
        <time>2019-08-14T08:03:36Z</time>
      </trkpt>
      <trkpt lat="40.7127460" lon="-4.7351230">
        <ele>1128.5</ele>
        <time>2019-08-14T08:03:37Z</time>
      </trkpt>
      <trkpt lat="40.7127350" lon="-4.7351690">
        <ele>1128.4</ele>
        <time>2019-08-14T08:03:39Z</time>
      </trkpt>
      <trkpt lat="40.7127860" lon="-4.7351850">
        <ele>1128.3</ele>
        <time>2019-08-14T08:03:41Z</time>
      </trkpt>
      <trkpt lat="40.7128240" lon="-4.7351690">
        <ele>1128.2</ele>
        <time>2019-08-14T08:03:42Z</time>
      </trkpt>
      <trkpt lat="40.7128680" lon="-4.7351430">
        <ele>1128.1</ele>
        <time>2019-08-14T08:03:43Z</time>
      </trkpt>
      <trkpt lat="40.7129150" lon="-4.7351150">
        <ele>1127.9</ele>
        <time>2019-08-14T08:03:44Z</time>
      </trkpt>
      <trkpt lat="40.7129670" lon="-4.7350870">
        <ele>1127.7</ele>
        <time>2019-08-14T08:03:45Z</time>
      </trkpt>
      <trkpt lat="40.7130220" lon="-4.7350630">
        <ele>1127.6</ele>
        <time>2019-08-14T08:03:46Z</time>
      </trkpt>
      <trkpt lat="40.7130780" lon="-4.7350390">
        <ele>1127.5</ele>
        <time>2019-08-14T08:03:47Z</time>
      </trkpt>
      <trkpt lat="40.7131340" lon="-4.7350150">
        <ele>1127.4</ele>
        <time>2019-08-14T08:03:48Z</time>
      </trkpt>
      <trkpt lat="40.7131890" lon="-4.7349920">
        <ele>1127.3</ele>
        <time>2019-08-14T08:03:49Z</time>
      </trkpt>
      <trkpt lat="40.7132450" lon="-4.7349690">
        <ele>1127.2</ele>
        <time>2019-08-14T08:03:50Z</time>
      </trkpt>
      <trkpt lat="40.7133010" lon="-4.7349430">
        <ele>1127.1</ele>
        <time>2019-08-14T08:03:51Z</time>
      </trkpt>
      <trkpt lat="40.7133560" lon="-4.7349170">
        <ele>1127.1</ele>
        <time>2019-08-14T08:03:52Z</time>
      </trkpt>
      <trkpt lat="40.7134080" lon="-4.7348940">
        <ele>1127.1</ele>
        <time>2019-08-14T08:03:53Z</time>
      </trkpt>
      <trkpt lat="40.7134500" lon="-4.7348800">
        <ele>1127.1</ele>
        <time>2019-08-14T08:03:54Z</time>
      </trkpt>
      <trkpt lat="40.7134790" lon="-4.7348730">
        <ele>1127.2</ele>
        <time>2019-08-14T08:03:55Z</time>
      </trkpt>
      <trkpt lat="40.7135210" lon="-4.7348910">
        <ele>1127.2</ele>
        <time>2019-08-14T08:03:57Z</time>
      </trkpt>
      <trkpt lat="40.7135420" lon="-4.7349420">
        <ele>1127.2</ele>
        <time>2019-08-14T08:03:59Z</time>
      </trkpt>
      <trkpt lat="40.7135600" lon="-4.7350010">
        <ele>1127.3</ele>
        <time>2019-08-14T08:04:01Z</time>
      </trkpt>
      <trkpt lat="40.7135810" lon="-4.7350670">
        <ele>1127.3</ele>
        <time>2019-08-14T08:04:03Z</time>
      </trkpt>
      <trkpt lat="40.7135920" lon="-4.7351030">
        <ele>1127.3</ele>
        <time>2019-08-14T08:04:04Z</time>
      </trkpt>
      <trkpt lat="40.7136010" lon="-4.7351390">
        <ele>1127.3</ele>
        <time>2019-08-14T08:04:05Z</time>
      </trkpt>
      <trkpt lat="40.7136110" lon="-4.7351790">
        <ele>1127.4</ele>
        <time>2019-08-14T08:04:06Z</time>
      </trkpt>
      <trkpt lat="40.7136170" lon="-4.7352160">
        <ele>1127.4</ele>
        <time>2019-08-14T08:04:07Z</time>
      </trkpt>
      <trkpt lat="40.7136170" lon="-4.7352530">
        <ele>1127.4</ele>
        <time>2019-08-14T08:04:08Z</time>
      </trkpt>
      <trkpt lat="40.7136100" lon="-4.7352910">
        <ele>1127.4</ele>
        <time>2019-08-14T08:04:09Z</time>
      </trkpt>
      <trkpt lat="40.7136020" lon="-4.7353290">
        <ele>1127.4</ele>
        <time>2019-08-14T08:04:10Z</time>
      </trkpt>
      <trkpt lat="40.7135900" lon="-4.7353680">
        <ele>1127.4</ele>
        <time>2019-08-14T08:04:11Z</time>
      </trkpt>
      <trkpt lat="40.7135750" lon="-4.7354080">
        <ele>1127.5</ele>
        <time>2019-08-14T08:04:12Z</time>
      </trkpt>
      <trkpt lat="40.7135590" lon="-4.7354510">
        <ele>1127.5</ele>
        <time>2019-08-14T08:04:13Z</time>
      </trkpt>
      <trkpt lat="40.7135420" lon="-4.7354960">
        <ele>1127.5</ele>
        <time>2019-08-14T08:04:14Z</time>
      </trkpt>
      <trkpt lat="40.7135240" lon="-4.7355400">
        <ele>1127.6</ele>
        <time>2019-08-14T08:04:15Z</time>
      </trkpt>
      <trkpt lat="40.7135030" lon="-4.7355840">
        <ele>1127.6</ele>
        <time>2019-08-14T08:04:16Z</time>
      </trkpt>
      <trkpt lat="40.7134820" lon="-4.7356270">
        <ele>1127.7</ele>
        <time>2019-08-14T08:04:17Z</time>
      </trkpt>
      <trkpt lat="40.7134620" lon="-4.7356720">
        <ele>1127.7</ele>
        <time>2019-08-14T08:04:18Z</time>
      </trkpt>
      <trkpt lat="40.7134430" lon="-4.7357190">
        <ele>1127.8</ele>
        <time>2019-08-14T08:04:19Z</time>
      </trkpt>
      <trkpt lat="40.7134270" lon="-4.7357700">
        <ele>1127.9</ele>
        <time>2019-08-14T08:04:20Z</time>
      </trkpt>
      <trkpt lat="40.7134140" lon="-4.7358220">
        <ele>1128.0</ele>
        <time>2019-08-14T08:04:21Z</time>
      </trkpt>
      <trkpt lat="40.7134050" lon="-4.7358770">
        <ele>1128.1</ele>
        <time>2019-08-14T08:04:22Z</time>
      </trkpt>
      <trkpt lat="40.7134010" lon="-4.7359350">
        <ele>1128.2</ele>
        <time>2019-08-14T08:04:23Z</time>
      </trkpt>
      <trkpt lat="40.7133990" lon="-4.7359900">
        <ele>1128.4</ele>
        <time>2019-08-14T08:04:24Z</time>
      </trkpt>
      <trkpt lat="40.7133990" lon="-4.7360470">
        <ele>1128.5</ele>
        <time>2019-08-14T08:04:25Z</time>
      </trkpt>
      <trkpt lat="40.7134010" lon="-4.7361010">
        <ele>1128.7</ele>
        <time>2019-08-14T08:04:26Z</time>
      </trkpt>
      <trkpt lat="40.7134070" lon="-4.7361520">
        <ele>1128.8</ele>
        <time>2019-08-14T08:04:27Z</time>
      </trkpt>
      <trkpt lat="40.7134190" lon="-4.7361990">
        <ele>1129.0</ele>
        <time>2019-08-14T08:04:28Z</time>
      </trkpt>
      <trkpt lat="40.7134320" lon="-4.7362430">
        <ele>1129.3</ele>
        <time>2019-08-14T08:04:29Z</time>
      </trkpt>
      <trkpt lat="40.7134470" lon="-4.7362910">
        <ele>1129.5</ele>
        <time>2019-08-14T08:04:30Z</time>
      </trkpt>
      <trkpt lat="40.7134640" lon="-4.7363420">
        <ele>1129.8</ele>
        <time>2019-08-14T08:04:31Z</time>
      </trkpt>
      <trkpt lat="40.7134830" lon="-4.7363880">
        <ele>1130.0</ele>
        <time>2019-08-14T08:04:32Z</time>
      </trkpt>
      <trkpt lat="40.7135060" lon="-4.7364320">
        <ele>1130.3</ele>
        <time>2019-08-14T08:04:33Z</time>
      </trkpt>
      <trkpt lat="40.7135300" lon="-4.7364740">
        <ele>1130.4</ele>
        <time>2019-08-14T08:04:34Z</time>
      </trkpt>
      <trkpt lat="40.7135560" lon="-4.7365150">
        <ele>1130.6</ele>
        <time>2019-08-14T08:04:35Z</time>
      </trkpt>
      <trkpt lat="40.7135820" lon="-4.7365560">
        <ele>1130.8</ele>
        <time>2019-08-14T08:04:36Z</time>
      </trkpt>
      <trkpt lat="40.7136120" lon="-4.7365980">
        <ele>1131.0</ele>
        <time>2019-08-14T08:04:37Z</time>
      </trkpt>
      <trkpt lat="40.7136410" lon="-4.7366390">
        <ele>1131.3</ele>
        <time>2019-08-14T08:04:38Z</time>
      </trkpt>
      <trkpt lat="40.7136710" lon="-4.7366800">
        <ele>1131.5</ele>
        <time>2019-08-14T08:04:39Z</time>
      </trkpt>
      <trkpt lat="40.7136990" lon="-4.7367240">
        <ele>1131.8</ele>
        <time>2019-08-14T08:04:40Z</time>
      </trkpt>
      <trkpt lat="40.7137260" lon="-4.7367670">
        <ele>1132.0</ele>
        <time>2019-08-14T08:04:41Z</time>
      </trkpt>
      <trkpt lat="40.7137530" lon="-4.7368100">
        <ele>1132.2</ele>
        <time>2019-08-14T08:04:42Z</time>
      </trkpt>
      <trkpt lat="40.7137810" lon="-4.7368480">
        <ele>1132.3</ele>
        <time>2019-08-14T08:04:43Z</time>
      </trkpt>
      <trkpt lat="40.7138080" lon="-4.7368830">
        <ele>1132.4</ele>
        <time>2019-08-14T08:04:44Z</time>
      </trkpt>
      <trkpt lat="40.7138360" lon="-4.7369160">
        <ele>1132.5</ele>
        <time>2019-08-14T08:04:45Z</time>
      </trkpt>
      <trkpt lat="40.7138630" lon="-4.7369500">
        <ele>1132.6</ele>
        <time>2019-08-14T08:04:46Z</time>
      </trkpt>
      <trkpt lat="40.7138880" lon="-4.7369840">
        <ele>1132.7</ele>
        <time>2019-08-14T08:04:47Z</time>
      </trkpt>
      <trkpt lat="40.7139150" lon="-4.7370160">
        <ele>1132.9</ele>
        <time>2019-08-14T08:04:48Z</time>
      </trkpt>
      <trkpt lat="40.7139420" lon="-4.7370470">
        <ele>1133.0</ele>
        <time>2019-08-14T08:04:49Z</time>
      </trkpt>
      <trkpt lat="40.7139700" lon="-4.7370770">
        <ele>1133.1</ele>
        <time>2019-08-14T08:04:50Z</time>
      </trkpt>
      <trkpt lat="40.7139970" lon="-4.7371070">
        <ele>1133.2</ele>
        <time>2019-08-14T08:04:51Z</time>
      </trkpt>
      <trkpt lat="40.7140240" lon="-4.7371370">
        <ele>1133.4</ele>
        <time>2019-08-14T08:04:52Z</time>
      </trkpt>
      <trkpt lat="40.7140510" lon="-4.7371680">
        <ele>1133.5</ele>
        <time>2019-08-14T08:04:53Z</time>
      </trkpt>
      <trkpt lat="40.7140780" lon="-4.7372000">
        <ele>1133.6</ele>
        <time>2019-08-14T08:04:54Z</time>
      </trkpt>
      <trkpt lat="40.7141030" lon="-4.7372310">
        <ele>1133.7</ele>
        <time>2019-08-14T08:04:55Z</time>
      </trkpt>
      <trkpt lat="40.7141260" lon="-4.7372620">
        <ele>1133.8</ele>
        <time>2019-08-14T08:04:56Z</time>
      </trkpt>
      <trkpt lat="40.7141490" lon="-4.7372920">
        <ele>1133.8</ele>
        <time>2019-08-14T08:04:57Z</time>
      </trkpt>
      <trkpt lat="40.7141710" lon="-4.7373210">
        <ele>1133.9</ele>
        <time>2019-08-14T08:04:58Z</time>
      </trkpt>
      <trkpt lat="40.7141950" lon="-4.7373500">
        <ele>1133.9</ele>
        <time>2019-08-14T08:04:59Z</time>
      </trkpt>
      <trkpt lat="40.7142170" lon="-4.7373810">
        <ele>1134.0</ele>
        <time>2019-08-14T08:05:00Z</time>
      </trkpt>
      <trkpt lat="40.7142370" lon="-4.7374100">
        <ele>1134.0</ele>
        <time>2019-08-14T08:05:01Z</time>
      </trkpt>
      <trkpt lat="40.7142570" lon="-4.7374400">
        <ele>1134.1</ele>
        <time>2019-08-14T08:05:02Z</time>
      </trkpt>
      <trkpt lat="40.7142790" lon="-4.7374740">
        <ele>1134.1</ele>
        <time>2019-08-14T08:05:03Z</time>
      </trkpt>
      <trkpt lat="40.7143000" lon="-4.7375100">
        <ele>1134.2</ele>
        <time>2019-08-14T08:05:04Z</time>
      </trkpt>
      <trkpt lat="40.7143220" lon="-4.7375440">
        <ele>1134.3</ele>
        <time>2019-08-14T08:05:05Z</time>
      </trkpt>
      <trkpt lat="40.7143460" lon="-4.7375780">
        <ele>1134.5</ele>
        <time>2019-08-14T08:05:06Z</time>
      </trkpt>
      <trkpt lat="40.7143710" lon="-4.7376120">
        <ele>1134.7</ele>
        <time>2019-08-14T08:05:07Z</time>
      </trkpt>
      <trkpt lat="40.7143970" lon="-4.7376450">
        <ele>1134.9</ele>
        <time>2019-08-14T08:05:08Z</time>
      </trkpt>
      <trkpt lat="40.7144250" lon="-4.7376730">
        <ele>1135.1</ele>
        <time>2019-08-14T08:05:09Z</time>
      </trkpt>
      <trkpt lat="40.7144550" lon="-4.7376980">
        <ele>1135.4</ele>
        <time>2019-08-14T08:05:10Z</time>
      </trkpt>
      <trkpt lat="40.7144860" lon="-4.7377230">
        <ele>1135.7</ele>
        <time>2019-08-14T08:05:11Z</time>
      </trkpt>
      <trkpt lat="40.7145150" lon="-4.7377450">
        <ele>1136.0</ele>
        <time>2019-08-14T08:05:12Z</time>
      </trkpt>
      <trkpt lat="40.7145450" lon="-4.7377680">
        <ele>1136.4</ele>
        <time>2019-08-14T08:05:13Z</time>
      </trkpt>
      <trkpt lat="40.7145730" lon="-4.7377910">
        <ele>1136.8</ele>
        <time>2019-08-14T08:05:14Z</time>
      </trkpt>
      <trkpt lat="40.7146000" lon="-4.7378160">
        <ele>1137.1</ele>
        <time>2019-08-14T08:05:15Z</time>
      </trkpt>
      <trkpt lat="40.7146260" lon="-4.7378390">
        <ele>1137.4</ele>
        <time>2019-08-14T08:05:16Z</time>
      </trkpt>
      <trkpt lat="40.7146520" lon="-4.7378630">
        <ele>1137.7</ele>
        <time>2019-08-14T08:05:17Z</time>
      </trkpt>
      <trkpt lat="40.7146770" lon="-4.7378870">
        <ele>1138.0</ele>
        <time>2019-08-14T08:05:18Z</time>
      </trkpt>
      <trkpt lat="40.7147020" lon="-4.7379100">
        <ele>1138.4</ele>
        <time>2019-08-14T08:05:19Z</time>
      </trkpt>
      <trkpt lat="40.7147260" lon="-4.7379300">
        <ele>1138.9</ele>
        <time>2019-08-14T08:05:20Z</time>
      </trkpt>
      <trkpt lat="40.7147500" lon="-4.7379490">
        <ele>1139.3</ele>
        <time>2019-08-14T08:05:21Z</time>
      </trkpt>
      <trkpt lat="40.7147900" lon="-4.7379720">
        <ele>1140.0</ele>
        <time>2019-08-14T08:05:23Z</time>
      </trkpt>
      <trkpt lat="40.7148210" lon="-4.7379830">
        <ele>1140.5</ele>
        <time>2019-08-14T08:05:25Z</time>
      </trkpt>
      <trkpt lat="40.7148520" lon="-4.7379900">
        <ele>1141.0</ele>
        <time>2019-08-14T08:05:27Z</time>
      </trkpt>
      <trkpt lat="40.7148810" lon="-4.7379890">
        <ele>1141.4</ele>
        <time>2019-08-14T08:05:29Z</time>
      </trkpt>
      <trkpt lat="40.7149090" lon="-4.7379830">
        <ele>1141.9</ele>
        <time>2019-08-14T08:05:31Z</time>
      </trkpt>
      <trkpt lat="40.7149370" lon="-4.7379810">
        <ele>1142.3</ele>
        <time>2019-08-14T08:05:33Z</time>
      </trkpt>
      <trkpt lat="40.7149650" lon="-4.7379820">
        <ele>1142.8</ele>
        <time>2019-08-14T08:05:35Z</time>
      </trkpt>
      <trkpt lat="40.7150050" lon="-4.7379790">
        <ele>1143.4</ele>
        <time>2019-08-14T08:05:38Z</time>
      </trkpt>
      <trkpt lat="40.7150330" lon="-4.7379740">
        <ele>1143.9</ele>
        <time>2019-08-14T08:05:40Z</time>
      </trkpt>
      <trkpt lat="40.7150620" lon="-4.7379710">
        <ele>1144.4</ele>
        <time>2019-08-14T08:05:42Z</time>
      </trkpt>
      <trkpt lat="40.7150910" lon="-4.7379670">
        <ele>1144.9</ele>
        <time>2019-08-14T08:05:44Z</time>
      </trkpt>
      <trkpt lat="40.7151190" lon="-4.7379630">
        <ele>1145.3</ele>
        <time>2019-08-14T08:05:46Z</time>
      </trkpt>
      <trkpt lat="40.7151490" lon="-4.7379590">
        <ele>1145.8</ele>
        <time>2019-08-14T08:05:48Z</time>
      </trkpt>
      <trkpt lat="40.7151770" lon="-4.7379550">
        <ele>1146.2</ele>
        <time>2019-08-14T08:05:50Z</time>
      </trkpt>
      <trkpt lat="40.7152040" lon="-4.7379540">
        <ele>1146.6</ele>
        <time>2019-08-14T08:05:52Z</time>
      </trkpt>
      <trkpt lat="40.7152310" lon="-4.7379510">
        <ele>1147.0</ele>
        <time>2019-08-14T08:05:54Z</time>
      </trkpt>
      <trkpt lat="40.7152610" lon="-4.7379450">
        <ele>1147.4</ele>
        <time>2019-08-14T08:05:56Z</time>
      </trkpt>
      <trkpt lat="40.7153000" lon="-4.7379300">
        <ele>1147.9</ele>
        <time>2019-08-14T08:05:58Z</time>
      </trkpt>
      <trkpt lat="40.7153340" lon="-4.7379200">
        <ele>1148.3</ele>
        <time>2019-08-14T08:06:00Z</time>
      </trkpt>
      <trkpt lat="40.7153650" lon="-4.7379190">
        <ele>1148.6</ele>
        <time>2019-08-14T08:06:02Z</time>
      </trkpt>
      <trkpt lat="40.7153950" lon="-4.7379160">
        <ele>1148.9</ele>
        <time>2019-08-14T08:06:04Z</time>
      </trkpt>
      <trkpt lat="40.7154240" lon="-4.7379060">
        <ele>1149.3</ele>
        <time>2019-08-14T08:06:06Z</time>
      </trkpt>
      <trkpt lat="40.7154520" lon="-4.7378930">
        <ele>1149.5</ele>
        <time>2019-08-14T08:06:08Z</time>
      </trkpt>
      <trkpt lat="40.7154820" lon="-4.7378850">
        <ele>1149.8</ele>
        <time>2019-08-14T08:06:10Z</time>
      </trkpt>
      <trkpt lat="40.7155100" lon="-4.7378780">
        <ele>1150.1</ele>
        <time>2019-08-14T08:06:12Z</time>
      </trkpt>
      <trkpt lat="40.7155380" lon="-4.7378650">
        <ele>1150.3</ele>
        <time>2019-08-14T08:06:14Z</time>
      </trkpt>
      <trkpt lat="40.7155680" lon="-4.7378510">
        <ele>1150.5</ele>
        <time>2019-08-14T08:06:16Z</time>
      </trkpt>
      <trkpt lat="40.7155960" lon="-4.7378400">
        <ele>1150.8</ele>
        <time>2019-08-14T08:06:18Z</time>
      </trkpt>
      <trkpt lat="40.7156250" lon="-4.7378310">
        <ele>1151.0</ele>
        <time>2019-08-14T08:06:20Z</time>
      </trkpt>
      <trkpt lat="40.7156560" lon="-4.7378240">
        <ele>1151.2</ele>
        <time>2019-08-14T08:06:22Z</time>
      </trkpt>
      <trkpt lat="40.7156860" lon="-4.7378190">
        <ele>1151.4</ele>
        <time>2019-08-14T08:06:24Z</time>
      </trkpt>
      <trkpt lat="40.7157160" lon="-4.7378140">
        <ele>1151.7</ele>
        <time>2019-08-14T08:06:26Z</time>
      </trkpt>
      <trkpt lat="40.7157460" lon="-4.7378080">
        <ele>1151.9</ele>
        <time>2019-08-14T08:06:28Z</time>
      </trkpt>
      <trkpt lat="40.7157760" lon="-4.7378060">
        <ele>1152.1</ele>
        <time>2019-08-14T08:06:30Z</time>
      </trkpt>
      <trkpt lat="40.7158060" lon="-4.7378040">
        <ele>1152.3</ele>
        <time>2019-08-14T08:06:32Z</time>
      </trkpt>
      <trkpt lat="40.7158370" lon="-4.7378030">
        <ele>1152.5</ele>
        <time>2019-08-14T08:06:34Z</time>
      </trkpt>
      <trkpt lat="40.7158680" lon="-4.7378040">
        <ele>1152.7</ele>
        <time>2019-08-14T08:06:36Z</time>
      </trkpt>
      <trkpt lat="40.7158980" lon="-4.7378030">
        <ele>1152.9</ele>
        <time>2019-08-14T08:06:38Z</time>
      </trkpt>
      <trkpt lat="40.7159280" lon="-4.7378080">
        <ele>1153.0</ele>
        <time>2019-08-14T08:06:40Z</time>
      </trkpt>
      <trkpt lat="40.7159590" lon="-4.7378180">
        <ele>1153.1</ele>
        <time>2019-08-14T08:06:42Z</time>
      </trkpt>
      <trkpt lat="40.7159900" lon="-4.7378270">
        <ele>1153.2</ele>
        <time>2019-08-14T08:06:44Z</time>
      </trkpt>
      <trkpt lat="40.7160170" lon="-4.7378310">
        <ele>1153.3</ele>
        <time>2019-08-14T08:06:46Z</time>
      </trkpt>
      <trkpt lat="40.7160460" lon="-4.7378480">
        <ele>1153.5</ele>
        <time>2019-08-14T08:06:48Z</time>
      </trkpt>
      <trkpt lat="40.7160790" lon="-4.7378700">
        <ele>1153.7</ele>
        <time>2019-08-14T08:06:50Z</time>
      </trkpt>
      <trkpt lat="40.7161140" lon="-4.7378890">
        <ele>1153.9</ele>
        <time>2019-08-14T08:06:52Z</time>
      </trkpt>
      <trkpt lat="40.7161530" lon="-4.7379140">
        <ele>1154.1</ele>
        <time>2019-08-14T08:06:54Z</time>
      </trkpt>
      <trkpt lat="40.7161940" lon="-4.7379390">
        <ele>1154.3</ele>
        <time>2019-08-14T08:06:56Z</time>
      </trkpt>
      <trkpt lat="40.7162400" lon="-4.7379620">
        <ele>1154.4</ele>
        <time>2019-08-14T08:06:58Z</time>
      </trkpt>
      <trkpt lat="40.7162850" lon="-4.7379860">
        <ele>1154.5</ele>
        <time>2019-08-14T08:07:00Z</time>
      </trkpt>
      <trkpt lat="40.7163320" lon="-4.7380060">
        <ele>1154.6</ele>
        <time>2019-08-14T08:07:02Z</time>
      </trkpt>
      <trkpt lat="40.7163800" lon="-4.7380220">
        <ele>1154.7</ele>
        <time>2019-08-14T08:07:04Z</time>
      </trkpt>
      <trkpt lat="40.7164270" lon="-4.7380280">
        <ele>1154.8</ele>
        <time>2019-08-14T08:07:06Z</time>
      </trkpt>
      <trkpt lat="40.7164720" lon="-4.7380310">
        <ele>1155.0</ele>
        <time>2019-08-14T08:07:08Z</time>
      </trkpt>
      <trkpt lat="40.7165170" lon="-4.7380350">
        <ele>1155.1</ele>
        <time>2019-08-14T08:07:10Z</time>
      </trkpt>
      <trkpt lat="40.7165640" lon="-4.7380300">
        <ele>1155.3</ele>
        <time>2019-08-14T08:07:12Z</time>
      </trkpt>
      <trkpt lat="40.7166120" lon="-4.7380220">
        <ele>1155.5</ele>
        <time>2019-08-14T08:07:14Z</time>
      </trkpt>
      <trkpt lat="40.7166590" lon="-4.7380130">
        <ele>1155.7</ele>
        <time>2019-08-14T08:07:16Z</time>
      </trkpt>
      <trkpt lat="40.7167090" lon="-4.7379990">
        <ele>1155.8</ele>
        <time>2019-08-14T08:07:18Z</time>
      </trkpt>
      <trkpt lat="40.7167590" lon="-4.7379760">
        <ele>1156.0</ele>
        <time>2019-08-14T08:07:20Z</time>
      </trkpt>
      <trkpt lat="40.7168070" lon="-4.7379450">
        <ele>1156.1</ele>
        <time>2019-08-14T08:07:22Z</time>
      </trkpt>
      <trkpt lat="40.7168550" lon="-4.7379150">
        <ele>1156.3</ele>
        <time>2019-08-14T08:07:24Z</time>
      </trkpt>
      <trkpt lat="40.7169030" lon="-4.7378890">
        <ele>1156.4</ele>
        <time>2019-08-14T08:07:26Z</time>
      </trkpt>
      <trkpt lat="40.7169480" lon="-4.7378730">
        <ele>1156.6</ele>
        <time>2019-08-14T08:07:28Z</time>
      </trkpt>
      <trkpt lat="40.7169960" lon="-4.7378830">
        <ele>1156.8</ele>
        <time>2019-08-14T08:07:30Z</time>
      </trkpt>
      <trkpt lat="40.7170450" lon="-4.7379020">
        <ele>1157.0</ele>
        <time>2019-08-14T08:07:32Z</time>
      </trkpt>
      <trkpt lat="40.7170940" lon="-4.7379280">
        <ele>1157.2</ele>
        <time>2019-08-14T08:07:34Z</time>
      </trkpt>
      <trkpt lat="40.7171190" lon="-4.7379420">
        <ele>1157.3</ele>
        <time>2019-08-14T08:07:35Z</time>
      </trkpt>
      <trkpt lat="40.7171670" lon="-4.7379700">
        <ele>1157.5</ele>
        <time>2019-08-14T08:07:37Z</time>
      </trkpt>
      <trkpt lat="40.7172130" lon="-4.7380040">
        <ele>1157.6</ele>
        <time>2019-08-14T08:07:39Z</time>
      </trkpt>
      <trkpt lat="40.7172570" lon="-4.7380400">
        <ele>1157.7</ele>
        <time>2019-08-14T08:07:41Z</time>
      </trkpt>
      <trkpt lat="40.7172800" lon="-4.7380590">
        <ele>1157.7</ele>
        <time>2019-08-14T08:07:42Z</time>
      </trkpt>
      <trkpt lat="40.7173030" lon="-4.7380810">
        <ele>1157.8</ele>
        <time>2019-08-14T08:07:43Z</time>
      </trkpt>
      <trkpt lat="40.7173250" lon="-4.7381040">
        <ele>1157.9</ele>
        <time>2019-08-14T08:07:44Z</time>
      </trkpt>
      <trkpt lat="40.7173490" lon="-4.7381290">
        <ele>1158.0</ele>
        <time>2019-08-14T08:07:45Z</time>
      </trkpt>
      <trkpt lat="40.7173720" lon="-4.7381550">
        <ele>1158.1</ele>
        <time>2019-08-14T08:07:46Z</time>
      </trkpt>
      <trkpt lat="40.7173960" lon="-4.7381820">
        <ele>1158.2</ele>
        <time>2019-08-14T08:07:47Z</time>
      </trkpt>
      <trkpt lat="40.7174170" lon="-4.7382130">
        <ele>1158.3</ele>
        <time>2019-08-14T08:07:48Z</time>
      </trkpt>
      <trkpt lat="40.7174370" lon="-4.7382470">
        <ele>1158.5</ele>
        <time>2019-08-14T08:07:49Z</time>
      </trkpt>
      <trkpt lat="40.7174540" lon="-4.7382850">
        <ele>1158.6</ele>
        <time>2019-08-14T08:07:50Z</time>
      </trkpt>
      <trkpt lat="40.7174690" lon="-4.7383240">
        <ele>1158.8</ele>
        <time>2019-08-14T08:07:51Z</time>
      </trkpt>
      <trkpt lat="40.7174860" lon="-4.7383630">
        <ele>1158.9</ele>
        <time>2019-08-14T08:07:52Z</time>
      </trkpt>
      <trkpt lat="40.7175020" lon="-4.7384010">
        <ele>1159.1</ele>
        <time>2019-08-14T08:07:53Z</time>
      </trkpt>
      <trkpt lat="40.7175180" lon="-4.7384370">
        <ele>1159.2</ele>
        <time>2019-08-14T08:07:54Z</time>
      </trkpt>
      <trkpt lat="40.7175360" lon="-4.7384720">
        <ele>1159.3</ele>
        <time>2019-08-14T08:07:55Z</time>
      </trkpt>
      <trkpt lat="40.7175570" lon="-4.7385050">
        <ele>1159.5</ele>
        <time>2019-08-14T08:07:56Z</time>
      </trkpt>
      <trkpt lat="40.7175760" lon="-4.7385370">
        <ele>1159.6</ele>
        <time>2019-08-14T08:07:57Z</time>
      </trkpt>
      <trkpt lat="40.7175950" lon="-4.7385700">
        <ele>1159.7</ele>
        <time>2019-08-14T08:07:58Z</time>
      </trkpt>
      <trkpt lat="40.7176130" lon="-4.7386010">
        <ele>1159.8</ele>
        <time>2019-08-14T08:07:59Z</time>
      </trkpt>
      <trkpt lat="40.7176320" lon="-4.7386340">
        <ele>1160.0</ele>
        <time>2019-08-14T08:08:00Z</time>
      </trkpt>
      <trkpt lat="40.7176520" lon="-4.7386680">
        <ele>1160.1</ele>
        <time>2019-08-14T08:08:01Z</time>
      </trkpt>
      <trkpt lat="40.7176700" lon="-4.7387040">
        <ele>1160.2</ele>
        <time>2019-08-14T08:08:02Z</time>
      </trkpt>
      <trkpt lat="40.7176870" lon="-4.7387400">
        <ele>1160.4</ele>
        <time>2019-08-14T08:08:03Z</time>
      </trkpt>
      <trkpt lat="40.7177040" lon="-4.7387760">
        <ele>1160.5</ele>
        <time>2019-08-14T08:08:04Z</time>
      </trkpt>
      <trkpt lat="40.7177230" lon="-4.7388130">
        <ele>1160.6</ele>
        <time>2019-08-14T08:08:05Z</time>
      </trkpt>
      <trkpt lat="40.7177430" lon="-4.7388480">
        <ele>1160.6</ele>
        <time>2019-08-14T08:08:06Z</time>
      </trkpt>
      <trkpt lat="40.7177630" lon="-4.7388820">
        <ele>1160.7</ele>
        <time>2019-08-14T08:08:07Z</time>
      </trkpt>
      <trkpt lat="40.7177840" lon="-4.7389140">
        <ele>1160.8</ele>
        <time>2019-08-14T08:08:08Z</time>
      </trkpt>
      <trkpt lat="40.7178020" lon="-4.7389490">
        <ele>1160.9</ele>
        <time>2019-08-14T08:08:09Z</time>
      </trkpt>
      <trkpt lat="40.7178170" lon="-4.7389840">
        <ele>1161.0</ele>
        <time>2019-08-14T08:08:10Z</time>
      </trkpt>
      <trkpt lat="40.7178330" lon="-4.7390180">
        <ele>1161.1</ele>
        <time>2019-08-14T08:08:11Z</time>
      </trkpt>
      <trkpt lat="40.7178470" lon="-4.7390530">
        <ele>1161.2</ele>
        <time>2019-08-14T08:08:12Z</time>
      </trkpt>
      <trkpt lat="40.7178630" lon="-4.7390880">
        <ele>1161.4</ele>
        <time>2019-08-14T08:08:13Z</time>
      </trkpt>
      <trkpt lat="40.7178790" lon="-4.7391240">
        <ele>1161.5</ele>
        <time>2019-08-14T08:08:14Z</time>
      </trkpt>
      <trkpt lat="40.7178960" lon="-4.7391610">
        <ele>1161.7</ele>
        <time>2019-08-14T08:08:15Z</time>
      </trkpt>
      <trkpt lat="40.7179130" lon="-4.7391970">
        <ele>1161.8</ele>
        <time>2019-08-14T08:08:16Z</time>
      </trkpt>
      <trkpt lat="40.7179310" lon="-4.7392320">
        <ele>1161.9</ele>
        <time>2019-08-14T08:08:17Z</time>
      </trkpt>
      <trkpt lat="40.7179500" lon="-4.7392670">
        <ele>1162.0</ele>
        <time>2019-08-14T08:08:18Z</time>
      </trkpt>
      <trkpt lat="40.7179680" lon="-4.7393010">
        <ele>1162.1</ele>
        <time>2019-08-14T08:08:19Z</time>
      </trkpt>
      <trkpt lat="40.7179870" lon="-4.7393350">
        <ele>1162.1</ele>
        <time>2019-08-14T08:08:20Z</time>
      </trkpt>
      <trkpt lat="40.7180060" lon="-4.7393690">
        <ele>1162.2</ele>
        <time>2019-08-14T08:08:21Z</time>
      </trkpt>
      <trkpt lat="40.7180250" lon="-4.7394020">
        <ele>1162.2</ele>
        <time>2019-08-14T08:08:22Z</time>
      </trkpt>
      <trkpt lat="40.7180470" lon="-4.7394320">
        <ele>1162.3</ele>
        <time>2019-08-14T08:08:23Z</time>
      </trkpt>
      <trkpt lat="40.7180700" lon="-4.7394600">
        <ele>1162.3</ele>
        <time>2019-08-14T08:08:24Z</time>
      </trkpt>
      <trkpt lat="40.7180940" lon="-4.7394860">
        <ele>1162.4</ele>
        <time>2019-08-14T08:08:25Z</time>
      </trkpt>
      <trkpt lat="40.7181190" lon="-4.7395120">
        <ele>1162.4</ele>
        <time>2019-08-14T08:08:26Z</time>
      </trkpt>
      <trkpt lat="40.7181440" lon="-4.7395380">
        <ele>1162.4</ele>
        <time>2019-08-14T08:08:27Z</time>
      </trkpt>
      <trkpt lat="40.7181680" lon="-4.7395630">
        <ele>1162.4</ele>
        <time>2019-08-14T08:08:28Z</time>
      </trkpt>
      <trkpt lat="40.7181930" lon="-4.7395870">
        <ele>1162.6</ele>
        <time>2019-08-14T08:08:29Z</time>
      </trkpt>
      <trkpt lat="40.7182170" lon="-4.7396110">
        <ele>1162.8</ele>
        <time>2019-08-14T08:08:30Z</time>
      </trkpt>
      <trkpt lat="40.7182370" lon="-4.7396370">
        <ele>1163.0</ele>
        <time>2019-08-14T08:08:31Z</time>
      </trkpt>
      <trkpt lat="40.7182680" lon="-4.7396910">
        <ele>1163.4</ele>
        <time>2019-08-14T08:08:33Z</time>
      </trkpt>
      <trkpt lat="40.7182940" lon="-4.7397480">
        <ele>1163.7</ele>
        <time>2019-08-14T08:08:35Z</time>
      </trkpt>
      <trkpt lat="40.7183280" lon="-4.7397950">
        <ele>1164.0</ele>
        <time>2019-08-14T08:08:37Z</time>
      </trkpt>
      <trkpt lat="40.7183540" lon="-4.7398120">
        <ele>1164.2</ele>
        <time>2019-08-14T08:08:38Z</time>
      </trkpt>
      <trkpt lat="40.7183830" lon="-4.7398270">
        <ele>1164.4</ele>
        <time>2019-08-14T08:08:39Z</time>
      </trkpt>
      <trkpt lat="40.7184110" lon="-4.7398440">
        <ele>1164.5</ele>
        <time>2019-08-14T08:08:40Z</time>
      </trkpt>
      <trkpt lat="40.7184370" lon="-4.7398600">
        <ele>1164.7</ele>
        <time>2019-08-14T08:08:41Z</time>
      </trkpt>
      <trkpt lat="40.7184630" lon="-4.7398770">
        <ele>1164.8</ele>
        <time>2019-08-14T08:08:42Z</time>
      </trkpt>
      <trkpt lat="40.7184890" lon="-4.7398940">
        <ele>1165.0</ele>
        <time>2019-08-14T08:08:43Z</time>
      </trkpt>
      <trkpt lat="40.7185140" lon="-4.7399130">
        <ele>1165.1</ele>
        <time>2019-08-14T08:08:44Z</time>
      </trkpt>
      <trkpt lat="40.7185380" lon="-4.7399340">
        <ele>1165.2</ele>
        <time>2019-08-14T08:08:45Z</time>
      </trkpt>
      <trkpt lat="40.7185620" lon="-4.7399580">
        <ele>1165.3</ele>
        <time>2019-08-14T08:08:46Z</time>
      </trkpt>
      <trkpt lat="40.7185860" lon="-4.7399810">
        <ele>1165.4</ele>
        <time>2019-08-14T08:08:47Z</time>
      </trkpt>
      <trkpt lat="40.7186100" lon="-4.7400040">
        <ele>1165.5</ele>
        <time>2019-08-14T08:08:48Z</time>
      </trkpt>
      <trkpt lat="40.7186350" lon="-4.7400250">
        <ele>1165.6</ele>
        <time>2019-08-14T08:08:49Z</time>
      </trkpt>
      <trkpt lat="40.7186590" lon="-4.7400450">
        <ele>1165.7</ele>
        <time>2019-08-14T08:08:50Z</time>
      </trkpt>
      <trkpt lat="40.7186850" lon="-4.7400640">
        <ele>1165.9</ele>
        <time>2019-08-14T08:08:51Z</time>
      </trkpt>
      <trkpt lat="40.7187100" lon="-4.7400830">
        <ele>1166.1</ele>
        <time>2019-08-14T08:08:52Z</time>
      </trkpt>
      <trkpt lat="40.7187380" lon="-4.7401020">
        <ele>1166.2</ele>
        <time>2019-08-14T08:08:53Z</time>
      </trkpt>
      <trkpt lat="40.7187660" lon="-4.7401190">
        <ele>1166.2</ele>
        <time>2019-08-14T08:08:54Z</time>
      </trkpt>
      <trkpt lat="40.7187950" lon="-4.7401350">
        <ele>1166.3</ele>
        <time>2019-08-14T08:08:55Z</time>
      </trkpt>
      <trkpt lat="40.7188210" lon="-4.7401540">
        <ele>1166.4</ele>
        <time>2019-08-14T08:08:56Z</time>
      </trkpt>
      <trkpt lat="40.7188460" lon="-4.7401730">
        <ele>1166.5</ele>
        <time>2019-08-14T08:08:57Z</time>
      </trkpt>
      <trkpt lat="40.7188710" lon="-4.7401910">
        <ele>1166.5</ele>
        <time>2019-08-14T08:08:58Z</time>
      </trkpt>
      <trkpt lat="40.7189170" lon="-4.7402240">
        <ele>1166.7</ele>
        <time>2019-08-14T08:09:00Z</time>
      </trkpt>
      <trkpt lat="40.7189600" lon="-4.7402640">
        <ele>1166.8</ele>
        <time>2019-08-14T08:09:02Z</time>
      </trkpt>
      <trkpt lat="40.7189830" lon="-4.7402830">
        <ele>1166.9</ele>
        <time>2019-08-14T08:09:03Z</time>
      </trkpt>
      <trkpt lat="40.7190080" lon="-4.7403010">
        <ele>1166.9</ele>
        <time>2019-08-14T08:09:04Z</time>
      </trkpt>
      <trkpt lat="40.7190540" lon="-4.7403360">
        <ele>1167.1</ele>
        <time>2019-08-14T08:09:06Z</time>
      </trkpt>
      <trkpt lat="40.7190780" lon="-4.7403560">
        <ele>1167.1</ele>
        <time>2019-08-14T08:09:07Z</time>
      </trkpt>
      <trkpt lat="40.7191040" lon="-4.7403730">
        <ele>1167.2</ele>
        <time>2019-08-14T08:09:08Z</time>
      </trkpt>
      <trkpt lat="40.7191300" lon="-4.7403900">
        <ele>1167.3</ele>
        <time>2019-08-14T08:09:09Z</time>
      </trkpt>
      <trkpt lat="40.7191580" lon="-4.7404080">
        <ele>1167.4</ele>
        <time>2019-08-14T08:09:10Z</time>
      </trkpt>
      <trkpt lat="40.7191870" lon="-4.7404260">
        <ele>1167.6</ele>
        <time>2019-08-14T08:09:11Z</time>
      </trkpt>
      <trkpt lat="40.7192150" lon="-4.7404460">
        <ele>1167.7</ele>
        <time>2019-08-14T08:09:12Z</time>
      </trkpt>
      <trkpt lat="40.7192440" lon="-4.7404680">
        <ele>1167.9</ele>
        <time>2019-08-14T08:09:13Z</time>
      </trkpt>
      <trkpt lat="40.7192730" lon="-4.7404920">
        <ele>1168.1</ele>
        <time>2019-08-14T08:09:14Z</time>
      </trkpt>
      <trkpt lat="40.7193000" lon="-4.7405180">
        <ele>1168.3</ele>
        <time>2019-08-14T08:09:15Z</time>
      </trkpt>
      <trkpt lat="40.7193270" lon="-4.7405450">
        <ele>1168.4</ele>
        <time>2019-08-14T08:09:16Z</time>
      </trkpt>
      <trkpt lat="40.7193520" lon="-4.7405730">
        <ele>1168.6</ele>
        <time>2019-08-14T08:09:17Z</time>
      </trkpt>
      <trkpt lat="40.7193750" lon="-4.7406030">
        <ele>1168.7</ele>
        <time>2019-08-14T08:09:18Z</time>
      </trkpt>
      <trkpt lat="40.7193960" lon="-4.7406350">
        <ele>1168.9</ele>
        <time>2019-08-14T08:09:19Z</time>
      </trkpt>
      <trkpt lat="40.7194140" lon="-4.7406660">
        <ele>1169.0</ele>
        <time>2019-08-14T08:09:20Z</time>
      </trkpt>
      <trkpt lat="40.7194310" lon="-4.7406960">
        <ele>1169.1</ele>
        <time>2019-08-14T08:09:21Z</time>
      </trkpt>
      <trkpt lat="40.7194500" lon="-4.7407220">
        <ele>1169.2</ele>
        <time>2019-08-14T08:09:22Z</time>
      </trkpt>
      <trkpt lat="40.7194870" lon="-4.7407720">
        <ele>1169.4</ele>
        <time>2019-08-14T08:09:24Z</time>
      </trkpt>
      <trkpt lat="40.7195120" lon="-4.7408310">
        <ele>1169.6</ele>
        <time>2019-08-14T08:09:26Z</time>
      </trkpt>
      <trkpt lat="40.7195290" lon="-4.7408930">
        <ele>1169.7</ele>
        <time>2019-08-14T08:09:28Z</time>
      </trkpt>
      <trkpt lat="40.7195500" lon="-4.7409440">
        <ele>1169.8</ele>
        <time>2019-08-14T08:09:30Z</time>
      </trkpt>
      <trkpt lat="40.7195750" lon="-4.7409850">
        <ele>1169.9</ele>
        <time>2019-08-14T08:09:32Z</time>
      </trkpt>
      <trkpt lat="40.7196090" lon="-4.7410160">
        <ele>1170.0</ele>
        <time>2019-08-14T08:09:34Z</time>
      </trkpt>
      <trkpt lat="40.7196440" lon="-4.7410310">
        <ele>1170.0</ele>
        <time>2019-08-14T08:09:36Z</time>
      </trkpt>
      <trkpt lat="40.7196820" lon="-4.7410340">
        <ele>1169.9</ele>
        <time>2019-08-14T08:09:38Z</time>
      </trkpt>
      <trkpt lat="40.7197230" lon="-4.7410320">
        <ele>1169.9</ele>
        <time>2019-08-14T08:09:40Z</time>
      </trkpt>
      <trkpt lat="40.7197690" lon="-4.7410290">
        <ele>1169.8</ele>
        <time>2019-08-14T08:09:42Z</time>
      </trkpt>
      <trkpt lat="40.7198220" lon="-4.7410390">
        <ele>1169.7</ele>
        <time>2019-08-14T08:09:44Z</time>
      </trkpt>
      <trkpt lat="40.7198480" lon="-4.7410480">
        <ele>1169.6</ele>
        <time>2019-08-14T08:09:45Z</time>
      </trkpt>
      <trkpt lat="40.7198740" lon="-4.7410630">
        <ele>1169.6</ele>
        <time>2019-08-14T08:09:46Z</time>
      </trkpt>
      <trkpt lat="40.7198970" lon="-4.7410830">
        <ele>1169.5</ele>
        <time>2019-08-14T08:09:47Z</time>
      </trkpt>
      <trkpt lat="40.7199200" lon="-4.7411040">
        <ele>1169.5</ele>
        <time>2019-08-14T08:09:48Z</time>
      </trkpt>
      <trkpt lat="40.7199440" lon="-4.7411230">
        <ele>1169.4</ele>
        <time>2019-08-14T08:09:49Z</time>
      </trkpt>
      <trkpt lat="40.7199700" lon="-4.7411390">
        <ele>1169.4</ele>
        <time>2019-08-14T08:09:50Z</time>
      </trkpt>
      <trkpt lat="40.7199980" lon="-4.7411560">
        <ele>1169.3</ele>
        <time>2019-08-14T08:09:51Z</time>
      </trkpt>
      <trkpt lat="40.7200280" lon="-4.7411750">
        <ele>1169.3</ele>
        <time>2019-08-14T08:09:52Z</time>
      </trkpt>
      <trkpt lat="40.7200580" lon="-4.7411920">
        <ele>1169.4</ele>
        <time>2019-08-14T08:09:53Z</time>
      </trkpt>
      <trkpt lat="40.7200890" lon="-4.7412070">
        <ele>1169.4</ele>
        <time>2019-08-14T08:09:54Z</time>
      </trkpt>
      <trkpt lat="40.7201200" lon="-4.7412180">
        <ele>1169.4</ele>
        <time>2019-08-14T08:09:55Z</time>
      </trkpt>
      <trkpt lat="40.7201510" lon="-4.7412250">
        <ele>1169.4</ele>
        <time>2019-08-14T08:09:56Z</time>
      </trkpt>
      <trkpt lat="40.7201820" lon="-4.7412330">
        <ele>1169.4</ele>
        <time>2019-08-14T08:09:57Z</time>
      </trkpt>
      <trkpt lat="40.7202110" lon="-4.7412440">
        <ele>1169.5</ele>
        <time>2019-08-14T08:09:58Z</time>
      </trkpt>
      <trkpt lat="40.7202380" lon="-4.7412600">
        <ele>1169.6</ele>
        <time>2019-08-14T08:09:59Z</time>
      </trkpt>
      <trkpt lat="40.7202600" lon="-4.7412820">
        <ele>1169.7</ele>
        <time>2019-08-14T08:10:00Z</time>
      </trkpt>
      <trkpt lat="40.7202920" lon="-4.7413300">
        <ele>1170.1</ele>
        <time>2019-08-14T08:10:02Z</time>
      </trkpt>
      <trkpt lat="40.7203230" lon="-4.7413850">
        <ele>1170.6</ele>
        <time>2019-08-14T08:10:04Z</time>
      </trkpt>
      <trkpt lat="40.7203350" lon="-4.7414200">
        <ele>1170.9</ele>
        <time>2019-08-14T08:10:05Z</time>
      </trkpt>
      <trkpt lat="40.7203420" lon="-4.7414570">
        <ele>1171.0</ele>
        <time>2019-08-14T08:10:06Z</time>
      </trkpt>
      <trkpt lat="40.7203460" lon="-4.7414920">
        <ele>1171.2</ele>
        <time>2019-08-14T08:10:07Z</time>
      </trkpt>
      <trkpt lat="40.7203450" lon="-4.7415600">
        <ele>1171.5</ele>
        <time>2019-08-14T08:10:09Z</time>
      </trkpt>
      <trkpt lat="40.7203430" lon="-4.7416240">
        <ele>1171.8</ele>
        <time>2019-08-14T08:10:11Z</time>
      </trkpt>
      <trkpt lat="40.7203420" lon="-4.7416870">
        <ele>1172.1</ele>
        <time>2019-08-14T08:10:13Z</time>
      </trkpt>
      <trkpt lat="40.7203350" lon="-4.7417470">
        <ele>1172.5</ele>
        <time>2019-08-14T08:10:15Z</time>
      </trkpt>
      <trkpt lat="40.7203320" lon="-4.7418080">
        <ele>1172.9</ele>
        <time>2019-08-14T08:10:17Z</time>
      </trkpt>
      <trkpt lat="40.7203270" lon="-4.7418730">
        <ele>1173.4</ele>
        <time>2019-08-14T08:10:19Z</time>
      </trkpt>
      <trkpt lat="40.7203240" lon="-4.7419420">
        <ele>1173.8</ele>
        <time>2019-08-14T08:10:21Z</time>
      </trkpt>
      <trkpt lat="40.7203210" lon="-4.7420100">
        <ele>1174.1</ele>
        <time>2019-08-14T08:10:23Z</time>
      </trkpt>
      <trkpt lat="40.7203140" lon="-4.7420800">
        <ele>1174.5</ele>
        <time>2019-08-14T08:10:25Z</time>
      </trkpt>
      <trkpt lat="40.7203100" lon="-4.7421160">
        <ele>1174.8</ele>
        <time>2019-08-14T08:10:26Z</time>
      </trkpt>
      <trkpt lat="40.7203000" lon="-4.7421820">
        <ele>1175.2</ele>
        <time>2019-08-14T08:10:28Z</time>
      </trkpt>
      <trkpt lat="40.7202930" lon="-4.7422460">
        <ele>1175.9</ele>
        <time>2019-08-14T08:10:30Z</time>
      </trkpt>
      <trkpt lat="40.7202990" lon="-4.7423090">
        <ele>1176.1</ele>
        <time>2019-08-14T08:10:32Z</time>
      </trkpt>
      <trkpt lat="40.7203340" lon="-4.7423560">
        <ele>1176.3</ele>
        <time>2019-08-14T08:10:34Z</time>
      </trkpt>
      <trkpt lat="40.7203720" lon="-4.7423980">
        <ele>1176.5</ele>
        <time>2019-08-14T08:10:36Z</time>
      </trkpt>
      <trkpt lat="40.7204090" lon="-4.7424400">
        <ele>1176.7</ele>
        <time>2019-08-14T08:10:38Z</time>
      </trkpt>
      <trkpt lat="40.7204490" lon="-4.7424790">
        <ele>1176.8</ele>
        <time>2019-08-14T08:10:40Z</time>
      </trkpt>
      <trkpt lat="40.7204860" lon="-4.7425210">
        <ele>1176.9</ele>
        <time>2019-08-14T08:10:42Z</time>
      </trkpt>
      <trkpt lat="40.7205110" lon="-4.7425770">
        <ele>1177.0</ele>
        <time>2019-08-14T08:10:44Z</time>
      </trkpt>
      <trkpt lat="40.7205380" lon="-4.7426320">
        <ele>1177.1</ele>
        <time>2019-08-14T08:10:46Z</time>
      </trkpt>
      <trkpt lat="40.7205730" lon="-4.7426840">
        <ele>1177.2</ele>
        <time>2019-08-14T08:10:48Z</time>
      </trkpt>
      <trkpt lat="40.7205930" lon="-4.7427080">
        <ele>1177.3</ele>
        <time>2019-08-14T08:10:49Z</time>
      </trkpt>
      <trkpt lat="40.7206170" lon="-4.7427310">
        <ele>1177.3</ele>
        <time>2019-08-14T08:10:50Z</time>
      </trkpt>
      <trkpt lat="40.7206420" lon="-4.7427490">
        <ele>1177.3</ele>
        <time>2019-08-14T08:10:51Z</time>
      </trkpt>
      <trkpt lat="40.7206690" lon="-4.7427610">
        <ele>1177.4</ele>
        <time>2019-08-14T08:10:52Z</time>
      </trkpt>
      <trkpt lat="40.7206960" lon="-4.7427700">
        <ele>1177.4</ele>
        <time>2019-08-14T08:10:53Z</time>
      </trkpt>
      <trkpt lat="40.7207220" lon="-4.7427820">
        <ele>1177.4</ele>
        <time>2019-08-14T08:10:54Z</time>
      </trkpt>
      <trkpt lat="40.7207480" lon="-4.7427970">
        <ele>1177.4</ele>
        <time>2019-08-14T08:10:55Z</time>
      </trkpt>
      <trkpt lat="40.7207760" lon="-4.7428110">
        <ele>1177.5</ele>
        <time>2019-08-14T08:10:56Z</time>
      </trkpt>
      <trkpt lat="40.7208050" lon="-4.7428250">
        <ele>1177.5</ele>
        <time>2019-08-14T08:10:57Z</time>
      </trkpt>
      <trkpt lat="40.7208360" lon="-4.7428380">
        <ele>1177.5</ele>
        <time>2019-08-14T08:10:58Z</time>
      </trkpt>
      <trkpt lat="40.7208670" lon="-4.7428520">
        <ele>1177.6</ele>
        <time>2019-08-14T08:10:59Z</time>
      </trkpt>
      <trkpt lat="40.7208980" lon="-4.7428660">
        <ele>1177.6</ele>
        <time>2019-08-14T08:11:00Z</time>
      </trkpt>
      <trkpt lat="40.7209310" lon="-4.7428780">
        <ele>1177.6</ele>
        <time>2019-08-14T08:11:01Z</time>
      </trkpt>
      <trkpt lat="40.7209650" lon="-4.7428900">
        <ele>1177.6</ele>
        <time>2019-08-14T08:11:02Z</time>
      </trkpt>
      <trkpt lat="40.7209990" lon="-4.7429000">
        <ele>1177.6</ele>
        <time>2019-08-14T08:11:03Z</time>
      </trkpt>
      <trkpt lat="40.7210350" lon="-4.7429120">
        <ele>1177.6</ele>
        <time>2019-08-14T08:11:04Z</time>
      </trkpt>
      <trkpt lat="40.7210710" lon="-4.7429250">
        <ele>1177.6</ele>
        <time>2019-08-14T08:11:05Z</time>
      </trkpt>
      <trkpt lat="40.7211070" lon="-4.7429380">
        <ele>1177.5</ele>
        <time>2019-08-14T08:11:06Z</time>
      </trkpt>
      <trkpt lat="40.7211430" lon="-4.7429500">
        <ele>1177.5</ele>
        <time>2019-08-14T08:11:07Z</time>
      </trkpt>
      <trkpt lat="40.7211790" lon="-4.7429590">
        <ele>1177.5</ele>
        <time>2019-08-14T08:11:08Z</time>
      </trkpt>
      <trkpt lat="40.7212160" lon="-4.7429660">
        <ele>1177.5</ele>
        <time>2019-08-14T08:11:09Z</time>
      </trkpt>
      <trkpt lat="40.7212520" lon="-4.7429700">
        <ele>1177.5</ele>
        <time>2019-08-14T08:11:10Z</time>
      </trkpt>
      <trkpt lat="40.7212890" lon="-4.7429730">
        <ele>1177.4</ele>
        <time>2019-08-14T08:11:11Z</time>
      </trkpt>
      <trkpt lat="40.7213270" lon="-4.7429750">
        <ele>1177.4</ele>
        <time>2019-08-14T08:11:12Z</time>
      </trkpt>
      <trkpt lat="40.7213620" lon="-4.7429760">
        <ele>1177.4</ele>
        <time>2019-08-14T08:11:13Z</time>
      </trkpt>
      <trkpt lat="40.7213970" lon="-4.7429780">
        <ele>1177.3</ele>
        <time>2019-08-14T08:11:14Z</time>
      </trkpt>
      <trkpt lat="40.7214310" lon="-4.7429850">
        <ele>1177.2</ele>
        <time>2019-08-14T08:11:15Z</time>
      </trkpt>
      <trkpt lat="40.7214660" lon="-4.7429960">
        <ele>1177.2</ele>
        <time>2019-08-14T08:11:16Z</time>
      </trkpt>
      <trkpt lat="40.7215000" lon="-4.7430150">
        <ele>1177.1</ele>
        <time>2019-08-14T08:11:17Z</time>
      </trkpt>
      <trkpt lat="40.7215290" lon="-4.7430420">
        <ele>1177.1</ele>
        <time>2019-08-14T08:11:18Z</time>
      </trkpt>
      <trkpt lat="40.7215530" lon="-4.7430740">
        <ele>1177.0</ele>
        <time>2019-08-14T08:11:19Z</time>
      </trkpt>
      <trkpt lat="40.7215760" lon="-4.7431040">
        <ele>1176.9</ele>
        <time>2019-08-14T08:11:20Z</time>
      </trkpt>
      <trkpt lat="40.7215990" lon="-4.7431280">
        <ele>1176.9</ele>
        <time>2019-08-14T08:11:21Z</time>
      </trkpt>
      <trkpt lat="40.7216450" lon="-4.7431640">
        <ele>1176.8</ele>
        <time>2019-08-14T08:11:23Z</time>
      </trkpt>
      <trkpt lat="40.7216990" lon="-4.7431540">
        <ele>1176.7</ele>
        <time>2019-08-14T08:11:25Z</time>
      </trkpt>
      <trkpt lat="40.7217270" lon="-4.7431380">
        <ele>1176.6</ele>
        <time>2019-08-14T08:11:26Z</time>
      </trkpt>
      <trkpt lat="40.7217620" lon="-4.7431270">
        <ele>1176.5</ele>
        <time>2019-08-14T08:11:27Z</time>
      </trkpt>
      <trkpt lat="40.7218010" lon="-4.7431270">
        <ele>1176.5</ele>
        <time>2019-08-14T08:11:28Z</time>
      </trkpt>
      <trkpt lat="40.7218400" lon="-4.7431350">
        <ele>1176.4</ele>
        <time>2019-08-14T08:11:29Z</time>
      </trkpt>
      <trkpt lat="40.7218760" lon="-4.7431480">
        <ele>1176.4</ele>
        <time>2019-08-14T08:11:30Z</time>
      </trkpt>
      <trkpt lat="40.7219090" lon="-4.7431660">
        <ele>1176.3</ele>
        <time>2019-08-14T08:11:31Z</time>
      </trkpt>
      <trkpt lat="40.7219410" lon="-4.7431840">
        <ele>1176.3</ele>
        <time>2019-08-14T08:11:32Z</time>
      </trkpt>
      <trkpt lat="40.7219740" lon="-4.7431980">
        <ele>1176.2</ele>
        <time>2019-08-14T08:11:33Z</time>
      </trkpt>
      <trkpt lat="40.7220080" lon="-4.7431980">
        <ele>1176.2</ele>
        <time>2019-08-14T08:11:34Z</time>
      </trkpt>
      <trkpt lat="40.7220440" lon="-4.7431800">
        <ele>1176.1</ele>
        <time>2019-08-14T08:11:35Z</time>
      </trkpt>
      <trkpt lat="40.7220830" lon="-4.7431530">
        <ele>1175.0</ele>
        <time>2019-08-14T08:11:36Z</time>
      </trkpt>
      <trkpt lat="40.7221270" lon="-4.7431230">
        <ele>1174.6</ele>
        <time>2019-08-14T08:11:37Z</time>
      </trkpt>
      <trkpt lat="40.7221750" lon="-4.7430950">
        <ele>1174.2</ele>
        <time>2019-08-14T08:11:38Z</time>
      </trkpt>
      <trkpt lat="40.7222260" lon="-4.7430670">
        <ele>1173.7</ele>
        <time>2019-08-14T08:11:39Z</time>
      </trkpt>
      <trkpt lat="40.7222790" lon="-4.7430400">
        <ele>1173.4</ele>
        <time>2019-08-14T08:11:40Z</time>
      </trkpt>
      <trkpt lat="40.7223330" lon="-4.7430160">
        <ele>1173.1</ele>
        <time>2019-08-14T08:11:41Z</time>
      </trkpt>
      <trkpt lat="40.7223860" lon="-4.7429920">
        <ele>1172.8</ele>
        <time>2019-08-14T08:11:42Z</time>
      </trkpt>
      <trkpt lat="40.7224360" lon="-4.7429680">
        <ele>1172.5</ele>
        <time>2019-08-14T08:11:43Z</time>
      </trkpt>
      <trkpt lat="40.7224840" lon="-4.7429450">
        <ele>1172.2</ele>
        <time>2019-08-14T08:11:44Z</time>
      </trkpt>
      <trkpt lat="40.7225300" lon="-4.7429190">
        <ele>1171.9</ele>
        <time>2019-08-14T08:11:45Z</time>
      </trkpt>
      <trkpt lat="40.7225750" lon="-4.7428940">
        <ele>1171.7</ele>
        <time>2019-08-14T08:11:46Z</time>
      </trkpt>
      <trkpt lat="40.7226170" lon="-4.7428730">
        <ele>1171.4</ele>
        <time>2019-08-14T08:11:47Z</time>
      </trkpt>
      <trkpt lat="40.7226570" lon="-4.7428530">
        <ele>1171.2</ele>
        <time>2019-08-14T08:11:48Z</time>
      </trkpt>
      <trkpt lat="40.7226940" lon="-4.7428380">
        <ele>1171.0</ele>
        <time>2019-08-14T08:11:49Z</time>
      </trkpt>
      <trkpt lat="40.7227310" lon="-4.7428330">
        <ele>1170.8</ele>
        <time>2019-08-14T08:11:50Z</time>
      </trkpt>
      <trkpt lat="40.7227620" lon="-4.7428380">
        <ele>1170.6</ele>
        <time>2019-08-14T08:11:51Z</time>
      </trkpt>
      <trkpt lat="40.7227990" lon="-4.7428550">
        <ele>1170.4</ele>
        <time>2019-08-14T08:11:53Z</time>
      </trkpt>
      <trkpt lat="40.7228450" lon="-4.7427740">
        <ele>1170.3</ele>
        <time>2019-08-14T08:12:13Z</time>
      </trkpt>
      <trkpt lat="40.7228850" lon="-4.7427310">
        <ele>1170.3</ele>
        <time>2019-08-14T08:12:15Z</time>
      </trkpt>
      <trkpt lat="40.7229090" lon="-4.7427140">
        <ele>1170.3</ele>
        <time>2019-08-14T08:12:16Z</time>
      </trkpt>
      <trkpt lat="40.7229410" lon="-4.7426970">
        <ele>1170.3</ele>
        <time>2019-08-14T08:12:18Z</time>
      </trkpt>
      <trkpt lat="40.7228670" lon="-4.7427610">
        <ele>1170.3</ele>
        <time>2019-08-14T08:12:40Z</time>
      </trkpt>
      <trkpt lat="40.7228430" lon="-4.7427810">
        <ele>1170.3</ele>
        <time>2019-08-14T08:12:41Z</time>
      </trkpt>
      <trkpt lat="40.7228170" lon="-4.7428000">
        <ele>1170.3</ele>
        <time>2019-08-14T08:12:42Z</time>
      </trkpt>
      <trkpt lat="40.7227900" lon="-4.7428140">
        <ele>1170.4</ele>
        <time>2019-08-14T08:12:43Z</time>
      </trkpt>
      <trkpt lat="40.7227620" lon="-4.7428280">
        <ele>1170.6</ele>
        <time>2019-08-14T08:12:44Z</time>
      </trkpt>
      <trkpt lat="40.7227310" lon="-4.7428370">
        <ele>1170.7</ele>
        <time>2019-08-14T08:12:45Z</time>
      </trkpt>
      <trkpt lat="40.7226980" lon="-4.7428480">
        <ele>1170.9</ele>
        <time>2019-08-14T08:12:46Z</time>
      </trkpt>
      <trkpt lat="40.7226650" lon="-4.7428620">
        <ele>1171.0</ele>
        <time>2019-08-14T08:12:47Z</time>
      </trkpt>
      <trkpt lat="40.7226310" lon="-4.7428780">
        <ele>1171.2</ele>
        <time>2019-08-14T08:12:48Z</time>
      </trkpt>
      <trkpt lat="40.7226000" lon="-4.7428940">
        <ele>1171.3</ele>
        <time>2019-08-14T08:12:49Z</time>
      </trkpt>
      <trkpt lat="40.7225680" lon="-4.7429090">
        <ele>1171.5</ele>
        <time>2019-08-14T08:12:50Z</time>
      </trkpt>
      <trkpt lat="40.7225370" lon="-4.7429240">
        <ele>1171.6</ele>
        <time>2019-08-14T08:12:51Z</time>
      </trkpt>
      <trkpt lat="40.7225060" lon="-4.7429380">
        <ele>1171.7</ele>
        <time>2019-08-14T08:12:52Z</time>
      </trkpt>
      <trkpt lat="40.7224760" lon="-4.7429520">
        <ele>1171.9</ele>
        <time>2019-08-14T08:12:53Z</time>
      </trkpt>
      <trkpt lat="40.7224460" lon="-4.7429670">
        <ele>1172.0</ele>
        <time>2019-08-14T08:12:54Z</time>
      </trkpt>
      <trkpt lat="40.7224160" lon="-4.7429810">
        <ele>1172.1</ele>
        <time>2019-08-14T08:12:55Z</time>
      </trkpt>
      <trkpt lat="40.7223860" lon="-4.7429950">
        <ele>1172.3</ele>
        <time>2019-08-14T08:12:56Z</time>
      </trkpt>
      <trkpt lat="40.7223560" lon="-4.7430100">
        <ele>1172.4</ele>
        <time>2019-08-14T08:12:57Z</time>
      </trkpt>
      <trkpt lat="40.7223260" lon="-4.7430250">
        <ele>1172.5</ele>
        <time>2019-08-14T08:12:58Z</time>
      </trkpt>
      <trkpt lat="40.7222960" lon="-4.7430420">
        <ele>1172.7</ele>
        <time>2019-08-14T08:12:59Z</time>
      </trkpt>
      <trkpt lat="40.7222660" lon="-4.7430580">
        <ele>1172.8</ele>
        <time>2019-08-14T08:13:00Z</time>
      </trkpt>
      <trkpt lat="40.7222370" lon="-4.7430760">
        <ele>1173.0</ele>
        <time>2019-08-14T08:13:01Z</time>
      </trkpt>
      <trkpt lat="40.7222080" lon="-4.7430930">
        <ele>1173.1</ele>
        <time>2019-08-14T08:13:02Z</time>
      </trkpt>
      <trkpt lat="40.7221800" lon="-4.7431100">
        <ele>1173.2</ele>
        <time>2019-08-14T08:13:03Z</time>
      </trkpt>
      <trkpt lat="40.7221530" lon="-4.7431260">
        <ele>1173.4</ele>
        <time>2019-08-14T08:13:04Z</time>
      </trkpt>
      <trkpt lat="40.7221280" lon="-4.7431410">
        <ele>1173.5</ele>
        <time>2019-08-14T08:13:05Z</time>
      </trkpt>
      <trkpt lat="40.7220810" lon="-4.7431680">
        <ele>1173.7</ele>
        <time>2019-08-14T08:13:07Z</time>
      </trkpt>
      <trkpt lat="40.7220420" lon="-4.7431980">
        <ele>1174.0</ele>
        <time>2019-08-14T08:13:09Z</time>
      </trkpt>
      <trkpt lat="40.7220180" lon="-4.7431920">
        <ele>1174.2</ele>
        <time>2019-08-14T08:13:13Z</time>
      </trkpt>
      <trkpt lat="40.7220480" lon="-4.7431600">
        <ele>1174.5</ele>
        <time>2019-08-14T08:13:16Z</time>
      </trkpt>
      <trkpt lat="40.7220990" lon="-4.7431330">
        <ele>1174.9</ele>
        <time>2019-08-14T08:13:18Z</time>
      </trkpt>
      <trkpt lat="40.7221310" lon="-4.7431150">
        <ele>1174.6</ele>
        <time>2019-08-14T08:13:19Z</time>
      </trkpt>
      <trkpt lat="40.7221660" lon="-4.7430970">
        <ele>1174.2</ele>
        <time>2019-08-14T08:13:20Z</time>
      </trkpt>
      <trkpt lat="40.7222020" lon="-4.7430780">
        <ele>1173.9</ele>
        <time>2019-08-14T08:13:21Z</time>
      </trkpt>
      <trkpt lat="40.7222390" lon="-4.7430580">
        <ele>1173.6</ele>
        <time>2019-08-14T08:13:22Z</time>
      </trkpt>
      <trkpt lat="40.7222780" lon="-4.7430380">
        <ele>1173.3</ele>
        <time>2019-08-14T08:13:23Z</time>
      </trkpt>
      <trkpt lat="40.7223190" lon="-4.7430150">
        <ele>1173.1</ele>
        <time>2019-08-14T08:13:24Z</time>
      </trkpt>
      <trkpt lat="40.7223620" lon="-4.7429930">
        <ele>1172.8</ele>
        <time>2019-08-14T08:13:25Z</time>
      </trkpt>
      <trkpt lat="40.7224070" lon="-4.7429720">
        <ele>1172.6</ele>
        <time>2019-08-14T08:13:26Z</time>
      </trkpt>
      <trkpt lat="40.7224510" lon="-4.7429520">
        <ele>1172.3</ele>
        <time>2019-08-14T08:13:27Z</time>
      </trkpt>
      <trkpt lat="40.7224940" lon="-4.7429310">
        <ele>1172.1</ele>
        <time>2019-08-14T08:13:28Z</time>
      </trkpt>
      <trkpt lat="40.7225330" lon="-4.7429110">
        <ele>1171.9</ele>
        <time>2019-08-14T08:13:29Z</time>
      </trkpt>
      <trkpt lat="40.7225720" lon="-4.7428940">
        <ele>1171.6</ele>
        <time>2019-08-14T08:13:30Z</time>
      </trkpt>
      <trkpt lat="40.7226080" lon="-4.7428770">
        <ele>1171.4</ele>
        <time>2019-08-14T08:13:31Z</time>
      </trkpt>
      <trkpt lat="40.7226420" lon="-4.7428620">
        <ele>1171.2</ele>
        <time>2019-08-14T08:13:32Z</time>
      </trkpt>
      <trkpt lat="40.7226720" lon="-4.7428490">
        <ele>1171.1</ele>
        <time>2019-08-14T08:13:33Z</time>
      </trkpt>
      <trkpt lat="40.7227000" lon="-4.7428390">
        <ele>1170.9</ele>
        <time>2019-08-14T08:13:34Z</time>
      </trkpt>
      <trkpt lat="40.7227440" lon="-4.7428140">
        <ele>1170.4</ele>
        <time>2019-08-14T08:13:36Z</time>
      </trkpt>
      <trkpt lat="40.7227800" lon="-4.7427880">
        <ele>1170.4</ele>
        <time>2019-08-14T08:13:38Z</time>
      </trkpt>
      <trkpt lat="40.7228180" lon="-4.7427650">
        <ele>1170.3</ele>
        <time>2019-08-14T08:13:40Z</time>
      </trkpt>
      <trkpt lat="40.7228560" lon="-4.7427480">
        <ele>1170.3</ele>
        <time>2019-08-14T08:13:42Z</time>
      </trkpt>
      <trkpt lat="40.7228890" lon="-4.7427290">
        <ele>1170.3</ele>
        <time>2019-08-14T08:13:44Z</time>
      </trkpt>
      <trkpt lat="40.7229190" lon="-4.7427160">
        <ele>1170.3</ele>
        <time>2019-08-14T08:13:46Z</time>
      </trkpt>
      <trkpt lat="40.7229380" lon="-4.7427130">
        <ele>1170.3</ele>
        <time>2019-08-14T08:13:53Z</time>
      </trkpt>
      <trkpt lat="40.7228670" lon="-4.7427750">
        <ele>1170.3</ele>
        <time>2019-08-14T08:14:03Z</time>
      </trkpt>
      <trkpt lat="40.7228340" lon="-4.7428150">
        <ele>1170.7</ele>
        <time>2019-08-14T08:14:05Z</time>
      </trkpt>
      <trkpt lat="40.7228170" lon="-4.7428690">
        <ele>1171.0</ele>
        <time>2019-08-14T08:14:07Z</time>
      </trkpt>
      <trkpt lat="40.7228200" lon="-4.7429120">
        <ele>1171.3</ele>
        <time>2019-08-14T08:14:09Z</time>
      </trkpt>
      <trkpt lat="40.7228300" lon="-4.7429530">
        <ele>1171.5</ele>
        <time>2019-08-14T08:14:11Z</time>
      </trkpt>
      <trkpt lat="40.7228430" lon="-4.7430020">
        <ele>1171.9</ele>
        <time>2019-08-14T08:14:13Z</time>
      </trkpt>
      <trkpt lat="40.7228540" lon="-4.7430550">
        <ele>1172.2</ele>
        <time>2019-08-14T08:14:15Z</time>
      </trkpt>
      <trkpt lat="40.7228650" lon="-4.7431120">
        <ele>1172.6</ele>
        <time>2019-08-14T08:14:17Z</time>
      </trkpt>
      <trkpt lat="40.7228750" lon="-4.7431630">
        <ele>1172.9</ele>
        <time>2019-08-14T08:14:19Z</time>
      </trkpt>
      <trkpt lat="40.7228860" lon="-4.7432120">
        <ele>1173.2</ele>
        <time>2019-08-14T08:14:21Z</time>
      </trkpt>
      <trkpt lat="40.7228990" lon="-4.7432590">
        <ele>1173.5</ele>
        <time>2019-08-14T08:14:23Z</time>
      </trkpt>
      <trkpt lat="40.7229110" lon="-4.7433050">
        <ele>1173.8</ele>
        <time>2019-08-14T08:14:25Z</time>
      </trkpt>
      <trkpt lat="40.7229240" lon="-4.7433500">
        <ele>1174.1</ele>
        <time>2019-08-14T08:14:27Z</time>
      </trkpt>
      <trkpt lat="40.7229740" lon="-4.7434930">
        <ele>1175.1</ele>
        <time>2019-08-14T08:14:32Z</time>
      </trkpt>
      <trkpt lat="40.7229970" lon="-4.7435420">
        <ele>1175.4</ele>
        <time>2019-08-14T08:14:33Z</time>
      </trkpt>
      <trkpt lat="40.7230000" lon="-4.7435860">
        <ele>1175.8</ele>
        <time>2019-08-14T08:14:34Z</time>
      </trkpt>
      <trkpt lat="40.7230040" lon="-4.7436260">
        <ele>1175.9</ele>
        <time>2019-08-14T08:14:35Z</time>
      </trkpt>
      <trkpt lat="40.7229990" lon="-4.7436930">
        <ele>1176.0</ele>
        <time>2019-08-14T08:14:37Z</time>
      </trkpt>
      <trkpt lat="40.7230000" lon="-4.7437330">
        <ele>1176.1</ele>
        <time>2019-08-14T08:14:38Z</time>
      </trkpt>
      <trkpt lat="40.7230190" lon="-4.7437680">
        <ele>1176.2</ele>
        <time>2019-08-14T08:14:40Z</time>
      </trkpt>
      <trkpt lat="40.7230350" lon="-4.7438230">
        <ele>1176.3</ele>
        <time>2019-08-14T08:14:43Z</time>
      </trkpt>
      <trkpt lat="40.7230330" lon="-4.7438610">
        <ele>1176.3</ele>
        <time>2019-08-14T08:14:45Z</time>
      </trkpt>
      <trkpt lat="40.7230030" lon="-4.7438670">
        <ele>1176.4</ele>
        <time>2019-08-14T08:14:49Z</time>
      </trkpt>
      <trkpt lat="40.7229880" lon="-4.7438080">
        <ele>1176.5</ele>
        <time>2019-08-14T08:14:53Z</time>
      </trkpt>
      <trkpt lat="40.7229800" lon="-4.7437620">
        <ele>1176.6</ele>
        <time>2019-08-14T08:14:54Z</time>
      </trkpt>
      <trkpt lat="40.7229670" lon="-4.7437070">
        <ele>1176.3</ele>
        <time>2019-08-14T08:14:55Z</time>
      </trkpt>
      <trkpt lat="40.7229510" lon="-4.7436420">
        <ele>1175.9</ele>
        <time>2019-08-14T08:14:56Z</time>
      </trkpt>
      <trkpt lat="40.7229360" lon="-4.7435760">
        <ele>1175.5</ele>
        <time>2019-08-14T08:14:57Z</time>
      </trkpt>
      <trkpt lat="40.7229220" lon="-4.7435140">
        <ele>1175.1</ele>
        <time>2019-08-14T08:14:58Z</time>
      </trkpt>
      <trkpt lat="40.7229090" lon="-4.7434530">
        <ele>1174.7</ele>
        <time>2019-08-14T08:14:59Z</time>
      </trkpt>
      <trkpt lat="40.7228960" lon="-4.7433930">
        <ele>1174.3</ele>
        <time>2019-08-14T08:15:00Z</time>
      </trkpt>
      <trkpt lat="40.7228790" lon="-4.7433230">
        <ele>1173.9</ele>
        <time>2019-08-14T08:15:01Z</time>
      </trkpt>
      <trkpt lat="40.7228640" lon="-4.7432510">
        <ele>1173.4</ele>
        <time>2019-08-14T08:15:02Z</time>
      </trkpt>
      <trkpt lat="40.7228320" lon="-4.7431760">
        <ele>1172.9</ele>
        <time>2019-08-14T08:15:03Z</time>
      </trkpt>
      <trkpt lat="40.7228160" lon="-4.7430910">
        <ele>1172.3</ele>
        <time>2019-08-14T08:15:04Z</time>
      </trkpt>
      <trkpt lat="40.7228080" lon="-4.7430250">
        <ele>1171.9</ele>
        <time>2019-08-14T08:15:05Z</time>
      </trkpt>
      <trkpt lat="40.7227960" lon="-4.7429620">
        <ele>1171.5</ele>
        <time>2019-08-14T08:15:06Z</time>
      </trkpt>
      <trkpt lat="40.7227890" lon="-4.7428950">
        <ele>1171.1</ele>
        <time>2019-08-14T08:15:07Z</time>
      </trkpt>
      <trkpt lat="40.7228050" lon="-4.7428300">
        <ele>1170.7</ele>
        <time>2019-08-14T08:15:08Z</time>
      </trkpt>
      <trkpt lat="40.7228350" lon="-4.7427720">
        <ele>1170.3</ele>
        <time>2019-08-14T08:15:09Z</time>
      </trkpt>
      <trkpt lat="40.7228750" lon="-4.7427230">
        <ele>1170.3</ele>
        <time>2019-08-14T08:15:10Z</time>
      </trkpt>
      <trkpt lat="40.7229220" lon="-4.7426860">
        <ele>1170.3</ele>
        <time>2019-08-14T08:15:11Z</time>
      </trkpt>
      <trkpt lat="40.7229720" lon="-4.7426540">
        <ele>1170.3</ele>
        <time>2019-08-14T08:15:12Z</time>
      </trkpt>
      <trkpt lat="40.7230240" lon="-4.7426280">
        <ele>1170.2</ele>
        <time>2019-08-14T08:15:13Z</time>
      </trkpt>
      <trkpt lat="40.7230750" lon="-4.7426060">
        <ele>1170.2</ele>
        <time>2019-08-14T08:15:14Z</time>
      </trkpt>
      <trkpt lat="40.7231250" lon="-4.7425770">
        <ele>1170.2</ele>
        <time>2019-08-14T08:15:15Z</time>
      </trkpt>
      <trkpt lat="40.7231780" lon="-4.7425520">
        <ele>1170.2</ele>
        <time>2019-08-14T08:15:16Z</time>
      </trkpt>
      <trkpt lat="40.7232290" lon="-4.7425270">
        <ele>1170.2</ele>
        <time>2019-08-14T08:15:17Z</time>
      </trkpt>
      <trkpt lat="40.7232830" lon="-4.7425050">
        <ele>1170.1</ele>
        <time>2019-08-14T08:15:18Z</time>
      </trkpt>
      <trkpt lat="40.7233410" lon="-4.7424820">
        <ele>1170.1</ele>
        <time>2019-08-14T08:15:19Z</time>
      </trkpt>
      <trkpt lat="40.7234030" lon="-4.7424590">
        <ele>1170.1</ele>
        <time>2019-08-14T08:15:20Z</time>
      </trkpt>
      <trkpt lat="40.7234670" lon="-4.7424370">
        <ele>1170.1</ele>
        <time>2019-08-14T08:15:21Z</time>
      </trkpt>
      <trkpt lat="40.7235310" lon="-4.7424170">
        <ele>1170.1</ele>
        <time>2019-08-14T08:15:22Z</time>
      </trkpt>
      <trkpt lat="40.7235920" lon="-4.7424000">
        <ele>1170.1</ele>
        <time>2019-08-14T08:15:23Z</time>
      </trkpt>
      <trkpt lat="40.7236470" lon="-4.7423860">
        <ele>1170.1</ele>
        <time>2019-08-14T08:15:24Z</time>
      </trkpt>
      <trkpt lat="40.7236980" lon="-4.7423710">
        <ele>1170.1</ele>
        <time>2019-08-14T08:15:25Z</time>
      </trkpt>
      <trkpt lat="40.7237490" lon="-4.7423580">
        <ele>1170.1</ele>
        <time>2019-08-14T08:15:26Z</time>
      </trkpt>
      <trkpt lat="40.7237940" lon="-4.7423470">
        <ele>1170.1</ele>
        <time>2019-08-14T08:15:27Z</time>
      </trkpt>
      <trkpt lat="40.7238380" lon="-4.7423380">
        <ele>1170.1</ele>
        <time>2019-08-14T08:15:28Z</time>
      </trkpt>
      <trkpt lat="40.7238800" lon="-4.7423280">
        <ele>1170.1</ele>
        <time>2019-08-14T08:15:29Z</time>
      </trkpt>
      <trkpt lat="40.7239210" lon="-4.7423210">
        <ele>1170.0</ele>
        <time>2019-08-14T08:15:30Z</time>
      </trkpt>
      <trkpt lat="40.7239640" lon="-4.7423160">
        <ele>1170.0</ele>
        <time>2019-08-14T08:15:31Z</time>
      </trkpt>
      <trkpt lat="40.7240060" lon="-4.7423130">
        <ele>1170.0</ele>
        <time>2019-08-14T08:15:32Z</time>
      </trkpt>
      <trkpt lat="40.7240470" lon="-4.7423130">
        <ele>1170.0</ele>
        <time>2019-08-14T08:15:33Z</time>
      </trkpt>
      <trkpt lat="40.7240860" lon="-4.7423120">
        <ele>1170.0</ele>
        <time>2019-08-14T08:15:34Z</time>
      </trkpt>
      <trkpt lat="40.7241190" lon="-4.7423070">
        <ele>1170.0</ele>
        <time>2019-08-14T08:15:35Z</time>
      </trkpt>
      <trkpt lat="40.7241500" lon="-4.7422970">
        <ele>1170.0</ele>
        <time>2019-08-14T08:15:36Z</time>
      </trkpt>
      <trkpt lat="40.7241800" lon="-4.7422790">
        <ele>1169.9</ele>
        <time>2019-08-14T08:15:37Z</time>
      </trkpt>
      <trkpt lat="40.7242090" lon="-4.7422510">
        <ele>1169.9</ele>
        <time>2019-08-14T08:15:38Z</time>
      </trkpt>
      <trkpt lat="40.7242380" lon="-4.7422200">
        <ele>1169.9</ele>
        <time>2019-08-14T08:15:39Z</time>
      </trkpt>
      <trkpt lat="40.7242620" lon="-4.7421880">
        <ele>1169.9</ele>
        <time>2019-08-14T08:15:40Z</time>
      </trkpt>
      <trkpt lat="40.7242850" lon="-4.7421560">
        <ele>1169.9</ele>
        <time>2019-08-14T08:15:41Z</time>
      </trkpt>
      <trkpt lat="40.7243070" lon="-4.7421210">
        <ele>1169.9</ele>
        <time>2019-08-14T08:15:42Z</time>
      </trkpt>
      <trkpt lat="40.7243300" lon="-4.7420820">
        <ele>1169.9</ele>
        <time>2019-08-14T08:15:43Z</time>
      </trkpt>
      <trkpt lat="40.7243560" lon="-4.7420430">
        <ele>1169.9</ele>
        <time>2019-08-14T08:15:44Z</time>
      </trkpt>
      <trkpt lat="40.7243840" lon="-4.7420060">
        <ele>1169.9</ele>
        <time>2019-08-14T08:15:45Z</time>
      </trkpt>
      <trkpt lat="40.7244130" lon="-4.7419710">
        <ele>1169.9</ele>
        <time>2019-08-14T08:15:46Z</time>
      </trkpt>
      <trkpt lat="40.7244420" lon="-4.7419370">
        <ele>1170.0</ele>
        <time>2019-08-14T08:15:47Z</time>
      </trkpt>
      <trkpt lat="40.7244730" lon="-4.7419060">
        <ele>1170.0</ele>
        <time>2019-08-14T08:15:48Z</time>
      </trkpt>
      <trkpt lat="40.7245030" lon="-4.7418760">
        <ele>1170.0</ele>
        <time>2019-08-14T08:15:49Z</time>
      </trkpt>
      <trkpt lat="40.7245350" lon="-4.7418490">
        <ele>1170.1</ele>
        <time>2019-08-14T08:15:50Z</time>
      </trkpt>
      <trkpt lat="40.7245670" lon="-4.7418250">
        <ele>1170.1</ele>
        <time>2019-08-14T08:15:51Z</time>
      </trkpt>
      <trkpt lat="40.7246000" lon="-4.7418090">
        <ele>1170.1</ele>
        <time>2019-08-14T08:15:52Z</time>
      </trkpt>
      <trkpt lat="40.7246330" lon="-4.7417930">
        <ele>1170.2</ele>
        <time>2019-08-14T08:15:53Z</time>
      </trkpt>
      <trkpt lat="40.7246650" lon="-4.7417780">
        <ele>1170.2</ele>
        <time>2019-08-14T08:15:54Z</time>
      </trkpt>
      <trkpt lat="40.7246970" lon="-4.7417610">
        <ele>1170.2</ele>
        <time>2019-08-14T08:15:55Z</time>
      </trkpt>
      <trkpt lat="40.7247260" lon="-4.7417440">
        <ele>1170.2</ele>
        <time>2019-08-14T08:15:56Z</time>
      </trkpt>
      <trkpt lat="40.7247530" lon="-4.7417230">
        <ele>1170.2</ele>
        <time>2019-08-14T08:15:57Z</time>
      </trkpt>
      <trkpt lat="40.7247750" lon="-4.7416980">
        <ele>1170.1</ele>
        <time>2019-08-14T08:15:58Z</time>
      </trkpt>
      <trkpt lat="40.7248080" lon="-4.7416410">
        <ele>1169.9</ele>
        <time>2019-08-14T08:16:00Z</time>
      </trkpt>
      <trkpt lat="40.7248210" lon="-4.7416060">
        <ele>1169.8</ele>
        <time>2019-08-14T08:16:01Z</time>
      </trkpt>
      <trkpt lat="40.7248290" lon="-4.7415650">
        <ele>1169.7</ele>
        <time>2019-08-14T08:16:02Z</time>
      </trkpt>
      <trkpt lat="40.7248300" lon="-4.7415180">
        <ele>1169.6</ele>
        <time>2019-08-14T08:16:03Z</time>
      </trkpt>
      <trkpt lat="40.7248230" lon="-4.7414670">
        <ele>1169.4</ele>
        <time>2019-08-14T08:16:04Z</time>
      </trkpt>
      <trkpt lat="40.7248100" lon="-4.7414120">
        <ele>1169.3</ele>
        <time>2019-08-14T08:16:05Z</time>
      </trkpt>
      <trkpt lat="40.7247920" lon="-4.7413560">
        <ele>1169.1</ele>
        <time>2019-08-14T08:16:06Z</time>
      </trkpt>
      <trkpt lat="40.7247720" lon="-4.7412970">
        <ele>1168.9</ele>
        <time>2019-08-14T08:16:07Z</time>
      </trkpt>
      <trkpt lat="40.7247480" lon="-4.7412370">
        <ele>1168.7</ele>
        <time>2019-08-14T08:16:08Z</time>
      </trkpt>
      <trkpt lat="40.7247240" lon="-4.7411720">
        <ele>1168.4</ele>
        <time>2019-08-14T08:16:09Z</time>
      </trkpt>
      <trkpt lat="40.7247030" lon="-4.7411050">
        <ele>1168.1</ele>
        <time>2019-08-14T08:16:10Z</time>
      </trkpt>
      <trkpt lat="40.7246820" lon="-4.7410360">
        <ele>1168.0</ele>
        <time>2019-08-14T08:16:11Z</time>
      </trkpt>
      <trkpt lat="40.7246630" lon="-4.7409660">
        <ele>1167.8</ele>
        <time>2019-08-14T08:16:12Z</time>
      </trkpt>
      <trkpt lat="40.7246500" lon="-4.7408970">
        <ele>1167.7</ele>
        <time>2019-08-14T08:16:13Z</time>
      </trkpt>
      <trkpt lat="40.7246440" lon="-4.7408300">
        <ele>1167.6</ele>
        <time>2019-08-14T08:16:14Z</time>
      </trkpt>
      <trkpt lat="40.7246500" lon="-4.7407630">
        <ele>1167.6</ele>
        <time>2019-08-14T08:16:15Z</time>
      </trkpt>
      <trkpt lat="40.7246670" lon="-4.7407020">
        <ele>1167.6</ele>
        <time>2019-08-14T08:16:16Z</time>
      </trkpt>
      <trkpt lat="40.7246950" lon="-4.7406520">
        <ele>1167.5</ele>
        <time>2019-08-14T08:16:17Z</time>
      </trkpt>
      <trkpt lat="40.7247330" lon="-4.7406090">
        <ele>1167.5</ele>
        <time>2019-08-14T08:16:18Z</time>
      </trkpt>
      <trkpt lat="40.7247730" lon="-4.7405770">
        <ele>1167.6</ele>
        <time>2019-08-14T08:16:19Z</time>
      </trkpt>
      <trkpt lat="40.7248140" lon="-4.7405480">
        <ele>1167.6</ele>
        <time>2019-08-14T08:16:20Z</time>
      </trkpt>
      <trkpt lat="40.7248540" lon="-4.7405220">
        <ele>1167.6</ele>
        <time>2019-08-14T08:16:21Z</time>
      </trkpt>
      <trkpt lat="40.7248930" lon="-4.7404980">
        <ele>1167.7</ele>
        <time>2019-08-14T08:16:22Z</time>
      </trkpt>
      <trkpt lat="40.7249310" lon="-4.7404740">
        <ele>1167.7</ele>
        <time>2019-08-14T08:16:23Z</time>
      </trkpt>
      <trkpt lat="40.7249690" lon="-4.7404520">
        <ele>1167.7</ele>
        <time>2019-08-14T08:16:24Z</time>
      </trkpt>
      <trkpt lat="40.7250080" lon="-4.7404340">
        <ele>1167.7</ele>
        <time>2019-08-14T08:16:25Z</time>
      </trkpt>
      <trkpt lat="40.7250450" lon="-4.7404190">
        <ele>1167.7</ele>
        <time>2019-08-14T08:16:26Z</time>
      </trkpt>
      <trkpt lat="40.7250810" lon="-4.7404060">
        <ele>1167.7</ele>
        <time>2019-08-14T08:16:27Z</time>
      </trkpt>
      <trkpt lat="40.7251160" lon="-4.7403930">
        <ele>1167.6</ele>
        <time>2019-08-14T08:16:28Z</time>
      </trkpt>
      <trkpt lat="40.7251490" lon="-4.7403800">
        <ele>1167.6</ele>
        <time>2019-08-14T08:16:29Z</time>
      </trkpt>
      <trkpt lat="40.7251790" lon="-4.7403640">
        <ele>1167.5</ele>
        <time>2019-08-14T08:16:30Z</time>
      </trkpt>
      <trkpt lat="40.7252040" lon="-4.7403480">
        <ele>1167.4</ele>
        <time>2019-08-14T08:16:31Z</time>
      </trkpt>
      <trkpt lat="40.7252420" lon="-4.7403110">
        <ele>1167.3</ele>
        <time>2019-08-14T08:16:33Z</time>
      </trkpt>
      <trkpt lat="40.7252700" lon="-4.7402610">
        <ele>1167.1</ele>
        <time>2019-08-14T08:16:35Z</time>
      </trkpt>
      <trkpt lat="40.7252860" lon="-4.7401990">
        <ele>1166.9</ele>
        <time>2019-08-14T08:16:37Z</time>
      </trkpt>
      <trkpt lat="40.7252880" lon="-4.7401270">
        <ele>1166.7</ele>
        <time>2019-08-14T08:16:39Z</time>
      </trkpt>
      <trkpt lat="40.7252830" lon="-4.7400850">
        <ele>1166.6</ele>
        <time>2019-08-14T08:16:40Z</time>
      </trkpt>
      <trkpt lat="40.7252780" lon="-4.7400370">
        <ele>1166.4</ele>
        <time>2019-08-14T08:16:41Z</time>
      </trkpt>
      <trkpt lat="40.7252740" lon="-4.7399870">
        <ele>1166.3</ele>
        <time>2019-08-14T08:16:42Z</time>
      </trkpt>
      <trkpt lat="40.7252690" lon="-4.7399340">
        <ele>1166.1</ele>
        <time>2019-08-14T08:16:43Z</time>
      </trkpt>
      <trkpt lat="40.7252640" lon="-4.7398790">
        <ele>1166.0</ele>
        <time>2019-08-14T08:16:44Z</time>
      </trkpt>
      <trkpt lat="40.7252550" lon="-4.7398220">
        <ele>1165.8</ele>
        <time>2019-08-14T08:16:45Z</time>
      </trkpt>
      <trkpt lat="40.7252430" lon="-4.7397620">
        <ele>1165.5</ele>
        <time>2019-08-14T08:16:46Z</time>
      </trkpt>
      <trkpt lat="40.7252270" lon="-4.7396970">
        <ele>1165.3</ele>
        <time>2019-08-14T08:16:47Z</time>
      </trkpt>
      <trkpt lat="40.7252100" lon="-4.7396290">
        <ele>1165.0</ele>
        <time>2019-08-14T08:16:48Z</time>
      </trkpt>
      <trkpt lat="40.7251950" lon="-4.7395610">
        <ele>1164.6</ele>
        <time>2019-08-14T08:16:49Z</time>
      </trkpt>
      <trkpt lat="40.7251800" lon="-4.7394940">
        <ele>1164.2</ele>
        <time>2019-08-14T08:16:50Z</time>
      </trkpt>
      <trkpt lat="40.7251590" lon="-4.7394260">
        <ele>1163.9</ele>
        <time>2019-08-14T08:16:51Z</time>
      </trkpt>
      <trkpt lat="40.7251370" lon="-4.7393620">
        <ele>1163.5</ele>
        <time>2019-08-14T08:16:52Z</time>
      </trkpt>
      <trkpt lat="40.7251140" lon="-4.7393070">
        <ele>1163.2</ele>
        <time>2019-08-14T08:16:53Z</time>
      </trkpt>
      <trkpt lat="40.7250890" lon="-4.7392560">
        <ele>1162.9</ele>
        <time>2019-08-14T08:16:54Z</time>
      </trkpt>
      <trkpt lat="40.7250620" lon="-4.7392110">
        <ele>1162.7</ele>
        <time>2019-08-14T08:16:55Z</time>
      </trkpt>
      <trkpt lat="40.7250330" lon="-4.7391720">
        <ele>1162.5</ele>
        <time>2019-08-14T08:16:56Z</time>
      </trkpt>
      <trkpt lat="40.7250080" lon="-4.7391350">
        <ele>1162.4</ele>
        <time>2019-08-14T08:16:57Z</time>
      </trkpt>
      <trkpt lat="40.7249910" lon="-4.7391020">
        <ele>1162.3</ele>
        <time>2019-08-14T08:16:58Z</time>
      </trkpt>
      <trkpt lat="40.7249760" lon="-4.7390490">
        <ele>1162.1</ele>
        <time>2019-08-14T08:17:00Z</time>
      </trkpt>
      <trkpt lat="40.7249920" lon="-4.7389840">
        <ele>1161.9</ele>
        <time>2019-08-14T08:17:02Z</time>
      </trkpt>
      <trkpt lat="40.7250140" lon="-4.7389530">
        <ele>1161.7</ele>
        <time>2019-08-14T08:17:03Z</time>
      </trkpt>
      <trkpt lat="40.7250420" lon="-4.7389190">
        <ele>1161.4</ele>
        <time>2019-08-14T08:17:04Z</time>
      </trkpt>
      <trkpt lat="40.7250730" lon="-4.7388810">
        <ele>1161.2</ele>
        <time>2019-08-14T08:17:05Z</time>
      </trkpt>
      <trkpt lat="40.7251040" lon="-4.7388400">
        <ele>1160.8</ele>
        <time>2019-08-14T08:17:06Z</time>
      </trkpt>
      <trkpt lat="40.7251380" lon="-4.7387970">
        <ele>1160.3</ele>
        <time>2019-08-14T08:17:07Z</time>
      </trkpt>
      <trkpt lat="40.7251730" lon="-4.7387500">
        <ele>1159.7</ele>
        <time>2019-08-14T08:17:08Z</time>
      </trkpt>
      <trkpt lat="40.7252110" lon="-4.7386980">
        <ele>1159.0</ele>
        <time>2019-08-14T08:17:09Z</time>
      </trkpt>
      <trkpt lat="40.7252520" lon="-4.7386420">
        <ele>1157.8</ele>
        <time>2019-08-14T08:17:10Z</time>
      </trkpt>
      <trkpt lat="40.7252980" lon="-4.7385830">
        <ele>1157.6</ele>
        <time>2019-08-14T08:17:11Z</time>
      </trkpt>
      <trkpt lat="40.7253480" lon="-4.7385270">
        <ele>1156.3</ele>
        <time>2019-08-14T08:17:12Z</time>
      </trkpt>
      <trkpt lat="40.7254040" lon="-4.7384810">
        <ele>1156.2</ele>
        <time>2019-08-14T08:17:13Z</time>
      </trkpt>
      <trkpt lat="40.7254640" lon="-4.7384460">
        <ele>1156.2</ele>
        <time>2019-08-14T08:17:14Z</time>
      </trkpt>
      <trkpt lat="40.7255240" lon="-4.7384250">
        <ele>1156.2</ele>
        <time>2019-08-14T08:17:15Z</time>
      </trkpt>
      <trkpt lat="40.7255830" lon="-4.7384150">
        <ele>1156.3</ele>
        <time>2019-08-14T08:17:16Z</time>
      </trkpt>
      <trkpt lat="40.7256400" lon="-4.7384140">
        <ele>1156.3</ele>
        <time>2019-08-14T08:17:17Z</time>
      </trkpt>
      <trkpt lat="40.7256970" lon="-4.7384170">
        <ele>1156.4</ele>
        <time>2019-08-14T08:17:18Z</time>
      </trkpt>
      <trkpt lat="40.7257500" lon="-4.7384190">
        <ele>1156.5</ele>
        <time>2019-08-14T08:17:19Z</time>
      </trkpt>
      <trkpt lat="40.7257990" lon="-4.7384220">
        <ele>1156.5</ele>
        <time>2019-08-14T08:17:20Z</time>
      </trkpt>
      <trkpt lat="40.7258460" lon="-4.7384240">
        <ele>1156.6</ele>
        <time>2019-08-14T08:17:21Z</time>
      </trkpt>
      <trkpt lat="40.7258900" lon="-4.7384270">
        <ele>1156.7</ele>
        <time>2019-08-14T08:17:22Z</time>
      </trkpt>
      <trkpt lat="40.7259320" lon="-4.7384340">
        <ele>1156.8</ele>
        <time>2019-08-14T08:17:23Z</time>
      </trkpt>
      <trkpt lat="40.7259740" lon="-4.7384440">
        <ele>1156.8</ele>
        <time>2019-08-14T08:17:24Z</time>
      </trkpt>
      <trkpt lat="40.7260130" lon="-4.7384520">
        <ele>1156.8</ele>
        <time>2019-08-14T08:17:25Z</time>
      </trkpt>
      <trkpt lat="40.7260540" lon="-4.7384610">
        <ele>1156.9</ele>
        <time>2019-08-14T08:17:26Z</time>
      </trkpt>
      <trkpt lat="40.7260940" lon="-4.7384730">
        <ele>1156.9</ele>
        <time>2019-08-14T08:17:27Z</time>
      </trkpt>
      <trkpt lat="40.7261330" lon="-4.7384860">
        <ele>1157.0</ele>
        <time>2019-08-14T08:17:28Z</time>
      </trkpt>
      <trkpt lat="40.7261720" lon="-4.7384980">
        <ele>1157.0</ele>
        <time>2019-08-14T08:17:29Z</time>
      </trkpt>
      <trkpt lat="40.7262130" lon="-4.7385110">
        <ele>1157.1</ele>
        <time>2019-08-14T08:17:30Z</time>
      </trkpt>
      <trkpt lat="40.7262530" lon="-4.7385260">
        <ele>1157.1</ele>
        <time>2019-08-14T08:17:31Z</time>
      </trkpt>
      <trkpt lat="40.7262930" lon="-4.7385390">
        <ele>1157.2</ele>
        <time>2019-08-14T08:17:32Z</time>
      </trkpt>
      <trkpt lat="40.7263340" lon="-4.7385530">
        <ele>1157.2</ele>
        <time>2019-08-14T08:17:33Z</time>
      </trkpt>
      <trkpt lat="40.7263740" lon="-4.7385670">
        <ele>1157.3</ele>
        <time>2019-08-14T08:17:34Z</time>
      </trkpt>
      <trkpt lat="40.7264130" lon="-4.7385800">
        <ele>1157.4</ele>
        <time>2019-08-14T08:17:35Z</time>
      </trkpt>
      <trkpt lat="40.7264530" lon="-4.7385930">
        <ele>1157.4</ele>
        <time>2019-08-14T08:17:36Z</time>
      </trkpt>
      <trkpt lat="40.7264930" lon="-4.7386060">
        <ele>1157.5</ele>
        <time>2019-08-14T08:17:37Z</time>
      </trkpt>
      <trkpt lat="40.7265340" lon="-4.7386190">
        <ele>1157.6</ele>
        <time>2019-08-14T08:17:38Z</time>
      </trkpt>
      <trkpt lat="40.7265740" lon="-4.7386310">
        <ele>1157.7</ele>
        <time>2019-08-14T08:17:39Z</time>
      </trkpt>
      <trkpt lat="40.7266130" lon="-4.7386430">
        <ele>1157.9</ele>
        <time>2019-08-14T08:17:40Z</time>
      </trkpt>
      <trkpt lat="40.7266510" lon="-4.7386560">
        <ele>1158.0</ele>
        <time>2019-08-14T08:17:41Z</time>
      </trkpt>
      <trkpt lat="40.7266870" lon="-4.7386690">
        <ele>1158.1</ele>
        <time>2019-08-14T08:17:42Z</time>
      </trkpt>
      <trkpt lat="40.7267240" lon="-4.7386810">
        <ele>1158.1</ele>
        <time>2019-08-14T08:17:43Z</time>
      </trkpt>
      <trkpt lat="40.7267610" lon="-4.7386930">
        <ele>1158.2</ele>
        <time>2019-08-14T08:17:44Z</time>
      </trkpt>
      <trkpt lat="40.7267980" lon="-4.7387050">
        <ele>1158.4</ele>
        <time>2019-08-14T08:17:45Z</time>
      </trkpt>
      <trkpt lat="40.7268340" lon="-4.7387190">
        <ele>1158.5</ele>
        <time>2019-08-14T08:17:46Z</time>
      </trkpt>
      <trkpt lat="40.7268710" lon="-4.7387340">
        <ele>1158.6</ele>
        <time>2019-08-14T08:17:47Z</time>
      </trkpt>
      <trkpt lat="40.7269060" lon="-4.7387500">
        <ele>1158.8</ele>
        <time>2019-08-14T08:17:48Z</time>
      </trkpt>
      <trkpt lat="40.7269420" lon="-4.7387670">
        <ele>1158.9</ele>
        <time>2019-08-14T08:17:49Z</time>
      </trkpt>
      <trkpt lat="40.7269770" lon="-4.7387830">
        <ele>1159.0</ele>
        <time>2019-08-14T08:17:50Z</time>
      </trkpt>
      <trkpt lat="40.7270120" lon="-4.7388000">
        <ele>1159.2</ele>
        <time>2019-08-14T08:17:51Z</time>
      </trkpt>
      <trkpt lat="40.7270440" lon="-4.7388180">
        <ele>1159.3</ele>
        <time>2019-08-14T08:17:52Z</time>
      </trkpt>
      <trkpt lat="40.7270740" lon="-4.7388360">
        <ele>1159.3</ele>
        <time>2019-08-14T08:17:53Z</time>
      </trkpt>
      <trkpt lat="40.7271020" lon="-4.7388540">
        <ele>1159.4</ele>
        <time>2019-08-14T08:17:54Z</time>
      </trkpt>
      <trkpt lat="40.7271270" lon="-4.7388710">
        <ele>1159.5</ele>
        <time>2019-08-14T08:17:55Z</time>
      </trkpt>
      <trkpt lat="40.7271520" lon="-4.7388900">
        <ele>1159.6</ele>
        <time>2019-08-14T08:17:56Z</time>
      </trkpt>
      <trkpt lat="40.7271790" lon="-4.7389070">
        <ele>1159.7</ele>
        <time>2019-08-14T08:17:57Z</time>
      </trkpt>
      <trkpt lat="40.7272070" lon="-4.7389260">
        <ele>1159.7</ele>
        <time>2019-08-14T08:17:58Z</time>
      </trkpt>
      <trkpt lat="40.7272360" lon="-4.7389460">
        <ele>1159.8</ele>
        <time>2019-08-14T08:17:59Z</time>
      </trkpt>
      <trkpt lat="40.7272670" lon="-4.7389670">
        <ele>1159.8</ele>
        <time>2019-08-14T08:18:00Z</time>
      </trkpt>
      <trkpt lat="40.7273020" lon="-4.7389890">
        <ele>1159.9</ele>
        <time>2019-08-14T08:18:01Z</time>
      </trkpt>
      <trkpt lat="40.7273390" lon="-4.7390100">
        <ele>1160.0</ele>
        <time>2019-08-14T08:18:02Z</time>
      </trkpt>
      <trkpt lat="40.7273770" lon="-4.7390300">
        <ele>1160.0</ele>
        <time>2019-08-14T08:18:03Z</time>
      </trkpt>
      <trkpt lat="40.7274160" lon="-4.7390530">
        <ele>1160.1</ele>
        <time>2019-08-14T08:18:04Z</time>
      </trkpt>
      <trkpt lat="40.7274560" lon="-4.7390750">
        <ele>1160.2</ele>
        <time>2019-08-14T08:18:05Z</time>
      </trkpt>
      <trkpt lat="40.7274980" lon="-4.7390950">
        <ele>1160.2</ele>
        <time>2019-08-14T08:18:06Z</time>
      </trkpt>
      <trkpt lat="40.7275400" lon="-4.7391100">
        <ele>1160.3</ele>
        <time>2019-08-14T08:18:07Z</time>
      </trkpt>
      <trkpt lat="40.7275820" lon="-4.7391190">
        <ele>1160.4</ele>
        <time>2019-08-14T08:18:08Z</time>
      </trkpt>
      <trkpt lat="40.7276250" lon="-4.7391220">
        <ele>1160.4</ele>
        <time>2019-08-14T08:18:09Z</time>
      </trkpt>
      <trkpt lat="40.7276670" lon="-4.7391230">
        <ele>1160.5</ele>
        <time>2019-08-14T08:18:10Z</time>
      </trkpt>
      <trkpt lat="40.7277080" lon="-4.7391200">
        <ele>1160.6</ele>
        <time>2019-08-14T08:18:11Z</time>
      </trkpt>
      <trkpt lat="40.7277490" lon="-4.7391180">
        <ele>1160.7</ele>
        <time>2019-08-14T08:18:12Z</time>
      </trkpt>
      <trkpt lat="40.7277900" lon="-4.7391160">
        <ele>1160.8</ele>
        <time>2019-08-14T08:18:13Z</time>
      </trkpt>
      <trkpt lat="40.7278320" lon="-4.7391170">
        <ele>1160.9</ele>
        <time>2019-08-14T08:18:14Z</time>
      </trkpt>
      <trkpt lat="40.7278740" lon="-4.7391190">
        <ele>1161.1</ele>
        <time>2019-08-14T08:18:15Z</time>
      </trkpt>
      <trkpt lat="40.7279150" lon="-4.7391230">
        <ele>1161.2</ele>
        <time>2019-08-14T08:18:16Z</time>
      </trkpt>
      <trkpt lat="40.7279560" lon="-4.7391290">
        <ele>1161.4</ele>
        <time>2019-08-14T08:18:17Z</time>
      </trkpt>
      <trkpt lat="40.7279960" lon="-4.7391380">
        <ele>1161.5</ele>
        <time>2019-08-14T08:18:18Z</time>
      </trkpt>
      <trkpt lat="40.7280350" lon="-4.7391480">
        <ele>1161.7</ele>
        <time>2019-08-14T08:18:19Z</time>
      </trkpt>
      <trkpt lat="40.7280740" lon="-4.7391570">
        <ele>1161.8</ele>
        <time>2019-08-14T08:18:20Z</time>
      </trkpt>
      <trkpt lat="40.7281090" lon="-4.7391670">
        <ele>1162.0</ele>
        <time>2019-08-14T08:18:21Z</time>
      </trkpt>
      <trkpt lat="40.7281430" lon="-4.7391770">
        <ele>1162.1</ele>
        <time>2019-08-14T08:18:22Z</time>
      </trkpt>
      <trkpt lat="40.7281760" lon="-4.7391870">
        <ele>1162.3</ele>
        <time>2019-08-14T08:18:23Z</time>
      </trkpt>
      <trkpt lat="40.7282070" lon="-4.7391960">
        <ele>1162.5</ele>
        <time>2019-08-14T08:18:24Z</time>
      </trkpt>
      <trkpt lat="40.7282370" lon="-4.7392040">
        <ele>1162.6</ele>
        <time>2019-08-14T08:18:25Z</time>
      </trkpt>
      <trkpt lat="40.7282670" lon="-4.7392130">
        <ele>1162.7</ele>
        <time>2019-08-14T08:18:26Z</time>
      </trkpt>
      <trkpt lat="40.7282970" lon="-4.7392230">
        <ele>1162.9</ele>
        <time>2019-08-14T08:18:27Z</time>
      </trkpt>
      <trkpt lat="40.7283280" lon="-4.7392360">
        <ele>1163.0</ele>
        <time>2019-08-14T08:18:28Z</time>
      </trkpt>
      <trkpt lat="40.7283600" lon="-4.7392490">
        <ele>1163.1</ele>
        <time>2019-08-14T08:18:29Z</time>
      </trkpt>
      <trkpt lat="40.7283920" lon="-4.7392620">
        <ele>1163.2</ele>
        <time>2019-08-14T08:18:30Z</time>
      </trkpt>
      <trkpt lat="40.7284250" lon="-4.7392760">
        <ele>1163.2</ele>
        <time>2019-08-14T08:18:31Z</time>
      </trkpt>
      <trkpt lat="40.7284570" lon="-4.7392890">
        <ele>1163.3</ele>
        <time>2019-08-14T08:18:32Z</time>
      </trkpt>
      <trkpt lat="40.7284900" lon="-4.7393030">
        <ele>1163.4</ele>
        <time>2019-08-14T08:18:33Z</time>
      </trkpt>
      <trkpt lat="40.7285230" lon="-4.7393190">
        <ele>1163.5</ele>
        <time>2019-08-14T08:18:34Z</time>
      </trkpt>
      <trkpt lat="40.7285550" lon="-4.7393370">
        <ele>1163.5</ele>
        <time>2019-08-14T08:18:35Z</time>
      </trkpt>
      <trkpt lat="40.7285880" lon="-4.7393550">
        <ele>1163.6</ele>
        <time>2019-08-14T08:18:36Z</time>
      </trkpt>
      <trkpt lat="40.7286220" lon="-4.7393730">
        <ele>1163.7</ele>
        <time>2019-08-14T08:18:37Z</time>
      </trkpt>
      <trkpt lat="40.7286570" lon="-4.7393890">
        <ele>1163.7</ele>
        <time>2019-08-14T08:18:38Z</time>
      </trkpt>
      <trkpt lat="40.7286930" lon="-4.7394070">
        <ele>1163.8</ele>
        <time>2019-08-14T08:18:39Z</time>
      </trkpt>
      <trkpt lat="40.7287280" lon="-4.7394240">
        <ele>1163.8</ele>
        <time>2019-08-14T08:18:40Z</time>
      </trkpt>
      <trkpt lat="40.7287630" lon="-4.7394410">
        <ele>1163.9</ele>
        <time>2019-08-14T08:18:41Z</time>
      </trkpt>
      <trkpt lat="40.7287970" lon="-4.7394580">
        <ele>1164.0</ele>
        <time>2019-08-14T08:18:42Z</time>
      </trkpt>
      <trkpt lat="40.7288310" lon="-4.7394750">
        <ele>1164.0</ele>
        <time>2019-08-14T08:18:43Z</time>
      </trkpt>
      <trkpt lat="40.7288660" lon="-4.7394920">
        <ele>1164.1</ele>
        <time>2019-08-14T08:18:44Z</time>
      </trkpt>
      <trkpt lat="40.7289000" lon="-4.7395070">
        <ele>1164.1</ele>
        <time>2019-08-14T08:18:45Z</time>
      </trkpt>
      <trkpt lat="40.7289340" lon="-4.7395230">
        <ele>1164.2</ele>
        <time>2019-08-14T08:18:46Z</time>
      </trkpt>
      <trkpt lat="40.7289680" lon="-4.7395390">
        <ele>1164.2</ele>
        <time>2019-08-14T08:18:47Z</time>
      </trkpt>
      <trkpt lat="40.7290010" lon="-4.7395550">
        <ele>1164.3</ele>
        <time>2019-08-14T08:18:48Z</time>
      </trkpt>
      <trkpt lat="40.7290330" lon="-4.7395710">
        <ele>1164.4</ele>
        <time>2019-08-14T08:18:49Z</time>
      </trkpt>
      <trkpt lat="40.7290660" lon="-4.7395870">
        <ele>1164.4</ele>
        <time>2019-08-14T08:18:50Z</time>
      </trkpt>
      <trkpt lat="40.7290990" lon="-4.7396030">
        <ele>1164.5</ele>
        <time>2019-08-14T08:18:51Z</time>
      </trkpt>
      <trkpt lat="40.7291310" lon="-4.7396180">
        <ele>1164.6</ele>
        <time>2019-08-14T08:18:52Z</time>
      </trkpt>
      <trkpt lat="40.7291620" lon="-4.7396330">
        <ele>1164.6</ele>
        <time>2019-08-14T08:18:53Z</time>
      </trkpt>
      <trkpt lat="40.7291920" lon="-4.7396450">
        <ele>1164.7</ele>
        <time>2019-08-14T08:18:54Z</time>
      </trkpt>
      <trkpt lat="40.7292220" lon="-4.7396560">
        <ele>1164.8</ele>
        <time>2019-08-14T08:18:55Z</time>
      </trkpt>
      <trkpt lat="40.7292530" lon="-4.7396660">
        <ele>1164.8</ele>
        <time>2019-08-14T08:18:56Z</time>
      </trkpt>
      <trkpt lat="40.7292850" lon="-4.7396740">
        <ele>1165.0</ele>
        <time>2019-08-14T08:18:57Z</time>
      </trkpt>
      <trkpt lat="40.7293170" lon="-4.7396780">
        <ele>1165.1</ele>
        <time>2019-08-14T08:18:58Z</time>
      </trkpt>
      <trkpt lat="40.7293500" lon="-4.7396780">
        <ele>1165.3</ele>
        <time>2019-08-14T08:18:59Z</time>
      </trkpt>
      <trkpt lat="40.7293820" lon="-4.7396740">
        <ele>1165.4</ele>
        <time>2019-08-14T08:19:00Z</time>
      </trkpt>
      <trkpt lat="40.7294140" lon="-4.7396680">
        <ele>1165.5</ele>
        <time>2019-08-14T08:19:01Z</time>
      </trkpt>
      <trkpt lat="40.7294450" lon="-4.7396610">
        <ele>1165.6</ele>
        <time>2019-08-14T08:19:02Z</time>
      </trkpt>
      <trkpt lat="40.7294750" lon="-4.7396550">
        <ele>1165.8</ele>
        <time>2019-08-14T08:19:03Z</time>
      </trkpt>
      <trkpt lat="40.7295040" lon="-4.7396490">
        <ele>1165.9</ele>
        <time>2019-08-14T08:19:04Z</time>
      </trkpt>
      <trkpt lat="40.7295300" lon="-4.7396420">
        <ele>1166.0</ele>
        <time>2019-08-14T08:19:05Z</time>
      </trkpt>
      <trkpt lat="40.7295760" lon="-4.7396320">
        <ele>1166.3</ele>
        <time>2019-08-14T08:19:07Z</time>
      </trkpt>
      <trkpt lat="40.7296160" lon="-4.7396270">
        <ele>1166.5</ele>
        <time>2019-08-14T08:19:09Z</time>
      </trkpt>
      <trkpt lat="40.7296570" lon="-4.7396220">
        <ele>1166.7</ele>
        <time>2019-08-14T08:19:11Z</time>
      </trkpt>
      <trkpt lat="40.7296960" lon="-4.7396180">
        <ele>1167.0</ele>
        <time>2019-08-14T08:19:13Z</time>
      </trkpt>
      <trkpt lat="40.7297330" lon="-4.7396130">
        <ele>1167.4</ele>
        <time>2019-08-14T08:19:15Z</time>
      </trkpt>
      <trkpt lat="40.7297750" lon="-4.7396100">
        <ele>1167.9</ele>
        <time>2019-08-14T08:19:17Z</time>
      </trkpt>
      <trkpt lat="40.7298180" lon="-4.7396080">
        <ele>1168.3</ele>
        <time>2019-08-14T08:19:19Z</time>
      </trkpt>
      <trkpt lat="40.7298610" lon="-4.7396000">
        <ele>1168.8</ele>
        <time>2019-08-14T08:19:21Z</time>
      </trkpt>
      <trkpt lat="40.7299040" lon="-4.7395860">
        <ele>1169.1</ele>
        <time>2019-08-14T08:19:23Z</time>
      </trkpt>
      <trkpt lat="40.7299480" lon="-4.7395700">
        <ele>1169.4</ele>
        <time>2019-08-14T08:19:25Z</time>
      </trkpt>
      <trkpt lat="40.7299970" lon="-4.7395540">
        <ele>1169.7</ele>
        <time>2019-08-14T08:19:27Z</time>
      </trkpt>
      <trkpt lat="40.7300470" lon="-4.7395350">
        <ele>1170.0</ele>
        <time>2019-08-14T08:19:29Z</time>
      </trkpt>
      <trkpt lat="40.7300730" lon="-4.7395250">
        <ele>1170.1</ele>
        <time>2019-08-14T08:19:30Z</time>
      </trkpt>
      <trkpt lat="40.7301000" lon="-4.7395140">
        <ele>1170.3</ele>
        <time>2019-08-14T08:19:31Z</time>
      </trkpt>
      <trkpt lat="40.7301280" lon="-4.7395050">
        <ele>1170.4</ele>
        <time>2019-08-14T08:19:32Z</time>
      </trkpt>
      <trkpt lat="40.7301560" lon="-4.7394980">
        <ele>1170.5</ele>
        <time>2019-08-14T08:19:33Z</time>
      </trkpt>
      <trkpt lat="40.7301840" lon="-4.7394920">
        <ele>1170.7</ele>
        <time>2019-08-14T08:19:34Z</time>
      </trkpt>
      <trkpt lat="40.7302130" lon="-4.7394900">
        <ele>1170.8</ele>
        <time>2019-08-14T08:19:35Z</time>
      </trkpt>
      <trkpt lat="40.7302410" lon="-4.7394890">
        <ele>1170.9</ele>
        <time>2019-08-14T08:19:36Z</time>
      </trkpt>
      <trkpt lat="40.7302690" lon="-4.7394890">
        <ele>1171.0</ele>
        <time>2019-08-14T08:19:37Z</time>
      </trkpt>
      <trkpt lat="40.7302960" lon="-4.7394900">
        <ele>1171.1</ele>
        <time>2019-08-14T08:19:38Z</time>
      </trkpt>
      <trkpt lat="40.7303230" lon="-4.7394920">
        <ele>1171.2</ele>
        <time>2019-08-14T08:19:39Z</time>
      </trkpt>
      <trkpt lat="40.7303770" lon="-4.7394990">
        <ele>1171.4</ele>
        <time>2019-08-14T08:19:41Z</time>
      </trkpt>
      <trkpt lat="40.7304280" lon="-4.7395080">
        <ele>1171.7</ele>
        <time>2019-08-14T08:19:43Z</time>
      </trkpt>
      <trkpt lat="40.7304810" lon="-4.7395190">
        <ele>1172.0</ele>
        <time>2019-08-14T08:19:45Z</time>
      </trkpt>
      <trkpt lat="40.7305310" lon="-4.7395320">
        <ele>1172.2</ele>
        <time>2019-08-14T08:19:47Z</time>
      </trkpt>
      <trkpt lat="40.7305790" lon="-4.7395410">
        <ele>1172.5</ele>
        <time>2019-08-14T08:19:49Z</time>
      </trkpt>
      <trkpt lat="40.7306270" lon="-4.7395500">
        <ele>1172.7</ele>
        <time>2019-08-14T08:19:51Z</time>
      </trkpt>
      <trkpt lat="40.7306740" lon="-4.7395570">
        <ele>1172.9</ele>
        <time>2019-08-14T08:19:53Z</time>
      </trkpt>
      <trkpt lat="40.7307200" lon="-4.7395600">
        <ele>1173.2</ele>
        <time>2019-08-14T08:19:55Z</time>
      </trkpt>
      <trkpt lat="40.7307650" lon="-4.7395560">
        <ele>1173.4</ele>
        <time>2019-08-14T08:19:57Z</time>
      </trkpt>
      <trkpt lat="40.7308090" lon="-4.7395480">
        <ele>1173.7</ele>
        <time>2019-08-14T08:19:59Z</time>
      </trkpt>
      <trkpt lat="40.7308570" lon="-4.7395440">
        <ele>1173.9</ele>
        <time>2019-08-14T08:20:01Z</time>
      </trkpt>
      <trkpt lat="40.7309080" lon="-4.7395500">
        <ele>1174.3</ele>
        <time>2019-08-14T08:20:03Z</time>
      </trkpt>
      <trkpt lat="40.7309580" lon="-4.7395670">
        <ele>1174.3</ele>
        <time>2019-08-14T08:20:05Z</time>
      </trkpt>
      <trkpt lat="40.7310000" lon="-4.7396010">
        <ele>1174.3</ele>
        <time>2019-08-14T08:20:07Z</time>
      </trkpt>
      <trkpt lat="40.7310410" lon="-4.7396420">
        <ele>1174.4</ele>
        <time>2019-08-14T08:20:09Z</time>
      </trkpt>
      <trkpt lat="40.7310780" lon="-4.7396900">
        <ele>1174.4</ele>
        <time>2019-08-14T08:20:11Z</time>
      </trkpt>
      <trkpt lat="40.7310960" lon="-4.7397160">
        <ele>1174.4</ele>
        <time>2019-08-14T08:20:12Z</time>
      </trkpt>
      <trkpt lat="40.7311150" lon="-4.7397430">
        <ele>1174.4</ele>
        <time>2019-08-14T08:20:13Z</time>
      </trkpt>
      <trkpt lat="40.7311330" lon="-4.7397700">
        <ele>1174.4</ele>
        <time>2019-08-14T08:20:14Z</time>
      </trkpt>
      <trkpt lat="40.7311510" lon="-4.7397970">
        <ele>1174.4</ele>
        <time>2019-08-14T08:20:15Z</time>
      </trkpt>
      <trkpt lat="40.7311670" lon="-4.7398270">
        <ele>1174.5</ele>
        <time>2019-08-14T08:20:16Z</time>
      </trkpt>
      <trkpt lat="40.7311820" lon="-4.7398580">
        <ele>1174.5</ele>
        <time>2019-08-14T08:20:17Z</time>
      </trkpt>
      <trkpt lat="40.7311980" lon="-4.7398920">
        <ele>1174.5</ele>
        <time>2019-08-14T08:20:18Z</time>
      </trkpt>
      <trkpt lat="40.7312120" lon="-4.7399290">
        <ele>1174.6</ele>
        <time>2019-08-14T08:20:19Z</time>
      </trkpt>
      <trkpt lat="40.7312270" lon="-4.7399680">
        <ele>1174.7</ele>
        <time>2019-08-14T08:20:20Z</time>
      </trkpt>
      <trkpt lat="40.7312430" lon="-4.7400090">
        <ele>1174.9</ele>
        <time>2019-08-14T08:20:21Z</time>
      </trkpt>
      <trkpt lat="40.7312610" lon="-4.7400490">
        <ele>1175.1</ele>
        <time>2019-08-14T08:20:22Z</time>
      </trkpt>
      <trkpt lat="40.7312810" lon="-4.7400890">
        <ele>1175.2</ele>
        <time>2019-08-14T08:20:23Z</time>
      </trkpt>
      <trkpt lat="40.7313020" lon="-4.7401280">
        <ele>1175.2</ele>
        <time>2019-08-14T08:20:24Z</time>
      </trkpt>
      <trkpt lat="40.7313260" lon="-4.7401660">
        <ele>1175.3</ele>
        <time>2019-08-14T08:20:25Z</time>
      </trkpt>
      <trkpt lat="40.7313510" lon="-4.7402040">
        <ele>1175.3</ele>
        <time>2019-08-14T08:20:26Z</time>
      </trkpt>
      <trkpt lat="40.7313770" lon="-4.7402420">
        <ele>1175.3</ele>
        <time>2019-08-14T08:20:27Z</time>
      </trkpt>
      <trkpt lat="40.7314050" lon="-4.7402790">
        <ele>1175.3</ele>
        <time>2019-08-14T08:20:28Z</time>
      </trkpt>
      <trkpt lat="40.7314330" lon="-4.7403160">
        <ele>1175.3</ele>
        <time>2019-08-14T08:20:29Z</time>
      </trkpt>
      <trkpt lat="40.7314610" lon="-4.7403530">
        <ele>1175.3</ele>
        <time>2019-08-14T08:20:30Z</time>
      </trkpt>
      <trkpt lat="40.7314900" lon="-4.7403880">
        <ele>1175.3</ele>
        <time>2019-08-14T08:20:31Z</time>
      </trkpt>
      <trkpt lat="40.7315180" lon="-4.7404210">
        <ele>1175.3</ele>
        <time>2019-08-14T08:20:32Z</time>
      </trkpt>
      <trkpt lat="40.7315480" lon="-4.7404500">
        <ele>1175.3</ele>
        <time>2019-08-14T08:20:33Z</time>
      </trkpt>
      <trkpt lat="40.7315780" lon="-4.7404790">
        <ele>1175.2</ele>
        <time>2019-08-14T08:20:34Z</time>
      </trkpt>
      <trkpt lat="40.7316080" lon="-4.7405050">
        <ele>1175.2</ele>
        <time>2019-08-14T08:20:35Z</time>
      </trkpt>
      <trkpt lat="40.7316380" lon="-4.7405300">
        <ele>1175.1</ele>
        <time>2019-08-14T08:20:36Z</time>
      </trkpt>
      <trkpt lat="40.7316680" lon="-4.7405510">
        <ele>1175.1</ele>
        <time>2019-08-14T08:20:37Z</time>
      </trkpt>
      <trkpt lat="40.7316970" lon="-4.7405730">
        <ele>1175.0</ele>
        <time>2019-08-14T08:20:38Z</time>
      </trkpt>
      <trkpt lat="40.7317240" lon="-4.7405970">
        <ele>1174.9</ele>
        <time>2019-08-14T08:20:39Z</time>
      </trkpt>
      <trkpt lat="40.7317510" lon="-4.7406230">
        <ele>1174.8</ele>
        <time>2019-08-14T08:20:40Z</time>
      </trkpt>
      <trkpt lat="40.7317770" lon="-4.7406490">
        <ele>1174.7</ele>
        <time>2019-08-14T08:20:41Z</time>
      </trkpt>
      <trkpt lat="40.7318010" lon="-4.7406750">
        <ele>1174.5</ele>
        <time>2019-08-14T08:20:42Z</time>
      </trkpt>
      <trkpt lat="40.7318240" lon="-4.7407020">
        <ele>1174.4</ele>
        <time>2019-08-14T08:20:43Z</time>
      </trkpt>
      <trkpt lat="40.7318470" lon="-4.7407320">
        <ele>1174.2</ele>
        <time>2019-08-14T08:20:44Z</time>
      </trkpt>
      <trkpt lat="40.7318680" lon="-4.7407630">
        <ele>1174.0</ele>
        <time>2019-08-14T08:20:45Z</time>
      </trkpt>
      <trkpt lat="40.7318900" lon="-4.7407960">
        <ele>1173.8</ele>
        <time>2019-08-14T08:20:46Z</time>
      </trkpt>
      <trkpt lat="40.7319120" lon="-4.7408300">
        <ele>1173.6</ele>
        <time>2019-08-14T08:20:47Z</time>
      </trkpt>
      <trkpt lat="40.7319330" lon="-4.7408670">
        <ele>1173.4</ele>
        <time>2019-08-14T08:20:48Z</time>
      </trkpt>
      <trkpt lat="40.7319560" lon="-4.7409040">
        <ele>1173.1</ele>
        <time>2019-08-14T08:20:49Z</time>
      </trkpt>
      <trkpt lat="40.7319800" lon="-4.7409430">
        <ele>1172.8</ele>
        <time>2019-08-14T08:20:50Z</time>
      </trkpt>
      <trkpt lat="40.7320060" lon="-4.7409870">
        <ele>1172.4</ele>
        <time>2019-08-14T08:20:51Z</time>
      </trkpt>
      <trkpt lat="40.7320320" lon="-4.7410340">
        <ele>1172.0</ele>
        <time>2019-08-14T08:20:52Z</time>
      </trkpt>
      <trkpt lat="40.7320620" lon="-4.7410800">
        <ele>1171.6</ele>
        <time>2019-08-14T08:20:53Z</time>
      </trkpt>
      <trkpt lat="40.7320950" lon="-4.7411260">
        <ele>1171.3</ele>
        <time>2019-08-14T08:20:54Z</time>
      </trkpt>
      <trkpt lat="40.7321310" lon="-4.7411760">
        <ele>1171.0</ele>
        <time>2019-08-14T08:20:55Z</time>
      </trkpt>
      <trkpt lat="40.7321680" lon="-4.7412270">
        <ele>1170.8</ele>
        <time>2019-08-14T08:20:56Z</time>
      </trkpt>
      <trkpt lat="40.7322060" lon="-4.7412800">
        <ele>1170.5</ele>
        <time>2019-08-14T08:20:57Z</time>
      </trkpt>
      <trkpt lat="40.7322420" lon="-4.7413340">
        <ele>1170.4</ele>
        <time>2019-08-14T08:20:58Z</time>
      </trkpt>
      <trkpt lat="40.7322750" lon="-4.7413880">
        <ele>1170.2</ele>
        <time>2019-08-14T08:20:59Z</time>
      </trkpt>
      <trkpt lat="40.7323080" lon="-4.7414380">
        <ele>1170.0</ele>
        <time>2019-08-14T08:21:00Z</time>
      </trkpt>
      <trkpt lat="40.7323400" lon="-4.7414870">
        <ele>1169.8</ele>
        <time>2019-08-14T08:21:01Z</time>
      </trkpt>
      <trkpt lat="40.7323730" lon="-4.7415360">
        <ele>1169.4</ele>
        <time>2019-08-14T08:21:02Z</time>
      </trkpt>
      <trkpt lat="40.7324090" lon="-4.7415880">
        <ele>1168.9</ele>
        <time>2019-08-14T08:21:03Z</time>
      </trkpt>
      <trkpt lat="40.7324450" lon="-4.7416430">
        <ele>1168.3</ele>
        <time>2019-08-14T08:21:04Z</time>
      </trkpt>
      <trkpt lat="40.7324770" lon="-4.7417070">
        <ele>1168.1</ele>
        <time>2019-08-14T08:21:05Z</time>
      </trkpt>
      <trkpt lat="40.7324990" lon="-4.7417820">
        <ele>1167.8</ele>
        <time>2019-08-14T08:21:06Z</time>
      </trkpt>
      <trkpt lat="40.7325120" lon="-4.7418650">
        <ele>1167.6</ele>
        <time>2019-08-14T08:21:07Z</time>
      </trkpt>
      <trkpt lat="40.7325200" lon="-4.7419490">
        <ele>1167.3</ele>
        <time>2019-08-14T08:21:08Z</time>
      </trkpt>
      <trkpt lat="40.7325300" lon="-4.7420320">
        <ele>1167.1</ele>
        <time>2019-08-14T08:21:09Z</time>
      </trkpt>
      <trkpt lat="40.7325480" lon="-4.7421140">
        <ele>1166.7</ele>
        <time>2019-08-14T08:21:10Z</time>
      </trkpt>
      <trkpt lat="40.7325770" lon="-4.7421880">
        <ele>1166.4</ele>
        <time>2019-08-14T08:21:11Z</time>
      </trkpt>
      <trkpt lat="40.7326160" lon="-4.7422530">
        <ele>1166.0</ele>
        <time>2019-08-14T08:21:12Z</time>
      </trkpt>
      <trkpt lat="40.7326620" lon="-4.7423100">
        <ele>1165.7</ele>
        <time>2019-08-14T08:21:13Z</time>
      </trkpt>
      <trkpt lat="40.7327090" lon="-4.7423620">
        <ele>1165.3</ele>
        <time>2019-08-14T08:21:14Z</time>
      </trkpt>
      <trkpt lat="40.7327550" lon="-4.7424140">
        <ele>1164.9</ele>
        <time>2019-08-14T08:21:15Z</time>
      </trkpt>
      <trkpt lat="40.7328000" lon="-4.7424630">
        <ele>1164.1</ele>
        <time>2019-08-14T08:21:16Z</time>
      </trkpt>
      <trkpt lat="40.7328410" lon="-4.7425140">
        <ele>1163.5</ele>
        <time>2019-08-14T08:21:17Z</time>
      </trkpt>
      <trkpt lat="40.7328730" lon="-4.7425740">
        <ele>1162.9</ele>
        <time>2019-08-14T08:21:18Z</time>
      </trkpt>
      <trkpt lat="40.7328960" lon="-4.7426440">
        <ele>1162.3</ele>
        <time>2019-08-14T08:21:19Z</time>
      </trkpt>
      <trkpt lat="40.7329120" lon="-4.7427180">
        <ele>1161.6</ele>
        <time>2019-08-14T08:21:20Z</time>
      </trkpt>
      <trkpt lat="40.7329210" lon="-4.7427910">
        <ele>1161.1</ele>
        <time>2019-08-14T08:21:21Z</time>
      </trkpt>
      <trkpt lat="40.7329240" lon="-4.7428620">
        <ele>1160.6</ele>
        <time>2019-08-14T08:21:22Z</time>
      </trkpt>
      <trkpt lat="40.7329270" lon="-4.7429310">
        <ele>1160.1</ele>
        <time>2019-08-14T08:21:23Z</time>
      </trkpt>
      <trkpt lat="40.7329360" lon="-4.7429980">
        <ele>1159.6</ele>
        <time>2019-08-14T08:21:24Z</time>
      </trkpt>
      <trkpt lat="40.7329510" lon="-4.7430600">
        <ele>1159.2</ele>
        <time>2019-08-14T08:21:25Z</time>
      </trkpt>
      <trkpt lat="40.7329730" lon="-4.7431160">
        <ele>1158.8</ele>
        <time>2019-08-14T08:21:26Z</time>
      </trkpt>
      <trkpt lat="40.7330030" lon="-4.7431630">
        <ele>1158.4</ele>
        <time>2019-08-14T08:21:27Z</time>
      </trkpt>
      <trkpt lat="40.7330380" lon="-4.7432000">
        <ele>1158.0</ele>
        <time>2019-08-14T08:21:28Z</time>
      </trkpt>
      <trkpt lat="40.7330730" lon="-4.7432270">
        <ele>1157.8</ele>
        <time>2019-08-14T08:21:29Z</time>
      </trkpt>
      <trkpt lat="40.7331070" lon="-4.7432500">
        <ele>1157.5</ele>
        <time>2019-08-14T08:21:30Z</time>
      </trkpt>
      <trkpt lat="40.7331400" lon="-4.7432720">
        <ele>1157.2</ele>
        <time>2019-08-14T08:21:31Z</time>
      </trkpt>
      <trkpt lat="40.7331730" lon="-4.7432990">
        <ele>1156.7</ele>
        <time>2019-08-14T08:21:32Z</time>
      </trkpt>
      <trkpt lat="40.7332080" lon="-4.7433330">
        <ele>1156.4</ele>
        <time>2019-08-14T08:21:33Z</time>
      </trkpt>
      <trkpt lat="40.7332440" lon="-4.7433780">
        <ele>1156.0</ele>
        <time>2019-08-14T08:21:34Z</time>
      </trkpt>
      <trkpt lat="40.7332750" lon="-4.7434230">
        <ele>1155.6</ele>
        <time>2019-08-14T08:21:35Z</time>
      </trkpt>
      <trkpt lat="40.7333000" lon="-4.7434610">
        <ele>1155.3</ele>
        <time>2019-08-14T08:21:36Z</time>
      </trkpt>
      <trkpt lat="40.7333250" lon="-4.7434870">
        <ele>1155.1</ele>
        <time>2019-08-14T08:21:37Z</time>
      </trkpt>
      <trkpt lat="40.7333510" lon="-4.7434980">
        <ele>1154.9</ele>
        <time>2019-08-14T08:21:38Z</time>
      </trkpt>
      <trkpt lat="40.7334020" lon="-4.7434790">
        <ele>1154.5</ele>
        <time>2019-08-14T08:21:40Z</time>
      </trkpt>
      <trkpt lat="40.7334310" lon="-4.7434570">
        <ele>1153.9</ele>
        <time>2019-08-14T08:21:41Z</time>
      </trkpt>
      <trkpt lat="40.7334620" lon="-4.7434360">
        <ele>1153.9</ele>
        <time>2019-08-14T08:21:42Z</time>
      </trkpt>
      <trkpt lat="40.7334980" lon="-4.7434230">
        <ele>1154.0</ele>
        <time>2019-08-14T08:21:43Z</time>
      </trkpt>
      <trkpt lat="40.7335380" lon="-4.7434170">
        <ele>1153.8</ele>
        <time>2019-08-14T08:21:44Z</time>
      </trkpt>
      <trkpt lat="40.7335820" lon="-4.7434190">
        <ele>1153.6</ele>
        <time>2019-08-14T08:21:45Z</time>
      </trkpt>
      <trkpt lat="40.7336270" lon="-4.7434280">
        <ele>1153.4</ele>
        <time>2019-08-14T08:21:46Z</time>
      </trkpt>
      <trkpt lat="40.7336740" lon="-4.7434400">
        <ele>1153.2</ele>
        <time>2019-08-14T08:21:47Z</time>
      </trkpt>
      <trkpt lat="40.7337200" lon="-4.7434520">
        <ele>1153.1</ele>
        <time>2019-08-14T08:21:48Z</time>
      </trkpt>
      <trkpt lat="40.7337670" lon="-4.7434620">
        <ele>1153.0</ele>
        <time>2019-08-14T08:21:49Z</time>
      </trkpt>
      <trkpt lat="40.7338150" lon="-4.7434690">
        <ele>1152.9</ele>
        <time>2019-08-14T08:21:50Z</time>
      </trkpt>
      <trkpt lat="40.7338610" lon="-4.7434690">
        <ele>1152.7</ele>
        <time>2019-08-14T08:21:51Z</time>
      </trkpt>
      <trkpt lat="40.7339060" lon="-4.7434670">
        <ele>1152.6</ele>
        <time>2019-08-14T08:21:52Z</time>
      </trkpt>
      <trkpt lat="40.7339490" lon="-4.7434720">
        <ele>1152.4</ele>
        <time>2019-08-14T08:21:53Z</time>
      </trkpt>
      <trkpt lat="40.7339880" lon="-4.7434900">
        <ele>1152.2</ele>
        <time>2019-08-14T08:21:54Z</time>
      </trkpt>
      <trkpt lat="40.7340240" lon="-4.7435220">
        <ele>1152.0</ele>
        <time>2019-08-14T08:21:55Z</time>
      </trkpt>
      <trkpt lat="40.7340580" lon="-4.7435610">
        <ele>1151.8</ele>
        <time>2019-08-14T08:21:56Z</time>
      </trkpt>
      <trkpt lat="40.7340930" lon="-4.7436020">
        <ele>1151.5</ele>
        <time>2019-08-14T08:21:57Z</time>
      </trkpt>
      <trkpt lat="40.7341330" lon="-4.7436350">
        <ele>1151.3</ele>
        <time>2019-08-14T08:21:58Z</time>
      </trkpt>
      <trkpt lat="40.7341780" lon="-4.7436530">
        <ele>1151.0</ele>
        <time>2019-08-14T08:21:59Z</time>
      </trkpt>
      <trkpt lat="40.7342270" lon="-4.7436550">
        <ele>1150.7</ele>
        <time>2019-08-14T08:22:00Z</time>
      </trkpt>
      <trkpt lat="40.7342800" lon="-4.7436490">
        <ele>1150.3</ele>
        <time>2019-08-14T08:22:01Z</time>
      </trkpt>
      <trkpt lat="40.7343380" lon="-4.7436420">
        <ele>1149.9</ele>
        <time>2019-08-14T08:22:02Z</time>
      </trkpt>
      <trkpt lat="40.7344010" lon="-4.7436320">
        <ele>1149.4</ele>
        <time>2019-08-14T08:22:03Z</time>
      </trkpt>
      <trkpt lat="40.7344650" lon="-4.7436190">
        <ele>1149.0</ele>
        <time>2019-08-14T08:22:04Z</time>
      </trkpt>
      <trkpt lat="40.7345290" lon="-4.7436060">
        <ele>1148.5</ele>
        <time>2019-08-14T08:22:05Z</time>
      </trkpt>
      <trkpt lat="40.7345930" lon="-4.7435950">
        <ele>1147.9</ele>
        <time>2019-08-14T08:22:06Z</time>
      </trkpt>
      <trkpt lat="40.7346480" lon="-4.7435870">
        <ele>1147.4</ele>
        <time>2019-08-14T08:22:07Z</time>
      </trkpt>
      <trkpt lat="40.7346860" lon="-4.7435830">
        <ele>1147.0</ele>
        <time>2019-08-14T08:22:08Z</time>
      </trkpt>
      <trkpt lat="40.7347210" lon="-4.7435930">
        <ele>1146.7</ele>
        <time>2019-08-14T08:22:10Z</time>
      </trkpt>
      <trkpt lat="40.7347340" lon="-4.7436270">
        <ele>1146.5</ele>
        <time>2019-08-14T08:22:12Z</time>
      </trkpt>
      <trkpt lat="40.7347490" lon="-4.7436800">
        <ele>1146.1</ele>
        <time>2019-08-14T08:22:14Z</time>
      </trkpt>
      <trkpt lat="40.7347630" lon="-4.7437460">
        <ele>1145.6</ele>
        <time>2019-08-14T08:22:16Z</time>
      </trkpt>
      <trkpt lat="40.7347680" lon="-4.7437820">
        <ele>1145.4</ele>
        <time>2019-08-14T08:22:17Z</time>
      </trkpt>
      <trkpt lat="40.7347670" lon="-4.7438490">
        <ele>1145.0</ele>
        <time>2019-08-14T08:22:19Z</time>
      </trkpt>
      <trkpt lat="40.7347720" lon="-4.7439160">
        <ele>1144.7</ele>
        <time>2019-08-14T08:22:21Z</time>
      </trkpt>
      <trkpt lat="40.7347880" lon="-4.7439750">
        <ele>1144.3</ele>
        <time>2019-08-14T08:22:23Z</time>
      </trkpt>
      <trkpt lat="40.7348070" lon="-4.7440270">
        <ele>1144.1</ele>
        <time>2019-08-14T08:22:25Z</time>
      </trkpt>
      <trkpt lat="40.7348240" lon="-4.7440710">
        <ele>1143.8</ele>
        <time>2019-08-14T08:22:27Z</time>
      </trkpt>
      <trkpt lat="40.7348410" lon="-4.7441100">
        <ele>1143.6</ele>
        <time>2019-08-14T08:22:29Z</time>
      </trkpt>
      <trkpt lat="40.7348590" lon="-4.7441500">
        <ele>1143.4</ele>
        <time>2019-08-14T08:22:31Z</time>
      </trkpt>
      <trkpt lat="40.7348800" lon="-4.7442100">
        <ele>1143.1</ele>
        <time>2019-08-14T08:22:33Z</time>
      </trkpt>
      <trkpt lat="40.7348890" lon="-4.7442480">
        <ele>1143.0</ele>
        <time>2019-08-14T08:22:34Z</time>
      </trkpt>
      <trkpt lat="40.7348940" lon="-4.7442900">
        <ele>1142.8</ele>
        <time>2019-08-14T08:22:35Z</time>
      </trkpt>
      <trkpt lat="40.7348980" lon="-4.7443350">
        <ele>1142.6</ele>
        <time>2019-08-14T08:22:36Z</time>
      </trkpt>
      <trkpt lat="40.7349060" lon="-4.7443830">
        <ele>1142.4</ele>
        <time>2019-08-14T08:22:37Z</time>
      </trkpt>
      <trkpt lat="40.7349180" lon="-4.7444330">
        <ele>1142.3</ele>
        <time>2019-08-14T08:22:38Z</time>
      </trkpt>
      <trkpt lat="40.7349330" lon="-4.7444860">
        <ele>1142.2</ele>
        <time>2019-08-14T08:22:39Z</time>
      </trkpt>
      <trkpt lat="40.7349500" lon="-4.7445400">
        <ele>1142.1</ele>
        <time>2019-08-14T08:22:40Z</time>
      </trkpt>
      <trkpt lat="40.7349660" lon="-4.7445960">
        <ele>1142.0</ele>
        <time>2019-08-14T08:22:41Z</time>
      </trkpt>
      <trkpt lat="40.7349840" lon="-4.7446520">
        <ele>1141.8</ele>
        <time>2019-08-14T08:22:42Z</time>
      </trkpt>
      <trkpt lat="40.7350050" lon="-4.7447090">
        <ele>1141.7</ele>
        <time>2019-08-14T08:22:43Z</time>
      </trkpt>
      <trkpt lat="40.7350310" lon="-4.7447740">
        <ele>1141.5</ele>
        <time>2019-08-14T08:22:44Z</time>
      </trkpt>
      <trkpt lat="40.7350600" lon="-4.7448500">
        <ele>1141.2</ele>
        <time>2019-08-14T08:22:45Z</time>
      </trkpt>
      <trkpt lat="40.7350910" lon="-4.7449330">
        <ele>1140.9</ele>
        <time>2019-08-14T08:22:46Z</time>
      </trkpt>
      <trkpt lat="40.7351190" lon="-4.7450200">
        <ele>1140.6</ele>
        <time>2019-08-14T08:22:47Z</time>
      </trkpt>
      <trkpt lat="40.7351410" lon="-4.7451100">
        <ele>1140.3</ele>
        <time>2019-08-14T08:22:48Z</time>
      </trkpt>
      <trkpt lat="40.7351570" lon="-4.7452000">
        <ele>1140.1</ele>
        <time>2019-08-14T08:22:49Z</time>
      </trkpt>
      <trkpt lat="40.7351680" lon="-4.7452900">
        <ele>1139.8</ele>
        <time>2019-08-14T08:22:50Z</time>
      </trkpt>
      <trkpt lat="40.7351730" lon="-4.7453770">
        <ele>1139.6</ele>
        <time>2019-08-14T08:22:51Z</time>
      </trkpt>
      <trkpt lat="40.7351790" lon="-4.7454580">
        <ele>1139.4</ele>
        <time>2019-08-14T08:22:52Z</time>
      </trkpt>
      <trkpt lat="40.7351910" lon="-4.7455330">
        <ele>1139.3</ele>
        <time>2019-08-14T08:22:53Z</time>
      </trkpt>
      <trkpt lat="40.7352090" lon="-4.7456040">
        <ele>1139.1</ele>
        <time>2019-08-14T08:22:54Z</time>
      </trkpt>
      <trkpt lat="40.7352310" lon="-4.7456770">
        <ele>1138.9</ele>
        <time>2019-08-14T08:22:55Z</time>
      </trkpt>
      <trkpt lat="40.7352580" lon="-4.7457560">
        <ele>1138.7</ele>
        <time>2019-08-14T08:22:56Z</time>
      </trkpt>
      <trkpt lat="40.7352880" lon="-4.7458410">
        <ele>1138.6</ele>
        <time>2019-08-14T08:22:57Z</time>
      </trkpt>
      <trkpt lat="40.7353170" lon="-4.7459300">
        <ele>1138.3</ele>
        <time>2019-08-14T08:22:58Z</time>
      </trkpt>
      <trkpt lat="40.7353420" lon="-4.7460190">
        <ele>1138.0</ele>
        <time>2019-08-14T08:22:59Z</time>
      </trkpt>
      <trkpt lat="40.7353680" lon="-4.7461040">
        <ele>1137.6</ele>
        <time>2019-08-14T08:23:00Z</time>
      </trkpt>
      <trkpt lat="40.7353940" lon="-4.7461810">
        <ele>1137.3</ele>
        <time>2019-08-14T08:23:01Z</time>
      </trkpt>
      <trkpt lat="40.7354200" lon="-4.7462520">
        <ele>1137.0</ele>
        <time>2019-08-14T08:23:02Z</time>
      </trkpt>
      <trkpt lat="40.7354480" lon="-4.7463120">
        <ele>1136.6</ele>
        <time>2019-08-14T08:23:03Z</time>
      </trkpt>
      <trkpt lat="40.7354860" lon="-4.7463620">
        <ele>1136.3</ele>
        <time>2019-08-14T08:23:04Z</time>
      </trkpt>
      <trkpt lat="40.7355350" lon="-4.7464010">
        <ele>1135.8</ele>
        <time>2019-08-14T08:23:05Z</time>
      </trkpt>
      <trkpt lat="40.7355930" lon="-4.7464320">
        <ele>1135.3</ele>
        <time>2019-08-14T08:23:06Z</time>
      </trkpt>
      <trkpt lat="40.7356560" lon="-4.7464580">
        <ele>1134.8</ele>
        <time>2019-08-14T08:23:07Z</time>
      </trkpt>
      <trkpt lat="40.7357220" lon="-4.7464860">
        <ele>1134.2</ele>
        <time>2019-08-14T08:23:08Z</time>
      </trkpt>
      <trkpt lat="40.7357850" lon="-4.7465180">
        <ele>1133.6</ele>
        <time>2019-08-14T08:23:09Z</time>
      </trkpt>
      <trkpt lat="40.7358450" lon="-4.7465520">
        <ele>1133.0</ele>
        <time>2019-08-14T08:23:10Z</time>
      </trkpt>
      <trkpt lat="40.7358960" lon="-4.7465870">
        <ele>1132.5</ele>
        <time>2019-08-14T08:23:11Z</time>
      </trkpt>
      <trkpt lat="40.7359420" lon="-4.7466230">
        <ele>1132.0</ele>
        <time>2019-08-14T08:23:12Z</time>
      </trkpt>
      <trkpt lat="40.7359850" lon="-4.7466540">
        <ele>1131.5</ele>
        <time>2019-08-14T08:23:13Z</time>
      </trkpt>
      <trkpt lat="40.7360260" lon="-4.7466860">
        <ele>1131.1</ele>
        <time>2019-08-14T08:23:14Z</time>
      </trkpt>
      <trkpt lat="40.7360660" lon="-4.7467230">
        <ele>1130.7</ele>
        <time>2019-08-14T08:23:15Z</time>
      </trkpt>
      <trkpt lat="40.7361080" lon="-4.7467680">
        <ele>1130.2</ele>
        <time>2019-08-14T08:23:16Z</time>
      </trkpt>
      <trkpt lat="40.7361540" lon="-4.7468220">
        <ele>1129.7</ele>
        <time>2019-08-14T08:23:17Z</time>
      </trkpt>
      <trkpt lat="40.7362030" lon="-4.7468810">
        <ele>1129.2</ele>
        <time>2019-08-14T08:23:18Z</time>
      </trkpt>
      <trkpt lat="40.7362520" lon="-4.7469490">
        <ele>1128.7</ele>
        <time>2019-08-14T08:23:19Z</time>
      </trkpt>
      <trkpt lat="40.7362970" lon="-4.7470220">
        <ele>1128.2</ele>
        <time>2019-08-14T08:23:20Z</time>
      </trkpt>
      <trkpt lat="40.7363370" lon="-4.7471030">
        <ele>1127.7</ele>
        <time>2019-08-14T08:23:21Z</time>
      </trkpt>
      <trkpt lat="40.7363750" lon="-4.7471910">
        <ele>1127.2</ele>
        <time>2019-08-14T08:23:22Z</time>
      </trkpt>
      <trkpt lat="40.7364100" lon="-4.7472770">
        <ele>1126.7</ele>
        <time>2019-08-14T08:23:23Z</time>
      </trkpt>
      <trkpt lat="40.7364430" lon="-4.7473590">
        <ele>1126.3</ele>
        <time>2019-08-14T08:23:24Z</time>
      </trkpt>
      <trkpt lat="40.7364790" lon="-4.7474330">
        <ele>1126.0</ele>
        <time>2019-08-14T08:23:25Z</time>
      </trkpt>
      <trkpt lat="40.7365230" lon="-4.7474960">
        <ele>1125.6</ele>
        <time>2019-08-14T08:23:26Z</time>
      </trkpt>
      <trkpt lat="40.7365760" lon="-4.7475490">
        <ele>1125.2</ele>
        <time>2019-08-14T08:23:27Z</time>
      </trkpt>
      <trkpt lat="40.7366360" lon="-4.7475970">
        <ele>1124.8</ele>
        <time>2019-08-14T08:23:28Z</time>
      </trkpt>
      <trkpt lat="40.7367010" lon="-4.7476360">
        <ele>1124.4</ele>
        <time>2019-08-14T08:23:29Z</time>
      </trkpt>
      <trkpt lat="40.7367650" lon="-4.7476750">
        <ele>1124.1</ele>
        <time>2019-08-14T08:23:30Z</time>
      </trkpt>
      <trkpt lat="40.7368300" lon="-4.7477080">
        <ele>1123.7</ele>
        <time>2019-08-14T08:23:31Z</time>
      </trkpt>
      <trkpt lat="40.7368980" lon="-4.7477330">
        <ele>1123.4</ele>
        <time>2019-08-14T08:23:32Z</time>
      </trkpt>
      <trkpt lat="40.7369660" lon="-4.7477510">
        <ele>1123.1</ele>
        <time>2019-08-14T08:23:33Z</time>
      </trkpt>
      <trkpt lat="40.7370330" lon="-4.7477670">
        <ele>1122.8</ele>
        <time>2019-08-14T08:23:34Z</time>
      </trkpt>
      <trkpt lat="40.7370990" lon="-4.7477860">
        <ele>1122.6</ele>
        <time>2019-08-14T08:23:35Z</time>
      </trkpt>
      <trkpt lat="40.7371640" lon="-4.7478120">
        <ele>1122.4</ele>
        <time>2019-08-14T08:23:36Z</time>
      </trkpt>
      <trkpt lat="40.7372270" lon="-4.7478450">
        <ele>1122.2</ele>
        <time>2019-08-14T08:23:37Z</time>
      </trkpt>
      <trkpt lat="40.7372920" lon="-4.7478800">
        <ele>1121.9</ele>
        <time>2019-08-14T08:23:38Z</time>
      </trkpt>
      <trkpt lat="40.7373590" lon="-4.7479110">
        <ele>1121.6</ele>
        <time>2019-08-14T08:23:39Z</time>
      </trkpt>
      <trkpt lat="40.7374300" lon="-4.7479380">
        <ele>1121.3</ele>
        <time>2019-08-14T08:23:40Z</time>
      </trkpt>
      <trkpt lat="40.7375040" lon="-4.7479670">
        <ele>1121.0</ele>
        <time>2019-08-14T08:23:41Z</time>
      </trkpt>
      <trkpt lat="40.7375770" lon="-4.7479960">
        <ele>1120.7</ele>
        <time>2019-08-14T08:23:42Z</time>
      </trkpt>
      <trkpt lat="40.7376530" lon="-4.7480250">
        <ele>1120.6</ele>
        <time>2019-08-14T08:23:43Z</time>
      </trkpt>
      <trkpt lat="40.7377280" lon="-4.7480540">
        <ele>1120.4</ele>
        <time>2019-08-14T08:23:44Z</time>
      </trkpt>
      <trkpt lat="40.7378050" lon="-4.7480790">
        <ele>1120.2</ele>
        <time>2019-08-14T08:23:45Z</time>
      </trkpt>
      <trkpt lat="40.7378820" lon="-4.7481020">
        <ele>1120.1</ele>
        <time>2019-08-14T08:23:46Z</time>
      </trkpt>
      <trkpt lat="40.7379560" lon="-4.7481230">
        <ele>1119.9</ele>
        <time>2019-08-14T08:23:47Z</time>
      </trkpt>
      <trkpt lat="40.7380270" lon="-4.7481430">
        <ele>1119.8</ele>
        <time>2019-08-14T08:23:48Z</time>
      </trkpt>
      <trkpt lat="40.7380960" lon="-4.7481620">
        <ele>1119.7</ele>
        <time>2019-08-14T08:23:49Z</time>
      </trkpt>
      <trkpt lat="40.7381620" lon="-4.7481780">
        <ele>1119.6</ele>
        <time>2019-08-14T08:23:50Z</time>
      </trkpt>
      <trkpt lat="40.7382230" lon="-4.7481970">
        <ele>1119.5</ele>
        <time>2019-08-14T08:23:51Z</time>
      </trkpt>
      <trkpt lat="40.7382790" lon="-4.7482190">
        <ele>1119.3</ele>
        <time>2019-08-14T08:23:52Z</time>
      </trkpt>
      <trkpt lat="40.7383270" lon="-4.7482420">
        <ele>1119.0</ele>
        <time>2019-08-14T08:23:53Z</time>
      </trkpt>
      <trkpt lat="40.7383650" lon="-4.7482640">
        <ele>1118.9</ele>
        <time>2019-08-14T08:23:54Z</time>
      </trkpt>
      <trkpt lat="40.7383990" lon="-4.7482850">
        <ele>1118.7</ele>
        <time>2019-08-14T08:23:55Z</time>
      </trkpt>
      <trkpt lat="40.7384350" lon="-4.7483010">
        <ele>1118.5</ele>
        <time>2019-08-14T08:23:56Z</time>
      </trkpt>
      <trkpt lat="40.7384740" lon="-4.7483080">
        <ele>1118.3</ele>
        <time>2019-08-14T08:23:57Z</time>
      </trkpt>
      <trkpt lat="40.7385170" lon="-4.7483040">
        <ele>1118.0</ele>
        <time>2019-08-14T08:23:58Z</time>
      </trkpt>
      <trkpt lat="40.7385590" lon="-4.7482870">
        <ele>1117.9</ele>
        <time>2019-08-14T08:23:59Z</time>
      </trkpt>
      <trkpt lat="40.7386000" lon="-4.7482550">
        <ele>1117.7</ele>
        <time>2019-08-14T08:24:00Z</time>
      </trkpt>
      <trkpt lat="40.7386400" lon="-4.7482150">
        <ele>1117.5</ele>
        <time>2019-08-14T08:24:01Z</time>
      </trkpt>
      <trkpt lat="40.7386820" lon="-4.7481740">
        <ele>1117.3</ele>
        <time>2019-08-14T08:24:02Z</time>
      </trkpt>
      <trkpt lat="40.7387220" lon="-4.7481370">
        <ele>1117.1</ele>
        <time>2019-08-14T08:24:03Z</time>
      </trkpt>
      <trkpt lat="40.7387610" lon="-4.7481050">
        <ele>1116.9</ele>
        <time>2019-08-14T08:24:04Z</time>
      </trkpt>
      <trkpt lat="40.7387990" lon="-4.7480770">
        <ele>1116.8</ele>
        <time>2019-08-14T08:24:05Z</time>
      </trkpt>
      <trkpt lat="40.7388340" lon="-4.7480520">
        <ele>1116.6</ele>
        <time>2019-08-14T08:24:06Z</time>
      </trkpt>
      <trkpt lat="40.7388670" lon="-4.7480290">
        <ele>1116.5</ele>
        <time>2019-08-14T08:24:07Z</time>
      </trkpt>
      <trkpt lat="40.7388980" lon="-4.7480090">
        <ele>1116.4</ele>
        <time>2019-08-14T08:24:08Z</time>
      </trkpt>
      <trkpt lat="40.7389300" lon="-4.7479950">
        <ele>1116.4</ele>
        <time>2019-08-14T08:24:09Z</time>
      </trkpt>
      <trkpt lat="40.7389640" lon="-4.7479840">
        <ele>1116.3</ele>
        <time>2019-08-14T08:24:10Z</time>
      </trkpt>
      <trkpt lat="40.7390000" lon="-4.7479720">
        <ele>1116.2</ele>
        <time>2019-08-14T08:24:11Z</time>
      </trkpt>
      <trkpt lat="40.7390370" lon="-4.7479560">
        <ele>1116.1</ele>
        <time>2019-08-14T08:24:12Z</time>
      </trkpt>
      <trkpt lat="40.7390740" lon="-4.7479360">
        <ele>1115.9</ele>
        <time>2019-08-14T08:24:13Z</time>
      </trkpt>
      <trkpt lat="40.7391100" lon="-4.7479170">
        <ele>1115.8</ele>
        <time>2019-08-14T08:24:14Z</time>
      </trkpt>
      <trkpt lat="40.7391450" lon="-4.7479010">
        <ele>1115.7</ele>
        <time>2019-08-14T08:24:15Z</time>
      </trkpt>
      <trkpt lat="40.7391800" lon="-4.7478850">
        <ele>1115.7</ele>
        <time>2019-08-14T08:24:16Z</time>
      </trkpt>
      <trkpt lat="40.7392170" lon="-4.7478730">
        <ele>1115.6</ele>
        <time>2019-08-14T08:24:17Z</time>
      </trkpt>
      <trkpt lat="40.7392560" lon="-4.7478620">
        <ele>1115.6</ele>
        <time>2019-08-14T08:24:18Z</time>
      </trkpt>
      <trkpt lat="40.7392980" lon="-4.7478480">
        <ele>1115.6</ele>
        <time>2019-08-14T08:24:19Z</time>
      </trkpt>
      <trkpt lat="40.7393430" lon="-4.7478330">
        <ele>1115.5</ele>
        <time>2019-08-14T08:24:20Z</time>
      </trkpt>
      <trkpt lat="40.7393890" lon="-4.7478160">
        <ele>1115.4</ele>
        <time>2019-08-14T08:24:21Z</time>
      </trkpt>
      <trkpt lat="40.7394330" lon="-4.7477980">
        <ele>1115.4</ele>
        <time>2019-08-14T08:24:22Z</time>
      </trkpt>
      <trkpt lat="40.7394730" lon="-4.7477800">
        <ele>1115.3</ele>
        <time>2019-08-14T08:24:23Z</time>
      </trkpt>
      <trkpt lat="40.7395130" lon="-4.7477630">
        <ele>1115.2</ele>
        <time>2019-08-14T08:24:24Z</time>
      </trkpt>
      <trkpt lat="40.7395500" lon="-4.7477510">
        <ele>1115.1</ele>
        <time>2019-08-14T08:24:25Z</time>
      </trkpt>
      <trkpt lat="40.7395850" lon="-4.7477410">
        <ele>1115.1</ele>
        <time>2019-08-14T08:24:26Z</time>
      </trkpt>
      <trkpt lat="40.7396190" lon="-4.7477250">
        <ele>1115.0</ele>
        <time>2019-08-14T08:24:27Z</time>
      </trkpt>
      <trkpt lat="40.7396530" lon="-4.7477010">
        <ele>1114.8</ele>
        <time>2019-08-14T08:24:28Z</time>
      </trkpt>
      <trkpt lat="40.7396860" lon="-4.7476740">
        <ele>1114.7</ele>
        <time>2019-08-14T08:24:29Z</time>
      </trkpt>
      <trkpt lat="40.7397210" lon="-4.7476440">
        <ele>1114.6</ele>
        <time>2019-08-14T08:24:30Z</time>
      </trkpt>
      <trkpt lat="40.7397550" lon="-4.7476140">
        <ele>1114.5</ele>
        <time>2019-08-14T08:24:31Z</time>
      </trkpt>
      <trkpt lat="40.7397890" lon="-4.7475830">
        <ele>1114.3</ele>
        <time>2019-08-14T08:24:32Z</time>
      </trkpt>
      <trkpt lat="40.7398220" lon="-4.7475470">
        <ele>1114.2</ele>
        <time>2019-08-14T08:24:33Z</time>
      </trkpt>
      <trkpt lat="40.7398540" lon="-4.7475100">
        <ele>1114.0</ele>
        <time>2019-08-14T08:24:34Z</time>
      </trkpt>
      <trkpt lat="40.7398890" lon="-4.7474750">
        <ele>1113.9</ele>
        <time>2019-08-14T08:24:35Z</time>
      </trkpt>
      <trkpt lat="40.7399250" lon="-4.7474420">
        <ele>1113.8</ele>
        <time>2019-08-14T08:24:36Z</time>
      </trkpt>
      <trkpt lat="40.7399620" lon="-4.7474120">
        <ele>1113.7</ele>
        <time>2019-08-14T08:24:37Z</time>
      </trkpt>
      <trkpt lat="40.7400010" lon="-4.7473830">
        <ele>1113.6</ele>
        <time>2019-08-14T08:24:38Z</time>
      </trkpt>
      <trkpt lat="40.7400420" lon="-4.7473550">
        <ele>1113.5</ele>
        <time>2019-08-14T08:24:39Z</time>
      </trkpt>
      <trkpt lat="40.7400870" lon="-4.7473300">
        <ele>1113.4</ele>
        <time>2019-08-14T08:24:40Z</time>
      </trkpt>
      <trkpt lat="40.7401330" lon="-4.7473050">
        <ele>1113.3</ele>
        <time>2019-08-14T08:24:41Z</time>
      </trkpt>
      <trkpt lat="40.7401800" lon="-4.7472770">
        <ele>1113.2</ele>
        <time>2019-08-14T08:24:42Z</time>
      </trkpt>
      <trkpt lat="40.7402280" lon="-4.7472500">
        <ele>1113.2</ele>
        <time>2019-08-14T08:24:43Z</time>
      </trkpt>
      <trkpt lat="40.7402760" lon="-4.7472220">
        <ele>1113.0</ele>
        <time>2019-08-14T08:24:44Z</time>
      </trkpt>
      <trkpt lat="40.7403260" lon="-4.7471920">
        <ele>1112.9</ele>
        <time>2019-08-14T08:24:45Z</time>
      </trkpt>
      <trkpt lat="40.7403740" lon="-4.7471610">
        <ele>1112.7</ele>
        <time>2019-08-14T08:24:46Z</time>
      </trkpt>
      <trkpt lat="40.7404220" lon="-4.7471300">
        <ele>1112.6</ele>
        <time>2019-08-14T08:24:47Z</time>
      </trkpt>
      <trkpt lat="40.7404710" lon="-4.7470980">
        <ele>1112.4</ele>
        <time>2019-08-14T08:24:48Z</time>
      </trkpt>
      <trkpt lat="40.7405180" lon="-4.7470690">
        <ele>1112.2</ele>
        <time>2019-08-14T08:24:49Z</time>
      </trkpt>
      <trkpt lat="40.7405640" lon="-4.7470420">
        <ele>1111.9</ele>
        <time>2019-08-14T08:24:50Z</time>
      </trkpt>
      <trkpt lat="40.7406080" lon="-4.7470110">
        <ele>1111.8</ele>
        <time>2019-08-14T08:24:51Z</time>
      </trkpt>
      <trkpt lat="40.7406500" lon="-4.7469790">
        <ele>1111.6</ele>
        <time>2019-08-14T08:24:52Z</time>
      </trkpt>
      <trkpt lat="40.7406930" lon="-4.7469460">
        <ele>1111.5</ele>
        <time>2019-08-14T08:24:53Z</time>
      </trkpt>
      <trkpt lat="40.7407370" lon="-4.7469110">
        <ele>1111.3</ele>
        <time>2019-08-14T08:24:54Z</time>
      </trkpt>
      <trkpt lat="40.7407800" lon="-4.7468760">
        <ele>1111.2</ele>
        <time>2019-08-14T08:24:55Z</time>
      </trkpt>
      <trkpt lat="40.7408240" lon="-4.7468380">
        <ele>1111.0</ele>
        <time>2019-08-14T08:24:56Z</time>
      </trkpt>
      <trkpt lat="40.7408680" lon="-4.7468000">
        <ele>1110.9</ele>
        <time>2019-08-14T08:24:57Z</time>
      </trkpt>
      <trkpt lat="40.7409110" lon="-4.7467580">
        <ele>1110.8</ele>
        <time>2019-08-14T08:24:58Z</time>
      </trkpt>
      <trkpt lat="40.7409550" lon="-4.7467170">
        <ele>1110.6</ele>
        <time>2019-08-14T08:24:59Z</time>
      </trkpt>
      <trkpt lat="40.7410000" lon="-4.7466800">
        <ele>1110.5</ele>
        <time>2019-08-14T08:25:00Z</time>
      </trkpt>
      <trkpt lat="40.7410480" lon="-4.7466460">
        <ele>1110.4</ele>
        <time>2019-08-14T08:25:01Z</time>
      </trkpt>
      <trkpt lat="40.7410990" lon="-4.7466150">
        <ele>1110.3</ele>
        <time>2019-08-14T08:25:02Z</time>
      </trkpt>
      <trkpt lat="40.7411500" lon="-4.7465860">
        <ele>1110.2</ele>
        <time>2019-08-14T08:25:03Z</time>
      </trkpt>
      <trkpt lat="40.7412000" lon="-4.7465550">
        <ele>1110.1</ele>
        <time>2019-08-14T08:25:04Z</time>
      </trkpt>
      <trkpt lat="40.7412510" lon="-4.7465250">
        <ele>1110.0</ele>
        <time>2019-08-14T08:25:05Z</time>
      </trkpt>
      <trkpt lat="40.7413010" lon="-4.7464960">
        <ele>1109.8</ele>
        <time>2019-08-14T08:25:06Z</time>
      </trkpt>
      <trkpt lat="40.7413490" lon="-4.7464710">
        <ele>1109.7</ele>
        <time>2019-08-14T08:25:07Z</time>
      </trkpt>
      <trkpt lat="40.7413880" lon="-4.7464530">
        <ele>1109.6</ele>
        <time>2019-08-14T08:25:08Z</time>
      </trkpt>
      <trkpt lat="40.7414150" lon="-4.7464370">
        <ele>1109.4</ele>
        <time>2019-08-14T08:25:09Z</time>
      </trkpt>
      <trkpt lat="40.7414280" lon="-4.7463850">
        <ele>1109.3</ele>
        <time>2019-08-14T08:25:11Z</time>
      </trkpt>
      <trkpt lat="40.7414260" lon="-4.7463480">
        <ele>1109.3</ele>
        <time>2019-08-14T08:25:12Z</time>
      </trkpt>
      <trkpt lat="40.7414240" lon="-4.7463090">
        <ele>1109.3</ele>
        <time>2019-08-14T08:25:13Z</time>
      </trkpt>
      <trkpt lat="40.7414190" lon="-4.7462660">
        <ele>1109.2</ele>
        <time>2019-08-14T08:25:14Z</time>
      </trkpt>
      <trkpt lat="40.7414130" lon="-4.7462180">
        <ele>1109.1</ele>
        <time>2019-08-14T08:25:15Z</time>
      </trkpt>
      <trkpt lat="40.7414070" lon="-4.7461690">
        <ele>1109.1</ele>
        <time>2019-08-14T08:25:16Z</time>
      </trkpt>
      <trkpt lat="40.7414010" lon="-4.7461210">
        <ele>1109.0</ele>
        <time>2019-08-14T08:25:17Z</time>
      </trkpt>
      <trkpt lat="40.7413930" lon="-4.7460750">
        <ele>1109.0</ele>
        <time>2019-08-14T08:25:18Z</time>
      </trkpt>
      <trkpt lat="40.7413830" lon="-4.7460300">
        <ele>1108.9</ele>
        <time>2019-08-14T08:25:19Z</time>
      </trkpt>
      <trkpt lat="40.7413730" lon="-4.7459870">
        <ele>1108.9</ele>
        <time>2019-08-14T08:25:20Z</time>
      </trkpt>
      <trkpt lat="40.7413670" lon="-4.7459510">
        <ele>1108.8</ele>
        <time>2019-08-14T08:25:21Z</time>
      </trkpt>
      <trkpt lat="40.7413760" lon="-4.7458950">
        <ele>1108.6</ele>
        <time>2019-08-14T08:25:23Z</time>
      </trkpt>
      <trkpt lat="40.7414170" lon="-4.7458600">
        <ele>1108.6</ele>
        <time>2019-08-14T08:25:25Z</time>
      </trkpt>
      <trkpt lat="40.7414700" lon="-4.7458610">
        <ele>1108.5</ele>
        <time>2019-08-14T08:25:27Z</time>
      </trkpt>
      <trkpt lat="40.7415000" lon="-4.7458670">
        <ele>1108.4</ele>
        <time>2019-08-14T08:25:28Z</time>
      </trkpt>
      <trkpt lat="40.7415310" lon="-4.7458700">
        <ele>1108.4</ele>
        <time>2019-08-14T08:25:29Z</time>
      </trkpt>
      <trkpt lat="40.7415600" lon="-4.7458690">
        <ele>1108.4</ele>
        <time>2019-08-14T08:25:30Z</time>
      </trkpt>
      <trkpt lat="40.7416090" lon="-4.7458660">
        <ele>1108.3</ele>
        <time>2019-08-14T08:25:32Z</time>
      </trkpt>
      <trkpt lat="40.7416570" lon="-4.7458420">
        <ele>1108.2</ele>
        <time>2019-08-14T08:25:34Z</time>
      </trkpt>
      <trkpt lat="40.7417030" lon="-4.7458200">
        <ele>1108.2</ele>
        <time>2019-08-14T08:25:36Z</time>
      </trkpt>
      <trkpt lat="40.7417240" lon="-4.7457940">
        <ele>1108.2</ele>
        <time>2019-08-14T08:25:37Z</time>
      </trkpt>
      <trkpt lat="40.7417480" lon="-4.7457610">
        <ele>1108.2</ele>
        <time>2019-08-14T08:25:38Z</time>
      </trkpt>
      <trkpt lat="40.7417750" lon="-4.7457250">
        <ele>1108.2</ele>
        <time>2019-08-14T08:25:39Z</time>
      </trkpt>
      <trkpt lat="40.7418060" lon="-4.7456910">
        <ele>1108.2</ele>
        <time>2019-08-14T08:25:40Z</time>
      </trkpt>
      <trkpt lat="40.7418390" lon="-4.7456570">
        <ele>1108.2</ele>
        <time>2019-08-14T08:25:41Z</time>
      </trkpt>
      <trkpt lat="40.7418740" lon="-4.7456260">
        <ele>1108.2</ele>
        <time>2019-08-14T08:25:42Z</time>
      </trkpt>
      <trkpt lat="40.7419110" lon="-4.7455970">
        <ele>1108.2</ele>
        <time>2019-08-14T08:25:43Z</time>
      </trkpt>
      <trkpt lat="40.7419490" lon="-4.7455690">
        <ele>1108.2</ele>
        <time>2019-08-14T08:25:44Z</time>
      </trkpt>
      <trkpt lat="40.7419870" lon="-4.7455420">
        <ele>1108.2</ele>
        <time>2019-08-14T08:25:45Z</time>
      </trkpt>
      <trkpt lat="40.7420240" lon="-4.7455180">
        <ele>1108.2</ele>
        <time>2019-08-14T08:25:46Z</time>
      </trkpt>
      <trkpt lat="40.7420630" lon="-4.7454980">
        <ele>1108.1</ele>
        <time>2019-08-14T08:25:47Z</time>
      </trkpt>
      <trkpt lat="40.7421010" lon="-4.7454770">
        <ele>1108.1</ele>
        <time>2019-08-14T08:25:48Z</time>
      </trkpt>
      <trkpt lat="40.7421330" lon="-4.7454510">
        <ele>1108.0</ele>
        <time>2019-08-14T08:25:49Z</time>
      </trkpt>
      <trkpt lat="40.7421550" lon="-4.7454170">
        <ele>1107.9</ele>
        <time>2019-08-14T08:25:50Z</time>
      </trkpt>
      <trkpt lat="40.7421690" lon="-4.7453760">
        <ele>1107.9</ele>
        <time>2019-08-14T08:25:51Z</time>
      </trkpt>
      <trkpt lat="40.7421820" lon="-4.7453310">
        <ele>1107.8</ele>
        <time>2019-08-14T08:25:52Z</time>
      </trkpt>
      <trkpt lat="40.7421950" lon="-4.7452840">
        <ele>1107.7</ele>
        <time>2019-08-14T08:25:53Z</time>
      </trkpt>
      <trkpt lat="40.7422090" lon="-4.7452380">
        <ele>1107.7</ele>
        <time>2019-08-14T08:25:54Z</time>
      </trkpt>
      <trkpt lat="40.7422230" lon="-4.7451940">
        <ele>1107.6</ele>
        <time>2019-08-14T08:25:55Z</time>
      </trkpt>
      <trkpt lat="40.7422350" lon="-4.7451550">
        <ele>1107.5</ele>
        <time>2019-08-14T08:25:56Z</time>
      </trkpt>
      <trkpt lat="40.7422430" lon="-4.7451210">
        <ele>1107.4</ele>
        <time>2019-08-14T08:25:57Z</time>
      </trkpt>
      <trkpt lat="40.7422590" lon="-4.7450750">
        <ele>1107.2</ele>
        <time>2019-08-14T08:25:59Z</time>
      </trkpt>
      <trkpt lat="40.7422700" lon="-4.7450030">
        <ele>1106.9</ele>
        <time>2019-08-14T08:26:09Z</time>
      </trkpt>
      <trkpt lat="40.7422700" lon="-4.7449380">
        <ele>1106.9</ele>
        <time>2019-08-14T08:26:24Z</time>
      </trkpt>
      <trkpt lat="40.7422710" lon="-4.7448740">
        <ele>1106.9</ele>
        <time>2019-08-14T08:26:25Z</time>
      </trkpt>
      <trkpt lat="40.7422860" lon="-4.7448200">
        <ele>1106.9</ele>
        <time>2019-08-14T08:26:26Z</time>
      </trkpt>
      <trkpt lat="40.7423090" lon="-4.7447710">
        <ele>1106.8</ele>
        <time>2019-08-14T08:26:27Z</time>
      </trkpt>
      <trkpt lat="40.7423300" lon="-4.7447210">
        <ele>1106.8</ele>
        <time>2019-08-14T08:26:28Z</time>
      </trkpt>
      <trkpt lat="40.7423500" lon="-4.7446660">
        <ele>1106.7</ele>
        <time>2019-08-14T08:26:29Z</time>
      </trkpt>
      <trkpt lat="40.7423660" lon="-4.7446110">
        <ele>1106.6</ele>
        <time>2019-08-14T08:26:30Z</time>
      </trkpt>
      <trkpt lat="40.7423810" lon="-4.7445520">
        <ele>1106.5</ele>
        <time>2019-08-14T08:26:31Z</time>
      </trkpt>
      <trkpt lat="40.7423940" lon="-4.7444940">
        <ele>1106.3</ele>
        <time>2019-08-14T08:26:32Z</time>
      </trkpt>
      <trkpt lat="40.7424050" lon="-4.7444330">
        <ele>1106.2</ele>
        <time>2019-08-14T08:26:33Z</time>
      </trkpt>
      <trkpt lat="40.7424170" lon="-4.7443760">
        <ele>1106.1</ele>
        <time>2019-08-14T08:26:34Z</time>
      </trkpt>
      <trkpt lat="40.7424300" lon="-4.7443230">
        <ele>1106.1</ele>
        <time>2019-08-14T08:26:35Z</time>
      </trkpt>
      <trkpt lat="40.7424420" lon="-4.7442740">
        <ele>1106.0</ele>
        <time>2019-08-14T08:26:36Z</time>
      </trkpt>
      <trkpt lat="40.7424580" lon="-4.7442340">
        <ele>1106.0</ele>
        <time>2019-08-14T08:26:37Z</time>
      </trkpt>
      <trkpt lat="40.7424820" lon="-4.7442040">
        <ele>1106.0</ele>
        <time>2019-08-14T08:26:38Z</time>
      </trkpt>
      <trkpt lat="40.7425140" lon="-4.7441880">
        <ele>1105.9</ele>
        <time>2019-08-14T08:26:39Z</time>
      </trkpt>
      <trkpt lat="40.7425480" lon="-4.7441890">
        <ele>1106.0</ele>
        <time>2019-08-14T08:26:40Z</time>
      </trkpt>
      <trkpt lat="40.7425790" lon="-4.7442050">
        <ele>1106.1</ele>
        <time>2019-08-14T08:26:41Z</time>
      </trkpt>
      <trkpt lat="40.7426040" lon="-4.7442340">
        <ele>1106.1</ele>
        <time>2019-08-14T08:26:42Z</time>
      </trkpt>
      <trkpt lat="40.7426260" lon="-4.7442710">
        <ele>1106.2</ele>
        <time>2019-08-14T08:26:43Z</time>
      </trkpt>
      <trkpt lat="40.7426480" lon="-4.7443120">
        <ele>1106.2</ele>
        <time>2019-08-14T08:26:44Z</time>
      </trkpt>
      <trkpt lat="40.7426680" lon="-4.7443580">
        <ele>1106.3</ele>
        <time>2019-08-14T08:26:45Z</time>
      </trkpt>
      <trkpt lat="40.7426880" lon="-4.7444060">
        <ele>1106.4</ele>
        <time>2019-08-14T08:26:46Z</time>
      </trkpt>
      <trkpt lat="40.7427050" lon="-4.7444520">
        <ele>1106.4</ele>
        <time>2019-08-14T08:26:47Z</time>
      </trkpt>
      <trkpt lat="40.7427220" lon="-4.7444980">
        <ele>1106.5</ele>
        <time>2019-08-14T08:26:48Z</time>
      </trkpt>
      <trkpt lat="40.7427400" lon="-4.7445410">
        <ele>1106.5</ele>
        <time>2019-08-14T08:26:49Z</time>
      </trkpt>
      <trkpt lat="40.7427580" lon="-4.7445790">
        <ele>1106.6</ele>
        <time>2019-08-14T08:26:50Z</time>
      </trkpt>
      <trkpt lat="40.7427790" lon="-4.7446040">
        <ele>1106.5</ele>
        <time>2019-08-14T08:26:51Z</time>
      </trkpt>
      <trkpt lat="40.7428250" lon="-4.7445980">
        <ele>1106.4</ele>
        <time>2019-08-14T08:26:53Z</time>
      </trkpt>
      <trkpt lat="40.7428510" lon="-4.7445720">
        <ele>1106.3</ele>
        <time>2019-08-14T08:26:54Z</time>
      </trkpt>
      <trkpt lat="40.7428790" lon="-4.7445470">
        <ele>1106.3</ele>
        <time>2019-08-14T08:26:55Z</time>
      </trkpt>
      <trkpt lat="40.7429070" lon="-4.7445200">
        <ele>1106.2</ele>
        <time>2019-08-14T08:26:56Z</time>
      </trkpt>
      <trkpt lat="40.7429360" lon="-4.7444940">
        <ele>1106.1</ele>
        <time>2019-08-14T08:26:57Z</time>
      </trkpt>
      <trkpt lat="40.7429670" lon="-4.7444680">
        <ele>1106.1</ele>
        <time>2019-08-14T08:26:58Z</time>
      </trkpt>
      <trkpt lat="40.7429980" lon="-4.7444410">
        <ele>1106.0</ele>
        <time>2019-08-14T08:26:59Z</time>
      </trkpt>
      <trkpt lat="40.7430300" lon="-4.7444120">
        <ele>1105.9</ele>
        <time>2019-08-14T08:27:00Z</time>
      </trkpt>
      <trkpt lat="40.7430630" lon="-4.7443830">
        <ele>1105.9</ele>
        <time>2019-08-14T08:27:01Z</time>
      </trkpt>
      <trkpt lat="40.7430960" lon="-4.7443520">
        <ele>1105.8</ele>
        <time>2019-08-14T08:27:02Z</time>
      </trkpt>
      <trkpt lat="40.7431280" lon="-4.7443190">
        <ele>1105.7</ele>
        <time>2019-08-14T08:27:03Z</time>
      </trkpt>
      <trkpt lat="40.7431590" lon="-4.7442860">
        <ele>1105.6</ele>
        <time>2019-08-14T08:27:04Z</time>
      </trkpt>
      <trkpt lat="40.7431880" lon="-4.7442510">
        <ele>1105.5</ele>
        <time>2019-08-14T08:27:05Z</time>
      </trkpt>
      <trkpt lat="40.7432160" lon="-4.7442150">
        <ele>1105.4</ele>
        <time>2019-08-14T08:27:06Z</time>
      </trkpt>
      <trkpt lat="40.7432420" lon="-4.7441770">
        <ele>1105.2</ele>
        <time>2019-08-14T08:27:07Z</time>
      </trkpt>
      <trkpt lat="40.7432670" lon="-4.7441370">
        <ele>1105.1</ele>
        <time>2019-08-14T08:27:08Z</time>
      </trkpt>
      <trkpt lat="40.7432880" lon="-4.7440930">
        <ele>1104.9</ele>
        <time>2019-08-14T08:27:09Z</time>
      </trkpt>
      <trkpt lat="40.7433040" lon="-4.7440440">
        <ele>1104.6</ele>
        <time>2019-08-14T08:27:10Z</time>
      </trkpt>
      <trkpt lat="40.7433210" lon="-4.7439900">
        <ele>1104.4</ele>
        <time>2019-08-14T08:27:11Z</time>
      </trkpt>
      <trkpt lat="40.7433390" lon="-4.7439340">
        <ele>1104.2</ele>
        <time>2019-08-14T08:27:12Z</time>
      </trkpt>
      <trkpt lat="40.7433590" lon="-4.7438760">
        <ele>1104.0</ele>
        <time>2019-08-14T08:27:13Z</time>
      </trkpt>
      <trkpt lat="40.7433790" lon="-4.7438150">
        <ele>1103.7</ele>
        <time>2019-08-14T08:27:14Z</time>
      </trkpt>
      <trkpt lat="40.7433970" lon="-4.7437560">
        <ele>1103.5</ele>
        <time>2019-08-14T08:27:15Z</time>
      </trkpt>
      <trkpt lat="40.7434080" lon="-4.7436990">
        <ele>1103.3</ele>
        <time>2019-08-14T08:27:16Z</time>
      </trkpt>
      <trkpt lat="40.7434110" lon="-4.7436480">
        <ele>1103.1</ele>
        <time>2019-08-14T08:27:17Z</time>
      </trkpt>
      <trkpt lat="40.7434070" lon="-4.7436070">
        <ele>1102.9</ele>
        <time>2019-08-14T08:27:18Z</time>
      </trkpt>
      <trkpt lat="40.7434070" lon="-4.7435650">
        <ele>1102.8</ele>
        <time>2019-08-14T08:27:20Z</time>
      </trkpt>
      <trkpt lat="40.7434380" lon="-4.7435460">
        <ele>1102.6</ele>
        <time>2019-08-14T08:27:22Z</time>
      </trkpt>
      <trkpt lat="40.7434620" lon="-4.7435260">
        <ele>1102.5</ele>
        <time>2019-08-14T08:27:23Z</time>
      </trkpt>
      <trkpt lat="40.7434880" lon="-4.7434890">
        <ele>1102.5</ele>
        <time>2019-08-14T08:27:24Z</time>
      </trkpt>
      <trkpt lat="40.7435220" lon="-4.7434450">
        <ele>1102.4</ele>
        <time>2019-08-14T08:27:25Z</time>
      </trkpt>
      <trkpt lat="40.7435670" lon="-4.7434030">
        <ele>1102.2</ele>
        <time>2019-08-14T08:27:26Z</time>
      </trkpt>
      <trkpt lat="40.7436170" lon="-4.7433620">
        <ele>1102.0</ele>
        <time>2019-08-14T08:27:27Z</time>
      </trkpt>
      <trkpt lat="40.7436710" lon="-4.7433210">
        <ele>1101.8</ele>
        <time>2019-08-14T08:27:28Z</time>
      </trkpt>
      <trkpt lat="40.7437260" lon="-4.7432800">
        <ele>1101.5</ele>
        <time>2019-08-14T08:27:29Z</time>
      </trkpt>
      <trkpt lat="40.7437770" lon="-4.7432370">
        <ele>1101.3</ele>
        <time>2019-08-14T08:27:30Z</time>
      </trkpt>
      <trkpt lat="40.7438250" lon="-4.7431940">
        <ele>1101.0</ele>
        <time>2019-08-14T08:27:31Z</time>
      </trkpt>
      <trkpt lat="40.7438730" lon="-4.7431510">
        <ele>1100.7</ele>
        <time>2019-08-14T08:27:32Z</time>
      </trkpt>
      <trkpt lat="40.7439240" lon="-4.7431160">
        <ele>1100.4</ele>
        <time>2019-08-14T08:27:33Z</time>
      </trkpt>
      <trkpt lat="40.7439790" lon="-4.7430930">
        <ele>1100.0</ele>
        <time>2019-08-14T08:27:34Z</time>
      </trkpt>
      <trkpt lat="40.7440340" lon="-4.7430790">
        <ele>1099.4</ele>
        <time>2019-08-14T08:27:35Z</time>
      </trkpt>
      <trkpt lat="40.7440810" lon="-4.7430720">
        <ele>1099.1</ele>
        <time>2019-08-14T08:27:36Z</time>
      </trkpt>
      <trkpt lat="40.7441140" lon="-4.7430670">
        <ele>1098.9</ele>
        <time>2019-08-14T08:27:37Z</time>
      </trkpt>
      <trkpt lat="40.7441720" lon="-4.7430770">
        <ele>1098.7</ele>
        <time>2019-08-14T08:28:00Z</time>
      </trkpt>
      <trkpt lat="40.7442580" lon="-4.7430320">
        <ele>1098.4</ele>
        <time>2019-08-14T08:28:14Z</time>
      </trkpt>
      <trkpt lat="40.7442900" lon="-4.7430160">
        <ele>1098.3</ele>
        <time>2019-08-14T08:28:15Z</time>
      </trkpt>
      <trkpt lat="40.7443210" lon="-4.7430040">
        <ele>1098.2</ele>
        <time>2019-08-14T08:28:16Z</time>
      </trkpt>
      <trkpt lat="40.7443520" lon="-4.7429910">
        <ele>1098.1</ele>
        <time>2019-08-14T08:28:17Z</time>
      </trkpt>
      <trkpt lat="40.7443850" lon="-4.7429770">
        <ele>1097.9</ele>
        <time>2019-08-14T08:28:18Z</time>
      </trkpt>
      <trkpt lat="40.7444190" lon="-4.7429610">
        <ele>1097.8</ele>
        <time>2019-08-14T08:28:19Z</time>
      </trkpt>
      <trkpt lat="40.7444490" lon="-4.7429410">
        <ele>1097.6</ele>
        <time>2019-08-14T08:28:20Z</time>
      </trkpt>
      <trkpt lat="40.7444790" lon="-4.7429180">
        <ele>1097.4</ele>
        <time>2019-08-14T08:28:21Z</time>
      </trkpt>
      <trkpt lat="40.7445070" lon="-4.7428940">
        <ele>1097.2</ele>
        <time>2019-08-14T08:28:22Z</time>
      </trkpt>
      <trkpt lat="40.7445380" lon="-4.7428680">
        <ele>1097.0</ele>
        <time>2019-08-14T08:28:23Z</time>
      </trkpt>
      <trkpt lat="40.7445720" lon="-4.7428400">
        <ele>1096.8</ele>
        <time>2019-08-14T08:28:24Z</time>
      </trkpt>
      <trkpt lat="40.7446050" lon="-4.7428120">
        <ele>1096.5</ele>
        <time>2019-08-14T08:28:25Z</time>
      </trkpt>
      <trkpt lat="40.7446370" lon="-4.7427830">
        <ele>1096.3</ele>
        <time>2019-08-14T08:28:26Z</time>
      </trkpt>
      <trkpt lat="40.7446680" lon="-4.7427540">
        <ele>1096.2</ele>
        <time>2019-08-14T08:28:27Z</time>
      </trkpt>
      <trkpt lat="40.7446990" lon="-4.7427250">
        <ele>1096.0</ele>
        <time>2019-08-14T08:28:28Z</time>
      </trkpt>
      <trkpt lat="40.7447310" lon="-4.7427000">
        <ele>1095.9</ele>
        <time>2019-08-14T08:28:29Z</time>
      </trkpt>
      <trkpt lat="40.7447650" lon="-4.7426780">
        <ele>1095.7</ele>
        <time>2019-08-14T08:28:30Z</time>
      </trkpt>
      <trkpt lat="40.7448000" lon="-4.7426560">
        <ele>1095.5</ele>
        <time>2019-08-14T08:28:31Z</time>
      </trkpt>
      <trkpt lat="40.7448360" lon="-4.7426320">
        <ele>1095.2</ele>
        <time>2019-08-14T08:28:32Z</time>
      </trkpt>
      <trkpt lat="40.7448720" lon="-4.7426090">
        <ele>1095.0</ele>
        <time>2019-08-14T08:28:33Z</time>
      </trkpt>
      <trkpt lat="40.7449090" lon="-4.7425860">
        <ele>1094.7</ele>
        <time>2019-08-14T08:28:34Z</time>
      </trkpt>
      <trkpt lat="40.7449470" lon="-4.7425690">
        <ele>1094.5</ele>
        <time>2019-08-14T08:28:35Z</time>
      </trkpt>
      <trkpt lat="40.7449860" lon="-4.7425540">
        <ele>1094.2</ele>
        <time>2019-08-14T08:28:36Z</time>
      </trkpt>
      <trkpt lat="40.7450270" lon="-4.7425390">
        <ele>1093.9</ele>
        <time>2019-08-14T08:28:37Z</time>
      </trkpt>
      <trkpt lat="40.7450660" lon="-4.7425180">
        <ele>1093.6</ele>
        <time>2019-08-14T08:28:38Z</time>
      </trkpt>
      <trkpt lat="40.7451020" lon="-4.7424860">
        <ele>1093.2</ele>
        <time>2019-08-14T08:28:39Z</time>
      </trkpt>
      <trkpt lat="40.7451340" lon="-4.7424480">
        <ele>1092.9</ele>
        <time>2019-08-14T08:28:40Z</time>
      </trkpt>
      <trkpt lat="40.7451660" lon="-4.7424060">
        <ele>1092.5</ele>
        <time>2019-08-14T08:28:41Z</time>
      </trkpt>
      <trkpt lat="40.7451930" lon="-4.7423600">
        <ele>1092.1</ele>
        <time>2019-08-14T08:28:42Z</time>
      </trkpt>
      <trkpt lat="40.7452140" lon="-4.7423070">
        <ele>1091.8</ele>
        <time>2019-08-14T08:28:43Z</time>
      </trkpt>
      <trkpt lat="40.7452300" lon="-4.7422540">
        <ele>1091.4</ele>
        <time>2019-08-14T08:28:44Z</time>
      </trkpt>
      <trkpt lat="40.7452470" lon="-4.7422030">
        <ele>1091.0</ele>
        <time>2019-08-14T08:28:45Z</time>
      </trkpt>
      <trkpt lat="40.7452640" lon="-4.7421620">
        <ele>1090.6</ele>
        <time>2019-08-14T08:28:46Z</time>
      </trkpt>
      <trkpt lat="40.7452870" lon="-4.7421390">
        <ele>1090.4</ele>
        <time>2019-08-14T08:28:47Z</time>
      </trkpt>
      <trkpt lat="40.7453140" lon="-4.7421310">
        <ele>1090.2</ele>
        <time>2019-08-14T08:28:48Z</time>
      </trkpt>
      <trkpt lat="40.7453690" lon="-4.7421440">
        <ele>1089.8</ele>
        <time>2019-08-14T08:28:50Z</time>
      </trkpt>
      <trkpt lat="40.7454010" lon="-4.7421510">
        <ele>1089.6</ele>
        <time>2019-08-14T08:28:51Z</time>
      </trkpt>
      <trkpt lat="40.7454360" lon="-4.7421510">
        <ele>1089.4</ele>
        <time>2019-08-14T08:28:52Z</time>
      </trkpt>
      <trkpt lat="40.7454710" lon="-4.7421470">
        <ele>1089.2</ele>
        <time>2019-08-14T08:28:53Z</time>
      </trkpt>
      <trkpt lat="40.7455090" lon="-4.7421430">
        <ele>1089.0</ele>
        <time>2019-08-14T08:28:54Z</time>
      </trkpt>
      <trkpt lat="40.7455480" lon="-4.7421420">
        <ele>1088.8</ele>
        <time>2019-08-14T08:28:55Z</time>
      </trkpt>
      <trkpt lat="40.7455890" lon="-4.7421410">
        <ele>1088.6</ele>
        <time>2019-08-14T08:28:56Z</time>
      </trkpt>
      <trkpt lat="40.7456310" lon="-4.7421390">
        <ele>1088.4</ele>
        <time>2019-08-14T08:28:57Z</time>
      </trkpt>
      <trkpt lat="40.7456750" lon="-4.7421380">
        <ele>1088.2</ele>
        <time>2019-08-14T08:28:58Z</time>
      </trkpt>
      <trkpt lat="40.7457180" lon="-4.7421370">
        <ele>1088.0</ele>
        <time>2019-08-14T08:28:59Z</time>
      </trkpt>
      <trkpt lat="40.7457630" lon="-4.7421370">
        <ele>1087.9</ele>
        <time>2019-08-14T08:29:00Z</time>
      </trkpt>
      <trkpt lat="40.7458080" lon="-4.7421370">
        <ele>1087.7</ele>
        <time>2019-08-14T08:29:01Z</time>
      </trkpt>
      <trkpt lat="40.7458540" lon="-4.7421380">
        <ele>1087.5</ele>
        <time>2019-08-14T08:29:02Z</time>
      </trkpt>
      <trkpt lat="40.7459020" lon="-4.7421380">
        <ele>1087.4</ele>
        <time>2019-08-14T08:29:03Z</time>
      </trkpt>
      <trkpt lat="40.7459500" lon="-4.7421400">
        <ele>1087.2</ele>
        <time>2019-08-14T08:29:04Z</time>
      </trkpt>
      <trkpt lat="40.7459980" lon="-4.7421480">
        <ele>1087.1</ele>
        <time>2019-08-14T08:29:05Z</time>
      </trkpt>
      <trkpt lat="40.7460450" lon="-4.7421610">
        <ele>1086.9</ele>
        <time>2019-08-14T08:29:06Z</time>
      </trkpt>
      <trkpt lat="40.7460920" lon="-4.7421740">
        <ele>1086.8</ele>
        <time>2019-08-14T08:29:07Z</time>
      </trkpt>
      <trkpt lat="40.7461400" lon="-4.7421850">
        <ele>1086.8</ele>
        <time>2019-08-14T08:29:08Z</time>
      </trkpt>
      <trkpt lat="40.7461880" lon="-4.7421950">
        <ele>1086.7</ele>
        <time>2019-08-14T08:29:09Z</time>
      </trkpt>
      <trkpt lat="40.7462370" lon="-4.7422040">
        <ele>1086.6</ele>
        <time>2019-08-14T08:29:10Z</time>
      </trkpt>
      <trkpt lat="40.7462850" lon="-4.7422130">
        <ele>1086.5</ele>
        <time>2019-08-14T08:29:11Z</time>
      </trkpt>
      <trkpt lat="40.7463320" lon="-4.7422210">
        <ele>1086.4</ele>
        <time>2019-08-14T08:29:12Z</time>
      </trkpt>
      <trkpt lat="40.7463780" lon="-4.7422310">
        <ele>1086.3</ele>
        <time>2019-08-14T08:29:13Z</time>
      </trkpt>
      <trkpt lat="40.7464250" lon="-4.7422410">
        <ele>1086.2</ele>
        <time>2019-08-14T08:29:14Z</time>
      </trkpt>
      <trkpt lat="40.7464710" lon="-4.7422560">
        <ele>1086.1</ele>
        <time>2019-08-14T08:29:15Z</time>
      </trkpt>
      <trkpt lat="40.7465150" lon="-4.7422770">
        <ele>1086.0</ele>
        <time>2019-08-14T08:29:16Z</time>
      </trkpt>
      <trkpt lat="40.7465560" lon="-4.7423030">
        <ele>1085.9</ele>
        <time>2019-08-14T08:29:17Z</time>
      </trkpt>
      <trkpt lat="40.7465980" lon="-4.7423290">
        <ele>1085.8</ele>
        <time>2019-08-14T08:29:18Z</time>
      </trkpt>
      <trkpt lat="40.7466410" lon="-4.7423590">
        <ele>1085.8</ele>
        <time>2019-08-14T08:29:19Z</time>
      </trkpt>
      <trkpt lat="40.7466850" lon="-4.7423900">
        <ele>1085.7</ele>
        <time>2019-08-14T08:29:20Z</time>
      </trkpt>
      <trkpt lat="40.7467310" lon="-4.7424190">
        <ele>1085.7</ele>
        <time>2019-08-14T08:29:21Z</time>
      </trkpt>
      <trkpt lat="40.7467760" lon="-4.7424460">
        <ele>1085.7</ele>
        <time>2019-08-14T08:29:22Z</time>
      </trkpt>
      <trkpt lat="40.7468210" lon="-4.7424740">
        <ele>1085.7</ele>
        <time>2019-08-14T08:29:23Z</time>
      </trkpt>
      <trkpt lat="40.7468660" lon="-4.7425030">
        <ele>1085.7</ele>
        <time>2019-08-14T08:29:24Z</time>
      </trkpt>
      <trkpt lat="40.7469100" lon="-4.7425310">
        <ele>1085.7</ele>
        <time>2019-08-14T08:29:25Z</time>
      </trkpt>
      <trkpt lat="40.7469540" lon="-4.7425580">
        <ele>1085.7</ele>
        <time>2019-08-14T08:29:26Z</time>
      </trkpt>
      <trkpt lat="40.7469980" lon="-4.7425830">
        <ele>1085.6</ele>
        <time>2019-08-14T08:29:27Z</time>
      </trkpt>
      <trkpt lat="40.7470410" lon="-4.7426060">
        <ele>1085.6</ele>
        <time>2019-08-14T08:29:28Z</time>
      </trkpt>
      <trkpt lat="40.7470820" lon="-4.7426300">
        <ele>1085.6</ele>
        <time>2019-08-14T08:29:29Z</time>
      </trkpt>
      <trkpt lat="40.7471230" lon="-4.7426530">
        <ele>1085.6</ele>
        <time>2019-08-14T08:29:30Z</time>
      </trkpt>
      <trkpt lat="40.7471610" lon="-4.7426770">
        <ele>1085.6</ele>
        <time>2019-08-14T08:29:31Z</time>
      </trkpt>
      <trkpt lat="40.7472000" lon="-4.7427020">
        <ele>1085.5</ele>
        <time>2019-08-14T08:29:32Z</time>
      </trkpt>
      <trkpt lat="40.7472400" lon="-4.7427250">
        <ele>1085.5</ele>
        <time>2019-08-14T08:29:33Z</time>
      </trkpt>
      <trkpt lat="40.7472820" lon="-4.7427480">
        <ele>1085.4</ele>
        <time>2019-08-14T08:29:34Z</time>
      </trkpt>
      <trkpt lat="40.7473250" lon="-4.7427730">
        <ele>1085.3</ele>
        <time>2019-08-14T08:29:35Z</time>
      </trkpt>
      <trkpt lat="40.7473680" lon="-4.7427970">
        <ele>1085.1</ele>
        <time>2019-08-14T08:29:36Z</time>
      </trkpt>
      <trkpt lat="40.7474140" lon="-4.7428180">
        <ele>1085.0</ele>
        <time>2019-08-14T08:29:37Z</time>
      </trkpt>
      <trkpt lat="40.7474600" lon="-4.7428400">
        <ele>1084.9</ele>
        <time>2019-08-14T08:29:38Z</time>
      </trkpt>
      <trkpt lat="40.7475030" lon="-4.7428620">
        <ele>1084.8</ele>
        <time>2019-08-14T08:29:39Z</time>
      </trkpt>
      <trkpt lat="40.7475490" lon="-4.7428810">
        <ele>1084.7</ele>
        <time>2019-08-14T08:29:40Z</time>
      </trkpt>
      <trkpt lat="40.7475930" lon="-4.7428980">
        <ele>1084.7</ele>
        <time>2019-08-14T08:29:41Z</time>
      </trkpt>
      <trkpt lat="40.7476370" lon="-4.7429130">
        <ele>1084.7</ele>
        <time>2019-08-14T08:29:42Z</time>
      </trkpt>
      <trkpt lat="40.7476810" lon="-4.7429280">
        <ele>1084.6</ele>
        <time>2019-08-14T08:29:43Z</time>
      </trkpt>
      <trkpt lat="40.7477250" lon="-4.7429420">
        <ele>1084.6</ele>
        <time>2019-08-14T08:29:44Z</time>
      </trkpt>
      <trkpt lat="40.7477660" lon="-4.7429540">
        <ele>1084.6</ele>
        <time>2019-08-14T08:29:45Z</time>
      </trkpt>
      <trkpt lat="40.7478070" lon="-4.7429590">
        <ele>1084.6</ele>
        <time>2019-08-14T08:29:46Z</time>
      </trkpt>
      <trkpt lat="40.7478470" lon="-4.7429560">
        <ele>1084.3</ele>
        <time>2019-08-14T08:29:47Z</time>
      </trkpt>
      <trkpt lat="40.7478880" lon="-4.7429480">
        <ele>1084.0</ele>
        <time>2019-08-14T08:29:48Z</time>
      </trkpt>
      <trkpt lat="40.7479290" lon="-4.7429420">
        <ele>1083.7</ele>
        <time>2019-08-14T08:29:49Z</time>
      </trkpt>
      <trkpt lat="40.7479700" lon="-4.7429340">
        <ele>1083.5</ele>
        <time>2019-08-14T08:29:50Z</time>
      </trkpt>
      <trkpt lat="40.7480110" lon="-4.7429240">
        <ele>1083.2</ele>
        <time>2019-08-14T08:29:51Z</time>
      </trkpt>
      <trkpt lat="40.7480510" lon="-4.7429180">
        <ele>1083.1</ele>
        <time>2019-08-14T08:29:52Z</time>
      </trkpt>
      <trkpt lat="40.7480910" lon="-4.7429140">
        <ele>1083.0</ele>
        <time>2019-08-14T08:29:53Z</time>
      </trkpt>
      <trkpt lat="40.7481350" lon="-4.7429100">
        <ele>1082.8</ele>
        <time>2019-08-14T08:29:54Z</time>
      </trkpt>
      <trkpt lat="40.7481780" lon="-4.7429070">
        <ele>1082.7</ele>
        <time>2019-08-14T08:29:55Z</time>
      </trkpt>
      <trkpt lat="40.7482210" lon="-4.7429040">
        <ele>1082.6</ele>
        <time>2019-08-14T08:29:56Z</time>
      </trkpt>
      <trkpt lat="40.7482640" lon="-4.7429020">
        <ele>1082.4</ele>
        <time>2019-08-14T08:29:57Z</time>
      </trkpt>
      <trkpt lat="40.7483080" lon="-4.7429050">
        <ele>1082.3</ele>
        <time>2019-08-14T08:29:58Z</time>
      </trkpt>
      <trkpt lat="40.7483520" lon="-4.7429160">
        <ele>1082.1</ele>
        <time>2019-08-14T08:29:59Z</time>
      </trkpt>
      <trkpt lat="40.7483950" lon="-4.7429290">
        <ele>1081.8</ele>
        <time>2019-08-14T08:30:00Z</time>
      </trkpt>
      <trkpt lat="40.7484340" lon="-4.7429430">
        <ele>1081.6</ele>
        <time>2019-08-14T08:30:01Z</time>
      </trkpt>
      <trkpt lat="40.7484720" lon="-4.7429550">
        <ele>1081.4</ele>
        <time>2019-08-14T08:30:02Z</time>
      </trkpt>
      <trkpt lat="40.7485080" lon="-4.7429670">
        <ele>1081.2</ele>
        <time>2019-08-14T08:30:03Z</time>
      </trkpt>
      <trkpt lat="40.7485470" lon="-4.7429780">
        <ele>1080.9</ele>
        <time>2019-08-14T08:30:04Z</time>
      </trkpt>
      <trkpt lat="40.7485860" lon="-4.7429940">
        <ele>1080.8</ele>
        <time>2019-08-14T08:30:05Z</time>
      </trkpt>
      <trkpt lat="40.7486230" lon="-4.7430190">
        <ele>1080.7</ele>
        <time>2019-08-14T08:30:06Z</time>
      </trkpt>
      <trkpt lat="40.7486630" lon="-4.7430500">
        <ele>1080.5</ele>
        <time>2019-08-14T08:30:07Z</time>
      </trkpt>
      <trkpt lat="40.7487010" lon="-4.7430770">
        <ele>1080.4</ele>
        <time>2019-08-14T08:30:08Z</time>
      </trkpt>
      <trkpt lat="40.7487390" lon="-4.7431030">
        <ele>1080.2</ele>
        <time>2019-08-14T08:30:09Z</time>
      </trkpt>
      <trkpt lat="40.7487730" lon="-4.7431220">
        <ele>1080.1</ele>
        <time>2019-08-14T08:30:10Z</time>
      </trkpt>
      <trkpt lat="40.7488060" lon="-4.7431460">
        <ele>1079.9</ele>
        <time>2019-08-14T08:30:11Z</time>
      </trkpt>
      <trkpt lat="40.7488340" lon="-4.7431710">
        <ele>1079.7</ele>
        <time>2019-08-14T08:30:12Z</time>
      </trkpt>
      <trkpt lat="40.7488590" lon="-4.7431940">
        <ele>1079.5</ele>
        <time>2019-08-14T08:30:13Z</time>
      </trkpt>
      <trkpt lat="40.7488850" lon="-4.7432140">
        <ele>1079.3</ele>
        <time>2019-08-14T08:30:14Z</time>
      </trkpt>
      <trkpt lat="40.7489140" lon="-4.7432330">
        <ele>1079.0</ele>
        <time>2019-08-14T08:30:15Z</time>
      </trkpt>
      <trkpt lat="40.7489660" lon="-4.7432490">
        <ele>1078.6</ele>
        <time>2019-08-14T08:30:17Z</time>
      </trkpt>
      <trkpt lat="40.7490140" lon="-4.7432370">
        <ele>1078.2</ele>
        <time>2019-08-14T08:30:19Z</time>
      </trkpt>
      <trkpt lat="40.7490410" lon="-4.7432280">
        <ele>1078.0</ele>
        <time>2019-08-14T08:30:20Z</time>
      </trkpt>
      <trkpt lat="40.7490690" lon="-4.7432190">
        <ele>1077.7</ele>
        <time>2019-08-14T08:30:21Z</time>
      </trkpt>
      <trkpt lat="40.7490990" lon="-4.7432090">
        <ele>1077.4</ele>
        <time>2019-08-14T08:30:22Z</time>
      </trkpt>
      <trkpt lat="40.7491320" lon="-4.7431960">
        <ele>1077.0</ele>
        <time>2019-08-14T08:30:23Z</time>
      </trkpt>
      <trkpt lat="40.7491680" lon="-4.7431780">
        <ele>1076.7</ele>
        <time>2019-08-14T08:30:24Z</time>
      </trkpt>
      <trkpt lat="40.7492040" lon="-4.7431480">
        <ele>1076.3</ele>
        <time>2019-08-14T08:30:25Z</time>
      </trkpt>
      <trkpt lat="40.7492380" lon="-4.7431120">
        <ele>1075.9</ele>
        <time>2019-08-14T08:30:26Z</time>
      </trkpt>
      <trkpt lat="40.7492720" lon="-4.7430760">
        <ele>1075.6</ele>
        <time>2019-08-14T08:30:27Z</time>
      </trkpt>
      <trkpt lat="40.7493040" lon="-4.7430470">
        <ele>1075.3</ele>
        <time>2019-08-14T08:30:28Z</time>
      </trkpt>
      <trkpt lat="40.7493350" lon="-4.7430210">
        <ele>1075.0</ele>
        <time>2019-08-14T08:30:29Z</time>
      </trkpt>
      <trkpt lat="40.7493680" lon="-4.7430000">
        <ele>1074.8</ele>
        <time>2019-08-14T08:30:30Z</time>
      </trkpt>
      <trkpt lat="40.7494020" lon="-4.7429800">
        <ele>1074.7</ele>
        <time>2019-08-14T08:30:31Z</time>
      </trkpt>
      <trkpt lat="40.7494350" lon="-4.7429600">
        <ele>1074.6</ele>
        <time>2019-08-14T08:30:32Z</time>
      </trkpt>
      <trkpt lat="40.7494660" lon="-4.7429380">
        <ele>1074.6</ele>
        <time>2019-08-14T08:30:33Z</time>
      </trkpt>
      <trkpt lat="40.7494960" lon="-4.7429140">
        <ele>1074.6</ele>
        <time>2019-08-14T08:30:34Z</time>
      </trkpt>
      <trkpt lat="40.7495250" lon="-4.7428960">
        <ele>1074.6</ele>
        <time>2019-08-14T08:30:35Z</time>
      </trkpt>
      <trkpt lat="40.7495530" lon="-4.7428850">
        <ele>1074.7</ele>
        <time>2019-08-14T08:30:36Z</time>
      </trkpt>
      <trkpt lat="40.7496030" lon="-4.7428820">
        <ele>1075.0</ele>
        <time>2019-08-14T08:30:38Z</time>
      </trkpt>
      <trkpt lat="40.7496470" lon="-4.7428990">
        <ele>1075.4</ele>
        <time>2019-08-14T08:30:40Z</time>
      </trkpt>
      <trkpt lat="40.7496820" lon="-4.7429330">
        <ele>1075.8</ele>
        <time>2019-08-14T08:30:42Z</time>
      </trkpt>
      <trkpt lat="40.7497060" lon="-4.7429710">
        <ele>1076.2</ele>
        <time>2019-08-14T08:30:44Z</time>
      </trkpt>
      <trkpt lat="40.7497110" lon="-4.7430040">
        <ele>1076.4</ele>
        <time>2019-08-14T08:30:48Z</time>
      </trkpt>
      <trkpt lat="40.7497310" lon="-4.7430330">
        <ele>1076.8</ele>
        <time>2019-08-14T08:30:53Z</time>
      </trkpt>
      <trkpt lat="40.7497560" lon="-4.7430690">
        <ele>1077.2</ele>
        <time>2019-08-14T08:30:57Z</time>
      </trkpt>
      <trkpt lat="40.7497680" lon="-4.7431010">
        <ele>1077.5</ele>
        <time>2019-08-14T08:31:01Z</time>
      </trkpt>
      <trkpt lat="40.7497870" lon="-4.7431280">
        <ele>1077.8</ele>
        <time>2019-08-14T08:31:04Z</time>
      </trkpt>
      <trkpt lat="40.7498070" lon="-4.7431650">
        <ele>1078.2</ele>
        <time>2019-08-14T08:31:08Z</time>
      </trkpt>
      <trkpt lat="40.7498240" lon="-4.7431960">
        <ele>1078.5</ele>
        <time>2019-08-14T08:31:11Z</time>
      </trkpt>
      <trkpt lat="40.7498500" lon="-4.7432280">
        <ele>1078.9</ele>
        <time>2019-08-14T08:31:15Z</time>
      </trkpt>
      <trkpt lat="40.7498780" lon="-4.7432570">
        <ele>1079.2</ele>
        <time>2019-08-14T08:31:19Z</time>
      </trkpt>
      <trkpt lat="40.7499020" lon="-4.7432860">
        <ele>1079.5</ele>
        <time>2019-08-14T08:31:23Z</time>
      </trkpt>
      <trkpt lat="40.7499270" lon="-4.7432980">
        <ele>1079.7</ele>
        <time>2019-08-14T08:31:27Z</time>
      </trkpt>
      <trkpt lat="40.7499540" lon="-4.7432830">
        <ele>1079.9</ele>
        <time>2019-08-14T08:31:32Z</time>
      </trkpt>
      <trkpt lat="40.7499800" lon="-4.7432660">
        <ele>1080.0</ele>
        <time>2019-08-14T08:31:34Z</time>
      </trkpt>
      <trkpt lat="40.7500120" lon="-4.7432490">
        <ele>1080.1</ele>
        <time>2019-08-14T08:31:36Z</time>
      </trkpt>
      <trkpt lat="40.7500460" lon="-4.7432380">
        <ele>1080.3</ele>
        <time>2019-08-14T08:31:38Z</time>
      </trkpt>
      <trkpt lat="40.7500860" lon="-4.7432330">
        <ele>1080.5</ele>
        <time>2019-08-14T08:31:40Z</time>
      </trkpt>
      <trkpt lat="40.7501290" lon="-4.7432380">
        <ele>1080.7</ele>
        <time>2019-08-14T08:31:42Z</time>
      </trkpt>
      <trkpt lat="40.7501770" lon="-4.7432300">
        <ele>1081.0</ele>
        <time>2019-08-14T08:31:44Z</time>
      </trkpt>
      <trkpt lat="40.7502290" lon="-4.7432130">
        <ele>1081.3</ele>
        <time>2019-08-14T08:31:46Z</time>
      </trkpt>
      <trkpt lat="40.7502560" lon="-4.7432030">
        <ele>1081.5</ele>
        <time>2019-08-14T08:31:47Z</time>
      </trkpt>
      <trkpt lat="40.7503090" lon="-4.7431870">
        <ele>1081.8</ele>
        <time>2019-08-14T08:31:49Z</time>
      </trkpt>
      <trkpt lat="40.7503560" lon="-4.7431820">
        <ele>1082.1</ele>
        <time>2019-08-14T08:31:51Z</time>
      </trkpt>
      <trkpt lat="40.7504070" lon="-4.7431760">
        <ele>1082.2</ele>
        <time>2019-08-14T08:31:53Z</time>
      </trkpt>
      <trkpt lat="40.7504610" lon="-4.7431740">
        <ele>1082.4</ele>
        <time>2019-08-14T08:31:55Z</time>
      </trkpt>
      <trkpt lat="40.7504880" lon="-4.7431730">
        <ele>1082.5</ele>
        <time>2019-08-14T08:31:56Z</time>
      </trkpt>
      <trkpt lat="40.7505390" lon="-4.7431750">
        <ele>1082.7</ele>
        <time>2019-08-14T08:31:58Z</time>
      </trkpt>
      <trkpt lat="40.7505880" lon="-4.7431760">
        <ele>1083.1</ele>
        <time>2019-08-14T08:32:00Z</time>
      </trkpt>
      <trkpt lat="40.7506310" lon="-4.7431670">
        <ele>1083.5</ele>
        <time>2019-08-14T08:32:02Z</time>
      </trkpt>
      <trkpt lat="40.7506730" lon="-4.7431520">
        <ele>1083.9</ele>
        <time>2019-08-14T08:32:04Z</time>
      </trkpt>
      <trkpt lat="40.7507230" lon="-4.7431570">
        <ele>1084.1</ele>
        <time>2019-08-14T08:32:06Z</time>
      </trkpt>
      <trkpt lat="40.7507740" lon="-4.7431710">
        <ele>1084.4</ele>
        <time>2019-08-14T08:32:08Z</time>
      </trkpt>
      <trkpt lat="40.7508240" lon="-4.7431800">
        <ele>1084.7</ele>
        <time>2019-08-14T08:32:10Z</time>
      </trkpt>
      <trkpt lat="40.7508680" lon="-4.7431950">
        <ele>1085.0</ele>
        <time>2019-08-14T08:32:12Z</time>
      </trkpt>
      <trkpt lat="40.7509050" lon="-4.7432060">
        <ele>1085.3</ele>
        <time>2019-08-14T08:32:14Z</time>
      </trkpt>
      <trkpt lat="40.7509370" lon="-4.7432180">
        <ele>1085.6</ele>
        <time>2019-08-14T08:32:16Z</time>
      </trkpt>
      <trkpt lat="40.7509720" lon="-4.7432270">
        <ele>1085.8</ele>
        <time>2019-08-14T08:32:18Z</time>
      </trkpt>
      <trkpt lat="40.7510100" lon="-4.7432360">
        <ele>1086.0</ele>
        <time>2019-08-14T08:32:20Z</time>
      </trkpt>
      <trkpt lat="40.7510510" lon="-4.7432260">
        <ele>1086.0</ele>
        <time>2019-08-14T08:32:22Z</time>
      </trkpt>
      <trkpt lat="40.7510920" lon="-4.7432040">
        <ele>1086.1</ele>
        <time>2019-08-14T08:32:24Z</time>
      </trkpt>
      <trkpt lat="40.7511370" lon="-4.7431940">
        <ele>1086.2</ele>
        <time>2019-08-14T08:32:26Z</time>
      </trkpt>
      <trkpt lat="40.7511880" lon="-4.7431760">
        <ele>1086.2</ele>
        <time>2019-08-14T08:32:28Z</time>
      </trkpt>
      <trkpt lat="40.7512400" lon="-4.7431560">
        <ele>1086.3</ele>
        <time>2019-08-14T08:32:30Z</time>
      </trkpt>
      <trkpt lat="40.7512930" lon="-4.7431550">
        <ele>1086.3</ele>
        <time>2019-08-14T08:32:32Z</time>
      </trkpt>
      <trkpt lat="40.7513200" lon="-4.7431600">
        <ele>1086.3</ele>
        <time>2019-08-14T08:32:33Z</time>
      </trkpt>
      <trkpt lat="40.7513490" lon="-4.7431620">
        <ele>1086.3</ele>
        <time>2019-08-14T08:32:34Z</time>
      </trkpt>
      <trkpt lat="40.7513790" lon="-4.7431600">
        <ele>1086.4</ele>
        <time>2019-08-14T08:32:35Z</time>
      </trkpt>
      <trkpt lat="40.7514080" lon="-4.7431530">
        <ele>1086.4</ele>
        <time>2019-08-14T08:32:36Z</time>
      </trkpt>
      <trkpt lat="40.7514340" lon="-4.7431440">
        <ele>1086.4</ele>
        <time>2019-08-14T08:32:37Z</time>
      </trkpt>
      <trkpt lat="40.7514860" lon="-4.7431260">
        <ele>1086.4</ele>
        <time>2019-08-14T08:32:39Z</time>
      </trkpt>
      <trkpt lat="40.7515160" lon="-4.7431210">
        <ele>1086.4</ele>
        <time>2019-08-14T08:32:40Z</time>
      </trkpt>
      <trkpt lat="40.7515480" lon="-4.7431180">
        <ele>1086.4</ele>
        <time>2019-08-14T08:32:41Z</time>
      </trkpt>
      <trkpt lat="40.7515790" lon="-4.7431140">
        <ele>1086.4</ele>
        <time>2019-08-14T08:32:42Z</time>
      </trkpt>
      <trkpt lat="40.7516100" lon="-4.7431130">
        <ele>1086.5</ele>
        <time>2019-08-14T08:32:43Z</time>
      </trkpt>
      <trkpt lat="40.7516420" lon="-4.7431130">
        <ele>1086.5</ele>
        <time>2019-08-14T08:32:44Z</time>
      </trkpt>
      <trkpt lat="40.7516740" lon="-4.7431160">
        <ele>1086.5</ele>
        <time>2019-08-14T08:32:45Z</time>
      </trkpt>
      <trkpt lat="40.7517060" lon="-4.7431220">
        <ele>1086.5</ele>
        <time>2019-08-14T08:32:46Z</time>
      </trkpt>
      <trkpt lat="40.7517380" lon="-4.7431320">
        <ele>1086.6</ele>
        <time>2019-08-14T08:32:47Z</time>
      </trkpt>
      <trkpt lat="40.7517700" lon="-4.7431440">
        <ele>1086.7</ele>
        <time>2019-08-14T08:32:48Z</time>
      </trkpt>
      <trkpt lat="40.7518030" lon="-4.7431490">
        <ele>1086.7</ele>
        <time>2019-08-14T08:32:49Z</time>
      </trkpt>
      <trkpt lat="40.7518380" lon="-4.7431470">
        <ele>1086.8</ele>
        <time>2019-08-14T08:32:50Z</time>
      </trkpt>
      <trkpt lat="40.7518750" lon="-4.7431430">
        <ele>1086.9</ele>
        <time>2019-08-14T08:32:51Z</time>
      </trkpt>
      <trkpt lat="40.7519130" lon="-4.7431420">
        <ele>1087.0</ele>
        <time>2019-08-14T08:32:52Z</time>
      </trkpt>
      <trkpt lat="40.7519520" lon="-4.7431430">
        <ele>1087.1</ele>
        <time>2019-08-14T08:32:53Z</time>
      </trkpt>
      <trkpt lat="40.7519930" lon="-4.7431450">
        <ele>1087.2</ele>
        <time>2019-08-14T08:32:54Z</time>
      </trkpt>
      <trkpt lat="40.7520320" lon="-4.7431460">
        <ele>1087.2</ele>
        <time>2019-08-14T08:32:55Z</time>
      </trkpt>
      <trkpt lat="40.7520690" lon="-4.7431480">
        <ele>1087.4</ele>
        <time>2019-08-14T08:32:56Z</time>
      </trkpt>
      <trkpt lat="40.7521050" lon="-4.7431470">
        <ele>1087.5</ele>
        <time>2019-08-14T08:32:57Z</time>
      </trkpt>
      <trkpt lat="40.7521400" lon="-4.7431470">
        <ele>1087.7</ele>
        <time>2019-08-14T08:32:58Z</time>
      </trkpt>
      <trkpt lat="40.7521750" lon="-4.7431470">
        <ele>1087.8</ele>
        <time>2019-08-14T08:32:59Z</time>
      </trkpt>
      <trkpt lat="40.7522080" lon="-4.7431490">
        <ele>1087.9</ele>
        <time>2019-08-14T08:33:00Z</time>
      </trkpt>
      <trkpt lat="40.7522430" lon="-4.7431520">
        <ele>1088.0</ele>
        <time>2019-08-14T08:33:01Z</time>
      </trkpt>
      <trkpt lat="40.7522770" lon="-4.7431600">
        <ele>1088.1</ele>
        <time>2019-08-14T08:33:02Z</time>
      </trkpt>
      <trkpt lat="40.7523100" lon="-4.7431670">
        <ele>1088.2</ele>
        <time>2019-08-14T08:33:03Z</time>
      </trkpt>
      <trkpt lat="40.7523440" lon="-4.7431690">
        <ele>1088.3</ele>
        <time>2019-08-14T08:33:04Z</time>
      </trkpt>
      <trkpt lat="40.7523780" lon="-4.7431660">
        <ele>1088.3</ele>
        <time>2019-08-14T08:33:05Z</time>
      </trkpt>
      <trkpt lat="40.7524120" lon="-4.7431620">
        <ele>1088.4</ele>
        <time>2019-08-14T08:33:06Z</time>
      </trkpt>
      <trkpt lat="40.7524450" lon="-4.7431600">
        <ele>1088.5</ele>
        <time>2019-08-14T08:33:07Z</time>
      </trkpt>
      <trkpt lat="40.7524770" lon="-4.7431640">
        <ele>1088.5</ele>
        <time>2019-08-14T08:33:08Z</time>
      </trkpt>
      <trkpt lat="40.7525080" lon="-4.7431680">
        <ele>1088.6</ele>
        <time>2019-08-14T08:33:09Z</time>
      </trkpt>
      <trkpt lat="40.7525370" lon="-4.7431710">
        <ele>1088.6</ele>
        <time>2019-08-14T08:33:10Z</time>
      </trkpt>
      <trkpt lat="40.7525650" lon="-4.7431740">
        <ele>1088.7</ele>
        <time>2019-08-14T08:33:11Z</time>
      </trkpt>
      <trkpt lat="40.7525950" lon="-4.7431760">
        <ele>1088.7</ele>
        <time>2019-08-14T08:33:12Z</time>
      </trkpt>
      <trkpt lat="40.7526280" lon="-4.7431800">
        <ele>1088.8</ele>
        <time>2019-08-14T08:33:13Z</time>
      </trkpt>
      <trkpt lat="40.7526630" lon="-4.7431830">
        <ele>1088.8</ele>
        <time>2019-08-14T08:33:14Z</time>
      </trkpt>
      <trkpt lat="40.7526990" lon="-4.7431870">
        <ele>1088.9</ele>
        <time>2019-08-14T08:33:15Z</time>
      </trkpt>
      <trkpt lat="40.7527340" lon="-4.7431940">
        <ele>1088.9</ele>
        <time>2019-08-14T08:33:16Z</time>
      </trkpt>
      <trkpt lat="40.7527690" lon="-4.7432020">
        <ele>1089.0</ele>
        <time>2019-08-14T08:33:17Z</time>
      </trkpt>
      <trkpt lat="40.7528040" lon="-4.7432110">
        <ele>1089.1</ele>
        <time>2019-08-14T08:33:18Z</time>
      </trkpt>
      <trkpt lat="40.7528380" lon="-4.7432200">
        <ele>1089.2</ele>
        <time>2019-08-14T08:33:19Z</time>
      </trkpt>
      <trkpt lat="40.7528690" lon="-4.7432270">
        <ele>1089.3</ele>
        <time>2019-08-14T08:33:20Z</time>
      </trkpt>
      <trkpt lat="40.7528980" lon="-4.7432340">
        <ele>1089.4</ele>
        <time>2019-08-14T08:33:21Z</time>
      </trkpt>
      <trkpt lat="40.7529260" lon="-4.7432380">
        <ele>1089.5</ele>
        <time>2019-08-14T08:33:22Z</time>
      </trkpt>
      <trkpt lat="40.7529720" lon="-4.7432470">
        <ele>1089.8</ele>
        <time>2019-08-14T08:33:24Z</time>
      </trkpt>
      <trkpt lat="40.7530160" lon="-4.7432530">
        <ele>1090.0</ele>
        <time>2019-08-14T08:33:26Z</time>
      </trkpt>
      <trkpt lat="40.7530680" lon="-4.7432610">
        <ele>1090.2</ele>
        <time>2019-08-14T08:33:28Z</time>
      </trkpt>
      <trkpt lat="40.7530950" lon="-4.7432640">
        <ele>1090.4</ele>
        <time>2019-08-14T08:33:29Z</time>
      </trkpt>
      <trkpt lat="40.7531230" lon="-4.7432660">
        <ele>1090.5</ele>
        <time>2019-08-14T08:33:30Z</time>
      </trkpt>
      <trkpt lat="40.7531500" lon="-4.7432660">
        <ele>1090.6</ele>
        <time>2019-08-14T08:33:31Z</time>
      </trkpt>
      <trkpt lat="40.7531770" lon="-4.7432660">
        <ele>1090.7</ele>
        <time>2019-08-14T08:33:32Z</time>
      </trkpt>
      <trkpt lat="40.7532050" lon="-4.7432660">
        <ele>1090.8</ele>
        <time>2019-08-14T08:33:33Z</time>
      </trkpt>
      <trkpt lat="40.7532330" lon="-4.7432650">
        <ele>1090.9</ele>
        <time>2019-08-14T08:33:34Z</time>
      </trkpt>
      <trkpt lat="40.7532620" lon="-4.7432630">
        <ele>1091.0</ele>
        <time>2019-08-14T08:33:35Z</time>
      </trkpt>
      <trkpt lat="40.7532910" lon="-4.7432600">
        <ele>1091.2</ele>
        <time>2019-08-14T08:33:36Z</time>
      </trkpt>
      <trkpt lat="40.7533190" lon="-4.7432570">
        <ele>1091.3</ele>
        <time>2019-08-14T08:33:37Z</time>
      </trkpt>
      <trkpt lat="40.7533470" lon="-4.7432530">
        <ele>1091.4</ele>
        <time>2019-08-14T08:33:38Z</time>
      </trkpt>
      <trkpt lat="40.7533740" lon="-4.7432510">
        <ele>1091.5</ele>
        <time>2019-08-14T08:33:39Z</time>
      </trkpt>
      <trkpt lat="40.7534020" lon="-4.7432480">
        <ele>1091.7</ele>
        <time>2019-08-14T08:33:40Z</time>
      </trkpt>
      <trkpt lat="40.7534300" lon="-4.7432450">
        <ele>1091.8</ele>
        <time>2019-08-14T08:33:41Z</time>
      </trkpt>
      <trkpt lat="40.7534830" lon="-4.7432440">
        <ele>1092.1</ele>
        <time>2019-08-14T08:33:43Z</time>
      </trkpt>
      <trkpt lat="40.7535100" lon="-4.7432450">
        <ele>1092.2</ele>
        <time>2019-08-14T08:33:44Z</time>
      </trkpt>
      <trkpt lat="40.7535390" lon="-4.7432430">
        <ele>1092.2</ele>
        <time>2019-08-14T08:33:45Z</time>
      </trkpt>
      <trkpt lat="40.7535690" lon="-4.7432410">
        <ele>1092.3</ele>
        <time>2019-08-14T08:33:46Z</time>
      </trkpt>
      <trkpt lat="40.7536000" lon="-4.7432390">
        <ele>1092.4</ele>
        <time>2019-08-14T08:33:47Z</time>
      </trkpt>
      <trkpt lat="40.7536320" lon="-4.7432380">
        <ele>1092.4</ele>
        <time>2019-08-14T08:33:48Z</time>
      </trkpt>
      <trkpt lat="40.7536660" lon="-4.7432360">
        <ele>1092.5</ele>
        <time>2019-08-14T08:33:49Z</time>
      </trkpt>
      <trkpt lat="40.7537010" lon="-4.7432340">
        <ele>1092.6</ele>
        <time>2019-08-14T08:33:50Z</time>
      </trkpt>
      <trkpt lat="40.7537360" lon="-4.7432310">
        <ele>1092.7</ele>
        <time>2019-08-14T08:33:51Z</time>
      </trkpt>
      <trkpt lat="40.7537720" lon="-4.7432240">
        <ele>1092.7</ele>
        <time>2019-08-14T08:33:52Z</time>
      </trkpt>
      <trkpt lat="40.7538090" lon="-4.7432160">
        <ele>1092.9</ele>
        <time>2019-08-14T08:33:53Z</time>
      </trkpt>
      <trkpt lat="40.7538450" lon="-4.7432100">
        <ele>1093.0</ele>
        <time>2019-08-14T08:33:54Z</time>
      </trkpt>
      <trkpt lat="40.7538790" lon="-4.7432050">
        <ele>1093.1</ele>
        <time>2019-08-14T08:33:55Z</time>
      </trkpt>
      <trkpt lat="40.7539110" lon="-4.7432000">
        <ele>1093.2</ele>
        <time>2019-08-14T08:33:56Z</time>
      </trkpt>
      <trkpt lat="40.7539430" lon="-4.7431960">
        <ele>1093.3</ele>
        <time>2019-08-14T08:33:57Z</time>
      </trkpt>
      <trkpt lat="40.7539740" lon="-4.7431910">
        <ele>1093.3</ele>
        <time>2019-08-14T08:33:58Z</time>
      </trkpt>
      <trkpt lat="40.7540050" lon="-4.7431870">
        <ele>1093.4</ele>
        <time>2019-08-14T08:33:59Z</time>
      </trkpt>
      <trkpt lat="40.7540350" lon="-4.7431850">
        <ele>1093.5</ele>
        <time>2019-08-14T08:34:00Z</time>
      </trkpt>
      <trkpt lat="40.7540640" lon="-4.7431830">
        <ele>1093.6</ele>
        <time>2019-08-14T08:34:01Z</time>
      </trkpt>
      <trkpt lat="40.7540910" lon="-4.7431830">
        <ele>1093.7</ele>
        <time>2019-08-14T08:34:02Z</time>
      </trkpt>
      <trkpt lat="40.7541430" lon="-4.7431840">
        <ele>1093.9</ele>
        <time>2019-08-14T08:34:04Z</time>
      </trkpt>
      <trkpt lat="40.7541990" lon="-4.7431800">
        <ele>1094.1</ele>
        <time>2019-08-14T08:34:06Z</time>
      </trkpt>
      <trkpt lat="40.7542290" lon="-4.7431810">
        <ele>1094.3</ele>
        <time>2019-08-14T08:34:07Z</time>
      </trkpt>
      <trkpt lat="40.7542590" lon="-4.7431790">
        <ele>1094.4</ele>
        <time>2019-08-14T08:34:08Z</time>
      </trkpt>
      <trkpt lat="40.7542880" lon="-4.7431760">
        <ele>1094.5</ele>
        <time>2019-08-14T08:34:09Z</time>
      </trkpt>
      <trkpt lat="40.7543150" lon="-4.7431730">
        <ele>1094.6</ele>
        <time>2019-08-14T08:34:10Z</time>
      </trkpt>
      <trkpt lat="40.7543650" lon="-4.7431650">
        <ele>1094.7</ele>
        <time>2019-08-14T08:34:12Z</time>
      </trkpt>
      <trkpt lat="40.7544100" lon="-4.7431620">
        <ele>1094.9</ele>
        <time>2019-08-14T08:34:14Z</time>
      </trkpt>
      <trkpt lat="40.7544510" lon="-4.7431580">
        <ele>1095.0</ele>
        <time>2019-08-14T08:34:16Z</time>
      </trkpt>
      <trkpt lat="40.7544930" lon="-4.7431500">
        <ele>1095.1</ele>
        <time>2019-08-14T08:34:18Z</time>
      </trkpt>
      <trkpt lat="40.7545370" lon="-4.7431420">
        <ele>1095.2</ele>
        <time>2019-08-14T08:34:20Z</time>
      </trkpt>
      <trkpt lat="40.7545830" lon="-4.7431380">
        <ele>1095.4</ele>
        <time>2019-08-14T08:34:22Z</time>
      </trkpt>
      <trkpt lat="40.7546310" lon="-4.7431330">
        <ele>1095.7</ele>
        <time>2019-08-14T08:34:24Z</time>
      </trkpt>
      <trkpt lat="40.7546760" lon="-4.7431180">
        <ele>1096.0</ele>
        <time>2019-08-14T08:34:26Z</time>
      </trkpt>
      <trkpt lat="40.7547190" lon="-4.7430990">
        <ele>1096.3</ele>
        <time>2019-08-14T08:34:28Z</time>
      </trkpt>
      <trkpt lat="40.7547660" lon="-4.7430830">
        <ele>1096.7</ele>
        <time>2019-08-14T08:34:30Z</time>
      </trkpt>
      <trkpt lat="40.7548110" lon="-4.7430680">
        <ele>1096.9</ele>
        <time>2019-08-14T08:34:32Z</time>
      </trkpt>
      <trkpt lat="40.7548530" lon="-4.7430540">
        <ele>1097.2</ele>
        <time>2019-08-14T08:34:34Z</time>
      </trkpt>
      <trkpt lat="40.7548960" lon="-4.7430460">
        <ele>1097.5</ele>
        <time>2019-08-14T08:34:36Z</time>
      </trkpt>
      <trkpt lat="40.7549370" lon="-4.7430360">
        <ele>1097.8</ele>
        <time>2019-08-14T08:34:38Z</time>
      </trkpt>
      <trkpt lat="40.7549760" lon="-4.7430230">
        <ele>1098.1</ele>
        <time>2019-08-14T08:34:40Z</time>
      </trkpt>
      <trkpt lat="40.7550180" lon="-4.7430070">
        <ele>1098.4</ele>
        <time>2019-08-14T08:34:42Z</time>
      </trkpt>
      <trkpt lat="40.7550610" lon="-4.7429930">
        <ele>1098.9</ele>
        <time>2019-08-14T08:34:44Z</time>
      </trkpt>
      <trkpt lat="40.7551010" lon="-4.7429820">
        <ele>1099.3</ele>
        <time>2019-08-14T08:34:46Z</time>
      </trkpt>
      <trkpt lat="40.7551430" lon="-4.7429750">
        <ele>1099.6</ele>
        <time>2019-08-14T08:34:48Z</time>
      </trkpt>
      <trkpt lat="40.7551840" lon="-4.7429660">
        <ele>1099.9</ele>
        <time>2019-08-14T08:34:50Z</time>
      </trkpt>
      <trkpt lat="40.7552250" lon="-4.7429610">
        <ele>1100.3</ele>
        <time>2019-08-14T08:34:52Z</time>
      </trkpt>
      <trkpt lat="40.7552640" lon="-4.7429570">
        <ele>1100.8</ele>
        <time>2019-08-14T08:34:54Z</time>
      </trkpt>
      <trkpt lat="40.7553020" lon="-4.7429540">
        <ele>1101.2</ele>
        <time>2019-08-14T08:34:56Z</time>
      </trkpt>
      <trkpt lat="40.7553420" lon="-4.7429480">
        <ele>1101.5</ele>
        <time>2019-08-14T08:34:58Z</time>
      </trkpt>
      <trkpt lat="40.7553790" lon="-4.7429440">
        <ele>1101.8</ele>
        <time>2019-08-14T08:35:00Z</time>
      </trkpt>
      <trkpt lat="40.7554170" lon="-4.7429440">
        <ele>1102.1</ele>
        <time>2019-08-14T08:35:02Z</time>
      </trkpt>
      <trkpt lat="40.7554560" lon="-4.7429380">
        <ele>1102.5</ele>
        <time>2019-08-14T08:35:04Z</time>
      </trkpt>
      <trkpt lat="40.7554920" lon="-4.7429310">
        <ele>1102.9</ele>
        <time>2019-08-14T08:35:06Z</time>
      </trkpt>
      <trkpt lat="40.7555290" lon="-4.7429250">
        <ele>1103.3</ele>
        <time>2019-08-14T08:35:08Z</time>
      </trkpt>
      <trkpt lat="40.7555640" lon="-4.7429150">
        <ele>1103.5</ele>
        <time>2019-08-14T08:35:10Z</time>
      </trkpt>
      <trkpt lat="40.7555940" lon="-4.7428910">
        <ele>1103.7</ele>
        <time>2019-08-14T08:35:12Z</time>
      </trkpt>
      <trkpt lat="40.7556220" lon="-4.7428670">
        <ele>1103.9</ele>
        <time>2019-08-14T08:35:14Z</time>
      </trkpt>
      <trkpt lat="40.7556510" lon="-4.7428470">
        <ele>1104.2</ele>
        <time>2019-08-14T08:35:16Z</time>
      </trkpt>
      <trkpt lat="40.7556800" lon="-4.7428350">
        <ele>1104.4</ele>
        <time>2019-08-14T08:35:18Z</time>
      </trkpt>
      <trkpt lat="40.7557090" lon="-4.7428310">
        <ele>1104.7</ele>
        <time>2019-08-14T08:35:20Z</time>
      </trkpt>
      <trkpt lat="40.7557390" lon="-4.7428350">
        <ele>1105.1</ele>
        <time>2019-08-14T08:35:22Z</time>
      </trkpt>
      <trkpt lat="40.7557700" lon="-4.7428430">
        <ele>1105.5</ele>
        <time>2019-08-14T08:35:24Z</time>
      </trkpt>
      <trkpt lat="40.7558030" lon="-4.7428520">
        <ele>1105.8</ele>
        <time>2019-08-14T08:35:26Z</time>
      </trkpt>
      <trkpt lat="40.7558350" lon="-4.7428620">
        <ele>1106.2</ele>
        <time>2019-08-14T08:35:28Z</time>
      </trkpt>
      <trkpt lat="40.7558670" lon="-4.7428700">
        <ele>1106.6</ele>
        <time>2019-08-14T08:35:30Z</time>
      </trkpt>
      <trkpt lat="40.7558990" lon="-4.7428780">
        <ele>1107.0</ele>
        <time>2019-08-14T08:35:32Z</time>
      </trkpt>
      <trkpt lat="40.7559310" lon="-4.7428810">
        <ele>1107.3</ele>
        <time>2019-08-14T08:35:34Z</time>
      </trkpt>
      <trkpt lat="40.7559650" lon="-4.7428810">
        <ele>1107.7</ele>
        <time>2019-08-14T08:35:36Z</time>
      </trkpt>
      <trkpt lat="40.7559990" lon="-4.7428790">
        <ele>1108.0</ele>
        <time>2019-08-14T08:35:38Z</time>
      </trkpt>
      <trkpt lat="40.7560310" lon="-4.7428730">
        <ele>1108.2</ele>
        <time>2019-08-14T08:35:40Z</time>
      </trkpt>
      <trkpt lat="40.7560650" lon="-4.7428600">
        <ele>1108.5</ele>
        <time>2019-08-14T08:35:42Z</time>
      </trkpt>
      <trkpt lat="40.7561000" lon="-4.7428420">
        <ele>1108.7</ele>
        <time>2019-08-14T08:35:44Z</time>
      </trkpt>
      <trkpt lat="40.7561330" lon="-4.7428220">
        <ele>1109.1</ele>
        <time>2019-08-14T08:35:46Z</time>
      </trkpt>
      <trkpt lat="40.7561690" lon="-4.7427990">
        <ele>1109.5</ele>
        <time>2019-08-14T08:35:48Z</time>
      </trkpt>
      <trkpt lat="40.7562020" lon="-4.7427800">
        <ele>1109.8</ele>
        <time>2019-08-14T08:35:50Z</time>
      </trkpt>
      <trkpt lat="40.7562340" lon="-4.7427520">
        <ele>1110.1</ele>
        <time>2019-08-14T08:35:52Z</time>
      </trkpt>
      <trkpt lat="40.7562660" lon="-4.7427220">
        <ele>1110.3</ele>
        <time>2019-08-14T08:35:54Z</time>
      </trkpt>
      <trkpt lat="40.7562980" lon="-4.7426990">
        <ele>1110.5</ele>
        <time>2019-08-14T08:35:56Z</time>
      </trkpt>
      <trkpt lat="40.7563290" lon="-4.7426790">
        <ele>1110.8</ele>
        <time>2019-08-14T08:35:58Z</time>
      </trkpt>
      <trkpt lat="40.7563600" lon="-4.7426610">
        <ele>1111.1</ele>
        <time>2019-08-14T08:36:00Z</time>
      </trkpt>
      <trkpt lat="40.7563940" lon="-4.7426510">
        <ele>1111.5</ele>
        <time>2019-08-14T08:36:02Z</time>
      </trkpt>
      <trkpt lat="40.7564300" lon="-4.7426470">
        <ele>1111.8</ele>
        <time>2019-08-14T08:36:04Z</time>
      </trkpt>
      <trkpt lat="40.7564670" lon="-4.7426460">
        <ele>1112.1</ele>
        <time>2019-08-14T08:36:06Z</time>
      </trkpt>
      <trkpt lat="40.7565030" lon="-4.7426430">
        <ele>1112.3</ele>
        <time>2019-08-14T08:36:08Z</time>
      </trkpt>
      <trkpt lat="40.7565380" lon="-4.7426440">
        <ele>1112.6</ele>
        <time>2019-08-14T08:36:10Z</time>
      </trkpt>
      <trkpt lat="40.7565740" lon="-4.7426430">
        <ele>1112.8</ele>
        <time>2019-08-14T08:36:12Z</time>
      </trkpt>
      <trkpt lat="40.7566100" lon="-4.7426430">
        <ele>1113.1</ele>
        <time>2019-08-14T08:36:14Z</time>
      </trkpt>
      <trkpt lat="40.7566430" lon="-4.7426490">
        <ele>1113.4</ele>
        <time>2019-08-14T08:36:16Z</time>
      </trkpt>
      <trkpt lat="40.7566760" lon="-4.7426590">
        <ele>1113.8</ele>
        <time>2019-08-14T08:36:18Z</time>
      </trkpt>
      <trkpt lat="40.7567070" lon="-4.7426710">
        <ele>1114.0</ele>
        <time>2019-08-14T08:36:20Z</time>
      </trkpt>
      <trkpt lat="40.7567390" lon="-4.7426840">
        <ele>1114.2</ele>
        <time>2019-08-14T08:36:22Z</time>
      </trkpt>
      <trkpt lat="40.7567730" lon="-4.7426960">
        <ele>1114.4</ele>
        <time>2019-08-14T08:36:24Z</time>
      </trkpt>
      <trkpt lat="40.7568060" lon="-4.7427090">
        <ele>1114.8</ele>
        <time>2019-08-14T08:36:26Z</time>
      </trkpt>
      <trkpt lat="40.7568410" lon="-4.7427220">
        <ele>1115.1</ele>
        <time>2019-08-14T08:36:28Z</time>
      </trkpt>
      <trkpt lat="40.7568790" lon="-4.7427290">
        <ele>1115.5</ele>
        <time>2019-08-14T08:36:30Z</time>
      </trkpt>
      <trkpt lat="40.7569140" lon="-4.7427370">
        <ele>1115.9</ele>
        <time>2019-08-14T08:36:32Z</time>
      </trkpt>
      <trkpt lat="40.7569480" lon="-4.7427440">
        <ele>1116.1</ele>
        <time>2019-08-14T08:36:34Z</time>
      </trkpt>
      <trkpt lat="40.7569770" lon="-4.7427510">
        <ele>1116.3</ele>
        <time>2019-08-14T08:36:36Z</time>
      </trkpt>
      <trkpt lat="40.7570070" lon="-4.7427610">
        <ele>1116.5</ele>
        <time>2019-08-14T08:36:38Z</time>
      </trkpt>
      <trkpt lat="40.7570390" lon="-4.7427780">
        <ele>1116.8</ele>
        <time>2019-08-14T08:36:40Z</time>
      </trkpt>
      <trkpt lat="40.7570660" lon="-4.7428040">
        <ele>1117.1</ele>
        <time>2019-08-14T08:36:42Z</time>
      </trkpt>
      <trkpt lat="40.7570930" lon="-4.7428370">
        <ele>1117.5</ele>
        <time>2019-08-14T08:36:44Z</time>
      </trkpt>
      <trkpt lat="40.7571200" lon="-4.7428730">
        <ele>1117.8</ele>
        <time>2019-08-14T08:36:46Z</time>
      </trkpt>
      <trkpt lat="40.7571500" lon="-4.7429120">
        <ele>1118.2</ele>
        <time>2019-08-14T08:36:48Z</time>
      </trkpt>
      <trkpt lat="40.7571860" lon="-4.7429560">
        <ele>1118.8</ele>
        <time>2019-08-14T08:36:50Z</time>
      </trkpt>
      <trkpt lat="40.7572270" lon="-4.7430010">
        <ele>1119.3</ele>
        <time>2019-08-14T08:36:52Z</time>
      </trkpt>
      <trkpt lat="40.7572500" lon="-4.7430230">
        <ele>1119.6</ele>
        <time>2019-08-14T08:36:53Z</time>
      </trkpt>
      <trkpt lat="40.7572730" lon="-4.7430430">
        <ele>1119.7</ele>
        <time>2019-08-14T08:36:54Z</time>
      </trkpt>
      <trkpt lat="40.7573170" lon="-4.7430800">
        <ele>1120.0</ele>
        <time>2019-08-14T08:36:56Z</time>
      </trkpt>
      <trkpt lat="40.7573400" lon="-4.7430980">
        <ele>1120.0</ele>
        <time>2019-08-14T08:36:57Z</time>
      </trkpt>
      <trkpt lat="40.7573660" lon="-4.7431180">
        <ele>1120.1</ele>
        <time>2019-08-14T08:36:58Z</time>
      </trkpt>
      <trkpt lat="40.7573940" lon="-4.7431390">
        <ele>1120.1</ele>
        <time>2019-08-14T08:36:59Z</time>
      </trkpt>
      <trkpt lat="40.7574240" lon="-4.7431610">
        <ele>1120.2</ele>
        <time>2019-08-14T08:37:00Z</time>
      </trkpt>
      <trkpt lat="40.7574560" lon="-4.7431840">
        <ele>1120.2</ele>
        <time>2019-08-14T08:37:01Z</time>
      </trkpt>
      <trkpt lat="40.7574900" lon="-4.7432060">
        <ele>1120.3</ele>
        <time>2019-08-14T08:37:02Z</time>
      </trkpt>
      <trkpt lat="40.7575250" lon="-4.7432280">
        <ele>1120.3</ele>
        <time>2019-08-14T08:37:03Z</time>
      </trkpt>
      <trkpt lat="40.7575610" lon="-4.7432500">
        <ele>1120.3</ele>
        <time>2019-08-14T08:37:04Z</time>
      </trkpt>
      <trkpt lat="40.7575980" lon="-4.7432720">
        <ele>1120.3</ele>
        <time>2019-08-14T08:37:05Z</time>
      </trkpt>
      <trkpt lat="40.7576350" lon="-4.7432920">
        <ele>1120.3</ele>
        <time>2019-08-14T08:37:06Z</time>
      </trkpt>
      <trkpt lat="40.7576700" lon="-4.7433100">
        <ele>1120.4</ele>
        <time>2019-08-14T08:37:07Z</time>
      </trkpt>
      <trkpt lat="40.7577060" lon="-4.7433260">
        <ele>1120.4</ele>
        <time>2019-08-14T08:37:08Z</time>
      </trkpt>
      <trkpt lat="40.7577420" lon="-4.7433370">
        <ele>1120.4</ele>
        <time>2019-08-14T08:37:09Z</time>
      </trkpt>
      <trkpt lat="40.7577800" lon="-4.7433480">
        <ele>1120.4</ele>
        <time>2019-08-14T08:37:10Z</time>
      </trkpt>
      <trkpt lat="40.7578190" lon="-4.7433570">
        <ele>1120.1</ele>
        <time>2019-08-14T08:37:11Z</time>
      </trkpt>
      <trkpt lat="40.7578580" lon="-4.7433680">
        <ele>1119.8</ele>
        <time>2019-08-14T08:37:12Z</time>
      </trkpt>
      <trkpt lat="40.7578970" lon="-4.7433780">
        <ele>1119.5</ele>
        <time>2019-08-14T08:37:13Z</time>
      </trkpt>
      <trkpt lat="40.7579350" lon="-4.7433880">
        <ele>1119.3</ele>
        <time>2019-08-14T08:37:14Z</time>
      </trkpt>
      <trkpt lat="40.7579720" lon="-4.7433990">
        <ele>1119.0</ele>
        <time>2019-08-14T08:37:15Z</time>
      </trkpt>
      <trkpt lat="40.7580100" lon="-4.7434100">
        <ele>1118.8</ele>
        <time>2019-08-14T08:37:16Z</time>
      </trkpt>
      <trkpt lat="40.7580490" lon="-4.7434190">
        <ele>1118.6</ele>
        <time>2019-08-14T08:37:17Z</time>
      </trkpt>
      <trkpt lat="40.7580890" lon="-4.7434270">
        <ele>1118.4</ele>
        <time>2019-08-14T08:37:18Z</time>
      </trkpt>
      <trkpt lat="40.7581310" lon="-4.7434370">
        <ele>1118.1</ele>
        <time>2019-08-14T08:37:19Z</time>
      </trkpt>
      <trkpt lat="40.7581740" lon="-4.7434480">
        <ele>1117.8</ele>
        <time>2019-08-14T08:37:20Z</time>
      </trkpt>
      <trkpt lat="40.7582170" lon="-4.7434610">
        <ele>1117.4</ele>
        <time>2019-08-14T08:37:21Z</time>
      </trkpt>
      <trkpt lat="40.7582590" lon="-4.7434790">
        <ele>1117.1</ele>
        <time>2019-08-14T08:37:22Z</time>
      </trkpt>
      <trkpt lat="40.7583020" lon="-4.7435010">
        <ele>1116.7</ele>
        <time>2019-08-14T08:37:23Z</time>
      </trkpt>
      <trkpt lat="40.7583450" lon="-4.7435270">
        <ele>1116.3</ele>
        <time>2019-08-14T08:37:24Z</time>
      </trkpt>
      <trkpt lat="40.7583880" lon="-4.7435560">
        <ele>1115.8</ele>
        <time>2019-08-14T08:37:25Z</time>
      </trkpt>
      <trkpt lat="40.7584310" lon="-4.7435850">
        <ele>1115.4</ele>
        <time>2019-08-14T08:37:26Z</time>
      </trkpt>
      <trkpt lat="40.7584750" lon="-4.7436090">
        <ele>1115.0</ele>
        <time>2019-08-14T08:37:27Z</time>
      </trkpt>
      <trkpt lat="40.7585240" lon="-4.7436280">
        <ele>1114.6</ele>
        <time>2019-08-14T08:37:28Z</time>
      </trkpt>
      <trkpt lat="40.7585720" lon="-4.7436400">
        <ele>1114.2</ele>
        <time>2019-08-14T08:37:29Z</time>
      </trkpt>
      <trkpt lat="40.7586230" lon="-4.7436470">
        <ele>1113.8</ele>
        <time>2019-08-14T08:37:30Z</time>
      </trkpt>
      <trkpt lat="40.7586780" lon="-4.7436500">
        <ele>1113.4</ele>
        <time>2019-08-14T08:37:31Z</time>
      </trkpt>
      <trkpt lat="40.7587350" lon="-4.7436540">
        <ele>1113.1</ele>
        <time>2019-08-14T08:37:32Z</time>
      </trkpt>
      <trkpt lat="40.7587950" lon="-4.7436650">
        <ele>1112.8</ele>
        <time>2019-08-14T08:37:33Z</time>
      </trkpt>
      <trkpt lat="40.7588550" lon="-4.7436810">
        <ele>1112.6</ele>
        <time>2019-08-14T08:37:34Z</time>
      </trkpt>
      <trkpt lat="40.7589170" lon="-4.7436990">
        <ele>1112.5</ele>
        <time>2019-08-14T08:37:35Z</time>
      </trkpt>
      <trkpt lat="40.7589800" lon="-4.7437200">
        <ele>1112.3</ele>
        <time>2019-08-14T08:37:36Z</time>
      </trkpt>
      <trkpt lat="40.7590420" lon="-4.7437440">
        <ele>1112.1</ele>
        <time>2019-08-14T08:37:37Z</time>
      </trkpt>
      <trkpt lat="40.7591050" lon="-4.7437730">
        <ele>1111.9</ele>
        <time>2019-08-14T08:37:38Z</time>
      </trkpt>
      <trkpt lat="40.7591660" lon="-4.7438030">
        <ele>1111.6</ele>
        <time>2019-08-14T08:37:39Z</time>
      </trkpt>
      <trkpt lat="40.7592290" lon="-4.7438330">
        <ele>1111.3</ele>
        <time>2019-08-14T08:37:40Z</time>
      </trkpt>
      <trkpt lat="40.7592910" lon="-4.7438630">
        <ele>1111.0</ele>
        <time>2019-08-14T08:37:41Z</time>
      </trkpt>
      <trkpt lat="40.7593520" lon="-4.7438920">
        <ele>1110.7</ele>
        <time>2019-08-14T08:37:42Z</time>
      </trkpt>
      <trkpt lat="40.7594120" lon="-4.7439200">
        <ele>1110.5</ele>
        <time>2019-08-14T08:37:43Z</time>
      </trkpt>
      <trkpt lat="40.7594730" lon="-4.7439470">
        <ele>1110.4</ele>
        <time>2019-08-14T08:37:44Z</time>
      </trkpt>
      <trkpt lat="40.7595320" lon="-4.7439730">
        <ele>1110.4</ele>
        <time>2019-08-14T08:37:45Z</time>
      </trkpt>
      <trkpt lat="40.7595920" lon="-4.7439930">
        <ele>1110.4</ele>
        <time>2019-08-14T08:37:46Z</time>
      </trkpt>
      <trkpt lat="40.7596500" lon="-4.7440080">
        <ele>1110.4</ele>
        <time>2019-08-14T08:37:47Z</time>
      </trkpt>
      <trkpt lat="40.7597090" lon="-4.7440200">
        <ele>1110.4</ele>
        <time>2019-08-14T08:37:48Z</time>
      </trkpt>
      <trkpt lat="40.7597680" lon="-4.7440330">
        <ele>1110.4</ele>
        <time>2019-08-14T08:37:49Z</time>
      </trkpt>
      <trkpt lat="40.7598270" lon="-4.7440470">
        <ele>1110.4</ele>
        <time>2019-08-14T08:37:50Z</time>
      </trkpt>
      <trkpt lat="40.7598860" lon="-4.7440590">
        <ele>1110.4</ele>
        <time>2019-08-14T08:37:51Z</time>
      </trkpt>
      <trkpt lat="40.7599440" lon="-4.7440720">
        <ele>1110.4</ele>
        <time>2019-08-14T08:37:52Z</time>
      </trkpt>
      <trkpt lat="40.7599980" lon="-4.7440870">
        <ele>1110.4</ele>
        <time>2019-08-14T08:37:53Z</time>
      </trkpt>
      <trkpt lat="40.7600470" lon="-4.7441050">
        <ele>1110.4</ele>
        <time>2019-08-14T08:37:54Z</time>
      </trkpt>
      <trkpt lat="40.7600880" lon="-4.7441250">
        <ele>1110.4</ele>
        <time>2019-08-14T08:37:55Z</time>
      </trkpt>
      <trkpt lat="40.7601200" lon="-4.7441470">
        <ele>1110.4</ele>
        <time>2019-08-14T08:37:56Z</time>
      </trkpt>
      <trkpt lat="40.7601490" lon="-4.7441720">
        <ele>1110.5</ele>
        <time>2019-08-14T08:37:57Z</time>
      </trkpt>
      <trkpt lat="40.7601760" lon="-4.7442000">
        <ele>1110.5</ele>
        <time>2019-08-14T08:37:58Z</time>
      </trkpt>
      <trkpt lat="40.7602030" lon="-4.7442260">
        <ele>1110.6</ele>
        <time>2019-08-14T08:37:59Z</time>
      </trkpt>
      <trkpt lat="40.7602320" lon="-4.7442490">
        <ele>1110.7</ele>
        <time>2019-08-14T08:38:00Z</time>
      </trkpt>
      <trkpt lat="40.7602630" lon="-4.7442700">
        <ele>1110.8</ele>
        <time>2019-08-14T08:38:01Z</time>
      </trkpt>
      <trkpt lat="40.7602950" lon="-4.7442900">
        <ele>1110.9</ele>
        <time>2019-08-14T08:38:02Z</time>
      </trkpt>
      <trkpt lat="40.7603280" lon="-4.7443070">
        <ele>1111.0</ele>
        <time>2019-08-14T08:38:03Z</time>
      </trkpt>
      <trkpt lat="40.7603600" lon="-4.7443220">
        <ele>1111.0</ele>
        <time>2019-08-14T08:38:04Z</time>
      </trkpt>
      <trkpt lat="40.7603920" lon="-4.7443340">
        <ele>1111.1</ele>
        <time>2019-08-14T08:38:05Z</time>
      </trkpt>
      <trkpt lat="40.7604240" lon="-4.7443470">
        <ele>1111.2</ele>
        <time>2019-08-14T08:38:06Z</time>
      </trkpt>
      <trkpt lat="40.7604560" lon="-4.7443560">
        <ele>1111.2</ele>
        <time>2019-08-14T08:38:07Z</time>
      </trkpt>
      <trkpt lat="40.7604890" lon="-4.7443590">
        <ele>1111.3</ele>
        <time>2019-08-14T08:38:08Z</time>
      </trkpt>
      <trkpt lat="40.7605220" lon="-4.7443600">
        <ele>1111.3</ele>
        <time>2019-08-14T08:38:09Z</time>
      </trkpt>
      <trkpt lat="40.7605540" lon="-4.7443660">
        <ele>1111.3</ele>
        <time>2019-08-14T08:38:10Z</time>
      </trkpt>
      <trkpt lat="40.7605870" lon="-4.7443750">
        <ele>1111.3</ele>
        <time>2019-08-14T08:38:11Z</time>
      </trkpt>
      <trkpt lat="40.7606180" lon="-4.7443870">
        <ele>1111.4</ele>
        <time>2019-08-14T08:38:12Z</time>
      </trkpt>
      <trkpt lat="40.7606490" lon="-4.7444010">
        <ele>1111.4</ele>
        <time>2019-08-14T08:38:13Z</time>
      </trkpt>
      <trkpt lat="40.7606810" lon="-4.7444180">
        <ele>1111.4</ele>
        <time>2019-08-14T08:38:14Z</time>
      </trkpt>
      <trkpt lat="40.7607140" lon="-4.7444380">
        <ele>1111.4</ele>
        <time>2019-08-14T08:38:15Z</time>
      </trkpt>
      <trkpt lat="40.7607470" lon="-4.7444570">
        <ele>1111.5</ele>
        <time>2019-08-14T08:38:16Z</time>
      </trkpt>
      <trkpt lat="40.7607800" lon="-4.7444750">
        <ele>1111.5</ele>
        <time>2019-08-14T08:38:17Z</time>
      </trkpt>
      <trkpt lat="40.7608130" lon="-4.7444910">
        <ele>1111.6</ele>
        <time>2019-08-14T08:38:18Z</time>
      </trkpt>
      <trkpt lat="40.7608470" lon="-4.7445010">
        <ele>1111.7</ele>
        <time>2019-08-14T08:38:19Z</time>
      </trkpt>
      <trkpt lat="40.7608810" lon="-4.7445040">
        <ele>1111.8</ele>
        <time>2019-08-14T08:38:20Z</time>
      </trkpt>
      <trkpt lat="40.7609150" lon="-4.7445040">
        <ele>1111.9</ele>
        <time>2019-08-14T08:38:21Z</time>
      </trkpt>
      <trkpt lat="40.7609480" lon="-4.7445030">
        <ele>1112.0</ele>
        <time>2019-08-14T08:38:22Z</time>
      </trkpt>
      <trkpt lat="40.7609810" lon="-4.7445030">
        <ele>1112.1</ele>
        <time>2019-08-14T08:38:23Z</time>
      </trkpt>
      <trkpt lat="40.7610130" lon="-4.7445040">
        <ele>1112.3</ele>
        <time>2019-08-14T08:38:24Z</time>
      </trkpt>
      <trkpt lat="40.7610440" lon="-4.7445050">
        <ele>1112.4</ele>
        <time>2019-08-14T08:38:25Z</time>
      </trkpt>
      <trkpt lat="40.7610720" lon="-4.7445080">
        <ele>1112.5</ele>
        <time>2019-08-14T08:38:26Z</time>
      </trkpt>
      <trkpt lat="40.7611000" lon="-4.7445110">
        <ele>1112.6</ele>
        <time>2019-08-14T08:38:27Z</time>
      </trkpt>
      <trkpt lat="40.7611270" lon="-4.7445140">
        <ele>1112.7</ele>
        <time>2019-08-14T08:38:28Z</time>
      </trkpt>
      <trkpt lat="40.7611560" lon="-4.7445160">
        <ele>1112.8</ele>
        <time>2019-08-14T08:38:29Z</time>
      </trkpt>
      <trkpt lat="40.7611840" lon="-4.7445150">
        <ele>1112.9</ele>
        <time>2019-08-14T08:38:30Z</time>
      </trkpt>
      <trkpt lat="40.7612110" lon="-4.7445110">
        <ele>1113.0</ele>
        <time>2019-08-14T08:38:31Z</time>
      </trkpt>
      <trkpt lat="40.7612410" lon="-4.7445030">
        <ele>1113.1</ele>
        <time>2019-08-14T08:38:32Z</time>
      </trkpt>
      <trkpt lat="40.7612720" lon="-4.7444930">
        <ele>1113.2</ele>
        <time>2019-08-14T08:38:33Z</time>
      </trkpt>
      <trkpt lat="40.7613040" lon="-4.7444830">
        <ele>1113.3</ele>
        <time>2019-08-14T08:38:34Z</time>
      </trkpt>
      <trkpt lat="40.7613360" lon="-4.7444720">
        <ele>1113.4</ele>
        <time>2019-08-14T08:38:35Z</time>
      </trkpt>
      <trkpt lat="40.7613700" lon="-4.7444610">
        <ele>1113.5</ele>
        <time>2019-08-14T08:38:36Z</time>
      </trkpt>
      <trkpt lat="40.7614040" lon="-4.7444500">
        <ele>1113.6</ele>
        <time>2019-08-14T08:38:37Z</time>
      </trkpt>
      <trkpt lat="40.7614390" lon="-4.7444390">
        <ele>1113.7</ele>
        <time>2019-08-14T08:38:38Z</time>
      </trkpt>
      <trkpt lat="40.7614730" lon="-4.7444290">
        <ele>1113.8</ele>
        <time>2019-08-14T08:38:39Z</time>
      </trkpt>
      <trkpt lat="40.7615070" lon="-4.7444210">
        <ele>1113.9</ele>
        <time>2019-08-14T08:38:40Z</time>
      </trkpt>
      <trkpt lat="40.7615420" lon="-4.7444130">
        <ele>1114.0</ele>
        <time>2019-08-14T08:38:41Z</time>
      </trkpt>
      <trkpt lat="40.7615780" lon="-4.7444020">
        <ele>1114.1</ele>
        <time>2019-08-14T08:38:42Z</time>
      </trkpt>
      <trkpt lat="40.7616150" lon="-4.7443920">
        <ele>1114.1</ele>
        <time>2019-08-14T08:38:43Z</time>
      </trkpt>
      <trkpt lat="40.7616510" lon="-4.7443840">
        <ele>1114.2</ele>
        <time>2019-08-14T08:38:44Z</time>
      </trkpt>
      <trkpt lat="40.7616840" lon="-4.7443760">
        <ele>1114.2</ele>
        <time>2019-08-14T08:38:45Z</time>
      </trkpt>
      <trkpt lat="40.7617190" lon="-4.7443690">
        <ele>1114.2</ele>
        <time>2019-08-14T08:38:46Z</time>
      </trkpt>
      <trkpt lat="40.7617540" lon="-4.7443620">
        <ele>1114.3</ele>
        <time>2019-08-14T08:38:47Z</time>
      </trkpt>
      <trkpt lat="40.7617910" lon="-4.7443550">
        <ele>1114.3</ele>
        <time>2019-08-14T08:38:48Z</time>
      </trkpt>
      <trkpt lat="40.7618280" lon="-4.7443480">
        <ele>1114.3</ele>
        <time>2019-08-14T08:38:49Z</time>
      </trkpt>
      <trkpt lat="40.7618670" lon="-4.7443400">
        <ele>1114.4</ele>
        <time>2019-08-14T08:38:50Z</time>
      </trkpt>
      <trkpt lat="40.7619060" lon="-4.7443310">
        <ele>1114.5</ele>
        <time>2019-08-14T08:38:51Z</time>
      </trkpt>
      <trkpt lat="40.7619440" lon="-4.7443220">
        <ele>1114.6</ele>
        <time>2019-08-14T08:38:52Z</time>
      </trkpt>
      <trkpt lat="40.7619830" lon="-4.7443120">
        <ele>1114.8</ele>
        <time>2019-08-14T08:38:53Z</time>
      </trkpt>
      <trkpt lat="40.7620190" lon="-4.7443020">
        <ele>1114.9</ele>
        <time>2019-08-14T08:38:54Z</time>
      </trkpt>
      <trkpt lat="40.7620530" lon="-4.7442930">
        <ele>1115.0</ele>
        <time>2019-08-14T08:38:55Z</time>
      </trkpt>
      <trkpt lat="40.7620890" lon="-4.7442820">
        <ele>1115.0</ele>
        <time>2019-08-14T08:38:56Z</time>
      </trkpt>
      <trkpt lat="40.7621240" lon="-4.7442690">
        <ele>1115.1</ele>
        <time>2019-08-14T08:38:57Z</time>
      </trkpt>
      <trkpt lat="40.7621610" lon="-4.7442530">
        <ele>1115.2</ele>
        <time>2019-08-14T08:38:58Z</time>
      </trkpt>
      <trkpt lat="40.7621990" lon="-4.7442360">
        <ele>1115.2</ele>
        <time>2019-08-14T08:38:59Z</time>
      </trkpt>
      <trkpt lat="40.7622360" lon="-4.7442190">
        <ele>1115.3</ele>
        <time>2019-08-14T08:39:00Z</time>
      </trkpt>
      <trkpt lat="40.7622730" lon="-4.7442030">
        <ele>1115.3</ele>
        <time>2019-08-14T08:39:01Z</time>
      </trkpt>
      <trkpt lat="40.7623110" lon="-4.7441870">
        <ele>1115.4</ele>
        <time>2019-08-14T08:39:02Z</time>
      </trkpt>
      <trkpt lat="40.7623480" lon="-4.7441720">
        <ele>1115.4</ele>
        <time>2019-08-14T08:39:03Z</time>
      </trkpt>
      <trkpt lat="40.7623850" lon="-4.7441590">
        <ele>1115.5</ele>
        <time>2019-08-14T08:39:04Z</time>
      </trkpt>
      <trkpt lat="40.7624230" lon="-4.7441470">
        <ele>1115.6</ele>
        <time>2019-08-14T08:39:05Z</time>
      </trkpt>
      <trkpt lat="40.7624610" lon="-4.7441390">
        <ele>1115.7</ele>
        <time>2019-08-14T08:39:06Z</time>
      </trkpt>
      <trkpt lat="40.7625000" lon="-4.7441350">
        <ele>1115.8</ele>
        <time>2019-08-14T08:39:07Z</time>
      </trkpt>
      <trkpt lat="40.7625400" lon="-4.7441340">
        <ele>1115.9</ele>
        <time>2019-08-14T08:39:08Z</time>
      </trkpt>
      <trkpt lat="40.7625810" lon="-4.7441370">
        <ele>1116.0</ele>
        <time>2019-08-14T08:39:09Z</time>
      </trkpt>
      <trkpt lat="40.7626220" lon="-4.7441410">
        <ele>1116.1</ele>
        <time>2019-08-14T08:39:10Z</time>
      </trkpt>
      <trkpt lat="40.7626630" lon="-4.7441420">
        <ele>1116.2</ele>
        <time>2019-08-14T08:39:11Z</time>
      </trkpt>
      <trkpt lat="40.7627020" lon="-4.7441390">
        <ele>1116.2</ele>
        <time>2019-08-14T08:39:12Z</time>
      </trkpt>
      <trkpt lat="40.7627390" lon="-4.7441370">
        <ele>1116.2</ele>
        <time>2019-08-14T08:39:13Z</time>
      </trkpt>
      <trkpt lat="40.7627760" lon="-4.7441340">
        <ele>1116.2</ele>
        <time>2019-08-14T08:39:14Z</time>
      </trkpt>
      <trkpt lat="40.7628130" lon="-4.7441300">
        <ele>1116.2</ele>
        <time>2019-08-14T08:39:15Z</time>
      </trkpt>
      <trkpt lat="40.7628500" lon="-4.7441270">
        <ele>1116.2</ele>
        <time>2019-08-14T08:39:16Z</time>
      </trkpt>
      <trkpt lat="40.7628890" lon="-4.7441240">
        <ele>1116.2</ele>
        <time>2019-08-14T08:39:17Z</time>
      </trkpt>
      <trkpt lat="40.7629280" lon="-4.7441230">
        <ele>1116.3</ele>
        <time>2019-08-14T08:39:18Z</time>
      </trkpt>
      <trkpt lat="40.7629670" lon="-4.7441220">
        <ele>1116.3</ele>
        <time>2019-08-14T08:39:19Z</time>
      </trkpt>
      <trkpt lat="40.7630060" lon="-4.7441190">
        <ele>1116.4</ele>
        <time>2019-08-14T08:39:20Z</time>
      </trkpt>
      <trkpt lat="40.7630450" lon="-4.7441140">
        <ele>1116.6</ele>
        <time>2019-08-14T08:39:21Z</time>
      </trkpt>
      <trkpt lat="40.7630840" lon="-4.7441100">
        <ele>1116.8</ele>
        <time>2019-08-14T08:39:22Z</time>
      </trkpt>
      <trkpt lat="40.7631240" lon="-4.7441070">
        <ele>1117.1</ele>
        <time>2019-08-14T08:39:23Z</time>
      </trkpt>
      <trkpt lat="40.7631630" lon="-4.7441040">
        <ele>1117.4</ele>
        <time>2019-08-14T08:39:24Z</time>
      </trkpt>
      <trkpt lat="40.7632020" lon="-4.7441030">
        <ele>1117.6</ele>
        <time>2019-08-14T08:39:25Z</time>
      </trkpt>
      <trkpt lat="40.7632400" lon="-4.7441010">
        <ele>1117.9</ele>
        <time>2019-08-14T08:39:26Z</time>
      </trkpt>
      <trkpt lat="40.7632780" lon="-4.7440990">
        <ele>1118.1</ele>
        <time>2019-08-14T08:39:27Z</time>
      </trkpt>
      <trkpt lat="40.7633140" lon="-4.7440970">
        <ele>1118.3</ele>
        <time>2019-08-14T08:39:28Z</time>
      </trkpt>
      <trkpt lat="40.7633500" lon="-4.7440950">
        <ele>1118.4</ele>
        <time>2019-08-14T08:39:29Z</time>
      </trkpt>
      <trkpt lat="40.7633890" lon="-4.7440940">
        <ele>1118.5</ele>
        <time>2019-08-14T08:39:30Z</time>
      </trkpt>
      <trkpt lat="40.7634280" lon="-4.7440960">
        <ele>1118.6</ele>
        <time>2019-08-14T08:39:31Z</time>
      </trkpt>
      <trkpt lat="40.7634680" lon="-4.7440990">
        <ele>1118.7</ele>
        <time>2019-08-14T08:39:32Z</time>
      </trkpt>
      <trkpt lat="40.7635080" lon="-4.7441030">
        <ele>1118.8</ele>
        <time>2019-08-14T08:39:33Z</time>
      </trkpt>
      <trkpt lat="40.7635470" lon="-4.7441050">
        <ele>1118.9</ele>
        <time>2019-08-14T08:39:34Z</time>
      </trkpt>
      <trkpt lat="40.7635840" lon="-4.7441040">
        <ele>1119.0</ele>
        <time>2019-08-14T08:39:35Z</time>
      </trkpt>
      <trkpt lat="40.7636220" lon="-4.7440990">
        <ele>1119.1</ele>
        <time>2019-08-14T08:39:36Z</time>
      </trkpt>
      <trkpt lat="40.7636640" lon="-4.7440930">
        <ele>1119.2</ele>
        <time>2019-08-14T08:39:37Z</time>
      </trkpt>
      <trkpt lat="40.7637010" lon="-4.7440850">
        <ele>1119.2</ele>
        <time>2019-08-14T08:39:38Z</time>
      </trkpt>
      <trkpt lat="40.7637390" lon="-4.7440760">
        <ele>1119.2</ele>
        <time>2019-08-14T08:39:39Z</time>
      </trkpt>
      <trkpt lat="40.7637780" lon="-4.7440670">
        <ele>1119.3</ele>
        <time>2019-08-14T08:39:40Z</time>
      </trkpt>
      <trkpt lat="40.7638170" lon="-4.7440560">
        <ele>1119.3</ele>
        <time>2019-08-14T08:39:41Z</time>
      </trkpt>
      <trkpt lat="40.7638560" lon="-4.7440460">
        <ele>1119.3</ele>
        <time>2019-08-14T08:39:42Z</time>
      </trkpt>
      <trkpt lat="40.7638960" lon="-4.7440360">
        <ele>1119.3</ele>
        <time>2019-08-14T08:39:43Z</time>
      </trkpt>
      <trkpt lat="40.7639330" lon="-4.7440290">
        <ele>1119.3</ele>
        <time>2019-08-14T08:39:44Z</time>
      </trkpt>
      <trkpt lat="40.7639680" lon="-4.7440190">
        <ele>1119.3</ele>
        <time>2019-08-14T08:39:45Z</time>
      </trkpt>
      <trkpt lat="40.7640020" lon="-4.7440000">
        <ele>1119.3</ele>
        <time>2019-08-14T08:39:46Z</time>
      </trkpt>
      <trkpt lat="40.7640340" lon="-4.7439760">
        <ele>1119.3</ele>
        <time>2019-08-14T08:39:47Z</time>
      </trkpt>
      <trkpt lat="40.7640640" lon="-4.7439520">
        <ele>1119.3</ele>
        <time>2019-08-14T08:39:48Z</time>
      </trkpt>
      <trkpt lat="40.7640940" lon="-4.7439280">
        <ele>1119.3</ele>
        <time>2019-08-14T08:39:49Z</time>
      </trkpt>
      <trkpt lat="40.7641240" lon="-4.7439010">
        <ele>1119.3</ele>
        <time>2019-08-14T08:39:50Z</time>
      </trkpt>
      <trkpt lat="40.7641550" lon="-4.7438740">
        <ele>1119.4</ele>
        <time>2019-08-14T08:39:51Z</time>
      </trkpt>
      <trkpt lat="40.7641890" lon="-4.7438480">
        <ele>1119.5</ele>
        <time>2019-08-14T08:39:52Z</time>
      </trkpt>
      <trkpt lat="40.7642240" lon="-4.7438240">
        <ele>1119.6</ele>
        <time>2019-08-14T08:39:53Z</time>
      </trkpt>
      <trkpt lat="40.7642580" lon="-4.7438020">
        <ele>1119.7</ele>
        <time>2019-08-14T08:39:54Z</time>
      </trkpt>
      <trkpt lat="40.7642910" lon="-4.7437810">
        <ele>1119.8</ele>
        <time>2019-08-14T08:39:55Z</time>
      </trkpt>
      <trkpt lat="40.7643230" lon="-4.7437590">
        <ele>1120.0</ele>
        <time>2019-08-14T08:39:56Z</time>
      </trkpt>
      <trkpt lat="40.7643550" lon="-4.7437360">
        <ele>1120.1</ele>
        <time>2019-08-14T08:39:57Z</time>
      </trkpt>
      <trkpt lat="40.7643860" lon="-4.7437160">
        <ele>1120.2</ele>
        <time>2019-08-14T08:39:58Z</time>
      </trkpt>
      <trkpt lat="40.7644180" lon="-4.7436970">
        <ele>1120.4</ele>
        <time>2019-08-14T08:39:59Z</time>
      </trkpt>
      <trkpt lat="40.7644480" lon="-4.7436780">
        <ele>1120.5</ele>
        <time>2019-08-14T08:40:00Z</time>
      </trkpt>
      <trkpt lat="40.7644760" lon="-4.7436610">
        <ele>1120.7</ele>
        <time>2019-08-14T08:40:01Z</time>
      </trkpt>
      <trkpt lat="40.7645050" lon="-4.7436470">
        <ele>1120.9</ele>
        <time>2019-08-14T08:40:02Z</time>
      </trkpt>
      <trkpt lat="40.7645350" lon="-4.7436330">
        <ele>1121.0</ele>
        <time>2019-08-14T08:40:03Z</time>
      </trkpt>
      <trkpt lat="40.7645650" lon="-4.7436200">
        <ele>1121.2</ele>
        <time>2019-08-14T08:40:04Z</time>
      </trkpt>
      <trkpt lat="40.7645950" lon="-4.7436070">
        <ele>1121.4</ele>
        <time>2019-08-14T08:40:05Z</time>
      </trkpt>
      <trkpt lat="40.7646250" lon="-4.7435930">
        <ele>1121.5</ele>
        <time>2019-08-14T08:40:06Z</time>
      </trkpt>
      <trkpt lat="40.7646550" lon="-4.7435810">
        <ele>1121.6</ele>
        <time>2019-08-14T08:40:07Z</time>
      </trkpt>
      <trkpt lat="40.7646850" lon="-4.7435710">
        <ele>1121.6</ele>
        <time>2019-08-14T08:40:08Z</time>
      </trkpt>
      <trkpt lat="40.7647170" lon="-4.7435620">
        <ele>1121.6</ele>
        <time>2019-08-14T08:40:09Z</time>
      </trkpt>
      <trkpt lat="40.7647500" lon="-4.7435550">
        <ele>1121.6</ele>
        <time>2019-08-14T08:40:10Z</time>
      </trkpt>
      <trkpt lat="40.7647850" lon="-4.7435500">
        <ele>1121.4</ele>
        <time>2019-08-14T08:40:11Z</time>
      </trkpt>
      <trkpt lat="40.7648230" lon="-4.7435490">
        <ele>1121.3</ele>
        <time>2019-08-14T08:40:12Z</time>
      </trkpt>
      <trkpt lat="40.7648660" lon="-4.7435510">
        <ele>1121.0</ele>
        <time>2019-08-14T08:40:13Z</time>
      </trkpt>
      <trkpt lat="40.7649130" lon="-4.7435540">
        <ele>1120.6</ele>
        <time>2019-08-14T08:40:14Z</time>
      </trkpt>
      <trkpt lat="40.7649630" lon="-4.7435550">
        <ele>1120.2</ele>
        <time>2019-08-14T08:40:15Z</time>
      </trkpt>
      <trkpt lat="40.7650150" lon="-4.7435510">
        <ele>1119.7</ele>
        <time>2019-08-14T08:40:16Z</time>
      </trkpt>
      <trkpt lat="40.7650660" lon="-4.7435390">
        <ele>1119.2</ele>
        <time>2019-08-14T08:40:17Z</time>
      </trkpt>
      <trkpt lat="40.7651180" lon="-4.7435170">
        <ele>1118.7</ele>
        <time>2019-08-14T08:40:18Z</time>
      </trkpt>
      <trkpt lat="40.7651650" lon="-4.7434800">
        <ele>1118.2</ele>
        <time>2019-08-14T08:40:19Z</time>
      </trkpt>
      <trkpt lat="40.7652060" lon="-4.7434300">
        <ele>1117.7</ele>
        <time>2019-08-14T08:40:20Z</time>
      </trkpt>
      <trkpt lat="40.7652450" lon="-4.7433730">
        <ele>1117.2</ele>
        <time>2019-08-14T08:40:21Z</time>
      </trkpt>
      <trkpt lat="40.7652830" lon="-4.7433200">
        <ele>1116.7</ele>
        <time>2019-08-14T08:40:22Z</time>
      </trkpt>
      <trkpt lat="40.7653260" lon="-4.7432730">
        <ele>1116.3</ele>
        <time>2019-08-14T08:40:23Z</time>
      </trkpt>
      <trkpt lat="40.7653750" lon="-4.7432370">
        <ele>1115.8</ele>
        <time>2019-08-14T08:40:24Z</time>
      </trkpt>
      <trkpt lat="40.7654270" lon="-4.7432150">
        <ele>1115.4</ele>
        <time>2019-08-14T08:40:25Z</time>
      </trkpt>
      <trkpt lat="40.7654830" lon="-4.7432060">
        <ele>1115.0</ele>
        <time>2019-08-14T08:40:26Z</time>
      </trkpt>
      <trkpt lat="40.7655400" lon="-4.7432050">
        <ele>1114.5</ele>
        <time>2019-08-14T08:40:27Z</time>
      </trkpt>
      <trkpt lat="40.7655940" lon="-4.7432080">
        <ele>1114.1</ele>
        <time>2019-08-14T08:40:28Z</time>
      </trkpt>
      <trkpt lat="40.7656430" lon="-4.7432140">
        <ele>1113.7</ele>
        <time>2019-08-14T08:40:29Z</time>
      </trkpt>
      <trkpt lat="40.7656870" lon="-4.7432220">
        <ele>1113.3</ele>
        <time>2019-08-14T08:40:30Z</time>
      </trkpt>
      <trkpt lat="40.7657270" lon="-4.7432360">
        <ele>1113.0</ele>
        <time>2019-08-14T08:40:31Z</time>
      </trkpt>
      <trkpt lat="40.7657650" lon="-4.7432590">
        <ele>1112.6</ele>
        <time>2019-08-14T08:40:32Z</time>
      </trkpt>
      <trkpt lat="40.7658010" lon="-4.7432890">
        <ele>1112.2</ele>
        <time>2019-08-14T08:40:33Z</time>
      </trkpt>
      <trkpt lat="40.7658360" lon="-4.7433110">
        <ele>1111.8</ele>
        <time>2019-08-14T08:40:34Z</time>
      </trkpt>
      <trkpt lat="40.7658730" lon="-4.7433330">
        <ele>1111.3</ele>
        <time>2019-08-14T08:40:36Z</time>
      </trkpt>
      <trkpt lat="40.7658540" lon="-4.7433610">
        <ele>1111.0</ele>
        <time>2019-08-14T08:40:40Z</time>
      </trkpt>
      <trkpt lat="40.7658250" lon="-4.7433590">
        <ele>1110.7</ele>
        <time>2019-08-14T08:40:42Z</time>
      </trkpt>
      <trkpt lat="40.7657880" lon="-4.7433630">
        <ele>1111.0</ele>
        <time>2019-08-14T08:40:44Z</time>
      </trkpt>
      <trkpt lat="40.7657580" lon="-4.7434000">
        <ele>1111.3</ele>
        <time>2019-08-14T08:40:46Z</time>
      </trkpt>
      <trkpt lat="40.7657630" lon="-4.7434590">
        <ele>1110.8</ele>
        <time>2019-08-14T08:40:48Z</time>
      </trkpt>
      <trkpt lat="40.7657790" lon="-4.7434960">
        <ele>1110.5</ele>
        <time>2019-08-14T08:40:49Z</time>
      </trkpt>
      <trkpt lat="40.7658030" lon="-4.7435300">
        <ele>1110.2</ele>
        <time>2019-08-14T08:40:50Z</time>
      </trkpt>
      <trkpt lat="40.7658330" lon="-4.7435650">
        <ele>1109.9</ele>
        <time>2019-08-14T08:40:51Z</time>
      </trkpt>
      <trkpt lat="40.7658620" lon="-4.7436010">
        <ele>1109.6</ele>
        <time>2019-08-14T08:40:52Z</time>
      </trkpt>
      <trkpt lat="40.7658910" lon="-4.7436400">
        <ele>1109.2</ele>
        <time>2019-08-14T08:40:53Z</time>
      </trkpt>
      <trkpt lat="40.7659240" lon="-4.7436800">
        <ele>1108.8</ele>
        <time>2019-08-14T08:40:54Z</time>
      </trkpt>
      <trkpt lat="40.7659600" lon="-4.7437210">
        <ele>1108.3</ele>
        <time>2019-08-14T08:40:55Z</time>
      </trkpt>
      <trkpt lat="40.7659990" lon="-4.7437620">
        <ele>1107.8</ele>
        <time>2019-08-14T08:40:56Z</time>
      </trkpt>
      <trkpt lat="40.7660400" lon="-4.7438050">
        <ele>1107.3</ele>
        <time>2019-08-14T08:40:57Z</time>
      </trkpt>
      <trkpt lat="40.7660840" lon="-4.7438480">
        <ele>1106.8</ele>
        <time>2019-08-14T08:40:58Z</time>
      </trkpt>
      <trkpt lat="40.7661290" lon="-4.7438940">
        <ele>1106.3</ele>
        <time>2019-08-14T08:40:59Z</time>
      </trkpt>
      <trkpt lat="40.7661740" lon="-4.7439450">
        <ele>1105.7</ele>
        <time>2019-08-14T08:41:00Z</time>
      </trkpt>
      <trkpt lat="40.7662190" lon="-4.7439970">
        <ele>1105.1</ele>
        <time>2019-08-14T08:41:01Z</time>
      </trkpt>
      <trkpt lat="40.7662620" lon="-4.7440540">
        <ele>1104.6</ele>
        <time>2019-08-14T08:41:02Z</time>
      </trkpt>
      <trkpt lat="40.7663000" lon="-4.7441170">
        <ele>1104.0</ele>
        <time>2019-08-14T08:41:03Z</time>
      </trkpt>
      <trkpt lat="40.7663340" lon="-4.7441800">
        <ele>1103.4</ele>
        <time>2019-08-14T08:41:04Z</time>
      </trkpt>
      <trkpt lat="40.7663610" lon="-4.7442420">
        <ele>1102.9</ele>
        <time>2019-08-14T08:41:05Z</time>
      </trkpt>
      <trkpt lat="40.7663840" lon="-4.7443020">
        <ele>1102.4</ele>
        <time>2019-08-14T08:41:06Z</time>
      </trkpt>
      <trkpt lat="40.7664010" lon="-4.7443580">
        <ele>1102.0</ele>
        <time>2019-08-14T08:41:07Z</time>
      </trkpt>
      <trkpt lat="40.7664170" lon="-4.7444060">
        <ele>1101.6</ele>
        <time>2019-08-14T08:41:08Z</time>
      </trkpt>
      <trkpt lat="40.7664380" lon="-4.7444470">
        <ele>1101.1</ele>
        <time>2019-08-14T08:41:09Z</time>
      </trkpt>
      <trkpt lat="40.7664640" lon="-4.7444810">
        <ele>1100.8</ele>
        <time>2019-08-14T08:41:10Z</time>
      </trkpt>
      <trkpt lat="40.7664960" lon="-4.7445130">
        <ele>1100.5</ele>
        <time>2019-08-14T08:41:11Z</time>
      </trkpt>
      <trkpt lat="40.7665310" lon="-4.7445430">
        <ele>1100.2</ele>
        <time>2019-08-14T08:41:12Z</time>
      </trkpt>
      <trkpt lat="40.7665700" lon="-4.7445700">
        <ele>1100.0</ele>
        <time>2019-08-14T08:41:13Z</time>
      </trkpt>
      <trkpt lat="40.7666130" lon="-4.7445940">
        <ele>1099.7</ele>
        <time>2019-08-14T08:41:14Z</time>
      </trkpt>
      <trkpt lat="40.7666560" lon="-4.7446140">
        <ele>1099.4</ele>
        <time>2019-08-14T08:41:15Z</time>
      </trkpt>
      <trkpt lat="40.7666990" lon="-4.7446320">
        <ele>1099.1</ele>
        <time>2019-08-14T08:41:16Z</time>
      </trkpt>
      <trkpt lat="40.7667430" lon="-4.7446470">
        <ele>1098.7</ele>
        <time>2019-08-14T08:41:17Z</time>
      </trkpt>
      <trkpt lat="40.7667860" lon="-4.7446580">
        <ele>1098.3</ele>
        <time>2019-08-14T08:41:18Z</time>
      </trkpt>
      <trkpt lat="40.7668270" lon="-4.7446650">
        <ele>1097.9</ele>
        <time>2019-08-14T08:41:19Z</time>
      </trkpt>
      <trkpt lat="40.7668690" lon="-4.7446690">
        <ele>1097.4</ele>
        <time>2019-08-14T08:41:20Z</time>
      </trkpt>
      <trkpt lat="40.7669090" lon="-4.7446740">
        <ele>1097.0</ele>
        <time>2019-08-14T08:41:21Z</time>
      </trkpt>
      <trkpt lat="40.7669500" lon="-4.7446800">
        <ele>1096.6</ele>
        <time>2019-08-14T08:41:22Z</time>
      </trkpt>
      <trkpt lat="40.7669930" lon="-4.7446870">
        <ele>1095.9</ele>
        <time>2019-08-14T08:41:23Z</time>
      </trkpt>
      <trkpt lat="40.7670440" lon="-4.7446980">
        <ele>1095.2</ele>
        <time>2019-08-14T08:41:24Z</time>
      </trkpt>
      <trkpt lat="40.7671070" lon="-4.7447160">
        <ele>1094.2</ele>
        <time>2019-08-14T08:41:25Z</time>
      </trkpt>
      <trkpt lat="40.7671830" lon="-4.7447440">
        <ele>1093.0</ele>
        <time>2019-08-14T08:41:26Z</time>
      </trkpt>
      <trkpt lat="40.7672670" lon="-4.7447810">
        <ele>1091.7</ele>
        <time>2019-08-14T08:41:27Z</time>
      </trkpt>
      <trkpt lat="40.7673560" lon="-4.7448200">
        <ele>1090.6</ele>
        <time>2019-08-14T08:41:28Z</time>
      </trkpt>
      <trkpt lat="40.7674570" lon="-4.7448540">
        <ele>1089.6</ele>
        <time>2019-08-14T08:41:29Z</time>
      </trkpt>
      <trkpt lat="40.7675670" lon="-4.7448880">
        <ele>1088.1</ele>
        <time>2019-08-14T08:41:30Z</time>
      </trkpt>
      <trkpt lat="40.7676790" lon="-4.7449260">
        <ele>1086.6</ele>
        <time>2019-08-14T08:41:31Z</time>
      </trkpt>
      <trkpt lat="40.7677940" lon="-4.7449700">
        <ele>1085.5</ele>
        <time>2019-08-14T08:41:32Z</time>
      </trkpt>
      <trkpt lat="40.7679100" lon="-4.7450200">
        <ele>1084.3</ele>
        <time>2019-08-14T08:41:33Z</time>
      </trkpt>
      <trkpt lat="40.7680270" lon="-4.7450720">
        <ele>1082.9</ele>
        <time>2019-08-14T08:41:34Z</time>
      </trkpt>
      <trkpt lat="40.7681460" lon="-4.7451220">
        <ele>1081.9</ele>
        <time>2019-08-14T08:41:35Z</time>
      </trkpt>
      <trkpt lat="40.7682660" lon="-4.7451680">
        <ele>1081.0</ele>
        <time>2019-08-14T08:41:36Z</time>
      </trkpt>
      <trkpt lat="40.7683900" lon="-4.7452120">
        <ele>1080.1</ele>
        <time>2019-08-14T08:41:37Z</time>
      </trkpt>
      <trkpt lat="40.7685110" lon="-4.7452560">
        <ele>1079.4</ele>
        <time>2019-08-14T08:41:38Z</time>
      </trkpt>
      <trkpt lat="40.7686330" lon="-4.7453010">
        <ele>1079.0</ele>
        <time>2019-08-14T08:41:39Z</time>
      </trkpt>
      <trkpt lat="40.7687520" lon="-4.7453470">
        <ele>1078.6</ele>
        <time>2019-08-14T08:41:40Z</time>
      </trkpt>
      <trkpt lat="40.7688680" lon="-4.7453960">
        <ele>1078.1</ele>
        <time>2019-08-14T08:41:41Z</time>
      </trkpt>
      <trkpt lat="40.7689790" lon="-4.7454430">
        <ele>1077.9</ele>
        <time>2019-08-14T08:41:42Z</time>
      </trkpt>
      <trkpt lat="40.7690820" lon="-4.7454840">
        <ele>1077.6</ele>
        <time>2019-08-14T08:41:43Z</time>
      </trkpt>
      <trkpt lat="40.7691750" lon="-4.7455230">
        <ele>1077.4</ele>
        <time>2019-08-14T08:41:44Z</time>
      </trkpt>
      <trkpt lat="40.7692570" lon="-4.7455620">
        <ele>1077.2</ele>
        <time>2019-08-14T08:41:45Z</time>
      </trkpt>
      <trkpt lat="40.7693250" lon="-4.7456000">
        <ele>1077.0</ele>
        <time>2019-08-14T08:41:46Z</time>
      </trkpt>
      <trkpt lat="40.7693800" lon="-4.7456350">
        <ele>1076.9</ele>
        <time>2019-08-14T08:41:47Z</time>
      </trkpt>
      <trkpt lat="40.7694230" lon="-4.7456700">
        <ele>1076.7</ele>
        <time>2019-08-14T08:41:48Z</time>
      </trkpt>
      <trkpt lat="40.7694580" lon="-4.7457060">
        <ele>1076.6</ele>
        <time>2019-08-14T08:41:49Z</time>
      </trkpt>
      <trkpt lat="40.7694880" lon="-4.7457430">
        <ele>1076.5</ele>
        <time>2019-08-14T08:41:50Z</time>
      </trkpt>
      <trkpt lat="40.7695140" lon="-4.7457770">
        <ele>1076.4</ele>
        <time>2019-08-14T08:41:51Z</time>
      </trkpt>
      <trkpt lat="40.7695340" lon="-4.7458050">
        <ele>1076.4</ele>
        <time>2019-08-14T08:41:52Z</time>
      </trkpt>
      <trkpt lat="40.7695520" lon="-4.7458350">
        <ele>1076.3</ele>
        <time>2019-08-14T08:41:54Z</time>
      </trkpt>
      <trkpt lat="40.7695980" lon="-4.7458880">
        <ele>1076.1</ele>
        <time>2019-08-14T08:42:12Z</time>
      </trkpt>
      <trkpt lat="40.7695840" lon="-4.7458910">
        <ele>1076.0</ele>
        <time>2019-08-14T08:42:17Z</time>
      </trkpt>
      <trkpt lat="40.7695780" lon="-4.7458530">
        <ele>1075.9</ele>
        <time>2019-08-14T08:42:19Z</time>
      </trkpt>
      <trkpt lat="40.7695820" lon="-4.7458000">
        <ele>1075.8</ele>
        <time>2019-08-14T08:42:22Z</time>
      </trkpt>
      <trkpt lat="40.7695990" lon="-4.7457590">
        <ele>1075.7</ele>
        <time>2019-08-14T08:42:25Z</time>
      </trkpt>
      <trkpt lat="40.7696280" lon="-4.7457410">
        <ele>1075.6</ele>
        <time>2019-08-14T08:42:28Z</time>
      </trkpt>
      <trkpt lat="40.7696660" lon="-4.7457460">
        <ele>1075.2</ele>
        <time>2019-08-14T08:42:30Z</time>
      </trkpt>
      <trkpt lat="40.7697100" lon="-4.7457600">
        <ele>1075.1</ele>
        <time>2019-08-14T08:42:32Z</time>
      </trkpt>
      <trkpt lat="40.7697550" lon="-4.7457730">
        <ele>1075.0</ele>
        <time>2019-08-14T08:42:34Z</time>
      </trkpt>
      <trkpt lat="40.7697990" lon="-4.7457800">
        <ele>1074.9</ele>
        <time>2019-08-14T08:42:36Z</time>
      </trkpt>
      <trkpt lat="40.7698410" lon="-4.7457790">
        <ele>1074.7</ele>
        <time>2019-08-14T08:42:38Z</time>
      </trkpt>
      <trkpt lat="40.7698910" lon="-4.7457800">
        <ele>1074.6</ele>
        <time>2019-08-14T08:42:40Z</time>
      </trkpt>
      <trkpt lat="40.7699200" lon="-4.7457800">
        <ele>1074.5</ele>
        <time>2019-08-14T08:42:41Z</time>
      </trkpt>
      <trkpt lat="40.7699540" lon="-4.7457770">
        <ele>1074.4</ele>
        <time>2019-08-14T08:42:42Z</time>
      </trkpt>
      <trkpt lat="40.7699920" lon="-4.7457730">
        <ele>1074.2</ele>
        <time>2019-08-14T08:42:43Z</time>
      </trkpt>
      <trkpt lat="40.7700330" lon="-4.7457710">
        <ele>1074.0</ele>
        <time>2019-08-14T08:42:44Z</time>
      </trkpt>
      <trkpt lat="40.7700780" lon="-4.7457710">
        <ele>1073.7</ele>
        <time>2019-08-14T08:42:45Z</time>
      </trkpt>
      <trkpt lat="40.7701270" lon="-4.7457720">
        <ele>1073.5</ele>
        <time>2019-08-14T08:42:46Z</time>
      </trkpt>
      <trkpt lat="40.7701780" lon="-4.7457750">
        <ele>1073.2</ele>
        <time>2019-08-14T08:42:47Z</time>
      </trkpt>
      <trkpt lat="40.7702290" lon="-4.7457780">
        <ele>1072.9</ele>
        <time>2019-08-14T08:42:48Z</time>
      </trkpt>
      <trkpt lat="40.7702810" lon="-4.7457810">
        <ele>1072.6</ele>
        <time>2019-08-14T08:42:49Z</time>
      </trkpt>
      <trkpt lat="40.7703340" lon="-4.7457830">
        <ele>1072.4</ele>
        <time>2019-08-14T08:42:50Z</time>
      </trkpt>
      <trkpt lat="40.7703870" lon="-4.7457830">
        <ele>1072.2</ele>
        <time>2019-08-14T08:42:51Z</time>
      </trkpt>
      <trkpt lat="40.7704420" lon="-4.7457810">
        <ele>1072.0</ele>
        <time>2019-08-14T08:42:52Z</time>
      </trkpt>
      <trkpt lat="40.7704970" lon="-4.7457770">
        <ele>1071.7</ele>
        <time>2019-08-14T08:42:53Z</time>
      </trkpt>
      <trkpt lat="40.7705540" lon="-4.7457740">
        <ele>1071.4</ele>
        <time>2019-08-14T08:42:54Z</time>
      </trkpt>
      <trkpt lat="40.7706100" lon="-4.7457730">
        <ele>1071.2</ele>
        <time>2019-08-14T08:42:55Z</time>
      </trkpt>
      <trkpt lat="40.7706680" lon="-4.7457750">
        <ele>1070.9</ele>
        <time>2019-08-14T08:42:56Z</time>
      </trkpt>
      <trkpt lat="40.7707280" lon="-4.7457810">
        <ele>1070.7</ele>
        <time>2019-08-14T08:42:57Z</time>
      </trkpt>
      <trkpt lat="40.7707880" lon="-4.7457940">
        <ele>1070.6</ele>
        <time>2019-08-14T08:42:58Z</time>
      </trkpt>
      <trkpt lat="40.7708470" lon="-4.7458110">
        <ele>1070.5</ele>
        <time>2019-08-14T08:42:59Z</time>
      </trkpt>
      <trkpt lat="40.7709070" lon="-4.7458330">
        <ele>1070.4</ele>
        <time>2019-08-14T08:43:00Z</time>
      </trkpt>
      <trkpt lat="40.7709660" lon="-4.7458590">
        <ele>1070.3</ele>
        <time>2019-08-14T08:43:01Z</time>
      </trkpt>
      <trkpt lat="40.7710260" lon="-4.7458860">
        <ele>1070.2</ele>
        <time>2019-08-14T08:43:02Z</time>
      </trkpt>
      <trkpt lat="40.7710850" lon="-4.7459160">
        <ele>1070.0</ele>
        <time>2019-08-14T08:43:03Z</time>
      </trkpt>
      <trkpt lat="40.7711440" lon="-4.7459450">
        <ele>1069.9</ele>
        <time>2019-08-14T08:43:04Z</time>
      </trkpt>
      <trkpt lat="40.7712000" lon="-4.7459690">
        <ele>1069.7</ele>
        <time>2019-08-14T08:43:05Z</time>
      </trkpt>
      <trkpt lat="40.7712480" lon="-4.7459880">
        <ele>1069.5</ele>
        <time>2019-08-14T08:43:06Z</time>
      </trkpt>
      <trkpt lat="40.7712890" lon="-4.7460030">
        <ele>1069.3</ele>
        <time>2019-08-14T08:43:07Z</time>
      </trkpt>
      <trkpt lat="40.7713270" lon="-4.7460140">
        <ele>1069.0</ele>
        <time>2019-08-14T08:43:08Z</time>
      </trkpt>
      <trkpt lat="40.7713660" lon="-4.7460200">
        <ele>1069.0</ele>
        <time>2019-08-14T08:43:09Z</time>
      </trkpt>
      <trkpt lat="40.7714070" lon="-4.7460230">
        <ele>1069.0</ele>
        <time>2019-08-14T08:43:10Z</time>
      </trkpt>
      <trkpt lat="40.7714490" lon="-4.7460250">
        <ele>1069.0</ele>
        <time>2019-08-14T08:43:11Z</time>
      </trkpt>
      <trkpt lat="40.7714920" lon="-4.7460290">
        <ele>1069.0</ele>
        <time>2019-08-14T08:43:12Z</time>
      </trkpt>
      <trkpt lat="40.7715360" lon="-4.7460320">
        <ele>1069.0</ele>
        <time>2019-08-14T08:43:13Z</time>
      </trkpt>
      <trkpt lat="40.7715800" lon="-4.7460310">
        <ele>1069.0</ele>
        <time>2019-08-14T08:43:14Z</time>
      </trkpt>
      <trkpt lat="40.7716250" lon="-4.7460270">
        <ele>1069.0</ele>
        <time>2019-08-14T08:43:15Z</time>
      </trkpt>
      <trkpt lat="40.7716700" lon="-4.7460200">
        <ele>1069.0</ele>
        <time>2019-08-14T08:43:16Z</time>
      </trkpt>
      <trkpt lat="40.7717140" lon="-4.7460100">
        <ele>1068.9</ele>
        <time>2019-08-14T08:43:17Z</time>
      </trkpt>
      <trkpt lat="40.7717560" lon="-4.7459990">
        <ele>1068.8</ele>
        <time>2019-08-14T08:43:18Z</time>
      </trkpt>
      <trkpt lat="40.7717960" lon="-4.7459890">
        <ele>1068.4</ele>
        <time>2019-08-14T08:43:19Z</time>
      </trkpt>
      <trkpt lat="40.7718350" lon="-4.7459790">
        <ele>1068.2</ele>
        <time>2019-08-14T08:43:20Z</time>
      </trkpt>
      <trkpt lat="40.7718720" lon="-4.7459680">
        <ele>1068.0</ele>
        <time>2019-08-14T08:43:21Z</time>
      </trkpt>
      <trkpt lat="40.7719080" lon="-4.7459560">
        <ele>1067.9</ele>
        <time>2019-08-14T08:43:22Z</time>
      </trkpt>
      <trkpt lat="40.7719460" lon="-4.7459440">
        <ele>1067.8</ele>
        <time>2019-08-14T08:43:23Z</time>
      </trkpt>
      <trkpt lat="40.7719850" lon="-4.7459320">
        <ele>1067.7</ele>
        <time>2019-08-14T08:43:24Z</time>
      </trkpt>
      <trkpt lat="40.7720270" lon="-4.7459210">
        <ele>1067.6</ele>
        <time>2019-08-14T08:43:25Z</time>
      </trkpt>
      <trkpt lat="40.7720710" lon="-4.7459060">
        <ele>1067.5</ele>
        <time>2019-08-14T08:43:26Z</time>
      </trkpt>
      <trkpt lat="40.7721160" lon="-4.7458880">
        <ele>1067.4</ele>
        <time>2019-08-14T08:43:27Z</time>
      </trkpt>
      <trkpt lat="40.7721590" lon="-4.7458690">
        <ele>1067.4</ele>
        <time>2019-08-14T08:43:28Z</time>
      </trkpt>
      <trkpt lat="40.7721970" lon="-4.7458420">
        <ele>1067.2</ele>
        <time>2019-08-14T08:43:29Z</time>
      </trkpt>
      <trkpt lat="40.7722310" lon="-4.7458030">
        <ele>1066.9</ele>
        <time>2019-08-14T08:43:30Z</time>
      </trkpt>
      <trkpt lat="40.7722630" lon="-4.7457520">
        <ele>1066.5</ele>
        <time>2019-08-14T08:43:31Z</time>
      </trkpt>
      <trkpt lat="40.7722940" lon="-4.7456920">
        <ele>1066.0</ele>
        <time>2019-08-14T08:43:32Z</time>
      </trkpt>
      <trkpt lat="40.7723270" lon="-4.7456260">
        <ele>1065.7</ele>
        <time>2019-08-14T08:43:33Z</time>
      </trkpt>
      <trkpt lat="40.7723570" lon="-4.7455550">
        <ele>1065.3</ele>
        <time>2019-08-14T08:43:34Z</time>
      </trkpt>
      <trkpt lat="40.7723830" lon="-4.7454800">
        <ele>1064.9</ele>
        <time>2019-08-14T08:43:35Z</time>
      </trkpt>
      <trkpt lat="40.7724080" lon="-4.7454030">
        <ele>1064.6</ele>
        <time>2019-08-14T08:43:36Z</time>
      </trkpt>
      <trkpt lat="40.7724290" lon="-4.7453210">
        <ele>1064.0</ele>
        <time>2019-08-14T08:43:37Z</time>
      </trkpt>
      <trkpt lat="40.7724460" lon="-4.7452350">
        <ele>1063.5</ele>
        <time>2019-08-14T08:43:38Z</time>
      </trkpt>
      <trkpt lat="40.7724610" lon="-4.7451410">
        <ele>1063.0</ele>
        <time>2019-08-14T08:43:39Z</time>
      </trkpt>
      <trkpt lat="40.7724740" lon="-4.7450420">
        <ele>1062.6</ele>
        <time>2019-08-14T08:43:40Z</time>
      </trkpt>
      <trkpt lat="40.7724850" lon="-4.7449400">
        <ele>1062.1</ele>
        <time>2019-08-14T08:43:41Z</time>
      </trkpt>
      <trkpt lat="40.7724920" lon="-4.7448400">
        <ele>1061.0</ele>
        <time>2019-08-14T08:43:42Z</time>
      </trkpt>
      <trkpt lat="40.7724900" lon="-4.7447420">
        <ele>1061.0</ele>
        <time>2019-08-14T08:43:43Z</time>
      </trkpt>
      <trkpt lat="40.7724870" lon="-4.7446490">
        <ele>1061.0</ele>
        <time>2019-08-14T08:43:44Z</time>
      </trkpt>
      <trkpt lat="40.7724860" lon="-4.7445610">
        <ele>1061.0</ele>
        <time>2019-08-14T08:43:45Z</time>
      </trkpt>
      <trkpt lat="40.7724850" lon="-4.7444810">
        <ele>1061.0</ele>
        <time>2019-08-14T08:43:46Z</time>
      </trkpt>
      <trkpt lat="40.7724850" lon="-4.7444130">
        <ele>1061.1</ele>
        <time>2019-08-14T08:43:47Z</time>
      </trkpt>
      <trkpt lat="40.7724850" lon="-4.7443510">
        <ele>1061.2</ele>
        <time>2019-08-14T08:43:48Z</time>
      </trkpt>
      <trkpt lat="40.7724830" lon="-4.7442970">
        <ele>1061.2</ele>
        <time>2019-08-14T08:43:49Z</time>
      </trkpt>
      <trkpt lat="40.7724810" lon="-4.7442490">
        <ele>1061.3</ele>
        <time>2019-08-14T08:43:50Z</time>
      </trkpt>
      <trkpt lat="40.7724780" lon="-4.7442060">
        <ele>1061.3</ele>
        <time>2019-08-14T08:43:51Z</time>
      </trkpt>
      <trkpt lat="40.7724790" lon="-4.7441690">
        <ele>1061.4</ele>
        <time>2019-08-14T08:43:52Z</time>
      </trkpt>
      <trkpt lat="40.7724820" lon="-4.7441030">
        <ele>1061.6</ele>
        <time>2019-08-14T08:43:54Z</time>
      </trkpt>
      <trkpt lat="40.7724820" lon="-4.7440670">
        <ele>1061.6</ele>
        <time>2019-08-14T08:43:55Z</time>
      </trkpt>
      <trkpt lat="40.7724850" lon="-4.7440020">
        <ele>1061.8</ele>
        <time>2019-08-14T08:43:57Z</time>
      </trkpt>
      <trkpt lat="40.7724870" lon="-4.7439380">
        <ele>1062.0</ele>
        <time>2019-08-14T08:43:59Z</time>
      </trkpt>
      <trkpt lat="40.7724860" lon="-4.7438760">
        <ele>1062.2</ele>
        <time>2019-08-14T08:44:01Z</time>
      </trkpt>
      <trkpt lat="40.7724870" lon="-4.7438070">
        <ele>1062.5</ele>
        <time>2019-08-14T08:44:03Z</time>
      </trkpt>
      <trkpt lat="40.7724890" lon="-4.7437710">
        <ele>1062.6</ele>
        <time>2019-08-14T08:44:04Z</time>
      </trkpt>
      <trkpt lat="40.7724940" lon="-4.7437350">
        <ele>1062.7</ele>
        <time>2019-08-14T08:44:05Z</time>
      </trkpt>
      <trkpt lat="40.7724990" lon="-4.7436980">
        <ele>1062.8</ele>
        <time>2019-08-14T08:44:06Z</time>
      </trkpt>
      <trkpt lat="40.7725080" lon="-4.7436610">
        <ele>1063.0</ele>
        <time>2019-08-14T08:44:07Z</time>
      </trkpt>
      <trkpt lat="40.7725160" lon="-4.7436240">
        <ele>1063.1</ele>
        <time>2019-08-14T08:44:08Z</time>
      </trkpt>
      <trkpt lat="40.7725250" lon="-4.7435870">
        <ele>1063.2</ele>
        <time>2019-08-14T08:44:09Z</time>
      </trkpt>
      <trkpt lat="40.7725330" lon="-4.7435500">
        <ele>1063.4</ele>
        <time>2019-08-14T08:44:10Z</time>
      </trkpt>
      <trkpt lat="40.7725420" lon="-4.7435140">
        <ele>1063.5</ele>
        <time>2019-08-14T08:44:11Z</time>
      </trkpt>
      <trkpt lat="40.7725510" lon="-4.7434770">
        <ele>1063.6</ele>
        <time>2019-08-14T08:44:12Z</time>
      </trkpt>
      <trkpt lat="40.7725600" lon="-4.7434420">
        <ele>1063.7</ele>
        <time>2019-08-14T08:44:13Z</time>
      </trkpt>
      <trkpt lat="40.7725690" lon="-4.7434070">
        <ele>1063.8</ele>
        <time>2019-08-14T08:44:14Z</time>
      </trkpt>
      <trkpt lat="40.7725780" lon="-4.7433720">
        <ele>1064.0</ele>
        <time>2019-08-14T08:44:15Z</time>
      </trkpt>
      <trkpt lat="40.7725880" lon="-4.7433380">
        <ele>1064.1</ele>
        <time>2019-08-14T08:44:16Z</time>
      </trkpt>
      <trkpt lat="40.7726050" lon="-4.7432720">
        <ele>1064.3</ele>
        <time>2019-08-14T08:44:18Z</time>
      </trkpt>
      <trkpt lat="40.7726280" lon="-4.7432130">
        <ele>1064.3</ele>
        <time>2019-08-14T08:44:20Z</time>
      </trkpt>
      <trkpt lat="40.7726570" lon="-4.7431540">
        <ele>1064.3</ele>
        <time>2019-08-14T08:44:22Z</time>
      </trkpt>
      <trkpt lat="40.7726880" lon="-4.7430980">
        <ele>1064.3</ele>
        <time>2019-08-14T08:44:24Z</time>
      </trkpt>
      <trkpt lat="40.7727190" lon="-4.7430440">
        <ele>1064.4</ele>
        <time>2019-08-14T08:44:26Z</time>
      </trkpt>
      <trkpt lat="40.7727520" lon="-4.7429890">
        <ele>1064.4</ele>
        <time>2019-08-14T08:44:28Z</time>
      </trkpt>
      <trkpt lat="40.7727700" lon="-4.7429610">
        <ele>1064.4</ele>
        <time>2019-08-14T08:44:29Z</time>
      </trkpt>
      <trkpt lat="40.7727880" lon="-4.7429330">
        <ele>1064.4</ele>
        <time>2019-08-14T08:44:30Z</time>
      </trkpt>
      <trkpt lat="40.7728070" lon="-4.7429040">
        <ele>1064.4</ele>
        <time>2019-08-14T08:44:31Z</time>
      </trkpt>
      <trkpt lat="40.7728300" lon="-4.7428520">
        <ele>1064.4</ele>
        <time>2019-08-14T08:44:33Z</time>
      </trkpt>
      <trkpt lat="40.7728420" lon="-4.7428250">
        <ele>1064.4</ele>
        <time>2019-08-14T08:44:37Z</time>
      </trkpt>
      <trkpt lat="40.7729070" lon="-4.7428030">
        <ele>1064.4</ele>
        <time>2019-08-14T08:48:24Z</time>
      </trkpt>
      <trkpt lat="40.7729900" lon="-4.7427500">
        <ele>1064.9</ele>
        <time>2019-08-14T08:48:54Z</time>
      </trkpt>
      <trkpt lat="40.7730810" lon="-4.7427200">
        <ele>1065.2</ele>
        <time>2019-08-14T08:49:28Z</time>
      </trkpt>
      <trkpt lat="40.7731090" lon="-4.7427100">
        <ele>1065.2</ele>
        <time>2019-08-14T08:49:29Z</time>
      </trkpt>
      <trkpt lat="40.7731390" lon="-4.7427000">
        <ele>1065.3</ele>
        <time>2019-08-14T08:49:30Z</time>
      </trkpt>
      <trkpt lat="40.7731680" lon="-4.7426930">
        <ele>1065.4</ele>
        <time>2019-08-14T08:49:31Z</time>
      </trkpt>
      <trkpt lat="40.7732010" lon="-4.7426830">
        <ele>1065.4</ele>
        <time>2019-08-14T08:49:32Z</time>
      </trkpt>
      <trkpt lat="40.7732320" lon="-4.7426740">
        <ele>1065.5</ele>
        <time>2019-08-14T08:49:33Z</time>
      </trkpt>
      <trkpt lat="40.7732610" lon="-4.7426640">
        <ele>1065.5</ele>
        <time>2019-08-14T08:49:34Z</time>
      </trkpt>
      <trkpt lat="40.7732900" lon="-4.7426560">
        <ele>1065.5</ele>
        <time>2019-08-14T08:49:35Z</time>
      </trkpt>
      <trkpt lat="40.7733190" lon="-4.7426500">
        <ele>1065.6</ele>
        <time>2019-08-14T08:49:36Z</time>
      </trkpt>
      <trkpt lat="40.7733480" lon="-4.7426440">
        <ele>1065.6</ele>
        <time>2019-08-14T08:49:37Z</time>
      </trkpt>
      <trkpt lat="40.7733760" lon="-4.7426370">
        <ele>1065.6</ele>
        <time>2019-08-14T08:49:38Z</time>
      </trkpt>
      <trkpt lat="40.7734290" lon="-4.7426230">
        <ele>1065.7</ele>
        <time>2019-08-14T08:49:40Z</time>
      </trkpt>
      <trkpt lat="40.7734830" lon="-4.7426130">
        <ele>1065.8</ele>
        <time>2019-08-14T08:49:42Z</time>
      </trkpt>
      <trkpt lat="40.7735100" lon="-4.7426110">
        <ele>1065.8</ele>
        <time>2019-08-14T08:49:43Z</time>
      </trkpt>
      <trkpt lat="40.7735380" lon="-4.7426060">
        <ele>1065.8</ele>
        <time>2019-08-14T08:49:44Z</time>
      </trkpt>
      <trkpt lat="40.7735680" lon="-4.7426000">
        <ele>1065.8</ele>
        <time>2019-08-14T08:49:45Z</time>
      </trkpt>
      <trkpt lat="40.7736000" lon="-4.7425960">
        <ele>1065.8</ele>
        <time>2019-08-14T08:49:46Z</time>
      </trkpt>
      <trkpt lat="40.7736340" lon="-4.7425920">
        <ele>1065.9</ele>
        <time>2019-08-14T08:49:47Z</time>
      </trkpt>
      <trkpt lat="40.7736690" lon="-4.7425880">
        <ele>1065.9</ele>
        <time>2019-08-14T08:49:48Z</time>
      </trkpt>
      <trkpt lat="40.7737040" lon="-4.7425820">
        <ele>1065.9</ele>
        <time>2019-08-14T08:49:49Z</time>
      </trkpt>
      <trkpt lat="40.7737390" lon="-4.7425790">
        <ele>1065.9</ele>
        <time>2019-08-14T08:49:50Z</time>
      </trkpt>
      <trkpt lat="40.7737750" lon="-4.7425770">
        <ele>1065.9</ele>
        <time>2019-08-14T08:49:51Z</time>
      </trkpt>
      <trkpt lat="40.7738130" lon="-4.7425750">
        <ele>1065.9</ele>
        <time>2019-08-14T08:49:52Z</time>
      </trkpt>
      <trkpt lat="40.7738510" lon="-4.7425700">
        <ele>1065.8</ele>
        <time>2019-08-14T08:49:53Z</time>
      </trkpt>
      <trkpt lat="40.7738890" lon="-4.7425650">
        <ele>1065.8</ele>
        <time>2019-08-14T08:49:54Z</time>
      </trkpt>
      <trkpt lat="40.7739270" lon="-4.7425610">
        <ele>1065.8</ele>
        <time>2019-08-14T08:49:55Z</time>
      </trkpt>
      <trkpt lat="40.7739650" lon="-4.7425590">
        <ele>1065.8</ele>
        <time>2019-08-14T08:49:56Z</time>
      </trkpt>
      <trkpt lat="40.7740040" lon="-4.7425560">
        <ele>1065.7</ele>
        <time>2019-08-14T08:49:57Z</time>
      </trkpt>
      <trkpt lat="40.7740450" lon="-4.7425510">
        <ele>1065.7</ele>
        <time>2019-08-14T08:49:58Z</time>
      </trkpt>
      <trkpt lat="40.7740860" lon="-4.7425470">
        <ele>1065.6</ele>
        <time>2019-08-14T08:49:59Z</time>
      </trkpt>
      <trkpt lat="40.7741280" lon="-4.7425430">
        <ele>1065.6</ele>
        <time>2019-08-14T08:50:00Z</time>
      </trkpt>
      <trkpt lat="40.7741690" lon="-4.7425390">
        <ele>1065.5</ele>
        <time>2019-08-14T08:50:01Z</time>
      </trkpt>
      <trkpt lat="40.7742090" lon="-4.7425340">
        <ele>1065.4</ele>
        <time>2019-08-14T08:50:02Z</time>
      </trkpt>
      <trkpt lat="40.7742480" lon="-4.7425290">
        <ele>1065.3</ele>
        <time>2019-08-14T08:50:03Z</time>
      </trkpt>
      <trkpt lat="40.7742880" lon="-4.7425250">
        <ele>1065.2</ele>
        <time>2019-08-14T08:50:04Z</time>
      </trkpt>
      <trkpt lat="40.7743290" lon="-4.7425220">
        <ele>1065.1</ele>
        <time>2019-08-14T08:50:05Z</time>
      </trkpt>
      <trkpt lat="40.7743730" lon="-4.7425190">
        <ele>1065.0</ele>
        <time>2019-08-14T08:50:06Z</time>
      </trkpt>
      <trkpt lat="40.7744180" lon="-4.7425150">
        <ele>1064.8</ele>
        <time>2019-08-14T08:50:07Z</time>
      </trkpt>
      <trkpt lat="40.7744640" lon="-4.7425120">
        <ele>1064.6</ele>
        <time>2019-08-14T08:50:08Z</time>
      </trkpt>
      <trkpt lat="40.7745100" lon="-4.7425090">
        <ele>1064.5</ele>
        <time>2019-08-14T08:50:09Z</time>
      </trkpt>
      <trkpt lat="40.7745570" lon="-4.7425050">
        <ele>1064.2</ele>
        <time>2019-08-14T08:50:10Z</time>
      </trkpt>
      <trkpt lat="40.7746040" lon="-4.7425000">
        <ele>1064.0</ele>
        <time>2019-08-14T08:50:11Z</time>
      </trkpt>
      <trkpt lat="40.7746510" lon="-4.7424950">
        <ele>1063.7</ele>
        <time>2019-08-14T08:50:12Z</time>
      </trkpt>
      <trkpt lat="40.7746980" lon="-4.7424910">
        <ele>1063.5</ele>
        <time>2019-08-14T08:50:13Z</time>
      </trkpt>
      <trkpt lat="40.7747440" lon="-4.7424870">
        <ele>1063.2</ele>
        <time>2019-08-14T08:50:14Z</time>
      </trkpt>
      <trkpt lat="40.7747910" lon="-4.7424840">
        <ele>1062.9</ele>
        <time>2019-08-14T08:50:15Z</time>
      </trkpt>
      <trkpt lat="40.7748370" lon="-4.7424800">
        <ele>1062.6</ele>
        <time>2019-08-14T08:50:16Z</time>
      </trkpt>
      <trkpt lat="40.7748830" lon="-4.7424730">
        <ele>1062.3</ele>
        <time>2019-08-14T08:50:17Z</time>
      </trkpt>
      <trkpt lat="40.7749310" lon="-4.7424670">
        <ele>1062.0</ele>
        <time>2019-08-14T08:50:18Z</time>
      </trkpt>
      <trkpt lat="40.7749790" lon="-4.7424620">
        <ele>1061.7</ele>
        <time>2019-08-14T08:50:19Z</time>
      </trkpt>
      <trkpt lat="40.7750290" lon="-4.7424570">
        <ele>1061.4</ele>
        <time>2019-08-14T08:50:20Z</time>
      </trkpt>
      <trkpt lat="40.7750800" lon="-4.7424540">
        <ele>1061.0</ele>
        <time>2019-08-14T08:50:21Z</time>
      </trkpt>
      <trkpt lat="40.7751320" lon="-4.7424510">
        <ele>1060.7</ele>
        <time>2019-08-14T08:50:22Z</time>
      </trkpt>
      <trkpt lat="40.7751860" lon="-4.7424470">
        <ele>1060.4</ele>
        <time>2019-08-14T08:50:23Z</time>
      </trkpt>
      <trkpt lat="40.7752410" lon="-4.7424440">
        <ele>1060.0</ele>
        <time>2019-08-14T08:50:24Z</time>
      </trkpt>
      <trkpt lat="40.7752970" lon="-4.7424430">
        <ele>1059.7</ele>
        <time>2019-08-14T08:50:25Z</time>
      </trkpt>
      <trkpt lat="40.7753540" lon="-4.7424420">
        <ele>1059.4</ele>
        <time>2019-08-14T08:50:26Z</time>
      </trkpt>
      <trkpt lat="40.7754110" lon="-4.7424430">
        <ele>1059.2</ele>
        <time>2019-08-14T08:50:27Z</time>
      </trkpt>
      <trkpt lat="40.7754690" lon="-4.7424470">
        <ele>1058.9</ele>
        <time>2019-08-14T08:50:28Z</time>
      </trkpt>
      <trkpt lat="40.7755270" lon="-4.7424500">
        <ele>1058.7</ele>
        <time>2019-08-14T08:50:29Z</time>
      </trkpt>
      <trkpt lat="40.7755850" lon="-4.7424540">
        <ele>1058.6</ele>
        <time>2019-08-14T08:50:30Z</time>
      </trkpt>
      <trkpt lat="40.7756430" lon="-4.7424600">
        <ele>1058.5</ele>
        <time>2019-08-14T08:50:31Z</time>
      </trkpt>
      <trkpt lat="40.7756990" lon="-4.7424660">
        <ele>1058.4</ele>
        <time>2019-08-14T08:50:32Z</time>
      </trkpt>
      <trkpt lat="40.7757520" lon="-4.7424730">
        <ele>1058.3</ele>
        <time>2019-08-14T08:50:33Z</time>
      </trkpt>
      <trkpt lat="40.7758040" lon="-4.7424790">
        <ele>1058.1</ele>
        <time>2019-08-14T08:50:34Z</time>
      </trkpt>
      <trkpt lat="40.7758590" lon="-4.7424790">
        <ele>1058.0</ele>
        <time>2019-08-14T08:50:35Z</time>
      </trkpt>
      <trkpt lat="40.7759170" lon="-4.7424730">
        <ele>1057.9</ele>
        <time>2019-08-14T08:50:36Z</time>
      </trkpt>
      <trkpt lat="40.7759750" lon="-4.7424590">
        <ele>1057.8</ele>
        <time>2019-08-14T08:50:37Z</time>
      </trkpt>
      <trkpt lat="40.7760300" lon="-4.7424390">
        <ele>1057.7</ele>
        <time>2019-08-14T08:50:38Z</time>
      </trkpt>
      <trkpt lat="40.7760830" lon="-4.7424100">
        <ele>1057.6</ele>
        <time>2019-08-14T08:50:39Z</time>
      </trkpt>
      <trkpt lat="40.7761340" lon="-4.7423750">
        <ele>1057.5</ele>
        <time>2019-08-14T08:50:40Z</time>
      </trkpt>
      <trkpt lat="40.7761840" lon="-4.7423370">
        <ele>1057.5</ele>
        <time>2019-08-14T08:50:41Z</time>
      </trkpt>
      <trkpt lat="40.7762330" lon="-4.7422940">
        <ele>1057.4</ele>
        <time>2019-08-14T08:50:42Z</time>
      </trkpt>
      <trkpt lat="40.7762820" lon="-4.7422510">
        <ele>1057.3</ele>
        <time>2019-08-14T08:50:43Z</time>
      </trkpt>
      <trkpt lat="40.7763290" lon="-4.7422060">
        <ele>1057.2</ele>
        <time>2019-08-14T08:50:44Z</time>
      </trkpt>
      <trkpt lat="40.7763780" lon="-4.7421620">
        <ele>1057.2</ele>
        <time>2019-08-14T08:50:45Z</time>
      </trkpt>
      <trkpt lat="40.7764260" lon="-4.7421190">
        <ele>1057.2</ele>
        <time>2019-08-14T08:50:46Z</time>
      </trkpt>
      <trkpt lat="40.7764750" lon="-4.7420780">
        <ele>1057.1</ele>
        <time>2019-08-14T08:50:47Z</time>
      </trkpt>
      <trkpt lat="40.7765240" lon="-4.7420380">
        <ele>1057.1</ele>
        <time>2019-08-14T08:50:48Z</time>
      </trkpt>
      <trkpt lat="40.7765720" lon="-4.7420000">
        <ele>1057.0</ele>
        <time>2019-08-14T08:50:49Z</time>
      </trkpt>
      <trkpt lat="40.7766190" lon="-4.7419640">
        <ele>1056.9</ele>
        <time>2019-08-14T08:50:50Z</time>
      </trkpt>
      <trkpt lat="40.7766650" lon="-4.7419240">
        <ele>1056.7</ele>
        <time>2019-08-14T08:50:51Z</time>
      </trkpt>
      <trkpt lat="40.7767120" lon="-4.7418860">
        <ele>1056.5</ele>
        <time>2019-08-14T08:50:52Z</time>
      </trkpt>
      <trkpt lat="40.7767580" lon="-4.7418470">
        <ele>1056.4</ele>
        <time>2019-08-14T08:50:53Z</time>
      </trkpt>
      <trkpt lat="40.7768040" lon="-4.7418070">
        <ele>1056.3</ele>
        <time>2019-08-14T08:50:54Z</time>
      </trkpt>
      <trkpt lat="40.7768500" lon="-4.7417710">
        <ele>1056.1</ele>
        <time>2019-08-14T08:50:55Z</time>
      </trkpt>
      <trkpt lat="40.7768950" lon="-4.7417340">
        <ele>1056.0</ele>
        <time>2019-08-14T08:50:56Z</time>
      </trkpt>
      <trkpt lat="40.7769440" lon="-4.7416980">
        <ele>1055.7</ele>
        <time>2019-08-14T08:50:57Z</time>
      </trkpt>
      <trkpt lat="40.7769920" lon="-4.7416640">
        <ele>1055.4</ele>
        <time>2019-08-14T08:50:58Z</time>
      </trkpt>
      <trkpt lat="40.7770410" lon="-4.7416270">
        <ele>1055.2</ele>
        <time>2019-08-14T08:50:59Z</time>
      </trkpt>
      <trkpt lat="40.7770910" lon="-4.7415870">
        <ele>1055.0</ele>
        <time>2019-08-14T08:51:00Z</time>
      </trkpt>
      <trkpt lat="40.7771400" lon="-4.7415490">
        <ele>1054.7</ele>
        <time>2019-08-14T08:51:01Z</time>
      </trkpt>
      <trkpt lat="40.7771910" lon="-4.7415120">
        <ele>1054.4</ele>
        <time>2019-08-14T08:51:02Z</time>
      </trkpt>
      <trkpt lat="40.7772440" lon="-4.7414730">
        <ele>1054.0</ele>
        <time>2019-08-14T08:51:03Z</time>
      </trkpt>
      <trkpt lat="40.7773000" lon="-4.7414330">
        <ele>1053.8</ele>
        <time>2019-08-14T08:51:04Z</time>
      </trkpt>
      <trkpt lat="40.7773580" lon="-4.7413920">
        <ele>1053.6</ele>
        <time>2019-08-14T08:51:05Z</time>
      </trkpt>
      <trkpt lat="40.7774170" lon="-4.7413520">
        <ele>1053.3</ele>
        <time>2019-08-14T08:51:06Z</time>
      </trkpt>
      <trkpt lat="40.7774770" lon="-4.7413100">
        <ele>1053.0</ele>
        <time>2019-08-14T08:51:07Z</time>
      </trkpt>
      <trkpt lat="40.7775370" lon="-4.7412670">
        <ele>1052.7</ele>
        <time>2019-08-14T08:51:08Z</time>
      </trkpt>
      <trkpt lat="40.7775970" lon="-4.7412230">
        <ele>1052.5</ele>
        <time>2019-08-14T08:51:09Z</time>
      </trkpt>
      <trkpt lat="40.7776580" lon="-4.7411790">
        <ele>1052.3</ele>
        <time>2019-08-14T08:51:10Z</time>
      </trkpt>
      <trkpt lat="40.7777190" lon="-4.7411350">
        <ele>1052.0</ele>
        <time>2019-08-14T08:51:11Z</time>
      </trkpt>
      <trkpt lat="40.7777810" lon="-4.7410920">
        <ele>1051.7</ele>
        <time>2019-08-14T08:51:12Z</time>
      </trkpt>
      <trkpt lat="40.7778420" lon="-4.7410490">
        <ele>1051.4</ele>
        <time>2019-08-14T08:51:13Z</time>
      </trkpt>
      <trkpt lat="40.7779010" lon="-4.7410060">
        <ele>1051.1</ele>
        <time>2019-08-14T08:51:14Z</time>
      </trkpt>
      <trkpt lat="40.7779630" lon="-4.7409630">
        <ele>1050.8</ele>
        <time>2019-08-14T08:51:15Z</time>
      </trkpt>
      <trkpt lat="40.7780250" lon="-4.7409200">
        <ele>1050.5</ele>
        <time>2019-08-14T08:51:16Z</time>
      </trkpt>
      <trkpt lat="40.7780870" lon="-4.7408750">
        <ele>1050.3</ele>
        <time>2019-08-14T08:51:17Z</time>
      </trkpt>
      <trkpt lat="40.7781490" lon="-4.7408310">
        <ele>1050.1</ele>
        <time>2019-08-14T08:51:18Z</time>
      </trkpt>
      <trkpt lat="40.7782100" lon="-4.7407880">
        <ele>1049.8</ele>
        <time>2019-08-14T08:51:19Z</time>
      </trkpt>
      <trkpt lat="40.7782710" lon="-4.7407440">
        <ele>1049.5</ele>
        <time>2019-08-14T08:51:20Z</time>
      </trkpt>
      <trkpt lat="40.7783320" lon="-4.7407000">
        <ele>1049.2</ele>
        <time>2019-08-14T08:51:21Z</time>
      </trkpt>
      <trkpt lat="40.7783940" lon="-4.7406550">
        <ele>1049.0</ele>
        <time>2019-08-14T08:51:22Z</time>
      </trkpt>
      <trkpt lat="40.7784570" lon="-4.7406110">
        <ele>1048.8</ele>
        <time>2019-08-14T08:51:23Z</time>
      </trkpt>
      <trkpt lat="40.7785200" lon="-4.7405660">
        <ele>1048.5</ele>
        <time>2019-08-14T08:51:24Z</time>
      </trkpt>
      <trkpt lat="40.7785820" lon="-4.7405220">
        <ele>1048.3</ele>
        <time>2019-08-14T08:51:25Z</time>
      </trkpt>
      <trkpt lat="40.7786450" lon="-4.7404770">
        <ele>1048.1</ele>
        <time>2019-08-14T08:51:26Z</time>
      </trkpt>
      <trkpt lat="40.7787060" lon="-4.7404310">
        <ele>1047.9</ele>
        <time>2019-08-14T08:51:27Z</time>
      </trkpt>
      <trkpt lat="40.7787670" lon="-4.7403890">
        <ele>1047.7</ele>
        <time>2019-08-14T08:51:28Z</time>
      </trkpt>
      <trkpt lat="40.7788280" lon="-4.7403480">
        <ele>1047.4</ele>
        <time>2019-08-14T08:51:29Z</time>
      </trkpt>
      <trkpt lat="40.7788890" lon="-4.7403050">
        <ele>1047.0</ele>
        <time>2019-08-14T08:51:30Z</time>
      </trkpt>
      <trkpt lat="40.7789490" lon="-4.7402600">
        <ele>1046.8</ele>
        <time>2019-08-14T08:51:31Z</time>
      </trkpt>
      <trkpt lat="40.7790090" lon="-4.7402160">
        <ele>1046.5</ele>
        <time>2019-08-14T08:51:32Z</time>
      </trkpt>
      <trkpt lat="40.7790700" lon="-4.7401740">
        <ele>1046.3</ele>
        <time>2019-08-14T08:51:33Z</time>
      </trkpt>
      <trkpt lat="40.7791300" lon="-4.7401310">
        <ele>1046.1</ele>
        <time>2019-08-14T08:51:34Z</time>
      </trkpt>
      <trkpt lat="40.7791900" lon="-4.7400880">
        <ele>1045.9</ele>
        <time>2019-08-14T08:51:35Z</time>
      </trkpt>
      <trkpt lat="40.7792510" lon="-4.7400460">
        <ele>1045.7</ele>
        <time>2019-08-14T08:51:36Z</time>
      </trkpt>
      <trkpt lat="40.7793120" lon="-4.7400050">
        <ele>1045.5</ele>
        <time>2019-08-14T08:51:37Z</time>
      </trkpt>
      <trkpt lat="40.7793730" lon="-4.7399640">
        <ele>1045.3</ele>
        <time>2019-08-14T08:51:38Z</time>
      </trkpt>
      <trkpt lat="40.7794340" lon="-4.7399200">
        <ele>1045.2</ele>
        <time>2019-08-14T08:51:39Z</time>
      </trkpt>
      <trkpt lat="40.7794960" lon="-4.7398780">
        <ele>1045.0</ele>
        <time>2019-08-14T08:51:40Z</time>
      </trkpt>
      <trkpt lat="40.7795570" lon="-4.7398370">
        <ele>1044.8</ele>
        <time>2019-08-14T08:51:41Z</time>
      </trkpt>
      <trkpt lat="40.7796170" lon="-4.7397960">
        <ele>1044.6</ele>
        <time>2019-08-14T08:51:42Z</time>
      </trkpt>
      <trkpt lat="40.7796750" lon="-4.7397550">
        <ele>1044.4</ele>
        <time>2019-08-14T08:51:43Z</time>
      </trkpt>
      <trkpt lat="40.7797310" lon="-4.7397160">
        <ele>1044.2</ele>
        <time>2019-08-14T08:51:44Z</time>
      </trkpt>
      <trkpt lat="40.7797870" lon="-4.7396780">
        <ele>1044.1</ele>
        <time>2019-08-14T08:51:45Z</time>
      </trkpt>
      <trkpt lat="40.7798410" lon="-4.7396390">
        <ele>1043.9</ele>
        <time>2019-08-14T08:51:46Z</time>
      </trkpt>
      <trkpt lat="40.7798960" lon="-4.7396020">
        <ele>1043.8</ele>
        <time>2019-08-14T08:51:47Z</time>
      </trkpt>
      <trkpt lat="40.7799480" lon="-4.7395650">
        <ele>1043.6</ele>
        <time>2019-08-14T08:51:48Z</time>
      </trkpt>
      <trkpt lat="40.7800010" lon="-4.7395270">
        <ele>1043.5</ele>
        <time>2019-08-14T08:51:49Z</time>
      </trkpt>
      <trkpt lat="40.7800510" lon="-4.7394880">
        <ele>1043.4</ele>
        <time>2019-08-14T08:51:50Z</time>
      </trkpt>
      <trkpt lat="40.7801030" lon="-4.7394490">
        <ele>1043.2</ele>
        <time>2019-08-14T08:51:51Z</time>
      </trkpt>
      <trkpt lat="40.7801550" lon="-4.7394110">
        <ele>1043.1</ele>
        <time>2019-08-14T08:51:52Z</time>
      </trkpt>
      <trkpt lat="40.7802040" lon="-4.7393730">
        <ele>1042.9</ele>
        <time>2019-08-14T08:51:53Z</time>
      </trkpt>
      <trkpt lat="40.7802540" lon="-4.7393350">
        <ele>1042.6</ele>
        <time>2019-08-14T08:51:54Z</time>
      </trkpt>
      <trkpt lat="40.7803050" lon="-4.7393000">
        <ele>1042.4</ele>
        <time>2019-08-14T08:51:55Z</time>
      </trkpt>
      <trkpt lat="40.7803550" lon="-4.7392610">
        <ele>1042.2</ele>
        <time>2019-08-14T08:51:56Z</time>
      </trkpt>
      <trkpt lat="40.7804050" lon="-4.7392200">
        <ele>1041.9</ele>
        <time>2019-08-14T08:51:57Z</time>
      </trkpt>
      <trkpt lat="40.7804560" lon="-4.7391780">
        <ele>1041.6</ele>
        <time>2019-08-14T08:51:58Z</time>
      </trkpt>
      <trkpt lat="40.7805080" lon="-4.7391360">
        <ele>1041.3</ele>
        <time>2019-08-14T08:51:59Z</time>
      </trkpt>
      <trkpt lat="40.7805620" lon="-4.7390930">
        <ele>1041.0</ele>
        <time>2019-08-14T08:52:00Z</time>
      </trkpt>
      <trkpt lat="40.7806150" lon="-4.7390480">
        <ele>1040.7</ele>
        <time>2019-08-14T08:52:01Z</time>
      </trkpt>
      <trkpt lat="40.7806670" lon="-4.7390010">
        <ele>1040.4</ele>
        <time>2019-08-14T08:52:02Z</time>
      </trkpt>
      <trkpt lat="40.7807200" lon="-4.7389540">
        <ele>1040.0</ele>
        <time>2019-08-14T08:52:03Z</time>
      </trkpt>
      <trkpt lat="40.7807720" lon="-4.7389050">
        <ele>1039.6</ele>
        <time>2019-08-14T08:52:04Z</time>
      </trkpt>
      <trkpt lat="40.7808260" lon="-4.7388570">
        <ele>1039.3</ele>
        <time>2019-08-14T08:52:05Z</time>
      </trkpt>
      <trkpt lat="40.7808800" lon="-4.7388080">
        <ele>1039.0</ele>
        <time>2019-08-14T08:52:06Z</time>
      </trkpt>
      <trkpt lat="40.7809350" lon="-4.7387580">
        <ele>1038.7</ele>
        <time>2019-08-14T08:52:07Z</time>
      </trkpt>
      <trkpt lat="40.7809910" lon="-4.7387080">
        <ele>1038.3</ele>
        <time>2019-08-14T08:52:08Z</time>
      </trkpt>
      <trkpt lat="40.7810470" lon="-4.7386590">
        <ele>1038.0</ele>
        <time>2019-08-14T08:52:09Z</time>
      </trkpt>
      <trkpt lat="40.7811050" lon="-4.7386080">
        <ele>1037.8</ele>
        <time>2019-08-14T08:52:10Z</time>
      </trkpt>
      <trkpt lat="40.7811630" lon="-4.7385570">
        <ele>1037.5</ele>
        <time>2019-08-14T08:52:11Z</time>
      </trkpt>
      <trkpt lat="40.7812230" lon="-4.7385060">
        <ele>1037.2</ele>
        <time>2019-08-14T08:52:12Z</time>
      </trkpt>
      <trkpt lat="40.7812820" lon="-4.7384540">
        <ele>1036.8</ele>
        <time>2019-08-14T08:52:13Z</time>
      </trkpt>
      <trkpt lat="40.7813410" lon="-4.7384000">
        <ele>1036.5</ele>
        <time>2019-08-14T08:52:14Z</time>
      </trkpt>
      <trkpt lat="40.7814020" lon="-4.7383460">
        <ele>1036.1</ele>
        <time>2019-08-14T08:52:15Z</time>
      </trkpt>
      <trkpt lat="40.7814640" lon="-4.7382900">
        <ele>1035.6</ele>
        <time>2019-08-14T08:52:16Z</time>
      </trkpt>
      <trkpt lat="40.7815260" lon="-4.7382350">
        <ele>1035.2</ele>
        <time>2019-08-14T08:52:17Z</time>
      </trkpt>
      <trkpt lat="40.7815890" lon="-4.7381790">
        <ele>1034.8</ele>
        <time>2019-08-14T08:52:18Z</time>
      </trkpt>
      <trkpt lat="40.7816520" lon="-4.7381240">
        <ele>1034.4</ele>
        <time>2019-08-14T08:52:19Z</time>
      </trkpt>
      <trkpt lat="40.7817170" lon="-4.7380670">
        <ele>1034.0</ele>
        <time>2019-08-14T08:52:20Z</time>
      </trkpt>
      <trkpt lat="40.7817830" lon="-4.7380100">
        <ele>1033.6</ele>
        <time>2019-08-14T08:52:21Z</time>
      </trkpt>
      <trkpt lat="40.7818480" lon="-4.7379520">
        <ele>1033.2</ele>
        <time>2019-08-14T08:52:22Z</time>
      </trkpt>
      <trkpt lat="40.7819140" lon="-4.7378940">
        <ele>1032.8</ele>
        <time>2019-08-14T08:52:23Z</time>
      </trkpt>
      <trkpt lat="40.7819810" lon="-4.7378350">
        <ele>1032.4</ele>
        <time>2019-08-14T08:52:24Z</time>
      </trkpt>
      <trkpt lat="40.7820480" lon="-4.7377760">
        <ele>1032.0</ele>
        <time>2019-08-14T08:52:25Z</time>
      </trkpt>
      <trkpt lat="40.7821150" lon="-4.7377180">
        <ele>1031.5</ele>
        <time>2019-08-14T08:52:26Z</time>
      </trkpt>
      <trkpt lat="40.7821830" lon="-4.7376620">
        <ele>1030.9</ele>
        <time>2019-08-14T08:52:27Z</time>
      </trkpt>
      <trkpt lat="40.7822530" lon="-4.7376050">
        <ele>1030.3</ele>
        <time>2019-08-14T08:52:28Z</time>
      </trkpt>
      <trkpt lat="40.7823200" lon="-4.7375480">
        <ele>1030.0</ele>
        <time>2019-08-14T08:52:29Z</time>
      </trkpt>
      <trkpt lat="40.7823870" lon="-4.7374910">
        <ele>1029.6</ele>
        <time>2019-08-14T08:52:30Z</time>
      </trkpt>
      <trkpt lat="40.7824520" lon="-4.7374370">
        <ele>1029.2</ele>
        <time>2019-08-14T08:52:31Z</time>
      </trkpt>
      <trkpt lat="40.7825140" lon="-4.7373840">
        <ele>1028.9</ele>
        <time>2019-08-14T08:52:32Z</time>
      </trkpt>
      <trkpt lat="40.7825720" lon="-4.7373350">
        <ele>1028.5</ele>
        <time>2019-08-14T08:52:33Z</time>
      </trkpt>
      <trkpt lat="40.7826250" lon="-4.7372890">
        <ele>1028.2</ele>
        <time>2019-08-14T08:52:34Z</time>
      </trkpt>
      <trkpt lat="40.7826720" lon="-4.7372500">
        <ele>1028.0</ele>
        <time>2019-08-14T08:52:35Z</time>
      </trkpt>
      <trkpt lat="40.7827160" lon="-4.7372160">
        <ele>1027.8</ele>
        <time>2019-08-14T08:52:36Z</time>
      </trkpt>
      <trkpt lat="40.7827590" lon="-4.7371820">
        <ele>1027.5</ele>
        <time>2019-08-14T08:52:37Z</time>
      </trkpt>
      <trkpt lat="40.7827990" lon="-4.7371500">
        <ele>1027.3</ele>
        <time>2019-08-14T08:52:38Z</time>
      </trkpt>
      <trkpt lat="40.7828350" lon="-4.7371240">
        <ele>1027.2</ele>
        <time>2019-08-14T08:52:39Z</time>
      </trkpt>
      <trkpt lat="40.7828650" lon="-4.7371000">
        <ele>1027.0</ele>
        <time>2019-08-14T08:52:40Z</time>
      </trkpt>
      <trkpt lat="40.7828900" lon="-4.7370790">
        <ele>1026.9</ele>
        <time>2019-08-14T08:52:41Z</time>
      </trkpt>
      <trkpt lat="40.7829130" lon="-4.7370590">
        <ele>1026.8</ele>
        <time>2019-08-14T08:52:42Z</time>
      </trkpt>
      <trkpt lat="40.7829640" lon="-4.7370530">
        <ele>1026.5</ele>
        <time>2019-08-14T08:52:44Z</time>
      </trkpt>
      <trkpt lat="40.7829930" lon="-4.7370660">
        <ele>1026.4</ele>
        <time>2019-08-14T08:52:45Z</time>
      </trkpt>
      <trkpt lat="40.7830290" lon="-4.7370760">
        <ele>1026.3</ele>
        <time>2019-08-14T08:52:46Z</time>
      </trkpt>
      <trkpt lat="40.7830680" lon="-4.7370730">
        <ele>1026.1</ele>
        <time>2019-08-14T08:52:47Z</time>
      </trkpt>
      <trkpt lat="40.7831110" lon="-4.7370580">
        <ele>1025.9</ele>
        <time>2019-08-14T08:52:48Z</time>
      </trkpt>
      <trkpt lat="40.7831560" lon="-4.7370380">
        <ele>1025.7</ele>
        <time>2019-08-14T08:52:49Z</time>
      </trkpt>
      <trkpt lat="40.7832040" lon="-4.7370220">
        <ele>1025.4</ele>
        <time>2019-08-14T08:52:50Z</time>
      </trkpt>
      <trkpt lat="40.7832540" lon="-4.7370090">
        <ele>1025.0</ele>
        <time>2019-08-14T08:52:51Z</time>
      </trkpt>
      <trkpt lat="40.7833060" lon="-4.7369920">
        <ele>1024.6</ele>
        <time>2019-08-14T08:52:52Z</time>
      </trkpt>
      <trkpt lat="40.7833600" lon="-4.7369710">
        <ele>1024.2</ele>
        <time>2019-08-14T08:52:53Z</time>
      </trkpt>
      <trkpt lat="40.7834140" lon="-4.7369490">
        <ele>1023.7</ele>
        <time>2019-08-14T08:52:54Z</time>
      </trkpt>
      <trkpt lat="40.7834700" lon="-4.7369260">
        <ele>1023.3</ele>
        <time>2019-08-14T08:52:55Z</time>
      </trkpt>
      <trkpt lat="40.7835270" lon="-4.7369020">
        <ele>1022.9</ele>
        <time>2019-08-14T08:52:56Z</time>
      </trkpt>
      <trkpt lat="40.7835880" lon="-4.7368750">
        <ele>1022.6</ele>
        <time>2019-08-14T08:52:57Z</time>
      </trkpt>
      <trkpt lat="40.7836510" lon="-4.7368470">
        <ele>1022.3</ele>
        <time>2019-08-14T08:52:58Z</time>
      </trkpt>
      <trkpt lat="40.7837180" lon="-4.7368180">
        <ele>1021.9</ele>
        <time>2019-08-14T08:52:59Z</time>
      </trkpt>
      <trkpt lat="40.7837860" lon="-4.7367860">
        <ele>1021.3</ele>
        <time>2019-08-14T08:53:00Z</time>
      </trkpt>
      <trkpt lat="40.7838560" lon="-4.7367530">
        <ele>1020.6</ele>
        <time>2019-08-14T08:53:01Z</time>
      </trkpt>
      <trkpt lat="40.7839270" lon="-4.7367190">
        <ele>1019.7</ele>
        <time>2019-08-14T08:53:02Z</time>
      </trkpt>
      <trkpt lat="40.7840000" lon="-4.7366870">
        <ele>1018.8</ele>
        <time>2019-08-14T08:53:03Z</time>
      </trkpt>
      <trkpt lat="40.7840740" lon="-4.7366540">
        <ele>1018.1</ele>
        <time>2019-08-14T08:53:04Z</time>
      </trkpt>
      <trkpt lat="40.7841510" lon="-4.7366190">
        <ele>1017.5</ele>
        <time>2019-08-14T08:53:05Z</time>
      </trkpt>
      <trkpt lat="40.7842280" lon="-4.7365850">
        <ele>1016.9</ele>
        <time>2019-08-14T08:53:06Z</time>
      </trkpt>
      <trkpt lat="40.7843080" lon="-4.7365530">
        <ele>1016.2</ele>
        <time>2019-08-14T08:53:07Z</time>
      </trkpt>
      <trkpt lat="40.7843900" lon="-4.7365230">
        <ele>1015.5</ele>
        <time>2019-08-14T08:53:08Z</time>
      </trkpt>
      <trkpt lat="40.7844730" lon="-4.7364930">
        <ele>1014.7</ele>
        <time>2019-08-14T08:53:09Z</time>
      </trkpt>
      <trkpt lat="40.7845570" lon="-4.7364660">
        <ele>1014.0</ele>
        <time>2019-08-14T08:53:10Z</time>
      </trkpt>
      <trkpt lat="40.7846400" lon="-4.7364410">
        <ele>1013.4</ele>
        <time>2019-08-14T08:53:11Z</time>
      </trkpt>
      <trkpt lat="40.7847240" lon="-4.7364150">
        <ele>1012.9</ele>
        <time>2019-08-14T08:53:12Z</time>
      </trkpt>
      <trkpt lat="40.7848070" lon="-4.7363870">
        <ele>1012.3</ele>
        <time>2019-08-14T08:53:13Z</time>
      </trkpt>
      <trkpt lat="40.7848910" lon="-4.7363580">
        <ele>1011.8</ele>
        <time>2019-08-14T08:53:14Z</time>
      </trkpt>
      <trkpt lat="40.7849720" lon="-4.7363270">
        <ele>1011.4</ele>
        <time>2019-08-14T08:53:15Z</time>
      </trkpt>
      <trkpt lat="40.7850540" lon="-4.7362920">
        <ele>1011.0</ele>
        <time>2019-08-14T08:53:16Z</time>
      </trkpt>
      <trkpt lat="40.7851350" lon="-4.7362550">
        <ele>1010.6</ele>
        <time>2019-08-14T08:53:17Z</time>
      </trkpt>
      <trkpt lat="40.7852140" lon="-4.7362160">
        <ele>1010.3</ele>
        <time>2019-08-14T08:53:18Z</time>
      </trkpt>
      <trkpt lat="40.7852930" lon="-4.7361780">
        <ele>1010.0</ele>
        <time>2019-08-14T08:53:19Z</time>
      </trkpt>
      <trkpt lat="40.7853730" lon="-4.7361410">
        <ele>1009.7</ele>
        <time>2019-08-14T08:53:20Z</time>
      </trkpt>
      <trkpt lat="40.7854530" lon="-4.7361030">
        <ele>1009.6</ele>
        <time>2019-08-14T08:53:21Z</time>
      </trkpt>
      <trkpt lat="40.7855320" lon="-4.7360650">
        <ele>1009.4</ele>
        <time>2019-08-14T08:53:22Z</time>
      </trkpt>
      <trkpt lat="40.7856090" lon="-4.7360260">
        <ele>1009.3</ele>
        <time>2019-08-14T08:53:23Z</time>
      </trkpt>
      <trkpt lat="40.7856870" lon="-4.7359890">
        <ele>1009.0</ele>
        <time>2019-08-14T08:53:24Z</time>
      </trkpt>
      <trkpt lat="40.7857640" lon="-4.7359530">
        <ele>1008.7</ele>
        <time>2019-08-14T08:53:25Z</time>
      </trkpt>
      <trkpt lat="40.7858430" lon="-4.7359200">
        <ele>1008.5</ele>
        <time>2019-08-14T08:53:26Z</time>
      </trkpt>
      <trkpt lat="40.7859230" lon="-4.7358870">
        <ele>1008.3</ele>
        <time>2019-08-14T08:53:27Z</time>
      </trkpt>
      <trkpt lat="40.7860040" lon="-4.7358540">
        <ele>1008.0</ele>
        <time>2019-08-14T08:53:28Z</time>
      </trkpt>
      <trkpt lat="40.7860850" lon="-4.7358230">
        <ele>1007.6</ele>
        <time>2019-08-14T08:53:29Z</time>
      </trkpt>
      <trkpt lat="40.7861670" lon="-4.7357920">
        <ele>1007.1</ele>
        <time>2019-08-14T08:53:30Z</time>
      </trkpt>
      <trkpt lat="40.7862470" lon="-4.7357590">
        <ele>1006.8</ele>
        <time>2019-08-14T08:53:31Z</time>
      </trkpt>
      <trkpt lat="40.7863270" lon="-4.7357260">
        <ele>1006.6</ele>
        <time>2019-08-14T08:53:32Z</time>
      </trkpt>
      <trkpt lat="40.7864080" lon="-4.7356950">
        <ele>1006.5</ele>
        <time>2019-08-14T08:53:33Z</time>
      </trkpt>
      <trkpt lat="40.7864880" lon="-4.7356640">
        <ele>1006.6</ele>
        <time>2019-08-14T08:53:34Z</time>
      </trkpt>
      <trkpt lat="40.7865680" lon="-4.7356330">
        <ele>1006.6</ele>
        <time>2019-08-14T08:53:35Z</time>
      </trkpt>
      <trkpt lat="40.7866480" lon="-4.7356040">
        <ele>1006.7</ele>
        <time>2019-08-14T08:53:36Z</time>
      </trkpt>
      <trkpt lat="40.7867290" lon="-4.7355780">
        <ele>1006.7</ele>
        <time>2019-08-14T08:53:37Z</time>
      </trkpt>
      <trkpt lat="40.7868090" lon="-4.7355550">
        <ele>1006.6</ele>
        <time>2019-08-14T08:53:38Z</time>
      </trkpt>
      <trkpt lat="40.7868880" lon="-4.7355360">
        <ele>1006.5</ele>
        <time>2019-08-14T08:53:39Z</time>
      </trkpt>
      <trkpt lat="40.7869670" lon="-4.7355160">
        <ele>1006.5</ele>
        <time>2019-08-14T08:53:40Z</time>
      </trkpt>
      <trkpt lat="40.7870450" lon="-4.7354960">
        <ele>1006.4</ele>
        <time>2019-08-14T08:53:41Z</time>
      </trkpt>
      <trkpt lat="40.7871240" lon="-4.7354780">
        <ele>1006.3</ele>
        <time>2019-08-14T08:53:42Z</time>
      </trkpt>
      <trkpt lat="40.7872020" lon="-4.7354620">
        <ele>1006.3</ele>
        <time>2019-08-14T08:53:43Z</time>
      </trkpt>
      <trkpt lat="40.7872790" lon="-4.7354460">
        <ele>1006.3</ele>
        <time>2019-08-14T08:53:44Z</time>
      </trkpt>
      <trkpt lat="40.7873550" lon="-4.7354310">
        <ele>1006.3</ele>
        <time>2019-08-14T08:53:45Z</time>
      </trkpt>
      <trkpt lat="40.7874310" lon="-4.7354160">
        <ele>1006.3</ele>
        <time>2019-08-14T08:53:46Z</time>
      </trkpt>
      <trkpt lat="40.7875060" lon="-4.7353970">
        <ele>1006.3</ele>
        <time>2019-08-14T08:53:47Z</time>
      </trkpt>
      <trkpt lat="40.7875790" lon="-4.7353750">
        <ele>1006.3</ele>
        <time>2019-08-14T08:53:48Z</time>
      </trkpt>
      <trkpt lat="40.7876510" lon="-4.7353550">
        <ele>1006.4</ele>
        <time>2019-08-14T08:53:49Z</time>
      </trkpt>
      <trkpt lat="40.7877230" lon="-4.7353360">
        <ele>1006.5</ele>
        <time>2019-08-14T08:53:50Z</time>
      </trkpt>
      <trkpt lat="40.7877950" lon="-4.7353170">
        <ele>1006.6</ele>
        <time>2019-08-14T08:53:51Z</time>
      </trkpt>
      <trkpt lat="40.7878680" lon="-4.7352990">
        <ele>1006.8</ele>
        <time>2019-08-14T08:53:52Z</time>
      </trkpt>
      <trkpt lat="40.7879410" lon="-4.7352810">
        <ele>1007.1</ele>
        <time>2019-08-14T08:53:53Z</time>
      </trkpt>
      <trkpt lat="40.7880140" lon="-4.7352630">
        <ele>1006.9</ele>
        <time>2019-08-14T08:53:54Z</time>
      </trkpt>
      <trkpt lat="40.7880870" lon="-4.7352460">
        <ele>1006.8</ele>
        <time>2019-08-14T08:53:55Z</time>
      </trkpt>
      <trkpt lat="40.7881600" lon="-4.7352290">
        <ele>1006.6</ele>
        <time>2019-08-14T08:53:56Z</time>
      </trkpt>
      <trkpt lat="40.7882300" lon="-4.7352130">
        <ele>1006.5</ele>
        <time>2019-08-14T08:53:57Z</time>
      </trkpt>
      <trkpt lat="40.7882990" lon="-4.7351960">
        <ele>1006.4</ele>
        <time>2019-08-14T08:53:58Z</time>
      </trkpt>
      <trkpt lat="40.7883660" lon="-4.7351800">
        <ele>1006.3</ele>
        <time>2019-08-14T08:53:59Z</time>
      </trkpt>
      <trkpt lat="40.7884320" lon="-4.7351650">
        <ele>1006.2</ele>
        <time>2019-08-14T08:54:00Z</time>
      </trkpt>
      <trkpt lat="40.7884960" lon="-4.7351510">
        <ele>1006.1</ele>
        <time>2019-08-14T08:54:01Z</time>
      </trkpt>
      <trkpt lat="40.7885560" lon="-4.7351380">
        <ele>1006.1</ele>
        <time>2019-08-14T08:54:02Z</time>
      </trkpt>
      <trkpt lat="40.7886140" lon="-4.7351260">
        <ele>1006.1</ele>
        <time>2019-08-14T08:54:03Z</time>
      </trkpt>
      <trkpt lat="40.7886680" lon="-4.7351140">
        <ele>1006.0</ele>
        <time>2019-08-14T08:54:04Z</time>
      </trkpt>
      <trkpt lat="40.7887180" lon="-4.7351010">
        <ele>1006.0</ele>
        <time>2019-08-14T08:54:05Z</time>
      </trkpt>
      <trkpt lat="40.7887670" lon="-4.7350880">
        <ele>1006.0</ele>
        <time>2019-08-14T08:54:06Z</time>
      </trkpt>
      <trkpt lat="40.7888150" lon="-4.7350760">
        <ele>1005.9</ele>
        <time>2019-08-14T08:54:07Z</time>
      </trkpt>
      <trkpt lat="40.7888620" lon="-4.7350650">
        <ele>1005.9</ele>
        <time>2019-08-14T08:54:08Z</time>
      </trkpt>
      <trkpt lat="40.7889080" lon="-4.7350520">
        <ele>1005.9</ele>
        <time>2019-08-14T08:54:09Z</time>
      </trkpt>
      <trkpt lat="40.7889510" lon="-4.7350400">
        <ele>1005.9</ele>
        <time>2019-08-14T08:54:10Z</time>
      </trkpt>
      <trkpt lat="40.7889940" lon="-4.7350300">
        <ele>1005.9</ele>
        <time>2019-08-14T08:54:11Z</time>
      </trkpt>
      <trkpt lat="40.7890360" lon="-4.7350200">
        <ele>1005.9</ele>
        <time>2019-08-14T08:54:12Z</time>
      </trkpt>
      <trkpt lat="40.7890780" lon="-4.7350090">
        <ele>1005.8</ele>
        <time>2019-08-14T08:54:13Z</time>
      </trkpt>
      <trkpt lat="40.7891210" lon="-4.7349990">
        <ele>1005.8</ele>
        <time>2019-08-14T08:54:14Z</time>
      </trkpt>
      <trkpt lat="40.7891630" lon="-4.7349870">
        <ele>1005.8</ele>
        <time>2019-08-14T08:54:15Z</time>
      </trkpt>
      <trkpt lat="40.7892060" lon="-4.7349740">
        <ele>1005.8</ele>
        <time>2019-08-14T08:54:16Z</time>
      </trkpt>
      <trkpt lat="40.7892480" lon="-4.7349630">
        <ele>1005.8</ele>
        <time>2019-08-14T08:54:17Z</time>
      </trkpt>
      <trkpt lat="40.7892900" lon="-4.7349520">
        <ele>1005.9</ele>
        <time>2019-08-14T08:54:18Z</time>
      </trkpt>
      <trkpt lat="40.7893320" lon="-4.7349400">
        <ele>1005.9</ele>
        <time>2019-08-14T08:54:19Z</time>
      </trkpt>
      <trkpt lat="40.7893740" lon="-4.7349310">
        <ele>1005.9</ele>
        <time>2019-08-14T08:54:20Z</time>
      </trkpt>
      <trkpt lat="40.7894170" lon="-4.7349200">
        <ele>1006.0</ele>
        <time>2019-08-14T08:54:21Z</time>
      </trkpt>
      <trkpt lat="40.7894610" lon="-4.7349070">
        <ele>1006.0</ele>
        <time>2019-08-14T08:54:22Z</time>
      </trkpt>
      <trkpt lat="40.7895070" lon="-4.7348950">
        <ele>1006.1</ele>
        <time>2019-08-14T08:54:23Z</time>
      </trkpt>
      <trkpt lat="40.7895540" lon="-4.7348850">
        <ele>1006.2</ele>
        <time>2019-08-14T08:54:24Z</time>
      </trkpt>
      <trkpt lat="40.7896020" lon="-4.7348720">
        <ele>1006.3</ele>
        <time>2019-08-14T08:54:25Z</time>
      </trkpt>
      <trkpt lat="40.7896480" lon="-4.7348590">
        <ele>1006.4</ele>
        <time>2019-08-14T08:54:26Z</time>
      </trkpt>
      <trkpt lat="40.7896950" lon="-4.7348460">
        <ele>1006.5</ele>
        <time>2019-08-14T08:54:27Z</time>
      </trkpt>
      <trkpt lat="40.7897410" lon="-4.7348360">
        <ele>1006.7</ele>
        <time>2019-08-14T08:54:28Z</time>
      </trkpt>
      <trkpt lat="40.7897870" lon="-4.7348250">
        <ele>1006.8</ele>
        <time>2019-08-14T08:54:29Z</time>
      </trkpt>
      <trkpt lat="40.7898340" lon="-4.7348130">
        <ele>1007.0</ele>
        <time>2019-08-14T08:54:30Z</time>
      </trkpt>
      <trkpt lat="40.7898840" lon="-4.7348010">
        <ele>1007.2</ele>
        <time>2019-08-14T08:54:31Z</time>
      </trkpt>
      <trkpt lat="40.7899350" lon="-4.7347890">
        <ele>1007.4</ele>
        <time>2019-08-14T08:54:32Z</time>
      </trkpt>
      <trkpt lat="40.7899840" lon="-4.7347770">
        <ele>1007.6</ele>
        <time>2019-08-14T08:54:33Z</time>
      </trkpt>
      <trkpt lat="40.7900330" lon="-4.7347620">
        <ele>1007.4</ele>
        <time>2019-08-14T08:54:34Z</time>
      </trkpt>
      <trkpt lat="40.7900840" lon="-4.7347490">
        <ele>1007.3</ele>
        <time>2019-08-14T08:54:35Z</time>
      </trkpt>
      <trkpt lat="40.7901340" lon="-4.7347330">
        <ele>1007.1</ele>
        <time>2019-08-14T08:54:36Z</time>
      </trkpt>
      <trkpt lat="40.7901860" lon="-4.7347210">
        <ele>1006.9</ele>
        <time>2019-08-14T08:54:37Z</time>
      </trkpt>
      <trkpt lat="40.7902390" lon="-4.7347080">
        <ele>1006.7</ele>
        <time>2019-08-14T08:54:38Z</time>
      </trkpt>
      <trkpt lat="40.7902930" lon="-4.7346940">
        <ele>1006.5</ele>
        <time>2019-08-14T08:54:39Z</time>
      </trkpt>
      <trkpt lat="40.7903490" lon="-4.7346800">
        <ele>1006.2</ele>
        <time>2019-08-14T08:54:40Z</time>
      </trkpt>
      <trkpt lat="40.7904050" lon="-4.7346660">
        <ele>1006.0</ele>
        <time>2019-08-14T08:54:41Z</time>
      </trkpt>
      <trkpt lat="40.7904630" lon="-4.7346500">
        <ele>1005.8</ele>
        <time>2019-08-14T08:54:42Z</time>
      </trkpt>
      <trkpt lat="40.7905220" lon="-4.7346320">
        <ele>1005.6</ele>
        <time>2019-08-14T08:54:43Z</time>
      </trkpt>
      <trkpt lat="40.7905820" lon="-4.7346140">
        <ele>1005.4</ele>
        <time>2019-08-14T08:54:44Z</time>
      </trkpt>
      <trkpt lat="40.7906420" lon="-4.7345960">
        <ele>1005.3</ele>
        <time>2019-08-14T08:54:45Z</time>
      </trkpt>
      <trkpt lat="40.7907010" lon="-4.7345790">
        <ele>1005.1</ele>
        <time>2019-08-14T08:54:46Z</time>
      </trkpt>
      <trkpt lat="40.7907590" lon="-4.7345620">
        <ele>1004.9</ele>
        <time>2019-08-14T08:54:47Z</time>
      </trkpt>
      <trkpt lat="40.7908190" lon="-4.7345450">
        <ele>1004.8</ele>
        <time>2019-08-14T08:54:48Z</time>
      </trkpt>
      <trkpt lat="40.7908800" lon="-4.7345280">
        <ele>1004.7</ele>
        <time>2019-08-14T08:54:49Z</time>
      </trkpt>
      <trkpt lat="40.7909400" lon="-4.7345130">
        <ele>1004.7</ele>
        <time>2019-08-14T08:54:50Z</time>
      </trkpt>
      <trkpt lat="40.7910010" lon="-4.7344960">
        <ele>1004.7</ele>
        <time>2019-08-14T08:54:51Z</time>
      </trkpt>
      <trkpt lat="40.7910610" lon="-4.7344800">
        <ele>1004.7</ele>
        <time>2019-08-14T08:54:52Z</time>
      </trkpt>
      <trkpt lat="40.7911220" lon="-4.7344640">
        <ele>1004.7</ele>
        <time>2019-08-14T08:54:53Z</time>
      </trkpt>
      <trkpt lat="40.7911830" lon="-4.7344460">
        <ele>1004.7</ele>
        <time>2019-08-14T08:54:54Z</time>
      </trkpt>
      <trkpt lat="40.7912440" lon="-4.7344270">
        <ele>1004.7</ele>
        <time>2019-08-14T08:54:55Z</time>
      </trkpt>
      <trkpt lat="40.7913040" lon="-4.7344120">
        <ele>1004.7</ele>
        <time>2019-08-14T08:54:56Z</time>
      </trkpt>
      <trkpt lat="40.7913630" lon="-4.7343950">
        <ele>1004.7</ele>
        <time>2019-08-14T08:54:57Z</time>
      </trkpt>
      <trkpt lat="40.7914230" lon="-4.7343770">
        <ele>1004.7</ele>
        <time>2019-08-14T08:54:58Z</time>
      </trkpt>
      <trkpt lat="40.7914830" lon="-4.7343590">
        <ele>1004.7</ele>
        <time>2019-08-14T08:54:59Z</time>
      </trkpt>
      <trkpt lat="40.7915400" lon="-4.7343410">
        <ele>1004.7</ele>
        <time>2019-08-14T08:55:00Z</time>
      </trkpt>
      <trkpt lat="40.7915970" lon="-4.7343230">
        <ele>1004.7</ele>
        <time>2019-08-14T08:55:01Z</time>
      </trkpt>
      <trkpt lat="40.7916540" lon="-4.7343070">
        <ele>1004.6</ele>
        <time>2019-08-14T08:55:02Z</time>
      </trkpt>
      <trkpt lat="40.7917110" lon="-4.7342920">
        <ele>1004.5</ele>
        <time>2019-08-14T08:55:03Z</time>
      </trkpt>
      <trkpt lat="40.7917670" lon="-4.7342760">
        <ele>1004.3</ele>
        <time>2019-08-14T08:55:04Z</time>
      </trkpt>
      <trkpt lat="40.7918240" lon="-4.7342610">
        <ele>1004.2</ele>
        <time>2019-08-14T08:55:05Z</time>
      </trkpt>
      <trkpt lat="40.7918800" lon="-4.7342430">
        <ele>1004.0</ele>
        <time>2019-08-14T08:55:06Z</time>
      </trkpt>
      <trkpt lat="40.7919380" lon="-4.7342250">
        <ele>1003.8</ele>
        <time>2019-08-14T08:55:07Z</time>
      </trkpt>
      <trkpt lat="40.7919960" lon="-4.7342070">
        <ele>1003.6</ele>
        <time>2019-08-14T08:55:08Z</time>
      </trkpt>
      <trkpt lat="40.7920540" lon="-4.7341900">
        <ele>1003.4</ele>
        <time>2019-08-14T08:55:09Z</time>
      </trkpt>
      <trkpt lat="40.7921100" lon="-4.7341740">
        <ele>1003.2</ele>
        <time>2019-08-14T08:55:10Z</time>
      </trkpt>
      <trkpt lat="40.7921680" lon="-4.7341580">
        <ele>1003.0</ele>
        <time>2019-08-14T08:55:11Z</time>
      </trkpt>
      <trkpt lat="40.7922280" lon="-4.7341420">
        <ele>1002.7</ele>
        <time>2019-08-14T08:55:12Z</time>
      </trkpt>
      <trkpt lat="40.7922890" lon="-4.7341260">
        <ele>1002.4</ele>
        <time>2019-08-14T08:55:13Z</time>
      </trkpt>
      <trkpt lat="40.7923530" lon="-4.7341100">
        <ele>1002.0</ele>
        <time>2019-08-14T08:55:14Z</time>
      </trkpt>
      <trkpt lat="40.7924180" lon="-4.7340920">
        <ele>1001.5</ele>
        <time>2019-08-14T08:55:15Z</time>
      </trkpt>
      <trkpt lat="40.7924860" lon="-4.7340750">
        <ele>1001.1</ele>
        <time>2019-08-14T08:55:16Z</time>
      </trkpt>
      <trkpt lat="40.7925560" lon="-4.7340570">
        <ele>1000.4</ele>
        <time>2019-08-14T08:55:17Z</time>
      </trkpt>
      <trkpt lat="40.7926270" lon="-4.7340370">
        <ele>999.9</ele>
        <time>2019-08-14T08:55:18Z</time>
      </trkpt>
      <trkpt lat="40.7927010" lon="-4.7340170">
        <ele>999.4</ele>
        <time>2019-08-14T08:55:19Z</time>
      </trkpt>
      <trkpt lat="40.7927760" lon="-4.7339930">
        <ele>999.0</ele>
        <time>2019-08-14T08:55:20Z</time>
      </trkpt>
      <trkpt lat="40.7928540" lon="-4.7339690">
        <ele>998.5</ele>
        <time>2019-08-14T08:55:21Z</time>
      </trkpt>
      <trkpt lat="40.7929320" lon="-4.7339450">
        <ele>997.9</ele>
        <time>2019-08-14T08:55:22Z</time>
      </trkpt>
      <trkpt lat="40.7930140" lon="-4.7339230">
        <ele>997.1</ele>
        <time>2019-08-14T08:55:23Z</time>
      </trkpt>
      <trkpt lat="40.7930950" lon="-4.7339000">
        <ele>996.2</ele>
        <time>2019-08-14T08:55:24Z</time>
      </trkpt>
      <trkpt lat="40.7931770" lon="-4.7338780">
        <ele>995.1</ele>
        <time>2019-08-14T08:55:25Z</time>
      </trkpt>
      <trkpt lat="40.7932600" lon="-4.7338550">
        <ele>994.4</ele>
        <time>2019-08-14T08:55:26Z</time>
      </trkpt>
      <trkpt lat="40.7933420" lon="-4.7338330">
        <ele>993.8</ele>
        <time>2019-08-14T08:55:27Z</time>
      </trkpt>
      <trkpt lat="40.7934260" lon="-4.7338110">
        <ele>993.1</ele>
        <time>2019-08-14T08:55:28Z</time>
      </trkpt>
      <trkpt lat="40.7935120" lon="-4.7337910">
        <ele>992.5</ele>
        <time>2019-08-14T08:55:29Z</time>
      </trkpt>
      <trkpt lat="40.7935990" lon="-4.7337670">
        <ele>991.8</ele>
        <time>2019-08-14T08:55:30Z</time>
      </trkpt>
      <trkpt lat="40.7936890" lon="-4.7337430">
        <ele>991.1</ele>
        <time>2019-08-14T08:55:31Z</time>
      </trkpt>
      <trkpt lat="40.7937800" lon="-4.7337200">
        <ele>990.4</ele>
        <time>2019-08-14T08:55:32Z</time>
      </trkpt>
      <trkpt lat="40.7938710" lon="-4.7336970">
        <ele>989.7</ele>
        <time>2019-08-14T08:55:33Z</time>
      </trkpt>
      <trkpt lat="40.7939620" lon="-4.7336730">
        <ele>989.0</ele>
        <time>2019-08-14T08:55:34Z</time>
      </trkpt>
      <trkpt lat="40.7940530" lon="-4.7336500">
        <ele>988.4</ele>
        <time>2019-08-14T08:55:35Z</time>
      </trkpt>
      <trkpt lat="40.7941440" lon="-4.7336280">
        <ele>987.8</ele>
        <time>2019-08-14T08:55:36Z</time>
      </trkpt>
      <trkpt lat="40.7942340" lon="-4.7336060">
        <ele>987.4</ele>
        <time>2019-08-14T08:55:37Z</time>
      </trkpt>
      <trkpt lat="40.7943220" lon="-4.7335810">
        <ele>987.0</ele>
        <time>2019-08-14T08:55:38Z</time>
      </trkpt>
      <trkpt lat="40.7944110" lon="-4.7335550">
        <ele>986.7</ele>
        <time>2019-08-14T08:55:39Z</time>
      </trkpt>
      <trkpt lat="40.7944980" lon="-4.7335300">
        <ele>986.4</ele>
        <time>2019-08-14T08:55:40Z</time>
      </trkpt>
      <trkpt lat="40.7945840" lon="-4.7335060">
        <ele>986.1</ele>
        <time>2019-08-14T08:55:41Z</time>
      </trkpt>
      <trkpt lat="40.7946710" lon="-4.7334840">
        <ele>985.8</ele>
        <time>2019-08-14T08:55:42Z</time>
      </trkpt>
      <trkpt lat="40.7947550" lon="-4.7334630">
        <ele>985.5</ele>
        <time>2019-08-14T08:55:43Z</time>
      </trkpt>
      <trkpt lat="40.7948390" lon="-4.7334450">
        <ele>985.2</ele>
        <time>2019-08-14T08:55:44Z</time>
      </trkpt>
      <trkpt lat="40.7949220" lon="-4.7334250">
        <ele>984.9</ele>
        <time>2019-08-14T08:55:45Z</time>
      </trkpt>
      <trkpt lat="40.7950040" lon="-4.7334030">
        <ele>984.6</ele>
        <time>2019-08-14T08:55:46Z</time>
      </trkpt>
      <trkpt lat="40.7950870" lon="-4.7333820">
        <ele>984.2</ele>
        <time>2019-08-14T08:55:47Z</time>
      </trkpt>
      <trkpt lat="40.7951680" lon="-4.7333590">
        <ele>983.9</ele>
        <time>2019-08-14T08:55:48Z</time>
      </trkpt>
      <trkpt lat="40.7952500" lon="-4.7333380">
        <ele>983.5</ele>
        <time>2019-08-14T08:55:49Z</time>
      </trkpt>
      <trkpt lat="40.7953320" lon="-4.7333180">
        <ele>983.2</ele>
        <time>2019-08-14T08:55:50Z</time>
      </trkpt>
      <trkpt lat="40.7954140" lon="-4.7332980">
        <ele>982.9</ele>
        <time>2019-08-14T08:55:51Z</time>
      </trkpt>
      <trkpt lat="40.7954960" lon="-4.7332780">
        <ele>982.7</ele>
        <time>2019-08-14T08:55:52Z</time>
      </trkpt>
      <trkpt lat="40.7955750" lon="-4.7332580">
        <ele>982.5</ele>
        <time>2019-08-14T08:55:53Z</time>
      </trkpt>
      <trkpt lat="40.7956550" lon="-4.7332370">
        <ele>982.3</ele>
        <time>2019-08-14T08:55:54Z</time>
      </trkpt>
      <trkpt lat="40.7957340" lon="-4.7332170">
        <ele>982.2</ele>
        <time>2019-08-14T08:55:55Z</time>
      </trkpt>
      <trkpt lat="40.7958110" lon="-4.7331970">
        <ele>982.2</ele>
        <time>2019-08-14T08:55:56Z</time>
      </trkpt>
      <trkpt lat="40.7958850" lon="-4.7331760">
        <ele>982.1</ele>
        <time>2019-08-14T08:55:57Z</time>
      </trkpt>
      <trkpt lat="40.7959580" lon="-4.7331550">
        <ele>982.1</ele>
        <time>2019-08-14T08:55:58Z</time>
      </trkpt>
      <trkpt lat="40.7960300" lon="-4.7331300">
        <ele>982.0</ele>
        <time>2019-08-14T08:55:59Z</time>
      </trkpt>
      <trkpt lat="40.7961010" lon="-4.7331030">
        <ele>981.9</ele>
        <time>2019-08-14T08:56:00Z</time>
      </trkpt>
      <trkpt lat="40.7961710" lon="-4.7330780">
        <ele>981.7</ele>
        <time>2019-08-14T08:56:01Z</time>
      </trkpt>
      <trkpt lat="40.7962420" lon="-4.7330530">
        <ele>981.5</ele>
        <time>2019-08-14T08:56:02Z</time>
      </trkpt>
      <trkpt lat="40.7963130" lon="-4.7330290">
        <ele>981.3</ele>
        <time>2019-08-14T08:56:03Z</time>
      </trkpt>
      <trkpt lat="40.7963850" lon="-4.7330040">
        <ele>981.1</ele>
        <time>2019-08-14T08:56:04Z</time>
      </trkpt>
      <trkpt lat="40.7964570" lon="-4.7329810">
        <ele>980.9</ele>
        <time>2019-08-14T08:56:05Z</time>
      </trkpt>
      <trkpt lat="40.7965280" lon="-4.7329540">
        <ele>980.6</ele>
        <time>2019-08-14T08:56:06Z</time>
      </trkpt>
      <trkpt lat="40.7965990" lon="-4.7329270">
        <ele>980.3</ele>
        <time>2019-08-14T08:56:07Z</time>
      </trkpt>
      <trkpt lat="40.7966720" lon="-4.7328990">
        <ele>979.9</ele>
        <time>2019-08-14T08:56:08Z</time>
      </trkpt>
      <trkpt lat="40.7967450" lon="-4.7328730">
        <ele>979.6</ele>
        <time>2019-08-14T08:56:09Z</time>
      </trkpt>
      <trkpt lat="40.7968200" lon="-4.7328470">
        <ele>979.1</ele>
        <time>2019-08-14T08:56:10Z</time>
      </trkpt>
      <trkpt lat="40.7968960" lon="-4.7328170">
        <ele>978.6</ele>
        <time>2019-08-14T08:56:11Z</time>
      </trkpt>
      <trkpt lat="40.7969710" lon="-4.7327870">
        <ele>978.2</ele>
        <time>2019-08-14T08:56:12Z</time>
      </trkpt>
      <trkpt lat="40.7970470" lon="-4.7327560">
        <ele>977.8</ele>
        <time>2019-08-14T08:56:13Z</time>
      </trkpt>
      <trkpt lat="40.7971230" lon="-4.7327280">
        <ele>977.4</ele>
        <time>2019-08-14T08:56:14Z</time>
      </trkpt>
      <trkpt lat="40.7971980" lon="-4.7327010">
        <ele>977.0</ele>
        <time>2019-08-14T08:56:15Z</time>
      </trkpt>
      <trkpt lat="40.7972740" lon="-4.7326730">
        <ele>976.7</ele>
        <time>2019-08-14T08:56:16Z</time>
      </trkpt>
      <trkpt lat="40.7973510" lon="-4.7326450">
        <ele>976.3</ele>
        <time>2019-08-14T08:56:17Z</time>
      </trkpt>
      <trkpt lat="40.7974280" lon="-4.7326160">
        <ele>975.9</ele>
        <time>2019-08-14T08:56:18Z</time>
      </trkpt>
      <trkpt lat="40.7975040" lon="-4.7325890">
        <ele>975.5</ele>
        <time>2019-08-14T08:56:19Z</time>
      </trkpt>
      <trkpt lat="40.7975780" lon="-4.7325630">
        <ele>975.1</ele>
        <time>2019-08-14T08:56:20Z</time>
      </trkpt>
      <trkpt lat="40.7976480" lon="-4.7325360">
        <ele>974.8</ele>
        <time>2019-08-14T08:56:21Z</time>
      </trkpt>
      <trkpt lat="40.7977150" lon="-4.7325080">
        <ele>974.4</ele>
        <time>2019-08-14T08:56:22Z</time>
      </trkpt>
      <trkpt lat="40.7977800" lon="-4.7324820">
        <ele>974.1</ele>
        <time>2019-08-14T08:56:23Z</time>
      </trkpt>
      <trkpt lat="40.7978400" lon="-4.7324590">
        <ele>973.8</ele>
        <time>2019-08-14T08:56:24Z</time>
      </trkpt>
      <trkpt lat="40.7978950" lon="-4.7324360">
        <ele>973.6</ele>
        <time>2019-08-14T08:56:25Z</time>
      </trkpt>
      <trkpt lat="40.7979460" lon="-4.7324160">
        <ele>973.5</ele>
        <time>2019-08-14T08:56:26Z</time>
      </trkpt>
      <trkpt lat="40.7979900" lon="-4.7323970">
        <ele>973.4</ele>
        <time>2019-08-14T08:56:27Z</time>
      </trkpt>
      <trkpt lat="40.7980290" lon="-4.7323830">
        <ele>973.4</ele>
        <time>2019-08-14T08:56:28Z</time>
      </trkpt>
      <trkpt lat="40.7980670" lon="-4.7323700">
        <ele>973.4</ele>
        <time>2019-08-14T08:56:29Z</time>
      </trkpt>
      <trkpt lat="40.7981020" lon="-4.7323560">
        <ele>973.4</ele>
        <time>2019-08-14T08:56:30Z</time>
      </trkpt>
      <trkpt lat="40.7981370" lon="-4.7323420">
        <ele>973.4</ele>
        <time>2019-08-14T08:56:31Z</time>
      </trkpt>
      <trkpt lat="40.7981710" lon="-4.7323240">
        <ele>973.1</ele>
        <time>2019-08-14T08:56:32Z</time>
      </trkpt>
      <trkpt lat="40.7982090" lon="-4.7322990">
        <ele>972.9</ele>
        <time>2019-08-14T08:56:33Z</time>
      </trkpt>
      <trkpt lat="40.7982530" lon="-4.7322710">
        <ele>972.7</ele>
        <time>2019-08-14T08:56:34Z</time>
      </trkpt>
      <trkpt lat="40.7982980" lon="-4.7322400">
        <ele>972.5</ele>
        <time>2019-08-14T08:56:35Z</time>
      </trkpt>
      <trkpt lat="40.7983430" lon="-4.7322050">
        <ele>972.3</ele>
        <time>2019-08-14T08:56:36Z</time>
      </trkpt>
      <trkpt lat="40.7983880" lon="-4.7321670">
        <ele>972.0</ele>
        <time>2019-08-14T08:56:37Z</time>
      </trkpt>
      <trkpt lat="40.7984350" lon="-4.7321270">
        <ele>971.8</ele>
        <time>2019-08-14T08:56:38Z</time>
      </trkpt>
      <trkpt lat="40.7984830" lon="-4.7320880">
        <ele>971.5</ele>
        <time>2019-08-14T08:56:39Z</time>
      </trkpt>
      <trkpt lat="40.7985320" lon="-4.7320480">
        <ele>971.3</ele>
        <time>2019-08-14T08:56:40Z</time>
      </trkpt>
      <trkpt lat="40.7985810" lon="-4.7320060">
        <ele>971.1</ele>
        <time>2019-08-14T08:56:41Z</time>
      </trkpt>
      <trkpt lat="40.7986300" lon="-4.7319650">
        <ele>971.0</ele>
        <time>2019-08-14T08:56:42Z</time>
      </trkpt>
      <trkpt lat="40.7986790" lon="-4.7319240">
        <ele>970.7</ele>
        <time>2019-08-14T08:56:43Z</time>
      </trkpt>
      <trkpt lat="40.7987280" lon="-4.7318820">
        <ele>970.5</ele>
        <time>2019-08-14T08:56:44Z</time>
      </trkpt>
      <trkpt lat="40.7987790" lon="-4.7318430">
        <ele>970.2</ele>
        <time>2019-08-14T08:56:45Z</time>
      </trkpt>
      <trkpt lat="40.7988290" lon="-4.7318030">
        <ele>970.0</ele>
        <time>2019-08-14T08:56:46Z</time>
      </trkpt>
      <trkpt lat="40.7988800" lon="-4.7317640">
        <ele>969.7</ele>
        <time>2019-08-14T08:56:47Z</time>
      </trkpt>
      <trkpt lat="40.7989320" lon="-4.7317230">
        <ele>969.5</ele>
        <time>2019-08-14T08:56:48Z</time>
      </trkpt>
      <trkpt lat="40.7989840" lon="-4.7316830">
        <ele>969.4</ele>
        <time>2019-08-14T08:56:49Z</time>
      </trkpt>
      <trkpt lat="40.7990380" lon="-4.7316440">
        <ele>969.2</ele>
        <time>2019-08-14T08:56:50Z</time>
      </trkpt>
      <trkpt lat="40.7990910" lon="-4.7316020">
        <ele>969.0</ele>
        <time>2019-08-14T08:56:51Z</time>
      </trkpt>
      <trkpt lat="40.7991430" lon="-4.7315570">
        <ele>968.9</ele>
        <time>2019-08-14T08:56:52Z</time>
      </trkpt>
      <trkpt lat="40.7991950" lon="-4.7315100">
        <ele>968.7</ele>
        <time>2019-08-14T08:56:53Z</time>
      </trkpt>
      <trkpt lat="40.7992460" lon="-4.7314670">
        <ele>968.3</ele>
        <time>2019-08-14T08:56:54Z</time>
      </trkpt>
      <trkpt lat="40.7992990" lon="-4.7314250">
        <ele>968.1</ele>
        <time>2019-08-14T08:56:55Z</time>
      </trkpt>
      <trkpt lat="40.7993540" lon="-4.7313800">
        <ele>967.8</ele>
        <time>2019-08-14T08:56:56Z</time>
      </trkpt>
      <trkpt lat="40.7994080" lon="-4.7313370">
        <ele>967.6</ele>
        <time>2019-08-14T08:56:57Z</time>
      </trkpt>
      <trkpt lat="40.7994630" lon="-4.7313020">
        <ele>967.4</ele>
        <time>2019-08-14T08:56:58Z</time>
      </trkpt>
      <trkpt lat="40.7995170" lon="-4.7312770">
        <ele>967.1</ele>
        <time>2019-08-14T08:56:59Z</time>
      </trkpt>
      <trkpt lat="40.7995720" lon="-4.7312660">
        <ele>966.7</ele>
        <time>2019-08-14T08:57:00Z</time>
      </trkpt>
      <trkpt lat="40.7996240" lon="-4.7312740">
        <ele>966.4</ele>
        <time>2019-08-14T08:57:01Z</time>
      </trkpt>
      <trkpt lat="40.7996710" lon="-4.7313010">
        <ele>966.2</ele>
        <time>2019-08-14T08:57:02Z</time>
      </trkpt>
      <trkpt lat="40.7997120" lon="-4.7313390">
        <ele>966.1</ele>
        <time>2019-08-14T08:57:03Z</time>
      </trkpt>
      <trkpt lat="40.7997500" lon="-4.7313840">
        <ele>966.0</ele>
        <time>2019-08-14T08:57:04Z</time>
      </trkpt>
      <trkpt lat="40.7997860" lon="-4.7314310">
        <ele>965.9</ele>
        <time>2019-08-14T08:57:05Z</time>
      </trkpt>
      <trkpt lat="40.7998220" lon="-4.7314760">
        <ele>965.8</ele>
        <time>2019-08-14T08:57:06Z</time>
      </trkpt>
      <trkpt lat="40.7998570" lon="-4.7315180">
        <ele>965.7</ele>
        <time>2019-08-14T08:57:07Z</time>
      </trkpt>
      <trkpt lat="40.7998930" lon="-4.7315570">
        <ele>965.6</ele>
        <time>2019-08-14T08:57:08Z</time>
      </trkpt>
      <trkpt lat="40.7999280" lon="-4.7315950">
        <ele>965.6</ele>
        <time>2019-08-14T08:57:09Z</time>
      </trkpt>
      <trkpt lat="40.7999630" lon="-4.7316370">
        <ele>965.5</ele>
        <time>2019-08-14T08:57:10Z</time>
      </trkpt>
      <trkpt lat="40.7999990" lon="-4.7316830">
        <ele>965.5</ele>
        <time>2019-08-14T08:57:11Z</time>
      </trkpt>
      <trkpt lat="40.8000360" lon="-4.7317320">
        <ele>965.4</ele>
        <time>2019-08-14T08:57:12Z</time>
      </trkpt>
      <trkpt lat="40.8000750" lon="-4.7317760">
        <ele>965.4</ele>
        <time>2019-08-14T08:57:13Z</time>
      </trkpt>
      <trkpt lat="40.8001150" lon="-4.7318090">
        <ele>965.3</ele>
        <time>2019-08-14T08:57:14Z</time>
      </trkpt>
      <trkpt lat="40.8001560" lon="-4.7318360">
        <ele>965.3</ele>
        <time>2019-08-14T08:57:15Z</time>
      </trkpt>
      <trkpt lat="40.8001990" lon="-4.7318560">
        <ele>965.3</ele>
        <time>2019-08-14T08:57:16Z</time>
      </trkpt>
      <trkpt lat="40.8002430" lon="-4.7318720">
        <ele>965.3</ele>
        <time>2019-08-14T08:57:17Z</time>
      </trkpt>
      <trkpt lat="40.8002870" lon="-4.7318900">
        <ele>965.3</ele>
        <time>2019-08-14T08:57:18Z</time>
      </trkpt>
      <trkpt lat="40.8003310" lon="-4.7319110">
        <ele>965.3</ele>
        <time>2019-08-14T08:57:19Z</time>
      </trkpt>
      <trkpt lat="40.8003740" lon="-4.7319320">
        <ele>965.4</ele>
        <time>2019-08-14T08:57:20Z</time>
      </trkpt>
      <trkpt lat="40.8004180" lon="-4.7319550">
        <ele>965.4</ele>
        <time>2019-08-14T08:57:21Z</time>
      </trkpt>
      <trkpt lat="40.8004600" lon="-4.7319780">
        <ele>965.5</ele>
        <time>2019-08-14T08:57:22Z</time>
      </trkpt>
      <trkpt lat="40.8005020" lon="-4.7320000">
        <ele>965.6</ele>
        <time>2019-08-14T08:57:23Z</time>
      </trkpt>
      <trkpt lat="40.8005440" lon="-4.7320190">
        <ele>965.6</ele>
        <time>2019-08-14T08:57:24Z</time>
      </trkpt>
      <trkpt lat="40.8005870" lon="-4.7320380">
        <ele>965.7</ele>
        <time>2019-08-14T08:57:25Z</time>
      </trkpt>
      <trkpt lat="40.8006280" lon="-4.7320570">
        <ele>965.7</ele>
        <time>2019-08-14T08:57:26Z</time>
      </trkpt>
      <trkpt lat="40.8006700" lon="-4.7320750">
        <ele>965.8</ele>
        <time>2019-08-14T08:57:27Z</time>
      </trkpt>
      <trkpt lat="40.8007110" lon="-4.7320940">
        <ele>965.9</ele>
        <time>2019-08-14T08:57:28Z</time>
      </trkpt>
      <trkpt lat="40.8007530" lon="-4.7321130">
        <ele>966.0</ele>
        <time>2019-08-14T08:57:29Z</time>
      </trkpt>
      <trkpt lat="40.8007930" lon="-4.7321340">
        <ele>966.1</ele>
        <time>2019-08-14T08:57:30Z</time>
      </trkpt>
      <trkpt lat="40.8008320" lon="-4.7321540">
        <ele>966.2</ele>
        <time>2019-08-14T08:57:31Z</time>
      </trkpt>
      <trkpt lat="40.8008710" lon="-4.7321730">
        <ele>966.3</ele>
        <time>2019-08-14T08:57:32Z</time>
      </trkpt>
      <trkpt lat="40.8009110" lon="-4.7321920">
        <ele>966.4</ele>
        <time>2019-08-14T08:57:33Z</time>
      </trkpt>
      <trkpt lat="40.8009490" lon="-4.7322110">
        <ele>966.5</ele>
        <time>2019-08-14T08:57:34Z</time>
      </trkpt>
      <trkpt lat="40.8009880" lon="-4.7322290">
        <ele>966.7</ele>
        <time>2019-08-14T08:57:35Z</time>
      </trkpt>
      <trkpt lat="40.8010250" lon="-4.7322490">
        <ele>966.8</ele>
        <time>2019-08-14T08:57:36Z</time>
      </trkpt>
      <trkpt lat="40.8010620" lon="-4.7322690">
        <ele>966.8</ele>
        <time>2019-08-14T08:57:37Z</time>
      </trkpt>
      <trkpt lat="40.8010980" lon="-4.7322870">
        <ele>966.8</ele>
        <time>2019-08-14T08:57:38Z</time>
      </trkpt>
      <trkpt lat="40.8011340" lon="-4.7323040">
        <ele>966.8</ele>
        <time>2019-08-14T08:57:39Z</time>
      </trkpt>
      <trkpt lat="40.8011700" lon="-4.7323210">
        <ele>966.8</ele>
        <time>2019-08-14T08:57:40Z</time>
      </trkpt>
      <trkpt lat="40.8012050" lon="-4.7323390">
        <ele>966.8</ele>
        <time>2019-08-14T08:57:41Z</time>
      </trkpt>
      <trkpt lat="40.8012400" lon="-4.7323570">
        <ele>966.8</ele>
        <time>2019-08-14T08:57:42Z</time>
      </trkpt>
      <trkpt lat="40.8012750" lon="-4.7323750">
        <ele>966.9</ele>
        <time>2019-08-14T08:57:43Z</time>
      </trkpt>
      <trkpt lat="40.8013110" lon="-4.7323940">
        <ele>966.9</ele>
        <time>2019-08-14T08:57:44Z</time>
      </trkpt>
      <trkpt lat="40.8013470" lon="-4.7324130">
        <ele>966.9</ele>
        <time>2019-08-14T08:57:45Z</time>
      </trkpt>
      <trkpt lat="40.8013840" lon="-4.7324310">
        <ele>966.9</ele>
        <time>2019-08-14T08:57:46Z</time>
      </trkpt>
      <trkpt lat="40.8014230" lon="-4.7324500">
        <ele>966.9</ele>
        <time>2019-08-14T08:57:47Z</time>
      </trkpt>
      <trkpt lat="40.8014610" lon="-4.7324680">
        <ele>966.9</ele>
        <time>2019-08-14T08:57:48Z</time>
      </trkpt>
      <trkpt lat="40.8014990" lon="-4.7324880">
        <ele>966.8</ele>
        <time>2019-08-14T08:57:49Z</time>
      </trkpt>
      <trkpt lat="40.8015370" lon="-4.7325070">
        <ele>966.8</ele>
        <time>2019-08-14T08:57:50Z</time>
      </trkpt>
      <trkpt lat="40.8015750" lon="-4.7325260">
        <ele>966.8</ele>
        <time>2019-08-14T08:57:51Z</time>
      </trkpt>
      <trkpt lat="40.8016140" lon="-4.7325440">
        <ele>966.8</ele>
        <time>2019-08-14T08:57:52Z</time>
      </trkpt>
      <trkpt lat="40.8016540" lon="-4.7325630">
        <ele>966.7</ele>
        <time>2019-08-14T08:57:53Z</time>
      </trkpt>
      <trkpt lat="40.8016960" lon="-4.7325820">
        <ele>966.6</ele>
        <time>2019-08-14T08:57:54Z</time>
      </trkpt>
      <trkpt lat="40.8017380" lon="-4.7326010">
        <ele>966.5</ele>
        <time>2019-08-14T08:57:55Z</time>
      </trkpt>
      <trkpt lat="40.8017810" lon="-4.7326210">
        <ele>966.4</ele>
        <time>2019-08-14T08:57:56Z</time>
      </trkpt>
      <trkpt lat="40.8018250" lon="-4.7326430">
        <ele>966.3</ele>
        <time>2019-08-14T08:57:57Z</time>
      </trkpt>
      <trkpt lat="40.8018700" lon="-4.7326640">
        <ele>966.2</ele>
        <time>2019-08-14T08:57:58Z</time>
      </trkpt>
      <trkpt lat="40.8019150" lon="-4.7326850">
        <ele>966.1</ele>
        <time>2019-08-14T08:57:59Z</time>
      </trkpt>
      <trkpt lat="40.8019590" lon="-4.7327060">
        <ele>966.0</ele>
        <time>2019-08-14T08:58:00Z</time>
      </trkpt>
      <trkpt lat="40.8020050" lon="-4.7327260">
        <ele>965.9</ele>
        <time>2019-08-14T08:58:01Z</time>
      </trkpt>
      <trkpt lat="40.8020490" lon="-4.7327480">
        <ele>965.9</ele>
        <time>2019-08-14T08:58:02Z</time>
      </trkpt>
      <trkpt lat="40.8020950" lon="-4.7327700">
        <ele>965.8</ele>
        <time>2019-08-14T08:58:03Z</time>
      </trkpt>
      <trkpt lat="40.8021430" lon="-4.7327920">
        <ele>965.8</ele>
        <time>2019-08-14T08:58:04Z</time>
      </trkpt>
      <trkpt lat="40.8021920" lon="-4.7328150">
        <ele>965.7</ele>
        <time>2019-08-14T08:58:05Z</time>
      </trkpt>
      <trkpt lat="40.8022420" lon="-4.7328370">
        <ele>965.6</ele>
        <time>2019-08-14T08:58:06Z</time>
      </trkpt>
      <trkpt lat="40.8022910" lon="-4.7328590">
        <ele>965.5</ele>
        <time>2019-08-14T08:58:07Z</time>
      </trkpt>
      <trkpt lat="40.8023390" lon="-4.7328800">
        <ele>965.3</ele>
        <time>2019-08-14T08:58:08Z</time>
      </trkpt>
      <trkpt lat="40.8023890" lon="-4.7329030">
        <ele>965.1</ele>
        <time>2019-08-14T08:58:09Z</time>
      </trkpt>
      <trkpt lat="40.8024400" lon="-4.7329260">
        <ele>964.9</ele>
        <time>2019-08-14T08:58:10Z</time>
      </trkpt>
      <trkpt lat="40.8024910" lon="-4.7329510">
        <ele>964.7</ele>
        <time>2019-08-14T08:58:11Z</time>
      </trkpt>
      <trkpt lat="40.8025420" lon="-4.7329780">
        <ele>964.5</ele>
        <time>2019-08-14T08:58:12Z</time>
      </trkpt>
      <trkpt lat="40.8025940" lon="-4.7330060">
        <ele>964.3</ele>
        <time>2019-08-14T08:58:13Z</time>
      </trkpt>
      <trkpt lat="40.8026490" lon="-4.7330350">
        <ele>964.1</ele>
        <time>2019-08-14T08:58:14Z</time>
      </trkpt>
      <trkpt lat="40.8027060" lon="-4.7330620">
        <ele>964.1</ele>
        <time>2019-08-14T08:58:15Z</time>
      </trkpt>
      <trkpt lat="40.8027620" lon="-4.7330880">
        <ele>964.1</ele>
        <time>2019-08-14T08:58:16Z</time>
      </trkpt>
      <trkpt lat="40.8028180" lon="-4.7331120">
        <ele>964.1</ele>
        <time>2019-08-14T08:58:17Z</time>
      </trkpt>
      <trkpt lat="40.8028740" lon="-4.7331350">
        <ele>964.2</ele>
        <time>2019-08-14T08:58:18Z</time>
      </trkpt>
      <trkpt lat="40.8029290" lon="-4.7331590">
        <ele>964.3</ele>
        <time>2019-08-14T08:58:19Z</time>
      </trkpt>
      <trkpt lat="40.8029830" lon="-4.7331860">
        <ele>964.5</ele>
        <time>2019-08-14T08:58:20Z</time>
      </trkpt>
      <trkpt lat="40.8030350" lon="-4.7332120">
        <ele>964.7</ele>
        <time>2019-08-14T08:58:21Z</time>
      </trkpt>
      <trkpt lat="40.8030870" lon="-4.7332390">
        <ele>964.8</ele>
        <time>2019-08-14T08:58:22Z</time>
      </trkpt>
      <trkpt lat="40.8031390" lon="-4.7332650">
        <ele>965.0</ele>
        <time>2019-08-14T08:58:23Z</time>
      </trkpt>
      <trkpt lat="40.8031890" lon="-4.7332900">
        <ele>965.1</ele>
        <time>2019-08-14T08:58:24Z</time>
      </trkpt>
      <trkpt lat="40.8032390" lon="-4.7333150">
        <ele>965.1</ele>
        <time>2019-08-14T08:58:25Z</time>
      </trkpt>
      <trkpt lat="40.8032860" lon="-4.7333410">
        <ele>965.1</ele>
        <time>2019-08-14T08:58:26Z</time>
      </trkpt>
      <trkpt lat="40.8033310" lon="-4.7333660">
        <ele>965.1</ele>
        <time>2019-08-14T08:58:27Z</time>
      </trkpt>
      <trkpt lat="40.8033750" lon="-4.7333900">
        <ele>965.2</ele>
        <time>2019-08-14T08:58:28Z</time>
      </trkpt>
      <trkpt lat="40.8034200" lon="-4.7334110">
        <ele>965.2</ele>
        <time>2019-08-14T08:58:29Z</time>
      </trkpt>
      <trkpt lat="40.8034650" lon="-4.7334320">
        <ele>965.3</ele>
        <time>2019-08-14T08:58:30Z</time>
      </trkpt>
      <trkpt lat="40.8035090" lon="-4.7334550">
        <ele>965.4</ele>
        <time>2019-08-14T08:58:31Z</time>
      </trkpt>
      <trkpt lat="40.8035530" lon="-4.7334770">
        <ele>965.6</ele>
        <time>2019-08-14T08:58:32Z</time>
      </trkpt>
      <trkpt lat="40.8035970" lon="-4.7335000">
        <ele>965.7</ele>
        <time>2019-08-14T08:58:33Z</time>
      </trkpt>
      <trkpt lat="40.8036410" lon="-4.7335250">
        <ele>965.9</ele>
        <time>2019-08-14T08:58:34Z</time>
      </trkpt>
      <trkpt lat="40.8036870" lon="-4.7335470">
        <ele>966.0</ele>
        <time>2019-08-14T08:58:35Z</time>
      </trkpt>
      <trkpt lat="40.8037330" lon="-4.7335710">
        <ele>966.0</ele>
        <time>2019-08-14T08:58:36Z</time>
      </trkpt>
      <trkpt lat="40.8037790" lon="-4.7335950">
        <ele>966.1</ele>
        <time>2019-08-14T08:58:37Z</time>
      </trkpt>
      <trkpt lat="40.8038240" lon="-4.7336180">
        <ele>966.1</ele>
        <time>2019-08-14T08:58:38Z</time>
      </trkpt>
      <trkpt lat="40.8038700" lon="-4.7336420">
        <ele>966.1</ele>
        <time>2019-08-14T08:58:39Z</time>
      </trkpt>
      <trkpt lat="40.8039160" lon="-4.7336640">
        <ele>966.1</ele>
        <time>2019-08-14T08:58:40Z</time>
      </trkpt>
      <trkpt lat="40.8039620" lon="-4.7336860">
        <ele>966.1</ele>
        <time>2019-08-14T08:58:41Z</time>
      </trkpt>
      <trkpt lat="40.8040080" lon="-4.7337070">
        <ele>966.1</ele>
        <time>2019-08-14T08:58:42Z</time>
      </trkpt>
      <trkpt lat="40.8040550" lon="-4.7337280">
        <ele>966.1</ele>
        <time>2019-08-14T08:58:43Z</time>
      </trkpt>
      <trkpt lat="40.8041020" lon="-4.7337490">
        <ele>966.1</ele>
        <time>2019-08-14T08:58:44Z</time>
      </trkpt>
      <trkpt lat="40.8041480" lon="-4.7337730">
        <ele>966.1</ele>
        <time>2019-08-14T08:58:45Z</time>
      </trkpt>
      <trkpt lat="40.8041960" lon="-4.7337960">
        <ele>966.1</ele>
        <time>2019-08-14T08:58:46Z</time>
      </trkpt>
      <trkpt lat="40.8042450" lon="-4.7338200">
        <ele>966.2</ele>
        <time>2019-08-14T08:58:47Z</time>
      </trkpt>
      <trkpt lat="40.8042950" lon="-4.7338460">
        <ele>966.2</ele>
        <time>2019-08-14T08:58:48Z</time>
      </trkpt>
      <trkpt lat="40.8043440" lon="-4.7338690">
        <ele>966.2</ele>
        <time>2019-08-14T08:58:49Z</time>
      </trkpt>
      <trkpt lat="40.8043930" lon="-4.7338920">
        <ele>966.3</ele>
        <time>2019-08-14T08:58:50Z</time>
      </trkpt>
      <trkpt lat="40.8044420" lon="-4.7339140">
        <ele>966.4</ele>
        <time>2019-08-14T08:58:51Z</time>
      </trkpt>
      <trkpt lat="40.8044890" lon="-4.7339370">
        <ele>966.6</ele>
        <time>2019-08-14T08:58:52Z</time>
      </trkpt>
      <trkpt lat="40.8045360" lon="-4.7339600">
        <ele>966.7</ele>
        <time>2019-08-14T08:58:53Z</time>
      </trkpt>
      <trkpt lat="40.8045840" lon="-4.7339820">
        <ele>966.9</ele>
        <time>2019-08-14T08:58:54Z</time>
      </trkpt>
      <trkpt lat="40.8046320" lon="-4.7340030">
        <ele>967.1</ele>
        <time>2019-08-14T08:58:55Z</time>
      </trkpt>
      <trkpt lat="40.8046800" lon="-4.7340250">
        <ele>967.1</ele>
        <time>2019-08-14T08:58:56Z</time>
      </trkpt>
      <trkpt lat="40.8047270" lon="-4.7340460">
        <ele>967.2</ele>
        <time>2019-08-14T08:58:57Z</time>
      </trkpt>
      <trkpt lat="40.8047740" lon="-4.7340660">
        <ele>967.2</ele>
        <time>2019-08-14T08:58:58Z</time>
      </trkpt>
      <trkpt lat="40.8048200" lon="-4.7340870">
        <ele>967.1</ele>
        <time>2019-08-14T08:58:59Z</time>
      </trkpt>
      <trkpt lat="40.8048660" lon="-4.7341080">
        <ele>967.1</ele>
        <time>2019-08-14T08:59:00Z</time>
      </trkpt>
      <trkpt lat="40.8049130" lon="-4.7341300">
        <ele>967.0</ele>
        <time>2019-08-14T08:59:01Z</time>
      </trkpt>
      <trkpt lat="40.8049600" lon="-4.7341490">
        <ele>966.8</ele>
        <time>2019-08-14T08:59:02Z</time>
      </trkpt>
      <trkpt lat="40.8050080" lon="-4.7341700">
        <ele>966.6</ele>
        <time>2019-08-14T08:59:03Z</time>
      </trkpt>
      <trkpt lat="40.8050550" lon="-4.7341910">
        <ele>966.5</ele>
        <time>2019-08-14T08:59:04Z</time>
      </trkpt>
      <trkpt lat="40.8051030" lon="-4.7342120">
        <ele>966.4</ele>
        <time>2019-08-14T08:59:05Z</time>
      </trkpt>
      <trkpt lat="40.8051520" lon="-4.7342320">
        <ele>966.3</ele>
        <time>2019-08-14T08:59:06Z</time>
      </trkpt>
      <trkpt lat="40.8052000" lon="-4.7342490">
        <ele>966.3</ele>
        <time>2019-08-14T08:59:07Z</time>
      </trkpt>
      <trkpt lat="40.8052500" lon="-4.7342640">
        <ele>966.3</ele>
        <time>2019-08-14T08:59:08Z</time>
      </trkpt>
      <trkpt lat="40.8053010" lon="-4.7342780">
        <ele>966.3</ele>
        <time>2019-08-14T08:59:09Z</time>
      </trkpt>
      <trkpt lat="40.8053530" lon="-4.7342920">
        <ele>966.3</ele>
        <time>2019-08-14T08:59:10Z</time>
      </trkpt>
      <trkpt lat="40.8054070" lon="-4.7343060">
        <ele>966.3</ele>
        <time>2019-08-14T08:59:11Z</time>
      </trkpt>
      <trkpt lat="40.8054600" lon="-4.7343190">
        <ele>966.3</ele>
        <time>2019-08-14T08:59:12Z</time>
      </trkpt>
      <trkpt lat="40.8055130" lon="-4.7343290">
        <ele>966.3</ele>
        <time>2019-08-14T08:59:13Z</time>
      </trkpt>
      <trkpt lat="40.8055660" lon="-4.7343370">
        <ele>966.3</ele>
        <time>2019-08-14T08:59:14Z</time>
      </trkpt>
      <trkpt lat="40.8056180" lon="-4.7343460">
        <ele>966.3</ele>
        <time>2019-08-14T08:59:15Z</time>
      </trkpt>
      <trkpt lat="40.8056730" lon="-4.7343540">
        <ele>966.4</ele>
        <time>2019-08-14T08:59:16Z</time>
      </trkpt>
      <trkpt lat="40.8057280" lon="-4.7343640">
        <ele>966.4</ele>
        <time>2019-08-14T08:59:17Z</time>
      </trkpt>
      <trkpt lat="40.8057830" lon="-4.7343740">
        <ele>966.5</ele>
        <time>2019-08-14T08:59:18Z</time>
      </trkpt>
      <trkpt lat="40.8058400" lon="-4.7343850">
        <ele>966.6</ele>
        <time>2019-08-14T08:59:19Z</time>
      </trkpt>
      <trkpt lat="40.8058940" lon="-4.7343950">
        <ele>966.7</ele>
        <time>2019-08-14T08:59:20Z</time>
      </trkpt>
      <trkpt lat="40.8059480" lon="-4.7344040">
        <ele>966.8</ele>
        <time>2019-08-14T08:59:21Z</time>
      </trkpt>
      <trkpt lat="40.8060000" lon="-4.7344130">
        <ele>967.0</ele>
        <time>2019-08-14T08:59:22Z</time>
      </trkpt>
      <trkpt lat="40.8060510" lon="-4.7344210">
        <ele>967.1</ele>
        <time>2019-08-14T08:59:23Z</time>
      </trkpt>
      <trkpt lat="40.8060990" lon="-4.7344300">
        <ele>967.2</ele>
        <time>2019-08-14T08:59:24Z</time>
      </trkpt>
      <trkpt lat="40.8061480" lon="-4.7344420">
        <ele>967.3</ele>
        <time>2019-08-14T08:59:25Z</time>
      </trkpt>
      <trkpt lat="40.8061970" lon="-4.7344550">
        <ele>967.4</ele>
        <time>2019-08-14T08:59:26Z</time>
      </trkpt>
      <trkpt lat="40.8062450" lon="-4.7344680">
        <ele>967.5</ele>
        <time>2019-08-14T08:59:27Z</time>
      </trkpt>
      <trkpt lat="40.8062940" lon="-4.7344790">
        <ele>967.5</ele>
        <time>2019-08-14T08:59:28Z</time>
      </trkpt>
      <trkpt lat="40.8063420" lon="-4.7344900">
        <ele>967.5</ele>
        <time>2019-08-14T08:59:29Z</time>
      </trkpt>
      <trkpt lat="40.8063900" lon="-4.7345010">
        <ele>967.5</ele>
        <time>2019-08-14T08:59:30Z</time>
      </trkpt>
      <trkpt lat="40.8064360" lon="-4.7345130">
        <ele>967.5</ele>
        <time>2019-08-14T08:59:31Z</time>
      </trkpt>
      <trkpt lat="40.8064830" lon="-4.7345220">
        <ele>967.5</ele>
        <time>2019-08-14T08:59:32Z</time>
      </trkpt>
      <trkpt lat="40.8065300" lon="-4.7345320">
        <ele>967.4</ele>
        <time>2019-08-14T08:59:33Z</time>
      </trkpt>
      <trkpt lat="40.8065770" lon="-4.7345430">
        <ele>967.4</ele>
        <time>2019-08-14T08:59:34Z</time>
      </trkpt>
      <trkpt lat="40.8066240" lon="-4.7345540">
        <ele>967.3</ele>
        <time>2019-08-14T08:59:35Z</time>
      </trkpt>
      <trkpt lat="40.8066720" lon="-4.7345650">
        <ele>967.2</ele>
        <time>2019-08-14T08:59:36Z</time>
      </trkpt>
      <trkpt lat="40.8067210" lon="-4.7345740">
        <ele>967.0</ele>
        <time>2019-08-14T08:59:37Z</time>
      </trkpt>
      <trkpt lat="40.8067710" lon="-4.7345820">
        <ele>966.8</ele>
        <time>2019-08-14T08:59:38Z</time>
      </trkpt>
      <trkpt lat="40.8068210" lon="-4.7345910">
        <ele>966.6</ele>
        <time>2019-08-14T08:59:39Z</time>
      </trkpt>
      <trkpt lat="40.8068740" lon="-4.7346000">
        <ele>966.4</ele>
        <time>2019-08-14T08:59:40Z</time>
      </trkpt>
      <trkpt lat="40.8069270" lon="-4.7346100">
        <ele>966.1</ele>
        <time>2019-08-14T08:59:41Z</time>
      </trkpt>
      <trkpt lat="40.8069810" lon="-4.7346190">
        <ele>965.9</ele>
        <time>2019-08-14T08:59:42Z</time>
      </trkpt>
      <trkpt lat="40.8070360" lon="-4.7346300">
        <ele>965.8</ele>
        <time>2019-08-14T08:59:43Z</time>
      </trkpt>
      <trkpt lat="40.8070930" lon="-4.7346430">
        <ele>965.7</ele>
        <time>2019-08-14T08:59:44Z</time>
      </trkpt>
      <trkpt lat="40.8071500" lon="-4.7346530">
        <ele>965.7</ele>
        <time>2019-08-14T08:59:45Z</time>
      </trkpt>
      <trkpt lat="40.8072080" lon="-4.7346620">
        <ele>965.6</ele>
        <time>2019-08-14T08:59:46Z</time>
      </trkpt>
      <trkpt lat="40.8072660" lon="-4.7346720">
        <ele>965.6</ele>
        <time>2019-08-14T08:59:47Z</time>
      </trkpt>
      <trkpt lat="40.8073260" lon="-4.7346830">
        <ele>965.6</ele>
        <time>2019-08-14T08:59:48Z</time>
      </trkpt>
      <trkpt lat="40.8073840" lon="-4.7346960">
        <ele>965.6</ele>
        <time>2019-08-14T08:59:49Z</time>
      </trkpt>
      <trkpt lat="40.8074430" lon="-4.7347080">
        <ele>965.7</ele>
        <time>2019-08-14T08:59:50Z</time>
      </trkpt>
      <trkpt lat="40.8075000" lon="-4.7347210">
        <ele>965.7</ele>
        <time>2019-08-14T08:59:51Z</time>
      </trkpt>
      <trkpt lat="40.8075570" lon="-4.7347340">
        <ele>965.7</ele>
        <time>2019-08-14T08:59:52Z</time>
      </trkpt>
      <trkpt lat="40.8076150" lon="-4.7347460">
        <ele>965.7</ele>
        <time>2019-08-14T08:59:53Z</time>
      </trkpt>
      <trkpt lat="40.8076720" lon="-4.7347560">
        <ele>965.7</ele>
        <time>2019-08-14T08:59:54Z</time>
      </trkpt>
      <trkpt lat="40.8077290" lon="-4.7347680">
        <ele>965.7</ele>
        <time>2019-08-14T08:59:55Z</time>
      </trkpt>
      <trkpt lat="40.8077840" lon="-4.7347790">
        <ele>965.7</ele>
        <time>2019-08-14T08:59:56Z</time>
      </trkpt>
      <trkpt lat="40.8078360" lon="-4.7347930">
        <ele>965.7</ele>
        <time>2019-08-14T08:59:57Z</time>
      </trkpt>
      <trkpt lat="40.8078890" lon="-4.7348040">
        <ele>965.6</ele>
        <time>2019-08-14T08:59:58Z</time>
      </trkpt>
      <trkpt lat="40.8079420" lon="-4.7348140">
        <ele>965.6</ele>
        <time>2019-08-14T08:59:59Z</time>
      </trkpt>
      <trkpt lat="40.8079930" lon="-4.7348250">
        <ele>965.5</ele>
        <time>2019-08-14T09:00:00Z</time>
      </trkpt>
      <trkpt lat="40.8080460" lon="-4.7348340">
        <ele>965.4</ele>
        <time>2019-08-14T09:00:01Z</time>
      </trkpt>
      <trkpt lat="40.8080990" lon="-4.7348440">
        <ele>965.3</ele>
        <time>2019-08-14T09:00:02Z</time>
      </trkpt>
      <trkpt lat="40.8081540" lon="-4.7348520">
        <ele>965.1</ele>
        <time>2019-08-14T09:00:03Z</time>
      </trkpt>
      <trkpt lat="40.8082080" lon="-4.7348620">
        <ele>965.0</ele>
        <time>2019-08-14T09:00:04Z</time>
      </trkpt>
      <trkpt lat="40.8082640" lon="-4.7348730">
        <ele>964.9</ele>
        <time>2019-08-14T09:00:05Z</time>
      </trkpt>
      <trkpt lat="40.8083200" lon="-4.7348870">
        <ele>964.8</ele>
        <time>2019-08-14T09:00:06Z</time>
      </trkpt>
      <trkpt lat="40.8083770" lon="-4.7349000">
        <ele>964.8</ele>
        <time>2019-08-14T09:00:07Z</time>
      </trkpt>
      <trkpt lat="40.8084330" lon="-4.7349100">
        <ele>964.8</ele>
        <time>2019-08-14T09:00:08Z</time>
      </trkpt>
      <trkpt lat="40.8084870" lon="-4.7349220">
        <ele>964.8</ele>
        <time>2019-08-14T09:00:09Z</time>
      </trkpt>
      <trkpt lat="40.8085430" lon="-4.7349340">
        <ele>964.8</ele>
        <time>2019-08-14T09:00:10Z</time>
      </trkpt>
      <trkpt lat="40.8085990" lon="-4.7349430">
        <ele>964.8</ele>
        <time>2019-08-14T09:00:11Z</time>
      </trkpt>
      <trkpt lat="40.8086570" lon="-4.7349530">
        <ele>964.8</ele>
        <time>2019-08-14T09:00:12Z</time>
      </trkpt>
      <trkpt lat="40.8087160" lon="-4.7349650">
        <ele>964.8</ele>
        <time>2019-08-14T09:00:13Z</time>
      </trkpt>
      <trkpt lat="40.8087760" lon="-4.7349770">
        <ele>964.8</ele>
        <time>2019-08-14T09:00:14Z</time>
      </trkpt>
      <trkpt lat="40.8088360" lon="-4.7349870">
        <ele>964.7</ele>
        <time>2019-08-14T09:00:15Z</time>
      </trkpt>
      <trkpt lat="40.8088950" lon="-4.7349980">
        <ele>964.7</ele>
        <time>2019-08-14T09:00:16Z</time>
      </trkpt>
      <trkpt lat="40.8089540" lon="-4.7350090">
        <ele>964.6</ele>
        <time>2019-08-14T09:00:17Z</time>
      </trkpt>
      <trkpt lat="40.8090120" lon="-4.7350200">
        <ele>964.5</ele>
        <time>2019-08-14T09:00:18Z</time>
      </trkpt>
      <trkpt lat="40.8090720" lon="-4.7350320">
        <ele>964.3</ele>
        <time>2019-08-14T09:00:19Z</time>
      </trkpt>
      <trkpt lat="40.8091330" lon="-4.7350430">
        <ele>964.2</ele>
        <time>2019-08-14T09:00:20Z</time>
      </trkpt>
      <trkpt lat="40.8091950" lon="-4.7350550">
        <ele>964.0</ele>
        <time>2019-08-14T09:00:21Z</time>
      </trkpt>
      <trkpt lat="40.8092570" lon="-4.7350690">
        <ele>963.9</ele>
        <time>2019-08-14T09:00:22Z</time>
      </trkpt>
      <trkpt lat="40.8093200" lon="-4.7350840">
        <ele>963.8</ele>
        <time>2019-08-14T09:00:23Z</time>
      </trkpt>
      <trkpt lat="40.8093830" lon="-4.7350960">
        <ele>963.6</ele>
        <time>2019-08-14T09:00:24Z</time>
      </trkpt>
      <trkpt lat="40.8094470" lon="-4.7351080">
        <ele>963.4</ele>
        <time>2019-08-14T09:00:25Z</time>
      </trkpt>
      <trkpt lat="40.8095110" lon="-4.7351230">
        <ele>963.1</ele>
        <time>2019-08-14T09:00:26Z</time>
      </trkpt>
      <trkpt lat="40.8095760" lon="-4.7351390">
        <ele>962.9</ele>
        <time>2019-08-14T09:00:27Z</time>
      </trkpt>
      <trkpt lat="40.8096400" lon="-4.7351550">
        <ele>962.6</ele>
        <time>2019-08-14T09:00:28Z</time>
      </trkpt>
      <trkpt lat="40.8097020" lon="-4.7351690">
        <ele>962.4</ele>
        <time>2019-08-14T09:00:29Z</time>
      </trkpt>
      <trkpt lat="40.8097640" lon="-4.7351800">
        <ele>962.2</ele>
        <time>2019-08-14T09:00:30Z</time>
      </trkpt>
      <trkpt lat="40.8098250" lon="-4.7351900">
        <ele>962.1</ele>
        <time>2019-08-14T09:00:31Z</time>
      </trkpt>
      <trkpt lat="40.8098860" lon="-4.7352020">
        <ele>962.0</ele>
        <time>2019-08-14T09:00:32Z</time>
      </trkpt>
      <trkpt lat="40.8099460" lon="-4.7352160">
        <ele>961.8</ele>
        <time>2019-08-14T09:00:33Z</time>
      </trkpt>
      <trkpt lat="40.8100050" lon="-4.7352300">
        <ele>961.6</ele>
        <time>2019-08-14T09:00:34Z</time>
      </trkpt>
      <trkpt lat="40.8100650" lon="-4.7352420">
        <ele>961.4</ele>
        <time>2019-08-14T09:00:35Z</time>
      </trkpt>
      <trkpt lat="40.8101270" lon="-4.7352550">
        <ele>961.2</ele>
        <time>2019-08-14T09:00:36Z</time>
      </trkpt>
      <trkpt lat="40.8101880" lon="-4.7352680">
        <ele>960.9</ele>
        <time>2019-08-14T09:00:37Z</time>
      </trkpt>
      <trkpt lat="40.8102500" lon="-4.7352820">
        <ele>960.7</ele>
        <time>2019-08-14T09:00:38Z</time>
      </trkpt>
      <trkpt lat="40.8103110" lon="-4.7352940">
        <ele>960.5</ele>
        <time>2019-08-14T09:00:39Z</time>
      </trkpt>
      <trkpt lat="40.8103720" lon="-4.7353050">
        <ele>960.3</ele>
        <time>2019-08-14T09:00:40Z</time>
      </trkpt>
      <trkpt lat="40.8104310" lon="-4.7353170">
        <ele>960.1</ele>
        <time>2019-08-14T09:00:41Z</time>
      </trkpt>
      <trkpt lat="40.8104890" lon="-4.7353300">
        <ele>959.9</ele>
        <time>2019-08-14T09:00:42Z</time>
      </trkpt>
      <trkpt lat="40.8105470" lon="-4.7353420">
        <ele>959.7</ele>
        <time>2019-08-14T09:00:43Z</time>
      </trkpt>
      <trkpt lat="40.8106070" lon="-4.7353520">
        <ele>959.5</ele>
        <time>2019-08-14T09:00:44Z</time>
      </trkpt>
      <trkpt lat="40.8106680" lon="-4.7353620">
        <ele>959.2</ele>
        <time>2019-08-14T09:00:45Z</time>
      </trkpt>
      <trkpt lat="40.8107310" lon="-4.7353730">
        <ele>958.9</ele>
        <time>2019-08-14T09:00:46Z</time>
      </trkpt>
      <trkpt lat="40.8107960" lon="-4.7353830">
        <ele>958.6</ele>
        <time>2019-08-14T09:00:47Z</time>
      </trkpt>
      <trkpt lat="40.8108600" lon="-4.7353930">
        <ele>958.3</ele>
        <time>2019-08-14T09:00:48Z</time>
      </trkpt>
      <trkpt lat="40.8109250" lon="-4.7354050">
        <ele>958.0</ele>
        <time>2019-08-14T09:00:49Z</time>
      </trkpt>
      <trkpt lat="40.8109910" lon="-4.7354180">
        <ele>957.7</ele>
        <time>2019-08-14T09:00:50Z</time>
      </trkpt>
      <trkpt lat="40.8110570" lon="-4.7354320">
        <ele>957.3</ele>
        <time>2019-08-14T09:00:51Z</time>
      </trkpt>
      <trkpt lat="40.8111240" lon="-4.7354460">
        <ele>956.9</ele>
        <time>2019-08-14T09:00:52Z</time>
      </trkpt>
      <trkpt lat="40.8111900" lon="-4.7354580">
        <ele>956.5</ele>
        <time>2019-08-14T09:00:53Z</time>
      </trkpt>
      <trkpt lat="40.8112580" lon="-4.7354680">
        <ele>956.3</ele>
        <time>2019-08-14T09:00:54Z</time>
      </trkpt>
      <trkpt lat="40.8113260" lon="-4.7354790">
        <ele>956.1</ele>
        <time>2019-08-14T09:00:55Z</time>
      </trkpt>
      <trkpt lat="40.8113930" lon="-4.7354920">
        <ele>956.0</ele>
        <time>2019-08-14T09:00:56Z</time>
      </trkpt>
      <trkpt lat="40.8114620" lon="-4.7355050">
        <ele>955.8</ele>
        <time>2019-08-14T09:00:57Z</time>
      </trkpt>
      <trkpt lat="40.8115330" lon="-4.7355190">
        <ele>955.6</ele>
        <time>2019-08-14T09:00:58Z</time>
      </trkpt>
      <trkpt lat="40.8116040" lon="-4.7355340">
        <ele>955.4</ele>
        <time>2019-08-14T09:00:59Z</time>
      </trkpt>
      <trkpt lat="40.8116770" lon="-4.7355480">
        <ele>955.1</ele>
        <time>2019-08-14T09:01:00Z</time>
      </trkpt>
      <trkpt lat="40.8117520" lon="-4.7355620">
        <ele>954.8</ele>
        <time>2019-08-14T09:01:01Z</time>
      </trkpt>
      <trkpt lat="40.8118260" lon="-4.7355780">
        <ele>954.5</ele>
        <time>2019-08-14T09:01:02Z</time>
      </trkpt>
      <trkpt lat="40.8119020" lon="-4.7355950">
        <ele>954.2</ele>
        <time>2019-08-14T09:01:03Z</time>
      </trkpt>
      <trkpt lat="40.8119790" lon="-4.7356110">
        <ele>953.8</ele>
        <time>2019-08-14T09:01:04Z</time>
      </trkpt>
      <trkpt lat="40.8120550" lon="-4.7356260">
        <ele>953.5</ele>
        <time>2019-08-14T09:01:05Z</time>
      </trkpt>
      <trkpt lat="40.8121310" lon="-4.7356440">
        <ele>953.2</ele>
        <time>2019-08-14T09:01:06Z</time>
      </trkpt>
      <trkpt lat="40.8122070" lon="-4.7356620">
        <ele>952.8</ele>
        <time>2019-08-14T09:01:07Z</time>
      </trkpt>
      <trkpt lat="40.8122830" lon="-4.7356780">
        <ele>952.5</ele>
        <time>2019-08-14T09:01:08Z</time>
      </trkpt>
      <trkpt lat="40.8123580" lon="-4.7356920">
        <ele>952.1</ele>
        <time>2019-08-14T09:01:09Z</time>
      </trkpt>
      <trkpt lat="40.8124330" lon="-4.7357050">
        <ele>951.7</ele>
        <time>2019-08-14T09:01:10Z</time>
      </trkpt>
      <trkpt lat="40.8125080" lon="-4.7357210">
        <ele>951.3</ele>
        <time>2019-08-14T09:01:11Z</time>
      </trkpt>
      <trkpt lat="40.8125840" lon="-4.7357380">
        <ele>950.9</ele>
        <time>2019-08-14T09:01:12Z</time>
      </trkpt>
      <trkpt lat="40.8126600" lon="-4.7357520">
        <ele>950.5</ele>
        <time>2019-08-14T09:01:13Z</time>
      </trkpt>
      <trkpt lat="40.8127360" lon="-4.7357670">
        <ele>950.1</ele>
        <time>2019-08-14T09:01:14Z</time>
      </trkpt>
      <trkpt lat="40.8128100" lon="-4.7357820">
        <ele>949.7</ele>
        <time>2019-08-14T09:01:15Z</time>
      </trkpt>
      <trkpt lat="40.8128830" lon="-4.7357950">
        <ele>949.3</ele>
        <time>2019-08-14T09:01:16Z</time>
      </trkpt>
      <trkpt lat="40.8129550" lon="-4.7358090">
        <ele>949.0</ele>
        <time>2019-08-14T09:01:17Z</time>
      </trkpt>
      <trkpt lat="40.8130270" lon="-4.7358230">
        <ele>948.7</ele>
        <time>2019-08-14T09:01:18Z</time>
      </trkpt>
      <trkpt lat="40.8130990" lon="-4.7358370">
        <ele>948.3</ele>
        <time>2019-08-14T09:01:19Z</time>
      </trkpt>
      <trkpt lat="40.8131710" lon="-4.7358510">
        <ele>948.0</ele>
        <time>2019-08-14T09:01:20Z</time>
      </trkpt>
      <trkpt lat="40.8132420" lon="-4.7358630">
        <ele>947.8</ele>
        <time>2019-08-14T09:01:21Z</time>
      </trkpt>
      <trkpt lat="40.8133130" lon="-4.7358780">
        <ele>947.5</ele>
        <time>2019-08-14T09:01:22Z</time>
      </trkpt>
      <trkpt lat="40.8133850" lon="-4.7358940">
        <ele>947.2</ele>
        <time>2019-08-14T09:01:23Z</time>
      </trkpt>
      <trkpt lat="40.8134580" lon="-4.7359090">
        <ele>946.9</ele>
        <time>2019-08-14T09:01:24Z</time>
      </trkpt>
      <trkpt lat="40.8135290" lon="-4.7359220">
        <ele>946.6</ele>
        <time>2019-08-14T09:01:25Z</time>
      </trkpt>
      <trkpt lat="40.8136000" lon="-4.7359340">
        <ele>946.3</ele>
        <time>2019-08-14T09:01:26Z</time>
      </trkpt>
      <trkpt lat="40.8136700" lon="-4.7359460">
        <ele>946.0</ele>
        <time>2019-08-14T09:01:27Z</time>
      </trkpt>
      <trkpt lat="40.8137390" lon="-4.7359560">
        <ele>945.8</ele>
        <time>2019-08-14T09:01:28Z</time>
      </trkpt>
      <trkpt lat="40.8138050" lon="-4.7359690">
        <ele>945.6</ele>
        <time>2019-08-14T09:01:29Z</time>
      </trkpt>
      <trkpt lat="40.8138730" lon="-4.7359820">
        <ele>945.4</ele>
        <time>2019-08-14T09:01:30Z</time>
      </trkpt>
      <trkpt lat="40.8139380" lon="-4.7359980">
        <ele>945.3</ele>
        <time>2019-08-14T09:01:31Z</time>
      </trkpt>
      <trkpt lat="40.8140040" lon="-4.7360130">
        <ele>945.2</ele>
        <time>2019-08-14T09:01:32Z</time>
      </trkpt>
      <trkpt lat="40.8140680" lon="-4.7360300">
        <ele>945.1</ele>
        <time>2019-08-14T09:01:33Z</time>
      </trkpt>
      <trkpt lat="40.8141310" lon="-4.7360480">
        <ele>945.0</ele>
        <time>2019-08-14T09:01:34Z</time>
      </trkpt>
      <trkpt lat="40.8141950" lon="-4.7360640">
        <ele>944.9</ele>
        <time>2019-08-14T09:01:35Z</time>
      </trkpt>
      <trkpt lat="40.8142570" lon="-4.7360830">
        <ele>944.9</ele>
        <time>2019-08-14T09:01:36Z</time>
      </trkpt>
      <trkpt lat="40.8143210" lon="-4.7361020">
        <ele>944.9</ele>
        <time>2019-08-14T09:01:37Z</time>
      </trkpt>
      <trkpt lat="40.8143850" lon="-4.7361170">
        <ele>944.8</ele>
        <time>2019-08-14T09:01:38Z</time>
      </trkpt>
      <trkpt lat="40.8144500" lon="-4.7361290">
        <ele>944.8</ele>
        <time>2019-08-14T09:01:39Z</time>
      </trkpt>
      <trkpt lat="40.8145160" lon="-4.7361420">
        <ele>944.7</ele>
        <time>2019-08-14T09:01:40Z</time>
      </trkpt>
      <trkpt lat="40.8145800" lon="-4.7361550">
        <ele>944.7</ele>
        <time>2019-08-14T09:01:41Z</time>
      </trkpt>
      <trkpt lat="40.8146460" lon="-4.7361680">
        <ele>944.6</ele>
        <time>2019-08-14T09:01:42Z</time>
      </trkpt>
      <trkpt lat="40.8147130" lon="-4.7361820">
        <ele>944.6</ele>
        <time>2019-08-14T09:01:43Z</time>
      </trkpt>
      <trkpt lat="40.8147790" lon="-4.7361960">
        <ele>944.6</ele>
        <time>2019-08-14T09:01:44Z</time>
      </trkpt>
      <trkpt lat="40.8148470" lon="-4.7362100">
        <ele>944.5</ele>
        <time>2019-08-14T09:01:45Z</time>
      </trkpt>
      <trkpt lat="40.8149150" lon="-4.7362240">
        <ele>944.5</ele>
        <time>2019-08-14T09:01:46Z</time>
      </trkpt>
      <trkpt lat="40.8149820" lon="-4.7362370">
        <ele>944.4</ele>
        <time>2019-08-14T09:01:47Z</time>
      </trkpt>
      <trkpt lat="40.8150470" lon="-4.7362490">
        <ele>944.4</ele>
        <time>2019-08-14T09:01:48Z</time>
      </trkpt>
      <trkpt lat="40.8151130" lon="-4.7362620">
        <ele>944.3</ele>
        <time>2019-08-14T09:01:49Z</time>
      </trkpt>
      <trkpt lat="40.8151800" lon="-4.7362740">
        <ele>944.3</ele>
        <time>2019-08-14T09:01:50Z</time>
      </trkpt>
      <trkpt lat="40.8152480" lon="-4.7362870">
        <ele>944.2</ele>
        <time>2019-08-14T09:01:51Z</time>
      </trkpt>
      <trkpt lat="40.8153160" lon="-4.7362990">
        <ele>944.1</ele>
        <time>2019-08-14T09:01:52Z</time>
      </trkpt>
      <trkpt lat="40.8153840" lon="-4.7363130">
        <ele>944.0</ele>
        <time>2019-08-14T09:01:53Z</time>
      </trkpt>
      <trkpt lat="40.8154500" lon="-4.7363280">
        <ele>943.9</ele>
        <time>2019-08-14T09:01:54Z</time>
      </trkpt>
      <trkpt lat="40.8155160" lon="-4.7363410">
        <ele>943.9</ele>
        <time>2019-08-14T09:01:55Z</time>
      </trkpt>
      <trkpt lat="40.8155820" lon="-4.7363560">
        <ele>943.8</ele>
        <time>2019-08-14T09:01:56Z</time>
      </trkpt>
      <trkpt lat="40.8156490" lon="-4.7363680">
        <ele>943.7</ele>
        <time>2019-08-14T09:01:57Z</time>
      </trkpt>
      <trkpt lat="40.8157140" lon="-4.7363820">
        <ele>943.6</ele>
        <time>2019-08-14T09:01:58Z</time>
      </trkpt>
      <trkpt lat="40.8157790" lon="-4.7363960">
        <ele>943.5</ele>
        <time>2019-08-14T09:01:59Z</time>
      </trkpt>
      <trkpt lat="40.8158460" lon="-4.7364080">
        <ele>943.4</ele>
        <time>2019-08-14T09:02:00Z</time>
      </trkpt>
      <trkpt lat="40.8159130" lon="-4.7364200">
        <ele>943.3</ele>
        <time>2019-08-14T09:02:01Z</time>
      </trkpt>
      <trkpt lat="40.8159810" lon="-4.7364330">
        <ele>943.1</ele>
        <time>2019-08-14T09:02:02Z</time>
      </trkpt>
      <trkpt lat="40.8160510" lon="-4.7364470">
        <ele>943.0</ele>
        <time>2019-08-14T09:02:03Z</time>
      </trkpt>
      <trkpt lat="40.8161220" lon="-4.7364610">
        <ele>942.9</ele>
        <time>2019-08-14T09:02:04Z</time>
      </trkpt>
      <trkpt lat="40.8161950" lon="-4.7364740">
        <ele>942.8</ele>
        <time>2019-08-14T09:02:05Z</time>
      </trkpt>
      <trkpt lat="40.8162690" lon="-4.7364880">
        <ele>942.6</ele>
        <time>2019-08-14T09:02:06Z</time>
      </trkpt>
      <trkpt lat="40.8163420" lon="-4.7365020">
        <ele>942.5</ele>
        <time>2019-08-14T09:02:07Z</time>
      </trkpt>
      <trkpt lat="40.8164140" lon="-4.7365170">
        <ele>942.4</ele>
        <time>2019-08-14T09:02:08Z</time>
      </trkpt>
      <trkpt lat="40.8164850" lon="-4.7365310">
        <ele>942.3</ele>
        <time>2019-08-14T09:02:09Z</time>
      </trkpt>
      <trkpt lat="40.8165570" lon="-4.7365440">
        <ele>942.2</ele>
        <time>2019-08-14T09:02:10Z</time>
      </trkpt>
      <trkpt lat="40.8166270" lon="-4.7365590">
        <ele>942.0</ele>
        <time>2019-08-14T09:02:11Z</time>
      </trkpt>
      <trkpt lat="40.8166970" lon="-4.7365740">
        <ele>941.9</ele>
        <time>2019-08-14T09:02:12Z</time>
      </trkpt>
      <trkpt lat="40.8167670" lon="-4.7365880">
        <ele>941.8</ele>
        <time>2019-08-14T09:02:13Z</time>
      </trkpt>
      <trkpt lat="40.8168370" lon="-4.7366010">
        <ele>941.6</ele>
        <time>2019-08-14T09:02:14Z</time>
      </trkpt>
      <trkpt lat="40.8169060" lon="-4.7366160">
        <ele>941.4</ele>
        <time>2019-08-14T09:02:15Z</time>
      </trkpt>
      <trkpt lat="40.8169750" lon="-4.7366330">
        <ele>941.2</ele>
        <time>2019-08-14T09:02:16Z</time>
      </trkpt>
      <trkpt lat="40.8170410" lon="-4.7366500">
        <ele>941.0</ele>
        <time>2019-08-14T09:02:17Z</time>
      </trkpt>
      <trkpt lat="40.8171070" lon="-4.7366650">
        <ele>940.7</ele>
        <time>2019-08-14T09:02:18Z</time>
      </trkpt>
      <trkpt lat="40.8171720" lon="-4.7366770">
        <ele>940.7</ele>
        <time>2019-08-14T09:02:19Z</time>
      </trkpt>
      <trkpt lat="40.8172360" lon="-4.7366910">
        <ele>940.7</ele>
        <time>2019-08-14T09:02:20Z</time>
      </trkpt>
      <trkpt lat="40.8173000" lon="-4.7367030">
        <ele>940.7</ele>
        <time>2019-08-14T09:02:21Z</time>
      </trkpt>
      <trkpt lat="40.8173650" lon="-4.7367160">
        <ele>940.7</ele>
        <time>2019-08-14T09:02:22Z</time>
      </trkpt>
      <trkpt lat="40.8174290" lon="-4.7367290">
        <ele>940.6</ele>
        <time>2019-08-14T09:02:23Z</time>
      </trkpt>
      <trkpt lat="40.8174920" lon="-4.7367410">
        <ele>940.5</ele>
        <time>2019-08-14T09:02:24Z</time>
      </trkpt>
      <trkpt lat="40.8175550" lon="-4.7367530">
        <ele>940.3</ele>
        <time>2019-08-14T09:02:25Z</time>
      </trkpt>
      <trkpt lat="40.8176180" lon="-4.7367640">
        <ele>940.2</ele>
        <time>2019-08-14T09:02:26Z</time>
      </trkpt>
      <trkpt lat="40.8176810" lon="-4.7367750">
        <ele>940.0</ele>
        <time>2019-08-14T09:02:27Z</time>
      </trkpt>
      <trkpt lat="40.8177410" lon="-4.7367870">
        <ele>939.9</ele>
        <time>2019-08-14T09:02:28Z</time>
      </trkpt>
      <trkpt lat="40.8178010" lon="-4.7367980">
        <ele>939.8</ele>
        <time>2019-08-14T09:02:29Z</time>
      </trkpt>
      <trkpt lat="40.8178630" lon="-4.7368080">
        <ele>939.7</ele>
        <time>2019-08-14T09:02:30Z</time>
      </trkpt>
      <trkpt lat="40.8179250" lon="-4.7368220">
        <ele>939.5</ele>
        <time>2019-08-14T09:02:31Z</time>
      </trkpt>
      <trkpt lat="40.8179890" lon="-4.7368380">
        <ele>939.4</ele>
        <time>2019-08-14T09:02:32Z</time>
      </trkpt>
      <trkpt lat="40.8180530" lon="-4.7368540">
        <ele>939.3</ele>
        <time>2019-08-14T09:02:33Z</time>
      </trkpt>
      <trkpt lat="40.8181170" lon="-4.7368720">
        <ele>939.2</ele>
        <time>2019-08-14T09:02:34Z</time>
      </trkpt>
      <trkpt lat="40.8181810" lon="-4.7368860">
        <ele>939.1</ele>
        <time>2019-08-14T09:02:35Z</time>
      </trkpt>
      <trkpt lat="40.8182460" lon="-4.7369000">
        <ele>939.0</ele>
        <time>2019-08-14T09:02:36Z</time>
      </trkpt>
      <trkpt lat="40.8183100" lon="-4.7369130">
        <ele>939.0</ele>
        <time>2019-08-14T09:02:37Z</time>
      </trkpt>
      <trkpt lat="40.8183750" lon="-4.7369270">
        <ele>939.0</ele>
        <time>2019-08-14T09:02:38Z</time>
      </trkpt>
      <trkpt lat="40.8184390" lon="-4.7369390">
        <ele>938.9</ele>
        <time>2019-08-14T09:02:39Z</time>
      </trkpt>
      <trkpt lat="40.8185020" lon="-4.7369520">
        <ele>938.9</ele>
        <time>2019-08-14T09:02:40Z</time>
      </trkpt>
      <trkpt lat="40.8185650" lon="-4.7369640">
        <ele>938.7</ele>
        <time>2019-08-14T09:02:41Z</time>
      </trkpt>
      <trkpt lat="40.8186250" lon="-4.7369770">
        <ele>938.6</ele>
        <time>2019-08-14T09:02:42Z</time>
      </trkpt>
      <trkpt lat="40.8186850" lon="-4.7369900">
        <ele>938.5</ele>
        <time>2019-08-14T09:02:43Z</time>
      </trkpt>
      <trkpt lat="40.8187470" lon="-4.7370040">
        <ele>938.3</ele>
        <time>2019-08-14T09:02:44Z</time>
      </trkpt>
      <trkpt lat="40.8188090" lon="-4.7370180">
        <ele>938.2</ele>
        <time>2019-08-14T09:02:45Z</time>
      </trkpt>
      <trkpt lat="40.8188750" lon="-4.7370310">
        <ele>938.0</ele>
        <time>2019-08-14T09:02:46Z</time>
      </trkpt>
      <trkpt lat="40.8189400" lon="-4.7370430">
        <ele>937.8</ele>
        <time>2019-08-14T09:02:47Z</time>
      </trkpt>
      <trkpt lat="40.8190090" lon="-4.7370560">
        <ele>937.6</ele>
        <time>2019-08-14T09:02:48Z</time>
      </trkpt>
      <trkpt lat="40.8190800" lon="-4.7370710">
        <ele>937.3</ele>
        <time>2019-08-14T09:02:49Z</time>
      </trkpt>
      <trkpt lat="40.8191530" lon="-4.7370840">
        <ele>937.0</ele>
        <time>2019-08-14T09:02:50Z</time>
      </trkpt>
      <trkpt lat="40.8192250" lon="-4.7370980">
        <ele>936.7</ele>
        <time>2019-08-14T09:02:51Z</time>
      </trkpt>
      <trkpt lat="40.8192970" lon="-4.7371120">
        <ele>936.4</ele>
        <time>2019-08-14T09:02:52Z</time>
      </trkpt>
      <trkpt lat="40.8193680" lon="-4.7371280">
        <ele>936.1</ele>
        <time>2019-08-14T09:02:53Z</time>
      </trkpt>
      <trkpt lat="40.8194360" lon="-4.7371450">
        <ele>935.9</ele>
        <time>2019-08-14T09:02:54Z</time>
      </trkpt>
      <trkpt lat="40.8195010" lon="-4.7371660">
        <ele>935.6</ele>
        <time>2019-08-14T09:02:55Z</time>
      </trkpt>
      <trkpt lat="40.8195650" lon="-4.7371850">
        <ele>935.5</ele>
        <time>2019-08-14T09:02:56Z</time>
      </trkpt>
      <trkpt lat="40.8196290" lon="-4.7372060">
        <ele>935.3</ele>
        <time>2019-08-14T09:02:57Z</time>
      </trkpt>
      <trkpt lat="40.8196910" lon="-4.7372310">
        <ele>935.2</ele>
        <time>2019-08-14T09:02:58Z</time>
      </trkpt>
      <trkpt lat="40.8197550" lon="-4.7372610">
        <ele>935.0</ele>
        <time>2019-08-14T09:02:59Z</time>
      </trkpt>
      <trkpt lat="40.8198180" lon="-4.7372910">
        <ele>934.8</ele>
        <time>2019-08-14T09:03:00Z</time>
      </trkpt>
      <trkpt lat="40.8198810" lon="-4.7373190">
        <ele>934.7</ele>
        <time>2019-08-14T09:03:01Z</time>
      </trkpt>
      <trkpt lat="40.8199430" lon="-4.7373490">
        <ele>934.5</ele>
        <time>2019-08-14T09:03:02Z</time>
      </trkpt>
      <trkpt lat="40.8200050" lon="-4.7373780">
        <ele>934.4</ele>
        <time>2019-08-14T09:03:03Z</time>
      </trkpt>
      <trkpt lat="40.8200670" lon="-4.7374070">
        <ele>934.3</ele>
        <time>2019-08-14T09:03:04Z</time>
      </trkpt>
      <trkpt lat="40.8201290" lon="-4.7374360">
        <ele>934.2</ele>
        <time>2019-08-14T09:03:05Z</time>
      </trkpt>
      <trkpt lat="40.8201920" lon="-4.7374650">
        <ele>934.1</ele>
        <time>2019-08-14T09:03:06Z</time>
      </trkpt>
      <trkpt lat="40.8202550" lon="-4.7374930">
        <ele>933.9</ele>
        <time>2019-08-14T09:03:07Z</time>
      </trkpt>
      <trkpt lat="40.8203180" lon="-4.7375200">
        <ele>933.8</ele>
        <time>2019-08-14T09:03:08Z</time>
      </trkpt>
      <trkpt lat="40.8203800" lon="-4.7375490">
        <ele>933.6</ele>
        <time>2019-08-14T09:03:09Z</time>
      </trkpt>
      <trkpt lat="40.8204430" lon="-4.7375770">
        <ele>933.5</ele>
        <time>2019-08-14T09:03:10Z</time>
      </trkpt>
      <trkpt lat="40.8205060" lon="-4.7376070">
        <ele>933.5</ele>
        <time>2019-08-14T09:03:11Z</time>
      </trkpt>
      <trkpt lat="40.8205700" lon="-4.7376380">
        <ele>933.4</ele>
        <time>2019-08-14T09:03:12Z</time>
      </trkpt>
      <trkpt lat="40.8206330" lon="-4.7376690">
        <ele>933.4</ele>
        <time>2019-08-14T09:03:13Z</time>
      </trkpt>
      <trkpt lat="40.8206960" lon="-4.7377000">
        <ele>933.5</ele>
        <time>2019-08-14T09:03:14Z</time>
      </trkpt>
      <trkpt lat="40.8207590" lon="-4.7377300">
        <ele>933.5</ele>
        <time>2019-08-14T09:03:15Z</time>
      </trkpt>
      <trkpt lat="40.8208210" lon="-4.7377590">
        <ele>933.5</ele>
        <time>2019-08-14T09:03:16Z</time>
      </trkpt>
      <trkpt lat="40.8208810" lon="-4.7377880">
        <ele>933.5</ele>
        <time>2019-08-14T09:03:17Z</time>
      </trkpt>
      <trkpt lat="40.8209420" lon="-4.7378190">
        <ele>933.5</ele>
        <time>2019-08-14T09:03:18Z</time>
      </trkpt>
      <trkpt lat="40.8210020" lon="-4.7378480">
        <ele>933.5</ele>
        <time>2019-08-14T09:03:19Z</time>
      </trkpt>
      <trkpt lat="40.8210620" lon="-4.7378760">
        <ele>933.5</ele>
        <time>2019-08-14T09:03:20Z</time>
      </trkpt>
      <trkpt lat="40.8211220" lon="-4.7379020">
        <ele>933.5</ele>
        <time>2019-08-14T09:03:21Z</time>
      </trkpt>
      <trkpt lat="40.8211810" lon="-4.7379290">
        <ele>933.4</ele>
        <time>2019-08-14T09:03:22Z</time>
      </trkpt>
      <trkpt lat="40.8212410" lon="-4.7379540">
        <ele>933.4</ele>
        <time>2019-08-14T09:03:23Z</time>
      </trkpt>
      <trkpt lat="40.8213000" lon="-4.7379790">
        <ele>933.3</ele>
        <time>2019-08-14T09:03:24Z</time>
      </trkpt>
      <trkpt lat="40.8213610" lon="-4.7380040">
        <ele>933.2</ele>
        <time>2019-08-14T09:03:25Z</time>
      </trkpt>
      <trkpt lat="40.8214220" lon="-4.7380310">
        <ele>933.1</ele>
        <time>2019-08-14T09:03:26Z</time>
      </trkpt>
      <trkpt lat="40.8214820" lon="-4.7380590">
        <ele>933.0</ele>
        <time>2019-08-14T09:03:27Z</time>
      </trkpt>
      <trkpt lat="40.8215440" lon="-4.7380860">
        <ele>932.9</ele>
        <time>2019-08-14T09:03:28Z</time>
      </trkpt>
      <trkpt lat="40.8216060" lon="-4.7381150">
        <ele>932.8</ele>
        <time>2019-08-14T09:03:29Z</time>
      </trkpt>
      <trkpt lat="40.8216670" lon="-4.7381440">
        <ele>932.8</ele>
        <time>2019-08-14T09:03:30Z</time>
      </trkpt>
      <trkpt lat="40.8217270" lon="-4.7381740">
        <ele>932.8</ele>
        <time>2019-08-14T09:03:31Z</time>
      </trkpt>
      <trkpt lat="40.8217890" lon="-4.7382040">
        <ele>932.8</ele>
        <time>2019-08-14T09:03:32Z</time>
      </trkpt>
      <trkpt lat="40.8218500" lon="-4.7382350">
        <ele>932.8</ele>
        <time>2019-08-14T09:03:33Z</time>
      </trkpt>
      <trkpt lat="40.8219120" lon="-4.7382630">
        <ele>932.8</ele>
        <time>2019-08-14T09:03:34Z</time>
      </trkpt>
      <trkpt lat="40.8219740" lon="-4.7382930">
        <ele>932.8</ele>
        <time>2019-08-14T09:03:35Z</time>
      </trkpt>
      <trkpt lat="40.8220340" lon="-4.7383220">
        <ele>932.8</ele>
        <time>2019-08-14T09:03:36Z</time>
      </trkpt>
      <trkpt lat="40.8220940" lon="-4.7383520">
        <ele>932.7</ele>
        <time>2019-08-14T09:03:37Z</time>
      </trkpt>
      <trkpt lat="40.8221550" lon="-4.7383800">
        <ele>932.6</ele>
        <time>2019-08-14T09:03:38Z</time>
      </trkpt>
      <trkpt lat="40.8222150" lon="-4.7384080">
        <ele>932.5</ele>
        <time>2019-08-14T09:03:39Z</time>
      </trkpt>
      <trkpt lat="40.8222720" lon="-4.7384370">
        <ele>932.3</ele>
        <time>2019-08-14T09:03:40Z</time>
      </trkpt>
      <trkpt lat="40.8223270" lon="-4.7384660">
        <ele>932.2</ele>
        <time>2019-08-14T09:03:41Z</time>
      </trkpt>
      <trkpt lat="40.8223810" lon="-4.7384930">
        <ele>932.1</ele>
        <time>2019-08-14T09:03:42Z</time>
      </trkpt>
      <trkpt lat="40.8224310" lon="-4.7385210">
        <ele>932.0</ele>
        <time>2019-08-14T09:03:43Z</time>
      </trkpt>
      <trkpt lat="40.8224820" lon="-4.7385480">
        <ele>932.0</ele>
        <time>2019-08-14T09:03:44Z</time>
      </trkpt>
      <trkpt lat="40.8225340" lon="-4.7385750">
        <ele>931.9</ele>
        <time>2019-08-14T09:03:45Z</time>
      </trkpt>
      <trkpt lat="40.8225860" lon="-4.7386000">
        <ele>931.9</ele>
        <time>2019-08-14T09:03:46Z</time>
      </trkpt>
      <trkpt lat="40.8226380" lon="-4.7386260">
        <ele>931.9</ele>
        <time>2019-08-14T09:03:47Z</time>
      </trkpt>
      <trkpt lat="40.8226890" lon="-4.7386510">
        <ele>931.9</ele>
        <time>2019-08-14T09:03:48Z</time>
      </trkpt>
      <trkpt lat="40.8227400" lon="-4.7386740">
        <ele>931.9</ele>
        <time>2019-08-14T09:03:49Z</time>
      </trkpt>
      <trkpt lat="40.8227880" lon="-4.7386970">
        <ele>932.0</ele>
        <time>2019-08-14T09:03:50Z</time>
      </trkpt>
      <trkpt lat="40.8228360" lon="-4.7387200">
        <ele>932.0</ele>
        <time>2019-08-14T09:03:51Z</time>
      </trkpt>
      <trkpt lat="40.8228840" lon="-4.7387420">
        <ele>932.0</ele>
        <time>2019-08-14T09:03:52Z</time>
      </trkpt>
      <trkpt lat="40.8229340" lon="-4.7387630">
        <ele>932.0</ele>
        <time>2019-08-14T09:03:53Z</time>
      </trkpt>
      <trkpt lat="40.8229850" lon="-4.7387870">
        <ele>932.0</ele>
        <time>2019-08-14T09:03:54Z</time>
      </trkpt>
      <trkpt lat="40.8230350" lon="-4.7388110">
        <ele>932.0</ele>
        <time>2019-08-14T09:03:55Z</time>
      </trkpt>
      <trkpt lat="40.8230860" lon="-4.7388350">
        <ele>932.0</ele>
        <time>2019-08-14T09:03:56Z</time>
      </trkpt>
      <trkpt lat="40.8231380" lon="-4.7388580">
        <ele>932.0</ele>
        <time>2019-08-14T09:03:57Z</time>
      </trkpt>
      <trkpt lat="40.8231890" lon="-4.7388840">
        <ele>932.1</ele>
        <time>2019-08-14T09:03:58Z</time>
      </trkpt>
      <trkpt lat="40.8232400" lon="-4.7389100">
        <ele>932.1</ele>
        <time>2019-08-14T09:03:59Z</time>
      </trkpt>
      <trkpt lat="40.8232910" lon="-4.7389370">
        <ele>932.1</ele>
        <time>2019-08-14T09:04:00Z</time>
      </trkpt>
      <trkpt lat="40.8233420" lon="-4.7389630">
        <ele>932.1</ele>
        <time>2019-08-14T09:04:01Z</time>
      </trkpt>
      <trkpt lat="40.8233950" lon="-4.7389870">
        <ele>932.1</ele>
        <time>2019-08-14T09:04:02Z</time>
      </trkpt>
      <trkpt lat="40.8234490" lon="-4.7390070">
        <ele>932.1</ele>
        <time>2019-08-14T09:04:03Z</time>
      </trkpt>
      <trkpt lat="40.8235030" lon="-4.7390280">
        <ele>932.1</ele>
        <time>2019-08-14T09:04:04Z</time>
      </trkpt>
      <trkpt lat="40.8235580" lon="-4.7390460">
        <ele>932.1</ele>
        <time>2019-08-14T09:04:05Z</time>
      </trkpt>
      <trkpt lat="40.8236160" lon="-4.7390650">
        <ele>932.2</ele>
        <time>2019-08-14T09:04:06Z</time>
      </trkpt>
      <trkpt lat="40.8236760" lon="-4.7390820">
        <ele>932.2</ele>
        <time>2019-08-14T09:04:07Z</time>
      </trkpt>
      <trkpt lat="40.8237380" lon="-4.7390980">
        <ele>932.2</ele>
        <time>2019-08-14T09:04:08Z</time>
      </trkpt>
      <trkpt lat="40.8237990" lon="-4.7391140">
        <ele>932.2</ele>
        <time>2019-08-14T09:04:09Z</time>
      </trkpt>
      <trkpt lat="40.8238610" lon="-4.7391300">
        <ele>932.2</ele>
        <time>2019-08-14T09:04:10Z</time>
      </trkpt>
      <trkpt lat="40.8239210" lon="-4.7391440">
        <ele>932.2</ele>
        <time>2019-08-14T09:04:11Z</time>
      </trkpt>
      <trkpt lat="40.8239820" lon="-4.7391550">
        <ele>932.2</ele>
        <time>2019-08-14T09:04:12Z</time>
      </trkpt>
      <trkpt lat="40.8240390" lon="-4.7391640">
        <ele>932.3</ele>
        <time>2019-08-14T09:04:13Z</time>
      </trkpt>
      <trkpt lat="40.8240920" lon="-4.7391710">
        <ele>932.3</ele>
        <time>2019-08-14T09:04:14Z</time>
      </trkpt>
      <trkpt lat="40.8241380" lon="-4.7391810">
        <ele>932.3</ele>
        <time>2019-08-14T09:04:15Z</time>
      </trkpt>
      <trkpt lat="40.8241710" lon="-4.7391880">
        <ele>932.3</ele>
        <time>2019-08-14T09:04:16Z</time>
      </trkpt>
      <trkpt lat="40.8242130" lon="-4.7391940">
        <ele>932.3</ele>
        <time>2019-08-14T09:04:18Z</time>
      </trkpt>
      <trkpt lat="40.8242560" lon="-4.7391970">
        <ele>932.3</ele>
        <time>2019-08-14T09:04:20Z</time>
      </trkpt>
      <trkpt lat="40.8243120" lon="-4.7392070">
        <ele>932.2</ele>
        <time>2019-08-14T09:04:22Z</time>
      </trkpt>
      <trkpt lat="40.8243480" lon="-4.7392150">
        <ele>932.2</ele>
        <time>2019-08-14T09:04:23Z</time>
      </trkpt>
      <trkpt lat="40.8243870" lon="-4.7392240">
        <ele>932.1</ele>
        <time>2019-08-14T09:04:24Z</time>
      </trkpt>
      <trkpt lat="40.8244290" lon="-4.7392340">
        <ele>932.1</ele>
        <time>2019-08-14T09:04:25Z</time>
      </trkpt>
      <trkpt lat="40.8244710" lon="-4.7392450">
        <ele>932.0</ele>
        <time>2019-08-14T09:04:26Z</time>
      </trkpt>
      <trkpt lat="40.8245140" lon="-4.7392570">
        <ele>932.0</ele>
        <time>2019-08-14T09:04:27Z</time>
      </trkpt>
      <trkpt lat="40.8245580" lon="-4.7392690">
        <ele>931.9</ele>
        <time>2019-08-14T09:04:28Z</time>
      </trkpt>
      <trkpt lat="40.8246020" lon="-4.7392820">
        <ele>931.9</ele>
        <time>2019-08-14T09:04:29Z</time>
      </trkpt>
      <trkpt lat="40.8246460" lon="-4.7392980">
        <ele>931.9</ele>
        <time>2019-08-14T09:04:30Z</time>
      </trkpt>
      <trkpt lat="40.8246910" lon="-4.7393160">
        <ele>931.8</ele>
        <time>2019-08-14T09:04:31Z</time>
      </trkpt>
      <trkpt lat="40.8247370" lon="-4.7393340">
        <ele>931.8</ele>
        <time>2019-08-14T09:04:32Z</time>
      </trkpt>
      <trkpt lat="40.8247840" lon="-4.7393530">
        <ele>931.8</ele>
        <time>2019-08-14T09:04:33Z</time>
      </trkpt>
      <trkpt lat="40.8248310" lon="-4.7393720">
        <ele>931.8</ele>
        <time>2019-08-14T09:04:34Z</time>
      </trkpt>
      <trkpt lat="40.8248790" lon="-4.7393940">
        <ele>931.8</ele>
        <time>2019-08-14T09:04:35Z</time>
      </trkpt>
      <trkpt lat="40.8249270" lon="-4.7394150">
        <ele>931.8</ele>
        <time>2019-08-14T09:04:36Z</time>
      </trkpt>
      <trkpt lat="40.8249750" lon="-4.7394370">
        <ele>931.8</ele>
        <time>2019-08-14T09:04:37Z</time>
      </trkpt>
      <trkpt lat="40.8250220" lon="-4.7394580">
        <ele>931.8</ele>
        <time>2019-08-14T09:04:38Z</time>
      </trkpt>
      <trkpt lat="40.8250690" lon="-4.7394790">
        <ele>931.8</ele>
        <time>2019-08-14T09:04:39Z</time>
      </trkpt>
      <trkpt lat="40.8251170" lon="-4.7395000">
        <ele>931.7</ele>
        <time>2019-08-14T09:04:40Z</time>
      </trkpt>
      <trkpt lat="40.8251620" lon="-4.7395210">
        <ele>931.7</ele>
        <time>2019-08-14T09:04:41Z</time>
      </trkpt>
      <trkpt lat="40.8252050" lon="-4.7395410">
        <ele>931.7</ele>
        <time>2019-08-14T09:04:42Z</time>
      </trkpt>
      <trkpt lat="40.8252460" lon="-4.7395620">
        <ele>931.7</ele>
        <time>2019-08-14T09:04:43Z</time>
      </trkpt>
      <trkpt lat="40.8252810" lon="-4.7395810">
        <ele>931.7</ele>
        <time>2019-08-14T09:04:44Z</time>
      </trkpt>
      <trkpt lat="40.8253120" lon="-4.7395900">
        <ele>931.7</ele>
        <time>2019-08-14T09:04:45Z</time>
      </trkpt>
      <trkpt lat="40.8253570" lon="-4.7395690">
        <ele>931.7</ele>
        <time>2019-08-14T09:04:47Z</time>
      </trkpt>
      <trkpt lat="40.8253770" lon="-4.7395360">
        <ele>931.8</ele>
        <time>2019-08-14T09:04:48Z</time>
      </trkpt>
      <trkpt lat="40.8253970" lon="-4.7394990">
        <ele>931.8</ele>
        <time>2019-08-14T09:04:49Z</time>
      </trkpt>
      <trkpt lat="40.8254190" lon="-4.7394600">
        <ele>931.9</ele>
        <time>2019-08-14T09:04:50Z</time>
      </trkpt>
      <trkpt lat="40.8254430" lon="-4.7394180">
        <ele>931.9</ele>
        <time>2019-08-14T09:04:51Z</time>
      </trkpt>
      <trkpt lat="40.8254680" lon="-4.7393740">
        <ele>931.9</ele>
        <time>2019-08-14T09:04:52Z</time>
      </trkpt>
      <trkpt lat="40.8254950" lon="-4.7393270">
        <ele>931.9</ele>
        <time>2019-08-14T09:04:53Z</time>
      </trkpt>
      <trkpt lat="40.8255250" lon="-4.7392850">
        <ele>932.0</ele>
        <time>2019-08-14T09:04:54Z</time>
      </trkpt>
      <trkpt lat="40.8255560" lon="-4.7392450">
        <ele>932.0</ele>
        <time>2019-08-14T09:04:55Z</time>
      </trkpt>
      <trkpt lat="40.8255870" lon="-4.7392090">
        <ele>932.0</ele>
        <time>2019-08-14T09:04:56Z</time>
      </trkpt>
      <trkpt lat="40.8256190" lon="-4.7391740">
        <ele>932.0</ele>
        <time>2019-08-14T09:04:57Z</time>
      </trkpt>
      <trkpt lat="40.8256500" lon="-4.7391420">
        <ele>932.0</ele>
        <time>2019-08-14T09:04:58Z</time>
      </trkpt>
      <trkpt lat="40.8256820" lon="-4.7391100">
        <ele>931.9</ele>
        <time>2019-08-14T09:04:59Z</time>
      </trkpt>
      <trkpt lat="40.8257170" lon="-4.7390840">
        <ele>931.9</ele>
        <time>2019-08-14T09:05:00Z</time>
      </trkpt>
      <trkpt lat="40.8257540" lon="-4.7390640">
        <ele>931.9</ele>
        <time>2019-08-14T09:05:01Z</time>
      </trkpt>
      <trkpt lat="40.8257930" lon="-4.7390560">
        <ele>932.0</ele>
        <time>2019-08-14T09:05:02Z</time>
      </trkpt>
      <trkpt lat="40.8258340" lon="-4.7390520">
        <ele>932.0</ele>
        <time>2019-08-14T09:05:03Z</time>
      </trkpt>
      <trkpt lat="40.8258750" lon="-4.7390520">
        <ele>931.8</ele>
        <time>2019-08-14T09:05:04Z</time>
      </trkpt>
      <trkpt lat="40.8259160" lon="-4.7390520">
        <ele>931.7</ele>
        <time>2019-08-14T09:05:05Z</time>
      </trkpt>
      <trkpt lat="40.8259600" lon="-4.7390500">
        <ele>931.5</ele>
        <time>2019-08-14T09:05:06Z</time>
      </trkpt>
      <trkpt lat="40.8260050" lon="-4.7390450">
        <ele>931.3</ele>
        <time>2019-08-14T09:05:07Z</time>
      </trkpt>
      <trkpt lat="40.8260500" lon="-4.7390390">
        <ele>931.2</ele>
        <time>2019-08-14T09:05:08Z</time>
      </trkpt>
      <trkpt lat="40.8260950" lon="-4.7390340">
        <ele>931.1</ele>
        <time>2019-08-14T09:05:09Z</time>
      </trkpt>
      <trkpt lat="40.8261390" lon="-4.7390300">
        <ele>931.0</ele>
        <time>2019-08-14T09:05:10Z</time>
      </trkpt>
      <trkpt lat="40.8261810" lon="-4.7390270">
        <ele>931.0</ele>
        <time>2019-08-14T09:05:11Z</time>
      </trkpt>
      <trkpt lat="40.8262250" lon="-4.7390240">
        <ele>931.0</ele>
        <time>2019-08-14T09:05:12Z</time>
      </trkpt>
      <trkpt lat="40.8262700" lon="-4.7390230">
        <ele>930.9</ele>
        <time>2019-08-14T09:05:13Z</time>
      </trkpt>
      <trkpt lat="40.8263160" lon="-4.7390220">
        <ele>930.9</ele>
        <time>2019-08-14T09:05:14Z</time>
      </trkpt>
      <trkpt lat="40.8263630" lon="-4.7390200">
        <ele>930.9</ele>
        <time>2019-08-14T09:05:15Z</time>
      </trkpt>
      <trkpt lat="40.8264090" lon="-4.7390170">
        <ele>930.9</ele>
        <time>2019-08-14T09:05:16Z</time>
      </trkpt>
      <trkpt lat="40.8264540" lon="-4.7390130">
        <ele>931.0</ele>
        <time>2019-08-14T09:05:17Z</time>
      </trkpt>
      <trkpt lat="40.8264990" lon="-4.7390070">
        <ele>931.0</ele>
        <time>2019-08-14T09:05:18Z</time>
      </trkpt>
      <trkpt lat="40.8265460" lon="-4.7390000">
        <ele>931.0</ele>
        <time>2019-08-14T09:05:19Z</time>
      </trkpt>
      <trkpt lat="40.8265910" lon="-4.7389920">
        <ele>931.0</ele>
        <time>2019-08-14T09:05:20Z</time>
      </trkpt>
      <trkpt lat="40.8266360" lon="-4.7389850">
        <ele>931.0</ele>
        <time>2019-08-14T09:05:21Z</time>
      </trkpt>
      <trkpt lat="40.8266790" lon="-4.7389800">
        <ele>931.0</ele>
        <time>2019-08-14T09:05:22Z</time>
      </trkpt>
      <trkpt lat="40.8267200" lon="-4.7389750">
        <ele>931.0</ele>
        <time>2019-08-14T09:05:23Z</time>
      </trkpt>
      <trkpt lat="40.8267620" lon="-4.7389690">
        <ele>931.0</ele>
        <time>2019-08-14T09:05:24Z</time>
      </trkpt>
      <trkpt lat="40.8268020" lon="-4.7389610">
        <ele>931.0</ele>
        <time>2019-08-14T09:05:25Z</time>
      </trkpt>
      <trkpt lat="40.8268410" lon="-4.7389510">
        <ele>931.0</ele>
        <time>2019-08-14T09:05:26Z</time>
      </trkpt>
      <trkpt lat="40.8268770" lon="-4.7389380">
        <ele>931.0</ele>
        <time>2019-08-14T09:05:27Z</time>
      </trkpt>
      <trkpt lat="40.8269080" lon="-4.7389180">
        <ele>931.0</ele>
        <time>2019-08-14T09:05:28Z</time>
      </trkpt>
      <trkpt lat="40.8269370" lon="-4.7388980">
        <ele>930.8</ele>
        <time>2019-08-14T09:05:29Z</time>
      </trkpt>
      <trkpt lat="40.8269640" lon="-4.7388760">
        <ele>930.7</ele>
        <time>2019-08-14T09:05:30Z</time>
      </trkpt>
      <trkpt lat="40.8269880" lon="-4.7388480">
        <ele>930.6</ele>
        <time>2019-08-14T09:05:31Z</time>
      </trkpt>
      <trkpt lat="40.8270120" lon="-4.7388190">
        <ele>930.5</ele>
        <time>2019-08-14T09:05:32Z</time>
      </trkpt>
      <trkpt lat="40.8270360" lon="-4.7387880">
        <ele>930.3</ele>
        <time>2019-08-14T09:05:33Z</time>
      </trkpt>
      <trkpt lat="40.8270620" lon="-4.7387540">
        <ele>930.2</ele>
        <time>2019-08-14T09:05:34Z</time>
      </trkpt>
      <trkpt lat="40.8270920" lon="-4.7387210">
        <ele>930.0</ele>
        <time>2019-08-14T09:05:35Z</time>
      </trkpt>
      <trkpt lat="40.8271260" lon="-4.7386890">
        <ele>929.9</ele>
        <time>2019-08-14T09:05:36Z</time>
      </trkpt>
      <trkpt lat="40.8271660" lon="-4.7386650">
        <ele>929.7</ele>
        <time>2019-08-14T09:05:37Z</time>
      </trkpt>
      <trkpt lat="40.8272070" lon="-4.7386440">
        <ele>929.6</ele>
        <time>2019-08-14T09:05:38Z</time>
      </trkpt>
      <trkpt lat="40.8272490" lon="-4.7386240">
        <ele>929.4</ele>
        <time>2019-08-14T09:05:39Z</time>
      </trkpt>
      <trkpt lat="40.8272930" lon="-4.7386010">
        <ele>929.3</ele>
        <time>2019-08-14T09:05:40Z</time>
      </trkpt>
      <trkpt lat="40.8273370" lon="-4.7385770">
        <ele>929.1</ele>
        <time>2019-08-14T09:05:41Z</time>
      </trkpt>
      <trkpt lat="40.8273820" lon="-4.7385520">
        <ele>928.9</ele>
        <time>2019-08-14T09:05:42Z</time>
      </trkpt>
      <trkpt lat="40.8274280" lon="-4.7385270">
        <ele>928.8</ele>
        <time>2019-08-14T09:05:43Z</time>
      </trkpt>
      <trkpt lat="40.8274750" lon="-4.7385000">
        <ele>928.6</ele>
        <time>2019-08-14T09:05:44Z</time>
      </trkpt>
      <trkpt lat="40.8275240" lon="-4.7384740">
        <ele>928.5</ele>
        <time>2019-08-14T09:05:45Z</time>
      </trkpt>
      <trkpt lat="40.8275730" lon="-4.7384450">
        <ele>928.4</ele>
        <time>2019-08-14T09:05:46Z</time>
      </trkpt>
      <trkpt lat="40.8276210" lon="-4.7384130">
        <ele>928.3</ele>
        <time>2019-08-14T09:05:47Z</time>
      </trkpt>
      <trkpt lat="40.8276690" lon="-4.7383770">
        <ele>928.1</ele>
        <time>2019-08-14T09:05:48Z</time>
      </trkpt>
      <trkpt lat="40.8277150" lon="-4.7383390">
        <ele>928.0</ele>
        <time>2019-08-14T09:05:49Z</time>
      </trkpt>
      <trkpt lat="40.8277600" lon="-4.7382980">
        <ele>927.8</ele>
        <time>2019-08-14T09:05:50Z</time>
      </trkpt>
      <trkpt lat="40.8278060" lon="-4.7382550">
        <ele>927.7</ele>
        <time>2019-08-14T09:05:51Z</time>
      </trkpt>
      <trkpt lat="40.8278530" lon="-4.7382130">
        <ele>927.5</ele>
        <time>2019-08-14T09:05:52Z</time>
      </trkpt>
      <trkpt lat="40.8278990" lon="-4.7381690">
        <ele>927.3</ele>
        <time>2019-08-14T09:05:53Z</time>
      </trkpt>
      <trkpt lat="40.8279450" lon="-4.7381240">
        <ele>927.1</ele>
        <time>2019-08-14T09:05:54Z</time>
      </trkpt>
      <trkpt lat="40.8279910" lon="-4.7380800">
        <ele>926.9</ele>
        <time>2019-08-14T09:05:55Z</time>
      </trkpt>
      <trkpt lat="40.8280370" lon="-4.7380350">
        <ele>926.7</ele>
        <time>2019-08-14T09:05:56Z</time>
      </trkpt>
      <trkpt lat="40.8280830" lon="-4.7379910">
        <ele>926.5</ele>
        <time>2019-08-14T09:05:57Z</time>
      </trkpt>
      <trkpt lat="40.8281290" lon="-4.7379470">
        <ele>926.3</ele>
        <time>2019-08-14T09:05:58Z</time>
      </trkpt>
      <trkpt lat="40.8281730" lon="-4.7379050">
        <ele>926.1</ele>
        <time>2019-08-14T09:05:59Z</time>
      </trkpt>
      <trkpt lat="40.8282180" lon="-4.7378600">
        <ele>926.0</ele>
        <time>2019-08-14T09:06:00Z</time>
      </trkpt>
      <trkpt lat="40.8282620" lon="-4.7378140">
        <ele>925.8</ele>
        <time>2019-08-14T09:06:01Z</time>
      </trkpt>
      <trkpt lat="40.8283050" lon="-4.7377670">
        <ele>925.7</ele>
        <time>2019-08-14T09:06:02Z</time>
      </trkpt>
      <trkpt lat="40.8283490" lon="-4.7377170">
        <ele>925.6</ele>
        <time>2019-08-14T09:06:03Z</time>
      </trkpt>
      <trkpt lat="40.8283930" lon="-4.7376640">
        <ele>925.4</ele>
        <time>2019-08-14T09:06:04Z</time>
      </trkpt>
      <trkpt lat="40.8284360" lon="-4.7376110">
        <ele>925.3</ele>
        <time>2019-08-14T09:06:05Z</time>
      </trkpt>
      <trkpt lat="40.8284780" lon="-4.7375580">
        <ele>925.2</ele>
        <time>2019-08-14T09:06:06Z</time>
      </trkpt>
      <trkpt lat="40.8285180" lon="-4.7375060">
        <ele>925.0</ele>
        <time>2019-08-14T09:06:07Z</time>
      </trkpt>
      <trkpt lat="40.8285580" lon="-4.7374540">
        <ele>924.9</ele>
        <time>2019-08-14T09:06:08Z</time>
      </trkpt>
      <trkpt lat="40.8285970" lon="-4.7374040">
        <ele>924.8</ele>
        <time>2019-08-14T09:06:09Z</time>
      </trkpt>
      <trkpt lat="40.8286350" lon="-4.7373550">
        <ele>924.7</ele>
        <time>2019-08-14T09:06:10Z</time>
      </trkpt>
      <trkpt lat="40.8286720" lon="-4.7373050">
        <ele>924.6</ele>
        <time>2019-08-14T09:06:11Z</time>
      </trkpt>
      <trkpt lat="40.8287090" lon="-4.7372540">
        <ele>924.6</ele>
        <time>2019-08-14T09:06:12Z</time>
      </trkpt>
      <trkpt lat="40.8287470" lon="-4.7372030">
        <ele>924.5</ele>
        <time>2019-08-14T09:06:13Z</time>
      </trkpt>
      <trkpt lat="40.8287860" lon="-4.7371520">
        <ele>924.5</ele>
        <time>2019-08-14T09:06:14Z</time>
      </trkpt>
      <trkpt lat="40.8288250" lon="-4.7371000">
        <ele>924.5</ele>
        <time>2019-08-14T09:06:15Z</time>
      </trkpt>
      <trkpt lat="40.8288640" lon="-4.7370460">
        <ele>924.5</ele>
        <time>2019-08-14T09:06:16Z</time>
      </trkpt>
      <trkpt lat="40.8289050" lon="-4.7369910">
        <ele>924.5</ele>
        <time>2019-08-14T09:06:17Z</time>
      </trkpt>
      <trkpt lat="40.8289460" lon="-4.7369350">
        <ele>924.4</ele>
        <time>2019-08-14T09:06:18Z</time>
      </trkpt>
      <trkpt lat="40.8289880" lon="-4.7368770">
        <ele>924.3</ele>
        <time>2019-08-14T09:06:19Z</time>
      </trkpt>
      <trkpt lat="40.8290300" lon="-4.7368200">
        <ele>924.2</ele>
        <time>2019-08-14T09:06:20Z</time>
      </trkpt>
      <trkpt lat="40.8290710" lon="-4.7367640">
        <ele>924.1</ele>
        <time>2019-08-14T09:06:21Z</time>
      </trkpt>
      <trkpt lat="40.8291130" lon="-4.7367090">
        <ele>924.0</ele>
        <time>2019-08-14T09:06:22Z</time>
      </trkpt>
      <trkpt lat="40.8291540" lon="-4.7366540">
        <ele>923.9</ele>
        <time>2019-08-14T09:06:23Z</time>
      </trkpt>
      <trkpt lat="40.8291940" lon="-4.7365990">
        <ele>923.8</ele>
        <time>2019-08-14T09:06:24Z</time>
      </trkpt>
      <trkpt lat="40.8292340" lon="-4.7365430">
        <ele>923.7</ele>
        <time>2019-08-14T09:06:25Z</time>
      </trkpt>
      <trkpt lat="40.8292750" lon="-4.7364860">
        <ele>923.6</ele>
        <time>2019-08-14T09:06:26Z</time>
      </trkpt>
      <trkpt lat="40.8293180" lon="-4.7364280">
        <ele>923.6</ele>
        <time>2019-08-14T09:06:27Z</time>
      </trkpt>
      <trkpt lat="40.8293610" lon="-4.7363690">
        <ele>923.5</ele>
        <time>2019-08-14T09:06:28Z</time>
      </trkpt>
      <trkpt lat="40.8294040" lon="-4.7363110">
        <ele>923.5</ele>
        <time>2019-08-14T09:06:29Z</time>
      </trkpt>
      <trkpt lat="40.8294470" lon="-4.7362530">
        <ele>923.5</ele>
        <time>2019-08-14T09:06:30Z</time>
      </trkpt>
      <trkpt lat="40.8294880" lon="-4.7361950">
        <ele>923.5</ele>
        <time>2019-08-14T09:06:31Z</time>
      </trkpt>
      <trkpt lat="40.8295280" lon="-4.7361380">
        <ele>923.5</ele>
        <time>2019-08-14T09:06:32Z</time>
      </trkpt>
      <trkpt lat="40.8295680" lon="-4.7360830">
        <ele>923.5</ele>
        <time>2019-08-14T09:06:33Z</time>
      </trkpt>
      <trkpt lat="40.8296090" lon="-4.7360290">
        <ele>923.5</ele>
        <time>2019-08-14T09:06:34Z</time>
      </trkpt>
      <trkpt lat="40.8296480" lon="-4.7359750">
        <ele>923.5</ele>
        <time>2019-08-14T09:06:35Z</time>
      </trkpt>
      <trkpt lat="40.8296860" lon="-4.7359250">
        <ele>923.5</ele>
        <time>2019-08-14T09:06:36Z</time>
      </trkpt>
      <trkpt lat="40.8297250" lon="-4.7358760">
        <ele>923.5</ele>
        <time>2019-08-14T09:06:37Z</time>
      </trkpt>
      <trkpt lat="40.8297650" lon="-4.7358330">
        <ele>923.5</ele>
        <time>2019-08-14T09:06:38Z</time>
      </trkpt>
      <trkpt lat="40.8298030" lon="-4.7357930">
        <ele>923.5</ele>
        <time>2019-08-14T09:06:39Z</time>
      </trkpt>
      <trkpt lat="40.8298430" lon="-4.7357540">
        <ele>923.5</ele>
        <time>2019-08-14T09:06:40Z</time>
      </trkpt>
      <trkpt lat="40.8298840" lon="-4.7357170">
        <ele>923.4</ele>
        <time>2019-08-14T09:06:41Z</time>
      </trkpt>
      <trkpt lat="40.8299270" lon="-4.7356840">
        <ele>923.4</ele>
        <time>2019-08-14T09:06:42Z</time>
      </trkpt>
      <trkpt lat="40.8299740" lon="-4.7356540">
        <ele>923.4</ele>
        <time>2019-08-14T09:06:43Z</time>
      </trkpt>
      <trkpt lat="40.8300250" lon="-4.7356280">
        <ele>923.4</ele>
        <time>2019-08-14T09:06:44Z</time>
      </trkpt>
      <trkpt lat="40.8300760" lon="-4.7356050">
        <ele>923.4</ele>
        <time>2019-08-14T09:06:45Z</time>
      </trkpt>
      <trkpt lat="40.8301270" lon="-4.7355860">
        <ele>923.4</ele>
        <time>2019-08-14T09:06:46Z</time>
      </trkpt>
      <trkpt lat="40.8301760" lon="-4.7355640">
        <ele>923.4</ele>
        <time>2019-08-14T09:06:47Z</time>
      </trkpt>
      <trkpt lat="40.8302260" lon="-4.7355420">
        <ele>923.4</ele>
        <time>2019-08-14T09:06:48Z</time>
      </trkpt>
      <trkpt lat="40.8302780" lon="-4.7355190">
        <ele>923.4</ele>
        <time>2019-08-14T09:06:49Z</time>
      </trkpt>
      <trkpt lat="40.8303310" lon="-4.7354950">
        <ele>923.4</ele>
        <time>2019-08-14T09:06:50Z</time>
      </trkpt>
      <trkpt lat="40.8303860" lon="-4.7354700">
        <ele>923.4</ele>
        <time>2019-08-14T09:06:51Z</time>
      </trkpt>
      <trkpt lat="40.8304420" lon="-4.7354450">
        <ele>923.4</ele>
        <time>2019-08-14T09:06:52Z</time>
      </trkpt>
      <trkpt lat="40.8304990" lon="-4.7354180">
        <ele>923.4</ele>
        <time>2019-08-14T09:06:53Z</time>
      </trkpt>
      <trkpt lat="40.8305570" lon="-4.7353930">
        <ele>923.4</ele>
        <time>2019-08-14T09:06:54Z</time>
      </trkpt>
      <trkpt lat="40.8306150" lon="-4.7353670">
        <ele>923.3</ele>
        <time>2019-08-14T09:06:55Z</time>
      </trkpt>
      <trkpt lat="40.8306740" lon="-4.7353430">
        <ele>923.3</ele>
        <time>2019-08-14T09:06:56Z</time>
      </trkpt>
      <trkpt lat="40.8307310" lon="-4.7353190">
        <ele>923.2</ele>
        <time>2019-08-14T09:06:57Z</time>
      </trkpt>
      <trkpt lat="40.8307870" lon="-4.7352940">
        <ele>923.1</ele>
        <time>2019-08-14T09:06:58Z</time>
      </trkpt>
      <trkpt lat="40.8308420" lon="-4.7352690">
        <ele>922.9</ele>
        <time>2019-08-14T09:06:59Z</time>
      </trkpt>
      <trkpt lat="40.8308990" lon="-4.7352430">
        <ele>922.7</ele>
        <time>2019-08-14T09:07:00Z</time>
      </trkpt>
      <trkpt lat="40.8309550" lon="-4.7352190">
        <ele>922.6</ele>
        <time>2019-08-14T09:07:01Z</time>
      </trkpt>
      <trkpt lat="40.8310110" lon="-4.7351940">
        <ele>922.4</ele>
        <time>2019-08-14T09:07:02Z</time>
      </trkpt>
      <trkpt lat="40.8310680" lon="-4.7351680">
        <ele>922.2</ele>
        <time>2019-08-14T09:07:03Z</time>
      </trkpt>
      <trkpt lat="40.8311260" lon="-4.7351430">
        <ele>921.9</ele>
        <time>2019-08-14T09:07:04Z</time>
      </trkpt>
      <trkpt lat="40.8311820" lon="-4.7351180">
        <ele>921.6</ele>
        <time>2019-08-14T09:07:05Z</time>
      </trkpt>
      <trkpt lat="40.8312390" lon="-4.7350920">
        <ele>921.3</ele>
        <time>2019-08-14T09:07:06Z</time>
      </trkpt>
      <trkpt lat="40.8312960" lon="-4.7350670">
        <ele>921.0</ele>
        <time>2019-08-14T09:07:07Z</time>
      </trkpt>
      <trkpt lat="40.8313570" lon="-4.7350420">
        <ele>920.7</ele>
        <time>2019-08-14T09:07:08Z</time>
      </trkpt>
      <trkpt lat="40.8314190" lon="-4.7350150">
        <ele>920.5</ele>
        <time>2019-08-14T09:07:09Z</time>
      </trkpt>
      <trkpt lat="40.8314800" lon="-4.7349870">
        <ele>920.2</ele>
        <time>2019-08-14T09:07:10Z</time>
      </trkpt>
      <trkpt lat="40.8315420" lon="-4.7349590">
        <ele>920.0</ele>
        <time>2019-08-14T09:07:11Z</time>
      </trkpt>
      <trkpt lat="40.8316050" lon="-4.7349300">
        <ele>919.8</ele>
        <time>2019-08-14T09:07:12Z</time>
      </trkpt>
      <trkpt lat="40.8316680" lon="-4.7349020">
        <ele>919.6</ele>
        <time>2019-08-14T09:07:13Z</time>
      </trkpt>
      <trkpt lat="40.8317310" lon="-4.7348750">
        <ele>919.5</ele>
        <time>2019-08-14T09:07:14Z</time>
      </trkpt>
      <trkpt lat="40.8317940" lon="-4.7348470">
        <ele>919.4</ele>
        <time>2019-08-14T09:07:15Z</time>
      </trkpt>
      <trkpt lat="40.8318560" lon="-4.7348200">
        <ele>919.3</ele>
        <time>2019-08-14T09:07:16Z</time>
      </trkpt>
      <trkpt lat="40.8319180" lon="-4.7347940">
        <ele>919.2</ele>
        <time>2019-08-14T09:07:17Z</time>
      </trkpt>
      <trkpt lat="40.8319790" lon="-4.7347650">
        <ele>919.1</ele>
        <time>2019-08-14T09:07:18Z</time>
      </trkpt>
      <trkpt lat="40.8320380" lon="-4.7347390">
        <ele>918.9</ele>
        <time>2019-08-14T09:07:19Z</time>
      </trkpt>
      <trkpt lat="40.8320970" lon="-4.7347140">
        <ele>918.6</ele>
        <time>2019-08-14T09:07:20Z</time>
      </trkpt>
      <trkpt lat="40.8321550" lon="-4.7346870">
        <ele>918.3</ele>
        <time>2019-08-14T09:07:21Z</time>
      </trkpt>
      <trkpt lat="40.8322120" lon="-4.7346600">
        <ele>918.1</ele>
        <time>2019-08-14T09:07:22Z</time>
      </trkpt>
      <trkpt lat="40.8322680" lon="-4.7346340">
        <ele>917.8</ele>
        <time>2019-08-14T09:07:23Z</time>
      </trkpt>
      <trkpt lat="40.8323250" lon="-4.7346070">
        <ele>917.6</ele>
        <time>2019-08-14T09:07:24Z</time>
      </trkpt>
      <trkpt lat="40.8323800" lon="-4.7345820">
        <ele>917.5</ele>
        <time>2019-08-14T09:07:25Z</time>
      </trkpt>
      <trkpt lat="40.8324370" lon="-4.7345550">
        <ele>917.4</ele>
        <time>2019-08-14T09:07:26Z</time>
      </trkpt>
      <trkpt lat="40.8324970" lon="-4.7345270">
        <ele>917.4</ele>
        <time>2019-08-14T09:07:27Z</time>
      </trkpt>
      <trkpt lat="40.8325590" lon="-4.7344990">
        <ele>917.4</ele>
        <time>2019-08-14T09:07:28Z</time>
      </trkpt>
      <trkpt lat="40.8326220" lon="-4.7344720">
        <ele>917.3</ele>
        <time>2019-08-14T09:07:29Z</time>
      </trkpt>
      <trkpt lat="40.8326840" lon="-4.7344460">
        <ele>917.3</ele>
        <time>2019-08-14T09:07:30Z</time>
      </trkpt>
      <trkpt lat="40.8327440" lon="-4.7344200">
        <ele>917.3</ele>
        <time>2019-08-14T09:07:31Z</time>
      </trkpt>
      <trkpt lat="40.8328050" lon="-4.7343930">
        <ele>917.3</ele>
        <time>2019-08-14T09:07:32Z</time>
      </trkpt>
      <trkpt lat="40.8328660" lon="-4.7343650">
        <ele>917.3</ele>
        <time>2019-08-14T09:07:33Z</time>
      </trkpt>
      <trkpt lat="40.8329270" lon="-4.7343360">
        <ele>917.3</ele>
        <time>2019-08-14T09:07:34Z</time>
      </trkpt>
      <trkpt lat="40.8329890" lon="-4.7343080">
        <ele>917.3</ele>
        <time>2019-08-14T09:07:35Z</time>
      </trkpt>
      <trkpt lat="40.8330500" lon="-4.7342820">
        <ele>917.3</ele>
        <time>2019-08-14T09:07:36Z</time>
      </trkpt>
      <trkpt lat="40.8331110" lon="-4.7342540">
        <ele>917.3</ele>
        <time>2019-08-14T09:07:37Z</time>
      </trkpt>
      <trkpt lat="40.8331730" lon="-4.7342260">
        <ele>917.3</ele>
        <time>2019-08-14T09:07:38Z</time>
      </trkpt>
      <trkpt lat="40.8332320" lon="-4.7342000">
        <ele>917.2</ele>
        <time>2019-08-14T09:07:39Z</time>
      </trkpt>
      <trkpt lat="40.8332910" lon="-4.7341730">
        <ele>917.1</ele>
        <time>2019-08-14T09:07:40Z</time>
      </trkpt>
      <trkpt lat="40.8333490" lon="-4.7341470">
        <ele>917.0</ele>
        <time>2019-08-14T09:07:41Z</time>
      </trkpt>
      <trkpt lat="40.8334080" lon="-4.7341210">
        <ele>916.9</ele>
        <time>2019-08-14T09:07:42Z</time>
      </trkpt>
      <trkpt lat="40.8334670" lon="-4.7340950">
        <ele>916.8</ele>
        <time>2019-08-14T09:07:43Z</time>
      </trkpt>
      <trkpt lat="40.8335270" lon="-4.7340700">
        <ele>916.7</ele>
        <time>2019-08-14T09:07:44Z</time>
      </trkpt>
      <trkpt lat="40.8335880" lon="-4.7340460">
        <ele>916.5</ele>
        <time>2019-08-14T09:07:45Z</time>
      </trkpt>
      <trkpt lat="40.8336500" lon="-4.7340190">
        <ele>916.4</ele>
        <time>2019-08-14T09:07:46Z</time>
      </trkpt>
      <trkpt lat="40.8337110" lon="-4.7339920">
        <ele>916.4</ele>
        <time>2019-08-14T09:07:47Z</time>
      </trkpt>
      <trkpt lat="40.8337720" lon="-4.7339660">
        <ele>916.3</ele>
        <time>2019-08-14T09:07:48Z</time>
      </trkpt>
      <trkpt lat="40.8338330" lon="-4.7339410">
        <ele>916.3</ele>
        <time>2019-08-14T09:07:49Z</time>
      </trkpt>
      <trkpt lat="40.8338930" lon="-4.7339140">
        <ele>916.3</ele>
        <time>2019-08-14T09:07:50Z</time>
      </trkpt>
      <trkpt lat="40.8339550" lon="-4.7338870">
        <ele>916.3</ele>
        <time>2019-08-14T09:07:51Z</time>
      </trkpt>
      <trkpt lat="40.8340170" lon="-4.7338590">
        <ele>916.2</ele>
        <time>2019-08-14T09:07:52Z</time>
      </trkpt>
      <trkpt lat="40.8340790" lon="-4.7338310">
        <ele>916.2</ele>
        <time>2019-08-14T09:07:53Z</time>
      </trkpt>
      <trkpt lat="40.8341410" lon="-4.7338020">
        <ele>916.2</ele>
        <time>2019-08-14T09:07:54Z</time>
      </trkpt>
      <trkpt lat="40.8342030" lon="-4.7337740">
        <ele>916.2</ele>
        <time>2019-08-14T09:07:55Z</time>
      </trkpt>
      <trkpt lat="40.8342640" lon="-4.7337480">
        <ele>916.1</ele>
        <time>2019-08-14T09:07:56Z</time>
      </trkpt>
      <trkpt lat="40.8343240" lon="-4.7337210">
        <ele>916.0</ele>
        <time>2019-08-14T09:07:57Z</time>
      </trkpt>
      <trkpt lat="40.8343810" lon="-4.7336930">
        <ele>915.8</ele>
        <time>2019-08-14T09:07:58Z</time>
      </trkpt>
      <trkpt lat="40.8344390" lon="-4.7336670">
        <ele>915.7</ele>
        <time>2019-08-14T09:07:59Z</time>
      </trkpt>
      <trkpt lat="40.8344990" lon="-4.7336400">
        <ele>915.6</ele>
        <time>2019-08-14T09:08:00Z</time>
      </trkpt>
      <trkpt lat="40.8345610" lon="-4.7336110">
        <ele>915.4</ele>
        <time>2019-08-14T09:08:01Z</time>
      </trkpt>
      <trkpt lat="40.8346230" lon="-4.7335830">
        <ele>915.3</ele>
        <time>2019-08-14T09:08:02Z</time>
      </trkpt>
      <trkpt lat="40.8346860" lon="-4.7335550">
        <ele>915.3</ele>
        <time>2019-08-14T09:08:03Z</time>
      </trkpt>
      <trkpt lat="40.8347470" lon="-4.7335280">
        <ele>915.3</ele>
        <time>2019-08-14T09:08:04Z</time>
      </trkpt>
      <trkpt lat="40.8348050" lon="-4.7335030">
        <ele>915.3</ele>
        <time>2019-08-14T09:08:05Z</time>
      </trkpt>
      <trkpt lat="40.8348590" lon="-4.7334780">
        <ele>915.3</ele>
        <time>2019-08-14T09:08:06Z</time>
      </trkpt>
      <trkpt lat="40.8349120" lon="-4.7334540">
        <ele>915.3</ele>
        <time>2019-08-14T09:08:07Z</time>
      </trkpt>
      <trkpt lat="40.8349650" lon="-4.7334300">
        <ele>915.4</ele>
        <time>2019-08-14T09:08:08Z</time>
      </trkpt>
      <trkpt lat="40.8350180" lon="-4.7334070">
        <ele>915.5</ele>
        <time>2019-08-14T09:08:09Z</time>
      </trkpt>
      <trkpt lat="40.8350710" lon="-4.7333910">
        <ele>915.6</ele>
        <time>2019-08-14T09:08:10Z</time>
      </trkpt>
      <trkpt lat="40.8351220" lon="-4.7333750">
        <ele>915.7</ele>
        <time>2019-08-14T09:08:11Z</time>
      </trkpt>
      <trkpt lat="40.8351760" lon="-4.7333510">
        <ele>915.9</ele>
        <time>2019-08-14T09:08:12Z</time>
      </trkpt>
      <trkpt lat="40.8352320" lon="-4.7333250">
        <ele>916.0</ele>
        <time>2019-08-14T09:08:13Z</time>
      </trkpt>
      <trkpt lat="40.8352910" lon="-4.7332970">
        <ele>916.1</ele>
        <time>2019-08-14T09:08:14Z</time>
      </trkpt>
      <trkpt lat="40.8353500" lon="-4.7332690">
        <ele>916.1</ele>
        <time>2019-08-14T09:08:15Z</time>
      </trkpt>
      <trkpt lat="40.8354110" lon="-4.7332380">
        <ele>916.1</ele>
        <time>2019-08-14T09:08:16Z</time>
      </trkpt>
      <trkpt lat="40.8354720" lon="-4.7332100">
        <ele>916.1</ele>
        <time>2019-08-14T09:08:17Z</time>
      </trkpt>
      <trkpt lat="40.8355320" lon="-4.7331820">
        <ele>916.1</ele>
        <time>2019-08-14T09:08:18Z</time>
      </trkpt>
      <trkpt lat="40.8355910" lon="-4.7331550">
        <ele>916.1</ele>
        <time>2019-08-14T09:08:19Z</time>
      </trkpt>
      <trkpt lat="40.8356490" lon="-4.7331280">
        <ele>916.0</ele>
        <time>2019-08-14T09:08:20Z</time>
      </trkpt>
      <trkpt lat="40.8357050" lon="-4.7331010">
        <ele>915.9</ele>
        <time>2019-08-14T09:08:21Z</time>
      </trkpt>
      <trkpt lat="40.8357590" lon="-4.7330750">
        <ele>915.7</ele>
        <time>2019-08-14T09:08:22Z</time>
      </trkpt>
      <trkpt lat="40.8358130" lon="-4.7330500">
        <ele>915.6</ele>
        <time>2019-08-14T09:08:23Z</time>
      </trkpt>
      <trkpt lat="40.8358670" lon="-4.7330250">
        <ele>915.4</ele>
        <time>2019-08-14T09:08:24Z</time>
      </trkpt>
      <trkpt lat="40.8359220" lon="-4.7329960">
        <ele>915.3</ele>
        <time>2019-08-14T09:08:25Z</time>
      </trkpt>
      <trkpt lat="40.8359770" lon="-4.7329600">
        <ele>915.2</ele>
        <time>2019-08-14T09:08:26Z</time>
      </trkpt>
      <trkpt lat="40.8360350" lon="-4.7329240">
        <ele>915.1</ele>
        <time>2019-08-14T09:08:27Z</time>
      </trkpt>
      <trkpt lat="40.8360960" lon="-4.7328930">
        <ele>915.1</ele>
        <time>2019-08-14T09:08:28Z</time>
      </trkpt>
      <trkpt lat="40.8361580" lon="-4.7328640">
        <ele>915.0</ele>
        <time>2019-08-14T09:08:29Z</time>
      </trkpt>
      <trkpt lat="40.8362190" lon="-4.7328350">
        <ele>914.9</ele>
        <time>2019-08-14T09:08:30Z</time>
      </trkpt>
      <trkpt lat="40.8362780" lon="-4.7328080">
        <ele>914.7</ele>
        <time>2019-08-14T09:08:31Z</time>
      </trkpt>
      <trkpt lat="40.8363350" lon="-4.7327830">
        <ele>914.6</ele>
        <time>2019-08-14T09:08:32Z</time>
      </trkpt>
      <trkpt lat="40.8363940" lon="-4.7327570">
        <ele>914.5</ele>
        <time>2019-08-14T09:08:33Z</time>
      </trkpt>
      <trkpt lat="40.8364510" lon="-4.7327300">
        <ele>914.3</ele>
        <time>2019-08-14T09:08:34Z</time>
      </trkpt>
      <trkpt lat="40.8365090" lon="-4.7327050">
        <ele>914.2</ele>
        <time>2019-08-14T09:08:35Z</time>
      </trkpt>
      <trkpt lat="40.8365660" lon="-4.7326790">
        <ele>914.2</ele>
        <time>2019-08-14T09:08:36Z</time>
      </trkpt>
      <trkpt lat="40.8366220" lon="-4.7326530">
        <ele>914.2</ele>
        <time>2019-08-14T09:08:37Z</time>
      </trkpt>
      <trkpt lat="40.8366770" lon="-4.7326280">
        <ele>914.1</ele>
        <time>2019-08-14T09:08:38Z</time>
      </trkpt>
      <trkpt lat="40.8367320" lon="-4.7326030">
        <ele>914.1</ele>
        <time>2019-08-14T09:08:39Z</time>
      </trkpt>
      <trkpt lat="40.8367860" lon="-4.7325800">
        <ele>914.1</ele>
        <time>2019-08-14T09:08:40Z</time>
      </trkpt>
      <trkpt lat="40.8368410" lon="-4.7325570">
        <ele>914.1</ele>
        <time>2019-08-14T09:08:41Z</time>
      </trkpt>
      <trkpt lat="40.8368970" lon="-4.7325330">
        <ele>914.1</ele>
        <time>2019-08-14T09:08:42Z</time>
      </trkpt>
      <trkpt lat="40.8369530" lon="-4.7325070">
        <ele>914.1</ele>
        <time>2019-08-14T09:08:43Z</time>
      </trkpt>
      <trkpt lat="40.8370080" lon="-4.7324830">
        <ele>914.1</ele>
        <time>2019-08-14T09:08:44Z</time>
      </trkpt>
      <trkpt lat="40.8370630" lon="-4.7324580">
        <ele>914.1</ele>
        <time>2019-08-14T09:08:45Z</time>
      </trkpt>
      <trkpt lat="40.8371160" lon="-4.7324340">
        <ele>914.1</ele>
        <time>2019-08-14T09:08:46Z</time>
      </trkpt>
      <trkpt lat="40.8371690" lon="-4.7324100">
        <ele>914.1</ele>
        <time>2019-08-14T09:08:47Z</time>
      </trkpt>
      <trkpt lat="40.8372210" lon="-4.7323860">
        <ele>914.1</ele>
        <time>2019-08-14T09:08:48Z</time>
      </trkpt>
      <trkpt lat="40.8372720" lon="-4.7323610">
        <ele>914.2</ele>
        <time>2019-08-14T09:08:49Z</time>
      </trkpt>
      <trkpt lat="40.8373250" lon="-4.7323370">
        <ele>914.2</ele>
        <time>2019-08-14T09:08:50Z</time>
      </trkpt>
      <trkpt lat="40.8373790" lon="-4.7323130">
        <ele>914.3</ele>
        <time>2019-08-14T09:08:51Z</time>
      </trkpt>
      <trkpt lat="40.8374330" lon="-4.7322890">
        <ele>914.5</ele>
        <time>2019-08-14T09:08:52Z</time>
      </trkpt>
      <trkpt lat="40.8374860" lon="-4.7322650">
        <ele>914.6</ele>
        <time>2019-08-14T09:08:53Z</time>
      </trkpt>
      <trkpt lat="40.8375380" lon="-4.7322410">
        <ele>914.7</ele>
        <time>2019-08-14T09:08:54Z</time>
      </trkpt>
      <trkpt lat="40.8375920" lon="-4.7322170">
        <ele>914.9</ele>
        <time>2019-08-14T09:08:55Z</time>
      </trkpt>
      <trkpt lat="40.8376450" lon="-4.7321950">
        <ele>915.1</ele>
        <time>2019-08-14T09:08:56Z</time>
      </trkpt>
      <trkpt lat="40.8376960" lon="-4.7321710">
        <ele>915.3</ele>
        <time>2019-08-14T09:08:57Z</time>
      </trkpt>
      <trkpt lat="40.8377470" lon="-4.7321490">
        <ele>915.5</ele>
        <time>2019-08-14T09:08:58Z</time>
      </trkpt>
      <trkpt lat="40.8377950" lon="-4.7321280">
        <ele>915.7</ele>
        <time>2019-08-14T09:08:59Z</time>
      </trkpt>
      <trkpt lat="40.8378430" lon="-4.7321090">
        <ele>916.0</ele>
        <time>2019-08-14T09:09:00Z</time>
      </trkpt>
      <trkpt lat="40.8378870" lon="-4.7320920">
        <ele>916.1</ele>
        <time>2019-08-14T09:09:01Z</time>
      </trkpt>
      <trkpt lat="40.8379310" lon="-4.7320720">
        <ele>916.3</ele>
        <time>2019-08-14T09:09:02Z</time>
      </trkpt>
      <trkpt lat="40.8379750" lon="-4.7320480">
        <ele>916.4</ele>
        <time>2019-08-14T09:09:03Z</time>
      </trkpt>
      <trkpt lat="40.8380150" lon="-4.7320280">
        <ele>916.5</ele>
        <time>2019-08-14T09:09:04Z</time>
      </trkpt>
      <trkpt lat="40.8380550" lon="-4.7320080">
        <ele>916.6</ele>
        <time>2019-08-14T09:09:05Z</time>
      </trkpt>
      <trkpt lat="40.8380960" lon="-4.7319900">
        <ele>916.7</ele>
        <time>2019-08-14T09:09:06Z</time>
      </trkpt>
      <trkpt lat="40.8381360" lon="-4.7319710">
        <ele>916.7</ele>
        <time>2019-08-14T09:09:07Z</time>
      </trkpt>
      <trkpt lat="40.8381750" lon="-4.7319490">
        <ele>916.7</ele>
        <time>2019-08-14T09:09:08Z</time>
      </trkpt>
      <trkpt lat="40.8382140" lon="-4.7319300">
        <ele>916.7</ele>
        <time>2019-08-14T09:09:09Z</time>
      </trkpt>
      <trkpt lat="40.8382520" lon="-4.7319130">
        <ele>916.7</ele>
        <time>2019-08-14T09:09:10Z</time>
      </trkpt>
      <trkpt lat="40.8382900" lon="-4.7318950">
        <ele>916.6</ele>
        <time>2019-08-14T09:09:11Z</time>
      </trkpt>
      <trkpt lat="40.8383290" lon="-4.7318770">
        <ele>916.6</ele>
        <time>2019-08-14T09:09:12Z</time>
      </trkpt>
      <trkpt lat="40.8383680" lon="-4.7318590">
        <ele>916.5</ele>
        <time>2019-08-14T09:09:13Z</time>
      </trkpt>
      <trkpt lat="40.8384070" lon="-4.7318420">
        <ele>916.5</ele>
        <time>2019-08-14T09:09:14Z</time>
      </trkpt>
      <trkpt lat="40.8384470" lon="-4.7318230">
        <ele>916.4</ele>
        <time>2019-08-14T09:09:15Z</time>
      </trkpt>
      <trkpt lat="40.8384900" lon="-4.7318010">
        <ele>916.3</ele>
        <time>2019-08-14T09:09:16Z</time>
      </trkpt>
      <trkpt lat="40.8385330" lon="-4.7317790">
        <ele>916.2</ele>
        <time>2019-08-14T09:09:17Z</time>
      </trkpt>
      <trkpt lat="40.8385780" lon="-4.7317550">
        <ele>916.1</ele>
        <time>2019-08-14T09:09:18Z</time>
      </trkpt>
      <trkpt lat="40.8386230" lon="-4.7317300">
        <ele>916.0</ele>
        <time>2019-08-14T09:09:19Z</time>
      </trkpt>
      <trkpt lat="40.8386700" lon="-4.7317060">
        <ele>915.9</ele>
        <time>2019-08-14T09:09:20Z</time>
      </trkpt>
      <trkpt lat="40.8387180" lon="-4.7316800">
        <ele>915.8</ele>
        <time>2019-08-14T09:09:21Z</time>
      </trkpt>
      <trkpt lat="40.8387660" lon="-4.7316510">
        <ele>915.6</ele>
        <time>2019-08-14T09:09:22Z</time>
      </trkpt>
      <trkpt lat="40.8388140" lon="-4.7316200">
        <ele>915.5</ele>
        <time>2019-08-14T09:09:23Z</time>
      </trkpt>
      <trkpt lat="40.8388620" lon="-4.7315870">
        <ele>915.3</ele>
        <time>2019-08-14T09:09:24Z</time>
      </trkpt>
      <trkpt lat="40.8389110" lon="-4.7315530">
        <ele>915.1</ele>
        <time>2019-08-14T09:09:25Z</time>
      </trkpt>
      <trkpt lat="40.8389610" lon="-4.7315210">
        <ele>914.9</ele>
        <time>2019-08-14T09:09:26Z</time>
      </trkpt>
      <trkpt lat="40.8390100" lon="-4.7314880">
        <ele>914.6</ele>
        <time>2019-08-14T09:09:27Z</time>
      </trkpt>
      <trkpt lat="40.8390580" lon="-4.7314540">
        <ele>914.4</ele>
        <time>2019-08-14T09:09:28Z</time>
      </trkpt>
      <trkpt lat="40.8391070" lon="-4.7314190">
        <ele>914.2</ele>
        <time>2019-08-14T09:09:29Z</time>
      </trkpt>
      <trkpt lat="40.8391570" lon="-4.7313850">
        <ele>914.0</ele>
        <time>2019-08-14T09:09:30Z</time>
      </trkpt>
      <trkpt lat="40.8392080" lon="-4.7313470">
        <ele>913.7</ele>
        <time>2019-08-14T09:09:31Z</time>
      </trkpt>
      <trkpt lat="40.8392580" lon="-4.7313090">
        <ele>913.4</ele>
        <time>2019-08-14T09:09:32Z</time>
      </trkpt>
      <trkpt lat="40.8393110" lon="-4.7312720">
        <ele>913.0</ele>
        <time>2019-08-14T09:09:33Z</time>
      </trkpt>
      <trkpt lat="40.8393640" lon="-4.7312350">
        <ele>912.6</ele>
        <time>2019-08-14T09:09:34Z</time>
      </trkpt>
      <trkpt lat="40.8394190" lon="-4.7311960">
        <ele>912.3</ele>
        <time>2019-08-14T09:09:35Z</time>
      </trkpt>
      <trkpt lat="40.8394740" lon="-4.7311580">
        <ele>911.9</ele>
        <time>2019-08-14T09:09:36Z</time>
      </trkpt>
      <trkpt lat="40.8395310" lon="-4.7311150">
        <ele>911.6</ele>
        <time>2019-08-14T09:09:37Z</time>
      </trkpt>
      <trkpt lat="40.8395910" lon="-4.7310740">
        <ele>911.4</ele>
        <time>2019-08-14T09:09:38Z</time>
      </trkpt>
      <trkpt lat="40.8396540" lon="-4.7310310">
        <ele>911.3</ele>
        <time>2019-08-14T09:09:39Z</time>
      </trkpt>
      <trkpt lat="40.8397170" lon="-4.7309850">
        <ele>911.2</ele>
        <time>2019-08-14T09:09:40Z</time>
      </trkpt>
      <trkpt lat="40.8397810" lon="-4.7309390">
        <ele>911.1</ele>
        <time>2019-08-14T09:09:41Z</time>
      </trkpt>
      <trkpt lat="40.8398440" lon="-4.7308950">
        <ele>911.0</ele>
        <time>2019-08-14T09:09:42Z</time>
      </trkpt>
      <trkpt lat="40.8399060" lon="-4.7308520">
        <ele>911.0</ele>
        <time>2019-08-14T09:09:43Z</time>
      </trkpt>
      <trkpt lat="40.8399680" lon="-4.7308130">
        <ele>911.0</ele>
        <time>2019-08-14T09:09:44Z</time>
      </trkpt>
      <trkpt lat="40.8400290" lon="-4.7307770">
        <ele>911.0</ele>
        <time>2019-08-14T09:09:45Z</time>
      </trkpt>
      <trkpt lat="40.8400860" lon="-4.7307430">
        <ele>911.0</ele>
        <time>2019-08-14T09:09:46Z</time>
      </trkpt>
      <trkpt lat="40.8401400" lon="-4.7307100">
        <ele>911.0</ele>
        <time>2019-08-14T09:09:47Z</time>
      </trkpt>
      <trkpt lat="40.8401920" lon="-4.7306760">
        <ele>910.9</ele>
        <time>2019-08-14T09:09:48Z</time>
      </trkpt>
      <trkpt lat="40.8402430" lon="-4.7306410">
        <ele>910.9</ele>
        <time>2019-08-14T09:09:49Z</time>
      </trkpt>
      <trkpt lat="40.8402920" lon="-4.7306070">
        <ele>910.9</ele>
        <time>2019-08-14T09:09:50Z</time>
      </trkpt>
      <trkpt lat="40.8403410" lon="-4.7305740">
        <ele>910.9</ele>
        <time>2019-08-14T09:09:51Z</time>
      </trkpt>
      <trkpt lat="40.8403900" lon="-4.7305400">
        <ele>910.9</ele>
        <time>2019-08-14T09:09:52Z</time>
      </trkpt>
      <trkpt lat="40.8404400" lon="-4.7305060">
        <ele>910.9</ele>
        <time>2019-08-14T09:09:53Z</time>
      </trkpt>
      <trkpt lat="40.8404910" lon="-4.7304720">
        <ele>910.9</ele>
        <time>2019-08-14T09:09:54Z</time>
      </trkpt>
      <trkpt lat="40.8405420" lon="-4.7304380">
        <ele>910.8</ele>
        <time>2019-08-14T09:09:55Z</time>
      </trkpt>
      <trkpt lat="40.8405930" lon="-4.7304000">
        <ele>910.8</ele>
        <time>2019-08-14T09:09:56Z</time>
      </trkpt>
      <trkpt lat="40.8406440" lon="-4.7303640">
        <ele>910.7</ele>
        <time>2019-08-14T09:09:57Z</time>
      </trkpt>
      <trkpt lat="40.8406960" lon="-4.7303300">
        <ele>910.6</ele>
        <time>2019-08-14T09:09:58Z</time>
      </trkpt>
      <trkpt lat="40.8407480" lon="-4.7302950">
        <ele>910.5</ele>
        <time>2019-08-14T09:09:59Z</time>
      </trkpt>
      <trkpt lat="40.8407990" lon="-4.7302580">
        <ele>910.4</ele>
        <time>2019-08-14T09:10:00Z</time>
      </trkpt>
      <trkpt lat="40.8408510" lon="-4.7302220">
        <ele>910.3</ele>
        <time>2019-08-14T09:10:01Z</time>
      </trkpt>
      <trkpt lat="40.8409050" lon="-4.7301860">
        <ele>910.2</ele>
        <time>2019-08-14T09:10:02Z</time>
      </trkpt>
      <trkpt lat="40.8409570" lon="-4.7301510">
        <ele>910.1</ele>
        <time>2019-08-14T09:10:03Z</time>
      </trkpt>
      <trkpt lat="40.8410100" lon="-4.7301170">
        <ele>910.0</ele>
        <time>2019-08-14T09:10:04Z</time>
      </trkpt>
      <trkpt lat="40.8410610" lon="-4.7300810">
        <ele>909.9</ele>
        <time>2019-08-14T09:10:05Z</time>
      </trkpt>
      <trkpt lat="40.8411100" lon="-4.7300440">
        <ele>909.9</ele>
        <time>2019-08-14T09:10:06Z</time>
      </trkpt>
      <trkpt lat="40.8411580" lon="-4.7300090">
        <ele>909.9</ele>
        <time>2019-08-14T09:10:07Z</time>
      </trkpt>
      <trkpt lat="40.8412060" lon="-4.7299750">
        <ele>909.9</ele>
        <time>2019-08-14T09:10:08Z</time>
      </trkpt>
      <trkpt lat="40.8412550" lon="-4.7299430">
        <ele>909.9</ele>
        <time>2019-08-14T09:10:09Z</time>
      </trkpt>
      <trkpt lat="40.8413040" lon="-4.7299120">
        <ele>909.9</ele>
        <time>2019-08-14T09:10:10Z</time>
      </trkpt>
      <trkpt lat="40.8413510" lon="-4.7298810">
        <ele>909.9</ele>
        <time>2019-08-14T09:10:11Z</time>
      </trkpt>
      <trkpt lat="40.8414000" lon="-4.7298480">
        <ele>909.9</ele>
        <time>2019-08-14T09:10:12Z</time>
      </trkpt>
      <trkpt lat="40.8414500" lon="-4.7298160">
        <ele>909.9</ele>
        <time>2019-08-14T09:10:13Z</time>
      </trkpt>
      <trkpt lat="40.8415010" lon="-4.7297830">
        <ele>909.9</ele>
        <time>2019-08-14T09:10:14Z</time>
      </trkpt>
      <trkpt lat="40.8415520" lon="-4.7297510">
        <ele>909.9</ele>
        <time>2019-08-14T09:10:15Z</time>
      </trkpt>
      <trkpt lat="40.8416030" lon="-4.7297210">
        <ele>909.9</ele>
        <time>2019-08-14T09:10:16Z</time>
      </trkpt>
      <trkpt lat="40.8416550" lon="-4.7296950">
        <ele>909.9</ele>
        <time>2019-08-14T09:10:17Z</time>
      </trkpt>
      <trkpt lat="40.8417050" lon="-4.7296710">
        <ele>909.9</ele>
        <time>2019-08-14T09:10:18Z</time>
      </trkpt>
      <trkpt lat="40.8417550" lon="-4.7296500">
        <ele>909.9</ele>
        <time>2019-08-14T09:10:19Z</time>
      </trkpt>
      <trkpt lat="40.8418020" lon="-4.7296300">
        <ele>909.9</ele>
        <time>2019-08-14T09:10:20Z</time>
      </trkpt>
      <trkpt lat="40.8418470" lon="-4.7296120">
        <ele>909.9</ele>
        <time>2019-08-14T09:10:21Z</time>
      </trkpt>
      <trkpt lat="40.8418910" lon="-4.7295950">
        <ele>909.9</ele>
        <time>2019-08-14T09:10:22Z</time>
      </trkpt>
      <trkpt lat="40.8419370" lon="-4.7295800">
        <ele>909.8</ele>
        <time>2019-08-14T09:10:23Z</time>
      </trkpt>
      <trkpt lat="40.8419820" lon="-4.7295670">
        <ele>909.8</ele>
        <time>2019-08-14T09:10:24Z</time>
      </trkpt>
      <trkpt lat="40.8420280" lon="-4.7295560">
        <ele>909.8</ele>
        <time>2019-08-14T09:10:25Z</time>
      </trkpt>
      <trkpt lat="40.8420760" lon="-4.7295460">
        <ele>909.8</ele>
        <time>2019-08-14T09:10:26Z</time>
      </trkpt>
      <trkpt lat="40.8421250" lon="-4.7295390">
        <ele>909.8</ele>
        <time>2019-08-14T09:10:27Z</time>
      </trkpt>
      <trkpt lat="40.8421760" lon="-4.7295320">
        <ele>909.8</ele>
        <time>2019-08-14T09:10:28Z</time>
      </trkpt>
      <trkpt lat="40.8422300" lon="-4.7295250">
        <ele>909.8</ele>
        <time>2019-08-14T09:10:29Z</time>
      </trkpt>
      <trkpt lat="40.8422860" lon="-4.7295180">
        <ele>909.8</ele>
        <time>2019-08-14T09:10:30Z</time>
      </trkpt>
      <trkpt lat="40.8423420" lon="-4.7295110">
        <ele>909.7</ele>
        <time>2019-08-14T09:10:31Z</time>
      </trkpt>
      <trkpt lat="40.8423980" lon="-4.7295070">
        <ele>909.6</ele>
        <time>2019-08-14T09:10:32Z</time>
      </trkpt>
      <trkpt lat="40.8424530" lon="-4.7295030">
        <ele>909.5</ele>
        <time>2019-08-14T09:10:33Z</time>
      </trkpt>
      <trkpt lat="40.8425080" lon="-4.7294980">
        <ele>909.4</ele>
        <time>2019-08-14T09:10:34Z</time>
      </trkpt>
      <trkpt lat="40.8425620" lon="-4.7294950">
        <ele>909.3</ele>
        <time>2019-08-14T09:10:35Z</time>
      </trkpt>
      <trkpt lat="40.8426150" lon="-4.7294920">
        <ele>909.1</ele>
        <time>2019-08-14T09:10:36Z</time>
      </trkpt>
      <trkpt lat="40.8426680" lon="-4.7294880">
        <ele>909.0</ele>
        <time>2019-08-14T09:10:37Z</time>
      </trkpt>
      <trkpt lat="40.8427210" lon="-4.7294850">
        <ele>908.9</ele>
        <time>2019-08-14T09:10:38Z</time>
      </trkpt>
      <trkpt lat="40.8427750" lon="-4.7294820">
        <ele>908.9</ele>
        <time>2019-08-14T09:10:39Z</time>
      </trkpt>
      <trkpt lat="40.8428320" lon="-4.7294770">
        <ele>908.9</ele>
        <time>2019-08-14T09:10:40Z</time>
      </trkpt>
      <trkpt lat="40.8428890" lon="-4.7294720">
        <ele>908.8</ele>
        <time>2019-08-14T09:10:41Z</time>
      </trkpt>
      <trkpt lat="40.8429470" lon="-4.7294660">
        <ele>908.8</ele>
        <time>2019-08-14T09:10:42Z</time>
      </trkpt>
      <trkpt lat="40.8430050" lon="-4.7294610">
        <ele>908.8</ele>
        <time>2019-08-14T09:10:43Z</time>
      </trkpt>
      <trkpt lat="40.8430630" lon="-4.7294580">
        <ele>908.8</ele>
        <time>2019-08-14T09:10:44Z</time>
      </trkpt>
      <trkpt lat="40.8431210" lon="-4.7294560">
        <ele>908.8</ele>
        <time>2019-08-14T09:10:45Z</time>
      </trkpt>
      <trkpt lat="40.8431800" lon="-4.7294520">
        <ele>908.8</ele>
        <time>2019-08-14T09:10:46Z</time>
      </trkpt>
      <trkpt lat="40.8432370" lon="-4.7294480">
        <ele>908.8</ele>
        <time>2019-08-14T09:10:47Z</time>
      </trkpt>
      <trkpt lat="40.8432940" lon="-4.7294440">
        <ele>908.8</ele>
        <time>2019-08-14T09:10:48Z</time>
      </trkpt>
      <trkpt lat="40.8433480" lon="-4.7294420">
        <ele>908.8</ele>
        <time>2019-08-14T09:10:49Z</time>
      </trkpt>
      <trkpt lat="40.8434010" lon="-4.7294400">
        <ele>908.8</ele>
        <time>2019-08-14T09:10:50Z</time>
      </trkpt>
      <trkpt lat="40.8434520" lon="-4.7294360">
        <ele>908.7</ele>
        <time>2019-08-14T09:10:51Z</time>
      </trkpt>
      <trkpt lat="40.8435040" lon="-4.7294350">
        <ele>908.7</ele>
        <time>2019-08-14T09:10:52Z</time>
      </trkpt>
      <trkpt lat="40.8435550" lon="-4.7294340">
        <ele>908.6</ele>
        <time>2019-08-14T09:10:53Z</time>
      </trkpt>
      <trkpt lat="40.8436080" lon="-4.7294300">
        <ele>908.6</ele>
        <time>2019-08-14T09:10:54Z</time>
      </trkpt>
      <trkpt lat="40.8436610" lon="-4.7294280">
        <ele>908.5</ele>
        <time>2019-08-14T09:10:55Z</time>
      </trkpt>
      <trkpt lat="40.8437150" lon="-4.7294250">
        <ele>908.3</ele>
        <time>2019-08-14T09:10:56Z</time>
      </trkpt>
      <trkpt lat="40.8437720" lon="-4.7294210">
        <ele>908.2</ele>
        <time>2019-08-14T09:10:57Z</time>
      </trkpt>
      <trkpt lat="40.8438280" lon="-4.7294170">
        <ele>908.0</ele>
        <time>2019-08-14T09:10:58Z</time>
      </trkpt>
      <trkpt lat="40.8438850" lon="-4.7294140">
        <ele>907.9</ele>
        <time>2019-08-14T09:10:59Z</time>
      </trkpt>
      <trkpt lat="40.8439410" lon="-4.7294110">
        <ele>908.0</ele>
        <time>2019-08-14T09:11:00Z</time>
      </trkpt>
      <trkpt lat="40.8439950" lon="-4.7294080">
        <ele>908.0</ele>
        <time>2019-08-14T09:11:01Z</time>
      </trkpt>
      <trkpt lat="40.8440460" lon="-4.7294030">
        <ele>908.0</ele>
        <time>2019-08-14T09:11:02Z</time>
      </trkpt>
      <trkpt lat="40.8440950" lon="-4.7293960">
        <ele>907.9</ele>
        <time>2019-08-14T09:11:03Z</time>
      </trkpt>
      <trkpt lat="40.8441420" lon="-4.7293910">
        <ele>907.9</ele>
        <time>2019-08-14T09:11:04Z</time>
      </trkpt>
      <trkpt lat="40.8441890" lon="-4.7293850">
        <ele>907.8</ele>
        <time>2019-08-14T09:11:05Z</time>
      </trkpt>
      <trkpt lat="40.8442360" lon="-4.7293780">
        <ele>907.7</ele>
        <time>2019-08-14T09:11:06Z</time>
      </trkpt>
      <trkpt lat="40.8442840" lon="-4.7293730">
        <ele>907.6</ele>
        <time>2019-08-14T09:11:07Z</time>
      </trkpt>
      <trkpt lat="40.8443320" lon="-4.7293670">
        <ele>907.5</ele>
        <time>2019-08-14T09:11:08Z</time>
      </trkpt>
      <trkpt lat="40.8443790" lon="-4.7293620">
        <ele>907.4</ele>
        <time>2019-08-14T09:11:09Z</time>
      </trkpt>
      <trkpt lat="40.8444260" lon="-4.7293550">
        <ele>907.3</ele>
        <time>2019-08-14T09:11:10Z</time>
      </trkpt>
      <trkpt lat="40.8444720" lon="-4.7293470">
        <ele>907.2</ele>
        <time>2019-08-14T09:11:11Z</time>
      </trkpt>
      <trkpt lat="40.8445180" lon="-4.7293380">
        <ele>907.2</ele>
        <time>2019-08-14T09:11:12Z</time>
      </trkpt>
      <trkpt lat="40.8445590" lon="-4.7293320">
        <ele>907.1</ele>
        <time>2019-08-14T09:11:13Z</time>
      </trkpt>
      <trkpt lat="40.8445960" lon="-4.7293280">
        <ele>907.1</ele>
        <time>2019-08-14T09:11:14Z</time>
      </trkpt>
      <trkpt lat="40.8446320" lon="-4.7293290">
        <ele>907.1</ele>
        <time>2019-08-14T09:11:15Z</time>
      </trkpt>
      <trkpt lat="40.8446720" lon="-4.7293310">
        <ele>907.0</ele>
        <time>2019-08-14T09:11:16Z</time>
      </trkpt>
      <trkpt lat="40.8447160" lon="-4.7293310">
        <ele>907.0</ele>
        <time>2019-08-14T09:11:17Z</time>
      </trkpt>
      <trkpt lat="40.8447610" lon="-4.7293290">
        <ele>907.0</ele>
        <time>2019-08-14T09:11:18Z</time>
      </trkpt>
      <trkpt lat="40.8448050" lon="-4.7293250">
        <ele>907.0</ele>
        <time>2019-08-14T09:11:19Z</time>
      </trkpt>
      <trkpt lat="40.8448470" lon="-4.7293210">
        <ele>906.9</ele>
        <time>2019-08-14T09:11:20Z</time>
      </trkpt>
      <trkpt lat="40.8448890" lon="-4.7293170">
        <ele>906.9</ele>
        <time>2019-08-14T09:11:21Z</time>
      </trkpt>
      <trkpt lat="40.8449320" lon="-4.7293120">
        <ele>906.9</ele>
        <time>2019-08-14T09:11:22Z</time>
      </trkpt>
      <trkpt lat="40.8449770" lon="-4.7293090">
        <ele>906.9</ele>
        <time>2019-08-14T09:11:23Z</time>
      </trkpt>
      <trkpt lat="40.8450240" lon="-4.7293040">
        <ele>906.8</ele>
        <time>2019-08-14T09:11:24Z</time>
      </trkpt>
      <trkpt lat="40.8450740" lon="-4.7292990">
        <ele>906.8</ele>
        <time>2019-08-14T09:11:25Z</time>
      </trkpt>
      <trkpt lat="40.8451230" lon="-4.7292940">
        <ele>906.7</ele>
        <time>2019-08-14T09:11:26Z</time>
      </trkpt>
      <trkpt lat="40.8451720" lon="-4.7292910">
        <ele>906.7</ele>
        <time>2019-08-14T09:11:27Z</time>
      </trkpt>
      <trkpt lat="40.8452220" lon="-4.7292870">
        <ele>906.5</ele>
        <time>2019-08-14T09:11:28Z</time>
      </trkpt>
      <trkpt lat="40.8452700" lon="-4.7292830">
        <ele>906.4</ele>
        <time>2019-08-14T09:11:29Z</time>
      </trkpt>
      <trkpt lat="40.8453190" lon="-4.7292790">
        <ele>906.3</ele>
        <time>2019-08-14T09:11:30Z</time>
      </trkpt>
      <trkpt lat="40.8453700" lon="-4.7292740">
        <ele>906.2</ele>
        <time>2019-08-14T09:11:31Z</time>
      </trkpt>
      <trkpt lat="40.8454200" lon="-4.7292710">
        <ele>906.1</ele>
        <time>2019-08-14T09:11:32Z</time>
      </trkpt>
      <trkpt lat="40.8454700" lon="-4.7292660">
        <ele>906.0</ele>
        <time>2019-08-14T09:11:33Z</time>
      </trkpt>
      <trkpt lat="40.8455190" lon="-4.7292620">
        <ele>905.9</ele>
        <time>2019-08-14T09:11:34Z</time>
      </trkpt>
      <trkpt lat="40.8455660" lon="-4.7292580">
        <ele>905.8</ele>
        <time>2019-08-14T09:11:35Z</time>
      </trkpt>
      <trkpt lat="40.8456090" lon="-4.7292500">
        <ele>905.8</ele>
        <time>2019-08-14T09:11:36Z</time>
      </trkpt>
      <trkpt lat="40.8456470" lon="-4.7292420">
        <ele>905.7</ele>
        <time>2019-08-14T09:11:37Z</time>
      </trkpt>
      <trkpt lat="40.8456760" lon="-4.7292310">
        <ele>905.7</ele>
        <time>2019-08-14T09:11:38Z</time>
      </trkpt>
      <trkpt lat="40.8456970" lon="-4.7292120">
        <ele>905.7</ele>
        <time>2019-08-14T09:11:41Z</time>
      </trkpt>
      <trkpt lat="40.8457020" lon="-4.7291640">
        <ele>905.7</ele>
        <time>2019-08-14T09:11:48Z</time>
      </trkpt>
      <trkpt lat="40.8457170" lon="-4.7291270">
        <ele>905.6</ele>
        <time>2019-08-14T09:11:50Z</time>
      </trkpt>
      <trkpt lat="40.8457620" lon="-4.7291000">
        <ele>905.6</ele>
        <time>2019-08-14T09:11:52Z</time>
      </trkpt>
      <trkpt lat="40.8457910" lon="-4.7290930">
        <ele>905.6</ele>
        <time>2019-08-14T09:11:53Z</time>
      </trkpt>
      <trkpt lat="40.8458240" lon="-4.7290890">
        <ele>905.6</ele>
        <time>2019-08-14T09:11:54Z</time>
      </trkpt>
      <trkpt lat="40.8458590" lon="-4.7290860">
        <ele>905.6</ele>
        <time>2019-08-14T09:11:55Z</time>
      </trkpt>
      <trkpt lat="40.8458970" lon="-4.7290820">
        <ele>905.6</ele>
        <time>2019-08-14T09:11:56Z</time>
      </trkpt>
      <trkpt lat="40.8459380" lon="-4.7290790">
        <ele>905.6</ele>
        <time>2019-08-14T09:11:57Z</time>
      </trkpt>
      <trkpt lat="40.8459810" lon="-4.7290770">
        <ele>905.5</ele>
        <time>2019-08-14T09:11:58Z</time>
      </trkpt>
      <trkpt lat="40.8460260" lon="-4.7290750">
        <ele>905.5</ele>
        <time>2019-08-14T09:11:59Z</time>
      </trkpt>
      <trkpt lat="40.8460720" lon="-4.7290740">
        <ele>905.5</ele>
        <time>2019-08-14T09:12:00Z</time>
      </trkpt>
      <trkpt lat="40.8461200" lon="-4.7290730">
        <ele>905.5</ele>
        <time>2019-08-14T09:12:01Z</time>
      </trkpt>
      <trkpt lat="40.8461690" lon="-4.7290730">
        <ele>905.4</ele>
        <time>2019-08-14T09:12:02Z</time>
      </trkpt>
      <trkpt lat="40.8462210" lon="-4.7290720">
        <ele>905.4</ele>
        <time>2019-08-14T09:12:03Z</time>
      </trkpt>
      <trkpt lat="40.8462730" lon="-4.7290720">
        <ele>905.3</ele>
        <time>2019-08-14T09:12:04Z</time>
      </trkpt>
      <trkpt lat="40.8463270" lon="-4.7290720">
        <ele>905.2</ele>
        <time>2019-08-14T09:12:05Z</time>
      </trkpt>
      <trkpt lat="40.8463820" lon="-4.7290740">
        <ele>905.1</ele>
        <time>2019-08-14T09:12:06Z</time>
      </trkpt>
      <trkpt lat="40.8464380" lon="-4.7290760">
        <ele>905.0</ele>
        <time>2019-08-14T09:12:07Z</time>
      </trkpt>
      <trkpt lat="40.8464940" lon="-4.7290810">
        <ele>904.9</ele>
        <time>2019-08-14T09:12:08Z</time>
      </trkpt>
      <trkpt lat="40.8465500" lon="-4.7290860">
        <ele>904.7</ele>
        <time>2019-08-14T09:12:09Z</time>
      </trkpt>
      <trkpt lat="40.8466070" lon="-4.7290920">
        <ele>904.6</ele>
        <time>2019-08-14T09:12:10Z</time>
      </trkpt>
      <trkpt lat="40.8466650" lon="-4.7290990">
        <ele>904.5</ele>
        <time>2019-08-14T09:12:11Z</time>
      </trkpt>
      <trkpt lat="40.8467240" lon="-4.7291080">
        <ele>904.4</ele>
        <time>2019-08-14T09:12:12Z</time>
      </trkpt>
      <trkpt lat="40.8467820" lon="-4.7291180">
        <ele>904.3</ele>
        <time>2019-08-14T09:12:13Z</time>
      </trkpt>
      <trkpt lat="40.8468420" lon="-4.7291310">
        <ele>904.2</ele>
        <time>2019-08-14T09:12:14Z</time>
      </trkpt>
      <trkpt lat="40.8469020" lon="-4.7291420">
        <ele>904.1</ele>
        <time>2019-08-14T09:12:15Z</time>
      </trkpt>
      <trkpt lat="40.8469630" lon="-4.7291550">
        <ele>904.0</ele>
        <time>2019-08-14T09:12:16Z</time>
      </trkpt>
      <trkpt lat="40.8470230" lon="-4.7291700">
        <ele>903.9</ele>
        <time>2019-08-14T09:12:17Z</time>
      </trkpt>
      <trkpt lat="40.8470840" lon="-4.7291870">
        <ele>903.8</ele>
        <time>2019-08-14T09:12:18Z</time>
      </trkpt>
      <trkpt lat="40.8471450" lon="-4.7292030">
        <ele>903.6</ele>
        <time>2019-08-14T09:12:19Z</time>
      </trkpt>
      <trkpt lat="40.8472060" lon="-4.7292180">
        <ele>903.5</ele>
        <time>2019-08-14T09:12:20Z</time>
      </trkpt>
      <trkpt lat="40.8472680" lon="-4.7292350">
        <ele>903.4</ele>
        <time>2019-08-14T09:12:21Z</time>
      </trkpt>
      <trkpt lat="40.8473290" lon="-4.7292490">
        <ele>903.3</ele>
        <time>2019-08-14T09:12:22Z</time>
      </trkpt>
      <trkpt lat="40.8473900" lon="-4.7292640">
        <ele>903.3</ele>
        <time>2019-08-14T09:12:23Z</time>
      </trkpt>
      <trkpt lat="40.8474490" lon="-4.7292810">
        <ele>903.2</ele>
        <time>2019-08-14T09:12:24Z</time>
      </trkpt>
      <trkpt lat="40.8475090" lon="-4.7292980">
        <ele>903.2</ele>
        <time>2019-08-14T09:12:25Z</time>
      </trkpt>
      <trkpt lat="40.8475690" lon="-4.7293140">
        <ele>903.2</ele>
        <time>2019-08-14T09:12:26Z</time>
      </trkpt>
      <trkpt lat="40.8476280" lon="-4.7293280">
        <ele>903.2</ele>
        <time>2019-08-14T09:12:27Z</time>
      </trkpt>
      <trkpt lat="40.8476870" lon="-4.7293430">
        <ele>903.1</ele>
        <time>2019-08-14T09:12:28Z</time>
      </trkpt>
      <trkpt lat="40.8477460" lon="-4.7293580">
        <ele>903.1</ele>
        <time>2019-08-14T09:12:29Z</time>
      </trkpt>
      <trkpt lat="40.8478060" lon="-4.7293740">
        <ele>903.1</ele>
        <time>2019-08-14T09:12:30Z</time>
      </trkpt>
      <trkpt lat="40.8478650" lon="-4.7293910">
        <ele>903.1</ele>
        <time>2019-08-14T09:12:31Z</time>
      </trkpt>
      <trkpt lat="40.8479240" lon="-4.7294060">
        <ele>903.1</ele>
        <time>2019-08-14T09:12:32Z</time>
      </trkpt>
      <trkpt lat="40.8479830" lon="-4.7294200">
        <ele>903.1</ele>
        <time>2019-08-14T09:12:33Z</time>
      </trkpt>
      <trkpt lat="40.8480410" lon="-4.7294350">
        <ele>903.1</ele>
        <time>2019-08-14T09:12:34Z</time>
      </trkpt>
      <trkpt lat="40.8480990" lon="-4.7294520">
        <ele>903.0</ele>
        <time>2019-08-14T09:12:35Z</time>
      </trkpt>
      <trkpt lat="40.8481550" lon="-4.7294670">
        <ele>903.0</ele>
        <time>2019-08-14T09:12:36Z</time>
      </trkpt>
      <trkpt lat="40.8482080" lon="-4.7294820">
        <ele>903.0</ele>
        <time>2019-08-14T09:12:37Z</time>
      </trkpt>
      <trkpt lat="40.8482610" lon="-4.7294960">
        <ele>903.0</ele>
        <time>2019-08-14T09:12:38Z</time>
      </trkpt>
      <trkpt lat="40.8483160" lon="-4.7295100">
        <ele>903.0</ele>
        <time>2019-08-14T09:12:39Z</time>
      </trkpt>
      <trkpt lat="40.8483700" lon="-4.7295250">
        <ele>903.0</ele>
        <time>2019-08-14T09:12:40Z</time>
      </trkpt>
      <trkpt lat="40.8484270" lon="-4.7295390">
        <ele>903.0</ele>
        <time>2019-08-14T09:12:41Z</time>
      </trkpt>
      <trkpt lat="40.8484820" lon="-4.7295560">
        <ele>902.9</ele>
        <time>2019-08-14T09:12:42Z</time>
      </trkpt>
      <trkpt lat="40.8485360" lon="-4.7295710">
        <ele>902.9</ele>
        <time>2019-08-14T09:12:43Z</time>
      </trkpt>
      <trkpt lat="40.8485920" lon="-4.7295830">
        <ele>902.9</ele>
        <time>2019-08-14T09:12:44Z</time>
      </trkpt>
      <trkpt lat="40.8486470" lon="-4.7295940">
        <ele>902.9</ele>
        <time>2019-08-14T09:12:45Z</time>
      </trkpt>
      <trkpt lat="40.8487030" lon="-4.7296070">
        <ele>902.9</ele>
        <time>2019-08-14T09:12:46Z</time>
      </trkpt>
      <trkpt lat="40.8487590" lon="-4.7296200">
        <ele>902.8</ele>
        <time>2019-08-14T09:12:47Z</time>
      </trkpt>
      <trkpt lat="40.8488160" lon="-4.7296350">
        <ele>902.8</ele>
        <time>2019-08-14T09:12:48Z</time>
      </trkpt>
      <trkpt lat="40.8488730" lon="-4.7296490">
        <ele>902.7</ele>
        <time>2019-08-14T09:12:49Z</time>
      </trkpt>
      <trkpt lat="40.8489310" lon="-4.7296630">
        <ele>902.6</ele>
        <time>2019-08-14T09:12:50Z</time>
      </trkpt>
      <trkpt lat="40.8489890" lon="-4.7296770">
        <ele>902.5</ele>
        <time>2019-08-14T09:12:51Z</time>
      </trkpt>
      <trkpt lat="40.8490480" lon="-4.7296920">
        <ele>902.4</ele>
        <time>2019-08-14T09:12:52Z</time>
      </trkpt>
      <trkpt lat="40.8491060" lon="-4.7297080">
        <ele>902.3</ele>
        <time>2019-08-14T09:12:53Z</time>
      </trkpt>
      <trkpt lat="40.8491630" lon="-4.7297240">
        <ele>902.2</ele>
        <time>2019-08-14T09:12:54Z</time>
      </trkpt>
      <trkpt lat="40.8492190" lon="-4.7297370">
        <ele>902.0</ele>
        <time>2019-08-14T09:12:55Z</time>
      </trkpt>
      <trkpt lat="40.8492740" lon="-4.7297500">
        <ele>901.9</ele>
        <time>2019-08-14T09:12:56Z</time>
      </trkpt>
      <trkpt lat="40.8493280" lon="-4.7297620">
        <ele>901.9</ele>
        <time>2019-08-14T09:12:57Z</time>
      </trkpt>
      <trkpt lat="40.8493810" lon="-4.7297740">
        <ele>901.8</ele>
        <time>2019-08-14T09:12:58Z</time>
      </trkpt>
      <trkpt lat="40.8494350" lon="-4.7297860">
        <ele>901.7</ele>
        <time>2019-08-14T09:12:59Z</time>
      </trkpt>
      <trkpt lat="40.8494870" lon="-4.7297990">
        <ele>901.7</ele>
        <time>2019-08-14T09:13:00Z</time>
      </trkpt>
      <trkpt lat="40.8495410" lon="-4.7298130">
        <ele>901.7</ele>
        <time>2019-08-14T09:13:01Z</time>
      </trkpt>
      <trkpt lat="40.8495950" lon="-4.7298280">
        <ele>901.7</ele>
        <time>2019-08-14T09:13:02Z</time>
      </trkpt>
      <trkpt lat="40.8496500" lon="-4.7298420">
        <ele>901.7</ele>
        <time>2019-08-14T09:13:03Z</time>
      </trkpt>
      <trkpt lat="40.8497050" lon="-4.7298540">
        <ele>901.6</ele>
        <time>2019-08-14T09:13:04Z</time>
      </trkpt>
      <trkpt lat="40.8497570" lon="-4.7298690">
        <ele>901.6</ele>
        <time>2019-08-14T09:13:05Z</time>
      </trkpt>
      <trkpt lat="40.8498090" lon="-4.7298840">
        <ele>901.6</ele>
        <time>2019-08-14T09:13:06Z</time>
      </trkpt>
      <trkpt lat="40.8498610" lon="-4.7298940">
        <ele>901.6</ele>
        <time>2019-08-14T09:13:07Z</time>
      </trkpt>
      <trkpt lat="40.8499130" lon="-4.7299060">
        <ele>901.6</ele>
        <time>2019-08-14T09:13:08Z</time>
      </trkpt>
      <trkpt lat="40.8499670" lon="-4.7299190">
        <ele>901.6</ele>
        <time>2019-08-14T09:13:09Z</time>
      </trkpt>
      <trkpt lat="40.8500210" lon="-4.7299330">
        <ele>901.6</ele>
        <time>2019-08-14T09:13:10Z</time>
      </trkpt>
      <trkpt lat="40.8500760" lon="-4.7299470">
        <ele>901.5</ele>
        <time>2019-08-14T09:13:11Z</time>
      </trkpt>
      <trkpt lat="40.8501290" lon="-4.7299610">
        <ele>901.5</ele>
        <time>2019-08-14T09:13:12Z</time>
      </trkpt>
      <trkpt lat="40.8501810" lon="-4.7299740">
        <ele>901.5</ele>
        <time>2019-08-14T09:13:13Z</time>
      </trkpt>
      <trkpt lat="40.8502290" lon="-4.7299880">
        <ele>901.5</ele>
        <time>2019-08-14T09:13:14Z</time>
      </trkpt>
      <trkpt lat="40.8502740" lon="-4.7300020">
        <ele>901.5</ele>
        <time>2019-08-14T09:13:15Z</time>
      </trkpt>
      <trkpt lat="40.8503150" lon="-4.7300140">
        <ele>901.5</ele>
        <time>2019-08-14T09:13:16Z</time>
      </trkpt>
      <trkpt lat="40.8503540" lon="-4.7300220">
        <ele>901.5</ele>
        <time>2019-08-14T09:13:17Z</time>
      </trkpt>
      <trkpt lat="40.8503910" lon="-4.7300300">
        <ele>901.6</ele>
        <time>2019-08-14T09:13:18Z</time>
      </trkpt>
      <trkpt lat="40.8504270" lon="-4.7300380">
        <ele>901.6</ele>
        <time>2019-08-14T09:13:19Z</time>
      </trkpt>
      <trkpt lat="40.8504620" lon="-4.7300470">
        <ele>901.6</ele>
        <time>2019-08-14T09:13:20Z</time>
      </trkpt>
      <trkpt lat="40.8505000" lon="-4.7300560">
        <ele>901.7</ele>
        <time>2019-08-14T09:13:21Z</time>
      </trkpt>
      <trkpt lat="40.8505400" lon="-4.7300660">
        <ele>901.8</ele>
        <time>2019-08-14T09:13:22Z</time>
      </trkpt>
      <trkpt lat="40.8505820" lon="-4.7300770">
        <ele>901.9</ele>
        <time>2019-08-14T09:13:23Z</time>
      </trkpt>
      <trkpt lat="40.8506260" lon="-4.7300890">
        <ele>902.0</ele>
        <time>2019-08-14T09:13:24Z</time>
      </trkpt>
      <trkpt lat="40.8506720" lon="-4.7301000">
        <ele>902.1</ele>
        <time>2019-08-14T09:13:25Z</time>
      </trkpt>
      <trkpt lat="40.8507200" lon="-4.7301090">
        <ele>902.2</ele>
        <time>2019-08-14T09:13:26Z</time>
      </trkpt>
      <trkpt lat="40.8507700" lon="-4.7301180">
        <ele>902.4</ele>
        <time>2019-08-14T09:13:27Z</time>
      </trkpt>
      <trkpt lat="40.8508210" lon="-4.7301310">
        <ele>902.6</ele>
        <time>2019-08-14T09:13:28Z</time>
      </trkpt>
      <trkpt lat="40.8508710" lon="-4.7301470">
        <ele>902.7</ele>
        <time>2019-08-14T09:13:29Z</time>
      </trkpt>
      <trkpt lat="40.8509230" lon="-4.7301620">
        <ele>902.8</ele>
        <time>2019-08-14T09:13:30Z</time>
      </trkpt>
      <trkpt lat="40.8509750" lon="-4.7301770">
        <ele>902.9</ele>
        <time>2019-08-14T09:13:31Z</time>
      </trkpt>
      <trkpt lat="40.8510280" lon="-4.7301900">
        <ele>903.0</ele>
        <time>2019-08-14T09:13:32Z</time>
      </trkpt>
      <trkpt lat="40.8510820" lon="-4.7302000">
        <ele>903.1</ele>
        <time>2019-08-14T09:13:33Z</time>
      </trkpt>
      <trkpt lat="40.8511360" lon="-4.7302110">
        <ele>903.1</ele>
        <time>2019-08-14T09:13:34Z</time>
      </trkpt>
      <trkpt lat="40.8511900" lon="-4.7302230">
        <ele>903.1</ele>
        <time>2019-08-14T09:13:35Z</time>
      </trkpt>
      <trkpt lat="40.8512450" lon="-4.7302360">
        <ele>903.0</ele>
        <time>2019-08-14T09:13:36Z</time>
      </trkpt>
      <trkpt lat="40.8513010" lon="-4.7302490">
        <ele>903.0</ele>
        <time>2019-08-14T09:13:37Z</time>
      </trkpt>
      <trkpt lat="40.8513570" lon="-4.7302640">
        <ele>902.9</ele>
        <time>2019-08-14T09:13:38Z</time>
      </trkpt>
      <trkpt lat="40.8514150" lon="-4.7302770">
        <ele>902.8</ele>
        <time>2019-08-14T09:13:39Z</time>
      </trkpt>
      <trkpt lat="40.8514720" lon="-4.7302900">
        <ele>902.7</ele>
        <time>2019-08-14T09:13:40Z</time>
      </trkpt>
      <trkpt lat="40.8515300" lon="-4.7303040">
        <ele>902.6</ele>
        <time>2019-08-14T09:13:41Z</time>
      </trkpt>
      <trkpt lat="40.8515880" lon="-4.7303170">
        <ele>902.6</ele>
        <time>2019-08-14T09:13:42Z</time>
      </trkpt>
      <trkpt lat="40.8516450" lon="-4.7303330">
        <ele>902.5</ele>
        <time>2019-08-14T09:13:43Z</time>
      </trkpt>
      <trkpt lat="40.8517030" lon="-4.7303480">
        <ele>902.5</ele>
        <time>2019-08-14T09:13:44Z</time>
      </trkpt>
      <trkpt lat="40.8517610" lon="-4.7303620">
        <ele>902.5</ele>
        <time>2019-08-14T09:13:45Z</time>
      </trkpt>
      <trkpt lat="40.8518190" lon="-4.7303750">
        <ele>902.5</ele>
        <time>2019-08-14T09:13:46Z</time>
      </trkpt>
      <trkpt lat="40.8518750" lon="-4.7303900">
        <ele>902.5</ele>
        <time>2019-08-14T09:13:47Z</time>
      </trkpt>
      <trkpt lat="40.8519300" lon="-4.7304040">
        <ele>902.5</ele>
        <time>2019-08-14T09:13:48Z</time>
      </trkpt>
      <trkpt lat="40.8519840" lon="-4.7304180">
        <ele>902.5</ele>
        <time>2019-08-14T09:13:49Z</time>
      </trkpt>
      <trkpt lat="40.8520390" lon="-4.7304310">
        <ele>902.6</ele>
        <time>2019-08-14T09:13:50Z</time>
      </trkpt>
      <trkpt lat="40.8520940" lon="-4.7304430">
        <ele>902.6</ele>
        <time>2019-08-14T09:13:51Z</time>
      </trkpt>
      <trkpt lat="40.8521490" lon="-4.7304570">
        <ele>902.7</ele>
        <time>2019-08-14T09:13:52Z</time>
      </trkpt>
      <trkpt lat="40.8522060" lon="-4.7304710">
        <ele>902.8</ele>
        <time>2019-08-14T09:13:53Z</time>
      </trkpt>
      <trkpt lat="40.8522620" lon="-4.7304830">
        <ele>902.9</ele>
        <time>2019-08-14T09:13:54Z</time>
      </trkpt>
      <trkpt lat="40.8523210" lon="-4.7304960">
        <ele>903.1</ele>
        <time>2019-08-14T09:13:55Z</time>
      </trkpt>
      <trkpt lat="40.8523790" lon="-4.7305110">
        <ele>903.3</ele>
        <time>2019-08-14T09:13:56Z</time>
      </trkpt>
      <trkpt lat="40.8524390" lon="-4.7305260">
        <ele>903.3</ele>
        <time>2019-08-14T09:13:57Z</time>
      </trkpt>
      <trkpt lat="40.8524980" lon="-4.7305420">
        <ele>903.4</ele>
        <time>2019-08-14T09:13:58Z</time>
      </trkpt>
      <trkpt lat="40.8525590" lon="-4.7305570">
        <ele>903.4</ele>
        <time>2019-08-14T09:13:59Z</time>
      </trkpt>
      <trkpt lat="40.8526190" lon="-4.7305720">
        <ele>903.4</ele>
        <time>2019-08-14T09:14:00Z</time>
      </trkpt>
      <trkpt lat="40.8526800" lon="-4.7305880">
        <ele>903.4</ele>
        <time>2019-08-14T09:14:01Z</time>
      </trkpt>
      <trkpt lat="40.8527390" lon="-4.7306030">
        <ele>903.4</ele>
        <time>2019-08-14T09:14:02Z</time>
      </trkpt>
      <trkpt lat="40.8527980" lon="-4.7306180">
        <ele>903.4</ele>
        <time>2019-08-14T09:14:03Z</time>
      </trkpt>
      <trkpt lat="40.8528570" lon="-4.7306310">
        <ele>903.4</ele>
        <time>2019-08-14T09:14:04Z</time>
      </trkpt>
      <trkpt lat="40.8529150" lon="-4.7306440">
        <ele>903.4</ele>
        <time>2019-08-14T09:14:05Z</time>
      </trkpt>
      <trkpt lat="40.8529730" lon="-4.7306570">
        <ele>903.3</ele>
        <time>2019-08-14T09:14:06Z</time>
      </trkpt>
      <trkpt lat="40.8530300" lon="-4.7306700">
        <ele>903.2</ele>
        <time>2019-08-14T09:14:07Z</time>
      </trkpt>
      <trkpt lat="40.8530870" lon="-4.7306830">
        <ele>903.2</ele>
        <time>2019-08-14T09:14:08Z</time>
      </trkpt>
      <trkpt lat="40.8531440" lon="-4.7306950">
        <ele>903.1</ele>
        <time>2019-08-14T09:14:09Z</time>
      </trkpt>
      <trkpt lat="40.8532010" lon="-4.7307070">
        <ele>903.1</ele>
        <time>2019-08-14T09:14:10Z</time>
      </trkpt>
      <trkpt lat="40.8532580" lon="-4.7307190">
        <ele>903.0</ele>
        <time>2019-08-14T09:14:11Z</time>
      </trkpt>
      <trkpt lat="40.8533170" lon="-4.7307290">
        <ele>902.9</ele>
        <time>2019-08-14T09:14:12Z</time>
      </trkpt>
      <trkpt lat="40.8533750" lon="-4.7307420">
        <ele>902.9</ele>
        <time>2019-08-14T09:14:13Z</time>
      </trkpt>
      <trkpt lat="40.8534330" lon="-4.7307540">
        <ele>902.8</ele>
        <time>2019-08-14T09:14:14Z</time>
      </trkpt>
      <trkpt lat="40.8534890" lon="-4.7307630">
        <ele>902.8</ele>
        <time>2019-08-14T09:14:15Z</time>
      </trkpt>
      <trkpt lat="40.8535420" lon="-4.7307770">
        <ele>902.8</ele>
        <time>2019-08-14T09:14:16Z</time>
      </trkpt>
      <trkpt lat="40.8535930" lon="-4.7307970">
        <ele>902.8</ele>
        <time>2019-08-14T09:14:17Z</time>
      </trkpt>
      <trkpt lat="40.8536420" lon="-4.7308130">
        <ele>902.8</ele>
        <time>2019-08-14T09:14:18Z</time>
      </trkpt>
      <trkpt lat="40.8536940" lon="-4.7308160">
        <ele>902.8</ele>
        <time>2019-08-14T09:14:19Z</time>
      </trkpt>
      <trkpt lat="40.8537460" lon="-4.7308110">
        <ele>902.8</ele>
        <time>2019-08-14T09:14:20Z</time>
      </trkpt>
      <trkpt lat="40.8538020" lon="-4.7308100">
        <ele>902.8</ele>
        <time>2019-08-14T09:14:21Z</time>
      </trkpt>
      <trkpt lat="40.8538610" lon="-4.7308130">
        <ele>902.7</ele>
        <time>2019-08-14T09:14:22Z</time>
      </trkpt>
      <trkpt lat="40.8539200" lon="-4.7308200">
        <ele>902.7</ele>
        <time>2019-08-14T09:14:23Z</time>
      </trkpt>
      <trkpt lat="40.8539810" lon="-4.7308270">
        <ele>902.7</ele>
        <time>2019-08-14T09:14:24Z</time>
      </trkpt>
      <trkpt lat="40.8540430" lon="-4.7308340">
        <ele>902.7</ele>
        <time>2019-08-14T09:14:25Z</time>
      </trkpt>
      <trkpt lat="40.8541050" lon="-4.7308390">
        <ele>902.7</ele>
        <time>2019-08-14T09:14:26Z</time>
      </trkpt>
      <trkpt lat="40.8541690" lon="-4.7308440">
        <ele>902.7</ele>
        <time>2019-08-14T09:14:27Z</time>
      </trkpt>
      <trkpt lat="40.8542350" lon="-4.7308510">
        <ele>902.6</ele>
        <time>2019-08-14T09:14:28Z</time>
      </trkpt>
      <trkpt lat="40.8543010" lon="-4.7308570">
        <ele>902.6</ele>
        <time>2019-08-14T09:14:29Z</time>
      </trkpt>
      <trkpt lat="40.8543690" lon="-4.7308640">
        <ele>902.6</ele>
        <time>2019-08-14T09:14:30Z</time>
      </trkpt>
      <trkpt lat="40.8544350" lon="-4.7308710">
        <ele>902.6</ele>
        <time>2019-08-14T09:14:31Z</time>
      </trkpt>
      <trkpt lat="40.8545010" lon="-4.7308770">
        <ele>902.5</ele>
        <time>2019-08-14T09:14:32Z</time>
      </trkpt>
      <trkpt lat="40.8545640" lon="-4.7308820">
        <ele>902.5</ele>
        <time>2019-08-14T09:14:33Z</time>
      </trkpt>
      <trkpt lat="40.8546260" lon="-4.7308850">
        <ele>902.6</ele>
        <time>2019-08-14T09:14:34Z</time>
      </trkpt>
      <trkpt lat="40.8546880" lon="-4.7308890">
        <ele>902.6</ele>
        <time>2019-08-14T09:14:35Z</time>
      </trkpt>
      <trkpt lat="40.8547480" lon="-4.7308950">
        <ele>902.6</ele>
        <time>2019-08-14T09:14:36Z</time>
      </trkpt>
      <trkpt lat="40.8548050" lon="-4.7309040">
        <ele>902.6</ele>
        <time>2019-08-14T09:14:37Z</time>
      </trkpt>
      <trkpt lat="40.8548630" lon="-4.7309100">
        <ele>902.6</ele>
        <time>2019-08-14T09:14:38Z</time>
      </trkpt>
      <trkpt lat="40.8549190" lon="-4.7309150">
        <ele>902.6</ele>
        <time>2019-08-14T09:14:39Z</time>
      </trkpt>
      <trkpt lat="40.8549740" lon="-4.7309200">
        <ele>902.6</ele>
        <time>2019-08-14T09:14:40Z</time>
      </trkpt>
      <trkpt lat="40.8550260" lon="-4.7309290">
        <ele>902.5</ele>
        <time>2019-08-14T09:14:41Z</time>
      </trkpt>
      <trkpt lat="40.8550760" lon="-4.7309380">
        <ele>902.5</ele>
        <time>2019-08-14T09:14:42Z</time>
      </trkpt>
      <trkpt lat="40.8551250" lon="-4.7309460">
        <ele>902.5</ele>
        <time>2019-08-14T09:14:43Z</time>
      </trkpt>
      <trkpt lat="40.8551740" lon="-4.7309510">
        <ele>902.6</ele>
        <time>2019-08-14T09:14:44Z</time>
      </trkpt>
      <trkpt lat="40.8552220" lon="-4.7309510">
        <ele>902.6</ele>
        <time>2019-08-14T09:14:45Z</time>
      </trkpt>
      <trkpt lat="40.8552720" lon="-4.7309490">
        <ele>902.7</ele>
        <time>2019-08-14T09:14:46Z</time>
      </trkpt>
      <trkpt lat="40.8553230" lon="-4.7309500">
        <ele>902.7</ele>
        <time>2019-08-14T09:14:47Z</time>
      </trkpt>
      <trkpt lat="40.8553770" lon="-4.7309610">
        <ele>902.6</ele>
        <time>2019-08-14T09:14:48Z</time>
      </trkpt>
      <trkpt lat="40.8554300" lon="-4.7309840">
        <ele>902.6</ele>
        <time>2019-08-14T09:14:49Z</time>
      </trkpt>
      <trkpt lat="40.8554840" lon="-4.7310170">
        <ele>902.6</ele>
        <time>2019-08-14T09:14:50Z</time>
      </trkpt>
      <trkpt lat="40.8555380" lon="-4.7310490">
        <ele>902.6</ele>
        <time>2019-08-14T09:14:51Z</time>
      </trkpt>
      <trkpt lat="40.8555950" lon="-4.7310680">
        <ele>902.6</ele>
        <time>2019-08-14T09:14:52Z</time>
      </trkpt>
      <trkpt lat="40.8556560" lon="-4.7310630">
        <ele>902.6</ele>
        <time>2019-08-14T09:14:53Z</time>
      </trkpt>
      <trkpt lat="40.8557130" lon="-4.7310400">
        <ele>902.6</ele>
        <time>2019-08-14T09:14:54Z</time>
      </trkpt>
      <trkpt lat="40.8557680" lon="-4.7310080">
        <ele>902.7</ele>
        <time>2019-08-14T09:14:55Z</time>
      </trkpt>
      <trkpt lat="40.8558230" lon="-4.7309790">
        <ele>902.7</ele>
        <time>2019-08-14T09:14:56Z</time>
      </trkpt>
      <trkpt lat="40.8558810" lon="-4.7309560">
        <ele>902.6</ele>
        <time>2019-08-14T09:14:57Z</time>
      </trkpt>
      <trkpt lat="40.8559400" lon="-4.7309380">
        <ele>902.6</ele>
        <time>2019-08-14T09:14:58Z</time>
      </trkpt>
      <trkpt lat="40.8559980" lon="-4.7309230">
        <ele>902.5</ele>
        <time>2019-08-14T09:14:59Z</time>
      </trkpt>
      <trkpt lat="40.8560570" lon="-4.7309120">
        <ele>902.5</ele>
        <time>2019-08-14T09:15:00Z</time>
      </trkpt>
      <trkpt lat="40.8561160" lon="-4.7309010">
        <ele>902.4</ele>
        <time>2019-08-14T09:15:01Z</time>
      </trkpt>
      <trkpt lat="40.8561740" lon="-4.7308870">
        <ele>902.4</ele>
        <time>2019-08-14T09:15:02Z</time>
      </trkpt>
      <trkpt lat="40.8562350" lon="-4.7308720">
        <ele>902.4</ele>
        <time>2019-08-14T09:15:03Z</time>
      </trkpt>
      <trkpt lat="40.8562970" lon="-4.7308570">
        <ele>902.3</ele>
        <time>2019-08-14T09:15:04Z</time>
      </trkpt>
      <trkpt lat="40.8563620" lon="-4.7308450">
        <ele>902.2</ele>
        <time>2019-08-14T09:15:05Z</time>
      </trkpt>
      <trkpt lat="40.8564290" lon="-4.7308300">
        <ele>902.2</ele>
        <time>2019-08-14T09:15:06Z</time>
      </trkpt>
      <trkpt lat="40.8564960" lon="-4.7308170">
        <ele>902.3</ele>
        <time>2019-08-14T09:15:07Z</time>
      </trkpt>
      <trkpt lat="40.8565640" lon="-4.7308020">
        <ele>902.2</ele>
        <time>2019-08-14T09:15:08Z</time>
      </trkpt>
      <trkpt lat="40.8566310" lon="-4.7307870">
        <ele>902.3</ele>
        <time>2019-08-14T09:15:09Z</time>
      </trkpt>
      <trkpt lat="40.8566970" lon="-4.7307740">
        <ele>902.3</ele>
        <time>2019-08-14T09:15:10Z</time>
      </trkpt>
      <trkpt lat="40.8567600" lon="-4.7307620">
        <ele>902.3</ele>
        <time>2019-08-14T09:15:11Z</time>
      </trkpt>
      <trkpt lat="40.8568210" lon="-4.7307490">
        <ele>902.4</ele>
        <time>2019-08-14T09:15:12Z</time>
      </trkpt>
      <trkpt lat="40.8568810" lon="-4.7307340">
        <ele>902.4</ele>
        <time>2019-08-14T09:15:13Z</time>
      </trkpt>
      <trkpt lat="40.8569420" lon="-4.7307220">
        <ele>902.4</ele>
        <time>2019-08-14T09:15:14Z</time>
      </trkpt>
      <trkpt lat="40.8570000" lon="-4.7307100">
        <ele>902.4</ele>
        <time>2019-08-14T09:15:15Z</time>
      </trkpt>
      <trkpt lat="40.8570580" lon="-4.7306970">
        <ele>902.3</ele>
        <time>2019-08-14T09:15:16Z</time>
      </trkpt>
      <trkpt lat="40.8571150" lon="-4.7306830">
        <ele>902.2</ele>
        <time>2019-08-14T09:15:17Z</time>
      </trkpt>
      <trkpt lat="40.8571720" lon="-4.7306660">
        <ele>902.1</ele>
        <time>2019-08-14T09:15:18Z</time>
      </trkpt>
      <trkpt lat="40.8572310" lon="-4.7306480">
        <ele>902.0</ele>
        <time>2019-08-14T09:15:19Z</time>
      </trkpt>
      <trkpt lat="40.8572890" lon="-4.7306310">
        <ele>902.0</ele>
        <time>2019-08-14T09:15:20Z</time>
      </trkpt>
      <trkpt lat="40.8573490" lon="-4.7306140">
        <ele>901.9</ele>
        <time>2019-08-14T09:15:21Z</time>
      </trkpt>
      <trkpt lat="40.8574080" lon="-4.7305940">
        <ele>901.9</ele>
        <time>2019-08-14T09:15:22Z</time>
      </trkpt>
      <trkpt lat="40.8574670" lon="-4.7305710">
        <ele>901.9</ele>
        <time>2019-08-14T09:15:23Z</time>
      </trkpt>
      <trkpt lat="40.8575250" lon="-4.7305470">
        <ele>901.9</ele>
        <time>2019-08-14T09:15:24Z</time>
      </trkpt>
      <trkpt lat="40.8575810" lon="-4.7305230">
        <ele>902.0</ele>
        <time>2019-08-14T09:15:25Z</time>
      </trkpt>
      <trkpt lat="40.8576370" lon="-4.7305000">
        <ele>902.0</ele>
        <time>2019-08-14T09:15:26Z</time>
      </trkpt>
      <trkpt lat="40.8576920" lon="-4.7304740">
        <ele>902.0</ele>
        <time>2019-08-14T09:15:27Z</time>
      </trkpt>
      <trkpt lat="40.8577480" lon="-4.7304480">
        <ele>902.1</ele>
        <time>2019-08-14T09:15:28Z</time>
      </trkpt>
      <trkpt lat="40.8578030" lon="-4.7304220">
        <ele>901.9</ele>
        <time>2019-08-14T09:15:29Z</time>
      </trkpt>
      <trkpt lat="40.8578560" lon="-4.7303960">
        <ele>901.8</ele>
        <time>2019-08-14T09:15:30Z</time>
      </trkpt>
      <trkpt lat="40.8579070" lon="-4.7303690">
        <ele>901.6</ele>
        <time>2019-08-14T09:15:31Z</time>
      </trkpt>
      <trkpt lat="40.8579570" lon="-4.7303430">
        <ele>901.5</ele>
        <time>2019-08-14T09:15:32Z</time>
      </trkpt>
      <trkpt lat="40.8580060" lon="-4.7303180">
        <ele>901.3</ele>
        <time>2019-08-14T09:15:33Z</time>
      </trkpt>
      <trkpt lat="40.8580530" lon="-4.7302950">
        <ele>901.2</ele>
        <time>2019-08-14T09:15:34Z</time>
      </trkpt>
      <trkpt lat="40.8581020" lon="-4.7302720">
        <ele>901.1</ele>
        <time>2019-08-14T09:15:35Z</time>
      </trkpt>
      <trkpt lat="40.8581510" lon="-4.7302510">
        <ele>901.1</ele>
        <time>2019-08-14T09:15:36Z</time>
      </trkpt>
      <trkpt lat="40.8582010" lon="-4.7302330">
        <ele>901.1</ele>
        <time>2019-08-14T09:15:37Z</time>
      </trkpt>
      <trkpt lat="40.8582520" lon="-4.7302160">
        <ele>901.0</ele>
        <time>2019-08-14T09:15:38Z</time>
      </trkpt>
      <trkpt lat="40.8583030" lon="-4.7302000">
        <ele>901.0</ele>
        <time>2019-08-14T09:15:39Z</time>
      </trkpt>
      <trkpt lat="40.8583540" lon="-4.7301840">
        <ele>900.9</ele>
        <time>2019-08-14T09:15:40Z</time>
      </trkpt>
      <trkpt lat="40.8584040" lon="-4.7301690">
        <ele>900.7</ele>
        <time>2019-08-14T09:15:41Z</time>
      </trkpt>
      <trkpt lat="40.8584540" lon="-4.7301560">
        <ele>900.6</ele>
        <time>2019-08-14T09:15:42Z</time>
      </trkpt>
      <trkpt lat="40.8585020" lon="-4.7301420">
        <ele>900.4</ele>
        <time>2019-08-14T09:15:43Z</time>
      </trkpt>
      <trkpt lat="40.8585500" lon="-4.7301260">
        <ele>900.3</ele>
        <time>2019-08-14T09:15:44Z</time>
      </trkpt>
      <trkpt lat="40.8586010" lon="-4.7301090">
        <ele>900.1</ele>
        <time>2019-08-14T09:15:45Z</time>
      </trkpt>
      <trkpt lat="40.8586520" lon="-4.7300930">
        <ele>899.9</ele>
        <time>2019-08-14T09:15:46Z</time>
      </trkpt>
      <trkpt lat="40.8586980" lon="-4.7300750">
        <ele>899.8</ele>
        <time>2019-08-14T09:15:47Z</time>
      </trkpt>
      <trkpt lat="40.8587450" lon="-4.7300560">
        <ele>899.6</ele>
        <time>2019-08-14T09:15:48Z</time>
      </trkpt>
      <trkpt lat="40.8587930" lon="-4.7300340">
        <ele>899.4</ele>
        <time>2019-08-14T09:15:49Z</time>
      </trkpt>
      <trkpt lat="40.8588400" lon="-4.7300130">
        <ele>899.4</ele>
        <time>2019-08-14T09:15:50Z</time>
      </trkpt>
      <trkpt lat="40.8588840" lon="-4.7299920">
        <ele>899.4</ele>
        <time>2019-08-14T09:15:51Z</time>
      </trkpt>
      <trkpt lat="40.8589270" lon="-4.7299720">
        <ele>899.4</ele>
        <time>2019-08-14T09:15:52Z</time>
      </trkpt>
      <trkpt lat="40.8589750" lon="-4.7299490">
        <ele>899.4</ele>
        <time>2019-08-14T09:15:53Z</time>
      </trkpt>
      <trkpt lat="40.8590240" lon="-4.7299220">
        <ele>899.4</ele>
        <time>2019-08-14T09:15:54Z</time>
      </trkpt>
      <trkpt lat="40.8590740" lon="-4.7298900">
        <ele>899.4</ele>
        <time>2019-08-14T09:15:55Z</time>
      </trkpt>
      <trkpt lat="40.8591250" lon="-4.7298550">
        <ele>899.4</ele>
        <time>2019-08-14T09:15:56Z</time>
      </trkpt>
      <trkpt lat="40.8591770" lon="-4.7298170">
        <ele>899.4</ele>
        <time>2019-08-14T09:15:57Z</time>
      </trkpt>
      <trkpt lat="40.8592310" lon="-4.7297810">
        <ele>899.4</ele>
        <time>2019-08-14T09:15:58Z</time>
      </trkpt>
      <trkpt lat="40.8592840" lon="-4.7297480">
        <ele>899.4</ele>
        <time>2019-08-14T09:15:59Z</time>
      </trkpt>
      <trkpt lat="40.8593340" lon="-4.7297110">
        <ele>899.4</ele>
        <time>2019-08-14T09:16:00Z</time>
      </trkpt>
      <trkpt lat="40.8593850" lon="-4.7296740">
        <ele>899.4</ele>
        <time>2019-08-14T09:16:01Z</time>
      </trkpt>
      <trkpt lat="40.8594340" lon="-4.7296380">
        <ele>899.3</ele>
        <time>2019-08-14T09:16:02Z</time>
      </trkpt>
      <trkpt lat="40.8594830" lon="-4.7296010">
        <ele>899.3</ele>
        <time>2019-08-14T09:16:03Z</time>
      </trkpt>
      <trkpt lat="40.8595330" lon="-4.7295630">
        <ele>899.2</ele>
        <time>2019-08-14T09:16:04Z</time>
      </trkpt>
      <trkpt lat="40.8595830" lon="-4.7295250">
        <ele>899.0</ele>
        <time>2019-08-14T09:16:05Z</time>
      </trkpt>
      <trkpt lat="40.8596340" lon="-4.7294860">
        <ele>898.9</ele>
        <time>2019-08-14T09:16:06Z</time>
      </trkpt>
      <trkpt lat="40.8596850" lon="-4.7294460">
        <ele>898.7</ele>
        <time>2019-08-14T09:16:07Z</time>
      </trkpt>
      <trkpt lat="40.8597390" lon="-4.7294050">
        <ele>898.6</ele>
        <time>2019-08-14T09:16:08Z</time>
      </trkpt>
      <trkpt lat="40.8597890" lon="-4.7293630">
        <ele>898.5</ele>
        <time>2019-08-14T09:16:09Z</time>
      </trkpt>
      <trkpt lat="40.8598390" lon="-4.7293220">
        <ele>898.4</ele>
        <time>2019-08-14T09:16:10Z</time>
      </trkpt>
      <trkpt lat="40.8598880" lon="-4.7292810">
        <ele>898.4</ele>
        <time>2019-08-14T09:16:11Z</time>
      </trkpt>
      <trkpt lat="40.8599360" lon="-4.7292400">
        <ele>898.4</ele>
        <time>2019-08-14T09:16:12Z</time>
      </trkpt>
      <trkpt lat="40.8599840" lon="-4.7291990">
        <ele>898.3</ele>
        <time>2019-08-14T09:16:13Z</time>
      </trkpt>
      <trkpt lat="40.8600300" lon="-4.7291580">
        <ele>898.3</ele>
        <time>2019-08-14T09:16:14Z</time>
      </trkpt>
      <trkpt lat="40.8600770" lon="-4.7291190">
        <ele>898.3</ele>
        <time>2019-08-14T09:16:15Z</time>
      </trkpt>
      <trkpt lat="40.8601240" lon="-4.7290790">
        <ele>898.3</ele>
        <time>2019-08-14T09:16:16Z</time>
      </trkpt>
      <trkpt lat="40.8601680" lon="-4.7290390">
        <ele>898.3</ele>
        <time>2019-08-14T09:16:17Z</time>
      </trkpt>
      <trkpt lat="40.8602130" lon="-4.7289980">
        <ele>898.3</ele>
        <time>2019-08-14T09:16:18Z</time>
      </trkpt>
      <trkpt lat="40.8602560" lon="-4.7289580">
        <ele>898.3</ele>
        <time>2019-08-14T09:16:19Z</time>
      </trkpt>
      <trkpt lat="40.8602980" lon="-4.7289180">
        <ele>898.3</ele>
        <time>2019-08-14T09:16:20Z</time>
      </trkpt>
      <trkpt lat="40.8603390" lon="-4.7288790">
        <ele>898.3</ele>
        <time>2019-08-14T09:16:21Z</time>
      </trkpt>
      <trkpt lat="40.8603810" lon="-4.7288360">
        <ele>898.3</ele>
        <time>2019-08-14T09:16:22Z</time>
      </trkpt>
      <trkpt lat="40.8604260" lon="-4.7287950">
        <ele>898.3</ele>
        <time>2019-08-14T09:16:23Z</time>
      </trkpt>
      <trkpt lat="40.8604700" lon="-4.7287530">
        <ele>898.3</ele>
        <time>2019-08-14T09:16:24Z</time>
      </trkpt>
      <trkpt lat="40.8605180" lon="-4.7287120">
        <ele>897.9</ele>
        <time>2019-08-14T09:16:25Z</time>
      </trkpt>
      <trkpt lat="40.8605640" lon="-4.7286680">
        <ele>897.7</ele>
        <time>2019-08-14T09:16:26Z</time>
      </trkpt>
      <trkpt lat="40.8606120" lon="-4.7286240">
        <ele>897.5</ele>
        <time>2019-08-14T09:16:27Z</time>
      </trkpt>
      <trkpt lat="40.8606590" lon="-4.7285790">
        <ele>897.3</ele>
        <time>2019-08-14T09:16:28Z</time>
      </trkpt>
      <trkpt lat="40.8607060" lon="-4.7285350">
        <ele>897.1</ele>
        <time>2019-08-14T09:16:29Z</time>
      </trkpt>
      <trkpt lat="40.8607510" lon="-4.7284930">
        <ele>896.9</ele>
        <time>2019-08-14T09:16:30Z</time>
      </trkpt>
      <trkpt lat="40.8607970" lon="-4.7284520">
        <ele>896.7</ele>
        <time>2019-08-14T09:16:31Z</time>
      </trkpt>
      <trkpt lat="40.8608410" lon="-4.7284110">
        <ele>896.5</ele>
        <time>2019-08-14T09:16:32Z</time>
      </trkpt>
      <trkpt lat="40.8608860" lon="-4.7283700">
        <ele>896.4</ele>
        <time>2019-08-14T09:16:33Z</time>
      </trkpt>
      <trkpt lat="40.8609300" lon="-4.7283280">
        <ele>896.2</ele>
        <time>2019-08-14T09:16:34Z</time>
      </trkpt>
      <trkpt lat="40.8609700" lon="-4.7282850">
        <ele>896.1</ele>
        <time>2019-08-14T09:16:35Z</time>
      </trkpt>
      <trkpt lat="40.8610100" lon="-4.7282440">
        <ele>896.0</ele>
        <time>2019-08-14T09:16:36Z</time>
      </trkpt>
      <trkpt lat="40.8610510" lon="-4.7282020">
        <ele>896.0</ele>
        <time>2019-08-14T09:16:37Z</time>
      </trkpt>
      <trkpt lat="40.8610930" lon="-4.7281600">
        <ele>895.9</ele>
        <time>2019-08-14T09:16:38Z</time>
      </trkpt>
      <trkpt lat="40.8611380" lon="-4.7281150">
        <ele>895.9</ele>
        <time>2019-08-14T09:16:39Z</time>
      </trkpt>
      <trkpt lat="40.8611840" lon="-4.7280700">
        <ele>895.9</ele>
        <time>2019-08-14T09:16:40Z</time>
      </trkpt>
      <trkpt lat="40.8612330" lon="-4.7280260">
        <ele>895.9</ele>
        <time>2019-08-14T09:16:41Z</time>
      </trkpt>
      <trkpt lat="40.8612830" lon="-4.7279790">
        <ele>896.0</ele>
        <time>2019-08-14T09:16:42Z</time>
      </trkpt>
      <trkpt lat="40.8613340" lon="-4.7279300">
        <ele>896.0</ele>
        <time>2019-08-14T09:16:43Z</time>
      </trkpt>
      <trkpt lat="40.8613870" lon="-4.7278810">
        <ele>895.9</ele>
        <time>2019-08-14T09:16:44Z</time>
      </trkpt>
      <trkpt lat="40.8614410" lon="-4.7278320">
        <ele>895.9</ele>
        <time>2019-08-14T09:16:45Z</time>
      </trkpt>
      <trkpt lat="40.8614940" lon="-4.7277840">
        <ele>895.8</ele>
        <time>2019-08-14T09:16:46Z</time>
      </trkpt>
      <trkpt lat="40.8615450" lon="-4.7277360">
        <ele>895.7</ele>
        <time>2019-08-14T09:16:47Z</time>
      </trkpt>
      <trkpt lat="40.8615970" lon="-4.7276900">
        <ele>895.7</ele>
        <time>2019-08-14T09:16:48Z</time>
      </trkpt>
      <trkpt lat="40.8616490" lon="-4.7276440">
        <ele>895.6</ele>
        <time>2019-08-14T09:16:49Z</time>
      </trkpt>
      <trkpt lat="40.8616970" lon="-4.7275990">
        <ele>895.5</ele>
        <time>2019-08-14T09:16:50Z</time>
      </trkpt>
      <trkpt lat="40.8617440" lon="-4.7275530">
        <ele>895.4</ele>
        <time>2019-08-14T09:16:51Z</time>
      </trkpt>
      <trkpt lat="40.8617920" lon="-4.7275090">
        <ele>895.4</ele>
        <time>2019-08-14T09:16:52Z</time>
      </trkpt>
      <trkpt lat="40.8618420" lon="-4.7274650">
        <ele>895.3</ele>
        <time>2019-08-14T09:16:53Z</time>
      </trkpt>
      <trkpt lat="40.8618930" lon="-4.7274210">
        <ele>895.2</ele>
        <time>2019-08-14T09:16:54Z</time>
      </trkpt>
      <trkpt lat="40.8619420" lon="-4.7273770">
        <ele>895.1</ele>
        <time>2019-08-14T09:16:55Z</time>
      </trkpt>
      <trkpt lat="40.8619910" lon="-4.7273340">
        <ele>895.0</ele>
        <time>2019-08-14T09:16:56Z</time>
      </trkpt>
      <trkpt lat="40.8620380" lon="-4.7272920">
        <ele>894.9</ele>
        <time>2019-08-14T09:16:57Z</time>
      </trkpt>
      <trkpt lat="40.8620840" lon="-4.7272490">
        <ele>894.9</ele>
        <time>2019-08-14T09:16:58Z</time>
      </trkpt>
      <trkpt lat="40.8621310" lon="-4.7272070">
        <ele>894.8</ele>
        <time>2019-08-14T09:16:59Z</time>
      </trkpt>
      <trkpt lat="40.8621770" lon="-4.7271670">
        <ele>894.8</ele>
        <time>2019-08-14T09:17:00Z</time>
      </trkpt>
      <trkpt lat="40.8622240" lon="-4.7271300">
        <ele>894.8</ele>
        <time>2019-08-14T09:17:01Z</time>
      </trkpt>
      <trkpt lat="40.8622690" lon="-4.7270930">
        <ele>894.8</ele>
        <time>2019-08-14T09:17:02Z</time>
      </trkpt>
      <trkpt lat="40.8623150" lon="-4.7270570">
        <ele>894.8</ele>
        <time>2019-08-14T09:17:03Z</time>
      </trkpt>
      <trkpt lat="40.8623600" lon="-4.7270230">
        <ele>894.8</ele>
        <time>2019-08-14T09:17:04Z</time>
      </trkpt>
      <trkpt lat="40.8624060" lon="-4.7269870">
        <ele>894.9</ele>
        <time>2019-08-14T09:17:05Z</time>
      </trkpt>
      <trkpt lat="40.8624520" lon="-4.7269520">
        <ele>894.9</ele>
        <time>2019-08-14T09:17:06Z</time>
      </trkpt>
      <trkpt lat="40.8625010" lon="-4.7269170">
        <ele>894.8</ele>
        <time>2019-08-14T09:17:07Z</time>
      </trkpt>
      <trkpt lat="40.8625490" lon="-4.7268840">
        <ele>894.8</ele>
        <time>2019-08-14T09:17:08Z</time>
      </trkpt>
      <trkpt lat="40.8625980" lon="-4.7268510">
        <ele>894.7</ele>
        <time>2019-08-14T09:17:09Z</time>
      </trkpt>
      <trkpt lat="40.8626500" lon="-4.7268190">
        <ele>894.6</ele>
        <time>2019-08-14T09:17:10Z</time>
      </trkpt>
      <trkpt lat="40.8627030" lon="-4.7267870">
        <ele>894.5</ele>
        <time>2019-08-14T09:17:11Z</time>
      </trkpt>
      <trkpt lat="40.8627570" lon="-4.7267550">
        <ele>894.4</ele>
        <time>2019-08-14T09:17:12Z</time>
      </trkpt>
      <trkpt lat="40.8628120" lon="-4.7267220">
        <ele>894.3</ele>
        <time>2019-08-14T09:17:13Z</time>
      </trkpt>
      <trkpt lat="40.8628670" lon="-4.7266910">
        <ele>894.2</ele>
        <time>2019-08-14T09:17:14Z</time>
      </trkpt>
      <trkpt lat="40.8629190" lon="-4.7266610">
        <ele>894.1</ele>
        <time>2019-08-14T09:17:15Z</time>
      </trkpt>
      <trkpt lat="40.8629720" lon="-4.7266330">
        <ele>893.9</ele>
        <time>2019-08-14T09:17:16Z</time>
      </trkpt>
      <trkpt lat="40.8630250" lon="-4.7266040">
        <ele>893.8</ele>
        <time>2019-08-14T09:17:17Z</time>
      </trkpt>
      <trkpt lat="40.8630800" lon="-4.7265770">
        <ele>893.7</ele>
        <time>2019-08-14T09:17:18Z</time>
      </trkpt>
      <trkpt lat="40.8631350" lon="-4.7265520">
        <ele>893.6</ele>
        <time>2019-08-14T09:17:19Z</time>
      </trkpt>
      <trkpt lat="40.8631900" lon="-4.7265270">
        <ele>893.5</ele>
        <time>2019-08-14T09:17:20Z</time>
      </trkpt>
      <trkpt lat="40.8632430" lon="-4.7264980">
        <ele>893.4</ele>
        <time>2019-08-14T09:17:21Z</time>
      </trkpt>
      <trkpt lat="40.8632970" lon="-4.7264690">
        <ele>893.2</ele>
        <time>2019-08-14T09:17:22Z</time>
      </trkpt>
      <trkpt lat="40.8633500" lon="-4.7264390">
        <ele>893.1</ele>
        <time>2019-08-14T09:17:23Z</time>
      </trkpt>
      <trkpt lat="40.8634040" lon="-4.7264100">
        <ele>893.0</ele>
        <time>2019-08-14T09:17:24Z</time>
      </trkpt>
      <trkpt lat="40.8634600" lon="-4.7263820">
        <ele>892.8</ele>
        <time>2019-08-14T09:17:25Z</time>
      </trkpt>
      <trkpt lat="40.8635180" lon="-4.7263560">
        <ele>892.6</ele>
        <time>2019-08-14T09:17:26Z</time>
      </trkpt>
      <trkpt lat="40.8635770" lon="-4.7263300">
        <ele>892.4</ele>
        <time>2019-08-14T09:17:27Z</time>
      </trkpt>
      <trkpt lat="40.8636350" lon="-4.7263030">
        <ele>892.3</ele>
        <time>2019-08-14T09:17:28Z</time>
      </trkpt>
      <trkpt lat="40.8636910" lon="-4.7262750">
        <ele>892.1</ele>
        <time>2019-08-14T09:17:29Z</time>
      </trkpt>
      <trkpt lat="40.8637440" lon="-4.7262440">
        <ele>891.9</ele>
        <time>2019-08-14T09:17:30Z</time>
      </trkpt>
      <trkpt lat="40.8637980" lon="-4.7262120">
        <ele>891.8</ele>
        <time>2019-08-14T09:17:31Z</time>
      </trkpt>
      <trkpt lat="40.8638530" lon="-4.7261800">
        <ele>891.6</ele>
        <time>2019-08-14T09:17:32Z</time>
      </trkpt>
      <trkpt lat="40.8639080" lon="-4.7261480">
        <ele>891.5</ele>
        <time>2019-08-14T09:17:33Z</time>
      </trkpt>
      <trkpt lat="40.8639620" lon="-4.7261180">
        <ele>891.4</ele>
        <time>2019-08-14T09:17:34Z</time>
      </trkpt>
      <trkpt lat="40.8640170" lon="-4.7260910">
        <ele>891.3</ele>
        <time>2019-08-14T09:17:35Z</time>
      </trkpt>
      <trkpt lat="40.8640710" lon="-4.7260620">
        <ele>891.3</ele>
        <time>2019-08-14T09:17:36Z</time>
      </trkpt>
      <trkpt lat="40.8641260" lon="-4.7260340">
        <ele>891.2</ele>
        <time>2019-08-14T09:17:37Z</time>
      </trkpt>
      <trkpt lat="40.8641810" lon="-4.7260070">
        <ele>891.2</ele>
        <time>2019-08-14T09:17:38Z</time>
      </trkpt>
      <trkpt lat="40.8642360" lon="-4.7259820">
        <ele>891.3</ele>
        <time>2019-08-14T09:17:39Z</time>
      </trkpt>
      <trkpt lat="40.8642900" lon="-4.7259550">
        <ele>891.4</ele>
        <time>2019-08-14T09:17:40Z</time>
      </trkpt>
      <trkpt lat="40.8643460" lon="-4.7259260">
        <ele>891.6</ele>
        <time>2019-08-14T09:17:41Z</time>
      </trkpt>
      <trkpt lat="40.8644020" lon="-4.7258960">
        <ele>891.6</ele>
        <time>2019-08-14T09:17:42Z</time>
      </trkpt>
      <trkpt lat="40.8644600" lon="-4.7258660">
        <ele>891.7</ele>
        <time>2019-08-14T09:17:43Z</time>
      </trkpt>
      <trkpt lat="40.8645190" lon="-4.7258370">
        <ele>891.8</ele>
        <time>2019-08-14T09:17:44Z</time>
      </trkpt>
      <trkpt lat="40.8645770" lon="-4.7258080">
        <ele>891.8</ele>
        <time>2019-08-14T09:17:45Z</time>
      </trkpt>
      <trkpt lat="40.8646340" lon="-4.7257810">
        <ele>891.8</ele>
        <time>2019-08-14T09:17:46Z</time>
      </trkpt>
      <trkpt lat="40.8646910" lon="-4.7257520">
        <ele>891.8</ele>
        <time>2019-08-14T09:17:47Z</time>
      </trkpt>
      <trkpt lat="40.8647460" lon="-4.7257230">
        <ele>891.9</ele>
        <time>2019-08-14T09:17:48Z</time>
      </trkpt>
      <trkpt lat="40.8648000" lon="-4.7256950">
        <ele>891.9</ele>
        <time>2019-08-14T09:17:49Z</time>
      </trkpt>
      <trkpt lat="40.8648550" lon="-4.7256660">
        <ele>891.9</ele>
        <time>2019-08-14T09:17:50Z</time>
      </trkpt>
      <trkpt lat="40.8649100" lon="-4.7256390">
        <ele>891.9</ele>
        <time>2019-08-14T09:17:51Z</time>
      </trkpt>
      <trkpt lat="40.8649650" lon="-4.7256110">
        <ele>891.9</ele>
        <time>2019-08-14T09:17:52Z</time>
      </trkpt>
      <trkpt lat="40.8650200" lon="-4.7255840">
        <ele>892.0</ele>
        <time>2019-08-14T09:17:53Z</time>
      </trkpt>
      <trkpt lat="40.8650750" lon="-4.7255560">
        <ele>892.0</ele>
        <time>2019-08-14T09:17:54Z</time>
      </trkpt>
      <trkpt lat="40.8651300" lon="-4.7255290">
        <ele>892.0</ele>
        <time>2019-08-14T09:17:55Z</time>
      </trkpt>
      <trkpt lat="40.8651840" lon="-4.7255010">
        <ele>892.0</ele>
        <time>2019-08-14T09:17:56Z</time>
      </trkpt>
      <trkpt lat="40.8652380" lon="-4.7254750">
        <ele>892.0</ele>
        <time>2019-08-14T09:17:57Z</time>
      </trkpt>
      <trkpt lat="40.8652890" lon="-4.7254470">
        <ele>892.0</ele>
        <time>2019-08-14T09:17:58Z</time>
      </trkpt>
      <trkpt lat="40.8653400" lon="-4.7254190">
        <ele>891.9</ele>
        <time>2019-08-14T09:17:59Z</time>
      </trkpt>
      <trkpt lat="40.8653920" lon="-4.7253930">
        <ele>891.8</ele>
        <time>2019-08-14T09:18:00Z</time>
      </trkpt>
      <trkpt lat="40.8654430" lon="-4.7253680">
        <ele>891.7</ele>
        <time>2019-08-14T09:18:01Z</time>
      </trkpt>
      <trkpt lat="40.8654950" lon="-4.7253400">
        <ele>891.6</ele>
        <time>2019-08-14T09:18:02Z</time>
      </trkpt>
      <trkpt lat="40.8655470" lon="-4.7253120">
        <ele>891.5</ele>
        <time>2019-08-14T09:18:03Z</time>
      </trkpt>
      <trkpt lat="40.8655990" lon="-4.7252840">
        <ele>891.3</ele>
        <time>2019-08-14T09:18:04Z</time>
      </trkpt>
      <trkpt lat="40.8656520" lon="-4.7252560">
        <ele>891.2</ele>
        <time>2019-08-14T09:18:05Z</time>
      </trkpt>
      <trkpt lat="40.8657040" lon="-4.7252280">
        <ele>891.1</ele>
        <time>2019-08-14T09:18:06Z</time>
      </trkpt>
      <trkpt lat="40.8657560" lon="-4.7252010">
        <ele>890.9</ele>
        <time>2019-08-14T09:18:07Z</time>
      </trkpt>
      <trkpt lat="40.8658080" lon="-4.7251750">
        <ele>890.8</ele>
        <time>2019-08-14T09:18:08Z</time>
      </trkpt>
      <trkpt lat="40.8658580" lon="-4.7251500">
        <ele>890.8</ele>
        <time>2019-08-14T09:18:09Z</time>
      </trkpt>
      <trkpt lat="40.8659070" lon="-4.7251260">
        <ele>890.7</ele>
        <time>2019-08-14T09:18:10Z</time>
      </trkpt>
      <trkpt lat="40.8659550" lon="-4.7251030">
        <ele>890.7</ele>
        <time>2019-08-14T09:18:11Z</time>
      </trkpt>
      <trkpt lat="40.8660010" lon="-4.7250790">
        <ele>890.7</ele>
        <time>2019-08-14T09:18:12Z</time>
      </trkpt>
      <trkpt lat="40.8660480" lon="-4.7250550">
        <ele>890.7</ele>
        <time>2019-08-14T09:18:13Z</time>
      </trkpt>
      <trkpt lat="40.8660970" lon="-4.7250320">
        <ele>890.7</ele>
        <time>2019-08-14T09:18:14Z</time>
      </trkpt>
      <trkpt lat="40.8661470" lon="-4.7250050">
        <ele>890.7</ele>
        <time>2019-08-14T09:18:15Z</time>
      </trkpt>
      <trkpt lat="40.8661990" lon="-4.7249760">
        <ele>890.6</ele>
        <time>2019-08-14T09:18:16Z</time>
      </trkpt>
      <trkpt lat="40.8662510" lon="-4.7249470">
        <ele>890.6</ele>
        <time>2019-08-14T09:18:17Z</time>
      </trkpt>
      <trkpt lat="40.8663040" lon="-4.7249180">
        <ele>890.6</ele>
        <time>2019-08-14T09:18:18Z</time>
      </trkpt>
      <trkpt lat="40.8663570" lon="-4.7248910">
        <ele>890.5</ele>
        <time>2019-08-14T09:18:19Z</time>
      </trkpt>
      <trkpt lat="40.8664110" lon="-4.7248620">
        <ele>890.4</ele>
        <time>2019-08-14T09:18:20Z</time>
      </trkpt>
      <trkpt lat="40.8664640" lon="-4.7248340">
        <ele>890.3</ele>
        <time>2019-08-14T09:18:21Z</time>
      </trkpt>
      <trkpt lat="40.8665180" lon="-4.7248070">
        <ele>890.2</ele>
        <time>2019-08-14T09:18:22Z</time>
      </trkpt>
      <trkpt lat="40.8665720" lon="-4.7247790">
        <ele>890.1</ele>
        <time>2019-08-14T09:18:23Z</time>
      </trkpt>
      <trkpt lat="40.8666270" lon="-4.7247520">
        <ele>889.9</ele>
        <time>2019-08-14T09:18:24Z</time>
      </trkpt>
      <trkpt lat="40.8666820" lon="-4.7247250">
        <ele>889.7</ele>
        <time>2019-08-14T09:18:25Z</time>
      </trkpt>
      <trkpt lat="40.8667380" lon="-4.7246970">
        <ele>889.5</ele>
        <time>2019-08-14T09:18:26Z</time>
      </trkpt>
      <trkpt lat="40.8667930" lon="-4.7246690">
        <ele>889.3</ele>
        <time>2019-08-14T09:18:27Z</time>
      </trkpt>
      <trkpt lat="40.8668470" lon="-4.7246410">
        <ele>889.1</ele>
        <time>2019-08-14T09:18:28Z</time>
      </trkpt>
      <trkpt lat="40.8669030" lon="-4.7246110">
        <ele>888.9</ele>
        <time>2019-08-14T09:18:29Z</time>
      </trkpt>
      <trkpt lat="40.8669600" lon="-4.7245820">
        <ele>888.8</ele>
        <time>2019-08-14T09:18:30Z</time>
      </trkpt>
      <trkpt lat="40.8670160" lon="-4.7245520">
        <ele>888.6</ele>
        <time>2019-08-14T09:18:31Z</time>
      </trkpt>
      <trkpt lat="40.8670730" lon="-4.7245210">
        <ele>888.6</ele>
        <time>2019-08-14T09:18:32Z</time>
      </trkpt>
      <trkpt lat="40.8671300" lon="-4.7244910">
        <ele>888.5</ele>
        <time>2019-08-14T09:18:33Z</time>
      </trkpt>
      <trkpt lat="40.8671870" lon="-4.7244620">
        <ele>888.6</ele>
        <time>2019-08-14T09:18:34Z</time>
      </trkpt>
      <trkpt lat="40.8672450" lon="-4.7244320">
        <ele>888.7</ele>
        <time>2019-08-14T09:18:35Z</time>
      </trkpt>
      <trkpt lat="40.8673040" lon="-4.7244020">
        <ele>888.9</ele>
        <time>2019-08-14T09:18:36Z</time>
      </trkpt>
      <trkpt lat="40.8673620" lon="-4.7243720">
        <ele>889.1</ele>
        <time>2019-08-14T09:18:37Z</time>
      </trkpt>
      <trkpt lat="40.8674210" lon="-4.7243410">
        <ele>889.3</ele>
        <time>2019-08-14T09:18:38Z</time>
      </trkpt>
      <trkpt lat="40.8674790" lon="-4.7243090">
        <ele>889.6</ele>
        <time>2019-08-14T09:18:39Z</time>
      </trkpt>
      <trkpt lat="40.8675380" lon="-4.7242770">
        <ele>889.9</ele>
        <time>2019-08-14T09:18:40Z</time>
      </trkpt>
      <trkpt lat="40.8675980" lon="-4.7242470">
        <ele>890.0</ele>
        <time>2019-08-14T09:18:41Z</time>
      </trkpt>
      <trkpt lat="40.8676570" lon="-4.7242140">
        <ele>890.2</ele>
        <time>2019-08-14T09:18:42Z</time>
      </trkpt>
      <trkpt lat="40.8677160" lon="-4.7241790">
        <ele>890.3</ele>
        <time>2019-08-14T09:18:43Z</time>
      </trkpt>
      <trkpt lat="40.8677740" lon="-4.7241460">
        <ele>890.3</ele>
        <time>2019-08-14T09:18:44Z</time>
      </trkpt>
      <trkpt lat="40.8678330" lon="-4.7241140">
        <ele>890.4</ele>
        <time>2019-08-14T09:18:45Z</time>
      </trkpt>
      <trkpt lat="40.8678910" lon="-4.7240810">
        <ele>890.4</ele>
        <time>2019-08-14T09:18:46Z</time>
      </trkpt>
      <trkpt lat="40.8679490" lon="-4.7240470">
        <ele>890.4</ele>
        <time>2019-08-14T09:18:47Z</time>
      </trkpt>
      <trkpt lat="40.8680080" lon="-4.7240120">
        <ele>890.4</ele>
        <time>2019-08-14T09:18:48Z</time>
      </trkpt>
      <trkpt lat="40.8680670" lon="-4.7239780">
        <ele>890.4</ele>
        <time>2019-08-14T09:18:49Z</time>
      </trkpt>
      <trkpt lat="40.8681250" lon="-4.7239410">
        <ele>890.4</ele>
        <time>2019-08-14T09:18:50Z</time>
      </trkpt>
      <trkpt lat="40.8681830" lon="-4.7239030">
        <ele>890.5</ele>
        <time>2019-08-14T09:18:51Z</time>
      </trkpt>
      <trkpt lat="40.8682410" lon="-4.7238680">
        <ele>890.5</ele>
        <time>2019-08-14T09:18:52Z</time>
      </trkpt>
      <trkpt lat="40.8683000" lon="-4.7238300">
        <ele>890.5</ele>
        <time>2019-08-14T09:18:53Z</time>
      </trkpt>
      <trkpt lat="40.8683580" lon="-4.7237900">
        <ele>890.5</ele>
        <time>2019-08-14T09:18:54Z</time>
      </trkpt>
      <trkpt lat="40.8684180" lon="-4.7237490">
        <ele>890.5</ele>
        <time>2019-08-14T09:18:55Z</time>
      </trkpt>
      <trkpt lat="40.8684820" lon="-4.7237070">
        <ele>890.6</ele>
        <time>2019-08-14T09:18:56Z</time>
      </trkpt>
      <trkpt lat="40.8685500" lon="-4.7236640">
        <ele>890.7</ele>
        <time>2019-08-14T09:18:57Z</time>
      </trkpt>
      <trkpt lat="40.8686200" lon="-4.7236200">
        <ele>890.7</ele>
        <time>2019-08-14T09:18:58Z</time>
      </trkpt>
      <trkpt lat="40.8686920" lon="-4.7235750">
        <ele>890.8</ele>
        <time>2019-08-14T09:18:59Z</time>
      </trkpt>
      <trkpt lat="40.8687640" lon="-4.7235280">
        <ele>890.9</ele>
        <time>2019-08-14T09:19:00Z</time>
      </trkpt>
      <trkpt lat="40.8688370" lon="-4.7234810">
        <ele>890.9</ele>
        <time>2019-08-14T09:19:01Z</time>
      </trkpt>
      <trkpt lat="40.8689110" lon="-4.7234350">
        <ele>890.9</ele>
        <time>2019-08-14T09:19:02Z</time>
      </trkpt>
      <trkpt lat="40.8689850" lon="-4.7233890">
        <ele>890.8</ele>
        <time>2019-08-14T09:19:03Z</time>
      </trkpt>
      <trkpt lat="40.8690590" lon="-4.7233420">
        <ele>890.8</ele>
        <time>2019-08-14T09:19:04Z</time>
      </trkpt>
      <trkpt lat="40.8691320" lon="-4.7232960">
        <ele>890.7</ele>
        <time>2019-08-14T09:19:05Z</time>
      </trkpt>
      <trkpt lat="40.8692070" lon="-4.7232520">
        <ele>890.5</ele>
        <time>2019-08-14T09:19:06Z</time>
      </trkpt>
      <trkpt lat="40.8692790" lon="-4.7232060">
        <ele>890.3</ele>
        <time>2019-08-14T09:19:07Z</time>
      </trkpt>
      <trkpt lat="40.8693520" lon="-4.7231600">
        <ele>890.1</ele>
        <time>2019-08-14T09:19:08Z</time>
      </trkpt>
      <trkpt lat="40.8694230" lon="-4.7231150">
        <ele>889.8</ele>
        <time>2019-08-14T09:19:09Z</time>
      </trkpt>
      <trkpt lat="40.8694900" lon="-4.7230720">
        <ele>889.6</ele>
        <time>2019-08-14T09:19:10Z</time>
      </trkpt>
      <trkpt lat="40.8695560" lon="-4.7230290">
        <ele>889.3</ele>
        <time>2019-08-14T09:19:11Z</time>
      </trkpt>
      <trkpt lat="40.8696190" lon="-4.7229880">
        <ele>889.1</ele>
        <time>2019-08-14T09:19:12Z</time>
      </trkpt>
      <trkpt lat="40.8696810" lon="-4.7229460">
        <ele>889.0</ele>
        <time>2019-08-14T09:19:13Z</time>
      </trkpt>
      <trkpt lat="40.8697430" lon="-4.7229080">
        <ele>888.9</ele>
        <time>2019-08-14T09:19:14Z</time>
      </trkpt>
      <trkpt lat="40.8698030" lon="-4.7228710">
        <ele>888.8</ele>
        <time>2019-08-14T09:19:15Z</time>
      </trkpt>
      <trkpt lat="40.8698630" lon="-4.7228330">
        <ele>888.7</ele>
        <time>2019-08-14T09:19:16Z</time>
      </trkpt>
      <trkpt lat="40.8699230" lon="-4.7227950">
        <ele>888.7</ele>
        <time>2019-08-14T09:19:17Z</time>
      </trkpt>
      <trkpt lat="40.8699840" lon="-4.7227580">
        <ele>888.6</ele>
        <time>2019-08-14T09:19:18Z</time>
      </trkpt>
      <trkpt lat="40.8700430" lon="-4.7227200">
        <ele>888.5</ele>
        <time>2019-08-14T09:19:19Z</time>
      </trkpt>
      <trkpt lat="40.8701020" lon="-4.7226820">
        <ele>888.4</ele>
        <time>2019-08-14T09:19:20Z</time>
      </trkpt>
      <trkpt lat="40.8701610" lon="-4.7226460">
        <ele>888.3</ele>
        <time>2019-08-14T09:19:21Z</time>
      </trkpt>
      <trkpt lat="40.8702180" lon="-4.7226100">
        <ele>888.2</ele>
        <time>2019-08-14T09:19:22Z</time>
      </trkpt>
      <trkpt lat="40.8702750" lon="-4.7225740">
        <ele>888.1</ele>
        <time>2019-08-14T09:19:23Z</time>
      </trkpt>
      <trkpt lat="40.8703310" lon="-4.7225390">
        <ele>888.0</ele>
        <time>2019-08-14T09:19:24Z</time>
      </trkpt>
      <trkpt lat="40.8703870" lon="-4.7225040">
        <ele>888.0</ele>
        <time>2019-08-14T09:19:25Z</time>
      </trkpt>
      <trkpt lat="40.8704410" lon="-4.7224690">
        <ele>888.0</ele>
        <time>2019-08-14T09:19:26Z</time>
      </trkpt>
      <trkpt lat="40.8704940" lon="-4.7224350">
        <ele>888.0</ele>
        <time>2019-08-14T09:19:27Z</time>
      </trkpt>
      <trkpt lat="40.8705470" lon="-4.7224000">
        <ele>888.0</ele>
        <time>2019-08-14T09:19:28Z</time>
      </trkpt>
      <trkpt lat="40.8705970" lon="-4.7223690">
        <ele>888.0</ele>
        <time>2019-08-14T09:19:29Z</time>
      </trkpt>
      <trkpt lat="40.8706480" lon="-4.7223400">
        <ele>888.1</ele>
        <time>2019-08-14T09:19:30Z</time>
      </trkpt>
      <trkpt lat="40.8706980" lon="-4.7223100">
        <ele>888.1</ele>
        <time>2019-08-14T09:19:31Z</time>
      </trkpt>
      <trkpt lat="40.8707460" lon="-4.7222780">
        <ele>888.2</ele>
        <time>2019-08-14T09:19:32Z</time>
      </trkpt>
      <trkpt lat="40.8707960" lon="-4.7222470">
        <ele>888.2</ele>
        <time>2019-08-14T09:19:33Z</time>
      </trkpt>
      <trkpt lat="40.8708450" lon="-4.7222150">
        <ele>888.3</ele>
        <time>2019-08-14T09:19:34Z</time>
      </trkpt>
      <trkpt lat="40.8708940" lon="-4.7221830">
        <ele>888.3</ele>
        <time>2019-08-14T09:19:35Z</time>
      </trkpt>
      <trkpt lat="40.8709440" lon="-4.7221500">
        <ele>888.4</ele>
        <time>2019-08-14T09:19:36Z</time>
      </trkpt>
      <trkpt lat="40.8709940" lon="-4.7221180">
        <ele>888.5</ele>
        <time>2019-08-14T09:19:37Z</time>
      </trkpt>
      <trkpt lat="40.8710460" lon="-4.7220850">
        <ele>888.6</ele>
        <time>2019-08-14T09:19:38Z</time>
      </trkpt>
      <trkpt lat="40.8710980" lon="-4.7220510">
        <ele>888.7</ele>
        <time>2019-08-14T09:19:39Z</time>
      </trkpt>
      <trkpt lat="40.8711520" lon="-4.7220170">
        <ele>888.7</ele>
        <time>2019-08-14T09:19:40Z</time>
      </trkpt>
      <trkpt lat="40.8712070" lon="-4.7219830">
        <ele>888.8</ele>
        <time>2019-08-14T09:19:41Z</time>
      </trkpt>
      <trkpt lat="40.8712610" lon="-4.7219490">
        <ele>888.8</ele>
        <time>2019-08-14T09:19:42Z</time>
      </trkpt>
      <trkpt lat="40.8713170" lon="-4.7219110">
        <ele>888.7</ele>
        <time>2019-08-14T09:19:43Z</time>
      </trkpt>
      <trkpt lat="40.8713730" lon="-4.7218740">
        <ele>888.6</ele>
        <time>2019-08-14T09:19:44Z</time>
      </trkpt>
      <trkpt lat="40.8714310" lon="-4.7218370">
        <ele>888.5</ele>
        <time>2019-08-14T09:19:45Z</time>
      </trkpt>
      <trkpt lat="40.8714880" lon="-4.7218000">
        <ele>888.3</ele>
        <time>2019-08-14T09:19:46Z</time>
      </trkpt>
      <trkpt lat="40.8715450" lon="-4.7217640">
        <ele>888.1</ele>
        <time>2019-08-14T09:19:47Z</time>
      </trkpt>
      <trkpt lat="40.8716030" lon="-4.7217260">
        <ele>887.9</ele>
        <time>2019-08-14T09:19:48Z</time>
      </trkpt>
      <trkpt lat="40.8716610" lon="-4.7216900">
        <ele>887.7</ele>
        <time>2019-08-14T09:19:49Z</time>
      </trkpt>
      <trkpt lat="40.8717180" lon="-4.7216540">
        <ele>887.5</ele>
        <time>2019-08-14T09:19:50Z</time>
      </trkpt>
      <trkpt lat="40.8717770" lon="-4.7216180">
        <ele>887.3</ele>
        <time>2019-08-14T09:19:51Z</time>
      </trkpt>
      <trkpt lat="40.8718340" lon="-4.7215830">
        <ele>887.1</ele>
        <time>2019-08-14T09:19:52Z</time>
      </trkpt>
      <trkpt lat="40.8718910" lon="-4.7215460">
        <ele>887.0</ele>
        <time>2019-08-14T09:19:53Z</time>
      </trkpt>
      <trkpt lat="40.8719480" lon="-4.7215130">
        <ele>886.9</ele>
        <time>2019-08-14T09:19:54Z</time>
      </trkpt>
      <trkpt lat="40.8720050" lon="-4.7214780">
        <ele>886.8</ele>
        <time>2019-08-14T09:19:55Z</time>
      </trkpt>
      <trkpt lat="40.8720610" lon="-4.7214420">
        <ele>886.8</ele>
        <time>2019-08-14T09:19:56Z</time>
      </trkpt>
      <trkpt lat="40.8721170" lon="-4.7214060">
        <ele>886.8</ele>
        <time>2019-08-14T09:19:57Z</time>
      </trkpt>
      <trkpt lat="40.8721740" lon="-4.7213700">
        <ele>886.8</ele>
        <time>2019-08-14T09:19:58Z</time>
      </trkpt>
      <trkpt lat="40.8722300" lon="-4.7213340">
        <ele>886.8</ele>
        <time>2019-08-14T09:19:59Z</time>
      </trkpt>
      <trkpt lat="40.8722870" lon="-4.7212980">
        <ele>886.8</ele>
        <time>2019-08-14T09:20:00Z</time>
      </trkpt>
      <trkpt lat="40.8723440" lon="-4.7212620">
        <ele>886.8</ele>
        <time>2019-08-14T09:20:01Z</time>
      </trkpt>
      <trkpt lat="40.8724000" lon="-4.7212260">
        <ele>886.7</ele>
        <time>2019-08-14T09:20:02Z</time>
      </trkpt>
      <trkpt lat="40.8724560" lon="-4.7211900">
        <ele>886.7</ele>
        <time>2019-08-14T09:20:03Z</time>
      </trkpt>
      <trkpt lat="40.8725130" lon="-4.7211550">
        <ele>886.7</ele>
        <time>2019-08-14T09:20:04Z</time>
      </trkpt>
      <trkpt lat="40.8725690" lon="-4.7211180">
        <ele>886.7</ele>
        <time>2019-08-14T09:20:05Z</time>
      </trkpt>
      <trkpt lat="40.8726270" lon="-4.7210810">
        <ele>886.8</ele>
        <time>2019-08-14T09:20:06Z</time>
      </trkpt>
      <trkpt lat="40.8726840" lon="-4.7210460">
        <ele>886.8</ele>
        <time>2019-08-14T09:20:07Z</time>
      </trkpt>
      <trkpt lat="40.8727410" lon="-4.7210090">
        <ele>886.9</ele>
        <time>2019-08-14T09:20:08Z</time>
      </trkpt>
      <trkpt lat="40.8727990" lon="-4.7209720">
        <ele>886.9</ele>
        <time>2019-08-14T09:20:09Z</time>
      </trkpt>
      <trkpt lat="40.8728570" lon="-4.7209350">
        <ele>886.9</ele>
        <time>2019-08-14T09:20:10Z</time>
      </trkpt>
      <trkpt lat="40.8729160" lon="-4.7209000">
        <ele>886.9</ele>
        <time>2019-08-14T09:20:11Z</time>
      </trkpt>
      <trkpt lat="40.8729730" lon="-4.7208660">
        <ele>886.9</ele>
        <time>2019-08-14T09:20:12Z</time>
      </trkpt>
      <trkpt lat="40.8730290" lon="-4.7208300">
        <ele>886.8</ele>
        <time>2019-08-14T09:20:13Z</time>
      </trkpt>
      <trkpt lat="40.8730830" lon="-4.7207970">
        <ele>886.8</ele>
        <time>2019-08-14T09:20:14Z</time>
      </trkpt>
      <trkpt lat="40.8731350" lon="-4.7207610">
        <ele>886.7</ele>
        <time>2019-08-14T09:20:15Z</time>
      </trkpt>
      <trkpt lat="40.8731900" lon="-4.7207280">
        <ele>886.5</ele>
        <time>2019-08-14T09:20:16Z</time>
      </trkpt>
      <trkpt lat="40.8732460" lon="-4.7206930">
        <ele>886.4</ele>
        <time>2019-08-14T09:20:17Z</time>
      </trkpt>
      <trkpt lat="40.8733000" lon="-4.7206580">
        <ele>886.2</ele>
        <time>2019-08-14T09:20:18Z</time>
      </trkpt>
      <trkpt lat="40.8733560" lon="-4.7206200">
        <ele>886.1</ele>
        <time>2019-08-14T09:20:19Z</time>
      </trkpt>
      <trkpt lat="40.8734140" lon="-4.7205830">
        <ele>886.0</ele>
        <time>2019-08-14T09:20:20Z</time>
      </trkpt>
      <trkpt lat="40.8734710" lon="-4.7205460">
        <ele>885.8</ele>
        <time>2019-08-14T09:20:21Z</time>
      </trkpt>
      <trkpt lat="40.8735290" lon="-4.7205100">
        <ele>885.7</ele>
        <time>2019-08-14T09:20:22Z</time>
      </trkpt>
      <trkpt lat="40.8735860" lon="-4.7204740">
        <ele>885.6</ele>
        <time>2019-08-14T09:20:23Z</time>
      </trkpt>
      <trkpt lat="40.8736440" lon="-4.7204380">
        <ele>885.5</ele>
        <time>2019-08-14T09:20:24Z</time>
      </trkpt>
      <trkpt lat="40.8737020" lon="-4.7204020">
        <ele>885.4</ele>
        <time>2019-08-14T09:20:25Z</time>
      </trkpt>
      <trkpt lat="40.8737610" lon="-4.7203640">
        <ele>885.4</ele>
        <time>2019-08-14T09:20:26Z</time>
      </trkpt>
      <trkpt lat="40.8738210" lon="-4.7203260">
        <ele>885.5</ele>
        <time>2019-08-14T09:20:27Z</time>
      </trkpt>
      <trkpt lat="40.8738820" lon="-4.7202880">
        <ele>885.6</ele>
        <time>2019-08-14T09:20:28Z</time>
      </trkpt>
      <trkpt lat="40.8739430" lon="-4.7202490">
        <ele>885.8</ele>
        <time>2019-08-14T09:20:29Z</time>
      </trkpt>
      <trkpt lat="40.8740050" lon="-4.7202090">
        <ele>886.0</ele>
        <time>2019-08-14T09:20:30Z</time>
      </trkpt>
      <trkpt lat="40.8740670" lon="-4.7201690">
        <ele>886.2</ele>
        <time>2019-08-14T09:20:31Z</time>
      </trkpt>
      <trkpt lat="40.8741310" lon="-4.7201290">
        <ele>886.4</ele>
        <time>2019-08-14T09:20:32Z</time>
      </trkpt>
      <trkpt lat="40.8741940" lon="-4.7200890">
        <ele>886.5</ele>
        <time>2019-08-14T09:20:33Z</time>
      </trkpt>
      <trkpt lat="40.8742560" lon="-4.7200510">
        <ele>886.5</ele>
        <time>2019-08-14T09:20:34Z</time>
      </trkpt>
      <trkpt lat="40.8743170" lon="-4.7200130">
        <ele>886.4</ele>
        <time>2019-08-14T09:20:35Z</time>
      </trkpt>
      <trkpt lat="40.8743790" lon="-4.7199760">
        <ele>886.2</ele>
        <time>2019-08-14T09:20:36Z</time>
      </trkpt>
      <trkpt lat="40.8744400" lon="-4.7199380">
        <ele>886.0</ele>
        <time>2019-08-14T09:20:37Z</time>
      </trkpt>
      <trkpt lat="40.8744990" lon="-4.7199000">
        <ele>885.7</ele>
        <time>2019-08-14T09:20:38Z</time>
      </trkpt>
      <trkpt lat="40.8745570" lon="-4.7198620">
        <ele>885.4</ele>
        <time>2019-08-14T09:20:39Z</time>
      </trkpt>
      <trkpt lat="40.8746150" lon="-4.7198240">
        <ele>885.2</ele>
        <time>2019-08-14T09:20:40Z</time>
      </trkpt>
      <trkpt lat="40.8746720" lon="-4.7197870">
        <ele>885.0</ele>
        <time>2019-08-14T09:20:41Z</time>
      </trkpt>
      <trkpt lat="40.8747280" lon="-4.7197490">
        <ele>884.9</ele>
        <time>2019-08-14T09:20:42Z</time>
      </trkpt>
      <trkpt lat="40.8747860" lon="-4.7197110">
        <ele>884.9</ele>
        <time>2019-08-14T09:20:43Z</time>
      </trkpt>
      <trkpt lat="40.8748450" lon="-4.7196740">
        <ele>884.9</ele>
        <time>2019-08-14T09:20:44Z</time>
      </trkpt>
      <trkpt lat="40.8749050" lon="-4.7196360">
        <ele>884.9</ele>
        <time>2019-08-14T09:20:45Z</time>
      </trkpt>
      <trkpt lat="40.8749650" lon="-4.7195990">
        <ele>885.0</ele>
        <time>2019-08-14T09:20:46Z</time>
      </trkpt>
      <trkpt lat="40.8750250" lon="-4.7195600">
        <ele>885.1</ele>
        <time>2019-08-14T09:20:47Z</time>
      </trkpt>
      <trkpt lat="40.8750850" lon="-4.7195200">
        <ele>885.1</ele>
        <time>2019-08-14T09:20:48Z</time>
      </trkpt>
      <trkpt lat="40.8751440" lon="-4.7194810">
        <ele>885.1</ele>
        <time>2019-08-14T09:20:49Z</time>
      </trkpt>
      <trkpt lat="40.8752030" lon="-4.7194420">
        <ele>885.1</ele>
        <time>2019-08-14T09:20:50Z</time>
      </trkpt>
      <trkpt lat="40.8752630" lon="-4.7194040">
        <ele>885.1</ele>
        <time>2019-08-14T09:20:51Z</time>
      </trkpt>
      <trkpt lat="40.8753220" lon="-4.7193660">
        <ele>885.0</ele>
        <time>2019-08-14T09:20:52Z</time>
      </trkpt>
      <trkpt lat="40.8753810" lon="-4.7193290">
        <ele>885.0</ele>
        <time>2019-08-14T09:20:53Z</time>
      </trkpt>
      <trkpt lat="40.8754400" lon="-4.7192930">
        <ele>884.9</ele>
        <time>2019-08-14T09:20:54Z</time>
      </trkpt>
      <trkpt lat="40.8754990" lon="-4.7192560">
        <ele>884.9</ele>
        <time>2019-08-14T09:20:55Z</time>
      </trkpt>
      <trkpt lat="40.8755580" lon="-4.7192180">
        <ele>884.9</ele>
        <time>2019-08-14T09:20:56Z</time>
      </trkpt>
      <trkpt lat="40.8756170" lon="-4.7191800">
        <ele>884.9</ele>
        <time>2019-08-14T09:20:57Z</time>
      </trkpt>
      <trkpt lat="40.8756740" lon="-4.7191450">
        <ele>885.0</ele>
        <time>2019-08-14T09:20:58Z</time>
      </trkpt>
      <trkpt lat="40.8757330" lon="-4.7191090">
        <ele>885.0</ele>
        <time>2019-08-14T09:20:59Z</time>
      </trkpt>
      <trkpt lat="40.8757900" lon="-4.7190750">
        <ele>885.1</ele>
        <time>2019-08-14T09:21:00Z</time>
      </trkpt>
      <trkpt lat="40.8758450" lon="-4.7190400">
        <ele>885.1</ele>
        <time>2019-08-14T09:21:01Z</time>
      </trkpt>
      <trkpt lat="40.8759000" lon="-4.7190050">
        <ele>885.1</ele>
        <time>2019-08-14T09:21:02Z</time>
      </trkpt>
      <trkpt lat="40.8759560" lon="-4.7189670">
        <ele>885.1</ele>
        <time>2019-08-14T09:21:03Z</time>
      </trkpt>
      <trkpt lat="40.8760130" lon="-4.7189310">
        <ele>885.1</ele>
        <time>2019-08-14T09:21:04Z</time>
      </trkpt>
      <trkpt lat="40.8760710" lon="-4.7188950">
        <ele>885.1</ele>
        <time>2019-08-14T09:21:05Z</time>
      </trkpt>
      <trkpt lat="40.8761290" lon="-4.7188600">
        <ele>885.2</ele>
        <time>2019-08-14T09:21:06Z</time>
      </trkpt>
      <trkpt lat="40.8761850" lon="-4.7188240">
        <ele>885.2</ele>
        <time>2019-08-14T09:21:07Z</time>
      </trkpt>
      <trkpt lat="40.8762430" lon="-4.7187880">
        <ele>885.4</ele>
        <time>2019-08-14T09:21:08Z</time>
      </trkpt>
      <trkpt lat="40.8762990" lon="-4.7187530">
        <ele>885.6</ele>
        <time>2019-08-14T09:21:09Z</time>
      </trkpt>
      <trkpt lat="40.8763550" lon="-4.7187190">
        <ele>885.8</ele>
        <time>2019-08-14T09:21:10Z</time>
      </trkpt>
      <trkpt lat="40.8764080" lon="-4.7186860">
        <ele>886.1</ele>
        <time>2019-08-14T09:21:11Z</time>
      </trkpt>
      <trkpt lat="40.8764590" lon="-4.7186550">
        <ele>886.3</ele>
        <time>2019-08-14T09:21:12Z</time>
      </trkpt>
      <trkpt lat="40.8765100" lon="-4.7186240">
        <ele>886.6</ele>
        <time>2019-08-14T09:21:13Z</time>
      </trkpt>
      <trkpt lat="40.8765620" lon="-4.7185900">
        <ele>886.8</ele>
        <time>2019-08-14T09:21:14Z</time>
      </trkpt>
      <trkpt lat="40.8766140" lon="-4.7185580">
        <ele>887.0</ele>
        <time>2019-08-14T09:21:15Z</time>
      </trkpt>
      <trkpt lat="40.8766660" lon="-4.7185240">
        <ele>887.1</ele>
        <time>2019-08-14T09:21:16Z</time>
      </trkpt>
      <trkpt lat="40.8767190" lon="-4.7184900">
        <ele>887.2</ele>
        <time>2019-08-14T09:21:17Z</time>
      </trkpt>
      <trkpt lat="40.8767730" lon="-4.7184570">
        <ele>887.2</ele>
        <time>2019-08-14T09:21:18Z</time>
      </trkpt>
      <trkpt lat="40.8768280" lon="-4.7184230">
        <ele>887.1</ele>
        <time>2019-08-14T09:21:19Z</time>
      </trkpt>
      <trkpt lat="40.8768820" lon="-4.7183880">
        <ele>887.1</ele>
        <time>2019-08-14T09:21:20Z</time>
      </trkpt>
      <trkpt lat="40.8769370" lon="-4.7183530">
        <ele>887.0</ele>
        <time>2019-08-14T09:21:21Z</time>
      </trkpt>
      <trkpt lat="40.8769920" lon="-4.7183180">
        <ele>886.8</ele>
        <time>2019-08-14T09:21:22Z</time>
      </trkpt>
      <trkpt lat="40.8770480" lon="-4.7182840">
        <ele>886.7</ele>
        <time>2019-08-14T09:21:23Z</time>
      </trkpt>
      <trkpt lat="40.8771030" lon="-4.7182540">
        <ele>886.6</ele>
        <time>2019-08-14T09:21:24Z</time>
      </trkpt>
      <trkpt lat="40.8771580" lon="-4.7182200">
        <ele>886.5</ele>
        <time>2019-08-14T09:21:25Z</time>
      </trkpt>
      <trkpt lat="40.8772120" lon="-4.7181850">
        <ele>886.4</ele>
        <time>2019-08-14T09:21:26Z</time>
      </trkpt>
      <trkpt lat="40.8772660" lon="-4.7181500">
        <ele>886.3</ele>
        <time>2019-08-14T09:21:27Z</time>
      </trkpt>
      <trkpt lat="40.8773210" lon="-4.7181170">
        <ele>886.3</ele>
        <time>2019-08-14T09:21:28Z</time>
      </trkpt>
      <trkpt lat="40.8773770" lon="-4.7180860">
        <ele>886.3</ele>
        <time>2019-08-14T09:21:29Z</time>
      </trkpt>
      <trkpt lat="40.8774320" lon="-4.7180530">
        <ele>886.2</ele>
        <time>2019-08-14T09:21:30Z</time>
      </trkpt>
      <trkpt lat="40.8774890" lon="-4.7180210">
        <ele>886.2</ele>
        <time>2019-08-14T09:21:31Z</time>
      </trkpt>
      <trkpt lat="40.8775460" lon="-4.7179900">
        <ele>886.2</ele>
        <time>2019-08-14T09:21:32Z</time>
      </trkpt>
      <trkpt lat="40.8776020" lon="-4.7179600">
        <ele>886.2</ele>
        <time>2019-08-14T09:21:33Z</time>
      </trkpt>
      <trkpt lat="40.8776590" lon="-4.7179310">
        <ele>886.2</ele>
        <time>2019-08-14T09:21:34Z</time>
      </trkpt>
      <trkpt lat="40.8777180" lon="-4.7179030">
        <ele>886.3</ele>
        <time>2019-08-14T09:21:35Z</time>
      </trkpt>
      <trkpt lat="40.8777760" lon="-4.7178770">
        <ele>886.3</ele>
        <time>2019-08-14T09:21:36Z</time>
      </trkpt>
      <trkpt lat="40.8778340" lon="-4.7178510">
        <ele>886.4</ele>
        <time>2019-08-14T09:21:37Z</time>
      </trkpt>
      <trkpt lat="40.8778930" lon="-4.7178250">
        <ele>886.4</ele>
        <time>2019-08-14T09:21:38Z</time>
      </trkpt>
      <trkpt lat="40.8779530" lon="-4.7178010">
        <ele>886.5</ele>
        <time>2019-08-14T09:21:39Z</time>
      </trkpt>
      <trkpt lat="40.8780140" lon="-4.7177800">
        <ele>886.5</ele>
        <time>2019-08-14T09:21:40Z</time>
      </trkpt>
      <trkpt lat="40.8780740" lon="-4.7177610">
        <ele>886.5</ele>
        <time>2019-08-14T09:21:41Z</time>
      </trkpt>
      <trkpt lat="40.8781340" lon="-4.7177410">
        <ele>886.4</ele>
        <time>2019-08-14T09:21:42Z</time>
      </trkpt>
      <trkpt lat="40.8781930" lon="-4.7177220">
        <ele>886.3</ele>
        <time>2019-08-14T09:21:43Z</time>
      </trkpt>
      <trkpt lat="40.8782520" lon="-4.7177040">
        <ele>886.1</ele>
        <time>2019-08-14T09:21:44Z</time>
      </trkpt>
      <trkpt lat="40.8783100" lon="-4.7176880">
        <ele>885.9</ele>
        <time>2019-08-14T09:21:45Z</time>
      </trkpt>
      <trkpt lat="40.8783670" lon="-4.7176730">
        <ele>885.7</ele>
        <time>2019-08-14T09:21:46Z</time>
      </trkpt>
      <trkpt lat="40.8784250" lon="-4.7176580">
        <ele>885.4</ele>
        <time>2019-08-14T09:21:47Z</time>
      </trkpt>
      <trkpt lat="40.8784830" lon="-4.7176410">
        <ele>885.2</ele>
        <time>2019-08-14T09:21:48Z</time>
      </trkpt>
      <trkpt lat="40.8785430" lon="-4.7176260">
        <ele>885.1</ele>
        <time>2019-08-14T09:21:49Z</time>
      </trkpt>
      <trkpt lat="40.8786040" lon="-4.7176130">
        <ele>884.9</ele>
        <time>2019-08-14T09:21:50Z</time>
      </trkpt>
      <trkpt lat="40.8786660" lon="-4.7175990">
        <ele>884.9</ele>
        <time>2019-08-14T09:21:51Z</time>
      </trkpt>
      <trkpt lat="40.8787290" lon="-4.7175850">
        <ele>884.8</ele>
        <time>2019-08-14T09:21:52Z</time>
      </trkpt>
      <trkpt lat="40.8787920" lon="-4.7175690">
        <ele>884.8</ele>
        <time>2019-08-14T09:21:53Z</time>
      </trkpt>
      <trkpt lat="40.8788530" lon="-4.7175550">
        <ele>884.9</ele>
        <time>2019-08-14T09:21:54Z</time>
      </trkpt>
      <trkpt lat="40.8789160" lon="-4.7175410">
        <ele>885.0</ele>
        <time>2019-08-14T09:21:55Z</time>
      </trkpt>
      <trkpt lat="40.8789780" lon="-4.7175270">
        <ele>885.0</ele>
        <time>2019-08-14T09:21:56Z</time>
      </trkpt>
      <trkpt lat="40.8790420" lon="-4.7175140">
        <ele>885.0</ele>
        <time>2019-08-14T09:21:57Z</time>
      </trkpt>
      <trkpt lat="40.8791040" lon="-4.7175010">
        <ele>885.1</ele>
        <time>2019-08-14T09:21:58Z</time>
      </trkpt>
      <trkpt lat="40.8791660" lon="-4.7174870">
        <ele>885.1</ele>
        <time>2019-08-14T09:21:59Z</time>
      </trkpt>
      <trkpt lat="40.8792280" lon="-4.7174740">
        <ele>885.1</ele>
        <time>2019-08-14T09:22:00Z</time>
      </trkpt>
      <trkpt lat="40.8792890" lon="-4.7174610">
        <ele>885.1</ele>
        <time>2019-08-14T09:22:01Z</time>
      </trkpt>
      <trkpt lat="40.8793510" lon="-4.7174480">
        <ele>885.0</ele>
        <time>2019-08-14T09:22:02Z</time>
      </trkpt>
      <trkpt lat="40.8794130" lon="-4.7174380">
        <ele>884.9</ele>
        <time>2019-08-14T09:22:03Z</time>
      </trkpt>
      <trkpt lat="40.8794750" lon="-4.7174270">
        <ele>884.8</ele>
        <time>2019-08-14T09:22:04Z</time>
      </trkpt>
      <trkpt lat="40.8795370" lon="-4.7174150">
        <ele>884.6</ele>
        <time>2019-08-14T09:22:05Z</time>
      </trkpt>
      <trkpt lat="40.8796000" lon="-4.7174050">
        <ele>884.5</ele>
        <time>2019-08-14T09:22:06Z</time>
      </trkpt>
      <trkpt lat="40.8796620" lon="-4.7173960">
        <ele>884.3</ele>
        <time>2019-08-14T09:22:07Z</time>
      </trkpt>
      <trkpt lat="40.8797250" lon="-4.7173870">
        <ele>884.1</ele>
        <time>2019-08-14T09:22:08Z</time>
      </trkpt>
      <trkpt lat="40.8797880" lon="-4.7173790">
        <ele>883.9</ele>
        <time>2019-08-14T09:22:09Z</time>
      </trkpt>
      <trkpt lat="40.8798520" lon="-4.7173710">
        <ele>883.8</ele>
        <time>2019-08-14T09:22:10Z</time>
      </trkpt>
      <trkpt lat="40.8799160" lon="-4.7173650">
        <ele>883.7</ele>
        <time>2019-08-14T09:22:11Z</time>
      </trkpt>
      <trkpt lat="40.8799790" lon="-4.7173630">
        <ele>883.6</ele>
        <time>2019-08-14T09:22:12Z</time>
      </trkpt>
      <trkpt lat="40.8800430" lon="-4.7173630">
        <ele>883.5</ele>
        <time>2019-08-14T09:22:13Z</time>
      </trkpt>
      <trkpt lat="40.8801070" lon="-4.7173640">
        <ele>883.5</ele>
        <time>2019-08-14T09:22:14Z</time>
      </trkpt>
      <trkpt lat="40.8801710" lon="-4.7173680">
        <ele>883.5</ele>
        <time>2019-08-14T09:22:15Z</time>
      </trkpt>
      <trkpt lat="40.8802330" lon="-4.7173760">
        <ele>883.5</ele>
        <time>2019-08-14T09:22:16Z</time>
      </trkpt>
      <trkpt lat="40.8802940" lon="-4.7173860">
        <ele>883.6</ele>
        <time>2019-08-14T09:22:17Z</time>
      </trkpt>
      <trkpt lat="40.8803540" lon="-4.7173950">
        <ele>883.6</ele>
        <time>2019-08-14T09:22:18Z</time>
      </trkpt>
      <trkpt lat="40.8804110" lon="-4.7174050">
        <ele>883.7</ele>
        <time>2019-08-14T09:22:19Z</time>
      </trkpt>
      <trkpt lat="40.8804660" lon="-4.7174160">
        <ele>883.7</ele>
        <time>2019-08-14T09:22:20Z</time>
      </trkpt>
      <trkpt lat="40.8805190" lon="-4.7174280">
        <ele>883.8</ele>
        <time>2019-08-14T09:22:21Z</time>
      </trkpt>
      <trkpt lat="40.8805700" lon="-4.7174420">
        <ele>883.9</ele>
        <time>2019-08-14T09:22:22Z</time>
      </trkpt>
      <trkpt lat="40.8806220" lon="-4.7174550">
        <ele>883.9</ele>
        <time>2019-08-14T09:22:23Z</time>
      </trkpt>
      <trkpt lat="40.8806750" lon="-4.7174690">
        <ele>884.0</ele>
        <time>2019-08-14T09:22:24Z</time>
      </trkpt>
      <trkpt lat="40.8807290" lon="-4.7174850">
        <ele>884.1</ele>
        <time>2019-08-14T09:22:25Z</time>
      </trkpt>
      <trkpt lat="40.8807840" lon="-4.7174990">
        <ele>884.1</ele>
        <time>2019-08-14T09:22:26Z</time>
      </trkpt>
      <trkpt lat="40.8808400" lon="-4.7175130">
        <ele>884.2</ele>
        <time>2019-08-14T09:22:27Z</time>
      </trkpt>
      <trkpt lat="40.8808960" lon="-4.7175300">
        <ele>884.3</ele>
        <time>2019-08-14T09:22:28Z</time>
      </trkpt>
      <trkpt lat="40.8809530" lon="-4.7175470">
        <ele>884.4</ele>
        <time>2019-08-14T09:22:29Z</time>
      </trkpt>
      <trkpt lat="40.8810080" lon="-4.7175640">
        <ele>884.4</ele>
        <time>2019-08-14T09:22:30Z</time>
      </trkpt>
      <trkpt lat="40.8810620" lon="-4.7175820">
        <ele>884.5</ele>
        <time>2019-08-14T09:22:31Z</time>
      </trkpt>
      <trkpt lat="40.8811150" lon="-4.7175980">
        <ele>884.6</ele>
        <time>2019-08-14T09:22:32Z</time>
      </trkpt>
      <trkpt lat="40.8811670" lon="-4.7176140">
        <ele>884.7</ele>
        <time>2019-08-14T09:22:33Z</time>
      </trkpt>
      <trkpt lat="40.8812170" lon="-4.7176290">
        <ele>884.8</ele>
        <time>2019-08-14T09:22:34Z</time>
      </trkpt>
      <trkpt lat="40.8812670" lon="-4.7176430">
        <ele>884.9</ele>
        <time>2019-08-14T09:22:35Z</time>
      </trkpt>
      <trkpt lat="40.8813160" lon="-4.7176580">
        <ele>885.0</ele>
        <time>2019-08-14T09:22:36Z</time>
      </trkpt>
      <trkpt lat="40.8813640" lon="-4.7176730">
        <ele>885.2</ele>
        <time>2019-08-14T09:22:37Z</time>
      </trkpt>
      <trkpt lat="40.8814120" lon="-4.7176870">
        <ele>885.2</ele>
        <time>2019-08-14T09:22:38Z</time>
      </trkpt>
      <trkpt lat="40.8814580" lon="-4.7177000">
        <ele>885.2</ele>
        <time>2019-08-14T09:22:39Z</time>
      </trkpt>
      <trkpt lat="40.8815050" lon="-4.7177130">
        <ele>885.2</ele>
        <time>2019-08-14T09:22:40Z</time>
      </trkpt>
      <trkpt lat="40.8815540" lon="-4.7177270">
        <ele>885.2</ele>
        <time>2019-08-14T09:22:41Z</time>
      </trkpt>
      <trkpt lat="40.8816040" lon="-4.7177410">
        <ele>885.2</ele>
        <time>2019-08-14T09:22:42Z</time>
      </trkpt>
      <trkpt lat="40.8816530" lon="-4.7177560">
        <ele>885.2</ele>
        <time>2019-08-14T09:22:43Z</time>
      </trkpt>
      <trkpt lat="40.8817050" lon="-4.7177720">
        <ele>885.2</ele>
        <time>2019-08-14T09:22:44Z</time>
      </trkpt>
      <trkpt lat="40.8817560" lon="-4.7177880">
        <ele>885.2</ele>
        <time>2019-08-14T09:22:45Z</time>
      </trkpt>
      <trkpt lat="40.8818070" lon="-4.7178040">
        <ele>885.3</ele>
        <time>2019-08-14T09:22:46Z</time>
      </trkpt>
      <trkpt lat="40.8818590" lon="-4.7178220">
        <ele>885.4</ele>
        <time>2019-08-14T09:22:47Z</time>
      </trkpt>
      <trkpt lat="40.8819120" lon="-4.7178370">
        <ele>885.5</ele>
        <time>2019-08-14T09:22:48Z</time>
      </trkpt>
      <trkpt lat="40.8819640" lon="-4.7178520">
        <ele>885.6</ele>
        <time>2019-08-14T09:22:49Z</time>
      </trkpt>
      <trkpt lat="40.8820160" lon="-4.7178690">
        <ele>885.7</ele>
        <time>2019-08-14T09:22:50Z</time>
      </trkpt>
      <trkpt lat="40.8820680" lon="-4.7178850">
        <ele>885.8</ele>
        <time>2019-08-14T09:22:51Z</time>
      </trkpt>
      <trkpt lat="40.8821220" lon="-4.7179020">
        <ele>885.8</ele>
        <time>2019-08-14T09:22:52Z</time>
      </trkpt>
      <trkpt lat="40.8821770" lon="-4.7179170">
        <ele>885.9</ele>
        <time>2019-08-14T09:22:53Z</time>
      </trkpt>
      <trkpt lat="40.8822320" lon="-4.7179330">
        <ele>885.9</ele>
        <time>2019-08-14T09:22:54Z</time>
      </trkpt>
      <trkpt lat="40.8822860" lon="-4.7179490">
        <ele>886.0</ele>
        <time>2019-08-14T09:22:55Z</time>
      </trkpt>
      <trkpt lat="40.8823400" lon="-4.7179670">
        <ele>885.9</ele>
        <time>2019-08-14T09:22:56Z</time>
      </trkpt>
      <trkpt lat="40.8823950" lon="-4.7179850">
        <ele>885.9</ele>
        <time>2019-08-14T09:22:57Z</time>
      </trkpt>
      <trkpt lat="40.8824500" lon="-4.7180040">
        <ele>885.8</ele>
        <time>2019-08-14T09:22:58Z</time>
      </trkpt>
      <trkpt lat="40.8825050" lon="-4.7180210">
        <ele>885.8</ele>
        <time>2019-08-14T09:22:59Z</time>
      </trkpt>
      <trkpt lat="40.8825620" lon="-4.7180380">
        <ele>885.7</ele>
        <time>2019-08-14T09:23:00Z</time>
      </trkpt>
      <trkpt lat="40.8826200" lon="-4.7180550">
        <ele>885.6</ele>
        <time>2019-08-14T09:23:01Z</time>
      </trkpt>
      <trkpt lat="40.8826770" lon="-4.7180720">
        <ele>885.6</ele>
        <time>2019-08-14T09:23:02Z</time>
      </trkpt>
      <trkpt lat="40.8827360" lon="-4.7180900">
        <ele>885.6</ele>
        <time>2019-08-14T09:23:03Z</time>
      </trkpt>
      <trkpt lat="40.8827920" lon="-4.7181090">
        <ele>885.6</ele>
        <time>2019-08-14T09:23:04Z</time>
      </trkpt>
      <trkpt lat="40.8828490" lon="-4.7181260">
        <ele>885.6</ele>
        <time>2019-08-14T09:23:05Z</time>
      </trkpt>
      <trkpt lat="40.8829050" lon="-4.7181440">
        <ele>885.6</ele>
        <time>2019-08-14T09:23:06Z</time>
      </trkpt>
      <trkpt lat="40.8829590" lon="-4.7181630">
        <ele>885.6</ele>
        <time>2019-08-14T09:23:07Z</time>
      </trkpt>
      <trkpt lat="40.8830130" lon="-4.7181810">
        <ele>885.6</ele>
        <time>2019-08-14T09:23:08Z</time>
      </trkpt>
      <trkpt lat="40.8830680" lon="-4.7181960">
        <ele>885.6</ele>
        <time>2019-08-14T09:23:09Z</time>
      </trkpt>
      <trkpt lat="40.8831230" lon="-4.7182100">
        <ele>885.6</ele>
        <time>2019-08-14T09:23:10Z</time>
      </trkpt>
      <trkpt lat="40.8831780" lon="-4.7182240">
        <ele>885.6</ele>
        <time>2019-08-14T09:23:11Z</time>
      </trkpt>
      <trkpt lat="40.8832350" lon="-4.7182400">
        <ele>885.7</ele>
        <time>2019-08-14T09:23:12Z</time>
      </trkpt>
      <trkpt lat="40.8832920" lon="-4.7182570">
        <ele>885.7</ele>
        <time>2019-08-14T09:23:13Z</time>
      </trkpt>
      <trkpt lat="40.8833490" lon="-4.7182740">
        <ele>885.7</ele>
        <time>2019-08-14T09:23:14Z</time>
      </trkpt>
      <trkpt lat="40.8834050" lon="-4.7182910">
        <ele>885.7</ele>
        <time>2019-08-14T09:23:15Z</time>
      </trkpt>
      <trkpt lat="40.8834610" lon="-4.7183080">
        <ele>885.7</ele>
        <time>2019-08-14T09:23:16Z</time>
      </trkpt>
      <trkpt lat="40.8835170" lon="-4.7183250">
        <ele>885.8</ele>
        <time>2019-08-14T09:23:17Z</time>
      </trkpt>
      <trkpt lat="40.8835710" lon="-4.7183420">
        <ele>885.8</ele>
        <time>2019-08-14T09:23:18Z</time>
      </trkpt>
      <trkpt lat="40.8836250" lon="-4.7183570">
        <ele>885.9</ele>
        <time>2019-08-14T09:23:19Z</time>
      </trkpt>
      <trkpt lat="40.8836790" lon="-4.7183740">
        <ele>885.9</ele>
        <time>2019-08-14T09:23:20Z</time>
      </trkpt>
      <trkpt lat="40.8837310" lon="-4.7183900">
        <ele>886.0</ele>
        <time>2019-08-14T09:23:21Z</time>
      </trkpt>
      <trkpt lat="40.8837820" lon="-4.7184050">
        <ele>886.0</ele>
        <time>2019-08-14T09:23:22Z</time>
      </trkpt>
      <trkpt lat="40.8838330" lon="-4.7184190">
        <ele>886.1</ele>
        <time>2019-08-14T09:23:23Z</time>
      </trkpt>
      <trkpt lat="40.8838860" lon="-4.7184330">
        <ele>886.2</ele>
        <time>2019-08-14T09:23:24Z</time>
      </trkpt>
      <trkpt lat="40.8839380" lon="-4.7184470">
        <ele>886.3</ele>
        <time>2019-08-14T09:23:25Z</time>
      </trkpt>
      <trkpt lat="40.8839890" lon="-4.7184620">
        <ele>886.3</ele>
        <time>2019-08-14T09:23:26Z</time>
      </trkpt>
      <trkpt lat="40.8840390" lon="-4.7184770">
        <ele>886.4</ele>
        <time>2019-08-14T09:23:27Z</time>
      </trkpt>
      <trkpt lat="40.8840890" lon="-4.7184930">
        <ele>886.5</ele>
        <time>2019-08-14T09:23:28Z</time>
      </trkpt>
      <trkpt lat="40.8841400" lon="-4.7185080">
        <ele>886.5</ele>
        <time>2019-08-14T09:23:29Z</time>
      </trkpt>
      <trkpt lat="40.8841920" lon="-4.7185240">
        <ele>886.7</ele>
        <time>2019-08-14T09:23:30Z</time>
      </trkpt>
      <trkpt lat="40.8842440" lon="-4.7185410">
        <ele>886.8</ele>
        <time>2019-08-14T09:23:31Z</time>
      </trkpt>
      <trkpt lat="40.8842960" lon="-4.7185590">
        <ele>886.8</ele>
        <time>2019-08-14T09:23:32Z</time>
      </trkpt>
      <trkpt lat="40.8843480" lon="-4.7185780">
        <ele>886.9</ele>
        <time>2019-08-14T09:23:33Z</time>
      </trkpt>
      <trkpt lat="40.8843990" lon="-4.7185950">
        <ele>887.0</ele>
        <time>2019-08-14T09:23:34Z</time>
      </trkpt>
      <trkpt lat="40.8844500" lon="-4.7186120">
        <ele>887.1</ele>
        <time>2019-08-14T09:23:35Z</time>
      </trkpt>
      <trkpt lat="40.8845020" lon="-4.7186290">
        <ele>887.2</ele>
        <time>2019-08-14T09:23:36Z</time>
      </trkpt>
      <trkpt lat="40.8845540" lon="-4.7186450">
        <ele>887.3</ele>
        <time>2019-08-14T09:23:37Z</time>
      </trkpt>
      <trkpt lat="40.8846060" lon="-4.7186600">
        <ele>887.3</ele>
        <time>2019-08-14T09:23:38Z</time>
      </trkpt>
      <trkpt lat="40.8846580" lon="-4.7186760">
        <ele>887.3</ele>
        <time>2019-08-14T09:23:39Z</time>
      </trkpt>
      <trkpt lat="40.8847100" lon="-4.7186920">
        <ele>887.6</ele>
        <time>2019-08-14T09:23:40Z</time>
      </trkpt>
      <trkpt lat="40.8847610" lon="-4.7187080">
        <ele>887.7</ele>
        <time>2019-08-14T09:23:41Z</time>
      </trkpt>
      <trkpt lat="40.8848110" lon="-4.7187250">
        <ele>887.8</ele>
        <time>2019-08-14T09:23:42Z</time>
      </trkpt>
      <trkpt lat="40.8848590" lon="-4.7187420">
        <ele>887.9</ele>
        <time>2019-08-14T09:23:43Z</time>
      </trkpt>
      <trkpt lat="40.8849080" lon="-4.7187570">
        <ele>888.0</ele>
        <time>2019-08-14T09:23:44Z</time>
      </trkpt>
      <trkpt lat="40.8849570" lon="-4.7187730">
        <ele>888.1</ele>
        <time>2019-08-14T09:23:45Z</time>
      </trkpt>
      <trkpt lat="40.8850060" lon="-4.7187880">
        <ele>888.2</ele>
        <time>2019-08-14T09:23:46Z</time>
      </trkpt>
      <trkpt lat="40.8850550" lon="-4.7188030">
        <ele>888.3</ele>
        <time>2019-08-14T09:23:47Z</time>
      </trkpt>
      <trkpt lat="40.8851030" lon="-4.7188180">
        <ele>888.3</ele>
        <time>2019-08-14T09:23:48Z</time>
      </trkpt>
      <trkpt lat="40.8851530" lon="-4.7188320">
        <ele>888.5</ele>
        <time>2019-08-14T09:23:49Z</time>
      </trkpt>
      <trkpt lat="40.8852010" lon="-4.7188470">
        <ele>888.6</ele>
        <time>2019-08-14T09:23:50Z</time>
      </trkpt>
      <trkpt lat="40.8852490" lon="-4.7188630">
        <ele>888.7</ele>
        <time>2019-08-14T09:23:51Z</time>
      </trkpt>
      <trkpt lat="40.8852970" lon="-4.7188790">
        <ele>888.8</ele>
        <time>2019-08-14T09:23:52Z</time>
      </trkpt>
      <trkpt lat="40.8853460" lon="-4.7188940">
        <ele>889.0</ele>
        <time>2019-08-14T09:23:53Z</time>
      </trkpt>
      <trkpt lat="40.8853930" lon="-4.7189070">
        <ele>889.1</ele>
        <time>2019-08-14T09:23:54Z</time>
      </trkpt>
      <trkpt lat="40.8854420" lon="-4.7189200">
        <ele>889.2</ele>
        <time>2019-08-14T09:23:55Z</time>
      </trkpt>
      <trkpt lat="40.8854900" lon="-4.7189350">
        <ele>889.4</ele>
        <time>2019-08-14T09:23:56Z</time>
      </trkpt>
      <trkpt lat="40.8855370" lon="-4.7189490">
        <ele>889.5</ele>
        <time>2019-08-14T09:23:57Z</time>
      </trkpt>
      <trkpt lat="40.8855850" lon="-4.7189650">
        <ele>889.6</ele>
        <time>2019-08-14T09:23:58Z</time>
      </trkpt>
      <trkpt lat="40.8856340" lon="-4.7189790">
        <ele>889.8</ele>
        <time>2019-08-14T09:23:59Z</time>
      </trkpt>
      <trkpt lat="40.8856830" lon="-4.7189940">
        <ele>889.9</ele>
        <time>2019-08-14T09:24:00Z</time>
      </trkpt>
      <trkpt lat="40.8857310" lon="-4.7190090">
        <ele>890.0</ele>
        <time>2019-08-14T09:24:01Z</time>
      </trkpt>
      <trkpt lat="40.8857810" lon="-4.7190240">
        <ele>890.2</ele>
        <time>2019-08-14T09:24:02Z</time>
      </trkpt>
      <trkpt lat="40.8858300" lon="-4.7190390">
        <ele>890.3</ele>
        <time>2019-08-14T09:24:03Z</time>
      </trkpt>
      <trkpt lat="40.8858800" lon="-4.7190550">
        <ele>890.4</ele>
        <time>2019-08-14T09:24:04Z</time>
      </trkpt>
      <trkpt lat="40.8859290" lon="-4.7190700">
        <ele>890.5</ele>
        <time>2019-08-14T09:24:05Z</time>
      </trkpt>
      <trkpt lat="40.8859780" lon="-4.7190850">
        <ele>890.6</ele>
        <time>2019-08-14T09:24:06Z</time>
      </trkpt>
      <trkpt lat="40.8860270" lon="-4.7191010">
        <ele>890.8</ele>
        <time>2019-08-14T09:24:07Z</time>
      </trkpt>
      <trkpt lat="40.8860760" lon="-4.7191160">
        <ele>890.9</ele>
        <time>2019-08-14T09:24:08Z</time>
      </trkpt>
      <trkpt lat="40.8861230" lon="-4.7191300">
        <ele>891.0</ele>
        <time>2019-08-14T09:24:09Z</time>
      </trkpt>
      <trkpt lat="40.8861720" lon="-4.7191460">
        <ele>891.1</ele>
        <time>2019-08-14T09:24:10Z</time>
      </trkpt>
      <trkpt lat="40.8862200" lon="-4.7191600">
        <ele>891.2</ele>
        <time>2019-08-14T09:24:11Z</time>
      </trkpt>
      <trkpt lat="40.8862690" lon="-4.7191750">
        <ele>891.2</ele>
        <time>2019-08-14T09:24:12Z</time>
      </trkpt>
      <trkpt lat="40.8863180" lon="-4.7191900">
        <ele>891.3</ele>
        <time>2019-08-14T09:24:13Z</time>
      </trkpt>
      <trkpt lat="40.8863660" lon="-4.7192040">
        <ele>891.4</ele>
        <time>2019-08-14T09:24:14Z</time>
      </trkpt>
      <trkpt lat="40.8864140" lon="-4.7192190">
        <ele>891.4</ele>
        <time>2019-08-14T09:24:15Z</time>
      </trkpt>
      <trkpt lat="40.8864620" lon="-4.7192340">
        <ele>891.5</ele>
        <time>2019-08-14T09:24:16Z</time>
      </trkpt>
      <trkpt lat="40.8865090" lon="-4.7192480">
        <ele>891.5</ele>
        <time>2019-08-14T09:24:17Z</time>
      </trkpt>
      <trkpt lat="40.8865560" lon="-4.7192620">
        <ele>891.5</ele>
        <time>2019-08-14T09:24:18Z</time>
      </trkpt>
      <trkpt lat="40.8866020" lon="-4.7192750">
        <ele>891.5</ele>
        <time>2019-08-14T09:24:19Z</time>
      </trkpt>
      <trkpt lat="40.8866480" lon="-4.7192890">
        <ele>891.5</ele>
        <time>2019-08-14T09:24:20Z</time>
      </trkpt>
      <trkpt lat="40.8866940" lon="-4.7193020">
        <ele>891.5</ele>
        <time>2019-08-14T09:24:21Z</time>
      </trkpt>
      <trkpt lat="40.8867390" lon="-4.7193150">
        <ele>891.5</ele>
        <time>2019-08-14T09:24:22Z</time>
      </trkpt>
      <trkpt lat="40.8867830" lon="-4.7193290">
        <ele>891.5</ele>
        <time>2019-08-14T09:24:23Z</time>
      </trkpt>
      <trkpt lat="40.8868280" lon="-4.7193430">
        <ele>891.5</ele>
        <time>2019-08-14T09:24:24Z</time>
      </trkpt>
      <trkpt lat="40.8868720" lon="-4.7193560">
        <ele>891.5</ele>
        <time>2019-08-14T09:24:25Z</time>
      </trkpt>
      <trkpt lat="40.8869160" lon="-4.7193670">
        <ele>891.5</ele>
        <time>2019-08-14T09:24:26Z</time>
      </trkpt>
      <trkpt lat="40.8869600" lon="-4.7193790">
        <ele>891.5</ele>
        <time>2019-08-14T09:24:27Z</time>
      </trkpt>
      <trkpt lat="40.8870050" lon="-4.7193920">
        <ele>891.5</ele>
        <time>2019-08-14T09:24:28Z</time>
      </trkpt>
      <trkpt lat="40.8870520" lon="-4.7194030">
        <ele>891.5</ele>
        <time>2019-08-14T09:24:29Z</time>
      </trkpt>
      <trkpt lat="40.8870980" lon="-4.7194140">
        <ele>891.5</ele>
        <time>2019-08-14T09:24:30Z</time>
      </trkpt>
      <trkpt lat="40.8871440" lon="-4.7194260">
        <ele>891.5</ele>
        <time>2019-08-14T09:24:31Z</time>
      </trkpt>
      <trkpt lat="40.8871930" lon="-4.7194380">
        <ele>891.4</ele>
        <time>2019-08-14T09:24:32Z</time>
      </trkpt>
      <trkpt lat="40.8872440" lon="-4.7194490">
        <ele>891.4</ele>
        <time>2019-08-14T09:24:33Z</time>
      </trkpt>
      <trkpt lat="40.8872940" lon="-4.7194610">
        <ele>891.4</ele>
        <time>2019-08-14T09:24:34Z</time>
      </trkpt>
      <trkpt lat="40.8873450" lon="-4.7194720">
        <ele>891.4</ele>
        <time>2019-08-14T09:24:35Z</time>
      </trkpt>
      <trkpt lat="40.8873960" lon="-4.7194850">
        <ele>891.4</ele>
        <time>2019-08-14T09:24:36Z</time>
      </trkpt>
      <trkpt lat="40.8874460" lon="-4.7194950">
        <ele>891.4</ele>
        <time>2019-08-14T09:24:37Z</time>
      </trkpt>
      <trkpt lat="40.8874970" lon="-4.7195050">
        <ele>891.4</ele>
        <time>2019-08-14T09:24:38Z</time>
      </trkpt>
      <trkpt lat="40.8875480" lon="-4.7195130">
        <ele>891.4</ele>
        <time>2019-08-14T09:24:39Z</time>
      </trkpt>
      <trkpt lat="40.8876010" lon="-4.7195220">
        <ele>891.4</ele>
        <time>2019-08-14T09:24:40Z</time>
      </trkpt>
      <trkpt lat="40.8876540" lon="-4.7195310">
        <ele>891.4</ele>
        <time>2019-08-14T09:24:41Z</time>
      </trkpt>
      <trkpt lat="40.8877060" lon="-4.7195400">
        <ele>891.3</ele>
        <time>2019-08-14T09:24:42Z</time>
      </trkpt>
      <trkpt lat="40.8877590" lon="-4.7195480">
        <ele>891.3</ele>
        <time>2019-08-14T09:24:43Z</time>
      </trkpt>
      <trkpt lat="40.8878120" lon="-4.7195560">
        <ele>891.3</ele>
        <time>2019-08-14T09:24:44Z</time>
      </trkpt>
      <trkpt lat="40.8878670" lon="-4.7195640">
        <ele>891.3</ele>
        <time>2019-08-14T09:24:45Z</time>
      </trkpt>
      <trkpt lat="40.8879210" lon="-4.7195710">
        <ele>891.3</ele>
        <time>2019-08-14T09:24:46Z</time>
      </trkpt>
      <trkpt lat="40.8879740" lon="-4.7195770">
        <ele>891.3</ele>
        <time>2019-08-14T09:24:47Z</time>
      </trkpt>
      <trkpt lat="40.8880270" lon="-4.7195820">
        <ele>891.2</ele>
        <time>2019-08-14T09:24:48Z</time>
      </trkpt>
      <trkpt lat="40.8880800" lon="-4.7195870">
        <ele>891.2</ele>
        <time>2019-08-14T09:24:49Z</time>
      </trkpt>
      <trkpt lat="40.8881340" lon="-4.7195910">
        <ele>891.2</ele>
        <time>2019-08-14T09:24:50Z</time>
      </trkpt>
      <trkpt lat="40.8881900" lon="-4.7195950">
        <ele>891.2</ele>
        <time>2019-08-14T09:24:51Z</time>
      </trkpt>
      <trkpt lat="40.8882470" lon="-4.7196010">
        <ele>891.3</ele>
        <time>2019-08-14T09:24:52Z</time>
      </trkpt>
      <trkpt lat="40.8883040" lon="-4.7196090">
        <ele>891.3</ele>
        <time>2019-08-14T09:24:53Z</time>
      </trkpt>
      <trkpt lat="40.8883580" lon="-4.7196140">
        <ele>891.3</ele>
        <time>2019-08-14T09:24:54Z</time>
      </trkpt>
      <trkpt lat="40.8884110" lon="-4.7196180">
        <ele>891.3</ele>
        <time>2019-08-14T09:24:55Z</time>
      </trkpt>
      <trkpt lat="40.8884630" lon="-4.7196220">
        <ele>891.3</ele>
        <time>2019-08-14T09:24:56Z</time>
      </trkpt>
      <trkpt lat="40.8885160" lon="-4.7196280">
        <ele>891.3</ele>
        <time>2019-08-14T09:24:57Z</time>
      </trkpt>
      <trkpt lat="40.8885690" lon="-4.7196340">
        <ele>891.3</ele>
        <time>2019-08-14T09:24:58Z</time>
      </trkpt>
      <trkpt lat="40.8886210" lon="-4.7196370">
        <ele>891.3</ele>
        <time>2019-08-14T09:24:59Z</time>
      </trkpt>
      <trkpt lat="40.8886740" lon="-4.7196420">
        <ele>891.2</ele>
        <time>2019-08-14T09:25:00Z</time>
      </trkpt>
      <trkpt lat="40.8887280" lon="-4.7196460">
        <ele>891.2</ele>
        <time>2019-08-14T09:25:01Z</time>
      </trkpt>
      <trkpt lat="40.8887820" lon="-4.7196510">
        <ele>891.2</ele>
        <time>2019-08-14T09:25:02Z</time>
      </trkpt>
      <trkpt lat="40.8888350" lon="-4.7196560">
        <ele>891.2</ele>
        <time>2019-08-14T09:25:03Z</time>
      </trkpt>
      <trkpt lat="40.8888890" lon="-4.7196630">
        <ele>891.2</ele>
        <time>2019-08-14T09:25:04Z</time>
      </trkpt>
      <trkpt lat="40.8889440" lon="-4.7196690">
        <ele>891.2</ele>
        <time>2019-08-14T09:25:05Z</time>
      </trkpt>
      <trkpt lat="40.8889990" lon="-4.7196740">
        <ele>891.2</ele>
        <time>2019-08-14T09:25:06Z</time>
      </trkpt>
      <trkpt lat="40.8890520" lon="-4.7196790">
        <ele>891.2</ele>
        <time>2019-08-14T09:25:07Z</time>
      </trkpt>
      <trkpt lat="40.8891040" lon="-4.7196840">
        <ele>891.2</ele>
        <time>2019-08-14T09:25:08Z</time>
      </trkpt>
      <trkpt lat="40.8891560" lon="-4.7196870">
        <ele>891.1</ele>
        <time>2019-08-14T09:25:09Z</time>
      </trkpt>
      <trkpt lat="40.8892090" lon="-4.7196910">
        <ele>891.1</ele>
        <time>2019-08-14T09:25:10Z</time>
      </trkpt>
      <trkpt lat="40.8892630" lon="-4.7196960">
        <ele>891.1</ele>
        <time>2019-08-14T09:25:11Z</time>
      </trkpt>
      <trkpt lat="40.8893170" lon="-4.7197000">
        <ele>891.1</ele>
        <time>2019-08-14T09:25:12Z</time>
      </trkpt>
      <trkpt lat="40.8893720" lon="-4.7197050">
        <ele>891.0</ele>
        <time>2019-08-14T09:25:13Z</time>
      </trkpt>
      <trkpt lat="40.8894270" lon="-4.7197110">
        <ele>891.0</ele>
        <time>2019-08-14T09:25:14Z</time>
      </trkpt>
      <trkpt lat="40.8894820" lon="-4.7197190">
        <ele>891.0</ele>
        <time>2019-08-14T09:25:15Z</time>
      </trkpt>
      <trkpt lat="40.8895370" lon="-4.7197240">
        <ele>891.0</ele>
        <time>2019-08-14T09:25:16Z</time>
      </trkpt>
      <trkpt lat="40.8895910" lon="-4.7197280">
        <ele>891.0</ele>
        <time>2019-08-14T09:25:17Z</time>
      </trkpt>
      <trkpt lat="40.8896440" lon="-4.7197320">
        <ele>891.0</ele>
        <time>2019-08-14T09:25:18Z</time>
      </trkpt>
      <trkpt lat="40.8896960" lon="-4.7197350">
        <ele>891.0</ele>
        <time>2019-08-14T09:25:19Z</time>
      </trkpt>
      <trkpt lat="40.8897490" lon="-4.7197380">
        <ele>891.0</ele>
        <time>2019-08-14T09:25:20Z</time>
      </trkpt>
      <trkpt lat="40.8898020" lon="-4.7197400">
        <ele>891.0</ele>
        <time>2019-08-14T09:25:21Z</time>
      </trkpt>
      <trkpt lat="40.8898560" lon="-4.7197450">
        <ele>891.0</ele>
        <time>2019-08-14T09:25:22Z</time>
      </trkpt>
      <trkpt lat="40.8899110" lon="-4.7197520">
        <ele>891.0</ele>
        <time>2019-08-14T09:25:23Z</time>
      </trkpt>
      <trkpt lat="40.8899660" lon="-4.7197580">
        <ele>891.0</ele>
        <time>2019-08-14T09:25:24Z</time>
      </trkpt>
      <trkpt lat="40.8900200" lon="-4.7197620">
        <ele>891.0</ele>
        <time>2019-08-14T09:25:25Z</time>
      </trkpt>
      <trkpt lat="40.8900740" lon="-4.7197660">
        <ele>891.0</ele>
        <time>2019-08-14T09:25:26Z</time>
      </trkpt>
      <trkpt lat="40.8901280" lon="-4.7197700">
        <ele>891.0</ele>
        <time>2019-08-14T09:25:27Z</time>
      </trkpt>
      <trkpt lat="40.8901840" lon="-4.7197750">
        <ele>891.0</ele>
        <time>2019-08-14T09:25:28Z</time>
      </trkpt>
      <trkpt lat="40.8902400" lon="-4.7197810">
        <ele>891.0</ele>
        <time>2019-08-14T09:25:29Z</time>
      </trkpt>
      <trkpt lat="40.8902970" lon="-4.7197860">
        <ele>891.0</ele>
        <time>2019-08-14T09:25:30Z</time>
      </trkpt>
      <trkpt lat="40.8903540" lon="-4.7197910">
        <ele>891.0</ele>
        <time>2019-08-14T09:25:31Z</time>
      </trkpt>
      <trkpt lat="40.8904120" lon="-4.7197970">
        <ele>891.0</ele>
        <time>2019-08-14T09:25:32Z</time>
      </trkpt>
      <trkpt lat="40.8904700" lon="-4.7198030">
        <ele>891.0</ele>
        <time>2019-08-14T09:25:33Z</time>
      </trkpt>
      <trkpt lat="40.8905270" lon="-4.7198100">
        <ele>891.0</ele>
        <time>2019-08-14T09:25:34Z</time>
      </trkpt>
      <trkpt lat="40.8905830" lon="-4.7198160">
        <ele>891.0</ele>
        <time>2019-08-14T09:25:35Z</time>
      </trkpt>
      <trkpt lat="40.8906380" lon="-4.7198210">
        <ele>891.0</ele>
        <time>2019-08-14T09:25:36Z</time>
      </trkpt>
      <trkpt lat="40.8906950" lon="-4.7198250">
        <ele>891.0</ele>
        <time>2019-08-14T09:25:37Z</time>
      </trkpt>
      <trkpt lat="40.8907520" lon="-4.7198290">
        <ele>891.0</ele>
        <time>2019-08-14T09:25:38Z</time>
      </trkpt>
      <trkpt lat="40.8908100" lon="-4.7198330">
        <ele>891.0</ele>
        <time>2019-08-14T09:25:39Z</time>
      </trkpt>
      <trkpt lat="40.8908670" lon="-4.7198380">
        <ele>891.0</ele>
        <time>2019-08-14T09:25:40Z</time>
      </trkpt>
      <trkpt lat="40.8909250" lon="-4.7198430">
        <ele>891.0</ele>
        <time>2019-08-14T09:25:41Z</time>
      </trkpt>
      <trkpt lat="40.8909820" lon="-4.7198480">
        <ele>891.0</ele>
        <time>2019-08-14T09:25:42Z</time>
      </trkpt>
      <trkpt lat="40.8910370" lon="-4.7198550">
        <ele>891.0</ele>
        <time>2019-08-14T09:25:43Z</time>
      </trkpt>
      <trkpt lat="40.8910900" lon="-4.7198590">
        <ele>891.0</ele>
        <time>2019-08-14T09:25:44Z</time>
      </trkpt>
      <trkpt lat="40.8911430" lon="-4.7198630">
        <ele>891.0</ele>
        <time>2019-08-14T09:25:45Z</time>
      </trkpt>
      <trkpt lat="40.8911970" lon="-4.7198660">
        <ele>891.0</ele>
        <time>2019-08-14T09:25:46Z</time>
      </trkpt>
      <trkpt lat="40.8912530" lon="-4.7198720">
        <ele>891.0</ele>
        <time>2019-08-14T09:25:47Z</time>
      </trkpt>
      <trkpt lat="40.8913090" lon="-4.7198770">
        <ele>891.0</ele>
        <time>2019-08-14T09:25:48Z</time>
      </trkpt>
      <trkpt lat="40.8913660" lon="-4.7198840">
        <ele>891.0</ele>
        <time>2019-08-14T09:25:49Z</time>
      </trkpt>
      <trkpt lat="40.8914210" lon="-4.7198890">
        <ele>891.0</ele>
        <time>2019-08-14T09:25:50Z</time>
      </trkpt>
      <trkpt lat="40.8914770" lon="-4.7198950">
        <ele>891.0</ele>
        <time>2019-08-14T09:25:51Z</time>
      </trkpt>
      <trkpt lat="40.8915330" lon="-4.7199000">
        <ele>891.0</ele>
        <time>2019-08-14T09:25:52Z</time>
      </trkpt>
      <trkpt lat="40.8915890" lon="-4.7199060">
        <ele>891.0</ele>
        <time>2019-08-14T09:25:53Z</time>
      </trkpt>
      <trkpt lat="40.8916410" lon="-4.7199120">
        <ele>891.0</ele>
        <time>2019-08-14T09:25:54Z</time>
      </trkpt>
      <trkpt lat="40.8916940" lon="-4.7199170">
        <ele>891.0</ele>
        <time>2019-08-14T09:25:55Z</time>
      </trkpt>
      <trkpt lat="40.8917470" lon="-4.7199200">
        <ele>891.0</ele>
        <time>2019-08-14T09:25:56Z</time>
      </trkpt>
      <trkpt lat="40.8918020" lon="-4.7199230">
        <ele>891.0</ele>
        <time>2019-08-14T09:25:57Z</time>
      </trkpt>
      <trkpt lat="40.8918580" lon="-4.7199280">
        <ele>891.0</ele>
        <time>2019-08-14T09:25:58Z</time>
      </trkpt>
      <trkpt lat="40.8919150" lon="-4.7199310">
        <ele>890.9</ele>
        <time>2019-08-14T09:25:59Z</time>
      </trkpt>
      <trkpt lat="40.8919730" lon="-4.7199360">
        <ele>890.9</ele>
        <time>2019-08-14T09:26:00Z</time>
      </trkpt>
      <trkpt lat="40.8920300" lon="-4.7199420">
        <ele>890.9</ele>
        <time>2019-08-14T09:26:01Z</time>
      </trkpt>
      <trkpt lat="40.8920860" lon="-4.7199470">
        <ele>890.9</ele>
        <time>2019-08-14T09:26:02Z</time>
      </trkpt>
      <trkpt lat="40.8921420" lon="-4.7199520">
        <ele>890.8</ele>
        <time>2019-08-14T09:26:03Z</time>
      </trkpt>
      <trkpt lat="40.8921970" lon="-4.7199570">
        <ele>890.8</ele>
        <time>2019-08-14T09:26:04Z</time>
      </trkpt>
      <trkpt lat="40.8922530" lon="-4.7199630">
        <ele>890.7</ele>
        <time>2019-08-14T09:26:05Z</time>
      </trkpt>
      <trkpt lat="40.8923090" lon="-4.7199680">
        <ele>890.7</ele>
        <time>2019-08-14T09:26:06Z</time>
      </trkpt>
      <trkpt lat="40.8923650" lon="-4.7199740">
        <ele>890.6</ele>
        <time>2019-08-14T09:26:07Z</time>
      </trkpt>
      <trkpt lat="40.8924220" lon="-4.7199800">
        <ele>890.6</ele>
        <time>2019-08-14T09:26:08Z</time>
      </trkpt>
      <trkpt lat="40.8924790" lon="-4.7199870">
        <ele>890.5</ele>
        <time>2019-08-14T09:26:09Z</time>
      </trkpt>
      <trkpt lat="40.8925370" lon="-4.7199920">
        <ele>890.4</ele>
        <time>2019-08-14T09:26:10Z</time>
      </trkpt>
      <trkpt lat="40.8925960" lon="-4.7199970">
        <ele>890.4</ele>
        <time>2019-08-14T09:26:11Z</time>
      </trkpt>
      <trkpt lat="40.8926540" lon="-4.7200030">
        <ele>890.3</ele>
        <time>2019-08-14T09:26:12Z</time>
      </trkpt>
      <trkpt lat="40.8927110" lon="-4.7200090">
        <ele>890.2</ele>
        <time>2019-08-14T09:26:13Z</time>
      </trkpt>
      <trkpt lat="40.8927670" lon="-4.7200140">
        <ele>890.2</ele>
        <time>2019-08-14T09:26:14Z</time>
      </trkpt>
      <trkpt lat="40.8928230" lon="-4.7200180">
        <ele>890.1</ele>
        <time>2019-08-14T09:26:15Z</time>
      </trkpt>
      <trkpt lat="40.8928790" lon="-4.7200220">
        <ele>890.0</ele>
        <time>2019-08-14T09:26:16Z</time>
      </trkpt>
      <trkpt lat="40.8929370" lon="-4.7200290">
        <ele>890.0</ele>
        <time>2019-08-14T09:26:17Z</time>
      </trkpt>
      <trkpt lat="40.8929950" lon="-4.7200350">
        <ele>889.9</ele>
        <time>2019-08-14T09:26:18Z</time>
      </trkpt>
      <trkpt lat="40.8930530" lon="-4.7200420">
        <ele>889.9</ele>
        <time>2019-08-14T09:26:19Z</time>
      </trkpt>
      <trkpt lat="40.8931130" lon="-4.7200480">
        <ele>889.8</ele>
        <time>2019-08-14T09:26:20Z</time>
      </trkpt>
      <trkpt lat="40.8931710" lon="-4.7200540">
        <ele>889.8</ele>
        <time>2019-08-14T09:26:21Z</time>
      </trkpt>
      <trkpt lat="40.8932290" lon="-4.7200590">
        <ele>889.7</ele>
        <time>2019-08-14T09:26:22Z</time>
      </trkpt>
      <trkpt lat="40.8932870" lon="-4.7200640">
        <ele>889.7</ele>
        <time>2019-08-14T09:26:23Z</time>
      </trkpt>
      <trkpt lat="40.8933440" lon="-4.7200690">
        <ele>889.6</ele>
        <time>2019-08-14T09:26:24Z</time>
      </trkpt>
      <trkpt lat="40.8934030" lon="-4.7200750">
        <ele>889.6</ele>
        <time>2019-08-14T09:26:25Z</time>
      </trkpt>
      <trkpt lat="40.8934610" lon="-4.7200820">
        <ele>889.5</ele>
        <time>2019-08-14T09:26:26Z</time>
      </trkpt>
      <trkpt lat="40.8935190" lon="-4.7200880">
        <ele>889.5</ele>
        <time>2019-08-14T09:26:27Z</time>
      </trkpt>
      <trkpt lat="40.8935750" lon="-4.7200920">
        <ele>889.5</ele>
        <time>2019-08-14T09:26:28Z</time>
      </trkpt>
      <trkpt lat="40.8936300" lon="-4.7200940">
        <ele>889.4</ele>
        <time>2019-08-14T09:26:29Z</time>
      </trkpt>
      <trkpt lat="40.8936860" lon="-4.7200970">
        <ele>889.4</ele>
        <time>2019-08-14T09:26:30Z</time>
      </trkpt>
      <trkpt lat="40.8937420" lon="-4.7201010">
        <ele>889.4</ele>
        <time>2019-08-14T09:26:31Z</time>
      </trkpt>
      <trkpt lat="40.8937990" lon="-4.7201060">
        <ele>889.4</ele>
        <time>2019-08-14T09:26:32Z</time>
      </trkpt>
      <trkpt lat="40.8938570" lon="-4.7201120">
        <ele>889.4</ele>
        <time>2019-08-14T09:26:33Z</time>
      </trkpt>
      <trkpt lat="40.8939140" lon="-4.7201170">
        <ele>889.4</ele>
        <time>2019-08-14T09:26:34Z</time>
      </trkpt>
      <trkpt lat="40.8939730" lon="-4.7201240">
        <ele>889.3</ele>
        <time>2019-08-14T09:26:35Z</time>
      </trkpt>
      <trkpt lat="40.8940330" lon="-4.7201320">
        <ele>889.3</ele>
        <time>2019-08-14T09:26:36Z</time>
      </trkpt>
      <trkpt lat="40.8940950" lon="-4.7201390">
        <ele>889.3</ele>
        <time>2019-08-14T09:26:37Z</time>
      </trkpt>
      <trkpt lat="40.8941570" lon="-4.7201470">
        <ele>889.3</ele>
        <time>2019-08-14T09:26:38Z</time>
      </trkpt>
      <trkpt lat="40.8942220" lon="-4.7201530">
        <ele>889.2</ele>
        <time>2019-08-14T09:26:39Z</time>
      </trkpt>
      <trkpt lat="40.8942860" lon="-4.7201590">
        <ele>889.2</ele>
        <time>2019-08-14T09:26:40Z</time>
      </trkpt>
      <trkpt lat="40.8943510" lon="-4.7201630">
        <ele>889.2</ele>
        <time>2019-08-14T09:26:41Z</time>
      </trkpt>
      <trkpt lat="40.8944160" lon="-4.7201670">
        <ele>889.2</ele>
        <time>2019-08-14T09:26:42Z</time>
      </trkpt>
      <trkpt lat="40.8944800" lon="-4.7201710">
        <ele>889.2</ele>
        <time>2019-08-14T09:26:43Z</time>
      </trkpt>
      <trkpt lat="40.8945420" lon="-4.7201770">
        <ele>889.2</ele>
        <time>2019-08-14T09:26:44Z</time>
      </trkpt>
      <trkpt lat="40.8946040" lon="-4.7201820">
        <ele>889.2</ele>
        <time>2019-08-14T09:26:45Z</time>
      </trkpt>
      <trkpt lat="40.8946660" lon="-4.7201860">
        <ele>889.2</ele>
        <time>2019-08-14T09:26:46Z</time>
      </trkpt>
      <trkpt lat="40.8947270" lon="-4.7201910">
        <ele>889.1</ele>
        <time>2019-08-14T09:26:47Z</time>
      </trkpt>
      <trkpt lat="40.8947890" lon="-4.7201980">
        <ele>889.1</ele>
        <time>2019-08-14T09:26:48Z</time>
      </trkpt>
      <trkpt lat="40.8948510" lon="-4.7202050">
        <ele>889.1</ele>
        <time>2019-08-14T09:26:49Z</time>
      </trkpt>
      <trkpt lat="40.8949120" lon="-4.7202130">
        <ele>889.0</ele>
        <time>2019-08-14T09:26:50Z</time>
      </trkpt>
      <trkpt lat="40.8949740" lon="-4.7202180">
        <ele>889.0</ele>
        <time>2019-08-14T09:26:51Z</time>
      </trkpt>
      <trkpt lat="40.8950360" lon="-4.7202230">
        <ele>888.9</ele>
        <time>2019-08-14T09:26:52Z</time>
      </trkpt>
      <trkpt lat="40.8950980" lon="-4.7202290">
        <ele>888.9</ele>
        <time>2019-08-14T09:26:53Z</time>
      </trkpt>
      <trkpt lat="40.8951620" lon="-4.7202350">
        <ele>888.9</ele>
        <time>2019-08-14T09:26:54Z</time>
      </trkpt>
      <trkpt lat="40.8952250" lon="-4.7202400">
        <ele>888.8</ele>
        <time>2019-08-14T09:26:55Z</time>
      </trkpt>
      <trkpt lat="40.8952880" lon="-4.7202460">
        <ele>888.8</ele>
        <time>2019-08-14T09:26:56Z</time>
      </trkpt>
      <trkpt lat="40.8953510" lon="-4.7202530">
        <ele>888.8</ele>
        <time>2019-08-14T09:26:57Z</time>
      </trkpt>
      <trkpt lat="40.8954150" lon="-4.7202610">
        <ele>888.7</ele>
        <time>2019-08-14T09:26:58Z</time>
      </trkpt>
      <trkpt lat="40.8954800" lon="-4.7202670">
        <ele>888.7</ele>
        <time>2019-08-14T09:26:59Z</time>
      </trkpt>
      <trkpt lat="40.8955440" lon="-4.7202710">
        <ele>888.7</ele>
        <time>2019-08-14T09:27:00Z</time>
      </trkpt>
      <trkpt lat="40.8956100" lon="-4.7202760">
        <ele>888.6</ele>
        <time>2019-08-14T09:27:01Z</time>
      </trkpt>
      <trkpt lat="40.8956740" lon="-4.7202830">
        <ele>888.6</ele>
        <time>2019-08-14T09:27:02Z</time>
      </trkpt>
      <trkpt lat="40.8957390" lon="-4.7202890">
        <ele>888.6</ele>
        <time>2019-08-14T09:27:03Z</time>
      </trkpt>
      <trkpt lat="40.8958050" lon="-4.7202960">
        <ele>888.6</ele>
        <time>2019-08-14T09:27:04Z</time>
      </trkpt>
      <trkpt lat="40.8958720" lon="-4.7203030">
        <ele>888.6</ele>
        <time>2019-08-14T09:27:05Z</time>
      </trkpt>
      <trkpt lat="40.8959380" lon="-4.7203090">
        <ele>888.6</ele>
        <time>2019-08-14T09:27:06Z</time>
      </trkpt>
      <trkpt lat="40.8960050" lon="-4.7203160">
        <ele>888.6</ele>
        <time>2019-08-14T09:27:07Z</time>
      </trkpt>
      <trkpt lat="40.8960710" lon="-4.7203230">
        <ele>888.6</ele>
        <time>2019-08-14T09:27:08Z</time>
      </trkpt>
      <trkpt lat="40.8961370" lon="-4.7203280">
        <ele>888.6</ele>
        <time>2019-08-14T09:27:09Z</time>
      </trkpt>
      <trkpt lat="40.8962020" lon="-4.7203350">
        <ele>888.6</ele>
        <time>2019-08-14T09:27:10Z</time>
      </trkpt>
      <trkpt lat="40.8962690" lon="-4.7203410">
        <ele>888.6</ele>
        <time>2019-08-14T09:27:11Z</time>
      </trkpt>
      <trkpt lat="40.8963330" lon="-4.7203460">
        <ele>888.6</ele>
        <time>2019-08-14T09:27:12Z</time>
      </trkpt>
      <trkpt lat="40.8963980" lon="-4.7203520">
        <ele>888.6</ele>
        <time>2019-08-14T09:27:13Z</time>
      </trkpt>
      <trkpt lat="40.8964640" lon="-4.7203580">
        <ele>888.6</ele>
        <time>2019-08-14T09:27:14Z</time>
      </trkpt>
      <trkpt lat="40.8965290" lon="-4.7203630">
        <ele>888.6</ele>
        <time>2019-08-14T09:27:15Z</time>
      </trkpt>
      <trkpt lat="40.8965940" lon="-4.7203680">
        <ele>888.6</ele>
        <time>2019-08-14T09:27:16Z</time>
      </trkpt>
      <trkpt lat="40.8966590" lon="-4.7203740">
        <ele>888.6</ele>
        <time>2019-08-14T09:27:17Z</time>
      </trkpt>
      <trkpt lat="40.8967240" lon="-4.7203800">
        <ele>888.6</ele>
        <time>2019-08-14T09:27:18Z</time>
      </trkpt>
      <trkpt lat="40.8967900" lon="-4.7203860">
        <ele>888.6</ele>
        <time>2019-08-14T09:27:19Z</time>
      </trkpt>
      <trkpt lat="40.8968560" lon="-4.7203910">
        <ele>888.6</ele>
        <time>2019-08-14T09:27:20Z</time>
      </trkpt>
      <trkpt lat="40.8969220" lon="-4.7203960">
        <ele>888.6</ele>
        <time>2019-08-14T09:27:21Z</time>
      </trkpt>
      <trkpt lat="40.8969880" lon="-4.7204020">
        <ele>888.6</ele>
        <time>2019-08-14T09:27:22Z</time>
      </trkpt>
      <trkpt lat="40.8970530" lon="-4.7204080">
        <ele>888.6</ele>
        <time>2019-08-14T09:27:23Z</time>
      </trkpt>
      <trkpt lat="40.8971180" lon="-4.7204150">
        <ele>888.6</ele>
        <time>2019-08-14T09:27:24Z</time>
      </trkpt>
      <trkpt lat="40.8971830" lon="-4.7204200">
        <ele>888.6</ele>
        <time>2019-08-14T09:27:25Z</time>
      </trkpt>
      <trkpt lat="40.8972470" lon="-4.7204250">
        <ele>888.6</ele>
        <time>2019-08-14T09:27:26Z</time>
      </trkpt>
      <trkpt lat="40.8973120" lon="-4.7204310">
        <ele>888.6</ele>
        <time>2019-08-14T09:27:27Z</time>
      </trkpt>
      <trkpt lat="40.8973750" lon="-4.7204390">
        <ele>888.6</ele>
        <time>2019-08-14T09:27:28Z</time>
      </trkpt>
      <trkpt lat="40.8974390" lon="-4.7204440">
        <ele>888.6</ele>
        <time>2019-08-14T09:27:29Z</time>
      </trkpt>
      <trkpt lat="40.8975020" lon="-4.7204490">
        <ele>888.6</ele>
        <time>2019-08-14T09:27:30Z</time>
      </trkpt>
      <trkpt lat="40.8975660" lon="-4.7204550">
        <ele>888.5</ele>
        <time>2019-08-14T09:27:31Z</time>
      </trkpt>
      <trkpt lat="40.8976290" lon="-4.7204600">
        <ele>888.5</ele>
        <time>2019-08-14T09:27:32Z</time>
      </trkpt>
      <trkpt lat="40.8976940" lon="-4.7204640">
        <ele>888.4</ele>
        <time>2019-08-14T09:27:33Z</time>
      </trkpt>
      <trkpt lat="40.8977580" lon="-4.7204690">
        <ele>888.3</ele>
        <time>2019-08-14T09:27:34Z</time>
      </trkpt>
      <trkpt lat="40.8978210" lon="-4.7204730">
        <ele>888.2</ele>
        <time>2019-08-14T09:27:35Z</time>
      </trkpt>
      <trkpt lat="40.8978850" lon="-4.7204790">
        <ele>888.1</ele>
        <time>2019-08-14T09:27:36Z</time>
      </trkpt>
      <trkpt lat="40.8979490" lon="-4.7204850">
        <ele>888.0</ele>
        <time>2019-08-14T09:27:37Z</time>
      </trkpt>
      <trkpt lat="40.8980120" lon="-4.7204910">
        <ele>887.8</ele>
        <time>2019-08-14T09:27:38Z</time>
      </trkpt>
      <trkpt lat="40.8980750" lon="-4.7204970">
        <ele>887.7</ele>
        <time>2019-08-14T09:27:39Z</time>
      </trkpt>
      <trkpt lat="40.8981380" lon="-4.7205040">
        <ele>887.5</ele>
        <time>2019-08-14T09:27:40Z</time>
      </trkpt>
      <trkpt lat="40.8982020" lon="-4.7205090">
        <ele>887.4</ele>
        <time>2019-08-14T09:27:41Z</time>
      </trkpt>
      <trkpt lat="40.8982660" lon="-4.7205150">
        <ele>887.2</ele>
        <time>2019-08-14T09:27:42Z</time>
      </trkpt>
      <trkpt lat="40.8983300" lon="-4.7205210">
        <ele>887.1</ele>
        <time>2019-08-14T09:27:43Z</time>
      </trkpt>
      <trkpt lat="40.8983940" lon="-4.7205270">
        <ele>886.9</ele>
        <time>2019-08-14T09:27:44Z</time>
      </trkpt>
      <trkpt lat="40.8984570" lon="-4.7205320">
        <ele>886.8</ele>
        <time>2019-08-14T09:27:45Z</time>
      </trkpt>
      <trkpt lat="40.8985170" lon="-4.7205380">
        <ele>886.8</ele>
        <time>2019-08-14T09:27:46Z</time>
      </trkpt>
      <trkpt lat="40.8985780" lon="-4.7205420">
        <ele>886.7</ele>
        <time>2019-08-14T09:27:47Z</time>
      </trkpt>
      <trkpt lat="40.8986400" lon="-4.7205470">
        <ele>886.6</ele>
        <time>2019-08-14T09:27:48Z</time>
      </trkpt>
      <trkpt lat="40.8987030" lon="-4.7205540">
        <ele>886.5</ele>
        <time>2019-08-14T09:27:49Z</time>
      </trkpt>
      <trkpt lat="40.8987660" lon="-4.7205610">
        <ele>886.4</ele>
        <time>2019-08-14T09:27:50Z</time>
      </trkpt>
      <trkpt lat="40.8988300" lon="-4.7205660">
        <ele>886.3</ele>
        <time>2019-08-14T09:27:51Z</time>
      </trkpt>
      <trkpt lat="40.8988940" lon="-4.7205700">
        <ele>886.2</ele>
        <time>2019-08-14T09:27:52Z</time>
      </trkpt>
      <trkpt lat="40.8989590" lon="-4.7205760">
        <ele>886.2</ele>
        <time>2019-08-14T09:27:53Z</time>
      </trkpt>
      <trkpt lat="40.8990240" lon="-4.7205810">
        <ele>886.1</ele>
        <time>2019-08-14T09:27:54Z</time>
      </trkpt>
      <trkpt lat="40.8990890" lon="-4.7205870">
        <ele>886.0</ele>
        <time>2019-08-14T09:27:55Z</time>
      </trkpt>
      <trkpt lat="40.8991550" lon="-4.7205940">
        <ele>886.0</ele>
        <time>2019-08-14T09:27:56Z</time>
      </trkpt>
      <trkpt lat="40.8992200" lon="-4.7206000">
        <ele>886.0</ele>
        <time>2019-08-14T09:27:57Z</time>
      </trkpt>
      <trkpt lat="40.8992840" lon="-4.7206050">
        <ele>886.0</ele>
        <time>2019-08-14T09:27:58Z</time>
      </trkpt>
      <trkpt lat="40.8993480" lon="-4.7206110">
        <ele>885.9</ele>
        <time>2019-08-14T09:27:59Z</time>
      </trkpt>
      <trkpt lat="40.8994110" lon="-4.7206170">
        <ele>885.9</ele>
        <time>2019-08-14T09:28:00Z</time>
      </trkpt>
      <trkpt lat="40.8994740" lon="-4.7206240">
        <ele>885.9</ele>
        <time>2019-08-14T09:28:01Z</time>
      </trkpt>
      <trkpt lat="40.8995360" lon="-4.7206300">
        <ele>885.9</ele>
        <time>2019-08-14T09:28:02Z</time>
      </trkpt>
      <trkpt lat="40.8995980" lon="-4.7206340">
        <ele>885.9</ele>
        <time>2019-08-14T09:28:03Z</time>
      </trkpt>
      <trkpt lat="40.8996600" lon="-4.7206370">
        <ele>886.0</ele>
        <time>2019-08-14T09:28:04Z</time>
      </trkpt>
      <trkpt lat="40.8997220" lon="-4.7206430">
        <ele>886.1</ele>
        <time>2019-08-14T09:28:05Z</time>
      </trkpt>
      <trkpt lat="40.8997820" lon="-4.7206490">
        <ele>886.1</ele>
        <time>2019-08-14T09:28:06Z</time>
      </trkpt>
      <trkpt lat="40.8998420" lon="-4.7206560">
        <ele>886.2</ele>
        <time>2019-08-14T09:28:07Z</time>
      </trkpt>
      <trkpt lat="40.8999020" lon="-4.7206620">
        <ele>886.3</ele>
        <time>2019-08-14T09:28:08Z</time>
      </trkpt>
      <trkpt lat="40.8999630" lon="-4.7206670">
        <ele>886.3</ele>
        <time>2019-08-14T09:28:09Z</time>
      </trkpt>
      <trkpt lat="40.9000230" lon="-4.7206710">
        <ele>886.4</ele>
        <time>2019-08-14T09:28:10Z</time>
      </trkpt>
      <trkpt lat="40.9000830" lon="-4.7206760">
        <ele>886.4</ele>
        <time>2019-08-14T09:28:11Z</time>
      </trkpt>
      <trkpt lat="40.9001410" lon="-4.7206820">
        <ele>886.5</ele>
        <time>2019-08-14T09:28:12Z</time>
      </trkpt>
      <trkpt lat="40.9002000" lon="-4.7206880">
        <ele>886.5</ele>
        <time>2019-08-14T09:28:13Z</time>
      </trkpt>
      <trkpt lat="40.9002580" lon="-4.7206950">
        <ele>886.6</ele>
        <time>2019-08-14T09:28:14Z</time>
      </trkpt>
      <trkpt lat="40.9003160" lon="-4.7207010">
        <ele>886.6</ele>
        <time>2019-08-14T09:28:15Z</time>
      </trkpt>
      <trkpt lat="40.9003740" lon="-4.7207070">
        <ele>886.7</ele>
        <time>2019-08-14T09:28:16Z</time>
      </trkpt>
      <trkpt lat="40.9004320" lon="-4.7207120">
        <ele>886.7</ele>
        <time>2019-08-14T09:28:17Z</time>
      </trkpt>
      <trkpt lat="40.9004890" lon="-4.7207150">
        <ele>886.7</ele>
        <time>2019-08-14T09:28:18Z</time>
      </trkpt>
      <trkpt lat="40.9005470" lon="-4.7207200">
        <ele>886.8</ele>
        <time>2019-08-14T09:28:19Z</time>
      </trkpt>
      <trkpt lat="40.9006050" lon="-4.7207250">
        <ele>886.8</ele>
        <time>2019-08-14T09:28:20Z</time>
      </trkpt>
      <trkpt lat="40.9006620" lon="-4.7207290">
        <ele>886.8</ele>
        <time>2019-08-14T09:28:21Z</time>
      </trkpt>
      <trkpt lat="40.9007200" lon="-4.7207350">
        <ele>886.8</ele>
        <time>2019-08-14T09:28:22Z</time>
      </trkpt>
      <trkpt lat="40.9007770" lon="-4.7207410">
        <ele>886.8</ele>
        <time>2019-08-14T09:28:23Z</time>
      </trkpt>
      <trkpt lat="40.9008320" lon="-4.7207480">
        <ele>886.8</ele>
        <time>2019-08-14T09:28:24Z</time>
      </trkpt>
      <trkpt lat="40.9008870" lon="-4.7207540">
        <ele>886.8</ele>
        <time>2019-08-14T09:28:25Z</time>
      </trkpt>
      <trkpt lat="40.9009420" lon="-4.7207590">
        <ele>886.8</ele>
        <time>2019-08-14T09:28:26Z</time>
      </trkpt>
      <trkpt lat="40.9009970" lon="-4.7207660">
        <ele>886.8</ele>
        <time>2019-08-14T09:28:27Z</time>
      </trkpt>
      <trkpt lat="40.9010520" lon="-4.7207740">
        <ele>886.8</ele>
        <time>2019-08-14T09:28:28Z</time>
      </trkpt>
      <trkpt lat="40.9011060" lon="-4.7207830">
        <ele>886.8</ele>
        <time>2019-08-14T09:28:29Z</time>
      </trkpt>
      <trkpt lat="40.9011600" lon="-4.7207930">
        <ele>886.9</ele>
        <time>2019-08-14T09:28:30Z</time>
      </trkpt>
      <trkpt lat="40.9012140" lon="-4.7208020">
        <ele>886.9</ele>
        <time>2019-08-14T09:28:31Z</time>
      </trkpt>
      <trkpt lat="40.9012690" lon="-4.7208120">
        <ele>887.0</ele>
        <time>2019-08-14T09:28:32Z</time>
      </trkpt>
      <trkpt lat="40.9013250" lon="-4.7208250">
        <ele>887.1</ele>
        <time>2019-08-14T09:28:33Z</time>
      </trkpt>
      <trkpt lat="40.9013790" lon="-4.7208390">
        <ele>887.2</ele>
        <time>2019-08-14T09:28:34Z</time>
      </trkpt>
      <trkpt lat="40.9014340" lon="-4.7208540">
        <ele>887.3</ele>
        <time>2019-08-14T09:28:35Z</time>
      </trkpt>
      <trkpt lat="40.9014880" lon="-4.7208710">
        <ele>887.3</ele>
        <time>2019-08-14T09:28:36Z</time>
      </trkpt>
      <trkpt lat="40.9015420" lon="-4.7208890">
        <ele>887.4</ele>
        <time>2019-08-14T09:28:37Z</time>
      </trkpt>
      <trkpt lat="40.9015960" lon="-4.7209080">
        <ele>887.4</ele>
        <time>2019-08-14T09:28:38Z</time>
      </trkpt>
      <trkpt lat="40.9016510" lon="-4.7209280">
        <ele>887.5</ele>
        <time>2019-08-14T09:28:39Z</time>
      </trkpt>
      <trkpt lat="40.9017060" lon="-4.7209510">
        <ele>887.5</ele>
        <time>2019-08-14T09:28:40Z</time>
      </trkpt>
      <trkpt lat="40.9017620" lon="-4.7209750">
        <ele>887.5</ele>
        <time>2019-08-14T09:28:41Z</time>
      </trkpt>
      <trkpt lat="40.9018190" lon="-4.7210000">
        <ele>887.6</ele>
        <time>2019-08-14T09:28:42Z</time>
      </trkpt>
      <trkpt lat="40.9018750" lon="-4.7210260">
        <ele>887.6</ele>
        <time>2019-08-14T09:28:43Z</time>
      </trkpt>
      <trkpt lat="40.9019340" lon="-4.7210520">
        <ele>887.6</ele>
        <time>2019-08-14T09:28:44Z</time>
      </trkpt>
      <trkpt lat="40.9019920" lon="-4.7210810">
        <ele>887.7</ele>
        <time>2019-08-14T09:28:45Z</time>
      </trkpt>
      <trkpt lat="40.9020500" lon="-4.7211100">
        <ele>887.7</ele>
        <time>2019-08-14T09:28:46Z</time>
      </trkpt>
      <trkpt lat="40.9021080" lon="-4.7211380">
        <ele>887.8</ele>
        <time>2019-08-14T09:28:47Z</time>
      </trkpt>
      <trkpt lat="40.9021670" lon="-4.7211650">
        <ele>887.9</ele>
        <time>2019-08-14T09:28:48Z</time>
      </trkpt>
      <trkpt lat="40.9022250" lon="-4.7211940">
        <ele>888.1</ele>
        <time>2019-08-14T09:28:49Z</time>
      </trkpt>
      <trkpt lat="40.9022840" lon="-4.7212220">
        <ele>888.2</ele>
        <time>2019-08-14T09:28:50Z</time>
      </trkpt>
      <trkpt lat="40.9023420" lon="-4.7212500">
        <ele>888.5</ele>
        <time>2019-08-14T09:28:51Z</time>
      </trkpt>
      <trkpt lat="40.9024000" lon="-4.7212800">
        <ele>888.7</ele>
        <time>2019-08-14T09:28:52Z</time>
      </trkpt>
      <trkpt lat="40.9024570" lon="-4.7213100">
        <ele>889.0</ele>
        <time>2019-08-14T09:28:53Z</time>
      </trkpt>
      <trkpt lat="40.9025110" lon="-4.7213400">
        <ele>889.2</ele>
        <time>2019-08-14T09:28:54Z</time>
      </trkpt>
      <trkpt lat="40.9025660" lon="-4.7213670">
        <ele>889.4</ele>
        <time>2019-08-14T09:28:55Z</time>
      </trkpt>
      <trkpt lat="40.9026240" lon="-4.7213940">
        <ele>889.6</ele>
        <time>2019-08-14T09:28:56Z</time>
      </trkpt>
      <trkpt lat="40.9026810" lon="-4.7214220">
        <ele>889.8</ele>
        <time>2019-08-14T09:28:57Z</time>
      </trkpt>
      <trkpt lat="40.9027390" lon="-4.7214530">
        <ele>890.0</ele>
        <time>2019-08-14T09:28:58Z</time>
      </trkpt>
      <trkpt lat="40.9027970" lon="-4.7214840">
        <ele>890.1</ele>
        <time>2019-08-14T09:28:59Z</time>
      </trkpt>
      <trkpt lat="40.9028550" lon="-4.7215130">
        <ele>890.2</ele>
        <time>2019-08-14T09:29:00Z</time>
      </trkpt>
      <trkpt lat="40.9029150" lon="-4.7215420">
        <ele>890.3</ele>
        <time>2019-08-14T09:29:01Z</time>
      </trkpt>
      <trkpt lat="40.9029730" lon="-4.7215730">
        <ele>890.3</ele>
        <time>2019-08-14T09:29:02Z</time>
      </trkpt>
      <trkpt lat="40.9030320" lon="-4.7216060">
        <ele>890.3</ele>
        <time>2019-08-14T09:29:03Z</time>
      </trkpt>
      <trkpt lat="40.9030920" lon="-4.7216370">
        <ele>890.2</ele>
        <time>2019-08-14T09:29:04Z</time>
      </trkpt>
      <trkpt lat="40.9031540" lon="-4.7216670">
        <ele>890.1</ele>
        <time>2019-08-14T09:29:05Z</time>
      </trkpt>
      <trkpt lat="40.9032140" lon="-4.7216980">
        <ele>890.0</ele>
        <time>2019-08-14T09:29:06Z</time>
      </trkpt>
      <trkpt lat="40.9032760" lon="-4.7217280">
        <ele>889.9</ele>
        <time>2019-08-14T09:29:07Z</time>
      </trkpt>
      <trkpt lat="40.9033370" lon="-4.7217590">
        <ele>889.8</ele>
        <time>2019-08-14T09:29:08Z</time>
      </trkpt>
      <trkpt lat="40.9033960" lon="-4.7217870">
        <ele>889.6</ele>
        <time>2019-08-14T09:29:09Z</time>
      </trkpt>
      <trkpt lat="40.9034550" lon="-4.7218180">
        <ele>889.5</ele>
        <time>2019-08-14T09:29:10Z</time>
      </trkpt>
      <trkpt lat="40.9035140" lon="-4.7218480">
        <ele>889.4</ele>
        <time>2019-08-14T09:29:11Z</time>
      </trkpt>
      <trkpt lat="40.9035720" lon="-4.7218790">
        <ele>889.3</ele>
        <time>2019-08-14T09:29:12Z</time>
      </trkpt>
      <trkpt lat="40.9036300" lon="-4.7219100">
        <ele>889.2</ele>
        <time>2019-08-14T09:29:13Z</time>
      </trkpt>
      <trkpt lat="40.9036890" lon="-4.7219400">
        <ele>889.1</ele>
        <time>2019-08-14T09:29:14Z</time>
      </trkpt>
      <trkpt lat="40.9037490" lon="-4.7219710">
        <ele>888.9</ele>
        <time>2019-08-14T09:29:15Z</time>
      </trkpt>
      <trkpt lat="40.9038080" lon="-4.7220010">
        <ele>888.7</ele>
        <time>2019-08-14T09:29:16Z</time>
      </trkpt>
      <trkpt lat="40.9038700" lon="-4.7220300">
        <ele>888.5</ele>
        <time>2019-08-14T09:29:17Z</time>
      </trkpt>
      <trkpt lat="40.9039310" lon="-4.7220610">
        <ele>888.2</ele>
        <time>2019-08-14T09:29:18Z</time>
      </trkpt>
      <trkpt lat="40.9039910" lon="-4.7220910">
        <ele>888.0</ele>
        <time>2019-08-14T09:29:19Z</time>
      </trkpt>
      <trkpt lat="40.9040500" lon="-4.7221200">
        <ele>887.8</ele>
        <time>2019-08-14T09:29:20Z</time>
      </trkpt>
      <trkpt lat="40.9041100" lon="-4.7221480">
        <ele>887.8</ele>
        <time>2019-08-14T09:29:21Z</time>
      </trkpt>
      <trkpt lat="40.9041710" lon="-4.7221780">
        <ele>887.7</ele>
        <time>2019-08-14T09:29:22Z</time>
      </trkpt>
      <trkpt lat="40.9042350" lon="-4.7222090">
        <ele>887.8</ele>
        <time>2019-08-14T09:29:23Z</time>
      </trkpt>
      <trkpt lat="40.9043000" lon="-4.7222400">
        <ele>888.0</ele>
        <time>2019-08-14T09:29:24Z</time>
      </trkpt>
      <trkpt lat="40.9043650" lon="-4.7222720">
        <ele>888.3</ele>
        <time>2019-08-14T09:29:25Z</time>
      </trkpt>
      <trkpt lat="40.9044290" lon="-4.7223060">
        <ele>888.6</ele>
        <time>2019-08-14T09:29:26Z</time>
      </trkpt>
      <trkpt lat="40.9044910" lon="-4.7223400">
        <ele>888.9</ele>
        <time>2019-08-14T09:29:27Z</time>
      </trkpt>
      <trkpt lat="40.9045510" lon="-4.7223740">
        <ele>889.1</ele>
        <time>2019-08-14T09:29:28Z</time>
      </trkpt>
      <trkpt lat="40.9046120" lon="-4.7224060">
        <ele>889.3</ele>
        <time>2019-08-14T09:29:29Z</time>
      </trkpt>
      <trkpt lat="40.9046720" lon="-4.7224360">
        <ele>889.4</ele>
        <time>2019-08-14T09:29:30Z</time>
      </trkpt>
      <trkpt lat="40.9047310" lon="-4.7224640">
        <ele>889.5</ele>
        <time>2019-08-14T09:29:31Z</time>
      </trkpt>
      <trkpt lat="40.9047900" lon="-4.7224900">
        <ele>889.5</ele>
        <time>2019-08-14T09:29:32Z</time>
      </trkpt>
      <trkpt lat="40.9048490" lon="-4.7225180">
        <ele>889.5</ele>
        <time>2019-08-14T09:29:33Z</time>
      </trkpt>
      <trkpt lat="40.9049080" lon="-4.7225480">
        <ele>889.6</ele>
        <time>2019-08-14T09:29:34Z</time>
      </trkpt>
      <trkpt lat="40.9049680" lon="-4.7225770">
        <ele>889.5</ele>
        <time>2019-08-14T09:29:35Z</time>
      </trkpt>
      <trkpt lat="40.9050280" lon="-4.7226070">
        <ele>889.5</ele>
        <time>2019-08-14T09:29:36Z</time>
      </trkpt>
      <trkpt lat="40.9050890" lon="-4.7226370">
        <ele>889.5</ele>
        <time>2019-08-14T09:29:37Z</time>
      </trkpt>
      <trkpt lat="40.9051490" lon="-4.7226670">
        <ele>889.4</ele>
        <time>2019-08-14T09:29:38Z</time>
      </trkpt>
      <trkpt lat="40.9052090" lon="-4.7226960">
        <ele>889.3</ele>
        <time>2019-08-14T09:29:39Z</time>
      </trkpt>
      <trkpt lat="40.9052680" lon="-4.7227270">
        <ele>889.1</ele>
        <time>2019-08-14T09:29:40Z</time>
      </trkpt>
      <trkpt lat="40.9053270" lon="-4.7227570">
        <ele>889.0</ele>
        <time>2019-08-14T09:29:41Z</time>
      </trkpt>
      <trkpt lat="40.9053860" lon="-4.7227860">
        <ele>888.9</ele>
        <time>2019-08-14T09:29:42Z</time>
      </trkpt>
      <trkpt lat="40.9054440" lon="-4.7228160">
        <ele>888.8</ele>
        <time>2019-08-14T09:29:43Z</time>
      </trkpt>
      <trkpt lat="40.9055030" lon="-4.7228460">
        <ele>888.7</ele>
        <time>2019-08-14T09:29:44Z</time>
      </trkpt>
      <trkpt lat="40.9055620" lon="-4.7228760">
        <ele>888.7</ele>
        <time>2019-08-14T09:29:45Z</time>
      </trkpt>
      <trkpt lat="40.9056200" lon="-4.7229050">
        <ele>888.7</ele>
        <time>2019-08-14T09:29:46Z</time>
      </trkpt>
      <trkpt lat="40.9056780" lon="-4.7229320">
        <ele>888.9</ele>
        <time>2019-08-14T09:29:47Z</time>
      </trkpt>
      <trkpt lat="40.9057350" lon="-4.7229600">
        <ele>889.0</ele>
        <time>2019-08-14T09:29:48Z</time>
      </trkpt>
      <trkpt lat="40.9057900" lon="-4.7229880">
        <ele>889.2</ele>
        <time>2019-08-14T09:29:49Z</time>
      </trkpt>
      <trkpt lat="40.9058450" lon="-4.7230170">
        <ele>889.4</ele>
        <time>2019-08-14T09:29:50Z</time>
      </trkpt>
      <trkpt lat="40.9059000" lon="-4.7230450">
        <ele>889.6</ele>
        <time>2019-08-14T09:29:51Z</time>
      </trkpt>
      <trkpt lat="40.9059570" lon="-4.7230740">
        <ele>889.8</ele>
        <time>2019-08-14T09:29:52Z</time>
      </trkpt>
      <trkpt lat="40.9060120" lon="-4.7231030">
        <ele>889.9</ele>
        <time>2019-08-14T09:29:53Z</time>
      </trkpt>
      <trkpt lat="40.9060670" lon="-4.7231320">
        <ele>890.0</ele>
        <time>2019-08-14T09:29:54Z</time>
      </trkpt>
      <trkpt lat="40.9061230" lon="-4.7231600">
        <ele>890.0</ele>
        <time>2019-08-14T09:29:55Z</time>
      </trkpt>
      <trkpt lat="40.9061770" lon="-4.7231860">
        <ele>889.9</ele>
        <time>2019-08-14T09:29:56Z</time>
      </trkpt>
      <trkpt lat="40.9062320" lon="-4.7232110">
        <ele>889.8</ele>
        <time>2019-08-14T09:29:57Z</time>
      </trkpt>
      <trkpt lat="40.9062870" lon="-4.7232370">
        <ele>889.6</ele>
        <time>2019-08-14T09:29:58Z</time>
      </trkpt>
      <trkpt lat="40.9063420" lon="-4.7232640">
        <ele>889.5</ele>
        <time>2019-08-14T09:29:59Z</time>
      </trkpt>
      <trkpt lat="40.9063970" lon="-4.7232910">
        <ele>889.3</ele>
        <time>2019-08-14T09:30:00Z</time>
      </trkpt>
      <trkpt lat="40.9064530" lon="-4.7233180">
        <ele>889.1</ele>
        <time>2019-08-14T09:30:01Z</time>
      </trkpt>
      <trkpt lat="40.9065080" lon="-4.7233450">
        <ele>889.0</ele>
        <time>2019-08-14T09:30:02Z</time>
      </trkpt>
      <trkpt lat="40.9065620" lon="-4.7233730">
        <ele>889.0</ele>
        <time>2019-08-14T09:30:03Z</time>
      </trkpt>
      <trkpt lat="40.9066150" lon="-4.7234000">
        <ele>889.0</ele>
        <time>2019-08-14T09:30:04Z</time>
      </trkpt>
      <trkpt lat="40.9066690" lon="-4.7234290">
        <ele>889.0</ele>
        <time>2019-08-14T09:30:05Z</time>
      </trkpt>
      <trkpt lat="40.9067230" lon="-4.7234580">
        <ele>889.0</ele>
        <time>2019-08-14T09:30:06Z</time>
      </trkpt>
      <trkpt lat="40.9067780" lon="-4.7234880">
        <ele>889.1</ele>
        <time>2019-08-14T09:30:07Z</time>
      </trkpt>
      <trkpt lat="40.9068330" lon="-4.7235180">
        <ele>889.1</ele>
        <time>2019-08-14T09:30:08Z</time>
      </trkpt>
      <trkpt lat="40.9068880" lon="-4.7235460">
        <ele>889.1</ele>
        <time>2019-08-14T09:30:09Z</time>
      </trkpt>
      <trkpt lat="40.9069450" lon="-4.7235750">
        <ele>889.2</ele>
        <time>2019-08-14T09:30:10Z</time>
      </trkpt>
      <trkpt lat="40.9070000" lon="-4.7236030">
        <ele>889.2</ele>
        <time>2019-08-14T09:30:11Z</time>
      </trkpt>
      <trkpt lat="40.9070530" lon="-4.7236320">
        <ele>889.2</ele>
        <time>2019-08-14T09:30:12Z</time>
      </trkpt>
      <trkpt lat="40.9071050" lon="-4.7236570">
        <ele>889.2</ele>
        <time>2019-08-14T09:30:13Z</time>
      </trkpt>
      <trkpt lat="40.9071600" lon="-4.7236810">
        <ele>889.2</ele>
        <time>2019-08-14T09:30:14Z</time>
      </trkpt>
      <trkpt lat="40.9072160" lon="-4.7237080">
        <ele>889.2</ele>
        <time>2019-08-14T09:30:15Z</time>
      </trkpt>
      <trkpt lat="40.9072730" lon="-4.7237370">
        <ele>889.1</ele>
        <time>2019-08-14T09:30:16Z</time>
      </trkpt>
      <trkpt lat="40.9073320" lon="-4.7237690">
        <ele>889.1</ele>
        <time>2019-08-14T09:30:17Z</time>
      </trkpt>
      <trkpt lat="40.9073920" lon="-4.7237990">
        <ele>889.0</ele>
        <time>2019-08-14T09:30:18Z</time>
      </trkpt>
      <trkpt lat="40.9074520" lon="-4.7238300">
        <ele>889.0</ele>
        <time>2019-08-14T09:30:19Z</time>
      </trkpt>
      <trkpt lat="40.9075110" lon="-4.7238600">
        <ele>888.9</ele>
        <time>2019-08-14T09:30:20Z</time>
      </trkpt>
      <trkpt lat="40.9075720" lon="-4.7238880">
        <ele>888.8</ele>
        <time>2019-08-14T09:30:21Z</time>
      </trkpt>
      <trkpt lat="40.9076300" lon="-4.7239180">
        <ele>888.7</ele>
        <time>2019-08-14T09:30:22Z</time>
      </trkpt>
      <trkpt lat="40.9076890" lon="-4.7239480">
        <ele>888.5</ele>
        <time>2019-08-14T09:30:23Z</time>
      </trkpt>
      <trkpt lat="40.9077480" lon="-4.7239780">
        <ele>888.3</ele>
        <time>2019-08-14T09:30:24Z</time>
      </trkpt>
      <trkpt lat="40.9078090" lon="-4.7240070">
        <ele>888.1</ele>
        <time>2019-08-14T09:30:25Z</time>
      </trkpt>
      <trkpt lat="40.9078690" lon="-4.7240380">
        <ele>887.9</ele>
        <time>2019-08-14T09:30:26Z</time>
      </trkpt>
      <trkpt lat="40.9079300" lon="-4.7240690">
        <ele>887.6</ele>
        <time>2019-08-14T09:30:27Z</time>
      </trkpt>
      <trkpt lat="40.9079890" lon="-4.7240980">
        <ele>887.3</ele>
        <time>2019-08-14T09:30:28Z</time>
      </trkpt>
      <trkpt lat="40.9080500" lon="-4.7241270">
        <ele>886.9</ele>
        <time>2019-08-14T09:30:29Z</time>
      </trkpt>
      <trkpt lat="40.9081130" lon="-4.7241600">
        <ele>886.6</ele>
        <time>2019-08-14T09:30:30Z</time>
      </trkpt>
      <trkpt lat="40.9081780" lon="-4.7241920">
        <ele>886.3</ele>
        <time>2019-08-14T09:30:31Z</time>
      </trkpt>
      <trkpt lat="40.9082440" lon="-4.7242280">
        <ele>885.9</ele>
        <time>2019-08-14T09:30:32Z</time>
      </trkpt>
      <trkpt lat="40.9083110" lon="-4.7242620">
        <ele>885.6</ele>
        <time>2019-08-14T09:30:33Z</time>
      </trkpt>
      <trkpt lat="40.9083770" lon="-4.7242990">
        <ele>885.3</ele>
        <time>2019-08-14T09:30:34Z</time>
      </trkpt>
      <trkpt lat="40.9084410" lon="-4.7243360">
        <ele>885.0</ele>
        <time>2019-08-14T09:30:35Z</time>
      </trkpt>
      <trkpt lat="40.9085040" lon="-4.7243700">
        <ele>884.7</ele>
        <time>2019-08-14T09:30:36Z</time>
      </trkpt>
      <trkpt lat="40.9085660" lon="-4.7244050">
        <ele>884.4</ele>
        <time>2019-08-14T09:30:37Z</time>
      </trkpt>
      <trkpt lat="40.9086290" lon="-4.7244400">
        <ele>884.1</ele>
        <time>2019-08-14T09:30:38Z</time>
      </trkpt>
      <trkpt lat="40.9086900" lon="-4.7244730">
        <ele>883.9</ele>
        <time>2019-08-14T09:30:39Z</time>
      </trkpt>
      <trkpt lat="40.9087520" lon="-4.7245040">
        <ele>883.7</ele>
        <time>2019-08-14T09:30:40Z</time>
      </trkpt>
      <trkpt lat="40.9088140" lon="-4.7245340">
        <ele>883.5</ele>
        <time>2019-08-14T09:30:41Z</time>
      </trkpt>
      <trkpt lat="40.9088770" lon="-4.7245680">
        <ele>883.3</ele>
        <time>2019-08-14T09:30:42Z</time>
      </trkpt>
      <trkpt lat="40.9089410" lon="-4.7246030">
        <ele>883.1</ele>
        <time>2019-08-14T09:30:43Z</time>
      </trkpt>
      <trkpt lat="40.9090040" lon="-4.7246390">
        <ele>883.0</ele>
        <time>2019-08-14T09:30:44Z</time>
      </trkpt>
      <trkpt lat="40.9090680" lon="-4.7246740">
        <ele>882.7</ele>
        <time>2019-08-14T09:30:45Z</time>
      </trkpt>
      <trkpt lat="40.9091330" lon="-4.7247070">
        <ele>882.5</ele>
        <time>2019-08-14T09:30:46Z</time>
      </trkpt>
      <trkpt lat="40.9091990" lon="-4.7247420">
        <ele>882.2</ele>
        <time>2019-08-14T09:30:47Z</time>
      </trkpt>
      <trkpt lat="40.9092670" lon="-4.7247770">
        <ele>881.9</ele>
        <time>2019-08-14T09:30:48Z</time>
      </trkpt>
      <trkpt lat="40.9093350" lon="-4.7248130">
        <ele>881.6</ele>
        <time>2019-08-14T09:30:49Z</time>
      </trkpt>
      <trkpt lat="40.9094010" lon="-4.7248490">
        <ele>881.3</ele>
        <time>2019-08-14T09:30:50Z</time>
      </trkpt>
      <trkpt lat="40.9094670" lon="-4.7248870">
        <ele>881.0</ele>
        <time>2019-08-14T09:30:51Z</time>
      </trkpt>
      <trkpt lat="40.9095340" lon="-4.7249240">
        <ele>880.7</ele>
        <time>2019-08-14T09:30:52Z</time>
      </trkpt>
      <trkpt lat="40.9095990" lon="-4.7249610">
        <ele>880.4</ele>
        <time>2019-08-14T09:30:53Z</time>
      </trkpt>
      <trkpt lat="40.9096630" lon="-4.7249970">
        <ele>880.2</ele>
        <time>2019-08-14T09:30:54Z</time>
      </trkpt>
      <trkpt lat="40.9097250" lon="-4.7250320">
        <ele>880.0</ele>
        <time>2019-08-14T09:30:55Z</time>
      </trkpt>
      <trkpt lat="40.9097890" lon="-4.7250660">
        <ele>879.9</ele>
        <time>2019-08-14T09:30:56Z</time>
      </trkpt>
      <trkpt lat="40.9098510" lon="-4.7250990">
        <ele>879.7</ele>
        <time>2019-08-14T09:30:57Z</time>
      </trkpt>
      <trkpt lat="40.9099160" lon="-4.7251330">
        <ele>879.6</ele>
        <time>2019-08-14T09:30:58Z</time>
      </trkpt>
      <trkpt lat="40.9099810" lon="-4.7251670">
        <ele>879.5</ele>
        <time>2019-08-14T09:30:59Z</time>
      </trkpt>
      <trkpt lat="40.9100460" lon="-4.7252040">
        <ele>879.5</ele>
        <time>2019-08-14T09:31:00Z</time>
      </trkpt>
      <trkpt lat="40.9101090" lon="-4.7252430">
        <ele>879.4</ele>
        <time>2019-08-14T09:31:01Z</time>
      </trkpt>
      <trkpt lat="40.9101720" lon="-4.7252800">
        <ele>879.4</ele>
        <time>2019-08-14T09:31:02Z</time>
      </trkpt>
      <trkpt lat="40.9102340" lon="-4.7253160">
        <ele>879.4</ele>
        <time>2019-08-14T09:31:03Z</time>
      </trkpt>
      <trkpt lat="40.9102980" lon="-4.7253500">
        <ele>879.3</ele>
        <time>2019-08-14T09:31:04Z</time>
      </trkpt>
      <trkpt lat="40.9103600" lon="-4.7253830">
        <ele>879.2</ele>
        <time>2019-08-14T09:31:05Z</time>
      </trkpt>
      <trkpt lat="40.9104200" lon="-4.7254170">
        <ele>879.1</ele>
        <time>2019-08-14T09:31:06Z</time>
      </trkpt>
      <trkpt lat="40.9104800" lon="-4.7254510">
        <ele>879.0</ele>
        <time>2019-08-14T09:31:07Z</time>
      </trkpt>
      <trkpt lat="40.9105410" lon="-4.7254850">
        <ele>878.9</ele>
        <time>2019-08-14T09:31:08Z</time>
      </trkpt>
      <trkpt lat="40.9106060" lon="-4.7255200">
        <ele>878.8</ele>
        <time>2019-08-14T09:31:09Z</time>
      </trkpt>
      <trkpt lat="40.9106720" lon="-4.7255560">
        <ele>878.7</ele>
        <time>2019-08-14T09:31:10Z</time>
      </trkpt>
      <trkpt lat="40.9107410" lon="-4.7255920">
        <ele>878.6</ele>
        <time>2019-08-14T09:31:11Z</time>
      </trkpt>
      <trkpt lat="40.9108100" lon="-4.7256300">
        <ele>878.5</ele>
        <time>2019-08-14T09:31:12Z</time>
      </trkpt>
      <trkpt lat="40.9108780" lon="-4.7256680">
        <ele>878.4</ele>
        <time>2019-08-14T09:31:13Z</time>
      </trkpt>
      <trkpt lat="40.9109450" lon="-4.7257050">
        <ele>878.3</ele>
        <time>2019-08-14T09:31:14Z</time>
      </trkpt>
      <trkpt lat="40.9110120" lon="-4.7257420">
        <ele>878.2</ele>
        <time>2019-08-14T09:31:15Z</time>
      </trkpt>
      <trkpt lat="40.9110770" lon="-4.7257790">
        <ele>878.1</ele>
        <time>2019-08-14T09:31:16Z</time>
      </trkpt>
      <trkpt lat="40.9111400" lon="-4.7258170">
        <ele>878.0</ele>
        <time>2019-08-14T09:31:17Z</time>
      </trkpt>
      <trkpt lat="40.9112020" lon="-4.7258530">
        <ele>877.9</ele>
        <time>2019-08-14T09:31:18Z</time>
      </trkpt>
      <trkpt lat="40.9112630" lon="-4.7258880">
        <ele>877.8</ele>
        <time>2019-08-14T09:31:19Z</time>
      </trkpt>
      <trkpt lat="40.9113220" lon="-4.7259230">
        <ele>877.8</ele>
        <time>2019-08-14T09:31:20Z</time>
      </trkpt>
      <trkpt lat="40.9113810" lon="-4.7259560">
        <ele>877.7</ele>
        <time>2019-08-14T09:31:21Z</time>
      </trkpt>
      <trkpt lat="40.9114390" lon="-4.7259870">
        <ele>877.6</ele>
        <time>2019-08-14T09:31:22Z</time>
      </trkpt>
      <trkpt lat="40.9114970" lon="-4.7260170">
        <ele>877.5</ele>
        <time>2019-08-14T09:31:23Z</time>
      </trkpt>
      <trkpt lat="40.9115570" lon="-4.7260480">
        <ele>877.5</ele>
        <time>2019-08-14T09:31:24Z</time>
      </trkpt>
      <trkpt lat="40.9116150" lon="-4.7260790">
        <ele>877.4</ele>
        <time>2019-08-14T09:31:25Z</time>
      </trkpt>
      <trkpt lat="40.9116740" lon="-4.7261120">
        <ele>877.4</ele>
        <time>2019-08-14T09:31:26Z</time>
      </trkpt>
      <trkpt lat="40.9117310" lon="-4.7261470">
        <ele>877.3</ele>
        <time>2019-08-14T09:31:27Z</time>
      </trkpt>
      <trkpt lat="40.9117910" lon="-4.7261810">
        <ele>877.2</ele>
        <time>2019-08-14T09:31:28Z</time>
      </trkpt>
      <trkpt lat="40.9118510" lon="-4.7262150">
        <ele>877.2</ele>
        <time>2019-08-14T09:31:29Z</time>
      </trkpt>
      <trkpt lat="40.9119110" lon="-4.7262480">
        <ele>877.1</ele>
        <time>2019-08-14T09:31:30Z</time>
      </trkpt>
      <trkpt lat="40.9119710" lon="-4.7262810">
        <ele>877.1</ele>
        <time>2019-08-14T09:31:31Z</time>
      </trkpt>
      <trkpt lat="40.9120300" lon="-4.7263140">
        <ele>877.0</ele>
        <time>2019-08-14T09:31:32Z</time>
      </trkpt>
      <trkpt lat="40.9120860" lon="-4.7263460">
        <ele>877.0</ele>
        <time>2019-08-14T09:31:33Z</time>
      </trkpt>
      <trkpt lat="40.9121430" lon="-4.7263750">
        <ele>877.0</ele>
        <time>2019-08-14T09:31:34Z</time>
      </trkpt>
      <trkpt lat="40.9121990" lon="-4.7264050">
        <ele>876.9</ele>
        <time>2019-08-14T09:31:35Z</time>
      </trkpt>
      <trkpt lat="40.9122550" lon="-4.7264370">
        <ele>876.9</ele>
        <time>2019-08-14T09:31:36Z</time>
      </trkpt>
      <trkpt lat="40.9123130" lon="-4.7264690">
        <ele>876.9</ele>
        <time>2019-08-14T09:31:37Z</time>
      </trkpt>
      <trkpt lat="40.9123710" lon="-4.7265020">
        <ele>876.9</ele>
        <time>2019-08-14T09:31:38Z</time>
      </trkpt>
      <trkpt lat="40.9124260" lon="-4.7265340">
        <ele>876.9</ele>
        <time>2019-08-14T09:31:39Z</time>
      </trkpt>
      <trkpt lat="40.9124830" lon="-4.7265660">
        <ele>876.9</ele>
        <time>2019-08-14T09:31:40Z</time>
      </trkpt>
      <trkpt lat="40.9125400" lon="-4.7265970">
        <ele>876.9</ele>
        <time>2019-08-14T09:31:41Z</time>
      </trkpt>
      <trkpt lat="40.9125940" lon="-4.7266280">
        <ele>876.9</ele>
        <time>2019-08-14T09:31:42Z</time>
      </trkpt>
      <trkpt lat="40.9126480" lon="-4.7266570">
        <ele>876.9</ele>
        <time>2019-08-14T09:31:43Z</time>
      </trkpt>
      <trkpt lat="40.9127010" lon="-4.7266870">
        <ele>876.9</ele>
        <time>2019-08-14T09:31:44Z</time>
      </trkpt>
      <trkpt lat="40.9127540" lon="-4.7267160">
        <ele>876.9</ele>
        <time>2019-08-14T09:31:45Z</time>
      </trkpt>
      <trkpt lat="40.9128080" lon="-4.7267460">
        <ele>876.9</ele>
        <time>2019-08-14T09:31:46Z</time>
      </trkpt>
      <trkpt lat="40.9128620" lon="-4.7267750">
        <ele>876.9</ele>
        <time>2019-08-14T09:31:47Z</time>
      </trkpt>
      <trkpt lat="40.9129160" lon="-4.7268040">
        <ele>876.9</ele>
        <time>2019-08-14T09:31:48Z</time>
      </trkpt>
      <trkpt lat="40.9129690" lon="-4.7268330">
        <ele>876.9</ele>
        <time>2019-08-14T09:31:49Z</time>
      </trkpt>
      <trkpt lat="40.9130210" lon="-4.7268620">
        <ele>876.9</ele>
        <time>2019-08-14T09:31:50Z</time>
      </trkpt>
      <trkpt lat="40.9130740" lon="-4.7268910">
        <ele>876.9</ele>
        <time>2019-08-14T09:31:51Z</time>
      </trkpt>
      <trkpt lat="40.9131260" lon="-4.7269200">
        <ele>876.9</ele>
        <time>2019-08-14T09:31:52Z</time>
      </trkpt>
      <trkpt lat="40.9131750" lon="-4.7269490">
        <ele>876.9</ele>
        <time>2019-08-14T09:31:53Z</time>
      </trkpt>
      <trkpt lat="40.9132230" lon="-4.7269780">
        <ele>876.9</ele>
        <time>2019-08-14T09:31:54Z</time>
      </trkpt>
      <trkpt lat="40.9132710" lon="-4.7270030">
        <ele>876.9</ele>
        <time>2019-08-14T09:31:55Z</time>
      </trkpt>
      <trkpt lat="40.9133220" lon="-4.7270290">
        <ele>876.9</ele>
        <time>2019-08-14T09:31:56Z</time>
      </trkpt>
      <trkpt lat="40.9133730" lon="-4.7270540">
        <ele>876.9</ele>
        <time>2019-08-14T09:31:57Z</time>
      </trkpt>
      <trkpt lat="40.9134240" lon="-4.7270810">
        <ele>876.9</ele>
        <time>2019-08-14T09:31:58Z</time>
      </trkpt>
      <trkpt lat="40.9134770" lon="-4.7271100">
        <ele>876.9</ele>
        <time>2019-08-14T09:31:59Z</time>
      </trkpt>
      <trkpt lat="40.9135300" lon="-4.7271410">
        <ele>876.9</ele>
        <time>2019-08-14T09:32:00Z</time>
      </trkpt>
      <trkpt lat="40.9135830" lon="-4.7271720">
        <ele>876.9</ele>
        <time>2019-08-14T09:32:01Z</time>
      </trkpt>
      <trkpt lat="40.9136370" lon="-4.7272030">
        <ele>876.9</ele>
        <time>2019-08-14T09:32:02Z</time>
      </trkpt>
      <trkpt lat="40.9136900" lon="-4.7272330">
        <ele>877.0</ele>
        <time>2019-08-14T09:32:03Z</time>
      </trkpt>
      <trkpt lat="40.9137440" lon="-4.7272630">
        <ele>877.0</ele>
        <time>2019-08-14T09:32:04Z</time>
      </trkpt>
      <trkpt lat="40.9137970" lon="-4.7272930">
        <ele>877.0</ele>
        <time>2019-08-14T09:32:05Z</time>
      </trkpt>
      <trkpt lat="40.9138500" lon="-4.7273230">
        <ele>877.0</ele>
        <time>2019-08-14T09:32:06Z</time>
      </trkpt>
      <trkpt lat="40.9139030" lon="-4.7273530">
        <ele>877.1</ele>
        <time>2019-08-14T09:32:07Z</time>
      </trkpt>
      <trkpt lat="40.9139560" lon="-4.7273820">
        <ele>877.1</ele>
        <time>2019-08-14T09:32:08Z</time>
      </trkpt>
      <trkpt lat="40.9140060" lon="-4.7274100">
        <ele>877.1</ele>
        <time>2019-08-14T09:32:09Z</time>
      </trkpt>
      <trkpt lat="40.9140550" lon="-4.7274360">
        <ele>877.1</ele>
        <time>2019-08-14T09:32:10Z</time>
      </trkpt>
      <trkpt lat="40.9141050" lon="-4.7274630">
        <ele>877.1</ele>
        <time>2019-08-14T09:32:11Z</time>
      </trkpt>
      <trkpt lat="40.9141540" lon="-4.7274890">
        <ele>877.2</ele>
        <time>2019-08-14T09:32:12Z</time>
      </trkpt>
      <trkpt lat="40.9142030" lon="-4.7275160">
        <ele>877.2</ele>
        <time>2019-08-14T09:32:13Z</time>
      </trkpt>
      <trkpt lat="40.9142530" lon="-4.7275440">
        <ele>877.2</ele>
        <time>2019-08-14T09:32:14Z</time>
      </trkpt>
      <trkpt lat="40.9143020" lon="-4.7275710">
        <ele>877.3</ele>
        <time>2019-08-14T09:32:15Z</time>
      </trkpt>
      <trkpt lat="40.9143510" lon="-4.7275990">
        <ele>877.3</ele>
        <time>2019-08-14T09:32:16Z</time>
      </trkpt>
      <trkpt lat="40.9143990" lon="-4.7276260">
        <ele>877.4</ele>
        <time>2019-08-14T09:32:17Z</time>
      </trkpt>
      <trkpt lat="40.9144470" lon="-4.7276530">
        <ele>877.5</ele>
        <time>2019-08-14T09:32:18Z</time>
      </trkpt>
      <trkpt lat="40.9144950" lon="-4.7276770">
        <ele>877.6</ele>
        <time>2019-08-14T09:32:19Z</time>
      </trkpt>
      <trkpt lat="40.9145420" lon="-4.7277030">
        <ele>877.7</ele>
        <time>2019-08-14T09:32:20Z</time>
      </trkpt>
      <trkpt lat="40.9145900" lon="-4.7277280">
        <ele>877.8</ele>
        <time>2019-08-14T09:32:21Z</time>
      </trkpt>
      <trkpt lat="40.9146390" lon="-4.7277530">
        <ele>877.9</ele>
        <time>2019-08-14T09:32:22Z</time>
      </trkpt>
      <trkpt lat="40.9146880" lon="-4.7277790">
        <ele>878.0</ele>
        <time>2019-08-14T09:32:23Z</time>
      </trkpt>
      <trkpt lat="40.9147360" lon="-4.7278040">
        <ele>878.0</ele>
        <time>2019-08-14T09:32:24Z</time>
      </trkpt>
      <trkpt lat="40.9147820" lon="-4.7278310">
        <ele>878.1</ele>
        <time>2019-08-14T09:32:25Z</time>
      </trkpt>
      <trkpt lat="40.9148260" lon="-4.7278570">
        <ele>878.2</ele>
        <time>2019-08-14T09:32:26Z</time>
      </trkpt>
      <trkpt lat="40.9148700" lon="-4.7278820">
        <ele>878.3</ele>
        <time>2019-08-14T09:32:27Z</time>
      </trkpt>
      <trkpt lat="40.9149140" lon="-4.7279060">
        <ele>878.3</ele>
        <time>2019-08-14T09:32:28Z</time>
      </trkpt>
      <trkpt lat="40.9149560" lon="-4.7279300">
        <ele>878.4</ele>
        <time>2019-08-14T09:32:29Z</time>
      </trkpt>
      <trkpt lat="40.9149970" lon="-4.7279540">
        <ele>878.5</ele>
        <time>2019-08-14T09:32:30Z</time>
      </trkpt>
      <trkpt lat="40.9150380" lon="-4.7279760">
        <ele>878.6</ele>
        <time>2019-08-14T09:32:31Z</time>
      </trkpt>
      <trkpt lat="40.9150800" lon="-4.7279980">
        <ele>878.7</ele>
        <time>2019-08-14T09:32:32Z</time>
      </trkpt>
      <trkpt lat="40.9151210" lon="-4.7280190">
        <ele>878.8</ele>
        <time>2019-08-14T09:32:33Z</time>
      </trkpt>
      <trkpt lat="40.9151620" lon="-4.7280410">
        <ele>878.9</ele>
        <time>2019-08-14T09:32:34Z</time>
      </trkpt>
      <trkpt lat="40.9152020" lon="-4.7280640">
        <ele>879.0</ele>
        <time>2019-08-14T09:32:35Z</time>
      </trkpt>
      <trkpt lat="40.9152410" lon="-4.7280860">
        <ele>879.2</ele>
        <time>2019-08-14T09:32:36Z</time>
      </trkpt>
      <trkpt lat="40.9152790" lon="-4.7281080">
        <ele>879.3</ele>
        <time>2019-08-14T09:32:37Z</time>
      </trkpt>
      <trkpt lat="40.9153170" lon="-4.7281290">
        <ele>879.4</ele>
        <time>2019-08-14T09:32:38Z</time>
      </trkpt>
      <trkpt lat="40.9153570" lon="-4.7281490">
        <ele>879.6</ele>
        <time>2019-08-14T09:32:39Z</time>
      </trkpt>
      <trkpt lat="40.9153960" lon="-4.7281690">
        <ele>879.7</ele>
        <time>2019-08-14T09:32:40Z</time>
      </trkpt>
      <trkpt lat="40.9154350" lon="-4.7281900">
        <ele>879.9</ele>
        <time>2019-08-14T09:32:41Z</time>
      </trkpt>
      <trkpt lat="40.9154740" lon="-4.7282140">
        <ele>880.0</ele>
        <time>2019-08-14T09:32:42Z</time>
      </trkpt>
      <trkpt lat="40.9155140" lon="-4.7282360">
        <ele>880.2</ele>
        <time>2019-08-14T09:32:43Z</time>
      </trkpt>
      <trkpt lat="40.9155540" lon="-4.7282580">
        <ele>880.3</ele>
        <time>2019-08-14T09:32:44Z</time>
      </trkpt>
      <trkpt lat="40.9155930" lon="-4.7282810">
        <ele>880.4</ele>
        <time>2019-08-14T09:32:45Z</time>
      </trkpt>
      <trkpt lat="40.9156310" lon="-4.7283030">
        <ele>880.6</ele>
        <time>2019-08-14T09:32:46Z</time>
      </trkpt>
      <trkpt lat="40.9156690" lon="-4.7283260">
        <ele>880.7</ele>
        <time>2019-08-14T09:32:47Z</time>
      </trkpt>
      <trkpt lat="40.9157060" lon="-4.7283480">
        <ele>880.8</ele>
        <time>2019-08-14T09:32:48Z</time>
      </trkpt>
      <trkpt lat="40.9157430" lon="-4.7283700">
        <ele>880.8</ele>
        <time>2019-08-14T09:32:49Z</time>
      </trkpt>
      <trkpt lat="40.9157800" lon="-4.7283890">
        <ele>880.9</ele>
        <time>2019-08-14T09:32:50Z</time>
      </trkpt>
      <trkpt lat="40.9158170" lon="-4.7284110">
        <ele>881.0</ele>
        <time>2019-08-14T09:32:51Z</time>
      </trkpt>
      <trkpt lat="40.9158520" lon="-4.7284320">
        <ele>881.1</ele>
        <time>2019-08-14T09:32:52Z</time>
      </trkpt>
      <trkpt lat="40.9158890" lon="-4.7284520">
        <ele>881.2</ele>
        <time>2019-08-14T09:32:53Z</time>
      </trkpt>
      <trkpt lat="40.9159250" lon="-4.7284720">
        <ele>881.3</ele>
        <time>2019-08-14T09:32:54Z</time>
      </trkpt>
      <trkpt lat="40.9159610" lon="-4.7284910">
        <ele>881.4</ele>
        <time>2019-08-14T09:32:55Z</time>
      </trkpt>
      <trkpt lat="40.9159980" lon="-4.7285110">
        <ele>881.5</ele>
        <time>2019-08-14T09:32:56Z</time>
      </trkpt>
      <trkpt lat="40.9160350" lon="-4.7285320">
        <ele>881.6</ele>
        <time>2019-08-14T09:32:57Z</time>
      </trkpt>
      <trkpt lat="40.9160710" lon="-4.7285530">
        <ele>881.7</ele>
        <time>2019-08-14T09:32:58Z</time>
      </trkpt>
      <trkpt lat="40.9161080" lon="-4.7285750">
        <ele>881.8</ele>
        <time>2019-08-14T09:32:59Z</time>
      </trkpt>
      <trkpt lat="40.9161450" lon="-4.7285960">
        <ele>881.8</ele>
        <time>2019-08-14T09:33:00Z</time>
      </trkpt>
      <trkpt lat="40.9161830" lon="-4.7286160">
        <ele>881.9</ele>
        <time>2019-08-14T09:33:01Z</time>
      </trkpt>
      <trkpt lat="40.9162200" lon="-4.7286370">
        <ele>881.9</ele>
        <time>2019-08-14T09:33:02Z</time>
      </trkpt>
      <trkpt lat="40.9162590" lon="-4.7286580">
        <ele>882.0</ele>
        <time>2019-08-14T09:33:03Z</time>
      </trkpt>
      <trkpt lat="40.9162980" lon="-4.7286790">
        <ele>882.0</ele>
        <time>2019-08-14T09:33:04Z</time>
      </trkpt>
      <trkpt lat="40.9163370" lon="-4.7286990">
        <ele>882.1</ele>
        <time>2019-08-14T09:33:05Z</time>
      </trkpt>
      <trkpt lat="40.9163770" lon="-4.7287190">
        <ele>882.1</ele>
        <time>2019-08-14T09:33:06Z</time>
      </trkpt>
      <trkpt lat="40.9164170" lon="-4.7287400">
        <ele>882.1</ele>
        <time>2019-08-14T09:33:07Z</time>
      </trkpt>
      <trkpt lat="40.9164560" lon="-4.7287610">
        <ele>882.1</ele>
        <time>2019-08-14T09:33:08Z</time>
      </trkpt>
      <trkpt lat="40.9164960" lon="-4.7287830">
        <ele>882.1</ele>
        <time>2019-08-14T09:33:09Z</time>
      </trkpt>
      <trkpt lat="40.9165370" lon="-4.7288030">
        <ele>882.1</ele>
        <time>2019-08-14T09:33:10Z</time>
      </trkpt>
      <trkpt lat="40.9165770" lon="-4.7288240">
        <ele>882.1</ele>
        <time>2019-08-14T09:33:11Z</time>
      </trkpt>
      <trkpt lat="40.9166190" lon="-4.7288450">
        <ele>882.1</ele>
        <time>2019-08-14T09:33:12Z</time>
      </trkpt>
      <trkpt lat="40.9166610" lon="-4.7288650">
        <ele>882.0</ele>
        <time>2019-08-14T09:33:13Z</time>
      </trkpt>
      <trkpt lat="40.9167020" lon="-4.7288870">
        <ele>882.0</ele>
        <time>2019-08-14T09:33:14Z</time>
      </trkpt>
      <trkpt lat="40.9167440" lon="-4.7289100">
        <ele>882.0</ele>
        <time>2019-08-14T09:33:15Z</time>
      </trkpt>
      <trkpt lat="40.9167860" lon="-4.7289300">
        <ele>882.0</ele>
        <time>2019-08-14T09:33:16Z</time>
      </trkpt>
      <trkpt lat="40.9168290" lon="-4.7289510">
        <ele>882.0</ele>
        <time>2019-08-14T09:33:17Z</time>
      </trkpt>
      <trkpt lat="40.9168720" lon="-4.7289730">
        <ele>882.0</ele>
        <time>2019-08-14T09:33:18Z</time>
      </trkpt>
      <trkpt lat="40.9169150" lon="-4.7289940">
        <ele>882.0</ele>
        <time>2019-08-14T09:33:19Z</time>
      </trkpt>
      <trkpt lat="40.9169600" lon="-4.7290140">
        <ele>881.9</ele>
        <time>2019-08-14T09:33:20Z</time>
      </trkpt>
      <trkpt lat="40.9170050" lon="-4.7290350">
        <ele>881.9</ele>
        <time>2019-08-14T09:33:21Z</time>
      </trkpt>
      <trkpt lat="40.9170510" lon="-4.7290540">
        <ele>881.8</ele>
        <time>2019-08-14T09:33:22Z</time>
      </trkpt>
      <trkpt lat="40.9170970" lon="-4.7290720">
        <ele>881.7</ele>
        <time>2019-08-14T09:33:23Z</time>
      </trkpt>
      <trkpt lat="40.9171440" lon="-4.7290900">
        <ele>881.6</ele>
        <time>2019-08-14T09:33:24Z</time>
      </trkpt>
      <trkpt lat="40.9171920" lon="-4.7291080">
        <ele>881.4</ele>
        <time>2019-08-14T09:33:25Z</time>
      </trkpt>
      <trkpt lat="40.9172380" lon="-4.7291230">
        <ele>881.3</ele>
        <time>2019-08-14T09:33:26Z</time>
      </trkpt>
      <trkpt lat="40.9172830" lon="-4.7291350">
        <ele>881.2</ele>
        <time>2019-08-14T09:33:27Z</time>
      </trkpt>
      <trkpt lat="40.9173310" lon="-4.7291460">
        <ele>881.0</ele>
        <time>2019-08-14T09:33:28Z</time>
      </trkpt>
      <trkpt lat="40.9173800" lon="-4.7291580">
        <ele>880.9</ele>
        <time>2019-08-14T09:33:29Z</time>
      </trkpt>
      <trkpt lat="40.9174290" lon="-4.7291680">
        <ele>880.8</ele>
        <time>2019-08-14T09:33:30Z</time>
      </trkpt>
      <trkpt lat="40.9174770" lon="-4.7291820">
        <ele>880.6</ele>
        <time>2019-08-14T09:33:31Z</time>
      </trkpt>
      <trkpt lat="40.9175240" lon="-4.7291950">
        <ele>880.5</ele>
        <time>2019-08-14T09:33:32Z</time>
      </trkpt>
      <trkpt lat="40.9175690" lon="-4.7292080">
        <ele>880.4</ele>
        <time>2019-08-14T09:33:33Z</time>
      </trkpt>
      <trkpt lat="40.9176150" lon="-4.7292190">
        <ele>880.3</ele>
        <time>2019-08-14T09:33:34Z</time>
      </trkpt>
      <trkpt lat="40.9176590" lon="-4.7292290">
        <ele>880.2</ele>
        <time>2019-08-14T09:33:35Z</time>
      </trkpt>
      <trkpt lat="40.9177040" lon="-4.7292390">
        <ele>880.1</ele>
        <time>2019-08-14T09:33:36Z</time>
      </trkpt>
      <trkpt lat="40.9177480" lon="-4.7292470">
        <ele>880.0</ele>
        <time>2019-08-14T09:33:37Z</time>
      </trkpt>
      <trkpt lat="40.9177940" lon="-4.7292530">
        <ele>880.0</ele>
        <time>2019-08-14T09:33:38Z</time>
      </trkpt>
      <trkpt lat="40.9178410" lon="-4.7292620">
        <ele>880.0</ele>
        <time>2019-08-14T09:33:39Z</time>
      </trkpt>
      <trkpt lat="40.9178910" lon="-4.7292650">
        <ele>880.0</ele>
        <time>2019-08-14T09:33:40Z</time>
      </trkpt>
      <trkpt lat="40.9179440" lon="-4.7292690">
        <ele>880.0</ele>
        <time>2019-08-14T09:33:41Z</time>
      </trkpt>
      <trkpt lat="40.9179950" lon="-4.7292720">
        <ele>880.1</ele>
        <time>2019-08-14T09:33:42Z</time>
      </trkpt>
      <trkpt lat="40.9180430" lon="-4.7292760">
        <ele>880.1</ele>
        <time>2019-08-14T09:33:43Z</time>
      </trkpt>
      <trkpt lat="40.9180930" lon="-4.7292800">
        <ele>880.2</ele>
        <time>2019-08-14T09:33:44Z</time>
      </trkpt>
      <trkpt lat="40.9181460" lon="-4.7292860">
        <ele>880.2</ele>
        <time>2019-08-14T09:33:45Z</time>
      </trkpt>
      <trkpt lat="40.9182000" lon="-4.7292930">
        <ele>880.2</ele>
        <time>2019-08-14T09:33:46Z</time>
      </trkpt>
      <trkpt lat="40.9182540" lon="-4.7293010">
        <ele>880.2</ele>
        <time>2019-08-14T09:33:47Z</time>
      </trkpt>
      <trkpt lat="40.9183080" lon="-4.7293080">
        <ele>880.2</ele>
        <time>2019-08-14T09:33:48Z</time>
      </trkpt>
      <trkpt lat="40.9183620" lon="-4.7293140">
        <ele>880.2</ele>
        <time>2019-08-14T09:33:49Z</time>
      </trkpt>
      <trkpt lat="40.9184160" lon="-4.7293220">
        <ele>880.1</ele>
        <time>2019-08-14T09:33:50Z</time>
      </trkpt>
      <trkpt lat="40.9184690" lon="-4.7293270">
        <ele>880.1</ele>
        <time>2019-08-14T09:33:51Z</time>
      </trkpt>
      <trkpt lat="40.9185220" lon="-4.7293330">
        <ele>880.0</ele>
        <time>2019-08-14T09:33:52Z</time>
      </trkpt>
      <trkpt lat="40.9185740" lon="-4.7293390">
        <ele>879.8</ele>
        <time>2019-08-14T09:33:53Z</time>
      </trkpt>
      <trkpt lat="40.9186260" lon="-4.7293450">
        <ele>879.7</ele>
        <time>2019-08-14T09:33:54Z</time>
      </trkpt>
      <trkpt lat="40.9186790" lon="-4.7293500">
        <ele>879.6</ele>
        <time>2019-08-14T09:33:55Z</time>
      </trkpt>
      <trkpt lat="40.9187330" lon="-4.7293560">
        <ele>879.4</ele>
        <time>2019-08-14T09:33:56Z</time>
      </trkpt>
      <trkpt lat="40.9187900" lon="-4.7293620">
        <ele>879.2</ele>
        <time>2019-08-14T09:33:57Z</time>
      </trkpt>
      <trkpt lat="40.9188470" lon="-4.7293700">
        <ele>879.0</ele>
        <time>2019-08-14T09:33:58Z</time>
      </trkpt>
      <trkpt lat="40.9189040" lon="-4.7293770">
        <ele>878.8</ele>
        <time>2019-08-14T09:33:59Z</time>
      </trkpt>
      <trkpt lat="40.9189610" lon="-4.7293830">
        <ele>878.5</ele>
        <time>2019-08-14T09:34:00Z</time>
      </trkpt>
      <trkpt lat="40.9190180" lon="-4.7293870">
        <ele>878.3</ele>
        <time>2019-08-14T09:34:01Z</time>
      </trkpt>
      <trkpt lat="40.9190760" lon="-4.7293910">
        <ele>878.0</ele>
        <time>2019-08-14T09:34:02Z</time>
      </trkpt>
      <trkpt lat="40.9191330" lon="-4.7293940">
        <ele>877.7</ele>
        <time>2019-08-14T09:34:03Z</time>
      </trkpt>
      <trkpt lat="40.9191900" lon="-4.7293970">
        <ele>877.4</ele>
        <time>2019-08-14T09:34:04Z</time>
      </trkpt>
      <trkpt lat="40.9192470" lon="-4.7293980">
        <ele>877.0</ele>
        <time>2019-08-14T09:34:05Z</time>
      </trkpt>
      <trkpt lat="40.9193050" lon="-4.7293970">
        <ele>876.7</ele>
        <time>2019-08-14T09:34:06Z</time>
      </trkpt>
      <trkpt lat="40.9193640" lon="-4.7293970">
        <ele>876.2</ele>
        <time>2019-08-14T09:34:07Z</time>
      </trkpt>
      <trkpt lat="40.9194260" lon="-4.7293960">
        <ele>875.8</ele>
        <time>2019-08-14T09:34:08Z</time>
      </trkpt>
      <trkpt lat="40.9194890" lon="-4.7293950">
        <ele>875.3</ele>
        <time>2019-08-14T09:34:09Z</time>
      </trkpt>
      <trkpt lat="40.9195520" lon="-4.7293910">
        <ele>874.8</ele>
        <time>2019-08-14T09:34:10Z</time>
      </trkpt>
      <trkpt lat="40.9196160" lon="-4.7293840">
        <ele>874.7</ele>
        <time>2019-08-14T09:34:11Z</time>
      </trkpt>
      <trkpt lat="40.9196800" lon="-4.7293750">
        <ele>874.6</ele>
        <time>2019-08-14T09:34:12Z</time>
      </trkpt>
      <trkpt lat="40.9197440" lon="-4.7293680">
        <ele>874.5</ele>
        <time>2019-08-14T09:34:13Z</time>
      </trkpt>
      <trkpt lat="40.9198090" lon="-4.7293610">
        <ele>874.4</ele>
        <time>2019-08-14T09:34:14Z</time>
      </trkpt>
      <trkpt lat="40.9198730" lon="-4.7293510">
        <ele>874.3</ele>
        <time>2019-08-14T09:34:15Z</time>
      </trkpt>
      <trkpt lat="40.9199370" lon="-4.7293380">
        <ele>874.1</ele>
        <time>2019-08-14T09:34:16Z</time>
      </trkpt>
      <trkpt lat="40.9200000" lon="-4.7293220">
        <ele>874.0</ele>
        <time>2019-08-14T09:34:17Z</time>
      </trkpt>
      <trkpt lat="40.9200610" lon="-4.7293060">
        <ele>873.8</ele>
        <time>2019-08-14T09:34:18Z</time>
      </trkpt>
      <trkpt lat="40.9201220" lon="-4.7292890">
        <ele>873.6</ele>
        <time>2019-08-14T09:34:19Z</time>
      </trkpt>
      <trkpt lat="40.9201840" lon="-4.7292720">
        <ele>873.4</ele>
        <time>2019-08-14T09:34:20Z</time>
      </trkpt>
      <trkpt lat="40.9202470" lon="-4.7292540">
        <ele>873.2</ele>
        <time>2019-08-14T09:34:21Z</time>
      </trkpt>
      <trkpt lat="40.9203090" lon="-4.7292360">
        <ele>873.1</ele>
        <time>2019-08-14T09:34:22Z</time>
      </trkpt>
      <trkpt lat="40.9203710" lon="-4.7292170">
        <ele>872.9</ele>
        <time>2019-08-14T09:34:23Z</time>
      </trkpt>
      <trkpt lat="40.9204320" lon="-4.7291980">
        <ele>872.8</ele>
        <time>2019-08-14T09:34:24Z</time>
      </trkpt>
      <trkpt lat="40.9204920" lon="-4.7291770">
        <ele>872.7</ele>
        <time>2019-08-14T09:34:25Z</time>
      </trkpt>
      <trkpt lat="40.9205500" lon="-4.7291570">
        <ele>872.6</ele>
        <time>2019-08-14T09:34:26Z</time>
      </trkpt>
      <trkpt lat="40.9206080" lon="-4.7291360">
        <ele>872.4</ele>
        <time>2019-08-14T09:34:27Z</time>
      </trkpt>
      <trkpt lat="40.9206680" lon="-4.7291150">
        <ele>872.3</ele>
        <time>2019-08-14T09:34:28Z</time>
      </trkpt>
      <trkpt lat="40.9207270" lon="-4.7290940">
        <ele>872.1</ele>
        <time>2019-08-14T09:34:29Z</time>
      </trkpt>
      <trkpt lat="40.9207870" lon="-4.7290730">
        <ele>871.9</ele>
        <time>2019-08-14T09:34:30Z</time>
      </trkpt>
      <trkpt lat="40.9208470" lon="-4.7290530">
        <ele>871.7</ele>
        <time>2019-08-14T09:34:31Z</time>
      </trkpt>
      <trkpt lat="40.9209050" lon="-4.7290320">
        <ele>871.6</ele>
        <time>2019-08-14T09:34:32Z</time>
      </trkpt>
      <trkpt lat="40.9209620" lon="-4.7290120">
        <ele>871.5</ele>
        <time>2019-08-14T09:34:33Z</time>
      </trkpt>
      <trkpt lat="40.9210190" lon="-4.7289930">
        <ele>871.4</ele>
        <time>2019-08-14T09:34:34Z</time>
      </trkpt>
      <trkpt lat="40.9210770" lon="-4.7289720">
        <ele>871.2</ele>
        <time>2019-08-14T09:34:35Z</time>
      </trkpt>
      <trkpt lat="40.9211350" lon="-4.7289500">
        <ele>871.1</ele>
        <time>2019-08-14T09:34:36Z</time>
      </trkpt>
      <trkpt lat="40.9211930" lon="-4.7289290">
        <ele>871.0</ele>
        <time>2019-08-14T09:34:37Z</time>
      </trkpt>
      <trkpt lat="40.9212510" lon="-4.7289090">
        <ele>871.0</ele>
        <time>2019-08-14T09:34:38Z</time>
      </trkpt>
      <trkpt lat="40.9213090" lon="-4.7288900">
        <ele>870.9</ele>
        <time>2019-08-14T09:34:39Z</time>
      </trkpt>
      <trkpt lat="40.9213670" lon="-4.7288690">
        <ele>870.9</ele>
        <time>2019-08-14T09:34:40Z</time>
      </trkpt>
      <trkpt lat="40.9214250" lon="-4.7288480">
        <ele>870.9</ele>
        <time>2019-08-14T09:34:41Z</time>
      </trkpt>
      <trkpt lat="40.9214840" lon="-4.7288300">
        <ele>870.9</ele>
        <time>2019-08-14T09:34:42Z</time>
      </trkpt>
      <trkpt lat="40.9215440" lon="-4.7288110">
        <ele>870.9</ele>
        <time>2019-08-14T09:34:43Z</time>
      </trkpt>
      <trkpt lat="40.9216040" lon="-4.7287900">
        <ele>870.9</ele>
        <time>2019-08-14T09:34:44Z</time>
      </trkpt>
      <trkpt lat="40.9216650" lon="-4.7287680">
        <ele>870.9</ele>
        <time>2019-08-14T09:34:45Z</time>
      </trkpt>
      <trkpt lat="40.9217260" lon="-4.7287470">
        <ele>870.9</ele>
        <time>2019-08-14T09:34:46Z</time>
      </trkpt>
      <trkpt lat="40.9217860" lon="-4.7287250">
        <ele>870.9</ele>
        <time>2019-08-14T09:34:47Z</time>
      </trkpt>
      <trkpt lat="40.9218460" lon="-4.7287040">
        <ele>870.9</ele>
        <time>2019-08-14T09:34:48Z</time>
      </trkpt>
      <trkpt lat="40.9219070" lon="-4.7286830">
        <ele>870.9</ele>
        <time>2019-08-14T09:34:49Z</time>
      </trkpt>
      <trkpt lat="40.9219680" lon="-4.7286630">
        <ele>870.9</ele>
        <time>2019-08-14T09:34:50Z</time>
      </trkpt>
      <trkpt lat="40.9220290" lon="-4.7286420">
        <ele>870.9</ele>
        <time>2019-08-14T09:34:51Z</time>
      </trkpt>
      <trkpt lat="40.9220900" lon="-4.7286200">
        <ele>870.9</ele>
        <time>2019-08-14T09:34:52Z</time>
      </trkpt>
      <trkpt lat="40.9221490" lon="-4.7285980">
        <ele>870.9</ele>
        <time>2019-08-14T09:34:53Z</time>
      </trkpt>
      <trkpt lat="40.9222100" lon="-4.7285770">
        <ele>870.9</ele>
        <time>2019-08-14T09:34:54Z</time>
      </trkpt>
      <trkpt lat="40.9222690" lon="-4.7285570">
        <ele>870.9</ele>
        <time>2019-08-14T09:34:55Z</time>
      </trkpt>
      <trkpt lat="40.9223290" lon="-4.7285370">
        <ele>870.9</ele>
        <time>2019-08-14T09:34:56Z</time>
      </trkpt>
      <trkpt lat="40.9223860" lon="-4.7285170">
        <ele>870.9</ele>
        <time>2019-08-14T09:34:57Z</time>
      </trkpt>
      <trkpt lat="40.9224440" lon="-4.7284980">
        <ele>870.9</ele>
        <time>2019-08-14T09:34:58Z</time>
      </trkpt>
      <trkpt lat="40.9225010" lon="-4.7284780">
        <ele>870.9</ele>
        <time>2019-08-14T09:34:59Z</time>
      </trkpt>
      <trkpt lat="40.9225580" lon="-4.7284570">
        <ele>870.9</ele>
        <time>2019-08-14T09:35:00Z</time>
      </trkpt>
      <trkpt lat="40.9226140" lon="-4.7284360">
        <ele>870.9</ele>
        <time>2019-08-14T09:35:01Z</time>
      </trkpt>
      <trkpt lat="40.9226700" lon="-4.7284160">
        <ele>870.9</ele>
        <time>2019-08-14T09:35:02Z</time>
      </trkpt>
      <trkpt lat="40.9227260" lon="-4.7283960">
        <ele>870.9</ele>
        <time>2019-08-14T09:35:03Z</time>
      </trkpt>
      <trkpt lat="40.9227830" lon="-4.7283750">
        <ele>870.9</ele>
        <time>2019-08-14T09:35:04Z</time>
      </trkpt>
      <trkpt lat="40.9228390" lon="-4.7283560">
        <ele>870.9</ele>
        <time>2019-08-14T09:35:05Z</time>
      </trkpt>
      <trkpt lat="40.9228940" lon="-4.7283360">
        <ele>870.9</ele>
        <time>2019-08-14T09:35:06Z</time>
      </trkpt>
      <trkpt lat="40.9229490" lon="-4.7283160">
        <ele>870.9</ele>
        <time>2019-08-14T09:35:07Z</time>
      </trkpt>
      <trkpt lat="40.9230050" lon="-4.7282960">
        <ele>870.9</ele>
        <time>2019-08-14T09:35:08Z</time>
      </trkpt>
      <trkpt lat="40.9230600" lon="-4.7282760">
        <ele>870.9</ele>
        <time>2019-08-14T09:35:09Z</time>
      </trkpt>
      <trkpt lat="40.9231170" lon="-4.7282570">
        <ele>870.9</ele>
        <time>2019-08-14T09:35:10Z</time>
      </trkpt>
      <trkpt lat="40.9231730" lon="-4.7282380">
        <ele>870.9</ele>
        <time>2019-08-14T09:35:11Z</time>
      </trkpt>
      <trkpt lat="40.9232310" lon="-4.7282180">
        <ele>870.9</ele>
        <time>2019-08-14T09:35:12Z</time>
      </trkpt>
      <trkpt lat="40.9232880" lon="-4.7281970">
        <ele>870.9</ele>
        <time>2019-08-14T09:35:13Z</time>
      </trkpt>
      <trkpt lat="40.9233460" lon="-4.7281760">
        <ele>870.9</ele>
        <time>2019-08-14T09:35:14Z</time>
      </trkpt>
      <trkpt lat="40.9234030" lon="-4.7281560">
        <ele>870.9</ele>
        <time>2019-08-14T09:35:15Z</time>
      </trkpt>
      <trkpt lat="40.9234590" lon="-4.7281350">
        <ele>870.9</ele>
        <time>2019-08-14T09:35:16Z</time>
      </trkpt>
      <trkpt lat="40.9235140" lon="-4.7281150">
        <ele>870.9</ele>
        <time>2019-08-14T09:35:17Z</time>
      </trkpt>
      <trkpt lat="40.9235700" lon="-4.7280940">
        <ele>870.9</ele>
        <time>2019-08-14T09:35:18Z</time>
      </trkpt>
      <trkpt lat="40.9236230" lon="-4.7280760">
        <ele>870.9</ele>
        <time>2019-08-14T09:35:19Z</time>
      </trkpt>
      <trkpt lat="40.9236770" lon="-4.7280580">
        <ele>870.9</ele>
        <time>2019-08-14T09:35:20Z</time>
      </trkpt>
      <trkpt lat="40.9237310" lon="-4.7280420">
        <ele>870.9</ele>
        <time>2019-08-14T09:35:21Z</time>
      </trkpt>
      <trkpt lat="40.9237860" lon="-4.7280240">
        <ele>871.0</ele>
        <time>2019-08-14T09:35:22Z</time>
      </trkpt>
      <trkpt lat="40.9238410" lon="-4.7280040">
        <ele>871.0</ele>
        <time>2019-08-14T09:35:23Z</time>
      </trkpt>
      <trkpt lat="40.9238970" lon="-4.7279840">
        <ele>871.0</ele>
        <time>2019-08-14T09:35:24Z</time>
      </trkpt>
      <trkpt lat="40.9239530" lon="-4.7279650">
        <ele>871.0</ele>
        <time>2019-08-14T09:35:25Z</time>
      </trkpt>
      <trkpt lat="40.9240090" lon="-4.7279450">
        <ele>871.0</ele>
        <time>2019-08-14T09:35:26Z</time>
      </trkpt>
      <trkpt lat="40.9240660" lon="-4.7279260">
        <ele>871.0</ele>
        <time>2019-08-14T09:35:27Z</time>
      </trkpt>
      <trkpt lat="40.9241220" lon="-4.7279070">
        <ele>871.0</ele>
        <time>2019-08-14T09:35:28Z</time>
      </trkpt>
      <trkpt lat="40.9241780" lon="-4.7278870">
        <ele>871.0</ele>
        <time>2019-08-14T09:35:29Z</time>
      </trkpt>
      <trkpt lat="40.9242340" lon="-4.7278660">
        <ele>871.0</ele>
        <time>2019-08-14T09:35:30Z</time>
      </trkpt>
      <trkpt lat="40.9242900" lon="-4.7278450">
        <ele>871.0</ele>
        <time>2019-08-14T09:35:31Z</time>
      </trkpt>
      <trkpt lat="40.9243460" lon="-4.7278240">
        <ele>871.0</ele>
        <time>2019-08-14T09:35:32Z</time>
      </trkpt>
      <trkpt lat="40.9244000" lon="-4.7278050">
        <ele>871.0</ele>
        <time>2019-08-14T09:35:33Z</time>
      </trkpt>
      <trkpt lat="40.9244550" lon="-4.7277870">
        <ele>871.0</ele>
        <time>2019-08-14T09:35:34Z</time>
      </trkpt>
      <trkpt lat="40.9245100" lon="-4.7277690">
        <ele>871.0</ele>
        <time>2019-08-14T09:35:35Z</time>
      </trkpt>
      <trkpt lat="40.9245670" lon="-4.7277510">
        <ele>871.0</ele>
        <time>2019-08-14T09:35:36Z</time>
      </trkpt>
      <trkpt lat="40.9246230" lon="-4.7277340">
        <ele>871.1</ele>
        <time>2019-08-14T09:35:37Z</time>
      </trkpt>
      <trkpt lat="40.9246790" lon="-4.7277170">
        <ele>871.2</ele>
        <time>2019-08-14T09:35:38Z</time>
      </trkpt>
      <trkpt lat="40.9247350" lon="-4.7277000">
        <ele>871.2</ele>
        <time>2019-08-14T09:35:39Z</time>
      </trkpt>
      <trkpt lat="40.9247920" lon="-4.7276830">
        <ele>871.3</ele>
        <time>2019-08-14T09:35:40Z</time>
      </trkpt>
      <trkpt lat="40.9248490" lon="-4.7276660">
        <ele>871.4</ele>
        <time>2019-08-14T09:35:41Z</time>
      </trkpt>
      <trkpt lat="40.9249060" lon="-4.7276510">
        <ele>871.4</ele>
        <time>2019-08-14T09:35:42Z</time>
      </trkpt>
      <trkpt lat="40.9249620" lon="-4.7276370">
        <ele>871.5</ele>
        <time>2019-08-14T09:35:43Z</time>
      </trkpt>
      <trkpt lat="40.9250160" lon="-4.7276240">
        <ele>871.6</ele>
        <time>2019-08-14T09:35:44Z</time>
      </trkpt>
      <trkpt lat="40.9250710" lon="-4.7276140">
        <ele>871.7</ele>
        <time>2019-08-14T09:35:45Z</time>
      </trkpt>
      <trkpt lat="40.9251290" lon="-4.7276030">
        <ele>871.8</ele>
        <time>2019-08-14T09:35:46Z</time>
      </trkpt>
      <trkpt lat="40.9251860" lon="-4.7275920">
        <ele>871.8</ele>
        <time>2019-08-14T09:35:47Z</time>
      </trkpt>
      <trkpt lat="40.9252450" lon="-4.7275830">
        <ele>871.9</ele>
        <time>2019-08-14T09:35:48Z</time>
      </trkpt>
      <trkpt lat="40.9253020" lon="-4.7275750">
        <ele>872.0</ele>
        <time>2019-08-14T09:35:49Z</time>
      </trkpt>
      <trkpt lat="40.9253580" lon="-4.7275660">
        <ele>872.0</ele>
        <time>2019-08-14T09:35:50Z</time>
      </trkpt>
      <trkpt lat="40.9254140" lon="-4.7275570">
        <ele>872.0</ele>
        <time>2019-08-14T09:35:51Z</time>
      </trkpt>
      <trkpt lat="40.9254710" lon="-4.7275520">
        <ele>872.0</ele>
        <time>2019-08-14T09:35:52Z</time>
      </trkpt>
      <trkpt lat="40.9255270" lon="-4.7275500">
        <ele>872.0</ele>
        <time>2019-08-14T09:35:53Z</time>
      </trkpt>
      <trkpt lat="40.9255820" lon="-4.7275460">
        <ele>872.0</ele>
        <time>2019-08-14T09:35:54Z</time>
      </trkpt>
      <trkpt lat="40.9256350" lon="-4.7275440">
        <ele>872.0</ele>
        <time>2019-08-14T09:35:55Z</time>
      </trkpt>
      <trkpt lat="40.9256900" lon="-4.7275400">
        <ele>872.0</ele>
        <time>2019-08-14T09:35:56Z</time>
      </trkpt>
      <trkpt lat="40.9257460" lon="-4.7275370">
        <ele>872.0</ele>
        <time>2019-08-14T09:35:57Z</time>
      </trkpt>
      <trkpt lat="40.9258030" lon="-4.7275330">
        <ele>872.0</ele>
        <time>2019-08-14T09:35:58Z</time>
      </trkpt>
      <trkpt lat="40.9258620" lon="-4.7275290">
        <ele>872.0</ele>
        <time>2019-08-14T09:35:59Z</time>
      </trkpt>
      <trkpt lat="40.9259220" lon="-4.7275260">
        <ele>872.0</ele>
        <time>2019-08-14T09:36:00Z</time>
      </trkpt>
      <trkpt lat="40.9259810" lon="-4.7275240">
        <ele>872.0</ele>
        <time>2019-08-14T09:36:01Z</time>
      </trkpt>
      <trkpt lat="40.9260390" lon="-4.7275220">
        <ele>872.0</ele>
        <time>2019-08-14T09:36:02Z</time>
      </trkpt>
      <trkpt lat="40.9260970" lon="-4.7275190">
        <ele>872.0</ele>
        <time>2019-08-14T09:36:03Z</time>
      </trkpt>
      <trkpt lat="40.9261550" lon="-4.7275170">
        <ele>872.0</ele>
        <time>2019-08-14T09:36:04Z</time>
      </trkpt>
      <trkpt lat="40.9262130" lon="-4.7275130">
        <ele>872.0</ele>
        <time>2019-08-14T09:36:05Z</time>
      </trkpt>
      <trkpt lat="40.9262720" lon="-4.7275110">
        <ele>872.0</ele>
        <time>2019-08-14T09:36:06Z</time>
      </trkpt>
      <trkpt lat="40.9263290" lon="-4.7275100">
        <ele>872.0</ele>
        <time>2019-08-14T09:36:07Z</time>
      </trkpt>
      <trkpt lat="40.9263860" lon="-4.7275100">
        <ele>872.0</ele>
        <time>2019-08-14T09:36:08Z</time>
      </trkpt>
      <trkpt lat="40.9264450" lon="-4.7275090">
        <ele>872.0</ele>
        <time>2019-08-14T09:36:09Z</time>
      </trkpt>
      <trkpt lat="40.9265010" lon="-4.7275100">
        <ele>871.9</ele>
        <time>2019-08-14T09:36:10Z</time>
      </trkpt>
      <trkpt lat="40.9265580" lon="-4.7275100">
        <ele>871.9</ele>
        <time>2019-08-14T09:36:11Z</time>
      </trkpt>
      <trkpt lat="40.9266130" lon="-4.7275100">
        <ele>871.9</ele>
        <time>2019-08-14T09:36:12Z</time>
      </trkpt>
      <trkpt lat="40.9266680" lon="-4.7275080">
        <ele>871.8</ele>
        <time>2019-08-14T09:36:13Z</time>
      </trkpt>
      <trkpt lat="40.9267250" lon="-4.7275040">
        <ele>871.7</ele>
        <time>2019-08-14T09:36:14Z</time>
      </trkpt>
      <trkpt lat="40.9267820" lon="-4.7275020">
        <ele>871.6</ele>
        <time>2019-08-14T09:36:15Z</time>
      </trkpt>
      <trkpt lat="40.9268420" lon="-4.7275010">
        <ele>871.5</ele>
        <time>2019-08-14T09:36:16Z</time>
      </trkpt>
      <trkpt lat="40.9269020" lon="-4.7274990">
        <ele>871.4</ele>
        <time>2019-08-14T09:36:17Z</time>
      </trkpt>
      <trkpt lat="40.9269620" lon="-4.7274950">
        <ele>871.4</ele>
        <time>2019-08-14T09:36:18Z</time>
      </trkpt>
      <trkpt lat="40.9270220" lon="-4.7274920">
        <ele>871.3</ele>
        <time>2019-08-14T09:36:19Z</time>
      </trkpt>
      <trkpt lat="40.9270820" lon="-4.7274900">
        <ele>871.3</ele>
        <time>2019-08-14T09:36:20Z</time>
      </trkpt>
      <trkpt lat="40.9271410" lon="-4.7274870">
        <ele>871.2</ele>
        <time>2019-08-14T09:36:21Z</time>
      </trkpt>
      <trkpt lat="40.9272000" lon="-4.7274840">
        <ele>871.2</ele>
        <time>2019-08-14T09:36:22Z</time>
      </trkpt>
      <trkpt lat="40.9272590" lon="-4.7274810">
        <ele>871.1</ele>
        <time>2019-08-14T09:36:23Z</time>
      </trkpt>
      <trkpt lat="40.9273170" lon="-4.7274800">
        <ele>871.1</ele>
        <time>2019-08-14T09:36:24Z</time>
      </trkpt>
      <trkpt lat="40.9273750" lon="-4.7274800">
        <ele>871.1</ele>
        <time>2019-08-14T09:36:25Z</time>
      </trkpt>
      <trkpt lat="40.9274320" lon="-4.7274800">
        <ele>871.1</ele>
        <time>2019-08-14T09:36:26Z</time>
      </trkpt>
      <trkpt lat="40.9274890" lon="-4.7274770">
        <ele>871.1</ele>
        <time>2019-08-14T09:36:27Z</time>
      </trkpt>
      <trkpt lat="40.9275450" lon="-4.7274740">
        <ele>871.1</ele>
        <time>2019-08-14T09:36:28Z</time>
      </trkpt>
      <trkpt lat="40.9276020" lon="-4.7274720">
        <ele>871.1</ele>
        <time>2019-08-14T09:36:29Z</time>
      </trkpt>
      <trkpt lat="40.9276580" lon="-4.7274700">
        <ele>871.1</ele>
        <time>2019-08-14T09:36:30Z</time>
      </trkpt>
      <trkpt lat="40.9277130" lon="-4.7274670">
        <ele>871.1</ele>
        <time>2019-08-14T09:36:31Z</time>
      </trkpt>
      <trkpt lat="40.9277680" lon="-4.7274630">
        <ele>871.1</ele>
        <time>2019-08-14T09:36:32Z</time>
      </trkpt>
      <trkpt lat="40.9278220" lon="-4.7274620">
        <ele>871.1</ele>
        <time>2019-08-14T09:36:33Z</time>
      </trkpt>
      <trkpt lat="40.9278760" lon="-4.7274600">
        <ele>871.1</ele>
        <time>2019-08-14T09:36:34Z</time>
      </trkpt>
      <trkpt lat="40.9279290" lon="-4.7274600">
        <ele>871.1</ele>
        <time>2019-08-14T09:36:35Z</time>
      </trkpt>
      <trkpt lat="40.9279810" lon="-4.7274600">
        <ele>871.1</ele>
        <time>2019-08-14T09:36:36Z</time>
      </trkpt>
      <trkpt lat="40.9280320" lon="-4.7274570">
        <ele>871.1</ele>
        <time>2019-08-14T09:36:37Z</time>
      </trkpt>
      <trkpt lat="40.9280830" lon="-4.7274560">
        <ele>871.1</ele>
        <time>2019-08-14T09:36:38Z</time>
      </trkpt>
      <trkpt lat="40.9281360" lon="-4.7274520">
        <ele>871.1</ele>
        <time>2019-08-14T09:36:39Z</time>
      </trkpt>
      <trkpt lat="40.9281890" lon="-4.7274480">
        <ele>871.1</ele>
        <time>2019-08-14T09:36:40Z</time>
      </trkpt>
      <trkpt lat="40.9282430" lon="-4.7274460">
        <ele>871.1</ele>
        <time>2019-08-14T09:36:41Z</time>
      </trkpt>
      <trkpt lat="40.9282970" lon="-4.7274450">
        <ele>871.1</ele>
        <time>2019-08-14T09:36:42Z</time>
      </trkpt>
      <trkpt lat="40.9283510" lon="-4.7274420">
        <ele>871.1</ele>
        <time>2019-08-14T09:36:43Z</time>
      </trkpt>
      <trkpt lat="40.9284050" lon="-4.7274410">
        <ele>871.1</ele>
        <time>2019-08-14T09:36:44Z</time>
      </trkpt>
      <trkpt lat="40.9284580" lon="-4.7274410">
        <ele>871.1</ele>
        <time>2019-08-14T09:36:45Z</time>
      </trkpt>
      <trkpt lat="40.9285100" lon="-4.7274390">
        <ele>871.1</ele>
        <time>2019-08-14T09:36:46Z</time>
      </trkpt>
      <trkpt lat="40.9285610" lon="-4.7274350">
        <ele>871.1</ele>
        <time>2019-08-14T09:36:47Z</time>
      </trkpt>
      <trkpt lat="40.9286100" lon="-4.7274330">
        <ele>871.1</ele>
        <time>2019-08-14T09:36:48Z</time>
      </trkpt>
      <trkpt lat="40.9286570" lon="-4.7274320">
        <ele>871.1</ele>
        <time>2019-08-14T09:36:49Z</time>
      </trkpt>
      <trkpt lat="40.9287030" lon="-4.7274300">
        <ele>871.1</ele>
        <time>2019-08-14T09:36:50Z</time>
      </trkpt>
      <trkpt lat="40.9287510" lon="-4.7274270">
        <ele>871.1</ele>
        <time>2019-08-14T09:36:51Z</time>
      </trkpt>
      <trkpt lat="40.9288000" lon="-4.7274230">
        <ele>871.1</ele>
        <time>2019-08-14T09:36:52Z</time>
      </trkpt>
      <trkpt lat="40.9288510" lon="-4.7274200">
        <ele>871.1</ele>
        <time>2019-08-14T09:36:53Z</time>
      </trkpt>
      <trkpt lat="40.9289020" lon="-4.7274170">
        <ele>871.1</ele>
        <time>2019-08-14T09:36:54Z</time>
      </trkpt>
      <trkpt lat="40.9289550" lon="-4.7274150">
        <ele>871.1</ele>
        <time>2019-08-14T09:36:55Z</time>
      </trkpt>
      <trkpt lat="40.9290070" lon="-4.7274150">
        <ele>871.1</ele>
        <time>2019-08-14T09:36:56Z</time>
      </trkpt>
      <trkpt lat="40.9290600" lon="-4.7274140">
        <ele>871.1</ele>
        <time>2019-08-14T09:36:57Z</time>
      </trkpt>
      <trkpt lat="40.9291120" lon="-4.7274160">
        <ele>871.1</ele>
        <time>2019-08-14T09:36:58Z</time>
      </trkpt>
      <trkpt lat="40.9291650" lon="-4.7274180">
        <ele>871.1</ele>
        <time>2019-08-14T09:36:59Z</time>
      </trkpt>
      <trkpt lat="40.9292200" lon="-4.7274170">
        <ele>871.1</ele>
        <time>2019-08-14T09:37:00Z</time>
      </trkpt>
      <trkpt lat="40.9292740" lon="-4.7274160">
        <ele>871.1</ele>
        <time>2019-08-14T09:37:01Z</time>
      </trkpt>
      <trkpt lat="40.9293260" lon="-4.7274170">
        <ele>871.1</ele>
        <time>2019-08-14T09:37:02Z</time>
      </trkpt>
      <trkpt lat="40.9293770" lon="-4.7274190">
        <ele>871.2</ele>
        <time>2019-08-14T09:37:03Z</time>
      </trkpt>
      <trkpt lat="40.9294270" lon="-4.7274220">
        <ele>871.2</ele>
        <time>2019-08-14T09:37:04Z</time>
      </trkpt>
      <trkpt lat="40.9294750" lon="-4.7274250">
        <ele>871.2</ele>
        <time>2019-08-14T09:37:05Z</time>
      </trkpt>
      <trkpt lat="40.9295230" lon="-4.7274280">
        <ele>871.2</ele>
        <time>2019-08-14T09:37:06Z</time>
      </trkpt>
      <trkpt lat="40.9295690" lon="-4.7274320">
        <ele>871.2</ele>
        <time>2019-08-14T09:37:07Z</time>
      </trkpt>
      <trkpt lat="40.9296130" lon="-4.7274340">
        <ele>871.2</ele>
        <time>2019-08-14T09:37:08Z</time>
      </trkpt>
      <trkpt lat="40.9296570" lon="-4.7274280">
        <ele>871.2</ele>
        <time>2019-08-14T09:37:09Z</time>
      </trkpt>
      <trkpt lat="40.9297000" lon="-4.7274130">
        <ele>871.2</ele>
        <time>2019-08-14T09:37:10Z</time>
      </trkpt>
      <trkpt lat="40.9297420" lon="-4.7273960">
        <ele>871.2</ele>
        <time>2019-08-14T09:37:11Z</time>
      </trkpt>
      <trkpt lat="40.9297830" lon="-4.7273840">
        <ele>871.2</ele>
        <time>2019-08-14T09:37:12Z</time>
      </trkpt>
      <trkpt lat="40.9298240" lon="-4.7273820">
        <ele>871.2</ele>
        <time>2019-08-14T09:37:13Z</time>
      </trkpt>
      <trkpt lat="40.9298670" lon="-4.7273860">
        <ele>871.2</ele>
        <time>2019-08-14T09:37:14Z</time>
      </trkpt>
      <trkpt lat="40.9299100" lon="-4.7273970">
        <ele>871.2</ele>
        <time>2019-08-14T09:37:15Z</time>
      </trkpt>
      <trkpt lat="40.9299550" lon="-4.7274110">
        <ele>871.2</ele>
        <time>2019-08-14T09:37:16Z</time>
      </trkpt>
      <trkpt lat="40.9300000" lon="-4.7274290">
        <ele>871.2</ele>
        <time>2019-08-14T09:37:17Z</time>
      </trkpt>
      <trkpt lat="40.9300450" lon="-4.7274460">
        <ele>871.2</ele>
        <time>2019-08-14T09:37:18Z</time>
      </trkpt>
      <trkpt lat="40.9300900" lon="-4.7274580">
        <ele>871.2</ele>
        <time>2019-08-14T09:37:19Z</time>
      </trkpt>
      <trkpt lat="40.9301360" lon="-4.7274670">
        <ele>871.2</ele>
        <time>2019-08-14T09:37:20Z</time>
      </trkpt>
      <trkpt lat="40.9301750" lon="-4.7274750">
        <ele>871.2</ele>
        <time>2019-08-14T09:37:21Z</time>
      </trkpt>
      <trkpt lat="40.9302120" lon="-4.7274820">
        <ele>871.2</ele>
        <time>2019-08-14T09:37:23Z</time>
      </trkpt>
      <trkpt lat="40.9302560" lon="-4.7275080">
        <ele>871.2</ele>
        <time>2019-08-14T09:37:47Z</time>
      </trkpt>
      <trkpt lat="40.9303260" lon="-4.7275310">
        <ele>871.2</ele>
        <time>2019-08-14T09:38:04Z</time>
      </trkpt>
      <trkpt lat="40.9303770" lon="-4.7275460">
        <ele>871.2</ele>
        <time>2019-08-14T09:38:06Z</time>
      </trkpt>
      <trkpt lat="40.9304310" lon="-4.7275520">
        <ele>871.2</ele>
        <time>2019-08-14T09:38:08Z</time>
      </trkpt>
      <trkpt lat="40.9304610" lon="-4.7275570">
        <ele>871.2</ele>
        <time>2019-08-14T09:38:09Z</time>
      </trkpt>
      <trkpt lat="40.9304920" lon="-4.7275650">
        <ele>871.2</ele>
        <time>2019-08-14T09:38:10Z</time>
      </trkpt>
      <trkpt lat="40.9305220" lon="-4.7275760">
        <ele>871.2</ele>
        <time>2019-08-14T09:38:11Z</time>
      </trkpt>
      <trkpt lat="40.9305530" lon="-4.7275860">
        <ele>871.2</ele>
        <time>2019-08-14T09:38:12Z</time>
      </trkpt>
      <trkpt lat="40.9305850" lon="-4.7275960">
        <ele>871.2</ele>
        <time>2019-08-14T09:38:13Z</time>
      </trkpt>
      <trkpt lat="40.9306180" lon="-4.7276080">
        <ele>871.2</ele>
        <time>2019-08-14T09:38:14Z</time>
      </trkpt>
      <trkpt lat="40.9306520" lon="-4.7276200">
        <ele>871.2</ele>
        <time>2019-08-14T09:38:15Z</time>
      </trkpt>
      <trkpt lat="40.9306840" lon="-4.7276320">
        <ele>871.2</ele>
        <time>2019-08-14T09:38:16Z</time>
      </trkpt>
      <trkpt lat="40.9307170" lon="-4.7276440">
        <ele>871.2</ele>
        <time>2019-08-14T09:38:17Z</time>
      </trkpt>
      <trkpt lat="40.9307520" lon="-4.7276550">
        <ele>871.2</ele>
        <time>2019-08-14T09:38:18Z</time>
      </trkpt>
      <trkpt lat="40.9307880" lon="-4.7276670">
        <ele>871.2</ele>
        <time>2019-08-14T09:38:19Z</time>
      </trkpt>
      <trkpt lat="40.9308240" lon="-4.7276790">
        <ele>871.2</ele>
        <time>2019-08-14T09:38:20Z</time>
      </trkpt>
      <trkpt lat="40.9308580" lon="-4.7276910">
        <ele>871.2</ele>
        <time>2019-08-14T09:38:21Z</time>
      </trkpt>
      <trkpt lat="40.9308910" lon="-4.7277090">
        <ele>871.2</ele>
        <time>2019-08-14T09:38:22Z</time>
      </trkpt>
      <trkpt lat="40.9309240" lon="-4.7277320">
        <ele>871.1</ele>
        <time>2019-08-14T09:38:23Z</time>
      </trkpt>
      <trkpt lat="40.9309550" lon="-4.7277560">
        <ele>871.1</ele>
        <time>2019-08-14T09:38:24Z</time>
      </trkpt>
      <trkpt lat="40.9309890" lon="-4.7277750">
        <ele>871.0</ele>
        <time>2019-08-14T09:38:25Z</time>
      </trkpt>
      <trkpt lat="40.9310270" lon="-4.7277880">
        <ele>871.0</ele>
        <time>2019-08-14T09:38:26Z</time>
      </trkpt>
      <trkpt lat="40.9310660" lon="-4.7277990">
        <ele>870.9</ele>
        <time>2019-08-14T09:38:27Z</time>
      </trkpt>
      <trkpt lat="40.9311080" lon="-4.7278100">
        <ele>870.9</ele>
        <time>2019-08-14T09:38:28Z</time>
      </trkpt>
      <trkpt lat="40.9311500" lon="-4.7278210">
        <ele>870.9</ele>
        <time>2019-08-14T09:38:29Z</time>
      </trkpt>
      <trkpt lat="40.9311930" lon="-4.7278340">
        <ele>870.9</ele>
        <time>2019-08-14T09:38:30Z</time>
      </trkpt>
      <trkpt lat="40.9312360" lon="-4.7278470">
        <ele>870.8</ele>
        <time>2019-08-14T09:38:31Z</time>
      </trkpt>
      <trkpt lat="40.9312790" lon="-4.7278600">
        <ele>870.8</ele>
        <time>2019-08-14T09:38:32Z</time>
      </trkpt>
      <trkpt lat="40.9313240" lon="-4.7278740">
        <ele>870.8</ele>
        <time>2019-08-14T09:38:33Z</time>
      </trkpt>
      <trkpt lat="40.9313690" lon="-4.7278840">
        <ele>870.8</ele>
        <time>2019-08-14T09:38:34Z</time>
      </trkpt>
      <trkpt lat="40.9314150" lon="-4.7278960">
        <ele>870.8</ele>
        <time>2019-08-14T09:38:35Z</time>
      </trkpt>
      <trkpt lat="40.9314610" lon="-4.7279090">
        <ele>870.8</ele>
        <time>2019-08-14T09:38:36Z</time>
      </trkpt>
      <trkpt lat="40.9315070" lon="-4.7279250">
        <ele>870.9</ele>
        <time>2019-08-14T09:38:37Z</time>
      </trkpt>
      <trkpt lat="40.9315540" lon="-4.7279410">
        <ele>870.9</ele>
        <time>2019-08-14T09:38:38Z</time>
      </trkpt>
      <trkpt lat="40.9316020" lon="-4.7279540">
        <ele>870.9</ele>
        <time>2019-08-14T09:38:39Z</time>
      </trkpt>
      <trkpt lat="40.9316500" lon="-4.7279680">
        <ele>870.9</ele>
        <time>2019-08-14T09:38:40Z</time>
      </trkpt>
      <trkpt lat="40.9316980" lon="-4.7279820">
        <ele>870.9</ele>
        <time>2019-08-14T09:38:41Z</time>
      </trkpt>
      <trkpt lat="40.9317470" lon="-4.7279950">
        <ele>870.9</ele>
        <time>2019-08-14T09:38:42Z</time>
      </trkpt>
      <trkpt lat="40.9317960" lon="-4.7280080">
        <ele>870.9</ele>
        <time>2019-08-14T09:38:43Z</time>
      </trkpt>
      <trkpt lat="40.9318460" lon="-4.7280220">
        <ele>871.0</ele>
        <time>2019-08-14T09:38:44Z</time>
      </trkpt>
      <trkpt lat="40.9318970" lon="-4.7280370">
        <ele>871.0</ele>
        <time>2019-08-14T09:38:45Z</time>
      </trkpt>
      <trkpt lat="40.9319470" lon="-4.7280530">
        <ele>871.0</ele>
        <time>2019-08-14T09:38:46Z</time>
      </trkpt>
      <trkpt lat="40.9319990" lon="-4.7280690">
        <ele>871.0</ele>
        <time>2019-08-14T09:38:47Z</time>
      </trkpt>
      <trkpt lat="40.9320500" lon="-4.7280830">
        <ele>871.0</ele>
        <time>2019-08-14T09:38:48Z</time>
      </trkpt>
      <trkpt lat="40.9320990" lon="-4.7280970">
        <ele>871.1</ele>
        <time>2019-08-14T09:38:49Z</time>
      </trkpt>
      <trkpt lat="40.9321470" lon="-4.7281110">
        <ele>871.1</ele>
        <time>2019-08-14T09:38:50Z</time>
      </trkpt>
      <trkpt lat="40.9321960" lon="-4.7281240">
        <ele>871.1</ele>
        <time>2019-08-14T09:38:51Z</time>
      </trkpt>
      <trkpt lat="40.9322450" lon="-4.7281400">
        <ele>871.1</ele>
        <time>2019-08-14T09:38:52Z</time>
      </trkpt>
      <trkpt lat="40.9322940" lon="-4.7281560">
        <ele>871.2</ele>
        <time>2019-08-14T09:38:53Z</time>
      </trkpt>
      <trkpt lat="40.9323440" lon="-4.7281690">
        <ele>871.2</ele>
        <time>2019-08-14T09:38:54Z</time>
      </trkpt>
      <trkpt lat="40.9323910" lon="-4.7281830">
        <ele>871.2</ele>
        <time>2019-08-14T09:38:55Z</time>
      </trkpt>
      <trkpt lat="40.9324380" lon="-4.7281970">
        <ele>871.3</ele>
        <time>2019-08-14T09:38:56Z</time>
      </trkpt>
      <trkpt lat="40.9324830" lon="-4.7282110">
        <ele>871.3</ele>
        <time>2019-08-14T09:38:57Z</time>
      </trkpt>
      <trkpt lat="40.9325290" lon="-4.7282250">
        <ele>871.4</ele>
        <time>2019-08-14T09:38:58Z</time>
      </trkpt>
      <trkpt lat="40.9325750" lon="-4.7282380">
        <ele>871.4</ele>
        <time>2019-08-14T09:38:59Z</time>
      </trkpt>
      <trkpt lat="40.9326220" lon="-4.7282520">
        <ele>871.5</ele>
        <time>2019-08-14T09:39:00Z</time>
      </trkpt>
      <trkpt lat="40.9326670" lon="-4.7282640">
        <ele>871.6</ele>
        <time>2019-08-14T09:39:01Z</time>
      </trkpt>
      <trkpt lat="40.9327070" lon="-4.7282780">
        <ele>871.6</ele>
        <time>2019-08-14T09:39:02Z</time>
      </trkpt>
      <trkpt lat="40.9327420" lon="-4.7282950">
        <ele>871.7</ele>
        <time>2019-08-14T09:39:03Z</time>
      </trkpt>
      <trkpt lat="40.9327760" lon="-4.7283120">
        <ele>871.7</ele>
        <time>2019-08-14T09:39:04Z</time>
      </trkpt>
      <trkpt lat="40.9328150" lon="-4.7283270">
        <ele>871.8</ele>
        <time>2019-08-14T09:39:05Z</time>
      </trkpt>
      <trkpt lat="40.9328570" lon="-4.7283410">
        <ele>871.8</ele>
        <time>2019-08-14T09:39:06Z</time>
      </trkpt>
      <trkpt lat="40.9329020" lon="-4.7283550">
        <ele>871.8</ele>
        <time>2019-08-14T09:39:07Z</time>
      </trkpt>
      <trkpt lat="40.9329470" lon="-4.7283690">
        <ele>871.9</ele>
        <time>2019-08-14T09:39:08Z</time>
      </trkpt>
      <trkpt lat="40.9329940" lon="-4.7283770">
        <ele>871.9</ele>
        <time>2019-08-14T09:39:09Z</time>
      </trkpt>
      <trkpt lat="40.9330430" lon="-4.7283860">
        <ele>871.9</ele>
        <time>2019-08-14T09:39:10Z</time>
      </trkpt>
      <trkpt lat="40.9330920" lon="-4.7283970">
        <ele>871.8</ele>
        <time>2019-08-14T09:39:11Z</time>
      </trkpt>
      <trkpt lat="40.9331420" lon="-4.7284080">
        <ele>871.8</ele>
        <time>2019-08-14T09:39:12Z</time>
      </trkpt>
      <trkpt lat="40.9331920" lon="-4.7284210">
        <ele>871.8</ele>
        <time>2019-08-14T09:39:13Z</time>
      </trkpt>
      <trkpt lat="40.9332420" lon="-4.7284350">
        <ele>871.9</ele>
        <time>2019-08-14T09:39:14Z</time>
      </trkpt>
      <trkpt lat="40.9332920" lon="-4.7284480">
        <ele>871.9</ele>
        <time>2019-08-14T09:39:15Z</time>
      </trkpt>
      <trkpt lat="40.9333420" lon="-4.7284610">
        <ele>871.9</ele>
        <time>2019-08-14T09:39:16Z</time>
      </trkpt>
      <trkpt lat="40.9333920" lon="-4.7284740">
        <ele>872.0</ele>
        <time>2019-08-14T09:39:17Z</time>
      </trkpt>
      <trkpt lat="40.9334420" lon="-4.7284860">
        <ele>872.1</ele>
        <time>2019-08-14T09:39:18Z</time>
      </trkpt>
      <trkpt lat="40.9334910" lon="-4.7285000">
        <ele>872.1</ele>
        <time>2019-08-14T09:39:19Z</time>
      </trkpt>
      <trkpt lat="40.9335430" lon="-4.7285090">
        <ele>872.2</ele>
        <time>2019-08-14T09:39:20Z</time>
      </trkpt>
      <trkpt lat="40.9335950" lon="-4.7285140">
        <ele>872.2</ele>
        <time>2019-08-14T09:39:21Z</time>
      </trkpt>
      <trkpt lat="40.9336470" lon="-4.7285180">
        <ele>872.2</ele>
        <time>2019-08-14T09:39:22Z</time>
      </trkpt>
      <trkpt lat="40.9336990" lon="-4.7285220">
        <ele>872.3</ele>
        <time>2019-08-14T09:39:23Z</time>
      </trkpt>
      <trkpt lat="40.9337490" lon="-4.7285210">
        <ele>872.3</ele>
        <time>2019-08-14T09:39:24Z</time>
      </trkpt>
      <trkpt lat="40.9337990" lon="-4.7285190">
        <ele>872.3</ele>
        <time>2019-08-14T09:39:25Z</time>
      </trkpt>
      <trkpt lat="40.9338490" lon="-4.7285120">
        <ele>872.3</ele>
        <time>2019-08-14T09:39:26Z</time>
      </trkpt>
      <trkpt lat="40.9338980" lon="-4.7285010">
        <ele>872.3</ele>
        <time>2019-08-14T09:39:27Z</time>
      </trkpt>
      <trkpt lat="40.9339460" lon="-4.7284830">
        <ele>872.3</ele>
        <time>2019-08-14T09:39:28Z</time>
      </trkpt>
      <trkpt lat="40.9339950" lon="-4.7284600">
        <ele>872.3</ele>
        <time>2019-08-14T09:39:29Z</time>
      </trkpt>
      <trkpt lat="40.9340420" lon="-4.7284350">
        <ele>872.3</ele>
        <time>2019-08-14T09:39:30Z</time>
      </trkpt>
      <trkpt lat="40.9340870" lon="-4.7284070">
        <ele>872.3</ele>
        <time>2019-08-14T09:39:31Z</time>
      </trkpt>
      <trkpt lat="40.9341300" lon="-4.7283750">
        <ele>872.4</ele>
        <time>2019-08-14T09:39:32Z</time>
      </trkpt>
      <trkpt lat="40.9341740" lon="-4.7283410">
        <ele>872.4</ele>
        <time>2019-08-14T09:39:33Z</time>
      </trkpt>
      <trkpt lat="40.9342180" lon="-4.7283070">
        <ele>872.4</ele>
        <time>2019-08-14T09:39:34Z</time>
      </trkpt>
      <trkpt lat="40.9342610" lon="-4.7282730">
        <ele>872.4</ele>
        <time>2019-08-14T09:39:35Z</time>
      </trkpt>
      <trkpt lat="40.9343030" lon="-4.7282400">
        <ele>872.4</ele>
        <time>2019-08-14T09:39:36Z</time>
      </trkpt>
      <trkpt lat="40.9343440" lon="-4.7282080">
        <ele>872.4</ele>
        <time>2019-08-14T09:39:37Z</time>
      </trkpt>
      <trkpt lat="40.9343900" lon="-4.7281730">
        <ele>872.4</ele>
        <time>2019-08-14T09:39:38Z</time>
      </trkpt>
      <trkpt lat="40.9344360" lon="-4.7281370">
        <ele>872.4</ele>
        <time>2019-08-14T09:39:39Z</time>
      </trkpt>
      <trkpt lat="40.9344850" lon="-4.7280990">
        <ele>872.4</ele>
        <time>2019-08-14T09:39:40Z</time>
      </trkpt>
      <trkpt lat="40.9345310" lon="-4.7280640">
        <ele>872.4</ele>
        <time>2019-08-14T09:39:41Z</time>
      </trkpt>
      <trkpt lat="40.9345780" lon="-4.7280270">
        <ele>872.4</ele>
        <time>2019-08-14T09:39:42Z</time>
      </trkpt>
      <trkpt lat="40.9346230" lon="-4.7279930">
        <ele>872.4</ele>
        <time>2019-08-14T09:39:43Z</time>
      </trkpt>
      <trkpt lat="40.9346680" lon="-4.7279590">
        <ele>872.5</ele>
        <time>2019-08-14T09:39:44Z</time>
      </trkpt>
      <trkpt lat="40.9347120" lon="-4.7279220">
        <ele>872.4</ele>
        <time>2019-08-14T09:39:45Z</time>
      </trkpt>
      <trkpt lat="40.9347580" lon="-4.7278880">
        <ele>872.2</ele>
        <time>2019-08-14T09:39:46Z</time>
      </trkpt>
      <trkpt lat="40.9348030" lon="-4.7278550">
        <ele>872.0</ele>
        <time>2019-08-14T09:39:47Z</time>
      </trkpt>
      <trkpt lat="40.9348490" lon="-4.7278220">
        <ele>871.9</ele>
        <time>2019-08-14T09:39:48Z</time>
      </trkpt>
      <trkpt lat="40.9348960" lon="-4.7277910">
        <ele>871.7</ele>
        <time>2019-08-14T09:39:49Z</time>
      </trkpt>
      <trkpt lat="40.9349400" lon="-4.7277600">
        <ele>871.7</ele>
        <time>2019-08-14T09:39:50Z</time>
      </trkpt>
      <trkpt lat="40.9349800" lon="-4.7277280">
        <ele>871.6</ele>
        <time>2019-08-14T09:39:51Z</time>
      </trkpt>
      <trkpt lat="40.9350180" lon="-4.7276920">
        <ele>871.5</ele>
        <time>2019-08-14T09:39:52Z</time>
      </trkpt>
      <trkpt lat="40.9350560" lon="-4.7276560">
        <ele>871.5</ele>
        <time>2019-08-14T09:39:53Z</time>
      </trkpt>
      <trkpt lat="40.9350940" lon="-4.7276240">
        <ele>871.4</ele>
        <time>2019-08-14T09:39:54Z</time>
      </trkpt>
      <trkpt lat="40.9351340" lon="-4.7275930">
        <ele>871.3</ele>
        <time>2019-08-14T09:39:55Z</time>
      </trkpt>
      <trkpt lat="40.9351740" lon="-4.7275640">
        <ele>871.3</ele>
        <time>2019-08-14T09:39:56Z</time>
      </trkpt>
      <trkpt lat="40.9352120" lon="-4.7275350">
        <ele>871.3</ele>
        <time>2019-08-14T09:39:57Z</time>
      </trkpt>
      <trkpt lat="40.9352490" lon="-4.7275050">
        <ele>871.3</ele>
        <time>2019-08-14T09:39:58Z</time>
      </trkpt>
      <trkpt lat="40.9352870" lon="-4.7274760">
        <ele>871.3</ele>
        <time>2019-08-14T09:39:59Z</time>
      </trkpt>
      <trkpt lat="40.9353250" lon="-4.7274450">
        <ele>871.3</ele>
        <time>2019-08-14T09:40:00Z</time>
      </trkpt>
      <trkpt lat="40.9353640" lon="-4.7274120">
        <ele>871.3</ele>
        <time>2019-08-14T09:40:01Z</time>
      </trkpt>
      <trkpt lat="40.9354040" lon="-4.7273780">
        <ele>871.4</ele>
        <time>2019-08-14T09:40:02Z</time>
      </trkpt>
      <trkpt lat="40.9354450" lon="-4.7273430">
        <ele>871.5</ele>
        <time>2019-08-14T09:40:03Z</time>
      </trkpt>
      <trkpt lat="40.9354870" lon="-4.7273090">
        <ele>871.6</ele>
        <time>2019-08-14T09:40:04Z</time>
      </trkpt>
      <trkpt lat="40.9355290" lon="-4.7272770">
        <ele>871.8</ele>
        <time>2019-08-14T09:40:05Z</time>
      </trkpt>
      <trkpt lat="40.9355710" lon="-4.7272440">
        <ele>871.9</ele>
        <time>2019-08-14T09:40:06Z</time>
      </trkpt>
      <trkpt lat="40.9356100" lon="-4.7272090">
        <ele>872.0</ele>
        <time>2019-08-14T09:40:07Z</time>
      </trkpt>
      <trkpt lat="40.9356490" lon="-4.7271760">
        <ele>872.0</ele>
        <time>2019-08-14T09:40:08Z</time>
      </trkpt>
      <trkpt lat="40.9356880" lon="-4.7271500">
        <ele>872.1</ele>
        <time>2019-08-14T09:40:09Z</time>
      </trkpt>
      <trkpt lat="40.9357260" lon="-4.7271240">
        <ele>872.1</ele>
        <time>2019-08-14T09:40:10Z</time>
      </trkpt>
      <trkpt lat="40.9357610" lon="-4.7270990">
        <ele>872.1</ele>
        <time>2019-08-14T09:40:11Z</time>
      </trkpt>
      <trkpt lat="40.9357960" lon="-4.7270720">
        <ele>872.1</ele>
        <time>2019-08-14T09:40:12Z</time>
      </trkpt>
      <trkpt lat="40.9358320" lon="-4.7270470">
        <ele>872.0</ele>
        <time>2019-08-14T09:40:13Z</time>
      </trkpt>
      <trkpt lat="40.9358670" lon="-4.7270230">
        <ele>871.9</ele>
        <time>2019-08-14T09:40:14Z</time>
      </trkpt>
      <trkpt lat="40.9359000" lon="-4.7269990">
        <ele>871.8</ele>
        <time>2019-08-14T09:40:15Z</time>
      </trkpt>
      <trkpt lat="40.9359330" lon="-4.7269760">
        <ele>871.6</ele>
        <time>2019-08-14T09:40:16Z</time>
      </trkpt>
      <trkpt lat="40.9359660" lon="-4.7269520">
        <ele>871.5</ele>
        <time>2019-08-14T09:40:17Z</time>
      </trkpt>
      <trkpt lat="40.9360030" lon="-4.7269250">
        <ele>871.3</ele>
        <time>2019-08-14T09:40:18Z</time>
      </trkpt>
      <trkpt lat="40.9360390" lon="-4.7268940">
        <ele>871.2</ele>
        <time>2019-08-14T09:40:19Z</time>
      </trkpt>
      <trkpt lat="40.9360780" lon="-4.7268630">
        <ele>870.9</ele>
        <time>2019-08-14T09:40:20Z</time>
      </trkpt>
      <trkpt lat="40.9361180" lon="-4.7268350">
        <ele>870.9</ele>
        <time>2019-08-14T09:40:21Z</time>
      </trkpt>
      <trkpt lat="40.9361580" lon="-4.7268050">
        <ele>870.9</ele>
        <time>2019-08-14T09:40:22Z</time>
      </trkpt>
      <trkpt lat="40.9361980" lon="-4.7267750">
        <ele>870.9</ele>
        <time>2019-08-14T09:40:23Z</time>
      </trkpt>
      <trkpt lat="40.9362380" lon="-4.7267430">
        <ele>870.9</ele>
        <time>2019-08-14T09:40:24Z</time>
      </trkpt>
      <trkpt lat="40.9362730" lon="-4.7267090">
        <ele>870.9</ele>
        <time>2019-08-14T09:40:25Z</time>
      </trkpt>
      <trkpt lat="40.9363060" lon="-4.7266700">
        <ele>870.9</ele>
        <time>2019-08-14T09:40:26Z</time>
      </trkpt>
      <trkpt lat="40.9363370" lon="-4.7266310">
        <ele>870.9</ele>
        <time>2019-08-14T09:40:27Z</time>
      </trkpt>
      <trkpt lat="40.9363700" lon="-4.7265930">
        <ele>870.9</ele>
        <time>2019-08-14T09:40:28Z</time>
      </trkpt>
      <trkpt lat="40.9364040" lon="-4.7265560">
        <ele>870.9</ele>
        <time>2019-08-14T09:40:29Z</time>
      </trkpt>
      <trkpt lat="40.9364410" lon="-4.7265180">
        <ele>870.9</ele>
        <time>2019-08-14T09:40:30Z</time>
      </trkpt>
      <trkpt lat="40.9364810" lon="-4.7264810">
        <ele>870.9</ele>
        <time>2019-08-14T09:40:31Z</time>
      </trkpt>
      <trkpt lat="40.9365240" lon="-4.7264460">
        <ele>870.8</ele>
        <time>2019-08-14T09:40:32Z</time>
      </trkpt>
      <trkpt lat="40.9365690" lon="-4.7264100">
        <ele>870.8</ele>
        <time>2019-08-14T09:40:33Z</time>
      </trkpt>
      <trkpt lat="40.9366150" lon="-4.7263780">
        <ele>870.7</ele>
        <time>2019-08-14T09:40:34Z</time>
      </trkpt>
      <trkpt lat="40.9366630" lon="-4.7263460">
        <ele>870.7</ele>
        <time>2019-08-14T09:40:35Z</time>
      </trkpt>
      <trkpt lat="40.9367110" lon="-4.7263130">
        <ele>870.6</ele>
        <time>2019-08-14T09:40:36Z</time>
      </trkpt>
      <trkpt lat="40.9367590" lon="-4.7262810">
        <ele>870.6</ele>
        <time>2019-08-14T09:40:37Z</time>
      </trkpt>
      <trkpt lat="40.9368080" lon="-4.7262490">
        <ele>870.6</ele>
        <time>2019-08-14T09:40:38Z</time>
      </trkpt>
      <trkpt lat="40.9368570" lon="-4.7262190">
        <ele>870.6</ele>
        <time>2019-08-14T09:40:39Z</time>
      </trkpt>
      <trkpt lat="40.9369050" lon="-4.7261900">
        <ele>870.6</ele>
        <time>2019-08-14T09:40:40Z</time>
      </trkpt>
      <trkpt lat="40.9369520" lon="-4.7261580">
        <ele>870.6</ele>
        <time>2019-08-14T09:40:41Z</time>
      </trkpt>
      <trkpt lat="40.9369980" lon="-4.7261240">
        <ele>870.6</ele>
        <time>2019-08-14T09:40:42Z</time>
      </trkpt>
      <trkpt lat="40.9370440" lon="-4.7260870">
        <ele>870.7</ele>
        <time>2019-08-14T09:40:43Z</time>
      </trkpt>
      <trkpt lat="40.9370890" lon="-4.7260500">
        <ele>870.7</ele>
        <time>2019-08-14T09:40:44Z</time>
      </trkpt>
      <trkpt lat="40.9371340" lon="-4.7260110">
        <ele>870.7</ele>
        <time>2019-08-14T09:40:45Z</time>
      </trkpt>
      <trkpt lat="40.9371790" lon="-4.7259730">
        <ele>870.7</ele>
        <time>2019-08-14T09:40:46Z</time>
      </trkpt>
      <trkpt lat="40.9372240" lon="-4.7259320">
        <ele>870.6</ele>
        <time>2019-08-14T09:40:47Z</time>
      </trkpt>
      <trkpt lat="40.9372700" lon="-4.7258920">
        <ele>870.6</ele>
        <time>2019-08-14T09:40:48Z</time>
      </trkpt>
      <trkpt lat="40.9373160" lon="-4.7258540">
        <ele>870.6</ele>
        <time>2019-08-14T09:40:49Z</time>
      </trkpt>
      <trkpt lat="40.9373620" lon="-4.7258150">
        <ele>870.6</ele>
        <time>2019-08-14T09:40:50Z</time>
      </trkpt>
      <trkpt lat="40.9374100" lon="-4.7257780">
        <ele>870.6</ele>
        <time>2019-08-14T09:40:51Z</time>
      </trkpt>
      <trkpt lat="40.9374580" lon="-4.7257420">
        <ele>870.6</ele>
        <time>2019-08-14T09:40:52Z</time>
      </trkpt>
      <trkpt lat="40.9375070" lon="-4.7257070">
        <ele>870.5</ele>
        <time>2019-08-14T09:40:53Z</time>
      </trkpt>
      <trkpt lat="40.9375550" lon="-4.7256730">
        <ele>870.5</ele>
        <time>2019-08-14T09:40:54Z</time>
      </trkpt>
      <trkpt lat="40.9376020" lon="-4.7256380">
        <ele>870.4</ele>
        <time>2019-08-14T09:40:55Z</time>
      </trkpt>
      <trkpt lat="40.9376490" lon="-4.7256020">
        <ele>870.4</ele>
        <time>2019-08-14T09:40:56Z</time>
      </trkpt>
      <trkpt lat="40.9376960" lon="-4.7255680">
        <ele>870.3</ele>
        <time>2019-08-14T09:40:57Z</time>
      </trkpt>
      <trkpt lat="40.9377430" lon="-4.7255310">
        <ele>870.2</ele>
        <time>2019-08-14T09:40:58Z</time>
      </trkpt>
      <trkpt lat="40.9377890" lon="-4.7254920">
        <ele>870.2</ele>
        <time>2019-08-14T09:40:59Z</time>
      </trkpt>
      <trkpt lat="40.9378340" lon="-4.7254520">
        <ele>870.1</ele>
        <time>2019-08-14T09:41:00Z</time>
      </trkpt>
      <trkpt lat="40.9378790" lon="-4.7254130">
        <ele>870.1</ele>
        <time>2019-08-14T09:41:01Z</time>
      </trkpt>
      <trkpt lat="40.9379230" lon="-4.7253730">
        <ele>870.1</ele>
        <time>2019-08-14T09:41:02Z</time>
      </trkpt>
      <trkpt lat="40.9379670" lon="-4.7253330">
        <ele>870.1</ele>
        <time>2019-08-14T09:41:03Z</time>
      </trkpt>
      <trkpt lat="40.9380110" lon="-4.7252940">
        <ele>870.1</ele>
        <time>2019-08-14T09:41:04Z</time>
      </trkpt>
      <trkpt lat="40.9380540" lon="-4.7252550">
        <ele>870.1</ele>
        <time>2019-08-14T09:41:05Z</time>
      </trkpt>
      <trkpt lat="40.9380970" lon="-4.7252180">
        <ele>870.1</ele>
        <time>2019-08-14T09:41:06Z</time>
      </trkpt>
      <trkpt lat="40.9381370" lon="-4.7251810">
        <ele>870.1</ele>
        <time>2019-08-14T09:41:07Z</time>
      </trkpt>
      <trkpt lat="40.9381770" lon="-4.7251470">
        <ele>870.1</ele>
        <time>2019-08-14T09:41:08Z</time>
      </trkpt>
      <trkpt lat="40.9382170" lon="-4.7251130">
        <ele>870.1</ele>
        <time>2019-08-14T09:41:09Z</time>
      </trkpt>
      <trkpt lat="40.9382600" lon="-4.7250790">
        <ele>870.1</ele>
        <time>2019-08-14T09:41:10Z</time>
      </trkpt>
      <trkpt lat="40.9383030" lon="-4.7250460">
        <ele>870.0</ele>
        <time>2019-08-14T09:41:11Z</time>
      </trkpt>
      <trkpt lat="40.9383470" lon="-4.7250130">
        <ele>870.0</ele>
        <time>2019-08-14T09:41:12Z</time>
      </trkpt>
      <trkpt lat="40.9383930" lon="-4.7249790">
        <ele>870.0</ele>
        <time>2019-08-14T09:41:13Z</time>
      </trkpt>
      <trkpt lat="40.9384390" lon="-4.7249430">
        <ele>869.9</ele>
        <time>2019-08-14T09:41:14Z</time>
      </trkpt>
      <trkpt lat="40.9384860" lon="-4.7249070">
        <ele>869.9</ele>
        <time>2019-08-14T09:41:15Z</time>
      </trkpt>
      <trkpt lat="40.9385340" lon="-4.7248690">
        <ele>869.8</ele>
        <time>2019-08-14T09:41:16Z</time>
      </trkpt>
      <trkpt lat="40.9385810" lon="-4.7248310">
        <ele>869.8</ele>
        <time>2019-08-14T09:41:17Z</time>
      </trkpt>
      <trkpt lat="40.9386280" lon="-4.7247940">
        <ele>869.8</ele>
        <time>2019-08-14T09:41:18Z</time>
      </trkpt>
      <trkpt lat="40.9386750" lon="-4.7247550">
        <ele>869.8</ele>
        <time>2019-08-14T09:41:19Z</time>
      </trkpt>
      <trkpt lat="40.9387220" lon="-4.7247180">
        <ele>869.9</ele>
        <time>2019-08-14T09:41:20Z</time>
      </trkpt>
      <trkpt lat="40.9387680" lon="-4.7246810">
        <ele>869.9</ele>
        <time>2019-08-14T09:41:21Z</time>
      </trkpt>
      <trkpt lat="40.9388140" lon="-4.7246450">
        <ele>870.0</ele>
        <time>2019-08-14T09:41:22Z</time>
      </trkpt>
      <trkpt lat="40.9388600" lon="-4.7246080">
        <ele>870.1</ele>
        <time>2019-08-14T09:41:23Z</time>
      </trkpt>
      <trkpt lat="40.9389040" lon="-4.7245720">
        <ele>870.2</ele>
        <time>2019-08-14T09:41:24Z</time>
      </trkpt>
      <trkpt lat="40.9389500" lon="-4.7245340">
        <ele>870.2</ele>
        <time>2019-08-14T09:41:25Z</time>
      </trkpt>
      <trkpt lat="40.9389960" lon="-4.7244930">
        <ele>870.3</ele>
        <time>2019-08-14T09:41:26Z</time>
      </trkpt>
      <trkpt lat="40.9390430" lon="-4.7244520">
        <ele>870.2</ele>
        <time>2019-08-14T09:41:27Z</time>
      </trkpt>
      <trkpt lat="40.9390900" lon="-4.7244080">
        <ele>870.2</ele>
        <time>2019-08-14T09:41:28Z</time>
      </trkpt>
      <trkpt lat="40.9391400" lon="-4.7243630">
        <ele>870.1</ele>
        <time>2019-08-14T09:41:29Z</time>
      </trkpt>
      <trkpt lat="40.9391890" lon="-4.7243200">
        <ele>870.0</ele>
        <time>2019-08-14T09:41:30Z</time>
      </trkpt>
      <trkpt lat="40.9392360" lon="-4.7242780">
        <ele>869.9</ele>
        <time>2019-08-14T09:41:31Z</time>
      </trkpt>
      <trkpt lat="40.9392830" lon="-4.7242350">
        <ele>869.8</ele>
        <time>2019-08-14T09:41:32Z</time>
      </trkpt>
      <trkpt lat="40.9393270" lon="-4.7241890">
        <ele>869.7</ele>
        <time>2019-08-14T09:41:33Z</time>
      </trkpt>
      <trkpt lat="40.9393710" lon="-4.7241480">
        <ele>869.6</ele>
        <time>2019-08-14T09:41:34Z</time>
      </trkpt>
      <trkpt lat="40.9394160" lon="-4.7241100">
        <ele>869.6</ele>
        <time>2019-08-14T09:41:35Z</time>
      </trkpt>
      <trkpt lat="40.9394620" lon="-4.7240750">
        <ele>869.5</ele>
        <time>2019-08-14T09:41:36Z</time>
      </trkpt>
      <trkpt lat="40.9395070" lon="-4.7240430">
        <ele>869.4</ele>
        <time>2019-08-14T09:41:37Z</time>
      </trkpt>
      <trkpt lat="40.9395510" lon="-4.7240100">
        <ele>869.3</ele>
        <time>2019-08-14T09:41:38Z</time>
      </trkpt>
      <trkpt lat="40.9395950" lon="-4.7239750">
        <ele>869.1</ele>
        <time>2019-08-14T09:41:39Z</time>
      </trkpt>
      <trkpt lat="40.9396360" lon="-4.7239460">
        <ele>869.0</ele>
        <time>2019-08-14T09:41:40Z</time>
      </trkpt>
      <trkpt lat="40.9396730" lon="-4.7239240">
        <ele>868.9</ele>
        <time>2019-08-14T09:41:41Z</time>
      </trkpt>
      <trkpt lat="40.9397020" lon="-4.7239090">
        <ele>868.8</ele>
        <time>2019-08-14T09:41:42Z</time>
      </trkpt>
      <trkpt lat="40.9397450" lon="-4.7238950">
        <ele>868.7</ele>
        <time>2019-08-14T09:41:44Z</time>
      </trkpt>
      <trkpt lat="40.9397750" lon="-4.7238770">
        <ele>868.6</ele>
        <time>2019-08-14T09:41:46Z</time>
      </trkpt>
      <trkpt lat="40.9398140" lon="-4.7238600">
        <ele>868.4</ele>
        <time>2019-08-14T09:41:48Z</time>
      </trkpt>
      <trkpt lat="40.9398420" lon="-4.7238630">
        <ele>868.4</ele>
        <time>2019-08-14T09:41:49Z</time>
      </trkpt>
      <trkpt lat="40.9398700" lon="-4.7238840">
        <ele>868.3</ele>
        <time>2019-08-14T09:41:50Z</time>
      </trkpt>
      <trkpt lat="40.9398940" lon="-4.7239180">
        <ele>868.3</ele>
        <time>2019-08-14T09:41:51Z</time>
      </trkpt>
      <trkpt lat="40.9399170" lon="-4.7239570">
        <ele>868.3</ele>
        <time>2019-08-14T09:41:52Z</time>
      </trkpt>
      <trkpt lat="40.9399450" lon="-4.7239870">
        <ele>868.5</ele>
        <time>2019-08-14T09:41:53Z</time>
      </trkpt>
      <trkpt lat="40.9399770" lon="-4.7239990">
        <ele>868.5</ele>
        <time>2019-08-14T09:41:54Z</time>
      </trkpt>
      <trkpt lat="40.9400130" lon="-4.7239900">
        <ele>868.6</ele>
        <time>2019-08-14T09:41:55Z</time>
      </trkpt>
      <trkpt lat="40.9400480" lon="-4.7239680">
        <ele>868.6</ele>
        <time>2019-08-14T09:41:56Z</time>
      </trkpt>
      <trkpt lat="40.9400840" lon="-4.7239410">
        <ele>868.7</ele>
        <time>2019-08-14T09:41:57Z</time>
      </trkpt>
      <trkpt lat="40.9401200" lon="-4.7239100">
        <ele>868.7</ele>
        <time>2019-08-14T09:41:58Z</time>
      </trkpt>
      <trkpt lat="40.9401570" lon="-4.7238760">
        <ele>868.7</ele>
        <time>2019-08-14T09:41:59Z</time>
      </trkpt>
      <trkpt lat="40.9401950" lon="-4.7238410">
        <ele>868.8</ele>
        <time>2019-08-14T09:42:00Z</time>
      </trkpt>
      <trkpt lat="40.9402330" lon="-4.7238060">
        <ele>868.8</ele>
        <time>2019-08-14T09:42:01Z</time>
      </trkpt>
      <trkpt lat="40.9402730" lon="-4.7237710">
        <ele>868.9</ele>
        <time>2019-08-14T09:42:02Z</time>
      </trkpt>
      <trkpt lat="40.9403150" lon="-4.7237350">
        <ele>868.9</ele>
        <time>2019-08-14T09:42:03Z</time>
      </trkpt>
      <trkpt lat="40.9403570" lon="-4.7236960">
        <ele>868.9</ele>
        <time>2019-08-14T09:42:04Z</time>
      </trkpt>
      <trkpt lat="40.9403990" lon="-4.7236560">
        <ele>869.0</ele>
        <time>2019-08-14T09:42:05Z</time>
      </trkpt>
      <trkpt lat="40.9404430" lon="-4.7236160">
        <ele>869.0</ele>
        <time>2019-08-14T09:42:06Z</time>
      </trkpt>
      <trkpt lat="40.9404890" lon="-4.7235760">
        <ele>869.0</ele>
        <time>2019-08-14T09:42:07Z</time>
      </trkpt>
      <trkpt lat="40.9405360" lon="-4.7235330">
        <ele>869.0</ele>
        <time>2019-08-14T09:42:08Z</time>
      </trkpt>
      <trkpt lat="40.9405820" lon="-4.7234910">
        <ele>869.0</ele>
        <time>2019-08-14T09:42:09Z</time>
      </trkpt>
      <trkpt lat="40.9406280" lon="-4.7234480">
        <ele>869.0</ele>
        <time>2019-08-14T09:42:10Z</time>
      </trkpt>
      <trkpt lat="40.9406750" lon="-4.7234050">
        <ele>868.9</ele>
        <time>2019-08-14T09:42:11Z</time>
      </trkpt>
      <trkpt lat="40.9407220" lon="-4.7233620">
        <ele>868.8</ele>
        <time>2019-08-14T09:42:12Z</time>
      </trkpt>
      <trkpt lat="40.9407690" lon="-4.7233190">
        <ele>868.6</ele>
        <time>2019-08-14T09:42:13Z</time>
      </trkpt>
      <trkpt lat="40.9408160" lon="-4.7232770">
        <ele>868.4</ele>
        <time>2019-08-14T09:42:14Z</time>
      </trkpt>
      <trkpt lat="40.9408620" lon="-4.7232340">
        <ele>868.2</ele>
        <time>2019-08-14T09:42:15Z</time>
      </trkpt>
      <trkpt lat="40.9409080" lon="-4.7231910">
        <ele>868.0</ele>
        <time>2019-08-14T09:42:16Z</time>
      </trkpt>
      <trkpt lat="40.9409540" lon="-4.7231500">
        <ele>867.8</ele>
        <time>2019-08-14T09:42:17Z</time>
      </trkpt>
      <trkpt lat="40.9410000" lon="-4.7231110">
        <ele>867.6</ele>
        <time>2019-08-14T09:42:18Z</time>
      </trkpt>
      <trkpt lat="40.9410460" lon="-4.7230710">
        <ele>867.4</ele>
        <time>2019-08-14T09:42:19Z</time>
      </trkpt>
      <trkpt lat="40.9410920" lon="-4.7230290">
        <ele>867.2</ele>
        <time>2019-08-14T09:42:20Z</time>
      </trkpt>
      <trkpt lat="40.9411390" lon="-4.7229860">
        <ele>867.0</ele>
        <time>2019-08-14T09:42:21Z</time>
      </trkpt>
      <trkpt lat="40.9411870" lon="-4.7229420">
        <ele>866.9</ele>
        <time>2019-08-14T09:42:22Z</time>
      </trkpt>
      <trkpt lat="40.9412360" lon="-4.7228960">
        <ele>866.7</ele>
        <time>2019-08-14T09:42:23Z</time>
      </trkpt>
      <trkpt lat="40.9412850" lon="-4.7228510">
        <ele>866.6</ele>
        <time>2019-08-14T09:42:24Z</time>
      </trkpt>
      <trkpt lat="40.9413340" lon="-4.7228050">
        <ele>866.4</ele>
        <time>2019-08-14T09:42:25Z</time>
      </trkpt>
      <trkpt lat="40.9413820" lon="-4.7227590">
        <ele>866.3</ele>
        <time>2019-08-14T09:42:26Z</time>
      </trkpt>
      <trkpt lat="40.9414320" lon="-4.7227160">
        <ele>866.1</ele>
        <time>2019-08-14T09:42:27Z</time>
      </trkpt>
      <trkpt lat="40.9414810" lon="-4.7226760">
        <ele>866.0</ele>
        <time>2019-08-14T09:42:28Z</time>
      </trkpt>
      <trkpt lat="40.9415320" lon="-4.7226380">
        <ele>865.9</ele>
        <time>2019-08-14T09:42:29Z</time>
      </trkpt>
      <trkpt lat="40.9415800" lon="-4.7225960">
        <ele>865.8</ele>
        <time>2019-08-14T09:42:30Z</time>
      </trkpt>
      <trkpt lat="40.9416270" lon="-4.7225520">
        <ele>865.7</ele>
        <time>2019-08-14T09:42:31Z</time>
      </trkpt>
      <trkpt lat="40.9416740" lon="-4.7225090">
        <ele>865.7</ele>
        <time>2019-08-14T09:42:32Z</time>
      </trkpt>
      <trkpt lat="40.9417210" lon="-4.7224630">
        <ele>865.6</ele>
        <time>2019-08-14T09:42:33Z</time>
      </trkpt>
      <trkpt lat="40.9417680" lon="-4.7224220">
        <ele>865.5</ele>
        <time>2019-08-14T09:42:34Z</time>
      </trkpt>
      <trkpt lat="40.9418110" lon="-4.7223840">
        <ele>865.5</ele>
        <time>2019-08-14T09:42:35Z</time>
      </trkpt>
      <trkpt lat="40.9418540" lon="-4.7223430">
        <ele>865.4</ele>
        <time>2019-08-14T09:42:36Z</time>
      </trkpt>
      <trkpt lat="40.9418960" lon="-4.7223040">
        <ele>865.3</ele>
        <time>2019-08-14T09:42:37Z</time>
      </trkpt>
      <trkpt lat="40.9419380" lon="-4.7222660">
        <ele>865.2</ele>
        <time>2019-08-14T09:42:38Z</time>
      </trkpt>
      <trkpt lat="40.9419790" lon="-4.7222300">
        <ele>865.2</ele>
        <time>2019-08-14T09:42:39Z</time>
      </trkpt>
      <trkpt lat="40.9420200" lon="-4.7221940">
        <ele>865.1</ele>
        <time>2019-08-14T09:42:40Z</time>
      </trkpt>
      <trkpt lat="40.9420600" lon="-4.7221590">
        <ele>865.1</ele>
        <time>2019-08-14T09:42:41Z</time>
      </trkpt>
      <trkpt lat="40.9420980" lon="-4.7221230">
        <ele>865.1</ele>
        <time>2019-08-14T09:42:42Z</time>
      </trkpt>
      <trkpt lat="40.9421340" lon="-4.7220920">
        <ele>865.1</ele>
        <time>2019-08-14T09:42:43Z</time>
      </trkpt>
      <trkpt lat="40.9421690" lon="-4.7220620">
        <ele>865.1</ele>
        <time>2019-08-14T09:42:44Z</time>
      </trkpt>
      <trkpt lat="40.9422030" lon="-4.7220280">
        <ele>865.2</ele>
        <time>2019-08-14T09:42:45Z</time>
      </trkpt>
      <trkpt lat="40.9422340" lon="-4.7219930">
        <ele>865.2</ele>
        <time>2019-08-14T09:42:46Z</time>
      </trkpt>
      <trkpt lat="40.9422660" lon="-4.7219610">
        <ele>865.3</ele>
        <time>2019-08-14T09:42:47Z</time>
      </trkpt>
      <trkpt lat="40.9422980" lon="-4.7219290">
        <ele>865.3</ele>
        <time>2019-08-14T09:42:48Z</time>
      </trkpt>
      <trkpt lat="40.9423300" lon="-4.7218950">
        <ele>865.3</ele>
        <time>2019-08-14T09:42:49Z</time>
      </trkpt>
      <trkpt lat="40.9423670" lon="-4.7218640">
        <ele>865.3</ele>
        <time>2019-08-14T09:42:50Z</time>
      </trkpt>
      <trkpt lat="40.9424020" lon="-4.7218340">
        <ele>865.3</ele>
        <time>2019-08-14T09:42:51Z</time>
      </trkpt>
      <trkpt lat="40.9424380" lon="-4.7218060">
        <ele>865.2</ele>
        <time>2019-08-14T09:42:52Z</time>
      </trkpt>
      <trkpt lat="40.9424720" lon="-4.7217760">
        <ele>865.1</ele>
        <time>2019-08-14T09:42:53Z</time>
      </trkpt>
      <trkpt lat="40.9425060" lon="-4.7217450">
        <ele>865.0</ele>
        <time>2019-08-14T09:42:54Z</time>
      </trkpt>
      <trkpt lat="40.9425400" lon="-4.7217150">
        <ele>864.8</ele>
        <time>2019-08-14T09:42:55Z</time>
      </trkpt>
      <trkpt lat="40.9425730" lon="-4.7216840">
        <ele>864.6</ele>
        <time>2019-08-14T09:42:56Z</time>
      </trkpt>
      <trkpt lat="40.9426060" lon="-4.7216530">
        <ele>864.5</ele>
        <time>2019-08-14T09:42:57Z</time>
      </trkpt>
      <trkpt lat="40.9426380" lon="-4.7216200">
        <ele>864.3</ele>
        <time>2019-08-14T09:42:58Z</time>
      </trkpt>
      <trkpt lat="40.9426710" lon="-4.7215890">
        <ele>864.2</ele>
        <time>2019-08-14T09:42:59Z</time>
      </trkpt>
      <trkpt lat="40.9427050" lon="-4.7215560">
        <ele>864.0</ele>
        <time>2019-08-14T09:43:00Z</time>
      </trkpt>
      <trkpt lat="40.9427420" lon="-4.7215190">
        <ele>864.0</ele>
        <time>2019-08-14T09:43:01Z</time>
      </trkpt>
      <trkpt lat="40.9427840" lon="-4.7214800">
        <ele>864.0</ele>
        <time>2019-08-14T09:43:02Z</time>
      </trkpt>
      <trkpt lat="40.9428250" lon="-4.7214410">
        <ele>864.0</ele>
        <time>2019-08-14T09:43:03Z</time>
      </trkpt>
      <trkpt lat="40.9428670" lon="-4.7214050">
        <ele>864.0</ele>
        <time>2019-08-14T09:43:04Z</time>
      </trkpt>
      <trkpt lat="40.9429080" lon="-4.7213690">
        <ele>864.1</ele>
        <time>2019-08-14T09:43:05Z</time>
      </trkpt>
      <trkpt lat="40.9429490" lon="-4.7213340">
        <ele>864.2</ele>
        <time>2019-08-14T09:43:06Z</time>
      </trkpt>
      <trkpt lat="40.9429890" lon="-4.7213000">
        <ele>864.3</ele>
        <time>2019-08-14T09:43:07Z</time>
      </trkpt>
      <trkpt lat="40.9430300" lon="-4.7212660">
        <ele>864.5</ele>
        <time>2019-08-14T09:43:08Z</time>
      </trkpt>
      <trkpt lat="40.9430690" lon="-4.7212340">
        <ele>864.5</ele>
        <time>2019-08-14T09:43:09Z</time>
      </trkpt>
      <trkpt lat="40.9431080" lon="-4.7212030">
        <ele>864.6</ele>
        <time>2019-08-14T09:43:10Z</time>
      </trkpt>
      <trkpt lat="40.9431450" lon="-4.7211710">
        <ele>864.7</ele>
        <time>2019-08-14T09:43:11Z</time>
      </trkpt>
      <trkpt lat="40.9431790" lon="-4.7211370">
        <ele>864.7</ele>
        <time>2019-08-14T09:43:12Z</time>
      </trkpt>
      <trkpt lat="40.9432120" lon="-4.7211040">
        <ele>864.8</ele>
        <time>2019-08-14T09:43:13Z</time>
      </trkpt>
      <trkpt lat="40.9432440" lon="-4.7210720">
        <ele>864.9</ele>
        <time>2019-08-14T09:43:14Z</time>
      </trkpt>
      <trkpt lat="40.9432720" lon="-4.7210420">
        <ele>865.0</ele>
        <time>2019-08-14T09:43:15Z</time>
      </trkpt>
      <trkpt lat="40.9433020" lon="-4.7210180">
        <ele>865.0</ele>
        <time>2019-08-14T09:43:16Z</time>
      </trkpt>
      <trkpt lat="40.9433360" lon="-4.7209920">
        <ele>865.1</ele>
        <time>2019-08-14T09:43:17Z</time>
      </trkpt>
      <trkpt lat="40.9433600" lon="-4.7209650">
        <ele>865.2</ele>
        <time>2019-08-14T09:43:18Z</time>
      </trkpt>
      <trkpt lat="40.9433840" lon="-4.7209350">
        <ele>865.2</ele>
        <time>2019-08-14T09:43:19Z</time>
      </trkpt>
      <trkpt lat="40.9434080" lon="-4.7208970">
        <ele>865.3</ele>
        <time>2019-08-14T09:43:20Z</time>
      </trkpt>
      <trkpt lat="40.9434250" lon="-4.7208570">
        <ele>865.3</ele>
        <time>2019-08-14T09:43:21Z</time>
      </trkpt>
      <trkpt lat="40.9434360" lon="-4.7208170">
        <ele>865.4</ele>
        <time>2019-08-14T09:43:22Z</time>
      </trkpt>
      <trkpt lat="40.9434410" lon="-4.7207800">
        <ele>865.5</ele>
        <time>2019-08-14T09:43:23Z</time>
      </trkpt>
      <trkpt lat="40.9434310" lon="-4.7207100">
        <ele>865.5</ele>
        <time>2019-08-14T09:43:25Z</time>
      </trkpt>
      <trkpt lat="40.9434150" lon="-4.7206760">
        <ele>865.6</ele>
        <time>2019-08-14T09:43:26Z</time>
      </trkpt>
      <trkpt lat="40.9433980" lon="-4.7206350">
        <ele>865.7</ele>
        <time>2019-08-14T09:43:27Z</time>
      </trkpt>
      <trkpt lat="40.9433920" lon="-4.7205880">
        <ele>865.8</ele>
        <time>2019-08-14T09:43:28Z</time>
      </trkpt>
      <trkpt lat="40.9433960" lon="-4.7205460">
        <ele>865.8</ele>
        <time>2019-08-14T09:43:29Z</time>
      </trkpt>
      <trkpt lat="40.9434150" lon="-4.7204900">
        <ele>865.8</ele>
        <time>2019-08-14T09:43:31Z</time>
      </trkpt>
      <trkpt lat="40.9434330" lon="-4.7204510">
        <ele>865.9</ele>
        <time>2019-08-14T09:43:33Z</time>
      </trkpt>
      <trkpt lat="40.9434090" lon="-4.7204070">
        <ele>865.9</ele>
        <time>2019-08-14T09:44:02Z</time>
      </trkpt>
      <trkpt lat="40.9434050" lon="-4.7205780">
        <ele>865.6</ele>
        <time>2019-08-14T09:45:11Z</time>
      </trkpt>
      <trkpt lat="40.9433920" lon="-4.7206120">
        <ele>865.7</ele>
        <time>2019-08-14T09:45:14Z</time>
      </trkpt>
      <trkpt lat="40.9434130" lon="-4.7206430">
        <ele>865.8</ele>
        <time>2019-08-14T09:45:19Z</time>
      </trkpt>
      <trkpt lat="40.9434470" lon="-4.7206480">
        <ele>865.8</ele>
        <time>2019-08-14T09:45:21Z</time>
      </trkpt>
      <trkpt lat="40.9434870" lon="-4.7206030">
        <ele>865.9</ele>
        <time>2019-08-14T09:45:23Z</time>
      </trkpt>
      <trkpt lat="40.9435120" lon="-4.7205740">
        <ele>866.0</ele>
        <time>2019-08-14T09:45:24Z</time>
      </trkpt>
      <trkpt lat="40.9435390" lon="-4.7205460">
        <ele>866.1</ele>
        <time>2019-08-14T09:45:25Z</time>
      </trkpt>
      <trkpt lat="40.9435680" lon="-4.7205190">
        <ele>866.2</ele>
        <time>2019-08-14T09:45:26Z</time>
      </trkpt>
      <trkpt lat="40.9436000" lon="-4.7204900">
        <ele>866.3</ele>
        <time>2019-08-14T09:45:27Z</time>
      </trkpt>
      <trkpt lat="40.9436310" lon="-4.7204610">
        <ele>866.4</ele>
        <time>2019-08-14T09:45:28Z</time>
      </trkpt>
      <trkpt lat="40.9436620" lon="-4.7204340">
        <ele>866.5</ele>
        <time>2019-08-14T09:45:29Z</time>
      </trkpt>
      <trkpt lat="40.9436930" lon="-4.7204070">
        <ele>866.5</ele>
        <time>2019-08-14T09:45:30Z</time>
      </trkpt>
      <trkpt lat="40.9437240" lon="-4.7203790">
        <ele>866.6</ele>
        <time>2019-08-14T09:45:31Z</time>
      </trkpt>
      <trkpt lat="40.9437560" lon="-4.7203490">
        <ele>866.6</ele>
        <time>2019-08-14T09:45:32Z</time>
      </trkpt>
      <trkpt lat="40.9437900" lon="-4.7203180">
        <ele>866.7</ele>
        <time>2019-08-14T09:45:33Z</time>
      </trkpt>
      <trkpt lat="40.9438250" lon="-4.7202860">
        <ele>866.8</ele>
        <time>2019-08-14T09:45:34Z</time>
      </trkpt>
      <trkpt lat="40.9438610" lon="-4.7202550">
        <ele>866.8</ele>
        <time>2019-08-14T09:45:35Z</time>
      </trkpt>
      <trkpt lat="40.9438990" lon="-4.7202240">
        <ele>866.8</ele>
        <time>2019-08-14T09:45:36Z</time>
      </trkpt>
      <trkpt lat="40.9439360" lon="-4.7201930">
        <ele>866.8</ele>
        <time>2019-08-14T09:45:37Z</time>
      </trkpt>
      <trkpt lat="40.9439740" lon="-4.7201600">
        <ele>866.8</ele>
        <time>2019-08-14T09:45:38Z</time>
      </trkpt>
      <trkpt lat="40.9440130" lon="-4.7201270">
        <ele>866.8</ele>
        <time>2019-08-14T09:45:39Z</time>
      </trkpt>
      <trkpt lat="40.9440520" lon="-4.7200930">
        <ele>866.7</ele>
        <time>2019-08-14T09:45:40Z</time>
      </trkpt>
      <trkpt lat="40.9440910" lon="-4.7200590">
        <ele>866.7</ele>
        <time>2019-08-14T09:45:41Z</time>
      </trkpt>
      <trkpt lat="40.9441320" lon="-4.7200240">
        <ele>866.6</ele>
        <time>2019-08-14T09:45:42Z</time>
      </trkpt>
      <trkpt lat="40.9441700" lon="-4.7199900">
        <ele>866.6</ele>
        <time>2019-08-14T09:45:43Z</time>
      </trkpt>
      <trkpt lat="40.9442090" lon="-4.7199560">
        <ele>866.5</ele>
        <time>2019-08-14T09:45:44Z</time>
      </trkpt>
      <trkpt lat="40.9442460" lon="-4.7199230">
        <ele>866.5</ele>
        <time>2019-08-14T09:45:45Z</time>
      </trkpt>
      <trkpt lat="40.9442830" lon="-4.7198890">
        <ele>866.5</ele>
        <time>2019-08-14T09:45:46Z</time>
      </trkpt>
      <trkpt lat="40.9443210" lon="-4.7198540">
        <ele>866.5</ele>
        <time>2019-08-14T09:45:47Z</time>
      </trkpt>
      <trkpt lat="40.9443580" lon="-4.7198180">
        <ele>866.5</ele>
        <time>2019-08-14T09:45:48Z</time>
      </trkpt>
      <trkpt lat="40.9443960" lon="-4.7197810">
        <ele>866.5</ele>
        <time>2019-08-14T09:45:49Z</time>
      </trkpt>
      <trkpt lat="40.9444360" lon="-4.7197430">
        <ele>866.5</ele>
        <time>2019-08-14T09:45:50Z</time>
      </trkpt>
      <trkpt lat="40.9444770" lon="-4.7197070">
        <ele>866.5</ele>
        <time>2019-08-14T09:45:51Z</time>
      </trkpt>
      <trkpt lat="40.9445200" lon="-4.7196700">
        <ele>866.6</ele>
        <time>2019-08-14T09:45:52Z</time>
      </trkpt>
      <trkpt lat="40.9445630" lon="-4.7196340">
        <ele>866.8</ele>
        <time>2019-08-14T09:45:53Z</time>
      </trkpt>
      <trkpt lat="40.9446050" lon="-4.7195970">
        <ele>866.9</ele>
        <time>2019-08-14T09:45:54Z</time>
      </trkpt>
      <trkpt lat="40.9446460" lon="-4.7195600">
        <ele>866.9</ele>
        <time>2019-08-14T09:45:55Z</time>
      </trkpt>
      <trkpt lat="40.9446880" lon="-4.7195230">
        <ele>867.0</ele>
        <time>2019-08-14T09:45:56Z</time>
      </trkpt>
      <trkpt lat="40.9447280" lon="-4.7194860">
        <ele>867.1</ele>
        <time>2019-08-14T09:45:57Z</time>
      </trkpt>
      <trkpt lat="40.9447690" lon="-4.7194490">
        <ele>867.1</ele>
        <time>2019-08-14T09:45:58Z</time>
      </trkpt>
      <trkpt lat="40.9448090" lon="-4.7194100">
        <ele>867.2</ele>
        <time>2019-08-14T09:45:59Z</time>
      </trkpt>
      <trkpt lat="40.9448500" lon="-4.7193700">
        <ele>867.2</ele>
        <time>2019-08-14T09:46:00Z</time>
      </trkpt>
      <trkpt lat="40.9448920" lon="-4.7193300">
        <ele>867.3</ele>
        <time>2019-08-14T09:46:01Z</time>
      </trkpt>
      <trkpt lat="40.9449330" lon="-4.7192890">
        <ele>867.3</ele>
        <time>2019-08-14T09:46:02Z</time>
      </trkpt>
      <trkpt lat="40.9449760" lon="-4.7192450">
        <ele>867.3</ele>
        <time>2019-08-14T09:46:03Z</time>
      </trkpt>
      <trkpt lat="40.9450190" lon="-4.7192020">
        <ele>867.3</ele>
        <time>2019-08-14T09:46:04Z</time>
      </trkpt>
      <trkpt lat="40.9450620" lon="-4.7191570">
        <ele>867.3</ele>
        <time>2019-08-14T09:46:05Z</time>
      </trkpt>
      <trkpt lat="40.9451070" lon="-4.7191120">
        <ele>867.4</ele>
        <time>2019-08-14T09:46:06Z</time>
      </trkpt>
      <trkpt lat="40.9451510" lon="-4.7190670">
        <ele>867.3</ele>
        <time>2019-08-14T09:46:07Z</time>
      </trkpt>
      <trkpt lat="40.9451950" lon="-4.7190210">
        <ele>867.3</ele>
        <time>2019-08-14T09:46:08Z</time>
      </trkpt>
      <trkpt lat="40.9452370" lon="-4.7189750">
        <ele>867.3</ele>
        <time>2019-08-14T09:46:09Z</time>
      </trkpt>
      <trkpt lat="40.9452790" lon="-4.7189300">
        <ele>867.3</ele>
        <time>2019-08-14T09:46:10Z</time>
      </trkpt>
      <trkpt lat="40.9453190" lon="-4.7188830">
        <ele>867.3</ele>
        <time>2019-08-14T09:46:11Z</time>
      </trkpt>
      <trkpt lat="40.9453590" lon="-4.7188350">
        <ele>867.2</ele>
        <time>2019-08-14T09:46:12Z</time>
      </trkpt>
      <trkpt lat="40.9453990" lon="-4.7187880">
        <ele>867.2</ele>
        <time>2019-08-14T09:46:13Z</time>
      </trkpt>
      <trkpt lat="40.9454390" lon="-4.7187390">
        <ele>867.3</ele>
        <time>2019-08-14T09:46:14Z</time>
      </trkpt>
      <trkpt lat="40.9454780" lon="-4.7186880">
        <ele>867.3</ele>
        <time>2019-08-14T09:46:15Z</time>
      </trkpt>
      <trkpt lat="40.9455160" lon="-4.7186360">
        <ele>867.3</ele>
        <time>2019-08-14T09:46:16Z</time>
      </trkpt>
      <trkpt lat="40.9455540" lon="-4.7185840">
        <ele>867.4</ele>
        <time>2019-08-14T09:46:17Z</time>
      </trkpt>
      <trkpt lat="40.9455930" lon="-4.7185320">
        <ele>867.4</ele>
        <time>2019-08-14T09:46:18Z</time>
      </trkpt>
      <trkpt lat="40.9456320" lon="-4.7184790">
        <ele>867.3</ele>
        <time>2019-08-14T09:46:19Z</time>
      </trkpt>
      <trkpt lat="40.9456710" lon="-4.7184270">
        <ele>867.3</ele>
        <time>2019-08-14T09:46:20Z</time>
      </trkpt>
      <trkpt lat="40.9457100" lon="-4.7183740">
        <ele>867.2</ele>
        <time>2019-08-14T09:46:21Z</time>
      </trkpt>
      <trkpt lat="40.9457470" lon="-4.7183200">
        <ele>867.0</ele>
        <time>2019-08-14T09:46:22Z</time>
      </trkpt>
      <trkpt lat="40.9457840" lon="-4.7182660">
        <ele>866.9</ele>
        <time>2019-08-14T09:46:23Z</time>
      </trkpt>
      <trkpt lat="40.9458210" lon="-4.7182120">
        <ele>866.8</ele>
        <time>2019-08-14T09:46:24Z</time>
      </trkpt>
      <trkpt lat="40.9458600" lon="-4.7181580">
        <ele>866.7</ele>
        <time>2019-08-14T09:46:25Z</time>
      </trkpt>
      <trkpt lat="40.9459000" lon="-4.7181020">
        <ele>866.5</ele>
        <time>2019-08-14T09:46:26Z</time>
      </trkpt>
      <trkpt lat="40.9459390" lon="-4.7180450">
        <ele>866.5</ele>
        <time>2019-08-14T09:46:27Z</time>
      </trkpt>
      <trkpt lat="40.9459780" lon="-4.7179880">
        <ele>866.4</ele>
        <time>2019-08-14T09:46:28Z</time>
      </trkpt>
      <trkpt lat="40.9460160" lon="-4.7179320">
        <ele>866.4</ele>
        <time>2019-08-14T09:46:29Z</time>
      </trkpt>
      <trkpt lat="40.9460540" lon="-4.7178780">
        <ele>866.4</ele>
        <time>2019-08-14T09:46:30Z</time>
      </trkpt>
      <trkpt lat="40.9460910" lon="-4.7178210">
        <ele>866.4</ele>
        <time>2019-08-14T09:46:31Z</time>
      </trkpt>
      <trkpt lat="40.9461280" lon="-4.7177630">
        <ele>866.4</ele>
        <time>2019-08-14T09:46:32Z</time>
      </trkpt>
      <trkpt lat="40.9461660" lon="-4.7177060">
        <ele>866.4</ele>
        <time>2019-08-14T09:46:33Z</time>
      </trkpt>
      <trkpt lat="40.9462050" lon="-4.7176500">
        <ele>866.4</ele>
        <time>2019-08-14T09:46:34Z</time>
      </trkpt>
      <trkpt lat="40.9462440" lon="-4.7175930">
        <ele>866.4</ele>
        <time>2019-08-14T09:46:35Z</time>
      </trkpt>
      <trkpt lat="40.9462840" lon="-4.7175350">
        <ele>866.3</ele>
        <time>2019-08-14T09:46:36Z</time>
      </trkpt>
      <trkpt lat="40.9463230" lon="-4.7174770">
        <ele>866.2</ele>
        <time>2019-08-14T09:46:37Z</time>
      </trkpt>
      <trkpt lat="40.9463640" lon="-4.7174190">
        <ele>866.1</ele>
        <time>2019-08-14T09:46:38Z</time>
      </trkpt>
      <trkpt lat="40.9464040" lon="-4.7173580">
        <ele>866.0</ele>
        <time>2019-08-14T09:46:39Z</time>
      </trkpt>
      <trkpt lat="40.9464440" lon="-4.7172970">
        <ele>865.9</ele>
        <time>2019-08-14T09:46:40Z</time>
      </trkpt>
      <trkpt lat="40.9464840" lon="-4.7172360">
        <ele>865.9</ele>
        <time>2019-08-14T09:46:41Z</time>
      </trkpt>
      <trkpt lat="40.9465250" lon="-4.7171750">
        <ele>865.8</ele>
        <time>2019-08-14T09:46:42Z</time>
      </trkpt>
      <trkpt lat="40.9465660" lon="-4.7171150">
        <ele>865.8</ele>
        <time>2019-08-14T09:46:43Z</time>
      </trkpt>
      <trkpt lat="40.9466070" lon="-4.7170550">
        <ele>865.9</ele>
        <time>2019-08-14T09:46:44Z</time>
      </trkpt>
      <trkpt lat="40.9466470" lon="-4.7169930">
        <ele>865.9</ele>
        <time>2019-08-14T09:46:45Z</time>
      </trkpt>
      <trkpt lat="40.9466880" lon="-4.7169320">
        <ele>865.9</ele>
        <time>2019-08-14T09:46:46Z</time>
      </trkpt>
      <trkpt lat="40.9467300" lon="-4.7168720">
        <ele>865.9</ele>
        <time>2019-08-14T09:46:47Z</time>
      </trkpt>
      <trkpt lat="40.9467710" lon="-4.7168120">
        <ele>866.0</ele>
        <time>2019-08-14T09:46:48Z</time>
      </trkpt>
      <trkpt lat="40.9468120" lon="-4.7167530">
        <ele>865.9</ele>
        <time>2019-08-14T09:46:49Z</time>
      </trkpt>
      <trkpt lat="40.9468530" lon="-4.7166930">
        <ele>865.9</ele>
        <time>2019-08-14T09:46:50Z</time>
      </trkpt>
      <trkpt lat="40.9468950" lon="-4.7166330">
        <ele>865.8</ele>
        <time>2019-08-14T09:46:51Z</time>
      </trkpt>
      <trkpt lat="40.9469370" lon="-4.7165750">
        <ele>865.8</ele>
        <time>2019-08-14T09:46:52Z</time>
      </trkpt>
      <trkpt lat="40.9469790" lon="-4.7165160">
        <ele>865.6</ele>
        <time>2019-08-14T09:46:53Z</time>
      </trkpt>
      <trkpt lat="40.9470210" lon="-4.7164580">
        <ele>865.5</ele>
        <time>2019-08-14T09:46:54Z</time>
      </trkpt>
      <trkpt lat="40.9470640" lon="-4.7163990">
        <ele>865.4</ele>
        <time>2019-08-14T09:46:55Z</time>
      </trkpt>
      <trkpt lat="40.9471070" lon="-4.7163430">
        <ele>865.2</ele>
        <time>2019-08-14T09:46:56Z</time>
      </trkpt>
      <trkpt lat="40.9471500" lon="-4.7162880">
        <ele>865.1</ele>
        <time>2019-08-14T09:46:57Z</time>
      </trkpt>
      <trkpt lat="40.9471930" lon="-4.7162340">
        <ele>865.1</ele>
        <time>2019-08-14T09:46:58Z</time>
      </trkpt>
      <trkpt lat="40.9472360" lon="-4.7161800">
        <ele>865.1</ele>
        <time>2019-08-14T09:46:59Z</time>
      </trkpt>
      <trkpt lat="40.9472790" lon="-4.7161280">
        <ele>865.1</ele>
        <time>2019-08-14T09:47:00Z</time>
      </trkpt>
      <trkpt lat="40.9473210" lon="-4.7160780">
        <ele>865.2</ele>
        <time>2019-08-14T09:47:01Z</time>
      </trkpt>
      <trkpt lat="40.9473600" lon="-4.7160300">
        <ele>865.3</ele>
        <time>2019-08-14T09:47:02Z</time>
      </trkpt>
      <trkpt lat="40.9474000" lon="-4.7159830">
        <ele>865.4</ele>
        <time>2019-08-14T09:47:03Z</time>
      </trkpt>
      <trkpt lat="40.9474380" lon="-4.7159390">
        <ele>865.6</ele>
        <time>2019-08-14T09:47:04Z</time>
      </trkpt>
      <trkpt lat="40.9474750" lon="-4.7158950">
        <ele>865.7</ele>
        <time>2019-08-14T09:47:05Z</time>
      </trkpt>
      <trkpt lat="40.9475130" lon="-4.7158520">
        <ele>865.8</ele>
        <time>2019-08-14T09:47:06Z</time>
      </trkpt>
      <trkpt lat="40.9475500" lon="-4.7158080">
        <ele>866.0</ele>
        <time>2019-08-14T09:47:07Z</time>
      </trkpt>
      <trkpt lat="40.9475870" lon="-4.7157650">
        <ele>866.1</ele>
        <time>2019-08-14T09:47:08Z</time>
      </trkpt>
      <trkpt lat="40.9476260" lon="-4.7157220">
        <ele>866.2</ele>
        <time>2019-08-14T09:47:09Z</time>
      </trkpt>
      <trkpt lat="40.9476650" lon="-4.7156780">
        <ele>866.3</ele>
        <time>2019-08-14T09:47:10Z</time>
      </trkpt>
      <trkpt lat="40.9477040" lon="-4.7156340">
        <ele>866.3</ele>
        <time>2019-08-14T09:47:11Z</time>
      </trkpt>
      <trkpt lat="40.9477450" lon="-4.7155890">
        <ele>866.4</ele>
        <time>2019-08-14T09:47:12Z</time>
      </trkpt>
      <trkpt lat="40.9477860" lon="-4.7155420">
        <ele>866.4</ele>
        <time>2019-08-14T09:47:13Z</time>
      </trkpt>
      <trkpt lat="40.9478270" lon="-4.7154960">
        <ele>866.5</ele>
        <time>2019-08-14T09:47:14Z</time>
      </trkpt>
      <trkpt lat="40.9478680" lon="-4.7154500">
        <ele>866.5</ele>
        <time>2019-08-14T09:47:15Z</time>
      </trkpt>
      <trkpt lat="40.9479100" lon="-4.7154020">
        <ele>866.5</ele>
        <time>2019-08-14T09:47:16Z</time>
      </trkpt>
      <trkpt lat="40.9479520" lon="-4.7153580">
        <ele>866.5</ele>
        <time>2019-08-14T09:47:17Z</time>
      </trkpt>
      <trkpt lat="40.9479930" lon="-4.7153130">
        <ele>866.5</ele>
        <time>2019-08-14T09:47:18Z</time>
      </trkpt>
      <trkpt lat="40.9480330" lon="-4.7152630">
        <ele>866.5</ele>
        <time>2019-08-14T09:47:19Z</time>
      </trkpt>
      <trkpt lat="40.9480740" lon="-4.7152150">
        <ele>866.4</ele>
        <time>2019-08-14T09:47:20Z</time>
      </trkpt>
      <trkpt lat="40.9481160" lon="-4.7151670">
        <ele>866.4</ele>
        <time>2019-08-14T09:47:21Z</time>
      </trkpt>
      <trkpt lat="40.9481580" lon="-4.7151200">
        <ele>866.4</ele>
        <time>2019-08-14T09:47:22Z</time>
      </trkpt>
      <trkpt lat="40.9482000" lon="-4.7150720">
        <ele>866.3</ele>
        <time>2019-08-14T09:47:23Z</time>
      </trkpt>
      <trkpt lat="40.9482410" lon="-4.7150250">
        <ele>866.3</ele>
        <time>2019-08-14T09:47:24Z</time>
      </trkpt>
      <trkpt lat="40.9482840" lon="-4.7149770">
        <ele>866.2</ele>
        <time>2019-08-14T09:47:25Z</time>
      </trkpt>
      <trkpt lat="40.9483270" lon="-4.7149300">
        <ele>866.1</ele>
        <time>2019-08-14T09:47:26Z</time>
      </trkpt>
      <trkpt lat="40.9483700" lon="-4.7148830">
        <ele>866.0</ele>
        <time>2019-08-14T09:47:27Z</time>
      </trkpt>
      <trkpt lat="40.9484130" lon="-4.7148360">
        <ele>865.8</ele>
        <time>2019-08-14T09:47:28Z</time>
      </trkpt>
      <trkpt lat="40.9484550" lon="-4.7147890">
        <ele>865.5</ele>
        <time>2019-08-14T09:47:29Z</time>
      </trkpt>
      <trkpt lat="40.9484960" lon="-4.7147420">
        <ele>865.1</ele>
        <time>2019-08-14T09:47:30Z</time>
      </trkpt>
      <trkpt lat="40.9485390" lon="-4.7146930">
        <ele>864.8</ele>
        <time>2019-08-14T09:47:31Z</time>
      </trkpt>
      <trkpt lat="40.9485820" lon="-4.7146450">
        <ele>864.5</ele>
        <time>2019-08-14T09:47:32Z</time>
      </trkpt>
      <trkpt lat="40.9486250" lon="-4.7145980">
        <ele>864.3</ele>
        <time>2019-08-14T09:47:33Z</time>
      </trkpt>
      <trkpt lat="40.9486680" lon="-4.7145510">
        <ele>864.1</ele>
        <time>2019-08-14T09:47:34Z</time>
      </trkpt>
      <trkpt lat="40.9487100" lon="-4.7145040">
        <ele>864.0</ele>
        <time>2019-08-14T09:47:35Z</time>
      </trkpt>
      <trkpt lat="40.9487520" lon="-4.7144560">
        <ele>864.0</ele>
        <time>2019-08-14T09:47:36Z</time>
      </trkpt>
      <trkpt lat="40.9487940" lon="-4.7144070">
        <ele>864.0</ele>
        <time>2019-08-14T09:47:37Z</time>
      </trkpt>
      <trkpt lat="40.9488360" lon="-4.7143590">
        <ele>864.0</ele>
        <time>2019-08-14T09:47:38Z</time>
      </trkpt>
      <trkpt lat="40.9488790" lon="-4.7143110">
        <ele>864.0</ele>
        <time>2019-08-14T09:47:39Z</time>
      </trkpt>
      <trkpt lat="40.9489220" lon="-4.7142640">
        <ele>864.0</ele>
        <time>2019-08-14T09:47:40Z</time>
      </trkpt>
      <trkpt lat="40.9489650" lon="-4.7142180">
        <ele>864.0</ele>
        <time>2019-08-14T09:47:41Z</time>
      </trkpt>
      <trkpt lat="40.9490070" lon="-4.7141690">
        <ele>864.0</ele>
        <time>2019-08-14T09:47:42Z</time>
      </trkpt>
      <trkpt lat="40.9490490" lon="-4.7141200">
        <ele>864.0</ele>
        <time>2019-08-14T09:47:43Z</time>
      </trkpt>
      <trkpt lat="40.9490920" lon="-4.7140710">
        <ele>863.9</ele>
        <time>2019-08-14T09:47:44Z</time>
      </trkpt>
      <trkpt lat="40.9491350" lon="-4.7140230">
        <ele>863.9</ele>
        <time>2019-08-14T09:47:45Z</time>
      </trkpt>
      <trkpt lat="40.9491790" lon="-4.7139730">
        <ele>864.0</ele>
        <time>2019-08-14T09:47:46Z</time>
      </trkpt>
      <trkpt lat="40.9492230" lon="-4.7139240">
        <ele>864.0</ele>
        <time>2019-08-14T09:47:47Z</time>
      </trkpt>
      <trkpt lat="40.9492670" lon="-4.7138750">
        <ele>864.1</ele>
        <time>2019-08-14T09:47:48Z</time>
      </trkpt>
      <trkpt lat="40.9493110" lon="-4.7138250">
        <ele>864.1</ele>
        <time>2019-08-14T09:47:49Z</time>
      </trkpt>
      <trkpt lat="40.9493560" lon="-4.7137730">
        <ele>864.2</ele>
        <time>2019-08-14T09:47:50Z</time>
      </trkpt>
      <trkpt lat="40.9494010" lon="-4.7137220">
        <ele>864.3</ele>
        <time>2019-08-14T09:47:51Z</time>
      </trkpt>
      <trkpt lat="40.9494460" lon="-4.7136710">
        <ele>864.3</ele>
        <time>2019-08-14T09:47:52Z</time>
      </trkpt>
      <trkpt lat="40.9494910" lon="-4.7136210">
        <ele>864.3</ele>
        <time>2019-08-14T09:47:53Z</time>
      </trkpt>
      <trkpt lat="40.9495360" lon="-4.7135700">
        <ele>864.3</ele>
        <time>2019-08-14T09:47:54Z</time>
      </trkpt>
      <trkpt lat="40.9495810" lon="-4.7135180">
        <ele>864.3</ele>
        <time>2019-08-14T09:47:55Z</time>
      </trkpt>
      <trkpt lat="40.9496260" lon="-4.7134640">
        <ele>864.2</ele>
        <time>2019-08-14T09:47:56Z</time>
      </trkpt>
      <trkpt lat="40.9496720" lon="-4.7134110">
        <ele>864.1</ele>
        <time>2019-08-14T09:47:57Z</time>
      </trkpt>
      <trkpt lat="40.9497190" lon="-4.7133580">
        <ele>864.0</ele>
        <time>2019-08-14T09:47:58Z</time>
      </trkpt>
      <trkpt lat="40.9497650" lon="-4.7133050">
        <ele>863.9</ele>
        <time>2019-08-14T09:47:59Z</time>
      </trkpt>
      <trkpt lat="40.9498110" lon="-4.7132520">
        <ele>863.9</ele>
        <time>2019-08-14T09:48:00Z</time>
      </trkpt>
      <trkpt lat="40.9498570" lon="-4.7131990">
        <ele>863.8</ele>
        <time>2019-08-14T09:48:01Z</time>
      </trkpt>
      <trkpt lat="40.9499020" lon="-4.7131470">
        <ele>863.8</ele>
        <time>2019-08-14T09:48:02Z</time>
      </trkpt>
      <trkpt lat="40.9499480" lon="-4.7130940">
        <ele>863.9</ele>
        <time>2019-08-14T09:48:03Z</time>
      </trkpt>
      <trkpt lat="40.9499930" lon="-4.7130430">
        <ele>864.0</ele>
        <time>2019-08-14T09:48:04Z</time>
      </trkpt>
      <trkpt lat="40.9500390" lon="-4.7129910">
        <ele>864.1</ele>
        <time>2019-08-14T09:48:05Z</time>
      </trkpt>
      <trkpt lat="40.9500850" lon="-4.7129390">
        <ele>864.3</ele>
        <time>2019-08-14T09:48:06Z</time>
      </trkpt>
      <trkpt lat="40.9501320" lon="-4.7128860">
        <ele>864.5</ele>
        <time>2019-08-14T09:48:07Z</time>
      </trkpt>
      <trkpt lat="40.9501800" lon="-4.7128330">
        <ele>864.6</ele>
        <time>2019-08-14T09:48:08Z</time>
      </trkpt>
      <trkpt lat="40.9502260" lon="-4.7127800">
        <ele>864.8</ele>
        <time>2019-08-14T09:48:09Z</time>
      </trkpt>
      <trkpt lat="40.9502730" lon="-4.7127260">
        <ele>864.8</ele>
        <time>2019-08-14T09:48:10Z</time>
      </trkpt>
      <trkpt lat="40.9503190" lon="-4.7126720">
        <ele>864.8</ele>
        <time>2019-08-14T09:48:11Z</time>
      </trkpt>
      <trkpt lat="40.9503670" lon="-4.7126190">
        <ele>864.7</ele>
        <time>2019-08-14T09:48:12Z</time>
      </trkpt>
      <trkpt lat="40.9504140" lon="-4.7125650">
        <ele>864.6</ele>
        <time>2019-08-14T09:48:13Z</time>
      </trkpt>
      <trkpt lat="40.9504620" lon="-4.7125120">
        <ele>864.5</ele>
        <time>2019-08-14T09:48:14Z</time>
      </trkpt>
      <trkpt lat="40.9505100" lon="-4.7124570">
        <ele>864.4</ele>
        <time>2019-08-14T09:48:15Z</time>
      </trkpt>
      <trkpt lat="40.9505570" lon="-4.7124030">
        <ele>864.4</ele>
        <time>2019-08-14T09:48:16Z</time>
      </trkpt>
      <trkpt lat="40.9506050" lon="-4.7123480">
        <ele>864.4</ele>
        <time>2019-08-14T09:48:17Z</time>
      </trkpt>
      <trkpt lat="40.9506550" lon="-4.7122910">
        <ele>864.5</ele>
        <time>2019-08-14T09:48:18Z</time>
      </trkpt>
      <trkpt lat="40.9507040" lon="-4.7122350">
        <ele>864.6</ele>
        <time>2019-08-14T09:48:19Z</time>
      </trkpt>
      <trkpt lat="40.9507540" lon="-4.7121770">
        <ele>864.8</ele>
        <time>2019-08-14T09:48:20Z</time>
      </trkpt>
      <trkpt lat="40.9508030" lon="-4.7121210">
        <ele>864.9</ele>
        <time>2019-08-14T09:48:21Z</time>
      </trkpt>
      <trkpt lat="40.9508540" lon="-4.7120630">
        <ele>865.0</ele>
        <time>2019-08-14T09:48:22Z</time>
      </trkpt>
      <trkpt lat="40.9509030" lon="-4.7120070">
        <ele>865.0</ele>
        <time>2019-08-14T09:48:23Z</time>
      </trkpt>
      <trkpt lat="40.9509530" lon="-4.7119510">
        <ele>864.9</ele>
        <time>2019-08-14T09:48:24Z</time>
      </trkpt>
      <trkpt lat="40.9510020" lon="-4.7118970">
        <ele>864.8</ele>
        <time>2019-08-14T09:48:25Z</time>
      </trkpt>
      <trkpt lat="40.9510510" lon="-4.7118430">
        <ele>864.7</ele>
        <time>2019-08-14T09:48:26Z</time>
      </trkpt>
      <trkpt lat="40.9510990" lon="-4.7117890">
        <ele>864.6</ele>
        <time>2019-08-14T09:48:27Z</time>
      </trkpt>
      <trkpt lat="40.9511490" lon="-4.7117350">
        <ele>864.5</ele>
        <time>2019-08-14T09:48:28Z</time>
      </trkpt>
      <trkpt lat="40.9512000" lon="-4.7116820">
        <ele>864.5</ele>
        <time>2019-08-14T09:48:29Z</time>
      </trkpt>
      <trkpt lat="40.9512510" lon="-4.7116310">
        <ele>864.5</ele>
        <time>2019-08-14T09:48:30Z</time>
      </trkpt>
      <trkpt lat="40.9513030" lon="-4.7115800">
        <ele>864.6</ele>
        <time>2019-08-14T09:48:31Z</time>
      </trkpt>
      <trkpt lat="40.9513540" lon="-4.7115280">
        <ele>864.6</ele>
        <time>2019-08-14T09:48:32Z</time>
      </trkpt>
      <trkpt lat="40.9514060" lon="-4.7114780">
        <ele>864.7</ele>
        <time>2019-08-14T09:48:33Z</time>
      </trkpt>
      <trkpt lat="40.9514580" lon="-4.7114290">
        <ele>864.7</ele>
        <time>2019-08-14T09:48:34Z</time>
      </trkpt>
      <trkpt lat="40.9515100" lon="-4.7113810">
        <ele>864.6</ele>
        <time>2019-08-14T09:48:35Z</time>
      </trkpt>
      <trkpt lat="40.9515630" lon="-4.7113350">
        <ele>864.6</ele>
        <time>2019-08-14T09:48:36Z</time>
      </trkpt>
      <trkpt lat="40.9516170" lon="-4.7112920">
        <ele>864.5</ele>
        <time>2019-08-14T09:48:37Z</time>
      </trkpt>
      <trkpt lat="40.9516710" lon="-4.7112480">
        <ele>864.4</ele>
        <time>2019-08-14T09:48:38Z</time>
      </trkpt>
      <trkpt lat="40.9517270" lon="-4.7112060">
        <ele>864.3</ele>
        <time>2019-08-14T09:48:39Z</time>
      </trkpt>
      <trkpt lat="40.9517820" lon="-4.7111630">
        <ele>864.3</ele>
        <time>2019-08-14T09:48:40Z</time>
      </trkpt>
      <trkpt lat="40.9518380" lon="-4.7111220">
        <ele>864.2</ele>
        <time>2019-08-14T09:48:41Z</time>
      </trkpt>
      <trkpt lat="40.9518930" lon="-4.7110820">
        <ele>864.2</ele>
        <time>2019-08-14T09:48:42Z</time>
      </trkpt>
      <trkpt lat="40.9519490" lon="-4.7110420">
        <ele>864.2</ele>
        <time>2019-08-14T09:48:43Z</time>
      </trkpt>
      <trkpt lat="40.9520040" lon="-4.7110040">
        <ele>864.3</ele>
        <time>2019-08-14T09:48:44Z</time>
      </trkpt>
      <trkpt lat="40.9520600" lon="-4.7109680">
        <ele>864.3</ele>
        <time>2019-08-14T09:48:45Z</time>
      </trkpt>
      <trkpt lat="40.9521160" lon="-4.7109320">
        <ele>864.4</ele>
        <time>2019-08-14T09:48:46Z</time>
      </trkpt>
      <trkpt lat="40.9521720" lon="-4.7108980">
        <ele>864.4</ele>
        <time>2019-08-14T09:48:47Z</time>
      </trkpt>
      <trkpt lat="40.9522290" lon="-4.7108650">
        <ele>864.4</ele>
        <time>2019-08-14T09:48:48Z</time>
      </trkpt>
      <trkpt lat="40.9522850" lon="-4.7108340">
        <ele>864.4</ele>
        <time>2019-08-14T09:48:49Z</time>
      </trkpt>
      <trkpt lat="40.9523420" lon="-4.7108020">
        <ele>864.2</ele>
        <time>2019-08-14T09:48:50Z</time>
      </trkpt>
      <trkpt lat="40.9524010" lon="-4.7107740">
        <ele>863.9</ele>
        <time>2019-08-14T09:48:51Z</time>
      </trkpt>
      <trkpt lat="40.9524580" lon="-4.7107480">
        <ele>863.6</ele>
        <time>2019-08-14T09:48:52Z</time>
      </trkpt>
      <trkpt lat="40.9525160" lon="-4.7107230">
        <ele>863.2</ele>
        <time>2019-08-14T09:48:53Z</time>
      </trkpt>
      <trkpt lat="40.9525730" lon="-4.7106970">
        <ele>862.8</ele>
        <time>2019-08-14T09:48:54Z</time>
      </trkpt>
      <trkpt lat="40.9526320" lon="-4.7106720">
        <ele>862.4</ele>
        <time>2019-08-14T09:48:55Z</time>
      </trkpt>
      <trkpt lat="40.9526900" lon="-4.7106480">
        <ele>862.1</ele>
        <time>2019-08-14T09:48:56Z</time>
      </trkpt>
      <trkpt lat="40.9527480" lon="-4.7106230">
        <ele>861.8</ele>
        <time>2019-08-14T09:48:57Z</time>
      </trkpt>
      <trkpt lat="40.9528060" lon="-4.7106000">
        <ele>861.7</ele>
        <time>2019-08-14T09:48:58Z</time>
      </trkpt>
      <trkpt lat="40.9528640" lon="-4.7105790">
        <ele>861.8</ele>
        <time>2019-08-14T09:48:59Z</time>
      </trkpt>
      <trkpt lat="40.9529200" lon="-4.7105590">
        <ele>861.9</ele>
        <time>2019-08-14T09:49:00Z</time>
      </trkpt>
      <trkpt lat="40.9529770" lon="-4.7105380">
        <ele>862.2</ele>
        <time>2019-08-14T09:49:01Z</time>
      </trkpt>
      <trkpt lat="40.9530310" lon="-4.7105200">
        <ele>862.5</ele>
        <time>2019-08-14T09:49:02Z</time>
      </trkpt>
      <trkpt lat="40.9530850" lon="-4.7105020">
        <ele>862.9</ele>
        <time>2019-08-14T09:49:03Z</time>
      </trkpt>
      <trkpt lat="40.9531380" lon="-4.7104850">
        <ele>863.3</ele>
        <time>2019-08-14T09:49:04Z</time>
      </trkpt>
      <trkpt lat="40.9531920" lon="-4.7104680">
        <ele>863.6</ele>
        <time>2019-08-14T09:49:05Z</time>
      </trkpt>
      <trkpt lat="40.9532460" lon="-4.7104500">
        <ele>863.8</ele>
        <time>2019-08-14T09:49:06Z</time>
      </trkpt>
      <trkpt lat="40.9533000" lon="-4.7104330">
        <ele>864.0</ele>
        <time>2019-08-14T09:49:07Z</time>
      </trkpt>
      <trkpt lat="40.9533540" lon="-4.7104150">
        <ele>864.1</ele>
        <time>2019-08-14T09:49:08Z</time>
      </trkpt>
      <trkpt lat="40.9534080" lon="-4.7103970">
        <ele>864.2</ele>
        <time>2019-08-14T09:49:09Z</time>
      </trkpt>
      <trkpt lat="40.9534620" lon="-4.7103790">
        <ele>864.2</ele>
        <time>2019-08-14T09:49:10Z</time>
      </trkpt>
      <trkpt lat="40.9535170" lon="-4.7103620">
        <ele>864.2</ele>
        <time>2019-08-14T09:49:11Z</time>
      </trkpt>
      <trkpt lat="40.9535700" lon="-4.7103440">
        <ele>864.2</ele>
        <time>2019-08-14T09:49:12Z</time>
      </trkpt>
      <trkpt lat="40.9536250" lon="-4.7103250">
        <ele>864.1</ele>
        <time>2019-08-14T09:49:13Z</time>
      </trkpt>
      <trkpt lat="40.9536790" lon="-4.7103070">
        <ele>864.0</ele>
        <time>2019-08-14T09:49:14Z</time>
      </trkpt>
      <trkpt lat="40.9537350" lon="-4.7102890">
        <ele>863.8</ele>
        <time>2019-08-14T09:49:15Z</time>
      </trkpt>
      <trkpt lat="40.9537900" lon="-4.7102710">
        <ele>863.7</ele>
        <time>2019-08-14T09:49:16Z</time>
      </trkpt>
      <trkpt lat="40.9538450" lon="-4.7102510">
        <ele>863.6</ele>
        <time>2019-08-14T09:49:17Z</time>
      </trkpt>
      <trkpt lat="40.9538990" lon="-4.7102330">
        <ele>863.6</ele>
        <time>2019-08-14T09:49:18Z</time>
      </trkpt>
      <trkpt lat="40.9539510" lon="-4.7102150">
        <ele>863.6</ele>
        <time>2019-08-14T09:49:19Z</time>
      </trkpt>
      <trkpt lat="40.9540010" lon="-4.7101990">
        <ele>863.6</ele>
        <time>2019-08-14T09:49:20Z</time>
      </trkpt>
      <trkpt lat="40.9540520" lon="-4.7101830">
        <ele>863.6</ele>
        <time>2019-08-14T09:49:21Z</time>
      </trkpt>
      <trkpt lat="40.9541030" lon="-4.7101660">
        <ele>863.6</ele>
        <time>2019-08-14T09:49:22Z</time>
      </trkpt>
      <trkpt lat="40.9541560" lon="-4.7101510">
        <ele>863.7</ele>
        <time>2019-08-14T09:49:23Z</time>
      </trkpt>
      <trkpt lat="40.9542110" lon="-4.7101330">
        <ele>863.8</ele>
        <time>2019-08-14T09:49:24Z</time>
      </trkpt>
      <trkpt lat="40.9542670" lon="-4.7101150">
        <ele>863.9</ele>
        <time>2019-08-14T09:49:25Z</time>
      </trkpt>
      <trkpt lat="40.9543220" lon="-4.7100970">
        <ele>863.9</ele>
        <time>2019-08-14T09:49:26Z</time>
      </trkpt>
      <trkpt lat="40.9543780" lon="-4.7100780">
        <ele>864.0</ele>
        <time>2019-08-14T09:49:27Z</time>
      </trkpt>
      <trkpt lat="40.9544370" lon="-4.7100600">
        <ele>864.0</ele>
        <time>2019-08-14T09:49:28Z</time>
      </trkpt>
      <trkpt lat="40.9544940" lon="-4.7100410">
        <ele>864.1</ele>
        <time>2019-08-14T09:49:29Z</time>
      </trkpt>
      <trkpt lat="40.9545520" lon="-4.7100210">
        <ele>864.1</ele>
        <time>2019-08-14T09:49:30Z</time>
      </trkpt>
      <trkpt lat="40.9546090" lon="-4.7100010">
        <ele>864.0</ele>
        <time>2019-08-14T09:49:31Z</time>
      </trkpt>
      <trkpt lat="40.9546670" lon="-4.7099790">
        <ele>864.0</ele>
        <time>2019-08-14T09:49:32Z</time>
      </trkpt>
      <trkpt lat="40.9547270" lon="-4.7099580">
        <ele>864.0</ele>
        <time>2019-08-14T09:49:33Z</time>
      </trkpt>
      <trkpt lat="40.9547860" lon="-4.7099350">
        <ele>863.9</ele>
        <time>2019-08-14T09:49:34Z</time>
      </trkpt>
      <trkpt lat="40.9548470" lon="-4.7099120">
        <ele>863.9</ele>
        <time>2019-08-14T09:49:35Z</time>
      </trkpt>
      <trkpt lat="40.9549090" lon="-4.7098880">
        <ele>863.8</ele>
        <time>2019-08-14T09:49:36Z</time>
      </trkpt>
      <trkpt lat="40.9549700" lon="-4.7098630">
        <ele>863.8</ele>
        <time>2019-08-14T09:49:37Z</time>
      </trkpt>
      <trkpt lat="40.9550320" lon="-4.7098370">
        <ele>863.8</ele>
        <time>2019-08-14T09:49:38Z</time>
      </trkpt>
      <trkpt lat="40.9550920" lon="-4.7098100">
        <ele>863.8</ele>
        <time>2019-08-14T09:49:39Z</time>
      </trkpt>
      <trkpt lat="40.9551530" lon="-4.7097820">
        <ele>863.8</ele>
        <time>2019-08-14T09:49:40Z</time>
      </trkpt>
      <trkpt lat="40.9552120" lon="-4.7097520">
        <ele>863.7</ele>
        <time>2019-08-14T09:49:41Z</time>
      </trkpt>
      <trkpt lat="40.9552710" lon="-4.7097210">
        <ele>863.7</ele>
        <time>2019-08-14T09:49:42Z</time>
      </trkpt>
      <trkpt lat="40.9553280" lon="-4.7096900">
        <ele>863.6</ele>
        <time>2019-08-14T09:49:43Z</time>
      </trkpt>
      <trkpt lat="40.9553840" lon="-4.7096580">
        <ele>863.6</ele>
        <time>2019-08-14T09:49:44Z</time>
      </trkpt>
      <trkpt lat="40.9554390" lon="-4.7096250">
        <ele>863.5</ele>
        <time>2019-08-14T09:49:45Z</time>
      </trkpt>
      <trkpt lat="40.9554930" lon="-4.7095930">
        <ele>863.5</ele>
        <time>2019-08-14T09:49:46Z</time>
      </trkpt>
      <trkpt lat="40.9555480" lon="-4.7095600">
        <ele>863.5</ele>
        <time>2019-08-14T09:49:47Z</time>
      </trkpt>
      <trkpt lat="40.9556040" lon="-4.7095260">
        <ele>863.5</ele>
        <time>2019-08-14T09:49:48Z</time>
      </trkpt>
      <trkpt lat="40.9556600" lon="-4.7094890">
        <ele>863.5</ele>
        <time>2019-08-14T09:49:49Z</time>
      </trkpt>
      <trkpt lat="40.9557160" lon="-4.7094530">
        <ele>863.5</ele>
        <time>2019-08-14T09:49:50Z</time>
      </trkpt>
      <trkpt lat="40.9557730" lon="-4.7094150">
        <ele>863.5</ele>
        <time>2019-08-14T09:49:51Z</time>
      </trkpt>
      <trkpt lat="40.9558300" lon="-4.7093760">
        <ele>863.5</ele>
        <time>2019-08-14T09:49:52Z</time>
      </trkpt>
      <trkpt lat="40.9558870" lon="-4.7093370">
        <ele>863.5</ele>
        <time>2019-08-14T09:49:53Z</time>
      </trkpt>
      <trkpt lat="40.9559450" lon="-4.7092960">
        <ele>863.5</ele>
        <time>2019-08-14T09:49:54Z</time>
      </trkpt>
      <trkpt lat="40.9560030" lon="-4.7092550">
        <ele>863.5</ele>
        <time>2019-08-14T09:49:55Z</time>
      </trkpt>
      <trkpt lat="40.9560630" lon="-4.7092150">
        <ele>863.5</ele>
        <time>2019-08-14T09:49:56Z</time>
      </trkpt>
      <trkpt lat="40.9561210" lon="-4.7091750">
        <ele>863.5</ele>
        <time>2019-08-14T09:49:57Z</time>
      </trkpt>
      <trkpt lat="40.9561800" lon="-4.7091340">
        <ele>863.5</ele>
        <time>2019-08-14T09:49:58Z</time>
      </trkpt>
      <trkpt lat="40.9562370" lon="-4.7090930">
        <ele>863.5</ele>
        <time>2019-08-14T09:49:59Z</time>
      </trkpt>
      <trkpt lat="40.9562950" lon="-4.7090530">
        <ele>863.5</ele>
        <time>2019-08-14T09:50:00Z</time>
      </trkpt>
      <trkpt lat="40.9563540" lon="-4.7090120">
        <ele>863.5</ele>
        <time>2019-08-14T09:50:01Z</time>
      </trkpt>
      <trkpt lat="40.9564120" lon="-4.7089710">
        <ele>863.5</ele>
        <time>2019-08-14T09:50:02Z</time>
      </trkpt>
      <trkpt lat="40.9564710" lon="-4.7089310">
        <ele>863.4</ele>
        <time>2019-08-14T09:50:03Z</time>
      </trkpt>
      <trkpt lat="40.9565300" lon="-4.7088910">
        <ele>863.4</ele>
        <time>2019-08-14T09:50:04Z</time>
      </trkpt>
      <trkpt lat="40.9565870" lon="-4.7088520">
        <ele>863.4</ele>
        <time>2019-08-14T09:50:05Z</time>
      </trkpt>
      <trkpt lat="40.9566450" lon="-4.7088140">
        <ele>863.4</ele>
        <time>2019-08-14T09:50:06Z</time>
      </trkpt>
      <trkpt lat="40.9567000" lon="-4.7087770">
        <ele>863.4</ele>
        <time>2019-08-14T09:50:07Z</time>
      </trkpt>
      <trkpt lat="40.9567550" lon="-4.7087380">
        <ele>863.3</ele>
        <time>2019-08-14T09:50:08Z</time>
      </trkpt>
      <trkpt lat="40.9568100" lon="-4.7086990">
        <ele>863.3</ele>
        <time>2019-08-14T09:50:09Z</time>
      </trkpt>
      <trkpt lat="40.9568650" lon="-4.7086590">
        <ele>863.3</ele>
        <time>2019-08-14T09:50:10Z</time>
      </trkpt>
      <trkpt lat="40.9569210" lon="-4.7086200">
        <ele>863.3</ele>
        <time>2019-08-14T09:50:11Z</time>
      </trkpt>
      <trkpt lat="40.9569780" lon="-4.7085840">
        <ele>863.3</ele>
        <time>2019-08-14T09:50:12Z</time>
      </trkpt>
      <trkpt lat="40.9570340" lon="-4.7085460">
        <ele>863.2</ele>
        <time>2019-08-14T09:50:13Z</time>
      </trkpt>
      <trkpt lat="40.9570880" lon="-4.7085090">
        <ele>863.2</ele>
        <time>2019-08-14T09:50:14Z</time>
      </trkpt>
      <trkpt lat="40.9571420" lon="-4.7084730">
        <ele>863.2</ele>
        <time>2019-08-14T09:50:15Z</time>
      </trkpt>
      <trkpt lat="40.9571970" lon="-4.7084400">
        <ele>863.2</ele>
        <time>2019-08-14T09:50:16Z</time>
      </trkpt>
      <trkpt lat="40.9572490" lon="-4.7084080">
        <ele>863.2</ele>
        <time>2019-08-14T09:50:17Z</time>
      </trkpt>
      <trkpt lat="40.9573000" lon="-4.7083800">
        <ele>863.2</ele>
        <time>2019-08-14T09:50:18Z</time>
      </trkpt>
      <trkpt lat="40.9573500" lon="-4.7083520">
        <ele>863.1</ele>
        <time>2019-08-14T09:50:19Z</time>
      </trkpt>
      <trkpt lat="40.9574030" lon="-4.7083240">
        <ele>863.1</ele>
        <time>2019-08-14T09:50:20Z</time>
      </trkpt>
      <trkpt lat="40.9574550" lon="-4.7082980">
        <ele>863.1</ele>
        <time>2019-08-14T09:50:21Z</time>
      </trkpt>
      <trkpt lat="40.9575100" lon="-4.7082700">
        <ele>863.1</ele>
        <time>2019-08-14T09:50:22Z</time>
      </trkpt>
      <trkpt lat="40.9575650" lon="-4.7082440">
        <ele>863.1</ele>
        <time>2019-08-14T09:50:23Z</time>
      </trkpt>
      <trkpt lat="40.9576200" lon="-4.7082170">
        <ele>863.1</ele>
        <time>2019-08-14T09:50:24Z</time>
      </trkpt>
      <trkpt lat="40.9576760" lon="-4.7081920">
        <ele>863.1</ele>
        <time>2019-08-14T09:50:25Z</time>
      </trkpt>
      <trkpt lat="40.9577320" lon="-4.7081680">
        <ele>863.1</ele>
        <time>2019-08-14T09:50:26Z</time>
      </trkpt>
      <trkpt lat="40.9577890" lon="-4.7081490">
        <ele>863.1</ele>
        <time>2019-08-14T09:50:27Z</time>
      </trkpt>
      <trkpt lat="40.9578450" lon="-4.7081280">
        <ele>863.2</ele>
        <time>2019-08-14T09:50:28Z</time>
      </trkpt>
      <trkpt lat="40.9579010" lon="-4.7081100">
        <ele>863.2</ele>
        <time>2019-08-14T09:50:29Z</time>
      </trkpt>
      <trkpt lat="40.9579570" lon="-4.7080930">
        <ele>863.2</ele>
        <time>2019-08-14T09:50:30Z</time>
      </trkpt>
      <trkpt lat="40.9580120" lon="-4.7080780">
        <ele>863.2</ele>
        <time>2019-08-14T09:50:31Z</time>
      </trkpt>
      <trkpt lat="40.9580660" lon="-4.7080650">
        <ele>863.2</ele>
        <time>2019-08-14T09:50:32Z</time>
      </trkpt>
      <trkpt lat="40.9581190" lon="-4.7080540">
        <ele>863.2</ele>
        <time>2019-08-14T09:50:33Z</time>
      </trkpt>
      <trkpt lat="40.9581710" lon="-4.7080430">
        <ele>863.3</ele>
        <time>2019-08-14T09:50:34Z</time>
      </trkpt>
      <trkpt lat="40.9582250" lon="-4.7080340">
        <ele>863.3</ele>
        <time>2019-08-14T09:50:35Z</time>
      </trkpt>
      <trkpt lat="40.9582790" lon="-4.7080260">
        <ele>863.3</ele>
        <time>2019-08-14T09:50:36Z</time>
      </trkpt>
      <trkpt lat="40.9583340" lon="-4.7080170">
        <ele>863.3</ele>
        <time>2019-08-14T09:50:37Z</time>
      </trkpt>
      <trkpt lat="40.9583890" lon="-4.7080090">
        <ele>863.3</ele>
        <time>2019-08-14T09:50:38Z</time>
      </trkpt>
      <trkpt lat="40.9584450" lon="-4.7080030">
        <ele>863.2</ele>
        <time>2019-08-14T09:50:39Z</time>
      </trkpt>
      <trkpt lat="40.9585020" lon="-4.7079980">
        <ele>863.2</ele>
        <time>2019-08-14T09:50:40Z</time>
      </trkpt>
      <trkpt lat="40.9585580" lon="-4.7079930">
        <ele>863.2</ele>
        <time>2019-08-14T09:50:41Z</time>
      </trkpt>
      <trkpt lat="40.9586150" lon="-4.7079870">
        <ele>863.2</ele>
        <time>2019-08-14T09:50:42Z</time>
      </trkpt>
      <trkpt lat="40.9586720" lon="-4.7079820">
        <ele>863.2</ele>
        <time>2019-08-14T09:50:43Z</time>
      </trkpt>
      <trkpt lat="40.9587290" lon="-4.7079780">
        <ele>863.2</ele>
        <time>2019-08-14T09:50:44Z</time>
      </trkpt>
      <trkpt lat="40.9587860" lon="-4.7079730">
        <ele>863.2</ele>
        <time>2019-08-14T09:50:45Z</time>
      </trkpt>
      <trkpt lat="40.9588430" lon="-4.7079670">
        <ele>863.2</ele>
        <time>2019-08-14T09:50:46Z</time>
      </trkpt>
      <trkpt lat="40.9589000" lon="-4.7079630">
        <ele>863.2</ele>
        <time>2019-08-14T09:50:47Z</time>
      </trkpt>
      <trkpt lat="40.9589570" lon="-4.7079570">
        <ele>863.1</ele>
        <time>2019-08-14T09:50:48Z</time>
      </trkpt>
      <trkpt lat="40.9590130" lon="-4.7079520">
        <ele>863.1</ele>
        <time>2019-08-14T09:50:49Z</time>
      </trkpt>
      <trkpt lat="40.9590700" lon="-4.7079470">
        <ele>863.1</ele>
        <time>2019-08-14T09:50:50Z</time>
      </trkpt>
      <trkpt lat="40.9591250" lon="-4.7079410">
        <ele>863.1</ele>
        <time>2019-08-14T09:50:51Z</time>
      </trkpt>
      <trkpt lat="40.9591810" lon="-4.7079360">
        <ele>863.1</ele>
        <time>2019-08-14T09:50:52Z</time>
      </trkpt>
      <trkpt lat="40.9592380" lon="-4.7079310">
        <ele>863.1</ele>
        <time>2019-08-14T09:50:53Z</time>
      </trkpt>
      <trkpt lat="40.9592930" lon="-4.7079260">
        <ele>863.1</ele>
        <time>2019-08-14T09:50:54Z</time>
      </trkpt>
      <trkpt lat="40.9593490" lon="-4.7079210">
        <ele>863.0</ele>
        <time>2019-08-14T09:50:55Z</time>
      </trkpt>
      <trkpt lat="40.9594060" lon="-4.7079150">
        <ele>863.0</ele>
        <time>2019-08-14T09:50:56Z</time>
      </trkpt>
      <trkpt lat="40.9594640" lon="-4.7079100">
        <ele>863.0</ele>
        <time>2019-08-14T09:50:57Z</time>
      </trkpt>
      <trkpt lat="40.9595210" lon="-4.7079050">
        <ele>863.0</ele>
        <time>2019-08-14T09:50:58Z</time>
      </trkpt>
      <trkpt lat="40.9595780" lon="-4.7079000">
        <ele>863.0</ele>
        <time>2019-08-14T09:50:59Z</time>
      </trkpt>
      <trkpt lat="40.9596350" lon="-4.7078960">
        <ele>863.0</ele>
        <time>2019-08-14T09:51:00Z</time>
      </trkpt>
      <trkpt lat="40.9596940" lon="-4.7078920">
        <ele>863.0</ele>
        <time>2019-08-14T09:51:01Z</time>
      </trkpt>
      <trkpt lat="40.9597510" lon="-4.7078890">
        <ele>863.0</ele>
        <time>2019-08-14T09:51:02Z</time>
      </trkpt>
      <trkpt lat="40.9598090" lon="-4.7078850">
        <ele>863.0</ele>
        <time>2019-08-14T09:51:03Z</time>
      </trkpt>
      <trkpt lat="40.9598660" lon="-4.7078790">
        <ele>863.0</ele>
        <time>2019-08-14T09:51:04Z</time>
      </trkpt>
      <trkpt lat="40.9599250" lon="-4.7078720">
        <ele>863.0</ele>
        <time>2019-08-14T09:51:05Z</time>
      </trkpt>
      <trkpt lat="40.9599820" lon="-4.7078670">
        <ele>863.0</ele>
        <time>2019-08-14T09:51:06Z</time>
      </trkpt>
      <trkpt lat="40.9600400" lon="-4.7078620">
        <ele>863.0</ele>
        <time>2019-08-14T09:51:07Z</time>
      </trkpt>
      <trkpt lat="40.9600980" lon="-4.7078560">
        <ele>863.0</ele>
        <time>2019-08-14T09:51:08Z</time>
      </trkpt>
      <trkpt lat="40.9601560" lon="-4.7078510">
        <ele>863.0</ele>
        <time>2019-08-14T09:51:09Z</time>
      </trkpt>
      <trkpt lat="40.9602150" lon="-4.7078450">
        <ele>863.0</ele>
        <time>2019-08-14T09:51:10Z</time>
      </trkpt>
      <trkpt lat="40.9602740" lon="-4.7078380">
        <ele>863.0</ele>
        <time>2019-08-14T09:51:11Z</time>
      </trkpt>
      <trkpt lat="40.9603340" lon="-4.7078320">
        <ele>863.0</ele>
        <time>2019-08-14T09:51:12Z</time>
      </trkpt>
      <trkpt lat="40.9603950" lon="-4.7078270">
        <ele>863.0</ele>
        <time>2019-08-14T09:51:13Z</time>
      </trkpt>
      <trkpt lat="40.9604550" lon="-4.7078230">
        <ele>863.1</ele>
        <time>2019-08-14T09:51:14Z</time>
      </trkpt>
      <trkpt lat="40.9605160" lon="-4.7078200">
        <ele>863.1</ele>
        <time>2019-08-14T09:51:15Z</time>
      </trkpt>
      <trkpt lat="40.9605770" lon="-4.7078130">
        <ele>863.1</ele>
        <time>2019-08-14T09:51:16Z</time>
      </trkpt>
      <trkpt lat="40.9606380" lon="-4.7078080">
        <ele>863.1</ele>
        <time>2019-08-14T09:51:17Z</time>
      </trkpt>
      <trkpt lat="40.9607000" lon="-4.7078010">
        <ele>863.2</ele>
        <time>2019-08-14T09:51:18Z</time>
      </trkpt>
      <trkpt lat="40.9607610" lon="-4.7077960">
        <ele>863.2</ele>
        <time>2019-08-14T09:51:19Z</time>
      </trkpt>
      <trkpt lat="40.9608230" lon="-4.7077910">
        <ele>863.3</ele>
        <time>2019-08-14T09:51:20Z</time>
      </trkpt>
      <trkpt lat="40.9608830" lon="-4.7077860">
        <ele>863.3</ele>
        <time>2019-08-14T09:51:21Z</time>
      </trkpt>
      <trkpt lat="40.9609440" lon="-4.7077810">
        <ele>863.4</ele>
        <time>2019-08-14T09:51:22Z</time>
      </trkpt>
      <trkpt lat="40.9610070" lon="-4.7077750">
        <ele>863.5</ele>
        <time>2019-08-14T09:51:23Z</time>
      </trkpt>
      <trkpt lat="40.9610680" lon="-4.7077700">
        <ele>863.6</ele>
        <time>2019-08-14T09:51:24Z</time>
      </trkpt>
      <trkpt lat="40.9611280" lon="-4.7077670">
        <ele>863.7</ele>
        <time>2019-08-14T09:51:25Z</time>
      </trkpt>
      <trkpt lat="40.9611860" lon="-4.7077640">
        <ele>863.7</ele>
        <time>2019-08-14T09:51:26Z</time>
      </trkpt>
      <trkpt lat="40.9612430" lon="-4.7077600">
        <ele>863.7</ele>
        <time>2019-08-14T09:51:27Z</time>
      </trkpt>
      <trkpt lat="40.9613010" lon="-4.7077550">
        <ele>863.6</ele>
        <time>2019-08-14T09:51:28Z</time>
      </trkpt>
      <trkpt lat="40.9613600" lon="-4.7077510">
        <ele>863.6</ele>
        <time>2019-08-14T09:51:29Z</time>
      </trkpt>
      <trkpt lat="40.9614180" lon="-4.7077460">
        <ele>863.5</ele>
        <time>2019-08-14T09:51:30Z</time>
      </trkpt>
      <trkpt lat="40.9614780" lon="-4.7077390">
        <ele>863.3</ele>
        <time>2019-08-14T09:51:31Z</time>
      </trkpt>
      <trkpt lat="40.9615380" lon="-4.7077330">
        <ele>863.1</ele>
        <time>2019-08-14T09:51:32Z</time>
      </trkpt>
      <trkpt lat="40.9615960" lon="-4.7077280">
        <ele>863.0</ele>
        <time>2019-08-14T09:51:33Z</time>
      </trkpt>
      <trkpt lat="40.9616540" lon="-4.7077240">
        <ele>862.7</ele>
        <time>2019-08-14T09:51:34Z</time>
      </trkpt>
      <trkpt lat="40.9617110" lon="-4.7077200">
        <ele>862.5</ele>
        <time>2019-08-14T09:51:35Z</time>
      </trkpt>
      <trkpt lat="40.9617670" lon="-4.7077150">
        <ele>862.3</ele>
        <time>2019-08-14T09:51:36Z</time>
      </trkpt>
      <trkpt lat="40.9618240" lon="-4.7077100">
        <ele>862.1</ele>
        <time>2019-08-14T09:51:37Z</time>
      </trkpt>
      <trkpt lat="40.9618810" lon="-4.7077070">
        <ele>861.9</ele>
        <time>2019-08-14T09:51:38Z</time>
      </trkpt>
      <trkpt lat="40.9619390" lon="-4.7077040">
        <ele>861.8</ele>
        <time>2019-08-14T09:51:39Z</time>
      </trkpt>
      <trkpt lat="40.9619960" lon="-4.7077020">
        <ele>861.6</ele>
        <time>2019-08-14T09:51:40Z</time>
      </trkpt>
      <trkpt lat="40.9620540" lon="-4.7076990">
        <ele>861.6</ele>
        <time>2019-08-14T09:51:41Z</time>
      </trkpt>
      <trkpt lat="40.9621120" lon="-4.7076940">
        <ele>861.5</ele>
        <time>2019-08-14T09:51:42Z</time>
      </trkpt>
      <trkpt lat="40.9621720" lon="-4.7076890">
        <ele>861.5</ele>
        <time>2019-08-14T09:51:43Z</time>
      </trkpt>
      <trkpt lat="40.9622320" lon="-4.7076840">
        <ele>861.5</ele>
        <time>2019-08-14T09:51:44Z</time>
      </trkpt>
      <trkpt lat="40.9622930" lon="-4.7076810">
        <ele>861.6</ele>
        <time>2019-08-14T09:51:45Z</time>
      </trkpt>
      <trkpt lat="40.9623520" lon="-4.7076800">
        <ele>861.7</ele>
        <time>2019-08-14T09:51:46Z</time>
      </trkpt>
      <trkpt lat="40.9624110" lon="-4.7076780">
        <ele>861.7</ele>
        <time>2019-08-14T09:51:47Z</time>
      </trkpt>
      <trkpt lat="40.9624720" lon="-4.7076780">
        <ele>861.8</ele>
        <time>2019-08-14T09:51:48Z</time>
      </trkpt>
      <trkpt lat="40.9625320" lon="-4.7076780">
        <ele>861.9</ele>
        <time>2019-08-14T09:51:49Z</time>
      </trkpt>
      <trkpt lat="40.9625930" lon="-4.7076800">
        <ele>862.0</ele>
        <time>2019-08-14T09:51:50Z</time>
      </trkpt>
      <trkpt lat="40.9626540" lon="-4.7076810">
        <ele>862.1</ele>
        <time>2019-08-14T09:51:51Z</time>
      </trkpt>
      <trkpt lat="40.9627160" lon="-4.7076840">
        <ele>862.2</ele>
        <time>2019-08-14T09:51:52Z</time>
      </trkpt>
      <trkpt lat="40.9627790" lon="-4.7076890">
        <ele>862.3</ele>
        <time>2019-08-14T09:51:53Z</time>
      </trkpt>
      <trkpt lat="40.9628410" lon="-4.7076940">
        <ele>862.5</ele>
        <time>2019-08-14T09:51:54Z</time>
      </trkpt>
      <trkpt lat="40.9629010" lon="-4.7077000">
        <ele>862.6</ele>
        <time>2019-08-14T09:51:55Z</time>
      </trkpt>
      <trkpt lat="40.9629600" lon="-4.7077060">
        <ele>862.8</ele>
        <time>2019-08-14T09:51:56Z</time>
      </trkpt>
      <trkpt lat="40.9630180" lon="-4.7077140">
        <ele>862.9</ele>
        <time>2019-08-14T09:51:57Z</time>
      </trkpt>
      <trkpt lat="40.9630770" lon="-4.7077240">
        <ele>863.1</ele>
        <time>2019-08-14T09:51:58Z</time>
      </trkpt>
      <trkpt lat="40.9631380" lon="-4.7077360">
        <ele>863.2</ele>
        <time>2019-08-14T09:51:59Z</time>
      </trkpt>
      <trkpt lat="40.9631980" lon="-4.7077480">
        <ele>863.4</ele>
        <time>2019-08-14T09:52:00Z</time>
      </trkpt>
      <trkpt lat="40.9632580" lon="-4.7077620">
        <ele>863.5</ele>
        <time>2019-08-14T09:52:01Z</time>
      </trkpt>
      <trkpt lat="40.9633190" lon="-4.7077760">
        <ele>863.6</ele>
        <time>2019-08-14T09:52:02Z</time>
      </trkpt>
      <trkpt lat="40.9633790" lon="-4.7077910">
        <ele>863.6</ele>
        <time>2019-08-14T09:52:03Z</time>
      </trkpt>
      <trkpt lat="40.9634390" lon="-4.7078080">
        <ele>863.6</ele>
        <time>2019-08-14T09:52:04Z</time>
      </trkpt>
      <trkpt lat="40.9634960" lon="-4.7078260">
        <ele>863.5</ele>
        <time>2019-08-14T09:52:05Z</time>
      </trkpt>
      <trkpt lat="40.9635540" lon="-4.7078430">
        <ele>863.4</ele>
        <time>2019-08-14T09:52:06Z</time>
      </trkpt>
      <trkpt lat="40.9636100" lon="-4.7078600">
        <ele>863.3</ele>
        <time>2019-08-14T09:52:07Z</time>
      </trkpt>
      <trkpt lat="40.9636670" lon="-4.7078800">
        <ele>863.2</ele>
        <time>2019-08-14T09:52:08Z</time>
      </trkpt>
      <trkpt lat="40.9637240" lon="-4.7078990">
        <ele>863.1</ele>
        <time>2019-08-14T09:52:09Z</time>
      </trkpt>
      <trkpt lat="40.9637840" lon="-4.7079180">
        <ele>863.0</ele>
        <time>2019-08-14T09:52:10Z</time>
      </trkpt>
      <trkpt lat="40.9638460" lon="-4.7079400">
        <ele>862.9</ele>
        <time>2019-08-14T09:52:11Z</time>
      </trkpt>
      <trkpt lat="40.9639090" lon="-4.7079620">
        <ele>862.9</ele>
        <time>2019-08-14T09:52:12Z</time>
      </trkpt>
      <trkpt lat="40.9639710" lon="-4.7079830">
        <ele>862.9</ele>
        <time>2019-08-14T09:52:13Z</time>
      </trkpt>
      <trkpt lat="40.9640340" lon="-4.7080060">
        <ele>862.9</ele>
        <time>2019-08-14T09:52:14Z</time>
      </trkpt>
      <trkpt lat="40.9640960" lon="-4.7080270">
        <ele>863.0</ele>
        <time>2019-08-14T09:52:15Z</time>
      </trkpt>
      <trkpt lat="40.9641570" lon="-4.7080480">
        <ele>863.0</ele>
        <time>2019-08-14T09:52:16Z</time>
      </trkpt>
      <trkpt lat="40.9642170" lon="-4.7080680">
        <ele>863.0</ele>
        <time>2019-08-14T09:52:17Z</time>
      </trkpt>
      <trkpt lat="40.9642770" lon="-4.7080870">
        <ele>863.0</ele>
        <time>2019-08-14T09:52:18Z</time>
      </trkpt>
      <trkpt lat="40.9643350" lon="-4.7081080">
        <ele>863.0</ele>
        <time>2019-08-14T09:52:19Z</time>
      </trkpt>
      <trkpt lat="40.9643920" lon="-4.7081280">
        <ele>862.9</ele>
        <time>2019-08-14T09:52:20Z</time>
      </trkpt>
      <trkpt lat="40.9644500" lon="-4.7081490">
        <ele>862.9</ele>
        <time>2019-08-14T09:52:21Z</time>
      </trkpt>
      <trkpt lat="40.9645080" lon="-4.7081690">
        <ele>862.9</ele>
        <time>2019-08-14T09:52:22Z</time>
      </trkpt>
      <trkpt lat="40.9645630" lon="-4.7081890">
        <ele>862.8</ele>
        <time>2019-08-14T09:52:23Z</time>
      </trkpt>
      <trkpt lat="40.9646200" lon="-4.7082080">
        <ele>862.8</ele>
        <time>2019-08-14T09:52:24Z</time>
      </trkpt>
      <trkpt lat="40.9646770" lon="-4.7082250">
        <ele>862.8</ele>
        <time>2019-08-14T09:52:25Z</time>
      </trkpt>
      <trkpt lat="40.9647350" lon="-4.7082430">
        <ele>862.8</ele>
        <time>2019-08-14T09:52:26Z</time>
      </trkpt>
      <trkpt lat="40.9647920" lon="-4.7082610">
        <ele>862.7</ele>
        <time>2019-08-14T09:52:27Z</time>
      </trkpt>
      <trkpt lat="40.9648500" lon="-4.7082800">
        <ele>862.7</ele>
        <time>2019-08-14T09:52:28Z</time>
      </trkpt>
      <trkpt lat="40.9649070" lon="-4.7082960">
        <ele>862.6</ele>
        <time>2019-08-14T09:52:29Z</time>
      </trkpt>
      <trkpt lat="40.9649630" lon="-4.7083110">
        <ele>862.5</ele>
        <time>2019-08-14T09:52:30Z</time>
      </trkpt>
      <trkpt lat="40.9650200" lon="-4.7083250">
        <ele>862.5</ele>
        <time>2019-08-14T09:52:31Z</time>
      </trkpt>
      <trkpt lat="40.9650770" lon="-4.7083380">
        <ele>862.4</ele>
        <time>2019-08-14T09:52:32Z</time>
      </trkpt>
      <trkpt lat="40.9651340" lon="-4.7083510">
        <ele>862.3</ele>
        <time>2019-08-14T09:52:33Z</time>
      </trkpt>
      <trkpt lat="40.9651910" lon="-4.7083650">
        <ele>862.3</ele>
        <time>2019-08-14T09:52:34Z</time>
      </trkpt>
      <trkpt lat="40.9652490" lon="-4.7083770">
        <ele>862.2</ele>
        <time>2019-08-14T09:52:35Z</time>
      </trkpt>
      <trkpt lat="40.9653070" lon="-4.7083870">
        <ele>862.1</ele>
        <time>2019-08-14T09:52:36Z</time>
      </trkpt>
      <trkpt lat="40.9653660" lon="-4.7083940">
        <ele>862.1</ele>
        <time>2019-08-14T09:52:37Z</time>
      </trkpt>
      <trkpt lat="40.9654250" lon="-4.7084010">
        <ele>862.0</ele>
        <time>2019-08-14T09:52:38Z</time>
      </trkpt>
      <trkpt lat="40.9654850" lon="-4.7084050">
        <ele>862.0</ele>
        <time>2019-08-14T09:52:39Z</time>
      </trkpt>
      <trkpt lat="40.9655450" lon="-4.7084090">
        <ele>862.0</ele>
        <time>2019-08-14T09:52:40Z</time>
      </trkpt>
      <trkpt lat="40.9656040" lon="-4.7084130">
        <ele>862.0</ele>
        <time>2019-08-14T09:52:41Z</time>
      </trkpt>
      <trkpt lat="40.9656630" lon="-4.7084160">
        <ele>862.0</ele>
        <time>2019-08-14T09:52:42Z</time>
      </trkpt>
      <trkpt lat="40.9657220" lon="-4.7084170">
        <ele>862.0</ele>
        <time>2019-08-14T09:52:43Z</time>
      </trkpt>
      <trkpt lat="40.9657820" lon="-4.7084200">
        <ele>862.0</ele>
        <time>2019-08-14T09:52:44Z</time>
      </trkpt>
      <trkpt lat="40.9658410" lon="-4.7084230">
        <ele>862.0</ele>
        <time>2019-08-14T09:52:45Z</time>
      </trkpt>
      <trkpt lat="40.9659010" lon="-4.7084220">
        <ele>862.0</ele>
        <time>2019-08-14T09:52:46Z</time>
      </trkpt>
      <trkpt lat="40.9659610" lon="-4.7084240">
        <ele>862.0</ele>
        <time>2019-08-14T09:52:47Z</time>
      </trkpt>
      <trkpt lat="40.9660200" lon="-4.7084250">
        <ele>861.9</ele>
        <time>2019-08-14T09:52:48Z</time>
      </trkpt>
      <trkpt lat="40.9660810" lon="-4.7084250">
        <ele>861.9</ele>
        <time>2019-08-14T09:52:49Z</time>
      </trkpt>
      <trkpt lat="40.9661410" lon="-4.7084250">
        <ele>861.8</ele>
        <time>2019-08-14T09:52:50Z</time>
      </trkpt>
      <trkpt lat="40.9662010" lon="-4.7084260">
        <ele>861.7</ele>
        <time>2019-08-14T09:52:51Z</time>
      </trkpt>
      <trkpt lat="40.9662600" lon="-4.7084270">
        <ele>861.6</ele>
        <time>2019-08-14T09:52:52Z</time>
      </trkpt>
      <trkpt lat="40.9663200" lon="-4.7084270">
        <ele>861.4</ele>
        <time>2019-08-14T09:52:53Z</time>
      </trkpt>
      <trkpt lat="40.9663800" lon="-4.7084260">
        <ele>861.2</ele>
        <time>2019-08-14T09:52:54Z</time>
      </trkpt>
      <trkpt lat="40.9664400" lon="-4.7084250">
        <ele>861.0</ele>
        <time>2019-08-14T09:52:55Z</time>
      </trkpt>
      <trkpt lat="40.9665010" lon="-4.7084250">
        <ele>860.9</ele>
        <time>2019-08-14T09:52:56Z</time>
      </trkpt>
      <trkpt lat="40.9665620" lon="-4.7084250">
        <ele>860.7</ele>
        <time>2019-08-14T09:52:57Z</time>
      </trkpt>
      <trkpt lat="40.9666240" lon="-4.7084240">
        <ele>860.6</ele>
        <time>2019-08-14T09:52:58Z</time>
      </trkpt>
      <trkpt lat="40.9666860" lon="-4.7084240">
        <ele>860.5</ele>
        <time>2019-08-14T09:52:59Z</time>
      </trkpt>
      <trkpt lat="40.9667470" lon="-4.7084250">
        <ele>860.5</ele>
        <time>2019-08-14T09:53:00Z</time>
      </trkpt>
      <trkpt lat="40.9668090" lon="-4.7084250">
        <ele>860.6</ele>
        <time>2019-08-14T09:53:01Z</time>
      </trkpt>
      <trkpt lat="40.9668700" lon="-4.7084240">
        <ele>860.7</ele>
        <time>2019-08-14T09:53:02Z</time>
      </trkpt>
      <trkpt lat="40.9669300" lon="-4.7084230">
        <ele>860.8</ele>
        <time>2019-08-14T09:53:03Z</time>
      </trkpt>
      <trkpt lat="40.9669900" lon="-4.7084250">
        <ele>861.0</ele>
        <time>2019-08-14T09:53:04Z</time>
      </trkpt>
      <trkpt lat="40.9670490" lon="-4.7084270">
        <ele>861.1</ele>
        <time>2019-08-14T09:53:05Z</time>
      </trkpt>
      <trkpt lat="40.9671070" lon="-4.7084280">
        <ele>861.3</ele>
        <time>2019-08-14T09:53:06Z</time>
      </trkpt>
      <trkpt lat="40.9671640" lon="-4.7084280">
        <ele>861.4</ele>
        <time>2019-08-14T09:53:07Z</time>
      </trkpt>
      <trkpt lat="40.9672230" lon="-4.7084280">
        <ele>861.5</ele>
        <time>2019-08-14T09:53:08Z</time>
      </trkpt>
      <trkpt lat="40.9672830" lon="-4.7084270">
        <ele>861.6</ele>
        <time>2019-08-14T09:53:09Z</time>
      </trkpt>
      <trkpt lat="40.9673430" lon="-4.7084270">
        <ele>861.6</ele>
        <time>2019-08-14T09:53:10Z</time>
      </trkpt>
      <trkpt lat="40.9674030" lon="-4.7084270">
        <ele>861.5</ele>
        <time>2019-08-14T09:53:11Z</time>
      </trkpt>
      <trkpt lat="40.9674630" lon="-4.7084270">
        <ele>861.4</ele>
        <time>2019-08-14T09:53:12Z</time>
      </trkpt>
      <trkpt lat="40.9675220" lon="-4.7084280">
        <ele>861.3</ele>
        <time>2019-08-14T09:53:13Z</time>
      </trkpt>
      <trkpt lat="40.9675820" lon="-4.7084280">
        <ele>861.1</ele>
        <time>2019-08-14T09:53:14Z</time>
      </trkpt>
      <trkpt lat="40.9676420" lon="-4.7084280">
        <ele>861.0</ele>
        <time>2019-08-14T09:53:15Z</time>
      </trkpt>
      <trkpt lat="40.9677020" lon="-4.7084280">
        <ele>860.9</ele>
        <time>2019-08-14T09:53:16Z</time>
      </trkpt>
      <trkpt lat="40.9677600" lon="-4.7084290">
        <ele>860.8</ele>
        <time>2019-08-14T09:53:17Z</time>
      </trkpt>
      <trkpt lat="40.9678180" lon="-4.7084290">
        <ele>860.8</ele>
        <time>2019-08-14T09:53:18Z</time>
      </trkpt>
      <trkpt lat="40.9678780" lon="-4.7084320">
        <ele>860.9</ele>
        <time>2019-08-14T09:53:19Z</time>
      </trkpt>
      <trkpt lat="40.9679370" lon="-4.7084330">
        <ele>861.0</ele>
        <time>2019-08-14T09:53:20Z</time>
      </trkpt>
      <trkpt lat="40.9679950" lon="-4.7084350">
        <ele>861.1</ele>
        <time>2019-08-14T09:53:21Z</time>
      </trkpt>
      <trkpt lat="40.9680540" lon="-4.7084400">
        <ele>861.3</ele>
        <time>2019-08-14T09:53:22Z</time>
      </trkpt>
      <trkpt lat="40.9681130" lon="-4.7084450">
        <ele>861.5</ele>
        <time>2019-08-14T09:53:23Z</time>
      </trkpt>
      <trkpt lat="40.9681720" lon="-4.7084490">
        <ele>861.7</ele>
        <time>2019-08-14T09:53:24Z</time>
      </trkpt>
      <trkpt lat="40.9682310" lon="-4.7084540">
        <ele>861.9</ele>
        <time>2019-08-14T09:53:25Z</time>
      </trkpt>
      <trkpt lat="40.9682910" lon="-4.7084600">
        <ele>862.0</ele>
        <time>2019-08-14T09:53:26Z</time>
      </trkpt>
      <trkpt lat="40.9683510" lon="-4.7084680">
        <ele>862.1</ele>
        <time>2019-08-14T09:53:27Z</time>
      </trkpt>
      <trkpt lat="40.9684100" lon="-4.7084750">
        <ele>862.1</ele>
        <time>2019-08-14T09:53:28Z</time>
      </trkpt>
      <trkpt lat="40.9684690" lon="-4.7084820">
        <ele>862.1</ele>
        <time>2019-08-14T09:53:29Z</time>
      </trkpt>
      <trkpt lat="40.9685260" lon="-4.7084910">
        <ele>862.0</ele>
        <time>2019-08-14T09:53:30Z</time>
      </trkpt>
      <trkpt lat="40.9685820" lon="-4.7085000">
        <ele>861.9</ele>
        <time>2019-08-14T09:53:31Z</time>
      </trkpt>
      <trkpt lat="40.9686390" lon="-4.7085090">
        <ele>861.8</ele>
        <time>2019-08-14T09:53:32Z</time>
      </trkpt>
      <trkpt lat="40.9686960" lon="-4.7085190">
        <ele>861.5</ele>
        <time>2019-08-14T09:53:33Z</time>
      </trkpt>
      <trkpt lat="40.9687530" lon="-4.7085310">
        <ele>861.3</ele>
        <time>2019-08-14T09:53:34Z</time>
      </trkpt>
      <trkpt lat="40.9688110" lon="-4.7085430">
        <ele>861.0</ele>
        <time>2019-08-14T09:53:35Z</time>
      </trkpt>
      <trkpt lat="40.9688680" lon="-4.7085540">
        <ele>860.7</ele>
        <time>2019-08-14T09:53:36Z</time>
      </trkpt>
      <trkpt lat="40.9689250" lon="-4.7085640">
        <ele>860.5</ele>
        <time>2019-08-14T09:53:37Z</time>
      </trkpt>
      <trkpt lat="40.9689810" lon="-4.7085760">
        <ele>860.3</ele>
        <time>2019-08-14T09:53:38Z</time>
      </trkpt>
      <trkpt lat="40.9690400" lon="-4.7085870">
        <ele>860.1</ele>
        <time>2019-08-14T09:53:39Z</time>
      </trkpt>
      <trkpt lat="40.9691000" lon="-4.7085980">
        <ele>860.0</ele>
        <time>2019-08-14T09:53:40Z</time>
      </trkpt>
      <trkpt lat="40.9691590" lon="-4.7086100">
        <ele>859.9</ele>
        <time>2019-08-14T09:53:41Z</time>
      </trkpt>
      <trkpt lat="40.9692190" lon="-4.7086230">
        <ele>859.9</ele>
        <time>2019-08-14T09:53:42Z</time>
      </trkpt>
      <trkpt lat="40.9692790" lon="-4.7086360">
        <ele>860.0</ele>
        <time>2019-08-14T09:53:43Z</time>
      </trkpt>
      <trkpt lat="40.9693380" lon="-4.7086490">
        <ele>860.0</ele>
        <time>2019-08-14T09:53:44Z</time>
      </trkpt>
      <trkpt lat="40.9693960" lon="-4.7086600">
        <ele>860.1</ele>
        <time>2019-08-14T09:53:45Z</time>
      </trkpt>
      <trkpt lat="40.9694550" lon="-4.7086720">
        <ele>860.1</ele>
        <time>2019-08-14T09:53:46Z</time>
      </trkpt>
      <trkpt lat="40.9695160" lon="-4.7086830">
        <ele>860.2</ele>
        <time>2019-08-14T09:53:47Z</time>
      </trkpt>
      <trkpt lat="40.9695760" lon="-4.7086940">
        <ele>860.2</ele>
        <time>2019-08-14T09:53:48Z</time>
      </trkpt>
      <trkpt lat="40.9696340" lon="-4.7087050">
        <ele>860.2</ele>
        <time>2019-08-14T09:53:49Z</time>
      </trkpt>
      <trkpt lat="40.9696910" lon="-4.7087150">
        <ele>860.3</ele>
        <time>2019-08-14T09:53:50Z</time>
      </trkpt>
      <trkpt lat="40.9697460" lon="-4.7087250">
        <ele>860.3</ele>
        <time>2019-08-14T09:53:51Z</time>
      </trkpt>
      <trkpt lat="40.9698020" lon="-4.7087380">
        <ele>860.3</ele>
        <time>2019-08-14T09:53:52Z</time>
      </trkpt>
      <trkpt lat="40.9698610" lon="-4.7087480">
        <ele>860.5</ele>
        <time>2019-08-14T09:53:53Z</time>
      </trkpt>
      <trkpt lat="40.9699200" lon="-4.7087600">
        <ele>860.6</ele>
        <time>2019-08-14T09:53:54Z</time>
      </trkpt>
      <trkpt lat="40.9699800" lon="-4.7087720">
        <ele>860.7</ele>
        <time>2019-08-14T09:53:55Z</time>
      </trkpt>
      <trkpt lat="40.9700400" lon="-4.7087840">
        <ele>860.8</ele>
        <time>2019-08-14T09:53:56Z</time>
      </trkpt>
      <trkpt lat="40.9700990" lon="-4.7087960">
        <ele>860.9</ele>
        <time>2019-08-14T09:53:57Z</time>
      </trkpt>
      <trkpt lat="40.9701560" lon="-4.7088070">
        <ele>861.0</ele>
        <time>2019-08-14T09:53:58Z</time>
      </trkpt>
      <trkpt lat="40.9702140" lon="-4.7088170">
        <ele>861.0</ele>
        <time>2019-08-14T09:53:59Z</time>
      </trkpt>
      <trkpt lat="40.9702730" lon="-4.7088280">
        <ele>861.0</ele>
        <time>2019-08-14T09:54:00Z</time>
      </trkpt>
      <trkpt lat="40.9703330" lon="-4.7088380">
        <ele>861.0</ele>
        <time>2019-08-14T09:54:01Z</time>
      </trkpt>
      <trkpt lat="40.9703930" lon="-4.7088480">
        <ele>860.9</ele>
        <time>2019-08-14T09:54:02Z</time>
      </trkpt>
      <trkpt lat="40.9704520" lon="-4.7088580">
        <ele>860.8</ele>
        <time>2019-08-14T09:54:03Z</time>
      </trkpt>
      <trkpt lat="40.9705100" lon="-4.7088700">
        <ele>860.7</ele>
        <time>2019-08-14T09:54:04Z</time>
      </trkpt>
      <trkpt lat="40.9705670" lon="-4.7088820">
        <ele>860.6</ele>
        <time>2019-08-14T09:54:05Z</time>
      </trkpt>
      <trkpt lat="40.9706250" lon="-4.7088940">
        <ele>860.5</ele>
        <time>2019-08-14T09:54:06Z</time>
      </trkpt>
      <trkpt lat="40.9706840" lon="-4.7089050">
        <ele>860.4</ele>
        <time>2019-08-14T09:54:07Z</time>
      </trkpt>
      <trkpt lat="40.9707430" lon="-4.7089150">
        <ele>860.4</ele>
        <time>2019-08-14T09:54:08Z</time>
      </trkpt>
      <trkpt lat="40.9708020" lon="-4.7089250">
        <ele>860.3</ele>
        <time>2019-08-14T09:54:09Z</time>
      </trkpt>
      <trkpt lat="40.9708590" lon="-4.7089350">
        <ele>860.2</ele>
        <time>2019-08-14T09:54:10Z</time>
      </trkpt>
      <trkpt lat="40.9709160" lon="-4.7089450">
        <ele>860.2</ele>
        <time>2019-08-14T09:54:11Z</time>
      </trkpt>
      <trkpt lat="40.9709720" lon="-4.7089550">
        <ele>860.2</ele>
        <time>2019-08-14T09:54:12Z</time>
      </trkpt>
      <trkpt lat="40.9710290" lon="-4.7089660">
        <ele>860.2</ele>
        <time>2019-08-14T09:54:13Z</time>
      </trkpt>
      <trkpt lat="40.9710860" lon="-4.7089770">
        <ele>860.2</ele>
        <time>2019-08-14T09:54:14Z</time>
      </trkpt>
      <trkpt lat="40.9711430" lon="-4.7089870">
        <ele>860.3</ele>
        <time>2019-08-14T09:54:15Z</time>
      </trkpt>
      <trkpt lat="40.9712000" lon="-4.7089980">
        <ele>860.3</ele>
        <time>2019-08-14T09:54:16Z</time>
      </trkpt>
      <trkpt lat="40.9712560" lon="-4.7090100">
        <ele>860.4</ele>
        <time>2019-08-14T09:54:17Z</time>
      </trkpt>
      <trkpt lat="40.9713120" lon="-4.7090210">
        <ele>860.5</ele>
        <time>2019-08-14T09:54:18Z</time>
      </trkpt>
      <trkpt lat="40.9713670" lon="-4.7090330">
        <ele>860.6</ele>
        <time>2019-08-14T09:54:19Z</time>
      </trkpt>
      <trkpt lat="40.9714240" lon="-4.7090440">
        <ele>860.6</ele>
        <time>2019-08-14T09:54:20Z</time>
      </trkpt>
      <trkpt lat="40.9714820" lon="-4.7090560">
        <ele>860.7</ele>
        <time>2019-08-14T09:54:21Z</time>
      </trkpt>
      <trkpt lat="40.9715420" lon="-4.7090670">
        <ele>860.8</ele>
        <time>2019-08-14T09:54:22Z</time>
      </trkpt>
      <trkpt lat="40.9716020" lon="-4.7090780">
        <ele>860.8</ele>
        <time>2019-08-14T09:54:23Z</time>
      </trkpt>
      <trkpt lat="40.9716630" lon="-4.7090880">
        <ele>860.9</ele>
        <time>2019-08-14T09:54:24Z</time>
      </trkpt>
      <trkpt lat="40.9717220" lon="-4.7090990">
        <ele>860.9</ele>
        <time>2019-08-14T09:54:25Z</time>
      </trkpt>
      <trkpt lat="40.9717810" lon="-4.7091100">
        <ele>860.9</ele>
        <time>2019-08-14T09:54:26Z</time>
      </trkpt>
      <trkpt lat="40.9718410" lon="-4.7091220">
        <ele>860.9</ele>
        <time>2019-08-14T09:54:27Z</time>
      </trkpt>
      <trkpt lat="40.9719020" lon="-4.7091350">
        <ele>860.9</ele>
        <time>2019-08-14T09:54:28Z</time>
      </trkpt>
      <trkpt lat="40.9719640" lon="-4.7091460">
        <ele>860.8</ele>
        <time>2019-08-14T09:54:29Z</time>
      </trkpt>
      <trkpt lat="40.9720250" lon="-4.7091580">
        <ele>860.8</ele>
        <time>2019-08-14T09:54:30Z</time>
      </trkpt>
      <trkpt lat="40.9720870" lon="-4.7091690">
        <ele>860.7</ele>
        <time>2019-08-14T09:54:31Z</time>
      </trkpt>
      <trkpt lat="40.9721480" lon="-4.7091800">
        <ele>860.6</ele>
        <time>2019-08-14T09:54:32Z</time>
      </trkpt>
      <trkpt lat="40.9722080" lon="-4.7091900">
        <ele>860.5</ele>
        <time>2019-08-14T09:54:33Z</time>
      </trkpt>
      <trkpt lat="40.9722690" lon="-4.7091990">
        <ele>860.4</ele>
        <time>2019-08-14T09:54:34Z</time>
      </trkpt>
      <trkpt lat="40.9723300" lon="-4.7092110">
        <ele>860.3</ele>
        <time>2019-08-14T09:54:35Z</time>
      </trkpt>
      <trkpt lat="40.9723930" lon="-4.7092230">
        <ele>860.1</ele>
        <time>2019-08-14T09:54:36Z</time>
      </trkpt>
      <trkpt lat="40.9724580" lon="-4.7092350">
        <ele>860.0</ele>
        <time>2019-08-14T09:54:37Z</time>
      </trkpt>
      <trkpt lat="40.9725230" lon="-4.7092470">
        <ele>860.0</ele>
        <time>2019-08-14T09:54:38Z</time>
      </trkpt>
      <trkpt lat="40.9725870" lon="-4.7092600">
        <ele>859.9</ele>
        <time>2019-08-14T09:54:39Z</time>
      </trkpt>
      <trkpt lat="40.9726510" lon="-4.7092740">
        <ele>859.9</ele>
        <time>2019-08-14T09:54:40Z</time>
      </trkpt>
      <trkpt lat="40.9727140" lon="-4.7092860">
        <ele>859.8</ele>
        <time>2019-08-14T09:54:41Z</time>
      </trkpt>
      <trkpt lat="40.9727750" lon="-4.7092970">
        <ele>859.8</ele>
        <time>2019-08-14T09:54:42Z</time>
      </trkpt>
      <trkpt lat="40.9728360" lon="-4.7093080">
        <ele>859.8</ele>
        <time>2019-08-14T09:54:43Z</time>
      </trkpt>
      <trkpt lat="40.9728960" lon="-4.7093200">
        <ele>859.8</ele>
        <time>2019-08-14T09:54:44Z</time>
      </trkpt>
      <trkpt lat="40.9729580" lon="-4.7093310">
        <ele>859.7</ele>
        <time>2019-08-14T09:54:45Z</time>
      </trkpt>
      <trkpt lat="40.9730190" lon="-4.7093390">
        <ele>859.7</ele>
        <time>2019-08-14T09:54:46Z</time>
      </trkpt>
      <trkpt lat="40.9730830" lon="-4.7093460">
        <ele>859.7</ele>
        <time>2019-08-14T09:54:47Z</time>
      </trkpt>
      <trkpt lat="40.9731470" lon="-4.7093500">
        <ele>859.7</ele>
        <time>2019-08-14T09:54:48Z</time>
      </trkpt>
      <trkpt lat="40.9732110" lon="-4.7093540">
        <ele>859.6</ele>
        <time>2019-08-14T09:54:49Z</time>
      </trkpt>
      <trkpt lat="40.9732750" lon="-4.7093580">
        <ele>859.6</ele>
        <time>2019-08-14T09:54:50Z</time>
      </trkpt>
      <trkpt lat="40.9733390" lon="-4.7093620">
        <ele>859.6</ele>
        <time>2019-08-14T09:54:51Z</time>
      </trkpt>
      <trkpt lat="40.9734010" lon="-4.7093660">
        <ele>859.5</ele>
        <time>2019-08-14T09:54:52Z</time>
      </trkpt>
      <trkpt lat="40.9734630" lon="-4.7093680">
        <ele>859.4</ele>
        <time>2019-08-14T09:54:53Z</time>
      </trkpt>
      <trkpt lat="40.9735260" lon="-4.7093680">
        <ele>859.3</ele>
        <time>2019-08-14T09:54:54Z</time>
      </trkpt>
      <trkpt lat="40.9735880" lon="-4.7093650">
        <ele>859.1</ele>
        <time>2019-08-14T09:54:55Z</time>
      </trkpt>
      <trkpt lat="40.9736480" lon="-4.7093610">
        <ele>859.0</ele>
        <time>2019-08-14T09:54:56Z</time>
      </trkpt>
      <trkpt lat="40.9737060" lon="-4.7093560">
        <ele>858.8</ele>
        <time>2019-08-14T09:54:57Z</time>
      </trkpt>
      <trkpt lat="40.9737630" lon="-4.7093480">
        <ele>858.7</ele>
        <time>2019-08-14T09:54:58Z</time>
      </trkpt>
      <trkpt lat="40.9738210" lon="-4.7093410">
        <ele>858.5</ele>
        <time>2019-08-14T09:54:59Z</time>
      </trkpt>
      <trkpt lat="40.9738800" lon="-4.7093320">
        <ele>858.3</ele>
        <time>2019-08-14T09:55:00Z</time>
      </trkpt>
      <trkpt lat="40.9739400" lon="-4.7093250">
        <ele>858.1</ele>
        <time>2019-08-14T09:55:01Z</time>
      </trkpt>
      <trkpt lat="40.9739990" lon="-4.7093180">
        <ele>857.8</ele>
        <time>2019-08-14T09:55:02Z</time>
      </trkpt>
      <trkpt lat="40.9740590" lon="-4.7093120">
        <ele>857.6</ele>
        <time>2019-08-14T09:55:03Z</time>
      </trkpt>
      <trkpt lat="40.9741170" lon="-4.7093050">
        <ele>857.4</ele>
        <time>2019-08-14T09:55:04Z</time>
      </trkpt>
      <trkpt lat="40.9741740" lon="-4.7092950">
        <ele>857.2</ele>
        <time>2019-08-14T09:55:05Z</time>
      </trkpt>
      <trkpt lat="40.9742320" lon="-4.7092860">
        <ele>857.0</ele>
        <time>2019-08-14T09:55:06Z</time>
      </trkpt>
      <trkpt lat="40.9742900" lon="-4.7092790">
        <ele>856.9</ele>
        <time>2019-08-14T09:55:07Z</time>
      </trkpt>
      <trkpt lat="40.9743470" lon="-4.7092700">
        <ele>856.7</ele>
        <time>2019-08-14T09:55:08Z</time>
      </trkpt>
      <trkpt lat="40.9744040" lon="-4.7092610">
        <ele>856.7</ele>
        <time>2019-08-14T09:55:09Z</time>
      </trkpt>
      <trkpt lat="40.9744600" lon="-4.7092540">
        <ele>856.6</ele>
        <time>2019-08-14T09:55:10Z</time>
      </trkpt>
      <trkpt lat="40.9745150" lon="-4.7092460">
        <ele>856.6</ele>
        <time>2019-08-14T09:55:11Z</time>
      </trkpt>
      <trkpt lat="40.9745710" lon="-4.7092370">
        <ele>856.7</ele>
        <time>2019-08-14T09:55:12Z</time>
      </trkpt>
      <trkpt lat="40.9746270" lon="-4.7092280">
        <ele>856.7</ele>
        <time>2019-08-14T09:55:13Z</time>
      </trkpt>
      <trkpt lat="40.9746830" lon="-4.7092190">
        <ele>856.8</ele>
        <time>2019-08-14T09:55:14Z</time>
      </trkpt>
      <trkpt lat="40.9747390" lon="-4.7092110">
        <ele>857.0</ele>
        <time>2019-08-14T09:55:15Z</time>
      </trkpt>
      <trkpt lat="40.9747930" lon="-4.7092030">
        <ele>857.1</ele>
        <time>2019-08-14T09:55:16Z</time>
      </trkpt>
      <trkpt lat="40.9748480" lon="-4.7091950">
        <ele>857.2</ele>
        <time>2019-08-14T09:55:17Z</time>
      </trkpt>
      <trkpt lat="40.9749020" lon="-4.7091900">
        <ele>857.3</ele>
        <time>2019-08-14T09:55:18Z</time>
      </trkpt>
      <trkpt lat="40.9749570" lon="-4.7091850">
        <ele>857.4</ele>
        <time>2019-08-14T09:55:19Z</time>
      </trkpt>
      <trkpt lat="40.9750110" lon="-4.7091790">
        <ele>857.4</ele>
        <time>2019-08-14T09:55:20Z</time>
      </trkpt>
      <trkpt lat="40.9750650" lon="-4.7091740">
        <ele>857.5</ele>
        <time>2019-08-14T09:55:21Z</time>
      </trkpt>
      <trkpt lat="40.9751180" lon="-4.7091690">
        <ele>857.5</ele>
        <time>2019-08-14T09:55:22Z</time>
      </trkpt>
      <trkpt lat="40.9751720" lon="-4.7091620">
        <ele>857.6</ele>
        <time>2019-08-14T09:55:23Z</time>
      </trkpt>
      <trkpt lat="40.9752280" lon="-4.7091570">
        <ele>857.6</ele>
        <time>2019-08-14T09:55:24Z</time>
      </trkpt>
      <trkpt lat="40.9752850" lon="-4.7091540">
        <ele>857.4</ele>
        <time>2019-08-14T09:55:25Z</time>
      </trkpt>
      <trkpt lat="40.9753430" lon="-4.7091490">
        <ele>857.3</ele>
        <time>2019-08-14T09:55:26Z</time>
      </trkpt>
      <trkpt lat="40.9754020" lon="-4.7091460">
        <ele>857.2</ele>
        <time>2019-08-14T09:55:27Z</time>
      </trkpt>
      <trkpt lat="40.9754600" lon="-4.7091440">
        <ele>857.2</ele>
        <time>2019-08-14T09:55:28Z</time>
      </trkpt>
      <trkpt lat="40.9755200" lon="-4.7091430">
        <ele>857.1</ele>
        <time>2019-08-14T09:55:29Z</time>
      </trkpt>
      <trkpt lat="40.9755780" lon="-4.7091430">
        <ele>857.1</ele>
        <time>2019-08-14T09:55:30Z</time>
      </trkpt>
      <trkpt lat="40.9756370" lon="-4.7091420">
        <ele>857.1</ele>
        <time>2019-08-14T09:55:31Z</time>
      </trkpt>
      <trkpt lat="40.9756960" lon="-4.7091400">
        <ele>857.1</ele>
        <time>2019-08-14T09:55:32Z</time>
      </trkpt>
      <trkpt lat="40.9757570" lon="-4.7091400">
        <ele>857.1</ele>
        <time>2019-08-14T09:55:33Z</time>
      </trkpt>
      <trkpt lat="40.9758170" lon="-4.7091400">
        <ele>857.0</ele>
        <time>2019-08-14T09:55:34Z</time>
      </trkpt>
      <trkpt lat="40.9758770" lon="-4.7091430">
        <ele>857.0</ele>
        <time>2019-08-14T09:55:35Z</time>
      </trkpt>
      <trkpt lat="40.9759360" lon="-4.7091440">
        <ele>856.9</ele>
        <time>2019-08-14T09:55:36Z</time>
      </trkpt>
      <trkpt lat="40.9759940" lon="-4.7091440">
        <ele>856.9</ele>
        <time>2019-08-14T09:55:37Z</time>
      </trkpt>
      <trkpt lat="40.9760510" lon="-4.7091430">
        <ele>856.9</ele>
        <time>2019-08-14T09:55:38Z</time>
      </trkpt>
      <trkpt lat="40.9761080" lon="-4.7091440">
        <ele>856.9</ele>
        <time>2019-08-14T09:55:39Z</time>
      </trkpt>
      <trkpt lat="40.9761650" lon="-4.7091460">
        <ele>856.9</ele>
        <time>2019-08-14T09:55:40Z</time>
      </trkpt>
      <trkpt lat="40.9762230" lon="-4.7091480">
        <ele>857.0</ele>
        <time>2019-08-14T09:55:41Z</time>
      </trkpt>
      <trkpt lat="40.9762810" lon="-4.7091490">
        <ele>857.1</ele>
        <time>2019-08-14T09:55:42Z</time>
      </trkpt>
      <trkpt lat="40.9763380" lon="-4.7091500">
        <ele>857.1</ele>
        <time>2019-08-14T09:55:43Z</time>
      </trkpt>
      <trkpt lat="40.9763950" lon="-4.7091520">
        <ele>857.2</ele>
        <time>2019-08-14T09:55:44Z</time>
      </trkpt>
      <trkpt lat="40.9764520" lon="-4.7091550">
        <ele>857.3</ele>
        <time>2019-08-14T09:55:45Z</time>
      </trkpt>
      <trkpt lat="40.9765110" lon="-4.7091560">
        <ele>857.3</ele>
        <time>2019-08-14T09:55:46Z</time>
      </trkpt>
      <trkpt lat="40.9765690" lon="-4.7091570">
        <ele>857.4</ele>
        <time>2019-08-14T09:55:47Z</time>
      </trkpt>
      <trkpt lat="40.9766270" lon="-4.7091570">
        <ele>857.4</ele>
        <time>2019-08-14T09:55:48Z</time>
      </trkpt>
      <trkpt lat="40.9766870" lon="-4.7091570">
        <ele>857.4</ele>
        <time>2019-08-14T09:55:49Z</time>
      </trkpt>
      <trkpt lat="40.9767470" lon="-4.7091580">
        <ele>857.3</ele>
        <time>2019-08-14T09:55:50Z</time>
      </trkpt>
      <trkpt lat="40.9768070" lon="-4.7091600">
        <ele>857.2</ele>
        <time>2019-08-14T09:55:51Z</time>
      </trkpt>
      <trkpt lat="40.9768670" lon="-4.7091620">
        <ele>857.1</ele>
        <time>2019-08-14T09:55:52Z</time>
      </trkpt>
      <trkpt lat="40.9769260" lon="-4.7091670">
        <ele>856.9</ele>
        <time>2019-08-14T09:55:53Z</time>
      </trkpt>
      <trkpt lat="40.9769840" lon="-4.7091690">
        <ele>856.8</ele>
        <time>2019-08-14T09:55:54Z</time>
      </trkpt>
      <trkpt lat="40.9770420" lon="-4.7091700">
        <ele>856.6</ele>
        <time>2019-08-14T09:55:55Z</time>
      </trkpt>
      <trkpt lat="40.9771020" lon="-4.7091690">
        <ele>856.4</ele>
        <time>2019-08-14T09:55:56Z</time>
      </trkpt>
      <trkpt lat="40.9771610" lon="-4.7091690">
        <ele>856.2</ele>
        <time>2019-08-14T09:55:57Z</time>
      </trkpt>
      <trkpt lat="40.9772210" lon="-4.7091690">
        <ele>856.1</ele>
        <time>2019-08-14T09:55:58Z</time>
      </trkpt>
      <trkpt lat="40.9772820" lon="-4.7091690">
        <ele>856.0</ele>
        <time>2019-08-14T09:55:59Z</time>
      </trkpt>
      <trkpt lat="40.9773440" lon="-4.7091680">
        <ele>855.9</ele>
        <time>2019-08-14T09:56:00Z</time>
      </trkpt>
      <trkpt lat="40.9774060" lon="-4.7091690">
        <ele>855.9</ele>
        <time>2019-08-14T09:56:01Z</time>
      </trkpt>
      <trkpt lat="40.9774690" lon="-4.7091710">
        <ele>855.9</ele>
        <time>2019-08-14T09:56:02Z</time>
      </trkpt>
      <trkpt lat="40.9775310" lon="-4.7091730">
        <ele>856.0</ele>
        <time>2019-08-14T09:56:03Z</time>
      </trkpt>
      <trkpt lat="40.9775930" lon="-4.7091750">
        <ele>856.1</ele>
        <time>2019-08-14T09:56:04Z</time>
      </trkpt>
      <trkpt lat="40.9776540" lon="-4.7091750">
        <ele>856.2</ele>
        <time>2019-08-14T09:56:05Z</time>
      </trkpt>
      <trkpt lat="40.9777140" lon="-4.7091760">
        <ele>856.2</ele>
        <time>2019-08-14T09:56:06Z</time>
      </trkpt>
      <trkpt lat="40.9777750" lon="-4.7091760">
        <ele>856.3</ele>
        <time>2019-08-14T09:56:07Z</time>
      </trkpt>
      <trkpt lat="40.9778370" lon="-4.7091750">
        <ele>856.3</ele>
        <time>2019-08-14T09:56:08Z</time>
      </trkpt>
      <trkpt lat="40.9778980" lon="-4.7091760">
        <ele>856.4</ele>
        <time>2019-08-14T09:56:09Z</time>
      </trkpt>
      <trkpt lat="40.9779580" lon="-4.7091790">
        <ele>856.4</ele>
        <time>2019-08-14T09:56:10Z</time>
      </trkpt>
      <trkpt lat="40.9780180" lon="-4.7091790">
        <ele>856.4</ele>
        <time>2019-08-14T09:56:11Z</time>
      </trkpt>
      <trkpt lat="40.9780780" lon="-4.7091810">
        <ele>856.4</ele>
        <time>2019-08-14T09:56:12Z</time>
      </trkpt>
      <trkpt lat="40.9781380" lon="-4.7091810">
        <ele>856.4</ele>
        <time>2019-08-14T09:56:13Z</time>
      </trkpt>
      <trkpt lat="40.9781990" lon="-4.7091830">
        <ele>856.3</ele>
        <time>2019-08-14T09:56:14Z</time>
      </trkpt>
      <trkpt lat="40.9782580" lon="-4.7091840">
        <ele>856.3</ele>
        <time>2019-08-14T09:56:15Z</time>
      </trkpt>
      <trkpt lat="40.9783150" lon="-4.7091850">
        <ele>856.2</ele>
        <time>2019-08-14T09:56:16Z</time>
      </trkpt>
      <trkpt lat="40.9783740" lon="-4.7091860">
        <ele>856.1</ele>
        <time>2019-08-14T09:56:17Z</time>
      </trkpt>
      <trkpt lat="40.9784330" lon="-4.7091870">
        <ele>856.1</ele>
        <time>2019-08-14T09:56:18Z</time>
      </trkpt>
      <trkpt lat="40.9784920" lon="-4.7091890">
        <ele>856.0</ele>
        <time>2019-08-14T09:56:19Z</time>
      </trkpt>
      <trkpt lat="40.9785510" lon="-4.7091910">
        <ele>855.9</ele>
        <time>2019-08-14T09:56:20Z</time>
      </trkpt>
      <trkpt lat="40.9786110" lon="-4.7091930">
        <ele>855.9</ele>
        <time>2019-08-14T09:56:21Z</time>
      </trkpt>
      <trkpt lat="40.9786690" lon="-4.7091960">
        <ele>855.8</ele>
        <time>2019-08-14T09:56:22Z</time>
      </trkpt>
      <trkpt lat="40.9787270" lon="-4.7091970">
        <ele>855.8</ele>
        <time>2019-08-14T09:56:23Z</time>
      </trkpt>
      <trkpt lat="40.9787860" lon="-4.7091960">
        <ele>855.7</ele>
        <time>2019-08-14T09:56:24Z</time>
      </trkpt>
      <trkpt lat="40.9788450" lon="-4.7091950">
        <ele>855.7</ele>
        <time>2019-08-14T09:56:25Z</time>
      </trkpt>
      <trkpt lat="40.9789040" lon="-4.7091960">
        <ele>855.8</ele>
        <time>2019-08-14T09:56:26Z</time>
      </trkpt>
      <trkpt lat="40.9789640" lon="-4.7091990">
        <ele>855.8</ele>
        <time>2019-08-14T09:56:27Z</time>
      </trkpt>
      <trkpt lat="40.9790230" lon="-4.7092010">
        <ele>855.8</ele>
        <time>2019-08-14T09:56:28Z</time>
      </trkpt>
      <trkpt lat="40.9790800" lon="-4.7092020">
        <ele>855.9</ele>
        <time>2019-08-14T09:56:29Z</time>
      </trkpt>
      <trkpt lat="40.9791360" lon="-4.7092020">
        <ele>855.9</ele>
        <time>2019-08-14T09:56:30Z</time>
      </trkpt>
      <trkpt lat="40.9791920" lon="-4.7092030">
        <ele>855.9</ele>
        <time>2019-08-14T09:56:31Z</time>
      </trkpt>
      <trkpt lat="40.9792510" lon="-4.7092060">
        <ele>855.9</ele>
        <time>2019-08-14T09:56:32Z</time>
      </trkpt>
      <trkpt lat="40.9793100" lon="-4.7092060">
        <ele>855.9</ele>
        <time>2019-08-14T09:56:33Z</time>
      </trkpt>
      <trkpt lat="40.9793690" lon="-4.7092080">
        <ele>855.9</ele>
        <time>2019-08-14T09:56:34Z</time>
      </trkpt>
      <trkpt lat="40.9794290" lon="-4.7092100">
        <ele>855.9</ele>
        <time>2019-08-14T09:56:35Z</time>
      </trkpt>
      <trkpt lat="40.9794880" lon="-4.7092110">
        <ele>855.9</ele>
        <time>2019-08-14T09:56:36Z</time>
      </trkpt>
      <trkpt lat="40.9795490" lon="-4.7092120">
        <ele>855.9</ele>
        <time>2019-08-14T09:56:37Z</time>
      </trkpt>
      <trkpt lat="40.9796090" lon="-4.7092140">
        <ele>855.9</ele>
        <time>2019-08-14T09:56:38Z</time>
      </trkpt>
      <trkpt lat="40.9796690" lon="-4.7092170">
        <ele>855.8</ele>
        <time>2019-08-14T09:56:39Z</time>
      </trkpt>
      <trkpt lat="40.9797300" lon="-4.7092190">
        <ele>855.8</ele>
        <time>2019-08-14T09:56:40Z</time>
      </trkpt>
      <trkpt lat="40.9797890" lon="-4.7092220">
        <ele>855.8</ele>
        <time>2019-08-14T09:56:41Z</time>
      </trkpt>
      <trkpt lat="40.9798480" lon="-4.7092250">
        <ele>855.8</ele>
        <time>2019-08-14T09:56:42Z</time>
      </trkpt>
      <trkpt lat="40.9799050" lon="-4.7092260">
        <ele>855.9</ele>
        <time>2019-08-14T09:56:43Z</time>
      </trkpt>
      <trkpt lat="40.9799640" lon="-4.7092280">
        <ele>856.0</ele>
        <time>2019-08-14T09:56:44Z</time>
      </trkpt>
      <trkpt lat="40.9800240" lon="-4.7092300">
        <ele>856.1</ele>
        <time>2019-08-14T09:56:45Z</time>
      </trkpt>
      <trkpt lat="40.9800860" lon="-4.7092300">
        <ele>856.3</ele>
        <time>2019-08-14T09:56:46Z</time>
      </trkpt>
      <trkpt lat="40.9801490" lon="-4.7092320">
        <ele>856.5</ele>
        <time>2019-08-14T09:56:47Z</time>
      </trkpt>
      <trkpt lat="40.9802120" lon="-4.7092340">
        <ele>856.8</ele>
        <time>2019-08-14T09:56:48Z</time>
      </trkpt>
      <trkpt lat="40.9802770" lon="-4.7092370">
        <ele>856.6</ele>
        <time>2019-08-14T09:56:49Z</time>
      </trkpt>
      <trkpt lat="40.9803440" lon="-4.7092400">
        <ele>856.5</ele>
        <time>2019-08-14T09:56:50Z</time>
      </trkpt>
      <trkpt lat="40.9804080" lon="-4.7092420">
        <ele>856.5</ele>
        <time>2019-08-14T09:56:51Z</time>
      </trkpt>
      <trkpt lat="40.9804730" lon="-4.7092450">
        <ele>856.4</ele>
        <time>2019-08-14T09:56:52Z</time>
      </trkpt>
      <trkpt lat="40.9805370" lon="-4.7092510">
        <ele>856.2</ele>
        <time>2019-08-14T09:56:53Z</time>
      </trkpt>
      <trkpt lat="40.9805990" lon="-4.7092580">
        <ele>856.0</ele>
        <time>2019-08-14T09:56:54Z</time>
      </trkpt>
      <trkpt lat="40.9806600" lon="-4.7092640">
        <ele>855.8</ele>
        <time>2019-08-14T09:56:55Z</time>
      </trkpt>
      <trkpt lat="40.9807230" lon="-4.7092690">
        <ele>855.6</ele>
        <time>2019-08-14T09:56:56Z</time>
      </trkpt>
      <trkpt lat="40.9807840" lon="-4.7092740">
        <ele>855.5</ele>
        <time>2019-08-14T09:56:57Z</time>
      </trkpt>
      <trkpt lat="40.9808450" lon="-4.7092800">
        <ele>855.2</ele>
        <time>2019-08-14T09:56:58Z</time>
      </trkpt>
      <trkpt lat="40.9809060" lon="-4.7092870">
        <ele>855.0</ele>
        <time>2019-08-14T09:56:59Z</time>
      </trkpt>
      <trkpt lat="40.9809680" lon="-4.7092930">
        <ele>854.8</ele>
        <time>2019-08-14T09:57:00Z</time>
      </trkpt>
      <trkpt lat="40.9810290" lon="-4.7092980">
        <ele>854.5</ele>
        <time>2019-08-14T09:57:01Z</time>
      </trkpt>
      <trkpt lat="40.9810910" lon="-4.7093050">
        <ele>854.3</ele>
        <time>2019-08-14T09:57:02Z</time>
      </trkpt>
      <trkpt lat="40.9811520" lon="-4.7093110">
        <ele>854.1</ele>
        <time>2019-08-14T09:57:03Z</time>
      </trkpt>
      <trkpt lat="40.9812140" lon="-4.7093170">
        <ele>853.8</ele>
        <time>2019-08-14T09:57:04Z</time>
      </trkpt>
      <trkpt lat="40.9812750" lon="-4.7093210">
        <ele>853.7</ele>
        <time>2019-08-14T09:57:05Z</time>
      </trkpt>
      <trkpt lat="40.9813340" lon="-4.7093260">
        <ele>853.6</ele>
        <time>2019-08-14T09:57:06Z</time>
      </trkpt>
      <trkpt lat="40.9813930" lon="-4.7093320">
        <ele>853.5</ele>
        <time>2019-08-14T09:57:07Z</time>
      </trkpt>
      <trkpt lat="40.9814530" lon="-4.7093380">
        <ele>853.3</ele>
        <time>2019-08-14T09:57:08Z</time>
      </trkpt>
      <trkpt lat="40.9815150" lon="-4.7093450">
        <ele>853.2</ele>
        <time>2019-08-14T09:57:09Z</time>
      </trkpt>
      <trkpt lat="40.9815780" lon="-4.7093500">
        <ele>853.1</ele>
        <time>2019-08-14T09:57:10Z</time>
      </trkpt>
      <trkpt lat="40.9816420" lon="-4.7093560">
        <ele>853.0</ele>
        <time>2019-08-14T09:57:11Z</time>
      </trkpt>
      <trkpt lat="40.9817040" lon="-4.7093620">
        <ele>852.9</ele>
        <time>2019-08-14T09:57:12Z</time>
      </trkpt>
      <trkpt lat="40.9817670" lon="-4.7093670">
        <ele>852.7</ele>
        <time>2019-08-14T09:57:13Z</time>
      </trkpt>
      <trkpt lat="40.9818300" lon="-4.7093710">
        <ele>852.5</ele>
        <time>2019-08-14T09:57:14Z</time>
      </trkpt>
      <trkpt lat="40.9818930" lon="-4.7093760">
        <ele>852.3</ele>
        <time>2019-08-14T09:57:15Z</time>
      </trkpt>
      <trkpt lat="40.9819570" lon="-4.7093800">
        <ele>852.0</ele>
        <time>2019-08-14T09:57:16Z</time>
      </trkpt>
      <trkpt lat="40.9820200" lon="-4.7093840">
        <ele>851.7</ele>
        <time>2019-08-14T09:57:17Z</time>
      </trkpt>
      <trkpt lat="40.9820820" lon="-4.7093890">
        <ele>851.4</ele>
        <time>2019-08-14T09:57:18Z</time>
      </trkpt>
      <trkpt lat="40.9821440" lon="-4.7093940">
        <ele>851.2</ele>
        <time>2019-08-14T09:57:19Z</time>
      </trkpt>
      <trkpt lat="40.9822080" lon="-4.7093990">
        <ele>851.0</ele>
        <time>2019-08-14T09:57:20Z</time>
      </trkpt>
      <trkpt lat="40.9822710" lon="-4.7094040">
        <ele>850.8</ele>
        <time>2019-08-14T09:57:21Z</time>
      </trkpt>
      <trkpt lat="40.9823360" lon="-4.7094110">
        <ele>850.7</ele>
        <time>2019-08-14T09:57:22Z</time>
      </trkpt>
      <trkpt lat="40.9824000" lon="-4.7094180">
        <ele>850.7</ele>
        <time>2019-08-14T09:57:23Z</time>
      </trkpt>
      <trkpt lat="40.9824650" lon="-4.7094250">
        <ele>850.7</ele>
        <time>2019-08-14T09:57:24Z</time>
      </trkpt>
      <trkpt lat="40.9825290" lon="-4.7094330">
        <ele>850.7</ele>
        <time>2019-08-14T09:57:25Z</time>
      </trkpt>
      <trkpt lat="40.9825920" lon="-4.7094400">
        <ele>850.8</ele>
        <time>2019-08-14T09:57:26Z</time>
      </trkpt>
      <trkpt lat="40.9826550" lon="-4.7094450">
        <ele>850.9</ele>
        <time>2019-08-14T09:57:27Z</time>
      </trkpt>
      <trkpt lat="40.9827190" lon="-4.7094510">
        <ele>851.0</ele>
        <time>2019-08-14T09:57:28Z</time>
      </trkpt>
      <trkpt lat="40.9827830" lon="-4.7094570">
        <ele>851.2</ele>
        <time>2019-08-14T09:57:29Z</time>
      </trkpt>
      <trkpt lat="40.9828480" lon="-4.7094630">
        <ele>851.4</ele>
        <time>2019-08-14T09:57:30Z</time>
      </trkpt>
      <trkpt lat="40.9829140" lon="-4.7094710">
        <ele>851.5</ele>
        <time>2019-08-14T09:57:31Z</time>
      </trkpt>
      <trkpt lat="40.9829790" lon="-4.7094780">
        <ele>851.6</ele>
        <time>2019-08-14T09:57:32Z</time>
      </trkpt>
      <trkpt lat="40.9830420" lon="-4.7094870">
        <ele>851.7</ele>
        <time>2019-08-14T09:57:33Z</time>
      </trkpt>
      <trkpt lat="40.9831050" lon="-4.7094960">
        <ele>851.6</ele>
        <time>2019-08-14T09:57:34Z</time>
      </trkpt>
      <trkpt lat="40.9831680" lon="-4.7095040">
        <ele>851.6</ele>
        <time>2019-08-14T09:57:35Z</time>
      </trkpt>
      <trkpt lat="40.9832320" lon="-4.7095130">
        <ele>851.5</ele>
        <time>2019-08-14T09:57:36Z</time>
      </trkpt>
      <trkpt lat="40.9832960" lon="-4.7095240">
        <ele>851.3</ele>
        <time>2019-08-14T09:57:37Z</time>
      </trkpt>
      <trkpt lat="40.9833600" lon="-4.7095350">
        <ele>851.0</ele>
        <time>2019-08-14T09:57:38Z</time>
      </trkpt>
      <trkpt lat="40.9834240" lon="-4.7095470">
        <ele>850.8</ele>
        <time>2019-08-14T09:57:39Z</time>
      </trkpt>
      <trkpt lat="40.9834890" lon="-4.7095580">
        <ele>850.6</ele>
        <time>2019-08-14T09:57:40Z</time>
      </trkpt>
      <trkpt lat="40.9835560" lon="-4.7095680">
        <ele>850.4</ele>
        <time>2019-08-14T09:57:41Z</time>
      </trkpt>
      <trkpt lat="40.9836220" lon="-4.7095820">
        <ele>850.3</ele>
        <time>2019-08-14T09:57:42Z</time>
      </trkpt>
      <trkpt lat="40.9836870" lon="-4.7095950">
        <ele>850.3</ele>
        <time>2019-08-14T09:57:43Z</time>
      </trkpt>
      <trkpt lat="40.9837510" lon="-4.7096080">
        <ele>850.3</ele>
        <time>2019-08-14T09:57:44Z</time>
      </trkpt>
      <trkpt lat="40.9838160" lon="-4.7096200">
        <ele>850.3</ele>
        <time>2019-08-14T09:57:45Z</time>
      </trkpt>
      <trkpt lat="40.9838830" lon="-4.7096330">
        <ele>850.3</ele>
        <time>2019-08-14T09:57:46Z</time>
      </trkpt>
      <trkpt lat="40.9839490" lon="-4.7096480">
        <ele>850.3</ele>
        <time>2019-08-14T09:57:47Z</time>
      </trkpt>
      <trkpt lat="40.9840140" lon="-4.7096610">
        <ele>850.3</ele>
        <time>2019-08-14T09:57:48Z</time>
      </trkpt>
      <trkpt lat="40.9840780" lon="-4.7096720">
        <ele>850.3</ele>
        <time>2019-08-14T09:57:49Z</time>
      </trkpt>
      <trkpt lat="40.9841420" lon="-4.7096850">
        <ele>850.3</ele>
        <time>2019-08-14T09:57:50Z</time>
      </trkpt>
      <trkpt lat="40.9842060" lon="-4.7096960">
        <ele>850.2</ele>
        <time>2019-08-14T09:57:51Z</time>
      </trkpt>
      <trkpt lat="40.9842720" lon="-4.7097100">
        <ele>850.1</ele>
        <time>2019-08-14T09:57:52Z</time>
      </trkpt>
      <trkpt lat="40.9843390" lon="-4.7097260">
        <ele>850.0</ele>
        <time>2019-08-14T09:57:53Z</time>
      </trkpt>
      <trkpt lat="40.9844040" lon="-4.7097420">
        <ele>850.0</ele>
        <time>2019-08-14T09:57:54Z</time>
      </trkpt>
      <trkpt lat="40.9844700" lon="-4.7097560">
        <ele>850.0</ele>
        <time>2019-08-14T09:57:55Z</time>
      </trkpt>
      <trkpt lat="40.9845350" lon="-4.7097710">
        <ele>850.1</ele>
        <time>2019-08-14T09:57:56Z</time>
      </trkpt>
      <trkpt lat="40.9846010" lon="-4.7097850">
        <ele>850.3</ele>
        <time>2019-08-14T09:57:57Z</time>
      </trkpt>
      <trkpt lat="40.9846660" lon="-4.7098000">
        <ele>850.5</ele>
        <time>2019-08-14T09:57:58Z</time>
      </trkpt>
      <trkpt lat="40.9847320" lon="-4.7098150">
        <ele>850.8</ele>
        <time>2019-08-14T09:57:59Z</time>
      </trkpt>
      <trkpt lat="40.9847970" lon="-4.7098290">
        <ele>850.9</ele>
        <time>2019-08-14T09:58:00Z</time>
      </trkpt>
      <trkpt lat="40.9848630" lon="-4.7098440">
        <ele>851.1</ele>
        <time>2019-08-14T09:58:01Z</time>
      </trkpt>
      <trkpt lat="40.9849280" lon="-4.7098590">
        <ele>851.2</ele>
        <time>2019-08-14T09:58:02Z</time>
      </trkpt>
      <trkpt lat="40.9849930" lon="-4.7098740">
        <ele>851.2</ele>
        <time>2019-08-14T09:58:03Z</time>
      </trkpt>
      <trkpt lat="40.9850570" lon="-4.7098900">
        <ele>851.1</ele>
        <time>2019-08-14T09:58:04Z</time>
      </trkpt>
      <trkpt lat="40.9851200" lon="-4.7099030">
        <ele>851.0</ele>
        <time>2019-08-14T09:58:05Z</time>
      </trkpt>
      <trkpt lat="40.9851840" lon="-4.7099170">
        <ele>850.9</ele>
        <time>2019-08-14T09:58:06Z</time>
      </trkpt>
      <trkpt lat="40.9852480" lon="-4.7099320">
        <ele>850.7</ele>
        <time>2019-08-14T09:58:07Z</time>
      </trkpt>
      <trkpt lat="40.9853110" lon="-4.7099460">
        <ele>850.5</ele>
        <time>2019-08-14T09:58:08Z</time>
      </trkpt>
      <trkpt lat="40.9853750" lon="-4.7099600">
        <ele>850.4</ele>
        <time>2019-08-14T09:58:09Z</time>
      </trkpt>
      <trkpt lat="40.9854400" lon="-4.7099730">
        <ele>850.3</ele>
        <time>2019-08-14T09:58:10Z</time>
      </trkpt>
      <trkpt lat="40.9855030" lon="-4.7099900">
        <ele>850.2</ele>
        <time>2019-08-14T09:58:11Z</time>
      </trkpt>
      <trkpt lat="40.9855670" lon="-4.7100050">
        <ele>850.2</ele>
        <time>2019-08-14T09:58:12Z</time>
      </trkpt>
      <trkpt lat="40.9856310" lon="-4.7100210">
        <ele>850.2</ele>
        <time>2019-08-14T09:58:13Z</time>
      </trkpt>
      <trkpt lat="40.9856960" lon="-4.7100350">
        <ele>850.3</ele>
        <time>2019-08-14T09:58:14Z</time>
      </trkpt>
      <trkpt lat="40.9857610" lon="-4.7100500">
        <ele>850.4</ele>
        <time>2019-08-14T09:58:15Z</time>
      </trkpt>
      <trkpt lat="40.9858270" lon="-4.7100650">
        <ele>850.5</ele>
        <time>2019-08-14T09:58:16Z</time>
      </trkpt>
      <trkpt lat="40.9858920" lon="-4.7100800">
        <ele>850.5</ele>
        <time>2019-08-14T09:58:17Z</time>
      </trkpt>
      <trkpt lat="40.9859560" lon="-4.7100950">
        <ele>850.6</ele>
        <time>2019-08-14T09:58:18Z</time>
      </trkpt>
      <trkpt lat="40.9860200" lon="-4.7101080">
        <ele>850.7</ele>
        <time>2019-08-14T09:58:19Z</time>
      </trkpt>
      <trkpt lat="40.9860830" lon="-4.7101210">
        <ele>850.8</ele>
        <time>2019-08-14T09:58:20Z</time>
      </trkpt>
      <trkpt lat="40.9861470" lon="-4.7101340">
        <ele>850.9</ele>
        <time>2019-08-14T09:58:21Z</time>
      </trkpt>
      <trkpt lat="40.9862120" lon="-4.7101470">
        <ele>851.0</ele>
        <time>2019-08-14T09:58:22Z</time>
      </trkpt>
      <trkpt lat="40.9862770" lon="-4.7101610">
        <ele>851.0</ele>
        <time>2019-08-14T09:58:23Z</time>
      </trkpt>
      <trkpt lat="40.9863430" lon="-4.7101750">
        <ele>851.0</ele>
        <time>2019-08-14T09:58:24Z</time>
      </trkpt>
      <trkpt lat="40.9864090" lon="-4.7101880">
        <ele>851.0</ele>
        <time>2019-08-14T09:58:25Z</time>
      </trkpt>
      <trkpt lat="40.9864740" lon="-4.7101990">
        <ele>850.9</ele>
        <time>2019-08-14T09:58:26Z</time>
      </trkpt>
      <trkpt lat="40.9865390" lon="-4.7102080">
        <ele>850.7</ele>
        <time>2019-08-14T09:58:27Z</time>
      </trkpt>
      <trkpt lat="40.9866050" lon="-4.7102170">
        <ele>850.5</ele>
        <time>2019-08-14T09:58:28Z</time>
      </trkpt>
      <trkpt lat="40.9866700" lon="-4.7102250">
        <ele>850.4</ele>
        <time>2019-08-14T09:58:29Z</time>
      </trkpt>
      <trkpt lat="40.9867360" lon="-4.7102330">
        <ele>850.2</ele>
        <time>2019-08-14T09:58:30Z</time>
      </trkpt>
      <trkpt lat="40.9868030" lon="-4.7102390">
        <ele>850.1</ele>
        <time>2019-08-14T09:58:31Z</time>
      </trkpt>
      <trkpt lat="40.9868700" lon="-4.7102440">
        <ele>850.0</ele>
        <time>2019-08-14T09:58:32Z</time>
      </trkpt>
      <trkpt lat="40.9869380" lon="-4.7102460">
        <ele>850.0</ele>
        <time>2019-08-14T09:58:33Z</time>
      </trkpt>
      <trkpt lat="40.9870030" lon="-4.7102450">
        <ele>849.9</ele>
        <time>2019-08-14T09:58:34Z</time>
      </trkpt>
      <trkpt lat="40.9870660" lon="-4.7102410">
        <ele>849.9</ele>
        <time>2019-08-14T09:58:35Z</time>
      </trkpt>
      <trkpt lat="40.9871280" lon="-4.7102380">
        <ele>849.9</ele>
        <time>2019-08-14T09:58:36Z</time>
      </trkpt>
      <trkpt lat="40.9871910" lon="-4.7102340">
        <ele>849.8</ele>
        <time>2019-08-14T09:58:37Z</time>
      </trkpt>
      <trkpt lat="40.9872530" lon="-4.7102300">
        <ele>849.8</ele>
        <time>2019-08-14T09:58:38Z</time>
      </trkpt>
      <trkpt lat="40.9873150" lon="-4.7102260">
        <ele>849.7</ele>
        <time>2019-08-14T09:58:39Z</time>
      </trkpt>
      <trkpt lat="40.9873760" lon="-4.7102220">
        <ele>849.6</ele>
        <time>2019-08-14T09:58:40Z</time>
      </trkpt>
      <trkpt lat="40.9874370" lon="-4.7102160">
        <ele>849.5</ele>
        <time>2019-08-14T09:58:41Z</time>
      </trkpt>
      <trkpt lat="40.9874990" lon="-4.7102090">
        <ele>849.5</ele>
        <time>2019-08-14T09:58:42Z</time>
      </trkpt>
      <trkpt lat="40.9875590" lon="-4.7102020">
        <ele>849.4</ele>
        <time>2019-08-14T09:58:43Z</time>
      </trkpt>
      <trkpt lat="40.9876190" lon="-4.7101940">
        <ele>849.4</ele>
        <time>2019-08-14T09:58:44Z</time>
      </trkpt>
      <trkpt lat="40.9876800" lon="-4.7101850">
        <ele>849.4</ele>
        <time>2019-08-14T09:58:45Z</time>
      </trkpt>
      <trkpt lat="40.9877400" lon="-4.7101780">
        <ele>849.4</ele>
        <time>2019-08-14T09:58:46Z</time>
      </trkpt>
      <trkpt lat="40.9877990" lon="-4.7101710">
        <ele>849.4</ele>
        <time>2019-08-14T09:58:47Z</time>
      </trkpt>
      <trkpt lat="40.9878580" lon="-4.7101640">
        <ele>849.4</ele>
        <time>2019-08-14T09:58:48Z</time>
      </trkpt>
      <trkpt lat="40.9879180" lon="-4.7101570">
        <ele>849.4</ele>
        <time>2019-08-14T09:58:49Z</time>
      </trkpt>
      <trkpt lat="40.9879800" lon="-4.7101510">
        <ele>849.4</ele>
        <time>2019-08-14T09:58:50Z</time>
      </trkpt>
      <trkpt lat="40.9880400" lon="-4.7101460">
        <ele>849.5</ele>
        <time>2019-08-14T09:58:51Z</time>
      </trkpt>
      <trkpt lat="40.9880980" lon="-4.7101410">
        <ele>849.5</ele>
        <time>2019-08-14T09:58:52Z</time>
      </trkpt>
      <trkpt lat="40.9881550" lon="-4.7101350">
        <ele>849.5</ele>
        <time>2019-08-14T09:58:53Z</time>
      </trkpt>
      <trkpt lat="40.9882100" lon="-4.7101290">
        <ele>849.5</ele>
        <time>2019-08-14T09:58:54Z</time>
      </trkpt>
      <trkpt lat="40.9882660" lon="-4.7101210">
        <ele>849.5</ele>
        <time>2019-08-14T09:58:55Z</time>
      </trkpt>
      <trkpt lat="40.9883230" lon="-4.7101150">
        <ele>849.5</ele>
        <time>2019-08-14T09:58:56Z</time>
      </trkpt>
      <trkpt lat="40.9883790" lon="-4.7101090">
        <ele>849.5</ele>
        <time>2019-08-14T09:58:57Z</time>
      </trkpt>
      <trkpt lat="40.9884370" lon="-4.7101040">
        <ele>849.4</ele>
        <time>2019-08-14T09:58:58Z</time>
      </trkpt>
      <trkpt lat="40.9884940" lon="-4.7100970">
        <ele>849.3</ele>
        <time>2019-08-14T09:58:59Z</time>
      </trkpt>
      <trkpt lat="40.9885490" lon="-4.7100900">
        <ele>849.2</ele>
        <time>2019-08-14T09:59:00Z</time>
      </trkpt>
      <trkpt lat="40.9886040" lon="-4.7100830">
        <ele>849.1</ele>
        <time>2019-08-14T09:59:01Z</time>
      </trkpt>
      <trkpt lat="40.9886610" lon="-4.7100770">
        <ele>848.9</ele>
        <time>2019-08-14T09:59:02Z</time>
      </trkpt>
      <trkpt lat="40.9887190" lon="-4.7100720">
        <ele>848.8</ele>
        <time>2019-08-14T09:59:03Z</time>
      </trkpt>
      <trkpt lat="40.9887780" lon="-4.7100670">
        <ele>848.7</ele>
        <time>2019-08-14T09:59:04Z</time>
      </trkpt>
      <trkpt lat="40.9888400" lon="-4.7100610">
        <ele>848.6</ele>
        <time>2019-08-14T09:59:05Z</time>
      </trkpt>
      <trkpt lat="40.9889010" lon="-4.7100540">
        <ele>848.4</ele>
        <time>2019-08-14T09:59:06Z</time>
      </trkpt>
      <trkpt lat="40.9889610" lon="-4.7100470">
        <ele>848.3</ele>
        <time>2019-08-14T09:59:07Z</time>
      </trkpt>
      <trkpt lat="40.9890220" lon="-4.7100400">
        <ele>848.2</ele>
        <time>2019-08-14T09:59:08Z</time>
      </trkpt>
      <trkpt lat="40.9890840" lon="-4.7100330">
        <ele>848.1</ele>
        <time>2019-08-14T09:59:09Z</time>
      </trkpt>
      <trkpt lat="40.9891450" lon="-4.7100270">
        <ele>848.0</ele>
        <time>2019-08-14T09:59:10Z</time>
      </trkpt>
      <trkpt lat="40.9892050" lon="-4.7100190">
        <ele>847.9</ele>
        <time>2019-08-14T09:59:11Z</time>
      </trkpt>
      <trkpt lat="40.9892640" lon="-4.7100120">
        <ele>847.9</ele>
        <time>2019-08-14T09:59:12Z</time>
      </trkpt>
      <trkpt lat="40.9893240" lon="-4.7100060">
        <ele>847.8</ele>
        <time>2019-08-14T09:59:13Z</time>
      </trkpt>
      <trkpt lat="40.9893840" lon="-4.7099990">
        <ele>847.7</ele>
        <time>2019-08-14T09:59:14Z</time>
      </trkpt>
      <trkpt lat="40.9894430" lon="-4.7099920">
        <ele>847.7</ele>
        <time>2019-08-14T09:59:15Z</time>
      </trkpt>
      <trkpt lat="40.9895030" lon="-4.7099840">
        <ele>847.6</ele>
        <time>2019-08-14T09:59:16Z</time>
      </trkpt>
      <trkpt lat="40.9895640" lon="-4.7099770">
        <ele>847.6</ele>
        <time>2019-08-14T09:59:17Z</time>
      </trkpt>
      <trkpt lat="40.9896240" lon="-4.7099710">
        <ele>847.7</ele>
        <time>2019-08-14T09:59:18Z</time>
      </trkpt>
      <trkpt lat="40.9896840" lon="-4.7099630">
        <ele>847.7</ele>
        <time>2019-08-14T09:59:19Z</time>
      </trkpt>
      <trkpt lat="40.9897450" lon="-4.7099550">
        <ele>847.9</ele>
        <time>2019-08-14T09:59:20Z</time>
      </trkpt>
      <trkpt lat="40.9898060" lon="-4.7099480">
        <ele>847.6</ele>
        <time>2019-08-14T09:59:21Z</time>
      </trkpt>
      <trkpt lat="40.9898680" lon="-4.7099420">
        <ele>847.4</ele>
        <time>2019-08-14T09:59:22Z</time>
      </trkpt>
      <trkpt lat="40.9899320" lon="-4.7099360">
        <ele>847.2</ele>
        <time>2019-08-14T09:59:23Z</time>
      </trkpt>
      <trkpt lat="40.9899950" lon="-4.7099300">
        <ele>846.9</ele>
        <time>2019-08-14T09:59:24Z</time>
      </trkpt>
      <trkpt lat="40.9900590" lon="-4.7099250">
        <ele>846.7</ele>
        <time>2019-08-14T09:59:25Z</time>
      </trkpt>
      <trkpt lat="40.9901240" lon="-4.7099200">
        <ele>846.5</ele>
        <time>2019-08-14T09:59:26Z</time>
      </trkpt>
      <trkpt lat="40.9901880" lon="-4.7099150">
        <ele>846.3</ele>
        <time>2019-08-14T09:59:27Z</time>
      </trkpt>
      <trkpt lat="40.9902500" lon="-4.7099120">
        <ele>846.2</ele>
        <time>2019-08-14T09:59:28Z</time>
      </trkpt>
      <trkpt lat="40.9903120" lon="-4.7099090">
        <ele>846.1</ele>
        <time>2019-08-14T09:59:29Z</time>
      </trkpt>
      <trkpt lat="40.9903740" lon="-4.7099050">
        <ele>846.0</ele>
        <time>2019-08-14T09:59:30Z</time>
      </trkpt>
      <trkpt lat="40.9904360" lon="-4.7099010">
        <ele>846.0</ele>
        <time>2019-08-14T09:59:31Z</time>
      </trkpt>
      <trkpt lat="40.9904970" lon="-4.7098990">
        <ele>846.0</ele>
        <time>2019-08-14T09:59:32Z</time>
      </trkpt>
      <trkpt lat="40.9905580" lon="-4.7098990">
        <ele>846.0</ele>
        <time>2019-08-14T09:59:33Z</time>
      </trkpt>
      <trkpt lat="40.9906160" lon="-4.7099010">
        <ele>846.0</ele>
        <time>2019-08-14T09:59:34Z</time>
      </trkpt>
      <trkpt lat="40.9906740" lon="-4.7099030">
        <ele>846.0</ele>
        <time>2019-08-14T09:59:35Z</time>
      </trkpt>
      <trkpt lat="40.9907330" lon="-4.7099040">
        <ele>846.1</ele>
        <time>2019-08-14T09:59:36Z</time>
      </trkpt>
      <trkpt lat="40.9907920" lon="-4.7099060">
        <ele>846.1</ele>
        <time>2019-08-14T09:59:37Z</time>
      </trkpt>
      <trkpt lat="40.9908530" lon="-4.7099080">
        <ele>846.2</ele>
        <time>2019-08-14T09:59:38Z</time>
      </trkpt>
      <trkpt lat="40.9909150" lon="-4.7099110">
        <ele>846.2</ele>
        <time>2019-08-14T09:59:39Z</time>
      </trkpt>
      <trkpt lat="40.9909790" lon="-4.7099180">
        <ele>846.3</ele>
        <time>2019-08-14T09:59:40Z</time>
      </trkpt>
      <trkpt lat="40.9910440" lon="-4.7099240">
        <ele>846.3</ele>
        <time>2019-08-14T09:59:41Z</time>
      </trkpt>
      <trkpt lat="40.9911120" lon="-4.7099310">
        <ele>846.3</ele>
        <time>2019-08-14T09:59:42Z</time>
      </trkpt>
      <trkpt lat="40.9911770" lon="-4.7099360">
        <ele>846.2</ele>
        <time>2019-08-14T09:59:43Z</time>
      </trkpt>
      <trkpt lat="40.9912430" lon="-4.7099410">
        <ele>846.2</ele>
        <time>2019-08-14T09:59:44Z</time>
      </trkpt>
      <trkpt lat="40.9913080" lon="-4.7099430">
        <ele>846.1</ele>
        <time>2019-08-14T09:59:45Z</time>
      </trkpt>
      <trkpt lat="40.9913700" lon="-4.7099460">
        <ele>846.1</ele>
        <time>2019-08-14T09:59:46Z</time>
      </trkpt>
      <trkpt lat="40.9914310" lon="-4.7099530">
        <ele>846.1</ele>
        <time>2019-08-14T09:59:47Z</time>
      </trkpt>
      <trkpt lat="40.9914910" lon="-4.7099590">
        <ele>846.1</ele>
        <time>2019-08-14T09:59:48Z</time>
      </trkpt>
      <trkpt lat="40.9915490" lon="-4.7099650">
        <ele>846.1</ele>
        <time>2019-08-14T09:59:49Z</time>
      </trkpt>
      <trkpt lat="40.9916070" lon="-4.7099700">
        <ele>846.1</ele>
        <time>2019-08-14T09:59:50Z</time>
      </trkpt>
      <trkpt lat="40.9916650" lon="-4.7099770">
        <ele>846.2</ele>
        <time>2019-08-14T09:59:51Z</time>
      </trkpt>
      <trkpt lat="40.9917220" lon="-4.7099830">
        <ele>846.3</ele>
        <time>2019-08-14T09:59:52Z</time>
      </trkpt>
      <trkpt lat="40.9917800" lon="-4.7099890">
        <ele>846.4</ele>
        <time>2019-08-14T09:59:53Z</time>
      </trkpt>
      <trkpt lat="40.9918380" lon="-4.7099950">
        <ele>846.5</ele>
        <time>2019-08-14T09:59:54Z</time>
      </trkpt>
      <trkpt lat="40.9918950" lon="-4.7100020">
        <ele>846.7</ele>
        <time>2019-08-14T09:59:55Z</time>
      </trkpt>
      <trkpt lat="40.9919530" lon="-4.7100080">
        <ele>846.8</ele>
        <time>2019-08-14T09:59:56Z</time>
      </trkpt>
      <trkpt lat="40.9920090" lon="-4.7100150">
        <ele>847.0</ele>
        <time>2019-08-14T09:59:57Z</time>
      </trkpt>
      <trkpt lat="40.9920670" lon="-4.7100200">
        <ele>847.2</ele>
        <time>2019-08-14T09:59:58Z</time>
      </trkpt>
      <trkpt lat="40.9921240" lon="-4.7100270">
        <ele>847.5</ele>
        <time>2019-08-14T09:59:59Z</time>
      </trkpt>
      <trkpt lat="40.9921810" lon="-4.7100330">
        <ele>847.7</ele>
        <time>2019-08-14T10:00:00Z</time>
      </trkpt>
      <trkpt lat="40.9922380" lon="-4.7100390">
        <ele>848.0</ele>
        <time>2019-08-14T10:00:01Z</time>
      </trkpt>
      <trkpt lat="40.9922930" lon="-4.7100460">
        <ele>848.2</ele>
        <time>2019-08-14T10:00:02Z</time>
      </trkpt>
      <trkpt lat="40.9923490" lon="-4.7100520">
        <ele>848.4</ele>
        <time>2019-08-14T10:00:03Z</time>
      </trkpt>
      <trkpt lat="40.9924040" lon="-4.7100590">
        <ele>848.7</ele>
        <time>2019-08-14T10:00:04Z</time>
      </trkpt>
      <trkpt lat="40.9924580" lon="-4.7100640">
        <ele>848.8</ele>
        <time>2019-08-14T10:00:05Z</time>
      </trkpt>
      <trkpt lat="40.9925130" lon="-4.7100690">
        <ele>849.0</ele>
        <time>2019-08-14T10:00:06Z</time>
      </trkpt>
      <trkpt lat="40.9925670" lon="-4.7100750">
        <ele>849.1</ele>
        <time>2019-08-14T10:00:07Z</time>
      </trkpt>
      <trkpt lat="40.9926210" lon="-4.7100810">
        <ele>849.1</ele>
        <time>2019-08-14T10:00:08Z</time>
      </trkpt>
      <trkpt lat="40.9926750" lon="-4.7100860">
        <ele>849.2</ele>
        <time>2019-08-14T10:00:09Z</time>
      </trkpt>
      <trkpt lat="40.9927290" lon="-4.7100930">
        <ele>849.2</ele>
        <time>2019-08-14T10:00:10Z</time>
      </trkpt>
      <trkpt lat="40.9927830" lon="-4.7101000">
        <ele>849.3</ele>
        <time>2019-08-14T10:00:11Z</time>
      </trkpt>
      <trkpt lat="40.9928370" lon="-4.7101060">
        <ele>849.3</ele>
        <time>2019-08-14T10:00:12Z</time>
      </trkpt>
      <trkpt lat="40.9928900" lon="-4.7101100">
        <ele>849.3</ele>
        <time>2019-08-14T10:00:13Z</time>
      </trkpt>
      <trkpt lat="40.9929430" lon="-4.7101150">
        <ele>849.3</ele>
        <time>2019-08-14T10:00:14Z</time>
      </trkpt>
      <trkpt lat="40.9929960" lon="-4.7101220">
        <ele>849.3</ele>
        <time>2019-08-14T10:00:15Z</time>
      </trkpt>
      <trkpt lat="40.9930470" lon="-4.7101280">
        <ele>849.3</ele>
        <time>2019-08-14T10:00:16Z</time>
      </trkpt>
      <trkpt lat="40.9930990" lon="-4.7101340">
        <ele>849.2</ele>
        <time>2019-08-14T10:00:17Z</time>
      </trkpt>
      <trkpt lat="40.9931500" lon="-4.7101390">
        <ele>849.2</ele>
        <time>2019-08-14T10:00:18Z</time>
      </trkpt>
      <trkpt lat="40.9932010" lon="-4.7101430">
        <ele>849.1</ele>
        <time>2019-08-14T10:00:19Z</time>
      </trkpt>
      <trkpt lat="40.9932520" lon="-4.7101480">
        <ele>849.1</ele>
        <time>2019-08-14T10:00:20Z</time>
      </trkpt>
      <trkpt lat="40.9933030" lon="-4.7101540">
        <ele>849.0</ele>
        <time>2019-08-14T10:00:21Z</time>
      </trkpt>
      <trkpt lat="40.9933540" lon="-4.7101600">
        <ele>849.0</ele>
        <time>2019-08-14T10:00:22Z</time>
      </trkpt>
      <trkpt lat="40.9934050" lon="-4.7101670">
        <ele>849.0</ele>
        <time>2019-08-14T10:00:23Z</time>
      </trkpt>
      <trkpt lat="40.9934570" lon="-4.7101710">
        <ele>848.9</ele>
        <time>2019-08-14T10:00:24Z</time>
      </trkpt>
      <trkpt lat="40.9935080" lon="-4.7101770">
        <ele>848.9</ele>
        <time>2019-08-14T10:00:25Z</time>
      </trkpt>
      <trkpt lat="40.9935600" lon="-4.7101830">
        <ele>848.9</ele>
        <time>2019-08-14T10:00:26Z</time>
      </trkpt>
      <trkpt lat="40.9936120" lon="-4.7101900">
        <ele>849.0</ele>
        <time>2019-08-14T10:00:27Z</time>
      </trkpt>
      <trkpt lat="40.9936650" lon="-4.7101970">
        <ele>849.0</ele>
        <time>2019-08-14T10:00:28Z</time>
      </trkpt>
      <trkpt lat="40.9937200" lon="-4.7102060">
        <ele>849.1</ele>
        <time>2019-08-14T10:00:29Z</time>
      </trkpt>
      <trkpt lat="40.9937760" lon="-4.7102140">
        <ele>849.1</ele>
        <time>2019-08-14T10:00:30Z</time>
      </trkpt>
      <trkpt lat="40.9938340" lon="-4.7102220">
        <ele>849.1</ele>
        <time>2019-08-14T10:00:31Z</time>
      </trkpt>
      <trkpt lat="40.9938910" lon="-4.7102310">
        <ele>849.1</ele>
        <time>2019-08-14T10:00:32Z</time>
      </trkpt>
      <trkpt lat="40.9939470" lon="-4.7102410">
        <ele>849.0</ele>
        <time>2019-08-14T10:00:33Z</time>
      </trkpt>
      <trkpt lat="40.9940040" lon="-4.7102500">
        <ele>848.9</ele>
        <time>2019-08-14T10:00:34Z</time>
      </trkpt>
      <trkpt lat="40.9940590" lon="-4.7102600">
        <ele>848.8</ele>
        <time>2019-08-14T10:00:35Z</time>
      </trkpt>
      <trkpt lat="40.9941130" lon="-4.7102690">
        <ele>848.5</ele>
        <time>2019-08-14T10:00:36Z</time>
      </trkpt>
      <trkpt lat="40.9941670" lon="-4.7102790">
        <ele>848.3</ele>
        <time>2019-08-14T10:00:37Z</time>
      </trkpt>
      <trkpt lat="40.9942220" lon="-4.7102870">
        <ele>848.0</ele>
        <time>2019-08-14T10:00:38Z</time>
      </trkpt>
      <trkpt lat="40.9942800" lon="-4.7102950">
        <ele>847.7</ele>
        <time>2019-08-14T10:00:39Z</time>
      </trkpt>
      <trkpt lat="40.9943390" lon="-4.7103050">
        <ele>847.4</ele>
        <time>2019-08-14T10:00:40Z</time>
      </trkpt>
      <trkpt lat="40.9943990" lon="-4.7103160">
        <ele>847.1</ele>
        <time>2019-08-14T10:00:41Z</time>
      </trkpt>
      <trkpt lat="40.9944590" lon="-4.7103250">
        <ele>846.8</ele>
        <time>2019-08-14T10:00:42Z</time>
      </trkpt>
      <trkpt lat="40.9945200" lon="-4.7103350">
        <ele>846.5</ele>
        <time>2019-08-14T10:00:43Z</time>
      </trkpt>
      <trkpt lat="40.9945810" lon="-4.7103430">
        <ele>846.1</ele>
        <time>2019-08-14T10:00:44Z</time>
      </trkpt>
      <trkpt lat="40.9946420" lon="-4.7103520">
        <ele>845.8</ele>
        <time>2019-08-14T10:00:45Z</time>
      </trkpt>
      <trkpt lat="40.9947020" lon="-4.7103620">
        <ele>845.6</ele>
        <time>2019-08-14T10:00:46Z</time>
      </trkpt>
      <trkpt lat="40.9947600" lon="-4.7103720">
        <ele>845.3</ele>
        <time>2019-08-14T10:00:47Z</time>
      </trkpt>
      <trkpt lat="40.9948180" lon="-4.7103810">
        <ele>845.1</ele>
        <time>2019-08-14T10:00:48Z</time>
      </trkpt>
      <trkpt lat="40.9948760" lon="-4.7103910">
        <ele>844.8</ele>
        <time>2019-08-14T10:00:49Z</time>
      </trkpt>
      <trkpt lat="40.9949360" lon="-4.7104010">
        <ele>844.9</ele>
        <time>2019-08-14T10:00:50Z</time>
      </trkpt>
      <trkpt lat="40.9949950" lon="-4.7104110">
        <ele>845.0</ele>
        <time>2019-08-14T10:00:51Z</time>
      </trkpt>
      <trkpt lat="40.9950550" lon="-4.7104210">
        <ele>845.1</ele>
        <time>2019-08-14T10:00:52Z</time>
      </trkpt>
      <trkpt lat="40.9951160" lon="-4.7104310">
        <ele>845.2</ele>
        <time>2019-08-14T10:00:53Z</time>
      </trkpt>
      <trkpt lat="40.9951780" lon="-4.7104400">
        <ele>845.3</ele>
        <time>2019-08-14T10:00:54Z</time>
      </trkpt>
      <trkpt lat="40.9952390" lon="-4.7104500">
        <ele>845.4</ele>
        <time>2019-08-14T10:00:55Z</time>
      </trkpt>
      <trkpt lat="40.9952990" lon="-4.7104600">
        <ele>845.4</ele>
        <time>2019-08-14T10:00:56Z</time>
      </trkpt>
      <trkpt lat="40.9953580" lon="-4.7104710">
        <ele>845.4</ele>
        <time>2019-08-14T10:00:57Z</time>
      </trkpt>
      <trkpt lat="40.9954170" lon="-4.7104820">
        <ele>845.5</ele>
        <time>2019-08-14T10:00:58Z</time>
      </trkpt>
      <trkpt lat="40.9954750" lon="-4.7104930">
        <ele>845.5</ele>
        <time>2019-08-14T10:00:59Z</time>
      </trkpt>
      <trkpt lat="40.9955350" lon="-4.7105010">
        <ele>845.5</ele>
        <time>2019-08-14T10:01:00Z</time>
      </trkpt>
      <trkpt lat="40.9955940" lon="-4.7105110">
        <ele>845.5</ele>
        <time>2019-08-14T10:01:01Z</time>
      </trkpt>
      <trkpt lat="40.9956530" lon="-4.7105190">
        <ele>845.5</ele>
        <time>2019-08-14T10:01:02Z</time>
      </trkpt>
      <trkpt lat="40.9957110" lon="-4.7105280">
        <ele>845.4</ele>
        <time>2019-08-14T10:01:03Z</time>
      </trkpt>
      <trkpt lat="40.9957710" lon="-4.7105380">
        <ele>845.4</ele>
        <time>2019-08-14T10:01:04Z</time>
      </trkpt>
      <trkpt lat="40.9958310" lon="-4.7105470">
        <ele>845.3</ele>
        <time>2019-08-14T10:01:05Z</time>
      </trkpt>
      <trkpt lat="40.9958910" lon="-4.7105570">
        <ele>845.2</ele>
        <time>2019-08-14T10:01:06Z</time>
      </trkpt>
      <trkpt lat="40.9959510" lon="-4.7105680">
        <ele>845.0</ele>
        <time>2019-08-14T10:01:07Z</time>
      </trkpt>
      <trkpt lat="40.9960120" lon="-4.7105770">
        <ele>844.9</ele>
        <time>2019-08-14T10:01:08Z</time>
      </trkpt>
      <trkpt lat="40.9960720" lon="-4.7105850">
        <ele>844.8</ele>
        <time>2019-08-14T10:01:09Z</time>
      </trkpt>
      <trkpt lat="40.9961330" lon="-4.7105920">
        <ele>844.7</ele>
        <time>2019-08-14T10:01:10Z</time>
      </trkpt>
      <trkpt lat="40.9961930" lon="-4.7106010">
        <ele>844.7</ele>
        <time>2019-08-14T10:01:11Z</time>
      </trkpt>
      <trkpt lat="40.9962530" lon="-4.7106110">
        <ele>844.7</ele>
        <time>2019-08-14T10:01:12Z</time>
      </trkpt>
      <trkpt lat="40.9963130" lon="-4.7106220">
        <ele>844.7</ele>
        <time>2019-08-14T10:01:13Z</time>
      </trkpt>
      <trkpt lat="40.9963730" lon="-4.7106320">
        <ele>844.7</ele>
        <time>2019-08-14T10:01:14Z</time>
      </trkpt>
      <trkpt lat="40.9964340" lon="-4.7106430">
        <ele>844.7</ele>
        <time>2019-08-14T10:01:15Z</time>
      </trkpt>
      <trkpt lat="40.9964940" lon="-4.7106520">
        <ele>844.7</ele>
        <time>2019-08-14T10:01:16Z</time>
      </trkpt>
      <trkpt lat="40.9965550" lon="-4.7106620">
        <ele>844.7</ele>
        <time>2019-08-14T10:01:17Z</time>
      </trkpt>
      <trkpt lat="40.9966170" lon="-4.7106730">
        <ele>844.7</ele>
        <time>2019-08-14T10:01:18Z</time>
      </trkpt>
      <trkpt lat="40.9966790" lon="-4.7106830">
        <ele>844.7</ele>
        <time>2019-08-14T10:01:19Z</time>
      </trkpt>
      <trkpt lat="40.9967410" lon="-4.7106920">
        <ele>844.7</ele>
        <time>2019-08-14T10:01:20Z</time>
      </trkpt>
      <trkpt lat="40.9968040" lon="-4.7107020">
        <ele>844.6</ele>
        <time>2019-08-14T10:01:21Z</time>
      </trkpt>
      <trkpt lat="40.9968650" lon="-4.7107140">
        <ele>844.6</ele>
        <time>2019-08-14T10:01:22Z</time>
      </trkpt>
      <trkpt lat="40.9969280" lon="-4.7107250">
        <ele>844.5</ele>
        <time>2019-08-14T10:01:23Z</time>
      </trkpt>
      <trkpt lat="40.9969910" lon="-4.7107340">
        <ele>844.5</ele>
        <time>2019-08-14T10:01:24Z</time>
      </trkpt>
      <trkpt lat="40.9970540" lon="-4.7107440">
        <ele>844.5</ele>
        <time>2019-08-14T10:01:25Z</time>
      </trkpt>
      <trkpt lat="40.9971180" lon="-4.7107550">
        <ele>844.6</ele>
        <time>2019-08-14T10:01:26Z</time>
      </trkpt>
      <trkpt lat="40.9971810" lon="-4.7107670">
        <ele>844.6</ele>
        <time>2019-08-14T10:01:27Z</time>
      </trkpt>
      <trkpt lat="40.9972440" lon="-4.7107770">
        <ele>844.7</ele>
        <time>2019-08-14T10:01:28Z</time>
      </trkpt>
      <trkpt lat="40.9973040" lon="-4.7107870">
        <ele>844.8</ele>
        <time>2019-08-14T10:01:29Z</time>
      </trkpt>
      <trkpt lat="40.9973650" lon="-4.7107960">
        <ele>844.9</ele>
        <time>2019-08-14T10:01:30Z</time>
      </trkpt>
      <trkpt lat="40.9974270" lon="-4.7108080">
        <ele>844.9</ele>
        <time>2019-08-14T10:01:31Z</time>
      </trkpt>
      <trkpt lat="40.9974910" lon="-4.7108180">
        <ele>845.0</ele>
        <time>2019-08-14T10:01:32Z</time>
      </trkpt>
      <trkpt lat="40.9975540" lon="-4.7108290">
        <ele>845.0</ele>
        <time>2019-08-14T10:01:33Z</time>
      </trkpt>
      <trkpt lat="40.9976160" lon="-4.7108400">
        <ele>845.0</ele>
        <time>2019-08-14T10:01:34Z</time>
      </trkpt>
      <trkpt lat="40.9976790" lon="-4.7108490">
        <ele>845.0</ele>
        <time>2019-08-14T10:01:35Z</time>
      </trkpt>
      <trkpt lat="40.9977430" lon="-4.7108600">
        <ele>845.0</ele>
        <time>2019-08-14T10:01:36Z</time>
      </trkpt>
      <trkpt lat="40.9978070" lon="-4.7108700">
        <ele>845.0</ele>
        <time>2019-08-14T10:01:37Z</time>
      </trkpt>
      <trkpt lat="40.9978720" lon="-4.7108810">
        <ele>845.0</ele>
        <time>2019-08-14T10:01:38Z</time>
      </trkpt>
      <trkpt lat="40.9979380" lon="-4.7108930">
        <ele>844.9</ele>
        <time>2019-08-14T10:01:39Z</time>
      </trkpt>
      <trkpt lat="40.9980010" lon="-4.7109030">
        <ele>844.9</ele>
        <time>2019-08-14T10:01:40Z</time>
      </trkpt>
      <trkpt lat="40.9980630" lon="-4.7109130">
        <ele>845.0</ele>
        <time>2019-08-14T10:01:41Z</time>
      </trkpt>
      <trkpt lat="40.9981240" lon="-4.7109240">
        <ele>845.0</ele>
        <time>2019-08-14T10:01:42Z</time>
      </trkpt>
      <trkpt lat="40.9981830" lon="-4.7109330">
        <ele>845.0</ele>
        <time>2019-08-14T10:01:43Z</time>
      </trkpt>
      <trkpt lat="40.9982410" lon="-4.7109430">
        <ele>845.0</ele>
        <time>2019-08-14T10:01:44Z</time>
      </trkpt>
      <trkpt lat="40.9982980" lon="-4.7109520">
        <ele>845.0</ele>
        <time>2019-08-14T10:01:45Z</time>
      </trkpt>
      <trkpt lat="40.9983540" lon="-4.7109600">
        <ele>845.0</ele>
        <time>2019-08-14T10:01:46Z</time>
      </trkpt>
      <trkpt lat="40.9984100" lon="-4.7109690">
        <ele>845.0</ele>
        <time>2019-08-14T10:01:47Z</time>
      </trkpt>
      <trkpt lat="40.9984660" lon="-4.7109780">
        <ele>845.0</ele>
        <time>2019-08-14T10:01:48Z</time>
      </trkpt>
      <trkpt lat="40.9985230" lon="-4.7109870">
        <ele>845.0</ele>
        <time>2019-08-14T10:01:49Z</time>
      </trkpt>
      <trkpt lat="40.9985790" lon="-4.7109960">
        <ele>845.0</ele>
        <time>2019-08-14T10:01:50Z</time>
      </trkpt>
      <trkpt lat="40.9986360" lon="-4.7110030">
        <ele>845.0</ele>
        <time>2019-08-14T10:01:51Z</time>
      </trkpt>
      <trkpt lat="40.9986930" lon="-4.7110130">
        <ele>844.9</ele>
        <time>2019-08-14T10:01:52Z</time>
      </trkpt>
      <trkpt lat="40.9987490" lon="-4.7110250">
        <ele>844.9</ele>
        <time>2019-08-14T10:01:53Z</time>
      </trkpt>
      <trkpt lat="40.9988060" lon="-4.7110360">
        <ele>845.0</ele>
        <time>2019-08-14T10:01:54Z</time>
      </trkpt>
      <trkpt lat="40.9988650" lon="-4.7110460">
        <ele>845.0</ele>
        <time>2019-08-14T10:01:55Z</time>
      </trkpt>
      <trkpt lat="40.9989230" lon="-4.7110560">
        <ele>845.0</ele>
        <time>2019-08-14T10:01:56Z</time>
      </trkpt>
      <trkpt lat="40.9989820" lon="-4.7110650">
        <ele>845.0</ele>
        <time>2019-08-14T10:01:57Z</time>
      </trkpt>
      <trkpt lat="40.9990410" lon="-4.7110750">
        <ele>845.0</ele>
        <time>2019-08-14T10:01:58Z</time>
      </trkpt>
      <trkpt lat="40.9991000" lon="-4.7110850">
        <ele>845.1</ele>
        <time>2019-08-14T10:01:59Z</time>
      </trkpt>
      <trkpt lat="40.9991600" lon="-4.7110940">
        <ele>845.1</ele>
        <time>2019-08-14T10:02:00Z</time>
      </trkpt>
      <trkpt lat="40.9992210" lon="-4.7111030">
        <ele>845.2</ele>
        <time>2019-08-14T10:02:01Z</time>
      </trkpt>
      <trkpt lat="40.9992820" lon="-4.7111120">
        <ele>845.2</ele>
        <time>2019-08-14T10:02:02Z</time>
      </trkpt>
      <trkpt lat="40.9993430" lon="-4.7111220">
        <ele>845.3</ele>
        <time>2019-08-14T10:02:03Z</time>
      </trkpt>
      <trkpt lat="40.9994040" lon="-4.7111330">
        <ele>845.3</ele>
        <time>2019-08-14T10:02:04Z</time>
      </trkpt>
      <trkpt lat="40.9994640" lon="-4.7111420">
        <ele>845.3</ele>
        <time>2019-08-14T10:02:05Z</time>
      </trkpt>
      <trkpt lat="40.9995240" lon="-4.7111530">
        <ele>845.3</ele>
        <time>2019-08-14T10:02:06Z</time>
      </trkpt>
      <trkpt lat="40.9995850" lon="-4.7111640">
        <ele>845.4</ele>
        <time>2019-08-14T10:02:07Z</time>
      </trkpt>
      <trkpt lat="40.9996460" lon="-4.7111750">
        <ele>845.4</ele>
        <time>2019-08-14T10:02:08Z</time>
      </trkpt>
      <trkpt lat="40.9997070" lon="-4.7111850">
        <ele>845.4</ele>
        <time>2019-08-14T10:02:09Z</time>
      </trkpt>
      <trkpt lat="40.9997680" lon="-4.7111960">
        <ele>845.4</ele>
        <time>2019-08-14T10:02:10Z</time>
      </trkpt>
      <trkpt lat="40.9998300" lon="-4.7112060">
        <ele>845.5</ele>
        <time>2019-08-14T10:02:11Z</time>
      </trkpt>
      <trkpt lat="40.9998930" lon="-4.7112170">
        <ele>845.5</ele>
        <time>2019-08-14T10:02:12Z</time>
      </trkpt>
      <trkpt lat="40.9999540" lon="-4.7112310">
        <ele>845.5</ele>
        <time>2019-08-14T10:02:13Z</time>
      </trkpt>
      <trkpt lat="41.0000160" lon="-4.7112460">
        <ele>845.5</ele>
        <time>2019-08-14T10:02:14Z</time>
      </trkpt>
      <trkpt lat="41.0000780" lon="-4.7112610">
        <ele>845.6</ele>
        <time>2019-08-14T10:02:15Z</time>
      </trkpt>
      <trkpt lat="41.0001400" lon="-4.7112740">
        <ele>845.6</ele>
        <time>2019-08-14T10:02:16Z</time>
      </trkpt>
      <trkpt lat="41.0002010" lon="-4.7112890">
        <ele>845.6</ele>
        <time>2019-08-14T10:02:17Z</time>
      </trkpt>
      <trkpt lat="41.0002620" lon="-4.7113040">
        <ele>845.6</ele>
        <time>2019-08-14T10:02:18Z</time>
      </trkpt>
      <trkpt lat="41.0003220" lon="-4.7113200">
        <ele>845.6</ele>
        <time>2019-08-14T10:02:19Z</time>
      </trkpt>
      <trkpt lat="41.0003810" lon="-4.7113360">
        <ele>845.6</ele>
        <time>2019-08-14T10:02:20Z</time>
      </trkpt>
      <trkpt lat="41.0004390" lon="-4.7113550">
        <ele>845.7</ele>
        <time>2019-08-14T10:02:21Z</time>
      </trkpt>
      <trkpt lat="41.0004960" lon="-4.7113710">
        <ele>845.7</ele>
        <time>2019-08-14T10:02:22Z</time>
      </trkpt>
      <trkpt lat="41.0005520" lon="-4.7113880">
        <ele>845.7</ele>
        <time>2019-08-14T10:02:23Z</time>
      </trkpt>
      <trkpt lat="41.0006090" lon="-4.7114060">
        <ele>845.7</ele>
        <time>2019-08-14T10:02:24Z</time>
      </trkpt>
      <trkpt lat="41.0006660" lon="-4.7114260">
        <ele>845.7</ele>
        <time>2019-08-14T10:02:25Z</time>
      </trkpt>
      <trkpt lat="41.0007250" lon="-4.7114470">
        <ele>845.7</ele>
        <time>2019-08-14T10:02:26Z</time>
      </trkpt>
      <trkpt lat="41.0007840" lon="-4.7114690">
        <ele>845.7</ele>
        <time>2019-08-14T10:02:27Z</time>
      </trkpt>
      <trkpt lat="41.0008440" lon="-4.7114910">
        <ele>845.7</ele>
        <time>2019-08-14T10:02:28Z</time>
      </trkpt>
      <trkpt lat="41.0009040" lon="-4.7115130">
        <ele>845.8</ele>
        <time>2019-08-14T10:02:29Z</time>
      </trkpt>
      <trkpt lat="41.0009650" lon="-4.7115360">
        <ele>845.8</ele>
        <time>2019-08-14T10:02:30Z</time>
      </trkpt>
      <trkpt lat="41.0010250" lon="-4.7115600">
        <ele>845.8</ele>
        <time>2019-08-14T10:02:31Z</time>
      </trkpt>
      <trkpt lat="41.0010840" lon="-4.7115830">
        <ele>845.8</ele>
        <time>2019-08-14T10:02:32Z</time>
      </trkpt>
      <trkpt lat="41.0011430" lon="-4.7116050">
        <ele>845.7</ele>
        <time>2019-08-14T10:02:33Z</time>
      </trkpt>
      <trkpt lat="41.0012030" lon="-4.7116260">
        <ele>845.7</ele>
        <time>2019-08-14T10:02:34Z</time>
      </trkpt>
      <trkpt lat="41.0012620" lon="-4.7116510">
        <ele>845.6</ele>
        <time>2019-08-14T10:02:35Z</time>
      </trkpt>
      <trkpt lat="41.0013230" lon="-4.7116740">
        <ele>845.4</ele>
        <time>2019-08-14T10:02:36Z</time>
      </trkpt>
      <trkpt lat="41.0013830" lon="-4.7116960">
        <ele>845.3</ele>
        <time>2019-08-14T10:02:37Z</time>
      </trkpt>
      <trkpt lat="41.0014430" lon="-4.7117190">
        <ele>845.1</ele>
        <time>2019-08-14T10:02:38Z</time>
      </trkpt>
      <trkpt lat="41.0015020" lon="-4.7117420">
        <ele>845.0</ele>
        <time>2019-08-14T10:02:39Z</time>
      </trkpt>
      <trkpt lat="41.0015610" lon="-4.7117640">
        <ele>844.9</ele>
        <time>2019-08-14T10:02:40Z</time>
      </trkpt>
      <trkpt lat="41.0016200" lon="-4.7117850">
        <ele>844.9</ele>
        <time>2019-08-14T10:02:41Z</time>
      </trkpt>
      <trkpt lat="41.0016790" lon="-4.7118070">
        <ele>845.0</ele>
        <time>2019-08-14T10:02:42Z</time>
      </trkpt>
      <trkpt lat="41.0017370" lon="-4.7118290">
        <ele>845.1</ele>
        <time>2019-08-14T10:02:43Z</time>
      </trkpt>
      <trkpt lat="41.0017940" lon="-4.7118510">
        <ele>845.2</ele>
        <time>2019-08-14T10:02:44Z</time>
      </trkpt>
      <trkpt lat="41.0018520" lon="-4.7118730">
        <ele>845.3</ele>
        <time>2019-08-14T10:02:45Z</time>
      </trkpt>
      <trkpt lat="41.0019100" lon="-4.7118950">
        <ele>845.5</ele>
        <time>2019-08-14T10:02:46Z</time>
      </trkpt>
      <trkpt lat="41.0019700" lon="-4.7119170">
        <ele>845.6</ele>
        <time>2019-08-14T10:02:47Z</time>
      </trkpt>
      <trkpt lat="41.0020270" lon="-4.7119400">
        <ele>845.7</ele>
        <time>2019-08-14T10:02:48Z</time>
      </trkpt>
      <trkpt lat="41.0020860" lon="-4.7119620">
        <ele>845.7</ele>
        <time>2019-08-14T10:02:49Z</time>
      </trkpt>
      <trkpt lat="41.0021440" lon="-4.7119840">
        <ele>845.7</ele>
        <time>2019-08-14T10:02:50Z</time>
      </trkpt>
      <trkpt lat="41.0022030" lon="-4.7120060">
        <ele>845.7</ele>
        <time>2019-08-14T10:02:51Z</time>
      </trkpt>
      <trkpt lat="41.0022620" lon="-4.7120280">
        <ele>845.6</ele>
        <time>2019-08-14T10:02:52Z</time>
      </trkpt>
      <trkpt lat="41.0023210" lon="-4.7120510">
        <ele>845.6</ele>
        <time>2019-08-14T10:02:53Z</time>
      </trkpt>
      <trkpt lat="41.0023810" lon="-4.7120740">
        <ele>845.6</ele>
        <time>2019-08-14T10:02:54Z</time>
      </trkpt>
      <trkpt lat="41.0024410" lon="-4.7120980">
        <ele>845.6</ele>
        <time>2019-08-14T10:02:55Z</time>
      </trkpt>
      <trkpt lat="41.0025000" lon="-4.7121230">
        <ele>845.6</ele>
        <time>2019-08-14T10:02:56Z</time>
      </trkpt>
      <trkpt lat="41.0025590" lon="-4.7121460">
        <ele>845.6</ele>
        <time>2019-08-14T10:02:57Z</time>
      </trkpt>
      <trkpt lat="41.0026190" lon="-4.7121690">
        <ele>845.6</ele>
        <time>2019-08-14T10:02:58Z</time>
      </trkpt>
      <trkpt lat="41.0026790" lon="-4.7121930">
        <ele>845.7</ele>
        <time>2019-08-14T10:02:59Z</time>
      </trkpt>
      <trkpt lat="41.0027380" lon="-4.7122160">
        <ele>845.8</ele>
        <time>2019-08-14T10:03:00Z</time>
      </trkpt>
      <trkpt lat="41.0027950" lon="-4.7122400">
        <ele>845.8</ele>
        <time>2019-08-14T10:03:01Z</time>
      </trkpt>
      <trkpt lat="41.0028530" lon="-4.7122590">
        <ele>846.0</ele>
        <time>2019-08-14T10:03:02Z</time>
      </trkpt>
      <trkpt lat="41.0029130" lon="-4.7122780">
        <ele>846.1</ele>
        <time>2019-08-14T10:03:03Z</time>
      </trkpt>
      <trkpt lat="41.0029720" lon="-4.7122980">
        <ele>846.2</ele>
        <time>2019-08-14T10:03:04Z</time>
      </trkpt>
      <trkpt lat="41.0030320" lon="-4.7123210">
        <ele>846.3</ele>
        <time>2019-08-14T10:03:05Z</time>
      </trkpt>
      <trkpt lat="41.0030930" lon="-4.7123430">
        <ele>846.4</ele>
        <time>2019-08-14T10:03:06Z</time>
      </trkpt>
      <trkpt lat="41.0031530" lon="-4.7123640">
        <ele>846.4</ele>
        <time>2019-08-14T10:03:07Z</time>
      </trkpt>
      <trkpt lat="41.0032130" lon="-4.7123860">
        <ele>846.5</ele>
        <time>2019-08-14T10:03:08Z</time>
      </trkpt>
      <trkpt lat="41.0032700" lon="-4.7124070">
        <ele>846.5</ele>
        <time>2019-08-14T10:03:09Z</time>
      </trkpt>
      <trkpt lat="41.0033260" lon="-4.7124280">
        <ele>846.5</ele>
        <time>2019-08-14T10:03:10Z</time>
      </trkpt>
      <trkpt lat="41.0033830" lon="-4.7124490">
        <ele>846.5</ele>
        <time>2019-08-14T10:03:11Z</time>
      </trkpt>
      <trkpt lat="41.0034400" lon="-4.7124710">
        <ele>846.5</ele>
        <time>2019-08-14T10:03:12Z</time>
      </trkpt>
      <trkpt lat="41.0034990" lon="-4.7124930">
        <ele>846.4</ele>
        <time>2019-08-14T10:03:13Z</time>
      </trkpt>
      <trkpt lat="41.0035570" lon="-4.7125160">
        <ele>846.4</ele>
        <time>2019-08-14T10:03:14Z</time>
      </trkpt>
      <trkpt lat="41.0036120" lon="-4.7125390">
        <ele>846.3</ele>
        <time>2019-08-14T10:03:15Z</time>
      </trkpt>
      <trkpt lat="41.0036670" lon="-4.7125620">
        <ele>846.3</ele>
        <time>2019-08-14T10:03:16Z</time>
      </trkpt>
      <trkpt lat="41.0037200" lon="-4.7125830">
        <ele>846.3</ele>
        <time>2019-08-14T10:03:17Z</time>
      </trkpt>
      <trkpt lat="41.0037750" lon="-4.7126010">
        <ele>846.3</ele>
        <time>2019-08-14T10:03:18Z</time>
      </trkpt>
      <trkpt lat="41.0038310" lon="-4.7126220">
        <ele>846.3</ele>
        <time>2019-08-14T10:03:19Z</time>
      </trkpt>
      <trkpt lat="41.0038880" lon="-4.7126440">
        <ele>846.2</ele>
        <time>2019-08-14T10:03:20Z</time>
      </trkpt>
      <trkpt lat="41.0039450" lon="-4.7126670">
        <ele>846.2</ele>
        <time>2019-08-14T10:03:21Z</time>
      </trkpt>
      <trkpt lat="41.0040030" lon="-4.7126890">
        <ele>846.2</ele>
        <time>2019-08-14T10:03:22Z</time>
      </trkpt>
      <trkpt lat="41.0040620" lon="-4.7127100">
        <ele>846.1</ele>
        <time>2019-08-14T10:03:23Z</time>
      </trkpt>
      <trkpt lat="41.0041210" lon="-4.7127310">
        <ele>846.1</ele>
        <time>2019-08-14T10:03:24Z</time>
      </trkpt>
      <trkpt lat="41.0041810" lon="-4.7127540">
        <ele>846.0</ele>
        <time>2019-08-14T10:03:25Z</time>
      </trkpt>
      <trkpt lat="41.0042380" lon="-4.7127770">
        <ele>846.0</ele>
        <time>2019-08-14T10:03:26Z</time>
      </trkpt>
      <trkpt lat="41.0042960" lon="-4.7127990">
        <ele>846.0</ele>
        <time>2019-08-14T10:03:27Z</time>
      </trkpt>
      <trkpt lat="41.0043520" lon="-4.7128200">
        <ele>845.9</ele>
        <time>2019-08-14T10:03:28Z</time>
      </trkpt>
      <trkpt lat="41.0044090" lon="-4.7128420">
        <ele>845.9</ele>
        <time>2019-08-14T10:03:29Z</time>
      </trkpt>
      <trkpt lat="41.0044660" lon="-4.7128640">
        <ele>845.8</ele>
        <time>2019-08-14T10:03:30Z</time>
      </trkpt>
      <trkpt lat="41.0045250" lon="-4.7128860">
        <ele>845.8</ele>
        <time>2019-08-14T10:03:31Z</time>
      </trkpt>
      <trkpt lat="41.0045860" lon="-4.7129050">
        <ele>845.8</ele>
        <time>2019-08-14T10:03:32Z</time>
      </trkpt>
      <trkpt lat="41.0046460" lon="-4.7129270">
        <ele>845.8</ele>
        <time>2019-08-14T10:03:33Z</time>
      </trkpt>
      <trkpt lat="41.0047070" lon="-4.7129500">
        <ele>845.7</ele>
        <time>2019-08-14T10:03:34Z</time>
      </trkpt>
      <trkpt lat="41.0047660" lon="-4.7129750">
        <ele>845.6</ele>
        <time>2019-08-14T10:03:35Z</time>
      </trkpt>
      <trkpt lat="41.0048260" lon="-4.7129970">
        <ele>845.5</ele>
        <time>2019-08-14T10:03:36Z</time>
      </trkpt>
      <trkpt lat="41.0048860" lon="-4.7130170">
        <ele>845.3</ele>
        <time>2019-08-14T10:03:37Z</time>
      </trkpt>
      <trkpt lat="41.0049450" lon="-4.7130360">
        <ele>845.1</ele>
        <time>2019-08-14T10:03:38Z</time>
      </trkpt>
      <trkpt lat="41.0050050" lon="-4.7130540">
        <ele>845.0</ele>
        <time>2019-08-14T10:03:39Z</time>
      </trkpt>
      <trkpt lat="41.0050670" lon="-4.7130710">
        <ele>844.8</ele>
        <time>2019-08-14T10:03:40Z</time>
      </trkpt>
      <trkpt lat="41.0051310" lon="-4.7130890">
        <ele>844.7</ele>
        <time>2019-08-14T10:03:41Z</time>
      </trkpt>
      <trkpt lat="41.0051940" lon="-4.7131080">
        <ele>844.6</ele>
        <time>2019-08-14T10:03:42Z</time>
      </trkpt>
      <trkpt lat="41.0052570" lon="-4.7131260">
        <ele>844.6</ele>
        <time>2019-08-14T10:03:43Z</time>
      </trkpt>
      <trkpt lat="41.0053180" lon="-4.7131390">
        <ele>844.6</ele>
        <time>2019-08-14T10:03:44Z</time>
      </trkpt>
      <trkpt lat="41.0053770" lon="-4.7131520">
        <ele>844.5</ele>
        <time>2019-08-14T10:03:45Z</time>
      </trkpt>
      <trkpt lat="41.0054350" lon="-4.7131650">
        <ele>844.6</ele>
        <time>2019-08-14T10:03:46Z</time>
      </trkpt>
      <trkpt lat="41.0054940" lon="-4.7131770">
        <ele>844.6</ele>
        <time>2019-08-14T10:03:47Z</time>
      </trkpt>
      <trkpt lat="41.0055540" lon="-4.7131880">
        <ele>844.7</ele>
        <time>2019-08-14T10:03:48Z</time>
      </trkpt>
      <trkpt lat="41.0056140" lon="-4.7131990">
        <ele>844.9</ele>
        <time>2019-08-14T10:03:49Z</time>
      </trkpt>
      <trkpt lat="41.0056760" lon="-4.7132080">
        <ele>845.0</ele>
        <time>2019-08-14T10:03:50Z</time>
      </trkpt>
      <trkpt lat="41.0057380" lon="-4.7132180">
        <ele>845.2</ele>
        <time>2019-08-14T10:03:51Z</time>
      </trkpt>
      <trkpt lat="41.0058020" lon="-4.7132260">
        <ele>845.3</ele>
        <time>2019-08-14T10:03:52Z</time>
      </trkpt>
      <trkpt lat="41.0058650" lon="-4.7132350">
        <ele>845.3</ele>
        <time>2019-08-14T10:03:53Z</time>
      </trkpt>
      <trkpt lat="41.0059290" lon="-4.7132440">
        <ele>845.2</ele>
        <time>2019-08-14T10:03:54Z</time>
      </trkpt>
      <trkpt lat="41.0059900" lon="-4.7132520">
        <ele>845.1</ele>
        <time>2019-08-14T10:03:55Z</time>
      </trkpt>
      <trkpt lat="41.0060510" lon="-4.7132610">
        <ele>845.0</ele>
        <time>2019-08-14T10:03:56Z</time>
      </trkpt>
      <trkpt lat="41.0061110" lon="-4.7132690">
        <ele>844.8</ele>
        <time>2019-08-14T10:03:57Z</time>
      </trkpt>
      <trkpt lat="41.0061730" lon="-4.7132780">
        <ele>844.5</ele>
        <time>2019-08-14T10:03:58Z</time>
      </trkpt>
      <trkpt lat="41.0062360" lon="-4.7132870">
        <ele>844.3</ele>
        <time>2019-08-14T10:03:59Z</time>
      </trkpt>
      <trkpt lat="41.0063010" lon="-4.7132950">
        <ele>844.2</ele>
        <time>2019-08-14T10:04:00Z</time>
      </trkpt>
      <trkpt lat="41.0063660" lon="-4.7133020">
        <ele>844.1</ele>
        <time>2019-08-14T10:04:01Z</time>
      </trkpt>
      <trkpt lat="41.0064310" lon="-4.7133090">
        <ele>844.1</ele>
        <time>2019-08-14T10:04:02Z</time>
      </trkpt>
      <trkpt lat="41.0064950" lon="-4.7133180">
        <ele>844.1</ele>
        <time>2019-08-14T10:04:03Z</time>
      </trkpt>
      <trkpt lat="41.0065570" lon="-4.7133250">
        <ele>844.1</ele>
        <time>2019-08-14T10:04:04Z</time>
      </trkpt>
      <trkpt lat="41.0066180" lon="-4.7133310">
        <ele>844.2</ele>
        <time>2019-08-14T10:04:05Z</time>
      </trkpt>
      <trkpt lat="41.0066800" lon="-4.7133380">
        <ele>844.2</ele>
        <time>2019-08-14T10:04:06Z</time>
      </trkpt>
      <trkpt lat="41.0067430" lon="-4.7133450">
        <ele>844.3</ele>
        <time>2019-08-14T10:04:07Z</time>
      </trkpt>
      <trkpt lat="41.0068060" lon="-4.7133530">
        <ele>844.4</ele>
        <time>2019-08-14T10:04:08Z</time>
      </trkpt>
      <trkpt lat="41.0068700" lon="-4.7133610">
        <ele>844.4</ele>
        <time>2019-08-14T10:04:09Z</time>
      </trkpt>
      <trkpt lat="41.0069340" lon="-4.7133680">
        <ele>844.4</ele>
        <time>2019-08-14T10:04:10Z</time>
      </trkpt>
      <trkpt lat="41.0069970" lon="-4.7133760">
        <ele>844.3</ele>
        <time>2019-08-14T10:04:11Z</time>
      </trkpt>
      <trkpt lat="41.0070590" lon="-4.7133850">
        <ele>844.2</ele>
        <time>2019-08-14T10:04:12Z</time>
      </trkpt>
      <trkpt lat="41.0071190" lon="-4.7133930">
        <ele>844.0</ele>
        <time>2019-08-14T10:04:13Z</time>
      </trkpt>
      <trkpt lat="41.0071790" lon="-4.7134010">
        <ele>843.8</ele>
        <time>2019-08-14T10:04:14Z</time>
      </trkpt>
      <trkpt lat="41.0072400" lon="-4.7134090">
        <ele>843.7</ele>
        <time>2019-08-14T10:04:15Z</time>
      </trkpt>
      <trkpt lat="41.0073000" lon="-4.7134170">
        <ele>843.5</ele>
        <time>2019-08-14T10:04:16Z</time>
      </trkpt>
      <trkpt lat="41.0073580" lon="-4.7134240">
        <ele>843.3</ele>
        <time>2019-08-14T10:04:17Z</time>
      </trkpt>
      <trkpt lat="41.0074150" lon="-4.7134310">
        <ele>843.2</ele>
        <time>2019-08-14T10:04:18Z</time>
      </trkpt>
      <trkpt lat="41.0074710" lon="-4.7134390">
        <ele>843.1</ele>
        <time>2019-08-14T10:04:19Z</time>
      </trkpt>
      <trkpt lat="41.0075290" lon="-4.7134450">
        <ele>843.1</ele>
        <time>2019-08-14T10:04:20Z</time>
      </trkpt>
      <trkpt lat="41.0075880" lon="-4.7134510">
        <ele>843.0</ele>
        <time>2019-08-14T10:04:21Z</time>
      </trkpt>
      <trkpt lat="41.0076500" lon="-4.7134580">
        <ele>842.9</ele>
        <time>2019-08-14T10:04:22Z</time>
      </trkpt>
      <trkpt lat="41.0077100" lon="-4.7134670">
        <ele>842.9</ele>
        <time>2019-08-14T10:04:23Z</time>
      </trkpt>
      <trkpt lat="41.0077710" lon="-4.7134760">
        <ele>842.8</ele>
        <time>2019-08-14T10:04:24Z</time>
      </trkpt>
      <trkpt lat="41.0078310" lon="-4.7134850">
        <ele>842.8</ele>
        <time>2019-08-14T10:04:25Z</time>
      </trkpt>
      <trkpt lat="41.0078890" lon="-4.7134920">
        <ele>842.8</ele>
        <time>2019-08-14T10:04:26Z</time>
      </trkpt>
      <trkpt lat="41.0079460" lon="-4.7134980">
        <ele>842.7</ele>
        <time>2019-08-14T10:04:27Z</time>
      </trkpt>
      <trkpt lat="41.0080020" lon="-4.7135030">
        <ele>842.7</ele>
        <time>2019-08-14T10:04:28Z</time>
      </trkpt>
      <trkpt lat="41.0080600" lon="-4.7135100">
        <ele>842.6</ele>
        <time>2019-08-14T10:04:29Z</time>
      </trkpt>
      <trkpt lat="41.0081200" lon="-4.7135190">
        <ele>842.5</ele>
        <time>2019-08-14T10:04:30Z</time>
      </trkpt>
      <trkpt lat="41.0081780" lon="-4.7135280">
        <ele>842.4</ele>
        <time>2019-08-14T10:04:31Z</time>
      </trkpt>
      <trkpt lat="41.0082360" lon="-4.7135370">
        <ele>842.4</ele>
        <time>2019-08-14T10:04:32Z</time>
      </trkpt>
      <trkpt lat="41.0082950" lon="-4.7135460">
        <ele>842.3</ele>
        <time>2019-08-14T10:04:33Z</time>
      </trkpt>
      <trkpt lat="41.0083540" lon="-4.7135520">
        <ele>842.3</ele>
        <time>2019-08-14T10:04:34Z</time>
      </trkpt>
      <trkpt lat="41.0084120" lon="-4.7135580">
        <ele>842.3</ele>
        <time>2019-08-14T10:04:35Z</time>
      </trkpt>
      <trkpt lat="41.0084710" lon="-4.7135660">
        <ele>842.5</ele>
        <time>2019-08-14T10:04:36Z</time>
      </trkpt>
      <trkpt lat="41.0085290" lon="-4.7135740">
        <ele>842.6</ele>
        <time>2019-08-14T10:04:37Z</time>
      </trkpt>
      <trkpt lat="41.0085870" lon="-4.7135810">
        <ele>842.7</ele>
        <time>2019-08-14T10:04:38Z</time>
      </trkpt>
      <trkpt lat="41.0086460" lon="-4.7135890">
        <ele>842.9</ele>
        <time>2019-08-14T10:04:39Z</time>
      </trkpt>
      <trkpt lat="41.0087050" lon="-4.7135970">
        <ele>843.0</ele>
        <time>2019-08-14T10:04:40Z</time>
      </trkpt>
      <trkpt lat="41.0087650" lon="-4.7136060">
        <ele>843.1</ele>
        <time>2019-08-14T10:04:41Z</time>
      </trkpt>
      <trkpt lat="41.0088240" lon="-4.7136150">
        <ele>843.2</ele>
        <time>2019-08-14T10:04:42Z</time>
      </trkpt>
      <trkpt lat="41.0088820" lon="-4.7136230">
        <ele>843.3</ele>
        <time>2019-08-14T10:04:43Z</time>
      </trkpt>
      <trkpt lat="41.0089370" lon="-4.7136320">
        <ele>843.3</ele>
        <time>2019-08-14T10:04:44Z</time>
      </trkpt>
      <trkpt lat="41.0089930" lon="-4.7136360">
        <ele>843.3</ele>
        <time>2019-08-14T10:04:45Z</time>
      </trkpt>
      <trkpt lat="41.0090490" lon="-4.7136430">
        <ele>843.3</ele>
        <time>2019-08-14T10:04:46Z</time>
      </trkpt>
      <trkpt lat="41.0091060" lon="-4.7136490">
        <ele>843.1</ele>
        <time>2019-08-14T10:04:47Z</time>
      </trkpt>
      <trkpt lat="41.0091630" lon="-4.7136550">
        <ele>842.9</ele>
        <time>2019-08-14T10:04:48Z</time>
      </trkpt>
      <trkpt lat="41.0092220" lon="-4.7136620">
        <ele>842.8</ele>
        <time>2019-08-14T10:04:49Z</time>
      </trkpt>
      <trkpt lat="41.0092800" lon="-4.7136680">
        <ele>842.6</ele>
        <time>2019-08-14T10:04:50Z</time>
      </trkpt>
      <trkpt lat="41.0093390" lon="-4.7136740">
        <ele>842.5</ele>
        <time>2019-08-14T10:04:51Z</time>
      </trkpt>
      <trkpt lat="41.0093970" lon="-4.7136810">
        <ele>842.3</ele>
        <time>2019-08-14T10:04:52Z</time>
      </trkpt>
      <trkpt lat="41.0094530" lon="-4.7136890">
        <ele>842.2</ele>
        <time>2019-08-14T10:04:53Z</time>
      </trkpt>
      <trkpt lat="41.0095080" lon="-4.7136960">
        <ele>842.1</ele>
        <time>2019-08-14T10:04:54Z</time>
      </trkpt>
      <trkpt lat="41.0095630" lon="-4.7137020">
        <ele>842.0</ele>
        <time>2019-08-14T10:04:55Z</time>
      </trkpt>
      <trkpt lat="41.0096170" lon="-4.7137040">
        <ele>841.9</ele>
        <time>2019-08-14T10:04:56Z</time>
      </trkpt>
      <trkpt lat="41.0096690" lon="-4.7137060">
        <ele>841.9</ele>
        <time>2019-08-14T10:04:57Z</time>
      </trkpt>
      <trkpt lat="41.0097210" lon="-4.7137070">
        <ele>842.0</ele>
        <time>2019-08-14T10:04:58Z</time>
      </trkpt>
      <trkpt lat="41.0097750" lon="-4.7137100">
        <ele>842.0</ele>
        <time>2019-08-14T10:04:59Z</time>
      </trkpt>
      <trkpt lat="41.0098290" lon="-4.7137120">
        <ele>842.0</ele>
        <time>2019-08-14T10:05:00Z</time>
      </trkpt>
      <trkpt lat="41.0098860" lon="-4.7137140">
        <ele>842.0</ele>
        <time>2019-08-14T10:05:01Z</time>
      </trkpt>
      <trkpt lat="41.0099420" lon="-4.7137130">
        <ele>842.1</ele>
        <time>2019-08-14T10:05:02Z</time>
      </trkpt>
      <trkpt lat="41.0099970" lon="-4.7137130">
        <ele>842.1</ele>
        <time>2019-08-14T10:05:03Z</time>
      </trkpt>
      <trkpt lat="41.0100530" lon="-4.7137130">
        <ele>842.1</ele>
        <time>2019-08-14T10:05:04Z</time>
      </trkpt>
      <trkpt lat="41.0101060" lon="-4.7137130">
        <ele>842.2</ele>
        <time>2019-08-14T10:05:05Z</time>
      </trkpt>
      <trkpt lat="41.0101580" lon="-4.7137090">
        <ele>842.2</ele>
        <time>2019-08-14T10:05:06Z</time>
      </trkpt>
      <trkpt lat="41.0102110" lon="-4.7137050">
        <ele>842.3</ele>
        <time>2019-08-14T10:05:07Z</time>
      </trkpt>
      <trkpt lat="41.0102650" lon="-4.7137010">
        <ele>842.3</ele>
        <time>2019-08-14T10:05:08Z</time>
      </trkpt>
      <trkpt lat="41.0103190" lon="-4.7136970">
        <ele>842.4</ele>
        <time>2019-08-14T10:05:09Z</time>
      </trkpt>
      <trkpt lat="41.0103730" lon="-4.7136930">
        <ele>842.5</ele>
        <time>2019-08-14T10:05:10Z</time>
      </trkpt>
      <trkpt lat="41.0104260" lon="-4.7136890">
        <ele>842.6</ele>
        <time>2019-08-14T10:05:11Z</time>
      </trkpt>
      <trkpt lat="41.0104780" lon="-4.7136840">
        <ele>842.6</ele>
        <time>2019-08-14T10:05:12Z</time>
      </trkpt>
      <trkpt lat="41.0105300" lon="-4.7136790">
        <ele>842.7</ele>
        <time>2019-08-14T10:05:13Z</time>
      </trkpt>
      <trkpt lat="41.0105820" lon="-4.7136730">
        <ele>842.7</ele>
        <time>2019-08-14T10:05:14Z</time>
      </trkpt>
      <trkpt lat="41.0106360" lon="-4.7136690">
        <ele>842.7</ele>
        <time>2019-08-14T10:05:15Z</time>
      </trkpt>
      <trkpt lat="41.0106890" lon="-4.7136630">
        <ele>842.7</ele>
        <time>2019-08-14T10:05:16Z</time>
      </trkpt>
      <trkpt lat="41.0107440" lon="-4.7136580">
        <ele>842.7</ele>
        <time>2019-08-14T10:05:17Z</time>
      </trkpt>
      <trkpt lat="41.0107970" lon="-4.7136550">
        <ele>842.7</ele>
        <time>2019-08-14T10:05:18Z</time>
      </trkpt>
      <trkpt lat="41.0108500" lon="-4.7136490">
        <ele>842.6</ele>
        <time>2019-08-14T10:05:19Z</time>
      </trkpt>
      <trkpt lat="41.0109040" lon="-4.7136440">
        <ele>842.5</ele>
        <time>2019-08-14T10:05:20Z</time>
      </trkpt>
      <trkpt lat="41.0109580" lon="-4.7136390">
        <ele>842.4</ele>
        <time>2019-08-14T10:05:21Z</time>
      </trkpt>
      <trkpt lat="41.0110110" lon="-4.7136360">
        <ele>842.3</ele>
        <time>2019-08-14T10:05:22Z</time>
      </trkpt>
      <trkpt lat="41.0110620" lon="-4.7136310">
        <ele>842.2</ele>
        <time>2019-08-14T10:05:23Z</time>
      </trkpt>
      <trkpt lat="41.0111140" lon="-4.7136250">
        <ele>842.2</ele>
        <time>2019-08-14T10:05:24Z</time>
      </trkpt>
      <trkpt lat="41.0111660" lon="-4.7136190">
        <ele>842.2</ele>
        <time>2019-08-14T10:05:25Z</time>
      </trkpt>
      <trkpt lat="41.0112180" lon="-4.7136140">
        <ele>842.2</ele>
        <time>2019-08-14T10:05:26Z</time>
      </trkpt>
      <trkpt lat="41.0112720" lon="-4.7136110">
        <ele>842.3</ele>
        <time>2019-08-14T10:05:27Z</time>
      </trkpt>
      <trkpt lat="41.0113260" lon="-4.7136050">
        <ele>842.3</ele>
        <time>2019-08-14T10:05:28Z</time>
      </trkpt>
      <trkpt lat="41.0113810" lon="-4.7136000">
        <ele>842.5</ele>
        <time>2019-08-14T10:05:29Z</time>
      </trkpt>
      <trkpt lat="41.0114380" lon="-4.7135960">
        <ele>842.6</ele>
        <time>2019-08-14T10:05:30Z</time>
      </trkpt>
      <trkpt lat="41.0114950" lon="-4.7135920">
        <ele>842.8</ele>
        <time>2019-08-14T10:05:31Z</time>
      </trkpt>
      <trkpt lat="41.0115530" lon="-4.7135880">
        <ele>842.8</ele>
        <time>2019-08-14T10:05:32Z</time>
      </trkpt>
      <trkpt lat="41.0116080" lon="-4.7135830">
        <ele>842.7</ele>
        <time>2019-08-14T10:05:33Z</time>
      </trkpt>
      <trkpt lat="41.0116620" lon="-4.7135770">
        <ele>842.6</ele>
        <time>2019-08-14T10:05:34Z</time>
      </trkpt>
      <trkpt lat="41.0117170" lon="-4.7135710">
        <ele>842.5</ele>
        <time>2019-08-14T10:05:35Z</time>
      </trkpt>
      <trkpt lat="41.0117720" lon="-4.7135640">
        <ele>842.3</ele>
        <time>2019-08-14T10:05:36Z</time>
      </trkpt>
      <trkpt lat="41.0118290" lon="-4.7135570">
        <ele>842.2</ele>
        <time>2019-08-14T10:05:37Z</time>
      </trkpt>
      <trkpt lat="41.0118860" lon="-4.7135520">
        <ele>842.0</ele>
        <time>2019-08-14T10:05:38Z</time>
      </trkpt>
      <trkpt lat="41.0119440" lon="-4.7135460">
        <ele>841.8</ele>
        <time>2019-08-14T10:05:39Z</time>
      </trkpt>
      <trkpt lat="41.0120020" lon="-4.7135420">
        <ele>841.6</ele>
        <time>2019-08-14T10:05:40Z</time>
      </trkpt>
      <trkpt lat="41.0120580" lon="-4.7135370">
        <ele>841.4</ele>
        <time>2019-08-14T10:05:41Z</time>
      </trkpt>
      <trkpt lat="41.0121130" lon="-4.7135330">
        <ele>841.3</ele>
        <time>2019-08-14T10:05:42Z</time>
      </trkpt>
      <trkpt lat="41.0121670" lon="-4.7135280">
        <ele>841.1</ele>
        <time>2019-08-14T10:05:43Z</time>
      </trkpt>
      <trkpt lat="41.0122220" lon="-4.7135240">
        <ele>840.9</ele>
        <time>2019-08-14T10:05:44Z</time>
      </trkpt>
      <trkpt lat="41.0122770" lon="-4.7135190">
        <ele>840.7</ele>
        <time>2019-08-14T10:05:45Z</time>
      </trkpt>
      <trkpt lat="41.0123320" lon="-4.7135150">
        <ele>840.5</ele>
        <time>2019-08-14T10:05:46Z</time>
      </trkpt>
      <trkpt lat="41.0123880" lon="-4.7135100">
        <ele>840.3</ele>
        <time>2019-08-14T10:05:47Z</time>
      </trkpt>
      <trkpt lat="41.0124440" lon="-4.7135050">
        <ele>840.2</ele>
        <time>2019-08-14T10:05:48Z</time>
      </trkpt>
      <trkpt lat="41.0124990" lon="-4.7135010">
        <ele>840.1</ele>
        <time>2019-08-14T10:05:49Z</time>
      </trkpt>
      <trkpt lat="41.0125530" lon="-4.7134970">
        <ele>840.1</ele>
        <time>2019-08-14T10:05:50Z</time>
      </trkpt>
      <trkpt lat="41.0126070" lon="-4.7134930">
        <ele>840.1</ele>
        <time>2019-08-14T10:05:51Z</time>
      </trkpt>
      <trkpt lat="41.0126610" lon="-4.7134860">
        <ele>840.2</ele>
        <time>2019-08-14T10:05:52Z</time>
      </trkpt>
      <trkpt lat="41.0127170" lon="-4.7134780">
        <ele>840.3</ele>
        <time>2019-08-14T10:05:53Z</time>
      </trkpt>
      <trkpt lat="41.0127730" lon="-4.7134720">
        <ele>840.5</ele>
        <time>2019-08-14T10:05:54Z</time>
      </trkpt>
      <trkpt lat="41.0128300" lon="-4.7134670">
        <ele>840.7</ele>
        <time>2019-08-14T10:05:55Z</time>
      </trkpt>
      <trkpt lat="41.0128870" lon="-4.7134650">
        <ele>840.8</ele>
        <time>2019-08-14T10:05:56Z</time>
      </trkpt>
      <trkpt lat="41.0129430" lon="-4.7134630">
        <ele>840.9</ele>
        <time>2019-08-14T10:05:57Z</time>
      </trkpt>
      <trkpt lat="41.0129990" lon="-4.7134570">
        <ele>841.0</ele>
        <time>2019-08-14T10:05:58Z</time>
      </trkpt>
      <trkpt lat="41.0130550" lon="-4.7134490">
        <ele>841.0</ele>
        <time>2019-08-14T10:05:59Z</time>
      </trkpt>
      <trkpt lat="41.0131120" lon="-4.7134430">
        <ele>840.9</ele>
        <time>2019-08-14T10:06:00Z</time>
      </trkpt>
      <trkpt lat="41.0131690" lon="-4.7134390">
        <ele>840.8</ele>
        <time>2019-08-14T10:06:01Z</time>
      </trkpt>
      <trkpt lat="41.0132250" lon="-4.7134350">
        <ele>840.7</ele>
        <time>2019-08-14T10:06:02Z</time>
      </trkpt>
      <trkpt lat="41.0132800" lon="-4.7134310">
        <ele>840.5</ele>
        <time>2019-08-14T10:06:03Z</time>
      </trkpt>
      <trkpt lat="41.0133360" lon="-4.7134250">
        <ele>840.4</ele>
        <time>2019-08-14T10:06:04Z</time>
      </trkpt>
      <trkpt lat="41.0133920" lon="-4.7134200">
        <ele>840.2</ele>
        <time>2019-08-14T10:06:05Z</time>
      </trkpt>
      <trkpt lat="41.0134480" lon="-4.7134140">
        <ele>840.1</ele>
        <time>2019-08-14T10:06:06Z</time>
      </trkpt>
      <trkpt lat="41.0135050" lon="-4.7134110">
        <ele>840.0</ele>
        <time>2019-08-14T10:06:07Z</time>
      </trkpt>
      <trkpt lat="41.0135620" lon="-4.7134060">
        <ele>839.9</ele>
        <time>2019-08-14T10:06:08Z</time>
      </trkpt>
      <trkpt lat="41.0136170" lon="-4.7134030">
        <ele>839.8</ele>
        <time>2019-08-14T10:06:09Z</time>
      </trkpt>
      <trkpt lat="41.0136720" lon="-4.7133980">
        <ele>839.7</ele>
        <time>2019-08-14T10:06:10Z</time>
      </trkpt>
      <trkpt lat="41.0137280" lon="-4.7133910">
        <ele>839.7</ele>
        <time>2019-08-14T10:06:11Z</time>
      </trkpt>
      <trkpt lat="41.0137860" lon="-4.7133840">
        <ele>839.7</ele>
        <time>2019-08-14T10:06:12Z</time>
      </trkpt>
      <trkpt lat="41.0138460" lon="-4.7133780">
        <ele>839.6</ele>
        <time>2019-08-14T10:06:13Z</time>
      </trkpt>
      <trkpt lat="41.0139040" lon="-4.7133720">
        <ele>839.6</ele>
        <time>2019-08-14T10:06:14Z</time>
      </trkpt>
      <trkpt lat="41.0139610" lon="-4.7133650">
        <ele>839.5</ele>
        <time>2019-08-14T10:06:15Z</time>
      </trkpt>
      <trkpt lat="41.0140180" lon="-4.7133610">
        <ele>839.4</ele>
        <time>2019-08-14T10:06:16Z</time>
      </trkpt>
      <trkpt lat="41.0140740" lon="-4.7133550">
        <ele>839.3</ele>
        <time>2019-08-14T10:06:17Z</time>
      </trkpt>
      <trkpt lat="41.0141310" lon="-4.7133500">
        <ele>839.1</ele>
        <time>2019-08-14T10:06:18Z</time>
      </trkpt>
      <trkpt lat="41.0141910" lon="-4.7133440">
        <ele>839.0</ele>
        <time>2019-08-14T10:06:19Z</time>
      </trkpt>
      <trkpt lat="41.0142520" lon="-4.7133380">
        <ele>838.8</ele>
        <time>2019-08-14T10:06:20Z</time>
      </trkpt>
      <trkpt lat="41.0143130" lon="-4.7133320">
        <ele>838.6</ele>
        <time>2019-08-14T10:06:21Z</time>
      </trkpt>
      <trkpt lat="41.0143720" lon="-4.7133270">
        <ele>838.4</ele>
        <time>2019-08-14T10:06:22Z</time>
      </trkpt>
      <trkpt lat="41.0144320" lon="-4.7133200">
        <ele>838.2</ele>
        <time>2019-08-14T10:06:23Z</time>
      </trkpt>
      <trkpt lat="41.0144930" lon="-4.7133140">
        <ele>838.0</ele>
        <time>2019-08-14T10:06:24Z</time>
      </trkpt>
      <trkpt lat="41.0145530" lon="-4.7133100">
        <ele>837.9</ele>
        <time>2019-08-14T10:06:25Z</time>
      </trkpt>
      <trkpt lat="41.0146120" lon="-4.7133040">
        <ele>837.8</ele>
        <time>2019-08-14T10:06:26Z</time>
      </trkpt>
      <trkpt lat="41.0146700" lon="-4.7132970">
        <ele>837.7</ele>
        <time>2019-08-14T10:06:27Z</time>
      </trkpt>
      <trkpt lat="41.0147280" lon="-4.7132920">
        <ele>837.7</ele>
        <time>2019-08-14T10:06:28Z</time>
      </trkpt>
      <trkpt lat="41.0147860" lon="-4.7132880">
        <ele>837.8</ele>
        <time>2019-08-14T10:06:29Z</time>
      </trkpt>
      <trkpt lat="41.0148450" lon="-4.7132840">
        <ele>837.8</ele>
        <time>2019-08-14T10:06:30Z</time>
      </trkpt>
      <trkpt lat="41.0149030" lon="-4.7132790">
        <ele>837.9</ele>
        <time>2019-08-14T10:06:31Z</time>
      </trkpt>
      <trkpt lat="41.0149600" lon="-4.7132720">
        <ele>838.0</ele>
        <time>2019-08-14T10:06:32Z</time>
      </trkpt>
      <trkpt lat="41.0150160" lon="-4.7132660">
        <ele>838.2</ele>
        <time>2019-08-14T10:06:33Z</time>
      </trkpt>
      <trkpt lat="41.0150710" lon="-4.7132600">
        <ele>838.2</ele>
        <time>2019-08-14T10:06:34Z</time>
      </trkpt>
      <trkpt lat="41.0151270" lon="-4.7132510">
        <ele>838.3</ele>
        <time>2019-08-14T10:06:35Z</time>
      </trkpt>
      <trkpt lat="41.0151840" lon="-4.7132440">
        <ele>838.3</ele>
        <time>2019-08-14T10:06:36Z</time>
      </trkpt>
      <trkpt lat="41.0152420" lon="-4.7132390">
        <ele>838.4</ele>
        <time>2019-08-14T10:06:37Z</time>
      </trkpt>
      <trkpt lat="41.0153010" lon="-4.7132330">
        <ele>838.4</ele>
        <time>2019-08-14T10:06:38Z</time>
      </trkpt>
      <trkpt lat="41.0153600" lon="-4.7132280">
        <ele>838.4</ele>
        <time>2019-08-14T10:06:39Z</time>
      </trkpt>
      <trkpt lat="41.0154210" lon="-4.7132200">
        <ele>838.4</ele>
        <time>2019-08-14T10:06:40Z</time>
      </trkpt>
      <trkpt lat="41.0154810" lon="-4.7132130">
        <ele>838.4</ele>
        <time>2019-08-14T10:06:41Z</time>
      </trkpt>
      <trkpt lat="41.0155420" lon="-4.7132070">
        <ele>838.4</ele>
        <time>2019-08-14T10:06:42Z</time>
      </trkpt>
      <trkpt lat="41.0156010" lon="-4.7132020">
        <ele>838.4</ele>
        <time>2019-08-14T10:06:43Z</time>
      </trkpt>
      <trkpt lat="41.0156600" lon="-4.7131980">
        <ele>838.4</ele>
        <time>2019-08-14T10:06:44Z</time>
      </trkpt>
      <trkpt lat="41.0157170" lon="-4.7131930">
        <ele>838.4</ele>
        <time>2019-08-14T10:06:45Z</time>
      </trkpt>
      <trkpt lat="41.0157740" lon="-4.7131870">
        <ele>838.5</ele>
        <time>2019-08-14T10:06:46Z</time>
      </trkpt>
      <trkpt lat="41.0158320" lon="-4.7131810">
        <ele>838.5</ele>
        <time>2019-08-14T10:06:47Z</time>
      </trkpt>
      <trkpt lat="41.0158890" lon="-4.7131760">
        <ele>838.5</ele>
        <time>2019-08-14T10:06:48Z</time>
      </trkpt>
      <trkpt lat="41.0159460" lon="-4.7131710">
        <ele>838.5</ele>
        <time>2019-08-14T10:06:49Z</time>
      </trkpt>
      <trkpt lat="41.0160020" lon="-4.7131660">
        <ele>838.5</ele>
        <time>2019-08-14T10:06:50Z</time>
      </trkpt>
      <trkpt lat="41.0160570" lon="-4.7131610">
        <ele>838.5</ele>
        <time>2019-08-14T10:06:51Z</time>
      </trkpt>
      <trkpt lat="41.0161120" lon="-4.7131570">
        <ele>838.5</ele>
        <time>2019-08-14T10:06:52Z</time>
      </trkpt>
      <trkpt lat="41.0161670" lon="-4.7131520">
        <ele>838.6</ele>
        <time>2019-08-14T10:06:53Z</time>
      </trkpt>
      <trkpt lat="41.0162230" lon="-4.7131480">
        <ele>838.6</ele>
        <time>2019-08-14T10:06:54Z</time>
      </trkpt>
      <trkpt lat="41.0162790" lon="-4.7131430">
        <ele>838.6</ele>
        <time>2019-08-14T10:06:55Z</time>
      </trkpt>
      <trkpt lat="41.0163370" lon="-4.7131400">
        <ele>838.5</ele>
        <time>2019-08-14T10:06:56Z</time>
      </trkpt>
      <trkpt lat="41.0164000" lon="-4.7131410">
        <ele>838.5</ele>
        <time>2019-08-14T10:06:57Z</time>
      </trkpt>
      <trkpt lat="41.0164620" lon="-4.7131410">
        <ele>838.5</ele>
        <time>2019-08-14T10:06:58Z</time>
      </trkpt>
      <trkpt lat="41.0165240" lon="-4.7131400">
        <ele>838.5</ele>
        <time>2019-08-14T10:06:59Z</time>
      </trkpt>
      <trkpt lat="41.0165870" lon="-4.7131360">
        <ele>838.5</ele>
        <time>2019-08-14T10:07:00Z</time>
      </trkpt>
      <trkpt lat="41.0166480" lon="-4.7131330">
        <ele>838.5</ele>
        <time>2019-08-14T10:07:01Z</time>
      </trkpt>
      <trkpt lat="41.0167090" lon="-4.7131300">
        <ele>838.5</ele>
        <time>2019-08-14T10:07:02Z</time>
      </trkpt>
      <trkpt lat="41.0167700" lon="-4.7131270">
        <ele>838.5</ele>
        <time>2019-08-14T10:07:03Z</time>
      </trkpt>
      <trkpt lat="41.0168300" lon="-4.7131260">
        <ele>838.5</ele>
        <time>2019-08-14T10:07:04Z</time>
      </trkpt>
      <trkpt lat="41.0168890" lon="-4.7131260">
        <ele>838.5</ele>
        <time>2019-08-14T10:07:05Z</time>
      </trkpt>
      <trkpt lat="41.0169470" lon="-4.7131270">
        <ele>838.5</ele>
        <time>2019-08-14T10:07:06Z</time>
      </trkpt>
      <trkpt lat="41.0170050" lon="-4.7131300">
        <ele>838.5</ele>
        <time>2019-08-14T10:07:07Z</time>
      </trkpt>
      <trkpt lat="41.0170610" lon="-4.7131310">
        <ele>838.5</ele>
        <time>2019-08-14T10:07:08Z</time>
      </trkpt>
      <trkpt lat="41.0171160" lon="-4.7131310">
        <ele>838.6</ele>
        <time>2019-08-14T10:07:09Z</time>
      </trkpt>
      <trkpt lat="41.0171730" lon="-4.7131320">
        <ele>838.6</ele>
        <time>2019-08-14T10:07:10Z</time>
      </trkpt>
      <trkpt lat="41.0172300" lon="-4.7131350">
        <ele>838.6</ele>
        <time>2019-08-14T10:07:11Z</time>
      </trkpt>
      <trkpt lat="41.0172870" lon="-4.7131380">
        <ele>838.6</ele>
        <time>2019-08-14T10:07:12Z</time>
      </trkpt>
      <trkpt lat="41.0173440" lon="-4.7131420">
        <ele>838.5</ele>
        <time>2019-08-14T10:07:13Z</time>
      </trkpt>
      <trkpt lat="41.0174020" lon="-4.7131470">
        <ele>838.4</ele>
        <time>2019-08-14T10:07:14Z</time>
      </trkpt>
      <trkpt lat="41.0174580" lon="-4.7131540">
        <ele>838.4</ele>
        <time>2019-08-14T10:07:15Z</time>
      </trkpt>
      <trkpt lat="41.0175160" lon="-4.7131600">
        <ele>838.2</ele>
        <time>2019-08-14T10:07:16Z</time>
      </trkpt>
      <trkpt lat="41.0175720" lon="-4.7131660">
        <ele>838.1</ele>
        <time>2019-08-14T10:07:17Z</time>
      </trkpt>
      <trkpt lat="41.0176300" lon="-4.7131700">
        <ele>837.9</ele>
        <time>2019-08-14T10:07:18Z</time>
      </trkpt>
      <trkpt lat="41.0176880" lon="-4.7131770">
        <ele>837.8</ele>
        <time>2019-08-14T10:07:19Z</time>
      </trkpt>
      <trkpt lat="41.0177460" lon="-4.7131830">
        <ele>837.7</ele>
        <time>2019-08-14T10:07:20Z</time>
      </trkpt>
      <trkpt lat="41.0178030" lon="-4.7131890">
        <ele>837.6</ele>
        <time>2019-08-14T10:07:21Z</time>
      </trkpt>
      <trkpt lat="41.0178580" lon="-4.7131950">
        <ele>837.6</ele>
        <time>2019-08-14T10:07:22Z</time>
      </trkpt>
      <trkpt lat="41.0179120" lon="-4.7132010">
        <ele>837.6</ele>
        <time>2019-08-14T10:07:23Z</time>
      </trkpt>
      <trkpt lat="41.0179660" lon="-4.7132070">
        <ele>837.6</ele>
        <time>2019-08-14T10:07:24Z</time>
      </trkpt>
      <trkpt lat="41.0180200" lon="-4.7132130">
        <ele>837.6</ele>
        <time>2019-08-14T10:07:25Z</time>
      </trkpt>
      <trkpt lat="41.0180750" lon="-4.7132170">
        <ele>837.5</ele>
        <time>2019-08-14T10:07:26Z</time>
      </trkpt>
      <trkpt lat="41.0181310" lon="-4.7132220">
        <ele>837.5</ele>
        <time>2019-08-14T10:07:27Z</time>
      </trkpt>
      <trkpt lat="41.0181880" lon="-4.7132270">
        <ele>837.4</ele>
        <time>2019-08-14T10:07:28Z</time>
      </trkpt>
      <trkpt lat="41.0182440" lon="-4.7132310">
        <ele>837.3</ele>
        <time>2019-08-14T10:07:29Z</time>
      </trkpt>
      <trkpt lat="41.0183020" lon="-4.7132350">
        <ele>837.2</ele>
        <time>2019-08-14T10:07:30Z</time>
      </trkpt>
      <trkpt lat="41.0183600" lon="-4.7132420">
        <ele>837.0</ele>
        <time>2019-08-14T10:07:31Z</time>
      </trkpt>
      <trkpt lat="41.0184180" lon="-4.7132480">
        <ele>836.8</ele>
        <time>2019-08-14T10:07:32Z</time>
      </trkpt>
      <trkpt lat="41.0184770" lon="-4.7132540">
        <ele>836.6</ele>
        <time>2019-08-14T10:07:33Z</time>
      </trkpt>
      <trkpt lat="41.0185370" lon="-4.7132590">
        <ele>836.3</ele>
        <time>2019-08-14T10:07:34Z</time>
      </trkpt>
      <trkpt lat="41.0185950" lon="-4.7132660">
        <ele>836.1</ele>
        <time>2019-08-14T10:07:35Z</time>
      </trkpt>
      <trkpt lat="41.0186540" lon="-4.7132700">
        <ele>835.9</ele>
        <time>2019-08-14T10:07:36Z</time>
      </trkpt>
      <trkpt lat="41.0187110" lon="-4.7132750">
        <ele>835.8</ele>
        <time>2019-08-14T10:07:37Z</time>
      </trkpt>
      <trkpt lat="41.0187680" lon="-4.7132800">
        <ele>835.7</ele>
        <time>2019-08-14T10:07:38Z</time>
      </trkpt>
      <trkpt lat="41.0188250" lon="-4.7132860">
        <ele>835.6</ele>
        <time>2019-08-14T10:07:39Z</time>
      </trkpt>
      <trkpt lat="41.0188830" lon="-4.7132910">
        <ele>835.6</ele>
        <time>2019-08-14T10:07:40Z</time>
      </trkpt>
      <trkpt lat="41.0189420" lon="-4.7132960">
        <ele>835.5</ele>
        <time>2019-08-14T10:07:41Z</time>
      </trkpt>
      <trkpt lat="41.0190000" lon="-4.7133020">
        <ele>835.5</ele>
        <time>2019-08-14T10:07:42Z</time>
      </trkpt>
      <trkpt lat="41.0190580" lon="-4.7133090">
        <ele>835.5</ele>
        <time>2019-08-14T10:07:43Z</time>
      </trkpt>
      <trkpt lat="41.0191180" lon="-4.7133150">
        <ele>835.4</ele>
        <time>2019-08-14T10:07:44Z</time>
      </trkpt>
      <trkpt lat="41.0191790" lon="-4.7133210">
        <ele>835.4</ele>
        <time>2019-08-14T10:07:45Z</time>
      </trkpt>
      <trkpt lat="41.0192400" lon="-4.7133270">
        <ele>835.4</ele>
        <time>2019-08-14T10:07:46Z</time>
      </trkpt>
      <trkpt lat="41.0192990" lon="-4.7133340">
        <ele>835.4</ele>
        <time>2019-08-14T10:07:47Z</time>
      </trkpt>
      <trkpt lat="41.0193580" lon="-4.7133400">
        <ele>835.3</ele>
        <time>2019-08-14T10:07:48Z</time>
      </trkpt>
      <trkpt lat="41.0194140" lon="-4.7133460">
        <ele>835.3</ele>
        <time>2019-08-14T10:07:49Z</time>
      </trkpt>
      <trkpt lat="41.0194700" lon="-4.7133500">
        <ele>835.3</ele>
        <time>2019-08-14T10:07:50Z</time>
      </trkpt>
      <trkpt lat="41.0195260" lon="-4.7133550">
        <ele>835.2</ele>
        <time>2019-08-14T10:07:51Z</time>
      </trkpt>
      <trkpt lat="41.0195840" lon="-4.7133590">
        <ele>835.1</ele>
        <time>2019-08-14T10:07:52Z</time>
      </trkpt>
      <trkpt lat="41.0196400" lon="-4.7133630">
        <ele>835.1</ele>
        <time>2019-08-14T10:07:53Z</time>
      </trkpt>
      <trkpt lat="41.0196980" lon="-4.7133680">
        <ele>835.1</ele>
        <time>2019-08-14T10:07:54Z</time>
      </trkpt>
      <trkpt lat="41.0197550" lon="-4.7133740">
        <ele>835.0</ele>
        <time>2019-08-14T10:07:55Z</time>
      </trkpt>
      <trkpt lat="41.0198120" lon="-4.7133790">
        <ele>835.0</ele>
        <time>2019-08-14T10:07:56Z</time>
      </trkpt>
      <trkpt lat="41.0198710" lon="-4.7133850">
        <ele>835.1</ele>
        <time>2019-08-14T10:07:57Z</time>
      </trkpt>
      <trkpt lat="41.0199290" lon="-4.7133910">
        <ele>835.1</ele>
        <time>2019-08-14T10:07:58Z</time>
      </trkpt>
      <trkpt lat="41.0199890" lon="-4.7133970">
        <ele>835.2</ele>
        <time>2019-08-14T10:07:59Z</time>
      </trkpt>
      <trkpt lat="41.0200470" lon="-4.7134010">
        <ele>835.3</ele>
        <time>2019-08-14T10:08:00Z</time>
      </trkpt>
      <trkpt lat="41.0201040" lon="-4.7134060">
        <ele>835.4</ele>
        <time>2019-08-14T10:08:01Z</time>
      </trkpt>
      <trkpt lat="41.0201590" lon="-4.7134130">
        <ele>835.4</ele>
        <time>2019-08-14T10:08:02Z</time>
      </trkpt>
      <trkpt lat="41.0202140" lon="-4.7134190">
        <ele>835.5</ele>
        <time>2019-08-14T10:08:03Z</time>
      </trkpt>
      <trkpt lat="41.0202660" lon="-4.7134210">
        <ele>835.6</ele>
        <time>2019-08-14T10:08:04Z</time>
      </trkpt>
      <trkpt lat="41.0203180" lon="-4.7134240">
        <ele>835.7</ele>
        <time>2019-08-14T10:08:05Z</time>
      </trkpt>
      <trkpt lat="41.0203680" lon="-4.7134280">
        <ele>835.8</ele>
        <time>2019-08-14T10:08:06Z</time>
      </trkpt>
      <trkpt lat="41.0204180" lon="-4.7134320">
        <ele>835.9</ele>
        <time>2019-08-14T10:08:07Z</time>
      </trkpt>
      <trkpt lat="41.0204670" lon="-4.7134340">
        <ele>836.0</ele>
        <time>2019-08-14T10:08:08Z</time>
      </trkpt>
      <trkpt lat="41.0205170" lon="-4.7134370">
        <ele>836.1</ele>
        <time>2019-08-14T10:08:09Z</time>
      </trkpt>
      <trkpt lat="41.0205670" lon="-4.7134390">
        <ele>836.1</ele>
        <time>2019-08-14T10:08:10Z</time>
      </trkpt>
      <trkpt lat="41.0206190" lon="-4.7134400">
        <ele>836.1</ele>
        <time>2019-08-14T10:08:11Z</time>
      </trkpt>
      <trkpt lat="41.0206720" lon="-4.7134400">
        <ele>836.1</ele>
        <time>2019-08-14T10:08:12Z</time>
      </trkpt>
      <trkpt lat="41.0207240" lon="-4.7134420">
        <ele>836.1</ele>
        <time>2019-08-14T10:08:13Z</time>
      </trkpt>
      <trkpt lat="41.0207770" lon="-4.7134410">
        <ele>836.1</ele>
        <time>2019-08-14T10:08:14Z</time>
      </trkpt>
      <trkpt lat="41.0208320" lon="-4.7134400">
        <ele>836.1</ele>
        <time>2019-08-14T10:08:15Z</time>
      </trkpt>
      <trkpt lat="41.0208870" lon="-4.7134390">
        <ele>836.0</ele>
        <time>2019-08-14T10:08:16Z</time>
      </trkpt>
      <trkpt lat="41.0209420" lon="-4.7134380">
        <ele>836.0</ele>
        <time>2019-08-14T10:08:17Z</time>
      </trkpt>
      <trkpt lat="41.0209980" lon="-4.7134370">
        <ele>836.0</ele>
        <time>2019-08-14T10:08:18Z</time>
      </trkpt>
      <trkpt lat="41.0210530" lon="-4.7134350">
        <ele>836.0</ele>
        <time>2019-08-14T10:08:19Z</time>
      </trkpt>
      <trkpt lat="41.0211070" lon="-4.7134350">
        <ele>835.9</ele>
        <time>2019-08-14T10:08:20Z</time>
      </trkpt>
      <trkpt lat="41.0211620" lon="-4.7134340">
        <ele>835.9</ele>
        <time>2019-08-14T10:08:21Z</time>
      </trkpt>
      <trkpt lat="41.0212180" lon="-4.7134330">
        <ele>835.9</ele>
        <time>2019-08-14T10:08:22Z</time>
      </trkpt>
      <trkpt lat="41.0212760" lon="-4.7134300">
        <ele>835.9</ele>
        <time>2019-08-14T10:08:23Z</time>
      </trkpt>
      <trkpt lat="41.0213310" lon="-4.7134280">
        <ele>835.9</ele>
        <time>2019-08-14T10:08:24Z</time>
      </trkpt>
      <trkpt lat="41.0213840" lon="-4.7134280">
        <ele>835.8</ele>
        <time>2019-08-14T10:08:25Z</time>
      </trkpt>
      <trkpt lat="41.0214370" lon="-4.7134280">
        <ele>835.7</ele>
        <time>2019-08-14T10:08:26Z</time>
      </trkpt>
      <trkpt lat="41.0214890" lon="-4.7134280">
        <ele>835.6</ele>
        <time>2019-08-14T10:08:27Z</time>
      </trkpt>
      <trkpt lat="41.0215420" lon="-4.7134260">
        <ele>835.5</ele>
        <time>2019-08-14T10:08:28Z</time>
      </trkpt>
      <trkpt lat="41.0215970" lon="-4.7134220">
        <ele>835.5</ele>
        <time>2019-08-14T10:08:29Z</time>
      </trkpt>
      <trkpt lat="41.0216550" lon="-4.7134200">
        <ele>835.4</ele>
        <time>2019-08-14T10:08:30Z</time>
      </trkpt>
      <trkpt lat="41.0217150" lon="-4.7134170">
        <ele>835.3</ele>
        <time>2019-08-14T10:08:31Z</time>
      </trkpt>
      <trkpt lat="41.0217760" lon="-4.7134170">
        <ele>835.2</ele>
        <time>2019-08-14T10:08:32Z</time>
      </trkpt>
      <trkpt lat="41.0218380" lon="-4.7134160">
        <ele>835.0</ele>
        <time>2019-08-14T10:08:33Z</time>
      </trkpt>
      <trkpt lat="41.0219020" lon="-4.7134130">
        <ele>834.9</ele>
        <time>2019-08-14T10:08:34Z</time>
      </trkpt>
      <trkpt lat="41.0219660" lon="-4.7134100">
        <ele>834.7</ele>
        <time>2019-08-14T10:08:35Z</time>
      </trkpt>
      <trkpt lat="41.0220300" lon="-4.7134080">
        <ele>834.6</ele>
        <time>2019-08-14T10:08:36Z</time>
      </trkpt>
      <trkpt lat="41.0220940" lon="-4.7134070">
        <ele>834.4</ele>
        <time>2019-08-14T10:08:37Z</time>
      </trkpt>
      <trkpt lat="41.0221600" lon="-4.7134060">
        <ele>834.2</ele>
        <time>2019-08-14T10:08:38Z</time>
      </trkpt>
      <trkpt lat="41.0222250" lon="-4.7134040">
        <ele>834.0</ele>
        <time>2019-08-14T10:08:39Z</time>
      </trkpt>
      <trkpt lat="41.0222890" lon="-4.7134020">
        <ele>833.8</ele>
        <time>2019-08-14T10:08:40Z</time>
      </trkpt>
      <trkpt lat="41.0223530" lon="-4.7134020">
        <ele>833.7</ele>
        <time>2019-08-14T10:08:41Z</time>
      </trkpt>
      <trkpt lat="41.0224160" lon="-4.7134010">
        <ele>833.7</ele>
        <time>2019-08-14T10:08:42Z</time>
      </trkpt>
      <trkpt lat="41.0224790" lon="-4.7133980">
        <ele>833.7</ele>
        <time>2019-08-14T10:08:43Z</time>
      </trkpt>
      <trkpt lat="41.0225420" lon="-4.7133970">
        <ele>833.7</ele>
        <time>2019-08-14T10:08:44Z</time>
      </trkpt>
      <trkpt lat="41.0226040" lon="-4.7133950">
        <ele>833.8</ele>
        <time>2019-08-14T10:08:45Z</time>
      </trkpt>
      <trkpt lat="41.0226650" lon="-4.7133910">
        <ele>833.9</ele>
        <time>2019-08-14T10:08:46Z</time>
      </trkpt>
      <trkpt lat="41.0227260" lon="-4.7133870">
        <ele>834.0</ele>
        <time>2019-08-14T10:08:47Z</time>
      </trkpt>
      <trkpt lat="41.0227870" lon="-4.7133840">
        <ele>834.2</ele>
        <time>2019-08-14T10:08:48Z</time>
      </trkpt>
      <trkpt lat="41.0228480" lon="-4.7133820">
        <ele>834.3</ele>
        <time>2019-08-14T10:08:49Z</time>
      </trkpt>
      <trkpt lat="41.0229090" lon="-4.7133800">
        <ele>834.4</ele>
        <time>2019-08-14T10:08:50Z</time>
      </trkpt>
      <trkpt lat="41.0229690" lon="-4.7133780">
        <ele>834.5</ele>
        <time>2019-08-14T10:08:51Z</time>
      </trkpt>
      <trkpt lat="41.0230280" lon="-4.7133770">
        <ele>834.6</ele>
        <time>2019-08-14T10:08:52Z</time>
      </trkpt>
      <trkpt lat="41.0230860" lon="-4.7133750">
        <ele>834.6</ele>
        <time>2019-08-14T10:08:53Z</time>
      </trkpt>
      <trkpt lat="41.0231460" lon="-4.7133720">
        <ele>834.7</ele>
        <time>2019-08-14T10:08:54Z</time>
      </trkpt>
      <trkpt lat="41.0232040" lon="-4.7133700">
        <ele>834.8</ele>
        <time>2019-08-14T10:08:55Z</time>
      </trkpt>
      <trkpt lat="41.0232630" lon="-4.7133690">
        <ele>834.8</ele>
        <time>2019-08-14T10:08:56Z</time>
      </trkpt>
      <trkpt lat="41.0233200" lon="-4.7133670">
        <ele>834.9</ele>
        <time>2019-08-14T10:08:57Z</time>
      </trkpt>
      <trkpt lat="41.0233790" lon="-4.7133640">
        <ele>835.0</ele>
        <time>2019-08-14T10:08:58Z</time>
      </trkpt>
      <trkpt lat="41.0234370" lon="-4.7133610">
        <ele>835.0</ele>
        <time>2019-08-14T10:08:59Z</time>
      </trkpt>
      <trkpt lat="41.0234960" lon="-4.7133590">
        <ele>835.1</ele>
        <time>2019-08-14T10:09:00Z</time>
      </trkpt>
      <trkpt lat="41.0235560" lon="-4.7133580">
        <ele>835.1</ele>
        <time>2019-08-14T10:09:01Z</time>
      </trkpt>
      <trkpt lat="41.0236150" lon="-4.7133540">
        <ele>835.1</ele>
        <time>2019-08-14T10:09:02Z</time>
      </trkpt>
      <trkpt lat="41.0236730" lon="-4.7133520">
        <ele>835.1</ele>
        <time>2019-08-14T10:09:03Z</time>
      </trkpt>
      <trkpt lat="41.0237310" lon="-4.7133510">
        <ele>835.1</ele>
        <time>2019-08-14T10:09:04Z</time>
      </trkpt>
      <trkpt lat="41.0237880" lon="-4.7133490">
        <ele>835.0</ele>
        <time>2019-08-14T10:09:05Z</time>
      </trkpt>
      <trkpt lat="41.0238440" lon="-4.7133470">
        <ele>834.9</ele>
        <time>2019-08-14T10:09:06Z</time>
      </trkpt>
      <trkpt lat="41.0238990" lon="-4.7133450">
        <ele>834.8</ele>
        <time>2019-08-14T10:09:07Z</time>
      </trkpt>
      <trkpt lat="41.0239540" lon="-4.7133460">
        <ele>834.7</ele>
        <time>2019-08-14T10:09:08Z</time>
      </trkpt>
      <trkpt lat="41.0240090" lon="-4.7133460">
        <ele>834.6</ele>
        <time>2019-08-14T10:09:09Z</time>
      </trkpt>
      <trkpt lat="41.0240640" lon="-4.7133440">
        <ele>834.4</ele>
        <time>2019-08-14T10:09:10Z</time>
      </trkpt>
      <trkpt lat="41.0241200" lon="-4.7133400">
        <ele>834.3</ele>
        <time>2019-08-14T10:09:11Z</time>
      </trkpt>
      <trkpt lat="41.0241750" lon="-4.7133380">
        <ele>834.2</ele>
        <time>2019-08-14T10:09:12Z</time>
      </trkpt>
      <trkpt lat="41.0242320" lon="-4.7133350">
        <ele>834.1</ele>
        <time>2019-08-14T10:09:13Z</time>
      </trkpt>
      <trkpt lat="41.0242890" lon="-4.7133330">
        <ele>834.0</ele>
        <time>2019-08-14T10:09:14Z</time>
      </trkpt>
      <trkpt lat="41.0243460" lon="-4.7133310">
        <ele>834.0</ele>
        <time>2019-08-14T10:09:15Z</time>
      </trkpt>
      <trkpt lat="41.0244040" lon="-4.7133300">
        <ele>833.9</ele>
        <time>2019-08-14T10:09:16Z</time>
      </trkpt>
      <trkpt lat="41.0244620" lon="-4.7133300">
        <ele>833.9</ele>
        <time>2019-08-14T10:09:17Z</time>
      </trkpt>
      <trkpt lat="41.0245190" lon="-4.7133260">
        <ele>833.9</ele>
        <time>2019-08-14T10:09:18Z</time>
      </trkpt>
      <trkpt lat="41.0245770" lon="-4.7133210">
        <ele>833.9</ele>
        <time>2019-08-14T10:09:19Z</time>
      </trkpt>
      <trkpt lat="41.0246350" lon="-4.7133190">
        <ele>833.9</ele>
        <time>2019-08-14T10:09:20Z</time>
      </trkpt>
      <trkpt lat="41.0246930" lon="-4.7133190">
        <ele>833.9</ele>
        <time>2019-08-14T10:09:21Z</time>
      </trkpt>
      <trkpt lat="41.0247520" lon="-4.7133170">
        <ele>834.0</ele>
        <time>2019-08-14T10:09:22Z</time>
      </trkpt>
      <trkpt lat="41.0248100" lon="-4.7133150">
        <ele>834.1</ele>
        <time>2019-08-14T10:09:23Z</time>
      </trkpt>
      <trkpt lat="41.0248680" lon="-4.7133130">
        <ele>834.2</ele>
        <time>2019-08-14T10:09:24Z</time>
      </trkpt>
      <trkpt lat="41.0249270" lon="-4.7133110">
        <ele>834.2</ele>
        <time>2019-08-14T10:09:25Z</time>
      </trkpt>
      <trkpt lat="41.0249870" lon="-4.7133090">
        <ele>834.3</ele>
        <time>2019-08-14T10:09:26Z</time>
      </trkpt>
      <trkpt lat="41.0250450" lon="-4.7133080">
        <ele>834.4</ele>
        <time>2019-08-14T10:09:27Z</time>
      </trkpt>
      <trkpt lat="41.0251040" lon="-4.7133050">
        <ele>834.5</ele>
        <time>2019-08-14T10:09:28Z</time>
      </trkpt>
      <trkpt lat="41.0251620" lon="-4.7133030">
        <ele>834.5</ele>
        <time>2019-08-14T10:09:29Z</time>
      </trkpt>
      <trkpt lat="41.0252220" lon="-4.7133010">
        <ele>834.6</ele>
        <time>2019-08-14T10:09:30Z</time>
      </trkpt>
      <trkpt lat="41.0252810" lon="-4.7132990">
        <ele>834.6</ele>
        <time>2019-08-14T10:09:31Z</time>
      </trkpt>
      <trkpt lat="41.0253420" lon="-4.7132970">
        <ele>834.6</ele>
        <time>2019-08-14T10:09:32Z</time>
      </trkpt>
      <trkpt lat="41.0254030" lon="-4.7132950">
        <ele>834.7</ele>
        <time>2019-08-14T10:09:33Z</time>
      </trkpt>
      <trkpt lat="41.0254640" lon="-4.7132930">
        <ele>834.7</ele>
        <time>2019-08-14T10:09:34Z</time>
      </trkpt>
      <trkpt lat="41.0255250" lon="-4.7132900">
        <ele>834.7</ele>
        <time>2019-08-14T10:09:35Z</time>
      </trkpt>
      <trkpt lat="41.0255870" lon="-4.7132880">
        <ele>834.7</ele>
        <time>2019-08-14T10:09:36Z</time>
      </trkpt>
      <trkpt lat="41.0256500" lon="-4.7132870">
        <ele>834.6</ele>
        <time>2019-08-14T10:09:37Z</time>
      </trkpt>
      <trkpt lat="41.0257120" lon="-4.7132860">
        <ele>834.6</ele>
        <time>2019-08-14T10:09:38Z</time>
      </trkpt>
      <trkpt lat="41.0257760" lon="-4.7132830">
        <ele>834.5</ele>
        <time>2019-08-14T10:09:39Z</time>
      </trkpt>
      <trkpt lat="41.0258400" lon="-4.7132790">
        <ele>834.4</ele>
        <time>2019-08-14T10:09:40Z</time>
      </trkpt>
      <trkpt lat="41.0259020" lon="-4.7132740">
        <ele>834.3</ele>
        <time>2019-08-14T10:09:41Z</time>
      </trkpt>
      <trkpt lat="41.0259640" lon="-4.7132730">
        <ele>834.2</ele>
        <time>2019-08-14T10:09:42Z</time>
      </trkpt>
      <trkpt lat="41.0260270" lon="-4.7132730">
        <ele>834.1</ele>
        <time>2019-08-14T10:09:43Z</time>
      </trkpt>
      <trkpt lat="41.0260890" lon="-4.7132720">
        <ele>834.0</ele>
        <time>2019-08-14T10:09:44Z</time>
      </trkpt>
      <trkpt lat="41.0261520" lon="-4.7132680">
        <ele>833.9</ele>
        <time>2019-08-14T10:09:45Z</time>
      </trkpt>
      <trkpt lat="41.0262140" lon="-4.7132660">
        <ele>833.9</ele>
        <time>2019-08-14T10:09:46Z</time>
      </trkpt>
      <trkpt lat="41.0262780" lon="-4.7132650">
        <ele>833.8</ele>
        <time>2019-08-14T10:09:47Z</time>
      </trkpt>
      <trkpt lat="41.0263410" lon="-4.7132630">
        <ele>833.7</ele>
        <time>2019-08-14T10:09:48Z</time>
      </trkpt>
      <trkpt lat="41.0264050" lon="-4.7132600">
        <ele>833.7</ele>
        <time>2019-08-14T10:09:49Z</time>
      </trkpt>
      <trkpt lat="41.0264700" lon="-4.7132560">
        <ele>833.7</ele>
        <time>2019-08-14T10:09:50Z</time>
      </trkpt>
      <trkpt lat="41.0265330" lon="-4.7132530">
        <ele>833.6</ele>
        <time>2019-08-14T10:09:51Z</time>
      </trkpt>
      <trkpt lat="41.0265960" lon="-4.7132500">
        <ele>833.6</ele>
        <time>2019-08-14T10:09:52Z</time>
      </trkpt>
      <trkpt lat="41.0266600" lon="-4.7132470">
        <ele>833.6</ele>
        <time>2019-08-14T10:09:53Z</time>
      </trkpt>
      <trkpt lat="41.0267230" lon="-4.7132450">
        <ele>833.5</ele>
        <time>2019-08-14T10:09:54Z</time>
      </trkpt>
      <trkpt lat="41.0267870" lon="-4.7132430">
        <ele>833.5</ele>
        <time>2019-08-14T10:09:55Z</time>
      </trkpt>
      <trkpt lat="41.0268500" lon="-4.7132420">
        <ele>833.5</ele>
        <time>2019-08-14T10:09:56Z</time>
      </trkpt>
      <trkpt lat="41.0269140" lon="-4.7132400">
        <ele>833.5</ele>
        <time>2019-08-14T10:09:57Z</time>
      </trkpt>
      <trkpt lat="41.0269770" lon="-4.7132380">
        <ele>833.6</ele>
        <time>2019-08-14T10:09:58Z</time>
      </trkpt>
      <trkpt lat="41.0270400" lon="-4.7132360">
        <ele>833.7</ele>
        <time>2019-08-14T10:09:59Z</time>
      </trkpt>
      <trkpt lat="41.0271030" lon="-4.7132360">
        <ele>833.8</ele>
        <time>2019-08-14T10:10:00Z</time>
      </trkpt>
      <trkpt lat="41.0271670" lon="-4.7132350">
        <ele>833.9</ele>
        <time>2019-08-14T10:10:01Z</time>
      </trkpt>
      <trkpt lat="41.0272300" lon="-4.7132320">
        <ele>834.1</ele>
        <time>2019-08-14T10:10:02Z</time>
      </trkpt>
      <trkpt lat="41.0272940" lon="-4.7132300">
        <ele>834.2</ele>
        <time>2019-08-14T10:10:03Z</time>
      </trkpt>
      <trkpt lat="41.0273580" lon="-4.7132290">
        <ele>834.4</ele>
        <time>2019-08-14T10:10:04Z</time>
      </trkpt>
      <trkpt lat="41.0274230" lon="-4.7132290">
        <ele>834.4</ele>
        <time>2019-08-14T10:10:05Z</time>
      </trkpt>
      <trkpt lat="41.0274880" lon="-4.7132270">
        <ele>834.5</ele>
        <time>2019-08-14T10:10:06Z</time>
      </trkpt>
      <trkpt lat="41.0275530" lon="-4.7132240">
        <ele>834.6</ele>
        <time>2019-08-14T10:10:07Z</time>
      </trkpt>
      <trkpt lat="41.0276180" lon="-4.7132220">
        <ele>834.6</ele>
        <time>2019-08-14T10:10:08Z</time>
      </trkpt>
      <trkpt lat="41.0276830" lon="-4.7132200">
        <ele>834.6</ele>
        <time>2019-08-14T10:10:09Z</time>
      </trkpt>
      <trkpt lat="41.0277460" lon="-4.7132180">
        <ele>834.6</ele>
        <time>2019-08-14T10:10:10Z</time>
      </trkpt>
      <trkpt lat="41.0278070" lon="-4.7132180">
        <ele>834.6</ele>
        <time>2019-08-14T10:10:11Z</time>
      </trkpt>
      <trkpt lat="41.0278670" lon="-4.7132170">
        <ele>834.6</ele>
        <time>2019-08-14T10:10:12Z</time>
      </trkpt>
      <trkpt lat="41.0279270" lon="-4.7132140">
        <ele>834.5</ele>
        <time>2019-08-14T10:10:13Z</time>
      </trkpt>
      <trkpt lat="41.0279860" lon="-4.7132100">
        <ele>834.4</ele>
        <time>2019-08-14T10:10:14Z</time>
      </trkpt>
      <trkpt lat="41.0280460" lon="-4.7132060">
        <ele>834.4</ele>
        <time>2019-08-14T10:10:15Z</time>
      </trkpt>
      <trkpt lat="41.0281070" lon="-4.7132020">
        <ele>834.3</ele>
        <time>2019-08-14T10:10:16Z</time>
      </trkpt>
      <trkpt lat="41.0281680" lon="-4.7131990">
        <ele>834.2</ele>
        <time>2019-08-14T10:10:17Z</time>
      </trkpt>
      <trkpt lat="41.0282280" lon="-4.7131990">
        <ele>834.2</ele>
        <time>2019-08-14T10:10:18Z</time>
      </trkpt>
      <trkpt lat="41.0282890" lon="-4.7131980">
        <ele>834.2</ele>
        <time>2019-08-14T10:10:19Z</time>
      </trkpt>
      <trkpt lat="41.0283510" lon="-4.7131960">
        <ele>834.2</ele>
        <time>2019-08-14T10:10:20Z</time>
      </trkpt>
      <trkpt lat="41.0284110" lon="-4.7131920">
        <ele>834.2</ele>
        <time>2019-08-14T10:10:21Z</time>
      </trkpt>
      <trkpt lat="41.0284730" lon="-4.7131890">
        <ele>834.2</ele>
        <time>2019-08-14T10:10:22Z</time>
      </trkpt>
      <trkpt lat="41.0285340" lon="-4.7131860">
        <ele>834.2</ele>
        <time>2019-08-14T10:10:23Z</time>
      </trkpt>
      <trkpt lat="41.0285950" lon="-4.7131850">
        <ele>834.3</ele>
        <time>2019-08-14T10:10:24Z</time>
      </trkpt>
      <trkpt lat="41.0286560" lon="-4.7131840">
        <ele>834.3</ele>
        <time>2019-08-14T10:10:25Z</time>
      </trkpt>
      <trkpt lat="41.0287200" lon="-4.7131820">
        <ele>834.4</ele>
        <time>2019-08-14T10:10:26Z</time>
      </trkpt>
      <trkpt lat="41.0287840" lon="-4.7131800">
        <ele>834.5</ele>
        <time>2019-08-14T10:10:27Z</time>
      </trkpt>
      <trkpt lat="41.0288480" lon="-4.7131760">
        <ele>834.6</ele>
        <time>2019-08-14T10:10:28Z</time>
      </trkpt>
      <trkpt lat="41.0289120" lon="-4.7131740">
        <ele>834.7</ele>
        <time>2019-08-14T10:10:29Z</time>
      </trkpt>
      <trkpt lat="41.0289760" lon="-4.7131710">
        <ele>834.8</ele>
        <time>2019-08-14T10:10:30Z</time>
      </trkpt>
      <trkpt lat="41.0290400" lon="-4.7131680">
        <ele>834.8</ele>
        <time>2019-08-14T10:10:31Z</time>
      </trkpt>
      <trkpt lat="41.0291030" lon="-4.7131650">
        <ele>834.9</ele>
        <time>2019-08-14T10:10:32Z</time>
      </trkpt>
      <trkpt lat="41.0291670" lon="-4.7131610">
        <ele>834.9</ele>
        <time>2019-08-14T10:10:33Z</time>
      </trkpt>
      <trkpt lat="41.0292320" lon="-4.7131570">
        <ele>834.9</ele>
        <time>2019-08-14T10:10:34Z</time>
      </trkpt>
      <trkpt lat="41.0292980" lon="-4.7131540">
        <ele>834.8</ele>
        <time>2019-08-14T10:10:35Z</time>
      </trkpt>
      <trkpt lat="41.0293620" lon="-4.7131500">
        <ele>834.6</ele>
        <time>2019-08-14T10:10:36Z</time>
      </trkpt>
      <trkpt lat="41.0294290" lon="-4.7131450">
        <ele>834.3</ele>
        <time>2019-08-14T10:10:37Z</time>
      </trkpt>
      <trkpt lat="41.0294940" lon="-4.7131390">
        <ele>834.0</ele>
        <time>2019-08-14T10:10:38Z</time>
      </trkpt>
      <trkpt lat="41.0295600" lon="-4.7131330">
        <ele>833.7</ele>
        <time>2019-08-14T10:10:39Z</time>
      </trkpt>
      <trkpt lat="41.0296280" lon="-4.7131240">
        <ele>833.4</ele>
        <time>2019-08-14T10:10:40Z</time>
      </trkpt>
      <trkpt lat="41.0296970" lon="-4.7131160">
        <ele>833.1</ele>
        <time>2019-08-14T10:10:41Z</time>
      </trkpt>
      <trkpt lat="41.0297670" lon="-4.7131060">
        <ele>833.0</ele>
        <time>2019-08-14T10:10:42Z</time>
      </trkpt>
      <trkpt lat="41.0298350" lon="-4.7130980">
        <ele>832.9</ele>
        <time>2019-08-14T10:10:43Z</time>
      </trkpt>
      <trkpt lat="41.0299040" lon="-4.7130880">
        <ele>832.9</ele>
        <time>2019-08-14T10:10:44Z</time>
      </trkpt>
      <trkpt lat="41.0299710" lon="-4.7130790">
        <ele>833.0</ele>
        <time>2019-08-14T10:10:45Z</time>
      </trkpt>
      <trkpt lat="41.0300390" lon="-4.7130710">
        <ele>833.1</ele>
        <time>2019-08-14T10:10:46Z</time>
      </trkpt>
      <trkpt lat="41.0301070" lon="-4.7130640">
        <ele>833.3</ele>
        <time>2019-08-14T10:10:47Z</time>
      </trkpt>
      <trkpt lat="41.0301750" lon="-4.7130570">
        <ele>833.5</ele>
        <time>2019-08-14T10:10:48Z</time>
      </trkpt>
      <trkpt lat="41.0302430" lon="-4.7130490">
        <ele>833.7</ele>
        <time>2019-08-14T10:10:49Z</time>
      </trkpt>
      <trkpt lat="41.0303110" lon="-4.7130420">
        <ele>833.9</ele>
        <time>2019-08-14T10:10:50Z</time>
      </trkpt>
      <trkpt lat="41.0303780" lon="-4.7130330">
        <ele>834.2</ele>
        <time>2019-08-14T10:10:51Z</time>
      </trkpt>
      <trkpt lat="41.0304420" lon="-4.7130240">
        <ele>834.3</ele>
        <time>2019-08-14T10:10:52Z</time>
      </trkpt>
      <trkpt lat="41.0305050" lon="-4.7130170">
        <ele>834.4</ele>
        <time>2019-08-14T10:10:53Z</time>
      </trkpt>
      <trkpt lat="41.0305680" lon="-4.7130110">
        <ele>834.5</ele>
        <time>2019-08-14T10:10:54Z</time>
      </trkpt>
      <trkpt lat="41.0306300" lon="-4.7130040">
        <ele>834.5</ele>
        <time>2019-08-14T10:10:55Z</time>
      </trkpt>
      <trkpt lat="41.0306940" lon="-4.7129950">
        <ele>834.4</ele>
        <time>2019-08-14T10:10:56Z</time>
      </trkpt>
      <trkpt lat="41.0307580" lon="-4.7129870">
        <ele>834.3</ele>
        <time>2019-08-14T10:10:57Z</time>
      </trkpt>
      <trkpt lat="41.0308210" lon="-4.7129790">
        <ele>834.2</ele>
        <time>2019-08-14T10:10:58Z</time>
      </trkpt>
      <trkpt lat="41.0308840" lon="-4.7129710">
        <ele>834.2</ele>
        <time>2019-08-14T10:10:59Z</time>
      </trkpt>
      <trkpt lat="41.0309460" lon="-4.7129660">
        <ele>834.2</ele>
        <time>2019-08-14T10:11:00Z</time>
      </trkpt>
      <trkpt lat="41.0310080" lon="-4.7129590">
        <ele>834.2</ele>
        <time>2019-08-14T10:11:01Z</time>
      </trkpt>
      <trkpt lat="41.0310670" lon="-4.7129520">
        <ele>834.4</ele>
        <time>2019-08-14T10:11:02Z</time>
      </trkpt>
      <trkpt lat="41.0311250" lon="-4.7129460">
        <ele>834.5</ele>
        <time>2019-08-14T10:11:03Z</time>
      </trkpt>
      <trkpt lat="41.0311840" lon="-4.7129390">
        <ele>834.6</ele>
        <time>2019-08-14T10:11:04Z</time>
      </trkpt>
      <trkpt lat="41.0312430" lon="-4.7129320">
        <ele>834.6</ele>
        <time>2019-08-14T10:11:05Z</time>
      </trkpt>
      <trkpt lat="41.0313030" lon="-4.7129290">
        <ele>834.6</ele>
        <time>2019-08-14T10:11:06Z</time>
      </trkpt>
      <trkpt lat="41.0313640" lon="-4.7129260">
        <ele>834.6</ele>
        <time>2019-08-14T10:11:07Z</time>
      </trkpt>
      <trkpt lat="41.0314250" lon="-4.7129240">
        <ele>834.5</ele>
        <time>2019-08-14T10:11:08Z</time>
      </trkpt>
      <trkpt lat="41.0314840" lon="-4.7129220">
        <ele>834.4</ele>
        <time>2019-08-14T10:11:09Z</time>
      </trkpt>
      <trkpt lat="41.0315420" lon="-4.7129180">
        <ele>834.3</ele>
        <time>2019-08-14T10:11:10Z</time>
      </trkpt>
      <trkpt lat="41.0315980" lon="-4.7129150">
        <ele>834.2</ele>
        <time>2019-08-14T10:11:11Z</time>
      </trkpt>
      <trkpt lat="41.0316560" lon="-4.7129140">
        <ele>834.0</ele>
        <time>2019-08-14T10:11:12Z</time>
      </trkpt>
      <trkpt lat="41.0317150" lon="-4.7129130">
        <ele>833.9</ele>
        <time>2019-08-14T10:11:13Z</time>
      </trkpt>
      <trkpt lat="41.0317760" lon="-4.7129150">
        <ele>833.8</ele>
        <time>2019-08-14T10:11:14Z</time>
      </trkpt>
      <trkpt lat="41.0318370" lon="-4.7129160">
        <ele>833.6</ele>
        <time>2019-08-14T10:11:15Z</time>
      </trkpt>
      <trkpt lat="41.0319000" lon="-4.7129170">
        <ele>833.5</ele>
        <time>2019-08-14T10:11:16Z</time>
      </trkpt>
      <trkpt lat="41.0319620" lon="-4.7129230">
        <ele>833.3</ele>
        <time>2019-08-14T10:11:17Z</time>
      </trkpt>
      <trkpt lat="41.0320240" lon="-4.7129310">
        <ele>833.1</ele>
        <time>2019-08-14T10:11:18Z</time>
      </trkpt>
      <trkpt lat="41.0320840" lon="-4.7129410">
        <ele>832.9</ele>
        <time>2019-08-14T10:11:19Z</time>
      </trkpt>
      <trkpt lat="41.0321450" lon="-4.7129520">
        <ele>832.7</ele>
        <time>2019-08-14T10:11:20Z</time>
      </trkpt>
      <trkpt lat="41.0322040" lon="-4.7129630">
        <ele>832.5</ele>
        <time>2019-08-14T10:11:21Z</time>
      </trkpt>
      <trkpt lat="41.0322630" lon="-4.7129760">
        <ele>832.4</ele>
        <time>2019-08-14T10:11:22Z</time>
      </trkpt>
      <trkpt lat="41.0323250" lon="-4.7129920">
        <ele>832.2</ele>
        <time>2019-08-14T10:11:23Z</time>
      </trkpt>
      <trkpt lat="41.0323870" lon="-4.7130110">
        <ele>832.0</ele>
        <time>2019-08-14T10:11:24Z</time>
      </trkpt>
      <trkpt lat="41.0324490" lon="-4.7130330">
        <ele>831.8</ele>
        <time>2019-08-14T10:11:25Z</time>
      </trkpt>
      <trkpt lat="41.0325120" lon="-4.7130580">
        <ele>831.7</ele>
        <time>2019-08-14T10:11:26Z</time>
      </trkpt>
      <trkpt lat="41.0325760" lon="-4.7130830">
        <ele>831.6</ele>
        <time>2019-08-14T10:11:27Z</time>
      </trkpt>
      <trkpt lat="41.0326390" lon="-4.7131090">
        <ele>831.5</ele>
        <time>2019-08-14T10:11:28Z</time>
      </trkpt>
      <trkpt lat="41.0327010" lon="-4.7131350">
        <ele>831.5</ele>
        <time>2019-08-14T10:11:29Z</time>
      </trkpt>
      <trkpt lat="41.0327620" lon="-4.7131620">
        <ele>831.4</ele>
        <time>2019-08-14T10:11:30Z</time>
      </trkpt>
      <trkpt lat="41.0328240" lon="-4.7131890">
        <ele>831.4</ele>
        <time>2019-08-14T10:11:31Z</time>
      </trkpt>
      <trkpt lat="41.0328860" lon="-4.7132160">
        <ele>831.4</ele>
        <time>2019-08-14T10:11:32Z</time>
      </trkpt>
      <trkpt lat="41.0329490" lon="-4.7132460">
        <ele>831.3</ele>
        <time>2019-08-14T10:11:33Z</time>
      </trkpt>
      <trkpt lat="41.0330110" lon="-4.7132760">
        <ele>831.3</ele>
        <time>2019-08-14T10:11:34Z</time>
      </trkpt>
      <trkpt lat="41.0330720" lon="-4.7133070">
        <ele>831.3</ele>
        <time>2019-08-14T10:11:35Z</time>
      </trkpt>
      <trkpt lat="41.0331310" lon="-4.7133370">
        <ele>831.3</ele>
        <time>2019-08-14T10:11:36Z</time>
      </trkpt>
      <trkpt lat="41.0331900" lon="-4.7133640">
        <ele>831.2</ele>
        <time>2019-08-14T10:11:37Z</time>
      </trkpt>
      <trkpt lat="41.0332510" lon="-4.7133900">
        <ele>831.2</ele>
        <time>2019-08-14T10:11:38Z</time>
      </trkpt>
      <trkpt lat="41.0333120" lon="-4.7134170">
        <ele>831.2</ele>
        <time>2019-08-14T10:11:39Z</time>
      </trkpt>
      <trkpt lat="41.0333730" lon="-4.7134460">
        <ele>831.1</ele>
        <time>2019-08-14T10:11:40Z</time>
      </trkpt>
      <trkpt lat="41.0334330" lon="-4.7134730">
        <ele>831.0</ele>
        <time>2019-08-14T10:11:41Z</time>
      </trkpt>
      <trkpt lat="41.0334930" lon="-4.7135020">
        <ele>831.0</ele>
        <time>2019-08-14T10:11:42Z</time>
      </trkpt>
      <trkpt lat="41.0335530" lon="-4.7135290">
        <ele>830.9</ele>
        <time>2019-08-14T10:11:43Z</time>
      </trkpt>
      <trkpt lat="41.0336150" lon="-4.7135560">
        <ele>830.8</ele>
        <time>2019-08-14T10:11:44Z</time>
      </trkpt>
      <trkpt lat="41.0336780" lon="-4.7135840">
        <ele>830.7</ele>
        <time>2019-08-14T10:11:45Z</time>
      </trkpt>
      <trkpt lat="41.0337410" lon="-4.7136130">
        <ele>830.6</ele>
        <time>2019-08-14T10:11:46Z</time>
      </trkpt>
      <trkpt lat="41.0338050" lon="-4.7136430">
        <ele>830.5</ele>
        <time>2019-08-14T10:11:47Z</time>
      </trkpt>
      <trkpt lat="41.0338690" lon="-4.7136720">
        <ele>830.1</ele>
        <time>2019-08-14T10:11:48Z</time>
      </trkpt>
      <trkpt lat="41.0339330" lon="-4.7137000">
        <ele>829.9</ele>
        <time>2019-08-14T10:11:49Z</time>
      </trkpt>
      <trkpt lat="41.0339970" lon="-4.7137290">
        <ele>829.8</ele>
        <time>2019-08-14T10:11:50Z</time>
      </trkpt>
      <trkpt lat="41.0340610" lon="-4.7137600">
        <ele>830.1</ele>
        <time>2019-08-14T10:11:51Z</time>
      </trkpt>
      <trkpt lat="41.0341240" lon="-4.7137910">
        <ele>830.3</ele>
        <time>2019-08-14T10:11:52Z</time>
      </trkpt>
      <trkpt lat="41.0341870" lon="-4.7138220">
        <ele>830.5</ele>
        <time>2019-08-14T10:11:53Z</time>
      </trkpt>
      <trkpt lat="41.0342500" lon="-4.7138520">
        <ele>830.7</ele>
        <time>2019-08-14T10:11:54Z</time>
      </trkpt>
      <trkpt lat="41.0343130" lon="-4.7138800">
        <ele>830.9</ele>
        <time>2019-08-14T10:11:55Z</time>
      </trkpt>
      <trkpt lat="41.0343770" lon="-4.7139080">
        <ele>831.1</ele>
        <time>2019-08-14T10:11:56Z</time>
      </trkpt>
      <trkpt lat="41.0344410" lon="-4.7139370">
        <ele>831.2</ele>
        <time>2019-08-14T10:11:57Z</time>
      </trkpt>
      <trkpt lat="41.0345050" lon="-4.7139670">
        <ele>831.4</ele>
        <time>2019-08-14T10:11:58Z</time>
      </trkpt>
      <trkpt lat="41.0345670" lon="-4.7139970">
        <ele>831.5</ele>
        <time>2019-08-14T10:11:59Z</time>
      </trkpt>
      <trkpt lat="41.0346290" lon="-4.7140260">
        <ele>831.6</ele>
        <time>2019-08-14T10:12:00Z</time>
      </trkpt>
      <trkpt lat="41.0346910" lon="-4.7140540">
        <ele>831.6</ele>
        <time>2019-08-14T10:12:01Z</time>
      </trkpt>
      <trkpt lat="41.0347530" lon="-4.7140820">
        <ele>831.6</ele>
        <time>2019-08-14T10:12:02Z</time>
      </trkpt>
      <trkpt lat="41.0348170" lon="-4.7141120">
        <ele>831.6</ele>
        <time>2019-08-14T10:12:03Z</time>
      </trkpt>
      <trkpt lat="41.0348810" lon="-4.7141430">
        <ele>831.5</ele>
        <time>2019-08-14T10:12:04Z</time>
      </trkpt>
      <trkpt lat="41.0349470" lon="-4.7141730">
        <ele>831.3</ele>
        <time>2019-08-14T10:12:05Z</time>
      </trkpt>
      <trkpt lat="41.0350130" lon="-4.7142030">
        <ele>831.2</ele>
        <time>2019-08-14T10:12:06Z</time>
      </trkpt>
      <trkpt lat="41.0350780" lon="-4.7142340">
        <ele>831.0</ele>
        <time>2019-08-14T10:12:07Z</time>
      </trkpt>
      <trkpt lat="41.0351420" lon="-4.7142640">
        <ele>830.9</ele>
        <time>2019-08-14T10:12:08Z</time>
      </trkpt>
      <trkpt lat="41.0352050" lon="-4.7142940">
        <ele>830.7</ele>
        <time>2019-08-14T10:12:09Z</time>
      </trkpt>
      <trkpt lat="41.0352680" lon="-4.7143220">
        <ele>830.5</ele>
        <time>2019-08-14T10:12:10Z</time>
      </trkpt>
      <trkpt lat="41.0353290" lon="-4.7143510">
        <ele>830.4</ele>
        <time>2019-08-14T10:12:11Z</time>
      </trkpt>
      <trkpt lat="41.0353920" lon="-4.7143780">
        <ele>830.2</ele>
        <time>2019-08-14T10:12:12Z</time>
      </trkpt>
      <trkpt lat="41.0354540" lon="-4.7144030">
        <ele>830.0</ele>
        <time>2019-08-14T10:12:13Z</time>
      </trkpt>
      <trkpt lat="41.0355170" lon="-4.7144300">
        <ele>829.9</ele>
        <time>2019-08-14T10:12:14Z</time>
      </trkpt>
      <trkpt lat="41.0355810" lon="-4.7144590">
        <ele>829.8</ele>
        <time>2019-08-14T10:12:15Z</time>
      </trkpt>
      <trkpt lat="41.0356450" lon="-4.7144890">
        <ele>829.8</ele>
        <time>2019-08-14T10:12:16Z</time>
      </trkpt>
      <trkpt lat="41.0357090" lon="-4.7145180">
        <ele>829.8</ele>
        <time>2019-08-14T10:12:17Z</time>
      </trkpt>
      <trkpt lat="41.0357720" lon="-4.7145470">
        <ele>829.9</ele>
        <time>2019-08-14T10:12:18Z</time>
      </trkpt>
      <trkpt lat="41.0358340" lon="-4.7145740">
        <ele>830.1</ele>
        <time>2019-08-14T10:12:19Z</time>
      </trkpt>
      <trkpt lat="41.0358950" lon="-4.7146020">
        <ele>830.3</ele>
        <time>2019-08-14T10:12:20Z</time>
      </trkpt>
      <trkpt lat="41.0359550" lon="-4.7146310">
        <ele>830.4</ele>
        <time>2019-08-14T10:12:21Z</time>
      </trkpt>
      <trkpt lat="41.0360150" lon="-4.7146550">
        <ele>830.6</ele>
        <time>2019-08-14T10:12:22Z</time>
      </trkpt>
      <trkpt lat="41.0360730" lon="-4.7146810">
        <ele>830.7</ele>
        <time>2019-08-14T10:12:23Z</time>
      </trkpt>
      <trkpt lat="41.0361310" lon="-4.7147080">
        <ele>830.8</ele>
        <time>2019-08-14T10:12:24Z</time>
      </trkpt>
      <trkpt lat="41.0361890" lon="-4.7147350">
        <ele>830.9</ele>
        <time>2019-08-14T10:12:25Z</time>
      </trkpt>
      <trkpt lat="41.0362470" lon="-4.7147600">
        <ele>831.0</ele>
        <time>2019-08-14T10:12:26Z</time>
      </trkpt>
      <trkpt lat="41.0363030" lon="-4.7147860">
        <ele>831.1</ele>
        <time>2019-08-14T10:12:27Z</time>
      </trkpt>
      <trkpt lat="41.0363590" lon="-4.7148120">
        <ele>831.1</ele>
        <time>2019-08-14T10:12:28Z</time>
      </trkpt>
      <trkpt lat="41.0364130" lon="-4.7148370">
        <ele>831.1</ele>
        <time>2019-08-14T10:12:29Z</time>
      </trkpt>
      <trkpt lat="41.0364670" lon="-4.7148620">
        <ele>831.2</ele>
        <time>2019-08-14T10:12:30Z</time>
      </trkpt>
      <trkpt lat="41.0365200" lon="-4.7148880">
        <ele>831.3</ele>
        <time>2019-08-14T10:12:31Z</time>
      </trkpt>
      <trkpt lat="41.0365720" lon="-4.7149130">
        <ele>831.3</ele>
        <time>2019-08-14T10:12:32Z</time>
      </trkpt>
      <trkpt lat="41.0366240" lon="-4.7149380">
        <ele>831.4</ele>
        <time>2019-08-14T10:12:33Z</time>
      </trkpt>
      <trkpt lat="41.0366780" lon="-4.7149610">
        <ele>831.6</ele>
        <time>2019-08-14T10:12:34Z</time>
      </trkpt>
      <trkpt lat="41.0367320" lon="-4.7149850">
        <ele>831.7</ele>
        <time>2019-08-14T10:12:35Z</time>
      </trkpt>
      <trkpt lat="41.0367870" lon="-4.7150110">
        <ele>831.9</ele>
        <time>2019-08-14T10:12:36Z</time>
      </trkpt>
      <trkpt lat="41.0368430" lon="-4.7150360">
        <ele>832.1</ele>
        <time>2019-08-14T10:12:37Z</time>
      </trkpt>
      <trkpt lat="41.0368990" lon="-4.7150620">
        <ele>832.3</ele>
        <time>2019-08-14T10:12:38Z</time>
      </trkpt>
      <trkpt lat="41.0369540" lon="-4.7150880">
        <ele>832.4</ele>
        <time>2019-08-14T10:12:39Z</time>
      </trkpt>
      <trkpt lat="41.0370080" lon="-4.7151130">
        <ele>832.4</ele>
        <time>2019-08-14T10:12:40Z</time>
      </trkpt>
      <trkpt lat="41.0370620" lon="-4.7151370">
        <ele>832.4</ele>
        <time>2019-08-14T10:12:41Z</time>
      </trkpt>
      <trkpt lat="41.0371140" lon="-4.7151630">
        <ele>832.3</ele>
        <time>2019-08-14T10:12:42Z</time>
      </trkpt>
      <trkpt lat="41.0371690" lon="-4.7151870">
        <ele>832.3</ele>
        <time>2019-08-14T10:12:43Z</time>
      </trkpt>
      <trkpt lat="41.0372230" lon="-4.7152110">
        <ele>832.2</ele>
        <time>2019-08-14T10:12:44Z</time>
      </trkpt>
      <trkpt lat="41.0372790" lon="-4.7152360">
        <ele>832.0</ele>
        <time>2019-08-14T10:12:45Z</time>
      </trkpt>
      <trkpt lat="41.0373370" lon="-4.7152610">
        <ele>831.9</ele>
        <time>2019-08-14T10:12:46Z</time>
      </trkpt>
      <trkpt lat="41.0373940" lon="-4.7152860">
        <ele>831.8</ele>
        <time>2019-08-14T10:12:47Z</time>
      </trkpt>
      <trkpt lat="41.0374510" lon="-4.7153130">
        <ele>831.7</ele>
        <time>2019-08-14T10:12:48Z</time>
      </trkpt>
      <trkpt lat="41.0375090" lon="-4.7153410">
        <ele>831.7</ele>
        <time>2019-08-14T10:12:49Z</time>
      </trkpt>
      <trkpt lat="41.0375670" lon="-4.7153690">
        <ele>831.6</ele>
        <time>2019-08-14T10:12:50Z</time>
      </trkpt>
      <trkpt lat="41.0376250" lon="-4.7153950">
        <ele>831.6</ele>
        <time>2019-08-14T10:12:51Z</time>
      </trkpt>
      <trkpt lat="41.0376840" lon="-4.7154210">
        <ele>831.6</ele>
        <time>2019-08-14T10:12:52Z</time>
      </trkpt>
      <trkpt lat="41.0377430" lon="-4.7154490">
        <ele>831.7</ele>
        <time>2019-08-14T10:12:53Z</time>
      </trkpt>
      <trkpt lat="41.0378030" lon="-4.7154770">
        <ele>831.8</ele>
        <time>2019-08-14T10:12:54Z</time>
      </trkpt>
      <trkpt lat="41.0378610" lon="-4.7155050">
        <ele>831.9</ele>
        <time>2019-08-14T10:12:55Z</time>
      </trkpt>
      <trkpt lat="41.0379180" lon="-4.7155300">
        <ele>832.0</ele>
        <time>2019-08-14T10:12:56Z</time>
      </trkpt>
      <trkpt lat="41.0379740" lon="-4.7155560">
        <ele>832.2</ele>
        <time>2019-08-14T10:12:57Z</time>
      </trkpt>
      <trkpt lat="41.0380300" lon="-4.7155820">
        <ele>832.3</ele>
        <time>2019-08-14T10:12:58Z</time>
      </trkpt>
      <trkpt lat="41.0380860" lon="-4.7156080">
        <ele>832.4</ele>
        <time>2019-08-14T10:12:59Z</time>
      </trkpt>
      <trkpt lat="41.0381440" lon="-4.7156340">
        <ele>832.5</ele>
        <time>2019-08-14T10:13:00Z</time>
      </trkpt>
      <trkpt lat="41.0382030" lon="-4.7156600">
        <ele>832.5</ele>
        <time>2019-08-14T10:13:01Z</time>
      </trkpt>
      <trkpt lat="41.0382620" lon="-4.7156870">
        <ele>832.4</ele>
        <time>2019-08-14T10:13:02Z</time>
      </trkpt>
      <trkpt lat="41.0383190" lon="-4.7157120">
        <ele>832.3</ele>
        <time>2019-08-14T10:13:03Z</time>
      </trkpt>
      <trkpt lat="41.0383740" lon="-4.7157360">
        <ele>832.3</ele>
        <time>2019-08-14T10:13:04Z</time>
      </trkpt>
      <trkpt lat="41.0384290" lon="-4.7157620">
        <ele>832.3</ele>
        <time>2019-08-14T10:13:05Z</time>
      </trkpt>
      <trkpt lat="41.0384840" lon="-4.7157880">
        <ele>832.3</ele>
        <time>2019-08-14T10:13:06Z</time>
      </trkpt>
      <trkpt lat="41.0385390" lon="-4.7158160">
        <ele>832.2</ele>
        <time>2019-08-14T10:13:07Z</time>
      </trkpt>
      <trkpt lat="41.0385960" lon="-4.7158430">
        <ele>832.2</ele>
        <time>2019-08-14T10:13:08Z</time>
      </trkpt>
      <trkpt lat="41.0386550" lon="-4.7158680">
        <ele>832.0</ele>
        <time>2019-08-14T10:13:09Z</time>
      </trkpt>
      <trkpt lat="41.0387130" lon="-4.7158920">
        <ele>831.9</ele>
        <time>2019-08-14T10:13:10Z</time>
      </trkpt>
      <trkpt lat="41.0387690" lon="-4.7159180">
        <ele>831.8</ele>
        <time>2019-08-14T10:13:11Z</time>
      </trkpt>
      <trkpt lat="41.0388230" lon="-4.7159440">
        <ele>831.7</ele>
        <time>2019-08-14T10:13:12Z</time>
      </trkpt>
      <trkpt lat="41.0388750" lon="-4.7159680">
        <ele>831.5</ele>
        <time>2019-08-14T10:13:13Z</time>
      </trkpt>
      <trkpt lat="41.0389280" lon="-4.7159910">
        <ele>831.4</ele>
        <time>2019-08-14T10:13:14Z</time>
      </trkpt>
      <trkpt lat="41.0389830" lon="-4.7160110">
        <ele>831.4</ele>
        <time>2019-08-14T10:13:15Z</time>
      </trkpt>
      <trkpt lat="41.0390400" lon="-4.7160320">
        <ele>831.3</ele>
        <time>2019-08-14T10:13:16Z</time>
      </trkpt>
      <trkpt lat="41.0390980" lon="-4.7160520">
        <ele>831.3</ele>
        <time>2019-08-14T10:13:17Z</time>
      </trkpt>
      <trkpt lat="41.0391580" lon="-4.7160720">
        <ele>831.3</ele>
        <time>2019-08-14T10:13:18Z</time>
      </trkpt>
      <trkpt lat="41.0392160" lon="-4.7160920">
        <ele>831.3</ele>
        <time>2019-08-14T10:13:19Z</time>
      </trkpt>
      <trkpt lat="41.0392760" lon="-4.7161130">
        <ele>831.3</ele>
        <time>2019-08-14T10:13:20Z</time>
      </trkpt>
      <trkpt lat="41.0393330" lon="-4.7161330">
        <ele>831.4</ele>
        <time>2019-08-14T10:13:21Z</time>
      </trkpt>
      <trkpt lat="41.0393880" lon="-4.7161490">
        <ele>831.5</ele>
        <time>2019-08-14T10:13:22Z</time>
      </trkpt>
      <trkpt lat="41.0394440" lon="-4.7161630">
        <ele>831.5</ele>
        <time>2019-08-14T10:13:23Z</time>
      </trkpt>
      <trkpt lat="41.0395010" lon="-4.7161770">
        <ele>831.6</ele>
        <time>2019-08-14T10:13:24Z</time>
      </trkpt>
      <trkpt lat="41.0395580" lon="-4.7161900">
        <ele>831.6</ele>
        <time>2019-08-14T10:13:25Z</time>
      </trkpt>
      <trkpt lat="41.0396170" lon="-4.7162020">
        <ele>831.5</ele>
        <time>2019-08-14T10:13:26Z</time>
      </trkpt>
      <trkpt lat="41.0396760" lon="-4.7162130">
        <ele>831.5</ele>
        <time>2019-08-14T10:13:27Z</time>
      </trkpt>
      <trkpt lat="41.0397350" lon="-4.7162240">
        <ele>831.4</ele>
        <time>2019-08-14T10:13:28Z</time>
      </trkpt>
      <trkpt lat="41.0397940" lon="-4.7162360">
        <ele>831.3</ele>
        <time>2019-08-14T10:13:29Z</time>
      </trkpt>
      <trkpt lat="41.0398550" lon="-4.7162480">
        <ele>831.2</ele>
        <time>2019-08-14T10:13:30Z</time>
      </trkpt>
      <trkpt lat="41.0399140" lon="-4.7162580">
        <ele>831.1</ele>
        <time>2019-08-14T10:13:31Z</time>
      </trkpt>
      <trkpt lat="41.0399720" lon="-4.7162660">
        <ele>831.1</ele>
        <time>2019-08-14T10:13:32Z</time>
      </trkpt>
      <trkpt lat="41.0400280" lon="-4.7162730">
        <ele>831.1</ele>
        <time>2019-08-14T10:13:33Z</time>
      </trkpt>
      <trkpt lat="41.0400830" lon="-4.7162810">
        <ele>831.1</ele>
        <time>2019-08-14T10:13:34Z</time>
      </trkpt>
      <trkpt lat="41.0401360" lon="-4.7162870">
        <ele>831.1</ele>
        <time>2019-08-14T10:13:35Z</time>
      </trkpt>
      <trkpt lat="41.0401890" lon="-4.7162920">
        <ele>831.2</ele>
        <time>2019-08-14T10:13:36Z</time>
      </trkpt>
      <trkpt lat="41.0402430" lon="-4.7162970">
        <ele>831.3</ele>
        <time>2019-08-14T10:13:37Z</time>
      </trkpt>
      <trkpt lat="41.0403010" lon="-4.7163010">
        <ele>831.4</ele>
        <time>2019-08-14T10:13:38Z</time>
      </trkpt>
      <trkpt lat="41.0403590" lon="-4.7163060">
        <ele>831.4</ele>
        <time>2019-08-14T10:13:39Z</time>
      </trkpt>
      <trkpt lat="41.0404190" lon="-4.7163120">
        <ele>831.3</ele>
        <time>2019-08-14T10:13:40Z</time>
      </trkpt>
      <trkpt lat="41.0404800" lon="-4.7163190">
        <ele>831.3</ele>
        <time>2019-08-14T10:13:41Z</time>
      </trkpt>
      <trkpt lat="41.0405400" lon="-4.7163250">
        <ele>831.1</ele>
        <time>2019-08-14T10:13:42Z</time>
      </trkpt>
      <trkpt lat="41.0405990" lon="-4.7163320">
        <ele>831.0</ele>
        <time>2019-08-14T10:13:43Z</time>
      </trkpt>
      <trkpt lat="41.0406590" lon="-4.7163410">
        <ele>830.9</ele>
        <time>2019-08-14T10:13:44Z</time>
      </trkpt>
      <trkpt lat="41.0407180" lon="-4.7163480">
        <ele>830.8</ele>
        <time>2019-08-14T10:13:45Z</time>
      </trkpt>
      <trkpt lat="41.0407760" lon="-4.7163530">
        <ele>830.7</ele>
        <time>2019-08-14T10:13:46Z</time>
      </trkpt>
      <trkpt lat="41.0408340" lon="-4.7163590">
        <ele>830.7</ele>
        <time>2019-08-14T10:13:47Z</time>
      </trkpt>
      <trkpt lat="41.0408930" lon="-4.7163660">
        <ele>830.6</ele>
        <time>2019-08-14T10:13:48Z</time>
      </trkpt>
      <trkpt lat="41.0409540" lon="-4.7163730">
        <ele>830.6</ele>
        <time>2019-08-14T10:13:49Z</time>
      </trkpt>
      <trkpt lat="41.0410140" lon="-4.7163820">
        <ele>830.6</ele>
        <time>2019-08-14T10:13:50Z</time>
      </trkpt>
      <trkpt lat="41.0410740" lon="-4.7163890">
        <ele>830.7</ele>
        <time>2019-08-14T10:13:51Z</time>
      </trkpt>
      <trkpt lat="41.0411350" lon="-4.7163970">
        <ele>830.7</ele>
        <time>2019-08-14T10:13:52Z</time>
      </trkpt>
      <trkpt lat="41.0411950" lon="-4.7164050">
        <ele>830.7</ele>
        <time>2019-08-14T10:13:53Z</time>
      </trkpt>
      <trkpt lat="41.0412540" lon="-4.7164120">
        <ele>830.8</ele>
        <time>2019-08-14T10:13:54Z</time>
      </trkpt>
      <trkpt lat="41.0413120" lon="-4.7164200">
        <ele>830.8</ele>
        <time>2019-08-14T10:13:55Z</time>
      </trkpt>
      <trkpt lat="41.0413690" lon="-4.7164270">
        <ele>830.9</ele>
        <time>2019-08-14T10:13:56Z</time>
      </trkpt>
      <trkpt lat="41.0414240" lon="-4.7164320">
        <ele>830.9</ele>
        <time>2019-08-14T10:13:57Z</time>
      </trkpt>
      <trkpt lat="41.0414780" lon="-4.7164380">
        <ele>831.0</ele>
        <time>2019-08-14T10:13:58Z</time>
      </trkpt>
      <trkpt lat="41.0415320" lon="-4.7164440">
        <ele>831.0</ele>
        <time>2019-08-14T10:13:59Z</time>
      </trkpt>
      <trkpt lat="41.0415870" lon="-4.7164480">
        <ele>831.0</ele>
        <time>2019-08-14T10:14:00Z</time>
      </trkpt>
      <trkpt lat="41.0416430" lon="-4.7164540">
        <ele>830.9</ele>
        <time>2019-08-14T10:14:01Z</time>
      </trkpt>
      <trkpt lat="41.0417020" lon="-4.7164600">
        <ele>830.8</ele>
        <time>2019-08-14T10:14:02Z</time>
      </trkpt>
      <trkpt lat="41.0417610" lon="-4.7164650">
        <ele>830.8</ele>
        <time>2019-08-14T10:14:03Z</time>
      </trkpt>
      <trkpt lat="41.0418200" lon="-4.7164710">
        <ele>830.8</ele>
        <time>2019-08-14T10:14:04Z</time>
      </trkpt>
      <trkpt lat="41.0418800" lon="-4.7164780">
        <ele>830.8</ele>
        <time>2019-08-14T10:14:05Z</time>
      </trkpt>
      <trkpt lat="41.0419400" lon="-4.7164870">
        <ele>830.7</ele>
        <time>2019-08-14T10:14:06Z</time>
      </trkpt>
      <trkpt lat="41.0420030" lon="-4.7164930">
        <ele>830.6</ele>
        <time>2019-08-14T10:14:07Z</time>
      </trkpt>
      <trkpt lat="41.0420650" lon="-4.7165010">
        <ele>830.6</ele>
        <time>2019-08-14T10:14:08Z</time>
      </trkpt>
      <trkpt lat="41.0421280" lon="-4.7165110">
        <ele>830.7</ele>
        <time>2019-08-14T10:14:09Z</time>
      </trkpt>
      <trkpt lat="41.0421920" lon="-4.7165190">
        <ele>830.7</ele>
        <time>2019-08-14T10:14:10Z</time>
      </trkpt>
      <trkpt lat="41.0422560" lon="-4.7165280">
        <ele>830.7</ele>
        <time>2019-08-14T10:14:11Z</time>
      </trkpt>
      <trkpt lat="41.0423200" lon="-4.7165370">
        <ele>830.7</ele>
        <time>2019-08-14T10:14:12Z</time>
      </trkpt>
      <trkpt lat="41.0423830" lon="-4.7165450">
        <ele>830.7</ele>
        <time>2019-08-14T10:14:13Z</time>
      </trkpt>
      <trkpt lat="41.0424440" lon="-4.7165540">
        <ele>830.7</ele>
        <time>2019-08-14T10:14:14Z</time>
      </trkpt>
      <trkpt lat="41.0425040" lon="-4.7165610">
        <ele>830.7</ele>
        <time>2019-08-14T10:14:15Z</time>
      </trkpt>
      <trkpt lat="41.0425610" lon="-4.7165670">
        <ele>830.7</ele>
        <time>2019-08-14T10:14:16Z</time>
      </trkpt>
      <trkpt lat="41.0426160" lon="-4.7165730">
        <ele>830.7</ele>
        <time>2019-08-14T10:14:17Z</time>
      </trkpt>
      <trkpt lat="41.0426700" lon="-4.7165800">
        <ele>830.7</ele>
        <time>2019-08-14T10:14:18Z</time>
      </trkpt>
      <trkpt lat="41.0427230" lon="-4.7165880">
        <ele>830.7</ele>
        <time>2019-08-14T10:14:19Z</time>
      </trkpt>
      <trkpt lat="41.0427760" lon="-4.7165940">
        <ele>830.7</ele>
        <time>2019-08-14T10:14:20Z</time>
      </trkpt>
      <trkpt lat="41.0428310" lon="-4.7165990">
        <ele>830.7</ele>
        <time>2019-08-14T10:14:21Z</time>
      </trkpt>
      <trkpt lat="41.0428860" lon="-4.7166050">
        <ele>830.7</ele>
        <time>2019-08-14T10:14:22Z</time>
      </trkpt>
      <trkpt lat="41.0429420" lon="-4.7166100">
        <ele>830.7</ele>
        <time>2019-08-14T10:14:23Z</time>
      </trkpt>
      <trkpt lat="41.0429990" lon="-4.7166160">
        <ele>830.7</ele>
        <time>2019-08-14T10:14:24Z</time>
      </trkpt>
      <trkpt lat="41.0430580" lon="-4.7166220">
        <ele>830.6</ele>
        <time>2019-08-14T10:14:25Z</time>
      </trkpt>
      <trkpt lat="41.0431170" lon="-4.7166300">
        <ele>830.5</ele>
        <time>2019-08-14T10:14:26Z</time>
      </trkpt>
      <trkpt lat="41.0431760" lon="-4.7166370">
        <ele>830.4</ele>
        <time>2019-08-14T10:14:27Z</time>
      </trkpt>
      <trkpt lat="41.0432360" lon="-4.7166430">
        <ele>830.2</ele>
        <time>2019-08-14T10:14:28Z</time>
      </trkpt>
      <trkpt lat="41.0432970" lon="-4.7166510">
        <ele>830.0</ele>
        <time>2019-08-14T10:14:29Z</time>
      </trkpt>
      <trkpt lat="41.0433590" lon="-4.7166590">
        <ele>829.8</ele>
        <time>2019-08-14T10:14:30Z</time>
      </trkpt>
      <trkpt lat="41.0434200" lon="-4.7166660">
        <ele>829.6</ele>
        <time>2019-08-14T10:14:31Z</time>
      </trkpt>
      <trkpt lat="41.0434820" lon="-4.7166720">
        <ele>829.4</ele>
        <time>2019-08-14T10:14:32Z</time>
      </trkpt>
      <trkpt lat="41.0435450" lon="-4.7166770">
        <ele>829.3</ele>
        <time>2019-08-14T10:14:33Z</time>
      </trkpt>
      <trkpt lat="41.0436080" lon="-4.7166830">
        <ele>829.1</ele>
        <time>2019-08-14T10:14:34Z</time>
      </trkpt>
      <trkpt lat="41.0436710" lon="-4.7166900">
        <ele>829.0</ele>
        <time>2019-08-14T10:14:35Z</time>
      </trkpt>
      <trkpt lat="41.0437350" lon="-4.7166960">
        <ele>828.9</ele>
        <time>2019-08-14T10:14:36Z</time>
      </trkpt>
      <trkpt lat="41.0437990" lon="-4.7167030">
        <ele>828.8</ele>
        <time>2019-08-14T10:14:37Z</time>
      </trkpt>
      <trkpt lat="41.0438630" lon="-4.7167100">
        <ele>828.7</ele>
        <time>2019-08-14T10:14:38Z</time>
      </trkpt>
      <trkpt lat="41.0439250" lon="-4.7167140">
        <ele>828.7</ele>
        <time>2019-08-14T10:14:39Z</time>
      </trkpt>
      <trkpt lat="41.0439870" lon="-4.7167180">
        <ele>828.6</ele>
        <time>2019-08-14T10:14:40Z</time>
      </trkpt>
      <trkpt lat="41.0440500" lon="-4.7167220">
        <ele>828.5</ele>
        <time>2019-08-14T10:14:41Z</time>
      </trkpt>
      <trkpt lat="41.0441100" lon="-4.7167270">
        <ele>828.4</ele>
        <time>2019-08-14T10:14:42Z</time>
      </trkpt>
      <trkpt lat="41.0441710" lon="-4.7167320">
        <ele>828.3</ele>
        <time>2019-08-14T10:14:43Z</time>
      </trkpt>
      <trkpt lat="41.0442280" lon="-4.7167340">
        <ele>828.1</ele>
        <time>2019-08-14T10:14:44Z</time>
      </trkpt>
      <trkpt lat="41.0442850" lon="-4.7167340">
        <ele>827.9</ele>
        <time>2019-08-14T10:14:45Z</time>
      </trkpt>
      <trkpt lat="41.0443440" lon="-4.7167360">
        <ele>827.7</ele>
        <time>2019-08-14T10:14:46Z</time>
      </trkpt>
      <trkpt lat="41.0444040" lon="-4.7167390">
        <ele>827.5</ele>
        <time>2019-08-14T10:14:47Z</time>
      </trkpt>
      <trkpt lat="41.0444650" lon="-4.7167400">
        <ele>827.3</ele>
        <time>2019-08-14T10:14:48Z</time>
      </trkpt>
      <trkpt lat="41.0445280" lon="-4.7167370">
        <ele>827.1</ele>
        <time>2019-08-14T10:14:49Z</time>
      </trkpt>
      <trkpt lat="41.0445920" lon="-4.7167300">
        <ele>826.9</ele>
        <time>2019-08-14T10:14:50Z</time>
      </trkpt>
      <trkpt lat="41.0446570" lon="-4.7167150">
        <ele>826.7</ele>
        <time>2019-08-14T10:14:51Z</time>
      </trkpt>
      <trkpt lat="41.0447180" lon="-4.7166960">
        <ele>826.5</ele>
        <time>2019-08-14T10:14:52Z</time>
      </trkpt>
      <trkpt lat="41.0447780" lon="-4.7166710">
        <ele>826.7</ele>
        <time>2019-08-14T10:14:53Z</time>
      </trkpt>
      <trkpt lat="41.0448340" lon="-4.7166410">
        <ele>826.9</ele>
        <time>2019-08-14T10:14:54Z</time>
      </trkpt>
      <trkpt lat="41.0448860" lon="-4.7166100">
        <ele>827.1</ele>
        <time>2019-08-14T10:14:55Z</time>
      </trkpt>
      <trkpt lat="41.0449360" lon="-4.7165820">
        <ele>827.3</ele>
        <time>2019-08-14T10:14:56Z</time>
      </trkpt>
      <trkpt lat="41.0449860" lon="-4.7165650">
        <ele>827.7</ele>
        <time>2019-08-14T10:14:57Z</time>
      </trkpt>
      <trkpt lat="41.0450340" lon="-4.7165620">
        <ele>827.6</ele>
        <time>2019-08-14T10:14:58Z</time>
      </trkpt>
      <trkpt lat="41.0450800" lon="-4.7165700">
        <ele>827.3</ele>
        <time>2019-08-14T10:14:59Z</time>
      </trkpt>
      <trkpt lat="41.0451230" lon="-4.7165890">
        <ele>827.0</ele>
        <time>2019-08-14T10:15:00Z</time>
      </trkpt>
      <trkpt lat="41.0451620" lon="-4.7166180">
        <ele>826.8</ele>
        <time>2019-08-14T10:15:01Z</time>
      </trkpt>
      <trkpt lat="41.0451990" lon="-4.7166510">
        <ele>826.1</ele>
        <time>2019-08-14T10:15:02Z</time>
      </trkpt>
      <trkpt lat="41.0452340" lon="-4.7166840">
        <ele>826.1</ele>
        <time>2019-08-14T10:15:03Z</time>
      </trkpt>
      <trkpt lat="41.0452680" lon="-4.7167150">
        <ele>826.1</ele>
        <time>2019-08-14T10:15:04Z</time>
      </trkpt>
      <trkpt lat="41.0453030" lon="-4.7167450">
        <ele>826.1</ele>
        <time>2019-08-14T10:15:05Z</time>
      </trkpt>
      <trkpt lat="41.0453400" lon="-4.7167700">
        <ele>826.2</ele>
        <time>2019-08-14T10:15:06Z</time>
      </trkpt>
      <trkpt lat="41.0453780" lon="-4.7167910">
        <ele>826.2</ele>
        <time>2019-08-14T10:15:07Z</time>
      </trkpt>
      <trkpt lat="41.0454190" lon="-4.7168100">
        <ele>826.2</ele>
        <time>2019-08-14T10:15:08Z</time>
      </trkpt>
      <trkpt lat="41.0454610" lon="-4.7168310">
        <ele>826.2</ele>
        <time>2019-08-14T10:15:09Z</time>
      </trkpt>
      <trkpt lat="41.0455050" lon="-4.7168510">
        <ele>826.3</ele>
        <time>2019-08-14T10:15:10Z</time>
      </trkpt>
      <trkpt lat="41.0455500" lon="-4.7168700">
        <ele>826.3</ele>
        <time>2019-08-14T10:15:11Z</time>
      </trkpt>
      <trkpt lat="41.0455960" lon="-4.7168910">
        <ele>826.4</ele>
        <time>2019-08-14T10:15:12Z</time>
      </trkpt>
      <trkpt lat="41.0456420" lon="-4.7169120">
        <ele>826.5</ele>
        <time>2019-08-14T10:15:13Z</time>
      </trkpt>
      <trkpt lat="41.0456900" lon="-4.7169320">
        <ele>826.5</ele>
        <time>2019-08-14T10:15:14Z</time>
      </trkpt>
      <trkpt lat="41.0457380" lon="-4.7169520">
        <ele>826.6</ele>
        <time>2019-08-14T10:15:15Z</time>
      </trkpt>
      <trkpt lat="41.0457870" lon="-4.7169740">
        <ele>826.6</ele>
        <time>2019-08-14T10:15:16Z</time>
      </trkpt>
      <trkpt lat="41.0458370" lon="-4.7169950">
        <ele>826.7</ele>
        <time>2019-08-14T10:15:17Z</time>
      </trkpt>
      <trkpt lat="41.0458870" lon="-4.7170170">
        <ele>826.7</ele>
        <time>2019-08-14T10:15:18Z</time>
      </trkpt>
      <trkpt lat="41.0459390" lon="-4.7170380">
        <ele>826.8</ele>
        <time>2019-08-14T10:15:19Z</time>
      </trkpt>
      <trkpt lat="41.0459920" lon="-4.7170600">
        <ele>826.8</ele>
        <time>2019-08-14T10:15:20Z</time>
      </trkpt>
      <trkpt lat="41.0460440" lon="-4.7170820">
        <ele>826.9</ele>
        <time>2019-08-14T10:15:21Z</time>
      </trkpt>
      <trkpt lat="41.0460970" lon="-4.7171050">
        <ele>826.9</ele>
        <time>2019-08-14T10:15:22Z</time>
      </trkpt>
      <trkpt lat="41.0461500" lon="-4.7171270">
        <ele>827.0</ele>
        <time>2019-08-14T10:15:23Z</time>
      </trkpt>
      <trkpt lat="41.0462030" lon="-4.7171490">
        <ele>827.0</ele>
        <time>2019-08-14T10:15:24Z</time>
      </trkpt>
      <trkpt lat="41.0462560" lon="-4.7171720">
        <ele>827.1</ele>
        <time>2019-08-14T10:15:25Z</time>
      </trkpt>
      <trkpt lat="41.0463090" lon="-4.7171930">
        <ele>827.2</ele>
        <time>2019-08-14T10:15:26Z</time>
      </trkpt>
      <trkpt lat="41.0463630" lon="-4.7172160">
        <ele>827.3</ele>
        <time>2019-08-14T10:15:27Z</time>
      </trkpt>
      <trkpt lat="41.0464150" lon="-4.7172390">
        <ele>827.3</ele>
        <time>2019-08-14T10:15:28Z</time>
      </trkpt>
      <trkpt lat="41.0464690" lon="-4.7172610">
        <ele>827.4</ele>
        <time>2019-08-14T10:15:29Z</time>
      </trkpt>
      <trkpt lat="41.0465220" lon="-4.7172830">
        <ele>827.5</ele>
        <time>2019-08-14T10:15:30Z</time>
      </trkpt>
      <trkpt lat="41.0465750" lon="-4.7173070">
        <ele>827.6</ele>
        <time>2019-08-14T10:15:31Z</time>
      </trkpt>
      <trkpt lat="41.0466300" lon="-4.7173290">
        <ele>827.8</ele>
        <time>2019-08-14T10:15:32Z</time>
      </trkpt>
      <trkpt lat="41.0466840" lon="-4.7173520">
        <ele>827.9</ele>
        <time>2019-08-14T10:15:33Z</time>
      </trkpt>
      <trkpt lat="41.0467390" lon="-4.7173760">
        <ele>828.0</ele>
        <time>2019-08-14T10:15:34Z</time>
      </trkpt>
      <trkpt lat="41.0467930" lon="-4.7173980">
        <ele>828.1</ele>
        <time>2019-08-14T10:15:35Z</time>
      </trkpt>
      <trkpt lat="41.0468480" lon="-4.7174200">
        <ele>828.3</ele>
        <time>2019-08-14T10:15:36Z</time>
      </trkpt>
      <trkpt lat="41.0469020" lon="-4.7174430">
        <ele>828.4</ele>
        <time>2019-08-14T10:15:37Z</time>
      </trkpt>
      <trkpt lat="41.0469570" lon="-4.7174660">
        <ele>828.5</ele>
        <time>2019-08-14T10:15:38Z</time>
      </trkpt>
      <trkpt lat="41.0470120" lon="-4.7174890">
        <ele>828.6</ele>
        <time>2019-08-14T10:15:39Z</time>
      </trkpt>
      <trkpt lat="41.0470670" lon="-4.7175120">
        <ele>828.7</ele>
        <time>2019-08-14T10:15:40Z</time>
      </trkpt>
      <trkpt lat="41.0471220" lon="-4.7175340">
        <ele>828.8</ele>
        <time>2019-08-14T10:15:41Z</time>
      </trkpt>
      <trkpt lat="41.0471770" lon="-4.7175550">
        <ele>828.8</ele>
        <time>2019-08-14T10:15:42Z</time>
      </trkpt>
      <trkpt lat="41.0472310" lon="-4.7175750">
        <ele>828.9</ele>
        <time>2019-08-14T10:15:43Z</time>
      </trkpt>
      <trkpt lat="41.0472860" lon="-4.7175970">
        <ele>828.9</ele>
        <time>2019-08-14T10:15:44Z</time>
      </trkpt>
      <trkpt lat="41.0473410" lon="-4.7176170">
        <ele>828.9</ele>
        <time>2019-08-14T10:15:45Z</time>
      </trkpt>
      <trkpt lat="41.0473950" lon="-4.7176360">
        <ele>829.0</ele>
        <time>2019-08-14T10:15:46Z</time>
      </trkpt>
      <trkpt lat="41.0474480" lon="-4.7176550">
        <ele>829.0</ele>
        <time>2019-08-14T10:15:47Z</time>
      </trkpt>
      <trkpt lat="41.0475020" lon="-4.7176730">
        <ele>829.0</ele>
        <time>2019-08-14T10:15:48Z</time>
      </trkpt>
      <trkpt lat="41.0475560" lon="-4.7176910">
        <ele>829.0</ele>
        <time>2019-08-14T10:15:49Z</time>
      </trkpt>
      <trkpt lat="41.0476090" lon="-4.7177080">
        <ele>828.9</ele>
        <time>2019-08-14T10:15:50Z</time>
      </trkpt>
      <trkpt lat="41.0476630" lon="-4.7177250">
        <ele>828.9</ele>
        <time>2019-08-14T10:15:51Z</time>
      </trkpt>
      <trkpt lat="41.0477170" lon="-4.7177400">
        <ele>828.9</ele>
        <time>2019-08-14T10:15:52Z</time>
      </trkpt>
      <trkpt lat="41.0477710" lon="-4.7177540">
        <ele>828.9</ele>
        <time>2019-08-14T10:15:53Z</time>
      </trkpt>
      <trkpt lat="41.0478260" lon="-4.7177670">
        <ele>828.9</ele>
        <time>2019-08-14T10:15:54Z</time>
      </trkpt>
      <trkpt lat="41.0478820" lon="-4.7177830">
        <ele>828.9</ele>
        <time>2019-08-14T10:15:55Z</time>
      </trkpt>
      <trkpt lat="41.0479370" lon="-4.7177990">
        <ele>828.9</ele>
        <time>2019-08-14T10:15:56Z</time>
      </trkpt>
      <trkpt lat="41.0479930" lon="-4.7178150">
        <ele>828.9</ele>
        <time>2019-08-14T10:15:57Z</time>
      </trkpt>
      <trkpt lat="41.0480480" lon="-4.7178310">
        <ele>828.8</ele>
        <time>2019-08-14T10:15:58Z</time>
      </trkpt>
      <trkpt lat="41.0481030" lon="-4.7178470">
        <ele>828.8</ele>
        <time>2019-08-14T10:15:59Z</time>
      </trkpt>
      <trkpt lat="41.0481560" lon="-4.7178600">
        <ele>828.8</ele>
        <time>2019-08-14T10:16:00Z</time>
      </trkpt>
      <trkpt lat="41.0482070" lon="-4.7178720">
        <ele>828.8</ele>
        <time>2019-08-14T10:16:01Z</time>
      </trkpt>
      <trkpt lat="41.0482560" lon="-4.7178880">
        <ele>828.8</ele>
        <time>2019-08-14T10:16:02Z</time>
      </trkpt>
      <trkpt lat="41.0483040" lon="-4.7179030">
        <ele>828.7</ele>
        <time>2019-08-14T10:16:03Z</time>
      </trkpt>
      <trkpt lat="41.0483520" lon="-4.7179160">
        <ele>828.7</ele>
        <time>2019-08-14T10:16:04Z</time>
      </trkpt>
      <trkpt lat="41.0483980" lon="-4.7179310">
        <ele>828.7</ele>
        <time>2019-08-14T10:16:05Z</time>
      </trkpt>
      <trkpt lat="41.0484460" lon="-4.7179440">
        <ele>828.6</ele>
        <time>2019-08-14T10:16:06Z</time>
      </trkpt>
      <trkpt lat="41.0484940" lon="-4.7179590">
        <ele>828.6</ele>
        <time>2019-08-14T10:16:07Z</time>
      </trkpt>
      <trkpt lat="41.0485440" lon="-4.7179740">
        <ele>828.6</ele>
        <time>2019-08-14T10:16:08Z</time>
      </trkpt>
      <trkpt lat="41.0485950" lon="-4.7179870">
        <ele>828.5</ele>
        <time>2019-08-14T10:16:09Z</time>
      </trkpt>
      <trkpt lat="41.0486440" lon="-4.7180020">
        <ele>828.5</ele>
        <time>2019-08-14T10:16:10Z</time>
      </trkpt>
      <trkpt lat="41.0486920" lon="-4.7180160">
        <ele>828.5</ele>
        <time>2019-08-14T10:16:11Z</time>
      </trkpt>
      <trkpt lat="41.0487400" lon="-4.7180270">
        <ele>828.5</ele>
        <time>2019-08-14T10:16:12Z</time>
      </trkpt>
      <trkpt lat="41.0487870" lon="-4.7180400">
        <ele>828.5</ele>
        <time>2019-08-14T10:16:13Z</time>
      </trkpt>
      <trkpt lat="41.0488330" lon="-4.7180530">
        <ele>828.5</ele>
        <time>2019-08-14T10:16:14Z</time>
      </trkpt>
      <trkpt lat="41.0488770" lon="-4.7180660">
        <ele>828.5</ele>
        <time>2019-08-14T10:16:15Z</time>
      </trkpt>
      <trkpt lat="41.0489200" lon="-4.7180800">
        <ele>828.4</ele>
        <time>2019-08-14T10:16:16Z</time>
      </trkpt>
      <trkpt lat="41.0489620" lon="-4.7180950">
        <ele>828.4</ele>
        <time>2019-08-14T10:16:17Z</time>
      </trkpt>
      <trkpt lat="41.0490050" lon="-4.7181080">
        <ele>828.4</ele>
        <time>2019-08-14T10:16:18Z</time>
      </trkpt>
      <trkpt lat="41.0490500" lon="-4.7181220">
        <ele>828.4</ele>
        <time>2019-08-14T10:16:19Z</time>
      </trkpt>
      <trkpt lat="41.0490970" lon="-4.7181350">
        <ele>828.4</ele>
        <time>2019-08-14T10:16:20Z</time>
      </trkpt>
      <trkpt lat="41.0491440" lon="-4.7181470">
        <ele>828.4</ele>
        <time>2019-08-14T10:16:21Z</time>
      </trkpt>
      <trkpt lat="41.0491910" lon="-4.7181580">
        <ele>828.4</ele>
        <time>2019-08-14T10:16:22Z</time>
      </trkpt>
      <trkpt lat="41.0492370" lon="-4.7181700">
        <ele>828.3</ele>
        <time>2019-08-14T10:16:23Z</time>
      </trkpt>
      <trkpt lat="41.0492800" lon="-4.7181830">
        <ele>828.3</ele>
        <time>2019-08-14T10:16:24Z</time>
      </trkpt>
      <trkpt lat="41.0493220" lon="-4.7181950">
        <ele>828.3</ele>
        <time>2019-08-14T10:16:25Z</time>
      </trkpt>
      <trkpt lat="41.0493630" lon="-4.7182070">
        <ele>828.2</ele>
        <time>2019-08-14T10:16:26Z</time>
      </trkpt>
      <trkpt lat="41.0494050" lon="-4.7182200">
        <ele>828.2</ele>
        <time>2019-08-14T10:16:27Z</time>
      </trkpt>
      <trkpt lat="41.0494490" lon="-4.7182320">
        <ele>828.1</ele>
        <time>2019-08-14T10:16:28Z</time>
      </trkpt>
      <trkpt lat="41.0494920" lon="-4.7182450">
        <ele>828.0</ele>
        <time>2019-08-14T10:16:29Z</time>
      </trkpt>
      <trkpt lat="41.0495350" lon="-4.7182570">
        <ele>827.9</ele>
        <time>2019-08-14T10:16:30Z</time>
      </trkpt>
      <trkpt lat="41.0495790" lon="-4.7182690">
        <ele>827.8</ele>
        <time>2019-08-14T10:16:31Z</time>
      </trkpt>
      <trkpt lat="41.0496230" lon="-4.7182810">
        <ele>827.7</ele>
        <time>2019-08-14T10:16:32Z</time>
      </trkpt>
      <trkpt lat="41.0496670" lon="-4.7182960">
        <ele>827.6</ele>
        <time>2019-08-14T10:16:33Z</time>
      </trkpt>
      <trkpt lat="41.0497120" lon="-4.7183090">
        <ele>827.5</ele>
        <time>2019-08-14T10:16:34Z</time>
      </trkpt>
      <trkpt lat="41.0497560" lon="-4.7183240">
        <ele>827.4</ele>
        <time>2019-08-14T10:16:35Z</time>
      </trkpt>
      <trkpt lat="41.0498010" lon="-4.7183390">
        <ele>827.2</ele>
        <time>2019-08-14T10:16:36Z</time>
      </trkpt>
      <trkpt lat="41.0498430" lon="-4.7183550">
        <ele>827.1</ele>
        <time>2019-08-14T10:16:37Z</time>
      </trkpt>
      <trkpt lat="41.0498850" lon="-4.7183690">
        <ele>827.0</ele>
        <time>2019-08-14T10:16:38Z</time>
      </trkpt>
      <trkpt lat="41.0499270" lon="-4.7183830">
        <ele>826.9</ele>
        <time>2019-08-14T10:16:39Z</time>
      </trkpt>
      <trkpt lat="41.0499690" lon="-4.7184000">
        <ele>826.8</ele>
        <time>2019-08-14T10:16:40Z</time>
      </trkpt>
      <trkpt lat="41.0500120" lon="-4.7184170">
        <ele>826.7</ele>
        <time>2019-08-14T10:16:41Z</time>
      </trkpt>
      <trkpt lat="41.0500560" lon="-4.7184350">
        <ele>826.6</ele>
        <time>2019-08-14T10:16:42Z</time>
      </trkpt>
      <trkpt lat="41.0501030" lon="-4.7184560">
        <ele>826.4</ele>
        <time>2019-08-14T10:16:43Z</time>
      </trkpt>
      <trkpt lat="41.0501480" lon="-4.7184760">
        <ele>826.4</ele>
        <time>2019-08-14T10:16:44Z</time>
      </trkpt>
      <trkpt lat="41.0501930" lon="-4.7184970">
        <ele>826.3</ele>
        <time>2019-08-14T10:16:45Z</time>
      </trkpt>
      <trkpt lat="41.0502360" lon="-4.7185180">
        <ele>826.2</ele>
        <time>2019-08-14T10:16:46Z</time>
      </trkpt>
      <trkpt lat="41.0502780" lon="-4.7185390">
        <ele>826.1</ele>
        <time>2019-08-14T10:16:47Z</time>
      </trkpt>
      <trkpt lat="41.0503200" lon="-4.7185590">
        <ele>826.1</ele>
        <time>2019-08-14T10:16:48Z</time>
      </trkpt>
      <trkpt lat="41.0503600" lon="-4.7185790">
        <ele>826.0</ele>
        <time>2019-08-14T10:16:49Z</time>
      </trkpt>
      <trkpt lat="41.0503990" lon="-4.7185990">
        <ele>826.0</ele>
        <time>2019-08-14T10:16:50Z</time>
      </trkpt>
      <trkpt lat="41.0504380" lon="-4.7186190">
        <ele>825.9</ele>
        <time>2019-08-14T10:16:51Z</time>
      </trkpt>
      <trkpt lat="41.0504750" lon="-4.7186390">
        <ele>825.9</ele>
        <time>2019-08-14T10:16:52Z</time>
      </trkpt>
      <trkpt lat="41.0505110" lon="-4.7186560">
        <ele>825.9</ele>
        <time>2019-08-14T10:16:53Z</time>
      </trkpt>
      <trkpt lat="41.0505460" lon="-4.7186730">
        <ele>825.9</ele>
        <time>2019-08-14T10:16:54Z</time>
      </trkpt>
      <trkpt lat="41.0505810" lon="-4.7186880">
        <ele>825.9</ele>
        <time>2019-08-14T10:16:55Z</time>
      </trkpt>
      <trkpt lat="41.0506170" lon="-4.7187040">
        <ele>825.9</ele>
        <time>2019-08-14T10:16:56Z</time>
      </trkpt>
      <trkpt lat="41.0506560" lon="-4.7187220">
        <ele>825.9</ele>
        <time>2019-08-14T10:16:57Z</time>
      </trkpt>
      <trkpt lat="41.0506980" lon="-4.7187420">
        <ele>825.9</ele>
        <time>2019-08-14T10:16:58Z</time>
      </trkpt>
      <trkpt lat="41.0507410" lon="-4.7187660">
        <ele>825.9</ele>
        <time>2019-08-14T10:16:59Z</time>
      </trkpt>
      <trkpt lat="41.0507840" lon="-4.7187910">
        <ele>825.9</ele>
        <time>2019-08-14T10:17:00Z</time>
      </trkpt>
      <trkpt lat="41.0508280" lon="-4.7188180">
        <ele>825.9</ele>
        <time>2019-08-14T10:17:01Z</time>
      </trkpt>
      <trkpt lat="41.0508710" lon="-4.7188460">
        <ele>826.0</ele>
        <time>2019-08-14T10:17:02Z</time>
      </trkpt>
      <trkpt lat="41.0509150" lon="-4.7188750">
        <ele>826.0</ele>
        <time>2019-08-14T10:17:03Z</time>
      </trkpt>
      <trkpt lat="41.0509590" lon="-4.7189010">
        <ele>826.1</ele>
        <time>2019-08-14T10:17:04Z</time>
      </trkpt>
      <trkpt lat="41.0510050" lon="-4.7189260">
        <ele>826.2</ele>
        <time>2019-08-14T10:17:05Z</time>
      </trkpt>
      <trkpt lat="41.0510510" lon="-4.7189480">
        <ele>826.3</ele>
        <time>2019-08-14T10:17:06Z</time>
      </trkpt>
      <trkpt lat="41.0510990" lon="-4.7189690">
        <ele>826.4</ele>
        <time>2019-08-14T10:17:07Z</time>
      </trkpt>
      <trkpt lat="41.0511470" lon="-4.7189880">
        <ele>826.6</ele>
        <time>2019-08-14T10:17:08Z</time>
      </trkpt>
      <trkpt lat="41.0511950" lon="-4.7190040">
        <ele>826.7</ele>
        <time>2019-08-14T10:17:09Z</time>
      </trkpt>
      <trkpt lat="41.0512390" lon="-4.7190140">
        <ele>826.9</ele>
        <time>2019-08-14T10:17:10Z</time>
      </trkpt>
      <trkpt lat="41.0512800" lon="-4.7190210">
        <ele>827.0</ele>
        <time>2019-08-14T10:17:11Z</time>
      </trkpt>
      <trkpt lat="41.0513200" lon="-4.7190320">
        <ele>827.1</ele>
        <time>2019-08-14T10:17:12Z</time>
      </trkpt>
      <trkpt lat="41.0513570" lon="-4.7190520">
        <ele>827.3</ele>
        <time>2019-08-14T10:17:13Z</time>
      </trkpt>
      <trkpt lat="41.0513880" lon="-4.7190790">
        <ele>827.4</ele>
        <time>2019-08-14T10:17:14Z</time>
      </trkpt>
      <trkpt lat="41.0514170" lon="-4.7191100">
        <ele>827.5</ele>
        <time>2019-08-14T10:17:15Z</time>
      </trkpt>
      <trkpt lat="41.0514500" lon="-4.7191430">
        <ele>827.7</ele>
        <time>2019-08-14T10:17:16Z</time>
      </trkpt>
      <trkpt lat="41.0514890" lon="-4.7191770">
        <ele>827.8</ele>
        <time>2019-08-14T10:17:17Z</time>
      </trkpt>
      <trkpt lat="41.0515300" lon="-4.7192050">
        <ele>828.0</ele>
        <time>2019-08-14T10:17:18Z</time>
      </trkpt>
      <trkpt lat="41.0515740" lon="-4.7192310">
        <ele>828.1</ele>
        <time>2019-08-14T10:17:19Z</time>
      </trkpt>
      <trkpt lat="41.0516210" lon="-4.7192550">
        <ele>828.2</ele>
        <time>2019-08-14T10:17:20Z</time>
      </trkpt>
      <trkpt lat="41.0516680" lon="-4.7192790">
        <ele>828.3</ele>
        <time>2019-08-14T10:17:21Z</time>
      </trkpt>
      <trkpt lat="41.0517130" lon="-4.7193020">
        <ele>828.4</ele>
        <time>2019-08-14T10:17:22Z</time>
      </trkpt>
      <trkpt lat="41.0517570" lon="-4.7193250">
        <ele>828.5</ele>
        <time>2019-08-14T10:17:23Z</time>
      </trkpt>
      <trkpt lat="41.0518010" lon="-4.7193460">
        <ele>828.5</ele>
        <time>2019-08-14T10:17:24Z</time>
      </trkpt>
      <trkpt lat="41.0518430" lon="-4.7193670">
        <ele>828.5</ele>
        <time>2019-08-14T10:17:25Z</time>
      </trkpt>
      <trkpt lat="41.0518840" lon="-4.7193880">
        <ele>828.4</ele>
        <time>2019-08-14T10:17:26Z</time>
      </trkpt>
      <trkpt lat="41.0519240" lon="-4.7194090">
        <ele>828.4</ele>
        <time>2019-08-14T10:17:27Z</time>
      </trkpt>
      <trkpt lat="41.0519650" lon="-4.7194310">
        <ele>828.3</ele>
        <time>2019-08-14T10:17:28Z</time>
      </trkpt>
      <trkpt lat="41.0520060" lon="-4.7194540">
        <ele>828.3</ele>
        <time>2019-08-14T10:17:29Z</time>
      </trkpt>
      <trkpt lat="41.0520480" lon="-4.7194770">
        <ele>828.2</ele>
        <time>2019-08-14T10:17:30Z</time>
      </trkpt>
      <trkpt lat="41.0520910" lon="-4.7195010">
        <ele>828.1</ele>
        <time>2019-08-14T10:17:31Z</time>
      </trkpt>
      <trkpt lat="41.0521330" lon="-4.7195230">
        <ele>828.0</ele>
        <time>2019-08-14T10:17:32Z</time>
      </trkpt>
      <trkpt lat="41.0521750" lon="-4.7195420">
        <ele>827.9</ele>
        <time>2019-08-14T10:17:33Z</time>
      </trkpt>
      <trkpt lat="41.0522160" lon="-4.7195620">
        <ele>827.8</ele>
        <time>2019-08-14T10:17:34Z</time>
      </trkpt>
      <trkpt lat="41.0522550" lon="-4.7195840">
        <ele>827.7</ele>
        <time>2019-08-14T10:17:35Z</time>
      </trkpt>
      <trkpt lat="41.0522970" lon="-4.7196060">
        <ele>827.5</ele>
        <time>2019-08-14T10:17:36Z</time>
      </trkpt>
      <trkpt lat="41.0523410" lon="-4.7196280">
        <ele>827.4</ele>
        <time>2019-08-14T10:17:37Z</time>
      </trkpt>
      <trkpt lat="41.0523860" lon="-4.7196480">
        <ele>827.2</ele>
        <time>2019-08-14T10:17:38Z</time>
      </trkpt>
      <trkpt lat="41.0524330" lon="-4.7196680">
        <ele>827.0</ele>
        <time>2019-08-14T10:17:39Z</time>
      </trkpt>
      <trkpt lat="41.0524800" lon="-4.7196860">
        <ele>826.9</ele>
        <time>2019-08-14T10:17:40Z</time>
      </trkpt>
      <trkpt lat="41.0525250" lon="-4.7197060">
        <ele>826.7</ele>
        <time>2019-08-14T10:17:41Z</time>
      </trkpt>
      <trkpt lat="41.0525690" lon="-4.7197240">
        <ele>826.6</ele>
        <time>2019-08-14T10:17:42Z</time>
      </trkpt>
      <trkpt lat="41.0526110" lon="-4.7197380">
        <ele>826.4</ele>
        <time>2019-08-14T10:17:43Z</time>
      </trkpt>
      <trkpt lat="41.0526550" lon="-4.7197530">
        <ele>826.3</ele>
        <time>2019-08-14T10:17:44Z</time>
      </trkpt>
      <trkpt lat="41.0526960" lon="-4.7197680">
        <ele>826.2</ele>
        <time>2019-08-14T10:17:45Z</time>
      </trkpt>
      <trkpt lat="41.0527370" lon="-4.7197850">
        <ele>826.0</ele>
        <time>2019-08-14T10:17:46Z</time>
      </trkpt>
      <trkpt lat="41.0527810" lon="-4.7198020">
        <ele>826.0</ele>
        <time>2019-08-14T10:17:47Z</time>
      </trkpt>
      <trkpt lat="41.0528270" lon="-4.7198190">
        <ele>825.9</ele>
        <time>2019-08-14T10:17:48Z</time>
      </trkpt>
      <trkpt lat="41.0528730" lon="-4.7198350">
        <ele>825.8</ele>
        <time>2019-08-14T10:17:49Z</time>
      </trkpt>
      <trkpt lat="41.0529200" lon="-4.7198530">
        <ele>825.7</ele>
        <time>2019-08-14T10:17:50Z</time>
      </trkpt>
      <trkpt lat="41.0529670" lon="-4.7198720">
        <ele>825.6</ele>
        <time>2019-08-14T10:17:51Z</time>
      </trkpt>
      <trkpt lat="41.0530150" lon="-4.7198920">
        <ele>825.6</ele>
        <time>2019-08-14T10:17:52Z</time>
      </trkpt>
      <trkpt lat="41.0530630" lon="-4.7199120">
        <ele>825.5</ele>
        <time>2019-08-14T10:17:53Z</time>
      </trkpt>
      <trkpt lat="41.0531120" lon="-4.7199290">
        <ele>825.5</ele>
        <time>2019-08-14T10:17:54Z</time>
      </trkpt>
      <trkpt lat="41.0531610" lon="-4.7199450">
        <ele>825.5</ele>
        <time>2019-08-14T10:17:55Z</time>
      </trkpt>
      <trkpt lat="41.0532080" lon="-4.7199600">
        <ele>825.5</ele>
        <time>2019-08-14T10:17:56Z</time>
      </trkpt>
      <trkpt lat="41.0532530" lon="-4.7199770">
        <ele>825.5</ele>
        <time>2019-08-14T10:17:57Z</time>
      </trkpt>
      <trkpt lat="41.0532980" lon="-4.7199950">
        <ele>825.6</ele>
        <time>2019-08-14T10:17:58Z</time>
      </trkpt>
      <trkpt lat="41.0533420" lon="-4.7200130">
        <ele>825.6</ele>
        <time>2019-08-14T10:17:59Z</time>
      </trkpt>
      <trkpt lat="41.0533860" lon="-4.7200280">
        <ele>825.7</ele>
        <time>2019-08-14T10:18:00Z</time>
      </trkpt>
      <trkpt lat="41.0534290" lon="-4.7200430">
        <ele>825.9</ele>
        <time>2019-08-14T10:18:01Z</time>
      </trkpt>
      <trkpt lat="41.0534720" lon="-4.7200560">
        <ele>826.0</ele>
        <time>2019-08-14T10:18:02Z</time>
      </trkpt>
      <trkpt lat="41.0535130" lon="-4.7200680">
        <ele>826.2</ele>
        <time>2019-08-14T10:18:03Z</time>
      </trkpt>
      <trkpt lat="41.0535530" lon="-4.7200760">
        <ele>826.5</ele>
        <time>2019-08-14T10:18:04Z</time>
      </trkpt>
      <trkpt lat="41.0535930" lon="-4.7200800">
        <ele>826.7</ele>
        <time>2019-08-14T10:18:05Z</time>
      </trkpt>
      <trkpt lat="41.0536330" lon="-4.7200840">
        <ele>826.7</ele>
        <time>2019-08-14T10:18:06Z</time>
      </trkpt>
      <trkpt lat="41.0536730" lon="-4.7200940">
        <ele>826.7</ele>
        <time>2019-08-14T10:18:07Z</time>
      </trkpt>
      <trkpt lat="41.0537080" lon="-4.7201110">
        <ele>826.6</ele>
        <time>2019-08-14T10:18:08Z</time>
      </trkpt>
      <trkpt lat="41.0537430" lon="-4.7201310">
        <ele>826.5</ele>
        <time>2019-08-14T10:18:09Z</time>
      </trkpt>
      <trkpt lat="41.0537800" lon="-4.7201530">
        <ele>826.3</ele>
        <time>2019-08-14T10:18:10Z</time>
      </trkpt>
      <trkpt lat="41.0538200" lon="-4.7201710">
        <ele>826.2</ele>
        <time>2019-08-14T10:18:11Z</time>
      </trkpt>
      <trkpt lat="41.0538600" lon="-4.7201820">
        <ele>826.1</ele>
        <time>2019-08-14T10:18:12Z</time>
      </trkpt>
      <trkpt lat="41.0539000" lon="-4.7201910">
        <ele>826.0</ele>
        <time>2019-08-14T10:18:13Z</time>
      </trkpt>
      <trkpt lat="41.0539380" lon="-4.7202020">
        <ele>825.8</ele>
        <time>2019-08-14T10:18:14Z</time>
      </trkpt>
      <trkpt lat="41.0539750" lon="-4.7202160">
        <ele>825.7</ele>
        <time>2019-08-14T10:18:15Z</time>
      </trkpt>
      <trkpt lat="41.0540130" lon="-4.7202300">
        <ele>825.6</ele>
        <time>2019-08-14T10:18:16Z</time>
      </trkpt>
      <trkpt lat="41.0540510" lon="-4.7202450">
        <ele>825.5</ele>
        <time>2019-08-14T10:18:17Z</time>
      </trkpt>
      <trkpt lat="41.0540900" lon="-4.7202590">
        <ele>825.5</ele>
        <time>2019-08-14T10:18:18Z</time>
      </trkpt>
      <trkpt lat="41.0541290" lon="-4.7202710">
        <ele>825.4</ele>
        <time>2019-08-14T10:18:19Z</time>
      </trkpt>
      <trkpt lat="41.0541680" lon="-4.7202830">
        <ele>825.4</ele>
        <time>2019-08-14T10:18:20Z</time>
      </trkpt>
      <trkpt lat="41.0542050" lon="-4.7202950">
        <ele>825.4</ele>
        <time>2019-08-14T10:18:21Z</time>
      </trkpt>
      <trkpt lat="41.0542420" lon="-4.7203080">
        <ele>825.4</ele>
        <time>2019-08-14T10:18:22Z</time>
      </trkpt>
      <trkpt lat="41.0542810" lon="-4.7203220">
        <ele>825.4</ele>
        <time>2019-08-14T10:18:23Z</time>
      </trkpt>
      <trkpt lat="41.0543210" lon="-4.7203340">
        <ele>825.4</ele>
        <time>2019-08-14T10:18:24Z</time>
      </trkpt>
      <trkpt lat="41.0543630" lon="-4.7203470">
        <ele>825.4</ele>
        <time>2019-08-14T10:18:25Z</time>
      </trkpt>
      <trkpt lat="41.0544050" lon="-4.7203590">
        <ele>825.4</ele>
        <time>2019-08-14T10:18:26Z</time>
      </trkpt>
      <trkpt lat="41.0544450" lon="-4.7203690">
        <ele>825.4</ele>
        <time>2019-08-14T10:18:27Z</time>
      </trkpt>
      <trkpt lat="41.0544870" lon="-4.7203770">
        <ele>825.5</ele>
        <time>2019-08-14T10:18:28Z</time>
      </trkpt>
      <trkpt lat="41.0545300" lon="-4.7203830">
        <ele>825.5</ele>
        <time>2019-08-14T10:18:29Z</time>
      </trkpt>
      <trkpt lat="41.0545750" lon="-4.7203860">
        <ele>825.6</ele>
        <time>2019-08-14T10:18:30Z</time>
      </trkpt>
      <trkpt lat="41.0546200" lon="-4.7203920">
        <ele>825.7</ele>
        <time>2019-08-14T10:18:31Z</time>
      </trkpt>
      <trkpt lat="41.0546650" lon="-4.7203970">
        <ele>825.8</ele>
        <time>2019-08-14T10:18:32Z</time>
      </trkpt>
      <trkpt lat="41.0547100" lon="-4.7204030">
        <ele>825.9</ele>
        <time>2019-08-14T10:18:33Z</time>
      </trkpt>
      <trkpt lat="41.0547540" lon="-4.7204090">
        <ele>826.0</ele>
        <time>2019-08-14T10:18:34Z</time>
      </trkpt>
      <trkpt lat="41.0547960" lon="-4.7204140">
        <ele>826.2</ele>
        <time>2019-08-14T10:18:35Z</time>
      </trkpt>
      <trkpt lat="41.0548340" lon="-4.7204200">
        <ele>826.3</ele>
        <time>2019-08-14T10:18:36Z</time>
      </trkpt>
      <trkpt lat="41.0548710" lon="-4.7204240">
        <ele>826.4</ele>
        <time>2019-08-14T10:18:37Z</time>
      </trkpt>
      <trkpt lat="41.0549130" lon="-4.7204230">
        <ele>826.5</ele>
        <time>2019-08-14T10:18:38Z</time>
      </trkpt>
      <trkpt lat="41.0549510" lon="-4.7204200">
        <ele>826.6</ele>
        <time>2019-08-14T10:18:39Z</time>
      </trkpt>
      <trkpt lat="41.0549880" lon="-4.7204150">
        <ele>826.8</ele>
        <time>2019-08-14T10:18:40Z</time>
      </trkpt>
      <trkpt lat="41.0550260" lon="-4.7204100">
        <ele>826.9</ele>
        <time>2019-08-14T10:18:41Z</time>
      </trkpt>
      <trkpt lat="41.0550590" lon="-4.7204110">
        <ele>827.1</ele>
        <time>2019-08-14T10:18:42Z</time>
      </trkpt>
      <trkpt lat="41.0550960" lon="-4.7204120">
        <ele>827.2</ele>
        <time>2019-08-14T10:18:43Z</time>
      </trkpt>
      <trkpt lat="41.0551390" lon="-4.7204140">
        <ele>827.4</ele>
        <time>2019-08-14T10:18:44Z</time>
      </trkpt>
      <trkpt lat="41.0551830" lon="-4.7204220">
        <ele>827.5</ele>
        <time>2019-08-14T10:18:45Z</time>
      </trkpt>
      <trkpt lat="41.0552260" lon="-4.7204260">
        <ele>827.6</ele>
        <time>2019-08-14T10:18:46Z</time>
      </trkpt>
      <trkpt lat="41.0552730" lon="-4.7204270">
        <ele>827.7</ele>
        <time>2019-08-14T10:18:47Z</time>
      </trkpt>
      <trkpt lat="41.0553190" lon="-4.7204270">
        <ele>827.9</ele>
        <time>2019-08-14T10:18:48Z</time>
      </trkpt>
      <trkpt lat="41.0553650" lon="-4.7204330">
        <ele>828.0</ele>
        <time>2019-08-14T10:18:49Z</time>
      </trkpt>
      <trkpt lat="41.0554120" lon="-4.7204410">
        <ele>828.1</ele>
        <time>2019-08-14T10:18:50Z</time>
      </trkpt>
      <trkpt lat="41.0554640" lon="-4.7204480">
        <ele>828.2</ele>
        <time>2019-08-14T10:18:51Z</time>
      </trkpt>
      <trkpt lat="41.0555130" lon="-4.7204510">
        <ele>828.3</ele>
        <time>2019-08-14T10:18:52Z</time>
      </trkpt>
      <trkpt lat="41.0555590" lon="-4.7204560">
        <ele>828.4</ele>
        <time>2019-08-14T10:18:53Z</time>
      </trkpt>
      <trkpt lat="41.0556040" lon="-4.7204620">
        <ele>828.4</ele>
        <time>2019-08-14T10:18:54Z</time>
      </trkpt>
      <trkpt lat="41.0556480" lon="-4.7204690">
        <ele>828.4</ele>
        <time>2019-08-14T10:18:55Z</time>
      </trkpt>
      <trkpt lat="41.0556900" lon="-4.7204740">
        <ele>828.4</ele>
        <time>2019-08-14T10:18:56Z</time>
      </trkpt>
      <trkpt lat="41.0557320" lon="-4.7204800">
        <ele>828.4</ele>
        <time>2019-08-14T10:18:57Z</time>
      </trkpt>
      <trkpt lat="41.0557720" lon="-4.7204830">
        <ele>828.5</ele>
        <time>2019-08-14T10:18:58Z</time>
      </trkpt>
      <trkpt lat="41.0558120" lon="-4.7204870">
        <ele>828.5</ele>
        <time>2019-08-14T10:18:59Z</time>
      </trkpt>
      <trkpt lat="41.0558550" lon="-4.7204910">
        <ele>828.4</ele>
        <time>2019-08-14T10:19:00Z</time>
      </trkpt>
      <trkpt lat="41.0559010" lon="-4.7204930">
        <ele>828.3</ele>
        <time>2019-08-14T10:19:01Z</time>
      </trkpt>
      <trkpt lat="41.0559470" lon="-4.7204970">
        <ele>828.2</ele>
        <time>2019-08-14T10:19:02Z</time>
      </trkpt>
      <trkpt lat="41.0559920" lon="-4.7205000">
        <ele>828.0</ele>
        <time>2019-08-14T10:19:03Z</time>
      </trkpt>
      <trkpt lat="41.0560350" lon="-4.7205050">
        <ele>827.9</ele>
        <time>2019-08-14T10:19:04Z</time>
      </trkpt>
      <trkpt lat="41.0560750" lon="-4.7205080">
        <ele>827.7</ele>
        <time>2019-08-14T10:19:05Z</time>
      </trkpt>
      <trkpt lat="41.0561120" lon="-4.7205140">
        <ele>827.6</ele>
        <time>2019-08-14T10:19:06Z</time>
      </trkpt>
      <trkpt lat="41.0561460" lon="-4.7205220">
        <ele>827.3</ele>
        <time>2019-08-14T10:19:07Z</time>
      </trkpt>
      <trkpt lat="41.0561770" lon="-4.7205320">
        <ele>827.3</ele>
        <time>2019-08-14T10:19:08Z</time>
      </trkpt>
      <trkpt lat="41.0562090" lon="-4.7205450">
        <ele>827.3</ele>
        <time>2019-08-14T10:19:09Z</time>
      </trkpt>
      <trkpt lat="41.0562410" lon="-4.7205620">
        <ele>827.3</ele>
        <time>2019-08-14T10:19:10Z</time>
      </trkpt>
      <trkpt lat="41.0562720" lon="-4.7205760">
        <ele>827.4</ele>
        <time>2019-08-14T10:19:11Z</time>
      </trkpt>
      <trkpt lat="41.0563040" lon="-4.7205850">
        <ele>827.4</ele>
        <time>2019-08-14T10:19:12Z</time>
      </trkpt>
      <trkpt lat="41.0563410" lon="-4.7205910">
        <ele>827.3</ele>
        <time>2019-08-14T10:19:13Z</time>
      </trkpt>
      <trkpt lat="41.0563790" lon="-4.7205940">
        <ele>827.2</ele>
        <time>2019-08-14T10:19:14Z</time>
      </trkpt>
      <trkpt lat="41.0564180" lon="-4.7205930">
        <ele>827.1</ele>
        <time>2019-08-14T10:19:15Z</time>
      </trkpt>
      <trkpt lat="41.0564610" lon="-4.7205990">
        <ele>826.9</ele>
        <time>2019-08-14T10:19:16Z</time>
      </trkpt>
      <trkpt lat="41.0565030" lon="-4.7206060">
        <ele>826.7</ele>
        <time>2019-08-14T10:19:17Z</time>
      </trkpt>
      <trkpt lat="41.0565480" lon="-4.7206130">
        <ele>826.4</ele>
        <time>2019-08-14T10:19:18Z</time>
      </trkpt>
      <trkpt lat="41.0565950" lon="-4.7206190">
        <ele>826.2</ele>
        <time>2019-08-14T10:19:19Z</time>
      </trkpt>
      <trkpt lat="41.0566430" lon="-4.7206240">
        <ele>825.9</ele>
        <time>2019-08-14T10:19:20Z</time>
      </trkpt>
      <trkpt lat="41.0566910" lon="-4.7206340">
        <ele>825.7</ele>
        <time>2019-08-14T10:19:21Z</time>
      </trkpt>
      <trkpt lat="41.0567340" lon="-4.7206390">
        <ele>825.5</ele>
        <time>2019-08-14T10:19:22Z</time>
      </trkpt>
      <trkpt lat="41.0567750" lon="-4.7206410">
        <ele>825.4</ele>
        <time>2019-08-14T10:19:23Z</time>
      </trkpt>
      <trkpt lat="41.0568110" lon="-4.7206420">
        <ele>825.3</ele>
        <time>2019-08-14T10:19:24Z</time>
      </trkpt>
      <trkpt lat="41.0568460" lon="-4.7206460">
        <ele>825.2</ele>
        <time>2019-08-14T10:19:25Z</time>
      </trkpt>
      <trkpt lat="41.0568830" lon="-4.7206490">
        <ele>825.1</ele>
        <time>2019-08-14T10:19:26Z</time>
      </trkpt>
      <trkpt lat="41.0569200" lon="-4.7206450">
        <ele>825.1</ele>
        <time>2019-08-14T10:19:27Z</time>
      </trkpt>
      <trkpt lat="41.0569580" lon="-4.7206340">
        <ele>825.1</ele>
        <time>2019-08-14T10:19:28Z</time>
      </trkpt>
      <trkpt lat="41.0569960" lon="-4.7206240">
        <ele>825.0</ele>
        <time>2019-08-14T10:19:29Z</time>
      </trkpt>
      <trkpt lat="41.0570300" lon="-4.7206230">
        <ele>825.0</ele>
        <time>2019-08-14T10:19:30Z</time>
      </trkpt>
      <trkpt lat="41.0570650" lon="-4.7206320">
        <ele>825.0</ele>
        <time>2019-08-14T10:19:31Z</time>
      </trkpt>
      <trkpt lat="41.0570990" lon="-4.7206480">
        <ele>824.9</ele>
        <time>2019-08-14T10:19:32Z</time>
      </trkpt>
      <trkpt lat="41.0571360" lon="-4.7206690">
        <ele>824.9</ele>
        <time>2019-08-14T10:19:33Z</time>
      </trkpt>
      <trkpt lat="41.0571750" lon="-4.7206850">
        <ele>824.9</ele>
        <time>2019-08-14T10:19:34Z</time>
      </trkpt>
      <trkpt lat="41.0572180" lon="-4.7206950">
        <ele>824.8</ele>
        <time>2019-08-14T10:19:35Z</time>
      </trkpt>
      <trkpt lat="41.0572590" lon="-4.7207010">
        <ele>824.9</ele>
        <time>2019-08-14T10:19:36Z</time>
      </trkpt>
      <trkpt lat="41.0573050" lon="-4.7207010">
        <ele>824.9</ele>
        <time>2019-08-14T10:19:37Z</time>
      </trkpt>
      <trkpt lat="41.0573510" lon="-4.7207020">
        <ele>824.9</ele>
        <time>2019-08-14T10:19:38Z</time>
      </trkpt>
      <trkpt lat="41.0573970" lon="-4.7207030">
        <ele>824.9</ele>
        <time>2019-08-14T10:19:39Z</time>
      </trkpt>
      <trkpt lat="41.0574420" lon="-4.7207020">
        <ele>824.9</ele>
        <time>2019-08-14T10:19:40Z</time>
      </trkpt>
      <trkpt lat="41.0574870" lon="-4.7206970">
        <ele>824.9</ele>
        <time>2019-08-14T10:19:41Z</time>
      </trkpt>
      <trkpt lat="41.0575340" lon="-4.7206920">
        <ele>825.0</ele>
        <time>2019-08-14T10:19:42Z</time>
      </trkpt>
      <trkpt lat="41.0575810" lon="-4.7206870">
        <ele>825.1</ele>
        <time>2019-08-14T10:19:43Z</time>
      </trkpt>
      <trkpt lat="41.0576300" lon="-4.7206820">
        <ele>825.1</ele>
        <time>2019-08-14T10:19:44Z</time>
      </trkpt>
      <trkpt lat="41.0576780" lon="-4.7206780">
        <ele>825.2</ele>
        <time>2019-08-14T10:19:45Z</time>
      </trkpt>
      <trkpt lat="41.0577250" lon="-4.7206770">
        <ele>825.3</ele>
        <time>2019-08-14T10:19:46Z</time>
      </trkpt>
      <trkpt lat="41.0577690" lon="-4.7206760">
        <ele>825.4</ele>
        <time>2019-08-14T10:19:47Z</time>
      </trkpt>
      <trkpt lat="41.0578130" lon="-4.7206750">
        <ele>825.6</ele>
        <time>2019-08-14T10:19:48Z</time>
      </trkpt>
      <trkpt lat="41.0578560" lon="-4.7206710">
        <ele>825.7</ele>
        <time>2019-08-14T10:19:49Z</time>
      </trkpt>
      <trkpt lat="41.0578980" lon="-4.7206680">
        <ele>825.8</ele>
        <time>2019-08-14T10:19:50Z</time>
      </trkpt>
      <trkpt lat="41.0579390" lon="-4.7206650">
        <ele>825.9</ele>
        <time>2019-08-14T10:19:51Z</time>
      </trkpt>
      <trkpt lat="41.0579790" lon="-4.7206630">
        <ele>826.1</ele>
        <time>2019-08-14T10:19:52Z</time>
      </trkpt>
      <trkpt lat="41.0580170" lon="-4.7206590">
        <ele>826.2</ele>
        <time>2019-08-14T10:19:53Z</time>
      </trkpt>
      <trkpt lat="41.0580530" lon="-4.7206560">
        <ele>826.3</ele>
        <time>2019-08-14T10:19:54Z</time>
      </trkpt>
      <trkpt lat="41.0580910" lon="-4.7206550">
        <ele>826.4</ele>
        <time>2019-08-14T10:19:55Z</time>
      </trkpt>
      <trkpt lat="41.0581300" lon="-4.7206540">
        <ele>826.5</ele>
        <time>2019-08-14T10:19:56Z</time>
      </trkpt>
      <trkpt lat="41.0581720" lon="-4.7206530">
        <ele>826.8</ele>
        <time>2019-08-14T10:19:57Z</time>
      </trkpt>
      <trkpt lat="41.0582170" lon="-4.7206480">
        <ele>826.9</ele>
        <time>2019-08-14T10:19:58Z</time>
      </trkpt>
      <trkpt lat="41.0582620" lon="-4.7206440">
        <ele>827.0</ele>
        <time>2019-08-14T10:19:59Z</time>
      </trkpt>
      <trkpt lat="41.0583080" lon="-4.7206400">
        <ele>827.2</ele>
        <time>2019-08-14T10:20:00Z</time>
      </trkpt>
      <trkpt lat="41.0583520" lon="-4.7206380">
        <ele>827.3</ele>
        <time>2019-08-14T10:20:01Z</time>
      </trkpt>
      <trkpt lat="41.0583960" lon="-4.7206330">
        <ele>827.4</ele>
        <time>2019-08-14T10:20:02Z</time>
      </trkpt>
      <trkpt lat="41.0584390" lon="-4.7206280">
        <ele>827.6</ele>
        <time>2019-08-14T10:20:03Z</time>
      </trkpt>
      <trkpt lat="41.0584840" lon="-4.7206260">
        <ele>827.7</ele>
        <time>2019-08-14T10:20:04Z</time>
      </trkpt>
      <trkpt lat="41.0585310" lon="-4.7206220">
        <ele>827.8</ele>
        <time>2019-08-14T10:20:05Z</time>
      </trkpt>
      <trkpt lat="41.0585780" lon="-4.7206150">
        <ele>827.8</ele>
        <time>2019-08-14T10:20:06Z</time>
      </trkpt>
      <trkpt lat="41.0586250" lon="-4.7206140">
        <ele>827.9</ele>
        <time>2019-08-14T10:20:07Z</time>
      </trkpt>
      <trkpt lat="41.0586730" lon="-4.7206120">
        <ele>827.9</ele>
        <time>2019-08-14T10:20:08Z</time>
      </trkpt>
      <trkpt lat="41.0587190" lon="-4.7206110">
        <ele>828.0</ele>
        <time>2019-08-14T10:20:09Z</time>
      </trkpt>
      <trkpt lat="41.0587650" lon="-4.7206130">
        <ele>828.0</ele>
        <time>2019-08-14T10:20:10Z</time>
      </trkpt>
      <trkpt lat="41.0588110" lon="-4.7206150">
        <ele>828.1</ele>
        <time>2019-08-14T10:20:11Z</time>
      </trkpt>
      <trkpt lat="41.0588550" lon="-4.7206090">
        <ele>828.1</ele>
        <time>2019-08-14T10:20:12Z</time>
      </trkpt>
      <trkpt lat="41.0588940" lon="-4.7206040">
        <ele>828.1</ele>
        <time>2019-08-14T10:20:13Z</time>
      </trkpt>
      <trkpt lat="41.0589310" lon="-4.7205990">
        <ele>828.1</ele>
        <time>2019-08-14T10:20:14Z</time>
      </trkpt>
      <trkpt lat="41.0589670" lon="-4.7205980">
        <ele>828.2</ele>
        <time>2019-08-14T10:20:15Z</time>
      </trkpt>
      <trkpt lat="41.0590020" lon="-4.7205980">
        <ele>828.2</ele>
        <time>2019-08-14T10:20:16Z</time>
      </trkpt>
      <trkpt lat="41.0590370" lon="-4.7205970">
        <ele>828.2</ele>
        <time>2019-08-14T10:20:17Z</time>
      </trkpt>
      <trkpt lat="41.0590750" lon="-4.7205970">
        <ele>828.2</ele>
        <time>2019-08-14T10:20:18Z</time>
      </trkpt>
      <trkpt lat="41.0591110" lon="-4.7205960">
        <ele>828.2</ele>
        <time>2019-08-14T10:20:19Z</time>
      </trkpt>
      <trkpt lat="41.0591450" lon="-4.7205920">
        <ele>828.3</ele>
        <time>2019-08-14T10:20:20Z</time>
      </trkpt>
      <trkpt lat="41.0591790" lon="-4.7205870">
        <ele>828.3</ele>
        <time>2019-08-14T10:20:21Z</time>
      </trkpt>
      <trkpt lat="41.0592110" lon="-4.7205830">
        <ele>828.3</ele>
        <time>2019-08-14T10:20:22Z</time>
      </trkpt>
      <trkpt lat="41.0592390" lon="-4.7205810">
        <ele>828.3</ele>
        <time>2019-08-14T10:20:23Z</time>
      </trkpt>
      <trkpt lat="41.0592660" lon="-4.7205740">
        <ele>828.3</ele>
        <time>2019-08-14T10:20:24Z</time>
      </trkpt>
      <trkpt lat="41.0592910" lon="-4.7205610">
        <ele>828.3</ele>
        <time>2019-08-14T10:20:25Z</time>
      </trkpt>
      <trkpt lat="41.0593170" lon="-4.7205420">
        <ele>828.3</ele>
        <time>2019-08-14T10:20:26Z</time>
      </trkpt>
      <trkpt lat="41.0593420" lon="-4.7205190">
        <ele>828.3</ele>
        <time>2019-08-14T10:20:27Z</time>
      </trkpt>
      <trkpt lat="41.0593690" lon="-4.7204910">
        <ele>828.3</ele>
        <time>2019-08-14T10:20:28Z</time>
      </trkpt>
      <trkpt lat="41.0594010" lon="-4.7204630">
        <ele>828.3</ele>
        <time>2019-08-14T10:20:29Z</time>
      </trkpt>
      <trkpt lat="41.0594340" lon="-4.7204380">
        <ele>828.3</ele>
        <time>2019-08-14T10:20:30Z</time>
      </trkpt>
      <trkpt lat="41.0594700" lon="-4.7204150">
        <ele>828.3</ele>
        <time>2019-08-14T10:20:31Z</time>
      </trkpt>
      <trkpt lat="41.0595060" lon="-4.7204010">
        <ele>828.3</ele>
        <time>2019-08-14T10:20:32Z</time>
      </trkpt>
      <trkpt lat="41.0595460" lon="-4.7203980">
        <ele>828.3</ele>
        <time>2019-08-14T10:20:33Z</time>
      </trkpt>
      <trkpt lat="41.0595860" lon="-4.7204070">
        <ele>828.3</ele>
        <time>2019-08-14T10:20:34Z</time>
      </trkpt>
      <trkpt lat="41.0596260" lon="-4.7204240">
        <ele>828.2</ele>
        <time>2019-08-14T10:20:35Z</time>
      </trkpt>
      <trkpt lat="41.0596670" lon="-4.7204380">
        <ele>828.2</ele>
        <time>2019-08-14T10:20:36Z</time>
      </trkpt>
      <trkpt lat="41.0597090" lon="-4.7204500">
        <ele>828.2</ele>
        <time>2019-08-14T10:20:37Z</time>
      </trkpt>
      <trkpt lat="41.0597550" lon="-4.7204620">
        <ele>828.1</ele>
        <time>2019-08-14T10:20:38Z</time>
      </trkpt>
      <trkpt lat="41.0598020" lon="-4.7204730">
        <ele>828.1</ele>
        <time>2019-08-14T10:20:39Z</time>
      </trkpt>
      <trkpt lat="41.0598470" lon="-4.7204870">
        <ele>828.0</ele>
        <time>2019-08-14T10:20:40Z</time>
      </trkpt>
      <trkpt lat="41.0598910" lon="-4.7205040">
        <ele>828.0</ele>
        <time>2019-08-14T10:20:41Z</time>
      </trkpt>
      <trkpt lat="41.0599340" lon="-4.7205230">
        <ele>827.9</ele>
        <time>2019-08-14T10:20:42Z</time>
      </trkpt>
      <trkpt lat="41.0599790" lon="-4.7205390">
        <ele>827.9</ele>
        <time>2019-08-14T10:20:43Z</time>
      </trkpt>
      <trkpt lat="41.0600260" lon="-4.7205480">
        <ele>827.8</ele>
        <time>2019-08-14T10:20:44Z</time>
      </trkpt>
      <trkpt lat="41.0600730" lon="-4.7205550">
        <ele>827.7</ele>
        <time>2019-08-14T10:20:45Z</time>
      </trkpt>
      <trkpt lat="41.0601210" lon="-4.7205570">
        <ele>827.6</ele>
        <time>2019-08-14T10:20:46Z</time>
      </trkpt>
      <trkpt lat="41.0601680" lon="-4.7205560">
        <ele>827.5</ele>
        <time>2019-08-14T10:20:47Z</time>
      </trkpt>
      <trkpt lat="41.0602150" lon="-4.7205550">
        <ele>827.4</ele>
        <time>2019-08-14T10:20:48Z</time>
      </trkpt>
      <trkpt lat="41.0602620" lon="-4.7205520">
        <ele>827.3</ele>
        <time>2019-08-14T10:20:49Z</time>
      </trkpt>
      <trkpt lat="41.0603090" lon="-4.7205480">
        <ele>827.2</ele>
        <time>2019-08-14T10:20:50Z</time>
      </trkpt>
      <trkpt lat="41.0603570" lon="-4.7205440">
        <ele>827.1</ele>
        <time>2019-08-14T10:20:51Z</time>
      </trkpt>
      <trkpt lat="41.0604050" lon="-4.7205390">
        <ele>827.0</ele>
        <time>2019-08-14T10:20:52Z</time>
      </trkpt>
      <trkpt lat="41.0604500" lon="-4.7205310">
        <ele>826.9</ele>
        <time>2019-08-14T10:20:53Z</time>
      </trkpt>
      <trkpt lat="41.0604940" lon="-4.7205210">
        <ele>826.8</ele>
        <time>2019-08-14T10:20:54Z</time>
      </trkpt>
      <trkpt lat="41.0605380" lon="-4.7205060">
        <ele>826.7</ele>
        <time>2019-08-14T10:20:55Z</time>
      </trkpt>
      <trkpt lat="41.0605780" lon="-4.7204870">
        <ele>826.7</ele>
        <time>2019-08-14T10:20:56Z</time>
      </trkpt>
      <trkpt lat="41.0606160" lon="-4.7204680">
        <ele>826.7</ele>
        <time>2019-08-14T10:20:57Z</time>
      </trkpt>
      <trkpt lat="41.0606550" lon="-4.7204430">
        <ele>826.8</ele>
        <time>2019-08-14T10:20:58Z</time>
      </trkpt>
      <trkpt lat="41.0606930" lon="-4.7204140">
        <ele>826.9</ele>
        <time>2019-08-14T10:20:59Z</time>
      </trkpt>
      <trkpt lat="41.0607330" lon="-4.7203880">
        <ele>827.0</ele>
        <time>2019-08-14T10:21:00Z</time>
      </trkpt>
      <trkpt lat="41.0607730" lon="-4.7203600">
        <ele>827.0</ele>
        <time>2019-08-14T10:21:01Z</time>
      </trkpt>
      <trkpt lat="41.0608140" lon="-4.7203320">
        <ele>827.1</ele>
        <time>2019-08-14T10:21:02Z</time>
      </trkpt>
      <trkpt lat="41.0608540" lon="-4.7203030">
        <ele>827.1</ele>
        <time>2019-08-14T10:21:03Z</time>
      </trkpt>
      <trkpt lat="41.0608940" lon="-4.7202730">
        <ele>827.2</ele>
        <time>2019-08-14T10:21:04Z</time>
      </trkpt>
      <trkpt lat="41.0609340" lon="-4.7202400">
        <ele>827.2</ele>
        <time>2019-08-14T10:21:05Z</time>
      </trkpt>
      <trkpt lat="41.0609730" lon="-4.7202040">
        <ele>827.2</ele>
        <time>2019-08-14T10:21:06Z</time>
      </trkpt>
      <trkpt lat="41.0610130" lon="-4.7201720">
        <ele>827.2</ele>
        <time>2019-08-14T10:21:07Z</time>
      </trkpt>
      <trkpt lat="41.0610540" lon="-4.7201390">
        <ele>827.3</ele>
        <time>2019-08-14T10:21:08Z</time>
      </trkpt>
      <trkpt lat="41.0610940" lon="-4.7201110">
        <ele>827.4</ele>
        <time>2019-08-14T10:21:09Z</time>
      </trkpt>
      <trkpt lat="41.0611320" lon="-4.7200800">
        <ele>827.6</ele>
        <time>2019-08-14T10:21:10Z</time>
      </trkpt>
      <trkpt lat="41.0611690" lon="-4.7200500">
        <ele>827.7</ele>
        <time>2019-08-14T10:21:11Z</time>
      </trkpt>
      <trkpt lat="41.0612060" lon="-4.7200210">
        <ele>827.8</ele>
        <time>2019-08-14T10:21:12Z</time>
      </trkpt>
      <trkpt lat="41.0612420" lon="-4.7199920">
        <ele>827.9</ele>
        <time>2019-08-14T10:21:13Z</time>
      </trkpt>
      <trkpt lat="41.0612790" lon="-4.7199650">
        <ele>828.0</ele>
        <time>2019-08-14T10:21:14Z</time>
      </trkpt>
      <trkpt lat="41.0613160" lon="-4.7199360">
        <ele>828.1</ele>
        <time>2019-08-14T10:21:15Z</time>
      </trkpt>
      <trkpt lat="41.0613530" lon="-4.7199090">
        <ele>828.2</ele>
        <time>2019-08-14T10:21:16Z</time>
      </trkpt>
      <trkpt lat="41.0613910" lon="-4.7198880">
        <ele>828.4</ele>
        <time>2019-08-14T10:21:17Z</time>
      </trkpt>
      <trkpt lat="41.0614280" lon="-4.7198710">
        <ele>828.5</ele>
        <time>2019-08-14T10:21:18Z</time>
      </trkpt>
      <trkpt lat="41.0614660" lon="-4.7198550">
        <ele>828.6</ele>
        <time>2019-08-14T10:21:19Z</time>
      </trkpt>
      <trkpt lat="41.0615010" lon="-4.7198380">
        <ele>828.7</ele>
        <time>2019-08-14T10:21:20Z</time>
      </trkpt>
      <trkpt lat="41.0615330" lon="-4.7198190">
        <ele>828.8</ele>
        <time>2019-08-14T10:21:21Z</time>
      </trkpt>
      <trkpt lat="41.0615630" lon="-4.7198020">
        <ele>828.9</ele>
        <time>2019-08-14T10:21:22Z</time>
      </trkpt>
      <trkpt lat="41.0615930" lon="-4.7197860">
        <ele>828.9</ele>
        <time>2019-08-14T10:21:23Z</time>
      </trkpt>
      <trkpt lat="41.0616220" lon="-4.7197760">
        <ele>829.0</ele>
        <time>2019-08-14T10:21:24Z</time>
      </trkpt>
      <trkpt lat="41.0616500" lon="-4.7197730">
        <ele>829.3</ele>
        <time>2019-08-14T10:21:25Z</time>
      </trkpt>
      <trkpt lat="41.0616790" lon="-4.7197750">
        <ele>829.3</ele>
        <time>2019-08-14T10:21:26Z</time>
      </trkpt>
      <trkpt lat="41.0617090" lon="-4.7197820">
        <ele>829.4</ele>
        <time>2019-08-14T10:21:27Z</time>
      </trkpt>
      <trkpt lat="41.0617380" lon="-4.7197810">
        <ele>829.4</ele>
        <time>2019-08-14T10:21:28Z</time>
      </trkpt>
      <trkpt lat="41.0617820" lon="-4.7197600">
        <ele>829.5</ele>
        <time>2019-08-14T10:21:30Z</time>
      </trkpt>
      <trkpt lat="41.0618040" lon="-4.7197480">
        <ele>829.6</ele>
        <time>2019-08-14T10:21:36Z</time>
      </trkpt>
      <trkpt lat="41.0618300" lon="-4.7197230">
        <ele>829.6</ele>
        <time>2019-08-14T10:21:41Z</time>
      </trkpt>
      <trkpt lat="41.0618490" lon="-4.7196980">
        <ele>829.7</ele>
        <time>2019-08-14T10:21:45Z</time>
      </trkpt>
      <trkpt lat="41.0618270" lon="-4.7192350">
        <ele>830.1</ele>
        <time>2019-08-14T10:39:15Z</time>
      </trkpt>
      <trkpt lat="41.0618190" lon="-4.7192100">
        <ele>830.1</ele>
        <time>2019-08-14T10:39:23Z</time>
      </trkpt>
      <trkpt lat="41.0618390" lon="-4.7191960">
        <ele>830.1</ele>
        <time>2019-08-14T10:39:33Z</time>
      </trkpt>
      <trkpt lat="41.0645290" lon="-4.7204550">
        <ele>831.8</ele>
        <time>2019-08-14T10:46:59Z</time>
      </trkpt>
      <trkpt lat="41.0645460" lon="-4.7204450">
        <ele>831.7</ele>
        <time>2019-08-14T10:47:04Z</time>
      </trkpt>
      <trkpt lat="41.0645710" lon="-4.7204190">
        <ele>831.7</ele>
        <time>2019-08-14T10:47:06Z</time>
      </trkpt>
      <trkpt lat="41.0646120" lon="-4.7203980">
        <ele>831.5</ele>
        <time>2019-08-14T10:47:08Z</time>
      </trkpt>
      <trkpt lat="41.0646570" lon="-4.7204030">
        <ele>831.4</ele>
        <time>2019-08-14T10:47:10Z</time>
      </trkpt>
      <trkpt lat="41.0647040" lon="-4.7204100">
        <ele>831.1</ele>
        <time>2019-08-14T10:47:12Z</time>
      </trkpt>
      <trkpt lat="41.0647490" lon="-4.7204290">
        <ele>831.0</ele>
        <time>2019-08-14T10:47:14Z</time>
      </trkpt>
      <trkpt lat="41.0647860" lon="-4.7204420">
        <ele>830.8</ele>
        <time>2019-08-14T10:47:16Z</time>
      </trkpt>
      <trkpt lat="41.0648280" lon="-4.7204400">
        <ele>830.7</ele>
        <time>2019-08-14T10:47:18Z</time>
      </trkpt>
      <trkpt lat="41.0648880" lon="-4.7204210">
        <ele>830.5</ele>
        <time>2019-08-14T10:47:20Z</time>
      </trkpt>
      <trkpt lat="41.0649250" lon="-4.7204090">
        <ele>830.4</ele>
        <time>2019-08-14T10:47:21Z</time>
      </trkpt>
      <trkpt lat="41.0649640" lon="-4.7203920">
        <ele>830.3</ele>
        <time>2019-08-14T10:47:22Z</time>
      </trkpt>
      <trkpt lat="41.0650080" lon="-4.7203810">
        <ele>830.2</ele>
        <time>2019-08-14T10:47:23Z</time>
      </trkpt>
      <trkpt lat="41.0650530" lon="-4.7203820">
        <ele>830.0</ele>
        <time>2019-08-14T10:47:24Z</time>
      </trkpt>
      <trkpt lat="41.0650950" lon="-4.7203750">
        <ele>829.9</ele>
        <time>2019-08-14T10:47:25Z</time>
      </trkpt>
      <trkpt lat="41.0651400" lon="-4.7203680">
        <ele>829.7</ele>
        <time>2019-08-14T10:47:26Z</time>
      </trkpt>
      <trkpt lat="41.0651850" lon="-4.7203710">
        <ele>829.5</ele>
        <time>2019-08-14T10:47:27Z</time>
      </trkpt>
      <trkpt lat="41.0652300" lon="-4.7203710">
        <ele>829.3</ele>
        <time>2019-08-14T10:47:28Z</time>
      </trkpt>
      <trkpt lat="41.0652690" lon="-4.7203580">
        <ele>829.1</ele>
        <time>2019-08-14T10:47:29Z</time>
      </trkpt>
      <trkpt lat="41.0653140" lon="-4.7203560">
        <ele>828.9</ele>
        <time>2019-08-14T10:47:30Z</time>
      </trkpt>
      <trkpt lat="41.0653490" lon="-4.7203540">
        <ele>828.8</ele>
        <time>2019-08-14T10:47:31Z</time>
      </trkpt>
      <trkpt lat="41.0653880" lon="-4.7203590">
        <ele>828.6</ele>
        <time>2019-08-14T10:47:32Z</time>
      </trkpt>
      <trkpt lat="41.0654200" lon="-4.7203540">
        <ele>828.4</ele>
        <time>2019-08-14T10:47:33Z</time>
      </trkpt>
      <trkpt lat="41.0654580" lon="-4.7203550">
        <ele>828.3</ele>
        <time>2019-08-14T10:47:34Z</time>
      </trkpt>
      <trkpt lat="41.0654960" lon="-4.7203460">
        <ele>828.2</ele>
        <time>2019-08-14T10:47:35Z</time>
      </trkpt>
      <trkpt lat="41.0655340" lon="-4.7203400">
        <ele>828.1</ele>
        <time>2019-08-14T10:47:36Z</time>
      </trkpt>
      <trkpt lat="41.0655760" lon="-4.7203310">
        <ele>828.0</ele>
        <time>2019-08-14T10:47:37Z</time>
      </trkpt>
      <trkpt lat="41.0656200" lon="-4.7203190">
        <ele>827.9</ele>
        <time>2019-08-14T10:47:38Z</time>
      </trkpt>
      <trkpt lat="41.0656610" lon="-4.7203070">
        <ele>827.8</ele>
        <time>2019-08-14T10:47:39Z</time>
      </trkpt>
      <trkpt lat="41.0657040" lon="-4.7202930">
        <ele>827.7</ele>
        <time>2019-08-14T10:47:40Z</time>
      </trkpt>
      <trkpt lat="41.0657450" lon="-4.7202710">
        <ele>827.6</ele>
        <time>2019-08-14T10:47:41Z</time>
      </trkpt>
      <trkpt lat="41.0657860" lon="-4.7202460">
        <ele>827.5</ele>
        <time>2019-08-14T10:47:42Z</time>
      </trkpt>
      <trkpt lat="41.0658260" lon="-4.7202210">
        <ele>827.5</ele>
        <time>2019-08-14T10:47:43Z</time>
      </trkpt>
      <trkpt lat="41.0658700" lon="-4.7202050">
        <ele>827.4</ele>
        <time>2019-08-14T10:47:44Z</time>
      </trkpt>
      <trkpt lat="41.0659130" lon="-4.7201880">
        <ele>827.3</ele>
        <time>2019-08-14T10:47:45Z</time>
      </trkpt>
      <trkpt lat="41.0659580" lon="-4.7201800">
        <ele>827.2</ele>
        <time>2019-08-14T10:47:46Z</time>
      </trkpt>
      <trkpt lat="41.0660030" lon="-4.7201670">
        <ele>827.2</ele>
        <time>2019-08-14T10:47:47Z</time>
      </trkpt>
      <trkpt lat="41.0660430" lon="-4.7201480">
        <ele>827.1</ele>
        <time>2019-08-14T10:47:48Z</time>
      </trkpt>
      <trkpt lat="41.0660820" lon="-4.7201250">
        <ele>827.0</ele>
        <time>2019-08-14T10:47:49Z</time>
      </trkpt>
      <trkpt lat="41.0661220" lon="-4.7201060">
        <ele>826.8</ele>
        <time>2019-08-14T10:47:50Z</time>
      </trkpt>
      <trkpt lat="41.0661620" lon="-4.7200940">
        <ele>826.7</ele>
        <time>2019-08-14T10:47:51Z</time>
      </trkpt>
      <trkpt lat="41.0661950" lon="-4.7200740">
        <ele>826.5</ele>
        <time>2019-08-14T10:47:52Z</time>
      </trkpt>
      <trkpt lat="41.0662210" lon="-4.7200600">
        <ele>826.5</ele>
        <time>2019-08-14T10:47:53Z</time>
      </trkpt>
      <trkpt lat="41.0662460" lon="-4.7200470">
        <ele>826.4</ele>
        <time>2019-08-14T10:47:54Z</time>
      </trkpt>
      <trkpt lat="41.0662740" lon="-4.7200400">
        <ele>826.3</ele>
        <time>2019-08-14T10:47:55Z</time>
      </trkpt>
      <trkpt lat="41.0663250" lon="-4.7200200">
        <ele>826.2</ele>
        <time>2019-08-14T10:47:57Z</time>
      </trkpt>
      <trkpt lat="41.0663500" lon="-4.7199980">
        <ele>826.1</ele>
        <time>2019-08-14T10:47:58Z</time>
      </trkpt>
      <trkpt lat="41.0663770" lon="-4.7199900">
        <ele>826.0</ele>
        <time>2019-08-14T10:47:59Z</time>
      </trkpt>
      <trkpt lat="41.0664080" lon="-4.7199790">
        <ele>825.6</ele>
        <time>2019-08-14T10:48:00Z</time>
      </trkpt>
      <trkpt lat="41.0664370" lon="-4.7199660">
        <ele>825.4</ele>
        <time>2019-08-14T10:48:01Z</time>
      </trkpt>
      <trkpt lat="41.0664780" lon="-4.7199320">
        <ele>825.1</ele>
        <time>2019-08-14T10:48:03Z</time>
      </trkpt>
      <trkpt lat="41.0665220" lon="-4.7199050">
        <ele>824.8</ele>
        <time>2019-08-14T10:48:04Z</time>
      </trkpt>
      <trkpt lat="41.0665470" lon="-4.7198850">
        <ele>824.6</ele>
        <time>2019-08-14T10:48:05Z</time>
      </trkpt>
      <trkpt lat="41.0665760" lon="-4.7198640">
        <ele>824.4</ele>
        <time>2019-08-14T10:48:06Z</time>
      </trkpt>
      <trkpt lat="41.0666160" lon="-4.7198490">
        <ele>824.2</ele>
        <time>2019-08-14T10:48:07Z</time>
      </trkpt>
      <trkpt lat="41.0666610" lon="-4.7198340">
        <ele>824.0</ele>
        <time>2019-08-14T10:48:08Z</time>
      </trkpt>
      <trkpt lat="41.0667090" lon="-4.7198220">
        <ele>823.9</ele>
        <time>2019-08-14T10:48:09Z</time>
      </trkpt>
      <trkpt lat="41.0667550" lon="-4.7198080">
        <ele>823.9</ele>
        <time>2019-08-14T10:48:10Z</time>
      </trkpt>
      <trkpt lat="41.0667990" lon="-4.7197890">
        <ele>823.6</ele>
        <time>2019-08-14T10:48:11Z</time>
      </trkpt>
      <trkpt lat="41.0668390" lon="-4.7197650">
        <ele>823.4</ele>
        <time>2019-08-14T10:48:12Z</time>
      </trkpt>
      <trkpt lat="41.0668750" lon="-4.7197580">
        <ele>823.3</ele>
        <time>2019-08-14T10:48:13Z</time>
      </trkpt>
      <trkpt lat="41.0669130" lon="-4.7197540">
        <ele>823.1</ele>
        <time>2019-08-14T10:48:14Z</time>
      </trkpt>
      <trkpt lat="41.0669540" lon="-4.7197590">
        <ele>822.9</ele>
        <time>2019-08-14T10:48:15Z</time>
      </trkpt>
      <trkpt lat="41.0669910" lon="-4.7197620">
        <ele>822.7</ele>
        <time>2019-08-14T10:48:16Z</time>
      </trkpt>
      <trkpt lat="41.0670270" lon="-4.7197670">
        <ele>822.6</ele>
        <time>2019-08-14T10:48:17Z</time>
      </trkpt>
      <trkpt lat="41.0670620" lon="-4.7197730">
        <ele>822.4</ele>
        <time>2019-08-14T10:48:18Z</time>
      </trkpt>
      <trkpt lat="41.0670960" lon="-4.7197740">
        <ele>822.3</ele>
        <time>2019-08-14T10:48:19Z</time>
      </trkpt>
      <trkpt lat="41.0671310" lon="-4.7197660">
        <ele>822.2</ele>
        <time>2019-08-14T10:48:20Z</time>
      </trkpt>
      <trkpt lat="41.0671630" lon="-4.7197590">
        <ele>822.1</ele>
        <time>2019-08-14T10:48:21Z</time>
      </trkpt>
      <trkpt lat="41.0671960" lon="-4.7197540">
        <ele>822.0</ele>
        <time>2019-08-14T10:48:22Z</time>
      </trkpt>
      <trkpt lat="41.0672320" lon="-4.7197500">
        <ele>821.9</ele>
        <time>2019-08-14T10:48:23Z</time>
      </trkpt>
      <trkpt lat="41.0672630" lon="-4.7197420">
        <ele>821.8</ele>
        <time>2019-08-14T10:48:24Z</time>
      </trkpt>
      <trkpt lat="41.0672950" lon="-4.7197340">
        <ele>821.7</ele>
        <time>2019-08-14T10:48:25Z</time>
      </trkpt>
      <trkpt lat="41.0673290" lon="-4.7197280">
        <ele>821.6</ele>
        <time>2019-08-14T10:48:26Z</time>
      </trkpt>
      <trkpt lat="41.0673590" lon="-4.7197290">
        <ele>821.5</ele>
        <time>2019-08-14T10:48:27Z</time>
      </trkpt>
      <trkpt lat="41.0673900" lon="-4.7197330">
        <ele>821.2</ele>
        <time>2019-08-14T10:48:28Z</time>
      </trkpt>
      <trkpt lat="41.0674210" lon="-4.7197370">
        <ele>821.0</ele>
        <time>2019-08-14T10:48:29Z</time>
      </trkpt>
      <trkpt lat="41.0674530" lon="-4.7197410">
        <ele>820.8</ele>
        <time>2019-08-14T10:48:30Z</time>
      </trkpt>
      <trkpt lat="41.0674830" lon="-4.7197470">
        <ele>820.7</ele>
        <time>2019-08-14T10:48:31Z</time>
      </trkpt>
      <trkpt lat="41.0675130" lon="-4.7197480">
        <ele>820.6</ele>
        <time>2019-08-14T10:48:32Z</time>
      </trkpt>
      <trkpt lat="41.0675430" lon="-4.7197460">
        <ele>820.5</ele>
        <time>2019-08-14T10:48:33Z</time>
      </trkpt>
      <trkpt lat="41.0675740" lon="-4.7197470">
        <ele>820.4</ele>
        <time>2019-08-14T10:48:34Z</time>
      </trkpt>
      <trkpt lat="41.0676050" lon="-4.7197520">
        <ele>820.3</ele>
        <time>2019-08-14T10:48:35Z</time>
      </trkpt>
      <trkpt lat="41.0676360" lon="-4.7197590">
        <ele>820.2</ele>
        <time>2019-08-14T10:48:36Z</time>
      </trkpt>
      <trkpt lat="41.0676690" lon="-4.7197670">
        <ele>820.1</ele>
        <time>2019-08-14T10:48:37Z</time>
      </trkpt>
      <trkpt lat="41.0677010" lon="-4.7197750">
        <ele>820.0</ele>
        <time>2019-08-14T10:48:38Z</time>
      </trkpt>
      <trkpt lat="41.0677350" lon="-4.7197820">
        <ele>819.9</ele>
        <time>2019-08-14T10:48:39Z</time>
      </trkpt>
      <trkpt lat="41.0677700" lon="-4.7197880">
        <ele>819.7</ele>
        <time>2019-08-14T10:48:40Z</time>
      </trkpt>
      <trkpt lat="41.0678050" lon="-4.7197960">
        <ele>819.6</ele>
        <time>2019-08-14T10:48:41Z</time>
      </trkpt>
      <trkpt lat="41.0678420" lon="-4.7198040">
        <ele>819.5</ele>
        <time>2019-08-14T10:48:42Z</time>
      </trkpt>
      <trkpt lat="41.0678780" lon="-4.7198120">
        <ele>819.4</ele>
        <time>2019-08-14T10:48:43Z</time>
      </trkpt>
      <trkpt lat="41.0679150" lon="-4.7198180">
        <ele>819.2</ele>
        <time>2019-08-14T10:48:44Z</time>
      </trkpt>
      <trkpt lat="41.0679530" lon="-4.7198240">
        <ele>819.0</ele>
        <time>2019-08-14T10:48:45Z</time>
      </trkpt>
      <trkpt lat="41.0679910" lon="-4.7198300">
        <ele>818.9</ele>
        <time>2019-08-14T10:48:46Z</time>
      </trkpt>
      <trkpt lat="41.0680300" lon="-4.7198390">
        <ele>818.7</ele>
        <time>2019-08-14T10:48:47Z</time>
      </trkpt>
      <trkpt lat="41.0680710" lon="-4.7198490">
        <ele>818.5</ele>
        <time>2019-08-14T10:48:48Z</time>
      </trkpt>
      <trkpt lat="41.0681140" lon="-4.7198610">
        <ele>818.3</ele>
        <time>2019-08-14T10:48:49Z</time>
      </trkpt>
      <trkpt lat="41.0681590" lon="-4.7198740">
        <ele>818.1</ele>
        <time>2019-08-14T10:48:50Z</time>
      </trkpt>
      <trkpt lat="41.0682060" lon="-4.7198890">
        <ele>817.9</ele>
        <time>2019-08-14T10:48:51Z</time>
      </trkpt>
      <trkpt lat="41.0682540" lon="-4.7199020">
        <ele>817.7</ele>
        <time>2019-08-14T10:48:52Z</time>
      </trkpt>
      <trkpt lat="41.0683040" lon="-4.7199150">
        <ele>817.5</ele>
        <time>2019-08-14T10:48:53Z</time>
      </trkpt>
      <trkpt lat="41.0683530" lon="-4.7199330">
        <ele>817.5</ele>
        <time>2019-08-14T10:48:54Z</time>
      </trkpt>
      <trkpt lat="41.0683990" lon="-4.7199570">
        <ele>817.6</ele>
        <time>2019-08-14T10:48:55Z</time>
      </trkpt>
      <trkpt lat="41.0684420" lon="-4.7199850">
        <ele>817.8</ele>
        <time>2019-08-14T10:48:56Z</time>
      </trkpt>
      <trkpt lat="41.0684820" lon="-4.7200150">
        <ele>817.9</ele>
        <time>2019-08-14T10:48:57Z</time>
      </trkpt>
      <trkpt lat="41.0685180" lon="-4.7200450">
        <ele>818.1</ele>
        <time>2019-08-14T10:48:58Z</time>
      </trkpt>
      <trkpt lat="41.0685540" lon="-4.7200720">
        <ele>818.2</ele>
        <time>2019-08-14T10:48:59Z</time>
      </trkpt>
      <trkpt lat="41.0685890" lon="-4.7201000">
        <ele>818.4</ele>
        <time>2019-08-14T10:49:00Z</time>
      </trkpt>
      <trkpt lat="41.0686220" lon="-4.7201280">
        <ele>818.6</ele>
        <time>2019-08-14T10:49:01Z</time>
      </trkpt>
      <trkpt lat="41.0686530" lon="-4.7201590">
        <ele>818.7</ele>
        <time>2019-08-14T10:49:02Z</time>
      </trkpt>
      <trkpt lat="41.0686810" lon="-4.7201910">
        <ele>818.8</ele>
        <time>2019-08-14T10:49:03Z</time>
      </trkpt>
      <trkpt lat="41.0687080" lon="-4.7202240">
        <ele>818.8</ele>
        <time>2019-08-14T10:49:04Z</time>
      </trkpt>
      <trkpt lat="41.0687330" lon="-4.7202590">
        <ele>818.9</ele>
        <time>2019-08-14T10:49:05Z</time>
      </trkpt>
      <trkpt lat="41.0687540" lon="-4.7202930">
        <ele>818.9</ele>
        <time>2019-08-14T10:49:06Z</time>
      </trkpt>
      <trkpt lat="41.0687720" lon="-4.7203250">
        <ele>818.9</ele>
        <time>2019-08-14T10:49:07Z</time>
      </trkpt>
      <trkpt lat="41.0687870" lon="-4.7203570">
        <ele>818.9</ele>
        <time>2019-08-14T10:49:08Z</time>
      </trkpt>
      <trkpt lat="41.0688130" lon="-4.7204080">
        <ele>818.9</ele>
        <time>2019-08-14T10:49:10Z</time>
      </trkpt>
      <trkpt lat="41.0688360" lon="-4.7204490">
        <ele>818.9</ele>
        <time>2019-08-14T10:49:12Z</time>
      </trkpt>
      <trkpt lat="41.0688490" lon="-4.7204850">
        <ele>818.8</ele>
        <time>2019-08-14T10:49:14Z</time>
      </trkpt>
      <trkpt lat="41.0688850" lon="-4.7205440">
        <ele>818.5</ele>
        <time>2019-08-14T10:49:48Z</time>
      </trkpt>
      <trkpt lat="41.0688580" lon="-4.7206510">
        <ele>818.2</ele>
        <time>2019-08-14T10:50:04Z</time>
      </trkpt>
      <trkpt lat="41.0688380" lon="-4.7207120">
        <ele>818.0</ele>
        <time>2019-08-14T10:50:06Z</time>
      </trkpt>
      <trkpt lat="41.0688240" lon="-4.7207690">
        <ele>817.9</ele>
        <time>2019-08-14T10:50:08Z</time>
      </trkpt>
      <trkpt lat="41.0688480" lon="-4.7208130">
        <ele>817.7</ele>
        <time>2019-08-14T10:50:10Z</time>
      </trkpt>
      <trkpt lat="41.0688820" lon="-4.7208450">
        <ele>817.6</ele>
        <time>2019-08-14T10:50:12Z</time>
      </trkpt>
      <trkpt lat="41.0689080" lon="-4.7208720">
        <ele>817.5</ele>
        <time>2019-08-14T10:50:14Z</time>
      </trkpt>
      <trkpt lat="41.0689260" lon="-4.7208800">
        <ele>817.5</ele>
        <time>2019-08-14T10:50:19Z</time>
      </trkpt>
      <trkpt lat="41.0689140" lon="-4.7208350">
        <ele>817.4</ele>
        <time>2019-08-14T10:51:28Z</time>
      </trkpt>
      <trkpt lat="41.0688910" lon="-4.7208070">
        <ele>817.3</ele>
        <time>2019-08-14T10:51:30Z</time>
      </trkpt>
      <trkpt lat="41.0688560" lon="-4.7207820">
        <ele>817.3</ele>
        <time>2019-08-14T10:51:32Z</time>
      </trkpt>
      <trkpt lat="41.0688150" lon="-4.7207780">
        <ele>817.2</ele>
        <time>2019-08-14T10:51:34Z</time>
      </trkpt>
      <trkpt lat="41.0687710" lon="-4.7208170">
        <ele>817.0</ele>
        <time>2019-08-14T10:51:36Z</time>
      </trkpt>
      <trkpt lat="41.0687480" lon="-4.7208400">
        <ele>817.0</ele>
        <time>2019-08-14T10:51:37Z</time>
      </trkpt>
      <trkpt lat="41.0687260" lon="-4.7208620">
        <ele>816.9</ele>
        <time>2019-08-14T10:51:38Z</time>
      </trkpt>
      <trkpt lat="41.0687040" lon="-4.7208850">
        <ele>816.8</ele>
        <time>2019-08-14T10:51:39Z</time>
      </trkpt>
      <trkpt lat="41.0686820" lon="-4.7209080">
        <ele>816.8</ele>
        <time>2019-08-14T10:51:40Z</time>
      </trkpt>
      <trkpt lat="41.0686590" lon="-4.7209350">
        <ele>816.7</ele>
        <time>2019-08-14T10:51:41Z</time>
      </trkpt>
      <trkpt lat="41.0686360" lon="-4.7209620">
        <ele>816.6</ele>
        <time>2019-08-14T10:51:42Z</time>
      </trkpt>
      <trkpt lat="41.0686120" lon="-4.7209900">
        <ele>816.6</ele>
        <time>2019-08-14T10:51:43Z</time>
      </trkpt>
      <trkpt lat="41.0685870" lon="-4.7210180">
        <ele>816.5</ele>
        <time>2019-08-14T10:51:44Z</time>
      </trkpt>
      <trkpt lat="41.0685600" lon="-4.7210450">
        <ele>816.4</ele>
        <time>2019-08-14T10:51:45Z</time>
      </trkpt>
      <trkpt lat="41.0685330" lon="-4.7210730">
        <ele>816.3</ele>
        <time>2019-08-14T10:51:46Z</time>
      </trkpt>
      <trkpt lat="41.0685030" lon="-4.7211010">
        <ele>816.2</ele>
        <time>2019-08-14T10:51:47Z</time>
      </trkpt>
      <trkpt lat="41.0684720" lon="-4.7211300">
        <ele>816.1</ele>
        <time>2019-08-14T10:51:48Z</time>
      </trkpt>
      <trkpt lat="41.0684410" lon="-4.7211630">
        <ele>815.9</ele>
        <time>2019-08-14T10:51:49Z</time>
      </trkpt>
      <trkpt lat="41.0684100" lon="-4.7211980">
        <ele>815.7</ele>
        <time>2019-08-14T10:51:50Z</time>
      </trkpt>
      <trkpt lat="41.0683780" lon="-4.7212360">
        <ele>815.5</ele>
        <time>2019-08-14T10:51:51Z</time>
      </trkpt>
      <trkpt lat="41.0683450" lon="-4.7212750">
        <ele>815.4</ele>
        <time>2019-08-14T10:51:52Z</time>
      </trkpt>
      <trkpt lat="41.0683100" lon="-4.7213160">
        <ele>815.2</ele>
        <time>2019-08-14T10:51:53Z</time>
      </trkpt>
      <trkpt lat="41.0682750" lon="-4.7213560">
        <ele>815.1</ele>
        <time>2019-08-14T10:51:54Z</time>
      </trkpt>
      <trkpt lat="41.0682390" lon="-4.7214000">
        <ele>814.9</ele>
        <time>2019-08-14T10:51:55Z</time>
      </trkpt>
      <trkpt lat="41.0682020" lon="-4.7214450">
        <ele>814.7</ele>
        <time>2019-08-14T10:51:56Z</time>
      </trkpt>
      <trkpt lat="41.0681630" lon="-4.7214860">
        <ele>814.5</ele>
        <time>2019-08-14T10:51:57Z</time>
      </trkpt>
      <trkpt lat="41.0681230" lon="-4.7215270">
        <ele>814.2</ele>
        <time>2019-08-14T10:51:58Z</time>
      </trkpt>
      <trkpt lat="41.0680850" lon="-4.7215670">
        <ele>814.0</ele>
        <time>2019-08-14T10:51:59Z</time>
      </trkpt>
      <trkpt lat="41.0680460" lon="-4.7216060">
        <ele>813.4</ele>
        <time>2019-08-14T10:52:00Z</time>
      </trkpt>
      <trkpt lat="41.0680080" lon="-4.7216440">
        <ele>813.4</ele>
        <time>2019-08-14T10:52:01Z</time>
      </trkpt>
      <trkpt lat="41.0679710" lon="-4.7216820">
        <ele>813.4</ele>
        <time>2019-08-14T10:52:02Z</time>
      </trkpt>
      <trkpt lat="41.0679380" lon="-4.7217220">
        <ele>813.0</ele>
        <time>2019-08-14T10:52:03Z</time>
      </trkpt>
      <trkpt lat="41.0679100" lon="-4.7217630">
        <ele>812.7</ele>
        <time>2019-08-14T10:52:04Z</time>
      </trkpt>
      <trkpt lat="41.0678810" lon="-4.7217980">
        <ele>812.4</ele>
        <time>2019-08-14T10:52:05Z</time>
      </trkpt>
      <trkpt lat="41.0678530" lon="-4.7218290">
        <ele>812.1</ele>
        <time>2019-08-14T10:52:06Z</time>
      </trkpt>
      <trkpt lat="41.0678270" lon="-4.7218570">
        <ele>811.8</ele>
        <time>2019-08-14T10:52:07Z</time>
      </trkpt>
      <trkpt lat="41.0678020" lon="-4.7218810">
        <ele>811.7</ele>
        <time>2019-08-14T10:52:08Z</time>
      </trkpt>
      <trkpt lat="41.0677650" lon="-4.7219210">
        <ele>811.4</ele>
        <time>2019-08-14T10:52:10Z</time>
      </trkpt>
      <trkpt lat="41.0677370" lon="-4.7219550">
        <ele>811.6</ele>
        <time>2019-08-14T10:52:12Z</time>
      </trkpt>
      <trkpt lat="41.0677140" lon="-4.7219810">
        <ele>811.8</ele>
        <time>2019-08-14T10:52:14Z</time>
      </trkpt>
      <trkpt lat="41.0677320" lon="-4.7220810">
        <ele>811.0</ele>
        <time>2019-08-14T10:52:28Z</time>
      </trkpt>
      <trkpt lat="41.0677310" lon="-4.7221510">
        <ele>810.8</ele>
        <time>2019-08-14T10:52:30Z</time>
      </trkpt>
      <trkpt lat="41.0677200" lon="-4.7221920">
        <ele>810.7</ele>
        <time>2019-08-14T10:52:31Z</time>
      </trkpt>
      <trkpt lat="41.0677020" lon="-4.7222300">
        <ele>810.6</ele>
        <time>2019-08-14T10:52:32Z</time>
      </trkpt>
      <trkpt lat="41.0676770" lon="-4.7222650">
        <ele>810.5</ele>
        <time>2019-08-14T10:52:33Z</time>
      </trkpt>
      <trkpt lat="41.0676470" lon="-4.7222990">
        <ele>810.4</ele>
        <time>2019-08-14T10:52:34Z</time>
      </trkpt>
      <trkpt lat="41.0676130" lon="-4.7223350">
        <ele>810.3</ele>
        <time>2019-08-14T10:52:35Z</time>
      </trkpt>
      <trkpt lat="41.0675760" lon="-4.7223730">
        <ele>810.2</ele>
        <time>2019-08-14T10:52:36Z</time>
      </trkpt>
      <trkpt lat="41.0675370" lon="-4.7224140">
        <ele>810.1</ele>
        <time>2019-08-14T10:52:37Z</time>
      </trkpt>
      <trkpt lat="41.0674990" lon="-4.7224560">
        <ele>810.0</ele>
        <time>2019-08-14T10:52:38Z</time>
      </trkpt>
      <trkpt lat="41.0674560" lon="-4.7225050">
        <ele>809.9</ele>
        <time>2019-08-14T10:52:39Z</time>
      </trkpt>
      <trkpt lat="41.0674130" lon="-4.7225600">
        <ele>809.9</ele>
        <time>2019-08-14T10:52:40Z</time>
      </trkpt>
      <trkpt lat="41.0673750" lon="-4.7226270">
        <ele>809.8</ele>
        <time>2019-08-14T10:52:41Z</time>
      </trkpt>
      <trkpt lat="41.0673460" lon="-4.7227050">
        <ele>809.7</ele>
        <time>2019-08-14T10:52:42Z</time>
      </trkpt>
      <trkpt lat="41.0673260" lon="-4.7227900">
        <ele>809.7</ele>
        <time>2019-08-14T10:52:43Z</time>
      </trkpt>
      <trkpt lat="41.0673120" lon="-4.7228760">
        <ele>809.6</ele>
        <time>2019-08-14T10:52:44Z</time>
      </trkpt>
      <trkpt lat="41.0673010" lon="-4.7229630">
        <ele>809.6</ele>
        <time>2019-08-14T10:52:45Z</time>
      </trkpt>
      <trkpt lat="41.0672900" lon="-4.7230520">
        <ele>809.6</ele>
        <time>2019-08-14T10:52:46Z</time>
      </trkpt>
      <trkpt lat="41.0672790" lon="-4.7231400">
        <ele>809.6</ele>
        <time>2019-08-14T10:52:47Z</time>
      </trkpt>
      <trkpt lat="41.0672670" lon="-4.7232260">
        <ele>809.8</ele>
        <time>2019-08-14T10:52:48Z</time>
      </trkpt>
      <trkpt lat="41.0672540" lon="-4.7233100">
        <ele>810.0</ele>
        <time>2019-08-14T10:52:49Z</time>
      </trkpt>
      <trkpt lat="41.0672410" lon="-4.7233910">
        <ele>810.2</ele>
        <time>2019-08-14T10:52:50Z</time>
      </trkpt>
      <trkpt lat="41.0672270" lon="-4.7234680">
        <ele>810.3</ele>
        <time>2019-08-14T10:52:51Z</time>
      </trkpt>
      <trkpt lat="41.0672150" lon="-4.7235390">
        <ele>810.5</ele>
        <time>2019-08-14T10:52:52Z</time>
      </trkpt>
      <trkpt lat="41.0672030" lon="-4.7236060">
        <ele>810.7</ele>
        <time>2019-08-14T10:52:53Z</time>
      </trkpt>
      <trkpt lat="41.0671930" lon="-4.7236670">
        <ele>810.9</ele>
        <time>2019-08-14T10:52:54Z</time>
      </trkpt>
      <trkpt lat="41.0671830" lon="-4.7237230">
        <ele>811.0</ele>
        <time>2019-08-14T10:52:55Z</time>
      </trkpt>
      <trkpt lat="41.0671740" lon="-4.7237730">
        <ele>811.1</ele>
        <time>2019-08-14T10:52:56Z</time>
      </trkpt>
      <trkpt lat="41.0671660" lon="-4.7238210">
        <ele>811.3</ele>
        <time>2019-08-14T10:52:57Z</time>
      </trkpt>
      <trkpt lat="41.0671570" lon="-4.7238690">
        <ele>811.6</ele>
        <time>2019-08-14T10:52:58Z</time>
      </trkpt>
      <trkpt lat="41.0671520" lon="-4.7239140">
        <ele>811.8</ele>
        <time>2019-08-14T10:52:59Z</time>
      </trkpt>
      <trkpt lat="41.0671490" lon="-4.7239560">
        <ele>811.8</ele>
        <time>2019-08-14T10:53:00Z</time>
      </trkpt>
      <trkpt lat="41.0671450" lon="-4.7239940">
        <ele>811.9</ele>
        <time>2019-08-14T10:53:01Z</time>
      </trkpt>
      <trkpt lat="41.0671420" lon="-4.7240320">
        <ele>811.9</ele>
        <time>2019-08-14T10:53:02Z</time>
      </trkpt>
      <trkpt lat="41.0671380" lon="-4.7240690">
        <ele>812.0</ele>
        <time>2019-08-14T10:53:03Z</time>
      </trkpt>
      <trkpt lat="41.0671330" lon="-4.7241050">
        <ele>812.0</ele>
        <time>2019-08-14T10:53:04Z</time>
      </trkpt>
      <trkpt lat="41.0671280" lon="-4.7241400">
        <ele>812.1</ele>
        <time>2019-08-14T10:53:05Z</time>
      </trkpt>
      <trkpt lat="41.0671180" lon="-4.7242090">
        <ele>812.2</ele>
        <time>2019-08-14T10:53:07Z</time>
      </trkpt>
      <trkpt lat="41.0671070" lon="-4.7242740">
        <ele>812.3</ele>
        <time>2019-08-14T10:53:09Z</time>
      </trkpt>
      <trkpt lat="41.0671000" lon="-4.7243380">
        <ele>812.5</ele>
        <time>2019-08-14T10:53:11Z</time>
      </trkpt>
      <trkpt lat="41.0670910" lon="-4.7244010">
        <ele>812.6</ele>
        <time>2019-08-14T10:53:13Z</time>
      </trkpt>
      <trkpt lat="41.0670810" lon="-4.7244670">
        <ele>812.8</ele>
        <time>2019-08-14T10:53:15Z</time>
      </trkpt>
      <trkpt lat="41.0670720" lon="-4.7245350">
        <ele>812.9</ele>
        <time>2019-08-14T10:53:17Z</time>
      </trkpt>
      <trkpt lat="41.0670630" lon="-4.7246030">
        <ele>813.1</ele>
        <time>2019-08-14T10:53:19Z</time>
      </trkpt>
      <trkpt lat="41.0670570" lon="-4.7246720">
        <ele>813.3</ele>
        <time>2019-08-14T10:53:21Z</time>
      </trkpt>
      <trkpt lat="41.0670520" lon="-4.7247410">
        <ele>813.5</ele>
        <time>2019-08-14T10:53:23Z</time>
      </trkpt>
      <trkpt lat="41.0670480" lon="-4.7248060">
        <ele>813.7</ele>
        <time>2019-08-14T10:53:25Z</time>
      </trkpt>
      <trkpt lat="41.0670480" lon="-4.7248680">
        <ele>813.9</ele>
        <time>2019-08-14T10:53:27Z</time>
      </trkpt>
      <trkpt lat="41.0670530" lon="-4.7249350">
        <ele>814.3</ele>
        <time>2019-08-14T10:53:29Z</time>
      </trkpt>
      <trkpt lat="41.0670680" lon="-4.7250030">
        <ele>815.5</ele>
        <time>2019-08-14T10:53:31Z</time>
      </trkpt>
      <trkpt lat="41.0670800" lon="-4.7250720">
        <ele>815.7</ele>
        <time>2019-08-14T10:53:33Z</time>
      </trkpt>
      <trkpt lat="41.0670910" lon="-4.7251380">
        <ele>816.1</ele>
        <time>2019-08-14T10:53:35Z</time>
      </trkpt>
      <trkpt lat="41.0671000" lon="-4.7252050">
        <ele>816.3</ele>
        <time>2019-08-14T10:53:37Z</time>
      </trkpt>
      <trkpt lat="41.0671110" lon="-4.7252720">
        <ele>816.6</ele>
        <time>2019-08-14T10:53:39Z</time>
      </trkpt>
      <trkpt lat="41.0671300" lon="-4.7253380">
        <ele>816.9</ele>
        <time>2019-08-14T10:53:41Z</time>
      </trkpt>
      <trkpt lat="41.0671430" lon="-4.7253720">
        <ele>817.0</ele>
        <time>2019-08-14T10:53:42Z</time>
      </trkpt>
      <trkpt lat="41.0671560" lon="-4.7254050">
        <ele>817.2</ele>
        <time>2019-08-14T10:53:43Z</time>
      </trkpt>
      <trkpt lat="41.0671690" lon="-4.7254370">
        <ele>817.3</ele>
        <time>2019-08-14T10:53:44Z</time>
      </trkpt>
      <trkpt lat="41.0671840" lon="-4.7254690">
        <ele>817.4</ele>
        <time>2019-08-14T10:53:45Z</time>
      </trkpt>
      <trkpt lat="41.0671980" lon="-4.7255020">
        <ele>817.5</ele>
        <time>2019-08-14T10:53:46Z</time>
      </trkpt>
      <trkpt lat="41.0672120" lon="-4.7255370">
        <ele>817.7</ele>
        <time>2019-08-14T10:53:47Z</time>
      </trkpt>
      <trkpt lat="41.0672260" lon="-4.7255710">
        <ele>817.8</ele>
        <time>2019-08-14T10:53:48Z</time>
      </trkpt>
      <trkpt lat="41.0672400" lon="-4.7256060">
        <ele>817.9</ele>
        <time>2019-08-14T10:53:49Z</time>
      </trkpt>
      <trkpt lat="41.0672530" lon="-4.7256400">
        <ele>818.1</ele>
        <time>2019-08-14T10:53:50Z</time>
      </trkpt>
      <trkpt lat="41.0672670" lon="-4.7256750">
        <ele>818.2</ele>
        <time>2019-08-14T10:53:51Z</time>
      </trkpt>
      <trkpt lat="41.0672810" lon="-4.7257090">
        <ele>818.4</ele>
        <time>2019-08-14T10:53:52Z</time>
      </trkpt>
      <trkpt lat="41.0672950" lon="-4.7257450">
        <ele>818.6</ele>
        <time>2019-08-14T10:53:53Z</time>
      </trkpt>
      <trkpt lat="41.0673090" lon="-4.7257800">
        <ele>818.7</ele>
        <time>2019-08-14T10:53:54Z</time>
      </trkpt>
      <trkpt lat="41.0673230" lon="-4.7258140">
        <ele>818.9</ele>
        <time>2019-08-14T10:53:55Z</time>
      </trkpt>
      <trkpt lat="41.0673370" lon="-4.7258480">
        <ele>819.1</ele>
        <time>2019-08-14T10:53:56Z</time>
      </trkpt>
      <trkpt lat="41.0673510" lon="-4.7258820">
        <ele>819.3</ele>
        <time>2019-08-14T10:53:57Z</time>
      </trkpt>
      <trkpt lat="41.0673650" lon="-4.7259160">
        <ele>819.4</ele>
        <time>2019-08-14T10:53:58Z</time>
      </trkpt>
      <trkpt lat="41.0673800" lon="-4.7259490">
        <ele>819.6</ele>
        <time>2019-08-14T10:53:59Z</time>
      </trkpt>
      <trkpt lat="41.0673950" lon="-4.7259800">
        <ele>819.7</ele>
        <time>2019-08-14T10:54:00Z</time>
      </trkpt>
      <trkpt lat="41.0674120" lon="-4.7260120">
        <ele>819.9</ele>
        <time>2019-08-14T10:54:01Z</time>
      </trkpt>
      <trkpt lat="41.0674280" lon="-4.7260440">
        <ele>820.0</ele>
        <time>2019-08-14T10:54:02Z</time>
      </trkpt>
      <trkpt lat="41.0674440" lon="-4.7260760">
        <ele>820.2</ele>
        <time>2019-08-14T10:54:03Z</time>
      </trkpt>
      <trkpt lat="41.0674600" lon="-4.7261080">
        <ele>820.3</ele>
        <time>2019-08-14T10:54:04Z</time>
      </trkpt>
      <trkpt lat="41.0674780" lon="-4.7261400">
        <ele>820.4</ele>
        <time>2019-08-14T10:54:05Z</time>
      </trkpt>
      <trkpt lat="41.0674960" lon="-4.7261710">
        <ele>820.5</ele>
        <time>2019-08-14T10:54:06Z</time>
      </trkpt>
      <trkpt lat="41.0675140" lon="-4.7262020">
        <ele>820.6</ele>
        <time>2019-08-14T10:54:07Z</time>
      </trkpt>
      <trkpt lat="41.0675330" lon="-4.7262320">
        <ele>820.7</ele>
        <time>2019-08-14T10:54:08Z</time>
      </trkpt>
      <trkpt lat="41.0675540" lon="-4.7262620">
        <ele>820.9</ele>
        <time>2019-08-14T10:54:09Z</time>
      </trkpt>
      <trkpt lat="41.0675740" lon="-4.7262930">
        <ele>821.0</ele>
        <time>2019-08-14T10:54:10Z</time>
      </trkpt>
      <trkpt lat="41.0675940" lon="-4.7263220">
        <ele>821.1</ele>
        <time>2019-08-14T10:54:11Z</time>
      </trkpt>
      <trkpt lat="41.0676150" lon="-4.7263520">
        <ele>821.2</ele>
        <time>2019-08-14T10:54:12Z</time>
      </trkpt>
      <trkpt lat="41.0676360" lon="-4.7263820">
        <ele>821.3</ele>
        <time>2019-08-14T10:54:13Z</time>
      </trkpt>
      <trkpt lat="41.0676580" lon="-4.7264100">
        <ele>821.4</ele>
        <time>2019-08-14T10:54:14Z</time>
      </trkpt>
      <trkpt lat="41.0676810" lon="-4.7264380">
        <ele>821.6</ele>
        <time>2019-08-14T10:54:15Z</time>
      </trkpt>
      <trkpt lat="41.0677040" lon="-4.7264670">
        <ele>821.7</ele>
        <time>2019-08-14T10:54:16Z</time>
      </trkpt>
      <trkpt lat="41.0677270" lon="-4.7264950">
        <ele>821.9</ele>
        <time>2019-08-14T10:54:17Z</time>
      </trkpt>
      <trkpt lat="41.0677520" lon="-4.7265240">
        <ele>822.1</ele>
        <time>2019-08-14T10:54:18Z</time>
      </trkpt>
      <trkpt lat="41.0677780" lon="-4.7265530">
        <ele>822.2</ele>
        <time>2019-08-14T10:54:19Z</time>
      </trkpt>
      <trkpt lat="41.0678050" lon="-4.7265810">
        <ele>822.4</ele>
        <time>2019-08-14T10:54:20Z</time>
      </trkpt>
      <trkpt lat="41.0678330" lon="-4.7266090">
        <ele>822.5</ele>
        <time>2019-08-14T10:54:21Z</time>
      </trkpt>
      <trkpt lat="41.0678610" lon="-4.7266370">
        <ele>822.7</ele>
        <time>2019-08-14T10:54:22Z</time>
      </trkpt>
      <trkpt lat="41.0678890" lon="-4.7266650">
        <ele>822.8</ele>
        <time>2019-08-14T10:54:23Z</time>
      </trkpt>
      <trkpt lat="41.0679170" lon="-4.7266920">
        <ele>822.9</ele>
        <time>2019-08-14T10:54:24Z</time>
      </trkpt>
      <trkpt lat="41.0679440" lon="-4.7267160">
        <ele>822.9</ele>
        <time>2019-08-14T10:54:25Z</time>
      </trkpt>
      <trkpt lat="41.0679720" lon="-4.7267380">
        <ele>823.0</ele>
        <time>2019-08-14T10:54:26Z</time>
      </trkpt>
      <trkpt lat="41.0680010" lon="-4.7267600">
        <ele>823.0</ele>
        <time>2019-08-14T10:54:27Z</time>
      </trkpt>
      <trkpt lat="41.0680310" lon="-4.7267830">
        <ele>823.1</ele>
        <time>2019-08-14T10:54:28Z</time>
      </trkpt>
      <trkpt lat="41.0680620" lon="-4.7268070">
        <ele>823.1</ele>
        <time>2019-08-14T10:54:29Z</time>
      </trkpt>
      <trkpt lat="41.0680940" lon="-4.7268310">
        <ele>823.1</ele>
        <time>2019-08-14T10:54:30Z</time>
      </trkpt>
      <trkpt lat="41.0681270" lon="-4.7268560">
        <ele>823.2</ele>
        <time>2019-08-14T10:54:31Z</time>
      </trkpt>
      <trkpt lat="41.0681590" lon="-4.7268800">
        <ele>823.2</ele>
        <time>2019-08-14T10:54:32Z</time>
      </trkpt>
      <trkpt lat="41.0681920" lon="-4.7269020">
        <ele>823.2</ele>
        <time>2019-08-14T10:54:33Z</time>
      </trkpt>
      <trkpt lat="41.0682240" lon="-4.7269240">
        <ele>823.2</ele>
        <time>2019-08-14T10:54:34Z</time>
      </trkpt>
      <trkpt lat="41.0682560" lon="-4.7269460">
        <ele>823.2</ele>
        <time>2019-08-14T10:54:35Z</time>
      </trkpt>
      <trkpt lat="41.0682870" lon="-4.7269690">
        <ele>823.2</ele>
        <time>2019-08-14T10:54:36Z</time>
      </trkpt>
      <trkpt lat="41.0683170" lon="-4.7269910">
        <ele>823.3</ele>
        <time>2019-08-14T10:54:37Z</time>
      </trkpt>
      <trkpt lat="41.0683470" lon="-4.7270130">
        <ele>823.3</ele>
        <time>2019-08-14T10:54:38Z</time>
      </trkpt>
      <trkpt lat="41.0683770" lon="-4.7270340">
        <ele>823.3</ele>
        <time>2019-08-14T10:54:39Z</time>
      </trkpt>
      <trkpt lat="41.0684070" lon="-4.7270520">
        <ele>823.3</ele>
        <time>2019-08-14T10:54:40Z</time>
      </trkpt>
      <trkpt lat="41.0684400" lon="-4.7270670">
        <ele>823.3</ele>
        <time>2019-08-14T10:54:41Z</time>
      </trkpt>
      <trkpt lat="41.0684720" lon="-4.7270770">
        <ele>823.3</ele>
        <time>2019-08-14T10:54:42Z</time>
      </trkpt>
      <trkpt lat="41.0685010" lon="-4.7270830">
        <ele>823.2</ele>
        <time>2019-08-14T10:54:43Z</time>
      </trkpt>
      <trkpt lat="41.0685300" lon="-4.7270870">
        <ele>823.2</ele>
        <time>2019-08-14T10:54:44Z</time>
      </trkpt>
      <trkpt lat="41.0685620" lon="-4.7270950">
        <ele>823.2</ele>
        <time>2019-08-14T10:54:45Z</time>
      </trkpt>
      <trkpt lat="41.0685970" lon="-4.7271050">
        <ele>823.2</ele>
        <time>2019-08-14T10:54:46Z</time>
      </trkpt>
      <trkpt lat="41.0686350" lon="-4.7271180">
        <ele>823.1</ele>
        <time>2019-08-14T10:54:47Z</time>
      </trkpt>
      <trkpt lat="41.0686720" lon="-4.7271320">
        <ele>823.0</ele>
        <time>2019-08-14T10:54:48Z</time>
      </trkpt>
      <trkpt lat="41.0687090" lon="-4.7271490">
        <ele>823.0</ele>
        <time>2019-08-14T10:54:49Z</time>
      </trkpt>
      <trkpt lat="41.0687440" lon="-4.7271660">
        <ele>822.9</ele>
        <time>2019-08-14T10:54:50Z</time>
      </trkpt>
      <trkpt lat="41.0687780" lon="-4.7271860">
        <ele>822.8</ele>
        <time>2019-08-14T10:54:51Z</time>
      </trkpt>
      <trkpt lat="41.0688130" lon="-4.7272060">
        <ele>822.8</ele>
        <time>2019-08-14T10:54:52Z</time>
      </trkpt>
      <trkpt lat="41.0688480" lon="-4.7272260">
        <ele>822.7</ele>
        <time>2019-08-14T10:54:53Z</time>
      </trkpt>
      <trkpt lat="41.0688830" lon="-4.7272500">
        <ele>822.6</ele>
        <time>2019-08-14T10:54:54Z</time>
      </trkpt>
      <trkpt lat="41.0689200" lon="-4.7272750">
        <ele>822.6</ele>
        <time>2019-08-14T10:54:55Z</time>
      </trkpt>
      <trkpt lat="41.0689560" lon="-4.7273000">
        <ele>822.6</ele>
        <time>2019-08-14T10:54:56Z</time>
      </trkpt>
      <trkpt lat="41.0689940" lon="-4.7273250">
        <ele>822.5</ele>
        <time>2019-08-14T10:54:57Z</time>
      </trkpt>
      <trkpt lat="41.0690320" lon="-4.7273500">
        <ele>822.4</ele>
        <time>2019-08-14T10:54:58Z</time>
      </trkpt>
      <trkpt lat="41.0690700" lon="-4.7273760">
        <ele>822.4</ele>
        <time>2019-08-14T10:54:59Z</time>
      </trkpt>
      <trkpt lat="41.0691090" lon="-4.7274020">
        <ele>822.4</ele>
        <time>2019-08-14T10:55:00Z</time>
      </trkpt>
      <trkpt lat="41.0691480" lon="-4.7274290">
        <ele>822.3</ele>
        <time>2019-08-14T10:55:01Z</time>
      </trkpt>
      <trkpt lat="41.0691870" lon="-4.7274550">
        <ele>822.3</ele>
        <time>2019-08-14T10:55:02Z</time>
      </trkpt>
      <trkpt lat="41.0692250" lon="-4.7274810">
        <ele>822.2</ele>
        <time>2019-08-14T10:55:03Z</time>
      </trkpt>
      <trkpt lat="41.0692640" lon="-4.7274980">
        <ele>822.1</ele>
        <time>2019-08-14T10:55:04Z</time>
      </trkpt>
      <trkpt lat="41.0693060" lon="-4.7275250">
        <ele>822.1</ele>
        <time>2019-08-14T10:55:05Z</time>
      </trkpt>
      <trkpt lat="41.0693480" lon="-4.7275530">
        <ele>822.0</ele>
        <time>2019-08-14T10:55:06Z</time>
      </trkpt>
      <trkpt lat="41.0693910" lon="-4.7275780">
        <ele>821.9</ele>
        <time>2019-08-14T10:55:07Z</time>
      </trkpt>
      <trkpt lat="41.0694330" lon="-4.7276050">
        <ele>821.9</ele>
        <time>2019-08-14T10:55:08Z</time>
      </trkpt>
      <trkpt lat="41.0694760" lon="-4.7276390">
        <ele>821.8</ele>
        <time>2019-08-14T10:55:09Z</time>
      </trkpt>
      <trkpt lat="41.0695190" lon="-4.7276720">
        <ele>821.8</ele>
        <time>2019-08-14T10:55:10Z</time>
      </trkpt>
      <trkpt lat="41.0695620" lon="-4.7277040">
        <ele>821.8</ele>
        <time>2019-08-14T10:55:11Z</time>
      </trkpt>
      <trkpt lat="41.0696060" lon="-4.7277310">
        <ele>821.8</ele>
        <time>2019-08-14T10:55:12Z</time>
      </trkpt>
      <trkpt lat="41.0696470" lon="-4.7277620">
        <ele>821.9</ele>
        <time>2019-08-14T10:55:13Z</time>
      </trkpt>
      <trkpt lat="41.0696890" lon="-4.7277950">
        <ele>821.9</ele>
        <time>2019-08-14T10:55:14Z</time>
      </trkpt>
      <trkpt lat="41.0697320" lon="-4.7278280">
        <ele>821.9</ele>
        <time>2019-08-14T10:55:15Z</time>
      </trkpt>
      <trkpt lat="41.0697750" lon="-4.7278600">
        <ele>822.0</ele>
        <time>2019-08-14T10:55:16Z</time>
      </trkpt>
      <trkpt lat="41.0698160" lon="-4.7278920">
        <ele>822.0</ele>
        <time>2019-08-14T10:55:17Z</time>
      </trkpt>
      <trkpt lat="41.0698550" lon="-4.7279230">
        <ele>822.0</ele>
        <time>2019-08-14T10:55:18Z</time>
      </trkpt>
      <trkpt lat="41.0698940" lon="-4.7279550">
        <ele>822.0</ele>
        <time>2019-08-14T10:55:19Z</time>
      </trkpt>
      <trkpt lat="41.0699330" lon="-4.7279870">
        <ele>822.1</ele>
        <time>2019-08-14T10:55:20Z</time>
      </trkpt>
      <trkpt lat="41.0699700" lon="-4.7280190">
        <ele>822.1</ele>
        <time>2019-08-14T10:55:21Z</time>
      </trkpt>
      <trkpt lat="41.0700070" lon="-4.7280500">
        <ele>822.1</ele>
        <time>2019-08-14T10:55:22Z</time>
      </trkpt>
      <trkpt lat="41.0700440" lon="-4.7280800">
        <ele>822.1</ele>
        <time>2019-08-14T10:55:23Z</time>
      </trkpt>
      <trkpt lat="41.0700820" lon="-4.7281110">
        <ele>822.2</ele>
        <time>2019-08-14T10:55:24Z</time>
      </trkpt>
      <trkpt lat="41.0701190" lon="-4.7281430">
        <ele>822.2</ele>
        <time>2019-08-14T10:55:25Z</time>
      </trkpt>
      <trkpt lat="41.0701560" lon="-4.7281730">
        <ele>822.3</ele>
        <time>2019-08-14T10:55:26Z</time>
      </trkpt>
      <trkpt lat="41.0701930" lon="-4.7282040">
        <ele>822.4</ele>
        <time>2019-08-14T10:55:27Z</time>
      </trkpt>
      <trkpt lat="41.0702310" lon="-4.7282330">
        <ele>822.4</ele>
        <time>2019-08-14T10:55:28Z</time>
      </trkpt>
      <trkpt lat="41.0702680" lon="-4.7282620">
        <ele>822.5</ele>
        <time>2019-08-14T10:55:29Z</time>
      </trkpt>
      <trkpt lat="41.0703050" lon="-4.7282910">
        <ele>822.6</ele>
        <time>2019-08-14T10:55:30Z</time>
      </trkpt>
      <trkpt lat="41.0703430" lon="-4.7283220">
        <ele>822.8</ele>
        <time>2019-08-14T10:55:31Z</time>
      </trkpt>
      <trkpt lat="41.0703800" lon="-4.7283550">
        <ele>822.8</ele>
        <time>2019-08-14T10:55:32Z</time>
      </trkpt>
      <trkpt lat="41.0704150" lon="-4.7283860">
        <ele>822.9</ele>
        <time>2019-08-14T10:55:33Z</time>
      </trkpt>
      <trkpt lat="41.0704510" lon="-4.7284130">
        <ele>823.0</ele>
        <time>2019-08-14T10:55:34Z</time>
      </trkpt>
      <trkpt lat="41.0704870" lon="-4.7284380">
        <ele>823.1</ele>
        <time>2019-08-14T10:55:35Z</time>
      </trkpt>
      <trkpt lat="41.0705220" lon="-4.7284630">
        <ele>823.1</ele>
        <time>2019-08-14T10:55:36Z</time>
      </trkpt>
      <trkpt lat="41.0705580" lon="-4.7284900">
        <ele>823.2</ele>
        <time>2019-08-14T10:55:37Z</time>
      </trkpt>
      <trkpt lat="41.0705940" lon="-4.7285180">
        <ele>823.2</ele>
        <time>2019-08-14T10:55:38Z</time>
      </trkpt>
      <trkpt lat="41.0706300" lon="-4.7285420">
        <ele>823.3</ele>
        <time>2019-08-14T10:55:39Z</time>
      </trkpt>
      <trkpt lat="41.0706670" lon="-4.7285660">
        <ele>823.3</ele>
        <time>2019-08-14T10:55:40Z</time>
      </trkpt>
      <trkpt lat="41.0707040" lon="-4.7285940">
        <ele>823.4</ele>
        <time>2019-08-14T10:55:41Z</time>
      </trkpt>
      <trkpt lat="41.0707410" lon="-4.7286240">
        <ele>823.5</ele>
        <time>2019-08-14T10:55:42Z</time>
      </trkpt>
      <trkpt lat="41.0707780" lon="-4.7286560">
        <ele>823.5</ele>
        <time>2019-08-14T10:55:43Z</time>
      </trkpt>
      <trkpt lat="41.0708140" lon="-4.7286850">
        <ele>823.6</ele>
        <time>2019-08-14T10:55:44Z</time>
      </trkpt>
      <trkpt lat="41.0708530" lon="-4.7287130">
        <ele>823.7</ele>
        <time>2019-08-14T10:55:45Z</time>
      </trkpt>
      <trkpt lat="41.0708910" lon="-4.7287380">
        <ele>823.8</ele>
        <time>2019-08-14T10:55:46Z</time>
      </trkpt>
      <trkpt lat="41.0709280" lon="-4.7287640">
        <ele>823.9</ele>
        <time>2019-08-14T10:55:47Z</time>
      </trkpt>
      <trkpt lat="41.0709640" lon="-4.7287880">
        <ele>823.9</ele>
        <time>2019-08-14T10:55:48Z</time>
      </trkpt>
      <trkpt lat="41.0710000" lon="-4.7288150">
        <ele>824.0</ele>
        <time>2019-08-14T10:55:49Z</time>
      </trkpt>
      <trkpt lat="41.0710350" lon="-4.7288390">
        <ele>824.1</ele>
        <time>2019-08-14T10:55:50Z</time>
      </trkpt>
      <trkpt lat="41.0710710" lon="-4.7288660">
        <ele>824.1</ele>
        <time>2019-08-14T10:55:51Z</time>
      </trkpt>
      <trkpt lat="41.0711060" lon="-4.7288950">
        <ele>824.2</ele>
        <time>2019-08-14T10:55:52Z</time>
      </trkpt>
      <trkpt lat="41.0711410" lon="-4.7289250">
        <ele>824.2</ele>
        <time>2019-08-14T10:55:53Z</time>
      </trkpt>
      <trkpt lat="41.0711740" lon="-4.7289530">
        <ele>824.2</ele>
        <time>2019-08-14T10:55:54Z</time>
      </trkpt>
      <trkpt lat="41.0712070" lon="-4.7289820">
        <ele>824.2</ele>
        <time>2019-08-14T10:55:55Z</time>
      </trkpt>
      <trkpt lat="41.0712410" lon="-4.7290090">
        <ele>824.2</ele>
        <time>2019-08-14T10:55:56Z</time>
      </trkpt>
      <trkpt lat="41.0712770" lon="-4.7290340">
        <ele>824.2</ele>
        <time>2019-08-14T10:55:57Z</time>
      </trkpt>
      <trkpt lat="41.0713150" lon="-4.7290610">
        <ele>824.2</ele>
        <time>2019-08-14T10:55:58Z</time>
      </trkpt>
      <trkpt lat="41.0713560" lon="-4.7290890">
        <ele>824.2</ele>
        <time>2019-08-14T10:55:59Z</time>
      </trkpt>
      <trkpt lat="41.0713980" lon="-4.7291160">
        <ele>824.2</ele>
        <time>2019-08-14T10:56:00Z</time>
      </trkpt>
      <trkpt lat="41.0714370" lon="-4.7291420">
        <ele>824.2</ele>
        <time>2019-08-14T10:56:01Z</time>
      </trkpt>
      <trkpt lat="41.0714770" lon="-4.7291630">
        <ele>824.1</ele>
        <time>2019-08-14T10:56:02Z</time>
      </trkpt>
      <trkpt lat="41.0715150" lon="-4.7291800">
        <ele>824.1</ele>
        <time>2019-08-14T10:56:03Z</time>
      </trkpt>
      <trkpt lat="41.0715550" lon="-4.7291920">
        <ele>824.1</ele>
        <time>2019-08-14T10:56:04Z</time>
      </trkpt>
      <trkpt lat="41.0715950" lon="-4.7292000">
        <ele>824.0</ele>
        <time>2019-08-14T10:56:05Z</time>
      </trkpt>
      <trkpt lat="41.0716370" lon="-4.7292060">
        <ele>824.0</ele>
        <time>2019-08-14T10:56:06Z</time>
      </trkpt>
      <trkpt lat="41.0716820" lon="-4.7292110">
        <ele>823.9</ele>
        <time>2019-08-14T10:56:07Z</time>
      </trkpt>
      <trkpt lat="41.0717270" lon="-4.7292170">
        <ele>823.9</ele>
        <time>2019-08-14T10:56:08Z</time>
      </trkpt>
      <trkpt lat="41.0717720" lon="-4.7292220">
        <ele>823.8</ele>
        <time>2019-08-14T10:56:09Z</time>
      </trkpt>
      <trkpt lat="41.0718180" lon="-4.7292250">
        <ele>823.7</ele>
        <time>2019-08-14T10:56:10Z</time>
      </trkpt>
      <trkpt lat="41.0718620" lon="-4.7292280">
        <ele>823.7</ele>
        <time>2019-08-14T10:56:11Z</time>
      </trkpt>
      <trkpt lat="41.0719030" lon="-4.7292420">
        <ele>823.7</ele>
        <time>2019-08-14T10:56:12Z</time>
      </trkpt>
      <trkpt lat="41.0719360" lon="-4.7292620">
        <ele>823.8</ele>
        <time>2019-08-14T10:56:13Z</time>
      </trkpt>
      <trkpt lat="41.0719610" lon="-4.7293080">
        <ele>823.8</ele>
        <time>2019-08-14T10:56:14Z</time>
      </trkpt>
      <trkpt lat="41.0719720" lon="-4.7293610">
        <ele>823.8</ele>
        <time>2019-08-14T10:56:15Z</time>
      </trkpt>
      <trkpt lat="41.0719750" lon="-4.7294140">
        <ele>823.8</ele>
        <time>2019-08-14T10:56:16Z</time>
      </trkpt>
      <trkpt lat="41.0719730" lon="-4.7294630">
        <ele>823.8</ele>
        <time>2019-08-14T10:56:17Z</time>
      </trkpt>
      <trkpt lat="41.0719710" lon="-4.7295080">
        <ele>823.8</ele>
        <time>2019-08-14T10:56:18Z</time>
      </trkpt>
      <trkpt lat="41.0719710" lon="-4.7295520">
        <ele>823.8</ele>
        <time>2019-08-14T10:56:19Z</time>
      </trkpt>
      <trkpt lat="41.0719680" lon="-4.7295920">
        <ele>823.8</ele>
        <time>2019-08-14T10:56:20Z</time>
      </trkpt>
      <trkpt lat="41.0719550" lon="-4.7296420">
        <ele>823.6</ele>
        <time>2019-08-14T10:56:22Z</time>
      </trkpt>
      <trkpt lat="41.0719590" lon="-4.7296910">
        <ele>823.6</ele>
        <time>2019-08-14T10:56:28Z</time>
      </trkpt>
      <trkpt lat="41.0719630" lon="-4.7297510">
        <ele>823.7</ele>
        <time>2019-08-14T10:56:30Z</time>
      </trkpt>
      <trkpt lat="41.0719530" lon="-4.7297860">
        <ele>823.7</ele>
        <time>2019-08-14T10:56:31Z</time>
      </trkpt>
      <trkpt lat="41.0719400" lon="-4.7298190">
        <ele>823.8</ele>
        <time>2019-08-14T10:56:32Z</time>
      </trkpt>
      <trkpt lat="41.0719280" lon="-4.7298810">
        <ele>823.8</ele>
        <time>2019-08-14T10:56:34Z</time>
      </trkpt>
      <trkpt lat="41.0719270" lon="-4.7299400">
        <ele>823.8</ele>
        <time>2019-08-14T10:56:36Z</time>
      </trkpt>
      <trkpt lat="41.0719140" lon="-4.7299900">
        <ele>823.8</ele>
        <time>2019-08-14T10:56:38Z</time>
      </trkpt>
      <trkpt lat="41.0718810" lon="-4.7299890">
        <ele>823.8</ele>
        <time>2019-08-14T10:56:41Z</time>
      </trkpt>
      <trkpt lat="41.0718860" lon="-4.7299490">
        <ele>823.8</ele>
        <time>2019-08-14T10:56:43Z</time>
      </trkpt>
      <trkpt lat="41.0719220" lon="-4.7299540">
        <ele>823.8</ele>
        <time>2019-08-14T10:56:45Z</time>
      </trkpt>
      <trkpt lat="41.0719450" lon="-4.7300140">
        <ele>823.7</ele>
        <time>2019-08-14T10:56:47Z</time>
      </trkpt>
      <trkpt lat="41.0719450" lon="-4.7300530">
        <ele>823.7</ele>
        <time>2019-08-14T10:56:48Z</time>
      </trkpt>
      <trkpt lat="41.0719410" lon="-4.7300950">
        <ele>823.8</ele>
        <time>2019-08-14T10:56:49Z</time>
      </trkpt>
      <trkpt lat="41.0719350" lon="-4.7301370">
        <ele>823.8</ele>
        <time>2019-08-14T10:56:50Z</time>
      </trkpt>
      <trkpt lat="41.0719260" lon="-4.7301780">
        <ele>823.9</ele>
        <time>2019-08-14T10:56:51Z</time>
      </trkpt>
      <trkpt lat="41.0719130" lon="-4.7302170">
        <ele>823.9</ele>
        <time>2019-08-14T10:56:52Z</time>
      </trkpt>
      <trkpt lat="41.0718960" lon="-4.7302570">
        <ele>824.0</ele>
        <time>2019-08-14T10:56:53Z</time>
      </trkpt>
      <trkpt lat="41.0718740" lon="-4.7302990">
        <ele>824.2</ele>
        <time>2019-08-14T10:56:54Z</time>
      </trkpt>
      <trkpt lat="41.0718520" lon="-4.7303450">
        <ele>824.2</ele>
        <time>2019-08-14T10:56:55Z</time>
      </trkpt>
      <trkpt lat="41.0718310" lon="-4.7303900">
        <ele>824.2</ele>
        <time>2019-08-14T10:56:56Z</time>
      </trkpt>
      <trkpt lat="41.0718130" lon="-4.7304330">
        <ele>824.2</ele>
        <time>2019-08-14T10:56:57Z</time>
      </trkpt>
      <trkpt lat="41.0717960" lon="-4.7304740">
        <ele>824.1</ele>
        <time>2019-08-14T10:56:58Z</time>
      </trkpt>
      <trkpt lat="41.0717790" lon="-4.7305110">
        <ele>824.1</ele>
        <time>2019-08-14T10:56:59Z</time>
      </trkpt>
      <trkpt lat="41.0717630" lon="-4.7305400">
        <ele>824.1</ele>
        <time>2019-08-14T10:57:00Z</time>
      </trkpt>
      <trkpt lat="41.0717320" lon="-4.7305740">
        <ele>824.1</ele>
        <time>2019-08-14T10:57:02Z</time>
      </trkpt>
      <trkpt lat="41.0717140" lon="-4.7305410">
        <ele>824.0</ele>
        <time>2019-08-14T10:57:04Z</time>
      </trkpt>
      <trkpt lat="41.0717380" lon="-4.7304770">
        <ele>824.1</ele>
        <time>2019-08-14T10:57:06Z</time>
      </trkpt>
      <trkpt lat="41.0717610" lon="-4.7304480">
        <ele>824.1</ele>
        <time>2019-08-14T10:57:07Z</time>
      </trkpt>
      <trkpt lat="41.0717880" lon="-4.7304220">
        <ele>824.2</ele>
        <time>2019-08-14T10:57:08Z</time>
      </trkpt>
      <trkpt lat="41.0718140" lon="-4.7303970">
        <ele>824.2</ele>
        <time>2019-08-14T10:57:09Z</time>
      </trkpt>
      <trkpt lat="41.0718420" lon="-4.7303770">
        <ele>824.1</ele>
        <time>2019-08-14T10:57:10Z</time>
      </trkpt>
      <trkpt lat="41.0718750" lon="-4.7303650">
        <ele>824.1</ele>
        <time>2019-08-14T10:57:11Z</time>
      </trkpt>
      <trkpt lat="41.0719100" lon="-4.7303660">
        <ele>824.1</ele>
        <time>2019-08-14T10:57:12Z</time>
      </trkpt>
      <trkpt lat="41.0719460" lon="-4.7303760">
        <ele>824.1</ele>
        <time>2019-08-14T10:57:13Z</time>
      </trkpt>
      <trkpt lat="41.0719810" lon="-4.7303920">
        <ele>824.0</ele>
        <time>2019-08-14T10:57:14Z</time>
      </trkpt>
      <trkpt lat="41.0720160" lon="-4.7304110">
        <ele>824.0</ele>
        <time>2019-08-14T10:57:15Z</time>
      </trkpt>
      <trkpt lat="41.0720490" lon="-4.7304290">
        <ele>824.0</ele>
        <time>2019-08-14T10:57:16Z</time>
      </trkpt>
      <trkpt lat="41.0720750" lon="-4.7304450">
        <ele>823.9</ele>
        <time>2019-08-14T10:57:17Z</time>
      </trkpt>
      <trkpt lat="41.0720950" lon="-4.7304780">
        <ele>823.9</ele>
        <time>2019-08-14T10:57:19Z</time>
      </trkpt>
      <trkpt lat="41.0720680" lon="-4.7304990">
        <ele>823.9</ele>
        <time>2019-08-14T10:57:21Z</time>
      </trkpt>
      <trkpt lat="41.0720260" lon="-4.7304600">
        <ele>823.8</ele>
        <time>2019-08-14T10:57:23Z</time>
      </trkpt>
      <trkpt lat="41.0720060" lon="-4.7304300">
        <ele>823.8</ele>
        <time>2019-08-14T10:57:24Z</time>
      </trkpt>
      <trkpt lat="41.0719810" lon="-4.7304060">
        <ele>823.9</ele>
        <time>2019-08-14T10:57:25Z</time>
      </trkpt>
      <trkpt lat="41.0719490" lon="-4.7303910">
        <ele>823.9</ele>
        <time>2019-08-14T10:57:26Z</time>
      </trkpt>
      <trkpt lat="41.0719130" lon="-4.7303860">
        <ele>824.0</ele>
        <time>2019-08-14T10:57:27Z</time>
      </trkpt>
      <trkpt lat="41.0718750" lon="-4.7303920">
        <ele>824.1</ele>
        <time>2019-08-14T10:57:28Z</time>
      </trkpt>
      <trkpt lat="41.0718380" lon="-4.7304100">
        <ele>824.2</ele>
        <time>2019-08-14T10:57:29Z</time>
      </trkpt>
      <trkpt lat="41.0718060" lon="-4.7304410">
        <ele>824.1</ele>
        <time>2019-08-14T10:57:30Z</time>
      </trkpt>
      <trkpt lat="41.0717780" lon="-4.7304840">
        <ele>824.1</ele>
        <time>2019-08-14T10:57:31Z</time>
      </trkpt>
      <trkpt lat="41.0717550" lon="-4.7305310">
        <ele>824.1</ele>
        <time>2019-08-14T10:57:32Z</time>
      </trkpt>
      <trkpt lat="41.0717350" lon="-4.7305810">
        <ele>824.0</ele>
        <time>2019-08-14T10:57:33Z</time>
      </trkpt>
      <trkpt lat="41.0717150" lon="-4.7306340">
        <ele>823.9</ele>
        <time>2019-08-14T10:57:34Z</time>
      </trkpt>
      <trkpt lat="41.0716970" lon="-4.7306880">
        <ele>823.8</ele>
        <time>2019-08-14T10:57:35Z</time>
      </trkpt>
      <trkpt lat="41.0716850" lon="-4.7307450">
        <ele>823.6</ele>
        <time>2019-08-14T10:57:36Z</time>
      </trkpt>
      <trkpt lat="41.0716810" lon="-4.7308030">
        <ele>823.1</ele>
        <time>2019-08-14T10:57:37Z</time>
      </trkpt>
      <trkpt lat="41.0716930" lon="-4.7308580">
        <ele>822.9</ele>
        <time>2019-08-14T10:57:38Z</time>
      </trkpt>
      <trkpt lat="41.0717190" lon="-4.7309060">
        <ele>822.8</ele>
        <time>2019-08-14T10:57:39Z</time>
      </trkpt>
      <trkpt lat="41.0717530" lon="-4.7309450">
        <ele>822.6</ele>
        <time>2019-08-14T10:57:40Z</time>
      </trkpt>
      <trkpt lat="41.0717900" lon="-4.7309860">
        <ele>822.4</ele>
        <time>2019-08-14T10:57:41Z</time>
      </trkpt>
      <trkpt lat="41.0718320" lon="-4.7310270">
        <ele>822.2</ele>
        <time>2019-08-14T10:57:42Z</time>
      </trkpt>
      <trkpt lat="41.0718730" lon="-4.7310710">
        <ele>822.0</ele>
        <time>2019-08-14T10:57:43Z</time>
      </trkpt>
      <trkpt lat="41.0719110" lon="-4.7311140">
        <ele>821.8</ele>
        <time>2019-08-14T10:57:44Z</time>
      </trkpt>
      <trkpt lat="41.0719480" lon="-4.7311560">
        <ele>821.7</ele>
        <time>2019-08-14T10:57:45Z</time>
      </trkpt>
      <trkpt lat="41.0719840" lon="-4.7311950">
        <ele>821.6</ele>
        <time>2019-08-14T10:57:46Z</time>
      </trkpt>
      <trkpt lat="41.0720270" lon="-4.7312350">
        <ele>821.5</ele>
        <time>2019-08-14T10:57:47Z</time>
      </trkpt>
      <trkpt lat="41.0720650" lon="-4.7312700">
        <ele>821.4</ele>
        <time>2019-08-14T10:57:48Z</time>
      </trkpt>
      <trkpt lat="41.0721010" lon="-4.7313030">
        <ele>821.3</ele>
        <time>2019-08-14T10:57:49Z</time>
      </trkpt>
      <trkpt lat="41.0721370" lon="-4.7313380">
        <ele>821.2</ele>
        <time>2019-08-14T10:57:50Z</time>
      </trkpt>
      <trkpt lat="41.0721720" lon="-4.7313720">
        <ele>821.1</ele>
        <time>2019-08-14T10:57:51Z</time>
      </trkpt>
      <trkpt lat="41.0722080" lon="-4.7314050">
        <ele>821.1</ele>
        <time>2019-08-14T10:57:52Z</time>
      </trkpt>
      <trkpt lat="41.0722440" lon="-4.7314450">
        <ele>821.0</ele>
        <time>2019-08-14T10:57:53Z</time>
      </trkpt>
      <trkpt lat="41.0722800" lon="-4.7314890">
        <ele>820.9</ele>
        <time>2019-08-14T10:57:54Z</time>
      </trkpt>
      <trkpt lat="41.0723160" lon="-4.7315310">
        <ele>820.9</ele>
        <time>2019-08-14T10:57:55Z</time>
      </trkpt>
      <trkpt lat="41.0723510" lon="-4.7315830">
        <ele>820.8</ele>
        <time>2019-08-14T10:57:56Z</time>
      </trkpt>
      <trkpt lat="41.0723850" lon="-4.7316310">
        <ele>820.8</ele>
        <time>2019-08-14T10:57:57Z</time>
      </trkpt>
      <trkpt lat="41.0724200" lon="-4.7316710">
        <ele>820.7</ele>
        <time>2019-08-14T10:57:58Z</time>
      </trkpt>
      <trkpt lat="41.0724560" lon="-4.7317120">
        <ele>820.7</ele>
        <time>2019-08-14T10:57:59Z</time>
      </trkpt>
      <trkpt lat="41.0724940" lon="-4.7317490">
        <ele>820.7</ele>
        <time>2019-08-14T10:58:00Z</time>
      </trkpt>
      <trkpt lat="41.0725340" lon="-4.7317850">
        <ele>820.7</ele>
        <time>2019-08-14T10:58:01Z</time>
      </trkpt>
      <trkpt lat="41.0725710" lon="-4.7318260">
        <ele>820.7</ele>
        <time>2019-08-14T10:58:02Z</time>
      </trkpt>
      <trkpt lat="41.0726070" lon="-4.7318710">
        <ele>820.7</ele>
        <time>2019-08-14T10:58:03Z</time>
      </trkpt>
      <trkpt lat="41.0726470" lon="-4.7319110">
        <ele>820.7</ele>
        <time>2019-08-14T10:58:04Z</time>
      </trkpt>
      <trkpt lat="41.0726880" lon="-4.7319540">
        <ele>820.6</ele>
        <time>2019-08-14T10:58:05Z</time>
      </trkpt>
      <trkpt lat="41.0727300" lon="-4.7320010">
        <ele>820.6</ele>
        <time>2019-08-14T10:58:06Z</time>
      </trkpt>
      <trkpt lat="41.0727730" lon="-4.7320490">
        <ele>820.5</ele>
        <time>2019-08-14T10:58:07Z</time>
      </trkpt>
      <trkpt lat="41.0728140" lon="-4.7320970">
        <ele>820.4</ele>
        <time>2019-08-14T10:58:08Z</time>
      </trkpt>
      <trkpt lat="41.0728550" lon="-4.7321460">
        <ele>820.3</ele>
        <time>2019-08-14T10:58:09Z</time>
      </trkpt>
      <trkpt lat="41.0728960" lon="-4.7321940">
        <ele>820.1</ele>
        <time>2019-08-14T10:58:10Z</time>
      </trkpt>
      <trkpt lat="41.0729360" lon="-4.7322410">
        <ele>820.0</ele>
        <time>2019-08-14T10:58:11Z</time>
      </trkpt>
      <trkpt lat="41.0729770" lon="-4.7322900">
        <ele>819.9</ele>
        <time>2019-08-14T10:58:12Z</time>
      </trkpt>
      <trkpt lat="41.0730180" lon="-4.7323380">
        <ele>819.8</ele>
        <time>2019-08-14T10:58:13Z</time>
      </trkpt>
      <trkpt lat="41.0730560" lon="-4.7323880">
        <ele>819.7</ele>
        <time>2019-08-14T10:58:14Z</time>
      </trkpt>
      <trkpt lat="41.0730940" lon="-4.7324380">
        <ele>819.6</ele>
        <time>2019-08-14T10:58:15Z</time>
      </trkpt>
      <trkpt lat="41.0731310" lon="-4.7324850">
        <ele>819.4</ele>
        <time>2019-08-14T10:58:16Z</time>
      </trkpt>
      <trkpt lat="41.0731700" lon="-4.7325310">
        <ele>819.3</ele>
        <time>2019-08-14T10:58:17Z</time>
      </trkpt>
      <trkpt lat="41.0732080" lon="-4.7325780">
        <ele>819.1</ele>
        <time>2019-08-14T10:58:18Z</time>
      </trkpt>
      <trkpt lat="41.0732470" lon="-4.7326230">
        <ele>819.0</ele>
        <time>2019-08-14T10:58:19Z</time>
      </trkpt>
      <trkpt lat="41.0732860" lon="-4.7326660">
        <ele>819.0</ele>
        <time>2019-08-14T10:58:20Z</time>
      </trkpt>
      <trkpt lat="41.0733260" lon="-4.7327140">
        <ele>818.9</ele>
        <time>2019-08-14T10:58:21Z</time>
      </trkpt>
      <trkpt lat="41.0733660" lon="-4.7327630">
        <ele>818.9</ele>
        <time>2019-08-14T10:58:22Z</time>
      </trkpt>
      <trkpt lat="41.0734080" lon="-4.7328120">
        <ele>818.8</ele>
        <time>2019-08-14T10:58:23Z</time>
      </trkpt>
      <trkpt lat="41.0734480" lon="-4.7328630">
        <ele>818.8</ele>
        <time>2019-08-14T10:58:24Z</time>
      </trkpt>
      <trkpt lat="41.0734870" lon="-4.7329130">
        <ele>818.9</ele>
        <time>2019-08-14T10:58:25Z</time>
      </trkpt>
      <trkpt lat="41.0735240" lon="-4.7329620">
        <ele>819.0</ele>
        <time>2019-08-14T10:58:26Z</time>
      </trkpt>
      <trkpt lat="41.0735620" lon="-4.7330090">
        <ele>819.0</ele>
        <time>2019-08-14T10:58:27Z</time>
      </trkpt>
      <trkpt lat="41.0735980" lon="-4.7330540">
        <ele>819.1</ele>
        <time>2019-08-14T10:58:28Z</time>
      </trkpt>
      <trkpt lat="41.0736340" lon="-4.7330980">
        <ele>819.1</ele>
        <time>2019-08-14T10:58:29Z</time>
      </trkpt>
      <trkpt lat="41.0736700" lon="-4.7331400">
        <ele>819.1</ele>
        <time>2019-08-14T10:58:30Z</time>
      </trkpt>
      <trkpt lat="41.0737050" lon="-4.7331820">
        <ele>819.2</ele>
        <time>2019-08-14T10:58:31Z</time>
      </trkpt>
      <trkpt lat="41.0737400" lon="-4.7332190">
        <ele>819.2</ele>
        <time>2019-08-14T10:58:32Z</time>
      </trkpt>
      <trkpt lat="41.0737750" lon="-4.7332580">
        <ele>819.1</ele>
        <time>2019-08-14T10:58:33Z</time>
      </trkpt>
      <trkpt lat="41.0738080" lon="-4.7332950">
        <ele>819.1</ele>
        <time>2019-08-14T10:58:34Z</time>
      </trkpt>
      <trkpt lat="41.0738390" lon="-4.7333330">
        <ele>819.1</ele>
        <time>2019-08-14T10:58:35Z</time>
      </trkpt>
      <trkpt lat="41.0738690" lon="-4.7333690">
        <ele>819.0</ele>
        <time>2019-08-14T10:58:36Z</time>
      </trkpt>
      <trkpt lat="41.0738980" lon="-4.7334020">
        <ele>819.0</ele>
        <time>2019-08-14T10:58:37Z</time>
      </trkpt>
      <trkpt lat="41.0739290" lon="-4.7334350">
        <ele>818.8</ele>
        <time>2019-08-14T10:58:38Z</time>
      </trkpt>
      <trkpt lat="41.0739610" lon="-4.7334700">
        <ele>818.6</ele>
        <time>2019-08-14T10:58:39Z</time>
      </trkpt>
      <trkpt lat="41.0739950" lon="-4.7335080">
        <ele>818.3</ele>
        <time>2019-08-14T10:58:40Z</time>
      </trkpt>
      <trkpt lat="41.0740310" lon="-4.7335470">
        <ele>818.1</ele>
        <time>2019-08-14T10:58:41Z</time>
      </trkpt>
      <trkpt lat="41.0740690" lon="-4.7335880">
        <ele>817.9</ele>
        <time>2019-08-14T10:58:42Z</time>
      </trkpt>
      <trkpt lat="41.0741060" lon="-4.7336290">
        <ele>817.7</ele>
        <time>2019-08-14T10:58:43Z</time>
      </trkpt>
      <trkpt lat="41.0741420" lon="-4.7336700">
        <ele>817.6</ele>
        <time>2019-08-14T10:58:44Z</time>
      </trkpt>
      <trkpt lat="41.0741780" lon="-4.7337120">
        <ele>817.4</ele>
        <time>2019-08-14T10:58:45Z</time>
      </trkpt>
      <trkpt lat="41.0742150" lon="-4.7337560">
        <ele>817.4</ele>
        <time>2019-08-14T10:58:46Z</time>
      </trkpt>
      <trkpt lat="41.0742520" lon="-4.7338030">
        <ele>817.4</ele>
        <time>2019-08-14T10:58:47Z</time>
      </trkpt>
      <trkpt lat="41.0742910" lon="-4.7338510">
        <ele>817.4</ele>
        <time>2019-08-14T10:58:48Z</time>
      </trkpt>
      <trkpt lat="41.0743290" lon="-4.7338980">
        <ele>817.4</ele>
        <time>2019-08-14T10:58:49Z</time>
      </trkpt>
      <trkpt lat="41.0743670" lon="-4.7339440">
        <ele>817.5</ele>
        <time>2019-08-14T10:58:50Z</time>
      </trkpt>
      <trkpt lat="41.0744030" lon="-4.7339880">
        <ele>817.5</ele>
        <time>2019-08-14T10:58:51Z</time>
      </trkpt>
      <trkpt lat="41.0744380" lon="-4.7340310">
        <ele>817.6</ele>
        <time>2019-08-14T10:58:52Z</time>
      </trkpt>
      <trkpt lat="41.0744750" lon="-4.7340730">
        <ele>817.6</ele>
        <time>2019-08-14T10:58:53Z</time>
      </trkpt>
      <trkpt lat="41.0745130" lon="-4.7341170">
        <ele>817.6</ele>
        <time>2019-08-14T10:58:54Z</time>
      </trkpt>
      <trkpt lat="41.0745500" lon="-4.7341610">
        <ele>817.6</ele>
        <time>2019-08-14T10:58:55Z</time>
      </trkpt>
      <trkpt lat="41.0745880" lon="-4.7342010">
        <ele>817.5</ele>
        <time>2019-08-14T10:58:56Z</time>
      </trkpt>
      <trkpt lat="41.0746240" lon="-4.7342400">
        <ele>817.4</ele>
        <time>2019-08-14T10:58:57Z</time>
      </trkpt>
      <trkpt lat="41.0746600" lon="-4.7342790">
        <ele>817.4</ele>
        <time>2019-08-14T10:58:58Z</time>
      </trkpt>
      <trkpt lat="41.0746950" lon="-4.7343180">
        <ele>817.3</ele>
        <time>2019-08-14T10:58:59Z</time>
      </trkpt>
      <trkpt lat="41.0747310" lon="-4.7343580">
        <ele>817.2</ele>
        <time>2019-08-14T10:59:00Z</time>
      </trkpt>
      <trkpt lat="41.0747680" lon="-4.7343980">
        <ele>817.0</ele>
        <time>2019-08-14T10:59:01Z</time>
      </trkpt>
      <trkpt lat="41.0748040" lon="-4.7344400">
        <ele>816.9</ele>
        <time>2019-08-14T10:59:02Z</time>
      </trkpt>
      <trkpt lat="41.0748410" lon="-4.7344790">
        <ele>816.8</ele>
        <time>2019-08-14T10:59:03Z</time>
      </trkpt>
      <trkpt lat="41.0748800" lon="-4.7345170">
        <ele>816.7</ele>
        <time>2019-08-14T10:59:04Z</time>
      </trkpt>
      <trkpt lat="41.0749190" lon="-4.7345580">
        <ele>816.6</ele>
        <time>2019-08-14T10:59:05Z</time>
      </trkpt>
      <trkpt lat="41.0749570" lon="-4.7345990">
        <ele>816.5</ele>
        <time>2019-08-14T10:59:06Z</time>
      </trkpt>
      <trkpt lat="41.0749970" lon="-4.7346390">
        <ele>816.4</ele>
        <time>2019-08-14T10:59:07Z</time>
      </trkpt>
      <trkpt lat="41.0750350" lon="-4.7346810">
        <ele>816.3</ele>
        <time>2019-08-14T10:59:08Z</time>
      </trkpt>
      <trkpt lat="41.0750740" lon="-4.7347240">
        <ele>816.3</ele>
        <time>2019-08-14T10:59:09Z</time>
      </trkpt>
      <trkpt lat="41.0751150" lon="-4.7347690">
        <ele>816.2</ele>
        <time>2019-08-14T10:59:10Z</time>
      </trkpt>
      <trkpt lat="41.0751540" lon="-4.7348110">
        <ele>816.2</ele>
        <time>2019-08-14T10:59:11Z</time>
      </trkpt>
      <trkpt lat="41.0751910" lon="-4.7348570">
        <ele>816.2</ele>
        <time>2019-08-14T10:59:12Z</time>
      </trkpt>
      <trkpt lat="41.0752290" lon="-4.7348970">
        <ele>816.2</ele>
        <time>2019-08-14T10:59:13Z</time>
      </trkpt>
      <trkpt lat="41.0752650" lon="-4.7349390">
        <ele>816.2</ele>
        <time>2019-08-14T10:59:14Z</time>
      </trkpt>
      <trkpt lat="41.0753030" lon="-4.7349780">
        <ele>816.2</ele>
        <time>2019-08-14T10:59:15Z</time>
      </trkpt>
      <trkpt lat="41.0753430" lon="-4.7350180">
        <ele>816.3</ele>
        <time>2019-08-14T10:59:16Z</time>
      </trkpt>
      <trkpt lat="41.0753830" lon="-4.7350610">
        <ele>816.3</ele>
        <time>2019-08-14T10:59:17Z</time>
      </trkpt>
      <trkpt lat="41.0754230" lon="-4.7351070">
        <ele>816.3</ele>
        <time>2019-08-14T10:59:18Z</time>
      </trkpt>
      <trkpt lat="41.0754630" lon="-4.7351550">
        <ele>816.4</ele>
        <time>2019-08-14T10:59:19Z</time>
      </trkpt>
      <trkpt lat="41.0755000" lon="-4.7352050">
        <ele>816.5</ele>
        <time>2019-08-14T10:59:20Z</time>
      </trkpt>
      <trkpt lat="41.0755370" lon="-4.7352500">
        <ele>816.6</ele>
        <time>2019-08-14T10:59:21Z</time>
      </trkpt>
      <trkpt lat="41.0755740" lon="-4.7352880">
        <ele>816.6</ele>
        <time>2019-08-14T10:59:22Z</time>
      </trkpt>
      <trkpt lat="41.0756130" lon="-4.7353320">
        <ele>816.7</ele>
        <time>2019-08-14T10:59:23Z</time>
      </trkpt>
      <trkpt lat="41.0756540" lon="-4.7353750">
        <ele>816.7</ele>
        <time>2019-08-14T10:59:24Z</time>
      </trkpt>
      <trkpt lat="41.0756940" lon="-4.7354210">
        <ele>816.8</ele>
        <time>2019-08-14T10:59:25Z</time>
      </trkpt>
      <trkpt lat="41.0757360" lon="-4.7354670">
        <ele>816.8</ele>
        <time>2019-08-14T10:59:26Z</time>
      </trkpt>
      <trkpt lat="41.0757760" lon="-4.7355150">
        <ele>816.7</ele>
        <time>2019-08-14T10:59:27Z</time>
      </trkpt>
      <trkpt lat="41.0758160" lon="-4.7355640">
        <ele>816.7</ele>
        <time>2019-08-14T10:59:28Z</time>
      </trkpt>
      <trkpt lat="41.0758570" lon="-4.7356100">
        <ele>816.6</ele>
        <time>2019-08-14T10:59:29Z</time>
      </trkpt>
      <trkpt lat="41.0758980" lon="-4.7356560">
        <ele>816.6</ele>
        <time>2019-08-14T10:59:30Z</time>
      </trkpt>
      <trkpt lat="41.0759370" lon="-4.7357020">
        <ele>816.5</ele>
        <time>2019-08-14T10:59:31Z</time>
      </trkpt>
      <trkpt lat="41.0759770" lon="-4.7357480">
        <ele>816.5</ele>
        <time>2019-08-14T10:59:32Z</time>
      </trkpt>
      <trkpt lat="41.0760180" lon="-4.7357950">
        <ele>816.5</ele>
        <time>2019-08-14T10:59:33Z</time>
      </trkpt>
      <trkpt lat="41.0760580" lon="-4.7358400">
        <ele>816.4</ele>
        <time>2019-08-14T10:59:34Z</time>
      </trkpt>
      <trkpt lat="41.0760980" lon="-4.7358840">
        <ele>816.5</ele>
        <time>2019-08-14T10:59:35Z</time>
      </trkpt>
      <trkpt lat="41.0761380" lon="-4.7359260">
        <ele>816.5</ele>
        <time>2019-08-14T10:59:36Z</time>
      </trkpt>
      <trkpt lat="41.0761780" lon="-4.7359650">
        <ele>816.6</ele>
        <time>2019-08-14T10:59:37Z</time>
      </trkpt>
      <trkpt lat="41.0762180" lon="-4.7360130">
        <ele>816.7</ele>
        <time>2019-08-14T10:59:38Z</time>
      </trkpt>
      <trkpt lat="41.0762600" lon="-4.7360560">
        <ele>816.8</ele>
        <time>2019-08-14T10:59:39Z</time>
      </trkpt>
      <trkpt lat="41.0763000" lon="-4.7361090">
        <ele>816.9</ele>
        <time>2019-08-14T10:59:40Z</time>
      </trkpt>
      <trkpt lat="41.0763380" lon="-4.7361610">
        <ele>817.1</ele>
        <time>2019-08-14T10:59:41Z</time>
      </trkpt>
      <trkpt lat="41.0763780" lon="-4.7362120">
        <ele>817.2</ele>
        <time>2019-08-14T10:59:42Z</time>
      </trkpt>
      <trkpt lat="41.0764170" lon="-4.7362640">
        <ele>817.3</ele>
        <time>2019-08-14T10:59:43Z</time>
      </trkpt>
      <trkpt lat="41.0764570" lon="-4.7363130">
        <ele>817.5</ele>
        <time>2019-08-14T10:59:44Z</time>
      </trkpt>
      <trkpt lat="41.0764980" lon="-4.7363630">
        <ele>817.6</ele>
        <time>2019-08-14T10:59:45Z</time>
      </trkpt>
      <trkpt lat="41.0765390" lon="-4.7364130">
        <ele>817.7</ele>
        <time>2019-08-14T10:59:46Z</time>
      </trkpt>
      <trkpt lat="41.0765790" lon="-4.7364640">
        <ele>817.8</ele>
        <time>2019-08-14T10:59:47Z</time>
      </trkpt>
      <trkpt lat="41.0766200" lon="-4.7365120">
        <ele>817.9</ele>
        <time>2019-08-14T10:59:48Z</time>
      </trkpt>
      <trkpt lat="41.0766610" lon="-4.7365620">
        <ele>818.0</ele>
        <time>2019-08-14T10:59:49Z</time>
      </trkpt>
      <trkpt lat="41.0767030" lon="-4.7366130">
        <ele>818.2</ele>
        <time>2019-08-14T10:59:50Z</time>
      </trkpt>
      <trkpt lat="41.0767460" lon="-4.7366630">
        <ele>818.3</ele>
        <time>2019-08-14T10:59:51Z</time>
      </trkpt>
      <trkpt lat="41.0767890" lon="-4.7367130">
        <ele>818.4</ele>
        <time>2019-08-14T10:59:52Z</time>
      </trkpt>
      <trkpt lat="41.0768320" lon="-4.7367650">
        <ele>818.5</ele>
        <time>2019-08-14T10:59:53Z</time>
      </trkpt>
      <trkpt lat="41.0768760" lon="-4.7368180">
        <ele>818.6</ele>
        <time>2019-08-14T10:59:54Z</time>
      </trkpt>
      <trkpt lat="41.0769200" lon="-4.7368700">
        <ele>818.7</ele>
        <time>2019-08-14T10:59:55Z</time>
      </trkpt>
      <trkpt lat="41.0769640" lon="-4.7369210">
        <ele>818.8</ele>
        <time>2019-08-14T10:59:56Z</time>
      </trkpt>
      <trkpt lat="41.0770080" lon="-4.7369710">
        <ele>818.8</ele>
        <time>2019-08-14T10:59:57Z</time>
      </trkpt>
      <trkpt lat="41.0770520" lon="-4.7370160">
        <ele>818.9</ele>
        <time>2019-08-14T10:59:58Z</time>
      </trkpt>
      <trkpt lat="41.0770960" lon="-4.7370610">
        <ele>819.0</ele>
        <time>2019-08-14T10:59:59Z</time>
      </trkpt>
      <trkpt lat="41.0771420" lon="-4.7371050">
        <ele>819.1</ele>
        <time>2019-08-14T11:00:00Z</time>
      </trkpt>
      <trkpt lat="41.0771890" lon="-4.7371490">
        <ele>819.2</ele>
        <time>2019-08-14T11:00:01Z</time>
      </trkpt>
      <trkpt lat="41.0772370" lon="-4.7371930">
        <ele>819.3</ele>
        <time>2019-08-14T11:00:02Z</time>
      </trkpt>
      <trkpt lat="41.0772880" lon="-4.7372340">
        <ele>819.4</ele>
        <time>2019-08-14T11:00:03Z</time>
      </trkpt>
      <trkpt lat="41.0773400" lon="-4.7372750">
        <ele>819.5</ele>
        <time>2019-08-14T11:00:04Z</time>
      </trkpt>
      <trkpt lat="41.0773910" lon="-4.7373150">
        <ele>819.6</ele>
        <time>2019-08-14T11:00:05Z</time>
      </trkpt>
      <trkpt lat="41.0774410" lon="-4.7373520">
        <ele>819.7</ele>
        <time>2019-08-14T11:00:06Z</time>
      </trkpt>
      <trkpt lat="41.0774940" lon="-4.7373890">
        <ele>819.8</ele>
        <time>2019-08-14T11:00:07Z</time>
      </trkpt>
      <trkpt lat="41.0775440" lon="-4.7374230">
        <ele>819.9</ele>
        <time>2019-08-14T11:00:08Z</time>
      </trkpt>
      <trkpt lat="41.0775960" lon="-4.7374550">
        <ele>820.0</ele>
        <time>2019-08-14T11:00:09Z</time>
      </trkpt>
      <trkpt lat="41.0776500" lon="-4.7374890">
        <ele>820.1</ele>
        <time>2019-08-14T11:00:10Z</time>
      </trkpt>
      <trkpt lat="41.0777040" lon="-4.7375230">
        <ele>820.2</ele>
        <time>2019-08-14T11:00:11Z</time>
      </trkpt>
      <trkpt lat="41.0777590" lon="-4.7375550">
        <ele>820.3</ele>
        <time>2019-08-14T11:00:12Z</time>
      </trkpt>
      <trkpt lat="41.0778130" lon="-4.7375850">
        <ele>820.4</ele>
        <time>2019-08-14T11:00:13Z</time>
      </trkpt>
      <trkpt lat="41.0778670" lon="-4.7376150">
        <ele>820.4</ele>
        <time>2019-08-14T11:00:14Z</time>
      </trkpt>
      <trkpt lat="41.0779190" lon="-4.7376440">
        <ele>820.5</ele>
        <time>2019-08-14T11:00:15Z</time>
      </trkpt>
      <trkpt lat="41.0779690" lon="-4.7376720">
        <ele>820.6</ele>
        <time>2019-08-14T11:00:16Z</time>
      </trkpt>
      <trkpt lat="41.0780180" lon="-4.7377000">
        <ele>820.7</ele>
        <time>2019-08-14T11:00:17Z</time>
      </trkpt>
      <trkpt lat="41.0780660" lon="-4.7377280">
        <ele>820.8</ele>
        <time>2019-08-14T11:00:18Z</time>
      </trkpt>
      <trkpt lat="41.0781130" lon="-4.7377550">
        <ele>820.9</ele>
        <time>2019-08-14T11:00:19Z</time>
      </trkpt>
      <trkpt lat="41.0781610" lon="-4.7377820">
        <ele>821.0</ele>
        <time>2019-08-14T11:00:20Z</time>
      </trkpt>
      <trkpt lat="41.0782110" lon="-4.7378090">
        <ele>821.1</ele>
        <time>2019-08-14T11:00:21Z</time>
      </trkpt>
      <trkpt lat="41.0782630" lon="-4.7378350">
        <ele>821.2</ele>
        <time>2019-08-14T11:00:22Z</time>
      </trkpt>
      <trkpt lat="41.0783150" lon="-4.7378630">
        <ele>821.3</ele>
        <time>2019-08-14T11:00:23Z</time>
      </trkpt>
      <trkpt lat="41.0783680" lon="-4.7378920">
        <ele>821.3</ele>
        <time>2019-08-14T11:00:24Z</time>
      </trkpt>
      <trkpt lat="41.0784220" lon="-4.7379250">
        <ele>821.4</ele>
        <time>2019-08-14T11:00:25Z</time>
      </trkpt>
      <trkpt lat="41.0784770" lon="-4.7379580">
        <ele>821.5</ele>
        <time>2019-08-14T11:00:26Z</time>
      </trkpt>
      <trkpt lat="41.0785310" lon="-4.7379900">
        <ele>821.6</ele>
        <time>2019-08-14T11:00:27Z</time>
      </trkpt>
      <trkpt lat="41.0785860" lon="-4.7380210">
        <ele>821.7</ele>
        <time>2019-08-14T11:00:28Z</time>
      </trkpt>
      <trkpt lat="41.0786410" lon="-4.7380540">
        <ele>821.7</ele>
        <time>2019-08-14T11:00:29Z</time>
      </trkpt>
      <trkpt lat="41.0786960" lon="-4.7380860">
        <ele>821.7</ele>
        <time>2019-08-14T11:00:30Z</time>
      </trkpt>
      <trkpt lat="41.0787510" lon="-4.7381180">
        <ele>821.7</ele>
        <time>2019-08-14T11:00:31Z</time>
      </trkpt>
      <trkpt lat="41.0788060" lon="-4.7381500">
        <ele>821.7</ele>
        <time>2019-08-14T11:00:32Z</time>
      </trkpt>
      <trkpt lat="41.0788570" lon="-4.7381810">
        <ele>821.6</ele>
        <time>2019-08-14T11:00:33Z</time>
      </trkpt>
      <trkpt lat="41.0789080" lon="-4.7382110">
        <ele>821.6</ele>
        <time>2019-08-14T11:00:34Z</time>
      </trkpt>
      <trkpt lat="41.0789580" lon="-4.7382410">
        <ele>821.6</ele>
        <time>2019-08-14T11:00:35Z</time>
      </trkpt>
      <trkpt lat="41.0790080" lon="-4.7382710">
        <ele>821.6</ele>
        <time>2019-08-14T11:00:36Z</time>
      </trkpt>
      <trkpt lat="41.0790600" lon="-4.7383040">
        <ele>821.6</ele>
        <time>2019-08-14T11:00:37Z</time>
      </trkpt>
      <trkpt lat="41.0791110" lon="-4.7383370">
        <ele>821.5</ele>
        <time>2019-08-14T11:00:38Z</time>
      </trkpt>
      <trkpt lat="41.0791620" lon="-4.7383710">
        <ele>821.5</ele>
        <time>2019-08-14T11:00:39Z</time>
      </trkpt>
      <trkpt lat="41.0792140" lon="-4.7384040">
        <ele>821.5</ele>
        <time>2019-08-14T11:00:40Z</time>
      </trkpt>
      <trkpt lat="41.0792650" lon="-4.7384360">
        <ele>821.5</ele>
        <time>2019-08-14T11:00:41Z</time>
      </trkpt>
      <trkpt lat="41.0793170" lon="-4.7384680">
        <ele>821.5</ele>
        <time>2019-08-14T11:00:42Z</time>
      </trkpt>
      <trkpt lat="41.0793700" lon="-4.7384990">
        <ele>821.4</ele>
        <time>2019-08-14T11:00:43Z</time>
      </trkpt>
      <trkpt lat="41.0794230" lon="-4.7385290">
        <ele>821.4</ele>
        <time>2019-08-14T11:00:44Z</time>
      </trkpt>
      <trkpt lat="41.0794740" lon="-4.7385590">
        <ele>821.4</ele>
        <time>2019-08-14T11:00:45Z</time>
      </trkpt>
      <trkpt lat="41.0795250" lon="-4.7385910">
        <ele>821.4</ele>
        <time>2019-08-14T11:00:46Z</time>
      </trkpt>
      <trkpt lat="41.0795750" lon="-4.7386210">
        <ele>821.4</ele>
        <time>2019-08-14T11:00:47Z</time>
      </trkpt>
      <trkpt lat="41.0796260" lon="-4.7386500">
        <ele>821.3</ele>
        <time>2019-08-14T11:00:48Z</time>
      </trkpt>
      <trkpt lat="41.0796770" lon="-4.7386780">
        <ele>821.3</ele>
        <time>2019-08-14T11:00:49Z</time>
      </trkpt>
      <trkpt lat="41.0797260" lon="-4.7387050">
        <ele>821.3</ele>
        <time>2019-08-14T11:00:50Z</time>
      </trkpt>
      <trkpt lat="41.0797760" lon="-4.7387310">
        <ele>821.3</ele>
        <time>2019-08-14T11:00:51Z</time>
      </trkpt>
      <trkpt lat="41.0798260" lon="-4.7387570">
        <ele>821.2</ele>
        <time>2019-08-14T11:00:52Z</time>
      </trkpt>
      <trkpt lat="41.0798760" lon="-4.7387840">
        <ele>821.2</ele>
        <time>2019-08-14T11:00:53Z</time>
      </trkpt>
      <trkpt lat="41.0799250" lon="-4.7388100">
        <ele>821.2</ele>
        <time>2019-08-14T11:00:54Z</time>
      </trkpt>
      <trkpt lat="41.0799750" lon="-4.7388360">
        <ele>821.2</ele>
        <time>2019-08-14T11:00:55Z</time>
      </trkpt>
      <trkpt lat="41.0800250" lon="-4.7388620">
        <ele>821.1</ele>
        <time>2019-08-14T11:00:56Z</time>
      </trkpt>
      <trkpt lat="41.0800730" lon="-4.7388900">
        <ele>821.1</ele>
        <time>2019-08-14T11:00:57Z</time>
      </trkpt>
      <trkpt lat="41.0801220" lon="-4.7389190">
        <ele>821.1</ele>
        <time>2019-08-14T11:00:58Z</time>
      </trkpt>
      <trkpt lat="41.0801700" lon="-4.7389470">
        <ele>821.1</ele>
        <time>2019-08-14T11:00:59Z</time>
      </trkpt>
      <trkpt lat="41.0802180" lon="-4.7389750">
        <ele>821.0</ele>
        <time>2019-08-14T11:01:00Z</time>
      </trkpt>
      <trkpt lat="41.0802650" lon="-4.7390040">
        <ele>821.0</ele>
        <time>2019-08-14T11:01:01Z</time>
      </trkpt>
      <trkpt lat="41.0803130" lon="-4.7390340">
        <ele>821.0</ele>
        <time>2019-08-14T11:01:02Z</time>
      </trkpt>
      <trkpt lat="41.0803610" lon="-4.7390650">
        <ele>821.0</ele>
        <time>2019-08-14T11:01:03Z</time>
      </trkpt>
      <trkpt lat="41.0804070" lon="-4.7390980">
        <ele>820.9</ele>
        <time>2019-08-14T11:01:04Z</time>
      </trkpt>
      <trkpt lat="41.0804520" lon="-4.7391290">
        <ele>820.9</ele>
        <time>2019-08-14T11:01:05Z</time>
      </trkpt>
      <trkpt lat="41.0804960" lon="-4.7391590">
        <ele>820.9</ele>
        <time>2019-08-14T11:01:06Z</time>
      </trkpt>
      <trkpt lat="41.0805410" lon="-4.7391900">
        <ele>820.9</ele>
        <time>2019-08-14T11:01:07Z</time>
      </trkpt>
      <trkpt lat="41.0805870" lon="-4.7392210">
        <ele>820.9</ele>
        <time>2019-08-14T11:01:08Z</time>
      </trkpt>
      <trkpt lat="41.0806320" lon="-4.7392550">
        <ele>820.8</ele>
        <time>2019-08-14T11:01:09Z</time>
      </trkpt>
      <trkpt lat="41.0806770" lon="-4.7392900">
        <ele>820.8</ele>
        <time>2019-08-14T11:01:10Z</time>
      </trkpt>
      <trkpt lat="41.0807210" lon="-4.7393260">
        <ele>820.8</ele>
        <time>2019-08-14T11:01:11Z</time>
      </trkpt>
      <trkpt lat="41.0807650" lon="-4.7393620">
        <ele>820.8</ele>
        <time>2019-08-14T11:01:12Z</time>
      </trkpt>
      <trkpt lat="41.0808100" lon="-4.7393970">
        <ele>820.8</ele>
        <time>2019-08-14T11:01:13Z</time>
      </trkpt>
      <trkpt lat="41.0808560" lon="-4.7394330">
        <ele>820.7</ele>
        <time>2019-08-14T11:01:14Z</time>
      </trkpt>
      <trkpt lat="41.0809010" lon="-4.7394710">
        <ele>820.7</ele>
        <time>2019-08-14T11:01:15Z</time>
      </trkpt>
      <trkpt lat="41.0809450" lon="-4.7395090">
        <ele>820.7</ele>
        <time>2019-08-14T11:01:16Z</time>
      </trkpt>
      <trkpt lat="41.0809890" lon="-4.7395490">
        <ele>820.7</ele>
        <time>2019-08-14T11:01:17Z</time>
      </trkpt>
      <trkpt lat="41.0810340" lon="-4.7395900">
        <ele>820.7</ele>
        <time>2019-08-14T11:01:18Z</time>
      </trkpt>
      <trkpt lat="41.0810770" lon="-4.7396330">
        <ele>820.7</ele>
        <time>2019-08-14T11:01:19Z</time>
      </trkpt>
      <trkpt lat="41.0811220" lon="-4.7396770">
        <ele>820.6</ele>
        <time>2019-08-14T11:01:20Z</time>
      </trkpt>
      <trkpt lat="41.0811650" lon="-4.7397200">
        <ele>820.6</ele>
        <time>2019-08-14T11:01:21Z</time>
      </trkpt>
      <trkpt lat="41.0812030" lon="-4.7397630">
        <ele>820.6</ele>
        <time>2019-08-14T11:01:22Z</time>
      </trkpt>
      <trkpt lat="41.0812440" lon="-4.7398060">
        <ele>820.6</ele>
        <time>2019-08-14T11:01:23Z</time>
      </trkpt>
      <trkpt lat="41.0812870" lon="-4.7398490">
        <ele>820.6</ele>
        <time>2019-08-14T11:01:24Z</time>
      </trkpt>
      <trkpt lat="41.0813310" lon="-4.7398950">
        <ele>820.6</ele>
        <time>2019-08-14T11:01:25Z</time>
      </trkpt>
      <trkpt lat="41.0813750" lon="-4.7399400">
        <ele>820.5</ele>
        <time>2019-08-14T11:01:26Z</time>
      </trkpt>
      <trkpt lat="41.0814170" lon="-4.7399850">
        <ele>820.5</ele>
        <time>2019-08-14T11:01:27Z</time>
      </trkpt>
      <trkpt lat="41.0814580" lon="-4.7400310">
        <ele>820.5</ele>
        <time>2019-08-14T11:01:28Z</time>
      </trkpt>
      <trkpt lat="41.0815010" lon="-4.7400760">
        <ele>820.5</ele>
        <time>2019-08-14T11:01:29Z</time>
      </trkpt>
      <trkpt lat="41.0815450" lon="-4.7401210">
        <ele>820.5</ele>
        <time>2019-08-14T11:01:30Z</time>
      </trkpt>
      <trkpt lat="41.0815900" lon="-4.7401650">
        <ele>820.4</ele>
        <time>2019-08-14T11:01:31Z</time>
      </trkpt>
      <trkpt lat="41.0816350" lon="-4.7402090">
        <ele>820.4</ele>
        <time>2019-08-14T11:01:32Z</time>
      </trkpt>
      <trkpt lat="41.0816790" lon="-4.7402530">
        <ele>820.4</ele>
        <time>2019-08-14T11:01:33Z</time>
      </trkpt>
      <trkpt lat="41.0817230" lon="-4.7403000">
        <ele>820.4</ele>
        <time>2019-08-14T11:01:34Z</time>
      </trkpt>
      <trkpt lat="41.0817650" lon="-4.7403460">
        <ele>820.4</ele>
        <time>2019-08-14T11:01:35Z</time>
      </trkpt>
      <trkpt lat="41.0818080" lon="-4.7403930">
        <ele>820.4</ele>
        <time>2019-08-14T11:01:36Z</time>
      </trkpt>
      <trkpt lat="41.0818510" lon="-4.7404390">
        <ele>820.3</ele>
        <time>2019-08-14T11:01:37Z</time>
      </trkpt>
      <trkpt lat="41.0818950" lon="-4.7404840">
        <ele>820.3</ele>
        <time>2019-08-14T11:01:38Z</time>
      </trkpt>
      <trkpt lat="41.0819400" lon="-4.7405270">
        <ele>820.3</ele>
        <time>2019-08-14T11:01:39Z</time>
      </trkpt>
      <trkpt lat="41.0819830" lon="-4.7405700">
        <ele>820.3</ele>
        <time>2019-08-14T11:01:40Z</time>
      </trkpt>
      <trkpt lat="41.0820250" lon="-4.7406120">
        <ele>820.3</ele>
        <time>2019-08-14T11:01:41Z</time>
      </trkpt>
      <trkpt lat="41.0820680" lon="-4.7406570">
        <ele>820.2</ele>
        <time>2019-08-14T11:01:42Z</time>
      </trkpt>
      <trkpt lat="41.0821120" lon="-4.7407010">
        <ele>820.2</ele>
        <time>2019-08-14T11:01:43Z</time>
      </trkpt>
      <trkpt lat="41.0821550" lon="-4.7407440">
        <ele>820.2</ele>
        <time>2019-08-14T11:01:44Z</time>
      </trkpt>
      <trkpt lat="41.0822000" lon="-4.7407880">
        <ele>820.2</ele>
        <time>2019-08-14T11:01:45Z</time>
      </trkpt>
      <trkpt lat="41.0822450" lon="-4.7408340">
        <ele>820.2</ele>
        <time>2019-08-14T11:01:46Z</time>
      </trkpt>
      <trkpt lat="41.0822890" lon="-4.7408790">
        <ele>820.1</ele>
        <time>2019-08-14T11:01:47Z</time>
      </trkpt>
      <trkpt lat="41.0823320" lon="-4.7409230">
        <ele>820.1</ele>
        <time>2019-08-14T11:01:48Z</time>
      </trkpt>
      <trkpt lat="41.0823740" lon="-4.7409650">
        <ele>820.1</ele>
        <time>2019-08-14T11:01:49Z</time>
      </trkpt>
      <trkpt lat="41.0824160" lon="-4.7410070">
        <ele>820.1</ele>
        <time>2019-08-14T11:01:50Z</time>
      </trkpt>
      <trkpt lat="41.0824570" lon="-4.7410500">
        <ele>820.1</ele>
        <time>2019-08-14T11:01:51Z</time>
      </trkpt>
      <trkpt lat="41.0824980" lon="-4.7410930">
        <ele>820.1</ele>
        <time>2019-08-14T11:01:52Z</time>
      </trkpt>
      <trkpt lat="41.0825390" lon="-4.7411350">
        <ele>820.0</ele>
        <time>2019-08-14T11:01:53Z</time>
      </trkpt>
      <trkpt lat="41.0825800" lon="-4.7411790">
        <ele>820.0</ele>
        <time>2019-08-14T11:01:54Z</time>
      </trkpt>
      <trkpt lat="41.0826200" lon="-4.7412230">
        <ele>820.0</ele>
        <time>2019-08-14T11:01:55Z</time>
      </trkpt>
      <trkpt lat="41.0826600" lon="-4.7412670">
        <ele>820.0</ele>
        <time>2019-08-14T11:01:56Z</time>
      </trkpt>
      <trkpt lat="41.0827000" lon="-4.7413110">
        <ele>820.0</ele>
        <time>2019-08-14T11:01:57Z</time>
      </trkpt>
      <trkpt lat="41.0827400" lon="-4.7413560">
        <ele>819.9</ele>
        <time>2019-08-14T11:01:58Z</time>
      </trkpt>
      <trkpt lat="41.0827780" lon="-4.7414000">
        <ele>820.0</ele>
        <time>2019-08-14T11:01:59Z</time>
      </trkpt>
      <trkpt lat="41.0828140" lon="-4.7414440">
        <ele>820.0</ele>
        <time>2019-08-14T11:02:00Z</time>
      </trkpt>
      <trkpt lat="41.0828480" lon="-4.7414880">
        <ele>820.0</ele>
        <time>2019-08-14T11:02:01Z</time>
      </trkpt>
      <trkpt lat="41.0828820" lon="-4.7415350">
        <ele>820.1</ele>
        <time>2019-08-14T11:02:02Z</time>
      </trkpt>
      <trkpt lat="41.0829170" lon="-4.7415820">
        <ele>820.1</ele>
        <time>2019-08-14T11:02:03Z</time>
      </trkpt>
      <trkpt lat="41.0829530" lon="-4.7416330">
        <ele>820.1</ele>
        <time>2019-08-14T11:02:04Z</time>
      </trkpt>
      <trkpt lat="41.0829870" lon="-4.7416860">
        <ele>820.1</ele>
        <time>2019-08-14T11:02:05Z</time>
      </trkpt>
      <trkpt lat="41.0830190" lon="-4.7417400">
        <ele>820.1</ele>
        <time>2019-08-14T11:02:06Z</time>
      </trkpt>
      <trkpt lat="41.0830520" lon="-4.7417930">
        <ele>820.2</ele>
        <time>2019-08-14T11:02:07Z</time>
      </trkpt>
      <trkpt lat="41.0830860" lon="-4.7418450">
        <ele>820.2</ele>
        <time>2019-08-14T11:02:08Z</time>
      </trkpt>
      <trkpt lat="41.0831220" lon="-4.7418970">
        <ele>820.2</ele>
        <time>2019-08-14T11:02:09Z</time>
      </trkpt>
      <trkpt lat="41.0831620" lon="-4.7419450">
        <ele>820.2</ele>
        <time>2019-08-14T11:02:10Z</time>
      </trkpt>
      <trkpt lat="41.0832040" lon="-4.7419900">
        <ele>820.2</ele>
        <time>2019-08-14T11:02:11Z</time>
      </trkpt>
      <trkpt lat="41.0832460" lon="-4.7420320">
        <ele>820.2</ele>
        <time>2019-08-14T11:02:12Z</time>
      </trkpt>
      <trkpt lat="41.0832890" lon="-4.7420740">
        <ele>820.2</ele>
        <time>2019-08-14T11:02:13Z</time>
      </trkpt>
      <trkpt lat="41.0833290" lon="-4.7421150">
        <ele>820.2</ele>
        <time>2019-08-14T11:02:14Z</time>
      </trkpt>
      <trkpt lat="41.0833710" lon="-4.7421560">
        <ele>820.2</ele>
        <time>2019-08-14T11:02:15Z</time>
      </trkpt>
      <trkpt lat="41.0834140" lon="-4.7421970">
        <ele>820.2</ele>
        <time>2019-08-14T11:02:16Z</time>
      </trkpt>
      <trkpt lat="41.0834570" lon="-4.7422370">
        <ele>820.2</ele>
        <time>2019-08-14T11:02:17Z</time>
      </trkpt>
      <trkpt lat="41.0835010" lon="-4.7422770">
        <ele>820.1</ele>
        <time>2019-08-14T11:02:18Z</time>
      </trkpt>
      <trkpt lat="41.0835430" lon="-4.7423170">
        <ele>820.1</ele>
        <time>2019-08-14T11:02:19Z</time>
      </trkpt>
      <trkpt lat="41.0835860" lon="-4.7423570">
        <ele>820.1</ele>
        <time>2019-08-14T11:02:20Z</time>
      </trkpt>
      <trkpt lat="41.0836260" lon="-4.7423980">
        <ele>820.1</ele>
        <time>2019-08-14T11:02:21Z</time>
      </trkpt>
      <trkpt lat="41.0836670" lon="-4.7424400">
        <ele>820.1</ele>
        <time>2019-08-14T11:02:22Z</time>
      </trkpt>
      <trkpt lat="41.0837070" lon="-4.7424830">
        <ele>820.0</ele>
        <time>2019-08-14T11:02:23Z</time>
      </trkpt>
      <trkpt lat="41.0837480" lon="-4.7425250">
        <ele>820.0</ele>
        <time>2019-08-14T11:02:24Z</time>
      </trkpt>
      <trkpt lat="41.0837890" lon="-4.7425670">
        <ele>820.0</ele>
        <time>2019-08-14T11:02:25Z</time>
      </trkpt>
      <trkpt lat="41.0838320" lon="-4.7426100">
        <ele>819.9</ele>
        <time>2019-08-14T11:02:26Z</time>
      </trkpt>
      <trkpt lat="41.0838760" lon="-4.7426520">
        <ele>819.9</ele>
        <time>2019-08-14T11:02:27Z</time>
      </trkpt>
      <trkpt lat="41.0839190" lon="-4.7426960">
        <ele>819.8</ele>
        <time>2019-08-14T11:02:28Z</time>
      </trkpt>
      <trkpt lat="41.0839620" lon="-4.7427410">
        <ele>819.8</ele>
        <time>2019-08-14T11:02:29Z</time>
      </trkpt>
      <trkpt lat="41.0840040" lon="-4.7427850">
        <ele>819.7</ele>
        <time>2019-08-14T11:02:30Z</time>
      </trkpt>
      <trkpt lat="41.0840460" lon="-4.7428300">
        <ele>819.7</ele>
        <time>2019-08-14T11:02:31Z</time>
      </trkpt>
      <trkpt lat="41.0840890" lon="-4.7428740">
        <ele>819.7</ele>
        <time>2019-08-14T11:02:32Z</time>
      </trkpt>
      <trkpt lat="41.0841310" lon="-4.7429180">
        <ele>819.7</ele>
        <time>2019-08-14T11:02:33Z</time>
      </trkpt>
      <trkpt lat="41.0841740" lon="-4.7429620">
        <ele>819.6</ele>
        <time>2019-08-14T11:02:34Z</time>
      </trkpt>
      <trkpt lat="41.0842170" lon="-4.7430070">
        <ele>819.6</ele>
        <time>2019-08-14T11:02:35Z</time>
      </trkpt>
      <trkpt lat="41.0842610" lon="-4.7430530">
        <ele>819.6</ele>
        <time>2019-08-14T11:02:36Z</time>
      </trkpt>
      <trkpt lat="41.0843040" lon="-4.7430980">
        <ele>819.7</ele>
        <time>2019-08-14T11:02:37Z</time>
      </trkpt>
      <trkpt lat="41.0843480" lon="-4.7431430">
        <ele>819.7</ele>
        <time>2019-08-14T11:02:38Z</time>
      </trkpt>
      <trkpt lat="41.0843930" lon="-4.7431880">
        <ele>819.8</ele>
        <time>2019-08-14T11:02:39Z</time>
      </trkpt>
      <trkpt lat="41.0844380" lon="-4.7432330">
        <ele>819.8</ele>
        <time>2019-08-14T11:02:40Z</time>
      </trkpt>
      <trkpt lat="41.0844820" lon="-4.7432770">
        <ele>819.9</ele>
        <time>2019-08-14T11:02:41Z</time>
      </trkpt>
      <trkpt lat="41.0845260" lon="-4.7433200">
        <ele>819.9</ele>
        <time>2019-08-14T11:02:42Z</time>
      </trkpt>
      <trkpt lat="41.0845680" lon="-4.7433630">
        <ele>820.0</ele>
        <time>2019-08-14T11:02:43Z</time>
      </trkpt>
      <trkpt lat="41.0846110" lon="-4.7434060">
        <ele>820.0</ele>
        <time>2019-08-14T11:02:44Z</time>
      </trkpt>
      <trkpt lat="41.0846540" lon="-4.7434490">
        <ele>820.1</ele>
        <time>2019-08-14T11:02:45Z</time>
      </trkpt>
      <trkpt lat="41.0846980" lon="-4.7434910">
        <ele>820.1</ele>
        <time>2019-08-14T11:02:46Z</time>
      </trkpt>
      <trkpt lat="41.0847420" lon="-4.7435340">
        <ele>820.2</ele>
        <time>2019-08-14T11:02:47Z</time>
      </trkpt>
      <trkpt lat="41.0847860" lon="-4.7435770">
        <ele>820.2</ele>
        <time>2019-08-14T11:02:48Z</time>
      </trkpt>
      <trkpt lat="41.0848310" lon="-4.7436210">
        <ele>820.3</ele>
        <time>2019-08-14T11:02:49Z</time>
      </trkpt>
      <trkpt lat="41.0848760" lon="-4.7436650">
        <ele>820.4</ele>
        <time>2019-08-14T11:02:50Z</time>
      </trkpt>
      <trkpt lat="41.0849210" lon="-4.7437090">
        <ele>820.5</ele>
        <time>2019-08-14T11:02:51Z</time>
      </trkpt>
      <trkpt lat="41.0849650" lon="-4.7437520">
        <ele>820.6</ele>
        <time>2019-08-14T11:02:52Z</time>
      </trkpt>
      <trkpt lat="41.0850080" lon="-4.7437930">
        <ele>820.7</ele>
        <time>2019-08-14T11:02:53Z</time>
      </trkpt>
      <trkpt lat="41.0850480" lon="-4.7438340">
        <ele>820.8</ele>
        <time>2019-08-14T11:02:54Z</time>
      </trkpt>
      <trkpt lat="41.0850880" lon="-4.7438730">
        <ele>820.9</ele>
        <time>2019-08-14T11:02:55Z</time>
      </trkpt>
      <trkpt lat="41.0851280" lon="-4.7439140">
        <ele>821.0</ele>
        <time>2019-08-14T11:02:56Z</time>
      </trkpt>
      <trkpt lat="41.0851690" lon="-4.7439540">
        <ele>820.9</ele>
        <time>2019-08-14T11:02:57Z</time>
      </trkpt>
      <trkpt lat="41.0852080" lon="-4.7439920">
        <ele>820.8</ele>
        <time>2019-08-14T11:02:58Z</time>
      </trkpt>
      <trkpt lat="41.0852470" lon="-4.7440270">
        <ele>820.8</ele>
        <time>2019-08-14T11:02:59Z</time>
      </trkpt>
      <trkpt lat="41.0852880" lon="-4.7440610">
        <ele>820.7</ele>
        <time>2019-08-14T11:03:00Z</time>
      </trkpt>
      <trkpt lat="41.0853320" lon="-4.7440970">
        <ele>820.7</ele>
        <time>2019-08-14T11:03:01Z</time>
      </trkpt>
      <trkpt lat="41.0853760" lon="-4.7441350">
        <ele>820.7</ele>
        <time>2019-08-14T11:03:02Z</time>
      </trkpt>
      <trkpt lat="41.0854200" lon="-4.7441760">
        <ele>820.6</ele>
        <time>2019-08-14T11:03:03Z</time>
      </trkpt>
      <trkpt lat="41.0854650" lon="-4.7442200">
        <ele>820.6</ele>
        <time>2019-08-14T11:03:04Z</time>
      </trkpt>
      <trkpt lat="41.0855090" lon="-4.7442650">
        <ele>820.6</ele>
        <time>2019-08-14T11:03:05Z</time>
      </trkpt>
      <trkpt lat="41.0855540" lon="-4.7443120">
        <ele>820.6</ele>
        <time>2019-08-14T11:03:06Z</time>
      </trkpt>
      <trkpt lat="41.0856000" lon="-4.7443620">
        <ele>820.6</ele>
        <time>2019-08-14T11:03:07Z</time>
      </trkpt>
      <trkpt lat="41.0856450" lon="-4.7444130">
        <ele>820.6</ele>
        <time>2019-08-14T11:03:08Z</time>
      </trkpt>
      <trkpt lat="41.0856910" lon="-4.7444650">
        <ele>820.6</ele>
        <time>2019-08-14T11:03:09Z</time>
      </trkpt>
      <trkpt lat="41.0857350" lon="-4.7445170">
        <ele>820.6</ele>
        <time>2019-08-14T11:03:10Z</time>
      </trkpt>
      <trkpt lat="41.0857800" lon="-4.7445700">
        <ele>820.6</ele>
        <time>2019-08-14T11:03:11Z</time>
      </trkpt>
      <trkpt lat="41.0858260" lon="-4.7446230">
        <ele>820.6</ele>
        <time>2019-08-14T11:03:12Z</time>
      </trkpt>
      <trkpt lat="41.0858730" lon="-4.7446760">
        <ele>820.5</ele>
        <time>2019-08-14T11:03:13Z</time>
      </trkpt>
      <trkpt lat="41.0859200" lon="-4.7447280">
        <ele>820.3</ele>
        <time>2019-08-14T11:03:14Z</time>
      </trkpt>
      <trkpt lat="41.0859680" lon="-4.7447830">
        <ele>820.1</ele>
        <time>2019-08-14T11:03:15Z</time>
      </trkpt>
      <trkpt lat="41.0860150" lon="-4.7448400">
        <ele>819.9</ele>
        <time>2019-08-14T11:03:16Z</time>
      </trkpt>
      <trkpt lat="41.0860620" lon="-4.7448960">
        <ele>819.7</ele>
        <time>2019-08-14T11:03:17Z</time>
      </trkpt>
      <trkpt lat="41.0861070" lon="-4.7449510">
        <ele>819.6</ele>
        <time>2019-08-14T11:03:18Z</time>
      </trkpt>
      <trkpt lat="41.0861510" lon="-4.7450050">
        <ele>819.5</ele>
        <time>2019-08-14T11:03:19Z</time>
      </trkpt>
      <trkpt lat="41.0861940" lon="-4.7450580">
        <ele>819.3</ele>
        <time>2019-08-14T11:03:20Z</time>
      </trkpt>
      <trkpt lat="41.0862380" lon="-4.7451100">
        <ele>819.3</ele>
        <time>2019-08-14T11:03:21Z</time>
      </trkpt>
      <trkpt lat="41.0862840" lon="-4.7451650">
        <ele>819.2</ele>
        <time>2019-08-14T11:03:22Z</time>
      </trkpt>
      <trkpt lat="41.0863300" lon="-4.7452200">
        <ele>819.1</ele>
        <time>2019-08-14T11:03:23Z</time>
      </trkpt>
      <trkpt lat="41.0863750" lon="-4.7452740">
        <ele>819.1</ele>
        <time>2019-08-14T11:03:24Z</time>
      </trkpt>
      <trkpt lat="41.0864220" lon="-4.7453290">
        <ele>819.0</ele>
        <time>2019-08-14T11:03:25Z</time>
      </trkpt>
      <trkpt lat="41.0864680" lon="-4.7453840">
        <ele>819.0</ele>
        <time>2019-08-14T11:03:26Z</time>
      </trkpt>
      <trkpt lat="41.0865140" lon="-4.7454390">
        <ele>819.0</ele>
        <time>2019-08-14T11:03:27Z</time>
      </trkpt>
      <trkpt lat="41.0865600" lon="-4.7454960">
        <ele>818.9</ele>
        <time>2019-08-14T11:03:28Z</time>
      </trkpt>
      <trkpt lat="41.0866050" lon="-4.7455530">
        <ele>818.9</ele>
        <time>2019-08-14T11:03:29Z</time>
      </trkpt>
      <trkpt lat="41.0866500" lon="-4.7456110">
        <ele>818.8</ele>
        <time>2019-08-14T11:03:30Z</time>
      </trkpt>
      <trkpt lat="41.0866950" lon="-4.7456680">
        <ele>818.8</ele>
        <time>2019-08-14T11:03:31Z</time>
      </trkpt>
      <trkpt lat="41.0867400" lon="-4.7457240">
        <ele>818.7</ele>
        <time>2019-08-14T11:03:32Z</time>
      </trkpt>
      <trkpt lat="41.0867860" lon="-4.7457800">
        <ele>818.7</ele>
        <time>2019-08-14T11:03:33Z</time>
      </trkpt>
      <trkpt lat="41.0868330" lon="-4.7458350">
        <ele>818.7</ele>
        <time>2019-08-14T11:03:34Z</time>
      </trkpt>
      <trkpt lat="41.0868780" lon="-4.7458900">
        <ele>818.6</ele>
        <time>2019-08-14T11:03:35Z</time>
      </trkpt>
      <trkpt lat="41.0869240" lon="-4.7459440">
        <ele>818.6</ele>
        <time>2019-08-14T11:03:36Z</time>
      </trkpt>
      <trkpt lat="41.0869690" lon="-4.7460000">
        <ele>818.6</ele>
        <time>2019-08-14T11:03:37Z</time>
      </trkpt>
      <trkpt lat="41.0870150" lon="-4.7460530">
        <ele>818.5</ele>
        <time>2019-08-14T11:03:38Z</time>
      </trkpt>
      <trkpt lat="41.0870610" lon="-4.7461070">
        <ele>818.6</ele>
        <time>2019-08-14T11:03:39Z</time>
      </trkpt>
      <trkpt lat="41.0871050" lon="-4.7461590">
        <ele>818.6</ele>
        <time>2019-08-14T11:03:40Z</time>
      </trkpt>
      <trkpt lat="41.0871470" lon="-4.7462100">
        <ele>818.6</ele>
        <time>2019-08-14T11:03:41Z</time>
      </trkpt>
      <trkpt lat="41.0871890" lon="-4.7462610">
        <ele>818.7</ele>
        <time>2019-08-14T11:03:42Z</time>
      </trkpt>
      <trkpt lat="41.0872310" lon="-4.7463130">
        <ele>818.7</ele>
        <time>2019-08-14T11:03:43Z</time>
      </trkpt>
      <trkpt lat="41.0872730" lon="-4.7463650">
        <ele>818.8</ele>
        <time>2019-08-14T11:03:44Z</time>
      </trkpt>
      <trkpt lat="41.0873160" lon="-4.7464170">
        <ele>818.9</ele>
        <time>2019-08-14T11:03:45Z</time>
      </trkpt>
      <trkpt lat="41.0873600" lon="-4.7464670">
        <ele>819.0</ele>
        <time>2019-08-14T11:03:46Z</time>
      </trkpt>
      <trkpt lat="41.0874030" lon="-4.7465180">
        <ele>819.1</ele>
        <time>2019-08-14T11:03:47Z</time>
      </trkpt>
      <trkpt lat="41.0874460" lon="-4.7465680">
        <ele>819.2</ele>
        <time>2019-08-14T11:03:48Z</time>
      </trkpt>
      <trkpt lat="41.0874880" lon="-4.7466190">
        <ele>819.3</ele>
        <time>2019-08-14T11:03:49Z</time>
      </trkpt>
      <trkpt lat="41.0875290" lon="-4.7466720">
        <ele>819.4</ele>
        <time>2019-08-14T11:03:50Z</time>
      </trkpt>
      <trkpt lat="41.0875710" lon="-4.7467240">
        <ele>819.5</ele>
        <time>2019-08-14T11:03:51Z</time>
      </trkpt>
      <trkpt lat="41.0876150" lon="-4.7467750">
        <ele>819.6</ele>
        <time>2019-08-14T11:03:52Z</time>
      </trkpt>
      <trkpt lat="41.0876600" lon="-4.7468260">
        <ele>819.6</ele>
        <time>2019-08-14T11:03:53Z</time>
      </trkpt>
      <trkpt lat="41.0877040" lon="-4.7468780">
        <ele>819.6</ele>
        <time>2019-08-14T11:03:54Z</time>
      </trkpt>
      <trkpt lat="41.0877460" lon="-4.7469320">
        <ele>819.6</ele>
        <time>2019-08-14T11:03:55Z</time>
      </trkpt>
      <trkpt lat="41.0877900" lon="-4.7469850">
        <ele>819.6</ele>
        <time>2019-08-14T11:03:56Z</time>
      </trkpt>
      <trkpt lat="41.0878350" lon="-4.7470400">
        <ele>819.6</ele>
        <time>2019-08-14T11:03:57Z</time>
      </trkpt>
      <trkpt lat="41.0878780" lon="-4.7470970">
        <ele>819.6</ele>
        <time>2019-08-14T11:03:58Z</time>
      </trkpt>
      <trkpt lat="41.0879220" lon="-4.7471510">
        <ele>819.6</ele>
        <time>2019-08-14T11:03:59Z</time>
      </trkpt>
      <trkpt lat="41.0879660" lon="-4.7472010">
        <ele>819.6</ele>
        <time>2019-08-14T11:04:00Z</time>
      </trkpt>
      <trkpt lat="41.0880110" lon="-4.7472510">
        <ele>819.6</ele>
        <time>2019-08-14T11:04:01Z</time>
      </trkpt>
      <trkpt lat="41.0880540" lon="-4.7473020">
        <ele>819.5</ele>
        <time>2019-08-14T11:04:02Z</time>
      </trkpt>
      <trkpt lat="41.0880990" lon="-4.7473530">
        <ele>819.5</ele>
        <time>2019-08-14T11:04:03Z</time>
      </trkpt>
      <trkpt lat="41.0881450" lon="-4.7474040">
        <ele>819.4</ele>
        <time>2019-08-14T11:04:04Z</time>
      </trkpt>
      <trkpt lat="41.0881940" lon="-4.7474550">
        <ele>819.4</ele>
        <time>2019-08-14T11:04:05Z</time>
      </trkpt>
      <trkpt lat="41.0882440" lon="-4.7475030">
        <ele>819.3</ele>
        <time>2019-08-14T11:04:06Z</time>
      </trkpt>
      <trkpt lat="41.0882950" lon="-4.7475510">
        <ele>819.3</ele>
        <time>2019-08-14T11:04:07Z</time>
      </trkpt>
      <trkpt lat="41.0883460" lon="-4.7475950">
        <ele>819.2</ele>
        <time>2019-08-14T11:04:08Z</time>
      </trkpt>
      <trkpt lat="41.0883960" lon="-4.7476380">
        <ele>819.2</ele>
        <time>2019-08-14T11:04:09Z</time>
      </trkpt>
      <trkpt lat="41.0884430" lon="-4.7476800">
        <ele>819.2</ele>
        <time>2019-08-14T11:04:10Z</time>
      </trkpt>
      <trkpt lat="41.0884910" lon="-4.7477210">
        <ele>819.2</ele>
        <time>2019-08-14T11:04:11Z</time>
      </trkpt>
      <trkpt lat="41.0885400" lon="-4.7477610">
        <ele>819.2</ele>
        <time>2019-08-14T11:04:12Z</time>
      </trkpt>
      <trkpt lat="41.0885880" lon="-4.7478010">
        <ele>819.2</ele>
        <time>2019-08-14T11:04:13Z</time>
      </trkpt>
      <trkpt lat="41.0886370" lon="-4.7478420">
        <ele>819.3</ele>
        <time>2019-08-14T11:04:14Z</time>
      </trkpt>
      <trkpt lat="41.0886860" lon="-4.7478830">
        <ele>819.3</ele>
        <time>2019-08-14T11:04:15Z</time>
      </trkpt>
      <trkpt lat="41.0887350" lon="-4.7479250">
        <ele>819.3</ele>
        <time>2019-08-14T11:04:16Z</time>
      </trkpt>
      <trkpt lat="41.0887850" lon="-4.7479670">
        <ele>819.4</ele>
        <time>2019-08-14T11:04:17Z</time>
      </trkpt>
      <trkpt lat="41.0888330" lon="-4.7480080">
        <ele>819.4</ele>
        <time>2019-08-14T11:04:18Z</time>
      </trkpt>
      <trkpt lat="41.0888800" lon="-4.7480480">
        <ele>819.4</ele>
        <time>2019-08-14T11:04:19Z</time>
      </trkpt>
      <trkpt lat="41.0889270" lon="-4.7480890">
        <ele>819.4</ele>
        <time>2019-08-14T11:04:20Z</time>
      </trkpt>
      <trkpt lat="41.0889730" lon="-4.7481280">
        <ele>819.4</ele>
        <time>2019-08-14T11:04:21Z</time>
      </trkpt>
      <trkpt lat="41.0890160" lon="-4.7481680">
        <ele>819.5</ele>
        <time>2019-08-14T11:04:22Z</time>
      </trkpt>
      <trkpt lat="41.0890590" lon="-4.7482050">
        <ele>819.5</ele>
        <time>2019-08-14T11:04:23Z</time>
      </trkpt>
      <trkpt lat="41.0891020" lon="-4.7482430">
        <ele>819.5</ele>
        <time>2019-08-14T11:04:24Z</time>
      </trkpt>
      <trkpt lat="41.0891460" lon="-4.7482820">
        <ele>819.4</ele>
        <time>2019-08-14T11:04:25Z</time>
      </trkpt>
      <trkpt lat="41.0891910" lon="-4.7483220">
        <ele>819.4</ele>
        <time>2019-08-14T11:04:26Z</time>
      </trkpt>
      <trkpt lat="41.0892370" lon="-4.7483610">
        <ele>819.4</ele>
        <time>2019-08-14T11:04:27Z</time>
      </trkpt>
      <trkpt lat="41.0892820" lon="-4.7484010">
        <ele>819.4</ele>
        <time>2019-08-14T11:04:28Z</time>
      </trkpt>
      <trkpt lat="41.0893290" lon="-4.7484410">
        <ele>819.4</ele>
        <time>2019-08-14T11:04:29Z</time>
      </trkpt>
      <trkpt lat="41.0893760" lon="-4.7484820">
        <ele>819.3</ele>
        <time>2019-08-14T11:04:30Z</time>
      </trkpt>
      <trkpt lat="41.0894240" lon="-4.7485230">
        <ele>819.3</ele>
        <time>2019-08-14T11:04:31Z</time>
      </trkpt>
      <trkpt lat="41.0894710" lon="-4.7485650">
        <ele>819.3</ele>
        <time>2019-08-14T11:04:32Z</time>
      </trkpt>
      <trkpt lat="41.0895190" lon="-4.7486060">
        <ele>819.3</ele>
        <time>2019-08-14T11:04:33Z</time>
      </trkpt>
      <trkpt lat="41.0895680" lon="-4.7486470">
        <ele>819.3</ele>
        <time>2019-08-14T11:04:34Z</time>
      </trkpt>
      <trkpt lat="41.0896170" lon="-4.7486870">
        <ele>819.4</ele>
        <time>2019-08-14T11:04:35Z</time>
      </trkpt>
      <trkpt lat="41.0896660" lon="-4.7487280">
        <ele>819.4</ele>
        <time>2019-08-14T11:04:36Z</time>
      </trkpt>
      <trkpt lat="41.0897150" lon="-4.7487700">
        <ele>819.4</ele>
        <time>2019-08-14T11:04:37Z</time>
      </trkpt>
      <trkpt lat="41.0897630" lon="-4.7488120">
        <ele>819.5</ele>
        <time>2019-08-14T11:04:38Z</time>
      </trkpt>
      <trkpt lat="41.0898120" lon="-4.7488540">
        <ele>819.5</ele>
        <time>2019-08-14T11:04:39Z</time>
      </trkpt>
      <trkpt lat="41.0898610" lon="-4.7488960">
        <ele>819.5</ele>
        <time>2019-08-14T11:04:40Z</time>
      </trkpt>
      <trkpt lat="41.0899080" lon="-4.7489370">
        <ele>819.5</ele>
        <time>2019-08-14T11:04:41Z</time>
      </trkpt>
      <trkpt lat="41.0899530" lon="-4.7489800">
        <ele>819.6</ele>
        <time>2019-08-14T11:04:42Z</time>
      </trkpt>
      <trkpt lat="41.0899970" lon="-4.7490200">
        <ele>819.6</ele>
        <time>2019-08-14T11:04:43Z</time>
      </trkpt>
      <trkpt lat="41.0900420" lon="-4.7490570">
        <ele>819.6</ele>
        <time>2019-08-14T11:04:44Z</time>
      </trkpt>
      <trkpt lat="41.0900870" lon="-4.7490950">
        <ele>819.7</ele>
        <time>2019-08-14T11:04:45Z</time>
      </trkpt>
      <trkpt lat="41.0901320" lon="-4.7491350">
        <ele>819.7</ele>
        <time>2019-08-14T11:04:46Z</time>
      </trkpt>
      <trkpt lat="41.0901760" lon="-4.7491760">
        <ele>819.8</ele>
        <time>2019-08-14T11:04:47Z</time>
      </trkpt>
      <trkpt lat="41.0902200" lon="-4.7492140">
        <ele>819.8</ele>
        <time>2019-08-14T11:04:48Z</time>
      </trkpt>
      <trkpt lat="41.0902630" lon="-4.7492510">
        <ele>819.9</ele>
        <time>2019-08-14T11:04:49Z</time>
      </trkpt>
      <trkpt lat="41.0903030" lon="-4.7492860">
        <ele>819.9</ele>
        <time>2019-08-14T11:04:50Z</time>
      </trkpt>
      <trkpt lat="41.0903440" lon="-4.7493210">
        <ele>820.0</ele>
        <time>2019-08-14T11:04:51Z</time>
      </trkpt>
      <trkpt lat="41.0903840" lon="-4.7493550">
        <ele>820.0</ele>
        <time>2019-08-14T11:04:52Z</time>
      </trkpt>
      <trkpt lat="41.0904250" lon="-4.7493900">
        <ele>820.0</ele>
        <time>2019-08-14T11:04:53Z</time>
      </trkpt>
      <trkpt lat="41.0904680" lon="-4.7494260">
        <ele>820.1</ele>
        <time>2019-08-14T11:04:54Z</time>
      </trkpt>
      <trkpt lat="41.0905090" lon="-4.7494640">
        <ele>820.1</ele>
        <time>2019-08-14T11:04:55Z</time>
      </trkpt>
      <trkpt lat="41.0905520" lon="-4.7495010">
        <ele>820.1</ele>
        <time>2019-08-14T11:04:56Z</time>
      </trkpt>
      <trkpt lat="41.0905960" lon="-4.7495350">
        <ele>820.1</ele>
        <time>2019-08-14T11:04:57Z</time>
      </trkpt>
      <trkpt lat="41.0906400" lon="-4.7495710">
        <ele>820.1</ele>
        <time>2019-08-14T11:04:58Z</time>
      </trkpt>
      <trkpt lat="41.0906830" lon="-4.7496070">
        <ele>820.1</ele>
        <time>2019-08-14T11:04:59Z</time>
      </trkpt>
      <trkpt lat="41.0907260" lon="-4.7496430">
        <ele>820.1</ele>
        <time>2019-08-14T11:05:00Z</time>
      </trkpt>
      <trkpt lat="41.0907670" lon="-4.7496800">
        <ele>820.1</ele>
        <time>2019-08-14T11:05:01Z</time>
      </trkpt>
      <trkpt lat="41.0908070" lon="-4.7497160">
        <ele>820.1</ele>
        <time>2019-08-14T11:05:02Z</time>
      </trkpt>
      <trkpt lat="41.0908460" lon="-4.7497520">
        <ele>820.1</ele>
        <time>2019-08-14T11:05:03Z</time>
      </trkpt>
      <trkpt lat="41.0908850" lon="-4.7497870">
        <ele>820.0</ele>
        <time>2019-08-14T11:05:04Z</time>
      </trkpt>
      <trkpt lat="41.0909260" lon="-4.7498210">
        <ele>820.0</ele>
        <time>2019-08-14T11:05:05Z</time>
      </trkpt>
      <trkpt lat="41.0909680" lon="-4.7498550">
        <ele>820.0</ele>
        <time>2019-08-14T11:05:06Z</time>
      </trkpt>
      <trkpt lat="41.0910090" lon="-4.7498900">
        <ele>819.9</ele>
        <time>2019-08-14T11:05:07Z</time>
      </trkpt>
      <trkpt lat="41.0910520" lon="-4.7499280">
        <ele>819.9</ele>
        <time>2019-08-14T11:05:08Z</time>
      </trkpt>
      <trkpt lat="41.0910950" lon="-4.7499660">
        <ele>819.9</ele>
        <time>2019-08-14T11:05:09Z</time>
      </trkpt>
      <trkpt lat="41.0911370" lon="-4.7500020">
        <ele>819.9</ele>
        <time>2019-08-14T11:05:10Z</time>
      </trkpt>
      <trkpt lat="41.0911780" lon="-4.7500370">
        <ele>819.8</ele>
        <time>2019-08-14T11:05:11Z</time>
      </trkpt>
      <trkpt lat="41.0912200" lon="-4.7500720">
        <ele>819.8</ele>
        <time>2019-08-14T11:05:12Z</time>
      </trkpt>
      <trkpt lat="41.0912620" lon="-4.7501070">
        <ele>819.9</ele>
        <time>2019-08-14T11:05:13Z</time>
      </trkpt>
      <trkpt lat="41.0913030" lon="-4.7501420">
        <ele>819.9</ele>
        <time>2019-08-14T11:05:14Z</time>
      </trkpt>
      <trkpt lat="41.0913450" lon="-4.7501760">
        <ele>819.9</ele>
        <time>2019-08-14T11:05:15Z</time>
      </trkpt>
      <trkpt lat="41.0913870" lon="-4.7502110">
        <ele>820.0</ele>
        <time>2019-08-14T11:05:16Z</time>
      </trkpt>
      <trkpt lat="41.0914270" lon="-4.7502480">
        <ele>820.0</ele>
        <time>2019-08-14T11:05:17Z</time>
      </trkpt>
      <trkpt lat="41.0914690" lon="-4.7502840">
        <ele>820.1</ele>
        <time>2019-08-14T11:05:18Z</time>
      </trkpt>
      <trkpt lat="41.0915110" lon="-4.7503210">
        <ele>820.1</ele>
        <time>2019-08-14T11:05:19Z</time>
      </trkpt>
      <trkpt lat="41.0915520" lon="-4.7503580">
        <ele>820.1</ele>
        <time>2019-08-14T11:05:20Z</time>
      </trkpt>
      <trkpt lat="41.0915940" lon="-4.7503940">
        <ele>820.2</ele>
        <time>2019-08-14T11:05:21Z</time>
      </trkpt>
      <trkpt lat="41.0916360" lon="-4.7504290">
        <ele>820.2</ele>
        <time>2019-08-14T11:05:22Z</time>
      </trkpt>
      <trkpt lat="41.0916780" lon="-4.7504650">
        <ele>820.2</ele>
        <time>2019-08-14T11:05:23Z</time>
      </trkpt>
      <trkpt lat="41.0917200" lon="-4.7505020">
        <ele>820.2</ele>
        <time>2019-08-14T11:05:24Z</time>
      </trkpt>
      <trkpt lat="41.0917600" lon="-4.7505400">
        <ele>820.2</ele>
        <time>2019-08-14T11:05:25Z</time>
      </trkpt>
      <trkpt lat="41.0918030" lon="-4.7505780">
        <ele>820.2</ele>
        <time>2019-08-14T11:05:26Z</time>
      </trkpt>
      <trkpt lat="41.0918450" lon="-4.7506170">
        <ele>820.2</ele>
        <time>2019-08-14T11:05:27Z</time>
      </trkpt>
      <trkpt lat="41.0918870" lon="-4.7506540">
        <ele>820.2</ele>
        <time>2019-08-14T11:05:28Z</time>
      </trkpt>
      <trkpt lat="41.0919310" lon="-4.7506900">
        <ele>820.2</ele>
        <time>2019-08-14T11:05:29Z</time>
      </trkpt>
      <trkpt lat="41.0919750" lon="-4.7507260">
        <ele>820.2</ele>
        <time>2019-08-14T11:05:30Z</time>
      </trkpt>
      <trkpt lat="41.0920190" lon="-4.7507620">
        <ele>820.2</ele>
        <time>2019-08-14T11:05:31Z</time>
      </trkpt>
      <trkpt lat="41.0920630" lon="-4.7508000">
        <ele>820.1</ele>
        <time>2019-08-14T11:05:32Z</time>
      </trkpt>
      <trkpt lat="41.0921060" lon="-4.7508390">
        <ele>820.1</ele>
        <time>2019-08-14T11:05:33Z</time>
      </trkpt>
      <trkpt lat="41.0921490" lon="-4.7508750">
        <ele>820.2</ele>
        <time>2019-08-14T11:05:34Z</time>
      </trkpt>
      <trkpt lat="41.0921920" lon="-4.7509100">
        <ele>820.2</ele>
        <time>2019-08-14T11:05:35Z</time>
      </trkpt>
      <trkpt lat="41.0922350" lon="-4.7509470">
        <ele>820.2</ele>
        <time>2019-08-14T11:05:36Z</time>
      </trkpt>
      <trkpt lat="41.0922790" lon="-4.7509830">
        <ele>820.2</ele>
        <time>2019-08-14T11:05:37Z</time>
      </trkpt>
      <trkpt lat="41.0923230" lon="-4.7510180">
        <ele>820.3</ele>
        <time>2019-08-14T11:05:38Z</time>
      </trkpt>
      <trkpt lat="41.0923670" lon="-4.7510540">
        <ele>820.3</ele>
        <time>2019-08-14T11:05:39Z</time>
      </trkpt>
      <trkpt lat="41.0924130" lon="-4.7510890">
        <ele>820.3</ele>
        <time>2019-08-14T11:05:40Z</time>
      </trkpt>
      <trkpt lat="41.0924570" lon="-4.7511240">
        <ele>820.3</ele>
        <time>2019-08-14T11:05:41Z</time>
      </trkpt>
      <trkpt lat="41.0925030" lon="-4.7511600">
        <ele>820.4</ele>
        <time>2019-08-14T11:05:42Z</time>
      </trkpt>
      <trkpt lat="41.0925490" lon="-4.7511940">
        <ele>820.4</ele>
        <time>2019-08-14T11:05:43Z</time>
      </trkpt>
      <trkpt lat="41.0925960" lon="-4.7512290">
        <ele>820.4</ele>
        <time>2019-08-14T11:05:44Z</time>
      </trkpt>
      <trkpt lat="41.0926420" lon="-4.7512630">
        <ele>820.4</ele>
        <time>2019-08-14T11:05:45Z</time>
      </trkpt>
      <trkpt lat="41.0926870" lon="-4.7512980">
        <ele>820.4</ele>
        <time>2019-08-14T11:05:46Z</time>
      </trkpt>
      <trkpt lat="41.0927340" lon="-4.7513320">
        <ele>820.4</ele>
        <time>2019-08-14T11:05:47Z</time>
      </trkpt>
      <trkpt lat="41.0927790" lon="-4.7513670">
        <ele>820.4</ele>
        <time>2019-08-14T11:05:48Z</time>
      </trkpt>
      <trkpt lat="41.0928220" lon="-4.7514010">
        <ele>820.4</ele>
        <time>2019-08-14T11:05:49Z</time>
      </trkpt>
      <trkpt lat="41.0928650" lon="-4.7514350">
        <ele>820.3</ele>
        <time>2019-08-14T11:05:50Z</time>
      </trkpt>
      <trkpt lat="41.0929080" lon="-4.7514680">
        <ele>820.3</ele>
        <time>2019-08-14T11:05:51Z</time>
      </trkpt>
      <trkpt lat="41.0929530" lon="-4.7515000">
        <ele>820.3</ele>
        <time>2019-08-14T11:05:52Z</time>
      </trkpt>
      <trkpt lat="41.0929980" lon="-4.7515310">
        <ele>820.3</ele>
        <time>2019-08-14T11:05:53Z</time>
      </trkpt>
      <trkpt lat="41.0930420" lon="-4.7515620">
        <ele>820.3</ele>
        <time>2019-08-14T11:05:54Z</time>
      </trkpt>
      <trkpt lat="41.0930860" lon="-4.7515940">
        <ele>820.3</ele>
        <time>2019-08-14T11:05:55Z</time>
      </trkpt>
      <trkpt lat="41.0931300" lon="-4.7516260">
        <ele>820.3</ele>
        <time>2019-08-14T11:05:56Z</time>
      </trkpt>
      <trkpt lat="41.0931740" lon="-4.7516570">
        <ele>820.3</ele>
        <time>2019-08-14T11:05:57Z</time>
      </trkpt>
      <trkpt lat="41.0932180" lon="-4.7516900">
        <ele>820.3</ele>
        <time>2019-08-14T11:05:58Z</time>
      </trkpt>
      <trkpt lat="41.0932620" lon="-4.7517220">
        <ele>820.3</ele>
        <time>2019-08-14T11:05:59Z</time>
      </trkpt>
      <trkpt lat="41.0933070" lon="-4.7517550">
        <ele>820.3</ele>
        <time>2019-08-14T11:06:00Z</time>
      </trkpt>
      <trkpt lat="41.0933540" lon="-4.7517880">
        <ele>820.4</ele>
        <time>2019-08-14T11:06:01Z</time>
      </trkpt>
      <trkpt lat="41.0934000" lon="-4.7518230">
        <ele>820.4</ele>
        <time>2019-08-14T11:06:02Z</time>
      </trkpt>
      <trkpt lat="41.0934470" lon="-4.7518580">
        <ele>820.5</ele>
        <time>2019-08-14T11:06:03Z</time>
      </trkpt>
      <trkpt lat="41.0934940" lon="-4.7518930">
        <ele>820.5</ele>
        <time>2019-08-14T11:06:04Z</time>
      </trkpt>
      <trkpt lat="41.0935410" lon="-4.7519270">
        <ele>820.6</ele>
        <time>2019-08-14T11:06:05Z</time>
      </trkpt>
      <trkpt lat="41.0935880" lon="-4.7519600">
        <ele>820.7</ele>
        <time>2019-08-14T11:06:06Z</time>
      </trkpt>
      <trkpt lat="41.0936340" lon="-4.7519920">
        <ele>820.7</ele>
        <time>2019-08-14T11:06:07Z</time>
      </trkpt>
      <trkpt lat="41.0936780" lon="-4.7520230">
        <ele>820.8</ele>
        <time>2019-08-14T11:06:08Z</time>
      </trkpt>
      <trkpt lat="41.0937190" lon="-4.7520550">
        <ele>820.8</ele>
        <time>2019-08-14T11:06:09Z</time>
      </trkpt>
      <trkpt lat="41.0937590" lon="-4.7520860">
        <ele>820.8</ele>
        <time>2019-08-14T11:06:10Z</time>
      </trkpt>
      <trkpt lat="41.0937990" lon="-4.7521150">
        <ele>820.9</ele>
        <time>2019-08-14T11:06:11Z</time>
      </trkpt>
      <trkpt lat="41.0938390" lon="-4.7521460">
        <ele>820.9</ele>
        <time>2019-08-14T11:06:12Z</time>
      </trkpt>
      <trkpt lat="41.0938790" lon="-4.7521780">
        <ele>820.9</ele>
        <time>2019-08-14T11:06:13Z</time>
      </trkpt>
      <trkpt lat="41.0939210" lon="-4.7522090">
        <ele>820.9</ele>
        <time>2019-08-14T11:06:14Z</time>
      </trkpt>
      <trkpt lat="41.0939640" lon="-4.7522390">
        <ele>820.8</ele>
        <time>2019-08-14T11:06:15Z</time>
      </trkpt>
      <trkpt lat="41.0940050" lon="-4.7522710">
        <ele>820.8</ele>
        <time>2019-08-14T11:06:16Z</time>
      </trkpt>
      <trkpt lat="41.0940470" lon="-4.7523010">
        <ele>820.7</ele>
        <time>2019-08-14T11:06:17Z</time>
      </trkpt>
      <trkpt lat="41.0940850" lon="-4.7523300">
        <ele>820.6</ele>
        <time>2019-08-14T11:06:18Z</time>
      </trkpt>
      <trkpt lat="41.0941250" lon="-4.7523610">
        <ele>820.6</ele>
        <time>2019-08-14T11:06:19Z</time>
      </trkpt>
      <trkpt lat="41.0941640" lon="-4.7523920">
        <ele>820.5</ele>
        <time>2019-08-14T11:06:20Z</time>
      </trkpt>
      <trkpt lat="41.0942020" lon="-4.7524220">
        <ele>820.4</ele>
        <time>2019-08-14T11:06:21Z</time>
      </trkpt>
      <trkpt lat="41.0942400" lon="-4.7524500">
        <ele>820.4</ele>
        <time>2019-08-14T11:06:22Z</time>
      </trkpt>
      <trkpt lat="41.0942770" lon="-4.7524780">
        <ele>820.3</ele>
        <time>2019-08-14T11:06:23Z</time>
      </trkpt>
      <trkpt lat="41.0943130" lon="-4.7525050">
        <ele>820.2</ele>
        <time>2019-08-14T11:06:24Z</time>
      </trkpt>
      <trkpt lat="41.0943480" lon="-4.7525300">
        <ele>820.2</ele>
        <time>2019-08-14T11:06:25Z</time>
      </trkpt>
      <trkpt lat="41.0943820" lon="-4.7525540">
        <ele>820.2</ele>
        <time>2019-08-14T11:06:26Z</time>
      </trkpt>
      <trkpt lat="41.0944170" lon="-4.7525790">
        <ele>820.1</ele>
        <time>2019-08-14T11:06:27Z</time>
      </trkpt>
      <trkpt lat="41.0944540" lon="-4.7526040">
        <ele>820.1</ele>
        <time>2019-08-14T11:06:28Z</time>
      </trkpt>
      <trkpt lat="41.0944940" lon="-4.7526340">
        <ele>820.1</ele>
        <time>2019-08-14T11:06:29Z</time>
      </trkpt>
      <trkpt lat="41.0945350" lon="-4.7526640">
        <ele>820.1</ele>
        <time>2019-08-14T11:06:30Z</time>
      </trkpt>
      <trkpt lat="41.0945790" lon="-4.7526950">
        <ele>820.1</ele>
        <time>2019-08-14T11:06:31Z</time>
      </trkpt>
      <trkpt lat="41.0946220" lon="-4.7527260">
        <ele>820.1</ele>
        <time>2019-08-14T11:06:32Z</time>
      </trkpt>
      <trkpt lat="41.0946670" lon="-4.7527600">
        <ele>820.1</ele>
        <time>2019-08-14T11:06:33Z</time>
      </trkpt>
      <trkpt lat="41.0947130" lon="-4.7527930">
        <ele>820.1</ele>
        <time>2019-08-14T11:06:34Z</time>
      </trkpt>
      <trkpt lat="41.0947610" lon="-4.7528290">
        <ele>820.2</ele>
        <time>2019-08-14T11:06:35Z</time>
      </trkpt>
      <trkpt lat="41.0948070" lon="-4.7528640">
        <ele>820.2</ele>
        <time>2019-08-14T11:06:36Z</time>
      </trkpt>
      <trkpt lat="41.0948510" lon="-4.7528980">
        <ele>820.2</ele>
        <time>2019-08-14T11:06:37Z</time>
      </trkpt>
      <trkpt lat="41.0948950" lon="-4.7529300">
        <ele>820.2</ele>
        <time>2019-08-14T11:06:38Z</time>
      </trkpt>
      <trkpt lat="41.0949400" lon="-4.7529640">
        <ele>820.2</ele>
        <time>2019-08-14T11:06:39Z</time>
      </trkpt>
      <trkpt lat="41.0949870" lon="-4.7530010">
        <ele>820.1</ele>
        <time>2019-08-14T11:06:40Z</time>
      </trkpt>
      <trkpt lat="41.0950340" lon="-4.7530390">
        <ele>820.1</ele>
        <time>2019-08-14T11:06:41Z</time>
      </trkpt>
      <trkpt lat="41.0950820" lon="-4.7530770">
        <ele>820.0</ele>
        <time>2019-08-14T11:06:42Z</time>
      </trkpt>
      <trkpt lat="41.0951280" lon="-4.7531140">
        <ele>820.0</ele>
        <time>2019-08-14T11:06:43Z</time>
      </trkpt>
      <trkpt lat="41.0951740" lon="-4.7531510">
        <ele>819.9</ele>
        <time>2019-08-14T11:06:44Z</time>
      </trkpt>
      <trkpt lat="41.0952190" lon="-4.7531870">
        <ele>819.8</ele>
        <time>2019-08-14T11:06:45Z</time>
      </trkpt>
      <trkpt lat="41.0952640" lon="-4.7532220">
        <ele>819.7</ele>
        <time>2019-08-14T11:06:46Z</time>
      </trkpt>
      <trkpt lat="41.0953090" lon="-4.7532560">
        <ele>819.6</ele>
        <time>2019-08-14T11:06:47Z</time>
      </trkpt>
      <trkpt lat="41.0953540" lon="-4.7532900">
        <ele>819.5</ele>
        <time>2019-08-14T11:06:48Z</time>
      </trkpt>
      <trkpt lat="41.0954000" lon="-4.7533270">
        <ele>819.5</ele>
        <time>2019-08-14T11:06:49Z</time>
      </trkpt>
      <trkpt lat="41.0954470" lon="-4.7533630">
        <ele>819.4</ele>
        <time>2019-08-14T11:06:50Z</time>
      </trkpt>
      <trkpt lat="41.0954950" lon="-4.7534000">
        <ele>819.3</ele>
        <time>2019-08-14T11:06:51Z</time>
      </trkpt>
      <trkpt lat="41.0955430" lon="-4.7534360">
        <ele>819.3</ele>
        <time>2019-08-14T11:06:52Z</time>
      </trkpt>
      <trkpt lat="41.0955920" lon="-4.7534740">
        <ele>819.3</ele>
        <time>2019-08-14T11:06:53Z</time>
      </trkpt>
      <trkpt lat="41.0956400" lon="-4.7535110">
        <ele>819.3</ele>
        <time>2019-08-14T11:06:54Z</time>
      </trkpt>
      <trkpt lat="41.0956870" lon="-4.7535470">
        <ele>819.2</ele>
        <time>2019-08-14T11:06:55Z</time>
      </trkpt>
      <trkpt lat="41.0957330" lon="-4.7535840">
        <ele>819.2</ele>
        <time>2019-08-14T11:06:56Z</time>
      </trkpt>
      <trkpt lat="41.0957780" lon="-4.7536200">
        <ele>819.2</ele>
        <time>2019-08-14T11:06:57Z</time>
      </trkpt>
      <trkpt lat="41.0958220" lon="-4.7536560">
        <ele>819.1</ele>
        <time>2019-08-14T11:06:58Z</time>
      </trkpt>
      <trkpt lat="41.0958660" lon="-4.7536900">
        <ele>819.1</ele>
        <time>2019-08-14T11:06:59Z</time>
      </trkpt>
      <trkpt lat="41.0959090" lon="-4.7537240">
        <ele>819.1</ele>
        <time>2019-08-14T11:07:00Z</time>
      </trkpt>
      <trkpt lat="41.0959530" lon="-4.7537570">
        <ele>819.0</ele>
        <time>2019-08-14T11:07:01Z</time>
      </trkpt>
      <trkpt lat="41.0959950" lon="-4.7537900">
        <ele>819.0</ele>
        <time>2019-08-14T11:07:02Z</time>
      </trkpt>
      <trkpt lat="41.0960380" lon="-4.7538240">
        <ele>819.0</ele>
        <time>2019-08-14T11:07:03Z</time>
      </trkpt>
      <trkpt lat="41.0960820" lon="-4.7538580">
        <ele>819.0</ele>
        <time>2019-08-14T11:07:04Z</time>
      </trkpt>
      <trkpt lat="41.0961270" lon="-4.7538930">
        <ele>819.0</ele>
        <time>2019-08-14T11:07:05Z</time>
      </trkpt>
      <trkpt lat="41.0961710" lon="-4.7539280">
        <ele>819.0</ele>
        <time>2019-08-14T11:07:06Z</time>
      </trkpt>
      <trkpt lat="41.0962150" lon="-4.7539630">
        <ele>819.1</ele>
        <time>2019-08-14T11:07:07Z</time>
      </trkpt>
      <trkpt lat="41.0962590" lon="-4.7539960">
        <ele>819.1</ele>
        <time>2019-08-14T11:07:08Z</time>
      </trkpt>
      <trkpt lat="41.0963030" lon="-4.7540300">
        <ele>819.1</ele>
        <time>2019-08-14T11:07:09Z</time>
      </trkpt>
      <trkpt lat="41.0963460" lon="-4.7540640">
        <ele>819.1</ele>
        <time>2019-08-14T11:07:10Z</time>
      </trkpt>
      <trkpt lat="41.0963880" lon="-4.7540980">
        <ele>819.1</ele>
        <time>2019-08-14T11:07:11Z</time>
      </trkpt>
      <trkpt lat="41.0964300" lon="-4.7541330">
        <ele>819.1</ele>
        <time>2019-08-14T11:07:12Z</time>
      </trkpt>
      <trkpt lat="41.0964740" lon="-4.7541670">
        <ele>819.1</ele>
        <time>2019-08-14T11:07:13Z</time>
      </trkpt>
      <trkpt lat="41.0965190" lon="-4.7542020">
        <ele>819.1</ele>
        <time>2019-08-14T11:07:14Z</time>
      </trkpt>
      <trkpt lat="41.0965650" lon="-4.7542370">
        <ele>819.1</ele>
        <time>2019-08-14T11:07:15Z</time>
      </trkpt>
      <trkpt lat="41.0966110" lon="-4.7542710">
        <ele>819.1</ele>
        <time>2019-08-14T11:07:16Z</time>
      </trkpt>
      <trkpt lat="41.0966580" lon="-4.7543060">
        <ele>819.2</ele>
        <time>2019-08-14T11:07:17Z</time>
      </trkpt>
      <trkpt lat="41.0967050" lon="-4.7543410">
        <ele>819.2</ele>
        <time>2019-08-14T11:07:18Z</time>
      </trkpt>
      <trkpt lat="41.0967510" lon="-4.7543770">
        <ele>819.2</ele>
        <time>2019-08-14T11:07:19Z</time>
      </trkpt>
      <trkpt lat="41.0967960" lon="-4.7544130">
        <ele>819.3</ele>
        <time>2019-08-14T11:07:20Z</time>
      </trkpt>
      <trkpt lat="41.0968400" lon="-4.7544470">
        <ele>819.3</ele>
        <time>2019-08-14T11:07:21Z</time>
      </trkpt>
      <trkpt lat="41.0968830" lon="-4.7544830">
        <ele>819.3</ele>
        <time>2019-08-14T11:07:22Z</time>
      </trkpt>
      <trkpt lat="41.0969270" lon="-4.7545180">
        <ele>819.4</ele>
        <time>2019-08-14T11:07:23Z</time>
      </trkpt>
      <trkpt lat="41.0969720" lon="-4.7545530">
        <ele>819.4</ele>
        <time>2019-08-14T11:07:24Z</time>
      </trkpt>
      <trkpt lat="41.0970190" lon="-4.7545880">
        <ele>819.4</ele>
        <time>2019-08-14T11:07:25Z</time>
      </trkpt>
      <trkpt lat="41.0970650" lon="-4.7546230">
        <ele>819.4</ele>
        <time>2019-08-14T11:07:26Z</time>
      </trkpt>
      <trkpt lat="41.0971130" lon="-4.7546590">
        <ele>819.4</ele>
        <time>2019-08-14T11:07:27Z</time>
      </trkpt>
      <trkpt lat="41.0971600" lon="-4.7546960">
        <ele>819.3</ele>
        <time>2019-08-14T11:07:28Z</time>
      </trkpt>
      <trkpt lat="41.0972070" lon="-4.7547350">
        <ele>819.3</ele>
        <time>2019-08-14T11:07:29Z</time>
      </trkpt>
      <trkpt lat="41.0972530" lon="-4.7547720">
        <ele>819.3</ele>
        <time>2019-08-14T11:07:30Z</time>
      </trkpt>
      <trkpt lat="41.0972990" lon="-4.7548080">
        <ele>819.2</ele>
        <time>2019-08-14T11:07:31Z</time>
      </trkpt>
      <trkpt lat="41.0973430" lon="-4.7548430">
        <ele>819.2</ele>
        <time>2019-08-14T11:07:32Z</time>
      </trkpt>
      <trkpt lat="41.0973880" lon="-4.7548770">
        <ele>819.2</ele>
        <time>2019-08-14T11:07:33Z</time>
      </trkpt>
      <trkpt lat="41.0974310" lon="-4.7549110">
        <ele>819.2</ele>
        <time>2019-08-14T11:07:34Z</time>
      </trkpt>
      <trkpt lat="41.0974760" lon="-4.7549460">
        <ele>819.1</ele>
        <time>2019-08-14T11:07:35Z</time>
      </trkpt>
      <trkpt lat="41.0975220" lon="-4.7549810">
        <ele>819.1</ele>
        <time>2019-08-14T11:07:36Z</time>
      </trkpt>
      <trkpt lat="41.0975670" lon="-4.7550170">
        <ele>819.1</ele>
        <time>2019-08-14T11:07:37Z</time>
      </trkpt>
      <trkpt lat="41.0976130" lon="-4.7550510">
        <ele>819.1</ele>
        <time>2019-08-14T11:07:38Z</time>
      </trkpt>
      <trkpt lat="41.0976590" lon="-4.7550880">
        <ele>819.2</ele>
        <time>2019-08-14T11:07:39Z</time>
      </trkpt>
      <trkpt lat="41.0977060" lon="-4.7551250">
        <ele>819.2</ele>
        <time>2019-08-14T11:07:40Z</time>
      </trkpt>
      <trkpt lat="41.0977530" lon="-4.7551610">
        <ele>819.2</ele>
        <time>2019-08-14T11:07:41Z</time>
      </trkpt>
      <trkpt lat="41.0977990" lon="-4.7551980">
        <ele>819.3</ele>
        <time>2019-08-14T11:07:42Z</time>
      </trkpt>
      <trkpt lat="41.0978460" lon="-4.7552320">
        <ele>819.3</ele>
        <time>2019-08-14T11:07:43Z</time>
      </trkpt>
      <trkpt lat="41.0978910" lon="-4.7552650">
        <ele>819.3</ele>
        <time>2019-08-14T11:07:44Z</time>
      </trkpt>
      <trkpt lat="41.0979350" lon="-4.7552970">
        <ele>819.3</ele>
        <time>2019-08-14T11:07:45Z</time>
      </trkpt>
      <trkpt lat="41.0979780" lon="-4.7553280">
        <ele>819.3</ele>
        <time>2019-08-14T11:07:46Z</time>
      </trkpt>
      <trkpt lat="41.0980200" lon="-4.7553570">
        <ele>819.3</ele>
        <time>2019-08-14T11:07:47Z</time>
      </trkpt>
      <trkpt lat="41.0980620" lon="-4.7553860">
        <ele>819.3</ele>
        <time>2019-08-14T11:07:48Z</time>
      </trkpt>
      <trkpt lat="41.0981010" lon="-4.7554180">
        <ele>819.2</ele>
        <time>2019-08-14T11:07:49Z</time>
      </trkpt>
      <trkpt lat="41.0981370" lon="-4.7554470">
        <ele>819.2</ele>
        <time>2019-08-14T11:07:50Z</time>
      </trkpt>
      <trkpt lat="41.0981720" lon="-4.7554750">
        <ele>819.2</ele>
        <time>2019-08-14T11:07:51Z</time>
      </trkpt>
      <trkpt lat="41.0982060" lon="-4.7555020">
        <ele>819.2</ele>
        <time>2019-08-14T11:07:52Z</time>
      </trkpt>
      <trkpt lat="41.0982400" lon="-4.7555290">
        <ele>819.1</ele>
        <time>2019-08-14T11:07:53Z</time>
      </trkpt>
      <trkpt lat="41.0982760" lon="-4.7555580">
        <ele>819.1</ele>
        <time>2019-08-14T11:07:54Z</time>
      </trkpt>
      <trkpt lat="41.0983140" lon="-4.7555890">
        <ele>819.1</ele>
        <time>2019-08-14T11:07:55Z</time>
      </trkpt>
      <trkpt lat="41.0983550" lon="-4.7556210">
        <ele>819.0</ele>
        <time>2019-08-14T11:07:56Z</time>
      </trkpt>
      <trkpt lat="41.0983960" lon="-4.7556550">
        <ele>819.0</ele>
        <time>2019-08-14T11:07:57Z</time>
      </trkpt>
      <trkpt lat="41.0984390" lon="-4.7556880">
        <ele>819.0</ele>
        <time>2019-08-14T11:07:58Z</time>
      </trkpt>
      <trkpt lat="41.0984830" lon="-4.7557230">
        <ele>819.0</ele>
        <time>2019-08-14T11:07:59Z</time>
      </trkpt>
      <trkpt lat="41.0985270" lon="-4.7557570">
        <ele>819.0</ele>
        <time>2019-08-14T11:08:00Z</time>
      </trkpt>
      <trkpt lat="41.0985710" lon="-4.7557920">
        <ele>819.0</ele>
        <time>2019-08-14T11:08:01Z</time>
      </trkpt>
      <trkpt lat="41.0986150" lon="-4.7558280">
        <ele>818.9</ele>
        <time>2019-08-14T11:08:02Z</time>
      </trkpt>
      <trkpt lat="41.0986600" lon="-4.7558630">
        <ele>818.9</ele>
        <time>2019-08-14T11:08:03Z</time>
      </trkpt>
      <trkpt lat="41.0987050" lon="-4.7558980">
        <ele>818.9</ele>
        <time>2019-08-14T11:08:04Z</time>
      </trkpt>
      <trkpt lat="41.0987500" lon="-4.7559340">
        <ele>818.9</ele>
        <time>2019-08-14T11:08:05Z</time>
      </trkpt>
      <trkpt lat="41.0987970" lon="-4.7559690">
        <ele>818.9</ele>
        <time>2019-08-14T11:08:06Z</time>
      </trkpt>
      <trkpt lat="41.0988430" lon="-4.7560030">
        <ele>818.9</ele>
        <time>2019-08-14T11:08:07Z</time>
      </trkpt>
      <trkpt lat="41.0988910" lon="-4.7560400">
        <ele>818.9</ele>
        <time>2019-08-14T11:08:08Z</time>
      </trkpt>
      <trkpt lat="41.0989380" lon="-4.7560770">
        <ele>818.9</ele>
        <time>2019-08-14T11:08:09Z</time>
      </trkpt>
      <trkpt lat="41.0989860" lon="-4.7561140">
        <ele>818.9</ele>
        <time>2019-08-14T11:08:10Z</time>
      </trkpt>
      <trkpt lat="41.0990320" lon="-4.7561530">
        <ele>818.9</ele>
        <time>2019-08-14T11:08:11Z</time>
      </trkpt>
      <trkpt lat="41.0990760" lon="-4.7561900">
        <ele>818.9</ele>
        <time>2019-08-14T11:08:12Z</time>
      </trkpt>
      <trkpt lat="41.0991210" lon="-4.7562260">
        <ele>818.8</ele>
        <time>2019-08-14T11:08:13Z</time>
      </trkpt>
      <trkpt lat="41.0991670" lon="-4.7562610">
        <ele>818.8</ele>
        <time>2019-08-14T11:08:14Z</time>
      </trkpt>
      <trkpt lat="41.0992130" lon="-4.7562960">
        <ele>818.8</ele>
        <time>2019-08-14T11:08:15Z</time>
      </trkpt>
      <trkpt lat="41.0992600" lon="-4.7563310">
        <ele>818.8</ele>
        <time>2019-08-14T11:08:16Z</time>
      </trkpt>
      <trkpt lat="41.0993080" lon="-4.7563670">
        <ele>818.8</ele>
        <time>2019-08-14T11:08:17Z</time>
      </trkpt>
      <trkpt lat="41.0993560" lon="-4.7564070">
        <ele>818.8</ele>
        <time>2019-08-14T11:08:18Z</time>
      </trkpt>
      <trkpt lat="41.0994030" lon="-4.7564480">
        <ele>818.8</ele>
        <time>2019-08-14T11:08:19Z</time>
      </trkpt>
      <trkpt lat="41.0994500" lon="-4.7564890">
        <ele>818.8</ele>
        <time>2019-08-14T11:08:20Z</time>
      </trkpt>
      <trkpt lat="41.0994970" lon="-4.7565260">
        <ele>818.8</ele>
        <time>2019-08-14T11:08:21Z</time>
      </trkpt>
      <trkpt lat="41.0995440" lon="-4.7565600">
        <ele>818.8</ele>
        <time>2019-08-14T11:08:22Z</time>
      </trkpt>
      <trkpt lat="41.0995890" lon="-4.7565930">
        <ele>818.8</ele>
        <time>2019-08-14T11:08:23Z</time>
      </trkpt>
      <trkpt lat="41.0996330" lon="-4.7566260">
        <ele>818.8</ele>
        <time>2019-08-14T11:08:24Z</time>
      </trkpt>
      <trkpt lat="41.0996780" lon="-4.7566600">
        <ele>818.7</ele>
        <time>2019-08-14T11:08:25Z</time>
      </trkpt>
      <trkpt lat="41.0997240" lon="-4.7566950">
        <ele>818.6</ele>
        <time>2019-08-14T11:08:26Z</time>
      </trkpt>
      <trkpt lat="41.0997700" lon="-4.7567300">
        <ele>818.6</ele>
        <time>2019-08-14T11:08:27Z</time>
      </trkpt>
      <trkpt lat="41.0998150" lon="-4.7567660">
        <ele>818.5</ele>
        <time>2019-08-14T11:08:28Z</time>
      </trkpt>
      <trkpt lat="41.0998610" lon="-4.7568010">
        <ele>818.4</ele>
        <time>2019-08-14T11:08:29Z</time>
      </trkpt>
      <trkpt lat="41.0999100" lon="-4.7568360">
        <ele>818.3</ele>
        <time>2019-08-14T11:08:30Z</time>
      </trkpt>
      <trkpt lat="41.0999580" lon="-4.7568720">
        <ele>818.2</ele>
        <time>2019-08-14T11:08:31Z</time>
      </trkpt>
      <trkpt lat="41.1000040" lon="-4.7569100">
        <ele>818.1</ele>
        <time>2019-08-14T11:08:32Z</time>
      </trkpt>
      <trkpt lat="41.1000510" lon="-4.7569470">
        <ele>818.0</ele>
        <time>2019-08-14T11:08:33Z</time>
      </trkpt>
      <trkpt lat="41.1000980" lon="-4.7569840">
        <ele>817.9</ele>
        <time>2019-08-14T11:08:34Z</time>
      </trkpt>
      <trkpt lat="41.1001470" lon="-4.7570230">
        <ele>817.8</ele>
        <time>2019-08-14T11:08:35Z</time>
      </trkpt>
      <trkpt lat="41.1001950" lon="-4.7570620">
        <ele>817.7</ele>
        <time>2019-08-14T11:08:36Z</time>
      </trkpt>
      <trkpt lat="41.1002450" lon="-4.7571000">
        <ele>817.6</ele>
        <time>2019-08-14T11:08:37Z</time>
      </trkpt>
      <trkpt lat="41.1002960" lon="-4.7571390">
        <ele>817.5</ele>
        <time>2019-08-14T11:08:38Z</time>
      </trkpt>
      <trkpt lat="41.1003450" lon="-4.7571770">
        <ele>817.5</ele>
        <time>2019-08-14T11:08:39Z</time>
      </trkpt>
      <trkpt lat="41.1003930" lon="-4.7572160">
        <ele>817.4</ele>
        <time>2019-08-14T11:08:40Z</time>
      </trkpt>
      <trkpt lat="41.1004400" lon="-4.7572560">
        <ele>817.4</ele>
        <time>2019-08-14T11:08:41Z</time>
      </trkpt>
      <trkpt lat="41.1004880" lon="-4.7572950">
        <ele>817.3</ele>
        <time>2019-08-14T11:08:42Z</time>
      </trkpt>
      <trkpt lat="41.1005370" lon="-4.7573340">
        <ele>817.2</ele>
        <time>2019-08-14T11:08:43Z</time>
      </trkpt>
      <trkpt lat="41.1005880" lon="-4.7573720">
        <ele>817.2</ele>
        <time>2019-08-14T11:08:44Z</time>
      </trkpt>
      <trkpt lat="41.1006390" lon="-4.7574100">
        <ele>817.2</ele>
        <time>2019-08-14T11:08:45Z</time>
      </trkpt>
      <trkpt lat="41.1006910" lon="-4.7574490">
        <ele>817.1</ele>
        <time>2019-08-14T11:08:46Z</time>
      </trkpt>
      <trkpt lat="41.1007420" lon="-4.7574900">
        <ele>817.1</ele>
        <time>2019-08-14T11:08:47Z</time>
      </trkpt>
      <trkpt lat="41.1007920" lon="-4.7575310">
        <ele>817.1</ele>
        <time>2019-08-14T11:08:48Z</time>
      </trkpt>
      <trkpt lat="41.1008440" lon="-4.7575700">
        <ele>817.0</ele>
        <time>2019-08-14T11:08:49Z</time>
      </trkpt>
      <trkpt lat="41.1008930" lon="-4.7576090">
        <ele>817.0</ele>
        <time>2019-08-14T11:08:50Z</time>
      </trkpt>
      <trkpt lat="41.1009420" lon="-4.7576470">
        <ele>816.9</ele>
        <time>2019-08-14T11:08:51Z</time>
      </trkpt>
      <trkpt lat="41.1009910" lon="-4.7576830">
        <ele>816.9</ele>
        <time>2019-08-14T11:08:52Z</time>
      </trkpt>
      <trkpt lat="41.1010410" lon="-4.7577190">
        <ele>816.8</ele>
        <time>2019-08-14T11:08:53Z</time>
      </trkpt>
      <trkpt lat="41.1010910" lon="-4.7577570">
        <ele>816.8</ele>
        <time>2019-08-14T11:08:54Z</time>
      </trkpt>
      <trkpt lat="41.1011420" lon="-4.7577950">
        <ele>816.8</ele>
        <time>2019-08-14T11:08:55Z</time>
      </trkpt>
      <trkpt lat="41.1011930" lon="-4.7578350">
        <ele>816.8</ele>
        <time>2019-08-14T11:08:56Z</time>
      </trkpt>
      <trkpt lat="41.1012440" lon="-4.7578770">
        <ele>816.8</ele>
        <time>2019-08-14T11:08:57Z</time>
      </trkpt>
      <trkpt lat="41.1012950" lon="-4.7579180">
        <ele>816.7</ele>
        <time>2019-08-14T11:08:58Z</time>
      </trkpt>
      <trkpt lat="41.1013430" lon="-4.7579590">
        <ele>816.7</ele>
        <time>2019-08-14T11:08:59Z</time>
      </trkpt>
      <trkpt lat="41.1013920" lon="-4.7579970">
        <ele>816.7</ele>
        <time>2019-08-14T11:09:00Z</time>
      </trkpt>
      <trkpt lat="41.1014410" lon="-4.7580350">
        <ele>816.7</ele>
        <time>2019-08-14T11:09:01Z</time>
      </trkpt>
      <trkpt lat="41.1014910" lon="-4.7580710">
        <ele>816.8</ele>
        <time>2019-08-14T11:09:02Z</time>
      </trkpt>
      <trkpt lat="41.1015410" lon="-4.7581080">
        <ele>816.8</ele>
        <time>2019-08-14T11:09:03Z</time>
      </trkpt>
      <trkpt lat="41.1015900" lon="-4.7581470">
        <ele>816.8</ele>
        <time>2019-08-14T11:09:04Z</time>
      </trkpt>
      <trkpt lat="41.1016390" lon="-4.7581870">
        <ele>816.8</ele>
        <time>2019-08-14T11:09:05Z</time>
      </trkpt>
      <trkpt lat="41.1016870" lon="-4.7582270">
        <ele>816.8</ele>
        <time>2019-08-14T11:09:06Z</time>
      </trkpt>
      <trkpt lat="41.1017350" lon="-4.7582650">
        <ele>816.8</ele>
        <time>2019-08-14T11:09:07Z</time>
      </trkpt>
      <trkpt lat="41.1017820" lon="-4.7583030">
        <ele>816.8</ele>
        <time>2019-08-14T11:09:08Z</time>
      </trkpt>
      <trkpt lat="41.1018280" lon="-4.7583390">
        <ele>816.8</ele>
        <time>2019-08-14T11:09:09Z</time>
      </trkpt>
      <trkpt lat="41.1018730" lon="-4.7583750">
        <ele>816.8</ele>
        <time>2019-08-14T11:09:10Z</time>
      </trkpt>
      <trkpt lat="41.1019200" lon="-4.7584100">
        <ele>816.7</ele>
        <time>2019-08-14T11:09:11Z</time>
      </trkpt>
      <trkpt lat="41.1019670" lon="-4.7584460">
        <ele>816.7</ele>
        <time>2019-08-14T11:09:12Z</time>
      </trkpt>
      <trkpt lat="41.1020150" lon="-4.7584830">
        <ele>816.7</ele>
        <time>2019-08-14T11:09:13Z</time>
      </trkpt>
      <trkpt lat="41.1020640" lon="-4.7585190">
        <ele>816.7</ele>
        <time>2019-08-14T11:09:14Z</time>
      </trkpt>
      <trkpt lat="41.1021130" lon="-4.7585550">
        <ele>816.7</ele>
        <time>2019-08-14T11:09:15Z</time>
      </trkpt>
      <trkpt lat="41.1021620" lon="-4.7585900">
        <ele>816.7</ele>
        <time>2019-08-14T11:09:16Z</time>
      </trkpt>
      <trkpt lat="41.1022100" lon="-4.7586270">
        <ele>816.7</ele>
        <time>2019-08-14T11:09:17Z</time>
      </trkpt>
      <trkpt lat="41.1022560" lon="-4.7586640">
        <ele>816.6</ele>
        <time>2019-08-14T11:09:18Z</time>
      </trkpt>
      <trkpt lat="41.1023000" lon="-4.7586990">
        <ele>816.6</ele>
        <time>2019-08-14T11:09:19Z</time>
      </trkpt>
      <trkpt lat="41.1023410" lon="-4.7587320">
        <ele>816.6</ele>
        <time>2019-08-14T11:09:20Z</time>
      </trkpt>
      <trkpt lat="41.1023820" lon="-4.7587640">
        <ele>816.6</ele>
        <time>2019-08-14T11:09:21Z</time>
      </trkpt>
      <trkpt lat="41.1024210" lon="-4.7587940">
        <ele>816.6</ele>
        <time>2019-08-14T11:09:22Z</time>
      </trkpt>
      <trkpt lat="41.1024600" lon="-4.7588250">
        <ele>816.6</ele>
        <time>2019-08-14T11:09:23Z</time>
      </trkpt>
      <trkpt lat="41.1024990" lon="-4.7588540">
        <ele>816.6</ele>
        <time>2019-08-14T11:09:24Z</time>
      </trkpt>
      <trkpt lat="41.1025390" lon="-4.7588840">
        <ele>816.7</ele>
        <time>2019-08-14T11:09:25Z</time>
      </trkpt>
      <trkpt lat="41.1025790" lon="-4.7589150">
        <ele>816.7</ele>
        <time>2019-08-14T11:09:26Z</time>
      </trkpt>
      <trkpt lat="41.1026190" lon="-4.7589440">
        <ele>816.7</ele>
        <time>2019-08-14T11:09:27Z</time>
      </trkpt>
      <trkpt lat="41.1026590" lon="-4.7589760">
        <ele>816.8</ele>
        <time>2019-08-14T11:09:28Z</time>
      </trkpt>
      <trkpt lat="41.1026950" lon="-4.7590070">
        <ele>816.8</ele>
        <time>2019-08-14T11:09:29Z</time>
      </trkpt>
      <trkpt lat="41.1027370" lon="-4.7590380">
        <ele>816.9</ele>
        <time>2019-08-14T11:09:30Z</time>
      </trkpt>
      <trkpt lat="41.1027750" lon="-4.7590640">
        <ele>817.0</ele>
        <time>2019-08-14T11:09:31Z</time>
      </trkpt>
      <trkpt lat="41.1028050" lon="-4.7590910">
        <ele>817.0</ele>
        <time>2019-08-14T11:09:32Z</time>
      </trkpt>
      <trkpt lat="41.1028350" lon="-4.7591150">
        <ele>817.1</ele>
        <time>2019-08-14T11:09:33Z</time>
      </trkpt>
      <trkpt lat="41.1028640" lon="-4.7591400">
        <ele>817.1</ele>
        <time>2019-08-14T11:09:34Z</time>
      </trkpt>
      <trkpt lat="41.1028920" lon="-4.7591570">
        <ele>817.2</ele>
        <time>2019-08-14T11:09:35Z</time>
      </trkpt>
      <trkpt lat="41.1029190" lon="-4.7591680">
        <ele>817.2</ele>
        <time>2019-08-14T11:09:36Z</time>
      </trkpt>
      <trkpt lat="41.1029440" lon="-4.7591840">
        <ele>817.3</ele>
        <time>2019-08-14T11:09:37Z</time>
      </trkpt>
      <trkpt lat="41.1029710" lon="-4.7592020">
        <ele>817.3</ele>
        <time>2019-08-14T11:09:38Z</time>
      </trkpt>
      <trkpt lat="41.1029990" lon="-4.7592250">
        <ele>817.3</ele>
        <time>2019-08-14T11:09:39Z</time>
      </trkpt>
      <trkpt lat="41.1030300" lon="-4.7592500">
        <ele>817.4</ele>
        <time>2019-08-14T11:09:40Z</time>
      </trkpt>
      <trkpt lat="41.1030640" lon="-4.7592770">
        <ele>817.4</ele>
        <time>2019-08-14T11:09:41Z</time>
      </trkpt>
      <trkpt lat="41.1030990" lon="-4.7593040">
        <ele>817.5</ele>
        <time>2019-08-14T11:09:42Z</time>
      </trkpt>
      <trkpt lat="41.1031350" lon="-4.7593310">
        <ele>817.5</ele>
        <time>2019-08-14T11:09:43Z</time>
      </trkpt>
      <trkpt lat="41.1031710" lon="-4.7593590">
        <ele>817.5</ele>
        <time>2019-08-14T11:09:44Z</time>
      </trkpt>
      <trkpt lat="41.1032080" lon="-4.7593880">
        <ele>817.6</ele>
        <time>2019-08-14T11:09:45Z</time>
      </trkpt>
      <trkpt lat="41.1032450" lon="-4.7594200">
        <ele>817.6</ele>
        <time>2019-08-14T11:09:46Z</time>
      </trkpt>
      <trkpt lat="41.1032820" lon="-4.7594510">
        <ele>817.5</ele>
        <time>2019-08-14T11:09:47Z</time>
      </trkpt>
      <trkpt lat="41.1033220" lon="-4.7594800">
        <ele>817.5</ele>
        <time>2019-08-14T11:09:48Z</time>
      </trkpt>
      <trkpt lat="41.1033620" lon="-4.7595090">
        <ele>817.5</ele>
        <time>2019-08-14T11:09:49Z</time>
      </trkpt>
      <trkpt lat="41.1034030" lon="-4.7595410">
        <ele>817.5</ele>
        <time>2019-08-14T11:09:50Z</time>
      </trkpt>
      <trkpt lat="41.1034390" lon="-4.7595740">
        <ele>817.5</ele>
        <time>2019-08-14T11:09:51Z</time>
      </trkpt>
      <trkpt lat="41.1034730" lon="-4.7596090">
        <ele>817.5</ele>
        <time>2019-08-14T11:09:52Z</time>
      </trkpt>
      <trkpt lat="41.1035060" lon="-4.7596450">
        <ele>817.4</ele>
        <time>2019-08-14T11:09:53Z</time>
      </trkpt>
      <trkpt lat="41.1035400" lon="-4.7596780">
        <ele>817.4</ele>
        <time>2019-08-14T11:09:54Z</time>
      </trkpt>
      <trkpt lat="41.1035740" lon="-4.7597100">
        <ele>817.4</ele>
        <time>2019-08-14T11:09:55Z</time>
      </trkpt>
      <trkpt lat="41.1036100" lon="-4.7597400">
        <ele>817.3</ele>
        <time>2019-08-14T11:09:56Z</time>
      </trkpt>
      <trkpt lat="41.1036450" lon="-4.7597680">
        <ele>817.3</ele>
        <time>2019-08-14T11:09:57Z</time>
      </trkpt>
      <trkpt lat="41.1036820" lon="-4.7597960">
        <ele>817.2</ele>
        <time>2019-08-14T11:09:58Z</time>
      </trkpt>
      <trkpt lat="41.1037180" lon="-4.7598260">
        <ele>817.2</ele>
        <time>2019-08-14T11:09:59Z</time>
      </trkpt>
      <trkpt lat="41.1037520" lon="-4.7598590">
        <ele>817.1</ele>
        <time>2019-08-14T11:10:00Z</time>
      </trkpt>
      <trkpt lat="41.1037840" lon="-4.7598930">
        <ele>817.0</ele>
        <time>2019-08-14T11:10:01Z</time>
      </trkpt>
      <trkpt lat="41.1038210" lon="-4.7599250">
        <ele>817.0</ele>
        <time>2019-08-14T11:10:02Z</time>
      </trkpt>
      <trkpt lat="41.1038600" lon="-4.7599580">
        <ele>816.9</ele>
        <time>2019-08-14T11:10:03Z</time>
      </trkpt>
      <trkpt lat="41.1039020" lon="-4.7599910">
        <ele>816.9</ele>
        <time>2019-08-14T11:10:04Z</time>
      </trkpt>
      <trkpt lat="41.1039460" lon="-4.7600320">
        <ele>816.8</ele>
        <time>2019-08-14T11:10:05Z</time>
      </trkpt>
      <trkpt lat="41.1039870" lon="-4.7600720">
        <ele>816.7</ele>
        <time>2019-08-14T11:10:06Z</time>
      </trkpt>
      <trkpt lat="41.1040280" lon="-4.7601120">
        <ele>816.6</ele>
        <time>2019-08-14T11:10:07Z</time>
      </trkpt>
      <trkpt lat="41.1040680" lon="-4.7601520">
        <ele>816.5</ele>
        <time>2019-08-14T11:10:08Z</time>
      </trkpt>
      <trkpt lat="41.1041100" lon="-4.7601910">
        <ele>816.4</ele>
        <time>2019-08-14T11:10:09Z</time>
      </trkpt>
      <trkpt lat="41.1041530" lon="-4.7602330">
        <ele>816.3</ele>
        <time>2019-08-14T11:10:10Z</time>
      </trkpt>
      <trkpt lat="41.1041970" lon="-4.7602740">
        <ele>816.2</ele>
        <time>2019-08-14T11:10:11Z</time>
      </trkpt>
      <trkpt lat="41.1042430" lon="-4.7603170">
        <ele>816.1</ele>
        <time>2019-08-14T11:10:12Z</time>
      </trkpt>
      <trkpt lat="41.1042890" lon="-4.7603600">
        <ele>816.0</ele>
        <time>2019-08-14T11:10:13Z</time>
      </trkpt>
      <trkpt lat="41.1043330" lon="-4.7604030">
        <ele>815.9</ele>
        <time>2019-08-14T11:10:14Z</time>
      </trkpt>
      <trkpt lat="41.1043770" lon="-4.7604480">
        <ele>815.7</ele>
        <time>2019-08-14T11:10:15Z</time>
      </trkpt>
      <trkpt lat="41.1044190" lon="-4.7604900">
        <ele>815.6</ele>
        <time>2019-08-14T11:10:16Z</time>
      </trkpt>
      <trkpt lat="41.1044610" lon="-4.7605300">
        <ele>815.4</ele>
        <time>2019-08-14T11:10:17Z</time>
      </trkpt>
      <trkpt lat="41.1045020" lon="-4.7605690">
        <ele>815.3</ele>
        <time>2019-08-14T11:10:18Z</time>
      </trkpt>
      <trkpt lat="41.1045430" lon="-4.7606080">
        <ele>815.1</ele>
        <time>2019-08-14T11:10:19Z</time>
      </trkpt>
      <trkpt lat="41.1045810" lon="-4.7606460">
        <ele>815.1</ele>
        <time>2019-08-14T11:10:20Z</time>
      </trkpt>
      <trkpt lat="41.1046180" lon="-4.7606850">
        <ele>815.0</ele>
        <time>2019-08-14T11:10:21Z</time>
      </trkpt>
      <trkpt lat="41.1046530" lon="-4.7607280">
        <ele>815.0</ele>
        <time>2019-08-14T11:10:22Z</time>
      </trkpt>
      <trkpt lat="41.1046860" lon="-4.7607740">
        <ele>815.0</ele>
        <time>2019-08-14T11:10:23Z</time>
      </trkpt>
      <trkpt lat="41.1047210" lon="-4.7608190">
        <ele>814.9</ele>
        <time>2019-08-14T11:10:24Z</time>
      </trkpt>
      <trkpt lat="41.1047590" lon="-4.7608650">
        <ele>814.9</ele>
        <time>2019-08-14T11:10:25Z</time>
      </trkpt>
      <trkpt lat="41.1047980" lon="-4.7609110">
        <ele>814.9</ele>
        <time>2019-08-14T11:10:26Z</time>
      </trkpt>
      <trkpt lat="41.1048350" lon="-4.7609600">
        <ele>814.9</ele>
        <time>2019-08-14T11:10:27Z</time>
      </trkpt>
      <trkpt lat="41.1048740" lon="-4.7610090">
        <ele>814.9</ele>
        <time>2019-08-14T11:10:28Z</time>
      </trkpt>
      <trkpt lat="41.1049130" lon="-4.7610580">
        <ele>814.9</ele>
        <time>2019-08-14T11:10:29Z</time>
      </trkpt>
      <trkpt lat="41.1049520" lon="-4.7611080">
        <ele>814.9</ele>
        <time>2019-08-14T11:10:30Z</time>
      </trkpt>
      <trkpt lat="41.1049920" lon="-4.7611570">
        <ele>814.9</ele>
        <time>2019-08-14T11:10:31Z</time>
      </trkpt>
      <trkpt lat="41.1050330" lon="-4.7612070">
        <ele>814.9</ele>
        <time>2019-08-14T11:10:32Z</time>
      </trkpt>
      <trkpt lat="41.1050730" lon="-4.7612560">
        <ele>815.0</ele>
        <time>2019-08-14T11:10:33Z</time>
      </trkpt>
      <trkpt lat="41.1051130" lon="-4.7613040">
        <ele>815.0</ele>
        <time>2019-08-14T11:10:34Z</time>
      </trkpt>
      <trkpt lat="41.1051510" lon="-4.7613510">
        <ele>815.0</ele>
        <time>2019-08-14T11:10:35Z</time>
      </trkpt>
      <trkpt lat="41.1051900" lon="-4.7613960">
        <ele>815.0</ele>
        <time>2019-08-14T11:10:36Z</time>
      </trkpt>
      <trkpt lat="41.1052290" lon="-4.7614420">
        <ele>815.1</ele>
        <time>2019-08-14T11:10:37Z</time>
      </trkpt>
      <trkpt lat="41.1052680" lon="-4.7614900">
        <ele>815.1</ele>
        <time>2019-08-14T11:10:38Z</time>
      </trkpt>
      <trkpt lat="41.1053080" lon="-4.7615380">
        <ele>815.1</ele>
        <time>2019-08-14T11:10:39Z</time>
      </trkpt>
      <trkpt lat="41.1053470" lon="-4.7615880">
        <ele>815.1</ele>
        <time>2019-08-14T11:10:40Z</time>
      </trkpt>
      <trkpt lat="41.1053880" lon="-4.7616370">
        <ele>815.1</ele>
        <time>2019-08-14T11:10:41Z</time>
      </trkpt>
      <trkpt lat="41.1054290" lon="-4.7616860">
        <ele>815.1</ele>
        <time>2019-08-14T11:10:42Z</time>
      </trkpt>
      <trkpt lat="41.1054700" lon="-4.7617370">
        <ele>815.1</ele>
        <time>2019-08-14T11:10:43Z</time>
      </trkpt>
      <trkpt lat="41.1055110" lon="-4.7617890">
        <ele>815.1</ele>
        <time>2019-08-14T11:10:44Z</time>
      </trkpt>
      <trkpt lat="41.1055510" lon="-4.7618410">
        <ele>815.1</ele>
        <time>2019-08-14T11:10:45Z</time>
      </trkpt>
      <trkpt lat="41.1055940" lon="-4.7618920">
        <ele>815.0</ele>
        <time>2019-08-14T11:10:46Z</time>
      </trkpt>
      <trkpt lat="41.1056350" lon="-4.7619430">
        <ele>815.0</ele>
        <time>2019-08-14T11:10:47Z</time>
      </trkpt>
      <trkpt lat="41.1056750" lon="-4.7619920">
        <ele>815.0</ele>
        <time>2019-08-14T11:10:48Z</time>
      </trkpt>
      <trkpt lat="41.1057130" lon="-4.7620400">
        <ele>815.0</ele>
        <time>2019-08-14T11:10:49Z</time>
      </trkpt>
      <trkpt lat="41.1057510" lon="-4.7620850">
        <ele>814.9</ele>
        <time>2019-08-14T11:10:50Z</time>
      </trkpt>
      <trkpt lat="41.1057890" lon="-4.7621320">
        <ele>814.9</ele>
        <time>2019-08-14T11:10:51Z</time>
      </trkpt>
      <trkpt lat="41.1058280" lon="-4.7621800">
        <ele>814.9</ele>
        <time>2019-08-14T11:10:52Z</time>
      </trkpt>
      <trkpt lat="41.1058670" lon="-4.7622280">
        <ele>814.8</ele>
        <time>2019-08-14T11:10:53Z</time>
      </trkpt>
      <trkpt lat="41.1059060" lon="-4.7622770">
        <ele>814.8</ele>
        <time>2019-08-14T11:10:54Z</time>
      </trkpt>
      <trkpt lat="41.1059460" lon="-4.7623240">
        <ele>814.8</ele>
        <time>2019-08-14T11:10:55Z</time>
      </trkpt>
      <trkpt lat="41.1059870" lon="-4.7623720">
        <ele>814.8</ele>
        <time>2019-08-14T11:10:56Z</time>
      </trkpt>
      <trkpt lat="41.1060270" lon="-4.7624210">
        <ele>814.7</ele>
        <time>2019-08-14T11:10:57Z</time>
      </trkpt>
      <trkpt lat="41.1060650" lon="-4.7624700">
        <ele>814.7</ele>
        <time>2019-08-14T11:10:58Z</time>
      </trkpt>
      <trkpt lat="41.1061030" lon="-4.7625180">
        <ele>814.7</ele>
        <time>2019-08-14T11:10:59Z</time>
      </trkpt>
      <trkpt lat="41.1061430" lon="-4.7625640">
        <ele>814.7</ele>
        <time>2019-08-14T11:11:00Z</time>
      </trkpt>
      <trkpt lat="41.1061820" lon="-4.7626120">
        <ele>814.7</ele>
        <time>2019-08-14T11:11:01Z</time>
      </trkpt>
      <trkpt lat="41.1062220" lon="-4.7626610">
        <ele>814.8</ele>
        <time>2019-08-14T11:11:02Z</time>
      </trkpt>
      <trkpt lat="41.1062630" lon="-4.7627100">
        <ele>814.8</ele>
        <time>2019-08-14T11:11:03Z</time>
      </trkpt>
      <trkpt lat="41.1063040" lon="-4.7627600">
        <ele>814.8</ele>
        <time>2019-08-14T11:11:04Z</time>
      </trkpt>
      <trkpt lat="41.1063450" lon="-4.7628100">
        <ele>814.9</ele>
        <time>2019-08-14T11:11:05Z</time>
      </trkpt>
      <trkpt lat="41.1063850" lon="-4.7628590">
        <ele>814.9</ele>
        <time>2019-08-14T11:11:06Z</time>
      </trkpt>
      <trkpt lat="41.1064250" lon="-4.7629060">
        <ele>814.9</ele>
        <time>2019-08-14T11:11:07Z</time>
      </trkpt>
      <trkpt lat="41.1064640" lon="-4.7629540">
        <ele>815.0</ele>
        <time>2019-08-14T11:11:08Z</time>
      </trkpt>
      <trkpt lat="41.1065030" lon="-4.7630030">
        <ele>815.0</ele>
        <time>2019-08-14T11:11:09Z</time>
      </trkpt>
      <trkpt lat="41.1065430" lon="-4.7630520">
        <ele>815.0</ele>
        <time>2019-08-14T11:11:10Z</time>
      </trkpt>
      <trkpt lat="41.1065820" lon="-4.7631010">
        <ele>815.1</ele>
        <time>2019-08-14T11:11:11Z</time>
      </trkpt>
      <trkpt lat="41.1066210" lon="-4.7631490">
        <ele>815.1</ele>
        <time>2019-08-14T11:11:12Z</time>
      </trkpt>
      <trkpt lat="41.1066620" lon="-4.7631980">
        <ele>815.1</ele>
        <time>2019-08-14T11:11:13Z</time>
      </trkpt>
      <trkpt lat="41.1067030" lon="-4.7632470">
        <ele>815.1</ele>
        <time>2019-08-14T11:11:14Z</time>
      </trkpt>
      <trkpt lat="41.1067450" lon="-4.7632980">
        <ele>815.1</ele>
        <time>2019-08-14T11:11:15Z</time>
      </trkpt>
      <trkpt lat="41.1067860" lon="-4.7633480">
        <ele>815.1</ele>
        <time>2019-08-14T11:11:16Z</time>
      </trkpt>
      <trkpt lat="41.1068260" lon="-4.7633970">
        <ele>815.1</ele>
        <time>2019-08-14T11:11:17Z</time>
      </trkpt>
      <trkpt lat="41.1068650" lon="-4.7634440">
        <ele>815.0</ele>
        <time>2019-08-14T11:11:18Z</time>
      </trkpt>
      <trkpt lat="41.1069030" lon="-4.7634900">
        <ele>815.0</ele>
        <time>2019-08-14T11:11:19Z</time>
      </trkpt>
      <trkpt lat="41.1069410" lon="-4.7635370">
        <ele>814.9</ele>
        <time>2019-08-14T11:11:20Z</time>
      </trkpt>
      <trkpt lat="41.1069790" lon="-4.7635840">
        <ele>814.9</ele>
        <time>2019-08-14T11:11:21Z</time>
      </trkpt>
      <trkpt lat="41.1070170" lon="-4.7636300">
        <ele>814.9</ele>
        <time>2019-08-14T11:11:22Z</time>
      </trkpt>
      <trkpt lat="41.1070550" lon="-4.7636780">
        <ele>814.9</ele>
        <time>2019-08-14T11:11:23Z</time>
      </trkpt>
      <trkpt lat="41.1070920" lon="-4.7637250">
        <ele>814.9</ele>
        <time>2019-08-14T11:11:24Z</time>
      </trkpt>
      <trkpt lat="41.1071290" lon="-4.7637710">
        <ele>814.9</ele>
        <time>2019-08-14T11:11:25Z</time>
      </trkpt>
      <trkpt lat="41.1071660" lon="-4.7638160">
        <ele>814.9</ele>
        <time>2019-08-14T11:11:26Z</time>
      </trkpt>
      <trkpt lat="41.1072030" lon="-4.7638630">
        <ele>814.9</ele>
        <time>2019-08-14T11:11:27Z</time>
      </trkpt>
      <trkpt lat="41.1072410" lon="-4.7639080">
        <ele>815.0</ele>
        <time>2019-08-14T11:11:28Z</time>
      </trkpt>
      <trkpt lat="41.1072790" lon="-4.7639530">
        <ele>815.0</ele>
        <time>2019-08-14T11:11:29Z</time>
      </trkpt>
      <trkpt lat="41.1073170" lon="-4.7639970">
        <ele>815.1</ele>
        <time>2019-08-14T11:11:30Z</time>
      </trkpt>
      <trkpt lat="41.1073550" lon="-4.7640410">
        <ele>815.1</ele>
        <time>2019-08-14T11:11:31Z</time>
      </trkpt>
      <trkpt lat="41.1073930" lon="-4.7640850">
        <ele>815.2</ele>
        <time>2019-08-14T11:11:32Z</time>
      </trkpt>
      <trkpt lat="41.1074320" lon="-4.7641300">
        <ele>815.2</ele>
        <time>2019-08-14T11:11:33Z</time>
      </trkpt>
      <trkpt lat="41.1074700" lon="-4.7641750">
        <ele>815.3</ele>
        <time>2019-08-14T11:11:34Z</time>
      </trkpt>
      <trkpt lat="41.1075090" lon="-4.7642190">
        <ele>815.4</ele>
        <time>2019-08-14T11:11:35Z</time>
      </trkpt>
      <trkpt lat="41.1075490" lon="-4.7642620">
        <ele>815.4</ele>
        <time>2019-08-14T11:11:36Z</time>
      </trkpt>
      <trkpt lat="41.1075890" lon="-4.7643050">
        <ele>815.4</ele>
        <time>2019-08-14T11:11:37Z</time>
      </trkpt>
      <trkpt lat="41.1076290" lon="-4.7643480">
        <ele>815.5</ele>
        <time>2019-08-14T11:11:38Z</time>
      </trkpt>
      <trkpt lat="41.1076700" lon="-4.7643870">
        <ele>815.5</ele>
        <time>2019-08-14T11:11:39Z</time>
      </trkpt>
      <trkpt lat="41.1077110" lon="-4.7644230">
        <ele>815.5</ele>
        <time>2019-08-14T11:11:40Z</time>
      </trkpt>
      <trkpt lat="41.1077520" lon="-4.7644560">
        <ele>815.5</ele>
        <time>2019-08-14T11:11:41Z</time>
      </trkpt>
      <trkpt lat="41.1077910" lon="-4.7644880">
        <ele>815.5</ele>
        <time>2019-08-14T11:11:42Z</time>
      </trkpt>
      <trkpt lat="41.1078300" lon="-4.7645180">
        <ele>815.5</ele>
        <time>2019-08-14T11:11:43Z</time>
      </trkpt>
      <trkpt lat="41.1078700" lon="-4.7645470">
        <ele>815.5</ele>
        <time>2019-08-14T11:11:44Z</time>
      </trkpt>
      <trkpt lat="41.1079100" lon="-4.7645770">
        <ele>815.5</ele>
        <time>2019-08-14T11:11:45Z</time>
      </trkpt>
      <trkpt lat="41.1079520" lon="-4.7646080">
        <ele>815.5</ele>
        <time>2019-08-14T11:11:46Z</time>
      </trkpt>
      <trkpt lat="41.1079940" lon="-4.7646370">
        <ele>815.5</ele>
        <time>2019-08-14T11:11:47Z</time>
      </trkpt>
      <trkpt lat="41.1080370" lon="-4.7646680">
        <ele>815.5</ele>
        <time>2019-08-14T11:11:48Z</time>
      </trkpt>
      <trkpt lat="41.1080820" lon="-4.7646990">
        <ele>815.5</ele>
        <time>2019-08-14T11:11:49Z</time>
      </trkpt>
      <trkpt lat="41.1081270" lon="-4.7647270">
        <ele>815.6</ele>
        <time>2019-08-14T11:11:50Z</time>
      </trkpt>
      <trkpt lat="41.1081710" lon="-4.7647560">
        <ele>815.6</ele>
        <time>2019-08-14T11:11:51Z</time>
      </trkpt>
      <trkpt lat="41.1082130" lon="-4.7647850">
        <ele>815.6</ele>
        <time>2019-08-14T11:11:52Z</time>
      </trkpt>
      <trkpt lat="41.1082550" lon="-4.7648130">
        <ele>815.7</ele>
        <time>2019-08-14T11:11:53Z</time>
      </trkpt>
      <trkpt lat="41.1082970" lon="-4.7648410">
        <ele>815.7</ele>
        <time>2019-08-14T11:11:54Z</time>
      </trkpt>
      <trkpt lat="41.1083400" lon="-4.7648670">
        <ele>815.8</ele>
        <time>2019-08-14T11:11:55Z</time>
      </trkpt>
      <trkpt lat="41.1083840" lon="-4.7648940">
        <ele>815.8</ele>
        <time>2019-08-14T11:11:56Z</time>
      </trkpt>
      <trkpt lat="41.1084280" lon="-4.7649220">
        <ele>815.9</ele>
        <time>2019-08-14T11:11:57Z</time>
      </trkpt>
      <trkpt lat="41.1084720" lon="-4.7649520">
        <ele>815.9</ele>
        <time>2019-08-14T11:11:58Z</time>
      </trkpt>
      <trkpt lat="41.1085140" lon="-4.7649820">
        <ele>816.0</ele>
        <time>2019-08-14T11:11:59Z</time>
      </trkpt>
      <trkpt lat="41.1085540" lon="-4.7650110">
        <ele>816.0</ele>
        <time>2019-08-14T11:12:00Z</time>
      </trkpt>
      <trkpt lat="41.1085950" lon="-4.7650400">
        <ele>816.1</ele>
        <time>2019-08-14T11:12:01Z</time>
      </trkpt>
      <trkpt lat="41.1086360" lon="-4.7650690">
        <ele>816.1</ele>
        <time>2019-08-14T11:12:02Z</time>
      </trkpt>
      <trkpt lat="41.1086790" lon="-4.7651010">
        <ele>816.1</ele>
        <time>2019-08-14T11:12:03Z</time>
      </trkpt>
      <trkpt lat="41.1087230" lon="-4.7651310">
        <ele>816.2</ele>
        <time>2019-08-14T11:12:04Z</time>
      </trkpt>
      <trkpt lat="41.1087660" lon="-4.7651640">
        <ele>816.2</ele>
        <time>2019-08-14T11:12:05Z</time>
      </trkpt>
      <trkpt lat="41.1088090" lon="-4.7651960">
        <ele>816.3</ele>
        <time>2019-08-14T11:12:06Z</time>
      </trkpt>
      <trkpt lat="41.1088510" lon="-4.7652280">
        <ele>816.3</ele>
        <time>2019-08-14T11:12:07Z</time>
      </trkpt>
      <trkpt lat="41.1088930" lon="-4.7652590">
        <ele>816.4</ele>
        <time>2019-08-14T11:12:08Z</time>
      </trkpt>
      <trkpt lat="41.1089340" lon="-4.7652900">
        <ele>816.4</ele>
        <time>2019-08-14T11:12:09Z</time>
      </trkpt>
      <trkpt lat="41.1089730" lon="-4.7653190">
        <ele>816.4</ele>
        <time>2019-08-14T11:12:10Z</time>
      </trkpt>
      <trkpt lat="41.1090140" lon="-4.7653490">
        <ele>816.5</ele>
        <time>2019-08-14T11:12:11Z</time>
      </trkpt>
      <trkpt lat="41.1090540" lon="-4.7653800">
        <ele>816.5</ele>
        <time>2019-08-14T11:12:12Z</time>
      </trkpt>
      <trkpt lat="41.1090950" lon="-4.7654110">
        <ele>816.5</ele>
        <time>2019-08-14T11:12:13Z</time>
      </trkpt>
      <trkpt lat="41.1091370" lon="-4.7654430">
        <ele>816.5</ele>
        <time>2019-08-14T11:12:14Z</time>
      </trkpt>
      <trkpt lat="41.1091790" lon="-4.7654750">
        <ele>816.5</ele>
        <time>2019-08-14T11:12:15Z</time>
      </trkpt>
      <trkpt lat="41.1092230" lon="-4.7655080">
        <ele>816.4</ele>
        <time>2019-08-14T11:12:16Z</time>
      </trkpt>
      <trkpt lat="41.1092650" lon="-4.7655390">
        <ele>816.4</ele>
        <time>2019-08-14T11:12:17Z</time>
      </trkpt>
      <trkpt lat="41.1093050" lon="-4.7655680">
        <ele>816.4</ele>
        <time>2019-08-14T11:12:18Z</time>
      </trkpt>
      <trkpt lat="41.1093440" lon="-4.7655970">
        <ele>816.4</ele>
        <time>2019-08-14T11:12:19Z</time>
      </trkpt>
      <trkpt lat="41.1093840" lon="-4.7656270">
        <ele>816.4</ele>
        <time>2019-08-14T11:12:20Z</time>
      </trkpt>
      <trkpt lat="41.1094250" lon="-4.7656570">
        <ele>816.4</ele>
        <time>2019-08-14T11:12:21Z</time>
      </trkpt>
      <trkpt lat="41.1094660" lon="-4.7656880">
        <ele>816.4</ele>
        <time>2019-08-14T11:12:22Z</time>
      </trkpt>
      <trkpt lat="41.1095070" lon="-4.7657200">
        <ele>816.4</ele>
        <time>2019-08-14T11:12:23Z</time>
      </trkpt>
      <trkpt lat="41.1095490" lon="-4.7657520">
        <ele>816.4</ele>
        <time>2019-08-14T11:12:24Z</time>
      </trkpt>
      <trkpt lat="41.1095900" lon="-4.7657850">
        <ele>816.4</ele>
        <time>2019-08-14T11:12:25Z</time>
      </trkpt>
      <trkpt lat="41.1096330" lon="-4.7658170">
        <ele>816.4</ele>
        <time>2019-08-14T11:12:26Z</time>
      </trkpt>
      <trkpt lat="41.1096750" lon="-4.7658510">
        <ele>816.4</ele>
        <time>2019-08-14T11:12:27Z</time>
      </trkpt>
      <trkpt lat="41.1097190" lon="-4.7658820">
        <ele>816.4</ele>
        <time>2019-08-14T11:12:28Z</time>
      </trkpt>
      <trkpt lat="41.1097630" lon="-4.7659140">
        <ele>816.4</ele>
        <time>2019-08-14T11:12:29Z</time>
      </trkpt>
      <trkpt lat="41.1098070" lon="-4.7659470">
        <ele>816.4</ele>
        <time>2019-08-14T11:12:30Z</time>
      </trkpt>
      <trkpt lat="41.1098500" lon="-4.7659820">
        <ele>816.4</ele>
        <time>2019-08-14T11:12:31Z</time>
      </trkpt>
      <trkpt lat="41.1098950" lon="-4.7660160">
        <ele>816.5</ele>
        <time>2019-08-14T11:12:32Z</time>
      </trkpt>
      <trkpt lat="41.1099410" lon="-4.7660490">
        <ele>816.5</ele>
        <time>2019-08-14T11:12:33Z</time>
      </trkpt>
      <trkpt lat="41.1099890" lon="-4.7660830">
        <ele>816.5</ele>
        <time>2019-08-14T11:12:34Z</time>
      </trkpt>
      <trkpt lat="41.1100350" lon="-4.7661170">
        <ele>816.5</ele>
        <time>2019-08-14T11:12:35Z</time>
      </trkpt>
      <trkpt lat="41.1100820" lon="-4.7661510">
        <ele>816.5</ele>
        <time>2019-08-14T11:12:36Z</time>
      </trkpt>
      <trkpt lat="41.1101280" lon="-4.7661860">
        <ele>816.4</ele>
        <time>2019-08-14T11:12:37Z</time>
      </trkpt>
      <trkpt lat="41.1101730" lon="-4.7662220">
        <ele>816.4</ele>
        <time>2019-08-14T11:12:38Z</time>
      </trkpt>
      <trkpt lat="41.1102180" lon="-4.7662570">
        <ele>816.3</ele>
        <time>2019-08-14T11:12:39Z</time>
      </trkpt>
      <trkpt lat="41.1102630" lon="-4.7662910">
        <ele>816.2</ele>
        <time>2019-08-14T11:12:40Z</time>
      </trkpt>
      <trkpt lat="41.1103090" lon="-4.7663250">
        <ele>816.1</ele>
        <time>2019-08-14T11:12:41Z</time>
      </trkpt>
      <trkpt lat="41.1103550" lon="-4.7663620">
        <ele>816.0</ele>
        <time>2019-08-14T11:12:42Z</time>
      </trkpt>
      <trkpt lat="41.1104020" lon="-4.7663980">
        <ele>815.9</ele>
        <time>2019-08-14T11:12:43Z</time>
      </trkpt>
      <trkpt lat="41.1104470" lon="-4.7664320">
        <ele>815.7</ele>
        <time>2019-08-14T11:12:44Z</time>
      </trkpt>
      <trkpt lat="41.1104920" lon="-4.7664650">
        <ele>815.6</ele>
        <time>2019-08-14T11:12:45Z</time>
      </trkpt>
      <trkpt lat="41.1105360" lon="-4.7664990">
        <ele>815.5</ele>
        <time>2019-08-14T11:12:46Z</time>
      </trkpt>
      <trkpt lat="41.1105800" lon="-4.7665320">
        <ele>815.4</ele>
        <time>2019-08-14T11:12:47Z</time>
      </trkpt>
      <trkpt lat="41.1106250" lon="-4.7665670">
        <ele>815.4</ele>
        <time>2019-08-14T11:12:48Z</time>
      </trkpt>
      <trkpt lat="41.1106690" lon="-4.7666000">
        <ele>815.3</ele>
        <time>2019-08-14T11:12:49Z</time>
      </trkpt>
      <trkpt lat="41.1107130" lon="-4.7666330">
        <ele>815.3</ele>
        <time>2019-08-14T11:12:50Z</time>
      </trkpt>
      <trkpt lat="41.1107550" lon="-4.7666650">
        <ele>815.2</ele>
        <time>2019-08-14T11:12:51Z</time>
      </trkpt>
      <trkpt lat="41.1107960" lon="-4.7666990">
        <ele>815.2</ele>
        <time>2019-08-14T11:12:52Z</time>
      </trkpt>
      <trkpt lat="41.1108360" lon="-4.7667310">
        <ele>815.2</ele>
        <time>2019-08-14T11:12:53Z</time>
      </trkpt>
      <trkpt lat="41.1108780" lon="-4.7667600">
        <ele>815.1</ele>
        <time>2019-08-14T11:12:54Z</time>
      </trkpt>
      <trkpt lat="41.1109190" lon="-4.7667890">
        <ele>815.1</ele>
        <time>2019-08-14T11:12:55Z</time>
      </trkpt>
      <trkpt lat="41.1109590" lon="-4.7668190">
        <ele>815.1</ele>
        <time>2019-08-14T11:12:56Z</time>
      </trkpt>
      <trkpt lat="41.1110000" lon="-4.7668520">
        <ele>815.0</ele>
        <time>2019-08-14T11:12:57Z</time>
      </trkpt>
      <trkpt lat="41.1110410" lon="-4.7668860">
        <ele>815.0</ele>
        <time>2019-08-14T11:12:58Z</time>
      </trkpt>
      <trkpt lat="41.1110810" lon="-4.7669210">
        <ele>815.0</ele>
        <time>2019-08-14T11:12:59Z</time>
      </trkpt>
      <trkpt lat="41.1111220" lon="-4.7669550">
        <ele>814.9</ele>
        <time>2019-08-14T11:13:00Z</time>
      </trkpt>
      <trkpt lat="41.1111640" lon="-4.7669870">
        <ele>814.9</ele>
        <time>2019-08-14T11:13:01Z</time>
      </trkpt>
      <trkpt lat="41.1112060" lon="-4.7670160">
        <ele>814.8</ele>
        <time>2019-08-14T11:13:02Z</time>
      </trkpt>
      <trkpt lat="41.1112480" lon="-4.7670480">
        <ele>814.8</ele>
        <time>2019-08-14T11:13:03Z</time>
      </trkpt>
      <trkpt lat="41.1112890" lon="-4.7670790">
        <ele>814.7</ele>
        <time>2019-08-14T11:13:04Z</time>
      </trkpt>
      <trkpt lat="41.1113300" lon="-4.7671140">
        <ele>814.7</ele>
        <time>2019-08-14T11:13:05Z</time>
      </trkpt>
      <trkpt lat="41.1113700" lon="-4.7671490">
        <ele>814.6</ele>
        <time>2019-08-14T11:13:06Z</time>
      </trkpt>
      <trkpt lat="41.1114070" lon="-4.7671820">
        <ele>814.6</ele>
        <time>2019-08-14T11:13:07Z</time>
      </trkpt>
      <trkpt lat="41.1114430" lon="-4.7672120">
        <ele>814.6</ele>
        <time>2019-08-14T11:13:08Z</time>
      </trkpt>
      <trkpt lat="41.1114780" lon="-4.7672420">
        <ele>814.5</ele>
        <time>2019-08-14T11:13:09Z</time>
      </trkpt>
      <trkpt lat="41.1115130" lon="-4.7672730">
        <ele>814.5</ele>
        <time>2019-08-14T11:13:10Z</time>
      </trkpt>
      <trkpt lat="41.1115470" lon="-4.7673030">
        <ele>814.5</ele>
        <time>2019-08-14T11:13:11Z</time>
      </trkpt>
      <trkpt lat="41.1115800" lon="-4.7673350">
        <ele>814.5</ele>
        <time>2019-08-14T11:13:12Z</time>
      </trkpt>
      <trkpt lat="41.1116140" lon="-4.7673650">
        <ele>814.5</ele>
        <time>2019-08-14T11:13:13Z</time>
      </trkpt>
      <trkpt lat="41.1116480" lon="-4.7673930">
        <ele>814.5</ele>
        <time>2019-08-14T11:13:14Z</time>
      </trkpt>
      <trkpt lat="41.1116820" lon="-4.7674220">
        <ele>814.6</ele>
        <time>2019-08-14T11:13:15Z</time>
      </trkpt>
      <trkpt lat="41.1117150" lon="-4.7674510">
        <ele>814.6</ele>
        <time>2019-08-14T11:13:16Z</time>
      </trkpt>
      <trkpt lat="41.1117470" lon="-4.7674790">
        <ele>814.6</ele>
        <time>2019-08-14T11:13:17Z</time>
      </trkpt>
      <trkpt lat="41.1117790" lon="-4.7675090">
        <ele>814.7</ele>
        <time>2019-08-14T11:13:18Z</time>
      </trkpt>
      <trkpt lat="41.1118110" lon="-4.7675400">
        <ele>814.8</ele>
        <time>2019-08-14T11:13:19Z</time>
      </trkpt>
      <trkpt lat="41.1118430" lon="-4.7675690">
        <ele>814.8</ele>
        <time>2019-08-14T11:13:20Z</time>
      </trkpt>
      <trkpt lat="41.1118750" lon="-4.7675980">
        <ele>814.9</ele>
        <time>2019-08-14T11:13:21Z</time>
      </trkpt>
      <trkpt lat="41.1119060" lon="-4.7676260">
        <ele>815.0</ele>
        <time>2019-08-14T11:13:22Z</time>
      </trkpt>
      <trkpt lat="41.1119370" lon="-4.7676530">
        <ele>815.1</ele>
        <time>2019-08-14T11:13:23Z</time>
      </trkpt>
      <trkpt lat="41.1119660" lon="-4.7676790">
        <ele>815.1</ele>
        <time>2019-08-14T11:13:24Z</time>
      </trkpt>
      <trkpt lat="41.1119940" lon="-4.7677060">
        <ele>815.2</ele>
        <time>2019-08-14T11:13:25Z</time>
      </trkpt>
      <trkpt lat="41.1120230" lon="-4.7677320">
        <ele>815.3</ele>
        <time>2019-08-14T11:13:26Z</time>
      </trkpt>
      <trkpt lat="41.1120510" lon="-4.7677570">
        <ele>815.4</ele>
        <time>2019-08-14T11:13:27Z</time>
      </trkpt>
      <trkpt lat="41.1120790" lon="-4.7677830">
        <ele>815.5</ele>
        <time>2019-08-14T11:13:28Z</time>
      </trkpt>
      <trkpt lat="41.1121070" lon="-4.7678090">
        <ele>815.6</ele>
        <time>2019-08-14T11:13:29Z</time>
      </trkpt>
      <trkpt lat="41.1121340" lon="-4.7678350">
        <ele>815.7</ele>
        <time>2019-08-14T11:13:30Z</time>
      </trkpt>
      <trkpt lat="41.1121630" lon="-4.7678610">
        <ele>815.8</ele>
        <time>2019-08-14T11:13:31Z</time>
      </trkpt>
      <trkpt lat="41.1121930" lon="-4.7678870">
        <ele>815.9</ele>
        <time>2019-08-14T11:13:32Z</time>
      </trkpt>
      <trkpt lat="41.1122230" lon="-4.7679130">
        <ele>816.0</ele>
        <time>2019-08-14T11:13:33Z</time>
      </trkpt>
      <trkpt lat="41.1122540" lon="-4.7679380">
        <ele>816.1</ele>
        <time>2019-08-14T11:13:34Z</time>
      </trkpt>
      <trkpt lat="41.1122830" lon="-4.7679640">
        <ele>816.2</ele>
        <time>2019-08-14T11:13:35Z</time>
      </trkpt>
      <trkpt lat="41.1123120" lon="-4.7679920">
        <ele>816.3</ele>
        <time>2019-08-14T11:13:36Z</time>
      </trkpt>
      <trkpt lat="41.1123410" lon="-4.7680210">
        <ele>816.4</ele>
        <time>2019-08-14T11:13:37Z</time>
      </trkpt>
      <trkpt lat="41.1123710" lon="-4.7680480">
        <ele>816.5</ele>
        <time>2019-08-14T11:13:38Z</time>
      </trkpt>
      <trkpt lat="41.1124020" lon="-4.7680740">
        <ele>816.6</ele>
        <time>2019-08-14T11:13:39Z</time>
      </trkpt>
      <trkpt lat="41.1124330" lon="-4.7681010">
        <ele>816.7</ele>
        <time>2019-08-14T11:13:40Z</time>
      </trkpt>
      <trkpt lat="41.1124650" lon="-4.7681280">
        <ele>816.8</ele>
        <time>2019-08-14T11:13:41Z</time>
      </trkpt>
      <trkpt lat="41.1124960" lon="-4.7681550">
        <ele>816.9</ele>
        <time>2019-08-14T11:13:42Z</time>
      </trkpt>
      <trkpt lat="41.1125270" lon="-4.7681820">
        <ele>817.0</ele>
        <time>2019-08-14T11:13:43Z</time>
      </trkpt>
      <trkpt lat="41.1125590" lon="-4.7682100">
        <ele>817.1</ele>
        <time>2019-08-14T11:13:44Z</time>
      </trkpt>
      <trkpt lat="41.1125900" lon="-4.7682370">
        <ele>817.1</ele>
        <time>2019-08-14T11:13:45Z</time>
      </trkpt>
      <trkpt lat="41.1126200" lon="-4.7682640">
        <ele>817.2</ele>
        <time>2019-08-14T11:13:46Z</time>
      </trkpt>
      <trkpt lat="41.1126490" lon="-4.7682910">
        <ele>817.2</ele>
        <time>2019-08-14T11:13:47Z</time>
      </trkpt>
      <trkpt lat="41.1126810" lon="-4.7683200">
        <ele>817.3</ele>
        <time>2019-08-14T11:13:48Z</time>
      </trkpt>
      <trkpt lat="41.1127130" lon="-4.7683480">
        <ele>817.3</ele>
        <time>2019-08-14T11:13:49Z</time>
      </trkpt>
      <trkpt lat="41.1127450" lon="-4.7683780">
        <ele>817.3</ele>
        <time>2019-08-14T11:13:50Z</time>
      </trkpt>
      <trkpt lat="41.1127770" lon="-4.7684090">
        <ele>817.3</ele>
        <time>2019-08-14T11:13:51Z</time>
      </trkpt>
      <trkpt lat="41.1128110" lon="-4.7684400">
        <ele>817.3</ele>
        <time>2019-08-14T11:13:52Z</time>
      </trkpt>
      <trkpt lat="41.1128470" lon="-4.7684720">
        <ele>817.3</ele>
        <time>2019-08-14T11:13:53Z</time>
      </trkpt>
      <trkpt lat="41.1128850" lon="-4.7685060">
        <ele>817.2</ele>
        <time>2019-08-14T11:13:54Z</time>
      </trkpt>
      <trkpt lat="41.1129220" lon="-4.7685400">
        <ele>817.2</ele>
        <time>2019-08-14T11:13:55Z</time>
      </trkpt>
      <trkpt lat="41.1129580" lon="-4.7685750">
        <ele>817.1</ele>
        <time>2019-08-14T11:13:56Z</time>
      </trkpt>
      <trkpt lat="41.1129950" lon="-4.7686080">
        <ele>817.0</ele>
        <time>2019-08-14T11:13:57Z</time>
      </trkpt>
      <trkpt lat="41.1130310" lon="-4.7686410">
        <ele>816.9</ele>
        <time>2019-08-14T11:13:58Z</time>
      </trkpt>
      <trkpt lat="41.1130650" lon="-4.7686750">
        <ele>816.8</ele>
        <time>2019-08-14T11:13:59Z</time>
      </trkpt>
      <trkpt lat="41.1131000" lon="-4.7687070">
        <ele>816.7</ele>
        <time>2019-08-14T11:14:00Z</time>
      </trkpt>
      <trkpt lat="41.1131340" lon="-4.7687360">
        <ele>816.6</ele>
        <time>2019-08-14T11:14:01Z</time>
      </trkpt>
      <trkpt lat="41.1131690" lon="-4.7687660">
        <ele>816.6</ele>
        <time>2019-08-14T11:14:02Z</time>
      </trkpt>
      <trkpt lat="41.1132050" lon="-4.7688020">
        <ele>816.6</ele>
        <time>2019-08-14T11:14:03Z</time>
      </trkpt>
      <trkpt lat="41.1132410" lon="-4.7688390">
        <ele>816.6</ele>
        <time>2019-08-14T11:14:04Z</time>
      </trkpt>
      <trkpt lat="41.1132790" lon="-4.7688740">
        <ele>816.6</ele>
        <time>2019-08-14T11:14:05Z</time>
      </trkpt>
      <trkpt lat="41.1133180" lon="-4.7689080">
        <ele>816.6</ele>
        <time>2019-08-14T11:14:06Z</time>
      </trkpt>
      <trkpt lat="41.1133570" lon="-4.7689440">
        <ele>816.6</ele>
        <time>2019-08-14T11:14:07Z</time>
      </trkpt>
      <trkpt lat="41.1133990" lon="-4.7689800">
        <ele>816.6</ele>
        <time>2019-08-14T11:14:08Z</time>
      </trkpt>
      <trkpt lat="41.1134410" lon="-4.7690160">
        <ele>816.6</ele>
        <time>2019-08-14T11:14:09Z</time>
      </trkpt>
      <trkpt lat="41.1134850" lon="-4.7690540">
        <ele>816.6</ele>
        <time>2019-08-14T11:14:10Z</time>
      </trkpt>
      <trkpt lat="41.1135290" lon="-4.7690930">
        <ele>816.6</ele>
        <time>2019-08-14T11:14:11Z</time>
      </trkpt>
      <trkpt lat="41.1135740" lon="-4.7691320">
        <ele>816.6</ele>
        <time>2019-08-14T11:14:12Z</time>
      </trkpt>
      <trkpt lat="41.1136190" lon="-4.7691710">
        <ele>816.6</ele>
        <time>2019-08-14T11:14:13Z</time>
      </trkpt>
      <trkpt lat="41.1136650" lon="-4.7692120">
        <ele>816.6</ele>
        <time>2019-08-14T11:14:14Z</time>
      </trkpt>
      <trkpt lat="41.1137090" lon="-4.7692530">
        <ele>816.5</ele>
        <time>2019-08-14T11:14:15Z</time>
      </trkpt>
      <trkpt lat="41.1137530" lon="-4.7692910">
        <ele>816.5</ele>
        <time>2019-08-14T11:14:16Z</time>
      </trkpt>
      <trkpt lat="41.1137930" lon="-4.7693280">
        <ele>816.4</ele>
        <time>2019-08-14T11:14:17Z</time>
      </trkpt>
      <trkpt lat="41.1138330" lon="-4.7693660">
        <ele>816.3</ele>
        <time>2019-08-14T11:14:18Z</time>
      </trkpt>
      <trkpt lat="41.1138730" lon="-4.7694050">
        <ele>816.1</ele>
        <time>2019-08-14T11:14:19Z</time>
      </trkpt>
      <trkpt lat="41.1139150" lon="-4.7694430">
        <ele>815.9</ele>
        <time>2019-08-14T11:14:20Z</time>
      </trkpt>
      <trkpt lat="41.1139600" lon="-4.7694810">
        <ele>815.8</ele>
        <time>2019-08-14T11:14:21Z</time>
      </trkpt>
      <trkpt lat="41.1140040" lon="-4.7695180">
        <ele>815.7</ele>
        <time>2019-08-14T11:14:22Z</time>
      </trkpt>
      <trkpt lat="41.1140500" lon="-4.7695580">
        <ele>815.6</ele>
        <time>2019-08-14T11:14:23Z</time>
      </trkpt>
      <trkpt lat="41.1140960" lon="-4.7695980">
        <ele>815.6</ele>
        <time>2019-08-14T11:14:24Z</time>
      </trkpt>
      <trkpt lat="41.1141410" lon="-4.7696390">
        <ele>815.6</ele>
        <time>2019-08-14T11:14:25Z</time>
      </trkpt>
      <trkpt lat="41.1141870" lon="-4.7696800">
        <ele>815.6</ele>
        <time>2019-08-14T11:14:26Z</time>
      </trkpt>
      <trkpt lat="41.1142320" lon="-4.7697200">
        <ele>815.6</ele>
        <time>2019-08-14T11:14:27Z</time>
      </trkpt>
      <trkpt lat="41.1142760" lon="-4.7697600">
        <ele>815.6</ele>
        <time>2019-08-14T11:14:28Z</time>
      </trkpt>
      <trkpt lat="41.1143190" lon="-4.7698010">
        <ele>815.6</ele>
        <time>2019-08-14T11:14:29Z</time>
      </trkpt>
      <trkpt lat="41.1143630" lon="-4.7698390">
        <ele>815.6</ele>
        <time>2019-08-14T11:14:30Z</time>
      </trkpt>
      <trkpt lat="41.1144080" lon="-4.7698780">
        <ele>815.6</ele>
        <time>2019-08-14T11:14:31Z</time>
      </trkpt>
      <trkpt lat="41.1144520" lon="-4.7699160">
        <ele>815.6</ele>
        <time>2019-08-14T11:14:32Z</time>
      </trkpt>
      <trkpt lat="41.1144940" lon="-4.7699540">
        <ele>815.5</ele>
        <time>2019-08-14T11:14:33Z</time>
      </trkpt>
      <trkpt lat="41.1145340" lon="-4.7699910">
        <ele>815.5</ele>
        <time>2019-08-14T11:14:34Z</time>
      </trkpt>
      <trkpt lat="41.1145730" lon="-4.7700260">
        <ele>815.5</ele>
        <time>2019-08-14T11:14:35Z</time>
      </trkpt>
      <trkpt lat="41.1146110" lon="-4.7700590">
        <ele>815.4</ele>
        <time>2019-08-14T11:14:36Z</time>
      </trkpt>
      <trkpt lat="41.1146490" lon="-4.7700910">
        <ele>815.3</ele>
        <time>2019-08-14T11:14:37Z</time>
      </trkpt>
      <trkpt lat="41.1146850" lon="-4.7701250">
        <ele>815.2</ele>
        <time>2019-08-14T11:14:38Z</time>
      </trkpt>
      <trkpt lat="41.1147250" lon="-4.7701610">
        <ele>815.0</ele>
        <time>2019-08-14T11:14:39Z</time>
      </trkpt>
      <trkpt lat="41.1147650" lon="-4.7701970">
        <ele>814.9</ele>
        <time>2019-08-14T11:14:40Z</time>
      </trkpt>
      <trkpt lat="41.1148080" lon="-4.7702330">
        <ele>814.8</ele>
        <time>2019-08-14T11:14:41Z</time>
      </trkpt>
      <trkpt lat="41.1148500" lon="-4.7702700">
        <ele>814.8</ele>
        <time>2019-08-14T11:14:42Z</time>
      </trkpt>
      <trkpt lat="41.1148930" lon="-4.7703070">
        <ele>814.8</ele>
        <time>2019-08-14T11:14:43Z</time>
      </trkpt>
      <trkpt lat="41.1149360" lon="-4.7703440">
        <ele>814.9</ele>
        <time>2019-08-14T11:14:44Z</time>
      </trkpt>
      <trkpt lat="41.1149790" lon="-4.7703830">
        <ele>815.0</ele>
        <time>2019-08-14T11:14:45Z</time>
      </trkpt>
      <trkpt lat="41.1150210" lon="-4.7704200">
        <ele>815.2</ele>
        <time>2019-08-14T11:14:46Z</time>
      </trkpt>
      <trkpt lat="41.1150620" lon="-4.7704560">
        <ele>815.3</ele>
        <time>2019-08-14T11:14:47Z</time>
      </trkpt>
      <trkpt lat="41.1151020" lon="-4.7704920">
        <ele>815.4</ele>
        <time>2019-08-14T11:14:48Z</time>
      </trkpt>
      <trkpt lat="41.1151430" lon="-4.7705300">
        <ele>815.5</ele>
        <time>2019-08-14T11:14:49Z</time>
      </trkpt>
      <trkpt lat="41.1151840" lon="-4.7705700">
        <ele>815.6</ele>
        <time>2019-08-14T11:14:50Z</time>
      </trkpt>
      <trkpt lat="41.1152260" lon="-4.7706090">
        <ele>815.7</ele>
        <time>2019-08-14T11:14:51Z</time>
      </trkpt>
      <trkpt lat="41.1152690" lon="-4.7706490">
        <ele>815.8</ele>
        <time>2019-08-14T11:14:52Z</time>
      </trkpt>
      <trkpt lat="41.1153120" lon="-4.7706890">
        <ele>815.9</ele>
        <time>2019-08-14T11:14:53Z</time>
      </trkpt>
      <trkpt lat="41.1153540" lon="-4.7707290">
        <ele>816.1</ele>
        <time>2019-08-14T11:14:54Z</time>
      </trkpt>
      <trkpt lat="41.1153950" lon="-4.7707690">
        <ele>816.3</ele>
        <time>2019-08-14T11:14:55Z</time>
      </trkpt>
      <trkpt lat="41.1154360" lon="-4.7708080">
        <ele>816.4</ele>
        <time>2019-08-14T11:14:56Z</time>
      </trkpt>
      <trkpt lat="41.1154750" lon="-4.7708470">
        <ele>816.5</ele>
        <time>2019-08-14T11:14:57Z</time>
      </trkpt>
      <trkpt lat="41.1155140" lon="-4.7708840">
        <ele>816.5</ele>
        <time>2019-08-14T11:14:58Z</time>
      </trkpt>
      <trkpt lat="41.1155520" lon="-4.7709210">
        <ele>816.5</ele>
        <time>2019-08-14T11:14:59Z</time>
      </trkpt>
      <trkpt lat="41.1155920" lon="-4.7709540">
        <ele>816.5</ele>
        <time>2019-08-14T11:15:00Z</time>
      </trkpt>
      <trkpt lat="41.1156340" lon="-4.7709850">
        <ele>816.5</ele>
        <time>2019-08-14T11:15:01Z</time>
      </trkpt>
      <trkpt lat="41.1156770" lon="-4.7710180">
        <ele>816.5</ele>
        <time>2019-08-14T11:15:02Z</time>
      </trkpt>
      <trkpt lat="41.1157180" lon="-4.7710540">
        <ele>816.5</ele>
        <time>2019-08-14T11:15:03Z</time>
      </trkpt>
      <trkpt lat="41.1157600" lon="-4.7710900">
        <ele>816.5</ele>
        <time>2019-08-14T11:15:04Z</time>
      </trkpt>
      <trkpt lat="41.1158020" lon="-4.7711270">
        <ele>816.5</ele>
        <time>2019-08-14T11:15:05Z</time>
      </trkpt>
      <trkpt lat="41.1158420" lon="-4.7711640">
        <ele>816.5</ele>
        <time>2019-08-14T11:15:06Z</time>
      </trkpt>
      <trkpt lat="41.1158830" lon="-4.7712010">
        <ele>816.5</ele>
        <time>2019-08-14T11:15:07Z</time>
      </trkpt>
      <trkpt lat="41.1159250" lon="-4.7712370">
        <ele>816.5</ele>
        <time>2019-08-14T11:15:08Z</time>
      </trkpt>
      <trkpt lat="41.1159670" lon="-4.7712730">
        <ele>816.5</ele>
        <time>2019-08-14T11:15:09Z</time>
      </trkpt>
      <trkpt lat="41.1160090" lon="-4.7713110">
        <ele>816.5</ele>
        <time>2019-08-14T11:15:10Z</time>
      </trkpt>
      <trkpt lat="41.1160530" lon="-4.7713490">
        <ele>816.4</ele>
        <time>2019-08-14T11:15:11Z</time>
      </trkpt>
      <trkpt lat="41.1160990" lon="-4.7713890">
        <ele>816.4</ele>
        <time>2019-08-14T11:15:12Z</time>
      </trkpt>
      <trkpt lat="41.1161440" lon="-4.7714290">
        <ele>816.3</ele>
        <time>2019-08-14T11:15:13Z</time>
      </trkpt>
      <trkpt lat="41.1161900" lon="-4.7714700">
        <ele>816.1</ele>
        <time>2019-08-14T11:15:14Z</time>
      </trkpt>
      <trkpt lat="41.1162360" lon="-4.7715120">
        <ele>816.0</ele>
        <time>2019-08-14T11:15:15Z</time>
      </trkpt>
      <trkpt lat="41.1162830" lon="-4.7715540">
        <ele>815.8</ele>
        <time>2019-08-14T11:15:16Z</time>
      </trkpt>
      <trkpt lat="41.1163280" lon="-4.7715950">
        <ele>815.7</ele>
        <time>2019-08-14T11:15:17Z</time>
      </trkpt>
      <trkpt lat="41.1163730" lon="-4.7716330">
        <ele>815.6</ele>
        <time>2019-08-14T11:15:18Z</time>
      </trkpt>
      <trkpt lat="41.1164160" lon="-4.7716720">
        <ele>815.5</ele>
        <time>2019-08-14T11:15:19Z</time>
      </trkpt>
      <trkpt lat="41.1164600" lon="-4.7717120">
        <ele>815.5</ele>
        <time>2019-08-14T11:15:20Z</time>
      </trkpt>
      <trkpt lat="41.1165060" lon="-4.7717520">
        <ele>815.5</ele>
        <time>2019-08-14T11:15:21Z</time>
      </trkpt>
      <trkpt lat="41.1165520" lon="-4.7717920">
        <ele>815.5</ele>
        <time>2019-08-14T11:15:22Z</time>
      </trkpt>
      <trkpt lat="41.1165980" lon="-4.7718330">
        <ele>815.5</ele>
        <time>2019-08-14T11:15:23Z</time>
      </trkpt>
      <trkpt lat="41.1166440" lon="-4.7718750">
        <ele>815.5</ele>
        <time>2019-08-14T11:15:24Z</time>
      </trkpt>
      <trkpt lat="41.1166910" lon="-4.7719170">
        <ele>815.5</ele>
        <time>2019-08-14T11:15:25Z</time>
      </trkpt>
      <trkpt lat="41.1167360" lon="-4.7719610">
        <ele>815.5</ele>
        <time>2019-08-14T11:15:26Z</time>
      </trkpt>
      <trkpt lat="41.1167810" lon="-4.7720010">
        <ele>815.5</ele>
        <time>2019-08-14T11:15:27Z</time>
      </trkpt>
      <trkpt lat="41.1168240" lon="-4.7720400">
        <ele>815.5</ele>
        <time>2019-08-14T11:15:28Z</time>
      </trkpt>
      <trkpt lat="41.1168680" lon="-4.7720770">
        <ele>815.5</ele>
        <time>2019-08-14T11:15:29Z</time>
      </trkpt>
      <trkpt lat="41.1169120" lon="-4.7721160">
        <ele>815.5</ele>
        <time>2019-08-14T11:15:30Z</time>
      </trkpt>
      <trkpt lat="41.1169570" lon="-4.7721570">
        <ele>815.5</ele>
        <time>2019-08-14T11:15:31Z</time>
      </trkpt>
      <trkpt lat="41.1170030" lon="-4.7721960">
        <ele>815.5</ele>
        <time>2019-08-14T11:15:32Z</time>
      </trkpt>
      <trkpt lat="41.1170480" lon="-4.7722360">
        <ele>815.5</ele>
        <time>2019-08-14T11:15:33Z</time>
      </trkpt>
      <trkpt lat="41.1170930" lon="-4.7722750">
        <ele>815.5</ele>
        <time>2019-08-14T11:15:34Z</time>
      </trkpt>
      <trkpt lat="41.1171360" lon="-4.7723140">
        <ele>815.5</ele>
        <time>2019-08-14T11:15:35Z</time>
      </trkpt>
      <trkpt lat="41.1171780" lon="-4.7723540">
        <ele>815.5</ele>
        <time>2019-08-14T11:15:36Z</time>
      </trkpt>
      <trkpt lat="41.1172200" lon="-4.7723930">
        <ele>815.5</ele>
        <time>2019-08-14T11:15:37Z</time>
      </trkpt>
      <trkpt lat="41.1172630" lon="-4.7724310">
        <ele>815.5</ele>
        <time>2019-08-14T11:15:38Z</time>
      </trkpt>
      <trkpt lat="41.1173070" lon="-4.7724700">
        <ele>815.5</ele>
        <time>2019-08-14T11:15:39Z</time>
      </trkpt>
      <trkpt lat="41.1173520" lon="-4.7725090">
        <ele>815.5</ele>
        <time>2019-08-14T11:15:40Z</time>
      </trkpt>
      <trkpt lat="41.1173980" lon="-4.7725480">
        <ele>815.5</ele>
        <time>2019-08-14T11:15:41Z</time>
      </trkpt>
      <trkpt lat="41.1174420" lon="-4.7725880">
        <ele>815.5</ele>
        <time>2019-08-14T11:15:42Z</time>
      </trkpt>
      <trkpt lat="41.1174850" lon="-4.7726260">
        <ele>815.5</ele>
        <time>2019-08-14T11:15:43Z</time>
      </trkpt>
      <trkpt lat="41.1175270" lon="-4.7726620">
        <ele>815.5</ele>
        <time>2019-08-14T11:15:44Z</time>
      </trkpt>
      <trkpt lat="41.1175670" lon="-4.7726980">
        <ele>815.5</ele>
        <time>2019-08-14T11:15:45Z</time>
      </trkpt>
      <trkpt lat="41.1176050" lon="-4.7727330">
        <ele>815.5</ele>
        <time>2019-08-14T11:15:46Z</time>
      </trkpt>
      <trkpt lat="41.1176440" lon="-4.7727700">
        <ele>815.5</ele>
        <time>2019-08-14T11:15:47Z</time>
      </trkpt>
      <trkpt lat="41.1176860" lon="-4.7728060">
        <ele>815.5</ele>
        <time>2019-08-14T11:15:48Z</time>
      </trkpt>
      <trkpt lat="41.1177290" lon="-4.7728440">
        <ele>815.5</ele>
        <time>2019-08-14T11:15:49Z</time>
      </trkpt>
      <trkpt lat="41.1177730" lon="-4.7728830">
        <ele>815.5</ele>
        <time>2019-08-14T11:15:50Z</time>
      </trkpt>
      <trkpt lat="41.1178160" lon="-4.7729220">
        <ele>815.5</ele>
        <time>2019-08-14T11:15:51Z</time>
      </trkpt>
      <trkpt lat="41.1178580" lon="-4.7729610">
        <ele>815.5</ele>
        <time>2019-08-14T11:15:52Z</time>
      </trkpt>
      <trkpt lat="41.1178990" lon="-4.7729980">
        <ele>815.5</ele>
        <time>2019-08-14T11:15:53Z</time>
      </trkpt>
      <trkpt lat="41.1179370" lon="-4.7730360">
        <ele>815.5</ele>
        <time>2019-08-14T11:15:54Z</time>
      </trkpt>
      <trkpt lat="41.1179770" lon="-4.7730740">
        <ele>815.5</ele>
        <time>2019-08-14T11:15:55Z</time>
      </trkpt>
      <trkpt lat="41.1180170" lon="-4.7731100">
        <ele>815.4</ele>
        <time>2019-08-14T11:15:56Z</time>
      </trkpt>
      <trkpt lat="41.1180590" lon="-4.7731480">
        <ele>815.4</ele>
        <time>2019-08-14T11:15:57Z</time>
      </trkpt>
      <trkpt lat="41.1181010" lon="-4.7731860">
        <ele>815.2</ele>
        <time>2019-08-14T11:15:58Z</time>
      </trkpt>
      <trkpt lat="41.1181430" lon="-4.7732230">
        <ele>815.1</ele>
        <time>2019-08-14T11:15:59Z</time>
      </trkpt>
      <trkpt lat="41.1181840" lon="-4.7732600">
        <ele>814.9</ele>
        <time>2019-08-14T11:16:00Z</time>
      </trkpt>
      <trkpt lat="41.1182250" lon="-4.7732970">
        <ele>814.7</ele>
        <time>2019-08-14T11:16:01Z</time>
      </trkpt>
      <trkpt lat="41.1182640" lon="-4.7733310">
        <ele>814.5</ele>
        <time>2019-08-14T11:16:02Z</time>
      </trkpt>
      <trkpt lat="41.1183030" lon="-4.7733640">
        <ele>814.4</ele>
        <time>2019-08-14T11:16:03Z</time>
      </trkpt>
      <trkpt lat="41.1183400" lon="-4.7733970">
        <ele>814.2</ele>
        <time>2019-08-14T11:16:04Z</time>
      </trkpt>
      <trkpt lat="41.1183770" lon="-4.7734300">
        <ele>814.0</ele>
        <time>2019-08-14T11:16:05Z</time>
      </trkpt>
      <trkpt lat="41.1184130" lon="-4.7734620">
        <ele>813.8</ele>
        <time>2019-08-14T11:16:06Z</time>
      </trkpt>
      <trkpt lat="41.1184490" lon="-4.7734940">
        <ele>813.7</ele>
        <time>2019-08-14T11:16:07Z</time>
      </trkpt>
      <trkpt lat="41.1184850" lon="-4.7735270">
        <ele>813.6</ele>
        <time>2019-08-14T11:16:08Z</time>
      </trkpt>
      <trkpt lat="41.1185200" lon="-4.7735600">
        <ele>813.5</ele>
        <time>2019-08-14T11:16:09Z</time>
      </trkpt>
      <trkpt lat="41.1185550" lon="-4.7735930">
        <ele>813.5</ele>
        <time>2019-08-14T11:16:10Z</time>
      </trkpt>
      <trkpt lat="41.1185880" lon="-4.7736250">
        <ele>813.5</ele>
        <time>2019-08-14T11:16:11Z</time>
      </trkpt>
      <trkpt lat="41.1186230" lon="-4.7736560">
        <ele>813.5</ele>
        <time>2019-08-14T11:16:12Z</time>
      </trkpt>
      <trkpt lat="41.1186570" lon="-4.7736850">
        <ele>813.5</ele>
        <time>2019-08-14T11:16:13Z</time>
      </trkpt>
      <trkpt lat="41.1186920" lon="-4.7737130">
        <ele>813.5</ele>
        <time>2019-08-14T11:16:14Z</time>
      </trkpt>
      <trkpt lat="41.1187250" lon="-4.7737410">
        <ele>813.5</ele>
        <time>2019-08-14T11:16:15Z</time>
      </trkpt>
      <trkpt lat="41.1187560" lon="-4.7737700">
        <ele>813.5</ele>
        <time>2019-08-14T11:16:16Z</time>
      </trkpt>
      <trkpt lat="41.1187850" lon="-4.7737980">
        <ele>813.5</ele>
        <time>2019-08-14T11:16:17Z</time>
      </trkpt>
      <trkpt lat="41.1188100" lon="-4.7738210">
        <ele>813.5</ele>
        <time>2019-08-14T11:16:18Z</time>
      </trkpt>
      <trkpt lat="41.1188410" lon="-4.7738530">
        <ele>813.5</ele>
        <time>2019-08-14T11:16:20Z</time>
      </trkpt>
      <trkpt lat="41.1189000" lon="-4.7738830">
        <ele>813.5</ele>
        <time>2019-08-14T11:17:29Z</time>
      </trkpt>
      <trkpt lat="41.1189490" lon="-4.7739250">
        <ele>813.5</ele>
        <time>2019-08-14T11:17:31Z</time>
      </trkpt>
      <trkpt lat="41.1189750" lon="-4.7739480">
        <ele>813.4</ele>
        <time>2019-08-14T11:17:32Z</time>
      </trkpt>
      <trkpt lat="41.1190010" lon="-4.7739710">
        <ele>813.4</ele>
        <time>2019-08-14T11:17:33Z</time>
      </trkpt>
      <trkpt lat="41.1190280" lon="-4.7739940">
        <ele>813.4</ele>
        <time>2019-08-14T11:17:34Z</time>
      </trkpt>
      <trkpt lat="41.1190580" lon="-4.7740180">
        <ele>813.4</ele>
        <time>2019-08-14T11:17:35Z</time>
      </trkpt>
      <trkpt lat="41.1190900" lon="-4.7740440">
        <ele>813.4</ele>
        <time>2019-08-14T11:17:36Z</time>
      </trkpt>
      <trkpt lat="41.1191230" lon="-4.7740760">
        <ele>813.3</ele>
        <time>2019-08-14T11:17:37Z</time>
      </trkpt>
      <trkpt lat="41.1191590" lon="-4.7741090">
        <ele>813.2</ele>
        <time>2019-08-14T11:17:38Z</time>
      </trkpt>
      <trkpt lat="41.1191950" lon="-4.7741420">
        <ele>813.1</ele>
        <time>2019-08-14T11:17:39Z</time>
      </trkpt>
      <trkpt lat="41.1192340" lon="-4.7741740">
        <ele>813.0</ele>
        <time>2019-08-14T11:17:40Z</time>
      </trkpt>
      <trkpt lat="41.1192750" lon="-4.7742030">
        <ele>813.0</ele>
        <time>2019-08-14T11:17:41Z</time>
      </trkpt>
      <trkpt lat="41.1193170" lon="-4.7742300">
        <ele>812.9</ele>
        <time>2019-08-14T11:17:42Z</time>
      </trkpt>
      <trkpt lat="41.1193610" lon="-4.7742590">
        <ele>812.9</ele>
        <time>2019-08-14T11:17:43Z</time>
      </trkpt>
      <trkpt lat="41.1194040" lon="-4.7742890">
        <ele>812.8</ele>
        <time>2019-08-14T11:17:44Z</time>
      </trkpt>
      <trkpt lat="41.1194470" lon="-4.7743190">
        <ele>812.7</ele>
        <time>2019-08-14T11:17:45Z</time>
      </trkpt>
      <trkpt lat="41.1194890" lon="-4.7743520">
        <ele>812.7</ele>
        <time>2019-08-14T11:17:46Z</time>
      </trkpt>
      <trkpt lat="41.1195320" lon="-4.7743870">
        <ele>812.6</ele>
        <time>2019-08-14T11:17:47Z</time>
      </trkpt>
      <trkpt lat="41.1195760" lon="-4.7744240">
        <ele>812.4</ele>
        <time>2019-08-14T11:17:48Z</time>
      </trkpt>
      <trkpt lat="41.1196200" lon="-4.7744630">
        <ele>812.3</ele>
        <time>2019-08-14T11:17:49Z</time>
      </trkpt>
      <trkpt lat="41.1196660" lon="-4.7745030">
        <ele>812.2</ele>
        <time>2019-08-14T11:17:50Z</time>
      </trkpt>
      <trkpt lat="41.1197120" lon="-4.7745430">
        <ele>812.2</ele>
        <time>2019-08-14T11:17:51Z</time>
      </trkpt>
      <trkpt lat="41.1197590" lon="-4.7745810">
        <ele>812.1</ele>
        <time>2019-08-14T11:17:52Z</time>
      </trkpt>
      <trkpt lat="41.1198060" lon="-4.7746210">
        <ele>812.0</ele>
        <time>2019-08-14T11:17:53Z</time>
      </trkpt>
      <trkpt lat="41.1198530" lon="-4.7746620">
        <ele>812.0</ele>
        <time>2019-08-14T11:17:54Z</time>
      </trkpt>
      <trkpt lat="41.1198990" lon="-4.7747050">
        <ele>811.9</ele>
        <time>2019-08-14T11:17:55Z</time>
      </trkpt>
      <trkpt lat="41.1199450" lon="-4.7747470">
        <ele>811.8</ele>
        <time>2019-08-14T11:17:56Z</time>
      </trkpt>
      <trkpt lat="41.1199900" lon="-4.7747920">
        <ele>811.9</ele>
        <time>2019-08-14T11:17:57Z</time>
      </trkpt>
      <trkpt lat="41.1200340" lon="-4.7748390">
        <ele>811.9</ele>
        <time>2019-08-14T11:17:58Z</time>
      </trkpt>
      <trkpt lat="41.1200780" lon="-4.7748860">
        <ele>811.8</ele>
        <time>2019-08-14T11:17:59Z</time>
      </trkpt>
      <trkpt lat="41.1201200" lon="-4.7749340">
        <ele>811.8</ele>
        <time>2019-08-14T11:18:00Z</time>
      </trkpt>
      <trkpt lat="41.1201630" lon="-4.7749850">
        <ele>811.8</ele>
        <time>2019-08-14T11:18:01Z</time>
      </trkpt>
      <trkpt lat="41.1202070" lon="-4.7750380">
        <ele>811.8</ele>
        <time>2019-08-14T11:18:02Z</time>
      </trkpt>
      <trkpt lat="41.1202500" lon="-4.7750930">
        <ele>811.8</ele>
        <time>2019-08-14T11:18:03Z</time>
      </trkpt>
      <trkpt lat="41.1202920" lon="-4.7751460">
        <ele>811.8</ele>
        <time>2019-08-14T11:18:04Z</time>
      </trkpt>
      <trkpt lat="41.1203340" lon="-4.7752000">
        <ele>811.7</ele>
        <time>2019-08-14T11:18:05Z</time>
      </trkpt>
      <trkpt lat="41.1203760" lon="-4.7752540">
        <ele>811.7</ele>
        <time>2019-08-14T11:18:06Z</time>
      </trkpt>
      <trkpt lat="41.1204180" lon="-4.7753080">
        <ele>811.7</ele>
        <time>2019-08-14T11:18:07Z</time>
      </trkpt>
      <trkpt lat="41.1204580" lon="-4.7753610">
        <ele>811.6</ele>
        <time>2019-08-14T11:18:08Z</time>
      </trkpt>
      <trkpt lat="41.1204980" lon="-4.7754130">
        <ele>811.6</ele>
        <time>2019-08-14T11:18:09Z</time>
      </trkpt>
      <trkpt lat="41.1205350" lon="-4.7754680">
        <ele>811.6</ele>
        <time>2019-08-14T11:18:10Z</time>
      </trkpt>
      <trkpt lat="41.1205670" lon="-4.7755250">
        <ele>811.6</ele>
        <time>2019-08-14T11:18:11Z</time>
      </trkpt>
      <trkpt lat="41.1205980" lon="-4.7755820">
        <ele>811.6</ele>
        <time>2019-08-14T11:18:12Z</time>
      </trkpt>
      <trkpt lat="41.1206280" lon="-4.7756390">
        <ele>811.6</ele>
        <time>2019-08-14T11:18:13Z</time>
      </trkpt>
      <trkpt lat="41.1206600" lon="-4.7756950">
        <ele>811.6</ele>
        <time>2019-08-14T11:18:14Z</time>
      </trkpt>
      <trkpt lat="41.1206930" lon="-4.7757490">
        <ele>811.6</ele>
        <time>2019-08-14T11:18:15Z</time>
      </trkpt>
      <trkpt lat="41.1207290" lon="-4.7758000">
        <ele>811.6</ele>
        <time>2019-08-14T11:18:16Z</time>
      </trkpt>
      <trkpt lat="41.1207640" lon="-4.7758530">
        <ele>811.6</ele>
        <time>2019-08-14T11:18:17Z</time>
      </trkpt>
      <trkpt lat="41.1207970" lon="-4.7759040">
        <ele>811.6</ele>
        <time>2019-08-14T11:18:18Z</time>
      </trkpt>
      <trkpt lat="41.1208310" lon="-4.7759540">
        <ele>811.6</ele>
        <time>2019-08-14T11:18:19Z</time>
      </trkpt>
      <trkpt lat="41.1208650" lon="-4.7760000">
        <ele>811.6</ele>
        <time>2019-08-14T11:18:20Z</time>
      </trkpt>
      <trkpt lat="41.1209010" lon="-4.7760440">
        <ele>811.5</ele>
        <time>2019-08-14T11:18:21Z</time>
      </trkpt>
      <trkpt lat="41.1209360" lon="-4.7760900">
        <ele>811.5</ele>
        <time>2019-08-14T11:18:22Z</time>
      </trkpt>
      <trkpt lat="41.1209740" lon="-4.7761350">
        <ele>811.4</ele>
        <time>2019-08-14T11:18:23Z</time>
      </trkpt>
      <trkpt lat="41.1210110" lon="-4.7761790">
        <ele>811.3</ele>
        <time>2019-08-14T11:18:24Z</time>
      </trkpt>
      <trkpt lat="41.1210510" lon="-4.7762220">
        <ele>811.2</ele>
        <time>2019-08-14T11:18:25Z</time>
      </trkpt>
      <trkpt lat="41.1210890" lon="-4.7762630">
        <ele>811.1</ele>
        <time>2019-08-14T11:18:26Z</time>
      </trkpt>
      <trkpt lat="41.1211290" lon="-4.7763040">
        <ele>810.9</ele>
        <time>2019-08-14T11:18:27Z</time>
      </trkpt>
      <trkpt lat="41.1211690" lon="-4.7763440">
        <ele>810.7</ele>
        <time>2019-08-14T11:18:28Z</time>
      </trkpt>
      <trkpt lat="41.1212080" lon="-4.7763840">
        <ele>810.6</ele>
        <time>2019-08-14T11:18:29Z</time>
      </trkpt>
      <trkpt lat="41.1212470" lon="-4.7764260">
        <ele>810.4</ele>
        <time>2019-08-14T11:18:30Z</time>
      </trkpt>
      <trkpt lat="41.1212860" lon="-4.7764690">
        <ele>810.3</ele>
        <time>2019-08-14T11:18:31Z</time>
      </trkpt>
      <trkpt lat="41.1213240" lon="-4.7765140">
        <ele>810.2</ele>
        <time>2019-08-14T11:18:32Z</time>
      </trkpt>
      <trkpt lat="41.1213620" lon="-4.7765580">
        <ele>810.1</ele>
        <time>2019-08-14T11:18:33Z</time>
      </trkpt>
      <trkpt lat="41.1213980" lon="-4.7766050">
        <ele>809.9</ele>
        <time>2019-08-14T11:18:34Z</time>
      </trkpt>
      <trkpt lat="41.1214330" lon="-4.7766500">
        <ele>809.8</ele>
        <time>2019-08-14T11:18:35Z</time>
      </trkpt>
      <trkpt lat="41.1214680" lon="-4.7766940">
        <ele>809.6</ele>
        <time>2019-08-14T11:18:36Z</time>
      </trkpt>
      <trkpt lat="41.1215040" lon="-4.7767380">
        <ele>809.4</ele>
        <time>2019-08-14T11:18:37Z</time>
      </trkpt>
      <trkpt lat="41.1215420" lon="-4.7767820">
        <ele>809.2</ele>
        <time>2019-08-14T11:18:38Z</time>
      </trkpt>
      <trkpt lat="41.1215780" lon="-4.7768250">
        <ele>809.0</ele>
        <time>2019-08-14T11:18:39Z</time>
      </trkpt>
      <trkpt lat="41.1216150" lon="-4.7768670">
        <ele>808.7</ele>
        <time>2019-08-14T11:18:40Z</time>
      </trkpt>
      <trkpt lat="41.1216520" lon="-4.7769100">
        <ele>808.5</ele>
        <time>2019-08-14T11:18:41Z</time>
      </trkpt>
      <trkpt lat="41.1216910" lon="-4.7769500">
        <ele>808.3</ele>
        <time>2019-08-14T11:18:42Z</time>
      </trkpt>
      <trkpt lat="41.1217310" lon="-4.7769890">
        <ele>808.1</ele>
        <time>2019-08-14T11:18:43Z</time>
      </trkpt>
      <trkpt lat="41.1217710" lon="-4.7770300">
        <ele>808.0</ele>
        <time>2019-08-14T11:18:44Z</time>
      </trkpt>
      <trkpt lat="41.1218110" lon="-4.7770690">
        <ele>807.9</ele>
        <time>2019-08-14T11:18:45Z</time>
      </trkpt>
      <trkpt lat="41.1218510" lon="-4.7771080">
        <ele>807.9</ele>
        <time>2019-08-14T11:18:46Z</time>
      </trkpt>
      <trkpt lat="41.1218900" lon="-4.7771480">
        <ele>807.9</ele>
        <time>2019-08-14T11:18:47Z</time>
      </trkpt>
      <trkpt lat="41.1219290" lon="-4.7771900">
        <ele>808.0</ele>
        <time>2019-08-14T11:18:48Z</time>
      </trkpt>
      <trkpt lat="41.1219680" lon="-4.7772330">
        <ele>808.2</ele>
        <time>2019-08-14T11:18:49Z</time>
      </trkpt>
      <trkpt lat="41.1220050" lon="-4.7772760">
        <ele>808.5</ele>
        <time>2019-08-14T11:18:50Z</time>
      </trkpt>
      <trkpt lat="41.1220430" lon="-4.7773190">
        <ele>808.7</ele>
        <time>2019-08-14T11:18:51Z</time>
      </trkpt>
      <trkpt lat="41.1220800" lon="-4.7773590">
        <ele>809.0</ele>
        <time>2019-08-14T11:18:52Z</time>
      </trkpt>
      <trkpt lat="41.1221150" lon="-4.7773980">
        <ele>809.2</ele>
        <time>2019-08-14T11:18:53Z</time>
      </trkpt>
      <trkpt lat="41.1221510" lon="-4.7774360">
        <ele>809.4</ele>
        <time>2019-08-14T11:18:54Z</time>
      </trkpt>
      <trkpt lat="41.1221840" lon="-4.7774750">
        <ele>809.6</ele>
        <time>2019-08-14T11:18:55Z</time>
      </trkpt>
      <trkpt lat="41.1222190" lon="-4.7775140">
        <ele>809.7</ele>
        <time>2019-08-14T11:18:56Z</time>
      </trkpt>
      <trkpt lat="41.1222550" lon="-4.7775520">
        <ele>809.9</ele>
        <time>2019-08-14T11:18:57Z</time>
      </trkpt>
      <trkpt lat="41.1222910" lon="-4.7775890">
        <ele>810.1</ele>
        <time>2019-08-14T11:18:58Z</time>
      </trkpt>
      <trkpt lat="41.1223300" lon="-4.7776260">
        <ele>810.2</ele>
        <time>2019-08-14T11:18:59Z</time>
      </trkpt>
      <trkpt lat="41.1223690" lon="-4.7776600">
        <ele>810.3</ele>
        <time>2019-08-14T11:19:00Z</time>
      </trkpt>
      <trkpt lat="41.1224090" lon="-4.7776960">
        <ele>810.4</ele>
        <time>2019-08-14T11:19:01Z</time>
      </trkpt>
      <trkpt lat="41.1224480" lon="-4.7777340">
        <ele>810.5</ele>
        <time>2019-08-14T11:19:02Z</time>
      </trkpt>
      <trkpt lat="41.1224870" lon="-4.7777760">
        <ele>810.7</ele>
        <time>2019-08-14T11:19:03Z</time>
      </trkpt>
      <trkpt lat="41.1225240" lon="-4.7778190">
        <ele>810.8</ele>
        <time>2019-08-14T11:19:04Z</time>
      </trkpt>
      <trkpt lat="41.1225610" lon="-4.7778650">
        <ele>810.9</ele>
        <time>2019-08-14T11:19:05Z</time>
      </trkpt>
      <trkpt lat="41.1225970" lon="-4.7779100">
        <ele>811.0</ele>
        <time>2019-08-14T11:19:06Z</time>
      </trkpt>
      <trkpt lat="41.1226340" lon="-4.7779530">
        <ele>811.0</ele>
        <time>2019-08-14T11:19:07Z</time>
      </trkpt>
      <trkpt lat="41.1226730" lon="-4.7779950">
        <ele>811.1</ele>
        <time>2019-08-14T11:19:08Z</time>
      </trkpt>
      <trkpt lat="41.1227110" lon="-4.7780370">
        <ele>811.2</ele>
        <time>2019-08-14T11:19:09Z</time>
      </trkpt>
      <trkpt lat="41.1227490" lon="-4.7780820">
        <ele>811.2</ele>
        <time>2019-08-14T11:19:10Z</time>
      </trkpt>
      <trkpt lat="41.1227850" lon="-4.7781250">
        <ele>811.3</ele>
        <time>2019-08-14T11:19:11Z</time>
      </trkpt>
      <trkpt lat="41.1228200" lon="-4.7781650">
        <ele>811.3</ele>
        <time>2019-08-14T11:19:12Z</time>
      </trkpt>
      <trkpt lat="41.1228540" lon="-4.7782040">
        <ele>811.3</ele>
        <time>2019-08-14T11:19:13Z</time>
      </trkpt>
      <trkpt lat="41.1228870" lon="-4.7782440">
        <ele>811.3</ele>
        <time>2019-08-14T11:19:14Z</time>
      </trkpt>
      <trkpt lat="41.1229220" lon="-4.7782840">
        <ele>811.3</ele>
        <time>2019-08-14T11:19:15Z</time>
      </trkpt>
      <trkpt lat="41.1229550" lon="-4.7783230">
        <ele>811.4</ele>
        <time>2019-08-14T11:19:16Z</time>
      </trkpt>
      <trkpt lat="41.1229910" lon="-4.7783620">
        <ele>811.4</ele>
        <time>2019-08-14T11:19:17Z</time>
      </trkpt>
      <trkpt lat="41.1230270" lon="-4.7783990">
        <ele>811.4</ele>
        <time>2019-08-14T11:19:18Z</time>
      </trkpt>
      <trkpt lat="41.1230630" lon="-4.7784370">
        <ele>811.4</ele>
        <time>2019-08-14T11:19:19Z</time>
      </trkpt>
      <trkpt lat="41.1230970" lon="-4.7784770">
        <ele>811.4</ele>
        <time>2019-08-14T11:19:20Z</time>
      </trkpt>
      <trkpt lat="41.1231280" lon="-4.7785190">
        <ele>811.4</ele>
        <time>2019-08-14T11:19:21Z</time>
      </trkpt>
      <trkpt lat="41.1231600" lon="-4.7785570">
        <ele>811.4</ele>
        <time>2019-08-14T11:19:22Z</time>
      </trkpt>
      <trkpt lat="41.1231920" lon="-4.7785940">
        <ele>811.4</ele>
        <time>2019-08-14T11:19:23Z</time>
      </trkpt>
      <trkpt lat="41.1232220" lon="-4.7786320">
        <ele>811.4</ele>
        <time>2019-08-14T11:19:24Z</time>
      </trkpt>
      <trkpt lat="41.1232510" lon="-4.7786680">
        <ele>811.4</ele>
        <time>2019-08-14T11:19:25Z</time>
      </trkpt>
      <trkpt lat="41.1232810" lon="-4.7787040">
        <ele>811.4</ele>
        <time>2019-08-14T11:19:26Z</time>
      </trkpt>
      <trkpt lat="41.1233100" lon="-4.7787400">
        <ele>811.4</ele>
        <time>2019-08-14T11:19:27Z</time>
      </trkpt>
      <trkpt lat="41.1233390" lon="-4.7787760">
        <ele>811.4</ele>
        <time>2019-08-14T11:19:28Z</time>
      </trkpt>
      <trkpt lat="41.1233690" lon="-4.7788120">
        <ele>811.4</ele>
        <time>2019-08-14T11:19:29Z</time>
      </trkpt>
      <trkpt lat="41.1233990" lon="-4.7788450">
        <ele>811.4</ele>
        <time>2019-08-14T11:19:30Z</time>
      </trkpt>
      <trkpt lat="41.1234310" lon="-4.7788760">
        <ele>811.3</ele>
        <time>2019-08-14T11:19:31Z</time>
      </trkpt>
      <trkpt lat="41.1234640" lon="-4.7789060">
        <ele>811.3</ele>
        <time>2019-08-14T11:19:32Z</time>
      </trkpt>
      <trkpt lat="41.1234960" lon="-4.7789380">
        <ele>811.2</ele>
        <time>2019-08-14T11:19:33Z</time>
      </trkpt>
      <trkpt lat="41.1235280" lon="-4.7789730">
        <ele>811.1</ele>
        <time>2019-08-14T11:19:34Z</time>
      </trkpt>
      <trkpt lat="41.1235610" lon="-4.7790090">
        <ele>811.0</ele>
        <time>2019-08-14T11:19:35Z</time>
      </trkpt>
      <trkpt lat="41.1235940" lon="-4.7790460">
        <ele>810.9</ele>
        <time>2019-08-14T11:19:36Z</time>
      </trkpt>
      <trkpt lat="41.1236280" lon="-4.7790840">
        <ele>810.8</ele>
        <time>2019-08-14T11:19:37Z</time>
      </trkpt>
      <trkpt lat="41.1236610" lon="-4.7791230">
        <ele>810.7</ele>
        <time>2019-08-14T11:19:38Z</time>
      </trkpt>
      <trkpt lat="41.1236950" lon="-4.7791620">
        <ele>810.6</ele>
        <time>2019-08-14T11:19:39Z</time>
      </trkpt>
      <trkpt lat="41.1237290" lon="-4.7791990">
        <ele>810.5</ele>
        <time>2019-08-14T11:19:40Z</time>
      </trkpt>
      <trkpt lat="41.1237630" lon="-4.7792360">
        <ele>810.4</ele>
        <time>2019-08-14T11:19:41Z</time>
      </trkpt>
      <trkpt lat="41.1237970" lon="-4.7792750">
        <ele>810.2</ele>
        <time>2019-08-14T11:19:42Z</time>
      </trkpt>
      <trkpt lat="41.1238320" lon="-4.7793140">
        <ele>810.1</ele>
        <time>2019-08-14T11:19:43Z</time>
      </trkpt>
      <trkpt lat="41.1238710" lon="-4.7793530">
        <ele>809.9</ele>
        <time>2019-08-14T11:19:44Z</time>
      </trkpt>
      <trkpt lat="41.1239130" lon="-4.7793910">
        <ele>809.8</ele>
        <time>2019-08-14T11:19:45Z</time>
      </trkpt>
      <trkpt lat="41.1239550" lon="-4.7794260">
        <ele>809.6</ele>
        <time>2019-08-14T11:19:46Z</time>
      </trkpt>
      <trkpt lat="41.1239960" lon="-4.7794590">
        <ele>809.5</ele>
        <time>2019-08-14T11:19:47Z</time>
      </trkpt>
      <trkpt lat="41.1240400" lon="-4.7794930">
        <ele>809.4</ele>
        <time>2019-08-14T11:19:48Z</time>
      </trkpt>
      <trkpt lat="41.1240850" lon="-4.7795270">
        <ele>809.2</ele>
        <time>2019-08-14T11:19:49Z</time>
      </trkpt>
      <trkpt lat="41.1241320" lon="-4.7795630">
        <ele>809.1</ele>
        <time>2019-08-14T11:19:50Z</time>
      </trkpt>
      <trkpt lat="41.1241810" lon="-4.7795960">
        <ele>808.9</ele>
        <time>2019-08-14T11:19:51Z</time>
      </trkpt>
      <trkpt lat="41.1242300" lon="-4.7796280">
        <ele>808.9</ele>
        <time>2019-08-14T11:19:52Z</time>
      </trkpt>
      <trkpt lat="41.1242810" lon="-4.7796590">
        <ele>808.8</ele>
        <time>2019-08-14T11:19:53Z</time>
      </trkpt>
      <trkpt lat="41.1243300" lon="-4.7796900">
        <ele>808.7</ele>
        <time>2019-08-14T11:19:54Z</time>
      </trkpt>
      <trkpt lat="41.1243790" lon="-4.7797190">
        <ele>808.6</ele>
        <time>2019-08-14T11:19:55Z</time>
      </trkpt>
      <trkpt lat="41.1244280" lon="-4.7797460">
        <ele>808.6</ele>
        <time>2019-08-14T11:19:56Z</time>
      </trkpt>
      <trkpt lat="41.1244760" lon="-4.7797750">
        <ele>808.5</ele>
        <time>2019-08-14T11:19:57Z</time>
      </trkpt>
      <trkpt lat="41.1245260" lon="-4.7798040">
        <ele>808.5</ele>
        <time>2019-08-14T11:19:58Z</time>
      </trkpt>
      <trkpt lat="41.1245750" lon="-4.7798350">
        <ele>808.4</ele>
        <time>2019-08-14T11:19:59Z</time>
      </trkpt>
      <trkpt lat="41.1246240" lon="-4.7798670">
        <ele>808.4</ele>
        <time>2019-08-14T11:20:00Z</time>
      </trkpt>
      <trkpt lat="41.1246740" lon="-4.7799000">
        <ele>808.3</ele>
        <time>2019-08-14T11:20:01Z</time>
      </trkpt>
      <trkpt lat="41.1247250" lon="-4.7799320">
        <ele>808.2</ele>
        <time>2019-08-14T11:20:02Z</time>
      </trkpt>
      <trkpt lat="41.1247770" lon="-4.7799630">
        <ele>808.1</ele>
        <time>2019-08-14T11:20:03Z</time>
      </trkpt>
      <trkpt lat="41.1248270" lon="-4.7799950">
        <ele>808.0</ele>
        <time>2019-08-14T11:20:04Z</time>
      </trkpt>
      <trkpt lat="41.1248780" lon="-4.7800260">
        <ele>807.9</ele>
        <time>2019-08-14T11:20:05Z</time>
      </trkpt>
      <trkpt lat="41.1249280" lon="-4.7800570">
        <ele>807.8</ele>
        <time>2019-08-14T11:20:06Z</time>
      </trkpt>
      <trkpt lat="41.1249770" lon="-4.7800880">
        <ele>807.7</ele>
        <time>2019-08-14T11:20:07Z</time>
      </trkpt>
      <trkpt lat="41.1250260" lon="-4.7801180">
        <ele>807.6</ele>
        <time>2019-08-14T11:20:08Z</time>
      </trkpt>
      <trkpt lat="41.1250760" lon="-4.7801460">
        <ele>807.5</ele>
        <time>2019-08-14T11:20:09Z</time>
      </trkpt>
      <trkpt lat="41.1251220" lon="-4.7801730">
        <ele>807.4</ele>
        <time>2019-08-14T11:20:10Z</time>
      </trkpt>
      <trkpt lat="41.1251660" lon="-4.7802010">
        <ele>807.3</ele>
        <time>2019-08-14T11:20:11Z</time>
      </trkpt>
      <trkpt lat="41.1252090" lon="-4.7802310">
        <ele>807.3</ele>
        <time>2019-08-14T11:20:12Z</time>
      </trkpt>
      <trkpt lat="41.1252520" lon="-4.7802620">
        <ele>807.2</ele>
        <time>2019-08-14T11:20:13Z</time>
      </trkpt>
      <trkpt lat="41.1252950" lon="-4.7802930">
        <ele>807.1</ele>
        <time>2019-08-14T11:20:14Z</time>
      </trkpt>
      <trkpt lat="41.1253390" lon="-4.7803260">
        <ele>807.1</ele>
        <time>2019-08-14T11:20:15Z</time>
      </trkpt>
      <trkpt lat="41.1253820" lon="-4.7803580">
        <ele>807.1</ele>
        <time>2019-08-14T11:20:16Z</time>
      </trkpt>
      <trkpt lat="41.1254270" lon="-4.7803890">
        <ele>807.1</ele>
        <time>2019-08-14T11:20:17Z</time>
      </trkpt>
      <trkpt lat="41.1254710" lon="-4.7804210">
        <ele>807.1</ele>
        <time>2019-08-14T11:20:18Z</time>
      </trkpt>
      <trkpt lat="41.1255160" lon="-4.7804550">
        <ele>807.1</ele>
        <time>2019-08-14T11:20:19Z</time>
      </trkpt>
      <trkpt lat="41.1255620" lon="-4.7804880">
        <ele>807.2</ele>
        <time>2019-08-14T11:20:20Z</time>
      </trkpt>
      <trkpt lat="41.1256070" lon="-4.7805200">
        <ele>807.2</ele>
        <time>2019-08-14T11:20:21Z</time>
      </trkpt>
      <trkpt lat="41.1256510" lon="-4.7805530">
        <ele>807.3</ele>
        <time>2019-08-14T11:20:22Z</time>
      </trkpt>
      <trkpt lat="41.1256960" lon="-4.7805840">
        <ele>807.3</ele>
        <time>2019-08-14T11:20:23Z</time>
      </trkpt>
      <trkpt lat="41.1257400" lon="-4.7806140">
        <ele>807.4</ele>
        <time>2019-08-14T11:20:24Z</time>
      </trkpt>
      <trkpt lat="41.1257860" lon="-4.7806440">
        <ele>807.4</ele>
        <time>2019-08-14T11:20:25Z</time>
      </trkpt>
      <trkpt lat="41.1258310" lon="-4.7806740">
        <ele>807.5</ele>
        <time>2019-08-14T11:20:26Z</time>
      </trkpt>
      <trkpt lat="41.1258760" lon="-4.7807040">
        <ele>807.6</ele>
        <time>2019-08-14T11:20:27Z</time>
      </trkpt>
      <trkpt lat="41.1259210" lon="-4.7807360">
        <ele>807.6</ele>
        <time>2019-08-14T11:20:28Z</time>
      </trkpt>
      <trkpt lat="41.1259670" lon="-4.7807660">
        <ele>807.7</ele>
        <time>2019-08-14T11:20:29Z</time>
      </trkpt>
      <trkpt lat="41.1260120" lon="-4.7807970">
        <ele>807.7</ele>
        <time>2019-08-14T11:20:30Z</time>
      </trkpt>
      <trkpt lat="41.1260580" lon="-4.7808260">
        <ele>807.8</ele>
        <time>2019-08-14T11:20:31Z</time>
      </trkpt>
      <trkpt lat="41.1261050" lon="-4.7808540">
        <ele>807.8</ele>
        <time>2019-08-14T11:20:32Z</time>
      </trkpt>
      <trkpt lat="41.1261510" lon="-4.7808810">
        <ele>807.9</ele>
        <time>2019-08-14T11:20:33Z</time>
      </trkpt>
      <trkpt lat="41.1261960" lon="-4.7809080">
        <ele>808.0</ele>
        <time>2019-08-14T11:20:34Z</time>
      </trkpt>
      <trkpt lat="41.1262420" lon="-4.7809350">
        <ele>808.1</ele>
        <time>2019-08-14T11:20:35Z</time>
      </trkpt>
      <trkpt lat="41.1262870" lon="-4.7809600">
        <ele>808.1</ele>
        <time>2019-08-14T11:20:36Z</time>
      </trkpt>
      <trkpt lat="41.1263320" lon="-4.7809850">
        <ele>808.2</ele>
        <time>2019-08-14T11:20:37Z</time>
      </trkpt>
      <trkpt lat="41.1263750" lon="-4.7810060">
        <ele>808.2</ele>
        <time>2019-08-14T11:20:38Z</time>
      </trkpt>
      <trkpt lat="41.1264200" lon="-4.7810260">
        <ele>808.3</ele>
        <time>2019-08-14T11:20:39Z</time>
      </trkpt>
      <trkpt lat="41.1264640" lon="-4.7810450">
        <ele>808.3</ele>
        <time>2019-08-14T11:20:40Z</time>
      </trkpt>
      <trkpt lat="41.1265070" lon="-4.7810640">
        <ele>808.4</ele>
        <time>2019-08-14T11:20:41Z</time>
      </trkpt>
      <trkpt lat="41.1265500" lon="-4.7810810">
        <ele>808.5</ele>
        <time>2019-08-14T11:20:42Z</time>
      </trkpt>
      <trkpt lat="41.1265920" lon="-4.7810980">
        <ele>808.6</ele>
        <time>2019-08-14T11:20:43Z</time>
      </trkpt>
      <trkpt lat="41.1266360" lon="-4.7811140">
        <ele>808.6</ele>
        <time>2019-08-14T11:20:44Z</time>
      </trkpt>
      <trkpt lat="41.1266790" lon="-4.7811290">
        <ele>808.8</ele>
        <time>2019-08-14T11:20:45Z</time>
      </trkpt>
      <trkpt lat="41.1267220" lon="-4.7811440">
        <ele>808.9</ele>
        <time>2019-08-14T11:20:46Z</time>
      </trkpt>
      <trkpt lat="41.1267650" lon="-4.7811570">
        <ele>809.0</ele>
        <time>2019-08-14T11:20:47Z</time>
      </trkpt>
      <trkpt lat="41.1268090" lon="-4.7811690">
        <ele>809.0</ele>
        <time>2019-08-14T11:20:48Z</time>
      </trkpt>
      <trkpt lat="41.1268530" lon="-4.7811820">
        <ele>809.1</ele>
        <time>2019-08-14T11:20:49Z</time>
      </trkpt>
      <trkpt lat="41.1268980" lon="-4.7811930">
        <ele>809.1</ele>
        <time>2019-08-14T11:20:50Z</time>
      </trkpt>
      <trkpt lat="41.1269440" lon="-4.7812030">
        <ele>809.2</ele>
        <time>2019-08-14T11:20:51Z</time>
      </trkpt>
      <trkpt lat="41.1269900" lon="-4.7812120">
        <ele>809.3</ele>
        <time>2019-08-14T11:20:52Z</time>
      </trkpt>
      <trkpt lat="41.1270370" lon="-4.7812210">
        <ele>809.4</ele>
        <time>2019-08-14T11:20:53Z</time>
      </trkpt>
      <trkpt lat="41.1270830" lon="-4.7812310">
        <ele>809.5</ele>
        <time>2019-08-14T11:20:54Z</time>
      </trkpt>
      <trkpt lat="41.1271290" lon="-4.7812410">
        <ele>809.5</ele>
        <time>2019-08-14T11:20:55Z</time>
      </trkpt>
      <trkpt lat="41.1271760" lon="-4.7812490">
        <ele>809.5</ele>
        <time>2019-08-14T11:20:56Z</time>
      </trkpt>
      <trkpt lat="41.1272230" lon="-4.7812560">
        <ele>809.6</ele>
        <time>2019-08-14T11:20:57Z</time>
      </trkpt>
      <trkpt lat="41.1272680" lon="-4.7812600">
        <ele>809.6</ele>
        <time>2019-08-14T11:20:58Z</time>
      </trkpt>
      <trkpt lat="41.1273140" lon="-4.7812640">
        <ele>809.6</ele>
        <time>2019-08-14T11:20:59Z</time>
      </trkpt>
      <trkpt lat="41.1273570" lon="-4.7812720">
        <ele>809.6</ele>
        <time>2019-08-14T11:21:00Z</time>
      </trkpt>
      <trkpt lat="41.1273970" lon="-4.7812820">
        <ele>809.6</ele>
        <time>2019-08-14T11:21:01Z</time>
      </trkpt>
      <trkpt lat="41.1274370" lon="-4.7812920">
        <ele>809.6</ele>
        <time>2019-08-14T11:21:02Z</time>
      </trkpt>
      <trkpt lat="41.1274780" lon="-4.7813010">
        <ele>809.6</ele>
        <time>2019-08-14T11:21:03Z</time>
      </trkpt>
      <trkpt lat="41.1275170" lon="-4.7813120">
        <ele>809.5</ele>
        <time>2019-08-14T11:21:04Z</time>
      </trkpt>
      <trkpt lat="41.1275570" lon="-4.7813230">
        <ele>809.4</ele>
        <time>2019-08-14T11:21:05Z</time>
      </trkpt>
      <trkpt lat="41.1275970" lon="-4.7813330">
        <ele>809.4</ele>
        <time>2019-08-14T11:21:06Z</time>
      </trkpt>
      <trkpt lat="41.1276360" lon="-4.7813420">
        <ele>809.3</ele>
        <time>2019-08-14T11:21:07Z</time>
      </trkpt>
      <trkpt lat="41.1276760" lon="-4.7813520">
        <ele>809.2</ele>
        <time>2019-08-14T11:21:08Z</time>
      </trkpt>
      <trkpt lat="41.1277130" lon="-4.7813610">
        <ele>809.1</ele>
        <time>2019-08-14T11:21:09Z</time>
      </trkpt>
      <trkpt lat="41.1277490" lon="-4.7813690">
        <ele>808.9</ele>
        <time>2019-08-14T11:21:10Z</time>
      </trkpt>
      <trkpt lat="41.1277860" lon="-4.7813790">
        <ele>808.9</ele>
        <time>2019-08-14T11:21:11Z</time>
      </trkpt>
      <trkpt lat="41.1278230" lon="-4.7813910">
        <ele>808.8</ele>
        <time>2019-08-14T11:21:12Z</time>
      </trkpt>
      <trkpt lat="41.1278600" lon="-4.7814040">
        <ele>808.6</ele>
        <time>2019-08-14T11:21:13Z</time>
      </trkpt>
      <trkpt lat="41.1278990" lon="-4.7814170">
        <ele>808.5</ele>
        <time>2019-08-14T11:21:14Z</time>
      </trkpt>
      <trkpt lat="41.1279370" lon="-4.7814300">
        <ele>808.4</ele>
        <time>2019-08-14T11:21:15Z</time>
      </trkpt>
      <trkpt lat="41.1279760" lon="-4.7814430">
        <ele>808.2</ele>
        <time>2019-08-14T11:21:16Z</time>
      </trkpt>
      <trkpt lat="41.1280160" lon="-4.7814590">
        <ele>808.1</ele>
        <time>2019-08-14T11:21:17Z</time>
      </trkpt>
      <trkpt lat="41.1280580" lon="-4.7814720">
        <ele>807.9</ele>
        <time>2019-08-14T11:21:18Z</time>
      </trkpt>
      <trkpt lat="41.1281000" lon="-4.7814810">
        <ele>807.8</ele>
        <time>2019-08-14T11:21:19Z</time>
      </trkpt>
      <trkpt lat="41.1281390" lon="-4.7814880">
        <ele>807.7</ele>
        <time>2019-08-14T11:21:20Z</time>
      </trkpt>
      <trkpt lat="41.1281770" lon="-4.7814960">
        <ele>807.6</ele>
        <time>2019-08-14T11:21:21Z</time>
      </trkpt>
      <trkpt lat="41.1282160" lon="-4.7815050">
        <ele>807.5</ele>
        <time>2019-08-14T11:21:22Z</time>
      </trkpt>
      <trkpt lat="41.1282550" lon="-4.7815150">
        <ele>807.3</ele>
        <time>2019-08-14T11:21:23Z</time>
      </trkpt>
      <trkpt lat="41.1282960" lon="-4.7815250">
        <ele>807.3</ele>
        <time>2019-08-14T11:21:24Z</time>
      </trkpt>
      <trkpt lat="41.1283380" lon="-4.7815360">
        <ele>807.2</ele>
        <time>2019-08-14T11:21:25Z</time>
      </trkpt>
      <trkpt lat="41.1283800" lon="-4.7815480">
        <ele>807.1</ele>
        <time>2019-08-14T11:21:26Z</time>
      </trkpt>
      <trkpt lat="41.1284220" lon="-4.7815650">
        <ele>807.0</ele>
        <time>2019-08-14T11:21:27Z</time>
      </trkpt>
      <trkpt lat="41.1284640" lon="-4.7815840">
        <ele>806.9</ele>
        <time>2019-08-14T11:21:28Z</time>
      </trkpt>
      <trkpt lat="41.1285090" lon="-4.7816050">
        <ele>806.9</ele>
        <time>2019-08-14T11:21:29Z</time>
      </trkpt>
      <trkpt lat="41.1285540" lon="-4.7816260">
        <ele>806.9</ele>
        <time>2019-08-14T11:21:30Z</time>
      </trkpt>
      <trkpt lat="41.1285990" lon="-4.7816500">
        <ele>806.8</ele>
        <time>2019-08-14T11:21:31Z</time>
      </trkpt>
      <trkpt lat="41.1286410" lon="-4.7816770">
        <ele>806.8</ele>
        <time>2019-08-14T11:21:32Z</time>
      </trkpt>
      <trkpt lat="41.1286820" lon="-4.7817020">
        <ele>806.8</ele>
        <time>2019-08-14T11:21:33Z</time>
      </trkpt>
      <trkpt lat="41.1287210" lon="-4.7817240">
        <ele>806.7</ele>
        <time>2019-08-14T11:21:34Z</time>
      </trkpt>
      <trkpt lat="41.1287600" lon="-4.7817440">
        <ele>806.7</ele>
        <time>2019-08-14T11:21:35Z</time>
      </trkpt>
      <trkpt lat="41.1288000" lon="-4.7817620">
        <ele>806.7</ele>
        <time>2019-08-14T11:21:36Z</time>
      </trkpt>
      <trkpt lat="41.1288430" lon="-4.7817800">
        <ele>806.8</ele>
        <time>2019-08-14T11:21:37Z</time>
      </trkpt>
      <trkpt lat="41.1288860" lon="-4.7817990">
        <ele>806.8</ele>
        <time>2019-08-14T11:21:38Z</time>
      </trkpt>
      <trkpt lat="41.1289300" lon="-4.7818150">
        <ele>806.8</ele>
        <time>2019-08-14T11:21:39Z</time>
      </trkpt>
      <trkpt lat="41.1289730" lon="-4.7818290">
        <ele>806.9</ele>
        <time>2019-08-14T11:21:40Z</time>
      </trkpt>
      <trkpt lat="41.1290130" lon="-4.7818430">
        <ele>806.9</ele>
        <time>2019-08-14T11:21:41Z</time>
      </trkpt>
      <trkpt lat="41.1290520" lon="-4.7818560">
        <ele>806.9</ele>
        <time>2019-08-14T11:21:42Z</time>
      </trkpt>
      <trkpt lat="41.1290930" lon="-4.7818670">
        <ele>807.0</ele>
        <time>2019-08-14T11:21:43Z</time>
      </trkpt>
      <trkpt lat="41.1291350" lon="-4.7818750">
        <ele>807.1</ele>
        <time>2019-08-14T11:21:44Z</time>
      </trkpt>
      <trkpt lat="41.1291790" lon="-4.7818800">
        <ele>807.2</ele>
        <time>2019-08-14T11:21:45Z</time>
      </trkpt>
      <trkpt lat="41.1292230" lon="-4.7818820">
        <ele>807.3</ele>
        <time>2019-08-14T11:21:46Z</time>
      </trkpt>
      <trkpt lat="41.1292680" lon="-4.7818850">
        <ele>807.4</ele>
        <time>2019-08-14T11:21:47Z</time>
      </trkpt>
      <trkpt lat="41.1293130" lon="-4.7818900">
        <ele>807.5</ele>
        <time>2019-08-14T11:21:48Z</time>
      </trkpt>
      <trkpt lat="41.1293580" lon="-4.7818960">
        <ele>807.5</ele>
        <time>2019-08-14T11:21:49Z</time>
      </trkpt>
      <trkpt lat="41.1294040" lon="-4.7819020">
        <ele>807.6</ele>
        <time>2019-08-14T11:21:50Z</time>
      </trkpt>
      <trkpt lat="41.1294490" lon="-4.7819080">
        <ele>807.7</ele>
        <time>2019-08-14T11:21:51Z</time>
      </trkpt>
      <trkpt lat="41.1294940" lon="-4.7819140">
        <ele>807.8</ele>
        <time>2019-08-14T11:21:52Z</time>
      </trkpt>
      <trkpt lat="41.1295390" lon="-4.7819200">
        <ele>807.9</ele>
        <time>2019-08-14T11:21:53Z</time>
      </trkpt>
      <trkpt lat="41.1295820" lon="-4.7819270">
        <ele>807.9</ele>
        <time>2019-08-14T11:21:54Z</time>
      </trkpt>
      <trkpt lat="41.1296250" lon="-4.7819350">
        <ele>808.0</ele>
        <time>2019-08-14T11:21:55Z</time>
      </trkpt>
      <trkpt lat="41.1296690" lon="-4.7819420">
        <ele>808.1</ele>
        <time>2019-08-14T11:21:56Z</time>
      </trkpt>
      <trkpt lat="41.1297110" lon="-4.7819500">
        <ele>808.2</ele>
        <time>2019-08-14T11:21:57Z</time>
      </trkpt>
      <trkpt lat="41.1297540" lon="-4.7819590">
        <ele>808.2</ele>
        <time>2019-08-14T11:21:58Z</time>
      </trkpt>
      <trkpt lat="41.1297960" lon="-4.7819690">
        <ele>808.2</ele>
        <time>2019-08-14T11:21:59Z</time>
      </trkpt>
      <trkpt lat="41.1298370" lon="-4.7819780">
        <ele>808.3</ele>
        <time>2019-08-14T11:22:00Z</time>
      </trkpt>
      <trkpt lat="41.1298790" lon="-4.7819890">
        <ele>808.3</ele>
        <time>2019-08-14T11:22:01Z</time>
      </trkpt>
      <trkpt lat="41.1299210" lon="-4.7820010">
        <ele>808.3</ele>
        <time>2019-08-14T11:22:02Z</time>
      </trkpt>
      <trkpt lat="41.1299610" lon="-4.7820140">
        <ele>808.3</ele>
        <time>2019-08-14T11:22:03Z</time>
      </trkpt>
      <trkpt lat="41.1300020" lon="-4.7820280">
        <ele>808.3</ele>
        <time>2019-08-14T11:22:04Z</time>
      </trkpt>
      <trkpt lat="41.1300430" lon="-4.7820410">
        <ele>808.3</ele>
        <time>2019-08-14T11:22:05Z</time>
      </trkpt>
      <trkpt lat="41.1300840" lon="-4.7820530">
        <ele>808.2</ele>
        <time>2019-08-14T11:22:06Z</time>
      </trkpt>
      <trkpt lat="41.1301260" lon="-4.7820670">
        <ele>808.2</ele>
        <time>2019-08-14T11:22:07Z</time>
      </trkpt>
      <trkpt lat="41.1301710" lon="-4.7820820">
        <ele>808.2</ele>
        <time>2019-08-14T11:22:08Z</time>
      </trkpt>
      <trkpt lat="41.1302150" lon="-4.7820970">
        <ele>808.1</ele>
        <time>2019-08-14T11:22:09Z</time>
      </trkpt>
      <trkpt lat="41.1302580" lon="-4.7821110">
        <ele>808.1</ele>
        <time>2019-08-14T11:22:10Z</time>
      </trkpt>
      <trkpt lat="41.1303010" lon="-4.7821240">
        <ele>808.0</ele>
        <time>2019-08-14T11:22:11Z</time>
      </trkpt>
      <trkpt lat="41.1303430" lon="-4.7821350">
        <ele>808.0</ele>
        <time>2019-08-14T11:22:12Z</time>
      </trkpt>
      <trkpt lat="41.1303850" lon="-4.7821490">
        <ele>807.9</ele>
        <time>2019-08-14T11:22:13Z</time>
      </trkpt>
      <trkpt lat="41.1304290" lon="-4.7821640">
        <ele>807.9</ele>
        <time>2019-08-14T11:22:14Z</time>
      </trkpt>
      <trkpt lat="41.1304760" lon="-4.7821780">
        <ele>807.9</ele>
        <time>2019-08-14T11:22:15Z</time>
      </trkpt>
      <trkpt lat="41.1305260" lon="-4.7821920">
        <ele>807.8</ele>
        <time>2019-08-14T11:22:16Z</time>
      </trkpt>
      <trkpt lat="41.1305750" lon="-4.7822090">
        <ele>807.8</ele>
        <time>2019-08-14T11:22:17Z</time>
      </trkpt>
      <trkpt lat="41.1306230" lon="-4.7822260">
        <ele>807.7</ele>
        <time>2019-08-14T11:22:18Z</time>
      </trkpt>
      <trkpt lat="41.1306720" lon="-4.7822440">
        <ele>807.7</ele>
        <time>2019-08-14T11:22:19Z</time>
      </trkpt>
      <trkpt lat="41.1307190" lon="-4.7822620">
        <ele>807.7</ele>
        <time>2019-08-14T11:22:20Z</time>
      </trkpt>
      <trkpt lat="41.1307660" lon="-4.7822810">
        <ele>807.7</ele>
        <time>2019-08-14T11:22:21Z</time>
      </trkpt>
      <trkpt lat="41.1308130" lon="-4.7823010">
        <ele>807.7</ele>
        <time>2019-08-14T11:22:22Z</time>
      </trkpt>
      <trkpt lat="41.1308620" lon="-4.7823210">
        <ele>807.7</ele>
        <time>2019-08-14T11:22:23Z</time>
      </trkpt>
      <trkpt lat="41.1309110" lon="-4.7823420">
        <ele>807.7</ele>
        <time>2019-08-14T11:22:24Z</time>
      </trkpt>
      <trkpt lat="41.1309620" lon="-4.7823640">
        <ele>807.8</ele>
        <time>2019-08-14T11:22:25Z</time>
      </trkpt>
      <trkpt lat="41.1310140" lon="-4.7823870">
        <ele>807.8</ele>
        <time>2019-08-14T11:22:26Z</time>
      </trkpt>
      <trkpt lat="41.1310660" lon="-4.7824130">
        <ele>807.9</ele>
        <time>2019-08-14T11:22:27Z</time>
      </trkpt>
      <trkpt lat="41.1311180" lon="-4.7824400">
        <ele>807.9</ele>
        <time>2019-08-14T11:22:28Z</time>
      </trkpt>
      <trkpt lat="41.1311690" lon="-4.7824670">
        <ele>808.0</ele>
        <time>2019-08-14T11:22:29Z</time>
      </trkpt>
      <trkpt lat="41.1312200" lon="-4.7824920">
        <ele>808.1</ele>
        <time>2019-08-14T11:22:30Z</time>
      </trkpt>
      <trkpt lat="41.1312710" lon="-4.7825140">
        <ele>808.2</ele>
        <time>2019-08-14T11:22:31Z</time>
      </trkpt>
      <trkpt lat="41.1313220" lon="-4.7825370">
        <ele>808.3</ele>
        <time>2019-08-14T11:22:32Z</time>
      </trkpt>
      <trkpt lat="41.1313720" lon="-4.7825600">
        <ele>808.3</ele>
        <time>2019-08-14T11:22:33Z</time>
      </trkpt>
      <trkpt lat="41.1314240" lon="-4.7825810">
        <ele>808.4</ele>
        <time>2019-08-14T11:22:34Z</time>
      </trkpt>
      <trkpt lat="41.1314780" lon="-4.7826000">
        <ele>808.5</ele>
        <time>2019-08-14T11:22:35Z</time>
      </trkpt>
      <trkpt lat="41.1315320" lon="-4.7826180">
        <ele>808.5</ele>
        <time>2019-08-14T11:22:36Z</time>
      </trkpt>
      <trkpt lat="41.1315860" lon="-4.7826360">
        <ele>808.6</ele>
        <time>2019-08-14T11:22:37Z</time>
      </trkpt>
      <trkpt lat="41.1316410" lon="-4.7826540">
        <ele>808.6</ele>
        <time>2019-08-14T11:22:38Z</time>
      </trkpt>
      <trkpt lat="41.1316940" lon="-4.7826720">
        <ele>808.6</ele>
        <time>2019-08-14T11:22:39Z</time>
      </trkpt>
      <trkpt lat="41.1317480" lon="-4.7826910">
        <ele>808.6</ele>
        <time>2019-08-14T11:22:40Z</time>
      </trkpt>
      <trkpt lat="41.1318020" lon="-4.7827110">
        <ele>808.6</ele>
        <time>2019-08-14T11:22:41Z</time>
      </trkpt>
      <trkpt lat="41.1318570" lon="-4.7827310">
        <ele>808.7</ele>
        <time>2019-08-14T11:22:42Z</time>
      </trkpt>
      <trkpt lat="41.1319100" lon="-4.7827500">
        <ele>808.7</ele>
        <time>2019-08-14T11:22:43Z</time>
      </trkpt>
      <trkpt lat="41.1319630" lon="-4.7827680">
        <ele>808.7</ele>
        <time>2019-08-14T11:22:44Z</time>
      </trkpt>
      <trkpt lat="41.1320160" lon="-4.7827860">
        <ele>808.6</ele>
        <time>2019-08-14T11:22:45Z</time>
      </trkpt>
      <trkpt lat="41.1320670" lon="-4.7828040">
        <ele>808.6</ele>
        <time>2019-08-14T11:22:46Z</time>
      </trkpt>
      <trkpt lat="41.1321180" lon="-4.7828210">
        <ele>808.7</ele>
        <time>2019-08-14T11:22:47Z</time>
      </trkpt>
      <trkpt lat="41.1321690" lon="-4.7828370">
        <ele>808.7</ele>
        <time>2019-08-14T11:22:48Z</time>
      </trkpt>
      <trkpt lat="41.1322190" lon="-4.7828520">
        <ele>808.7</ele>
        <time>2019-08-14T11:22:49Z</time>
      </trkpt>
      <trkpt lat="41.1322680" lon="-4.7828670">
        <ele>808.6</ele>
        <time>2019-08-14T11:22:50Z</time>
      </trkpt>
      <trkpt lat="41.1323160" lon="-4.7828850">
        <ele>808.7</ele>
        <time>2019-08-14T11:22:51Z</time>
      </trkpt>
      <trkpt lat="41.1323620" lon="-4.7829060">
        <ele>808.7</ele>
        <time>2019-08-14T11:22:52Z</time>
      </trkpt>
      <trkpt lat="41.1324070" lon="-4.7829300">
        <ele>808.8</ele>
        <time>2019-08-14T11:22:53Z</time>
      </trkpt>
      <trkpt lat="41.1324520" lon="-4.7829550">
        <ele>808.8</ele>
        <time>2019-08-14T11:22:54Z</time>
      </trkpt>
      <trkpt lat="41.1324970" lon="-4.7829800">
        <ele>808.8</ele>
        <time>2019-08-14T11:22:55Z</time>
      </trkpt>
      <trkpt lat="41.1325430" lon="-4.7830060">
        <ele>808.7</ele>
        <time>2019-08-14T11:22:56Z</time>
      </trkpt>
      <trkpt lat="41.1325870" lon="-4.7830330">
        <ele>808.7</ele>
        <time>2019-08-14T11:22:57Z</time>
      </trkpt>
      <trkpt lat="41.1326300" lon="-4.7830580">
        <ele>808.6</ele>
        <time>2019-08-14T11:22:58Z</time>
      </trkpt>
      <trkpt lat="41.1326730" lon="-4.7830840">
        <ele>808.6</ele>
        <time>2019-08-14T11:22:59Z</time>
      </trkpt>
      <trkpt lat="41.1327150" lon="-4.7831090">
        <ele>808.6</ele>
        <time>2019-08-14T11:23:00Z</time>
      </trkpt>
      <trkpt lat="41.1327570" lon="-4.7831350">
        <ele>808.5</ele>
        <time>2019-08-14T11:23:01Z</time>
      </trkpt>
      <trkpt lat="41.1327970" lon="-4.7831630">
        <ele>808.5</ele>
        <time>2019-08-14T11:23:02Z</time>
      </trkpt>
      <trkpt lat="41.1328380" lon="-4.7831950">
        <ele>808.4</ele>
        <time>2019-08-14T11:23:03Z</time>
      </trkpt>
      <trkpt lat="41.1328780" lon="-4.7832290">
        <ele>808.3</ele>
        <time>2019-08-14T11:23:04Z</time>
      </trkpt>
      <trkpt lat="41.1329190" lon="-4.7832670">
        <ele>808.3</ele>
        <time>2019-08-14T11:23:05Z</time>
      </trkpt>
      <trkpt lat="41.1329600" lon="-4.7833080">
        <ele>808.3</ele>
        <time>2019-08-14T11:23:06Z</time>
      </trkpt>
      <trkpt lat="41.1330000" lon="-4.7833490">
        <ele>808.4</ele>
        <time>2019-08-14T11:23:07Z</time>
      </trkpt>
      <trkpt lat="41.1330390" lon="-4.7833920">
        <ele>808.3</ele>
        <time>2019-08-14T11:23:08Z</time>
      </trkpt>
      <trkpt lat="41.1330810" lon="-4.7834340">
        <ele>808.3</ele>
        <time>2019-08-14T11:23:09Z</time>
      </trkpt>
      <trkpt lat="41.1331230" lon="-4.7834770">
        <ele>808.4</ele>
        <time>2019-08-14T11:23:10Z</time>
      </trkpt>
      <trkpt lat="41.1331630" lon="-4.7835200">
        <ele>808.4</ele>
        <time>2019-08-14T11:23:11Z</time>
      </trkpt>
      <trkpt lat="41.1332040" lon="-4.7835640">
        <ele>808.4</ele>
        <time>2019-08-14T11:23:12Z</time>
      </trkpt>
      <trkpt lat="41.1332450" lon="-4.7836090">
        <ele>808.5</ele>
        <time>2019-08-14T11:23:13Z</time>
      </trkpt>
      <trkpt lat="41.1332870" lon="-4.7836550">
        <ele>808.5</ele>
        <time>2019-08-14T11:23:14Z</time>
      </trkpt>
      <trkpt lat="41.1333310" lon="-4.7837050">
        <ele>808.5</ele>
        <time>2019-08-14T11:23:15Z</time>
      </trkpt>
      <trkpt lat="41.1333730" lon="-4.7837530">
        <ele>808.4</ele>
        <time>2019-08-14T11:23:16Z</time>
      </trkpt>
      <trkpt lat="41.1334140" lon="-4.7838000">
        <ele>808.5</ele>
        <time>2019-08-14T11:23:17Z</time>
      </trkpt>
      <trkpt lat="41.1334520" lon="-4.7838460">
        <ele>808.5</ele>
        <time>2019-08-14T11:23:18Z</time>
      </trkpt>
      <trkpt lat="41.1334910" lon="-4.7838920">
        <ele>808.5</ele>
        <time>2019-08-14T11:23:19Z</time>
      </trkpt>
      <trkpt lat="41.1335300" lon="-4.7839400">
        <ele>808.5</ele>
        <time>2019-08-14T11:23:20Z</time>
      </trkpt>
      <trkpt lat="41.1335700" lon="-4.7839870">
        <ele>808.4</ele>
        <time>2019-08-14T11:23:21Z</time>
      </trkpt>
      <trkpt lat="41.1336110" lon="-4.7840360">
        <ele>808.4</ele>
        <time>2019-08-14T11:23:22Z</time>
      </trkpt>
      <trkpt lat="41.1336520" lon="-4.7840840">
        <ele>808.3</ele>
        <time>2019-08-14T11:23:23Z</time>
      </trkpt>
      <trkpt lat="41.1336920" lon="-4.7841320">
        <ele>808.3</ele>
        <time>2019-08-14T11:23:24Z</time>
      </trkpt>
      <trkpt lat="41.1337310" lon="-4.7841770">
        <ele>808.2</ele>
        <time>2019-08-14T11:23:25Z</time>
      </trkpt>
      <trkpt lat="41.1337690" lon="-4.7842200">
        <ele>808.2</ele>
        <time>2019-08-14T11:23:26Z</time>
      </trkpt>
      <trkpt lat="41.1338050" lon="-4.7842620">
        <ele>808.1</ele>
        <time>2019-08-14T11:23:27Z</time>
      </trkpt>
      <trkpt lat="41.1338390" lon="-4.7843020">
        <ele>808.0</ele>
        <time>2019-08-14T11:23:28Z</time>
      </trkpt>
      <trkpt lat="41.1338720" lon="-4.7843420">
        <ele>807.9</ele>
        <time>2019-08-14T11:23:29Z</time>
      </trkpt>
      <trkpt lat="41.1339060" lon="-4.7843830">
        <ele>807.8</ele>
        <time>2019-08-14T11:23:30Z</time>
      </trkpt>
      <trkpt lat="41.1339420" lon="-4.7844230">
        <ele>807.7</ele>
        <time>2019-08-14T11:23:31Z</time>
      </trkpt>
      <trkpt lat="41.1339790" lon="-4.7844640">
        <ele>807.6</ele>
        <time>2019-08-14T11:23:32Z</time>
      </trkpt>
      <trkpt lat="41.1340160" lon="-4.7845050">
        <ele>807.5</ele>
        <time>2019-08-14T11:23:33Z</time>
      </trkpt>
      <trkpt lat="41.1340560" lon="-4.7845470">
        <ele>807.4</ele>
        <time>2019-08-14T11:23:34Z</time>
      </trkpt>
      <trkpt lat="41.1340970" lon="-4.7845890">
        <ele>807.3</ele>
        <time>2019-08-14T11:23:35Z</time>
      </trkpt>
      <trkpt lat="41.1341390" lon="-4.7846330">
        <ele>807.3</ele>
        <time>2019-08-14T11:23:36Z</time>
      </trkpt>
      <trkpt lat="41.1341800" lon="-4.7846760">
        <ele>807.2</ele>
        <time>2019-08-14T11:23:37Z</time>
      </trkpt>
      <trkpt lat="41.1342220" lon="-4.7847180">
        <ele>807.2</ele>
        <time>2019-08-14T11:23:38Z</time>
      </trkpt>
      <trkpt lat="41.1342640" lon="-4.7847570">
        <ele>807.1</ele>
        <time>2019-08-14T11:23:39Z</time>
      </trkpt>
      <trkpt lat="41.1343060" lon="-4.7847960">
        <ele>807.0</ele>
        <time>2019-08-14T11:23:40Z</time>
      </trkpt>
      <trkpt lat="41.1343480" lon="-4.7848330">
        <ele>807.0</ele>
        <time>2019-08-14T11:23:41Z</time>
      </trkpt>
      <trkpt lat="41.1343880" lon="-4.7848690">
        <ele>807.0</ele>
        <time>2019-08-14T11:23:42Z</time>
      </trkpt>
      <trkpt lat="41.1344270" lon="-4.7849060">
        <ele>807.0</ele>
        <time>2019-08-14T11:23:43Z</time>
      </trkpt>
      <trkpt lat="41.1344660" lon="-4.7849440">
        <ele>806.9</ele>
        <time>2019-08-14T11:23:44Z</time>
      </trkpt>
      <trkpt lat="41.1345050" lon="-4.7849800">
        <ele>806.9</ele>
        <time>2019-08-14T11:23:45Z</time>
      </trkpt>
      <trkpt lat="41.1345430" lon="-4.7850140">
        <ele>806.9</ele>
        <time>2019-08-14T11:23:46Z</time>
      </trkpt>
      <trkpt lat="41.1345810" lon="-4.7850450">
        <ele>806.9</ele>
        <time>2019-08-14T11:23:47Z</time>
      </trkpt>
      <trkpt lat="41.1346170" lon="-4.7850760">
        <ele>806.9</ele>
        <time>2019-08-14T11:23:48Z</time>
      </trkpt>
      <trkpt lat="41.1346530" lon="-4.7851090">
        <ele>806.9</ele>
        <time>2019-08-14T11:23:49Z</time>
      </trkpt>
      <trkpt lat="41.1346900" lon="-4.7851440">
        <ele>806.9</ele>
        <time>2019-08-14T11:23:50Z</time>
      </trkpt>
      <trkpt lat="41.1347280" lon="-4.7851800">
        <ele>806.9</ele>
        <time>2019-08-14T11:23:51Z</time>
      </trkpt>
      <trkpt lat="41.1347680" lon="-4.7852160">
        <ele>806.9</ele>
        <time>2019-08-14T11:23:52Z</time>
      </trkpt>
      <trkpt lat="41.1348080" lon="-4.7852550">
        <ele>806.9</ele>
        <time>2019-08-14T11:23:53Z</time>
      </trkpt>
      <trkpt lat="41.1348470" lon="-4.7852970">
        <ele>806.9</ele>
        <time>2019-08-14T11:23:54Z</time>
      </trkpt>
      <trkpt lat="41.1348870" lon="-4.7853380">
        <ele>806.9</ele>
        <time>2019-08-14T11:23:55Z</time>
      </trkpt>
      <trkpt lat="41.1349280" lon="-4.7853760">
        <ele>807.0</ele>
        <time>2019-08-14T11:23:56Z</time>
      </trkpt>
      <trkpt lat="41.1349700" lon="-4.7854140">
        <ele>807.0</ele>
        <time>2019-08-14T11:23:57Z</time>
      </trkpt>
      <trkpt lat="41.1350130" lon="-4.7854530">
        <ele>807.1</ele>
        <time>2019-08-14T11:23:58Z</time>
      </trkpt>
      <trkpt lat="41.1350550" lon="-4.7854920">
        <ele>807.0</ele>
        <time>2019-08-14T11:23:59Z</time>
      </trkpt>
      <trkpt lat="41.1350980" lon="-4.7855320">
        <ele>807.1</ele>
        <time>2019-08-14T11:24:00Z</time>
      </trkpt>
      <trkpt lat="41.1351410" lon="-4.7855720">
        <ele>807.1</ele>
        <time>2019-08-14T11:24:01Z</time>
      </trkpt>
      <trkpt lat="41.1351830" lon="-4.7856150">
        <ele>807.0</ele>
        <time>2019-08-14T11:24:02Z</time>
      </trkpt>
      <trkpt lat="41.1352250" lon="-4.7856570">
        <ele>807.0</ele>
        <time>2019-08-14T11:24:03Z</time>
      </trkpt>
      <trkpt lat="41.1352640" lon="-4.7857000">
        <ele>807.0</ele>
        <time>2019-08-14T11:24:04Z</time>
      </trkpt>
      <trkpt lat="41.1353020" lon="-4.7857410">
        <ele>807.0</ele>
        <time>2019-08-14T11:24:05Z</time>
      </trkpt>
      <trkpt lat="41.1353380" lon="-4.7857810">
        <ele>806.9</ele>
        <time>2019-08-14T11:24:06Z</time>
      </trkpt>
      <trkpt lat="41.1353730" lon="-4.7858210">
        <ele>806.8</ele>
        <time>2019-08-14T11:24:07Z</time>
      </trkpt>
      <trkpt lat="41.1354100" lon="-4.7858630">
        <ele>806.8</ele>
        <time>2019-08-14T11:24:08Z</time>
      </trkpt>
      <trkpt lat="41.1354490" lon="-4.7859050">
        <ele>806.7</ele>
        <time>2019-08-14T11:24:09Z</time>
      </trkpt>
      <trkpt lat="41.1354890" lon="-4.7859480">
        <ele>806.7</ele>
        <time>2019-08-14T11:24:10Z</time>
      </trkpt>
      <trkpt lat="41.1355310" lon="-4.7859910">
        <ele>806.7</ele>
        <time>2019-08-14T11:24:11Z</time>
      </trkpt>
      <trkpt lat="41.1355730" lon="-4.7860330">
        <ele>806.6</ele>
        <time>2019-08-14T11:24:12Z</time>
      </trkpt>
      <trkpt lat="41.1356160" lon="-4.7860760">
        <ele>806.6</ele>
        <time>2019-08-14T11:24:13Z</time>
      </trkpt>
      <trkpt lat="41.1356590" lon="-4.7861190">
        <ele>806.6</ele>
        <time>2019-08-14T11:24:14Z</time>
      </trkpt>
      <trkpt lat="41.1357020" lon="-4.7861610">
        <ele>806.6</ele>
        <time>2019-08-14T11:24:15Z</time>
      </trkpt>
      <trkpt lat="41.1357440" lon="-4.7862020">
        <ele>806.7</ele>
        <time>2019-08-14T11:24:16Z</time>
      </trkpt>
      <trkpt lat="41.1357860" lon="-4.7862430">
        <ele>806.7</ele>
        <time>2019-08-14T11:24:17Z</time>
      </trkpt>
      <trkpt lat="41.1358270" lon="-4.7862840">
        <ele>806.7</ele>
        <time>2019-08-14T11:24:18Z</time>
      </trkpt>
      <trkpt lat="41.1358680" lon="-4.7863250">
        <ele>806.8</ele>
        <time>2019-08-14T11:24:19Z</time>
      </trkpt>
      <trkpt lat="41.1359080" lon="-4.7863670">
        <ele>806.9</ele>
        <time>2019-08-14T11:24:20Z</time>
      </trkpt>
      <trkpt lat="41.1359480" lon="-4.7864090">
        <ele>807.1</ele>
        <time>2019-08-14T11:24:21Z</time>
      </trkpt>
      <trkpt lat="41.1359870" lon="-4.7864500">
        <ele>807.2</ele>
        <time>2019-08-14T11:24:22Z</time>
      </trkpt>
      <trkpt lat="41.1360260" lon="-4.7864910">
        <ele>807.3</ele>
        <time>2019-08-14T11:24:23Z</time>
      </trkpt>
      <trkpt lat="41.1360650" lon="-4.7865320">
        <ele>807.4</ele>
        <time>2019-08-14T11:24:24Z</time>
      </trkpt>
      <trkpt lat="41.1361060" lon="-4.7865710">
        <ele>807.6</ele>
        <time>2019-08-14T11:24:25Z</time>
      </trkpt>
      <trkpt lat="41.1361460" lon="-4.7866080">
        <ele>807.8</ele>
        <time>2019-08-14T11:24:26Z</time>
      </trkpt>
      <trkpt lat="41.1361860" lon="-4.7866450">
        <ele>807.9</ele>
        <time>2019-08-14T11:24:27Z</time>
      </trkpt>
      <trkpt lat="41.1362270" lon="-4.7866790">
        <ele>808.1</ele>
        <time>2019-08-14T11:24:28Z</time>
      </trkpt>
      <trkpt lat="41.1362690" lon="-4.7867110">
        <ele>808.2</ele>
        <time>2019-08-14T11:24:29Z</time>
      </trkpt>
      <trkpt lat="41.1363130" lon="-4.7867420">
        <ele>808.3</ele>
        <time>2019-08-14T11:24:30Z</time>
      </trkpt>
      <trkpt lat="41.1363560" lon="-4.7867730">
        <ele>808.4</ele>
        <time>2019-08-14T11:24:31Z</time>
      </trkpt>
      <trkpt lat="41.1363980" lon="-4.7868040">
        <ele>808.6</ele>
        <time>2019-08-14T11:24:32Z</time>
      </trkpt>
      <trkpt lat="41.1364400" lon="-4.7868350">
        <ele>808.7</ele>
        <time>2019-08-14T11:24:33Z</time>
      </trkpt>
      <trkpt lat="41.1364820" lon="-4.7868660">
        <ele>808.8</ele>
        <time>2019-08-14T11:24:34Z</time>
      </trkpt>
      <trkpt lat="41.1365240" lon="-4.7868950">
        <ele>808.9</ele>
        <time>2019-08-14T11:24:35Z</time>
      </trkpt>
      <trkpt lat="41.1365670" lon="-4.7869230">
        <ele>809.0</ele>
        <time>2019-08-14T11:24:36Z</time>
      </trkpt>
      <trkpt lat="41.1366110" lon="-4.7869480">
        <ele>809.0</ele>
        <time>2019-08-14T11:24:37Z</time>
      </trkpt>
      <trkpt lat="41.1366560" lon="-4.7869670">
        <ele>809.0</ele>
        <time>2019-08-14T11:24:38Z</time>
      </trkpt>
      <trkpt lat="41.1367020" lon="-4.7869810">
        <ele>809.0</ele>
        <time>2019-08-14T11:24:39Z</time>
      </trkpt>
      <trkpt lat="41.1367480" lon="-4.7869900">
        <ele>809.0</ele>
        <time>2019-08-14T11:24:40Z</time>
      </trkpt>
      <trkpt lat="41.1367940" lon="-4.7869920">
        <ele>809.0</ele>
        <time>2019-08-14T11:24:41Z</time>
      </trkpt>
      <trkpt lat="41.1368400" lon="-4.7869940">
        <ele>809.0</ele>
        <time>2019-08-14T11:24:42Z</time>
      </trkpt>
      <trkpt lat="41.1368870" lon="-4.7869960">
        <ele>809.0</ele>
        <time>2019-08-14T11:24:43Z</time>
      </trkpt>
      <trkpt lat="41.1369360" lon="-4.7870040">
        <ele>809.0</ele>
        <time>2019-08-14T11:24:44Z</time>
      </trkpt>
      <trkpt lat="41.1369820" lon="-4.7870200">
        <ele>809.0</ele>
        <time>2019-08-14T11:24:45Z</time>
      </trkpt>
      <trkpt lat="41.1370280" lon="-4.7870400">
        <ele>809.2</ele>
        <time>2019-08-14T11:24:46Z</time>
      </trkpt>
      <trkpt lat="41.1370750" lon="-4.7870630">
        <ele>809.3</ele>
        <time>2019-08-14T11:24:47Z</time>
      </trkpt>
      <trkpt lat="41.1371210" lon="-4.7870880">
        <ele>809.4</ele>
        <time>2019-08-14T11:24:48Z</time>
      </trkpt>
      <trkpt lat="41.1371690" lon="-4.7871160">
        <ele>809.5</ele>
        <time>2019-08-14T11:24:49Z</time>
      </trkpt>
      <trkpt lat="41.1372160" lon="-4.7871430">
        <ele>809.6</ele>
        <time>2019-08-14T11:24:50Z</time>
      </trkpt>
      <trkpt lat="41.1372630" lon="-4.7871720">
        <ele>809.7</ele>
        <time>2019-08-14T11:24:51Z</time>
      </trkpt>
      <trkpt lat="41.1373100" lon="-4.7872010">
        <ele>809.8</ele>
        <time>2019-08-14T11:24:52Z</time>
      </trkpt>
      <trkpt lat="41.1373540" lon="-4.7872310">
        <ele>809.9</ele>
        <time>2019-08-14T11:24:53Z</time>
      </trkpt>
      <trkpt lat="41.1373950" lon="-4.7872600">
        <ele>810.0</ele>
        <time>2019-08-14T11:24:54Z</time>
      </trkpt>
      <trkpt lat="41.1374350" lon="-4.7872880">
        <ele>810.1</ele>
        <time>2019-08-14T11:24:55Z</time>
      </trkpt>
      <trkpt lat="41.1374730" lon="-4.7873160">
        <ele>810.2</ele>
        <time>2019-08-14T11:24:56Z</time>
      </trkpt>
      <trkpt lat="41.1375140" lon="-4.7873450">
        <ele>810.4</ele>
        <time>2019-08-14T11:24:57Z</time>
      </trkpt>
      <trkpt lat="41.1375540" lon="-4.7873730">
        <ele>810.4</ele>
        <time>2019-08-14T11:24:58Z</time>
      </trkpt>
      <trkpt lat="41.1375970" lon="-4.7874010">
        <ele>810.5</ele>
        <time>2019-08-14T11:24:59Z</time>
      </trkpt>
      <trkpt lat="41.1376400" lon="-4.7874260">
        <ele>810.7</ele>
        <time>2019-08-14T11:25:00Z</time>
      </trkpt>
      <trkpt lat="41.1376840" lon="-4.7874500">
        <ele>810.7</ele>
        <time>2019-08-14T11:25:01Z</time>
      </trkpt>
      <trkpt lat="41.1377290" lon="-4.7874730">
        <ele>810.8</ele>
        <time>2019-08-14T11:25:02Z</time>
      </trkpt>
      <trkpt lat="41.1377720" lon="-4.7875010">
        <ele>810.9</ele>
        <time>2019-08-14T11:25:03Z</time>
      </trkpt>
      <trkpt lat="41.1378130" lon="-4.7875280">
        <ele>810.9</ele>
        <time>2019-08-14T11:25:04Z</time>
      </trkpt>
      <trkpt lat="41.1378510" lon="-4.7875530">
        <ele>811.0</ele>
        <time>2019-08-14T11:25:05Z</time>
      </trkpt>
      <trkpt lat="41.1378880" lon="-4.7875780">
        <ele>811.0</ele>
        <time>2019-08-14T11:25:06Z</time>
      </trkpt>
      <trkpt lat="41.1379240" lon="-4.7876010">
        <ele>811.1</ele>
        <time>2019-08-14T11:25:07Z</time>
      </trkpt>
      <trkpt lat="41.1379600" lon="-4.7876220">
        <ele>811.1</ele>
        <time>2019-08-14T11:25:08Z</time>
      </trkpt>
      <trkpt lat="41.1379950" lon="-4.7876440">
        <ele>811.1</ele>
        <time>2019-08-14T11:25:09Z</time>
      </trkpt>
      <trkpt lat="41.1380300" lon="-4.7876650">
        <ele>811.1</ele>
        <time>2019-08-14T11:25:10Z</time>
      </trkpt>
      <trkpt lat="41.1380650" lon="-4.7876860">
        <ele>811.1</ele>
        <time>2019-08-14T11:25:11Z</time>
      </trkpt>
      <trkpt lat="41.1381020" lon="-4.7877070">
        <ele>811.2</ele>
        <time>2019-08-14T11:25:12Z</time>
      </trkpt>
      <trkpt lat="41.1381380" lon="-4.7877280">
        <ele>811.2</ele>
        <time>2019-08-14T11:25:13Z</time>
      </trkpt>
      <trkpt lat="41.1381750" lon="-4.7877510">
        <ele>811.2</ele>
        <time>2019-08-14T11:25:14Z</time>
      </trkpt>
      <trkpt lat="41.1382120" lon="-4.7877730">
        <ele>811.2</ele>
        <time>2019-08-14T11:25:15Z</time>
      </trkpt>
      <trkpt lat="41.1382470" lon="-4.7877950">
        <ele>811.2</ele>
        <time>2019-08-14T11:25:16Z</time>
      </trkpt>
      <trkpt lat="41.1382800" lon="-4.7878150">
        <ele>811.2</ele>
        <time>2019-08-14T11:25:17Z</time>
      </trkpt>
      <trkpt lat="41.1383140" lon="-4.7878350">
        <ele>811.2</ele>
        <time>2019-08-14T11:25:18Z</time>
      </trkpt>
      <trkpt lat="41.1383480" lon="-4.7878560">
        <ele>811.2</ele>
        <time>2019-08-14T11:25:19Z</time>
      </trkpt>
      <trkpt lat="41.1383820" lon="-4.7878770">
        <ele>811.1</ele>
        <time>2019-08-14T11:25:20Z</time>
      </trkpt>
      <trkpt lat="41.1384140" lon="-4.7878990">
        <ele>811.1</ele>
        <time>2019-08-14T11:25:21Z</time>
      </trkpt>
      <trkpt lat="41.1384470" lon="-4.7879180">
        <ele>811.1</ele>
        <time>2019-08-14T11:25:22Z</time>
      </trkpt>
      <trkpt lat="41.1384780" lon="-4.7879360">
        <ele>811.1</ele>
        <time>2019-08-14T11:25:23Z</time>
      </trkpt>
      <trkpt lat="41.1385080" lon="-4.7879520">
        <ele>811.1</ele>
        <time>2019-08-14T11:25:24Z</time>
      </trkpt>
      <trkpt lat="41.1385370" lon="-4.7879690">
        <ele>811.2</ele>
        <time>2019-08-14T11:25:25Z</time>
      </trkpt>
      <trkpt lat="41.1385660" lon="-4.7879870">
        <ele>811.2</ele>
        <time>2019-08-14T11:25:26Z</time>
      </trkpt>
      <trkpt lat="41.1385950" lon="-4.7880050">
        <ele>811.2</ele>
        <time>2019-08-14T11:25:27Z</time>
      </trkpt>
      <trkpt lat="41.1386240" lon="-4.7880220">
        <ele>811.2</ele>
        <time>2019-08-14T11:25:28Z</time>
      </trkpt>
      <trkpt lat="41.1386530" lon="-4.7880390">
        <ele>811.2</ele>
        <time>2019-08-14T11:25:29Z</time>
      </trkpt>
      <trkpt lat="41.1386840" lon="-4.7880550">
        <ele>811.2</ele>
        <time>2019-08-14T11:25:30Z</time>
      </trkpt>
      <trkpt lat="41.1387120" lon="-4.7880700">
        <ele>811.2</ele>
        <time>2019-08-14T11:25:31Z</time>
      </trkpt>
      <trkpt lat="41.1387380" lon="-4.7880870">
        <ele>811.2</ele>
        <time>2019-08-14T11:25:32Z</time>
      </trkpt>
      <trkpt lat="41.1387650" lon="-4.7881050">
        <ele>811.3</ele>
        <time>2019-08-14T11:25:33Z</time>
      </trkpt>
      <trkpt lat="41.1387940" lon="-4.7881260">
        <ele>811.3</ele>
        <time>2019-08-14T11:25:34Z</time>
      </trkpt>
      <trkpt lat="41.1388240" lon="-4.7881490">
        <ele>811.3</ele>
        <time>2019-08-14T11:25:35Z</time>
      </trkpt>
      <trkpt lat="41.1388550" lon="-4.7881720">
        <ele>811.3</ele>
        <time>2019-08-14T11:25:36Z</time>
      </trkpt>
      <trkpt lat="41.1388890" lon="-4.7881950">
        <ele>811.3</ele>
        <time>2019-08-14T11:25:37Z</time>
      </trkpt>
      <trkpt lat="41.1389250" lon="-4.7882190">
        <ele>811.3</ele>
        <time>2019-08-14T11:25:38Z</time>
      </trkpt>
      <trkpt lat="41.1389600" lon="-4.7882440">
        <ele>811.3</ele>
        <time>2019-08-14T11:25:39Z</time>
      </trkpt>
      <trkpt lat="41.1389960" lon="-4.7882710">
        <ele>811.3</ele>
        <time>2019-08-14T11:25:40Z</time>
      </trkpt>
      <trkpt lat="41.1390320" lon="-4.7882980">
        <ele>811.2</ele>
        <time>2019-08-14T11:25:41Z</time>
      </trkpt>
      <trkpt lat="41.1390680" lon="-4.7883240">
        <ele>811.2</ele>
        <time>2019-08-14T11:25:42Z</time>
      </trkpt>
      <trkpt lat="41.1391060" lon="-4.7883500">
        <ele>811.2</ele>
        <time>2019-08-14T11:25:43Z</time>
      </trkpt>
      <trkpt lat="41.1391450" lon="-4.7883740">
        <ele>811.1</ele>
        <time>2019-08-14T11:25:44Z</time>
      </trkpt>
      <trkpt lat="41.1391850" lon="-4.7883990">
        <ele>811.1</ele>
        <time>2019-08-14T11:25:45Z</time>
      </trkpt>
      <trkpt lat="41.1392270" lon="-4.7884230">
        <ele>811.0</ele>
        <time>2019-08-14T11:25:46Z</time>
      </trkpt>
      <trkpt lat="41.1392680" lon="-4.7884470">
        <ele>811.0</ele>
        <time>2019-08-14T11:25:47Z</time>
      </trkpt>
      <trkpt lat="41.1393090" lon="-4.7884710">
        <ele>811.0</ele>
        <time>2019-08-14T11:25:48Z</time>
      </trkpt>
      <trkpt lat="41.1393540" lon="-4.7884960">
        <ele>810.9</ele>
        <time>2019-08-14T11:25:49Z</time>
      </trkpt>
      <trkpt lat="41.1394020" lon="-4.7885250">
        <ele>810.8</ele>
        <time>2019-08-14T11:25:50Z</time>
      </trkpt>
      <trkpt lat="41.1394500" lon="-4.7885560">
        <ele>810.7</ele>
        <time>2019-08-14T11:25:51Z</time>
      </trkpt>
      <trkpt lat="41.1395030" lon="-4.7885860">
        <ele>810.6</ele>
        <time>2019-08-14T11:25:52Z</time>
      </trkpt>
      <trkpt lat="41.1395560" lon="-4.7886160">
        <ele>810.5</ele>
        <time>2019-08-14T11:25:53Z</time>
      </trkpt>
      <trkpt lat="41.1396120" lon="-4.7886450">
        <ele>810.4</ele>
        <time>2019-08-14T11:25:54Z</time>
      </trkpt>
      <trkpt lat="41.1396670" lon="-4.7886740">
        <ele>810.3</ele>
        <time>2019-08-14T11:25:55Z</time>
      </trkpt>
      <trkpt lat="41.1397200" lon="-4.7887000">
        <ele>810.2</ele>
        <time>2019-08-14T11:25:56Z</time>
      </trkpt>
      <trkpt lat="41.1397730" lon="-4.7887240">
        <ele>810.1</ele>
        <time>2019-08-14T11:25:57Z</time>
      </trkpt>
      <trkpt lat="41.1398250" lon="-4.7887460">
        <ele>810.1</ele>
        <time>2019-08-14T11:25:58Z</time>
      </trkpt>
      <trkpt lat="41.1398770" lon="-4.7887700">
        <ele>810.0</ele>
        <time>2019-08-14T11:25:59Z</time>
      </trkpt>
      <trkpt lat="41.1399290" lon="-4.7887920">
        <ele>809.9</ele>
        <time>2019-08-14T11:26:00Z</time>
      </trkpt>
      <trkpt lat="41.1399800" lon="-4.7888170">
        <ele>809.9</ele>
        <time>2019-08-14T11:26:01Z</time>
      </trkpt>
      <trkpt lat="41.1400320" lon="-4.7888410">
        <ele>809.9</ele>
        <time>2019-08-14T11:26:02Z</time>
      </trkpt>
      <trkpt lat="41.1400830" lon="-4.7888630">
        <ele>809.8</ele>
        <time>2019-08-14T11:26:03Z</time>
      </trkpt>
      <trkpt lat="41.1401320" lon="-4.7888860">
        <ele>809.8</ele>
        <time>2019-08-14T11:26:04Z</time>
      </trkpt>
      <trkpt lat="41.1401800" lon="-4.7889080">
        <ele>809.8</ele>
        <time>2019-08-14T11:26:05Z</time>
      </trkpt>
      <trkpt lat="41.1402260" lon="-4.7889300">
        <ele>809.7</ele>
        <time>2019-08-14T11:26:06Z</time>
      </trkpt>
      <trkpt lat="41.1402740" lon="-4.7889520">
        <ele>809.7</ele>
        <time>2019-08-14T11:26:07Z</time>
      </trkpt>
      <trkpt lat="41.1403220" lon="-4.7889730">
        <ele>809.6</ele>
        <time>2019-08-14T11:26:08Z</time>
      </trkpt>
      <trkpt lat="41.1403710" lon="-4.7889940">
        <ele>809.6</ele>
        <time>2019-08-14T11:26:09Z</time>
      </trkpt>
      <trkpt lat="41.1404220" lon="-4.7890150">
        <ele>809.6</ele>
        <time>2019-08-14T11:26:10Z</time>
      </trkpt>
      <trkpt lat="41.1404730" lon="-4.7890380">
        <ele>809.6</ele>
        <time>2019-08-14T11:26:11Z</time>
      </trkpt>
      <trkpt lat="41.1405220" lon="-4.7890600">
        <ele>809.5</ele>
        <time>2019-08-14T11:26:12Z</time>
      </trkpt>
      <trkpt lat="41.1405720" lon="-4.7890840">
        <ele>809.5</ele>
        <time>2019-08-14T11:26:13Z</time>
      </trkpt>
      <trkpt lat="41.1406230" lon="-4.7891070">
        <ele>809.5</ele>
        <time>2019-08-14T11:26:14Z</time>
      </trkpt>
      <trkpt lat="41.1406740" lon="-4.7891280">
        <ele>809.5</ele>
        <time>2019-08-14T11:26:15Z</time>
      </trkpt>
      <trkpt lat="41.1407250" lon="-4.7891490">
        <ele>809.5</ele>
        <time>2019-08-14T11:26:16Z</time>
      </trkpt>
      <trkpt lat="41.1407750" lon="-4.7891710">
        <ele>809.5</ele>
        <time>2019-08-14T11:26:17Z</time>
      </trkpt>
      <trkpt lat="41.1408240" lon="-4.7891910">
        <ele>809.4</ele>
        <time>2019-08-14T11:26:18Z</time>
      </trkpt>
      <trkpt lat="41.1408730" lon="-4.7892100">
        <ele>809.4</ele>
        <time>2019-08-14T11:26:19Z</time>
      </trkpt>
      <trkpt lat="41.1409220" lon="-4.7892290">
        <ele>809.4</ele>
        <time>2019-08-14T11:26:20Z</time>
      </trkpt>
      <trkpt lat="41.1409690" lon="-4.7892490">
        <ele>809.4</ele>
        <time>2019-08-14T11:26:21Z</time>
      </trkpt>
      <trkpt lat="41.1410180" lon="-4.7892700">
        <ele>809.4</ele>
        <time>2019-08-14T11:26:22Z</time>
      </trkpt>
      <trkpt lat="41.1410670" lon="-4.7892920">
        <ele>809.4</ele>
        <time>2019-08-14T11:26:23Z</time>
      </trkpt>
      <trkpt lat="41.1411150" lon="-4.7893140">
        <ele>809.3</ele>
        <time>2019-08-14T11:26:24Z</time>
      </trkpt>
      <trkpt lat="41.1411640" lon="-4.7893360">
        <ele>809.3</ele>
        <time>2019-08-14T11:26:25Z</time>
      </trkpt>
      <trkpt lat="41.1412130" lon="-4.7893570">
        <ele>809.2</ele>
        <time>2019-08-14T11:26:26Z</time>
      </trkpt>
      <trkpt lat="41.1412610" lon="-4.7893780">
        <ele>809.2</ele>
        <time>2019-08-14T11:26:27Z</time>
      </trkpt>
      <trkpt lat="41.1413090" lon="-4.7893970">
        <ele>809.1</ele>
        <time>2019-08-14T11:26:28Z</time>
      </trkpt>
      <trkpt lat="41.1413580" lon="-4.7894170">
        <ele>809.1</ele>
        <time>2019-08-14T11:26:29Z</time>
      </trkpt>
      <trkpt lat="41.1414070" lon="-4.7894380">
        <ele>809.0</ele>
        <time>2019-08-14T11:26:30Z</time>
      </trkpt>
      <trkpt lat="41.1414560" lon="-4.7894590">
        <ele>809.0</ele>
        <time>2019-08-14T11:26:31Z</time>
      </trkpt>
      <trkpt lat="41.1415060" lon="-4.7894800">
        <ele>809.0</ele>
        <time>2019-08-14T11:26:32Z</time>
      </trkpt>
      <trkpt lat="41.1415540" lon="-4.7895000">
        <ele>808.9</ele>
        <time>2019-08-14T11:26:33Z</time>
      </trkpt>
      <trkpt lat="41.1416020" lon="-4.7895160">
        <ele>808.9</ele>
        <time>2019-08-14T11:26:34Z</time>
      </trkpt>
      <trkpt lat="41.1416480" lon="-4.7895340">
        <ele>808.9</ele>
        <time>2019-08-14T11:26:35Z</time>
      </trkpt>
      <trkpt lat="41.1416940" lon="-4.7895540">
        <ele>808.9</ele>
        <time>2019-08-14T11:26:36Z</time>
      </trkpt>
      <trkpt lat="41.1417420" lon="-4.7895760">
        <ele>808.9</ele>
        <time>2019-08-14T11:26:37Z</time>
      </trkpt>
      <trkpt lat="41.1417920" lon="-4.7895980">
        <ele>809.0</ele>
        <time>2019-08-14T11:26:38Z</time>
      </trkpt>
      <trkpt lat="41.1418420" lon="-4.7896180">
        <ele>809.0</ele>
        <time>2019-08-14T11:26:39Z</time>
      </trkpt>
      <trkpt lat="41.1418910" lon="-4.7896380">
        <ele>809.1</ele>
        <time>2019-08-14T11:26:40Z</time>
      </trkpt>
      <trkpt lat="41.1419370" lon="-4.7896580">
        <ele>809.2</ele>
        <time>2019-08-14T11:26:41Z</time>
      </trkpt>
      <trkpt lat="41.1419820" lon="-4.7896790">
        <ele>809.3</ele>
        <time>2019-08-14T11:26:42Z</time>
      </trkpt>
      <trkpt lat="41.1420260" lon="-4.7897010">
        <ele>809.4</ele>
        <time>2019-08-14T11:26:43Z</time>
      </trkpt>
      <trkpt lat="41.1420700" lon="-4.7897220">
        <ele>809.5</ele>
        <time>2019-08-14T11:26:44Z</time>
      </trkpt>
      <trkpt lat="41.1421180" lon="-4.7897430">
        <ele>809.6</ele>
        <time>2019-08-14T11:26:45Z</time>
      </trkpt>
      <trkpt lat="41.1421660" lon="-4.7897640">
        <ele>809.7</ele>
        <time>2019-08-14T11:26:46Z</time>
      </trkpt>
      <trkpt lat="41.1422150" lon="-4.7897850">
        <ele>809.8</ele>
        <time>2019-08-14T11:26:47Z</time>
      </trkpt>
      <trkpt lat="41.1422640" lon="-4.7898070">
        <ele>809.9</ele>
        <time>2019-08-14T11:26:48Z</time>
      </trkpt>
      <trkpt lat="41.1423150" lon="-4.7898290">
        <ele>810.0</ele>
        <time>2019-08-14T11:26:49Z</time>
      </trkpt>
      <trkpt lat="41.1423660" lon="-4.7898520">
        <ele>810.0</ele>
        <time>2019-08-14T11:26:50Z</time>
      </trkpt>
      <trkpt lat="41.1424180" lon="-4.7898740">
        <ele>810.1</ele>
        <time>2019-08-14T11:26:51Z</time>
      </trkpt>
      <trkpt lat="41.1424710" lon="-4.7898940">
        <ele>810.1</ele>
        <time>2019-08-14T11:26:52Z</time>
      </trkpt>
      <trkpt lat="41.1425210" lon="-4.7899150">
        <ele>810.2</ele>
        <time>2019-08-14T11:26:53Z</time>
      </trkpt>
      <trkpt lat="41.1425700" lon="-4.7899370">
        <ele>810.2</ele>
        <time>2019-08-14T11:26:54Z</time>
      </trkpt>
      <trkpt lat="41.1426190" lon="-4.7899580">
        <ele>810.2</ele>
        <time>2019-08-14T11:26:55Z</time>
      </trkpt>
      <trkpt lat="41.1426680" lon="-4.7899790">
        <ele>810.2</ele>
        <time>2019-08-14T11:26:56Z</time>
      </trkpt>
      <trkpt lat="41.1427190" lon="-4.7900010">
        <ele>810.1</ele>
        <time>2019-08-14T11:26:57Z</time>
      </trkpt>
      <trkpt lat="41.1427690" lon="-4.7900230">
        <ele>810.1</ele>
        <time>2019-08-14T11:26:58Z</time>
      </trkpt>
      <trkpt lat="41.1428210" lon="-4.7900460">
        <ele>810.1</ele>
        <time>2019-08-14T11:26:59Z</time>
      </trkpt>
      <trkpt lat="41.1428730" lon="-4.7900690">
        <ele>810.1</ele>
        <time>2019-08-14T11:27:00Z</time>
      </trkpt>
      <trkpt lat="41.1429210" lon="-4.7900900">
        <ele>810.0</ele>
        <time>2019-08-14T11:27:01Z</time>
      </trkpt>
      <trkpt lat="41.1429690" lon="-4.7901130">
        <ele>810.0</ele>
        <time>2019-08-14T11:27:02Z</time>
      </trkpt>
      <trkpt lat="41.1430180" lon="-4.7901330">
        <ele>810.0</ele>
        <time>2019-08-14T11:27:03Z</time>
      </trkpt>
      <trkpt lat="41.1430680" lon="-4.7901540">
        <ele>809.9</ele>
        <time>2019-08-14T11:27:04Z</time>
      </trkpt>
      <trkpt lat="41.1431180" lon="-4.7901740">
        <ele>809.9</ele>
        <time>2019-08-14T11:27:05Z</time>
      </trkpt>
      <trkpt lat="41.1431680" lon="-4.7901940">
        <ele>809.9</ele>
        <time>2019-08-14T11:27:06Z</time>
      </trkpt>
      <trkpt lat="41.1432170" lon="-4.7902150">
        <ele>809.9</ele>
        <time>2019-08-14T11:27:07Z</time>
      </trkpt>
      <trkpt lat="41.1432670" lon="-4.7902350">
        <ele>809.9</ele>
        <time>2019-08-14T11:27:08Z</time>
      </trkpt>
      <trkpt lat="41.1433150" lon="-4.7902550">
        <ele>810.0</ele>
        <time>2019-08-14T11:27:09Z</time>
      </trkpt>
      <trkpt lat="41.1433620" lon="-4.7902740">
        <ele>810.0</ele>
        <time>2019-08-14T11:27:10Z</time>
      </trkpt>
      <trkpt lat="41.1434090" lon="-4.7902940">
        <ele>810.0</ele>
        <time>2019-08-14T11:27:11Z</time>
      </trkpt>
      <trkpt lat="41.1434550" lon="-4.7903150">
        <ele>810.0</ele>
        <time>2019-08-14T11:27:12Z</time>
      </trkpt>
      <trkpt lat="41.1435000" lon="-4.7903360">
        <ele>810.0</ele>
        <time>2019-08-14T11:27:13Z</time>
      </trkpt>
      <trkpt lat="41.1435450" lon="-4.7903550">
        <ele>810.0</ele>
        <time>2019-08-14T11:27:14Z</time>
      </trkpt>
      <trkpt lat="41.1435920" lon="-4.7903740">
        <ele>810.0</ele>
        <time>2019-08-14T11:27:15Z</time>
      </trkpt>
      <trkpt lat="41.1436370" lon="-4.7903930">
        <ele>810.1</ele>
        <time>2019-08-14T11:27:16Z</time>
      </trkpt>
      <trkpt lat="41.1436820" lon="-4.7904120">
        <ele>810.1</ele>
        <time>2019-08-14T11:27:17Z</time>
      </trkpt>
      <trkpt lat="41.1437270" lon="-4.7904310">
        <ele>810.1</ele>
        <time>2019-08-14T11:27:18Z</time>
      </trkpt>
      <trkpt lat="41.1437720" lon="-4.7904500">
        <ele>810.2</ele>
        <time>2019-08-14T11:27:19Z</time>
      </trkpt>
      <trkpt lat="41.1438170" lon="-4.7904710">
        <ele>810.2</ele>
        <time>2019-08-14T11:27:20Z</time>
      </trkpt>
      <trkpt lat="41.1438620" lon="-4.7904910">
        <ele>810.2</ele>
        <time>2019-08-14T11:27:21Z</time>
      </trkpt>
      <trkpt lat="41.1439080" lon="-4.7905130">
        <ele>810.3</ele>
        <time>2019-08-14T11:27:22Z</time>
      </trkpt>
      <trkpt lat="41.1439540" lon="-4.7905350">
        <ele>810.3</ele>
        <time>2019-08-14T11:27:23Z</time>
      </trkpt>
      <trkpt lat="41.1440000" lon="-4.7905570">
        <ele>810.4</ele>
        <time>2019-08-14T11:27:24Z</time>
      </trkpt>
      <trkpt lat="41.1440460" lon="-4.7905760">
        <ele>810.4</ele>
        <time>2019-08-14T11:27:25Z</time>
      </trkpt>
      <trkpt lat="41.1440910" lon="-4.7905940">
        <ele>810.5</ele>
        <time>2019-08-14T11:27:26Z</time>
      </trkpt>
      <trkpt lat="41.1441360" lon="-4.7906140">
        <ele>810.5</ele>
        <time>2019-08-14T11:27:27Z</time>
      </trkpt>
      <trkpt lat="41.1441830" lon="-4.7906350">
        <ele>810.6</ele>
        <time>2019-08-14T11:27:28Z</time>
      </trkpt>
      <trkpt lat="41.1442310" lon="-4.7906580">
        <ele>810.7</ele>
        <time>2019-08-14T11:27:29Z</time>
      </trkpt>
      <trkpt lat="41.1442770" lon="-4.7906800">
        <ele>810.7</ele>
        <time>2019-08-14T11:27:30Z</time>
      </trkpt>
      <trkpt lat="41.1443230" lon="-4.7907010">
        <ele>810.8</ele>
        <time>2019-08-14T11:27:31Z</time>
      </trkpt>
      <trkpt lat="41.1443690" lon="-4.7907230">
        <ele>810.9</ele>
        <time>2019-08-14T11:27:32Z</time>
      </trkpt>
      <trkpt lat="41.1444160" lon="-4.7907460">
        <ele>810.9</ele>
        <time>2019-08-14T11:27:33Z</time>
      </trkpt>
      <trkpt lat="41.1444640" lon="-4.7907700">
        <ele>811.1</ele>
        <time>2019-08-14T11:27:34Z</time>
      </trkpt>
      <trkpt lat="41.1445130" lon="-4.7907960">
        <ele>811.2</ele>
        <time>2019-08-14T11:27:35Z</time>
      </trkpt>
      <trkpt lat="41.1445600" lon="-4.7908210">
        <ele>811.3</ele>
        <time>2019-08-14T11:27:36Z</time>
      </trkpt>
      <trkpt lat="41.1446060" lon="-4.7908440">
        <ele>811.4</ele>
        <time>2019-08-14T11:27:37Z</time>
      </trkpt>
      <trkpt lat="41.1446510" lon="-4.7908670">
        <ele>811.5</ele>
        <time>2019-08-14T11:27:38Z</time>
      </trkpt>
      <trkpt lat="41.1446980" lon="-4.7908880">
        <ele>811.6</ele>
        <time>2019-08-14T11:27:39Z</time>
      </trkpt>
      <trkpt lat="41.1447440" lon="-4.7909110">
        <ele>811.7</ele>
        <time>2019-08-14T11:27:40Z</time>
      </trkpt>
      <trkpt lat="41.1447900" lon="-4.7909350">
        <ele>811.8</ele>
        <time>2019-08-14T11:27:41Z</time>
      </trkpt>
      <trkpt lat="41.1448370" lon="-4.7909600">
        <ele>811.9</ele>
        <time>2019-08-14T11:27:42Z</time>
      </trkpt>
      <trkpt lat="41.1448830" lon="-4.7909830">
        <ele>811.9</ele>
        <time>2019-08-14T11:27:43Z</time>
      </trkpt>
      <trkpt lat="41.1449300" lon="-4.7910060">
        <ele>812.0</ele>
        <time>2019-08-14T11:27:44Z</time>
      </trkpt>
      <trkpt lat="41.1449780" lon="-4.7910280">
        <ele>811.9</ele>
        <time>2019-08-14T11:27:45Z</time>
      </trkpt>
      <trkpt lat="41.1450260" lon="-4.7910490">
        <ele>811.9</ele>
        <time>2019-08-14T11:27:46Z</time>
      </trkpt>
      <trkpt lat="41.1450730" lon="-4.7910700">
        <ele>811.9</ele>
        <time>2019-08-14T11:27:47Z</time>
      </trkpt>
      <trkpt lat="41.1451180" lon="-4.7910890">
        <ele>811.8</ele>
        <time>2019-08-14T11:27:48Z</time>
      </trkpt>
      <trkpt lat="41.1451610" lon="-4.7911100">
        <ele>811.7</ele>
        <time>2019-08-14T11:27:49Z</time>
      </trkpt>
      <trkpt lat="41.1452020" lon="-4.7911310">
        <ele>811.6</ele>
        <time>2019-08-14T11:27:50Z</time>
      </trkpt>
      <trkpt lat="41.1452410" lon="-4.7911500">
        <ele>811.6</ele>
        <time>2019-08-14T11:27:51Z</time>
      </trkpt>
      <trkpt lat="41.1452780" lon="-4.7911690">
        <ele>811.5</ele>
        <time>2019-08-14T11:27:52Z</time>
      </trkpt>
      <trkpt lat="41.1453130" lon="-4.7911890">
        <ele>811.4</ele>
        <time>2019-08-14T11:27:53Z</time>
      </trkpt>
      <trkpt lat="41.1453490" lon="-4.7912050">
        <ele>811.4</ele>
        <time>2019-08-14T11:27:54Z</time>
      </trkpt>
      <trkpt lat="41.1453870" lon="-4.7912210">
        <ele>811.3</ele>
        <time>2019-08-14T11:27:55Z</time>
      </trkpt>
      <trkpt lat="41.1454250" lon="-4.7912400">
        <ele>811.2</ele>
        <time>2019-08-14T11:27:56Z</time>
      </trkpt>
      <trkpt lat="41.1454660" lon="-4.7912610">
        <ele>811.1</ele>
        <time>2019-08-14T11:27:57Z</time>
      </trkpt>
      <trkpt lat="41.1455070" lon="-4.7912810">
        <ele>811.1</ele>
        <time>2019-08-14T11:27:58Z</time>
      </trkpt>
      <trkpt lat="41.1455480" lon="-4.7913000">
        <ele>810.9</ele>
        <time>2019-08-14T11:27:59Z</time>
      </trkpt>
      <trkpt lat="41.1455870" lon="-4.7913180">
        <ele>810.8</ele>
        <time>2019-08-14T11:28:00Z</time>
      </trkpt>
      <trkpt lat="41.1456230" lon="-4.7913370">
        <ele>810.7</ele>
        <time>2019-08-14T11:28:01Z</time>
      </trkpt>
      <trkpt lat="41.1456590" lon="-4.7913540">
        <ele>810.6</ele>
        <time>2019-08-14T11:28:02Z</time>
      </trkpt>
      <trkpt lat="41.1456950" lon="-4.7913670">
        <ele>810.5</ele>
        <time>2019-08-14T11:28:03Z</time>
      </trkpt>
      <trkpt lat="41.1457300" lon="-4.7913820">
        <ele>810.5</ele>
        <time>2019-08-14T11:28:04Z</time>
      </trkpt>
      <trkpt lat="41.1457670" lon="-4.7913990">
        <ele>810.4</ele>
        <time>2019-08-14T11:28:05Z</time>
      </trkpt>
      <trkpt lat="41.1458060" lon="-4.7914200">
        <ele>810.2</ele>
        <time>2019-08-14T11:28:06Z</time>
      </trkpt>
      <trkpt lat="41.1458460" lon="-4.7914420">
        <ele>810.1</ele>
        <time>2019-08-14T11:28:07Z</time>
      </trkpt>
      <trkpt lat="41.1458880" lon="-4.7914640">
        <ele>810.0</ele>
        <time>2019-08-14T11:28:08Z</time>
      </trkpt>
      <trkpt lat="41.1459310" lon="-4.7914860">
        <ele>809.8</ele>
        <time>2019-08-14T11:28:09Z</time>
      </trkpt>
      <trkpt lat="41.1459760" lon="-4.7915070">
        <ele>809.7</ele>
        <time>2019-08-14T11:28:10Z</time>
      </trkpt>
      <trkpt lat="41.1460200" lon="-4.7915260">
        <ele>809.6</ele>
        <time>2019-08-14T11:28:11Z</time>
      </trkpt>
      <trkpt lat="41.1460660" lon="-4.7915450">
        <ele>809.5</ele>
        <time>2019-08-14T11:28:12Z</time>
      </trkpt>
      <trkpt lat="41.1461110" lon="-4.7915650">
        <ele>809.4</ele>
        <time>2019-08-14T11:28:13Z</time>
      </trkpt>
      <trkpt lat="41.1461550" lon="-4.7915850">
        <ele>809.3</ele>
        <time>2019-08-14T11:28:14Z</time>
      </trkpt>
      <trkpt lat="41.1462000" lon="-4.7916050">
        <ele>809.2</ele>
        <time>2019-08-14T11:28:15Z</time>
      </trkpt>
      <trkpt lat="41.1462450" lon="-4.7916240">
        <ele>809.2</ele>
        <time>2019-08-14T11:28:16Z</time>
      </trkpt>
      <trkpt lat="41.1462910" lon="-4.7916430">
        <ele>809.1</ele>
        <time>2019-08-14T11:28:17Z</time>
      </trkpt>
      <trkpt lat="41.1463380" lon="-4.7916630">
        <ele>809.0</ele>
        <time>2019-08-14T11:28:18Z</time>
      </trkpt>
      <trkpt lat="41.1463830" lon="-4.7916840">
        <ele>809.0</ele>
        <time>2019-08-14T11:28:19Z</time>
      </trkpt>
      <trkpt lat="41.1464290" lon="-4.7917040">
        <ele>809.0</ele>
        <time>2019-08-14T11:28:20Z</time>
      </trkpt>
      <trkpt lat="41.1464760" lon="-4.7917250">
        <ele>808.9</ele>
        <time>2019-08-14T11:28:21Z</time>
      </trkpt>
      <trkpt lat="41.1465210" lon="-4.7917450">
        <ele>808.9</ele>
        <time>2019-08-14T11:28:22Z</time>
      </trkpt>
      <trkpt lat="41.1465630" lon="-4.7917650">
        <ele>808.9</ele>
        <time>2019-08-14T11:28:23Z</time>
      </trkpt>
      <trkpt lat="41.1466040" lon="-4.7917860">
        <ele>808.9</ele>
        <time>2019-08-14T11:28:24Z</time>
      </trkpt>
      <trkpt lat="41.1466450" lon="-4.7918060">
        <ele>809.0</ele>
        <time>2019-08-14T11:28:25Z</time>
      </trkpt>
      <trkpt lat="41.1466840" lon="-4.7918260">
        <ele>809.0</ele>
        <time>2019-08-14T11:28:26Z</time>
      </trkpt>
      <trkpt lat="41.1467230" lon="-4.7918440">
        <ele>809.0</ele>
        <time>2019-08-14T11:28:27Z</time>
      </trkpt>
      <trkpt lat="41.1467600" lon="-4.7918630">
        <ele>809.0</ele>
        <time>2019-08-14T11:28:28Z</time>
      </trkpt>
      <trkpt lat="41.1467980" lon="-4.7918830">
        <ele>809.1</ele>
        <time>2019-08-14T11:28:29Z</time>
      </trkpt>
      <trkpt lat="41.1468360" lon="-4.7919040">
        <ele>809.1</ele>
        <time>2019-08-14T11:28:30Z</time>
      </trkpt>
      <trkpt lat="41.1468740" lon="-4.7919260">
        <ele>809.1</ele>
        <time>2019-08-14T11:28:31Z</time>
      </trkpt>
      <trkpt lat="41.1469120" lon="-4.7919490">
        <ele>809.1</ele>
        <time>2019-08-14T11:28:32Z</time>
      </trkpt>
      <trkpt lat="41.1469500" lon="-4.7919710">
        <ele>809.1</ele>
        <time>2019-08-14T11:28:33Z</time>
      </trkpt>
      <trkpt lat="41.1469890" lon="-4.7919920">
        <ele>809.1</ele>
        <time>2019-08-14T11:28:34Z</time>
      </trkpt>
      <trkpt lat="41.1470280" lon="-4.7920110">
        <ele>809.1</ele>
        <time>2019-08-14T11:28:35Z</time>
      </trkpt>
      <trkpt lat="41.1470680" lon="-4.7920280">
        <ele>809.1</ele>
        <time>2019-08-14T11:28:36Z</time>
      </trkpt>
      <trkpt lat="41.1471070" lon="-4.7920500">
        <ele>809.1</ele>
        <time>2019-08-14T11:28:37Z</time>
      </trkpt>
      <trkpt lat="41.1471460" lon="-4.7920720">
        <ele>809.1</ele>
        <time>2019-08-14T11:28:38Z</time>
      </trkpt>
      <trkpt lat="41.1471870" lon="-4.7920960">
        <ele>809.1</ele>
        <time>2019-08-14T11:28:39Z</time>
      </trkpt>
      <trkpt lat="41.1472260" lon="-4.7921200">
        <ele>809.0</ele>
        <time>2019-08-14T11:28:40Z</time>
      </trkpt>
      <trkpt lat="41.1472640" lon="-4.7921410">
        <ele>809.0</ele>
        <time>2019-08-14T11:28:41Z</time>
      </trkpt>
      <trkpt lat="41.1473000" lon="-4.7921630">
        <ele>809.0</ele>
        <time>2019-08-14T11:28:42Z</time>
      </trkpt>
      <trkpt lat="41.1473370" lon="-4.7921840">
        <ele>809.0</ele>
        <time>2019-08-14T11:28:43Z</time>
      </trkpt>
      <trkpt lat="41.1473730" lon="-4.7922070">
        <ele>808.9</ele>
        <time>2019-08-14T11:28:44Z</time>
      </trkpt>
      <trkpt lat="41.1474110" lon="-4.7922290">
        <ele>808.9</ele>
        <time>2019-08-14T11:28:45Z</time>
      </trkpt>
      <trkpt lat="41.1474500" lon="-4.7922510">
        <ele>808.9</ele>
        <time>2019-08-14T11:28:46Z</time>
      </trkpt>
      <trkpt lat="41.1474920" lon="-4.7922730">
        <ele>808.9</ele>
        <time>2019-08-14T11:28:47Z</time>
      </trkpt>
      <trkpt lat="41.1475350" lon="-4.7922940">
        <ele>809.0</ele>
        <time>2019-08-14T11:28:48Z</time>
      </trkpt>
      <trkpt lat="41.1475800" lon="-4.7923170">
        <ele>808.9</ele>
        <time>2019-08-14T11:28:49Z</time>
      </trkpt>
      <trkpt lat="41.1476270" lon="-4.7923390">
        <ele>808.9</ele>
        <time>2019-08-14T11:28:50Z</time>
      </trkpt>
      <trkpt lat="41.1476740" lon="-4.7923630">
        <ele>808.9</ele>
        <time>2019-08-14T11:28:51Z</time>
      </trkpt>
      <trkpt lat="41.1477220" lon="-4.7923860">
        <ele>808.9</ele>
        <time>2019-08-14T11:28:52Z</time>
      </trkpt>
      <trkpt lat="41.1477670" lon="-4.7924090">
        <ele>808.9</ele>
        <time>2019-08-14T11:28:53Z</time>
      </trkpt>
      <trkpt lat="41.1478110" lon="-4.7924330">
        <ele>808.9</ele>
        <time>2019-08-14T11:28:54Z</time>
      </trkpt>
      <trkpt lat="41.1478540" lon="-4.7924550">
        <ele>808.9</ele>
        <time>2019-08-14T11:28:55Z</time>
      </trkpt>
      <trkpt lat="41.1478950" lon="-4.7924760">
        <ele>808.9</ele>
        <time>2019-08-14T11:28:56Z</time>
      </trkpt>
      <trkpt lat="41.1479350" lon="-4.7924940">
        <ele>808.9</ele>
        <time>2019-08-14T11:28:57Z</time>
      </trkpt>
      <trkpt lat="41.1479750" lon="-4.7925090">
        <ele>809.0</ele>
        <time>2019-08-14T11:28:58Z</time>
      </trkpt>
      <trkpt lat="41.1480120" lon="-4.7925250">
        <ele>809.0</ele>
        <time>2019-08-14T11:28:59Z</time>
      </trkpt>
      <trkpt lat="41.1480480" lon="-4.7925410">
        <ele>809.0</ele>
        <time>2019-08-14T11:29:00Z</time>
      </trkpt>
      <trkpt lat="41.1480820" lon="-4.7925570">
        <ele>809.1</ele>
        <time>2019-08-14T11:29:01Z</time>
      </trkpt>
      <trkpt lat="41.1481150" lon="-4.7925740">
        <ele>809.1</ele>
        <time>2019-08-14T11:29:02Z</time>
      </trkpt>
      <trkpt lat="41.1481500" lon="-4.7925940">
        <ele>809.2</ele>
        <time>2019-08-14T11:29:03Z</time>
      </trkpt>
      <trkpt lat="41.1481870" lon="-4.7926150">
        <ele>809.2</ele>
        <time>2019-08-14T11:29:04Z</time>
      </trkpt>
      <trkpt lat="41.1482260" lon="-4.7926380">
        <ele>809.3</ele>
        <time>2019-08-14T11:29:05Z</time>
      </trkpt>
      <trkpt lat="41.1482650" lon="-4.7926610">
        <ele>809.3</ele>
        <time>2019-08-14T11:29:06Z</time>
      </trkpt>
      <trkpt lat="41.1483060" lon="-4.7926840">
        <ele>809.4</ele>
        <time>2019-08-14T11:29:07Z</time>
      </trkpt>
      <trkpt lat="41.1483470" lon="-4.7927060">
        <ele>809.4</ele>
        <time>2019-08-14T11:29:08Z</time>
      </trkpt>
      <trkpt lat="41.1483890" lon="-4.7927290">
        <ele>809.5</ele>
        <time>2019-08-14T11:29:09Z</time>
      </trkpt>
      <trkpt lat="41.1484320" lon="-4.7927530">
        <ele>809.5</ele>
        <time>2019-08-14T11:29:10Z</time>
      </trkpt>
      <trkpt lat="41.1484750" lon="-4.7927790">
        <ele>809.6</ele>
        <time>2019-08-14T11:29:11Z</time>
      </trkpt>
      <trkpt lat="41.1485180" lon="-4.7928050">
        <ele>809.8</ele>
        <time>2019-08-14T11:29:12Z</time>
      </trkpt>
      <trkpt lat="41.1485600" lon="-4.7928300">
        <ele>809.8</ele>
        <time>2019-08-14T11:29:13Z</time>
      </trkpt>
      <trkpt lat="41.1486030" lon="-4.7928550">
        <ele>809.9</ele>
        <time>2019-08-14T11:29:14Z</time>
      </trkpt>
      <trkpt lat="41.1486470" lon="-4.7928810">
        <ele>810.1</ele>
        <time>2019-08-14T11:29:15Z</time>
      </trkpt>
      <trkpt lat="41.1486910" lon="-4.7929070">
        <ele>810.2</ele>
        <time>2019-08-14T11:29:16Z</time>
      </trkpt>
      <trkpt lat="41.1487360" lon="-4.7929340">
        <ele>810.2</ele>
        <time>2019-08-14T11:29:17Z</time>
      </trkpt>
      <trkpt lat="41.1487830" lon="-4.7929610">
        <ele>810.3</ele>
        <time>2019-08-14T11:29:18Z</time>
      </trkpt>
      <trkpt lat="41.1488310" lon="-4.7929890">
        <ele>810.4</ele>
        <time>2019-08-14T11:29:19Z</time>
      </trkpt>
      <trkpt lat="41.1488780" lon="-4.7930180">
        <ele>810.6</ele>
        <time>2019-08-14T11:29:20Z</time>
      </trkpt>
      <trkpt lat="41.1489230" lon="-4.7930460">
        <ele>810.6</ele>
        <time>2019-08-14T11:29:21Z</time>
      </trkpt>
      <trkpt lat="41.1489690" lon="-4.7930740">
        <ele>810.8</ele>
        <time>2019-08-14T11:29:22Z</time>
      </trkpt>
      <trkpt lat="41.1490160" lon="-4.7931000">
        <ele>810.9</ele>
        <time>2019-08-14T11:29:23Z</time>
      </trkpt>
      <trkpt lat="41.1490620" lon="-4.7931250">
        <ele>811.0</ele>
        <time>2019-08-14T11:29:24Z</time>
      </trkpt>
      <trkpt lat="41.1491100" lon="-4.7931520">
        <ele>811.1</ele>
        <time>2019-08-14T11:29:25Z</time>
      </trkpt>
      <trkpt lat="41.1491580" lon="-4.7931800">
        <ele>811.3</ele>
        <time>2019-08-14T11:29:26Z</time>
      </trkpt>
      <trkpt lat="41.1492060" lon="-4.7932080">
        <ele>811.4</ele>
        <time>2019-08-14T11:29:27Z</time>
      </trkpt>
      <trkpt lat="41.1492530" lon="-4.7932360">
        <ele>811.5</ele>
        <time>2019-08-14T11:29:28Z</time>
      </trkpt>
      <trkpt lat="41.1493010" lon="-4.7932640">
        <ele>811.7</ele>
        <time>2019-08-14T11:29:29Z</time>
      </trkpt>
      <trkpt lat="41.1493480" lon="-4.7932930">
        <ele>811.7</ele>
        <time>2019-08-14T11:29:30Z</time>
      </trkpt>
      <trkpt lat="41.1493950" lon="-4.7933200">
        <ele>811.9</ele>
        <time>2019-08-14T11:29:31Z</time>
      </trkpt>
      <trkpt lat="41.1494420" lon="-4.7933470">
        <ele>812.0</ele>
        <time>2019-08-14T11:29:32Z</time>
      </trkpt>
      <trkpt lat="41.1494880" lon="-4.7933750">
        <ele>812.2</ele>
        <time>2019-08-14T11:29:33Z</time>
      </trkpt>
      <trkpt lat="41.1495340" lon="-4.7934030">
        <ele>812.3</ele>
        <time>2019-08-14T11:29:34Z</time>
      </trkpt>
      <trkpt lat="41.1495800" lon="-4.7934310">
        <ele>812.4</ele>
        <time>2019-08-14T11:29:35Z</time>
      </trkpt>
      <trkpt lat="41.1496260" lon="-4.7934590">
        <ele>812.5</ele>
        <time>2019-08-14T11:29:36Z</time>
      </trkpt>
      <trkpt lat="41.1496730" lon="-4.7934850">
        <ele>812.6</ele>
        <time>2019-08-14T11:29:37Z</time>
      </trkpt>
      <trkpt lat="41.1497200" lon="-4.7935110">
        <ele>812.8</ele>
        <time>2019-08-14T11:29:38Z</time>
      </trkpt>
      <trkpt lat="41.1497650" lon="-4.7935360">
        <ele>812.9</ele>
        <time>2019-08-14T11:29:39Z</time>
      </trkpt>
      <trkpt lat="41.1498100" lon="-4.7935620">
        <ele>813.1</ele>
        <time>2019-08-14T11:29:40Z</time>
      </trkpt>
      <trkpt lat="41.1498530" lon="-4.7935880">
        <ele>813.2</ele>
        <time>2019-08-14T11:29:41Z</time>
      </trkpt>
      <trkpt lat="41.1498960" lon="-4.7936130">
        <ele>813.2</ele>
        <time>2019-08-14T11:29:42Z</time>
      </trkpt>
      <trkpt lat="41.1499390" lon="-4.7936380">
        <ele>813.4</ele>
        <time>2019-08-14T11:29:43Z</time>
      </trkpt>
      <trkpt lat="41.1499820" lon="-4.7936620">
        <ele>813.5</ele>
        <time>2019-08-14T11:29:44Z</time>
      </trkpt>
      <trkpt lat="41.1500260" lon="-4.7936850">
        <ele>813.5</ele>
        <time>2019-08-14T11:29:45Z</time>
      </trkpt>
      <trkpt lat="41.1500690" lon="-4.7937100">
        <ele>813.6</ele>
        <time>2019-08-14T11:29:46Z</time>
      </trkpt>
      <trkpt lat="41.1501110" lon="-4.7937340">
        <ele>813.6</ele>
        <time>2019-08-14T11:29:47Z</time>
      </trkpt>
      <trkpt lat="41.1501530" lon="-4.7937580">
        <ele>813.7</ele>
        <time>2019-08-14T11:29:48Z</time>
      </trkpt>
      <trkpt lat="41.1501960" lon="-4.7937820">
        <ele>813.8</ele>
        <time>2019-08-14T11:29:49Z</time>
      </trkpt>
      <trkpt lat="41.1502380" lon="-4.7938060">
        <ele>813.9</ele>
        <time>2019-08-14T11:29:50Z</time>
      </trkpt>
      <trkpt lat="41.1502800" lon="-4.7938300">
        <ele>813.9</ele>
        <time>2019-08-14T11:29:51Z</time>
      </trkpt>
      <trkpt lat="41.1503210" lon="-4.7938550">
        <ele>814.1</ele>
        <time>2019-08-14T11:29:52Z</time>
      </trkpt>
      <trkpt lat="41.1503610" lon="-4.7938800">
        <ele>814.1</ele>
        <time>2019-08-14T11:29:53Z</time>
      </trkpt>
      <trkpt lat="41.1504030" lon="-4.7939050">
        <ele>814.1</ele>
        <time>2019-08-14T11:29:54Z</time>
      </trkpt>
      <trkpt lat="41.1504440" lon="-4.7939290">
        <ele>814.1</ele>
        <time>2019-08-14T11:29:55Z</time>
      </trkpt>
      <trkpt lat="41.1504830" lon="-4.7939530">
        <ele>814.2</ele>
        <time>2019-08-14T11:29:56Z</time>
      </trkpt>
      <trkpt lat="41.1505220" lon="-4.7939770">
        <ele>814.2</ele>
        <time>2019-08-14T11:29:57Z</time>
      </trkpt>
      <trkpt lat="41.1505610" lon="-4.7940010">
        <ele>814.2</ele>
        <time>2019-08-14T11:29:58Z</time>
      </trkpt>
      <trkpt lat="41.1506000" lon="-4.7940250">
        <ele>814.3</ele>
        <time>2019-08-14T11:29:59Z</time>
      </trkpt>
      <trkpt lat="41.1506400" lon="-4.7940490">
        <ele>814.2</ele>
        <time>2019-08-14T11:30:00Z</time>
      </trkpt>
      <trkpt lat="41.1506790" lon="-4.7940720">
        <ele>814.3</ele>
        <time>2019-08-14T11:30:01Z</time>
      </trkpt>
      <trkpt lat="41.1507180" lon="-4.7940950">
        <ele>814.2</ele>
        <time>2019-08-14T11:30:02Z</time>
      </trkpt>
      <trkpt lat="41.1507560" lon="-4.7941190">
        <ele>814.2</ele>
        <time>2019-08-14T11:30:03Z</time>
      </trkpt>
      <trkpt lat="41.1507950" lon="-4.7941440">
        <ele>814.2</ele>
        <time>2019-08-14T11:30:04Z</time>
      </trkpt>
      <trkpt lat="41.1508340" lon="-4.7941690">
        <ele>814.2</ele>
        <time>2019-08-14T11:30:05Z</time>
      </trkpt>
      <trkpt lat="41.1508730" lon="-4.7941930">
        <ele>814.2</ele>
        <time>2019-08-14T11:30:06Z</time>
      </trkpt>
      <trkpt lat="41.1509100" lon="-4.7942180">
        <ele>814.1</ele>
        <time>2019-08-14T11:30:07Z</time>
      </trkpt>
      <trkpt lat="41.1509470" lon="-4.7942420">
        <ele>814.1</ele>
        <time>2019-08-14T11:30:08Z</time>
      </trkpt>
      <trkpt lat="41.1509860" lon="-4.7942650">
        <ele>814.0</ele>
        <time>2019-08-14T11:30:09Z</time>
      </trkpt>
      <trkpt lat="41.1510240" lon="-4.7942880">
        <ele>814.0</ele>
        <time>2019-08-14T11:30:10Z</time>
      </trkpt>
      <trkpt lat="41.1510630" lon="-4.7943110">
        <ele>813.9</ele>
        <time>2019-08-14T11:30:11Z</time>
      </trkpt>
      <trkpt lat="41.1511020" lon="-4.7943340">
        <ele>813.8</ele>
        <time>2019-08-14T11:30:12Z</time>
      </trkpt>
      <trkpt lat="41.1511430" lon="-4.7943580">
        <ele>813.8</ele>
        <time>2019-08-14T11:30:13Z</time>
      </trkpt>
      <trkpt lat="41.1511830" lon="-4.7943820">
        <ele>813.7</ele>
        <time>2019-08-14T11:30:14Z</time>
      </trkpt>
      <trkpt lat="41.1512240" lon="-4.7944060">
        <ele>813.7</ele>
        <time>2019-08-14T11:30:15Z</time>
      </trkpt>
      <trkpt lat="41.1512650" lon="-4.7944300">
        <ele>813.6</ele>
        <time>2019-08-14T11:30:16Z</time>
      </trkpt>
      <trkpt lat="41.1513030" lon="-4.7944520">
        <ele>813.5</ele>
        <time>2019-08-14T11:30:17Z</time>
      </trkpt>
      <trkpt lat="41.1513410" lon="-4.7944750">
        <ele>813.4</ele>
        <time>2019-08-14T11:30:18Z</time>
      </trkpt>
      <trkpt lat="41.1513810" lon="-4.7944980">
        <ele>813.4</ele>
        <time>2019-08-14T11:30:19Z</time>
      </trkpt>
      <trkpt lat="41.1514220" lon="-4.7945200">
        <ele>813.3</ele>
        <time>2019-08-14T11:30:20Z</time>
      </trkpt>
      <trkpt lat="41.1514630" lon="-4.7945440">
        <ele>813.3</ele>
        <time>2019-08-14T11:30:21Z</time>
      </trkpt>
      <trkpt lat="41.1515040" lon="-4.7945690">
        <ele>813.2</ele>
        <time>2019-08-14T11:30:22Z</time>
      </trkpt>
      <trkpt lat="41.1515460" lon="-4.7945940">
        <ele>813.1</ele>
        <time>2019-08-14T11:30:23Z</time>
      </trkpt>
      <trkpt lat="41.1515880" lon="-4.7946170">
        <ele>813.1</ele>
        <time>2019-08-14T11:30:24Z</time>
      </trkpt>
      <trkpt lat="41.1516280" lon="-4.7946410">
        <ele>813.0</ele>
        <time>2019-08-14T11:30:25Z</time>
      </trkpt>
      <trkpt lat="41.1516690" lon="-4.7946670">
        <ele>813.0</ele>
        <time>2019-08-14T11:30:26Z</time>
      </trkpt>
      <trkpt lat="41.1517120" lon="-4.7946920">
        <ele>813.0</ele>
        <time>2019-08-14T11:30:27Z</time>
      </trkpt>
      <trkpt lat="41.1517540" lon="-4.7947170">
        <ele>813.0</ele>
        <time>2019-08-14T11:30:28Z</time>
      </trkpt>
      <trkpt lat="41.1517980" lon="-4.7947400">
        <ele>813.0</ele>
        <time>2019-08-14T11:30:29Z</time>
      </trkpt>
      <trkpt lat="41.1518410" lon="-4.7947650">
        <ele>813.0</ele>
        <time>2019-08-14T11:30:30Z</time>
      </trkpt>
      <trkpt lat="41.1518840" lon="-4.7947910">
        <ele>813.1</ele>
        <time>2019-08-14T11:30:31Z</time>
      </trkpt>
      <trkpt lat="41.1519270" lon="-4.7948180">
        <ele>813.1</ele>
        <time>2019-08-14T11:30:32Z</time>
      </trkpt>
      <trkpt lat="41.1519710" lon="-4.7948450">
        <ele>813.2</ele>
        <time>2019-08-14T11:30:33Z</time>
      </trkpt>
      <trkpt lat="41.1520150" lon="-4.7948710">
        <ele>813.2</ele>
        <time>2019-08-14T11:30:34Z</time>
      </trkpt>
      <trkpt lat="41.1520590" lon="-4.7948960">
        <ele>813.3</ele>
        <time>2019-08-14T11:30:35Z</time>
      </trkpt>
      <trkpt lat="41.1521020" lon="-4.7949220">
        <ele>813.3</ele>
        <time>2019-08-14T11:30:36Z</time>
      </trkpt>
      <trkpt lat="41.1521450" lon="-4.7949470">
        <ele>813.4</ele>
        <time>2019-08-14T11:30:37Z</time>
      </trkpt>
      <trkpt lat="41.1521890" lon="-4.7949710">
        <ele>813.4</ele>
        <time>2019-08-14T11:30:38Z</time>
      </trkpt>
      <trkpt lat="41.1522330" lon="-4.7949990">
        <ele>813.5</ele>
        <time>2019-08-14T11:30:39Z</time>
      </trkpt>
      <trkpt lat="41.1522770" lon="-4.7950280">
        <ele>813.6</ele>
        <time>2019-08-14T11:30:40Z</time>
      </trkpt>
      <trkpt lat="41.1523230" lon="-4.7950580">
        <ele>813.6</ele>
        <time>2019-08-14T11:30:41Z</time>
      </trkpt>
      <trkpt lat="41.1523670" lon="-4.7950870">
        <ele>813.6</ele>
        <time>2019-08-14T11:30:42Z</time>
      </trkpt>
      <trkpt lat="41.1524100" lon="-4.7951140">
        <ele>813.7</ele>
        <time>2019-08-14T11:30:43Z</time>
      </trkpt>
      <trkpt lat="41.1524510" lon="-4.7951390">
        <ele>813.6</ele>
        <time>2019-08-14T11:30:44Z</time>
      </trkpt>
      <trkpt lat="41.1524910" lon="-4.7951620">
        <ele>813.5</ele>
        <time>2019-08-14T11:30:45Z</time>
      </trkpt>
      <trkpt lat="41.1525300" lon="-4.7951860">
        <ele>813.5</ele>
        <time>2019-08-14T11:30:46Z</time>
      </trkpt>
      <trkpt lat="41.1525700" lon="-4.7952100">
        <ele>813.4</ele>
        <time>2019-08-14T11:30:47Z</time>
      </trkpt>
      <trkpt lat="41.1526120" lon="-4.7952350">
        <ele>813.4</ele>
        <time>2019-08-14T11:30:48Z</time>
      </trkpt>
      <trkpt lat="41.1526570" lon="-4.7952590">
        <ele>813.2</ele>
        <time>2019-08-14T11:30:49Z</time>
      </trkpt>
      <trkpt lat="41.1527020" lon="-4.7952860">
        <ele>813.2</ele>
        <time>2019-08-14T11:30:50Z</time>
      </trkpt>
      <trkpt lat="41.1527490" lon="-4.7953140">
        <ele>813.0</ele>
        <time>2019-08-14T11:30:51Z</time>
      </trkpt>
      <trkpt lat="41.1527950" lon="-4.7953430">
        <ele>813.0</ele>
        <time>2019-08-14T11:30:52Z</time>
      </trkpt>
      <trkpt lat="41.1528420" lon="-4.7953680">
        <ele>812.9</ele>
        <time>2019-08-14T11:30:53Z</time>
      </trkpt>
      <trkpt lat="41.1528880" lon="-4.7953930">
        <ele>812.8</ele>
        <time>2019-08-14T11:30:54Z</time>
      </trkpt>
      <trkpt lat="41.1529320" lon="-4.7954200">
        <ele>812.8</ele>
        <time>2019-08-14T11:30:55Z</time>
      </trkpt>
      <trkpt lat="41.1529750" lon="-4.7954470">
        <ele>812.7</ele>
        <time>2019-08-14T11:30:56Z</time>
      </trkpt>
      <trkpt lat="41.1530190" lon="-4.7954720">
        <ele>812.7</ele>
        <time>2019-08-14T11:30:57Z</time>
      </trkpt>
      <trkpt lat="41.1530630" lon="-4.7954990">
        <ele>812.6</ele>
        <time>2019-08-14T11:30:58Z</time>
      </trkpt>
      <trkpt lat="41.1531090" lon="-4.7955250">
        <ele>812.5</ele>
        <time>2019-08-14T11:30:59Z</time>
      </trkpt>
      <trkpt lat="41.1531570" lon="-4.7955520">
        <ele>812.4</ele>
        <time>2019-08-14T11:31:00Z</time>
      </trkpt>
      <trkpt lat="41.1532050" lon="-4.7955770">
        <ele>812.4</ele>
        <time>2019-08-14T11:31:01Z</time>
      </trkpt>
      <trkpt lat="41.1532550" lon="-4.7956010">
        <ele>812.3</ele>
        <time>2019-08-14T11:31:02Z</time>
      </trkpt>
      <trkpt lat="41.1533070" lon="-4.7956240">
        <ele>812.2</ele>
        <time>2019-08-14T11:31:03Z</time>
      </trkpt>
      <trkpt lat="41.1533570" lon="-4.7956480">
        <ele>812.1</ele>
        <time>2019-08-14T11:31:04Z</time>
      </trkpt>
      <trkpt lat="41.1534070" lon="-4.7956710">
        <ele>812.0</ele>
        <time>2019-08-14T11:31:05Z</time>
      </trkpt>
      <trkpt lat="41.1534570" lon="-4.7956920">
        <ele>811.9</ele>
        <time>2019-08-14T11:31:06Z</time>
      </trkpt>
      <trkpt lat="41.1535070" lon="-4.7957150">
        <ele>812.0</ele>
        <time>2019-08-14T11:31:07Z</time>
      </trkpt>
      <trkpt lat="41.1535570" lon="-4.7957380">
        <ele>811.9</ele>
        <time>2019-08-14T11:31:08Z</time>
      </trkpt>
      <trkpt lat="41.1536100" lon="-4.7957600">
        <ele>811.9</ele>
        <time>2019-08-14T11:31:09Z</time>
      </trkpt>
      <trkpt lat="41.1536640" lon="-4.7957810">
        <ele>811.8</ele>
        <time>2019-08-14T11:31:10Z</time>
      </trkpt>
      <trkpt lat="41.1537190" lon="-4.7958020">
        <ele>811.9</ele>
        <time>2019-08-14T11:31:11Z</time>
      </trkpt>
      <trkpt lat="41.1537740" lon="-4.7958220">
        <ele>811.9</ele>
        <time>2019-08-14T11:31:12Z</time>
      </trkpt>
      <trkpt lat="41.1538280" lon="-4.7958410">
        <ele>812.0</ele>
        <time>2019-08-14T11:31:13Z</time>
      </trkpt>
      <trkpt lat="41.1538810" lon="-4.7958610">
        <ele>811.9</ele>
        <time>2019-08-14T11:31:14Z</time>
      </trkpt>
      <trkpt lat="41.1539320" lon="-4.7958820">
        <ele>812.0</ele>
        <time>2019-08-14T11:31:15Z</time>
      </trkpt>
      <trkpt lat="41.1539820" lon="-4.7959000">
        <ele>812.0</ele>
        <time>2019-08-14T11:31:16Z</time>
      </trkpt>
      <trkpt lat="41.1540300" lon="-4.7959170">
        <ele>811.9</ele>
        <time>2019-08-14T11:31:17Z</time>
      </trkpt>
      <trkpt lat="41.1540760" lon="-4.7959360">
        <ele>812.0</ele>
        <time>2019-08-14T11:31:18Z</time>
      </trkpt>
      <trkpt lat="41.1541230" lon="-4.7959560">
        <ele>811.9</ele>
        <time>2019-08-14T11:31:19Z</time>
      </trkpt>
      <trkpt lat="41.1541730" lon="-4.7959750">
        <ele>811.9</ele>
        <time>2019-08-14T11:31:20Z</time>
      </trkpt>
      <trkpt lat="41.1542240" lon="-4.7959960">
        <ele>811.8</ele>
        <time>2019-08-14T11:31:21Z</time>
      </trkpt>
      <trkpt lat="41.1542730" lon="-4.7960220">
        <ele>811.6</ele>
        <time>2019-08-14T11:31:22Z</time>
      </trkpt>
      <trkpt lat="41.1543240" lon="-4.7960530">
        <ele>811.6</ele>
        <time>2019-08-14T11:31:23Z</time>
      </trkpt>
      <trkpt lat="41.1543770" lon="-4.7960880">
        <ele>811.3</ele>
        <time>2019-08-14T11:31:24Z</time>
      </trkpt>
      <trkpt lat="41.1544300" lon="-4.7961230">
        <ele>811.1</ele>
        <time>2019-08-14T11:31:25Z</time>
      </trkpt>
      <trkpt lat="41.1544840" lon="-4.7961610">
        <ele>811.0</ele>
        <time>2019-08-14T11:31:26Z</time>
      </trkpt>
      <trkpt lat="41.1545380" lon="-4.7962000">
        <ele>810.8</ele>
        <time>2019-08-14T11:31:27Z</time>
      </trkpt>
      <trkpt lat="41.1545920" lon="-4.7962390">
        <ele>810.6</ele>
        <time>2019-08-14T11:31:28Z</time>
      </trkpt>
      <trkpt lat="41.1546470" lon="-4.7962770">
        <ele>810.5</ele>
        <time>2019-08-14T11:31:29Z</time>
      </trkpt>
      <trkpt lat="41.1547030" lon="-4.7963160">
        <ele>810.4</ele>
        <time>2019-08-14T11:31:30Z</time>
      </trkpt>
      <trkpt lat="41.1547590" lon="-4.7963540">
        <ele>810.2</ele>
        <time>2019-08-14T11:31:31Z</time>
      </trkpt>
      <trkpt lat="41.1548140" lon="-4.7963920">
        <ele>810.1</ele>
        <time>2019-08-14T11:31:32Z</time>
      </trkpt>
      <trkpt lat="41.1548690" lon="-4.7964280">
        <ele>810.0</ele>
        <time>2019-08-14T11:31:33Z</time>
      </trkpt>
      <trkpt lat="41.1549240" lon="-4.7964650">
        <ele>810.0</ele>
        <time>2019-08-14T11:31:34Z</time>
      </trkpt>
      <trkpt lat="41.1549790" lon="-4.7965020">
        <ele>809.9</ele>
        <time>2019-08-14T11:31:35Z</time>
      </trkpt>
      <trkpt lat="41.1550350" lon="-4.7965360">
        <ele>810.0</ele>
        <time>2019-08-14T11:31:36Z</time>
      </trkpt>
      <trkpt lat="41.1550900" lon="-4.7965700">
        <ele>810.0</ele>
        <time>2019-08-14T11:31:37Z</time>
      </trkpt>
      <trkpt lat="41.1551450" lon="-4.7966020">
        <ele>809.9</ele>
        <time>2019-08-14T11:31:38Z</time>
      </trkpt>
      <trkpt lat="41.1552010" lon="-4.7966340">
        <ele>809.9</ele>
        <time>2019-08-14T11:31:39Z</time>
      </trkpt>
      <trkpt lat="41.1552570" lon="-4.7966630">
        <ele>809.9</ele>
        <time>2019-08-14T11:31:40Z</time>
      </trkpt>
      <trkpt lat="41.1553120" lon="-4.7966910">
        <ele>809.9</ele>
        <time>2019-08-14T11:31:41Z</time>
      </trkpt>
      <trkpt lat="41.1553660" lon="-4.7967180">
        <ele>809.8</ele>
        <time>2019-08-14T11:31:42Z</time>
      </trkpt>
      <trkpt lat="41.1554200" lon="-4.7967440">
        <ele>809.8</ele>
        <time>2019-08-14T11:31:43Z</time>
      </trkpt>
      <trkpt lat="41.1554730" lon="-4.7967670">
        <ele>809.7</ele>
        <time>2019-08-14T11:31:44Z</time>
      </trkpt>
      <trkpt lat="41.1555240" lon="-4.7967900">
        <ele>809.7</ele>
        <time>2019-08-14T11:31:45Z</time>
      </trkpt>
      <trkpt lat="41.1555750" lon="-4.7968100">
        <ele>809.7</ele>
        <time>2019-08-14T11:31:46Z</time>
      </trkpt>
      <trkpt lat="41.1556240" lon="-4.7968280">
        <ele>809.6</ele>
        <time>2019-08-14T11:31:47Z</time>
      </trkpt>
      <trkpt lat="41.1556710" lon="-4.7968450">
        <ele>809.6</ele>
        <time>2019-08-14T11:31:48Z</time>
      </trkpt>
      <trkpt lat="41.1557180" lon="-4.7968590">
        <ele>809.7</ele>
        <time>2019-08-14T11:31:49Z</time>
      </trkpt>
      <trkpt lat="41.1557620" lon="-4.7968720">
        <ele>809.7</ele>
        <time>2019-08-14T11:31:50Z</time>
      </trkpt>
      <trkpt lat="41.1558060" lon="-4.7968840">
        <ele>809.8</ele>
        <time>2019-08-14T11:31:51Z</time>
      </trkpt>
      <trkpt lat="41.1558490" lon="-4.7968930">
        <ele>809.9</ele>
        <time>2019-08-14T11:31:52Z</time>
      </trkpt>
      <trkpt lat="41.1558890" lon="-4.7969010">
        <ele>809.9</ele>
        <time>2019-08-14T11:31:53Z</time>
      </trkpt>
      <trkpt lat="41.1559270" lon="-4.7969080">
        <ele>810.0</ele>
        <time>2019-08-14T11:31:54Z</time>
      </trkpt>
      <trkpt lat="41.1559630" lon="-4.7969150">
        <ele>810.1</ele>
        <time>2019-08-14T11:31:55Z</time>
      </trkpt>
      <trkpt lat="41.1559960" lon="-4.7969210">
        <ele>810.1</ele>
        <time>2019-08-14T11:31:56Z</time>
      </trkpt>
      <trkpt lat="41.1560260" lon="-4.7969240">
        <ele>810.2</ele>
        <time>2019-08-14T11:31:57Z</time>
      </trkpt>
      <trkpt lat="41.1560570" lon="-4.7969270">
        <ele>810.3</ele>
        <time>2019-08-14T11:31:58Z</time>
      </trkpt>
      <trkpt lat="41.1560870" lon="-4.7969320">
        <ele>810.4</ele>
        <time>2019-08-14T11:31:59Z</time>
      </trkpt>
      <trkpt lat="41.1561180" lon="-4.7969390">
        <ele>810.5</ele>
        <time>2019-08-14T11:32:00Z</time>
      </trkpt>
      <trkpt lat="41.1561460" lon="-4.7969450">
        <ele>810.6</ele>
        <time>2019-08-14T11:32:01Z</time>
      </trkpt>
      <trkpt lat="41.1561740" lon="-4.7969510">
        <ele>810.7</ele>
        <time>2019-08-14T11:32:02Z</time>
      </trkpt>
      <trkpt lat="41.1562010" lon="-4.7969560">
        <ele>810.7</ele>
        <time>2019-08-14T11:32:03Z</time>
      </trkpt>
      <trkpt lat="41.1562490" lon="-4.7969670">
        <ele>810.9</ele>
        <time>2019-08-14T11:32:05Z</time>
      </trkpt>
      <trkpt lat="41.1562920" lon="-4.7969700">
        <ele>811.0</ele>
        <time>2019-08-14T11:32:07Z</time>
      </trkpt>
      <trkpt lat="41.1563190" lon="-4.7969700">
        <ele>811.1</ele>
        <time>2019-08-14T11:32:09Z</time>
      </trkpt>
      <trkpt lat="41.1563510" lon="-4.7970410">
        <ele>811.2</ele>
        <time>2019-08-14T11:33:57Z</time>
      </trkpt>
      <trkpt lat="41.1563550" lon="-4.7970800">
        <ele>811.3</ele>
        <time>2019-08-14T11:33:58Z</time>
      </trkpt>
      <trkpt lat="41.1563600" lon="-4.7971230">
        <ele>811.3</ele>
        <time>2019-08-14T11:33:59Z</time>
      </trkpt>
      <trkpt lat="41.1563680" lon="-4.7971680">
        <ele>811.4</ele>
        <time>2019-08-14T11:34:00Z</time>
      </trkpt>
      <trkpt lat="41.1563750" lon="-4.7972150">
        <ele>811.5</ele>
        <time>2019-08-14T11:34:01Z</time>
      </trkpt>
      <trkpt lat="41.1563840" lon="-4.7972630">
        <ele>811.5</ele>
        <time>2019-08-14T11:34:02Z</time>
      </trkpt>
      <trkpt lat="41.1563910" lon="-4.7973140">
        <ele>811.5</ele>
        <time>2019-08-14T11:34:03Z</time>
      </trkpt>
      <trkpt lat="41.1563980" lon="-4.7973630">
        <ele>811.7</ele>
        <time>2019-08-14T11:34:04Z</time>
      </trkpt>
      <trkpt lat="41.1564040" lon="-4.7974130">
        <ele>811.7</ele>
        <time>2019-08-14T11:34:05Z</time>
      </trkpt>
      <trkpt lat="41.1564070" lon="-4.7974610">
        <ele>811.7</ele>
        <time>2019-08-14T11:34:06Z</time>
      </trkpt>
      <trkpt lat="41.1564110" lon="-4.7975090">
        <ele>811.7</ele>
        <time>2019-08-14T11:34:07Z</time>
      </trkpt>
      <trkpt lat="41.1564130" lon="-4.7975570">
        <ele>811.8</ele>
        <time>2019-08-14T11:34:08Z</time>
      </trkpt>
      <trkpt lat="41.1564140" lon="-4.7976020">
        <ele>811.8</ele>
        <time>2019-08-14T11:34:09Z</time>
      </trkpt>
      <trkpt lat="41.1564160" lon="-4.7976470">
        <ele>811.8</ele>
        <time>2019-08-14T11:34:10Z</time>
      </trkpt>
      <trkpt lat="41.1564180" lon="-4.7976880">
        <ele>811.8</ele>
        <time>2019-08-14T11:34:11Z</time>
      </trkpt>
      <trkpt lat="41.1564220" lon="-4.7977250">
        <ele>811.8</ele>
        <time>2019-08-14T11:34:12Z</time>
      </trkpt>
      <trkpt lat="41.1564290" lon="-4.7977930">
        <ele>811.9</ele>
        <time>2019-08-14T11:34:14Z</time>
      </trkpt>
      <trkpt lat="41.1564260" lon="-4.7978320">
        <ele>811.8</ele>
        <time>2019-08-14T11:34:15Z</time>
      </trkpt>
      <trkpt lat="41.1564200" lon="-4.7978720">
        <ele>811.8</ele>
        <time>2019-08-14T11:34:16Z</time>
      </trkpt>
      <trkpt lat="41.1564150" lon="-4.7979130">
        <ele>811.8</ele>
        <time>2019-08-14T11:34:17Z</time>
      </trkpt>
      <trkpt lat="41.1564110" lon="-4.7979560">
        <ele>811.8</ele>
        <time>2019-08-14T11:34:18Z</time>
      </trkpt>
      <trkpt lat="41.1564060" lon="-4.7980010">
        <ele>811.8</ele>
        <time>2019-08-14T11:34:19Z</time>
      </trkpt>
      <trkpt lat="41.1564020" lon="-4.7980460">
        <ele>811.8</ele>
        <time>2019-08-14T11:34:20Z</time>
      </trkpt>
      <trkpt lat="41.1563990" lon="-4.7980910">
        <ele>811.8</ele>
        <time>2019-08-14T11:34:21Z</time>
      </trkpt>
      <trkpt lat="41.1563960" lon="-4.7981370">
        <ele>811.8</ele>
        <time>2019-08-14T11:34:22Z</time>
      </trkpt>
      <trkpt lat="41.1563910" lon="-4.7981830">
        <ele>811.8</ele>
        <time>2019-08-14T11:34:23Z</time>
      </trkpt>
      <trkpt lat="41.1563860" lon="-4.7982320">
        <ele>811.8</ele>
        <time>2019-08-14T11:34:24Z</time>
      </trkpt>
      <trkpt lat="41.1563810" lon="-4.7982810">
        <ele>811.7</ele>
        <time>2019-08-14T11:34:25Z</time>
      </trkpt>
      <trkpt lat="41.1563750" lon="-4.7983290">
        <ele>811.7</ele>
        <time>2019-08-14T11:34:26Z</time>
      </trkpt>
      <trkpt lat="41.1563700" lon="-4.7983760">
        <ele>811.7</ele>
        <time>2019-08-14T11:34:27Z</time>
      </trkpt>
      <trkpt lat="41.1563640" lon="-4.7984260">
        <ele>811.7</ele>
        <time>2019-08-14T11:34:28Z</time>
      </trkpt>
      <trkpt lat="41.1563580" lon="-4.7984790">
        <ele>811.7</ele>
        <time>2019-08-14T11:34:29Z</time>
      </trkpt>
      <trkpt lat="41.1563520" lon="-4.7985360">
        <ele>811.6</ele>
        <time>2019-08-14T11:34:30Z</time>
      </trkpt>
      <trkpt lat="41.1563450" lon="-4.7985960">
        <ele>811.6</ele>
        <time>2019-08-14T11:34:31Z</time>
      </trkpt>
      <trkpt lat="41.1563360" lon="-4.7986560">
        <ele>811.6</ele>
        <time>2019-08-14T11:34:32Z</time>
      </trkpt>
      <trkpt lat="41.1563260" lon="-4.7987170">
        <ele>811.6</ele>
        <time>2019-08-14T11:34:33Z</time>
      </trkpt>
      <trkpt lat="41.1563130" lon="-4.7987780">
        <ele>811.5</ele>
        <time>2019-08-14T11:34:34Z</time>
      </trkpt>
      <trkpt lat="41.1562980" lon="-4.7988380">
        <ele>811.5</ele>
        <time>2019-08-14T11:34:35Z</time>
      </trkpt>
      <trkpt lat="41.1562830" lon="-4.7988950">
        <ele>811.5</ele>
        <time>2019-08-14T11:34:36Z</time>
      </trkpt>
      <trkpt lat="41.1562660" lon="-4.7989510">
        <ele>811.4</ele>
        <time>2019-08-14T11:34:37Z</time>
      </trkpt>
      <trkpt lat="41.1562470" lon="-4.7990070">
        <ele>811.4</ele>
        <time>2019-08-14T11:34:38Z</time>
      </trkpt>
      <trkpt lat="41.1562260" lon="-4.7990630">
        <ele>811.3</ele>
        <time>2019-08-14T11:34:39Z</time>
      </trkpt>
      <trkpt lat="41.1562060" lon="-4.7991170">
        <ele>811.3</ele>
        <time>2019-08-14T11:34:40Z</time>
      </trkpt>
      <trkpt lat="41.1561850" lon="-4.7991680">
        <ele>811.3</ele>
        <time>2019-08-14T11:34:41Z</time>
      </trkpt>
      <trkpt lat="41.1561640" lon="-4.7992140">
        <ele>811.2</ele>
        <time>2019-08-14T11:34:42Z</time>
      </trkpt>
      <trkpt lat="41.1561430" lon="-4.7992560">
        <ele>811.2</ele>
        <time>2019-08-14T11:34:43Z</time>
      </trkpt>
      <trkpt lat="41.1561220" lon="-4.7992950">
        <ele>811.1</ele>
        <time>2019-08-14T11:34:44Z</time>
      </trkpt>
      <trkpt lat="41.1561020" lon="-4.7993330">
        <ele>811.1</ele>
        <time>2019-08-14T11:34:45Z</time>
      </trkpt>
      <trkpt lat="41.1560860" lon="-4.7993660">
        <ele>811.0</ele>
        <time>2019-08-14T11:34:46Z</time>
      </trkpt>
      <trkpt lat="41.1560610" lon="-4.7994210">
        <ele>811.0</ele>
        <time>2019-08-14T11:34:48Z</time>
      </trkpt>
      <trkpt lat="41.1560250" lon="-4.7994740">
        <ele>810.9</ele>
        <time>2019-08-14T11:34:50Z</time>
      </trkpt>
      <trkpt lat="41.1560030" lon="-4.7995050">
        <ele>810.9</ele>
        <time>2019-08-14T11:34:51Z</time>
      </trkpt>
      <trkpt lat="41.1559800" lon="-4.7995380">
        <ele>810.8</ele>
        <time>2019-08-14T11:34:52Z</time>
      </trkpt>
      <trkpt lat="41.1559570" lon="-4.7995740">
        <ele>810.7</ele>
        <time>2019-08-14T11:34:53Z</time>
      </trkpt>
      <trkpt lat="41.1559320" lon="-4.7996130">
        <ele>810.6</ele>
        <time>2019-08-14T11:34:54Z</time>
      </trkpt>
      <trkpt lat="41.1559070" lon="-4.7996510">
        <ele>810.7</ele>
        <time>2019-08-14T11:34:55Z</time>
      </trkpt>
      <trkpt lat="41.1558810" lon="-4.7996880">
        <ele>810.6</ele>
        <time>2019-08-14T11:34:56Z</time>
      </trkpt>
      <trkpt lat="41.1558540" lon="-4.7997250">
        <ele>810.5</ele>
        <time>2019-08-14T11:34:57Z</time>
      </trkpt>
      <trkpt lat="41.1558270" lon="-4.7997630">
        <ele>810.4</ele>
        <time>2019-08-14T11:34:58Z</time>
      </trkpt>
      <trkpt lat="41.1557990" lon="-4.7998020">
        <ele>810.3</ele>
        <time>2019-08-14T11:34:59Z</time>
      </trkpt>
      <trkpt lat="41.1557710" lon="-4.7998420">
        <ele>810.2</ele>
        <time>2019-08-14T11:35:00Z</time>
      </trkpt>
      <trkpt lat="41.1557420" lon="-4.7998820">
        <ele>810.0</ele>
        <time>2019-08-14T11:35:01Z</time>
      </trkpt>
      <trkpt lat="41.1557130" lon="-4.7999220">
        <ele>809.9</ele>
        <time>2019-08-14T11:35:02Z</time>
      </trkpt>
      <trkpt lat="41.1556830" lon="-4.7999620">
        <ele>809.7</ele>
        <time>2019-08-14T11:35:03Z</time>
      </trkpt>
      <trkpt lat="41.1556520" lon="-4.8000000">
        <ele>809.6</ele>
        <time>2019-08-14T11:35:04Z</time>
      </trkpt>
      <trkpt lat="41.1556220" lon="-4.8000350">
        <ele>809.6</ele>
        <time>2019-08-14T11:35:05Z</time>
      </trkpt>
      <trkpt lat="41.1555930" lon="-4.8000700">
        <ele>809.4</ele>
        <time>2019-08-14T11:35:06Z</time>
      </trkpt>
      <trkpt lat="41.1555610" lon="-4.8001050">
        <ele>809.3</ele>
        <time>2019-08-14T11:35:07Z</time>
      </trkpt>
      <trkpt lat="41.1555290" lon="-4.8001400">
        <ele>809.1</ele>
        <time>2019-08-14T11:35:08Z</time>
      </trkpt>
      <trkpt lat="41.1554940" lon="-4.8001750">
        <ele>809.0</ele>
        <time>2019-08-14T11:35:09Z</time>
      </trkpt>
      <trkpt lat="41.1554590" lon="-4.8002090">
        <ele>809.0</ele>
        <time>2019-08-14T11:35:10Z</time>
      </trkpt>
      <trkpt lat="41.1554220" lon="-4.8002400">
        <ele>809.0</ele>
        <time>2019-08-14T11:35:11Z</time>
      </trkpt>
      <trkpt lat="41.1553830" lon="-4.8002720">
        <ele>808.9</ele>
        <time>2019-08-14T11:35:12Z</time>
      </trkpt>
      <trkpt lat="41.1553440" lon="-4.8003060">
        <ele>808.8</ele>
        <time>2019-08-14T11:35:13Z</time>
      </trkpt>
      <trkpt lat="41.1553050" lon="-4.8003400">
        <ele>808.7</ele>
        <time>2019-08-14T11:35:14Z</time>
      </trkpt>
      <trkpt lat="41.1552630" lon="-4.8003730">
        <ele>808.9</ele>
        <time>2019-08-14T11:35:15Z</time>
      </trkpt>
      <trkpt lat="41.1552230" lon="-4.8004070">
        <ele>808.8</ele>
        <time>2019-08-14T11:35:16Z</time>
      </trkpt>
      <trkpt lat="41.1551830" lon="-4.8004410">
        <ele>808.7</ele>
        <time>2019-08-14T11:35:17Z</time>
      </trkpt>
      <trkpt lat="41.1551430" lon="-4.8004750">
        <ele>808.5</ele>
        <time>2019-08-14T11:35:18Z</time>
      </trkpt>
      <trkpt lat="41.1551040" lon="-4.8005080">
        <ele>808.6</ele>
        <time>2019-08-14T11:35:19Z</time>
      </trkpt>
      <trkpt lat="41.1550650" lon="-4.8005460">
        <ele>808.5</ele>
        <time>2019-08-14T11:35:20Z</time>
      </trkpt>
      <trkpt lat="41.1550290" lon="-4.8005890">
        <ele>808.4</ele>
        <time>2019-08-14T11:35:21Z</time>
      </trkpt>
      <trkpt lat="41.1549960" lon="-4.8006360">
        <ele>808.3</ele>
        <time>2019-08-14T11:35:22Z</time>
      </trkpt>
      <trkpt lat="41.1549690" lon="-4.8006870">
        <ele>807.9</ele>
        <time>2019-08-14T11:35:23Z</time>
      </trkpt>
      <trkpt lat="41.1549460" lon="-4.8007430">
        <ele>807.6</ele>
        <time>2019-08-14T11:35:24Z</time>
      </trkpt>
      <trkpt lat="41.1549250" lon="-4.8008000">
        <ele>807.5</ele>
        <time>2019-08-14T11:35:25Z</time>
      </trkpt>
      <trkpt lat="41.1549060" lon="-4.8008590">
        <ele>807.0</ele>
        <time>2019-08-14T11:35:26Z</time>
      </trkpt>
      <trkpt lat="41.1548880" lon="-4.8009240">
        <ele>806.6</ele>
        <time>2019-08-14T11:35:27Z</time>
      </trkpt>
      <trkpt lat="41.1548680" lon="-4.8009960">
        <ele>806.1</ele>
        <time>2019-08-14T11:35:28Z</time>
      </trkpt>
      <trkpt lat="41.1548470" lon="-4.8010740">
        <ele>805.2</ele>
        <time>2019-08-14T11:35:29Z</time>
      </trkpt>
      <trkpt lat="41.1548240" lon="-4.8011590">
        <ele>804.7</ele>
        <time>2019-08-14T11:35:30Z</time>
      </trkpt>
      <trkpt lat="41.1548020" lon="-4.8012510">
        <ele>804.1</ele>
        <time>2019-08-14T11:35:31Z</time>
      </trkpt>
      <trkpt lat="41.1547840" lon="-4.8013470">
        <ele>803.5</ele>
        <time>2019-08-14T11:35:32Z</time>
      </trkpt>
      <trkpt lat="41.1547690" lon="-4.8014450">
        <ele>802.9</ele>
        <time>2019-08-14T11:35:33Z</time>
      </trkpt>
      <trkpt lat="41.1547520" lon="-4.8015430">
        <ele>802.1</ele>
        <time>2019-08-14T11:35:34Z</time>
      </trkpt>
      <trkpt lat="41.1547350" lon="-4.8016400">
        <ele>801.6</ele>
        <time>2019-08-14T11:35:35Z</time>
      </trkpt>
      <trkpt lat="41.1547220" lon="-4.8017320">
        <ele>801.1</ele>
        <time>2019-08-14T11:35:36Z</time>
      </trkpt>
      <trkpt lat="41.1547130" lon="-4.8018150">
        <ele>800.6</ele>
        <time>2019-08-14T11:35:37Z</time>
      </trkpt>
      <trkpt lat="41.1547080" lon="-4.8018840">
        <ele>800.1</ele>
        <time>2019-08-14T11:35:38Z</time>
      </trkpt>
      <trkpt lat="41.1547130" lon="-4.8019410">
        <ele>799.9</ele>
        <time>2019-08-14T11:35:39Z</time>
      </trkpt>
      <trkpt lat="41.1547290" lon="-4.8019910">
        <ele>799.6</ele>
        <time>2019-08-14T11:35:40Z</time>
      </trkpt>
      <trkpt lat="41.1547560" lon="-4.8020310">
        <ele>799.3</ele>
        <time>2019-08-14T11:35:41Z</time>
      </trkpt>
      <trkpt lat="41.1547960" lon="-4.8020590">
        <ele>799.1</ele>
        <time>2019-08-14T11:35:42Z</time>
      </trkpt>
      <trkpt lat="41.1548420" lon="-4.8020780">
        <ele>799.0</ele>
        <time>2019-08-14T11:35:43Z</time>
      </trkpt>
      <trkpt lat="41.1548910" lon="-4.8020900">
        <ele>798.8</ele>
        <time>2019-08-14T11:35:44Z</time>
      </trkpt>
      <trkpt lat="41.1549390" lon="-4.8020990">
        <ele>798.7</ele>
        <time>2019-08-14T11:35:45Z</time>
      </trkpt>
      <trkpt lat="41.1549880" lon="-4.8021100">
        <ele>798.5</ele>
        <time>2019-08-14T11:35:46Z</time>
      </trkpt>
      <trkpt lat="41.1550370" lon="-4.8021230">
        <ele>798.4</ele>
        <time>2019-08-14T11:35:47Z</time>
      </trkpt>
      <trkpt lat="41.1550850" lon="-4.8021360">
        <ele>798.3</ele>
        <time>2019-08-14T11:35:48Z</time>
      </trkpt>
      <trkpt lat="41.1551330" lon="-4.8021500">
        <ele>798.1</ele>
        <time>2019-08-14T11:35:49Z</time>
      </trkpt>
      <trkpt lat="41.1551810" lon="-4.8021670">
        <ele>798.0</ele>
        <time>2019-08-14T11:35:50Z</time>
      </trkpt>
      <trkpt lat="41.1552310" lon="-4.8021850">
        <ele>797.9</ele>
        <time>2019-08-14T11:35:51Z</time>
      </trkpt>
      <trkpt lat="41.1552820" lon="-4.8021980">
        <ele>797.8</ele>
        <time>2019-08-14T11:35:52Z</time>
      </trkpt>
      <trkpt lat="41.1553360" lon="-4.8022100">
        <ele>797.6</ele>
        <time>2019-08-14T11:35:53Z</time>
      </trkpt>
      <trkpt lat="41.1553920" lon="-4.8022220">
        <ele>797.5</ele>
        <time>2019-08-14T11:35:54Z</time>
      </trkpt>
      <trkpt lat="41.1554500" lon="-4.8022350">
        <ele>797.4</ele>
        <time>2019-08-14T11:35:55Z</time>
      </trkpt>
      <trkpt lat="41.1555100" lon="-4.8022490">
        <ele>797.3</ele>
        <time>2019-08-14T11:35:56Z</time>
      </trkpt>
      <trkpt lat="41.1555710" lon="-4.8022580">
        <ele>797.2</ele>
        <time>2019-08-14T11:35:57Z</time>
      </trkpt>
      <trkpt lat="41.1556320" lon="-4.8022620">
        <ele>797.1</ele>
        <time>2019-08-14T11:35:58Z</time>
      </trkpt>
      <trkpt lat="41.1556930" lon="-4.8022610">
        <ele>797.0</ele>
        <time>2019-08-14T11:35:59Z</time>
      </trkpt>
      <trkpt lat="41.1557540" lon="-4.8022570">
        <ele>796.8</ele>
        <time>2019-08-14T11:36:00Z</time>
      </trkpt>
      <trkpt lat="41.1558140" lon="-4.8022510">
        <ele>796.7</ele>
        <time>2019-08-14T11:36:01Z</time>
      </trkpt>
      <trkpt lat="41.1558730" lon="-4.8022440">
        <ele>796.6</ele>
        <time>2019-08-14T11:36:02Z</time>
      </trkpt>
      <trkpt lat="41.1559310" lon="-4.8022360">
        <ele>796.5</ele>
        <time>2019-08-14T11:36:03Z</time>
      </trkpt>
      <trkpt lat="41.1559880" lon="-4.8022280">
        <ele>796.5</ele>
        <time>2019-08-14T11:36:04Z</time>
      </trkpt>
      <trkpt lat="41.1560460" lon="-4.8022210">
        <ele>796.4</ele>
        <time>2019-08-14T11:36:05Z</time>
      </trkpt>
      <trkpt lat="41.1561040" lon="-4.8022140">
        <ele>796.3</ele>
        <time>2019-08-14T11:36:06Z</time>
      </trkpt>
      <trkpt lat="41.1561610" lon="-4.8022080">
        <ele>796.2</ele>
        <time>2019-08-14T11:36:07Z</time>
      </trkpt>
      <trkpt lat="41.1562180" lon="-4.8021980">
        <ele>796.1</ele>
        <time>2019-08-14T11:36:08Z</time>
      </trkpt>
      <trkpt lat="41.1562760" lon="-4.8021890">
        <ele>795.9</ele>
        <time>2019-08-14T11:36:09Z</time>
      </trkpt>
      <trkpt lat="41.1563370" lon="-4.8021830">
        <ele>795.7</ele>
        <time>2019-08-14T11:36:10Z</time>
      </trkpt>
      <trkpt lat="41.1564000" lon="-4.8021760">
        <ele>795.5</ele>
        <time>2019-08-14T11:36:11Z</time>
      </trkpt>
      <trkpt lat="41.1564640" lon="-4.8021680">
        <ele>795.3</ele>
        <time>2019-08-14T11:36:12Z</time>
      </trkpt>
      <trkpt lat="41.1565290" lon="-4.8021610">
        <ele>795.1</ele>
        <time>2019-08-14T11:36:13Z</time>
      </trkpt>
      <trkpt lat="41.1565930" lon="-4.8021530">
        <ele>794.9</ele>
        <time>2019-08-14T11:36:14Z</time>
      </trkpt>
      <trkpt lat="41.1566590" lon="-4.8021430">
        <ele>794.7</ele>
        <time>2019-08-14T11:36:15Z</time>
      </trkpt>
      <trkpt lat="41.1567240" lon="-4.8021360">
        <ele>794.5</ele>
        <time>2019-08-14T11:36:16Z</time>
      </trkpt>
      <trkpt lat="41.1567900" lon="-4.8021290">
        <ele>794.4</ele>
        <time>2019-08-14T11:36:17Z</time>
      </trkpt>
      <trkpt lat="41.1568570" lon="-4.8021210">
        <ele>794.2</ele>
        <time>2019-08-14T11:36:18Z</time>
      </trkpt>
      <trkpt lat="41.1569260" lon="-4.8021100">
        <ele>794.1</ele>
        <time>2019-08-14T11:36:19Z</time>
      </trkpt>
      <trkpt lat="41.1569970" lon="-4.8021010">
        <ele>793.9</ele>
        <time>2019-08-14T11:36:20Z</time>
      </trkpt>
      <trkpt lat="41.1570680" lon="-4.8020930">
        <ele>793.8</ele>
        <time>2019-08-14T11:36:21Z</time>
      </trkpt>
      <trkpt lat="41.1571400" lon="-4.8020860">
        <ele>793.6</ele>
        <time>2019-08-14T11:36:22Z</time>
      </trkpt>
      <trkpt lat="41.1572130" lon="-4.8020770">
        <ele>793.5</ele>
        <time>2019-08-14T11:36:23Z</time>
      </trkpt>
      <trkpt lat="41.1572850" lon="-4.8020680">
        <ele>793.4</ele>
        <time>2019-08-14T11:36:24Z</time>
      </trkpt>
      <trkpt lat="41.1573560" lon="-4.8020600">
        <ele>793.4</ele>
        <time>2019-08-14T11:36:25Z</time>
      </trkpt>
      <trkpt lat="41.1574280" lon="-4.8020520">
        <ele>793.3</ele>
        <time>2019-08-14T11:36:26Z</time>
      </trkpt>
      <trkpt lat="41.1575010" lon="-4.8020450">
        <ele>793.2</ele>
        <time>2019-08-14T11:36:27Z</time>
      </trkpt>
      <trkpt lat="41.1575740" lon="-4.8020360">
        <ele>793.1</ele>
        <time>2019-08-14T11:36:28Z</time>
      </trkpt>
      <trkpt lat="41.1576460" lon="-4.8020250">
        <ele>793.0</ele>
        <time>2019-08-14T11:36:29Z</time>
      </trkpt>
      <trkpt lat="41.1577170" lon="-4.8020140">
        <ele>792.8</ele>
        <time>2019-08-14T11:36:30Z</time>
      </trkpt>
      <trkpt lat="41.1577870" lon="-4.8020050">
        <ele>792.7</ele>
        <time>2019-08-14T11:36:31Z</time>
      </trkpt>
      <trkpt lat="41.1578570" lon="-4.8019960">
        <ele>792.5</ele>
        <time>2019-08-14T11:36:32Z</time>
      </trkpt>
      <trkpt lat="41.1579270" lon="-4.8019870">
        <ele>792.4</ele>
        <time>2019-08-14T11:36:33Z</time>
      </trkpt>
      <trkpt lat="41.1579970" lon="-4.8019780">
        <ele>792.3</ele>
        <time>2019-08-14T11:36:34Z</time>
      </trkpt>
      <trkpt lat="41.1580670" lon="-4.8019700">
        <ele>792.2</ele>
        <time>2019-08-14T11:36:35Z</time>
      </trkpt>
      <trkpt lat="41.1581380" lon="-4.8019600">
        <ele>792.1</ele>
        <time>2019-08-14T11:36:36Z</time>
      </trkpt>
      <trkpt lat="41.1582090" lon="-4.8019500">
        <ele>792.0</ele>
        <time>2019-08-14T11:36:37Z</time>
      </trkpt>
      <trkpt lat="41.1582800" lon="-4.8019400">
        <ele>791.9</ele>
        <time>2019-08-14T11:36:38Z</time>
      </trkpt>
      <trkpt lat="41.1583510" lon="-4.8019320">
        <ele>791.8</ele>
        <time>2019-08-14T11:36:39Z</time>
      </trkpt>
      <trkpt lat="41.1584230" lon="-4.8019220">
        <ele>791.7</ele>
        <time>2019-08-14T11:36:40Z</time>
      </trkpt>
      <trkpt lat="41.1584940" lon="-4.8019120">
        <ele>791.6</ele>
        <time>2019-08-14T11:36:41Z</time>
      </trkpt>
      <trkpt lat="41.1585670" lon="-4.8019040">
        <ele>791.5</ele>
        <time>2019-08-14T11:36:42Z</time>
      </trkpt>
      <trkpt lat="41.1586380" lon="-4.8018960">
        <ele>791.4</ele>
        <time>2019-08-14T11:36:43Z</time>
      </trkpt>
      <trkpt lat="41.1587110" lon="-4.8018880">
        <ele>791.4</ele>
        <time>2019-08-14T11:36:44Z</time>
      </trkpt>
      <trkpt lat="41.1587830" lon="-4.8018790">
        <ele>791.4</ele>
        <time>2019-08-14T11:36:45Z</time>
      </trkpt>
      <trkpt lat="41.1588540" lon="-4.8018700">
        <ele>791.4</ele>
        <time>2019-08-14T11:36:46Z</time>
      </trkpt>
      <trkpt lat="41.1589240" lon="-4.8018630">
        <ele>791.4</ele>
        <time>2019-08-14T11:36:47Z</time>
      </trkpt>
      <trkpt lat="41.1589920" lon="-4.8018550">
        <ele>791.4</ele>
        <time>2019-08-14T11:36:48Z</time>
      </trkpt>
      <trkpt lat="41.1590570" lon="-4.8018470">
        <ele>791.4</ele>
        <time>2019-08-14T11:36:49Z</time>
      </trkpt>
      <trkpt lat="41.1591200" lon="-4.8018390">
        <ele>791.4</ele>
        <time>2019-08-14T11:36:50Z</time>
      </trkpt>
      <trkpt lat="41.1591820" lon="-4.8018320">
        <ele>791.4</ele>
        <time>2019-08-14T11:36:51Z</time>
      </trkpt>
      <trkpt lat="41.1592410" lon="-4.8018250">
        <ele>791.4</ele>
        <time>2019-08-14T11:36:52Z</time>
      </trkpt>
      <trkpt lat="41.1592990" lon="-4.8018150">
        <ele>791.4</ele>
        <time>2019-08-14T11:36:53Z</time>
      </trkpt>
      <trkpt lat="41.1593560" lon="-4.8018060">
        <ele>791.4</ele>
        <time>2019-08-14T11:36:54Z</time>
      </trkpt>
      <trkpt lat="41.1594130" lon="-4.8017990">
        <ele>791.4</ele>
        <time>2019-08-14T11:36:55Z</time>
      </trkpt>
      <trkpt lat="41.1594720" lon="-4.8017910">
        <ele>791.4</ele>
        <time>2019-08-14T11:36:56Z</time>
      </trkpt>
      <trkpt lat="41.1595310" lon="-4.8017830">
        <ele>791.4</ele>
        <time>2019-08-14T11:36:57Z</time>
      </trkpt>
      <trkpt lat="41.1595900" lon="-4.8017760">
        <ele>791.4</ele>
        <time>2019-08-14T11:36:58Z</time>
      </trkpt>
      <trkpt lat="41.1596500" lon="-4.8017700">
        <ele>791.4</ele>
        <time>2019-08-14T11:36:59Z</time>
      </trkpt>
      <trkpt lat="41.1597120" lon="-4.8017640">
        <ele>791.4</ele>
        <time>2019-08-14T11:37:00Z</time>
      </trkpt>
      <trkpt lat="41.1597730" lon="-4.8017570">
        <ele>791.4</ele>
        <time>2019-08-14T11:37:01Z</time>
      </trkpt>
      <trkpt lat="41.1598340" lon="-4.8017480">
        <ele>791.4</ele>
        <time>2019-08-14T11:37:02Z</time>
      </trkpt>
      <trkpt lat="41.1598930" lon="-4.8017390">
        <ele>791.4</ele>
        <time>2019-08-14T11:37:03Z</time>
      </trkpt>
      <trkpt lat="41.1599510" lon="-4.8017330">
        <ele>791.4</ele>
        <time>2019-08-14T11:37:04Z</time>
      </trkpt>
      <trkpt lat="41.1600100" lon="-4.8017290">
        <ele>791.4</ele>
        <time>2019-08-14T11:37:05Z</time>
      </trkpt>
      <trkpt lat="41.1600680" lon="-4.8017240">
        <ele>791.4</ele>
        <time>2019-08-14T11:37:06Z</time>
      </trkpt>
      <trkpt lat="41.1601260" lon="-4.8017170">
        <ele>791.4</ele>
        <time>2019-08-14T11:37:07Z</time>
      </trkpt>
      <trkpt lat="41.1601850" lon="-4.8017100">
        <ele>791.4</ele>
        <time>2019-08-14T11:37:08Z</time>
      </trkpt>
      <trkpt lat="41.1602440" lon="-4.8017020">
        <ele>791.4</ele>
        <time>2019-08-14T11:37:09Z</time>
      </trkpt>
      <trkpt lat="41.1603030" lon="-4.8016950">
        <ele>791.4</ele>
        <time>2019-08-14T11:37:10Z</time>
      </trkpt>
      <trkpt lat="41.1603600" lon="-4.8016870">
        <ele>791.4</ele>
        <time>2019-08-14T11:37:11Z</time>
      </trkpt>
      <trkpt lat="41.1604180" lon="-4.8016800">
        <ele>791.4</ele>
        <time>2019-08-14T11:37:12Z</time>
      </trkpt>
      <trkpt lat="41.1604750" lon="-4.8016710">
        <ele>791.4</ele>
        <time>2019-08-14T11:37:13Z</time>
      </trkpt>
      <trkpt lat="41.1605330" lon="-4.8016620">
        <ele>791.4</ele>
        <time>2019-08-14T11:37:14Z</time>
      </trkpt>
      <trkpt lat="41.1605900" lon="-4.8016570">
        <ele>791.4</ele>
        <time>2019-08-14T11:37:15Z</time>
      </trkpt>
      <trkpt lat="41.1606470" lon="-4.8016520">
        <ele>791.4</ele>
        <time>2019-08-14T11:37:16Z</time>
      </trkpt>
      <trkpt lat="41.1607040" lon="-4.8016450">
        <ele>791.4</ele>
        <time>2019-08-14T11:37:17Z</time>
      </trkpt>
      <trkpt lat="41.1607590" lon="-4.8016370">
        <ele>791.4</ele>
        <time>2019-08-14T11:37:18Z</time>
      </trkpt>
      <trkpt lat="41.1608100" lon="-4.8016280">
        <ele>791.4</ele>
        <time>2019-08-14T11:37:19Z</time>
      </trkpt>
      <trkpt lat="41.1608620" lon="-4.8016190">
        <ele>791.4</ele>
        <time>2019-08-14T11:37:20Z</time>
      </trkpt>
      <trkpt lat="41.1609150" lon="-4.8016110">
        <ele>791.4</ele>
        <time>2019-08-14T11:37:21Z</time>
      </trkpt>
      <trkpt lat="41.1609700" lon="-4.8016060">
        <ele>791.4</ele>
        <time>2019-08-14T11:37:22Z</time>
      </trkpt>
      <trkpt lat="41.1610260" lon="-4.8016020">
        <ele>791.4</ele>
        <time>2019-08-14T11:37:23Z</time>
      </trkpt>
      <trkpt lat="41.1610810" lon="-4.8015960">
        <ele>791.4</ele>
        <time>2019-08-14T11:37:24Z</time>
      </trkpt>
      <trkpt lat="41.1611360" lon="-4.8015900">
        <ele>791.4</ele>
        <time>2019-08-14T11:37:25Z</time>
      </trkpt>
      <trkpt lat="41.1611900" lon="-4.8015830">
        <ele>791.4</ele>
        <time>2019-08-14T11:37:26Z</time>
      </trkpt>
      <trkpt lat="41.1612450" lon="-4.8015760">
        <ele>791.4</ele>
        <time>2019-08-14T11:37:27Z</time>
      </trkpt>
      <trkpt lat="41.1613000" lon="-4.8015690">
        <ele>791.4</ele>
        <time>2019-08-14T11:37:28Z</time>
      </trkpt>
      <trkpt lat="41.1613560" lon="-4.8015620">
        <ele>791.4</ele>
        <time>2019-08-14T11:37:29Z</time>
      </trkpt>
      <trkpt lat="41.1614120" lon="-4.8015530">
        <ele>791.4</ele>
        <time>2019-08-14T11:37:30Z</time>
      </trkpt>
      <trkpt lat="41.1614680" lon="-4.8015460">
        <ele>791.4</ele>
        <time>2019-08-14T11:37:31Z</time>
      </trkpt>
      <trkpt lat="41.1615200" lon="-4.8015380">
        <ele>791.4</ele>
        <time>2019-08-14T11:37:32Z</time>
      </trkpt>
      <trkpt lat="41.1615710" lon="-4.8015340">
        <ele>791.4</ele>
        <time>2019-08-14T11:37:33Z</time>
      </trkpt>
      <trkpt lat="41.1616190" lon="-4.8015320">
        <ele>791.4</ele>
        <time>2019-08-14T11:37:34Z</time>
      </trkpt>
      <trkpt lat="41.1616630" lon="-4.8015310">
        <ele>791.4</ele>
        <time>2019-08-14T11:37:35Z</time>
      </trkpt>
      <trkpt lat="41.1617060" lon="-4.8015260">
        <ele>791.4</ele>
        <time>2019-08-14T11:37:36Z</time>
      </trkpt>
      <trkpt lat="41.1617500" lon="-4.8015200">
        <ele>791.4</ele>
        <time>2019-08-14T11:37:37Z</time>
      </trkpt>
      <trkpt lat="41.1617970" lon="-4.8015170">
        <ele>791.4</ele>
        <time>2019-08-14T11:37:38Z</time>
      </trkpt>
      <trkpt lat="41.1618470" lon="-4.8015120">
        <ele>791.4</ele>
        <time>2019-08-14T11:37:39Z</time>
      </trkpt>
      <trkpt lat="41.1618980" lon="-4.8015040">
        <ele>791.4</ele>
        <time>2019-08-14T11:37:40Z</time>
      </trkpt>
      <trkpt lat="41.1619510" lon="-4.8014960">
        <ele>791.4</ele>
        <time>2019-08-14T11:37:41Z</time>
      </trkpt>
      <trkpt lat="41.1620050" lon="-4.8014890">
        <ele>791.4</ele>
        <time>2019-08-14T11:37:42Z</time>
      </trkpt>
      <trkpt lat="41.1620620" lon="-4.8014820">
        <ele>791.4</ele>
        <time>2019-08-14T11:37:43Z</time>
      </trkpt>
      <trkpt lat="41.1621200" lon="-4.8014750">
        <ele>791.4</ele>
        <time>2019-08-14T11:37:44Z</time>
      </trkpt>
      <trkpt lat="41.1621770" lon="-4.8014700">
        <ele>791.4</ele>
        <time>2019-08-14T11:37:45Z</time>
      </trkpt>
      <trkpt lat="41.1622330" lon="-4.8014640">
        <ele>791.4</ele>
        <time>2019-08-14T11:37:46Z</time>
      </trkpt>
      <trkpt lat="41.1622870" lon="-4.8014590">
        <ele>791.4</ele>
        <time>2019-08-14T11:37:47Z</time>
      </trkpt>
      <trkpt lat="41.1623380" lon="-4.8014520">
        <ele>791.4</ele>
        <time>2019-08-14T11:37:48Z</time>
      </trkpt>
      <trkpt lat="41.1623890" lon="-4.8014480">
        <ele>791.4</ele>
        <time>2019-08-14T11:37:49Z</time>
      </trkpt>
      <trkpt lat="41.1624420" lon="-4.8014410">
        <ele>791.4</ele>
        <time>2019-08-14T11:37:50Z</time>
      </trkpt>
      <trkpt lat="41.1624980" lon="-4.8014330">
        <ele>791.4</ele>
        <time>2019-08-14T11:37:51Z</time>
      </trkpt>
      <trkpt lat="41.1625560" lon="-4.8014240">
        <ele>791.4</ele>
        <time>2019-08-14T11:37:52Z</time>
      </trkpt>
      <trkpt lat="41.1626150" lon="-4.8014140">
        <ele>791.4</ele>
        <time>2019-08-14T11:37:53Z</time>
      </trkpt>
      <trkpt lat="41.1626740" lon="-4.8014050">
        <ele>791.4</ele>
        <time>2019-08-14T11:37:54Z</time>
      </trkpt>
      <trkpt lat="41.1627320" lon="-4.8013970">
        <ele>791.4</ele>
        <time>2019-08-14T11:37:55Z</time>
      </trkpt>
      <trkpt lat="41.1627910" lon="-4.8013890">
        <ele>791.4</ele>
        <time>2019-08-14T11:37:56Z</time>
      </trkpt>
      <trkpt lat="41.1628460" lon="-4.8013830">
        <ele>791.4</ele>
        <time>2019-08-14T11:37:57Z</time>
      </trkpt>
      <trkpt lat="41.1629000" lon="-4.8013800">
        <ele>791.4</ele>
        <time>2019-08-14T11:37:58Z</time>
      </trkpt>
      <trkpt lat="41.1629530" lon="-4.8013730">
        <ele>791.4</ele>
        <time>2019-08-14T11:37:59Z</time>
      </trkpt>
      <trkpt lat="41.1630070" lon="-4.8013660">
        <ele>791.4</ele>
        <time>2019-08-14T11:38:00Z</time>
      </trkpt>
      <trkpt lat="41.1630620" lon="-4.8013640">
        <ele>791.3</ele>
        <time>2019-08-14T11:38:01Z</time>
      </trkpt>
      <trkpt lat="41.1631170" lon="-4.8013670">
        <ele>791.3</ele>
        <time>2019-08-14T11:38:02Z</time>
      </trkpt>
      <trkpt lat="41.1631720" lon="-4.8013780">
        <ele>791.3</ele>
        <time>2019-08-14T11:38:03Z</time>
      </trkpt>
      <trkpt lat="41.1632280" lon="-4.8013930">
        <ele>791.3</ele>
        <time>2019-08-14T11:38:04Z</time>
      </trkpt>
      <trkpt lat="41.1632840" lon="-4.8014140">
        <ele>791.2</ele>
        <time>2019-08-14T11:38:05Z</time>
      </trkpt>
      <trkpt lat="41.1633390" lon="-4.8014380">
        <ele>791.2</ele>
        <time>2019-08-14T11:38:06Z</time>
      </trkpt>
      <trkpt lat="41.1633930" lon="-4.8014650">
        <ele>791.1</ele>
        <time>2019-08-14T11:38:07Z</time>
      </trkpt>
      <trkpt lat="41.1634470" lon="-4.8014960">
        <ele>791.0</ele>
        <time>2019-08-14T11:38:08Z</time>
      </trkpt>
      <trkpt lat="41.1635000" lon="-4.8015270">
        <ele>790.9</ele>
        <time>2019-08-14T11:38:09Z</time>
      </trkpt>
      <trkpt lat="41.1635530" lon="-4.8015590">
        <ele>790.8</ele>
        <time>2019-08-14T11:38:10Z</time>
      </trkpt>
      <trkpt lat="41.1636050" lon="-4.8015920">
        <ele>790.7</ele>
        <time>2019-08-14T11:38:11Z</time>
      </trkpt>
      <trkpt lat="41.1636580" lon="-4.8016240">
        <ele>790.6</ele>
        <time>2019-08-14T11:38:12Z</time>
      </trkpt>
      <trkpt lat="41.1637130" lon="-4.8016560">
        <ele>790.5</ele>
        <time>2019-08-14T11:38:13Z</time>
      </trkpt>
      <trkpt lat="41.1637690" lon="-4.8016890">
        <ele>790.4</ele>
        <time>2019-08-14T11:38:14Z</time>
      </trkpt>
      <trkpt lat="41.1638250" lon="-4.8017220">
        <ele>790.4</ele>
        <time>2019-08-14T11:38:15Z</time>
      </trkpt>
      <trkpt lat="41.1638810" lon="-4.8017540">
        <ele>790.4</ele>
        <time>2019-08-14T11:38:16Z</time>
      </trkpt>
      <trkpt lat="41.1639370" lon="-4.8017860">
        <ele>790.4</ele>
        <time>2019-08-14T11:38:17Z</time>
      </trkpt>
      <trkpt lat="41.1639920" lon="-4.8018180">
        <ele>790.4</ele>
        <time>2019-08-14T11:38:18Z</time>
      </trkpt>
      <trkpt lat="41.1640460" lon="-4.8018490">
        <ele>790.4</ele>
        <time>2019-08-14T11:38:19Z</time>
      </trkpt>
      <trkpt lat="41.1640990" lon="-4.8018810">
        <ele>790.4</ele>
        <time>2019-08-14T11:38:20Z</time>
      </trkpt>
      <trkpt lat="41.1641510" lon="-4.8019130">
        <ele>790.4</ele>
        <time>2019-08-14T11:38:21Z</time>
      </trkpt>
      <trkpt lat="41.1642030" lon="-4.8019450">
        <ele>790.4</ele>
        <time>2019-08-14T11:38:22Z</time>
      </trkpt>
      <trkpt lat="41.1642570" lon="-4.8019760">
        <ele>790.4</ele>
        <time>2019-08-14T11:38:23Z</time>
      </trkpt>
      <trkpt lat="41.1643090" lon="-4.8020090">
        <ele>790.4</ele>
        <time>2019-08-14T11:38:24Z</time>
      </trkpt>
      <trkpt lat="41.1643620" lon="-4.8020430">
        <ele>790.4</ele>
        <time>2019-08-14T11:38:25Z</time>
      </trkpt>
      <trkpt lat="41.1644160" lon="-4.8020770">
        <ele>790.4</ele>
        <time>2019-08-14T11:38:26Z</time>
      </trkpt>
      <trkpt lat="41.1644700" lon="-4.8021120">
        <ele>790.4</ele>
        <time>2019-08-14T11:38:27Z</time>
      </trkpt>
      <trkpt lat="41.1645230" lon="-4.8021460">
        <ele>790.4</ele>
        <time>2019-08-14T11:38:28Z</time>
      </trkpt>
      <trkpt lat="41.1645750" lon="-4.8021780">
        <ele>790.4</ele>
        <time>2019-08-14T11:38:29Z</time>
      </trkpt>
      <trkpt lat="41.1646290" lon="-4.8022110">
        <ele>790.4</ele>
        <time>2019-08-14T11:38:30Z</time>
      </trkpt>
      <trkpt lat="41.1646820" lon="-4.8022430">
        <ele>790.4</ele>
        <time>2019-08-14T11:38:31Z</time>
      </trkpt>
      <trkpt lat="41.1647350" lon="-4.8022750">
        <ele>790.4</ele>
        <time>2019-08-14T11:38:32Z</time>
      </trkpt>
      <trkpt lat="41.1647900" lon="-4.8023060">
        <ele>790.4</ele>
        <time>2019-08-14T11:38:33Z</time>
      </trkpt>
      <trkpt lat="41.1648440" lon="-4.8023370">
        <ele>790.4</ele>
        <time>2019-08-14T11:38:34Z</time>
      </trkpt>
      <trkpt lat="41.1649000" lon="-4.8023690">
        <ele>790.4</ele>
        <time>2019-08-14T11:38:35Z</time>
      </trkpt>
      <trkpt lat="41.1649560" lon="-4.8023990">
        <ele>790.4</ele>
        <time>2019-08-14T11:38:36Z</time>
      </trkpt>
      <trkpt lat="41.1650120" lon="-4.8024310">
        <ele>790.4</ele>
        <time>2019-08-14T11:38:37Z</time>
      </trkpt>
      <trkpt lat="41.1650670" lon="-4.8024650">
        <ele>790.4</ele>
        <time>2019-08-14T11:38:38Z</time>
      </trkpt>
      <trkpt lat="41.1651170" lon="-4.8024970">
        <ele>790.4</ele>
        <time>2019-08-14T11:38:39Z</time>
      </trkpt>
      <trkpt lat="41.1651660" lon="-4.8025300">
        <ele>790.4</ele>
        <time>2019-08-14T11:38:40Z</time>
      </trkpt>
      <trkpt lat="41.1652130" lon="-4.8025620">
        <ele>790.4</ele>
        <time>2019-08-14T11:38:41Z</time>
      </trkpt>
      <trkpt lat="41.1652590" lon="-4.8025920">
        <ele>790.4</ele>
        <time>2019-08-14T11:38:42Z</time>
      </trkpt>
      <trkpt lat="41.1653070" lon="-4.8026220">
        <ele>790.4</ele>
        <time>2019-08-14T11:38:43Z</time>
      </trkpt>
      <trkpt lat="41.1653550" lon="-4.8026540">
        <ele>790.4</ele>
        <time>2019-08-14T11:38:44Z</time>
      </trkpt>
      <trkpt lat="41.1654040" lon="-4.8026850">
        <ele>790.4</ele>
        <time>2019-08-14T11:38:45Z</time>
      </trkpt>
      <trkpt lat="41.1654540" lon="-4.8027140">
        <ele>790.4</ele>
        <time>2019-08-14T11:38:46Z</time>
      </trkpt>
      <trkpt lat="41.1655040" lon="-4.8027420">
        <ele>790.4</ele>
        <time>2019-08-14T11:38:47Z</time>
      </trkpt>
      <trkpt lat="41.1655560" lon="-4.8027720">
        <ele>790.4</ele>
        <time>2019-08-14T11:38:48Z</time>
      </trkpt>
      <trkpt lat="41.1656070" lon="-4.8028030">
        <ele>790.4</ele>
        <time>2019-08-14T11:38:49Z</time>
      </trkpt>
      <trkpt lat="41.1656590" lon="-4.8028340">
        <ele>790.4</ele>
        <time>2019-08-14T11:38:50Z</time>
      </trkpt>
      <trkpt lat="41.1657110" lon="-4.8028640">
        <ele>790.4</ele>
        <time>2019-08-14T11:38:51Z</time>
      </trkpt>
      <trkpt lat="41.1657630" lon="-4.8028950">
        <ele>790.4</ele>
        <time>2019-08-14T11:38:52Z</time>
      </trkpt>
      <trkpt lat="41.1658130" lon="-4.8029260">
        <ele>790.4</ele>
        <time>2019-08-14T11:38:53Z</time>
      </trkpt>
      <trkpt lat="41.1658640" lon="-4.8029580">
        <ele>790.4</ele>
        <time>2019-08-14T11:38:54Z</time>
      </trkpt>
      <trkpt lat="41.1659160" lon="-4.8029910">
        <ele>790.4</ele>
        <time>2019-08-14T11:38:55Z</time>
      </trkpt>
      <trkpt lat="41.1659660" lon="-4.8030220">
        <ele>790.4</ele>
        <time>2019-08-14T11:38:56Z</time>
      </trkpt>
      <trkpt lat="41.1660160" lon="-4.8030530">
        <ele>790.4</ele>
        <time>2019-08-14T11:38:57Z</time>
      </trkpt>
      <trkpt lat="41.1660670" lon="-4.8030850">
        <ele>790.4</ele>
        <time>2019-08-14T11:38:58Z</time>
      </trkpt>
      <trkpt lat="41.1661170" lon="-4.8031170">
        <ele>790.4</ele>
        <time>2019-08-14T11:38:59Z</time>
      </trkpt>
      <trkpt lat="41.1661660" lon="-4.8031500">
        <ele>790.4</ele>
        <time>2019-08-14T11:39:00Z</time>
      </trkpt>
      <trkpt lat="41.1662170" lon="-4.8031810">
        <ele>790.4</ele>
        <time>2019-08-14T11:39:01Z</time>
      </trkpt>
      <trkpt lat="41.1662680" lon="-4.8032130">
        <ele>790.4</ele>
        <time>2019-08-14T11:39:02Z</time>
      </trkpt>
      <trkpt lat="41.1663210" lon="-4.8032430">
        <ele>790.4</ele>
        <time>2019-08-14T11:39:03Z</time>
      </trkpt>
      <trkpt lat="41.1663740" lon="-4.8032730">
        <ele>790.4</ele>
        <time>2019-08-14T11:39:04Z</time>
      </trkpt>
      <trkpt lat="41.1664260" lon="-4.8033050">
        <ele>790.4</ele>
        <time>2019-08-14T11:39:05Z</time>
      </trkpt>
      <trkpt lat="41.1664780" lon="-4.8033380">
        <ele>790.4</ele>
        <time>2019-08-14T11:39:06Z</time>
      </trkpt>
      <trkpt lat="41.1665310" lon="-4.8033700">
        <ele>790.4</ele>
        <time>2019-08-14T11:39:07Z</time>
      </trkpt>
      <trkpt lat="41.1665860" lon="-4.8034030">
        <ele>790.4</ele>
        <time>2019-08-14T11:39:08Z</time>
      </trkpt>
      <trkpt lat="41.1666400" lon="-4.8034360">
        <ele>790.4</ele>
        <time>2019-08-14T11:39:09Z</time>
      </trkpt>
      <trkpt lat="41.1666910" lon="-4.8034660">
        <ele>790.3</ele>
        <time>2019-08-14T11:39:10Z</time>
      </trkpt>
      <trkpt lat="41.1667400" lon="-4.8034990">
        <ele>790.3</ele>
        <time>2019-08-14T11:39:11Z</time>
      </trkpt>
      <trkpt lat="41.1667890" lon="-4.8035310">
        <ele>790.3</ele>
        <time>2019-08-14T11:39:12Z</time>
      </trkpt>
      <trkpt lat="41.1668380" lon="-4.8035600">
        <ele>790.3</ele>
        <time>2019-08-14T11:39:13Z</time>
      </trkpt>
      <trkpt lat="41.1668880" lon="-4.8035870">
        <ele>790.3</ele>
        <time>2019-08-14T11:39:14Z</time>
      </trkpt>
      <trkpt lat="41.1669380" lon="-4.8036140">
        <ele>790.3</ele>
        <time>2019-08-14T11:39:15Z</time>
      </trkpt>
      <trkpt lat="41.1669880" lon="-4.8036420">
        <ele>790.3</ele>
        <time>2019-08-14T11:39:16Z</time>
      </trkpt>
      <trkpt lat="41.1670370" lon="-4.8036710">
        <ele>790.2</ele>
        <time>2019-08-14T11:39:17Z</time>
      </trkpt>
      <trkpt lat="41.1670870" lon="-4.8036980">
        <ele>790.1</ele>
        <time>2019-08-14T11:39:18Z</time>
      </trkpt>
      <trkpt lat="41.1671340" lon="-4.8037270">
        <ele>790.0</ele>
        <time>2019-08-14T11:39:19Z</time>
      </trkpt>
      <trkpt lat="41.1671810" lon="-4.8037530">
        <ele>790.0</ele>
        <time>2019-08-14T11:39:20Z</time>
      </trkpt>
      <trkpt lat="41.1672260" lon="-4.8037820">
        <ele>789.8</ele>
        <time>2019-08-14T11:39:21Z</time>
      </trkpt>
      <trkpt lat="41.1672720" lon="-4.8038100">
        <ele>789.7</ele>
        <time>2019-08-14T11:39:22Z</time>
      </trkpt>
      <trkpt lat="41.1673190" lon="-4.8038380">
        <ele>789.7</ele>
        <time>2019-08-14T11:39:23Z</time>
      </trkpt>
      <trkpt lat="41.1673670" lon="-4.8038670">
        <ele>789.6</ele>
        <time>2019-08-14T11:39:24Z</time>
      </trkpt>
      <trkpt lat="41.1674140" lon="-4.8038970">
        <ele>789.5</ele>
        <time>2019-08-14T11:39:25Z</time>
      </trkpt>
      <trkpt lat="41.1674610" lon="-4.8039270">
        <ele>789.5</ele>
        <time>2019-08-14T11:39:26Z</time>
      </trkpt>
      <trkpt lat="41.1675070" lon="-4.8039560">
        <ele>789.4</ele>
        <time>2019-08-14T11:39:27Z</time>
      </trkpt>
      <trkpt lat="41.1675540" lon="-4.8039860">
        <ele>789.4</ele>
        <time>2019-08-14T11:39:28Z</time>
      </trkpt>
      <trkpt lat="41.1676020" lon="-4.8040160">
        <ele>789.4</ele>
        <time>2019-08-14T11:39:29Z</time>
      </trkpt>
      <trkpt lat="41.1676510" lon="-4.8040480">
        <ele>789.4</ele>
        <time>2019-08-14T11:39:30Z</time>
      </trkpt>
      <trkpt lat="41.1677020" lon="-4.8040820">
        <ele>789.4</ele>
        <time>2019-08-14T11:39:31Z</time>
      </trkpt>
      <trkpt lat="41.1677530" lon="-4.8041160">
        <ele>789.4</ele>
        <time>2019-08-14T11:39:32Z</time>
      </trkpt>
      <trkpt lat="41.1678040" lon="-4.8041500">
        <ele>789.4</ele>
        <time>2019-08-14T11:39:33Z</time>
      </trkpt>
      <trkpt lat="41.1678550" lon="-4.8041830">
        <ele>789.4</ele>
        <time>2019-08-14T11:39:34Z</time>
      </trkpt>
      <trkpt lat="41.1679030" lon="-4.8042150">
        <ele>789.4</ele>
        <time>2019-08-14T11:39:35Z</time>
      </trkpt>
      <trkpt lat="41.1679520" lon="-4.8042480">
        <ele>789.4</ele>
        <time>2019-08-14T11:39:36Z</time>
      </trkpt>
      <trkpt lat="41.1680010" lon="-4.8042760">
        <ele>789.3</ele>
        <time>2019-08-14T11:39:37Z</time>
      </trkpt>
      <trkpt lat="41.1680520" lon="-4.8043020">
        <ele>789.3</ele>
        <time>2019-08-14T11:39:38Z</time>
      </trkpt>
      <trkpt lat="41.1681030" lon="-4.8043290">
        <ele>789.3</ele>
        <time>2019-08-14T11:39:39Z</time>
      </trkpt>
      <trkpt lat="41.1681540" lon="-4.8043580">
        <ele>789.3</ele>
        <time>2019-08-14T11:39:40Z</time>
      </trkpt>
      <trkpt lat="41.1682050" lon="-4.8043870">
        <ele>789.3</ele>
        <time>2019-08-14T11:39:41Z</time>
      </trkpt>
      <trkpt lat="41.1682560" lon="-4.8044180">
        <ele>789.3</ele>
        <time>2019-08-14T11:39:42Z</time>
      </trkpt>
      <trkpt lat="41.1683100" lon="-4.8044490">
        <ele>789.3</ele>
        <time>2019-08-14T11:39:43Z</time>
      </trkpt>
      <trkpt lat="41.1683620" lon="-4.8044810">
        <ele>789.2</ele>
        <time>2019-08-14T11:39:44Z</time>
      </trkpt>
      <trkpt lat="41.1684140" lon="-4.8045110">
        <ele>789.2</ele>
        <time>2019-08-14T11:39:45Z</time>
      </trkpt>
      <trkpt lat="41.1684630" lon="-4.8045420">
        <ele>789.1</ele>
        <time>2019-08-14T11:39:46Z</time>
      </trkpt>
      <trkpt lat="41.1685120" lon="-4.8045730">
        <ele>789.0</ele>
        <time>2019-08-14T11:39:47Z</time>
      </trkpt>
      <trkpt lat="41.1685600" lon="-4.8046040">
        <ele>788.9</ele>
        <time>2019-08-14T11:39:48Z</time>
      </trkpt>
      <trkpt lat="41.1686070" lon="-4.8046330">
        <ele>788.9</ele>
        <time>2019-08-14T11:39:49Z</time>
      </trkpt>
      <trkpt lat="41.1686540" lon="-4.8046630">
        <ele>788.8</ele>
        <time>2019-08-14T11:39:50Z</time>
      </trkpt>
      <trkpt lat="41.1687020" lon="-4.8046950">
        <ele>788.8</ele>
        <time>2019-08-14T11:39:51Z</time>
      </trkpt>
      <trkpt lat="41.1687530" lon="-4.8047250">
        <ele>788.8</ele>
        <time>2019-08-14T11:39:52Z</time>
      </trkpt>
      <trkpt lat="41.1688030" lon="-4.8047560">
        <ele>788.8</ele>
        <time>2019-08-14T11:39:53Z</time>
      </trkpt>
      <trkpt lat="41.1688520" lon="-4.8047860">
        <ele>788.9</ele>
        <time>2019-08-14T11:39:54Z</time>
      </trkpt>
      <trkpt lat="41.1689010" lon="-4.8048160">
        <ele>789.0</ele>
        <time>2019-08-14T11:39:55Z</time>
      </trkpt>
      <trkpt lat="41.1689510" lon="-4.8048460">
        <ele>789.0</ele>
        <time>2019-08-14T11:39:56Z</time>
      </trkpt>
      <trkpt lat="41.1690010" lon="-4.8048760">
        <ele>789.1</ele>
        <time>2019-08-14T11:39:57Z</time>
      </trkpt>
      <trkpt lat="41.1690510" lon="-4.8049070">
        <ele>789.2</ele>
        <time>2019-08-14T11:39:58Z</time>
      </trkpt>
      <trkpt lat="41.1691020" lon="-4.8049380">
        <ele>789.3</ele>
        <time>2019-08-14T11:39:59Z</time>
      </trkpt>
      <trkpt lat="41.1691510" lon="-4.8049680">
        <ele>789.3</ele>
        <time>2019-08-14T11:40:00Z</time>
      </trkpt>
      <trkpt lat="41.1692010" lon="-4.8049960">
        <ele>789.3</ele>
        <time>2019-08-14T11:40:01Z</time>
      </trkpt>
      <trkpt lat="41.1692490" lon="-4.8050240">
        <ele>789.3</ele>
        <time>2019-08-14T11:40:02Z</time>
      </trkpt>
      <trkpt lat="41.1692960" lon="-4.8050510">
        <ele>789.3</ele>
        <time>2019-08-14T11:40:03Z</time>
      </trkpt>
      <trkpt lat="41.1693430" lon="-4.8050780">
        <ele>789.4</ele>
        <time>2019-08-14T11:40:04Z</time>
      </trkpt>
      <trkpt lat="41.1693900" lon="-4.8051080">
        <ele>789.4</ele>
        <time>2019-08-14T11:40:05Z</time>
      </trkpt>
      <trkpt lat="41.1694370" lon="-4.8051370">
        <ele>789.4</ele>
        <time>2019-08-14T11:40:06Z</time>
      </trkpt>
      <trkpt lat="41.1694840" lon="-4.8051650">
        <ele>789.4</ele>
        <time>2019-08-14T11:40:07Z</time>
      </trkpt>
      <trkpt lat="41.1695320" lon="-4.8051930">
        <ele>789.4</ele>
        <time>2019-08-14T11:40:08Z</time>
      </trkpt>
      <trkpt lat="41.1695790" lon="-4.8052230">
        <ele>789.4</ele>
        <time>2019-08-14T11:40:09Z</time>
      </trkpt>
      <trkpt lat="41.1696260" lon="-4.8052530">
        <ele>789.4</ele>
        <time>2019-08-14T11:40:10Z</time>
      </trkpt>
      <trkpt lat="41.1696710" lon="-4.8052810">
        <ele>789.5</ele>
        <time>2019-08-14T11:40:11Z</time>
      </trkpt>
      <trkpt lat="41.1697160" lon="-4.8053080">
        <ele>789.5</ele>
        <time>2019-08-14T11:40:12Z</time>
      </trkpt>
      <trkpt lat="41.1697590" lon="-4.8053370">
        <ele>789.5</ele>
        <time>2019-08-14T11:40:13Z</time>
      </trkpt>
      <trkpt lat="41.1698010" lon="-4.8053640">
        <ele>789.6</ele>
        <time>2019-08-14T11:40:14Z</time>
      </trkpt>
      <trkpt lat="41.1698440" lon="-4.8053920">
        <ele>789.7</ele>
        <time>2019-08-14T11:40:15Z</time>
      </trkpt>
      <trkpt lat="41.1698860" lon="-4.8054180">
        <ele>789.7</ele>
        <time>2019-08-14T11:40:16Z</time>
      </trkpt>
      <trkpt lat="41.1699290" lon="-4.8054430">
        <ele>789.8</ele>
        <time>2019-08-14T11:40:17Z</time>
      </trkpt>
      <trkpt lat="41.1699710" lon="-4.8054670">
        <ele>789.9</ele>
        <time>2019-08-14T11:40:18Z</time>
      </trkpt>
      <trkpt lat="41.1700140" lon="-4.8054900">
        <ele>789.9</ele>
        <time>2019-08-14T11:40:19Z</time>
      </trkpt>
      <trkpt lat="41.1700570" lon="-4.8055160">
        <ele>790.0</ele>
        <time>2019-08-14T11:40:20Z</time>
      </trkpt>
      <trkpt lat="41.1701000" lon="-4.8055410">
        <ele>790.0</ele>
        <time>2019-08-14T11:40:21Z</time>
      </trkpt>
      <trkpt lat="41.1701430" lon="-4.8055650">
        <ele>790.0</ele>
        <time>2019-08-14T11:40:22Z</time>
      </trkpt>
      <trkpt lat="41.1701850" lon="-4.8055920">
        <ele>789.9</ele>
        <time>2019-08-14T11:40:23Z</time>
      </trkpt>
      <trkpt lat="41.1702250" lon="-4.8056190">
        <ele>789.8</ele>
        <time>2019-08-14T11:40:24Z</time>
      </trkpt>
      <trkpt lat="41.1702610" lon="-4.8056460">
        <ele>789.7</ele>
        <time>2019-08-14T11:40:25Z</time>
      </trkpt>
      <trkpt lat="41.1702980" lon="-4.8056720">
        <ele>789.6</ele>
        <time>2019-08-14T11:40:26Z</time>
      </trkpt>
      <trkpt lat="41.1703350" lon="-4.8056980">
        <ele>789.4</ele>
        <time>2019-08-14T11:40:27Z</time>
      </trkpt>
      <trkpt lat="41.1703700" lon="-4.8057270">
        <ele>789.3</ele>
        <time>2019-08-14T11:40:28Z</time>
      </trkpt>
      <trkpt lat="41.1704040" lon="-4.8057590">
        <ele>789.3</ele>
        <time>2019-08-14T11:40:29Z</time>
      </trkpt>
      <trkpt lat="41.1704400" lon="-4.8057940">
        <ele>789.3</ele>
        <time>2019-08-14T11:40:30Z</time>
      </trkpt>
      <trkpt lat="41.1704780" lon="-4.8058310">
        <ele>789.3</ele>
        <time>2019-08-14T11:40:31Z</time>
      </trkpt>
      <trkpt lat="41.1705160" lon="-4.8058690">
        <ele>789.3</ele>
        <time>2019-08-14T11:40:32Z</time>
      </trkpt>
      <trkpt lat="41.1705540" lon="-4.8059070">
        <ele>789.3</ele>
        <time>2019-08-14T11:40:33Z</time>
      </trkpt>
      <trkpt lat="41.1705910" lon="-4.8059450">
        <ele>789.3</ele>
        <time>2019-08-14T11:40:34Z</time>
      </trkpt>
      <trkpt lat="41.1706280" lon="-4.8059850">
        <ele>789.3</ele>
        <time>2019-08-14T11:40:35Z</time>
      </trkpt>
      <trkpt lat="41.1706660" lon="-4.8060250">
        <ele>789.3</ele>
        <time>2019-08-14T11:40:36Z</time>
      </trkpt>
      <trkpt lat="41.1707060" lon="-4.8060650">
        <ele>789.3</ele>
        <time>2019-08-14T11:40:37Z</time>
      </trkpt>
      <trkpt lat="41.1707460" lon="-4.8061050">
        <ele>789.3</ele>
        <time>2019-08-14T11:40:38Z</time>
      </trkpt>
      <trkpt lat="41.1707860" lon="-4.8061450">
        <ele>789.3</ele>
        <time>2019-08-14T11:40:39Z</time>
      </trkpt>
      <trkpt lat="41.1708280" lon="-4.8061850">
        <ele>789.2</ele>
        <time>2019-08-14T11:40:40Z</time>
      </trkpt>
      <trkpt lat="41.1708700" lon="-4.8062260">
        <ele>789.2</ele>
        <time>2019-08-14T11:40:41Z</time>
      </trkpt>
      <trkpt lat="41.1709100" lon="-4.8062670">
        <ele>789.2</ele>
        <time>2019-08-14T11:40:42Z</time>
      </trkpt>
      <trkpt lat="41.1709490" lon="-4.8063070">
        <ele>789.2</ele>
        <time>2019-08-14T11:40:43Z</time>
      </trkpt>
      <trkpt lat="41.1709870" lon="-4.8063450">
        <ele>789.2</ele>
        <time>2019-08-14T11:40:44Z</time>
      </trkpt>
      <trkpt lat="41.1710250" lon="-4.8063840">
        <ele>789.2</ele>
        <time>2019-08-14T11:40:45Z</time>
      </trkpt>
      <trkpt lat="41.1710620" lon="-4.8064240">
        <ele>789.2</ele>
        <time>2019-08-14T11:40:46Z</time>
      </trkpt>
      <trkpt lat="41.1710980" lon="-4.8064650">
        <ele>789.2</ele>
        <time>2019-08-14T11:40:47Z</time>
      </trkpt>
      <trkpt lat="41.1711350" lon="-4.8065040">
        <ele>789.2</ele>
        <time>2019-08-14T11:40:48Z</time>
      </trkpt>
      <trkpt lat="41.1711700" lon="-4.8065430">
        <ele>789.2</ele>
        <time>2019-08-14T11:40:49Z</time>
      </trkpt>
      <trkpt lat="41.1712030" lon="-4.8065810">
        <ele>789.2</ele>
        <time>2019-08-14T11:40:50Z</time>
      </trkpt>
      <trkpt lat="41.1712360" lon="-4.8066180">
        <ele>789.2</ele>
        <time>2019-08-14T11:40:51Z</time>
      </trkpt>
      <trkpt lat="41.1712700" lon="-4.8066490">
        <ele>789.2</ele>
        <time>2019-08-14T11:40:52Z</time>
      </trkpt>
      <trkpt lat="41.1713030" lon="-4.8066780">
        <ele>789.3</ele>
        <time>2019-08-14T11:40:53Z</time>
      </trkpt>
      <trkpt lat="41.1713350" lon="-4.8067060">
        <ele>789.3</ele>
        <time>2019-08-14T11:40:54Z</time>
      </trkpt>
      <trkpt lat="41.1713580" lon="-4.8067280">
        <ele>789.3</ele>
        <time>2019-08-14T11:40:55Z</time>
      </trkpt>
      <trkpt lat="41.1713700" lon="-4.8067410">
        <ele>789.3</ele>
        <time>2019-08-14T11:41:03Z</time>
      </trkpt>
      <trkpt lat="41.1714210" lon="-4.8068150">
        <ele>789.4</ele>
        <time>2019-08-14T11:41:56Z</time>
      </trkpt>
      <trkpt lat="41.1714440" lon="-4.8068350">
        <ele>789.4</ele>
        <time>2019-08-14T11:41:57Z</time>
      </trkpt>
      <trkpt lat="41.1714690" lon="-4.8068560">
        <ele>789.5</ele>
        <time>2019-08-14T11:41:58Z</time>
      </trkpt>
      <trkpt lat="41.1714970" lon="-4.8068790">
        <ele>789.5</ele>
        <time>2019-08-14T11:41:59Z</time>
      </trkpt>
      <trkpt lat="41.1715250" lon="-4.8069050">
        <ele>789.6</ele>
        <time>2019-08-14T11:42:00Z</time>
      </trkpt>
      <trkpt lat="41.1715540" lon="-4.8069340">
        <ele>789.6</ele>
        <time>2019-08-14T11:42:01Z</time>
      </trkpt>
      <trkpt lat="41.1715820" lon="-4.8069640">
        <ele>789.7</ele>
        <time>2019-08-14T11:42:02Z</time>
      </trkpt>
      <trkpt lat="41.1716110" lon="-4.8069950">
        <ele>789.7</ele>
        <time>2019-08-14T11:42:03Z</time>
      </trkpt>
      <trkpt lat="41.1716410" lon="-4.8070260">
        <ele>789.8</ele>
        <time>2019-08-14T11:42:04Z</time>
      </trkpt>
      <trkpt lat="41.1716730" lon="-4.8070580">
        <ele>789.9</ele>
        <time>2019-08-14T11:42:05Z</time>
      </trkpt>
      <trkpt lat="41.1717050" lon="-4.8070900">
        <ele>789.9</ele>
        <time>2019-08-14T11:42:06Z</time>
      </trkpt>
      <trkpt lat="41.1717380" lon="-4.8071220">
        <ele>790.0</ele>
        <time>2019-08-14T11:42:07Z</time>
      </trkpt>
      <trkpt lat="41.1717720" lon="-4.8071530">
        <ele>790.0</ele>
        <time>2019-08-14T11:42:08Z</time>
      </trkpt>
      <trkpt lat="41.1718060" lon="-4.8071860">
        <ele>790.0</ele>
        <time>2019-08-14T11:42:09Z</time>
      </trkpt>
      <trkpt lat="41.1718400" lon="-4.8072200">
        <ele>790.0</ele>
        <time>2019-08-14T11:42:10Z</time>
      </trkpt>
      <trkpt lat="41.1718720" lon="-4.8072530">
        <ele>790.0</ele>
        <time>2019-08-14T11:42:11Z</time>
      </trkpt>
      <trkpt lat="41.1719050" lon="-4.8072870">
        <ele>790.0</ele>
        <time>2019-08-14T11:42:12Z</time>
      </trkpt>
      <trkpt lat="41.1719390" lon="-4.8073190">
        <ele>790.0</ele>
        <time>2019-08-14T11:42:13Z</time>
      </trkpt>
      <trkpt lat="41.1719730" lon="-4.8073520">
        <ele>790.0</ele>
        <time>2019-08-14T11:42:14Z</time>
      </trkpt>
      <trkpt lat="41.1720070" lon="-4.8073850">
        <ele>790.0</ele>
        <time>2019-08-14T11:42:15Z</time>
      </trkpt>
      <trkpt lat="41.1720410" lon="-4.8074180">
        <ele>790.0</ele>
        <time>2019-08-14T11:42:16Z</time>
      </trkpt>
      <trkpt lat="41.1720730" lon="-4.8074510">
        <ele>790.0</ele>
        <time>2019-08-14T11:42:17Z</time>
      </trkpt>
      <trkpt lat="41.1721040" lon="-4.8074850">
        <ele>790.0</ele>
        <time>2019-08-14T11:42:18Z</time>
      </trkpt>
      <trkpt lat="41.1721360" lon="-4.8075180">
        <ele>790.0</ele>
        <time>2019-08-14T11:42:19Z</time>
      </trkpt>
      <trkpt lat="41.1721690" lon="-4.8075510">
        <ele>790.0</ele>
        <time>2019-08-14T11:42:20Z</time>
      </trkpt>
      <trkpt lat="41.1722010" lon="-4.8075840">
        <ele>790.0</ele>
        <time>2019-08-14T11:42:21Z</time>
      </trkpt>
      <trkpt lat="41.1722350" lon="-4.8076170">
        <ele>790.0</ele>
        <time>2019-08-14T11:42:22Z</time>
      </trkpt>
      <trkpt lat="41.1722680" lon="-4.8076500">
        <ele>790.0</ele>
        <time>2019-08-14T11:42:23Z</time>
      </trkpt>
      <trkpt lat="41.1723010" lon="-4.8076830">
        <ele>790.0</ele>
        <time>2019-08-14T11:42:24Z</time>
      </trkpt>
      <trkpt lat="41.1723340" lon="-4.8077170">
        <ele>789.9</ele>
        <time>2019-08-14T11:42:25Z</time>
      </trkpt>
      <trkpt lat="41.1723690" lon="-4.8077510">
        <ele>789.9</ele>
        <time>2019-08-14T11:42:26Z</time>
      </trkpt>
      <trkpt lat="41.1724030" lon="-4.8077850">
        <ele>789.9</ele>
        <time>2019-08-14T11:42:27Z</time>
      </trkpt>
      <trkpt lat="41.1724380" lon="-4.8078200">
        <ele>789.9</ele>
        <time>2019-08-14T11:42:28Z</time>
      </trkpt>
      <trkpt lat="41.1724730" lon="-4.8078550">
        <ele>789.9</ele>
        <time>2019-08-14T11:42:29Z</time>
      </trkpt>
      <trkpt lat="41.1725070" lon="-4.8078890">
        <ele>789.9</ele>
        <time>2019-08-14T11:42:30Z</time>
      </trkpt>
      <trkpt lat="41.1725420" lon="-4.8079240">
        <ele>789.9</ele>
        <time>2019-08-14T11:42:31Z</time>
      </trkpt>
      <trkpt lat="41.1725780" lon="-4.8079610">
        <ele>789.9</ele>
        <time>2019-08-14T11:42:32Z</time>
      </trkpt>
      <trkpt lat="41.1726140" lon="-4.8079970">
        <ele>789.9</ele>
        <time>2019-08-14T11:42:33Z</time>
      </trkpt>
      <trkpt lat="41.1726510" lon="-4.8080330">
        <ele>789.9</ele>
        <time>2019-08-14T11:42:34Z</time>
      </trkpt>
      <trkpt lat="41.1726890" lon="-4.8080680">
        <ele>789.9</ele>
        <time>2019-08-14T11:42:35Z</time>
      </trkpt>
      <trkpt lat="41.1727270" lon="-4.8081040">
        <ele>789.9</ele>
        <time>2019-08-14T11:42:36Z</time>
      </trkpt>
      <trkpt lat="41.1727640" lon="-4.8081420">
        <ele>789.9</ele>
        <time>2019-08-14T11:42:37Z</time>
      </trkpt>
      <trkpt lat="41.1728020" lon="-4.8081790">
        <ele>789.9</ele>
        <time>2019-08-14T11:42:38Z</time>
      </trkpt>
      <trkpt lat="41.1728390" lon="-4.8082170">
        <ele>789.9</ele>
        <time>2019-08-14T11:42:39Z</time>
      </trkpt>
      <trkpt lat="41.1728770" lon="-4.8082550">
        <ele>789.9</ele>
        <time>2019-08-14T11:42:40Z</time>
      </trkpt>
      <trkpt lat="41.1729150" lon="-4.8082920">
        <ele>789.9</ele>
        <time>2019-08-14T11:42:41Z</time>
      </trkpt>
      <trkpt lat="41.1729530" lon="-4.8083290">
        <ele>790.0</ele>
        <time>2019-08-14T11:42:42Z</time>
      </trkpt>
      <trkpt lat="41.1729900" lon="-4.8083670">
        <ele>790.0</ele>
        <time>2019-08-14T11:42:43Z</time>
      </trkpt>
      <trkpt lat="41.1730270" lon="-4.8084040">
        <ele>790.1</ele>
        <time>2019-08-14T11:42:44Z</time>
      </trkpt>
      <trkpt lat="41.1730640" lon="-4.8084420">
        <ele>790.1</ele>
        <time>2019-08-14T11:42:45Z</time>
      </trkpt>
      <trkpt lat="41.1731000" lon="-4.8084780">
        <ele>790.2</ele>
        <time>2019-08-14T11:42:46Z</time>
      </trkpt>
      <trkpt lat="41.1731370" lon="-4.8085130">
        <ele>790.2</ele>
        <time>2019-08-14T11:42:47Z</time>
      </trkpt>
      <trkpt lat="41.1731720" lon="-4.8085510">
        <ele>790.3</ele>
        <time>2019-08-14T11:42:48Z</time>
      </trkpt>
      <trkpt lat="41.1732070" lon="-4.8085890">
        <ele>790.4</ele>
        <time>2019-08-14T11:42:49Z</time>
      </trkpt>
      <trkpt lat="41.1732430" lon="-4.8086260">
        <ele>790.4</ele>
        <time>2019-08-14T11:42:50Z</time>
      </trkpt>
      <trkpt lat="41.1732780" lon="-4.8086640">
        <ele>790.5</ele>
        <time>2019-08-14T11:42:51Z</time>
      </trkpt>
      <trkpt lat="41.1733150" lon="-4.8087010">
        <ele>790.5</ele>
        <time>2019-08-14T11:42:52Z</time>
      </trkpt>
      <trkpt lat="41.1733500" lon="-4.8087370">
        <ele>790.6</ele>
        <time>2019-08-14T11:42:53Z</time>
      </trkpt>
      <trkpt lat="41.1733860" lon="-4.8087720">
        <ele>790.6</ele>
        <time>2019-08-14T11:42:54Z</time>
      </trkpt>
      <trkpt lat="41.1734210" lon="-4.8088070">
        <ele>790.7</ele>
        <time>2019-08-14T11:42:55Z</time>
      </trkpt>
      <trkpt lat="41.1734560" lon="-4.8088410">
        <ele>790.7</ele>
        <time>2019-08-14T11:42:56Z</time>
      </trkpt>
      <trkpt lat="41.1734910" lon="-4.8088750">
        <ele>790.7</ele>
        <time>2019-08-14T11:42:57Z</time>
      </trkpt>
      <trkpt lat="41.1735260" lon="-4.8089090">
        <ele>790.7</ele>
        <time>2019-08-14T11:42:58Z</time>
      </trkpt>
      <trkpt lat="41.1735610" lon="-4.8089440">
        <ele>790.7</ele>
        <time>2019-08-14T11:42:59Z</time>
      </trkpt>
      <trkpt lat="41.1735950" lon="-4.8089800">
        <ele>790.7</ele>
        <time>2019-08-14T11:43:00Z</time>
      </trkpt>
      <trkpt lat="41.1736290" lon="-4.8090170">
        <ele>790.7</ele>
        <time>2019-08-14T11:43:01Z</time>
      </trkpt>
      <trkpt lat="41.1736640" lon="-4.8090520">
        <ele>790.7</ele>
        <time>2019-08-14T11:43:02Z</time>
      </trkpt>
      <trkpt lat="41.1736980" lon="-4.8090880">
        <ele>790.7</ele>
        <time>2019-08-14T11:43:03Z</time>
      </trkpt>
      <trkpt lat="41.1737330" lon="-4.8091230">
        <ele>790.7</ele>
        <time>2019-08-14T11:43:04Z</time>
      </trkpt>
      <trkpt lat="41.1737670" lon="-4.8091570">
        <ele>790.7</ele>
        <time>2019-08-14T11:43:05Z</time>
      </trkpt>
      <trkpt lat="41.1738030" lon="-4.8091930">
        <ele>790.7</ele>
        <time>2019-08-14T11:43:06Z</time>
      </trkpt>
      <trkpt lat="41.1738370" lon="-4.8092290">
        <ele>790.7</ele>
        <time>2019-08-14T11:43:07Z</time>
      </trkpt>
      <trkpt lat="41.1738710" lon="-4.8092670">
        <ele>790.6</ele>
        <time>2019-08-14T11:43:08Z</time>
      </trkpt>
      <trkpt lat="41.1739060" lon="-4.8093040">
        <ele>790.6</ele>
        <time>2019-08-14T11:43:09Z</time>
      </trkpt>
      <trkpt lat="41.1739410" lon="-4.8093390">
        <ele>790.6</ele>
        <time>2019-08-14T11:43:10Z</time>
      </trkpt>
      <trkpt lat="41.1739780" lon="-4.8093750">
        <ele>790.6</ele>
        <time>2019-08-14T11:43:11Z</time>
      </trkpt>
      <trkpt lat="41.1740140" lon="-4.8094110">
        <ele>790.6</ele>
        <time>2019-08-14T11:43:12Z</time>
      </trkpt>
      <trkpt lat="41.1740510" lon="-4.8094460">
        <ele>790.6</ele>
        <time>2019-08-14T11:43:13Z</time>
      </trkpt>
      <trkpt lat="41.1740860" lon="-4.8094840">
        <ele>790.6</ele>
        <time>2019-08-14T11:43:14Z</time>
      </trkpt>
      <trkpt lat="41.1741210" lon="-4.8095210">
        <ele>790.6</ele>
        <time>2019-08-14T11:43:15Z</time>
      </trkpt>
      <trkpt lat="41.1741580" lon="-4.8095570">
        <ele>790.6</ele>
        <time>2019-08-14T11:43:16Z</time>
      </trkpt>
      <trkpt lat="41.1741950" lon="-4.8095940">
        <ele>790.6</ele>
        <time>2019-08-14T11:43:17Z</time>
      </trkpt>
      <trkpt lat="41.1742310" lon="-4.8096320">
        <ele>790.6</ele>
        <time>2019-08-14T11:43:18Z</time>
      </trkpt>
      <trkpt lat="41.1742680" lon="-4.8096700">
        <ele>790.6</ele>
        <time>2019-08-14T11:43:19Z</time>
      </trkpt>
      <trkpt lat="41.1743060" lon="-4.8097070">
        <ele>790.6</ele>
        <time>2019-08-14T11:43:20Z</time>
      </trkpt>
      <trkpt lat="41.1743450" lon="-4.8097430">
        <ele>790.5</ele>
        <time>2019-08-14T11:43:21Z</time>
      </trkpt>
      <trkpt lat="41.1743830" lon="-4.8097810">
        <ele>790.5</ele>
        <time>2019-08-14T11:43:22Z</time>
      </trkpt>
      <trkpt lat="41.1744200" lon="-4.8098190">
        <ele>790.5</ele>
        <time>2019-08-14T11:43:23Z</time>
      </trkpt>
      <trkpt lat="41.1744570" lon="-4.8098570">
        <ele>790.5</ele>
        <time>2019-08-14T11:43:24Z</time>
      </trkpt>
      <trkpt lat="41.1744940" lon="-4.8098950">
        <ele>790.5</ele>
        <time>2019-08-14T11:43:25Z</time>
      </trkpt>
      <trkpt lat="41.1745330" lon="-4.8099330">
        <ele>790.5</ele>
        <time>2019-08-14T11:43:26Z</time>
      </trkpt>
      <trkpt lat="41.1745700" lon="-4.8099700">
        <ele>790.5</ele>
        <time>2019-08-14T11:43:27Z</time>
      </trkpt>
      <trkpt lat="41.1746070" lon="-4.8100070">
        <ele>790.5</ele>
        <time>2019-08-14T11:43:28Z</time>
      </trkpt>
      <trkpt lat="41.1746440" lon="-4.8100440">
        <ele>790.5</ele>
        <time>2019-08-14T11:43:29Z</time>
      </trkpt>
      <trkpt lat="41.1746800" lon="-4.8100820">
        <ele>790.5</ele>
        <time>2019-08-14T11:43:30Z</time>
      </trkpt>
      <trkpt lat="41.1747170" lon="-4.8101200">
        <ele>790.5</ele>
        <time>2019-08-14T11:43:31Z</time>
      </trkpt>
      <trkpt lat="41.1747560" lon="-4.8101540">
        <ele>790.5</ele>
        <time>2019-08-14T11:43:32Z</time>
      </trkpt>
      <trkpt lat="41.1747930" lon="-4.8101900">
        <ele>790.5</ele>
        <time>2019-08-14T11:43:33Z</time>
      </trkpt>
      <trkpt lat="41.1748310" lon="-4.8102260">
        <ele>790.5</ele>
        <time>2019-08-14T11:43:34Z</time>
      </trkpt>
      <trkpt lat="41.1748670" lon="-4.8102630">
        <ele>790.4</ele>
        <time>2019-08-14T11:43:35Z</time>
      </trkpt>
      <trkpt lat="41.1749020" lon="-4.8102990">
        <ele>790.4</ele>
        <time>2019-08-14T11:43:36Z</time>
      </trkpt>
      <trkpt lat="41.1749370" lon="-4.8103350">
        <ele>790.4</ele>
        <time>2019-08-14T11:43:37Z</time>
      </trkpt>
      <trkpt lat="41.1749710" lon="-4.8103720">
        <ele>790.4</ele>
        <time>2019-08-14T11:43:38Z</time>
      </trkpt>
      <trkpt lat="41.1750060" lon="-4.8104080">
        <ele>790.4</ele>
        <time>2019-08-14T11:43:39Z</time>
      </trkpt>
      <trkpt lat="41.1750400" lon="-4.8104470">
        <ele>790.4</ele>
        <time>2019-08-14T11:43:40Z</time>
      </trkpt>
      <trkpt lat="41.1750750" lon="-4.8104840">
        <ele>790.4</ele>
        <time>2019-08-14T11:43:41Z</time>
      </trkpt>
      <trkpt lat="41.1751110" lon="-4.8105200">
        <ele>790.4</ele>
        <time>2019-08-14T11:43:42Z</time>
      </trkpt>
      <trkpt lat="41.1751480" lon="-4.8105560">
        <ele>790.4</ele>
        <time>2019-08-14T11:43:43Z</time>
      </trkpt>
      <trkpt lat="41.1751850" lon="-4.8105900">
        <ele>790.4</ele>
        <time>2019-08-14T11:43:44Z</time>
      </trkpt>
      <trkpt lat="41.1752210" lon="-4.8106210">
        <ele>790.4</ele>
        <time>2019-08-14T11:43:45Z</time>
      </trkpt>
      <trkpt lat="41.1752540" lon="-4.8106500">
        <ele>790.4</ele>
        <time>2019-08-14T11:43:46Z</time>
      </trkpt>
      <trkpt lat="41.1752880" lon="-4.8106790">
        <ele>790.4</ele>
        <time>2019-08-14T11:43:47Z</time>
      </trkpt>
      <trkpt lat="41.1753220" lon="-4.8107090">
        <ele>790.4</ele>
        <time>2019-08-14T11:43:48Z</time>
      </trkpt>
      <trkpt lat="41.1753550" lon="-4.8107400">
        <ele>790.3</ele>
        <time>2019-08-14T11:43:49Z</time>
      </trkpt>
      <trkpt lat="41.1753880" lon="-4.8107730">
        <ele>790.3</ele>
        <time>2019-08-14T11:43:50Z</time>
      </trkpt>
      <trkpt lat="41.1754210" lon="-4.8108070">
        <ele>790.3</ele>
        <time>2019-08-14T11:43:51Z</time>
      </trkpt>
      <trkpt lat="41.1754540" lon="-4.8108400">
        <ele>790.3</ele>
        <time>2019-08-14T11:43:52Z</time>
      </trkpt>
      <trkpt lat="41.1754850" lon="-4.8108690">
        <ele>790.3</ele>
        <time>2019-08-14T11:43:53Z</time>
      </trkpt>
      <trkpt lat="41.1755130" lon="-4.8108960">
        <ele>790.3</ele>
        <time>2019-08-14T11:43:54Z</time>
      </trkpt>
      <trkpt lat="41.1755380" lon="-4.8109220">
        <ele>790.3</ele>
        <time>2019-08-14T11:43:55Z</time>
      </trkpt>
      <trkpt lat="41.1755650" lon="-4.8109450">
        <ele>790.3</ele>
        <time>2019-08-14T11:43:56Z</time>
      </trkpt>
      <trkpt lat="41.1755880" lon="-4.8109660">
        <ele>790.3</ele>
        <time>2019-08-14T11:43:57Z</time>
      </trkpt>
      <trkpt lat="41.1756140" lon="-4.8109860">
        <ele>790.3</ele>
        <time>2019-08-14T11:43:58Z</time>
      </trkpt>
      <trkpt lat="41.1756400" lon="-4.8110130">
        <ele>790.3</ele>
        <time>2019-08-14T11:43:59Z</time>
      </trkpt>
      <trkpt lat="41.1756660" lon="-4.8110420">
        <ele>790.3</ele>
        <time>2019-08-14T11:44:00Z</time>
      </trkpt>
      <trkpt lat="41.1756900" lon="-4.8110690">
        <ele>790.3</ele>
        <time>2019-08-14T11:44:01Z</time>
      </trkpt>
      <trkpt lat="41.1757100" lon="-4.8110940">
        <ele>790.3</ele>
        <time>2019-08-14T11:44:02Z</time>
      </trkpt>
      <trkpt lat="41.1757320" lon="-4.8111160">
        <ele>790.3</ele>
        <time>2019-08-14T11:44:03Z</time>
      </trkpt>
      <trkpt lat="41.1757740" lon="-4.8111570">
        <ele>790.3</ele>
        <time>2019-08-14T11:44:05Z</time>
      </trkpt>
      <trkpt lat="41.1758000" lon="-4.8111770">
        <ele>790.3</ele>
        <time>2019-08-14T11:44:06Z</time>
      </trkpt>
      <trkpt lat="41.1758300" lon="-4.8111950">
        <ele>790.3</ele>
        <time>2019-08-14T11:44:07Z</time>
      </trkpt>
      <trkpt lat="41.1758610" lon="-4.8112110">
        <ele>790.2</ele>
        <time>2019-08-14T11:44:08Z</time>
      </trkpt>
      <trkpt lat="41.1758940" lon="-4.8112270">
        <ele>790.2</ele>
        <time>2019-08-14T11:44:09Z</time>
      </trkpt>
      <trkpt lat="41.1759280" lon="-4.8112370">
        <ele>790.1</ele>
        <time>2019-08-14T11:44:10Z</time>
      </trkpt>
      <trkpt lat="41.1759650" lon="-4.8112430">
        <ele>790.0</ele>
        <time>2019-08-14T11:44:11Z</time>
      </trkpt>
      <trkpt lat="41.1760040" lon="-4.8112470">
        <ele>789.9</ele>
        <time>2019-08-14T11:44:12Z</time>
      </trkpt>
      <trkpt lat="41.1760440" lon="-4.8112490">
        <ele>789.8</ele>
        <time>2019-08-14T11:44:13Z</time>
      </trkpt>
      <trkpt lat="41.1760840" lon="-4.8112510">
        <ele>789.7</ele>
        <time>2019-08-14T11:44:14Z</time>
      </trkpt>
      <trkpt lat="41.1761240" lon="-4.8112530">
        <ele>789.6</ele>
        <time>2019-08-14T11:44:15Z</time>
      </trkpt>
      <trkpt lat="41.1761650" lon="-4.8112560">
        <ele>789.5</ele>
        <time>2019-08-14T11:44:16Z</time>
      </trkpt>
      <trkpt lat="41.1762050" lon="-4.8112590">
        <ele>789.4</ele>
        <time>2019-08-14T11:44:17Z</time>
      </trkpt>
      <trkpt lat="41.1762450" lon="-4.8112600">
        <ele>789.3</ele>
        <time>2019-08-14T11:44:18Z</time>
      </trkpt>
      <trkpt lat="41.1762840" lon="-4.8112600">
        <ele>789.2</ele>
        <time>2019-08-14T11:44:19Z</time>
      </trkpt>
      <trkpt lat="41.1763230" lon="-4.8112570">
        <ele>789.1</ele>
        <time>2019-08-14T11:44:20Z</time>
      </trkpt>
      <trkpt lat="41.1763620" lon="-4.8112490">
        <ele>789.1</ele>
        <time>2019-08-14T11:44:21Z</time>
      </trkpt>
      <trkpt lat="41.1764000" lon="-4.8112320">
        <ele>789.0</ele>
        <time>2019-08-14T11:44:22Z</time>
      </trkpt>
      <trkpt lat="41.1764360" lon="-4.8112090">
        <ele>788.9</ele>
        <time>2019-08-14T11:44:23Z</time>
      </trkpt>
      <trkpt lat="41.1764690" lon="-4.8111790">
        <ele>788.8</ele>
        <time>2019-08-14T11:44:24Z</time>
      </trkpt>
      <trkpt lat="41.1765020" lon="-4.8111440">
        <ele>788.6</ele>
        <time>2019-08-14T11:44:25Z</time>
      </trkpt>
      <trkpt lat="41.1765370" lon="-4.8111130">
        <ele>788.5</ele>
        <time>2019-08-14T11:44:26Z</time>
      </trkpt>
      <trkpt lat="41.1765740" lon="-4.8110880">
        <ele>788.5</ele>
        <time>2019-08-14T11:44:27Z</time>
      </trkpt>
      <trkpt lat="41.1766140" lon="-4.8110690">
        <ele>788.5</ele>
        <time>2019-08-14T11:44:28Z</time>
      </trkpt>
      <trkpt lat="41.1766580" lon="-4.8110630">
        <ele>788.5</ele>
        <time>2019-08-14T11:44:29Z</time>
      </trkpt>
      <trkpt lat="41.1767020" lon="-4.8110720">
        <ele>788.5</ele>
        <time>2019-08-14T11:44:30Z</time>
      </trkpt>
      <trkpt lat="41.1767440" lon="-4.8110900">
        <ele>788.6</ele>
        <time>2019-08-14T11:44:31Z</time>
      </trkpt>
      <trkpt lat="41.1767830" lon="-4.8111150">
        <ele>788.6</ele>
        <time>2019-08-14T11:44:32Z</time>
      </trkpt>
      <trkpt lat="41.1768210" lon="-4.8111450">
        <ele>788.6</ele>
        <time>2019-08-14T11:44:33Z</time>
      </trkpt>
      <trkpt lat="41.1768620" lon="-4.8111790">
        <ele>788.8</ele>
        <time>2019-08-14T11:44:34Z</time>
      </trkpt>
      <trkpt lat="41.1769030" lon="-4.8112140">
        <ele>788.9</ele>
        <time>2019-08-14T11:44:35Z</time>
      </trkpt>
      <trkpt lat="41.1769450" lon="-4.8112510">
        <ele>789.0</ele>
        <time>2019-08-14T11:44:36Z</time>
      </trkpt>
      <trkpt lat="41.1769870" lon="-4.8112900">
        <ele>789.1</ele>
        <time>2019-08-14T11:44:37Z</time>
      </trkpt>
      <trkpt lat="41.1770300" lon="-4.8113290">
        <ele>789.1</ele>
        <time>2019-08-14T11:44:38Z</time>
      </trkpt>
      <trkpt lat="41.1770720" lon="-4.8113680">
        <ele>789.2</ele>
        <time>2019-08-14T11:44:39Z</time>
      </trkpt>
      <trkpt lat="41.1771140" lon="-4.8114080">
        <ele>789.2</ele>
        <time>2019-08-14T11:44:40Z</time>
      </trkpt>
      <trkpt lat="41.1771540" lon="-4.8114460">
        <ele>789.2</ele>
        <time>2019-08-14T11:44:41Z</time>
      </trkpt>
      <trkpt lat="41.1771950" lon="-4.8114840">
        <ele>789.2</ele>
        <time>2019-08-14T11:44:42Z</time>
      </trkpt>
      <trkpt lat="41.1772360" lon="-4.8115210">
        <ele>789.3</ele>
        <time>2019-08-14T11:44:43Z</time>
      </trkpt>
      <trkpt lat="41.1772780" lon="-4.8115570">
        <ele>789.3</ele>
        <time>2019-08-14T11:44:44Z</time>
      </trkpt>
      <trkpt lat="41.1773210" lon="-4.8115940">
        <ele>789.4</ele>
        <time>2019-08-14T11:44:45Z</time>
      </trkpt>
      <trkpt lat="41.1773660" lon="-4.8116290">
        <ele>789.5</ele>
        <time>2019-08-14T11:44:46Z</time>
      </trkpt>
      <trkpt lat="41.1774110" lon="-4.8116640">
        <ele>789.6</ele>
        <time>2019-08-14T11:44:47Z</time>
      </trkpt>
      <trkpt lat="41.1774580" lon="-4.8116970">
        <ele>789.7</ele>
        <time>2019-08-14T11:44:48Z</time>
      </trkpt>
      <trkpt lat="41.1775030" lon="-4.8117270">
        <ele>789.9</ele>
        <time>2019-08-14T11:44:49Z</time>
      </trkpt>
      <trkpt lat="41.1775500" lon="-4.8117560">
        <ele>790.0</ele>
        <time>2019-08-14T11:44:50Z</time>
      </trkpt>
      <trkpt lat="41.1775980" lon="-4.8117820">
        <ele>790.1</ele>
        <time>2019-08-14T11:44:51Z</time>
      </trkpt>
      <trkpt lat="41.1776470" lon="-4.8118090">
        <ele>790.2</ele>
        <time>2019-08-14T11:44:52Z</time>
      </trkpt>
      <trkpt lat="41.1776960" lon="-4.8118320">
        <ele>790.3</ele>
        <time>2019-08-14T11:44:53Z</time>
      </trkpt>
      <trkpt lat="41.1777470" lon="-4.8118510">
        <ele>790.3</ele>
        <time>2019-08-14T11:44:54Z</time>
      </trkpt>
      <trkpt lat="41.1778000" lon="-4.8118680">
        <ele>790.3</ele>
        <time>2019-08-14T11:44:55Z</time>
      </trkpt>
      <trkpt lat="41.1778520" lon="-4.8118850">
        <ele>790.4</ele>
        <time>2019-08-14T11:44:56Z</time>
      </trkpt>
      <trkpt lat="41.1779040" lon="-4.8119020">
        <ele>790.4</ele>
        <time>2019-08-14T11:44:57Z</time>
      </trkpt>
      <trkpt lat="41.1779560" lon="-4.8119200">
        <ele>790.4</ele>
        <time>2019-08-14T11:44:58Z</time>
      </trkpt>
      <trkpt lat="41.1780080" lon="-4.8119400">
        <ele>790.5</ele>
        <time>2019-08-14T11:44:59Z</time>
      </trkpt>
      <trkpt lat="41.1780600" lon="-4.8119580">
        <ele>790.5</ele>
        <time>2019-08-14T11:45:00Z</time>
      </trkpt>
      <trkpt lat="41.1781110" lon="-4.8119740">
        <ele>790.5</ele>
        <time>2019-08-14T11:45:01Z</time>
      </trkpt>
      <trkpt lat="41.1781630" lon="-4.8119900">
        <ele>790.5</ele>
        <time>2019-08-14T11:45:02Z</time>
      </trkpt>
      <trkpt lat="41.1782140" lon="-4.8120090">
        <ele>790.5</ele>
        <time>2019-08-14T11:45:03Z</time>
      </trkpt>
      <trkpt lat="41.1782650" lon="-4.8120290">
        <ele>790.6</ele>
        <time>2019-08-14T11:45:04Z</time>
      </trkpt>
      <trkpt lat="41.1783150" lon="-4.8120520">
        <ele>790.6</ele>
        <time>2019-08-14T11:45:05Z</time>
      </trkpt>
      <trkpt lat="41.1783650" lon="-4.8120730">
        <ele>790.6</ele>
        <time>2019-08-14T11:45:06Z</time>
      </trkpt>
      <trkpt lat="41.1784150" lon="-4.8120920">
        <ele>790.6</ele>
        <time>2019-08-14T11:45:07Z</time>
      </trkpt>
      <trkpt lat="41.1784660" lon="-4.8121070">
        <ele>790.6</ele>
        <time>2019-08-14T11:45:08Z</time>
      </trkpt>
      <trkpt lat="41.1785160" lon="-4.8121230">
        <ele>790.7</ele>
        <time>2019-08-14T11:45:09Z</time>
      </trkpt>
      <trkpt lat="41.1785630" lon="-4.8121410">
        <ele>790.7</ele>
        <time>2019-08-14T11:45:10Z</time>
      </trkpt>
      <trkpt lat="41.1786090" lon="-4.8121580">
        <ele>790.7</ele>
        <time>2019-08-14T11:45:11Z</time>
      </trkpt>
      <trkpt lat="41.1786550" lon="-4.8121760">
        <ele>790.7</ele>
        <time>2019-08-14T11:45:12Z</time>
      </trkpt>
      <trkpt lat="41.1787020" lon="-4.8121930">
        <ele>790.7</ele>
        <time>2019-08-14T11:45:13Z</time>
      </trkpt>
      <trkpt lat="41.1787520" lon="-4.8122100">
        <ele>790.7</ele>
        <time>2019-08-14T11:45:14Z</time>
      </trkpt>
      <trkpt lat="41.1788030" lon="-4.8122280">
        <ele>790.7</ele>
        <time>2019-08-14T11:45:15Z</time>
      </trkpt>
      <trkpt lat="41.1788530" lon="-4.8122460">
        <ele>790.8</ele>
        <time>2019-08-14T11:45:16Z</time>
      </trkpt>
      <trkpt lat="41.1789010" lon="-4.8122660">
        <ele>790.8</ele>
        <time>2019-08-14T11:45:17Z</time>
      </trkpt>
      <trkpt lat="41.1789500" lon="-4.8122870">
        <ele>790.8</ele>
        <time>2019-08-14T11:45:18Z</time>
      </trkpt>
      <trkpt lat="41.1789990" lon="-4.8123070">
        <ele>790.8</ele>
        <time>2019-08-14T11:45:19Z</time>
      </trkpt>
      <trkpt lat="41.1790470" lon="-4.8123260">
        <ele>790.8</ele>
        <time>2019-08-14T11:45:20Z</time>
      </trkpt>
      <trkpt lat="41.1790940" lon="-4.8123440">
        <ele>790.8</ele>
        <time>2019-08-14T11:45:21Z</time>
      </trkpt>
      <trkpt lat="41.1791380" lon="-4.8123600">
        <ele>790.9</ele>
        <time>2019-08-14T11:45:22Z</time>
      </trkpt>
      <trkpt lat="41.1791800" lon="-4.8123770">
        <ele>790.9</ele>
        <time>2019-08-14T11:45:23Z</time>
      </trkpt>
      <trkpt lat="41.1792220" lon="-4.8123950">
        <ele>790.9</ele>
        <time>2019-08-14T11:45:24Z</time>
      </trkpt>
      <trkpt lat="41.1792650" lon="-4.8124120">
        <ele>790.9</ele>
        <time>2019-08-14T11:45:25Z</time>
      </trkpt>
      <trkpt lat="41.1793080" lon="-4.8124270">
        <ele>790.9</ele>
        <time>2019-08-14T11:45:26Z</time>
      </trkpt>
      <trkpt lat="41.1793520" lon="-4.8124410">
        <ele>790.9</ele>
        <time>2019-08-14T11:45:27Z</time>
      </trkpt>
      <trkpt lat="41.1793960" lon="-4.8124490">
        <ele>790.9</ele>
        <time>2019-08-14T11:45:28Z</time>
      </trkpt>
      <trkpt lat="41.1794420" lon="-4.8124440">
        <ele>790.9</ele>
        <time>2019-08-14T11:45:29Z</time>
      </trkpt>
      <trkpt lat="41.1794820" lon="-4.8124190">
        <ele>791.0</ele>
        <time>2019-08-14T11:45:30Z</time>
      </trkpt>
      <trkpt lat="41.1795190" lon="-4.8123780">
        <ele>791.0</ele>
        <time>2019-08-14T11:45:31Z</time>
      </trkpt>
      <trkpt lat="41.1795490" lon="-4.8123280">
        <ele>791.1</ele>
        <time>2019-08-14T11:45:32Z</time>
      </trkpt>
      <trkpt lat="41.1795760" lon="-4.8122730">
        <ele>791.1</ele>
        <time>2019-08-14T11:45:33Z</time>
      </trkpt>
      <trkpt lat="41.1796000" lon="-4.8122140">
        <ele>791.0</ele>
        <time>2019-08-14T11:45:34Z</time>
      </trkpt>
      <trkpt lat="41.1796250" lon="-4.8121580">
        <ele>791.0</ele>
        <time>2019-08-14T11:45:35Z</time>
      </trkpt>
      <trkpt lat="41.1796500" lon="-4.8121030">
        <ele>791.0</ele>
        <time>2019-08-14T11:45:36Z</time>
      </trkpt>
      <trkpt lat="41.1796730" lon="-4.8120470">
        <ele>790.9</ele>
        <time>2019-08-14T11:45:37Z</time>
      </trkpt>
      <trkpt lat="41.1796990" lon="-4.8119860">
        <ele>790.9</ele>
        <time>2019-08-14T11:45:38Z</time>
      </trkpt>
      <trkpt lat="41.1797250" lon="-4.8119240">
        <ele>790.9</ele>
        <time>2019-08-14T11:45:39Z</time>
      </trkpt>
      <trkpt lat="41.1797510" lon="-4.8118690">
        <ele>790.9</ele>
        <time>2019-08-14T11:45:40Z</time>
      </trkpt>
      <trkpt lat="41.1797780" lon="-4.8118170">
        <ele>791.0</ele>
        <time>2019-08-14T11:45:41Z</time>
      </trkpt>
      <trkpt lat="41.1798060" lon="-4.8117660">
        <ele>791.0</ele>
        <time>2019-08-14T11:45:42Z</time>
      </trkpt>
      <trkpt lat="41.1798310" lon="-4.8117120">
        <ele>791.1</ele>
        <time>2019-08-14T11:45:43Z</time>
      </trkpt>
      <trkpt lat="41.1798610" lon="-4.8116500">
        <ele>791.1</ele>
        <time>2019-08-14T11:45:44Z</time>
      </trkpt>
      <trkpt lat="41.1798920" lon="-4.8115910">
        <ele>791.2</ele>
        <time>2019-08-14T11:45:45Z</time>
      </trkpt>
      <trkpt lat="41.1799160" lon="-4.8115270">
        <ele>791.2</ele>
        <time>2019-08-14T11:45:46Z</time>
      </trkpt>
      <trkpt lat="41.1799430" lon="-4.8114630">
        <ele>791.3</ele>
        <time>2019-08-14T11:45:47Z</time>
      </trkpt>
      <trkpt lat="41.1799650" lon="-4.8114060">
        <ele>791.3</ele>
        <time>2019-08-14T11:45:48Z</time>
      </trkpt>
      <trkpt lat="41.1799890" lon="-4.8113370">
        <ele>791.4</ele>
        <time>2019-08-14T11:45:49Z</time>
      </trkpt>
      <trkpt lat="41.1800160" lon="-4.8112670">
        <ele>791.4</ele>
        <time>2019-08-14T11:45:50Z</time>
      </trkpt>
      <trkpt lat="41.1800410" lon="-4.8112070">
        <ele>791.5</ele>
        <time>2019-08-14T11:45:51Z</time>
      </trkpt>
      <trkpt lat="41.1800700" lon="-4.8111450">
        <ele>791.5</ele>
        <time>2019-08-14T11:45:52Z</time>
      </trkpt>
      <trkpt lat="41.1800930" lon="-4.8110770">
        <ele>791.6</ele>
        <time>2019-08-14T11:45:53Z</time>
      </trkpt>
      <trkpt lat="41.1801220" lon="-4.8110070">
        <ele>791.6</ele>
        <time>2019-08-14T11:45:54Z</time>
      </trkpt>
      <trkpt lat="41.1801530" lon="-4.8109390">
        <ele>791.7</ele>
        <time>2019-08-14T11:45:55Z</time>
      </trkpt>
      <trkpt lat="41.1801800" lon="-4.8108730">
        <ele>791.7</ele>
        <time>2019-08-14T11:45:56Z</time>
      </trkpt>
      <trkpt lat="41.1802030" lon="-4.8108100">
        <ele>791.8</ele>
        <time>2019-08-14T11:45:57Z</time>
      </trkpt>
      <trkpt lat="41.1802250" lon="-4.8107410">
        <ele>791.9</ele>
        <time>2019-08-14T11:45:58Z</time>
      </trkpt>
      <trkpt lat="41.1802570" lon="-4.8106680">
        <ele>791.9</ele>
        <time>2019-08-14T11:45:59Z</time>
      </trkpt>
      <trkpt lat="41.1802830" lon="-4.8106050">
        <ele>792.0</ele>
        <time>2019-08-14T11:46:00Z</time>
      </trkpt>
      <trkpt lat="41.1803110" lon="-4.8105440">
        <ele>792.0</ele>
        <time>2019-08-14T11:46:01Z</time>
      </trkpt>
      <trkpt lat="41.1803180" lon="-4.8104710">
        <ele>792.0</ele>
        <time>2019-08-14T11:46:02Z</time>
      </trkpt>
      <trkpt lat="41.1803390" lon="-4.8104120">
        <ele>792.0</ele>
        <time>2019-08-14T11:46:03Z</time>
      </trkpt>
      <trkpt lat="41.1803550" lon="-4.8103470">
        <ele>792.0</ele>
        <time>2019-08-14T11:46:04Z</time>
      </trkpt>
      <trkpt lat="41.1803720" lon="-4.8102790">
        <ele>792.0</ele>
        <time>2019-08-14T11:46:05Z</time>
      </trkpt>
      <trkpt lat="41.1803910" lon="-4.8102060">
        <ele>792.0</ele>
        <time>2019-08-14T11:46:06Z</time>
      </trkpt>
      <trkpt lat="41.1804070" lon="-4.8101320">
        <ele>792.0</ele>
        <time>2019-08-14T11:46:07Z</time>
      </trkpt>
      <trkpt lat="41.1804220" lon="-4.8100550">
        <ele>792.0</ele>
        <time>2019-08-14T11:46:08Z</time>
      </trkpt>
      <trkpt lat="41.1804380" lon="-4.8099770">
        <ele>792.0</ele>
        <time>2019-08-14T11:46:09Z</time>
      </trkpt>
      <trkpt lat="41.1804550" lon="-4.8099020">
        <ele>792.0</ele>
        <time>2019-08-14T11:46:10Z</time>
      </trkpt>
      <trkpt lat="41.1804710" lon="-4.8098260">
        <ele>792.0</ele>
        <time>2019-08-14T11:46:11Z</time>
      </trkpt>
      <trkpt lat="41.1804850" lon="-4.8097520">
        <ele>792.0</ele>
        <time>2019-08-14T11:46:12Z</time>
      </trkpt>
      <trkpt lat="41.1804980" lon="-4.8096780">
        <ele>792.1</ele>
        <time>2019-08-14T11:46:13Z</time>
      </trkpt>
      <trkpt lat="41.1805110" lon="-4.8096060">
        <ele>792.1</ele>
        <time>2019-08-14T11:46:14Z</time>
      </trkpt>
      <trkpt lat="41.1805220" lon="-4.8095340">
        <ele>792.1</ele>
        <time>2019-08-14T11:46:15Z</time>
      </trkpt>
      <trkpt lat="41.1805340" lon="-4.8094620">
        <ele>792.1</ele>
        <time>2019-08-14T11:46:16Z</time>
      </trkpt>
      <trkpt lat="41.1805450" lon="-4.8093910">
        <ele>792.1</ele>
        <time>2019-08-14T11:46:17Z</time>
      </trkpt>
      <trkpt lat="41.1805560" lon="-4.8093210">
        <ele>792.1</ele>
        <time>2019-08-14T11:46:18Z</time>
      </trkpt>
      <trkpt lat="41.1805680" lon="-4.8092520">
        <ele>792.1</ele>
        <time>2019-08-14T11:46:19Z</time>
      </trkpt>
      <trkpt lat="41.1805810" lon="-4.8091850">
        <ele>792.1</ele>
        <time>2019-08-14T11:46:20Z</time>
      </trkpt>
      <trkpt lat="41.1805930" lon="-4.8091180">
        <ele>792.1</ele>
        <time>2019-08-14T11:46:21Z</time>
      </trkpt>
      <trkpt lat="41.1806050" lon="-4.8090490">
        <ele>792.2</ele>
        <time>2019-08-14T11:46:22Z</time>
      </trkpt>
      <trkpt lat="41.1806170" lon="-4.8089770">
        <ele>792.2</ele>
        <time>2019-08-14T11:46:23Z</time>
      </trkpt>
      <trkpt lat="41.1806290" lon="-4.8089050">
        <ele>792.2</ele>
        <time>2019-08-14T11:46:24Z</time>
      </trkpt>
      <trkpt lat="41.1806430" lon="-4.8088330">
        <ele>792.3</ele>
        <time>2019-08-14T11:46:25Z</time>
      </trkpt>
      <trkpt lat="41.1806650" lon="-4.8087730">
        <ele>792.3</ele>
        <time>2019-08-14T11:46:26Z</time>
      </trkpt>
      <trkpt lat="41.1806970" lon="-4.8087300">
        <ele>792.4</ele>
        <time>2019-08-14T11:46:27Z</time>
      </trkpt>
      <trkpt lat="41.1807330" lon="-4.8086970">
        <ele>792.4</ele>
        <time>2019-08-14T11:46:28Z</time>
      </trkpt>
      <trkpt lat="41.1807680" lon="-4.8086630">
        <ele>792.4</ele>
        <time>2019-08-14T11:46:29Z</time>
      </trkpt>
      <trkpt lat="41.1807990" lon="-4.8086270">
        <ele>792.5</ele>
        <time>2019-08-14T11:46:30Z</time>
      </trkpt>
      <trkpt lat="41.1808280" lon="-4.8085870">
        <ele>792.5</ele>
        <time>2019-08-14T11:46:31Z</time>
      </trkpt>
      <trkpt lat="41.1808580" lon="-4.8085450">
        <ele>792.6</ele>
        <time>2019-08-14T11:46:32Z</time>
      </trkpt>
      <trkpt lat="41.1808910" lon="-4.8085010">
        <ele>792.6</ele>
        <time>2019-08-14T11:46:33Z</time>
      </trkpt>
      <trkpt lat="41.1809230" lon="-4.8084540">
        <ele>792.6</ele>
        <time>2019-08-14T11:46:34Z</time>
      </trkpt>
      <trkpt lat="41.1809530" lon="-4.8084050">
        <ele>792.7</ele>
        <time>2019-08-14T11:46:35Z</time>
      </trkpt>
      <trkpt lat="41.1809750" lon="-4.8083510">
        <ele>792.7</ele>
        <time>2019-08-14T11:46:36Z</time>
      </trkpt>
      <trkpt lat="41.1809780" lon="-4.8082940">
        <ele>792.8</ele>
        <time>2019-08-14T11:46:37Z</time>
      </trkpt>
      <trkpt lat="41.1809590" lon="-4.8082400">
        <ele>792.8</ele>
        <time>2019-08-14T11:46:38Z</time>
      </trkpt>
      <trkpt lat="41.1809230" lon="-4.8082040">
        <ele>792.9</ele>
        <time>2019-08-14T11:46:39Z</time>
      </trkpt>
      <trkpt lat="41.1808820" lon="-4.8081810">
        <ele>792.9</ele>
        <time>2019-08-14T11:46:40Z</time>
      </trkpt>
      <trkpt lat="41.1808430" lon="-4.8081580">
        <ele>793.0</ele>
        <time>2019-08-14T11:46:41Z</time>
      </trkpt>
      <trkpt lat="41.1808110" lon="-4.8081240">
        <ele>793.0</ele>
        <time>2019-08-14T11:46:42Z</time>
      </trkpt>
      <trkpt lat="41.1807930" lon="-4.8080810">
        <ele>793.1</ele>
        <time>2019-08-14T11:46:43Z</time>
      </trkpt>
      <trkpt lat="41.1807890" lon="-4.8080320">
        <ele>793.1</ele>
        <time>2019-08-14T11:46:44Z</time>
      </trkpt>
      <trkpt lat="41.1807930" lon="-4.8079810">
        <ele>793.1</ele>
        <time>2019-08-14T11:46:45Z</time>
      </trkpt>
      <trkpt lat="41.1808010" lon="-4.8079310">
        <ele>793.2</ele>
        <time>2019-08-14T11:46:46Z</time>
      </trkpt>
      <trkpt lat="41.1808090" lon="-4.8078790">
        <ele>793.2</ele>
        <time>2019-08-14T11:46:47Z</time>
      </trkpt>
      <trkpt lat="41.1808190" lon="-4.8078310">
        <ele>793.2</ele>
        <time>2019-08-14T11:46:48Z</time>
      </trkpt>
      <trkpt lat="41.1808330" lon="-4.8077860">
        <ele>793.2</ele>
        <time>2019-08-14T11:46:49Z</time>
      </trkpt>
      <trkpt lat="41.1808540" lon="-4.8077470">
        <ele>793.5</ele>
        <time>2019-08-14T11:46:50Z</time>
      </trkpt>
      <trkpt lat="41.1808840" lon="-4.8077200">
        <ele>793.9</ele>
        <time>2019-08-14T11:46:51Z</time>
      </trkpt>
      <trkpt lat="41.1809200" lon="-4.8077140">
        <ele>794.3</ele>
        <time>2019-08-14T11:46:52Z</time>
      </trkpt>
      <trkpt lat="41.1809580" lon="-4.8077250">
        <ele>794.6</ele>
        <time>2019-08-14T11:46:53Z</time>
      </trkpt>
      <trkpt lat="41.1809940" lon="-4.8077440">
        <ele>795.0</ele>
        <time>2019-08-14T11:46:54Z</time>
      </trkpt>
      <trkpt lat="41.1810290" lon="-4.8077640">
        <ele>795.3</ele>
        <time>2019-08-14T11:46:55Z</time>
      </trkpt>
      <trkpt lat="41.1810620" lon="-4.8077840">
        <ele>795.6</ele>
        <time>2019-08-14T11:46:56Z</time>
      </trkpt>
      <trkpt lat="41.1810940" lon="-4.8078010">
        <ele>795.9</ele>
        <time>2019-08-14T11:46:57Z</time>
      </trkpt>
      <trkpt lat="41.1811210" lon="-4.8078150">
        <ele>796.2</ele>
        <time>2019-08-14T11:46:58Z</time>
      </trkpt>
      <trkpt lat="41.1811470" lon="-4.8078260">
        <ele>796.5</ele>
        <time>2019-08-14T11:46:59Z</time>
      </trkpt>
      <trkpt lat="41.1811960" lon="-4.8078530">
        <ele>797.0</ele>
        <time>2019-08-14T11:47:01Z</time>
      </trkpt>
      <trkpt lat="41.1812210" lon="-4.8078650">
        <ele>797.3</ele>
        <time>2019-08-14T11:47:02Z</time>
      </trkpt>
      <trkpt lat="41.1812470" lon="-4.8078800">
        <ele>797.6</ele>
        <time>2019-08-14T11:47:03Z</time>
      </trkpt>
      <trkpt lat="41.1812760" lon="-4.8078970">
        <ele>797.8</ele>
        <time>2019-08-14T11:47:04Z</time>
      </trkpt>
      <trkpt lat="41.1813030" lon="-4.8079090">
        <ele>798.0</ele>
        <time>2019-08-14T11:47:05Z</time>
      </trkpt>
      <trkpt lat="41.1813460" lon="-4.8079350">
        <ele>798.4</ele>
        <time>2019-08-14T11:47:07Z</time>
      </trkpt>
      <trkpt lat="41.1813730" lon="-4.8079400">
        <ele>798.6</ele>
        <time>2019-08-14T11:47:09Z</time>
      </trkpt>
      <trkpt lat="41.1813610" lon="-4.8079020">
        <ele>798.8</ele>
        <time>2019-08-14T11:47:12Z</time>
      </trkpt>
      <trkpt lat="41.1813210" lon="-4.8078870">
        <ele>799.1</ele>
        <time>2019-08-14T11:47:14Z</time>
      </trkpt>
      <trkpt lat="41.1812750" lon="-4.8078710">
        <ele>799.4</ele>
        <time>2019-08-14T11:47:16Z</time>
      </trkpt>
      <trkpt lat="41.1812280" lon="-4.8078440">
        <ele>799.6</ele>
        <time>2019-08-14T11:47:18Z</time>
      </trkpt>
      <trkpt lat="41.1812030" lon="-4.8078300">
        <ele>799.7</ele>
        <time>2019-08-14T11:47:19Z</time>
      </trkpt>
      <trkpt lat="41.1811530" lon="-4.8078080">
        <ele>799.7</ele>
        <time>2019-08-14T11:47:21Z</time>
      </trkpt>
      <trkpt lat="41.1811120" lon="-4.8077830">
        <ele>799.7</ele>
        <time>2019-08-14T11:47:23Z</time>
      </trkpt>
      <trkpt lat="41.1810970" lon="-4.8077330">
        <ele>799.7</ele>
        <time>2019-08-14T11:47:25Z</time>
      </trkpt>
      <trkpt lat="41.1811040" lon="-4.8076960">
        <ele>799.7</ele>
        <time>2019-08-14T11:47:26Z</time>
      </trkpt>
      <trkpt lat="41.1811140" lon="-4.8076580">
        <ele>799.7</ele>
        <time>2019-08-14T11:47:27Z</time>
      </trkpt>
      <trkpt lat="41.1811260" lon="-4.8076190">
        <ele>799.6</ele>
        <time>2019-08-14T11:47:28Z</time>
      </trkpt>
      <trkpt lat="41.1811380" lon="-4.8075790">
        <ele>799.5</ele>
        <time>2019-08-14T11:47:29Z</time>
      </trkpt>
      <trkpt lat="41.1811500" lon="-4.8075390">
        <ele>799.5</ele>
        <time>2019-08-14T11:47:30Z</time>
      </trkpt>
      <trkpt lat="41.1811620" lon="-4.8074990">
        <ele>799.4</ele>
        <time>2019-08-14T11:47:31Z</time>
      </trkpt>
      <trkpt lat="41.1811740" lon="-4.8074560">
        <ele>799.2</ele>
        <time>2019-08-14T11:47:32Z</time>
      </trkpt>
      <trkpt lat="41.1811860" lon="-4.8074100">
        <ele>799.1</ele>
        <time>2019-08-14T11:47:33Z</time>
      </trkpt>
      <trkpt lat="41.1811990" lon="-4.8073610">
        <ele>799.0</ele>
        <time>2019-08-14T11:47:34Z</time>
      </trkpt>
      <trkpt lat="41.1812130" lon="-4.8073110">
        <ele>798.8</ele>
        <time>2019-08-14T11:47:35Z</time>
      </trkpt>
      <trkpt lat="41.1812260" lon="-4.8072720">
        <ele>798.7</ele>
        <time>2019-08-14T11:47:36Z</time>
      </trkpt>
      <trkpt lat="41.1812590" lon="-4.8072400">
        <ele>798.5</ele>
        <time>2019-08-14T11:47:38Z</time>
      </trkpt>
      <trkpt lat="41.1813160" lon="-4.8072620">
        <ele>798.3</ele>
        <time>2019-08-14T11:47:40Z</time>
      </trkpt>
      <trkpt lat="41.1813540" lon="-4.8072830">
        <ele>798.0</ele>
        <time>2019-08-14T11:47:41Z</time>
      </trkpt>
      <trkpt lat="41.1813970" lon="-4.8073070">
        <ele>797.7</ele>
        <time>2019-08-14T11:47:42Z</time>
      </trkpt>
      <trkpt lat="41.1814420" lon="-4.8073320">
        <ele>797.2</ele>
        <time>2019-08-14T11:47:43Z</time>
      </trkpt>
      <trkpt lat="41.1814810" lon="-4.8073540">
        <ele>796.9</ele>
        <time>2019-08-14T11:47:44Z</time>
      </trkpt>
      <trkpt lat="41.1815100" lon="-4.8073690">
        <ele>796.7</ele>
        <time>2019-08-14T11:47:45Z</time>
      </trkpt>
      <trkpt lat="41.1815360" lon="-4.8073670">
        <ele>796.5</ele>
        <time>2019-08-14T11:47:47Z</time>
      </trkpt>
      <trkpt lat="41.1814950" lon="-4.8073340">
        <ele>796.2</ele>
        <time>2019-08-14T11:47:50Z</time>
      </trkpt>
      <trkpt lat="41.1814610" lon="-4.8073210">
        <ele>795.9</ele>
        <time>2019-08-14T11:47:51Z</time>
      </trkpt>
      <trkpt lat="41.1814210" lon="-4.8073050">
        <ele>795.5</ele>
        <time>2019-08-14T11:47:52Z</time>
      </trkpt>
      <trkpt lat="41.1813720" lon="-4.8072850">
        <ele>795.0</ele>
        <time>2019-08-14T11:47:53Z</time>
      </trkpt>
      <trkpt lat="41.1813280" lon="-4.8072640">
        <ele>794.7</ele>
        <time>2019-08-14T11:47:54Z</time>
      </trkpt>
      <trkpt lat="41.1812870" lon="-4.8072440">
        <ele>794.4</ele>
        <time>2019-08-14T11:47:55Z</time>
      </trkpt>
      <trkpt lat="41.1812470" lon="-4.8072250">
        <ele>794.1</ele>
        <time>2019-08-14T11:47:56Z</time>
      </trkpt>
      <trkpt lat="41.1812160" lon="-4.8072100">
        <ele>793.9</ele>
        <time>2019-08-14T11:47:57Z</time>
      </trkpt>
      <trkpt lat="41.1811880" lon="-4.8071920">
        <ele>793.8</ele>
        <time>2019-08-14T11:47:58Z</time>
      </trkpt>
      <trkpt lat="41.1811680" lon="-4.8071690">
        <ele>793.7</ele>
        <time>2019-08-14T11:47:59Z</time>
      </trkpt>
      <trkpt lat="41.1811610" lon="-4.8071080">
        <ele>793.5</ele>
        <time>2019-08-14T11:48:01Z</time>
      </trkpt>
      <trkpt lat="41.1811740" lon="-4.8070760">
        <ele>793.4</ele>
        <time>2019-08-14T11:48:02Z</time>
      </trkpt>
      <trkpt lat="41.1811940" lon="-4.8070440">
        <ele>793.3</ele>
        <time>2019-08-14T11:48:03Z</time>
      </trkpt>
      <trkpt lat="41.1812190" lon="-4.8070150">
        <ele>793.3</ele>
        <time>2019-08-14T11:48:04Z</time>
      </trkpt>
      <trkpt lat="41.1812450" lon="-4.8069870">
        <ele>793.3</ele>
        <time>2019-08-14T11:48:05Z</time>
      </trkpt>
      <trkpt lat="41.1812740" lon="-4.8069620">
        <ele>793.3</ele>
        <time>2019-08-14T11:48:06Z</time>
      </trkpt>
      <trkpt lat="41.1813030" lon="-4.8069360">
        <ele>793.3</ele>
        <time>2019-08-14T11:48:07Z</time>
      </trkpt>
      <trkpt lat="41.1813320" lon="-4.8069090">
        <ele>793.3</ele>
        <time>2019-08-14T11:48:08Z</time>
      </trkpt>
      <trkpt lat="41.1813580" lon="-4.8068820">
        <ele>793.3</ele>
        <time>2019-08-14T11:48:09Z</time>
      </trkpt>
      <trkpt lat="41.1813850" lon="-4.8068530">
        <ele>793.3</ele>
        <time>2019-08-14T11:48:10Z</time>
      </trkpt>
      <trkpt lat="41.1814080" lon="-4.8068210">
        <ele>793.3</ele>
        <time>2019-08-14T11:48:11Z</time>
      </trkpt>
      <trkpt lat="41.1814280" lon="-4.8067860">
        <ele>793.3</ele>
        <time>2019-08-14T11:48:12Z</time>
      </trkpt>
      <trkpt lat="41.1814470" lon="-4.8067500">
        <ele>793.3</ele>
        <time>2019-08-14T11:48:13Z</time>
      </trkpt>
      <trkpt lat="41.1814670" lon="-4.8067150">
        <ele>793.3</ele>
        <time>2019-08-14T11:48:14Z</time>
      </trkpt>
      <trkpt lat="41.1814900" lon="-4.8066780">
        <ele>793.4</ele>
        <time>2019-08-14T11:48:15Z</time>
      </trkpt>
      <trkpt lat="41.1815150" lon="-4.8066420">
        <ele>793.4</ele>
        <time>2019-08-14T11:48:16Z</time>
      </trkpt>
      <trkpt lat="41.1815410" lon="-4.8066050">
        <ele>793.4</ele>
        <time>2019-08-14T11:48:17Z</time>
      </trkpt>
      <trkpt lat="41.1815660" lon="-4.8065660">
        <ele>793.4</ele>
        <time>2019-08-14T11:48:18Z</time>
      </trkpt>
      <trkpt lat="41.1815890" lon="-4.8065290">
        <ele>793.4</ele>
        <time>2019-08-14T11:48:19Z</time>
      </trkpt>
      <trkpt lat="41.1816120" lon="-4.8064920">
        <ele>793.5</ele>
        <time>2019-08-14T11:48:20Z</time>
      </trkpt>
      <trkpt lat="41.1816330" lon="-4.8064550">
        <ele>793.5</ele>
        <time>2019-08-14T11:48:21Z</time>
      </trkpt>
      <trkpt lat="41.1816530" lon="-4.8064170">
        <ele>793.6</ele>
        <time>2019-08-14T11:48:22Z</time>
      </trkpt>
      <trkpt lat="41.1816670" lon="-4.8063760">
        <ele>793.6</ele>
        <time>2019-08-14T11:48:23Z</time>
      </trkpt>
      <trkpt lat="41.1816710" lon="-4.8063330">
        <ele>793.7</ele>
        <time>2019-08-14T11:48:24Z</time>
      </trkpt>
      <trkpt lat="41.1816670" lon="-4.8062920">
        <ele>793.7</ele>
        <time>2019-08-14T11:48:25Z</time>
      </trkpt>
      <trkpt lat="41.1816580" lon="-4.8062540">
        <ele>793.7</ele>
        <time>2019-08-14T11:48:26Z</time>
      </trkpt>
      <trkpt lat="41.1816470" lon="-4.8062200">
        <ele>793.7</ele>
        <time>2019-08-14T11:48:27Z</time>
      </trkpt>
      <trkpt lat="41.1816340" lon="-4.8061870">
        <ele>793.7</ele>
        <time>2019-08-14T11:48:28Z</time>
      </trkpt>
      <trkpt lat="41.1816200" lon="-4.8061520">
        <ele>793.8</ele>
        <time>2019-08-14T11:48:29Z</time>
      </trkpt>
      <trkpt lat="41.1816080" lon="-4.8061150">
        <ele>793.9</ele>
        <time>2019-08-14T11:48:30Z</time>
      </trkpt>
      <trkpt lat="41.1815970" lon="-4.8060750">
        <ele>793.9</ele>
        <time>2019-08-14T11:48:31Z</time>
      </trkpt>
      <trkpt lat="41.1815900" lon="-4.8060320">
        <ele>794.0</ele>
        <time>2019-08-14T11:48:32Z</time>
      </trkpt>
      <trkpt lat="41.1815870" lon="-4.8059860">
        <ele>794.1</ele>
        <time>2019-08-14T11:48:33Z</time>
      </trkpt>
      <trkpt lat="41.1815870" lon="-4.8059390">
        <ele>794.1</ele>
        <time>2019-08-14T11:48:34Z</time>
      </trkpt>
      <trkpt lat="41.1815910" lon="-4.8058910">
        <ele>794.2</ele>
        <time>2019-08-14T11:48:35Z</time>
      </trkpt>
      <trkpt lat="41.1815990" lon="-4.8058460">
        <ele>794.3</ele>
        <time>2019-08-14T11:48:36Z</time>
      </trkpt>
      <trkpt lat="41.1816060" lon="-4.8058010">
        <ele>794.3</ele>
        <time>2019-08-14T11:48:37Z</time>
      </trkpt>
      <trkpt lat="41.1816110" lon="-4.8057540">
        <ele>794.4</ele>
        <time>2019-08-14T11:48:38Z</time>
      </trkpt>
      <trkpt lat="41.1816170" lon="-4.8057070">
        <ele>794.5</ele>
        <time>2019-08-14T11:48:39Z</time>
      </trkpt>
      <trkpt lat="41.1816230" lon="-4.8056590">
        <ele>794.7</ele>
        <time>2019-08-14T11:48:40Z</time>
      </trkpt>
      <trkpt lat="41.1816290" lon="-4.8056100">
        <ele>794.8</ele>
        <time>2019-08-14T11:48:41Z</time>
      </trkpt>
      <trkpt lat="41.1816330" lon="-4.8055610">
        <ele>794.9</ele>
        <time>2019-08-14T11:48:42Z</time>
      </trkpt>
      <trkpt lat="41.1816390" lon="-4.8055110">
        <ele>794.9</ele>
        <time>2019-08-14T11:48:43Z</time>
      </trkpt>
      <trkpt lat="41.1816470" lon="-4.8054610">
        <ele>794.9</ele>
        <time>2019-08-14T11:48:44Z</time>
      </trkpt>
      <trkpt lat="41.1816530" lon="-4.8054100">
        <ele>794.9</ele>
        <time>2019-08-14T11:48:45Z</time>
      </trkpt>
      <trkpt lat="41.1816580" lon="-4.8053590">
        <ele>795.1</ele>
        <time>2019-08-14T11:48:46Z</time>
      </trkpt>
      <trkpt lat="41.1816650" lon="-4.8053070">
        <ele>795.3</ele>
        <time>2019-08-14T11:48:47Z</time>
      </trkpt>
      <trkpt lat="41.1816750" lon="-4.8052580">
        <ele>795.4</ele>
        <time>2019-08-14T11:48:48Z</time>
      </trkpt>
      <trkpt lat="41.1816850" lon="-4.8052100">
        <ele>795.7</ele>
        <time>2019-08-14T11:48:49Z</time>
      </trkpt>
      <trkpt lat="41.1816940" lon="-4.8051610">
        <ele>795.9</ele>
        <time>2019-08-14T11:48:50Z</time>
      </trkpt>
      <trkpt lat="41.1817030" lon="-4.8051130">
        <ele>796.0</ele>
        <time>2019-08-14T11:48:51Z</time>
      </trkpt>
      <trkpt lat="41.1817120" lon="-4.8050630">
        <ele>796.1</ele>
        <time>2019-08-14T11:48:52Z</time>
      </trkpt>
      <trkpt lat="41.1817210" lon="-4.8050140">
        <ele>796.2</ele>
        <time>2019-08-14T11:48:53Z</time>
      </trkpt>
      <trkpt lat="41.1817240" lon="-4.8049650">
        <ele>796.3</ele>
        <time>2019-08-14T11:48:54Z</time>
      </trkpt>
      <trkpt lat="41.1817260" lon="-4.8049160">
        <ele>796.4</ele>
        <time>2019-08-14T11:48:55Z</time>
      </trkpt>
      <trkpt lat="41.1817290" lon="-4.8048680">
        <ele>796.5</ele>
        <time>2019-08-14T11:48:56Z</time>
      </trkpt>
      <trkpt lat="41.1817330" lon="-4.8048210">
        <ele>796.6</ele>
        <time>2019-08-14T11:48:57Z</time>
      </trkpt>
      <trkpt lat="41.1817360" lon="-4.8047770">
        <ele>796.7</ele>
        <time>2019-08-14T11:48:58Z</time>
      </trkpt>
      <trkpt lat="41.1817400" lon="-4.8047370">
        <ele>796.8</ele>
        <time>2019-08-14T11:48:59Z</time>
      </trkpt>
      <trkpt lat="41.1817450" lon="-4.8047000">
        <ele>796.9</ele>
        <time>2019-08-14T11:49:00Z</time>
      </trkpt>
      <trkpt lat="41.1817500" lon="-4.8046620">
        <ele>797.0</ele>
        <time>2019-08-14T11:49:01Z</time>
      </trkpt>
      <trkpt lat="41.1817560" lon="-4.8046210">
        <ele>797.1</ele>
        <time>2019-08-14T11:49:02Z</time>
      </trkpt>
      <trkpt lat="41.1817630" lon="-4.8045780">
        <ele>797.2</ele>
        <time>2019-08-14T11:49:03Z</time>
      </trkpt>
      <trkpt lat="41.1817710" lon="-4.8045340">
        <ele>797.2</ele>
        <time>2019-08-14T11:49:04Z</time>
      </trkpt>
      <trkpt lat="41.1817800" lon="-4.8044880">
        <ele>797.3</ele>
        <time>2019-08-14T11:49:05Z</time>
      </trkpt>
      <trkpt lat="41.1817880" lon="-4.8044400">
        <ele>797.4</ele>
        <time>2019-08-14T11:49:06Z</time>
      </trkpt>
      <trkpt lat="41.1817970" lon="-4.8043910">
        <ele>797.5</ele>
        <time>2019-08-14T11:49:07Z</time>
      </trkpt>
      <trkpt lat="41.1818040" lon="-4.8043410">
        <ele>797.5</ele>
        <time>2019-08-14T11:49:08Z</time>
      </trkpt>
      <trkpt lat="41.1818100" lon="-4.8042910">
        <ele>797.6</ele>
        <time>2019-08-14T11:49:09Z</time>
      </trkpt>
      <trkpt lat="41.1818160" lon="-4.8042400">
        <ele>797.7</ele>
        <time>2019-08-14T11:49:10Z</time>
      </trkpt>
      <trkpt lat="41.1818240" lon="-4.8041910">
        <ele>797.8</ele>
        <time>2019-08-14T11:49:11Z</time>
      </trkpt>
      <trkpt lat="41.1818340" lon="-4.8041420">
        <ele>797.8</ele>
        <time>2019-08-14T11:49:12Z</time>
      </trkpt>
      <trkpt lat="41.1818440" lon="-4.8040960">
        <ele>797.9</ele>
        <time>2019-08-14T11:49:13Z</time>
      </trkpt>
      <trkpt lat="41.1818540" lon="-4.8040550">
        <ele>798.0</ele>
        <time>2019-08-14T11:49:14Z</time>
      </trkpt>
      <trkpt lat="41.1818590" lon="-4.8040180">
        <ele>798.0</ele>
        <time>2019-08-14T11:49:15Z</time>
      </trkpt>
      <trkpt lat="41.1818470" lon="-4.8039710">
        <ele>798.1</ele>
        <time>2019-08-14T11:49:17Z</time>
      </trkpt>
      <trkpt lat="41.1818090" lon="-4.8039650">
        <ele>798.4</ele>
        <time>2019-08-14T11:49:19Z</time>
      </trkpt>
      <trkpt lat="41.1817670" lon="-4.8039640">
        <ele>798.5</ele>
        <time>2019-08-14T11:49:21Z</time>
      </trkpt>
      <trkpt lat="41.1817270" lon="-4.8039570">
        <ele>798.6</ele>
        <time>2019-08-14T11:49:23Z</time>
      </trkpt>
      <trkpt lat="41.1816860" lon="-4.8039530">
        <ele>798.8</ele>
        <time>2019-08-14T11:49:25Z</time>
      </trkpt>
      <trkpt lat="41.1816420" lon="-4.8039440">
        <ele>798.9</ele>
        <time>2019-08-14T11:49:27Z</time>
      </trkpt>
      <trkpt lat="41.1816040" lon="-4.8039190">
        <ele>799.1</ele>
        <time>2019-08-14T11:49:29Z</time>
      </trkpt>
      <trkpt lat="41.1815670" lon="-4.8038910">
        <ele>799.5</ele>
        <time>2019-08-14T11:49:31Z</time>
      </trkpt>
      <trkpt lat="41.1815260" lon="-4.8038600">
        <ele>799.7</ele>
        <time>2019-08-14T11:49:33Z</time>
      </trkpt>
      <trkpt lat="41.1814850" lon="-4.8038240">
        <ele>800.0</ele>
        <time>2019-08-14T11:49:35Z</time>
      </trkpt>
      <trkpt lat="41.1814440" lon="-4.8037880">
        <ele>800.2</ele>
        <time>2019-08-14T11:49:37Z</time>
      </trkpt>
      <trkpt lat="41.1814070" lon="-4.8037520">
        <ele>800.5</ele>
        <time>2019-08-14T11:49:39Z</time>
      </trkpt>
      <trkpt lat="41.1813710" lon="-4.8037120">
        <ele>800.6</ele>
        <time>2019-08-14T11:49:41Z</time>
      </trkpt>
      <trkpt lat="41.1813420" lon="-4.8036700">
        <ele>800.9</ele>
        <time>2019-08-14T11:49:43Z</time>
      </trkpt>
      <trkpt lat="41.1813240" lon="-4.8036240">
        <ele>800.8</ele>
        <time>2019-08-14T11:49:45Z</time>
      </trkpt>
      <trkpt lat="41.1813380" lon="-4.8035940">
        <ele>800.8</ele>
        <time>2019-08-14T11:49:55Z</time>
      </trkpt>
      <trkpt lat="41.1813640" lon="-4.8036100">
        <ele>800.8</ele>
        <time>2019-08-14T11:49:57Z</time>
      </trkpt>
      <trkpt lat="41.1813970" lon="-4.8036590">
        <ele>800.7</ele>
        <time>2019-08-14T11:49:59Z</time>
      </trkpt>
      <trkpt lat="41.1814150" lon="-4.8036900">
        <ele>800.5</ele>
        <time>2019-08-14T11:50:00Z</time>
      </trkpt>
      <trkpt lat="41.1814360" lon="-4.8037240">
        <ele>800.3</ele>
        <time>2019-08-14T11:50:01Z</time>
      </trkpt>
      <trkpt lat="41.1814610" lon="-4.8037580">
        <ele>800.2</ele>
        <time>2019-08-14T11:50:02Z</time>
      </trkpt>
      <trkpt lat="41.1814890" lon="-4.8037920">
        <ele>800.0</ele>
        <time>2019-08-14T11:50:03Z</time>
      </trkpt>
      <trkpt lat="41.1815160" lon="-4.8038260">
        <ele>799.9</ele>
        <time>2019-08-14T11:50:04Z</time>
      </trkpt>
      <trkpt lat="41.1815360" lon="-4.8038580">
        <ele>799.8</ele>
        <time>2019-08-14T11:50:05Z</time>
      </trkpt>
      <trkpt lat="41.1815470" lon="-4.8039120">
        <ele>799.6</ele>
        <time>2019-08-14T11:50:07Z</time>
      </trkpt>
      <trkpt lat="41.1815550" lon="-4.8039330">
        <ele>799.6</ele>
        <time>2019-08-14T11:50:14Z</time>
      </trkpt>
      <trkpt lat="41.1815350" lon="-4.8039560">
        <ele>799.4</ele>
        <time>2019-08-14T11:50:21Z</time>
      </trkpt>
      <trkpt lat="41.1816800" lon="-4.8038340">
        <ele>798.9</ele>
        <time>2019-08-14T11:54:20Z</time>
      </trkpt>
      <trkpt lat="41.1817270" lon="-4.8038440">
        <ele>798.7</ele>
        <time>2019-08-14T11:54:22Z</time>
      </trkpt>
      <trkpt lat="41.1817540" lon="-4.8038550">
        <ele>798.6</ele>
        <time>2019-08-14T11:54:23Z</time>
      </trkpt>
      <trkpt lat="41.1817890" lon="-4.8038700">
        <ele>798.5</ele>
        <time>2019-08-14T11:54:24Z</time>
      </trkpt>
      <trkpt lat="41.1818100" lon="-4.8038930">
        <ele>798.4</ele>
        <time>2019-08-14T11:54:25Z</time>
      </trkpt>
      <trkpt lat="41.1818610" lon="-4.8039230">
        <ele>798.1</ele>
        <time>2019-08-14T11:54:27Z</time>
      </trkpt>
      <trkpt lat="41.1818820" lon="-4.8039660">
        <ele>798.0</ele>
        <time>2019-08-14T11:54:28Z</time>
      </trkpt>
      <trkpt lat="41.1818920" lon="-4.8040160">
        <ele>798.0</ele>
        <time>2019-08-14T11:54:29Z</time>
      </trkpt>
      <trkpt lat="41.1818890" lon="-4.8040650">
        <ele>797.9</ele>
        <time>2019-08-14T11:54:30Z</time>
      </trkpt>
      <trkpt lat="41.1818800" lon="-4.8041120">
        <ele>797.8</ele>
        <time>2019-08-14T11:54:31Z</time>
      </trkpt>
      <trkpt lat="41.1818700" lon="-4.8041600">
        <ele>797.8</ele>
        <time>2019-08-14T11:54:32Z</time>
      </trkpt>
      <trkpt lat="41.1818610" lon="-4.8042060">
        <ele>797.7</ele>
        <time>2019-08-14T11:54:33Z</time>
      </trkpt>
      <trkpt lat="41.1818530" lon="-4.8042540">
        <ele>797.6</ele>
        <time>2019-08-14T11:54:34Z</time>
      </trkpt>
      <trkpt lat="41.1818480" lon="-4.8043030">
        <ele>797.6</ele>
        <time>2019-08-14T11:54:35Z</time>
      </trkpt>
      <trkpt lat="41.1818450" lon="-4.8043510">
        <ele>797.5</ele>
        <time>2019-08-14T11:54:36Z</time>
      </trkpt>
      <trkpt lat="41.1818390" lon="-4.8044010">
        <ele>797.4</ele>
        <time>2019-08-14T11:54:37Z</time>
      </trkpt>
      <trkpt lat="41.1818320" lon="-4.8044530">
        <ele>797.3</ele>
        <time>2019-08-14T11:54:38Z</time>
      </trkpt>
      <trkpt lat="41.1818230" lon="-4.8045080">
        <ele>797.3</ele>
        <time>2019-08-14T11:54:39Z</time>
      </trkpt>
      <trkpt lat="41.1818090" lon="-4.8045650">
        <ele>797.2</ele>
        <time>2019-08-14T11:54:40Z</time>
      </trkpt>
      <trkpt lat="41.1817980" lon="-4.8046250">
        <ele>797.1</ele>
        <time>2019-08-14T11:54:41Z</time>
      </trkpt>
      <trkpt lat="41.1817890" lon="-4.8046840">
        <ele>797.0</ele>
        <time>2019-08-14T11:54:42Z</time>
      </trkpt>
      <trkpt lat="41.1817810" lon="-4.8047420">
        <ele>796.8</ele>
        <time>2019-08-14T11:54:43Z</time>
      </trkpt>
      <trkpt lat="41.1817720" lon="-4.8048020">
        <ele>796.7</ele>
        <time>2019-08-14T11:54:44Z</time>
      </trkpt>
      <trkpt lat="41.1817660" lon="-4.8048620">
        <ele>796.6</ele>
        <time>2019-08-14T11:54:45Z</time>
      </trkpt>
      <trkpt lat="41.1817580" lon="-4.8049220">
        <ele>796.4</ele>
        <time>2019-08-14T11:54:46Z</time>
      </trkpt>
      <trkpt lat="41.1817480" lon="-4.8049820">
        <ele>796.3</ele>
        <time>2019-08-14T11:54:47Z</time>
      </trkpt>
      <trkpt lat="41.1817440" lon="-4.8050430">
        <ele>796.2</ele>
        <time>2019-08-14T11:54:48Z</time>
      </trkpt>
      <trkpt lat="41.1817390" lon="-4.8051040">
        <ele>796.0</ele>
        <time>2019-08-14T11:54:49Z</time>
      </trkpt>
      <trkpt lat="41.1817290" lon="-4.8051700">
        <ele>795.9</ele>
        <time>2019-08-14T11:54:50Z</time>
      </trkpt>
      <trkpt lat="41.1817210" lon="-4.8052400">
        <ele>795.5</ele>
        <time>2019-08-14T11:54:51Z</time>
      </trkpt>
      <trkpt lat="41.1817100" lon="-4.8053090">
        <ele>795.3</ele>
        <time>2019-08-14T11:54:52Z</time>
      </trkpt>
      <trkpt lat="41.1817030" lon="-4.8053770">
        <ele>795.1</ele>
        <time>2019-08-14T11:54:53Z</time>
      </trkpt>
      <trkpt lat="41.1816920" lon="-4.8054520">
        <ele>794.9</ele>
        <time>2019-08-14T11:54:54Z</time>
      </trkpt>
      <trkpt lat="41.1816810" lon="-4.8055180">
        <ele>794.9</ele>
        <time>2019-08-14T11:54:55Z</time>
      </trkpt>
      <trkpt lat="41.1816720" lon="-4.8055790">
        <ele>794.9</ele>
        <time>2019-08-14T11:54:56Z</time>
      </trkpt>
      <trkpt lat="41.1816620" lon="-4.8056400">
        <ele>794.7</ele>
        <time>2019-08-14T11:54:57Z</time>
      </trkpt>
      <trkpt lat="41.1816530" lon="-4.8057010">
        <ele>794.6</ele>
        <time>2019-08-14T11:54:58Z</time>
      </trkpt>
      <trkpt lat="41.1816460" lon="-4.8057620">
        <ele>794.5</ele>
        <time>2019-08-14T11:54:59Z</time>
      </trkpt>
      <trkpt lat="41.1816380" lon="-4.8058200">
        <ele>794.3</ele>
        <time>2019-08-14T11:55:00Z</time>
      </trkpt>
      <trkpt lat="41.1816270" lon="-4.8058810">
        <ele>794.2</ele>
        <time>2019-08-14T11:55:01Z</time>
      </trkpt>
      <trkpt lat="41.1816160" lon="-4.8059420">
        <ele>794.1</ele>
        <time>2019-08-14T11:55:02Z</time>
      </trkpt>
      <trkpt lat="41.1816120" lon="-4.8060010">
        <ele>794.1</ele>
        <time>2019-08-14T11:55:03Z</time>
      </trkpt>
      <trkpt lat="41.1816160" lon="-4.8060570">
        <ele>794.0</ele>
        <time>2019-08-14T11:55:04Z</time>
      </trkpt>
      <trkpt lat="41.1816320" lon="-4.8061060">
        <ele>793.9</ele>
        <time>2019-08-14T11:55:05Z</time>
      </trkpt>
      <trkpt lat="41.1816570" lon="-4.8061460">
        <ele>793.8</ele>
        <time>2019-08-14T11:55:06Z</time>
      </trkpt>
      <trkpt lat="41.1816910" lon="-4.8061800">
        <ele>793.7</ele>
        <time>2019-08-14T11:55:07Z</time>
      </trkpt>
      <trkpt lat="41.1817280" lon="-4.8062020">
        <ele>793.7</ele>
        <time>2019-08-14T11:55:08Z</time>
      </trkpt>
      <trkpt lat="41.1817630" lon="-4.8062160">
        <ele>793.7</ele>
        <time>2019-08-14T11:55:09Z</time>
      </trkpt>
      <trkpt lat="41.1817930" lon="-4.8062270">
        <ele>793.8</ele>
        <time>2019-08-14T11:55:10Z</time>
      </trkpt>
      <trkpt lat="41.1818250" lon="-4.8062360">
        <ele>793.8</ele>
        <time>2019-08-14T11:55:11Z</time>
      </trkpt>
      <trkpt lat="41.1818570" lon="-4.8062470">
        <ele>793.8</ele>
        <time>2019-08-14T11:55:12Z</time>
      </trkpt>
      <trkpt lat="41.1818900" lon="-4.8062630">
        <ele>793.8</ele>
        <time>2019-08-14T11:55:13Z</time>
      </trkpt>
      <trkpt lat="41.1819240" lon="-4.8062800">
        <ele>793.9</ele>
        <time>2019-08-14T11:55:14Z</time>
      </trkpt>
      <trkpt lat="41.1819560" lon="-4.8062970">
        <ele>793.9</ele>
        <time>2019-08-14T11:55:15Z</time>
      </trkpt>
      <trkpt lat="41.1819850" lon="-4.8063110">
        <ele>793.9</ele>
        <time>2019-08-14T11:55:16Z</time>
      </trkpt>
      <trkpt lat="41.1820110" lon="-4.8063240">
        <ele>794.0</ele>
        <time>2019-08-14T11:55:17Z</time>
      </trkpt>
      <trkpt lat="41.1820380" lon="-4.8063350">
        <ele>794.0</ele>
        <time>2019-08-14T11:55:18Z</time>
      </trkpt>
      <trkpt lat="41.1820880" lon="-4.8063490">
        <ele>794.1</ele>
        <time>2019-08-14T11:55:20Z</time>
      </trkpt>
      <trkpt lat="41.1821420" lon="-4.8063660">
        <ele>794.2</ele>
        <time>2019-08-14T11:55:22Z</time>
      </trkpt>
      <trkpt lat="41.1821710" lon="-4.8063810">
        <ele>794.2</ele>
        <time>2019-08-14T11:55:23Z</time>
      </trkpt>
      <trkpt lat="41.1821990" lon="-4.8063960">
        <ele>794.2</ele>
        <time>2019-08-14T11:55:24Z</time>
      </trkpt>
      <trkpt lat="41.1822270" lon="-4.8064120">
        <ele>794.3</ele>
        <time>2019-08-14T11:55:25Z</time>
      </trkpt>
      <trkpt lat="41.1822560" lon="-4.8064250">
        <ele>794.3</ele>
        <time>2019-08-14T11:55:26Z</time>
      </trkpt>
      <trkpt lat="41.1822860" lon="-4.8064410">
        <ele>794.3</ele>
        <time>2019-08-14T11:55:27Z</time>
      </trkpt>
      <trkpt lat="41.1823140" lon="-4.8064570">
        <ele>794.3</ele>
        <time>2019-08-14T11:55:28Z</time>
      </trkpt>
      <trkpt lat="41.1823420" lon="-4.8064690">
        <ele>794.3</ele>
        <time>2019-08-14T11:55:29Z</time>
      </trkpt>
      <trkpt lat="41.1823680" lon="-4.8064810">
        <ele>794.3</ele>
        <time>2019-08-14T11:55:30Z</time>
      </trkpt>
      <trkpt lat="41.1823940" lon="-4.8064950">
        <ele>794.3</ele>
        <time>2019-08-14T11:55:31Z</time>
      </trkpt>
      <trkpt lat="41.1824220" lon="-4.8065160">
        <ele>794.3</ele>
        <time>2019-08-14T11:55:32Z</time>
      </trkpt>
      <trkpt lat="41.1824490" lon="-4.8065410">
        <ele>794.3</ele>
        <time>2019-08-14T11:55:33Z</time>
      </trkpt>
      <trkpt lat="41.1824750" lon="-4.8065740">
        <ele>794.3</ele>
        <time>2019-08-14T11:55:34Z</time>
      </trkpt>
      <trkpt lat="41.1824990" lon="-4.8066100">
        <ele>794.5</ele>
        <time>2019-08-14T11:55:35Z</time>
      </trkpt>
      <trkpt lat="41.1825200" lon="-4.8066470">
        <ele>794.5</ele>
        <time>2019-08-14T11:55:36Z</time>
      </trkpt>
      <trkpt lat="41.1825420" lon="-4.8066820">
        <ele>794.5</ele>
        <time>2019-08-14T11:55:37Z</time>
      </trkpt>
      <trkpt lat="41.1825630" lon="-4.8067170">
        <ele>794.5</ele>
        <time>2019-08-14T11:55:38Z</time>
      </trkpt>
      <trkpt lat="41.1825840" lon="-4.8067530">
        <ele>794.5</ele>
        <time>2019-08-14T11:55:39Z</time>
      </trkpt>
      <trkpt lat="41.1826030" lon="-4.8067900">
        <ele>794.5</ele>
        <time>2019-08-14T11:55:40Z</time>
      </trkpt>
      <trkpt lat="41.1826190" lon="-4.8068240">
        <ele>794.5</ele>
        <time>2019-08-14T11:55:41Z</time>
      </trkpt>
      <trkpt lat="41.1826360" lon="-4.8068540">
        <ele>794.5</ele>
        <time>2019-08-14T11:55:42Z</time>
      </trkpt>
      <trkpt lat="41.1826530" lon="-4.8068830">
        <ele>794.5</ele>
        <time>2019-08-14T11:55:43Z</time>
      </trkpt>
      <trkpt lat="41.1826860" lon="-4.8069410">
        <ele>794.5</ele>
        <time>2019-08-14T11:55:45Z</time>
      </trkpt>
      <trkpt lat="41.1827010" lon="-4.8069750">
        <ele>794.5</ele>
        <time>2019-08-14T11:55:46Z</time>
      </trkpt>
      <trkpt lat="41.1827170" lon="-4.8070120">
        <ele>794.5</ele>
        <time>2019-08-14T11:55:47Z</time>
      </trkpt>
      <trkpt lat="41.1827340" lon="-4.8070520">
        <ele>794.5</ele>
        <time>2019-08-14T11:55:48Z</time>
      </trkpt>
      <trkpt lat="41.1827510" lon="-4.8070940">
        <ele>794.4</ele>
        <time>2019-08-14T11:55:49Z</time>
      </trkpt>
      <trkpt lat="41.1827690" lon="-4.8071380">
        <ele>794.4</ele>
        <time>2019-08-14T11:55:50Z</time>
      </trkpt>
      <trkpt lat="41.1827860" lon="-4.8071830">
        <ele>794.3</ele>
        <time>2019-08-14T11:55:51Z</time>
      </trkpt>
      <trkpt lat="41.1828010" lon="-4.8072280">
        <ele>794.3</ele>
        <time>2019-08-14T11:55:52Z</time>
      </trkpt>
      <trkpt lat="41.1828170" lon="-4.8072710">
        <ele>794.2</ele>
        <time>2019-08-14T11:55:53Z</time>
      </trkpt>
      <trkpt lat="41.1828340" lon="-4.8073130">
        <ele>794.1</ele>
        <time>2019-08-14T11:55:54Z</time>
      </trkpt>
      <trkpt lat="41.1828530" lon="-4.8073560">
        <ele>794.0</ele>
        <time>2019-08-14T11:55:55Z</time>
      </trkpt>
      <trkpt lat="41.1828730" lon="-4.8074040">
        <ele>793.9</ele>
        <time>2019-08-14T11:55:56Z</time>
      </trkpt>
      <trkpt lat="41.1828940" lon="-4.8074540">
        <ele>793.8</ele>
        <time>2019-08-14T11:55:57Z</time>
      </trkpt>
      <trkpt lat="41.1829150" lon="-4.8075080">
        <ele>793.7</ele>
        <time>2019-08-14T11:55:58Z</time>
      </trkpt>
      <trkpt lat="41.1829360" lon="-4.8075620">
        <ele>793.5</ele>
        <time>2019-08-14T11:55:59Z</time>
      </trkpt>
      <trkpt lat="41.1829600" lon="-4.8076130">
        <ele>793.3</ele>
        <time>2019-08-14T11:56:00Z</time>
      </trkpt>
      <trkpt lat="41.1829860" lon="-4.8076600">
        <ele>793.2</ele>
        <time>2019-08-14T11:56:01Z</time>
      </trkpt>
      <trkpt lat="41.1830130" lon="-4.8077040">
        <ele>793.0</ele>
        <time>2019-08-14T11:56:02Z</time>
      </trkpt>
      <trkpt lat="41.1830400" lon="-4.8077480">
        <ele>792.8</ele>
        <time>2019-08-14T11:56:03Z</time>
      </trkpt>
      <trkpt lat="41.1830660" lon="-4.8077910">
        <ele>792.6</ele>
        <time>2019-08-14T11:56:04Z</time>
      </trkpt>
      <trkpt lat="41.1830940" lon="-4.8078320">
        <ele>792.4</ele>
        <time>2019-08-14T11:56:05Z</time>
      </trkpt>
      <trkpt lat="41.1831240" lon="-4.8078690">
        <ele>792.3</ele>
        <time>2019-08-14T11:56:06Z</time>
      </trkpt>
      <trkpt lat="41.1831570" lon="-4.8079040">
        <ele>792.1</ele>
        <time>2019-08-14T11:56:07Z</time>
      </trkpt>
      <trkpt lat="41.1831900" lon="-4.8079340">
        <ele>791.9</ele>
        <time>2019-08-14T11:56:08Z</time>
      </trkpt>
      <trkpt lat="41.1832240" lon="-4.8079530">
        <ele>791.8</ele>
        <time>2019-08-14T11:56:09Z</time>
      </trkpt>
      <trkpt lat="41.1832610" lon="-4.8079560">
        <ele>791.8</ele>
        <time>2019-08-14T11:56:10Z</time>
      </trkpt>
      <trkpt lat="41.1832900" lon="-4.8079380">
        <ele>791.8</ele>
        <time>2019-08-14T11:56:11Z</time>
      </trkpt>
      <trkpt lat="41.1833130" lon="-4.8079090">
        <ele>791.9</ele>
        <time>2019-08-14T11:56:12Z</time>
      </trkpt>
      <trkpt lat="41.1833290" lon="-4.8078760">
        <ele>791.9</ele>
        <time>2019-08-14T11:56:13Z</time>
      </trkpt>
      <trkpt lat="41.1833410" lon="-4.8078380">
        <ele>792.0</ele>
        <time>2019-08-14T11:56:14Z</time>
      </trkpt>
      <trkpt lat="41.1833520" lon="-4.8077970">
        <ele>792.2</ele>
        <time>2019-08-14T11:56:15Z</time>
      </trkpt>
      <trkpt lat="41.1833630" lon="-4.8077560">
        <ele>792.3</ele>
        <time>2019-08-14T11:56:16Z</time>
      </trkpt>
      <trkpt lat="41.1833780" lon="-4.8077130">
        <ele>792.4</ele>
        <time>2019-08-14T11:56:17Z</time>
      </trkpt>
      <trkpt lat="41.1833940" lon="-4.8076690">
        <ele>792.5</ele>
        <time>2019-08-14T11:56:18Z</time>
      </trkpt>
      <trkpt lat="41.1834090" lon="-4.8076260">
        <ele>792.5</ele>
        <time>2019-08-14T11:56:19Z</time>
      </trkpt>
      <trkpt lat="41.1834230" lon="-4.8075860">
        <ele>792.6</ele>
        <time>2019-08-14T11:56:20Z</time>
      </trkpt>
      <trkpt lat="41.1834380" lon="-4.8075450">
        <ele>792.6</ele>
        <time>2019-08-14T11:56:21Z</time>
      </trkpt>
      <trkpt lat="41.1834520" lon="-4.8075020">
        <ele>792.7</ele>
        <time>2019-08-14T11:56:22Z</time>
      </trkpt>
      <trkpt lat="41.1834670" lon="-4.8074560">
        <ele>792.8</ele>
        <time>2019-08-14T11:56:23Z</time>
      </trkpt>
      <trkpt lat="41.1834820" lon="-4.8074090">
        <ele>792.9</ele>
        <time>2019-08-14T11:56:24Z</time>
      </trkpt>
      <trkpt lat="41.1834990" lon="-4.8073620">
        <ele>793.0</ele>
        <time>2019-08-14T11:56:25Z</time>
      </trkpt>
      <trkpt lat="41.1835160" lon="-4.8073150">
        <ele>793.1</ele>
        <time>2019-08-14T11:56:26Z</time>
      </trkpt>
      <trkpt lat="41.1835320" lon="-4.8072670">
        <ele>793.2</ele>
        <time>2019-08-14T11:56:27Z</time>
      </trkpt>
      <trkpt lat="41.1835500" lon="-4.8072190">
        <ele>793.3</ele>
        <time>2019-08-14T11:56:28Z</time>
      </trkpt>
      <trkpt lat="41.1835680" lon="-4.8071720">
        <ele>793.4</ele>
        <time>2019-08-14T11:56:29Z</time>
      </trkpt>
      <trkpt lat="41.1835860" lon="-4.8071270">
        <ele>793.5</ele>
        <time>2019-08-14T11:56:30Z</time>
      </trkpt>
      <trkpt lat="41.1836020" lon="-4.8070840">
        <ele>793.6</ele>
        <time>2019-08-14T11:56:31Z</time>
      </trkpt>
      <trkpt lat="41.1836140" lon="-4.8070430">
        <ele>793.6</ele>
        <time>2019-08-14T11:56:32Z</time>
      </trkpt>
      <trkpt lat="41.1836250" lon="-4.8070050">
        <ele>793.7</ele>
        <time>2019-08-14T11:56:33Z</time>
      </trkpt>
      <trkpt lat="41.1836380" lon="-4.8069710">
        <ele>793.6</ele>
        <time>2019-08-14T11:56:34Z</time>
      </trkpt>
      <trkpt lat="41.1836580" lon="-4.8069470">
        <ele>793.4</ele>
        <time>2019-08-14T11:56:35Z</time>
      </trkpt>
      <trkpt lat="41.1836850" lon="-4.8069330">
        <ele>793.2</ele>
        <time>2019-08-14T11:56:36Z</time>
      </trkpt>
      <trkpt lat="41.1837150" lon="-4.8069330">
        <ele>793.1</ele>
        <time>2019-08-14T11:56:37Z</time>
      </trkpt>
      <trkpt lat="41.1837450" lon="-4.8069460">
        <ele>792.9</ele>
        <time>2019-08-14T11:56:38Z</time>
      </trkpt>
      <trkpt lat="41.1837730" lon="-4.8069670">
        <ele>792.7</ele>
        <time>2019-08-14T11:56:39Z</time>
      </trkpt>
      <trkpt lat="41.1838050" lon="-4.8069910">
        <ele>792.5</ele>
        <time>2019-08-14T11:56:40Z</time>
      </trkpt>
      <trkpt lat="41.1838380" lon="-4.8070140">
        <ele>792.3</ele>
        <time>2019-08-14T11:56:41Z</time>
      </trkpt>
      <trkpt lat="41.1838730" lon="-4.8070380">
        <ele>792.1</ele>
        <time>2019-08-14T11:56:42Z</time>
      </trkpt>
      <trkpt lat="41.1839090" lon="-4.8070630">
        <ele>792.0</ele>
        <time>2019-08-14T11:56:43Z</time>
      </trkpt>
      <trkpt lat="41.1839450" lon="-4.8070870">
        <ele>791.8</ele>
        <time>2019-08-14T11:56:44Z</time>
      </trkpt>
      <trkpt lat="41.1839840" lon="-4.8071090">
        <ele>791.7</ele>
        <time>2019-08-14T11:56:45Z</time>
      </trkpt>
      <trkpt lat="41.1840220" lon="-4.8071300">
        <ele>791.6</ele>
        <time>2019-08-14T11:56:46Z</time>
      </trkpt>
      <trkpt lat="41.1840590" lon="-4.8071520">
        <ele>791.6</ele>
        <time>2019-08-14T11:56:47Z</time>
      </trkpt>
      <trkpt lat="41.1840960" lon="-4.8071720">
        <ele>791.5</ele>
        <time>2019-08-14T11:56:48Z</time>
      </trkpt>
      <trkpt lat="41.1841340" lon="-4.8071940">
        <ele>791.4</ele>
        <time>2019-08-14T11:56:49Z</time>
      </trkpt>
      <trkpt lat="41.1841740" lon="-4.8072150">
        <ele>791.3</ele>
        <time>2019-08-14T11:56:50Z</time>
      </trkpt>
      <trkpt lat="41.1842150" lon="-4.8072350">
        <ele>791.2</ele>
        <time>2019-08-14T11:56:51Z</time>
      </trkpt>
      <trkpt lat="41.1842540" lon="-4.8072550">
        <ele>791.1</ele>
        <time>2019-08-14T11:56:52Z</time>
      </trkpt>
      <trkpt lat="41.1842920" lon="-4.8072770">
        <ele>791.0</ele>
        <time>2019-08-14T11:56:53Z</time>
      </trkpt>
      <trkpt lat="41.1843290" lon="-4.8072980">
        <ele>790.9</ele>
        <time>2019-08-14T11:56:54Z</time>
      </trkpt>
      <trkpt lat="41.1843640" lon="-4.8073170">
        <ele>790.8</ele>
        <time>2019-08-14T11:56:55Z</time>
      </trkpt>
      <trkpt lat="41.1843990" lon="-4.8073340">
        <ele>790.7</ele>
        <time>2019-08-14T11:56:56Z</time>
      </trkpt>
      <trkpt lat="41.1844320" lon="-4.8073510">
        <ele>790.7</ele>
        <time>2019-08-14T11:56:57Z</time>
      </trkpt>
      <trkpt lat="41.1844650" lon="-4.8073690">
        <ele>790.6</ele>
        <time>2019-08-14T11:56:58Z</time>
      </trkpt>
      <trkpt lat="41.1844970" lon="-4.8073860">
        <ele>790.6</ele>
        <time>2019-08-14T11:56:59Z</time>
      </trkpt>
      <trkpt lat="41.1845290" lon="-4.8074040">
        <ele>790.5</ele>
        <time>2019-08-14T11:57:00Z</time>
      </trkpt>
      <trkpt lat="41.1845620" lon="-4.8074230">
        <ele>790.5</ele>
        <time>2019-08-14T11:57:01Z</time>
      </trkpt>
      <trkpt lat="41.1845960" lon="-4.8074430">
        <ele>790.4</ele>
        <time>2019-08-14T11:57:02Z</time>
      </trkpt>
      <trkpt lat="41.1846300" lon="-4.8074640">
        <ele>790.4</ele>
        <time>2019-08-14T11:57:03Z</time>
      </trkpt>
      <trkpt lat="41.1846660" lon="-4.8074900">
        <ele>790.3</ele>
        <time>2019-08-14T11:57:04Z</time>
      </trkpt>
      <trkpt lat="41.1847010" lon="-4.8075190">
        <ele>790.2</ele>
        <time>2019-08-14T11:57:05Z</time>
      </trkpt>
      <trkpt lat="41.1847370" lon="-4.8075490">
        <ele>790.1</ele>
        <time>2019-08-14T11:57:06Z</time>
      </trkpt>
      <trkpt lat="41.1847740" lon="-4.8075790">
        <ele>790.0</ele>
        <time>2019-08-14T11:57:07Z</time>
      </trkpt>
      <trkpt lat="41.1848100" lon="-4.8076090">
        <ele>789.9</ele>
        <time>2019-08-14T11:57:08Z</time>
      </trkpt>
      <trkpt lat="41.1848460" lon="-4.8076380">
        <ele>789.8</ele>
        <time>2019-08-14T11:57:09Z</time>
      </trkpt>
      <trkpt lat="41.1848800" lon="-4.8076670">
        <ele>789.7</ele>
        <time>2019-08-14T11:57:10Z</time>
      </trkpt>
      <trkpt lat="41.1849110" lon="-4.8076980">
        <ele>789.6</ele>
        <time>2019-08-14T11:57:11Z</time>
      </trkpt>
      <trkpt lat="41.1849410" lon="-4.8077310">
        <ele>789.5</ele>
        <time>2019-08-14T11:57:12Z</time>
      </trkpt>
      <trkpt lat="41.1849680" lon="-4.8077700">
        <ele>789.4</ele>
        <time>2019-08-14T11:57:13Z</time>
      </trkpt>
      <trkpt lat="41.1849900" lon="-4.8078150">
        <ele>789.4</ele>
        <time>2019-08-14T11:57:14Z</time>
      </trkpt>
      <trkpt lat="41.1850090" lon="-4.8078650">
        <ele>789.4</ele>
        <time>2019-08-14T11:57:15Z</time>
      </trkpt>
      <trkpt lat="41.1850270" lon="-4.8079150">
        <ele>789.4</ele>
        <time>2019-08-14T11:57:16Z</time>
      </trkpt>
      <trkpt lat="41.1850470" lon="-4.8079660">
        <ele>789.4</ele>
        <time>2019-08-14T11:57:17Z</time>
      </trkpt>
      <trkpt lat="41.1850670" lon="-4.8080180">
        <ele>789.4</ele>
        <time>2019-08-14T11:57:18Z</time>
      </trkpt>
      <trkpt lat="41.1850890" lon="-4.8080680">
        <ele>789.4</ele>
        <time>2019-08-14T11:57:19Z</time>
      </trkpt>
      <trkpt lat="41.1851160" lon="-4.8081150">
        <ele>789.4</ele>
        <time>2019-08-14T11:57:20Z</time>
      </trkpt>
      <trkpt lat="41.1851480" lon="-4.8081560">
        <ele>789.4</ele>
        <time>2019-08-14T11:57:21Z</time>
      </trkpt>
      <trkpt lat="41.1851850" lon="-4.8081870">
        <ele>789.4</ele>
        <time>2019-08-14T11:57:22Z</time>
      </trkpt>
      <trkpt lat="41.1852240" lon="-4.8082130">
        <ele>789.4</ele>
        <time>2019-08-14T11:57:23Z</time>
      </trkpt>
      <trkpt lat="41.1852630" lon="-4.8082370">
        <ele>789.4</ele>
        <time>2019-08-14T11:57:24Z</time>
      </trkpt>
      <trkpt lat="41.1853010" lon="-4.8082550">
        <ele>789.4</ele>
        <time>2019-08-14T11:57:25Z</time>
      </trkpt>
      <trkpt lat="41.1853410" lon="-4.8082730">
        <ele>789.4</ele>
        <time>2019-08-14T11:57:26Z</time>
      </trkpt>
      <trkpt lat="41.1853820" lon="-4.8082920">
        <ele>789.4</ele>
        <time>2019-08-14T11:57:27Z</time>
      </trkpt>
      <trkpt lat="41.1854240" lon="-4.8083080">
        <ele>789.4</ele>
        <time>2019-08-14T11:57:28Z</time>
      </trkpt>
      <trkpt lat="41.1854670" lon="-4.8083230">
        <ele>789.4</ele>
        <time>2019-08-14T11:57:29Z</time>
      </trkpt>
      <trkpt lat="41.1855130" lon="-4.8083360">
        <ele>789.4</ele>
        <time>2019-08-14T11:57:30Z</time>
      </trkpt>
      <trkpt lat="41.1855580" lon="-4.8083500">
        <ele>789.4</ele>
        <time>2019-08-14T11:57:31Z</time>
      </trkpt>
      <trkpt lat="41.1856040" lon="-4.8083650">
        <ele>789.4</ele>
        <time>2019-08-14T11:57:32Z</time>
      </trkpt>
      <trkpt lat="41.1856490" lon="-4.8083800">
        <ele>789.4</ele>
        <time>2019-08-14T11:57:33Z</time>
      </trkpt>
      <trkpt lat="41.1856950" lon="-4.8083950">
        <ele>789.4</ele>
        <time>2019-08-14T11:57:34Z</time>
      </trkpt>
      <trkpt lat="41.1857400" lon="-4.8084110">
        <ele>789.3</ele>
        <time>2019-08-14T11:57:35Z</time>
      </trkpt>
      <trkpt lat="41.1857840" lon="-4.8084280">
        <ele>789.3</ele>
        <time>2019-08-14T11:57:36Z</time>
      </trkpt>
      <trkpt lat="41.1858280" lon="-4.8084440">
        <ele>789.3</ele>
        <time>2019-08-14T11:57:37Z</time>
      </trkpt>
      <trkpt lat="41.1858730" lon="-4.8084620">
        <ele>789.3</ele>
        <time>2019-08-14T11:57:38Z</time>
      </trkpt>
      <trkpt lat="41.1859180" lon="-4.8084800">
        <ele>789.3</ele>
        <time>2019-08-14T11:57:39Z</time>
      </trkpt>
      <trkpt lat="41.1859630" lon="-4.8084990">
        <ele>789.3</ele>
        <time>2019-08-14T11:57:40Z</time>
      </trkpt>
      <trkpt lat="41.1860040" lon="-4.8085200">
        <ele>789.2</ele>
        <time>2019-08-14T11:57:41Z</time>
      </trkpt>
      <trkpt lat="41.1860440" lon="-4.8085390">
        <ele>789.2</ele>
        <time>2019-08-14T11:57:42Z</time>
      </trkpt>
      <trkpt lat="41.1860840" lon="-4.8085550">
        <ele>789.2</ele>
        <time>2019-08-14T11:57:43Z</time>
      </trkpt>
      <trkpt lat="41.1861250" lon="-4.8085700">
        <ele>789.1</ele>
        <time>2019-08-14T11:57:44Z</time>
      </trkpt>
      <trkpt lat="41.1861690" lon="-4.8085850">
        <ele>789.1</ele>
        <time>2019-08-14T11:57:45Z</time>
      </trkpt>
      <trkpt lat="41.1862140" lon="-4.8086030">
        <ele>789.0</ele>
        <time>2019-08-14T11:57:46Z</time>
      </trkpt>
      <trkpt lat="41.1862570" lon="-4.8086220">
        <ele>789.0</ele>
        <time>2019-08-14T11:57:47Z</time>
      </trkpt>
      <trkpt lat="41.1862970" lon="-4.8086390">
        <ele>789.0</ele>
        <time>2019-08-14T11:57:48Z</time>
      </trkpt>
      <trkpt lat="41.1863340" lon="-4.8086560">
        <ele>788.9</ele>
        <time>2019-08-14T11:57:49Z</time>
      </trkpt>
      <trkpt lat="41.1863720" lon="-4.8086700">
        <ele>788.9</ele>
        <time>2019-08-14T11:57:50Z</time>
      </trkpt>
      <trkpt lat="41.1864110" lon="-4.8086850">
        <ele>788.9</ele>
        <time>2019-08-14T11:57:51Z</time>
      </trkpt>
      <trkpt lat="41.1864530" lon="-4.8087010">
        <ele>788.9</ele>
        <time>2019-08-14T11:57:52Z</time>
      </trkpt>
      <trkpt lat="41.1864970" lon="-4.8087200">
        <ele>788.9</ele>
        <time>2019-08-14T11:57:53Z</time>
      </trkpt>
      <trkpt lat="41.1865420" lon="-4.8087390">
        <ele>788.8</ele>
        <time>2019-08-14T11:57:54Z</time>
      </trkpt>
      <trkpt lat="41.1865880" lon="-4.8087580">
        <ele>788.8</ele>
        <time>2019-08-14T11:57:55Z</time>
      </trkpt>
      <trkpt lat="41.1866340" lon="-4.8087790">
        <ele>788.8</ele>
        <time>2019-08-14T11:57:56Z</time>
      </trkpt>
      <trkpt lat="41.1866820" lon="-4.8088010">
        <ele>788.8</ele>
        <time>2019-08-14T11:57:57Z</time>
      </trkpt>
      <trkpt lat="41.1867300" lon="-4.8088220">
        <ele>788.8</ele>
        <time>2019-08-14T11:57:58Z</time>
      </trkpt>
      <trkpt lat="41.1867780" lon="-4.8088430">
        <ele>788.8</ele>
        <time>2019-08-14T11:57:59Z</time>
      </trkpt>
      <trkpt lat="41.1868250" lon="-4.8088640">
        <ele>788.8</ele>
        <time>2019-08-14T11:58:00Z</time>
      </trkpt>
      <trkpt lat="41.1868710" lon="-4.8088860">
        <ele>788.9</ele>
        <time>2019-08-14T11:58:01Z</time>
      </trkpt>
      <trkpt lat="41.1869180" lon="-4.8089060">
        <ele>788.9</ele>
        <time>2019-08-14T11:58:02Z</time>
      </trkpt>
      <trkpt lat="41.1869650" lon="-4.8089240">
        <ele>788.9</ele>
        <time>2019-08-14T11:58:03Z</time>
      </trkpt>
      <trkpt lat="41.1870120" lon="-4.8089430">
        <ele>789.0</ele>
        <time>2019-08-14T11:58:04Z</time>
      </trkpt>
      <trkpt lat="41.1870570" lon="-4.8089630">
        <ele>789.0</ele>
        <time>2019-08-14T11:58:05Z</time>
      </trkpt>
      <trkpt lat="41.1871000" lon="-4.8089850">
        <ele>789.1</ele>
        <time>2019-08-14T11:58:06Z</time>
      </trkpt>
      <trkpt lat="41.1871450" lon="-4.8090060">
        <ele>789.1</ele>
        <time>2019-08-14T11:58:07Z</time>
      </trkpt>
      <trkpt lat="41.1871910" lon="-4.8090270">
        <ele>789.2</ele>
        <time>2019-08-14T11:58:08Z</time>
      </trkpt>
      <trkpt lat="41.1872360" lon="-4.8090470">
        <ele>789.2</ele>
        <time>2019-08-14T11:58:09Z</time>
      </trkpt>
      <trkpt lat="41.1872810" lon="-4.8090670">
        <ele>789.3</ele>
        <time>2019-08-14T11:58:10Z</time>
      </trkpt>
      <trkpt lat="41.1873250" lon="-4.8090890">
        <ele>789.4</ele>
        <time>2019-08-14T11:58:11Z</time>
      </trkpt>
      <trkpt lat="41.1873670" lon="-4.8091110">
        <ele>789.5</ele>
        <time>2019-08-14T11:58:12Z</time>
      </trkpt>
      <trkpt lat="41.1874080" lon="-4.8091330">
        <ele>789.6</ele>
        <time>2019-08-14T11:58:13Z</time>
      </trkpt>
      <trkpt lat="41.1874500" lon="-4.8091520">
        <ele>789.7</ele>
        <time>2019-08-14T11:58:14Z</time>
      </trkpt>
      <trkpt lat="41.1874930" lon="-4.8091720">
        <ele>789.8</ele>
        <time>2019-08-14T11:58:15Z</time>
      </trkpt>
      <trkpt lat="41.1875360" lon="-4.8091920">
        <ele>789.9</ele>
        <time>2019-08-14T11:58:16Z</time>
      </trkpt>
      <trkpt lat="41.1875780" lon="-4.8092090">
        <ele>790.0</ele>
        <time>2019-08-14T11:58:17Z</time>
      </trkpt>
      <trkpt lat="41.1876220" lon="-4.8092270">
        <ele>790.0</ele>
        <time>2019-08-14T11:58:18Z</time>
      </trkpt>
      <trkpt lat="41.1876640" lon="-4.8092460">
        <ele>790.1</ele>
        <time>2019-08-14T11:58:19Z</time>
      </trkpt>
      <trkpt lat="41.1877080" lon="-4.8092650">
        <ele>790.2</ele>
        <time>2019-08-14T11:58:20Z</time>
      </trkpt>
      <trkpt lat="41.1877510" lon="-4.8092850">
        <ele>790.3</ele>
        <time>2019-08-14T11:58:21Z</time>
      </trkpt>
      <trkpt lat="41.1877940" lon="-4.8093030">
        <ele>790.5</ele>
        <time>2019-08-14T11:58:22Z</time>
      </trkpt>
      <trkpt lat="41.1878360" lon="-4.8093220">
        <ele>790.6</ele>
        <time>2019-08-14T11:58:23Z</time>
      </trkpt>
      <trkpt lat="41.1878800" lon="-4.8093420">
        <ele>790.7</ele>
        <time>2019-08-14T11:58:24Z</time>
      </trkpt>
      <trkpt lat="41.1879240" lon="-4.8093620">
        <ele>790.8</ele>
        <time>2019-08-14T11:58:25Z</time>
      </trkpt>
      <trkpt lat="41.1879680" lon="-4.8093830">
        <ele>791.0</ele>
        <time>2019-08-14T11:58:26Z</time>
      </trkpt>
      <trkpt lat="41.1880130" lon="-4.8094010">
        <ele>791.1</ele>
        <time>2019-08-14T11:58:27Z</time>
      </trkpt>
      <trkpt lat="41.1880560" lon="-4.8094190">
        <ele>791.2</ele>
        <time>2019-08-14T11:58:28Z</time>
      </trkpt>
      <trkpt lat="41.1880980" lon="-4.8094390">
        <ele>791.3</ele>
        <time>2019-08-14T11:58:29Z</time>
      </trkpt>
      <trkpt lat="41.1881410" lon="-4.8094600">
        <ele>791.5</ele>
        <time>2019-08-14T11:58:30Z</time>
      </trkpt>
      <trkpt lat="41.1881840" lon="-4.8094780">
        <ele>791.5</ele>
        <time>2019-08-14T11:58:31Z</time>
      </trkpt>
      <trkpt lat="41.1882280" lon="-4.8094960">
        <ele>791.6</ele>
        <time>2019-08-14T11:58:32Z</time>
      </trkpt>
      <trkpt lat="41.1882710" lon="-4.8095140">
        <ele>791.7</ele>
        <time>2019-08-14T11:58:33Z</time>
      </trkpt>
      <trkpt lat="41.1883150" lon="-4.8095320">
        <ele>791.8</ele>
        <time>2019-08-14T11:58:34Z</time>
      </trkpt>
      <trkpt lat="41.1883590" lon="-4.8095490">
        <ele>791.8</ele>
        <time>2019-08-14T11:58:35Z</time>
      </trkpt>
      <trkpt lat="41.1884050" lon="-4.8095660">
        <ele>791.8</ele>
        <time>2019-08-14T11:58:36Z</time>
      </trkpt>
      <trkpt lat="41.1884520" lon="-4.8095810">
        <ele>791.8</ele>
        <time>2019-08-14T11:58:37Z</time>
      </trkpt>
      <trkpt lat="41.1884990" lon="-4.8095960">
        <ele>791.7</ele>
        <time>2019-08-14T11:58:38Z</time>
      </trkpt>
      <trkpt lat="41.1885470" lon="-4.8096100">
        <ele>791.6</ele>
        <time>2019-08-14T11:58:39Z</time>
      </trkpt>
      <trkpt lat="41.1885950" lon="-4.8096220">
        <ele>791.6</ele>
        <time>2019-08-14T11:58:40Z</time>
      </trkpt>
      <trkpt lat="41.1886420" lon="-4.8096330">
        <ele>791.6</ele>
        <time>2019-08-14T11:58:41Z</time>
      </trkpt>
      <trkpt lat="41.1886890" lon="-4.8096430">
        <ele>791.7</ele>
        <time>2019-08-14T11:58:42Z</time>
      </trkpt>
      <trkpt lat="41.1887350" lon="-4.8096530">
        <ele>791.7</ele>
        <time>2019-08-14T11:58:43Z</time>
      </trkpt>
      <trkpt lat="41.1887820" lon="-4.8096590">
        <ele>791.8</ele>
        <time>2019-08-14T11:58:44Z</time>
      </trkpt>
      <trkpt lat="41.1888310" lon="-4.8096670">
        <ele>791.9</ele>
        <time>2019-08-14T11:58:45Z</time>
      </trkpt>
      <trkpt lat="41.1888800" lon="-4.8096720">
        <ele>791.9</ele>
        <time>2019-08-14T11:58:46Z</time>
      </trkpt>
      <trkpt lat="41.1889310" lon="-4.8096760">
        <ele>791.8</ele>
        <time>2019-08-14T11:58:47Z</time>
      </trkpt>
      <trkpt lat="41.1889830" lon="-4.8096780">
        <ele>791.8</ele>
        <time>2019-08-14T11:58:48Z</time>
      </trkpt>
      <trkpt lat="41.1890360" lon="-4.8096800">
        <ele>791.7</ele>
        <time>2019-08-14T11:58:49Z</time>
      </trkpt>
      <trkpt lat="41.1890900" lon="-4.8096830">
        <ele>791.7</ele>
        <time>2019-08-14T11:58:50Z</time>
      </trkpt>
      <trkpt lat="41.1891460" lon="-4.8096860">
        <ele>791.6</ele>
        <time>2019-08-14T11:58:51Z</time>
      </trkpt>
      <trkpt lat="41.1892020" lon="-4.8096860">
        <ele>791.5</ele>
        <time>2019-08-14T11:58:52Z</time>
      </trkpt>
      <trkpt lat="41.1892560" lon="-4.8096840">
        <ele>791.5</ele>
        <time>2019-08-14T11:58:53Z</time>
      </trkpt>
      <trkpt lat="41.1893070" lon="-4.8096810">
        <ele>791.5</ele>
        <time>2019-08-14T11:58:54Z</time>
      </trkpt>
      <trkpt lat="41.1893590" lon="-4.8096750">
        <ele>791.4</ele>
        <time>2019-08-14T11:58:55Z</time>
      </trkpt>
      <trkpt lat="41.1894090" lon="-4.8096700">
        <ele>791.4</ele>
        <time>2019-08-14T11:58:56Z</time>
      </trkpt>
      <trkpt lat="41.1894600" lon="-4.8096680">
        <ele>791.3</ele>
        <time>2019-08-14T11:58:57Z</time>
      </trkpt>
      <trkpt lat="41.1895120" lon="-4.8096650">
        <ele>791.3</ele>
        <time>2019-08-14T11:58:58Z</time>
      </trkpt>
      <trkpt lat="41.1895650" lon="-4.8096600">
        <ele>791.3</ele>
        <time>2019-08-14T11:58:59Z</time>
      </trkpt>
      <trkpt lat="41.1896210" lon="-4.8096540">
        <ele>791.3</ele>
        <time>2019-08-14T11:59:00Z</time>
      </trkpt>
      <trkpt lat="41.1896780" lon="-4.8096490">
        <ele>791.2</ele>
        <time>2019-08-14T11:59:01Z</time>
      </trkpt>
      <trkpt lat="41.1897360" lon="-4.8096450">
        <ele>791.1</ele>
        <time>2019-08-14T11:59:02Z</time>
      </trkpt>
      <trkpt lat="41.1897960" lon="-4.8096400">
        <ele>791.0</ele>
        <time>2019-08-14T11:59:03Z</time>
      </trkpt>
      <trkpt lat="41.1898570" lon="-4.8096350">
        <ele>790.8</ele>
        <time>2019-08-14T11:59:04Z</time>
      </trkpt>
      <trkpt lat="41.1899160" lon="-4.8096310">
        <ele>790.7</ele>
        <time>2019-08-14T11:59:05Z</time>
      </trkpt>
      <trkpt lat="41.1899740" lon="-4.8096280">
        <ele>790.6</ele>
        <time>2019-08-14T11:59:06Z</time>
      </trkpt>
      <trkpt lat="41.1900330" lon="-4.8096250">
        <ele>790.5</ele>
        <time>2019-08-14T11:59:07Z</time>
      </trkpt>
      <trkpt lat="41.1900940" lon="-4.8096200">
        <ele>790.4</ele>
        <time>2019-08-14T11:59:08Z</time>
      </trkpt>
      <trkpt lat="41.1901530" lon="-4.8096160">
        <ele>790.3</ele>
        <time>2019-08-14T11:59:09Z</time>
      </trkpt>
      <trkpt lat="41.1902140" lon="-4.8096110">
        <ele>790.2</ele>
        <time>2019-08-14T11:59:10Z</time>
      </trkpt>
      <trkpt lat="41.1902740" lon="-4.8096080">
        <ele>790.1</ele>
        <time>2019-08-14T11:59:11Z</time>
      </trkpt>
      <trkpt lat="41.1903340" lon="-4.8096060">
        <ele>790.0</ele>
        <time>2019-08-14T11:59:12Z</time>
      </trkpt>
      <trkpt lat="41.1903930" lon="-4.8096020">
        <ele>790.0</ele>
        <time>2019-08-14T11:59:13Z</time>
      </trkpt>
      <trkpt lat="41.1904530" lon="-4.8095980">
        <ele>790.0</ele>
        <time>2019-08-14T11:59:14Z</time>
      </trkpt>
      <trkpt lat="41.1905130" lon="-4.8095940">
        <ele>790.0</ele>
        <time>2019-08-14T11:59:15Z</time>
      </trkpt>
      <trkpt lat="41.1905740" lon="-4.8095870">
        <ele>789.9</ele>
        <time>2019-08-14T11:59:16Z</time>
      </trkpt>
      <trkpt lat="41.1906360" lon="-4.8095810">
        <ele>789.8</ele>
        <time>2019-08-14T11:59:17Z</time>
      </trkpt>
      <trkpt lat="41.1907000" lon="-4.8095740">
        <ele>789.7</ele>
        <time>2019-08-14T11:59:18Z</time>
      </trkpt>
      <trkpt lat="41.1907650" lon="-4.8095670">
        <ele>789.7</ele>
        <time>2019-08-14T11:59:19Z</time>
      </trkpt>
      <trkpt lat="41.1908310" lon="-4.8095620">
        <ele>789.5</ele>
        <time>2019-08-14T11:59:20Z</time>
      </trkpt>
      <trkpt lat="41.1908970" lon="-4.8095580">
        <ele>789.4</ele>
        <time>2019-08-14T11:59:21Z</time>
      </trkpt>
      <trkpt lat="41.1909630" lon="-4.8095520">
        <ele>789.2</ele>
        <time>2019-08-14T11:59:22Z</time>
      </trkpt>
      <trkpt lat="41.1910310" lon="-4.8095480">
        <ele>789.0</ele>
        <time>2019-08-14T11:59:23Z</time>
      </trkpt>
      <trkpt lat="41.1910980" lon="-4.8095440">
        <ele>788.9</ele>
        <time>2019-08-14T11:59:24Z</time>
      </trkpt>
      <trkpt lat="41.1911620" lon="-4.8095400">
        <ele>788.8</ele>
        <time>2019-08-14T11:59:25Z</time>
      </trkpt>
      <trkpt lat="41.1912260" lon="-4.8095350">
        <ele>788.7</ele>
        <time>2019-08-14T11:59:26Z</time>
      </trkpt>
      <trkpt lat="41.1912870" lon="-4.8095310">
        <ele>788.6</ele>
        <time>2019-08-14T11:59:27Z</time>
      </trkpt>
      <trkpt lat="41.1913470" lon="-4.8095260">
        <ele>788.4</ele>
        <time>2019-08-14T11:59:28Z</time>
      </trkpt>
      <trkpt lat="41.1914080" lon="-4.8095200">
        <ele>788.3</ele>
        <time>2019-08-14T11:59:29Z</time>
      </trkpt>
      <trkpt lat="41.1914710" lon="-4.8095150">
        <ele>788.2</ele>
        <time>2019-08-14T11:59:30Z</time>
      </trkpt>
      <trkpt lat="41.1915340" lon="-4.8095120">
        <ele>788.1</ele>
        <time>2019-08-14T11:59:31Z</time>
      </trkpt>
      <trkpt lat="41.1915980" lon="-4.8095090">
        <ele>787.9</ele>
        <time>2019-08-14T11:59:32Z</time>
      </trkpt>
      <trkpt lat="41.1916630" lon="-4.8095030">
        <ele>787.7</ele>
        <time>2019-08-14T11:59:33Z</time>
      </trkpt>
      <trkpt lat="41.1917260" lon="-4.8094980">
        <ele>787.5</ele>
        <time>2019-08-14T11:59:34Z</time>
      </trkpt>
      <trkpt lat="41.1917890" lon="-4.8094940">
        <ele>787.3</ele>
        <time>2019-08-14T11:59:35Z</time>
      </trkpt>
      <trkpt lat="41.1918500" lon="-4.8094920">
        <ele>787.2</ele>
        <time>2019-08-14T11:59:36Z</time>
      </trkpt>
      <trkpt lat="41.1919120" lon="-4.8094870">
        <ele>787.0</ele>
        <time>2019-08-14T11:59:37Z</time>
      </trkpt>
      <trkpt lat="41.1919740" lon="-4.8094810">
        <ele>786.8</ele>
        <time>2019-08-14T11:59:38Z</time>
      </trkpt>
      <trkpt lat="41.1920360" lon="-4.8094730">
        <ele>786.7</ele>
        <time>2019-08-14T11:59:39Z</time>
      </trkpt>
      <trkpt lat="41.1920990" lon="-4.8094670">
        <ele>786.6</ele>
        <time>2019-08-14T11:59:40Z</time>
      </trkpt>
      <trkpt lat="41.1921620" lon="-4.8094620">
        <ele>786.4</ele>
        <time>2019-08-14T11:59:41Z</time>
      </trkpt>
      <trkpt lat="41.1922230" lon="-4.8094570">
        <ele>786.3</ele>
        <time>2019-08-14T11:59:42Z</time>
      </trkpt>
      <trkpt lat="41.1922840" lon="-4.8094510">
        <ele>786.2</ele>
        <time>2019-08-14T11:59:43Z</time>
      </trkpt>
      <trkpt lat="41.1923430" lon="-4.8094460">
        <ele>786.1</ele>
        <time>2019-08-14T11:59:44Z</time>
      </trkpt>
      <trkpt lat="41.1923990" lon="-4.8094430">
        <ele>786.0</ele>
        <time>2019-08-14T11:59:45Z</time>
      </trkpt>
      <trkpt lat="41.1924540" lon="-4.8094410">
        <ele>785.9</ele>
        <time>2019-08-14T11:59:46Z</time>
      </trkpt>
      <trkpt lat="41.1925070" lon="-4.8094390">
        <ele>785.8</ele>
        <time>2019-08-14T11:59:47Z</time>
      </trkpt>
      <trkpt lat="41.1925620" lon="-4.8094370">
        <ele>785.8</ele>
        <time>2019-08-14T11:59:48Z</time>
      </trkpt>
      <trkpt lat="41.1926180" lon="-4.8094330">
        <ele>785.7</ele>
        <time>2019-08-14T11:59:49Z</time>
      </trkpt>
      <trkpt lat="41.1926730" lon="-4.8094290">
        <ele>785.7</ele>
        <time>2019-08-14T11:59:50Z</time>
      </trkpt>
      <trkpt lat="41.1927290" lon="-4.8094250">
        <ele>785.7</ele>
        <time>2019-08-14T11:59:51Z</time>
      </trkpt>
      <trkpt lat="41.1927860" lon="-4.8094220">
        <ele>785.6</ele>
        <time>2019-08-14T11:59:52Z</time>
      </trkpt>
      <trkpt lat="41.1928420" lon="-4.8094170">
        <ele>785.6</ele>
        <time>2019-08-14T11:59:53Z</time>
      </trkpt>
      <trkpt lat="41.1928990" lon="-4.8094150">
        <ele>785.6</ele>
        <time>2019-08-14T11:59:54Z</time>
      </trkpt>
      <trkpt lat="41.1929550" lon="-4.8094110">
        <ele>785.5</ele>
        <time>2019-08-14T11:59:55Z</time>
      </trkpt>
      <trkpt lat="41.1930110" lon="-4.8094080">
        <ele>785.5</ele>
        <time>2019-08-14T11:59:56Z</time>
      </trkpt>
      <trkpt lat="41.1930660" lon="-4.8094040">
        <ele>785.4</ele>
        <time>2019-08-14T11:59:57Z</time>
      </trkpt>
      <trkpt lat="41.1931200" lon="-4.8093990">
        <ele>785.4</ele>
        <time>2019-08-14T11:59:58Z</time>
      </trkpt>
      <trkpt lat="41.1931740" lon="-4.8093970">
        <ele>785.3</ele>
        <time>2019-08-14T11:59:59Z</time>
      </trkpt>
      <trkpt lat="41.1932280" lon="-4.8093940">
        <ele>785.3</ele>
        <time>2019-08-14T12:00:00Z</time>
      </trkpt>
      <trkpt lat="41.1932810" lon="-4.8093890">
        <ele>785.2</ele>
        <time>2019-08-14T12:00:01Z</time>
      </trkpt>
      <trkpt lat="41.1933330" lon="-4.8093830">
        <ele>785.2</ele>
        <time>2019-08-14T12:00:02Z</time>
      </trkpt>
      <trkpt lat="41.1933850" lon="-4.8093790">
        <ele>785.1</ele>
        <time>2019-08-14T12:00:03Z</time>
      </trkpt>
      <trkpt lat="41.1934380" lon="-4.8093760">
        <ele>785.1</ele>
        <time>2019-08-14T12:00:04Z</time>
      </trkpt>
      <trkpt lat="41.1934910" lon="-4.8093740">
        <ele>785.0</ele>
        <time>2019-08-14T12:00:05Z</time>
      </trkpt>
      <trkpt lat="41.1935450" lon="-4.8093710">
        <ele>784.9</ele>
        <time>2019-08-14T12:00:06Z</time>
      </trkpt>
      <trkpt lat="41.1935970" lon="-4.8093670">
        <ele>784.8</ele>
        <time>2019-08-14T12:00:07Z</time>
      </trkpt>
      <trkpt lat="41.1936500" lon="-4.8093610">
        <ele>784.7</ele>
        <time>2019-08-14T12:00:08Z</time>
      </trkpt>
      <trkpt lat="41.1937050" lon="-4.8093570">
        <ele>784.7</ele>
        <time>2019-08-14T12:00:09Z</time>
      </trkpt>
      <trkpt lat="41.1937600" lon="-4.8093530">
        <ele>784.6</ele>
        <time>2019-08-14T12:00:10Z</time>
      </trkpt>
      <trkpt lat="41.1938150" lon="-4.8093510">
        <ele>784.5</ele>
        <time>2019-08-14T12:00:11Z</time>
      </trkpt>
      <trkpt lat="41.1938700" lon="-4.8093470">
        <ele>784.4</ele>
        <time>2019-08-14T12:00:12Z</time>
      </trkpt>
      <trkpt lat="41.1939260" lon="-4.8093430">
        <ele>784.3</ele>
        <time>2019-08-14T12:00:13Z</time>
      </trkpt>
      <trkpt lat="41.1939840" lon="-4.8093380">
        <ele>784.2</ele>
        <time>2019-08-14T12:00:14Z</time>
      </trkpt>
      <trkpt lat="41.1940410" lon="-4.8093320">
        <ele>784.2</ele>
        <time>2019-08-14T12:00:15Z</time>
      </trkpt>
      <trkpt lat="41.1940950" lon="-4.8093290">
        <ele>784.1</ele>
        <time>2019-08-14T12:00:16Z</time>
      </trkpt>
      <trkpt lat="41.1941490" lon="-4.8093270">
        <ele>784.1</ele>
        <time>2019-08-14T12:00:17Z</time>
      </trkpt>
      <trkpt lat="41.1942010" lon="-4.8093240">
        <ele>784.0</ele>
        <time>2019-08-14T12:00:18Z</time>
      </trkpt>
      <trkpt lat="41.1942520" lon="-4.8093210">
        <ele>784.0</ele>
        <time>2019-08-14T12:00:19Z</time>
      </trkpt>
      <trkpt lat="41.1943030" lon="-4.8093180">
        <ele>783.9</ele>
        <time>2019-08-14T12:00:20Z</time>
      </trkpt>
      <trkpt lat="41.1943560" lon="-4.8093150">
        <ele>783.9</ele>
        <time>2019-08-14T12:00:21Z</time>
      </trkpt>
      <trkpt lat="41.1944110" lon="-4.8093110">
        <ele>783.8</ele>
        <time>2019-08-14T12:00:22Z</time>
      </trkpt>
      <trkpt lat="41.1944670" lon="-4.8093060">
        <ele>783.8</ele>
        <time>2019-08-14T12:00:23Z</time>
      </trkpt>
      <trkpt lat="41.1945240" lon="-4.8093030">
        <ele>783.8</ele>
        <time>2019-08-14T12:00:24Z</time>
      </trkpt>
      <trkpt lat="41.1945810" lon="-4.8092980">
        <ele>783.8</ele>
        <time>2019-08-14T12:00:25Z</time>
      </trkpt>
      <trkpt lat="41.1946360" lon="-4.8092930">
        <ele>783.7</ele>
        <time>2019-08-14T12:00:26Z</time>
      </trkpt>
      <trkpt lat="41.1946920" lon="-4.8092880">
        <ele>783.7</ele>
        <time>2019-08-14T12:00:27Z</time>
      </trkpt>
      <trkpt lat="41.1947480" lon="-4.8092820">
        <ele>783.7</ele>
        <time>2019-08-14T12:00:28Z</time>
      </trkpt>
      <trkpt lat="41.1948050" lon="-4.8092780">
        <ele>783.7</ele>
        <time>2019-08-14T12:00:29Z</time>
      </trkpt>
      <trkpt lat="41.1948610" lon="-4.8092750">
        <ele>783.7</ele>
        <time>2019-08-14T12:00:30Z</time>
      </trkpt>
      <trkpt lat="41.1949190" lon="-4.8092710">
        <ele>783.7</ele>
        <time>2019-08-14T12:00:31Z</time>
      </trkpt>
      <trkpt lat="41.1949780" lon="-4.8092660">
        <ele>783.7</ele>
        <time>2019-08-14T12:00:32Z</time>
      </trkpt>
      <trkpt lat="41.1950370" lon="-4.8092610">
        <ele>783.7</ele>
        <time>2019-08-14T12:00:33Z</time>
      </trkpt>
      <trkpt lat="41.1950960" lon="-4.8092570">
        <ele>783.7</ele>
        <time>2019-08-14T12:00:34Z</time>
      </trkpt>
      <trkpt lat="41.1951540" lon="-4.8092530">
        <ele>783.7</ele>
        <time>2019-08-14T12:00:35Z</time>
      </trkpt>
      <trkpt lat="41.1952100" lon="-4.8092480">
        <ele>783.7</ele>
        <time>2019-08-14T12:00:36Z</time>
      </trkpt>
      <trkpt lat="41.1952630" lon="-4.8092440">
        <ele>783.8</ele>
        <time>2019-08-14T12:00:37Z</time>
      </trkpt>
      <trkpt lat="41.1953150" lon="-4.8092410">
        <ele>783.8</ele>
        <time>2019-08-14T12:00:38Z</time>
      </trkpt>
      <trkpt lat="41.1953690" lon="-4.8092370">
        <ele>783.8</ele>
        <time>2019-08-14T12:00:39Z</time>
      </trkpt>
      <trkpt lat="41.1954250" lon="-4.8092310">
        <ele>783.9</ele>
        <time>2019-08-14T12:00:40Z</time>
      </trkpt>
      <trkpt lat="41.1954810" lon="-4.8092260">
        <ele>783.9</ele>
        <time>2019-08-14T12:00:41Z</time>
      </trkpt>
      <trkpt lat="41.1955390" lon="-4.8092220">
        <ele>783.9</ele>
        <time>2019-08-14T12:00:42Z</time>
      </trkpt>
      <trkpt lat="41.1955970" lon="-4.8092260">
        <ele>783.9</ele>
        <time>2019-08-14T12:00:43Z</time>
      </trkpt>
      <trkpt lat="41.1956560" lon="-4.8092400">
        <ele>783.8</ele>
        <time>2019-08-14T12:00:44Z</time>
      </trkpt>
      <trkpt lat="41.1957120" lon="-4.8092660">
        <ele>783.7</ele>
        <time>2019-08-14T12:00:45Z</time>
      </trkpt>
      <trkpt lat="41.1957630" lon="-4.8092980">
        <ele>783.6</ele>
        <time>2019-08-14T12:00:46Z</time>
      </trkpt>
      <trkpt lat="41.1958090" lon="-4.8093370">
        <ele>783.5</ele>
        <time>2019-08-14T12:00:47Z</time>
      </trkpt>
      <trkpt lat="41.1958510" lon="-4.8093810">
        <ele>783.3</ele>
        <time>2019-08-14T12:00:48Z</time>
      </trkpt>
      <trkpt lat="41.1958910" lon="-4.8094280">
        <ele>783.2</ele>
        <time>2019-08-14T12:00:49Z</time>
      </trkpt>
      <trkpt lat="41.1959340" lon="-4.8094790">
        <ele>783.0</ele>
        <time>2019-08-14T12:00:50Z</time>
      </trkpt>
      <trkpt lat="41.1959760" lon="-4.8095320">
        <ele>782.9</ele>
        <time>2019-08-14T12:00:51Z</time>
      </trkpt>
      <trkpt lat="41.1960190" lon="-4.8095860">
        <ele>782.7</ele>
        <time>2019-08-14T12:00:52Z</time>
      </trkpt>
      <trkpt lat="41.1960630" lon="-4.8096420">
        <ele>782.6</ele>
        <time>2019-08-14T12:00:53Z</time>
      </trkpt>
      <trkpt lat="41.1961060" lon="-4.8096990">
        <ele>782.4</ele>
        <time>2019-08-14T12:00:54Z</time>
      </trkpt>
      <trkpt lat="41.1961490" lon="-4.8097590">
        <ele>782.3</ele>
        <time>2019-08-14T12:00:55Z</time>
      </trkpt>
      <trkpt lat="41.1961920" lon="-4.8098200">
        <ele>782.2</ele>
        <time>2019-08-14T12:00:56Z</time>
      </trkpt>
      <trkpt lat="41.1962340" lon="-4.8098810">
        <ele>782.1</ele>
        <time>2019-08-14T12:00:57Z</time>
      </trkpt>
      <trkpt lat="41.1962770" lon="-4.8099420">
        <ele>782.1</ele>
        <time>2019-08-14T12:00:58Z</time>
      </trkpt>
      <trkpt lat="41.1963200" lon="-4.8100020">
        <ele>782.1</ele>
        <time>2019-08-14T12:00:59Z</time>
      </trkpt>
      <trkpt lat="41.1963650" lon="-4.8100580">
        <ele>782.0</ele>
        <time>2019-08-14T12:01:00Z</time>
      </trkpt>
      <trkpt lat="41.1964100" lon="-4.8101150">
        <ele>782.0</ele>
        <time>2019-08-14T12:01:01Z</time>
      </trkpt>
      <trkpt lat="41.1964550" lon="-4.8101720">
        <ele>782.0</ele>
        <time>2019-08-14T12:01:02Z</time>
      </trkpt>
      <trkpt lat="41.1965000" lon="-4.8102290">
        <ele>782.0</ele>
        <time>2019-08-14T12:01:03Z</time>
      </trkpt>
      <trkpt lat="41.1965460" lon="-4.8102830">
        <ele>781.9</ele>
        <time>2019-08-14T12:01:04Z</time>
      </trkpt>
      <trkpt lat="41.1965920" lon="-4.8103380">
        <ele>781.9</ele>
        <time>2019-08-14T12:01:05Z</time>
      </trkpt>
      <trkpt lat="41.1966360" lon="-4.8103940">
        <ele>781.9</ele>
        <time>2019-08-14T12:01:06Z</time>
      </trkpt>
      <trkpt lat="41.1966810" lon="-4.8104510">
        <ele>781.9</ele>
        <time>2019-08-14T12:01:07Z</time>
      </trkpt>
      <trkpt lat="41.1967260" lon="-4.8105090">
        <ele>781.9</ele>
        <time>2019-08-14T12:01:08Z</time>
      </trkpt>
      <trkpt lat="41.1967710" lon="-4.8105690">
        <ele>781.9</ele>
        <time>2019-08-14T12:01:09Z</time>
      </trkpt>
      <trkpt lat="41.1968170" lon="-4.8106280">
        <ele>781.9</ele>
        <time>2019-08-14T12:01:10Z</time>
      </trkpt>
      <trkpt lat="41.1968620" lon="-4.8106880">
        <ele>781.9</ele>
        <time>2019-08-14T12:01:11Z</time>
      </trkpt>
      <trkpt lat="41.1969060" lon="-4.8107460">
        <ele>781.9</ele>
        <time>2019-08-14T12:01:12Z</time>
      </trkpt>
      <trkpt lat="41.1969490" lon="-4.8108030">
        <ele>781.9</ele>
        <time>2019-08-14T12:01:13Z</time>
      </trkpt>
      <trkpt lat="41.1969930" lon="-4.8108600">
        <ele>781.9</ele>
        <time>2019-08-14T12:01:14Z</time>
      </trkpt>
      <trkpt lat="41.1970350" lon="-4.8109200">
        <ele>781.9</ele>
        <time>2019-08-14T12:01:15Z</time>
      </trkpt>
      <trkpt lat="41.1970790" lon="-4.8109780">
        <ele>781.9</ele>
        <time>2019-08-14T12:01:16Z</time>
      </trkpt>
      <trkpt lat="41.1971230" lon="-4.8110360">
        <ele>782.0</ele>
        <time>2019-08-14T12:01:17Z</time>
      </trkpt>
      <trkpt lat="41.1971680" lon="-4.8110940">
        <ele>782.0</ele>
        <time>2019-08-14T12:01:18Z</time>
      </trkpt>
      <trkpt lat="41.1972130" lon="-4.8111510">
        <ele>782.0</ele>
        <time>2019-08-14T12:01:19Z</time>
      </trkpt>
      <trkpt lat="41.1972560" lon="-4.8112070">
        <ele>782.0</ele>
        <time>2019-08-14T12:01:20Z</time>
      </trkpt>
      <trkpt lat="41.1973000" lon="-4.8112620">
        <ele>782.0</ele>
        <time>2019-08-14T12:01:21Z</time>
      </trkpt>
      <trkpt lat="41.1973430" lon="-4.8113160">
        <ele>782.0</ele>
        <time>2019-08-14T12:01:22Z</time>
      </trkpt>
      <trkpt lat="41.1973840" lon="-4.8113690">
        <ele>782.0</ele>
        <time>2019-08-14T12:01:23Z</time>
      </trkpt>
      <trkpt lat="41.1974220" lon="-4.8114210">
        <ele>782.0</ele>
        <time>2019-08-14T12:01:24Z</time>
      </trkpt>
      <trkpt lat="41.1974610" lon="-4.8114720">
        <ele>782.0</ele>
        <time>2019-08-14T12:01:25Z</time>
      </trkpt>
      <trkpt lat="41.1974990" lon="-4.8115230">
        <ele>782.0</ele>
        <time>2019-08-14T12:01:26Z</time>
      </trkpt>
      <trkpt lat="41.1975370" lon="-4.8115730">
        <ele>782.0</ele>
        <time>2019-08-14T12:01:27Z</time>
      </trkpt>
      <trkpt lat="41.1975770" lon="-4.8116240">
        <ele>781.9</ele>
        <time>2019-08-14T12:01:28Z</time>
      </trkpt>
      <trkpt lat="41.1976160" lon="-4.8116740">
        <ele>781.9</ele>
        <time>2019-08-14T12:01:29Z</time>
      </trkpt>
      <trkpt lat="41.1976570" lon="-4.8117250">
        <ele>781.8</ele>
        <time>2019-08-14T12:01:30Z</time>
      </trkpt>
      <trkpt lat="41.1976980" lon="-4.8117770">
        <ele>781.6</ele>
        <time>2019-08-14T12:01:31Z</time>
      </trkpt>
      <trkpt lat="41.1977390" lon="-4.8118300">
        <ele>781.5</ele>
        <time>2019-08-14T12:01:32Z</time>
      </trkpt>
      <trkpt lat="41.1977790" lon="-4.8118830">
        <ele>781.3</ele>
        <time>2019-08-14T12:01:33Z</time>
      </trkpt>
      <trkpt lat="41.1978210" lon="-4.8119360">
        <ele>781.0</ele>
        <time>2019-08-14T12:01:34Z</time>
      </trkpt>
      <trkpt lat="41.1978630" lon="-4.8119880">
        <ele>780.8</ele>
        <time>2019-08-14T12:01:35Z</time>
      </trkpt>
      <trkpt lat="41.1979050" lon="-4.8120430">
        <ele>780.5</ele>
        <time>2019-08-14T12:01:36Z</time>
      </trkpt>
      <trkpt lat="41.1979470" lon="-4.8120980">
        <ele>780.3</ele>
        <time>2019-08-14T12:01:37Z</time>
      </trkpt>
      <trkpt lat="41.1979920" lon="-4.8121550">
        <ele>780.1</ele>
        <time>2019-08-14T12:01:38Z</time>
      </trkpt>
      <trkpt lat="41.1980370" lon="-4.8122120">
        <ele>779.9</ele>
        <time>2019-08-14T12:01:39Z</time>
      </trkpt>
      <trkpt lat="41.1980830" lon="-4.8122690">
        <ele>779.7</ele>
        <time>2019-08-14T12:01:40Z</time>
      </trkpt>
      <trkpt lat="41.1981280" lon="-4.8123260">
        <ele>779.5</ele>
        <time>2019-08-14T12:01:41Z</time>
      </trkpt>
      <trkpt lat="41.1981720" lon="-4.8123840">
        <ele>779.3</ele>
        <time>2019-08-14T12:01:42Z</time>
      </trkpt>
      <trkpt lat="41.1982150" lon="-4.8124400">
        <ele>779.2</ele>
        <time>2019-08-14T12:01:43Z</time>
      </trkpt>
      <trkpt lat="41.1982610" lon="-4.8124960">
        <ele>779.0</ele>
        <time>2019-08-14T12:01:44Z</time>
      </trkpt>
      <trkpt lat="41.1983080" lon="-4.8125520">
        <ele>778.9</ele>
        <time>2019-08-14T12:01:45Z</time>
      </trkpt>
      <trkpt lat="41.1983540" lon="-4.8126090">
        <ele>778.8</ele>
        <time>2019-08-14T12:01:46Z</time>
      </trkpt>
      <trkpt lat="41.1983980" lon="-4.8126660">
        <ele>778.7</ele>
        <time>2019-08-14T12:01:47Z</time>
      </trkpt>
      <trkpt lat="41.1984410" lon="-4.8127230">
        <ele>778.6</ele>
        <time>2019-08-14T12:01:48Z</time>
      </trkpt>
      <trkpt lat="41.1984850" lon="-4.8127770">
        <ele>778.5</ele>
        <time>2019-08-14T12:01:49Z</time>
      </trkpt>
      <trkpt lat="41.1985290" lon="-4.8128280">
        <ele>778.4</ele>
        <time>2019-08-14T12:01:50Z</time>
      </trkpt>
      <trkpt lat="41.1985730" lon="-4.8128830">
        <ele>778.3</ele>
        <time>2019-08-14T12:01:51Z</time>
      </trkpt>
      <trkpt lat="41.1986170" lon="-4.8129410">
        <ele>778.3</ele>
        <time>2019-08-14T12:01:52Z</time>
      </trkpt>
      <trkpt lat="41.1986620" lon="-4.8130010">
        <ele>778.2</ele>
        <time>2019-08-14T12:01:53Z</time>
      </trkpt>
      <trkpt lat="41.1987100" lon="-4.8130600">
        <ele>778.1</ele>
        <time>2019-08-14T12:01:54Z</time>
      </trkpt>
      <trkpt lat="41.1987580" lon="-4.8131200">
        <ele>778.0</ele>
        <time>2019-08-14T12:01:55Z</time>
      </trkpt>
      <trkpt lat="41.1988080" lon="-4.8131810">
        <ele>777.9</ele>
        <time>2019-08-14T12:01:56Z</time>
      </trkpt>
      <trkpt lat="41.1988590" lon="-4.8132430">
        <ele>777.8</ele>
        <time>2019-08-14T12:01:57Z</time>
      </trkpt>
      <trkpt lat="41.1989090" lon="-4.8133070">
        <ele>777.7</ele>
        <time>2019-08-14T12:01:58Z</time>
      </trkpt>
      <trkpt lat="41.1989560" lon="-4.8133700">
        <ele>777.6</ele>
        <time>2019-08-14T12:01:59Z</time>
      </trkpt>
      <trkpt lat="41.1990030" lon="-4.8134300">
        <ele>777.5</ele>
        <time>2019-08-14T12:02:00Z</time>
      </trkpt>
      <trkpt lat="41.1990480" lon="-4.8134880">
        <ele>777.4</ele>
        <time>2019-08-14T12:02:01Z</time>
      </trkpt>
      <trkpt lat="41.1990920" lon="-4.8135450">
        <ele>777.3</ele>
        <time>2019-08-14T12:02:02Z</time>
      </trkpt>
      <trkpt lat="41.1991340" lon="-4.8136010">
        <ele>777.3</ele>
        <time>2019-08-14T12:02:03Z</time>
      </trkpt>
      <trkpt lat="41.1991760" lon="-4.8136570">
        <ele>777.2</ele>
        <time>2019-08-14T12:02:04Z</time>
      </trkpt>
      <trkpt lat="41.1992200" lon="-4.8137130">
        <ele>777.2</ele>
        <time>2019-08-14T12:02:05Z</time>
      </trkpt>
      <trkpt lat="41.1992640" lon="-4.8137700">
        <ele>777.1</ele>
        <time>2019-08-14T12:02:06Z</time>
      </trkpt>
      <trkpt lat="41.1993090" lon="-4.8138270">
        <ele>777.1</ele>
        <time>2019-08-14T12:02:07Z</time>
      </trkpt>
      <trkpt lat="41.1993540" lon="-4.8138830">
        <ele>777.0</ele>
        <time>2019-08-14T12:02:08Z</time>
      </trkpt>
      <trkpt lat="41.1993990" lon="-4.8139390">
        <ele>777.0</ele>
        <time>2019-08-14T12:02:09Z</time>
      </trkpt>
      <trkpt lat="41.1994420" lon="-4.8139940">
        <ele>777.0</ele>
        <time>2019-08-14T12:02:10Z</time>
      </trkpt>
      <trkpt lat="41.1994840" lon="-4.8140500">
        <ele>776.9</ele>
        <time>2019-08-14T12:02:11Z</time>
      </trkpt>
      <trkpt lat="41.1995260" lon="-4.8141050">
        <ele>776.8</ele>
        <time>2019-08-14T12:02:12Z</time>
      </trkpt>
      <trkpt lat="41.1995690" lon="-4.8141580">
        <ele>776.7</ele>
        <time>2019-08-14T12:02:13Z</time>
      </trkpt>
      <trkpt lat="41.1996090" lon="-4.8142080">
        <ele>776.6</ele>
        <time>2019-08-14T12:02:14Z</time>
      </trkpt>
      <trkpt lat="41.1996480" lon="-4.8142550">
        <ele>776.5</ele>
        <time>2019-08-14T12:02:15Z</time>
      </trkpt>
      <trkpt lat="41.1996870" lon="-4.8143020">
        <ele>776.4</ele>
        <time>2019-08-14T12:02:16Z</time>
      </trkpt>
      <trkpt lat="41.1997230" lon="-4.8143480">
        <ele>776.3</ele>
        <time>2019-08-14T12:02:17Z</time>
      </trkpt>
      <trkpt lat="41.1997600" lon="-4.8143950">
        <ele>776.2</ele>
        <time>2019-08-14T12:02:18Z</time>
      </trkpt>
      <trkpt lat="41.1997960" lon="-4.8144440">
        <ele>776.1</ele>
        <time>2019-08-14T12:02:19Z</time>
      </trkpt>
      <trkpt lat="41.1998330" lon="-4.8144960">
        <ele>776.0</ele>
        <time>2019-08-14T12:02:20Z</time>
      </trkpt>
      <trkpt lat="41.1998700" lon="-4.8145500">
        <ele>775.9</ele>
        <time>2019-08-14T12:02:21Z</time>
      </trkpt>
      <trkpt lat="41.1999090" lon="-4.8146040">
        <ele>775.8</ele>
        <time>2019-08-14T12:02:22Z</time>
      </trkpt>
      <trkpt lat="41.1999500" lon="-4.8146550">
        <ele>775.7</ele>
        <time>2019-08-14T12:02:23Z</time>
      </trkpt>
      <trkpt lat="41.1999900" lon="-4.8147080">
        <ele>775.6</ele>
        <time>2019-08-14T12:02:24Z</time>
      </trkpt>
      <trkpt lat="41.2000290" lon="-4.8147620">
        <ele>775.5</ele>
        <time>2019-08-14T12:02:25Z</time>
      </trkpt>
      <trkpt lat="41.2000700" lon="-4.8148140">
        <ele>775.5</ele>
        <time>2019-08-14T12:02:26Z</time>
      </trkpt>
      <trkpt lat="41.2001090" lon="-4.8148630">
        <ele>775.5</ele>
        <time>2019-08-14T12:02:27Z</time>
      </trkpt>
      <trkpt lat="41.2001480" lon="-4.8149120">
        <ele>775.5</ele>
        <time>2019-08-14T12:02:28Z</time>
      </trkpt>
      <trkpt lat="41.2001840" lon="-4.8149590">
        <ele>775.5</ele>
        <time>2019-08-14T12:02:29Z</time>
      </trkpt>
      <trkpt lat="41.2002170" lon="-4.8150050">
        <ele>775.5</ele>
        <time>2019-08-14T12:02:30Z</time>
      </trkpt>
      <trkpt lat="41.2002490" lon="-4.8150450">
        <ele>775.6</ele>
        <time>2019-08-14T12:02:31Z</time>
      </trkpt>
      <trkpt lat="41.2002810" lon="-4.8150850">
        <ele>775.6</ele>
        <time>2019-08-14T12:02:32Z</time>
      </trkpt>
      <trkpt lat="41.2003140" lon="-4.8151240">
        <ele>775.6</ele>
        <time>2019-08-14T12:02:33Z</time>
      </trkpt>
      <trkpt lat="41.2003470" lon="-4.8151670">
        <ele>775.7</ele>
        <time>2019-08-14T12:02:34Z</time>
      </trkpt>
      <trkpt lat="41.2003820" lon="-4.8152130">
        <ele>775.8</ele>
        <time>2019-08-14T12:02:35Z</time>
      </trkpt>
      <trkpt lat="41.2004180" lon="-4.8152600">
        <ele>776.0</ele>
        <time>2019-08-14T12:02:36Z</time>
      </trkpt>
      <trkpt lat="41.2004560" lon="-4.8153070">
        <ele>776.1</ele>
        <time>2019-08-14T12:02:37Z</time>
      </trkpt>
      <trkpt lat="41.2004950" lon="-4.8153540">
        <ele>776.2</ele>
        <time>2019-08-14T12:02:38Z</time>
      </trkpt>
      <trkpt lat="41.2005340" lon="-4.8154020">
        <ele>776.3</ele>
        <time>2019-08-14T12:02:39Z</time>
      </trkpt>
      <trkpt lat="41.2005730" lon="-4.8154510">
        <ele>776.4</ele>
        <time>2019-08-14T12:02:40Z</time>
      </trkpt>
      <trkpt lat="41.2006110" lon="-4.8154980">
        <ele>776.5</ele>
        <time>2019-08-14T12:02:41Z</time>
      </trkpt>
      <trkpt lat="41.2006470" lon="-4.8155450">
        <ele>776.6</ele>
        <time>2019-08-14T12:02:42Z</time>
      </trkpt>
      <trkpt lat="41.2006850" lon="-4.8155930">
        <ele>776.7</ele>
        <time>2019-08-14T12:02:43Z</time>
      </trkpt>
      <trkpt lat="41.2007230" lon="-4.8156410">
        <ele>776.8</ele>
        <time>2019-08-14T12:02:44Z</time>
      </trkpt>
      <trkpt lat="41.2007620" lon="-4.8156920">
        <ele>776.8</ele>
        <time>2019-08-14T12:02:45Z</time>
      </trkpt>
      <trkpt lat="41.2008020" lon="-4.8157440">
        <ele>776.9</ele>
        <time>2019-08-14T12:02:46Z</time>
      </trkpt>
      <trkpt lat="41.2008430" lon="-4.8157940">
        <ele>776.9</ele>
        <time>2019-08-14T12:02:47Z</time>
      </trkpt>
      <trkpt lat="41.2008840" lon="-4.8158440">
        <ele>776.9</ele>
        <time>2019-08-14T12:02:48Z</time>
      </trkpt>
      <trkpt lat="41.2009210" lon="-4.8158940">
        <ele>776.9</ele>
        <time>2019-08-14T12:02:49Z</time>
      </trkpt>
      <trkpt lat="41.2009570" lon="-4.8159410">
        <ele>776.8</ele>
        <time>2019-08-14T12:02:50Z</time>
      </trkpt>
      <trkpt lat="41.2009940" lon="-4.8159870">
        <ele>776.8</ele>
        <time>2019-08-14T12:02:51Z</time>
      </trkpt>
      <trkpt lat="41.2010300" lon="-4.8160330">
        <ele>776.8</ele>
        <time>2019-08-14T12:02:52Z</time>
      </trkpt>
      <trkpt lat="41.2010670" lon="-4.8160820">
        <ele>776.7</ele>
        <time>2019-08-14T12:02:53Z</time>
      </trkpt>
      <trkpt lat="41.2011050" lon="-4.8161320">
        <ele>776.7</ele>
        <time>2019-08-14T12:02:54Z</time>
      </trkpt>
      <trkpt lat="41.2011420" lon="-4.8161820">
        <ele>776.7</ele>
        <time>2019-08-14T12:02:55Z</time>
      </trkpt>
      <trkpt lat="41.2011810" lon="-4.8162310">
        <ele>776.6</ele>
        <time>2019-08-14T12:02:56Z</time>
      </trkpt>
      <trkpt lat="41.2012190" lon="-4.8162820">
        <ele>776.6</ele>
        <time>2019-08-14T12:02:57Z</time>
      </trkpt>
      <trkpt lat="41.2012570" lon="-4.8163300">
        <ele>776.5</ele>
        <time>2019-08-14T12:02:58Z</time>
      </trkpt>
      <trkpt lat="41.2012920" lon="-4.8163760">
        <ele>776.5</ele>
        <time>2019-08-14T12:02:59Z</time>
      </trkpt>
      <trkpt lat="41.2013240" lon="-4.8164200">
        <ele>776.5</ele>
        <time>2019-08-14T12:03:00Z</time>
      </trkpt>
      <trkpt lat="41.2013540" lon="-4.8164620">
        <ele>776.5</ele>
        <time>2019-08-14T12:03:01Z</time>
      </trkpt>
      <trkpt lat="41.2013840" lon="-4.8165020">
        <ele>776.5</ele>
        <time>2019-08-14T12:03:02Z</time>
      </trkpt>
      <trkpt lat="41.2014150" lon="-4.8165430">
        <ele>776.6</ele>
        <time>2019-08-14T12:03:03Z</time>
      </trkpt>
      <trkpt lat="41.2014480" lon="-4.8165850">
        <ele>776.6</ele>
        <time>2019-08-14T12:03:04Z</time>
      </trkpt>
      <trkpt lat="41.2014820" lon="-4.8166290">
        <ele>776.7</ele>
        <time>2019-08-14T12:03:05Z</time>
      </trkpt>
      <trkpt lat="41.2015160" lon="-4.8166750">
        <ele>776.8</ele>
        <time>2019-08-14T12:03:06Z</time>
      </trkpt>
      <trkpt lat="41.2015500" lon="-4.8167230">
        <ele>776.9</ele>
        <time>2019-08-14T12:03:07Z</time>
      </trkpt>
      <trkpt lat="41.2015830" lon="-4.8167690">
        <ele>776.9</ele>
        <time>2019-08-14T12:03:08Z</time>
      </trkpt>
      <trkpt lat="41.2016180" lon="-4.8168120">
        <ele>777.0</ele>
        <time>2019-08-14T12:03:09Z</time>
      </trkpt>
      <trkpt lat="41.2016540" lon="-4.8168550">
        <ele>777.1</ele>
        <time>2019-08-14T12:03:10Z</time>
      </trkpt>
      <trkpt lat="41.2016870" lon="-4.8168990">
        <ele>777.2</ele>
        <time>2019-08-14T12:03:11Z</time>
      </trkpt>
      <trkpt lat="41.2017220" lon="-4.8169440">
        <ele>777.3</ele>
        <time>2019-08-14T12:03:12Z</time>
      </trkpt>
      <trkpt lat="41.2017560" lon="-4.8169870">
        <ele>777.4</ele>
        <time>2019-08-14T12:03:13Z</time>
      </trkpt>
      <trkpt lat="41.2017890" lon="-4.8170280">
        <ele>777.5</ele>
        <time>2019-08-14T12:03:14Z</time>
      </trkpt>
      <trkpt lat="41.2018190" lon="-4.8170670">
        <ele>777.5</ele>
        <time>2019-08-14T12:03:15Z</time>
      </trkpt>
      <trkpt lat="41.2018490" lon="-4.8171050">
        <ele>777.5</ele>
        <time>2019-08-14T12:03:16Z</time>
      </trkpt>
      <trkpt lat="41.2018780" lon="-4.8171430">
        <ele>777.6</ele>
        <time>2019-08-14T12:03:17Z</time>
      </trkpt>
      <trkpt lat="41.2019020" lon="-4.8171750">
        <ele>777.6</ele>
        <time>2019-08-14T12:03:18Z</time>
      </trkpt>
      <trkpt lat="41.2019220" lon="-4.8172040">
        <ele>777.6</ele>
        <time>2019-08-14T12:03:20Z</time>
      </trkpt>
      <trkpt lat="41.2018410" lon="-4.8171220">
        <ele>777.5</ele>
        <time>2019-08-14T12:04:01Z</time>
      </trkpt>
      <trkpt lat="41.2018020" lon="-4.8170790">
        <ele>777.4</ele>
        <time>2019-08-14T12:04:03Z</time>
      </trkpt>
      <trkpt lat="41.2017820" lon="-4.8170500">
        <ele>777.4</ele>
        <time>2019-08-14T12:04:04Z</time>
      </trkpt>
      <trkpt lat="41.2017610" lon="-4.8170180">
        <ele>777.3</ele>
        <time>2019-08-14T12:04:05Z</time>
      </trkpt>
      <trkpt lat="41.2017370" lon="-4.8169830">
        <ele>777.3</ele>
        <time>2019-08-14T12:04:06Z</time>
      </trkpt>
      <trkpt lat="41.2017100" lon="-4.8169460">
        <ele>777.2</ele>
        <time>2019-08-14T12:04:07Z</time>
      </trkpt>
      <trkpt lat="41.2016790" lon="-4.8169060">
        <ele>777.1</ele>
        <time>2019-08-14T12:04:08Z</time>
      </trkpt>
      <trkpt lat="41.2016470" lon="-4.8168650">
        <ele>777.0</ele>
        <time>2019-08-14T12:04:09Z</time>
      </trkpt>
      <trkpt lat="41.2016140" lon="-4.8168220">
        <ele>776.9</ele>
        <time>2019-08-14T12:04:10Z</time>
      </trkpt>
      <trkpt lat="41.2015790" lon="-4.8167780">
        <ele>776.8</ele>
        <time>2019-08-14T12:04:11Z</time>
      </trkpt>
      <trkpt lat="41.2015440" lon="-4.8167310">
        <ele>776.8</ele>
        <time>2019-08-14T12:04:12Z</time>
      </trkpt>
      <trkpt lat="41.2015070" lon="-4.8166840">
        <ele>776.7</ele>
        <time>2019-08-14T12:04:13Z</time>
      </trkpt>
      <trkpt lat="41.2014680" lon="-4.8166350">
        <ele>776.6</ele>
        <time>2019-08-14T12:04:14Z</time>
      </trkpt>
      <trkpt lat="41.2014300" lon="-4.8165850">
        <ele>776.6</ele>
        <time>2019-08-14T12:04:15Z</time>
      </trkpt>
      <trkpt lat="41.2013930" lon="-4.8165340">
        <ele>776.5</ele>
        <time>2019-08-14T12:04:16Z</time>
      </trkpt>
      <trkpt lat="41.2013550" lon="-4.8164850">
        <ele>776.5</ele>
        <time>2019-08-14T12:04:17Z</time>
      </trkpt>
      <trkpt lat="41.2013180" lon="-4.8164370">
        <ele>776.5</ele>
        <time>2019-08-14T12:04:18Z</time>
      </trkpt>
      <trkpt lat="41.2012820" lon="-4.8163910">
        <ele>776.5</ele>
        <time>2019-08-14T12:04:19Z</time>
      </trkpt>
      <trkpt lat="41.2012480" lon="-4.8163450">
        <ele>776.6</ele>
        <time>2019-08-14T12:04:20Z</time>
      </trkpt>
      <trkpt lat="41.2012140" lon="-4.8163010">
        <ele>776.6</ele>
        <time>2019-08-14T12:04:21Z</time>
      </trkpt>
      <trkpt lat="41.2011800" lon="-4.8162560">
        <ele>776.6</ele>
        <time>2019-08-14T12:04:22Z</time>
      </trkpt>
      <trkpt lat="41.2011470" lon="-4.8162100">
        <ele>776.7</ele>
        <time>2019-08-14T12:04:23Z</time>
      </trkpt>
      <trkpt lat="41.2011130" lon="-4.8161650">
        <ele>776.7</ele>
        <time>2019-08-14T12:04:24Z</time>
      </trkpt>
      <trkpt lat="41.2010780" lon="-4.8161190">
        <ele>776.7</ele>
        <time>2019-08-14T12:04:25Z</time>
      </trkpt>
      <trkpt lat="41.2010430" lon="-4.8160730">
        <ele>776.8</ele>
        <time>2019-08-14T12:04:26Z</time>
      </trkpt>
      <trkpt lat="41.2010080" lon="-4.8160270">
        <ele>776.8</ele>
        <time>2019-08-14T12:04:27Z</time>
      </trkpt>
      <trkpt lat="41.2009730" lon="-4.8159830">
        <ele>776.8</ele>
        <time>2019-08-14T12:04:28Z</time>
      </trkpt>
      <trkpt lat="41.2009400" lon="-4.8159390">
        <ele>776.9</ele>
        <time>2019-08-14T12:04:29Z</time>
      </trkpt>
      <trkpt lat="41.2009070" lon="-4.8158970">
        <ele>776.9</ele>
        <time>2019-08-14T12:04:30Z</time>
      </trkpt>
      <trkpt lat="41.2008740" lon="-4.8158560">
        <ele>776.9</ele>
        <time>2019-08-14T12:04:31Z</time>
      </trkpt>
      <trkpt lat="41.2008420" lon="-4.8158130">
        <ele>776.9</ele>
        <time>2019-08-14T12:04:32Z</time>
      </trkpt>
      <trkpt lat="41.2008080" lon="-4.8157700">
        <ele>776.9</ele>
        <time>2019-08-14T12:04:33Z</time>
      </trkpt>
      <trkpt lat="41.2007740" lon="-4.8157270">
        <ele>776.8</ele>
        <time>2019-08-14T12:04:34Z</time>
      </trkpt>
      <trkpt lat="41.2007380" lon="-4.8156830">
        <ele>776.8</ele>
        <time>2019-08-14T12:04:35Z</time>
      </trkpt>
      <trkpt lat="41.2007010" lon="-4.8156380">
        <ele>776.7</ele>
        <time>2019-08-14T12:04:36Z</time>
      </trkpt>
      <trkpt lat="41.2006640" lon="-4.8155920">
        <ele>776.7</ele>
        <time>2019-08-14T12:04:37Z</time>
      </trkpt>
      <trkpt lat="41.2006270" lon="-4.8155450">
        <ele>776.6</ele>
        <time>2019-08-14T12:04:38Z</time>
      </trkpt>
      <trkpt lat="41.2005900" lon="-4.8155000">
        <ele>776.5</ele>
        <time>2019-08-14T12:04:39Z</time>
      </trkpt>
      <trkpt lat="41.2005530" lon="-4.8154530">
        <ele>776.4</ele>
        <time>2019-08-14T12:04:40Z</time>
      </trkpt>
      <trkpt lat="41.2005170" lon="-4.8154050">
        <ele>776.3</ele>
        <time>2019-08-14T12:04:41Z</time>
      </trkpt>
      <trkpt lat="41.2004800" lon="-4.8153590">
        <ele>776.2</ele>
        <time>2019-08-14T12:04:42Z</time>
      </trkpt>
      <trkpt lat="41.2004460" lon="-4.8153140">
        <ele>776.0</ele>
        <time>2019-08-14T12:04:43Z</time>
      </trkpt>
      <trkpt lat="41.2004130" lon="-4.8152710">
        <ele>775.9</ele>
        <time>2019-08-14T12:04:44Z</time>
      </trkpt>
      <trkpt lat="41.2003820" lon="-4.8152300">
        <ele>775.8</ele>
        <time>2019-08-14T12:04:45Z</time>
      </trkpt>
      <trkpt lat="41.2003510" lon="-4.8151910">
        <ele>775.7</ele>
        <time>2019-08-14T12:04:46Z</time>
      </trkpt>
      <trkpt lat="41.2003210" lon="-4.8151550">
        <ele>775.7</ele>
        <time>2019-08-14T12:04:47Z</time>
      </trkpt>
      <trkpt lat="41.2002910" lon="-4.8151250">
        <ele>775.6</ele>
        <time>2019-08-14T12:04:48Z</time>
      </trkpt>
      <trkpt lat="41.2002590" lon="-4.8151030">
        <ele>775.7</ele>
        <time>2019-08-14T12:04:49Z</time>
      </trkpt>
      <trkpt lat="41.2002230" lon="-4.8150920">
        <ele>775.8</ele>
        <time>2019-08-14T12:04:50Z</time>
      </trkpt>
      <trkpt lat="41.2001860" lon="-4.8150970">
        <ele>776.0</ele>
        <time>2019-08-14T12:04:51Z</time>
      </trkpt>
      <trkpt lat="41.2001520" lon="-4.8151180">
        <ele>776.1</ele>
        <time>2019-08-14T12:04:52Z</time>
      </trkpt>
      <trkpt lat="41.2001230" lon="-4.8151540">
        <ele>776.2</ele>
        <time>2019-08-14T12:04:53Z</time>
      </trkpt>
      <trkpt lat="41.2000990" lon="-4.8152000">
        <ele>776.3</ele>
        <time>2019-08-14T12:04:54Z</time>
      </trkpt>
      <trkpt lat="41.2000770" lon="-4.8152480">
        <ele>776.4</ele>
        <time>2019-08-14T12:04:55Z</time>
      </trkpt>
      <trkpt lat="41.2000520" lon="-4.8152950">
        <ele>776.6</ele>
        <time>2019-08-14T12:04:56Z</time>
      </trkpt>
      <trkpt lat="41.2000280" lon="-4.8153450">
        <ele>776.7</ele>
        <time>2019-08-14T12:04:57Z</time>
      </trkpt>
      <trkpt lat="41.2000020" lon="-4.8153940">
        <ele>776.8</ele>
        <time>2019-08-14T12:04:58Z</time>
      </trkpt>
      <trkpt lat="41.1999760" lon="-4.8154460">
        <ele>776.9</ele>
        <time>2019-08-14T12:04:59Z</time>
      </trkpt>
      <trkpt lat="41.1999510" lon="-4.8154990">
        <ele>777.0</ele>
        <time>2019-08-14T12:05:00Z</time>
      </trkpt>
      <trkpt lat="41.1999270" lon="-4.8155520">
        <ele>777.1</ele>
        <time>2019-08-14T12:05:01Z</time>
      </trkpt>
      <trkpt lat="41.1999020" lon="-4.8156040">
        <ele>777.2</ele>
        <time>2019-08-14T12:05:02Z</time>
      </trkpt>
      <trkpt lat="41.1998780" lon="-4.8156590">
        <ele>777.3</ele>
        <time>2019-08-14T12:05:03Z</time>
      </trkpt>
      <trkpt lat="41.1998550" lon="-4.8157140">
        <ele>777.5</ele>
        <time>2019-08-14T12:05:04Z</time>
      </trkpt>
      <trkpt lat="41.1998310" lon="-4.8157690">
        <ele>777.6</ele>
        <time>2019-08-14T12:05:05Z</time>
      </trkpt>
      <trkpt lat="41.1998080" lon="-4.8158230">
        <ele>777.7</ele>
        <time>2019-08-14T12:05:06Z</time>
      </trkpt>
      <trkpt lat="41.1997830" lon="-4.8158750">
        <ele>777.8</ele>
        <time>2019-08-14T12:05:07Z</time>
      </trkpt>
      <trkpt lat="41.1997580" lon="-4.8159270">
        <ele>777.9</ele>
        <time>2019-08-14T12:05:08Z</time>
      </trkpt>
      <trkpt lat="41.1997330" lon="-4.8159770">
        <ele>778.0</ele>
        <time>2019-08-14T12:05:09Z</time>
      </trkpt>
      <trkpt lat="41.1997090" lon="-4.8160270">
        <ele>778.2</ele>
        <time>2019-08-14T12:05:10Z</time>
      </trkpt>
      <trkpt lat="41.1996860" lon="-4.8160790">
        <ele>778.3</ele>
        <time>2019-08-14T12:05:11Z</time>
      </trkpt>
      <trkpt lat="41.1996640" lon="-4.8161320">
        <ele>778.4</ele>
        <time>2019-08-14T12:05:12Z</time>
      </trkpt>
      <trkpt lat="41.1996410" lon="-4.8161850">
        <ele>778.6</ele>
        <time>2019-08-14T12:05:13Z</time>
      </trkpt>
      <trkpt lat="41.1996190" lon="-4.8162370">
        <ele>778.7</ele>
        <time>2019-08-14T12:05:14Z</time>
      </trkpt>
      <trkpt lat="41.1995950" lon="-4.8162900">
        <ele>778.9</ele>
        <time>2019-08-14T12:05:15Z</time>
      </trkpt>
      <trkpt lat="41.1995690" lon="-4.8163410">
        <ele>779.0</ele>
        <time>2019-08-14T12:05:16Z</time>
      </trkpt>
      <trkpt lat="41.1995450" lon="-4.8163910">
        <ele>779.2</ele>
        <time>2019-08-14T12:05:17Z</time>
      </trkpt>
      <trkpt lat="41.1995190" lon="-4.8164400">
        <ele>779.3</ele>
        <time>2019-08-14T12:05:18Z</time>
      </trkpt>
      <trkpt lat="41.1994950" lon="-4.8164900">
        <ele>779.4</ele>
        <time>2019-08-14T12:05:19Z</time>
      </trkpt>
      <trkpt lat="41.1994730" lon="-4.8165390">
        <ele>779.5</ele>
        <time>2019-08-14T12:05:20Z</time>
      </trkpt>
      <trkpt lat="41.1994520" lon="-4.8165880">
        <ele>779.6</ele>
        <time>2019-08-14T12:05:21Z</time>
      </trkpt>
      <trkpt lat="41.1994300" lon="-4.8166350">
        <ele>779.7</ele>
        <time>2019-08-14T12:05:22Z</time>
      </trkpt>
      <trkpt lat="41.1994100" lon="-4.8166810">
        <ele>779.8</ele>
        <time>2019-08-14T12:05:23Z</time>
      </trkpt>
      <trkpt lat="41.1993890" lon="-4.8167260">
        <ele>779.9</ele>
        <time>2019-08-14T12:05:24Z</time>
      </trkpt>
      <trkpt lat="41.1993670" lon="-4.8167700">
        <ele>780.1</ele>
        <time>2019-08-14T12:05:25Z</time>
      </trkpt>
      <trkpt lat="41.1993440" lon="-4.8168120">
        <ele>780.2</ele>
        <time>2019-08-14T12:05:26Z</time>
      </trkpt>
      <trkpt lat="41.1993240" lon="-4.8168540">
        <ele>780.3</ele>
        <time>2019-08-14T12:05:27Z</time>
      </trkpt>
      <trkpt lat="41.1993050" lon="-4.8168990">
        <ele>780.4</ele>
        <time>2019-08-14T12:05:28Z</time>
      </trkpt>
      <trkpt lat="41.1992870" lon="-4.8169430">
        <ele>780.6</ele>
        <time>2019-08-14T12:05:29Z</time>
      </trkpt>
      <trkpt lat="41.1992680" lon="-4.8169860">
        <ele>780.7</ele>
        <time>2019-08-14T12:05:30Z</time>
      </trkpt>
      <trkpt lat="41.1992490" lon="-4.8170280">
        <ele>780.9</ele>
        <time>2019-08-14T12:05:31Z</time>
      </trkpt>
      <trkpt lat="41.1992310" lon="-4.8170720">
        <ele>781.0</ele>
        <time>2019-08-14T12:05:32Z</time>
      </trkpt>
      <trkpt lat="41.1992130" lon="-4.8171170">
        <ele>781.1</ele>
        <time>2019-08-14T12:05:33Z</time>
      </trkpt>
      <trkpt lat="41.1991970" lon="-4.8171640">
        <ele>781.2</ele>
        <time>2019-08-14T12:05:34Z</time>
      </trkpt>
      <trkpt lat="41.1991800" lon="-4.8172090">
        <ele>781.3</ele>
        <time>2019-08-14T12:05:35Z</time>
      </trkpt>
      <trkpt lat="41.1991640" lon="-4.8172540">
        <ele>781.4</ele>
        <time>2019-08-14T12:05:36Z</time>
      </trkpt>
      <trkpt lat="41.1991480" lon="-4.8173000">
        <ele>781.5</ele>
        <time>2019-08-14T12:05:37Z</time>
      </trkpt>
      <trkpt lat="41.1991340" lon="-4.8173470">
        <ele>781.6</ele>
        <time>2019-08-14T12:05:38Z</time>
      </trkpt>
      <trkpt lat="41.1991200" lon="-4.8173950">
        <ele>781.6</ele>
        <time>2019-08-14T12:05:39Z</time>
      </trkpt>
      <trkpt lat="41.1991050" lon="-4.8174420">
        <ele>781.7</ele>
        <time>2019-08-14T12:05:40Z</time>
      </trkpt>
      <trkpt lat="41.1990900" lon="-4.8174870">
        <ele>781.8</ele>
        <time>2019-08-14T12:05:41Z</time>
      </trkpt>
      <trkpt lat="41.1990740" lon="-4.8175300">
        <ele>781.8</ele>
        <time>2019-08-14T12:05:42Z</time>
      </trkpt>
      <trkpt lat="41.1990580" lon="-4.8175730">
        <ele>782.0</ele>
        <time>2019-08-14T12:05:43Z</time>
      </trkpt>
      <trkpt lat="41.1990440" lon="-4.8176150">
        <ele>782.1</ele>
        <time>2019-08-14T12:05:44Z</time>
      </trkpt>
      <trkpt lat="41.1990280" lon="-4.8176580">
        <ele>782.2</ele>
        <time>2019-08-14T12:05:45Z</time>
      </trkpt>
      <trkpt lat="41.1990100" lon="-4.8177000">
        <ele>782.2</ele>
        <time>2019-08-14T12:05:46Z</time>
      </trkpt>
      <trkpt lat="41.1989900" lon="-4.8177410">
        <ele>782.3</ele>
        <time>2019-08-14T12:05:47Z</time>
      </trkpt>
      <trkpt lat="41.1989700" lon="-4.8177840">
        <ele>782.4</ele>
        <time>2019-08-14T12:05:48Z</time>
      </trkpt>
      <trkpt lat="41.1989510" lon="-4.8178280">
        <ele>782.5</ele>
        <time>2019-08-14T12:05:49Z</time>
      </trkpt>
      <trkpt lat="41.1989330" lon="-4.8178710">
        <ele>782.6</ele>
        <time>2019-08-14T12:05:50Z</time>
      </trkpt>
      <trkpt lat="41.1989130" lon="-4.8179140">
        <ele>782.7</ele>
        <time>2019-08-14T12:05:51Z</time>
      </trkpt>
      <trkpt lat="41.1988930" lon="-4.8179580">
        <ele>782.8</ele>
        <time>2019-08-14T12:05:52Z</time>
      </trkpt>
      <trkpt lat="41.1988740" lon="-4.8180010">
        <ele>782.9</ele>
        <time>2019-08-14T12:05:53Z</time>
      </trkpt>
      <trkpt lat="41.1988550" lon="-4.8180430">
        <ele>783.0</ele>
        <time>2019-08-14T12:05:54Z</time>
      </trkpt>
      <trkpt lat="41.1988360" lon="-4.8180850">
        <ele>783.1</ele>
        <time>2019-08-14T12:05:55Z</time>
      </trkpt>
      <trkpt lat="41.1988180" lon="-4.8181270">
        <ele>783.3</ele>
        <time>2019-08-14T12:05:56Z</time>
      </trkpt>
      <trkpt lat="41.1988010" lon="-4.8181700">
        <ele>783.4</ele>
        <time>2019-08-14T12:05:57Z</time>
      </trkpt>
      <trkpt lat="41.1987820" lon="-4.8182120">
        <ele>783.5</ele>
        <time>2019-08-14T12:05:58Z</time>
      </trkpt>
      <trkpt lat="41.1987630" lon="-4.8182560">
        <ele>783.6</ele>
        <time>2019-08-14T12:05:59Z</time>
      </trkpt>
      <trkpt lat="41.1987440" lon="-4.8182980">
        <ele>783.7</ele>
        <time>2019-08-14T12:06:00Z</time>
      </trkpt>
      <trkpt lat="41.1987250" lon="-4.8183400">
        <ele>783.8</ele>
        <time>2019-08-14T12:06:01Z</time>
      </trkpt>
      <trkpt lat="41.1987060" lon="-4.8183800">
        <ele>783.9</ele>
        <time>2019-08-14T12:06:02Z</time>
      </trkpt>
      <trkpt lat="41.1986870" lon="-4.8184200">
        <ele>784.0</ele>
        <time>2019-08-14T12:06:03Z</time>
      </trkpt>
      <trkpt lat="41.1986670" lon="-4.8184620">
        <ele>784.0</ele>
        <time>2019-08-14T12:06:04Z</time>
      </trkpt>
      <trkpt lat="41.1986470" lon="-4.8185030">
        <ele>784.1</ele>
        <time>2019-08-14T12:06:05Z</time>
      </trkpt>
      <trkpt lat="41.1986280" lon="-4.8185460">
        <ele>784.2</ele>
        <time>2019-08-14T12:06:06Z</time>
      </trkpt>
      <trkpt lat="41.1986110" lon="-4.8185880">
        <ele>784.3</ele>
        <time>2019-08-14T12:06:07Z</time>
      </trkpt>
      <trkpt lat="41.1985920" lon="-4.8186290">
        <ele>784.4</ele>
        <time>2019-08-14T12:06:08Z</time>
      </trkpt>
      <trkpt lat="41.1985730" lon="-4.8186700">
        <ele>784.5</ele>
        <time>2019-08-14T12:06:09Z</time>
      </trkpt>
      <trkpt lat="41.1985540" lon="-4.8187110">
        <ele>784.6</ele>
        <time>2019-08-14T12:06:10Z</time>
      </trkpt>
      <trkpt lat="41.1985360" lon="-4.8187530">
        <ele>784.7</ele>
        <time>2019-08-14T12:06:11Z</time>
      </trkpt>
      <trkpt lat="41.1985170" lon="-4.8187950">
        <ele>784.7</ele>
        <time>2019-08-14T12:06:12Z</time>
      </trkpt>
      <trkpt lat="41.1984980" lon="-4.8188360">
        <ele>784.8</ele>
        <time>2019-08-14T12:06:13Z</time>
      </trkpt>
      <trkpt lat="41.1984780" lon="-4.8188780">
        <ele>784.9</ele>
        <time>2019-08-14T12:06:14Z</time>
      </trkpt>
      <trkpt lat="41.1984610" lon="-4.8189200">
        <ele>785.0</ele>
        <time>2019-08-14T12:06:15Z</time>
      </trkpt>
      <trkpt lat="41.1984420" lon="-4.8189600">
        <ele>785.1</ele>
        <time>2019-08-14T12:06:16Z</time>
      </trkpt>
      <trkpt lat="41.1984230" lon="-4.8190000">
        <ele>785.2</ele>
        <time>2019-08-14T12:06:17Z</time>
      </trkpt>
      <trkpt lat="41.1984030" lon="-4.8190400">
        <ele>785.3</ele>
        <time>2019-08-14T12:06:18Z</time>
      </trkpt>
      <trkpt lat="41.1983840" lon="-4.8190810">
        <ele>785.4</ele>
        <time>2019-08-14T12:06:19Z</time>
      </trkpt>
      <trkpt lat="41.1983640" lon="-4.8191220">
        <ele>785.5</ele>
        <time>2019-08-14T12:06:20Z</time>
      </trkpt>
      <trkpt lat="41.1983450" lon="-4.8191640">
        <ele>785.5</ele>
        <time>2019-08-14T12:06:21Z</time>
      </trkpt>
      <trkpt lat="41.1983260" lon="-4.8192070">
        <ele>785.7</ele>
        <time>2019-08-14T12:06:22Z</time>
      </trkpt>
      <trkpt lat="41.1983070" lon="-4.8192490">
        <ele>785.8</ele>
        <time>2019-08-14T12:06:23Z</time>
      </trkpt>
      <trkpt lat="41.1982880" lon="-4.8192900">
        <ele>785.9</ele>
        <time>2019-08-14T12:06:24Z</time>
      </trkpt>
      <trkpt lat="41.1982690" lon="-4.8193300">
        <ele>786.0</ele>
        <time>2019-08-14T12:06:25Z</time>
      </trkpt>
      <trkpt lat="41.1982520" lon="-4.8193720">
        <ele>786.2</ele>
        <time>2019-08-14T12:06:26Z</time>
      </trkpt>
      <trkpt lat="41.1982340" lon="-4.8194110">
        <ele>786.2</ele>
        <time>2019-08-14T12:06:27Z</time>
      </trkpt>
      <trkpt lat="41.1982150" lon="-4.8194500">
        <ele>786.3</ele>
        <time>2019-08-14T12:06:28Z</time>
      </trkpt>
      <trkpt lat="41.1981950" lon="-4.8194880">
        <ele>786.3</ele>
        <time>2019-08-14T12:06:29Z</time>
      </trkpt>
      <trkpt lat="41.1981770" lon="-4.8195280">
        <ele>786.4</ele>
        <time>2019-08-14T12:06:30Z</time>
      </trkpt>
      <trkpt lat="41.1981580" lon="-4.8195680">
        <ele>786.4</ele>
        <time>2019-08-14T12:06:31Z</time>
      </trkpt>
      <trkpt lat="41.1981410" lon="-4.8196090">
        <ele>786.4</ele>
        <time>2019-08-14T12:06:32Z</time>
      </trkpt>
      <trkpt lat="41.1981290" lon="-4.8196540">
        <ele>786.4</ele>
        <time>2019-08-14T12:06:33Z</time>
      </trkpt>
      <trkpt lat="41.1981260" lon="-4.8196990">
        <ele>786.5</ele>
        <time>2019-08-14T12:06:34Z</time>
      </trkpt>
      <trkpt lat="41.1981340" lon="-4.8197440">
        <ele>786.5</ele>
        <time>2019-08-14T12:06:35Z</time>
      </trkpt>
      <trkpt lat="41.1981500" lon="-4.8197800">
        <ele>786.5</ele>
        <time>2019-08-14T12:06:36Z</time>
      </trkpt>
      <trkpt lat="41.1981720" lon="-4.8198110">
        <ele>786.5</ele>
        <time>2019-08-14T12:06:37Z</time>
      </trkpt>
      <trkpt lat="41.1981970" lon="-4.8198400">
        <ele>786.5</ele>
        <time>2019-08-14T12:06:38Z</time>
      </trkpt>
      <trkpt lat="41.1982250" lon="-4.8198710">
        <ele>786.5</ele>
        <time>2019-08-14T12:06:39Z</time>
      </trkpt>
      <trkpt lat="41.1982540" lon="-4.8199030">
        <ele>786.5</ele>
        <time>2019-08-14T12:06:40Z</time>
      </trkpt>
      <trkpt lat="41.1982850" lon="-4.8199370">
        <ele>786.5</ele>
        <time>2019-08-14T12:06:41Z</time>
      </trkpt>
      <trkpt lat="41.1983180" lon="-4.8199690">
        <ele>786.5</ele>
        <time>2019-08-14T12:06:42Z</time>
      </trkpt>
      <trkpt lat="41.1983490" lon="-4.8200000">
        <ele>786.5</ele>
        <time>2019-08-14T12:06:43Z</time>
      </trkpt>
      <trkpt lat="41.1983800" lon="-4.8200300">
        <ele>786.5</ele>
        <time>2019-08-14T12:06:44Z</time>
      </trkpt>
      <trkpt lat="41.1984110" lon="-4.8200610">
        <ele>786.5</ele>
        <time>2019-08-14T12:06:45Z</time>
      </trkpt>
      <trkpt lat="41.1984450" lon="-4.8200930">
        <ele>786.5</ele>
        <time>2019-08-14T12:06:46Z</time>
      </trkpt>
      <trkpt lat="41.1984810" lon="-4.8201270">
        <ele>786.5</ele>
        <time>2019-08-14T12:06:47Z</time>
      </trkpt>
      <trkpt lat="41.1985180" lon="-4.8201630">
        <ele>786.5</ele>
        <time>2019-08-14T12:06:48Z</time>
      </trkpt>
      <trkpt lat="41.1985550" lon="-4.8202020">
        <ele>786.5</ele>
        <time>2019-08-14T12:06:49Z</time>
      </trkpt>
      <trkpt lat="41.1985920" lon="-4.8202440">
        <ele>786.5</ele>
        <time>2019-08-14T12:06:50Z</time>
      </trkpt>
      <trkpt lat="41.1986290" lon="-4.8202850">
        <ele>786.5</ele>
        <time>2019-08-14T12:06:51Z</time>
      </trkpt>
      <trkpt lat="41.1986680" lon="-4.8203250">
        <ele>786.5</ele>
        <time>2019-08-14T12:06:52Z</time>
      </trkpt>
      <trkpt lat="41.1987080" lon="-4.8203640">
        <ele>786.5</ele>
        <time>2019-08-14T12:06:53Z</time>
      </trkpt>
      <trkpt lat="41.1987470" lon="-4.8204030">
        <ele>786.4</ele>
        <time>2019-08-14T12:06:54Z</time>
      </trkpt>
      <trkpt lat="41.1987850" lon="-4.8204390">
        <ele>786.4</ele>
        <time>2019-08-14T12:06:55Z</time>
      </trkpt>
      <trkpt lat="41.1988230" lon="-4.8204770">
        <ele>786.4</ele>
        <time>2019-08-14T12:06:56Z</time>
      </trkpt>
      <trkpt lat="41.1988630" lon="-4.8205160">
        <ele>786.3</ele>
        <time>2019-08-14T12:06:57Z</time>
      </trkpt>
      <trkpt lat="41.1989050" lon="-4.8205580">
        <ele>786.3</ele>
        <time>2019-08-14T12:06:58Z</time>
      </trkpt>
      <trkpt lat="41.1989470" lon="-4.8206000">
        <ele>786.2</ele>
        <time>2019-08-14T12:06:59Z</time>
      </trkpt>
      <trkpt lat="41.1989910" lon="-4.8206430">
        <ele>786.1</ele>
        <time>2019-08-14T12:07:00Z</time>
      </trkpt>
      <trkpt lat="41.1990350" lon="-4.8206870">
        <ele>785.9</ele>
        <time>2019-08-14T12:07:01Z</time>
      </trkpt>
      <trkpt lat="41.1990780" lon="-4.8207290">
        <ele>785.8</ele>
        <time>2019-08-14T12:07:02Z</time>
      </trkpt>
      <trkpt lat="41.1991210" lon="-4.8207700">
        <ele>785.7</ele>
        <time>2019-08-14T12:07:03Z</time>
      </trkpt>
      <trkpt lat="41.1991650" lon="-4.8208080">
        <ele>785.6</ele>
        <time>2019-08-14T12:07:04Z</time>
      </trkpt>
      <trkpt lat="41.1992090" lon="-4.8208460">
        <ele>785.5</ele>
        <time>2019-08-14T12:07:05Z</time>
      </trkpt>
      <trkpt lat="41.1992530" lon="-4.8208870">
        <ele>785.3</ele>
        <time>2019-08-14T12:07:06Z</time>
      </trkpt>
      <trkpt lat="41.1992960" lon="-4.8209290">
        <ele>785.1</ele>
        <time>2019-08-14T12:07:07Z</time>
      </trkpt>
      <trkpt lat="41.1993390" lon="-4.8209720">
        <ele>785.0</ele>
        <time>2019-08-14T12:07:08Z</time>
      </trkpt>
      <trkpt lat="41.1993820" lon="-4.8210170">
        <ele>784.8</ele>
        <time>2019-08-14T12:07:09Z</time>
      </trkpt>
      <trkpt lat="41.1994240" lon="-4.8210590">
        <ele>784.7</ele>
        <time>2019-08-14T12:07:10Z</time>
      </trkpt>
      <trkpt lat="41.1994660" lon="-4.8211020">
        <ele>784.6</ele>
        <time>2019-08-14T12:07:11Z</time>
      </trkpt>
      <trkpt lat="41.1995080" lon="-4.8211440">
        <ele>784.4</ele>
        <time>2019-08-14T12:07:12Z</time>
      </trkpt>
      <trkpt lat="41.1995490" lon="-4.8211850">
        <ele>784.2</ele>
        <time>2019-08-14T12:07:13Z</time>
      </trkpt>
      <trkpt lat="41.1995920" lon="-4.8212260">
        <ele>784.1</ele>
        <time>2019-08-14T12:07:14Z</time>
      </trkpt>
      <trkpt lat="41.1996370" lon="-4.8212700">
        <ele>784.0</ele>
        <time>2019-08-14T12:07:15Z</time>
      </trkpt>
      <trkpt lat="41.1996810" lon="-4.8213130">
        <ele>783.9</ele>
        <time>2019-08-14T12:07:16Z</time>
      </trkpt>
      <trkpt lat="41.1997250" lon="-4.8213570">
        <ele>783.7</ele>
        <time>2019-08-14T12:07:17Z</time>
      </trkpt>
      <trkpt lat="41.1997660" lon="-4.8214020">
        <ele>783.6</ele>
        <time>2019-08-14T12:07:18Z</time>
      </trkpt>
      <trkpt lat="41.1998070" lon="-4.8214440">
        <ele>783.5</ele>
        <time>2019-08-14T12:07:19Z</time>
      </trkpt>
      <trkpt lat="41.1998480" lon="-4.8214850">
        <ele>783.5</ele>
        <time>2019-08-14T12:07:20Z</time>
      </trkpt>
      <trkpt lat="41.1998910" lon="-4.8215250">
        <ele>783.4</ele>
        <time>2019-08-14T12:07:21Z</time>
      </trkpt>
      <trkpt lat="41.1999350" lon="-4.8215650">
        <ele>783.3</ele>
        <time>2019-08-14T12:07:22Z</time>
      </trkpt>
      <trkpt lat="41.1999760" lon="-4.8216050">
        <ele>783.2</ele>
        <time>2019-08-14T12:07:23Z</time>
      </trkpt>
      <trkpt lat="41.2000160" lon="-4.8216470">
        <ele>783.1</ele>
        <time>2019-08-14T12:07:24Z</time>
      </trkpt>
      <trkpt lat="41.2000540" lon="-4.8216880">
        <ele>783.1</ele>
        <time>2019-08-14T12:07:25Z</time>
      </trkpt>
      <trkpt lat="41.2000930" lon="-4.8217280">
        <ele>783.0</ele>
        <time>2019-08-14T12:07:26Z</time>
      </trkpt>
      <trkpt lat="41.2001330" lon="-4.8217680">
        <ele>782.9</ele>
        <time>2019-08-14T12:07:27Z</time>
      </trkpt>
      <trkpt lat="41.2001750" lon="-4.8218110">
        <ele>782.8</ele>
        <time>2019-08-14T12:07:28Z</time>
      </trkpt>
      <trkpt lat="41.2002170" lon="-4.8218560">
        <ele>782.7</ele>
        <time>2019-08-14T12:07:29Z</time>
      </trkpt>
      <trkpt lat="41.2002590" lon="-4.8219010">
        <ele>782.6</ele>
        <time>2019-08-14T12:07:30Z</time>
      </trkpt>
      <trkpt lat="41.2003020" lon="-4.8219460">
        <ele>782.5</ele>
        <time>2019-08-14T12:07:31Z</time>
      </trkpt>
      <trkpt lat="41.2003440" lon="-4.8219900">
        <ele>782.4</ele>
        <time>2019-08-14T12:07:32Z</time>
      </trkpt>
      <trkpt lat="41.2003850" lon="-4.8220310">
        <ele>782.3</ele>
        <time>2019-08-14T12:07:33Z</time>
      </trkpt>
      <trkpt lat="41.2004260" lon="-4.8220700">
        <ele>782.3</ele>
        <time>2019-08-14T12:07:34Z</time>
      </trkpt>
      <trkpt lat="41.2004660" lon="-4.8221070">
        <ele>782.2</ele>
        <time>2019-08-14T12:07:35Z</time>
      </trkpt>
      <trkpt lat="41.2005040" lon="-4.8221420">
        <ele>782.2</ele>
        <time>2019-08-14T12:07:36Z</time>
      </trkpt>
      <trkpt lat="41.2005420" lon="-4.8221790">
        <ele>782.1</ele>
        <time>2019-08-14T12:07:37Z</time>
      </trkpt>
      <trkpt lat="41.2005800" lon="-4.8222180">
        <ele>782.1</ele>
        <time>2019-08-14T12:07:38Z</time>
      </trkpt>
      <trkpt lat="41.2006180" lon="-4.8222580">
        <ele>782.1</ele>
        <time>2019-08-14T12:07:39Z</time>
      </trkpt>
      <trkpt lat="41.2006580" lon="-4.8222970">
        <ele>782.1</ele>
        <time>2019-08-14T12:07:40Z</time>
      </trkpt>
      <trkpt lat="41.2006970" lon="-4.8223360">
        <ele>782.1</ele>
        <time>2019-08-14T12:07:41Z</time>
      </trkpt>
      <trkpt lat="41.2007360" lon="-4.8223740">
        <ele>782.1</ele>
        <time>2019-08-14T12:07:42Z</time>
      </trkpt>
      <trkpt lat="41.2007750" lon="-4.8224140">
        <ele>782.1</ele>
        <time>2019-08-14T12:07:43Z</time>
      </trkpt>
      <trkpt lat="41.2008140" lon="-4.8224550">
        <ele>782.1</ele>
        <time>2019-08-14T12:07:44Z</time>
      </trkpt>
      <trkpt lat="41.2008560" lon="-4.8224960">
        <ele>782.2</ele>
        <time>2019-08-14T12:07:45Z</time>
      </trkpt>
      <trkpt lat="41.2008940" lon="-4.8225370">
        <ele>782.2</ele>
        <time>2019-08-14T12:07:46Z</time>
      </trkpt>
      <trkpt lat="41.2009330" lon="-4.8225760">
        <ele>782.2</ele>
        <time>2019-08-14T12:07:47Z</time>
      </trkpt>
      <trkpt lat="41.2009720" lon="-4.8226160">
        <ele>782.2</ele>
        <time>2019-08-14T12:07:48Z</time>
      </trkpt>
      <trkpt lat="41.2010110" lon="-4.8226550">
        <ele>782.3</ele>
        <time>2019-08-14T12:07:49Z</time>
      </trkpt>
      <trkpt lat="41.2010490" lon="-4.8226940">
        <ele>782.3</ele>
        <time>2019-08-14T12:07:50Z</time>
      </trkpt>
      <trkpt lat="41.2010880" lon="-4.8227320">
        <ele>782.3</ele>
        <time>2019-08-14T12:07:51Z</time>
      </trkpt>
      <trkpt lat="41.2011260" lon="-4.8227700">
        <ele>782.3</ele>
        <time>2019-08-14T12:07:52Z</time>
      </trkpt>
      <trkpt lat="41.2011640" lon="-4.8228080">
        <ele>782.3</ele>
        <time>2019-08-14T12:07:53Z</time>
      </trkpt>
      <trkpt lat="41.2012040" lon="-4.8228470">
        <ele>782.3</ele>
        <time>2019-08-14T12:07:54Z</time>
      </trkpt>
      <trkpt lat="41.2012410" lon="-4.8228860">
        <ele>782.3</ele>
        <time>2019-08-14T12:07:55Z</time>
      </trkpt>
      <trkpt lat="41.2012780" lon="-4.8229240">
        <ele>782.3</ele>
        <time>2019-08-14T12:07:56Z</time>
      </trkpt>
      <trkpt lat="41.2013120" lon="-4.8229610">
        <ele>782.3</ele>
        <time>2019-08-14T12:07:57Z</time>
      </trkpt>
      <trkpt lat="41.2013430" lon="-4.8230010">
        <ele>782.3</ele>
        <time>2019-08-14T12:07:58Z</time>
      </trkpt>
      <trkpt lat="41.2013710" lon="-4.8230410">
        <ele>782.3</ele>
        <time>2019-08-14T12:07:59Z</time>
      </trkpt>
      <trkpt lat="41.2014010" lon="-4.8230780">
        <ele>782.3</ele>
        <time>2019-08-14T12:08:00Z</time>
      </trkpt>
      <trkpt lat="41.2014330" lon="-4.8231100">
        <ele>782.3</ele>
        <time>2019-08-14T12:08:01Z</time>
      </trkpt>
      <trkpt lat="41.2014650" lon="-4.8231440">
        <ele>782.3</ele>
        <time>2019-08-14T12:08:02Z</time>
      </trkpt>
      <trkpt lat="41.2014970" lon="-4.8231820">
        <ele>782.3</ele>
        <time>2019-08-14T12:08:03Z</time>
      </trkpt>
      <trkpt lat="41.2015310" lon="-4.8232210">
        <ele>782.4</ele>
        <time>2019-08-14T12:08:04Z</time>
      </trkpt>
      <trkpt lat="41.2015660" lon="-4.8232590">
        <ele>782.4</ele>
        <time>2019-08-14T12:08:05Z</time>
      </trkpt>
      <trkpt lat="41.2016020" lon="-4.8232990">
        <ele>782.5</ele>
        <time>2019-08-14T12:08:06Z</time>
      </trkpt>
      <trkpt lat="41.2016370" lon="-4.8233400">
        <ele>782.6</ele>
        <time>2019-08-14T12:08:07Z</time>
      </trkpt>
      <trkpt lat="41.2016730" lon="-4.8233790">
        <ele>782.7</ele>
        <time>2019-08-14T12:08:08Z</time>
      </trkpt>
      <trkpt lat="41.2017090" lon="-4.8234200">
        <ele>782.8</ele>
        <time>2019-08-14T12:08:09Z</time>
      </trkpt>
      <trkpt lat="41.2017440" lon="-4.8234580">
        <ele>782.8</ele>
        <time>2019-08-14T12:08:10Z</time>
      </trkpt>
      <trkpt lat="41.2017790" lon="-4.8234920">
        <ele>782.9</ele>
        <time>2019-08-14T12:08:11Z</time>
      </trkpt>
      <trkpt lat="41.2018160" lon="-4.8235260">
        <ele>783.1</ele>
        <time>2019-08-14T12:08:12Z</time>
      </trkpt>
      <trkpt lat="41.2018510" lon="-4.8235580">
        <ele>783.2</ele>
        <time>2019-08-14T12:08:13Z</time>
      </trkpt>
      <trkpt lat="41.2018850" lon="-4.8235920">
        <ele>783.3</ele>
        <time>2019-08-14T12:08:14Z</time>
      </trkpt>
      <trkpt lat="41.2019200" lon="-4.8236240">
        <ele>783.4</ele>
        <time>2019-08-14T12:08:15Z</time>
      </trkpt>
      <trkpt lat="41.2019550" lon="-4.8236570">
        <ele>783.6</ele>
        <time>2019-08-14T12:08:16Z</time>
      </trkpt>
      <trkpt lat="41.2019880" lon="-4.8236900">
        <ele>783.7</ele>
        <time>2019-08-14T12:08:17Z</time>
      </trkpt>
      <trkpt lat="41.2020220" lon="-4.8237230">
        <ele>783.8</ele>
        <time>2019-08-14T12:08:18Z</time>
      </trkpt>
      <trkpt lat="41.2020550" lon="-4.8237530">
        <ele>783.9</ele>
        <time>2019-08-14T12:08:19Z</time>
      </trkpt>
      <trkpt lat="41.2020880" lon="-4.8237820">
        <ele>784.0</ele>
        <time>2019-08-14T12:08:20Z</time>
      </trkpt>
      <trkpt lat="41.2021210" lon="-4.8238110">
        <ele>784.1</ele>
        <time>2019-08-14T12:08:21Z</time>
      </trkpt>
      <trkpt lat="41.2021530" lon="-4.8238400">
        <ele>784.3</ele>
        <time>2019-08-14T12:08:22Z</time>
      </trkpt>
      <trkpt lat="41.2021840" lon="-4.8238700">
        <ele>784.4</ele>
        <time>2019-08-14T12:08:23Z</time>
      </trkpt>
      <trkpt lat="41.2022150" lon="-4.8239020">
        <ele>784.5</ele>
        <time>2019-08-14T12:08:24Z</time>
      </trkpt>
      <trkpt lat="41.2022470" lon="-4.8239330">
        <ele>784.8</ele>
        <time>2019-08-14T12:08:25Z</time>
      </trkpt>
      <trkpt lat="41.2022780" lon="-4.8239630">
        <ele>785.0</ele>
        <time>2019-08-14T12:08:26Z</time>
      </trkpt>
      <trkpt lat="41.2023090" lon="-4.8239920">
        <ele>785.1</ele>
        <time>2019-08-14T12:08:27Z</time>
      </trkpt>
      <trkpt lat="41.2023410" lon="-4.8240190">
        <ele>785.3</ele>
        <time>2019-08-14T12:08:28Z</time>
      </trkpt>
      <trkpt lat="41.2023730" lon="-4.8240430">
        <ele>785.5</ele>
        <time>2019-08-14T12:08:29Z</time>
      </trkpt>
      <trkpt lat="41.2024070" lon="-4.8240640">
        <ele>785.7</ele>
        <time>2019-08-14T12:08:30Z</time>
      </trkpt>
      <trkpt lat="41.2024390" lon="-4.8240860">
        <ele>785.8</ele>
        <time>2019-08-14T12:08:31Z</time>
      </trkpt>
      <trkpt lat="41.2024690" lon="-4.8241080">
        <ele>786.0</ele>
        <time>2019-08-14T12:08:32Z</time>
      </trkpt>
      <trkpt lat="41.2024950" lon="-4.8241320">
        <ele>786.2</ele>
        <time>2019-08-14T12:08:33Z</time>
      </trkpt>
      <trkpt lat="41.2025210" lon="-4.8241570">
        <ele>786.3</ele>
        <time>2019-08-14T12:08:34Z</time>
      </trkpt>
      <trkpt lat="41.2025460" lon="-4.8241820">
        <ele>786.5</ele>
        <time>2019-08-14T12:08:35Z</time>
      </trkpt>
      <trkpt lat="41.2025700" lon="-4.8242070">
        <ele>786.6</ele>
        <time>2019-08-14T12:08:36Z</time>
      </trkpt>
      <trkpt lat="41.2025950" lon="-4.8242330">
        <ele>786.7</ele>
        <time>2019-08-14T12:08:37Z</time>
      </trkpt>
      <trkpt lat="41.2026200" lon="-4.8242610">
        <ele>786.9</ele>
        <time>2019-08-14T12:08:38Z</time>
      </trkpt>
      <trkpt lat="41.2026450" lon="-4.8242880">
        <ele>787.0</ele>
        <time>2019-08-14T12:08:39Z</time>
      </trkpt>
      <trkpt lat="41.2026700" lon="-4.8243160">
        <ele>787.2</ele>
        <time>2019-08-14T12:08:40Z</time>
      </trkpt>
      <trkpt lat="41.2026950" lon="-4.8243430">
        <ele>787.3</ele>
        <time>2019-08-14T12:08:41Z</time>
      </trkpt>
      <trkpt lat="41.2027200" lon="-4.8243690">
        <ele>787.5</ele>
        <time>2019-08-14T12:08:42Z</time>
      </trkpt>
      <trkpt lat="41.2027460" lon="-4.8243940">
        <ele>787.7</ele>
        <time>2019-08-14T12:08:43Z</time>
      </trkpt>
      <trkpt lat="41.2027710" lon="-4.8244200">
        <ele>787.8</ele>
        <time>2019-08-14T12:08:44Z</time>
      </trkpt>
      <trkpt lat="41.2027970" lon="-4.8244460">
        <ele>787.9</ele>
        <time>2019-08-14T12:08:45Z</time>
      </trkpt>
      <trkpt lat="41.2028240" lon="-4.8244730">
        <ele>788.0</ele>
        <time>2019-08-14T12:08:46Z</time>
      </trkpt>
      <trkpt lat="41.2028510" lon="-4.8244990">
        <ele>788.1</ele>
        <time>2019-08-14T12:08:47Z</time>
      </trkpt>
      <trkpt lat="41.2028790" lon="-4.8245260">
        <ele>788.2</ele>
        <time>2019-08-14T12:08:48Z</time>
      </trkpt>
      <trkpt lat="41.2029070" lon="-4.8245510">
        <ele>788.3</ele>
        <time>2019-08-14T12:08:49Z</time>
      </trkpt>
      <trkpt lat="41.2029340" lon="-4.8245770">
        <ele>788.4</ele>
        <time>2019-08-14T12:08:50Z</time>
      </trkpt>
      <trkpt lat="41.2029620" lon="-4.8246000">
        <ele>788.5</ele>
        <time>2019-08-14T12:08:51Z</time>
      </trkpt>
      <trkpt lat="41.2029900" lon="-4.8246240">
        <ele>788.7</ele>
        <time>2019-08-14T12:08:52Z</time>
      </trkpt>
      <trkpt lat="41.2030180" lon="-4.8246480">
        <ele>788.8</ele>
        <time>2019-08-14T12:08:53Z</time>
      </trkpt>
      <trkpt lat="41.2030460" lon="-4.8246700">
        <ele>788.9</ele>
        <time>2019-08-14T12:08:54Z</time>
      </trkpt>
      <trkpt lat="41.2030720" lon="-4.8246910">
        <ele>789.0</ele>
        <time>2019-08-14T12:08:55Z</time>
      </trkpt>
      <trkpt lat="41.2030980" lon="-4.8247120">
        <ele>789.0</ele>
        <time>2019-08-14T12:08:56Z</time>
      </trkpt>
      <trkpt lat="41.2031230" lon="-4.8247320">
        <ele>789.1</ele>
        <time>2019-08-14T12:08:57Z</time>
      </trkpt>
      <trkpt lat="41.2031480" lon="-4.8247510">
        <ele>789.2</ele>
        <time>2019-08-14T12:08:58Z</time>
      </trkpt>
      <trkpt lat="41.2031720" lon="-4.8247690">
        <ele>789.3</ele>
        <time>2019-08-14T12:08:59Z</time>
      </trkpt>
      <trkpt lat="41.2031950" lon="-4.8247880">
        <ele>789.4</ele>
        <time>2019-08-14T12:09:00Z</time>
      </trkpt>
      <trkpt lat="41.2032180" lon="-4.8248080">
        <ele>789.5</ele>
        <time>2019-08-14T12:09:01Z</time>
      </trkpt>
      <trkpt lat="41.2032410" lon="-4.8248280">
        <ele>789.6</ele>
        <time>2019-08-14T12:09:02Z</time>
      </trkpt>
      <trkpt lat="41.2032650" lon="-4.8248490">
        <ele>789.8</ele>
        <time>2019-08-14T12:09:03Z</time>
      </trkpt>
      <trkpt lat="41.2032900" lon="-4.8248690">
        <ele>789.9</ele>
        <time>2019-08-14T12:09:04Z</time>
      </trkpt>
      <trkpt lat="41.2033150" lon="-4.8248870">
        <ele>790.0</ele>
        <time>2019-08-14T12:09:05Z</time>
      </trkpt>
      <trkpt lat="41.2033380" lon="-4.8249060">
        <ele>790.1</ele>
        <time>2019-08-14T12:09:06Z</time>
      </trkpt>
      <trkpt lat="41.2033820" lon="-4.8249450">
        <ele>790.3</ele>
        <time>2019-08-14T12:09:08Z</time>
      </trkpt>
      <trkpt lat="41.2034250" lon="-4.8249850">
        <ele>790.5</ele>
        <time>2019-08-14T12:09:10Z</time>
      </trkpt>
      <trkpt lat="41.2034480" lon="-4.8250050">
        <ele>790.6</ele>
        <time>2019-08-14T12:09:11Z</time>
      </trkpt>
      <trkpt lat="41.2034720" lon="-4.8250260">
        <ele>790.6</ele>
        <time>2019-08-14T12:09:12Z</time>
      </trkpt>
      <trkpt lat="41.2034960" lon="-4.8250470">
        <ele>790.6</ele>
        <time>2019-08-14T12:09:13Z</time>
      </trkpt>
      <trkpt lat="41.2035210" lon="-4.8250700">
        <ele>790.6</ele>
        <time>2019-08-14T12:09:14Z</time>
      </trkpt>
      <trkpt lat="41.2035460" lon="-4.8250940">
        <ele>790.6</ele>
        <time>2019-08-14T12:09:15Z</time>
      </trkpt>
      <trkpt lat="41.2035720" lon="-4.8251180">
        <ele>790.5</ele>
        <time>2019-08-14T12:09:16Z</time>
      </trkpt>
      <trkpt lat="41.2035990" lon="-4.8251430">
        <ele>790.4</ele>
        <time>2019-08-14T12:09:17Z</time>
      </trkpt>
      <trkpt lat="41.2036260" lon="-4.8251700">
        <ele>790.3</ele>
        <time>2019-08-14T12:09:18Z</time>
      </trkpt>
      <trkpt lat="41.2036540" lon="-4.8251980">
        <ele>790.2</ele>
        <time>2019-08-14T12:09:19Z</time>
      </trkpt>
      <trkpt lat="41.2036840" lon="-4.8252280">
        <ele>790.1</ele>
        <time>2019-08-14T12:09:20Z</time>
      </trkpt>
      <trkpt lat="41.2037150" lon="-4.8252590">
        <ele>790.0</ele>
        <time>2019-08-14T12:09:21Z</time>
      </trkpt>
      <trkpt lat="41.2037480" lon="-4.8252930">
        <ele>789.8</ele>
        <time>2019-08-14T12:09:22Z</time>
      </trkpt>
      <trkpt lat="41.2037820" lon="-4.8253270">
        <ele>789.6</ele>
        <time>2019-08-14T12:09:23Z</time>
      </trkpt>
      <trkpt lat="41.2038170" lon="-4.8253610">
        <ele>789.4</ele>
        <time>2019-08-14T12:09:24Z</time>
      </trkpt>
      <trkpt lat="41.2038510" lon="-4.8253960">
        <ele>789.1</ele>
        <time>2019-08-14T12:09:25Z</time>
      </trkpt>
      <trkpt lat="41.2038850" lon="-4.8254320">
        <ele>788.9</ele>
        <time>2019-08-14T12:09:26Z</time>
      </trkpt>
      <trkpt lat="41.2039200" lon="-4.8254690">
        <ele>788.7</ele>
        <time>2019-08-14T12:09:27Z</time>
      </trkpt>
      <trkpt lat="41.2039550" lon="-4.8255090">
        <ele>788.5</ele>
        <time>2019-08-14T12:09:28Z</time>
      </trkpt>
      <trkpt lat="41.2039890" lon="-4.8255510">
        <ele>788.2</ele>
        <time>2019-08-14T12:09:29Z</time>
      </trkpt>
      <trkpt lat="41.2040260" lon="-4.8255950">
        <ele>788.0</ele>
        <time>2019-08-14T12:09:30Z</time>
      </trkpt>
      <trkpt lat="41.2040650" lon="-4.8256400">
        <ele>787.7</ele>
        <time>2019-08-14T12:09:31Z</time>
      </trkpt>
      <trkpt lat="41.2041060" lon="-4.8256880">
        <ele>787.4</ele>
        <time>2019-08-14T12:09:32Z</time>
      </trkpt>
      <trkpt lat="41.2041470" lon="-4.8257400">
        <ele>787.1</ele>
        <time>2019-08-14T12:09:33Z</time>
      </trkpt>
      <trkpt lat="41.2041880" lon="-4.8257950">
        <ele>786.8</ele>
        <time>2019-08-14T12:09:34Z</time>
      </trkpt>
      <trkpt lat="41.2042310" lon="-4.8258530">
        <ele>786.5</ele>
        <time>2019-08-14T12:09:35Z</time>
      </trkpt>
      <trkpt lat="41.2042770" lon="-4.8259130">
        <ele>786.1</ele>
        <time>2019-08-14T12:09:36Z</time>
      </trkpt>
      <trkpt lat="41.2043230" lon="-4.8259770">
        <ele>785.8</ele>
        <time>2019-08-14T12:09:37Z</time>
      </trkpt>
      <trkpt lat="41.2043700" lon="-4.8260420">
        <ele>785.5</ele>
        <time>2019-08-14T12:09:38Z</time>
      </trkpt>
      <trkpt lat="41.2044200" lon="-4.8261070">
        <ele>785.3</ele>
        <time>2019-08-14T12:09:39Z</time>
      </trkpt>
      <trkpt lat="41.2044710" lon="-4.8261710">
        <ele>785.0</ele>
        <time>2019-08-14T12:09:40Z</time>
      </trkpt>
      <trkpt lat="41.2045250" lon="-4.8262330">
        <ele>784.8</ele>
        <time>2019-08-14T12:09:41Z</time>
      </trkpt>
      <trkpt lat="41.2045800" lon="-4.8262940">
        <ele>784.5</ele>
        <time>2019-08-14T12:09:42Z</time>
      </trkpt>
      <trkpt lat="41.2046350" lon="-4.8263540">
        <ele>784.2</ele>
        <time>2019-08-14T12:09:43Z</time>
      </trkpt>
      <trkpt lat="41.2046910" lon="-4.8264140">
        <ele>783.9</ele>
        <time>2019-08-14T12:09:44Z</time>
      </trkpt>
      <trkpt lat="41.2047490" lon="-4.8264700">
        <ele>783.7</ele>
        <time>2019-08-14T12:09:45Z</time>
      </trkpt>
      <trkpt lat="41.2048070" lon="-4.8265250">
        <ele>783.6</ele>
        <time>2019-08-14T12:09:46Z</time>
      </trkpt>
      <trkpt lat="41.2048640" lon="-4.8265780">
        <ele>783.4</ele>
        <time>2019-08-14T12:09:47Z</time>
      </trkpt>
      <trkpt lat="41.2049210" lon="-4.8266300">
        <ele>783.2</ele>
        <time>2019-08-14T12:09:48Z</time>
      </trkpt>
      <trkpt lat="41.2049790" lon="-4.8266820">
        <ele>783.0</ele>
        <time>2019-08-14T12:09:49Z</time>
      </trkpt>
      <trkpt lat="41.2050360" lon="-4.8267320">
        <ele>782.7</ele>
        <time>2019-08-14T12:09:50Z</time>
      </trkpt>
      <trkpt lat="41.2050920" lon="-4.8267830">
        <ele>782.4</ele>
        <time>2019-08-14T12:09:51Z</time>
      </trkpt>
      <trkpt lat="41.2051480" lon="-4.8268330">
        <ele>782.2</ele>
        <time>2019-08-14T12:09:52Z</time>
      </trkpt>
      <trkpt lat="41.2052020" lon="-4.8268830">
        <ele>782.0</ele>
        <time>2019-08-14T12:09:53Z</time>
      </trkpt>
      <trkpt lat="41.2052560" lon="-4.8269340">
        <ele>781.8</ele>
        <time>2019-08-14T12:09:54Z</time>
      </trkpt>
      <trkpt lat="41.2053100" lon="-4.8269840">
        <ele>781.5</ele>
        <time>2019-08-14T12:09:55Z</time>
      </trkpt>
      <trkpt lat="41.2053660" lon="-4.8270320">
        <ele>781.3</ele>
        <time>2019-08-14T12:09:56Z</time>
      </trkpt>
      <trkpt lat="41.2054220" lon="-4.8270810">
        <ele>781.1</ele>
        <time>2019-08-14T12:09:57Z</time>
      </trkpt>
      <trkpt lat="41.2054780" lon="-4.8271280">
        <ele>780.9</ele>
        <time>2019-08-14T12:09:58Z</time>
      </trkpt>
      <trkpt lat="41.2055330" lon="-4.8271770">
        <ele>780.7</ele>
        <time>2019-08-14T12:09:59Z</time>
      </trkpt>
      <trkpt lat="41.2055860" lon="-4.8272260">
        <ele>780.5</ele>
        <time>2019-08-14T12:10:00Z</time>
      </trkpt>
      <trkpt lat="41.2056380" lon="-4.8272760">
        <ele>780.3</ele>
        <time>2019-08-14T12:10:01Z</time>
      </trkpt>
      <trkpt lat="41.2056890" lon="-4.8273250">
        <ele>780.1</ele>
        <time>2019-08-14T12:10:02Z</time>
      </trkpt>
      <trkpt lat="41.2057400" lon="-4.8273730">
        <ele>779.9</ele>
        <time>2019-08-14T12:10:03Z</time>
      </trkpt>
      <trkpt lat="41.2057900" lon="-4.8274190">
        <ele>779.8</ele>
        <time>2019-08-14T12:10:04Z</time>
      </trkpt>
      <trkpt lat="41.2058390" lon="-4.8274640">
        <ele>779.7</ele>
        <time>2019-08-14T12:10:05Z</time>
      </trkpt>
      <trkpt lat="41.2058890" lon="-4.8275090">
        <ele>779.5</ele>
        <time>2019-08-14T12:10:06Z</time>
      </trkpt>
      <trkpt lat="41.2059360" lon="-4.8275560">
        <ele>779.4</ele>
        <time>2019-08-14T12:10:07Z</time>
      </trkpt>
      <trkpt lat="41.2059820" lon="-4.8276030">
        <ele>779.3</ele>
        <time>2019-08-14T12:10:08Z</time>
      </trkpt>
      <trkpt lat="41.2060280" lon="-4.8276460">
        <ele>779.2</ele>
        <time>2019-08-14T12:10:09Z</time>
      </trkpt>
      <trkpt lat="41.2060740" lon="-4.8276900">
        <ele>779.1</ele>
        <time>2019-08-14T12:10:10Z</time>
      </trkpt>
      <trkpt lat="41.2061200" lon="-4.8277310">
        <ele>779.0</ele>
        <time>2019-08-14T12:10:11Z</time>
      </trkpt>
      <trkpt lat="41.2061660" lon="-4.8277740">
        <ele>778.9</ele>
        <time>2019-08-14T12:10:12Z</time>
      </trkpt>
      <trkpt lat="41.2062140" lon="-4.8278190">
        <ele>778.9</ele>
        <time>2019-08-14T12:10:13Z</time>
      </trkpt>
      <trkpt lat="41.2062590" lon="-4.8278640">
        <ele>778.9</ele>
        <time>2019-08-14T12:10:14Z</time>
      </trkpt>
      <trkpt lat="41.2063020" lon="-4.8279080">
        <ele>779.0</ele>
        <time>2019-08-14T12:10:15Z</time>
      </trkpt>
      <trkpt lat="41.2063430" lon="-4.8279470">
        <ele>779.0</ele>
        <time>2019-08-14T12:10:16Z</time>
      </trkpt>
      <trkpt lat="41.2063820" lon="-4.8279870">
        <ele>779.1</ele>
        <time>2019-08-14T12:10:17Z</time>
      </trkpt>
      <trkpt lat="41.2064180" lon="-4.8280240">
        <ele>779.2</ele>
        <time>2019-08-14T12:10:18Z</time>
      </trkpt>
      <trkpt lat="41.2064520" lon="-4.8280600">
        <ele>779.3</ele>
        <time>2019-08-14T12:10:19Z</time>
      </trkpt>
      <trkpt lat="41.2064840" lon="-4.8280960">
        <ele>779.4</ele>
        <time>2019-08-14T12:10:20Z</time>
      </trkpt>
      <trkpt lat="41.2065160" lon="-4.8281330">
        <ele>779.4</ele>
        <time>2019-08-14T12:10:21Z</time>
      </trkpt>
      <trkpt lat="41.2065480" lon="-4.8281680">
        <ele>779.5</ele>
        <time>2019-08-14T12:10:22Z</time>
      </trkpt>
      <trkpt lat="41.2065800" lon="-4.8282010">
        <ele>779.6</ele>
        <time>2019-08-14T12:10:23Z</time>
      </trkpt>
      <trkpt lat="41.2066120" lon="-4.8282330">
        <ele>779.7</ele>
        <time>2019-08-14T12:10:24Z</time>
      </trkpt>
      <trkpt lat="41.2066420" lon="-4.8282640">
        <ele>779.9</ele>
        <time>2019-08-14T12:10:25Z</time>
      </trkpt>
      <trkpt lat="41.2066710" lon="-4.8282940">
        <ele>780.0</ele>
        <time>2019-08-14T12:10:26Z</time>
      </trkpt>
      <trkpt lat="41.2067000" lon="-4.8283240">
        <ele>780.1</ele>
        <time>2019-08-14T12:10:27Z</time>
      </trkpt>
      <trkpt lat="41.2067280" lon="-4.8283530">
        <ele>780.3</ele>
        <time>2019-08-14T12:10:28Z</time>
      </trkpt>
      <trkpt lat="41.2067550" lon="-4.8283810">
        <ele>780.4</ele>
        <time>2019-08-14T12:10:29Z</time>
      </trkpt>
      <trkpt lat="41.2067810" lon="-4.8284090">
        <ele>780.5</ele>
        <time>2019-08-14T12:10:30Z</time>
      </trkpt>
      <trkpt lat="41.2068070" lon="-4.8284350">
        <ele>780.7</ele>
        <time>2019-08-14T12:10:31Z</time>
      </trkpt>
      <trkpt lat="41.2068310" lon="-4.8284620">
        <ele>780.8</ele>
        <time>2019-08-14T12:10:32Z</time>
      </trkpt>
      <trkpt lat="41.2068550" lon="-4.8284880">
        <ele>781.0</ele>
        <time>2019-08-14T12:10:33Z</time>
      </trkpt>
      <trkpt lat="41.2068780" lon="-4.8285130">
        <ele>781.1</ele>
        <time>2019-08-14T12:10:34Z</time>
      </trkpt>
      <trkpt lat="41.2069010" lon="-4.8285370">
        <ele>781.3</ele>
        <time>2019-08-14T12:10:35Z</time>
      </trkpt>
      <trkpt lat="41.2069240" lon="-4.8285610">
        <ele>781.4</ele>
        <time>2019-08-14T12:10:36Z</time>
      </trkpt>
      <trkpt lat="41.2069470" lon="-4.8285840">
        <ele>781.6</ele>
        <time>2019-08-14T12:10:37Z</time>
      </trkpt>
      <trkpt lat="41.2069700" lon="-4.8286060">
        <ele>781.7</ele>
        <time>2019-08-14T12:10:38Z</time>
      </trkpt>
      <trkpt lat="41.2069930" lon="-4.8286280">
        <ele>781.9</ele>
        <time>2019-08-14T12:10:39Z</time>
      </trkpt>
      <trkpt lat="41.2070170" lon="-4.8286520">
        <ele>782.0</ele>
        <time>2019-08-14T12:10:40Z</time>
      </trkpt>
      <trkpt lat="41.2070410" lon="-4.8286760">
        <ele>782.2</ele>
        <time>2019-08-14T12:10:41Z</time>
      </trkpt>
      <trkpt lat="41.2070640" lon="-4.8287000">
        <ele>782.5</ele>
        <time>2019-08-14T12:10:42Z</time>
      </trkpt>
      <trkpt lat="41.2070860" lon="-4.8287260">
        <ele>782.7</ele>
        <time>2019-08-14T12:10:43Z</time>
      </trkpt>
      <trkpt lat="41.2071080" lon="-4.8287530">
        <ele>782.8</ele>
        <time>2019-08-14T12:10:44Z</time>
      </trkpt>
      <trkpt lat="41.2071280" lon="-4.8287790">
        <ele>782.9</ele>
        <time>2019-08-14T12:10:45Z</time>
      </trkpt>
      <trkpt lat="41.2071510" lon="-4.8288040">
        <ele>783.1</ele>
        <time>2019-08-14T12:10:46Z</time>
      </trkpt>
      <trkpt lat="41.2071750" lon="-4.8288250">
        <ele>783.2</ele>
        <time>2019-08-14T12:10:47Z</time>
      </trkpt>
      <trkpt lat="41.2071990" lon="-4.8288450">
        <ele>783.2</ele>
        <time>2019-08-14T12:10:48Z</time>
      </trkpt>
      <trkpt lat="41.2072230" lon="-4.8288660">
        <ele>783.3</ele>
        <time>2019-08-14T12:10:49Z</time>
      </trkpt>
      <trkpt lat="41.2072460" lon="-4.8288870">
        <ele>783.3</ele>
        <time>2019-08-14T12:10:50Z</time>
      </trkpt>
      <trkpt lat="41.2072700" lon="-4.8289080">
        <ele>783.4</ele>
        <time>2019-08-14T12:10:51Z</time>
      </trkpt>
      <trkpt lat="41.2072940" lon="-4.8289290">
        <ele>783.4</ele>
        <time>2019-08-14T12:10:52Z</time>
      </trkpt>
      <trkpt lat="41.2073180" lon="-4.8289510">
        <ele>783.4</ele>
        <time>2019-08-14T12:10:53Z</time>
      </trkpt>
      <trkpt lat="41.2073410" lon="-4.8289750">
        <ele>783.4</ele>
        <time>2019-08-14T12:10:54Z</time>
      </trkpt>
      <trkpt lat="41.2073660" lon="-4.8290000">
        <ele>783.4</ele>
        <time>2019-08-14T12:10:55Z</time>
      </trkpt>
      <trkpt lat="41.2073910" lon="-4.8290250">
        <ele>783.4</ele>
        <time>2019-08-14T12:10:56Z</time>
      </trkpt>
      <trkpt lat="41.2074180" lon="-4.8290500">
        <ele>783.4</ele>
        <time>2019-08-14T12:10:57Z</time>
      </trkpt>
      <trkpt lat="41.2074460" lon="-4.8290770">
        <ele>783.3</ele>
        <time>2019-08-14T12:10:58Z</time>
      </trkpt>
      <trkpt lat="41.2074750" lon="-4.8291040">
        <ele>783.3</ele>
        <time>2019-08-14T12:10:59Z</time>
      </trkpt>
      <trkpt lat="41.2075050" lon="-4.8291330">
        <ele>783.2</ele>
        <time>2019-08-14T12:11:00Z</time>
      </trkpt>
      <trkpt lat="41.2075360" lon="-4.8291640">
        <ele>783.1</ele>
        <time>2019-08-14T12:11:01Z</time>
      </trkpt>
      <trkpt lat="41.2075710" lon="-4.8291980">
        <ele>783.0</ele>
        <time>2019-08-14T12:11:02Z</time>
      </trkpt>
      <trkpt lat="41.2076070" lon="-4.8292340">
        <ele>782.9</ele>
        <time>2019-08-14T12:11:03Z</time>
      </trkpt>
      <trkpt lat="41.2076460" lon="-4.8292710">
        <ele>782.8</ele>
        <time>2019-08-14T12:11:04Z</time>
      </trkpt>
      <trkpt lat="41.2076860" lon="-4.8293080">
        <ele>782.7</ele>
        <time>2019-08-14T12:11:05Z</time>
      </trkpt>
      <trkpt lat="41.2077260" lon="-4.8293460">
        <ele>782.5</ele>
        <time>2019-08-14T12:11:06Z</time>
      </trkpt>
      <trkpt lat="41.2077670" lon="-4.8293860">
        <ele>782.3</ele>
        <time>2019-08-14T12:11:07Z</time>
      </trkpt>
      <trkpt lat="41.2078080" lon="-4.8294270">
        <ele>782.2</ele>
        <time>2019-08-14T12:11:08Z</time>
      </trkpt>
      <trkpt lat="41.2078490" lon="-4.8294700">
        <ele>782.0</ele>
        <time>2019-08-14T12:11:09Z</time>
      </trkpt>
      <trkpt lat="41.2078910" lon="-4.8295130">
        <ele>781.9</ele>
        <time>2019-08-14T12:11:10Z</time>
      </trkpt>
      <trkpt lat="41.2079340" lon="-4.8295560">
        <ele>781.7</ele>
        <time>2019-08-14T12:11:11Z</time>
      </trkpt>
      <trkpt lat="41.2079770" lon="-4.8295980">
        <ele>781.6</ele>
        <time>2019-08-14T12:11:12Z</time>
      </trkpt>
      <trkpt lat="41.2080190" lon="-4.8296400">
        <ele>781.5</ele>
        <time>2019-08-14T12:11:13Z</time>
      </trkpt>
      <trkpt lat="41.2080610" lon="-4.8296810">
        <ele>781.3</ele>
        <time>2019-08-14T12:11:14Z</time>
      </trkpt>
      <trkpt lat="41.2081020" lon="-4.8297210">
        <ele>781.2</ele>
        <time>2019-08-14T12:11:15Z</time>
      </trkpt>
      <trkpt lat="41.2081420" lon="-4.8297600">
        <ele>781.1</ele>
        <time>2019-08-14T12:11:16Z</time>
      </trkpt>
      <trkpt lat="41.2081810" lon="-4.8298000">
        <ele>781.0</ele>
        <time>2019-08-14T12:11:17Z</time>
      </trkpt>
      <trkpt lat="41.2082180" lon="-4.8298410">
        <ele>780.8</ele>
        <time>2019-08-14T12:11:18Z</time>
      </trkpt>
      <trkpt lat="41.2082540" lon="-4.8298810">
        <ele>780.7</ele>
        <time>2019-08-14T12:11:19Z</time>
      </trkpt>
      <trkpt lat="41.2082920" lon="-4.8299200">
        <ele>780.3</ele>
        <time>2019-08-14T12:11:20Z</time>
      </trkpt>
      <trkpt lat="41.2083320" lon="-4.8299600">
        <ele>779.9</ele>
        <time>2019-08-14T12:11:21Z</time>
      </trkpt>
      <trkpt lat="41.2083750" lon="-4.8300030">
        <ele>779.3</ele>
        <time>2019-08-14T12:11:22Z</time>
      </trkpt>
      <trkpt lat="41.2084210" lon="-4.8300510">
        <ele>778.6</ele>
        <time>2019-08-14T12:11:23Z</time>
      </trkpt>
      <trkpt lat="41.2084700" lon="-4.8301040">
        <ele>778.0</ele>
        <time>2019-08-14T12:11:24Z</time>
      </trkpt>
      <trkpt lat="41.2085250" lon="-4.8301640">
        <ele>777.3</ele>
        <time>2019-08-14T12:11:25Z</time>
      </trkpt>
      <trkpt lat="41.2085840" lon="-4.8302300">
        <ele>776.6</ele>
        <time>2019-08-14T12:11:26Z</time>
      </trkpt>
      <trkpt lat="41.2086450" lon="-4.8302990">
        <ele>775.8</ele>
        <time>2019-08-14T12:11:27Z</time>
      </trkpt>
      <trkpt lat="41.2087090" lon="-4.8303750">
        <ele>774.7</ele>
        <time>2019-08-14T12:11:28Z</time>
      </trkpt>
      <trkpt lat="41.2087740" lon="-4.8304580">
        <ele>774.0</ele>
        <time>2019-08-14T12:11:29Z</time>
      </trkpt>
      <trkpt lat="41.2088400" lon="-4.8305460">
        <ele>773.0</ele>
        <time>2019-08-14T12:11:30Z</time>
      </trkpt>
      <trkpt lat="41.2089040" lon="-4.8306330">
        <ele>772.3</ele>
        <time>2019-08-14T12:11:31Z</time>
      </trkpt>
      <trkpt lat="41.2089660" lon="-4.8307170">
        <ele>771.5</ele>
        <time>2019-08-14T12:11:32Z</time>
      </trkpt>
      <trkpt lat="41.2090260" lon="-4.8307960">
        <ele>771.1</ele>
        <time>2019-08-14T12:11:33Z</time>
      </trkpt>
      <trkpt lat="41.2090850" lon="-4.8308690">
        <ele>770.7</ele>
        <time>2019-08-14T12:11:34Z</time>
      </trkpt>
      <trkpt lat="41.2091450" lon="-4.8309310">
        <ele>770.1</ele>
        <time>2019-08-14T12:11:35Z</time>
      </trkpt>
      <trkpt lat="41.2092070" lon="-4.8309890">
        <ele>769.6</ele>
        <time>2019-08-14T12:11:36Z</time>
      </trkpt>
      <trkpt lat="41.2092690" lon="-4.8310460">
        <ele>769.4</ele>
        <time>2019-08-14T12:11:37Z</time>
      </trkpt>
      <trkpt lat="41.2093320" lon="-4.8311040">
        <ele>769.1</ele>
        <time>2019-08-14T12:11:38Z</time>
      </trkpt>
      <trkpt lat="41.2093930" lon="-4.8311620">
        <ele>768.7</ele>
        <time>2019-08-14T12:11:39Z</time>
      </trkpt>
      <trkpt lat="41.2094540" lon="-4.8312220">
        <ele>768.4</ele>
        <time>2019-08-14T12:11:40Z</time>
      </trkpt>
      <trkpt lat="41.2095130" lon="-4.8312820">
        <ele>768.1</ele>
        <time>2019-08-14T12:11:41Z</time>
      </trkpt>
      <trkpt lat="41.2095710" lon="-4.8313410">
        <ele>767.7</ele>
        <time>2019-08-14T12:11:42Z</time>
      </trkpt>
      <trkpt lat="41.2096270" lon="-4.8314020">
        <ele>767.4</ele>
        <time>2019-08-14T12:11:43Z</time>
      </trkpt>
      <trkpt lat="41.2096810" lon="-4.8314640">
        <ele>767.1</ele>
        <time>2019-08-14T12:11:44Z</time>
      </trkpt>
      <trkpt lat="41.2097350" lon="-4.8315230">
        <ele>766.7</ele>
        <time>2019-08-14T12:11:45Z</time>
      </trkpt>
      <trkpt lat="41.2097900" lon="-4.8315790">
        <ele>766.2</ele>
        <time>2019-08-14T12:11:46Z</time>
      </trkpt>
      <trkpt lat="41.2098460" lon="-4.8316330">
        <ele>765.6</ele>
        <time>2019-08-14T12:11:47Z</time>
      </trkpt>
      <trkpt lat="41.2099020" lon="-4.8316850">
        <ele>765.2</ele>
        <time>2019-08-14T12:11:48Z</time>
      </trkpt>
      <trkpt lat="41.2099590" lon="-4.8317370">
        <ele>764.8</ele>
        <time>2019-08-14T12:11:49Z</time>
      </trkpt>
      <trkpt lat="41.2100160" lon="-4.8317900">
        <ele>764.3</ele>
        <time>2019-08-14T12:11:50Z</time>
      </trkpt>
      <trkpt lat="41.2100740" lon="-4.8318480">
        <ele>763.9</ele>
        <time>2019-08-14T12:11:51Z</time>
      </trkpt>
      <trkpt lat="41.2101310" lon="-4.8319060">
        <ele>763.4</ele>
        <time>2019-08-14T12:11:52Z</time>
      </trkpt>
      <trkpt lat="41.2101900" lon="-4.8319650">
        <ele>762.9</ele>
        <time>2019-08-14T12:11:53Z</time>
      </trkpt>
      <trkpt lat="41.2102500" lon="-4.8320240">
        <ele>762.6</ele>
        <time>2019-08-14T12:11:54Z</time>
      </trkpt>
      <trkpt lat="41.2103100" lon="-4.8320850">
        <ele>762.4</ele>
        <time>2019-08-14T12:11:55Z</time>
      </trkpt>
      <trkpt lat="41.2103690" lon="-4.8321480">
        <ele>762.0</ele>
        <time>2019-08-14T12:11:56Z</time>
      </trkpt>
      <trkpt lat="41.2104290" lon="-4.8322100">
        <ele>761.8</ele>
        <time>2019-08-14T12:11:57Z</time>
      </trkpt>
      <trkpt lat="41.2104910" lon="-4.8322710">
        <ele>761.6</ele>
        <time>2019-08-14T12:11:58Z</time>
      </trkpt>
      <trkpt lat="41.2105500" lon="-4.8323310">
        <ele>761.4</ele>
        <time>2019-08-14T12:11:59Z</time>
      </trkpt>
      <trkpt lat="41.2106090" lon="-4.8323900">
        <ele>761.3</ele>
        <time>2019-08-14T12:12:00Z</time>
      </trkpt>
      <trkpt lat="41.2106670" lon="-4.8324490">
        <ele>761.2</ele>
        <time>2019-08-14T12:12:01Z</time>
      </trkpt>
      <trkpt lat="41.2107260" lon="-4.8325080">
        <ele>761.1</ele>
        <time>2019-08-14T12:12:02Z</time>
      </trkpt>
      <trkpt lat="41.2107860" lon="-4.8325660">
        <ele>761.0</ele>
        <time>2019-08-14T12:12:03Z</time>
      </trkpt>
      <trkpt lat="41.2108450" lon="-4.8326250">
        <ele>760.9</ele>
        <time>2019-08-14T12:12:04Z</time>
      </trkpt>
      <trkpt lat="41.2109020" lon="-4.8326830">
        <ele>760.8</ele>
        <time>2019-08-14T12:12:05Z</time>
      </trkpt>
      <trkpt lat="41.2109600" lon="-4.8327410">
        <ele>760.7</ele>
        <time>2019-08-14T12:12:06Z</time>
      </trkpt>
      <trkpt lat="41.2110180" lon="-4.8327980">
        <ele>760.6</ele>
        <time>2019-08-14T12:12:07Z</time>
      </trkpt>
      <trkpt lat="41.2110740" lon="-4.8328560">
        <ele>760.5</ele>
        <time>2019-08-14T12:12:08Z</time>
      </trkpt>
      <trkpt lat="41.2111310" lon="-4.8329110">
        <ele>760.3</ele>
        <time>2019-08-14T12:12:09Z</time>
      </trkpt>
      <trkpt lat="41.2111880" lon="-4.8329660">
        <ele>760.2</ele>
        <time>2019-08-14T12:12:10Z</time>
      </trkpt>
      <trkpt lat="41.2112430" lon="-4.8330210">
        <ele>760.0</ele>
        <time>2019-08-14T12:12:11Z</time>
      </trkpt>
      <trkpt lat="41.2112980" lon="-4.8330750">
        <ele>759.8</ele>
        <time>2019-08-14T12:12:12Z</time>
      </trkpt>
      <trkpt lat="41.2113510" lon="-4.8331290">
        <ele>759.6</ele>
        <time>2019-08-14T12:12:13Z</time>
      </trkpt>
      <trkpt lat="41.2114040" lon="-4.8331820">
        <ele>759.5</ele>
        <time>2019-08-14T12:12:14Z</time>
      </trkpt>
      <trkpt lat="41.2114540" lon="-4.8332330">
        <ele>759.4</ele>
        <time>2019-08-14T12:12:15Z</time>
      </trkpt>
      <trkpt lat="41.2115050" lon="-4.8332850">
        <ele>759.3</ele>
        <time>2019-08-14T12:12:16Z</time>
      </trkpt>
      <trkpt lat="41.2115570" lon="-4.8333340">
        <ele>759.1</ele>
        <time>2019-08-14T12:12:17Z</time>
      </trkpt>
      <trkpt lat="41.2116090" lon="-4.8333790">
        <ele>759.0</ele>
        <time>2019-08-14T12:12:18Z</time>
      </trkpt>
      <trkpt lat="41.2116590" lon="-4.8334250">
        <ele>758.9</ele>
        <time>2019-08-14T12:12:19Z</time>
      </trkpt>
      <trkpt lat="41.2117080" lon="-4.8334700">
        <ele>758.8</ele>
        <time>2019-08-14T12:12:20Z</time>
      </trkpt>
      <trkpt lat="41.2117550" lon="-4.8335170">
        <ele>758.7</ele>
        <time>2019-08-14T12:12:21Z</time>
      </trkpt>
      <trkpt lat="41.2118010" lon="-4.8335660">
        <ele>758.6</ele>
        <time>2019-08-14T12:12:22Z</time>
      </trkpt>
      <trkpt lat="41.2118470" lon="-4.8336140">
        <ele>758.6</ele>
        <time>2019-08-14T12:12:23Z</time>
      </trkpt>
      <trkpt lat="41.2118930" lon="-4.8336620">
        <ele>758.5</ele>
        <time>2019-08-14T12:12:24Z</time>
      </trkpt>
      <trkpt lat="41.2119390" lon="-4.8337090">
        <ele>758.4</ele>
        <time>2019-08-14T12:12:25Z</time>
      </trkpt>
      <trkpt lat="41.2119870" lon="-4.8337540">
        <ele>758.4</ele>
        <time>2019-08-14T12:12:26Z</time>
      </trkpt>
      <trkpt lat="41.2120330" lon="-4.8337970">
        <ele>758.3</ele>
        <time>2019-08-14T12:12:27Z</time>
      </trkpt>
      <trkpt lat="41.2120790" lon="-4.8338400">
        <ele>758.3</ele>
        <time>2019-08-14T12:12:28Z</time>
      </trkpt>
      <trkpt lat="41.2121220" lon="-4.8338850">
        <ele>758.3</ele>
        <time>2019-08-14T12:12:29Z</time>
      </trkpt>
      <trkpt lat="41.2121640" lon="-4.8339300">
        <ele>758.2</ele>
        <time>2019-08-14T12:12:30Z</time>
      </trkpt>
      <trkpt lat="41.2122060" lon="-4.8339720">
        <ele>758.2</ele>
        <time>2019-08-14T12:12:31Z</time>
      </trkpt>
      <trkpt lat="41.2122480" lon="-4.8340120">
        <ele>758.1</ele>
        <time>2019-08-14T12:12:32Z</time>
      </trkpt>
      <trkpt lat="41.2122880" lon="-4.8340510">
        <ele>758.0</ele>
        <time>2019-08-14T12:12:33Z</time>
      </trkpt>
      <trkpt lat="41.2123270" lon="-4.8340890">
        <ele>757.9</ele>
        <time>2019-08-14T12:12:34Z</time>
      </trkpt>
      <trkpt lat="41.2123620" lon="-4.8341270">
        <ele>757.9</ele>
        <time>2019-08-14T12:12:35Z</time>
      </trkpt>
      <trkpt lat="41.2123970" lon="-4.8341630">
        <ele>757.8</ele>
        <time>2019-08-14T12:12:36Z</time>
      </trkpt>
      <trkpt lat="41.2124310" lon="-4.8341990">
        <ele>757.7</ele>
        <time>2019-08-14T12:12:37Z</time>
      </trkpt>
      <trkpt lat="41.2124640" lon="-4.8342340">
        <ele>757.7</ele>
        <time>2019-08-14T12:12:38Z</time>
      </trkpt>
      <trkpt lat="41.2124970" lon="-4.8342710">
        <ele>757.6</ele>
        <time>2019-08-14T12:12:39Z</time>
      </trkpt>
      <trkpt lat="41.2125310" lon="-4.8343070">
        <ele>757.5</ele>
        <time>2019-08-14T12:12:40Z</time>
      </trkpt>
      <trkpt lat="41.2125660" lon="-4.8343430">
        <ele>757.4</ele>
        <time>2019-08-14T12:12:41Z</time>
      </trkpt>
      <trkpt lat="41.2126000" lon="-4.8343790">
        <ele>757.3</ele>
        <time>2019-08-14T12:12:42Z</time>
      </trkpt>
      <trkpt lat="41.2126360" lon="-4.8344170">
        <ele>757.3</ele>
        <time>2019-08-14T12:12:43Z</time>
      </trkpt>
      <trkpt lat="41.2126730" lon="-4.8344540">
        <ele>757.2</ele>
        <time>2019-08-14T12:12:44Z</time>
      </trkpt>
      <trkpt lat="41.2127120" lon="-4.8344900">
        <ele>757.2</ele>
        <time>2019-08-14T12:12:45Z</time>
      </trkpt>
      <trkpt lat="41.2127510" lon="-4.8345280">
        <ele>757.1</ele>
        <time>2019-08-14T12:12:46Z</time>
      </trkpt>
      <trkpt lat="41.2127900" lon="-4.8345650">
        <ele>757.1</ele>
        <time>2019-08-14T12:12:47Z</time>
      </trkpt>
      <trkpt lat="41.2128290" lon="-4.8346040">
        <ele>757.1</ele>
        <time>2019-08-14T12:12:48Z</time>
      </trkpt>
      <trkpt lat="41.2128680" lon="-4.8346430">
        <ele>757.1</ele>
        <time>2019-08-14T12:12:49Z</time>
      </trkpt>
      <trkpt lat="41.2129080" lon="-4.8346830">
        <ele>757.1</ele>
        <time>2019-08-14T12:12:50Z</time>
      </trkpt>
      <trkpt lat="41.2129470" lon="-4.8347210">
        <ele>757.1</ele>
        <time>2019-08-14T12:12:51Z</time>
      </trkpt>
      <trkpt lat="41.2129850" lon="-4.8347580">
        <ele>757.1</ele>
        <time>2019-08-14T12:12:52Z</time>
      </trkpt>
      <trkpt lat="41.2130220" lon="-4.8347950">
        <ele>757.1</ele>
        <time>2019-08-14T12:12:53Z</time>
      </trkpt>
      <trkpt lat="41.2130570" lon="-4.8348310">
        <ele>757.1</ele>
        <time>2019-08-14T12:12:54Z</time>
      </trkpt>
      <trkpt lat="41.2130920" lon="-4.8348680">
        <ele>757.1</ele>
        <time>2019-08-14T12:12:55Z</time>
      </trkpt>
      <trkpt lat="41.2131300" lon="-4.8349030">
        <ele>757.1</ele>
        <time>2019-08-14T12:12:56Z</time>
      </trkpt>
      <trkpt lat="41.2131670" lon="-4.8349390">
        <ele>757.1</ele>
        <time>2019-08-14T12:12:57Z</time>
      </trkpt>
      <trkpt lat="41.2132070" lon="-4.8349780">
        <ele>757.1</ele>
        <time>2019-08-14T12:12:58Z</time>
      </trkpt>
      <trkpt lat="41.2132480" lon="-4.8350190">
        <ele>757.1</ele>
        <time>2019-08-14T12:12:59Z</time>
      </trkpt>
      <trkpt lat="41.2132890" lon="-4.8350600">
        <ele>757.0</ele>
        <time>2019-08-14T12:13:00Z</time>
      </trkpt>
      <trkpt lat="41.2133270" lon="-4.8351010">
        <ele>757.0</ele>
        <time>2019-08-14T12:13:01Z</time>
      </trkpt>
      <trkpt lat="41.2133660" lon="-4.8351400">
        <ele>757.0</ele>
        <time>2019-08-14T12:13:02Z</time>
      </trkpt>
      <trkpt lat="41.2134060" lon="-4.8351780">
        <ele>756.9</ele>
        <time>2019-08-14T12:13:03Z</time>
      </trkpt>
      <trkpt lat="41.2134440" lon="-4.8352150">
        <ele>756.8</ele>
        <time>2019-08-14T12:13:04Z</time>
      </trkpt>
      <trkpt lat="41.2134820" lon="-4.8352510">
        <ele>756.7</ele>
        <time>2019-08-14T12:13:05Z</time>
      </trkpt>
      <trkpt lat="41.2135190" lon="-4.8352880">
        <ele>756.6</ele>
        <time>2019-08-14T12:13:06Z</time>
      </trkpt>
      <trkpt lat="41.2135540" lon="-4.8353240">
        <ele>756.6</ele>
        <time>2019-08-14T12:13:07Z</time>
      </trkpt>
      <trkpt lat="41.2135890" lon="-4.8353610">
        <ele>756.5</ele>
        <time>2019-08-14T12:13:08Z</time>
      </trkpt>
      <trkpt lat="41.2136250" lon="-4.8353960">
        <ele>756.4</ele>
        <time>2019-08-14T12:13:09Z</time>
      </trkpt>
      <trkpt lat="41.2136610" lon="-4.8354330">
        <ele>756.3</ele>
        <time>2019-08-14T12:13:10Z</time>
      </trkpt>
      <trkpt lat="41.2136980" lon="-4.8354680">
        <ele>756.2</ele>
        <time>2019-08-14T12:13:11Z</time>
      </trkpt>
      <trkpt lat="41.2137350" lon="-4.8355030">
        <ele>756.0</ele>
        <time>2019-08-14T12:13:12Z</time>
      </trkpt>
      <trkpt lat="41.2137730" lon="-4.8355370">
        <ele>755.9</ele>
        <time>2019-08-14T12:13:13Z</time>
      </trkpt>
      <trkpt lat="41.2138110" lon="-4.8355740">
        <ele>755.8</ele>
        <time>2019-08-14T12:13:14Z</time>
      </trkpt>
      <trkpt lat="41.2138530" lon="-4.8356120">
        <ele>755.7</ele>
        <time>2019-08-14T12:13:15Z</time>
      </trkpt>
      <trkpt lat="41.2138960" lon="-4.8356480">
        <ele>755.6</ele>
        <time>2019-08-14T12:13:16Z</time>
      </trkpt>
      <trkpt lat="41.2139410" lon="-4.8356860">
        <ele>755.5</ele>
        <time>2019-08-14T12:13:17Z</time>
      </trkpt>
      <trkpt lat="41.2139870" lon="-4.8357220">
        <ele>755.4</ele>
        <time>2019-08-14T12:13:18Z</time>
      </trkpt>
      <trkpt lat="41.2140330" lon="-4.8357550">
        <ele>755.3</ele>
        <time>2019-08-14T12:13:19Z</time>
      </trkpt>
      <trkpt lat="41.2140790" lon="-4.8357880">
        <ele>755.2</ele>
        <time>2019-08-14T12:13:20Z</time>
      </trkpt>
      <trkpt lat="41.2141240" lon="-4.8358210">
        <ele>755.1</ele>
        <time>2019-08-14T12:13:21Z</time>
      </trkpt>
      <trkpt lat="41.2141670" lon="-4.8358560">
        <ele>755.0</ele>
        <time>2019-08-14T12:13:22Z</time>
      </trkpt>
      <trkpt lat="41.2142080" lon="-4.8358930">
        <ele>754.9</ele>
        <time>2019-08-14T12:13:23Z</time>
      </trkpt>
      <trkpt lat="41.2142480" lon="-4.8359320">
        <ele>754.8</ele>
        <time>2019-08-14T12:13:24Z</time>
      </trkpt>
      <trkpt lat="41.2142900" lon="-4.8359730">
        <ele>754.7</ele>
        <time>2019-08-14T12:13:25Z</time>
      </trkpt>
      <trkpt lat="41.2143330" lon="-4.8360190">
        <ele>754.7</ele>
        <time>2019-08-14T12:13:26Z</time>
      </trkpt>
      <trkpt lat="41.2143790" lon="-4.8360670">
        <ele>754.5</ele>
        <time>2019-08-14T12:13:27Z</time>
      </trkpt>
      <trkpt lat="41.2144260" lon="-4.8361170">
        <ele>754.3</ele>
        <time>2019-08-14T12:13:28Z</time>
      </trkpt>
      <trkpt lat="41.2144750" lon="-4.8361690">
        <ele>754.2</ele>
        <time>2019-08-14T12:13:29Z</time>
      </trkpt>
      <trkpt lat="41.2145250" lon="-4.8362240">
        <ele>754.1</ele>
        <time>2019-08-14T12:13:30Z</time>
      </trkpt>
      <trkpt lat="41.2145760" lon="-4.8362770">
        <ele>754.0</ele>
        <time>2019-08-14T12:13:31Z</time>
      </trkpt>
      <trkpt lat="41.2146280" lon="-4.8363290">
        <ele>753.8</ele>
        <time>2019-08-14T12:13:32Z</time>
      </trkpt>
      <trkpt lat="41.2146800" lon="-4.8363790">
        <ele>753.7</ele>
        <time>2019-08-14T12:13:33Z</time>
      </trkpt>
      <trkpt lat="41.2147320" lon="-4.8364280">
        <ele>753.5</ele>
        <time>2019-08-14T12:13:34Z</time>
      </trkpt>
      <trkpt lat="41.2147830" lon="-4.8364740">
        <ele>753.4</ele>
        <time>2019-08-14T12:13:35Z</time>
      </trkpt>
      <trkpt lat="41.2148330" lon="-4.8365200">
        <ele>753.3</ele>
        <time>2019-08-14T12:13:36Z</time>
      </trkpt>
      <trkpt lat="41.2148810" lon="-4.8365670">
        <ele>753.2</ele>
        <time>2019-08-14T12:13:37Z</time>
      </trkpt>
      <trkpt lat="41.2149280" lon="-4.8366130">
        <ele>753.1</ele>
        <time>2019-08-14T12:13:38Z</time>
      </trkpt>
      <trkpt lat="41.2149720" lon="-4.8366590">
        <ele>753.0</ele>
        <time>2019-08-14T12:13:39Z</time>
      </trkpt>
      <trkpt lat="41.2150170" lon="-4.8367050">
        <ele>752.9</ele>
        <time>2019-08-14T12:13:40Z</time>
      </trkpt>
      <trkpt lat="41.2150620" lon="-4.8367520">
        <ele>752.8</ele>
        <time>2019-08-14T12:13:41Z</time>
      </trkpt>
      <trkpt lat="41.2151090" lon="-4.8367990">
        <ele>752.7</ele>
        <time>2019-08-14T12:13:42Z</time>
      </trkpt>
      <trkpt lat="41.2151550" lon="-4.8368450">
        <ele>752.6</ele>
        <time>2019-08-14T12:13:43Z</time>
      </trkpt>
      <trkpt lat="41.2152010" lon="-4.8368910">
        <ele>752.6</ele>
        <time>2019-08-14T12:13:44Z</time>
      </trkpt>
      <trkpt lat="41.2152460" lon="-4.8369350">
        <ele>752.5</ele>
        <time>2019-08-14T12:13:45Z</time>
      </trkpt>
      <trkpt lat="41.2152890" lon="-4.8369790">
        <ele>752.4</ele>
        <time>2019-08-14T12:13:46Z</time>
      </trkpt>
      <trkpt lat="41.2153320" lon="-4.8370230">
        <ele>752.4</ele>
        <time>2019-08-14T12:13:47Z</time>
      </trkpt>
      <trkpt lat="41.2153780" lon="-4.8370660">
        <ele>752.4</ele>
        <time>2019-08-14T12:13:48Z</time>
      </trkpt>
      <trkpt lat="41.2154250" lon="-4.8371110">
        <ele>752.3</ele>
        <time>2019-08-14T12:13:49Z</time>
      </trkpt>
      <trkpt lat="41.2154720" lon="-4.8371570">
        <ele>752.3</ele>
        <time>2019-08-14T12:13:50Z</time>
      </trkpt>
      <trkpt lat="41.2155190" lon="-4.8372020">
        <ele>752.3</ele>
        <time>2019-08-14T12:13:51Z</time>
      </trkpt>
      <trkpt lat="41.2155660" lon="-4.8372470">
        <ele>752.3</ele>
        <time>2019-08-14T12:13:52Z</time>
      </trkpt>
      <trkpt lat="41.2156100" lon="-4.8372940">
        <ele>752.3</ele>
        <time>2019-08-14T12:13:53Z</time>
      </trkpt>
      <trkpt lat="41.2156530" lon="-4.8373400">
        <ele>752.3</ele>
        <time>2019-08-14T12:13:54Z</time>
      </trkpt>
      <trkpt lat="41.2156960" lon="-4.8373840">
        <ele>752.3</ele>
        <time>2019-08-14T12:13:55Z</time>
      </trkpt>
      <trkpt lat="41.2157400" lon="-4.8374280">
        <ele>752.3</ele>
        <time>2019-08-14T12:13:56Z</time>
      </trkpt>
      <trkpt lat="41.2157830" lon="-4.8374730">
        <ele>752.3</ele>
        <time>2019-08-14T12:13:57Z</time>
      </trkpt>
      <trkpt lat="41.2158260" lon="-4.8375170">
        <ele>752.3</ele>
        <time>2019-08-14T12:13:58Z</time>
      </trkpt>
      <trkpt lat="41.2158700" lon="-4.8375610">
        <ele>752.3</ele>
        <time>2019-08-14T12:13:59Z</time>
      </trkpt>
      <trkpt lat="41.2159130" lon="-4.8376050">
        <ele>752.3</ele>
        <time>2019-08-14T12:14:00Z</time>
      </trkpt>
      <trkpt lat="41.2159560" lon="-4.8376500">
        <ele>752.4</ele>
        <time>2019-08-14T12:14:01Z</time>
      </trkpt>
      <trkpt lat="41.2160000" lon="-4.8376940">
        <ele>752.4</ele>
        <time>2019-08-14T12:14:02Z</time>
      </trkpt>
      <trkpt lat="41.2160440" lon="-4.8377380">
        <ele>752.4</ele>
        <time>2019-08-14T12:14:03Z</time>
      </trkpt>
      <trkpt lat="41.2160880" lon="-4.8377810">
        <ele>752.5</ele>
        <time>2019-08-14T12:14:04Z</time>
      </trkpt>
      <trkpt lat="41.2161330" lon="-4.8378250">
        <ele>752.5</ele>
        <time>2019-08-14T12:14:05Z</time>
      </trkpt>
      <trkpt lat="41.2161790" lon="-4.8378690">
        <ele>752.6</ele>
        <time>2019-08-14T12:14:06Z</time>
      </trkpt>
      <trkpt lat="41.2162260" lon="-4.8379160">
        <ele>752.7</ele>
        <time>2019-08-14T12:14:07Z</time>
      </trkpt>
      <trkpt lat="41.2162720" lon="-4.8379610">
        <ele>752.8</ele>
        <time>2019-08-14T12:14:08Z</time>
      </trkpt>
      <trkpt lat="41.2163160" lon="-4.8380060">
        <ele>752.8</ele>
        <time>2019-08-14T12:14:09Z</time>
      </trkpt>
      <trkpt lat="41.2163570" lon="-4.8380500">
        <ele>752.9</ele>
        <time>2019-08-14T12:14:10Z</time>
      </trkpt>
      <trkpt lat="41.2164020" lon="-4.8380940">
        <ele>752.9</ele>
        <time>2019-08-14T12:14:11Z</time>
      </trkpt>
      <trkpt lat="41.2164460" lon="-4.8381390">
        <ele>753.0</ele>
        <time>2019-08-14T12:14:12Z</time>
      </trkpt>
      <trkpt lat="41.2164930" lon="-4.8381850">
        <ele>753.0</ele>
        <time>2019-08-14T12:14:13Z</time>
      </trkpt>
      <trkpt lat="41.2165400" lon="-4.8382310">
        <ele>753.1</ele>
        <time>2019-08-14T12:14:14Z</time>
      </trkpt>
      <trkpt lat="41.2165860" lon="-4.8382780">
        <ele>753.1</ele>
        <time>2019-08-14T12:14:15Z</time>
      </trkpt>
      <trkpt lat="41.2166340" lon="-4.8383250">
        <ele>753.2</ele>
        <time>2019-08-14T12:14:16Z</time>
      </trkpt>
      <trkpt lat="41.2166800" lon="-4.8383710">
        <ele>753.2</ele>
        <time>2019-08-14T12:14:17Z</time>
      </trkpt>
      <trkpt lat="41.2167250" lon="-4.8384170">
        <ele>753.2</ele>
        <time>2019-08-14T12:14:18Z</time>
      </trkpt>
      <trkpt lat="41.2167690" lon="-4.8384620">
        <ele>753.2</ele>
        <time>2019-08-14T12:14:19Z</time>
      </trkpt>
      <trkpt lat="41.2168130" lon="-4.8385060">
        <ele>753.2</ele>
        <time>2019-08-14T12:14:20Z</time>
      </trkpt>
      <trkpt lat="41.2168560" lon="-4.8385490">
        <ele>753.3</ele>
        <time>2019-08-14T12:14:21Z</time>
      </trkpt>
      <trkpt lat="41.2168990" lon="-4.8385890">
        <ele>753.3</ele>
        <time>2019-08-14T12:14:22Z</time>
      </trkpt>
      <trkpt lat="41.2169390" lon="-4.8386300">
        <ele>753.3</ele>
        <time>2019-08-14T12:14:23Z</time>
      </trkpt>
      <trkpt lat="41.2169800" lon="-4.8386720">
        <ele>753.3</ele>
        <time>2019-08-14T12:14:24Z</time>
      </trkpt>
      <trkpt lat="41.2170220" lon="-4.8387190">
        <ele>753.3</ele>
        <time>2019-08-14T12:14:25Z</time>
      </trkpt>
      <trkpt lat="41.2170660" lon="-4.8387650">
        <ele>753.3</ele>
        <time>2019-08-14T12:14:26Z</time>
      </trkpt>
      <trkpt lat="41.2171140" lon="-4.8388120">
        <ele>753.2</ele>
        <time>2019-08-14T12:14:27Z</time>
      </trkpt>
      <trkpt lat="41.2171630" lon="-4.8388600">
        <ele>753.2</ele>
        <time>2019-08-14T12:14:28Z</time>
      </trkpt>
      <trkpt lat="41.2172140" lon="-4.8389100">
        <ele>753.2</ele>
        <time>2019-08-14T12:14:29Z</time>
      </trkpt>
      <trkpt lat="41.2172650" lon="-4.8389610">
        <ele>753.1</ele>
        <time>2019-08-14T12:14:30Z</time>
      </trkpt>
      <trkpt lat="41.2173170" lon="-4.8390110">
        <ele>753.1</ele>
        <time>2019-08-14T12:14:31Z</time>
      </trkpt>
      <trkpt lat="41.2173690" lon="-4.8390630">
        <ele>753.0</ele>
        <time>2019-08-14T12:14:32Z</time>
      </trkpt>
      <trkpt lat="41.2174210" lon="-4.8391160">
        <ele>752.9</ele>
        <time>2019-08-14T12:14:33Z</time>
      </trkpt>
      <trkpt lat="41.2174710" lon="-4.8391660">
        <ele>752.8</ele>
        <time>2019-08-14T12:14:34Z</time>
      </trkpt>
      <trkpt lat="41.2175220" lon="-4.8392140">
        <ele>752.7</ele>
        <time>2019-08-14T12:14:35Z</time>
      </trkpt>
      <trkpt lat="41.2175700" lon="-4.8392610">
        <ele>752.6</ele>
        <time>2019-08-14T12:14:36Z</time>
      </trkpt>
      <trkpt lat="41.2176170" lon="-4.8393080">
        <ele>752.4</ele>
        <time>2019-08-14T12:14:37Z</time>
      </trkpt>
      <trkpt lat="41.2176650" lon="-4.8393560">
        <ele>752.3</ele>
        <time>2019-08-14T12:14:38Z</time>
      </trkpt>
      <trkpt lat="41.2177110" lon="-4.8394050">
        <ele>752.2</ele>
        <time>2019-08-14T12:14:39Z</time>
      </trkpt>
      <trkpt lat="41.2177570" lon="-4.8394520">
        <ele>752.1</ele>
        <time>2019-08-14T12:14:40Z</time>
      </trkpt>
      <trkpt lat="41.2178040" lon="-4.8394990">
        <ele>752.0</ele>
        <time>2019-08-14T12:14:41Z</time>
      </trkpt>
      <trkpt lat="41.2178520" lon="-4.8395450">
        <ele>751.9</ele>
        <time>2019-08-14T12:14:42Z</time>
      </trkpt>
      <trkpt lat="41.2178990" lon="-4.8395910">
        <ele>751.8</ele>
        <time>2019-08-14T12:14:43Z</time>
      </trkpt>
      <trkpt lat="41.2179450" lon="-4.8396370">
        <ele>751.7</ele>
        <time>2019-08-14T12:14:44Z</time>
      </trkpt>
      <trkpt lat="41.2179900" lon="-4.8396840">
        <ele>751.6</ele>
        <time>2019-08-14T12:14:45Z</time>
      </trkpt>
      <trkpt lat="41.2180360" lon="-4.8397300">
        <ele>751.5</ele>
        <time>2019-08-14T12:14:46Z</time>
      </trkpt>
      <trkpt lat="41.2180810" lon="-4.8397770">
        <ele>751.5</ele>
        <time>2019-08-14T12:14:47Z</time>
      </trkpt>
      <trkpt lat="41.2181250" lon="-4.8398230">
        <ele>751.4</ele>
        <time>2019-08-14T12:14:48Z</time>
      </trkpt>
      <trkpt lat="41.2181690" lon="-4.8398690">
        <ele>751.4</ele>
        <time>2019-08-14T12:14:49Z</time>
      </trkpt>
      <trkpt lat="41.2182140" lon="-4.8399140">
        <ele>751.3</ele>
        <time>2019-08-14T12:14:50Z</time>
      </trkpt>
      <trkpt lat="41.2182580" lon="-4.8399590">
        <ele>751.3</ele>
        <time>2019-08-14T12:14:51Z</time>
      </trkpt>
      <trkpt lat="41.2183040" lon="-4.8400060">
        <ele>751.3</ele>
        <time>2019-08-14T12:14:52Z</time>
      </trkpt>
      <trkpt lat="41.2183490" lon="-4.8400530">
        <ele>751.3</ele>
        <time>2019-08-14T12:14:53Z</time>
      </trkpt>
      <trkpt lat="41.2183950" lon="-4.8400990">
        <ele>751.2</ele>
        <time>2019-08-14T12:14:54Z</time>
      </trkpt>
      <trkpt lat="41.2184420" lon="-4.8401450">
        <ele>751.2</ele>
        <time>2019-08-14T12:14:55Z</time>
      </trkpt>
      <trkpt lat="41.2184890" lon="-4.8401940">
        <ele>751.2</ele>
        <time>2019-08-14T12:14:56Z</time>
      </trkpt>
      <trkpt lat="41.2185350" lon="-4.8402410">
        <ele>751.2</ele>
        <time>2019-08-14T12:14:57Z</time>
      </trkpt>
      <trkpt lat="41.2185810" lon="-4.8402870">
        <ele>751.2</ele>
        <time>2019-08-14T12:14:58Z</time>
      </trkpt>
      <trkpt lat="41.2186260" lon="-4.8403310">
        <ele>751.3</ele>
        <time>2019-08-14T12:14:59Z</time>
      </trkpt>
      <trkpt lat="41.2186700" lon="-4.8403740">
        <ele>751.3</ele>
        <time>2019-08-14T12:15:00Z</time>
      </trkpt>
      <trkpt lat="41.2187150" lon="-4.8404170">
        <ele>751.2</ele>
        <time>2019-08-14T12:15:01Z</time>
      </trkpt>
      <trkpt lat="41.2187600" lon="-4.8404620">
        <ele>751.2</ele>
        <time>2019-08-14T12:15:02Z</time>
      </trkpt>
      <trkpt lat="41.2188060" lon="-4.8405080">
        <ele>751.2</ele>
        <time>2019-08-14T12:15:03Z</time>
      </trkpt>
      <trkpt lat="41.2188520" lon="-4.8405560">
        <ele>751.2</ele>
        <time>2019-08-14T12:15:04Z</time>
      </trkpt>
      <trkpt lat="41.2188980" lon="-4.8406030">
        <ele>751.2</ele>
        <time>2019-08-14T12:15:05Z</time>
      </trkpt>
      <trkpt lat="41.2189430" lon="-4.8406490">
        <ele>751.1</ele>
        <time>2019-08-14T12:15:06Z</time>
      </trkpt>
      <trkpt lat="41.2189890" lon="-4.8406950">
        <ele>751.0</ele>
        <time>2019-08-14T12:15:07Z</time>
      </trkpt>
      <trkpt lat="41.2190360" lon="-4.8407380">
        <ele>750.9</ele>
        <time>2019-08-14T12:15:08Z</time>
      </trkpt>
      <trkpt lat="41.2190820" lon="-4.8407830">
        <ele>750.8</ele>
        <time>2019-08-14T12:15:09Z</time>
      </trkpt>
      <trkpt lat="41.2191290" lon="-4.8408280">
        <ele>750.7</ele>
        <time>2019-08-14T12:15:10Z</time>
      </trkpt>
      <trkpt lat="41.2191740" lon="-4.8408740">
        <ele>750.6</ele>
        <time>2019-08-14T12:15:11Z</time>
      </trkpt>
      <trkpt lat="41.2192200" lon="-4.8409200">
        <ele>750.4</ele>
        <time>2019-08-14T12:15:12Z</time>
      </trkpt>
      <trkpt lat="41.2192650" lon="-4.8409640">
        <ele>750.3</ele>
        <time>2019-08-14T12:15:13Z</time>
      </trkpt>
      <trkpt lat="41.2193100" lon="-4.8410110">
        <ele>750.1</ele>
        <time>2019-08-14T12:15:14Z</time>
      </trkpt>
      <trkpt lat="41.2193540" lon="-4.8410590">
        <ele>749.9</ele>
        <time>2019-08-14T12:15:15Z</time>
      </trkpt>
      <trkpt lat="41.2194020" lon="-4.8411060">
        <ele>749.7</ele>
        <time>2019-08-14T12:15:16Z</time>
      </trkpt>
      <trkpt lat="41.2194490" lon="-4.8411530">
        <ele>749.5</ele>
        <time>2019-08-14T12:15:17Z</time>
      </trkpt>
      <trkpt lat="41.2194960" lon="-4.8412010">
        <ele>749.4</ele>
        <time>2019-08-14T12:15:18Z</time>
      </trkpt>
      <trkpt lat="41.2195430" lon="-4.8412500">
        <ele>749.2</ele>
        <time>2019-08-14T12:15:19Z</time>
      </trkpt>
      <trkpt lat="41.2195910" lon="-4.8413010">
        <ele>749.1</ele>
        <time>2019-08-14T12:15:20Z</time>
      </trkpt>
      <trkpt lat="41.2196390" lon="-4.8413530">
        <ele>749.0</ele>
        <time>2019-08-14T12:15:21Z</time>
      </trkpt>
      <trkpt lat="41.2196870" lon="-4.8414030">
        <ele>748.9</ele>
        <time>2019-08-14T12:15:22Z</time>
      </trkpt>
      <trkpt lat="41.2197350" lon="-4.8414540">
        <ele>748.8</ele>
        <time>2019-08-14T12:15:23Z</time>
      </trkpt>
      <trkpt lat="41.2197820" lon="-4.8415050">
        <ele>748.7</ele>
        <time>2019-08-14T12:15:24Z</time>
      </trkpt>
      <trkpt lat="41.2198280" lon="-4.8415550">
        <ele>748.7</ele>
        <time>2019-08-14T12:15:25Z</time>
      </trkpt>
      <trkpt lat="41.2198730" lon="-4.8416040">
        <ele>748.7</ele>
        <time>2019-08-14T12:15:26Z</time>
      </trkpt>
      <trkpt lat="41.2199170" lon="-4.8416510">
        <ele>748.6</ele>
        <time>2019-08-14T12:15:27Z</time>
      </trkpt>
      <trkpt lat="41.2199630" lon="-4.8416950">
        <ele>748.7</ele>
        <time>2019-08-14T12:15:28Z</time>
      </trkpt>
      <trkpt lat="41.2200100" lon="-4.8417400">
        <ele>748.7</ele>
        <time>2019-08-14T12:15:29Z</time>
      </trkpt>
      <trkpt lat="41.2200600" lon="-4.8417860">
        <ele>748.7</ele>
        <time>2019-08-14T12:15:30Z</time>
      </trkpt>
      <trkpt lat="41.2201090" lon="-4.8418320">
        <ele>748.7</ele>
        <time>2019-08-14T12:15:31Z</time>
      </trkpt>
      <trkpt lat="41.2201580" lon="-4.8418780">
        <ele>748.8</ele>
        <time>2019-08-14T12:15:32Z</time>
      </trkpt>
      <trkpt lat="41.2202070" lon="-4.8419240">
        <ele>748.8</ele>
        <time>2019-08-14T12:15:33Z</time>
      </trkpt>
      <trkpt lat="41.2202580" lon="-4.8419690">
        <ele>748.9</ele>
        <time>2019-08-14T12:15:34Z</time>
      </trkpt>
      <trkpt lat="41.2203100" lon="-4.8420130">
        <ele>749.0</ele>
        <time>2019-08-14T12:15:35Z</time>
      </trkpt>
      <trkpt lat="41.2203640" lon="-4.8420550">
        <ele>749.0</ele>
        <time>2019-08-14T12:15:36Z</time>
      </trkpt>
      <trkpt lat="41.2204190" lon="-4.8420970">
        <ele>749.2</ele>
        <time>2019-08-14T12:15:37Z</time>
      </trkpt>
      <trkpt lat="41.2204730" lon="-4.8421400">
        <ele>749.2</ele>
        <time>2019-08-14T12:15:38Z</time>
      </trkpt>
      <trkpt lat="41.2205260" lon="-4.8421810">
        <ele>749.3</ele>
        <time>2019-08-14T12:15:39Z</time>
      </trkpt>
      <trkpt lat="41.2205780" lon="-4.8422230">
        <ele>749.5</ele>
        <time>2019-08-14T12:15:40Z</time>
      </trkpt>
      <trkpt lat="41.2206290" lon="-4.8422640">
        <ele>749.5</ele>
        <time>2019-08-14T12:15:41Z</time>
      </trkpt>
      <trkpt lat="41.2206790" lon="-4.8423060">
        <ele>749.7</ele>
        <time>2019-08-14T12:15:42Z</time>
      </trkpt>
      <trkpt lat="41.2207280" lon="-4.8423500">
        <ele>749.8</ele>
        <time>2019-08-14T12:15:43Z</time>
      </trkpt>
      <trkpt lat="41.2207770" lon="-4.8423930">
        <ele>749.9</ele>
        <time>2019-08-14T12:15:44Z</time>
      </trkpt>
      <trkpt lat="41.2208270" lon="-4.8424350">
        <ele>750.0</ele>
        <time>2019-08-14T12:15:45Z</time>
      </trkpt>
      <trkpt lat="41.2208790" lon="-4.8424730">
        <ele>750.1</ele>
        <time>2019-08-14T12:15:46Z</time>
      </trkpt>
      <trkpt lat="41.2209320" lon="-4.8425090">
        <ele>750.2</ele>
        <time>2019-08-14T12:15:47Z</time>
      </trkpt>
      <trkpt lat="41.2209860" lon="-4.8425420">
        <ele>750.2</ele>
        <time>2019-08-14T12:15:48Z</time>
      </trkpt>
      <trkpt lat="41.2210390" lon="-4.8425700">
        <ele>750.2</ele>
        <time>2019-08-14T12:15:49Z</time>
      </trkpt>
      <trkpt lat="41.2210900" lon="-4.8425920">
        <ele>750.2</ele>
        <time>2019-08-14T12:15:50Z</time>
      </trkpt>
      <trkpt lat="41.2211400" lon="-4.8426090">
        <ele>750.2</ele>
        <time>2019-08-14T12:15:51Z</time>
      </trkpt>
      <trkpt lat="41.2211920" lon="-4.8426240">
        <ele>750.3</ele>
        <time>2019-08-14T12:15:52Z</time>
      </trkpt>
      <trkpt lat="41.2212440" lon="-4.8426420">
        <ele>750.3</ele>
        <time>2019-08-14T12:15:53Z</time>
      </trkpt>
      <trkpt lat="41.2212970" lon="-4.8426620">
        <ele>750.4</ele>
        <time>2019-08-14T12:15:54Z</time>
      </trkpt>
      <trkpt lat="41.2213490" lon="-4.8426820">
        <ele>750.4</ele>
        <time>2019-08-14T12:15:55Z</time>
      </trkpt>
      <trkpt lat="41.2214030" lon="-4.8427000">
        <ele>750.5</ele>
        <time>2019-08-14T12:15:56Z</time>
      </trkpt>
      <trkpt lat="41.2214560" lon="-4.8427180">
        <ele>750.6</ele>
        <time>2019-08-14T12:15:57Z</time>
      </trkpt>
      <trkpt lat="41.2215090" lon="-4.8427350">
        <ele>750.6</ele>
        <time>2019-08-14T12:15:58Z</time>
      </trkpt>
      <trkpt lat="41.2215590" lon="-4.8427490">
        <ele>750.6</ele>
        <time>2019-08-14T12:15:59Z</time>
      </trkpt>
      <trkpt lat="41.2216080" lon="-4.8427520">
        <ele>750.6</ele>
        <time>2019-08-14T12:16:00Z</time>
      </trkpt>
      <trkpt lat="41.2216580" lon="-4.8427490">
        <ele>750.7</ele>
        <time>2019-08-14T12:16:01Z</time>
      </trkpt>
      <trkpt lat="41.2217050" lon="-4.8427560">
        <ele>750.7</ele>
        <time>2019-08-14T12:16:02Z</time>
      </trkpt>
      <trkpt lat="41.2217480" lon="-4.8427740">
        <ele>750.8</ele>
        <time>2019-08-14T12:16:03Z</time>
      </trkpt>
      <trkpt lat="41.2217840" lon="-4.8428000">
        <ele>750.8</ele>
        <time>2019-08-14T12:16:04Z</time>
      </trkpt>
      <trkpt lat="41.2218130" lon="-4.8428250">
        <ele>750.8</ele>
        <time>2019-08-14T12:16:05Z</time>
      </trkpt>
      <trkpt lat="41.2218390" lon="-4.8428440">
        <ele>750.7</ele>
        <time>2019-08-14T12:16:06Z</time>
      </trkpt>
      <trkpt lat="41.2218650" lon="-4.8428600">
        <ele>750.7</ele>
        <time>2019-08-14T12:16:07Z</time>
      </trkpt>
      <trkpt lat="41.2219150" lon="-4.8428840">
        <ele>750.7</ele>
        <time>2019-08-14T12:16:09Z</time>
      </trkpt>
      <trkpt lat="41.2219440" lon="-4.8428940">
        <ele>750.7</ele>
        <time>2019-08-14T12:16:10Z</time>
      </trkpt>
      <trkpt lat="41.2219760" lon="-4.8429040">
        <ele>750.6</ele>
        <time>2019-08-14T12:16:11Z</time>
      </trkpt>
      <trkpt lat="41.2220090" lon="-4.8429160">
        <ele>750.5</ele>
        <time>2019-08-14T12:16:12Z</time>
      </trkpt>
      <trkpt lat="41.2220440" lon="-4.8429280">
        <ele>750.5</ele>
        <time>2019-08-14T12:16:13Z</time>
      </trkpt>
      <trkpt lat="41.2220800" lon="-4.8429420">
        <ele>750.5</ele>
        <time>2019-08-14T12:16:14Z</time>
      </trkpt>
      <trkpt lat="41.2221160" lon="-4.8429590">
        <ele>750.4</ele>
        <time>2019-08-14T12:16:15Z</time>
      </trkpt>
      <trkpt lat="41.2221530" lon="-4.8429750">
        <ele>750.4</ele>
        <time>2019-08-14T12:16:16Z</time>
      </trkpt>
      <trkpt lat="41.2221930" lon="-4.8429860">
        <ele>750.4</ele>
        <time>2019-08-14T12:16:17Z</time>
      </trkpt>
      <trkpt lat="41.2222330" lon="-4.8429900">
        <ele>750.3</ele>
        <time>2019-08-14T12:16:18Z</time>
      </trkpt>
      <trkpt lat="41.2222740" lon="-4.8429860">
        <ele>750.3</ele>
        <time>2019-08-14T12:16:19Z</time>
      </trkpt>
      <trkpt lat="41.2223140" lon="-4.8429730">
        <ele>750.2</ele>
        <time>2019-08-14T12:16:20Z</time>
      </trkpt>
      <trkpt lat="41.2223530" lon="-4.8429520">
        <ele>750.2</ele>
        <time>2019-08-14T12:16:21Z</time>
      </trkpt>
      <trkpt lat="41.2223900" lon="-4.8429240">
        <ele>750.2</ele>
        <time>2019-08-14T12:16:22Z</time>
      </trkpt>
      <trkpt lat="41.2224240" lon="-4.8428920">
        <ele>750.2</ele>
        <time>2019-08-14T12:16:23Z</time>
      </trkpt>
      <trkpt lat="41.2224560" lon="-4.8428570">
        <ele>750.2</ele>
        <time>2019-08-14T12:16:24Z</time>
      </trkpt>
      <trkpt lat="41.2224860" lon="-4.8428200">
        <ele>750.1</ele>
        <time>2019-08-14T12:16:25Z</time>
      </trkpt>
      <trkpt lat="41.2225170" lon="-4.8427800">
        <ele>750.1</ele>
        <time>2019-08-14T12:16:26Z</time>
      </trkpt>
      <trkpt lat="41.2225460" lon="-4.8427400">
        <ele>750.1</ele>
        <time>2019-08-14T12:16:27Z</time>
      </trkpt>
      <trkpt lat="41.2225770" lon="-4.8426970">
        <ele>750.0</ele>
        <time>2019-08-14T12:16:28Z</time>
      </trkpt>
      <trkpt lat="41.2226080" lon="-4.8426550">
        <ele>750.0</ele>
        <time>2019-08-14T12:16:29Z</time>
      </trkpt>
      <trkpt lat="41.2226370" lon="-4.8426110">
        <ele>750.0</ele>
        <time>2019-08-14T12:16:30Z</time>
      </trkpt>
      <trkpt lat="41.2226660" lon="-4.8425680">
        <ele>749.9</ele>
        <time>2019-08-14T12:16:31Z</time>
      </trkpt>
      <trkpt lat="41.2226940" lon="-4.8425280">
        <ele>749.9</ele>
        <time>2019-08-14T12:16:32Z</time>
      </trkpt>
      <trkpt lat="41.2227200" lon="-4.8424910">
        <ele>749.9</ele>
        <time>2019-08-14T12:16:33Z</time>
      </trkpt>
      <trkpt lat="41.2227460" lon="-4.8424570">
        <ele>749.9</ele>
        <time>2019-08-14T12:16:34Z</time>
      </trkpt>
      <trkpt lat="41.2227720" lon="-4.8424210">
        <ele>749.9</ele>
        <time>2019-08-14T12:16:35Z</time>
      </trkpt>
      <trkpt lat="41.2228000" lon="-4.8423840">
        <ele>750.0</ele>
        <time>2019-08-14T12:16:36Z</time>
      </trkpt>
      <trkpt lat="41.2228310" lon="-4.8423510">
        <ele>750.1</ele>
        <time>2019-08-14T12:16:37Z</time>
      </trkpt>
      <trkpt lat="41.2228640" lon="-4.8423210">
        <ele>750.1</ele>
        <time>2019-08-14T12:16:38Z</time>
      </trkpt>
      <trkpt lat="41.2228980" lon="-4.8422930">
        <ele>750.2</ele>
        <time>2019-08-14T12:16:39Z</time>
      </trkpt>
      <trkpt lat="41.2229340" lon="-4.8422650">
        <ele>750.2</ele>
        <time>2019-08-14T12:16:40Z</time>
      </trkpt>
      <trkpt lat="41.2229700" lon="-4.8422410">
        <ele>750.3</ele>
        <time>2019-08-14T12:16:41Z</time>
      </trkpt>
      <trkpt lat="41.2230080" lon="-4.8422210">
        <ele>750.5</ele>
        <time>2019-08-14T12:16:42Z</time>
      </trkpt>
      <trkpt lat="41.2230440" lon="-4.8422070">
        <ele>750.5</ele>
        <time>2019-08-14T12:16:43Z</time>
      </trkpt>
      <trkpt lat="41.2230770" lon="-4.8422050">
        <ele>750.1</ele>
        <time>2019-08-14T12:16:44Z</time>
      </trkpt>
      <trkpt lat="41.2231060" lon="-4.8422190">
        <ele>749.9</ele>
        <time>2019-08-14T12:16:45Z</time>
      </trkpt>
      <trkpt lat="41.2231250" lon="-4.8422500">
        <ele>749.8</ele>
        <time>2019-08-14T12:16:46Z</time>
      </trkpt>
      <trkpt lat="41.2231310" lon="-4.8422860">
        <ele>749.8</ele>
        <time>2019-08-14T12:16:47Z</time>
      </trkpt>
      <trkpt lat="41.2231070" lon="-4.8423540">
        <ele>749.7</ele>
        <time>2019-08-14T12:16:49Z</time>
      </trkpt>
      <trkpt lat="41.2230860" lon="-4.8423890">
        <ele>749.6</ele>
        <time>2019-08-14T12:16:50Z</time>
      </trkpt>
      <trkpt lat="41.2230620" lon="-4.8424250">
        <ele>749.6</ele>
        <time>2019-08-14T12:16:51Z</time>
      </trkpt>
      <trkpt lat="41.2230370" lon="-4.8424640">
        <ele>749.5</ele>
        <time>2019-08-14T12:16:52Z</time>
      </trkpt>
      <trkpt lat="41.2230120" lon="-4.8425070">
        <ele>749.5</ele>
        <time>2019-08-14T12:16:53Z</time>
      </trkpt>
      <trkpt lat="41.2229850" lon="-4.8425530">
        <ele>749.5</ele>
        <time>2019-08-14T12:16:54Z</time>
      </trkpt>
      <trkpt lat="41.2229580" lon="-4.8426020">
        <ele>749.4</ele>
        <time>2019-08-14T12:16:55Z</time>
      </trkpt>
      <trkpt lat="41.2229320" lon="-4.8426550">
        <ele>749.4</ele>
        <time>2019-08-14T12:16:56Z</time>
      </trkpt>
      <trkpt lat="41.2229050" lon="-4.8427100">
        <ele>749.4</ele>
        <time>2019-08-14T12:16:57Z</time>
      </trkpt>
      <trkpt lat="41.2228790" lon="-4.8427660">
        <ele>749.3</ele>
        <time>2019-08-14T12:16:58Z</time>
      </trkpt>
      <trkpt lat="41.2228510" lon="-4.8428240">
        <ele>749.3</ele>
        <time>2019-08-14T12:16:59Z</time>
      </trkpt>
      <trkpt lat="41.2228220" lon="-4.8428810">
        <ele>749.2</ele>
        <time>2019-08-14T12:17:00Z</time>
      </trkpt>
      <trkpt lat="41.2227960" lon="-4.8429400">
        <ele>749.2</ele>
        <time>2019-08-14T12:17:01Z</time>
      </trkpt>
      <trkpt lat="41.2227730" lon="-4.8430010">
        <ele>749.1</ele>
        <time>2019-08-14T12:17:02Z</time>
      </trkpt>
      <trkpt lat="41.2227510" lon="-4.8430640">
        <ele>749.0</ele>
        <time>2019-08-14T12:17:03Z</time>
      </trkpt>
      <trkpt lat="41.2227280" lon="-4.8431260">
        <ele>749.0</ele>
        <time>2019-08-14T12:17:04Z</time>
      </trkpt>
      <trkpt lat="41.2227080" lon="-4.8431890">
        <ele>748.9</ele>
        <time>2019-08-14T12:17:05Z</time>
      </trkpt>
      <trkpt lat="41.2226940" lon="-4.8432510">
        <ele>748.8</ele>
        <time>2019-08-14T12:17:06Z</time>
      </trkpt>
      <trkpt lat="41.2226870" lon="-4.8433150">
        <ele>748.7</ele>
        <time>2019-08-14T12:17:07Z</time>
      </trkpt>
      <trkpt lat="41.2226860" lon="-4.8433820">
        <ele>748.6</ele>
        <time>2019-08-14T12:17:08Z</time>
      </trkpt>
      <trkpt lat="41.2226900" lon="-4.8434490">
        <ele>748.6</ele>
        <time>2019-08-14T12:17:09Z</time>
      </trkpt>
      <trkpt lat="41.2226980" lon="-4.8435120">
        <ele>748.5</ele>
        <time>2019-08-14T12:17:10Z</time>
      </trkpt>
      <trkpt lat="41.2227130" lon="-4.8435670">
        <ele>748.4</ele>
        <time>2019-08-14T12:17:11Z</time>
      </trkpt>
      <trkpt lat="41.2227330" lon="-4.8436180">
        <ele>748.4</ele>
        <time>2019-08-14T12:17:12Z</time>
      </trkpt>
      <trkpt lat="41.2227550" lon="-4.8436700">
        <ele>748.3</ele>
        <time>2019-08-14T12:17:13Z</time>
      </trkpt>
      <trkpt lat="41.2227780" lon="-4.8437200">
        <ele>748.3</ele>
        <time>2019-08-14T12:17:14Z</time>
      </trkpt>
      <trkpt lat="41.2228040" lon="-4.8437700">
        <ele>748.2</ele>
        <time>2019-08-14T12:17:15Z</time>
      </trkpt>
      <trkpt lat="41.2228320" lon="-4.8438230">
        <ele>748.2</ele>
        <time>2019-08-14T12:17:16Z</time>
      </trkpt>
      <trkpt lat="41.2228590" lon="-4.8438790">
        <ele>748.2</ele>
        <time>2019-08-14T12:17:17Z</time>
      </trkpt>
      <trkpt lat="41.2228850" lon="-4.8439360">
        <ele>748.2</ele>
        <time>2019-08-14T12:17:18Z</time>
      </trkpt>
      <trkpt lat="41.2229120" lon="-4.8439930">
        <ele>748.1</ele>
        <time>2019-08-14T12:17:19Z</time>
      </trkpt>
      <trkpt lat="41.2229370" lon="-4.8440510">
        <ele>748.1</ele>
        <time>2019-08-14T12:17:20Z</time>
      </trkpt>
      <trkpt lat="41.2229610" lon="-4.8441080">
        <ele>748.0</ele>
        <time>2019-08-14T12:17:21Z</time>
      </trkpt>
      <trkpt lat="41.2229850" lon="-4.8441650">
        <ele>748.0</ele>
        <time>2019-08-14T12:17:22Z</time>
      </trkpt>
      <trkpt lat="41.2230110" lon="-4.8442200">
        <ele>747.9</ele>
        <time>2019-08-14T12:17:23Z</time>
      </trkpt>
      <trkpt lat="41.2230380" lon="-4.8442760">
        <ele>747.8</ele>
        <time>2019-08-14T12:17:24Z</time>
      </trkpt>
      <trkpt lat="41.2230630" lon="-4.8443320">
        <ele>747.8</ele>
        <time>2019-08-14T12:17:25Z</time>
      </trkpt>
      <trkpt lat="41.2230890" lon="-4.8443900">
        <ele>747.7</ele>
        <time>2019-08-14T12:17:26Z</time>
      </trkpt>
      <trkpt lat="41.2231140" lon="-4.8444460">
        <ele>747.6</ele>
        <time>2019-08-14T12:17:27Z</time>
      </trkpt>
      <trkpt lat="41.2231380" lon="-4.8445020">
        <ele>747.5</ele>
        <time>2019-08-14T12:17:28Z</time>
      </trkpt>
      <trkpt lat="41.2231610" lon="-4.8445580">
        <ele>747.4</ele>
        <time>2019-08-14T12:17:29Z</time>
      </trkpt>
      <trkpt lat="41.2231860" lon="-4.8446130">
        <ele>747.3</ele>
        <time>2019-08-14T12:17:30Z</time>
      </trkpt>
      <trkpt lat="41.2232120" lon="-4.8446670">
        <ele>747.3</ele>
        <time>2019-08-14T12:17:31Z</time>
      </trkpt>
      <trkpt lat="41.2232390" lon="-4.8447220">
        <ele>747.2</ele>
        <time>2019-08-14T12:17:32Z</time>
      </trkpt>
      <trkpt lat="41.2232680" lon="-4.8447750">
        <ele>747.1</ele>
        <time>2019-08-14T12:17:33Z</time>
      </trkpt>
      <trkpt lat="41.2232950" lon="-4.8448240">
        <ele>747.1</ele>
        <time>2019-08-14T12:17:34Z</time>
      </trkpt>
      <trkpt lat="41.2233240" lon="-4.8448690">
        <ele>747.0</ele>
        <time>2019-08-14T12:17:35Z</time>
      </trkpt>
      <trkpt lat="41.2233560" lon="-4.8449120">
        <ele>747.0</ele>
        <time>2019-08-14T12:17:36Z</time>
      </trkpt>
      <trkpt lat="41.2233870" lon="-4.8449550">
        <ele>747.0</ele>
        <time>2019-08-14T12:17:37Z</time>
      </trkpt>
      <trkpt lat="41.2234220" lon="-4.8450010">
        <ele>747.0</ele>
        <time>2019-08-14T12:17:38Z</time>
      </trkpt>
      <trkpt lat="41.2234580" lon="-4.8450490">
        <ele>746.9</ele>
        <time>2019-08-14T12:17:39Z</time>
      </trkpt>
      <trkpt lat="41.2234970" lon="-4.8450970">
        <ele>746.9</ele>
        <time>2019-08-14T12:17:40Z</time>
      </trkpt>
      <trkpt lat="41.2235380" lon="-4.8451450">
        <ele>746.9</ele>
        <time>2019-08-14T12:17:41Z</time>
      </trkpt>
      <trkpt lat="41.2235810" lon="-4.8451940">
        <ele>746.8</ele>
        <time>2019-08-14T12:17:42Z</time>
      </trkpt>
      <trkpt lat="41.2236240" lon="-4.8452430">
        <ele>746.8</ele>
        <time>2019-08-14T12:17:43Z</time>
      </trkpt>
      <trkpt lat="41.2236670" lon="-4.8452910">
        <ele>746.8</ele>
        <time>2019-08-14T12:17:44Z</time>
      </trkpt>
      <trkpt lat="41.2237100" lon="-4.8453380">
        <ele>746.7</ele>
        <time>2019-08-14T12:17:45Z</time>
      </trkpt>
      <trkpt lat="41.2237530" lon="-4.8453830">
        <ele>746.5</ele>
        <time>2019-08-14T12:17:46Z</time>
      </trkpt>
      <trkpt lat="41.2237960" lon="-4.8454310">
        <ele>746.4</ele>
        <time>2019-08-14T12:17:47Z</time>
      </trkpt>
      <trkpt lat="41.2238390" lon="-4.8454810">
        <ele>746.3</ele>
        <time>2019-08-14T12:17:48Z</time>
      </trkpt>
      <trkpt lat="41.2238820" lon="-4.8455310">
        <ele>746.2</ele>
        <time>2019-08-14T12:17:49Z</time>
      </trkpt>
      <trkpt lat="41.2239240" lon="-4.8455800">
        <ele>746.1</ele>
        <time>2019-08-14T12:17:50Z</time>
      </trkpt>
      <trkpt lat="41.2239680" lon="-4.8456310">
        <ele>746.0</ele>
        <time>2019-08-14T12:17:51Z</time>
      </trkpt>
      <trkpt lat="41.2240110" lon="-4.8456800">
        <ele>746.0</ele>
        <time>2019-08-14T12:17:52Z</time>
      </trkpt>
      <trkpt lat="41.2240530" lon="-4.8457270">
        <ele>745.9</ele>
        <time>2019-08-14T12:17:53Z</time>
      </trkpt>
      <trkpt lat="41.2240960" lon="-4.8457710">
        <ele>745.8</ele>
        <time>2019-08-14T12:17:54Z</time>
      </trkpt>
      <trkpt lat="41.2241380" lon="-4.8458160">
        <ele>745.8</ele>
        <time>2019-08-14T12:17:55Z</time>
      </trkpt>
      <trkpt lat="41.2241810" lon="-4.8458630">
        <ele>745.8</ele>
        <time>2019-08-14T12:17:56Z</time>
      </trkpt>
      <trkpt lat="41.2242240" lon="-4.8459090">
        <ele>745.7</ele>
        <time>2019-08-14T12:17:57Z</time>
      </trkpt>
      <trkpt lat="41.2242660" lon="-4.8459560">
        <ele>745.7</ele>
        <time>2019-08-14T12:17:58Z</time>
      </trkpt>
      <trkpt lat="41.2243110" lon="-4.8460020">
        <ele>745.6</ele>
        <time>2019-08-14T12:17:59Z</time>
      </trkpt>
      <trkpt lat="41.2243560" lon="-4.8460470">
        <ele>745.6</ele>
        <time>2019-08-14T12:18:00Z</time>
      </trkpt>
      <trkpt lat="41.2244010" lon="-4.8460930">
        <ele>745.6</ele>
        <time>2019-08-14T12:18:01Z</time>
      </trkpt>
      <trkpt lat="41.2244480" lon="-4.8461380">
        <ele>745.5</ele>
        <time>2019-08-14T12:18:02Z</time>
      </trkpt>
      <trkpt lat="41.2244940" lon="-4.8461850">
        <ele>745.5</ele>
        <time>2019-08-14T12:18:03Z</time>
      </trkpt>
      <trkpt lat="41.2245390" lon="-4.8462340">
        <ele>745.4</ele>
        <time>2019-08-14T12:18:04Z</time>
      </trkpt>
      <trkpt lat="41.2245860" lon="-4.8462830">
        <ele>745.3</ele>
        <time>2019-08-14T12:18:05Z</time>
      </trkpt>
      <trkpt lat="41.2246320" lon="-4.8463310">
        <ele>745.2</ele>
        <time>2019-08-14T12:18:06Z</time>
      </trkpt>
      <trkpt lat="41.2246810" lon="-4.8463810">
        <ele>745.1</ele>
        <time>2019-08-14T12:18:07Z</time>
      </trkpt>
      <trkpt lat="41.2247290" lon="-4.8464310">
        <ele>745.0</ele>
        <time>2019-08-14T12:18:08Z</time>
      </trkpt>
      <trkpt lat="41.2247770" lon="-4.8464810">
        <ele>744.9</ele>
        <time>2019-08-14T12:18:09Z</time>
      </trkpt>
      <trkpt lat="41.2248270" lon="-4.8465260">
        <ele>744.8</ele>
        <time>2019-08-14T12:18:10Z</time>
      </trkpt>
      <trkpt lat="41.2248770" lon="-4.8465660">
        <ele>744.7</ele>
        <time>2019-08-14T12:18:11Z</time>
      </trkpt>
      <trkpt lat="41.2249230" lon="-4.8466080">
        <ele>744.6</ele>
        <time>2019-08-14T12:18:12Z</time>
      </trkpt>
      <trkpt lat="41.2249660" lon="-4.8466510">
        <ele>744.6</ele>
        <time>2019-08-14T12:18:13Z</time>
      </trkpt>
      <trkpt lat="41.2250110" lon="-4.8466930">
        <ele>744.5</ele>
        <time>2019-08-14T12:18:14Z</time>
      </trkpt>
      <trkpt lat="41.2250570" lon="-4.8467370">
        <ele>744.5</ele>
        <time>2019-08-14T12:18:15Z</time>
      </trkpt>
      <trkpt lat="41.2251050" lon="-4.8467830">
        <ele>744.5</ele>
        <time>2019-08-14T12:18:16Z</time>
      </trkpt>
      <trkpt lat="41.2251510" lon="-4.8468300">
        <ele>744.4</ele>
        <time>2019-08-14T12:18:17Z</time>
      </trkpt>
      <trkpt lat="41.2251980" lon="-4.8468780">
        <ele>744.4</ele>
        <time>2019-08-14T12:18:18Z</time>
      </trkpt>
      <trkpt lat="41.2252430" lon="-4.8469260">
        <ele>744.4</ele>
        <time>2019-08-14T12:18:19Z</time>
      </trkpt>
      <trkpt lat="41.2252890" lon="-4.8469730">
        <ele>744.4</ele>
        <time>2019-08-14T12:18:20Z</time>
      </trkpt>
      <trkpt lat="41.2253350" lon="-4.8470200">
        <ele>744.4</ele>
        <time>2019-08-14T12:18:21Z</time>
      </trkpt>
      <trkpt lat="41.2253790" lon="-4.8470680">
        <ele>744.3</ele>
        <time>2019-08-14T12:18:22Z</time>
      </trkpt>
      <trkpt lat="41.2254240" lon="-4.8471160">
        <ele>744.3</ele>
        <time>2019-08-14T12:18:23Z</time>
      </trkpt>
      <trkpt lat="41.2254690" lon="-4.8471630">
        <ele>744.3</ele>
        <time>2019-08-14T12:18:24Z</time>
      </trkpt>
      <trkpt lat="41.2255140" lon="-4.8472080">
        <ele>744.3</ele>
        <time>2019-08-14T12:18:25Z</time>
      </trkpt>
      <trkpt lat="41.2255610" lon="-4.8472540">
        <ele>744.3</ele>
        <time>2019-08-14T12:18:26Z</time>
      </trkpt>
      <trkpt lat="41.2256070" lon="-4.8472990">
        <ele>744.3</ele>
        <time>2019-08-14T12:18:27Z</time>
      </trkpt>
      <trkpt lat="41.2256520" lon="-4.8473450">
        <ele>744.3</ele>
        <time>2019-08-14T12:18:28Z</time>
      </trkpt>
      <trkpt lat="41.2256960" lon="-4.8473920">
        <ele>744.3</ele>
        <time>2019-08-14T12:18:29Z</time>
      </trkpt>
      <trkpt lat="41.2257390" lon="-4.8474380">
        <ele>744.3</ele>
        <time>2019-08-14T12:18:30Z</time>
      </trkpt>
      <trkpt lat="41.2257830" lon="-4.8474830">
        <ele>744.3</ele>
        <time>2019-08-14T12:18:31Z</time>
      </trkpt>
      <trkpt lat="41.2258280" lon="-4.8475280">
        <ele>744.3</ele>
        <time>2019-08-14T12:18:32Z</time>
      </trkpt>
      <trkpt lat="41.2258730" lon="-4.8475720">
        <ele>744.2</ele>
        <time>2019-08-14T12:18:33Z</time>
      </trkpt>
      <trkpt lat="41.2259170" lon="-4.8476160">
        <ele>744.2</ele>
        <time>2019-08-14T12:18:34Z</time>
      </trkpt>
      <trkpt lat="41.2259620" lon="-4.8476610">
        <ele>744.2</ele>
        <time>2019-08-14T12:18:35Z</time>
      </trkpt>
      <trkpt lat="41.2260060" lon="-4.8477050">
        <ele>744.2</ele>
        <time>2019-08-14T12:18:36Z</time>
      </trkpt>
      <trkpt lat="41.2260500" lon="-4.8477490">
        <ele>744.2</ele>
        <time>2019-08-14T12:18:37Z</time>
      </trkpt>
      <trkpt lat="41.2260940" lon="-4.8477930">
        <ele>744.1</ele>
        <time>2019-08-14T12:18:38Z</time>
      </trkpt>
      <trkpt lat="41.2261390" lon="-4.8478380">
        <ele>744.1</ele>
        <time>2019-08-14T12:18:39Z</time>
      </trkpt>
      <trkpt lat="41.2261840" lon="-4.8478810">
        <ele>744.0</ele>
        <time>2019-08-14T12:18:40Z</time>
      </trkpt>
      <trkpt lat="41.2262280" lon="-4.8479250">
        <ele>744.0</ele>
        <time>2019-08-14T12:18:41Z</time>
      </trkpt>
      <trkpt lat="41.2262730" lon="-4.8479690">
        <ele>743.9</ele>
        <time>2019-08-14T12:18:42Z</time>
      </trkpt>
      <trkpt lat="41.2263180" lon="-4.8480130">
        <ele>743.9</ele>
        <time>2019-08-14T12:18:43Z</time>
      </trkpt>
      <trkpt lat="41.2263620" lon="-4.8480570">
        <ele>743.9</ele>
        <time>2019-08-14T12:18:44Z</time>
      </trkpt>
      <trkpt lat="41.2264070" lon="-4.8481040">
        <ele>743.9</ele>
        <time>2019-08-14T12:18:45Z</time>
      </trkpt>
      <trkpt lat="41.2264510" lon="-4.8481500">
        <ele>743.9</ele>
        <time>2019-08-14T12:18:46Z</time>
      </trkpt>
      <trkpt lat="41.2264950" lon="-4.8481950">
        <ele>743.9</ele>
        <time>2019-08-14T12:18:47Z</time>
      </trkpt>
      <trkpt lat="41.2265390" lon="-4.8482380">
        <ele>744.0</ele>
        <time>2019-08-14T12:18:48Z</time>
      </trkpt>
      <trkpt lat="41.2265830" lon="-4.8482810">
        <ele>744.1</ele>
        <time>2019-08-14T12:18:49Z</time>
      </trkpt>
      <trkpt lat="41.2266260" lon="-4.8483230">
        <ele>744.2</ele>
        <time>2019-08-14T12:18:50Z</time>
      </trkpt>
      <trkpt lat="41.2266680" lon="-4.8483660">
        <ele>744.3</ele>
        <time>2019-08-14T12:18:51Z</time>
      </trkpt>
      <trkpt lat="41.2267080" lon="-4.8484090">
        <ele>744.3</ele>
        <time>2019-08-14T12:18:52Z</time>
      </trkpt>
      <trkpt lat="41.2267490" lon="-4.8484500">
        <ele>744.3</ele>
        <time>2019-08-14T12:18:53Z</time>
      </trkpt>
      <trkpt lat="41.2267890" lon="-4.8484910">
        <ele>744.3</ele>
        <time>2019-08-14T12:18:54Z</time>
      </trkpt>
      <trkpt lat="41.2268300" lon="-4.8485310">
        <ele>744.3</ele>
        <time>2019-08-14T12:18:55Z</time>
      </trkpt>
      <trkpt lat="41.2268700" lon="-4.8485690">
        <ele>744.3</ele>
        <time>2019-08-14T12:18:56Z</time>
      </trkpt>
      <trkpt lat="41.2269090" lon="-4.8486080">
        <ele>744.2</ele>
        <time>2019-08-14T12:18:57Z</time>
      </trkpt>
      <trkpt lat="41.2269490" lon="-4.8486490">
        <ele>744.2</ele>
        <time>2019-08-14T12:18:58Z</time>
      </trkpt>
      <trkpt lat="41.2269890" lon="-4.8486890">
        <ele>744.2</ele>
        <time>2019-08-14T12:18:59Z</time>
      </trkpt>
      <trkpt lat="41.2270310" lon="-4.8487290">
        <ele>744.2</ele>
        <time>2019-08-14T12:19:00Z</time>
      </trkpt>
      <trkpt lat="41.2270740" lon="-4.8487700">
        <ele>744.2</ele>
        <time>2019-08-14T12:19:01Z</time>
      </trkpt>
      <trkpt lat="41.2271170" lon="-4.8488120">
        <ele>744.2</ele>
        <time>2019-08-14T12:19:02Z</time>
      </trkpt>
      <trkpt lat="41.2271610" lon="-4.8488530">
        <ele>744.3</ele>
        <time>2019-08-14T12:19:03Z</time>
      </trkpt>
      <trkpt lat="41.2272060" lon="-4.8488940">
        <ele>744.3</ele>
        <time>2019-08-14T12:19:04Z</time>
      </trkpt>
      <trkpt lat="41.2272490" lon="-4.8489340">
        <ele>744.3</ele>
        <time>2019-08-14T12:19:05Z</time>
      </trkpt>
      <trkpt lat="41.2272920" lon="-4.8489760">
        <ele>744.4</ele>
        <time>2019-08-14T12:19:06Z</time>
      </trkpt>
      <trkpt lat="41.2273330" lon="-4.8490170">
        <ele>744.4</ele>
        <time>2019-08-14T12:19:07Z</time>
      </trkpt>
      <trkpt lat="41.2273730" lon="-4.8490560">
        <ele>744.4</ele>
        <time>2019-08-14T12:19:08Z</time>
      </trkpt>
      <trkpt lat="41.2274120" lon="-4.8490940">
        <ele>744.4</ele>
        <time>2019-08-14T12:19:09Z</time>
      </trkpt>
      <trkpt lat="41.2274540" lon="-4.8491350">
        <ele>744.4</ele>
        <time>2019-08-14T12:19:10Z</time>
      </trkpt>
      <trkpt lat="41.2274970" lon="-4.8491770">
        <ele>744.3</ele>
        <time>2019-08-14T12:19:11Z</time>
      </trkpt>
      <trkpt lat="41.2275420" lon="-4.8492230">
        <ele>744.2</ele>
        <time>2019-08-14T12:19:12Z</time>
      </trkpt>
      <trkpt lat="41.2275890" lon="-4.8492710">
        <ele>744.1</ele>
        <time>2019-08-14T12:19:13Z</time>
      </trkpt>
      <trkpt lat="41.2276350" lon="-4.8493180">
        <ele>744.1</ele>
        <time>2019-08-14T12:19:14Z</time>
      </trkpt>
      <trkpt lat="41.2276790" lon="-4.8493640">
        <ele>744.0</ele>
        <time>2019-08-14T12:19:15Z</time>
      </trkpt>
      <trkpt lat="41.2277240" lon="-4.8494110">
        <ele>743.9</ele>
        <time>2019-08-14T12:19:16Z</time>
      </trkpt>
      <trkpt lat="41.2277660" lon="-4.8494550">
        <ele>743.8</ele>
        <time>2019-08-14T12:19:17Z</time>
      </trkpt>
      <trkpt lat="41.2278100" lon="-4.8494980">
        <ele>743.7</ele>
        <time>2019-08-14T12:19:18Z</time>
      </trkpt>
      <trkpt lat="41.2278540" lon="-4.8495420">
        <ele>743.6</ele>
        <time>2019-08-14T12:19:19Z</time>
      </trkpt>
      <trkpt lat="41.2278990" lon="-4.8495860">
        <ele>743.4</ele>
        <time>2019-08-14T12:19:20Z</time>
      </trkpt>
      <trkpt lat="41.2279460" lon="-4.8496320">
        <ele>743.2</ele>
        <time>2019-08-14T12:19:21Z</time>
      </trkpt>
      <trkpt lat="41.2279920" lon="-4.8496780">
        <ele>743.1</ele>
        <time>2019-08-14T12:19:22Z</time>
      </trkpt>
      <trkpt lat="41.2280380" lon="-4.8497260">
        <ele>742.9</ele>
        <time>2019-08-14T12:19:23Z</time>
      </trkpt>
      <trkpt lat="41.2280830" lon="-4.8497730">
        <ele>742.9</ele>
        <time>2019-08-14T12:19:24Z</time>
      </trkpt>
      <trkpt lat="41.2281290" lon="-4.8498200">
        <ele>742.9</ele>
        <time>2019-08-14T12:19:25Z</time>
      </trkpt>
      <trkpt lat="41.2281750" lon="-4.8498660">
        <ele>742.9</ele>
        <time>2019-08-14T12:19:26Z</time>
      </trkpt>
      <trkpt lat="41.2282210" lon="-4.8499130">
        <ele>742.9</ele>
        <time>2019-08-14T12:19:27Z</time>
      </trkpt>
      <trkpt lat="41.2282680" lon="-4.8499590">
        <ele>743.0</ele>
        <time>2019-08-14T12:19:28Z</time>
      </trkpt>
      <trkpt lat="41.2283130" lon="-4.8500070">
        <ele>743.0</ele>
        <time>2019-08-14T12:19:29Z</time>
      </trkpt>
      <trkpt lat="41.2283590" lon="-4.8500550">
        <ele>742.9</ele>
        <time>2019-08-14T12:19:30Z</time>
      </trkpt>
      <trkpt lat="41.2284060" lon="-4.8501030">
        <ele>742.9</ele>
        <time>2019-08-14T12:19:31Z</time>
      </trkpt>
      <trkpt lat="41.2284520" lon="-4.8501500">
        <ele>742.7</ele>
        <time>2019-08-14T12:19:32Z</time>
      </trkpt>
      <trkpt lat="41.2284970" lon="-4.8502000">
        <ele>742.6</ele>
        <time>2019-08-14T12:19:33Z</time>
      </trkpt>
      <trkpt lat="41.2285440" lon="-4.8502510">
        <ele>742.3</ele>
        <time>2019-08-14T12:19:34Z</time>
      </trkpt>
      <trkpt lat="41.2285930" lon="-4.8503040">
        <ele>742.1</ele>
        <time>2019-08-14T12:19:35Z</time>
      </trkpt>
      <trkpt lat="41.2286420" lon="-4.8503560">
        <ele>741.9</ele>
        <time>2019-08-14T12:19:36Z</time>
      </trkpt>
      <trkpt lat="41.2286920" lon="-4.8504070">
        <ele>741.7</ele>
        <time>2019-08-14T12:19:37Z</time>
      </trkpt>
      <trkpt lat="41.2287420" lon="-4.8504590">
        <ele>741.5</ele>
        <time>2019-08-14T12:19:38Z</time>
      </trkpt>
      <trkpt lat="41.2287930" lon="-4.8505110">
        <ele>741.3</ele>
        <time>2019-08-14T12:19:39Z</time>
      </trkpt>
      <trkpt lat="41.2288440" lon="-4.8505650">
        <ele>741.2</ele>
        <time>2019-08-14T12:19:40Z</time>
      </trkpt>
      <trkpt lat="41.2288970" lon="-4.8506210">
        <ele>741.2</ele>
        <time>2019-08-14T12:19:41Z</time>
      </trkpt>
      <trkpt lat="41.2289490" lon="-4.8506740">
        <ele>741.1</ele>
        <time>2019-08-14T12:19:42Z</time>
      </trkpt>
      <trkpt lat="41.2290020" lon="-4.8507260">
        <ele>741.1</ele>
        <time>2019-08-14T12:19:43Z</time>
      </trkpt>
      <trkpt lat="41.2290530" lon="-4.8507780">
        <ele>741.1</ele>
        <time>2019-08-14T12:19:44Z</time>
      </trkpt>
      <trkpt lat="41.2291050" lon="-4.8508300">
        <ele>740.9</ele>
        <time>2019-08-14T12:19:45Z</time>
      </trkpt>
      <trkpt lat="41.2291550" lon="-4.8508820">
        <ele>740.7</ele>
        <time>2019-08-14T12:19:46Z</time>
      </trkpt>
      <trkpt lat="41.2292050" lon="-4.8509340">
        <ele>740.5</ele>
        <time>2019-08-14T12:19:47Z</time>
      </trkpt>
      <trkpt lat="41.2292550" lon="-4.8509820">
        <ele>740.4</ele>
        <time>2019-08-14T12:19:48Z</time>
      </trkpt>
      <trkpt lat="41.2293050" lon="-4.8510310">
        <ele>740.3</ele>
        <time>2019-08-14T12:19:49Z</time>
      </trkpt>
      <trkpt lat="41.2293550" lon="-4.8510790">
        <ele>740.2</ele>
        <time>2019-08-14T12:19:50Z</time>
      </trkpt>
      <trkpt lat="41.2294040" lon="-4.8511300">
        <ele>740.2</ele>
        <time>2019-08-14T12:19:51Z</time>
      </trkpt>
      <trkpt lat="41.2294530" lon="-4.8511800">
        <ele>740.2</ele>
        <time>2019-08-14T12:19:52Z</time>
      </trkpt>
      <trkpt lat="41.2295030" lon="-4.8512320">
        <ele>740.2</ele>
        <time>2019-08-14T12:19:53Z</time>
      </trkpt>
      <trkpt lat="41.2295530" lon="-4.8512860">
        <ele>740.2</ele>
        <time>2019-08-14T12:19:54Z</time>
      </trkpt>
      <trkpt lat="41.2296020" lon="-4.8513380">
        <ele>740.1</ele>
        <time>2019-08-14T12:19:55Z</time>
      </trkpt>
      <trkpt lat="41.2296510" lon="-4.8513870">
        <ele>740.1</ele>
        <time>2019-08-14T12:19:56Z</time>
      </trkpt>
      <trkpt lat="41.2297010" lon="-4.8514330">
        <ele>740.1</ele>
        <time>2019-08-14T12:19:57Z</time>
      </trkpt>
      <trkpt lat="41.2297490" lon="-4.8514780">
        <ele>740.1</ele>
        <time>2019-08-14T12:19:58Z</time>
      </trkpt>
      <trkpt lat="41.2297970" lon="-4.8515240">
        <ele>740.0</ele>
        <time>2019-08-14T12:19:59Z</time>
      </trkpt>
      <trkpt lat="41.2298410" lon="-4.8515700">
        <ele>740.0</ele>
        <time>2019-08-14T12:20:00Z</time>
      </trkpt>
      <trkpt lat="41.2298850" lon="-4.8516140">
        <ele>740.0</ele>
        <time>2019-08-14T12:20:01Z</time>
      </trkpt>
      <trkpt lat="41.2299310" lon="-4.8516590">
        <ele>739.9</ele>
        <time>2019-08-14T12:20:02Z</time>
      </trkpt>
      <trkpt lat="41.2299780" lon="-4.8517050">
        <ele>739.9</ele>
        <time>2019-08-14T12:20:03Z</time>
      </trkpt>
      <trkpt lat="41.2300260" lon="-4.8517530">
        <ele>739.8</ele>
        <time>2019-08-14T12:20:04Z</time>
      </trkpt>
      <trkpt lat="41.2300730" lon="-4.8518020">
        <ele>739.7</ele>
        <time>2019-08-14T12:20:05Z</time>
      </trkpt>
      <trkpt lat="41.2301220" lon="-4.8518520">
        <ele>739.6</ele>
        <time>2019-08-14T12:20:06Z</time>
      </trkpt>
      <trkpt lat="41.2301710" lon="-4.8519010">
        <ele>739.5</ele>
        <time>2019-08-14T12:20:07Z</time>
      </trkpt>
      <trkpt lat="41.2302200" lon="-4.8519500">
        <ele>739.4</ele>
        <time>2019-08-14T12:20:08Z</time>
      </trkpt>
      <trkpt lat="41.2302660" lon="-4.8519980">
        <ele>739.3</ele>
        <time>2019-08-14T12:20:09Z</time>
      </trkpt>
      <trkpt lat="41.2303120" lon="-4.8520440">
        <ele>739.3</ele>
        <time>2019-08-14T12:20:10Z</time>
      </trkpt>
      <trkpt lat="41.2303570" lon="-4.8520890">
        <ele>739.2</ele>
        <time>2019-08-14T12:20:11Z</time>
      </trkpt>
      <trkpt lat="41.2304000" lon="-4.8521340">
        <ele>739.1</ele>
        <time>2019-08-14T12:20:12Z</time>
      </trkpt>
      <trkpt lat="41.2304440" lon="-4.8521790">
        <ele>739.1</ele>
        <time>2019-08-14T12:20:13Z</time>
      </trkpt>
      <trkpt lat="41.2304880" lon="-4.8522250">
        <ele>739.1</ele>
        <time>2019-08-14T12:20:14Z</time>
      </trkpt>
      <trkpt lat="41.2305340" lon="-4.8522710">
        <ele>739.0</ele>
        <time>2019-08-14T12:20:15Z</time>
      </trkpt>
      <trkpt lat="41.2305800" lon="-4.8523150">
        <ele>739.0</ele>
        <time>2019-08-14T12:20:16Z</time>
      </trkpt>
      <trkpt lat="41.2306270" lon="-4.8523580">
        <ele>738.9</ele>
        <time>2019-08-14T12:20:17Z</time>
      </trkpt>
      <trkpt lat="41.2306740" lon="-4.8524000">
        <ele>738.9</ele>
        <time>2019-08-14T12:20:18Z</time>
      </trkpt>
      <trkpt lat="41.2307190" lon="-4.8524410">
        <ele>738.8</ele>
        <time>2019-08-14T12:20:19Z</time>
      </trkpt>
      <trkpt lat="41.2307620" lon="-4.8524790">
        <ele>738.8</ele>
        <time>2019-08-14T12:20:20Z</time>
      </trkpt>
      <trkpt lat="41.2308040" lon="-4.8525140">
        <ele>738.8</ele>
        <time>2019-08-14T12:20:21Z</time>
      </trkpt>
      <trkpt lat="41.2308440" lon="-4.8525470">
        <ele>738.9</ele>
        <time>2019-08-14T12:20:22Z</time>
      </trkpt>
      <trkpt lat="41.2308850" lon="-4.8525830">
        <ele>738.9</ele>
        <time>2019-08-14T12:20:23Z</time>
      </trkpt>
      <trkpt lat="41.2309250" lon="-4.8526220">
        <ele>739.0</ele>
        <time>2019-08-14T12:20:24Z</time>
      </trkpt>
      <trkpt lat="41.2309660" lon="-4.8526640">
        <ele>739.1</ele>
        <time>2019-08-14T12:20:25Z</time>
      </trkpt>
      <trkpt lat="41.2310060" lon="-4.8527050">
        <ele>739.2</ele>
        <time>2019-08-14T12:20:26Z</time>
      </trkpt>
      <trkpt lat="41.2310470" lon="-4.8527470">
        <ele>739.3</ele>
        <time>2019-08-14T12:20:27Z</time>
      </trkpt>
      <trkpt lat="41.2310900" lon="-4.8527890">
        <ele>739.4</ele>
        <time>2019-08-14T12:20:28Z</time>
      </trkpt>
      <trkpt lat="41.2311330" lon="-4.8528290">
        <ele>739.4</ele>
        <time>2019-08-14T12:20:29Z</time>
      </trkpt>
      <trkpt lat="41.2311760" lon="-4.8528700">
        <ele>739.5</ele>
        <time>2019-08-14T12:20:30Z</time>
      </trkpt>
      <trkpt lat="41.2312180" lon="-4.8529110">
        <ele>739.5</ele>
        <time>2019-08-14T12:20:31Z</time>
      </trkpt>
      <trkpt lat="41.2312600" lon="-4.8529490">
        <ele>739.5</ele>
        <time>2019-08-14T12:20:32Z</time>
      </trkpt>
      <trkpt lat="41.2313020" lon="-4.8529890">
        <ele>739.6</ele>
        <time>2019-08-14T12:20:33Z</time>
      </trkpt>
      <trkpt lat="41.2313440" lon="-4.8530290">
        <ele>739.6</ele>
        <time>2019-08-14T12:20:34Z</time>
      </trkpt>
      <trkpt lat="41.2313860" lon="-4.8530690">
        <ele>739.6</ele>
        <time>2019-08-14T12:20:35Z</time>
      </trkpt>
      <trkpt lat="41.2314270" lon="-4.8531090">
        <ele>739.7</ele>
        <time>2019-08-14T12:20:36Z</time>
      </trkpt>
      <trkpt lat="41.2314690" lon="-4.8531480">
        <ele>739.7</ele>
        <time>2019-08-14T12:20:37Z</time>
      </trkpt>
      <trkpt lat="41.2315100" lon="-4.8531850">
        <ele>739.8</ele>
        <time>2019-08-14T12:20:38Z</time>
      </trkpt>
      <trkpt lat="41.2315500" lon="-4.8532220">
        <ele>739.8</ele>
        <time>2019-08-14T12:20:39Z</time>
      </trkpt>
      <trkpt lat="41.2315880" lon="-4.8532580">
        <ele>739.9</ele>
        <time>2019-08-14T12:20:40Z</time>
      </trkpt>
      <trkpt lat="41.2316250" lon="-4.8532930">
        <ele>740.0</ele>
        <time>2019-08-14T12:20:41Z</time>
      </trkpt>
      <trkpt lat="41.2316620" lon="-4.8533290">
        <ele>740.1</ele>
        <time>2019-08-14T12:20:42Z</time>
      </trkpt>
      <trkpt lat="41.2316970" lon="-4.8533630">
        <ele>740.2</ele>
        <time>2019-08-14T12:20:43Z</time>
      </trkpt>
      <trkpt lat="41.2317340" lon="-4.8533960">
        <ele>740.3</ele>
        <time>2019-08-14T12:20:44Z</time>
      </trkpt>
      <trkpt lat="41.2317700" lon="-4.8534300">
        <ele>740.4</ele>
        <time>2019-08-14T12:20:45Z</time>
      </trkpt>
      <trkpt lat="41.2318060" lon="-4.8534650">
        <ele>740.6</ele>
        <time>2019-08-14T12:20:46Z</time>
      </trkpt>
      <trkpt lat="41.2318410" lon="-4.8534990">
        <ele>740.7</ele>
        <time>2019-08-14T12:20:47Z</time>
      </trkpt>
      <trkpt lat="41.2318760" lon="-4.8535320">
        <ele>740.9</ele>
        <time>2019-08-14T12:20:48Z</time>
      </trkpt>
      <trkpt lat="41.2319100" lon="-4.8535630">
        <ele>741.1</ele>
        <time>2019-08-14T12:20:49Z</time>
      </trkpt>
      <trkpt lat="41.2319420" lon="-4.8535950">
        <ele>741.2</ele>
        <time>2019-08-14T12:20:50Z</time>
      </trkpt>
      <trkpt lat="41.2319730" lon="-4.8536270">
        <ele>741.4</ele>
        <time>2019-08-14T12:20:51Z</time>
      </trkpt>
      <trkpt lat="41.2320050" lon="-4.8536570">
        <ele>741.6</ele>
        <time>2019-08-14T12:20:52Z</time>
      </trkpt>
      <trkpt lat="41.2320380" lon="-4.8536870">
        <ele>741.7</ele>
        <time>2019-08-14T12:20:53Z</time>
      </trkpt>
      <trkpt lat="41.2320690" lon="-4.8537160">
        <ele>741.9</ele>
        <time>2019-08-14T12:20:54Z</time>
      </trkpt>
      <trkpt lat="41.2321000" lon="-4.8537440">
        <ele>742.0</ele>
        <time>2019-08-14T12:20:55Z</time>
      </trkpt>
      <trkpt lat="41.2321300" lon="-4.8537720">
        <ele>742.1</ele>
        <time>2019-08-14T12:20:56Z</time>
      </trkpt>
      <trkpt lat="41.2321590" lon="-4.8538000">
        <ele>742.2</ele>
        <time>2019-08-14T12:20:57Z</time>
      </trkpt>
      <trkpt lat="41.2321880" lon="-4.8538280">
        <ele>742.3</ele>
        <time>2019-08-14T12:20:58Z</time>
      </trkpt>
      <trkpt lat="41.2322160" lon="-4.8538550">
        <ele>742.4</ele>
        <time>2019-08-14T12:20:59Z</time>
      </trkpt>
      <trkpt lat="41.2322450" lon="-4.8538810">
        <ele>742.5</ele>
        <time>2019-08-14T12:21:00Z</time>
      </trkpt>
      <trkpt lat="41.2322730" lon="-4.8539070">
        <ele>742.6</ele>
        <time>2019-08-14T12:21:01Z</time>
      </trkpt>
      <trkpt lat="41.2323020" lon="-4.8539340">
        <ele>742.7</ele>
        <time>2019-08-14T12:21:02Z</time>
      </trkpt>
      <trkpt lat="41.2323310" lon="-4.8539600">
        <ele>742.8</ele>
        <time>2019-08-14T12:21:03Z</time>
      </trkpt>
      <trkpt lat="41.2323590" lon="-4.8539880">
        <ele>742.9</ele>
        <time>2019-08-14T12:21:04Z</time>
      </trkpt>
      <trkpt lat="41.2323880" lon="-4.8540160">
        <ele>743.0</ele>
        <time>2019-08-14T12:21:05Z</time>
      </trkpt>
      <trkpt lat="41.2324170" lon="-4.8540430">
        <ele>743.0</ele>
        <time>2019-08-14T12:21:06Z</time>
      </trkpt>
      <trkpt lat="41.2324460" lon="-4.8540700">
        <ele>743.1</ele>
        <time>2019-08-14T12:21:07Z</time>
      </trkpt>
      <trkpt lat="41.2324740" lon="-4.8540970">
        <ele>743.2</ele>
        <time>2019-08-14T12:21:08Z</time>
      </trkpt>
      <trkpt lat="41.2325030" lon="-4.8541250">
        <ele>743.3</ele>
        <time>2019-08-14T12:21:09Z</time>
      </trkpt>
      <trkpt lat="41.2325330" lon="-4.8541560">
        <ele>743.3</ele>
        <time>2019-08-14T12:21:10Z</time>
      </trkpt>
      <trkpt lat="41.2325640" lon="-4.8541870">
        <ele>743.3</ele>
        <time>2019-08-14T12:21:11Z</time>
      </trkpt>
      <trkpt lat="41.2325960" lon="-4.8542220">
        <ele>743.3</ele>
        <time>2019-08-14T12:21:12Z</time>
      </trkpt>
      <trkpt lat="41.2326310" lon="-4.8542600">
        <ele>743.2</ele>
        <time>2019-08-14T12:21:13Z</time>
      </trkpt>
      <trkpt lat="41.2326680" lon="-4.8542980">
        <ele>743.1</ele>
        <time>2019-08-14T12:21:14Z</time>
      </trkpt>
      <trkpt lat="41.2327060" lon="-4.8543400">
        <ele>743.0</ele>
        <time>2019-08-14T12:21:15Z</time>
      </trkpt>
      <trkpt lat="41.2327460" lon="-4.8543850">
        <ele>742.7</ele>
        <time>2019-08-14T12:21:16Z</time>
      </trkpt>
      <trkpt lat="41.2327880" lon="-4.8544340">
        <ele>742.3</ele>
        <time>2019-08-14T12:21:17Z</time>
      </trkpt>
      <trkpt lat="41.2328330" lon="-4.8544890">
        <ele>741.8</ele>
        <time>2019-08-14T12:21:18Z</time>
      </trkpt>
      <trkpt lat="41.2328810" lon="-4.8545490">
        <ele>741.2</ele>
        <time>2019-08-14T12:21:19Z</time>
      </trkpt>
      <trkpt lat="41.2329320" lon="-4.8546130">
        <ele>740.6</ele>
        <time>2019-08-14T12:21:20Z</time>
      </trkpt>
      <trkpt lat="41.2329860" lon="-4.8546790">
        <ele>740.1</ele>
        <time>2019-08-14T12:21:21Z</time>
      </trkpt>
      <trkpt lat="41.2330420" lon="-4.8547460">
        <ele>739.6</ele>
        <time>2019-08-14T12:21:22Z</time>
      </trkpt>
      <trkpt lat="41.2331000" lon="-4.8548130">
        <ele>739.1</ele>
        <time>2019-08-14T12:21:23Z</time>
      </trkpt>
      <trkpt lat="41.2331570" lon="-4.8548820">
        <ele>738.8</ele>
        <time>2019-08-14T12:21:24Z</time>
      </trkpt>
      <trkpt lat="41.2332140" lon="-4.8549490">
        <ele>738.6</ele>
        <time>2019-08-14T12:21:25Z</time>
      </trkpt>
      <trkpt lat="41.2332720" lon="-4.8550130">
        <ele>738.5</ele>
        <time>2019-08-14T12:21:26Z</time>
      </trkpt>
      <trkpt lat="41.2333300" lon="-4.8550750">
        <ele>738.4</ele>
        <time>2019-08-14T12:21:27Z</time>
      </trkpt>
      <trkpt lat="41.2333880" lon="-4.8551360">
        <ele>738.3</ele>
        <time>2019-08-14T12:21:28Z</time>
      </trkpt>
      <trkpt lat="41.2334450" lon="-4.8551950">
        <ele>738.2</ele>
        <time>2019-08-14T12:21:29Z</time>
      </trkpt>
      <trkpt lat="41.2335000" lon="-4.8552540">
        <ele>738.1</ele>
        <time>2019-08-14T12:21:30Z</time>
      </trkpt>
      <trkpt lat="41.2335540" lon="-4.8553090">
        <ele>738.0</ele>
        <time>2019-08-14T12:21:31Z</time>
      </trkpt>
      <trkpt lat="41.2336070" lon="-4.8553600">
        <ele>737.9</ele>
        <time>2019-08-14T12:21:32Z</time>
      </trkpt>
      <trkpt lat="41.2336590" lon="-4.8554090">
        <ele>737.8</ele>
        <time>2019-08-14T12:21:33Z</time>
      </trkpt>
      <trkpt lat="41.2337070" lon="-4.8554570">
        <ele>737.7</ele>
        <time>2019-08-14T12:21:34Z</time>
      </trkpt>
      <trkpt lat="41.2337540" lon="-4.8555040">
        <ele>737.6</ele>
        <time>2019-08-14T12:21:35Z</time>
      </trkpt>
      <trkpt lat="41.2338000" lon="-4.8555500">
        <ele>737.5</ele>
        <time>2019-08-14T12:21:36Z</time>
      </trkpt>
      <trkpt lat="41.2338450" lon="-4.8555940">
        <ele>737.4</ele>
        <time>2019-08-14T12:21:37Z</time>
      </trkpt>
      <trkpt lat="41.2338880" lon="-4.8556390">
        <ele>737.3</ele>
        <time>2019-08-14T12:21:38Z</time>
      </trkpt>
      <trkpt lat="41.2339330" lon="-4.8556840">
        <ele>737.2</ele>
        <time>2019-08-14T12:21:39Z</time>
      </trkpt>
      <trkpt lat="41.2339760" lon="-4.8557280">
        <ele>737.2</ele>
        <time>2019-08-14T12:21:40Z</time>
      </trkpt>
      <trkpt lat="41.2340180" lon="-4.8557730">
        <ele>737.1</ele>
        <time>2019-08-14T12:21:41Z</time>
      </trkpt>
      <trkpt lat="41.2340590" lon="-4.8558160">
        <ele>737.1</ele>
        <time>2019-08-14T12:21:42Z</time>
      </trkpt>
      <trkpt lat="41.2341010" lon="-4.8558560">
        <ele>737.1</ele>
        <time>2019-08-14T12:21:43Z</time>
      </trkpt>
      <trkpt lat="41.2341390" lon="-4.8558960">
        <ele>737.1</ele>
        <time>2019-08-14T12:21:44Z</time>
      </trkpt>
      <trkpt lat="41.2341760" lon="-4.8559360">
        <ele>737.1</ele>
        <time>2019-08-14T12:21:45Z</time>
      </trkpt>
      <trkpt lat="41.2342150" lon="-4.8559760">
        <ele>737.1</ele>
        <time>2019-08-14T12:21:46Z</time>
      </trkpt>
      <trkpt lat="41.2342560" lon="-4.8560170">
        <ele>737.1</ele>
        <time>2019-08-14T12:21:47Z</time>
      </trkpt>
      <trkpt lat="41.2342980" lon="-4.8560590">
        <ele>737.1</ele>
        <time>2019-08-14T12:21:48Z</time>
      </trkpt>
      <trkpt lat="41.2343420" lon="-4.8561010">
        <ele>737.1</ele>
        <time>2019-08-14T12:21:49Z</time>
      </trkpt>
      <trkpt lat="41.2343860" lon="-4.8561410">
        <ele>737.0</ele>
        <time>2019-08-14T12:21:50Z</time>
      </trkpt>
      <trkpt lat="41.2344280" lon="-4.8561810">
        <ele>737.0</ele>
        <time>2019-08-14T12:21:51Z</time>
      </trkpt>
      <trkpt lat="41.2344690" lon="-4.8562210">
        <ele>736.9</ele>
        <time>2019-08-14T12:21:52Z</time>
      </trkpt>
      <trkpt lat="41.2345090" lon="-4.8562630">
        <ele>736.8</ele>
        <time>2019-08-14T12:21:53Z</time>
      </trkpt>
      <trkpt lat="41.2345480" lon="-4.8563030">
        <ele>736.7</ele>
        <time>2019-08-14T12:21:54Z</time>
      </trkpt>
      <trkpt lat="41.2345890" lon="-4.8563430">
        <ele>736.6</ele>
        <time>2019-08-14T12:21:55Z</time>
      </trkpt>
      <trkpt lat="41.2346300" lon="-4.8563830">
        <ele>736.5</ele>
        <time>2019-08-14T12:21:56Z</time>
      </trkpt>
      <trkpt lat="41.2346750" lon="-4.8564230">
        <ele>736.5</ele>
        <time>2019-08-14T12:21:57Z</time>
      </trkpt>
      <trkpt lat="41.2347210" lon="-4.8564650">
        <ele>736.4</ele>
        <time>2019-08-14T12:21:58Z</time>
      </trkpt>
      <trkpt lat="41.2347660" lon="-4.8565120">
        <ele>736.4</ele>
        <time>2019-08-14T12:21:59Z</time>
      </trkpt>
      <trkpt lat="41.2348110" lon="-4.8565610">
        <ele>736.4</ele>
        <time>2019-08-14T12:22:00Z</time>
      </trkpt>
      <trkpt lat="41.2348570" lon="-4.8566110">
        <ele>736.4</ele>
        <time>2019-08-14T12:22:01Z</time>
      </trkpt>
      <trkpt lat="41.2349030" lon="-4.8566570">
        <ele>736.3</ele>
        <time>2019-08-14T12:22:02Z</time>
      </trkpt>
      <trkpt lat="41.2349480" lon="-4.8567020">
        <ele>736.3</ele>
        <time>2019-08-14T12:22:03Z</time>
      </trkpt>
      <trkpt lat="41.2349910" lon="-4.8567480">
        <ele>736.3</ele>
        <time>2019-08-14T12:22:04Z</time>
      </trkpt>
      <trkpt lat="41.2350350" lon="-4.8567910">
        <ele>736.3</ele>
        <time>2019-08-14T12:22:05Z</time>
      </trkpt>
      <trkpt lat="41.2350800" lon="-4.8568320">
        <ele>736.3</ele>
        <time>2019-08-14T12:22:06Z</time>
      </trkpt>
      <trkpt lat="41.2351250" lon="-4.8568720">
        <ele>736.3</ele>
        <time>2019-08-14T12:22:07Z</time>
      </trkpt>
      <trkpt lat="41.2351720" lon="-4.8569110">
        <ele>736.3</ele>
        <time>2019-08-14T12:22:08Z</time>
      </trkpt>
      <trkpt lat="41.2352180" lon="-4.8569520">
        <ele>736.3</ele>
        <time>2019-08-14T12:22:09Z</time>
      </trkpt>
      <trkpt lat="41.2352640" lon="-4.8569930">
        <ele>736.2</ele>
        <time>2019-08-14T12:22:10Z</time>
      </trkpt>
      <trkpt lat="41.2353090" lon="-4.8570350">
        <ele>736.2</ele>
        <time>2019-08-14T12:22:11Z</time>
      </trkpt>
      <trkpt lat="41.2353530" lon="-4.8570790">
        <ele>736.2</ele>
        <time>2019-08-14T12:22:12Z</time>
      </trkpt>
      <trkpt lat="41.2353980" lon="-4.8571210">
        <ele>736.2</ele>
        <time>2019-08-14T12:22:13Z</time>
      </trkpt>
      <trkpt lat="41.2354400" lon="-4.8571620">
        <ele>736.2</ele>
        <time>2019-08-14T12:22:14Z</time>
      </trkpt>
      <trkpt lat="41.2354820" lon="-4.8572040">
        <ele>736.2</ele>
        <time>2019-08-14T12:22:15Z</time>
      </trkpt>
      <trkpt lat="41.2355220" lon="-4.8572420">
        <ele>736.2</ele>
        <time>2019-08-14T12:22:16Z</time>
      </trkpt>
      <trkpt lat="41.2355620" lon="-4.8572780">
        <ele>736.2</ele>
        <time>2019-08-14T12:22:17Z</time>
      </trkpt>
      <trkpt lat="41.2356010" lon="-4.8573100">
        <ele>736.1</ele>
        <time>2019-08-14T12:22:18Z</time>
      </trkpt>
      <trkpt lat="41.2356370" lon="-4.8573430">
        <ele>736.1</ele>
        <time>2019-08-14T12:22:19Z</time>
      </trkpt>
      <trkpt lat="41.2356700" lon="-4.8573750">
        <ele>736.0</ele>
        <time>2019-08-14T12:22:20Z</time>
      </trkpt>
      <trkpt lat="41.2357030" lon="-4.8574060">
        <ele>736.0</ele>
        <time>2019-08-14T12:22:21Z</time>
      </trkpt>
      <trkpt lat="41.2357370" lon="-4.8574380">
        <ele>735.9</ele>
        <time>2019-08-14T12:22:22Z</time>
      </trkpt>
      <trkpt lat="41.2357710" lon="-4.8574680">
        <ele>735.9</ele>
        <time>2019-08-14T12:22:23Z</time>
      </trkpt>
      <trkpt lat="41.2358040" lon="-4.8574970">
        <ele>735.9</ele>
        <time>2019-08-14T12:22:24Z</time>
      </trkpt>
      <trkpt lat="41.2358360" lon="-4.8575270">
        <ele>735.8</ele>
        <time>2019-08-14T12:22:25Z</time>
      </trkpt>
      <trkpt lat="41.2358690" lon="-4.8575590">
        <ele>735.8</ele>
        <time>2019-08-14T12:22:26Z</time>
      </trkpt>
      <trkpt lat="41.2359050" lon="-4.8575930">
        <ele>735.7</ele>
        <time>2019-08-14T12:22:27Z</time>
      </trkpt>
      <trkpt lat="41.2359440" lon="-4.8576280">
        <ele>735.7</ele>
        <time>2019-08-14T12:22:28Z</time>
      </trkpt>
      <trkpt lat="41.2359850" lon="-4.8576650">
        <ele>735.6</ele>
        <time>2019-08-14T12:22:29Z</time>
      </trkpt>
      <trkpt lat="41.2360260" lon="-4.8577030">
        <ele>735.5</ele>
        <time>2019-08-14T12:22:30Z</time>
      </trkpt>
      <trkpt lat="41.2360670" lon="-4.8577410">
        <ele>735.5</ele>
        <time>2019-08-14T12:22:31Z</time>
      </trkpt>
      <trkpt lat="41.2361110" lon="-4.8577780">
        <ele>735.4</ele>
        <time>2019-08-14T12:22:32Z</time>
      </trkpt>
      <trkpt lat="41.2361550" lon="-4.8578170">
        <ele>735.4</ele>
        <time>2019-08-14T12:22:33Z</time>
      </trkpt>
      <trkpt lat="41.2361980" lon="-4.8578610">
        <ele>735.3</ele>
        <time>2019-08-14T12:22:34Z</time>
      </trkpt>
      <trkpt lat="41.2362400" lon="-4.8579040">
        <ele>735.3</ele>
        <time>2019-08-14T12:22:35Z</time>
      </trkpt>
      <trkpt lat="41.2362830" lon="-4.8579470">
        <ele>735.4</ele>
        <time>2019-08-14T12:22:36Z</time>
      </trkpt>
      <trkpt lat="41.2363260" lon="-4.8579870">
        <ele>735.4</ele>
        <time>2019-08-14T12:22:37Z</time>
      </trkpt>
      <trkpt lat="41.2363710" lon="-4.8580250">
        <ele>735.5</ele>
        <time>2019-08-14T12:22:38Z</time>
      </trkpt>
      <trkpt lat="41.2364150" lon="-4.8580610">
        <ele>735.6</ele>
        <time>2019-08-14T12:22:39Z</time>
      </trkpt>
      <trkpt lat="41.2364590" lon="-4.8580980">
        <ele>735.6</ele>
        <time>2019-08-14T12:22:40Z</time>
      </trkpt>
      <trkpt lat="41.2365000" lon="-4.8581360">
        <ele>735.7</ele>
        <time>2019-08-14T12:22:41Z</time>
      </trkpt>
      <trkpt lat="41.2365420" lon="-4.8581710">
        <ele>735.7</ele>
        <time>2019-08-14T12:22:42Z</time>
      </trkpt>
      <trkpt lat="41.2365840" lon="-4.8582060">
        <ele>735.6</ele>
        <time>2019-08-14T12:22:43Z</time>
      </trkpt>
      <trkpt lat="41.2366290" lon="-4.8582350">
        <ele>735.6</ele>
        <time>2019-08-14T12:22:44Z</time>
      </trkpt>
      <trkpt lat="41.2366750" lon="-4.8582600">
        <ele>735.5</ele>
        <time>2019-08-14T12:22:45Z</time>
      </trkpt>
      <trkpt lat="41.2367210" lon="-4.8582770">
        <ele>735.4</ele>
        <time>2019-08-14T12:22:46Z</time>
      </trkpt>
      <trkpt lat="41.2367700" lon="-4.8582890">
        <ele>735.3</ele>
        <time>2019-08-14T12:22:47Z</time>
      </trkpt>
      <trkpt lat="41.2368210" lon="-4.8582980">
        <ele>735.2</ele>
        <time>2019-08-14T12:22:48Z</time>
      </trkpt>
      <trkpt lat="41.2368740" lon="-4.8583020">
        <ele>735.2</ele>
        <time>2019-08-14T12:22:49Z</time>
      </trkpt>
      <trkpt lat="41.2369270" lon="-4.8583020">
        <ele>735.1</ele>
        <time>2019-08-14T12:22:50Z</time>
      </trkpt>
      <trkpt lat="41.2369800" lon="-4.8582980">
        <ele>735.0</ele>
        <time>2019-08-14T12:22:51Z</time>
      </trkpt>
      <trkpt lat="41.2370340" lon="-4.8582890">
        <ele>735.0</ele>
        <time>2019-08-14T12:22:52Z</time>
      </trkpt>
      <trkpt lat="41.2370860" lon="-4.8582750">
        <ele>735.0</ele>
        <time>2019-08-14T12:22:53Z</time>
      </trkpt>
      <trkpt lat="41.2371360" lon="-4.8582590">
        <ele>735.0</ele>
        <time>2019-08-14T12:22:54Z</time>
      </trkpt>
      <trkpt lat="41.2371880" lon="-4.8582460">
        <ele>735.0</ele>
        <time>2019-08-14T12:22:55Z</time>
      </trkpt>
      <trkpt lat="41.2372400" lon="-4.8582310">
        <ele>735.0</ele>
        <time>2019-08-14T12:22:56Z</time>
      </trkpt>
      <trkpt lat="41.2372930" lon="-4.8582140">
        <ele>735.0</ele>
        <time>2019-08-14T12:22:57Z</time>
      </trkpt>
      <trkpt lat="41.2373460" lon="-4.8581980">
        <ele>735.1</ele>
        <time>2019-08-14T12:22:58Z</time>
      </trkpt>
      <trkpt lat="41.2374000" lon="-4.8581830">
        <ele>735.1</ele>
        <time>2019-08-14T12:22:59Z</time>
      </trkpt>
      <trkpt lat="41.2374540" lon="-4.8581670">
        <ele>735.2</ele>
        <time>2019-08-14T12:23:00Z</time>
      </trkpt>
      <trkpt lat="41.2375050" lon="-4.8581530">
        <ele>735.2</ele>
        <time>2019-08-14T12:23:01Z</time>
      </trkpt>
      <trkpt lat="41.2375560" lon="-4.8581390">
        <ele>735.2</ele>
        <time>2019-08-14T12:23:02Z</time>
      </trkpt>
      <trkpt lat="41.2376050" lon="-4.8581260">
        <ele>735.2</ele>
        <time>2019-08-14T12:23:03Z</time>
      </trkpt>
      <trkpt lat="41.2376550" lon="-4.8581160">
        <ele>735.2</ele>
        <time>2019-08-14T12:23:04Z</time>
      </trkpt>
      <trkpt lat="41.2377040" lon="-4.8581090">
        <ele>735.1</ele>
        <time>2019-08-14T12:23:05Z</time>
      </trkpt>
      <trkpt lat="41.2377510" lon="-4.8581070">
        <ele>735.1</ele>
        <time>2019-08-14T12:23:06Z</time>
      </trkpt>
      <trkpt lat="41.2377990" lon="-4.8581080">
        <ele>735.0</ele>
        <time>2019-08-14T12:23:07Z</time>
      </trkpt>
      <trkpt lat="41.2378440" lon="-4.8581140">
        <ele>735.0</ele>
        <time>2019-08-14T12:23:08Z</time>
      </trkpt>
      <trkpt lat="41.2378900" lon="-4.8581240">
        <ele>734.9</ele>
        <time>2019-08-14T12:23:09Z</time>
      </trkpt>
      <trkpt lat="41.2379370" lon="-4.8581370">
        <ele>734.9</ele>
        <time>2019-08-14T12:23:10Z</time>
      </trkpt>
      <trkpt lat="41.2379850" lon="-4.8581550">
        <ele>734.9</ele>
        <time>2019-08-14T12:23:11Z</time>
      </trkpt>
      <trkpt lat="41.2380350" lon="-4.8581780">
        <ele>734.8</ele>
        <time>2019-08-14T12:23:12Z</time>
      </trkpt>
      <trkpt lat="41.2380830" lon="-4.8582060">
        <ele>734.8</ele>
        <time>2019-08-14T12:23:13Z</time>
      </trkpt>
      <trkpt lat="41.2381300" lon="-4.8582390">
        <ele>734.8</ele>
        <time>2019-08-14T12:23:14Z</time>
      </trkpt>
      <trkpt lat="41.2381750" lon="-4.8582760">
        <ele>734.7</ele>
        <time>2019-08-14T12:23:15Z</time>
      </trkpt>
      <trkpt lat="41.2382190" lon="-4.8583160">
        <ele>734.7</ele>
        <time>2019-08-14T12:23:16Z</time>
      </trkpt>
      <trkpt lat="41.2382630" lon="-4.8583580">
        <ele>734.7</ele>
        <time>2019-08-14T12:23:17Z</time>
      </trkpt>
      <trkpt lat="41.2383020" lon="-4.8584020">
        <ele>734.7</ele>
        <time>2019-08-14T12:23:18Z</time>
      </trkpt>
      <trkpt lat="41.2383370" lon="-4.8584490">
        <ele>734.7</ele>
        <time>2019-08-14T12:23:19Z</time>
      </trkpt>
      <trkpt lat="41.2383700" lon="-4.8584970">
        <ele>734.7</ele>
        <time>2019-08-14T12:23:20Z</time>
      </trkpt>
      <trkpt lat="41.2384030" lon="-4.8585440">
        <ele>734.7</ele>
        <time>2019-08-14T12:23:21Z</time>
      </trkpt>
      <trkpt lat="41.2384370" lon="-4.8585890">
        <ele>734.7</ele>
        <time>2019-08-14T12:23:22Z</time>
      </trkpt>
      <trkpt lat="41.2384680" lon="-4.8586340">
        <ele>734.7</ele>
        <time>2019-08-14T12:23:23Z</time>
      </trkpt>
      <trkpt lat="41.2384980" lon="-4.8586810">
        <ele>734.7</ele>
        <time>2019-08-14T12:23:24Z</time>
      </trkpt>
      <trkpt lat="41.2385300" lon="-4.8587310">
        <ele>734.7</ele>
        <time>2019-08-14T12:23:25Z</time>
      </trkpt>
      <trkpt lat="41.2385610" lon="-4.8587820">
        <ele>734.7</ele>
        <time>2019-08-14T12:23:26Z</time>
      </trkpt>
      <trkpt lat="41.2385950" lon="-4.8588340">
        <ele>734.7</ele>
        <time>2019-08-14T12:23:27Z</time>
      </trkpt>
      <trkpt lat="41.2386290" lon="-4.8588840">
        <ele>734.7</ele>
        <time>2019-08-14T12:23:28Z</time>
      </trkpt>
      <trkpt lat="41.2386640" lon="-4.8589340">
        <ele>734.7</ele>
        <time>2019-08-14T12:23:29Z</time>
      </trkpt>
      <trkpt lat="41.2387000" lon="-4.8589820">
        <ele>734.7</ele>
        <time>2019-08-14T12:23:30Z</time>
      </trkpt>
      <trkpt lat="41.2387370" lon="-4.8590270">
        <ele>734.8</ele>
        <time>2019-08-14T12:23:31Z</time>
      </trkpt>
      <trkpt lat="41.2387750" lon="-4.8590690">
        <ele>734.8</ele>
        <time>2019-08-14T12:23:32Z</time>
      </trkpt>
      <trkpt lat="41.2388140" lon="-4.8591080">
        <ele>734.8</ele>
        <time>2019-08-14T12:23:33Z</time>
      </trkpt>
      <trkpt lat="41.2388540" lon="-4.8591440">
        <ele>734.8</ele>
        <time>2019-08-14T12:23:34Z</time>
      </trkpt>
      <trkpt lat="41.2388920" lon="-4.8591750">
        <ele>734.8</ele>
        <time>2019-08-14T12:23:35Z</time>
      </trkpt>
      <trkpt lat="41.2389290" lon="-4.8592040">
        <ele>734.8</ele>
        <time>2019-08-14T12:23:36Z</time>
      </trkpt>
      <trkpt lat="41.2389630" lon="-4.8592320">
        <ele>734.8</ele>
        <time>2019-08-14T12:23:37Z</time>
      </trkpt>
      <trkpt lat="41.2389940" lon="-4.8592590">
        <ele>734.9</ele>
        <time>2019-08-14T12:23:38Z</time>
      </trkpt>
      <trkpt lat="41.2390190" lon="-4.8592860">
        <ele>734.9</ele>
        <time>2019-08-14T12:23:39Z</time>
      </trkpt>
      <trkpt lat="41.2390410" lon="-4.8593110">
        <ele>734.9</ele>
        <time>2019-08-14T12:23:40Z</time>
      </trkpt>
      <trkpt lat="41.2390670" lon="-4.8593480">
        <ele>735.0</ele>
        <time>2019-08-14T12:23:42Z</time>
      </trkpt>
      <trkpt lat="41.2390840" lon="-4.8593840">
        <ele>735.0</ele>
        <time>2019-08-14T12:23:44Z</time>
      </trkpt>
      <trkpt lat="41.2390960" lon="-4.8594430">
        <ele>735.0</ele>
        <time>2019-08-14T12:23:46Z</time>
      </trkpt>
      <trkpt lat="41.2390900" lon="-4.8594800">
        <ele>735.1</ele>
        <time>2019-08-14T12:23:47Z</time>
      </trkpt>
      <trkpt lat="41.2390740" lon="-4.8595190">
        <ele>735.2</ele>
        <time>2019-08-14T12:23:48Z</time>
      </trkpt>
      <trkpt lat="41.2390490" lon="-4.8595530">
        <ele>735.2</ele>
        <time>2019-08-14T12:23:49Z</time>
      </trkpt>
      <trkpt lat="41.2390230" lon="-4.8595770">
        <ele>735.3</ele>
        <time>2019-08-14T12:23:50Z</time>
      </trkpt>
      <trkpt lat="41.2389450" lon="-4.8596050">
        <ele>735.3</ele>
        <time>2019-08-14T12:23:58Z</time>
      </trkpt>
      <trkpt lat="41.2388890" lon="-4.8596310">
        <ele>735.4</ele>
        <time>2019-08-14T12:24:50Z</time>
      </trkpt>
      <trkpt lat="41.2388330" lon="-4.8596560">
        <ele>735.4</ele>
        <time>2019-08-14T12:24:51Z</time>
      </trkpt>
      <trkpt lat="41.2387950" lon="-4.8596790">
        <ele>735.4</ele>
        <time>2019-08-14T12:24:52Z</time>
      </trkpt>
      <trkpt lat="41.2387550" lon="-4.8597050">
        <ele>735.4</ele>
        <time>2019-08-14T12:24:53Z</time>
      </trkpt>
      <trkpt lat="41.2387110" lon="-4.8597300">
        <ele>735.4</ele>
        <time>2019-08-14T12:24:54Z</time>
      </trkpt>
      <trkpt lat="41.2386680" lon="-4.8597520">
        <ele>735.4</ele>
        <time>2019-08-14T12:24:55Z</time>
      </trkpt>
      <trkpt lat="41.2386260" lon="-4.8597750">
        <ele>735.4</ele>
        <time>2019-08-14T12:24:56Z</time>
      </trkpt>
      <trkpt lat="41.2385850" lon="-4.8597970">
        <ele>735.4</ele>
        <time>2019-08-14T12:24:57Z</time>
      </trkpt>
      <trkpt lat="41.2385440" lon="-4.8598190">
        <ele>735.3</ele>
        <time>2019-08-14T12:24:58Z</time>
      </trkpt>
      <trkpt lat="41.2385060" lon="-4.8598410">
        <ele>735.3</ele>
        <time>2019-08-14T12:24:59Z</time>
      </trkpt>
      <trkpt lat="41.2384760" lon="-4.8598670">
        <ele>735.3</ele>
        <time>2019-08-14T12:25:00Z</time>
      </trkpt>
      <trkpt lat="41.2384510" lon="-4.8599040">
        <ele>735.3</ele>
        <time>2019-08-14T12:25:01Z</time>
      </trkpt>
      <trkpt lat="41.2384370" lon="-4.8599520">
        <ele>735.3</ele>
        <time>2019-08-14T12:25:02Z</time>
      </trkpt>
      <trkpt lat="41.2384360" lon="-4.8600060">
        <ele>735.4</ele>
        <time>2019-08-14T12:25:03Z</time>
      </trkpt>
      <trkpt lat="41.2384520" lon="-4.8600580">
        <ele>735.4</ele>
        <time>2019-08-14T12:25:04Z</time>
      </trkpt>
      <trkpt lat="41.2384790" lon="-4.8601020">
        <ele>735.4</ele>
        <time>2019-08-14T12:25:05Z</time>
      </trkpt>
      <trkpt lat="41.2385160" lon="-4.8601420">
        <ele>735.5</ele>
        <time>2019-08-14T12:25:06Z</time>
      </trkpt>
      <trkpt lat="41.2385560" lon="-4.8601810">
        <ele>735.5</ele>
        <time>2019-08-14T12:25:07Z</time>
      </trkpt>
      <trkpt lat="41.2385970" lon="-4.8602220">
        <ele>735.6</ele>
        <time>2019-08-14T12:25:08Z</time>
      </trkpt>
      <trkpt lat="41.2386400" lon="-4.8602680">
        <ele>735.6</ele>
        <time>2019-08-14T12:25:09Z</time>
      </trkpt>
      <trkpt lat="41.2386850" lon="-4.8603160">
        <ele>735.7</ele>
        <time>2019-08-14T12:25:10Z</time>
      </trkpt>
      <trkpt lat="41.2387290" lon="-4.8603670">
        <ele>735.7</ele>
        <time>2019-08-14T12:25:11Z</time>
      </trkpt>
      <trkpt lat="41.2387710" lon="-4.8604220">
        <ele>735.7</ele>
        <time>2019-08-14T12:25:12Z</time>
      </trkpt>
      <trkpt lat="41.2388100" lon="-4.8604830">
        <ele>735.6</ele>
        <time>2019-08-14T12:25:13Z</time>
      </trkpt>
      <trkpt lat="41.2388470" lon="-4.8605420">
        <ele>735.5</ele>
        <time>2019-08-14T12:25:14Z</time>
      </trkpt>
      <trkpt lat="41.2388840" lon="-4.8606000">
        <ele>735.5</ele>
        <time>2019-08-14T12:25:15Z</time>
      </trkpt>
      <trkpt lat="41.2389210" lon="-4.8606550">
        <ele>735.4</ele>
        <time>2019-08-14T12:25:16Z</time>
      </trkpt>
      <trkpt lat="41.2389600" lon="-4.8607060">
        <ele>735.2</ele>
        <time>2019-08-14T12:25:17Z</time>
      </trkpt>
      <trkpt lat="41.2390000" lon="-4.8607530">
        <ele>735.1</ele>
        <time>2019-08-14T12:25:18Z</time>
      </trkpt>
      <trkpt lat="41.2390410" lon="-4.8607980">
        <ele>735.0</ele>
        <time>2019-08-14T12:25:19Z</time>
      </trkpt>
      <trkpt lat="41.2390850" lon="-4.8608420">
        <ele>734.8</ele>
        <time>2019-08-14T12:25:20Z</time>
      </trkpt>
      <trkpt lat="41.2391300" lon="-4.8608860">
        <ele>734.7</ele>
        <time>2019-08-14T12:25:21Z</time>
      </trkpt>
      <trkpt lat="41.2391760" lon="-4.8609310">
        <ele>734.5</ele>
        <time>2019-08-14T12:25:22Z</time>
      </trkpt>
      <trkpt lat="41.2392210" lon="-4.8609770">
        <ele>734.3</ele>
        <time>2019-08-14T12:25:23Z</time>
      </trkpt>
      <trkpt lat="41.2392660" lon="-4.8610220">
        <ele>734.1</ele>
        <time>2019-08-14T12:25:24Z</time>
      </trkpt>
      <trkpt lat="41.2393130" lon="-4.8610670">
        <ele>734.0</ele>
        <time>2019-08-14T12:25:25Z</time>
      </trkpt>
      <trkpt lat="41.2393620" lon="-4.8611120">
        <ele>734.0</ele>
        <time>2019-08-14T12:25:26Z</time>
      </trkpt>
      <trkpt lat="41.2394100" lon="-4.8611580">
        <ele>733.9</ele>
        <time>2019-08-14T12:25:27Z</time>
      </trkpt>
      <trkpt lat="41.2394560" lon="-4.8612070">
        <ele>733.8</ele>
        <time>2019-08-14T12:25:28Z</time>
      </trkpt>
      <trkpt lat="41.2395030" lon="-4.8612540">
        <ele>733.8</ele>
        <time>2019-08-14T12:25:29Z</time>
      </trkpt>
      <trkpt lat="41.2395490" lon="-4.8613030">
        <ele>733.8</ele>
        <time>2019-08-14T12:25:30Z</time>
      </trkpt>
      <trkpt lat="41.2395970" lon="-4.8613570">
        <ele>733.9</ele>
        <time>2019-08-14T12:25:31Z</time>
      </trkpt>
      <trkpt lat="41.2396490" lon="-4.8614160">
        <ele>733.9</ele>
        <time>2019-08-14T12:25:32Z</time>
      </trkpt>
      <trkpt lat="41.2397020" lon="-4.8614740">
        <ele>734.0</ele>
        <time>2019-08-14T12:25:33Z</time>
      </trkpt>
      <trkpt lat="41.2397550" lon="-4.8615230">
        <ele>734.1</ele>
        <time>2019-08-14T12:25:34Z</time>
      </trkpt>
      <trkpt lat="41.2398020" lon="-4.8615630">
        <ele>734.1</ele>
        <time>2019-08-14T12:25:35Z</time>
      </trkpt>
      <trkpt lat="41.2398420" lon="-4.8615960">
        <ele>734.1</ele>
        <time>2019-08-14T12:25:36Z</time>
      </trkpt>
      <trkpt lat="41.2398760" lon="-4.8616280">
        <ele>734.2</ele>
        <time>2019-08-14T12:25:37Z</time>
      </trkpt>
      <trkpt lat="41.2399080" lon="-4.8616590">
        <ele>734.2</ele>
        <time>2019-08-14T12:25:38Z</time>
      </trkpt>
      <trkpt lat="41.2399400" lon="-4.8616890">
        <ele>734.3</ele>
        <time>2019-08-14T12:25:39Z</time>
      </trkpt>
      <trkpt lat="41.2399740" lon="-4.8617180">
        <ele>734.3</ele>
        <time>2019-08-14T12:25:40Z</time>
      </trkpt>
      <trkpt lat="41.2400080" lon="-4.8617490">
        <ele>734.3</ele>
        <time>2019-08-14T12:25:41Z</time>
      </trkpt>
      <trkpt lat="41.2400410" lon="-4.8617850">
        <ele>734.3</ele>
        <time>2019-08-14T12:25:42Z</time>
      </trkpt>
      <trkpt lat="41.2400760" lon="-4.8618230">
        <ele>734.4</ele>
        <time>2019-08-14T12:25:43Z</time>
      </trkpt>
      <trkpt lat="41.2401130" lon="-4.8618630">
        <ele>734.4</ele>
        <time>2019-08-14T12:25:44Z</time>
      </trkpt>
      <trkpt lat="41.2401530" lon="-4.8619030">
        <ele>734.4</ele>
        <time>2019-08-14T12:25:45Z</time>
      </trkpt>
      <trkpt lat="41.2401940" lon="-4.8619450">
        <ele>734.4</ele>
        <time>2019-08-14T12:25:46Z</time>
      </trkpt>
      <trkpt lat="41.2402360" lon="-4.8619890">
        <ele>734.4</ele>
        <time>2019-08-14T12:25:47Z</time>
      </trkpt>
      <trkpt lat="41.2402770" lon="-4.8620330">
        <ele>734.3</ele>
        <time>2019-08-14T12:25:48Z</time>
      </trkpt>
      <trkpt lat="41.2403170" lon="-4.8620780">
        <ele>734.3</ele>
        <time>2019-08-14T12:25:49Z</time>
      </trkpt>
      <trkpt lat="41.2403610" lon="-4.8621220">
        <ele>734.3</ele>
        <time>2019-08-14T12:25:50Z</time>
      </trkpt>
      <trkpt lat="41.2404060" lon="-4.8621640">
        <ele>734.3</ele>
        <time>2019-08-14T12:25:51Z</time>
      </trkpt>
      <trkpt lat="41.2404490" lon="-4.8622070">
        <ele>734.2</ele>
        <time>2019-08-14T12:25:52Z</time>
      </trkpt>
      <trkpt lat="41.2404930" lon="-4.8622510">
        <ele>734.2</ele>
        <time>2019-08-14T12:25:53Z</time>
      </trkpt>
      <trkpt lat="41.2405380" lon="-4.8622960">
        <ele>734.1</ele>
        <time>2019-08-14T12:25:54Z</time>
      </trkpt>
      <trkpt lat="41.2405820" lon="-4.8623410">
        <ele>734.1</ele>
        <time>2019-08-14T12:25:55Z</time>
      </trkpt>
      <trkpt lat="41.2406280" lon="-4.8623860">
        <ele>734.0</ele>
        <time>2019-08-14T12:25:56Z</time>
      </trkpt>
      <trkpt lat="41.2406740" lon="-4.8624300">
        <ele>733.9</ele>
        <time>2019-08-14T12:25:57Z</time>
      </trkpt>
      <trkpt lat="41.2407220" lon="-4.8624720">
        <ele>733.8</ele>
        <time>2019-08-14T12:25:58Z</time>
      </trkpt>
      <trkpt lat="41.2407690" lon="-4.8625130">
        <ele>733.8</ele>
        <time>2019-08-14T12:25:59Z</time>
      </trkpt>
      <trkpt lat="41.2408170" lon="-4.8625580">
        <ele>733.7</ele>
        <time>2019-08-14T12:26:00Z</time>
      </trkpt>
      <trkpt lat="41.2408640" lon="-4.8626040">
        <ele>733.6</ele>
        <time>2019-08-14T12:26:01Z</time>
      </trkpt>
      <trkpt lat="41.2409130" lon="-4.8626510">
        <ele>733.6</ele>
        <time>2019-08-14T12:26:02Z</time>
      </trkpt>
      <trkpt lat="41.2409610" lon="-4.8626990">
        <ele>733.6</ele>
        <time>2019-08-14T12:26:03Z</time>
      </trkpt>
      <trkpt lat="41.2410070" lon="-4.8627480">
        <ele>733.5</ele>
        <time>2019-08-14T12:26:04Z</time>
      </trkpt>
      <trkpt lat="41.2410540" lon="-4.8627970">
        <ele>733.5</ele>
        <time>2019-08-14T12:26:05Z</time>
      </trkpt>
      <trkpt lat="41.2411020" lon="-4.8628470">
        <ele>733.6</ele>
        <time>2019-08-14T12:26:06Z</time>
      </trkpt>
      <trkpt lat="41.2411500" lon="-4.8628950">
        <ele>733.6</ele>
        <time>2019-08-14T12:26:07Z</time>
      </trkpt>
      <trkpt lat="41.2411980" lon="-4.8629420">
        <ele>733.6</ele>
        <time>2019-08-14T12:26:08Z</time>
      </trkpt>
      <trkpt lat="41.2412460" lon="-4.8629890">
        <ele>733.7</ele>
        <time>2019-08-14T12:26:09Z</time>
      </trkpt>
      <trkpt lat="41.2412920" lon="-4.8630360">
        <ele>733.7</ele>
        <time>2019-08-14T12:26:10Z</time>
      </trkpt>
      <trkpt lat="41.2413380" lon="-4.8630850">
        <ele>733.8</ele>
        <time>2019-08-14T12:26:11Z</time>
      </trkpt>
      <trkpt lat="41.2413860" lon="-4.8631350">
        <ele>733.8</ele>
        <time>2019-08-14T12:26:12Z</time>
      </trkpt>
      <trkpt lat="41.2414330" lon="-4.8631840">
        <ele>733.8</ele>
        <time>2019-08-14T12:26:13Z</time>
      </trkpt>
      <trkpt lat="41.2414790" lon="-4.8632340">
        <ele>733.8</ele>
        <time>2019-08-14T12:26:14Z</time>
      </trkpt>
      <trkpt lat="41.2415250" lon="-4.8632860">
        <ele>733.8</ele>
        <time>2019-08-14T12:26:15Z</time>
      </trkpt>
      <trkpt lat="41.2415720" lon="-4.8633380">
        <ele>733.8</ele>
        <time>2019-08-14T12:26:16Z</time>
      </trkpt>
      <trkpt lat="41.2416200" lon="-4.8633890">
        <ele>733.8</ele>
        <time>2019-08-14T12:26:17Z</time>
      </trkpt>
      <trkpt lat="41.2416690" lon="-4.8634390">
        <ele>733.7</ele>
        <time>2019-08-14T12:26:18Z</time>
      </trkpt>
      <trkpt lat="41.2417180" lon="-4.8634900">
        <ele>733.7</ele>
        <time>2019-08-14T12:26:19Z</time>
      </trkpt>
      <trkpt lat="41.2417680" lon="-4.8635410">
        <ele>733.6</ele>
        <time>2019-08-14T12:26:20Z</time>
      </trkpt>
      <trkpt lat="41.2418170" lon="-4.8635930">
        <ele>733.5</ele>
        <time>2019-08-14T12:26:21Z</time>
      </trkpt>
      <trkpt lat="41.2418650" lon="-4.8636460">
        <ele>733.5</ele>
        <time>2019-08-14T12:26:22Z</time>
      </trkpt>
      <trkpt lat="41.2419140" lon="-4.8636990">
        <ele>733.4</ele>
        <time>2019-08-14T12:26:23Z</time>
      </trkpt>
      <trkpt lat="41.2419610" lon="-4.8637510">
        <ele>733.4</ele>
        <time>2019-08-14T12:26:24Z</time>
      </trkpt>
      <trkpt lat="41.2420100" lon="-4.8638030">
        <ele>733.3</ele>
        <time>2019-08-14T12:26:25Z</time>
      </trkpt>
      <trkpt lat="41.2420580" lon="-4.8638560">
        <ele>733.3</ele>
        <time>2019-08-14T12:26:26Z</time>
      </trkpt>
      <trkpt lat="41.2421070" lon="-4.8639080">
        <ele>733.3</ele>
        <time>2019-08-14T12:26:27Z</time>
      </trkpt>
      <trkpt lat="41.2421560" lon="-4.8639610">
        <ele>733.2</ele>
        <time>2019-08-14T12:26:28Z</time>
      </trkpt>
      <trkpt lat="41.2422060" lon="-4.8640130">
        <ele>733.2</ele>
        <time>2019-08-14T12:26:29Z</time>
      </trkpt>
      <trkpt lat="41.2422530" lon="-4.8640640">
        <ele>733.2</ele>
        <time>2019-08-14T12:26:30Z</time>
      </trkpt>
      <trkpt lat="41.2423010" lon="-4.8641160">
        <ele>733.2</ele>
        <time>2019-08-14T12:26:31Z</time>
      </trkpt>
      <trkpt lat="41.2423480" lon="-4.8641660">
        <ele>733.2</ele>
        <time>2019-08-14T12:26:32Z</time>
      </trkpt>
      <trkpt lat="41.2423960" lon="-4.8642150">
        <ele>733.2</ele>
        <time>2019-08-14T12:26:33Z</time>
      </trkpt>
      <trkpt lat="41.2424440" lon="-4.8642650">
        <ele>733.2</ele>
        <time>2019-08-14T12:26:34Z</time>
      </trkpt>
      <trkpt lat="41.2424920" lon="-4.8643160">
        <ele>733.3</ele>
        <time>2019-08-14T12:26:35Z</time>
      </trkpt>
      <trkpt lat="41.2425380" lon="-4.8643680">
        <ele>733.3</ele>
        <time>2019-08-14T12:26:36Z</time>
      </trkpt>
      <trkpt lat="41.2425860" lon="-4.8644180">
        <ele>733.4</ele>
        <time>2019-08-14T12:26:37Z</time>
      </trkpt>
      <trkpt lat="41.2426340" lon="-4.8644660">
        <ele>733.4</ele>
        <time>2019-08-14T12:26:38Z</time>
      </trkpt>
      <trkpt lat="41.2426820" lon="-4.8645150">
        <ele>733.4</ele>
        <time>2019-08-14T12:26:39Z</time>
      </trkpt>
      <trkpt lat="41.2427300" lon="-4.8645620">
        <ele>733.5</ele>
        <time>2019-08-14T12:26:40Z</time>
      </trkpt>
      <trkpt lat="41.2427780" lon="-4.8646090">
        <ele>733.6</ele>
        <time>2019-08-14T12:26:41Z</time>
      </trkpt>
      <trkpt lat="41.2428270" lon="-4.8646590">
        <ele>733.6</ele>
        <time>2019-08-14T12:26:42Z</time>
      </trkpt>
      <trkpt lat="41.2428750" lon="-4.8647050">
        <ele>733.7</ele>
        <time>2019-08-14T12:26:43Z</time>
      </trkpt>
      <trkpt lat="41.2429240" lon="-4.8647510">
        <ele>733.8</ele>
        <time>2019-08-14T12:26:44Z</time>
      </trkpt>
      <trkpt lat="41.2429730" lon="-4.8647960">
        <ele>733.9</ele>
        <time>2019-08-14T12:26:45Z</time>
      </trkpt>
      <trkpt lat="41.2430230" lon="-4.8648400">
        <ele>733.9</ele>
        <time>2019-08-14T12:26:46Z</time>
      </trkpt>
      <trkpt lat="41.2430740" lon="-4.8648840">
        <ele>734.0</ele>
        <time>2019-08-14T12:26:47Z</time>
      </trkpt>
      <trkpt lat="41.2431250" lon="-4.8649240">
        <ele>734.1</ele>
        <time>2019-08-14T12:26:48Z</time>
      </trkpt>
      <trkpt lat="41.2431770" lon="-4.8649640">
        <ele>734.1</ele>
        <time>2019-08-14T12:26:49Z</time>
      </trkpt>
      <trkpt lat="41.2432290" lon="-4.8650050">
        <ele>734.1</ele>
        <time>2019-08-14T12:26:50Z</time>
      </trkpt>
      <trkpt lat="41.2432820" lon="-4.8650440">
        <ele>734.2</ele>
        <time>2019-08-14T12:26:51Z</time>
      </trkpt>
      <trkpt lat="41.2433360" lon="-4.8650820">
        <ele>734.2</ele>
        <time>2019-08-14T12:26:52Z</time>
      </trkpt>
      <trkpt lat="41.2433900" lon="-4.8651200">
        <ele>734.2</ele>
        <time>2019-08-14T12:26:53Z</time>
      </trkpt>
      <trkpt lat="41.2434450" lon="-4.8651570">
        <ele>734.1</ele>
        <time>2019-08-14T12:26:54Z</time>
      </trkpt>
      <trkpt lat="41.2434980" lon="-4.8651940">
        <ele>734.0</ele>
        <time>2019-08-14T12:26:55Z</time>
      </trkpt>
      <trkpt lat="41.2435520" lon="-4.8652330">
        <ele>733.9</ele>
        <time>2019-08-14T12:26:56Z</time>
      </trkpt>
      <trkpt lat="41.2436060" lon="-4.8652730">
        <ele>733.8</ele>
        <time>2019-08-14T12:26:57Z</time>
      </trkpt>
      <trkpt lat="41.2436630" lon="-4.8653100">
        <ele>733.6</ele>
        <time>2019-08-14T12:26:58Z</time>
      </trkpt>
      <trkpt lat="41.2437200" lon="-4.8653470">
        <ele>733.5</ele>
        <time>2019-08-14T12:26:59Z</time>
      </trkpt>
      <trkpt lat="41.2437770" lon="-4.8653840">
        <ele>733.3</ele>
        <time>2019-08-14T12:27:00Z</time>
      </trkpt>
      <trkpt lat="41.2438340" lon="-4.8654230">
        <ele>733.1</ele>
        <time>2019-08-14T12:27:01Z</time>
      </trkpt>
      <trkpt lat="41.2438900" lon="-4.8654620">
        <ele>732.9</ele>
        <time>2019-08-14T12:27:02Z</time>
      </trkpt>
      <trkpt lat="41.2439430" lon="-4.8655000">
        <ele>732.8</ele>
        <time>2019-08-14T12:27:03Z</time>
      </trkpt>
      <trkpt lat="41.2439950" lon="-4.8655380">
        <ele>732.7</ele>
        <time>2019-08-14T12:27:04Z</time>
      </trkpt>
      <trkpt lat="41.2440460" lon="-4.8655760">
        <ele>732.6</ele>
        <time>2019-08-14T12:27:05Z</time>
      </trkpt>
      <trkpt lat="41.2440950" lon="-4.8656130">
        <ele>732.5</ele>
        <time>2019-08-14T12:27:06Z</time>
      </trkpt>
      <trkpt lat="41.2441400" lon="-4.8656440">
        <ele>732.4</ele>
        <time>2019-08-14T12:27:07Z</time>
      </trkpt>
      <trkpt lat="41.2441770" lon="-4.8656640">
        <ele>732.4</ele>
        <time>2019-08-14T12:27:08Z</time>
      </trkpt>
      <trkpt lat="41.2442090" lon="-4.8656690">
        <ele>732.3</ele>
        <time>2019-08-14T12:27:09Z</time>
      </trkpt>
      <trkpt lat="41.2442480" lon="-4.8656460">
        <ele>731.8</ele>
        <time>2019-08-14T12:27:11Z</time>
      </trkpt>
      <trkpt lat="41.2442620" lon="-4.8656080">
        <ele>731.3</ele>
        <time>2019-08-14T12:27:18Z</time>
      </trkpt>
      <trkpt lat="41.2442670" lon="-4.8655730">
        <ele>730.8</ele>
        <time>2019-08-14T12:27:25Z</time>
      </trkpt>
      <trkpt lat="41.2442940" lon="-4.8655470">
        <ele>730.3</ele>
        <time>2019-08-14T12:27:27Z</time>
      </trkpt>
      <trkpt lat="41.2443460" lon="-4.8655370">
        <ele>730.4</ele>
        <time>2019-08-14T12:27:29Z</time>
      </trkpt>
      <trkpt lat="41.2443790" lon="-4.8655450">
        <ele>730.4</ele>
        <time>2019-08-14T12:27:30Z</time>
      </trkpt>
      <trkpt lat="41.2444120" lon="-4.8655620">
        <ele>730.5</ele>
        <time>2019-08-14T12:27:31Z</time>
      </trkpt>
      <trkpt lat="41.2444450" lon="-4.8655840">
        <ele>730.5</ele>
        <time>2019-08-14T12:27:32Z</time>
      </trkpt>
      <trkpt lat="41.2444800" lon="-4.8656100">
        <ele>730.6</ele>
        <time>2019-08-14T12:27:33Z</time>
      </trkpt>
      <trkpt lat="41.2445150" lon="-4.8656390">
        <ele>730.6</ele>
        <time>2019-08-14T12:27:34Z</time>
      </trkpt>
      <trkpt lat="41.2445530" lon="-4.8656690">
        <ele>730.7</ele>
        <time>2019-08-14T12:27:35Z</time>
      </trkpt>
      <trkpt lat="41.2445950" lon="-4.8656960">
        <ele>730.7</ele>
        <time>2019-08-14T12:27:36Z</time>
      </trkpt>
      <trkpt lat="41.2446390" lon="-4.8657220">
        <ele>730.7</ele>
        <time>2019-08-14T12:27:37Z</time>
      </trkpt>
      <trkpt lat="41.2446850" lon="-4.8657510">
        <ele>730.7</ele>
        <time>2019-08-14T12:27:38Z</time>
      </trkpt>
      <trkpt lat="41.2447320" lon="-4.8657810">
        <ele>730.8</ele>
        <time>2019-08-14T12:27:39Z</time>
      </trkpt>
      <trkpt lat="41.2447790" lon="-4.8658120">
        <ele>730.8</ele>
        <time>2019-08-14T12:27:40Z</time>
      </trkpt>
      <trkpt lat="41.2448260" lon="-4.8658450">
        <ele>730.8</ele>
        <time>2019-08-14T12:27:41Z</time>
      </trkpt>
      <trkpt lat="41.2448730" lon="-4.8658810">
        <ele>730.8</ele>
        <time>2019-08-14T12:27:42Z</time>
      </trkpt>
      <trkpt lat="41.2449210" lon="-4.8659150">
        <ele>730.8</ele>
        <time>2019-08-14T12:27:43Z</time>
      </trkpt>
      <trkpt lat="41.2449690" lon="-4.8659490">
        <ele>730.8</ele>
        <time>2019-08-14T12:27:44Z</time>
      </trkpt>
      <trkpt lat="41.2450190" lon="-4.8659810">
        <ele>730.9</ele>
        <time>2019-08-14T12:27:45Z</time>
      </trkpt>
      <trkpt lat="41.2450690" lon="-4.8660160">
        <ele>730.9</ele>
        <time>2019-08-14T12:27:46Z</time>
      </trkpt>
      <trkpt lat="41.2451180" lon="-4.8660520">
        <ele>730.9</ele>
        <time>2019-08-14T12:27:47Z</time>
      </trkpt>
      <trkpt lat="41.2451680" lon="-4.8660890">
        <ele>730.9</ele>
        <time>2019-08-14T12:27:48Z</time>
      </trkpt>
      <trkpt lat="41.2452200" lon="-4.8661250">
        <ele>730.9</ele>
        <time>2019-08-14T12:27:49Z</time>
      </trkpt>
      <trkpt lat="41.2452720" lon="-4.8661600">
        <ele>730.9</ele>
        <time>2019-08-14T12:27:50Z</time>
      </trkpt>
      <trkpt lat="41.2453230" lon="-4.8661970">
        <ele>730.9</ele>
        <time>2019-08-14T12:27:51Z</time>
      </trkpt>
      <trkpt lat="41.2453750" lon="-4.8662340">
        <ele>730.9</ele>
        <time>2019-08-14T12:27:52Z</time>
      </trkpt>
      <trkpt lat="41.2454260" lon="-4.8662710">
        <ele>730.9</ele>
        <time>2019-08-14T12:27:53Z</time>
      </trkpt>
      <trkpt lat="41.2454780" lon="-4.8663080">
        <ele>730.9</ele>
        <time>2019-08-14T12:27:54Z</time>
      </trkpt>
      <trkpt lat="41.2455310" lon="-4.8663460">
        <ele>730.8</ele>
        <time>2019-08-14T12:27:55Z</time>
      </trkpt>
      <trkpt lat="41.2455840" lon="-4.8663830">
        <ele>730.8</ele>
        <time>2019-08-14T12:27:56Z</time>
      </trkpt>
      <trkpt lat="41.2456370" lon="-4.8664190">
        <ele>730.8</ele>
        <time>2019-08-14T12:27:57Z</time>
      </trkpt>
      <trkpt lat="41.2456900" lon="-4.8664530">
        <ele>730.9</ele>
        <time>2019-08-14T12:27:58Z</time>
      </trkpt>
      <trkpt lat="41.2457410" lon="-4.8664860">
        <ele>730.9</ele>
        <time>2019-08-14T12:27:59Z</time>
      </trkpt>
      <trkpt lat="41.2457910" lon="-4.8665210">
        <ele>731.0</ele>
        <time>2019-08-14T12:28:00Z</time>
      </trkpt>
      <trkpt lat="41.2458370" lon="-4.8665550">
        <ele>731.1</ele>
        <time>2019-08-14T12:28:01Z</time>
      </trkpt>
      <trkpt lat="41.2458810" lon="-4.8665900">
        <ele>731.2</ele>
        <time>2019-08-14T12:28:02Z</time>
      </trkpt>
      <trkpt lat="41.2459240" lon="-4.8666220">
        <ele>731.3</ele>
        <time>2019-08-14T12:28:03Z</time>
      </trkpt>
      <trkpt lat="41.2459690" lon="-4.8666520">
        <ele>731.3</ele>
        <time>2019-08-14T12:28:04Z</time>
      </trkpt>
      <trkpt lat="41.2460140" lon="-4.8666830">
        <ele>731.4</ele>
        <time>2019-08-14T12:28:05Z</time>
      </trkpt>
      <trkpt lat="41.2460600" lon="-4.8667130">
        <ele>731.4</ele>
        <time>2019-08-14T12:28:06Z</time>
      </trkpt>
      <trkpt lat="41.2461080" lon="-4.8667440">
        <ele>731.4</ele>
        <time>2019-08-14T12:28:07Z</time>
      </trkpt>
      <trkpt lat="41.2461550" lon="-4.8667790">
        <ele>731.5</ele>
        <time>2019-08-14T12:28:08Z</time>
      </trkpt>
      <trkpt lat="41.2462010" lon="-4.8668130">
        <ele>731.5</ele>
        <time>2019-08-14T12:28:09Z</time>
      </trkpt>
      <trkpt lat="41.2462490" lon="-4.8668480">
        <ele>731.5</ele>
        <time>2019-08-14T12:28:10Z</time>
      </trkpt>
      <trkpt lat="41.2462970" lon="-4.8668810">
        <ele>731.6</ele>
        <time>2019-08-14T12:28:11Z</time>
      </trkpt>
      <trkpt lat="41.2463450" lon="-4.8669160">
        <ele>731.7</ele>
        <time>2019-08-14T12:28:12Z</time>
      </trkpt>
      <trkpt lat="41.2463940" lon="-4.8669500">
        <ele>731.8</ele>
        <time>2019-08-14T12:28:13Z</time>
      </trkpt>
      <trkpt lat="41.2464420" lon="-4.8669840">
        <ele>731.9</ele>
        <time>2019-08-14T12:28:14Z</time>
      </trkpt>
      <trkpt lat="41.2464910" lon="-4.8670190">
        <ele>732.0</ele>
        <time>2019-08-14T12:28:15Z</time>
      </trkpt>
      <trkpt lat="41.2465400" lon="-4.8670530">
        <ele>732.0</ele>
        <time>2019-08-14T12:28:16Z</time>
      </trkpt>
      <trkpt lat="41.2465880" lon="-4.8670880">
        <ele>732.1</ele>
        <time>2019-08-14T12:28:17Z</time>
      </trkpt>
      <trkpt lat="41.2466350" lon="-4.8671230">
        <ele>732.1</ele>
        <time>2019-08-14T12:28:18Z</time>
      </trkpt>
      <trkpt lat="41.2466830" lon="-4.8671570">
        <ele>732.1</ele>
        <time>2019-08-14T12:28:19Z</time>
      </trkpt>
      <trkpt lat="41.2467280" lon="-4.8671890">
        <ele>732.1</ele>
        <time>2019-08-14T12:28:20Z</time>
      </trkpt>
      <trkpt lat="41.2467750" lon="-4.8672230">
        <ele>732.1</ele>
        <time>2019-08-14T12:28:21Z</time>
      </trkpt>
      <trkpt lat="41.2468200" lon="-4.8672560">
        <ele>732.0</ele>
        <time>2019-08-14T12:28:22Z</time>
      </trkpt>
      <trkpt lat="41.2468660" lon="-4.8672880">
        <ele>732.0</ele>
        <time>2019-08-14T12:28:23Z</time>
      </trkpt>
      <trkpt lat="41.2469120" lon="-4.8673190">
        <ele>731.9</ele>
        <time>2019-08-14T12:28:24Z</time>
      </trkpt>
      <trkpt lat="41.2469580" lon="-4.8673510">
        <ele>731.9</ele>
        <time>2019-08-14T12:28:25Z</time>
      </trkpt>
      <trkpt lat="41.2470050" lon="-4.8673830">
        <ele>731.9</ele>
        <time>2019-08-14T12:28:26Z</time>
      </trkpt>
      <trkpt lat="41.2470530" lon="-4.8674140">
        <ele>731.8</ele>
        <time>2019-08-14T12:28:27Z</time>
      </trkpt>
      <trkpt lat="41.2471010" lon="-4.8674480">
        <ele>731.8</ele>
        <time>2019-08-14T12:28:28Z</time>
      </trkpt>
      <trkpt lat="41.2471500" lon="-4.8674830">
        <ele>731.7</ele>
        <time>2019-08-14T12:28:29Z</time>
      </trkpt>
      <trkpt lat="41.2471980" lon="-4.8675180">
        <ele>731.7</ele>
        <time>2019-08-14T12:28:30Z</time>
      </trkpt>
      <trkpt lat="41.2472470" lon="-4.8675540">
        <ele>731.7</ele>
        <time>2019-08-14T12:28:31Z</time>
      </trkpt>
      <trkpt lat="41.2472960" lon="-4.8675890">
        <ele>731.6</ele>
        <time>2019-08-14T12:28:32Z</time>
      </trkpt>
      <trkpt lat="41.2473440" lon="-4.8676260">
        <ele>731.6</ele>
        <time>2019-08-14T12:28:33Z</time>
      </trkpt>
      <trkpt lat="41.2473900" lon="-4.8676600">
        <ele>731.6</ele>
        <time>2019-08-14T12:28:34Z</time>
      </trkpt>
      <trkpt lat="41.2474350" lon="-4.8676960">
        <ele>731.6</ele>
        <time>2019-08-14T12:28:35Z</time>
      </trkpt>
      <trkpt lat="41.2474810" lon="-4.8677290">
        <ele>731.5</ele>
        <time>2019-08-14T12:28:36Z</time>
      </trkpt>
      <trkpt lat="41.2475260" lon="-4.8677600">
        <ele>731.5</ele>
        <time>2019-08-14T12:28:37Z</time>
      </trkpt>
      <trkpt lat="41.2475720" lon="-4.8677910">
        <ele>731.5</ele>
        <time>2019-08-14T12:28:38Z</time>
      </trkpt>
      <trkpt lat="41.2476190" lon="-4.8678240">
        <ele>731.5</ele>
        <time>2019-08-14T12:28:39Z</time>
      </trkpt>
      <trkpt lat="41.2476680" lon="-4.8678590">
        <ele>731.5</ele>
        <time>2019-08-14T12:28:40Z</time>
      </trkpt>
      <trkpt lat="41.2477170" lon="-4.8678940">
        <ele>731.4</ele>
        <time>2019-08-14T12:28:41Z</time>
      </trkpt>
      <trkpt lat="41.2477680" lon="-4.8679300">
        <ele>731.4</ele>
        <time>2019-08-14T12:28:42Z</time>
      </trkpt>
      <trkpt lat="41.2478190" lon="-4.8679660">
        <ele>731.4</ele>
        <time>2019-08-14T12:28:43Z</time>
      </trkpt>
      <trkpt lat="41.2478690" lon="-4.8680010">
        <ele>731.3</ele>
        <time>2019-08-14T12:28:44Z</time>
      </trkpt>
      <trkpt lat="41.2479210" lon="-4.8680350">
        <ele>731.2</ele>
        <time>2019-08-14T12:28:45Z</time>
      </trkpt>
      <trkpt lat="41.2479710" lon="-4.8680690">
        <ele>731.2</ele>
        <time>2019-08-14T12:28:46Z</time>
      </trkpt>
      <trkpt lat="41.2480200" lon="-4.8681030">
        <ele>731.1</ele>
        <time>2019-08-14T12:28:47Z</time>
      </trkpt>
      <trkpt lat="41.2480680" lon="-4.8681350">
        <ele>731.0</ele>
        <time>2019-08-14T12:28:48Z</time>
      </trkpt>
      <trkpt lat="41.2481150" lon="-4.8681680">
        <ele>730.9</ele>
        <time>2019-08-14T12:28:49Z</time>
      </trkpt>
      <trkpt lat="41.2481620" lon="-4.8682030">
        <ele>730.9</ele>
        <time>2019-08-14T12:28:50Z</time>
      </trkpt>
      <trkpt lat="41.2482100" lon="-4.8682380">
        <ele>730.8</ele>
        <time>2019-08-14T12:28:51Z</time>
      </trkpt>
      <trkpt lat="41.2482600" lon="-4.8682740">
        <ele>730.8</ele>
        <time>2019-08-14T12:28:52Z</time>
      </trkpt>
      <trkpt lat="41.2483100" lon="-4.8683080">
        <ele>730.8</ele>
        <time>2019-08-14T12:28:53Z</time>
      </trkpt>
      <trkpt lat="41.2483610" lon="-4.8683410">
        <ele>730.7</ele>
        <time>2019-08-14T12:28:54Z</time>
      </trkpt>
      <trkpt lat="41.2484120" lon="-4.8683780">
        <ele>730.7</ele>
        <time>2019-08-14T12:28:55Z</time>
      </trkpt>
      <trkpt lat="41.2484620" lon="-4.8684130">
        <ele>730.7</ele>
        <time>2019-08-14T12:28:56Z</time>
      </trkpt>
      <trkpt lat="41.2485120" lon="-4.8684500">
        <ele>730.7</ele>
        <time>2019-08-14T12:28:57Z</time>
      </trkpt>
      <trkpt lat="41.2485630" lon="-4.8684860">
        <ele>730.6</ele>
        <time>2019-08-14T12:28:58Z</time>
      </trkpt>
      <trkpt lat="41.2486140" lon="-4.8685210">
        <ele>730.6</ele>
        <time>2019-08-14T12:28:59Z</time>
      </trkpt>
      <trkpt lat="41.2486670" lon="-4.8685560">
        <ele>730.6</ele>
        <time>2019-08-14T12:29:00Z</time>
      </trkpt>
      <trkpt lat="41.2487200" lon="-4.8685910">
        <ele>730.7</ele>
        <time>2019-08-14T12:29:01Z</time>
      </trkpt>
      <trkpt lat="41.2487750" lon="-4.8686250">
        <ele>730.7</ele>
        <time>2019-08-14T12:29:02Z</time>
      </trkpt>
      <trkpt lat="41.2488300" lon="-4.8686550">
        <ele>730.7</ele>
        <time>2019-08-14T12:29:03Z</time>
      </trkpt>
      <trkpt lat="41.2488850" lon="-4.8686810">
        <ele>730.8</ele>
        <time>2019-08-14T12:29:04Z</time>
      </trkpt>
      <trkpt lat="41.2489410" lon="-4.8687000">
        <ele>730.8</ele>
        <time>2019-08-14T12:29:05Z</time>
      </trkpt>
      <trkpt lat="41.2489980" lon="-4.8687110">
        <ele>730.8</ele>
        <time>2019-08-14T12:29:06Z</time>
      </trkpt>
      <trkpt lat="41.2490540" lon="-4.8687130">
        <ele>730.8</ele>
        <time>2019-08-14T12:29:07Z</time>
      </trkpt>
      <trkpt lat="41.2491110" lon="-4.8687050">
        <ele>730.7</ele>
        <time>2019-08-14T12:29:08Z</time>
      </trkpt>
      <trkpt lat="41.2491670" lon="-4.8686860">
        <ele>730.6</ele>
        <time>2019-08-14T12:29:09Z</time>
      </trkpt>
      <trkpt lat="41.2492210" lon="-4.8686600">
        <ele>730.6</ele>
        <time>2019-08-14T12:29:10Z</time>
      </trkpt>
      <trkpt lat="41.2492710" lon="-4.8686250">
        <ele>730.5</ele>
        <time>2019-08-14T12:29:11Z</time>
      </trkpt>
      <trkpt lat="41.2493180" lon="-4.8685800">
        <ele>730.4</ele>
        <time>2019-08-14T12:29:12Z</time>
      </trkpt>
      <trkpt lat="41.2493590" lon="-4.8685280">
        <ele>730.4</ele>
        <time>2019-08-14T12:29:13Z</time>
      </trkpt>
      <trkpt lat="41.2493950" lon="-4.8684650">
        <ele>730.3</ele>
        <time>2019-08-14T12:29:14Z</time>
      </trkpt>
      <trkpt lat="41.2494260" lon="-4.8683970">
        <ele>730.2</ele>
        <time>2019-08-14T12:29:15Z</time>
      </trkpt>
      <trkpt lat="41.2494540" lon="-4.8683260">
        <ele>730.2</ele>
        <time>2019-08-14T12:29:16Z</time>
      </trkpt>
      <trkpt lat="41.2494810" lon="-4.8682540">
        <ele>730.1</ele>
        <time>2019-08-14T12:29:17Z</time>
      </trkpt>
      <trkpt lat="41.2495060" lon="-4.8681820">
        <ele>730.0</ele>
        <time>2019-08-14T12:29:18Z</time>
      </trkpt>
      <trkpt lat="41.2495310" lon="-4.8681090">
        <ele>729.9</ele>
        <time>2019-08-14T12:29:19Z</time>
      </trkpt>
      <trkpt lat="41.2495570" lon="-4.8680340">
        <ele>729.8</ele>
        <time>2019-08-14T12:29:20Z</time>
      </trkpt>
      <trkpt lat="41.2495820" lon="-4.8679610">
        <ele>729.8</ele>
        <time>2019-08-14T12:29:21Z</time>
      </trkpt>
      <trkpt lat="41.2496090" lon="-4.8678870">
        <ele>729.9</ele>
        <time>2019-08-14T12:29:22Z</time>
      </trkpt>
      <trkpt lat="41.2496350" lon="-4.8678120">
        <ele>730.0</ele>
        <time>2019-08-14T12:29:23Z</time>
      </trkpt>
      <trkpt lat="41.2496610" lon="-4.8677370">
        <ele>730.0</ele>
        <time>2019-08-14T12:29:24Z</time>
      </trkpt>
      <trkpt lat="41.2496880" lon="-4.8676600">
        <ele>729.9</ele>
        <time>2019-08-14T12:29:25Z</time>
      </trkpt>
      <trkpt lat="41.2497140" lon="-4.8675820">
        <ele>729.9</ele>
        <time>2019-08-14T12:29:26Z</time>
      </trkpt>
      <trkpt lat="41.2497420" lon="-4.8675050">
        <ele>729.8</ele>
        <time>2019-08-14T12:29:27Z</time>
      </trkpt>
      <trkpt lat="41.2497730" lon="-4.8674300">
        <ele>729.7</ele>
        <time>2019-08-14T12:29:28Z</time>
      </trkpt>
      <trkpt lat="41.2498020" lon="-4.8673570">
        <ele>729.6</ele>
        <time>2019-08-14T12:29:29Z</time>
      </trkpt>
      <trkpt lat="41.2498280" lon="-4.8672850">
        <ele>729.6</ele>
        <time>2019-08-14T12:29:30Z</time>
      </trkpt>
      <trkpt lat="41.2498540" lon="-4.8672140">
        <ele>729.6</ele>
        <time>2019-08-14T12:29:31Z</time>
      </trkpt>
      <trkpt lat="41.2498850" lon="-4.8671480">
        <ele>729.5</ele>
        <time>2019-08-14T12:29:32Z</time>
      </trkpt>
      <trkpt lat="41.2499180" lon="-4.8670860">
        <ele>729.5</ele>
        <time>2019-08-14T12:29:33Z</time>
      </trkpt>
      <trkpt lat="41.2499550" lon="-4.8670310">
        <ele>729.5</ele>
        <time>2019-08-14T12:29:34Z</time>
      </trkpt>
      <trkpt lat="41.2499940" lon="-4.8669850">
        <ele>729.5</ele>
        <time>2019-08-14T12:29:35Z</time>
      </trkpt>
      <trkpt lat="41.2500370" lon="-4.8669480">
        <ele>729.5</ele>
        <time>2019-08-14T12:29:36Z</time>
      </trkpt>
      <trkpt lat="41.2500840" lon="-4.8669190">
        <ele>729.6</ele>
        <time>2019-08-14T12:29:37Z</time>
      </trkpt>
      <trkpt lat="41.2501330" lon="-4.8668990">
        <ele>729.7</ele>
        <time>2019-08-14T12:29:38Z</time>
      </trkpt>
      <trkpt lat="41.2501850" lon="-4.8668870">
        <ele>729.7</ele>
        <time>2019-08-14T12:29:39Z</time>
      </trkpt>
      <trkpt lat="41.2502360" lon="-4.8668860">
        <ele>729.8</ele>
        <time>2019-08-14T12:29:40Z</time>
      </trkpt>
      <trkpt lat="41.2502870" lon="-4.8668930">
        <ele>729.8</ele>
        <time>2019-08-14T12:29:41Z</time>
      </trkpt>
      <trkpt lat="41.2503360" lon="-4.8669070">
        <ele>729.8</ele>
        <time>2019-08-14T12:29:42Z</time>
      </trkpt>
      <trkpt lat="41.2503840" lon="-4.8669270">
        <ele>729.8</ele>
        <time>2019-08-14T12:29:43Z</time>
      </trkpt>
      <trkpt lat="41.2504300" lon="-4.8669500">
        <ele>729.8</ele>
        <time>2019-08-14T12:29:44Z</time>
      </trkpt>
      <trkpt lat="41.2504760" lon="-4.8669740">
        <ele>729.8</ele>
        <time>2019-08-14T12:29:45Z</time>
      </trkpt>
      <trkpt lat="41.2505210" lon="-4.8670020">
        <ele>729.8</ele>
        <time>2019-08-14T12:29:46Z</time>
      </trkpt>
      <trkpt lat="41.2505650" lon="-4.8670320">
        <ele>729.7</ele>
        <time>2019-08-14T12:29:47Z</time>
      </trkpt>
      <trkpt lat="41.2506070" lon="-4.8670660">
        <ele>729.7</ele>
        <time>2019-08-14T12:29:48Z</time>
      </trkpt>
      <trkpt lat="41.2506460" lon="-4.8671040">
        <ele>729.6</ele>
        <time>2019-08-14T12:29:49Z</time>
      </trkpt>
      <trkpt lat="41.2506840" lon="-4.8671460">
        <ele>729.5</ele>
        <time>2019-08-14T12:29:50Z</time>
      </trkpt>
      <trkpt lat="41.2507180" lon="-4.8671950">
        <ele>729.5</ele>
        <time>2019-08-14T12:29:51Z</time>
      </trkpt>
      <trkpt lat="41.2507490" lon="-4.8672490">
        <ele>729.5</ele>
        <time>2019-08-14T12:29:52Z</time>
      </trkpt>
      <trkpt lat="41.2507770" lon="-4.8673070">
        <ele>729.6</ele>
        <time>2019-08-14T12:29:53Z</time>
      </trkpt>
      <trkpt lat="41.2508020" lon="-4.8673680">
        <ele>729.6</ele>
        <time>2019-08-14T12:29:54Z</time>
      </trkpt>
      <trkpt lat="41.2508230" lon="-4.8674320">
        <ele>729.7</ele>
        <time>2019-08-14T12:29:55Z</time>
      </trkpt>
      <trkpt lat="41.2508420" lon="-4.8674980">
        <ele>729.7</ele>
        <time>2019-08-14T12:29:56Z</time>
      </trkpt>
      <trkpt lat="41.2508590" lon="-4.8675640">
        <ele>729.8</ele>
        <time>2019-08-14T12:29:57Z</time>
      </trkpt>
      <trkpt lat="41.2508740" lon="-4.8676320">
        <ele>729.8</ele>
        <time>2019-08-14T12:29:58Z</time>
      </trkpt>
      <trkpt lat="41.2508890" lon="-4.8677020">
        <ele>729.9</ele>
        <time>2019-08-14T12:29:59Z</time>
      </trkpt>
      <trkpt lat="41.2509030" lon="-4.8677710">
        <ele>729.9</ele>
        <time>2019-08-14T12:30:00Z</time>
      </trkpt>
      <trkpt lat="41.2509160" lon="-4.8678400">
        <ele>729.9</ele>
        <time>2019-08-14T12:30:01Z</time>
      </trkpt>
      <trkpt lat="41.2509300" lon="-4.8679090">
        <ele>729.8</ele>
        <time>2019-08-14T12:30:02Z</time>
      </trkpt>
      <trkpt lat="41.2509420" lon="-4.8679770">
        <ele>729.8</ele>
        <time>2019-08-14T12:30:03Z</time>
      </trkpt>
      <trkpt lat="41.2509560" lon="-4.8680450">
        <ele>729.8</ele>
        <time>2019-08-14T12:30:04Z</time>
      </trkpt>
      <trkpt lat="41.2509700" lon="-4.8681120">
        <ele>729.8</ele>
        <time>2019-08-14T12:30:05Z</time>
      </trkpt>
      <trkpt lat="41.2509840" lon="-4.8681760">
        <ele>729.8</ele>
        <time>2019-08-14T12:30:06Z</time>
      </trkpt>
      <trkpt lat="41.2509990" lon="-4.8682390">
        <ele>729.8</ele>
        <time>2019-08-14T12:30:07Z</time>
      </trkpt>
      <trkpt lat="41.2510110" lon="-4.8683020">
        <ele>729.7</ele>
        <time>2019-08-14T12:30:08Z</time>
      </trkpt>
      <trkpt lat="41.2510240" lon="-4.8683630">
        <ele>729.7</ele>
        <time>2019-08-14T12:30:09Z</time>
      </trkpt>
      <trkpt lat="41.2510370" lon="-4.8684250">
        <ele>729.7</ele>
        <time>2019-08-14T12:30:10Z</time>
      </trkpt>
      <trkpt lat="41.2510500" lon="-4.8684870">
        <ele>729.7</ele>
        <time>2019-08-14T12:30:11Z</time>
      </trkpt>
      <trkpt lat="41.2510620" lon="-4.8685510">
        <ele>729.7</ele>
        <time>2019-08-14T12:30:12Z</time>
      </trkpt>
      <trkpt lat="41.2510750" lon="-4.8686140">
        <ele>729.7</ele>
        <time>2019-08-14T12:30:13Z</time>
      </trkpt>
      <trkpt lat="41.2510880" lon="-4.8686760">
        <ele>729.7</ele>
        <time>2019-08-14T12:30:14Z</time>
      </trkpt>
      <trkpt lat="41.2511030" lon="-4.8687370">
        <ele>729.7</ele>
        <time>2019-08-14T12:30:15Z</time>
      </trkpt>
      <trkpt lat="41.2511170" lon="-4.8687990">
        <ele>729.8</ele>
        <time>2019-08-14T12:30:16Z</time>
      </trkpt>
      <trkpt lat="41.2511310" lon="-4.8688620">
        <ele>729.8</ele>
        <time>2019-08-14T12:30:17Z</time>
      </trkpt>
      <trkpt lat="41.2511450" lon="-4.8689260">
        <ele>729.8</ele>
        <time>2019-08-14T12:30:18Z</time>
      </trkpt>
      <trkpt lat="41.2511580" lon="-4.8689900">
        <ele>729.8</ele>
        <time>2019-08-14T12:30:19Z</time>
      </trkpt>
      <trkpt lat="41.2511700" lon="-4.8690530">
        <ele>729.9</ele>
        <time>2019-08-14T12:30:20Z</time>
      </trkpt>
      <trkpt lat="41.2511830" lon="-4.8691160">
        <ele>729.9</ele>
        <time>2019-08-14T12:30:21Z</time>
      </trkpt>
      <trkpt lat="41.2511960" lon="-4.8691780">
        <ele>729.9</ele>
        <time>2019-08-14T12:30:22Z</time>
      </trkpt>
      <trkpt lat="41.2512090" lon="-4.8692400">
        <ele>729.9</ele>
        <time>2019-08-14T12:30:23Z</time>
      </trkpt>
      <trkpt lat="41.2512220" lon="-4.8693030">
        <ele>729.9</ele>
        <time>2019-08-14T12:30:24Z</time>
      </trkpt>
      <trkpt lat="41.2512360" lon="-4.8693660">
        <ele>730.0</ele>
        <time>2019-08-14T12:30:25Z</time>
      </trkpt>
      <trkpt lat="41.2512500" lon="-4.8694310">
        <ele>730.0</ele>
        <time>2019-08-14T12:30:26Z</time>
      </trkpt>
      <trkpt lat="41.2512630" lon="-4.8694960">
        <ele>730.0</ele>
        <time>2019-08-14T12:30:27Z</time>
      </trkpt>
      <trkpt lat="41.2512740" lon="-4.8695620">
        <ele>730.0</ele>
        <time>2019-08-14T12:30:28Z</time>
      </trkpt>
      <trkpt lat="41.2512880" lon="-4.8696290">
        <ele>730.1</ele>
        <time>2019-08-14T12:30:29Z</time>
      </trkpt>
      <trkpt lat="41.2513020" lon="-4.8696950">
        <ele>730.1</ele>
        <time>2019-08-14T12:30:30Z</time>
      </trkpt>
      <trkpt lat="41.2513150" lon="-4.8697610">
        <ele>730.1</ele>
        <time>2019-08-14T12:30:31Z</time>
      </trkpt>
      <trkpt lat="41.2513290" lon="-4.8698280">
        <ele>730.1</ele>
        <time>2019-08-14T12:30:32Z</time>
      </trkpt>
      <trkpt lat="41.2513430" lon="-4.8698930">
        <ele>730.1</ele>
        <time>2019-08-14T12:30:33Z</time>
      </trkpt>
      <trkpt lat="41.2513550" lon="-4.8699570">
        <ele>730.2</ele>
        <time>2019-08-14T12:30:34Z</time>
      </trkpt>
      <trkpt lat="41.2513680" lon="-4.8700210">
        <ele>730.2</ele>
        <time>2019-08-14T12:30:35Z</time>
      </trkpt>
      <trkpt lat="41.2513820" lon="-4.8700860">
        <ele>730.2</ele>
        <time>2019-08-14T12:30:36Z</time>
      </trkpt>
      <trkpt lat="41.2513950" lon="-4.8701500">
        <ele>730.2</ele>
        <time>2019-08-14T12:30:37Z</time>
      </trkpt>
      <trkpt lat="41.2514090" lon="-4.8702130">
        <ele>730.2</ele>
        <time>2019-08-14T12:30:38Z</time>
      </trkpt>
      <trkpt lat="41.2514260" lon="-4.8702770">
        <ele>730.2</ele>
        <time>2019-08-14T12:30:39Z</time>
      </trkpt>
      <trkpt lat="41.2514430" lon="-4.8703410">
        <ele>730.2</ele>
        <time>2019-08-14T12:30:40Z</time>
      </trkpt>
      <trkpt lat="41.2514620" lon="-4.8704060">
        <ele>730.2</ele>
        <time>2019-08-14T12:30:41Z</time>
      </trkpt>
      <trkpt lat="41.2514830" lon="-4.8704700">
        <ele>730.2</ele>
        <time>2019-08-14T12:30:42Z</time>
      </trkpt>
      <trkpt lat="41.2515070" lon="-4.8705330">
        <ele>730.3</ele>
        <time>2019-08-14T12:30:43Z</time>
      </trkpt>
      <trkpt lat="41.2515370" lon="-4.8705920">
        <ele>730.3</ele>
        <time>2019-08-14T12:30:44Z</time>
      </trkpt>
      <trkpt lat="41.2515750" lon="-4.8706440">
        <ele>730.3</ele>
        <time>2019-08-14T12:30:45Z</time>
      </trkpt>
      <trkpt lat="41.2516150" lon="-4.8706900">
        <ele>730.4</ele>
        <time>2019-08-14T12:30:46Z</time>
      </trkpt>
      <trkpt lat="41.2516570" lon="-4.8707300">
        <ele>730.4</ele>
        <time>2019-08-14T12:30:47Z</time>
      </trkpt>
      <trkpt lat="41.2517000" lon="-4.8707670">
        <ele>730.4</ele>
        <time>2019-08-14T12:30:48Z</time>
      </trkpt>
      <trkpt lat="41.2517440" lon="-4.8708020">
        <ele>730.4</ele>
        <time>2019-08-14T12:30:49Z</time>
      </trkpt>
      <trkpt lat="41.2517890" lon="-4.8708360">
        <ele>730.4</ele>
        <time>2019-08-14T12:30:50Z</time>
      </trkpt>
      <trkpt lat="41.2518350" lon="-4.8708670">
        <ele>730.4</ele>
        <time>2019-08-14T12:30:51Z</time>
      </trkpt>
      <trkpt lat="41.2518810" lon="-4.8708980">
        <ele>730.5</ele>
        <time>2019-08-14T12:30:52Z</time>
      </trkpt>
      <trkpt lat="41.2519270" lon="-4.8709290">
        <ele>730.5</ele>
        <time>2019-08-14T12:30:53Z</time>
      </trkpt>
      <trkpt lat="41.2519690" lon="-4.8709590">
        <ele>730.5</ele>
        <time>2019-08-14T12:30:54Z</time>
      </trkpt>
      <trkpt lat="41.2520080" lon="-4.8709860">
        <ele>730.5</ele>
        <time>2019-08-14T12:30:55Z</time>
      </trkpt>
      <trkpt lat="41.2520470" lon="-4.8710110">
        <ele>730.5</ele>
        <time>2019-08-14T12:30:56Z</time>
      </trkpt>
      <trkpt lat="41.2520850" lon="-4.8710370">
        <ele>730.6</ele>
        <time>2019-08-14T12:30:57Z</time>
      </trkpt>
      <trkpt lat="41.2521240" lon="-4.8710630">
        <ele>730.6</ele>
        <time>2019-08-14T12:30:58Z</time>
      </trkpt>
      <trkpt lat="41.2521650" lon="-4.8710920">
        <ele>730.6</ele>
        <time>2019-08-14T12:30:59Z</time>
      </trkpt>
      <trkpt lat="41.2522070" lon="-4.8711200">
        <ele>730.7</ele>
        <time>2019-08-14T12:31:00Z</time>
      </trkpt>
      <trkpt lat="41.2522480" lon="-4.8711490">
        <ele>730.7</ele>
        <time>2019-08-14T12:31:01Z</time>
      </trkpt>
      <trkpt lat="41.2522910" lon="-4.8711790">
        <ele>730.7</ele>
        <time>2019-08-14T12:31:02Z</time>
      </trkpt>
      <trkpt lat="41.2523340" lon="-4.8712100">
        <ele>730.7</ele>
        <time>2019-08-14T12:31:03Z</time>
      </trkpt>
      <trkpt lat="41.2523780" lon="-4.8712410">
        <ele>730.7</ele>
        <time>2019-08-14T12:31:04Z</time>
      </trkpt>
      <trkpt lat="41.2524220" lon="-4.8712720">
        <ele>730.7</ele>
        <time>2019-08-14T12:31:05Z</time>
      </trkpt>
      <trkpt lat="41.2524670" lon="-4.8713010">
        <ele>730.7</ele>
        <time>2019-08-14T12:31:06Z</time>
      </trkpt>
      <trkpt lat="41.2525120" lon="-4.8713320">
        <ele>730.7</ele>
        <time>2019-08-14T12:31:07Z</time>
      </trkpt>
      <trkpt lat="41.2525580" lon="-4.8713640">
        <ele>730.7</ele>
        <time>2019-08-14T12:31:08Z</time>
      </trkpt>
      <trkpt lat="41.2526030" lon="-4.8713960">
        <ele>730.7</ele>
        <time>2019-08-14T12:31:09Z</time>
      </trkpt>
      <trkpt lat="41.2526490" lon="-4.8714280">
        <ele>730.7</ele>
        <time>2019-08-14T12:31:10Z</time>
      </trkpt>
      <trkpt lat="41.2526960" lon="-4.8714620">
        <ele>730.7</ele>
        <time>2019-08-14T12:31:11Z</time>
      </trkpt>
      <trkpt lat="41.2527420" lon="-4.8714940">
        <ele>730.8</ele>
        <time>2019-08-14T12:31:12Z</time>
      </trkpt>
      <trkpt lat="41.2527880" lon="-4.8715260">
        <ele>730.8</ele>
        <time>2019-08-14T12:31:13Z</time>
      </trkpt>
      <trkpt lat="41.2528320" lon="-4.8715580">
        <ele>730.8</ele>
        <time>2019-08-14T12:31:14Z</time>
      </trkpt>
      <trkpt lat="41.2528750" lon="-4.8715890">
        <ele>730.9</ele>
        <time>2019-08-14T12:31:15Z</time>
      </trkpt>
      <trkpt lat="41.2529180" lon="-4.8716190">
        <ele>730.9</ele>
        <time>2019-08-14T12:31:16Z</time>
      </trkpt>
      <trkpt lat="41.2529590" lon="-4.8716490">
        <ele>730.9</ele>
        <time>2019-08-14T12:31:17Z</time>
      </trkpt>
      <trkpt lat="41.2529980" lon="-4.8716780">
        <ele>730.9</ele>
        <time>2019-08-14T12:31:18Z</time>
      </trkpt>
      <trkpt lat="41.2530370" lon="-4.8717060">
        <ele>730.8</ele>
        <time>2019-08-14T12:31:19Z</time>
      </trkpt>
      <trkpt lat="41.2530770" lon="-4.8717330">
        <ele>730.8</ele>
        <time>2019-08-14T12:31:20Z</time>
      </trkpt>
      <trkpt lat="41.2531170" lon="-4.8717620">
        <ele>730.8</ele>
        <time>2019-08-14T12:31:21Z</time>
      </trkpt>
      <trkpt lat="41.2531580" lon="-4.8717910">
        <ele>730.8</ele>
        <time>2019-08-14T12:31:22Z</time>
      </trkpt>
      <trkpt lat="41.2532000" lon="-4.8718220">
        <ele>730.8</ele>
        <time>2019-08-14T12:31:23Z</time>
      </trkpt>
      <trkpt lat="41.2532430" lon="-4.8718530">
        <ele>730.8</ele>
        <time>2019-08-14T12:31:24Z</time>
      </trkpt>
      <trkpt lat="41.2532870" lon="-4.8718850">
        <ele>730.8</ele>
        <time>2019-08-14T12:31:25Z</time>
      </trkpt>
      <trkpt lat="41.2533310" lon="-4.8719180">
        <ele>730.8</ele>
        <time>2019-08-14T12:31:26Z</time>
      </trkpt>
      <trkpt lat="41.2533740" lon="-4.8719500">
        <ele>730.8</ele>
        <time>2019-08-14T12:31:27Z</time>
      </trkpt>
      <trkpt lat="41.2534160" lon="-4.8719810">
        <ele>730.8</ele>
        <time>2019-08-14T12:31:28Z</time>
      </trkpt>
      <trkpt lat="41.2534590" lon="-4.8720110">
        <ele>730.7</ele>
        <time>2019-08-14T12:31:29Z</time>
      </trkpt>
      <trkpt lat="41.2535040" lon="-4.8720410">
        <ele>730.7</ele>
        <time>2019-08-14T12:31:30Z</time>
      </trkpt>
      <trkpt lat="41.2535490" lon="-4.8720720">
        <ele>730.7</ele>
        <time>2019-08-14T12:31:31Z</time>
      </trkpt>
      <trkpt lat="41.2535940" lon="-4.8721030">
        <ele>730.7</ele>
        <time>2019-08-14T12:31:32Z</time>
      </trkpt>
      <trkpt lat="41.2536410" lon="-4.8721350">
        <ele>730.7</ele>
        <time>2019-08-14T12:31:33Z</time>
      </trkpt>
      <trkpt lat="41.2536880" lon="-4.8721680">
        <ele>730.7</ele>
        <time>2019-08-14T12:31:34Z</time>
      </trkpt>
      <trkpt lat="41.2537340" lon="-4.8722030">
        <ele>730.7</ele>
        <time>2019-08-14T12:31:35Z</time>
      </trkpt>
      <trkpt lat="41.2537820" lon="-4.8722380">
        <ele>730.7</ele>
        <time>2019-08-14T12:31:36Z</time>
      </trkpt>
      <trkpt lat="41.2538330" lon="-4.8722720">
        <ele>730.7</ele>
        <time>2019-08-14T12:31:37Z</time>
      </trkpt>
      <trkpt lat="41.2538840" lon="-4.8723060">
        <ele>730.7</ele>
        <time>2019-08-14T12:31:38Z</time>
      </trkpt>
      <trkpt lat="41.2539350" lon="-4.8723410">
        <ele>730.7</ele>
        <time>2019-08-14T12:31:39Z</time>
      </trkpt>
      <trkpt lat="41.2539850" lon="-4.8723770">
        <ele>730.7</ele>
        <time>2019-08-14T12:31:40Z</time>
      </trkpt>
      <trkpt lat="41.2540340" lon="-4.8724130">
        <ele>730.7</ele>
        <time>2019-08-14T12:31:41Z</time>
      </trkpt>
      <trkpt lat="41.2540840" lon="-4.8724480">
        <ele>730.7</ele>
        <time>2019-08-14T12:31:42Z</time>
      </trkpt>
      <trkpt lat="41.2541350" lon="-4.8724830">
        <ele>730.6</ele>
        <time>2019-08-14T12:31:43Z</time>
      </trkpt>
      <trkpt lat="41.2541840" lon="-4.8725200">
        <ele>730.6</ele>
        <time>2019-08-14T12:31:44Z</time>
      </trkpt>
      <trkpt lat="41.2542320" lon="-4.8725550">
        <ele>730.6</ele>
        <time>2019-08-14T12:31:45Z</time>
      </trkpt>
      <trkpt lat="41.2542790" lon="-4.8725890">
        <ele>730.6</ele>
        <time>2019-08-14T12:31:46Z</time>
      </trkpt>
      <trkpt lat="41.2543230" lon="-4.8726200">
        <ele>730.6</ele>
        <time>2019-08-14T12:31:47Z</time>
      </trkpt>
      <trkpt lat="41.2543660" lon="-4.8726520">
        <ele>730.6</ele>
        <time>2019-08-14T12:31:48Z</time>
      </trkpt>
      <trkpt lat="41.2544090" lon="-4.8726840">
        <ele>730.6</ele>
        <time>2019-08-14T12:31:49Z</time>
      </trkpt>
      <trkpt lat="41.2544540" lon="-4.8727150">
        <ele>730.6</ele>
        <time>2019-08-14T12:31:50Z</time>
      </trkpt>
      <trkpt lat="41.2545010" lon="-4.8727480">
        <ele>730.6</ele>
        <time>2019-08-14T12:31:51Z</time>
      </trkpt>
      <trkpt lat="41.2545480" lon="-4.8727790">
        <ele>730.6</ele>
        <time>2019-08-14T12:31:52Z</time>
      </trkpt>
      <trkpt lat="41.2545970" lon="-4.8728120">
        <ele>730.7</ele>
        <time>2019-08-14T12:31:53Z</time>
      </trkpt>
      <trkpt lat="41.2546460" lon="-4.8728460">
        <ele>730.7</ele>
        <time>2019-08-14T12:31:54Z</time>
      </trkpt>
      <trkpt lat="41.2546940" lon="-4.8728820">
        <ele>730.7</ele>
        <time>2019-08-14T12:31:55Z</time>
      </trkpt>
      <trkpt lat="41.2547410" lon="-4.8729180">
        <ele>730.7</ele>
        <time>2019-08-14T12:31:56Z</time>
      </trkpt>
      <trkpt lat="41.2547890" lon="-4.8729530">
        <ele>730.7</ele>
        <time>2019-08-14T12:31:57Z</time>
      </trkpt>
      <trkpt lat="41.2548350" lon="-4.8729850">
        <ele>730.7</ele>
        <time>2019-08-14T12:31:58Z</time>
      </trkpt>
      <trkpt lat="41.2548790" lon="-4.8730160">
        <ele>730.7</ele>
        <time>2019-08-14T12:31:59Z</time>
      </trkpt>
      <trkpt lat="41.2549240" lon="-4.8730450">
        <ele>730.7</ele>
        <time>2019-08-14T12:32:00Z</time>
      </trkpt>
      <trkpt lat="41.2549700" lon="-4.8730770">
        <ele>730.7</ele>
        <time>2019-08-14T12:32:01Z</time>
      </trkpt>
      <trkpt lat="41.2550150" lon="-4.8731090">
        <ele>730.7</ele>
        <time>2019-08-14T12:32:02Z</time>
      </trkpt>
      <trkpt lat="41.2550620" lon="-4.8731430">
        <ele>730.7</ele>
        <time>2019-08-14T12:32:03Z</time>
      </trkpt>
      <trkpt lat="41.2551090" lon="-4.8731760">
        <ele>730.7</ele>
        <time>2019-08-14T12:32:04Z</time>
      </trkpt>
      <trkpt lat="41.2551570" lon="-4.8732080">
        <ele>730.7</ele>
        <time>2019-08-14T12:32:05Z</time>
      </trkpt>
      <trkpt lat="41.2552050" lon="-4.8732410">
        <ele>730.8</ele>
        <time>2019-08-14T12:32:06Z</time>
      </trkpt>
      <trkpt lat="41.2552530" lon="-4.8732730">
        <ele>730.8</ele>
        <time>2019-08-14T12:32:07Z</time>
      </trkpt>
      <trkpt lat="41.2553020" lon="-4.8733060">
        <ele>730.8</ele>
        <time>2019-08-14T12:32:08Z</time>
      </trkpt>
      <trkpt lat="41.2553520" lon="-4.8733420">
        <ele>730.8</ele>
        <time>2019-08-14T12:32:09Z</time>
      </trkpt>
      <trkpt lat="41.2554010" lon="-4.8733780">
        <ele>730.8</ele>
        <time>2019-08-14T12:32:10Z</time>
      </trkpt>
      <trkpt lat="41.2554500" lon="-4.8734140">
        <ele>730.7</ele>
        <time>2019-08-14T12:32:11Z</time>
      </trkpt>
      <trkpt lat="41.2555010" lon="-4.8734480">
        <ele>730.6</ele>
        <time>2019-08-14T12:32:12Z</time>
      </trkpt>
      <trkpt lat="41.2555520" lon="-4.8734820">
        <ele>730.5</ele>
        <time>2019-08-14T12:32:13Z</time>
      </trkpt>
      <trkpt lat="41.2556010" lon="-4.8735180">
        <ele>730.4</ele>
        <time>2019-08-14T12:32:14Z</time>
      </trkpt>
      <trkpt lat="41.2556500" lon="-4.8735560">
        <ele>730.4</ele>
        <time>2019-08-14T12:32:15Z</time>
      </trkpt>
      <trkpt lat="41.2556990" lon="-4.8735920">
        <ele>730.3</ele>
        <time>2019-08-14T12:32:16Z</time>
      </trkpt>
      <trkpt lat="41.2557470" lon="-4.8736260">
        <ele>730.3</ele>
        <time>2019-08-14T12:32:17Z</time>
      </trkpt>
      <trkpt lat="41.2557950" lon="-4.8736590">
        <ele>730.2</ele>
        <time>2019-08-14T12:32:18Z</time>
      </trkpt>
      <trkpt lat="41.2558440" lon="-4.8736920">
        <ele>730.2</ele>
        <time>2019-08-14T12:32:19Z</time>
      </trkpt>
      <trkpt lat="41.2558950" lon="-4.8737260">
        <ele>730.2</ele>
        <time>2019-08-14T12:32:20Z</time>
      </trkpt>
      <trkpt lat="41.2559460" lon="-4.8737620">
        <ele>730.1</ele>
        <time>2019-08-14T12:32:21Z</time>
      </trkpt>
      <trkpt lat="41.2559970" lon="-4.8738000">
        <ele>730.1</ele>
        <time>2019-08-14T12:32:22Z</time>
      </trkpt>
      <trkpt lat="41.2560490" lon="-4.8738380">
        <ele>730.1</ele>
        <time>2019-08-14T12:32:23Z</time>
      </trkpt>
      <trkpt lat="41.2561000" lon="-4.8738770">
        <ele>730.1</ele>
        <time>2019-08-14T12:32:24Z</time>
      </trkpt>
      <trkpt lat="41.2561520" lon="-4.8739160">
        <ele>730.1</ele>
        <time>2019-08-14T12:32:25Z</time>
      </trkpt>
      <trkpt lat="41.2562030" lon="-4.8739530">
        <ele>730.2</ele>
        <time>2019-08-14T12:32:26Z</time>
      </trkpt>
      <trkpt lat="41.2562540" lon="-4.8739870">
        <ele>730.2</ele>
        <time>2019-08-14T12:32:27Z</time>
      </trkpt>
      <trkpt lat="41.2563050" lon="-4.8740220">
        <ele>730.3</ele>
        <time>2019-08-14T12:32:28Z</time>
      </trkpt>
      <trkpt lat="41.2563550" lon="-4.8740590">
        <ele>730.3</ele>
        <time>2019-08-14T12:32:29Z</time>
      </trkpt>
      <trkpt lat="41.2564060" lon="-4.8740960">
        <ele>730.3</ele>
        <time>2019-08-14T12:32:30Z</time>
      </trkpt>
      <trkpt lat="41.2564570" lon="-4.8741320">
        <ele>730.4</ele>
        <time>2019-08-14T12:32:31Z</time>
      </trkpt>
      <trkpt lat="41.2565090" lon="-4.8741670">
        <ele>730.5</ele>
        <time>2019-08-14T12:32:32Z</time>
      </trkpt>
      <trkpt lat="41.2565610" lon="-4.8742030">
        <ele>730.6</ele>
        <time>2019-08-14T12:32:33Z</time>
      </trkpt>
      <trkpt lat="41.2566120" lon="-4.8742380">
        <ele>730.7</ele>
        <time>2019-08-14T12:32:34Z</time>
      </trkpt>
      <trkpt lat="41.2566640" lon="-4.8742750">
        <ele>730.8</ele>
        <time>2019-08-14T12:32:35Z</time>
      </trkpt>
      <trkpt lat="41.2567140" lon="-4.8743110">
        <ele>730.9</ele>
        <time>2019-08-14T12:32:36Z</time>
      </trkpt>
      <trkpt lat="41.2567650" lon="-4.8743450">
        <ele>731.0</ele>
        <time>2019-08-14T12:32:37Z</time>
      </trkpt>
      <trkpt lat="41.2568160" lon="-4.8743790">
        <ele>731.1</ele>
        <time>2019-08-14T12:32:38Z</time>
      </trkpt>
      <trkpt lat="41.2568680" lon="-4.8744150">
        <ele>731.1</ele>
        <time>2019-08-14T12:32:39Z</time>
      </trkpt>
      <trkpt lat="41.2569180" lon="-4.8744520">
        <ele>731.2</ele>
        <time>2019-08-14T12:32:40Z</time>
      </trkpt>
      <trkpt lat="41.2569670" lon="-4.8744880">
        <ele>731.2</ele>
        <time>2019-08-14T12:32:41Z</time>
      </trkpt>
      <trkpt lat="41.2570170" lon="-4.8745240">
        <ele>731.3</ele>
        <time>2019-08-14T12:32:42Z</time>
      </trkpt>
      <trkpt lat="41.2570680" lon="-4.8745590">
        <ele>731.3</ele>
        <time>2019-08-14T12:32:43Z</time>
      </trkpt>
      <trkpt lat="41.2571170" lon="-4.8745950">
        <ele>731.4</ele>
        <time>2019-08-14T12:32:44Z</time>
      </trkpt>
      <trkpt lat="41.2571650" lon="-4.8746300">
        <ele>731.5</ele>
        <time>2019-08-14T12:32:45Z</time>
      </trkpt>
      <trkpt lat="41.2572120" lon="-4.8746650">
        <ele>731.7</ele>
        <time>2019-08-14T12:32:46Z</time>
      </trkpt>
      <trkpt lat="41.2572580" lon="-4.8746970">
        <ele>731.8</ele>
        <time>2019-08-14T12:32:47Z</time>
      </trkpt>
      <trkpt lat="41.2573040" lon="-4.8747290">
        <ele>731.9</ele>
        <time>2019-08-14T12:32:48Z</time>
      </trkpt>
      <trkpt lat="41.2573520" lon="-4.8747610">
        <ele>732.0</ele>
        <time>2019-08-14T12:32:49Z</time>
      </trkpt>
      <trkpt lat="41.2574000" lon="-4.8747930">
        <ele>732.1</ele>
        <time>2019-08-14T12:32:50Z</time>
      </trkpt>
      <trkpt lat="41.2574470" lon="-4.8748250">
        <ele>732.1</ele>
        <time>2019-08-14T12:32:51Z</time>
      </trkpt>
      <trkpt lat="41.2574950" lon="-4.8748580">
        <ele>732.2</ele>
        <time>2019-08-14T12:32:52Z</time>
      </trkpt>
      <trkpt lat="41.2575440" lon="-4.8748920">
        <ele>732.2</ele>
        <time>2019-08-14T12:32:53Z</time>
      </trkpt>
      <trkpt lat="41.2575910" lon="-4.8749240">
        <ele>732.2</ele>
        <time>2019-08-14T12:32:54Z</time>
      </trkpt>
      <trkpt lat="41.2576370" lon="-4.8749570">
        <ele>732.2</ele>
        <time>2019-08-14T12:32:55Z</time>
      </trkpt>
      <trkpt lat="41.2576840" lon="-4.8749910">
        <ele>732.2</ele>
        <time>2019-08-14T12:32:56Z</time>
      </trkpt>
      <trkpt lat="41.2577280" lon="-4.8750250">
        <ele>732.2</ele>
        <time>2019-08-14T12:32:57Z</time>
      </trkpt>
      <trkpt lat="41.2577720" lon="-4.8750600">
        <ele>732.2</ele>
        <time>2019-08-14T12:32:58Z</time>
      </trkpt>
      <trkpt lat="41.2578160" lon="-4.8750940">
        <ele>732.3</ele>
        <time>2019-08-14T12:32:59Z</time>
      </trkpt>
      <trkpt lat="41.2578600" lon="-4.8751300">
        <ele>732.3</ele>
        <time>2019-08-14T12:33:00Z</time>
      </trkpt>
      <trkpt lat="41.2579040" lon="-4.8751670">
        <ele>732.3</ele>
        <time>2019-08-14T12:33:01Z</time>
      </trkpt>
      <trkpt lat="41.2579490" lon="-4.8752030">
        <ele>732.3</ele>
        <time>2019-08-14T12:33:02Z</time>
      </trkpt>
      <trkpt lat="41.2579940" lon="-4.8752390">
        <ele>732.4</ele>
        <time>2019-08-14T12:33:03Z</time>
      </trkpt>
      <trkpt lat="41.2580390" lon="-4.8752730">
        <ele>732.4</ele>
        <time>2019-08-14T12:33:04Z</time>
      </trkpt>
      <trkpt lat="41.2580850" lon="-4.8753060">
        <ele>732.4</ele>
        <time>2019-08-14T12:33:05Z</time>
      </trkpt>
      <trkpt lat="41.2581300" lon="-4.8753370">
        <ele>732.5</ele>
        <time>2019-08-14T12:33:06Z</time>
      </trkpt>
      <trkpt lat="41.2581730" lon="-4.8753670">
        <ele>732.5</ele>
        <time>2019-08-14T12:33:07Z</time>
      </trkpt>
      <trkpt lat="41.2582140" lon="-4.8753960">
        <ele>732.5</ele>
        <time>2019-08-14T12:33:08Z</time>
      </trkpt>
      <trkpt lat="41.2582540" lon="-4.8754220">
        <ele>732.6</ele>
        <time>2019-08-14T12:33:09Z</time>
      </trkpt>
      <trkpt lat="41.2582900" lon="-4.8754450">
        <ele>732.6</ele>
        <time>2019-08-14T12:33:10Z</time>
      </trkpt>
      <trkpt lat="41.2583290" lon="-4.8754700">
        <ele>732.6</ele>
        <time>2019-08-14T12:33:11Z</time>
      </trkpt>
      <trkpt lat="41.2583650" lon="-4.8754970">
        <ele>732.6</ele>
        <time>2019-08-14T12:33:12Z</time>
      </trkpt>
      <trkpt lat="41.2583990" lon="-4.8755250">
        <ele>732.7</ele>
        <time>2019-08-14T12:33:13Z</time>
      </trkpt>
      <trkpt lat="41.2584260" lon="-4.8755520">
        <ele>732.7</ele>
        <time>2019-08-14T12:33:14Z</time>
      </trkpt>
      <trkpt lat="41.2584550" lon="-4.8755820">
        <ele>732.6</ele>
        <time>2019-08-14T12:33:16Z</time>
      </trkpt>
      <trkpt lat="41.2584750" lon="-4.8755900">
        <ele>732.6</ele>
        <time>2019-08-14T12:33:25Z</time>
      </trkpt>
      <trkpt lat="41.2585080" lon="-4.8756340">
        <ele>732.6</ele>
        <time>2019-08-14T12:33:27Z</time>
      </trkpt>
      <trkpt lat="41.2585260" lon="-4.8756670">
        <ele>732.6</ele>
        <time>2019-08-14T12:33:28Z</time>
      </trkpt>
      <trkpt lat="41.2585490" lon="-4.8756990">
        <ele>732.5</ele>
        <time>2019-08-14T12:33:29Z</time>
      </trkpt>
      <trkpt lat="41.2585770" lon="-4.8757270">
        <ele>732.5</ele>
        <time>2019-08-14T12:33:30Z</time>
      </trkpt>
      <trkpt lat="41.2586090" lon="-4.8757500">
        <ele>732.5</ele>
        <time>2019-08-14T12:33:31Z</time>
      </trkpt>
      <trkpt lat="41.2586430" lon="-4.8757730">
        <ele>732.5</ele>
        <time>2019-08-14T12:33:32Z</time>
      </trkpt>
      <trkpt lat="41.2586780" lon="-4.8757950">
        <ele>732.4</ele>
        <time>2019-08-14T12:33:33Z</time>
      </trkpt>
      <trkpt lat="41.2587150" lon="-4.8758160">
        <ele>732.4</ele>
        <time>2019-08-14T12:33:34Z</time>
      </trkpt>
      <trkpt lat="41.2587520" lon="-4.8758380">
        <ele>732.3</ele>
        <time>2019-08-14T12:33:35Z</time>
      </trkpt>
      <trkpt lat="41.2587900" lon="-4.8758640">
        <ele>732.3</ele>
        <time>2019-08-14T12:33:36Z</time>
      </trkpt>
      <trkpt lat="41.2588260" lon="-4.8758930">
        <ele>732.2</ele>
        <time>2019-08-14T12:33:37Z</time>
      </trkpt>
      <trkpt lat="41.2588610" lon="-4.8759250">
        <ele>732.2</ele>
        <time>2019-08-14T12:33:38Z</time>
      </trkpt>
      <trkpt lat="41.2588960" lon="-4.8759600">
        <ele>732.2</ele>
        <time>2019-08-14T12:33:39Z</time>
      </trkpt>
      <trkpt lat="41.2589280" lon="-4.8759980">
        <ele>732.1</ele>
        <time>2019-08-14T12:33:40Z</time>
      </trkpt>
      <trkpt lat="41.2589600" lon="-4.8760410">
        <ele>732.1</ele>
        <time>2019-08-14T12:33:41Z</time>
      </trkpt>
      <trkpt lat="41.2589900" lon="-4.8760870">
        <ele>732.1</ele>
        <time>2019-08-14T12:33:42Z</time>
      </trkpt>
      <trkpt lat="41.2590210" lon="-4.8761330">
        <ele>732.0</ele>
        <time>2019-08-14T12:33:43Z</time>
      </trkpt>
      <trkpt lat="41.2590570" lon="-4.8761740">
        <ele>732.0</ele>
        <time>2019-08-14T12:33:44Z</time>
      </trkpt>
      <trkpt lat="41.2590960" lon="-4.8762120">
        <ele>732.0</ele>
        <time>2019-08-14T12:33:45Z</time>
      </trkpt>
      <trkpt lat="41.2591400" lon="-4.8762470">
        <ele>732.0</ele>
        <time>2019-08-14T12:33:46Z</time>
      </trkpt>
      <trkpt lat="41.2591860" lon="-4.8762810">
        <ele>732.0</ele>
        <time>2019-08-14T12:33:47Z</time>
      </trkpt>
      <trkpt lat="41.2592330" lon="-4.8763150">
        <ele>731.9</ele>
        <time>2019-08-14T12:33:48Z</time>
      </trkpt>
      <trkpt lat="41.2592810" lon="-4.8763480">
        <ele>731.9</ele>
        <time>2019-08-14T12:33:49Z</time>
      </trkpt>
      <trkpt lat="41.2593300" lon="-4.8763800">
        <ele>731.9</ele>
        <time>2019-08-14T12:33:50Z</time>
      </trkpt>
      <trkpt lat="41.2593780" lon="-4.8764120">
        <ele>731.9</ele>
        <time>2019-08-14T12:33:51Z</time>
      </trkpt>
      <trkpt lat="41.2594270" lon="-4.8764430">
        <ele>731.9</ele>
        <time>2019-08-14T12:33:52Z</time>
      </trkpt>
      <trkpt lat="41.2594750" lon="-4.8764770">
        <ele>731.9</ele>
        <time>2019-08-14T12:33:53Z</time>
      </trkpt>
      <trkpt lat="41.2595220" lon="-4.8765110">
        <ele>731.8</ele>
        <time>2019-08-14T12:33:54Z</time>
      </trkpt>
      <trkpt lat="41.2595680" lon="-4.8765460">
        <ele>731.8</ele>
        <time>2019-08-14T12:33:55Z</time>
      </trkpt>
      <trkpt lat="41.2596150" lon="-4.8765810">
        <ele>731.8</ele>
        <time>2019-08-14T12:33:56Z</time>
      </trkpt>
      <trkpt lat="41.2596620" lon="-4.8766140">
        <ele>731.8</ele>
        <time>2019-08-14T12:33:57Z</time>
      </trkpt>
      <trkpt lat="41.2597100" lon="-4.8766460">
        <ele>731.7</ele>
        <time>2019-08-14T12:33:58Z</time>
      </trkpt>
      <trkpt lat="41.2597580" lon="-4.8766780">
        <ele>731.7</ele>
        <time>2019-08-14T12:33:59Z</time>
      </trkpt>
      <trkpt lat="41.2598060" lon="-4.8767100">
        <ele>731.6</ele>
        <time>2019-08-14T12:34:00Z</time>
      </trkpt>
      <trkpt lat="41.2598540" lon="-4.8767420">
        <ele>731.6</ele>
        <time>2019-08-14T12:34:01Z</time>
      </trkpt>
      <trkpt lat="41.2599020" lon="-4.8767750">
        <ele>731.6</ele>
        <time>2019-08-14T12:34:02Z</time>
      </trkpt>
      <trkpt lat="41.2599490" lon="-4.8768100">
        <ele>731.6</ele>
        <time>2019-08-14T12:34:03Z</time>
      </trkpt>
      <trkpt lat="41.2599970" lon="-4.8768460">
        <ele>731.6</ele>
        <time>2019-08-14T12:34:04Z</time>
      </trkpt>
      <trkpt lat="41.2600470" lon="-4.8768830">
        <ele>731.6</ele>
        <time>2019-08-14T12:34:05Z</time>
      </trkpt>
      <trkpt lat="41.2600970" lon="-4.8769210">
        <ele>731.5</ele>
        <time>2019-08-14T12:34:06Z</time>
      </trkpt>
      <trkpt lat="41.2601450" lon="-4.8769570">
        <ele>731.5</ele>
        <time>2019-08-14T12:34:07Z</time>
      </trkpt>
      <trkpt lat="41.2601930" lon="-4.8769930">
        <ele>731.5</ele>
        <time>2019-08-14T12:34:08Z</time>
      </trkpt>
      <trkpt lat="41.2602380" lon="-4.8770270">
        <ele>731.4</ele>
        <time>2019-08-14T12:34:09Z</time>
      </trkpt>
      <trkpt lat="41.2602820" lon="-4.8770620">
        <ele>731.2</ele>
        <time>2019-08-14T12:34:10Z</time>
      </trkpt>
      <trkpt lat="41.2603280" lon="-4.8770970">
        <ele>731.0</ele>
        <time>2019-08-14T12:34:11Z</time>
      </trkpt>
      <trkpt lat="41.2603750" lon="-4.8771330">
        <ele>730.9</ele>
        <time>2019-08-14T12:34:12Z</time>
      </trkpt>
      <trkpt lat="41.2604240" lon="-4.8771660">
        <ele>730.7</ele>
        <time>2019-08-14T12:34:13Z</time>
      </trkpt>
      <trkpt lat="41.2604740" lon="-4.8771970">
        <ele>730.5</ele>
        <time>2019-08-14T12:34:14Z</time>
      </trkpt>
      <trkpt lat="41.2605220" lon="-4.8772270">
        <ele>730.3</ele>
        <time>2019-08-14T12:34:15Z</time>
      </trkpt>
      <trkpt lat="41.2605690" lon="-4.8772590">
        <ele>730.2</ele>
        <time>2019-08-14T12:34:16Z</time>
      </trkpt>
      <trkpt lat="41.2606170" lon="-4.8772930">
        <ele>729.9</ele>
        <time>2019-08-14T12:34:17Z</time>
      </trkpt>
      <trkpt lat="41.2606630" lon="-4.8773280">
        <ele>729.7</ele>
        <time>2019-08-14T12:34:18Z</time>
      </trkpt>
      <trkpt lat="41.2607120" lon="-4.8773620">
        <ele>729.5</ele>
        <time>2019-08-14T12:34:19Z</time>
      </trkpt>
      <trkpt lat="41.2607590" lon="-4.8773980">
        <ele>729.4</ele>
        <time>2019-08-14T12:34:20Z</time>
      </trkpt>
      <trkpt lat="41.2608040" lon="-4.8774340">
        <ele>729.2</ele>
        <time>2019-08-14T12:34:21Z</time>
      </trkpt>
      <trkpt lat="41.2608450" lon="-4.8774720">
        <ele>729.0</ele>
        <time>2019-08-14T12:34:22Z</time>
      </trkpt>
      <trkpt lat="41.2608870" lon="-4.8775110">
        <ele>728.8</ele>
        <time>2019-08-14T12:34:23Z</time>
      </trkpt>
      <trkpt lat="41.2609310" lon="-4.8775500">
        <ele>728.7</ele>
        <time>2019-08-14T12:34:24Z</time>
      </trkpt>
      <trkpt lat="41.2609780" lon="-4.8775880">
        <ele>728.5</ele>
        <time>2019-08-14T12:34:25Z</time>
      </trkpt>
      <trkpt lat="41.2610290" lon="-4.8776240">
        <ele>728.3</ele>
        <time>2019-08-14T12:34:26Z</time>
      </trkpt>
      <trkpt lat="41.2610810" lon="-4.8776620">
        <ele>728.1</ele>
        <time>2019-08-14T12:34:27Z</time>
      </trkpt>
      <trkpt lat="41.2611340" lon="-4.8777020">
        <ele>728.0</ele>
        <time>2019-08-14T12:34:28Z</time>
      </trkpt>
      <trkpt lat="41.2611860" lon="-4.8777420">
        <ele>727.8</ele>
        <time>2019-08-14T12:34:29Z</time>
      </trkpt>
      <trkpt lat="41.2612390" lon="-4.8777810">
        <ele>727.7</ele>
        <time>2019-08-14T12:34:30Z</time>
      </trkpt>
      <trkpt lat="41.2612910" lon="-4.8778220">
        <ele>727.5</ele>
        <time>2019-08-14T12:34:31Z</time>
      </trkpt>
      <trkpt lat="41.2613420" lon="-4.8778620">
        <ele>727.3</ele>
        <time>2019-08-14T12:34:32Z</time>
      </trkpt>
      <trkpt lat="41.2613960" lon="-4.8779010">
        <ele>727.2</ele>
        <time>2019-08-14T12:34:33Z</time>
      </trkpt>
      <trkpt lat="41.2614500" lon="-4.8779390">
        <ele>727.1</ele>
        <time>2019-08-14T12:34:34Z</time>
      </trkpt>
      <trkpt lat="41.2615050" lon="-4.8779780">
        <ele>726.9</ele>
        <time>2019-08-14T12:34:35Z</time>
      </trkpt>
      <trkpt lat="41.2615610" lon="-4.8780180">
        <ele>726.8</ele>
        <time>2019-08-14T12:34:36Z</time>
      </trkpt>
      <trkpt lat="41.2616170" lon="-4.8780580">
        <ele>726.6</ele>
        <time>2019-08-14T12:34:37Z</time>
      </trkpt>
      <trkpt lat="41.2616730" lon="-4.8780940">
        <ele>726.5</ele>
        <time>2019-08-14T12:34:38Z</time>
      </trkpt>
      <trkpt lat="41.2617290" lon="-4.8781290">
        <ele>726.3</ele>
        <time>2019-08-14T12:34:39Z</time>
      </trkpt>
      <trkpt lat="41.2617840" lon="-4.8781650">
        <ele>726.1</ele>
        <time>2019-08-14T12:34:40Z</time>
      </trkpt>
      <trkpt lat="41.2618380" lon="-4.8782010">
        <ele>725.9</ele>
        <time>2019-08-14T12:34:41Z</time>
      </trkpt>
      <trkpt lat="41.2618900" lon="-4.8782400">
        <ele>725.8</ele>
        <time>2019-08-14T12:34:42Z</time>
      </trkpt>
      <trkpt lat="41.2619420" lon="-4.8782790">
        <ele>725.6</ele>
        <time>2019-08-14T12:34:43Z</time>
      </trkpt>
      <trkpt lat="41.2619950" lon="-4.8783160">
        <ele>725.5</ele>
        <time>2019-08-14T12:34:44Z</time>
      </trkpt>
      <trkpt lat="41.2620480" lon="-4.8783540">
        <ele>725.4</ele>
        <time>2019-08-14T12:34:45Z</time>
      </trkpt>
      <trkpt lat="41.2620990" lon="-4.8783900">
        <ele>725.2</ele>
        <time>2019-08-14T12:34:46Z</time>
      </trkpt>
      <trkpt lat="41.2621490" lon="-4.8784260">
        <ele>725.1</ele>
        <time>2019-08-14T12:34:47Z</time>
      </trkpt>
      <trkpt lat="41.2622000" lon="-4.8784630">
        <ele>725.0</ele>
        <time>2019-08-14T12:34:48Z</time>
      </trkpt>
      <trkpt lat="41.2622500" lon="-4.8785000">
        <ele>724.9</ele>
        <time>2019-08-14T12:34:49Z</time>
      </trkpt>
      <trkpt lat="41.2623010" lon="-4.8785360">
        <ele>724.8</ele>
        <time>2019-08-14T12:34:50Z</time>
      </trkpt>
      <trkpt lat="41.2623540" lon="-4.8785740">
        <ele>724.7</ele>
        <time>2019-08-14T12:34:51Z</time>
      </trkpt>
      <trkpt lat="41.2624070" lon="-4.8786120">
        <ele>724.6</ele>
        <time>2019-08-14T12:34:52Z</time>
      </trkpt>
      <trkpt lat="41.2624610" lon="-4.8786520">
        <ele>724.6</ele>
        <time>2019-08-14T12:34:53Z</time>
      </trkpt>
      <trkpt lat="41.2625150" lon="-4.8786890">
        <ele>724.5</ele>
        <time>2019-08-14T12:34:54Z</time>
      </trkpt>
      <trkpt lat="41.2625700" lon="-4.8787210">
        <ele>724.5</ele>
        <time>2019-08-14T12:34:55Z</time>
      </trkpt>
      <trkpt lat="41.2626250" lon="-4.8787520">
        <ele>724.5</ele>
        <time>2019-08-14T12:34:56Z</time>
      </trkpt>
      <trkpt lat="41.2626770" lon="-4.8787880">
        <ele>724.5</ele>
        <time>2019-08-14T12:34:57Z</time>
      </trkpt>
      <trkpt lat="41.2627280" lon="-4.8788240">
        <ele>724.5</ele>
        <time>2019-08-14T12:34:58Z</time>
      </trkpt>
      <trkpt lat="41.2627780" lon="-4.8788620">
        <ele>724.5</ele>
        <time>2019-08-14T12:34:59Z</time>
      </trkpt>
      <trkpt lat="41.2628290" lon="-4.8789010">
        <ele>724.6</ele>
        <time>2019-08-14T12:35:00Z</time>
      </trkpt>
      <trkpt lat="41.2628790" lon="-4.8789400">
        <ele>724.6</ele>
        <time>2019-08-14T12:35:01Z</time>
      </trkpt>
      <trkpt lat="41.2629300" lon="-4.8789800">
        <ele>724.6</ele>
        <time>2019-08-14T12:35:02Z</time>
      </trkpt>
      <trkpt lat="41.2629820" lon="-4.8790190">
        <ele>724.6</ele>
        <time>2019-08-14T12:35:03Z</time>
      </trkpt>
      <trkpt lat="41.2630320" lon="-4.8790590">
        <ele>724.6</ele>
        <time>2019-08-14T12:35:04Z</time>
      </trkpt>
      <trkpt lat="41.2630820" lon="-4.8791000">
        <ele>724.5</ele>
        <time>2019-08-14T12:35:05Z</time>
      </trkpt>
      <trkpt lat="41.2631320" lon="-4.8791410">
        <ele>724.5</ele>
        <time>2019-08-14T12:35:06Z</time>
      </trkpt>
      <trkpt lat="41.2631840" lon="-4.8791790">
        <ele>724.4</ele>
        <time>2019-08-14T12:35:07Z</time>
      </trkpt>
      <trkpt lat="41.2632370" lon="-4.8792170">
        <ele>724.4</ele>
        <time>2019-08-14T12:35:08Z</time>
      </trkpt>
      <trkpt lat="41.2632900" lon="-4.8792530">
        <ele>724.4</ele>
        <time>2019-08-14T12:35:09Z</time>
      </trkpt>
      <trkpt lat="41.2633430" lon="-4.8792910">
        <ele>724.3</ele>
        <time>2019-08-14T12:35:10Z</time>
      </trkpt>
      <trkpt lat="41.2633960" lon="-4.8793290">
        <ele>724.3</ele>
        <time>2019-08-14T12:35:11Z</time>
      </trkpt>
      <trkpt lat="41.2634480" lon="-4.8793660">
        <ele>724.3</ele>
        <time>2019-08-14T12:35:12Z</time>
      </trkpt>
      <trkpt lat="41.2635000" lon="-4.8794040">
        <ele>724.4</ele>
        <time>2019-08-14T12:35:13Z</time>
      </trkpt>
      <trkpt lat="41.2635520" lon="-4.8794410">
        <ele>724.4</ele>
        <time>2019-08-14T12:35:14Z</time>
      </trkpt>
      <trkpt lat="41.2636040" lon="-4.8794800">
        <ele>724.4</ele>
        <time>2019-08-14T12:35:15Z</time>
      </trkpt>
      <trkpt lat="41.2636550" lon="-4.8795170">
        <ele>724.5</ele>
        <time>2019-08-14T12:35:16Z</time>
      </trkpt>
      <trkpt lat="41.2637050" lon="-4.8795550">
        <ele>724.6</ele>
        <time>2019-08-14T12:35:17Z</time>
      </trkpt>
      <trkpt lat="41.2637550" lon="-4.8795910">
        <ele>724.7</ele>
        <time>2019-08-14T12:35:18Z</time>
      </trkpt>
      <trkpt lat="41.2638050" lon="-4.8796260">
        <ele>724.8</ele>
        <time>2019-08-14T12:35:19Z</time>
      </trkpt>
      <trkpt lat="41.2638550" lon="-4.8796630">
        <ele>725.0</ele>
        <time>2019-08-14T12:35:20Z</time>
      </trkpt>
      <trkpt lat="41.2639050" lon="-4.8796980">
        <ele>725.1</ele>
        <time>2019-08-14T12:35:21Z</time>
      </trkpt>
      <trkpt lat="41.2639570" lon="-4.8797330">
        <ele>725.3</ele>
        <time>2019-08-14T12:35:22Z</time>
      </trkpt>
      <trkpt lat="41.2640070" lon="-4.8797680">
        <ele>725.5</ele>
        <time>2019-08-14T12:35:23Z</time>
      </trkpt>
      <trkpt lat="41.2640570" lon="-4.8798030">
        <ele>725.6</ele>
        <time>2019-08-14T12:35:24Z</time>
      </trkpt>
      <trkpt lat="41.2641070" lon="-4.8798350">
        <ele>725.7</ele>
        <time>2019-08-14T12:35:25Z</time>
      </trkpt>
      <trkpt lat="41.2641560" lon="-4.8798660">
        <ele>725.7</ele>
        <time>2019-08-14T12:35:26Z</time>
      </trkpt>
      <trkpt lat="41.2642040" lon="-4.8799020">
        <ele>725.9</ele>
        <time>2019-08-14T12:35:27Z</time>
      </trkpt>
      <trkpt lat="41.2642510" lon="-4.8799400">
        <ele>726.0</ele>
        <time>2019-08-14T12:35:28Z</time>
      </trkpt>
      <trkpt lat="41.2642950" lon="-4.8799790">
        <ele>726.0</ele>
        <time>2019-08-14T12:35:29Z</time>
      </trkpt>
      <trkpt lat="41.2643370" lon="-4.8800160">
        <ele>726.1</ele>
        <time>2019-08-14T12:35:30Z</time>
      </trkpt>
      <trkpt lat="41.2643790" lon="-4.8800500">
        <ele>726.1</ele>
        <time>2019-08-14T12:35:31Z</time>
      </trkpt>
      <trkpt lat="41.2644200" lon="-4.8800830">
        <ele>726.1</ele>
        <time>2019-08-14T12:35:32Z</time>
      </trkpt>
      <trkpt lat="41.2644570" lon="-4.8801210">
        <ele>726.1</ele>
        <time>2019-08-14T12:35:33Z</time>
      </trkpt>
      <trkpt lat="41.2644890" lon="-4.8801630">
        <ele>726.2</ele>
        <time>2019-08-14T12:35:34Z</time>
      </trkpt>
      <trkpt lat="41.2645140" lon="-4.8802080">
        <ele>726.2</ele>
        <time>2019-08-14T12:35:35Z</time>
      </trkpt>
      <trkpt lat="41.2645300" lon="-4.8802520">
        <ele>726.1</ele>
        <time>2019-08-14T12:35:36Z</time>
      </trkpt>
      <trkpt lat="41.2645410" lon="-4.8802860">
        <ele>726.1</ele>
        <time>2019-08-14T12:35:37Z</time>
      </trkpt>
      <trkpt lat="41.2645340" lon="-4.8803630">
        <ele>726.0</ele>
        <time>2019-08-14T12:36:00Z</time>
      </trkpt>
      <trkpt lat="41.2645550" lon="-4.8804140">
        <ele>726.0</ele>
        <time>2019-08-14T12:36:02Z</time>
      </trkpt>
      <trkpt lat="41.2645980" lon="-4.8804620">
        <ele>725.9</ele>
        <time>2019-08-14T12:36:04Z</time>
      </trkpt>
      <trkpt lat="41.2646260" lon="-4.8804890">
        <ele>725.9</ele>
        <time>2019-08-14T12:36:05Z</time>
      </trkpt>
      <trkpt lat="41.2646580" lon="-4.8805200">
        <ele>725.9</ele>
        <time>2019-08-14T12:36:06Z</time>
      </trkpt>
      <trkpt lat="41.2646940" lon="-4.8805450">
        <ele>725.9</ele>
        <time>2019-08-14T12:36:07Z</time>
      </trkpt>
      <trkpt lat="41.2647320" lon="-4.8805690">
        <ele>725.9</ele>
        <time>2019-08-14T12:36:08Z</time>
      </trkpt>
      <trkpt lat="41.2647670" lon="-4.8805920">
        <ele>725.9</ele>
        <time>2019-08-14T12:36:09Z</time>
      </trkpt>
      <trkpt lat="41.2647980" lon="-4.8806170">
        <ele>725.9</ele>
        <time>2019-08-14T12:36:10Z</time>
      </trkpt>
      <trkpt lat="41.2648220" lon="-4.8806460">
        <ele>725.9</ele>
        <time>2019-08-14T12:36:11Z</time>
      </trkpt>
      <trkpt lat="41.2648400" lon="-4.8807040">
        <ele>725.9</ele>
        <time>2019-08-14T12:36:13Z</time>
      </trkpt>
      <trkpt lat="41.2648360" lon="-4.8807520">
        <ele>725.8</ele>
        <time>2019-08-14T12:36:15Z</time>
      </trkpt>
      <trkpt lat="41.2648180" lon="-4.8807810">
        <ele>725.8</ele>
        <time>2019-08-14T12:36:17Z</time>
      </trkpt>
      <trkpt lat="41.2647680" lon="-4.8808500">
        <ele>725.7</ele>
        <time>2019-08-14T12:36:19Z</time>
      </trkpt>
      <trkpt lat="41.2647530" lon="-4.8808910">
        <ele>725.7</ele>
        <time>2019-08-14T12:36:20Z</time>
      </trkpt>
      <trkpt lat="41.2647170" lon="-4.8809310">
        <ele>725.6</ele>
        <time>2019-08-14T12:36:22Z</time>
      </trkpt>
      <trkpt lat="41.2647000" lon="-4.8809590">
        <ele>725.6</ele>
        <time>2019-08-14T12:36:23Z</time>
      </trkpt>
      <trkpt lat="41.2646920" lon="-4.8810140">
        <ele>725.5</ele>
        <time>2019-08-14T12:36:24Z</time>
      </trkpt>
      <trkpt lat="41.2646820" lon="-4.8810890">
        <ele>725.5</ele>
        <time>2019-08-14T12:36:25Z</time>
      </trkpt>
      <trkpt lat="41.2646670" lon="-4.8811600">
        <ele>725.4</ele>
        <time>2019-08-14T12:36:26Z</time>
      </trkpt>
      <trkpt lat="41.2646410" lon="-4.8812220">
        <ele>725.4</ele>
        <time>2019-08-14T12:36:27Z</time>
      </trkpt>
      <trkpt lat="41.2646300" lon="-4.8812800">
        <ele>725.3</ele>
        <time>2019-08-14T12:36:28Z</time>
      </trkpt>
      <trkpt lat="41.2646180" lon="-4.8813360">
        <ele>725.3</ele>
        <time>2019-08-14T12:36:29Z</time>
      </trkpt>
      <trkpt lat="41.2646200" lon="-4.8813860">
        <ele>725.2</ele>
        <time>2019-08-14T12:36:30Z</time>
      </trkpt>
      <trkpt lat="41.2646240" lon="-4.8814410">
        <ele>725.1</ele>
        <time>2019-08-14T12:36:31Z</time>
      </trkpt>
      <trkpt lat="41.2646410" lon="-4.8814930">
        <ele>725.0</ele>
        <time>2019-08-14T12:36:32Z</time>
      </trkpt>
      <trkpt lat="41.2646550" lon="-4.8815400">
        <ele>724.9</ele>
        <time>2019-08-14T12:36:33Z</time>
      </trkpt>
      <trkpt lat="41.2646780" lon="-4.8815830">
        <ele>724.8</ele>
        <time>2019-08-14T12:36:34Z</time>
      </trkpt>
      <trkpt lat="41.2647040" lon="-4.8816200">
        <ele>724.7</ele>
        <time>2019-08-14T12:36:35Z</time>
      </trkpt>
      <trkpt lat="41.2647320" lon="-4.8816570">
        <ele>724.6</ele>
        <time>2019-08-14T12:36:36Z</time>
      </trkpt>
      <trkpt lat="41.2647630" lon="-4.8816910">
        <ele>724.5</ele>
        <time>2019-08-14T12:36:37Z</time>
      </trkpt>
      <trkpt lat="41.2647970" lon="-4.8817260">
        <ele>724.4</ele>
        <time>2019-08-14T12:36:38Z</time>
      </trkpt>
      <trkpt lat="41.2648330" lon="-4.8817560">
        <ele>724.3</ele>
        <time>2019-08-14T12:36:39Z</time>
      </trkpt>
      <trkpt lat="41.2648700" lon="-4.8817820">
        <ele>724.2</ele>
        <time>2019-08-14T12:36:40Z</time>
      </trkpt>
      <trkpt lat="41.2649040" lon="-4.8818090">
        <ele>724.0</ele>
        <time>2019-08-14T12:36:41Z</time>
      </trkpt>
      <trkpt lat="41.2649380" lon="-4.8818350">
        <ele>723.8</ele>
        <time>2019-08-14T12:36:42Z</time>
      </trkpt>
      <trkpt lat="41.2649680" lon="-4.8818600">
        <ele>723.7</ele>
        <time>2019-08-14T12:36:43Z</time>
      </trkpt>
      <trkpt lat="41.2650000" lon="-4.8818810">
        <ele>723.7</ele>
        <time>2019-08-14T12:36:44Z</time>
      </trkpt>
      <trkpt lat="41.2650320" lon="-4.8819020">
        <ele>723.6</ele>
        <time>2019-08-14T12:36:45Z</time>
      </trkpt>
      <trkpt lat="41.2650650" lon="-4.8819230">
        <ele>723.5</ele>
        <time>2019-08-14T12:36:46Z</time>
      </trkpt>
      <trkpt lat="41.2651000" lon="-4.8819490">
        <ele>723.5</ele>
        <time>2019-08-14T12:36:47Z</time>
      </trkpt>
      <trkpt lat="41.2651350" lon="-4.8819760">
        <ele>723.4</ele>
        <time>2019-08-14T12:36:48Z</time>
      </trkpt>
      <trkpt lat="41.2651690" lon="-4.8820050">
        <ele>723.4</ele>
        <time>2019-08-14T12:36:49Z</time>
      </trkpt>
      <trkpt lat="41.2652030" lon="-4.8820340">
        <ele>723.4</ele>
        <time>2019-08-14T12:36:50Z</time>
      </trkpt>
      <trkpt lat="41.2652380" lon="-4.8820570">
        <ele>723.4</ele>
        <time>2019-08-14T12:36:51Z</time>
      </trkpt>
      <trkpt lat="41.2652730" lon="-4.8820760">
        <ele>723.4</ele>
        <time>2019-08-14T12:36:52Z</time>
      </trkpt>
      <trkpt lat="41.2653090" lon="-4.8820910">
        <ele>723.4</ele>
        <time>2019-08-14T12:36:53Z</time>
      </trkpt>
      <trkpt lat="41.2653470" lon="-4.8820970">
        <ele>723.5</ele>
        <time>2019-08-14T12:36:54Z</time>
      </trkpt>
      <trkpt lat="41.2653830" lon="-4.8820930">
        <ele>723.4</ele>
        <time>2019-08-14T12:36:55Z</time>
      </trkpt>
      <trkpt lat="41.2654130" lon="-4.8820860">
        <ele>723.3</ele>
        <time>2019-08-14T12:36:56Z</time>
      </trkpt>
      <trkpt lat="41.2654940" lon="-4.8820630">
        <ele>723.1</ele>
        <time>2019-08-14T12:36:58Z</time>
      </trkpt>
      <trkpt lat="41.2655450" lon="-4.8820480">
        <ele>722.9</ele>
        <time>2019-08-14T12:37:47Z</time>
      </trkpt>
      <trkpt lat="41.2655970" lon="-4.8820320">
        <ele>722.8</ele>
        <time>2019-08-14T12:37:48Z</time>
      </trkpt>
      <trkpt lat="41.2656400" lon="-4.8820310">
        <ele>722.7</ele>
        <time>2019-08-14T12:37:49Z</time>
      </trkpt>
      <trkpt lat="41.2656840" lon="-4.8820410">
        <ele>722.7</ele>
        <time>2019-08-14T12:37:50Z</time>
      </trkpt>
      <trkpt lat="41.2657270" lon="-4.8820570">
        <ele>722.6</ele>
        <time>2019-08-14T12:37:51Z</time>
      </trkpt>
      <trkpt lat="41.2657680" lon="-4.8820780">
        <ele>722.6</ele>
        <time>2019-08-14T12:37:52Z</time>
      </trkpt>
      <trkpt lat="41.2658080" lon="-4.8820980">
        <ele>722.6</ele>
        <time>2019-08-14T12:37:53Z</time>
      </trkpt>
      <trkpt lat="41.2658480" lon="-4.8821200">
        <ele>722.5</ele>
        <time>2019-08-14T12:37:54Z</time>
      </trkpt>
      <trkpt lat="41.2658860" lon="-4.8821460">
        <ele>722.5</ele>
        <time>2019-08-14T12:37:55Z</time>
      </trkpt>
      <trkpt lat="41.2659230" lon="-4.8821700">
        <ele>722.5</ele>
        <time>2019-08-14T12:37:56Z</time>
      </trkpt>
      <trkpt lat="41.2659570" lon="-4.8821930">
        <ele>722.5</ele>
        <time>2019-08-14T12:37:57Z</time>
      </trkpt>
      <trkpt lat="41.2659910" lon="-4.8822150">
        <ele>722.5</ele>
        <time>2019-08-14T12:37:58Z</time>
      </trkpt>
      <trkpt lat="41.2660250" lon="-4.8822390">
        <ele>722.5</ele>
        <time>2019-08-14T12:37:59Z</time>
      </trkpt>
      <trkpt lat="41.2660600" lon="-4.8822620">
        <ele>722.5</ele>
        <time>2019-08-14T12:38:00Z</time>
      </trkpt>
      <trkpt lat="41.2660960" lon="-4.8822890">
        <ele>722.5</ele>
        <time>2019-08-14T12:38:01Z</time>
      </trkpt>
      <trkpt lat="41.2661310" lon="-4.8823180">
        <ele>722.5</ele>
        <time>2019-08-14T12:38:02Z</time>
      </trkpt>
      <trkpt lat="41.2661670" lon="-4.8823460">
        <ele>722.5</ele>
        <time>2019-08-14T12:38:03Z</time>
      </trkpt>
      <trkpt lat="41.2662030" lon="-4.8823730">
        <ele>722.5</ele>
        <time>2019-08-14T12:38:04Z</time>
      </trkpt>
      <trkpt lat="41.2662380" lon="-4.8824010">
        <ele>722.5</ele>
        <time>2019-08-14T12:38:05Z</time>
      </trkpt>
      <trkpt lat="41.2662750" lon="-4.8824280">
        <ele>722.5</ele>
        <time>2019-08-14T12:38:06Z</time>
      </trkpt>
      <trkpt lat="41.2663110" lon="-4.8824570">
        <ele>722.5</ele>
        <time>2019-08-14T12:38:07Z</time>
      </trkpt>
      <trkpt lat="41.2663480" lon="-4.8824850">
        <ele>722.5</ele>
        <time>2019-08-14T12:38:08Z</time>
      </trkpt>
      <trkpt lat="41.2663840" lon="-4.8825130">
        <ele>722.5</ele>
        <time>2019-08-14T12:38:09Z</time>
      </trkpt>
      <trkpt lat="41.2664210" lon="-4.8825380">
        <ele>722.5</ele>
        <time>2019-08-14T12:38:10Z</time>
      </trkpt>
      <trkpt lat="41.2664590" lon="-4.8825600">
        <ele>722.5</ele>
        <time>2019-08-14T12:38:11Z</time>
      </trkpt>
      <trkpt lat="41.2664990" lon="-4.8825850">
        <ele>722.5</ele>
        <time>2019-08-14T12:38:12Z</time>
      </trkpt>
      <trkpt lat="41.2665380" lon="-4.8826120">
        <ele>722.5</ele>
        <time>2019-08-14T12:38:13Z</time>
      </trkpt>
      <trkpt lat="41.2665780" lon="-4.8826410">
        <ele>722.5</ele>
        <time>2019-08-14T12:38:14Z</time>
      </trkpt>
      <trkpt lat="41.2666200" lon="-4.8826720">
        <ele>722.5</ele>
        <time>2019-08-14T12:38:15Z</time>
      </trkpt>
      <trkpt lat="41.2666630" lon="-4.8827030">
        <ele>722.5</ele>
        <time>2019-08-14T12:38:16Z</time>
      </trkpt>
      <trkpt lat="41.2667090" lon="-4.8827310">
        <ele>722.5</ele>
        <time>2019-08-14T12:38:17Z</time>
      </trkpt>
      <trkpt lat="41.2667550" lon="-4.8827580">
        <ele>722.5</ele>
        <time>2019-08-14T12:38:18Z</time>
      </trkpt>
      <trkpt lat="41.2667990" lon="-4.8827850">
        <ele>722.5</ele>
        <time>2019-08-14T12:38:19Z</time>
      </trkpt>
      <trkpt lat="41.2668390" lon="-4.8828100">
        <ele>722.5</ele>
        <time>2019-08-14T12:38:20Z</time>
      </trkpt>
      <trkpt lat="41.2668780" lon="-4.8828320">
        <ele>722.5</ele>
        <time>2019-08-14T12:38:21Z</time>
      </trkpt>
      <trkpt lat="41.2669190" lon="-4.8828550">
        <ele>722.5</ele>
        <time>2019-08-14T12:38:22Z</time>
      </trkpt>
      <trkpt lat="41.2669610" lon="-4.8828800">
        <ele>722.5</ele>
        <time>2019-08-14T12:38:23Z</time>
      </trkpt>
      <trkpt lat="41.2670030" lon="-4.8829070">
        <ele>722.5</ele>
        <time>2019-08-14T12:38:24Z</time>
      </trkpt>
      <trkpt lat="41.2670460" lon="-4.8829350">
        <ele>722.5</ele>
        <time>2019-08-14T12:38:25Z</time>
      </trkpt>
      <trkpt lat="41.2670900" lon="-4.8829640">
        <ele>722.5</ele>
        <time>2019-08-14T12:38:26Z</time>
      </trkpt>
      <trkpt lat="41.2671350" lon="-4.8829920">
        <ele>722.5</ele>
        <time>2019-08-14T12:38:27Z</time>
      </trkpt>
      <trkpt lat="41.2671780" lon="-4.8830240">
        <ele>722.5</ele>
        <time>2019-08-14T12:38:28Z</time>
      </trkpt>
      <trkpt lat="41.2672200" lon="-4.8830560">
        <ele>722.5</ele>
        <time>2019-08-14T12:38:29Z</time>
      </trkpt>
      <trkpt lat="41.2672590" lon="-4.8830890">
        <ele>722.5</ele>
        <time>2019-08-14T12:38:30Z</time>
      </trkpt>
      <trkpt lat="41.2672980" lon="-4.8831200">
        <ele>722.5</ele>
        <time>2019-08-14T12:38:31Z</time>
      </trkpt>
      <trkpt lat="41.2673350" lon="-4.8831500">
        <ele>722.5</ele>
        <time>2019-08-14T12:38:32Z</time>
      </trkpt>
      <trkpt lat="41.2673700" lon="-4.8831820">
        <ele>722.5</ele>
        <time>2019-08-14T12:38:33Z</time>
      </trkpt>
      <trkpt lat="41.2674060" lon="-4.8832120">
        <ele>722.5</ele>
        <time>2019-08-14T12:38:34Z</time>
      </trkpt>
      <trkpt lat="41.2674400" lon="-4.8832430">
        <ele>722.5</ele>
        <time>2019-08-14T12:38:35Z</time>
      </trkpt>
      <trkpt lat="41.2674740" lon="-4.8832750">
        <ele>722.6</ele>
        <time>2019-08-14T12:38:36Z</time>
      </trkpt>
      <trkpt lat="41.2675070" lon="-4.8833050">
        <ele>722.6</ele>
        <time>2019-08-14T12:38:37Z</time>
      </trkpt>
      <trkpt lat="41.2675390" lon="-4.8833340">
        <ele>722.6</ele>
        <time>2019-08-14T12:38:38Z</time>
      </trkpt>
      <trkpt lat="41.2675720" lon="-4.8833620">
        <ele>722.7</ele>
        <time>2019-08-14T12:38:39Z</time>
      </trkpt>
      <trkpt lat="41.2676040" lon="-4.8833890">
        <ele>722.7</ele>
        <time>2019-08-14T12:38:40Z</time>
      </trkpt>
      <trkpt lat="41.2676320" lon="-4.8834150">
        <ele>722.8</ele>
        <time>2019-08-14T12:38:41Z</time>
      </trkpt>
      <trkpt lat="41.2676540" lon="-4.8834380">
        <ele>722.8</ele>
        <time>2019-08-14T12:38:42Z</time>
      </trkpt>
      <trkpt lat="41.2676740" lon="-4.8834680">
        <ele>722.8</ele>
        <time>2019-08-14T12:38:44Z</time>
      </trkpt>
      <trkpt lat="41.2677190" lon="-4.8834980">
        <ele>722.9</ele>
        <time>2019-08-14T12:39:15Z</time>
      </trkpt>
      <trkpt lat="41.2677640" lon="-4.8835400">
        <ele>723.0</ele>
        <time>2019-08-14T12:39:17Z</time>
      </trkpt>
      <trkpt lat="41.2677920" lon="-4.8835580">
        <ele>723.1</ele>
        <time>2019-08-14T12:39:18Z</time>
      </trkpt>
      <trkpt lat="41.2678220" lon="-4.8835790">
        <ele>723.1</ele>
        <time>2019-08-14T12:39:19Z</time>
      </trkpt>
      <trkpt lat="41.2678520" lon="-4.8836010">
        <ele>723.2</ele>
        <time>2019-08-14T12:39:20Z</time>
      </trkpt>
      <trkpt lat="41.2678840" lon="-4.8836240">
        <ele>723.2</ele>
        <time>2019-08-14T12:39:21Z</time>
      </trkpt>
      <trkpt lat="41.2679160" lon="-4.8836490">
        <ele>723.2</ele>
        <time>2019-08-14T12:39:22Z</time>
      </trkpt>
      <trkpt lat="41.2679510" lon="-4.8836740">
        <ele>723.3</ele>
        <time>2019-08-14T12:39:23Z</time>
      </trkpt>
      <trkpt lat="41.2679870" lon="-4.8837010">
        <ele>723.3</ele>
        <time>2019-08-14T12:39:24Z</time>
      </trkpt>
      <trkpt lat="41.2680260" lon="-4.8837300">
        <ele>723.3</ele>
        <time>2019-08-14T12:39:25Z</time>
      </trkpt>
      <trkpt lat="41.2680650" lon="-4.8837580">
        <ele>723.2</ele>
        <time>2019-08-14T12:39:26Z</time>
      </trkpt>
      <trkpt lat="41.2681040" lon="-4.8837870">
        <ele>723.2</ele>
        <time>2019-08-14T12:39:27Z</time>
      </trkpt>
      <trkpt lat="41.2681420" lon="-4.8838180">
        <ele>723.2</ele>
        <time>2019-08-14T12:39:28Z</time>
      </trkpt>
      <trkpt lat="41.2681800" lon="-4.8838480">
        <ele>723.1</ele>
        <time>2019-08-14T12:39:29Z</time>
      </trkpt>
      <trkpt lat="41.2682180" lon="-4.8838790">
        <ele>723.0</ele>
        <time>2019-08-14T12:39:30Z</time>
      </trkpt>
      <trkpt lat="41.2682580" lon="-4.8839110">
        <ele>722.9</ele>
        <time>2019-08-14T12:39:31Z</time>
      </trkpt>
      <trkpt lat="41.2683000" lon="-4.8839420">
        <ele>722.9</ele>
        <time>2019-08-14T12:39:32Z</time>
      </trkpt>
      <trkpt lat="41.2683410" lon="-4.8839730">
        <ele>722.8</ele>
        <time>2019-08-14T12:39:33Z</time>
      </trkpt>
      <trkpt lat="41.2683820" lon="-4.8840020">
        <ele>722.7</ele>
        <time>2019-08-14T12:39:34Z</time>
      </trkpt>
      <trkpt lat="41.2684210" lon="-4.8840300">
        <ele>722.6</ele>
        <time>2019-08-14T12:39:35Z</time>
      </trkpt>
      <trkpt lat="41.2684580" lon="-4.8840580">
        <ele>722.5</ele>
        <time>2019-08-14T12:39:36Z</time>
      </trkpt>
      <trkpt lat="41.2684970" lon="-4.8840880">
        <ele>722.5</ele>
        <time>2019-08-14T12:39:37Z</time>
      </trkpt>
      <trkpt lat="41.2685360" lon="-4.8841180">
        <ele>722.4</ele>
        <time>2019-08-14T12:39:38Z</time>
      </trkpt>
      <trkpt lat="41.2685750" lon="-4.8841480">
        <ele>722.3</ele>
        <time>2019-08-14T12:39:39Z</time>
      </trkpt>
      <trkpt lat="41.2686170" lon="-4.8841780">
        <ele>722.2</ele>
        <time>2019-08-14T12:39:40Z</time>
      </trkpt>
      <trkpt lat="41.2686590" lon="-4.8842080">
        <ele>722.2</ele>
        <time>2019-08-14T12:39:41Z</time>
      </trkpt>
      <trkpt lat="41.2687010" lon="-4.8842400">
        <ele>722.1</ele>
        <time>2019-08-14T12:39:42Z</time>
      </trkpt>
      <trkpt lat="41.2687420" lon="-4.8842710">
        <ele>722.0</ele>
        <time>2019-08-14T12:39:43Z</time>
      </trkpt>
      <trkpt lat="41.2687820" lon="-4.8842990">
        <ele>721.9</ele>
        <time>2019-08-14T12:39:44Z</time>
      </trkpt>
      <trkpt lat="41.2688210" lon="-4.8843260">
        <ele>721.9</ele>
        <time>2019-08-14T12:39:45Z</time>
      </trkpt>
      <trkpt lat="41.2688610" lon="-4.8843560">
        <ele>721.8</ele>
        <time>2019-08-14T12:39:46Z</time>
      </trkpt>
      <trkpt lat="41.2689010" lon="-4.8843850">
        <ele>721.7</ele>
        <time>2019-08-14T12:39:47Z</time>
      </trkpt>
      <trkpt lat="41.2689400" lon="-4.8844130">
        <ele>721.7</ele>
        <time>2019-08-14T12:39:48Z</time>
      </trkpt>
      <trkpt lat="41.2689770" lon="-4.8844410">
        <ele>721.6</ele>
        <time>2019-08-14T12:39:49Z</time>
      </trkpt>
      <trkpt lat="41.2690170" lon="-4.8844690">
        <ele>721.6</ele>
        <time>2019-08-14T12:39:50Z</time>
      </trkpt>
      <trkpt lat="41.2690560" lon="-4.8844980">
        <ele>721.6</ele>
        <time>2019-08-14T12:39:51Z</time>
      </trkpt>
      <trkpt lat="41.2690950" lon="-4.8845300">
        <ele>721.5</ele>
        <time>2019-08-14T12:39:52Z</time>
      </trkpt>
      <trkpt lat="41.2691360" lon="-4.8845600">
        <ele>721.5</ele>
        <time>2019-08-14T12:39:53Z</time>
      </trkpt>
      <trkpt lat="41.2691780" lon="-4.8845920">
        <ele>721.5</ele>
        <time>2019-08-14T12:39:54Z</time>
      </trkpt>
      <trkpt lat="41.2692200" lon="-4.8846250">
        <ele>721.5</ele>
        <time>2019-08-14T12:39:55Z</time>
      </trkpt>
      <trkpt lat="41.2692610" lon="-4.8846580">
        <ele>721.5</ele>
        <time>2019-08-14T12:39:56Z</time>
      </trkpt>
      <trkpt lat="41.2693020" lon="-4.8846920">
        <ele>721.5</ele>
        <time>2019-08-14T12:39:57Z</time>
      </trkpt>
      <trkpt lat="41.2693420" lon="-4.8847230">
        <ele>721.5</ele>
        <time>2019-08-14T12:39:58Z</time>
      </trkpt>
      <trkpt lat="41.2693840" lon="-4.8847520">
        <ele>721.5</ele>
        <time>2019-08-14T12:39:59Z</time>
      </trkpt>
      <trkpt lat="41.2694250" lon="-4.8847820">
        <ele>721.5</ele>
        <time>2019-08-14T12:40:00Z</time>
      </trkpt>
      <trkpt lat="41.2694660" lon="-4.8848140">
        <ele>721.5</ele>
        <time>2019-08-14T12:40:01Z</time>
      </trkpt>
      <trkpt lat="41.2695070" lon="-4.8848460">
        <ele>721.5</ele>
        <time>2019-08-14T12:40:02Z</time>
      </trkpt>
      <trkpt lat="41.2695490" lon="-4.8848790">
        <ele>721.5</ele>
        <time>2019-08-14T12:40:03Z</time>
      </trkpt>
      <trkpt lat="41.2695920" lon="-4.8849100">
        <ele>721.5</ele>
        <time>2019-08-14T12:40:04Z</time>
      </trkpt>
      <trkpt lat="41.2696350" lon="-4.8849400">
        <ele>721.5</ele>
        <time>2019-08-14T12:40:05Z</time>
      </trkpt>
      <trkpt lat="41.2696760" lon="-4.8849720">
        <ele>721.5</ele>
        <time>2019-08-14T12:40:06Z</time>
      </trkpt>
      <trkpt lat="41.2697160" lon="-4.8850020">
        <ele>721.5</ele>
        <time>2019-08-14T12:40:07Z</time>
      </trkpt>
      <trkpt lat="41.2697570" lon="-4.8850320">
        <ele>721.5</ele>
        <time>2019-08-14T12:40:08Z</time>
      </trkpt>
      <trkpt lat="41.2698000" lon="-4.8850630">
        <ele>721.5</ele>
        <time>2019-08-14T12:40:09Z</time>
      </trkpt>
      <trkpt lat="41.2698420" lon="-4.8850960">
        <ele>721.5</ele>
        <time>2019-08-14T12:40:10Z</time>
      </trkpt>
      <trkpt lat="41.2698860" lon="-4.8851300">
        <ele>721.6</ele>
        <time>2019-08-14T12:40:11Z</time>
      </trkpt>
      <trkpt lat="41.2699300" lon="-4.8851620">
        <ele>721.6</ele>
        <time>2019-08-14T12:40:12Z</time>
      </trkpt>
      <trkpt lat="41.2699760" lon="-4.8851950">
        <ele>721.7</ele>
        <time>2019-08-14T12:40:13Z</time>
      </trkpt>
      <trkpt lat="41.2700220" lon="-4.8852290">
        <ele>721.7</ele>
        <time>2019-08-14T12:40:14Z</time>
      </trkpt>
      <trkpt lat="41.2700680" lon="-4.8852610">
        <ele>721.8</ele>
        <time>2019-08-14T12:40:15Z</time>
      </trkpt>
      <trkpt lat="41.2701140" lon="-4.8852940">
        <ele>721.9</ele>
        <time>2019-08-14T12:40:16Z</time>
      </trkpt>
      <trkpt lat="41.2701600" lon="-4.8853260">
        <ele>722.0</ele>
        <time>2019-08-14T12:40:17Z</time>
      </trkpt>
      <trkpt lat="41.2702040" lon="-4.8853580">
        <ele>722.0</ele>
        <time>2019-08-14T12:40:18Z</time>
      </trkpt>
      <trkpt lat="41.2702480" lon="-4.8853890">
        <ele>722.1</ele>
        <time>2019-08-14T12:40:19Z</time>
      </trkpt>
      <trkpt lat="41.2702910" lon="-4.8854190">
        <ele>722.2</ele>
        <time>2019-08-14T12:40:20Z</time>
      </trkpt>
      <trkpt lat="41.2703330" lon="-4.8854490">
        <ele>722.3</ele>
        <time>2019-08-14T12:40:21Z</time>
      </trkpt>
      <trkpt lat="41.2703750" lon="-4.8854800">
        <ele>722.3</ele>
        <time>2019-08-14T12:40:22Z</time>
      </trkpt>
      <trkpt lat="41.2704160" lon="-4.8855120">
        <ele>722.4</ele>
        <time>2019-08-14T12:40:23Z</time>
      </trkpt>
      <trkpt lat="41.2704570" lon="-4.8855430">
        <ele>722.4</ele>
        <time>2019-08-14T12:40:24Z</time>
      </trkpt>
      <trkpt lat="41.2704980" lon="-4.8855730">
        <ele>722.4</ele>
        <time>2019-08-14T12:40:25Z</time>
      </trkpt>
      <trkpt lat="41.2705400" lon="-4.8856040">
        <ele>722.4</ele>
        <time>2019-08-14T12:40:26Z</time>
      </trkpt>
      <trkpt lat="41.2705820" lon="-4.8856350">
        <ele>722.4</ele>
        <time>2019-08-14T12:40:27Z</time>
      </trkpt>
      <trkpt lat="41.2706240" lon="-4.8856670">
        <ele>722.4</ele>
        <time>2019-08-14T12:40:28Z</time>
      </trkpt>
      <trkpt lat="41.2706660" lon="-4.8856970">
        <ele>722.4</ele>
        <time>2019-08-14T12:40:29Z</time>
      </trkpt>
      <trkpt lat="41.2707090" lon="-4.8857280">
        <ele>722.4</ele>
        <time>2019-08-14T12:40:30Z</time>
      </trkpt>
      <trkpt lat="41.2707510" lon="-4.8857580">
        <ele>722.4</ele>
        <time>2019-08-14T12:40:31Z</time>
      </trkpt>
      <trkpt lat="41.2707930" lon="-4.8857890">
        <ele>722.4</ele>
        <time>2019-08-14T12:40:32Z</time>
      </trkpt>
      <trkpt lat="41.2708350" lon="-4.8858210">
        <ele>722.4</ele>
        <time>2019-08-14T12:40:33Z</time>
      </trkpt>
      <trkpt lat="41.2708770" lon="-4.8858520">
        <ele>722.4</ele>
        <time>2019-08-14T12:40:34Z</time>
      </trkpt>
      <trkpt lat="41.2709200" lon="-4.8858820">
        <ele>722.4</ele>
        <time>2019-08-14T12:40:35Z</time>
      </trkpt>
      <trkpt lat="41.2709620" lon="-4.8859130">
        <ele>722.4</ele>
        <time>2019-08-14T12:40:36Z</time>
      </trkpt>
      <trkpt lat="41.2710050" lon="-4.8859430">
        <ele>722.4</ele>
        <time>2019-08-14T12:40:37Z</time>
      </trkpt>
      <trkpt lat="41.2710490" lon="-4.8859740">
        <ele>722.4</ele>
        <time>2019-08-14T12:40:38Z</time>
      </trkpt>
      <trkpt lat="41.2710900" lon="-4.8860080">
        <ele>722.4</ele>
        <time>2019-08-14T12:40:39Z</time>
      </trkpt>
      <trkpt lat="41.2711330" lon="-4.8860420">
        <ele>722.4</ele>
        <time>2019-08-14T12:40:40Z</time>
      </trkpt>
      <trkpt lat="41.2711780" lon="-4.8860740">
        <ele>722.4</ele>
        <time>2019-08-14T12:40:41Z</time>
      </trkpt>
      <trkpt lat="41.2712230" lon="-4.8861040">
        <ele>722.4</ele>
        <time>2019-08-14T12:40:42Z</time>
      </trkpt>
      <trkpt lat="41.2712670" lon="-4.8861340">
        <ele>722.4</ele>
        <time>2019-08-14T12:40:43Z</time>
      </trkpt>
      <trkpt lat="41.2713110" lon="-4.8861650">
        <ele>722.4</ele>
        <time>2019-08-14T12:40:44Z</time>
      </trkpt>
      <trkpt lat="41.2713540" lon="-4.8861980">
        <ele>722.4</ele>
        <time>2019-08-14T12:40:45Z</time>
      </trkpt>
      <trkpt lat="41.2713990" lon="-4.8862290">
        <ele>722.4</ele>
        <time>2019-08-14T12:40:46Z</time>
      </trkpt>
      <trkpt lat="41.2714440" lon="-4.8862610">
        <ele>722.4</ele>
        <time>2019-08-14T12:40:47Z</time>
      </trkpt>
      <trkpt lat="41.2714900" lon="-4.8862950">
        <ele>722.4</ele>
        <time>2019-08-14T12:40:48Z</time>
      </trkpt>
      <trkpt lat="41.2715350" lon="-4.8863310">
        <ele>722.3</ele>
        <time>2019-08-14T12:40:49Z</time>
      </trkpt>
      <trkpt lat="41.2715790" lon="-4.8863650">
        <ele>722.3</ele>
        <time>2019-08-14T12:40:50Z</time>
      </trkpt>
      <trkpt lat="41.2716240" lon="-4.8863970">
        <ele>722.3</ele>
        <time>2019-08-14T12:40:51Z</time>
      </trkpt>
      <trkpt lat="41.2716680" lon="-4.8864300">
        <ele>722.2</ele>
        <time>2019-08-14T12:40:52Z</time>
      </trkpt>
      <trkpt lat="41.2717140" lon="-4.8864650">
        <ele>722.1</ele>
        <time>2019-08-14T12:40:53Z</time>
      </trkpt>
      <trkpt lat="41.2717600" lon="-4.8864990">
        <ele>722.1</ele>
        <time>2019-08-14T12:40:54Z</time>
      </trkpt>
      <trkpt lat="41.2718060" lon="-4.8865330">
        <ele>722.0</ele>
        <time>2019-08-14T12:40:55Z</time>
      </trkpt>
      <trkpt lat="41.2718530" lon="-4.8865660">
        <ele>721.9</ele>
        <time>2019-08-14T12:40:56Z</time>
      </trkpt>
      <trkpt lat="41.2718990" lon="-4.8865980">
        <ele>721.8</ele>
        <time>2019-08-14T12:40:57Z</time>
      </trkpt>
      <trkpt lat="41.2719420" lon="-4.8866290">
        <ele>721.8</ele>
        <time>2019-08-14T12:40:58Z</time>
      </trkpt>
      <trkpt lat="41.2719850" lon="-4.8866590">
        <ele>721.7</ele>
        <time>2019-08-14T12:40:59Z</time>
      </trkpt>
      <trkpt lat="41.2720270" lon="-4.8866910">
        <ele>721.6</ele>
        <time>2019-08-14T12:41:00Z</time>
      </trkpt>
      <trkpt lat="41.2720700" lon="-4.8867220">
        <ele>721.6</ele>
        <time>2019-08-14T12:41:01Z</time>
      </trkpt>
      <trkpt lat="41.2721130" lon="-4.8867540">
        <ele>721.5</ele>
        <time>2019-08-14T12:41:02Z</time>
      </trkpt>
      <trkpt lat="41.2721560" lon="-4.8867860">
        <ele>721.5</ele>
        <time>2019-08-14T12:41:03Z</time>
      </trkpt>
      <trkpt lat="41.2722000" lon="-4.8868180">
        <ele>721.5</ele>
        <time>2019-08-14T12:41:04Z</time>
      </trkpt>
      <trkpt lat="41.2722440" lon="-4.8868500">
        <ele>721.5</ele>
        <time>2019-08-14T12:41:05Z</time>
      </trkpt>
      <trkpt lat="41.2722880" lon="-4.8868820">
        <ele>721.4</ele>
        <time>2019-08-14T12:41:06Z</time>
      </trkpt>
      <trkpt lat="41.2723320" lon="-4.8869130">
        <ele>721.4</ele>
        <time>2019-08-14T12:41:07Z</time>
      </trkpt>
      <trkpt lat="41.2723760" lon="-4.8869450">
        <ele>721.4</ele>
        <time>2019-08-14T12:41:08Z</time>
      </trkpt>
      <trkpt lat="41.2724190" lon="-4.8869770">
        <ele>721.4</ele>
        <time>2019-08-14T12:41:09Z</time>
      </trkpt>
      <trkpt lat="41.2724640" lon="-4.8870100">
        <ele>721.4</ele>
        <time>2019-08-14T12:41:10Z</time>
      </trkpt>
      <trkpt lat="41.2725090" lon="-4.8870430">
        <ele>721.4</ele>
        <time>2019-08-14T12:41:11Z</time>
      </trkpt>
      <trkpt lat="41.2725530" lon="-4.8870750">
        <ele>721.4</ele>
        <time>2019-08-14T12:41:12Z</time>
      </trkpt>
      <trkpt lat="41.2725970" lon="-4.8871080">
        <ele>721.4</ele>
        <time>2019-08-14T12:41:13Z</time>
      </trkpt>
      <trkpt lat="41.2726410" lon="-4.8871430">
        <ele>721.4</ele>
        <time>2019-08-14T12:41:14Z</time>
      </trkpt>
      <trkpt lat="41.2726860" lon="-4.8871770">
        <ele>721.4</ele>
        <time>2019-08-14T12:41:15Z</time>
      </trkpt>
      <trkpt lat="41.2727320" lon="-4.8872110">
        <ele>721.4</ele>
        <time>2019-08-14T12:41:16Z</time>
      </trkpt>
      <trkpt lat="41.2727790" lon="-4.8872450">
        <ele>721.4</ele>
        <time>2019-08-14T12:41:17Z</time>
      </trkpt>
      <trkpt lat="41.2728260" lon="-4.8872810">
        <ele>721.4</ele>
        <time>2019-08-14T12:41:18Z</time>
      </trkpt>
      <trkpt lat="41.2728740" lon="-4.8873170">
        <ele>721.4</ele>
        <time>2019-08-14T12:41:19Z</time>
      </trkpt>
      <trkpt lat="41.2729230" lon="-4.8873530">
        <ele>721.4</ele>
        <time>2019-08-14T12:41:20Z</time>
      </trkpt>
      <trkpt lat="41.2729720" lon="-4.8873870">
        <ele>721.4</ele>
        <time>2019-08-14T12:41:21Z</time>
      </trkpt>
      <trkpt lat="41.2730180" lon="-4.8874210">
        <ele>721.4</ele>
        <time>2019-08-14T12:41:22Z</time>
      </trkpt>
      <trkpt lat="41.2730650" lon="-4.8874550">
        <ele>721.4</ele>
        <time>2019-08-14T12:41:23Z</time>
      </trkpt>
      <trkpt lat="41.2731120" lon="-4.8874900">
        <ele>721.4</ele>
        <time>2019-08-14T12:41:24Z</time>
      </trkpt>
      <trkpt lat="41.2731590" lon="-4.8875240">
        <ele>721.4</ele>
        <time>2019-08-14T12:41:25Z</time>
      </trkpt>
      <trkpt lat="41.2732070" lon="-4.8875590">
        <ele>721.4</ele>
        <time>2019-08-14T12:41:26Z</time>
      </trkpt>
      <trkpt lat="41.2732560" lon="-4.8875940">
        <ele>721.4</ele>
        <time>2019-08-14T12:41:27Z</time>
      </trkpt>
      <trkpt lat="41.2733050" lon="-4.8876290">
        <ele>721.4</ele>
        <time>2019-08-14T12:41:28Z</time>
      </trkpt>
      <trkpt lat="41.2733550" lon="-4.8876660">
        <ele>721.4</ele>
        <time>2019-08-14T12:41:29Z</time>
      </trkpt>
      <trkpt lat="41.2734030" lon="-4.8877030">
        <ele>721.4</ele>
        <time>2019-08-14T12:41:30Z</time>
      </trkpt>
      <trkpt lat="41.2734520" lon="-4.8877380">
        <ele>721.4</ele>
        <time>2019-08-14T12:41:31Z</time>
      </trkpt>
      <trkpt lat="41.2735000" lon="-4.8877730">
        <ele>721.4</ele>
        <time>2019-08-14T12:41:32Z</time>
      </trkpt>
      <trkpt lat="41.2735490" lon="-4.8878080">
        <ele>721.4</ele>
        <time>2019-08-14T12:41:33Z</time>
      </trkpt>
      <trkpt lat="41.2735940" lon="-4.8878430">
        <ele>721.4</ele>
        <time>2019-08-14T12:41:34Z</time>
      </trkpt>
      <trkpt lat="41.2736390" lon="-4.8878760">
        <ele>721.4</ele>
        <time>2019-08-14T12:41:35Z</time>
      </trkpt>
      <trkpt lat="41.2736830" lon="-4.8879090">
        <ele>721.4</ele>
        <time>2019-08-14T12:41:36Z</time>
      </trkpt>
      <trkpt lat="41.2737270" lon="-4.8879450">
        <ele>721.4</ele>
        <time>2019-08-14T12:41:37Z</time>
      </trkpt>
      <trkpt lat="41.2737740" lon="-4.8879790">
        <ele>721.3</ele>
        <time>2019-08-14T12:41:38Z</time>
      </trkpt>
      <trkpt lat="41.2738220" lon="-4.8880110">
        <ele>721.3</ele>
        <time>2019-08-14T12:41:39Z</time>
      </trkpt>
      <trkpt lat="41.2738690" lon="-4.8880450">
        <ele>721.3</ele>
        <time>2019-08-14T12:41:40Z</time>
      </trkpt>
      <trkpt lat="41.2739160" lon="-4.8880790">
        <ele>721.2</ele>
        <time>2019-08-14T12:41:41Z</time>
      </trkpt>
      <trkpt lat="41.2739630" lon="-4.8881140">
        <ele>721.2</ele>
        <time>2019-08-14T12:41:42Z</time>
      </trkpt>
      <trkpt lat="41.2740100" lon="-4.8881470">
        <ele>721.1</ele>
        <time>2019-08-14T12:41:43Z</time>
      </trkpt>
      <trkpt lat="41.2740560" lon="-4.8881810">
        <ele>721.1</ele>
        <time>2019-08-14T12:41:44Z</time>
      </trkpt>
      <trkpt lat="41.2741020" lon="-4.8882150">
        <ele>721.0</ele>
        <time>2019-08-14T12:41:45Z</time>
      </trkpt>
      <trkpt lat="41.2741480" lon="-4.8882500">
        <ele>720.9</ele>
        <time>2019-08-14T12:41:46Z</time>
      </trkpt>
      <trkpt lat="41.2741950" lon="-4.8882850">
        <ele>720.8</ele>
        <time>2019-08-14T12:41:47Z</time>
      </trkpt>
      <trkpt lat="41.2742420" lon="-4.8883190">
        <ele>720.7</ele>
        <time>2019-08-14T12:41:48Z</time>
      </trkpt>
      <trkpt lat="41.2742890" lon="-4.8883530">
        <ele>720.7</ele>
        <time>2019-08-14T12:41:49Z</time>
      </trkpt>
      <trkpt lat="41.2743340" lon="-4.8883870">
        <ele>720.6</ele>
        <time>2019-08-14T12:41:50Z</time>
      </trkpt>
      <trkpt lat="41.2743790" lon="-4.8884210">
        <ele>720.5</ele>
        <time>2019-08-14T12:41:51Z</time>
      </trkpt>
      <trkpt lat="41.2744260" lon="-4.8884550">
        <ele>720.5</ele>
        <time>2019-08-14T12:41:52Z</time>
      </trkpt>
      <trkpt lat="41.2744710" lon="-4.8884900">
        <ele>720.5</ele>
        <time>2019-08-14T12:41:53Z</time>
      </trkpt>
      <trkpt lat="41.2745160" lon="-4.8885250">
        <ele>720.4</ele>
        <time>2019-08-14T12:41:54Z</time>
      </trkpt>
      <trkpt lat="41.2745610" lon="-4.8885590">
        <ele>720.4</ele>
        <time>2019-08-14T12:41:55Z</time>
      </trkpt>
      <trkpt lat="41.2746050" lon="-4.8885920">
        <ele>720.4</ele>
        <time>2019-08-14T12:41:56Z</time>
      </trkpt>
      <trkpt lat="41.2746490" lon="-4.8886260">
        <ele>720.4</ele>
        <time>2019-08-14T12:41:57Z</time>
      </trkpt>
      <trkpt lat="41.2746940" lon="-4.8886580">
        <ele>720.4</ele>
        <time>2019-08-14T12:41:58Z</time>
      </trkpt>
      <trkpt lat="41.2747390" lon="-4.8886900">
        <ele>720.4</ele>
        <time>2019-08-14T12:41:59Z</time>
      </trkpt>
      <trkpt lat="41.2747850" lon="-4.8887220">
        <ele>720.4</ele>
        <time>2019-08-14T12:42:00Z</time>
      </trkpt>
      <trkpt lat="41.2748300" lon="-4.8887560">
        <ele>720.4</ele>
        <time>2019-08-14T12:42:01Z</time>
      </trkpt>
      <trkpt lat="41.2748750" lon="-4.8887910">
        <ele>720.4</ele>
        <time>2019-08-14T12:42:02Z</time>
      </trkpt>
      <trkpt lat="41.2749220" lon="-4.8888260">
        <ele>720.4</ele>
        <time>2019-08-14T12:42:03Z</time>
      </trkpt>
      <trkpt lat="41.2749700" lon="-4.8888610">
        <ele>720.4</ele>
        <time>2019-08-14T12:42:04Z</time>
      </trkpt>
      <trkpt lat="41.2750170" lon="-4.8888970">
        <ele>720.4</ele>
        <time>2019-08-14T12:42:05Z</time>
      </trkpt>
      <trkpt lat="41.2750670" lon="-4.8889330">
        <ele>720.4</ele>
        <time>2019-08-14T12:42:06Z</time>
      </trkpt>
      <trkpt lat="41.2751160" lon="-4.8889700">
        <ele>720.4</ele>
        <time>2019-08-14T12:42:07Z</time>
      </trkpt>
      <trkpt lat="41.2751650" lon="-4.8890060">
        <ele>720.4</ele>
        <time>2019-08-14T12:42:08Z</time>
      </trkpt>
      <trkpt lat="41.2752130" lon="-4.8890420">
        <ele>720.4</ele>
        <time>2019-08-14T12:42:09Z</time>
      </trkpt>
      <trkpt lat="41.2752620" lon="-4.8890780">
        <ele>720.4</ele>
        <time>2019-08-14T12:42:10Z</time>
      </trkpt>
      <trkpt lat="41.2753100" lon="-4.8891130">
        <ele>720.4</ele>
        <time>2019-08-14T12:42:11Z</time>
      </trkpt>
      <trkpt lat="41.2753580" lon="-4.8891490">
        <ele>720.4</ele>
        <time>2019-08-14T12:42:12Z</time>
      </trkpt>
      <trkpt lat="41.2754060" lon="-4.8891840">
        <ele>720.4</ele>
        <time>2019-08-14T12:42:13Z</time>
      </trkpt>
      <trkpt lat="41.2754540" lon="-4.8892220">
        <ele>720.4</ele>
        <time>2019-08-14T12:42:14Z</time>
      </trkpt>
      <trkpt lat="41.2755030" lon="-4.8892580">
        <ele>720.4</ele>
        <time>2019-08-14T12:42:15Z</time>
      </trkpt>
      <trkpt lat="41.2755540" lon="-4.8892930">
        <ele>720.4</ele>
        <time>2019-08-14T12:42:16Z</time>
      </trkpt>
      <trkpt lat="41.2756040" lon="-4.8893270">
        <ele>720.4</ele>
        <time>2019-08-14T12:42:17Z</time>
      </trkpt>
      <trkpt lat="41.2756540" lon="-4.8893630">
        <ele>720.4</ele>
        <time>2019-08-14T12:42:18Z</time>
      </trkpt>
      <trkpt lat="41.2757030" lon="-4.8893990">
        <ele>720.4</ele>
        <time>2019-08-14T12:42:19Z</time>
      </trkpt>
      <trkpt lat="41.2757530" lon="-4.8894370">
        <ele>720.4</ele>
        <time>2019-08-14T12:42:20Z</time>
      </trkpt>
      <trkpt lat="41.2758040" lon="-4.8894740">
        <ele>720.4</ele>
        <time>2019-08-14T12:42:21Z</time>
      </trkpt>
      <trkpt lat="41.2758550" lon="-4.8895120">
        <ele>720.4</ele>
        <time>2019-08-14T12:42:22Z</time>
      </trkpt>
      <trkpt lat="41.2759050" lon="-4.8895510">
        <ele>720.4</ele>
        <time>2019-08-14T12:42:23Z</time>
      </trkpt>
      <trkpt lat="41.2759560" lon="-4.8895890">
        <ele>720.4</ele>
        <time>2019-08-14T12:42:24Z</time>
      </trkpt>
      <trkpt lat="41.2760060" lon="-4.8896260">
        <ele>720.4</ele>
        <time>2019-08-14T12:42:25Z</time>
      </trkpt>
      <trkpt lat="41.2760560" lon="-4.8896630">
        <ele>720.4</ele>
        <time>2019-08-14T12:42:26Z</time>
      </trkpt>
      <trkpt lat="41.2761060" lon="-4.8897000">
        <ele>720.4</ele>
        <time>2019-08-14T12:42:27Z</time>
      </trkpt>
      <trkpt lat="41.2761550" lon="-4.8897350">
        <ele>720.4</ele>
        <time>2019-08-14T12:42:28Z</time>
      </trkpt>
      <trkpt lat="41.2762050" lon="-4.8897710">
        <ele>720.4</ele>
        <time>2019-08-14T12:42:29Z</time>
      </trkpt>
      <trkpt lat="41.2762550" lon="-4.8898080">
        <ele>720.4</ele>
        <time>2019-08-14T12:42:30Z</time>
      </trkpt>
      <trkpt lat="41.2763030" lon="-4.8898450">
        <ele>720.4</ele>
        <time>2019-08-14T12:42:31Z</time>
      </trkpt>
      <trkpt lat="41.2763520" lon="-4.8898820">
        <ele>720.4</ele>
        <time>2019-08-14T12:42:32Z</time>
      </trkpt>
      <trkpt lat="41.2764000" lon="-4.8899170">
        <ele>720.4</ele>
        <time>2019-08-14T12:42:33Z</time>
      </trkpt>
      <trkpt lat="41.2764490" lon="-4.8899510">
        <ele>720.4</ele>
        <time>2019-08-14T12:42:34Z</time>
      </trkpt>
      <trkpt lat="41.2764990" lon="-4.8899850">
        <ele>720.4</ele>
        <time>2019-08-14T12:42:35Z</time>
      </trkpt>
      <trkpt lat="41.2765470" lon="-4.8900170">
        <ele>720.4</ele>
        <time>2019-08-14T12:42:36Z</time>
      </trkpt>
      <trkpt lat="41.2765930" lon="-4.8900510">
        <ele>720.4</ele>
        <time>2019-08-14T12:42:37Z</time>
      </trkpt>
      <trkpt lat="41.2766390" lon="-4.8900850">
        <ele>720.4</ele>
        <time>2019-08-14T12:42:38Z</time>
      </trkpt>
      <trkpt lat="41.2766830" lon="-4.8901190">
        <ele>720.4</ele>
        <time>2019-08-14T12:42:39Z</time>
      </trkpt>
      <trkpt lat="41.2767250" lon="-4.8901510">
        <ele>720.4</ele>
        <time>2019-08-14T12:42:40Z</time>
      </trkpt>
      <trkpt lat="41.2767680" lon="-4.8901830">
        <ele>720.4</ele>
        <time>2019-08-14T12:42:41Z</time>
      </trkpt>
      <trkpt lat="41.2768120" lon="-4.8902150">
        <ele>720.4</ele>
        <time>2019-08-14T12:42:42Z</time>
      </trkpt>
      <trkpt lat="41.2768550" lon="-4.8902480">
        <ele>720.4</ele>
        <time>2019-08-14T12:42:43Z</time>
      </trkpt>
      <trkpt lat="41.2768990" lon="-4.8902810">
        <ele>720.4</ele>
        <time>2019-08-14T12:42:44Z</time>
      </trkpt>
      <trkpt lat="41.2769420" lon="-4.8903160">
        <ele>720.4</ele>
        <time>2019-08-14T12:42:45Z</time>
      </trkpt>
      <trkpt lat="41.2769840" lon="-4.8903480">
        <ele>720.4</ele>
        <time>2019-08-14T12:42:46Z</time>
      </trkpt>
      <trkpt lat="41.2770260" lon="-4.8903810">
        <ele>720.4</ele>
        <time>2019-08-14T12:42:47Z</time>
      </trkpt>
      <trkpt lat="41.2770690" lon="-4.8904120">
        <ele>720.4</ele>
        <time>2019-08-14T12:42:48Z</time>
      </trkpt>
      <trkpt lat="41.2771150" lon="-4.8904450">
        <ele>720.4</ele>
        <time>2019-08-14T12:42:49Z</time>
      </trkpt>
      <trkpt lat="41.2771610" lon="-4.8904780">
        <ele>720.4</ele>
        <time>2019-08-14T12:42:50Z</time>
      </trkpt>
      <trkpt lat="41.2772090" lon="-4.8905100">
        <ele>720.4</ele>
        <time>2019-08-14T12:42:51Z</time>
      </trkpt>
      <trkpt lat="41.2772580" lon="-4.8905440">
        <ele>720.4</ele>
        <time>2019-08-14T12:42:52Z</time>
      </trkpt>
      <trkpt lat="41.2773050" lon="-4.8905790">
        <ele>720.4</ele>
        <time>2019-08-14T12:42:53Z</time>
      </trkpt>
      <trkpt lat="41.2773500" lon="-4.8906110">
        <ele>720.4</ele>
        <time>2019-08-14T12:42:54Z</time>
      </trkpt>
      <trkpt lat="41.2773950" lon="-4.8906430">
        <ele>720.4</ele>
        <time>2019-08-14T12:42:55Z</time>
      </trkpt>
      <trkpt lat="41.2774410" lon="-4.8906750">
        <ele>720.4</ele>
        <time>2019-08-14T12:42:56Z</time>
      </trkpt>
      <trkpt lat="41.2774860" lon="-4.8907090">
        <ele>720.4</ele>
        <time>2019-08-14T12:42:57Z</time>
      </trkpt>
      <trkpt lat="41.2775300" lon="-4.8907440">
        <ele>720.4</ele>
        <time>2019-08-14T12:42:58Z</time>
      </trkpt>
      <trkpt lat="41.2775720" lon="-4.8907810">
        <ele>720.4</ele>
        <time>2019-08-14T12:42:59Z</time>
      </trkpt>
      <trkpt lat="41.2776160" lon="-4.8908190">
        <ele>720.3</ele>
        <time>2019-08-14T12:43:00Z</time>
      </trkpt>
      <trkpt lat="41.2776630" lon="-4.8908530">
        <ele>720.3</ele>
        <time>2019-08-14T12:43:01Z</time>
      </trkpt>
      <trkpt lat="41.2777070" lon="-4.8908860">
        <ele>720.3</ele>
        <time>2019-08-14T12:43:02Z</time>
      </trkpt>
      <trkpt lat="41.2777520" lon="-4.8909160">
        <ele>720.3</ele>
        <time>2019-08-14T12:43:03Z</time>
      </trkpt>
      <trkpt lat="41.2777980" lon="-4.8909470">
        <ele>720.3</ele>
        <time>2019-08-14T12:43:04Z</time>
      </trkpt>
      <trkpt lat="41.2778430" lon="-4.8909820">
        <ele>720.2</ele>
        <time>2019-08-14T12:43:05Z</time>
      </trkpt>
      <trkpt lat="41.2778890" lon="-4.8910170">
        <ele>720.1</ele>
        <time>2019-08-14T12:43:06Z</time>
      </trkpt>
      <trkpt lat="41.2779360" lon="-4.8910530">
        <ele>720.1</ele>
        <time>2019-08-14T12:43:07Z</time>
      </trkpt>
      <trkpt lat="41.2779820" lon="-4.8910890">
        <ele>720.0</ele>
        <time>2019-08-14T12:43:08Z</time>
      </trkpt>
      <trkpt lat="41.2780300" lon="-4.8911240">
        <ele>719.9</ele>
        <time>2019-08-14T12:43:09Z</time>
      </trkpt>
      <trkpt lat="41.2780780" lon="-4.8911610">
        <ele>719.8</ele>
        <time>2019-08-14T12:43:10Z</time>
      </trkpt>
      <trkpt lat="41.2781250" lon="-4.8912010">
        <ele>719.7</ele>
        <time>2019-08-14T12:43:11Z</time>
      </trkpt>
      <trkpt lat="41.2781730" lon="-4.8912360">
        <ele>719.6</ele>
        <time>2019-08-14T12:43:12Z</time>
      </trkpt>
      <trkpt lat="41.2782210" lon="-4.8912680">
        <ele>719.5</ele>
        <time>2019-08-14T12:43:13Z</time>
      </trkpt>
      <trkpt lat="41.2782670" lon="-4.8912980">
        <ele>719.5</ele>
        <time>2019-08-14T12:43:14Z</time>
      </trkpt>
      <trkpt lat="41.2783130" lon="-4.8913310">
        <ele>719.4</ele>
        <time>2019-08-14T12:43:15Z</time>
      </trkpt>
      <trkpt lat="41.2783590" lon="-4.8913650">
        <ele>719.4</ele>
        <time>2019-08-14T12:43:16Z</time>
      </trkpt>
      <trkpt lat="41.2784040" lon="-4.8914000">
        <ele>719.4</ele>
        <time>2019-08-14T12:43:17Z</time>
      </trkpt>
      <trkpt lat="41.2784500" lon="-4.8914360">
        <ele>719.4</ele>
        <time>2019-08-14T12:43:18Z</time>
      </trkpt>
      <trkpt lat="41.2784970" lon="-4.8914700">
        <ele>719.4</ele>
        <time>2019-08-14T12:43:19Z</time>
      </trkpt>
      <trkpt lat="41.2785440" lon="-4.8915040">
        <ele>719.4</ele>
        <time>2019-08-14T12:43:20Z</time>
      </trkpt>
      <trkpt lat="41.2785910" lon="-4.8915370">
        <ele>719.4</ele>
        <time>2019-08-14T12:43:21Z</time>
      </trkpt>
      <trkpt lat="41.2786380" lon="-4.8915710">
        <ele>719.4</ele>
        <time>2019-08-14T12:43:22Z</time>
      </trkpt>
      <trkpt lat="41.2786830" lon="-4.8916050">
        <ele>719.4</ele>
        <time>2019-08-14T12:43:23Z</time>
      </trkpt>
      <trkpt lat="41.2787290" lon="-4.8916410">
        <ele>719.4</ele>
        <time>2019-08-14T12:43:24Z</time>
      </trkpt>
      <trkpt lat="41.2787750" lon="-4.8916750">
        <ele>719.4</ele>
        <time>2019-08-14T12:43:25Z</time>
      </trkpt>
      <trkpt lat="41.2788220" lon="-4.8917090">
        <ele>719.4</ele>
        <time>2019-08-14T12:43:26Z</time>
      </trkpt>
      <trkpt lat="41.2788690" lon="-4.8917430">
        <ele>719.4</ele>
        <time>2019-08-14T12:43:27Z</time>
      </trkpt>
      <trkpt lat="41.2789170" lon="-4.8917780">
        <ele>719.4</ele>
        <time>2019-08-14T12:43:28Z</time>
      </trkpt>
      <trkpt lat="41.2789650" lon="-4.8918130">
        <ele>719.4</ele>
        <time>2019-08-14T12:43:29Z</time>
      </trkpt>
      <trkpt lat="41.2790120" lon="-4.8918480">
        <ele>719.4</ele>
        <time>2019-08-14T12:43:30Z</time>
      </trkpt>
      <trkpt lat="41.2790600" lon="-4.8918820">
        <ele>719.4</ele>
        <time>2019-08-14T12:43:31Z</time>
      </trkpt>
      <trkpt lat="41.2791070" lon="-4.8919150">
        <ele>719.4</ele>
        <time>2019-08-14T12:43:32Z</time>
      </trkpt>
      <trkpt lat="41.2791550" lon="-4.8919500">
        <ele>719.4</ele>
        <time>2019-08-14T12:43:33Z</time>
      </trkpt>
      <trkpt lat="41.2792030" lon="-4.8919830">
        <ele>719.4</ele>
        <time>2019-08-14T12:43:34Z</time>
      </trkpt>
      <trkpt lat="41.2792510" lon="-4.8920170">
        <ele>719.4</ele>
        <time>2019-08-14T12:43:35Z</time>
      </trkpt>
      <trkpt lat="41.2792990" lon="-4.8920520">
        <ele>719.4</ele>
        <time>2019-08-14T12:43:36Z</time>
      </trkpt>
      <trkpt lat="41.2793450" lon="-4.8920870">
        <ele>719.4</ele>
        <time>2019-08-14T12:43:37Z</time>
      </trkpt>
      <trkpt lat="41.2793940" lon="-4.8921230">
        <ele>719.4</ele>
        <time>2019-08-14T12:43:38Z</time>
      </trkpt>
      <trkpt lat="41.2794430" lon="-4.8921590">
        <ele>719.4</ele>
        <time>2019-08-14T12:43:39Z</time>
      </trkpt>
      <trkpt lat="41.2794920" lon="-4.8921960">
        <ele>719.4</ele>
        <time>2019-08-14T12:43:40Z</time>
      </trkpt>
      <trkpt lat="41.2795410" lon="-4.8922350">
        <ele>719.4</ele>
        <time>2019-08-14T12:43:41Z</time>
      </trkpt>
      <trkpt lat="41.2795910" lon="-4.8922730">
        <ele>719.4</ele>
        <time>2019-08-14T12:43:42Z</time>
      </trkpt>
      <trkpt lat="41.2796420" lon="-4.8923080">
        <ele>719.4</ele>
        <time>2019-08-14T12:43:43Z</time>
      </trkpt>
      <trkpt lat="41.2796920" lon="-4.8923430">
        <ele>719.4</ele>
        <time>2019-08-14T12:43:44Z</time>
      </trkpt>
      <trkpt lat="41.2797430" lon="-4.8923760">
        <ele>719.4</ele>
        <time>2019-08-14T12:43:45Z</time>
      </trkpt>
      <trkpt lat="41.2797920" lon="-4.8924090">
        <ele>719.4</ele>
        <time>2019-08-14T12:43:46Z</time>
      </trkpt>
      <trkpt lat="41.2798400" lon="-4.8924410">
        <ele>719.4</ele>
        <time>2019-08-14T12:43:47Z</time>
      </trkpt>
      <trkpt lat="41.2798860" lon="-4.8924700">
        <ele>719.4</ele>
        <time>2019-08-14T12:43:48Z</time>
      </trkpt>
      <trkpt lat="41.2799270" lon="-4.8924960">
        <ele>719.4</ele>
        <time>2019-08-14T12:43:49Z</time>
      </trkpt>
      <trkpt lat="41.2799650" lon="-4.8925190">
        <ele>719.4</ele>
        <time>2019-08-14T12:43:50Z</time>
      </trkpt>
      <trkpt lat="41.2800000" lon="-4.8925400">
        <ele>719.4</ele>
        <time>2019-08-14T12:43:51Z</time>
      </trkpt>
      <trkpt lat="41.2800370" lon="-4.8925610">
        <ele>719.4</ele>
        <time>2019-08-14T12:43:52Z</time>
      </trkpt>
      <trkpt lat="41.2800730" lon="-4.8925810">
        <ele>719.4</ele>
        <time>2019-08-14T12:43:53Z</time>
      </trkpt>
      <trkpt lat="41.2801090" lon="-4.8926020">
        <ele>719.4</ele>
        <time>2019-08-14T12:43:54Z</time>
      </trkpt>
      <trkpt lat="41.2801460" lon="-4.8926240">
        <ele>719.4</ele>
        <time>2019-08-14T12:43:55Z</time>
      </trkpt>
      <trkpt lat="41.2801840" lon="-4.8926470">
        <ele>719.4</ele>
        <time>2019-08-14T12:43:56Z</time>
      </trkpt>
      <trkpt lat="41.2802210" lon="-4.8926710">
        <ele>719.5</ele>
        <time>2019-08-14T12:43:57Z</time>
      </trkpt>
      <trkpt lat="41.2802570" lon="-4.8926960">
        <ele>719.5</ele>
        <time>2019-08-14T12:43:58Z</time>
      </trkpt>
      <trkpt lat="41.2802900" lon="-4.8927210">
        <ele>719.5</ele>
        <time>2019-08-14T12:43:59Z</time>
      </trkpt>
      <trkpt lat="41.2803220" lon="-4.8927460">
        <ele>719.6</ele>
        <time>2019-08-14T12:44:00Z</time>
      </trkpt>
      <trkpt lat="41.2803530" lon="-4.8927680">
        <ele>719.7</ele>
        <time>2019-08-14T12:44:01Z</time>
      </trkpt>
      <trkpt lat="41.2803810" lon="-4.8927860">
        <ele>719.8</ele>
        <time>2019-08-14T12:44:02Z</time>
      </trkpt>
      <trkpt lat="41.2804070" lon="-4.8928020">
        <ele>719.8</ele>
        <time>2019-08-14T12:44:03Z</time>
      </trkpt>
      <trkpt lat="41.2804310" lon="-4.8928180">
        <ele>719.9</ele>
        <time>2019-08-14T12:44:04Z</time>
      </trkpt>
      <trkpt lat="41.2804560" lon="-4.8928320">
        <ele>720.0</ele>
        <time>2019-08-14T12:44:05Z</time>
      </trkpt>
      <trkpt lat="41.2804810" lon="-4.8928480">
        <ele>720.1</ele>
        <time>2019-08-14T12:44:06Z</time>
      </trkpt>
      <trkpt lat="41.2805060" lon="-4.8928660">
        <ele>720.2</ele>
        <time>2019-08-14T12:44:07Z</time>
      </trkpt>
      <trkpt lat="41.2805310" lon="-4.8928850">
        <ele>720.4</ele>
        <time>2019-08-14T12:44:08Z</time>
      </trkpt>
      <trkpt lat="41.2805560" lon="-4.8929050">
        <ele>720.5</ele>
        <time>2019-08-14T12:44:09Z</time>
      </trkpt>
      <trkpt lat="41.2805820" lon="-4.8929260">
        <ele>720.6</ele>
        <time>2019-08-14T12:44:10Z</time>
      </trkpt>
      <trkpt lat="41.2806100" lon="-4.8929460">
        <ele>720.7</ele>
        <time>2019-08-14T12:44:11Z</time>
      </trkpt>
      <trkpt lat="41.2806390" lon="-4.8929670">
        <ele>720.9</ele>
        <time>2019-08-14T12:44:12Z</time>
      </trkpt>
      <trkpt lat="41.2806680" lon="-4.8929900">
        <ele>721.0</ele>
        <time>2019-08-14T12:44:13Z</time>
      </trkpt>
      <trkpt lat="41.2806970" lon="-4.8930140">
        <ele>721.1</ele>
        <time>2019-08-14T12:44:14Z</time>
      </trkpt>
      <trkpt lat="41.2807270" lon="-4.8930390">
        <ele>721.2</ele>
        <time>2019-08-14T12:44:15Z</time>
      </trkpt>
      <trkpt lat="41.2807570" lon="-4.8930630">
        <ele>721.4</ele>
        <time>2019-08-14T12:44:16Z</time>
      </trkpt>
      <trkpt lat="41.2807880" lon="-4.8930870">
        <ele>721.5</ele>
        <time>2019-08-14T12:44:17Z</time>
      </trkpt>
      <trkpt lat="41.2808180" lon="-4.8931130">
        <ele>721.6</ele>
        <time>2019-08-14T12:44:18Z</time>
      </trkpt>
      <trkpt lat="41.2808500" lon="-4.8931430">
        <ele>721.7</ele>
        <time>2019-08-14T12:44:19Z</time>
      </trkpt>
      <trkpt lat="41.2808840" lon="-4.8931740">
        <ele>721.8</ele>
        <time>2019-08-14T12:44:20Z</time>
      </trkpt>
      <trkpt lat="41.2809220" lon="-4.8932050">
        <ele>721.8</ele>
        <time>2019-08-14T12:44:21Z</time>
      </trkpt>
      <trkpt lat="41.2809620" lon="-4.8932360">
        <ele>721.9</ele>
        <time>2019-08-14T12:44:22Z</time>
      </trkpt>
      <trkpt lat="41.2810050" lon="-4.8932690">
        <ele>721.9</ele>
        <time>2019-08-14T12:44:23Z</time>
      </trkpt>
      <trkpt lat="41.2810500" lon="-4.8933070">
        <ele>721.9</ele>
        <time>2019-08-14T12:44:24Z</time>
      </trkpt>
      <trkpt lat="41.2810980" lon="-4.8933470">
        <ele>721.8</ele>
        <time>2019-08-14T12:44:25Z</time>
      </trkpt>
      <trkpt lat="41.2811490" lon="-4.8933860">
        <ele>721.6</ele>
        <time>2019-08-14T12:44:26Z</time>
      </trkpt>
      <trkpt lat="41.2812020" lon="-4.8934260">
        <ele>721.4</ele>
        <time>2019-08-14T12:44:27Z</time>
      </trkpt>
      <trkpt lat="41.2812550" lon="-4.8934680">
        <ele>721.2</ele>
        <time>2019-08-14T12:44:28Z</time>
      </trkpt>
      <trkpt lat="41.2813080" lon="-4.8935090">
        <ele>721.0</ele>
        <time>2019-08-14T12:44:29Z</time>
      </trkpt>
      <trkpt lat="41.2813610" lon="-4.8935480">
        <ele>720.8</ele>
        <time>2019-08-14T12:44:30Z</time>
      </trkpt>
      <trkpt lat="41.2814130" lon="-4.8935870">
        <ele>720.7</ele>
        <time>2019-08-14T12:44:31Z</time>
      </trkpt>
      <trkpt lat="41.2814630" lon="-4.8936260">
        <ele>720.6</ele>
        <time>2019-08-14T12:44:32Z</time>
      </trkpt>
      <trkpt lat="41.2815120" lon="-4.8936630">
        <ele>720.5</ele>
        <time>2019-08-14T12:44:33Z</time>
      </trkpt>
      <trkpt lat="41.2815590" lon="-4.8936990">
        <ele>720.4</ele>
        <time>2019-08-14T12:44:34Z</time>
      </trkpt>
      <trkpt lat="41.2816020" lon="-4.8937330">
        <ele>720.4</ele>
        <time>2019-08-14T12:44:35Z</time>
      </trkpt>
      <trkpt lat="41.2816460" lon="-4.8937650">
        <ele>720.4</ele>
        <time>2019-08-14T12:44:36Z</time>
      </trkpt>
      <trkpt lat="41.2816890" lon="-4.8937950">
        <ele>720.4</ele>
        <time>2019-08-14T12:44:37Z</time>
      </trkpt>
      <trkpt lat="41.2817320" lon="-4.8938210">
        <ele>720.3</ele>
        <time>2019-08-14T12:44:38Z</time>
      </trkpt>
      <trkpt lat="41.2817780" lon="-4.8938490">
        <ele>720.3</ele>
        <time>2019-08-14T12:44:39Z</time>
      </trkpt>
      <trkpt lat="41.2818230" lon="-4.8938830">
        <ele>720.3</ele>
        <time>2019-08-14T12:44:40Z</time>
      </trkpt>
      <trkpt lat="41.2818670" lon="-4.8939170">
        <ele>720.3</ele>
        <time>2019-08-14T12:44:41Z</time>
      </trkpt>
      <trkpt lat="41.2819130" lon="-4.8939500">
        <ele>720.3</ele>
        <time>2019-08-14T12:44:42Z</time>
      </trkpt>
      <trkpt lat="41.2819590" lon="-4.8939850">
        <ele>720.3</ele>
        <time>2019-08-14T12:44:43Z</time>
      </trkpt>
      <trkpt lat="41.2820060" lon="-4.8940180">
        <ele>720.3</ele>
        <time>2019-08-14T12:44:44Z</time>
      </trkpt>
      <trkpt lat="41.2820530" lon="-4.8940530">
        <ele>720.3</ele>
        <time>2019-08-14T12:44:45Z</time>
      </trkpt>
      <trkpt lat="41.2821010" lon="-4.8940880">
        <ele>720.3</ele>
        <time>2019-08-14T12:44:46Z</time>
      </trkpt>
      <trkpt lat="41.2821480" lon="-4.8941230">
        <ele>720.3</ele>
        <time>2019-08-14T12:44:47Z</time>
      </trkpt>
      <trkpt lat="41.2821970" lon="-4.8941580">
        <ele>720.3</ele>
        <time>2019-08-14T12:44:48Z</time>
      </trkpt>
      <trkpt lat="41.2822440" lon="-4.8941940">
        <ele>720.3</ele>
        <time>2019-08-14T12:44:49Z</time>
      </trkpt>
      <trkpt lat="41.2822920" lon="-4.8942280">
        <ele>720.3</ele>
        <time>2019-08-14T12:44:50Z</time>
      </trkpt>
      <trkpt lat="41.2823390" lon="-4.8942610">
        <ele>720.3</ele>
        <time>2019-08-14T12:44:51Z</time>
      </trkpt>
      <trkpt lat="41.2823870" lon="-4.8942940">
        <ele>720.3</ele>
        <time>2019-08-14T12:44:52Z</time>
      </trkpt>
      <trkpt lat="41.2824320" lon="-4.8943280">
        <ele>720.3</ele>
        <time>2019-08-14T12:44:53Z</time>
      </trkpt>
      <trkpt lat="41.2824780" lon="-4.8943620">
        <ele>720.3</ele>
        <time>2019-08-14T12:44:54Z</time>
      </trkpt>
      <trkpt lat="41.2825250" lon="-4.8943970">
        <ele>720.3</ele>
        <time>2019-08-14T12:44:55Z</time>
      </trkpt>
      <trkpt lat="41.2825720" lon="-4.8944330">
        <ele>720.3</ele>
        <time>2019-08-14T12:44:56Z</time>
      </trkpt>
      <trkpt lat="41.2826200" lon="-4.8944680">
        <ele>720.3</ele>
        <time>2019-08-14T12:44:57Z</time>
      </trkpt>
      <trkpt lat="41.2826660" lon="-4.8945020">
        <ele>720.3</ele>
        <time>2019-08-14T12:44:58Z</time>
      </trkpt>
      <trkpt lat="41.2827130" lon="-4.8945350">
        <ele>720.3</ele>
        <time>2019-08-14T12:44:59Z</time>
      </trkpt>
      <trkpt lat="41.2827600" lon="-4.8945680">
        <ele>720.3</ele>
        <time>2019-08-14T12:45:00Z</time>
      </trkpt>
      <trkpt lat="41.2828040" lon="-4.8946010">
        <ele>720.3</ele>
        <time>2019-08-14T12:45:01Z</time>
      </trkpt>
      <trkpt lat="41.2828480" lon="-4.8946330">
        <ele>720.3</ele>
        <time>2019-08-14T12:45:02Z</time>
      </trkpt>
      <trkpt lat="41.2828930" lon="-4.8946650">
        <ele>720.3</ele>
        <time>2019-08-14T12:45:03Z</time>
      </trkpt>
      <trkpt lat="41.2829370" lon="-4.8946980">
        <ele>720.3</ele>
        <time>2019-08-14T12:45:04Z</time>
      </trkpt>
      <trkpt lat="41.2829820" lon="-4.8947310">
        <ele>720.3</ele>
        <time>2019-08-14T12:45:05Z</time>
      </trkpt>
      <trkpt lat="41.2830290" lon="-4.8947670">
        <ele>720.3</ele>
        <time>2019-08-14T12:45:06Z</time>
      </trkpt>
      <trkpt lat="41.2830740" lon="-4.8948010">
        <ele>720.3</ele>
        <time>2019-08-14T12:45:07Z</time>
      </trkpt>
      <trkpt lat="41.2831190" lon="-4.8948350">
        <ele>720.3</ele>
        <time>2019-08-14T12:45:08Z</time>
      </trkpt>
      <trkpt lat="41.2831640" lon="-4.8948670">
        <ele>720.3</ele>
        <time>2019-08-14T12:45:09Z</time>
      </trkpt>
      <trkpt lat="41.2832100" lon="-4.8949000">
        <ele>720.3</ele>
        <time>2019-08-14T12:45:10Z</time>
      </trkpt>
      <trkpt lat="41.2832550" lon="-4.8949340">
        <ele>720.3</ele>
        <time>2019-08-14T12:45:11Z</time>
      </trkpt>
      <trkpt lat="41.2833000" lon="-4.8949700">
        <ele>720.3</ele>
        <time>2019-08-14T12:45:12Z</time>
      </trkpt>
      <trkpt lat="41.2833480" lon="-4.8950040">
        <ele>720.3</ele>
        <time>2019-08-14T12:45:13Z</time>
      </trkpt>
      <trkpt lat="41.2833940" lon="-4.8950390">
        <ele>720.3</ele>
        <time>2019-08-14T12:45:14Z</time>
      </trkpt>
      <trkpt lat="41.2834420" lon="-4.8950750">
        <ele>720.3</ele>
        <time>2019-08-14T12:45:15Z</time>
      </trkpt>
      <trkpt lat="41.2834900" lon="-4.8951120">
        <ele>720.3</ele>
        <time>2019-08-14T12:45:16Z</time>
      </trkpt>
      <trkpt lat="41.2835360" lon="-4.8951460">
        <ele>720.3</ele>
        <time>2019-08-14T12:45:17Z</time>
      </trkpt>
      <trkpt lat="41.2835810" lon="-4.8951800">
        <ele>720.3</ele>
        <time>2019-08-14T12:45:18Z</time>
      </trkpt>
      <trkpt lat="41.2836260" lon="-4.8952140">
        <ele>720.3</ele>
        <time>2019-08-14T12:45:19Z</time>
      </trkpt>
      <trkpt lat="41.2836700" lon="-4.8952490">
        <ele>720.3</ele>
        <time>2019-08-14T12:45:20Z</time>
      </trkpt>
      <trkpt lat="41.2837150" lon="-4.8952840">
        <ele>720.3</ele>
        <time>2019-08-14T12:45:21Z</time>
      </trkpt>
      <trkpt lat="41.2837590" lon="-4.8953180">
        <ele>720.2</ele>
        <time>2019-08-14T12:45:22Z</time>
      </trkpt>
      <trkpt lat="41.2838050" lon="-4.8953520">
        <ele>720.2</ele>
        <time>2019-08-14T12:45:23Z</time>
      </trkpt>
      <trkpt lat="41.2838500" lon="-4.8953850">
        <ele>720.2</ele>
        <time>2019-08-14T12:45:24Z</time>
      </trkpt>
      <trkpt lat="41.2838960" lon="-4.8954170">
        <ele>720.1</ele>
        <time>2019-08-14T12:45:25Z</time>
      </trkpt>
      <trkpt lat="41.2839420" lon="-4.8954490">
        <ele>720.0</ele>
        <time>2019-08-14T12:45:26Z</time>
      </trkpt>
      <trkpt lat="41.2839880" lon="-4.8954810">
        <ele>719.9</ele>
        <time>2019-08-14T12:45:27Z</time>
      </trkpt>
      <trkpt lat="41.2840330" lon="-4.8955160">
        <ele>719.9</ele>
        <time>2019-08-14T12:45:28Z</time>
      </trkpt>
      <trkpt lat="41.2840770" lon="-4.8955500">
        <ele>719.8</ele>
        <time>2019-08-14T12:45:29Z</time>
      </trkpt>
      <trkpt lat="41.2841210" lon="-4.8955830">
        <ele>719.7</ele>
        <time>2019-08-14T12:45:30Z</time>
      </trkpt>
      <trkpt lat="41.2841660" lon="-4.8956160">
        <ele>719.6</ele>
        <time>2019-08-14T12:45:31Z</time>
      </trkpt>
      <trkpt lat="41.2842100" lon="-4.8956480">
        <ele>719.5</ele>
        <time>2019-08-14T12:45:32Z</time>
      </trkpt>
      <trkpt lat="41.2842540" lon="-4.8956780">
        <ele>719.4</ele>
        <time>2019-08-14T12:45:33Z</time>
      </trkpt>
      <trkpt lat="41.2842970" lon="-4.8957090">
        <ele>719.4</ele>
        <time>2019-08-14T12:45:34Z</time>
      </trkpt>
      <trkpt lat="41.2843400" lon="-4.8957400">
        <ele>719.4</ele>
        <time>2019-08-14T12:45:35Z</time>
      </trkpt>
      <trkpt lat="41.2843830" lon="-4.8957720">
        <ele>719.4</ele>
        <time>2019-08-14T12:45:36Z</time>
      </trkpt>
      <trkpt lat="41.2844250" lon="-4.8958050">
        <ele>719.3</ele>
        <time>2019-08-14T12:45:37Z</time>
      </trkpt>
      <trkpt lat="41.2844660" lon="-4.8958380">
        <ele>719.3</ele>
        <time>2019-08-14T12:45:38Z</time>
      </trkpt>
      <trkpt lat="41.2845070" lon="-4.8958710">
        <ele>719.3</ele>
        <time>2019-08-14T12:45:39Z</time>
      </trkpt>
      <trkpt lat="41.2845490" lon="-4.8959020">
        <ele>719.3</ele>
        <time>2019-08-14T12:45:40Z</time>
      </trkpt>
      <trkpt lat="41.2845920" lon="-4.8959310">
        <ele>719.3</ele>
        <time>2019-08-14T12:45:41Z</time>
      </trkpt>
      <trkpt lat="41.2846360" lon="-4.8959620">
        <ele>719.3</ele>
        <time>2019-08-14T12:45:42Z</time>
      </trkpt>
      <trkpt lat="41.2846800" lon="-4.8959900">
        <ele>719.3</ele>
        <time>2019-08-14T12:45:43Z</time>
      </trkpt>
      <trkpt lat="41.2847220" lon="-4.8960170">
        <ele>719.3</ele>
        <time>2019-08-14T12:45:44Z</time>
      </trkpt>
      <trkpt lat="41.2847630" lon="-4.8960420">
        <ele>719.3</ele>
        <time>2019-08-14T12:45:45Z</time>
      </trkpt>
      <trkpt lat="41.2848020" lon="-4.8960670">
        <ele>719.3</ele>
        <time>2019-08-14T12:45:46Z</time>
      </trkpt>
      <trkpt lat="41.2848440" lon="-4.8960930">
        <ele>719.3</ele>
        <time>2019-08-14T12:45:47Z</time>
      </trkpt>
      <trkpt lat="41.2848860" lon="-4.8961190">
        <ele>719.3</ele>
        <time>2019-08-14T12:45:48Z</time>
      </trkpt>
      <trkpt lat="41.2849260" lon="-4.8961460">
        <ele>719.3</ele>
        <time>2019-08-14T12:45:49Z</time>
      </trkpt>
      <trkpt lat="41.2849640" lon="-4.8961720">
        <ele>719.3</ele>
        <time>2019-08-14T12:45:50Z</time>
      </trkpt>
      <trkpt lat="41.2849990" lon="-4.8961980">
        <ele>719.3</ele>
        <time>2019-08-14T12:45:51Z</time>
      </trkpt>
      <trkpt lat="41.2850370" lon="-4.8962260">
        <ele>719.3</ele>
        <time>2019-08-14T12:45:52Z</time>
      </trkpt>
      <trkpt lat="41.2850750" lon="-4.8962540">
        <ele>719.3</ele>
        <time>2019-08-14T12:45:53Z</time>
      </trkpt>
      <trkpt lat="41.2851140" lon="-4.8962810">
        <ele>719.3</ele>
        <time>2019-08-14T12:45:54Z</time>
      </trkpt>
      <trkpt lat="41.2851540" lon="-4.8963080">
        <ele>719.3</ele>
        <time>2019-08-14T12:45:55Z</time>
      </trkpt>
      <trkpt lat="41.2851940" lon="-4.8963360">
        <ele>719.3</ele>
        <time>2019-08-14T12:45:56Z</time>
      </trkpt>
      <trkpt lat="41.2852350" lon="-4.8963640">
        <ele>719.3</ele>
        <time>2019-08-14T12:45:57Z</time>
      </trkpt>
      <trkpt lat="41.2852750" lon="-4.8963920">
        <ele>719.3</ele>
        <time>2019-08-14T12:45:58Z</time>
      </trkpt>
      <trkpt lat="41.2853160" lon="-4.8964200">
        <ele>719.4</ele>
        <time>2019-08-14T12:45:59Z</time>
      </trkpt>
      <trkpt lat="41.2853570" lon="-4.8964480">
        <ele>719.4</ele>
        <time>2019-08-14T12:46:00Z</time>
      </trkpt>
      <trkpt lat="41.2853990" lon="-4.8964750">
        <ele>719.4</ele>
        <time>2019-08-14T12:46:01Z</time>
      </trkpt>
      <trkpt lat="41.2854420" lon="-4.8965040">
        <ele>719.5</ele>
        <time>2019-08-14T12:46:02Z</time>
      </trkpt>
      <trkpt lat="41.2854840" lon="-4.8965340">
        <ele>719.6</ele>
        <time>2019-08-14T12:46:03Z</time>
      </trkpt>
      <trkpt lat="41.2855270" lon="-4.8965630">
        <ele>719.7</ele>
        <time>2019-08-14T12:46:04Z</time>
      </trkpt>
      <trkpt lat="41.2855710" lon="-4.8965940">
        <ele>719.8</ele>
        <time>2019-08-14T12:46:05Z</time>
      </trkpt>
      <trkpt lat="41.2856140" lon="-4.8966230">
        <ele>719.8</ele>
        <time>2019-08-14T12:46:06Z</time>
      </trkpt>
      <trkpt lat="41.2856560" lon="-4.8966520">
        <ele>719.9</ele>
        <time>2019-08-14T12:46:07Z</time>
      </trkpt>
      <trkpt lat="41.2856990" lon="-4.8966820">
        <ele>720.0</ele>
        <time>2019-08-14T12:46:08Z</time>
      </trkpt>
      <trkpt lat="41.2857420" lon="-4.8967140">
        <ele>720.1</ele>
        <time>2019-08-14T12:46:09Z</time>
      </trkpt>
      <trkpt lat="41.2857840" lon="-4.8967430">
        <ele>720.1</ele>
        <time>2019-08-14T12:46:10Z</time>
      </trkpt>
      <trkpt lat="41.2858260" lon="-4.8967720">
        <ele>720.2</ele>
        <time>2019-08-14T12:46:11Z</time>
      </trkpt>
      <trkpt lat="41.2858680" lon="-4.8968020">
        <ele>720.2</ele>
        <time>2019-08-14T12:46:12Z</time>
      </trkpt>
      <trkpt lat="41.2859100" lon="-4.8968300">
        <ele>720.2</ele>
        <time>2019-08-14T12:46:13Z</time>
      </trkpt>
      <trkpt lat="41.2859530" lon="-4.8968600">
        <ele>720.3</ele>
        <time>2019-08-14T12:46:14Z</time>
      </trkpt>
      <trkpt lat="41.2859950" lon="-4.8968900">
        <ele>720.3</ele>
        <time>2019-08-14T12:46:15Z</time>
      </trkpt>
      <trkpt lat="41.2860360" lon="-4.8969200">
        <ele>720.3</ele>
        <time>2019-08-14T12:46:16Z</time>
      </trkpt>
      <trkpt lat="41.2860780" lon="-4.8969490">
        <ele>720.3</ele>
        <time>2019-08-14T12:46:17Z</time>
      </trkpt>
      <trkpt lat="41.2861190" lon="-4.8969770">
        <ele>720.3</ele>
        <time>2019-08-14T12:46:18Z</time>
      </trkpt>
      <trkpt lat="41.2861600" lon="-4.8970050">
        <ele>720.3</ele>
        <time>2019-08-14T12:46:19Z</time>
      </trkpt>
      <trkpt lat="41.2862020" lon="-4.8970350">
        <ele>720.3</ele>
        <time>2019-08-14T12:46:20Z</time>
      </trkpt>
      <trkpt lat="41.2862430" lon="-4.8970640">
        <ele>720.3</ele>
        <time>2019-08-14T12:46:21Z</time>
      </trkpt>
      <trkpt lat="41.2862850" lon="-4.8970920">
        <ele>720.3</ele>
        <time>2019-08-14T12:46:22Z</time>
      </trkpt>
      <trkpt lat="41.2863270" lon="-4.8971200">
        <ele>720.3</ele>
        <time>2019-08-14T12:46:23Z</time>
      </trkpt>
      <trkpt lat="41.2863680" lon="-4.8971470">
        <ele>720.3</ele>
        <time>2019-08-14T12:46:24Z</time>
      </trkpt>
      <trkpt lat="41.2864090" lon="-4.8971740">
        <ele>720.3</ele>
        <time>2019-08-14T12:46:25Z</time>
      </trkpt>
      <trkpt lat="41.2864490" lon="-4.8972010">
        <ele>720.3</ele>
        <time>2019-08-14T12:46:26Z</time>
      </trkpt>
      <trkpt lat="41.2864900" lon="-4.8972300">
        <ele>720.3</ele>
        <time>2019-08-14T12:46:27Z</time>
      </trkpt>
      <trkpt lat="41.2865310" lon="-4.8972570">
        <ele>720.3</ele>
        <time>2019-08-14T12:46:28Z</time>
      </trkpt>
      <trkpt lat="41.2865710" lon="-4.8972840">
        <ele>720.3</ele>
        <time>2019-08-14T12:46:29Z</time>
      </trkpt>
      <trkpt lat="41.2866120" lon="-4.8973110">
        <ele>720.3</ele>
        <time>2019-08-14T12:46:30Z</time>
      </trkpt>
      <trkpt lat="41.2866510" lon="-4.8973390">
        <ele>720.3</ele>
        <time>2019-08-14T12:46:31Z</time>
      </trkpt>
      <trkpt lat="41.2866920" lon="-4.8973660">
        <ele>720.3</ele>
        <time>2019-08-14T12:46:32Z</time>
      </trkpt>
      <trkpt lat="41.2867320" lon="-4.8973940">
        <ele>720.3</ele>
        <time>2019-08-14T12:46:33Z</time>
      </trkpt>
      <trkpt lat="41.2867720" lon="-4.8974200">
        <ele>720.3</ele>
        <time>2019-08-14T12:46:34Z</time>
      </trkpt>
      <trkpt lat="41.2868130" lon="-4.8974460">
        <ele>720.3</ele>
        <time>2019-08-14T12:46:35Z</time>
      </trkpt>
      <trkpt lat="41.2868520" lon="-4.8974730">
        <ele>720.3</ele>
        <time>2019-08-14T12:46:36Z</time>
      </trkpt>
      <trkpt lat="41.2868920" lon="-4.8975000">
        <ele>720.3</ele>
        <time>2019-08-14T12:46:37Z</time>
      </trkpt>
      <trkpt lat="41.2869330" lon="-4.8975290">
        <ele>720.3</ele>
        <time>2019-08-14T12:46:38Z</time>
      </trkpt>
      <trkpt lat="41.2869740" lon="-4.8975570">
        <ele>720.3</ele>
        <time>2019-08-14T12:46:39Z</time>
      </trkpt>
      <trkpt lat="41.2870150" lon="-4.8975850">
        <ele>720.3</ele>
        <time>2019-08-14T12:46:40Z</time>
      </trkpt>
      <trkpt lat="41.2870570" lon="-4.8976150">
        <ele>720.3</ele>
        <time>2019-08-14T12:46:41Z</time>
      </trkpt>
      <trkpt lat="41.2870980" lon="-4.8976460">
        <ele>720.3</ele>
        <time>2019-08-14T12:46:42Z</time>
      </trkpt>
      <trkpt lat="41.2871390" lon="-4.8976750">
        <ele>720.3</ele>
        <time>2019-08-14T12:46:43Z</time>
      </trkpt>
      <trkpt lat="41.2871800" lon="-4.8977040">
        <ele>720.3</ele>
        <time>2019-08-14T12:46:44Z</time>
      </trkpt>
      <trkpt lat="41.2872210" lon="-4.8977320">
        <ele>720.3</ele>
        <time>2019-08-14T12:46:45Z</time>
      </trkpt>
      <trkpt lat="41.2872630" lon="-4.8977620">
        <ele>720.3</ele>
        <time>2019-08-14T12:46:46Z</time>
      </trkpt>
      <trkpt lat="41.2873050" lon="-4.8977910">
        <ele>720.3</ele>
        <time>2019-08-14T12:46:47Z</time>
      </trkpt>
      <trkpt lat="41.2873460" lon="-4.8978220">
        <ele>720.3</ele>
        <time>2019-08-14T12:46:48Z</time>
      </trkpt>
      <trkpt lat="41.2873880" lon="-4.8978560">
        <ele>720.3</ele>
        <time>2019-08-14T12:46:49Z</time>
      </trkpt>
      <trkpt lat="41.2874290" lon="-4.8978900">
        <ele>720.3</ele>
        <time>2019-08-14T12:46:50Z</time>
      </trkpt>
      <trkpt lat="41.2874710" lon="-4.8979230">
        <ele>720.3</ele>
        <time>2019-08-14T12:46:51Z</time>
      </trkpt>
      <trkpt lat="41.2875120" lon="-4.8979580">
        <ele>720.3</ele>
        <time>2019-08-14T12:46:52Z</time>
      </trkpt>
      <trkpt lat="41.2875530" lon="-4.8979940">
        <ele>720.3</ele>
        <time>2019-08-14T12:46:53Z</time>
      </trkpt>
      <trkpt lat="41.2875930" lon="-4.8980290">
        <ele>720.4</ele>
        <time>2019-08-14T12:46:54Z</time>
      </trkpt>
      <trkpt lat="41.2876340" lon="-4.8980610">
        <ele>720.4</ele>
        <time>2019-08-14T12:46:55Z</time>
      </trkpt>
      <trkpt lat="41.2876740" lon="-4.8980930">
        <ele>720.5</ele>
        <time>2019-08-14T12:46:56Z</time>
      </trkpt>
      <trkpt lat="41.2877140" lon="-4.8981270">
        <ele>720.5</ele>
        <time>2019-08-14T12:46:57Z</time>
      </trkpt>
      <trkpt lat="41.2877540" lon="-4.8981560">
        <ele>720.6</ele>
        <time>2019-08-14T12:46:58Z</time>
      </trkpt>
      <trkpt lat="41.2877940" lon="-4.8981840">
        <ele>720.7</ele>
        <time>2019-08-14T12:46:59Z</time>
      </trkpt>
      <trkpt lat="41.2878330" lon="-4.8982120">
        <ele>720.8</ele>
        <time>2019-08-14T12:47:00Z</time>
      </trkpt>
      <trkpt lat="41.2878710" lon="-4.8982410">
        <ele>720.8</ele>
        <time>2019-08-14T12:47:01Z</time>
      </trkpt>
      <trkpt lat="41.2879110" lon="-4.8982710">
        <ele>720.9</ele>
        <time>2019-08-14T12:47:02Z</time>
      </trkpt>
      <trkpt lat="41.2879510" lon="-4.8982990">
        <ele>721.0</ele>
        <time>2019-08-14T12:47:03Z</time>
      </trkpt>
      <trkpt lat="41.2879920" lon="-4.8983280">
        <ele>721.1</ele>
        <time>2019-08-14T12:47:04Z</time>
      </trkpt>
      <trkpt lat="41.2880330" lon="-4.8983580">
        <ele>721.1</ele>
        <time>2019-08-14T12:47:05Z</time>
      </trkpt>
      <trkpt lat="41.2880750" lon="-4.8983870">
        <ele>721.1</ele>
        <time>2019-08-14T12:47:06Z</time>
      </trkpt>
      <trkpt lat="41.2881160" lon="-4.8984170">
        <ele>721.2</ele>
        <time>2019-08-14T12:47:07Z</time>
      </trkpt>
      <trkpt lat="41.2881580" lon="-4.8984510">
        <ele>721.2</ele>
        <time>2019-08-14T12:47:08Z</time>
      </trkpt>
      <trkpt lat="41.2882000" lon="-4.8984820">
        <ele>721.2</ele>
        <time>2019-08-14T12:47:09Z</time>
      </trkpt>
      <trkpt lat="41.2882410" lon="-4.8985130">
        <ele>721.2</ele>
        <time>2019-08-14T12:47:10Z</time>
      </trkpt>
      <trkpt lat="41.2882840" lon="-4.8985460">
        <ele>721.2</ele>
        <time>2019-08-14T12:47:11Z</time>
      </trkpt>
      <trkpt lat="41.2883280" lon="-4.8985800">
        <ele>721.3</ele>
        <time>2019-08-14T12:47:12Z</time>
      </trkpt>
      <trkpt lat="41.2883710" lon="-4.8986140">
        <ele>721.3</ele>
        <time>2019-08-14T12:47:13Z</time>
      </trkpt>
      <trkpt lat="41.2884150" lon="-4.8986470">
        <ele>721.3</ele>
        <time>2019-08-14T12:47:14Z</time>
      </trkpt>
      <trkpt lat="41.2884560" lon="-4.8986780">
        <ele>721.3</ele>
        <time>2019-08-14T12:47:15Z</time>
      </trkpt>
      <trkpt lat="41.2884980" lon="-4.8987050">
        <ele>721.3</ele>
        <time>2019-08-14T12:47:16Z</time>
      </trkpt>
      <trkpt lat="41.2885380" lon="-4.8987330">
        <ele>721.3</ele>
        <time>2019-08-14T12:47:17Z</time>
      </trkpt>
      <trkpt lat="41.2885740" lon="-4.8987600">
        <ele>721.3</ele>
        <time>2019-08-14T12:47:18Z</time>
      </trkpt>
      <trkpt lat="41.2886080" lon="-4.8987860">
        <ele>721.3</ele>
        <time>2019-08-14T12:47:19Z</time>
      </trkpt>
      <trkpt lat="41.2886410" lon="-4.8988100">
        <ele>721.3</ele>
        <time>2019-08-14T12:47:20Z</time>
      </trkpt>
      <trkpt lat="41.2886760" lon="-4.8988350">
        <ele>721.3</ele>
        <time>2019-08-14T12:47:21Z</time>
      </trkpt>
      <trkpt lat="41.2887130" lon="-4.8988610">
        <ele>721.3</ele>
        <time>2019-08-14T12:47:22Z</time>
      </trkpt>
      <trkpt lat="41.2887530" lon="-4.8988900">
        <ele>721.3</ele>
        <time>2019-08-14T12:47:23Z</time>
      </trkpt>
      <trkpt lat="41.2887940" lon="-4.8989200">
        <ele>721.3</ele>
        <time>2019-08-14T12:47:24Z</time>
      </trkpt>
      <trkpt lat="41.2888370" lon="-4.8989510">
        <ele>721.3</ele>
        <time>2019-08-14T12:47:25Z</time>
      </trkpt>
      <trkpt lat="41.2888810" lon="-4.8989820">
        <ele>721.3</ele>
        <time>2019-08-14T12:47:26Z</time>
      </trkpt>
      <trkpt lat="41.2889270" lon="-4.8990130">
        <ele>721.3</ele>
        <time>2019-08-14T12:47:27Z</time>
      </trkpt>
      <trkpt lat="41.2889710" lon="-4.8990430">
        <ele>721.3</ele>
        <time>2019-08-14T12:47:28Z</time>
      </trkpt>
      <trkpt lat="41.2890100" lon="-4.8990650">
        <ele>721.2</ele>
        <time>2019-08-14T12:47:29Z</time>
      </trkpt>
      <trkpt lat="41.2890490" lon="-4.8990880">
        <ele>721.3</ele>
        <time>2019-08-14T12:47:30Z</time>
      </trkpt>
      <trkpt lat="41.2890900" lon="-4.8991140">
        <ele>721.3</ele>
        <time>2019-08-14T12:47:31Z</time>
      </trkpt>
      <trkpt lat="41.2891280" lon="-4.8991380">
        <ele>721.3</ele>
        <time>2019-08-14T12:47:32Z</time>
      </trkpt>
      <trkpt lat="41.2891650" lon="-4.8991600">
        <ele>721.4</ele>
        <time>2019-08-14T12:47:33Z</time>
      </trkpt>
      <trkpt lat="41.2892050" lon="-4.8991830">
        <ele>721.5</ele>
        <time>2019-08-14T12:47:34Z</time>
      </trkpt>
      <trkpt lat="41.2892460" lon="-4.8992100">
        <ele>721.6</ele>
        <time>2019-08-14T12:47:35Z</time>
      </trkpt>
      <trkpt lat="41.2892890" lon="-4.8992400">
        <ele>721.7</ele>
        <time>2019-08-14T12:47:36Z</time>
      </trkpt>
      <trkpt lat="41.2893320" lon="-4.8992700">
        <ele>721.8</ele>
        <time>2019-08-14T12:47:37Z</time>
      </trkpt>
      <trkpt lat="41.2893770" lon="-4.8993040">
        <ele>721.8</ele>
        <time>2019-08-14T12:47:38Z</time>
      </trkpt>
      <trkpt lat="41.2894200" lon="-4.8993380">
        <ele>721.9</ele>
        <time>2019-08-14T12:47:39Z</time>
      </trkpt>
      <trkpt lat="41.2894640" lon="-4.8993700">
        <ele>721.9</ele>
        <time>2019-08-14T12:47:40Z</time>
      </trkpt>
      <trkpt lat="41.2895090" lon="-4.8994020">
        <ele>722.0</ele>
        <time>2019-08-14T12:47:41Z</time>
      </trkpt>
      <trkpt lat="41.2895510" lon="-4.8994340">
        <ele>722.0</ele>
        <time>2019-08-14T12:47:42Z</time>
      </trkpt>
      <trkpt lat="41.2895940" lon="-4.8994650">
        <ele>722.1</ele>
        <time>2019-08-14T12:47:43Z</time>
      </trkpt>
      <trkpt lat="41.2896380" lon="-4.8994970">
        <ele>722.1</ele>
        <time>2019-08-14T12:47:44Z</time>
      </trkpt>
      <trkpt lat="41.2896810" lon="-4.8995300">
        <ele>722.2</ele>
        <time>2019-08-14T12:47:45Z</time>
      </trkpt>
      <trkpt lat="41.2897240" lon="-4.8995630">
        <ele>722.2</ele>
        <time>2019-08-14T12:47:46Z</time>
      </trkpt>
      <trkpt lat="41.2897660" lon="-4.8995950">
        <ele>722.3</ele>
        <time>2019-08-14T12:47:47Z</time>
      </trkpt>
      <trkpt lat="41.2898070" lon="-4.8996260">
        <ele>722.3</ele>
        <time>2019-08-14T12:47:48Z</time>
      </trkpt>
      <trkpt lat="41.2898490" lon="-4.8996570">
        <ele>722.4</ele>
        <time>2019-08-14T12:47:49Z</time>
      </trkpt>
      <trkpt lat="41.2898920" lon="-4.8996880">
        <ele>722.4</ele>
        <time>2019-08-14T12:47:50Z</time>
      </trkpt>
      <trkpt lat="41.2899360" lon="-4.8997220">
        <ele>722.5</ele>
        <time>2019-08-14T12:47:51Z</time>
      </trkpt>
      <trkpt lat="41.2899800" lon="-4.8997540">
        <ele>722.5</ele>
        <time>2019-08-14T12:47:52Z</time>
      </trkpt>
      <trkpt lat="41.2900240" lon="-4.8997850">
        <ele>722.5</ele>
        <time>2019-08-14T12:47:53Z</time>
      </trkpt>
      <trkpt lat="41.2900690" lon="-4.8998170">
        <ele>722.6</ele>
        <time>2019-08-14T12:47:54Z</time>
      </trkpt>
      <trkpt lat="41.2901140" lon="-4.8998500">
        <ele>722.6</ele>
        <time>2019-08-14T12:47:55Z</time>
      </trkpt>
      <trkpt lat="41.2901610" lon="-4.8998830">
        <ele>722.7</ele>
        <time>2019-08-14T12:47:56Z</time>
      </trkpt>
      <trkpt lat="41.2902060" lon="-4.8999150">
        <ele>722.8</ele>
        <time>2019-08-14T12:47:57Z</time>
      </trkpt>
      <trkpt lat="41.2902500" lon="-4.8999490">
        <ele>722.8</ele>
        <time>2019-08-14T12:47:58Z</time>
      </trkpt>
      <trkpt lat="41.2902910" lon="-4.8999830">
        <ele>722.9</ele>
        <time>2019-08-14T12:47:59Z</time>
      </trkpt>
      <trkpt lat="41.2903310" lon="-4.9000150">
        <ele>722.9</ele>
        <time>2019-08-14T12:48:00Z</time>
      </trkpt>
      <trkpt lat="41.2903710" lon="-4.9000460">
        <ele>723.0</ele>
        <time>2019-08-14T12:48:01Z</time>
      </trkpt>
      <trkpt lat="41.2904110" lon="-4.9000780">
        <ele>723.0</ele>
        <time>2019-08-14T12:48:02Z</time>
      </trkpt>
      <trkpt lat="41.2904520" lon="-4.9001100">
        <ele>723.1</ele>
        <time>2019-08-14T12:48:03Z</time>
      </trkpt>
      <trkpt lat="41.2904920" lon="-4.9001400">
        <ele>723.1</ele>
        <time>2019-08-14T12:48:04Z</time>
      </trkpt>
      <trkpt lat="41.2905310" lon="-4.9001700">
        <ele>723.1</ele>
        <time>2019-08-14T12:48:05Z</time>
      </trkpt>
      <trkpt lat="41.2905700" lon="-4.9001990">
        <ele>723.2</ele>
        <time>2019-08-14T12:48:06Z</time>
      </trkpt>
      <trkpt lat="41.2906090" lon="-4.9002290">
        <ele>723.2</ele>
        <time>2019-08-14T12:48:07Z</time>
      </trkpt>
      <trkpt lat="41.2906490" lon="-4.9002580">
        <ele>723.3</ele>
        <time>2019-08-14T12:48:08Z</time>
      </trkpt>
      <trkpt lat="41.2906880" lon="-4.9002870">
        <ele>723.3</ele>
        <time>2019-08-14T12:48:09Z</time>
      </trkpt>
      <trkpt lat="41.2907290" lon="-4.9003160">
        <ele>723.3</ele>
        <time>2019-08-14T12:48:10Z</time>
      </trkpt>
      <trkpt lat="41.2907680" lon="-4.9003450">
        <ele>723.4</ele>
        <time>2019-08-14T12:48:11Z</time>
      </trkpt>
      <trkpt lat="41.2908060" lon="-4.9003760">
        <ele>723.4</ele>
        <time>2019-08-14T12:48:12Z</time>
      </trkpt>
      <trkpt lat="41.2908440" lon="-4.9004070">
        <ele>723.5</ele>
        <time>2019-08-14T12:48:13Z</time>
      </trkpt>
      <trkpt lat="41.2908820" lon="-4.9004380">
        <ele>723.5</ele>
        <time>2019-08-14T12:48:14Z</time>
      </trkpt>
      <trkpt lat="41.2909210" lon="-4.9004670">
        <ele>723.6</ele>
        <time>2019-08-14T12:48:15Z</time>
      </trkpt>
      <trkpt lat="41.2909590" lon="-4.9004960">
        <ele>723.6</ele>
        <time>2019-08-14T12:48:16Z</time>
      </trkpt>
      <trkpt lat="41.2909980" lon="-4.9005230">
        <ele>723.6</ele>
        <time>2019-08-14T12:48:17Z</time>
      </trkpt>
      <trkpt lat="41.2910370" lon="-4.9005500">
        <ele>723.7</ele>
        <time>2019-08-14T12:48:18Z</time>
      </trkpt>
      <trkpt lat="41.2910760" lon="-4.9005740">
        <ele>723.7</ele>
        <time>2019-08-14T12:48:19Z</time>
      </trkpt>
      <trkpt lat="41.2911160" lon="-4.9005990">
        <ele>723.8</ele>
        <time>2019-08-14T12:48:20Z</time>
      </trkpt>
      <trkpt lat="41.2911580" lon="-4.9006250">
        <ele>723.8</ele>
        <time>2019-08-14T12:48:21Z</time>
      </trkpt>
      <trkpt lat="41.2911990" lon="-4.9006490">
        <ele>723.8</ele>
        <time>2019-08-14T12:48:22Z</time>
      </trkpt>
      <trkpt lat="41.2912410" lon="-4.9006740">
        <ele>723.8</ele>
        <time>2019-08-14T12:48:23Z</time>
      </trkpt>
      <trkpt lat="41.2912840" lon="-4.9006990">
        <ele>723.8</ele>
        <time>2019-08-14T12:48:24Z</time>
      </trkpt>
      <trkpt lat="41.2913270" lon="-4.9007230">
        <ele>723.9</ele>
        <time>2019-08-14T12:48:25Z</time>
      </trkpt>
      <trkpt lat="41.2913710" lon="-4.9007480">
        <ele>723.9</ele>
        <time>2019-08-14T12:48:26Z</time>
      </trkpt>
      <trkpt lat="41.2914170" lon="-4.9007730">
        <ele>723.9</ele>
        <time>2019-08-14T12:48:27Z</time>
      </trkpt>
      <trkpt lat="41.2914620" lon="-4.9007980">
        <ele>723.9</ele>
        <time>2019-08-14T12:48:28Z</time>
      </trkpt>
      <trkpt lat="41.2915070" lon="-4.9008240">
        <ele>723.9</ele>
        <time>2019-08-14T12:48:29Z</time>
      </trkpt>
      <trkpt lat="41.2915490" lon="-4.9008480">
        <ele>724.0</ele>
        <time>2019-08-14T12:48:30Z</time>
      </trkpt>
      <trkpt lat="41.2915890" lon="-4.9008690">
        <ele>724.1</ele>
        <time>2019-08-14T12:48:31Z</time>
      </trkpt>
      <trkpt lat="41.2916270" lon="-4.9008880">
        <ele>724.2</ele>
        <time>2019-08-14T12:48:32Z</time>
      </trkpt>
      <trkpt lat="41.2916620" lon="-4.9009040">
        <ele>724.2</ele>
        <time>2019-08-14T12:48:33Z</time>
      </trkpt>
      <trkpt lat="41.2916950" lon="-4.9009160">
        <ele>724.3</ele>
        <time>2019-08-14T12:48:34Z</time>
      </trkpt>
      <trkpt lat="41.2917280" lon="-4.9009270">
        <ele>724.4</ele>
        <time>2019-08-14T12:48:35Z</time>
      </trkpt>
      <trkpt lat="41.2917620" lon="-4.9009420">
        <ele>724.5</ele>
        <time>2019-08-14T12:48:36Z</time>
      </trkpt>
      <trkpt lat="41.2917990" lon="-4.9009600">
        <ele>724.6</ele>
        <time>2019-08-14T12:48:37Z</time>
      </trkpt>
      <trkpt lat="41.2918350" lon="-4.9009790">
        <ele>724.6</ele>
        <time>2019-08-14T12:48:38Z</time>
      </trkpt>
      <trkpt lat="41.2918700" lon="-4.9009990">
        <ele>724.7</ele>
        <time>2019-08-14T12:48:39Z</time>
      </trkpt>
      <trkpt lat="41.2919020" lon="-4.9010170">
        <ele>724.7</ele>
        <time>2019-08-14T12:48:40Z</time>
      </trkpt>
      <trkpt lat="41.2919330" lon="-4.9010340">
        <ele>724.8</ele>
        <time>2019-08-14T12:48:41Z</time>
      </trkpt>
      <trkpt lat="41.2919660" lon="-4.9010500">
        <ele>724.8</ele>
        <time>2019-08-14T12:48:42Z</time>
      </trkpt>
      <trkpt lat="41.2920010" lon="-4.9010670">
        <ele>724.8</ele>
        <time>2019-08-14T12:48:43Z</time>
      </trkpt>
      <trkpt lat="41.2920370" lon="-4.9010860">
        <ele>724.8</ele>
        <time>2019-08-14T12:48:44Z</time>
      </trkpt>
      <trkpt lat="41.2920730" lon="-4.9011110">
        <ele>724.8</ele>
        <time>2019-08-14T12:48:45Z</time>
      </trkpt>
      <trkpt lat="41.2921090" lon="-4.9011370">
        <ele>724.8</ele>
        <time>2019-08-14T12:48:46Z</time>
      </trkpt>
      <trkpt lat="41.2921440" lon="-4.9011640">
        <ele>724.8</ele>
        <time>2019-08-14T12:48:47Z</time>
      </trkpt>
      <trkpt lat="41.2921790" lon="-4.9011900">
        <ele>724.8</ele>
        <time>2019-08-14T12:48:48Z</time>
      </trkpt>
      <trkpt lat="41.2922140" lon="-4.9012160">
        <ele>724.8</ele>
        <time>2019-08-14T12:48:49Z</time>
      </trkpt>
      <trkpt lat="41.2922470" lon="-4.9012390">
        <ele>724.8</ele>
        <time>2019-08-14T12:48:50Z</time>
      </trkpt>
      <trkpt lat="41.2922790" lon="-4.9012640">
        <ele>724.8</ele>
        <time>2019-08-14T12:48:51Z</time>
      </trkpt>
      <trkpt lat="41.2923100" lon="-4.9012890">
        <ele>724.8</ele>
        <time>2019-08-14T12:48:52Z</time>
      </trkpt>
      <trkpt lat="41.2923400" lon="-4.9013140">
        <ele>724.8</ele>
        <time>2019-08-14T12:48:53Z</time>
      </trkpt>
      <trkpt lat="41.2923720" lon="-4.9013370">
        <ele>724.8</ele>
        <time>2019-08-14T12:48:54Z</time>
      </trkpt>
      <trkpt lat="41.2924080" lon="-4.9013620">
        <ele>724.8</ele>
        <time>2019-08-14T12:48:55Z</time>
      </trkpt>
      <trkpt lat="41.2924450" lon="-4.9013900">
        <ele>724.8</ele>
        <time>2019-08-14T12:48:56Z</time>
      </trkpt>
      <trkpt lat="41.2924830" lon="-4.9014200">
        <ele>724.8</ele>
        <time>2019-08-14T12:48:57Z</time>
      </trkpt>
      <trkpt lat="41.2925210" lon="-4.9014510">
        <ele>724.8</ele>
        <time>2019-08-14T12:48:58Z</time>
      </trkpt>
      <trkpt lat="41.2925580" lon="-4.9014800">
        <ele>724.8</ele>
        <time>2019-08-14T12:48:59Z</time>
      </trkpt>
      <trkpt lat="41.2925940" lon="-4.9015070">
        <ele>724.8</ele>
        <time>2019-08-14T12:49:00Z</time>
      </trkpt>
      <trkpt lat="41.2926300" lon="-4.9015340">
        <ele>724.8</ele>
        <time>2019-08-14T12:49:01Z</time>
      </trkpt>
      <trkpt lat="41.2926640" lon="-4.9015620">
        <ele>724.8</ele>
        <time>2019-08-14T12:49:02Z</time>
      </trkpt>
      <trkpt lat="41.2926970" lon="-4.9015880">
        <ele>724.8</ele>
        <time>2019-08-14T12:49:03Z</time>
      </trkpt>
      <trkpt lat="41.2927310" lon="-4.9016120">
        <ele>724.8</ele>
        <time>2019-08-14T12:49:04Z</time>
      </trkpt>
      <trkpt lat="41.2927660" lon="-4.9016340">
        <ele>724.8</ele>
        <time>2019-08-14T12:49:05Z</time>
      </trkpt>
      <trkpt lat="41.2928010" lon="-4.9016600">
        <ele>724.7</ele>
        <time>2019-08-14T12:49:06Z</time>
      </trkpt>
      <trkpt lat="41.2928370" lon="-4.9016930">
        <ele>724.7</ele>
        <time>2019-08-14T12:49:07Z</time>
      </trkpt>
      <trkpt lat="41.2928770" lon="-4.9017290">
        <ele>724.7</ele>
        <time>2019-08-14T12:49:08Z</time>
      </trkpt>
      <trkpt lat="41.2929190" lon="-4.9017650">
        <ele>724.6</ele>
        <time>2019-08-14T12:49:09Z</time>
      </trkpt>
      <trkpt lat="41.2929600" lon="-4.9018000">
        <ele>724.5</ele>
        <time>2019-08-14T12:49:10Z</time>
      </trkpt>
      <trkpt lat="41.2930000" lon="-4.9018350">
        <ele>724.5</ele>
        <time>2019-08-14T12:49:11Z</time>
      </trkpt>
      <trkpt lat="41.2930410" lon="-4.9018670">
        <ele>724.4</ele>
        <time>2019-08-14T12:49:12Z</time>
      </trkpt>
      <trkpt lat="41.2930810" lon="-4.9019000">
        <ele>724.3</ele>
        <time>2019-08-14T12:49:13Z</time>
      </trkpt>
      <trkpt lat="41.2931210" lon="-4.9019320">
        <ele>724.2</ele>
        <time>2019-08-14T12:49:14Z</time>
      </trkpt>
      <trkpt lat="41.2931580" lon="-4.9019660">
        <ele>724.1</ele>
        <time>2019-08-14T12:49:15Z</time>
      </trkpt>
      <trkpt lat="41.2931960" lon="-4.9020030">
        <ele>724.0</ele>
        <time>2019-08-14T12:49:16Z</time>
      </trkpt>
      <trkpt lat="41.2932360" lon="-4.9020430">
        <ele>724.0</ele>
        <time>2019-08-14T12:49:17Z</time>
      </trkpt>
      <trkpt lat="41.2932770" lon="-4.9020850">
        <ele>723.9</ele>
        <time>2019-08-14T12:49:18Z</time>
      </trkpt>
      <trkpt lat="41.2933200" lon="-4.9021270">
        <ele>723.9</ele>
        <time>2019-08-14T12:49:19Z</time>
      </trkpt>
      <trkpt lat="41.2933630" lon="-4.9021700">
        <ele>723.8</ele>
        <time>2019-08-14T12:49:20Z</time>
      </trkpt>
      <trkpt lat="41.2934060" lon="-4.9022110">
        <ele>723.8</ele>
        <time>2019-08-14T12:49:21Z</time>
      </trkpt>
      <trkpt lat="41.2934480" lon="-4.9022510">
        <ele>723.8</ele>
        <time>2019-08-14T12:49:22Z</time>
      </trkpt>
      <trkpt lat="41.2934890" lon="-4.9022880">
        <ele>723.8</ele>
        <time>2019-08-14T12:49:23Z</time>
      </trkpt>
      <trkpt lat="41.2935290" lon="-4.9023250">
        <ele>723.8</ele>
        <time>2019-08-14T12:49:24Z</time>
      </trkpt>
      <trkpt lat="41.2935700" lon="-4.9023620">
        <ele>723.8</ele>
        <time>2019-08-14T12:49:25Z</time>
      </trkpt>
      <trkpt lat="41.2936100" lon="-4.9024020">
        <ele>723.8</ele>
        <time>2019-08-14T12:49:26Z</time>
      </trkpt>
      <trkpt lat="41.2936520" lon="-4.9024440">
        <ele>723.7</ele>
        <time>2019-08-14T12:49:27Z</time>
      </trkpt>
      <trkpt lat="41.2936930" lon="-4.9024850">
        <ele>723.7</ele>
        <time>2019-08-14T12:49:28Z</time>
      </trkpt>
      <trkpt lat="41.2937330" lon="-4.9025250">
        <ele>723.7</ele>
        <time>2019-08-14T12:49:29Z</time>
      </trkpt>
      <trkpt lat="41.2937720" lon="-4.9025600">
        <ele>723.7</ele>
        <time>2019-08-14T12:49:30Z</time>
      </trkpt>
      <trkpt lat="41.2938110" lon="-4.9025940">
        <ele>723.7</ele>
        <time>2019-08-14T12:49:31Z</time>
      </trkpt>
      <trkpt lat="41.2938510" lon="-4.9026300">
        <ele>723.7</ele>
        <time>2019-08-14T12:49:32Z</time>
      </trkpt>
      <trkpt lat="41.2938930" lon="-4.9026660">
        <ele>723.6</ele>
        <time>2019-08-14T12:49:33Z</time>
      </trkpt>
      <trkpt lat="41.2939370" lon="-4.9027010">
        <ele>723.6</ele>
        <time>2019-08-14T12:49:34Z</time>
      </trkpt>
      <trkpt lat="41.2939820" lon="-4.9027370">
        <ele>723.5</ele>
        <time>2019-08-14T12:49:35Z</time>
      </trkpt>
      <trkpt lat="41.2940270" lon="-4.9027720">
        <ele>723.4</ele>
        <time>2019-08-14T12:49:36Z</time>
      </trkpt>
      <trkpt lat="41.2940740" lon="-4.9028050">
        <ele>723.3</ele>
        <time>2019-08-14T12:49:37Z</time>
      </trkpt>
      <trkpt lat="41.2941200" lon="-4.9028370">
        <ele>723.2</ele>
        <time>2019-08-14T12:49:38Z</time>
      </trkpt>
      <trkpt lat="41.2941680" lon="-4.9028680">
        <ele>723.1</ele>
        <time>2019-08-14T12:49:39Z</time>
      </trkpt>
      <trkpt lat="41.2942150" lon="-4.9028970">
        <ele>723.0</ele>
        <time>2019-08-14T12:49:40Z</time>
      </trkpt>
      <trkpt lat="41.2942630" lon="-4.9029270">
        <ele>722.9</ele>
        <time>2019-08-14T12:49:41Z</time>
      </trkpt>
      <trkpt lat="41.2943120" lon="-4.9029570">
        <ele>722.9</ele>
        <time>2019-08-14T12:49:42Z</time>
      </trkpt>
      <trkpt lat="41.2943600" lon="-4.9029860">
        <ele>722.8</ele>
        <time>2019-08-14T12:49:43Z</time>
      </trkpt>
      <trkpt lat="41.2944060" lon="-4.9030160">
        <ele>722.8</ele>
        <time>2019-08-14T12:49:44Z</time>
      </trkpt>
      <trkpt lat="41.2944510" lon="-4.9030430">
        <ele>722.8</ele>
        <time>2019-08-14T12:49:45Z</time>
      </trkpt>
      <trkpt lat="41.2944950" lon="-4.9030660">
        <ele>722.8</ele>
        <time>2019-08-14T12:49:46Z</time>
      </trkpt>
      <trkpt lat="41.2945390" lon="-4.9030870">
        <ele>722.8</ele>
        <time>2019-08-14T12:49:47Z</time>
      </trkpt>
      <trkpt lat="41.2945830" lon="-4.9031060">
        <ele>722.8</ele>
        <time>2019-08-14T12:49:48Z</time>
      </trkpt>
      <trkpt lat="41.2946290" lon="-4.9031240">
        <ele>722.8</ele>
        <time>2019-08-14T12:49:49Z</time>
      </trkpt>
      <trkpt lat="41.2946760" lon="-4.9031420">
        <ele>722.8</ele>
        <time>2019-08-14T12:49:50Z</time>
      </trkpt>
      <trkpt lat="41.2947230" lon="-4.9031610">
        <ele>722.8</ele>
        <time>2019-08-14T12:49:51Z</time>
      </trkpt>
      <trkpt lat="41.2947720" lon="-4.9031830">
        <ele>722.8</ele>
        <time>2019-08-14T12:49:52Z</time>
      </trkpt>
      <trkpt lat="41.2948210" lon="-4.9032020">
        <ele>722.8</ele>
        <time>2019-08-14T12:49:53Z</time>
      </trkpt>
      <trkpt lat="41.2948710" lon="-4.9032200">
        <ele>722.8</ele>
        <time>2019-08-14T12:49:54Z</time>
      </trkpt>
      <trkpt lat="41.2949220" lon="-4.9032400">
        <ele>722.8</ele>
        <time>2019-08-14T12:49:55Z</time>
      </trkpt>
      <trkpt lat="41.2949730" lon="-4.9032600">
        <ele>722.7</ele>
        <time>2019-08-14T12:49:56Z</time>
      </trkpt>
      <trkpt lat="41.2950250" lon="-4.9032810">
        <ele>722.7</ele>
        <time>2019-08-14T12:49:57Z</time>
      </trkpt>
      <trkpt lat="41.2950770" lon="-4.9033000">
        <ele>722.7</ele>
        <time>2019-08-14T12:49:58Z</time>
      </trkpt>
      <trkpt lat="41.2951290" lon="-4.9033200">
        <ele>722.7</ele>
        <time>2019-08-14T12:49:59Z</time>
      </trkpt>
      <trkpt lat="41.2951790" lon="-4.9033380">
        <ele>722.7</ele>
        <time>2019-08-14T12:50:00Z</time>
      </trkpt>
      <trkpt lat="41.2952280" lon="-4.9033560">
        <ele>722.7</ele>
        <time>2019-08-14T12:50:01Z</time>
      </trkpt>
      <trkpt lat="41.2952760" lon="-4.9033740">
        <ele>722.7</ele>
        <time>2019-08-14T12:50:02Z</time>
      </trkpt>
      <trkpt lat="41.2953230" lon="-4.9033910">
        <ele>722.7</ele>
        <time>2019-08-14T12:50:03Z</time>
      </trkpt>
      <trkpt lat="41.2953680" lon="-4.9034060">
        <ele>722.7</ele>
        <time>2019-08-14T12:50:04Z</time>
      </trkpt>
      <trkpt lat="41.2954120" lon="-4.9034200">
        <ele>722.7</ele>
        <time>2019-08-14T12:50:05Z</time>
      </trkpt>
      <trkpt lat="41.2954540" lon="-4.9034360">
        <ele>722.7</ele>
        <time>2019-08-14T12:50:06Z</time>
      </trkpt>
      <trkpt lat="41.2954960" lon="-4.9034530">
        <ele>722.7</ele>
        <time>2019-08-14T12:50:07Z</time>
      </trkpt>
      <trkpt lat="41.2955370" lon="-4.9034700">
        <ele>722.7</ele>
        <time>2019-08-14T12:50:08Z</time>
      </trkpt>
      <trkpt lat="41.2955760" lon="-4.9034880">
        <ele>722.7</ele>
        <time>2019-08-14T12:50:09Z</time>
      </trkpt>
      <trkpt lat="41.2956120" lon="-4.9035060">
        <ele>722.7</ele>
        <time>2019-08-14T12:50:10Z</time>
      </trkpt>
      <trkpt lat="41.2956460" lon="-4.9035260">
        <ele>722.7</ele>
        <time>2019-08-14T12:50:11Z</time>
      </trkpt>
      <trkpt lat="41.2956780" lon="-4.9035470">
        <ele>722.7</ele>
        <time>2019-08-14T12:50:12Z</time>
      </trkpt>
      <trkpt lat="41.2957100" lon="-4.9035690">
        <ele>722.6</ele>
        <time>2019-08-14T12:50:13Z</time>
      </trkpt>
      <trkpt lat="41.2957370" lon="-4.9035970">
        <ele>722.6</ele>
        <time>2019-08-14T12:50:14Z</time>
      </trkpt>
      <trkpt lat="41.2957600" lon="-4.9036320">
        <ele>722.6</ele>
        <time>2019-08-14T12:50:15Z</time>
      </trkpt>
      <trkpt lat="41.2957780" lon="-4.9036740">
        <ele>722.5</ele>
        <time>2019-08-14T12:50:16Z</time>
      </trkpt>
      <trkpt lat="41.2957920" lon="-4.9037220">
        <ele>722.4</ele>
        <time>2019-08-14T12:50:17Z</time>
      </trkpt>
      <trkpt lat="41.2958060" lon="-4.9037710">
        <ele>722.4</ele>
        <time>2019-08-14T12:50:18Z</time>
      </trkpt>
      <trkpt lat="41.2958250" lon="-4.9038170">
        <ele>722.3</ele>
        <time>2019-08-14T12:50:19Z</time>
      </trkpt>
      <trkpt lat="41.2958490" lon="-4.9038550">
        <ele>722.4</ele>
        <time>2019-08-14T12:50:20Z</time>
      </trkpt>
      <trkpt lat="41.2958770" lon="-4.9038830">
        <ele>722.4</ele>
        <time>2019-08-14T12:50:21Z</time>
      </trkpt>
      <trkpt lat="41.2959030" lon="-4.9039060">
        <ele>722.4</ele>
        <time>2019-08-14T12:50:22Z</time>
      </trkpt>
      <trkpt lat="41.2959270" lon="-4.9039270">
        <ele>722.4</ele>
        <time>2019-08-14T12:50:23Z</time>
      </trkpt>
      <trkpt lat="41.2959500" lon="-4.9039510">
        <ele>722.4</ele>
        <time>2019-08-14T12:50:24Z</time>
      </trkpt>
      <trkpt lat="41.2959720" lon="-4.9039800">
        <ele>722.4</ele>
        <time>2019-08-14T12:50:25Z</time>
      </trkpt>
      <trkpt lat="41.2959920" lon="-4.9040150">
        <ele>722.5</ele>
        <time>2019-08-14T12:50:26Z</time>
      </trkpt>
      <trkpt lat="41.2960130" lon="-4.9040520">
        <ele>722.4</ele>
        <time>2019-08-14T12:50:27Z</time>
      </trkpt>
      <trkpt lat="41.2960370" lon="-4.9040860">
        <ele>722.4</ele>
        <time>2019-08-14T12:50:28Z</time>
      </trkpt>
      <trkpt lat="41.2960650" lon="-4.9041180">
        <ele>722.3</ele>
        <time>2019-08-14T12:50:29Z</time>
      </trkpt>
      <trkpt lat="41.2960950" lon="-4.9041480">
        <ele>722.3</ele>
        <time>2019-08-14T12:50:30Z</time>
      </trkpt>
      <trkpt lat="41.2961240" lon="-4.9041760">
        <ele>722.3</ele>
        <time>2019-08-14T12:50:31Z</time>
      </trkpt>
      <trkpt lat="41.2961540" lon="-4.9042010">
        <ele>722.3</ele>
        <time>2019-08-14T12:50:32Z</time>
      </trkpt>
      <trkpt lat="41.2961840" lon="-4.9042240">
        <ele>722.2</ele>
        <time>2019-08-14T12:50:33Z</time>
      </trkpt>
      <trkpt lat="41.2962130" lon="-4.9042460">
        <ele>722.2</ele>
        <time>2019-08-14T12:50:34Z</time>
      </trkpt>
      <trkpt lat="41.2962410" lon="-4.9042670">
        <ele>722.2</ele>
        <time>2019-08-14T12:50:35Z</time>
      </trkpt>
      <trkpt lat="41.2962690" lon="-4.9042870">
        <ele>722.2</ele>
        <time>2019-08-14T12:50:36Z</time>
      </trkpt>
      <trkpt lat="41.2962950" lon="-4.9043070">
        <ele>722.1</ele>
        <time>2019-08-14T12:50:37Z</time>
      </trkpt>
      <trkpt lat="41.2963190" lon="-4.9043290">
        <ele>722.1</ele>
        <time>2019-08-14T12:50:38Z</time>
      </trkpt>
      <trkpt lat="41.2963410" lon="-4.9043540">
        <ele>722.0</ele>
        <time>2019-08-14T12:50:39Z</time>
      </trkpt>
      <trkpt lat="41.2963610" lon="-4.9043790">
        <ele>722.0</ele>
        <time>2019-08-14T12:50:40Z</time>
      </trkpt>
      <trkpt lat="41.2964020" lon="-4.9044190">
        <ele>721.9</ele>
        <time>2019-08-14T12:50:42Z</time>
      </trkpt>
      <trkpt lat="41.2964540" lon="-4.9044430">
        <ele>721.8</ele>
        <time>2019-08-14T12:50:44Z</time>
      </trkpt>
      <trkpt lat="41.2964840" lon="-4.9044530">
        <ele>721.7</ele>
        <time>2019-08-14T12:50:45Z</time>
      </trkpt>
      <trkpt lat="41.2965150" lon="-4.9044640">
        <ele>721.6</ele>
        <time>2019-08-14T12:50:46Z</time>
      </trkpt>
      <trkpt lat="41.2965480" lon="-4.9044740">
        <ele>721.6</ele>
        <time>2019-08-14T12:50:47Z</time>
      </trkpt>
      <trkpt lat="41.2965820" lon="-4.9044860">
        <ele>721.5</ele>
        <time>2019-08-14T12:50:48Z</time>
      </trkpt>
      <trkpt lat="41.2966180" lon="-4.9045000">
        <ele>721.4</ele>
        <time>2019-08-14T12:50:49Z</time>
      </trkpt>
      <trkpt lat="41.2966530" lon="-4.9045190">
        <ele>721.3</ele>
        <time>2019-08-14T12:50:50Z</time>
      </trkpt>
      <trkpt lat="41.2966870" lon="-4.9045400">
        <ele>721.2</ele>
        <time>2019-08-14T12:50:51Z</time>
      </trkpt>
      <trkpt lat="41.2967210" lon="-4.9045610">
        <ele>721.1</ele>
        <time>2019-08-14T12:50:52Z</time>
      </trkpt>
      <trkpt lat="41.2967540" lon="-4.9045730">
        <ele>720.9</ele>
        <time>2019-08-14T12:50:53Z</time>
      </trkpt>
      <trkpt lat="41.2967870" lon="-4.9045720">
        <ele>720.8</ele>
        <time>2019-08-14T12:50:54Z</time>
      </trkpt>
      <trkpt lat="41.2968200" lon="-4.9045610">
        <ele>720.7</ele>
        <time>2019-08-14T12:50:55Z</time>
      </trkpt>
      <trkpt lat="41.2968490" lon="-4.9045440">
        <ele>720.6</ele>
        <time>2019-08-14T12:50:56Z</time>
      </trkpt>
      <trkpt lat="41.2968790" lon="-4.9045250">
        <ele>720.5</ele>
        <time>2019-08-14T12:50:57Z</time>
      </trkpt>
      <trkpt lat="41.2969110" lon="-4.9045080">
        <ele>720.4</ele>
        <time>2019-08-14T12:50:58Z</time>
      </trkpt>
      <trkpt lat="41.2969440" lon="-4.9044890">
        <ele>720.3</ele>
        <time>2019-08-14T12:50:59Z</time>
      </trkpt>
      <trkpt lat="41.2969800" lon="-4.9044700">
        <ele>720.1</ele>
        <time>2019-08-14T12:51:00Z</time>
      </trkpt>
      <trkpt lat="41.2970190" lon="-4.9044560">
        <ele>720.0</ele>
        <time>2019-08-14T12:51:01Z</time>
      </trkpt>
      <trkpt lat="41.2970600" lon="-4.9044490">
        <ele>719.9</ele>
        <time>2019-08-14T12:51:02Z</time>
      </trkpt>
      <trkpt lat="41.2971040" lon="-4.9044520">
        <ele>719.9</ele>
        <time>2019-08-14T12:51:03Z</time>
      </trkpt>
      <trkpt lat="41.2971490" lon="-4.9044630">
        <ele>719.9</ele>
        <time>2019-08-14T12:51:04Z</time>
      </trkpt>
      <trkpt lat="41.2971940" lon="-4.9044810">
        <ele>719.9</ele>
        <time>2019-08-14T12:51:05Z</time>
      </trkpt>
      <trkpt lat="41.2972400" lon="-4.9045060">
        <ele>719.9</ele>
        <time>2019-08-14T12:51:06Z</time>
      </trkpt>
      <trkpt lat="41.2972850" lon="-4.9045360">
        <ele>719.9</ele>
        <time>2019-08-14T12:51:07Z</time>
      </trkpt>
      <trkpt lat="41.2973310" lon="-4.9045680">
        <ele>719.9</ele>
        <time>2019-08-14T12:51:08Z</time>
      </trkpt>
      <trkpt lat="41.2973760" lon="-4.9046000">
        <ele>720.0</ele>
        <time>2019-08-14T12:51:09Z</time>
      </trkpt>
      <trkpt lat="41.2974190" lon="-4.9046350">
        <ele>720.0</ele>
        <time>2019-08-14T12:51:10Z</time>
      </trkpt>
      <trkpt lat="41.2974620" lon="-4.9046710">
        <ele>720.0</ele>
        <time>2019-08-14T12:51:11Z</time>
      </trkpt>
      <trkpt lat="41.2975040" lon="-4.9047050">
        <ele>720.0</ele>
        <time>2019-08-14T12:51:12Z</time>
      </trkpt>
      <trkpt lat="41.2975460" lon="-4.9047370">
        <ele>720.0</ele>
        <time>2019-08-14T12:51:13Z</time>
      </trkpt>
      <trkpt lat="41.2975860" lon="-4.9047660">
        <ele>720.0</ele>
        <time>2019-08-14T12:51:14Z</time>
      </trkpt>
      <trkpt lat="41.2976240" lon="-4.9047920">
        <ele>720.0</ele>
        <time>2019-08-14T12:51:15Z</time>
      </trkpt>
      <trkpt lat="41.2976610" lon="-4.9048160">
        <ele>720.0</ele>
        <time>2019-08-14T12:51:16Z</time>
      </trkpt>
      <trkpt lat="41.2976990" lon="-4.9048430">
        <ele>720.0</ele>
        <time>2019-08-14T12:51:17Z</time>
      </trkpt>
      <trkpt lat="41.2977360" lon="-4.9048720">
        <ele>720.0</ele>
        <time>2019-08-14T12:51:18Z</time>
      </trkpt>
      <trkpt lat="41.2977740" lon="-4.9049010">
        <ele>720.0</ele>
        <time>2019-08-14T12:51:19Z</time>
      </trkpt>
      <trkpt lat="41.2978140" lon="-4.9049290">
        <ele>720.0</ele>
        <time>2019-08-14T12:51:20Z</time>
      </trkpt>
      <trkpt lat="41.2978550" lon="-4.9049570">
        <ele>720.0</ele>
        <time>2019-08-14T12:51:21Z</time>
      </trkpt>
      <trkpt lat="41.2978950" lon="-4.9049860">
        <ele>720.0</ele>
        <time>2019-08-14T12:51:22Z</time>
      </trkpt>
      <trkpt lat="41.2979360" lon="-4.9050160">
        <ele>720.0</ele>
        <time>2019-08-14T12:51:23Z</time>
      </trkpt>
      <trkpt lat="41.2979770" lon="-4.9050450">
        <ele>720.1</ele>
        <time>2019-08-14T12:51:24Z</time>
      </trkpt>
      <trkpt lat="41.2980180" lon="-4.9050730">
        <ele>720.1</ele>
        <time>2019-08-14T12:51:25Z</time>
      </trkpt>
      <trkpt lat="41.2980610" lon="-4.9051020">
        <ele>720.1</ele>
        <time>2019-08-14T12:51:26Z</time>
      </trkpt>
      <trkpt lat="41.2981030" lon="-4.9051310">
        <ele>720.1</ele>
        <time>2019-08-14T12:51:27Z</time>
      </trkpt>
      <trkpt lat="41.2981450" lon="-4.9051600">
        <ele>720.1</ele>
        <time>2019-08-14T12:51:28Z</time>
      </trkpt>
      <trkpt lat="41.2981870" lon="-4.9051910">
        <ele>720.1</ele>
        <time>2019-08-14T12:51:29Z</time>
      </trkpt>
      <trkpt lat="41.2982300" lon="-4.9052210">
        <ele>720.1</ele>
        <time>2019-08-14T12:51:30Z</time>
      </trkpt>
      <trkpt lat="41.2982730" lon="-4.9052530">
        <ele>720.1</ele>
        <time>2019-08-14T12:51:31Z</time>
      </trkpt>
      <trkpt lat="41.2983170" lon="-4.9052850">
        <ele>720.1</ele>
        <time>2019-08-14T12:51:32Z</time>
      </trkpt>
      <trkpt lat="41.2983620" lon="-4.9053180">
        <ele>720.1</ele>
        <time>2019-08-14T12:51:33Z</time>
      </trkpt>
      <trkpt lat="41.2984080" lon="-4.9053510">
        <ele>720.1</ele>
        <time>2019-08-14T12:51:34Z</time>
      </trkpt>
      <trkpt lat="41.2984530" lon="-4.9053840">
        <ele>720.1</ele>
        <time>2019-08-14T12:51:35Z</time>
      </trkpt>
      <trkpt lat="41.2985000" lon="-4.9054180">
        <ele>720.1</ele>
        <time>2019-08-14T12:51:36Z</time>
      </trkpt>
      <trkpt lat="41.2985450" lon="-4.9054520">
        <ele>720.1</ele>
        <time>2019-08-14T12:51:37Z</time>
      </trkpt>
      <trkpt lat="41.2985900" lon="-4.9054850">
        <ele>720.1</ele>
        <time>2019-08-14T12:51:38Z</time>
      </trkpt>
      <trkpt lat="41.2986350" lon="-4.9055180">
        <ele>720.2</ele>
        <time>2019-08-14T12:51:39Z</time>
      </trkpt>
      <trkpt lat="41.2986790" lon="-4.9055490">
        <ele>720.2</ele>
        <time>2019-08-14T12:51:40Z</time>
      </trkpt>
      <trkpt lat="41.2987220" lon="-4.9055780">
        <ele>720.2</ele>
        <time>2019-08-14T12:51:41Z</time>
      </trkpt>
      <trkpt lat="41.2987650" lon="-4.9056060">
        <ele>720.2</ele>
        <time>2019-08-14T12:51:42Z</time>
      </trkpt>
      <trkpt lat="41.2988080" lon="-4.9056360">
        <ele>720.2</ele>
        <time>2019-08-14T12:51:43Z</time>
      </trkpt>
      <trkpt lat="41.2988510" lon="-4.9056660">
        <ele>720.2</ele>
        <time>2019-08-14T12:51:44Z</time>
      </trkpt>
      <trkpt lat="41.2988940" lon="-4.9056950">
        <ele>720.2</ele>
        <time>2019-08-14T12:51:45Z</time>
      </trkpt>
      <trkpt lat="41.2989370" lon="-4.9057270">
        <ele>720.2</ele>
        <time>2019-08-14T12:51:46Z</time>
      </trkpt>
      <trkpt lat="41.2989810" lon="-4.9057580">
        <ele>720.3</ele>
        <time>2019-08-14T12:51:47Z</time>
      </trkpt>
      <trkpt lat="41.2990250" lon="-4.9057900">
        <ele>720.3</ele>
        <time>2019-08-14T12:51:48Z</time>
      </trkpt>
      <trkpt lat="41.2990680" lon="-4.9058220">
        <ele>720.3</ele>
        <time>2019-08-14T12:51:49Z</time>
      </trkpt>
      <trkpt lat="41.2991120" lon="-4.9058540">
        <ele>720.3</ele>
        <time>2019-08-14T12:51:50Z</time>
      </trkpt>
      <trkpt lat="41.2991560" lon="-4.9058850">
        <ele>720.3</ele>
        <time>2019-08-14T12:51:51Z</time>
      </trkpt>
      <trkpt lat="41.2992000" lon="-4.9059150">
        <ele>720.3</ele>
        <time>2019-08-14T12:51:52Z</time>
      </trkpt>
      <trkpt lat="41.2992450" lon="-4.9059460">
        <ele>720.4</ele>
        <time>2019-08-14T12:51:53Z</time>
      </trkpt>
      <trkpt lat="41.2992900" lon="-4.9059770">
        <ele>720.4</ele>
        <time>2019-08-14T12:51:54Z</time>
      </trkpt>
      <trkpt lat="41.2993350" lon="-4.9060090">
        <ele>720.4</ele>
        <time>2019-08-14T12:51:55Z</time>
      </trkpt>
      <trkpt lat="41.2993780" lon="-4.9060420">
        <ele>720.4</ele>
        <time>2019-08-14T12:51:56Z</time>
      </trkpt>
      <trkpt lat="41.2994200" lon="-4.9060740">
        <ele>720.5</ele>
        <time>2019-08-14T12:51:57Z</time>
      </trkpt>
      <trkpt lat="41.2994610" lon="-4.9061070">
        <ele>720.5</ele>
        <time>2019-08-14T12:51:58Z</time>
      </trkpt>
      <trkpt lat="41.2995010" lon="-4.9061400">
        <ele>720.5</ele>
        <time>2019-08-14T12:51:59Z</time>
      </trkpt>
      <trkpt lat="41.2995390" lon="-4.9061720">
        <ele>720.5</ele>
        <time>2019-08-14T12:52:00Z</time>
      </trkpt>
      <trkpt lat="41.2995760" lon="-4.9062030">
        <ele>720.6</ele>
        <time>2019-08-14T12:52:01Z</time>
      </trkpt>
      <trkpt lat="41.2996110" lon="-4.9062320">
        <ele>720.6</ele>
        <time>2019-08-14T12:52:02Z</time>
      </trkpt>
      <trkpt lat="41.2996450" lon="-4.9062610">
        <ele>720.6</ele>
        <time>2019-08-14T12:52:03Z</time>
      </trkpt>
      <trkpt lat="41.2996800" lon="-4.9062900">
        <ele>720.7</ele>
        <time>2019-08-14T12:52:04Z</time>
      </trkpt>
      <trkpt lat="41.2997170" lon="-4.9063210">
        <ele>720.7</ele>
        <time>2019-08-14T12:52:05Z</time>
      </trkpt>
      <trkpt lat="41.2997540" lon="-4.9063580">
        <ele>720.7</ele>
        <time>2019-08-14T12:52:06Z</time>
      </trkpt>
      <trkpt lat="41.2997910" lon="-4.9063980">
        <ele>720.8</ele>
        <time>2019-08-14T12:52:07Z</time>
      </trkpt>
      <trkpt lat="41.2998300" lon="-4.9064370">
        <ele>720.8</ele>
        <time>2019-08-14T12:52:08Z</time>
      </trkpt>
      <trkpt lat="41.2998690" lon="-4.9064790">
        <ele>720.9</ele>
        <time>2019-08-14T12:52:09Z</time>
      </trkpt>
      <trkpt lat="41.2999070" lon="-4.9065200">
        <ele>720.9</ele>
        <time>2019-08-14T12:52:10Z</time>
      </trkpt>
      <trkpt lat="41.2999460" lon="-4.9065630">
        <ele>720.9</ele>
        <time>2019-08-14T12:52:11Z</time>
      </trkpt>
      <trkpt lat="41.2999870" lon="-4.9066030">
        <ele>721.0</ele>
        <time>2019-08-14T12:52:12Z</time>
      </trkpt>
      <trkpt lat="41.3000270" lon="-4.9066440">
        <ele>720.9</ele>
        <time>2019-08-14T12:52:13Z</time>
      </trkpt>
      <trkpt lat="41.3000670" lon="-4.9066860">
        <ele>720.9</ele>
        <time>2019-08-14T12:52:14Z</time>
      </trkpt>
      <trkpt lat="41.3001070" lon="-4.9067270">
        <ele>720.9</ele>
        <time>2019-08-14T12:52:15Z</time>
      </trkpt>
      <trkpt lat="41.3001460" lon="-4.9067690">
        <ele>720.9</ele>
        <time>2019-08-14T12:52:16Z</time>
      </trkpt>
      <trkpt lat="41.3001860" lon="-4.9068120">
        <ele>720.9</ele>
        <time>2019-08-14T12:52:17Z</time>
      </trkpt>
      <trkpt lat="41.3002250" lon="-4.9068540">
        <ele>720.9</ele>
        <time>2019-08-14T12:52:18Z</time>
      </trkpt>
      <trkpt lat="41.3002640" lon="-4.9068960">
        <ele>720.9</ele>
        <time>2019-08-14T12:52:19Z</time>
      </trkpt>
      <trkpt lat="41.3003020" lon="-4.9069360">
        <ele>720.9</ele>
        <time>2019-08-14T12:52:20Z</time>
      </trkpt>
      <trkpt lat="41.3003390" lon="-4.9069770">
        <ele>720.9</ele>
        <time>2019-08-14T12:52:21Z</time>
      </trkpt>
      <trkpt lat="41.3003730" lon="-4.9070130">
        <ele>721.0</ele>
        <time>2019-08-14T12:52:22Z</time>
      </trkpt>
      <trkpt lat="41.3004060" lon="-4.9070490">
        <ele>721.0</ele>
        <time>2019-08-14T12:52:23Z</time>
      </trkpt>
      <trkpt lat="41.3004380" lon="-4.9070840">
        <ele>721.0</ele>
        <time>2019-08-14T12:52:24Z</time>
      </trkpt>
      <trkpt lat="41.3004690" lon="-4.9071180">
        <ele>721.0</ele>
        <time>2019-08-14T12:52:25Z</time>
      </trkpt>
      <trkpt lat="41.3005000" lon="-4.9071500">
        <ele>721.0</ele>
        <time>2019-08-14T12:52:26Z</time>
      </trkpt>
      <trkpt lat="41.3005300" lon="-4.9071850">
        <ele>721.1</ele>
        <time>2019-08-14T12:52:27Z</time>
      </trkpt>
      <trkpt lat="41.3005630" lon="-4.9072180">
        <ele>721.2</ele>
        <time>2019-08-14T12:52:28Z</time>
      </trkpt>
      <trkpt lat="41.3005950" lon="-4.9072490">
        <ele>721.2</ele>
        <time>2019-08-14T12:52:29Z</time>
      </trkpt>
      <trkpt lat="41.3006260" lon="-4.9072810">
        <ele>721.4</ele>
        <time>2019-08-14T12:52:30Z</time>
      </trkpt>
      <trkpt lat="41.3006560" lon="-4.9073150">
        <ele>721.5</ele>
        <time>2019-08-14T12:52:31Z</time>
      </trkpt>
      <trkpt lat="41.3006850" lon="-4.9073480">
        <ele>721.7</ele>
        <time>2019-08-14T12:52:32Z</time>
      </trkpt>
      <trkpt lat="41.3007140" lon="-4.9073800">
        <ele>721.8</ele>
        <time>2019-08-14T12:52:33Z</time>
      </trkpt>
      <trkpt lat="41.3007430" lon="-4.9074140">
        <ele>721.9</ele>
        <time>2019-08-14T12:52:34Z</time>
      </trkpt>
      <trkpt lat="41.3007730" lon="-4.9074470">
        <ele>722.1</ele>
        <time>2019-08-14T12:52:35Z</time>
      </trkpt>
      <trkpt lat="41.3008030" lon="-4.9074790">
        <ele>722.1</ele>
        <time>2019-08-14T12:52:36Z</time>
      </trkpt>
      <trkpt lat="41.3008340" lon="-4.9075140">
        <ele>722.2</ele>
        <time>2019-08-14T12:52:37Z</time>
      </trkpt>
      <trkpt lat="41.3008660" lon="-4.9075490">
        <ele>722.3</ele>
        <time>2019-08-14T12:52:38Z</time>
      </trkpt>
      <trkpt lat="41.3008960" lon="-4.9075830">
        <ele>722.4</ele>
        <time>2019-08-14T12:52:39Z</time>
      </trkpt>
      <trkpt lat="41.3009270" lon="-4.9076180">
        <ele>722.5</ele>
        <time>2019-08-14T12:52:40Z</time>
      </trkpt>
      <trkpt lat="41.3009580" lon="-4.9076510">
        <ele>722.6</ele>
        <time>2019-08-14T12:52:41Z</time>
      </trkpt>
      <trkpt lat="41.3009880" lon="-4.9076840">
        <ele>722.7</ele>
        <time>2019-08-14T12:52:42Z</time>
      </trkpt>
      <trkpt lat="41.3010190" lon="-4.9077180">
        <ele>722.8</ele>
        <time>2019-08-14T12:52:43Z</time>
      </trkpt>
      <trkpt lat="41.3010480" lon="-4.9077510">
        <ele>722.9</ele>
        <time>2019-08-14T12:52:44Z</time>
      </trkpt>
      <trkpt lat="41.3010780" lon="-4.9077840">
        <ele>723.1</ele>
        <time>2019-08-14T12:52:45Z</time>
      </trkpt>
      <trkpt lat="41.3011080" lon="-4.9078180">
        <ele>723.1</ele>
        <time>2019-08-14T12:52:46Z</time>
      </trkpt>
      <trkpt lat="41.3011380" lon="-4.9078520">
        <ele>723.2</ele>
        <time>2019-08-14T12:52:47Z</time>
      </trkpt>
      <trkpt lat="41.3011680" lon="-4.9078870">
        <ele>723.3</ele>
        <time>2019-08-14T12:52:48Z</time>
      </trkpt>
      <trkpt lat="41.3011990" lon="-4.9079220">
        <ele>723.3</ele>
        <time>2019-08-14T12:52:49Z</time>
      </trkpt>
      <trkpt lat="41.3012300" lon="-4.9079570">
        <ele>723.3</ele>
        <time>2019-08-14T12:52:50Z</time>
      </trkpt>
      <trkpt lat="41.3012610" lon="-4.9079910">
        <ele>723.3</ele>
        <time>2019-08-14T12:52:51Z</time>
      </trkpt>
      <trkpt lat="41.3012920" lon="-4.9080280">
        <ele>723.3</ele>
        <time>2019-08-14T12:52:52Z</time>
      </trkpt>
      <trkpt lat="41.3013230" lon="-4.9080630">
        <ele>723.3</ele>
        <time>2019-08-14T12:52:53Z</time>
      </trkpt>
      <trkpt lat="41.3013550" lon="-4.9080980">
        <ele>723.3</ele>
        <time>2019-08-14T12:52:54Z</time>
      </trkpt>
      <trkpt lat="41.3013870" lon="-4.9081330">
        <ele>723.3</ele>
        <time>2019-08-14T12:52:55Z</time>
      </trkpt>
      <trkpt lat="41.3014170" lon="-4.9081700">
        <ele>723.2</ele>
        <time>2019-08-14T12:52:56Z</time>
      </trkpt>
      <trkpt lat="41.3014480" lon="-4.9082050">
        <ele>723.1</ele>
        <time>2019-08-14T12:52:57Z</time>
      </trkpt>
      <trkpt lat="41.3014790" lon="-4.9082400">
        <ele>723.1</ele>
        <time>2019-08-14T12:52:58Z</time>
      </trkpt>
      <trkpt lat="41.3015100" lon="-4.9082760">
        <ele>723.0</ele>
        <time>2019-08-14T12:52:59Z</time>
      </trkpt>
      <trkpt lat="41.3015400" lon="-4.9083090">
        <ele>723.0</ele>
        <time>2019-08-14T12:53:00Z</time>
      </trkpt>
      <trkpt lat="41.3015700" lon="-4.9083420">
        <ele>722.9</ele>
        <time>2019-08-14T12:53:01Z</time>
      </trkpt>
      <trkpt lat="41.3016000" lon="-4.9083750">
        <ele>722.8</ele>
        <time>2019-08-14T12:53:02Z</time>
      </trkpt>
      <trkpt lat="41.3016310" lon="-4.9084080">
        <ele>722.8</ele>
        <time>2019-08-14T12:53:03Z</time>
      </trkpt>
      <trkpt lat="41.3016610" lon="-4.9084400">
        <ele>722.8</ele>
        <time>2019-08-14T12:53:04Z</time>
      </trkpt>
      <trkpt lat="41.3016890" lon="-4.9084710">
        <ele>722.8</ele>
        <time>2019-08-14T12:53:05Z</time>
      </trkpt>
      <trkpt lat="41.3017170" lon="-4.9085000">
        <ele>722.7</ele>
        <time>2019-08-14T12:53:06Z</time>
      </trkpt>
      <trkpt lat="41.3017460" lon="-4.9085320">
        <ele>722.7</ele>
        <time>2019-08-14T12:53:07Z</time>
      </trkpt>
      <trkpt lat="41.3017760" lon="-4.9085650">
        <ele>722.6</ele>
        <time>2019-08-14T12:53:08Z</time>
      </trkpt>
      <trkpt lat="41.3018060" lon="-4.9086020">
        <ele>722.6</ele>
        <time>2019-08-14T12:53:09Z</time>
      </trkpt>
      <trkpt lat="41.3018370" lon="-4.9086370">
        <ele>722.5</ele>
        <time>2019-08-14T12:53:10Z</time>
      </trkpt>
      <trkpt lat="41.3018700" lon="-4.9086730">
        <ele>722.5</ele>
        <time>2019-08-14T12:53:11Z</time>
      </trkpt>
      <trkpt lat="41.3019020" lon="-4.9087080">
        <ele>722.5</ele>
        <time>2019-08-14T12:53:12Z</time>
      </trkpt>
      <trkpt lat="41.3019350" lon="-4.9087450">
        <ele>722.4</ele>
        <time>2019-08-14T12:53:13Z</time>
      </trkpt>
      <trkpt lat="41.3019680" lon="-4.9087820">
        <ele>722.4</ele>
        <time>2019-08-14T12:53:14Z</time>
      </trkpt>
      <trkpt lat="41.3020010" lon="-4.9088190">
        <ele>722.3</ele>
        <time>2019-08-14T12:53:15Z</time>
      </trkpt>
      <trkpt lat="41.3020330" lon="-4.9088560">
        <ele>722.3</ele>
        <time>2019-08-14T12:53:16Z</time>
      </trkpt>
      <trkpt lat="41.3020640" lon="-4.9088920">
        <ele>722.2</ele>
        <time>2019-08-14T12:53:17Z</time>
      </trkpt>
      <trkpt lat="41.3020940" lon="-4.9089240">
        <ele>722.2</ele>
        <time>2019-08-14T12:53:18Z</time>
      </trkpt>
      <trkpt lat="41.3021230" lon="-4.9089560">
        <ele>722.1</ele>
        <time>2019-08-14T12:53:19Z</time>
      </trkpt>
      <trkpt lat="41.3021500" lon="-4.9089850">
        <ele>722.1</ele>
        <time>2019-08-14T12:53:20Z</time>
      </trkpt>
      <trkpt lat="41.3021750" lon="-4.9090130">
        <ele>722.1</ele>
        <time>2019-08-14T12:53:21Z</time>
      </trkpt>
      <trkpt lat="41.3022000" lon="-4.9090400">
        <ele>722.0</ele>
        <time>2019-08-14T12:53:22Z</time>
      </trkpt>
      <trkpt lat="41.3022260" lon="-4.9090670">
        <ele>722.0</ele>
        <time>2019-08-14T12:53:23Z</time>
      </trkpt>
      <trkpt lat="41.3022540" lon="-4.9090940">
        <ele>722.0</ele>
        <time>2019-08-14T12:53:24Z</time>
      </trkpt>
      <trkpt lat="41.3022820" lon="-4.9091270">
        <ele>722.1</ele>
        <time>2019-08-14T12:53:25Z</time>
      </trkpt>
      <trkpt lat="41.3023100" lon="-4.9091620">
        <ele>722.1</ele>
        <time>2019-08-14T12:53:26Z</time>
      </trkpt>
      <trkpt lat="41.3023400" lon="-4.9091980">
        <ele>722.2</ele>
        <time>2019-08-14T12:53:27Z</time>
      </trkpt>
      <trkpt lat="41.3023710" lon="-4.9092340">
        <ele>722.2</ele>
        <time>2019-08-14T12:53:28Z</time>
      </trkpt>
      <trkpt lat="41.3024040" lon="-4.9092690">
        <ele>722.3</ele>
        <time>2019-08-14T12:53:29Z</time>
      </trkpt>
      <trkpt lat="41.3024380" lon="-4.9093060">
        <ele>722.3</ele>
        <time>2019-08-14T12:53:30Z</time>
      </trkpt>
      <trkpt lat="41.3024720" lon="-4.9093430">
        <ele>722.3</ele>
        <time>2019-08-14T12:53:31Z</time>
      </trkpt>
      <trkpt lat="41.3025070" lon="-4.9093810">
        <ele>722.4</ele>
        <time>2019-08-14T12:53:32Z</time>
      </trkpt>
      <trkpt lat="41.3025430" lon="-4.9094190">
        <ele>722.4</ele>
        <time>2019-08-14T12:53:33Z</time>
      </trkpt>
      <trkpt lat="41.3025810" lon="-4.9094570">
        <ele>722.4</ele>
        <time>2019-08-14T12:53:34Z</time>
      </trkpt>
      <trkpt lat="41.3026190" lon="-4.9094950">
        <ele>722.5</ele>
        <time>2019-08-14T12:53:35Z</time>
      </trkpt>
      <trkpt lat="41.3026600" lon="-4.9095340">
        <ele>722.5</ele>
        <time>2019-08-14T12:53:36Z</time>
      </trkpt>
      <trkpt lat="41.3027020" lon="-4.9095720">
        <ele>722.5</ele>
        <time>2019-08-14T12:53:37Z</time>
      </trkpt>
      <trkpt lat="41.3027450" lon="-4.9096120">
        <ele>722.5</ele>
        <time>2019-08-14T12:53:38Z</time>
      </trkpt>
      <trkpt lat="41.3027900" lon="-4.9096490">
        <ele>722.5</ele>
        <time>2019-08-14T12:53:39Z</time>
      </trkpt>
      <trkpt lat="41.3028340" lon="-4.9096860">
        <ele>722.6</ele>
        <time>2019-08-14T12:53:40Z</time>
      </trkpt>
      <trkpt lat="41.3028800" lon="-4.9097220">
        <ele>722.6</ele>
        <time>2019-08-14T12:53:41Z</time>
      </trkpt>
      <trkpt lat="41.3029260" lon="-4.9097590">
        <ele>722.6</ele>
        <time>2019-08-14T12:53:42Z</time>
      </trkpt>
      <trkpt lat="41.3029730" lon="-4.9097920">
        <ele>722.5</ele>
        <time>2019-08-14T12:53:43Z</time>
      </trkpt>
      <trkpt lat="41.3030210" lon="-4.9098250">
        <ele>722.3</ele>
        <time>2019-08-14T12:53:44Z</time>
      </trkpt>
      <trkpt lat="41.3030690" lon="-4.9098580">
        <ele>722.2</ele>
        <time>2019-08-14T12:53:45Z</time>
      </trkpt>
      <trkpt lat="41.3031160" lon="-4.9098900">
        <ele>722.0</ele>
        <time>2019-08-14T12:53:46Z</time>
      </trkpt>
      <trkpt lat="41.3031640" lon="-4.9099200">
        <ele>721.9</ele>
        <time>2019-08-14T12:53:47Z</time>
      </trkpt>
      <trkpt lat="41.3032130" lon="-4.9099500">
        <ele>721.7</ele>
        <time>2019-08-14T12:53:48Z</time>
      </trkpt>
      <trkpt lat="41.3032630" lon="-4.9099780">
        <ele>721.5</ele>
        <time>2019-08-14T12:53:49Z</time>
      </trkpt>
      <trkpt lat="41.3033080" lon="-4.9100050">
        <ele>721.3</ele>
        <time>2019-08-14T12:53:50Z</time>
      </trkpt>
      <trkpt lat="41.3033510" lon="-4.9100290">
        <ele>721.2</ele>
        <time>2019-08-14T12:53:51Z</time>
      </trkpt>
      <trkpt lat="41.3033920" lon="-4.9100500">
        <ele>721.2</ele>
        <time>2019-08-14T12:53:52Z</time>
      </trkpt>
      <trkpt lat="41.3034300" lon="-4.9100700">
        <ele>721.1</ele>
        <time>2019-08-14T12:53:53Z</time>
      </trkpt>
      <trkpt lat="41.3034680" lon="-4.9100890">
        <ele>721.1</ele>
        <time>2019-08-14T12:53:54Z</time>
      </trkpt>
      <trkpt lat="41.3035050" lon="-4.9101090">
        <ele>721.0</ele>
        <time>2019-08-14T12:53:55Z</time>
      </trkpt>
      <trkpt lat="41.3035420" lon="-4.9101280">
        <ele>721.0</ele>
        <time>2019-08-14T12:53:56Z</time>
      </trkpt>
      <trkpt lat="41.3035800" lon="-4.9101480">
        <ele>721.0</ele>
        <time>2019-08-14T12:53:57Z</time>
      </trkpt>
      <trkpt lat="41.3036170" lon="-4.9101670">
        <ele>721.0</ele>
        <time>2019-08-14T12:53:58Z</time>
      </trkpt>
      <trkpt lat="41.3036540" lon="-4.9101840">
        <ele>720.9</ele>
        <time>2019-08-14T12:53:59Z</time>
      </trkpt>
      <trkpt lat="41.3036910" lon="-4.9102040">
        <ele>720.9</ele>
        <time>2019-08-14T12:54:00Z</time>
      </trkpt>
      <trkpt lat="41.3037300" lon="-4.9102240">
        <ele>720.9</ele>
        <time>2019-08-14T12:54:01Z</time>
      </trkpt>
      <trkpt lat="41.3037710" lon="-4.9102450">
        <ele>720.8</ele>
        <time>2019-08-14T12:54:02Z</time>
      </trkpt>
      <trkpt lat="41.3038140" lon="-4.9102670">
        <ele>720.7</ele>
        <time>2019-08-14T12:54:03Z</time>
      </trkpt>
      <trkpt lat="41.3038590" lon="-4.9102910">
        <ele>720.6</ele>
        <time>2019-08-14T12:54:04Z</time>
      </trkpt>
      <trkpt lat="41.3039040" lon="-4.9103160">
        <ele>720.6</ele>
        <time>2019-08-14T12:54:05Z</time>
      </trkpt>
      <trkpt lat="41.3039490" lon="-4.9103420">
        <ele>720.6</ele>
        <time>2019-08-14T12:54:06Z</time>
      </trkpt>
      <trkpt lat="41.3039940" lon="-4.9103660">
        <ele>720.7</ele>
        <time>2019-08-14T12:54:07Z</time>
      </trkpt>
      <trkpt lat="41.3040380" lon="-4.9103890">
        <ele>720.8</ele>
        <time>2019-08-14T12:54:08Z</time>
      </trkpt>
      <trkpt lat="41.3040820" lon="-4.9104120">
        <ele>720.9</ele>
        <time>2019-08-14T12:54:09Z</time>
      </trkpt>
      <trkpt lat="41.3041270" lon="-4.9104370">
        <ele>721.0</ele>
        <time>2019-08-14T12:54:10Z</time>
      </trkpt>
      <trkpt lat="41.3041710" lon="-4.9104610">
        <ele>721.1</ele>
        <time>2019-08-14T12:54:11Z</time>
      </trkpt>
      <trkpt lat="41.3042150" lon="-4.9104860">
        <ele>721.2</ele>
        <time>2019-08-14T12:54:12Z</time>
      </trkpt>
      <trkpt lat="41.3042570" lon="-4.9105100">
        <ele>721.3</ele>
        <time>2019-08-14T12:54:13Z</time>
      </trkpt>
      <trkpt lat="41.3042990" lon="-4.9105340">
        <ele>721.4</ele>
        <time>2019-08-14T12:54:14Z</time>
      </trkpt>
      <trkpt lat="41.3043410" lon="-4.9105560">
        <ele>721.5</ele>
        <time>2019-08-14T12:54:15Z</time>
      </trkpt>
      <trkpt lat="41.3043830" lon="-4.9105780">
        <ele>721.6</ele>
        <time>2019-08-14T12:54:16Z</time>
      </trkpt>
      <trkpt lat="41.3044260" lon="-4.9105990">
        <ele>721.6</ele>
        <time>2019-08-14T12:54:17Z</time>
      </trkpt>
      <trkpt lat="41.3044660" lon="-4.9106220">
        <ele>721.7</ele>
        <time>2019-08-14T12:54:18Z</time>
      </trkpt>
      <trkpt lat="41.3045040" lon="-4.9106440">
        <ele>721.7</ele>
        <time>2019-08-14T12:54:19Z</time>
      </trkpt>
      <trkpt lat="41.3045430" lon="-4.9106640">
        <ele>721.8</ele>
        <time>2019-08-14T12:54:20Z</time>
      </trkpt>
      <trkpt lat="41.3045840" lon="-4.9106850">
        <ele>721.8</ele>
        <time>2019-08-14T12:54:21Z</time>
      </trkpt>
      <trkpt lat="41.3046230" lon="-4.9107060">
        <ele>721.9</ele>
        <time>2019-08-14T12:54:22Z</time>
      </trkpt>
      <trkpt lat="41.3046610" lon="-4.9107260">
        <ele>721.9</ele>
        <time>2019-08-14T12:54:23Z</time>
      </trkpt>
      <trkpt lat="41.3047010" lon="-4.9107450">
        <ele>721.9</ele>
        <time>2019-08-14T12:54:24Z</time>
      </trkpt>
      <trkpt lat="41.3047410" lon="-4.9107620">
        <ele>722.0</ele>
        <time>2019-08-14T12:54:25Z</time>
      </trkpt>
      <trkpt lat="41.3047800" lon="-4.9107800">
        <ele>722.0</ele>
        <time>2019-08-14T12:54:26Z</time>
      </trkpt>
      <trkpt lat="41.3048190" lon="-4.9107950">
        <ele>722.1</ele>
        <time>2019-08-14T12:54:27Z</time>
      </trkpt>
      <trkpt lat="41.3048600" lon="-4.9108060">
        <ele>722.2</ele>
        <time>2019-08-14T12:54:28Z</time>
      </trkpt>
      <trkpt lat="41.3048990" lon="-4.9108110">
        <ele>722.3</ele>
        <time>2019-08-14T12:54:29Z</time>
      </trkpt>
      <trkpt lat="41.3049390" lon="-4.9108160">
        <ele>722.4</ele>
        <time>2019-08-14T12:54:30Z</time>
      </trkpt>
      <trkpt lat="41.3049780" lon="-4.9108200">
        <ele>722.5</ele>
        <time>2019-08-14T12:54:31Z</time>
      </trkpt>
      <trkpt lat="41.3050180" lon="-4.9108220">
        <ele>722.5</ele>
        <time>2019-08-14T12:54:32Z</time>
      </trkpt>
      <trkpt lat="41.3050570" lon="-4.9108240">
        <ele>722.5</ele>
        <time>2019-08-14T12:54:33Z</time>
      </trkpt>
      <trkpt lat="41.3050960" lon="-4.9108230">
        <ele>722.5</ele>
        <time>2019-08-14T12:54:34Z</time>
      </trkpt>
      <trkpt lat="41.3051350" lon="-4.9108190">
        <ele>722.6</ele>
        <time>2019-08-14T12:54:35Z</time>
      </trkpt>
      <trkpt lat="41.3051740" lon="-4.9108170">
        <ele>722.6</ele>
        <time>2019-08-14T12:54:36Z</time>
      </trkpt>
      <trkpt lat="41.3052110" lon="-4.9108140">
        <ele>722.7</ele>
        <time>2019-08-14T12:54:37Z</time>
      </trkpt>
      <trkpt lat="41.3052480" lon="-4.9108110">
        <ele>722.8</ele>
        <time>2019-08-14T12:54:38Z</time>
      </trkpt>
      <trkpt lat="41.3052850" lon="-4.9108050">
        <ele>722.9</ele>
        <time>2019-08-14T12:54:39Z</time>
      </trkpt>
      <trkpt lat="41.3053180" lon="-4.9108020">
        <ele>723.0</ele>
        <time>2019-08-14T12:54:40Z</time>
      </trkpt>
      <trkpt lat="41.3053500" lon="-4.9107990">
        <ele>723.1</ele>
        <time>2019-08-14T12:54:41Z</time>
      </trkpt>
      <trkpt lat="41.3053810" lon="-4.9107950">
        <ele>723.1</ele>
        <time>2019-08-14T12:54:42Z</time>
      </trkpt>
      <trkpt lat="41.3054130" lon="-4.9107910">
        <ele>723.3</ele>
        <time>2019-08-14T12:54:43Z</time>
      </trkpt>
      <trkpt lat="41.3054410" lon="-4.9107790">
        <ele>723.3</ele>
        <time>2019-08-14T12:54:44Z</time>
      </trkpt>
      <trkpt lat="41.3054670" lon="-4.9107620">
        <ele>723.3</ele>
        <time>2019-08-14T12:54:45Z</time>
      </trkpt>
      <trkpt lat="41.3054940" lon="-4.9107450">
        <ele>723.3</ele>
        <time>2019-08-14T12:54:46Z</time>
      </trkpt>
      <trkpt lat="41.3055230" lon="-4.9107360">
        <ele>723.4</ele>
        <time>2019-08-14T12:54:47Z</time>
      </trkpt>
      <trkpt lat="41.3055520" lon="-4.9107350">
        <ele>723.4</ele>
        <time>2019-08-14T12:54:48Z</time>
      </trkpt>
      <trkpt lat="41.3055930" lon="-4.9107520">
        <ele>723.4</ele>
        <time>2019-08-14T12:54:50Z</time>
      </trkpt>
      <trkpt lat="41.3056150" lon="-4.9108030">
        <ele>723.5</ele>
        <time>2019-08-14T12:54:52Z</time>
      </trkpt>
      <trkpt lat="41.3056030" lon="-4.9108380">
        <ele>723.5</ele>
        <time>2019-08-14T12:54:53Z</time>
      </trkpt>
      <trkpt lat="41.3055790" lon="-4.9108700">
        <ele>723.5</ele>
        <time>2019-08-14T12:54:54Z</time>
      </trkpt>
      <trkpt lat="41.3055500" lon="-4.9108980">
        <ele>723.6</ele>
        <time>2019-08-14T12:54:55Z</time>
      </trkpt>
      <trkpt lat="41.3055210" lon="-4.9109300">
        <ele>723.7</ele>
        <time>2019-08-14T12:54:56Z</time>
      </trkpt>
      <trkpt lat="41.3054940" lon="-4.9109660">
        <ele>723.8</ele>
        <time>2019-08-14T12:54:57Z</time>
      </trkpt>
      <trkpt lat="41.3054680" lon="-4.9110040">
        <ele>723.9</ele>
        <time>2019-08-14T12:54:58Z</time>
      </trkpt>
      <trkpt lat="41.3054460" lon="-4.9110440">
        <ele>723.9</ele>
        <time>2019-08-14T12:54:59Z</time>
      </trkpt>
      <trkpt lat="41.3054410" lon="-4.9110870">
        <ele>723.9</ele>
        <time>2019-08-14T12:55:00Z</time>
      </trkpt>
      <trkpt lat="41.3054540" lon="-4.9111310">
        <ele>724.1</ele>
        <time>2019-08-14T12:55:01Z</time>
      </trkpt>
      <trkpt lat="41.3054780" lon="-4.9111690">
        <ele>724.1</ele>
        <time>2019-08-14T12:55:02Z</time>
      </trkpt>
      <trkpt lat="41.3055080" lon="-4.9112060">
        <ele>724.2</ele>
        <time>2019-08-14T12:55:03Z</time>
      </trkpt>
      <trkpt lat="41.3055390" lon="-4.9112440">
        <ele>724.3</ele>
        <time>2019-08-14T12:55:04Z</time>
      </trkpt>
      <trkpt lat="41.3055720" lon="-4.9112830">
        <ele>724.4</ele>
        <time>2019-08-14T12:55:05Z</time>
      </trkpt>
      <trkpt lat="41.3056050" lon="-4.9113230">
        <ele>724.5</ele>
        <time>2019-08-14T12:55:06Z</time>
      </trkpt>
      <trkpt lat="41.3056380" lon="-4.9113630">
        <ele>724.6</ele>
        <time>2019-08-14T12:55:07Z</time>
      </trkpt>
      <trkpt lat="41.3056700" lon="-4.9114040">
        <ele>724.7</ele>
        <time>2019-08-14T12:55:08Z</time>
      </trkpt>
      <trkpt lat="41.3057000" lon="-4.9114460">
        <ele>724.8</ele>
        <time>2019-08-14T12:55:09Z</time>
      </trkpt>
      <trkpt lat="41.3057310" lon="-4.9114850">
        <ele>724.8</ele>
        <time>2019-08-14T12:55:10Z</time>
      </trkpt>
      <trkpt lat="41.3057600" lon="-4.9115200">
        <ele>724.9</ele>
        <time>2019-08-14T12:55:11Z</time>
      </trkpt>
      <trkpt lat="41.3057870" lon="-4.9115590">
        <ele>724.9</ele>
        <time>2019-08-14T12:55:12Z</time>
      </trkpt>
      <trkpt lat="41.3058110" lon="-4.9115950">
        <ele>724.9</ele>
        <time>2019-08-14T12:55:13Z</time>
      </trkpt>
      <trkpt lat="41.3058350" lon="-4.9116280">
        <ele>725.0</ele>
        <time>2019-08-14T12:55:14Z</time>
      </trkpt>
      <trkpt lat="41.3058570" lon="-4.9116630">
        <ele>725.0</ele>
        <time>2019-08-14T12:55:15Z</time>
      </trkpt>
      <trkpt lat="41.3058810" lon="-4.9116950">
        <ele>725.0</ele>
        <time>2019-08-14T12:55:16Z</time>
      </trkpt>
      <trkpt lat="41.3059030" lon="-4.9117250">
        <ele>725.0</ele>
        <time>2019-08-14T12:55:17Z</time>
      </trkpt>
      <trkpt lat="41.3059210" lon="-4.9117550">
        <ele>725.0</ele>
        <time>2019-08-14T12:55:18Z</time>
      </trkpt>
      <trkpt lat="41.3059420" lon="-4.9117850">
        <ele>725.0</ele>
        <time>2019-08-14T12:55:19Z</time>
      </trkpt>
      <trkpt lat="41.3059640" lon="-4.9118160">
        <ele>725.0</ele>
        <time>2019-08-14T12:55:20Z</time>
      </trkpt>
      <trkpt lat="41.3059880" lon="-4.9118480">
        <ele>725.1</ele>
        <time>2019-08-14T12:55:21Z</time>
      </trkpt>
      <trkpt lat="41.3060140" lon="-4.9118810">
        <ele>725.1</ele>
        <time>2019-08-14T12:55:22Z</time>
      </trkpt>
      <trkpt lat="41.3060390" lon="-4.9119170">
        <ele>725.1</ele>
        <time>2019-08-14T12:55:23Z</time>
      </trkpt>
      <trkpt lat="41.3060650" lon="-4.9119510">
        <ele>725.1</ele>
        <time>2019-08-14T12:55:24Z</time>
      </trkpt>
      <trkpt lat="41.3060910" lon="-4.9119880">
        <ele>725.1</ele>
        <time>2019-08-14T12:55:25Z</time>
      </trkpt>
      <trkpt lat="41.3061190" lon="-4.9120230">
        <ele>725.1</ele>
        <time>2019-08-14T12:55:26Z</time>
      </trkpt>
      <trkpt lat="41.3061460" lon="-4.9120600">
        <ele>725.1</ele>
        <time>2019-08-14T12:55:27Z</time>
      </trkpt>
      <trkpt lat="41.3061740" lon="-4.9120940">
        <ele>725.1</ele>
        <time>2019-08-14T12:55:28Z</time>
      </trkpt>
      <trkpt lat="41.3062020" lon="-4.9121260">
        <ele>725.1</ele>
        <time>2019-08-14T12:55:29Z</time>
      </trkpt>
      <trkpt lat="41.3062280" lon="-4.9121600">
        <ele>725.1</ele>
        <time>2019-08-14T12:55:30Z</time>
      </trkpt>
      <trkpt lat="41.3062560" lon="-4.9121920">
        <ele>725.1</ele>
        <time>2019-08-14T12:55:31Z</time>
      </trkpt>
      <trkpt lat="41.3062840" lon="-4.9122220">
        <ele>725.1</ele>
        <time>2019-08-14T12:55:32Z</time>
      </trkpt>
      <trkpt lat="41.3063110" lon="-4.9122530">
        <ele>725.1</ele>
        <time>2019-08-14T12:55:33Z</time>
      </trkpt>
      <trkpt lat="41.3063360" lon="-4.9122860">
        <ele>725.1</ele>
        <time>2019-08-14T12:55:34Z</time>
      </trkpt>
      <trkpt lat="41.3063650" lon="-4.9123180">
        <ele>725.1</ele>
        <time>2019-08-14T12:55:35Z</time>
      </trkpt>
      <trkpt lat="41.3063930" lon="-4.9123500">
        <ele>725.1</ele>
        <time>2019-08-14T12:55:36Z</time>
      </trkpt>
      <trkpt lat="41.3064180" lon="-4.9123820">
        <ele>725.1</ele>
        <time>2019-08-14T12:55:37Z</time>
      </trkpt>
      <trkpt lat="41.3064410" lon="-4.9124160">
        <ele>725.1</ele>
        <time>2019-08-14T12:55:38Z</time>
      </trkpt>
      <trkpt lat="41.3064660" lon="-4.9124490">
        <ele>725.1</ele>
        <time>2019-08-14T12:55:39Z</time>
      </trkpt>
      <trkpt lat="41.3064860" lon="-4.9124850">
        <ele>725.2</ele>
        <time>2019-08-14T12:55:40Z</time>
      </trkpt>
      <trkpt lat="41.3065100" lon="-4.9125140">
        <ele>725.2</ele>
        <time>2019-08-14T12:55:41Z</time>
      </trkpt>
      <trkpt lat="41.3065310" lon="-4.9125460">
        <ele>725.2</ele>
        <time>2019-08-14T12:55:42Z</time>
      </trkpt>
      <trkpt lat="41.3065540" lon="-4.9125730">
        <ele>725.2</ele>
        <time>2019-08-14T12:55:43Z</time>
      </trkpt>
      <trkpt lat="41.3065760" lon="-4.9126020">
        <ele>725.2</ele>
        <time>2019-08-14T12:55:44Z</time>
      </trkpt>
      <trkpt lat="41.3065990" lon="-4.9126320">
        <ele>725.2</ele>
        <time>2019-08-14T12:55:45Z</time>
      </trkpt>
      <trkpt lat="41.3066220" lon="-4.9126600">
        <ele>725.2</ele>
        <time>2019-08-14T12:55:46Z</time>
      </trkpt>
      <trkpt lat="41.3066450" lon="-4.9126890">
        <ele>725.2</ele>
        <time>2019-08-14T12:55:47Z</time>
      </trkpt>
      <trkpt lat="41.3066670" lon="-4.9127180">
        <ele>725.2</ele>
        <time>2019-08-14T12:55:48Z</time>
      </trkpt>
      <trkpt lat="41.3066980" lon="-4.9127370">
        <ele>725.2</ele>
        <time>2019-08-14T12:55:49Z</time>
      </trkpt>
      <trkpt lat="41.3067270" lon="-4.9127580">
        <ele>725.2</ele>
        <time>2019-08-14T12:55:50Z</time>
      </trkpt>
      <trkpt lat="41.3067530" lon="-4.9127810">
        <ele>725.2</ele>
        <time>2019-08-14T12:55:51Z</time>
      </trkpt>
      <trkpt lat="41.3067770" lon="-4.9128060">
        <ele>725.2</ele>
        <time>2019-08-14T12:55:52Z</time>
      </trkpt>
      <trkpt lat="41.3068010" lon="-4.9128290">
        <ele>725.2</ele>
        <time>2019-08-14T12:55:53Z</time>
      </trkpt>
      <trkpt lat="41.3068240" lon="-4.9128480">
        <ele>725.2</ele>
        <time>2019-08-14T12:55:54Z</time>
      </trkpt>
      <trkpt lat="41.3068660" lon="-4.9129010">
        <ele>725.2</ele>
        <time>2019-08-14T12:55:56Z</time>
      </trkpt>
      <trkpt lat="41.3068870" lon="-4.9129400">
        <ele>725.2</ele>
        <time>2019-08-14T12:55:57Z</time>
      </trkpt>
      <trkpt lat="41.3069120" lon="-4.9129780">
        <ele>725.2</ele>
        <time>2019-08-14T12:55:58Z</time>
      </trkpt>
      <trkpt lat="41.3069360" lon="-4.9130160">
        <ele>725.2</ele>
        <time>2019-08-14T12:55:59Z</time>
      </trkpt>
      <trkpt lat="41.3069600" lon="-4.9130540">
        <ele>725.3</ele>
        <time>2019-08-14T12:56:00Z</time>
      </trkpt>
      <trkpt lat="41.3069830" lon="-4.9130910">
        <ele>725.3</ele>
        <time>2019-08-14T12:56:01Z</time>
      </trkpt>
      <trkpt lat="41.3070100" lon="-4.9131280">
        <ele>725.3</ele>
        <time>2019-08-14T12:56:02Z</time>
      </trkpt>
      <trkpt lat="41.3070370" lon="-4.9131670">
        <ele>725.3</ele>
        <time>2019-08-14T12:56:03Z</time>
      </trkpt>
      <trkpt lat="41.3070660" lon="-4.9132080">
        <ele>725.3</ele>
        <time>2019-08-14T12:56:04Z</time>
      </trkpt>
      <trkpt lat="41.3070950" lon="-4.9132470">
        <ele>725.4</ele>
        <time>2019-08-14T12:56:05Z</time>
      </trkpt>
      <trkpt lat="41.3071260" lon="-4.9132820">
        <ele>725.4</ele>
        <time>2019-08-14T12:56:06Z</time>
      </trkpt>
      <trkpt lat="41.3071560" lon="-4.9133170">
        <ele>725.4</ele>
        <time>2019-08-14T12:56:07Z</time>
      </trkpt>
      <trkpt lat="41.3071930" lon="-4.9133450">
        <ele>725.4</ele>
        <time>2019-08-14T12:56:08Z</time>
      </trkpt>
      <trkpt lat="41.3072190" lon="-4.9133800">
        <ele>725.3</ele>
        <time>2019-08-14T12:56:09Z</time>
      </trkpt>
      <trkpt lat="41.3072500" lon="-4.9134120">
        <ele>725.3</ele>
        <time>2019-08-14T12:56:10Z</time>
      </trkpt>
      <trkpt lat="41.3072830" lon="-4.9134400">
        <ele>725.3</ele>
        <time>2019-08-14T12:56:11Z</time>
      </trkpt>
      <trkpt lat="41.3073090" lon="-4.9134680">
        <ele>725.2</ele>
        <time>2019-08-14T12:56:12Z</time>
      </trkpt>
      <trkpt lat="41.3073280" lon="-4.9134950">
        <ele>725.2</ele>
        <time>2019-08-14T12:56:13Z</time>
      </trkpt>
      <trkpt lat="41.3073470" lon="-4.9135270">
        <ele>725.2</ele>
        <time>2019-08-14T12:56:14Z</time>
      </trkpt>
      <trkpt lat="41.3073700" lon="-4.9135620">
        <ele>725.2</ele>
        <time>2019-08-14T12:56:15Z</time>
      </trkpt>
      <trkpt lat="41.3073900" lon="-4.9135990">
        <ele>725.2</ele>
        <time>2019-08-14T12:56:16Z</time>
      </trkpt>
      <trkpt lat="41.3074090" lon="-4.9136280">
        <ele>725.3</ele>
        <time>2019-08-14T12:56:17Z</time>
      </trkpt>
      <trkpt lat="41.3074440" lon="-4.9136770">
        <ele>725.3</ele>
        <time>2019-08-14T12:56:19Z</time>
      </trkpt>
      <trkpt lat="41.3074630" lon="-4.9137040">
        <ele>725.3</ele>
        <time>2019-08-14T12:56:20Z</time>
      </trkpt>
      <trkpt lat="41.3074840" lon="-4.9137400">
        <ele>725.4</ele>
        <time>2019-08-14T12:56:21Z</time>
      </trkpt>
      <trkpt lat="41.3074990" lon="-4.9137770">
        <ele>725.5</ele>
        <time>2019-08-14T12:56:22Z</time>
      </trkpt>
      <trkpt lat="41.3075170" lon="-4.9138160">
        <ele>725.5</ele>
        <time>2019-08-14T12:56:23Z</time>
      </trkpt>
      <trkpt lat="41.3075350" lon="-4.9138560">
        <ele>725.6</ele>
        <time>2019-08-14T12:56:24Z</time>
      </trkpt>
      <trkpt lat="41.3075540" lon="-4.9139000">
        <ele>725.7</ele>
        <time>2019-08-14T12:56:25Z</time>
      </trkpt>
      <trkpt lat="41.3075770" lon="-4.9139560">
        <ele>725.9</ele>
        <time>2019-08-14T12:56:26Z</time>
      </trkpt>
      <trkpt lat="41.3076010" lon="-4.9140120">
        <ele>726.1</ele>
        <time>2019-08-14T12:56:27Z</time>
      </trkpt>
      <trkpt lat="41.3076190" lon="-4.9140620">
        <ele>726.2</ele>
        <time>2019-08-14T12:56:28Z</time>
      </trkpt>
      <trkpt lat="41.3076340" lon="-4.9141130">
        <ele>726.3</ele>
        <time>2019-08-14T12:56:29Z</time>
      </trkpt>
      <trkpt lat="41.3076490" lon="-4.9141720">
        <ele>726.4</ele>
        <time>2019-08-14T12:56:30Z</time>
      </trkpt>
      <trkpt lat="41.3076730" lon="-4.9142240">
        <ele>726.6</ele>
        <time>2019-08-14T12:56:31Z</time>
      </trkpt>
      <trkpt lat="41.3076950" lon="-4.9142800">
        <ele>726.7</ele>
        <time>2019-08-14T12:56:32Z</time>
      </trkpt>
      <trkpt lat="41.3077210" lon="-4.9143360">
        <ele>726.8</ele>
        <time>2019-08-14T12:56:33Z</time>
      </trkpt>
      <trkpt lat="41.3077480" lon="-4.9143910">
        <ele>726.9</ele>
        <time>2019-08-14T12:56:34Z</time>
      </trkpt>
      <trkpt lat="41.3077750" lon="-4.9144410">
        <ele>726.9</ele>
        <time>2019-08-14T12:56:35Z</time>
      </trkpt>
      <trkpt lat="41.3078000" lon="-4.9144940">
        <ele>727.0</ele>
        <time>2019-08-14T12:56:36Z</time>
      </trkpt>
      <trkpt lat="41.3078210" lon="-4.9145450">
        <ele>727.0</ele>
        <time>2019-08-14T12:56:37Z</time>
      </trkpt>
      <trkpt lat="41.3078420" lon="-4.9145910">
        <ele>727.1</ele>
        <time>2019-08-14T12:56:38Z</time>
      </trkpt>
      <trkpt lat="41.3078630" lon="-4.9146320">
        <ele>727.1</ele>
        <time>2019-08-14T12:56:39Z</time>
      </trkpt>
      <trkpt lat="41.3078810" lon="-4.9146730">
        <ele>727.1</ele>
        <time>2019-08-14T12:56:40Z</time>
      </trkpt>
      <trkpt lat="41.3078950" lon="-4.9147160">
        <ele>727.1</ele>
        <time>2019-08-14T12:56:41Z</time>
      </trkpt>
      <trkpt lat="41.3079120" lon="-4.9147560">
        <ele>727.1</ele>
        <time>2019-08-14T12:56:42Z</time>
      </trkpt>
      <trkpt lat="41.3079320" lon="-4.9147950">
        <ele>727.1</ele>
        <time>2019-08-14T12:56:43Z</time>
      </trkpt>
      <trkpt lat="41.3079470" lon="-4.9148400">
        <ele>727.0</ele>
        <time>2019-08-14T12:56:44Z</time>
      </trkpt>
      <trkpt lat="41.3079620" lon="-4.9148780">
        <ele>726.9</ele>
        <time>2019-08-14T12:56:45Z</time>
      </trkpt>
      <trkpt lat="41.3079750" lon="-4.9149110">
        <ele>726.7</ele>
        <time>2019-08-14T12:56:46Z</time>
      </trkpt>
      <trkpt lat="41.3079820" lon="-4.9149470">
        <ele>726.5</ele>
        <time>2019-08-14T12:56:47Z</time>
      </trkpt>
      <trkpt lat="41.3079880" lon="-4.9150080">
        <ele>726.5</ele>
        <time>2019-08-14T12:56:49Z</time>
      </trkpt>
      <trkpt lat="41.3079770" lon="-4.9150380">
        <ele>726.4</ele>
        <time>2019-08-14T12:56:52Z</time>
      </trkpt>
      <trkpt lat="41.3079710" lon="-4.9150200">
        <ele>726.4</ele>
        <time>2019-08-14T12:57:01Z</time>
      </trkpt>
      <trkpt lat="41.3080280" lon="-4.9150270">
        <ele>726.4</ele>
        <time>2019-08-14T12:57:11Z</time>
      </trkpt>
      <trkpt lat="41.3080440" lon="-4.9149940">
        <ele>726.3</ele>
        <time>2019-08-14T12:57:13Z</time>
      </trkpt>
      <trkpt lat="41.3080430" lon="-4.9149350">
        <ele>726.3</ele>
        <time>2019-08-14T12:57:15Z</time>
      </trkpt>
      <trkpt lat="41.3080730" lon="-4.9148810">
        <ele>726.2</ele>
        <time>2019-08-14T12:57:17Z</time>
      </trkpt>
      <trkpt lat="41.3081030" lon="-4.9148480">
        <ele>726.2</ele>
        <time>2019-08-14T12:57:19Z</time>
      </trkpt>
      <trkpt lat="41.3081270" lon="-4.9148230">
        <ele>726.2</ele>
        <time>2019-08-14T12:57:21Z</time>
      </trkpt>
      <trkpt lat="41.3081600" lon="-4.9148030">
        <ele>726.1</ele>
        <time>2019-08-14T12:57:24Z</time>
      </trkpt>
      <trkpt lat="41.3081930" lon="-4.9147790">
        <ele>726.1</ele>
        <time>2019-08-14T12:57:26Z</time>
      </trkpt>
      <trkpt lat="41.3082380" lon="-4.9147460">
        <ele>726.1</ele>
        <time>2019-08-14T12:57:28Z</time>
      </trkpt>
      <trkpt lat="41.3082620" lon="-4.9147260">
        <ele>726.1</ele>
        <time>2019-08-14T12:57:29Z</time>
      </trkpt>
      <trkpt lat="41.3082850" lon="-4.9147060">
        <ele>726.0</ele>
        <time>2019-08-14T12:57:30Z</time>
      </trkpt>
      <trkpt lat="41.3083290" lon="-4.9146670">
        <ele>726.0</ele>
        <time>2019-08-14T12:57:32Z</time>
      </trkpt>
      <trkpt lat="41.3083720" lon="-4.9146310">
        <ele>726.0</ele>
        <time>2019-08-14T12:57:34Z</time>
      </trkpt>
      <trkpt lat="41.3083970" lon="-4.9146160">
        <ele>726.0</ele>
        <time>2019-08-14T12:57:35Z</time>
      </trkpt>
      <trkpt lat="41.3084450" lon="-4.9145890">
        <ele>725.9</ele>
        <time>2019-08-14T12:57:37Z</time>
      </trkpt>
      <trkpt lat="41.3084910" lon="-4.9145620">
        <ele>725.9</ele>
        <time>2019-08-14T12:57:39Z</time>
      </trkpt>
      <trkpt lat="41.3085370" lon="-4.9145400">
        <ele>725.9</ele>
        <time>2019-08-14T12:57:41Z</time>
      </trkpt>
      <trkpt lat="41.3085810" lon="-4.9145240">
        <ele>725.8</ele>
        <time>2019-08-14T12:57:43Z</time>
      </trkpt>
      <trkpt lat="41.3086210" lon="-4.9145070">
        <ele>725.8</ele>
        <time>2019-08-14T12:57:45Z</time>
      </trkpt>
      <trkpt lat="41.3086510" lon="-4.9144860">
        <ele>725.8</ele>
        <time>2019-08-14T12:57:47Z</time>
      </trkpt>
      <trkpt lat="41.3086760" lon="-4.9144660">
        <ele>725.8</ele>
        <time>2019-08-14T12:57:49Z</time>
      </trkpt>
      <trkpt lat="41.3087000" lon="-4.9144460">
        <ele>725.8</ele>
        <time>2019-08-14T12:57:51Z</time>
      </trkpt>
      <trkpt lat="41.3087270" lon="-4.9144220">
        <ele>725.8</ele>
        <time>2019-08-14T12:57:54Z</time>
      </trkpt>
      <trkpt lat="41.3086710" lon="-4.9144170">
        <ele>725.7</ele>
        <time>2019-08-14T12:58:48Z</time>
      </trkpt>
      <trkpt lat="41.3086470" lon="-4.9144430">
        <ele>725.7</ele>
        <time>2019-08-14T12:58:50Z</time>
      </trkpt>
      <trkpt lat="41.3086260" lon="-4.9144750">
        <ele>725.7</ele>
        <time>2019-08-14T12:58:52Z</time>
      </trkpt>
      <trkpt lat="41.3085990" lon="-4.9144720">
        <ele>725.7</ele>
        <time>2019-08-14T12:58:55Z</time>
      </trkpt>
      <trkpt lat="41.3085760" lon="-4.9144580">
        <ele>725.7</ele>
        <time>2019-08-14T12:59:03Z</time>
      </trkpt>
      <trkpt lat="41.3081720" lon="-4.9148210">
        <ele>725.2</ele>
        <time>2019-08-14T14:14:01Z</time>
      </trkpt>
      <trkpt lat="41.3082680" lon="-4.9148190">
        <ele>725.1</ele>
        <time>2019-08-14T14:14:13Z</time>
      </trkpt>
      <trkpt lat="41.3083180" lon="-4.9148010">
        <ele>725.0</ele>
        <time>2019-08-14T14:14:15Z</time>
      </trkpt>
      <trkpt lat="41.3083080" lon="-4.9146970">
        <ele>724.9</ele>
        <time>2019-08-14T14:14:16Z</time>
      </trkpt>
      <trkpt lat="41.3083000" lon="-4.9145760">
        <ele>724.8</ele>
        <time>2019-08-14T14:14:17Z</time>
      </trkpt>
      <trkpt lat="41.3083250" lon="-4.9145300">
        <ele>724.8</ele>
        <time>2019-08-14T14:14:18Z</time>
      </trkpt>
      <trkpt lat="41.3083430" lon="-4.9144960">
        <ele>724.8</ele>
        <time>2019-08-14T14:14:19Z</time>
      </trkpt>
      <trkpt lat="41.3083770" lon="-4.9144960">
        <ele>724.7</ele>
        <time>2019-08-14T14:14:20Z</time>
      </trkpt>
      <trkpt lat="41.3084030" lon="-4.9144780">
        <ele>724.7</ele>
        <time>2019-08-14T14:14:21Z</time>
      </trkpt>
      <trkpt lat="41.3084310" lon="-4.9144730">
        <ele>724.7</ele>
        <time>2019-08-14T14:14:22Z</time>
      </trkpt>
      <trkpt lat="41.3084610" lon="-4.9144730">
        <ele>724.7</ele>
        <time>2019-08-14T14:14:23Z</time>
      </trkpt>
      <trkpt lat="41.3084950" lon="-4.9144740">
        <ele>724.6</ele>
        <time>2019-08-14T14:14:24Z</time>
      </trkpt>
      <trkpt lat="41.3085320" lon="-4.9144840">
        <ele>724.6</ele>
        <time>2019-08-14T14:14:25Z</time>
      </trkpt>
      <trkpt lat="41.3085710" lon="-4.9145010">
        <ele>724.6</ele>
        <time>2019-08-14T14:14:26Z</time>
      </trkpt>
      <trkpt lat="41.3086180" lon="-4.9145200">
        <ele>724.5</ele>
        <time>2019-08-14T14:14:27Z</time>
      </trkpt>
      <trkpt lat="41.3086520" lon="-4.9145300">
        <ele>724.5</ele>
        <time>2019-08-14T14:14:28Z</time>
      </trkpt>
      <trkpt lat="41.3086800" lon="-4.9145340">
        <ele>724.5</ele>
        <time>2019-08-14T14:14:29Z</time>
      </trkpt>
      <trkpt lat="41.3087070" lon="-4.9145380">
        <ele>724.4</ele>
        <time>2019-08-14T14:14:30Z</time>
      </trkpt>
      <trkpt lat="41.3087510" lon="-4.9145250">
        <ele>724.4</ele>
        <time>2019-08-14T14:14:32Z</time>
      </trkpt>
      <trkpt lat="41.3088010" lon="-4.9145310">
        <ele>724.4</ele>
        <time>2019-08-14T14:14:34Z</time>
      </trkpt>
      <trkpt lat="41.3088430" lon="-4.9145720">
        <ele>724.3</ele>
        <time>2019-08-14T14:14:36Z</time>
      </trkpt>
      <trkpt lat="41.3088610" lon="-4.9146070">
        <ele>724.0</ele>
        <time>2019-08-14T14:14:37Z</time>
      </trkpt>
      <trkpt lat="41.3088770" lon="-4.9146460">
        <ele>724.0</ele>
        <time>2019-08-14T14:14:38Z</time>
      </trkpt>
      <trkpt lat="41.3088940" lon="-4.9146910">
        <ele>724.1</ele>
        <time>2019-08-14T14:14:39Z</time>
      </trkpt>
      <trkpt lat="41.3089130" lon="-4.9147360">
        <ele>724.1</ele>
        <time>2019-08-14T14:14:40Z</time>
      </trkpt>
      <trkpt lat="41.3089330" lon="-4.9147820">
        <ele>724.1</ele>
        <time>2019-08-14T14:14:41Z</time>
      </trkpt>
      <trkpt lat="41.3089540" lon="-4.9148310">
        <ele>724.2</ele>
        <time>2019-08-14T14:14:42Z</time>
      </trkpt>
      <trkpt lat="41.3089760" lon="-4.9148810">
        <ele>724.2</ele>
        <time>2019-08-14T14:14:43Z</time>
      </trkpt>
      <trkpt lat="41.3089960" lon="-4.9149290">
        <ele>724.2</ele>
        <time>2019-08-14T14:14:44Z</time>
      </trkpt>
      <trkpt lat="41.3090150" lon="-4.9149700">
        <ele>724.3</ele>
        <time>2019-08-14T14:14:45Z</time>
      </trkpt>
      <trkpt lat="41.3090310" lon="-4.9150070">
        <ele>724.3</ele>
        <time>2019-08-14T14:14:46Z</time>
      </trkpt>
      <trkpt lat="41.3090650" lon="-4.9150550">
        <ele>724.3</ele>
        <time>2019-08-14T14:14:48Z</time>
      </trkpt>
      <trkpt lat="41.3091010" lon="-4.9150680">
        <ele>724.4</ele>
        <time>2019-08-14T14:14:50Z</time>
      </trkpt>
      <trkpt lat="41.3091390" lon="-4.9150540">
        <ele>724.3</ele>
        <time>2019-08-14T14:14:52Z</time>
      </trkpt>
      <trkpt lat="41.3091870" lon="-4.9150420">
        <ele>724.3</ele>
        <time>2019-08-14T14:14:54Z</time>
      </trkpt>
      <trkpt lat="41.3092390" lon="-4.9150480">
        <ele>724.1</ele>
        <time>2019-08-14T14:14:56Z</time>
      </trkpt>
      <trkpt lat="41.3092600" lon="-4.9150710">
        <ele>724.1</ele>
        <time>2019-08-14T14:14:57Z</time>
      </trkpt>
      <trkpt lat="41.3092780" lon="-4.9151030">
        <ele>724.1</ele>
        <time>2019-08-14T14:14:58Z</time>
      </trkpt>
      <trkpt lat="41.3092950" lon="-4.9151330">
        <ele>724.1</ele>
        <time>2019-08-14T14:14:59Z</time>
      </trkpt>
      <trkpt lat="41.3093120" lon="-4.9151640">
        <ele>724.1</ele>
        <time>2019-08-14T14:15:00Z</time>
      </trkpt>
      <trkpt lat="41.3093320" lon="-4.9151930">
        <ele>724.1</ele>
        <time>2019-08-14T14:15:01Z</time>
      </trkpt>
      <trkpt lat="41.3093510" lon="-4.9152230">
        <ele>724.2</ele>
        <time>2019-08-14T14:15:02Z</time>
      </trkpt>
      <trkpt lat="41.3093710" lon="-4.9152530">
        <ele>724.2</ele>
        <time>2019-08-14T14:15:03Z</time>
      </trkpt>
      <trkpt lat="41.3093920" lon="-4.9152850">
        <ele>724.2</ele>
        <time>2019-08-14T14:15:04Z</time>
      </trkpt>
      <trkpt lat="41.3094120" lon="-4.9153180">
        <ele>724.3</ele>
        <time>2019-08-14T14:15:05Z</time>
      </trkpt>
      <trkpt lat="41.3094300" lon="-4.9153540">
        <ele>724.3</ele>
        <time>2019-08-14T14:15:06Z</time>
      </trkpt>
      <trkpt lat="41.3094500" lon="-4.9153910">
        <ele>724.4</ele>
        <time>2019-08-14T14:15:07Z</time>
      </trkpt>
      <trkpt lat="41.3094710" lon="-4.9154260">
        <ele>724.5</ele>
        <time>2019-08-14T14:15:08Z</time>
      </trkpt>
      <trkpt lat="41.3094930" lon="-4.9154610">
        <ele>724.5</ele>
        <time>2019-08-14T14:15:09Z</time>
      </trkpt>
      <trkpt lat="41.3095170" lon="-4.9154980">
        <ele>724.6</ele>
        <time>2019-08-14T14:15:10Z</time>
      </trkpt>
      <trkpt lat="41.3095390" lon="-4.9155360">
        <ele>724.7</ele>
        <time>2019-08-14T14:15:11Z</time>
      </trkpt>
      <trkpt lat="41.3095630" lon="-4.9155690">
        <ele>724.8</ele>
        <time>2019-08-14T14:15:12Z</time>
      </trkpt>
      <trkpt lat="41.3095890" lon="-4.9156070">
        <ele>724.8</ele>
        <time>2019-08-14T14:15:13Z</time>
      </trkpt>
      <trkpt lat="41.3096130" lon="-4.9156470">
        <ele>724.7</ele>
        <time>2019-08-14T14:15:14Z</time>
      </trkpt>
      <trkpt lat="41.3096390" lon="-4.9156870">
        <ele>724.7</ele>
        <time>2019-08-14T14:15:15Z</time>
      </trkpt>
      <trkpt lat="41.3096670" lon="-4.9157240">
        <ele>724.6</ele>
        <time>2019-08-14T14:15:16Z</time>
      </trkpt>
      <trkpt lat="41.3096980" lon="-4.9157580">
        <ele>724.6</ele>
        <time>2019-08-14T14:15:17Z</time>
      </trkpt>
      <trkpt lat="41.3097280" lon="-4.9157920">
        <ele>724.6</ele>
        <time>2019-08-14T14:15:18Z</time>
      </trkpt>
      <trkpt lat="41.3097560" lon="-4.9158250">
        <ele>724.5</ele>
        <time>2019-08-14T14:15:19Z</time>
      </trkpt>
      <trkpt lat="41.3097820" lon="-4.9158550">
        <ele>724.5</ele>
        <time>2019-08-14T14:15:20Z</time>
      </trkpt>
      <trkpt lat="41.3098060" lon="-4.9158820">
        <ele>724.4</ele>
        <time>2019-08-14T14:15:21Z</time>
      </trkpt>
      <trkpt lat="41.3098270" lon="-4.9159080">
        <ele>724.4</ele>
        <time>2019-08-14T14:15:22Z</time>
      </trkpt>
      <trkpt lat="41.3098680" lon="-4.9159480">
        <ele>724.3</ele>
        <time>2019-08-14T14:15:24Z</time>
      </trkpt>
      <trkpt lat="41.3099100" lon="-4.9159710">
        <ele>724.2</ele>
        <time>2019-08-14T14:15:26Z</time>
      </trkpt>
      <trkpt lat="41.3099320" lon="-4.9159910">
        <ele>724.2</ele>
        <time>2019-08-14T14:15:28Z</time>
      </trkpt>
      <trkpt lat="41.3099390" lon="-4.9159690">
        <ele>724.1</ele>
        <time>2019-08-14T14:15:36Z</time>
      </trkpt>
      <trkpt lat="41.3100410" lon="-4.9160810">
        <ele>723.8</ele>
        <time>2019-08-14T14:16:05Z</time>
      </trkpt>
      <trkpt lat="41.3100610" lon="-4.9161060">
        <ele>723.7</ele>
        <time>2019-08-14T14:16:06Z</time>
      </trkpt>
      <trkpt lat="41.3100780" lon="-4.9161350">
        <ele>723.7</ele>
        <time>2019-08-14T14:16:07Z</time>
      </trkpt>
      <trkpt lat="41.3100980" lon="-4.9161650">
        <ele>723.6</ele>
        <time>2019-08-14T14:16:08Z</time>
      </trkpt>
      <trkpt lat="41.3101180" lon="-4.9161950">
        <ele>723.5</ele>
        <time>2019-08-14T14:16:09Z</time>
      </trkpt>
      <trkpt lat="41.3101380" lon="-4.9162250">
        <ele>723.4</ele>
        <time>2019-08-14T14:16:10Z</time>
      </trkpt>
      <trkpt lat="41.3101590" lon="-4.9162540">
        <ele>723.2</ele>
        <time>2019-08-14T14:16:11Z</time>
      </trkpt>
      <trkpt lat="41.3101770" lon="-4.9162830">
        <ele>723.1</ele>
        <time>2019-08-14T14:16:12Z</time>
      </trkpt>
      <trkpt lat="41.3101940" lon="-4.9163160">
        <ele>723.1</ele>
        <time>2019-08-14T14:16:13Z</time>
      </trkpt>
      <trkpt lat="41.3102080" lon="-4.9163490">
        <ele>723.0</ele>
        <time>2019-08-14T14:16:14Z</time>
      </trkpt>
      <trkpt lat="41.3102200" lon="-4.9163830">
        <ele>723.0</ele>
        <time>2019-08-14T14:16:15Z</time>
      </trkpt>
      <trkpt lat="41.3102330" lon="-4.9164210">
        <ele>722.9</ele>
        <time>2019-08-14T14:16:16Z</time>
      </trkpt>
      <trkpt lat="41.3102470" lon="-4.9164620">
        <ele>722.8</ele>
        <time>2019-08-14T14:16:17Z</time>
      </trkpt>
      <trkpt lat="41.3102630" lon="-4.9165050">
        <ele>722.8</ele>
        <time>2019-08-14T14:16:18Z</time>
      </trkpt>
      <trkpt lat="41.3102790" lon="-4.9165490">
        <ele>722.7</ele>
        <time>2019-08-14T14:16:19Z</time>
      </trkpt>
      <trkpt lat="41.3102950" lon="-4.9165940">
        <ele>722.6</ele>
        <time>2019-08-14T14:16:20Z</time>
      </trkpt>
      <trkpt lat="41.3103100" lon="-4.9166380">
        <ele>722.5</ele>
        <time>2019-08-14T14:16:21Z</time>
      </trkpt>
      <trkpt lat="41.3103250" lon="-4.9166830">
        <ele>722.5</ele>
        <time>2019-08-14T14:16:22Z</time>
      </trkpt>
      <trkpt lat="41.3103390" lon="-4.9167310">
        <ele>722.4</ele>
        <time>2019-08-14T14:16:23Z</time>
      </trkpt>
      <trkpt lat="41.3103520" lon="-4.9167800">
        <ele>722.3</ele>
        <time>2019-08-14T14:16:24Z</time>
      </trkpt>
      <trkpt lat="41.3103630" lon="-4.9168290">
        <ele>722.1</ele>
        <time>2019-08-14T14:16:25Z</time>
      </trkpt>
      <trkpt lat="41.3103750" lon="-4.9168780">
        <ele>722.0</ele>
        <time>2019-08-14T14:16:26Z</time>
      </trkpt>
      <trkpt lat="41.3103890" lon="-4.9169270">
        <ele>721.9</ele>
        <time>2019-08-14T14:16:27Z</time>
      </trkpt>
      <trkpt lat="41.3104060" lon="-4.9169770">
        <ele>721.8</ele>
        <time>2019-08-14T14:16:28Z</time>
      </trkpt>
      <trkpt lat="41.3104250" lon="-4.9170230">
        <ele>721.7</ele>
        <time>2019-08-14T14:16:29Z</time>
      </trkpt>
      <trkpt lat="41.3104440" lon="-4.9170640">
        <ele>721.6</ele>
        <time>2019-08-14T14:16:30Z</time>
      </trkpt>
      <trkpt lat="41.3104640" lon="-4.9170980">
        <ele>721.5</ele>
        <time>2019-08-14T14:16:31Z</time>
      </trkpt>
      <trkpt lat="41.3104850" lon="-4.9171250">
        <ele>721.5</ele>
        <time>2019-08-14T14:16:32Z</time>
      </trkpt>
      <trkpt lat="41.3105280" lon="-4.9171550">
        <ele>721.3</ele>
        <time>2019-08-14T14:16:34Z</time>
      </trkpt>
      <trkpt lat="41.3105690" lon="-4.9171760">
        <ele>721.3</ele>
        <time>2019-08-14T14:16:36Z</time>
      </trkpt>
      <trkpt lat="41.3105990" lon="-4.9171950">
        <ele>721.3</ele>
        <time>2019-08-14T14:16:38Z</time>
      </trkpt>
      <trkpt lat="41.3106220" lon="-4.9172270">
        <ele>721.3</ele>
        <time>2019-08-14T14:16:40Z</time>
      </trkpt>
      <trkpt lat="41.3106110" lon="-4.9172800">
        <ele>721.3</ele>
        <time>2019-08-14T14:16:42Z</time>
      </trkpt>
      <trkpt lat="41.3105720" lon="-4.9173300">
        <ele>721.3</ele>
        <time>2019-08-14T14:16:44Z</time>
      </trkpt>
      <trkpt lat="41.3105500" lon="-4.9173530">
        <ele>721.4</ele>
        <time>2019-08-14T14:16:45Z</time>
      </trkpt>
      <trkpt lat="41.3105260" lon="-4.9173730">
        <ele>721.4</ele>
        <time>2019-08-14T14:16:46Z</time>
      </trkpt>
      <trkpt lat="41.3104870" lon="-4.9174050">
        <ele>721.5</ele>
        <time>2019-08-14T14:16:48Z</time>
      </trkpt>
      <trkpt lat="41.3104630" lon="-4.9174380">
        <ele>721.5</ele>
        <time>2019-08-14T14:16:51Z</time>
      </trkpt>
      <trkpt lat="41.3104300" lon="-4.9175010">
        <ele>721.4</ele>
        <time>2019-08-14T14:17:11Z</time>
      </trkpt>
      <trkpt lat="41.3104320" lon="-4.9175800">
        <ele>721.4</ele>
        <time>2019-08-14T14:17:13Z</time>
      </trkpt>
      <trkpt lat="41.3104390" lon="-4.9176250">
        <ele>721.4</ele>
        <time>2019-08-14T14:17:14Z</time>
      </trkpt>
      <trkpt lat="41.3104510" lon="-4.9176670">
        <ele>721.3</ele>
        <time>2019-08-14T14:17:15Z</time>
      </trkpt>
      <trkpt lat="41.3104640" lon="-4.9177080">
        <ele>721.3</ele>
        <time>2019-08-14T14:17:16Z</time>
      </trkpt>
      <trkpt lat="41.3104780" lon="-4.9177490">
        <ele>721.2</ele>
        <time>2019-08-14T14:17:17Z</time>
      </trkpt>
      <trkpt lat="41.3104920" lon="-4.9177910">
        <ele>721.2</ele>
        <time>2019-08-14T14:17:18Z</time>
      </trkpt>
      <trkpt lat="41.3105090" lon="-4.9178310">
        <ele>721.2</ele>
        <time>2019-08-14T14:17:19Z</time>
      </trkpt>
      <trkpt lat="41.3105270" lon="-4.9178720">
        <ele>721.1</ele>
        <time>2019-08-14T14:17:20Z</time>
      </trkpt>
      <trkpt lat="41.3105450" lon="-4.9179170">
        <ele>721.1</ele>
        <time>2019-08-14T14:17:21Z</time>
      </trkpt>
      <trkpt lat="41.3105640" lon="-4.9179620">
        <ele>721.0</ele>
        <time>2019-08-14T14:17:22Z</time>
      </trkpt>
      <trkpt lat="41.3105850" lon="-4.9180040">
        <ele>721.0</ele>
        <time>2019-08-14T14:17:23Z</time>
      </trkpt>
      <trkpt lat="41.3106090" lon="-4.9180460">
        <ele>721.0</ele>
        <time>2019-08-14T14:17:24Z</time>
      </trkpt>
      <trkpt lat="41.3106310" lon="-4.9180890">
        <ele>721.0</ele>
        <time>2019-08-14T14:17:25Z</time>
      </trkpt>
      <trkpt lat="41.3106540" lon="-4.9181300">
        <ele>721.0</ele>
        <time>2019-08-14T14:17:26Z</time>
      </trkpt>
      <trkpt lat="41.3106780" lon="-4.9181700">
        <ele>721.0</ele>
        <time>2019-08-14T14:17:27Z</time>
      </trkpt>
      <trkpt lat="41.3107020" lon="-4.9182100">
        <ele>721.0</ele>
        <time>2019-08-14T14:17:28Z</time>
      </trkpt>
      <trkpt lat="41.3107220" lon="-4.9182480">
        <ele>721.0</ele>
        <time>2019-08-14T14:17:29Z</time>
      </trkpt>
      <trkpt lat="41.3107410" lon="-4.9182860">
        <ele>721.0</ele>
        <time>2019-08-14T14:17:30Z</time>
      </trkpt>
      <trkpt lat="41.3107590" lon="-4.9183240">
        <ele>721.1</ele>
        <time>2019-08-14T14:17:31Z</time>
      </trkpt>
      <trkpt lat="41.3107770" lon="-4.9183670">
        <ele>721.1</ele>
        <time>2019-08-14T14:17:32Z</time>
      </trkpt>
      <trkpt lat="41.3107980" lon="-4.9184090">
        <ele>721.2</ele>
        <time>2019-08-14T14:17:33Z</time>
      </trkpt>
      <trkpt lat="41.3108180" lon="-4.9184500">
        <ele>721.2</ele>
        <time>2019-08-14T14:17:34Z</time>
      </trkpt>
      <trkpt lat="41.3108380" lon="-4.9184930">
        <ele>721.3</ele>
        <time>2019-08-14T14:17:35Z</time>
      </trkpt>
      <trkpt lat="41.3108570" lon="-4.9185340">
        <ele>721.3</ele>
        <time>2019-08-14T14:17:36Z</time>
      </trkpt>
      <trkpt lat="41.3108780" lon="-4.9185720">
        <ele>721.4</ele>
        <time>2019-08-14T14:17:37Z</time>
      </trkpt>
      <trkpt lat="41.3109000" lon="-4.9186100">
        <ele>721.4</ele>
        <time>2019-08-14T14:17:38Z</time>
      </trkpt>
      <trkpt lat="41.3109250" lon="-4.9186510">
        <ele>721.5</ele>
        <time>2019-08-14T14:17:39Z</time>
      </trkpt>
      <trkpt lat="41.3109490" lon="-4.9186900">
        <ele>721.5</ele>
        <time>2019-08-14T14:17:40Z</time>
      </trkpt>
      <trkpt lat="41.3109720" lon="-4.9187300">
        <ele>721.5</ele>
        <time>2019-08-14T14:17:41Z</time>
      </trkpt>
      <trkpt lat="41.3109970" lon="-4.9187690">
        <ele>721.5</ele>
        <time>2019-08-14T14:17:42Z</time>
      </trkpt>
      <trkpt lat="41.3110200" lon="-4.9188050">
        <ele>721.6</ele>
        <time>2019-08-14T14:17:43Z</time>
      </trkpt>
      <trkpt lat="41.3110410" lon="-4.9188390">
        <ele>721.6</ele>
        <time>2019-08-14T14:17:44Z</time>
      </trkpt>
      <trkpt lat="41.3110650" lon="-4.9188730">
        <ele>721.6</ele>
        <time>2019-08-14T14:17:45Z</time>
      </trkpt>
      <trkpt lat="41.3110890" lon="-4.9189080">
        <ele>721.6</ele>
        <time>2019-08-14T14:17:46Z</time>
      </trkpt>
      <trkpt lat="41.3111100" lon="-4.9189410">
        <ele>721.6</ele>
        <time>2019-08-14T14:17:47Z</time>
      </trkpt>
      <trkpt lat="41.3111320" lon="-4.9189740">
        <ele>721.6</ele>
        <time>2019-08-14T14:17:48Z</time>
      </trkpt>
      <trkpt lat="41.3111520" lon="-4.9190100">
        <ele>721.6</ele>
        <time>2019-08-14T14:17:49Z</time>
      </trkpt>
      <trkpt lat="41.3111740" lon="-4.9190490">
        <ele>721.7</ele>
        <time>2019-08-14T14:17:50Z</time>
      </trkpt>
      <trkpt lat="41.3111960" lon="-4.9190840">
        <ele>721.7</ele>
        <time>2019-08-14T14:17:51Z</time>
      </trkpt>
      <trkpt lat="41.3112180" lon="-4.9191190">
        <ele>721.7</ele>
        <time>2019-08-14T14:17:52Z</time>
      </trkpt>
      <trkpt lat="41.3112400" lon="-4.9191530">
        <ele>721.7</ele>
        <time>2019-08-14T14:17:53Z</time>
      </trkpt>
      <trkpt lat="41.3112640" lon="-4.9191830">
        <ele>721.7</ele>
        <time>2019-08-14T14:17:54Z</time>
      </trkpt>
      <trkpt lat="41.3112850" lon="-4.9192150">
        <ele>721.7</ele>
        <time>2019-08-14T14:17:55Z</time>
      </trkpt>
      <trkpt lat="41.3113050" lon="-4.9192500">
        <ele>721.7</ele>
        <time>2019-08-14T14:17:56Z</time>
      </trkpt>
      <trkpt lat="41.3113240" lon="-4.9192850">
        <ele>721.7</ele>
        <time>2019-08-14T14:17:57Z</time>
      </trkpt>
      <trkpt lat="41.3113440" lon="-4.9193210">
        <ele>721.7</ele>
        <time>2019-08-14T14:17:58Z</time>
      </trkpt>
      <trkpt lat="41.3113660" lon="-4.9193580">
        <ele>721.7</ele>
        <time>2019-08-14T14:17:59Z</time>
      </trkpt>
      <trkpt lat="41.3113890" lon="-4.9193970">
        <ele>721.6</ele>
        <time>2019-08-14T14:18:00Z</time>
      </trkpt>
      <trkpt lat="41.3114120" lon="-4.9194370">
        <ele>721.6</ele>
        <time>2019-08-14T14:18:01Z</time>
      </trkpt>
      <trkpt lat="41.3114360" lon="-4.9194760">
        <ele>721.6</ele>
        <time>2019-08-14T14:18:02Z</time>
      </trkpt>
      <trkpt lat="41.3114610" lon="-4.9195130">
        <ele>721.6</ele>
        <time>2019-08-14T14:18:03Z</time>
      </trkpt>
      <trkpt lat="41.3114870" lon="-4.9195520">
        <ele>721.5</ele>
        <time>2019-08-14T14:18:04Z</time>
      </trkpt>
      <trkpt lat="41.3115110" lon="-4.9195890">
        <ele>721.5</ele>
        <time>2019-08-14T14:18:05Z</time>
      </trkpt>
      <trkpt lat="41.3115340" lon="-4.9196260">
        <ele>721.4</ele>
        <time>2019-08-14T14:18:06Z</time>
      </trkpt>
      <trkpt lat="41.3115550" lon="-4.9196610">
        <ele>721.4</ele>
        <time>2019-08-14T14:18:07Z</time>
      </trkpt>
      <trkpt lat="41.3115770" lon="-4.9196950">
        <ele>721.3</ele>
        <time>2019-08-14T14:18:08Z</time>
      </trkpt>
      <trkpt lat="41.3115980" lon="-4.9197230">
        <ele>721.3</ele>
        <time>2019-08-14T14:18:09Z</time>
      </trkpt>
      <trkpt lat="41.3116420" lon="-4.9197650">
        <ele>721.2</ele>
        <time>2019-08-14T14:18:11Z</time>
      </trkpt>
      <trkpt lat="41.3116690" lon="-4.9197820">
        <ele>721.1</ele>
        <time>2019-08-14T14:18:12Z</time>
      </trkpt>
      <trkpt lat="41.3117000" lon="-4.9198010">
        <ele>721.1</ele>
        <time>2019-08-14T14:18:13Z</time>
      </trkpt>
      <trkpt lat="41.3117320" lon="-4.9198180">
        <ele>721.0</ele>
        <time>2019-08-14T14:18:14Z</time>
      </trkpt>
      <trkpt lat="41.3117650" lon="-4.9198360">
        <ele>720.9</ele>
        <time>2019-08-14T14:18:15Z</time>
      </trkpt>
      <trkpt lat="41.3117990" lon="-4.9198550">
        <ele>720.7</ele>
        <time>2019-08-14T14:18:16Z</time>
      </trkpt>
      <trkpt lat="41.3118360" lon="-4.9198720">
        <ele>720.6</ele>
        <time>2019-08-14T14:18:17Z</time>
      </trkpt>
      <trkpt lat="41.3118720" lon="-4.9198840">
        <ele>720.4</ele>
        <time>2019-08-14T14:18:18Z</time>
      </trkpt>
      <trkpt lat="41.3119090" lon="-4.9198960">
        <ele>720.3</ele>
        <time>2019-08-14T14:18:19Z</time>
      </trkpt>
      <trkpt lat="41.3119430" lon="-4.9199100">
        <ele>720.1</ele>
        <time>2019-08-14T14:18:20Z</time>
      </trkpt>
      <trkpt lat="41.3119740" lon="-4.9199300">
        <ele>720.0</ele>
        <time>2019-08-14T14:18:21Z</time>
      </trkpt>
      <trkpt lat="41.3119990" lon="-4.9199600">
        <ele>719.9</ele>
        <time>2019-08-14T14:18:22Z</time>
      </trkpt>
      <trkpt lat="41.3120150" lon="-4.9199990">
        <ele>719.8</ele>
        <time>2019-08-14T14:18:23Z</time>
      </trkpt>
      <trkpt lat="41.3120210" lon="-4.9200420">
        <ele>719.7</ele>
        <time>2019-08-14T14:18:24Z</time>
      </trkpt>
      <trkpt lat="41.3120240" lon="-4.9200830">
        <ele>719.7</ele>
        <time>2019-08-14T14:18:25Z</time>
      </trkpt>
      <trkpt lat="41.3120330" lon="-4.9201180">
        <ele>719.7</ele>
        <time>2019-08-14T14:18:26Z</time>
      </trkpt>
      <trkpt lat="41.3120820" lon="-4.9201470">
        <ele>719.3</ele>
        <time>2019-08-14T14:18:28Z</time>
      </trkpt>
      <trkpt lat="41.3121140" lon="-4.9201410">
        <ele>719.3</ele>
        <time>2019-08-14T14:18:29Z</time>
      </trkpt>
      <trkpt lat="41.3121470" lon="-4.9201230">
        <ele>719.2</ele>
        <time>2019-08-14T14:18:30Z</time>
      </trkpt>
      <trkpt lat="41.3121790" lon="-4.9200950">
        <ele>719.2</ele>
        <time>2019-08-14T14:18:31Z</time>
      </trkpt>
      <trkpt lat="41.3122110" lon="-4.9200620">
        <ele>719.2</ele>
        <time>2019-08-14T14:18:32Z</time>
      </trkpt>
      <trkpt lat="41.3122440" lon="-4.9200270">
        <ele>719.1</ele>
        <time>2019-08-14T14:18:33Z</time>
      </trkpt>
      <trkpt lat="41.3122770" lon="-4.9199930">
        <ele>719.1</ele>
        <time>2019-08-14T14:18:34Z</time>
      </trkpt>
      <trkpt lat="41.3123080" lon="-4.9199580">
        <ele>719.0</ele>
        <time>2019-08-14T14:18:35Z</time>
      </trkpt>
      <trkpt lat="41.3123380" lon="-4.9199270">
        <ele>719.0</ele>
        <time>2019-08-14T14:18:36Z</time>
      </trkpt>
      <trkpt lat="41.3123670" lon="-4.9198970">
        <ele>718.9</ele>
        <time>2019-08-14T14:18:37Z</time>
      </trkpt>
      <trkpt lat="41.3123950" lon="-4.9198690">
        <ele>718.9</ele>
        <time>2019-08-14T14:18:38Z</time>
      </trkpt>
      <trkpt lat="41.3124200" lon="-4.9198420">
        <ele>718.8</ele>
        <time>2019-08-14T14:18:39Z</time>
      </trkpt>
      <trkpt lat="41.3124460" lon="-4.9198140">
        <ele>718.8</ele>
        <time>2019-08-14T14:18:40Z</time>
      </trkpt>
      <trkpt lat="41.3124730" lon="-4.9197830">
        <ele>718.7</ele>
        <time>2019-08-14T14:18:41Z</time>
      </trkpt>
      <trkpt lat="41.3125000" lon="-4.9197510">
        <ele>718.6</ele>
        <time>2019-08-14T14:18:42Z</time>
      </trkpt>
      <trkpt lat="41.3125280" lon="-4.9197190">
        <ele>718.5</ele>
        <time>2019-08-14T14:18:43Z</time>
      </trkpt>
      <trkpt lat="41.3125570" lon="-4.9196880">
        <ele>718.4</ele>
        <time>2019-08-14T14:18:44Z</time>
      </trkpt>
      <trkpt lat="41.3125860" lon="-4.9196610">
        <ele>718.3</ele>
        <time>2019-08-14T14:18:45Z</time>
      </trkpt>
      <trkpt lat="41.3126170" lon="-4.9196350">
        <ele>718.2</ele>
        <time>2019-08-14T14:18:46Z</time>
      </trkpt>
      <trkpt lat="41.3126520" lon="-4.9196040">
        <ele>718.1</ele>
        <time>2019-08-14T14:18:47Z</time>
      </trkpt>
      <trkpt lat="41.3126860" lon="-4.9195670">
        <ele>717.9</ele>
        <time>2019-08-14T14:18:48Z</time>
      </trkpt>
      <trkpt lat="41.3127230" lon="-4.9195230">
        <ele>717.7</ele>
        <time>2019-08-14T14:18:49Z</time>
      </trkpt>
      <trkpt lat="41.3127630" lon="-4.9194770">
        <ele>717.5</ele>
        <time>2019-08-14T14:18:50Z</time>
      </trkpt>
      <trkpt lat="41.3128090" lon="-4.9194280">
        <ele>717.3</ele>
        <time>2019-08-14T14:18:51Z</time>
      </trkpt>
      <trkpt lat="41.3128560" lon="-4.9193770">
        <ele>717.2</ele>
        <time>2019-08-14T14:18:52Z</time>
      </trkpt>
      <trkpt lat="41.3129070" lon="-4.9193200">
        <ele>717.2</ele>
        <time>2019-08-14T14:18:53Z</time>
      </trkpt>
      <trkpt lat="41.3129600" lon="-4.9192580">
        <ele>717.1</ele>
        <time>2019-08-14T14:18:54Z</time>
      </trkpt>
      <trkpt lat="41.3130160" lon="-4.9191930">
        <ele>717.1</ele>
        <time>2019-08-14T14:18:55Z</time>
      </trkpt>
      <trkpt lat="41.3130740" lon="-4.9191250">
        <ele>717.1</ele>
        <time>2019-08-14T14:18:56Z</time>
      </trkpt>
      <trkpt lat="41.3131300" lon="-4.9190550">
        <ele>717.1</ele>
        <time>2019-08-14T14:18:57Z</time>
      </trkpt>
      <trkpt lat="41.3131840" lon="-4.9189840">
        <ele>717.1</ele>
        <time>2019-08-14T14:18:58Z</time>
      </trkpt>
      <trkpt lat="41.3132380" lon="-4.9189070">
        <ele>717.1</ele>
        <time>2019-08-14T14:18:59Z</time>
      </trkpt>
      <trkpt lat="41.3132880" lon="-4.9188390">
        <ele>717.1</ele>
        <time>2019-08-14T14:19:00Z</time>
      </trkpt>
      <trkpt lat="41.3133330" lon="-4.9187820">
        <ele>717.2</ele>
        <time>2019-08-14T14:19:01Z</time>
      </trkpt>
      <trkpt lat="41.3133730" lon="-4.9187260">
        <ele>717.2</ele>
        <time>2019-08-14T14:19:02Z</time>
      </trkpt>
      <trkpt lat="41.3134070" lon="-4.9186800">
        <ele>717.3</ele>
        <time>2019-08-14T14:19:03Z</time>
      </trkpt>
      <trkpt lat="41.3134410" lon="-4.9186350">
        <ele>717.3</ele>
        <time>2019-08-14T14:19:04Z</time>
      </trkpt>
      <trkpt lat="41.3134710" lon="-4.9185940">
        <ele>717.3</ele>
        <time>2019-08-14T14:19:05Z</time>
      </trkpt>
      <trkpt lat="41.3134950" lon="-4.9185530">
        <ele>717.4</ele>
        <time>2019-08-14T14:19:06Z</time>
      </trkpt>
      <trkpt lat="41.3135160" lon="-4.9185200">
        <ele>717.4</ele>
        <time>2019-08-14T14:19:07Z</time>
      </trkpt>
      <trkpt lat="41.3135410" lon="-4.9184850">
        <ele>717.4</ele>
        <time>2019-08-14T14:19:08Z</time>
      </trkpt>
      <trkpt lat="41.3135650" lon="-4.9184500">
        <ele>717.4</ele>
        <time>2019-08-14T14:19:09Z</time>
      </trkpt>
      <trkpt lat="41.3135890" lon="-4.9184180">
        <ele>717.4</ele>
        <time>2019-08-14T14:19:10Z</time>
      </trkpt>
      <trkpt lat="41.3136140" lon="-4.9183880">
        <ele>717.4</ele>
        <time>2019-08-14T14:19:11Z</time>
      </trkpt>
      <trkpt lat="41.3136380" lon="-4.9183600">
        <ele>717.4</ele>
        <time>2019-08-14T14:19:12Z</time>
      </trkpt>
      <trkpt lat="41.3136580" lon="-4.9183310">
        <ele>717.4</ele>
        <time>2019-08-14T14:19:13Z</time>
      </trkpt>
      <trkpt lat="41.3136830" lon="-4.9183020">
        <ele>717.4</ele>
        <time>2019-08-14T14:19:14Z</time>
      </trkpt>
      <trkpt lat="41.3137090" lon="-4.9182710">
        <ele>717.3</ele>
        <time>2019-08-14T14:19:15Z</time>
      </trkpt>
      <trkpt lat="41.3137350" lon="-4.9182380">
        <ele>717.3</ele>
        <time>2019-08-14T14:19:16Z</time>
      </trkpt>
      <trkpt lat="41.3137640" lon="-4.9182060">
        <ele>717.3</ele>
        <time>2019-08-14T14:19:17Z</time>
      </trkpt>
      <trkpt lat="41.3137950" lon="-4.9181760">
        <ele>717.3</ele>
        <time>2019-08-14T14:19:18Z</time>
      </trkpt>
      <trkpt lat="41.3138260" lon="-4.9181470">
        <ele>717.3</ele>
        <time>2019-08-14T14:19:19Z</time>
      </trkpt>
      <trkpt lat="41.3138560" lon="-4.9181170">
        <ele>717.3</ele>
        <time>2019-08-14T14:19:20Z</time>
      </trkpt>
      <trkpt lat="41.3138900" lon="-4.9180890">
        <ele>717.4</ele>
        <time>2019-08-14T14:19:21Z</time>
      </trkpt>
      <trkpt lat="41.3139230" lon="-4.9180620">
        <ele>717.4</ele>
        <time>2019-08-14T14:19:22Z</time>
      </trkpt>
      <trkpt lat="41.3139560" lon="-4.9180350">
        <ele>717.4</ele>
        <time>2019-08-14T14:19:23Z</time>
      </trkpt>
      <trkpt lat="41.3139900" lon="-4.9180060">
        <ele>717.4</ele>
        <time>2019-08-14T14:19:24Z</time>
      </trkpt>
      <trkpt lat="41.3140240" lon="-4.9179760">
        <ele>717.5</ele>
        <time>2019-08-14T14:19:25Z</time>
      </trkpt>
      <trkpt lat="41.3140570" lon="-4.9179490">
        <ele>717.5</ele>
        <time>2019-08-14T14:19:26Z</time>
      </trkpt>
      <trkpt lat="41.3140890" lon="-4.9179230">
        <ele>717.6</ele>
        <time>2019-08-14T14:19:27Z</time>
      </trkpt>
      <trkpt lat="41.3141190" lon="-4.9178980">
        <ele>717.6</ele>
        <time>2019-08-14T14:19:28Z</time>
      </trkpt>
      <trkpt lat="41.3141470" lon="-4.9178740">
        <ele>717.6</ele>
        <time>2019-08-14T14:19:29Z</time>
      </trkpt>
      <trkpt lat="41.3141730" lon="-4.9178520">
        <ele>717.7</ele>
        <time>2019-08-14T14:19:30Z</time>
      </trkpt>
      <trkpt lat="41.3141990" lon="-4.9178270">
        <ele>717.7</ele>
        <time>2019-08-14T14:19:31Z</time>
      </trkpt>
      <trkpt lat="41.3142250" lon="-4.9178010">
        <ele>717.7</ele>
        <time>2019-08-14T14:19:32Z</time>
      </trkpt>
      <trkpt lat="41.3142530" lon="-4.9177750">
        <ele>717.8</ele>
        <time>2019-08-14T14:19:33Z</time>
      </trkpt>
      <trkpt lat="41.3142840" lon="-4.9177460">
        <ele>717.8</ele>
        <time>2019-08-14T14:19:34Z</time>
      </trkpt>
      <trkpt lat="41.3143140" lon="-4.9177170">
        <ele>717.9</ele>
        <time>2019-08-14T14:19:35Z</time>
      </trkpt>
      <trkpt lat="41.3143480" lon="-4.9176860">
        <ele>717.9</ele>
        <time>2019-08-14T14:19:36Z</time>
      </trkpt>
      <trkpt lat="41.3143830" lon="-4.9176530">
        <ele>717.9</ele>
        <time>2019-08-14T14:19:37Z</time>
      </trkpt>
      <trkpt lat="41.3144180" lon="-4.9176210">
        <ele>717.9</ele>
        <time>2019-08-14T14:19:38Z</time>
      </trkpt>
      <trkpt lat="41.3144560" lon="-4.9175860">
        <ele>718.0</ele>
        <time>2019-08-14T14:19:39Z</time>
      </trkpt>
      <trkpt lat="41.3144930" lon="-4.9175520">
        <ele>718.0</ele>
        <time>2019-08-14T14:19:40Z</time>
      </trkpt>
      <trkpt lat="41.3145310" lon="-4.9175190">
        <ele>718.0</ele>
        <time>2019-08-14T14:19:41Z</time>
      </trkpt>
      <trkpt lat="41.3145700" lon="-4.9174840">
        <ele>718.0</ele>
        <time>2019-08-14T14:19:42Z</time>
      </trkpt>
      <trkpt lat="41.3146090" lon="-4.9174500">
        <ele>718.0</ele>
        <time>2019-08-14T14:19:43Z</time>
      </trkpt>
      <trkpt lat="41.3146470" lon="-4.9174170">
        <ele>718.0</ele>
        <time>2019-08-14T14:19:44Z</time>
      </trkpt>
      <trkpt lat="41.3146870" lon="-4.9173930">
        <ele>718.0</ele>
        <time>2019-08-14T14:19:45Z</time>
      </trkpt>
      <trkpt lat="41.3147270" lon="-4.9173750">
        <ele>717.9</ele>
        <time>2019-08-14T14:19:46Z</time>
      </trkpt>
      <trkpt lat="41.3147670" lon="-4.9173620">
        <ele>717.9</ele>
        <time>2019-08-14T14:19:47Z</time>
      </trkpt>
      <trkpt lat="41.3148050" lon="-4.9173490">
        <ele>717.9</ele>
        <time>2019-08-14T14:19:48Z</time>
      </trkpt>
      <trkpt lat="41.3148430" lon="-4.9173380">
        <ele>717.9</ele>
        <time>2019-08-14T14:19:49Z</time>
      </trkpt>
      <trkpt lat="41.3148790" lon="-4.9173260">
        <ele>717.8</ele>
        <time>2019-08-14T14:19:50Z</time>
      </trkpt>
      <trkpt lat="41.3149180" lon="-4.9173160">
        <ele>717.8</ele>
        <time>2019-08-14T14:19:51Z</time>
      </trkpt>
      <trkpt lat="41.3149540" lon="-4.9173050">
        <ele>717.8</ele>
        <time>2019-08-14T14:19:52Z</time>
      </trkpt>
      <trkpt lat="41.3149930" lon="-4.9172970">
        <ele>717.8</ele>
        <time>2019-08-14T14:19:53Z</time>
      </trkpt>
      <trkpt lat="41.3150300" lon="-4.9172880">
        <ele>717.8</ele>
        <time>2019-08-14T14:19:54Z</time>
      </trkpt>
      <trkpt lat="41.3150670" lon="-4.9172820">
        <ele>717.8</ele>
        <time>2019-08-14T14:19:55Z</time>
      </trkpt>
      <trkpt lat="41.3151020" lon="-4.9172770">
        <ele>717.8</ele>
        <time>2019-08-14T14:19:56Z</time>
      </trkpt>
      <trkpt lat="41.3151410" lon="-4.9172720">
        <ele>717.8</ele>
        <time>2019-08-14T14:19:57Z</time>
      </trkpt>
      <trkpt lat="41.3151780" lon="-4.9172650">
        <ele>717.8</ele>
        <time>2019-08-14T14:19:58Z</time>
      </trkpt>
      <trkpt lat="41.3152170" lon="-4.9172590">
        <ele>717.8</ele>
        <time>2019-08-14T14:19:59Z</time>
      </trkpt>
      <trkpt lat="41.3152560" lon="-4.9172550">
        <ele>717.8</ele>
        <time>2019-08-14T14:20:00Z</time>
      </trkpt>
      <trkpt lat="41.3152940" lon="-4.9172520">
        <ele>717.8</ele>
        <time>2019-08-14T14:20:01Z</time>
      </trkpt>
      <trkpt lat="41.3153340" lon="-4.9172530">
        <ele>717.9</ele>
        <time>2019-08-14T14:20:02Z</time>
      </trkpt>
      <trkpt lat="41.3153730" lon="-4.9172560">
        <ele>717.9</ele>
        <time>2019-08-14T14:20:03Z</time>
      </trkpt>
      <trkpt lat="41.3154110" lon="-4.9172600">
        <ele>717.9</ele>
        <time>2019-08-14T14:20:04Z</time>
      </trkpt>
      <trkpt lat="41.3154500" lon="-4.9172650">
        <ele>718.0</ele>
        <time>2019-08-14T14:20:05Z</time>
      </trkpt>
      <trkpt lat="41.3154870" lon="-4.9172680">
        <ele>718.0</ele>
        <time>2019-08-14T14:20:06Z</time>
      </trkpt>
      <trkpt lat="41.3155230" lon="-4.9172710">
        <ele>718.0</ele>
        <time>2019-08-14T14:20:07Z</time>
      </trkpt>
      <trkpt lat="41.3155570" lon="-4.9172740">
        <ele>718.0</ele>
        <time>2019-08-14T14:20:08Z</time>
      </trkpt>
      <trkpt lat="41.3155930" lon="-4.9172740">
        <ele>718.0</ele>
        <time>2019-08-14T14:20:09Z</time>
      </trkpt>
      <trkpt lat="41.3156300" lon="-4.9172750">
        <ele>718.0</ele>
        <time>2019-08-14T14:20:10Z</time>
      </trkpt>
      <trkpt lat="41.3156680" lon="-4.9172780">
        <ele>718.0</ele>
        <time>2019-08-14T14:20:11Z</time>
      </trkpt>
      <trkpt lat="41.3157060" lon="-4.9172800">
        <ele>718.1</ele>
        <time>2019-08-14T14:20:12Z</time>
      </trkpt>
      <trkpt lat="41.3157440" lon="-4.9172800">
        <ele>718.1</ele>
        <time>2019-08-14T14:20:13Z</time>
      </trkpt>
      <trkpt lat="41.3157820" lon="-4.9172780">
        <ele>718.1</ele>
        <time>2019-08-14T14:20:14Z</time>
      </trkpt>
      <trkpt lat="41.3158200" lon="-4.9172800">
        <ele>718.1</ele>
        <time>2019-08-14T14:20:15Z</time>
      </trkpt>
      <trkpt lat="41.3158570" lon="-4.9172800">
        <ele>718.2</ele>
        <time>2019-08-14T14:20:16Z</time>
      </trkpt>
      <trkpt lat="41.3158950" lon="-4.9172830">
        <ele>718.3</ele>
        <time>2019-08-14T14:20:17Z</time>
      </trkpt>
      <trkpt lat="41.3159320" lon="-4.9172840">
        <ele>718.4</ele>
        <time>2019-08-14T14:20:18Z</time>
      </trkpt>
      <trkpt lat="41.3159690" lon="-4.9172850">
        <ele>718.5</ele>
        <time>2019-08-14T14:20:19Z</time>
      </trkpt>
      <trkpt lat="41.3160060" lon="-4.9172870">
        <ele>718.7</ele>
        <time>2019-08-14T14:20:20Z</time>
      </trkpt>
      <trkpt lat="41.3160430" lon="-4.9172880">
        <ele>718.9</ele>
        <time>2019-08-14T14:20:21Z</time>
      </trkpt>
      <trkpt lat="41.3160810" lon="-4.9172890">
        <ele>719.2</ele>
        <time>2019-08-14T14:20:22Z</time>
      </trkpt>
      <trkpt lat="41.3161190" lon="-4.9172890">
        <ele>719.5</ele>
        <time>2019-08-14T14:20:23Z</time>
      </trkpt>
      <trkpt lat="41.3161560" lon="-4.9172890">
        <ele>719.7</ele>
        <time>2019-08-14T14:20:24Z</time>
      </trkpt>
      <trkpt lat="41.3161930" lon="-4.9172880">
        <ele>720.1</ele>
        <time>2019-08-14T14:20:25Z</time>
      </trkpt>
      <trkpt lat="41.3162290" lon="-4.9172850">
        <ele>720.3</ele>
        <time>2019-08-14T14:20:26Z</time>
      </trkpt>
      <trkpt lat="41.3162650" lon="-4.9172820">
        <ele>720.4</ele>
        <time>2019-08-14T14:20:27Z</time>
      </trkpt>
      <trkpt lat="41.3163010" lon="-4.9172790">
        <ele>720.5</ele>
        <time>2019-08-14T14:20:28Z</time>
      </trkpt>
      <trkpt lat="41.3163360" lon="-4.9172760">
        <ele>720.7</ele>
        <time>2019-08-14T14:20:29Z</time>
      </trkpt>
      <trkpt lat="41.3163710" lon="-4.9172740">
        <ele>720.8</ele>
        <time>2019-08-14T14:20:30Z</time>
      </trkpt>
      <trkpt lat="41.3164050" lon="-4.9172700">
        <ele>720.9</ele>
        <time>2019-08-14T14:20:31Z</time>
      </trkpt>
      <trkpt lat="41.3164410" lon="-4.9172670">
        <ele>721.1</ele>
        <time>2019-08-14T14:20:32Z</time>
      </trkpt>
      <trkpt lat="41.3164760" lon="-4.9172630">
        <ele>721.2</ele>
        <time>2019-08-14T14:20:33Z</time>
      </trkpt>
      <trkpt lat="41.3165110" lon="-4.9172590">
        <ele>721.4</ele>
        <time>2019-08-14T14:20:34Z</time>
      </trkpt>
      <trkpt lat="41.3165470" lon="-4.9172540">
        <ele>721.5</ele>
        <time>2019-08-14T14:20:35Z</time>
      </trkpt>
      <trkpt lat="41.3165820" lon="-4.9172490">
        <ele>721.6</ele>
        <time>2019-08-14T14:20:36Z</time>
      </trkpt>
      <trkpt lat="41.3166170" lon="-4.9172440">
        <ele>721.7</ele>
        <time>2019-08-14T14:20:37Z</time>
      </trkpt>
      <trkpt lat="41.3166510" lon="-4.9172380">
        <ele>721.8</ele>
        <time>2019-08-14T14:20:38Z</time>
      </trkpt>
      <trkpt lat="41.3166850" lon="-4.9172330">
        <ele>722.0</ele>
        <time>2019-08-14T14:20:39Z</time>
      </trkpt>
      <trkpt lat="41.3167200" lon="-4.9172270">
        <ele>722.1</ele>
        <time>2019-08-14T14:20:40Z</time>
      </trkpt>
      <trkpt lat="41.3167530" lon="-4.9172200">
        <ele>722.2</ele>
        <time>2019-08-14T14:20:41Z</time>
      </trkpt>
      <trkpt lat="41.3167880" lon="-4.9172140">
        <ele>722.4</ele>
        <time>2019-08-14T14:20:42Z</time>
      </trkpt>
      <trkpt lat="41.3168210" lon="-4.9172090">
        <ele>722.5</ele>
        <time>2019-08-14T14:20:43Z</time>
      </trkpt>
      <trkpt lat="41.3168550" lon="-4.9172050">
        <ele>722.7</ele>
        <time>2019-08-14T14:20:44Z</time>
      </trkpt>
      <trkpt lat="41.3168870" lon="-4.9172030">
        <ele>722.9</ele>
        <time>2019-08-14T14:20:45Z</time>
      </trkpt>
      <trkpt lat="41.3169180" lon="-4.9172010">
        <ele>723.0</ele>
        <time>2019-08-14T14:20:46Z</time>
      </trkpt>
      <trkpt lat="41.3169490" lon="-4.9171950">
        <ele>723.2</ele>
        <time>2019-08-14T14:20:47Z</time>
      </trkpt>
      <trkpt lat="41.3169780" lon="-4.9171880">
        <ele>723.4</ele>
        <time>2019-08-14T14:20:48Z</time>
      </trkpt>
      <trkpt lat="41.3170060" lon="-4.9171810">
        <ele>723.8</ele>
        <time>2019-08-14T14:20:49Z</time>
      </trkpt>
      <trkpt lat="41.3170330" lon="-4.9171740">
        <ele>723.9</ele>
        <time>2019-08-14T14:20:50Z</time>
      </trkpt>
      <trkpt lat="41.3170610" lon="-4.9171690">
        <ele>724.0</ele>
        <time>2019-08-14T14:20:51Z</time>
      </trkpt>
      <trkpt lat="41.3170890" lon="-4.9171640">
        <ele>724.1</ele>
        <time>2019-08-14T14:20:52Z</time>
      </trkpt>
      <trkpt lat="41.3171190" lon="-4.9171560">
        <ele>724.2</ele>
        <time>2019-08-14T14:20:53Z</time>
      </trkpt>
      <trkpt lat="41.3171480" lon="-4.9171490">
        <ele>724.4</ele>
        <time>2019-08-14T14:20:54Z</time>
      </trkpt>
      <trkpt lat="41.3171770" lon="-4.9171400">
        <ele>724.5</ele>
        <time>2019-08-14T14:20:55Z</time>
      </trkpt>
      <trkpt lat="41.3172060" lon="-4.9171350">
        <ele>724.6</ele>
        <time>2019-08-14T14:20:56Z</time>
      </trkpt>
      <trkpt lat="41.3172340" lon="-4.9171290">
        <ele>724.7</ele>
        <time>2019-08-14T14:20:57Z</time>
      </trkpt>
      <trkpt lat="41.3172640" lon="-4.9171230">
        <ele>725.1</ele>
        <time>2019-08-14T14:20:58Z</time>
      </trkpt>
      <trkpt lat="41.3172930" lon="-4.9171190">
        <ele>725.2</ele>
        <time>2019-08-14T14:20:59Z</time>
      </trkpt>
      <trkpt lat="41.3173210" lon="-4.9171150">
        <ele>725.4</ele>
        <time>2019-08-14T14:21:00Z</time>
      </trkpt>
      <trkpt lat="41.3173480" lon="-4.9171110">
        <ele>725.6</ele>
        <time>2019-08-14T14:21:01Z</time>
      </trkpt>
      <trkpt lat="41.3174010" lon="-4.9170990">
        <ele>725.9</ele>
        <time>2019-08-14T14:21:03Z</time>
      </trkpt>
      <trkpt lat="41.3174480" lon="-4.9170710">
        <ele>726.1</ele>
        <time>2019-08-14T14:21:05Z</time>
      </trkpt>
      <trkpt lat="41.3174880" lon="-4.9170260">
        <ele>726.2</ele>
        <time>2019-08-14T14:21:07Z</time>
      </trkpt>
      <trkpt lat="41.3175070" lon="-4.9170000">
        <ele>726.3</ele>
        <time>2019-08-14T14:21:08Z</time>
      </trkpt>
      <trkpt lat="41.3175410" lon="-4.9169500">
        <ele>726.5</ele>
        <time>2019-08-14T14:21:10Z</time>
      </trkpt>
      <trkpt lat="41.3175710" lon="-4.9168990">
        <ele>726.6</ele>
        <time>2019-08-14T14:21:12Z</time>
      </trkpt>
      <trkpt lat="41.3176010" lon="-4.9168520">
        <ele>726.7</ele>
        <time>2019-08-14T14:21:14Z</time>
      </trkpt>
      <trkpt lat="41.3176370" lon="-4.9168120">
        <ele>726.9</ele>
        <time>2019-08-14T14:21:16Z</time>
      </trkpt>
      <trkpt lat="41.3176900" lon="-4.9168070">
        <ele>727.0</ele>
        <time>2019-08-14T14:21:18Z</time>
      </trkpt>
      <trkpt lat="41.3177190" lon="-4.9168160">
        <ele>727.2</ele>
        <time>2019-08-14T14:21:19Z</time>
      </trkpt>
      <trkpt lat="41.3177490" lon="-4.9168310">
        <ele>727.2</ele>
        <time>2019-08-14T14:21:20Z</time>
      </trkpt>
      <trkpt lat="41.3177770" lon="-4.9168510">
        <ele>727.1</ele>
        <time>2019-08-14T14:21:21Z</time>
      </trkpt>
      <trkpt lat="41.3178060" lon="-4.9168760">
        <ele>727.1</ele>
        <time>2019-08-14T14:21:22Z</time>
      </trkpt>
      <trkpt lat="41.3178340" lon="-4.9169030">
        <ele>727.1</ele>
        <time>2019-08-14T14:21:23Z</time>
      </trkpt>
      <trkpt lat="41.3178630" lon="-4.9169320">
        <ele>727.1</ele>
        <time>2019-08-14T14:21:24Z</time>
      </trkpt>
      <trkpt lat="41.3178920" lon="-4.9169610">
        <ele>727.1</ele>
        <time>2019-08-14T14:21:25Z</time>
      </trkpt>
      <trkpt lat="41.3179190" lon="-4.9169890">
        <ele>727.1</ele>
        <time>2019-08-14T14:21:26Z</time>
      </trkpt>
      <trkpt lat="41.3179440" lon="-4.9170130">
        <ele>727.1</ele>
        <time>2019-08-14T14:21:27Z</time>
      </trkpt>
      <trkpt lat="41.3179700" lon="-4.9170370">
        <ele>727.1</ele>
        <time>2019-08-14T14:21:28Z</time>
      </trkpt>
      <trkpt lat="41.3179960" lon="-4.9170640">
        <ele>727.1</ele>
        <time>2019-08-14T14:21:29Z</time>
      </trkpt>
      <trkpt lat="41.3180220" lon="-4.9170920">
        <ele>727.1</ele>
        <time>2019-08-14T14:21:30Z</time>
      </trkpt>
      <trkpt lat="41.3180500" lon="-4.9171190">
        <ele>727.1</ele>
        <time>2019-08-14T14:21:31Z</time>
      </trkpt>
      <trkpt lat="41.3180790" lon="-4.9171480">
        <ele>727.1</ele>
        <time>2019-08-14T14:21:32Z</time>
      </trkpt>
      <trkpt lat="41.3181080" lon="-4.9171770">
        <ele>727.1</ele>
        <time>2019-08-14T14:21:33Z</time>
      </trkpt>
      <trkpt lat="41.3181370" lon="-4.9172080">
        <ele>727.1</ele>
        <time>2019-08-14T14:21:34Z</time>
      </trkpt>
      <trkpt lat="41.3181660" lon="-4.9172380">
        <ele>727.1</ele>
        <time>2019-08-14T14:21:35Z</time>
      </trkpt>
      <trkpt lat="41.3181930" lon="-4.9172660">
        <ele>727.1</ele>
        <time>2019-08-14T14:21:36Z</time>
      </trkpt>
      <trkpt lat="41.3182200" lon="-4.9172950">
        <ele>727.1</ele>
        <time>2019-08-14T14:21:37Z</time>
      </trkpt>
      <trkpt lat="41.3182480" lon="-4.9173260">
        <ele>727.1</ele>
        <time>2019-08-14T14:21:38Z</time>
      </trkpt>
      <trkpt lat="41.3182760" lon="-4.9173570">
        <ele>727.1</ele>
        <time>2019-08-14T14:21:39Z</time>
      </trkpt>
      <trkpt lat="41.3183040" lon="-4.9173890">
        <ele>727.2</ele>
        <time>2019-08-14T14:21:40Z</time>
      </trkpt>
      <trkpt lat="41.3183330" lon="-4.9174210">
        <ele>727.2</ele>
        <time>2019-08-14T14:21:41Z</time>
      </trkpt>
      <trkpt lat="41.3183610" lon="-4.9174530">
        <ele>727.2</ele>
        <time>2019-08-14T14:21:42Z</time>
      </trkpt>
      <trkpt lat="41.3183910" lon="-4.9174840">
        <ele>727.2</ele>
        <time>2019-08-14T14:21:43Z</time>
      </trkpt>
      <trkpt lat="41.3184220" lon="-4.9175150">
        <ele>727.3</ele>
        <time>2019-08-14T14:21:44Z</time>
      </trkpt>
      <trkpt lat="41.3184510" lon="-4.9175470">
        <ele>727.3</ele>
        <time>2019-08-14T14:21:45Z</time>
      </trkpt>
      <trkpt lat="41.3184810" lon="-4.9175780">
        <ele>727.3</ele>
        <time>2019-08-14T14:21:46Z</time>
      </trkpt>
      <trkpt lat="41.3185090" lon="-4.9176090">
        <ele>727.3</ele>
        <time>2019-08-14T14:21:47Z</time>
      </trkpt>
      <trkpt lat="41.3185370" lon="-4.9176390">
        <ele>727.4</ele>
        <time>2019-08-14T14:21:48Z</time>
      </trkpt>
      <trkpt lat="41.3185640" lon="-4.9176670">
        <ele>727.4</ele>
        <time>2019-08-14T14:21:49Z</time>
      </trkpt>
      <trkpt lat="41.3185890" lon="-4.9176910">
        <ele>727.4</ele>
        <time>2019-08-14T14:21:50Z</time>
      </trkpt>
      <trkpt lat="41.3186130" lon="-4.9177110">
        <ele>727.5</ele>
        <time>2019-08-14T14:21:51Z</time>
      </trkpt>
      <trkpt lat="41.3186560" lon="-4.9177500">
        <ele>727.5</ele>
        <time>2019-08-14T14:21:53Z</time>
      </trkpt>
      <trkpt lat="41.3186770" lon="-4.9177750">
        <ele>727.5</ele>
        <time>2019-08-14T14:21:54Z</time>
      </trkpt>
      <trkpt lat="41.3186980" lon="-4.9178030">
        <ele>727.6</ele>
        <time>2019-08-14T14:21:55Z</time>
      </trkpt>
      <trkpt lat="41.3187190" lon="-4.9178310">
        <ele>727.6</ele>
        <time>2019-08-14T14:21:56Z</time>
      </trkpt>
      <trkpt lat="41.3187420" lon="-4.9178570">
        <ele>727.6</ele>
        <time>2019-08-14T14:21:57Z</time>
      </trkpt>
      <trkpt lat="41.3187840" lon="-4.9178940">
        <ele>727.7</ele>
        <time>2019-08-14T14:21:59Z</time>
      </trkpt>
      <trkpt lat="41.3188100" lon="-4.9179040">
        <ele>727.7</ele>
        <time>2019-08-14T14:22:00Z</time>
      </trkpt>
      <trkpt lat="41.3188400" lon="-4.9179170">
        <ele>727.8</ele>
        <time>2019-08-14T14:22:01Z</time>
      </trkpt>
      <trkpt lat="41.3188700" lon="-4.9179370">
        <ele>727.8</ele>
        <time>2019-08-14T14:22:02Z</time>
      </trkpt>
      <trkpt lat="41.3189000" lon="-4.9179630">
        <ele>727.8</ele>
        <time>2019-08-14T14:22:03Z</time>
      </trkpt>
      <trkpt lat="41.3189310" lon="-4.9179940">
        <ele>727.9</ele>
        <time>2019-08-14T14:22:04Z</time>
      </trkpt>
      <trkpt lat="41.3189620" lon="-4.9180240">
        <ele>727.9</ele>
        <time>2019-08-14T14:22:05Z</time>
      </trkpt>
      <trkpt lat="41.3189940" lon="-4.9180530">
        <ele>727.9</ele>
        <time>2019-08-14T14:22:06Z</time>
      </trkpt>
      <trkpt lat="41.3190240" lon="-4.9180810">
        <ele>728.0</ele>
        <time>2019-08-14T14:22:07Z</time>
      </trkpt>
      <trkpt lat="41.3190520" lon="-4.9181100">
        <ele>728.0</ele>
        <time>2019-08-14T14:22:08Z</time>
      </trkpt>
      <trkpt lat="41.3190810" lon="-4.9181370">
        <ele>728.1</ele>
        <time>2019-08-14T14:22:09Z</time>
      </trkpt>
      <trkpt lat="41.3191110" lon="-4.9181680">
        <ele>728.1</ele>
        <time>2019-08-14T14:22:10Z</time>
      </trkpt>
      <trkpt lat="41.3191430" lon="-4.9182000">
        <ele>728.2</ele>
        <time>2019-08-14T14:22:11Z</time>
      </trkpt>
      <trkpt lat="41.3191750" lon="-4.9182340">
        <ele>728.2</ele>
        <time>2019-08-14T14:22:12Z</time>
      </trkpt>
      <trkpt lat="41.3192060" lon="-4.9182680">
        <ele>728.3</ele>
        <time>2019-08-14T14:22:13Z</time>
      </trkpt>
      <trkpt lat="41.3192370" lon="-4.9183020">
        <ele>728.3</ele>
        <time>2019-08-14T14:22:14Z</time>
      </trkpt>
      <trkpt lat="41.3192660" lon="-4.9183340">
        <ele>728.4</ele>
        <time>2019-08-14T14:22:15Z</time>
      </trkpt>
      <trkpt lat="41.3192940" lon="-4.9183660">
        <ele>728.4</ele>
        <time>2019-08-14T14:22:16Z</time>
      </trkpt>
      <trkpt lat="41.3193230" lon="-4.9183970">
        <ele>728.4</ele>
        <time>2019-08-14T14:22:17Z</time>
      </trkpt>
      <trkpt lat="41.3193510" lon="-4.9184290">
        <ele>728.5</ele>
        <time>2019-08-14T14:22:18Z</time>
      </trkpt>
      <trkpt lat="41.3193810" lon="-4.9184630">
        <ele>728.5</ele>
        <time>2019-08-14T14:22:19Z</time>
      </trkpt>
      <trkpt lat="41.3194120" lon="-4.9184970">
        <ele>728.6</ele>
        <time>2019-08-14T14:22:20Z</time>
      </trkpt>
      <trkpt lat="41.3194450" lon="-4.9185310">
        <ele>728.7</ele>
        <time>2019-08-14T14:22:21Z</time>
      </trkpt>
      <trkpt lat="41.3194770" lon="-4.9185660">
        <ele>728.7</ele>
        <time>2019-08-14T14:22:22Z</time>
      </trkpt>
      <trkpt lat="41.3195090" lon="-4.9186010">
        <ele>728.8</ele>
        <time>2019-08-14T14:22:23Z</time>
      </trkpt>
      <trkpt lat="41.3195430" lon="-4.9186380">
        <ele>728.8</ele>
        <time>2019-08-14T14:22:24Z</time>
      </trkpt>
      <trkpt lat="41.3195760" lon="-4.9186740">
        <ele>728.8</ele>
        <time>2019-08-14T14:22:25Z</time>
      </trkpt>
      <trkpt lat="41.3196100" lon="-4.9187090">
        <ele>728.8</ele>
        <time>2019-08-14T14:22:26Z</time>
      </trkpt>
      <trkpt lat="41.3196430" lon="-4.9187430">
        <ele>728.7</ele>
        <time>2019-08-14T14:22:27Z</time>
      </trkpt>
      <trkpt lat="41.3196750" lon="-4.9187750">
        <ele>728.7</ele>
        <time>2019-08-14T14:22:28Z</time>
      </trkpt>
      <trkpt lat="41.3197050" lon="-4.9188040">
        <ele>728.6</ele>
        <time>2019-08-14T14:22:29Z</time>
      </trkpt>
      <trkpt lat="41.3197350" lon="-4.9188350">
        <ele>728.6</ele>
        <time>2019-08-14T14:22:30Z</time>
      </trkpt>
      <trkpt lat="41.3197640" lon="-4.9188660">
        <ele>728.5</ele>
        <time>2019-08-14T14:22:31Z</time>
      </trkpt>
      <trkpt lat="41.3197940" lon="-4.9188970">
        <ele>728.5</ele>
        <time>2019-08-14T14:22:32Z</time>
      </trkpt>
      <trkpt lat="41.3198250" lon="-4.9189300">
        <ele>728.4</ele>
        <time>2019-08-14T14:22:33Z</time>
      </trkpt>
      <trkpt lat="41.3198580" lon="-4.9189630">
        <ele>728.4</ele>
        <time>2019-08-14T14:22:34Z</time>
      </trkpt>
      <trkpt lat="41.3198920" lon="-4.9189970">
        <ele>728.3</ele>
        <time>2019-08-14T14:22:35Z</time>
      </trkpt>
      <trkpt lat="41.3199270" lon="-4.9190310">
        <ele>728.3</ele>
        <time>2019-08-14T14:22:36Z</time>
      </trkpt>
      <trkpt lat="41.3199630" lon="-4.9190660">
        <ele>728.3</ele>
        <time>2019-08-14T14:22:37Z</time>
      </trkpt>
      <trkpt lat="41.3199970" lon="-4.9191050">
        <ele>728.2</ele>
        <time>2019-08-14T14:22:38Z</time>
      </trkpt>
      <trkpt lat="41.3200330" lon="-4.9191430">
        <ele>728.2</ele>
        <time>2019-08-14T14:22:39Z</time>
      </trkpt>
      <trkpt lat="41.3200680" lon="-4.9191810">
        <ele>728.2</ele>
        <time>2019-08-14T14:22:40Z</time>
      </trkpt>
      <trkpt lat="41.3201030" lon="-4.9192170">
        <ele>728.2</ele>
        <time>2019-08-14T14:22:41Z</time>
      </trkpt>
      <trkpt lat="41.3201380" lon="-4.9192530">
        <ele>728.2</ele>
        <time>2019-08-14T14:22:42Z</time>
      </trkpt>
      <trkpt lat="41.3201720" lon="-4.9192860">
        <ele>728.3</ele>
        <time>2019-08-14T14:22:43Z</time>
      </trkpt>
      <trkpt lat="41.3202040" lon="-4.9193180">
        <ele>728.3</ele>
        <time>2019-08-14T14:22:44Z</time>
      </trkpt>
      <trkpt lat="41.3202370" lon="-4.9193500">
        <ele>728.3</ele>
        <time>2019-08-14T14:22:45Z</time>
      </trkpt>
      <trkpt lat="41.3202700" lon="-4.9193820">
        <ele>728.3</ele>
        <time>2019-08-14T14:22:46Z</time>
      </trkpt>
      <trkpt lat="41.3203010" lon="-4.9194130">
        <ele>728.3</ele>
        <time>2019-08-14T14:22:47Z</time>
      </trkpt>
      <trkpt lat="41.3203300" lon="-4.9194460">
        <ele>728.3</ele>
        <time>2019-08-14T14:22:48Z</time>
      </trkpt>
      <trkpt lat="41.3203590" lon="-4.9194780">
        <ele>728.3</ele>
        <time>2019-08-14T14:22:49Z</time>
      </trkpt>
      <trkpt lat="41.3203870" lon="-4.9195110">
        <ele>728.2</ele>
        <time>2019-08-14T14:22:50Z</time>
      </trkpt>
      <trkpt lat="41.3204130" lon="-4.9195460">
        <ele>728.2</ele>
        <time>2019-08-14T14:22:51Z</time>
      </trkpt>
      <trkpt lat="41.3204390" lon="-4.9195790">
        <ele>728.1</ele>
        <time>2019-08-14T14:22:52Z</time>
      </trkpt>
      <trkpt lat="41.3204660" lon="-4.9196100">
        <ele>728.1</ele>
        <time>2019-08-14T14:22:53Z</time>
      </trkpt>
      <trkpt lat="41.3204950" lon="-4.9196440">
        <ele>728.0</ele>
        <time>2019-08-14T14:22:54Z</time>
      </trkpt>
      <trkpt lat="41.3205260" lon="-4.9196790">
        <ele>728.0</ele>
        <time>2019-08-14T14:22:55Z</time>
      </trkpt>
      <trkpt lat="41.3205600" lon="-4.9197140">
        <ele>728.0</ele>
        <time>2019-08-14T14:22:56Z</time>
      </trkpt>
      <trkpt lat="41.3205950" lon="-4.9197530">
        <ele>727.9</ele>
        <time>2019-08-14T14:22:57Z</time>
      </trkpt>
      <trkpt lat="41.3206310" lon="-4.9197920">
        <ele>727.9</ele>
        <time>2019-08-14T14:22:58Z</time>
      </trkpt>
      <trkpt lat="41.3206690" lon="-4.9198310">
        <ele>727.9</ele>
        <time>2019-08-14T14:22:59Z</time>
      </trkpt>
      <trkpt lat="41.3207070" lon="-4.9198690">
        <ele>728.0</ele>
        <time>2019-08-14T14:23:00Z</time>
      </trkpt>
      <trkpt lat="41.3207430" lon="-4.9199050">
        <ele>728.0</ele>
        <time>2019-08-14T14:23:01Z</time>
      </trkpt>
      <trkpt lat="41.3207780" lon="-4.9199430">
        <ele>728.0</ele>
        <time>2019-08-14T14:23:02Z</time>
      </trkpt>
      <trkpt lat="41.3208130" lon="-4.9199810">
        <ele>728.1</ele>
        <time>2019-08-14T14:23:03Z</time>
      </trkpt>
      <trkpt lat="41.3208460" lon="-4.9200170">
        <ele>728.1</ele>
        <time>2019-08-14T14:23:04Z</time>
      </trkpt>
      <trkpt lat="41.3208770" lon="-4.9200510">
        <ele>728.1</ele>
        <time>2019-08-14T14:23:05Z</time>
      </trkpt>
      <trkpt lat="41.3209080" lon="-4.9200860">
        <ele>728.1</ele>
        <time>2019-08-14T14:23:06Z</time>
      </trkpt>
      <trkpt lat="41.3209400" lon="-4.9201210">
        <ele>728.1</ele>
        <time>2019-08-14T14:23:07Z</time>
      </trkpt>
      <trkpt lat="41.3209730" lon="-4.9201550">
        <ele>728.2</ele>
        <time>2019-08-14T14:23:08Z</time>
      </trkpt>
      <trkpt lat="41.3210050" lon="-4.9201880">
        <ele>728.2</ele>
        <time>2019-08-14T14:23:09Z</time>
      </trkpt>
      <trkpt lat="41.3210370" lon="-4.9202210">
        <ele>728.2</ele>
        <time>2019-08-14T14:23:10Z</time>
      </trkpt>
      <trkpt lat="41.3210700" lon="-4.9202530">
        <ele>728.2</ele>
        <time>2019-08-14T14:23:11Z</time>
      </trkpt>
      <trkpt lat="41.3211010" lon="-4.9202850">
        <ele>728.3</ele>
        <time>2019-08-14T14:23:12Z</time>
      </trkpt>
      <trkpt lat="41.3211310" lon="-4.9203160">
        <ele>728.3</ele>
        <time>2019-08-14T14:23:13Z</time>
      </trkpt>
      <trkpt lat="41.3211600" lon="-4.9203460">
        <ele>728.3</ele>
        <time>2019-08-14T14:23:14Z</time>
      </trkpt>
      <trkpt lat="41.3211850" lon="-4.9203740">
        <ele>728.4</ele>
        <time>2019-08-14T14:23:15Z</time>
      </trkpt>
      <trkpt lat="41.3212100" lon="-4.9203990">
        <ele>728.4</ele>
        <time>2019-08-14T14:23:16Z</time>
      </trkpt>
      <trkpt lat="41.3212320" lon="-4.9204240">
        <ele>728.5</ele>
        <time>2019-08-14T14:23:17Z</time>
      </trkpt>
      <trkpt lat="41.3212670" lon="-4.9204620">
        <ele>728.5</ele>
        <time>2019-08-14T14:23:19Z</time>
      </trkpt>
      <trkpt lat="41.3212960" lon="-4.9204970">
        <ele>728.7</ele>
        <time>2019-08-14T14:23:21Z</time>
      </trkpt>
      <trkpt lat="41.3213310" lon="-4.9205370">
        <ele>728.7</ele>
        <time>2019-08-14T14:23:23Z</time>
      </trkpt>
      <trkpt lat="41.3213530" lon="-4.9205580">
        <ele>728.7</ele>
        <time>2019-08-14T14:23:24Z</time>
      </trkpt>
      <trkpt lat="41.3213770" lon="-4.9205810">
        <ele>728.8</ele>
        <time>2019-08-14T14:23:25Z</time>
      </trkpt>
      <trkpt lat="41.3214020" lon="-4.9206050">
        <ele>728.8</ele>
        <time>2019-08-14T14:23:26Z</time>
      </trkpt>
      <trkpt lat="41.3214270" lon="-4.9206310">
        <ele>728.8</ele>
        <time>2019-08-14T14:23:27Z</time>
      </trkpt>
      <trkpt lat="41.3214520" lon="-4.9206560">
        <ele>728.8</ele>
        <time>2019-08-14T14:23:28Z</time>
      </trkpt>
      <trkpt lat="41.3214770" lon="-4.9206790">
        <ele>728.9</ele>
        <time>2019-08-14T14:23:29Z</time>
      </trkpt>
      <trkpt lat="41.3215010" lon="-4.9206990">
        <ele>728.9</ele>
        <time>2019-08-14T14:23:30Z</time>
      </trkpt>
      <trkpt lat="41.3215250" lon="-4.9207210">
        <ele>728.9</ele>
        <time>2019-08-14T14:23:31Z</time>
      </trkpt>
      <trkpt lat="41.3215490" lon="-4.9207460">
        <ele>728.9</ele>
        <time>2019-08-14T14:23:32Z</time>
      </trkpt>
      <trkpt lat="41.3215740" lon="-4.9207740">
        <ele>728.9</ele>
        <time>2019-08-14T14:23:33Z</time>
      </trkpt>
      <trkpt lat="41.3216000" lon="-4.9208020">
        <ele>729.0</ele>
        <time>2019-08-14T14:23:34Z</time>
      </trkpt>
      <trkpt lat="41.3216260" lon="-4.9208300">
        <ele>729.0</ele>
        <time>2019-08-14T14:23:35Z</time>
      </trkpt>
      <trkpt lat="41.3216530" lon="-4.9208590">
        <ele>729.0</ele>
        <time>2019-08-14T14:23:36Z</time>
      </trkpt>
      <trkpt lat="41.3216800" lon="-4.9208880">
        <ele>729.0</ele>
        <time>2019-08-14T14:23:37Z</time>
      </trkpt>
      <trkpt lat="41.3217070" lon="-4.9209180">
        <ele>729.0</ele>
        <time>2019-08-14T14:23:38Z</time>
      </trkpt>
      <trkpt lat="41.3217340" lon="-4.9209480">
        <ele>729.0</ele>
        <time>2019-08-14T14:23:39Z</time>
      </trkpt>
      <trkpt lat="41.3217610" lon="-4.9209780">
        <ele>729.0</ele>
        <time>2019-08-14T14:23:40Z</time>
      </trkpt>
      <trkpt lat="41.3217870" lon="-4.9210080">
        <ele>729.0</ele>
        <time>2019-08-14T14:23:41Z</time>
      </trkpt>
      <trkpt lat="41.3218130" lon="-4.9210380">
        <ele>729.0</ele>
        <time>2019-08-14T14:23:42Z</time>
      </trkpt>
      <trkpt lat="41.3218390" lon="-4.9210650">
        <ele>729.0</ele>
        <time>2019-08-14T14:23:43Z</time>
      </trkpt>
      <trkpt lat="41.3218650" lon="-4.9210890">
        <ele>729.0</ele>
        <time>2019-08-14T14:23:44Z</time>
      </trkpt>
      <trkpt lat="41.3218890" lon="-4.9211130">
        <ele>729.0</ele>
        <time>2019-08-14T14:23:45Z</time>
      </trkpt>
      <trkpt lat="41.3219110" lon="-4.9211370">
        <ele>729.0</ele>
        <time>2019-08-14T14:23:46Z</time>
      </trkpt>
      <trkpt lat="41.3219320" lon="-4.9211590">
        <ele>729.0</ele>
        <time>2019-08-14T14:23:47Z</time>
      </trkpt>
      <trkpt lat="41.3219710" lon="-4.9212020">
        <ele>729.0</ele>
        <time>2019-08-14T14:23:49Z</time>
      </trkpt>
      <trkpt lat="41.3220060" lon="-4.9212400">
        <ele>729.0</ele>
        <time>2019-08-14T14:23:51Z</time>
      </trkpt>
      <trkpt lat="41.3220450" lon="-4.9212750">
        <ele>729.0</ele>
        <time>2019-08-14T14:23:53Z</time>
      </trkpt>
      <trkpt lat="41.3220650" lon="-4.9212980">
        <ele>728.9</ele>
        <time>2019-08-14T14:23:54Z</time>
      </trkpt>
      <trkpt lat="41.3220870" lon="-4.9213230">
        <ele>728.9</ele>
        <time>2019-08-14T14:23:55Z</time>
      </trkpt>
      <trkpt lat="41.3221100" lon="-4.9213490">
        <ele>728.9</ele>
        <time>2019-08-14T14:23:56Z</time>
      </trkpt>
      <trkpt lat="41.3221350" lon="-4.9213750">
        <ele>728.8</ele>
        <time>2019-08-14T14:23:57Z</time>
      </trkpt>
      <trkpt lat="41.3221600" lon="-4.9214020">
        <ele>728.8</ele>
        <time>2019-08-14T14:23:58Z</time>
      </trkpt>
      <trkpt lat="41.3221860" lon="-4.9214290">
        <ele>728.8</ele>
        <time>2019-08-14T14:23:59Z</time>
      </trkpt>
      <trkpt lat="41.3222140" lon="-4.9214580">
        <ele>728.7</ele>
        <time>2019-08-14T14:24:00Z</time>
      </trkpt>
      <trkpt lat="41.3222410" lon="-4.9214880">
        <ele>728.7</ele>
        <time>2019-08-14T14:24:01Z</time>
      </trkpt>
      <trkpt lat="41.3222700" lon="-4.9215200">
        <ele>728.7</ele>
        <time>2019-08-14T14:24:02Z</time>
      </trkpt>
      <trkpt lat="41.3223000" lon="-4.9215530">
        <ele>728.6</ele>
        <time>2019-08-14T14:24:03Z</time>
      </trkpt>
      <trkpt lat="41.3223310" lon="-4.9215850">
        <ele>728.6</ele>
        <time>2019-08-14T14:24:04Z</time>
      </trkpt>
      <trkpt lat="41.3223630" lon="-4.9216190">
        <ele>728.6</ele>
        <time>2019-08-14T14:24:05Z</time>
      </trkpt>
      <trkpt lat="41.3223950" lon="-4.9216520">
        <ele>728.5</ele>
        <time>2019-08-14T14:24:06Z</time>
      </trkpt>
      <trkpt lat="41.3224270" lon="-4.9216870">
        <ele>728.5</ele>
        <time>2019-08-14T14:24:07Z</time>
      </trkpt>
      <trkpt lat="41.3224580" lon="-4.9217200">
        <ele>728.4</ele>
        <time>2019-08-14T14:24:08Z</time>
      </trkpt>
      <trkpt lat="41.3224900" lon="-4.9217540">
        <ele>728.4</ele>
        <time>2019-08-14T14:24:09Z</time>
      </trkpt>
      <trkpt lat="41.3225220" lon="-4.9217870">
        <ele>728.4</ele>
        <time>2019-08-14T14:24:10Z</time>
      </trkpt>
      <trkpt lat="41.3225540" lon="-4.9218210">
        <ele>728.3</ele>
        <time>2019-08-14T14:24:11Z</time>
      </trkpt>
      <trkpt lat="41.3225870" lon="-4.9218550">
        <ele>728.3</ele>
        <time>2019-08-14T14:24:12Z</time>
      </trkpt>
      <trkpt lat="41.3226200" lon="-4.9218900">
        <ele>728.2</ele>
        <time>2019-08-14T14:24:13Z</time>
      </trkpt>
      <trkpt lat="41.3226550" lon="-4.9219250">
        <ele>728.2</ele>
        <time>2019-08-14T14:24:14Z</time>
      </trkpt>
      <trkpt lat="41.3226890" lon="-4.9219590">
        <ele>728.2</ele>
        <time>2019-08-14T14:24:15Z</time>
      </trkpt>
      <trkpt lat="41.3227220" lon="-4.9219950">
        <ele>728.1</ele>
        <time>2019-08-14T14:24:16Z</time>
      </trkpt>
      <trkpt lat="41.3227530" lon="-4.9220310">
        <ele>728.1</ele>
        <time>2019-08-14T14:24:17Z</time>
      </trkpt>
      <trkpt lat="41.3227860" lon="-4.9220650">
        <ele>728.0</ele>
        <time>2019-08-14T14:24:18Z</time>
      </trkpt>
      <trkpt lat="41.3228190" lon="-4.9221000">
        <ele>728.0</ele>
        <time>2019-08-14T14:24:19Z</time>
      </trkpt>
      <trkpt lat="41.3228530" lon="-4.9221360">
        <ele>728.0</ele>
        <time>2019-08-14T14:24:20Z</time>
      </trkpt>
      <trkpt lat="41.3228870" lon="-4.9221720">
        <ele>727.9</ele>
        <time>2019-08-14T14:24:21Z</time>
      </trkpt>
      <trkpt lat="41.3229210" lon="-4.9222070">
        <ele>727.9</ele>
        <time>2019-08-14T14:24:22Z</time>
      </trkpt>
      <trkpt lat="41.3229540" lon="-4.9222410">
        <ele>727.8</ele>
        <time>2019-08-14T14:24:23Z</time>
      </trkpt>
      <trkpt lat="41.3229850" lon="-4.9222770">
        <ele>727.8</ele>
        <time>2019-08-14T14:24:24Z</time>
      </trkpt>
      <trkpt lat="41.3230160" lon="-4.9223100">
        <ele>727.8</ele>
        <time>2019-08-14T14:24:25Z</time>
      </trkpt>
      <trkpt lat="41.3230470" lon="-4.9223430">
        <ele>727.8</ele>
        <time>2019-08-14T14:24:26Z</time>
      </trkpt>
      <trkpt lat="41.3230790" lon="-4.9223770">
        <ele>727.8</ele>
        <time>2019-08-14T14:24:27Z</time>
      </trkpt>
      <trkpt lat="41.3231120" lon="-4.9224110">
        <ele>727.8</ele>
        <time>2019-08-14T14:24:28Z</time>
      </trkpt>
      <trkpt lat="41.3231460" lon="-4.9224460">
        <ele>727.8</ele>
        <time>2019-08-14T14:24:29Z</time>
      </trkpt>
      <trkpt lat="41.3231810" lon="-4.9224820">
        <ele>727.8</ele>
        <time>2019-08-14T14:24:30Z</time>
      </trkpt>
      <trkpt lat="41.3232160" lon="-4.9225190">
        <ele>727.9</ele>
        <time>2019-08-14T14:24:31Z</time>
      </trkpt>
      <trkpt lat="41.3232510" lon="-4.9225560">
        <ele>728.0</ele>
        <time>2019-08-14T14:24:32Z</time>
      </trkpt>
      <trkpt lat="41.3232860" lon="-4.9225930">
        <ele>728.1</ele>
        <time>2019-08-14T14:24:33Z</time>
      </trkpt>
      <trkpt lat="41.3233210" lon="-4.9226280">
        <ele>728.2</ele>
        <time>2019-08-14T14:24:34Z</time>
      </trkpt>
      <trkpt lat="41.3233580" lon="-4.9226630">
        <ele>728.4</ele>
        <time>2019-08-14T14:24:35Z</time>
      </trkpt>
      <trkpt lat="41.3233940" lon="-4.9226990">
        <ele>728.5</ele>
        <time>2019-08-14T14:24:36Z</time>
      </trkpt>
      <trkpt lat="41.3234290" lon="-4.9227350">
        <ele>728.6</ele>
        <time>2019-08-14T14:24:37Z</time>
      </trkpt>
      <trkpt lat="41.3234630" lon="-4.9227710">
        <ele>728.7</ele>
        <time>2019-08-14T14:24:38Z</time>
      </trkpt>
      <trkpt lat="41.3234970" lon="-4.9228040">
        <ele>728.8</ele>
        <time>2019-08-14T14:24:39Z</time>
      </trkpt>
      <trkpt lat="41.3235300" lon="-4.9228380">
        <ele>729.0</ele>
        <time>2019-08-14T14:24:40Z</time>
      </trkpt>
      <trkpt lat="41.3235640" lon="-4.9228720">
        <ele>729.1</ele>
        <time>2019-08-14T14:24:41Z</time>
      </trkpt>
      <trkpt lat="41.3235990" lon="-4.9229050">
        <ele>729.2</ele>
        <time>2019-08-14T14:24:42Z</time>
      </trkpt>
      <trkpt lat="41.3236340" lon="-4.9229420">
        <ele>729.3</ele>
        <time>2019-08-14T14:24:43Z</time>
      </trkpt>
      <trkpt lat="41.3236690" lon="-4.9229790">
        <ele>729.5</ele>
        <time>2019-08-14T14:24:44Z</time>
      </trkpt>
      <trkpt lat="41.3237040" lon="-4.9230160">
        <ele>729.5</ele>
        <time>2019-08-14T14:24:45Z</time>
      </trkpt>
      <trkpt lat="41.3237380" lon="-4.9230550">
        <ele>729.6</ele>
        <time>2019-08-14T14:24:46Z</time>
      </trkpt>
      <trkpt lat="41.3237730" lon="-4.9230920">
        <ele>729.8</ele>
        <time>2019-08-14T14:24:47Z</time>
      </trkpt>
      <trkpt lat="41.3238060" lon="-4.9231280">
        <ele>729.8</ele>
        <time>2019-08-14T14:24:48Z</time>
      </trkpt>
      <trkpt lat="41.3238390" lon="-4.9231640">
        <ele>729.8</ele>
        <time>2019-08-14T14:24:49Z</time>
      </trkpt>
      <trkpt lat="41.3238720" lon="-4.9232000">
        <ele>729.8</ele>
        <time>2019-08-14T14:24:50Z</time>
      </trkpt>
      <trkpt lat="41.3239070" lon="-4.9232350">
        <ele>729.7</ele>
        <time>2019-08-14T14:24:51Z</time>
      </trkpt>
      <trkpt lat="41.3239430" lon="-4.9232730">
        <ele>729.7</ele>
        <time>2019-08-14T14:24:52Z</time>
      </trkpt>
      <trkpt lat="41.3239790" lon="-4.9233090">
        <ele>729.6</ele>
        <time>2019-08-14T14:24:53Z</time>
      </trkpt>
      <trkpt lat="41.3240150" lon="-4.9233470">
        <ele>729.6</ele>
        <time>2019-08-14T14:24:54Z</time>
      </trkpt>
      <trkpt lat="41.3240520" lon="-4.9233870">
        <ele>729.5</ele>
        <time>2019-08-14T14:24:55Z</time>
      </trkpt>
      <trkpt lat="41.3240890" lon="-4.9234290">
        <ele>729.4</ele>
        <time>2019-08-14T14:24:56Z</time>
      </trkpt>
      <trkpt lat="41.3241250" lon="-4.9234680">
        <ele>729.4</ele>
        <time>2019-08-14T14:24:57Z</time>
      </trkpt>
      <trkpt lat="41.3241630" lon="-4.9235070">
        <ele>729.3</ele>
        <time>2019-08-14T14:24:58Z</time>
      </trkpt>
      <trkpt lat="41.3242020" lon="-4.9235460">
        <ele>729.1</ele>
        <time>2019-08-14T14:24:59Z</time>
      </trkpt>
      <trkpt lat="41.3242390" lon="-4.9235870">
        <ele>729.0</ele>
        <time>2019-08-14T14:25:00Z</time>
      </trkpt>
      <trkpt lat="41.3242750" lon="-4.9236280">
        <ele>728.9</ele>
        <time>2019-08-14T14:25:01Z</time>
      </trkpt>
      <trkpt lat="41.3243100" lon="-4.9236660">
        <ele>728.7</ele>
        <time>2019-08-14T14:25:02Z</time>
      </trkpt>
      <trkpt lat="41.3243460" lon="-4.9237020">
        <ele>728.6</ele>
        <time>2019-08-14T14:25:03Z</time>
      </trkpt>
      <trkpt lat="41.3243790" lon="-4.9237370">
        <ele>728.5</ele>
        <time>2019-08-14T14:25:04Z</time>
      </trkpt>
      <trkpt lat="41.3244110" lon="-4.9237710">
        <ele>728.4</ele>
        <time>2019-08-14T14:25:05Z</time>
      </trkpt>
      <trkpt lat="41.3244410" lon="-4.9238060">
        <ele>728.3</ele>
        <time>2019-08-14T14:25:06Z</time>
      </trkpt>
      <trkpt lat="41.3244700" lon="-4.9238390">
        <ele>728.2</ele>
        <time>2019-08-14T14:25:07Z</time>
      </trkpt>
      <trkpt lat="41.3245000" lon="-4.9238680">
        <ele>728.2</ele>
        <time>2019-08-14T14:25:08Z</time>
      </trkpt>
      <trkpt lat="41.3245280" lon="-4.9238970">
        <ele>728.1</ele>
        <time>2019-08-14T14:25:09Z</time>
      </trkpt>
      <trkpt lat="41.3245560" lon="-4.9239240">
        <ele>728.0</ele>
        <time>2019-08-14T14:25:10Z</time>
      </trkpt>
      <trkpt lat="41.3245870" lon="-4.9239540">
        <ele>727.9</ele>
        <time>2019-08-14T14:25:11Z</time>
      </trkpt>
      <trkpt lat="41.3246180" lon="-4.9239850">
        <ele>727.8</ele>
        <time>2019-08-14T14:25:12Z</time>
      </trkpt>
      <trkpt lat="41.3246490" lon="-4.9240180">
        <ele>727.7</ele>
        <time>2019-08-14T14:25:13Z</time>
      </trkpt>
      <trkpt lat="41.3246800" lon="-4.9240530">
        <ele>727.6</ele>
        <time>2019-08-14T14:25:14Z</time>
      </trkpt>
      <trkpt lat="41.3247120" lon="-4.9240880">
        <ele>727.7</ele>
        <time>2019-08-14T14:25:15Z</time>
      </trkpt>
      <trkpt lat="41.3247460" lon="-4.9241220">
        <ele>727.8</ele>
        <time>2019-08-14T14:25:16Z</time>
      </trkpt>
      <trkpt lat="41.3247800" lon="-4.9241560">
        <ele>727.8</ele>
        <time>2019-08-14T14:25:17Z</time>
      </trkpt>
      <trkpt lat="41.3248120" lon="-4.9241920">
        <ele>727.9</ele>
        <time>2019-08-14T14:25:18Z</time>
      </trkpt>
      <trkpt lat="41.3248420" lon="-4.9242280">
        <ele>728.0</ele>
        <time>2019-08-14T14:25:19Z</time>
      </trkpt>
      <trkpt lat="41.3248700" lon="-4.9242610">
        <ele>728.1</ele>
        <time>2019-08-14T14:25:20Z</time>
      </trkpt>
      <trkpt lat="41.3249000" lon="-4.9242930">
        <ele>728.1</ele>
        <time>2019-08-14T14:25:21Z</time>
      </trkpt>
      <trkpt lat="41.3249320" lon="-4.9243250">
        <ele>728.2</ele>
        <time>2019-08-14T14:25:22Z</time>
      </trkpt>
      <trkpt lat="41.3249660" lon="-4.9243590">
        <ele>728.3</ele>
        <time>2019-08-14T14:25:23Z</time>
      </trkpt>
      <trkpt lat="41.3249990" lon="-4.9243930">
        <ele>728.4</ele>
        <time>2019-08-14T14:25:24Z</time>
      </trkpt>
      <trkpt lat="41.3250320" lon="-4.9244280">
        <ele>728.5</ele>
        <time>2019-08-14T14:25:25Z</time>
      </trkpt>
      <trkpt lat="41.3250650" lon="-4.9244650">
        <ele>728.6</ele>
        <time>2019-08-14T14:25:26Z</time>
      </trkpt>
      <trkpt lat="41.3250980" lon="-4.9245010">
        <ele>728.6</ele>
        <time>2019-08-14T14:25:27Z</time>
      </trkpt>
      <trkpt lat="41.3251330" lon="-4.9245380">
        <ele>728.7</ele>
        <time>2019-08-14T14:25:28Z</time>
      </trkpt>
      <trkpt lat="41.3251680" lon="-4.9245740">
        <ele>728.7</ele>
        <time>2019-08-14T14:25:29Z</time>
      </trkpt>
      <trkpt lat="41.3252030" lon="-4.9246090">
        <ele>728.7</ele>
        <time>2019-08-14T14:25:30Z</time>
      </trkpt>
      <trkpt lat="41.3252350" lon="-4.9246440">
        <ele>728.8</ele>
        <time>2019-08-14T14:25:31Z</time>
      </trkpt>
      <trkpt lat="41.3252680" lon="-4.9246780">
        <ele>728.8</ele>
        <time>2019-08-14T14:25:32Z</time>
      </trkpt>
      <trkpt lat="41.3253000" lon="-4.9247090">
        <ele>728.8</ele>
        <time>2019-08-14T14:25:33Z</time>
      </trkpt>
      <trkpt lat="41.3253310" lon="-4.9247390">
        <ele>728.9</ele>
        <time>2019-08-14T14:25:34Z</time>
      </trkpt>
      <trkpt lat="41.3253610" lon="-4.9247690">
        <ele>728.9</ele>
        <time>2019-08-14T14:25:35Z</time>
      </trkpt>
      <trkpt lat="41.3253920" lon="-4.9248020">
        <ele>728.9</ele>
        <time>2019-08-14T14:25:36Z</time>
      </trkpt>
      <trkpt lat="41.3254220" lon="-4.9248360">
        <ele>728.9</ele>
        <time>2019-08-14T14:25:37Z</time>
      </trkpt>
      <trkpt lat="41.3254530" lon="-4.9248690">
        <ele>728.9</ele>
        <time>2019-08-14T14:25:38Z</time>
      </trkpt>
      <trkpt lat="41.3254850" lon="-4.9249010">
        <ele>729.0</ele>
        <time>2019-08-14T14:25:39Z</time>
      </trkpt>
      <trkpt lat="41.3255180" lon="-4.9249330">
        <ele>729.0</ele>
        <time>2019-08-14T14:25:40Z</time>
      </trkpt>
      <trkpt lat="41.3255490" lon="-4.9249660">
        <ele>729.0</ele>
        <time>2019-08-14T14:25:41Z</time>
      </trkpt>
      <trkpt lat="41.3255800" lon="-4.9249970">
        <ele>729.0</ele>
        <time>2019-08-14T14:25:42Z</time>
      </trkpt>
      <trkpt lat="41.3256090" lon="-4.9250270">
        <ele>729.0</ele>
        <time>2019-08-14T14:25:43Z</time>
      </trkpt>
      <trkpt lat="41.3256370" lon="-4.9250570">
        <ele>729.0</ele>
        <time>2019-08-14T14:25:44Z</time>
      </trkpt>
      <trkpt lat="41.3256620" lon="-4.9250840">
        <ele>729.0</ele>
        <time>2019-08-14T14:25:45Z</time>
      </trkpt>
      <trkpt lat="41.3256890" lon="-4.9251110">
        <ele>729.0</ele>
        <time>2019-08-14T14:25:46Z</time>
      </trkpt>
      <trkpt lat="41.3257160" lon="-4.9251390">
        <ele>729.1</ele>
        <time>2019-08-14T14:25:47Z</time>
      </trkpt>
      <trkpt lat="41.3257440" lon="-4.9251680">
        <ele>729.1</ele>
        <time>2019-08-14T14:25:48Z</time>
      </trkpt>
      <trkpt lat="41.3257710" lon="-4.9251960">
        <ele>729.1</ele>
        <time>2019-08-14T14:25:49Z</time>
      </trkpt>
      <trkpt lat="41.3257980" lon="-4.9252240">
        <ele>729.1</ele>
        <time>2019-08-14T14:25:50Z</time>
      </trkpt>
      <trkpt lat="41.3258250" lon="-4.9252520">
        <ele>729.1</ele>
        <time>2019-08-14T14:25:51Z</time>
      </trkpt>
      <trkpt lat="41.3258540" lon="-4.9252810">
        <ele>729.1</ele>
        <time>2019-08-14T14:25:52Z</time>
      </trkpt>
      <trkpt lat="41.3258830" lon="-4.9253110">
        <ele>729.1</ele>
        <time>2019-08-14T14:25:53Z</time>
      </trkpt>
      <trkpt lat="41.3259130" lon="-4.9253390">
        <ele>729.1</ele>
        <time>2019-08-14T14:25:54Z</time>
      </trkpt>
      <trkpt lat="41.3259440" lon="-4.9253670">
        <ele>729.2</ele>
        <time>2019-08-14T14:25:55Z</time>
      </trkpt>
      <trkpt lat="41.3259750" lon="-4.9253970">
        <ele>729.1</ele>
        <time>2019-08-14T14:25:56Z</time>
      </trkpt>
      <trkpt lat="41.3260050" lon="-4.9254310">
        <ele>729.0</ele>
        <time>2019-08-14T14:25:57Z</time>
      </trkpt>
      <trkpt lat="41.3260320" lon="-4.9254700">
        <ele>728.9</ele>
        <time>2019-08-14T14:25:58Z</time>
      </trkpt>
      <trkpt lat="41.3260560" lon="-4.9255130">
        <ele>728.9</ele>
        <time>2019-08-14T14:25:59Z</time>
      </trkpt>
      <trkpt lat="41.3260810" lon="-4.9255560">
        <ele>728.8</ele>
        <time>2019-08-14T14:26:00Z</time>
      </trkpt>
      <trkpt lat="41.3261060" lon="-4.9255950">
        <ele>728.7</ele>
        <time>2019-08-14T14:26:01Z</time>
      </trkpt>
      <trkpt lat="41.3261300" lon="-4.9256320">
        <ele>728.7</ele>
        <time>2019-08-14T14:26:02Z</time>
      </trkpt>
      <trkpt lat="41.3261520" lon="-4.9256690">
        <ele>728.6</ele>
        <time>2019-08-14T14:26:03Z</time>
      </trkpt>
      <trkpt lat="41.3261720" lon="-4.9257030">
        <ele>728.6</ele>
        <time>2019-08-14T14:26:04Z</time>
      </trkpt>
      <trkpt lat="41.3261870" lon="-4.9257340">
        <ele>728.5</ele>
        <time>2019-08-14T14:26:05Z</time>
      </trkpt>
      <trkpt lat="41.3262070" lon="-4.9257850">
        <ele>728.5</ele>
        <time>2019-08-14T14:26:07Z</time>
      </trkpt>
      <trkpt lat="41.3262210" lon="-4.9258330">
        <ele>728.6</ele>
        <time>2019-08-14T14:26:09Z</time>
      </trkpt>
      <trkpt lat="41.3262420" lon="-4.9258760">
        <ele>728.6</ele>
        <time>2019-08-14T14:26:11Z</time>
      </trkpt>
      <trkpt lat="41.3262690" lon="-4.9259140">
        <ele>728.5</ele>
        <time>2019-08-14T14:26:13Z</time>
      </trkpt>
      <trkpt lat="41.3263040" lon="-4.9259500">
        <ele>728.5</ele>
        <time>2019-08-14T14:26:15Z</time>
      </trkpt>
      <trkpt lat="41.3263480" lon="-4.9259780">
        <ele>728.4</ele>
        <time>2019-08-14T14:26:17Z</time>
      </trkpt>
      <trkpt lat="41.3264010" lon="-4.9259920">
        <ele>728.4</ele>
        <time>2019-08-14T14:26:19Z</time>
      </trkpt>
      <trkpt lat="41.3264290" lon="-4.9260030">
        <ele>728.4</ele>
        <time>2019-08-14T14:26:20Z</time>
      </trkpt>
      <trkpt lat="41.3264570" lon="-4.9260150">
        <ele>728.4</ele>
        <time>2019-08-14T14:26:21Z</time>
      </trkpt>
      <trkpt lat="41.3264880" lon="-4.9260310">
        <ele>728.4</ele>
        <time>2019-08-14T14:26:22Z</time>
      </trkpt>
      <trkpt lat="41.3265190" lon="-4.9260480">
        <ele>728.5</ele>
        <time>2019-08-14T14:26:23Z</time>
      </trkpt>
      <trkpt lat="41.3265500" lon="-4.9260700">
        <ele>728.5</ele>
        <time>2019-08-14T14:26:24Z</time>
      </trkpt>
      <trkpt lat="41.3265810" lon="-4.9260930">
        <ele>728.6</ele>
        <time>2019-08-14T14:26:25Z</time>
      </trkpt>
      <trkpt lat="41.3266130" lon="-4.9261170">
        <ele>728.6</ele>
        <time>2019-08-14T14:26:26Z</time>
      </trkpt>
      <trkpt lat="41.3266440" lon="-4.9261400">
        <ele>728.7</ele>
        <time>2019-08-14T14:26:27Z</time>
      </trkpt>
      <trkpt lat="41.3266760" lon="-4.9261640">
        <ele>728.8</ele>
        <time>2019-08-14T14:26:28Z</time>
      </trkpt>
      <trkpt lat="41.3267070" lon="-4.9261890">
        <ele>728.9</ele>
        <time>2019-08-14T14:26:29Z</time>
      </trkpt>
      <trkpt lat="41.3267380" lon="-4.9262170">
        <ele>728.9</ele>
        <time>2019-08-14T14:26:30Z</time>
      </trkpt>
      <trkpt lat="41.3267670" lon="-4.9262460">
        <ele>729.0</ele>
        <time>2019-08-14T14:26:31Z</time>
      </trkpt>
      <trkpt lat="41.3267960" lon="-4.9262770">
        <ele>728.8</ele>
        <time>2019-08-14T14:26:32Z</time>
      </trkpt>
      <trkpt lat="41.3268250" lon="-4.9263080">
        <ele>728.7</ele>
        <time>2019-08-14T14:26:33Z</time>
      </trkpt>
      <trkpt lat="41.3268520" lon="-4.9263390">
        <ele>728.6</ele>
        <time>2019-08-14T14:26:34Z</time>
      </trkpt>
      <trkpt lat="41.3268810" lon="-4.9263690">
        <ele>728.5</ele>
        <time>2019-08-14T14:26:35Z</time>
      </trkpt>
      <trkpt lat="41.3269110" lon="-4.9263980">
        <ele>728.4</ele>
        <time>2019-08-14T14:26:36Z</time>
      </trkpt>
      <trkpt lat="41.3269390" lon="-4.9264270">
        <ele>728.3</ele>
        <time>2019-08-14T14:26:37Z</time>
      </trkpt>
      <trkpt lat="41.3269670" lon="-4.9264560">
        <ele>728.2</ele>
        <time>2019-08-14T14:26:38Z</time>
      </trkpt>
      <trkpt lat="41.3269960" lon="-4.9264860">
        <ele>728.1</ele>
        <time>2019-08-14T14:26:39Z</time>
      </trkpt>
      <trkpt lat="41.3270240" lon="-4.9265170">
        <ele>728.0</ele>
        <time>2019-08-14T14:26:40Z</time>
      </trkpt>
      <trkpt lat="41.3270530" lon="-4.9265470">
        <ele>727.9</ele>
        <time>2019-08-14T14:26:41Z</time>
      </trkpt>
      <trkpt lat="41.3270820" lon="-4.9265770">
        <ele>727.8</ele>
        <time>2019-08-14T14:26:42Z</time>
      </trkpt>
      <trkpt lat="41.3271110" lon="-4.9266070">
        <ele>727.7</ele>
        <time>2019-08-14T14:26:43Z</time>
      </trkpt>
      <trkpt lat="41.3271400" lon="-4.9266370">
        <ele>727.6</ele>
        <time>2019-08-14T14:26:44Z</time>
      </trkpt>
      <trkpt lat="41.3271680" lon="-4.9266680">
        <ele>727.5</ele>
        <time>2019-08-14T14:26:45Z</time>
      </trkpt>
      <trkpt lat="41.3271950" lon="-4.9266990">
        <ele>727.5</ele>
        <time>2019-08-14T14:26:46Z</time>
      </trkpt>
      <trkpt lat="41.3272240" lon="-4.9267290">
        <ele>727.4</ele>
        <time>2019-08-14T14:26:47Z</time>
      </trkpt>
      <trkpt lat="41.3272520" lon="-4.9267590">
        <ele>727.3</ele>
        <time>2019-08-14T14:26:48Z</time>
      </trkpt>
      <trkpt lat="41.3272810" lon="-4.9267880">
        <ele>727.3</ele>
        <time>2019-08-14T14:26:49Z</time>
      </trkpt>
      <trkpt lat="41.3273090" lon="-4.9268180">
        <ele>727.2</ele>
        <time>2019-08-14T14:26:50Z</time>
      </trkpt>
      <trkpt lat="41.3273360" lon="-4.9268480">
        <ele>727.2</ele>
        <time>2019-08-14T14:26:51Z</time>
      </trkpt>
      <trkpt lat="41.3273640" lon="-4.9268770">
        <ele>727.2</ele>
        <time>2019-08-14T14:26:52Z</time>
      </trkpt>
      <trkpt lat="41.3273910" lon="-4.9269060">
        <ele>727.3</ele>
        <time>2019-08-14T14:26:53Z</time>
      </trkpt>
      <trkpt lat="41.3274170" lon="-4.9269330">
        <ele>727.4</ele>
        <time>2019-08-14T14:26:54Z</time>
      </trkpt>
      <trkpt lat="41.3274430" lon="-4.9269610">
        <ele>727.4</ele>
        <time>2019-08-14T14:26:55Z</time>
      </trkpt>
      <trkpt lat="41.3274690" lon="-4.9269870">
        <ele>727.5</ele>
        <time>2019-08-14T14:26:56Z</time>
      </trkpt>
      <trkpt lat="41.3274940" lon="-4.9270140">
        <ele>727.6</ele>
        <time>2019-08-14T14:26:57Z</time>
      </trkpt>
      <trkpt lat="41.3275170" lon="-4.9270390">
        <ele>727.7</ele>
        <time>2019-08-14T14:26:58Z</time>
      </trkpt>
      <trkpt lat="41.3275380" lon="-4.9270630">
        <ele>727.7</ele>
        <time>2019-08-14T14:26:59Z</time>
      </trkpt>
      <trkpt lat="41.3275720" lon="-4.9271060">
        <ele>727.7</ele>
        <time>2019-08-14T14:27:01Z</time>
      </trkpt>
      <trkpt lat="41.3275920" lon="-4.9271360">
        <ele>727.7</ele>
        <time>2019-08-14T14:27:03Z</time>
      </trkpt>
      <trkpt lat="41.3276330" lon="-4.9271910">
        <ele>727.6</ele>
        <time>2019-08-14T14:28:48Z</time>
      </trkpt>
      <trkpt lat="41.3276780" lon="-4.9272210">
        <ele>727.7</ele>
        <time>2019-08-14T14:28:50Z</time>
      </trkpt>
      <trkpt lat="41.3277250" lon="-4.9272550">
        <ele>727.8</ele>
        <time>2019-08-14T14:28:52Z</time>
      </trkpt>
      <trkpt lat="41.3277490" lon="-4.9272730">
        <ele>727.9</ele>
        <time>2019-08-14T14:28:53Z</time>
      </trkpt>
      <trkpt lat="41.3277740" lon="-4.9272920">
        <ele>728.0</ele>
        <time>2019-08-14T14:28:54Z</time>
      </trkpt>
      <trkpt lat="41.3278140" lon="-4.9273280">
        <ele>728.1</ele>
        <time>2019-08-14T14:28:56Z</time>
      </trkpt>
      <trkpt lat="41.3278370" lon="-4.9273520">
        <ele>728.2</ele>
        <time>2019-08-14T14:28:58Z</time>
      </trkpt>
      <trkpt lat="41.3278880" lon="-4.9274180">
        <ele>728.4</ele>
        <time>2019-08-14T14:29:23Z</time>
      </trkpt>
      <trkpt lat="41.3279190" lon="-4.9274500">
        <ele>728.5</ele>
        <time>2019-08-14T14:29:25Z</time>
      </trkpt>
      <trkpt lat="41.3279640" lon="-4.9274720">
        <ele>728.7</ele>
        <time>2019-08-14T14:29:27Z</time>
      </trkpt>
      <trkpt lat="41.3279970" lon="-4.9274740">
        <ele>728.8</ele>
        <time>2019-08-14T14:29:28Z</time>
      </trkpt>
      <trkpt lat="41.3280320" lon="-4.9274770">
        <ele>728.9</ele>
        <time>2019-08-14T14:29:29Z</time>
      </trkpt>
      <trkpt lat="41.3280670" lon="-4.9274890">
        <ele>729.1</ele>
        <time>2019-08-14T14:29:30Z</time>
      </trkpt>
      <trkpt lat="41.3280990" lon="-4.9275090">
        <ele>729.2</ele>
        <time>2019-08-14T14:29:31Z</time>
      </trkpt>
      <trkpt lat="41.3281300" lon="-4.9275340">
        <ele>729.4</ele>
        <time>2019-08-14T14:29:32Z</time>
      </trkpt>
      <trkpt lat="41.3281570" lon="-4.9275630">
        <ele>729.6</ele>
        <time>2019-08-14T14:29:33Z</time>
      </trkpt>
      <trkpt lat="41.3281840" lon="-4.9275910">
        <ele>729.8</ele>
        <time>2019-08-14T14:29:34Z</time>
      </trkpt>
      <trkpt lat="41.3282110" lon="-4.9276180">
        <ele>729.9</ele>
        <time>2019-08-14T14:29:35Z</time>
      </trkpt>
      <trkpt lat="41.3282380" lon="-4.9276440">
        <ele>730.1</ele>
        <time>2019-08-14T14:29:36Z</time>
      </trkpt>
      <trkpt lat="41.3282640" lon="-4.9276710">
        <ele>730.2</ele>
        <time>2019-08-14T14:29:37Z</time>
      </trkpt>
      <trkpt lat="41.3282900" lon="-4.9276970">
        <ele>730.3</ele>
        <time>2019-08-14T14:29:38Z</time>
      </trkpt>
      <trkpt lat="41.3283160" lon="-4.9277230">
        <ele>730.5</ele>
        <time>2019-08-14T14:29:39Z</time>
      </trkpt>
      <trkpt lat="41.3283410" lon="-4.9277490">
        <ele>730.6</ele>
        <time>2019-08-14T14:29:40Z</time>
      </trkpt>
      <trkpt lat="41.3283660" lon="-4.9277770">
        <ele>730.8</ele>
        <time>2019-08-14T14:29:41Z</time>
      </trkpt>
      <trkpt lat="41.3283900" lon="-4.9278030">
        <ele>730.9</ele>
        <time>2019-08-14T14:29:42Z</time>
      </trkpt>
      <trkpt lat="41.3284140" lon="-4.9278300">
        <ele>731.1</ele>
        <time>2019-08-14T14:29:43Z</time>
      </trkpt>
      <trkpt lat="41.3284380" lon="-4.9278550">
        <ele>731.2</ele>
        <time>2019-08-14T14:29:44Z</time>
      </trkpt>
      <trkpt lat="41.3284600" lon="-4.9278800">
        <ele>731.3</ele>
        <time>2019-08-14T14:29:45Z</time>
      </trkpt>
      <trkpt lat="41.3284830" lon="-4.9279030">
        <ele>731.3</ele>
        <time>2019-08-14T14:29:46Z</time>
      </trkpt>
      <trkpt lat="41.3285050" lon="-4.9279260">
        <ele>731.4</ele>
        <time>2019-08-14T14:29:47Z</time>
      </trkpt>
      <trkpt lat="41.3285280" lon="-4.9279480">
        <ele>731.5</ele>
        <time>2019-08-14T14:29:48Z</time>
      </trkpt>
      <trkpt lat="41.3285520" lon="-4.9279720">
        <ele>731.6</ele>
        <time>2019-08-14T14:29:49Z</time>
      </trkpt>
      <trkpt lat="41.3285760" lon="-4.9279970">
        <ele>731.7</ele>
        <time>2019-08-14T14:29:50Z</time>
      </trkpt>
      <trkpt lat="41.3286010" lon="-4.9280230">
        <ele>731.8</ele>
        <time>2019-08-14T14:29:51Z</time>
      </trkpt>
      <trkpt lat="41.3286270" lon="-4.9280490">
        <ele>731.9</ele>
        <time>2019-08-14T14:29:52Z</time>
      </trkpt>
      <trkpt lat="41.3286520" lon="-4.9280760">
        <ele>732.0</ele>
        <time>2019-08-14T14:29:53Z</time>
      </trkpt>
      <trkpt lat="41.3286770" lon="-4.9281030">
        <ele>732.1</ele>
        <time>2019-08-14T14:29:54Z</time>
      </trkpt>
      <trkpt lat="41.3287040" lon="-4.9281290">
        <ele>732.2</ele>
        <time>2019-08-14T14:29:55Z</time>
      </trkpt>
      <trkpt lat="41.3287300" lon="-4.9281560">
        <ele>732.4</ele>
        <time>2019-08-14T14:29:56Z</time>
      </trkpt>
      <trkpt lat="41.3287570" lon="-4.9281830">
        <ele>732.5</ele>
        <time>2019-08-14T14:29:57Z</time>
      </trkpt>
      <trkpt lat="41.3287830" lon="-4.9282100">
        <ele>732.7</ele>
        <time>2019-08-14T14:29:58Z</time>
      </trkpt>
      <trkpt lat="41.3288090" lon="-4.9282370">
        <ele>732.8</ele>
        <time>2019-08-14T14:29:59Z</time>
      </trkpt>
      <trkpt lat="41.3288350" lon="-4.9282640">
        <ele>732.9</ele>
        <time>2019-08-14T14:30:00Z</time>
      </trkpt>
      <trkpt lat="41.3288620" lon="-4.9282910">
        <ele>733.0</ele>
        <time>2019-08-14T14:30:01Z</time>
      </trkpt>
      <trkpt lat="41.3288870" lon="-4.9283180">
        <ele>733.1</ele>
        <time>2019-08-14T14:30:02Z</time>
      </trkpt>
      <trkpt lat="41.3289130" lon="-4.9283460">
        <ele>733.2</ele>
        <time>2019-08-14T14:30:03Z</time>
      </trkpt>
      <trkpt lat="41.3289390" lon="-4.9283740">
        <ele>733.2</ele>
        <time>2019-08-14T14:30:04Z</time>
      </trkpt>
      <trkpt lat="41.3289650" lon="-4.9284020">
        <ele>733.3</ele>
        <time>2019-08-14T14:30:05Z</time>
      </trkpt>
      <trkpt lat="41.3289900" lon="-4.9284300">
        <ele>733.4</ele>
        <time>2019-08-14T14:30:06Z</time>
      </trkpt>
      <trkpt lat="41.3290170" lon="-4.9284560">
        <ele>733.5</ele>
        <time>2019-08-14T14:30:07Z</time>
      </trkpt>
      <trkpt lat="41.3290430" lon="-4.9284820">
        <ele>733.6</ele>
        <time>2019-08-14T14:30:08Z</time>
      </trkpt>
      <trkpt lat="41.3290680" lon="-4.9285090">
        <ele>733.6</ele>
        <time>2019-08-14T14:30:09Z</time>
      </trkpt>
      <trkpt lat="41.3290940" lon="-4.9285370">
        <ele>733.7</ele>
        <time>2019-08-14T14:30:10Z</time>
      </trkpt>
      <trkpt lat="41.3291190" lon="-4.9285640">
        <ele>733.8</ele>
        <time>2019-08-14T14:30:11Z</time>
      </trkpt>
      <trkpt lat="41.3291430" lon="-4.9285910">
        <ele>733.9</ele>
        <time>2019-08-14T14:30:12Z</time>
      </trkpt>
      <trkpt lat="41.3291680" lon="-4.9286170">
        <ele>733.9</ele>
        <time>2019-08-14T14:30:13Z</time>
      </trkpt>
      <trkpt lat="41.3291930" lon="-4.9286430">
        <ele>734.0</ele>
        <time>2019-08-14T14:30:14Z</time>
      </trkpt>
      <trkpt lat="41.3292180" lon="-4.9286690">
        <ele>734.1</ele>
        <time>2019-08-14T14:30:15Z</time>
      </trkpt>
      <trkpt lat="41.3292420" lon="-4.9286950">
        <ele>734.2</ele>
        <time>2019-08-14T14:30:16Z</time>
      </trkpt>
      <trkpt lat="41.3292660" lon="-4.9287200">
        <ele>734.2</ele>
        <time>2019-08-14T14:30:17Z</time>
      </trkpt>
      <trkpt lat="41.3292900" lon="-4.9287460">
        <ele>734.3</ele>
        <time>2019-08-14T14:30:18Z</time>
      </trkpt>
      <trkpt lat="41.3293140" lon="-4.9287720">
        <ele>734.4</ele>
        <time>2019-08-14T14:30:19Z</time>
      </trkpt>
      <trkpt lat="41.3293380" lon="-4.9287970">
        <ele>734.4</ele>
        <time>2019-08-14T14:30:20Z</time>
      </trkpt>
      <trkpt lat="41.3293630" lon="-4.9288220">
        <ele>734.5</ele>
        <time>2019-08-14T14:30:21Z</time>
      </trkpt>
      <trkpt lat="41.3293870" lon="-4.9288470">
        <ele>734.6</ele>
        <time>2019-08-14T14:30:22Z</time>
      </trkpt>
      <trkpt lat="41.3294100" lon="-4.9288730">
        <ele>734.6</ele>
        <time>2019-08-14T14:30:23Z</time>
      </trkpt>
      <trkpt lat="41.3294300" lon="-4.9289050">
        <ele>734.7</ele>
        <time>2019-08-14T14:30:24Z</time>
      </trkpt>
      <trkpt lat="41.3294420" lon="-4.9289460">
        <ele>734.8</ele>
        <time>2019-08-14T14:30:25Z</time>
      </trkpt>
      <trkpt lat="41.3294510" lon="-4.9289940">
        <ele>734.8</ele>
        <time>2019-08-14T14:30:26Z</time>
      </trkpt>
      <trkpt lat="41.3294650" lon="-4.9290400">
        <ele>734.8</ele>
        <time>2019-08-14T14:30:27Z</time>
      </trkpt>
      <trkpt lat="41.3294870" lon="-4.9290800">
        <ele>734.9</ele>
        <time>2019-08-14T14:30:28Z</time>
      </trkpt>
      <trkpt lat="41.3295120" lon="-4.9291130">
        <ele>734.9</ele>
        <time>2019-08-14T14:30:29Z</time>
      </trkpt>
      <trkpt lat="41.3295380" lon="-4.9291430">
        <ele>734.9</ele>
        <time>2019-08-14T14:30:30Z</time>
      </trkpt>
      <trkpt lat="41.3295630" lon="-4.9291710">
        <ele>735.0</ele>
        <time>2019-08-14T14:30:31Z</time>
      </trkpt>
      <trkpt lat="41.3295890" lon="-4.9291980">
        <ele>735.0</ele>
        <time>2019-08-14T14:30:32Z</time>
      </trkpt>
      <trkpt lat="41.3296130" lon="-4.9292230">
        <ele>735.0</ele>
        <time>2019-08-14T14:30:33Z</time>
      </trkpt>
      <trkpt lat="41.3296370" lon="-4.9292460">
        <ele>735.0</ele>
        <time>2019-08-14T14:30:34Z</time>
      </trkpt>
      <trkpt lat="41.3296610" lon="-4.9292690">
        <ele>735.1</ele>
        <time>2019-08-14T14:30:35Z</time>
      </trkpt>
      <trkpt lat="41.3296850" lon="-4.9292920">
        <ele>735.4</ele>
        <time>2019-08-14T14:30:36Z</time>
      </trkpt>
      <trkpt lat="41.3297090" lon="-4.9293130">
        <ele>735.5</ele>
        <time>2019-08-14T14:30:37Z</time>
      </trkpt>
      <trkpt lat="41.3297350" lon="-4.9293340">
        <ele>735.6</ele>
        <time>2019-08-14T14:30:38Z</time>
      </trkpt>
      <trkpt lat="41.3297620" lon="-4.9293540">
        <ele>735.8</ele>
        <time>2019-08-14T14:30:39Z</time>
      </trkpt>
      <trkpt lat="41.3297900" lon="-4.9293720">
        <ele>735.9</ele>
        <time>2019-08-14T14:30:40Z</time>
      </trkpt>
      <trkpt lat="41.3298190" lon="-4.9293890">
        <ele>736.0</ele>
        <time>2019-08-14T14:30:41Z</time>
      </trkpt>
      <trkpt lat="41.3298500" lon="-4.9294030">
        <ele>736.2</ele>
        <time>2019-08-14T14:30:42Z</time>
      </trkpt>
      <trkpt lat="41.3298800" lon="-4.9294140">
        <ele>736.3</ele>
        <time>2019-08-14T14:30:43Z</time>
      </trkpt>
      <trkpt lat="41.3299100" lon="-4.9294250">
        <ele>736.4</ele>
        <time>2019-08-14T14:30:44Z</time>
      </trkpt>
      <trkpt lat="41.3299380" lon="-4.9294370">
        <ele>736.6</ele>
        <time>2019-08-14T14:30:45Z</time>
      </trkpt>
      <trkpt lat="41.3299890" lon="-4.9294570">
        <ele>736.8</ele>
        <time>2019-08-14T14:30:47Z</time>
      </trkpt>
      <trkpt lat="41.3300390" lon="-4.9294660">
        <ele>737.0</ele>
        <time>2019-08-14T14:30:49Z</time>
      </trkpt>
      <trkpt lat="41.3300670" lon="-4.9294650">
        <ele>737.1</ele>
        <time>2019-08-14T14:30:50Z</time>
      </trkpt>
      <trkpt lat="41.3300960" lon="-4.9294650">
        <ele>737.2</ele>
        <time>2019-08-14T14:30:51Z</time>
      </trkpt>
      <trkpt lat="41.3301260" lon="-4.9294670">
        <ele>737.3</ele>
        <time>2019-08-14T14:30:52Z</time>
      </trkpt>
      <trkpt lat="41.3301550" lon="-4.9294710">
        <ele>737.5</ele>
        <time>2019-08-14T14:30:53Z</time>
      </trkpt>
      <trkpt lat="41.3301840" lon="-4.9294720">
        <ele>737.6</ele>
        <time>2019-08-14T14:30:54Z</time>
      </trkpt>
      <trkpt lat="41.3302120" lon="-4.9294690">
        <ele>737.7</ele>
        <time>2019-08-14T14:30:55Z</time>
      </trkpt>
      <trkpt lat="41.3302390" lon="-4.9294620">
        <ele>737.9</ele>
        <time>2019-08-14T14:30:56Z</time>
      </trkpt>
      <trkpt lat="41.3302660" lon="-4.9294540">
        <ele>738.0</ele>
        <time>2019-08-14T14:30:57Z</time>
      </trkpt>
      <trkpt lat="41.3302940" lon="-4.9294440">
        <ele>738.1</ele>
        <time>2019-08-14T14:30:58Z</time>
      </trkpt>
      <trkpt lat="41.3303220" lon="-4.9294320">
        <ele>738.3</ele>
        <time>2019-08-14T14:30:59Z</time>
      </trkpt>
      <trkpt lat="41.3303490" lon="-4.9294190">
        <ele>738.4</ele>
        <time>2019-08-14T14:31:00Z</time>
      </trkpt>
      <trkpt lat="41.3303770" lon="-4.9294060">
        <ele>738.6</ele>
        <time>2019-08-14T14:31:01Z</time>
      </trkpt>
      <trkpt lat="41.3304030" lon="-4.9293900">
        <ele>738.7</ele>
        <time>2019-08-14T14:31:02Z</time>
      </trkpt>
      <trkpt lat="41.3304270" lon="-4.9293630">
        <ele>738.8</ele>
        <time>2019-08-14T14:31:03Z</time>
      </trkpt>
      <trkpt lat="41.3304480" lon="-4.9293280">
        <ele>738.9</ele>
        <time>2019-08-14T14:31:04Z</time>
      </trkpt>
      <trkpt lat="41.3304710" lon="-4.9292930">
        <ele>739.0</ele>
        <time>2019-08-14T14:31:05Z</time>
      </trkpt>
      <trkpt lat="41.3304950" lon="-4.9292620">
        <ele>739.1</ele>
        <time>2019-08-14T14:31:06Z</time>
      </trkpt>
      <trkpt lat="41.3305200" lon="-4.9292380">
        <ele>739.2</ele>
        <time>2019-08-14T14:31:07Z</time>
      </trkpt>
      <trkpt lat="41.3305440" lon="-4.9292190">
        <ele>739.3</ele>
        <time>2019-08-14T14:31:08Z</time>
      </trkpt>
      <trkpt lat="41.3305920" lon="-4.9291880">
        <ele>739.5</ele>
        <time>2019-08-14T14:31:10Z</time>
      </trkpt>
      <trkpt lat="41.3306200" lon="-4.9291730">
        <ele>739.6</ele>
        <time>2019-08-14T14:31:11Z</time>
      </trkpt>
      <trkpt lat="41.3306500" lon="-4.9291560">
        <ele>739.7</ele>
        <time>2019-08-14T14:31:12Z</time>
      </trkpt>
      <trkpt lat="41.3306830" lon="-4.9291370">
        <ele>739.8</ele>
        <time>2019-08-14T14:31:13Z</time>
      </trkpt>
      <trkpt lat="41.3307170" lon="-4.9291150">
        <ele>740.0</ele>
        <time>2019-08-14T14:31:14Z</time>
      </trkpt>
      <trkpt lat="41.3307520" lon="-4.9290890">
        <ele>740.1</ele>
        <time>2019-08-14T14:31:15Z</time>
      </trkpt>
      <trkpt lat="41.3307890" lon="-4.9290610">
        <ele>740.3</ele>
        <time>2019-08-14T14:31:16Z</time>
      </trkpt>
      <trkpt lat="41.3308280" lon="-4.9290320">
        <ele>740.6</ele>
        <time>2019-08-14T14:31:17Z</time>
      </trkpt>
      <trkpt lat="41.3308690" lon="-4.9290030">
        <ele>740.7</ele>
        <time>2019-08-14T14:31:18Z</time>
      </trkpt>
      <trkpt lat="41.3309100" lon="-4.9289730">
        <ele>741.0</ele>
        <time>2019-08-14T14:31:19Z</time>
      </trkpt>
      <trkpt lat="41.3309530" lon="-4.9289430">
        <ele>741.2</ele>
        <time>2019-08-14T14:31:20Z</time>
      </trkpt>
      <trkpt lat="41.3309960" lon="-4.9289140">
        <ele>741.3</ele>
        <time>2019-08-14T14:31:21Z</time>
      </trkpt>
      <trkpt lat="41.3310370" lon="-4.9288840">
        <ele>741.6</ele>
        <time>2019-08-14T14:31:22Z</time>
      </trkpt>
      <trkpt lat="41.3310790" lon="-4.9288560">
        <ele>741.8</ele>
        <time>2019-08-14T14:31:23Z</time>
      </trkpt>
      <trkpt lat="41.3311180" lon="-4.9288300">
        <ele>741.9</ele>
        <time>2019-08-14T14:31:24Z</time>
      </trkpt>
      <trkpt lat="41.3311570" lon="-4.9288050">
        <ele>742.0</ele>
        <time>2019-08-14T14:31:25Z</time>
      </trkpt>
      <trkpt lat="41.3311940" lon="-4.9287790">
        <ele>742.3</ele>
        <time>2019-08-14T14:31:26Z</time>
      </trkpt>
      <trkpt lat="41.3312310" lon="-4.9287530">
        <ele>742.4</ele>
        <time>2019-08-14T14:31:27Z</time>
      </trkpt>
      <trkpt lat="41.3312680" lon="-4.9287290">
        <ele>742.5</ele>
        <time>2019-08-14T14:31:28Z</time>
      </trkpt>
      <trkpt lat="41.3313050" lon="-4.9287030">
        <ele>742.6</ele>
        <time>2019-08-14T14:31:29Z</time>
      </trkpt>
      <trkpt lat="41.3313420" lon="-4.9286780">
        <ele>742.6</ele>
        <time>2019-08-14T14:31:30Z</time>
      </trkpt>
      <trkpt lat="41.3313790" lon="-4.9286530">
        <ele>742.7</ele>
        <time>2019-08-14T14:31:31Z</time>
      </trkpt>
      <trkpt lat="41.3314160" lon="-4.9286310">
        <ele>742.8</ele>
        <time>2019-08-14T14:31:32Z</time>
      </trkpt>
      <trkpt lat="41.3314520" lon="-4.9286110">
        <ele>742.9</ele>
        <time>2019-08-14T14:31:33Z</time>
      </trkpt>
      <trkpt lat="41.3314920" lon="-4.9285900">
        <ele>743.0</ele>
        <time>2019-08-14T14:31:34Z</time>
      </trkpt>
      <trkpt lat="41.3315330" lon="-4.9285690">
        <ele>743.1</ele>
        <time>2019-08-14T14:31:35Z</time>
      </trkpt>
      <trkpt lat="41.3315750" lon="-4.9285490">
        <ele>743.3</ele>
        <time>2019-08-14T14:31:36Z</time>
      </trkpt>
      <trkpt lat="41.3316170" lon="-4.9285300">
        <ele>743.5</ele>
        <time>2019-08-14T14:31:37Z</time>
      </trkpt>
      <trkpt lat="41.3316580" lon="-4.9285080">
        <ele>743.8</ele>
        <time>2019-08-14T14:31:38Z</time>
      </trkpt>
      <trkpt lat="41.3316960" lon="-4.9284780">
        <ele>743.8</ele>
        <time>2019-08-14T14:31:39Z</time>
      </trkpt>
      <trkpt lat="41.3317340" lon="-4.9284460">
        <ele>743.8</ele>
        <time>2019-08-14T14:31:40Z</time>
      </trkpt>
      <trkpt lat="41.3317720" lon="-4.9284150">
        <ele>743.8</ele>
        <time>2019-08-14T14:31:41Z</time>
      </trkpt>
      <trkpt lat="41.3318090" lon="-4.9283910">
        <ele>743.9</ele>
        <time>2019-08-14T14:31:42Z</time>
      </trkpt>
      <trkpt lat="41.3318440" lon="-4.9283750">
        <ele>743.9</ele>
        <time>2019-08-14T14:31:43Z</time>
      </trkpt>
      <trkpt lat="41.3318790" lon="-4.9283670">
        <ele>744.1</ele>
        <time>2019-08-14T14:31:44Z</time>
      </trkpt>
      <trkpt lat="41.3319130" lon="-4.9283660">
        <ele>744.2</ele>
        <time>2019-08-14T14:31:45Z</time>
      </trkpt>
      <trkpt lat="41.3319430" lon="-4.9283710">
        <ele>744.3</ele>
        <time>2019-08-14T14:31:46Z</time>
      </trkpt>
      <trkpt lat="41.3319890" lon="-4.9283930">
        <ele>744.5</ele>
        <time>2019-08-14T14:31:48Z</time>
      </trkpt>
      <trkpt lat="41.3320330" lon="-4.9284120">
        <ele>744.7</ele>
        <time>2019-08-14T14:31:50Z</time>
      </trkpt>
      <trkpt lat="41.3320800" lon="-4.9284340">
        <ele>744.9</ele>
        <time>2019-08-14T14:31:52Z</time>
      </trkpt>
      <trkpt lat="41.3321280" lon="-4.9284590">
        <ele>745.3</ele>
        <time>2019-08-14T14:31:54Z</time>
      </trkpt>
      <trkpt lat="41.3321720" lon="-4.9284900">
        <ele>745.6</ele>
        <time>2019-08-14T14:31:56Z</time>
      </trkpt>
      <trkpt lat="41.3322150" lon="-4.9285250">
        <ele>745.9</ele>
        <time>2019-08-14T14:31:58Z</time>
      </trkpt>
      <trkpt lat="41.3322530" lon="-4.9285650">
        <ele>746.2</ele>
        <time>2019-08-14T14:32:00Z</time>
      </trkpt>
      <trkpt lat="41.3322960" lon="-4.9286090">
        <ele>746.4</ele>
        <time>2019-08-14T14:32:02Z</time>
      </trkpt>
      <trkpt lat="41.3323180" lon="-4.9286340">
        <ele>746.5</ele>
        <time>2019-08-14T14:32:03Z</time>
      </trkpt>
      <trkpt lat="41.3323380" lon="-4.9286620">
        <ele>746.7</ele>
        <time>2019-08-14T14:32:04Z</time>
      </trkpt>
      <trkpt lat="41.3323580" lon="-4.9286910">
        <ele>746.8</ele>
        <time>2019-08-14T14:32:05Z</time>
      </trkpt>
      <trkpt lat="41.3323770" lon="-4.9287220">
        <ele>746.9</ele>
        <time>2019-08-14T14:32:06Z</time>
      </trkpt>
      <trkpt lat="41.3323950" lon="-4.9287540">
        <ele>747.1</ele>
        <time>2019-08-14T14:32:07Z</time>
      </trkpt>
      <trkpt lat="41.3324140" lon="-4.9287870">
        <ele>747.2</ele>
        <time>2019-08-14T14:32:08Z</time>
      </trkpt>
      <trkpt lat="41.3324320" lon="-4.9288200">
        <ele>747.4</ele>
        <time>2019-08-14T14:32:09Z</time>
      </trkpt>
      <trkpt lat="41.3324500" lon="-4.9288530">
        <ele>747.7</ele>
        <time>2019-08-14T14:32:10Z</time>
      </trkpt>
      <trkpt lat="41.3324680" lon="-4.9288870">
        <ele>747.8</ele>
        <time>2019-08-14T14:32:11Z</time>
      </trkpt>
      <trkpt lat="41.3324860" lon="-4.9289220">
        <ele>748.0</ele>
        <time>2019-08-14T14:32:12Z</time>
      </trkpt>
      <trkpt lat="41.3325020" lon="-4.9289590">
        <ele>748.1</ele>
        <time>2019-08-14T14:32:13Z</time>
      </trkpt>
      <trkpt lat="41.3325170" lon="-4.9289950">
        <ele>748.2</ele>
        <time>2019-08-14T14:32:14Z</time>
      </trkpt>
      <trkpt lat="41.3325310" lon="-4.9290330">
        <ele>748.4</ele>
        <time>2019-08-14T14:32:15Z</time>
      </trkpt>
      <trkpt lat="41.3325450" lon="-4.9290710">
        <ele>748.5</ele>
        <time>2019-08-14T14:32:16Z</time>
      </trkpt>
      <trkpt lat="41.3325570" lon="-4.9291080">
        <ele>748.6</ele>
        <time>2019-08-14T14:32:17Z</time>
      </trkpt>
      <trkpt lat="41.3325690" lon="-4.9291440">
        <ele>748.7</ele>
        <time>2019-08-14T14:32:18Z</time>
      </trkpt>
      <trkpt lat="41.3325800" lon="-4.9291820">
        <ele>748.9</ele>
        <time>2019-08-14T14:32:19Z</time>
      </trkpt>
      <trkpt lat="41.3325880" lon="-4.9292210">
        <ele>748.9</ele>
        <time>2019-08-14T14:32:20Z</time>
      </trkpt>
      <trkpt lat="41.3325950" lon="-4.9292610">
        <ele>749.0</ele>
        <time>2019-08-14T14:32:21Z</time>
      </trkpt>
      <trkpt lat="41.3326020" lon="-4.9293020">
        <ele>749.0</ele>
        <time>2019-08-14T14:32:22Z</time>
      </trkpt>
      <trkpt lat="41.3326070" lon="-4.9293450">
        <ele>749.1</ele>
        <time>2019-08-14T14:32:23Z</time>
      </trkpt>
      <trkpt lat="41.3326110" lon="-4.9293880">
        <ele>749.1</ele>
        <time>2019-08-14T14:32:24Z</time>
      </trkpt>
      <trkpt lat="41.3326130" lon="-4.9294330">
        <ele>749.2</ele>
        <time>2019-08-14T14:32:25Z</time>
      </trkpt>
      <trkpt lat="41.3326130" lon="-4.9294810">
        <ele>749.2</ele>
        <time>2019-08-14T14:32:26Z</time>
      </trkpt>
      <trkpt lat="41.3326090" lon="-4.9295310">
        <ele>749.3</ele>
        <time>2019-08-14T14:32:27Z</time>
      </trkpt>
      <trkpt lat="41.3326030" lon="-4.9295810">
        <ele>749.3</ele>
        <time>2019-08-14T14:32:28Z</time>
      </trkpt>
      <trkpt lat="41.3325930" lon="-4.9296330">
        <ele>749.3</ele>
        <time>2019-08-14T14:32:29Z</time>
      </trkpt>
      <trkpt lat="41.3325820" lon="-4.9296860">
        <ele>749.3</ele>
        <time>2019-08-14T14:32:30Z</time>
      </trkpt>
      <trkpt lat="41.3325700" lon="-4.9297410">
        <ele>749.3</ele>
        <time>2019-08-14T14:32:31Z</time>
      </trkpt>
      <trkpt lat="41.3325580" lon="-4.9297980">
        <ele>749.4</ele>
        <time>2019-08-14T14:32:32Z</time>
      </trkpt>
      <trkpt lat="41.3325460" lon="-4.9298560">
        <ele>749.4</ele>
        <time>2019-08-14T14:32:33Z</time>
      </trkpt>
      <trkpt lat="41.3325340" lon="-4.9299190">
        <ele>749.4</ele>
        <time>2019-08-14T14:32:34Z</time>
      </trkpt>
      <trkpt lat="41.3325210" lon="-4.9299840">
        <ele>749.4</ele>
        <time>2019-08-14T14:32:35Z</time>
      </trkpt>
      <trkpt lat="41.3325060" lon="-4.9300560">
        <ele>749.4</ele>
        <time>2019-08-14T14:32:36Z</time>
      </trkpt>
      <trkpt lat="41.3324900" lon="-4.9301310">
        <ele>749.3</ele>
        <time>2019-08-14T14:32:37Z</time>
      </trkpt>
      <trkpt lat="41.3324730" lon="-4.9302100">
        <ele>749.3</ele>
        <time>2019-08-14T14:32:38Z</time>
      </trkpt>
      <trkpt lat="41.3324570" lon="-4.9302930">
        <ele>749.2</ele>
        <time>2019-08-14T14:32:39Z</time>
      </trkpt>
      <trkpt lat="41.3324430" lon="-4.9303810">
        <ele>749.1</ele>
        <time>2019-08-14T14:32:40Z</time>
      </trkpt>
      <trkpt lat="41.3324310" lon="-4.9304730">
        <ele>748.9</ele>
        <time>2019-08-14T14:32:41Z</time>
      </trkpt>
      <trkpt lat="41.3324260" lon="-4.9305670">
        <ele>748.6</ele>
        <time>2019-08-14T14:32:42Z</time>
      </trkpt>
      <trkpt lat="41.3324230" lon="-4.9306600">
        <ele>748.3</ele>
        <time>2019-08-14T14:32:43Z</time>
      </trkpt>
      <trkpt lat="41.3324260" lon="-4.9307520">
        <ele>747.8</ele>
        <time>2019-08-14T14:32:44Z</time>
      </trkpt>
      <trkpt lat="41.3324330" lon="-4.9308430">
        <ele>747.4</ele>
        <time>2019-08-14T14:32:45Z</time>
      </trkpt>
      <trkpt lat="41.3324420" lon="-4.9309320">
        <ele>746.9</ele>
        <time>2019-08-14T14:32:46Z</time>
      </trkpt>
      <trkpt lat="41.3324560" lon="-4.9310180">
        <ele>746.5</ele>
        <time>2019-08-14T14:32:47Z</time>
      </trkpt>
      <trkpt lat="41.3324750" lon="-4.9310980">
        <ele>746.0</ele>
        <time>2019-08-14T14:32:48Z</time>
      </trkpt>
      <trkpt lat="41.3324990" lon="-4.9311730">
        <ele>745.5</ele>
        <time>2019-08-14T14:32:49Z</time>
      </trkpt>
      <trkpt lat="41.3325280" lon="-4.9312410">
        <ele>745.3</ele>
        <time>2019-08-14T14:32:50Z</time>
      </trkpt>
      <trkpt lat="41.3325580" lon="-4.9313030">
        <ele>745.2</ele>
        <time>2019-08-14T14:32:51Z</time>
      </trkpt>
      <trkpt lat="41.3325870" lon="-4.9313620">
        <ele>745.0</ele>
        <time>2019-08-14T14:32:52Z</time>
      </trkpt>
      <trkpt lat="41.3326170" lon="-4.9314160">
        <ele>744.8</ele>
        <time>2019-08-14T14:32:53Z</time>
      </trkpt>
      <trkpt lat="41.3326450" lon="-4.9314670">
        <ele>744.6</ele>
        <time>2019-08-14T14:32:54Z</time>
      </trkpt>
      <trkpt lat="41.3326720" lon="-4.9315150">
        <ele>744.6</ele>
        <time>2019-08-14T14:32:55Z</time>
      </trkpt>
      <trkpt lat="41.3326980" lon="-4.9315600">
        <ele>744.5</ele>
        <time>2019-08-14T14:32:56Z</time>
      </trkpt>
      <trkpt lat="41.3327230" lon="-4.9316050">
        <ele>744.4</ele>
        <time>2019-08-14T14:32:57Z</time>
      </trkpt>
      <trkpt lat="41.3327480" lon="-4.9316490">
        <ele>744.3</ele>
        <time>2019-08-14T14:32:58Z</time>
      </trkpt>
      <trkpt lat="41.3327730" lon="-4.9316920">
        <ele>744.3</ele>
        <time>2019-08-14T14:32:59Z</time>
      </trkpt>
      <trkpt lat="41.3327980" lon="-4.9317330">
        <ele>744.2</ele>
        <time>2019-08-14T14:33:00Z</time>
      </trkpt>
      <trkpt lat="41.3328230" lon="-4.9317740">
        <ele>744.2</ele>
        <time>2019-08-14T14:33:01Z</time>
      </trkpt>
      <trkpt lat="41.3328490" lon="-4.9318170">
        <ele>744.1</ele>
        <time>2019-08-14T14:33:02Z</time>
      </trkpt>
      <trkpt lat="41.3328770" lon="-4.9318600">
        <ele>744.0</ele>
        <time>2019-08-14T14:33:03Z</time>
      </trkpt>
      <trkpt lat="41.3329060" lon="-4.9319040">
        <ele>744.0</ele>
        <time>2019-08-14T14:33:04Z</time>
      </trkpt>
      <trkpt lat="41.3329350" lon="-4.9319460">
        <ele>743.9</ele>
        <time>2019-08-14T14:33:05Z</time>
      </trkpt>
      <trkpt lat="41.3329640" lon="-4.9319880">
        <ele>743.8</ele>
        <time>2019-08-14T14:33:06Z</time>
      </trkpt>
      <trkpt lat="41.3329930" lon="-4.9320290">
        <ele>743.8</ele>
        <time>2019-08-14T14:33:07Z</time>
      </trkpt>
      <trkpt lat="41.3330220" lon="-4.9320670">
        <ele>743.7</ele>
        <time>2019-08-14T14:33:08Z</time>
      </trkpt>
      <trkpt lat="41.3330510" lon="-4.9321050">
        <ele>743.7</ele>
        <time>2019-08-14T14:33:09Z</time>
      </trkpt>
      <trkpt lat="41.3330790" lon="-4.9321430">
        <ele>743.7</ele>
        <time>2019-08-14T14:33:10Z</time>
      </trkpt>
      <trkpt lat="41.3331060" lon="-4.9321820">
        <ele>743.7</ele>
        <time>2019-08-14T14:33:11Z</time>
      </trkpt>
      <trkpt lat="41.3331320" lon="-4.9322190">
        <ele>743.7</ele>
        <time>2019-08-14T14:33:12Z</time>
      </trkpt>
      <trkpt lat="41.3331600" lon="-4.9322550">
        <ele>743.7</ele>
        <time>2019-08-14T14:33:13Z</time>
      </trkpt>
      <trkpt lat="41.3331880" lon="-4.9322910">
        <ele>743.8</ele>
        <time>2019-08-14T14:33:14Z</time>
      </trkpt>
      <trkpt lat="41.3332150" lon="-4.9323260">
        <ele>743.8</ele>
        <time>2019-08-14T14:33:15Z</time>
      </trkpt>
      <trkpt lat="41.3332420" lon="-4.9323610">
        <ele>743.8</ele>
        <time>2019-08-14T14:33:16Z</time>
      </trkpt>
      <trkpt lat="41.3332680" lon="-4.9323950">
        <ele>743.8</ele>
        <time>2019-08-14T14:33:17Z</time>
      </trkpt>
      <trkpt lat="41.3332940" lon="-4.9324310">
        <ele>743.9</ele>
        <time>2019-08-14T14:33:18Z</time>
      </trkpt>
      <trkpt lat="41.3333190" lon="-4.9324670">
        <ele>743.9</ele>
        <time>2019-08-14T14:33:19Z</time>
      </trkpt>
      <trkpt lat="41.3333440" lon="-4.9325020">
        <ele>743.9</ele>
        <time>2019-08-14T14:33:20Z</time>
      </trkpt>
      <trkpt lat="41.3333700" lon="-4.9325380">
        <ele>744.0</ele>
        <time>2019-08-14T14:33:21Z</time>
      </trkpt>
      <trkpt lat="41.3333970" lon="-4.9325730">
        <ele>744.0</ele>
        <time>2019-08-14T14:33:22Z</time>
      </trkpt>
      <trkpt lat="41.3334250" lon="-4.9326090">
        <ele>744.0</ele>
        <time>2019-08-14T14:33:23Z</time>
      </trkpt>
      <trkpt lat="41.3334530" lon="-4.9326460">
        <ele>744.1</ele>
        <time>2019-08-14T14:33:24Z</time>
      </trkpt>
      <trkpt lat="41.3334810" lon="-4.9326820">
        <ele>744.1</ele>
        <time>2019-08-14T14:33:25Z</time>
      </trkpt>
      <trkpt lat="41.3335090" lon="-4.9327190">
        <ele>744.1</ele>
        <time>2019-08-14T14:33:26Z</time>
      </trkpt>
      <trkpt lat="41.3335380" lon="-4.9327570">
        <ele>744.1</ele>
        <time>2019-08-14T14:33:27Z</time>
      </trkpt>
      <trkpt lat="41.3335690" lon="-4.9327990">
        <ele>744.1</ele>
        <time>2019-08-14T14:33:28Z</time>
      </trkpt>
      <trkpt lat="41.3336010" lon="-4.9328400">
        <ele>744.2</ele>
        <time>2019-08-14T14:33:29Z</time>
      </trkpt>
      <trkpt lat="41.3336330" lon="-4.9328800">
        <ele>744.2</ele>
        <time>2019-08-14T14:33:30Z</time>
      </trkpt>
      <trkpt lat="41.3336660" lon="-4.9329200">
        <ele>744.2</ele>
        <time>2019-08-14T14:33:31Z</time>
      </trkpt>
      <trkpt lat="41.3337020" lon="-4.9329580">
        <ele>744.2</ele>
        <time>2019-08-14T14:33:32Z</time>
      </trkpt>
      <trkpt lat="41.3337370" lon="-4.9329930">
        <ele>744.2</ele>
        <time>2019-08-14T14:33:33Z</time>
      </trkpt>
      <trkpt lat="41.3337760" lon="-4.9330250">
        <ele>744.2</ele>
        <time>2019-08-14T14:33:34Z</time>
      </trkpt>
      <trkpt lat="41.3338150" lon="-4.9330520">
        <ele>744.1</ele>
        <time>2019-08-14T14:33:35Z</time>
      </trkpt>
      <trkpt lat="41.3338570" lon="-4.9330730">
        <ele>744.1</ele>
        <time>2019-08-14T14:33:36Z</time>
      </trkpt>
      <trkpt lat="41.3339010" lon="-4.9330910">
        <ele>744.1</ele>
        <time>2019-08-14T14:33:37Z</time>
      </trkpt>
      <trkpt lat="41.3339480" lon="-4.9331050">
        <ele>744.0</ele>
        <time>2019-08-14T14:33:38Z</time>
      </trkpt>
      <trkpt lat="41.3339970" lon="-4.9331130">
        <ele>744.0</ele>
        <time>2019-08-14T14:33:39Z</time>
      </trkpt>
      <trkpt lat="41.3340480" lon="-4.9331170">
        <ele>744.0</ele>
        <time>2019-08-14T14:33:40Z</time>
      </trkpt>
      <trkpt lat="41.3340980" lon="-4.9331170">
        <ele>744.0</ele>
        <time>2019-08-14T14:33:41Z</time>
      </trkpt>
      <trkpt lat="41.3341480" lon="-4.9331130">
        <ele>743.9</ele>
        <time>2019-08-14T14:33:42Z</time>
      </trkpt>
      <trkpt lat="41.3341990" lon="-4.9331080">
        <ele>744.1</ele>
        <time>2019-08-14T14:33:43Z</time>
      </trkpt>
      <trkpt lat="41.3342490" lon="-4.9331020">
        <ele>744.1</ele>
        <time>2019-08-14T14:33:44Z</time>
      </trkpt>
      <trkpt lat="41.3342980" lon="-4.9330950">
        <ele>744.1</ele>
        <time>2019-08-14T14:33:45Z</time>
      </trkpt>
      <trkpt lat="41.3343460" lon="-4.9330890">
        <ele>744.1</ele>
        <time>2019-08-14T14:33:46Z</time>
      </trkpt>
      <trkpt lat="41.3343920" lon="-4.9330860">
        <ele>744.1</ele>
        <time>2019-08-14T14:33:47Z</time>
      </trkpt>
      <trkpt lat="41.3344390" lon="-4.9330850">
        <ele>744.1</ele>
        <time>2019-08-14T14:33:48Z</time>
      </trkpt>
      <trkpt lat="41.3344860" lon="-4.9330790">
        <ele>744.1</ele>
        <time>2019-08-14T14:33:49Z</time>
      </trkpt>
      <trkpt lat="41.3345360" lon="-4.9330720">
        <ele>744.1</ele>
        <time>2019-08-14T14:33:50Z</time>
      </trkpt>
      <trkpt lat="41.3345860" lon="-4.9330640">
        <ele>744.1</ele>
        <time>2019-08-14T14:33:51Z</time>
      </trkpt>
      <trkpt lat="41.3346370" lon="-4.9330550">
        <ele>744.1</ele>
        <time>2019-08-14T14:33:52Z</time>
      </trkpt>
      <trkpt lat="41.3346860" lon="-4.9330430">
        <ele>744.1</ele>
        <time>2019-08-14T14:33:53Z</time>
      </trkpt>
      <trkpt lat="41.3347350" lon="-4.9330310">
        <ele>744.1</ele>
        <time>2019-08-14T14:33:54Z</time>
      </trkpt>
      <trkpt lat="41.3347850" lon="-4.9330230">
        <ele>744.2</ele>
        <time>2019-08-14T14:33:55Z</time>
      </trkpt>
      <trkpt lat="41.3348360" lon="-4.9330160">
        <ele>744.2</ele>
        <time>2019-08-14T14:33:56Z</time>
      </trkpt>
      <trkpt lat="41.3348860" lon="-4.9330110">
        <ele>744.3</ele>
        <time>2019-08-14T14:33:57Z</time>
      </trkpt>
      <trkpt lat="41.3349360" lon="-4.9330050">
        <ele>744.4</ele>
        <time>2019-08-14T14:33:58Z</time>
      </trkpt>
      <trkpt lat="41.3349860" lon="-4.9329990">
        <ele>744.5</ele>
        <time>2019-08-14T14:33:59Z</time>
      </trkpt>
      <trkpt lat="41.3350340" lon="-4.9329910">
        <ele>744.6</ele>
        <time>2019-08-14T14:34:00Z</time>
      </trkpt>
      <trkpt lat="41.3350820" lon="-4.9329830">
        <ele>744.7</ele>
        <time>2019-08-14T14:34:01Z</time>
      </trkpt>
      <trkpt lat="41.3351290" lon="-4.9329790">
        <ele>744.8</ele>
        <time>2019-08-14T14:34:02Z</time>
      </trkpt>
      <trkpt lat="41.3351760" lon="-4.9329770">
        <ele>744.8</ele>
        <time>2019-08-14T14:34:03Z</time>
      </trkpt>
      <trkpt lat="41.3352230" lon="-4.9329730">
        <ele>744.9</ele>
        <time>2019-08-14T14:34:04Z</time>
      </trkpt>
      <trkpt lat="41.3352690" lon="-4.9329680">
        <ele>745.0</ele>
        <time>2019-08-14T14:34:05Z</time>
      </trkpt>
      <trkpt lat="41.3353160" lon="-4.9329610">
        <ele>745.1</ele>
        <time>2019-08-14T14:34:06Z</time>
      </trkpt>
      <trkpt lat="41.3353620" lon="-4.9329540">
        <ele>745.1</ele>
        <time>2019-08-14T14:34:07Z</time>
      </trkpt>
      <trkpt lat="41.3354070" lon="-4.9329470">
        <ele>745.2</ele>
        <time>2019-08-14T14:34:08Z</time>
      </trkpt>
      <trkpt lat="41.3354520" lon="-4.9329420">
        <ele>745.3</ele>
        <time>2019-08-14T14:34:09Z</time>
      </trkpt>
      <trkpt lat="41.3354970" lon="-4.9329380">
        <ele>745.3</ele>
        <time>2019-08-14T14:34:10Z</time>
      </trkpt>
      <trkpt lat="41.3355400" lon="-4.9329380">
        <ele>745.3</ele>
        <time>2019-08-14T14:34:11Z</time>
      </trkpt>
      <trkpt lat="41.3355820" lon="-4.9329380">
        <ele>745.3</ele>
        <time>2019-08-14T14:34:12Z</time>
      </trkpt>
      <trkpt lat="41.3356250" lon="-4.9329370">
        <ele>745.4</ele>
        <time>2019-08-14T14:34:13Z</time>
      </trkpt>
      <trkpt lat="41.3356680" lon="-4.9329400">
        <ele>745.4</ele>
        <time>2019-08-14T14:34:14Z</time>
      </trkpt>
      <trkpt lat="41.3357130" lon="-4.9329420">
        <ele>745.4</ele>
        <time>2019-08-14T14:34:15Z</time>
      </trkpt>
      <trkpt lat="41.3357570" lon="-4.9329420">
        <ele>745.5</ele>
        <time>2019-08-14T14:34:16Z</time>
      </trkpt>
      <trkpt lat="41.3358020" lon="-4.9329430">
        <ele>745.5</ele>
        <time>2019-08-14T14:34:17Z</time>
      </trkpt>
      <trkpt lat="41.3358470" lon="-4.9329480">
        <ele>745.5</ele>
        <time>2019-08-14T14:34:18Z</time>
      </trkpt>
      <trkpt lat="41.3358930" lon="-4.9329560">
        <ele>745.5</ele>
        <time>2019-08-14T14:34:19Z</time>
      </trkpt>
      <trkpt lat="41.3359410" lon="-4.9329670">
        <ele>745.6</ele>
        <time>2019-08-14T14:34:20Z</time>
      </trkpt>
      <trkpt lat="41.3359880" lon="-4.9329780">
        <ele>745.6</ele>
        <time>2019-08-14T14:34:21Z</time>
      </trkpt>
      <trkpt lat="41.3360370" lon="-4.9329860">
        <ele>745.6</ele>
        <time>2019-08-14T14:34:22Z</time>
      </trkpt>
      <trkpt lat="41.3360830" lon="-4.9329960">
        <ele>745.6</ele>
        <time>2019-08-14T14:34:23Z</time>
      </trkpt>
      <trkpt lat="41.3361280" lon="-4.9330050">
        <ele>745.6</ele>
        <time>2019-08-14T14:34:24Z</time>
      </trkpt>
      <trkpt lat="41.3361700" lon="-4.9330140">
        <ele>745.7</ele>
        <time>2019-08-14T14:34:25Z</time>
      </trkpt>
      <trkpt lat="41.3362140" lon="-4.9330240">
        <ele>745.7</ele>
        <time>2019-08-14T14:34:26Z</time>
      </trkpt>
      <trkpt lat="41.3362580" lon="-4.9330340">
        <ele>745.7</ele>
        <time>2019-08-14T14:34:27Z</time>
      </trkpt>
      <trkpt lat="41.3363010" lon="-4.9330430">
        <ele>745.8</ele>
        <time>2019-08-14T14:34:28Z</time>
      </trkpt>
      <trkpt lat="41.3363450" lon="-4.9330530">
        <ele>745.8</ele>
        <time>2019-08-14T14:34:29Z</time>
      </trkpt>
      <trkpt lat="41.3363870" lon="-4.9330640">
        <ele>745.8</ele>
        <time>2019-08-14T14:34:30Z</time>
      </trkpt>
      <trkpt lat="41.3364300" lon="-4.9330740">
        <ele>745.9</ele>
        <time>2019-08-14T14:34:31Z</time>
      </trkpt>
      <trkpt lat="41.3364700" lon="-4.9330840">
        <ele>745.9</ele>
        <time>2019-08-14T14:34:32Z</time>
      </trkpt>
      <trkpt lat="41.3365110" lon="-4.9330920">
        <ele>745.9</ele>
        <time>2019-08-14T14:34:33Z</time>
      </trkpt>
      <trkpt lat="41.3365510" lon="-4.9331010">
        <ele>746.0</ele>
        <time>2019-08-14T14:34:34Z</time>
      </trkpt>
      <trkpt lat="41.3365900" lon="-4.9331120">
        <ele>746.0</ele>
        <time>2019-08-14T14:34:35Z</time>
      </trkpt>
      <trkpt lat="41.3366270" lon="-4.9331220">
        <ele>746.1</ele>
        <time>2019-08-14T14:34:36Z</time>
      </trkpt>
      <trkpt lat="41.3366650" lon="-4.9331300">
        <ele>746.1</ele>
        <time>2019-08-14T14:34:37Z</time>
      </trkpt>
      <trkpt lat="41.3367010" lon="-4.9331380">
        <ele>746.2</ele>
        <time>2019-08-14T14:34:38Z</time>
      </trkpt>
      <trkpt lat="41.3367390" lon="-4.9331460">
        <ele>746.2</ele>
        <time>2019-08-14T14:34:39Z</time>
      </trkpt>
      <trkpt lat="41.3367750" lon="-4.9331550">
        <ele>746.3</ele>
        <time>2019-08-14T14:34:40Z</time>
      </trkpt>
      <trkpt lat="41.3368110" lon="-4.9331640">
        <ele>746.4</ele>
        <time>2019-08-14T14:34:41Z</time>
      </trkpt>
      <trkpt lat="41.3368480" lon="-4.9331720">
        <ele>746.5</ele>
        <time>2019-08-14T14:34:42Z</time>
      </trkpt>
      <trkpt lat="41.3368840" lon="-4.9331810">
        <ele>746.5</ele>
        <time>2019-08-14T14:34:43Z</time>
      </trkpt>
      <trkpt lat="41.3369210" lon="-4.9331890">
        <ele>746.6</ele>
        <time>2019-08-14T14:34:44Z</time>
      </trkpt>
      <trkpt lat="41.3369570" lon="-4.9331980">
        <ele>746.6</ele>
        <time>2019-08-14T14:34:45Z</time>
      </trkpt>
      <trkpt lat="41.3369950" lon="-4.9332070">
        <ele>746.7</ele>
        <time>2019-08-14T14:34:46Z</time>
      </trkpt>
      <trkpt lat="41.3370320" lon="-4.9332170">
        <ele>746.7</ele>
        <time>2019-08-14T14:34:47Z</time>
      </trkpt>
      <trkpt lat="41.3370690" lon="-4.9332270">
        <ele>746.8</ele>
        <time>2019-08-14T14:34:48Z</time>
      </trkpt>
      <trkpt lat="41.3371070" lon="-4.9332390">
        <ele>746.8</ele>
        <time>2019-08-14T14:34:49Z</time>
      </trkpt>
      <trkpt lat="41.3371440" lon="-4.9332500">
        <ele>746.9</ele>
        <time>2019-08-14T14:34:50Z</time>
      </trkpt>
      <trkpt lat="41.3371820" lon="-4.9332620">
        <ele>747.0</ele>
        <time>2019-08-14T14:34:51Z</time>
      </trkpt>
      <trkpt lat="41.3372200" lon="-4.9332740">
        <ele>747.0</ele>
        <time>2019-08-14T14:34:52Z</time>
      </trkpt>
      <trkpt lat="41.3372570" lon="-4.9332840">
        <ele>747.1</ele>
        <time>2019-08-14T14:34:53Z</time>
      </trkpt>
      <trkpt lat="41.3372940" lon="-4.9332960">
        <ele>747.2</ele>
        <time>2019-08-14T14:34:54Z</time>
      </trkpt>
      <trkpt lat="41.3373300" lon="-4.9333080">
        <ele>747.3</ele>
        <time>2019-08-14T14:34:55Z</time>
      </trkpt>
      <trkpt lat="41.3373660" lon="-4.9333160">
        <ele>747.3</ele>
        <time>2019-08-14T14:34:56Z</time>
      </trkpt>
      <trkpt lat="41.3374030" lon="-4.9333240">
        <ele>747.4</ele>
        <time>2019-08-14T14:34:57Z</time>
      </trkpt>
      <trkpt lat="41.3374400" lon="-4.9333320">
        <ele>747.4</ele>
        <time>2019-08-14T14:34:58Z</time>
      </trkpt>
      <trkpt lat="41.3374750" lon="-4.9333420">
        <ele>747.5</ele>
        <time>2019-08-14T14:34:59Z</time>
      </trkpt>
      <trkpt lat="41.3375110" lon="-4.9333520">
        <ele>747.5</ele>
        <time>2019-08-14T14:35:00Z</time>
      </trkpt>
      <trkpt lat="41.3375480" lon="-4.9333600">
        <ele>747.6</ele>
        <time>2019-08-14T14:35:01Z</time>
      </trkpt>
      <trkpt lat="41.3375840" lon="-4.9333690">
        <ele>747.6</ele>
        <time>2019-08-14T14:35:02Z</time>
      </trkpt>
      <trkpt lat="41.3376200" lon="-4.9333770">
        <ele>747.6</ele>
        <time>2019-08-14T14:35:03Z</time>
      </trkpt>
      <trkpt lat="41.3376570" lon="-4.9333870">
        <ele>747.7</ele>
        <time>2019-08-14T14:35:04Z</time>
      </trkpt>
      <trkpt lat="41.3376940" lon="-4.9333970">
        <ele>747.7</ele>
        <time>2019-08-14T14:35:05Z</time>
      </trkpt>
      <trkpt lat="41.3377300" lon="-4.9334050">
        <ele>747.7</ele>
        <time>2019-08-14T14:35:06Z</time>
      </trkpt>
      <trkpt lat="41.3377680" lon="-4.9334130">
        <ele>747.7</ele>
        <time>2019-08-14T14:35:07Z</time>
      </trkpt>
      <trkpt lat="41.3378060" lon="-4.9334200">
        <ele>747.8</ele>
        <time>2019-08-14T14:35:08Z</time>
      </trkpt>
      <trkpt lat="41.3378460" lon="-4.9334270">
        <ele>747.8</ele>
        <time>2019-08-14T14:35:09Z</time>
      </trkpt>
      <trkpt lat="41.3378870" lon="-4.9334380">
        <ele>747.8</ele>
        <time>2019-08-14T14:35:10Z</time>
      </trkpt>
      <trkpt lat="41.3379290" lon="-4.9334500">
        <ele>747.8</ele>
        <time>2019-08-14T14:35:11Z</time>
      </trkpt>
      <trkpt lat="41.3379710" lon="-4.9334620">
        <ele>747.8</ele>
        <time>2019-08-14T14:35:12Z</time>
      </trkpt>
      <trkpt lat="41.3380120" lon="-4.9334730">
        <ele>747.8</ele>
        <time>2019-08-14T14:35:13Z</time>
      </trkpt>
      <trkpt lat="41.3380530" lon="-4.9334830">
        <ele>747.8</ele>
        <time>2019-08-14T14:35:14Z</time>
      </trkpt>
      <trkpt lat="41.3380930" lon="-4.9334930">
        <ele>747.8</ele>
        <time>2019-08-14T14:35:15Z</time>
      </trkpt>
      <trkpt lat="41.3381310" lon="-4.9335030">
        <ele>747.8</ele>
        <time>2019-08-14T14:35:16Z</time>
      </trkpt>
      <trkpt lat="41.3381700" lon="-4.9335130">
        <ele>747.8</ele>
        <time>2019-08-14T14:35:17Z</time>
      </trkpt>
      <trkpt lat="41.3382100" lon="-4.9335240">
        <ele>747.8</ele>
        <time>2019-08-14T14:35:18Z</time>
      </trkpt>
      <trkpt lat="41.3382500" lon="-4.9335360">
        <ele>747.9</ele>
        <time>2019-08-14T14:35:19Z</time>
      </trkpt>
      <trkpt lat="41.3382900" lon="-4.9335470">
        <ele>747.9</ele>
        <time>2019-08-14T14:35:20Z</time>
      </trkpt>
      <trkpt lat="41.3383280" lon="-4.9335590">
        <ele>747.9</ele>
        <time>2019-08-14T14:35:21Z</time>
      </trkpt>
      <trkpt lat="41.3383650" lon="-4.9335690">
        <ele>747.9</ele>
        <time>2019-08-14T14:35:22Z</time>
      </trkpt>
      <trkpt lat="41.3384020" lon="-4.9335790">
        <ele>747.9</ele>
        <time>2019-08-14T14:35:23Z</time>
      </trkpt>
      <trkpt lat="41.3384380" lon="-4.9335890">
        <ele>747.9</ele>
        <time>2019-08-14T14:35:24Z</time>
      </trkpt>
      <trkpt lat="41.3384740" lon="-4.9336000">
        <ele>747.9</ele>
        <time>2019-08-14T14:35:25Z</time>
      </trkpt>
      <trkpt lat="41.3385110" lon="-4.9336100">
        <ele>748.0</ele>
        <time>2019-08-14T14:35:26Z</time>
      </trkpt>
      <trkpt lat="41.3385470" lon="-4.9336180">
        <ele>748.0</ele>
        <time>2019-08-14T14:35:27Z</time>
      </trkpt>
      <trkpt lat="41.3385810" lon="-4.9336260">
        <ele>748.0</ele>
        <time>2019-08-14T14:35:28Z</time>
      </trkpt>
      <trkpt lat="41.3386150" lon="-4.9336340">
        <ele>748.1</ele>
        <time>2019-08-14T14:35:29Z</time>
      </trkpt>
      <trkpt lat="41.3386480" lon="-4.9336390">
        <ele>748.1</ele>
        <time>2019-08-14T14:35:30Z</time>
      </trkpt>
      <trkpt lat="41.3386820" lon="-4.9336430">
        <ele>748.1</ele>
        <time>2019-08-14T14:35:31Z</time>
      </trkpt>
      <trkpt lat="41.3387150" lon="-4.9336480">
        <ele>748.2</ele>
        <time>2019-08-14T14:35:32Z</time>
      </trkpt>
      <trkpt lat="41.3387480" lon="-4.9336540">
        <ele>748.2</ele>
        <time>2019-08-14T14:35:33Z</time>
      </trkpt>
      <trkpt lat="41.3387810" lon="-4.9336630">
        <ele>748.3</ele>
        <time>2019-08-14T14:35:34Z</time>
      </trkpt>
      <trkpt lat="41.3388150" lon="-4.9336710">
        <ele>748.3</ele>
        <time>2019-08-14T14:35:35Z</time>
      </trkpt>
      <trkpt lat="41.3388500" lon="-4.9336800">
        <ele>748.4</ele>
        <time>2019-08-14T14:35:36Z</time>
      </trkpt>
      <trkpt lat="41.3388840" lon="-4.9336890">
        <ele>748.4</ele>
        <time>2019-08-14T14:35:37Z</time>
      </trkpt>
      <trkpt lat="41.3389190" lon="-4.9336980">
        <ele>748.5</ele>
        <time>2019-08-14T14:35:38Z</time>
      </trkpt>
      <trkpt lat="41.3389540" lon="-4.9337060">
        <ele>748.6</ele>
        <time>2019-08-14T14:35:39Z</time>
      </trkpt>
      <trkpt lat="41.3389890" lon="-4.9337160">
        <ele>748.6</ele>
        <time>2019-08-14T14:35:40Z</time>
      </trkpt>
      <trkpt lat="41.3390240" lon="-4.9337280">
        <ele>748.7</ele>
        <time>2019-08-14T14:35:41Z</time>
      </trkpt>
      <trkpt lat="41.3390570" lon="-4.9337430">
        <ele>748.7</ele>
        <time>2019-08-14T14:35:42Z</time>
      </trkpt>
      <trkpt lat="41.3390910" lon="-4.9337600">
        <ele>748.8</ele>
        <time>2019-08-14T14:35:43Z</time>
      </trkpt>
      <trkpt lat="41.3391250" lon="-4.9337750">
        <ele>748.9</ele>
        <time>2019-08-14T14:35:44Z</time>
      </trkpt>
      <trkpt lat="41.3391600" lon="-4.9337880">
        <ele>748.9</ele>
        <time>2019-08-14T14:35:45Z</time>
      </trkpt>
      <trkpt lat="41.3391950" lon="-4.9337980">
        <ele>749.0</ele>
        <time>2019-08-14T14:35:46Z</time>
      </trkpt>
      <trkpt lat="41.3392320" lon="-4.9338040">
        <ele>749.2</ele>
        <time>2019-08-14T14:35:47Z</time>
      </trkpt>
      <trkpt lat="41.3392670" lon="-4.9338120">
        <ele>749.2</ele>
        <time>2019-08-14T14:35:48Z</time>
      </trkpt>
      <trkpt lat="41.3393030" lon="-4.9338220">
        <ele>749.3</ele>
        <time>2019-08-14T14:35:49Z</time>
      </trkpt>
      <trkpt lat="41.3393380" lon="-4.9338310">
        <ele>749.3</ele>
        <time>2019-08-14T14:35:50Z</time>
      </trkpt>
      <trkpt lat="41.3393720" lon="-4.9338410">
        <ele>749.3</ele>
        <time>2019-08-14T14:35:51Z</time>
      </trkpt>
      <trkpt lat="41.3394060" lon="-4.9338520">
        <ele>749.4</ele>
        <time>2019-08-14T14:35:52Z</time>
      </trkpt>
      <trkpt lat="41.3394390" lon="-4.9338630">
        <ele>749.4</ele>
        <time>2019-08-14T14:35:53Z</time>
      </trkpt>
      <trkpt lat="41.3394730" lon="-4.9338720">
        <ele>749.5</ele>
        <time>2019-08-14T14:35:54Z</time>
      </trkpt>
      <trkpt lat="41.3395090" lon="-4.9338800">
        <ele>749.5</ele>
        <time>2019-08-14T14:35:55Z</time>
      </trkpt>
      <trkpt lat="41.3395440" lon="-4.9338900">
        <ele>749.6</ele>
        <time>2019-08-14T14:35:56Z</time>
      </trkpt>
      <trkpt lat="41.3395800" lon="-4.9339000">
        <ele>749.6</ele>
        <time>2019-08-14T14:35:57Z</time>
      </trkpt>
      <trkpt lat="41.3396150" lon="-4.9339100">
        <ele>749.6</ele>
        <time>2019-08-14T14:35:58Z</time>
      </trkpt>
      <trkpt lat="41.3396520" lon="-4.9339180">
        <ele>749.6</ele>
        <time>2019-08-14T14:35:59Z</time>
      </trkpt>
      <trkpt lat="41.3396890" lon="-4.9339280">
        <ele>749.6</ele>
        <time>2019-08-14T14:36:00Z</time>
      </trkpt>
      <trkpt lat="41.3397260" lon="-4.9339370">
        <ele>749.7</ele>
        <time>2019-08-14T14:36:01Z</time>
      </trkpt>
      <trkpt lat="41.3397610" lon="-4.9339460">
        <ele>749.7</ele>
        <time>2019-08-14T14:36:02Z</time>
      </trkpt>
      <trkpt lat="41.3397950" lon="-4.9339540">
        <ele>749.7</ele>
        <time>2019-08-14T14:36:03Z</time>
      </trkpt>
      <trkpt lat="41.3398270" lon="-4.9339630">
        <ele>749.7</ele>
        <time>2019-08-14T14:36:04Z</time>
      </trkpt>
      <trkpt lat="41.3398590" lon="-4.9339700">
        <ele>749.7</ele>
        <time>2019-08-14T14:36:05Z</time>
      </trkpt>
      <trkpt lat="41.3398920" lon="-4.9339770">
        <ele>749.7</ele>
        <time>2019-08-14T14:36:06Z</time>
      </trkpt>
      <trkpt lat="41.3399260" lon="-4.9339860">
        <ele>749.7</ele>
        <time>2019-08-14T14:36:07Z</time>
      </trkpt>
      <trkpt lat="41.3399620" lon="-4.9339960">
        <ele>749.8</ele>
        <time>2019-08-14T14:36:08Z</time>
      </trkpt>
      <trkpt lat="41.3399980" lon="-4.9340050">
        <ele>749.8</ele>
        <time>2019-08-14T14:36:09Z</time>
      </trkpt>
      <trkpt lat="41.3400340" lon="-4.9340150">
        <ele>749.8</ele>
        <time>2019-08-14T14:36:10Z</time>
      </trkpt>
      <trkpt lat="41.3400710" lon="-4.9340240">
        <ele>749.8</ele>
        <time>2019-08-14T14:36:11Z</time>
      </trkpt>
      <trkpt lat="41.3401060" lon="-4.9340330">
        <ele>749.9</ele>
        <time>2019-08-14T14:36:12Z</time>
      </trkpt>
      <trkpt lat="41.3401420" lon="-4.9340410">
        <ele>749.9</ele>
        <time>2019-08-14T14:36:13Z</time>
      </trkpt>
      <trkpt lat="41.3401760" lon="-4.9340500">
        <ele>749.9</ele>
        <time>2019-08-14T14:36:14Z</time>
      </trkpt>
      <trkpt lat="41.3402110" lon="-4.9340600">
        <ele>749.9</ele>
        <time>2019-08-14T14:36:15Z</time>
      </trkpt>
      <trkpt lat="41.3402450" lon="-4.9340700">
        <ele>750.0</ele>
        <time>2019-08-14T14:36:16Z</time>
      </trkpt>
      <trkpt lat="41.3402810" lon="-4.9340800">
        <ele>750.0</ele>
        <time>2019-08-14T14:36:17Z</time>
      </trkpt>
      <trkpt lat="41.3403170" lon="-4.9340880">
        <ele>750.0</ele>
        <time>2019-08-14T14:36:18Z</time>
      </trkpt>
      <trkpt lat="41.3403530" lon="-4.9340980">
        <ele>750.1</ele>
        <time>2019-08-14T14:36:19Z</time>
      </trkpt>
      <trkpt lat="41.3403890" lon="-4.9341070">
        <ele>750.1</ele>
        <time>2019-08-14T14:36:20Z</time>
      </trkpt>
      <trkpt lat="41.3404250" lon="-4.9341170">
        <ele>750.1</ele>
        <time>2019-08-14T14:36:21Z</time>
      </trkpt>
      <trkpt lat="41.3404610" lon="-4.9341260">
        <ele>750.2</ele>
        <time>2019-08-14T14:36:22Z</time>
      </trkpt>
      <trkpt lat="41.3404970" lon="-4.9341360">
        <ele>750.2</ele>
        <time>2019-08-14T14:36:23Z</time>
      </trkpt>
      <trkpt lat="41.3405340" lon="-4.9341450">
        <ele>750.2</ele>
        <time>2019-08-14T14:36:24Z</time>
      </trkpt>
      <trkpt lat="41.3405710" lon="-4.9341560">
        <ele>750.3</ele>
        <time>2019-08-14T14:36:25Z</time>
      </trkpt>
      <trkpt lat="41.3406070" lon="-4.9341670">
        <ele>750.3</ele>
        <time>2019-08-14T14:36:26Z</time>
      </trkpt>
      <trkpt lat="41.3406440" lon="-4.9341780">
        <ele>750.3</ele>
        <time>2019-08-14T14:36:27Z</time>
      </trkpt>
      <trkpt lat="41.3406820" lon="-4.9341890">
        <ele>750.4</ele>
        <time>2019-08-14T14:36:28Z</time>
      </trkpt>
      <trkpt lat="41.3407190" lon="-4.9342000">
        <ele>750.4</ele>
        <time>2019-08-14T14:36:29Z</time>
      </trkpt>
      <trkpt lat="41.3407560" lon="-4.9342110">
        <ele>750.5</ele>
        <time>2019-08-14T14:36:30Z</time>
      </trkpt>
      <trkpt lat="41.3407910" lon="-4.9342220">
        <ele>750.5</ele>
        <time>2019-08-14T14:36:31Z</time>
      </trkpt>
      <trkpt lat="41.3408240" lon="-4.9342310">
        <ele>750.6</ele>
        <time>2019-08-14T14:36:32Z</time>
      </trkpt>
      <trkpt lat="41.3408690" lon="-4.9342530">
        <ele>750.6</ele>
        <time>2019-08-14T14:36:34Z</time>
      </trkpt>
      <trkpt lat="41.3409040" lon="-4.9342990">
        <ele>750.7</ele>
        <time>2019-08-14T14:36:36Z</time>
      </trkpt>
      <trkpt lat="41.3409470" lon="-4.9343460">
        <ele>750.8</ele>
        <time>2019-08-14T14:36:38Z</time>
      </trkpt>
      <trkpt lat="41.3409750" lon="-4.9343720">
        <ele>750.8</ele>
        <time>2019-08-14T14:36:39Z</time>
      </trkpt>
      <trkpt lat="41.3410050" lon="-4.9343990">
        <ele>750.9</ele>
        <time>2019-08-14T14:36:40Z</time>
      </trkpt>
      <trkpt lat="41.3410350" lon="-4.9344340">
        <ele>750.9</ele>
        <time>2019-08-14T14:36:41Z</time>
      </trkpt>
      <trkpt lat="41.3410620" lon="-4.9344710">
        <ele>751.0</ele>
        <time>2019-08-14T14:36:42Z</time>
      </trkpt>
      <trkpt lat="41.3410860" lon="-4.9345050">
        <ele>751.0</ele>
        <time>2019-08-14T14:36:43Z</time>
      </trkpt>
      <trkpt lat="41.3411090" lon="-4.9345350">
        <ele>751.1</ele>
        <time>2019-08-14T14:36:44Z</time>
      </trkpt>
      <trkpt lat="41.3411330" lon="-4.9345600">
        <ele>751.1</ele>
        <time>2019-08-14T14:36:45Z</time>
      </trkpt>
      <trkpt lat="41.3411590" lon="-4.9345840">
        <ele>751.2</ele>
        <time>2019-08-14T14:36:46Z</time>
      </trkpt>
      <trkpt lat="41.3411870" lon="-4.9346030">
        <ele>751.2</ele>
        <time>2019-08-14T14:36:47Z</time>
      </trkpt>
      <trkpt lat="41.3412180" lon="-4.9346220">
        <ele>751.3</ele>
        <time>2019-08-14T14:36:48Z</time>
      </trkpt>
      <trkpt lat="41.3412510" lon="-4.9346390">
        <ele>751.4</ele>
        <time>2019-08-14T14:36:49Z</time>
      </trkpt>
      <trkpt lat="41.3412840" lon="-4.9346570">
        <ele>751.6</ele>
        <time>2019-08-14T14:36:50Z</time>
      </trkpt>
      <trkpt lat="41.3413170" lon="-4.9346760">
        <ele>751.7</ele>
        <time>2019-08-14T14:36:51Z</time>
      </trkpt>
      <trkpt lat="41.3413480" lon="-4.9346980">
        <ele>751.8</ele>
        <time>2019-08-14T14:36:52Z</time>
      </trkpt>
      <trkpt lat="41.3413790" lon="-4.9347250">
        <ele>751.9</ele>
        <time>2019-08-14T14:36:53Z</time>
      </trkpt>
      <trkpt lat="41.3414080" lon="-4.9347540">
        <ele>752.1</ele>
        <time>2019-08-14T14:36:54Z</time>
      </trkpt>
      <trkpt lat="41.3414400" lon="-4.9347810">
        <ele>752.3</ele>
        <time>2019-08-14T14:36:55Z</time>
      </trkpt>
      <trkpt lat="41.3414760" lon="-4.9348020">
        <ele>752.5</ele>
        <time>2019-08-14T14:36:56Z</time>
      </trkpt>
      <trkpt lat="41.3415110" lon="-4.9348240">
        <ele>752.7</ele>
        <time>2019-08-14T14:36:57Z</time>
      </trkpt>
      <trkpt lat="41.3415460" lon="-4.9348460">
        <ele>752.9</ele>
        <time>2019-08-14T14:36:58Z</time>
      </trkpt>
      <trkpt lat="41.3415810" lon="-4.9348670">
        <ele>753.1</ele>
        <time>2019-08-14T14:36:59Z</time>
      </trkpt>
      <trkpt lat="41.3416150" lon="-4.9348880">
        <ele>753.3</ele>
        <time>2019-08-14T14:37:00Z</time>
      </trkpt>
      <trkpt lat="41.3416490" lon="-4.9349090">
        <ele>753.6</ele>
        <time>2019-08-14T14:37:01Z</time>
      </trkpt>
      <trkpt lat="41.3416840" lon="-4.9349290">
        <ele>753.8</ele>
        <time>2019-08-14T14:37:02Z</time>
      </trkpt>
      <trkpt lat="41.3417190" lon="-4.9349490">
        <ele>754.0</ele>
        <time>2019-08-14T14:37:03Z</time>
      </trkpt>
      <trkpt lat="41.3417540" lon="-4.9349680">
        <ele>754.1</ele>
        <time>2019-08-14T14:37:04Z</time>
      </trkpt>
      <trkpt lat="41.3417900" lon="-4.9349870">
        <ele>754.2</ele>
        <time>2019-08-14T14:37:05Z</time>
      </trkpt>
      <trkpt lat="41.3418250" lon="-4.9350080">
        <ele>754.3</ele>
        <time>2019-08-14T14:37:06Z</time>
      </trkpt>
      <trkpt lat="41.3418580" lon="-4.9350320">
        <ele>754.4</ele>
        <time>2019-08-14T14:37:07Z</time>
      </trkpt>
      <trkpt lat="41.3418930" lon="-4.9350560">
        <ele>754.5</ele>
        <time>2019-08-14T14:37:08Z</time>
      </trkpt>
      <trkpt lat="41.3419270" lon="-4.9350790">
        <ele>754.5</ele>
        <time>2019-08-14T14:37:09Z</time>
      </trkpt>
      <trkpt lat="41.3419620" lon="-4.9351030">
        <ele>754.6</ele>
        <time>2019-08-14T14:37:10Z</time>
      </trkpt>
      <trkpt lat="41.3419960" lon="-4.9351270">
        <ele>754.6</ele>
        <time>2019-08-14T14:37:11Z</time>
      </trkpt>
      <trkpt lat="41.3420310" lon="-4.9351520">
        <ele>754.7</ele>
        <time>2019-08-14T14:37:12Z</time>
      </trkpt>
      <trkpt lat="41.3420650" lon="-4.9351770">
        <ele>754.7</ele>
        <time>2019-08-14T14:37:13Z</time>
      </trkpt>
      <trkpt lat="41.3421000" lon="-4.9352020">
        <ele>754.7</ele>
        <time>2019-08-14T14:37:14Z</time>
      </trkpt>
      <trkpt lat="41.3421320" lon="-4.9352250">
        <ele>754.7</ele>
        <time>2019-08-14T14:37:15Z</time>
      </trkpt>
      <trkpt lat="41.3421650" lon="-4.9352480">
        <ele>754.7</ele>
        <time>2019-08-14T14:37:16Z</time>
      </trkpt>
      <trkpt lat="41.3421990" lon="-4.9352700">
        <ele>754.7</ele>
        <time>2019-08-14T14:37:17Z</time>
      </trkpt>
      <trkpt lat="41.3422330" lon="-4.9352920">
        <ele>754.8</ele>
        <time>2019-08-14T14:37:18Z</time>
      </trkpt>
      <trkpt lat="41.3422660" lon="-4.9353130">
        <ele>754.9</ele>
        <time>2019-08-14T14:37:19Z</time>
      </trkpt>
      <trkpt lat="41.3422980" lon="-4.9353330">
        <ele>755.0</ele>
        <time>2019-08-14T14:37:20Z</time>
      </trkpt>
      <trkpt lat="41.3423300" lon="-4.9353530">
        <ele>755.1</ele>
        <time>2019-08-14T14:37:21Z</time>
      </trkpt>
      <trkpt lat="41.3423610" lon="-4.9353730">
        <ele>755.2</ele>
        <time>2019-08-14T14:37:22Z</time>
      </trkpt>
      <trkpt lat="41.3423940" lon="-4.9353940">
        <ele>755.3</ele>
        <time>2019-08-14T14:37:23Z</time>
      </trkpt>
      <trkpt lat="41.3424270" lon="-4.9354130">
        <ele>755.4</ele>
        <time>2019-08-14T14:37:24Z</time>
      </trkpt>
      <trkpt lat="41.3424600" lon="-4.9354320">
        <ele>755.5</ele>
        <time>2019-08-14T14:37:25Z</time>
      </trkpt>
      <trkpt lat="41.3424930" lon="-4.9354520">
        <ele>755.6</ele>
        <time>2019-08-14T14:37:26Z</time>
      </trkpt>
      <trkpt lat="41.3425260" lon="-4.9354720">
        <ele>755.7</ele>
        <time>2019-08-14T14:37:27Z</time>
      </trkpt>
      <trkpt lat="41.3425590" lon="-4.9354930">
        <ele>755.9</ele>
        <time>2019-08-14T14:37:28Z</time>
      </trkpt>
      <trkpt lat="41.3425920" lon="-4.9355140">
        <ele>756.0</ele>
        <time>2019-08-14T14:37:29Z</time>
      </trkpt>
      <trkpt lat="41.3426250" lon="-4.9355340">
        <ele>756.0</ele>
        <time>2019-08-14T14:37:30Z</time>
      </trkpt>
      <trkpt lat="41.3426570" lon="-4.9355530">
        <ele>756.1</ele>
        <time>2019-08-14T14:37:31Z</time>
      </trkpt>
      <trkpt lat="41.3426890" lon="-4.9355710">
        <ele>756.2</ele>
        <time>2019-08-14T14:37:32Z</time>
      </trkpt>
      <trkpt lat="41.3427210" lon="-4.9355910">
        <ele>756.4</ele>
        <time>2019-08-14T14:37:33Z</time>
      </trkpt>
      <trkpt lat="41.3427530" lon="-4.9356100">
        <ele>756.6</ele>
        <time>2019-08-14T14:37:34Z</time>
      </trkpt>
      <trkpt lat="41.3427840" lon="-4.9356310">
        <ele>756.8</ele>
        <time>2019-08-14T14:37:35Z</time>
      </trkpt>
      <trkpt lat="41.3428150" lon="-4.9356520">
        <ele>757.0</ele>
        <time>2019-08-14T14:37:36Z</time>
      </trkpt>
      <trkpt lat="41.3428450" lon="-4.9356730">
        <ele>757.1</ele>
        <time>2019-08-14T14:37:37Z</time>
      </trkpt>
      <trkpt lat="41.3428750" lon="-4.9356940">
        <ele>757.3</ele>
        <time>2019-08-14T14:37:38Z</time>
      </trkpt>
      <trkpt lat="41.3429050" lon="-4.9357160">
        <ele>757.4</ele>
        <time>2019-08-14T14:37:39Z</time>
      </trkpt>
      <trkpt lat="41.3429360" lon="-4.9357370">
        <ele>757.6</ele>
        <time>2019-08-14T14:37:40Z</time>
      </trkpt>
      <trkpt lat="41.3429670" lon="-4.9357550">
        <ele>757.7</ele>
        <time>2019-08-14T14:37:41Z</time>
      </trkpt>
      <trkpt lat="41.3429990" lon="-4.9357730">
        <ele>757.8</ele>
        <time>2019-08-14T14:37:42Z</time>
      </trkpt>
      <trkpt lat="41.3430300" lon="-4.9357900">
        <ele>758.0</ele>
        <time>2019-08-14T14:37:43Z</time>
      </trkpt>
      <trkpt lat="41.3430600" lon="-4.9358100">
        <ele>758.1</ele>
        <time>2019-08-14T14:37:44Z</time>
      </trkpt>
      <trkpt lat="41.3430880" lon="-4.9358310">
        <ele>758.2</ele>
        <time>2019-08-14T14:37:45Z</time>
      </trkpt>
      <trkpt lat="41.3431150" lon="-4.9358550">
        <ele>758.3</ele>
        <time>2019-08-14T14:37:46Z</time>
      </trkpt>
      <trkpt lat="41.3431410" lon="-4.9358800">
        <ele>758.5</ele>
        <time>2019-08-14T14:37:47Z</time>
      </trkpt>
      <trkpt lat="41.3431690" lon="-4.9359040">
        <ele>758.6</ele>
        <time>2019-08-14T14:37:48Z</time>
      </trkpt>
      <trkpt lat="41.3431950" lon="-4.9359270">
        <ele>758.8</ele>
        <time>2019-08-14T14:37:49Z</time>
      </trkpt>
      <trkpt lat="41.3432210" lon="-4.9359500">
        <ele>759.0</ele>
        <time>2019-08-14T14:37:50Z</time>
      </trkpt>
      <trkpt lat="41.3432470" lon="-4.9359730">
        <ele>759.1</ele>
        <time>2019-08-14T14:37:51Z</time>
      </trkpt>
      <trkpt lat="41.3432740" lon="-4.9359950">
        <ele>759.2</ele>
        <time>2019-08-14T14:37:52Z</time>
      </trkpt>
      <trkpt lat="41.3433010" lon="-4.9360180">
        <ele>759.3</ele>
        <time>2019-08-14T14:37:53Z</time>
      </trkpt>
      <trkpt lat="41.3433270" lon="-4.9360420">
        <ele>759.4</ele>
        <time>2019-08-14T14:37:54Z</time>
      </trkpt>
      <trkpt lat="41.3433540" lon="-4.9360650">
        <ele>759.5</ele>
        <time>2019-08-14T14:37:55Z</time>
      </trkpt>
      <trkpt lat="41.3433820" lon="-4.9360880">
        <ele>759.6</ele>
        <time>2019-08-14T14:37:56Z</time>
      </trkpt>
      <trkpt lat="41.3434100" lon="-4.9361090">
        <ele>759.7</ele>
        <time>2019-08-14T14:37:57Z</time>
      </trkpt>
      <trkpt lat="41.3434380" lon="-4.9361300">
        <ele>759.9</ele>
        <time>2019-08-14T14:37:58Z</time>
      </trkpt>
      <trkpt lat="41.3434670" lon="-4.9361520">
        <ele>760.1</ele>
        <time>2019-08-14T14:37:59Z</time>
      </trkpt>
      <trkpt lat="41.3434950" lon="-4.9361730">
        <ele>760.2</ele>
        <time>2019-08-14T14:38:00Z</time>
      </trkpt>
      <trkpt lat="41.3435240" lon="-4.9361940">
        <ele>760.3</ele>
        <time>2019-08-14T14:38:01Z</time>
      </trkpt>
      <trkpt lat="41.3435520" lon="-4.9362140">
        <ele>760.4</ele>
        <time>2019-08-14T14:38:02Z</time>
      </trkpt>
      <trkpt lat="41.3435800" lon="-4.9362330">
        <ele>760.6</ele>
        <time>2019-08-14T14:38:03Z</time>
      </trkpt>
      <trkpt lat="41.3436070" lon="-4.9362520">
        <ele>760.7</ele>
        <time>2019-08-14T14:38:04Z</time>
      </trkpt>
      <trkpt lat="41.3436350" lon="-4.9362710">
        <ele>760.9</ele>
        <time>2019-08-14T14:38:05Z</time>
      </trkpt>
      <trkpt lat="41.3436640" lon="-4.9362900">
        <ele>760.9</ele>
        <time>2019-08-14T14:38:06Z</time>
      </trkpt>
      <trkpt lat="41.3436920" lon="-4.9363110">
        <ele>761.0</ele>
        <time>2019-08-14T14:38:07Z</time>
      </trkpt>
      <trkpt lat="41.3437200" lon="-4.9363310">
        <ele>761.1</ele>
        <time>2019-08-14T14:38:08Z</time>
      </trkpt>
      <trkpt lat="41.3437490" lon="-4.9363490">
        <ele>761.2</ele>
        <time>2019-08-14T14:38:09Z</time>
      </trkpt>
      <trkpt lat="41.3437780" lon="-4.9363670">
        <ele>761.3</ele>
        <time>2019-08-14T14:38:10Z</time>
      </trkpt>
      <trkpt lat="41.3438070" lon="-4.9363850">
        <ele>761.4</ele>
        <time>2019-08-14T14:38:11Z</time>
      </trkpt>
      <trkpt lat="41.3438380" lon="-4.9364030">
        <ele>761.5</ele>
        <time>2019-08-14T14:38:12Z</time>
      </trkpt>
      <trkpt lat="41.3438680" lon="-4.9364210">
        <ele>761.5</ele>
        <time>2019-08-14T14:38:13Z</time>
      </trkpt>
      <trkpt lat="41.3438990" lon="-4.9364400">
        <ele>761.6</ele>
        <time>2019-08-14T14:38:14Z</time>
      </trkpt>
      <trkpt lat="41.3439290" lon="-4.9364580">
        <ele>761.7</ele>
        <time>2019-08-14T14:38:15Z</time>
      </trkpt>
      <trkpt lat="41.3439580" lon="-4.9364740">
        <ele>761.8</ele>
        <time>2019-08-14T14:38:16Z</time>
      </trkpt>
      <trkpt lat="41.3439860" lon="-4.9364880">
        <ele>761.8</ele>
        <time>2019-08-14T14:38:17Z</time>
      </trkpt>
      <trkpt lat="41.3440140" lon="-4.9365040">
        <ele>761.9</ele>
        <time>2019-08-14T14:38:18Z</time>
      </trkpt>
      <trkpt lat="41.3440410" lon="-4.9365220">
        <ele>761.9</ele>
        <time>2019-08-14T14:38:19Z</time>
      </trkpt>
      <trkpt lat="41.3440670" lon="-4.9365410">
        <ele>762.0</ele>
        <time>2019-08-14T14:38:20Z</time>
      </trkpt>
      <trkpt lat="41.3440920" lon="-4.9365600">
        <ele>762.0</ele>
        <time>2019-08-14T14:38:21Z</time>
      </trkpt>
      <trkpt lat="41.3441160" lon="-4.9365790">
        <ele>762.0</ele>
        <time>2019-08-14T14:38:22Z</time>
      </trkpt>
      <trkpt lat="41.3441390" lon="-4.9365990">
        <ele>762.0</ele>
        <time>2019-08-14T14:38:23Z</time>
      </trkpt>
      <trkpt lat="41.3441840" lon="-4.9366380">
        <ele>762.1</ele>
        <time>2019-08-14T14:38:25Z</time>
      </trkpt>
      <trkpt lat="41.3442280" lon="-4.9366780">
        <ele>762.1</ele>
        <time>2019-08-14T14:38:27Z</time>
      </trkpt>
      <trkpt lat="41.3442520" lon="-4.9366990">
        <ele>762.1</ele>
        <time>2019-08-14T14:38:28Z</time>
      </trkpt>
      <trkpt lat="41.3442760" lon="-4.9367210">
        <ele>762.2</ele>
        <time>2019-08-14T14:38:29Z</time>
      </trkpt>
      <trkpt lat="41.3443020" lon="-4.9367440">
        <ele>762.2</ele>
        <time>2019-08-14T14:38:30Z</time>
      </trkpt>
      <trkpt lat="41.3443290" lon="-4.9367660">
        <ele>762.2</ele>
        <time>2019-08-14T14:38:31Z</time>
      </trkpt>
      <trkpt lat="41.3443560" lon="-4.9367870">
        <ele>762.3</ele>
        <time>2019-08-14T14:38:32Z</time>
      </trkpt>
      <trkpt lat="41.3443830" lon="-4.9368080">
        <ele>762.4</ele>
        <time>2019-08-14T14:38:33Z</time>
      </trkpt>
      <trkpt lat="41.3444090" lon="-4.9368320">
        <ele>762.4</ele>
        <time>2019-08-14T14:38:34Z</time>
      </trkpt>
      <trkpt lat="41.3444360" lon="-4.9368570">
        <ele>762.5</ele>
        <time>2019-08-14T14:38:35Z</time>
      </trkpt>
      <trkpt lat="41.3444640" lon="-4.9368820">
        <ele>762.6</ele>
        <time>2019-08-14T14:38:36Z</time>
      </trkpt>
      <trkpt lat="41.3444930" lon="-4.9369060">
        <ele>762.6</ele>
        <time>2019-08-14T14:38:37Z</time>
      </trkpt>
      <trkpt lat="41.3445240" lon="-4.9369290">
        <ele>762.7</ele>
        <time>2019-08-14T14:38:38Z</time>
      </trkpt>
      <trkpt lat="41.3445570" lon="-4.9369520">
        <ele>762.8</ele>
        <time>2019-08-14T14:38:39Z</time>
      </trkpt>
      <trkpt lat="41.3445870" lon="-4.9369730">
        <ele>762.8</ele>
        <time>2019-08-14T14:38:40Z</time>
      </trkpt>
      <trkpt lat="41.3446170" lon="-4.9369940">
        <ele>762.9</ele>
        <time>2019-08-14T14:38:41Z</time>
      </trkpt>
      <trkpt lat="41.3446470" lon="-4.9370140">
        <ele>763.0</ele>
        <time>2019-08-14T14:38:42Z</time>
      </trkpt>
      <trkpt lat="41.3446790" lon="-4.9370340">
        <ele>763.0</ele>
        <time>2019-08-14T14:38:43Z</time>
      </trkpt>
      <trkpt lat="41.3447110" lon="-4.9370540">
        <ele>763.1</ele>
        <time>2019-08-14T14:38:44Z</time>
      </trkpt>
      <trkpt lat="41.3447450" lon="-4.9370750">
        <ele>763.2</ele>
        <time>2019-08-14T14:38:45Z</time>
      </trkpt>
      <trkpt lat="41.3447790" lon="-4.9370960">
        <ele>763.3</ele>
        <time>2019-08-14T14:38:46Z</time>
      </trkpt>
      <trkpt lat="41.3448130" lon="-4.9371180">
        <ele>763.4</ele>
        <time>2019-08-14T14:38:47Z</time>
      </trkpt>
      <trkpt lat="41.3448490" lon="-4.9371380">
        <ele>763.5</ele>
        <time>2019-08-14T14:38:48Z</time>
      </trkpt>
      <trkpt lat="41.3448840" lon="-4.9371570">
        <ele>763.6</ele>
        <time>2019-08-14T14:38:49Z</time>
      </trkpt>
      <trkpt lat="41.3449180" lon="-4.9371750">
        <ele>763.7</ele>
        <time>2019-08-14T14:38:50Z</time>
      </trkpt>
      <trkpt lat="41.3449540" lon="-4.9371940">
        <ele>763.8</ele>
        <time>2019-08-14T14:38:51Z</time>
      </trkpt>
      <trkpt lat="41.3449880" lon="-4.9372150">
        <ele>763.8</ele>
        <time>2019-08-14T14:38:52Z</time>
      </trkpt>
      <trkpt lat="41.3450230" lon="-4.9372370">
        <ele>763.9</ele>
        <time>2019-08-14T14:38:53Z</time>
      </trkpt>
      <trkpt lat="41.3450580" lon="-4.9372570">
        <ele>764.0</ele>
        <time>2019-08-14T14:38:54Z</time>
      </trkpt>
      <trkpt lat="41.3450930" lon="-4.9372780">
        <ele>764.2</ele>
        <time>2019-08-14T14:38:55Z</time>
      </trkpt>
      <trkpt lat="41.3451280" lon="-4.9372980">
        <ele>764.2</ele>
        <time>2019-08-14T14:38:56Z</time>
      </trkpt>
      <trkpt lat="41.3451630" lon="-4.9373170">
        <ele>764.3</ele>
        <time>2019-08-14T14:38:57Z</time>
      </trkpt>
      <trkpt lat="41.3451990" lon="-4.9373370">
        <ele>764.4</ele>
        <time>2019-08-14T14:38:58Z</time>
      </trkpt>
      <trkpt lat="41.3452330" lon="-4.9373570">
        <ele>764.5</ele>
        <time>2019-08-14T14:38:59Z</time>
      </trkpt>
      <trkpt lat="41.3452680" lon="-4.9373790">
        <ele>764.6</ele>
        <time>2019-08-14T14:39:00Z</time>
      </trkpt>
      <trkpt lat="41.3453010" lon="-4.9374040">
        <ele>764.7</ele>
        <time>2019-08-14T14:39:01Z</time>
      </trkpt>
      <trkpt lat="41.3453330" lon="-4.9374280">
        <ele>764.8</ele>
        <time>2019-08-14T14:39:02Z</time>
      </trkpt>
      <trkpt lat="41.3453670" lon="-4.9374540">
        <ele>764.8</ele>
        <time>2019-08-14T14:39:03Z</time>
      </trkpt>
      <trkpt lat="41.3454000" lon="-4.9374790">
        <ele>764.9</ele>
        <time>2019-08-14T14:39:04Z</time>
      </trkpt>
      <trkpt lat="41.3454310" lon="-4.9375050">
        <ele>765.0</ele>
        <time>2019-08-14T14:39:05Z</time>
      </trkpt>
      <trkpt lat="41.3454620" lon="-4.9375320">
        <ele>765.1</ele>
        <time>2019-08-14T14:39:06Z</time>
      </trkpt>
      <trkpt lat="41.3454940" lon="-4.9375590">
        <ele>765.2</ele>
        <time>2019-08-14T14:39:07Z</time>
      </trkpt>
      <trkpt lat="41.3455260" lon="-4.9375860">
        <ele>765.3</ele>
        <time>2019-08-14T14:39:08Z</time>
      </trkpt>
      <trkpt lat="41.3455570" lon="-4.9376120">
        <ele>765.4</ele>
        <time>2019-08-14T14:39:09Z</time>
      </trkpt>
      <trkpt lat="41.3455880" lon="-4.9376370">
        <ele>765.5</ele>
        <time>2019-08-14T14:39:10Z</time>
      </trkpt>
      <trkpt lat="41.3456180" lon="-4.9376630">
        <ele>765.6</ele>
        <time>2019-08-14T14:39:11Z</time>
      </trkpt>
      <trkpt lat="41.3456500" lon="-4.9376890">
        <ele>765.7</ele>
        <time>2019-08-14T14:39:12Z</time>
      </trkpt>
      <trkpt lat="41.3456800" lon="-4.9377130">
        <ele>765.8</ele>
        <time>2019-08-14T14:39:13Z</time>
      </trkpt>
      <trkpt lat="41.3457120" lon="-4.9377370">
        <ele>765.9</ele>
        <time>2019-08-14T14:39:14Z</time>
      </trkpt>
      <trkpt lat="41.3457420" lon="-4.9377600">
        <ele>766.0</ele>
        <time>2019-08-14T14:39:15Z</time>
      </trkpt>
      <trkpt lat="41.3457720" lon="-4.9377830">
        <ele>766.1</ele>
        <time>2019-08-14T14:39:16Z</time>
      </trkpt>
      <trkpt lat="41.3458030" lon="-4.9378050">
        <ele>766.2</ele>
        <time>2019-08-14T14:39:17Z</time>
      </trkpt>
      <trkpt lat="41.3458350" lon="-4.9378260">
        <ele>766.3</ele>
        <time>2019-08-14T14:39:18Z</time>
      </trkpt>
      <trkpt lat="41.3458670" lon="-4.9378470">
        <ele>766.5</ele>
        <time>2019-08-14T14:39:19Z</time>
      </trkpt>
      <trkpt lat="41.3458960" lon="-4.9378690">
        <ele>766.7</ele>
        <time>2019-08-14T14:39:20Z</time>
      </trkpt>
      <trkpt lat="41.3459250" lon="-4.9378910">
        <ele>766.9</ele>
        <time>2019-08-14T14:39:21Z</time>
      </trkpt>
      <trkpt lat="41.3459530" lon="-4.9379130">
        <ele>767.0</ele>
        <time>2019-08-14T14:39:22Z</time>
      </trkpt>
      <trkpt lat="41.3459820" lon="-4.9379340">
        <ele>767.1</ele>
        <time>2019-08-14T14:39:23Z</time>
      </trkpt>
      <trkpt lat="41.3460100" lon="-4.9379550">
        <ele>767.3</ele>
        <time>2019-08-14T14:39:24Z</time>
      </trkpt>
      <trkpt lat="41.3460390" lon="-4.9379760">
        <ele>767.4</ele>
        <time>2019-08-14T14:39:25Z</time>
      </trkpt>
      <trkpt lat="41.3460670" lon="-4.9379980">
        <ele>767.6</ele>
        <time>2019-08-14T14:39:26Z</time>
      </trkpt>
      <trkpt lat="41.3460940" lon="-4.9380200">
        <ele>767.8</ele>
        <time>2019-08-14T14:39:27Z</time>
      </trkpt>
      <trkpt lat="41.3461210" lon="-4.9380430">
        <ele>768.0</ele>
        <time>2019-08-14T14:39:28Z</time>
      </trkpt>
      <trkpt lat="41.3461480" lon="-4.9380650">
        <ele>768.2</ele>
        <time>2019-08-14T14:39:29Z</time>
      </trkpt>
      <trkpt lat="41.3461740" lon="-4.9380890">
        <ele>768.4</ele>
        <time>2019-08-14T14:39:30Z</time>
      </trkpt>
      <trkpt lat="41.3462000" lon="-4.9381120">
        <ele>768.6</ele>
        <time>2019-08-14T14:39:31Z</time>
      </trkpt>
      <trkpt lat="41.3462240" lon="-4.9381380">
        <ele>768.8</ele>
        <time>2019-08-14T14:39:32Z</time>
      </trkpt>
      <trkpt lat="41.3462490" lon="-4.9381630">
        <ele>769.0</ele>
        <time>2019-08-14T14:39:33Z</time>
      </trkpt>
      <trkpt lat="41.3462750" lon="-4.9381900">
        <ele>769.1</ele>
        <time>2019-08-14T14:39:34Z</time>
      </trkpt>
      <trkpt lat="41.3463010" lon="-4.9382190">
        <ele>769.3</ele>
        <time>2019-08-14T14:39:35Z</time>
      </trkpt>
      <trkpt lat="41.3463270" lon="-4.9382490">
        <ele>769.5</ele>
        <time>2019-08-14T14:39:36Z</time>
      </trkpt>
      <trkpt lat="41.3463520" lon="-4.9382790">
        <ele>769.7</ele>
        <time>2019-08-14T14:39:37Z</time>
      </trkpt>
      <trkpt lat="41.3463780" lon="-4.9383100">
        <ele>769.9</ele>
        <time>2019-08-14T14:39:38Z</time>
      </trkpt>
      <trkpt lat="41.3464030" lon="-4.9383410">
        <ele>770.0</ele>
        <time>2019-08-14T14:39:39Z</time>
      </trkpt>
      <trkpt lat="41.3464260" lon="-4.9383720">
        <ele>770.1</ele>
        <time>2019-08-14T14:39:40Z</time>
      </trkpt>
      <trkpt lat="41.3464480" lon="-4.9384020">
        <ele>770.3</ele>
        <time>2019-08-14T14:39:41Z</time>
      </trkpt>
      <trkpt lat="41.3464710" lon="-4.9384320">
        <ele>770.3</ele>
        <time>2019-08-14T14:39:42Z</time>
      </trkpt>
      <trkpt lat="41.3464940" lon="-4.9384630">
        <ele>770.4</ele>
        <time>2019-08-14T14:39:43Z</time>
      </trkpt>
      <trkpt lat="41.3465170" lon="-4.9384950">
        <ele>770.4</ele>
        <time>2019-08-14T14:39:44Z</time>
      </trkpt>
      <trkpt lat="41.3465400" lon="-4.9385280">
        <ele>770.5</ele>
        <time>2019-08-14T14:39:45Z</time>
      </trkpt>
      <trkpt lat="41.3465640" lon="-4.9385600">
        <ele>770.6</ele>
        <time>2019-08-14T14:39:46Z</time>
      </trkpt>
      <trkpt lat="41.3465880" lon="-4.9385920">
        <ele>770.6</ele>
        <time>2019-08-14T14:39:47Z</time>
      </trkpt>
      <trkpt lat="41.3466110" lon="-4.9386240">
        <ele>770.7</ele>
        <time>2019-08-14T14:39:48Z</time>
      </trkpt>
      <trkpt lat="41.3466330" lon="-4.9386560">
        <ele>770.7</ele>
        <time>2019-08-14T14:39:49Z</time>
      </trkpt>
      <trkpt lat="41.3466560" lon="-4.9386880">
        <ele>770.8</ele>
        <time>2019-08-14T14:39:50Z</time>
      </trkpt>
      <trkpt lat="41.3466800" lon="-4.9387210">
        <ele>770.9</ele>
        <time>2019-08-14T14:39:51Z</time>
      </trkpt>
      <trkpt lat="41.3467060" lon="-4.9387540">
        <ele>770.9</ele>
        <time>2019-08-14T14:39:52Z</time>
      </trkpt>
      <trkpt lat="41.3467320" lon="-4.9387860">
        <ele>771.0</ele>
        <time>2019-08-14T14:39:53Z</time>
      </trkpt>
      <trkpt lat="41.3467590" lon="-4.9388170">
        <ele>771.1</ele>
        <time>2019-08-14T14:39:54Z</time>
      </trkpt>
      <trkpt lat="41.3467850" lon="-4.9388470">
        <ele>771.2</ele>
        <time>2019-08-14T14:39:55Z</time>
      </trkpt>
      <trkpt lat="41.3468110" lon="-4.9388770">
        <ele>771.3</ele>
        <time>2019-08-14T14:39:56Z</time>
      </trkpt>
      <trkpt lat="41.3468380" lon="-4.9389060">
        <ele>771.5</ele>
        <time>2019-08-14T14:39:57Z</time>
      </trkpt>
      <trkpt lat="41.3468650" lon="-4.9389340">
        <ele>771.6</ele>
        <time>2019-08-14T14:39:58Z</time>
      </trkpt>
      <trkpt lat="41.3468910" lon="-4.9389620">
        <ele>771.7</ele>
        <time>2019-08-14T14:39:59Z</time>
      </trkpt>
      <trkpt lat="41.3469180" lon="-4.9389900">
        <ele>771.8</ele>
        <time>2019-08-14T14:40:00Z</time>
      </trkpt>
      <trkpt lat="41.3469460" lon="-4.9390180">
        <ele>772.0</ele>
        <time>2019-08-14T14:40:01Z</time>
      </trkpt>
      <trkpt lat="41.3469740" lon="-4.9390430">
        <ele>772.1</ele>
        <time>2019-08-14T14:40:02Z</time>
      </trkpt>
      <trkpt lat="41.3470030" lon="-4.9390690">
        <ele>772.2</ele>
        <time>2019-08-14T14:40:03Z</time>
      </trkpt>
      <trkpt lat="41.3470320" lon="-4.9390970">
        <ele>772.4</ele>
        <time>2019-08-14T14:40:04Z</time>
      </trkpt>
      <trkpt lat="41.3470600" lon="-4.9391250">
        <ele>772.5</ele>
        <time>2019-08-14T14:40:05Z</time>
      </trkpt>
      <trkpt lat="41.3470890" lon="-4.9391520">
        <ele>772.7</ele>
        <time>2019-08-14T14:40:06Z</time>
      </trkpt>
      <trkpt lat="41.3471170" lon="-4.9391790">
        <ele>772.9</ele>
        <time>2019-08-14T14:40:07Z</time>
      </trkpt>
      <trkpt lat="41.3471450" lon="-4.9392050">
        <ele>773.1</ele>
        <time>2019-08-14T14:40:08Z</time>
      </trkpt>
      <trkpt lat="41.3471720" lon="-4.9392310">
        <ele>773.3</ele>
        <time>2019-08-14T14:40:09Z</time>
      </trkpt>
      <trkpt lat="41.3471970" lon="-4.9392560">
        <ele>773.4</ele>
        <time>2019-08-14T14:40:10Z</time>
      </trkpt>
      <trkpt lat="41.3472230" lon="-4.9392820">
        <ele>773.5</ele>
        <time>2019-08-14T14:40:11Z</time>
      </trkpt>
      <trkpt lat="41.3472490" lon="-4.9393070">
        <ele>773.7</ele>
        <time>2019-08-14T14:40:12Z</time>
      </trkpt>
      <trkpt lat="41.3472760" lon="-4.9393320">
        <ele>773.8</ele>
        <time>2019-08-14T14:40:13Z</time>
      </trkpt>
      <trkpt lat="41.3473030" lon="-4.9393580">
        <ele>774.0</ele>
        <time>2019-08-14T14:40:14Z</time>
      </trkpt>
      <trkpt lat="41.3473300" lon="-4.9393860">
        <ele>774.2</ele>
        <time>2019-08-14T14:40:15Z</time>
      </trkpt>
      <trkpt lat="41.3473560" lon="-4.9394130">
        <ele>774.4</ele>
        <time>2019-08-14T14:40:16Z</time>
      </trkpt>
      <trkpt lat="41.3473830" lon="-4.9394400">
        <ele>774.5</ele>
        <time>2019-08-14T14:40:17Z</time>
      </trkpt>
      <trkpt lat="41.3474080" lon="-4.9394670">
        <ele>774.7</ele>
        <time>2019-08-14T14:40:18Z</time>
      </trkpt>
      <trkpt lat="41.3474340" lon="-4.9394940">
        <ele>774.8</ele>
        <time>2019-08-14T14:40:19Z</time>
      </trkpt>
      <trkpt lat="41.3474600" lon="-4.9395200">
        <ele>775.0</ele>
        <time>2019-08-14T14:40:20Z</time>
      </trkpt>
      <trkpt lat="41.3474870" lon="-4.9395460">
        <ele>775.3</ele>
        <time>2019-08-14T14:40:21Z</time>
      </trkpt>
      <trkpt lat="41.3475140" lon="-4.9395720">
        <ele>775.5</ele>
        <time>2019-08-14T14:40:22Z</time>
      </trkpt>
      <trkpt lat="41.3475420" lon="-4.9395980">
        <ele>775.6</ele>
        <time>2019-08-14T14:40:23Z</time>
      </trkpt>
      <trkpt lat="41.3475700" lon="-4.9396250">
        <ele>775.8</ele>
        <time>2019-08-14T14:40:24Z</time>
      </trkpt>
      <trkpt lat="41.3475980" lon="-4.9396520">
        <ele>775.9</ele>
        <time>2019-08-14T14:40:25Z</time>
      </trkpt>
      <trkpt lat="41.3476270" lon="-4.9396780">
        <ele>776.0</ele>
        <time>2019-08-14T14:40:26Z</time>
      </trkpt>
      <trkpt lat="41.3476570" lon="-4.9397030">
        <ele>776.2</ele>
        <time>2019-08-14T14:40:27Z</time>
      </trkpt>
      <trkpt lat="41.3476860" lon="-4.9397290">
        <ele>776.2</ele>
        <time>2019-08-14T14:40:28Z</time>
      </trkpt>
      <trkpt lat="41.3477150" lon="-4.9397560">
        <ele>776.3</ele>
        <time>2019-08-14T14:40:29Z</time>
      </trkpt>
      <trkpt lat="41.3477450" lon="-4.9397810">
        <ele>776.4</ele>
        <time>2019-08-14T14:40:30Z</time>
      </trkpt>
      <trkpt lat="41.3477750" lon="-4.9398070">
        <ele>776.4</ele>
        <time>2019-08-14T14:40:31Z</time>
      </trkpt>
      <trkpt lat="41.3478040" lon="-4.9398330">
        <ele>776.5</ele>
        <time>2019-08-14T14:40:32Z</time>
      </trkpt>
      <trkpt lat="41.3478340" lon="-4.9398580">
        <ele>776.5</ele>
        <time>2019-08-14T14:40:33Z</time>
      </trkpt>
      <trkpt lat="41.3478640" lon="-4.9398840">
        <ele>776.5</ele>
        <time>2019-08-14T14:40:34Z</time>
      </trkpt>
      <trkpt lat="41.3478940" lon="-4.9399100">
        <ele>776.6</ele>
        <time>2019-08-14T14:40:35Z</time>
      </trkpt>
      <trkpt lat="41.3479240" lon="-4.9399350">
        <ele>776.6</ele>
        <time>2019-08-14T14:40:36Z</time>
      </trkpt>
      <trkpt lat="41.3479530" lon="-4.9399600">
        <ele>776.6</ele>
        <time>2019-08-14T14:40:37Z</time>
      </trkpt>
      <trkpt lat="41.3479830" lon="-4.9399850">
        <ele>776.6</ele>
        <time>2019-08-14T14:40:38Z</time>
      </trkpt>
      <trkpt lat="41.3480140" lon="-4.9400090">
        <ele>776.6</ele>
        <time>2019-08-14T14:40:39Z</time>
      </trkpt>
      <trkpt lat="41.3480440" lon="-4.9400340">
        <ele>776.6</ele>
        <time>2019-08-14T14:40:40Z</time>
      </trkpt>
      <trkpt lat="41.3480750" lon="-4.9400570">
        <ele>776.5</ele>
        <time>2019-08-14T14:40:41Z</time>
      </trkpt>
      <trkpt lat="41.3481070" lon="-4.9400800">
        <ele>776.5</ele>
        <time>2019-08-14T14:40:42Z</time>
      </trkpt>
      <trkpt lat="41.3481390" lon="-4.9401020">
        <ele>776.5</ele>
        <time>2019-08-14T14:40:43Z</time>
      </trkpt>
      <trkpt lat="41.3481720" lon="-4.9401230">
        <ele>776.5</ele>
        <time>2019-08-14T14:40:44Z</time>
      </trkpt>
      <trkpt lat="41.3482030" lon="-4.9401450">
        <ele>776.5</ele>
        <time>2019-08-14T14:40:45Z</time>
      </trkpt>
      <trkpt lat="41.3482340" lon="-4.9401670">
        <ele>776.5</ele>
        <time>2019-08-14T14:40:46Z</time>
      </trkpt>
      <trkpt lat="41.3482660" lon="-4.9401920">
        <ele>776.5</ele>
        <time>2019-08-14T14:40:47Z</time>
      </trkpt>
      <trkpt lat="41.3482980" lon="-4.9402190">
        <ele>776.4</ele>
        <time>2019-08-14T14:40:48Z</time>
      </trkpt>
      <trkpt lat="41.3483290" lon="-4.9402480">
        <ele>776.4</ele>
        <time>2019-08-14T14:40:49Z</time>
      </trkpt>
      <trkpt lat="41.3483600" lon="-4.9402800">
        <ele>776.4</ele>
        <time>2019-08-14T14:40:50Z</time>
      </trkpt>
      <trkpt lat="41.3483900" lon="-4.9403120">
        <ele>776.4</ele>
        <time>2019-08-14T14:40:51Z</time>
      </trkpt>
      <trkpt lat="41.3484210" lon="-4.9403460">
        <ele>776.4</ele>
        <time>2019-08-14T14:40:52Z</time>
      </trkpt>
      <trkpt lat="41.3484540" lon="-4.9403820">
        <ele>776.3</ele>
        <time>2019-08-14T14:40:53Z</time>
      </trkpt>
      <trkpt lat="41.3484880" lon="-4.9404190">
        <ele>776.3</ele>
        <time>2019-08-14T14:40:54Z</time>
      </trkpt>
      <trkpt lat="41.3485230" lon="-4.9404580">
        <ele>776.4</ele>
        <time>2019-08-14T14:40:55Z</time>
      </trkpt>
      <trkpt lat="41.3485570" lon="-4.9404950">
        <ele>776.3</ele>
        <time>2019-08-14T14:40:56Z</time>
      </trkpt>
      <trkpt lat="41.3485900" lon="-4.9405300">
        <ele>776.3</ele>
        <time>2019-08-14T14:40:57Z</time>
      </trkpt>
      <trkpt lat="41.3486220" lon="-4.9405640">
        <ele>776.4</ele>
        <time>2019-08-14T14:40:58Z</time>
      </trkpt>
      <trkpt lat="41.3486550" lon="-4.9405960">
        <ele>776.4</ele>
        <time>2019-08-14T14:40:59Z</time>
      </trkpt>
      <trkpt lat="41.3486870" lon="-4.9406260">
        <ele>776.4</ele>
        <time>2019-08-14T14:41:00Z</time>
      </trkpt>
      <trkpt lat="41.3487200" lon="-4.9406550">
        <ele>776.5</ele>
        <time>2019-08-14T14:41:01Z</time>
      </trkpt>
      <trkpt lat="41.3487550" lon="-4.9406890">
        <ele>776.4</ele>
        <time>2019-08-14T14:41:02Z</time>
      </trkpt>
      <trkpt lat="41.3487890" lon="-4.9407250">
        <ele>776.4</ele>
        <time>2019-08-14T14:41:03Z</time>
      </trkpt>
      <trkpt lat="41.3488220" lon="-4.9407580">
        <ele>776.4</ele>
        <time>2019-08-14T14:41:04Z</time>
      </trkpt>
      <trkpt lat="41.3488560" lon="-4.9407900">
        <ele>776.4</ele>
        <time>2019-08-14T14:41:05Z</time>
      </trkpt>
      <trkpt lat="41.3488900" lon="-4.9408200">
        <ele>776.5</ele>
        <time>2019-08-14T14:41:06Z</time>
      </trkpt>
      <trkpt lat="41.3489230" lon="-4.9408500">
        <ele>776.5</ele>
        <time>2019-08-14T14:41:07Z</time>
      </trkpt>
      <trkpt lat="41.3489590" lon="-4.9408820">
        <ele>776.5</ele>
        <time>2019-08-14T14:41:08Z</time>
      </trkpt>
      <trkpt lat="41.3489960" lon="-4.9409150">
        <ele>776.5</ele>
        <time>2019-08-14T14:41:09Z</time>
      </trkpt>
      <trkpt lat="41.3490330" lon="-4.9409520">
        <ele>776.5</ele>
        <time>2019-08-14T14:41:10Z</time>
      </trkpt>
      <trkpt lat="41.3490690" lon="-4.9409870">
        <ele>776.6</ele>
        <time>2019-08-14T14:41:11Z</time>
      </trkpt>
      <trkpt lat="41.3491040" lon="-4.9410200">
        <ele>776.6</ele>
        <time>2019-08-14T14:41:12Z</time>
      </trkpt>
      <trkpt lat="41.3491380" lon="-4.9410530">
        <ele>776.6</ele>
        <time>2019-08-14T14:41:13Z</time>
      </trkpt>
      <trkpt lat="41.3491700" lon="-4.9410850">
        <ele>776.6</ele>
        <time>2019-08-14T14:41:14Z</time>
      </trkpt>
      <trkpt lat="41.3492040" lon="-4.9411180">
        <ele>776.7</ele>
        <time>2019-08-14T14:41:15Z</time>
      </trkpt>
      <trkpt lat="41.3492400" lon="-4.9411520">
        <ele>776.7</ele>
        <time>2019-08-14T14:41:16Z</time>
      </trkpt>
      <trkpt lat="41.3492770" lon="-4.9411860">
        <ele>776.7</ele>
        <time>2019-08-14T14:41:17Z</time>
      </trkpt>
      <trkpt lat="41.3493120" lon="-4.9412200">
        <ele>776.6</ele>
        <time>2019-08-14T14:41:18Z</time>
      </trkpt>
      <trkpt lat="41.3493480" lon="-4.9412560">
        <ele>776.6</ele>
        <time>2019-08-14T14:41:19Z</time>
      </trkpt>
      <trkpt lat="41.3493860" lon="-4.9412930">
        <ele>776.7</ele>
        <time>2019-08-14T14:41:20Z</time>
      </trkpt>
      <trkpt lat="41.3494250" lon="-4.9413280">
        <ele>776.6</ele>
        <time>2019-08-14T14:41:21Z</time>
      </trkpt>
      <trkpt lat="41.3494620" lon="-4.9413620">
        <ele>776.6</ele>
        <time>2019-08-14T14:41:22Z</time>
      </trkpt>
      <trkpt lat="41.3495000" lon="-4.9413970">
        <ele>776.6</ele>
        <time>2019-08-14T14:41:23Z</time>
      </trkpt>
      <trkpt lat="41.3495370" lon="-4.9414320">
        <ele>776.5</ele>
        <time>2019-08-14T14:41:24Z</time>
      </trkpt>
      <trkpt lat="41.3495740" lon="-4.9414660">
        <ele>776.5</ele>
        <time>2019-08-14T14:41:25Z</time>
      </trkpt>
      <trkpt lat="41.3496130" lon="-4.9415020">
        <ele>776.4</ele>
        <time>2019-08-14T14:41:26Z</time>
      </trkpt>
      <trkpt lat="41.3496530" lon="-4.9415400">
        <ele>776.3</ele>
        <time>2019-08-14T14:41:27Z</time>
      </trkpt>
      <trkpt lat="41.3496950" lon="-4.9415780">
        <ele>776.3</ele>
        <time>2019-08-14T14:41:28Z</time>
      </trkpt>
      <trkpt lat="41.3497390" lon="-4.9416160">
        <ele>776.2</ele>
        <time>2019-08-14T14:41:29Z</time>
      </trkpt>
      <trkpt lat="41.3497830" lon="-4.9416540">
        <ele>776.1</ele>
        <time>2019-08-14T14:41:30Z</time>
      </trkpt>
      <trkpt lat="41.3498260" lon="-4.9416910">
        <ele>776.1</ele>
        <time>2019-08-14T14:41:31Z</time>
      </trkpt>
      <trkpt lat="41.3498680" lon="-4.9417280">
        <ele>776.0</ele>
        <time>2019-08-14T14:41:32Z</time>
      </trkpt>
      <trkpt lat="41.3499120" lon="-4.9417650">
        <ele>775.9</ele>
        <time>2019-08-14T14:41:33Z</time>
      </trkpt>
      <trkpt lat="41.3499540" lon="-4.9418040">
        <ele>775.8</ele>
        <time>2019-08-14T14:41:34Z</time>
      </trkpt>
      <trkpt lat="41.3499970" lon="-4.9418460">
        <ele>775.6</ele>
        <time>2019-08-14T14:41:35Z</time>
      </trkpt>
      <trkpt lat="41.3500380" lon="-4.9418890">
        <ele>775.5</ele>
        <time>2019-08-14T14:41:36Z</time>
      </trkpt>
      <trkpt lat="41.3500790" lon="-4.9419310">
        <ele>775.4</ele>
        <time>2019-08-14T14:41:37Z</time>
      </trkpt>
      <trkpt lat="41.3501220" lon="-4.9419740">
        <ele>775.3</ele>
        <time>2019-08-14T14:41:38Z</time>
      </trkpt>
      <trkpt lat="41.3501630" lon="-4.9420170">
        <ele>775.2</ele>
        <time>2019-08-14T14:41:39Z</time>
      </trkpt>
      <trkpt lat="41.3502020" lon="-4.9420590">
        <ele>775.1</ele>
        <time>2019-08-14T14:41:40Z</time>
      </trkpt>
      <trkpt lat="41.3502410" lon="-4.9421010">
        <ele>775.0</ele>
        <time>2019-08-14T14:41:41Z</time>
      </trkpt>
      <trkpt lat="41.3502800" lon="-4.9421430">
        <ele>775.0</ele>
        <time>2019-08-14T14:41:42Z</time>
      </trkpt>
      <trkpt lat="41.3503210" lon="-4.9421850">
        <ele>774.9</ele>
        <time>2019-08-14T14:41:43Z</time>
      </trkpt>
      <trkpt lat="41.3503630" lon="-4.9422270">
        <ele>774.8</ele>
        <time>2019-08-14T14:41:44Z</time>
      </trkpt>
      <trkpt lat="41.3504050" lon="-4.9422690">
        <ele>774.7</ele>
        <time>2019-08-14T14:41:45Z</time>
      </trkpt>
      <trkpt lat="41.3504430" lon="-4.9423110">
        <ele>774.6</ele>
        <time>2019-08-14T14:41:46Z</time>
      </trkpt>
      <trkpt lat="41.3504800" lon="-4.9423520">
        <ele>774.6</ele>
        <time>2019-08-14T14:41:47Z</time>
      </trkpt>
      <trkpt lat="41.3505170" lon="-4.9423940">
        <ele>774.5</ele>
        <time>2019-08-14T14:41:48Z</time>
      </trkpt>
      <trkpt lat="41.3505570" lon="-4.9424360">
        <ele>774.5</ele>
        <time>2019-08-14T14:41:49Z</time>
      </trkpt>
      <trkpt lat="41.3505980" lon="-4.9424790">
        <ele>774.5</ele>
        <time>2019-08-14T14:41:50Z</time>
      </trkpt>
      <trkpt lat="41.3506410" lon="-4.9425230">
        <ele>774.4</ele>
        <time>2019-08-14T14:41:51Z</time>
      </trkpt>
      <trkpt lat="41.3506830" lon="-4.9425680">
        <ele>774.4</ele>
        <time>2019-08-14T14:41:52Z</time>
      </trkpt>
      <trkpt lat="41.3507250" lon="-4.9426130">
        <ele>774.4</ele>
        <time>2019-08-14T14:41:53Z</time>
      </trkpt>
      <trkpt lat="41.3507670" lon="-4.9426570">
        <ele>774.4</ele>
        <time>2019-08-14T14:41:54Z</time>
      </trkpt>
      <trkpt lat="41.3508090" lon="-4.9427000">
        <ele>774.3</ele>
        <time>2019-08-14T14:41:55Z</time>
      </trkpt>
      <trkpt lat="41.3508500" lon="-4.9427420">
        <ele>774.2</ele>
        <time>2019-08-14T14:41:56Z</time>
      </trkpt>
      <trkpt lat="41.3508930" lon="-4.9427860">
        <ele>774.1</ele>
        <time>2019-08-14T14:41:57Z</time>
      </trkpt>
      <trkpt lat="41.3509370" lon="-4.9428330">
        <ele>774.0</ele>
        <time>2019-08-14T14:41:58Z</time>
      </trkpt>
      <trkpt lat="41.3509820" lon="-4.9428800">
        <ele>773.9</ele>
        <time>2019-08-14T14:41:59Z</time>
      </trkpt>
      <trkpt lat="41.3510280" lon="-4.9429280">
        <ele>773.8</ele>
        <time>2019-08-14T14:42:00Z</time>
      </trkpt>
      <trkpt lat="41.3510740" lon="-4.9429770">
        <ele>773.7</ele>
        <time>2019-08-14T14:42:01Z</time>
      </trkpt>
      <trkpt lat="41.3511200" lon="-4.9430250">
        <ele>773.5</ele>
        <time>2019-08-14T14:42:02Z</time>
      </trkpt>
      <trkpt lat="41.3511640" lon="-4.9430730">
        <ele>773.4</ele>
        <time>2019-08-14T14:42:03Z</time>
      </trkpt>
      <trkpt lat="41.3512080" lon="-4.9431190">
        <ele>773.3</ele>
        <time>2019-08-14T14:42:04Z</time>
      </trkpt>
      <trkpt lat="41.3512510" lon="-4.9431660">
        <ele>773.2</ele>
        <time>2019-08-14T14:42:05Z</time>
      </trkpt>
      <trkpt lat="41.3512920" lon="-4.9432130">
        <ele>773.1</ele>
        <time>2019-08-14T14:42:06Z</time>
      </trkpt>
      <trkpt lat="41.3513330" lon="-4.9432610">
        <ele>773.0</ele>
        <time>2019-08-14T14:42:07Z</time>
      </trkpt>
      <trkpt lat="41.3513730" lon="-4.9433090">
        <ele>772.9</ele>
        <time>2019-08-14T14:42:08Z</time>
      </trkpt>
      <trkpt lat="41.3514110" lon="-4.9433580">
        <ele>772.8</ele>
        <time>2019-08-14T14:42:09Z</time>
      </trkpt>
      <trkpt lat="41.3514490" lon="-4.9434090">
        <ele>772.7</ele>
        <time>2019-08-14T14:42:10Z</time>
      </trkpt>
      <trkpt lat="41.3514840" lon="-4.9434670">
        <ele>772.6</ele>
        <time>2019-08-14T14:42:11Z</time>
      </trkpt>
      <trkpt lat="41.3515170" lon="-4.9435280">
        <ele>772.5</ele>
        <time>2019-08-14T14:42:12Z</time>
      </trkpt>
      <trkpt lat="41.3515470" lon="-4.9435880">
        <ele>772.5</ele>
        <time>2019-08-14T14:42:13Z</time>
      </trkpt>
      <trkpt lat="41.3515760" lon="-4.9436440">
        <ele>772.5</ele>
        <time>2019-08-14T14:42:14Z</time>
      </trkpt>
      <trkpt lat="41.3516050" lon="-4.9436970">
        <ele>772.5</ele>
        <time>2019-08-14T14:42:15Z</time>
      </trkpt>
      <trkpt lat="41.3516350" lon="-4.9437450">
        <ele>772.5</ele>
        <time>2019-08-14T14:42:16Z</time>
      </trkpt>
      <trkpt lat="41.3516650" lon="-4.9437900">
        <ele>772.6</ele>
        <time>2019-08-14T14:42:17Z</time>
      </trkpt>
      <trkpt lat="41.3516960" lon="-4.9438330">
        <ele>772.6</ele>
        <time>2019-08-14T14:42:18Z</time>
      </trkpt>
      <trkpt lat="41.3517290" lon="-4.9438750">
        <ele>772.7</ele>
        <time>2019-08-14T14:42:19Z</time>
      </trkpt>
      <trkpt lat="41.3517650" lon="-4.9439110">
        <ele>772.8</ele>
        <time>2019-08-14T14:42:20Z</time>
      </trkpt>
      <trkpt lat="41.3518060" lon="-4.9439390">
        <ele>772.9</ele>
        <time>2019-08-14T14:42:21Z</time>
      </trkpt>
      <trkpt lat="41.3518490" lon="-4.9439620">
        <ele>773.0</ele>
        <time>2019-08-14T14:42:22Z</time>
      </trkpt>
      <trkpt lat="41.3518920" lon="-4.9439840">
        <ele>773.1</ele>
        <time>2019-08-14T14:42:23Z</time>
      </trkpt>
      <trkpt lat="41.3519340" lon="-4.9440080">
        <ele>773.2</ele>
        <time>2019-08-14T14:42:24Z</time>
      </trkpt>
      <trkpt lat="41.3519740" lon="-4.9440350">
        <ele>773.4</ele>
        <time>2019-08-14T14:42:25Z</time>
      </trkpt>
      <trkpt lat="41.3520160" lon="-4.9440620">
        <ele>773.5</ele>
        <time>2019-08-14T14:42:26Z</time>
      </trkpt>
      <trkpt lat="41.3520590" lon="-4.9440860">
        <ele>773.7</ele>
        <time>2019-08-14T14:42:27Z</time>
      </trkpt>
      <trkpt lat="41.3521010" lon="-4.9441080">
        <ele>773.8</ele>
        <time>2019-08-14T14:42:28Z</time>
      </trkpt>
      <trkpt lat="41.3521410" lon="-4.9441290">
        <ele>773.9</ele>
        <time>2019-08-14T14:42:29Z</time>
      </trkpt>
      <trkpt lat="41.3521820" lon="-4.9441460">
        <ele>774.0</ele>
        <time>2019-08-14T14:42:30Z</time>
      </trkpt>
      <trkpt lat="41.3522250" lon="-4.9441620">
        <ele>774.1</ele>
        <time>2019-08-14T14:42:31Z</time>
      </trkpt>
      <trkpt lat="41.3522690" lon="-4.9441750">
        <ele>774.1</ele>
        <time>2019-08-14T14:42:32Z</time>
      </trkpt>
      <trkpt lat="41.3523140" lon="-4.9441820">
        <ele>774.2</ele>
        <time>2019-08-14T14:42:33Z</time>
      </trkpt>
      <trkpt lat="41.3523590" lon="-4.9441850">
        <ele>774.2</ele>
        <time>2019-08-14T14:42:34Z</time>
      </trkpt>
      <trkpt lat="41.3524040" lon="-4.9441870">
        <ele>774.2</ele>
        <time>2019-08-14T14:42:35Z</time>
      </trkpt>
      <trkpt lat="41.3524510" lon="-4.9441930">
        <ele>774.3</ele>
        <time>2019-08-14T14:42:36Z</time>
      </trkpt>
      <trkpt lat="41.3524980" lon="-4.9442010">
        <ele>774.2</ele>
        <time>2019-08-14T14:42:37Z</time>
      </trkpt>
      <trkpt lat="41.3525450" lon="-4.9442120">
        <ele>774.2</ele>
        <time>2019-08-14T14:42:38Z</time>
      </trkpt>
      <trkpt lat="41.3525910" lon="-4.9442260">
        <ele>774.1</ele>
        <time>2019-08-14T14:42:39Z</time>
      </trkpt>
      <trkpt lat="41.3526370" lon="-4.9442410">
        <ele>774.1</ele>
        <time>2019-08-14T14:42:40Z</time>
      </trkpt>
      <trkpt lat="41.3526830" lon="-4.9442550">
        <ele>774.0</ele>
        <time>2019-08-14T14:42:41Z</time>
      </trkpt>
      <trkpt lat="41.3527310" lon="-4.9442650">
        <ele>773.9</ele>
        <time>2019-08-14T14:42:42Z</time>
      </trkpt>
      <trkpt lat="41.3527780" lon="-4.9442760">
        <ele>773.8</ele>
        <time>2019-08-14T14:42:43Z</time>
      </trkpt>
      <trkpt lat="41.3528230" lon="-4.9442900">
        <ele>773.7</ele>
        <time>2019-08-14T14:42:44Z</time>
      </trkpt>
      <trkpt lat="41.3528660" lon="-4.9443060">
        <ele>773.6</ele>
        <time>2019-08-14T14:42:45Z</time>
      </trkpt>
      <trkpt lat="41.3529080" lon="-4.9443210">
        <ele>773.5</ele>
        <time>2019-08-14T14:42:46Z</time>
      </trkpt>
      <trkpt lat="41.3529510" lon="-4.9443330">
        <ele>773.4</ele>
        <time>2019-08-14T14:42:47Z</time>
      </trkpt>
      <trkpt lat="41.3529950" lon="-4.9443440">
        <ele>773.4</ele>
        <time>2019-08-14T14:42:48Z</time>
      </trkpt>
      <trkpt lat="41.3530370" lon="-4.9443560">
        <ele>773.3</ele>
        <time>2019-08-14T14:42:49Z</time>
      </trkpt>
      <trkpt lat="41.3530800" lon="-4.9443690">
        <ele>773.2</ele>
        <time>2019-08-14T14:42:50Z</time>
      </trkpt>
      <trkpt lat="41.3531220" lon="-4.9443810">
        <ele>773.1</ele>
        <time>2019-08-14T14:42:51Z</time>
      </trkpt>
      <trkpt lat="41.3531640" lon="-4.9443930">
        <ele>773.0</ele>
        <time>2019-08-14T14:42:52Z</time>
      </trkpt>
      <trkpt lat="41.3532050" lon="-4.9444070">
        <ele>772.9</ele>
        <time>2019-08-14T14:42:53Z</time>
      </trkpt>
      <trkpt lat="41.3532440" lon="-4.9444190">
        <ele>772.8</ele>
        <time>2019-08-14T14:42:54Z</time>
      </trkpt>
      <trkpt lat="41.3532830" lon="-4.9444340">
        <ele>772.7</ele>
        <time>2019-08-14T14:42:55Z</time>
      </trkpt>
      <trkpt lat="41.3533220" lon="-4.9444470">
        <ele>772.6</ele>
        <time>2019-08-14T14:42:56Z</time>
      </trkpt>
      <trkpt lat="41.3533620" lon="-4.9444600">
        <ele>772.5</ele>
        <time>2019-08-14T14:42:57Z</time>
      </trkpt>
      <trkpt lat="41.3534010" lon="-4.9444720">
        <ele>772.4</ele>
        <time>2019-08-14T14:42:58Z</time>
      </trkpt>
      <trkpt lat="41.3534410" lon="-4.9444850">
        <ele>772.3</ele>
        <time>2019-08-14T14:42:59Z</time>
      </trkpt>
      <trkpt lat="41.3534800" lon="-4.9444980">
        <ele>772.2</ele>
        <time>2019-08-14T14:43:00Z</time>
      </trkpt>
      <trkpt lat="41.3535200" lon="-4.9445100">
        <ele>772.1</ele>
        <time>2019-08-14T14:43:01Z</time>
      </trkpt>
      <trkpt lat="41.3535590" lon="-4.9445240">
        <ele>772.1</ele>
        <time>2019-08-14T14:43:02Z</time>
      </trkpt>
      <trkpt lat="41.3536000" lon="-4.9445370">
        <ele>772.0</ele>
        <time>2019-08-14T14:43:03Z</time>
      </trkpt>
      <trkpt lat="41.3536400" lon="-4.9445500">
        <ele>771.9</ele>
        <time>2019-08-14T14:43:04Z</time>
      </trkpt>
      <trkpt lat="41.3536800" lon="-4.9445640">
        <ele>771.9</ele>
        <time>2019-08-14T14:43:05Z</time>
      </trkpt>
      <trkpt lat="41.3537200" lon="-4.9445760">
        <ele>771.8</ele>
        <time>2019-08-14T14:43:06Z</time>
      </trkpt>
      <trkpt lat="41.3537590" lon="-4.9445850">
        <ele>771.8</ele>
        <time>2019-08-14T14:43:07Z</time>
      </trkpt>
      <trkpt lat="41.3537990" lon="-4.9445930">
        <ele>771.7</ele>
        <time>2019-08-14T14:43:08Z</time>
      </trkpt>
      <trkpt lat="41.3538380" lon="-4.9446000">
        <ele>771.6</ele>
        <time>2019-08-14T14:43:09Z</time>
      </trkpt>
      <trkpt lat="41.3538770" lon="-4.9446070">
        <ele>771.5</ele>
        <time>2019-08-14T14:43:10Z</time>
      </trkpt>
      <trkpt lat="41.3539160" lon="-4.9446130">
        <ele>771.5</ele>
        <time>2019-08-14T14:43:11Z</time>
      </trkpt>
      <trkpt lat="41.3539550" lon="-4.9446200">
        <ele>771.5</ele>
        <time>2019-08-14T14:43:12Z</time>
      </trkpt>
      <trkpt lat="41.3539920" lon="-4.9446260">
        <ele>771.3</ele>
        <time>2019-08-14T14:43:13Z</time>
      </trkpt>
      <trkpt lat="41.3540290" lon="-4.9446300">
        <ele>771.2</ele>
        <time>2019-08-14T14:43:14Z</time>
      </trkpt>
      <trkpt lat="41.3540640" lon="-4.9446340">
        <ele>771.2</ele>
        <time>2019-08-14T14:43:15Z</time>
      </trkpt>
      <trkpt lat="41.3540990" lon="-4.9446380">
        <ele>771.1</ele>
        <time>2019-08-14T14:43:16Z</time>
      </trkpt>
      <trkpt lat="41.3541330" lon="-4.9446460">
        <ele>771.1</ele>
        <time>2019-08-14T14:43:17Z</time>
      </trkpt>
      <trkpt lat="41.3541660" lon="-4.9446530">
        <ele>771.0</ele>
        <time>2019-08-14T14:43:18Z</time>
      </trkpt>
      <trkpt lat="41.3541990" lon="-4.9446600">
        <ele>771.0</ele>
        <time>2019-08-14T14:43:19Z</time>
      </trkpt>
      <trkpt lat="41.3542310" lon="-4.9446670">
        <ele>771.0</ele>
        <time>2019-08-14T14:43:20Z</time>
      </trkpt>
      <trkpt lat="41.3542620" lon="-4.9446710">
        <ele>771.0</ele>
        <time>2019-08-14T14:43:21Z</time>
      </trkpt>
      <trkpt lat="41.3542920" lon="-4.9446760">
        <ele>771.1</ele>
        <time>2019-08-14T14:43:22Z</time>
      </trkpt>
      <trkpt lat="41.3543210" lon="-4.9446810">
        <ele>771.1</ele>
        <time>2019-08-14T14:43:23Z</time>
      </trkpt>
      <trkpt lat="41.3543480" lon="-4.9446880">
        <ele>771.0</ele>
        <time>2019-08-14T14:43:24Z</time>
      </trkpt>
      <trkpt lat="41.3543750" lon="-4.9446950">
        <ele>771.0</ele>
        <time>2019-08-14T14:43:25Z</time>
      </trkpt>
      <trkpt lat="41.3544010" lon="-4.9447030">
        <ele>771.1</ele>
        <time>2019-08-14T14:43:26Z</time>
      </trkpt>
      <trkpt lat="41.3544290" lon="-4.9447110">
        <ele>771.3</ele>
        <time>2019-08-14T14:43:27Z</time>
      </trkpt>
      <trkpt lat="41.3544570" lon="-4.9447210">
        <ele>771.4</ele>
        <time>2019-08-14T14:43:28Z</time>
      </trkpt>
      <trkpt lat="41.3544850" lon="-4.9447330">
        <ele>771.4</ele>
        <time>2019-08-14T14:43:29Z</time>
      </trkpt>
      <trkpt lat="41.3545140" lon="-4.9447460">
        <ele>771.5</ele>
        <time>2019-08-14T14:43:30Z</time>
      </trkpt>
      <trkpt lat="41.3545430" lon="-4.9447570">
        <ele>771.5</ele>
        <time>2019-08-14T14:43:31Z</time>
      </trkpt>
      <trkpt lat="41.3545730" lon="-4.9447670">
        <ele>771.7</ele>
        <time>2019-08-14T14:43:32Z</time>
      </trkpt>
      <trkpt lat="41.3546020" lon="-4.9447760">
        <ele>771.8</ele>
        <time>2019-08-14T14:43:33Z</time>
      </trkpt>
      <trkpt lat="41.3546310" lon="-4.9447870">
        <ele>771.9</ele>
        <time>2019-08-14T14:43:34Z</time>
      </trkpt>
      <trkpt lat="41.3546590" lon="-4.9448000">
        <ele>772.0</ele>
        <time>2019-08-14T14:43:35Z</time>
      </trkpt>
      <trkpt lat="41.3546870" lon="-4.9448120">
        <ele>772.1</ele>
        <time>2019-08-14T14:43:36Z</time>
      </trkpt>
      <trkpt lat="41.3547140" lon="-4.9448220">
        <ele>772.3</ele>
        <time>2019-08-14T14:43:37Z</time>
      </trkpt>
      <trkpt lat="41.3547650" lon="-4.9448370">
        <ele>772.6</ele>
        <time>2019-08-14T14:43:39Z</time>
      </trkpt>
      <trkpt lat="41.3548150" lon="-4.9448440">
        <ele>773.1</ele>
        <time>2019-08-14T14:43:41Z</time>
      </trkpt>
      <trkpt lat="41.3548660" lon="-4.9448450">
        <ele>773.6</ele>
        <time>2019-08-14T14:43:43Z</time>
      </trkpt>
      <trkpt lat="41.3549150" lon="-4.9448510">
        <ele>773.9</ele>
        <time>2019-08-14T14:43:45Z</time>
      </trkpt>
      <trkpt lat="41.3549630" lon="-4.9448550">
        <ele>774.3</ele>
        <time>2019-08-14T14:43:47Z</time>
      </trkpt>
      <trkpt lat="41.3550110" lon="-4.9448610">
        <ele>775.0</ele>
        <time>2019-08-14T14:43:49Z</time>
      </trkpt>
      <trkpt lat="41.3550570" lon="-4.9448720">
        <ele>775.5</ele>
        <time>2019-08-14T14:43:51Z</time>
      </trkpt>
      <trkpt lat="41.3551020" lon="-4.9448820">
        <ele>776.0</ele>
        <time>2019-08-14T14:43:53Z</time>
      </trkpt>
      <trkpt lat="41.3551450" lon="-4.9448910">
        <ele>776.7</ele>
        <time>2019-08-14T14:43:55Z</time>
      </trkpt>
      <trkpt lat="41.3551850" lon="-4.9449000">
        <ele>777.4</ele>
        <time>2019-08-14T14:43:57Z</time>
      </trkpt>
      <trkpt lat="41.3552270" lon="-4.9449080">
        <ele>777.9</ele>
        <time>2019-08-14T14:43:59Z</time>
      </trkpt>
      <trkpt lat="41.3552670" lon="-4.9449220">
        <ele>778.5</ele>
        <time>2019-08-14T14:44:01Z</time>
      </trkpt>
      <trkpt lat="41.3553070" lon="-4.9449390">
        <ele>779.5</ele>
        <time>2019-08-14T14:44:03Z</time>
      </trkpt>
      <trkpt lat="41.3553480" lon="-4.9449550">
        <ele>780.6</ele>
        <time>2019-08-14T14:44:05Z</time>
      </trkpt>
      <trkpt lat="41.3553910" lon="-4.9449710">
        <ele>781.3</ele>
        <time>2019-08-14T14:44:07Z</time>
      </trkpt>
      <trkpt lat="41.3554340" lon="-4.9449850">
        <ele>782.1</ele>
        <time>2019-08-14T14:44:09Z</time>
      </trkpt>
      <trkpt lat="41.3554770" lon="-4.9449980">
        <ele>783.2</ele>
        <time>2019-08-14T14:44:11Z</time>
      </trkpt>
      <trkpt lat="41.3555210" lon="-4.9450160">
        <ele>784.3</ele>
        <time>2019-08-14T14:44:13Z</time>
      </trkpt>
      <trkpt lat="41.3555670" lon="-4.9450340">
        <ele>785.7</ele>
        <time>2019-08-14T14:44:15Z</time>
      </trkpt>
      <trkpt lat="41.3556120" lon="-4.9450460">
        <ele>786.7</ele>
        <time>2019-08-14T14:44:17Z</time>
      </trkpt>
      <trkpt lat="41.3556570" lon="-4.9450630">
        <ele>787.4</ele>
        <time>2019-08-14T14:44:19Z</time>
      </trkpt>
      <trkpt lat="41.3557010" lon="-4.9450770">
        <ele>788.3</ele>
        <time>2019-08-14T14:44:21Z</time>
      </trkpt>
      <trkpt lat="41.3557440" lon="-4.9450860">
        <ele>789.2</ele>
        <time>2019-08-14T14:44:23Z</time>
      </trkpt>
      <trkpt lat="41.3557870" lon="-4.9450960">
        <ele>789.9</ele>
        <time>2019-08-14T14:44:25Z</time>
      </trkpt>
      <trkpt lat="41.3558270" lon="-4.9451070">
        <ele>790.5</ele>
        <time>2019-08-14T14:44:27Z</time>
      </trkpt>
      <trkpt lat="41.3558680" lon="-4.9451180">
        <ele>791.2</ele>
        <time>2019-08-14T14:44:29Z</time>
      </trkpt>
      <trkpt lat="41.3559080" lon="-4.9451270">
        <ele>791.8</ele>
        <time>2019-08-14T14:44:31Z</time>
      </trkpt>
      <trkpt lat="41.3559480" lon="-4.9451390">
        <ele>792.4</ele>
        <time>2019-08-14T14:44:33Z</time>
      </trkpt>
      <trkpt lat="41.3559860" lon="-4.9451500">
        <ele>792.7</ele>
        <time>2019-08-14T14:44:35Z</time>
      </trkpt>
      <trkpt lat="41.3560240" lon="-4.9451610">
        <ele>793.1</ele>
        <time>2019-08-14T14:44:37Z</time>
      </trkpt>
      <trkpt lat="41.3560620" lon="-4.9451710">
        <ele>793.6</ele>
        <time>2019-08-14T14:44:39Z</time>
      </trkpt>
      <trkpt lat="41.3561000" lon="-4.9451800">
        <ele>794.0</ele>
        <time>2019-08-14T14:44:41Z</time>
      </trkpt>
      <trkpt lat="41.3561370" lon="-4.9451900">
        <ele>794.4</ele>
        <time>2019-08-14T14:44:43Z</time>
      </trkpt>
      <trkpt lat="41.3561740" lon="-4.9451990">
        <ele>794.8</ele>
        <time>2019-08-14T14:44:45Z</time>
      </trkpt>
      <trkpt lat="41.3562120" lon="-4.9452070">
        <ele>795.0</ele>
        <time>2019-08-14T14:44:47Z</time>
      </trkpt>
      <trkpt lat="41.3562520" lon="-4.9452120">
        <ele>795.2</ele>
        <time>2019-08-14T14:44:49Z</time>
      </trkpt>
      <trkpt lat="41.3562930" lon="-4.9452150">
        <ele>795.4</ele>
        <time>2019-08-14T14:44:51Z</time>
      </trkpt>
      <trkpt lat="41.3563320" lon="-4.9452160">
        <ele>795.6</ele>
        <time>2019-08-14T14:44:53Z</time>
      </trkpt>
      <trkpt lat="41.3563710" lon="-4.9452170">
        <ele>795.8</ele>
        <time>2019-08-14T14:44:55Z</time>
      </trkpt>
      <trkpt lat="41.3564090" lon="-4.9452150">
        <ele>795.9</ele>
        <time>2019-08-14T14:44:57Z</time>
      </trkpt>
      <trkpt lat="41.3564450" lon="-4.9452120">
        <ele>795.9</ele>
        <time>2019-08-14T14:44:59Z</time>
      </trkpt>
      <trkpt lat="41.3564790" lon="-4.9452090">
        <ele>796.0</ele>
        <time>2019-08-14T14:45:01Z</time>
      </trkpt>
      <trkpt lat="41.3565110" lon="-4.9452040">
        <ele>796.1</ele>
        <time>2019-08-14T14:45:03Z</time>
      </trkpt>
      <trkpt lat="41.3565450" lon="-4.9452000">
        <ele>796.2</ele>
        <time>2019-08-14T14:45:05Z</time>
      </trkpt>
      <trkpt lat="41.3565790" lon="-4.9452010">
        <ele>796.2</ele>
        <time>2019-08-14T14:45:07Z</time>
      </trkpt>
      <trkpt lat="41.3566160" lon="-4.9452050">
        <ele>796.3</ele>
        <time>2019-08-14T14:45:09Z</time>
      </trkpt>
      <trkpt lat="41.3566530" lon="-4.9452080">
        <ele>796.4</ele>
        <time>2019-08-14T14:45:11Z</time>
      </trkpt>
      <trkpt lat="41.3566920" lon="-4.9452140">
        <ele>796.5</ele>
        <time>2019-08-14T14:45:13Z</time>
      </trkpt>
      <trkpt lat="41.3567320" lon="-4.9452230">
        <ele>796.5</ele>
        <time>2019-08-14T14:45:15Z</time>
      </trkpt>
      <trkpt lat="41.3567710" lon="-4.9452320">
        <ele>796.6</ele>
        <time>2019-08-14T14:45:17Z</time>
      </trkpt>
      <trkpt lat="41.3568100" lon="-4.9452460">
        <ele>796.7</ele>
        <time>2019-08-14T14:45:19Z</time>
      </trkpt>
      <trkpt lat="41.3568490" lon="-4.9452650">
        <ele>796.7</ele>
        <time>2019-08-14T14:45:21Z</time>
      </trkpt>
      <trkpt lat="41.3568880" lon="-4.9452920">
        <ele>796.8</ele>
        <time>2019-08-14T14:45:23Z</time>
      </trkpt>
      <trkpt lat="41.3569330" lon="-4.9453210">
        <ele>796.9</ele>
        <time>2019-08-14T14:45:25Z</time>
      </trkpt>
      <trkpt lat="41.3569590" lon="-4.9453370">
        <ele>796.9</ele>
        <time>2019-08-14T14:45:26Z</time>
      </trkpt>
      <trkpt lat="41.3569870" lon="-4.9453530">
        <ele>797.0</ele>
        <time>2019-08-14T14:45:27Z</time>
      </trkpt>
      <trkpt lat="41.3570160" lon="-4.9453710">
        <ele>797.0</ele>
        <time>2019-08-14T14:45:28Z</time>
      </trkpt>
      <trkpt lat="41.3570450" lon="-4.9453870">
        <ele>797.1</ele>
        <time>2019-08-14T14:45:29Z</time>
      </trkpt>
      <trkpt lat="41.3570750" lon="-4.9454020">
        <ele>797.1</ele>
        <time>2019-08-14T14:45:30Z</time>
      </trkpt>
      <trkpt lat="41.3571070" lon="-4.9454170">
        <ele>797.2</ele>
        <time>2019-08-14T14:45:31Z</time>
      </trkpt>
      <trkpt lat="41.3571410" lon="-4.9454360">
        <ele>797.2</ele>
        <time>2019-08-14T14:45:32Z</time>
      </trkpt>
      <trkpt lat="41.3571760" lon="-4.9454570">
        <ele>797.3</ele>
        <time>2019-08-14T14:45:33Z</time>
      </trkpt>
      <trkpt lat="41.3572120" lon="-4.9454770">
        <ele>797.3</ele>
        <time>2019-08-14T14:45:34Z</time>
      </trkpt>
      <trkpt lat="41.3572490" lon="-4.9454960">
        <ele>797.3</ele>
        <time>2019-08-14T14:45:35Z</time>
      </trkpt>
      <trkpt lat="41.3572870" lon="-4.9455130">
        <ele>797.4</ele>
        <time>2019-08-14T14:45:36Z</time>
      </trkpt>
      <trkpt lat="41.3573240" lon="-4.9455280">
        <ele>797.4</ele>
        <time>2019-08-14T14:45:37Z</time>
      </trkpt>
      <trkpt lat="41.3573620" lon="-4.9455410">
        <ele>797.4</ele>
        <time>2019-08-14T14:45:38Z</time>
      </trkpt>
      <trkpt lat="41.3574000" lon="-4.9455550">
        <ele>797.4</ele>
        <time>2019-08-14T14:45:39Z</time>
      </trkpt>
      <trkpt lat="41.3574400" lon="-4.9455680">
        <ele>797.4</ele>
        <time>2019-08-14T14:45:40Z</time>
      </trkpt>
      <trkpt lat="41.3574820" lon="-4.9455780">
        <ele>797.4</ele>
        <time>2019-08-14T14:45:41Z</time>
      </trkpt>
      <trkpt lat="41.3575250" lon="-4.9455840">
        <ele>797.3</ele>
        <time>2019-08-14T14:45:42Z</time>
      </trkpt>
      <trkpt lat="41.3575690" lon="-4.9455910">
        <ele>797.2</ele>
        <time>2019-08-14T14:45:43Z</time>
      </trkpt>
      <trkpt lat="41.3576120" lon="-4.9455980">
        <ele>797.1</ele>
        <time>2019-08-14T14:45:44Z</time>
      </trkpt>
      <trkpt lat="41.3576530" lon="-4.9456060">
        <ele>797.0</ele>
        <time>2019-08-14T14:45:45Z</time>
      </trkpt>
      <trkpt lat="41.3576930" lon="-4.9456150">
        <ele>796.8</ele>
        <time>2019-08-14T14:45:46Z</time>
      </trkpt>
      <trkpt lat="41.3577310" lon="-4.9456230">
        <ele>796.7</ele>
        <time>2019-08-14T14:45:47Z</time>
      </trkpt>
      <trkpt lat="41.3577700" lon="-4.9456290">
        <ele>796.5</ele>
        <time>2019-08-14T14:45:48Z</time>
      </trkpt>
      <trkpt lat="41.3578120" lon="-4.9456350">
        <ele>796.3</ele>
        <time>2019-08-14T14:45:49Z</time>
      </trkpt>
      <trkpt lat="41.3578560" lon="-4.9456440">
        <ele>796.0</ele>
        <time>2019-08-14T14:45:50Z</time>
      </trkpt>
      <trkpt lat="41.3578990" lon="-4.9456570">
        <ele>795.7</ele>
        <time>2019-08-14T14:45:51Z</time>
      </trkpt>
      <trkpt lat="41.3579410" lon="-4.9456700">
        <ele>795.5</ele>
        <time>2019-08-14T14:45:52Z</time>
      </trkpt>
      <trkpt lat="41.3579830" lon="-4.9456840">
        <ele>795.4</ele>
        <time>2019-08-14T14:45:53Z</time>
      </trkpt>
      <trkpt lat="41.3580240" lon="-4.9457000">
        <ele>795.3</ele>
        <time>2019-08-14T14:45:54Z</time>
      </trkpt>
      <trkpt lat="41.3580660" lon="-4.9457170">
        <ele>795.2</ele>
        <time>2019-08-14T14:45:55Z</time>
      </trkpt>
      <trkpt lat="41.3581110" lon="-4.9457350">
        <ele>795.1</ele>
        <time>2019-08-14T14:45:56Z</time>
      </trkpt>
      <trkpt lat="41.3581560" lon="-4.9457500">
        <ele>795.1</ele>
        <time>2019-08-14T14:45:57Z</time>
      </trkpt>
      <trkpt lat="41.3582030" lon="-4.9457630">
        <ele>795.0</ele>
        <time>2019-08-14T14:45:58Z</time>
      </trkpt>
      <trkpt lat="41.3582490" lon="-4.9457770">
        <ele>795.0</ele>
        <time>2019-08-14T14:45:59Z</time>
      </trkpt>
      <trkpt lat="41.3582960" lon="-4.9457930">
        <ele>794.9</ele>
        <time>2019-08-14T14:46:00Z</time>
      </trkpt>
      <trkpt lat="41.3583420" lon="-4.9458090">
        <ele>794.9</ele>
        <time>2019-08-14T14:46:01Z</time>
      </trkpt>
      <trkpt lat="41.3583880" lon="-4.9458260">
        <ele>794.8</ele>
        <time>2019-08-14T14:46:02Z</time>
      </trkpt>
      <trkpt lat="41.3584340" lon="-4.9458460">
        <ele>794.7</ele>
        <time>2019-08-14T14:46:03Z</time>
      </trkpt>
      <trkpt lat="41.3584800" lon="-4.9458660">
        <ele>794.7</ele>
        <time>2019-08-14T14:46:04Z</time>
      </trkpt>
      <trkpt lat="41.3585270" lon="-4.9458860">
        <ele>794.6</ele>
        <time>2019-08-14T14:46:05Z</time>
      </trkpt>
      <trkpt lat="41.3585760" lon="-4.9459050">
        <ele>794.5</ele>
        <time>2019-08-14T14:46:06Z</time>
      </trkpt>
      <trkpt lat="41.3586250" lon="-4.9459250">
        <ele>794.5</ele>
        <time>2019-08-14T14:46:07Z</time>
      </trkpt>
      <trkpt lat="41.3586750" lon="-4.9459410">
        <ele>794.4</ele>
        <time>2019-08-14T14:46:08Z</time>
      </trkpt>
      <trkpt lat="41.3587260" lon="-4.9459560">
        <ele>794.3</ele>
        <time>2019-08-14T14:46:09Z</time>
      </trkpt>
      <trkpt lat="41.3587770" lon="-4.9459690">
        <ele>794.2</ele>
        <time>2019-08-14T14:46:10Z</time>
      </trkpt>
      <trkpt lat="41.3588280" lon="-4.9459820">
        <ele>794.2</ele>
        <time>2019-08-14T14:46:11Z</time>
      </trkpt>
      <trkpt lat="41.3588790" lon="-4.9459960">
        <ele>794.1</ele>
        <time>2019-08-14T14:46:12Z</time>
      </trkpt>
      <trkpt lat="41.3589290" lon="-4.9460110">
        <ele>794.1</ele>
        <time>2019-08-14T14:46:13Z</time>
      </trkpt>
      <trkpt lat="41.3589800" lon="-4.9460280">
        <ele>794.0</ele>
        <time>2019-08-14T14:46:14Z</time>
      </trkpt>
      <trkpt lat="41.3590290" lon="-4.9460430">
        <ele>793.9</ele>
        <time>2019-08-14T14:46:15Z</time>
      </trkpt>
      <trkpt lat="41.3590780" lon="-4.9460590">
        <ele>793.8</ele>
        <time>2019-08-14T14:46:16Z</time>
      </trkpt>
      <trkpt lat="41.3591250" lon="-4.9460760">
        <ele>793.8</ele>
        <time>2019-08-14T14:46:17Z</time>
      </trkpt>
      <trkpt lat="41.3591720" lon="-4.9460920">
        <ele>793.7</ele>
        <time>2019-08-14T14:46:18Z</time>
      </trkpt>
      <trkpt lat="41.3592170" lon="-4.9461060">
        <ele>793.6</ele>
        <time>2019-08-14T14:46:19Z</time>
      </trkpt>
      <trkpt lat="41.3592630" lon="-4.9461180">
        <ele>793.5</ele>
        <time>2019-08-14T14:46:20Z</time>
      </trkpt>
      <trkpt lat="41.3593090" lon="-4.9461330">
        <ele>793.4</ele>
        <time>2019-08-14T14:46:21Z</time>
      </trkpt>
      <trkpt lat="41.3593540" lon="-4.9461480">
        <ele>793.3</ele>
        <time>2019-08-14T14:46:22Z</time>
      </trkpt>
      <trkpt lat="41.3593990" lon="-4.9461660">
        <ele>793.1</ele>
        <time>2019-08-14T14:46:23Z</time>
      </trkpt>
      <trkpt lat="41.3594480" lon="-4.9461840">
        <ele>792.9</ele>
        <time>2019-08-14T14:46:24Z</time>
      </trkpt>
      <trkpt lat="41.3594970" lon="-4.9462030">
        <ele>792.7</ele>
        <time>2019-08-14T14:46:25Z</time>
      </trkpt>
      <trkpt lat="41.3595460" lon="-4.9462210">
        <ele>792.5</ele>
        <time>2019-08-14T14:46:26Z</time>
      </trkpt>
      <trkpt lat="41.3595960" lon="-4.9462380">
        <ele>792.4</ele>
        <time>2019-08-14T14:46:27Z</time>
      </trkpt>
      <trkpt lat="41.3596450" lon="-4.9462570">
        <ele>792.2</ele>
        <time>2019-08-14T14:46:28Z</time>
      </trkpt>
      <trkpt lat="41.3596920" lon="-4.9462740">
        <ele>791.9</ele>
        <time>2019-08-14T14:46:29Z</time>
      </trkpt>
      <trkpt lat="41.3597400" lon="-4.9462920">
        <ele>791.8</ele>
        <time>2019-08-14T14:46:30Z</time>
      </trkpt>
      <trkpt lat="41.3597890" lon="-4.9463110">
        <ele>791.6</ele>
        <time>2019-08-14T14:46:31Z</time>
      </trkpt>
      <trkpt lat="41.3598400" lon="-4.9463310">
        <ele>791.3</ele>
        <time>2019-08-14T14:46:32Z</time>
      </trkpt>
      <trkpt lat="41.3598910" lon="-4.9463500">
        <ele>791.1</ele>
        <time>2019-08-14T14:46:33Z</time>
      </trkpt>
      <trkpt lat="41.3599400" lon="-4.9463690">
        <ele>790.8</ele>
        <time>2019-08-14T14:46:34Z</time>
      </trkpt>
      <trkpt lat="41.3599910" lon="-4.9463880">
        <ele>790.6</ele>
        <time>2019-08-14T14:46:35Z</time>
      </trkpt>
      <trkpt lat="41.3600410" lon="-4.9464070">
        <ele>790.4</ele>
        <time>2019-08-14T14:46:36Z</time>
      </trkpt>
      <trkpt lat="41.3600910" lon="-4.9464270">
        <ele>790.2</ele>
        <time>2019-08-14T14:46:37Z</time>
      </trkpt>
      <trkpt lat="41.3601410" lon="-4.9464450">
        <ele>790.0</ele>
        <time>2019-08-14T14:46:38Z</time>
      </trkpt>
      <trkpt lat="41.3601910" lon="-4.9464620">
        <ele>789.8</ele>
        <time>2019-08-14T14:46:39Z</time>
      </trkpt>
      <trkpt lat="41.3602410" lon="-4.9464810">
        <ele>789.6</ele>
        <time>2019-08-14T14:46:40Z</time>
      </trkpt>
      <trkpt lat="41.3602890" lon="-4.9465000">
        <ele>789.4</ele>
        <time>2019-08-14T14:46:41Z</time>
      </trkpt>
      <trkpt lat="41.3603360" lon="-4.9465200">
        <ele>789.1</ele>
        <time>2019-08-14T14:46:42Z</time>
      </trkpt>
      <trkpt lat="41.3603840" lon="-4.9465370">
        <ele>788.9</ele>
        <time>2019-08-14T14:46:43Z</time>
      </trkpt>
      <trkpt lat="41.3604300" lon="-4.9465540">
        <ele>788.8</ele>
        <time>2019-08-14T14:46:44Z</time>
      </trkpt>
      <trkpt lat="41.3604760" lon="-4.9465710">
        <ele>788.6</ele>
        <time>2019-08-14T14:46:45Z</time>
      </trkpt>
      <trkpt lat="41.3605210" lon="-4.9465900">
        <ele>788.5</ele>
        <time>2019-08-14T14:46:46Z</time>
      </trkpt>
      <trkpt lat="41.3605640" lon="-4.9466080">
        <ele>788.4</ele>
        <time>2019-08-14T14:46:47Z</time>
      </trkpt>
      <trkpt lat="41.3606070" lon="-4.9466270">
        <ele>788.2</ele>
        <time>2019-08-14T14:46:48Z</time>
      </trkpt>
      <trkpt lat="41.3606520" lon="-4.9466470">
        <ele>788.2</ele>
        <time>2019-08-14T14:46:49Z</time>
      </trkpt>
      <trkpt lat="41.3607000" lon="-4.9466700">
        <ele>788.2</ele>
        <time>2019-08-14T14:46:50Z</time>
      </trkpt>
      <trkpt lat="41.3607480" lon="-4.9466900">
        <ele>788.1</ele>
        <time>2019-08-14T14:46:51Z</time>
      </trkpt>
      <trkpt lat="41.3607990" lon="-4.9467080">
        <ele>788.0</ele>
        <time>2019-08-14T14:46:52Z</time>
      </trkpt>
      <trkpt lat="41.3608480" lon="-4.9467260">
        <ele>787.9</ele>
        <time>2019-08-14T14:46:53Z</time>
      </trkpt>
      <trkpt lat="41.3608970" lon="-4.9467440">
        <ele>787.9</ele>
        <time>2019-08-14T14:46:54Z</time>
      </trkpt>
      <trkpt lat="41.3609430" lon="-4.9467640">
        <ele>787.8</ele>
        <time>2019-08-14T14:46:55Z</time>
      </trkpt>
      <trkpt lat="41.3609910" lon="-4.9467840">
        <ele>787.7</ele>
        <time>2019-08-14T14:46:56Z</time>
      </trkpt>
      <trkpt lat="41.3610400" lon="-4.9468030">
        <ele>787.7</ele>
        <time>2019-08-14T14:46:57Z</time>
      </trkpt>
      <trkpt lat="41.3610890" lon="-4.9468230">
        <ele>787.7</ele>
        <time>2019-08-14T14:46:58Z</time>
      </trkpt>
      <trkpt lat="41.3611380" lon="-4.9468430">
        <ele>787.7</ele>
        <time>2019-08-14T14:46:59Z</time>
      </trkpt>
      <trkpt lat="41.3611860" lon="-4.9468620">
        <ele>787.6</ele>
        <time>2019-08-14T14:47:00Z</time>
      </trkpt>
      <trkpt lat="41.3612350" lon="-4.9468790">
        <ele>787.5</ele>
        <time>2019-08-14T14:47:01Z</time>
      </trkpt>
      <trkpt lat="41.3612840" lon="-4.9468960">
        <ele>787.5</ele>
        <time>2019-08-14T14:47:02Z</time>
      </trkpt>
      <trkpt lat="41.3613330" lon="-4.9469100">
        <ele>787.4</ele>
        <time>2019-08-14T14:47:03Z</time>
      </trkpt>
      <trkpt lat="41.3613840" lon="-4.9469250">
        <ele>787.4</ele>
        <time>2019-08-14T14:47:04Z</time>
      </trkpt>
      <trkpt lat="41.3614330" lon="-4.9469400">
        <ele>787.3</ele>
        <time>2019-08-14T14:47:05Z</time>
      </trkpt>
      <trkpt lat="41.3614800" lon="-4.9469540">
        <ele>787.3</ele>
        <time>2019-08-14T14:47:06Z</time>
      </trkpt>
      <trkpt lat="41.3615320" lon="-4.9469730">
        <ele>787.2</ele>
        <time>2019-08-14T14:47:07Z</time>
      </trkpt>
      <trkpt lat="41.3615820" lon="-4.9469930">
        <ele>787.1</ele>
        <time>2019-08-14T14:47:08Z</time>
      </trkpt>
      <trkpt lat="41.3616290" lon="-4.9470140">
        <ele>787.1</ele>
        <time>2019-08-14T14:47:09Z</time>
      </trkpt>
      <trkpt lat="41.3616730" lon="-4.9470370">
        <ele>787.0</ele>
        <time>2019-08-14T14:47:10Z</time>
      </trkpt>
      <trkpt lat="41.3617150" lon="-4.9470650">
        <ele>787.0</ele>
        <time>2019-08-14T14:47:11Z</time>
      </trkpt>
      <trkpt lat="41.3617580" lon="-4.9470940">
        <ele>786.9</ele>
        <time>2019-08-14T14:47:12Z</time>
      </trkpt>
      <trkpt lat="41.3618010" lon="-4.9471260">
        <ele>786.8</ele>
        <time>2019-08-14T14:47:13Z</time>
      </trkpt>
      <trkpt lat="41.3618430" lon="-4.9471580">
        <ele>786.7</ele>
        <time>2019-08-14T14:47:14Z</time>
      </trkpt>
      <trkpt lat="41.3618860" lon="-4.9471880">
        <ele>786.7</ele>
        <time>2019-08-14T14:47:15Z</time>
      </trkpt>
      <trkpt lat="41.3619270" lon="-4.9472220">
        <ele>786.6</ele>
        <time>2019-08-14T14:47:16Z</time>
      </trkpt>
      <trkpt lat="41.3619680" lon="-4.9472540">
        <ele>786.5</ele>
        <time>2019-08-14T14:47:17Z</time>
      </trkpt>
      <trkpt lat="41.3620110" lon="-4.9472860">
        <ele>786.4</ele>
        <time>2019-08-14T14:47:18Z</time>
      </trkpt>
      <trkpt lat="41.3620540" lon="-4.9473170">
        <ele>786.3</ele>
        <time>2019-08-14T14:47:19Z</time>
      </trkpt>
      <trkpt lat="41.3620990" lon="-4.9473460">
        <ele>786.2</ele>
        <time>2019-08-14T14:47:20Z</time>
      </trkpt>
      <trkpt lat="41.3621440" lon="-4.9473710">
        <ele>786.0</ele>
        <time>2019-08-14T14:47:21Z</time>
      </trkpt>
      <trkpt lat="41.3621870" lon="-4.9473970">
        <ele>785.9</ele>
        <time>2019-08-14T14:47:22Z</time>
      </trkpt>
      <trkpt lat="41.3622310" lon="-4.9474230">
        <ele>785.8</ele>
        <time>2019-08-14T14:47:23Z</time>
      </trkpt>
      <trkpt lat="41.3622780" lon="-4.9474500">
        <ele>785.7</ele>
        <time>2019-08-14T14:47:24Z</time>
      </trkpt>
      <trkpt lat="41.3623250" lon="-4.9474790">
        <ele>785.5</ele>
        <time>2019-08-14T14:47:25Z</time>
      </trkpt>
      <trkpt lat="41.3623720" lon="-4.9475060">
        <ele>785.4</ele>
        <time>2019-08-14T14:47:26Z</time>
      </trkpt>
      <trkpt lat="41.3624190" lon="-4.9475310">
        <ele>785.2</ele>
        <time>2019-08-14T14:47:27Z</time>
      </trkpt>
      <trkpt lat="41.3624650" lon="-4.9475520">
        <ele>785.0</ele>
        <time>2019-08-14T14:47:28Z</time>
      </trkpt>
      <trkpt lat="41.3625120" lon="-4.9475680">
        <ele>784.9</ele>
        <time>2019-08-14T14:47:29Z</time>
      </trkpt>
      <trkpt lat="41.3625580" lon="-4.9475860">
        <ele>784.7</ele>
        <time>2019-08-14T14:47:30Z</time>
      </trkpt>
      <trkpt lat="41.3625940" lon="-4.9476060">
        <ele>784.5</ele>
        <time>2019-08-14T14:47:31Z</time>
      </trkpt>
      <trkpt lat="41.3626220" lon="-4.9476280">
        <ele>784.4</ele>
        <time>2019-08-14T14:47:32Z</time>
      </trkpt>
      <trkpt lat="41.3626450" lon="-4.9476480">
        <ele>784.3</ele>
        <time>2019-08-14T14:47:33Z</time>
      </trkpt>
      <trkpt lat="41.3626710" lon="-4.9476630">
        <ele>784.2</ele>
        <time>2019-08-14T14:47:34Z</time>
      </trkpt>
      <trkpt lat="41.3627000" lon="-4.9476740">
        <ele>784.1</ele>
        <time>2019-08-14T14:47:35Z</time>
      </trkpt>
      <trkpt lat="41.3627320" lon="-4.9476880">
        <ele>784.0</ele>
        <time>2019-08-14T14:47:36Z</time>
      </trkpt>
      <trkpt lat="41.3627680" lon="-4.9477060">
        <ele>783.8</ele>
        <time>2019-08-14T14:47:37Z</time>
      </trkpt>
      <trkpt lat="41.3628110" lon="-4.9477240">
        <ele>783.6</ele>
        <time>2019-08-14T14:47:38Z</time>
      </trkpt>
      <trkpt lat="41.3628590" lon="-4.9477420">
        <ele>783.4</ele>
        <time>2019-08-14T14:47:39Z</time>
      </trkpt>
      <trkpt lat="41.3629120" lon="-4.9477620">
        <ele>783.3</ele>
        <time>2019-08-14T14:47:40Z</time>
      </trkpt>
      <trkpt lat="41.3629660" lon="-4.9477830">
        <ele>783.1</ele>
        <time>2019-08-14T14:47:41Z</time>
      </trkpt>
      <trkpt lat="41.3630200" lon="-4.9478070">
        <ele>782.9</ele>
        <time>2019-08-14T14:47:42Z</time>
      </trkpt>
      <trkpt lat="41.3630750" lon="-4.9478280">
        <ele>782.7</ele>
        <time>2019-08-14T14:47:43Z</time>
      </trkpt>
      <trkpt lat="41.3631280" lon="-4.9478480">
        <ele>782.5</ele>
        <time>2019-08-14T14:47:44Z</time>
      </trkpt>
      <trkpt lat="41.3631820" lon="-4.9478660">
        <ele>782.3</ele>
        <time>2019-08-14T14:47:45Z</time>
      </trkpt>
      <trkpt lat="41.3632350" lon="-4.9478850">
        <ele>782.2</ele>
        <time>2019-08-14T14:47:46Z</time>
      </trkpt>
      <trkpt lat="41.3632870" lon="-4.9479050">
        <ele>782.1</ele>
        <time>2019-08-14T14:47:47Z</time>
      </trkpt>
      <trkpt lat="41.3633390" lon="-4.9479260">
        <ele>782.0</ele>
        <time>2019-08-14T14:47:48Z</time>
      </trkpt>
      <trkpt lat="41.3633930" lon="-4.9479480">
        <ele>781.9</ele>
        <time>2019-08-14T14:47:49Z</time>
      </trkpt>
      <trkpt lat="41.3634470" lon="-4.9479690">
        <ele>781.8</ele>
        <time>2019-08-14T14:47:50Z</time>
      </trkpt>
      <trkpt lat="41.3634990" lon="-4.9479870">
        <ele>781.7</ele>
        <time>2019-08-14T14:47:51Z</time>
      </trkpt>
      <trkpt lat="41.3635520" lon="-4.9480060">
        <ele>781.7</ele>
        <time>2019-08-14T14:47:52Z</time>
      </trkpt>
      <trkpt lat="41.3636030" lon="-4.9480260">
        <ele>781.6</ele>
        <time>2019-08-14T14:47:53Z</time>
      </trkpt>
      <trkpt lat="41.3636520" lon="-4.9480460">
        <ele>781.5</ele>
        <time>2019-08-14T14:47:54Z</time>
      </trkpt>
      <trkpt lat="41.3637010" lon="-4.9480650">
        <ele>781.4</ele>
        <time>2019-08-14T14:47:55Z</time>
      </trkpt>
      <trkpt lat="41.3637530" lon="-4.9480830">
        <ele>781.4</ele>
        <time>2019-08-14T14:47:56Z</time>
      </trkpt>
      <trkpt lat="41.3638040" lon="-4.9481010">
        <ele>781.3</ele>
        <time>2019-08-14T14:47:57Z</time>
      </trkpt>
      <trkpt lat="41.3638560" lon="-4.9481190">
        <ele>781.2</ele>
        <time>2019-08-14T14:47:58Z</time>
      </trkpt>
      <trkpt lat="41.3639090" lon="-4.9481380">
        <ele>781.1</ele>
        <time>2019-08-14T14:47:59Z</time>
      </trkpt>
      <trkpt lat="41.3639620" lon="-4.9481530">
        <ele>781.1</ele>
        <time>2019-08-14T14:48:00Z</time>
      </trkpt>
      <trkpt lat="41.3640160" lon="-4.9481660">
        <ele>781.0</ele>
        <time>2019-08-14T14:48:01Z</time>
      </trkpt>
      <trkpt lat="41.3640710" lon="-4.9481760">
        <ele>780.9</ele>
        <time>2019-08-14T14:48:02Z</time>
      </trkpt>
      <trkpt lat="41.3641240" lon="-4.9481840">
        <ele>780.9</ele>
        <time>2019-08-14T14:48:03Z</time>
      </trkpt>
      <trkpt lat="41.3641760" lon="-4.9481960">
        <ele>780.8</ele>
        <time>2019-08-14T14:48:04Z</time>
      </trkpt>
      <trkpt lat="41.3642250" lon="-4.9482130">
        <ele>780.7</ele>
        <time>2019-08-14T14:48:05Z</time>
      </trkpt>
      <trkpt lat="41.3642710" lon="-4.9482350">
        <ele>780.7</ele>
        <time>2019-08-14T14:48:06Z</time>
      </trkpt>
      <trkpt lat="41.3643160" lon="-4.9482650">
        <ele>780.6</ele>
        <time>2019-08-14T14:48:07Z</time>
      </trkpt>
      <trkpt lat="41.3643590" lon="-4.9482970">
        <ele>780.6</ele>
        <time>2019-08-14T14:48:08Z</time>
      </trkpt>
      <trkpt lat="41.3644030" lon="-4.9483310">
        <ele>780.5</ele>
        <time>2019-08-14T14:48:09Z</time>
      </trkpt>
      <trkpt lat="41.3644460" lon="-4.9483650">
        <ele>780.5</ele>
        <time>2019-08-14T14:48:10Z</time>
      </trkpt>
      <trkpt lat="41.3644890" lon="-4.9484010">
        <ele>780.4</ele>
        <time>2019-08-14T14:48:11Z</time>
      </trkpt>
      <trkpt lat="41.3645320" lon="-4.9484360">
        <ele>780.4</ele>
        <time>2019-08-14T14:48:12Z</time>
      </trkpt>
      <trkpt lat="41.3645780" lon="-4.9484720">
        <ele>780.3</ele>
        <time>2019-08-14T14:48:13Z</time>
      </trkpt>
      <trkpt lat="41.3646260" lon="-4.9485060">
        <ele>780.2</ele>
        <time>2019-08-14T14:48:14Z</time>
      </trkpt>
      <trkpt lat="41.3646760" lon="-4.9485370">
        <ele>780.2</ele>
        <time>2019-08-14T14:48:15Z</time>
      </trkpt>
      <trkpt lat="41.3647270" lon="-4.9485660">
        <ele>780.1</ele>
        <time>2019-08-14T14:48:16Z</time>
      </trkpt>
      <trkpt lat="41.3647790" lon="-4.9485940">
        <ele>780.0</ele>
        <time>2019-08-14T14:48:17Z</time>
      </trkpt>
      <trkpt lat="41.3648320" lon="-4.9486210">
        <ele>779.9</ele>
        <time>2019-08-14T14:48:18Z</time>
      </trkpt>
      <trkpt lat="41.3648840" lon="-4.9486500">
        <ele>779.8</ele>
        <time>2019-08-14T14:48:19Z</time>
      </trkpt>
      <trkpt lat="41.3649350" lon="-4.9486810">
        <ele>779.6</ele>
        <time>2019-08-14T14:48:20Z</time>
      </trkpt>
      <trkpt lat="41.3649840" lon="-4.9487140">
        <ele>779.5</ele>
        <time>2019-08-14T14:48:21Z</time>
      </trkpt>
      <trkpt lat="41.3650320" lon="-4.9487490">
        <ele>779.4</ele>
        <time>2019-08-14T14:48:22Z</time>
      </trkpt>
      <trkpt lat="41.3650810" lon="-4.9487860">
        <ele>779.2</ele>
        <time>2019-08-14T14:48:23Z</time>
      </trkpt>
      <trkpt lat="41.3651310" lon="-4.9488260">
        <ele>779.1</ele>
        <time>2019-08-14T14:48:24Z</time>
      </trkpt>
      <trkpt lat="41.3651800" lon="-4.9488650">
        <ele>778.8</ele>
        <time>2019-08-14T14:48:25Z</time>
      </trkpt>
      <trkpt lat="41.3652300" lon="-4.9489050">
        <ele>778.7</ele>
        <time>2019-08-14T14:48:26Z</time>
      </trkpt>
      <trkpt lat="41.3652810" lon="-4.9489450">
        <ele>778.5</ele>
        <time>2019-08-14T14:48:27Z</time>
      </trkpt>
      <trkpt lat="41.3653340" lon="-4.9489850">
        <ele>778.4</ele>
        <time>2019-08-14T14:48:28Z</time>
      </trkpt>
      <trkpt lat="41.3653870" lon="-4.9490240">
        <ele>778.2</ele>
        <time>2019-08-14T14:48:29Z</time>
      </trkpt>
      <trkpt lat="41.3654400" lon="-4.9490630">
        <ele>778.1</ele>
        <time>2019-08-14T14:48:30Z</time>
      </trkpt>
      <trkpt lat="41.3654940" lon="-4.9491030">
        <ele>778.0</ele>
        <time>2019-08-14T14:48:31Z</time>
      </trkpt>
      <trkpt lat="41.3655480" lon="-4.9491450">
        <ele>777.9</ele>
        <time>2019-08-14T14:48:32Z</time>
      </trkpt>
      <trkpt lat="41.3656000" lon="-4.9491860">
        <ele>777.8</ele>
        <time>2019-08-14T14:48:33Z</time>
      </trkpt>
      <trkpt lat="41.3656510" lon="-4.9492260">
        <ele>777.8</ele>
        <time>2019-08-14T14:48:34Z</time>
      </trkpt>
      <trkpt lat="41.3657020" lon="-4.9492640">
        <ele>777.8</ele>
        <time>2019-08-14T14:48:35Z</time>
      </trkpt>
      <trkpt lat="41.3657530" lon="-4.9493030">
        <ele>777.8</ele>
        <time>2019-08-14T14:48:36Z</time>
      </trkpt>
      <trkpt lat="41.3658060" lon="-4.9493420">
        <ele>777.9</ele>
        <time>2019-08-14T14:48:37Z</time>
      </trkpt>
      <trkpt lat="41.3658570" lon="-4.9493800">
        <ele>777.9</ele>
        <time>2019-08-14T14:48:38Z</time>
      </trkpt>
      <trkpt lat="41.3659070" lon="-4.9494120">
        <ele>778.0</ele>
        <time>2019-08-14T14:48:39Z</time>
      </trkpt>
      <trkpt lat="41.3659570" lon="-4.9494430">
        <ele>778.1</ele>
        <time>2019-08-14T14:48:40Z</time>
      </trkpt>
      <trkpt lat="41.3660090" lon="-4.9494690">
        <ele>778.2</ele>
        <time>2019-08-14T14:48:41Z</time>
      </trkpt>
      <trkpt lat="41.3660640" lon="-4.9494860">
        <ele>778.2</ele>
        <time>2019-08-14T14:48:42Z</time>
      </trkpt>
      <trkpt lat="41.3661160" lon="-4.9494950">
        <ele>778.3</ele>
        <time>2019-08-14T14:48:43Z</time>
      </trkpt>
      <trkpt lat="41.3661690" lon="-4.9495010">
        <ele>778.5</ele>
        <time>2019-08-14T14:48:44Z</time>
      </trkpt>
      <trkpt lat="41.3662230" lon="-4.9495050">
        <ele>778.5</ele>
        <time>2019-08-14T14:48:45Z</time>
      </trkpt>
      <trkpt lat="41.3662760" lon="-4.9495080">
        <ele>778.6</ele>
        <time>2019-08-14T14:48:46Z</time>
      </trkpt>
      <trkpt lat="41.3663310" lon="-4.9495130">
        <ele>778.7</ele>
        <time>2019-08-14T14:48:47Z</time>
      </trkpt>
      <trkpt lat="41.3663860" lon="-4.9495190">
        <ele>778.8</ele>
        <time>2019-08-14T14:48:48Z</time>
      </trkpt>
      <trkpt lat="41.3664420" lon="-4.9495320">
        <ele>778.9</ele>
        <time>2019-08-14T14:48:49Z</time>
      </trkpt>
      <trkpt lat="41.3664960" lon="-4.9495510">
        <ele>778.9</ele>
        <time>2019-08-14T14:48:50Z</time>
      </trkpt>
      <trkpt lat="41.3665500" lon="-4.9495720">
        <ele>779.0</ele>
        <time>2019-08-14T14:48:51Z</time>
      </trkpt>
      <trkpt lat="41.3666030" lon="-4.9495950">
        <ele>779.1</ele>
        <time>2019-08-14T14:48:52Z</time>
      </trkpt>
      <trkpt lat="41.3666540" lon="-4.9496200">
        <ele>779.1</ele>
        <time>2019-08-14T14:48:53Z</time>
      </trkpt>
      <trkpt lat="41.3667020" lon="-4.9496510">
        <ele>779.2</ele>
        <time>2019-08-14T14:48:54Z</time>
      </trkpt>
      <trkpt lat="41.3667500" lon="-4.9496860">
        <ele>779.3</ele>
        <time>2019-08-14T14:48:55Z</time>
      </trkpt>
      <trkpt lat="41.3667940" lon="-4.9497260">
        <ele>779.4</ele>
        <time>2019-08-14T14:48:56Z</time>
      </trkpt>
      <trkpt lat="41.3668380" lon="-4.9497690">
        <ele>779.4</ele>
        <time>2019-08-14T14:48:57Z</time>
      </trkpt>
      <trkpt lat="41.3668820" lon="-4.9498110">
        <ele>779.5</ele>
        <time>2019-08-14T14:48:58Z</time>
      </trkpt>
      <trkpt lat="41.3669260" lon="-4.9498510">
        <ele>779.6</ele>
        <time>2019-08-14T14:48:59Z</time>
      </trkpt>
      <trkpt lat="41.3669720" lon="-4.9498910">
        <ele>779.7</ele>
        <time>2019-08-14T14:49:00Z</time>
      </trkpt>
      <trkpt lat="41.3670190" lon="-4.9499310">
        <ele>779.8</ele>
        <time>2019-08-14T14:49:01Z</time>
      </trkpt>
      <trkpt lat="41.3670670" lon="-4.9499680">
        <ele>779.9</ele>
        <time>2019-08-14T14:49:02Z</time>
      </trkpt>
      <trkpt lat="41.3671160" lon="-4.9500030">
        <ele>779.9</ele>
        <time>2019-08-14T14:49:03Z</time>
      </trkpt>
      <trkpt lat="41.3671670" lon="-4.9500360">
        <ele>780.0</ele>
        <time>2019-08-14T14:49:04Z</time>
      </trkpt>
      <trkpt lat="41.3672170" lon="-4.9500690">
        <ele>780.0</ele>
        <time>2019-08-14T14:49:05Z</time>
      </trkpt>
      <trkpt lat="41.3672680" lon="-4.9501020">
        <ele>780.0</ele>
        <time>2019-08-14T14:49:06Z</time>
      </trkpt>
      <trkpt lat="41.3673200" lon="-4.9501360">
        <ele>779.9</ele>
        <time>2019-08-14T14:49:07Z</time>
      </trkpt>
      <trkpt lat="41.3673720" lon="-4.9501710">
        <ele>779.9</ele>
        <time>2019-08-14T14:49:08Z</time>
      </trkpt>
      <trkpt lat="41.3674240" lon="-4.9502040">
        <ele>779.8</ele>
        <time>2019-08-14T14:49:09Z</time>
      </trkpt>
      <trkpt lat="41.3674760" lon="-4.9502370">
        <ele>779.6</ele>
        <time>2019-08-14T14:49:10Z</time>
      </trkpt>
      <trkpt lat="41.3675270" lon="-4.9502700">
        <ele>779.5</ele>
        <time>2019-08-14T14:49:11Z</time>
      </trkpt>
      <trkpt lat="41.3675760" lon="-4.9503030">
        <ele>779.4</ele>
        <time>2019-08-14T14:49:12Z</time>
      </trkpt>
      <trkpt lat="41.3676260" lon="-4.9503360">
        <ele>779.2</ele>
        <time>2019-08-14T14:49:13Z</time>
      </trkpt>
      <trkpt lat="41.3676760" lon="-4.9503690">
        <ele>779.1</ele>
        <time>2019-08-14T14:49:14Z</time>
      </trkpt>
      <trkpt lat="41.3677280" lon="-4.9504010">
        <ele>778.9</ele>
        <time>2019-08-14T14:49:15Z</time>
      </trkpt>
      <trkpt lat="41.3677790" lon="-4.9504340">
        <ele>778.8</ele>
        <time>2019-08-14T14:49:16Z</time>
      </trkpt>
      <trkpt lat="41.3678300" lon="-4.9504650">
        <ele>778.6</ele>
        <time>2019-08-14T14:49:17Z</time>
      </trkpt>
      <trkpt lat="41.3678810" lon="-4.9504950">
        <ele>778.5</ele>
        <time>2019-08-14T14:49:18Z</time>
      </trkpt>
      <trkpt lat="41.3679360" lon="-4.9505200">
        <ele>778.4</ele>
        <time>2019-08-14T14:49:19Z</time>
      </trkpt>
      <trkpt lat="41.3679930" lon="-4.9505370">
        <ele>778.3</ele>
        <time>2019-08-14T14:49:20Z</time>
      </trkpt>
      <trkpt lat="41.3680510" lon="-4.9505430">
        <ele>778.2</ele>
        <time>2019-08-14T14:49:21Z</time>
      </trkpt>
      <trkpt lat="41.3681080" lon="-4.9505370">
        <ele>778.1</ele>
        <time>2019-08-14T14:49:22Z</time>
      </trkpt>
      <trkpt lat="41.3681650" lon="-4.9505200">
        <ele>778.1</ele>
        <time>2019-08-14T14:49:23Z</time>
      </trkpt>
      <trkpt lat="41.3682220" lon="-4.9505040">
        <ele>778.0</ele>
        <time>2019-08-14T14:49:24Z</time>
      </trkpt>
      <trkpt lat="41.3682790" lon="-4.9505050">
        <ele>778.0</ele>
        <time>2019-08-14T14:49:25Z</time>
      </trkpt>
      <trkpt lat="41.3683340" lon="-4.9505250">
        <ele>778.0</ele>
        <time>2019-08-14T14:49:26Z</time>
      </trkpt>
      <trkpt lat="41.3683830" lon="-4.9505610">
        <ele>777.9</ele>
        <time>2019-08-14T14:49:27Z</time>
      </trkpt>
      <trkpt lat="41.3684240" lon="-4.9506110">
        <ele>777.9</ele>
        <time>2019-08-14T14:49:28Z</time>
      </trkpt>
      <trkpt lat="41.3684520" lon="-4.9506710">
        <ele>777.9</ele>
        <time>2019-08-14T14:49:29Z</time>
      </trkpt>
      <trkpt lat="41.3684750" lon="-4.9507340">
        <ele>778.0</ele>
        <time>2019-08-14T14:49:30Z</time>
      </trkpt>
      <trkpt lat="41.3684990" lon="-4.9507970">
        <ele>778.0</ele>
        <time>2019-08-14T14:49:31Z</time>
      </trkpt>
      <trkpt lat="41.3685270" lon="-4.9508570">
        <ele>778.0</ele>
        <time>2019-08-14T14:49:32Z</time>
      </trkpt>
      <trkpt lat="41.3685600" lon="-4.9509150">
        <ele>778.0</ele>
        <time>2019-08-14T14:49:33Z</time>
      </trkpt>
      <trkpt lat="41.3685990" lon="-4.9509650">
        <ele>778.1</ele>
        <time>2019-08-14T14:49:34Z</time>
      </trkpt>
      <trkpt lat="41.3686430" lon="-4.9510080">
        <ele>778.1</ele>
        <time>2019-08-14T14:49:35Z</time>
      </trkpt>
      <trkpt lat="41.3686890" lon="-4.9510480">
        <ele>778.2</ele>
        <time>2019-08-14T14:49:36Z</time>
      </trkpt>
      <trkpt lat="41.3687380" lon="-4.9510870">
        <ele>778.2</ele>
        <time>2019-08-14T14:49:37Z</time>
      </trkpt>
      <trkpt lat="41.3687880" lon="-4.9511240">
        <ele>778.3</ele>
        <time>2019-08-14T14:49:38Z</time>
      </trkpt>
      <trkpt lat="41.3688400" lon="-4.9511590">
        <ele>778.3</ele>
        <time>2019-08-14T14:49:39Z</time>
      </trkpt>
      <trkpt lat="41.3688920" lon="-4.9511920">
        <ele>778.4</ele>
        <time>2019-08-14T14:49:40Z</time>
      </trkpt>
      <trkpt lat="41.3689440" lon="-4.9512240">
        <ele>778.4</ele>
        <time>2019-08-14T14:49:41Z</time>
      </trkpt>
      <trkpt lat="41.3689960" lon="-4.9512560">
        <ele>778.4</ele>
        <time>2019-08-14T14:49:42Z</time>
      </trkpt>
      <trkpt lat="41.3690490" lon="-4.9512880">
        <ele>778.4</ele>
        <time>2019-08-14T14:49:43Z</time>
      </trkpt>
      <trkpt lat="41.3691030" lon="-4.9513200">
        <ele>778.4</ele>
        <time>2019-08-14T14:49:44Z</time>
      </trkpt>
      <trkpt lat="41.3691580" lon="-4.9513530">
        <ele>778.4</ele>
        <time>2019-08-14T14:49:45Z</time>
      </trkpt>
      <trkpt lat="41.3692140" lon="-4.9513850">
        <ele>778.4</ele>
        <time>2019-08-14T14:49:46Z</time>
      </trkpt>
      <trkpt lat="41.3692690" lon="-4.9514170">
        <ele>778.4</ele>
        <time>2019-08-14T14:49:47Z</time>
      </trkpt>
      <trkpt lat="41.3693240" lon="-4.9514480">
        <ele>778.3</ele>
        <time>2019-08-14T14:49:48Z</time>
      </trkpt>
      <trkpt lat="41.3693800" lon="-4.9514780">
        <ele>778.3</ele>
        <time>2019-08-14T14:49:49Z</time>
      </trkpt>
      <trkpt lat="41.3694350" lon="-4.9515100">
        <ele>778.3</ele>
        <time>2019-08-14T14:49:50Z</time>
      </trkpt>
      <trkpt lat="41.3694910" lon="-4.9515410">
        <ele>778.2</ele>
        <time>2019-08-14T14:49:51Z</time>
      </trkpt>
      <trkpt lat="41.3695470" lon="-4.9515740">
        <ele>778.2</ele>
        <time>2019-08-14T14:49:52Z</time>
      </trkpt>
      <trkpt lat="41.3696030" lon="-4.9516070">
        <ele>778.2</ele>
        <time>2019-08-14T14:49:53Z</time>
      </trkpt>
      <trkpt lat="41.3696620" lon="-4.9516370">
        <ele>778.1</ele>
        <time>2019-08-14T14:49:54Z</time>
      </trkpt>
      <trkpt lat="41.3697220" lon="-4.9516640">
        <ele>778.1</ele>
        <time>2019-08-14T14:49:55Z</time>
      </trkpt>
      <trkpt lat="41.3697830" lon="-4.9516910">
        <ele>777.9</ele>
        <time>2019-08-14T14:49:56Z</time>
      </trkpt>
      <trkpt lat="41.3698440" lon="-4.9517170">
        <ele>777.8</ele>
        <time>2019-08-14T14:49:57Z</time>
      </trkpt>
      <trkpt lat="41.3699050" lon="-4.9517440">
        <ele>777.7</ele>
        <time>2019-08-14T14:49:58Z</time>
      </trkpt>
      <trkpt lat="41.3699660" lon="-4.9517730">
        <ele>777.5</ele>
        <time>2019-08-14T14:49:59Z</time>
      </trkpt>
      <trkpt lat="41.3700260" lon="-4.9518020">
        <ele>777.4</ele>
        <time>2019-08-14T14:50:00Z</time>
      </trkpt>
      <trkpt lat="41.3700850" lon="-4.9518300">
        <ele>777.2</ele>
        <time>2019-08-14T14:50:01Z</time>
      </trkpt>
      <trkpt lat="41.3701440" lon="-4.9518590">
        <ele>777.0</ele>
        <time>2019-08-14T14:50:02Z</time>
      </trkpt>
      <trkpt lat="41.3702010" lon="-4.9518900">
        <ele>776.9</ele>
        <time>2019-08-14T14:50:03Z</time>
      </trkpt>
      <trkpt lat="41.3702550" lon="-4.9519270">
        <ele>776.7</ele>
        <time>2019-08-14T14:50:04Z</time>
      </trkpt>
      <trkpt lat="41.3703090" lon="-4.9519660">
        <ele>776.6</ele>
        <time>2019-08-14T14:50:05Z</time>
      </trkpt>
      <trkpt lat="41.3703620" lon="-4.9520050">
        <ele>776.4</ele>
        <time>2019-08-14T14:50:06Z</time>
      </trkpt>
      <trkpt lat="41.3704160" lon="-4.9520420">
        <ele>776.3</ele>
        <time>2019-08-14T14:50:07Z</time>
      </trkpt>
      <trkpt lat="41.3704680" lon="-4.9520790">
        <ele>776.2</ele>
        <time>2019-08-14T14:50:08Z</time>
      </trkpt>
      <trkpt lat="41.3705200" lon="-4.9521150">
        <ele>776.0</ele>
        <time>2019-08-14T14:50:09Z</time>
      </trkpt>
      <trkpt lat="41.3705730" lon="-4.9521530">
        <ele>775.9</ele>
        <time>2019-08-14T14:50:10Z</time>
      </trkpt>
      <trkpt lat="41.3706260" lon="-4.9521900">
        <ele>775.9</ele>
        <time>2019-08-14T14:50:11Z</time>
      </trkpt>
      <trkpt lat="41.3706810" lon="-4.9522230">
        <ele>775.8</ele>
        <time>2019-08-14T14:50:12Z</time>
      </trkpt>
      <trkpt lat="41.3707350" lon="-4.9522570">
        <ele>775.7</ele>
        <time>2019-08-14T14:50:13Z</time>
      </trkpt>
      <trkpt lat="41.3707900" lon="-4.9522910">
        <ele>775.8</ele>
        <time>2019-08-14T14:50:14Z</time>
      </trkpt>
      <trkpt lat="41.3708460" lon="-4.9523240">
        <ele>775.8</ele>
        <time>2019-08-14T14:50:15Z</time>
      </trkpt>
      <trkpt lat="41.3709020" lon="-4.9523600">
        <ele>775.8</ele>
        <time>2019-08-14T14:50:16Z</time>
      </trkpt>
      <trkpt lat="41.3709610" lon="-4.9523930">
        <ele>775.7</ele>
        <time>2019-08-14T14:50:17Z</time>
      </trkpt>
      <trkpt lat="41.3710160" lon="-4.9524270">
        <ele>775.7</ele>
        <time>2019-08-14T14:50:18Z</time>
      </trkpt>
      <trkpt lat="41.3710710" lon="-4.9524610">
        <ele>775.7</ele>
        <time>2019-08-14T14:50:19Z</time>
      </trkpt>
      <trkpt lat="41.3711240" lon="-4.9524950">
        <ele>775.5</ele>
        <time>2019-08-14T14:50:20Z</time>
      </trkpt>
      <trkpt lat="41.3711770" lon="-4.9525290">
        <ele>775.3</ele>
        <time>2019-08-14T14:50:21Z</time>
      </trkpt>
      <trkpt lat="41.3712280" lon="-4.9525630">
        <ele>775.2</ele>
        <time>2019-08-14T14:50:22Z</time>
      </trkpt>
      <trkpt lat="41.3712800" lon="-4.9525940">
        <ele>775.0</ele>
        <time>2019-08-14T14:50:23Z</time>
      </trkpt>
      <trkpt lat="41.3713330" lon="-4.9526220">
        <ele>774.8</ele>
        <time>2019-08-14T14:50:24Z</time>
      </trkpt>
      <trkpt lat="41.3713850" lon="-4.9526450">
        <ele>774.6</ele>
        <time>2019-08-14T14:50:25Z</time>
      </trkpt>
      <trkpt lat="41.3714350" lon="-4.9526660">
        <ele>774.2</ele>
        <time>2019-08-14T14:50:26Z</time>
      </trkpt>
      <trkpt lat="41.3714830" lon="-4.9526850">
        <ele>773.9</ele>
        <time>2019-08-14T14:50:27Z</time>
      </trkpt>
      <trkpt lat="41.3715280" lon="-4.9527070">
        <ele>773.6</ele>
        <time>2019-08-14T14:50:28Z</time>
      </trkpt>
      <trkpt lat="41.3715720" lon="-4.9527320">
        <ele>773.3</ele>
        <time>2019-08-14T14:50:29Z</time>
      </trkpt>
      <trkpt lat="41.3716150" lon="-4.9527570">
        <ele>772.8</ele>
        <time>2019-08-14T14:50:30Z</time>
      </trkpt>
      <trkpt lat="41.3716590" lon="-4.9527820">
        <ele>772.2</ele>
        <time>2019-08-14T14:50:31Z</time>
      </trkpt>
      <trkpt lat="41.3717050" lon="-4.9528060">
        <ele>771.6</ele>
        <time>2019-08-14T14:50:32Z</time>
      </trkpt>
      <trkpt lat="41.3717530" lon="-4.9528340">
        <ele>771.1</ele>
        <time>2019-08-14T14:50:33Z</time>
      </trkpt>
      <trkpt lat="41.3718040" lon="-4.9528610">
        <ele>770.7</ele>
        <time>2019-08-14T14:50:34Z</time>
      </trkpt>
      <trkpt lat="41.3718590" lon="-4.9528900">
        <ele>769.8</ele>
        <time>2019-08-14T14:50:35Z</time>
      </trkpt>
      <trkpt lat="41.3719170" lon="-4.9529220">
        <ele>769.1</ele>
        <time>2019-08-14T14:50:36Z</time>
      </trkpt>
      <trkpt lat="41.3719790" lon="-4.9529550">
        <ele>768.3</ele>
        <time>2019-08-14T14:50:37Z</time>
      </trkpt>
      <trkpt lat="41.3720480" lon="-4.9529880">
        <ele>767.3</ele>
        <time>2019-08-14T14:50:38Z</time>
      </trkpt>
      <trkpt lat="41.3721220" lon="-4.9530260">
        <ele>766.6</ele>
        <time>2019-08-14T14:50:39Z</time>
      </trkpt>
      <trkpt lat="41.3722000" lon="-4.9530670">
        <ele>765.5</ele>
        <time>2019-08-14T14:50:40Z</time>
      </trkpt>
      <trkpt lat="41.3722800" lon="-4.9531110">
        <ele>764.5</ele>
        <time>2019-08-14T14:50:41Z</time>
      </trkpt>
      <trkpt lat="41.3723630" lon="-4.9531640">
        <ele>763.0</ele>
        <time>2019-08-14T14:50:42Z</time>
      </trkpt>
      <trkpt lat="41.3724490" lon="-4.9532190">
        <ele>761.7</ele>
        <time>2019-08-14T14:50:43Z</time>
      </trkpt>
      <trkpt lat="41.3725370" lon="-4.9532770">
        <ele>760.0</ele>
        <time>2019-08-14T14:50:44Z</time>
      </trkpt>
      <trkpt lat="41.3726280" lon="-4.9533370">
        <ele>758.9</ele>
        <time>2019-08-14T14:50:45Z</time>
      </trkpt>
      <trkpt lat="41.3727200" lon="-4.9533980">
        <ele>757.8</ele>
        <time>2019-08-14T14:50:46Z</time>
      </trkpt>
      <trkpt lat="41.3728120" lon="-4.9534620">
        <ele>756.9</ele>
        <time>2019-08-14T14:50:47Z</time>
      </trkpt>
      <trkpt lat="41.3729050" lon="-4.9535260">
        <ele>756.1</ele>
        <time>2019-08-14T14:50:48Z</time>
      </trkpt>
      <trkpt lat="41.3729990" lon="-4.9535900">
        <ele>755.6</ele>
        <time>2019-08-14T14:50:49Z</time>
      </trkpt>
      <trkpt lat="41.3730930" lon="-4.9536560">
        <ele>755.0</ele>
        <time>2019-08-14T14:50:50Z</time>
      </trkpt>
      <trkpt lat="41.3731870" lon="-4.9537200">
        <ele>754.6</ele>
        <time>2019-08-14T14:50:51Z</time>
      </trkpt>
      <trkpt lat="41.3732820" lon="-4.9537840">
        <ele>754.5</ele>
        <time>2019-08-14T14:50:52Z</time>
      </trkpt>
      <trkpt lat="41.3733760" lon="-4.9538490">
        <ele>754.3</ele>
        <time>2019-08-14T14:50:53Z</time>
      </trkpt>
      <trkpt lat="41.3734690" lon="-4.9539150">
        <ele>754.1</ele>
        <time>2019-08-14T14:50:54Z</time>
      </trkpt>
      <trkpt lat="41.3735630" lon="-4.9539800">
        <ele>754.0</ele>
        <time>2019-08-14T14:50:55Z</time>
      </trkpt>
      <trkpt lat="41.3736540" lon="-4.9540440">
        <ele>753.8</ele>
        <time>2019-08-14T14:50:56Z</time>
      </trkpt>
      <trkpt lat="41.3737460" lon="-4.9541080">
        <ele>753.7</ele>
        <time>2019-08-14T14:50:57Z</time>
      </trkpt>
      <trkpt lat="41.3738360" lon="-4.9541720">
        <ele>753.8</ele>
        <time>2019-08-14T14:50:58Z</time>
      </trkpt>
      <trkpt lat="41.3739270" lon="-4.9542320">
        <ele>753.9</ele>
        <time>2019-08-14T14:50:59Z</time>
      </trkpt>
      <trkpt lat="41.3740200" lon="-4.9542880">
        <ele>754.0</ele>
        <time>2019-08-14T14:51:00Z</time>
      </trkpt>
      <trkpt lat="41.3741120" lon="-4.9543390">
        <ele>753.9</ele>
        <time>2019-08-14T14:51:01Z</time>
      </trkpt>
      <trkpt lat="41.3742030" lon="-4.9543850">
        <ele>753.7</ele>
        <time>2019-08-14T14:51:02Z</time>
      </trkpt>
      <trkpt lat="41.3742960" lon="-4.9544250">
        <ele>753.6</ele>
        <time>2019-08-14T14:51:03Z</time>
      </trkpt>
      <trkpt lat="41.3743890" lon="-4.9544580">
        <ele>753.4</ele>
        <time>2019-08-14T14:51:04Z</time>
      </trkpt>
      <trkpt lat="41.3744790" lon="-4.9544890">
        <ele>753.2</ele>
        <time>2019-08-14T14:51:05Z</time>
      </trkpt>
      <trkpt lat="41.3745670" lon="-4.9545180">
        <ele>753.0</ele>
        <time>2019-08-14T14:51:06Z</time>
      </trkpt>
      <trkpt lat="41.3746510" lon="-4.9545500">
        <ele>752.9</ele>
        <time>2019-08-14T14:51:07Z</time>
      </trkpt>
      <trkpt lat="41.3747320" lon="-4.9545850">
        <ele>752.7</ele>
        <time>2019-08-14T14:51:08Z</time>
      </trkpt>
      <trkpt lat="41.3748110" lon="-4.9546220">
        <ele>752.5</ele>
        <time>2019-08-14T14:51:09Z</time>
      </trkpt>
      <trkpt lat="41.3748880" lon="-4.9546590">
        <ele>752.3</ele>
        <time>2019-08-14T14:51:10Z</time>
      </trkpt>
      <trkpt lat="41.3749630" lon="-4.9546980">
        <ele>752.3</ele>
        <time>2019-08-14T14:51:11Z</time>
      </trkpt>
      <trkpt lat="41.3750330" lon="-4.9547450">
        <ele>752.2</ele>
        <time>2019-08-14T14:51:12Z</time>
      </trkpt>
      <trkpt lat="41.3750960" lon="-4.9548000">
        <ele>751.9</ele>
        <time>2019-08-14T14:51:13Z</time>
      </trkpt>
      <trkpt lat="41.3751520" lon="-4.9548620">
        <ele>751.7</ele>
        <time>2019-08-14T14:51:14Z</time>
      </trkpt>
      <trkpt lat="41.3752030" lon="-4.9549240">
        <ele>751.5</ele>
        <time>2019-08-14T14:51:15Z</time>
      </trkpt>
      <trkpt lat="41.3752510" lon="-4.9549870">
        <ele>751.3</ele>
        <time>2019-08-14T14:51:16Z</time>
      </trkpt>
      <trkpt lat="41.3752960" lon="-4.9550490">
        <ele>751.1</ele>
        <time>2019-08-14T14:51:17Z</time>
      </trkpt>
      <trkpt lat="41.3753370" lon="-4.9551110">
        <ele>750.9</ele>
        <time>2019-08-14T14:51:18Z</time>
      </trkpt>
      <trkpt lat="41.3753750" lon="-4.9551730">
        <ele>750.7</ele>
        <time>2019-08-14T14:51:19Z</time>
      </trkpt>
      <trkpt lat="41.3754100" lon="-4.9552360">
        <ele>750.4</ele>
        <time>2019-08-14T14:51:20Z</time>
      </trkpt>
      <trkpt lat="41.3754440" lon="-4.9552970">
        <ele>750.2</ele>
        <time>2019-08-14T14:51:21Z</time>
      </trkpt>
      <trkpt lat="41.3754770" lon="-4.9553610">
        <ele>750.0</ele>
        <time>2019-08-14T14:51:22Z</time>
      </trkpt>
      <trkpt lat="41.3755110" lon="-4.9554270">
        <ele>749.8</ele>
        <time>2019-08-14T14:51:23Z</time>
      </trkpt>
      <trkpt lat="41.3755430" lon="-4.9554950">
        <ele>749.7</ele>
        <time>2019-08-14T14:51:24Z</time>
      </trkpt>
      <trkpt lat="41.3755760" lon="-4.9555660">
        <ele>749.5</ele>
        <time>2019-08-14T14:51:25Z</time>
      </trkpt>
      <trkpt lat="41.3756090" lon="-4.9556390">
        <ele>749.3</ele>
        <time>2019-08-14T14:51:26Z</time>
      </trkpt>
      <trkpt lat="41.3756410" lon="-4.9557110">
        <ele>749.2</ele>
        <time>2019-08-14T14:51:27Z</time>
      </trkpt>
      <trkpt lat="41.3756750" lon="-4.9557820">
        <ele>749.0</ele>
        <time>2019-08-14T14:51:28Z</time>
      </trkpt>
      <trkpt lat="41.3757080" lon="-4.9558530">
        <ele>748.9</ele>
        <time>2019-08-14T14:51:29Z</time>
      </trkpt>
      <trkpt lat="41.3757410" lon="-4.9559220">
        <ele>748.8</ele>
        <time>2019-08-14T14:51:30Z</time>
      </trkpt>
      <trkpt lat="41.3757710" lon="-4.9559890">
        <ele>748.8</ele>
        <time>2019-08-14T14:51:31Z</time>
      </trkpt>
      <trkpt lat="41.3758020" lon="-4.9560540">
        <ele>748.7</ele>
        <time>2019-08-14T14:51:32Z</time>
      </trkpt>
      <trkpt lat="41.3758310" lon="-4.9561160">
        <ele>748.6</ele>
        <time>2019-08-14T14:51:33Z</time>
      </trkpt>
      <trkpt lat="41.3758580" lon="-4.9561770">
        <ele>748.4</ele>
        <time>2019-08-14T14:51:34Z</time>
      </trkpt>
      <trkpt lat="41.3758860" lon="-4.9562370">
        <ele>748.3</ele>
        <time>2019-08-14T14:51:35Z</time>
      </trkpt>
      <trkpt lat="41.3759130" lon="-4.9562960">
        <ele>748.2</ele>
        <time>2019-08-14T14:51:36Z</time>
      </trkpt>
      <trkpt lat="41.3759420" lon="-4.9563520">
        <ele>748.1</ele>
        <time>2019-08-14T14:51:37Z</time>
      </trkpt>
      <trkpt lat="41.3759690" lon="-4.9564050">
        <ele>748.1</ele>
        <time>2019-08-14T14:51:38Z</time>
      </trkpt>
      <trkpt lat="41.3759930" lon="-4.9564600">
        <ele>748.1</ele>
        <time>2019-08-14T14:51:39Z</time>
      </trkpt>
      <trkpt lat="41.3760190" lon="-4.9565140">
        <ele>748.1</ele>
        <time>2019-08-14T14:51:40Z</time>
      </trkpt>
      <trkpt lat="41.3760440" lon="-4.9565640">
        <ele>748.1</ele>
        <time>2019-08-14T14:51:41Z</time>
      </trkpt>
      <trkpt lat="41.3760690" lon="-4.9566130">
        <ele>748.1</ele>
        <time>2019-08-14T14:51:42Z</time>
      </trkpt>
      <trkpt lat="41.3760930" lon="-4.9566620">
        <ele>748.1</ele>
        <time>2019-08-14T14:51:43Z</time>
      </trkpt>
      <trkpt lat="41.3761180" lon="-4.9567120">
        <ele>748.2</ele>
        <time>2019-08-14T14:51:44Z</time>
      </trkpt>
      <trkpt lat="41.3761390" lon="-4.9567610">
        <ele>748.2</ele>
        <time>2019-08-14T14:51:45Z</time>
      </trkpt>
      <trkpt lat="41.3761610" lon="-4.9568070">
        <ele>748.2</ele>
        <time>2019-08-14T14:51:46Z</time>
      </trkpt>
      <trkpt lat="41.3761840" lon="-4.9568500">
        <ele>748.2</ele>
        <time>2019-08-14T14:51:47Z</time>
      </trkpt>
      <trkpt lat="41.3762090" lon="-4.9568950">
        <ele>748.2</ele>
        <time>2019-08-14T14:51:48Z</time>
      </trkpt>
      <trkpt lat="41.3762320" lon="-4.9569400">
        <ele>748.2</ele>
        <time>2019-08-14T14:51:49Z</time>
      </trkpt>
      <trkpt lat="41.3762570" lon="-4.9569880">
        <ele>748.3</ele>
        <time>2019-08-14T14:51:50Z</time>
      </trkpt>
      <trkpt lat="41.3762820" lon="-4.9570360">
        <ele>748.3</ele>
        <time>2019-08-14T14:51:51Z</time>
      </trkpt>
      <trkpt lat="41.3763080" lon="-4.9570870">
        <ele>748.3</ele>
        <time>2019-08-14T14:51:52Z</time>
      </trkpt>
      <trkpt lat="41.3763320" lon="-4.9571370">
        <ele>748.3</ele>
        <time>2019-08-14T14:51:53Z</time>
      </trkpt>
      <trkpt lat="41.3763580" lon="-4.9571860">
        <ele>748.3</ele>
        <time>2019-08-14T14:51:54Z</time>
      </trkpt>
      <trkpt lat="41.3763830" lon="-4.9572330">
        <ele>748.4</ele>
        <time>2019-08-14T14:51:55Z</time>
      </trkpt>
      <trkpt lat="41.3764050" lon="-4.9572770">
        <ele>748.4</ele>
        <time>2019-08-14T14:51:56Z</time>
      </trkpt>
      <trkpt lat="41.3764290" lon="-4.9573210">
        <ele>748.4</ele>
        <time>2019-08-14T14:51:57Z</time>
      </trkpt>
      <trkpt lat="41.3764530" lon="-4.9573660">
        <ele>748.4</ele>
        <time>2019-08-14T14:51:58Z</time>
      </trkpt>
      <trkpt lat="41.3764810" lon="-4.9574120">
        <ele>748.4</ele>
        <time>2019-08-14T14:51:59Z</time>
      </trkpt>
      <trkpt lat="41.3765100" lon="-4.9574600">
        <ele>748.4</ele>
        <time>2019-08-14T14:52:00Z</time>
      </trkpt>
      <trkpt lat="41.3765380" lon="-4.9575090">
        <ele>748.5</ele>
        <time>2019-08-14T14:52:01Z</time>
      </trkpt>
      <trkpt lat="41.3765690" lon="-4.9575590">
        <ele>748.5</ele>
        <time>2019-08-14T14:52:02Z</time>
      </trkpt>
      <trkpt lat="41.3766010" lon="-4.9576060">
        <ele>748.5</ele>
        <time>2019-08-14T14:52:03Z</time>
      </trkpt>
      <trkpt lat="41.3766360" lon="-4.9576540">
        <ele>748.5</ele>
        <time>2019-08-14T14:52:04Z</time>
      </trkpt>
      <trkpt lat="41.3766720" lon="-4.9576990">
        <ele>748.5</ele>
        <time>2019-08-14T14:52:05Z</time>
      </trkpt>
      <trkpt lat="41.3767090" lon="-4.9577430">
        <ele>748.6</ele>
        <time>2019-08-14T14:52:06Z</time>
      </trkpt>
      <trkpt lat="41.3767480" lon="-4.9577860">
        <ele>748.6</ele>
        <time>2019-08-14T14:52:07Z</time>
      </trkpt>
      <trkpt lat="41.3767860" lon="-4.9578260">
        <ele>748.6</ele>
        <time>2019-08-14T14:52:08Z</time>
      </trkpt>
      <trkpt lat="41.3768240" lon="-4.9578650">
        <ele>748.6</ele>
        <time>2019-08-14T14:52:09Z</time>
      </trkpt>
      <trkpt lat="41.3768620" lon="-4.9579020">
        <ele>748.6</ele>
        <time>2019-08-14T14:52:10Z</time>
      </trkpt>
      <trkpt lat="41.3769000" lon="-4.9579400">
        <ele>748.6</ele>
        <time>2019-08-14T14:52:11Z</time>
      </trkpt>
      <trkpt lat="41.3769390" lon="-4.9579750">
        <ele>748.6</ele>
        <time>2019-08-14T14:52:12Z</time>
      </trkpt>
      <trkpt lat="41.3769800" lon="-4.9580110">
        <ele>748.6</ele>
        <time>2019-08-14T14:52:13Z</time>
      </trkpt>
      <trkpt lat="41.3770210" lon="-4.9580470">
        <ele>748.6</ele>
        <time>2019-08-14T14:52:14Z</time>
      </trkpt>
      <trkpt lat="41.3770630" lon="-4.9580830">
        <ele>748.5</ele>
        <time>2019-08-14T14:52:15Z</time>
      </trkpt>
      <trkpt lat="41.3771050" lon="-4.9581200">
        <ele>748.3</ele>
        <time>2019-08-14T14:52:16Z</time>
      </trkpt>
      <trkpt lat="41.3771460" lon="-4.9581600">
        <ele>748.2</ele>
        <time>2019-08-14T14:52:17Z</time>
      </trkpt>
      <trkpt lat="41.3771860" lon="-4.9582040">
        <ele>748.0</ele>
        <time>2019-08-14T14:52:18Z</time>
      </trkpt>
      <trkpt lat="41.3772230" lon="-4.9582540">
        <ele>747.9</ele>
        <time>2019-08-14T14:52:19Z</time>
      </trkpt>
      <trkpt lat="41.3772540" lon="-4.9583090">
        <ele>747.8</ele>
        <time>2019-08-14T14:52:20Z</time>
      </trkpt>
      <trkpt lat="41.3772770" lon="-4.9583690">
        <ele>747.8</ele>
        <time>2019-08-14T14:52:21Z</time>
      </trkpt>
      <trkpt lat="41.3772940" lon="-4.9584300">
        <ele>747.5</ele>
        <time>2019-08-14T14:52:22Z</time>
      </trkpt>
      <trkpt lat="41.3773080" lon="-4.9584900">
        <ele>747.3</ele>
        <time>2019-08-14T14:52:23Z</time>
      </trkpt>
      <trkpt lat="41.3773230" lon="-4.9585490">
        <ele>747.0</ele>
        <time>2019-08-14T14:52:24Z</time>
      </trkpt>
      <trkpt lat="41.3773440" lon="-4.9586070">
        <ele>746.7</ele>
        <time>2019-08-14T14:52:25Z</time>
      </trkpt>
      <trkpt lat="41.3773720" lon="-4.9586610">
        <ele>746.4</ele>
        <time>2019-08-14T14:52:26Z</time>
      </trkpt>
      <trkpt lat="41.3774080" lon="-4.9587060">
        <ele>746.1</ele>
        <time>2019-08-14T14:52:27Z</time>
      </trkpt>
      <trkpt lat="41.3774500" lon="-4.9587350">
        <ele>746.0</ele>
        <time>2019-08-14T14:52:28Z</time>
      </trkpt>
      <trkpt lat="41.3774970" lon="-4.9587510">
        <ele>745.9</ele>
        <time>2019-08-14T14:52:29Z</time>
      </trkpt>
      <trkpt lat="41.3775470" lon="-4.9587570">
        <ele>745.8</ele>
        <time>2019-08-14T14:52:30Z</time>
      </trkpt>
      <trkpt lat="41.3775990" lon="-4.9587600">
        <ele>745.7</ele>
        <time>2019-08-14T14:52:31Z</time>
      </trkpt>
      <trkpt lat="41.3776520" lon="-4.9587620">
        <ele>745.6</ele>
        <time>2019-08-14T14:52:32Z</time>
      </trkpt>
      <trkpt lat="41.3777050" lon="-4.9587660">
        <ele>745.5</ele>
        <time>2019-08-14T14:52:33Z</time>
      </trkpt>
      <trkpt lat="41.3777580" lon="-4.9587690">
        <ele>745.4</ele>
        <time>2019-08-14T14:52:34Z</time>
      </trkpt>
      <trkpt lat="41.3778120" lon="-4.9587740">
        <ele>745.3</ele>
        <time>2019-08-14T14:52:35Z</time>
      </trkpt>
      <trkpt lat="41.3778660" lon="-4.9587770">
        <ele>745.3</ele>
        <time>2019-08-14T14:52:36Z</time>
      </trkpt>
      <trkpt lat="41.3779200" lon="-4.9587800">
        <ele>745.3</ele>
        <time>2019-08-14T14:52:37Z</time>
      </trkpt>
      <trkpt lat="41.3779760" lon="-4.9587820">
        <ele>745.2</ele>
        <time>2019-08-14T14:52:38Z</time>
      </trkpt>
      <trkpt lat="41.3780320" lon="-4.9587840">
        <ele>745.2</ele>
        <time>2019-08-14T14:52:39Z</time>
      </trkpt>
      <trkpt lat="41.3780890" lon="-4.9587880">
        <ele>745.2</ele>
        <time>2019-08-14T14:52:40Z</time>
      </trkpt>
      <trkpt lat="41.3781460" lon="-4.9587930">
        <ele>745.2</ele>
        <time>2019-08-14T14:52:41Z</time>
      </trkpt>
      <trkpt lat="41.3782020" lon="-4.9587960">
        <ele>745.2</ele>
        <time>2019-08-14T14:52:42Z</time>
      </trkpt>
      <trkpt lat="41.3782590" lon="-4.9588000">
        <ele>745.1</ele>
        <time>2019-08-14T14:52:43Z</time>
      </trkpt>
      <trkpt lat="41.3783170" lon="-4.9588040">
        <ele>745.1</ele>
        <time>2019-08-14T14:52:44Z</time>
      </trkpt>
      <trkpt lat="41.3783770" lon="-4.9588090">
        <ele>745.1</ele>
        <time>2019-08-14T14:52:45Z</time>
      </trkpt>
      <trkpt lat="41.3784390" lon="-4.9588120">
        <ele>745.0</ele>
        <time>2019-08-14T14:52:46Z</time>
      </trkpt>
      <trkpt lat="41.3785020" lon="-4.9588150">
        <ele>745.0</ele>
        <time>2019-08-14T14:52:47Z</time>
      </trkpt>
      <trkpt lat="41.3785660" lon="-4.9588200">
        <ele>744.9</ele>
        <time>2019-08-14T14:52:48Z</time>
      </trkpt>
      <trkpt lat="41.3786300" lon="-4.9588270">
        <ele>744.9</ele>
        <time>2019-08-14T14:52:49Z</time>
      </trkpt>
      <trkpt lat="41.3786940" lon="-4.9588330">
        <ele>744.9</ele>
        <time>2019-08-14T14:52:50Z</time>
      </trkpt>
      <trkpt lat="41.3787580" lon="-4.9588370">
        <ele>744.8</ele>
        <time>2019-08-14T14:52:51Z</time>
      </trkpt>
      <trkpt lat="41.3788230" lon="-4.9588400">
        <ele>744.8</ele>
        <time>2019-08-14T14:52:52Z</time>
      </trkpt>
      <trkpt lat="41.3788850" lon="-4.9588460">
        <ele>744.7</ele>
        <time>2019-08-14T14:52:53Z</time>
      </trkpt>
      <trkpt lat="41.3789490" lon="-4.9588520">
        <ele>744.7</ele>
        <time>2019-08-14T14:52:54Z</time>
      </trkpt>
      <trkpt lat="41.3790120" lon="-4.9588580">
        <ele>744.7</ele>
        <time>2019-08-14T14:52:55Z</time>
      </trkpt>
      <trkpt lat="41.3790750" lon="-4.9588650">
        <ele>744.6</ele>
        <time>2019-08-14T14:52:56Z</time>
      </trkpt>
      <trkpt lat="41.3791370" lon="-4.9588700">
        <ele>744.6</ele>
        <time>2019-08-14T14:52:57Z</time>
      </trkpt>
      <trkpt lat="41.3791990" lon="-4.9588740">
        <ele>744.5</ele>
        <time>2019-08-14T14:52:58Z</time>
      </trkpt>
      <trkpt lat="41.3792600" lon="-4.9588790">
        <ele>744.5</ele>
        <time>2019-08-14T14:52:59Z</time>
      </trkpt>
      <trkpt lat="41.3793210" lon="-4.9588840">
        <ele>744.5</ele>
        <time>2019-08-14T14:53:00Z</time>
      </trkpt>
      <trkpt lat="41.3793820" lon="-4.9588910">
        <ele>744.4</ele>
        <time>2019-08-14T14:53:01Z</time>
      </trkpt>
      <trkpt lat="41.3794410" lon="-4.9589010">
        <ele>744.4</ele>
        <time>2019-08-14T14:53:02Z</time>
      </trkpt>
      <trkpt lat="41.3795010" lon="-4.9589110">
        <ele>744.4</ele>
        <time>2019-08-14T14:53:03Z</time>
      </trkpt>
      <trkpt lat="41.3795600" lon="-4.9589200">
        <ele>744.3</ele>
        <time>2019-08-14T14:53:04Z</time>
      </trkpt>
      <trkpt lat="41.3796200" lon="-4.9589260">
        <ele>744.3</ele>
        <time>2019-08-14T14:53:05Z</time>
      </trkpt>
      <trkpt lat="41.3796810" lon="-4.9589260">
        <ele>744.3</ele>
        <time>2019-08-14T14:53:06Z</time>
      </trkpt>
      <trkpt lat="41.3797410" lon="-4.9589270">
        <ele>744.2</ele>
        <time>2019-08-14T14:53:07Z</time>
      </trkpt>
      <trkpt lat="41.3798000" lon="-4.9589290">
        <ele>744.2</ele>
        <time>2019-08-14T14:53:08Z</time>
      </trkpt>
      <trkpt lat="41.3798590" lon="-4.9589340">
        <ele>744.2</ele>
        <time>2019-08-14T14:53:09Z</time>
      </trkpt>
      <trkpt lat="41.3799190" lon="-4.9589390">
        <ele>744.2</ele>
        <time>2019-08-14T14:53:10Z</time>
      </trkpt>
      <trkpt lat="41.3799800" lon="-4.9589440">
        <ele>744.2</ele>
        <time>2019-08-14T14:53:11Z</time>
      </trkpt>
      <trkpt lat="41.3800420" lon="-4.9589480">
        <ele>744.2</ele>
        <time>2019-08-14T14:53:12Z</time>
      </trkpt>
      <trkpt lat="41.3801040" lon="-4.9589510">
        <ele>744.2</ele>
        <time>2019-08-14T14:53:13Z</time>
      </trkpt>
      <trkpt lat="41.3801670" lon="-4.9589550">
        <ele>744.1</ele>
        <time>2019-08-14T14:53:14Z</time>
      </trkpt>
      <trkpt lat="41.3802300" lon="-4.9589600">
        <ele>744.1</ele>
        <time>2019-08-14T14:53:15Z</time>
      </trkpt>
      <trkpt lat="41.3802940" lon="-4.9589640">
        <ele>744.1</ele>
        <time>2019-08-14T14:53:16Z</time>
      </trkpt>
      <trkpt lat="41.3803570" lon="-4.9589670">
        <ele>744.0</ele>
        <time>2019-08-14T14:53:17Z</time>
      </trkpt>
      <trkpt lat="41.3804200" lon="-4.9589680">
        <ele>744.0</ele>
        <time>2019-08-14T14:53:18Z</time>
      </trkpt>
      <trkpt lat="41.3804830" lon="-4.9589710">
        <ele>743.9</ele>
        <time>2019-08-14T14:53:19Z</time>
      </trkpt>
      <trkpt lat="41.3805470" lon="-4.9589750">
        <ele>743.9</ele>
        <time>2019-08-14T14:53:20Z</time>
      </trkpt>
      <trkpt lat="41.3806100" lon="-4.9589800">
        <ele>743.8</ele>
        <time>2019-08-14T14:53:21Z</time>
      </trkpt>
      <trkpt lat="41.3806740" lon="-4.9589820">
        <ele>743.7</ele>
        <time>2019-08-14T14:53:22Z</time>
      </trkpt>
      <trkpt lat="41.3807360" lon="-4.9589870">
        <ele>743.6</ele>
        <time>2019-08-14T14:53:23Z</time>
      </trkpt>
      <trkpt lat="41.3808000" lon="-4.9589920">
        <ele>743.5</ele>
        <time>2019-08-14T14:53:24Z</time>
      </trkpt>
      <trkpt lat="41.3808620" lon="-4.9589980">
        <ele>743.5</ele>
        <time>2019-08-14T14:53:25Z</time>
      </trkpt>
      <trkpt lat="41.3809250" lon="-4.9590050">
        <ele>743.4</ele>
        <time>2019-08-14T14:53:26Z</time>
      </trkpt>
      <trkpt lat="41.3809860" lon="-4.9590130">
        <ele>743.3</ele>
        <time>2019-08-14T14:53:27Z</time>
      </trkpt>
      <trkpt lat="41.3810470" lon="-4.9590200">
        <ele>743.3</ele>
        <time>2019-08-14T14:53:28Z</time>
      </trkpt>
      <trkpt lat="41.3811080" lon="-4.9590250">
        <ele>743.2</ele>
        <time>2019-08-14T14:53:29Z</time>
      </trkpt>
      <trkpt lat="41.3811680" lon="-4.9590280">
        <ele>743.2</ele>
        <time>2019-08-14T14:53:30Z</time>
      </trkpt>
      <trkpt lat="41.3812280" lon="-4.9590320">
        <ele>743.1</ele>
        <time>2019-08-14T14:53:31Z</time>
      </trkpt>
      <trkpt lat="41.3812870" lon="-4.9590350">
        <ele>743.1</ele>
        <time>2019-08-14T14:53:32Z</time>
      </trkpt>
      <trkpt lat="41.3813450" lon="-4.9590370">
        <ele>743.0</ele>
        <time>2019-08-14T14:53:33Z</time>
      </trkpt>
      <trkpt lat="41.3814040" lon="-4.9590410">
        <ele>743.0</ele>
        <time>2019-08-14T14:53:34Z</time>
      </trkpt>
      <trkpt lat="41.3814620" lon="-4.9590470">
        <ele>742.9</ele>
        <time>2019-08-14T14:53:35Z</time>
      </trkpt>
      <trkpt lat="41.3815190" lon="-4.9590540">
        <ele>742.8</ele>
        <time>2019-08-14T14:53:36Z</time>
      </trkpt>
      <trkpt lat="41.3815760" lon="-4.9590610">
        <ele>742.8</ele>
        <time>2019-08-14T14:53:37Z</time>
      </trkpt>
      <trkpt lat="41.3816320" lon="-4.9590700">
        <ele>742.7</ele>
        <time>2019-08-14T14:53:38Z</time>
      </trkpt>
      <trkpt lat="41.3816880" lon="-4.9590780">
        <ele>742.7</ele>
        <time>2019-08-14T14:53:39Z</time>
      </trkpt>
      <trkpt lat="41.3817430" lon="-4.9590840">
        <ele>742.6</ele>
        <time>2019-08-14T14:53:40Z</time>
      </trkpt>
      <trkpt lat="41.3817990" lon="-4.9590890">
        <ele>742.6</ele>
        <time>2019-08-14T14:53:41Z</time>
      </trkpt>
      <trkpt lat="41.3818550" lon="-4.9590930">
        <ele>742.6</ele>
        <time>2019-08-14T14:53:42Z</time>
      </trkpt>
      <trkpt lat="41.3819110" lon="-4.9590970">
        <ele>742.5</ele>
        <time>2019-08-14T14:53:43Z</time>
      </trkpt>
      <trkpt lat="41.3819680" lon="-4.9591030">
        <ele>742.5</ele>
        <time>2019-08-14T14:53:44Z</time>
      </trkpt>
      <trkpt lat="41.3820260" lon="-4.9591080">
        <ele>742.4</ele>
        <time>2019-08-14T14:53:45Z</time>
      </trkpt>
      <trkpt lat="41.3820830" lon="-4.9591120">
        <ele>742.4</ele>
        <time>2019-08-14T14:53:46Z</time>
      </trkpt>
      <trkpt lat="41.3821410" lon="-4.9591180">
        <ele>742.4</ele>
        <time>2019-08-14T14:53:47Z</time>
      </trkpt>
      <trkpt lat="41.3822000" lon="-4.9591210">
        <ele>742.3</ele>
        <time>2019-08-14T14:53:48Z</time>
      </trkpt>
      <trkpt lat="41.3822580" lon="-4.9591250">
        <ele>742.3</ele>
        <time>2019-08-14T14:53:49Z</time>
      </trkpt>
      <trkpt lat="41.3823160" lon="-4.9591310">
        <ele>742.3</ele>
        <time>2019-08-14T14:53:50Z</time>
      </trkpt>
      <trkpt lat="41.3823750" lon="-4.9591350">
        <ele>742.2</ele>
        <time>2019-08-14T14:53:51Z</time>
      </trkpt>
      <trkpt lat="41.3824350" lon="-4.9591410">
        <ele>742.2</ele>
        <time>2019-08-14T14:53:52Z</time>
      </trkpt>
      <trkpt lat="41.3824950" lon="-4.9591460">
        <ele>742.2</ele>
        <time>2019-08-14T14:53:53Z</time>
      </trkpt>
      <trkpt lat="41.3825550" lon="-4.9591510">
        <ele>742.1</ele>
        <time>2019-08-14T14:53:54Z</time>
      </trkpt>
      <trkpt lat="41.3826140" lon="-4.9591550">
        <ele>742.1</ele>
        <time>2019-08-14T14:53:55Z</time>
      </trkpt>
      <trkpt lat="41.3826720" lon="-4.9591620">
        <ele>742.1</ele>
        <time>2019-08-14T14:53:56Z</time>
      </trkpt>
      <trkpt lat="41.3827300" lon="-4.9591700">
        <ele>742.0</ele>
        <time>2019-08-14T14:53:57Z</time>
      </trkpt>
      <trkpt lat="41.3827890" lon="-4.9591770">
        <ele>742.0</ele>
        <time>2019-08-14T14:53:58Z</time>
      </trkpt>
      <trkpt lat="41.3828500" lon="-4.9591830">
        <ele>742.0</ele>
        <time>2019-08-14T14:53:59Z</time>
      </trkpt>
      <trkpt lat="41.3829090" lon="-4.9591880">
        <ele>742.0</ele>
        <time>2019-08-14T14:54:00Z</time>
      </trkpt>
      <trkpt lat="41.3829660" lon="-4.9591930">
        <ele>742.0</ele>
        <time>2019-08-14T14:54:01Z</time>
      </trkpt>
      <trkpt lat="41.3830230" lon="-4.9591980">
        <ele>741.9</ele>
        <time>2019-08-14T14:54:02Z</time>
      </trkpt>
      <trkpt lat="41.3830790" lon="-4.9592030">
        <ele>741.9</ele>
        <time>2019-08-14T14:54:03Z</time>
      </trkpt>
      <trkpt lat="41.3831350" lon="-4.9592070">
        <ele>741.9</ele>
        <time>2019-08-14T14:54:04Z</time>
      </trkpt>
      <trkpt lat="41.3831920" lon="-4.9592110">
        <ele>741.9</ele>
        <time>2019-08-14T14:54:05Z</time>
      </trkpt>
      <trkpt lat="41.3832490" lon="-4.9592160">
        <ele>741.8</ele>
        <time>2019-08-14T14:54:06Z</time>
      </trkpt>
      <trkpt lat="41.3833060" lon="-4.9592190">
        <ele>741.8</ele>
        <time>2019-08-14T14:54:07Z</time>
      </trkpt>
      <trkpt lat="41.3833610" lon="-4.9592210">
        <ele>741.8</ele>
        <time>2019-08-14T14:54:08Z</time>
      </trkpt>
      <trkpt lat="41.3834160" lon="-4.9592240">
        <ele>741.8</ele>
        <time>2019-08-14T14:54:09Z</time>
      </trkpt>
      <trkpt lat="41.3834720" lon="-4.9592280">
        <ele>741.7</ele>
        <time>2019-08-14T14:54:10Z</time>
      </trkpt>
      <trkpt lat="41.3835280" lon="-4.9592330">
        <ele>741.7</ele>
        <time>2019-08-14T14:54:11Z</time>
      </trkpt>
      <trkpt lat="41.3835840" lon="-4.9592370">
        <ele>741.7</ele>
        <time>2019-08-14T14:54:12Z</time>
      </trkpt>
      <trkpt lat="41.3836410" lon="-4.9592400">
        <ele>741.6</ele>
        <time>2019-08-14T14:54:13Z</time>
      </trkpt>
      <trkpt lat="41.3836960" lon="-4.9592450">
        <ele>741.6</ele>
        <time>2019-08-14T14:54:14Z</time>
      </trkpt>
      <trkpt lat="41.3837520" lon="-4.9592510">
        <ele>741.6</ele>
        <time>2019-08-14T14:54:15Z</time>
      </trkpt>
      <trkpt lat="41.3838080" lon="-4.9592560">
        <ele>741.5</ele>
        <time>2019-08-14T14:54:16Z</time>
      </trkpt>
      <trkpt lat="41.3838650" lon="-4.9592610">
        <ele>741.5</ele>
        <time>2019-08-14T14:54:17Z</time>
      </trkpt>
      <trkpt lat="41.3839210" lon="-4.9592650">
        <ele>741.4</ele>
        <time>2019-08-14T14:54:18Z</time>
      </trkpt>
      <trkpt lat="41.3839780" lon="-4.9592690">
        <ele>741.4</ele>
        <time>2019-08-14T14:54:19Z</time>
      </trkpt>
      <trkpt lat="41.3840350" lon="-4.9592730">
        <ele>741.4</ele>
        <time>2019-08-14T14:54:20Z</time>
      </trkpt>
      <trkpt lat="41.3840930" lon="-4.9592780">
        <ele>741.3</ele>
        <time>2019-08-14T14:54:21Z</time>
      </trkpt>
      <trkpt lat="41.3841500" lon="-4.9592840">
        <ele>741.3</ele>
        <time>2019-08-14T14:54:22Z</time>
      </trkpt>
      <trkpt lat="41.3842080" lon="-4.9592900">
        <ele>741.2</ele>
        <time>2019-08-14T14:54:23Z</time>
      </trkpt>
      <trkpt lat="41.3842660" lon="-4.9592950">
        <ele>741.2</ele>
        <time>2019-08-14T14:54:24Z</time>
      </trkpt>
      <trkpt lat="41.3843250" lon="-4.9593000">
        <ele>741.2</ele>
        <time>2019-08-14T14:54:25Z</time>
      </trkpt>
      <trkpt lat="41.3843830" lon="-4.9593060">
        <ele>741.2</ele>
        <time>2019-08-14T14:54:26Z</time>
      </trkpt>
      <trkpt lat="41.3844410" lon="-4.9593120">
        <ele>741.2</ele>
        <time>2019-08-14T14:54:27Z</time>
      </trkpt>
      <trkpt lat="41.3845000" lon="-4.9593180">
        <ele>741.2</ele>
        <time>2019-08-14T14:54:28Z</time>
      </trkpt>
      <trkpt lat="41.3845590" lon="-4.9593230">
        <ele>741.2</ele>
        <time>2019-08-14T14:54:29Z</time>
      </trkpt>
      <trkpt lat="41.3846170" lon="-4.9593290">
        <ele>741.1</ele>
        <time>2019-08-14T14:54:30Z</time>
      </trkpt>
      <trkpt lat="41.3846750" lon="-4.9593340">
        <ele>741.1</ele>
        <time>2019-08-14T14:54:31Z</time>
      </trkpt>
      <trkpt lat="41.3847320" lon="-4.9593390">
        <ele>741.1</ele>
        <time>2019-08-14T14:54:32Z</time>
      </trkpt>
      <trkpt lat="41.3847900" lon="-4.9593430">
        <ele>741.1</ele>
        <time>2019-08-14T14:54:33Z</time>
      </trkpt>
      <trkpt lat="41.3848490" lon="-4.9593480">
        <ele>741.1</ele>
        <time>2019-08-14T14:54:34Z</time>
      </trkpt>
      <trkpt lat="41.3849080" lon="-4.9593520">
        <ele>741.1</ele>
        <time>2019-08-14T14:54:35Z</time>
      </trkpt>
      <trkpt lat="41.3849670" lon="-4.9593590">
        <ele>741.0</ele>
        <time>2019-08-14T14:54:36Z</time>
      </trkpt>
      <trkpt lat="41.3850250" lon="-4.9593650">
        <ele>741.0</ele>
        <time>2019-08-14T14:54:37Z</time>
      </trkpt>
      <trkpt lat="41.3850830" lon="-4.9593700">
        <ele>741.0</ele>
        <time>2019-08-14T14:54:38Z</time>
      </trkpt>
      <trkpt lat="41.3851420" lon="-4.9593740">
        <ele>740.9</ele>
        <time>2019-08-14T14:54:39Z</time>
      </trkpt>
      <trkpt lat="41.3852020" lon="-4.9593790">
        <ele>740.9</ele>
        <time>2019-08-14T14:54:40Z</time>
      </trkpt>
      <trkpt lat="41.3852620" lon="-4.9593850">
        <ele>740.8</ele>
        <time>2019-08-14T14:54:41Z</time>
      </trkpt>
      <trkpt lat="41.3853230" lon="-4.9593900">
        <ele>740.8</ele>
        <time>2019-08-14T14:54:42Z</time>
      </trkpt>
      <trkpt lat="41.3853850" lon="-4.9593960">
        <ele>740.8</ele>
        <time>2019-08-14T14:54:43Z</time>
      </trkpt>
      <trkpt lat="41.3854470" lon="-4.9594040">
        <ele>740.7</ele>
        <time>2019-08-14T14:54:44Z</time>
      </trkpt>
      <trkpt lat="41.3855070" lon="-4.9594110">
        <ele>740.7</ele>
        <time>2019-08-14T14:54:45Z</time>
      </trkpt>
      <trkpt lat="41.3855650" lon="-4.9594180">
        <ele>740.6</ele>
        <time>2019-08-14T14:54:46Z</time>
      </trkpt>
      <trkpt lat="41.3856250" lon="-4.9594240">
        <ele>740.6</ele>
        <time>2019-08-14T14:54:47Z</time>
      </trkpt>
      <trkpt lat="41.3856850" lon="-4.9594290">
        <ele>740.6</ele>
        <time>2019-08-14T14:54:48Z</time>
      </trkpt>
      <trkpt lat="41.3857440" lon="-4.9594360">
        <ele>740.6</ele>
        <time>2019-08-14T14:54:49Z</time>
      </trkpt>
      <trkpt lat="41.3858030" lon="-4.9594430">
        <ele>740.6</ele>
        <time>2019-08-14T14:54:50Z</time>
      </trkpt>
      <trkpt lat="41.3858610" lon="-4.9594480">
        <ele>740.5</ele>
        <time>2019-08-14T14:54:51Z</time>
      </trkpt>
      <trkpt lat="41.3859200" lon="-4.9594530">
        <ele>740.5</ele>
        <time>2019-08-14T14:54:52Z</time>
      </trkpt>
      <trkpt lat="41.3859810" lon="-4.9594580">
        <ele>740.5</ele>
        <time>2019-08-14T14:54:53Z</time>
      </trkpt>
      <trkpt lat="41.3860400" lon="-4.9594650">
        <ele>740.5</ele>
        <time>2019-08-14T14:54:54Z</time>
      </trkpt>
      <trkpt lat="41.3861000" lon="-4.9594720">
        <ele>740.4</ele>
        <time>2019-08-14T14:54:55Z</time>
      </trkpt>
      <trkpt lat="41.3861610" lon="-4.9594760">
        <ele>740.4</ele>
        <time>2019-08-14T14:54:56Z</time>
      </trkpt>
      <trkpt lat="41.3862210" lon="-4.9594830">
        <ele>740.3</ele>
        <time>2019-08-14T14:54:57Z</time>
      </trkpt>
      <trkpt lat="41.3862800" lon="-4.9594900">
        <ele>740.3</ele>
        <time>2019-08-14T14:54:58Z</time>
      </trkpt>
      <trkpt lat="41.3863400" lon="-4.9594960">
        <ele>740.3</ele>
        <time>2019-08-14T14:54:59Z</time>
      </trkpt>
      <trkpt lat="41.3864010" lon="-4.9595030">
        <ele>740.2</ele>
        <time>2019-08-14T14:55:00Z</time>
      </trkpt>
      <trkpt lat="41.3864620" lon="-4.9595100">
        <ele>740.2</ele>
        <time>2019-08-14T14:55:01Z</time>
      </trkpt>
      <trkpt lat="41.3865220" lon="-4.9595180">
        <ele>740.1</ele>
        <time>2019-08-14T14:55:02Z</time>
      </trkpt>
      <trkpt lat="41.3865830" lon="-4.9595240">
        <ele>740.1</ele>
        <time>2019-08-14T14:55:03Z</time>
      </trkpt>
      <trkpt lat="41.3866450" lon="-4.9595320">
        <ele>740.1</ele>
        <time>2019-08-14T14:55:04Z</time>
      </trkpt>
      <trkpt lat="41.3867060" lon="-4.9595380">
        <ele>740.0</ele>
        <time>2019-08-14T14:55:05Z</time>
      </trkpt>
      <trkpt lat="41.3867650" lon="-4.9595460">
        <ele>740.0</ele>
        <time>2019-08-14T14:55:06Z</time>
      </trkpt>
      <trkpt lat="41.3868250" lon="-4.9595540">
        <ele>740.0</ele>
        <time>2019-08-14T14:55:07Z</time>
      </trkpt>
      <trkpt lat="41.3868850" lon="-4.9595610">
        <ele>739.9</ele>
        <time>2019-08-14T14:55:08Z</time>
      </trkpt>
      <trkpt lat="41.3869460" lon="-4.9595680">
        <ele>739.9</ele>
        <time>2019-08-14T14:55:09Z</time>
      </trkpt>
      <trkpt lat="41.3870070" lon="-4.9595750">
        <ele>739.9</ele>
        <time>2019-08-14T14:55:10Z</time>
      </trkpt>
      <trkpt lat="41.3870690" lon="-4.9595810">
        <ele>739.8</ele>
        <time>2019-08-14T14:55:11Z</time>
      </trkpt>
      <trkpt lat="41.3871320" lon="-4.9595880">
        <ele>739.8</ele>
        <time>2019-08-14T14:55:12Z</time>
      </trkpt>
      <trkpt lat="41.3871940" lon="-4.9595950">
        <ele>739.7</ele>
        <time>2019-08-14T14:55:13Z</time>
      </trkpt>
      <trkpt lat="41.3872570" lon="-4.9596030">
        <ele>739.7</ele>
        <time>2019-08-14T14:55:14Z</time>
      </trkpt>
      <trkpt lat="41.3873180" lon="-4.9596100">
        <ele>739.6</ele>
        <time>2019-08-14T14:55:15Z</time>
      </trkpt>
      <trkpt lat="41.3873790" lon="-4.9596170">
        <ele>739.5</ele>
        <time>2019-08-14T14:55:16Z</time>
      </trkpt>
      <trkpt lat="41.3874390" lon="-4.9596230">
        <ele>739.4</ele>
        <time>2019-08-14T14:55:17Z</time>
      </trkpt>
      <trkpt lat="41.3875000" lon="-4.9596290">
        <ele>739.4</ele>
        <time>2019-08-14T14:55:18Z</time>
      </trkpt>
      <trkpt lat="41.3875630" lon="-4.9596350">
        <ele>739.3</ele>
        <time>2019-08-14T14:55:19Z</time>
      </trkpt>
      <trkpt lat="41.3876260" lon="-4.9596410">
        <ele>739.2</ele>
        <time>2019-08-14T14:55:20Z</time>
      </trkpt>
      <trkpt lat="41.3876910" lon="-4.9596470">
        <ele>739.1</ele>
        <time>2019-08-14T14:55:21Z</time>
      </trkpt>
      <trkpt lat="41.3877560" lon="-4.9596540">
        <ele>739.1</ele>
        <time>2019-08-14T14:55:22Z</time>
      </trkpt>
      <trkpt lat="41.3878210" lon="-4.9596630">
        <ele>739.0</ele>
        <time>2019-08-14T14:55:23Z</time>
      </trkpt>
      <trkpt lat="41.3878860" lon="-4.9596710">
        <ele>739.0</ele>
        <time>2019-08-14T14:55:24Z</time>
      </trkpt>
      <trkpt lat="41.3879490" lon="-4.9596800">
        <ele>738.9</ele>
        <time>2019-08-14T14:55:25Z</time>
      </trkpt>
      <trkpt lat="41.3880160" lon="-4.9596870">
        <ele>738.9</ele>
        <time>2019-08-14T14:55:26Z</time>
      </trkpt>
      <trkpt lat="41.3880820" lon="-4.9596950">
        <ele>738.8</ele>
        <time>2019-08-14T14:55:27Z</time>
      </trkpt>
      <trkpt lat="41.3881490" lon="-4.9597010">
        <ele>738.8</ele>
        <time>2019-08-14T14:55:28Z</time>
      </trkpt>
      <trkpt lat="41.3882160" lon="-4.9597070">
        <ele>738.7</ele>
        <time>2019-08-14T14:55:29Z</time>
      </trkpt>
      <trkpt lat="41.3882810" lon="-4.9597140">
        <ele>738.7</ele>
        <time>2019-08-14T14:55:30Z</time>
      </trkpt>
      <trkpt lat="41.3883460" lon="-4.9597210">
        <ele>738.6</ele>
        <time>2019-08-14T14:55:31Z</time>
      </trkpt>
      <trkpt lat="41.3884110" lon="-4.9597290">
        <ele>738.5</ele>
        <time>2019-08-14T14:55:32Z</time>
      </trkpt>
      <trkpt lat="41.3884760" lon="-4.9597370">
        <ele>738.5</ele>
        <time>2019-08-14T14:55:33Z</time>
      </trkpt>
      <trkpt lat="41.3885410" lon="-4.9597440">
        <ele>738.4</ele>
        <time>2019-08-14T14:55:34Z</time>
      </trkpt>
      <trkpt lat="41.3886070" lon="-4.9597520">
        <ele>738.3</ele>
        <time>2019-08-14T14:55:35Z</time>
      </trkpt>
      <trkpt lat="41.3886720" lon="-4.9597590">
        <ele>738.2</ele>
        <time>2019-08-14T14:55:36Z</time>
      </trkpt>
      <trkpt lat="41.3887390" lon="-4.9597670">
        <ele>738.1</ele>
        <time>2019-08-14T14:55:37Z</time>
      </trkpt>
      <trkpt lat="41.3888040" lon="-4.9597740">
        <ele>738.0</ele>
        <time>2019-08-14T14:55:38Z</time>
      </trkpt>
      <trkpt lat="41.3888660" lon="-4.9597810">
        <ele>738.0</ele>
        <time>2019-08-14T14:55:39Z</time>
      </trkpt>
      <trkpt lat="41.3889290" lon="-4.9597870">
        <ele>737.9</ele>
        <time>2019-08-14T14:55:40Z</time>
      </trkpt>
      <trkpt lat="41.3889930" lon="-4.9597930">
        <ele>737.9</ele>
        <time>2019-08-14T14:55:41Z</time>
      </trkpt>
      <trkpt lat="41.3890570" lon="-4.9598000">
        <ele>737.8</ele>
        <time>2019-08-14T14:55:42Z</time>
      </trkpt>
      <trkpt lat="41.3891200" lon="-4.9598060">
        <ele>737.7</ele>
        <time>2019-08-14T14:55:43Z</time>
      </trkpt>
      <trkpt lat="41.3891840" lon="-4.9598110">
        <ele>737.7</ele>
        <time>2019-08-14T14:55:44Z</time>
      </trkpt>
      <trkpt lat="41.3892460" lon="-4.9598170">
        <ele>737.6</ele>
        <time>2019-08-14T14:55:45Z</time>
      </trkpt>
      <trkpt lat="41.3893060" lon="-4.9598220">
        <ele>737.6</ele>
        <time>2019-08-14T14:55:46Z</time>
      </trkpt>
      <trkpt lat="41.3893660" lon="-4.9598290">
        <ele>737.5</ele>
        <time>2019-08-14T14:55:47Z</time>
      </trkpt>
      <trkpt lat="41.3894270" lon="-4.9598370">
        <ele>737.4</ele>
        <time>2019-08-14T14:55:48Z</time>
      </trkpt>
      <trkpt lat="41.3894880" lon="-4.9598440">
        <ele>737.4</ele>
        <time>2019-08-14T14:55:49Z</time>
      </trkpt>
      <trkpt lat="41.3895510" lon="-4.9598520">
        <ele>737.4</ele>
        <time>2019-08-14T14:55:50Z</time>
      </trkpt>
      <trkpt lat="41.3896130" lon="-4.9598590">
        <ele>737.3</ele>
        <time>2019-08-14T14:55:51Z</time>
      </trkpt>
      <trkpt lat="41.3896740" lon="-4.9598660">
        <ele>737.3</ele>
        <time>2019-08-14T14:55:52Z</time>
      </trkpt>
      <trkpt lat="41.3897360" lon="-4.9598730">
        <ele>737.3</ele>
        <time>2019-08-14T14:55:53Z</time>
      </trkpt>
      <trkpt lat="41.3897980" lon="-4.9598800">
        <ele>737.2</ele>
        <time>2019-08-14T14:55:54Z</time>
      </trkpt>
      <trkpt lat="41.3898610" lon="-4.9598890">
        <ele>737.2</ele>
        <time>2019-08-14T14:55:55Z</time>
      </trkpt>
      <trkpt lat="41.3899220" lon="-4.9598980">
        <ele>737.2</ele>
        <time>2019-08-14T14:55:56Z</time>
      </trkpt>
      <trkpt lat="41.3899830" lon="-4.9599030">
        <ele>737.1</ele>
        <time>2019-08-14T14:55:57Z</time>
      </trkpt>
      <trkpt lat="41.3900430" lon="-4.9599100">
        <ele>737.1</ele>
        <time>2019-08-14T14:55:58Z</time>
      </trkpt>
      <trkpt lat="41.3901030" lon="-4.9599160">
        <ele>737.1</ele>
        <time>2019-08-14T14:55:59Z</time>
      </trkpt>
      <trkpt lat="41.3901640" lon="-4.9599230">
        <ele>737.1</ele>
        <time>2019-08-14T14:56:00Z</time>
      </trkpt>
      <trkpt lat="41.3902250" lon="-4.9599300">
        <ele>737.1</ele>
        <time>2019-08-14T14:56:01Z</time>
      </trkpt>
      <trkpt lat="41.3902860" lon="-4.9599380">
        <ele>737.0</ele>
        <time>2019-08-14T14:56:02Z</time>
      </trkpt>
      <trkpt lat="41.3903470" lon="-4.9599450">
        <ele>737.0</ele>
        <time>2019-08-14T14:56:03Z</time>
      </trkpt>
      <trkpt lat="41.3904080" lon="-4.9599500">
        <ele>736.9</ele>
        <time>2019-08-14T14:56:04Z</time>
      </trkpt>
      <trkpt lat="41.3904700" lon="-4.9599560">
        <ele>736.8</ele>
        <time>2019-08-14T14:56:05Z</time>
      </trkpt>
      <trkpt lat="41.3905330" lon="-4.9599610">
        <ele>736.7</ele>
        <time>2019-08-14T14:56:06Z</time>
      </trkpt>
      <trkpt lat="41.3905970" lon="-4.9599670">
        <ele>736.6</ele>
        <time>2019-08-14T14:56:07Z</time>
      </trkpt>
      <trkpt lat="41.3906610" lon="-4.9599720">
        <ele>736.5</ele>
        <time>2019-08-14T14:56:08Z</time>
      </trkpt>
      <trkpt lat="41.3907240" lon="-4.9599760">
        <ele>736.5</ele>
        <time>2019-08-14T14:56:09Z</time>
      </trkpt>
      <trkpt lat="41.3907880" lon="-4.9599820">
        <ele>736.4</ele>
        <time>2019-08-14T14:56:10Z</time>
      </trkpt>
      <trkpt lat="41.3908520" lon="-4.9599870">
        <ele>736.4</ele>
        <time>2019-08-14T14:56:11Z</time>
      </trkpt>
      <trkpt lat="41.3909180" lon="-4.9599890">
        <ele>736.3</ele>
        <time>2019-08-14T14:56:12Z</time>
      </trkpt>
      <trkpt lat="41.3909830" lon="-4.9599910">
        <ele>736.3</ele>
        <time>2019-08-14T14:56:13Z</time>
      </trkpt>
      <trkpt lat="41.3910500" lon="-4.9599920">
        <ele>736.3</ele>
        <time>2019-08-14T14:56:14Z</time>
      </trkpt>
      <trkpt lat="41.3911170" lon="-4.9599930">
        <ele>736.2</ele>
        <time>2019-08-14T14:56:15Z</time>
      </trkpt>
      <trkpt lat="41.3911850" lon="-4.9599950">
        <ele>736.2</ele>
        <time>2019-08-14T14:56:16Z</time>
      </trkpt>
      <trkpt lat="41.3912520" lon="-4.9599960">
        <ele>736.1</ele>
        <time>2019-08-14T14:56:17Z</time>
      </trkpt>
      <trkpt lat="41.3913200" lon="-4.9599950">
        <ele>736.1</ele>
        <time>2019-08-14T14:56:18Z</time>
      </trkpt>
      <trkpt lat="41.3913890" lon="-4.9599930">
        <ele>736.0</ele>
        <time>2019-08-14T14:56:19Z</time>
      </trkpt>
      <trkpt lat="41.3914580" lon="-4.9599910">
        <ele>736.0</ele>
        <time>2019-08-14T14:56:20Z</time>
      </trkpt>
      <trkpt lat="41.3915270" lon="-4.9599900">
        <ele>736.0</ele>
        <time>2019-08-14T14:56:21Z</time>
      </trkpt>
      <trkpt lat="41.3915970" lon="-4.9599880">
        <ele>735.9</ele>
        <time>2019-08-14T14:56:22Z</time>
      </trkpt>
      <trkpt lat="41.3916670" lon="-4.9599870">
        <ele>735.9</ele>
        <time>2019-08-14T14:56:23Z</time>
      </trkpt>
      <trkpt lat="41.3917370" lon="-4.9599850">
        <ele>735.8</ele>
        <time>2019-08-14T14:56:24Z</time>
      </trkpt>
      <trkpt lat="41.3918090" lon="-4.9599830">
        <ele>735.8</ele>
        <time>2019-08-14T14:56:25Z</time>
      </trkpt>
      <trkpt lat="41.3918810" lon="-4.9599810">
        <ele>735.8</ele>
        <time>2019-08-14T14:56:26Z</time>
      </trkpt>
      <trkpt lat="41.3919530" lon="-4.9599790">
        <ele>735.7</ele>
        <time>2019-08-14T14:56:27Z</time>
      </trkpt>
      <trkpt lat="41.3920270" lon="-4.9599760">
        <ele>735.7</ele>
        <time>2019-08-14T14:56:28Z</time>
      </trkpt>
      <trkpt lat="41.3921000" lon="-4.9599720">
        <ele>735.7</ele>
        <time>2019-08-14T14:56:29Z</time>
      </trkpt>
      <trkpt lat="41.3921740" lon="-4.9599700">
        <ele>735.7</ele>
        <time>2019-08-14T14:56:30Z</time>
      </trkpt>
      <trkpt lat="41.3922460" lon="-4.9599680">
        <ele>735.7</ele>
        <time>2019-08-14T14:56:31Z</time>
      </trkpt>
      <trkpt lat="41.3923190" lon="-4.9599670">
        <ele>735.6</ele>
        <time>2019-08-14T14:56:32Z</time>
      </trkpt>
      <trkpt lat="41.3923920" lon="-4.9599670">
        <ele>735.6</ele>
        <time>2019-08-14T14:56:33Z</time>
      </trkpt>
      <trkpt lat="41.3924640" lon="-4.9599660">
        <ele>735.5</ele>
        <time>2019-08-14T14:56:34Z</time>
      </trkpt>
      <trkpt lat="41.3925350" lon="-4.9599640">
        <ele>735.5</ele>
        <time>2019-08-14T14:56:35Z</time>
      </trkpt>
      <trkpt lat="41.3926070" lon="-4.9599610">
        <ele>735.5</ele>
        <time>2019-08-14T14:56:36Z</time>
      </trkpt>
      <trkpt lat="41.3926800" lon="-4.9599600">
        <ele>735.5</ele>
        <time>2019-08-14T14:56:37Z</time>
      </trkpt>
      <trkpt lat="41.3927530" lon="-4.9599570">
        <ele>735.4</ele>
        <time>2019-08-14T14:56:38Z</time>
      </trkpt>
      <trkpt lat="41.3928270" lon="-4.9599550">
        <ele>735.4</ele>
        <time>2019-08-14T14:56:39Z</time>
      </trkpt>
      <trkpt lat="41.3929000" lon="-4.9599530">
        <ele>735.3</ele>
        <time>2019-08-14T14:56:40Z</time>
      </trkpt>
      <trkpt lat="41.3929740" lon="-4.9599510">
        <ele>735.2</ele>
        <time>2019-08-14T14:56:41Z</time>
      </trkpt>
      <trkpt lat="41.3930470" lon="-4.9599490">
        <ele>735.2</ele>
        <time>2019-08-14T14:56:42Z</time>
      </trkpt>
      <trkpt lat="41.3931210" lon="-4.9599470">
        <ele>735.1</ele>
        <time>2019-08-14T14:56:43Z</time>
      </trkpt>
      <trkpt lat="41.3931950" lon="-4.9599450">
        <ele>735.1</ele>
        <time>2019-08-14T14:56:44Z</time>
      </trkpt>
      <trkpt lat="41.3932710" lon="-4.9599430">
        <ele>735.1</ele>
        <time>2019-08-14T14:56:45Z</time>
      </trkpt>
      <trkpt lat="41.3933480" lon="-4.9599420">
        <ele>735.0</ele>
        <time>2019-08-14T14:56:46Z</time>
      </trkpt>
      <trkpt lat="41.3934260" lon="-4.9599390">
        <ele>735.0</ele>
        <time>2019-08-14T14:56:47Z</time>
      </trkpt>
      <trkpt lat="41.3935040" lon="-4.9599360">
        <ele>734.9</ele>
        <time>2019-08-14T14:56:48Z</time>
      </trkpt>
      <trkpt lat="41.3935820" lon="-4.9599330">
        <ele>734.9</ele>
        <time>2019-08-14T14:56:49Z</time>
      </trkpt>
      <trkpt lat="41.3936610" lon="-4.9599300">
        <ele>734.9</ele>
        <time>2019-08-14T14:56:50Z</time>
      </trkpt>
      <trkpt lat="41.3937400" lon="-4.9599270">
        <ele>734.9</ele>
        <time>2019-08-14T14:56:51Z</time>
      </trkpt>
      <trkpt lat="41.3938200" lon="-4.9599230">
        <ele>734.7</ele>
        <time>2019-08-14T14:56:52Z</time>
      </trkpt>
      <trkpt lat="41.3939000" lon="-4.9599210">
        <ele>734.5</ele>
        <time>2019-08-14T14:56:53Z</time>
      </trkpt>
      <trkpt lat="41.3939800" lon="-4.9599170">
        <ele>734.4</ele>
        <time>2019-08-14T14:56:54Z</time>
      </trkpt>
      <trkpt lat="41.3940600" lon="-4.9599130">
        <ele>734.2</ele>
        <time>2019-08-14T14:56:55Z</time>
      </trkpt>
      <trkpt lat="41.3941380" lon="-4.9599090">
        <ele>734.1</ele>
        <time>2019-08-14T14:56:56Z</time>
      </trkpt>
      <trkpt lat="41.3942170" lon="-4.9599070">
        <ele>734.0</ele>
        <time>2019-08-14T14:56:57Z</time>
      </trkpt>
      <trkpt lat="41.3942960" lon="-4.9599050">
        <ele>733.9</ele>
        <time>2019-08-14T14:56:58Z</time>
      </trkpt>
      <trkpt lat="41.3943740" lon="-4.9599010">
        <ele>733.8</ele>
        <time>2019-08-14T14:56:59Z</time>
      </trkpt>
      <trkpt lat="41.3944500" lon="-4.9598980">
        <ele>733.7</ele>
        <time>2019-08-14T14:57:00Z</time>
      </trkpt>
      <trkpt lat="41.3945270" lon="-4.9598940">
        <ele>733.6</ele>
        <time>2019-08-14T14:57:01Z</time>
      </trkpt>
      <trkpt lat="41.3946020" lon="-4.9598910">
        <ele>733.5</ele>
        <time>2019-08-14T14:57:02Z</time>
      </trkpt>
      <trkpt lat="41.3946760" lon="-4.9598890">
        <ele>733.3</ele>
        <time>2019-08-14T14:57:03Z</time>
      </trkpt>
      <trkpt lat="41.3947490" lon="-4.9598880">
        <ele>733.2</ele>
        <time>2019-08-14T14:57:04Z</time>
      </trkpt>
      <trkpt lat="41.3948230" lon="-4.9598850">
        <ele>733.1</ele>
        <time>2019-08-14T14:57:05Z</time>
      </trkpt>
      <trkpt lat="41.3948970" lon="-4.9598830">
        <ele>733.0</ele>
        <time>2019-08-14T14:57:06Z</time>
      </trkpt>
      <trkpt lat="41.3949710" lon="-4.9598800">
        <ele>733.0</ele>
        <time>2019-08-14T14:57:07Z</time>
      </trkpt>
      <trkpt lat="41.3950450" lon="-4.9598770">
        <ele>732.9</ele>
        <time>2019-08-14T14:57:08Z</time>
      </trkpt>
      <trkpt lat="41.3951190" lon="-4.9598760">
        <ele>732.9</ele>
        <time>2019-08-14T14:57:09Z</time>
      </trkpt>
      <trkpt lat="41.3951940" lon="-4.9598730">
        <ele>732.9</ele>
        <time>2019-08-14T14:57:10Z</time>
      </trkpt>
      <trkpt lat="41.3952690" lon="-4.9598700">
        <ele>732.9</ele>
        <time>2019-08-14T14:57:11Z</time>
      </trkpt>
      <trkpt lat="41.3953440" lon="-4.9598680">
        <ele>732.9</ele>
        <time>2019-08-14T14:57:12Z</time>
      </trkpt>
      <trkpt lat="41.3954190" lon="-4.9598650">
        <ele>732.9</ele>
        <time>2019-08-14T14:57:13Z</time>
      </trkpt>
      <trkpt lat="41.3954920" lon="-4.9598620">
        <ele>732.9</ele>
        <time>2019-08-14T14:57:14Z</time>
      </trkpt>
      <trkpt lat="41.3955630" lon="-4.9598610">
        <ele>732.9</ele>
        <time>2019-08-14T14:57:15Z</time>
      </trkpt>
      <trkpt lat="41.3956350" lon="-4.9598580">
        <ele>732.8</ele>
        <time>2019-08-14T14:57:16Z</time>
      </trkpt>
      <trkpt lat="41.3957070" lon="-4.9598560">
        <ele>732.8</ele>
        <time>2019-08-14T14:57:17Z</time>
      </trkpt>
      <trkpt lat="41.3957790" lon="-4.9598530">
        <ele>732.7</ele>
        <time>2019-08-14T14:57:18Z</time>
      </trkpt>
      <trkpt lat="41.3958530" lon="-4.9598500">
        <ele>732.6</ele>
        <time>2019-08-14T14:57:19Z</time>
      </trkpt>
      <trkpt lat="41.3959260" lon="-4.9598460">
        <ele>732.5</ele>
        <time>2019-08-14T14:57:20Z</time>
      </trkpt>
      <trkpt lat="41.3959990" lon="-4.9598410">
        <ele>732.3</ele>
        <time>2019-08-14T14:57:21Z</time>
      </trkpt>
      <trkpt lat="41.3960700" lon="-4.9598370">
        <ele>732.2</ele>
        <time>2019-08-14T14:57:22Z</time>
      </trkpt>
      <trkpt lat="41.3961390" lon="-4.9598350">
        <ele>732.1</ele>
        <time>2019-08-14T14:57:23Z</time>
      </trkpt>
      <trkpt lat="41.3962060" lon="-4.9598330">
        <ele>732.0</ele>
        <time>2019-08-14T14:57:24Z</time>
      </trkpt>
      <trkpt lat="41.3962730" lon="-4.9598310">
        <ele>732.0</ele>
        <time>2019-08-14T14:57:25Z</time>
      </trkpt>
      <trkpt lat="41.3963400" lon="-4.9598290">
        <ele>731.9</ele>
        <time>2019-08-14T14:57:26Z</time>
      </trkpt>
      <trkpt lat="41.3964060" lon="-4.9598260">
        <ele>731.9</ele>
        <time>2019-08-14T14:57:27Z</time>
      </trkpt>
      <trkpt lat="41.3964710" lon="-4.9598240">
        <ele>731.9</ele>
        <time>2019-08-14T14:57:28Z</time>
      </trkpt>
      <trkpt lat="41.3965370" lon="-4.9598210">
        <ele>731.9</ele>
        <time>2019-08-14T14:57:29Z</time>
      </trkpt>
      <trkpt lat="41.3966010" lon="-4.9598190">
        <ele>731.9</ele>
        <time>2019-08-14T14:57:30Z</time>
      </trkpt>
      <trkpt lat="41.3966660" lon="-4.9598170">
        <ele>731.9</ele>
        <time>2019-08-14T14:57:31Z</time>
      </trkpt>
      <trkpt lat="41.3967300" lon="-4.9598140">
        <ele>731.9</ele>
        <time>2019-08-14T14:57:32Z</time>
      </trkpt>
      <trkpt lat="41.3967950" lon="-4.9598090">
        <ele>731.9</ele>
        <time>2019-08-14T14:57:33Z</time>
      </trkpt>
      <trkpt lat="41.3968590" lon="-4.9598050">
        <ele>731.9</ele>
        <time>2019-08-14T14:57:34Z</time>
      </trkpt>
      <trkpt lat="41.3969260" lon="-4.9598010">
        <ele>731.8</ele>
        <time>2019-08-14T14:57:35Z</time>
      </trkpt>
      <trkpt lat="41.3969920" lon="-4.9597980">
        <ele>731.8</ele>
        <time>2019-08-14T14:57:36Z</time>
      </trkpt>
      <trkpt lat="41.3970570" lon="-4.9597950">
        <ele>731.8</ele>
        <time>2019-08-14T14:57:37Z</time>
      </trkpt>
      <trkpt lat="41.3971230" lon="-4.9597930">
        <ele>731.7</ele>
        <time>2019-08-14T14:57:38Z</time>
      </trkpt>
      <trkpt lat="41.3971890" lon="-4.9597900">
        <ele>731.6</ele>
        <time>2019-08-14T14:57:39Z</time>
      </trkpt>
      <trkpt lat="41.3972550" lon="-4.9597880">
        <ele>731.5</ele>
        <time>2019-08-14T14:57:40Z</time>
      </trkpt>
      <trkpt lat="41.3973210" lon="-4.9597840">
        <ele>731.4</ele>
        <time>2019-08-14T14:57:41Z</time>
      </trkpt>
      <trkpt lat="41.3973870" lon="-4.9597800">
        <ele>731.3</ele>
        <time>2019-08-14T14:57:42Z</time>
      </trkpt>
      <trkpt lat="41.3974530" lon="-4.9597760">
        <ele>731.2</ele>
        <time>2019-08-14T14:57:43Z</time>
      </trkpt>
      <trkpt lat="41.3975200" lon="-4.9597730">
        <ele>731.1</ele>
        <time>2019-08-14T14:57:44Z</time>
      </trkpt>
      <trkpt lat="41.3975860" lon="-4.9597690">
        <ele>731.0</ele>
        <time>2019-08-14T14:57:45Z</time>
      </trkpt>
      <trkpt lat="41.3976510" lon="-4.9597660">
        <ele>730.9</ele>
        <time>2019-08-14T14:57:46Z</time>
      </trkpt>
      <trkpt lat="41.3977160" lon="-4.9597630">
        <ele>730.9</ele>
        <time>2019-08-14T14:57:47Z</time>
      </trkpt>
      <trkpt lat="41.3977810" lon="-4.9597600">
        <ele>730.9</ele>
        <time>2019-08-14T14:57:48Z</time>
      </trkpt>
      <trkpt lat="41.3978460" lon="-4.9597570">
        <ele>730.9</ele>
        <time>2019-08-14T14:57:49Z</time>
      </trkpt>
      <trkpt lat="41.3979120" lon="-4.9597550">
        <ele>730.9</ele>
        <time>2019-08-14T14:57:50Z</time>
      </trkpt>
      <trkpt lat="41.3979770" lon="-4.9597520">
        <ele>730.9</ele>
        <time>2019-08-14T14:57:51Z</time>
      </trkpt>
      <trkpt lat="41.3980410" lon="-4.9597490">
        <ele>730.9</ele>
        <time>2019-08-14T14:57:52Z</time>
      </trkpt>
      <trkpt lat="41.3981040" lon="-4.9597470">
        <ele>730.9</ele>
        <time>2019-08-14T14:57:53Z</time>
      </trkpt>
      <trkpt lat="41.3981660" lon="-4.9597450">
        <ele>730.9</ele>
        <time>2019-08-14T14:57:54Z</time>
      </trkpt>
      <trkpt lat="41.3982270" lon="-4.9597420">
        <ele>730.9</ele>
        <time>2019-08-14T14:57:55Z</time>
      </trkpt>
      <trkpt lat="41.3982860" lon="-4.9597390">
        <ele>730.9</ele>
        <time>2019-08-14T14:57:56Z</time>
      </trkpt>
      <trkpt lat="41.3983440" lon="-4.9597330">
        <ele>730.9</ele>
        <time>2019-08-14T14:57:57Z</time>
      </trkpt>
      <trkpt lat="41.3984000" lon="-4.9597260">
        <ele>730.9</ele>
        <time>2019-08-14T14:57:58Z</time>
      </trkpt>
      <trkpt lat="41.3984530" lon="-4.9597130">
        <ele>730.9</ele>
        <time>2019-08-14T14:57:59Z</time>
      </trkpt>
      <trkpt lat="41.3985000" lon="-4.9596880">
        <ele>730.9</ele>
        <time>2019-08-14T14:58:00Z</time>
      </trkpt>
      <trkpt lat="41.3985400" lon="-4.9596500">
        <ele>730.9</ele>
        <time>2019-08-14T14:58:01Z</time>
      </trkpt>
      <trkpt lat="41.3985780" lon="-4.9596080">
        <ele>730.9</ele>
        <time>2019-08-14T14:58:02Z</time>
      </trkpt>
      <trkpt lat="41.3986210" lon="-4.9595740">
        <ele>730.9</ele>
        <time>2019-08-14T14:58:03Z</time>
      </trkpt>
      <trkpt lat="41.3986680" lon="-4.9595510">
        <ele>730.9</ele>
        <time>2019-08-14T14:58:04Z</time>
      </trkpt>
      <trkpt lat="41.3987170" lon="-4.9595360">
        <ele>730.9</ele>
        <time>2019-08-14T14:58:05Z</time>
      </trkpt>
      <trkpt lat="41.3987690" lon="-4.9595290">
        <ele>730.9</ele>
        <time>2019-08-14T14:58:06Z</time>
      </trkpt>
      <trkpt lat="41.3988210" lon="-4.9595290">
        <ele>730.9</ele>
        <time>2019-08-14T14:58:07Z</time>
      </trkpt>
      <trkpt lat="41.3988750" lon="-4.9595390">
        <ele>730.9</ele>
        <time>2019-08-14T14:58:08Z</time>
      </trkpt>
      <trkpt lat="41.3989290" lon="-4.9595520">
        <ele>731.0</ele>
        <time>2019-08-14T14:58:09Z</time>
      </trkpt>
      <trkpt lat="41.3989830" lon="-4.9595670">
        <ele>731.0</ele>
        <time>2019-08-14T14:58:10Z</time>
      </trkpt>
      <trkpt lat="41.3990390" lon="-4.9595800">
        <ele>731.0</ele>
        <time>2019-08-14T14:58:11Z</time>
      </trkpt>
      <trkpt lat="41.3990950" lon="-4.9595900">
        <ele>731.0</ele>
        <time>2019-08-14T14:58:12Z</time>
      </trkpt>
      <trkpt lat="41.3991530" lon="-4.9595990">
        <ele>731.0</ele>
        <time>2019-08-14T14:58:13Z</time>
      </trkpt>
      <trkpt lat="41.3992120" lon="-4.9596060">
        <ele>731.1</ele>
        <time>2019-08-14T14:58:14Z</time>
      </trkpt>
      <trkpt lat="41.3992690" lon="-4.9596130">
        <ele>731.1</ele>
        <time>2019-08-14T14:58:15Z</time>
      </trkpt>
      <trkpt lat="41.3993260" lon="-4.9596210">
        <ele>731.2</ele>
        <time>2019-08-14T14:58:16Z</time>
      </trkpt>
      <trkpt lat="41.3993840" lon="-4.9596280">
        <ele>731.2</ele>
        <time>2019-08-14T14:58:17Z</time>
      </trkpt>
      <trkpt lat="41.3994420" lon="-4.9596310">
        <ele>731.3</ele>
        <time>2019-08-14T14:58:18Z</time>
      </trkpt>
      <trkpt lat="41.3994990" lon="-4.9596350">
        <ele>731.3</ele>
        <time>2019-08-14T14:58:19Z</time>
      </trkpt>
      <trkpt lat="41.3995570" lon="-4.9596400">
        <ele>731.3</ele>
        <time>2019-08-14T14:58:20Z</time>
      </trkpt>
      <trkpt lat="41.3996130" lon="-4.9596470">
        <ele>731.3</ele>
        <time>2019-08-14T14:58:21Z</time>
      </trkpt>
      <trkpt lat="41.3996690" lon="-4.9596530">
        <ele>731.3</ele>
        <time>2019-08-14T14:58:22Z</time>
      </trkpt>
      <trkpt lat="41.3997280" lon="-4.9596570">
        <ele>731.3</ele>
        <time>2019-08-14T14:58:23Z</time>
      </trkpt>
      <trkpt lat="41.3997870" lon="-4.9596620">
        <ele>731.4</ele>
        <time>2019-08-14T14:58:24Z</time>
      </trkpt>
      <trkpt lat="41.3998490" lon="-4.9596710">
        <ele>731.4</ele>
        <time>2019-08-14T14:58:25Z</time>
      </trkpt>
      <trkpt lat="41.3999100" lon="-4.9596800">
        <ele>731.4</ele>
        <time>2019-08-14T14:58:26Z</time>
      </trkpt>
      <trkpt lat="41.3999730" lon="-4.9596880">
        <ele>731.3</ele>
        <time>2019-08-14T14:58:27Z</time>
      </trkpt>
      <trkpt lat="41.4000360" lon="-4.9596950">
        <ele>731.3</ele>
        <time>2019-08-14T14:58:28Z</time>
      </trkpt>
      <trkpt lat="41.4000980" lon="-4.9597020">
        <ele>731.3</ele>
        <time>2019-08-14T14:58:29Z</time>
      </trkpt>
      <trkpt lat="41.4001600" lon="-4.9597090">
        <ele>731.3</ele>
        <time>2019-08-14T14:58:30Z</time>
      </trkpt>
      <trkpt lat="41.4002230" lon="-4.9597170">
        <ele>731.3</ele>
        <time>2019-08-14T14:58:31Z</time>
      </trkpt>
      <trkpt lat="41.4002840" lon="-4.9597240">
        <ele>731.3</ele>
        <time>2019-08-14T14:58:32Z</time>
      </trkpt>
      <trkpt lat="41.4003470" lon="-4.9597310">
        <ele>731.3</ele>
        <time>2019-08-14T14:58:33Z</time>
      </trkpt>
      <trkpt lat="41.4004100" lon="-4.9597370">
        <ele>731.3</ele>
        <time>2019-08-14T14:58:34Z</time>
      </trkpt>
      <trkpt lat="41.4004740" lon="-4.9597410">
        <ele>731.3</ele>
        <time>2019-08-14T14:58:35Z</time>
      </trkpt>
      <trkpt lat="41.4005400" lon="-4.9597460">
        <ele>731.4</ele>
        <time>2019-08-14T14:58:36Z</time>
      </trkpt>
      <trkpt lat="41.4006050" lon="-4.9597500">
        <ele>731.4</ele>
        <time>2019-08-14T14:58:37Z</time>
      </trkpt>
      <trkpt lat="41.4006690" lon="-4.9597540">
        <ele>731.4</ele>
        <time>2019-08-14T14:58:38Z</time>
      </trkpt>
      <trkpt lat="41.4007310" lon="-4.9597570">
        <ele>731.4</ele>
        <time>2019-08-14T14:58:39Z</time>
      </trkpt>
      <trkpt lat="41.4007950" lon="-4.9597580">
        <ele>731.4</ele>
        <time>2019-08-14T14:58:40Z</time>
      </trkpt>
      <trkpt lat="41.4008580" lon="-4.9597570">
        <ele>731.5</ele>
        <time>2019-08-14T14:58:41Z</time>
      </trkpt>
      <trkpt lat="41.4009230" lon="-4.9597550">
        <ele>731.5</ele>
        <time>2019-08-14T14:58:42Z</time>
      </trkpt>
      <trkpt lat="41.4009880" lon="-4.9597530">
        <ele>731.5</ele>
        <time>2019-08-14T14:58:43Z</time>
      </trkpt>
      <trkpt lat="41.4010530" lon="-4.9597520">
        <ele>731.5</ele>
        <time>2019-08-14T14:58:44Z</time>
      </trkpt>
      <trkpt lat="41.4011180" lon="-4.9597500">
        <ele>731.6</ele>
        <time>2019-08-14T14:58:45Z</time>
      </trkpt>
      <trkpt lat="41.4011830" lon="-4.9597470">
        <ele>731.6</ele>
        <time>2019-08-14T14:58:46Z</time>
      </trkpt>
      <trkpt lat="41.4012480" lon="-4.9597430">
        <ele>731.6</ele>
        <time>2019-08-14T14:58:47Z</time>
      </trkpt>
      <trkpt lat="41.4013130" lon="-4.9597420">
        <ele>731.7</ele>
        <time>2019-08-14T14:58:48Z</time>
      </trkpt>
      <trkpt lat="41.4013800" lon="-4.9597420">
        <ele>731.7</ele>
        <time>2019-08-14T14:58:49Z</time>
      </trkpt>
      <trkpt lat="41.4014470" lon="-4.9597430">
        <ele>731.7</ele>
        <time>2019-08-14T14:58:50Z</time>
      </trkpt>
      <trkpt lat="41.4015130" lon="-4.9597460">
        <ele>731.7</ele>
        <time>2019-08-14T14:58:51Z</time>
      </trkpt>
      <trkpt lat="41.4015750" lon="-4.9597550">
        <ele>731.7</ele>
        <time>2019-08-14T14:58:52Z</time>
      </trkpt>
      <trkpt lat="41.4016380" lon="-4.9597650">
        <ele>731.7</ele>
        <time>2019-08-14T14:58:53Z</time>
      </trkpt>
      <trkpt lat="41.4017000" lon="-4.9597750">
        <ele>731.7</ele>
        <time>2019-08-14T14:58:54Z</time>
      </trkpt>
      <trkpt lat="41.4017610" lon="-4.9597860">
        <ele>731.7</ele>
        <time>2019-08-14T14:58:55Z</time>
      </trkpt>
      <trkpt lat="41.4018230" lon="-4.9597940">
        <ele>731.7</ele>
        <time>2019-08-14T14:58:56Z</time>
      </trkpt>
      <trkpt lat="41.4018850" lon="-4.9598010">
        <ele>731.7</ele>
        <time>2019-08-14T14:58:57Z</time>
      </trkpt>
      <trkpt lat="41.4019460" lon="-4.9598060">
        <ele>731.7</ele>
        <time>2019-08-14T14:58:58Z</time>
      </trkpt>
      <trkpt lat="41.4020070" lon="-4.9598090">
        <ele>731.7</ele>
        <time>2019-08-14T14:58:59Z</time>
      </trkpt>
      <trkpt lat="41.4020660" lon="-4.9598120">
        <ele>731.7</ele>
        <time>2019-08-14T14:59:00Z</time>
      </trkpt>
      <trkpt lat="41.4021280" lon="-4.9598160">
        <ele>731.7</ele>
        <time>2019-08-14T14:59:01Z</time>
      </trkpt>
      <trkpt lat="41.4021920" lon="-4.9598180">
        <ele>731.7</ele>
        <time>2019-08-14T14:59:02Z</time>
      </trkpt>
      <trkpt lat="41.4022560" lon="-4.9598180">
        <ele>731.6</ele>
        <time>2019-08-14T14:59:03Z</time>
      </trkpt>
      <trkpt lat="41.4023210" lon="-4.9598160">
        <ele>731.6</ele>
        <time>2019-08-14T14:59:04Z</time>
      </trkpt>
      <trkpt lat="41.4023860" lon="-4.9598140">
        <ele>731.6</ele>
        <time>2019-08-14T14:59:05Z</time>
      </trkpt>
      <trkpt lat="41.4024540" lon="-4.9598120">
        <ele>731.6</ele>
        <time>2019-08-14T14:59:06Z</time>
      </trkpt>
      <trkpt lat="41.4025210" lon="-4.9598110">
        <ele>731.6</ele>
        <time>2019-08-14T14:59:07Z</time>
      </trkpt>
      <trkpt lat="41.4025860" lon="-4.9598100">
        <ele>731.6</ele>
        <time>2019-08-14T14:59:08Z</time>
      </trkpt>
      <trkpt lat="41.4026490" lon="-4.9598110">
        <ele>731.6</ele>
        <time>2019-08-14T14:59:09Z</time>
      </trkpt>
      <trkpt lat="41.4027110" lon="-4.9598110">
        <ele>731.6</ele>
        <time>2019-08-14T14:59:10Z</time>
      </trkpt>
      <trkpt lat="41.4027750" lon="-4.9598120">
        <ele>731.6</ele>
        <time>2019-08-14T14:59:11Z</time>
      </trkpt>
      <trkpt lat="41.4028400" lon="-4.9598120">
        <ele>731.5</ele>
        <time>2019-08-14T14:59:12Z</time>
      </trkpt>
      <trkpt lat="41.4029040" lon="-4.9598120">
        <ele>731.5</ele>
        <time>2019-08-14T14:59:13Z</time>
      </trkpt>
      <trkpt lat="41.4029690" lon="-4.9598100">
        <ele>731.5</ele>
        <time>2019-08-14T14:59:14Z</time>
      </trkpt>
      <trkpt lat="41.4030320" lon="-4.9598110">
        <ele>731.5</ele>
        <time>2019-08-14T14:59:15Z</time>
      </trkpt>
      <trkpt lat="41.4030930" lon="-4.9598100">
        <ele>731.5</ele>
        <time>2019-08-14T14:59:16Z</time>
      </trkpt>
      <trkpt lat="41.4031550" lon="-4.9598070">
        <ele>731.4</ele>
        <time>2019-08-14T14:59:17Z</time>
      </trkpt>
      <trkpt lat="41.4032150" lon="-4.9598020">
        <ele>731.4</ele>
        <time>2019-08-14T14:59:18Z</time>
      </trkpt>
      <trkpt lat="41.4032770" lon="-4.9597980">
        <ele>731.5</ele>
        <time>2019-08-14T14:59:19Z</time>
      </trkpt>
      <trkpt lat="41.4033400" lon="-4.9597900">
        <ele>731.5</ele>
        <time>2019-08-14T14:59:20Z</time>
      </trkpt>
      <trkpt lat="41.4034020" lon="-4.9597790">
        <ele>731.5</ele>
        <time>2019-08-14T14:59:21Z</time>
      </trkpt>
      <trkpt lat="41.4034610" lon="-4.9597690">
        <ele>731.5</ele>
        <time>2019-08-14T14:59:22Z</time>
      </trkpt>
      <trkpt lat="41.4035230" lon="-4.9597600">
        <ele>731.5</ele>
        <time>2019-08-14T14:59:23Z</time>
      </trkpt>
      <trkpt lat="41.4035850" lon="-4.9597490">
        <ele>731.5</ele>
        <time>2019-08-14T14:59:24Z</time>
      </trkpt>
      <trkpt lat="41.4036470" lon="-4.9597390">
        <ele>731.5</ele>
        <time>2019-08-14T14:59:25Z</time>
      </trkpt>
      <trkpt lat="41.4037090" lon="-4.9597300">
        <ele>731.6</ele>
        <time>2019-08-14T14:59:26Z</time>
      </trkpt>
      <trkpt lat="41.4037690" lon="-4.9597240">
        <ele>731.6</ele>
        <time>2019-08-14T14:59:27Z</time>
      </trkpt>
      <trkpt lat="41.4038270" lon="-4.9597200">
        <ele>731.6</ele>
        <time>2019-08-14T14:59:28Z</time>
      </trkpt>
      <trkpt lat="41.4038830" lon="-4.9597200">
        <ele>731.6</ele>
        <time>2019-08-14T14:59:29Z</time>
      </trkpt>
      <trkpt lat="41.4039380" lon="-4.9597210">
        <ele>731.6</ele>
        <time>2019-08-14T14:59:30Z</time>
      </trkpt>
      <trkpt lat="41.4039940" lon="-4.9597200">
        <ele>731.6</ele>
        <time>2019-08-14T14:59:31Z</time>
      </trkpt>
      <trkpt lat="41.4040520" lon="-4.9597210">
        <ele>731.6</ele>
        <time>2019-08-14T14:59:32Z</time>
      </trkpt>
      <trkpt lat="41.4041090" lon="-4.9597220">
        <ele>731.7</ele>
        <time>2019-08-14T14:59:33Z</time>
      </trkpt>
      <trkpt lat="41.4041680" lon="-4.9597220">
        <ele>731.7</ele>
        <time>2019-08-14T14:59:34Z</time>
      </trkpt>
      <trkpt lat="41.4042230" lon="-4.9597260">
        <ele>731.7</ele>
        <time>2019-08-14T14:59:35Z</time>
      </trkpt>
      <trkpt lat="41.4042780" lon="-4.9597300">
        <ele>731.7</ele>
        <time>2019-08-14T14:59:36Z</time>
      </trkpt>
      <trkpt lat="41.4043330" lon="-4.9597330">
        <ele>731.7</ele>
        <time>2019-08-14T14:59:37Z</time>
      </trkpt>
      <trkpt lat="41.4043900" lon="-4.9597360">
        <ele>731.7</ele>
        <time>2019-08-14T14:59:38Z</time>
      </trkpt>
      <trkpt lat="41.4044470" lon="-4.9597370">
        <ele>731.7</ele>
        <time>2019-08-14T14:59:39Z</time>
      </trkpt>
      <trkpt lat="41.4045040" lon="-4.9597410">
        <ele>731.7</ele>
        <time>2019-08-14T14:59:40Z</time>
      </trkpt>
      <trkpt lat="41.4045600" lon="-4.9597420">
        <ele>731.6</ele>
        <time>2019-08-14T14:59:41Z</time>
      </trkpt>
      <trkpt lat="41.4046170" lon="-4.9597450">
        <ele>731.6</ele>
        <time>2019-08-14T14:59:42Z</time>
      </trkpt>
      <trkpt lat="41.4046730" lon="-4.9597460">
        <ele>731.6</ele>
        <time>2019-08-14T14:59:43Z</time>
      </trkpt>
      <trkpt lat="41.4047280" lon="-4.9597490">
        <ele>731.5</ele>
        <time>2019-08-14T14:59:44Z</time>
      </trkpt>
      <trkpt lat="41.4047820" lon="-4.9597520">
        <ele>731.4</ele>
        <time>2019-08-14T14:59:45Z</time>
      </trkpt>
      <trkpt lat="41.4048350" lon="-4.9597560">
        <ele>731.4</ele>
        <time>2019-08-14T14:59:46Z</time>
      </trkpt>
      <trkpt lat="41.4048850" lon="-4.9597600">
        <ele>731.4</ele>
        <time>2019-08-14T14:59:47Z</time>
      </trkpt>
      <trkpt lat="41.4049350" lon="-4.9597640">
        <ele>731.3</ele>
        <time>2019-08-14T14:59:48Z</time>
      </trkpt>
      <trkpt lat="41.4049820" lon="-4.9597710">
        <ele>731.3</ele>
        <time>2019-08-14T14:59:49Z</time>
      </trkpt>
      <trkpt lat="41.4050270" lon="-4.9597770">
        <ele>731.2</ele>
        <time>2019-08-14T14:59:50Z</time>
      </trkpt>
      <trkpt lat="41.4050690" lon="-4.9597820">
        <ele>731.1</ele>
        <time>2019-08-14T14:59:51Z</time>
      </trkpt>
      <trkpt lat="41.4051120" lon="-4.9597900">
        <ele>731.1</ele>
        <time>2019-08-14T14:59:52Z</time>
      </trkpt>
      <trkpt lat="41.4051520" lon="-4.9598020">
        <ele>731.1</ele>
        <time>2019-08-14T14:59:53Z</time>
      </trkpt>
      <trkpt lat="41.4051900" lon="-4.9598140">
        <ele>731.1</ele>
        <time>2019-08-14T14:59:54Z</time>
      </trkpt>
      <trkpt lat="41.4052290" lon="-4.9598280">
        <ele>731.0</ele>
        <time>2019-08-14T14:59:55Z</time>
      </trkpt>
      <trkpt lat="41.4052670" lon="-4.9598430">
        <ele>730.9</ele>
        <time>2019-08-14T14:59:56Z</time>
      </trkpt>
      <trkpt lat="41.4053030" lon="-4.9598560">
        <ele>730.7</ele>
        <time>2019-08-14T14:59:57Z</time>
      </trkpt>
      <trkpt lat="41.4053420" lon="-4.9598650">
        <ele>730.6</ele>
        <time>2019-08-14T14:59:58Z</time>
      </trkpt>
      <trkpt lat="41.4053820" lon="-4.9598740">
        <ele>730.5</ele>
        <time>2019-08-14T14:59:59Z</time>
      </trkpt>
      <trkpt lat="41.4054250" lon="-4.9598850">
        <ele>730.4</ele>
        <time>2019-08-14T15:00:00Z</time>
      </trkpt>
      <trkpt lat="41.4054690" lon="-4.9598970">
        <ele>730.3</ele>
        <time>2019-08-14T15:00:01Z</time>
      </trkpt>
      <trkpt lat="41.4055150" lon="-4.9599070">
        <ele>730.2</ele>
        <time>2019-08-14T15:00:02Z</time>
      </trkpt>
      <trkpt lat="41.4055620" lon="-4.9599130">
        <ele>730.2</ele>
        <time>2019-08-14T15:00:03Z</time>
      </trkpt>
      <trkpt lat="41.4056090" lon="-4.9599190">
        <ele>730.1</ele>
        <time>2019-08-14T15:00:04Z</time>
      </trkpt>
      <trkpt lat="41.4056560" lon="-4.9599240">
        <ele>730.1</ele>
        <time>2019-08-14T15:00:05Z</time>
      </trkpt>
      <trkpt lat="41.4057050" lon="-4.9599270">
        <ele>730.0</ele>
        <time>2019-08-14T15:00:06Z</time>
      </trkpt>
      <trkpt lat="41.4057560" lon="-4.9599290">
        <ele>730.0</ele>
        <time>2019-08-14T15:00:07Z</time>
      </trkpt>
      <trkpt lat="41.4058070" lon="-4.9599290">
        <ele>729.9</ele>
        <time>2019-08-14T15:00:08Z</time>
      </trkpt>
      <trkpt lat="41.4058600" lon="-4.9599300">
        <ele>729.8</ele>
        <time>2019-08-14T15:00:09Z</time>
      </trkpt>
      <trkpt lat="41.4059130" lon="-4.9599280">
        <ele>729.7</ele>
        <time>2019-08-14T15:00:10Z</time>
      </trkpt>
      <trkpt lat="41.4059680" lon="-4.9599250">
        <ele>729.7</ele>
        <time>2019-08-14T15:00:11Z</time>
      </trkpt>
      <trkpt lat="41.4060230" lon="-4.9599210">
        <ele>729.6</ele>
        <time>2019-08-14T15:00:12Z</time>
      </trkpt>
      <trkpt lat="41.4060780" lon="-4.9599180">
        <ele>729.5</ele>
        <time>2019-08-14T15:00:13Z</time>
      </trkpt>
      <trkpt lat="41.4061330" lon="-4.9599150">
        <ele>729.4</ele>
        <time>2019-08-14T15:00:14Z</time>
      </trkpt>
      <trkpt lat="41.4061890" lon="-4.9599130">
        <ele>729.4</ele>
        <time>2019-08-14T15:00:15Z</time>
      </trkpt>
      <trkpt lat="41.4062460" lon="-4.9599090">
        <ele>729.3</ele>
        <time>2019-08-14T15:00:16Z</time>
      </trkpt>
      <trkpt lat="41.4063020" lon="-4.9599040">
        <ele>729.2</ele>
        <time>2019-08-14T15:00:17Z</time>
      </trkpt>
      <trkpt lat="41.4063610" lon="-4.9598970">
        <ele>729.2</ele>
        <time>2019-08-14T15:00:18Z</time>
      </trkpt>
      <trkpt lat="41.4064190" lon="-4.9598900">
        <ele>729.1</ele>
        <time>2019-08-14T15:00:19Z</time>
      </trkpt>
      <trkpt lat="41.4064770" lon="-4.9598880">
        <ele>729.0</ele>
        <time>2019-08-14T15:00:20Z</time>
      </trkpt>
      <trkpt lat="41.4065350" lon="-4.9598880">
        <ele>729.0</ele>
        <time>2019-08-14T15:00:21Z</time>
      </trkpt>
      <trkpt lat="41.4065930" lon="-4.9598850">
        <ele>728.9</ele>
        <time>2019-08-14T15:00:22Z</time>
      </trkpt>
      <trkpt lat="41.4066500" lon="-4.9598800">
        <ele>728.8</ele>
        <time>2019-08-14T15:00:23Z</time>
      </trkpt>
      <trkpt lat="41.4067080" lon="-4.9598750">
        <ele>728.7</ele>
        <time>2019-08-14T15:00:24Z</time>
      </trkpt>
      <trkpt lat="41.4067630" lon="-4.9598710">
        <ele>728.6</ele>
        <time>2019-08-14T15:00:25Z</time>
      </trkpt>
      <trkpt lat="41.4068180" lon="-4.9598680">
        <ele>728.6</ele>
        <time>2019-08-14T15:00:26Z</time>
      </trkpt>
      <trkpt lat="41.4068730" lon="-4.9598660">
        <ele>728.5</ele>
        <time>2019-08-14T15:00:27Z</time>
      </trkpt>
      <trkpt lat="41.4069250" lon="-4.9598640">
        <ele>728.4</ele>
        <time>2019-08-14T15:00:28Z</time>
      </trkpt>
      <trkpt lat="41.4069770" lon="-4.9598600">
        <ele>728.4</ele>
        <time>2019-08-14T15:00:29Z</time>
      </trkpt>
      <trkpt lat="41.4070280" lon="-4.9598560">
        <ele>728.3</ele>
        <time>2019-08-14T15:00:30Z</time>
      </trkpt>
      <trkpt lat="41.4070800" lon="-4.9598490">
        <ele>728.3</ele>
        <time>2019-08-14T15:00:31Z</time>
      </trkpt>
      <trkpt lat="41.4071310" lon="-4.9598430">
        <ele>728.2</ele>
        <time>2019-08-14T15:00:32Z</time>
      </trkpt>
      <trkpt lat="41.4071810" lon="-4.9598350">
        <ele>728.2</ele>
        <time>2019-08-14T15:00:33Z</time>
      </trkpt>
      <trkpt lat="41.4072300" lon="-4.9598240">
        <ele>728.2</ele>
        <time>2019-08-14T15:00:34Z</time>
      </trkpt>
      <trkpt lat="41.4072780" lon="-4.9598140">
        <ele>728.1</ele>
        <time>2019-08-14T15:00:35Z</time>
      </trkpt>
      <trkpt lat="41.4073210" lon="-4.9598040">
        <ele>728.2</ele>
        <time>2019-08-14T15:00:36Z</time>
      </trkpt>
      <trkpt lat="41.4073580" lon="-4.9597950">
        <ele>728.2</ele>
        <time>2019-08-14T15:00:37Z</time>
      </trkpt>
      <trkpt lat="41.4073860" lon="-4.9597840">
        <ele>728.2</ele>
        <time>2019-08-14T15:00:38Z</time>
      </trkpt>
      <trkpt lat="41.4074250" lon="-4.9597820">
        <ele>728.3</ele>
        <time>2019-08-14T15:00:40Z</time>
      </trkpt>
      <trkpt lat="41.4074790" lon="-4.9598000">
        <ele>728.3</ele>
        <time>2019-08-14T15:00:42Z</time>
      </trkpt>
      <trkpt lat="41.4075140" lon="-4.9598020">
        <ele>728.4</ele>
        <time>2019-08-14T15:00:43Z</time>
      </trkpt>
      <trkpt lat="41.4075540" lon="-4.9598000">
        <ele>728.4</ele>
        <time>2019-08-14T15:00:44Z</time>
      </trkpt>
      <trkpt lat="41.4075960" lon="-4.9597980">
        <ele>728.4</ele>
        <time>2019-08-14T15:00:45Z</time>
      </trkpt>
      <trkpt lat="41.4076420" lon="-4.9597970">
        <ele>728.5</ele>
        <time>2019-08-14T15:00:46Z</time>
      </trkpt>
      <trkpt lat="41.4076900" lon="-4.9597970">
        <ele>728.5</ele>
        <time>2019-08-14T15:00:47Z</time>
      </trkpt>
      <trkpt lat="41.4077390" lon="-4.9597970">
        <ele>728.5</ele>
        <time>2019-08-14T15:00:48Z</time>
      </trkpt>
      <trkpt lat="41.4077900" lon="-4.9597960">
        <ele>728.6</ele>
        <time>2019-08-14T15:00:49Z</time>
      </trkpt>
      <trkpt lat="41.4078420" lon="-4.9597950">
        <ele>728.6</ele>
        <time>2019-08-14T15:00:50Z</time>
      </trkpt>
      <trkpt lat="41.4078960" lon="-4.9597920">
        <ele>728.7</ele>
        <time>2019-08-14T15:00:51Z</time>
      </trkpt>
      <trkpt lat="41.4079510" lon="-4.9597860">
        <ele>728.7</ele>
        <time>2019-08-14T15:00:52Z</time>
      </trkpt>
      <trkpt lat="41.4080050" lon="-4.9597800">
        <ele>728.7</ele>
        <time>2019-08-14T15:00:53Z</time>
      </trkpt>
      <trkpt lat="41.4080590" lon="-4.9597730">
        <ele>728.8</ele>
        <time>2019-08-14T15:00:54Z</time>
      </trkpt>
      <trkpt lat="41.4081120" lon="-4.9597680">
        <ele>728.8</ele>
        <time>2019-08-14T15:00:55Z</time>
      </trkpt>
      <trkpt lat="41.4081630" lon="-4.9597650">
        <ele>728.9</ele>
        <time>2019-08-14T15:00:56Z</time>
      </trkpt>
      <trkpt lat="41.4082120" lon="-4.9597610">
        <ele>728.9</ele>
        <time>2019-08-14T15:00:57Z</time>
      </trkpt>
      <trkpt lat="41.4082630" lon="-4.9597580">
        <ele>728.9</ele>
        <time>2019-08-14T15:00:58Z</time>
      </trkpt>
      <trkpt lat="41.4083130" lon="-4.9597540">
        <ele>728.8</ele>
        <time>2019-08-14T15:00:59Z</time>
      </trkpt>
      <trkpt lat="41.4083600" lon="-4.9597520">
        <ele>728.8</ele>
        <time>2019-08-14T15:01:00Z</time>
      </trkpt>
      <trkpt lat="41.4084070" lon="-4.9597490">
        <ele>728.7</ele>
        <time>2019-08-14T15:01:01Z</time>
      </trkpt>
      <trkpt lat="41.4084560" lon="-4.9597450">
        <ele>728.7</ele>
        <time>2019-08-14T15:01:02Z</time>
      </trkpt>
      <trkpt lat="41.4085030" lon="-4.9597390">
        <ele>728.6</ele>
        <time>2019-08-14T15:01:03Z</time>
      </trkpt>
      <trkpt lat="41.4085480" lon="-4.9597330">
        <ele>728.6</ele>
        <time>2019-08-14T15:01:04Z</time>
      </trkpt>
      <trkpt lat="41.4085910" lon="-4.9597270">
        <ele>728.6</ele>
        <time>2019-08-14T15:01:05Z</time>
      </trkpt>
      <trkpt lat="41.4086350" lon="-4.9597200">
        <ele>728.5</ele>
        <time>2019-08-14T15:01:06Z</time>
      </trkpt>
      <trkpt lat="41.4086800" lon="-4.9597110">
        <ele>728.3</ele>
        <time>2019-08-14T15:01:07Z</time>
      </trkpt>
      <trkpt lat="41.4087230" lon="-4.9597050">
        <ele>728.2</ele>
        <time>2019-08-14T15:01:08Z</time>
      </trkpt>
      <trkpt lat="41.4087650" lon="-4.9597000">
        <ele>728.1</ele>
        <time>2019-08-14T15:01:09Z</time>
      </trkpt>
      <trkpt lat="41.4088070" lon="-4.9596950">
        <ele>728.0</ele>
        <time>2019-08-14T15:01:10Z</time>
      </trkpt>
      <trkpt lat="41.4088480" lon="-4.9596920">
        <ele>728.0</ele>
        <time>2019-08-14T15:01:11Z</time>
      </trkpt>
      <trkpt lat="41.4088870" lon="-4.9596900">
        <ele>727.9</ele>
        <time>2019-08-14T15:01:12Z</time>
      </trkpt>
      <trkpt lat="41.4089240" lon="-4.9596880">
        <ele>727.9</ele>
        <time>2019-08-14T15:01:13Z</time>
      </trkpt>
      <trkpt lat="41.4089600" lon="-4.9596830">
        <ele>727.9</ele>
        <time>2019-08-14T15:01:14Z</time>
      </trkpt>
      <trkpt lat="41.4089990" lon="-4.9596800">
        <ele>727.9</ele>
        <time>2019-08-14T15:01:15Z</time>
      </trkpt>
      <trkpt lat="41.4090370" lon="-4.9596760">
        <ele>727.9</ele>
        <time>2019-08-14T15:01:16Z</time>
      </trkpt>
      <trkpt lat="41.4090730" lon="-4.9596740">
        <ele>728.0</ele>
        <time>2019-08-14T15:01:17Z</time>
      </trkpt>
      <trkpt lat="41.4091090" lon="-4.9596690">
        <ele>728.0</ele>
        <time>2019-08-14T15:01:18Z</time>
      </trkpt>
      <trkpt lat="41.4091470" lon="-4.9596650">
        <ele>728.0</ele>
        <time>2019-08-14T15:01:19Z</time>
      </trkpt>
      <trkpt lat="41.4091820" lon="-4.9596620">
        <ele>728.0</ele>
        <time>2019-08-14T15:01:20Z</time>
      </trkpt>
      <trkpt lat="41.4092190" lon="-4.9596590">
        <ele>728.0</ele>
        <time>2019-08-14T15:01:21Z</time>
      </trkpt>
      <trkpt lat="41.4092550" lon="-4.9596560">
        <ele>728.0</ele>
        <time>2019-08-14T15:01:22Z</time>
      </trkpt>
      <trkpt lat="41.4092910" lon="-4.9596520">
        <ele>728.0</ele>
        <time>2019-08-14T15:01:23Z</time>
      </trkpt>
      <trkpt lat="41.4093270" lon="-4.9596480">
        <ele>728.0</ele>
        <time>2019-08-14T15:01:24Z</time>
      </trkpt>
      <trkpt lat="41.4093630" lon="-4.9596470">
        <ele>728.0</ele>
        <time>2019-08-14T15:01:25Z</time>
      </trkpt>
      <trkpt lat="41.4094030" lon="-4.9596430">
        <ele>728.0</ele>
        <time>2019-08-14T15:01:26Z</time>
      </trkpt>
      <trkpt lat="41.4094360" lon="-4.9596420">
        <ele>728.0</ele>
        <time>2019-08-14T15:01:27Z</time>
      </trkpt>
      <trkpt lat="41.4094700" lon="-4.9596400">
        <ele>728.0</ele>
        <time>2019-08-14T15:01:28Z</time>
      </trkpt>
      <trkpt lat="41.4095020" lon="-4.9596420">
        <ele>728.0</ele>
        <time>2019-08-14T15:01:29Z</time>
      </trkpt>
      <trkpt lat="41.4095310" lon="-4.9596450">
        <ele>728.0</ele>
        <time>2019-08-14T15:01:30Z</time>
      </trkpt>
      <trkpt lat="41.4095800" lon="-4.9596530">
        <ele>728.0</ele>
        <time>2019-08-14T15:01:32Z</time>
      </trkpt>
      <trkpt lat="41.4095920" lon="-4.9596600">
        <ele>728.0</ele>
        <time>2019-08-14T15:01:40Z</time>
      </trkpt>
      <trkpt lat="41.4096540" lon="-4.9596480">
        <ele>728.0</ele>
        <time>2019-08-14T15:03:04Z</time>
      </trkpt>
      <trkpt lat="41.4096780" lon="-4.9596520">
        <ele>728.0</ele>
        <time>2019-08-14T15:03:09Z</time>
      </trkpt>
      <trkpt lat="41.4096520" lon="-4.9596450">
        <ele>728.0</ele>
        <time>2019-08-14T15:03:14Z</time>
      </trkpt>
      <trkpt lat="41.4096240" lon="-4.9596570">
        <ele>728.0</ele>
        <time>2019-08-14T15:03:19Z</time>
      </trkpt>
      <trkpt lat="41.4095120" lon="-4.9596770">
        <ele>728.0</ele>
        <time>2019-08-14T15:04:10Z</time>
      </trkpt>
      <trkpt lat="41.4094790" lon="-4.9596820">
        <ele>728.0</ele>
        <time>2019-08-14T15:04:11Z</time>
      </trkpt>
      <trkpt lat="41.4094460" lon="-4.9596820">
        <ele>728.0</ele>
        <time>2019-08-14T15:04:12Z</time>
      </trkpt>
      <trkpt lat="41.4094150" lon="-4.9596820">
        <ele>728.0</ele>
        <time>2019-08-14T15:04:13Z</time>
      </trkpt>
      <trkpt lat="41.4093840" lon="-4.9596850">
        <ele>728.0</ele>
        <time>2019-08-14T15:04:14Z</time>
      </trkpt>
      <trkpt lat="41.4093500" lon="-4.9596870">
        <ele>728.0</ele>
        <time>2019-08-14T15:04:15Z</time>
      </trkpt>
      <trkpt lat="41.4093160" lon="-4.9596900">
        <ele>728.0</ele>
        <time>2019-08-14T15:04:16Z</time>
      </trkpt>
      <trkpt lat="41.4092810" lon="-4.9596920">
        <ele>728.0</ele>
        <time>2019-08-14T15:04:17Z</time>
      </trkpt>
      <trkpt lat="41.4092450" lon="-4.9596940">
        <ele>728.0</ele>
        <time>2019-08-14T15:04:18Z</time>
      </trkpt>
      <trkpt lat="41.4092110" lon="-4.9596950">
        <ele>728.0</ele>
        <time>2019-08-14T15:04:19Z</time>
      </trkpt>
      <trkpt lat="41.4091740" lon="-4.9596960">
        <ele>728.0</ele>
        <time>2019-08-14T15:04:20Z</time>
      </trkpt>
      <trkpt lat="41.4091360" lon="-4.9596960">
        <ele>728.0</ele>
        <time>2019-08-14T15:04:21Z</time>
      </trkpt>
      <trkpt lat="41.4090970" lon="-4.9596940">
        <ele>728.0</ele>
        <time>2019-08-14T15:04:22Z</time>
      </trkpt>
      <trkpt lat="41.4090590" lon="-4.9596930">
        <ele>727.9</ele>
        <time>2019-08-14T15:04:23Z</time>
      </trkpt>
      <trkpt lat="41.4090200" lon="-4.9596960">
        <ele>727.9</ele>
        <time>2019-08-14T15:04:24Z</time>
      </trkpt>
      <trkpt lat="41.4089800" lon="-4.9597030">
        <ele>727.9</ele>
        <time>2019-08-14T15:04:25Z</time>
      </trkpt>
      <trkpt lat="41.4089420" lon="-4.9597090">
        <ele>727.9</ele>
        <time>2019-08-14T15:04:26Z</time>
      </trkpt>
      <trkpt lat="41.4089030" lon="-4.9597140">
        <ele>727.9</ele>
        <time>2019-08-14T15:04:27Z</time>
      </trkpt>
      <trkpt lat="41.4088640" lon="-4.9597180">
        <ele>727.9</ele>
        <time>2019-08-14T15:04:28Z</time>
      </trkpt>
      <trkpt lat="41.4088250" lon="-4.9597210">
        <ele>728.0</ele>
        <time>2019-08-14T15:04:29Z</time>
      </trkpt>
      <trkpt lat="41.4087880" lon="-4.9597220">
        <ele>728.0</ele>
        <time>2019-08-14T15:04:30Z</time>
      </trkpt>
      <trkpt lat="41.4087490" lon="-4.9597240">
        <ele>728.1</ele>
        <time>2019-08-14T15:04:31Z</time>
      </trkpt>
      <trkpt lat="41.4087110" lon="-4.9597270">
        <ele>728.2</ele>
        <time>2019-08-14T15:04:32Z</time>
      </trkpt>
      <trkpt lat="41.4086710" lon="-4.9597320">
        <ele>728.3</ele>
        <time>2019-08-14T15:04:33Z</time>
      </trkpt>
      <trkpt lat="41.4086310" lon="-4.9597360">
        <ele>728.4</ele>
        <time>2019-08-14T15:04:34Z</time>
      </trkpt>
      <trkpt lat="41.4085930" lon="-4.9597410">
        <ele>728.5</ele>
        <time>2019-08-14T15:04:35Z</time>
      </trkpt>
      <trkpt lat="41.4085530" lon="-4.9597440">
        <ele>728.6</ele>
        <time>2019-08-14T15:04:36Z</time>
      </trkpt>
      <trkpt lat="41.4085130" lon="-4.9597470">
        <ele>728.6</ele>
        <time>2019-08-14T15:04:37Z</time>
      </trkpt>
      <trkpt lat="41.4084720" lon="-4.9597510">
        <ele>728.7</ele>
        <time>2019-08-14T15:04:38Z</time>
      </trkpt>
      <trkpt lat="41.4084310" lon="-4.9597550">
        <ele>728.7</ele>
        <time>2019-08-14T15:04:39Z</time>
      </trkpt>
      <trkpt lat="41.4083900" lon="-4.9597590">
        <ele>728.7</ele>
        <time>2019-08-14T15:04:40Z</time>
      </trkpt>
      <trkpt lat="41.4083490" lon="-4.9597630">
        <ele>728.8</ele>
        <time>2019-08-14T15:04:41Z</time>
      </trkpt>
      <trkpt lat="41.4083080" lon="-4.9597670">
        <ele>728.8</ele>
        <time>2019-08-14T15:04:42Z</time>
      </trkpt>
      <trkpt lat="41.4082670" lon="-4.9597710">
        <ele>728.8</ele>
        <time>2019-08-14T15:04:43Z</time>
      </trkpt>
      <trkpt lat="41.4082270" lon="-4.9597750">
        <ele>728.9</ele>
        <time>2019-08-14T15:04:44Z</time>
      </trkpt>
      <trkpt lat="41.4081880" lon="-4.9597770">
        <ele>728.9</ele>
        <time>2019-08-14T15:04:45Z</time>
      </trkpt>
      <trkpt lat="41.4081500" lon="-4.9597790">
        <ele>728.9</ele>
        <time>2019-08-14T15:04:46Z</time>
      </trkpt>
      <trkpt lat="41.4081140" lon="-4.9597800">
        <ele>728.8</ele>
        <time>2019-08-14T15:04:47Z</time>
      </trkpt>
      <trkpt lat="41.4080800" lon="-4.9597840">
        <ele>728.8</ele>
        <time>2019-08-14T15:04:48Z</time>
      </trkpt>
      <trkpt lat="41.4080470" lon="-4.9597870">
        <ele>728.8</ele>
        <time>2019-08-14T15:04:49Z</time>
      </trkpt>
      <trkpt lat="41.4080120" lon="-4.9597900">
        <ele>728.7</ele>
        <time>2019-08-14T15:04:50Z</time>
      </trkpt>
      <trkpt lat="41.4079740" lon="-4.9597940">
        <ele>728.7</ele>
        <time>2019-08-14T15:04:51Z</time>
      </trkpt>
      <trkpt lat="41.4079360" lon="-4.9597970">
        <ele>728.7</ele>
        <time>2019-08-14T15:04:52Z</time>
      </trkpt>
      <trkpt lat="41.4078970" lon="-4.9597990">
        <ele>728.7</ele>
        <time>2019-08-14T15:04:53Z</time>
      </trkpt>
      <trkpt lat="41.4078570" lon="-4.9598020">
        <ele>728.6</ele>
        <time>2019-08-14T15:04:54Z</time>
      </trkpt>
      <trkpt lat="41.4078180" lon="-4.9598040">
        <ele>728.6</ele>
        <time>2019-08-14T15:04:55Z</time>
      </trkpt>
      <trkpt lat="41.4077800" lon="-4.9598060">
        <ele>728.6</ele>
        <time>2019-08-14T15:04:56Z</time>
      </trkpt>
      <trkpt lat="41.4077440" lon="-4.9598060">
        <ele>728.5</ele>
        <time>2019-08-14T15:04:57Z</time>
      </trkpt>
      <trkpt lat="41.4077090" lon="-4.9598070">
        <ele>728.5</ele>
        <time>2019-08-14T15:04:58Z</time>
      </trkpt>
      <trkpt lat="41.4076760" lon="-4.9598080">
        <ele>728.5</ele>
        <time>2019-08-14T15:04:59Z</time>
      </trkpt>
      <trkpt lat="41.4076440" lon="-4.9598090">
        <ele>728.5</ele>
        <time>2019-08-14T15:05:00Z</time>
      </trkpt>
      <trkpt lat="41.4076140" lon="-4.9598160">
        <ele>728.4</ele>
        <time>2019-08-14T15:05:01Z</time>
      </trkpt>
      <trkpt lat="41.4075820" lon="-4.9598200">
        <ele>728.4</ele>
        <time>2019-08-14T15:05:02Z</time>
      </trkpt>
      <trkpt lat="41.4075510" lon="-4.9598240">
        <ele>728.4</ele>
        <time>2019-08-14T15:05:03Z</time>
      </trkpt>
      <trkpt lat="41.4075200" lon="-4.9598260">
        <ele>728.4</ele>
        <time>2019-08-14T15:05:04Z</time>
      </trkpt>
      <trkpt lat="41.4074910" lon="-4.9598270">
        <ele>728.3</ele>
        <time>2019-08-14T15:05:05Z</time>
      </trkpt>
      <trkpt lat="41.4074630" lon="-4.9598230">
        <ele>728.3</ele>
        <time>2019-08-14T15:05:06Z</time>
      </trkpt>
      <trkpt lat="41.4074370" lon="-4.9598100">
        <ele>728.3</ele>
        <time>2019-08-14T15:05:07Z</time>
      </trkpt>
      <trkpt lat="41.4074130" lon="-4.9597860">
        <ele>728.3</ele>
        <time>2019-08-14T15:05:08Z</time>
      </trkpt>
      <trkpt lat="41.4074010" lon="-4.9597520">
        <ele>728.4</ele>
        <time>2019-08-14T15:05:09Z</time>
      </trkpt>
      <trkpt lat="41.4074040" lon="-4.9597130">
        <ele>728.5</ele>
        <time>2019-08-14T15:05:10Z</time>
      </trkpt>
      <trkpt lat="41.4074180" lon="-4.9596780">
        <ele>728.5</ele>
        <time>2019-08-14T15:05:11Z</time>
      </trkpt>
      <trkpt lat="41.4074410" lon="-4.9596510">
        <ele>728.6</ele>
        <time>2019-08-14T15:05:12Z</time>
      </trkpt>
      <trkpt lat="41.4074660" lon="-4.9596320">
        <ele>728.6</ele>
        <time>2019-08-14T15:05:13Z</time>
      </trkpt>
      <trkpt lat="41.4074920" lon="-4.9596130">
        <ele>728.6</ele>
        <time>2019-08-14T15:05:14Z</time>
      </trkpt>
      <trkpt lat="41.4075180" lon="-4.9595920">
        <ele>728.6</ele>
        <time>2019-08-14T15:05:15Z</time>
      </trkpt>
      <trkpt lat="41.4075440" lon="-4.9595700">
        <ele>728.6</ele>
        <time>2019-08-14T15:05:16Z</time>
      </trkpt>
      <trkpt lat="41.4075700" lon="-4.9595470">
        <ele>728.6</ele>
        <time>2019-08-14T15:05:17Z</time>
      </trkpt>
      <trkpt lat="41.4075970" lon="-4.9595240">
        <ele>728.6</ele>
        <time>2019-08-14T15:05:18Z</time>
      </trkpt>
      <trkpt lat="41.4076250" lon="-4.9595020">
        <ele>728.6</ele>
        <time>2019-08-14T15:05:19Z</time>
      </trkpt>
      <trkpt lat="41.4076540" lon="-4.9594810">
        <ele>728.6</ele>
        <time>2019-08-14T15:05:20Z</time>
      </trkpt>
      <trkpt lat="41.4076820" lon="-4.9594600">
        <ele>728.6</ele>
        <time>2019-08-14T15:05:21Z</time>
      </trkpt>
      <trkpt lat="41.4077120" lon="-4.9594370">
        <ele>728.6</ele>
        <time>2019-08-14T15:05:22Z</time>
      </trkpt>
      <trkpt lat="41.4077400" lon="-4.9594130">
        <ele>728.6</ele>
        <time>2019-08-14T15:05:23Z</time>
      </trkpt>
      <trkpt lat="41.4077670" lon="-4.9593890">
        <ele>728.7</ele>
        <time>2019-08-14T15:05:24Z</time>
      </trkpt>
      <trkpt lat="41.4077960" lon="-4.9593660">
        <ele>728.7</ele>
        <time>2019-08-14T15:05:25Z</time>
      </trkpt>
      <trkpt lat="41.4078240" lon="-4.9593430">
        <ele>728.7</ele>
        <time>2019-08-14T15:05:26Z</time>
      </trkpt>
      <trkpt lat="41.4078530" lon="-4.9593200">
        <ele>728.8</ele>
        <time>2019-08-14T15:05:27Z</time>
      </trkpt>
      <trkpt lat="41.4078820" lon="-4.9592960">
        <ele>728.8</ele>
        <time>2019-08-14T15:05:28Z</time>
      </trkpt>
      <trkpt lat="41.4079130" lon="-4.9592710">
        <ele>728.8</ele>
        <time>2019-08-14T15:05:29Z</time>
      </trkpt>
      <trkpt lat="41.4079440" lon="-4.9592460">
        <ele>728.9</ele>
        <time>2019-08-14T15:05:30Z</time>
      </trkpt>
      <trkpt lat="41.4079760" lon="-4.9592210">
        <ele>728.9</ele>
        <time>2019-08-14T15:05:31Z</time>
      </trkpt>
      <trkpt lat="41.4080100" lon="-4.9591960">
        <ele>728.9</ele>
        <time>2019-08-14T15:05:32Z</time>
      </trkpt>
      <trkpt lat="41.4080450" lon="-4.9591710">
        <ele>729.0</ele>
        <time>2019-08-14T15:05:33Z</time>
      </trkpt>
      <trkpt lat="41.4080810" lon="-4.9591460">
        <ele>729.0</ele>
        <time>2019-08-14T15:05:34Z</time>
      </trkpt>
      <trkpt lat="41.4081160" lon="-4.9591200">
        <ele>729.0</ele>
        <time>2019-08-14T15:05:35Z</time>
      </trkpt>
      <trkpt lat="41.4081520" lon="-4.9590950">
        <ele>729.1</ele>
        <time>2019-08-14T15:05:36Z</time>
      </trkpt>
      <trkpt lat="41.4081890" lon="-4.9590720">
        <ele>729.1</ele>
        <time>2019-08-14T15:05:37Z</time>
      </trkpt>
      <trkpt lat="41.4082250" lon="-4.9590500">
        <ele>729.1</ele>
        <time>2019-08-14T15:05:38Z</time>
      </trkpt>
      <trkpt lat="41.4082600" lon="-4.9590270">
        <ele>729.2</ele>
        <time>2019-08-14T15:05:39Z</time>
      </trkpt>
      <trkpt lat="41.4082970" lon="-4.9590050">
        <ele>729.2</ele>
        <time>2019-08-14T15:05:40Z</time>
      </trkpt>
      <trkpt lat="41.4083340" lon="-4.9589840">
        <ele>729.2</ele>
        <time>2019-08-14T15:05:41Z</time>
      </trkpt>
      <trkpt lat="41.4083710" lon="-4.9589630">
        <ele>729.3</ele>
        <time>2019-08-14T15:05:42Z</time>
      </trkpt>
      <trkpt lat="41.4084090" lon="-4.9589420">
        <ele>729.3</ele>
        <time>2019-08-14T15:05:43Z</time>
      </trkpt>
      <trkpt lat="41.4084440" lon="-4.9589180">
        <ele>729.3</ele>
        <time>2019-08-14T15:05:44Z</time>
      </trkpt>
      <trkpt lat="41.4084780" lon="-4.9588940">
        <ele>729.3</ele>
        <time>2019-08-14T15:05:45Z</time>
      </trkpt>
      <trkpt lat="41.4085120" lon="-4.9588700">
        <ele>729.4</ele>
        <time>2019-08-14T15:05:46Z</time>
      </trkpt>
      <trkpt lat="41.4085470" lon="-4.9588470">
        <ele>729.4</ele>
        <time>2019-08-14T15:05:47Z</time>
      </trkpt>
      <trkpt lat="41.4085780" lon="-4.9588220">
        <ele>729.4</ele>
        <time>2019-08-14T15:05:48Z</time>
      </trkpt>
      <trkpt lat="41.4086030" lon="-4.9587900">
        <ele>729.4</ele>
        <time>2019-08-14T15:05:49Z</time>
      </trkpt>
      <trkpt lat="41.4086150" lon="-4.9587480">
        <ele>729.5</ele>
        <time>2019-08-14T15:05:50Z</time>
      </trkpt>
      <trkpt lat="41.4086160" lon="-4.9587000">
        <ele>729.8</ele>
        <time>2019-08-14T15:05:51Z</time>
      </trkpt>
      <trkpt lat="41.4086080" lon="-4.9586510">
        <ele>730.0</ele>
        <time>2019-08-14T15:05:52Z</time>
      </trkpt>
      <trkpt lat="41.4085970" lon="-4.9586050">
        <ele>730.2</ele>
        <time>2019-08-14T15:05:53Z</time>
      </trkpt>
      <trkpt lat="41.4085830" lon="-4.9585590">
        <ele>730.4</ele>
        <time>2019-08-14T15:05:54Z</time>
      </trkpt>
      <trkpt lat="41.4085690" lon="-4.9585130">
        <ele>730.6</ele>
        <time>2019-08-14T15:05:55Z</time>
      </trkpt>
      <trkpt lat="41.4085540" lon="-4.9584690">
        <ele>730.7</ele>
        <time>2019-08-14T15:05:56Z</time>
      </trkpt>
      <trkpt lat="41.4085390" lon="-4.9584260">
        <ele>730.9</ele>
        <time>2019-08-14T15:05:57Z</time>
      </trkpt>
      <trkpt lat="41.4085220" lon="-4.9583840">
        <ele>731.1</ele>
        <time>2019-08-14T15:05:58Z</time>
      </trkpt>
      <trkpt lat="41.4085060" lon="-4.9583410">
        <ele>731.3</ele>
        <time>2019-08-14T15:05:59Z</time>
      </trkpt>
      <trkpt lat="41.4084910" lon="-4.9582950">
        <ele>731.4</ele>
        <time>2019-08-14T15:06:00Z</time>
      </trkpt>
      <trkpt lat="41.4084790" lon="-4.9582470">
        <ele>731.4</ele>
        <time>2019-08-14T15:06:01Z</time>
      </trkpt>
      <trkpt lat="41.4084700" lon="-4.9582020">
        <ele>731.3</ele>
        <time>2019-08-14T15:06:02Z</time>
      </trkpt>
      <trkpt lat="41.4084620" lon="-4.9581590">
        <ele>731.3</ele>
        <time>2019-08-14T15:06:03Z</time>
      </trkpt>
      <trkpt lat="41.4084540" lon="-4.9581160">
        <ele>731.2</ele>
        <time>2019-08-14T15:06:04Z</time>
      </trkpt>
      <trkpt lat="41.4084460" lon="-4.9580760">
        <ele>731.2</ele>
        <time>2019-08-14T15:06:05Z</time>
      </trkpt>
      <trkpt lat="41.4084370" lon="-4.9580370">
        <ele>731.1</ele>
        <time>2019-08-14T15:06:06Z</time>
      </trkpt>
      <trkpt lat="41.4084300" lon="-4.9579990">
        <ele>731.1</ele>
        <time>2019-08-14T15:06:07Z</time>
      </trkpt>
      <trkpt lat="41.4084250" lon="-4.9579610">
        <ele>731.0</ele>
        <time>2019-08-14T15:06:08Z</time>
      </trkpt>
      <trkpt lat="41.4084260" lon="-4.9579250">
        <ele>731.0</ele>
        <time>2019-08-14T15:06:09Z</time>
      </trkpt>
      <trkpt lat="41.4084430" lon="-4.9578580">
        <ele>730.9</ele>
        <time>2019-08-14T15:06:11Z</time>
      </trkpt>
      <trkpt lat="41.4084640" lon="-4.9578290">
        <ele>730.9</ele>
        <time>2019-08-14T15:06:12Z</time>
      </trkpt>
      <trkpt lat="41.4084890" lon="-4.9578050">
        <ele>730.8</ele>
        <time>2019-08-14T15:06:13Z</time>
      </trkpt>
      <trkpt lat="41.4085170" lon="-4.9577850">
        <ele>730.8</ele>
        <time>2019-08-14T15:06:14Z</time>
      </trkpt>
      <trkpt lat="41.4085470" lon="-4.9577690">
        <ele>730.7</ele>
        <time>2019-08-14T15:06:15Z</time>
      </trkpt>
      <trkpt lat="41.4085780" lon="-4.9577580">
        <ele>730.7</ele>
        <time>2019-08-14T15:06:16Z</time>
      </trkpt>
      <trkpt lat="41.4086110" lon="-4.9577470">
        <ele>730.6</ele>
        <time>2019-08-14T15:06:17Z</time>
      </trkpt>
      <trkpt lat="41.4086470" lon="-4.9577330">
        <ele>730.6</ele>
        <time>2019-08-14T15:06:18Z</time>
      </trkpt>
      <trkpt lat="41.4086860" lon="-4.9577170">
        <ele>730.6</ele>
        <time>2019-08-14T15:06:19Z</time>
      </trkpt>
      <trkpt lat="41.4087250" lon="-4.9577030">
        <ele>730.5</ele>
        <time>2019-08-14T15:06:20Z</time>
      </trkpt>
      <trkpt lat="41.4087640" lon="-4.9576900">
        <ele>730.5</ele>
        <time>2019-08-14T15:06:21Z</time>
      </trkpt>
      <trkpt lat="41.4088030" lon="-4.9576770">
        <ele>730.5</ele>
        <time>2019-08-14T15:06:22Z</time>
      </trkpt>
      <trkpt lat="41.4088430" lon="-4.9576640">
        <ele>730.5</ele>
        <time>2019-08-14T15:06:23Z</time>
      </trkpt>
      <trkpt lat="41.4088840" lon="-4.9576520">
        <ele>730.4</ele>
        <time>2019-08-14T15:06:24Z</time>
      </trkpt>
      <trkpt lat="41.4089250" lon="-4.9576380">
        <ele>730.4</ele>
        <time>2019-08-14T15:06:25Z</time>
      </trkpt>
      <trkpt lat="41.4089670" lon="-4.9576250">
        <ele>730.4</ele>
        <time>2019-08-14T15:06:26Z</time>
      </trkpt>
      <trkpt lat="41.4090110" lon="-4.9576120">
        <ele>730.4</ele>
        <time>2019-08-14T15:06:27Z</time>
      </trkpt>
      <trkpt lat="41.4090560" lon="-4.9575980">
        <ele>730.4</ele>
        <time>2019-08-14T15:06:28Z</time>
      </trkpt>
      <trkpt lat="41.4091040" lon="-4.9575840">
        <ele>730.3</ele>
        <time>2019-08-14T15:06:29Z</time>
      </trkpt>
      <trkpt lat="41.4091520" lon="-4.9575700">
        <ele>730.3</ele>
        <time>2019-08-14T15:06:30Z</time>
      </trkpt>
      <trkpt lat="41.4092040" lon="-4.9575570">
        <ele>730.3</ele>
        <time>2019-08-14T15:06:31Z</time>
      </trkpt>
      <trkpt lat="41.4092570" lon="-4.9575450">
        <ele>730.3</ele>
        <time>2019-08-14T15:06:32Z</time>
      </trkpt>
      <trkpt lat="41.4093100" lon="-4.9575340">
        <ele>730.3</ele>
        <time>2019-08-14T15:06:33Z</time>
      </trkpt>
      <trkpt lat="41.4093640" lon="-4.9575260">
        <ele>730.3</ele>
        <time>2019-08-14T15:06:34Z</time>
      </trkpt>
      <trkpt lat="41.4094170" lon="-4.9575200">
        <ele>730.4</ele>
        <time>2019-08-14T15:06:35Z</time>
      </trkpt>
      <trkpt lat="41.4094690" lon="-4.9575200">
        <ele>730.4</ele>
        <time>2019-08-14T15:06:36Z</time>
      </trkpt>
      <trkpt lat="41.4095200" lon="-4.9575270">
        <ele>730.5</ele>
        <time>2019-08-14T15:06:37Z</time>
      </trkpt>
      <trkpt lat="41.4095710" lon="-4.9575360">
        <ele>730.6</ele>
        <time>2019-08-14T15:06:38Z</time>
      </trkpt>
      <trkpt lat="41.4096200" lon="-4.9575420">
        <ele>730.6</ele>
        <time>2019-08-14T15:06:39Z</time>
      </trkpt>
      <trkpt lat="41.4096680" lon="-4.9575400">
        <ele>730.6</ele>
        <time>2019-08-14T15:06:40Z</time>
      </trkpt>
      <trkpt lat="41.4097160" lon="-4.9575250">
        <ele>730.6</ele>
        <time>2019-08-14T15:06:41Z</time>
      </trkpt>
      <trkpt lat="41.4097630" lon="-4.9575050">
        <ele>730.6</ele>
        <time>2019-08-14T15:06:42Z</time>
      </trkpt>
      <trkpt lat="41.4098090" lon="-4.9574870">
        <ele>730.6</ele>
        <time>2019-08-14T15:06:43Z</time>
      </trkpt>
      <trkpt lat="41.4098570" lon="-4.9574680">
        <ele>730.4</ele>
        <time>2019-08-14T15:06:44Z</time>
      </trkpt>
      <trkpt lat="41.4099050" lon="-4.9574480">
        <ele>730.3</ele>
        <time>2019-08-14T15:06:45Z</time>
      </trkpt>
      <trkpt lat="41.4099540" lon="-4.9574280">
        <ele>730.1</ele>
        <time>2019-08-14T15:06:46Z</time>
      </trkpt>
      <trkpt lat="41.4100030" lon="-4.9574090">
        <ele>729.9</ele>
        <time>2019-08-14T15:06:47Z</time>
      </trkpt>
      <trkpt lat="41.4100530" lon="-4.9573900">
        <ele>729.7</ele>
        <time>2019-08-14T15:06:48Z</time>
      </trkpt>
      <trkpt lat="41.4101040" lon="-4.9573710">
        <ele>729.6</ele>
        <time>2019-08-14T15:06:49Z</time>
      </trkpt>
      <trkpt lat="41.4101540" lon="-4.9573550">
        <ele>729.6</ele>
        <time>2019-08-14T15:06:50Z</time>
      </trkpt>
      <trkpt lat="41.4102030" lon="-4.9573410">
        <ele>729.6</ele>
        <time>2019-08-14T15:06:51Z</time>
      </trkpt>
      <trkpt lat="41.4102510" lon="-4.9573260">
        <ele>729.6</ele>
        <time>2019-08-14T15:06:52Z</time>
      </trkpt>
      <trkpt lat="41.4102980" lon="-4.9573130">
        <ele>729.6</ele>
        <time>2019-08-14T15:06:53Z</time>
      </trkpt>
      <trkpt lat="41.4103460" lon="-4.9573030">
        <ele>729.6</ele>
        <time>2019-08-14T15:06:54Z</time>
      </trkpt>
      <trkpt lat="41.4103930" lon="-4.9572940">
        <ele>729.7</ele>
        <time>2019-08-14T15:06:55Z</time>
      </trkpt>
      <trkpt lat="41.4104370" lon="-4.9572840">
        <ele>729.8</ele>
        <time>2019-08-14T15:06:56Z</time>
      </trkpt>
      <trkpt lat="41.4104800" lon="-4.9572760">
        <ele>730.0</ele>
        <time>2019-08-14T15:06:57Z</time>
      </trkpt>
      <trkpt lat="41.4105230" lon="-4.9572690">
        <ele>730.1</ele>
        <time>2019-08-14T15:06:58Z</time>
      </trkpt>
      <trkpt lat="41.4105640" lon="-4.9572620">
        <ele>730.4</ele>
        <time>2019-08-14T15:06:59Z</time>
      </trkpt>
      <trkpt lat="41.4106010" lon="-4.9572510">
        <ele>730.6</ele>
        <time>2019-08-14T15:07:00Z</time>
      </trkpt>
      <trkpt lat="41.4106340" lon="-4.9572300">
        <ele>730.8</ele>
        <time>2019-08-14T15:07:01Z</time>
      </trkpt>
      <trkpt lat="41.4106600" lon="-4.9571980">
        <ele>731.0</ele>
        <time>2019-08-14T15:07:02Z</time>
      </trkpt>
      <trkpt lat="41.4106740" lon="-4.9571590">
        <ele>731.2</ele>
        <time>2019-08-14T15:07:03Z</time>
      </trkpt>
      <trkpt lat="41.4106750" lon="-4.9571200">
        <ele>731.7</ele>
        <time>2019-08-14T15:07:04Z</time>
      </trkpt>
      <trkpt lat="41.4106690" lon="-4.9570830">
        <ele>731.8</ele>
        <time>2019-08-14T15:07:05Z</time>
      </trkpt>
      <trkpt lat="41.4106570" lon="-4.9570480">
        <ele>731.9</ele>
        <time>2019-08-14T15:07:06Z</time>
      </trkpt>
      <trkpt lat="41.4106440" lon="-4.9570100">
        <ele>732.0</ele>
        <time>2019-08-14T15:07:07Z</time>
      </trkpt>
      <trkpt lat="41.4106270" lon="-4.9569700">
        <ele>732.4</ele>
        <time>2019-08-14T15:07:08Z</time>
      </trkpt>
      <trkpt lat="41.4106120" lon="-4.9569260">
        <ele>732.7</ele>
        <time>2019-08-14T15:07:09Z</time>
      </trkpt>
      <trkpt lat="41.4105970" lon="-4.9568820">
        <ele>733.0</ele>
        <time>2019-08-14T15:07:10Z</time>
      </trkpt>
      <trkpt lat="41.4105820" lon="-4.9568380">
        <ele>733.3</ele>
        <time>2019-08-14T15:07:11Z</time>
      </trkpt>
      <trkpt lat="41.4105670" lon="-4.9567930">
        <ele>733.5</ele>
        <time>2019-08-14T15:07:12Z</time>
      </trkpt>
      <trkpt lat="41.4105510" lon="-4.9567480">
        <ele>733.5</ele>
        <time>2019-08-14T15:07:13Z</time>
      </trkpt>
      <trkpt lat="41.4105380" lon="-4.9567030">
        <ele>733.6</ele>
        <time>2019-08-14T15:07:14Z</time>
      </trkpt>
      <trkpt lat="41.4105270" lon="-4.9566580">
        <ele>733.6</ele>
        <time>2019-08-14T15:07:15Z</time>
      </trkpt>
      <trkpt lat="41.4105210" lon="-4.9566140">
        <ele>733.6</ele>
        <time>2019-08-14T15:07:16Z</time>
      </trkpt>
      <trkpt lat="41.4105220" lon="-4.9565720">
        <ele>733.7</ele>
        <time>2019-08-14T15:07:17Z</time>
      </trkpt>
      <trkpt lat="41.4105410" lon="-4.9565110">
        <ele>733.7</ele>
        <time>2019-08-14T15:07:19Z</time>
      </trkpt>
      <trkpt lat="41.4105770" lon="-4.9564710">
        <ele>733.8</ele>
        <time>2019-08-14T15:07:21Z</time>
      </trkpt>
      <trkpt lat="41.4106030" lon="-4.9564550">
        <ele>733.8</ele>
        <time>2019-08-14T15:07:22Z</time>
      </trkpt>
      <trkpt lat="41.4106340" lon="-4.9564420">
        <ele>733.9</ele>
        <time>2019-08-14T15:07:23Z</time>
      </trkpt>
      <trkpt lat="41.4106690" lon="-4.9564290">
        <ele>733.9</ele>
        <time>2019-08-14T15:07:24Z</time>
      </trkpt>
      <trkpt lat="41.4107080" lon="-4.9564170">
        <ele>734.0</ele>
        <time>2019-08-14T15:07:25Z</time>
      </trkpt>
      <trkpt lat="41.4107490" lon="-4.9564040">
        <ele>734.0</ele>
        <time>2019-08-14T15:07:26Z</time>
      </trkpt>
      <trkpt lat="41.4107910" lon="-4.9563880">
        <ele>734.0</ele>
        <time>2019-08-14T15:07:27Z</time>
      </trkpt>
      <trkpt lat="41.4108320" lon="-4.9563720">
        <ele>734.0</ele>
        <time>2019-08-14T15:07:28Z</time>
      </trkpt>
      <trkpt lat="41.4108740" lon="-4.9563520">
        <ele>734.1</ele>
        <time>2019-08-14T15:07:29Z</time>
      </trkpt>
      <trkpt lat="41.4109140" lon="-4.9563310">
        <ele>734.1</ele>
        <time>2019-08-14T15:07:30Z</time>
      </trkpt>
      <trkpt lat="41.4109550" lon="-4.9563070">
        <ele>734.1</ele>
        <time>2019-08-14T15:07:31Z</time>
      </trkpt>
      <trkpt lat="41.4109960" lon="-4.9562830">
        <ele>734.1</ele>
        <time>2019-08-14T15:07:32Z</time>
      </trkpt>
      <trkpt lat="41.4110420" lon="-4.9562580">
        <ele>734.1</ele>
        <time>2019-08-14T15:07:33Z</time>
      </trkpt>
      <trkpt lat="41.4110900" lon="-4.9562330">
        <ele>734.1</ele>
        <time>2019-08-14T15:07:34Z</time>
      </trkpt>
      <trkpt lat="41.4111390" lon="-4.9562110">
        <ele>734.0</ele>
        <time>2019-08-14T15:07:35Z</time>
      </trkpt>
      <trkpt lat="41.4111860" lon="-4.9561900">
        <ele>733.9</ele>
        <time>2019-08-14T15:07:36Z</time>
      </trkpt>
      <trkpt lat="41.4112330" lon="-4.9561660">
        <ele>733.7</ele>
        <time>2019-08-14T15:07:37Z</time>
      </trkpt>
      <trkpt lat="41.4112760" lon="-4.9561400">
        <ele>733.5</ele>
        <time>2019-08-14T15:07:38Z</time>
      </trkpt>
      <trkpt lat="41.4113150" lon="-4.9561130">
        <ele>733.3</ele>
        <time>2019-08-14T15:07:39Z</time>
      </trkpt>
      <trkpt lat="41.4113520" lon="-4.9560830">
        <ele>733.1</ele>
        <time>2019-08-14T15:07:40Z</time>
      </trkpt>
      <trkpt lat="41.4113890" lon="-4.9560540">
        <ele>732.9</ele>
        <time>2019-08-14T15:07:41Z</time>
      </trkpt>
      <trkpt lat="41.4114240" lon="-4.9560250">
        <ele>732.7</ele>
        <time>2019-08-14T15:07:42Z</time>
      </trkpt>
      <trkpt lat="41.4114600" lon="-4.9559970">
        <ele>732.5</ele>
        <time>2019-08-14T15:07:43Z</time>
      </trkpt>
      <trkpt lat="41.4114980" lon="-4.9559660">
        <ele>732.3</ele>
        <time>2019-08-14T15:07:44Z</time>
      </trkpt>
      <trkpt lat="41.4115400" lon="-4.9559320">
        <ele>732.0</ele>
        <time>2019-08-14T15:07:45Z</time>
      </trkpt>
      <trkpt lat="41.4115800" lon="-4.9558980">
        <ele>731.7</ele>
        <time>2019-08-14T15:07:46Z</time>
      </trkpt>
      <trkpt lat="41.4116210" lon="-4.9558650">
        <ele>731.4</ele>
        <time>2019-08-14T15:07:47Z</time>
      </trkpt>
      <trkpt lat="41.4116590" lon="-4.9558320">
        <ele>731.0</ele>
        <time>2019-08-14T15:07:48Z</time>
      </trkpt>
      <trkpt lat="41.4116940" lon="-4.9558000">
        <ele>730.7</ele>
        <time>2019-08-14T15:07:49Z</time>
      </trkpt>
      <trkpt lat="41.4117280" lon="-4.9557720">
        <ele>730.3</ele>
        <time>2019-08-14T15:07:50Z</time>
      </trkpt>
      <trkpt lat="41.4117600" lon="-4.9557520">
        <ele>730.0</ele>
        <time>2019-08-14T15:07:51Z</time>
      </trkpt>
      <trkpt lat="41.4117940" lon="-4.9557450">
        <ele>729.7</ele>
        <time>2019-08-14T15:07:52Z</time>
      </trkpt>
      <trkpt lat="41.4118290" lon="-4.9557530">
        <ele>729.6</ele>
        <time>2019-08-14T15:07:53Z</time>
      </trkpt>
      <trkpt lat="41.4118630" lon="-4.9557770">
        <ele>729.6</ele>
        <time>2019-08-14T15:07:54Z</time>
      </trkpt>
      <trkpt lat="41.4118950" lon="-4.9558080">
        <ele>729.6</ele>
        <time>2019-08-14T15:07:55Z</time>
      </trkpt>
      <trkpt lat="41.4119260" lon="-4.9558470">
        <ele>729.6</ele>
        <time>2019-08-14T15:07:56Z</time>
      </trkpt>
      <trkpt lat="41.4119570" lon="-4.9558900">
        <ele>729.6</ele>
        <time>2019-08-14T15:07:57Z</time>
      </trkpt>
      <trkpt lat="41.4119840" lon="-4.9559370">
        <ele>729.5</ele>
        <time>2019-08-14T15:07:58Z</time>
      </trkpt>
      <trkpt lat="41.4120100" lon="-4.9559830">
        <ele>729.5</ele>
        <time>2019-08-14T15:07:59Z</time>
      </trkpt>
      <trkpt lat="41.4120380" lon="-4.9560310">
        <ele>729.5</ele>
        <time>2019-08-14T15:08:00Z</time>
      </trkpt>
      <trkpt lat="41.4120600" lon="-4.9560760">
        <ele>729.5</ele>
        <time>2019-08-14T15:08:01Z</time>
      </trkpt>
      <trkpt lat="41.4120870" lon="-4.9561210">
        <ele>729.5</ele>
        <time>2019-08-14T15:08:02Z</time>
      </trkpt>
      <trkpt lat="41.4121140" lon="-4.9561690">
        <ele>729.4</ele>
        <time>2019-08-14T15:08:03Z</time>
      </trkpt>
      <trkpt lat="41.4121420" lon="-4.9562170">
        <ele>729.4</ele>
        <time>2019-08-14T15:08:04Z</time>
      </trkpt>
      <trkpt lat="41.4121660" lon="-4.9562660">
        <ele>729.4</ele>
        <time>2019-08-14T15:08:05Z</time>
      </trkpt>
      <trkpt lat="41.4121910" lon="-4.9563090">
        <ele>729.4</ele>
        <time>2019-08-14T15:08:06Z</time>
      </trkpt>
      <trkpt lat="41.4122160" lon="-4.9563460">
        <ele>729.3</ele>
        <time>2019-08-14T15:08:07Z</time>
      </trkpt>
      <trkpt lat="41.4122390" lon="-4.9563750">
        <ele>729.3</ele>
        <time>2019-08-14T15:08:08Z</time>
      </trkpt>
      <trkpt lat="41.4122610" lon="-4.9563980">
        <ele>729.3</ele>
        <time>2019-08-14T15:08:09Z</time>
      </trkpt>
      <trkpt lat="41.4123030" lon="-4.9564370">
        <ele>729.3</ele>
        <time>2019-08-14T15:08:11Z</time>
      </trkpt>
      <trkpt lat="41.4123390" lon="-4.9564910">
        <ele>729.2</ele>
        <time>2019-08-14T15:08:13Z</time>
      </trkpt>
      <trkpt lat="41.4123530" lon="-4.9565270">
        <ele>729.2</ele>
        <time>2019-08-14T15:08:14Z</time>
      </trkpt>
      <trkpt lat="41.4123650" lon="-4.9565680">
        <ele>729.3</ele>
        <time>2019-08-14T15:08:15Z</time>
      </trkpt>
      <trkpt lat="41.4123770" lon="-4.9566150">
        <ele>729.2</ele>
        <time>2019-08-14T15:08:16Z</time>
      </trkpt>
      <trkpt lat="41.4123900" lon="-4.9566650">
        <ele>729.2</ele>
        <time>2019-08-14T15:08:17Z</time>
      </trkpt>
      <trkpt lat="41.4124050" lon="-4.9567180">
        <ele>729.2</ele>
        <time>2019-08-14T15:08:18Z</time>
      </trkpt>
      <trkpt lat="41.4124200" lon="-4.9567700">
        <ele>729.2</ele>
        <time>2019-08-14T15:08:19Z</time>
      </trkpt>
      <trkpt lat="41.4124340" lon="-4.9568210">
        <ele>729.2</ele>
        <time>2019-08-14T15:08:20Z</time>
      </trkpt>
      <trkpt lat="41.4124460" lon="-4.9568740">
        <ele>729.2</ele>
        <time>2019-08-14T15:08:21Z</time>
      </trkpt>
      <trkpt lat="41.4124610" lon="-4.9569290">
        <ele>729.2</ele>
        <time>2019-08-14T15:08:22Z</time>
      </trkpt>
      <trkpt lat="41.4124780" lon="-4.9569830">
        <ele>729.1</ele>
        <time>2019-08-14T15:08:23Z</time>
      </trkpt>
      <trkpt lat="41.4124960" lon="-4.9570370">
        <ele>729.1</ele>
        <time>2019-08-14T15:08:24Z</time>
      </trkpt>
      <trkpt lat="41.4125120" lon="-4.9570910">
        <ele>729.1</ele>
        <time>2019-08-14T15:08:25Z</time>
      </trkpt>
      <trkpt lat="41.4125270" lon="-4.9571440">
        <ele>729.1</ele>
        <time>2019-08-14T15:08:26Z</time>
      </trkpt>
      <trkpt lat="41.4125420" lon="-4.9571990">
        <ele>729.0</ele>
        <time>2019-08-14T15:08:27Z</time>
      </trkpt>
      <trkpt lat="41.4125580" lon="-4.9572540">
        <ele>729.0</ele>
        <time>2019-08-14T15:08:28Z</time>
      </trkpt>
      <trkpt lat="41.4125760" lon="-4.9573090">
        <ele>729.0</ele>
        <time>2019-08-14T15:08:29Z</time>
      </trkpt>
      <trkpt lat="41.4125940" lon="-4.9573670">
        <ele>729.0</ele>
        <time>2019-08-14T15:08:30Z</time>
      </trkpt>
      <trkpt lat="41.4126110" lon="-4.9574270">
        <ele>728.9</ele>
        <time>2019-08-14T15:08:31Z</time>
      </trkpt>
      <trkpt lat="41.4126290" lon="-4.9574860">
        <ele>728.9</ele>
        <time>2019-08-14T15:08:32Z</time>
      </trkpt>
      <trkpt lat="41.4126470" lon="-4.9575460">
        <ele>728.9</ele>
        <time>2019-08-14T15:08:33Z</time>
      </trkpt>
      <trkpt lat="41.4126640" lon="-4.9576060">
        <ele>728.8</ele>
        <time>2019-08-14T15:08:34Z</time>
      </trkpt>
      <trkpt lat="41.4126810" lon="-4.9576650">
        <ele>728.8</ele>
        <time>2019-08-14T15:08:35Z</time>
      </trkpt>
      <trkpt lat="41.4126980" lon="-4.9577220">
        <ele>728.8</ele>
        <time>2019-08-14T15:08:36Z</time>
      </trkpt>
      <trkpt lat="41.4127170" lon="-4.9577800">
        <ele>728.7</ele>
        <time>2019-08-14T15:08:37Z</time>
      </trkpt>
      <trkpt lat="41.4127360" lon="-4.9578390">
        <ele>728.7</ele>
        <time>2019-08-14T15:08:38Z</time>
      </trkpt>
      <trkpt lat="41.4127570" lon="-4.9578990">
        <ele>728.7</ele>
        <time>2019-08-14T15:08:39Z</time>
      </trkpt>
      <trkpt lat="41.4127780" lon="-4.9579610">
        <ele>728.6</ele>
        <time>2019-08-14T15:08:40Z</time>
      </trkpt>
      <trkpt lat="41.4127990" lon="-4.9580200">
        <ele>728.6</ele>
        <time>2019-08-14T15:08:41Z</time>
      </trkpt>
      <trkpt lat="41.4128210" lon="-4.9580800">
        <ele>728.5</ele>
        <time>2019-08-14T15:08:42Z</time>
      </trkpt>
      <trkpt lat="41.4128410" lon="-4.9581390">
        <ele>728.5</ele>
        <time>2019-08-14T15:08:43Z</time>
      </trkpt>
      <trkpt lat="41.4128610" lon="-4.9581990">
        <ele>728.4</ele>
        <time>2019-08-14T15:08:44Z</time>
      </trkpt>
      <trkpt lat="41.4128800" lon="-4.9582570">
        <ele>728.4</ele>
        <time>2019-08-14T15:08:45Z</time>
      </trkpt>
      <trkpt lat="41.4128990" lon="-4.9583140">
        <ele>728.4</ele>
        <time>2019-08-14T15:08:46Z</time>
      </trkpt>
      <trkpt lat="41.4129180" lon="-4.9583710">
        <ele>728.4</ele>
        <time>2019-08-14T15:08:47Z</time>
      </trkpt>
      <trkpt lat="41.4129370" lon="-4.9584260">
        <ele>728.3</ele>
        <time>2019-08-14T15:08:48Z</time>
      </trkpt>
      <trkpt lat="41.4129570" lon="-4.9584800">
        <ele>728.3</ele>
        <time>2019-08-14T15:08:49Z</time>
      </trkpt>
      <trkpt lat="41.4129770" lon="-4.9585350">
        <ele>728.3</ele>
        <time>2019-08-14T15:08:50Z</time>
      </trkpt>
      <trkpt lat="41.4129990" lon="-4.9585910">
        <ele>728.3</ele>
        <time>2019-08-14T15:08:51Z</time>
      </trkpt>
      <trkpt lat="41.4130220" lon="-4.9586460">
        <ele>728.3</ele>
        <time>2019-08-14T15:08:52Z</time>
      </trkpt>
      <trkpt lat="41.4130470" lon="-4.9587020">
        <ele>728.2</ele>
        <time>2019-08-14T15:08:53Z</time>
      </trkpt>
      <trkpt lat="41.4130700" lon="-4.9587590">
        <ele>728.2</ele>
        <time>2019-08-14T15:08:54Z</time>
      </trkpt>
      <trkpt lat="41.4130960" lon="-4.9588120">
        <ele>728.2</ele>
        <time>2019-08-14T15:08:55Z</time>
      </trkpt>
      <trkpt lat="41.4131200" lon="-4.9588660">
        <ele>728.1</ele>
        <time>2019-08-14T15:08:56Z</time>
      </trkpt>
      <trkpt lat="41.4131430" lon="-4.9589150">
        <ele>728.1</ele>
        <time>2019-08-14T15:08:57Z</time>
      </trkpt>
      <trkpt lat="41.4131670" lon="-4.9589620">
        <ele>728.1</ele>
        <time>2019-08-14T15:08:58Z</time>
      </trkpt>
      <trkpt lat="41.4131900" lon="-4.9590050">
        <ele>728.0</ele>
        <time>2019-08-14T15:08:59Z</time>
      </trkpt>
      <trkpt lat="41.4132080" lon="-4.9590400">
        <ele>728.0</ele>
        <time>2019-08-14T15:09:00Z</time>
      </trkpt>
      <trkpt lat="41.4132200" lon="-4.9590740">
        <ele>727.9</ele>
        <time>2019-08-14T15:09:02Z</time>
      </trkpt>
      <trkpt lat="41.4131960" lon="-4.9590840">
        <ele>727.9</ele>
        <time>2019-08-14T15:09:06Z</time>
      </trkpt>
      <trkpt lat="41.4131740" lon="-4.9590620">
        <ele>727.9</ele>
        <time>2019-08-14T15:09:09Z</time>
      </trkpt>
      <trkpt lat="41.4132730" lon="-4.9591610">
        <ele>727.8</ele>
        <time>2019-08-14T15:09:54Z</time>
      </trkpt>
      <trkpt lat="41.4132990" lon="-4.9591950">
        <ele>727.8</ele>
        <time>2019-08-14T15:09:55Z</time>
      </trkpt>
      <trkpt lat="41.4133290" lon="-4.9592280">
        <ele>727.8</ele>
        <time>2019-08-14T15:09:56Z</time>
      </trkpt>
      <trkpt lat="41.4133580" lon="-4.9592640">
        <ele>727.8</ele>
        <time>2019-08-14T15:09:57Z</time>
      </trkpt>
      <trkpt lat="41.4133890" lon="-4.9593020">
        <ele>727.8</ele>
        <time>2019-08-14T15:09:58Z</time>
      </trkpt>
      <trkpt lat="41.4134210" lon="-4.9593390">
        <ele>727.7</ele>
        <time>2019-08-14T15:09:59Z</time>
      </trkpt>
      <trkpt lat="41.4134530" lon="-4.9593750">
        <ele>727.7</ele>
        <time>2019-08-14T15:10:00Z</time>
      </trkpt>
      <trkpt lat="41.4134840" lon="-4.9594120">
        <ele>727.7</ele>
        <time>2019-08-14T15:10:01Z</time>
      </trkpt>
      <trkpt lat="41.4135210" lon="-4.9594410">
        <ele>727.7</ele>
        <time>2019-08-14T15:10:02Z</time>
      </trkpt>
      <trkpt lat="41.4135520" lon="-4.9594750">
        <ele>727.7</ele>
        <time>2019-08-14T15:10:03Z</time>
      </trkpt>
      <trkpt lat="41.4135810" lon="-4.9595100">
        <ele>727.6</ele>
        <time>2019-08-14T15:10:04Z</time>
      </trkpt>
      <trkpt lat="41.4136120" lon="-4.9595440">
        <ele>727.6</ele>
        <time>2019-08-14T15:10:05Z</time>
      </trkpt>
      <trkpt lat="41.4136430" lon="-4.9595790">
        <ele>727.6</ele>
        <time>2019-08-14T15:10:06Z</time>
      </trkpt>
      <trkpt lat="41.4136790" lon="-4.9596080">
        <ele>727.6</ele>
        <time>2019-08-14T15:10:07Z</time>
      </trkpt>
      <trkpt lat="41.4137080" lon="-4.9596450">
        <ele>727.5</ele>
        <time>2019-08-14T15:10:08Z</time>
      </trkpt>
      <trkpt lat="41.4137330" lon="-4.9596820">
        <ele>727.5</ele>
        <time>2019-08-14T15:10:09Z</time>
      </trkpt>
      <trkpt lat="41.4137580" lon="-4.9597200">
        <ele>727.5</ele>
        <time>2019-08-14T15:10:10Z</time>
      </trkpt>
      <trkpt lat="41.4137800" lon="-4.9597570">
        <ele>727.4</ele>
        <time>2019-08-14T15:10:11Z</time>
      </trkpt>
      <trkpt lat="41.4138020" lon="-4.9597940">
        <ele>727.3</ele>
        <time>2019-08-14T15:10:12Z</time>
      </trkpt>
      <trkpt lat="41.4138230" lon="-4.9598300">
        <ele>727.2</ele>
        <time>2019-08-14T15:10:13Z</time>
      </trkpt>
      <trkpt lat="41.4138400" lon="-4.9598610">
        <ele>727.2</ele>
        <time>2019-08-14T15:10:14Z</time>
      </trkpt>
      <trkpt lat="41.4138530" lon="-4.9598950">
        <ele>727.2</ele>
        <time>2019-08-14T15:10:15Z</time>
      </trkpt>
      <trkpt lat="41.4138640" lon="-4.9599290">
        <ele>727.2</ele>
        <time>2019-08-14T15:10:16Z</time>
      </trkpt>
      <trkpt lat="41.4138730" lon="-4.9599620">
        <ele>727.2</ele>
        <time>2019-08-14T15:10:17Z</time>
      </trkpt>
      <trkpt lat="41.4138810" lon="-4.9599970">
        <ele>727.2</ele>
        <time>2019-08-14T15:10:18Z</time>
      </trkpt>
      <trkpt lat="41.4138950" lon="-4.9600670">
        <ele>727.2</ele>
        <time>2019-08-14T15:10:20Z</time>
      </trkpt>
      <trkpt lat="41.4139080" lon="-4.9601280">
        <ele>727.2</ele>
        <time>2019-08-14T15:10:22Z</time>
      </trkpt>
      <trkpt lat="41.4139250" lon="-4.9601780">
        <ele>727.2</ele>
        <time>2019-08-14T15:10:24Z</time>
      </trkpt>
      <trkpt lat="41.4139580" lon="-4.9602000">
        <ele>727.1</ele>
        <time>2019-08-14T15:10:26Z</time>
      </trkpt>
      <trkpt lat="41.4140060" lon="-4.9601990">
        <ele>727.1</ele>
        <time>2019-08-14T15:10:28Z</time>
      </trkpt>
      <trkpt lat="41.4140630" lon="-4.9602090">
        <ele>726.9</ele>
        <time>2019-08-14T15:10:30Z</time>
      </trkpt>
      <trkpt lat="41.4140950" lon="-4.9602180">
        <ele>726.8</ele>
        <time>2019-08-14T15:10:31Z</time>
      </trkpt>
      <trkpt lat="41.4141290" lon="-4.9602240">
        <ele>726.8</ele>
        <time>2019-08-14T15:10:32Z</time>
      </trkpt>
      <trkpt lat="41.4141660" lon="-4.9602250">
        <ele>726.7</ele>
        <time>2019-08-14T15:10:33Z</time>
      </trkpt>
      <trkpt lat="41.4142050" lon="-4.9602240">
        <ele>726.5</ele>
        <time>2019-08-14T15:10:34Z</time>
      </trkpt>
      <trkpt lat="41.4142450" lon="-4.9602250">
        <ele>726.4</ele>
        <time>2019-08-14T15:10:35Z</time>
      </trkpt>
      <trkpt lat="41.4142870" lon="-4.9602260">
        <ele>726.3</ele>
        <time>2019-08-14T15:10:36Z</time>
      </trkpt>
      <trkpt lat="41.4143290" lon="-4.9602250">
        <ele>726.2</ele>
        <time>2019-08-14T15:10:37Z</time>
      </trkpt>
      <trkpt lat="41.4143710" lon="-4.9602190">
        <ele>726.1</ele>
        <time>2019-08-14T15:10:38Z</time>
      </trkpt>
      <trkpt lat="41.4144130" lon="-4.9602120">
        <ele>726.0</ele>
        <time>2019-08-14T15:10:39Z</time>
      </trkpt>
      <trkpt lat="41.4144540" lon="-4.9602050">
        <ele>725.9</ele>
        <time>2019-08-14T15:10:40Z</time>
      </trkpt>
      <trkpt lat="41.4144950" lon="-4.9602000">
        <ele>725.8</ele>
        <time>2019-08-14T15:10:41Z</time>
      </trkpt>
      <trkpt lat="41.4145340" lon="-4.9601970">
        <ele>725.8</ele>
        <time>2019-08-14T15:10:42Z</time>
      </trkpt>
      <trkpt lat="41.4145730" lon="-4.9601960">
        <ele>725.7</ele>
        <time>2019-08-14T15:10:43Z</time>
      </trkpt>
      <trkpt lat="41.4146120" lon="-4.9601940">
        <ele>725.6</ele>
        <time>2019-08-14T15:10:44Z</time>
      </trkpt>
      <trkpt lat="41.4146510" lon="-4.9601930">
        <ele>725.6</ele>
        <time>2019-08-14T15:10:45Z</time>
      </trkpt>
      <trkpt lat="41.4146920" lon="-4.9601930">
        <ele>725.5</ele>
        <time>2019-08-14T15:10:46Z</time>
      </trkpt>
      <trkpt lat="41.4147330" lon="-4.9601920">
        <ele>725.4</ele>
        <time>2019-08-14T15:10:47Z</time>
      </trkpt>
      <trkpt lat="41.4147760" lon="-4.9601900">
        <ele>725.3</ele>
        <time>2019-08-14T15:10:48Z</time>
      </trkpt>
      <trkpt lat="41.4148200" lon="-4.9601880">
        <ele>725.1</ele>
        <time>2019-08-14T15:10:49Z</time>
      </trkpt>
      <trkpt lat="41.4148640" lon="-4.9601870">
        <ele>725.0</ele>
        <time>2019-08-14T15:10:50Z</time>
      </trkpt>
      <trkpt lat="41.4149080" lon="-4.9601860">
        <ele>724.9</ele>
        <time>2019-08-14T15:10:51Z</time>
      </trkpt>
      <trkpt lat="41.4149530" lon="-4.9601870">
        <ele>724.8</ele>
        <time>2019-08-14T15:10:52Z</time>
      </trkpt>
      <trkpt lat="41.4149970" lon="-4.9601900">
        <ele>724.7</ele>
        <time>2019-08-14T15:10:53Z</time>
      </trkpt>
      <trkpt lat="41.4150430" lon="-4.9601940">
        <ele>724.6</ele>
        <time>2019-08-14T15:10:54Z</time>
      </trkpt>
      <trkpt lat="41.4150870" lon="-4.9601980">
        <ele>724.5</ele>
        <time>2019-08-14T15:10:55Z</time>
      </trkpt>
      <trkpt lat="41.4151320" lon="-4.9602010">
        <ele>724.4</ele>
        <time>2019-08-14T15:10:56Z</time>
      </trkpt>
      <trkpt lat="41.4151770" lon="-4.9602060">
        <ele>724.4</ele>
        <time>2019-08-14T15:10:57Z</time>
      </trkpt>
      <trkpt lat="41.4152230" lon="-4.9602110">
        <ele>724.4</ele>
        <time>2019-08-14T15:10:58Z</time>
      </trkpt>
      <trkpt lat="41.4152690" lon="-4.9602160">
        <ele>724.3</ele>
        <time>2019-08-14T15:10:59Z</time>
      </trkpt>
      <trkpt lat="41.4153160" lon="-4.9602170">
        <ele>724.3</ele>
        <time>2019-08-14T15:11:00Z</time>
      </trkpt>
      <trkpt lat="41.4153640" lon="-4.9602160">
        <ele>724.2</ele>
        <time>2019-08-14T15:11:01Z</time>
      </trkpt>
      <trkpt lat="41.4154140" lon="-4.9602160">
        <ele>724.2</ele>
        <time>2019-08-14T15:11:02Z</time>
      </trkpt>
      <trkpt lat="41.4154650" lon="-4.9602160">
        <ele>724.2</ele>
        <time>2019-08-14T15:11:03Z</time>
      </trkpt>
      <trkpt lat="41.4155140" lon="-4.9602180">
        <ele>724.1</ele>
        <time>2019-08-14T15:11:04Z</time>
      </trkpt>
      <trkpt lat="41.4155630" lon="-4.9602210">
        <ele>724.1</ele>
        <time>2019-08-14T15:11:05Z</time>
      </trkpt>
      <trkpt lat="41.4156090" lon="-4.9602280">
        <ele>724.1</ele>
        <time>2019-08-14T15:11:06Z</time>
      </trkpt>
      <trkpt lat="41.4156530" lon="-4.9602340">
        <ele>724.0</ele>
        <time>2019-08-14T15:11:07Z</time>
      </trkpt>
      <trkpt lat="41.4156990" lon="-4.9602400">
        <ele>724.0</ele>
        <time>2019-08-14T15:11:08Z</time>
      </trkpt>
      <trkpt lat="41.4157440" lon="-4.9602470">
        <ele>724.0</ele>
        <time>2019-08-14T15:11:09Z</time>
      </trkpt>
      <trkpt lat="41.4157920" lon="-4.9602540">
        <ele>724.0</ele>
        <time>2019-08-14T15:11:10Z</time>
      </trkpt>
      <trkpt lat="41.4158390" lon="-4.9602640">
        <ele>723.9</ele>
        <time>2019-08-14T15:11:11Z</time>
      </trkpt>
      <trkpt lat="41.4158860" lon="-4.9602730">
        <ele>723.9</ele>
        <time>2019-08-14T15:11:12Z</time>
      </trkpt>
      <trkpt lat="41.4159360" lon="-4.9602800">
        <ele>723.8</ele>
        <time>2019-08-14T15:11:13Z</time>
      </trkpt>
      <trkpt lat="41.4159850" lon="-4.9602870">
        <ele>723.8</ele>
        <time>2019-08-14T15:11:14Z</time>
      </trkpt>
      <trkpt lat="41.4160330" lon="-4.9602980">
        <ele>723.8</ele>
        <time>2019-08-14T15:11:15Z</time>
      </trkpt>
      <trkpt lat="41.4160790" lon="-4.9603090">
        <ele>723.7</ele>
        <time>2019-08-14T15:11:16Z</time>
      </trkpt>
      <trkpt lat="41.4161250" lon="-4.9603180">
        <ele>723.7</ele>
        <time>2019-08-14T15:11:17Z</time>
      </trkpt>
      <trkpt lat="41.4161710" lon="-4.9603270">
        <ele>723.7</ele>
        <time>2019-08-14T15:11:18Z</time>
      </trkpt>
      <trkpt lat="41.4162170" lon="-4.9603360">
        <ele>723.6</ele>
        <time>2019-08-14T15:11:19Z</time>
      </trkpt>
      <trkpt lat="41.4162610" lon="-4.9603480">
        <ele>723.6</ele>
        <time>2019-08-14T15:11:20Z</time>
      </trkpt>
      <trkpt lat="41.4163040" lon="-4.9603610">
        <ele>723.6</ele>
        <time>2019-08-14T15:11:21Z</time>
      </trkpt>
      <trkpt lat="41.4163450" lon="-4.9603760">
        <ele>723.5</ele>
        <time>2019-08-14T15:11:22Z</time>
      </trkpt>
      <trkpt lat="41.4163830" lon="-4.9603920">
        <ele>723.5</ele>
        <time>2019-08-14T15:11:23Z</time>
      </trkpt>
      <trkpt lat="41.4164190" lon="-4.9604060">
        <ele>723.5</ele>
        <time>2019-08-14T15:11:24Z</time>
      </trkpt>
      <trkpt lat="41.4164540" lon="-4.9604180">
        <ele>723.5</ele>
        <time>2019-08-14T15:11:25Z</time>
      </trkpt>
      <trkpt lat="41.4164890" lon="-4.9604290">
        <ele>723.4</ele>
        <time>2019-08-14T15:11:26Z</time>
      </trkpt>
      <trkpt lat="41.4165250" lon="-4.9604390">
        <ele>723.4</ele>
        <time>2019-08-14T15:11:27Z</time>
      </trkpt>
      <trkpt lat="41.4165610" lon="-4.9604490">
        <ele>723.3</ele>
        <time>2019-08-14T15:11:28Z</time>
      </trkpt>
      <trkpt lat="41.4165990" lon="-4.9604610">
        <ele>723.3</ele>
        <time>2019-08-14T15:11:29Z</time>
      </trkpt>
      <trkpt lat="41.4166370" lon="-4.9604720">
        <ele>723.2</ele>
        <time>2019-08-14T15:11:30Z</time>
      </trkpt>
      <trkpt lat="41.4166750" lon="-4.9604840">
        <ele>723.2</ele>
        <time>2019-08-14T15:11:31Z</time>
      </trkpt>
      <trkpt lat="41.4167150" lon="-4.9604960">
        <ele>723.2</ele>
        <time>2019-08-14T15:11:32Z</time>
      </trkpt>
      <trkpt lat="41.4167560" lon="-4.9605090">
        <ele>723.2</ele>
        <time>2019-08-14T15:11:33Z</time>
      </trkpt>
      <trkpt lat="41.4167980" lon="-4.9605240">
        <ele>723.1</ele>
        <time>2019-08-14T15:11:34Z</time>
      </trkpt>
      <trkpt lat="41.4168410" lon="-4.9605400">
        <ele>723.1</ele>
        <time>2019-08-14T15:11:35Z</time>
      </trkpt>
      <trkpt lat="41.4168840" lon="-4.9605570">
        <ele>723.1</ele>
        <time>2019-08-14T15:11:36Z</time>
      </trkpt>
      <trkpt lat="41.4169280" lon="-4.9605730">
        <ele>723.1</ele>
        <time>2019-08-14T15:11:37Z</time>
      </trkpt>
      <trkpt lat="41.4169730" lon="-4.9605900">
        <ele>723.0</ele>
        <time>2019-08-14T15:11:38Z</time>
      </trkpt>
      <trkpt lat="41.4170180" lon="-4.9606080">
        <ele>723.0</ele>
        <time>2019-08-14T15:11:39Z</time>
      </trkpt>
      <trkpt lat="41.4170630" lon="-4.9606260">
        <ele>723.1</ele>
        <time>2019-08-14T15:11:40Z</time>
      </trkpt>
      <trkpt lat="41.4171080" lon="-4.9606450">
        <ele>723.0</ele>
        <time>2019-08-14T15:11:41Z</time>
      </trkpt>
      <trkpt lat="41.4171540" lon="-4.9606650">
        <ele>723.0</ele>
        <time>2019-08-14T15:11:42Z</time>
      </trkpt>
      <trkpt lat="41.4172000" lon="-4.9606850">
        <ele>723.1</ele>
        <time>2019-08-14T15:11:43Z</time>
      </trkpt>
      <trkpt lat="41.4172450" lon="-4.9606990">
        <ele>723.1</ele>
        <time>2019-08-14T15:11:44Z</time>
      </trkpt>
      <trkpt lat="41.4172900" lon="-4.9607100">
        <ele>723.1</ele>
        <time>2019-08-14T15:11:45Z</time>
      </trkpt>
      <trkpt lat="41.4173360" lon="-4.9607240">
        <ele>723.1</ele>
        <time>2019-08-14T15:11:46Z</time>
      </trkpt>
      <trkpt lat="41.4173800" lon="-4.9607420">
        <ele>723.1</ele>
        <time>2019-08-14T15:11:47Z</time>
      </trkpt>
      <trkpt lat="41.4174260" lon="-4.9607620">
        <ele>723.2</ele>
        <time>2019-08-14T15:11:48Z</time>
      </trkpt>
      <trkpt lat="41.4174710" lon="-4.9607820">
        <ele>723.2</ele>
        <time>2019-08-14T15:11:49Z</time>
      </trkpt>
      <trkpt lat="41.4175160" lon="-4.9608020">
        <ele>723.2</ele>
        <time>2019-08-14T15:11:50Z</time>
      </trkpt>
      <trkpt lat="41.4175590" lon="-4.9608230">
        <ele>723.3</ele>
        <time>2019-08-14T15:11:51Z</time>
      </trkpt>
      <trkpt lat="41.4176000" lon="-4.9608440">
        <ele>723.3</ele>
        <time>2019-08-14T15:11:52Z</time>
      </trkpt>
      <trkpt lat="41.4176430" lon="-4.9608630">
        <ele>723.4</ele>
        <time>2019-08-14T15:11:53Z</time>
      </trkpt>
      <trkpt lat="41.4176820" lon="-4.9608820">
        <ele>723.4</ele>
        <time>2019-08-14T15:11:54Z</time>
      </trkpt>
      <trkpt lat="41.4177210" lon="-4.9609010">
        <ele>723.4</ele>
        <time>2019-08-14T15:11:55Z</time>
      </trkpt>
      <trkpt lat="41.4177590" lon="-4.9609220">
        <ele>723.5</ele>
        <time>2019-08-14T15:11:56Z</time>
      </trkpt>
      <trkpt lat="41.4177990" lon="-4.9609430">
        <ele>723.5</ele>
        <time>2019-08-14T15:11:57Z</time>
      </trkpt>
      <trkpt lat="41.4178380" lon="-4.9609650">
        <ele>723.5</ele>
        <time>2019-08-14T15:11:58Z</time>
      </trkpt>
      <trkpt lat="41.4178770" lon="-4.9609850">
        <ele>723.6</ele>
        <time>2019-08-14T15:11:59Z</time>
      </trkpt>
      <trkpt lat="41.4179170" lon="-4.9610050">
        <ele>723.6</ele>
        <time>2019-08-14T15:12:00Z</time>
      </trkpt>
      <trkpt lat="41.4179560" lon="-4.9610250">
        <ele>723.6</ele>
        <time>2019-08-14T15:12:01Z</time>
      </trkpt>
      <trkpt lat="41.4179940" lon="-4.9610460">
        <ele>723.7</ele>
        <time>2019-08-14T15:12:02Z</time>
      </trkpt>
      <trkpt lat="41.4180280" lon="-4.9610620">
        <ele>723.7</ele>
        <time>2019-08-14T15:12:03Z</time>
      </trkpt>
      <trkpt lat="41.4180600" lon="-4.9610770">
        <ele>723.7</ele>
        <time>2019-08-14T15:12:04Z</time>
      </trkpt>
      <trkpt lat="41.4180890" lon="-4.9610940">
        <ele>723.7</ele>
        <time>2019-08-14T15:12:05Z</time>
      </trkpt>
      <trkpt lat="41.4181150" lon="-4.9611140">
        <ele>723.7</ele>
        <time>2019-08-14T15:12:06Z</time>
      </trkpt>
      <trkpt lat="41.4181390" lon="-4.9611340">
        <ele>723.6</ele>
        <time>2019-08-14T15:12:07Z</time>
      </trkpt>
      <trkpt lat="41.4181640" lon="-4.9611550">
        <ele>723.6</ele>
        <time>2019-08-14T15:12:08Z</time>
      </trkpt>
      <trkpt lat="41.4181890" lon="-4.9611750">
        <ele>723.6</ele>
        <time>2019-08-14T15:12:09Z</time>
      </trkpt>
      <trkpt lat="41.4182160" lon="-4.9611940">
        <ele>723.5</ele>
        <time>2019-08-14T15:12:10Z</time>
      </trkpt>
      <trkpt lat="41.4182480" lon="-4.9612160">
        <ele>723.4</ele>
        <time>2019-08-14T15:12:11Z</time>
      </trkpt>
      <trkpt lat="41.4182800" lon="-4.9612390">
        <ele>723.2</ele>
        <time>2019-08-14T15:12:12Z</time>
      </trkpt>
      <trkpt lat="41.4183150" lon="-4.9612630">
        <ele>723.1</ele>
        <time>2019-08-14T15:12:13Z</time>
      </trkpt>
      <trkpt lat="41.4183490" lon="-4.9612900">
        <ele>723.0</ele>
        <time>2019-08-14T15:12:14Z</time>
      </trkpt>
      <trkpt lat="41.4183840" lon="-4.9613190">
        <ele>722.9</ele>
        <time>2019-08-14T15:12:15Z</time>
      </trkpt>
      <trkpt lat="41.4184200" lon="-4.9613470">
        <ele>722.8</ele>
        <time>2019-08-14T15:12:16Z</time>
      </trkpt>
      <trkpt lat="41.4184580" lon="-4.9613640">
        <ele>722.6</ele>
        <time>2019-08-14T15:12:17Z</time>
      </trkpt>
      <trkpt lat="41.4184980" lon="-4.9613620">
        <ele>722.4</ele>
        <time>2019-08-14T15:12:18Z</time>
      </trkpt>
      <trkpt lat="41.4185380" lon="-4.9613500">
        <ele>722.3</ele>
        <time>2019-08-14T15:12:19Z</time>
      </trkpt>
      <trkpt lat="41.4185800" lon="-4.9613410">
        <ele>722.2</ele>
        <time>2019-08-14T15:12:20Z</time>
      </trkpt>
      <trkpt lat="41.4186190" lon="-4.9613470">
        <ele>721.8</ele>
        <time>2019-08-14T15:12:21Z</time>
      </trkpt>
      <trkpt lat="41.4186580" lon="-4.9613660">
        <ele>721.8</ele>
        <time>2019-08-14T15:12:22Z</time>
      </trkpt>
      <trkpt lat="41.4186950" lon="-4.9613910">
        <ele>721.8</ele>
        <time>2019-08-14T15:12:23Z</time>
      </trkpt>
      <trkpt lat="41.4187310" lon="-4.9614110">
        <ele>721.7</ele>
        <time>2019-08-14T15:12:24Z</time>
      </trkpt>
      <trkpt lat="41.4187630" lon="-4.9614240">
        <ele>721.6</ele>
        <time>2019-08-14T15:12:25Z</time>
      </trkpt>
      <trkpt lat="41.4187920" lon="-4.9614350">
        <ele>721.6</ele>
        <time>2019-08-14T15:12:26Z</time>
      </trkpt>
      <trkpt lat="41.4188250" lon="-4.9614440">
        <ele>721.5</ele>
        <time>2019-08-14T15:12:27Z</time>
      </trkpt>
      <trkpt lat="41.4188610" lon="-4.9614500">
        <ele>721.4</ele>
        <time>2019-08-14T15:12:28Z</time>
      </trkpt>
      <trkpt lat="41.4189030" lon="-4.9614530">
        <ele>721.3</ele>
        <time>2019-08-14T15:12:29Z</time>
      </trkpt>
      <trkpt lat="41.4189460" lon="-4.9614540">
        <ele>721.2</ele>
        <time>2019-08-14T15:12:30Z</time>
      </trkpt>
      <trkpt lat="41.4189880" lon="-4.9614590">
        <ele>721.2</ele>
        <time>2019-08-14T15:12:31Z</time>
      </trkpt>
      <trkpt lat="41.4190320" lon="-4.9614650">
        <ele>721.1</ele>
        <time>2019-08-14T15:12:32Z</time>
      </trkpt>
      <trkpt lat="41.4190740" lon="-4.9614720">
        <ele>721.0</ele>
        <time>2019-08-14T15:12:33Z</time>
      </trkpt>
      <trkpt lat="41.4191130" lon="-4.9614780">
        <ele>720.9</ele>
        <time>2019-08-14T15:12:34Z</time>
      </trkpt>
      <trkpt lat="41.4191520" lon="-4.9614870">
        <ele>720.8</ele>
        <time>2019-08-14T15:12:35Z</time>
      </trkpt>
      <trkpt lat="41.4191930" lon="-4.9615000">
        <ele>720.8</ele>
        <time>2019-08-14T15:12:36Z</time>
      </trkpt>
      <trkpt lat="41.4192300" lon="-4.9615050">
        <ele>720.7</ele>
        <time>2019-08-14T15:12:37Z</time>
      </trkpt>
      <trkpt lat="41.4192670" lon="-4.9615070">
        <ele>720.7</ele>
        <time>2019-08-14T15:12:38Z</time>
      </trkpt>
      <trkpt lat="41.4193070" lon="-4.9615020">
        <ele>720.7</ele>
        <time>2019-08-14T15:12:39Z</time>
      </trkpt>
      <trkpt lat="41.4193360" lon="-4.9614960">
        <ele>720.6</ele>
        <time>2019-08-14T15:12:40Z</time>
      </trkpt>
      <trkpt lat="41.4193650" lon="-4.9614960">
        <ele>720.6</ele>
        <time>2019-08-14T15:12:41Z</time>
      </trkpt>
      <trkpt lat="41.4193980" lon="-4.9615030">
        <ele>720.6</ele>
        <time>2019-08-14T15:12:42Z</time>
      </trkpt>
      <trkpt lat="41.4194350" lon="-4.9615160">
        <ele>720.5</ele>
        <time>2019-08-14T15:12:43Z</time>
      </trkpt>
      <trkpt lat="41.4194730" lon="-4.9615320">
        <ele>720.4</ele>
        <time>2019-08-14T15:12:44Z</time>
      </trkpt>
      <trkpt lat="41.4195160" lon="-4.9615450">
        <ele>720.4</ele>
        <time>2019-08-14T15:12:45Z</time>
      </trkpt>
      <trkpt lat="41.4195590" lon="-4.9615630">
        <ele>720.4</ele>
        <time>2019-08-14T15:12:46Z</time>
      </trkpt>
      <trkpt lat="41.4196030" lon="-4.9615760">
        <ele>720.4</ele>
        <time>2019-08-14T15:12:47Z</time>
      </trkpt>
      <trkpt lat="41.4196510" lon="-4.9615840">
        <ele>720.3</ele>
        <time>2019-08-14T15:12:48Z</time>
      </trkpt>
      <trkpt lat="41.4196980" lon="-4.9615860">
        <ele>720.3</ele>
        <time>2019-08-14T15:12:49Z</time>
      </trkpt>
      <trkpt lat="41.4197400" lon="-4.9615900">
        <ele>720.2</ele>
        <time>2019-08-14T15:12:50Z</time>
      </trkpt>
      <trkpt lat="41.4197830" lon="-4.9615890">
        <ele>720.2</ele>
        <time>2019-08-14T15:12:51Z</time>
      </trkpt>
      <trkpt lat="41.4198260" lon="-4.9615950">
        <ele>720.2</ele>
        <time>2019-08-14T15:12:52Z</time>
      </trkpt>
      <trkpt lat="41.4198680" lon="-4.9616070">
        <ele>720.2</ele>
        <time>2019-08-14T15:12:53Z</time>
      </trkpt>
      <trkpt lat="41.4199080" lon="-4.9616120">
        <ele>720.1</ele>
        <time>2019-08-14T15:12:54Z</time>
      </trkpt>
      <trkpt lat="41.4199510" lon="-4.9616100">
        <ele>720.1</ele>
        <time>2019-08-14T15:12:55Z</time>
      </trkpt>
      <trkpt lat="41.4199860" lon="-4.9616120">
        <ele>720.1</ele>
        <time>2019-08-14T15:12:56Z</time>
      </trkpt>
      <trkpt lat="41.4200230" lon="-4.9616160">
        <ele>720.1</ele>
        <time>2019-08-14T15:12:57Z</time>
      </trkpt>
      <trkpt lat="41.4200600" lon="-4.9616210">
        <ele>720.1</ele>
        <time>2019-08-14T15:12:58Z</time>
      </trkpt>
      <trkpt lat="41.4201000" lon="-4.9616220">
        <ele>720.1</ele>
        <time>2019-08-14T15:12:59Z</time>
      </trkpt>
      <trkpt lat="41.4201450" lon="-4.9616240">
        <ele>720.1</ele>
        <time>2019-08-14T15:13:00Z</time>
      </trkpt>
      <trkpt lat="41.4201920" lon="-4.9616210">
        <ele>720.1</ele>
        <time>2019-08-14T15:13:01Z</time>
      </trkpt>
      <trkpt lat="41.4202330" lon="-4.9616190">
        <ele>720.1</ele>
        <time>2019-08-14T15:13:02Z</time>
      </trkpt>
      <trkpt lat="41.4202710" lon="-4.9616160">
        <ele>720.1</ele>
        <time>2019-08-14T15:13:03Z</time>
      </trkpt>
      <trkpt lat="41.4203070" lon="-4.9616190">
        <ele>720.0</ele>
        <time>2019-08-14T15:13:04Z</time>
      </trkpt>
      <trkpt lat="41.4203460" lon="-4.9616270">
        <ele>720.0</ele>
        <time>2019-08-14T15:13:05Z</time>
      </trkpt>
      <trkpt lat="41.4203900" lon="-4.9616380">
        <ele>720.0</ele>
        <time>2019-08-14T15:13:06Z</time>
      </trkpt>
      <trkpt lat="41.4204270" lon="-4.9616470">
        <ele>720.0</ele>
        <time>2019-08-14T15:13:07Z</time>
      </trkpt>
      <trkpt lat="41.4204580" lon="-4.9616500">
        <ele>720.0</ele>
        <time>2019-08-14T15:13:08Z</time>
      </trkpt>
      <trkpt lat="41.4205010" lon="-4.9616580">
        <ele>720.0</ele>
        <time>2019-08-14T15:13:09Z</time>
      </trkpt>
      <trkpt lat="41.4205470" lon="-4.9616690">
        <ele>720.0</ele>
        <time>2019-08-14T15:13:10Z</time>
      </trkpt>
      <trkpt lat="41.4205970" lon="-4.9616830">
        <ele>720.0</ele>
        <time>2019-08-14T15:13:11Z</time>
      </trkpt>
      <trkpt lat="41.4206460" lon="-4.9616960">
        <ele>719.9</ele>
        <time>2019-08-14T15:13:12Z</time>
      </trkpt>
      <trkpt lat="41.4206970" lon="-4.9617070">
        <ele>719.9</ele>
        <time>2019-08-14T15:13:13Z</time>
      </trkpt>
      <trkpt lat="41.4207360" lon="-4.9617130">
        <ele>719.9</ele>
        <time>2019-08-14T15:13:14Z</time>
      </trkpt>
      <trkpt lat="41.4207710" lon="-4.9617210">
        <ele>719.9</ele>
        <time>2019-08-14T15:13:15Z</time>
      </trkpt>
      <trkpt lat="41.4208100" lon="-4.9617270">
        <ele>719.9</ele>
        <time>2019-08-14T15:13:16Z</time>
      </trkpt>
      <trkpt lat="41.4208500" lon="-4.9617330">
        <ele>719.9</ele>
        <time>2019-08-14T15:13:17Z</time>
      </trkpt>
      <trkpt lat="41.4208870" lon="-4.9617470">
        <ele>719.9</ele>
        <time>2019-08-14T15:13:18Z</time>
      </trkpt>
      <trkpt lat="41.4209170" lon="-4.9617570">
        <ele>719.9</ele>
        <time>2019-08-14T15:13:19Z</time>
      </trkpt>
      <trkpt lat="41.4209550" lon="-4.9617650">
        <ele>719.8</ele>
        <time>2019-08-14T15:13:20Z</time>
      </trkpt>
      <trkpt lat="41.4209900" lon="-4.9617770">
        <ele>719.8</ele>
        <time>2019-08-14T15:13:21Z</time>
      </trkpt>
      <trkpt lat="41.4210260" lon="-4.9617960">
        <ele>719.8</ele>
        <time>2019-08-14T15:13:22Z</time>
      </trkpt>
      <trkpt lat="41.4210750" lon="-4.9618170">
        <ele>719.8</ele>
        <time>2019-08-14T15:13:23Z</time>
      </trkpt>
      <trkpt lat="41.4211250" lon="-4.9618460">
        <ele>719.8</ele>
        <time>2019-08-14T15:13:24Z</time>
      </trkpt>
      <trkpt lat="41.4211720" lon="-4.9618590">
        <ele>719.8</ele>
        <time>2019-08-14T15:13:25Z</time>
      </trkpt>
      <trkpt lat="41.4212210" lon="-4.9618730">
        <ele>719.8</ele>
        <time>2019-08-14T15:13:26Z</time>
      </trkpt>
      <trkpt lat="41.4212680" lon="-4.9618880">
        <ele>719.8</ele>
        <time>2019-08-14T15:13:27Z</time>
      </trkpt>
      <trkpt lat="41.4213070" lon="-4.9619030">
        <ele>719.8</ele>
        <time>2019-08-14T15:13:28Z</time>
      </trkpt>
      <trkpt lat="41.4213440" lon="-4.9619150">
        <ele>719.8</ele>
        <time>2019-08-14T15:13:29Z</time>
      </trkpt>
      <trkpt lat="41.4213820" lon="-4.9619190">
        <ele>719.8</ele>
        <time>2019-08-14T15:13:30Z</time>
      </trkpt>
      <trkpt lat="41.4214140" lon="-4.9619270">
        <ele>719.9</ele>
        <time>2019-08-14T15:13:31Z</time>
      </trkpt>
      <trkpt lat="41.4214450" lon="-4.9619450">
        <ele>719.9</ele>
        <time>2019-08-14T15:13:32Z</time>
      </trkpt>
      <trkpt lat="41.4214770" lon="-4.9619690">
        <ele>719.9</ele>
        <time>2019-08-14T15:13:33Z</time>
      </trkpt>
      <trkpt lat="41.4215120" lon="-4.9619850">
        <ele>720.0</ele>
        <time>2019-08-14T15:13:34Z</time>
      </trkpt>
      <trkpt lat="41.4215500" lon="-4.9620090">
        <ele>720.0</ele>
        <time>2019-08-14T15:13:35Z</time>
      </trkpt>
      <trkpt lat="41.4215790" lon="-4.9620390">
        <ele>720.0</ele>
        <time>2019-08-14T15:13:36Z</time>
      </trkpt>
      <trkpt lat="41.4216110" lon="-4.9620650">
        <ele>720.0</ele>
        <time>2019-08-14T15:13:37Z</time>
      </trkpt>
      <trkpt lat="41.4216530" lon="-4.9620980">
        <ele>720.1</ele>
        <time>2019-08-14T15:13:38Z</time>
      </trkpt>
      <trkpt lat="41.4216920" lon="-4.9621360">
        <ele>720.1</ele>
        <time>2019-08-14T15:13:39Z</time>
      </trkpt>
      <trkpt lat="41.4217280" lon="-4.9621610">
        <ele>720.1</ele>
        <time>2019-08-14T15:13:40Z</time>
      </trkpt>
      <trkpt lat="41.4217700" lon="-4.9621790">
        <ele>720.1</ele>
        <time>2019-08-14T15:13:41Z</time>
      </trkpt>
      <trkpt lat="41.4218090" lon="-4.9621930">
        <ele>720.1</ele>
        <time>2019-08-14T15:13:42Z</time>
      </trkpt>
      <trkpt lat="41.4218440" lon="-4.9622050">
        <ele>720.0</ele>
        <time>2019-08-14T15:13:43Z</time>
      </trkpt>
      <trkpt lat="41.4218800" lon="-4.9622200">
        <ele>720.0</ele>
        <time>2019-08-14T15:13:44Z</time>
      </trkpt>
      <trkpt lat="41.4219100" lon="-4.9622360">
        <ele>719.9</ele>
        <time>2019-08-14T15:13:45Z</time>
      </trkpt>
      <trkpt lat="41.4219430" lon="-4.9622500">
        <ele>719.9</ele>
        <time>2019-08-14T15:13:46Z</time>
      </trkpt>
      <trkpt lat="41.4219750" lon="-4.9622640">
        <ele>719.8</ele>
        <time>2019-08-14T15:13:47Z</time>
      </trkpt>
      <trkpt lat="41.4220070" lon="-4.9622810">
        <ele>719.8</ele>
        <time>2019-08-14T15:13:48Z</time>
      </trkpt>
      <trkpt lat="41.4220410" lon="-4.9622980">
        <ele>719.7</ele>
        <time>2019-08-14T15:13:49Z</time>
      </trkpt>
      <trkpt lat="41.4220780" lon="-4.9623150">
        <ele>719.6</ele>
        <time>2019-08-14T15:13:50Z</time>
      </trkpt>
      <trkpt lat="41.4221140" lon="-4.9623400">
        <ele>719.5</ele>
        <time>2019-08-14T15:13:51Z</time>
      </trkpt>
      <trkpt lat="41.4221460" lon="-4.9623640">
        <ele>719.4</ele>
        <time>2019-08-14T15:13:52Z</time>
      </trkpt>
      <trkpt lat="41.4221770" lon="-4.9623860">
        <ele>719.4</ele>
        <time>2019-08-14T15:13:53Z</time>
      </trkpt>
      <trkpt lat="41.4222140" lon="-4.9624060">
        <ele>719.3</ele>
        <time>2019-08-14T15:13:54Z</time>
      </trkpt>
      <trkpt lat="41.4222480" lon="-4.9624260">
        <ele>719.2</ele>
        <time>2019-08-14T15:13:55Z</time>
      </trkpt>
      <trkpt lat="41.4222860" lon="-4.9624520">
        <ele>719.1</ele>
        <time>2019-08-14T15:13:56Z</time>
      </trkpt>
      <trkpt lat="41.4223300" lon="-4.9624920">
        <ele>719.0</ele>
        <time>2019-08-14T15:13:57Z</time>
      </trkpt>
      <trkpt lat="41.4223730" lon="-4.9625240">
        <ele>718.9</ele>
        <time>2019-08-14T15:13:58Z</time>
      </trkpt>
      <trkpt lat="41.4224130" lon="-4.9625540">
        <ele>718.7</ele>
        <time>2019-08-14T15:13:59Z</time>
      </trkpt>
      <trkpt lat="41.4224530" lon="-4.9625810">
        <ele>718.7</ele>
        <time>2019-08-14T15:14:00Z</time>
      </trkpt>
      <trkpt lat="41.4224940" lon="-4.9626100">
        <ele>718.6</ele>
        <time>2019-08-14T15:14:01Z</time>
      </trkpt>
      <trkpt lat="41.4225340" lon="-4.9626400">
        <ele>718.5</ele>
        <time>2019-08-14T15:14:02Z</time>
      </trkpt>
      <trkpt lat="41.4225760" lon="-4.9626680">
        <ele>718.5</ele>
        <time>2019-08-14T15:14:03Z</time>
      </trkpt>
      <trkpt lat="41.4226170" lon="-4.9626940">
        <ele>718.4</ele>
        <time>2019-08-14T15:14:04Z</time>
      </trkpt>
      <trkpt lat="41.4226570" lon="-4.9627200">
        <ele>718.3</ele>
        <time>2019-08-14T15:14:05Z</time>
      </trkpt>
      <trkpt lat="41.4226990" lon="-4.9627490">
        <ele>718.2</ele>
        <time>2019-08-14T15:14:06Z</time>
      </trkpt>
      <trkpt lat="41.4227420" lon="-4.9627790">
        <ele>718.2</ele>
        <time>2019-08-14T15:14:07Z</time>
      </trkpt>
      <trkpt lat="41.4227840" lon="-4.9628080">
        <ele>718.1</ele>
        <time>2019-08-14T15:14:08Z</time>
      </trkpt>
      <trkpt lat="41.4228260" lon="-4.9628370">
        <ele>718.0</ele>
        <time>2019-08-14T15:14:09Z</time>
      </trkpt>
      <trkpt lat="41.4228680" lon="-4.9628640">
        <ele>717.9</ele>
        <time>2019-08-14T15:14:10Z</time>
      </trkpt>
      <trkpt lat="41.4229090" lon="-4.9628930">
        <ele>717.9</ele>
        <time>2019-08-14T15:14:11Z</time>
      </trkpt>
      <trkpt lat="41.4229470" lon="-4.9629200">
        <ele>717.8</ele>
        <time>2019-08-14T15:14:12Z</time>
      </trkpt>
      <trkpt lat="41.4229860" lon="-4.9629480">
        <ele>717.7</ele>
        <time>2019-08-14T15:14:13Z</time>
      </trkpt>
      <trkpt lat="41.4230260" lon="-4.9629760">
        <ele>717.6</ele>
        <time>2019-08-14T15:14:14Z</time>
      </trkpt>
      <trkpt lat="41.4230670" lon="-4.9630040">
        <ele>717.5</ele>
        <time>2019-08-14T15:14:15Z</time>
      </trkpt>
      <trkpt lat="41.4231090" lon="-4.9630310">
        <ele>717.4</ele>
        <time>2019-08-14T15:14:16Z</time>
      </trkpt>
      <trkpt lat="41.4231500" lon="-4.9630610">
        <ele>717.3</ele>
        <time>2019-08-14T15:14:17Z</time>
      </trkpt>
      <trkpt lat="41.4231910" lon="-4.9630900">
        <ele>717.3</ele>
        <time>2019-08-14T15:14:18Z</time>
      </trkpt>
      <trkpt lat="41.4232290" lon="-4.9631170">
        <ele>717.2</ele>
        <time>2019-08-14T15:14:19Z</time>
      </trkpt>
      <trkpt lat="41.4232670" lon="-4.9631440">
        <ele>717.2</ele>
        <time>2019-08-14T15:14:20Z</time>
      </trkpt>
      <trkpt lat="41.4233030" lon="-4.9631680">
        <ele>717.1</ele>
        <time>2019-08-14T15:14:21Z</time>
      </trkpt>
      <trkpt lat="41.4233360" lon="-4.9631880">
        <ele>717.1</ele>
        <time>2019-08-14T15:14:22Z</time>
      </trkpt>
      <trkpt lat="41.4233640" lon="-4.9632050">
        <ele>717.0</ele>
        <time>2019-08-14T15:14:23Z</time>
      </trkpt>
      <trkpt lat="41.4234080" lon="-4.9632330">
        <ele>717.0</ele>
        <time>2019-08-14T15:14:25Z</time>
      </trkpt>
      <trkpt lat="41.4234560" lon="-4.9632660">
        <ele>717.0</ele>
        <time>2019-08-14T15:14:27Z</time>
      </trkpt>
      <trkpt lat="41.4234860" lon="-4.9632860">
        <ele>717.1</ele>
        <time>2019-08-14T15:14:28Z</time>
      </trkpt>
      <trkpt lat="41.4235210" lon="-4.9633050">
        <ele>717.1</ele>
        <time>2019-08-14T15:14:29Z</time>
      </trkpt>
      <trkpt lat="41.4235580" lon="-4.9633180">
        <ele>717.1</ele>
        <time>2019-08-14T15:14:30Z</time>
      </trkpt>
      <trkpt lat="41.4235980" lon="-4.9633330">
        <ele>717.1</ele>
        <time>2019-08-14T15:14:31Z</time>
      </trkpt>
      <trkpt lat="41.4236380" lon="-4.9633500">
        <ele>717.1</ele>
        <time>2019-08-14T15:14:32Z</time>
      </trkpt>
      <trkpt lat="41.4236780" lon="-4.9633630">
        <ele>717.2</ele>
        <time>2019-08-14T15:14:33Z</time>
      </trkpt>
      <trkpt lat="41.4237200" lon="-4.9633790">
        <ele>717.1</ele>
        <time>2019-08-14T15:14:34Z</time>
      </trkpt>
      <trkpt lat="41.4237640" lon="-4.9633990">
        <ele>717.1</ele>
        <time>2019-08-14T15:14:35Z</time>
      </trkpt>
      <trkpt lat="41.4238060" lon="-4.9634190">
        <ele>717.1</ele>
        <time>2019-08-14T15:14:36Z</time>
      </trkpt>
      <trkpt lat="41.4238460" lon="-4.9634350">
        <ele>717.1</ele>
        <time>2019-08-14T15:14:37Z</time>
      </trkpt>
      <trkpt lat="41.4238850" lon="-4.9634460">
        <ele>717.1</ele>
        <time>2019-08-14T15:14:38Z</time>
      </trkpt>
      <trkpt lat="41.4239240" lon="-4.9634620">
        <ele>717.1</ele>
        <time>2019-08-14T15:14:39Z</time>
      </trkpt>
      <trkpt lat="41.4239620" lon="-4.9634800">
        <ele>717.1</ele>
        <time>2019-08-14T15:14:40Z</time>
      </trkpt>
      <trkpt lat="41.4240010" lon="-4.9634980">
        <ele>717.1</ele>
        <time>2019-08-14T15:14:41Z</time>
      </trkpt>
      <trkpt lat="41.4240390" lon="-4.9635160">
        <ele>717.0</ele>
        <time>2019-08-14T15:14:42Z</time>
      </trkpt>
      <trkpt lat="41.4240800" lon="-4.9635350">
        <ele>717.0</ele>
        <time>2019-08-14T15:14:43Z</time>
      </trkpt>
      <trkpt lat="41.4241210" lon="-4.9635600">
        <ele>716.9</ele>
        <time>2019-08-14T15:14:44Z</time>
      </trkpt>
      <trkpt lat="41.4241620" lon="-4.9635870">
        <ele>716.9</ele>
        <time>2019-08-14T15:14:45Z</time>
      </trkpt>
      <trkpt lat="41.4242040" lon="-4.9636140">
        <ele>716.8</ele>
        <time>2019-08-14T15:14:46Z</time>
      </trkpt>
      <trkpt lat="41.4242470" lon="-4.9636410">
        <ele>716.8</ele>
        <time>2019-08-14T15:14:47Z</time>
      </trkpt>
      <trkpt lat="41.4242890" lon="-4.9636690">
        <ele>716.7</ele>
        <time>2019-08-14T15:14:48Z</time>
      </trkpt>
      <trkpt lat="41.4243320" lon="-4.9637010">
        <ele>716.7</ele>
        <time>2019-08-14T15:14:49Z</time>
      </trkpt>
      <trkpt lat="41.4243770" lon="-4.9637310">
        <ele>716.6</ele>
        <time>2019-08-14T15:14:50Z</time>
      </trkpt>
      <trkpt lat="41.4244230" lon="-4.9637580">
        <ele>716.6</ele>
        <time>2019-08-14T15:14:51Z</time>
      </trkpt>
      <trkpt lat="41.4244690" lon="-4.9637860">
        <ele>716.6</ele>
        <time>2019-08-14T15:14:52Z</time>
      </trkpt>
      <trkpt lat="41.4245140" lon="-4.9638150">
        <ele>716.5</ele>
        <time>2019-08-14T15:14:53Z</time>
      </trkpt>
      <trkpt lat="41.4245590" lon="-4.9638450">
        <ele>716.5</ele>
        <time>2019-08-14T15:14:54Z</time>
      </trkpt>
      <trkpt lat="41.4246050" lon="-4.9638740">
        <ele>716.5</ele>
        <time>2019-08-14T15:14:55Z</time>
      </trkpt>
      <trkpt lat="41.4246520" lon="-4.9639040">
        <ele>716.4</ele>
        <time>2019-08-14T15:14:56Z</time>
      </trkpt>
      <trkpt lat="41.4247000" lon="-4.9639320">
        <ele>716.4</ele>
        <time>2019-08-14T15:14:57Z</time>
      </trkpt>
      <trkpt lat="41.4247480" lon="-4.9639600">
        <ele>716.4</ele>
        <time>2019-08-14T15:14:58Z</time>
      </trkpt>
      <trkpt lat="41.4247970" lon="-4.9639890">
        <ele>716.3</ele>
        <time>2019-08-14T15:14:59Z</time>
      </trkpt>
      <trkpt lat="41.4248470" lon="-4.9640180">
        <ele>716.3</ele>
        <time>2019-08-14T15:15:00Z</time>
      </trkpt>
      <trkpt lat="41.4248980" lon="-4.9640470">
        <ele>716.3</ele>
        <time>2019-08-14T15:15:01Z</time>
      </trkpt>
      <trkpt lat="41.4249480" lon="-4.9640760">
        <ele>716.3</ele>
        <time>2019-08-14T15:15:02Z</time>
      </trkpt>
      <trkpt lat="41.4249970" lon="-4.9641050">
        <ele>716.2</ele>
        <time>2019-08-14T15:15:03Z</time>
      </trkpt>
      <trkpt lat="41.4250460" lon="-4.9641320">
        <ele>716.2</ele>
        <time>2019-08-14T15:15:04Z</time>
      </trkpt>
      <trkpt lat="41.4250950" lon="-4.9641590">
        <ele>716.2</ele>
        <time>2019-08-14T15:15:05Z</time>
      </trkpt>
      <trkpt lat="41.4251420" lon="-4.9641870">
        <ele>716.2</ele>
        <time>2019-08-14T15:15:06Z</time>
      </trkpt>
      <trkpt lat="41.4251900" lon="-4.9642160">
        <ele>716.2</ele>
        <time>2019-08-14T15:15:07Z</time>
      </trkpt>
      <trkpt lat="41.4252370" lon="-4.9642450">
        <ele>716.1</ele>
        <time>2019-08-14T15:15:08Z</time>
      </trkpt>
      <trkpt lat="41.4252850" lon="-4.9642730">
        <ele>716.1</ele>
        <time>2019-08-14T15:15:09Z</time>
      </trkpt>
      <trkpt lat="41.4253340" lon="-4.9643020">
        <ele>716.1</ele>
        <time>2019-08-14T15:15:10Z</time>
      </trkpt>
      <trkpt lat="41.4253830" lon="-4.9643280">
        <ele>716.1</ele>
        <time>2019-08-14T15:15:11Z</time>
      </trkpt>
      <trkpt lat="41.4254330" lon="-4.9643510">
        <ele>716.0</ele>
        <time>2019-08-14T15:15:12Z</time>
      </trkpt>
      <trkpt lat="41.4254810" lon="-4.9643730">
        <ele>716.0</ele>
        <time>2019-08-14T15:15:13Z</time>
      </trkpt>
      <trkpt lat="41.4255270" lon="-4.9643940">
        <ele>716.0</ele>
        <time>2019-08-14T15:15:14Z</time>
      </trkpt>
      <trkpt lat="41.4255730" lon="-4.9644140">
        <ele>715.9</ele>
        <time>2019-08-14T15:15:15Z</time>
      </trkpt>
      <trkpt lat="41.4256180" lon="-4.9644330">
        <ele>715.9</ele>
        <time>2019-08-14T15:15:16Z</time>
      </trkpt>
      <trkpt lat="41.4256610" lon="-4.9644530">
        <ele>715.8</ele>
        <time>2019-08-14T15:15:17Z</time>
      </trkpt>
      <trkpt lat="41.4257060" lon="-4.9644730">
        <ele>715.7</ele>
        <time>2019-08-14T15:15:18Z</time>
      </trkpt>
      <trkpt lat="41.4257510" lon="-4.9644950">
        <ele>715.7</ele>
        <time>2019-08-14T15:15:19Z</time>
      </trkpt>
      <trkpt lat="41.4257940" lon="-4.9645200">
        <ele>715.6</ele>
        <time>2019-08-14T15:15:20Z</time>
      </trkpt>
      <trkpt lat="41.4258350" lon="-4.9645430">
        <ele>715.5</ele>
        <time>2019-08-14T15:15:21Z</time>
      </trkpt>
      <trkpt lat="41.4258630" lon="-4.9645630">
        <ele>715.4</ele>
        <time>2019-08-14T15:15:22Z</time>
      </trkpt>
      <trkpt lat="41.4258830" lon="-4.9645820">
        <ele>715.4</ele>
        <time>2019-08-14T15:15:25Z</time>
      </trkpt>
      <trkpt lat="41.4258760" lon="-4.9645340">
        <ele>715.3</ele>
        <time>2019-08-14T15:15:29Z</time>
      </trkpt>
      <trkpt lat="41.4259010" lon="-4.9644960">
        <ele>715.2</ele>
        <time>2019-08-14T15:15:31Z</time>
      </trkpt>
      <trkpt lat="41.4259500" lon="-4.9645030">
        <ele>715.1</ele>
        <time>2019-08-14T15:15:33Z</time>
      </trkpt>
      <trkpt lat="41.4259760" lon="-4.9645200">
        <ele>715.0</ele>
        <time>2019-08-14T15:15:34Z</time>
      </trkpt>
      <trkpt lat="41.4260060" lon="-4.9645410">
        <ele>714.9</ele>
        <time>2019-08-14T15:15:35Z</time>
      </trkpt>
      <trkpt lat="41.4260410" lon="-4.9645650">
        <ele>714.9</ele>
        <time>2019-08-14T15:15:36Z</time>
      </trkpt>
      <trkpt lat="41.4260830" lon="-4.9645860">
        <ele>714.8</ele>
        <time>2019-08-14T15:15:37Z</time>
      </trkpt>
      <trkpt lat="41.4261300" lon="-4.9646050">
        <ele>714.6</ele>
        <time>2019-08-14T15:15:38Z</time>
      </trkpt>
      <trkpt lat="41.4261800" lon="-4.9646220">
        <ele>714.5</ele>
        <time>2019-08-14T15:15:39Z</time>
      </trkpt>
      <trkpt lat="41.4262280" lon="-4.9646390">
        <ele>714.4</ele>
        <time>2019-08-14T15:15:40Z</time>
      </trkpt>
      <trkpt lat="41.4262740" lon="-4.9646580">
        <ele>714.4</ele>
        <time>2019-08-14T15:15:41Z</time>
      </trkpt>
      <trkpt lat="41.4263200" lon="-4.9646800">
        <ele>714.3</ele>
        <time>2019-08-14T15:15:42Z</time>
      </trkpt>
      <trkpt lat="41.4263660" lon="-4.9647050">
        <ele>714.3</ele>
        <time>2019-08-14T15:15:43Z</time>
      </trkpt>
      <trkpt lat="41.4264110" lon="-4.9647320">
        <ele>714.3</ele>
        <time>2019-08-14T15:15:44Z</time>
      </trkpt>
      <trkpt lat="41.4264570" lon="-4.9647590">
        <ele>714.2</ele>
        <time>2019-08-14T15:15:45Z</time>
      </trkpt>
      <trkpt lat="41.4265040" lon="-4.9647850">
        <ele>714.2</ele>
        <time>2019-08-14T15:15:46Z</time>
      </trkpt>
      <trkpt lat="41.4265510" lon="-4.9648120">
        <ele>714.2</ele>
        <time>2019-08-14T15:15:47Z</time>
      </trkpt>
      <trkpt lat="41.4265980" lon="-4.9648400">
        <ele>714.2</ele>
        <time>2019-08-14T15:15:48Z</time>
      </trkpt>
      <trkpt lat="41.4266440" lon="-4.9648700">
        <ele>714.2</ele>
        <time>2019-08-14T15:15:49Z</time>
      </trkpt>
      <trkpt lat="41.4266870" lon="-4.9649020">
        <ele>714.2</ele>
        <time>2019-08-14T15:15:50Z</time>
      </trkpt>
      <trkpt lat="41.4267270" lon="-4.9649330">
        <ele>714.2</ele>
        <time>2019-08-14T15:15:51Z</time>
      </trkpt>
      <trkpt lat="41.4267640" lon="-4.9649650">
        <ele>714.2</ele>
        <time>2019-08-14T15:15:52Z</time>
      </trkpt>
      <trkpt lat="41.4267990" lon="-4.9649960">
        <ele>714.2</ele>
        <time>2019-08-14T15:15:53Z</time>
      </trkpt>
      <trkpt lat="41.4268310" lon="-4.9650300">
        <ele>714.1</ele>
        <time>2019-08-14T15:15:54Z</time>
      </trkpt>
      <trkpt lat="41.4268610" lon="-4.9650660">
        <ele>714.1</ele>
        <time>2019-08-14T15:15:55Z</time>
      </trkpt>
      <trkpt lat="41.4268910" lon="-4.9651020">
        <ele>714.1</ele>
        <time>2019-08-14T15:15:56Z</time>
      </trkpt>
      <trkpt lat="41.4269230" lon="-4.9651380">
        <ele>714.1</ele>
        <time>2019-08-14T15:15:57Z</time>
      </trkpt>
      <trkpt lat="41.4269560" lon="-4.9651700">
        <ele>714.0</ele>
        <time>2019-08-14T15:15:58Z</time>
      </trkpt>
      <trkpt lat="41.4269890" lon="-4.9652020">
        <ele>714.0</ele>
        <time>2019-08-14T15:15:59Z</time>
      </trkpt>
      <trkpt lat="41.4270250" lon="-4.9652340">
        <ele>714.0</ele>
        <time>2019-08-14T15:16:00Z</time>
      </trkpt>
      <trkpt lat="41.4270620" lon="-4.9652660">
        <ele>714.0</ele>
        <time>2019-08-14T15:16:01Z</time>
      </trkpt>
      <trkpt lat="41.4271020" lon="-4.9653000">
        <ele>713.9</ele>
        <time>2019-08-14T15:16:02Z</time>
      </trkpt>
      <trkpt lat="41.4271430" lon="-4.9653350">
        <ele>713.9</ele>
        <time>2019-08-14T15:16:03Z</time>
      </trkpt>
      <trkpt lat="41.4271840" lon="-4.9653700">
        <ele>713.8</ele>
        <time>2019-08-14T15:16:04Z</time>
      </trkpt>
      <trkpt lat="41.4272250" lon="-4.9654070">
        <ele>713.8</ele>
        <time>2019-08-14T15:16:05Z</time>
      </trkpt>
      <trkpt lat="41.4272650" lon="-4.9654480">
        <ele>713.8</ele>
        <time>2019-08-14T15:16:06Z</time>
      </trkpt>
      <trkpt lat="41.4273070" lon="-4.9654870">
        <ele>713.7</ele>
        <time>2019-08-14T15:16:07Z</time>
      </trkpt>
      <trkpt lat="41.4273490" lon="-4.9655260">
        <ele>713.7</ele>
        <time>2019-08-14T15:16:08Z</time>
      </trkpt>
      <trkpt lat="41.4273920" lon="-4.9655620">
        <ele>713.6</ele>
        <time>2019-08-14T15:16:09Z</time>
      </trkpt>
      <trkpt lat="41.4274360" lon="-4.9655930">
        <ele>713.6</ele>
        <time>2019-08-14T15:16:10Z</time>
      </trkpt>
      <trkpt lat="41.4274800" lon="-4.9656230">
        <ele>713.5</ele>
        <time>2019-08-14T15:16:11Z</time>
      </trkpt>
      <trkpt lat="41.4275240" lon="-4.9656510">
        <ele>713.5</ele>
        <time>2019-08-14T15:16:12Z</time>
      </trkpt>
      <trkpt lat="41.4275670" lon="-4.9656810">
        <ele>713.5</ele>
        <time>2019-08-14T15:16:13Z</time>
      </trkpt>
      <trkpt lat="41.4276100" lon="-4.9657090">
        <ele>713.5</ele>
        <time>2019-08-14T15:16:14Z</time>
      </trkpt>
      <trkpt lat="41.4276540" lon="-4.9657370">
        <ele>713.6</ele>
        <time>2019-08-14T15:16:15Z</time>
      </trkpt>
      <trkpt lat="41.4276970" lon="-4.9657620">
        <ele>713.6</ele>
        <time>2019-08-14T15:16:16Z</time>
      </trkpt>
      <trkpt lat="41.4277400" lon="-4.9657860">
        <ele>713.6</ele>
        <time>2019-08-14T15:16:17Z</time>
      </trkpt>
      <trkpt lat="41.4277830" lon="-4.9658100">
        <ele>713.6</ele>
        <time>2019-08-14T15:16:18Z</time>
      </trkpt>
      <trkpt lat="41.4278260" lon="-4.9658360">
        <ele>713.6</ele>
        <time>2019-08-14T15:16:19Z</time>
      </trkpt>
      <trkpt lat="41.4278680" lon="-4.9658660">
        <ele>713.6</ele>
        <time>2019-08-14T15:16:20Z</time>
      </trkpt>
      <trkpt lat="41.4279090" lon="-4.9658970">
        <ele>713.7</ele>
        <time>2019-08-14T15:16:21Z</time>
      </trkpt>
      <trkpt lat="41.4279510" lon="-4.9659280">
        <ele>713.5</ele>
        <time>2019-08-14T15:16:22Z</time>
      </trkpt>
      <trkpt lat="41.4279910" lon="-4.9659580">
        <ele>713.4</ele>
        <time>2019-08-14T15:16:23Z</time>
      </trkpt>
      <trkpt lat="41.4280330" lon="-4.9659860">
        <ele>713.4</ele>
        <time>2019-08-14T15:16:24Z</time>
      </trkpt>
      <trkpt lat="41.4280740" lon="-4.9660130">
        <ele>713.3</ele>
        <time>2019-08-14T15:16:25Z</time>
      </trkpt>
      <trkpt lat="41.4281140" lon="-4.9660380">
        <ele>713.1</ele>
        <time>2019-08-14T15:16:26Z</time>
      </trkpt>
      <trkpt lat="41.4281520" lon="-4.9660620">
        <ele>713.0</ele>
        <time>2019-08-14T15:16:27Z</time>
      </trkpt>
      <trkpt lat="41.4281900" lon="-4.9660850">
        <ele>712.9</ele>
        <time>2019-08-14T15:16:28Z</time>
      </trkpt>
      <trkpt lat="41.4282280" lon="-4.9661090">
        <ele>712.8</ele>
        <time>2019-08-14T15:16:29Z</time>
      </trkpt>
      <trkpt lat="41.4282680" lon="-4.9661320">
        <ele>712.6</ele>
        <time>2019-08-14T15:16:30Z</time>
      </trkpt>
      <trkpt lat="41.4283090" lon="-4.9661540">
        <ele>712.5</ele>
        <time>2019-08-14T15:16:31Z</time>
      </trkpt>
      <trkpt lat="41.4283500" lon="-4.9661760">
        <ele>712.4</ele>
        <time>2019-08-14T15:16:32Z</time>
      </trkpt>
      <trkpt lat="41.4283910" lon="-4.9661920">
        <ele>712.3</ele>
        <time>2019-08-14T15:16:33Z</time>
      </trkpt>
      <trkpt lat="41.4284310" lon="-4.9662080">
        <ele>712.2</ele>
        <time>2019-08-14T15:16:34Z</time>
      </trkpt>
      <trkpt lat="41.4284730" lon="-4.9662240">
        <ele>712.0</ele>
        <time>2019-08-14T15:16:35Z</time>
      </trkpt>
      <trkpt lat="41.4285150" lon="-4.9662380">
        <ele>712.0</ele>
        <time>2019-08-14T15:16:36Z</time>
      </trkpt>
      <trkpt lat="41.4285570" lon="-4.9662510">
        <ele>711.9</ele>
        <time>2019-08-14T15:16:37Z</time>
      </trkpt>
      <trkpt lat="41.4285990" lon="-4.9662650">
        <ele>711.9</ele>
        <time>2019-08-14T15:16:38Z</time>
      </trkpt>
      <trkpt lat="41.4286400" lon="-4.9662770">
        <ele>711.9</ele>
        <time>2019-08-14T15:16:39Z</time>
      </trkpt>
      <trkpt lat="41.4286800" lon="-4.9662850">
        <ele>712.0</ele>
        <time>2019-08-14T15:16:40Z</time>
      </trkpt>
      <trkpt lat="41.4287180" lon="-4.9662920">
        <ele>712.1</ele>
        <time>2019-08-14T15:16:41Z</time>
      </trkpt>
      <trkpt lat="41.4287540" lon="-4.9663000">
        <ele>712.2</ele>
        <time>2019-08-14T15:16:42Z</time>
      </trkpt>
      <trkpt lat="41.4287900" lon="-4.9663060">
        <ele>712.4</ele>
        <time>2019-08-14T15:16:43Z</time>
      </trkpt>
      <trkpt lat="41.4288290" lon="-4.9663120">
        <ele>712.5</ele>
        <time>2019-08-14T15:16:44Z</time>
      </trkpt>
      <trkpt lat="41.4288680" lon="-4.9663180">
        <ele>712.8</ele>
        <time>2019-08-14T15:16:45Z</time>
      </trkpt>
      <trkpt lat="41.4289070" lon="-4.9663240">
        <ele>713.1</ele>
        <time>2019-08-14T15:16:46Z</time>
      </trkpt>
      <trkpt lat="41.4289460" lon="-4.9663280">
        <ele>713.4</ele>
        <time>2019-08-14T15:16:47Z</time>
      </trkpt>
      <trkpt lat="41.4289850" lon="-4.9663300">
        <ele>713.7</ele>
        <time>2019-08-14T15:16:48Z</time>
      </trkpt>
      <trkpt lat="41.4290240" lon="-4.9663300">
        <ele>713.9</ele>
        <time>2019-08-14T15:16:49Z</time>
      </trkpt>
      <trkpt lat="41.4290620" lon="-4.9663310">
        <ele>714.2</ele>
        <time>2019-08-14T15:16:50Z</time>
      </trkpt>
      <trkpt lat="41.4291010" lon="-4.9663330">
        <ele>714.5</ele>
        <time>2019-08-14T15:16:51Z</time>
      </trkpt>
      <trkpt lat="41.4291390" lon="-4.9663330">
        <ele>714.9</ele>
        <time>2019-08-14T15:16:52Z</time>
      </trkpt>
      <trkpt lat="41.4291790" lon="-4.9663350">
        <ele>715.3</ele>
        <time>2019-08-14T15:16:53Z</time>
      </trkpt>
      <trkpt lat="41.4292180" lon="-4.9663360">
        <ele>715.7</ele>
        <time>2019-08-14T15:16:54Z</time>
      </trkpt>
      <trkpt lat="41.4292570" lon="-4.9663370">
        <ele>716.1</ele>
        <time>2019-08-14T15:16:55Z</time>
      </trkpt>
      <trkpt lat="41.4292940" lon="-4.9663340">
        <ele>716.5</ele>
        <time>2019-08-14T15:16:56Z</time>
      </trkpt>
      <trkpt lat="41.4293320" lon="-4.9663290">
        <ele>717.0</ele>
        <time>2019-08-14T15:16:57Z</time>
      </trkpt>
      <trkpt lat="41.4293690" lon="-4.9663230">
        <ele>717.4</ele>
        <time>2019-08-14T15:16:58Z</time>
      </trkpt>
      <trkpt lat="41.4294060" lon="-4.9663200">
        <ele>717.9</ele>
        <time>2019-08-14T15:16:59Z</time>
      </trkpt>
      <trkpt lat="41.4294430" lon="-4.9663150">
        <ele>718.2</ele>
        <time>2019-08-14T15:17:00Z</time>
      </trkpt>
      <trkpt lat="41.4294790" lon="-4.9663100">
        <ele>718.5</ele>
        <time>2019-08-14T15:17:01Z</time>
      </trkpt>
      <trkpt lat="41.4295150" lon="-4.9663030">
        <ele>719.1</ele>
        <time>2019-08-14T15:17:02Z</time>
      </trkpt>
      <trkpt lat="41.4295500" lon="-4.9662950">
        <ele>719.6</ele>
        <time>2019-08-14T15:17:03Z</time>
      </trkpt>
      <trkpt lat="41.4295880" lon="-4.9662870">
        <ele>720.0</ele>
        <time>2019-08-14T15:17:04Z</time>
      </trkpt>
      <trkpt lat="41.4296240" lon="-4.9662800">
        <ele>720.3</ele>
        <time>2019-08-14T15:17:05Z</time>
      </trkpt>
      <trkpt lat="41.4296590" lon="-4.9662720">
        <ele>720.6</ele>
        <time>2019-08-14T15:17:06Z</time>
      </trkpt>
      <trkpt lat="41.4296940" lon="-4.9662610">
        <ele>721.0</ele>
        <time>2019-08-14T15:17:07Z</time>
      </trkpt>
      <trkpt lat="41.4297250" lon="-4.9662510">
        <ele>721.3</ele>
        <time>2019-08-14T15:17:08Z</time>
      </trkpt>
      <trkpt lat="41.4297560" lon="-4.9662400">
        <ele>721.7</ele>
        <time>2019-08-14T15:17:09Z</time>
      </trkpt>
      <trkpt lat="41.4297850" lon="-4.9662310">
        <ele>722.0</ele>
        <time>2019-08-14T15:17:10Z</time>
      </trkpt>
      <trkpt lat="41.4298140" lon="-4.9662200">
        <ele>722.3</ele>
        <time>2019-08-14T15:17:11Z</time>
      </trkpt>
      <trkpt lat="41.4298430" lon="-4.9662070">
        <ele>722.5</ele>
        <time>2019-08-14T15:17:12Z</time>
      </trkpt>
      <trkpt lat="41.4298710" lon="-4.9661950">
        <ele>722.8</ele>
        <time>2019-08-14T15:17:13Z</time>
      </trkpt>
      <trkpt lat="41.4298980" lon="-4.9661810">
        <ele>723.0</ele>
        <time>2019-08-14T15:17:14Z</time>
      </trkpt>
      <trkpt lat="41.4299250" lon="-4.9661660">
        <ele>723.3</ele>
        <time>2019-08-14T15:17:15Z</time>
      </trkpt>
      <trkpt lat="41.4299530" lon="-4.9661480">
        <ele>723.6</ele>
        <time>2019-08-14T15:17:16Z</time>
      </trkpt>
      <trkpt lat="41.4299800" lon="-4.9661300">
        <ele>723.9</ele>
        <time>2019-08-14T15:17:17Z</time>
      </trkpt>
      <trkpt lat="41.4300050" lon="-4.9661110">
        <ele>724.1</ele>
        <time>2019-08-14T15:17:18Z</time>
      </trkpt>
      <trkpt lat="41.4300290" lon="-4.9660920">
        <ele>724.3</ele>
        <time>2019-08-14T15:17:19Z</time>
      </trkpt>
      <trkpt lat="41.4300510" lon="-4.9660710">
        <ele>724.5</ele>
        <time>2019-08-14T15:17:20Z</time>
      </trkpt>
      <trkpt lat="41.4300930" lon="-4.9660320">
        <ele>724.9</ele>
        <time>2019-08-14T15:17:22Z</time>
      </trkpt>
      <trkpt lat="41.4301290" lon="-4.9659960">
        <ele>725.1</ele>
        <time>2019-08-14T15:17:24Z</time>
      </trkpt>
      <trkpt lat="41.4301650" lon="-4.9659630">
        <ele>725.3</ele>
        <time>2019-08-14T15:17:26Z</time>
      </trkpt>
      <trkpt lat="41.4302020" lon="-4.9659330">
        <ele>725.4</ele>
        <time>2019-08-14T15:17:28Z</time>
      </trkpt>
      <trkpt lat="41.4302400" lon="-4.9659040">
        <ele>725.6</ele>
        <time>2019-08-14T15:17:30Z</time>
      </trkpt>
      <trkpt lat="41.4302780" lon="-4.9658770">
        <ele>725.7</ele>
        <time>2019-08-14T15:17:32Z</time>
      </trkpt>
      <trkpt lat="41.4303180" lon="-4.9658560">
        <ele>725.8</ele>
        <time>2019-08-14T15:17:34Z</time>
      </trkpt>
      <trkpt lat="41.4303580" lon="-4.9658370">
        <ele>725.9</ele>
        <time>2019-08-14T15:17:36Z</time>
      </trkpt>
      <trkpt lat="41.4303990" lon="-4.9658200">
        <ele>726.1</ele>
        <time>2019-08-14T15:17:38Z</time>
      </trkpt>
      <trkpt lat="41.4304430" lon="-4.9658080">
        <ele>726.2</ele>
        <time>2019-08-14T15:17:40Z</time>
      </trkpt>
      <trkpt lat="41.4304880" lon="-4.9658020">
        <ele>726.3</ele>
        <time>2019-08-14T15:17:42Z</time>
      </trkpt>
      <trkpt lat="41.4305330" lon="-4.9657990">
        <ele>726.2</ele>
        <time>2019-08-14T15:17:44Z</time>
      </trkpt>
      <trkpt lat="41.4305780" lon="-4.9657980">
        <ele>726.2</ele>
        <time>2019-08-14T15:17:46Z</time>
      </trkpt>
      <trkpt lat="41.4306250" lon="-4.9657930">
        <ele>726.0</ele>
        <time>2019-08-14T15:17:48Z</time>
      </trkpt>
      <trkpt lat="41.4306740" lon="-4.9657910">
        <ele>725.9</ele>
        <time>2019-08-14T15:17:50Z</time>
      </trkpt>
      <trkpt lat="41.4307240" lon="-4.9657890">
        <ele>725.8</ele>
        <time>2019-08-14T15:17:52Z</time>
      </trkpt>
      <trkpt lat="41.4307770" lon="-4.9657830">
        <ele>725.8</ele>
        <time>2019-08-14T15:17:54Z</time>
      </trkpt>
      <trkpt lat="41.4308050" lon="-4.9657800">
        <ele>725.7</ele>
        <time>2019-08-14T15:17:55Z</time>
      </trkpt>
      <trkpt lat="41.4308340" lon="-4.9657770">
        <ele>725.6</ele>
        <time>2019-08-14T15:17:56Z</time>
      </trkpt>
      <trkpt lat="41.4308650" lon="-4.9657740">
        <ele>725.5</ele>
        <time>2019-08-14T15:17:57Z</time>
      </trkpt>
      <trkpt lat="41.4308980" lon="-4.9657690">
        <ele>725.4</ele>
        <time>2019-08-14T15:17:58Z</time>
      </trkpt>
      <trkpt lat="41.4309340" lon="-4.9657630">
        <ele>725.4</ele>
        <time>2019-08-14T15:17:59Z</time>
      </trkpt>
      <trkpt lat="41.4309720" lon="-4.9657560">
        <ele>725.4</ele>
        <time>2019-08-14T15:18:00Z</time>
      </trkpt>
      <trkpt lat="41.4310120" lon="-4.9657480">
        <ele>725.2</ele>
        <time>2019-08-14T15:18:01Z</time>
      </trkpt>
      <trkpt lat="41.4310530" lon="-4.9657410">
        <ele>725.0</ele>
        <time>2019-08-14T15:18:02Z</time>
      </trkpt>
      <trkpt lat="41.4310940" lon="-4.9657320">
        <ele>724.9</ele>
        <time>2019-08-14T15:18:03Z</time>
      </trkpt>
      <trkpt lat="41.4311360" lon="-4.9657230">
        <ele>724.7</ele>
        <time>2019-08-14T15:18:04Z</time>
      </trkpt>
      <trkpt lat="41.4311790" lon="-4.9657120">
        <ele>724.5</ele>
        <time>2019-08-14T15:18:05Z</time>
      </trkpt>
      <trkpt lat="41.4312230" lon="-4.9657000">
        <ele>724.4</ele>
        <time>2019-08-14T15:18:06Z</time>
      </trkpt>
      <trkpt lat="41.4312680" lon="-4.9656870">
        <ele>724.2</ele>
        <time>2019-08-14T15:18:07Z</time>
      </trkpt>
      <trkpt lat="41.4313150" lon="-4.9656760">
        <ele>724.0</ele>
        <time>2019-08-14T15:18:08Z</time>
      </trkpt>
      <trkpt lat="41.4313620" lon="-4.9656650">
        <ele>723.7</ele>
        <time>2019-08-14T15:18:09Z</time>
      </trkpt>
      <trkpt lat="41.4314120" lon="-4.9656530">
        <ele>723.5</ele>
        <time>2019-08-14T15:18:10Z</time>
      </trkpt>
      <trkpt lat="41.4314610" lon="-4.9656420">
        <ele>723.4</ele>
        <time>2019-08-14T15:18:11Z</time>
      </trkpt>
      <trkpt lat="41.4315130" lon="-4.9656280">
        <ele>723.3</ele>
        <time>2019-08-14T15:18:12Z</time>
      </trkpt>
      <trkpt lat="41.4315650" lon="-4.9656170">
        <ele>723.1</ele>
        <time>2019-08-14T15:18:13Z</time>
      </trkpt>
      <trkpt lat="41.4316180" lon="-4.9656030">
        <ele>723.0</ele>
        <time>2019-08-14T15:18:14Z</time>
      </trkpt>
      <trkpt lat="41.4316720" lon="-4.9655890">
        <ele>722.8</ele>
        <time>2019-08-14T15:18:15Z</time>
      </trkpt>
      <trkpt lat="41.4317290" lon="-4.9655760">
        <ele>722.7</ele>
        <time>2019-08-14T15:18:16Z</time>
      </trkpt>
      <trkpt lat="41.4317870" lon="-4.9655600">
        <ele>722.6</ele>
        <time>2019-08-14T15:18:17Z</time>
      </trkpt>
      <trkpt lat="41.4318470" lon="-4.9655470">
        <ele>722.5</ele>
        <time>2019-08-14T15:18:18Z</time>
      </trkpt>
      <trkpt lat="41.4319080" lon="-4.9655340">
        <ele>722.4</ele>
        <time>2019-08-14T15:18:19Z</time>
      </trkpt>
      <trkpt lat="41.4319720" lon="-4.9655180">
        <ele>722.3</ele>
        <time>2019-08-14T15:18:20Z</time>
      </trkpt>
      <trkpt lat="41.4320370" lon="-4.9655050">
        <ele>722.1</ele>
        <time>2019-08-14T15:18:21Z</time>
      </trkpt>
      <trkpt lat="41.4321020" lon="-4.9654890">
        <ele>721.9</ele>
        <time>2019-08-14T15:18:22Z</time>
      </trkpt>
      <trkpt lat="41.4321680" lon="-4.9654710">
        <ele>721.7</ele>
        <time>2019-08-14T15:18:23Z</time>
      </trkpt>
      <trkpt lat="41.4322360" lon="-4.9654500">
        <ele>721.5</ele>
        <time>2019-08-14T15:18:24Z</time>
      </trkpt>
      <trkpt lat="41.4323030" lon="-4.9654310">
        <ele>721.3</ele>
        <time>2019-08-14T15:18:25Z</time>
      </trkpt>
      <trkpt lat="41.4323700" lon="-4.9654130">
        <ele>721.1</ele>
        <time>2019-08-14T15:18:26Z</time>
      </trkpt>
      <trkpt lat="41.4324360" lon="-4.9653940">
        <ele>721.0</ele>
        <time>2019-08-14T15:18:27Z</time>
      </trkpt>
      <trkpt lat="41.4325030" lon="-4.9653760">
        <ele>720.9</ele>
        <time>2019-08-14T15:18:28Z</time>
      </trkpt>
      <trkpt lat="41.4325710" lon="-4.9653570">
        <ele>720.8</ele>
        <time>2019-08-14T15:18:29Z</time>
      </trkpt>
      <trkpt lat="41.4326370" lon="-4.9653400">
        <ele>720.7</ele>
        <time>2019-08-14T15:18:30Z</time>
      </trkpt>
      <trkpt lat="41.4327030" lon="-4.9653250">
        <ele>720.6</ele>
        <time>2019-08-14T15:18:31Z</time>
      </trkpt>
      <trkpt lat="41.4327670" lon="-4.9653110">
        <ele>720.6</ele>
        <time>2019-08-14T15:18:32Z</time>
      </trkpt>
      <trkpt lat="41.4328290" lon="-4.9652980">
        <ele>720.5</ele>
        <time>2019-08-14T15:18:33Z</time>
      </trkpt>
      <trkpt lat="41.4328910" lon="-4.9652880">
        <ele>720.4</ele>
        <time>2019-08-14T15:18:34Z</time>
      </trkpt>
      <trkpt lat="41.4329500" lon="-4.9652770">
        <ele>720.4</ele>
        <time>2019-08-14T15:18:35Z</time>
      </trkpt>
      <trkpt lat="41.4330070" lon="-4.9652660">
        <ele>720.4</ele>
        <time>2019-08-14T15:18:36Z</time>
      </trkpt>
      <trkpt lat="41.4330610" lon="-4.9652560">
        <ele>720.3</ele>
        <time>2019-08-14T15:18:37Z</time>
      </trkpt>
      <trkpt lat="41.4331130" lon="-4.9652460">
        <ele>720.2</ele>
        <time>2019-08-14T15:18:38Z</time>
      </trkpt>
      <trkpt lat="41.4331660" lon="-4.9652330">
        <ele>720.2</ele>
        <time>2019-08-14T15:18:39Z</time>
      </trkpt>
      <trkpt lat="41.4332130" lon="-4.9652180">
        <ele>720.1</ele>
        <time>2019-08-14T15:18:40Z</time>
      </trkpt>
      <trkpt lat="41.4332590" lon="-4.9652040">
        <ele>720.1</ele>
        <time>2019-08-14T15:18:41Z</time>
      </trkpt>
      <trkpt lat="41.4333040" lon="-4.9651900">
        <ele>720.0</ele>
        <time>2019-08-14T15:18:42Z</time>
      </trkpt>
      <trkpt lat="41.4333480" lon="-4.9651800">
        <ele>720.0</ele>
        <time>2019-08-14T15:18:43Z</time>
      </trkpt>
      <trkpt lat="41.4333930" lon="-4.9651730">
        <ele>720.0</ele>
        <time>2019-08-14T15:18:44Z</time>
      </trkpt>
      <trkpt lat="41.4334380" lon="-4.9651700">
        <ele>719.9</ele>
        <time>2019-08-14T15:18:45Z</time>
      </trkpt>
      <trkpt lat="41.4334840" lon="-4.9651650">
        <ele>719.9</ele>
        <time>2019-08-14T15:18:46Z</time>
      </trkpt>
      <trkpt lat="41.4335310" lon="-4.9651580">
        <ele>719.9</ele>
        <time>2019-08-14T15:18:47Z</time>
      </trkpt>
      <trkpt lat="41.4335760" lon="-4.9651510">
        <ele>719.9</ele>
        <time>2019-08-14T15:18:48Z</time>
      </trkpt>
      <trkpt lat="41.4336210" lon="-4.9651450">
        <ele>719.9</ele>
        <time>2019-08-14T15:18:49Z</time>
      </trkpt>
      <trkpt lat="41.4336680" lon="-4.9651410">
        <ele>719.9</ele>
        <time>2019-08-14T15:18:50Z</time>
      </trkpt>
      <trkpt lat="41.4337150" lon="-4.9651360">
        <ele>719.8</ele>
        <time>2019-08-14T15:18:51Z</time>
      </trkpt>
      <trkpt lat="41.4337620" lon="-4.9651270">
        <ele>719.8</ele>
        <time>2019-08-14T15:18:52Z</time>
      </trkpt>
      <trkpt lat="41.4338080" lon="-4.9651170">
        <ele>719.8</ele>
        <time>2019-08-14T15:18:53Z</time>
      </trkpt>
      <trkpt lat="41.4338520" lon="-4.9651100">
        <ele>719.8</ele>
        <time>2019-08-14T15:18:54Z</time>
      </trkpt>
      <trkpt lat="41.4338990" lon="-4.9651000">
        <ele>719.8</ele>
        <time>2019-08-14T15:18:55Z</time>
      </trkpt>
      <trkpt lat="41.4339480" lon="-4.9650890">
        <ele>719.8</ele>
        <time>2019-08-14T15:18:56Z</time>
      </trkpt>
      <trkpt lat="41.4339980" lon="-4.9650790">
        <ele>719.8</ele>
        <time>2019-08-14T15:18:57Z</time>
      </trkpt>
      <trkpt lat="41.4340500" lon="-4.9650710">
        <ele>719.7</ele>
        <time>2019-08-14T15:18:58Z</time>
      </trkpt>
      <trkpt lat="41.4341010" lon="-4.9650660">
        <ele>719.7</ele>
        <time>2019-08-14T15:18:59Z</time>
      </trkpt>
      <trkpt lat="41.4341500" lon="-4.9650590">
        <ele>719.7</ele>
        <time>2019-08-14T15:19:00Z</time>
      </trkpt>
      <trkpt lat="41.4341980" lon="-4.9650540">
        <ele>719.7</ele>
        <time>2019-08-14T15:19:01Z</time>
      </trkpt>
      <trkpt lat="41.4342460" lon="-4.9650500">
        <ele>719.7</ele>
        <time>2019-08-14T15:19:02Z</time>
      </trkpt>
      <trkpt lat="41.4342940" lon="-4.9650470">
        <ele>719.7</ele>
        <time>2019-08-14T15:19:03Z</time>
      </trkpt>
      <trkpt lat="41.4343400" lon="-4.9650440">
        <ele>719.6</ele>
        <time>2019-08-14T15:19:04Z</time>
      </trkpt>
      <trkpt lat="41.4343840" lon="-4.9650430">
        <ele>719.6</ele>
        <time>2019-08-14T15:19:05Z</time>
      </trkpt>
      <trkpt lat="41.4344290" lon="-4.9650410">
        <ele>719.6</ele>
        <time>2019-08-14T15:19:06Z</time>
      </trkpt>
      <trkpt lat="41.4344770" lon="-4.9650340">
        <ele>719.5</ele>
        <time>2019-08-14T15:19:07Z</time>
      </trkpt>
      <trkpt lat="41.4345270" lon="-4.9650250">
        <ele>719.5</ele>
        <time>2019-08-14T15:19:08Z</time>
      </trkpt>
      <trkpt lat="41.4345770" lon="-4.9650200">
        <ele>719.5</ele>
        <time>2019-08-14T15:19:09Z</time>
      </trkpt>
      <trkpt lat="41.4346290" lon="-4.9650150">
        <ele>719.4</ele>
        <time>2019-08-14T15:19:10Z</time>
      </trkpt>
      <trkpt lat="41.4346780" lon="-4.9650100">
        <ele>719.4</ele>
        <time>2019-08-14T15:19:11Z</time>
      </trkpt>
      <trkpt lat="41.4347270" lon="-4.9650020">
        <ele>719.4</ele>
        <time>2019-08-14T15:19:12Z</time>
      </trkpt>
      <trkpt lat="41.4347760" lon="-4.9649900">
        <ele>719.3</ele>
        <time>2019-08-14T15:19:13Z</time>
      </trkpt>
      <trkpt lat="41.4348240" lon="-4.9649780">
        <ele>719.3</ele>
        <time>2019-08-14T15:19:14Z</time>
      </trkpt>
      <trkpt lat="41.4348730" lon="-4.9649680">
        <ele>719.3</ele>
        <time>2019-08-14T15:19:15Z</time>
      </trkpt>
      <trkpt lat="41.4349240" lon="-4.9649600">
        <ele>719.3</ele>
        <time>2019-08-14T15:19:16Z</time>
      </trkpt>
      <trkpt lat="41.4349740" lon="-4.9649560">
        <ele>719.3</ele>
        <time>2019-08-14T15:19:17Z</time>
      </trkpt>
      <trkpt lat="41.4350270" lon="-4.9649490">
        <ele>719.2</ele>
        <time>2019-08-14T15:19:18Z</time>
      </trkpt>
      <trkpt lat="41.4350780" lon="-4.9649410">
        <ele>719.2</ele>
        <time>2019-08-14T15:19:19Z</time>
      </trkpt>
      <trkpt lat="41.4351280" lon="-4.9649320">
        <ele>719.2</ele>
        <time>2019-08-14T15:19:20Z</time>
      </trkpt>
      <trkpt lat="41.4351800" lon="-4.9649240">
        <ele>719.2</ele>
        <time>2019-08-14T15:19:21Z</time>
      </trkpt>
      <trkpt lat="41.4352320" lon="-4.9649180">
        <ele>719.2</ele>
        <time>2019-08-14T15:19:22Z</time>
      </trkpt>
      <trkpt lat="41.4352850" lon="-4.9649110">
        <ele>719.2</ele>
        <time>2019-08-14T15:19:23Z</time>
      </trkpt>
      <trkpt lat="41.4353370" lon="-4.9649050">
        <ele>719.2</ele>
        <time>2019-08-14T15:19:24Z</time>
      </trkpt>
      <trkpt lat="41.4353910" lon="-4.9648970">
        <ele>719.2</ele>
        <time>2019-08-14T15:19:25Z</time>
      </trkpt>
      <trkpt lat="41.4354450" lon="-4.9648890">
        <ele>719.2</ele>
        <time>2019-08-14T15:19:26Z</time>
      </trkpt>
      <trkpt lat="41.4355000" lon="-4.9648820">
        <ele>719.2</ele>
        <time>2019-08-14T15:19:27Z</time>
      </trkpt>
      <trkpt lat="41.4355560" lon="-4.9648740">
        <ele>719.2</ele>
        <time>2019-08-14T15:19:28Z</time>
      </trkpt>
      <trkpt lat="41.4356110" lon="-4.9648650">
        <ele>719.2</ele>
        <time>2019-08-14T15:19:29Z</time>
      </trkpt>
      <trkpt lat="41.4356660" lon="-4.9648550">
        <ele>719.2</ele>
        <time>2019-08-14T15:19:30Z</time>
      </trkpt>
      <trkpt lat="41.4357210" lon="-4.9648460">
        <ele>719.2</ele>
        <time>2019-08-14T15:19:31Z</time>
      </trkpt>
      <trkpt lat="41.4357750" lon="-4.9648390">
        <ele>719.3</ele>
        <time>2019-08-14T15:19:32Z</time>
      </trkpt>
      <trkpt lat="41.4358280" lon="-4.9648330">
        <ele>719.3</ele>
        <time>2019-08-14T15:19:33Z</time>
      </trkpt>
      <trkpt lat="41.4358790" lon="-4.9648260">
        <ele>719.4</ele>
        <time>2019-08-14T15:19:34Z</time>
      </trkpt>
      <trkpt lat="41.4359320" lon="-4.9648200">
        <ele>719.4</ele>
        <time>2019-08-14T15:19:35Z</time>
      </trkpt>
      <trkpt lat="41.4359850" lon="-4.9648140">
        <ele>719.5</ele>
        <time>2019-08-14T15:19:36Z</time>
      </trkpt>
      <trkpt lat="41.4360350" lon="-4.9648070">
        <ele>719.5</ele>
        <time>2019-08-14T15:19:37Z</time>
      </trkpt>
      <trkpt lat="41.4360850" lon="-4.9647990">
        <ele>719.6</ele>
        <time>2019-08-14T15:19:38Z</time>
      </trkpt>
      <trkpt lat="41.4361350" lon="-4.9647930">
        <ele>719.6</ele>
        <time>2019-08-14T15:19:39Z</time>
      </trkpt>
      <trkpt lat="41.4361850" lon="-4.9647860">
        <ele>719.7</ele>
        <time>2019-08-14T15:19:40Z</time>
      </trkpt>
      <trkpt lat="41.4362350" lon="-4.9647760">
        <ele>719.7</ele>
        <time>2019-08-14T15:19:41Z</time>
      </trkpt>
      <trkpt lat="41.4362830" lon="-4.9647680">
        <ele>719.8</ele>
        <time>2019-08-14T15:19:42Z</time>
      </trkpt>
      <trkpt lat="41.4363320" lon="-4.9647600">
        <ele>719.8</ele>
        <time>2019-08-14T15:19:43Z</time>
      </trkpt>
      <trkpt lat="41.4363820" lon="-4.9647510">
        <ele>719.9</ele>
        <time>2019-08-14T15:19:44Z</time>
      </trkpt>
      <trkpt lat="41.4364330" lon="-4.9647460">
        <ele>719.9</ele>
        <time>2019-08-14T15:19:45Z</time>
      </trkpt>
      <trkpt lat="41.4364850" lon="-4.9647410">
        <ele>720.0</ele>
        <time>2019-08-14T15:19:46Z</time>
      </trkpt>
      <trkpt lat="41.4365360" lon="-4.9647340">
        <ele>720.0</ele>
        <time>2019-08-14T15:19:47Z</time>
      </trkpt>
      <trkpt lat="41.4365890" lon="-4.9647260">
        <ele>720.1</ele>
        <time>2019-08-14T15:19:48Z</time>
      </trkpt>
      <trkpt lat="41.4366400" lon="-4.9647200">
        <ele>720.1</ele>
        <time>2019-08-14T15:19:49Z</time>
      </trkpt>
      <trkpt lat="41.4366910" lon="-4.9647140">
        <ele>720.2</ele>
        <time>2019-08-14T15:19:50Z</time>
      </trkpt>
      <trkpt lat="41.4367400" lon="-4.9647080">
        <ele>720.2</ele>
        <time>2019-08-14T15:19:51Z</time>
      </trkpt>
      <trkpt lat="41.4367890" lon="-4.9647020">
        <ele>720.3</ele>
        <time>2019-08-14T15:19:52Z</time>
      </trkpt>
      <trkpt lat="41.4368380" lon="-4.9646960">
        <ele>720.3</ele>
        <time>2019-08-14T15:19:53Z</time>
      </trkpt>
      <trkpt lat="41.4368860" lon="-4.9646890">
        <ele>720.4</ele>
        <time>2019-08-14T15:19:54Z</time>
      </trkpt>
      <trkpt lat="41.4369350" lon="-4.9646810">
        <ele>720.4</ele>
        <time>2019-08-14T15:19:55Z</time>
      </trkpt>
      <trkpt lat="41.4369840" lon="-4.9646730">
        <ele>720.5</ele>
        <time>2019-08-14T15:19:56Z</time>
      </trkpt>
      <trkpt lat="41.4370330" lon="-4.9646680">
        <ele>720.5</ele>
        <time>2019-08-14T15:19:57Z</time>
      </trkpt>
      <trkpt lat="41.4370820" lon="-4.9646620">
        <ele>720.5</ele>
        <time>2019-08-14T15:19:58Z</time>
      </trkpt>
      <trkpt lat="41.4371290" lon="-4.9646560">
        <ele>720.5</ele>
        <time>2019-08-14T15:19:59Z</time>
      </trkpt>
      <trkpt lat="41.4371770" lon="-4.9646490">
        <ele>720.6</ele>
        <time>2019-08-14T15:20:00Z</time>
      </trkpt>
      <trkpt lat="41.4372260" lon="-4.9646420">
        <ele>720.6</ele>
        <time>2019-08-14T15:20:01Z</time>
      </trkpt>
      <trkpt lat="41.4372750" lon="-4.9646370">
        <ele>720.6</ele>
        <time>2019-08-14T15:20:02Z</time>
      </trkpt>
      <trkpt lat="41.4373240" lon="-4.9646290">
        <ele>720.6</ele>
        <time>2019-08-14T15:20:03Z</time>
      </trkpt>
      <trkpt lat="41.4373740" lon="-4.9646220">
        <ele>720.6</ele>
        <time>2019-08-14T15:20:04Z</time>
      </trkpt>
      <trkpt lat="41.4374230" lon="-4.9646140">
        <ele>720.6</ele>
        <time>2019-08-14T15:20:05Z</time>
      </trkpt>
      <trkpt lat="41.4374720" lon="-4.9646050">
        <ele>720.6</ele>
        <time>2019-08-14T15:20:06Z</time>
      </trkpt>
      <trkpt lat="41.4375220" lon="-4.9645960">
        <ele>720.6</ele>
        <time>2019-08-14T15:20:07Z</time>
      </trkpt>
      <trkpt lat="41.4375720" lon="-4.9645880">
        <ele>720.6</ele>
        <time>2019-08-14T15:20:08Z</time>
      </trkpt>
      <trkpt lat="41.4376240" lon="-4.9645780">
        <ele>720.6</ele>
        <time>2019-08-14T15:20:09Z</time>
      </trkpt>
      <trkpt lat="41.4376750" lon="-4.9645670">
        <ele>720.5</ele>
        <time>2019-08-14T15:20:10Z</time>
      </trkpt>
      <trkpt lat="41.4377260" lon="-4.9645600">
        <ele>720.5</ele>
        <time>2019-08-14T15:20:11Z</time>
      </trkpt>
      <trkpt lat="41.4377790" lon="-4.9645570">
        <ele>720.5</ele>
        <time>2019-08-14T15:20:12Z</time>
      </trkpt>
      <trkpt lat="41.4378300" lon="-4.9645540">
        <ele>720.5</ele>
        <time>2019-08-14T15:20:13Z</time>
      </trkpt>
      <trkpt lat="41.4378780" lon="-4.9645490">
        <ele>720.5</ele>
        <time>2019-08-14T15:20:14Z</time>
      </trkpt>
      <trkpt lat="41.4379250" lon="-4.9645420">
        <ele>720.5</ele>
        <time>2019-08-14T15:20:15Z</time>
      </trkpt>
      <trkpt lat="41.4379720" lon="-4.9645330">
        <ele>720.5</ele>
        <time>2019-08-14T15:20:16Z</time>
      </trkpt>
      <trkpt lat="41.4380210" lon="-4.9645260">
        <ele>720.5</ele>
        <time>2019-08-14T15:20:17Z</time>
      </trkpt>
      <trkpt lat="41.4380730" lon="-4.9645200">
        <ele>720.5</ele>
        <time>2019-08-14T15:20:18Z</time>
      </trkpt>
      <trkpt lat="41.4381260" lon="-4.9645110">
        <ele>720.5</ele>
        <time>2019-08-14T15:20:19Z</time>
      </trkpt>
      <trkpt lat="41.4381780" lon="-4.9645040">
        <ele>720.4</ele>
        <time>2019-08-14T15:20:20Z</time>
      </trkpt>
      <trkpt lat="41.4382290" lon="-4.9644990">
        <ele>720.5</ele>
        <time>2019-08-14T15:20:21Z</time>
      </trkpt>
      <trkpt lat="41.4382790" lon="-4.9644920">
        <ele>720.5</ele>
        <time>2019-08-14T15:20:22Z</time>
      </trkpt>
      <trkpt lat="41.4383290" lon="-4.9644840">
        <ele>720.5</ele>
        <time>2019-08-14T15:20:23Z</time>
      </trkpt>
      <trkpt lat="41.4383800" lon="-4.9644760">
        <ele>720.5</ele>
        <time>2019-08-14T15:20:24Z</time>
      </trkpt>
      <trkpt lat="41.4384300" lon="-4.9644660">
        <ele>720.5</ele>
        <time>2019-08-14T15:20:25Z</time>
      </trkpt>
      <trkpt lat="41.4384810" lon="-4.9644570">
        <ele>720.5</ele>
        <time>2019-08-14T15:20:26Z</time>
      </trkpt>
      <trkpt lat="41.4385320" lon="-4.9644500">
        <ele>720.5</ele>
        <time>2019-08-14T15:20:27Z</time>
      </trkpt>
      <trkpt lat="41.4385840" lon="-4.9644420">
        <ele>720.5</ele>
        <time>2019-08-14T15:20:28Z</time>
      </trkpt>
      <trkpt lat="41.4386360" lon="-4.9644320">
        <ele>720.5</ele>
        <time>2019-08-14T15:20:29Z</time>
      </trkpt>
      <trkpt lat="41.4386890" lon="-4.9644220">
        <ele>720.5</ele>
        <time>2019-08-14T15:20:30Z</time>
      </trkpt>
      <trkpt lat="41.4387420" lon="-4.9644140">
        <ele>720.5</ele>
        <time>2019-08-14T15:20:31Z</time>
      </trkpt>
      <trkpt lat="41.4387960" lon="-4.9644070">
        <ele>720.5</ele>
        <time>2019-08-14T15:20:32Z</time>
      </trkpt>
      <trkpt lat="41.4388490" lon="-4.9644010">
        <ele>720.5</ele>
        <time>2019-08-14T15:20:33Z</time>
      </trkpt>
      <trkpt lat="41.4388990" lon="-4.9643950">
        <ele>720.5</ele>
        <time>2019-08-14T15:20:34Z</time>
      </trkpt>
      <trkpt lat="41.4389490" lon="-4.9643900">
        <ele>720.5</ele>
        <time>2019-08-14T15:20:35Z</time>
      </trkpt>
      <trkpt lat="41.4390010" lon="-4.9643850">
        <ele>720.5</ele>
        <time>2019-08-14T15:20:36Z</time>
      </trkpt>
      <trkpt lat="41.4390550" lon="-4.9643800">
        <ele>720.4</ele>
        <time>2019-08-14T15:20:37Z</time>
      </trkpt>
      <trkpt lat="41.4391080" lon="-4.9643750">
        <ele>720.3</ele>
        <time>2019-08-14T15:20:38Z</time>
      </trkpt>
      <trkpt lat="41.4391650" lon="-4.9643690">
        <ele>720.2</ele>
        <time>2019-08-14T15:20:39Z</time>
      </trkpt>
      <trkpt lat="41.4392190" lon="-4.9643610">
        <ele>720.1</ele>
        <time>2019-08-14T15:20:40Z</time>
      </trkpt>
      <trkpt lat="41.4392710" lon="-4.9643530">
        <ele>720.0</ele>
        <time>2019-08-14T15:20:41Z</time>
      </trkpt>
      <trkpt lat="41.4393240" lon="-4.9643440">
        <ele>719.9</ele>
        <time>2019-08-14T15:20:42Z</time>
      </trkpt>
      <trkpt lat="41.4393780" lon="-4.9643370">
        <ele>719.8</ele>
        <time>2019-08-14T15:20:43Z</time>
      </trkpt>
      <trkpt lat="41.4394330" lon="-4.9643290">
        <ele>719.6</ele>
        <time>2019-08-14T15:20:44Z</time>
      </trkpt>
      <trkpt lat="41.4394920" lon="-4.9643200">
        <ele>719.4</ele>
        <time>2019-08-14T15:20:45Z</time>
      </trkpt>
      <trkpt lat="41.4395500" lon="-4.9643110">
        <ele>719.2</ele>
        <time>2019-08-14T15:20:46Z</time>
      </trkpt>
      <trkpt lat="41.4396110" lon="-4.9643000">
        <ele>719.0</ele>
        <time>2019-08-14T15:20:47Z</time>
      </trkpt>
      <trkpt lat="41.4396710" lon="-4.9642910">
        <ele>718.9</ele>
        <time>2019-08-14T15:20:48Z</time>
      </trkpt>
      <trkpt lat="41.4397300" lon="-4.9642820">
        <ele>718.7</ele>
        <time>2019-08-14T15:20:49Z</time>
      </trkpt>
      <trkpt lat="41.4397900" lon="-4.9642730">
        <ele>718.6</ele>
        <time>2019-08-14T15:20:50Z</time>
      </trkpt>
      <trkpt lat="41.4398490" lon="-4.9642610">
        <ele>718.4</ele>
        <time>2019-08-14T15:20:51Z</time>
      </trkpt>
      <trkpt lat="41.4399070" lon="-4.9642530">
        <ele>718.2</ele>
        <time>2019-08-14T15:20:52Z</time>
      </trkpt>
      <trkpt lat="41.4399640" lon="-4.9642450">
        <ele>718.1</ele>
        <time>2019-08-14T15:20:53Z</time>
      </trkpt>
      <trkpt lat="41.4400200" lon="-4.9642380">
        <ele>718.0</ele>
        <time>2019-08-14T15:20:54Z</time>
      </trkpt>
      <trkpt lat="41.4400760" lon="-4.9642290">
        <ele>717.9</ele>
        <time>2019-08-14T15:20:55Z</time>
      </trkpt>
      <trkpt lat="41.4401330" lon="-4.9642190">
        <ele>717.8</ele>
        <time>2019-08-14T15:20:56Z</time>
      </trkpt>
      <trkpt lat="41.4401900" lon="-4.9642100">
        <ele>717.6</ele>
        <time>2019-08-14T15:20:57Z</time>
      </trkpt>
      <trkpt lat="41.4402490" lon="-4.9642010">
        <ele>717.5</ele>
        <time>2019-08-14T15:20:58Z</time>
      </trkpt>
      <trkpt lat="41.4403100" lon="-4.9641920">
        <ele>717.3</ele>
        <time>2019-08-14T15:20:59Z</time>
      </trkpt>
      <trkpt lat="41.4403690" lon="-4.9641840">
        <ele>717.1</ele>
        <time>2019-08-14T15:21:00Z</time>
      </trkpt>
      <trkpt lat="41.4404280" lon="-4.9641740">
        <ele>716.9</ele>
        <time>2019-08-14T15:21:01Z</time>
      </trkpt>
      <trkpt lat="41.4404870" lon="-4.9641650">
        <ele>716.7</ele>
        <time>2019-08-14T15:21:02Z</time>
      </trkpt>
      <trkpt lat="41.4405470" lon="-4.9641560">
        <ele>716.5</ele>
        <time>2019-08-14T15:21:03Z</time>
      </trkpt>
      <trkpt lat="41.4406060" lon="-4.9641470">
        <ele>716.3</ele>
        <time>2019-08-14T15:21:04Z</time>
      </trkpt>
      <trkpt lat="41.4406650" lon="-4.9641380">
        <ele>716.1</ele>
        <time>2019-08-14T15:21:05Z</time>
      </trkpt>
      <trkpt lat="41.4407250" lon="-4.9641300">
        <ele>715.9</ele>
        <time>2019-08-14T15:21:06Z</time>
      </trkpt>
      <trkpt lat="41.4407840" lon="-4.9641210">
        <ele>715.8</ele>
        <time>2019-08-14T15:21:07Z</time>
      </trkpt>
      <trkpt lat="41.4408460" lon="-4.9641120">
        <ele>715.7</ele>
        <time>2019-08-14T15:21:08Z</time>
      </trkpt>
      <trkpt lat="41.4409060" lon="-4.9641020">
        <ele>715.6</ele>
        <time>2019-08-14T15:21:09Z</time>
      </trkpt>
      <trkpt lat="41.4409660" lon="-4.9640940">
        <ele>715.5</ele>
        <time>2019-08-14T15:21:10Z</time>
      </trkpt>
      <trkpt lat="41.4410250" lon="-4.9640840">
        <ele>715.4</ele>
        <time>2019-08-14T15:21:11Z</time>
      </trkpt>
      <trkpt lat="41.4410860" lon="-4.9640730">
        <ele>715.4</ele>
        <time>2019-08-14T15:21:12Z</time>
      </trkpt>
      <trkpt lat="41.4411460" lon="-4.9640640">
        <ele>715.3</ele>
        <time>2019-08-14T15:21:13Z</time>
      </trkpt>
      <trkpt lat="41.4412060" lon="-4.9640570">
        <ele>715.2</ele>
        <time>2019-08-14T15:21:14Z</time>
      </trkpt>
      <trkpt lat="41.4412660" lon="-4.9640490">
        <ele>715.2</ele>
        <time>2019-08-14T15:21:15Z</time>
      </trkpt>
      <trkpt lat="41.4413270" lon="-4.9640400">
        <ele>715.1</ele>
        <time>2019-08-14T15:21:16Z</time>
      </trkpt>
      <trkpt lat="41.4413880" lon="-4.9640310">
        <ele>715.0</ele>
        <time>2019-08-14T15:21:17Z</time>
      </trkpt>
      <trkpt lat="41.4414490" lon="-4.9640230">
        <ele>714.9</ele>
        <time>2019-08-14T15:21:18Z</time>
      </trkpt>
      <trkpt lat="41.4415120" lon="-4.9640140">
        <ele>714.8</ele>
        <time>2019-08-14T15:21:19Z</time>
      </trkpt>
      <trkpt lat="41.4415750" lon="-4.9640050">
        <ele>714.8</ele>
        <time>2019-08-14T15:21:20Z</time>
      </trkpt>
      <trkpt lat="41.4416390" lon="-4.9639950">
        <ele>714.7</ele>
        <time>2019-08-14T15:21:21Z</time>
      </trkpt>
      <trkpt lat="41.4417000" lon="-4.9639860">
        <ele>714.5</ele>
        <time>2019-08-14T15:21:22Z</time>
      </trkpt>
      <trkpt lat="41.4417610" lon="-4.9639780">
        <ele>714.4</ele>
        <time>2019-08-14T15:21:23Z</time>
      </trkpt>
      <trkpt lat="41.4418220" lon="-4.9639700">
        <ele>714.3</ele>
        <time>2019-08-14T15:21:24Z</time>
      </trkpt>
      <trkpt lat="41.4418850" lon="-4.9639600">
        <ele>714.2</ele>
        <time>2019-08-14T15:21:25Z</time>
      </trkpt>
      <trkpt lat="41.4419460" lon="-4.9639510">
        <ele>714.0</ele>
        <time>2019-08-14T15:21:26Z</time>
      </trkpt>
      <trkpt lat="41.4420070" lon="-4.9639410">
        <ele>713.9</ele>
        <time>2019-08-14T15:21:27Z</time>
      </trkpt>
      <trkpt lat="41.4420680" lon="-4.9639270">
        <ele>713.8</ele>
        <time>2019-08-14T15:21:28Z</time>
      </trkpt>
      <trkpt lat="41.4421300" lon="-4.9639150">
        <ele>713.7</ele>
        <time>2019-08-14T15:21:29Z</time>
      </trkpt>
      <trkpt lat="41.4421910" lon="-4.9639060">
        <ele>713.7</ele>
        <time>2019-08-14T15:21:30Z</time>
      </trkpt>
      <trkpt lat="41.4422530" lon="-4.9638990">
        <ele>713.6</ele>
        <time>2019-08-14T15:21:31Z</time>
      </trkpt>
      <trkpt lat="41.4423150" lon="-4.9638910">
        <ele>713.5</ele>
        <time>2019-08-14T15:21:32Z</time>
      </trkpt>
      <trkpt lat="41.4423760" lon="-4.9638820">
        <ele>713.5</ele>
        <time>2019-08-14T15:21:33Z</time>
      </trkpt>
      <trkpt lat="41.4424360" lon="-4.9638700">
        <ele>713.4</ele>
        <time>2019-08-14T15:21:34Z</time>
      </trkpt>
      <trkpt lat="41.4424940" lon="-4.9638590">
        <ele>713.4</ele>
        <time>2019-08-14T15:21:35Z</time>
      </trkpt>
      <trkpt lat="41.4425510" lon="-4.9638490">
        <ele>713.5</ele>
        <time>2019-08-14T15:21:36Z</time>
      </trkpt>
      <trkpt lat="41.4426090" lon="-4.9638380">
        <ele>713.5</ele>
        <time>2019-08-14T15:21:37Z</time>
      </trkpt>
      <trkpt lat="41.4426650" lon="-4.9638280">
        <ele>713.5</ele>
        <time>2019-08-14T15:21:38Z</time>
      </trkpt>
      <trkpt lat="41.4427220" lon="-4.9638150">
        <ele>713.6</ele>
        <time>2019-08-14T15:21:39Z</time>
      </trkpt>
      <trkpt lat="41.4427780" lon="-4.9638010">
        <ele>713.7</ele>
        <time>2019-08-14T15:21:40Z</time>
      </trkpt>
      <trkpt lat="41.4428340" lon="-4.9637870">
        <ele>713.7</ele>
        <time>2019-08-14T15:21:41Z</time>
      </trkpt>
      <trkpt lat="41.4428910" lon="-4.9637710">
        <ele>713.8</ele>
        <time>2019-08-14T15:21:42Z</time>
      </trkpt>
      <trkpt lat="41.4429470" lon="-4.9637540">
        <ele>713.8</ele>
        <time>2019-08-14T15:21:43Z</time>
      </trkpt>
      <trkpt lat="41.4430040" lon="-4.9637350">
        <ele>713.9</ele>
        <time>2019-08-14T15:21:44Z</time>
      </trkpt>
      <trkpt lat="41.4430600" lon="-4.9637140">
        <ele>713.9</ele>
        <time>2019-08-14T15:21:45Z</time>
      </trkpt>
      <trkpt lat="41.4431180" lon="-4.9636890">
        <ele>713.9</ele>
        <time>2019-08-14T15:21:46Z</time>
      </trkpt>
      <trkpt lat="41.4431740" lon="-4.9636650">
        <ele>713.9</ele>
        <time>2019-08-14T15:21:47Z</time>
      </trkpt>
      <trkpt lat="41.4432320" lon="-4.9636450">
        <ele>713.9</ele>
        <time>2019-08-14T15:21:48Z</time>
      </trkpt>
      <trkpt lat="41.4432880" lon="-4.9636260">
        <ele>713.8</ele>
        <time>2019-08-14T15:21:49Z</time>
      </trkpt>
      <trkpt lat="41.4433460" lon="-4.9636070">
        <ele>713.8</ele>
        <time>2019-08-14T15:21:50Z</time>
      </trkpt>
      <trkpt lat="41.4434020" lon="-4.9635900">
        <ele>713.7</ele>
        <time>2019-08-14T15:21:51Z</time>
      </trkpt>
      <trkpt lat="41.4434580" lon="-4.9635720">
        <ele>713.7</ele>
        <time>2019-08-14T15:21:52Z</time>
      </trkpt>
      <trkpt lat="41.4435130" lon="-4.9635560">
        <ele>713.7</ele>
        <time>2019-08-14T15:21:53Z</time>
      </trkpt>
      <trkpt lat="41.4435720" lon="-4.9635390">
        <ele>713.7</ele>
        <time>2019-08-14T15:21:54Z</time>
      </trkpt>
      <trkpt lat="41.4436310" lon="-4.9635210">
        <ele>713.6</ele>
        <time>2019-08-14T15:21:55Z</time>
      </trkpt>
      <trkpt lat="41.4436900" lon="-4.9635040">
        <ele>713.5</ele>
        <time>2019-08-14T15:21:56Z</time>
      </trkpt>
      <trkpt lat="41.4437500" lon="-4.9634860">
        <ele>713.4</ele>
        <time>2019-08-14T15:21:57Z</time>
      </trkpt>
      <trkpt lat="41.4438090" lon="-4.9634700">
        <ele>713.3</ele>
        <time>2019-08-14T15:21:58Z</time>
      </trkpt>
      <trkpt lat="41.4438680" lon="-4.9634530">
        <ele>713.0</ele>
        <time>2019-08-14T15:21:59Z</time>
      </trkpt>
      <trkpt lat="41.4439260" lon="-4.9634380">
        <ele>712.7</ele>
        <time>2019-08-14T15:22:00Z</time>
      </trkpt>
      <trkpt lat="41.4439850" lon="-4.9634240">
        <ele>712.3</ele>
        <time>2019-08-14T15:22:01Z</time>
      </trkpt>
      <trkpt lat="41.4440420" lon="-4.9634110">
        <ele>712.0</ele>
        <time>2019-08-14T15:22:02Z</time>
      </trkpt>
      <trkpt lat="41.4440980" lon="-4.9633970">
        <ele>711.8</ele>
        <time>2019-08-14T15:22:03Z</time>
      </trkpt>
      <trkpt lat="41.4441560" lon="-4.9633820">
        <ele>711.4</ele>
        <time>2019-08-14T15:22:04Z</time>
      </trkpt>
      <trkpt lat="41.4442120" lon="-4.9633650">
        <ele>711.0</ele>
        <time>2019-08-14T15:22:05Z</time>
      </trkpt>
      <trkpt lat="41.4442690" lon="-4.9633500">
        <ele>710.7</ele>
        <time>2019-08-14T15:22:06Z</time>
      </trkpt>
      <trkpt lat="41.4443250" lon="-4.9633370">
        <ele>710.4</ele>
        <time>2019-08-14T15:22:07Z</time>
      </trkpt>
      <trkpt lat="41.4443830" lon="-4.9633240">
        <ele>710.2</ele>
        <time>2019-08-14T15:22:08Z</time>
      </trkpt>
      <trkpt lat="41.4444410" lon="-4.9633090">
        <ele>710.0</ele>
        <time>2019-08-14T15:22:09Z</time>
      </trkpt>
      <trkpt lat="41.4444990" lon="-4.9632930">
        <ele>709.8</ele>
        <time>2019-08-14T15:22:10Z</time>
      </trkpt>
      <trkpt lat="41.4445600" lon="-4.9632760">
        <ele>709.5</ele>
        <time>2019-08-14T15:22:11Z</time>
      </trkpt>
      <trkpt lat="41.4446240" lon="-4.9632620">
        <ele>709.3</ele>
        <time>2019-08-14T15:22:12Z</time>
      </trkpt>
      <trkpt lat="41.4446890" lon="-4.9632480">
        <ele>709.1</ele>
        <time>2019-08-14T15:22:13Z</time>
      </trkpt>
      <trkpt lat="41.4447560" lon="-4.9632310">
        <ele>708.7</ele>
        <time>2019-08-14T15:22:14Z</time>
      </trkpt>
      <trkpt lat="41.4448270" lon="-4.9632130">
        <ele>708.3</ele>
        <time>2019-08-14T15:22:15Z</time>
      </trkpt>
      <trkpt lat="41.4449000" lon="-4.9631940">
        <ele>708.0</ele>
        <time>2019-08-14T15:22:16Z</time>
      </trkpt>
      <trkpt lat="41.4449740" lon="-4.9631770">
        <ele>707.6</ele>
        <time>2019-08-14T15:22:17Z</time>
      </trkpt>
      <trkpt lat="41.4450470" lon="-4.9631590">
        <ele>707.3</ele>
        <time>2019-08-14T15:22:18Z</time>
      </trkpt>
      <trkpt lat="41.4451230" lon="-4.9631430">
        <ele>706.9</ele>
        <time>2019-08-14T15:22:19Z</time>
      </trkpt>
      <trkpt lat="41.4451990" lon="-4.9631260">
        <ele>706.5</ele>
        <time>2019-08-14T15:22:20Z</time>
      </trkpt>
      <trkpt lat="41.4452750" lon="-4.9631080">
        <ele>706.3</ele>
        <time>2019-08-14T15:22:21Z</time>
      </trkpt>
      <trkpt lat="41.4453520" lon="-4.9630920">
        <ele>706.0</ele>
        <time>2019-08-14T15:22:22Z</time>
      </trkpt>
      <trkpt lat="41.4454290" lon="-4.9630750">
        <ele>705.7</ele>
        <time>2019-08-14T15:22:23Z</time>
      </trkpt>
      <trkpt lat="41.4455050" lon="-4.9630580">
        <ele>705.4</ele>
        <time>2019-08-14T15:22:24Z</time>
      </trkpt>
      <trkpt lat="41.4455820" lon="-4.9630390">
        <ele>705.2</ele>
        <time>2019-08-14T15:22:25Z</time>
      </trkpt>
      <trkpt lat="41.4456590" lon="-4.9630210">
        <ele>704.8</ele>
        <time>2019-08-14T15:22:26Z</time>
      </trkpt>
      <trkpt lat="41.4457340" lon="-4.9630030">
        <ele>704.5</ele>
        <time>2019-08-14T15:22:27Z</time>
      </trkpt>
      <trkpt lat="41.4458120" lon="-4.9629840">
        <ele>704.2</ele>
        <time>2019-08-14T15:22:28Z</time>
      </trkpt>
      <trkpt lat="41.4458890" lon="-4.9629650">
        <ele>703.8</ele>
        <time>2019-08-14T15:22:29Z</time>
      </trkpt>
      <trkpt lat="41.4459650" lon="-4.9629470">
        <ele>703.5</ele>
        <time>2019-08-14T15:22:30Z</time>
      </trkpt>
      <trkpt lat="41.4460400" lon="-4.9629300">
        <ele>703.2</ele>
        <time>2019-08-14T15:22:31Z</time>
      </trkpt>
      <trkpt lat="41.4461160" lon="-4.9629120">
        <ele>702.9</ele>
        <time>2019-08-14T15:22:32Z</time>
      </trkpt>
      <trkpt lat="41.4461920" lon="-4.9628940">
        <ele>702.6</ele>
        <time>2019-08-14T15:22:33Z</time>
      </trkpt>
      <trkpt lat="41.4462690" lon="-4.9628770">
        <ele>702.4</ele>
        <time>2019-08-14T15:22:34Z</time>
      </trkpt>
      <trkpt lat="41.4463460" lon="-4.9628610">
        <ele>702.1</ele>
        <time>2019-08-14T15:22:35Z</time>
      </trkpt>
      <trkpt lat="41.4464240" lon="-4.9628450">
        <ele>701.9</ele>
        <time>2019-08-14T15:22:36Z</time>
      </trkpt>
      <trkpt lat="41.4465010" lon="-4.9628290">
        <ele>701.6</ele>
        <time>2019-08-14T15:22:37Z</time>
      </trkpt>
      <trkpt lat="41.4465780" lon="-4.9628090">
        <ele>701.5</ele>
        <time>2019-08-14T15:22:38Z</time>
      </trkpt>
      <trkpt lat="41.4466490" lon="-4.9627910">
        <ele>701.3</ele>
        <time>2019-08-14T15:22:39Z</time>
      </trkpt>
      <trkpt lat="41.4467150" lon="-4.9627770">
        <ele>701.1</ele>
        <time>2019-08-14T15:22:40Z</time>
      </trkpt>
      <trkpt lat="41.4467680" lon="-4.9627690">
        <ele>701.0</ele>
        <time>2019-08-14T15:22:41Z</time>
      </trkpt>
      <trkpt lat="41.4468160" lon="-4.9627670">
        <ele>701.0</ele>
        <time>2019-08-14T15:22:42Z</time>
      </trkpt>
      <trkpt lat="41.4468570" lon="-4.9627740">
        <ele>700.9</ele>
        <time>2019-08-14T15:22:43Z</time>
      </trkpt>
      <trkpt lat="41.4468900" lon="-4.9627880">
        <ele>700.8</ele>
        <time>2019-08-14T15:22:44Z</time>
      </trkpt>
      <trkpt lat="41.4469190" lon="-4.9628070">
        <ele>700.8</ele>
        <time>2019-08-14T15:22:45Z</time>
      </trkpt>
      <trkpt lat="41.4469440" lon="-4.9628310">
        <ele>700.5</ele>
        <time>2019-08-14T15:22:46Z</time>
      </trkpt>
      <trkpt lat="41.4469620" lon="-4.9628600">
        <ele>700.5</ele>
        <time>2019-08-14T15:22:47Z</time>
      </trkpt>
      <trkpt lat="41.4469750" lon="-4.9628930">
        <ele>700.5</ele>
        <time>2019-08-14T15:22:48Z</time>
      </trkpt>
      <trkpt lat="41.4469960" lon="-4.9629620">
        <ele>700.5</ele>
        <time>2019-08-14T15:22:50Z</time>
      </trkpt>
      <trkpt lat="41.4470050" lon="-4.9630020">
        <ele>700.5</ele>
        <time>2019-08-14T15:22:51Z</time>
      </trkpt>
      <trkpt lat="41.4470180" lon="-4.9630460">
        <ele>700.5</ele>
        <time>2019-08-14T15:22:52Z</time>
      </trkpt>
      <trkpt lat="41.4470310" lon="-4.9630930">
        <ele>700.6</ele>
        <time>2019-08-14T15:22:53Z</time>
      </trkpt>
      <trkpt lat="41.4470420" lon="-4.9631450">
        <ele>700.6</ele>
        <time>2019-08-14T15:22:54Z</time>
      </trkpt>
      <trkpt lat="41.4470510" lon="-4.9632000">
        <ele>700.7</ele>
        <time>2019-08-14T15:22:55Z</time>
      </trkpt>
      <trkpt lat="41.4470580" lon="-4.9632570">
        <ele>700.7</ele>
        <time>2019-08-14T15:22:56Z</time>
      </trkpt>
      <trkpt lat="41.4470660" lon="-4.9633130">
        <ele>700.8</ele>
        <time>2019-08-14T15:22:57Z</time>
      </trkpt>
      <trkpt lat="41.4470740" lon="-4.9633710">
        <ele>700.9</ele>
        <time>2019-08-14T15:22:58Z</time>
      </trkpt>
      <trkpt lat="41.4470830" lon="-4.9634290">
        <ele>701.0</ele>
        <time>2019-08-14T15:22:59Z</time>
      </trkpt>
      <trkpt lat="41.4470940" lon="-4.9634870">
        <ele>701.1</ele>
        <time>2019-08-14T15:23:00Z</time>
      </trkpt>
      <trkpt lat="41.4471040" lon="-4.9635440">
        <ele>701.2</ele>
        <time>2019-08-14T15:23:01Z</time>
      </trkpt>
      <trkpt lat="41.4471130" lon="-4.9636000">
        <ele>701.3</ele>
        <time>2019-08-14T15:23:02Z</time>
      </trkpt>
      <trkpt lat="41.4471220" lon="-4.9636560">
        <ele>701.4</ele>
        <time>2019-08-14T15:23:03Z</time>
      </trkpt>
      <trkpt lat="41.4471320" lon="-4.9637140">
        <ele>701.5</ele>
        <time>2019-08-14T15:23:04Z</time>
      </trkpt>
      <trkpt lat="41.4471420" lon="-4.9637730">
        <ele>701.6</ele>
        <time>2019-08-14T15:23:05Z</time>
      </trkpt>
      <trkpt lat="41.4471520" lon="-4.9638300">
        <ele>701.6</ele>
        <time>2019-08-14T15:23:06Z</time>
      </trkpt>
      <trkpt lat="41.4471620" lon="-4.9638890">
        <ele>701.7</ele>
        <time>2019-08-14T15:23:07Z</time>
      </trkpt>
      <trkpt lat="41.4471720" lon="-4.9639500">
        <ele>701.7</ele>
        <time>2019-08-14T15:23:08Z</time>
      </trkpt>
      <trkpt lat="41.4471800" lon="-4.9640140">
        <ele>701.8</ele>
        <time>2019-08-14T15:23:09Z</time>
      </trkpt>
      <trkpt lat="41.4471870" lon="-4.9640780">
        <ele>701.8</ele>
        <time>2019-08-14T15:23:10Z</time>
      </trkpt>
      <trkpt lat="41.4471920" lon="-4.9641390">
        <ele>701.8</ele>
        <time>2019-08-14T15:23:11Z</time>
      </trkpt>
      <trkpt lat="41.4472010" lon="-4.9641970">
        <ele>701.8</ele>
        <time>2019-08-14T15:23:12Z</time>
      </trkpt>
      <trkpt lat="41.4472100" lon="-4.9642520">
        <ele>701.8</ele>
        <time>2019-08-14T15:23:13Z</time>
      </trkpt>
      <trkpt lat="41.4472200" lon="-4.9643040">
        <ele>701.8</ele>
        <time>2019-08-14T15:23:14Z</time>
      </trkpt>
      <trkpt lat="41.4472260" lon="-4.9643540">
        <ele>701.8</ele>
        <time>2019-08-14T15:23:15Z</time>
      </trkpt>
      <trkpt lat="41.4472300" lon="-4.9644010">
        <ele>701.8</ele>
        <time>2019-08-14T15:23:16Z</time>
      </trkpt>
      <trkpt lat="41.4472360" lon="-4.9644490">
        <ele>701.8</ele>
        <time>2019-08-14T15:23:17Z</time>
      </trkpt>
      <trkpt lat="41.4472440" lon="-4.9644990">
        <ele>701.9</ele>
        <time>2019-08-14T15:23:18Z</time>
      </trkpt>
      <trkpt lat="41.4472520" lon="-4.9645530">
        <ele>701.9</ele>
        <time>2019-08-14T15:23:19Z</time>
      </trkpt>
      <trkpt lat="41.4472590" lon="-4.9646080">
        <ele>701.9</ele>
        <time>2019-08-14T15:23:20Z</time>
      </trkpt>
      <trkpt lat="41.4472670" lon="-4.9646610">
        <ele>701.9</ele>
        <time>2019-08-14T15:23:21Z</time>
      </trkpt>
      <trkpt lat="41.4472740" lon="-4.9647170">
        <ele>701.9</ele>
        <time>2019-08-14T15:23:22Z</time>
      </trkpt>
      <trkpt lat="41.4472830" lon="-4.9647730">
        <ele>702.0</ele>
        <time>2019-08-14T15:23:23Z</time>
      </trkpt>
      <trkpt lat="41.4472910" lon="-4.9648270">
        <ele>702.0</ele>
        <time>2019-08-14T15:23:24Z</time>
      </trkpt>
      <trkpt lat="41.4472990" lon="-4.9648820">
        <ele>702.1</ele>
        <time>2019-08-14T15:23:25Z</time>
      </trkpt>
      <trkpt lat="41.4473060" lon="-4.9649380">
        <ele>702.2</ele>
        <time>2019-08-14T15:23:26Z</time>
      </trkpt>
      <trkpt lat="41.4473110" lon="-4.9649950">
        <ele>702.3</ele>
        <time>2019-08-14T15:23:27Z</time>
      </trkpt>
      <trkpt lat="41.4473170" lon="-4.9650500">
        <ele>702.4</ele>
        <time>2019-08-14T15:23:28Z</time>
      </trkpt>
      <trkpt lat="41.4473230" lon="-4.9651070">
        <ele>702.5</ele>
        <time>2019-08-14T15:23:29Z</time>
      </trkpt>
      <trkpt lat="41.4473300" lon="-4.9651630">
        <ele>702.6</ele>
        <time>2019-08-14T15:23:30Z</time>
      </trkpt>
      <trkpt lat="41.4473360" lon="-4.9652200">
        <ele>702.7</ele>
        <time>2019-08-14T15:23:31Z</time>
      </trkpt>
      <trkpt lat="41.4473420" lon="-4.9652780">
        <ele>702.8</ele>
        <time>2019-08-14T15:23:32Z</time>
      </trkpt>
      <trkpt lat="41.4473470" lon="-4.9653350">
        <ele>702.9</ele>
        <time>2019-08-14T15:23:33Z</time>
      </trkpt>
      <trkpt lat="41.4473520" lon="-4.9653930">
        <ele>703.0</ele>
        <time>2019-08-14T15:23:34Z</time>
      </trkpt>
      <trkpt lat="41.4473590" lon="-4.9654500">
        <ele>703.0</ele>
        <time>2019-08-14T15:23:35Z</time>
      </trkpt>
      <trkpt lat="41.4473660" lon="-4.9655070">
        <ele>703.1</ele>
        <time>2019-08-14T15:23:36Z</time>
      </trkpt>
      <trkpt lat="41.4473710" lon="-4.9655630">
        <ele>703.2</ele>
        <time>2019-08-14T15:23:37Z</time>
      </trkpt>
      <trkpt lat="41.4473770" lon="-4.9656190">
        <ele>703.2</ele>
        <time>2019-08-14T15:23:38Z</time>
      </trkpt>
      <trkpt lat="41.4473830" lon="-4.9656740">
        <ele>703.3</ele>
        <time>2019-08-14T15:23:39Z</time>
      </trkpt>
      <trkpt lat="41.4473880" lon="-4.9657280">
        <ele>703.3</ele>
        <time>2019-08-14T15:23:40Z</time>
      </trkpt>
      <trkpt lat="41.4473930" lon="-4.9657820">
        <ele>703.3</ele>
        <time>2019-08-14T15:23:41Z</time>
      </trkpt>
      <trkpt lat="41.4473990" lon="-4.9658370">
        <ele>703.3</ele>
        <time>2019-08-14T15:23:42Z</time>
      </trkpt>
      <trkpt lat="41.4474050" lon="-4.9658920">
        <ele>703.3</ele>
        <time>2019-08-14T15:23:43Z</time>
      </trkpt>
      <trkpt lat="41.4474080" lon="-4.9659460">
        <ele>703.2</ele>
        <time>2019-08-14T15:23:44Z</time>
      </trkpt>
      <trkpt lat="41.4474120" lon="-4.9660010">
        <ele>703.2</ele>
        <time>2019-08-14T15:23:45Z</time>
      </trkpt>
      <trkpt lat="41.4474170" lon="-4.9660540">
        <ele>703.1</ele>
        <time>2019-08-14T15:23:46Z</time>
      </trkpt>
      <trkpt lat="41.4474200" lon="-4.9661060">
        <ele>703.0</ele>
        <time>2019-08-14T15:23:47Z</time>
      </trkpt>
      <trkpt lat="41.4474260" lon="-4.9661580">
        <ele>702.9</ele>
        <time>2019-08-14T15:23:48Z</time>
      </trkpt>
      <trkpt lat="41.4474300" lon="-4.9662120">
        <ele>702.8</ele>
        <time>2019-08-14T15:23:49Z</time>
      </trkpt>
      <trkpt lat="41.4474340" lon="-4.9662670">
        <ele>702.7</ele>
        <time>2019-08-14T15:23:50Z</time>
      </trkpt>
      <trkpt lat="41.4474370" lon="-4.9663220">
        <ele>702.6</ele>
        <time>2019-08-14T15:23:51Z</time>
      </trkpt>
      <trkpt lat="41.4474420" lon="-4.9663790">
        <ele>702.5</ele>
        <time>2019-08-14T15:23:52Z</time>
      </trkpt>
      <trkpt lat="41.4474470" lon="-4.9664350">
        <ele>702.4</ele>
        <time>2019-08-14T15:23:53Z</time>
      </trkpt>
      <trkpt lat="41.4474510" lon="-4.9664900">
        <ele>702.2</ele>
        <time>2019-08-14T15:23:54Z</time>
      </trkpt>
      <trkpt lat="41.4474550" lon="-4.9665430">
        <ele>702.1</ele>
        <time>2019-08-14T15:23:55Z</time>
      </trkpt>
      <trkpt lat="41.4474590" lon="-4.9665920">
        <ele>702.0</ele>
        <time>2019-08-14T15:23:56Z</time>
      </trkpt>
      <trkpt lat="41.4474620" lon="-4.9666400">
        <ele>701.9</ele>
        <time>2019-08-14T15:23:57Z</time>
      </trkpt>
      <trkpt lat="41.4474650" lon="-4.9666900">
        <ele>701.7</ele>
        <time>2019-08-14T15:23:58Z</time>
      </trkpt>
      <trkpt lat="41.4474710" lon="-4.9667420">
        <ele>701.6</ele>
        <time>2019-08-14T15:23:59Z</time>
      </trkpt>
      <trkpt lat="41.4474750" lon="-4.9667960">
        <ele>701.5</ele>
        <time>2019-08-14T15:24:00Z</time>
      </trkpt>
      <trkpt lat="41.4474790" lon="-4.9668540">
        <ele>701.3</ele>
        <time>2019-08-14T15:24:01Z</time>
      </trkpt>
      <trkpt lat="41.4474840" lon="-4.9669150">
        <ele>701.2</ele>
        <time>2019-08-14T15:24:02Z</time>
      </trkpt>
      <trkpt lat="41.4474870" lon="-4.9669770">
        <ele>701.1</ele>
        <time>2019-08-14T15:24:03Z</time>
      </trkpt>
      <trkpt lat="41.4474910" lon="-4.9670410">
        <ele>700.9</ele>
        <time>2019-08-14T15:24:04Z</time>
      </trkpt>
      <trkpt lat="41.4474950" lon="-4.9671030">
        <ele>700.8</ele>
        <time>2019-08-14T15:24:05Z</time>
      </trkpt>
      <trkpt lat="41.4475000" lon="-4.9671650">
        <ele>700.7</ele>
        <time>2019-08-14T15:24:06Z</time>
      </trkpt>
      <trkpt lat="41.4475040" lon="-4.9672260">
        <ele>700.7</ele>
        <time>2019-08-14T15:24:07Z</time>
      </trkpt>
      <trkpt lat="41.4475080" lon="-4.9672870">
        <ele>700.6</ele>
        <time>2019-08-14T15:24:08Z</time>
      </trkpt>
      <trkpt lat="41.4475120" lon="-4.9673470">
        <ele>700.5</ele>
        <time>2019-08-14T15:24:09Z</time>
      </trkpt>
      <trkpt lat="41.4475160" lon="-4.9674090">
        <ele>700.5</ele>
        <time>2019-08-14T15:24:10Z</time>
      </trkpt>
      <trkpt lat="41.4475200" lon="-4.9674730">
        <ele>700.4</ele>
        <time>2019-08-14T15:24:11Z</time>
      </trkpt>
      <trkpt lat="41.4475270" lon="-4.9675370">
        <ele>700.4</ele>
        <time>2019-08-14T15:24:12Z</time>
      </trkpt>
      <trkpt lat="41.4475340" lon="-4.9676020">
        <ele>700.3</ele>
        <time>2019-08-14T15:24:13Z</time>
      </trkpt>
      <trkpt lat="41.4475410" lon="-4.9676670">
        <ele>700.3</ele>
        <time>2019-08-14T15:24:14Z</time>
      </trkpt>
      <trkpt lat="41.4475460" lon="-4.9677340">
        <ele>700.3</ele>
        <time>2019-08-14T15:24:15Z</time>
      </trkpt>
      <trkpt lat="41.4475480" lon="-4.9678020">
        <ele>700.3</ele>
        <time>2019-08-14T15:24:16Z</time>
      </trkpt>
      <trkpt lat="41.4475530" lon="-4.9678720">
        <ele>700.2</ele>
        <time>2019-08-14T15:24:17Z</time>
      </trkpt>
      <trkpt lat="41.4475590" lon="-4.9679400">
        <ele>700.2</ele>
        <time>2019-08-14T15:24:18Z</time>
      </trkpt>
      <trkpt lat="41.4475670" lon="-4.9680100">
        <ele>700.2</ele>
        <time>2019-08-14T15:24:19Z</time>
      </trkpt>
      <trkpt lat="41.4475730" lon="-4.9680810">
        <ele>700.1</ele>
        <time>2019-08-14T15:24:20Z</time>
      </trkpt>
      <trkpt lat="41.4475780" lon="-4.9681530">
        <ele>700.1</ele>
        <time>2019-08-14T15:24:21Z</time>
      </trkpt>
      <trkpt lat="41.4475850" lon="-4.9682250">
        <ele>700.1</ele>
        <time>2019-08-14T15:24:22Z</time>
      </trkpt>
      <trkpt lat="41.4475920" lon="-4.9682950">
        <ele>700.0</ele>
        <time>2019-08-14T15:24:23Z</time>
      </trkpt>
      <trkpt lat="41.4475970" lon="-4.9683650">
        <ele>700.0</ele>
        <time>2019-08-14T15:24:24Z</time>
      </trkpt>
      <trkpt lat="41.4476010" lon="-4.9684320">
        <ele>699.9</ele>
        <time>2019-08-14T15:24:25Z</time>
      </trkpt>
      <trkpt lat="41.4476040" lon="-4.9684990">
        <ele>699.9</ele>
        <time>2019-08-14T15:24:26Z</time>
      </trkpt>
      <trkpt lat="41.4476060" lon="-4.9685650">
        <ele>699.9</ele>
        <time>2019-08-14T15:24:27Z</time>
      </trkpt>
      <trkpt lat="41.4476090" lon="-4.9686280">
        <ele>699.8</ele>
        <time>2019-08-14T15:24:28Z</time>
      </trkpt>
      <trkpt lat="41.4476100" lon="-4.9686900">
        <ele>699.8</ele>
        <time>2019-08-14T15:24:29Z</time>
      </trkpt>
      <trkpt lat="41.4476100" lon="-4.9687510">
        <ele>699.8</ele>
        <time>2019-08-14T15:24:30Z</time>
      </trkpt>
      <trkpt lat="41.4476090" lon="-4.9688130">
        <ele>699.7</ele>
        <time>2019-08-14T15:24:31Z</time>
      </trkpt>
      <trkpt lat="41.4476070" lon="-4.9688700">
        <ele>699.7</ele>
        <time>2019-08-14T15:24:32Z</time>
      </trkpt>
      <trkpt lat="41.4476040" lon="-4.9689230">
        <ele>699.7</ele>
        <time>2019-08-14T15:24:33Z</time>
      </trkpt>
      <trkpt lat="41.4475980" lon="-4.9689750">
        <ele>699.7</ele>
        <time>2019-08-14T15:24:34Z</time>
      </trkpt>
      <trkpt lat="41.4475910" lon="-4.9690260">
        <ele>699.7</ele>
        <time>2019-08-14T15:24:35Z</time>
      </trkpt>
      <trkpt lat="41.4475810" lon="-4.9690760">
        <ele>699.7</ele>
        <time>2019-08-14T15:24:36Z</time>
      </trkpt>
      <trkpt lat="41.4475720" lon="-4.9691260">
        <ele>699.7</ele>
        <time>2019-08-14T15:24:37Z</time>
      </trkpt>
      <trkpt lat="41.4475650" lon="-4.9691750">
        <ele>699.7</ele>
        <time>2019-08-14T15:24:38Z</time>
      </trkpt>
      <trkpt lat="41.4475570" lon="-4.9692250">
        <ele>699.7</ele>
        <time>2019-08-14T15:24:39Z</time>
      </trkpt>
      <trkpt lat="41.4475450" lon="-4.9692760">
        <ele>699.7</ele>
        <time>2019-08-14T15:24:40Z</time>
      </trkpt>
      <trkpt lat="41.4475350" lon="-4.9693280">
        <ele>699.7</ele>
        <time>2019-08-14T15:24:41Z</time>
      </trkpt>
      <trkpt lat="41.4475230" lon="-4.9693820">
        <ele>699.7</ele>
        <time>2019-08-14T15:24:42Z</time>
      </trkpt>
      <trkpt lat="41.4475140" lon="-4.9694320">
        <ele>699.7</ele>
        <time>2019-08-14T15:24:43Z</time>
      </trkpt>
      <trkpt lat="41.4475050" lon="-4.9694880">
        <ele>699.8</ele>
        <time>2019-08-14T15:24:44Z</time>
      </trkpt>
      <trkpt lat="41.4474950" lon="-4.9695470">
        <ele>699.8</ele>
        <time>2019-08-14T15:24:45Z</time>
      </trkpt>
      <trkpt lat="41.4474850" lon="-4.9696080">
        <ele>699.8</ele>
        <time>2019-08-14T15:24:46Z</time>
      </trkpt>
      <trkpt lat="41.4474720" lon="-4.9696700">
        <ele>699.8</ele>
        <time>2019-08-14T15:24:47Z</time>
      </trkpt>
      <trkpt lat="41.4474570" lon="-4.9697350">
        <ele>699.8</ele>
        <time>2019-08-14T15:24:48Z</time>
      </trkpt>
      <trkpt lat="41.4474420" lon="-4.9698010">
        <ele>699.9</ele>
        <time>2019-08-14T15:24:49Z</time>
      </trkpt>
      <trkpt lat="41.4474280" lon="-4.9698650">
        <ele>699.9</ele>
        <time>2019-08-14T15:24:50Z</time>
      </trkpt>
      <trkpt lat="41.4474130" lon="-4.9699280">
        <ele>699.9</ele>
        <time>2019-08-14T15:24:51Z</time>
      </trkpt>
      <trkpt lat="41.4473980" lon="-4.9699940">
        <ele>700.0</ele>
        <time>2019-08-14T15:24:52Z</time>
      </trkpt>
      <trkpt lat="41.4473830" lon="-4.9700590">
        <ele>700.0</ele>
        <time>2019-08-14T15:24:53Z</time>
      </trkpt>
      <trkpt lat="41.4473690" lon="-4.9701230">
        <ele>700.0</ele>
        <time>2019-08-14T15:24:54Z</time>
      </trkpt>
      <trkpt lat="41.4473540" lon="-4.9701850">
        <ele>700.1</ele>
        <time>2019-08-14T15:24:55Z</time>
      </trkpt>
      <trkpt lat="41.4473380" lon="-4.9702480">
        <ele>700.1</ele>
        <time>2019-08-14T15:24:56Z</time>
      </trkpt>
      <trkpt lat="41.4473230" lon="-4.9703100">
        <ele>700.1</ele>
        <time>2019-08-14T15:24:57Z</time>
      </trkpt>
      <trkpt lat="41.4473090" lon="-4.9703690">
        <ele>700.2</ele>
        <time>2019-08-14T15:24:58Z</time>
      </trkpt>
      <trkpt lat="41.4472950" lon="-4.9704260">
        <ele>700.2</ele>
        <time>2019-08-14T15:24:59Z</time>
      </trkpt>
      <trkpt lat="41.4472800" lon="-4.9704820">
        <ele>700.2</ele>
        <time>2019-08-14T15:25:00Z</time>
      </trkpt>
      <trkpt lat="41.4472650" lon="-4.9705350">
        <ele>700.2</ele>
        <time>2019-08-14T15:25:01Z</time>
      </trkpt>
      <trkpt lat="41.4472520" lon="-4.9705850">
        <ele>700.2</ele>
        <time>2019-08-14T15:25:02Z</time>
      </trkpt>
      <trkpt lat="41.4472390" lon="-4.9706340">
        <ele>700.2</ele>
        <time>2019-08-14T15:25:03Z</time>
      </trkpt>
      <trkpt lat="41.4472260" lon="-4.9706810">
        <ele>700.2</ele>
        <time>2019-08-14T15:25:04Z</time>
      </trkpt>
      <trkpt lat="41.4472140" lon="-4.9707290">
        <ele>700.2</ele>
        <time>2019-08-14T15:25:05Z</time>
      </trkpt>
      <trkpt lat="41.4472010" lon="-4.9707770">
        <ele>700.2</ele>
        <time>2019-08-14T15:25:06Z</time>
      </trkpt>
      <trkpt lat="41.4471890" lon="-4.9708250">
        <ele>700.2</ele>
        <time>2019-08-14T15:25:07Z</time>
      </trkpt>
      <trkpt lat="41.4471750" lon="-4.9708720">
        <ele>700.2</ele>
        <time>2019-08-14T15:25:08Z</time>
      </trkpt>
      <trkpt lat="41.4471610" lon="-4.9709180">
        <ele>700.2</ele>
        <time>2019-08-14T15:25:09Z</time>
      </trkpt>
      <trkpt lat="41.4471500" lon="-4.9709620">
        <ele>700.2</ele>
        <time>2019-08-14T15:25:10Z</time>
      </trkpt>
      <trkpt lat="41.4471360" lon="-4.9710080">
        <ele>700.2</ele>
        <time>2019-08-14T15:25:11Z</time>
      </trkpt>
      <trkpt lat="41.4471200" lon="-4.9710530">
        <ele>700.2</ele>
        <time>2019-08-14T15:25:12Z</time>
      </trkpt>
      <trkpt lat="41.4471050" lon="-4.9710970">
        <ele>700.2</ele>
        <time>2019-08-14T15:25:13Z</time>
      </trkpt>
      <trkpt lat="41.4470920" lon="-4.9711390">
        <ele>700.2</ele>
        <time>2019-08-14T15:25:14Z</time>
      </trkpt>
      <trkpt lat="41.4470800" lon="-4.9711800">
        <ele>700.5</ele>
        <time>2019-08-14T15:25:15Z</time>
      </trkpt>
      <trkpt lat="41.4470690" lon="-4.9712180">
        <ele>700.6</ele>
        <time>2019-08-14T15:25:16Z</time>
      </trkpt>
      <trkpt lat="41.4470630" lon="-4.9712540">
        <ele>700.7</ele>
        <time>2019-08-14T15:25:17Z</time>
      </trkpt>
      <trkpt lat="41.4470840" lon="-4.9713100">
        <ele>700.3</ele>
        <time>2019-08-14T15:25:19Z</time>
      </trkpt>
      <trkpt lat="41.4471120" lon="-4.9713320">
        <ele>700.1</ele>
        <time>2019-08-14T15:25:20Z</time>
      </trkpt>
      <trkpt lat="41.4471470" lon="-4.9713460">
        <ele>699.9</ele>
        <time>2019-08-14T15:25:21Z</time>
      </trkpt>
      <trkpt lat="41.4471870" lon="-4.9713560">
        <ele>699.7</ele>
        <time>2019-08-14T15:25:22Z</time>
      </trkpt>
      <trkpt lat="41.4472270" lon="-4.9713610">
        <ele>699.6</ele>
        <time>2019-08-14T15:25:23Z</time>
      </trkpt>
      <trkpt lat="41.4472700" lon="-4.9713620">
        <ele>699.5</ele>
        <time>2019-08-14T15:25:24Z</time>
      </trkpt>
      <trkpt lat="41.4473130" lon="-4.9713600">
        <ele>699.4</ele>
        <time>2019-08-14T15:25:25Z</time>
      </trkpt>
      <trkpt lat="41.4473580" lon="-4.9713570">
        <ele>699.5</ele>
        <time>2019-08-14T15:25:26Z</time>
      </trkpt>
      <trkpt lat="41.4474050" lon="-4.9713470">
        <ele>699.5</ele>
        <time>2019-08-14T15:25:27Z</time>
      </trkpt>
      <trkpt lat="41.4474510" lon="-4.9713370">
        <ele>699.6</ele>
        <time>2019-08-14T15:25:28Z</time>
      </trkpt>
      <trkpt lat="41.4474990" lon="-4.9713270">
        <ele>699.7</ele>
        <time>2019-08-14T15:25:29Z</time>
      </trkpt>
      <trkpt lat="41.4475480" lon="-4.9713170">
        <ele>699.8</ele>
        <time>2019-08-14T15:25:30Z</time>
      </trkpt>
      <trkpt lat="41.4475990" lon="-4.9713070">
        <ele>699.8</ele>
        <time>2019-08-14T15:25:31Z</time>
      </trkpt>
      <trkpt lat="41.4476490" lon="-4.9712950">
        <ele>699.9</ele>
        <time>2019-08-14T15:25:32Z</time>
      </trkpt>
      <trkpt lat="41.4477000" lon="-4.9712850">
        <ele>699.9</ele>
        <time>2019-08-14T15:25:33Z</time>
      </trkpt>
      <trkpt lat="41.4477510" lon="-4.9712770">
        <ele>699.9</ele>
        <time>2019-08-14T15:25:34Z</time>
      </trkpt>
      <trkpt lat="41.4478010" lon="-4.9712700">
        <ele>700.0</ele>
        <time>2019-08-14T15:25:35Z</time>
      </trkpt>
      <trkpt lat="41.4478510" lon="-4.9712640">
        <ele>700.0</ele>
        <time>2019-08-14T15:25:36Z</time>
      </trkpt>
      <trkpt lat="41.4479010" lon="-4.9712570">
        <ele>700.0</ele>
        <time>2019-08-14T15:25:37Z</time>
      </trkpt>
      <trkpt lat="41.4479490" lon="-4.9712530">
        <ele>700.0</ele>
        <time>2019-08-14T15:25:38Z</time>
      </trkpt>
      <trkpt lat="41.4479970" lon="-4.9712500">
        <ele>700.1</ele>
        <time>2019-08-14T15:25:39Z</time>
      </trkpt>
      <trkpt lat="41.4480430" lon="-4.9712450">
        <ele>700.1</ele>
        <time>2019-08-14T15:25:40Z</time>
      </trkpt>
      <trkpt lat="41.4480890" lon="-4.9712400">
        <ele>700.2</ele>
        <time>2019-08-14T15:25:41Z</time>
      </trkpt>
      <trkpt lat="41.4481350" lon="-4.9712340">
        <ele>700.4</ele>
        <time>2019-08-14T15:25:42Z</time>
      </trkpt>
      <trkpt lat="41.4481810" lon="-4.9712290">
        <ele>700.6</ele>
        <time>2019-08-14T15:25:43Z</time>
      </trkpt>
      <trkpt lat="41.4482260" lon="-4.9712240">
        <ele>700.8</ele>
        <time>2019-08-14T15:25:44Z</time>
      </trkpt>
      <trkpt lat="41.4482740" lon="-4.9712150">
        <ele>701.0</ele>
        <time>2019-08-14T15:25:45Z</time>
      </trkpt>
      <trkpt lat="41.4483250" lon="-4.9712040">
        <ele>701.3</ele>
        <time>2019-08-14T15:25:46Z</time>
      </trkpt>
      <trkpt lat="41.4483760" lon="-4.9711920">
        <ele>701.5</ele>
        <time>2019-08-14T15:25:47Z</time>
      </trkpt>
      <trkpt lat="41.4484270" lon="-4.9711810">
        <ele>701.6</ele>
        <time>2019-08-14T15:25:48Z</time>
      </trkpt>
      <trkpt lat="41.4484810" lon="-4.9711700">
        <ele>701.8</ele>
        <time>2019-08-14T15:25:49Z</time>
      </trkpt>
      <trkpt lat="41.4485360" lon="-4.9711570">
        <ele>701.9</ele>
        <time>2019-08-14T15:25:50Z</time>
      </trkpt>
      <trkpt lat="41.4485940" lon="-4.9711440">
        <ele>701.9</ele>
        <time>2019-08-14T15:25:51Z</time>
      </trkpt>
      <trkpt lat="41.4486520" lon="-4.9711290">
        <ele>701.9</ele>
        <time>2019-08-14T15:25:52Z</time>
      </trkpt>
      <trkpt lat="41.4487090" lon="-4.9711150">
        <ele>702.0</ele>
        <time>2019-08-14T15:25:53Z</time>
      </trkpt>
      <trkpt lat="41.4487650" lon="-4.9711040">
        <ele>702.0</ele>
        <time>2019-08-14T15:25:54Z</time>
      </trkpt>
      <trkpt lat="41.4488200" lon="-4.9710940">
        <ele>702.0</ele>
        <time>2019-08-14T15:25:55Z</time>
      </trkpt>
      <trkpt lat="41.4488740" lon="-4.9710840">
        <ele>702.0</ele>
        <time>2019-08-14T15:25:56Z</time>
      </trkpt>
      <trkpt lat="41.4489270" lon="-4.9710750">
        <ele>702.0</ele>
        <time>2019-08-14T15:25:57Z</time>
      </trkpt>
      <trkpt lat="41.4489830" lon="-4.9710630">
        <ele>702.0</ele>
        <time>2019-08-14T15:25:58Z</time>
      </trkpt>
      <trkpt lat="41.4490380" lon="-4.9710530">
        <ele>702.0</ele>
        <time>2019-08-14T15:25:59Z</time>
      </trkpt>
      <trkpt lat="41.4490910" lon="-4.9710440">
        <ele>701.9</ele>
        <time>2019-08-14T15:26:00Z</time>
      </trkpt>
      <trkpt lat="41.4491470" lon="-4.9710350">
        <ele>701.9</ele>
        <time>2019-08-14T15:26:01Z</time>
      </trkpt>
      <trkpt lat="41.4492000" lon="-4.9710280">
        <ele>701.8</ele>
        <time>2019-08-14T15:26:02Z</time>
      </trkpt>
      <trkpt lat="41.4492540" lon="-4.9710220">
        <ele>701.7</ele>
        <time>2019-08-14T15:26:03Z</time>
      </trkpt>
      <trkpt lat="41.4493080" lon="-4.9710180">
        <ele>701.6</ele>
        <time>2019-08-14T15:26:04Z</time>
      </trkpt>
      <trkpt lat="41.4493610" lon="-4.9710170">
        <ele>701.4</ele>
        <time>2019-08-14T15:26:05Z</time>
      </trkpt>
      <trkpt lat="41.4494140" lon="-4.9710170">
        <ele>701.3</ele>
        <time>2019-08-14T15:26:06Z</time>
      </trkpt>
      <trkpt lat="41.4494680" lon="-4.9710220">
        <ele>701.1</ele>
        <time>2019-08-14T15:26:07Z</time>
      </trkpt>
      <trkpt lat="41.4495240" lon="-4.9710280">
        <ele>700.9</ele>
        <time>2019-08-14T15:26:08Z</time>
      </trkpt>
      <trkpt lat="41.4495790" lon="-4.9710380">
        <ele>700.7</ele>
        <time>2019-08-14T15:26:09Z</time>
      </trkpt>
      <trkpt lat="41.4496340" lon="-4.9710490">
        <ele>700.5</ele>
        <time>2019-08-14T15:26:10Z</time>
      </trkpt>
      <trkpt lat="41.4496890" lon="-4.9710600">
        <ele>700.4</ele>
        <time>2019-08-14T15:26:11Z</time>
      </trkpt>
      <trkpt lat="41.4497450" lon="-4.9710720">
        <ele>700.2</ele>
        <time>2019-08-14T15:26:12Z</time>
      </trkpt>
      <trkpt lat="41.4498010" lon="-4.9710810">
        <ele>700.1</ele>
        <time>2019-08-14T15:26:13Z</time>
      </trkpt>
      <trkpt lat="41.4498580" lon="-4.9710900">
        <ele>700.1</ele>
        <time>2019-08-14T15:26:14Z</time>
      </trkpt>
      <trkpt lat="41.4499150" lon="-4.9711000">
        <ele>700.1</ele>
        <time>2019-08-14T15:26:15Z</time>
      </trkpt>
      <trkpt lat="41.4499740" lon="-4.9711130">
        <ele>700.0</ele>
        <time>2019-08-14T15:26:16Z</time>
      </trkpt>
      <trkpt lat="41.4500350" lon="-4.9711290">
        <ele>700.0</ele>
        <time>2019-08-14T15:26:17Z</time>
      </trkpt>
      <trkpt lat="41.4500950" lon="-4.9711490">
        <ele>700.0</ele>
        <time>2019-08-14T15:26:18Z</time>
      </trkpt>
      <trkpt lat="41.4501570" lon="-4.9711710">
        <ele>700.0</ele>
        <time>2019-08-14T15:26:19Z</time>
      </trkpt>
      <trkpt lat="41.4502170" lon="-4.9711940">
        <ele>700.1</ele>
        <time>2019-08-14T15:26:20Z</time>
      </trkpt>
      <trkpt lat="41.4502750" lon="-4.9712180">
        <ele>700.2</ele>
        <time>2019-08-14T15:26:21Z</time>
      </trkpt>
      <trkpt lat="41.4503330" lon="-4.9712430">
        <ele>700.3</ele>
        <time>2019-08-14T15:26:22Z</time>
      </trkpt>
      <trkpt lat="41.4503890" lon="-4.9712690">
        <ele>700.4</ele>
        <time>2019-08-14T15:26:23Z</time>
      </trkpt>
      <trkpt lat="41.4504440" lon="-4.9712940">
        <ele>700.5</ele>
        <time>2019-08-14T15:26:24Z</time>
      </trkpt>
      <trkpt lat="41.4504990" lon="-4.9713160">
        <ele>700.6</ele>
        <time>2019-08-14T15:26:25Z</time>
      </trkpt>
      <trkpt lat="41.4505540" lon="-4.9713370">
        <ele>700.7</ele>
        <time>2019-08-14T15:26:26Z</time>
      </trkpt>
      <trkpt lat="41.4506100" lon="-4.9713580">
        <ele>700.7</ele>
        <time>2019-08-14T15:26:27Z</time>
      </trkpt>
      <trkpt lat="41.4506690" lon="-4.9713810">
        <ele>700.6</ele>
        <time>2019-08-14T15:26:28Z</time>
      </trkpt>
      <trkpt lat="41.4507260" lon="-4.9714040">
        <ele>700.5</ele>
        <time>2019-08-14T15:26:29Z</time>
      </trkpt>
      <trkpt lat="41.4507840" lon="-4.9714280">
        <ele>700.4</ele>
        <time>2019-08-14T15:26:30Z</time>
      </trkpt>
      <trkpt lat="41.4508430" lon="-4.9714520">
        <ele>700.3</ele>
        <time>2019-08-14T15:26:31Z</time>
      </trkpt>
      <trkpt lat="41.4509010" lon="-4.9714740">
        <ele>700.2</ele>
        <time>2019-08-14T15:26:32Z</time>
      </trkpt>
      <trkpt lat="41.4509580" lon="-4.9714950">
        <ele>700.1</ele>
        <time>2019-08-14T15:26:33Z</time>
      </trkpt>
      <trkpt lat="41.4510160" lon="-4.9715150">
        <ele>700.1</ele>
        <time>2019-08-14T15:26:34Z</time>
      </trkpt>
      <trkpt lat="41.4510730" lon="-4.9715310">
        <ele>700.0</ele>
        <time>2019-08-14T15:26:35Z</time>
      </trkpt>
      <trkpt lat="41.4511300" lon="-4.9715450">
        <ele>699.9</ele>
        <time>2019-08-14T15:26:36Z</time>
      </trkpt>
      <trkpt lat="41.4511870" lon="-4.9715570">
        <ele>699.9</ele>
        <time>2019-08-14T15:26:37Z</time>
      </trkpt>
      <trkpt lat="41.4512430" lon="-4.9715720">
        <ele>699.8</ele>
        <time>2019-08-14T15:26:38Z</time>
      </trkpt>
      <trkpt lat="41.4513000" lon="-4.9715900">
        <ele>699.7</ele>
        <time>2019-08-14T15:26:39Z</time>
      </trkpt>
      <trkpt lat="41.4513590" lon="-4.9716080">
        <ele>699.5</ele>
        <time>2019-08-14T15:26:40Z</time>
      </trkpt>
      <trkpt lat="41.4514190" lon="-4.9716260">
        <ele>699.4</ele>
        <time>2019-08-14T15:26:41Z</time>
      </trkpt>
      <trkpt lat="41.4514780" lon="-4.9716500">
        <ele>699.3</ele>
        <time>2019-08-14T15:26:42Z</time>
      </trkpt>
      <trkpt lat="41.4515400" lon="-4.9716750">
        <ele>699.2</ele>
        <time>2019-08-14T15:26:43Z</time>
      </trkpt>
      <trkpt lat="41.4516010" lon="-4.9717000">
        <ele>699.1</ele>
        <time>2019-08-14T15:26:44Z</time>
      </trkpt>
      <trkpt lat="41.4516640" lon="-4.9717220">
        <ele>699.1</ele>
        <time>2019-08-14T15:26:45Z</time>
      </trkpt>
      <trkpt lat="41.4517250" lon="-4.9717460">
        <ele>699.0</ele>
        <time>2019-08-14T15:26:46Z</time>
      </trkpt>
      <trkpt lat="41.4517860" lon="-4.9717700">
        <ele>699.0</ele>
        <time>2019-08-14T15:26:47Z</time>
      </trkpt>
      <trkpt lat="41.4518480" lon="-4.9717940">
        <ele>699.0</ele>
        <time>2019-08-14T15:26:48Z</time>
      </trkpt>
      <trkpt lat="41.4519110" lon="-4.9718170">
        <ele>699.0</ele>
        <time>2019-08-14T15:26:49Z</time>
      </trkpt>
      <trkpt lat="41.4519730" lon="-4.9718390">
        <ele>699.0</ele>
        <time>2019-08-14T15:26:50Z</time>
      </trkpt>
      <trkpt lat="41.4520370" lon="-4.9718620">
        <ele>699.0</ele>
        <time>2019-08-14T15:26:51Z</time>
      </trkpt>
      <trkpt lat="41.4521040" lon="-4.9718840">
        <ele>699.1</ele>
        <time>2019-08-14T15:26:52Z</time>
      </trkpt>
      <trkpt lat="41.4521700" lon="-4.9719060">
        <ele>699.1</ele>
        <time>2019-08-14T15:26:53Z</time>
      </trkpt>
      <trkpt lat="41.4522350" lon="-4.9719270">
        <ele>699.1</ele>
        <time>2019-08-14T15:26:54Z</time>
      </trkpt>
      <trkpt lat="41.4522980" lon="-4.9719480">
        <ele>699.2</ele>
        <time>2019-08-14T15:26:55Z</time>
      </trkpt>
      <trkpt lat="41.4523600" lon="-4.9719680">
        <ele>699.3</ele>
        <time>2019-08-14T15:26:56Z</time>
      </trkpt>
      <trkpt lat="41.4524220" lon="-4.9719860">
        <ele>699.4</ele>
        <time>2019-08-14T15:26:57Z</time>
      </trkpt>
      <trkpt lat="41.4524850" lon="-4.9720020">
        <ele>699.5</ele>
        <time>2019-08-14T15:26:58Z</time>
      </trkpt>
      <trkpt lat="41.4525470" lon="-4.9720170">
        <ele>699.7</ele>
        <time>2019-08-14T15:26:59Z</time>
      </trkpt>
      <trkpt lat="41.4526080" lon="-4.9720320">
        <ele>699.8</ele>
        <time>2019-08-14T15:27:00Z</time>
      </trkpt>
      <trkpt lat="41.4526680" lon="-4.9720450">
        <ele>699.9</ele>
        <time>2019-08-14T15:27:01Z</time>
      </trkpt>
      <trkpt lat="41.4527290" lon="-4.9720560">
        <ele>699.9</ele>
        <time>2019-08-14T15:27:02Z</time>
      </trkpt>
      <trkpt lat="41.4527880" lon="-4.9720670">
        <ele>700.0</ele>
        <time>2019-08-14T15:27:03Z</time>
      </trkpt>
      <trkpt lat="41.4528470" lon="-4.9720770">
        <ele>700.0</ele>
        <time>2019-08-14T15:27:04Z</time>
      </trkpt>
      <trkpt lat="41.4529080" lon="-4.9720860">
        <ele>700.0</ele>
        <time>2019-08-14T15:27:05Z</time>
      </trkpt>
      <trkpt lat="41.4529670" lon="-4.9720950">
        <ele>700.0</ele>
        <time>2019-08-14T15:27:06Z</time>
      </trkpt>
      <trkpt lat="41.4530280" lon="-4.9721020">
        <ele>700.0</ele>
        <time>2019-08-14T15:27:07Z</time>
      </trkpt>
      <trkpt lat="41.4530900" lon="-4.9721100">
        <ele>700.0</ele>
        <time>2019-08-14T15:27:08Z</time>
      </trkpt>
      <trkpt lat="41.4531540" lon="-4.9721160">
        <ele>699.9</ele>
        <time>2019-08-14T15:27:09Z</time>
      </trkpt>
      <trkpt lat="41.4532180" lon="-4.9721250">
        <ele>699.9</ele>
        <time>2019-08-14T15:27:10Z</time>
      </trkpt>
      <trkpt lat="41.4532800" lon="-4.9721340">
        <ele>699.8</ele>
        <time>2019-08-14T15:27:11Z</time>
      </trkpt>
      <trkpt lat="41.4533400" lon="-4.9721440">
        <ele>699.6</ele>
        <time>2019-08-14T15:27:12Z</time>
      </trkpt>
      <trkpt lat="41.4534010" lon="-4.9721560">
        <ele>699.5</ele>
        <time>2019-08-14T15:27:13Z</time>
      </trkpt>
      <trkpt lat="41.4534630" lon="-4.9721660">
        <ele>699.4</ele>
        <time>2019-08-14T15:27:14Z</time>
      </trkpt>
      <trkpt lat="41.4535240" lon="-4.9721770">
        <ele>699.3</ele>
        <time>2019-08-14T15:27:15Z</time>
      </trkpt>
      <trkpt lat="41.4535820" lon="-4.9721910">
        <ele>699.2</ele>
        <time>2019-08-14T15:27:16Z</time>
      </trkpt>
      <trkpt lat="41.4536410" lon="-4.9722070">
        <ele>699.1</ele>
        <time>2019-08-14T15:27:17Z</time>
      </trkpt>
      <trkpt lat="41.4536990" lon="-4.9722250">
        <ele>699.0</ele>
        <time>2019-08-14T15:27:18Z</time>
      </trkpt>
      <trkpt lat="41.4537560" lon="-4.9722470">
        <ele>698.9</ele>
        <time>2019-08-14T15:27:19Z</time>
      </trkpt>
      <trkpt lat="41.4538120" lon="-4.9722760">
        <ele>698.8</ele>
        <time>2019-08-14T15:27:20Z</time>
      </trkpt>
      <trkpt lat="41.4538680" lon="-4.9723120">
        <ele>698.6</ele>
        <time>2019-08-14T15:27:21Z</time>
      </trkpt>
      <trkpt lat="41.4539250" lon="-4.9723550">
        <ele>698.5</ele>
        <time>2019-08-14T15:27:22Z</time>
      </trkpt>
      <trkpt lat="41.4539820" lon="-4.9724040">
        <ele>698.3</ele>
        <time>2019-08-14T15:27:23Z</time>
      </trkpt>
      <trkpt lat="41.4540400" lon="-4.9724620">
        <ele>698.1</ele>
        <time>2019-08-14T15:27:24Z</time>
      </trkpt>
      <trkpt lat="41.4540980" lon="-4.9725240">
        <ele>697.9</ele>
        <time>2019-08-14T15:27:25Z</time>
      </trkpt>
      <trkpt lat="41.4541540" lon="-4.9725870">
        <ele>697.7</ele>
        <time>2019-08-14T15:27:26Z</time>
      </trkpt>
      <trkpt lat="41.4542090" lon="-4.9726470">
        <ele>697.5</ele>
        <time>2019-08-14T15:27:27Z</time>
      </trkpt>
      <trkpt lat="41.4542650" lon="-4.9727030">
        <ele>697.4</ele>
        <time>2019-08-14T15:27:28Z</time>
      </trkpt>
      <trkpt lat="41.4543250" lon="-4.9727570">
        <ele>697.5</ele>
        <time>2019-08-14T15:27:29Z</time>
      </trkpt>
      <trkpt lat="41.4543880" lon="-4.9728070">
        <ele>697.6</ele>
        <time>2019-08-14T15:27:30Z</time>
      </trkpt>
      <trkpt lat="41.4544500" lon="-4.9728520">
        <ele>697.8</ele>
        <time>2019-08-14T15:27:31Z</time>
      </trkpt>
      <trkpt lat="41.4545110" lon="-4.9728940">
        <ele>698.0</ele>
        <time>2019-08-14T15:27:32Z</time>
      </trkpt>
      <trkpt lat="41.4545710" lon="-4.9729320">
        <ele>698.2</ele>
        <time>2019-08-14T15:27:33Z</time>
      </trkpt>
      <trkpt lat="41.4546260" lon="-4.9729690">
        <ele>698.4</ele>
        <time>2019-08-14T15:27:34Z</time>
      </trkpt>
      <trkpt lat="41.4546790" lon="-4.9730050">
        <ele>698.5</ele>
        <time>2019-08-14T15:27:35Z</time>
      </trkpt>
      <trkpt lat="41.4547300" lon="-4.9730380">
        <ele>698.7</ele>
        <time>2019-08-14T15:27:36Z</time>
      </trkpt>
      <trkpt lat="41.4547770" lon="-4.9730700">
        <ele>698.8</ele>
        <time>2019-08-14T15:27:37Z</time>
      </trkpt>
      <trkpt lat="41.4548200" lon="-4.9730980">
        <ele>698.8</ele>
        <time>2019-08-14T15:27:38Z</time>
      </trkpt>
      <trkpt lat="41.4548620" lon="-4.9731230">
        <ele>698.9</ele>
        <time>2019-08-14T15:27:39Z</time>
      </trkpt>
      <trkpt lat="41.4549020" lon="-4.9731490">
        <ele>698.9</ele>
        <time>2019-08-14T15:27:40Z</time>
      </trkpt>
      <trkpt lat="41.4549410" lon="-4.9731740">
        <ele>698.9</ele>
        <time>2019-08-14T15:27:41Z</time>
      </trkpt>
      <trkpt lat="41.4549800" lon="-4.9732000">
        <ele>698.8</ele>
        <time>2019-08-14T15:27:42Z</time>
      </trkpt>
      <trkpt lat="41.4550200" lon="-4.9732270">
        <ele>698.7</ele>
        <time>2019-08-14T15:27:43Z</time>
      </trkpt>
      <trkpt lat="41.4550590" lon="-4.9732550">
        <ele>698.5</ele>
        <time>2019-08-14T15:27:44Z</time>
      </trkpt>
      <trkpt lat="41.4551000" lon="-4.9732820">
        <ele>698.3</ele>
        <time>2019-08-14T15:27:45Z</time>
      </trkpt>
      <trkpt lat="41.4551430" lon="-4.9733090">
        <ele>698.0</ele>
        <time>2019-08-14T15:27:46Z</time>
      </trkpt>
      <trkpt lat="41.4551840" lon="-4.9733370">
        <ele>697.7</ele>
        <time>2019-08-14T15:27:47Z</time>
      </trkpt>
      <trkpt lat="41.4552260" lon="-4.9733650">
        <ele>697.3</ele>
        <time>2019-08-14T15:27:48Z</time>
      </trkpt>
      <trkpt lat="41.4552690" lon="-4.9733910">
        <ele>696.8</ele>
        <time>2019-08-14T15:27:49Z</time>
      </trkpt>
      <trkpt lat="41.4553160" lon="-4.9734140">
        <ele>696.3</ele>
        <time>2019-08-14T15:27:50Z</time>
      </trkpt>
      <trkpt lat="41.4553640" lon="-4.9734350">
        <ele>696.0</ele>
        <time>2019-08-14T15:27:51Z</time>
      </trkpt>
      <trkpt lat="41.4554120" lon="-4.9734580">
        <ele>695.7</ele>
        <time>2019-08-14T15:27:52Z</time>
      </trkpt>
      <trkpt lat="41.4554600" lon="-4.9734800">
        <ele>695.7</ele>
        <time>2019-08-14T15:27:53Z</time>
      </trkpt>
      <trkpt lat="41.4555120" lon="-4.9734990">
        <ele>695.7</ele>
        <time>2019-08-14T15:27:54Z</time>
      </trkpt>
      <trkpt lat="41.4555660" lon="-4.9735140">
        <ele>695.7</ele>
        <time>2019-08-14T15:27:55Z</time>
      </trkpt>
      <trkpt lat="41.4556200" lon="-4.9735290">
        <ele>695.7</ele>
        <time>2019-08-14T15:27:56Z</time>
      </trkpt>
      <trkpt lat="41.4556740" lon="-4.9735460">
        <ele>695.7</ele>
        <time>2019-08-14T15:27:57Z</time>
      </trkpt>
      <trkpt lat="41.4557290" lon="-4.9735650">
        <ele>695.6</ele>
        <time>2019-08-14T15:27:58Z</time>
      </trkpt>
      <trkpt lat="41.4557820" lon="-4.9735910">
        <ele>695.6</ele>
        <time>2019-08-14T15:27:59Z</time>
      </trkpt>
      <trkpt lat="41.4558350" lon="-4.9736210">
        <ele>695.5</ele>
        <time>2019-08-14T15:28:00Z</time>
      </trkpt>
      <trkpt lat="41.4558880" lon="-4.9736560">
        <ele>695.4</ele>
        <time>2019-08-14T15:28:01Z</time>
      </trkpt>
      <trkpt lat="41.4559410" lon="-4.9736910">
        <ele>695.3</ele>
        <time>2019-08-14T15:28:02Z</time>
      </trkpt>
      <trkpt lat="41.4559950" lon="-4.9737290">
        <ele>695.2</ele>
        <time>2019-08-14T15:28:03Z</time>
      </trkpt>
      <trkpt lat="41.4560490" lon="-4.9737670">
        <ele>695.2</ele>
        <time>2019-08-14T15:28:04Z</time>
      </trkpt>
      <trkpt lat="41.4561030" lon="-4.9738080">
        <ele>695.2</ele>
        <time>2019-08-14T15:28:05Z</time>
      </trkpt>
      <trkpt lat="41.4561560" lon="-4.9738510">
        <ele>695.1</ele>
        <time>2019-08-14T15:28:06Z</time>
      </trkpt>
      <trkpt lat="41.4562080" lon="-4.9738990">
        <ele>695.1</ele>
        <time>2019-08-14T15:28:07Z</time>
      </trkpt>
      <trkpt lat="41.4562570" lon="-4.9739490">
        <ele>695.1</ele>
        <time>2019-08-14T15:28:08Z</time>
      </trkpt>
      <trkpt lat="41.4563070" lon="-4.9739980">
        <ele>695.1</ele>
        <time>2019-08-14T15:28:09Z</time>
      </trkpt>
      <trkpt lat="41.4563580" lon="-4.9740440">
        <ele>695.1</ele>
        <time>2019-08-14T15:28:10Z</time>
      </trkpt>
      <trkpt lat="41.4564110" lon="-4.9740850">
        <ele>695.1</ele>
        <time>2019-08-14T15:28:11Z</time>
      </trkpt>
      <trkpt lat="41.4564660" lon="-4.9741260">
        <ele>695.1</ele>
        <time>2019-08-14T15:28:12Z</time>
      </trkpt>
      <trkpt lat="41.4565230" lon="-4.9741660">
        <ele>695.1</ele>
        <time>2019-08-14T15:28:13Z</time>
      </trkpt>
      <trkpt lat="41.4565810" lon="-4.9742020">
        <ele>695.1</ele>
        <time>2019-08-14T15:28:14Z</time>
      </trkpt>
      <trkpt lat="41.4566390" lon="-4.9742350">
        <ele>695.1</ele>
        <time>2019-08-14T15:28:15Z</time>
      </trkpt>
      <trkpt lat="41.4566960" lon="-4.9742670">
        <ele>695.1</ele>
        <time>2019-08-14T15:28:16Z</time>
      </trkpt>
      <trkpt lat="41.4567540" lon="-4.9742980">
        <ele>695.1</ele>
        <time>2019-08-14T15:28:17Z</time>
      </trkpt>
      <trkpt lat="41.4568120" lon="-4.9743270">
        <ele>695.1</ele>
        <time>2019-08-14T15:28:18Z</time>
      </trkpt>
      <trkpt lat="41.4568710" lon="-4.9743590">
        <ele>695.1</ele>
        <time>2019-08-14T15:28:19Z</time>
      </trkpt>
      <trkpt lat="41.4569280" lon="-4.9743920">
        <ele>695.1</ele>
        <time>2019-08-14T15:28:20Z</time>
      </trkpt>
      <trkpt lat="41.4569820" lon="-4.9744280">
        <ele>695.1</ele>
        <time>2019-08-14T15:28:21Z</time>
      </trkpt>
      <trkpt lat="41.4570360" lon="-4.9744640">
        <ele>695.2</ele>
        <time>2019-08-14T15:28:22Z</time>
      </trkpt>
      <trkpt lat="41.4570880" lon="-4.9744980">
        <ele>695.2</ele>
        <time>2019-08-14T15:28:23Z</time>
      </trkpt>
      <trkpt lat="41.4571410" lon="-4.9745310">
        <ele>695.3</ele>
        <time>2019-08-14T15:28:24Z</time>
      </trkpt>
      <trkpt lat="41.4571930" lon="-4.9745650">
        <ele>695.3</ele>
        <time>2019-08-14T15:28:25Z</time>
      </trkpt>
      <trkpt lat="41.4572440" lon="-4.9745980">
        <ele>695.4</ele>
        <time>2019-08-14T15:28:26Z</time>
      </trkpt>
      <trkpt lat="41.4572950" lon="-4.9746290">
        <ele>695.4</ele>
        <time>2019-08-14T15:28:27Z</time>
      </trkpt>
      <trkpt lat="41.4573460" lon="-4.9746590">
        <ele>695.5</ele>
        <time>2019-08-14T15:28:28Z</time>
      </trkpt>
      <trkpt lat="41.4573970" lon="-4.9746850">
        <ele>695.5</ele>
        <time>2019-08-14T15:28:29Z</time>
      </trkpt>
      <trkpt lat="41.4574510" lon="-4.9747080">
        <ele>695.4</ele>
        <time>2019-08-14T15:28:30Z</time>
      </trkpt>
      <trkpt lat="41.4575070" lon="-4.9747290">
        <ele>695.4</ele>
        <time>2019-08-14T15:28:31Z</time>
      </trkpt>
      <trkpt lat="41.4575640" lon="-4.9747480">
        <ele>695.3</ele>
        <time>2019-08-14T15:28:32Z</time>
      </trkpt>
      <trkpt lat="41.4576220" lon="-4.9747700">
        <ele>695.3</ele>
        <time>2019-08-14T15:28:33Z</time>
      </trkpt>
      <trkpt lat="41.4576820" lon="-4.9747930">
        <ele>695.2</ele>
        <time>2019-08-14T15:28:34Z</time>
      </trkpt>
      <trkpt lat="41.4577410" lon="-4.9748180">
        <ele>695.2</ele>
        <time>2019-08-14T15:28:35Z</time>
      </trkpt>
      <trkpt lat="41.4578000" lon="-4.9748410">
        <ele>695.3</ele>
        <time>2019-08-14T15:28:36Z</time>
      </trkpt>
      <trkpt lat="41.4578600" lon="-4.9748650">
        <ele>695.3</ele>
        <time>2019-08-14T15:28:37Z</time>
      </trkpt>
      <trkpt lat="41.4579180" lon="-4.9748880">
        <ele>695.5</ele>
        <time>2019-08-14T15:28:38Z</time>
      </trkpt>
      <trkpt lat="41.4579760" lon="-4.9749120">
        <ele>695.6</ele>
        <time>2019-08-14T15:28:39Z</time>
      </trkpt>
      <trkpt lat="41.4580330" lon="-4.9749370">
        <ele>695.6</ele>
        <time>2019-08-14T15:28:40Z</time>
      </trkpt>
      <trkpt lat="41.4580850" lon="-4.9749640">
        <ele>695.7</ele>
        <time>2019-08-14T15:28:41Z</time>
      </trkpt>
      <trkpt lat="41.4581370" lon="-4.9749920">
        <ele>695.7</ele>
        <time>2019-08-14T15:28:42Z</time>
      </trkpt>
      <trkpt lat="41.4581900" lon="-4.9750200">
        <ele>695.6</ele>
        <time>2019-08-14T15:28:43Z</time>
      </trkpt>
      <trkpt lat="41.4582440" lon="-4.9750480">
        <ele>695.5</ele>
        <time>2019-08-14T15:28:44Z</time>
      </trkpt>
      <trkpt lat="41.4582980" lon="-4.9750760">
        <ele>695.5</ele>
        <time>2019-08-14T15:28:45Z</time>
      </trkpt>
      <trkpt lat="41.4583520" lon="-4.9751060">
        <ele>695.4</ele>
        <time>2019-08-14T15:28:46Z</time>
      </trkpt>
      <trkpt lat="41.4584090" lon="-4.9751330">
        <ele>695.3</ele>
        <time>2019-08-14T15:28:47Z</time>
      </trkpt>
      <trkpt lat="41.4584660" lon="-4.9751620">
        <ele>695.2</ele>
        <time>2019-08-14T15:28:48Z</time>
      </trkpt>
      <trkpt lat="41.4585240" lon="-4.9751910">
        <ele>695.2</ele>
        <time>2019-08-14T15:28:49Z</time>
      </trkpt>
      <trkpt lat="41.4585830" lon="-4.9752190">
        <ele>695.2</ele>
        <time>2019-08-14T15:28:50Z</time>
      </trkpt>
      <trkpt lat="41.4586420" lon="-4.9752470">
        <ele>695.2</ele>
        <time>2019-08-14T15:28:51Z</time>
      </trkpt>
      <trkpt lat="41.4587000" lon="-4.9752740">
        <ele>695.1</ele>
        <time>2019-08-14T15:28:52Z</time>
      </trkpt>
      <trkpt lat="41.4587570" lon="-4.9753020">
        <ele>695.1</ele>
        <time>2019-08-14T15:28:53Z</time>
      </trkpt>
      <trkpt lat="41.4588150" lon="-4.9753280">
        <ele>695.1</ele>
        <time>2019-08-14T15:28:54Z</time>
      </trkpt>
      <trkpt lat="41.4588730" lon="-4.9753550">
        <ele>695.1</ele>
        <time>2019-08-14T15:28:55Z</time>
      </trkpt>
      <trkpt lat="41.4589320" lon="-4.9753790">
        <ele>695.1</ele>
        <time>2019-08-14T15:28:56Z</time>
      </trkpt>
      <trkpt lat="41.4589900" lon="-4.9754030">
        <ele>695.0</ele>
        <time>2019-08-14T15:28:57Z</time>
      </trkpt>
      <trkpt lat="41.4590480" lon="-4.9754250">
        <ele>694.9</ele>
        <time>2019-08-14T15:28:58Z</time>
      </trkpt>
      <trkpt lat="41.4591050" lon="-4.9754520">
        <ele>694.7</ele>
        <time>2019-08-14T15:28:59Z</time>
      </trkpt>
      <trkpt lat="41.4591600" lon="-4.9754820">
        <ele>694.6</ele>
        <time>2019-08-14T15:29:00Z</time>
      </trkpt>
      <trkpt lat="41.4592140" lon="-4.9755130">
        <ele>694.4</ele>
        <time>2019-08-14T15:29:01Z</time>
      </trkpt>
      <trkpt lat="41.4592680" lon="-4.9755460">
        <ele>694.2</ele>
        <time>2019-08-14T15:29:02Z</time>
      </trkpt>
      <trkpt lat="41.4593210" lon="-4.9755790">
        <ele>694.0</ele>
        <time>2019-08-14T15:29:03Z</time>
      </trkpt>
      <trkpt lat="41.4593780" lon="-4.9756110">
        <ele>693.8</ele>
        <time>2019-08-14T15:29:04Z</time>
      </trkpt>
      <trkpt lat="41.4594330" lon="-4.9756430">
        <ele>693.7</ele>
        <time>2019-08-14T15:29:05Z</time>
      </trkpt>
      <trkpt lat="41.4594900" lon="-4.9756780">
        <ele>693.5</ele>
        <time>2019-08-14T15:29:06Z</time>
      </trkpt>
      <trkpt lat="41.4595480" lon="-4.9757120">
        <ele>693.4</ele>
        <time>2019-08-14T15:29:07Z</time>
      </trkpt>
      <trkpt lat="41.4596060" lon="-4.9757460">
        <ele>693.3</ele>
        <time>2019-08-14T15:29:08Z</time>
      </trkpt>
      <trkpt lat="41.4596640" lon="-4.9757860">
        <ele>693.2</ele>
        <time>2019-08-14T15:29:09Z</time>
      </trkpt>
      <trkpt lat="41.4597220" lon="-4.9758290">
        <ele>693.2</ele>
        <time>2019-08-14T15:29:10Z</time>
      </trkpt>
      <trkpt lat="41.4597770" lon="-4.9758730">
        <ele>693.2</ele>
        <time>2019-08-14T15:29:11Z</time>
      </trkpt>
      <trkpt lat="41.4598320" lon="-4.9759160">
        <ele>693.3</ele>
        <time>2019-08-14T15:29:12Z</time>
      </trkpt>
      <trkpt lat="41.4598850" lon="-4.9759580">
        <ele>693.4</ele>
        <time>2019-08-14T15:29:13Z</time>
      </trkpt>
      <trkpt lat="41.4599360" lon="-4.9759960">
        <ele>693.4</ele>
        <time>2019-08-14T15:29:14Z</time>
      </trkpt>
      <trkpt lat="41.4599860" lon="-4.9760320">
        <ele>693.5</ele>
        <time>2019-08-14T15:29:15Z</time>
      </trkpt>
      <trkpt lat="41.4600330" lon="-4.9760670">
        <ele>693.7</ele>
        <time>2019-08-14T15:29:16Z</time>
      </trkpt>
      <trkpt lat="41.4600810" lon="-4.9761020">
        <ele>693.8</ele>
        <time>2019-08-14T15:29:17Z</time>
      </trkpt>
      <trkpt lat="41.4601270" lon="-4.9761360">
        <ele>693.9</ele>
        <time>2019-08-14T15:29:18Z</time>
      </trkpt>
      <trkpt lat="41.4601710" lon="-4.9761640">
        <ele>694.0</ele>
        <time>2019-08-14T15:29:19Z</time>
      </trkpt>
      <trkpt lat="41.4602150" lon="-4.9761840">
        <ele>694.1</ele>
        <time>2019-08-14T15:29:20Z</time>
      </trkpt>
      <trkpt lat="41.4602580" lon="-4.9761940">
        <ele>694.1</ele>
        <time>2019-08-14T15:29:21Z</time>
      </trkpt>
      <trkpt lat="41.4602970" lon="-4.9761900">
        <ele>694.1</ele>
        <time>2019-08-14T15:29:22Z</time>
      </trkpt>
      <trkpt lat="41.4603300" lon="-4.9761730">
        <ele>694.1</ele>
        <time>2019-08-14T15:29:23Z</time>
      </trkpt>
      <trkpt lat="41.4603520" lon="-4.9761450">
        <ele>694.1</ele>
        <time>2019-08-14T15:29:24Z</time>
      </trkpt>
      <trkpt lat="41.4603540" lon="-4.9760750">
        <ele>694.2</ele>
        <time>2019-08-14T15:29:26Z</time>
      </trkpt>
      <trkpt lat="41.4603360" lon="-4.9760400">
        <ele>694.1</ele>
        <time>2019-08-14T15:29:27Z</time>
      </trkpt>
      <trkpt lat="41.4603150" lon="-4.9760050">
        <ele>694.1</ele>
        <time>2019-08-14T15:29:28Z</time>
      </trkpt>
      <trkpt lat="41.4602970" lon="-4.9759680">
        <ele>694.0</ele>
        <time>2019-08-14T15:29:29Z</time>
      </trkpt>
      <trkpt lat="41.4602920" lon="-4.9759280">
        <ele>694.0</ele>
        <time>2019-08-14T15:29:30Z</time>
      </trkpt>
      <trkpt lat="41.4603010" lon="-4.9758900">
        <ele>694.0</ele>
        <time>2019-08-14T15:29:31Z</time>
      </trkpt>
      <trkpt lat="41.4603250" lon="-4.9758590">
        <ele>694.1</ele>
        <time>2019-08-14T15:29:32Z</time>
      </trkpt>
      <trkpt lat="41.4603610" lon="-4.9758360">
        <ele>694.1</ele>
        <time>2019-08-14T15:29:33Z</time>
      </trkpt>
      <trkpt lat="41.4604030" lon="-4.9758250">
        <ele>694.2</ele>
        <time>2019-08-14T15:29:34Z</time>
      </trkpt>
      <trkpt lat="41.4604500" lon="-4.9758260">
        <ele>694.3</ele>
        <time>2019-08-14T15:29:35Z</time>
      </trkpt>
      <trkpt lat="41.4604960" lon="-4.9758360">
        <ele>694.3</ele>
        <time>2019-08-14T15:29:36Z</time>
      </trkpt>
      <trkpt lat="41.4605410" lon="-4.9758510">
        <ele>694.4</ele>
        <time>2019-08-14T15:29:37Z</time>
      </trkpt>
      <trkpt lat="41.4605860" lon="-4.9758680">
        <ele>694.3</ele>
        <time>2019-08-14T15:29:38Z</time>
      </trkpt>
      <trkpt lat="41.4606300" lon="-4.9758810">
        <ele>694.3</ele>
        <time>2019-08-14T15:29:39Z</time>
      </trkpt>
      <trkpt lat="41.4606740" lon="-4.9758890">
        <ele>694.2</ele>
        <time>2019-08-14T15:29:40Z</time>
      </trkpt>
      <trkpt lat="41.4607160" lon="-4.9759000">
        <ele>694.0</ele>
        <time>2019-08-14T15:29:41Z</time>
      </trkpt>
      <trkpt lat="41.4607530" lon="-4.9759140">
        <ele>693.9</ele>
        <time>2019-08-14T15:29:42Z</time>
      </trkpt>
      <trkpt lat="41.4607890" lon="-4.9759290">
        <ele>693.8</ele>
        <time>2019-08-14T15:29:43Z</time>
      </trkpt>
      <trkpt lat="41.4608300" lon="-4.9759380">
        <ele>693.7</ele>
        <time>2019-08-14T15:29:44Z</time>
      </trkpt>
      <trkpt lat="41.4608730" lon="-4.9759480">
        <ele>693.7</ele>
        <time>2019-08-14T15:29:45Z</time>
      </trkpt>
      <trkpt lat="41.4609170" lon="-4.9759580">
        <ele>693.6</ele>
        <time>2019-08-14T15:29:46Z</time>
      </trkpt>
      <trkpt lat="41.4609560" lon="-4.9759720">
        <ele>693.6</ele>
        <time>2019-08-14T15:29:47Z</time>
      </trkpt>
      <trkpt lat="41.4609970" lon="-4.9759870">
        <ele>693.5</ele>
        <time>2019-08-14T15:29:48Z</time>
      </trkpt>
      <trkpt lat="41.4610380" lon="-4.9760020">
        <ele>693.5</ele>
        <time>2019-08-14T15:29:49Z</time>
      </trkpt>
      <trkpt lat="41.4610780" lon="-4.9760160">
        <ele>693.5</ele>
        <time>2019-08-14T15:29:50Z</time>
      </trkpt>
      <trkpt lat="41.4611180" lon="-4.9760270">
        <ele>693.5</ele>
        <time>2019-08-14T15:29:51Z</time>
      </trkpt>
      <trkpt lat="41.4611590" lon="-4.9760400">
        <ele>693.5</ele>
        <time>2019-08-14T15:29:52Z</time>
      </trkpt>
      <trkpt lat="41.4612020" lon="-4.9760560">
        <ele>693.4</ele>
        <time>2019-08-14T15:29:53Z</time>
      </trkpt>
      <trkpt lat="41.4612460" lon="-4.9760700">
        <ele>693.4</ele>
        <time>2019-08-14T15:29:54Z</time>
      </trkpt>
      <trkpt lat="41.4612910" lon="-4.9760880">
        <ele>693.4</ele>
        <time>2019-08-14T15:29:55Z</time>
      </trkpt>
      <trkpt lat="41.4613360" lon="-4.9761090">
        <ele>693.4</ele>
        <time>2019-08-14T15:29:56Z</time>
      </trkpt>
      <trkpt lat="41.4613810" lon="-4.9761300">
        <ele>693.3</ele>
        <time>2019-08-14T15:29:57Z</time>
      </trkpt>
      <trkpt lat="41.4614260" lon="-4.9761540">
        <ele>693.3</ele>
        <time>2019-08-14T15:29:58Z</time>
      </trkpt>
      <trkpt lat="41.4614720" lon="-4.9761780">
        <ele>693.3</ele>
        <time>2019-08-14T15:29:59Z</time>
      </trkpt>
      <trkpt lat="41.4615190" lon="-4.9762020">
        <ele>693.3</ele>
        <time>2019-08-14T15:30:00Z</time>
      </trkpt>
      <trkpt lat="41.4615670" lon="-4.9762260">
        <ele>693.3</ele>
        <time>2019-08-14T15:30:01Z</time>
      </trkpt>
      <trkpt lat="41.4616150" lon="-4.9762510">
        <ele>693.2</ele>
        <time>2019-08-14T15:30:02Z</time>
      </trkpt>
      <trkpt lat="41.4616610" lon="-4.9762770">
        <ele>693.2</ele>
        <time>2019-08-14T15:30:03Z</time>
      </trkpt>
      <trkpt lat="41.4617070" lon="-4.9763040">
        <ele>693.1</ele>
        <time>2019-08-14T15:30:04Z</time>
      </trkpt>
      <trkpt lat="41.4617540" lon="-4.9763280">
        <ele>693.0</ele>
        <time>2019-08-14T15:30:05Z</time>
      </trkpt>
      <trkpt lat="41.4618020" lon="-4.9763530">
        <ele>692.9</ele>
        <time>2019-08-14T15:30:06Z</time>
      </trkpt>
      <trkpt lat="41.4618520" lon="-4.9763770">
        <ele>692.8</ele>
        <time>2019-08-14T15:30:07Z</time>
      </trkpt>
      <trkpt lat="41.4619060" lon="-4.9763940">
        <ele>692.6</ele>
        <time>2019-08-14T15:30:08Z</time>
      </trkpt>
      <trkpt lat="41.4619650" lon="-4.9764040">
        <ele>692.5</ele>
        <time>2019-08-14T15:30:09Z</time>
      </trkpt>
      <trkpt lat="41.4620220" lon="-4.9764140">
        <ele>692.4</ele>
        <time>2019-08-14T15:30:10Z</time>
      </trkpt>
      <trkpt lat="41.4620770" lon="-4.9764230">
        <ele>692.2</ele>
        <time>2019-08-14T15:30:11Z</time>
      </trkpt>
      <trkpt lat="41.4621300" lon="-4.9764300">
        <ele>692.2</ele>
        <time>2019-08-14T15:30:12Z</time>
      </trkpt>
      <trkpt lat="41.4621820" lon="-4.9764390">
        <ele>692.1</ele>
        <time>2019-08-14T15:30:13Z</time>
      </trkpt>
      <trkpt lat="41.4622340" lon="-4.9764480">
        <ele>692.0</ele>
        <time>2019-08-14T15:30:14Z</time>
      </trkpt>
      <trkpt lat="41.4622880" lon="-4.9764570">
        <ele>692.0</ele>
        <time>2019-08-14T15:30:15Z</time>
      </trkpt>
      <trkpt lat="41.4623430" lon="-4.9764640">
        <ele>691.9</ele>
        <time>2019-08-14T15:30:16Z</time>
      </trkpt>
      <trkpt lat="41.4623980" lon="-4.9764740">
        <ele>691.8</ele>
        <time>2019-08-14T15:30:17Z</time>
      </trkpt>
      <trkpt lat="41.4624540" lon="-4.9764770">
        <ele>691.6</ele>
        <time>2019-08-14T15:30:18Z</time>
      </trkpt>
      <trkpt lat="41.4625110" lon="-4.9764780">
        <ele>691.4</ele>
        <time>2019-08-14T15:30:19Z</time>
      </trkpt>
      <trkpt lat="41.4625680" lon="-4.9764820">
        <ele>691.3</ele>
        <time>2019-08-14T15:30:20Z</time>
      </trkpt>
      <trkpt lat="41.4626260" lon="-4.9764910">
        <ele>691.1</ele>
        <time>2019-08-14T15:30:21Z</time>
      </trkpt>
      <trkpt lat="41.4626850" lon="-4.9765030">
        <ele>691.0</ele>
        <time>2019-08-14T15:30:22Z</time>
      </trkpt>
      <trkpt lat="41.4627450" lon="-4.9765170">
        <ele>690.9</ele>
        <time>2019-08-14T15:30:23Z</time>
      </trkpt>
      <trkpt lat="41.4628050" lon="-4.9765300">
        <ele>690.8</ele>
        <time>2019-08-14T15:30:24Z</time>
      </trkpt>
      <trkpt lat="41.4628660" lon="-4.9765420">
        <ele>690.7</ele>
        <time>2019-08-14T15:30:25Z</time>
      </trkpt>
      <trkpt lat="41.4629260" lon="-4.9765510">
        <ele>690.7</ele>
        <time>2019-08-14T15:30:26Z</time>
      </trkpt>
      <trkpt lat="41.4629870" lon="-4.9765600">
        <ele>690.7</ele>
        <time>2019-08-14T15:30:27Z</time>
      </trkpt>
      <trkpt lat="41.4630480" lon="-4.9765690">
        <ele>690.6</ele>
        <time>2019-08-14T15:30:28Z</time>
      </trkpt>
      <trkpt lat="41.4631100" lon="-4.9765770">
        <ele>690.6</ele>
        <time>2019-08-14T15:30:29Z</time>
      </trkpt>
      <trkpt lat="41.4631730" lon="-4.9765810">
        <ele>690.6</ele>
        <time>2019-08-14T15:30:30Z</time>
      </trkpt>
      <trkpt lat="41.4632350" lon="-4.9765840">
        <ele>690.6</ele>
        <time>2019-08-14T15:30:31Z</time>
      </trkpt>
      <trkpt lat="41.4632960" lon="-4.9765850">
        <ele>690.5</ele>
        <time>2019-08-14T15:30:32Z</time>
      </trkpt>
      <trkpt lat="41.4633590" lon="-4.9765840">
        <ele>690.5</ele>
        <time>2019-08-14T15:30:33Z</time>
      </trkpt>
      <trkpt lat="41.4634200" lon="-4.9765830">
        <ele>690.5</ele>
        <time>2019-08-14T15:30:34Z</time>
      </trkpt>
      <trkpt lat="41.4634810" lon="-4.9765820">
        <ele>690.4</ele>
        <time>2019-08-14T15:30:35Z</time>
      </trkpt>
      <trkpt lat="41.4635420" lon="-4.9765790">
        <ele>690.4</ele>
        <time>2019-08-14T15:30:36Z</time>
      </trkpt>
      <trkpt lat="41.4636050" lon="-4.9765750">
        <ele>690.3</ele>
        <time>2019-08-14T15:30:37Z</time>
      </trkpt>
      <trkpt lat="41.4636680" lon="-4.9765710">
        <ele>690.3</ele>
        <time>2019-08-14T15:30:38Z</time>
      </trkpt>
      <trkpt lat="41.4637290" lon="-4.9765660">
        <ele>690.1</ele>
        <time>2019-08-14T15:30:39Z</time>
      </trkpt>
      <trkpt lat="41.4637910" lon="-4.9765610">
        <ele>690.0</ele>
        <time>2019-08-14T15:30:40Z</time>
      </trkpt>
      <trkpt lat="41.4638550" lon="-4.9765570">
        <ele>689.8</ele>
        <time>2019-08-14T15:30:41Z</time>
      </trkpt>
      <trkpt lat="41.4639200" lon="-4.9765530">
        <ele>689.6</ele>
        <time>2019-08-14T15:30:42Z</time>
      </trkpt>
      <trkpt lat="41.4639880" lon="-4.9765510">
        <ele>689.4</ele>
        <time>2019-08-14T15:30:43Z</time>
      </trkpt>
      <trkpt lat="41.4640550" lon="-4.9765480">
        <ele>689.3</ele>
        <time>2019-08-14T15:30:44Z</time>
      </trkpt>
      <trkpt lat="41.4641220" lon="-4.9765440">
        <ele>689.3</ele>
        <time>2019-08-14T15:30:45Z</time>
      </trkpt>
      <trkpt lat="41.4641870" lon="-4.9765360">
        <ele>689.3</ele>
        <time>2019-08-14T15:30:46Z</time>
      </trkpt>
      <trkpt lat="41.4642510" lon="-4.9765300">
        <ele>689.3</ele>
        <time>2019-08-14T15:30:47Z</time>
      </trkpt>
      <trkpt lat="41.4643140" lon="-4.9765280">
        <ele>689.4</ele>
        <time>2019-08-14T15:30:48Z</time>
      </trkpt>
      <trkpt lat="41.4643740" lon="-4.9765270">
        <ele>689.5</ele>
        <time>2019-08-14T15:30:49Z</time>
      </trkpt>
      <trkpt lat="41.4644310" lon="-4.9765270">
        <ele>689.6</ele>
        <time>2019-08-14T15:30:50Z</time>
      </trkpt>
      <trkpt lat="41.4644890" lon="-4.9765260">
        <ele>689.7</ele>
        <time>2019-08-14T15:30:51Z</time>
      </trkpt>
      <trkpt lat="41.4645480" lon="-4.9765230">
        <ele>689.8</ele>
        <time>2019-08-14T15:30:52Z</time>
      </trkpt>
      <trkpt lat="41.4646080" lon="-4.9765220">
        <ele>689.9</ele>
        <time>2019-08-14T15:30:53Z</time>
      </trkpt>
      <trkpt lat="41.4646680" lon="-4.9765250">
        <ele>689.9</ele>
        <time>2019-08-14T15:30:54Z</time>
      </trkpt>
      <trkpt lat="41.4647300" lon="-4.9765290">
        <ele>690.0</ele>
        <time>2019-08-14T15:30:55Z</time>
      </trkpt>
      <trkpt lat="41.4647880" lon="-4.9765280">
        <ele>690.1</ele>
        <time>2019-08-14T15:30:56Z</time>
      </trkpt>
      <trkpt lat="41.4648450" lon="-4.9765250">
        <ele>690.2</ele>
        <time>2019-08-14T15:30:57Z</time>
      </trkpt>
      <trkpt lat="41.4649050" lon="-4.9765240">
        <ele>690.3</ele>
        <time>2019-08-14T15:30:58Z</time>
      </trkpt>
      <trkpt lat="41.4649650" lon="-4.9765250">
        <ele>690.3</ele>
        <time>2019-08-14T15:30:59Z</time>
      </trkpt>
      <trkpt lat="41.4650250" lon="-4.9765280">
        <ele>690.3</ele>
        <time>2019-08-14T15:31:00Z</time>
      </trkpt>
      <trkpt lat="41.4650850" lon="-4.9765310">
        <ele>690.1</ele>
        <time>2019-08-14T15:31:01Z</time>
      </trkpt>
      <trkpt lat="41.4651440" lon="-4.9765350">
        <ele>689.9</ele>
        <time>2019-08-14T15:31:02Z</time>
      </trkpt>
      <trkpt lat="41.4652020" lon="-4.9765420">
        <ele>689.6</ele>
        <time>2019-08-14T15:31:03Z</time>
      </trkpt>
      <trkpt lat="41.4652600" lon="-4.9765510">
        <ele>689.3</ele>
        <time>2019-08-14T15:31:04Z</time>
      </trkpt>
      <trkpt lat="41.4653180" lon="-4.9765590">
        <ele>689.0</ele>
        <time>2019-08-14T15:31:05Z</time>
      </trkpt>
      <trkpt lat="41.4653760" lon="-4.9765650">
        <ele>688.6</ele>
        <time>2019-08-14T15:31:06Z</time>
      </trkpt>
      <trkpt lat="41.4654340" lon="-4.9765680">
        <ele>688.3</ele>
        <time>2019-08-14T15:31:07Z</time>
      </trkpt>
      <trkpt lat="41.4654920" lon="-4.9765730">
        <ele>688.1</ele>
        <time>2019-08-14T15:31:08Z</time>
      </trkpt>
      <trkpt lat="41.4655510" lon="-4.9765790">
        <ele>687.9</ele>
        <time>2019-08-14T15:31:09Z</time>
      </trkpt>
      <trkpt lat="41.4656120" lon="-4.9765840">
        <ele>687.8</ele>
        <time>2019-08-14T15:31:10Z</time>
      </trkpt>
      <trkpt lat="41.4656750" lon="-4.9765900">
        <ele>687.6</ele>
        <time>2019-08-14T15:31:11Z</time>
      </trkpt>
      <trkpt lat="41.4657410" lon="-4.9765960">
        <ele>687.5</ele>
        <time>2019-08-14T15:31:12Z</time>
      </trkpt>
      <trkpt lat="41.4658070" lon="-4.9766020">
        <ele>687.4</ele>
        <time>2019-08-14T15:31:13Z</time>
      </trkpt>
      <trkpt lat="41.4658720" lon="-4.9766090">
        <ele>687.3</ele>
        <time>2019-08-14T15:31:14Z</time>
      </trkpt>
      <trkpt lat="41.4659350" lon="-4.9766160">
        <ele>687.2</ele>
        <time>2019-08-14T15:31:15Z</time>
      </trkpt>
      <trkpt lat="41.4659990" lon="-4.9766210">
        <ele>687.0</ele>
        <time>2019-08-14T15:31:16Z</time>
      </trkpt>
      <trkpt lat="41.4660630" lon="-4.9766260">
        <ele>686.8</ele>
        <time>2019-08-14T15:31:17Z</time>
      </trkpt>
      <trkpt lat="41.4661270" lon="-4.9766310">
        <ele>686.7</ele>
        <time>2019-08-14T15:31:18Z</time>
      </trkpt>
      <trkpt lat="41.4661920" lon="-4.9766370">
        <ele>686.5</ele>
        <time>2019-08-14T15:31:19Z</time>
      </trkpt>
      <trkpt lat="41.4662570" lon="-4.9766430">
        <ele>686.4</ele>
        <time>2019-08-14T15:31:20Z</time>
      </trkpt>
      <trkpt lat="41.4663200" lon="-4.9766500">
        <ele>686.4</ele>
        <time>2019-08-14T15:31:21Z</time>
      </trkpt>
      <trkpt lat="41.4663810" lon="-4.9766630">
        <ele>686.3</ele>
        <time>2019-08-14T15:31:22Z</time>
      </trkpt>
      <trkpt lat="41.4664400" lon="-4.9766820">
        <ele>686.3</ele>
        <time>2019-08-14T15:31:23Z</time>
      </trkpt>
      <trkpt lat="41.4664970" lon="-4.9767060">
        <ele>686.2</ele>
        <time>2019-08-14T15:31:24Z</time>
      </trkpt>
      <trkpt lat="41.4665530" lon="-4.9767310">
        <ele>686.2</ele>
        <time>2019-08-14T15:31:25Z</time>
      </trkpt>
      <trkpt lat="41.4666080" lon="-4.9767610">
        <ele>686.2</ele>
        <time>2019-08-14T15:31:26Z</time>
      </trkpt>
      <trkpt lat="41.4666630" lon="-4.9767950">
        <ele>686.1</ele>
        <time>2019-08-14T15:31:27Z</time>
      </trkpt>
      <trkpt lat="41.4667160" lon="-4.9768320">
        <ele>686.1</ele>
        <time>2019-08-14T15:31:28Z</time>
      </trkpt>
      <trkpt lat="41.4667700" lon="-4.9768700">
        <ele>686.1</ele>
        <time>2019-08-14T15:31:29Z</time>
      </trkpt>
      <trkpt lat="41.4668240" lon="-4.9769080">
        <ele>686.0</ele>
        <time>2019-08-14T15:31:30Z</time>
      </trkpt>
      <trkpt lat="41.4668790" lon="-4.9769460">
        <ele>686.0</ele>
        <time>2019-08-14T15:31:31Z</time>
      </trkpt>
      <trkpt lat="41.4669330" lon="-4.9769850">
        <ele>685.9</ele>
        <time>2019-08-14T15:31:32Z</time>
      </trkpt>
      <trkpt lat="41.4669880" lon="-4.9770260">
        <ele>685.8</ele>
        <time>2019-08-14T15:31:33Z</time>
      </trkpt>
      <trkpt lat="41.4670440" lon="-4.9770660">
        <ele>685.7</ele>
        <time>2019-08-14T15:31:34Z</time>
      </trkpt>
      <trkpt lat="41.4670990" lon="-4.9771080">
        <ele>685.6</ele>
        <time>2019-08-14T15:31:35Z</time>
      </trkpt>
      <trkpt lat="41.4671560" lon="-4.9771510">
        <ele>685.4</ele>
        <time>2019-08-14T15:31:36Z</time>
      </trkpt>
      <trkpt lat="41.4672140" lon="-4.9771920">
        <ele>685.2</ele>
        <time>2019-08-14T15:31:37Z</time>
      </trkpt>
      <trkpt lat="41.4672720" lon="-4.9772350">
        <ele>685.0</ele>
        <time>2019-08-14T15:31:38Z</time>
      </trkpt>
      <trkpt lat="41.4673280" lon="-4.9772800">
        <ele>684.9</ele>
        <time>2019-08-14T15:31:39Z</time>
      </trkpt>
      <trkpt lat="41.4673830" lon="-4.9773230">
        <ele>684.8</ele>
        <time>2019-08-14T15:31:40Z</time>
      </trkpt>
      <trkpt lat="41.4674400" lon="-4.9773620">
        <ele>684.8</ele>
        <time>2019-08-14T15:31:41Z</time>
      </trkpt>
      <trkpt lat="41.4674940" lon="-4.9774010">
        <ele>684.7</ele>
        <time>2019-08-14T15:31:42Z</time>
      </trkpt>
      <trkpt lat="41.4675480" lon="-4.9774410">
        <ele>684.7</ele>
        <time>2019-08-14T15:31:43Z</time>
      </trkpt>
      <trkpt lat="41.4676020" lon="-4.9774820">
        <ele>684.7</ele>
        <time>2019-08-14T15:31:44Z</time>
      </trkpt>
      <trkpt lat="41.4676580" lon="-4.9775240">
        <ele>684.7</ele>
        <time>2019-08-14T15:31:45Z</time>
      </trkpt>
      <trkpt lat="41.4677160" lon="-4.9775640">
        <ele>684.6</ele>
        <time>2019-08-14T15:31:46Z</time>
      </trkpt>
      <trkpt lat="41.4677730" lon="-4.9776070">
        <ele>684.6</ele>
        <time>2019-08-14T15:31:47Z</time>
      </trkpt>
      <trkpt lat="41.4678300" lon="-4.9776490">
        <ele>684.5</ele>
        <time>2019-08-14T15:31:48Z</time>
      </trkpt>
      <trkpt lat="41.4678870" lon="-4.9776910">
        <ele>684.5</ele>
        <time>2019-08-14T15:31:49Z</time>
      </trkpt>
      <trkpt lat="41.4679430" lon="-4.9777340">
        <ele>684.3</ele>
        <time>2019-08-14T15:31:50Z</time>
      </trkpt>
      <trkpt lat="41.4679990" lon="-4.9777760">
        <ele>684.2</ele>
        <time>2019-08-14T15:31:51Z</time>
      </trkpt>
      <trkpt lat="41.4680570" lon="-4.9778190">
        <ele>684.0</ele>
        <time>2019-08-14T15:31:52Z</time>
      </trkpt>
      <trkpt lat="41.4681150" lon="-4.9778600">
        <ele>683.8</ele>
        <time>2019-08-14T15:31:53Z</time>
      </trkpt>
      <trkpt lat="41.4681730" lon="-4.9779010">
        <ele>683.7</ele>
        <time>2019-08-14T15:31:54Z</time>
      </trkpt>
      <trkpt lat="41.4682300" lon="-4.9779450">
        <ele>683.5</ele>
        <time>2019-08-14T15:31:55Z</time>
      </trkpt>
      <trkpt lat="41.4682870" lon="-4.9779890">
        <ele>683.4</ele>
        <time>2019-08-14T15:31:56Z</time>
      </trkpt>
      <trkpt lat="41.4683430" lon="-4.9780320">
        <ele>683.4</ele>
        <time>2019-08-14T15:31:57Z</time>
      </trkpt>
      <trkpt lat="41.4683970" lon="-4.9780750">
        <ele>683.3</ele>
        <time>2019-08-14T15:31:58Z</time>
      </trkpt>
      <trkpt lat="41.4684510" lon="-4.9781160">
        <ele>683.1</ele>
        <time>2019-08-14T15:31:59Z</time>
      </trkpt>
      <trkpt lat="41.4685030" lon="-4.9781550">
        <ele>683.0</ele>
        <time>2019-08-14T15:32:00Z</time>
      </trkpt>
      <trkpt lat="41.4685550" lon="-4.9781900">
        <ele>682.8</ele>
        <time>2019-08-14T15:32:01Z</time>
      </trkpt>
      <trkpt lat="41.4686050" lon="-4.9782270">
        <ele>682.6</ele>
        <time>2019-08-14T15:32:02Z</time>
      </trkpt>
      <trkpt lat="41.4686530" lon="-4.9782630">
        <ele>682.4</ele>
        <time>2019-08-14T15:32:03Z</time>
      </trkpt>
      <trkpt lat="41.4687020" lon="-4.9782970">
        <ele>682.1</ele>
        <time>2019-08-14T15:32:04Z</time>
      </trkpt>
      <trkpt lat="41.4687510" lon="-4.9783300">
        <ele>681.9</ele>
        <time>2019-08-14T15:32:05Z</time>
      </trkpt>
      <trkpt lat="41.4687980" lon="-4.9783640">
        <ele>681.6</ele>
        <time>2019-08-14T15:32:06Z</time>
      </trkpt>
      <trkpt lat="41.4688420" lon="-4.9783980">
        <ele>681.4</ele>
        <time>2019-08-14T15:32:07Z</time>
      </trkpt>
      <trkpt lat="41.4688850" lon="-4.9784320">
        <ele>681.3</ele>
        <time>2019-08-14T15:32:08Z</time>
      </trkpt>
      <trkpt lat="41.4689260" lon="-4.9784660">
        <ele>681.2</ele>
        <time>2019-08-14T15:32:09Z</time>
      </trkpt>
      <trkpt lat="41.4689680" lon="-4.9785010">
        <ele>681.1</ele>
        <time>2019-08-14T15:32:10Z</time>
      </trkpt>
      <trkpt lat="41.4690100" lon="-4.9785320">
        <ele>681.0</ele>
        <time>2019-08-14T15:32:11Z</time>
      </trkpt>
      <trkpt lat="41.4690520" lon="-4.9785640">
        <ele>680.9</ele>
        <time>2019-08-14T15:32:12Z</time>
      </trkpt>
      <trkpt lat="41.4690940" lon="-4.9785950">
        <ele>680.8</ele>
        <time>2019-08-14T15:32:13Z</time>
      </trkpt>
      <trkpt lat="41.4691400" lon="-4.9786300">
        <ele>680.6</ele>
        <time>2019-08-14T15:32:14Z</time>
      </trkpt>
      <trkpt lat="41.4691890" lon="-4.9786680">
        <ele>680.4</ele>
        <time>2019-08-14T15:32:15Z</time>
      </trkpt>
      <trkpt lat="41.4692400" lon="-4.9787080">
        <ele>680.2</ele>
        <time>2019-08-14T15:32:16Z</time>
      </trkpt>
      <trkpt lat="41.4692940" lon="-4.9787480">
        <ele>680.1</ele>
        <time>2019-08-14T15:32:17Z</time>
      </trkpt>
      <trkpt lat="41.4693480" lon="-4.9787890">
        <ele>680.0</ele>
        <time>2019-08-14T15:32:18Z</time>
      </trkpt>
      <trkpt lat="41.4694010" lon="-4.9788320">
        <ele>679.9</ele>
        <time>2019-08-14T15:32:19Z</time>
      </trkpt>
      <trkpt lat="41.4694530" lon="-4.9788740">
        <ele>679.8</ele>
        <time>2019-08-14T15:32:20Z</time>
      </trkpt>
      <trkpt lat="41.4695040" lon="-4.9789140">
        <ele>679.8</ele>
        <time>2019-08-14T15:32:21Z</time>
      </trkpt>
      <trkpt lat="41.4695550" lon="-4.9789510">
        <ele>679.8</ele>
        <time>2019-08-14T15:32:22Z</time>
      </trkpt>
      <trkpt lat="41.4696060" lon="-4.9789900">
        <ele>679.7</ele>
        <time>2019-08-14T15:32:23Z</time>
      </trkpt>
      <trkpt lat="41.4696570" lon="-4.9790300">
        <ele>679.7</ele>
        <time>2019-08-14T15:32:24Z</time>
      </trkpt>
      <trkpt lat="41.4697070" lon="-4.9790720">
        <ele>679.7</ele>
        <time>2019-08-14T15:32:25Z</time>
      </trkpt>
      <trkpt lat="41.4697600" lon="-4.9791130">
        <ele>679.6</ele>
        <time>2019-08-14T15:32:26Z</time>
      </trkpt>
      <trkpt lat="41.4698120" lon="-4.9791520">
        <ele>679.5</ele>
        <time>2019-08-14T15:32:27Z</time>
      </trkpt>
      <trkpt lat="41.4698660" lon="-4.9791930">
        <ele>679.4</ele>
        <time>2019-08-14T15:32:28Z</time>
      </trkpt>
      <trkpt lat="41.4699200" lon="-4.9792330">
        <ele>679.2</ele>
        <time>2019-08-14T15:32:29Z</time>
      </trkpt>
      <trkpt lat="41.4699740" lon="-4.9792730">
        <ele>679.1</ele>
        <time>2019-08-14T15:32:30Z</time>
      </trkpt>
      <trkpt lat="41.4700270" lon="-4.9793110">
        <ele>678.9</ele>
        <time>2019-08-14T15:32:31Z</time>
      </trkpt>
      <trkpt lat="41.4700800" lon="-4.9793500">
        <ele>678.8</ele>
        <time>2019-08-14T15:32:32Z</time>
      </trkpt>
      <trkpt lat="41.4701340" lon="-4.9793910">
        <ele>678.6</ele>
        <time>2019-08-14T15:32:33Z</time>
      </trkpt>
      <trkpt lat="41.4701900" lon="-4.9794330">
        <ele>678.5</ele>
        <time>2019-08-14T15:32:34Z</time>
      </trkpt>
      <trkpt lat="41.4702450" lon="-4.9794760">
        <ele>678.5</ele>
        <time>2019-08-14T15:32:35Z</time>
      </trkpt>
      <trkpt lat="41.4703020" lon="-4.9795180">
        <ele>678.4</ele>
        <time>2019-08-14T15:32:36Z</time>
      </trkpt>
      <trkpt lat="41.4703580" lon="-4.9795600">
        <ele>678.4</ele>
        <time>2019-08-14T15:32:37Z</time>
      </trkpt>
      <trkpt lat="41.4704140" lon="-4.9796010">
        <ele>678.3</ele>
        <time>2019-08-14T15:32:38Z</time>
      </trkpt>
      <trkpt lat="41.4704720" lon="-4.9796420">
        <ele>678.3</ele>
        <time>2019-08-14T15:32:39Z</time>
      </trkpt>
      <trkpt lat="41.4705300" lon="-4.9796830">
        <ele>678.3</ele>
        <time>2019-08-14T15:32:40Z</time>
      </trkpt>
      <trkpt lat="41.4705870" lon="-4.9797240">
        <ele>678.3</ele>
        <time>2019-08-14T15:32:41Z</time>
      </trkpt>
      <trkpt lat="41.4706430" lon="-4.9797660">
        <ele>678.2</ele>
        <time>2019-08-14T15:32:42Z</time>
      </trkpt>
      <trkpt lat="41.4706970" lon="-4.9798100">
        <ele>678.2</ele>
        <time>2019-08-14T15:32:43Z</time>
      </trkpt>
      <trkpt lat="41.4707500" lon="-4.9798540">
        <ele>678.2</ele>
        <time>2019-08-14T15:32:44Z</time>
      </trkpt>
      <trkpt lat="41.4707990" lon="-4.9798990">
        <ele>678.1</ele>
        <time>2019-08-14T15:32:45Z</time>
      </trkpt>
      <trkpt lat="41.4708500" lon="-4.9799430">
        <ele>678.1</ele>
        <time>2019-08-14T15:32:46Z</time>
      </trkpt>
      <trkpt lat="41.4709010" lon="-4.9799850">
        <ele>678.1</ele>
        <time>2019-08-14T15:32:47Z</time>
      </trkpt>
      <trkpt lat="41.4709520" lon="-4.9800270">
        <ele>678.1</ele>
        <time>2019-08-14T15:32:48Z</time>
      </trkpt>
      <trkpt lat="41.4710040" lon="-4.9800710">
        <ele>678.0</ele>
        <time>2019-08-14T15:32:49Z</time>
      </trkpt>
      <trkpt lat="41.4710540" lon="-4.9801150">
        <ele>678.0</ele>
        <time>2019-08-14T15:32:50Z</time>
      </trkpt>
      <trkpt lat="41.4711040" lon="-4.9801580">
        <ele>678.0</ele>
        <time>2019-08-14T15:32:51Z</time>
      </trkpt>
      <trkpt lat="41.4711560" lon="-4.9801970">
        <ele>677.9</ele>
        <time>2019-08-14T15:32:52Z</time>
      </trkpt>
      <trkpt lat="41.4712080" lon="-4.9802320">
        <ele>677.9</ele>
        <time>2019-08-14T15:32:53Z</time>
      </trkpt>
      <trkpt lat="41.4712610" lon="-4.9802670">
        <ele>677.8</ele>
        <time>2019-08-14T15:32:54Z</time>
      </trkpt>
      <trkpt lat="41.4713120" lon="-4.9803040">
        <ele>677.8</ele>
        <time>2019-08-14T15:32:55Z</time>
      </trkpt>
      <trkpt lat="41.4713630" lon="-4.9803440">
        <ele>677.8</ele>
        <time>2019-08-14T15:32:56Z</time>
      </trkpt>
      <trkpt lat="41.4714140" lon="-4.9803840">
        <ele>677.8</ele>
        <time>2019-08-14T15:32:57Z</time>
      </trkpt>
      <trkpt lat="41.4714650" lon="-4.9804250">
        <ele>677.7</ele>
        <time>2019-08-14T15:32:58Z</time>
      </trkpt>
      <trkpt lat="41.4715170" lon="-4.9804650">
        <ele>677.7</ele>
        <time>2019-08-14T15:32:59Z</time>
      </trkpt>
      <trkpt lat="41.4715680" lon="-4.9805050">
        <ele>677.7</ele>
        <time>2019-08-14T15:33:00Z</time>
      </trkpt>
      <trkpt lat="41.4716200" lon="-4.9805440">
        <ele>677.7</ele>
        <time>2019-08-14T15:33:01Z</time>
      </trkpt>
      <trkpt lat="41.4716720" lon="-4.9805840">
        <ele>677.7</ele>
        <time>2019-08-14T15:33:02Z</time>
      </trkpt>
      <trkpt lat="41.4717230" lon="-4.9806230">
        <ele>677.6</ele>
        <time>2019-08-14T15:33:03Z</time>
      </trkpt>
      <trkpt lat="41.4717740" lon="-4.9806630">
        <ele>677.6</ele>
        <time>2019-08-14T15:33:04Z</time>
      </trkpt>
      <trkpt lat="41.4718250" lon="-4.9807020">
        <ele>677.6</ele>
        <time>2019-08-14T15:33:05Z</time>
      </trkpt>
      <trkpt lat="41.4718750" lon="-4.9807410">
        <ele>677.6</ele>
        <time>2019-08-14T15:33:06Z</time>
      </trkpt>
      <trkpt lat="41.4719260" lon="-4.9807800">
        <ele>677.6</ele>
        <time>2019-08-14T15:33:07Z</time>
      </trkpt>
      <trkpt lat="41.4719770" lon="-4.9808180">
        <ele>677.6</ele>
        <time>2019-08-14T15:33:08Z</time>
      </trkpt>
      <trkpt lat="41.4720260" lon="-4.9808570">
        <ele>677.6</ele>
        <time>2019-08-14T15:33:09Z</time>
      </trkpt>
      <trkpt lat="41.4720770" lon="-4.9808960">
        <ele>677.5</ele>
        <time>2019-08-14T15:33:10Z</time>
      </trkpt>
      <trkpt lat="41.4721270" lon="-4.9809360">
        <ele>677.5</ele>
        <time>2019-08-14T15:33:11Z</time>
      </trkpt>
      <trkpt lat="41.4721770" lon="-4.9809750">
        <ele>677.5</ele>
        <time>2019-08-14T15:33:12Z</time>
      </trkpt>
      <trkpt lat="41.4722270" lon="-4.9810140">
        <ele>677.5</ele>
        <time>2019-08-14T15:33:13Z</time>
      </trkpt>
      <trkpt lat="41.4722770" lon="-4.9810530">
        <ele>677.5</ele>
        <time>2019-08-14T15:33:14Z</time>
      </trkpt>
      <trkpt lat="41.4723290" lon="-4.9810920">
        <ele>677.5</ele>
        <time>2019-08-14T15:33:15Z</time>
      </trkpt>
      <trkpt lat="41.4723800" lon="-4.9811300">
        <ele>677.5</ele>
        <time>2019-08-14T15:33:16Z</time>
      </trkpt>
      <trkpt lat="41.4724300" lon="-4.9811700">
        <ele>677.4</ele>
        <time>2019-08-14T15:33:17Z</time>
      </trkpt>
      <trkpt lat="41.4724810" lon="-4.9812100">
        <ele>677.4</ele>
        <time>2019-08-14T15:33:18Z</time>
      </trkpt>
      <trkpt lat="41.4725310" lon="-4.9812490">
        <ele>677.4</ele>
        <time>2019-08-14T15:33:19Z</time>
      </trkpt>
      <trkpt lat="41.4725800" lon="-4.9812880">
        <ele>677.4</ele>
        <time>2019-08-14T15:33:20Z</time>
      </trkpt>
      <trkpt lat="41.4726290" lon="-4.9813270">
        <ele>677.3</ele>
        <time>2019-08-14T15:33:21Z</time>
      </trkpt>
      <trkpt lat="41.4726800" lon="-4.9813660">
        <ele>677.3</ele>
        <time>2019-08-14T15:33:22Z</time>
      </trkpt>
      <trkpt lat="41.4727310" lon="-4.9814030">
        <ele>677.3</ele>
        <time>2019-08-14T15:33:23Z</time>
      </trkpt>
      <trkpt lat="41.4727830" lon="-4.9814390">
        <ele>677.3</ele>
        <time>2019-08-14T15:33:24Z</time>
      </trkpt>
      <trkpt lat="41.4728320" lon="-4.9814770">
        <ele>677.3</ele>
        <time>2019-08-14T15:33:25Z</time>
      </trkpt>
      <trkpt lat="41.4728820" lon="-4.9815150">
        <ele>677.3</ele>
        <time>2019-08-14T15:33:26Z</time>
      </trkpt>
      <trkpt lat="41.4729310" lon="-4.9815530">
        <ele>677.3</ele>
        <time>2019-08-14T15:33:27Z</time>
      </trkpt>
      <trkpt lat="41.4729800" lon="-4.9815900">
        <ele>677.3</ele>
        <time>2019-08-14T15:33:28Z</time>
      </trkpt>
      <trkpt lat="41.4730280" lon="-4.9816250">
        <ele>677.3</ele>
        <time>2019-08-14T15:33:29Z</time>
      </trkpt>
      <trkpt lat="41.4730770" lon="-4.9816580">
        <ele>677.3</ele>
        <time>2019-08-14T15:33:30Z</time>
      </trkpt>
      <trkpt lat="41.4731240" lon="-4.9816910">
        <ele>677.2</ele>
        <time>2019-08-14T15:33:31Z</time>
      </trkpt>
      <trkpt lat="41.4731700" lon="-4.9817260">
        <ele>677.2</ele>
        <time>2019-08-14T15:33:32Z</time>
      </trkpt>
      <trkpt lat="41.4732170" lon="-4.9817610">
        <ele>677.2</ele>
        <time>2019-08-14T15:33:33Z</time>
      </trkpt>
      <trkpt lat="41.4732640" lon="-4.9817940">
        <ele>677.2</ele>
        <time>2019-08-14T15:33:34Z</time>
      </trkpt>
      <trkpt lat="41.4733120" lon="-4.9818270">
        <ele>677.2</ele>
        <time>2019-08-14T15:33:35Z</time>
      </trkpt>
      <trkpt lat="41.4733560" lon="-4.9818600">
        <ele>677.2</ele>
        <time>2019-08-14T15:33:36Z</time>
      </trkpt>
      <trkpt lat="41.4734010" lon="-4.9818900">
        <ele>677.1</ele>
        <time>2019-08-14T15:33:37Z</time>
      </trkpt>
      <trkpt lat="41.4734500" lon="-4.9819180">
        <ele>677.1</ele>
        <time>2019-08-14T15:33:38Z</time>
      </trkpt>
      <trkpt lat="41.4734980" lon="-4.9819460">
        <ele>677.1</ele>
        <time>2019-08-14T15:33:39Z</time>
      </trkpt>
      <trkpt lat="41.4735480" lon="-4.9819720">
        <ele>677.0</ele>
        <time>2019-08-14T15:33:40Z</time>
      </trkpt>
      <trkpt lat="41.4735980" lon="-4.9819970">
        <ele>677.0</ele>
        <time>2019-08-14T15:33:41Z</time>
      </trkpt>
      <trkpt lat="41.4736500" lon="-4.9820200">
        <ele>676.9</ele>
        <time>2019-08-14T15:33:42Z</time>
      </trkpt>
      <trkpt lat="41.4737010" lon="-4.9820420">
        <ele>676.9</ele>
        <time>2019-08-14T15:33:43Z</time>
      </trkpt>
      <trkpt lat="41.4737520" lon="-4.9820610">
        <ele>676.8</ele>
        <time>2019-08-14T15:33:44Z</time>
      </trkpt>
      <trkpt lat="41.4738030" lon="-4.9820800">
        <ele>676.7</ele>
        <time>2019-08-14T15:33:45Z</time>
      </trkpt>
      <trkpt lat="41.4738510" lon="-4.9820980">
        <ele>676.7</ele>
        <time>2019-08-14T15:33:46Z</time>
      </trkpt>
      <trkpt lat="41.4738980" lon="-4.9821170">
        <ele>676.6</ele>
        <time>2019-08-14T15:33:47Z</time>
      </trkpt>
      <trkpt lat="41.4739440" lon="-4.9821350">
        <ele>676.6</ele>
        <time>2019-08-14T15:33:48Z</time>
      </trkpt>
      <trkpt lat="41.4739890" lon="-4.9821540">
        <ele>676.5</ele>
        <time>2019-08-14T15:33:49Z</time>
      </trkpt>
      <trkpt lat="41.4740340" lon="-4.9821710">
        <ele>676.5</ele>
        <time>2019-08-14T15:33:50Z</time>
      </trkpt>
      <trkpt lat="41.4740830" lon="-4.9821890">
        <ele>676.4</ele>
        <time>2019-08-14T15:33:51Z</time>
      </trkpt>
      <trkpt lat="41.4741320" lon="-4.9822090">
        <ele>676.4</ele>
        <time>2019-08-14T15:33:52Z</time>
      </trkpt>
      <trkpt lat="41.4741820" lon="-4.9822290">
        <ele>676.3</ele>
        <time>2019-08-14T15:33:53Z</time>
      </trkpt>
      <trkpt lat="41.4742320" lon="-4.9822490">
        <ele>676.3</ele>
        <time>2019-08-14T15:33:54Z</time>
      </trkpt>
      <trkpt lat="41.4742820" lon="-4.9822710">
        <ele>676.3</ele>
        <time>2019-08-14T15:33:55Z</time>
      </trkpt>
      <trkpt lat="41.4743330" lon="-4.9822920">
        <ele>676.2</ele>
        <time>2019-08-14T15:33:56Z</time>
      </trkpt>
      <trkpt lat="41.4743840" lon="-4.9823130">
        <ele>676.2</ele>
        <time>2019-08-14T15:33:57Z</time>
      </trkpt>
      <trkpt lat="41.4744350" lon="-4.9823340">
        <ele>676.2</ele>
        <time>2019-08-14T15:33:58Z</time>
      </trkpt>
      <trkpt lat="41.4744860" lon="-4.9823560">
        <ele>676.1</ele>
        <time>2019-08-14T15:33:59Z</time>
      </trkpt>
      <trkpt lat="41.4745380" lon="-4.9823780">
        <ele>676.1</ele>
        <time>2019-08-14T15:34:00Z</time>
      </trkpt>
      <trkpt lat="41.4745910" lon="-4.9824010">
        <ele>676.1</ele>
        <time>2019-08-14T15:34:01Z</time>
      </trkpt>
      <trkpt lat="41.4746440" lon="-4.9824230">
        <ele>676.0</ele>
        <time>2019-08-14T15:34:02Z</time>
      </trkpt>
      <trkpt lat="41.4746990" lon="-4.9824450">
        <ele>676.0</ele>
        <time>2019-08-14T15:34:03Z</time>
      </trkpt>
      <trkpt lat="41.4747530" lon="-4.9824680">
        <ele>675.9</ele>
        <time>2019-08-14T15:34:04Z</time>
      </trkpt>
      <trkpt lat="41.4748080" lon="-4.9824930">
        <ele>675.9</ele>
        <time>2019-08-14T15:34:05Z</time>
      </trkpt>
      <trkpt lat="41.4748630" lon="-4.9825150">
        <ele>675.9</ele>
        <time>2019-08-14T15:34:06Z</time>
      </trkpt>
      <trkpt lat="41.4749180" lon="-4.9825360">
        <ele>675.8</ele>
        <time>2019-08-14T15:34:07Z</time>
      </trkpt>
      <trkpt lat="41.4749730" lon="-4.9825570">
        <ele>675.8</ele>
        <time>2019-08-14T15:34:08Z</time>
      </trkpt>
      <trkpt lat="41.4750240" lon="-4.9825810">
        <ele>675.7</ele>
        <time>2019-08-14T15:34:09Z</time>
      </trkpt>
      <trkpt lat="41.4750740" lon="-4.9826040">
        <ele>675.7</ele>
        <time>2019-08-14T15:34:10Z</time>
      </trkpt>
      <trkpt lat="41.4751250" lon="-4.9826270">
        <ele>675.7</ele>
        <time>2019-08-14T15:34:11Z</time>
      </trkpt>
      <trkpt lat="41.4751780" lon="-4.9826480">
        <ele>675.6</ele>
        <time>2019-08-14T15:34:12Z</time>
      </trkpt>
      <trkpt lat="41.4752330" lon="-4.9826690">
        <ele>675.6</ele>
        <time>2019-08-14T15:34:13Z</time>
      </trkpt>
      <trkpt lat="41.4752870" lon="-4.9826910">
        <ele>675.5</ele>
        <time>2019-08-14T15:34:14Z</time>
      </trkpt>
      <trkpt lat="41.4753410" lon="-4.9827160">
        <ele>675.5</ele>
        <time>2019-08-14T15:34:15Z</time>
      </trkpt>
      <trkpt lat="41.4753950" lon="-4.9827400">
        <ele>675.5</ele>
        <time>2019-08-14T15:34:16Z</time>
      </trkpt>
      <trkpt lat="41.4754480" lon="-4.9827620">
        <ele>675.4</ele>
        <time>2019-08-14T15:34:17Z</time>
      </trkpt>
      <trkpt lat="41.4754990" lon="-4.9827850">
        <ele>675.4</ele>
        <time>2019-08-14T15:34:18Z</time>
      </trkpt>
      <trkpt lat="41.4755500" lon="-4.9828080">
        <ele>675.4</ele>
        <time>2019-08-14T15:34:19Z</time>
      </trkpt>
      <trkpt lat="41.4756000" lon="-4.9828300">
        <ele>675.3</ele>
        <time>2019-08-14T15:34:20Z</time>
      </trkpt>
      <trkpt lat="41.4756510" lon="-4.9828520">
        <ele>675.3</ele>
        <time>2019-08-14T15:34:21Z</time>
      </trkpt>
      <trkpt lat="41.4757050" lon="-4.9828740">
        <ele>675.3</ele>
        <time>2019-08-14T15:34:22Z</time>
      </trkpt>
      <trkpt lat="41.4757580" lon="-4.9828960">
        <ele>675.3</ele>
        <time>2019-08-14T15:34:23Z</time>
      </trkpt>
      <trkpt lat="41.4758110" lon="-4.9829160">
        <ele>675.3</ele>
        <time>2019-08-14T15:34:24Z</time>
      </trkpt>
      <trkpt lat="41.4758640" lon="-4.9829370">
        <ele>675.2</ele>
        <time>2019-08-14T15:34:25Z</time>
      </trkpt>
      <trkpt lat="41.4759160" lon="-4.9829580">
        <ele>675.2</ele>
        <time>2019-08-14T15:34:26Z</time>
      </trkpt>
      <trkpt lat="41.4759660" lon="-4.9829790">
        <ele>675.2</ele>
        <time>2019-08-14T15:34:27Z</time>
      </trkpt>
      <trkpt lat="41.4760150" lon="-4.9830020">
        <ele>675.2</ele>
        <time>2019-08-14T15:34:28Z</time>
      </trkpt>
      <trkpt lat="41.4760650" lon="-4.9830250">
        <ele>675.2</ele>
        <time>2019-08-14T15:34:29Z</time>
      </trkpt>
      <trkpt lat="41.4761140" lon="-4.9830480">
        <ele>675.1</ele>
        <time>2019-08-14T15:34:30Z</time>
      </trkpt>
      <trkpt lat="41.4761650" lon="-4.9830680">
        <ele>675.1</ele>
        <time>2019-08-14T15:34:31Z</time>
      </trkpt>
      <trkpt lat="41.4762160" lon="-4.9830910">
        <ele>675.1</ele>
        <time>2019-08-14T15:34:32Z</time>
      </trkpt>
      <trkpt lat="41.4762670" lon="-4.9831130">
        <ele>675.1</ele>
        <time>2019-08-14T15:34:33Z</time>
      </trkpt>
      <trkpt lat="41.4763190" lon="-4.9831350">
        <ele>675.0</ele>
        <time>2019-08-14T15:34:34Z</time>
      </trkpt>
      <trkpt lat="41.4763700" lon="-4.9831570">
        <ele>675.0</ele>
        <time>2019-08-14T15:34:35Z</time>
      </trkpt>
      <trkpt lat="41.4764210" lon="-4.9831780">
        <ele>675.0</ele>
        <time>2019-08-14T15:34:36Z</time>
      </trkpt>
      <trkpt lat="41.4764710" lon="-4.9831990">
        <ele>675.0</ele>
        <time>2019-08-14T15:34:37Z</time>
      </trkpt>
      <trkpt lat="41.4765210" lon="-4.9832210">
        <ele>674.9</ele>
        <time>2019-08-14T15:34:38Z</time>
      </trkpt>
      <trkpt lat="41.4765720" lon="-4.9832430">
        <ele>674.9</ele>
        <time>2019-08-14T15:34:39Z</time>
      </trkpt>
      <trkpt lat="41.4766190" lon="-4.9832650">
        <ele>674.9</ele>
        <time>2019-08-14T15:34:40Z</time>
      </trkpt>
      <trkpt lat="41.4766640" lon="-4.9832850">
        <ele>674.9</ele>
        <time>2019-08-14T15:34:41Z</time>
      </trkpt>
      <trkpt lat="41.4767070" lon="-4.9833040">
        <ele>674.9</ele>
        <time>2019-08-14T15:34:42Z</time>
      </trkpt>
      <trkpt lat="41.4767510" lon="-4.9833230">
        <ele>674.8</ele>
        <time>2019-08-14T15:34:43Z</time>
      </trkpt>
      <trkpt lat="41.4767960" lon="-4.9833450">
        <ele>674.8</ele>
        <time>2019-08-14T15:34:44Z</time>
      </trkpt>
      <trkpt lat="41.4768420" lon="-4.9833660">
        <ele>674.8</ele>
        <time>2019-08-14T15:34:45Z</time>
      </trkpt>
      <trkpt lat="41.4768870" lon="-4.9833880">
        <ele>674.8</ele>
        <time>2019-08-14T15:34:46Z</time>
      </trkpt>
      <trkpt lat="41.4769340" lon="-4.9834110">
        <ele>674.8</ele>
        <time>2019-08-14T15:34:47Z</time>
      </trkpt>
      <trkpt lat="41.4769810" lon="-4.9834340">
        <ele>674.8</ele>
        <time>2019-08-14T15:34:48Z</time>
      </trkpt>
      <trkpt lat="41.4770270" lon="-4.9834580">
        <ele>674.8</ele>
        <time>2019-08-14T15:34:49Z</time>
      </trkpt>
      <trkpt lat="41.4770740" lon="-4.9834840">
        <ele>674.9</ele>
        <time>2019-08-14T15:34:50Z</time>
      </trkpt>
      <trkpt lat="41.4771210" lon="-4.9835110">
        <ele>674.9</ele>
        <time>2019-08-14T15:34:51Z</time>
      </trkpt>
      <trkpt lat="41.4771680" lon="-4.9835390">
        <ele>674.9</ele>
        <time>2019-08-14T15:34:52Z</time>
      </trkpt>
      <trkpt lat="41.4772130" lon="-4.9835690">
        <ele>674.9</ele>
        <time>2019-08-14T15:34:53Z</time>
      </trkpt>
      <trkpt lat="41.4772570" lon="-4.9836010">
        <ele>674.9</ele>
        <time>2019-08-14T15:34:54Z</time>
      </trkpt>
      <trkpt lat="41.4773010" lon="-4.9836330">
        <ele>674.9</ele>
        <time>2019-08-14T15:34:55Z</time>
      </trkpt>
      <trkpt lat="41.4773450" lon="-4.9836660">
        <ele>675.0</ele>
        <time>2019-08-14T15:34:56Z</time>
      </trkpt>
      <trkpt lat="41.4773890" lon="-4.9836990">
        <ele>675.0</ele>
        <time>2019-08-14T15:34:57Z</time>
      </trkpt>
      <trkpt lat="41.4774340" lon="-4.9837320">
        <ele>675.0</ele>
        <time>2019-08-14T15:34:58Z</time>
      </trkpt>
      <trkpt lat="41.4774780" lon="-4.9837660">
        <ele>675.0</ele>
        <time>2019-08-14T15:34:59Z</time>
      </trkpt>
      <trkpt lat="41.4775220" lon="-4.9838010">
        <ele>675.0</ele>
        <time>2019-08-14T15:35:00Z</time>
      </trkpt>
      <trkpt lat="41.4775680" lon="-4.9838340">
        <ele>675.0</ele>
        <time>2019-08-14T15:35:01Z</time>
      </trkpt>
      <trkpt lat="41.4776130" lon="-4.9838690">
        <ele>675.0</ele>
        <time>2019-08-14T15:35:02Z</time>
      </trkpt>
      <trkpt lat="41.4776570" lon="-4.9839050">
        <ele>675.0</ele>
        <time>2019-08-14T15:35:03Z</time>
      </trkpt>
      <trkpt lat="41.4777030" lon="-4.9839400">
        <ele>674.9</ele>
        <time>2019-08-14T15:35:04Z</time>
      </trkpt>
      <trkpt lat="41.4777470" lon="-4.9839750">
        <ele>674.9</ele>
        <time>2019-08-14T15:35:05Z</time>
      </trkpt>
      <trkpt lat="41.4777910" lon="-4.9840090">
        <ele>674.9</ele>
        <time>2019-08-14T15:35:06Z</time>
      </trkpt>
      <trkpt lat="41.4778330" lon="-4.9840430">
        <ele>674.9</ele>
        <time>2019-08-14T15:35:07Z</time>
      </trkpt>
      <trkpt lat="41.4778740" lon="-4.9840760">
        <ele>674.9</ele>
        <time>2019-08-14T15:35:08Z</time>
      </trkpt>
      <trkpt lat="41.4779160" lon="-4.9841100">
        <ele>674.9</ele>
        <time>2019-08-14T15:35:09Z</time>
      </trkpt>
      <trkpt lat="41.4779580" lon="-4.9841450">
        <ele>674.9</ele>
        <time>2019-08-14T15:35:10Z</time>
      </trkpt>
      <trkpt lat="41.4780010" lon="-4.9841780">
        <ele>674.8</ele>
        <time>2019-08-14T15:35:11Z</time>
      </trkpt>
      <trkpt lat="41.4780450" lon="-4.9842110">
        <ele>674.8</ele>
        <time>2019-08-14T15:35:12Z</time>
      </trkpt>
      <trkpt lat="41.4780880" lon="-4.9842430">
        <ele>674.8</ele>
        <time>2019-08-14T15:35:13Z</time>
      </trkpt>
      <trkpt lat="41.4781310" lon="-4.9842780">
        <ele>674.8</ele>
        <time>2019-08-14T15:35:14Z</time>
      </trkpt>
      <trkpt lat="41.4781730" lon="-4.9843100">
        <ele>674.8</ele>
        <time>2019-08-14T15:35:15Z</time>
      </trkpt>
      <trkpt lat="41.4782150" lon="-4.9843440">
        <ele>674.8</ele>
        <time>2019-08-14T15:35:16Z</time>
      </trkpt>
      <trkpt lat="41.4782550" lon="-4.9843770">
        <ele>674.8</ele>
        <time>2019-08-14T15:35:17Z</time>
      </trkpt>
      <trkpt lat="41.4782960" lon="-4.9844110">
        <ele>674.8</ele>
        <time>2019-08-14T15:35:18Z</time>
      </trkpt>
      <trkpt lat="41.4783380" lon="-4.9844420">
        <ele>674.7</ele>
        <time>2019-08-14T15:35:19Z</time>
      </trkpt>
      <trkpt lat="41.4783800" lon="-4.9844750">
        <ele>674.7</ele>
        <time>2019-08-14T15:35:20Z</time>
      </trkpt>
      <trkpt lat="41.4784210" lon="-4.9845100">
        <ele>674.7</ele>
        <time>2019-08-14T15:35:21Z</time>
      </trkpt>
      <trkpt lat="41.4784620" lon="-4.9845460">
        <ele>674.7</ele>
        <time>2019-08-14T15:35:22Z</time>
      </trkpt>
      <trkpt lat="41.4785020" lon="-4.9845810">
        <ele>674.7</ele>
        <time>2019-08-14T15:35:23Z</time>
      </trkpt>
      <trkpt lat="41.4785440" lon="-4.9846140">
        <ele>674.7</ele>
        <time>2019-08-14T15:35:24Z</time>
      </trkpt>
      <trkpt lat="41.4785870" lon="-4.9846470">
        <ele>674.7</ele>
        <time>2019-08-14T15:35:25Z</time>
      </trkpt>
      <trkpt lat="41.4786300" lon="-4.9846780">
        <ele>674.7</ele>
        <time>2019-08-14T15:35:26Z</time>
      </trkpt>
      <trkpt lat="41.4786740" lon="-4.9847100">
        <ele>674.6</ele>
        <time>2019-08-14T15:35:27Z</time>
      </trkpt>
      <trkpt lat="41.4787160" lon="-4.9847430">
        <ele>674.6</ele>
        <time>2019-08-14T15:35:28Z</time>
      </trkpt>
      <trkpt lat="41.4787600" lon="-4.9847780">
        <ele>674.6</ele>
        <time>2019-08-14T15:35:29Z</time>
      </trkpt>
      <trkpt lat="41.4788030" lon="-4.9848150">
        <ele>674.6</ele>
        <time>2019-08-14T15:35:30Z</time>
      </trkpt>
      <trkpt lat="41.4788470" lon="-4.9848500">
        <ele>674.6</ele>
        <time>2019-08-14T15:35:31Z</time>
      </trkpt>
      <trkpt lat="41.4788930" lon="-4.9848840">
        <ele>674.6</ele>
        <time>2019-08-14T15:35:32Z</time>
      </trkpt>
      <trkpt lat="41.4789390" lon="-4.9849200">
        <ele>674.6</ele>
        <time>2019-08-14T15:35:33Z</time>
      </trkpt>
      <trkpt lat="41.4789840" lon="-4.9849560">
        <ele>674.6</ele>
        <time>2019-08-14T15:35:34Z</time>
      </trkpt>
      <trkpt lat="41.4790260" lon="-4.9849910">
        <ele>674.6</ele>
        <time>2019-08-14T15:35:35Z</time>
      </trkpt>
      <trkpt lat="41.4790570" lon="-4.9850190">
        <ele>674.5</ele>
        <time>2019-08-14T15:35:36Z</time>
      </trkpt>
      <trkpt lat="41.4790630" lon="-4.9850340">
        <ele>674.4</ele>
        <time>2019-08-14T15:35:42Z</time>
      </trkpt>
      <trkpt lat="41.4791330" lon="-4.9851470">
        <ele>674.3</ele>
        <time>2019-08-14T15:36:32Z</time>
      </trkpt>
      <trkpt lat="41.4791730" lon="-4.9852030">
        <ele>674.2</ele>
        <time>2019-08-14T15:38:13Z</time>
      </trkpt>
      <trkpt lat="41.4792190" lon="-4.9852310">
        <ele>674.2</ele>
        <time>2019-08-14T15:38:15Z</time>
      </trkpt>
      <trkpt lat="41.4792450" lon="-4.9852440">
        <ele>674.1</ele>
        <time>2019-08-14T15:38:16Z</time>
      </trkpt>
      <trkpt lat="41.4792730" lon="-4.9852580">
        <ele>674.1</ele>
        <time>2019-08-14T15:38:17Z</time>
      </trkpt>
      <trkpt lat="41.4793000" lon="-4.9852750">
        <ele>674.1</ele>
        <time>2019-08-14T15:38:18Z</time>
      </trkpt>
      <trkpt lat="41.4793270" lon="-4.9852960">
        <ele>674.0</ele>
        <time>2019-08-14T15:38:19Z</time>
      </trkpt>
      <trkpt lat="41.4793560" lon="-4.9853200">
        <ele>674.0</ele>
        <time>2019-08-14T15:38:20Z</time>
      </trkpt>
      <trkpt lat="41.4793850" lon="-4.9853460">
        <ele>674.0</ele>
        <time>2019-08-14T15:38:21Z</time>
      </trkpt>
      <trkpt lat="41.4794170" lon="-4.9853720">
        <ele>674.0</ele>
        <time>2019-08-14T15:38:22Z</time>
      </trkpt>
      <trkpt lat="41.4794500" lon="-4.9854010">
        <ele>673.9</ele>
        <time>2019-08-14T15:38:23Z</time>
      </trkpt>
      <trkpt lat="41.4794840" lon="-4.9854310">
        <ele>673.9</ele>
        <time>2019-08-14T15:38:24Z</time>
      </trkpt>
      <trkpt lat="41.4795190" lon="-4.9854610">
        <ele>673.9</ele>
        <time>2019-08-14T15:38:25Z</time>
      </trkpt>
      <trkpt lat="41.4795540" lon="-4.9854900">
        <ele>673.8</ele>
        <time>2019-08-14T15:38:26Z</time>
      </trkpt>
      <trkpt lat="41.4795890" lon="-4.9855180">
        <ele>673.8</ele>
        <time>2019-08-14T15:38:27Z</time>
      </trkpt>
      <trkpt lat="41.4796220" lon="-4.9855440">
        <ele>673.8</ele>
        <time>2019-08-14T15:38:28Z</time>
      </trkpt>
      <trkpt lat="41.4796540" lon="-4.9855690">
        <ele>673.7</ele>
        <time>2019-08-14T15:38:29Z</time>
      </trkpt>
      <trkpt lat="41.4796860" lon="-4.9855930">
        <ele>673.7</ele>
        <time>2019-08-14T15:38:30Z</time>
      </trkpt>
      <trkpt lat="41.4797180" lon="-4.9856180">
        <ele>673.7</ele>
        <time>2019-08-14T15:38:31Z</time>
      </trkpt>
      <trkpt lat="41.4797500" lon="-4.9856450">
        <ele>673.7</ele>
        <time>2019-08-14T15:38:32Z</time>
      </trkpt>
      <trkpt lat="41.4797820" lon="-4.9856780">
        <ele>673.6</ele>
        <time>2019-08-14T15:38:33Z</time>
      </trkpt>
      <trkpt lat="41.4798140" lon="-4.9857110">
        <ele>673.6</ele>
        <time>2019-08-14T15:38:34Z</time>
      </trkpt>
      <trkpt lat="41.4798440" lon="-4.9857440">
        <ele>673.6</ele>
        <time>2019-08-14T15:38:35Z</time>
      </trkpt>
      <trkpt lat="41.4798750" lon="-4.9857710">
        <ele>673.6</ele>
        <time>2019-08-14T15:38:36Z</time>
      </trkpt>
      <trkpt lat="41.4799050" lon="-4.9857980">
        <ele>673.5</ele>
        <time>2019-08-14T15:38:37Z</time>
      </trkpt>
      <trkpt lat="41.4799340" lon="-4.9858260">
        <ele>673.5</ele>
        <time>2019-08-14T15:38:38Z</time>
      </trkpt>
      <trkpt lat="41.4799670" lon="-4.9858550">
        <ele>673.5</ele>
        <time>2019-08-14T15:38:39Z</time>
      </trkpt>
      <trkpt lat="41.4800010" lon="-4.9858860">
        <ele>673.5</ele>
        <time>2019-08-14T15:38:40Z</time>
      </trkpt>
      <trkpt lat="41.4800360" lon="-4.9859160">
        <ele>673.5</ele>
        <time>2019-08-14T15:38:41Z</time>
      </trkpt>
      <trkpt lat="41.4800730" lon="-4.9859470">
        <ele>673.5</ele>
        <time>2019-08-14T15:38:42Z</time>
      </trkpt>
      <trkpt lat="41.4801100" lon="-4.9859790">
        <ele>673.5</ele>
        <time>2019-08-14T15:38:43Z</time>
      </trkpt>
      <trkpt lat="41.4801450" lon="-4.9860120">
        <ele>673.5</ele>
        <time>2019-08-14T15:38:44Z</time>
      </trkpt>
      <trkpt lat="41.4801810" lon="-4.9860460">
        <ele>673.5</ele>
        <time>2019-08-14T15:38:45Z</time>
      </trkpt>
      <trkpt lat="41.4802190" lon="-4.9860790">
        <ele>673.5</ele>
        <time>2019-08-14T15:38:46Z</time>
      </trkpt>
      <trkpt lat="41.4802580" lon="-4.9861140">
        <ele>673.5</ele>
        <time>2019-08-14T15:38:47Z</time>
      </trkpt>
      <trkpt lat="41.4802970" lon="-4.9861500">
        <ele>673.5</ele>
        <time>2019-08-14T15:38:48Z</time>
      </trkpt>
      <trkpt lat="41.4803350" lon="-4.9861850">
        <ele>673.5</ele>
        <time>2019-08-14T15:38:49Z</time>
      </trkpt>
      <trkpt lat="41.4803760" lon="-4.9862200">
        <ele>673.5</ele>
        <time>2019-08-14T15:38:50Z</time>
      </trkpt>
      <trkpt lat="41.4804150" lon="-4.9862550">
        <ele>673.5</ele>
        <time>2019-08-14T15:38:51Z</time>
      </trkpt>
      <trkpt lat="41.4804560" lon="-4.9862910">
        <ele>673.5</ele>
        <time>2019-08-14T15:38:52Z</time>
      </trkpt>
      <trkpt lat="41.4804950" lon="-4.9863280">
        <ele>673.5</ele>
        <time>2019-08-14T15:38:53Z</time>
      </trkpt>
      <trkpt lat="41.4805350" lon="-4.9863650">
        <ele>673.4</ele>
        <time>2019-08-14T15:38:54Z</time>
      </trkpt>
      <trkpt lat="41.4805770" lon="-4.9864020">
        <ele>673.4</ele>
        <time>2019-08-14T15:38:55Z</time>
      </trkpt>
      <trkpt lat="41.4806160" lon="-4.9864420">
        <ele>673.4</ele>
        <time>2019-08-14T15:38:56Z</time>
      </trkpt>
      <trkpt lat="41.4806540" lon="-4.9864810">
        <ele>673.4</ele>
        <time>2019-08-14T15:38:57Z</time>
      </trkpt>
      <trkpt lat="41.4806930" lon="-4.9865160">
        <ele>673.4</ele>
        <time>2019-08-14T15:38:58Z</time>
      </trkpt>
      <trkpt lat="41.4807320" lon="-4.9865470">
        <ele>673.4</ele>
        <time>2019-08-14T15:38:59Z</time>
      </trkpt>
      <trkpt lat="41.4807730" lon="-4.9865790">
        <ele>673.4</ele>
        <time>2019-08-14T15:39:00Z</time>
      </trkpt>
      <trkpt lat="41.4808140" lon="-4.9866140">
        <ele>673.4</ele>
        <time>2019-08-14T15:39:01Z</time>
      </trkpt>
      <trkpt lat="41.4808540" lon="-4.9866510">
        <ele>673.3</ele>
        <time>2019-08-14T15:39:02Z</time>
      </trkpt>
      <trkpt lat="41.4808950" lon="-4.9866880">
        <ele>673.3</ele>
        <time>2019-08-14T15:39:03Z</time>
      </trkpt>
      <trkpt lat="41.4809340" lon="-4.9867260">
        <ele>673.3</ele>
        <time>2019-08-14T15:39:04Z</time>
      </trkpt>
      <trkpt lat="41.4809720" lon="-4.9867640">
        <ele>673.3</ele>
        <time>2019-08-14T15:39:05Z</time>
      </trkpt>
      <trkpt lat="41.4810080" lon="-4.9868000">
        <ele>673.3</ele>
        <time>2019-08-14T15:39:06Z</time>
      </trkpt>
      <trkpt lat="41.4810420" lon="-4.9868330">
        <ele>673.3</ele>
        <time>2019-08-14T15:39:07Z</time>
      </trkpt>
      <trkpt lat="41.4810770" lon="-4.9868650">
        <ele>673.3</ele>
        <time>2019-08-14T15:39:08Z</time>
      </trkpt>
      <trkpt lat="41.4811130" lon="-4.9868960">
        <ele>673.3</ele>
        <time>2019-08-14T15:39:09Z</time>
      </trkpt>
      <trkpt lat="41.4811480" lon="-4.9869260">
        <ele>673.3</ele>
        <time>2019-08-14T15:39:10Z</time>
      </trkpt>
      <trkpt lat="41.4811760" lon="-4.9869530">
        <ele>673.3</ele>
        <time>2019-08-14T15:39:11Z</time>
      </trkpt>
      <trkpt lat="41.4812120" lon="-4.9869850">
        <ele>673.3</ele>
        <time>2019-08-14T15:39:13Z</time>
      </trkpt>
      <trkpt lat="41.4812360" lon="-4.9870040">
        <ele>673.3</ele>
        <time>2019-08-14T15:39:16Z</time>
      </trkpt>
      <trkpt lat="41.4812680" lon="-4.9870340">
        <ele>673.3</ele>
        <time>2019-08-14T15:39:19Z</time>
      </trkpt>
      <trkpt lat="41.4813000" lon="-4.9870720">
        <ele>673.3</ele>
        <time>2019-08-14T15:39:21Z</time>
      </trkpt>
      <trkpt lat="41.4813230" lon="-4.9870920">
        <ele>673.3</ele>
        <time>2019-08-14T15:39:22Z</time>
      </trkpt>
      <trkpt lat="41.4813480" lon="-4.9871130">
        <ele>673.3</ele>
        <time>2019-08-14T15:39:23Z</time>
      </trkpt>
      <trkpt lat="41.4813770" lon="-4.9871340">
        <ele>673.3</ele>
        <time>2019-08-14T15:39:24Z</time>
      </trkpt>
      <trkpt lat="41.4814070" lon="-4.9871590">
        <ele>673.3</ele>
        <time>2019-08-14T15:39:25Z</time>
      </trkpt>
      <trkpt lat="41.4814390" lon="-4.9871850">
        <ele>673.4</ele>
        <time>2019-08-14T15:39:26Z</time>
      </trkpt>
      <trkpt lat="41.4814730" lon="-4.9872120">
        <ele>673.4</ele>
        <time>2019-08-14T15:39:27Z</time>
      </trkpt>
      <trkpt lat="41.4815070" lon="-4.9872430">
        <ele>673.4</ele>
        <time>2019-08-14T15:39:28Z</time>
      </trkpt>
      <trkpt lat="41.4815410" lon="-4.9872740">
        <ele>673.4</ele>
        <time>2019-08-14T15:39:29Z</time>
      </trkpt>
      <trkpt lat="41.4815760" lon="-4.9873040">
        <ele>673.4</ele>
        <time>2019-08-14T15:39:30Z</time>
      </trkpt>
      <trkpt lat="41.4816120" lon="-4.9873340">
        <ele>673.4</ele>
        <time>2019-08-14T15:39:31Z</time>
      </trkpt>
      <trkpt lat="41.4816500" lon="-4.9873630">
        <ele>673.4</ele>
        <time>2019-08-14T15:39:32Z</time>
      </trkpt>
      <trkpt lat="41.4816870" lon="-4.9873940">
        <ele>673.4</ele>
        <time>2019-08-14T15:39:33Z</time>
      </trkpt>
      <trkpt lat="41.4817260" lon="-4.9874260">
        <ele>673.3</ele>
        <time>2019-08-14T15:39:34Z</time>
      </trkpt>
      <trkpt lat="41.4817640" lon="-4.9874590">
        <ele>673.3</ele>
        <time>2019-08-14T15:39:35Z</time>
      </trkpt>
      <trkpt lat="41.4818010" lon="-4.9874900">
        <ele>673.3</ele>
        <time>2019-08-14T15:39:36Z</time>
      </trkpt>
      <trkpt lat="41.4818370" lon="-4.9875210">
        <ele>673.3</ele>
        <time>2019-08-14T15:39:37Z</time>
      </trkpt>
      <trkpt lat="41.4818750" lon="-4.9875530">
        <ele>673.3</ele>
        <time>2019-08-14T15:39:38Z</time>
      </trkpt>
      <trkpt lat="41.4819120" lon="-4.9875850">
        <ele>673.2</ele>
        <time>2019-08-14T15:39:39Z</time>
      </trkpt>
      <trkpt lat="41.4819510" lon="-4.9876180">
        <ele>673.2</ele>
        <time>2019-08-14T15:39:40Z</time>
      </trkpt>
      <trkpt lat="41.4819880" lon="-4.9876520">
        <ele>673.2</ele>
        <time>2019-08-14T15:39:41Z</time>
      </trkpt>
      <trkpt lat="41.4820270" lon="-4.9876860">
        <ele>673.2</ele>
        <time>2019-08-14T15:39:42Z</time>
      </trkpt>
      <trkpt lat="41.4820650" lon="-4.9877200">
        <ele>673.2</ele>
        <time>2019-08-14T15:39:43Z</time>
      </trkpt>
      <trkpt lat="41.4821040" lon="-4.9877540">
        <ele>673.1</ele>
        <time>2019-08-14T15:39:44Z</time>
      </trkpt>
      <trkpt lat="41.4821420" lon="-4.9877860">
        <ele>673.1</ele>
        <time>2019-08-14T15:39:45Z</time>
      </trkpt>
      <trkpt lat="41.4821790" lon="-4.9878190">
        <ele>673.1</ele>
        <time>2019-08-14T15:39:46Z</time>
      </trkpt>
      <trkpt lat="41.4822160" lon="-4.9878520">
        <ele>673.1</ele>
        <time>2019-08-14T15:39:47Z</time>
      </trkpt>
      <trkpt lat="41.4822530" lon="-4.9878840">
        <ele>673.1</ele>
        <time>2019-08-14T15:39:48Z</time>
      </trkpt>
      <trkpt lat="41.4822900" lon="-4.9879160">
        <ele>673.1</ele>
        <time>2019-08-14T15:39:49Z</time>
      </trkpt>
      <trkpt lat="41.4823280" lon="-4.9879450">
        <ele>673.1</ele>
        <time>2019-08-14T15:39:50Z</time>
      </trkpt>
      <trkpt lat="41.4823650" lon="-4.9879750">
        <ele>673.1</ele>
        <time>2019-08-14T15:39:51Z</time>
      </trkpt>
      <trkpt lat="41.4824030" lon="-4.9880060">
        <ele>673.2</ele>
        <time>2019-08-14T15:39:52Z</time>
      </trkpt>
      <trkpt lat="41.4824400" lon="-4.9880390">
        <ele>673.2</ele>
        <time>2019-08-14T15:39:53Z</time>
      </trkpt>
      <trkpt lat="41.4824780" lon="-4.9880710">
        <ele>673.2</ele>
        <time>2019-08-14T15:39:54Z</time>
      </trkpt>
      <trkpt lat="41.4825170" lon="-4.9881020">
        <ele>673.2</ele>
        <time>2019-08-14T15:39:55Z</time>
      </trkpt>
      <trkpt lat="41.4825570" lon="-4.9881350">
        <ele>673.2</ele>
        <time>2019-08-14T15:39:56Z</time>
      </trkpt>
      <trkpt lat="41.4825950" lon="-4.9881700">
        <ele>673.2</ele>
        <time>2019-08-14T15:39:57Z</time>
      </trkpt>
      <trkpt lat="41.4826360" lon="-4.9882040">
        <ele>673.3</ele>
        <time>2019-08-14T15:39:58Z</time>
      </trkpt>
      <trkpt lat="41.4826760" lon="-4.9882370">
        <ele>673.3</ele>
        <time>2019-08-14T15:39:59Z</time>
      </trkpt>
      <trkpt lat="41.4827160" lon="-4.9882720">
        <ele>673.3</ele>
        <time>2019-08-14T15:40:00Z</time>
      </trkpt>
      <trkpt lat="41.4827540" lon="-4.9883080">
        <ele>673.3</ele>
        <time>2019-08-14T15:40:01Z</time>
      </trkpt>
      <trkpt lat="41.4827910" lon="-4.9883420">
        <ele>673.3</ele>
        <time>2019-08-14T15:40:02Z</time>
      </trkpt>
      <trkpt lat="41.4828270" lon="-4.9883740">
        <ele>673.3</ele>
        <time>2019-08-14T15:40:03Z</time>
      </trkpt>
      <trkpt lat="41.4828650" lon="-4.9884030">
        <ele>673.3</ele>
        <time>2019-08-14T15:40:04Z</time>
      </trkpt>
      <trkpt lat="41.4828990" lon="-4.9884340">
        <ele>673.3</ele>
        <time>2019-08-14T15:40:05Z</time>
      </trkpt>
      <trkpt lat="41.4829320" lon="-4.9884640">
        <ele>673.3</ele>
        <time>2019-08-14T15:40:06Z</time>
      </trkpt>
      <trkpt lat="41.4829650" lon="-4.9884920">
        <ele>673.3</ele>
        <time>2019-08-14T15:40:07Z</time>
      </trkpt>
      <trkpt lat="41.4829970" lon="-4.9885190">
        <ele>673.3</ele>
        <time>2019-08-14T15:40:08Z</time>
      </trkpt>
      <trkpt lat="41.4830290" lon="-4.9885450">
        <ele>673.3</ele>
        <time>2019-08-14T15:40:09Z</time>
      </trkpt>
      <trkpt lat="41.4830580" lon="-4.9885670">
        <ele>673.3</ele>
        <time>2019-08-14T15:40:10Z</time>
      </trkpt>
      <trkpt lat="41.4830890" lon="-4.9885820">
        <ele>673.3</ele>
        <time>2019-08-14T15:40:11Z</time>
      </trkpt>
      <trkpt lat="41.4831190" lon="-4.9885850">
        <ele>673.2</ele>
        <time>2019-08-14T15:40:12Z</time>
      </trkpt>
      <trkpt lat="41.4831500" lon="-4.9885720">
        <ele>673.2</ele>
        <time>2019-08-14T15:40:13Z</time>
      </trkpt>
      <trkpt lat="41.4831790" lon="-4.9885470">
        <ele>673.2</ele>
        <time>2019-08-14T15:40:14Z</time>
      </trkpt>
      <trkpt lat="41.4832080" lon="-4.9885160">
        <ele>673.1</ele>
        <time>2019-08-14T15:40:15Z</time>
      </trkpt>
      <trkpt lat="41.4832390" lon="-4.9884840">
        <ele>673.1</ele>
        <time>2019-08-14T15:40:16Z</time>
      </trkpt>
      <trkpt lat="41.4832720" lon="-4.9884500">
        <ele>673.1</ele>
        <time>2019-08-14T15:40:17Z</time>
      </trkpt>
      <trkpt lat="41.4833050" lon="-4.9884140">
        <ele>673.1</ele>
        <time>2019-08-14T15:40:18Z</time>
      </trkpt>
      <trkpt lat="41.4833350" lon="-4.9883760">
        <ele>673.1</ele>
        <time>2019-08-14T15:40:19Z</time>
      </trkpt>
      <trkpt lat="41.4833650" lon="-4.9883360">
        <ele>673.0</ele>
        <time>2019-08-14T15:40:20Z</time>
      </trkpt>
      <trkpt lat="41.4833970" lon="-4.9882940">
        <ele>673.0</ele>
        <time>2019-08-14T15:40:21Z</time>
      </trkpt>
      <trkpt lat="41.4834290" lon="-4.9882550">
        <ele>673.0</ele>
        <time>2019-08-14T15:40:22Z</time>
      </trkpt>
      <trkpt lat="41.4834610" lon="-4.9882180">
        <ele>673.0</ele>
        <time>2019-08-14T15:40:23Z</time>
      </trkpt>
      <trkpt lat="41.4834950" lon="-4.9881830">
        <ele>672.9</ele>
        <time>2019-08-14T15:40:24Z</time>
      </trkpt>
      <trkpt lat="41.4835300" lon="-4.9881470">
        <ele>672.9</ele>
        <time>2019-08-14T15:40:25Z</time>
      </trkpt>
      <trkpt lat="41.4835660" lon="-4.9881110">
        <ele>672.8</ele>
        <time>2019-08-14T15:40:26Z</time>
      </trkpt>
      <trkpt lat="41.4836020" lon="-4.9880710">
        <ele>672.8</ele>
        <time>2019-08-14T15:40:27Z</time>
      </trkpt>
      <trkpt lat="41.4836380" lon="-4.9880280">
        <ele>672.8</ele>
        <time>2019-08-14T15:40:28Z</time>
      </trkpt>
      <trkpt lat="41.4836760" lon="-4.9879820">
        <ele>672.7</ele>
        <time>2019-08-14T15:40:29Z</time>
      </trkpt>
      <trkpt lat="41.4837130" lon="-4.9879370">
        <ele>672.7</ele>
        <time>2019-08-14T15:40:30Z</time>
      </trkpt>
      <trkpt lat="41.4837530" lon="-4.9878940">
        <ele>672.6</ele>
        <time>2019-08-14T15:40:31Z</time>
      </trkpt>
      <trkpt lat="41.4837920" lon="-4.9878520">
        <ele>672.6</ele>
        <time>2019-08-14T15:40:32Z</time>
      </trkpt>
      <trkpt lat="41.4838300" lon="-4.9878110">
        <ele>672.6</ele>
        <time>2019-08-14T15:40:33Z</time>
      </trkpt>
      <trkpt lat="41.4838670" lon="-4.9877710">
        <ele>672.5</ele>
        <time>2019-08-14T15:40:34Z</time>
      </trkpt>
      <trkpt lat="41.4839020" lon="-4.9877330">
        <ele>672.5</ele>
        <time>2019-08-14T15:40:35Z</time>
      </trkpt>
      <trkpt lat="41.4839390" lon="-4.9876940">
        <ele>672.5</ele>
        <time>2019-08-14T15:40:36Z</time>
      </trkpt>
      <trkpt lat="41.4839750" lon="-4.9876560">
        <ele>672.5</ele>
        <time>2019-08-14T15:40:37Z</time>
      </trkpt>
      <trkpt lat="41.4840100" lon="-4.9876190">
        <ele>672.5</ele>
        <time>2019-08-14T15:40:38Z</time>
      </trkpt>
      <trkpt lat="41.4840450" lon="-4.9875820">
        <ele>672.5</ele>
        <time>2019-08-14T15:40:39Z</time>
      </trkpt>
      <trkpt lat="41.4840780" lon="-4.9875480">
        <ele>672.5</ele>
        <time>2019-08-14T15:40:40Z</time>
      </trkpt>
      <trkpt lat="41.4841110" lon="-4.9875140">
        <ele>672.5</ele>
        <time>2019-08-14T15:40:41Z</time>
      </trkpt>
      <trkpt lat="41.4841400" lon="-4.9874810">
        <ele>672.5</ele>
        <time>2019-08-14T15:40:42Z</time>
      </trkpt>
      <trkpt lat="41.4841710" lon="-4.9874460">
        <ele>672.5</ele>
        <time>2019-08-14T15:40:43Z</time>
      </trkpt>
      <trkpt lat="41.4842050" lon="-4.9874100">
        <ele>672.5</ele>
        <time>2019-08-14T15:40:44Z</time>
      </trkpt>
      <trkpt lat="41.4842410" lon="-4.9873700">
        <ele>672.5</ele>
        <time>2019-08-14T15:40:45Z</time>
      </trkpt>
      <trkpt lat="41.4842770" lon="-4.9873300">
        <ele>672.5</ele>
        <time>2019-08-14T15:40:46Z</time>
      </trkpt>
      <trkpt lat="41.4843100" lon="-4.9872890">
        <ele>672.5</ele>
        <time>2019-08-14T15:40:47Z</time>
      </trkpt>
      <trkpt lat="41.4843460" lon="-4.9872490">
        <ele>672.5</ele>
        <time>2019-08-14T15:40:48Z</time>
      </trkpt>
      <trkpt lat="41.4843810" lon="-4.9872070">
        <ele>672.5</ele>
        <time>2019-08-14T15:40:49Z</time>
      </trkpt>
      <trkpt lat="41.4844180" lon="-4.9871640">
        <ele>672.5</ele>
        <time>2019-08-14T15:40:50Z</time>
      </trkpt>
      <trkpt lat="41.4844570" lon="-4.9871220">
        <ele>672.5</ele>
        <time>2019-08-14T15:40:51Z</time>
      </trkpt>
      <trkpt lat="41.4844950" lon="-4.9870810">
        <ele>672.5</ele>
        <time>2019-08-14T15:40:52Z</time>
      </trkpt>
      <trkpt lat="41.4845340" lon="-4.9870410">
        <ele>672.6</ele>
        <time>2019-08-14T15:40:53Z</time>
      </trkpt>
      <trkpt lat="41.4845740" lon="-4.9870040">
        <ele>672.6</ele>
        <time>2019-08-14T15:40:54Z</time>
      </trkpt>
      <trkpt lat="41.4846180" lon="-4.9869660">
        <ele>672.6</ele>
        <time>2019-08-14T15:40:55Z</time>
      </trkpt>
      <trkpt lat="41.4846620" lon="-4.9869270">
        <ele>672.6</ele>
        <time>2019-08-14T15:40:56Z</time>
      </trkpt>
      <trkpt lat="41.4847040" lon="-4.9868870">
        <ele>672.6</ele>
        <time>2019-08-14T15:40:57Z</time>
      </trkpt>
      <trkpt lat="41.4847470" lon="-4.9868490">
        <ele>672.6</ele>
        <time>2019-08-14T15:40:58Z</time>
      </trkpt>
      <trkpt lat="41.4847910" lon="-4.9868120">
        <ele>672.6</ele>
        <time>2019-08-14T15:40:59Z</time>
      </trkpt>
      <trkpt lat="41.4848360" lon="-4.9867720">
        <ele>672.6</ele>
        <time>2019-08-14T15:41:00Z</time>
      </trkpt>
      <trkpt lat="41.4848800" lon="-4.9867310">
        <ele>672.5</ele>
        <time>2019-08-14T15:41:01Z</time>
      </trkpt>
      <trkpt lat="41.4849250" lon="-4.9866890">
        <ele>672.5</ele>
        <time>2019-08-14T15:41:02Z</time>
      </trkpt>
      <trkpt lat="41.4849690" lon="-4.9866470">
        <ele>672.5</ele>
        <time>2019-08-14T15:41:03Z</time>
      </trkpt>
      <trkpt lat="41.4850120" lon="-4.9866060">
        <ele>672.5</ele>
        <time>2019-08-14T15:41:04Z</time>
      </trkpt>
      <trkpt lat="41.4850550" lon="-4.9865660">
        <ele>672.4</ele>
        <time>2019-08-14T15:41:05Z</time>
      </trkpt>
      <trkpt lat="41.4850990" lon="-4.9865260">
        <ele>672.4</ele>
        <time>2019-08-14T15:41:06Z</time>
      </trkpt>
      <trkpt lat="41.4851440" lon="-4.9864860">
        <ele>672.4</ele>
        <time>2019-08-14T15:41:07Z</time>
      </trkpt>
      <trkpt lat="41.4851880" lon="-4.9864440">
        <ele>672.4</ele>
        <time>2019-08-14T15:41:08Z</time>
      </trkpt>
      <trkpt lat="41.4852310" lon="-4.9864030">
        <ele>672.3</ele>
        <time>2019-08-14T15:41:09Z</time>
      </trkpt>
      <trkpt lat="41.4852750" lon="-4.9863610">
        <ele>672.3</ele>
        <time>2019-08-14T15:41:10Z</time>
      </trkpt>
      <trkpt lat="41.4853200" lon="-4.9863200">
        <ele>672.3</ele>
        <time>2019-08-14T15:41:11Z</time>
      </trkpt>
      <trkpt lat="41.4853640" lon="-4.9862780">
        <ele>672.3</ele>
        <time>2019-08-14T15:41:12Z</time>
      </trkpt>
      <trkpt lat="41.4854100" lon="-4.9862380">
        <ele>672.2</ele>
        <time>2019-08-14T15:41:13Z</time>
      </trkpt>
      <trkpt lat="41.4854570" lon="-4.9861970">
        <ele>672.2</ele>
        <time>2019-08-14T15:41:14Z</time>
      </trkpt>
      <trkpt lat="41.4855040" lon="-4.9861580">
        <ele>672.2</ele>
        <time>2019-08-14T15:41:15Z</time>
      </trkpt>
      <trkpt lat="41.4855530" lon="-4.9861160">
        <ele>672.1</ele>
        <time>2019-08-14T15:41:16Z</time>
      </trkpt>
      <trkpt lat="41.4856010" lon="-4.9860760">
        <ele>672.1</ele>
        <time>2019-08-14T15:41:17Z</time>
      </trkpt>
      <trkpt lat="41.4856470" lon="-4.9860370">
        <ele>672.0</ele>
        <time>2019-08-14T15:41:18Z</time>
      </trkpt>
      <trkpt lat="41.4856930" lon="-4.9859990">
        <ele>672.0</ele>
        <time>2019-08-14T15:41:19Z</time>
      </trkpt>
      <trkpt lat="41.4857380" lon="-4.9859600">
        <ele>671.9</ele>
        <time>2019-08-14T15:41:20Z</time>
      </trkpt>
      <trkpt lat="41.4857840" lon="-4.9859210">
        <ele>671.8</ele>
        <time>2019-08-14T15:41:21Z</time>
      </trkpt>
      <trkpt lat="41.4858280" lon="-4.9858820">
        <ele>671.7</ele>
        <time>2019-08-14T15:41:22Z</time>
      </trkpt>
      <trkpt lat="41.4858720" lon="-4.9858430">
        <ele>671.6</ele>
        <time>2019-08-14T15:41:23Z</time>
      </trkpt>
      <trkpt lat="41.4859140" lon="-4.9858070">
        <ele>671.6</ele>
        <time>2019-08-14T15:41:24Z</time>
      </trkpt>
      <trkpt lat="41.4859540" lon="-4.9857740">
        <ele>671.5</ele>
        <time>2019-08-14T15:41:25Z</time>
      </trkpt>
      <trkpt lat="41.4859910" lon="-4.9857480">
        <ele>671.5</ele>
        <time>2019-08-14T15:41:26Z</time>
      </trkpt>
      <trkpt lat="41.4860260" lon="-4.9857350">
        <ele>671.4</ele>
        <time>2019-08-14T15:41:27Z</time>
      </trkpt>
      <trkpt lat="41.4860620" lon="-4.9857400">
        <ele>671.3</ele>
        <time>2019-08-14T15:41:28Z</time>
      </trkpt>
      <trkpt lat="41.4860970" lon="-4.9857630">
        <ele>671.3</ele>
        <time>2019-08-14T15:41:29Z</time>
      </trkpt>
      <trkpt lat="41.4861290" lon="-4.9858020">
        <ele>671.3</ele>
        <time>2019-08-14T15:41:30Z</time>
      </trkpt>
      <trkpt lat="41.4861520" lon="-4.9858510">
        <ele>671.2</ele>
        <time>2019-08-14T15:41:31Z</time>
      </trkpt>
      <trkpt lat="41.4861720" lon="-4.9859030">
        <ele>671.2</ele>
        <time>2019-08-14T15:41:32Z</time>
      </trkpt>
      <trkpt lat="41.4861910" lon="-4.9859510">
        <ele>671.1</ele>
        <time>2019-08-14T15:41:33Z</time>
      </trkpt>
      <trkpt lat="41.4862110" lon="-4.9860000">
        <ele>671.1</ele>
        <time>2019-08-14T15:41:34Z</time>
      </trkpt>
      <trkpt lat="41.4862230" lon="-4.9860400">
        <ele>671.1</ele>
        <time>2019-08-14T15:41:35Z</time>
      </trkpt>
      <trkpt lat="41.4862410" lon="-4.9860830">
        <ele>671.0</ele>
        <time>2019-08-14T15:41:36Z</time>
      </trkpt>
      <trkpt lat="41.4862600" lon="-4.9861360">
        <ele>671.0</ele>
        <time>2019-08-14T15:41:37Z</time>
      </trkpt>
      <trkpt lat="41.4862800" lon="-4.9861940">
        <ele>670.9</ele>
        <time>2019-08-14T15:41:38Z</time>
      </trkpt>
      <trkpt lat="41.4863060" lon="-4.9862610">
        <ele>670.9</ele>
        <time>2019-08-14T15:41:39Z</time>
      </trkpt>
      <trkpt lat="41.4863170" lon="-4.9863160">
        <ele>670.8</ele>
        <time>2019-08-14T15:41:40Z</time>
      </trkpt>
      <trkpt lat="41.4863180" lon="-4.9863740">
        <ele>670.8</ele>
        <time>2019-08-14T15:41:41Z</time>
      </trkpt>
      <trkpt lat="41.4863230" lon="-4.9864220">
        <ele>670.7</ele>
        <time>2019-08-14T15:41:42Z</time>
      </trkpt>
      <trkpt lat="41.4863290" lon="-4.9864640">
        <ele>670.7</ele>
        <time>2019-08-14T15:41:43Z</time>
      </trkpt>
      <trkpt lat="41.4863230" lon="-4.9865060">
        <ele>670.7</ele>
        <time>2019-08-14T15:41:44Z</time>
      </trkpt>
      <trkpt lat="41.4863080" lon="-4.9865460">
        <ele>670.7</ele>
        <time>2019-08-14T15:41:45Z</time>
      </trkpt>
      <trkpt lat="41.4862850" lon="-4.9865790">
        <ele>670.7</ele>
        <time>2019-08-14T15:41:46Z</time>
      </trkpt>
      <trkpt lat="41.4862540" lon="-4.9866040">
        <ele>670.7</ele>
        <time>2019-08-14T15:41:47Z</time>
      </trkpt>
      <trkpt lat="41.4862190" lon="-4.9866260">
        <ele>670.7</ele>
        <time>2019-08-14T15:41:48Z</time>
      </trkpt>
      <trkpt lat="41.4861820" lon="-4.9866470">
        <ele>670.7</ele>
        <time>2019-08-14T15:41:49Z</time>
      </trkpt>
      <trkpt lat="41.4861470" lon="-4.9866670">
        <ele>670.7</ele>
        <time>2019-08-14T15:41:50Z</time>
      </trkpt>
      <trkpt lat="41.4861120" lon="-4.9866910">
        <ele>670.7</ele>
        <time>2019-08-14T15:41:51Z</time>
      </trkpt>
      <trkpt lat="41.4860750" lon="-4.9867160">
        <ele>670.7</ele>
        <time>2019-08-14T15:41:52Z</time>
      </trkpt>
      <trkpt lat="41.4860390" lon="-4.9867410">
        <ele>670.7</ele>
        <time>2019-08-14T15:41:53Z</time>
      </trkpt>
      <trkpt lat="41.4860030" lon="-4.9867640">
        <ele>670.7</ele>
        <time>2019-08-14T15:41:54Z</time>
      </trkpt>
      <trkpt lat="41.4859650" lon="-4.9867840">
        <ele>670.7</ele>
        <time>2019-08-14T15:41:55Z</time>
      </trkpt>
      <trkpt lat="41.4859310" lon="-4.9868070">
        <ele>670.7</ele>
        <time>2019-08-14T15:41:56Z</time>
      </trkpt>
      <trkpt lat="41.4858960" lon="-4.9868320">
        <ele>670.7</ele>
        <time>2019-08-14T15:41:57Z</time>
      </trkpt>
      <trkpt lat="41.4858610" lon="-4.9868580">
        <ele>670.7</ele>
        <time>2019-08-14T15:41:58Z</time>
      </trkpt>
      <trkpt lat="41.4858260" lon="-4.9868830">
        <ele>670.7</ele>
        <time>2019-08-14T15:41:59Z</time>
      </trkpt>
      <trkpt lat="41.4857920" lon="-4.9869090">
        <ele>670.7</ele>
        <time>2019-08-14T15:42:00Z</time>
      </trkpt>
      <trkpt lat="41.4857560" lon="-4.9869350">
        <ele>670.7</ele>
        <time>2019-08-14T15:42:01Z</time>
      </trkpt>
      <trkpt lat="41.4857210" lon="-4.9869610">
        <ele>670.7</ele>
        <time>2019-08-14T15:42:02Z</time>
      </trkpt>
      <trkpt lat="41.4856850" lon="-4.9869880">
        <ele>670.7</ele>
        <time>2019-08-14T15:42:03Z</time>
      </trkpt>
      <trkpt lat="41.4856480" lon="-4.9870170">
        <ele>670.7</ele>
        <time>2019-08-14T15:42:04Z</time>
      </trkpt>
      <trkpt lat="41.4856110" lon="-4.9870450">
        <ele>670.7</ele>
        <time>2019-08-14T15:42:05Z</time>
      </trkpt>
      <trkpt lat="41.4855740" lon="-4.9870740">
        <ele>670.7</ele>
        <time>2019-08-14T15:42:06Z</time>
      </trkpt>
      <trkpt lat="41.4855360" lon="-4.9871020">
        <ele>670.7</ele>
        <time>2019-08-14T15:42:07Z</time>
      </trkpt>
      <trkpt lat="41.4854990" lon="-4.9871320">
        <ele>670.7</ele>
        <time>2019-08-14T15:42:08Z</time>
      </trkpt>
      <trkpt lat="41.4854620" lon="-4.9871630">
        <ele>670.7</ele>
        <time>2019-08-14T15:42:09Z</time>
      </trkpt>
      <trkpt lat="41.4854230" lon="-4.9871930">
        <ele>670.7</ele>
        <time>2019-08-14T15:42:10Z</time>
      </trkpt>
      <trkpt lat="41.4853840" lon="-4.9872230">
        <ele>670.7</ele>
        <time>2019-08-14T15:42:11Z</time>
      </trkpt>
      <trkpt lat="41.4853440" lon="-4.9872520">
        <ele>670.7</ele>
        <time>2019-08-14T15:42:12Z</time>
      </trkpt>
      <trkpt lat="41.4853040" lon="-4.9872840">
        <ele>670.7</ele>
        <time>2019-08-14T15:42:13Z</time>
      </trkpt>
      <trkpt lat="41.4852640" lon="-4.9873180">
        <ele>670.7</ele>
        <time>2019-08-14T15:42:14Z</time>
      </trkpt>
      <trkpt lat="41.4852240" lon="-4.9873510">
        <ele>670.7</ele>
        <time>2019-08-14T15:42:15Z</time>
      </trkpt>
      <trkpt lat="41.4851820" lon="-4.9873850">
        <ele>670.7</ele>
        <time>2019-08-14T15:42:16Z</time>
      </trkpt>
      <trkpt lat="41.4851410" lon="-4.9874200">
        <ele>670.7</ele>
        <time>2019-08-14T15:42:17Z</time>
      </trkpt>
      <trkpt lat="41.4850990" lon="-4.9874560">
        <ele>670.7</ele>
        <time>2019-08-14T15:42:18Z</time>
      </trkpt>
      <trkpt lat="41.4850600" lon="-4.9874940">
        <ele>670.7</ele>
        <time>2019-08-14T15:42:19Z</time>
      </trkpt>
      <trkpt lat="41.4850210" lon="-4.9875320">
        <ele>670.7</ele>
        <time>2019-08-14T15:42:20Z</time>
      </trkpt>
      <trkpt lat="41.4849850" lon="-4.9875710">
        <ele>670.7</ele>
        <time>2019-08-14T15:42:21Z</time>
      </trkpt>
      <trkpt lat="41.4849550" lon="-4.9876120">
        <ele>670.7</ele>
        <time>2019-08-14T15:42:22Z</time>
      </trkpt>
      <trkpt lat="41.4849290" lon="-4.9876540">
        <ele>670.8</ele>
        <time>2019-08-14T15:42:23Z</time>
      </trkpt>
      <trkpt lat="41.4849050" lon="-4.9876980">
        <ele>670.9</ele>
        <time>2019-08-14T15:42:24Z</time>
      </trkpt>
      <trkpt lat="41.4848850" lon="-4.9877500">
        <ele>671.0</ele>
        <time>2019-08-14T15:42:25Z</time>
      </trkpt>
      <trkpt lat="41.4848690" lon="-4.9878070">
        <ele>671.0</ele>
        <time>2019-08-14T15:42:26Z</time>
      </trkpt>
      <trkpt lat="41.4848560" lon="-4.9878650">
        <ele>671.1</ele>
        <time>2019-08-14T15:42:27Z</time>
      </trkpt>
      <trkpt lat="41.4848440" lon="-4.9879240">
        <ele>671.1</ele>
        <time>2019-08-14T15:42:28Z</time>
      </trkpt>
      <trkpt lat="41.4848320" lon="-4.9879840">
        <ele>671.2</ele>
        <time>2019-08-14T15:42:29Z</time>
      </trkpt>
      <trkpt lat="41.4848200" lon="-4.9880410">
        <ele>671.2</ele>
        <time>2019-08-14T15:42:30Z</time>
      </trkpt>
      <trkpt lat="41.4848070" lon="-4.9880960">
        <ele>671.3</ele>
        <time>2019-08-14T15:42:31Z</time>
      </trkpt>
      <trkpt lat="41.4847960" lon="-4.9881490">
        <ele>671.3</ele>
        <time>2019-08-14T15:42:32Z</time>
      </trkpt>
      <trkpt lat="41.4847840" lon="-4.9882020">
        <ele>671.4</ele>
        <time>2019-08-14T15:42:33Z</time>
      </trkpt>
      <trkpt lat="41.4847710" lon="-4.9882570">
        <ele>671.4</ele>
        <time>2019-08-14T15:42:34Z</time>
      </trkpt>
      <trkpt lat="41.4847580" lon="-4.9883140">
        <ele>671.4</ele>
        <time>2019-08-14T15:42:35Z</time>
      </trkpt>
      <trkpt lat="41.4847450" lon="-4.9883720">
        <ele>671.5</ele>
        <time>2019-08-14T15:42:36Z</time>
      </trkpt>
      <trkpt lat="41.4847330" lon="-4.9884310">
        <ele>671.6</ele>
        <time>2019-08-14T15:42:37Z</time>
      </trkpt>
      <trkpt lat="41.4847200" lon="-4.9884880">
        <ele>671.6</ele>
        <time>2019-08-14T15:42:38Z</time>
      </trkpt>
      <trkpt lat="41.4847070" lon="-4.9885450">
        <ele>671.7</ele>
        <time>2019-08-14T15:42:39Z</time>
      </trkpt>
      <trkpt lat="41.4846950" lon="-4.9886020">
        <ele>671.7</ele>
        <time>2019-08-14T15:42:40Z</time>
      </trkpt>
      <trkpt lat="41.4846800" lon="-4.9886590">
        <ele>671.7</ele>
        <time>2019-08-14T15:42:41Z</time>
      </trkpt>
      <trkpt lat="41.4846630" lon="-4.9887150">
        <ele>671.7</ele>
        <time>2019-08-14T15:42:42Z</time>
      </trkpt>
      <trkpt lat="41.4846460" lon="-4.9887740">
        <ele>671.8</ele>
        <time>2019-08-14T15:42:43Z</time>
      </trkpt>
      <trkpt lat="41.4846320" lon="-4.9888320">
        <ele>671.8</ele>
        <time>2019-08-14T15:42:44Z</time>
      </trkpt>
      <trkpt lat="41.4846190" lon="-4.9888900">
        <ele>671.8</ele>
        <time>2019-08-14T15:42:45Z</time>
      </trkpt>
      <trkpt lat="41.4846040" lon="-4.9889500">
        <ele>671.8</ele>
        <time>2019-08-14T15:42:46Z</time>
      </trkpt>
      <trkpt lat="41.4845910" lon="-4.9890100">
        <ele>671.8</ele>
        <time>2019-08-14T15:42:47Z</time>
      </trkpt>
      <trkpt lat="41.4845790" lon="-4.9890700">
        <ele>671.8</ele>
        <time>2019-08-14T15:42:48Z</time>
      </trkpt>
      <trkpt lat="41.4845650" lon="-4.9891310">
        <ele>671.8</ele>
        <time>2019-08-14T15:42:49Z</time>
      </trkpt>
      <trkpt lat="41.4845490" lon="-4.9891910">
        <ele>671.9</ele>
        <time>2019-08-14T15:42:50Z</time>
      </trkpt>
      <trkpt lat="41.4845350" lon="-4.9892530">
        <ele>671.9</ele>
        <time>2019-08-14T15:42:51Z</time>
      </trkpt>
      <trkpt lat="41.4845190" lon="-4.9893140">
        <ele>672.0</ele>
        <time>2019-08-14T15:42:52Z</time>
      </trkpt>
      <trkpt lat="41.4844980" lon="-4.9893720">
        <ele>672.1</ele>
        <time>2019-08-14T15:42:53Z</time>
      </trkpt>
      <trkpt lat="41.4844760" lon="-4.9894250">
        <ele>672.2</ele>
        <time>2019-08-14T15:42:54Z</time>
      </trkpt>
      <trkpt lat="41.4844540" lon="-4.9894750">
        <ele>672.3</ele>
        <time>2019-08-14T15:42:55Z</time>
      </trkpt>
      <trkpt lat="41.4844300" lon="-4.9895220">
        <ele>672.4</ele>
        <time>2019-08-14T15:42:56Z</time>
      </trkpt>
      <trkpt lat="41.4844070" lon="-4.9895670">
        <ele>672.5</ele>
        <time>2019-08-14T15:42:57Z</time>
      </trkpt>
      <trkpt lat="41.4843880" lon="-4.9896070">
        <ele>672.5</ele>
        <time>2019-08-14T15:42:58Z</time>
      </trkpt>
      <trkpt lat="41.4843780" lon="-4.9896490">
        <ele>672.9</ele>
        <time>2019-08-14T15:42:59Z</time>
      </trkpt>
      <trkpt lat="41.4843830" lon="-4.9896850">
        <ele>672.9</ele>
        <time>2019-08-14T15:43:00Z</time>
      </trkpt>
      <trkpt lat="41.4844040" lon="-4.9897130">
        <ele>672.9</ele>
        <time>2019-08-14T15:43:01Z</time>
      </trkpt>
      <trkpt lat="41.4844350" lon="-4.9897330">
        <ele>672.9</ele>
        <time>2019-08-14T15:43:02Z</time>
      </trkpt>
      <trkpt lat="41.4844710" lon="-4.9897540">
        <ele>672.9</ele>
        <time>2019-08-14T15:43:03Z</time>
      </trkpt>
      <trkpt lat="41.4845090" lon="-4.9897770">
        <ele>672.9</ele>
        <time>2019-08-14T15:43:04Z</time>
      </trkpt>
      <trkpt lat="41.4845480" lon="-4.9898060">
        <ele>672.9</ele>
        <time>2019-08-14T15:43:05Z</time>
      </trkpt>
      <trkpt lat="41.4845890" lon="-4.9898350">
        <ele>672.9</ele>
        <time>2019-08-14T15:43:06Z</time>
      </trkpt>
      <trkpt lat="41.4846310" lon="-4.9898650">
        <ele>672.9</ele>
        <time>2019-08-14T15:43:07Z</time>
      </trkpt>
      <trkpt lat="41.4846740" lon="-4.9898950">
        <ele>672.9</ele>
        <time>2019-08-14T15:43:08Z</time>
      </trkpt>
      <trkpt lat="41.4847180" lon="-4.9899260">
        <ele>672.9</ele>
        <time>2019-08-14T15:43:09Z</time>
      </trkpt>
      <trkpt lat="41.4847610" lon="-4.9899570">
        <ele>672.9</ele>
        <time>2019-08-14T15:43:10Z</time>
      </trkpt>
      <trkpt lat="41.4848020" lon="-4.9899870">
        <ele>672.9</ele>
        <time>2019-08-14T15:43:11Z</time>
      </trkpt>
      <trkpt lat="41.4848410" lon="-4.9900150">
        <ele>672.9</ele>
        <time>2019-08-14T15:43:12Z</time>
      </trkpt>
      <trkpt lat="41.4848800" lon="-4.9900410">
        <ele>672.9</ele>
        <time>2019-08-14T15:43:13Z</time>
      </trkpt>
      <trkpt lat="41.4849160" lon="-4.9900690">
        <ele>672.9</ele>
        <time>2019-08-14T15:43:14Z</time>
      </trkpt>
      <trkpt lat="41.4849520" lon="-4.9900960">
        <ele>672.9</ele>
        <time>2019-08-14T15:43:15Z</time>
      </trkpt>
      <trkpt lat="41.4849880" lon="-4.9901240">
        <ele>672.9</ele>
        <time>2019-08-14T15:43:16Z</time>
      </trkpt>
      <trkpt lat="41.4850250" lon="-4.9901530">
        <ele>672.9</ele>
        <time>2019-08-14T15:43:17Z</time>
      </trkpt>
      <trkpt lat="41.4850640" lon="-4.9901830">
        <ele>672.9</ele>
        <time>2019-08-14T15:43:18Z</time>
      </trkpt>
      <trkpt lat="41.4851030" lon="-4.9902140">
        <ele>672.9</ele>
        <time>2019-08-14T15:43:19Z</time>
      </trkpt>
      <trkpt lat="41.4851410" lon="-4.9902440">
        <ele>672.9</ele>
        <time>2019-08-14T15:43:20Z</time>
      </trkpt>
      <trkpt lat="41.4851790" lon="-4.9902710">
        <ele>672.9</ele>
        <time>2019-08-14T15:43:21Z</time>
      </trkpt>
      <trkpt lat="41.4852160" lon="-4.9903000">
        <ele>672.9</ele>
        <time>2019-08-14T15:43:22Z</time>
      </trkpt>
      <trkpt lat="41.4852510" lon="-4.9903280">
        <ele>672.9</ele>
        <time>2019-08-14T15:43:23Z</time>
      </trkpt>
      <trkpt lat="41.4852860" lon="-4.9903550">
        <ele>672.9</ele>
        <time>2019-08-14T15:43:24Z</time>
      </trkpt>
      <trkpt lat="41.4853190" lon="-4.9903810">
        <ele>672.9</ele>
        <time>2019-08-14T15:43:25Z</time>
      </trkpt>
      <trkpt lat="41.4853520" lon="-4.9904060">
        <ele>672.9</ele>
        <time>2019-08-14T15:43:26Z</time>
      </trkpt>
      <trkpt lat="41.4853850" lon="-4.9904310">
        <ele>672.8</ele>
        <time>2019-08-14T15:43:27Z</time>
      </trkpt>
      <trkpt lat="41.4854150" lon="-4.9904560">
        <ele>672.8</ele>
        <time>2019-08-14T15:43:28Z</time>
      </trkpt>
      <trkpt lat="41.4854470" lon="-4.9904840">
        <ele>672.8</ele>
        <time>2019-08-14T15:43:29Z</time>
      </trkpt>
      <trkpt lat="41.4854830" lon="-4.9905100">
        <ele>672.8</ele>
        <time>2019-08-14T15:43:30Z</time>
      </trkpt>
      <trkpt lat="41.4855190" lon="-4.9905380">
        <ele>672.8</ele>
        <time>2019-08-14T15:43:31Z</time>
      </trkpt>
      <trkpt lat="41.4855570" lon="-4.9905650">
        <ele>672.8</ele>
        <time>2019-08-14T15:43:32Z</time>
      </trkpt>
      <trkpt lat="41.4855930" lon="-4.9905930">
        <ele>672.8</ele>
        <time>2019-08-14T15:43:33Z</time>
      </trkpt>
      <trkpt lat="41.4856310" lon="-4.9906230">
        <ele>672.8</ele>
        <time>2019-08-14T15:43:34Z</time>
      </trkpt>
      <trkpt lat="41.4856690" lon="-4.9906490">
        <ele>672.7</ele>
        <time>2019-08-14T15:43:35Z</time>
      </trkpt>
      <trkpt lat="41.4857080" lon="-4.9906760">
        <ele>672.7</ele>
        <time>2019-08-14T15:43:36Z</time>
      </trkpt>
      <trkpt lat="41.4857470" lon="-4.9907050">
        <ele>672.5</ele>
        <time>2019-08-14T15:43:37Z</time>
      </trkpt>
      <trkpt lat="41.4857870" lon="-4.9907360">
        <ele>672.4</ele>
        <time>2019-08-14T15:43:38Z</time>
      </trkpt>
      <trkpt lat="41.4858270" lon="-4.9907670">
        <ele>672.2</ele>
        <time>2019-08-14T15:43:39Z</time>
      </trkpt>
      <trkpt lat="41.4858670" lon="-4.9907980">
        <ele>672.1</ele>
        <time>2019-08-14T15:43:40Z</time>
      </trkpt>
      <trkpt lat="41.4859080" lon="-4.9908270">
        <ele>672.0</ele>
        <time>2019-08-14T15:43:41Z</time>
      </trkpt>
      <trkpt lat="41.4859460" lon="-4.9908600">
        <ele>671.9</ele>
        <time>2019-08-14T15:43:42Z</time>
      </trkpt>
      <trkpt lat="41.4859870" lon="-4.9908900">
        <ele>671.8</ele>
        <time>2019-08-14T15:43:43Z</time>
      </trkpt>
      <trkpt lat="41.4860280" lon="-4.9909190">
        <ele>671.8</ele>
        <time>2019-08-14T15:43:44Z</time>
      </trkpt>
      <trkpt lat="41.4860700" lon="-4.9909490">
        <ele>671.7</ele>
        <time>2019-08-14T15:43:45Z</time>
      </trkpt>
      <trkpt lat="41.4861100" lon="-4.9909790">
        <ele>671.6</ele>
        <time>2019-08-14T15:43:46Z</time>
      </trkpt>
      <trkpt lat="41.4861520" lon="-4.9910100">
        <ele>671.5</ele>
        <time>2019-08-14T15:43:47Z</time>
      </trkpt>
      <trkpt lat="41.4861930" lon="-4.9910430">
        <ele>671.4</ele>
        <time>2019-08-14T15:43:48Z</time>
      </trkpt>
      <trkpt lat="41.4862350" lon="-4.9910760">
        <ele>671.2</ele>
        <time>2019-08-14T15:43:49Z</time>
      </trkpt>
      <trkpt lat="41.4862790" lon="-4.9911090">
        <ele>671.0</ele>
        <time>2019-08-14T15:43:50Z</time>
      </trkpt>
      <trkpt lat="41.4863220" lon="-4.9911430">
        <ele>670.9</ele>
        <time>2019-08-14T15:43:51Z</time>
      </trkpt>
      <trkpt lat="41.4863670" lon="-4.9911760">
        <ele>670.7</ele>
        <time>2019-08-14T15:43:52Z</time>
      </trkpt>
      <trkpt lat="41.4864120" lon="-4.9912090">
        <ele>670.6</ele>
        <time>2019-08-14T15:43:53Z</time>
      </trkpt>
      <trkpt lat="41.4864550" lon="-4.9912430">
        <ele>670.5</ele>
        <time>2019-08-14T15:43:54Z</time>
      </trkpt>
      <trkpt lat="41.4864970" lon="-4.9912740">
        <ele>670.4</ele>
        <time>2019-08-14T15:43:55Z</time>
      </trkpt>
      <trkpt lat="41.4865360" lon="-4.9913060">
        <ele>670.3</ele>
        <time>2019-08-14T15:43:56Z</time>
      </trkpt>
      <trkpt lat="41.4865770" lon="-4.9913360">
        <ele>670.3</ele>
        <time>2019-08-14T15:43:57Z</time>
      </trkpt>
      <trkpt lat="41.4866150" lon="-4.9913650">
        <ele>670.3</ele>
        <time>2019-08-14T15:43:58Z</time>
      </trkpt>
      <trkpt lat="41.4866530" lon="-4.9913940">
        <ele>670.4</ele>
        <time>2019-08-14T15:43:59Z</time>
      </trkpt>
      <trkpt lat="41.4866900" lon="-4.9914220">
        <ele>670.5</ele>
        <time>2019-08-14T15:44:00Z</time>
      </trkpt>
      <trkpt lat="41.4867290" lon="-4.9914510">
        <ele>670.6</ele>
        <time>2019-08-14T15:44:01Z</time>
      </trkpt>
      <trkpt lat="41.4867680" lon="-4.9914830">
        <ele>670.5</ele>
        <time>2019-08-14T15:44:02Z</time>
      </trkpt>
      <trkpt lat="41.4868100" lon="-4.9915140">
        <ele>670.5</ele>
        <time>2019-08-14T15:44:03Z</time>
      </trkpt>
      <trkpt lat="41.4868520" lon="-4.9915440">
        <ele>670.3</ele>
        <time>2019-08-14T15:44:04Z</time>
      </trkpt>
      <trkpt lat="41.4868940" lon="-4.9915760">
        <ele>670.2</ele>
        <time>2019-08-14T15:44:05Z</time>
      </trkpt>
      <trkpt lat="41.4869370" lon="-4.9916070">
        <ele>670.1</ele>
        <time>2019-08-14T15:44:06Z</time>
      </trkpt>
      <trkpt lat="41.4869790" lon="-4.9916410">
        <ele>669.9</ele>
        <time>2019-08-14T15:44:07Z</time>
      </trkpt>
      <trkpt lat="41.4870210" lon="-4.9916750">
        <ele>669.9</ele>
        <time>2019-08-14T15:44:08Z</time>
      </trkpt>
      <trkpt lat="41.4870650" lon="-4.9917100">
        <ele>669.8</ele>
        <time>2019-08-14T15:44:09Z</time>
      </trkpt>
      <trkpt lat="41.4871080" lon="-4.9917440">
        <ele>669.8</ele>
        <time>2019-08-14T15:44:10Z</time>
      </trkpt>
      <trkpt lat="41.4871510" lon="-4.9917770">
        <ele>669.8</ele>
        <time>2019-08-14T15:44:11Z</time>
      </trkpt>
      <trkpt lat="41.4871970" lon="-4.9918110">
        <ele>669.9</ele>
        <time>2019-08-14T15:44:12Z</time>
      </trkpt>
      <trkpt lat="41.4872410" lon="-4.9918470">
        <ele>670.0</ele>
        <time>2019-08-14T15:44:13Z</time>
      </trkpt>
      <trkpt lat="41.4872840" lon="-4.9918790">
        <ele>670.2</ele>
        <time>2019-08-14T15:44:14Z</time>
      </trkpt>
      <trkpt lat="41.4873250" lon="-4.9919110">
        <ele>670.3</ele>
        <time>2019-08-14T15:44:15Z</time>
      </trkpt>
      <trkpt lat="41.4873640" lon="-4.9919430">
        <ele>670.4</ele>
        <time>2019-08-14T15:44:16Z</time>
      </trkpt>
      <trkpt lat="41.4874030" lon="-4.9919720">
        <ele>670.5</ele>
        <time>2019-08-14T15:44:17Z</time>
      </trkpt>
      <trkpt lat="41.4874440" lon="-4.9920020">
        <ele>670.5</ele>
        <time>2019-08-14T15:44:18Z</time>
      </trkpt>
      <trkpt lat="41.4874840" lon="-4.9920320">
        <ele>670.4</ele>
        <time>2019-08-14T15:44:19Z</time>
      </trkpt>
      <trkpt lat="41.4875270" lon="-4.9920630">
        <ele>670.3</ele>
        <time>2019-08-14T15:44:20Z</time>
      </trkpt>
      <trkpt lat="41.4875700" lon="-4.9920950">
        <ele>670.2</ele>
        <time>2019-08-14T15:44:21Z</time>
      </trkpt>
      <trkpt lat="41.4876130" lon="-4.9921270">
        <ele>670.1</ele>
        <time>2019-08-14T15:44:22Z</time>
      </trkpt>
      <trkpt lat="41.4876570" lon="-4.9921580">
        <ele>670.1</ele>
        <time>2019-08-14T15:44:23Z</time>
      </trkpt>
      <trkpt lat="41.4877010" lon="-4.9921900">
        <ele>670.1</ele>
        <time>2019-08-14T15:44:24Z</time>
      </trkpt>
      <trkpt lat="41.4877460" lon="-4.9922210">
        <ele>670.1</ele>
        <time>2019-08-14T15:44:25Z</time>
      </trkpt>
      <trkpt lat="41.4877880" lon="-4.9922520">
        <ele>670.1</ele>
        <time>2019-08-14T15:44:26Z</time>
      </trkpt>
      <trkpt lat="41.4878300" lon="-4.9922840">
        <ele>670.1</ele>
        <time>2019-08-14T15:44:27Z</time>
      </trkpt>
      <trkpt lat="41.4878690" lon="-4.9923140">
        <ele>669.9</ele>
        <time>2019-08-14T15:44:28Z</time>
      </trkpt>
      <trkpt lat="41.4879070" lon="-4.9923440">
        <ele>669.7</ele>
        <time>2019-08-14T15:44:29Z</time>
      </trkpt>
      <trkpt lat="41.4879440" lon="-4.9923740">
        <ele>669.5</ele>
        <time>2019-08-14T15:44:30Z</time>
      </trkpt>
      <trkpt lat="41.4879830" lon="-4.9924020">
        <ele>669.3</ele>
        <time>2019-08-14T15:44:31Z</time>
      </trkpt>
      <trkpt lat="41.4880240" lon="-4.9924320">
        <ele>669.1</ele>
        <time>2019-08-14T15:44:32Z</time>
      </trkpt>
      <trkpt lat="41.4880650" lon="-4.9924620">
        <ele>668.9</ele>
        <time>2019-08-14T15:44:33Z</time>
      </trkpt>
      <trkpt lat="41.4881070" lon="-4.9924940">
        <ele>668.8</ele>
        <time>2019-08-14T15:44:34Z</time>
      </trkpt>
      <trkpt lat="41.4881480" lon="-4.9925260">
        <ele>668.7</ele>
        <time>2019-08-14T15:44:35Z</time>
      </trkpt>
      <trkpt lat="41.4881900" lon="-4.9925580">
        <ele>668.7</ele>
        <time>2019-08-14T15:44:36Z</time>
      </trkpt>
      <trkpt lat="41.4882320" lon="-4.9925900">
        <ele>668.6</ele>
        <time>2019-08-14T15:44:37Z</time>
      </trkpt>
      <trkpt lat="41.4882750" lon="-4.9926230">
        <ele>668.6</ele>
        <time>2019-08-14T15:44:38Z</time>
      </trkpt>
      <trkpt lat="41.4883180" lon="-4.9926550">
        <ele>668.5</ele>
        <time>2019-08-14T15:44:39Z</time>
      </trkpt>
      <trkpt lat="41.4883610" lon="-4.9926890">
        <ele>668.5</ele>
        <time>2019-08-14T15:44:40Z</time>
      </trkpt>
      <trkpt lat="41.4884050" lon="-4.9927230">
        <ele>668.5</ele>
        <time>2019-08-14T15:44:41Z</time>
      </trkpt>
      <trkpt lat="41.4884500" lon="-4.9927580">
        <ele>668.5</ele>
        <time>2019-08-14T15:44:42Z</time>
      </trkpt>
      <trkpt lat="41.4884970" lon="-4.9927940">
        <ele>668.5</ele>
        <time>2019-08-14T15:44:43Z</time>
      </trkpt>
      <trkpt lat="41.4885450" lon="-4.9928300">
        <ele>668.5</ele>
        <time>2019-08-14T15:44:44Z</time>
      </trkpt>
      <trkpt lat="41.4885930" lon="-4.9928660">
        <ele>668.6</ele>
        <time>2019-08-14T15:44:45Z</time>
      </trkpt>
      <trkpt lat="41.4886400" lon="-4.9929020">
        <ele>668.6</ele>
        <time>2019-08-14T15:44:46Z</time>
      </trkpt>
      <trkpt lat="41.4886870" lon="-4.9929390">
        <ele>668.5</ele>
        <time>2019-08-14T15:44:47Z</time>
      </trkpt>
      <trkpt lat="41.4887350" lon="-4.9929750">
        <ele>668.4</ele>
        <time>2019-08-14T15:44:48Z</time>
      </trkpt>
      <trkpt lat="41.4887820" lon="-4.9930130">
        <ele>668.2</ele>
        <time>2019-08-14T15:44:49Z</time>
      </trkpt>
      <trkpt lat="41.4888300" lon="-4.9930490">
        <ele>668.1</ele>
        <time>2019-08-14T15:44:50Z</time>
      </trkpt>
      <trkpt lat="41.4888780" lon="-4.9930850">
        <ele>667.9</ele>
        <time>2019-08-14T15:44:51Z</time>
      </trkpt>
      <trkpt lat="41.4889230" lon="-4.9931180">
        <ele>667.8</ele>
        <time>2019-08-14T15:44:52Z</time>
      </trkpt>
      <trkpt lat="41.4889700" lon="-4.9931510">
        <ele>667.8</ele>
        <time>2019-08-14T15:44:53Z</time>
      </trkpt>
      <trkpt lat="41.4890150" lon="-4.9931860">
        <ele>667.8</ele>
        <time>2019-08-14T15:44:54Z</time>
      </trkpt>
      <trkpt lat="41.4890600" lon="-4.9932210">
        <ele>667.9</ele>
        <time>2019-08-14T15:44:55Z</time>
      </trkpt>
      <trkpt lat="41.4891060" lon="-4.9932570">
        <ele>668.0</ele>
        <time>2019-08-14T15:44:56Z</time>
      </trkpt>
      <trkpt lat="41.4891520" lon="-4.9932930">
        <ele>668.1</ele>
        <time>2019-08-14T15:44:57Z</time>
      </trkpt>
      <trkpt lat="41.4891980" lon="-4.9933270">
        <ele>668.1</ele>
        <time>2019-08-14T15:44:58Z</time>
      </trkpt>
      <trkpt lat="41.4892440" lon="-4.9933620">
        <ele>668.0</ele>
        <time>2019-08-14T15:44:59Z</time>
      </trkpt>
      <trkpt lat="41.4892900" lon="-4.9933960">
        <ele>668.0</ele>
        <time>2019-08-14T15:45:00Z</time>
      </trkpt>
      <trkpt lat="41.4893360" lon="-4.9934320">
        <ele>668.1</ele>
        <time>2019-08-14T15:45:01Z</time>
      </trkpt>
      <trkpt lat="41.4893820" lon="-4.9934690">
        <ele>668.1</ele>
        <time>2019-08-14T15:45:02Z</time>
      </trkpt>
      <trkpt lat="41.4894290" lon="-4.9935040">
        <ele>668.1</ele>
        <time>2019-08-14T15:45:03Z</time>
      </trkpt>
      <trkpt lat="41.4894760" lon="-4.9935370">
        <ele>668.0</ele>
        <time>2019-08-14T15:45:04Z</time>
      </trkpt>
      <trkpt lat="41.4895230" lon="-4.9935710">
        <ele>667.9</ele>
        <time>2019-08-14T15:45:05Z</time>
      </trkpt>
      <trkpt lat="41.4895690" lon="-4.9936060">
        <ele>667.7</ele>
        <time>2019-08-14T15:45:06Z</time>
      </trkpt>
      <trkpt lat="41.4896150" lon="-4.9936410">
        <ele>667.6</ele>
        <time>2019-08-14T15:45:07Z</time>
      </trkpt>
      <trkpt lat="41.4896600" lon="-4.9936770">
        <ele>667.5</ele>
        <time>2019-08-14T15:45:08Z</time>
      </trkpt>
      <trkpt lat="41.4897070" lon="-4.9937120">
        <ele>667.3</ele>
        <time>2019-08-14T15:45:09Z</time>
      </trkpt>
      <trkpt lat="41.4897540" lon="-4.9937460">
        <ele>667.1</ele>
        <time>2019-08-14T15:45:10Z</time>
      </trkpt>
      <trkpt lat="41.4898010" lon="-4.9937810">
        <ele>666.9</ele>
        <time>2019-08-14T15:45:11Z</time>
      </trkpt>
      <trkpt lat="41.4898470" lon="-4.9938160">
        <ele>666.8</ele>
        <time>2019-08-14T15:45:12Z</time>
      </trkpt>
      <trkpt lat="41.4898910" lon="-4.9938510">
        <ele>666.7</ele>
        <time>2019-08-14T15:45:13Z</time>
      </trkpt>
      <trkpt lat="41.4899360" lon="-4.9938850">
        <ele>666.6</ele>
        <time>2019-08-14T15:45:14Z</time>
      </trkpt>
      <trkpt lat="41.4899830" lon="-4.9939180">
        <ele>666.6</ele>
        <time>2019-08-14T15:45:15Z</time>
      </trkpt>
      <trkpt lat="41.4900310" lon="-4.9939490">
        <ele>666.6</ele>
        <time>2019-08-14T15:45:16Z</time>
      </trkpt>
      <trkpt lat="41.4900790" lon="-4.9939830">
        <ele>666.6</ele>
        <time>2019-08-14T15:45:17Z</time>
      </trkpt>
      <trkpt lat="41.4901260" lon="-4.9940190">
        <ele>666.7</ele>
        <time>2019-08-14T15:45:18Z</time>
      </trkpt>
      <trkpt lat="41.4901730" lon="-4.9940560">
        <ele>666.9</ele>
        <time>2019-08-14T15:45:19Z</time>
      </trkpt>
      <trkpt lat="41.4902190" lon="-4.9940920">
        <ele>667.1</ele>
        <time>2019-08-14T15:45:20Z</time>
      </trkpt>
      <trkpt lat="41.4902650" lon="-4.9941250">
        <ele>667.2</ele>
        <time>2019-08-14T15:45:21Z</time>
      </trkpt>
      <trkpt lat="41.4903100" lon="-4.9941590">
        <ele>667.3</ele>
        <time>2019-08-14T15:45:22Z</time>
      </trkpt>
      <trkpt lat="41.4903560" lon="-4.9941930">
        <ele>667.4</ele>
        <time>2019-08-14T15:45:23Z</time>
      </trkpt>
      <trkpt lat="41.4904000" lon="-4.9942270">
        <ele>667.4</ele>
        <time>2019-08-14T15:45:24Z</time>
      </trkpt>
      <trkpt lat="41.4904420" lon="-4.9942600">
        <ele>667.5</ele>
        <time>2019-08-14T15:45:25Z</time>
      </trkpt>
      <trkpt lat="41.4904850" lon="-4.9942910">
        <ele>667.5</ele>
        <time>2019-08-14T15:45:26Z</time>
      </trkpt>
      <trkpt lat="41.4905280" lon="-4.9943240">
        <ele>667.5</ele>
        <time>2019-08-14T15:45:27Z</time>
      </trkpt>
      <trkpt lat="41.4905710" lon="-4.9943560">
        <ele>667.4</ele>
        <time>2019-08-14T15:45:28Z</time>
      </trkpt>
      <trkpt lat="41.4906150" lon="-4.9943880">
        <ele>667.3</ele>
        <time>2019-08-14T15:45:29Z</time>
      </trkpt>
      <trkpt lat="41.4906600" lon="-4.9944190">
        <ele>667.2</ele>
        <time>2019-08-14T15:45:30Z</time>
      </trkpt>
      <trkpt lat="41.4907050" lon="-4.9944520">
        <ele>667.1</ele>
        <time>2019-08-14T15:45:31Z</time>
      </trkpt>
      <trkpt lat="41.4907500" lon="-4.9944840">
        <ele>666.9</ele>
        <time>2019-08-14T15:45:32Z</time>
      </trkpt>
      <trkpt lat="41.4907960" lon="-4.9945170">
        <ele>666.7</ele>
        <time>2019-08-14T15:45:33Z</time>
      </trkpt>
      <trkpt lat="41.4908420" lon="-4.9945490">
        <ele>666.6</ele>
        <time>2019-08-14T15:45:34Z</time>
      </trkpt>
      <trkpt lat="41.4908870" lon="-4.9945820">
        <ele>666.5</ele>
        <time>2019-08-14T15:45:35Z</time>
      </trkpt>
      <trkpt lat="41.4909330" lon="-4.9946140">
        <ele>666.5</ele>
        <time>2019-08-14T15:45:36Z</time>
      </trkpt>
      <trkpt lat="41.4909800" lon="-4.9946490">
        <ele>666.4</ele>
        <time>2019-08-14T15:45:37Z</time>
      </trkpt>
      <trkpt lat="41.4910260" lon="-4.9946850">
        <ele>666.4</ele>
        <time>2019-08-14T15:45:38Z</time>
      </trkpt>
      <trkpt lat="41.4910730" lon="-4.9947220">
        <ele>666.3</ele>
        <time>2019-08-14T15:45:39Z</time>
      </trkpt>
      <trkpt lat="41.4911190" lon="-4.9947570">
        <ele>666.1</ele>
        <time>2019-08-14T15:45:40Z</time>
      </trkpt>
      <trkpt lat="41.4911660" lon="-4.9947920">
        <ele>665.8</ele>
        <time>2019-08-14T15:45:41Z</time>
      </trkpt>
      <trkpt lat="41.4912170" lon="-4.9948250">
        <ele>665.5</ele>
        <time>2019-08-14T15:45:42Z</time>
      </trkpt>
      <trkpt lat="41.4912680" lon="-4.9948590">
        <ele>665.2</ele>
        <time>2019-08-14T15:45:43Z</time>
      </trkpt>
      <trkpt lat="41.4913180" lon="-4.9948950">
        <ele>664.9</ele>
        <time>2019-08-14T15:45:44Z</time>
      </trkpt>
      <trkpt lat="41.4913690" lon="-4.9949310">
        <ele>664.7</ele>
        <time>2019-08-14T15:45:45Z</time>
      </trkpt>
      <trkpt lat="41.4914200" lon="-4.9949650">
        <ele>664.5</ele>
        <time>2019-08-14T15:45:46Z</time>
      </trkpt>
      <trkpt lat="41.4914700" lon="-4.9950000">
        <ele>664.5</ele>
        <time>2019-08-14T15:45:47Z</time>
      </trkpt>
      <trkpt lat="41.4915190" lon="-4.9950360">
        <ele>664.4</ele>
        <time>2019-08-14T15:45:48Z</time>
      </trkpt>
      <trkpt lat="41.4915660" lon="-4.9950720">
        <ele>664.4</ele>
        <time>2019-08-14T15:45:49Z</time>
      </trkpt>
      <trkpt lat="41.4916140" lon="-4.9951090">
        <ele>664.4</ele>
        <time>2019-08-14T15:45:50Z</time>
      </trkpt>
      <trkpt lat="41.4916630" lon="-4.9951460">
        <ele>664.4</ele>
        <time>2019-08-14T15:45:51Z</time>
      </trkpt>
      <trkpt lat="41.4917120" lon="-4.9951830">
        <ele>664.4</ele>
        <time>2019-08-14T15:45:52Z</time>
      </trkpt>
      <trkpt lat="41.4917620" lon="-4.9952190">
        <ele>664.4</ele>
        <time>2019-08-14T15:45:53Z</time>
      </trkpt>
      <trkpt lat="41.4918110" lon="-4.9952530">
        <ele>664.4</ele>
        <time>2019-08-14T15:45:54Z</time>
      </trkpt>
      <trkpt lat="41.4918590" lon="-4.9952860">
        <ele>664.4</ele>
        <time>2019-08-14T15:45:55Z</time>
      </trkpt>
      <trkpt lat="41.4919060" lon="-4.9953200">
        <ele>664.4</ele>
        <time>2019-08-14T15:45:56Z</time>
      </trkpt>
      <trkpt lat="41.4919510" lon="-4.9953520">
        <ele>664.4</ele>
        <time>2019-08-14T15:45:57Z</time>
      </trkpt>
      <trkpt lat="41.4919960" lon="-4.9953840">
        <ele>664.4</ele>
        <time>2019-08-14T15:45:58Z</time>
      </trkpt>
      <trkpt lat="41.4920400" lon="-4.9954170">
        <ele>664.4</ele>
        <time>2019-08-14T15:45:59Z</time>
      </trkpt>
      <trkpt lat="41.4920850" lon="-4.9954500">
        <ele>664.4</ele>
        <time>2019-08-14T15:46:00Z</time>
      </trkpt>
      <trkpt lat="41.4921310" lon="-4.9954820">
        <ele>664.4</ele>
        <time>2019-08-14T15:46:01Z</time>
      </trkpt>
      <trkpt lat="41.4921790" lon="-4.9955150">
        <ele>664.4</ele>
        <time>2019-08-14T15:46:02Z</time>
      </trkpt>
      <trkpt lat="41.4922270" lon="-4.9955500">
        <ele>664.4</ele>
        <time>2019-08-14T15:46:03Z</time>
      </trkpt>
      <trkpt lat="41.4922750" lon="-4.9955860">
        <ele>664.4</ele>
        <time>2019-08-14T15:46:04Z</time>
      </trkpt>
      <trkpt lat="41.4923220" lon="-4.9956230">
        <ele>664.5</ele>
        <time>2019-08-14T15:46:05Z</time>
      </trkpt>
      <trkpt lat="41.4923700" lon="-4.9956580">
        <ele>664.6</ele>
        <time>2019-08-14T15:46:06Z</time>
      </trkpt>
      <trkpt lat="41.4924170" lon="-4.9956930">
        <ele>664.8</ele>
        <time>2019-08-14T15:46:07Z</time>
      </trkpt>
      <trkpt lat="41.4924640" lon="-4.9957280">
        <ele>664.9</ele>
        <time>2019-08-14T15:46:08Z</time>
      </trkpt>
      <trkpt lat="41.4925110" lon="-4.9957590">
        <ele>665.1</ele>
        <time>2019-08-14T15:46:09Z</time>
      </trkpt>
      <trkpt lat="41.4925590" lon="-4.9957900">
        <ele>665.1</ele>
        <time>2019-08-14T15:46:10Z</time>
      </trkpt>
      <trkpt lat="41.4926080" lon="-4.9958240">
        <ele>665.1</ele>
        <time>2019-08-14T15:46:11Z</time>
      </trkpt>
      <trkpt lat="41.4926560" lon="-4.9958610">
        <ele>665.0</ele>
        <time>2019-08-14T15:46:12Z</time>
      </trkpt>
      <trkpt lat="41.4927040" lon="-4.9958990">
        <ele>664.9</ele>
        <time>2019-08-14T15:46:13Z</time>
      </trkpt>
      <trkpt lat="41.4927500" lon="-4.9959380">
        <ele>664.8</ele>
        <time>2019-08-14T15:46:14Z</time>
      </trkpt>
      <trkpt lat="41.4927960" lon="-4.9959780">
        <ele>664.7</ele>
        <time>2019-08-14T15:46:15Z</time>
      </trkpt>
      <trkpt lat="41.4928420" lon="-4.9960180">
        <ele>664.7</ele>
        <time>2019-08-14T15:46:16Z</time>
      </trkpt>
      <trkpt lat="41.4928880" lon="-4.9960600">
        <ele>664.8</ele>
        <time>2019-08-14T15:46:17Z</time>
      </trkpt>
      <trkpt lat="41.4929340" lon="-4.9961000">
        <ele>664.9</ele>
        <time>2019-08-14T15:46:18Z</time>
      </trkpt>
      <trkpt lat="41.4929790" lon="-4.9961420">
        <ele>665.0</ele>
        <time>2019-08-14T15:46:19Z</time>
      </trkpt>
      <trkpt lat="41.4930230" lon="-4.9961840">
        <ele>665.1</ele>
        <time>2019-08-14T15:46:20Z</time>
      </trkpt>
      <trkpt lat="41.4930670" lon="-4.9962270">
        <ele>665.1</ele>
        <time>2019-08-14T15:46:21Z</time>
      </trkpt>
      <trkpt lat="41.4931090" lon="-4.9962680">
        <ele>665.0</ele>
        <time>2019-08-14T15:46:22Z</time>
      </trkpt>
      <trkpt lat="41.4931510" lon="-4.9963080">
        <ele>665.0</ele>
        <time>2019-08-14T15:46:23Z</time>
      </trkpt>
      <trkpt lat="41.4931920" lon="-4.9963510">
        <ele>665.0</ele>
        <time>2019-08-14T15:46:24Z</time>
      </trkpt>
      <trkpt lat="41.4932330" lon="-4.9963940">
        <ele>665.0</ele>
        <time>2019-08-14T15:46:25Z</time>
      </trkpt>
      <trkpt lat="41.4932750" lon="-4.9964360">
        <ele>665.1</ele>
        <time>2019-08-14T15:46:26Z</time>
      </trkpt>
      <trkpt lat="41.4933160" lon="-4.9964800">
        <ele>665.3</ele>
        <time>2019-08-14T15:46:27Z</time>
      </trkpt>
      <trkpt lat="41.4933580" lon="-4.9965240">
        <ele>665.5</ele>
        <time>2019-08-14T15:46:28Z</time>
      </trkpt>
      <trkpt lat="41.4934020" lon="-4.9965660">
        <ele>665.6</ele>
        <time>2019-08-14T15:46:29Z</time>
      </trkpt>
      <trkpt lat="41.4934460" lon="-4.9966100">
        <ele>665.7</ele>
        <time>2019-08-14T15:46:30Z</time>
      </trkpt>
      <trkpt lat="41.4934900" lon="-4.9966540">
        <ele>665.7</ele>
        <time>2019-08-14T15:46:31Z</time>
      </trkpt>
      <trkpt lat="41.4935320" lon="-4.9966990">
        <ele>665.6</ele>
        <time>2019-08-14T15:46:32Z</time>
      </trkpt>
      <trkpt lat="41.4935750" lon="-4.9967400">
        <ele>665.5</ele>
        <time>2019-08-14T15:46:33Z</time>
      </trkpt>
      <trkpt lat="41.4936160" lon="-4.9967760">
        <ele>665.4</ele>
        <time>2019-08-14T15:46:34Z</time>
      </trkpt>
      <trkpt lat="41.4936570" lon="-4.9968090">
        <ele>665.3</ele>
        <time>2019-08-14T15:46:35Z</time>
      </trkpt>
      <trkpt lat="41.4936960" lon="-4.9968460">
        <ele>665.2</ele>
        <time>2019-08-14T15:46:36Z</time>
      </trkpt>
      <trkpt lat="41.4937340" lon="-4.9968840">
        <ele>665.1</ele>
        <time>2019-08-14T15:46:37Z</time>
      </trkpt>
      <trkpt lat="41.4937730" lon="-4.9969200">
        <ele>664.9</ele>
        <time>2019-08-14T15:46:38Z</time>
      </trkpt>
      <trkpt lat="41.4938150" lon="-4.9969530">
        <ele>664.8</ele>
        <time>2019-08-14T15:46:39Z</time>
      </trkpt>
      <trkpt lat="41.4938570" lon="-4.9969870">
        <ele>664.6</ele>
        <time>2019-08-14T15:46:40Z</time>
      </trkpt>
      <trkpt lat="41.4938980" lon="-4.9970240">
        <ele>664.5</ele>
        <time>2019-08-14T15:46:41Z</time>
      </trkpt>
      <trkpt lat="41.4939370" lon="-4.9970630">
        <ele>664.5</ele>
        <time>2019-08-14T15:46:42Z</time>
      </trkpt>
      <trkpt lat="41.4939770" lon="-4.9971020">
        <ele>664.5</ele>
        <time>2019-08-14T15:46:43Z</time>
      </trkpt>
      <trkpt lat="41.4940180" lon="-4.9971420">
        <ele>664.6</ele>
        <time>2019-08-14T15:46:44Z</time>
      </trkpt>
      <trkpt lat="41.4940560" lon="-4.9971840">
        <ele>664.7</ele>
        <time>2019-08-14T15:46:45Z</time>
      </trkpt>
      <trkpt lat="41.4940930" lon="-4.9972270">
        <ele>664.9</ele>
        <time>2019-08-14T15:46:46Z</time>
      </trkpt>
      <trkpt lat="41.4941300" lon="-4.9972730">
        <ele>665.0</ele>
        <time>2019-08-14T15:46:47Z</time>
      </trkpt>
      <trkpt lat="41.4941680" lon="-4.9973180">
        <ele>665.1</ele>
        <time>2019-08-14T15:46:48Z</time>
      </trkpt>
      <trkpt lat="41.4942060" lon="-4.9973650">
        <ele>665.1</ele>
        <time>2019-08-14T15:46:49Z</time>
      </trkpt>
      <trkpt lat="41.4942440" lon="-4.9974140">
        <ele>665.2</ele>
        <time>2019-08-14T15:46:50Z</time>
      </trkpt>
      <trkpt lat="41.4942810" lon="-4.9974630">
        <ele>665.2</ele>
        <time>2019-08-14T15:46:51Z</time>
      </trkpt>
      <trkpt lat="41.4943180" lon="-4.9975140">
        <ele>665.2</ele>
        <time>2019-08-14T15:46:52Z</time>
      </trkpt>
      <trkpt lat="41.4943550" lon="-4.9975630">
        <ele>665.2</ele>
        <time>2019-08-14T15:46:53Z</time>
      </trkpt>
      <trkpt lat="41.4943920" lon="-4.9976090">
        <ele>665.2</ele>
        <time>2019-08-14T15:46:54Z</time>
      </trkpt>
      <trkpt lat="41.4944290" lon="-4.9976510">
        <ele>665.2</ele>
        <time>2019-08-14T15:46:55Z</time>
      </trkpt>
      <trkpt lat="41.4944670" lon="-4.9976930">
        <ele>665.2</ele>
        <time>2019-08-14T15:46:56Z</time>
      </trkpt>
      <trkpt lat="41.4945040" lon="-4.9977340">
        <ele>665.2</ele>
        <time>2019-08-14T15:46:57Z</time>
      </trkpt>
      <trkpt lat="41.4945410" lon="-4.9977740">
        <ele>665.2</ele>
        <time>2019-08-14T15:46:58Z</time>
      </trkpt>
      <trkpt lat="41.4945790" lon="-4.9978130">
        <ele>665.2</ele>
        <time>2019-08-14T15:46:59Z</time>
      </trkpt>
      <trkpt lat="41.4946170" lon="-4.9978520">
        <ele>665.2</ele>
        <time>2019-08-14T15:47:00Z</time>
      </trkpt>
      <trkpt lat="41.4946540" lon="-4.9978930">
        <ele>665.2</ele>
        <time>2019-08-14T15:47:01Z</time>
      </trkpt>
      <trkpt lat="41.4946900" lon="-4.9979360">
        <ele>665.2</ele>
        <time>2019-08-14T15:47:02Z</time>
      </trkpt>
      <trkpt lat="41.4947260" lon="-4.9979770">
        <ele>665.2</ele>
        <time>2019-08-14T15:47:03Z</time>
      </trkpt>
      <trkpt lat="41.4947620" lon="-4.9980180">
        <ele>665.2</ele>
        <time>2019-08-14T15:47:04Z</time>
      </trkpt>
      <trkpt lat="41.4947990" lon="-4.9980570">
        <ele>665.2</ele>
        <time>2019-08-14T15:47:05Z</time>
      </trkpt>
      <trkpt lat="41.4948380" lon="-4.9980940">
        <ele>665.2</ele>
        <time>2019-08-14T15:47:06Z</time>
      </trkpt>
      <trkpt lat="41.4948770" lon="-4.9981320">
        <ele>665.2</ele>
        <time>2019-08-14T15:47:07Z</time>
      </trkpt>
      <trkpt lat="41.4949170" lon="-4.9981680">
        <ele>665.2</ele>
        <time>2019-08-14T15:47:08Z</time>
      </trkpt>
      <trkpt lat="41.4949560" lon="-4.9982050">
        <ele>665.3</ele>
        <time>2019-08-14T15:47:09Z</time>
      </trkpt>
      <trkpt lat="41.4949970" lon="-4.9982440">
        <ele>665.4</ele>
        <time>2019-08-14T15:47:10Z</time>
      </trkpt>
      <trkpt lat="41.4950370" lon="-4.9982800">
        <ele>665.5</ele>
        <time>2019-08-14T15:47:11Z</time>
      </trkpt>
      <trkpt lat="41.4950760" lon="-4.9983180">
        <ele>665.7</ele>
        <time>2019-08-14T15:47:12Z</time>
      </trkpt>
      <trkpt lat="41.4951140" lon="-4.9983540">
        <ele>665.8</ele>
        <time>2019-08-14T15:47:13Z</time>
      </trkpt>
      <trkpt lat="41.4951520" lon="-4.9983880">
        <ele>665.9</ele>
        <time>2019-08-14T15:47:14Z</time>
      </trkpt>
      <trkpt lat="41.4951870" lon="-4.9984210">
        <ele>666.0</ele>
        <time>2019-08-14T15:47:15Z</time>
      </trkpt>
      <trkpt lat="41.4952190" lon="-4.9984530">
        <ele>666.0</ele>
        <time>2019-08-14T15:47:16Z</time>
      </trkpt>
      <trkpt lat="41.4952500" lon="-4.9984850">
        <ele>666.1</ele>
        <time>2019-08-14T15:47:17Z</time>
      </trkpt>
      <trkpt lat="41.4952820" lon="-4.9985150">
        <ele>666.1</ele>
        <time>2019-08-14T15:47:18Z</time>
      </trkpt>
      <trkpt lat="41.4953180" lon="-4.9985460">
        <ele>666.2</ele>
        <time>2019-08-14T15:47:19Z</time>
      </trkpt>
      <trkpt lat="41.4953510" lon="-4.9985800">
        <ele>666.3</ele>
        <time>2019-08-14T15:47:20Z</time>
      </trkpt>
      <trkpt lat="41.4953860" lon="-4.9986160">
        <ele>666.4</ele>
        <time>2019-08-14T15:47:21Z</time>
      </trkpt>
      <trkpt lat="41.4954220" lon="-4.9986500">
        <ele>666.5</ele>
        <time>2019-08-14T15:47:22Z</time>
      </trkpt>
      <trkpt lat="41.4954590" lon="-4.9986850">
        <ele>666.6</ele>
        <time>2019-08-14T15:47:23Z</time>
      </trkpt>
      <trkpt lat="41.4954970" lon="-4.9987190">
        <ele>666.8</ele>
        <time>2019-08-14T15:47:24Z</time>
      </trkpt>
      <trkpt lat="41.4955370" lon="-4.9987540">
        <ele>666.9</ele>
        <time>2019-08-14T15:47:25Z</time>
      </trkpt>
      <trkpt lat="41.4955760" lon="-4.9987900">
        <ele>666.9</ele>
        <time>2019-08-14T15:47:26Z</time>
      </trkpt>
      <trkpt lat="41.4956160" lon="-4.9988260">
        <ele>666.9</ele>
        <time>2019-08-14T15:47:27Z</time>
      </trkpt>
      <trkpt lat="41.4956560" lon="-4.9988640">
        <ele>666.9</ele>
        <time>2019-08-14T15:47:28Z</time>
      </trkpt>
      <trkpt lat="41.4956970" lon="-4.9989000">
        <ele>666.8</ele>
        <time>2019-08-14T15:47:29Z</time>
      </trkpt>
      <trkpt lat="41.4957380" lon="-4.9989380">
        <ele>666.6</ele>
        <time>2019-08-14T15:47:30Z</time>
      </trkpt>
      <trkpt lat="41.4957790" lon="-4.9989770">
        <ele>666.5</ele>
        <time>2019-08-14T15:47:31Z</time>
      </trkpt>
      <trkpt lat="41.4958190" lon="-4.9990150">
        <ele>666.3</ele>
        <time>2019-08-14T15:47:32Z</time>
      </trkpt>
      <trkpt lat="41.4958550" lon="-4.9990540">
        <ele>666.2</ele>
        <time>2019-08-14T15:47:33Z</time>
      </trkpt>
      <trkpt lat="41.4958890" lon="-4.9990950">
        <ele>666.2</ele>
        <time>2019-08-14T15:47:34Z</time>
      </trkpt>
      <trkpt lat="41.4959250" lon="-4.9991360">
        <ele>666.1</ele>
        <time>2019-08-14T15:47:35Z</time>
      </trkpt>
      <trkpt lat="41.4959630" lon="-4.9991760">
        <ele>666.1</ele>
        <time>2019-08-14T15:47:36Z</time>
      </trkpt>
      <trkpt lat="41.4960020" lon="-4.9992150">
        <ele>666.1</ele>
        <time>2019-08-14T15:47:37Z</time>
      </trkpt>
      <trkpt lat="41.4960420" lon="-4.9992550">
        <ele>666.1</ele>
        <time>2019-08-14T15:47:38Z</time>
      </trkpt>
      <trkpt lat="41.4960820" lon="-4.9992980">
        <ele>666.1</ele>
        <time>2019-08-14T15:47:39Z</time>
      </trkpt>
      <trkpt lat="41.4961200" lon="-4.9993420">
        <ele>666.2</ele>
        <time>2019-08-14T15:47:40Z</time>
      </trkpt>
      <trkpt lat="41.4961600" lon="-4.9993850">
        <ele>666.3</ele>
        <time>2019-08-14T15:47:41Z</time>
      </trkpt>
      <trkpt lat="41.4961970" lon="-4.9994270">
        <ele>666.4</ele>
        <time>2019-08-14T15:47:42Z</time>
      </trkpt>
      <trkpt lat="41.4962330" lon="-4.9994660">
        <ele>666.6</ele>
        <time>2019-08-14T15:47:43Z</time>
      </trkpt>
      <trkpt lat="41.4962660" lon="-4.9995030">
        <ele>666.8</ele>
        <time>2019-08-14T15:47:44Z</time>
      </trkpt>
      <trkpt lat="41.4963000" lon="-4.9995360">
        <ele>667.0</ele>
        <time>2019-08-14T15:47:45Z</time>
      </trkpt>
      <trkpt lat="41.4963310" lon="-4.9995670">
        <ele>667.2</ele>
        <time>2019-08-14T15:47:46Z</time>
      </trkpt>
      <trkpt lat="41.4963630" lon="-4.9995980">
        <ele>667.4</ele>
        <time>2019-08-14T15:47:47Z</time>
      </trkpt>
      <trkpt lat="41.4963950" lon="-4.9996300">
        <ele>667.6</ele>
        <time>2019-08-14T15:47:48Z</time>
      </trkpt>
      <trkpt lat="41.4964280" lon="-4.9996600">
        <ele>667.8</ele>
        <time>2019-08-14T15:47:49Z</time>
      </trkpt>
      <trkpt lat="41.4964640" lon="-4.9996890">
        <ele>667.9</ele>
        <time>2019-08-14T15:47:50Z</time>
      </trkpt>
      <trkpt lat="41.4965000" lon="-4.9997160">
        <ele>668.0</ele>
        <time>2019-08-14T15:47:51Z</time>
      </trkpt>
      <trkpt lat="41.4965360" lon="-4.9997430">
        <ele>668.1</ele>
        <time>2019-08-14T15:47:52Z</time>
      </trkpt>
      <trkpt lat="41.4965730" lon="-4.9997690">
        <ele>668.2</ele>
        <time>2019-08-14T15:47:53Z</time>
      </trkpt>
      <trkpt lat="41.4966070" lon="-4.9997940">
        <ele>668.3</ele>
        <time>2019-08-14T15:47:54Z</time>
      </trkpt>
      <trkpt lat="41.4966420" lon="-4.9998150">
        <ele>668.3</ele>
        <time>2019-08-14T15:47:55Z</time>
      </trkpt>
      <trkpt lat="41.4966720" lon="-4.9998350">
        <ele>668.4</ele>
        <time>2019-08-14T15:47:56Z</time>
      </trkpt>
      <trkpt lat="41.4967020" lon="-4.9998530">
        <ele>668.5</ele>
        <time>2019-08-14T15:47:57Z</time>
      </trkpt>
      <trkpt lat="41.4967300" lon="-4.9998690">
        <ele>668.6</ele>
        <time>2019-08-14T15:47:58Z</time>
      </trkpt>
      <trkpt lat="41.4967770" lon="-4.9998940">
        <ele>668.8</ele>
        <time>2019-08-14T15:48:00Z</time>
      </trkpt>
      <trkpt lat="41.4968270" lon="-4.9999070">
        <ele>669.0</ele>
        <time>2019-08-14T15:48:02Z</time>
      </trkpt>
      <trkpt lat="41.4968540" lon="-4.9999160">
        <ele>669.3</ele>
        <time>2019-08-14T15:48:03Z</time>
      </trkpt>
      <trkpt lat="41.4968800" lon="-4.9999280">
        <ele>669.3</ele>
        <time>2019-08-14T15:48:04Z</time>
      </trkpt>
      <trkpt lat="41.4969070" lon="-4.9999470">
        <ele>669.3</ele>
        <time>2019-08-14T15:48:05Z</time>
      </trkpt>
      <trkpt lat="41.4969310" lon="-4.9999740">
        <ele>669.2</ele>
        <time>2019-08-14T15:48:06Z</time>
      </trkpt>
      <trkpt lat="41.4969530" lon="-5.0000100">
        <ele>669.2</ele>
        <time>2019-08-14T15:48:07Z</time>
      </trkpt>
      <trkpt lat="41.4969690" lon="-5.0000520">
        <ele>669.1</ele>
        <time>2019-08-14T15:48:08Z</time>
      </trkpt>
      <trkpt lat="41.4969810" lon="-5.0000980">
        <ele>669.0</ele>
        <time>2019-08-14T15:48:09Z</time>
      </trkpt>
      <trkpt lat="41.4969930" lon="-5.0001470">
        <ele>669.0</ele>
        <time>2019-08-14T15:48:10Z</time>
      </trkpt>
      <trkpt lat="41.4970080" lon="-5.0001930">
        <ele>669.0</ele>
        <time>2019-08-14T15:48:11Z</time>
      </trkpt>
      <trkpt lat="41.4970270" lon="-5.0002360">
        <ele>669.0</ele>
        <time>2019-08-14T15:48:12Z</time>
      </trkpt>
      <trkpt lat="41.4970460" lon="-5.0002760">
        <ele>669.0</ele>
        <time>2019-08-14T15:48:13Z</time>
      </trkpt>
      <trkpt lat="41.4970650" lon="-5.0003160">
        <ele>668.6</ele>
        <time>2019-08-14T15:48:14Z</time>
      </trkpt>
      <trkpt lat="41.4970870" lon="-5.0003550">
        <ele>668.4</ele>
        <time>2019-08-14T15:48:15Z</time>
      </trkpt>
      <trkpt lat="41.4971130" lon="-5.0003940">
        <ele>668.2</ele>
        <time>2019-08-14T15:48:16Z</time>
      </trkpt>
      <trkpt lat="41.4971440" lon="-5.0004290">
        <ele>668.0</ele>
        <time>2019-08-14T15:48:17Z</time>
      </trkpt>
      <trkpt lat="41.4971770" lon="-5.0004640">
        <ele>667.8</ele>
        <time>2019-08-14T15:48:18Z</time>
      </trkpt>
      <trkpt lat="41.4972110" lon="-5.0004950">
        <ele>667.6</ele>
        <time>2019-08-14T15:48:19Z</time>
      </trkpt>
      <trkpt lat="41.4972460" lon="-5.0005260">
        <ele>667.4</ele>
        <time>2019-08-14T15:48:20Z</time>
      </trkpt>
      <trkpt lat="41.4972820" lon="-5.0005550">
        <ele>667.2</ele>
        <time>2019-08-14T15:48:21Z</time>
      </trkpt>
      <trkpt lat="41.4973160" lon="-5.0005840">
        <ele>667.0</ele>
        <time>2019-08-14T15:48:22Z</time>
      </trkpt>
      <trkpt lat="41.4973510" lon="-5.0006080">
        <ele>666.5</ele>
        <time>2019-08-14T15:48:23Z</time>
      </trkpt>
      <trkpt lat="41.4973880" lon="-5.0006300">
        <ele>666.2</ele>
        <time>2019-08-14T15:48:24Z</time>
      </trkpt>
      <trkpt lat="41.4974230" lon="-5.0006500">
        <ele>666.0</ele>
        <time>2019-08-14T15:48:25Z</time>
      </trkpt>
      <trkpt lat="41.4974590" lon="-5.0006680">
        <ele>666.3</ele>
        <time>2019-08-14T15:48:26Z</time>
      </trkpt>
      <trkpt lat="41.4974950" lon="-5.0006820">
        <ele>666.4</ele>
        <time>2019-08-14T15:48:27Z</time>
      </trkpt>
      <trkpt lat="41.4975300" lon="-5.0006960">
        <ele>666.5</ele>
        <time>2019-08-14T15:48:28Z</time>
      </trkpt>
      <trkpt lat="41.4975640" lon="-5.0007090">
        <ele>666.5</ele>
        <time>2019-08-14T15:48:29Z</time>
      </trkpt>
      <trkpt lat="41.4975970" lon="-5.0007190">
        <ele>666.6</ele>
        <time>2019-08-14T15:48:30Z</time>
      </trkpt>
      <trkpt lat="41.4976270" lon="-5.0007280">
        <ele>666.7</ele>
        <time>2019-08-14T15:48:31Z</time>
      </trkpt>
      <trkpt lat="41.4976560" lon="-5.0007360">
        <ele>666.7</ele>
        <time>2019-08-14T15:48:32Z</time>
      </trkpt>
      <trkpt lat="41.4976840" lon="-5.0007440">
        <ele>666.8</ele>
        <time>2019-08-14T15:48:33Z</time>
      </trkpt>
      <trkpt lat="41.4977110" lon="-5.0007530">
        <ele>666.9</ele>
        <time>2019-08-14T15:48:34Z</time>
      </trkpt>
      <trkpt lat="41.4977490" lon="-5.0007620">
        <ele>666.9</ele>
        <time>2019-08-14T15:48:36Z</time>
      </trkpt>
      <trkpt lat="41.4976540" lon="-5.0008070">
        <ele>667.1</ele>
        <time>2019-08-14T15:49:29Z</time>
      </trkpt>
      <trkpt lat="41.4976320" lon="-5.0008040">
        <ele>667.1</ele>
        <time>2019-08-14T15:49:30Z</time>
      </trkpt>
      <trkpt lat="41.4975850" lon="-5.0007900">
        <ele>666.9</ele>
        <time>2019-08-14T15:49:31Z</time>
      </trkpt>
      <trkpt lat="41.4975380" lon="-5.0007740">
        <ele>666.7</ele>
        <time>2019-08-14T15:49:32Z</time>
      </trkpt>
      <trkpt lat="41.4974880" lon="-5.0007600">
        <ele>666.5</ele>
        <time>2019-08-14T15:49:33Z</time>
      </trkpt>
      <trkpt lat="41.4974340" lon="-5.0007470">
        <ele>666.3</ele>
        <time>2019-08-14T15:49:34Z</time>
      </trkpt>
      <trkpt lat="41.4973780" lon="-5.0007310">
        <ele>666.0</ele>
        <time>2019-08-14T15:49:35Z</time>
      </trkpt>
      <trkpt lat="41.4973230" lon="-5.0007160">
        <ele>666.4</ele>
        <time>2019-08-14T15:49:36Z</time>
      </trkpt>
      <trkpt lat="41.4972700" lon="-5.0007040">
        <ele>667.0</ele>
        <time>2019-08-14T15:49:37Z</time>
      </trkpt>
      <trkpt lat="41.4972240" lon="-5.0006980">
        <ele>667.1</ele>
        <time>2019-08-14T15:49:38Z</time>
      </trkpt>
      <trkpt lat="41.4971880" lon="-5.0006960">
        <ele>667.1</ele>
        <time>2019-08-14T15:49:39Z</time>
      </trkpt>
      <trkpt lat="41.4971490" lon="-5.0007060">
        <ele>667.1</ele>
        <time>2019-08-14T15:49:41Z</time>
      </trkpt>
      <trkpt lat="41.4972140" lon="-5.0007160">
        <ele>667.1</ele>
        <time>2019-08-14T15:49:56Z</time>
      </trkpt>
      <trkpt lat="41.4972310" lon="-5.0007290">
        <ele>667.1</ele>
        <time>2019-08-14T15:50:05Z</time>
      </trkpt>
      <trkpt lat="41.5008260" lon="-5.0005870">
        <ele>704.1</ele>
        <time>2019-08-15T05:40:56Z</time>
      </trkpt>
      <trkpt lat="41.5007690" lon="-5.0008030">
        <ele>704.0</ele>
        <time>2019-08-15T05:40:58Z</time>
      </trkpt>
      <trkpt lat="41.5006870" lon="-5.0007870">
        <ele>703.9</ele>
        <time>2019-08-15T05:40:59Z</time>
      </trkpt>
      <trkpt lat="41.5006520" lon="-5.0007970">
        <ele>703.9</ele>
        <time>2019-08-15T05:41:00Z</time>
      </trkpt>
      <trkpt lat="41.5006640" lon="-5.0005870">
        <ele>703.9</ele>
        <time>2019-08-15T05:41:02Z</time>
      </trkpt>
      <trkpt lat="41.5006730" lon="-5.0005790">
        <ele>703.9</ele>
        <time>2019-08-15T05:41:03Z</time>
      </trkpt>
      <trkpt lat="41.5006380" lon="-5.0005340">
        <ele>703.8</ele>
        <time>2019-08-15T05:41:05Z</time>
      </trkpt>
      <trkpt lat="41.5006340" lon="-5.0005120">
        <ele>703.8</ele>
        <time>2019-08-15T05:41:06Z</time>
      </trkpt>
      <trkpt lat="41.5006760" lon="-5.0005190">
        <ele>703.8</ele>
        <time>2019-08-15T05:41:08Z</time>
      </trkpt>
      <trkpt lat="41.5006980" lon="-5.0005150">
        <ele>703.8</ele>
        <time>2019-08-15T05:41:09Z</time>
      </trkpt>
      <trkpt lat="41.5008090" lon="-5.0005620">
        <ele>703.8</ele>
        <time>2019-08-15T05:41:11Z</time>
      </trkpt>
      <trkpt lat="41.5008780" lon="-5.0006150">
        <ele>703.5</ele>
        <time>2019-08-15T05:41:12Z</time>
      </trkpt>
      <trkpt lat="41.5009150" lon="-5.0006230">
        <ele>703.6</ele>
        <time>2019-08-15T05:41:13Z</time>
      </trkpt>
      <trkpt lat="41.5009470" lon="-5.0006260">
        <ele>703.6</ele>
        <time>2019-08-15T05:41:14Z</time>
      </trkpt>
      <trkpt lat="41.5009700" lon="-5.0006220">
        <ele>703.7</ele>
        <time>2019-08-15T05:41:15Z</time>
      </trkpt>
      <trkpt lat="41.5010160" lon="-5.0006160">
        <ele>703.8</ele>
        <time>2019-08-15T05:41:17Z</time>
      </trkpt>
      <trkpt lat="41.5010370" lon="-5.0006080">
        <ele>703.9</ele>
        <time>2019-08-15T05:41:18Z</time>
      </trkpt>
      <trkpt lat="41.5010670" lon="-5.0006020">
        <ele>703.9</ele>
        <time>2019-08-15T05:41:20Z</time>
      </trkpt>
      <trkpt lat="41.5011000" lon="-5.0006050">
        <ele>704.2</ele>
        <time>2019-08-15T05:41:22Z</time>
      </trkpt>
      <trkpt lat="41.5011470" lon="-5.0006150">
        <ele>704.3</ele>
        <time>2019-08-15T05:41:24Z</time>
      </trkpt>
      <trkpt lat="41.5011770" lon="-5.0006010">
        <ele>704.4</ele>
        <time>2019-08-15T05:41:26Z</time>
      </trkpt>
      <trkpt lat="41.5012160" lon="-5.0005970">
        <ele>704.5</ele>
        <time>2019-08-15T05:41:28Z</time>
      </trkpt>
      <trkpt lat="41.5012620" lon="-5.0006060">
        <ele>704.6</ele>
        <time>2019-08-15T05:41:30Z</time>
      </trkpt>
      <trkpt lat="41.5013120" lon="-5.0006340">
        <ele>704.7</ele>
        <time>2019-08-15T05:41:32Z</time>
      </trkpt>
      <trkpt lat="41.5013360" lon="-5.0006410">
        <ele>704.8</ele>
        <time>2019-08-15T05:41:33Z</time>
      </trkpt>
      <trkpt lat="41.5013800" lon="-5.0006670">
        <ele>704.9</ele>
        <time>2019-08-15T05:41:35Z</time>
      </trkpt>
      <trkpt lat="41.5014220" lon="-5.0006760">
        <ele>705.0</ele>
        <time>2019-08-15T05:41:37Z</time>
      </trkpt>
      <trkpt lat="41.5014710" lon="-5.0006850">
        <ele>705.3</ele>
        <time>2019-08-15T05:41:39Z</time>
      </trkpt>
      <trkpt lat="41.5015210" lon="-5.0006800">
        <ele>705.6</ele>
        <time>2019-08-15T05:41:41Z</time>
      </trkpt>
      <trkpt lat="41.5015740" lon="-5.0006970">
        <ele>705.9</ele>
        <time>2019-08-15T05:41:43Z</time>
      </trkpt>
      <trkpt lat="41.5015980" lon="-5.0006920">
        <ele>706.1</ele>
        <time>2019-08-15T05:41:44Z</time>
      </trkpt>
      <trkpt lat="41.5016450" lon="-5.0007000">
        <ele>706.4</ele>
        <time>2019-08-15T05:41:46Z</time>
      </trkpt>
      <trkpt lat="41.5016890" lon="-5.0007280">
        <ele>706.7</ele>
        <time>2019-08-15T05:41:48Z</time>
      </trkpt>
      <trkpt lat="41.5017430" lon="-5.0007650">
        <ele>707.4</ele>
        <time>2019-08-15T05:41:50Z</time>
      </trkpt>
      <trkpt lat="41.5017690" lon="-5.0007620">
        <ele>707.4</ele>
        <time>2019-08-15T05:41:51Z</time>
      </trkpt>
      <trkpt lat="41.5018140" lon="-5.0007620">
        <ele>707.3</ele>
        <time>2019-08-15T05:41:53Z</time>
      </trkpt>
      <trkpt lat="41.5018450" lon="-5.0007340">
        <ele>707.3</ele>
        <time>2019-08-15T05:41:55Z</time>
      </trkpt>
      <trkpt lat="41.5019030" lon="-5.0007170">
        <ele>707.2</ele>
        <time>2019-08-15T05:41:57Z</time>
      </trkpt>
      <trkpt lat="41.5019550" lon="-5.0006990">
        <ele>707.1</ele>
        <time>2019-08-15T05:41:59Z</time>
      </trkpt>
      <trkpt lat="41.5020110" lon="-5.0006850">
        <ele>707.0</ele>
        <time>2019-08-15T05:42:01Z</time>
      </trkpt>
      <trkpt lat="41.5020410" lon="-5.0006770">
        <ele>706.9</ele>
        <time>2019-08-15T05:42:02Z</time>
      </trkpt>
      <trkpt lat="41.5020720" lon="-5.0006700">
        <ele>706.9</ele>
        <time>2019-08-15T05:42:03Z</time>
      </trkpt>
      <trkpt lat="41.5021030" lon="-5.0006670">
        <ele>706.8</ele>
        <time>2019-08-15T05:42:04Z</time>
      </trkpt>
      <trkpt lat="41.5021340" lon="-5.0006610">
        <ele>706.8</ele>
        <time>2019-08-15T05:42:05Z</time>
      </trkpt>
      <trkpt lat="41.5021650" lon="-5.0006640">
        <ele>706.8</ele>
        <time>2019-08-15T05:42:06Z</time>
      </trkpt>
      <trkpt lat="41.5021920" lon="-5.0006580">
        <ele>706.7</ele>
        <time>2019-08-15T05:42:07Z</time>
      </trkpt>
      <trkpt lat="41.5022210" lon="-5.0006480">
        <ele>706.7</ele>
        <time>2019-08-15T05:42:08Z</time>
      </trkpt>
      <trkpt lat="41.5022520" lon="-5.0006450">
        <ele>706.7</ele>
        <time>2019-08-15T05:42:09Z</time>
      </trkpt>
      <trkpt lat="41.5022780" lon="-5.0006250">
        <ele>706.7</ele>
        <time>2019-08-15T05:42:10Z</time>
      </trkpt>
      <trkpt lat="41.5023090" lon="-5.0006150">
        <ele>706.8</ele>
        <time>2019-08-15T05:42:11Z</time>
      </trkpt>
      <trkpt lat="41.5023360" lon="-5.0006090">
        <ele>706.9</ele>
        <time>2019-08-15T05:42:12Z</time>
      </trkpt>
      <trkpt lat="41.5023620" lon="-5.0006000">
        <ele>707.0</ele>
        <time>2019-08-15T05:42:13Z</time>
      </trkpt>
      <trkpt lat="41.5024170" lon="-5.0005790">
        <ele>707.2</ele>
        <time>2019-08-15T05:42:15Z</time>
      </trkpt>
      <trkpt lat="41.5024440" lon="-5.0005670">
        <ele>707.3</ele>
        <time>2019-08-15T05:42:16Z</time>
      </trkpt>
      <trkpt lat="41.5024710" lon="-5.0005560">
        <ele>707.4</ele>
        <time>2019-08-15T05:42:17Z</time>
      </trkpt>
      <trkpt lat="41.5025010" lon="-5.0005550">
        <ele>707.6</ele>
        <time>2019-08-15T05:42:18Z</time>
      </trkpt>
      <trkpt lat="41.5025290" lon="-5.0005500">
        <ele>707.7</ele>
        <time>2019-08-15T05:42:19Z</time>
      </trkpt>
      <trkpt lat="41.5025550" lon="-5.0005420">
        <ele>707.8</ele>
        <time>2019-08-15T05:42:20Z</time>
      </trkpt>
      <trkpt lat="41.5026170" lon="-5.0005430">
        <ele>707.6</ele>
        <time>2019-08-15T05:42:22Z</time>
      </trkpt>
      <trkpt lat="41.5026430" lon="-5.0005420">
        <ele>707.5</ele>
        <time>2019-08-15T05:42:23Z</time>
      </trkpt>
      <trkpt lat="41.5026910" lon="-5.0005430">
        <ele>707.4</ele>
        <time>2019-08-15T05:42:25Z</time>
      </trkpt>
      <trkpt lat="41.5027300" lon="-5.0005480">
        <ele>707.1</ele>
        <time>2019-08-15T05:42:27Z</time>
      </trkpt>
      <trkpt lat="41.5027860" lon="-5.0005360">
        <ele>707.0</ele>
        <time>2019-08-15T05:42:29Z</time>
      </trkpt>
      <trkpt lat="41.5028310" lon="-5.0005290">
        <ele>707.0</ele>
        <time>2019-08-15T05:42:31Z</time>
      </trkpt>
      <trkpt lat="41.5028710" lon="-5.0005330">
        <ele>706.9</ele>
        <time>2019-08-15T05:42:33Z</time>
      </trkpt>
      <trkpt lat="41.5029200" lon="-5.0005390">
        <ele>706.8</ele>
        <time>2019-08-15T05:42:35Z</time>
      </trkpt>
      <trkpt lat="41.5029600" lon="-5.0005460">
        <ele>706.7</ele>
        <time>2019-08-15T05:42:37Z</time>
      </trkpt>
      <trkpt lat="41.5029590" lon="-5.0005930">
        <ele>706.7</ele>
        <time>2019-08-15T05:42:40Z</time>
      </trkpt>
      <trkpt lat="41.5029610" lon="-5.0006400">
        <ele>706.6</ele>
        <time>2019-08-15T05:42:42Z</time>
      </trkpt>
      <trkpt lat="41.5029720" lon="-5.0006820">
        <ele>706.5</ele>
        <time>2019-08-15T05:42:44Z</time>
      </trkpt>
      <trkpt lat="41.5029870" lon="-5.0006930">
        <ele>706.5</ele>
        <time>2019-08-15T05:42:47Z</time>
      </trkpt>
      <trkpt lat="41.5030600" lon="-5.0006320">
        <ele>706.4</ele>
        <time>2019-08-15T05:43:21Z</time>
      </trkpt>
      <trkpt lat="41.5030310" lon="-5.0006290">
        <ele>706.3</ele>
        <time>2019-08-15T05:43:27Z</time>
      </trkpt>
      <trkpt lat="41.5028910" lon="-5.0006020">
        <ele>706.1</ele>
        <time>2019-08-15T05:57:33Z</time>
      </trkpt>
      <trkpt lat="41.5028840" lon="-5.0006320">
        <ele>706.0</ele>
        <time>2019-08-15T05:57:37Z</time>
      </trkpt>
      <trkpt lat="41.5029260" lon="-5.0006220">
        <ele>705.9</ele>
        <time>2019-08-15T05:57:40Z</time>
      </trkpt>
      <trkpt lat="41.5029760" lon="-5.0006010">
        <ele>705.8</ele>
        <time>2019-08-15T05:57:42Z</time>
      </trkpt>
      <trkpt lat="41.5029900" lon="-5.0005930">
        <ele>705.8</ele>
        <time>2019-08-15T05:57:43Z</time>
      </trkpt>
      <trkpt lat="41.5030090" lon="-5.0005960">
        <ele>705.8</ele>
        <time>2019-08-15T05:57:46Z</time>
      </trkpt>
      <trkpt lat="41.5031640" lon="-5.0007120">
        <ele>705.5</ele>
        <time>2019-08-15T05:58:00Z</time>
      </trkpt>
      <trkpt lat="41.5031650" lon="-5.0007330">
        <ele>705.4</ele>
        <time>2019-08-15T05:58:03Z</time>
      </trkpt>
      <trkpt lat="41.5029730" lon="-5.0007240">
        <ele>705.1</ele>
        <time>2019-08-15T05:58:33Z</time>
      </trkpt>
      <trkpt lat="41.5029510" lon="-5.0007260">
        <ele>705.1</ele>
        <time>2019-08-15T05:58:35Z</time>
      </trkpt>
      <trkpt lat="41.5029570" lon="-5.0007170">
        <ele>705.0</ele>
        <time>2019-08-15T05:58:38Z</time>
      </trkpt>
      <trkpt lat="41.5030600" lon="-5.0007180">
        <ele>704.9</ele>
        <time>2019-08-15T05:59:47Z</time>
      </trkpt>
      <trkpt lat="41.5030450" lon="-5.0005860">
        <ele>704.7</ele>
        <time>2019-08-15T06:01:43Z</time>
      </trkpt>
      <trkpt lat="41.5030770" lon="-5.0005320">
        <ele>704.6</ele>
        <time>2019-08-15T06:01:46Z</time>
      </trkpt>
      <trkpt lat="41.5030770" lon="-5.0004460">
        <ele>704.5</ele>
        <time>2019-08-15T06:01:48Z</time>
      </trkpt>
      <trkpt lat="41.5030740" lon="-5.0003980">
        <ele>704.4</ele>
        <time>2019-08-15T06:01:49Z</time>
      </trkpt>
      <trkpt lat="41.5030790" lon="-5.0003480">
        <ele>704.3</ele>
        <time>2019-08-15T06:01:50Z</time>
      </trkpt>
      <trkpt lat="41.5030870" lon="-5.0002960">
        <ele>704.2</ele>
        <time>2019-08-15T06:01:51Z</time>
      </trkpt>
      <trkpt lat="41.5031030" lon="-5.0002440">
        <ele>704.1</ele>
        <time>2019-08-15T06:01:52Z</time>
      </trkpt>
      <trkpt lat="41.5031250" lon="-5.0001950">
        <ele>703.7</ele>
        <time>2019-08-15T06:01:53Z</time>
      </trkpt>
      <trkpt lat="41.5031530" lon="-5.0001550">
        <ele>703.5</ele>
        <time>2019-08-15T06:01:54Z</time>
      </trkpt>
      <trkpt lat="41.5031840" lon="-5.0001250">
        <ele>703.3</ele>
        <time>2019-08-15T06:01:55Z</time>
      </trkpt>
      <trkpt lat="41.5032190" lon="-5.0001020">
        <ele>702.9</ele>
        <time>2019-08-15T06:01:56Z</time>
      </trkpt>
      <trkpt lat="41.5032560" lon="-5.0000840">
        <ele>702.9</ele>
        <time>2019-08-15T06:01:57Z</time>
      </trkpt>
      <trkpt lat="41.5032940" lon="-5.0000690">
        <ele>702.8</ele>
        <time>2019-08-15T06:01:58Z</time>
      </trkpt>
      <trkpt lat="41.5033320" lon="-5.0000550">
        <ele>702.7</ele>
        <time>2019-08-15T06:01:59Z</time>
      </trkpt>
      <trkpt lat="41.5033690" lon="-5.0000420">
        <ele>702.6</ele>
        <time>2019-08-15T06:02:00Z</time>
      </trkpt>
      <trkpt lat="41.5034030" lon="-5.0000280">
        <ele>702.5</ele>
        <time>2019-08-15T06:02:01Z</time>
      </trkpt>
      <trkpt lat="41.5034370" lon="-5.0000170">
        <ele>702.5</ele>
        <time>2019-08-15T06:02:02Z</time>
      </trkpt>
      <trkpt lat="41.5034700" lon="-5.0000050">
        <ele>702.4</ele>
        <time>2019-08-15T06:02:03Z</time>
      </trkpt>
      <trkpt lat="41.5035040" lon="-4.9999930">
        <ele>702.3</ele>
        <time>2019-08-15T06:02:04Z</time>
      </trkpt>
      <trkpt lat="41.5035410" lon="-4.9999790">
        <ele>702.3</ele>
        <time>2019-08-15T06:02:05Z</time>
      </trkpt>
      <trkpt lat="41.5035780" lon="-4.9999670">
        <ele>702.2</ele>
        <time>2019-08-15T06:02:06Z</time>
      </trkpt>
      <trkpt lat="41.5036150" lon="-4.9999580">
        <ele>702.1</ele>
        <time>2019-08-15T06:02:07Z</time>
      </trkpt>
      <trkpt lat="41.5036520" lon="-4.9999450">
        <ele>702.1</ele>
        <time>2019-08-15T06:02:08Z</time>
      </trkpt>
      <trkpt lat="41.5036910" lon="-4.9999300">
        <ele>702.0</ele>
        <time>2019-08-15T06:02:09Z</time>
      </trkpt>
      <trkpt lat="41.5037280" lon="-4.9999150">
        <ele>701.9</ele>
        <time>2019-08-15T06:02:10Z</time>
      </trkpt>
      <trkpt lat="41.5037670" lon="-4.9999010">
        <ele>701.8</ele>
        <time>2019-08-15T06:02:11Z</time>
      </trkpt>
      <trkpt lat="41.5038020" lon="-4.9998860">
        <ele>701.8</ele>
        <time>2019-08-15T06:02:12Z</time>
      </trkpt>
      <trkpt lat="41.5038370" lon="-4.9998720">
        <ele>701.7</ele>
        <time>2019-08-15T06:02:13Z</time>
      </trkpt>
      <trkpt lat="41.5038710" lon="-4.9998590">
        <ele>701.6</ele>
        <time>2019-08-15T06:02:14Z</time>
      </trkpt>
      <trkpt lat="41.5039040" lon="-4.9998460">
        <ele>701.5</ele>
        <time>2019-08-15T06:02:15Z</time>
      </trkpt>
      <trkpt lat="41.5039360" lon="-4.9998330">
        <ele>701.5</ele>
        <time>2019-08-15T06:02:16Z</time>
      </trkpt>
      <trkpt lat="41.5039650" lon="-4.9998190">
        <ele>701.4</ele>
        <time>2019-08-15T06:02:17Z</time>
      </trkpt>
      <trkpt lat="41.5039970" lon="-4.9998040">
        <ele>701.3</ele>
        <time>2019-08-15T06:02:18Z</time>
      </trkpt>
      <trkpt lat="41.5040300" lon="-4.9997910">
        <ele>701.2</ele>
        <time>2019-08-15T06:02:19Z</time>
      </trkpt>
      <trkpt lat="41.5040620" lon="-4.9997790">
        <ele>701.2</ele>
        <time>2019-08-15T06:02:20Z</time>
      </trkpt>
      <trkpt lat="41.5040900" lon="-4.9997650">
        <ele>701.1</ele>
        <time>2019-08-15T06:02:21Z</time>
      </trkpt>
      <trkpt lat="41.5041220" lon="-4.9997500">
        <ele>701.0</ele>
        <time>2019-08-15T06:02:22Z</time>
      </trkpt>
      <trkpt lat="41.5041560" lon="-4.9997340">
        <ele>700.9</ele>
        <time>2019-08-15T06:02:23Z</time>
      </trkpt>
      <trkpt lat="41.5041930" lon="-4.9997190">
        <ele>700.8</ele>
        <time>2019-08-15T06:02:24Z</time>
      </trkpt>
      <trkpt lat="41.5042330" lon="-4.9997070">
        <ele>700.7</ele>
        <time>2019-08-15T06:02:25Z</time>
      </trkpt>
      <trkpt lat="41.5042690" lon="-4.9996920">
        <ele>700.7</ele>
        <time>2019-08-15T06:02:26Z</time>
      </trkpt>
      <trkpt lat="41.5043040" lon="-4.9996780">
        <ele>700.6</ele>
        <time>2019-08-15T06:02:27Z</time>
      </trkpt>
      <trkpt lat="41.5043390" lon="-4.9996660">
        <ele>700.5</ele>
        <time>2019-08-15T06:02:28Z</time>
      </trkpt>
      <trkpt lat="41.5043720" lon="-4.9996570">
        <ele>700.4</ele>
        <time>2019-08-15T06:02:29Z</time>
      </trkpt>
      <trkpt lat="41.5044020" lon="-4.9996450">
        <ele>700.3</ele>
        <time>2019-08-15T06:02:30Z</time>
      </trkpt>
      <trkpt lat="41.5044330" lon="-4.9996340">
        <ele>700.2</ele>
        <time>2019-08-15T06:02:31Z</time>
      </trkpt>
      <trkpt lat="41.5044640" lon="-4.9996220">
        <ele>700.2</ele>
        <time>2019-08-15T06:02:32Z</time>
      </trkpt>
      <trkpt lat="41.5044960" lon="-4.9996090">
        <ele>700.1</ele>
        <time>2019-08-15T06:02:33Z</time>
      </trkpt>
      <trkpt lat="41.5045310" lon="-4.9995970">
        <ele>700.0</ele>
        <time>2019-08-15T06:02:34Z</time>
      </trkpt>
      <trkpt lat="41.5045670" lon="-4.9995850">
        <ele>700.2</ele>
        <time>2019-08-15T06:02:35Z</time>
      </trkpt>
      <trkpt lat="41.5046010" lon="-4.9995740">
        <ele>700.2</ele>
        <time>2019-08-15T06:02:36Z</time>
      </trkpt>
      <trkpt lat="41.5046370" lon="-4.9995600">
        <ele>700.3</ele>
        <time>2019-08-15T06:02:37Z</time>
      </trkpt>
      <trkpt lat="41.5046730" lon="-4.9995430">
        <ele>700.4</ele>
        <time>2019-08-15T06:02:38Z</time>
      </trkpt>
      <trkpt lat="41.5047110" lon="-4.9995260">
        <ele>700.5</ele>
        <time>2019-08-15T06:02:39Z</time>
      </trkpt>
      <trkpt lat="41.5047470" lon="-4.9995110">
        <ele>700.7</ele>
        <time>2019-08-15T06:02:40Z</time>
      </trkpt>
      <trkpt lat="41.5047860" lon="-4.9994980">
        <ele>700.8</ele>
        <time>2019-08-15T06:02:41Z</time>
      </trkpt>
      <trkpt lat="41.5048240" lon="-4.9994860">
        <ele>700.8</ele>
        <time>2019-08-15T06:02:42Z</time>
      </trkpt>
      <trkpt lat="41.5048630" lon="-4.9994720">
        <ele>700.8</ele>
        <time>2019-08-15T06:02:43Z</time>
      </trkpt>
      <trkpt lat="41.5049010" lon="-4.9994590">
        <ele>700.9</ele>
        <time>2019-08-15T06:02:44Z</time>
      </trkpt>
      <trkpt lat="41.5049380" lon="-4.9994440">
        <ele>700.9</ele>
        <time>2019-08-15T06:02:45Z</time>
      </trkpt>
      <trkpt lat="41.5049750" lon="-4.9994310">
        <ele>700.9</ele>
        <time>2019-08-15T06:02:46Z</time>
      </trkpt>
      <trkpt lat="41.5050120" lon="-4.9994180">
        <ele>701.0</ele>
        <time>2019-08-15T06:02:47Z</time>
      </trkpt>
      <trkpt lat="41.5050490" lon="-4.9994070">
        <ele>701.0</ele>
        <time>2019-08-15T06:02:48Z</time>
      </trkpt>
      <trkpt lat="41.5050850" lon="-4.9993960">
        <ele>701.0</ele>
        <time>2019-08-15T06:02:49Z</time>
      </trkpt>
      <trkpt lat="41.5051200" lon="-4.9993900">
        <ele>701.0</ele>
        <time>2019-08-15T06:02:50Z</time>
      </trkpt>
      <trkpt lat="41.5051530" lon="-4.9993870">
        <ele>701.0</ele>
        <time>2019-08-15T06:02:51Z</time>
      </trkpt>
      <trkpt lat="41.5051880" lon="-4.9993820">
        <ele>701.0</ele>
        <time>2019-08-15T06:02:52Z</time>
      </trkpt>
      <trkpt lat="41.5052220" lon="-4.9993780">
        <ele>701.0</ele>
        <time>2019-08-15T06:02:53Z</time>
      </trkpt>
      <trkpt lat="41.5052550" lon="-4.9993740">
        <ele>701.0</ele>
        <time>2019-08-15T06:02:54Z</time>
      </trkpt>
      <trkpt lat="41.5052890" lon="-4.9993720">
        <ele>701.0</ele>
        <time>2019-08-15T06:02:55Z</time>
      </trkpt>
      <trkpt lat="41.5053220" lon="-4.9993720">
        <ele>701.0</ele>
        <time>2019-08-15T06:02:56Z</time>
      </trkpt>
      <trkpt lat="41.5053550" lon="-4.9993740">
        <ele>701.0</ele>
        <time>2019-08-15T06:02:57Z</time>
      </trkpt>
      <trkpt lat="41.5053880" lon="-4.9993780">
        <ele>701.0</ele>
        <time>2019-08-15T06:02:58Z</time>
      </trkpt>
      <trkpt lat="41.5054220" lon="-4.9993820">
        <ele>701.0</ele>
        <time>2019-08-15T06:02:59Z</time>
      </trkpt>
      <trkpt lat="41.5054560" lon="-4.9993860">
        <ele>701.0</ele>
        <time>2019-08-15T06:03:00Z</time>
      </trkpt>
      <trkpt lat="41.5054890" lon="-4.9993910">
        <ele>701.0</ele>
        <time>2019-08-15T06:03:01Z</time>
      </trkpt>
      <trkpt lat="41.5055220" lon="-4.9993990">
        <ele>701.0</ele>
        <time>2019-08-15T06:03:02Z</time>
      </trkpt>
      <trkpt lat="41.5055530" lon="-4.9994090">
        <ele>700.9</ele>
        <time>2019-08-15T06:03:03Z</time>
      </trkpt>
      <trkpt lat="41.5055850" lon="-4.9994180">
        <ele>700.8</ele>
        <time>2019-08-15T06:03:04Z</time>
      </trkpt>
      <trkpt lat="41.5056150" lon="-4.9994270">
        <ele>700.7</ele>
        <time>2019-08-15T06:03:05Z</time>
      </trkpt>
      <trkpt lat="41.5056460" lon="-4.9994330">
        <ele>700.7</ele>
        <time>2019-08-15T06:03:06Z</time>
      </trkpt>
      <trkpt lat="41.5056770" lon="-4.9994390">
        <ele>700.6</ele>
        <time>2019-08-15T06:03:07Z</time>
      </trkpt>
      <trkpt lat="41.5057080" lon="-4.9994450">
        <ele>700.5</ele>
        <time>2019-08-15T06:03:08Z</time>
      </trkpt>
      <trkpt lat="41.5057410" lon="-4.9994530">
        <ele>700.4</ele>
        <time>2019-08-15T06:03:09Z</time>
      </trkpt>
      <trkpt lat="41.5057760" lon="-4.9994610">
        <ele>700.3</ele>
        <time>2019-08-15T06:03:10Z</time>
      </trkpt>
      <trkpt lat="41.5058110" lon="-4.9994680">
        <ele>700.2</ele>
        <time>2019-08-15T06:03:11Z</time>
      </trkpt>
      <trkpt lat="41.5058480" lon="-4.9994760">
        <ele>700.1</ele>
        <time>2019-08-15T06:03:12Z</time>
      </trkpt>
      <trkpt lat="41.5058860" lon="-4.9994830">
        <ele>700.0</ele>
        <time>2019-08-15T06:03:13Z</time>
      </trkpt>
      <trkpt lat="41.5059240" lon="-4.9994920">
        <ele>700.0</ele>
        <time>2019-08-15T06:03:14Z</time>
      </trkpt>
      <trkpt lat="41.5059630" lon="-4.9995000">
        <ele>700.0</ele>
        <time>2019-08-15T06:03:15Z</time>
      </trkpt>
      <trkpt lat="41.5060010" lon="-4.9995130">
        <ele>700.0</ele>
        <time>2019-08-15T06:03:16Z</time>
      </trkpt>
      <trkpt lat="41.5060380" lon="-4.9995260">
        <ele>700.0</ele>
        <time>2019-08-15T06:03:17Z</time>
      </trkpt>
      <trkpt lat="41.5060770" lon="-4.9995310">
        <ele>700.0</ele>
        <time>2019-08-15T06:03:18Z</time>
      </trkpt>
      <trkpt lat="41.5061140" lon="-4.9995380">
        <ele>700.0</ele>
        <time>2019-08-15T06:03:19Z</time>
      </trkpt>
      <trkpt lat="41.5061500" lon="-4.9995450">
        <ele>699.9</ele>
        <time>2019-08-15T06:03:20Z</time>
      </trkpt>
      <trkpt lat="41.5061860" lon="-4.9995590">
        <ele>699.9</ele>
        <time>2019-08-15T06:03:21Z</time>
      </trkpt>
      <trkpt lat="41.5062210" lon="-4.9995690">
        <ele>699.9</ele>
        <time>2019-08-15T06:03:22Z</time>
      </trkpt>
      <trkpt lat="41.5062560" lon="-4.9995760">
        <ele>699.9</ele>
        <time>2019-08-15T06:03:23Z</time>
      </trkpt>
      <trkpt lat="41.5062900" lon="-4.9995840">
        <ele>699.9</ele>
        <time>2019-08-15T06:03:24Z</time>
      </trkpt>
      <trkpt lat="41.5063240" lon="-4.9995950">
        <ele>699.9</ele>
        <time>2019-08-15T06:03:25Z</time>
      </trkpt>
      <trkpt lat="41.5063570" lon="-4.9996050">
        <ele>699.8</ele>
        <time>2019-08-15T06:03:26Z</time>
      </trkpt>
      <trkpt lat="41.5063920" lon="-4.9996140">
        <ele>699.8</ele>
        <time>2019-08-15T06:03:27Z</time>
      </trkpt>
      <trkpt lat="41.5064280" lon="-4.9996230">
        <ele>699.8</ele>
        <time>2019-08-15T06:03:28Z</time>
      </trkpt>
      <trkpt lat="41.5064670" lon="-4.9996320">
        <ele>699.8</ele>
        <time>2019-08-15T06:03:29Z</time>
      </trkpt>
      <trkpt lat="41.5065060" lon="-4.9996390">
        <ele>699.7</ele>
        <time>2019-08-15T06:03:30Z</time>
      </trkpt>
      <trkpt lat="41.5065440" lon="-4.9996480">
        <ele>699.7</ele>
        <time>2019-08-15T06:03:31Z</time>
      </trkpt>
      <trkpt lat="41.5065810" lon="-4.9996580">
        <ele>699.8</ele>
        <time>2019-08-15T06:03:32Z</time>
      </trkpt>
      <trkpt lat="41.5066170" lon="-4.9996670">
        <ele>699.8</ele>
        <time>2019-08-15T06:03:33Z</time>
      </trkpt>
      <trkpt lat="41.5066530" lon="-4.9996750">
        <ele>699.8</ele>
        <time>2019-08-15T06:03:34Z</time>
      </trkpt>
      <trkpt lat="41.5066890" lon="-4.9996830">
        <ele>699.8</ele>
        <time>2019-08-15T06:03:35Z</time>
      </trkpt>
      <trkpt lat="41.5067260" lon="-4.9996900">
        <ele>699.9</ele>
        <time>2019-08-15T06:03:36Z</time>
      </trkpt>
      <trkpt lat="41.5067650" lon="-4.9996990">
        <ele>699.9</ele>
        <time>2019-08-15T06:03:37Z</time>
      </trkpt>
      <trkpt lat="41.5068050" lon="-4.9997090">
        <ele>699.9</ele>
        <time>2019-08-15T06:03:38Z</time>
      </trkpt>
      <trkpt lat="41.5068440" lon="-4.9997200">
        <ele>699.9</ele>
        <time>2019-08-15T06:03:39Z</time>
      </trkpt>
      <trkpt lat="41.5068830" lon="-4.9997310">
        <ele>699.9</ele>
        <time>2019-08-15T06:03:40Z</time>
      </trkpt>
      <trkpt lat="41.5069210" lon="-4.9997410">
        <ele>700.0</ele>
        <time>2019-08-15T06:03:41Z</time>
      </trkpt>
      <trkpt lat="41.5069600" lon="-4.9997500">
        <ele>700.0</ele>
        <time>2019-08-15T06:03:42Z</time>
      </trkpt>
      <trkpt lat="41.5069970" lon="-4.9997580">
        <ele>700.0</ele>
        <time>2019-08-15T06:03:43Z</time>
      </trkpt>
      <trkpt lat="41.5070360" lon="-4.9997680">
        <ele>700.0</ele>
        <time>2019-08-15T06:03:44Z</time>
      </trkpt>
      <trkpt lat="41.5070760" lon="-4.9997780">
        <ele>700.0</ele>
        <time>2019-08-15T06:03:45Z</time>
      </trkpt>
      <trkpt lat="41.5071160" lon="-4.9997880">
        <ele>700.0</ele>
        <time>2019-08-15T06:03:46Z</time>
      </trkpt>
      <trkpt lat="41.5071550" lon="-4.9998000">
        <ele>700.0</ele>
        <time>2019-08-15T06:03:47Z</time>
      </trkpt>
      <trkpt lat="41.5071960" lon="-4.9998130">
        <ele>700.0</ele>
        <time>2019-08-15T06:03:48Z</time>
      </trkpt>
      <trkpt lat="41.5072380" lon="-4.9998250">
        <ele>700.0</ele>
        <time>2019-08-15T06:03:49Z</time>
      </trkpt>
      <trkpt lat="41.5072780" lon="-4.9998370">
        <ele>700.1</ele>
        <time>2019-08-15T06:03:50Z</time>
      </trkpt>
      <trkpt lat="41.5073190" lon="-4.9998470">
        <ele>700.1</ele>
        <time>2019-08-15T06:03:51Z</time>
      </trkpt>
      <trkpt lat="41.5073590" lon="-4.9998590">
        <ele>700.1</ele>
        <time>2019-08-15T06:03:52Z</time>
      </trkpt>
      <trkpt lat="41.5073960" lon="-4.9998700">
        <ele>700.1</ele>
        <time>2019-08-15T06:03:53Z</time>
      </trkpt>
      <trkpt lat="41.5074340" lon="-4.9998790">
        <ele>700.1</ele>
        <time>2019-08-15T06:03:54Z</time>
      </trkpt>
      <trkpt lat="41.5074730" lon="-4.9998890">
        <ele>700.1</ele>
        <time>2019-08-15T06:03:55Z</time>
      </trkpt>
      <trkpt lat="41.5075120" lon="-4.9999010">
        <ele>700.1</ele>
        <time>2019-08-15T06:03:56Z</time>
      </trkpt>
      <trkpt lat="41.5075520" lon="-4.9999130">
        <ele>700.1</ele>
        <time>2019-08-15T06:03:57Z</time>
      </trkpt>
      <trkpt lat="41.5075920" lon="-4.9999250">
        <ele>700.1</ele>
        <time>2019-08-15T06:03:58Z</time>
      </trkpt>
      <trkpt lat="41.5076320" lon="-4.9999390">
        <ele>700.1</ele>
        <time>2019-08-15T06:03:59Z</time>
      </trkpt>
      <trkpt lat="41.5076720" lon="-4.9999500">
        <ele>700.1</ele>
        <time>2019-08-15T06:04:00Z</time>
      </trkpt>
      <trkpt lat="41.5077110" lon="-4.9999620">
        <ele>700.2</ele>
        <time>2019-08-15T06:04:01Z</time>
      </trkpt>
      <trkpt lat="41.5077500" lon="-4.9999730">
        <ele>700.2</ele>
        <time>2019-08-15T06:04:02Z</time>
      </trkpt>
      <trkpt lat="41.5077890" lon="-4.9999820">
        <ele>700.2</ele>
        <time>2019-08-15T06:04:03Z</time>
      </trkpt>
      <trkpt lat="41.5078290" lon="-4.9999940">
        <ele>700.2</ele>
        <time>2019-08-15T06:04:04Z</time>
      </trkpt>
      <trkpt lat="41.5078700" lon="-5.0000060">
        <ele>700.2</ele>
        <time>2019-08-15T06:04:05Z</time>
      </trkpt>
      <trkpt lat="41.5079120" lon="-5.0000170">
        <ele>700.2</ele>
        <time>2019-08-15T06:04:06Z</time>
      </trkpt>
      <trkpt lat="41.5079540" lon="-5.0000270">
        <ele>700.2</ele>
        <time>2019-08-15T06:04:07Z</time>
      </trkpt>
      <trkpt lat="41.5079970" lon="-5.0000390">
        <ele>700.2</ele>
        <time>2019-08-15T06:04:08Z</time>
      </trkpt>
      <trkpt lat="41.5080390" lon="-5.0000500">
        <ele>700.2</ele>
        <time>2019-08-15T06:04:09Z</time>
      </trkpt>
      <trkpt lat="41.5080810" lon="-5.0000600">
        <ele>700.2</ele>
        <time>2019-08-15T06:04:10Z</time>
      </trkpt>
      <trkpt lat="41.5081240" lon="-5.0000710">
        <ele>700.1</ele>
        <time>2019-08-15T06:04:11Z</time>
      </trkpt>
      <trkpt lat="41.5081680" lon="-5.0000810">
        <ele>700.0</ele>
        <time>2019-08-15T06:04:12Z</time>
      </trkpt>
      <trkpt lat="41.5082130" lon="-5.0000920">
        <ele>699.9</ele>
        <time>2019-08-15T06:04:13Z</time>
      </trkpt>
      <trkpt lat="41.5082580" lon="-5.0001040">
        <ele>699.8</ele>
        <time>2019-08-15T06:04:14Z</time>
      </trkpt>
      <trkpt lat="41.5083000" lon="-5.0001160">
        <ele>699.7</ele>
        <time>2019-08-15T06:04:15Z</time>
      </trkpt>
      <trkpt lat="41.5083430" lon="-5.0001280">
        <ele>699.5</ele>
        <time>2019-08-15T06:04:16Z</time>
      </trkpt>
      <trkpt lat="41.5083860" lon="-5.0001390">
        <ele>699.3</ele>
        <time>2019-08-15T06:04:17Z</time>
      </trkpt>
      <trkpt lat="41.5084300" lon="-5.0001510">
        <ele>699.1</ele>
        <time>2019-08-15T06:04:18Z</time>
      </trkpt>
      <trkpt lat="41.5084740" lon="-5.0001640">
        <ele>698.9</ele>
        <time>2019-08-15T06:04:19Z</time>
      </trkpt>
      <trkpt lat="41.5085190" lon="-5.0001770">
        <ele>698.7</ele>
        <time>2019-08-15T06:04:20Z</time>
      </trkpt>
      <trkpt lat="41.5085650" lon="-5.0001890">
        <ele>698.6</ele>
        <time>2019-08-15T06:04:21Z</time>
      </trkpt>
      <trkpt lat="41.5086090" lon="-5.0002000">
        <ele>698.4</ele>
        <time>2019-08-15T06:04:22Z</time>
      </trkpt>
      <trkpt lat="41.5086530" lon="-5.0002130">
        <ele>698.2</ele>
        <time>2019-08-15T06:04:23Z</time>
      </trkpt>
      <trkpt lat="41.5086970" lon="-5.0002270">
        <ele>698.1</ele>
        <time>2019-08-15T06:04:24Z</time>
      </trkpt>
      <trkpt lat="41.5087400" lon="-5.0002380">
        <ele>698.0</ele>
        <time>2019-08-15T06:04:25Z</time>
      </trkpt>
      <trkpt lat="41.5087820" lon="-5.0002490">
        <ele>697.8</ele>
        <time>2019-08-15T06:04:26Z</time>
      </trkpt>
      <trkpt lat="41.5088250" lon="-5.0002590">
        <ele>697.8</ele>
        <time>2019-08-15T06:04:27Z</time>
      </trkpt>
      <trkpt lat="41.5088670" lon="-5.0002700">
        <ele>697.7</ele>
        <time>2019-08-15T06:04:28Z</time>
      </trkpt>
      <trkpt lat="41.5089090" lon="-5.0002840">
        <ele>697.6</ele>
        <time>2019-08-15T06:04:29Z</time>
      </trkpt>
      <trkpt lat="41.5089510" lon="-5.0002980">
        <ele>697.6</ele>
        <time>2019-08-15T06:04:30Z</time>
      </trkpt>
      <trkpt lat="41.5089930" lon="-5.0003120">
        <ele>697.5</ele>
        <time>2019-08-15T06:04:31Z</time>
      </trkpt>
      <trkpt lat="41.5090330" lon="-5.0003250">
        <ele>697.4</ele>
        <time>2019-08-15T06:04:32Z</time>
      </trkpt>
      <trkpt lat="41.5090740" lon="-5.0003390">
        <ele>697.4</ele>
        <time>2019-08-15T06:04:33Z</time>
      </trkpt>
      <trkpt lat="41.5091170" lon="-5.0003540">
        <ele>697.3</ele>
        <time>2019-08-15T06:04:34Z</time>
      </trkpt>
      <trkpt lat="41.5091600" lon="-5.0003680">
        <ele>697.6</ele>
        <time>2019-08-15T06:04:35Z</time>
      </trkpt>
      <trkpt lat="41.5092040" lon="-5.0003800">
        <ele>697.7</ele>
        <time>2019-08-15T06:04:36Z</time>
      </trkpt>
      <trkpt lat="41.5092480" lon="-5.0003920">
        <ele>697.9</ele>
        <time>2019-08-15T06:04:37Z</time>
      </trkpt>
      <trkpt lat="41.5092920" lon="-5.0004060">
        <ele>698.0</ele>
        <time>2019-08-15T06:04:38Z</time>
      </trkpt>
      <trkpt lat="41.5093370" lon="-5.0004180">
        <ele>698.1</ele>
        <time>2019-08-15T06:04:39Z</time>
      </trkpt>
      <trkpt lat="41.5093830" lon="-5.0004310">
        <ele>698.3</ele>
        <time>2019-08-15T06:04:40Z</time>
      </trkpt>
      <trkpt lat="41.5094300" lon="-5.0004440">
        <ele>698.4</ele>
        <time>2019-08-15T06:04:41Z</time>
      </trkpt>
      <trkpt lat="41.5094750" lon="-5.0004560">
        <ele>698.6</ele>
        <time>2019-08-15T06:04:42Z</time>
      </trkpt>
      <trkpt lat="41.5095200" lon="-5.0004680">
        <ele>698.7</ele>
        <time>2019-08-15T06:04:43Z</time>
      </trkpt>
      <trkpt lat="41.5095640" lon="-5.0004810">
        <ele>698.5</ele>
        <time>2019-08-15T06:04:44Z</time>
      </trkpt>
      <trkpt lat="41.5096090" lon="-5.0004940">
        <ele>698.3</ele>
        <time>2019-08-15T06:04:45Z</time>
      </trkpt>
      <trkpt lat="41.5096550" lon="-5.0005090">
        <ele>698.1</ele>
        <time>2019-08-15T06:04:46Z</time>
      </trkpt>
      <trkpt lat="41.5097020" lon="-5.0005220">
        <ele>697.9</ele>
        <time>2019-08-15T06:04:47Z</time>
      </trkpt>
      <trkpt lat="41.5097490" lon="-5.0005350">
        <ele>697.6</ele>
        <time>2019-08-15T06:04:48Z</time>
      </trkpt>
      <trkpt lat="41.5097960" lon="-5.0005470">
        <ele>697.3</ele>
        <time>2019-08-15T06:04:49Z</time>
      </trkpt>
      <trkpt lat="41.5098410" lon="-5.0005590">
        <ele>697.0</ele>
        <time>2019-08-15T06:04:50Z</time>
      </trkpt>
      <trkpt lat="41.5098860" lon="-5.0005710">
        <ele>696.7</ele>
        <time>2019-08-15T06:04:51Z</time>
      </trkpt>
      <trkpt lat="41.5099290" lon="-5.0005900">
        <ele>696.5</ele>
        <time>2019-08-15T06:04:52Z</time>
      </trkpt>
      <trkpt lat="41.5099730" lon="-5.0006040">
        <ele>696.3</ele>
        <time>2019-08-15T06:04:53Z</time>
      </trkpt>
      <trkpt lat="41.5100170" lon="-5.0006180">
        <ele>696.1</ele>
        <time>2019-08-15T06:04:54Z</time>
      </trkpt>
      <trkpt lat="41.5100620" lon="-5.0006320">
        <ele>696.0</ele>
        <time>2019-08-15T06:04:55Z</time>
      </trkpt>
      <trkpt lat="41.5101070" lon="-5.0006430">
        <ele>695.9</ele>
        <time>2019-08-15T06:04:56Z</time>
      </trkpt>
      <trkpt lat="41.5101520" lon="-5.0006540">
        <ele>695.8</ele>
        <time>2019-08-15T06:04:57Z</time>
      </trkpt>
      <trkpt lat="41.5101970" lon="-5.0006660">
        <ele>695.7</ele>
        <time>2019-08-15T06:04:58Z</time>
      </trkpt>
      <trkpt lat="41.5102420" lon="-5.0006770">
        <ele>695.6</ele>
        <time>2019-08-15T06:04:59Z</time>
      </trkpt>
      <trkpt lat="41.5102880" lon="-5.0006880">
        <ele>695.5</ele>
        <time>2019-08-15T06:05:00Z</time>
      </trkpt>
      <trkpt lat="41.5103330" lon="-5.0007000">
        <ele>695.4</ele>
        <time>2019-08-15T06:05:01Z</time>
      </trkpt>
      <trkpt lat="41.5103770" lon="-5.0007100">
        <ele>695.2</ele>
        <time>2019-08-15T06:05:02Z</time>
      </trkpt>
      <trkpt lat="41.5104230" lon="-5.0007220">
        <ele>695.0</ele>
        <time>2019-08-15T06:05:03Z</time>
      </trkpt>
      <trkpt lat="41.5104680" lon="-5.0007340">
        <ele>694.8</ele>
        <time>2019-08-15T06:05:04Z</time>
      </trkpt>
      <trkpt lat="41.5105140" lon="-5.0007480">
        <ele>694.5</ele>
        <time>2019-08-15T06:05:05Z</time>
      </trkpt>
      <trkpt lat="41.5105590" lon="-5.0007600">
        <ele>694.3</ele>
        <time>2019-08-15T06:05:06Z</time>
      </trkpt>
      <trkpt lat="41.5106040" lon="-5.0007730">
        <ele>694.1</ele>
        <time>2019-08-15T06:05:07Z</time>
      </trkpt>
      <trkpt lat="41.5106500" lon="-5.0007870">
        <ele>693.6</ele>
        <time>2019-08-15T06:05:08Z</time>
      </trkpt>
      <trkpt lat="41.5106950" lon="-5.0008000">
        <ele>693.4</ele>
        <time>2019-08-15T06:05:09Z</time>
      </trkpt>
      <trkpt lat="41.5107390" lon="-5.0008130">
        <ele>693.2</ele>
        <time>2019-08-15T06:05:10Z</time>
      </trkpt>
      <trkpt lat="41.5107830" lon="-5.0008250">
        <ele>693.1</ele>
        <time>2019-08-15T06:05:11Z</time>
      </trkpt>
      <trkpt lat="41.5108260" lon="-5.0008360">
        <ele>693.1</ele>
        <time>2019-08-15T06:05:12Z</time>
      </trkpt>
      <trkpt lat="41.5108680" lon="-5.0008460">
        <ele>693.2</ele>
        <time>2019-08-15T06:05:13Z</time>
      </trkpt>
      <trkpt lat="41.5109080" lon="-5.0008560">
        <ele>693.4</ele>
        <time>2019-08-15T06:05:14Z</time>
      </trkpt>
      <trkpt lat="41.5109480" lon="-5.0008650">
        <ele>693.6</ele>
        <time>2019-08-15T06:05:15Z</time>
      </trkpt>
      <trkpt lat="41.5109880" lon="-5.0008750">
        <ele>693.8</ele>
        <time>2019-08-15T06:05:16Z</time>
      </trkpt>
      <trkpt lat="41.5110300" lon="-5.0008830">
        <ele>694.0</ele>
        <time>2019-08-15T06:05:17Z</time>
      </trkpt>
      <trkpt lat="41.5110720" lon="-5.0008910">
        <ele>694.1</ele>
        <time>2019-08-15T06:05:18Z</time>
      </trkpt>
      <trkpt lat="41.5111130" lon="-5.0008980">
        <ele>694.2</ele>
        <time>2019-08-15T06:05:19Z</time>
      </trkpt>
      <trkpt lat="41.5111540" lon="-5.0009050">
        <ele>694.2</ele>
        <time>2019-08-15T06:05:20Z</time>
      </trkpt>
      <trkpt lat="41.5111950" lon="-5.0009120">
        <ele>694.2</ele>
        <time>2019-08-15T06:05:21Z</time>
      </trkpt>
      <trkpt lat="41.5112380" lon="-5.0009200">
        <ele>694.2</ele>
        <time>2019-08-15T06:05:22Z</time>
      </trkpt>
      <trkpt lat="41.5112800" lon="-5.0009290">
        <ele>694.2</ele>
        <time>2019-08-15T06:05:23Z</time>
      </trkpt>
      <trkpt lat="41.5113220" lon="-5.0009400">
        <ele>694.2</ele>
        <time>2019-08-15T06:05:24Z</time>
      </trkpt>
      <trkpt lat="41.5113640" lon="-5.0009510">
        <ele>694.2</ele>
        <time>2019-08-15T06:05:25Z</time>
      </trkpt>
      <trkpt lat="41.5114060" lon="-5.0009640">
        <ele>694.2</ele>
        <time>2019-08-15T06:05:26Z</time>
      </trkpt>
      <trkpt lat="41.5114480" lon="-5.0009750">
        <ele>694.2</ele>
        <time>2019-08-15T06:05:27Z</time>
      </trkpt>
      <trkpt lat="41.5114890" lon="-5.0009870">
        <ele>694.2</ele>
        <time>2019-08-15T06:05:28Z</time>
      </trkpt>
      <trkpt lat="41.5115300" lon="-5.0009970">
        <ele>694.2</ele>
        <time>2019-08-15T06:05:29Z</time>
      </trkpt>
      <trkpt lat="41.5115700" lon="-5.0010080">
        <ele>694.2</ele>
        <time>2019-08-15T06:05:30Z</time>
      </trkpt>
      <trkpt lat="41.5116090" lon="-5.0010190">
        <ele>694.2</ele>
        <time>2019-08-15T06:05:31Z</time>
      </trkpt>
      <trkpt lat="41.5116470" lon="-5.0010300">
        <ele>694.2</ele>
        <time>2019-08-15T06:05:32Z</time>
      </trkpt>
      <trkpt lat="41.5116860" lon="-5.0010420">
        <ele>694.2</ele>
        <time>2019-08-15T06:05:33Z</time>
      </trkpt>
      <trkpt lat="41.5117240" lon="-5.0010530">
        <ele>694.2</ele>
        <time>2019-08-15T06:05:34Z</time>
      </trkpt>
      <trkpt lat="41.5117630" lon="-5.0010630">
        <ele>694.3</ele>
        <time>2019-08-15T06:05:35Z</time>
      </trkpt>
      <trkpt lat="41.5118000" lon="-5.0010710">
        <ele>694.3</ele>
        <time>2019-08-15T06:05:36Z</time>
      </trkpt>
      <trkpt lat="41.5118350" lon="-5.0010800">
        <ele>694.3</ele>
        <time>2019-08-15T06:05:37Z</time>
      </trkpt>
      <trkpt lat="41.5118700" lon="-5.0010910">
        <ele>694.4</ele>
        <time>2019-08-15T06:05:38Z</time>
      </trkpt>
      <trkpt lat="41.5119040" lon="-5.0011020">
        <ele>694.4</ele>
        <time>2019-08-15T06:05:39Z</time>
      </trkpt>
      <trkpt lat="41.5119360" lon="-5.0011130">
        <ele>694.5</ele>
        <time>2019-08-15T06:05:40Z</time>
      </trkpt>
      <trkpt lat="41.5119680" lon="-5.0011220">
        <ele>694.6</ele>
        <time>2019-08-15T06:05:41Z</time>
      </trkpt>
      <trkpt lat="41.5119990" lon="-5.0011300">
        <ele>694.6</ele>
        <time>2019-08-15T06:05:42Z</time>
      </trkpt>
      <trkpt lat="41.5120300" lon="-5.0011380">
        <ele>694.7</ele>
        <time>2019-08-15T06:05:43Z</time>
      </trkpt>
      <trkpt lat="41.5120600" lon="-5.0011480">
        <ele>694.8</ele>
        <time>2019-08-15T06:05:44Z</time>
      </trkpt>
      <trkpt lat="41.5120910" lon="-5.0011560">
        <ele>694.9</ele>
        <time>2019-08-15T06:05:45Z</time>
      </trkpt>
      <trkpt lat="41.5121210" lon="-5.0011630">
        <ele>694.9</ele>
        <time>2019-08-15T06:05:46Z</time>
      </trkpt>
      <trkpt lat="41.5121500" lon="-5.0011710">
        <ele>695.0</ele>
        <time>2019-08-15T06:05:47Z</time>
      </trkpt>
      <trkpt lat="41.5121800" lon="-5.0011780">
        <ele>695.1</ele>
        <time>2019-08-15T06:05:48Z</time>
      </trkpt>
      <trkpt lat="41.5122090" lon="-5.0011870">
        <ele>695.2</ele>
        <time>2019-08-15T06:05:49Z</time>
      </trkpt>
      <trkpt lat="41.5122380" lon="-5.0011950">
        <ele>695.3</ele>
        <time>2019-08-15T06:05:50Z</time>
      </trkpt>
      <trkpt lat="41.5122670" lon="-5.0012030">
        <ele>695.4</ele>
        <time>2019-08-15T06:05:51Z</time>
      </trkpt>
      <trkpt lat="41.5122960" lon="-5.0012110">
        <ele>695.5</ele>
        <time>2019-08-15T06:05:52Z</time>
      </trkpt>
      <trkpt lat="41.5123250" lon="-5.0012190">
        <ele>695.6</ele>
        <time>2019-08-15T06:05:53Z</time>
      </trkpt>
      <trkpt lat="41.5123540" lon="-5.0012280">
        <ele>695.7</ele>
        <time>2019-08-15T06:05:54Z</time>
      </trkpt>
      <trkpt lat="41.5123830" lon="-5.0012360">
        <ele>695.8</ele>
        <time>2019-08-15T06:05:55Z</time>
      </trkpt>
      <trkpt lat="41.5124110" lon="-5.0012430">
        <ele>695.9</ele>
        <time>2019-08-15T06:05:56Z</time>
      </trkpt>
      <trkpt lat="41.5124400" lon="-5.0012510">
        <ele>696.0</ele>
        <time>2019-08-15T06:05:57Z</time>
      </trkpt>
      <trkpt lat="41.5124680" lon="-5.0012590">
        <ele>696.1</ele>
        <time>2019-08-15T06:05:58Z</time>
      </trkpt>
      <trkpt lat="41.5124960" lon="-5.0012670">
        <ele>696.2</ele>
        <time>2019-08-15T06:05:59Z</time>
      </trkpt>
      <trkpt lat="41.5125240" lon="-5.0012740">
        <ele>696.3</ele>
        <time>2019-08-15T06:06:00Z</time>
      </trkpt>
      <trkpt lat="41.5125530" lon="-5.0012820">
        <ele>696.4</ele>
        <time>2019-08-15T06:06:01Z</time>
      </trkpt>
      <trkpt lat="41.5125820" lon="-5.0012900">
        <ele>696.5</ele>
        <time>2019-08-15T06:06:02Z</time>
      </trkpt>
      <trkpt lat="41.5126100" lon="-5.0012980">
        <ele>696.6</ele>
        <time>2019-08-15T06:06:03Z</time>
      </trkpt>
      <trkpt lat="41.5126390" lon="-5.0013060">
        <ele>696.7</ele>
        <time>2019-08-15T06:06:04Z</time>
      </trkpt>
      <trkpt lat="41.5126670" lon="-5.0013140">
        <ele>696.8</ele>
        <time>2019-08-15T06:06:05Z</time>
      </trkpt>
      <trkpt lat="41.5126950" lon="-5.0013210">
        <ele>696.9</ele>
        <time>2019-08-15T06:06:06Z</time>
      </trkpt>
      <trkpt lat="41.5127230" lon="-5.0013270">
        <ele>697.1</ele>
        <time>2019-08-15T06:06:07Z</time>
      </trkpt>
      <trkpt lat="41.5127520" lon="-5.0013350">
        <ele>697.2</ele>
        <time>2019-08-15T06:06:08Z</time>
      </trkpt>
      <trkpt lat="41.5127800" lon="-5.0013440">
        <ele>697.4</ele>
        <time>2019-08-15T06:06:09Z</time>
      </trkpt>
      <trkpt lat="41.5128080" lon="-5.0013530">
        <ele>697.6</ele>
        <time>2019-08-15T06:06:10Z</time>
      </trkpt>
      <trkpt lat="41.5128360" lon="-5.0013610">
        <ele>697.8</ele>
        <time>2019-08-15T06:06:11Z</time>
      </trkpt>
      <trkpt lat="41.5128640" lon="-5.0013670">
        <ele>698.0</ele>
        <time>2019-08-15T06:06:12Z</time>
      </trkpt>
      <trkpt lat="41.5128920" lon="-5.0013750">
        <ele>698.1</ele>
        <time>2019-08-15T06:06:13Z</time>
      </trkpt>
      <trkpt lat="41.5129200" lon="-5.0013830">
        <ele>698.1</ele>
        <time>2019-08-15T06:06:14Z</time>
      </trkpt>
      <trkpt lat="41.5129480" lon="-5.0013900">
        <ele>698.1</ele>
        <time>2019-08-15T06:06:15Z</time>
      </trkpt>
      <trkpt lat="41.5129750" lon="-5.0013980">
        <ele>698.1</ele>
        <time>2019-08-15T06:06:16Z</time>
      </trkpt>
      <trkpt lat="41.5130010" lon="-5.0014060">
        <ele>698.1</ele>
        <time>2019-08-15T06:06:17Z</time>
      </trkpt>
      <trkpt lat="41.5130530" lon="-5.0014190">
        <ele>698.1</ele>
        <time>2019-08-15T06:06:19Z</time>
      </trkpt>
      <trkpt lat="41.5130810" lon="-5.0014270">
        <ele>698.1</ele>
        <time>2019-08-15T06:06:20Z</time>
      </trkpt>
      <trkpt lat="41.5131080" lon="-5.0014340">
        <ele>698.1</ele>
        <time>2019-08-15T06:06:21Z</time>
      </trkpt>
      <trkpt lat="41.5131360" lon="-5.0014420">
        <ele>698.1</ele>
        <time>2019-08-15T06:06:22Z</time>
      </trkpt>
      <trkpt lat="41.5131630" lon="-5.0014510">
        <ele>698.1</ele>
        <time>2019-08-15T06:06:23Z</time>
      </trkpt>
      <trkpt lat="41.5131910" lon="-5.0014590">
        <ele>698.1</ele>
        <time>2019-08-15T06:06:24Z</time>
      </trkpt>
      <trkpt lat="41.5132190" lon="-5.0014670">
        <ele>698.1</ele>
        <time>2019-08-15T06:06:25Z</time>
      </trkpt>
      <trkpt lat="41.5132470" lon="-5.0014750">
        <ele>698.1</ele>
        <time>2019-08-15T06:06:26Z</time>
      </trkpt>
      <trkpt lat="41.5132750" lon="-5.0014830">
        <ele>698.1</ele>
        <time>2019-08-15T06:06:27Z</time>
      </trkpt>
      <trkpt lat="41.5133040" lon="-5.0014910">
        <ele>698.0</ele>
        <time>2019-08-15T06:06:28Z</time>
      </trkpt>
      <trkpt lat="41.5133340" lon="-5.0014980">
        <ele>698.0</ele>
        <time>2019-08-15T06:06:29Z</time>
      </trkpt>
      <trkpt lat="41.5133650" lon="-5.0015050">
        <ele>698.0</ele>
        <time>2019-08-15T06:06:30Z</time>
      </trkpt>
      <trkpt lat="41.5133970" lon="-5.0015110">
        <ele>697.9</ele>
        <time>2019-08-15T06:06:31Z</time>
      </trkpt>
      <trkpt lat="41.5134290" lon="-5.0015190">
        <ele>697.9</ele>
        <time>2019-08-15T06:06:32Z</time>
      </trkpt>
      <trkpt lat="41.5134620" lon="-5.0015280">
        <ele>697.8</ele>
        <time>2019-08-15T06:06:33Z</time>
      </trkpt>
      <trkpt lat="41.5134960" lon="-5.0015380">
        <ele>697.8</ele>
        <time>2019-08-15T06:06:34Z</time>
      </trkpt>
      <trkpt lat="41.5135310" lon="-5.0015490">
        <ele>697.7</ele>
        <time>2019-08-15T06:06:35Z</time>
      </trkpt>
      <trkpt lat="41.5135670" lon="-5.0015590">
        <ele>697.6</ele>
        <time>2019-08-15T06:06:36Z</time>
      </trkpt>
      <trkpt lat="41.5136030" lon="-5.0015690">
        <ele>697.6</ele>
        <time>2019-08-15T06:06:37Z</time>
      </trkpt>
      <trkpt lat="41.5136380" lon="-5.0015790">
        <ele>697.6</ele>
        <time>2019-08-15T06:06:38Z</time>
      </trkpt>
      <trkpt lat="41.5136750" lon="-5.0015900">
        <ele>697.7</ele>
        <time>2019-08-15T06:06:39Z</time>
      </trkpt>
      <trkpt lat="41.5137120" lon="-5.0016020">
        <ele>697.7</ele>
        <time>2019-08-15T06:06:40Z</time>
      </trkpt>
      <trkpt lat="41.5137490" lon="-5.0016130">
        <ele>697.8</ele>
        <time>2019-08-15T06:06:41Z</time>
      </trkpt>
      <trkpt lat="41.5137850" lon="-5.0016240">
        <ele>697.8</ele>
        <time>2019-08-15T06:06:42Z</time>
      </trkpt>
      <trkpt lat="41.5138220" lon="-5.0016340">
        <ele>697.9</ele>
        <time>2019-08-15T06:06:43Z</time>
      </trkpt>
      <trkpt lat="41.5138580" lon="-5.0016430">
        <ele>697.9</ele>
        <time>2019-08-15T06:06:44Z</time>
      </trkpt>
      <trkpt lat="41.5138950" lon="-5.0016540">
        <ele>697.9</ele>
        <time>2019-08-15T06:06:45Z</time>
      </trkpt>
      <trkpt lat="41.5139330" lon="-5.0016640">
        <ele>697.9</ele>
        <time>2019-08-15T06:06:46Z</time>
      </trkpt>
      <trkpt lat="41.5139720" lon="-5.0016740">
        <ele>697.9</ele>
        <time>2019-08-15T06:06:47Z</time>
      </trkpt>
      <trkpt lat="41.5140120" lon="-5.0016830">
        <ele>697.9</ele>
        <time>2019-08-15T06:06:48Z</time>
      </trkpt>
      <trkpt lat="41.5140540" lon="-5.0016940">
        <ele>698.0</ele>
        <time>2019-08-15T06:06:49Z</time>
      </trkpt>
      <trkpt lat="41.5140970" lon="-5.0017070">
        <ele>698.0</ele>
        <time>2019-08-15T06:06:50Z</time>
      </trkpt>
      <trkpt lat="41.5141410" lon="-5.0017220">
        <ele>698.0</ele>
        <time>2019-08-15T06:06:51Z</time>
      </trkpt>
      <trkpt lat="41.5141880" lon="-5.0017350">
        <ele>698.0</ele>
        <time>2019-08-15T06:06:52Z</time>
      </trkpt>
      <trkpt lat="41.5142380" lon="-5.0017490">
        <ele>698.0</ele>
        <time>2019-08-15T06:06:53Z</time>
      </trkpt>
      <trkpt lat="41.5142890" lon="-5.0017640">
        <ele>698.0</ele>
        <time>2019-08-15T06:06:54Z</time>
      </trkpt>
      <trkpt lat="41.5143430" lon="-5.0017800">
        <ele>698.0</ele>
        <time>2019-08-15T06:06:55Z</time>
      </trkpt>
      <trkpt lat="41.5144000" lon="-5.0017950">
        <ele>697.9</ele>
        <time>2019-08-15T06:06:56Z</time>
      </trkpt>
      <trkpt lat="41.5144580" lon="-5.0018120">
        <ele>697.9</ele>
        <time>2019-08-15T06:06:57Z</time>
      </trkpt>
      <trkpt lat="41.5145190" lon="-5.0018290">
        <ele>697.9</ele>
        <time>2019-08-15T06:06:58Z</time>
      </trkpt>
      <trkpt lat="41.5145810" lon="-5.0018470">
        <ele>697.9</ele>
        <time>2019-08-15T06:06:59Z</time>
      </trkpt>
      <trkpt lat="41.5146440" lon="-5.0018640">
        <ele>697.8</ele>
        <time>2019-08-15T06:07:00Z</time>
      </trkpt>
      <trkpt lat="41.5147100" lon="-5.0018830">
        <ele>697.7</ele>
        <time>2019-08-15T06:07:01Z</time>
      </trkpt>
      <trkpt lat="41.5147770" lon="-5.0019030">
        <ele>697.6</ele>
        <time>2019-08-15T06:07:02Z</time>
      </trkpt>
      <trkpt lat="41.5148460" lon="-5.0019220">
        <ele>697.5</ele>
        <time>2019-08-15T06:07:03Z</time>
      </trkpt>
      <trkpt lat="41.5149170" lon="-5.0019420">
        <ele>697.4</ele>
        <time>2019-08-15T06:07:04Z</time>
      </trkpt>
      <trkpt lat="41.5149860" lon="-5.0019600">
        <ele>697.2</ele>
        <time>2019-08-15T06:07:05Z</time>
      </trkpt>
      <trkpt lat="41.5150520" lon="-5.0019790">
        <ele>697.0</ele>
        <time>2019-08-15T06:07:06Z</time>
      </trkpt>
      <trkpt lat="41.5151170" lon="-5.0019980">
        <ele>696.8</ele>
        <time>2019-08-15T06:07:07Z</time>
      </trkpt>
      <trkpt lat="41.5151770" lon="-5.0020150">
        <ele>696.6</ele>
        <time>2019-08-15T06:07:08Z</time>
      </trkpt>
      <trkpt lat="41.5152330" lon="-5.0020300">
        <ele>696.4</ele>
        <time>2019-08-15T06:07:09Z</time>
      </trkpt>
      <trkpt lat="41.5152840" lon="-5.0020450">
        <ele>696.2</ele>
        <time>2019-08-15T06:07:10Z</time>
      </trkpt>
      <trkpt lat="41.5153340" lon="-5.0020590">
        <ele>696.0</ele>
        <time>2019-08-15T06:07:11Z</time>
      </trkpt>
      <trkpt lat="41.5153810" lon="-5.0020730">
        <ele>695.8</ele>
        <time>2019-08-15T06:07:12Z</time>
      </trkpt>
      <trkpt lat="41.5154250" lon="-5.0020840">
        <ele>695.7</ele>
        <time>2019-08-15T06:07:13Z</time>
      </trkpt>
      <trkpt lat="41.5154660" lon="-5.0020950">
        <ele>695.5</ele>
        <time>2019-08-15T06:07:14Z</time>
      </trkpt>
      <trkpt lat="41.5155020" lon="-5.0021050">
        <ele>695.4</ele>
        <time>2019-08-15T06:07:15Z</time>
      </trkpt>
      <trkpt lat="41.5155320" lon="-5.0021170">
        <ele>695.2</ele>
        <time>2019-08-15T06:07:16Z</time>
      </trkpt>
      <trkpt lat="41.5155590" lon="-5.0021350">
        <ele>695.1</ele>
        <time>2019-08-15T06:07:17Z</time>
      </trkpt>
      <trkpt lat="41.5155790" lon="-5.0021620">
        <ele>695.0</ele>
        <time>2019-08-15T06:07:18Z</time>
      </trkpt>
      <trkpt lat="41.5155880" lon="-5.0021920">
        <ele>695.0</ele>
        <time>2019-08-15T06:07:19Z</time>
      </trkpt>
      <trkpt lat="41.5155710" lon="-5.0022480">
        <ele>695.0</ele>
        <time>2019-08-15T06:07:21Z</time>
      </trkpt>
      <trkpt lat="41.5155220" lon="-5.0022700">
        <ele>695.0</ele>
        <time>2019-08-15T06:07:23Z</time>
      </trkpt>
      <trkpt lat="41.5154620" lon="-5.0022760">
        <ele>695.0</ele>
        <time>2019-08-15T06:07:25Z</time>
      </trkpt>
      <trkpt lat="41.5154280" lon="-5.0022760">
        <ele>694.9</ele>
        <time>2019-08-15T06:07:26Z</time>
      </trkpt>
      <trkpt lat="41.5153920" lon="-5.0022730">
        <ele>694.9</ele>
        <time>2019-08-15T06:07:27Z</time>
      </trkpt>
      <trkpt lat="41.5153550" lon="-5.0022700">
        <ele>694.9</ele>
        <time>2019-08-15T06:07:28Z</time>
      </trkpt>
      <trkpt lat="41.5153160" lon="-5.0022660">
        <ele>694.8</ele>
        <time>2019-08-15T06:07:29Z</time>
      </trkpt>
      <trkpt lat="41.5152760" lon="-5.0022590">
        <ele>694.8</ele>
        <time>2019-08-15T06:07:30Z</time>
      </trkpt>
      <trkpt lat="41.5152350" lon="-5.0022520">
        <ele>694.7</ele>
        <time>2019-08-15T06:07:31Z</time>
      </trkpt>
      <trkpt lat="41.5151930" lon="-5.0022450">
        <ele>694.7</ele>
        <time>2019-08-15T06:07:32Z</time>
      </trkpt>
      <trkpt lat="41.5151510" lon="-5.0022390">
        <ele>694.6</ele>
        <time>2019-08-15T06:07:33Z</time>
      </trkpt>
      <trkpt lat="41.5151090" lon="-5.0022320">
        <ele>694.6</ele>
        <time>2019-08-15T06:07:34Z</time>
      </trkpt>
      <trkpt lat="41.5150660" lon="-5.0022260">
        <ele>694.6</ele>
        <time>2019-08-15T06:07:35Z</time>
      </trkpt>
      <trkpt lat="41.5150210" lon="-5.0022190">
        <ele>694.5</ele>
        <time>2019-08-15T06:07:36Z</time>
      </trkpt>
      <trkpt lat="41.5149750" lon="-5.0022120">
        <ele>694.5</ele>
        <time>2019-08-15T06:07:37Z</time>
      </trkpt>
      <trkpt lat="41.5149300" lon="-5.0022040">
        <ele>694.4</ele>
        <time>2019-08-15T06:07:38Z</time>
      </trkpt>
      <trkpt lat="41.5148830" lon="-5.0021970">
        <ele>694.4</ele>
        <time>2019-08-15T06:07:39Z</time>
      </trkpt>
      <trkpt lat="41.5148360" lon="-5.0021900">
        <ele>694.3</ele>
        <time>2019-08-15T06:07:40Z</time>
      </trkpt>
      <trkpt lat="41.5147890" lon="-5.0021830">
        <ele>694.3</ele>
        <time>2019-08-15T06:07:41Z</time>
      </trkpt>
      <trkpt lat="41.5147410" lon="-5.0021750">
        <ele>694.3</ele>
        <time>2019-08-15T06:07:42Z</time>
      </trkpt>
      <trkpt lat="41.5146930" lon="-5.0021680">
        <ele>694.2</ele>
        <time>2019-08-15T06:07:43Z</time>
      </trkpt>
      <trkpt lat="41.5146440" lon="-5.0021620">
        <ele>694.2</ele>
        <time>2019-08-15T06:07:44Z</time>
      </trkpt>
      <trkpt lat="41.5145950" lon="-5.0021550">
        <ele>694.2</ele>
        <time>2019-08-15T06:07:45Z</time>
      </trkpt>
      <trkpt lat="41.5145460" lon="-5.0021500">
        <ele>694.1</ele>
        <time>2019-08-15T06:07:46Z</time>
      </trkpt>
      <trkpt lat="41.5144960" lon="-5.0021450">
        <ele>694.1</ele>
        <time>2019-08-15T06:07:47Z</time>
      </trkpt>
      <trkpt lat="41.5144460" lon="-5.0021410">
        <ele>694.1</ele>
        <time>2019-08-15T06:07:48Z</time>
      </trkpt>
      <trkpt lat="41.5143980" lon="-5.0021380">
        <ele>694.1</ele>
        <time>2019-08-15T06:07:49Z</time>
      </trkpt>
      <trkpt lat="41.5143480" lon="-5.0021370">
        <ele>694.1</ele>
        <time>2019-08-15T06:07:50Z</time>
      </trkpt>
      <trkpt lat="41.5142980" lon="-5.0021350">
        <ele>694.0</ele>
        <time>2019-08-15T06:07:51Z</time>
      </trkpt>
      <trkpt lat="41.5142500" lon="-5.0021320">
        <ele>694.0</ele>
        <time>2019-08-15T06:07:52Z</time>
      </trkpt>
      <trkpt lat="41.5142030" lon="-5.0021310">
        <ele>694.0</ele>
        <time>2019-08-15T06:07:53Z</time>
      </trkpt>
      <trkpt lat="41.5141580" lon="-5.0021300">
        <ele>694.0</ele>
        <time>2019-08-15T06:07:54Z</time>
      </trkpt>
      <trkpt lat="41.5141140" lon="-5.0021260">
        <ele>694.0</ele>
        <time>2019-08-15T06:07:55Z</time>
      </trkpt>
      <trkpt lat="41.5140730" lon="-5.0021220">
        <ele>694.0</ele>
        <time>2019-08-15T06:07:56Z</time>
      </trkpt>
      <trkpt lat="41.5140330" lon="-5.0021110">
        <ele>693.9</ele>
        <time>2019-08-15T06:07:57Z</time>
      </trkpt>
      <trkpt lat="41.5139920" lon="-5.0020930">
        <ele>693.9</ele>
        <time>2019-08-15T06:07:58Z</time>
      </trkpt>
      <trkpt lat="41.5139510" lon="-5.0020760">
        <ele>693.9</ele>
        <time>2019-08-15T06:07:59Z</time>
      </trkpt>
      <trkpt lat="41.5139100" lon="-5.0020600">
        <ele>693.9</ele>
        <time>2019-08-15T06:08:00Z</time>
      </trkpt>
      <trkpt lat="41.5138700" lon="-5.0020450">
        <ele>693.9</ele>
        <time>2019-08-15T06:08:01Z</time>
      </trkpt>
      <trkpt lat="41.5138300" lon="-5.0020330">
        <ele>693.9</ele>
        <time>2019-08-15T06:08:02Z</time>
      </trkpt>
      <trkpt lat="41.5137880" lon="-5.0020270">
        <ele>693.9</ele>
        <time>2019-08-15T06:08:03Z</time>
      </trkpt>
      <trkpt lat="41.5137450" lon="-5.0020360">
        <ele>693.8</ele>
        <time>2019-08-15T06:08:04Z</time>
      </trkpt>
      <trkpt lat="41.5137040" lon="-5.0020600">
        <ele>693.8</ele>
        <time>2019-08-15T06:08:05Z</time>
      </trkpt>
      <trkpt lat="41.5136700" lon="-5.0021020">
        <ele>693.8</ele>
        <time>2019-08-15T06:08:06Z</time>
      </trkpt>
      <trkpt lat="41.5136500" lon="-5.0021570">
        <ele>693.8</ele>
        <time>2019-08-15T06:08:07Z</time>
      </trkpt>
      <trkpt lat="41.5136420" lon="-5.0022210">
        <ele>693.8</ele>
        <time>2019-08-15T06:08:08Z</time>
      </trkpt>
      <trkpt lat="41.5136440" lon="-5.0022870">
        <ele>693.8</ele>
        <time>2019-08-15T06:08:09Z</time>
      </trkpt>
      <trkpt lat="41.5136490" lon="-5.0023490">
        <ele>693.7</ele>
        <time>2019-08-15T06:08:10Z</time>
      </trkpt>
      <trkpt lat="41.5136550" lon="-5.0024130">
        <ele>693.7</ele>
        <time>2019-08-15T06:08:11Z</time>
      </trkpt>
      <trkpt lat="41.5136610" lon="-5.0024790">
        <ele>693.7</ele>
        <time>2019-08-15T06:08:12Z</time>
      </trkpt>
      <trkpt lat="41.5136660" lon="-5.0025440">
        <ele>693.7</ele>
        <time>2019-08-15T06:08:13Z</time>
      </trkpt>
      <trkpt lat="41.5136720" lon="-5.0026090">
        <ele>693.7</ele>
        <time>2019-08-15T06:08:14Z</time>
      </trkpt>
      <trkpt lat="41.5136790" lon="-5.0026730">
        <ele>693.7</ele>
        <time>2019-08-15T06:08:15Z</time>
      </trkpt>
      <trkpt lat="41.5136840" lon="-5.0027360">
        <ele>693.7</ele>
        <time>2019-08-15T06:08:16Z</time>
      </trkpt>
      <trkpt lat="41.5136880" lon="-5.0027990">
        <ele>693.7</ele>
        <time>2019-08-15T06:08:17Z</time>
      </trkpt>
      <trkpt lat="41.5136940" lon="-5.0028630">
        <ele>693.7</ele>
        <time>2019-08-15T06:08:18Z</time>
      </trkpt>
      <trkpt lat="41.5136980" lon="-5.0029260">
        <ele>693.7</ele>
        <time>2019-08-15T06:08:19Z</time>
      </trkpt>
      <trkpt lat="41.5137030" lon="-5.0029910">
        <ele>693.7</ele>
        <time>2019-08-15T06:08:20Z</time>
      </trkpt>
      <trkpt lat="41.5137080" lon="-5.0030570">
        <ele>693.7</ele>
        <time>2019-08-15T06:08:21Z</time>
      </trkpt>
      <trkpt lat="41.5137120" lon="-5.0031220">
        <ele>693.7</ele>
        <time>2019-08-15T06:08:22Z</time>
      </trkpt>
      <trkpt lat="41.5137160" lon="-5.0031880">
        <ele>693.7</ele>
        <time>2019-08-15T06:08:23Z</time>
      </trkpt>
      <trkpt lat="41.5137200" lon="-5.0032540">
        <ele>693.6</ele>
        <time>2019-08-15T06:08:24Z</time>
      </trkpt>
      <trkpt lat="41.5137230" lon="-5.0033190">
        <ele>693.6</ele>
        <time>2019-08-15T06:08:25Z</time>
      </trkpt>
      <trkpt lat="41.5137260" lon="-5.0033850">
        <ele>693.6</ele>
        <time>2019-08-15T06:08:26Z</time>
      </trkpt>
      <trkpt lat="41.5137310" lon="-5.0034510">
        <ele>693.6</ele>
        <time>2019-08-15T06:08:27Z</time>
      </trkpt>
      <trkpt lat="41.5137360" lon="-5.0035200">
        <ele>693.6</ele>
        <time>2019-08-15T06:08:28Z</time>
      </trkpt>
      <trkpt lat="41.5137400" lon="-5.0035870">
        <ele>693.5</ele>
        <time>2019-08-15T06:08:29Z</time>
      </trkpt>
      <trkpt lat="41.5137420" lon="-5.0036550">
        <ele>693.5</ele>
        <time>2019-08-15T06:08:30Z</time>
      </trkpt>
      <trkpt lat="41.5137450" lon="-5.0037220">
        <ele>693.5</ele>
        <time>2019-08-15T06:08:31Z</time>
      </trkpt>
      <trkpt lat="41.5137500" lon="-5.0037900">
        <ele>693.5</ele>
        <time>2019-08-15T06:08:32Z</time>
      </trkpt>
      <trkpt lat="41.5137540" lon="-5.0038580">
        <ele>693.5</ele>
        <time>2019-08-15T06:08:33Z</time>
      </trkpt>
      <trkpt lat="41.5137570" lon="-5.0039260">
        <ele>693.4</ele>
        <time>2019-08-15T06:08:34Z</time>
      </trkpt>
      <trkpt lat="41.5137610" lon="-5.0039930">
        <ele>693.4</ele>
        <time>2019-08-15T06:08:35Z</time>
      </trkpt>
      <trkpt lat="41.5137640" lon="-5.0040590">
        <ele>693.4</ele>
        <time>2019-08-15T06:08:36Z</time>
      </trkpt>
      <trkpt lat="41.5137670" lon="-5.0041220">
        <ele>693.4</ele>
        <time>2019-08-15T06:08:37Z</time>
      </trkpt>
      <trkpt lat="41.5137700" lon="-5.0041860">
        <ele>693.4</ele>
        <time>2019-08-15T06:08:38Z</time>
      </trkpt>
      <trkpt lat="41.5137730" lon="-5.0042500">
        <ele>693.4</ele>
        <time>2019-08-15T06:08:39Z</time>
      </trkpt>
      <trkpt lat="41.5137750" lon="-5.0043120">
        <ele>693.3</ele>
        <time>2019-08-15T06:08:40Z</time>
      </trkpt>
      <trkpt lat="41.5137770" lon="-5.0043760">
        <ele>693.3</ele>
        <time>2019-08-15T06:08:41Z</time>
      </trkpt>
      <trkpt lat="41.5137810" lon="-5.0044370">
        <ele>693.3</ele>
        <time>2019-08-15T06:08:42Z</time>
      </trkpt>
      <trkpt lat="41.5137830" lon="-5.0045020">
        <ele>693.3</ele>
        <time>2019-08-15T06:08:43Z</time>
      </trkpt>
      <trkpt lat="41.5137850" lon="-5.0045670">
        <ele>693.3</ele>
        <time>2019-08-15T06:08:44Z</time>
      </trkpt>
      <trkpt lat="41.5137870" lon="-5.0046330">
        <ele>693.3</ele>
        <time>2019-08-15T06:08:45Z</time>
      </trkpt>
      <trkpt lat="41.5137890" lon="-5.0047000">
        <ele>693.2</ele>
        <time>2019-08-15T06:08:46Z</time>
      </trkpt>
      <trkpt lat="41.5137910" lon="-5.0047680">
        <ele>693.2</ele>
        <time>2019-08-15T06:08:47Z</time>
      </trkpt>
      <trkpt lat="41.5137910" lon="-5.0048380">
        <ele>693.2</ele>
        <time>2019-08-15T06:08:48Z</time>
      </trkpt>
      <trkpt lat="41.5137910" lon="-5.0049080">
        <ele>693.2</ele>
        <time>2019-08-15T06:08:49Z</time>
      </trkpt>
      <trkpt lat="41.5137930" lon="-5.0049780">
        <ele>693.2</ele>
        <time>2019-08-15T06:08:50Z</time>
      </trkpt>
      <trkpt lat="41.5137920" lon="-5.0050480">
        <ele>693.2</ele>
        <time>2019-08-15T06:08:51Z</time>
      </trkpt>
      <trkpt lat="41.5137910" lon="-5.0051140">
        <ele>693.1</ele>
        <time>2019-08-15T06:08:52Z</time>
      </trkpt>
      <trkpt lat="41.5137920" lon="-5.0051830">
        <ele>693.1</ele>
        <time>2019-08-15T06:08:53Z</time>
      </trkpt>
      <trkpt lat="41.5137940" lon="-5.0052490">
        <ele>693.1</ele>
        <time>2019-08-15T06:08:54Z</time>
      </trkpt>
      <trkpt lat="41.5137960" lon="-5.0053160">
        <ele>693.1</ele>
        <time>2019-08-15T06:08:55Z</time>
      </trkpt>
      <trkpt lat="41.5137970" lon="-5.0053830">
        <ele>693.1</ele>
        <time>2019-08-15T06:08:56Z</time>
      </trkpt>
      <trkpt lat="41.5137970" lon="-5.0054530">
        <ele>693.0</ele>
        <time>2019-08-15T06:08:57Z</time>
      </trkpt>
      <trkpt lat="41.5137980" lon="-5.0055200">
        <ele>693.0</ele>
        <time>2019-08-15T06:08:58Z</time>
      </trkpt>
      <trkpt lat="41.5137980" lon="-5.0055880">
        <ele>693.0</ele>
        <time>2019-08-15T06:08:59Z</time>
      </trkpt>
      <trkpt lat="41.5137970" lon="-5.0056560">
        <ele>693.0</ele>
        <time>2019-08-15T06:09:00Z</time>
      </trkpt>
      <trkpt lat="41.5137970" lon="-5.0057250">
        <ele>693.0</ele>
        <time>2019-08-15T06:09:01Z</time>
      </trkpt>
      <trkpt lat="41.5137970" lon="-5.0057940">
        <ele>693.0</ele>
        <time>2019-08-15T06:09:02Z</time>
      </trkpt>
      <trkpt lat="41.5137970" lon="-5.0058620">
        <ele>692.9</ele>
        <time>2019-08-15T06:09:03Z</time>
      </trkpt>
      <trkpt lat="41.5137970" lon="-5.0059280">
        <ele>692.9</ele>
        <time>2019-08-15T06:09:04Z</time>
      </trkpt>
      <trkpt lat="41.5137970" lon="-5.0059930">
        <ele>692.9</ele>
        <time>2019-08-15T06:09:05Z</time>
      </trkpt>
      <trkpt lat="41.5137980" lon="-5.0060570">
        <ele>692.9</ele>
        <time>2019-08-15T06:09:06Z</time>
      </trkpt>
      <trkpt lat="41.5137980" lon="-5.0061240">
        <ele>692.9</ele>
        <time>2019-08-15T06:09:07Z</time>
      </trkpt>
      <trkpt lat="41.5137970" lon="-5.0061930">
        <ele>692.9</ele>
        <time>2019-08-15T06:09:08Z</time>
      </trkpt>
      <trkpt lat="41.5137960" lon="-5.0062620">
        <ele>692.9</ele>
        <time>2019-08-15T06:09:09Z</time>
      </trkpt>
      <trkpt lat="41.5137960" lon="-5.0063300">
        <ele>692.8</ele>
        <time>2019-08-15T06:09:10Z</time>
      </trkpt>
      <trkpt lat="41.5137960" lon="-5.0063970">
        <ele>692.8</ele>
        <time>2019-08-15T06:09:11Z</time>
      </trkpt>
      <trkpt lat="41.5137960" lon="-5.0064680">
        <ele>692.8</ele>
        <time>2019-08-15T06:09:12Z</time>
      </trkpt>
      <trkpt lat="41.5137950" lon="-5.0065360">
        <ele>692.8</ele>
        <time>2019-08-15T06:09:13Z</time>
      </trkpt>
      <trkpt lat="41.5137950" lon="-5.0066050">
        <ele>692.8</ele>
        <time>2019-08-15T06:09:14Z</time>
      </trkpt>
      <trkpt lat="41.5137940" lon="-5.0066720">
        <ele>692.8</ele>
        <time>2019-08-15T06:09:15Z</time>
      </trkpt>
      <trkpt lat="41.5137950" lon="-5.0067390">
        <ele>692.8</ele>
        <time>2019-08-15T06:09:16Z</time>
      </trkpt>
      <trkpt lat="41.5137930" lon="-5.0068080">
        <ele>692.7</ele>
        <time>2019-08-15T06:09:17Z</time>
      </trkpt>
      <trkpt lat="41.5137920" lon="-5.0068760">
        <ele>692.7</ele>
        <time>2019-08-15T06:09:18Z</time>
      </trkpt>
      <trkpt lat="41.5137900" lon="-5.0069440">
        <ele>692.7</ele>
        <time>2019-08-15T06:09:19Z</time>
      </trkpt>
      <trkpt lat="41.5137900" lon="-5.0070120">
        <ele>692.7</ele>
        <time>2019-08-15T06:09:20Z</time>
      </trkpt>
      <trkpt lat="41.5137880" lon="-5.0070810">
        <ele>692.7</ele>
        <time>2019-08-15T06:09:21Z</time>
      </trkpt>
      <trkpt lat="41.5137880" lon="-5.0071510">
        <ele>692.6</ele>
        <time>2019-08-15T06:09:22Z</time>
      </trkpt>
      <trkpt lat="41.5137880" lon="-5.0072210">
        <ele>692.6</ele>
        <time>2019-08-15T06:09:23Z</time>
      </trkpt>
      <trkpt lat="41.5137870" lon="-5.0072910">
        <ele>692.6</ele>
        <time>2019-08-15T06:09:24Z</time>
      </trkpt>
      <trkpt lat="41.5137870" lon="-5.0073610">
        <ele>692.6</ele>
        <time>2019-08-15T06:09:25Z</time>
      </trkpt>
      <trkpt lat="41.5137870" lon="-5.0074320">
        <ele>692.5</ele>
        <time>2019-08-15T06:09:26Z</time>
      </trkpt>
      <trkpt lat="41.5137870" lon="-5.0075040">
        <ele>692.5</ele>
        <time>2019-08-15T06:09:27Z</time>
      </trkpt>
      <trkpt lat="41.5137870" lon="-5.0075760">
        <ele>692.5</ele>
        <time>2019-08-15T06:09:28Z</time>
      </trkpt>
      <trkpt lat="41.5137870" lon="-5.0076450">
        <ele>692.4</ele>
        <time>2019-08-15T06:09:29Z</time>
      </trkpt>
      <trkpt lat="41.5137860" lon="-5.0077150">
        <ele>692.4</ele>
        <time>2019-08-15T06:09:30Z</time>
      </trkpt>
      <trkpt lat="41.5137850" lon="-5.0077850">
        <ele>692.3</ele>
        <time>2019-08-15T06:09:31Z</time>
      </trkpt>
      <trkpt lat="41.5137840" lon="-5.0078550">
        <ele>692.3</ele>
        <time>2019-08-15T06:09:32Z</time>
      </trkpt>
      <trkpt lat="41.5137830" lon="-5.0079250">
        <ele>692.2</ele>
        <time>2019-08-15T06:09:33Z</time>
      </trkpt>
      <trkpt lat="41.5137810" lon="-5.0079960">
        <ele>692.2</ele>
        <time>2019-08-15T06:09:34Z</time>
      </trkpt>
      <trkpt lat="41.5137790" lon="-5.0080680">
        <ele>692.2</ele>
        <time>2019-08-15T06:09:35Z</time>
      </trkpt>
      <trkpt lat="41.5137800" lon="-5.0081370">
        <ele>692.2</ele>
        <time>2019-08-15T06:09:36Z</time>
      </trkpt>
      <trkpt lat="41.5137800" lon="-5.0082070">
        <ele>692.2</ele>
        <time>2019-08-15T06:09:37Z</time>
      </trkpt>
      <trkpt lat="41.5137800" lon="-5.0082760">
        <ele>692.2</ele>
        <time>2019-08-15T06:09:38Z</time>
      </trkpt>
      <trkpt lat="41.5137800" lon="-5.0083470">
        <ele>692.2</ele>
        <time>2019-08-15T06:09:39Z</time>
      </trkpt>
      <trkpt lat="41.5137790" lon="-5.0084170">
        <ele>692.2</ele>
        <time>2019-08-15T06:09:40Z</time>
      </trkpt>
      <trkpt lat="41.5137790" lon="-5.0084860">
        <ele>692.2</ele>
        <time>2019-08-15T06:09:41Z</time>
      </trkpt>
      <trkpt lat="41.5137790" lon="-5.0085570">
        <ele>692.2</ele>
        <time>2019-08-15T06:09:42Z</time>
      </trkpt>
      <trkpt lat="41.5137770" lon="-5.0086260">
        <ele>692.2</ele>
        <time>2019-08-15T06:09:43Z</time>
      </trkpt>
      <trkpt lat="41.5137760" lon="-5.0086960">
        <ele>692.2</ele>
        <time>2019-08-15T06:09:44Z</time>
      </trkpt>
      <trkpt lat="41.5137760" lon="-5.0087660">
        <ele>692.2</ele>
        <time>2019-08-15T06:09:45Z</time>
      </trkpt>
      <trkpt lat="41.5137760" lon="-5.0088350">
        <ele>692.2</ele>
        <time>2019-08-15T06:09:46Z</time>
      </trkpt>
      <trkpt lat="41.5137770" lon="-5.0089050">
        <ele>692.2</ele>
        <time>2019-08-15T06:09:47Z</time>
      </trkpt>
      <trkpt lat="41.5137780" lon="-5.0089750">
        <ele>692.2</ele>
        <time>2019-08-15T06:09:48Z</time>
      </trkpt>
      <trkpt lat="41.5137780" lon="-5.0090450">
        <ele>692.2</ele>
        <time>2019-08-15T06:09:49Z</time>
      </trkpt>
      <trkpt lat="41.5137790" lon="-5.0091150">
        <ele>692.2</ele>
        <time>2019-08-15T06:09:50Z</time>
      </trkpt>
      <trkpt lat="41.5137800" lon="-5.0091830">
        <ele>692.3</ele>
        <time>2019-08-15T06:09:51Z</time>
      </trkpt>
      <trkpt lat="41.5137790" lon="-5.0092510">
        <ele>692.3</ele>
        <time>2019-08-15T06:09:52Z</time>
      </trkpt>
      <trkpt lat="41.5137800" lon="-5.0093200">
        <ele>692.3</ele>
        <time>2019-08-15T06:09:53Z</time>
      </trkpt>
      <trkpt lat="41.5137800" lon="-5.0093880">
        <ele>692.3</ele>
        <time>2019-08-15T06:09:54Z</time>
      </trkpt>
      <trkpt lat="41.5137800" lon="-5.0094560">
        <ele>692.4</ele>
        <time>2019-08-15T06:09:55Z</time>
      </trkpt>
      <trkpt lat="41.5137800" lon="-5.0095240">
        <ele>692.4</ele>
        <time>2019-08-15T06:09:56Z</time>
      </trkpt>
      <trkpt lat="41.5137820" lon="-5.0095910">
        <ele>692.4</ele>
        <time>2019-08-15T06:09:57Z</time>
      </trkpt>
      <trkpt lat="41.5137830" lon="-5.0096570">
        <ele>692.5</ele>
        <time>2019-08-15T06:09:58Z</time>
      </trkpt>
      <trkpt lat="41.5137830" lon="-5.0097250">
        <ele>692.5</ele>
        <time>2019-08-15T06:09:59Z</time>
      </trkpt>
      <trkpt lat="41.5137820" lon="-5.0097920">
        <ele>692.6</ele>
        <time>2019-08-15T06:10:00Z</time>
      </trkpt>
      <trkpt lat="41.5137820" lon="-5.0098590">
        <ele>692.6</ele>
        <time>2019-08-15T06:10:01Z</time>
      </trkpt>
      <trkpt lat="41.5137840" lon="-5.0099260">
        <ele>692.7</ele>
        <time>2019-08-15T06:10:02Z</time>
      </trkpt>
      <trkpt lat="41.5137850" lon="-5.0099930">
        <ele>692.7</ele>
        <time>2019-08-15T06:10:03Z</time>
      </trkpt>
      <trkpt lat="41.5137840" lon="-5.0100600">
        <ele>692.7</ele>
        <time>2019-08-15T06:10:04Z</time>
      </trkpt>
      <trkpt lat="41.5137850" lon="-5.0101260">
        <ele>692.8</ele>
        <time>2019-08-15T06:10:05Z</time>
      </trkpt>
      <trkpt lat="41.5137850" lon="-5.0101920">
        <ele>692.8</ele>
        <time>2019-08-15T06:10:06Z</time>
      </trkpt>
      <trkpt lat="41.5137860" lon="-5.0102560">
        <ele>692.9</ele>
        <time>2019-08-15T06:10:07Z</time>
      </trkpt>
      <trkpt lat="41.5137860" lon="-5.0103210">
        <ele>692.9</ele>
        <time>2019-08-15T06:10:08Z</time>
      </trkpt>
      <trkpt lat="41.5137860" lon="-5.0103860">
        <ele>692.9</ele>
        <time>2019-08-15T06:10:09Z</time>
      </trkpt>
      <trkpt lat="41.5137860" lon="-5.0104520">
        <ele>692.9</ele>
        <time>2019-08-15T06:10:10Z</time>
      </trkpt>
      <trkpt lat="41.5137860" lon="-5.0105190">
        <ele>693.0</ele>
        <time>2019-08-15T06:10:11Z</time>
      </trkpt>
      <trkpt lat="41.5137870" lon="-5.0105870">
        <ele>693.0</ele>
        <time>2019-08-15T06:10:12Z</time>
      </trkpt>
      <trkpt lat="41.5137860" lon="-5.0106580">
        <ele>693.0</ele>
        <time>2019-08-15T06:10:13Z</time>
      </trkpt>
      <trkpt lat="41.5137830" lon="-5.0107320">
        <ele>693.0</ele>
        <time>2019-08-15T06:10:14Z</time>
      </trkpt>
      <trkpt lat="41.5137820" lon="-5.0108100">
        <ele>693.0</ele>
        <time>2019-08-15T06:10:15Z</time>
      </trkpt>
      <trkpt lat="41.5137790" lon="-5.0108900">
        <ele>692.9</ele>
        <time>2019-08-15T06:10:16Z</time>
      </trkpt>
      <trkpt lat="41.5137760" lon="-5.0109730">
        <ele>692.9</ele>
        <time>2019-08-15T06:10:17Z</time>
      </trkpt>
      <trkpt lat="41.5137730" lon="-5.0110560">
        <ele>692.8</ele>
        <time>2019-08-15T06:10:18Z</time>
      </trkpt>
      <trkpt lat="41.5137690" lon="-5.0111380">
        <ele>692.7</ele>
        <time>2019-08-15T06:10:19Z</time>
      </trkpt>
      <trkpt lat="41.5137660" lon="-5.0112190">
        <ele>692.6</ele>
        <time>2019-08-15T06:10:20Z</time>
      </trkpt>
      <trkpt lat="41.5137620" lon="-5.0113000">
        <ele>692.5</ele>
        <time>2019-08-15T06:10:21Z</time>
      </trkpt>
      <trkpt lat="41.5137580" lon="-5.0113790">
        <ele>692.4</ele>
        <time>2019-08-15T06:10:22Z</time>
      </trkpt>
      <trkpt lat="41.5137530" lon="-5.0114590">
        <ele>692.2</ele>
        <time>2019-08-15T06:10:23Z</time>
      </trkpt>
      <trkpt lat="41.5137470" lon="-5.0115400">
        <ele>692.1</ele>
        <time>2019-08-15T06:10:24Z</time>
      </trkpt>
      <trkpt lat="41.5137400" lon="-5.0116200">
        <ele>691.9</ele>
        <time>2019-08-15T06:10:25Z</time>
      </trkpt>
      <trkpt lat="41.5137330" lon="-5.0117000">
        <ele>691.8</ele>
        <time>2019-08-15T06:10:26Z</time>
      </trkpt>
      <trkpt lat="41.5137240" lon="-5.0117790">
        <ele>691.7</ele>
        <time>2019-08-15T06:10:27Z</time>
      </trkpt>
      <trkpt lat="41.5137140" lon="-5.0118570">
        <ele>691.6</ele>
        <time>2019-08-15T06:10:28Z</time>
      </trkpt>
      <trkpt lat="41.5137030" lon="-5.0119330">
        <ele>691.5</ele>
        <time>2019-08-15T06:10:29Z</time>
      </trkpt>
      <trkpt lat="41.5136910" lon="-5.0120080">
        <ele>691.4</ele>
        <time>2019-08-15T06:10:30Z</time>
      </trkpt>
      <trkpt lat="41.5136790" lon="-5.0120810">
        <ele>691.3</ele>
        <time>2019-08-15T06:10:31Z</time>
      </trkpt>
      <trkpt lat="41.5136670" lon="-5.0121540">
        <ele>691.2</ele>
        <time>2019-08-15T06:10:32Z</time>
      </trkpt>
      <trkpt lat="41.5136540" lon="-5.0122280">
        <ele>691.2</ele>
        <time>2019-08-15T06:10:33Z</time>
      </trkpt>
      <trkpt lat="41.5136420" lon="-5.0123000">
        <ele>691.1</ele>
        <time>2019-08-15T06:10:34Z</time>
      </trkpt>
      <trkpt lat="41.5136280" lon="-5.0123740">
        <ele>691.1</ele>
        <time>2019-08-15T06:10:35Z</time>
      </trkpt>
      <trkpt lat="41.5136150" lon="-5.0124470">
        <ele>691.1</ele>
        <time>2019-08-15T06:10:36Z</time>
      </trkpt>
      <trkpt lat="41.5136030" lon="-5.0125170">
        <ele>691.1</ele>
        <time>2019-08-15T06:10:37Z</time>
      </trkpt>
      <trkpt lat="41.5135890" lon="-5.0125860">
        <ele>691.1</ele>
        <time>2019-08-15T06:10:38Z</time>
      </trkpt>
      <trkpt lat="41.5135760" lon="-5.0126550">
        <ele>691.1</ele>
        <time>2019-08-15T06:10:39Z</time>
      </trkpt>
      <trkpt lat="41.5135650" lon="-5.0127250">
        <ele>691.1</ele>
        <time>2019-08-15T06:10:40Z</time>
      </trkpt>
      <trkpt lat="41.5135560" lon="-5.0127950">
        <ele>691.1</ele>
        <time>2019-08-15T06:10:41Z</time>
      </trkpt>
      <trkpt lat="41.5135500" lon="-5.0128650">
        <ele>691.1</ele>
        <time>2019-08-15T06:10:42Z</time>
      </trkpt>
      <trkpt lat="41.5135490" lon="-5.0129350">
        <ele>691.1</ele>
        <time>2019-08-15T06:10:43Z</time>
      </trkpt>
      <trkpt lat="41.5135530" lon="-5.0130070">
        <ele>691.1</ele>
        <time>2019-08-15T06:10:44Z</time>
      </trkpt>
      <trkpt lat="41.5135610" lon="-5.0130810">
        <ele>691.2</ele>
        <time>2019-08-15T06:10:45Z</time>
      </trkpt>
      <trkpt lat="41.5135760" lon="-5.0131530">
        <ele>691.2</ele>
        <time>2019-08-15T06:10:46Z</time>
      </trkpt>
      <trkpt lat="41.5135940" lon="-5.0132240">
        <ele>691.2</ele>
        <time>2019-08-15T06:10:47Z</time>
      </trkpt>
      <trkpt lat="41.5136120" lon="-5.0132950">
        <ele>691.2</ele>
        <time>2019-08-15T06:10:48Z</time>
      </trkpt>
      <trkpt lat="41.5136270" lon="-5.0133640">
        <ele>691.2</ele>
        <time>2019-08-15T06:10:49Z</time>
      </trkpt>
      <trkpt lat="41.5136340" lon="-5.0134340">
        <ele>691.2</ele>
        <time>2019-08-15T06:10:50Z</time>
      </trkpt>
      <trkpt lat="41.5136300" lon="-5.0135020">
        <ele>691.1</ele>
        <time>2019-08-15T06:10:51Z</time>
      </trkpt>
      <trkpt lat="41.5136160" lon="-5.0135690">
        <ele>691.1</ele>
        <time>2019-08-15T06:10:52Z</time>
      </trkpt>
      <trkpt lat="41.5135910" lon="-5.0136320">
        <ele>691.1</ele>
        <time>2019-08-15T06:10:53Z</time>
      </trkpt>
      <trkpt lat="41.5135530" lon="-5.0136880">
        <ele>691.0</ele>
        <time>2019-08-15T06:10:54Z</time>
      </trkpt>
      <trkpt lat="41.5135080" lon="-5.0137380">
        <ele>690.9</ele>
        <time>2019-08-15T06:10:55Z</time>
      </trkpt>
      <trkpt lat="41.5134600" lon="-5.0137850">
        <ele>690.8</ele>
        <time>2019-08-15T06:10:56Z</time>
      </trkpt>
      <trkpt lat="41.5134100" lon="-5.0138350">
        <ele>690.7</ele>
        <time>2019-08-15T06:10:57Z</time>
      </trkpt>
      <trkpt lat="41.5133630" lon="-5.0138920">
        <ele>690.5</ele>
        <time>2019-08-15T06:10:58Z</time>
      </trkpt>
      <trkpt lat="41.5133180" lon="-5.0139540">
        <ele>690.4</ele>
        <time>2019-08-15T06:10:59Z</time>
      </trkpt>
      <trkpt lat="41.5132750" lon="-5.0140210">
        <ele>690.2</ele>
        <time>2019-08-15T06:11:00Z</time>
      </trkpt>
      <trkpt lat="41.5132340" lon="-5.0140900">
        <ele>690.0</ele>
        <time>2019-08-15T06:11:01Z</time>
      </trkpt>
      <trkpt lat="41.5131960" lon="-5.0141610">
        <ele>689.9</ele>
        <time>2019-08-15T06:11:02Z</time>
      </trkpt>
      <trkpt lat="41.5131610" lon="-5.0142300">
        <ele>689.7</ele>
        <time>2019-08-15T06:11:03Z</time>
      </trkpt>
      <trkpt lat="41.5131310" lon="-5.0142990">
        <ele>689.5</ele>
        <time>2019-08-15T06:11:04Z</time>
      </trkpt>
      <trkpt lat="41.5131050" lon="-5.0143660">
        <ele>689.4</ele>
        <time>2019-08-15T06:11:05Z</time>
      </trkpt>
      <trkpt lat="41.5130800" lon="-5.0144340">
        <ele>689.2</ele>
        <time>2019-08-15T06:11:06Z</time>
      </trkpt>
      <trkpt lat="41.5130570" lon="-5.0145010">
        <ele>689.1</ele>
        <time>2019-08-15T06:11:07Z</time>
      </trkpt>
      <trkpt lat="41.5130370" lon="-5.0145660">
        <ele>689.0</ele>
        <time>2019-08-15T06:11:08Z</time>
      </trkpt>
      <trkpt lat="41.5130200" lon="-5.0146300">
        <ele>688.8</ele>
        <time>2019-08-15T06:11:09Z</time>
      </trkpt>
      <trkpt lat="41.5130060" lon="-5.0146940">
        <ele>688.7</ele>
        <time>2019-08-15T06:11:10Z</time>
      </trkpt>
      <trkpt lat="41.5129930" lon="-5.0147580">
        <ele>688.7</ele>
        <time>2019-08-15T06:11:11Z</time>
      </trkpt>
      <trkpt lat="41.5129800" lon="-5.0148240">
        <ele>688.6</ele>
        <time>2019-08-15T06:11:12Z</time>
      </trkpt>
      <trkpt lat="41.5129690" lon="-5.0148920">
        <ele>688.5</ele>
        <time>2019-08-15T06:11:13Z</time>
      </trkpt>
      <trkpt lat="41.5129570" lon="-5.0149650">
        <ele>688.4</ele>
        <time>2019-08-15T06:11:14Z</time>
      </trkpt>
      <trkpt lat="41.5129450" lon="-5.0150390">
        <ele>688.4</ele>
        <time>2019-08-15T06:11:15Z</time>
      </trkpt>
      <trkpt lat="41.5129300" lon="-5.0151170">
        <ele>688.3</ele>
        <time>2019-08-15T06:11:16Z</time>
      </trkpt>
      <trkpt lat="41.5129170" lon="-5.0151980">
        <ele>688.3</ele>
        <time>2019-08-15T06:11:17Z</time>
      </trkpt>
      <trkpt lat="41.5129060" lon="-5.0152830">
        <ele>688.3</ele>
        <time>2019-08-15T06:11:18Z</time>
      </trkpt>
      <trkpt lat="41.5128990" lon="-5.0153740">
        <ele>688.3</ele>
        <time>2019-08-15T06:11:19Z</time>
      </trkpt>
      <trkpt lat="41.5128940" lon="-5.0154700">
        <ele>688.2</ele>
        <time>2019-08-15T06:11:20Z</time>
      </trkpt>
      <trkpt lat="41.5128900" lon="-5.0155700">
        <ele>688.2</ele>
        <time>2019-08-15T06:11:21Z</time>
      </trkpt>
      <trkpt lat="41.5128880" lon="-5.0156680">
        <ele>688.1</ele>
        <time>2019-08-15T06:11:22Z</time>
      </trkpt>
      <trkpt lat="41.5128890" lon="-5.0157650">
        <ele>688.0</ele>
        <time>2019-08-15T06:11:23Z</time>
      </trkpt>
      <trkpt lat="41.5128880" lon="-5.0158650">
        <ele>687.9</ele>
        <time>2019-08-15T06:11:24Z</time>
      </trkpt>
      <trkpt lat="41.5128860" lon="-5.0159620">
        <ele>687.7</ele>
        <time>2019-08-15T06:11:25Z</time>
      </trkpt>
      <trkpt lat="41.5128850" lon="-5.0160550">
        <ele>687.6</ele>
        <time>2019-08-15T06:11:26Z</time>
      </trkpt>
      <trkpt lat="41.5128870" lon="-5.0161450">
        <ele>687.4</ele>
        <time>2019-08-15T06:11:27Z</time>
      </trkpt>
      <trkpt lat="41.5128930" lon="-5.0162270">
        <ele>687.1</ele>
        <time>2019-08-15T06:11:28Z</time>
      </trkpt>
      <trkpt lat="41.5128990" lon="-5.0163050">
        <ele>686.9</ele>
        <time>2019-08-15T06:11:29Z</time>
      </trkpt>
      <trkpt lat="41.5129040" lon="-5.0163770">
        <ele>686.7</ele>
        <time>2019-08-15T06:11:30Z</time>
      </trkpt>
      <trkpt lat="41.5129100" lon="-5.0164440">
        <ele>686.5</ele>
        <time>2019-08-15T06:11:31Z</time>
      </trkpt>
      <trkpt lat="41.5129130" lon="-5.0165090">
        <ele>686.3</ele>
        <time>2019-08-15T06:11:32Z</time>
      </trkpt>
      <trkpt lat="41.5129150" lon="-5.0165730">
        <ele>686.1</ele>
        <time>2019-08-15T06:11:33Z</time>
      </trkpt>
      <trkpt lat="41.5129160" lon="-5.0166330">
        <ele>686.0</ele>
        <time>2019-08-15T06:11:34Z</time>
      </trkpt>
      <trkpt lat="41.5129180" lon="-5.0166830">
        <ele>685.9</ele>
        <time>2019-08-15T06:11:35Z</time>
      </trkpt>
      <trkpt lat="41.5129190" lon="-5.0167210">
        <ele>685.8</ele>
        <time>2019-08-15T06:11:36Z</time>
      </trkpt>
      <trkpt lat="41.5129190" lon="-5.0167460">
        <ele>685.7</ele>
        <time>2019-08-15T06:11:37Z</time>
      </trkpt>
      <trkpt lat="41.5129150" lon="-5.0167490">
        <ele>685.7</ele>
        <time>2019-08-15T06:11:41Z</time>
      </trkpt>
      <trkpt lat="41.5129120" lon="-5.0168350">
        <ele>685.6</ele>
        <time>2019-08-15T06:12:27Z</time>
      </trkpt>
      <trkpt lat="41.5129130" lon="-5.0168950">
        <ele>685.4</ele>
        <time>2019-08-15T06:12:29Z</time>
      </trkpt>
      <trkpt lat="41.5129110" lon="-5.0169620">
        <ele>685.3</ele>
        <time>2019-08-15T06:12:31Z</time>
      </trkpt>
      <trkpt lat="41.5129040" lon="-5.0170360">
        <ele>685.2</ele>
        <time>2019-08-15T06:12:33Z</time>
      </trkpt>
      <trkpt lat="41.5129010" lon="-5.0170750">
        <ele>685.1</ele>
        <time>2019-08-15T06:12:34Z</time>
      </trkpt>
      <trkpt lat="41.5128990" lon="-5.0171150">
        <ele>685.1</ele>
        <time>2019-08-15T06:12:35Z</time>
      </trkpt>
      <trkpt lat="41.5128980" lon="-5.0171540">
        <ele>685.0</ele>
        <time>2019-08-15T06:12:36Z</time>
      </trkpt>
      <trkpt lat="41.5128960" lon="-5.0171940">
        <ele>685.0</ele>
        <time>2019-08-15T06:12:37Z</time>
      </trkpt>
      <trkpt lat="41.5128930" lon="-5.0172340">
        <ele>684.9</ele>
        <time>2019-08-15T06:12:38Z</time>
      </trkpt>
      <trkpt lat="41.5128900" lon="-5.0172740">
        <ele>684.9</ele>
        <time>2019-08-15T06:12:39Z</time>
      </trkpt>
      <trkpt lat="41.5128880" lon="-5.0173130">
        <ele>684.8</ele>
        <time>2019-08-15T06:12:40Z</time>
      </trkpt>
      <trkpt lat="41.5128870" lon="-5.0173520">
        <ele>684.8</ele>
        <time>2019-08-15T06:12:41Z</time>
      </trkpt>
      <trkpt lat="41.5128850" lon="-5.0173920">
        <ele>684.7</ele>
        <time>2019-08-15T06:12:42Z</time>
      </trkpt>
      <trkpt lat="41.5128830" lon="-5.0174330">
        <ele>684.7</ele>
        <time>2019-08-15T06:12:43Z</time>
      </trkpt>
      <trkpt lat="41.5128810" lon="-5.0174740">
        <ele>684.6</ele>
        <time>2019-08-15T06:12:44Z</time>
      </trkpt>
      <trkpt lat="41.5128790" lon="-5.0175180">
        <ele>684.6</ele>
        <time>2019-08-15T06:12:45Z</time>
      </trkpt>
      <trkpt lat="41.5128790" lon="-5.0175620">
        <ele>684.5</ele>
        <time>2019-08-15T06:12:46Z</time>
      </trkpt>
      <trkpt lat="41.5128790" lon="-5.0176070">
        <ele>684.5</ele>
        <time>2019-08-15T06:12:47Z</time>
      </trkpt>
      <trkpt lat="41.5128790" lon="-5.0176520">
        <ele>684.4</ele>
        <time>2019-08-15T06:12:48Z</time>
      </trkpt>
      <trkpt lat="41.5128780" lon="-5.0176960">
        <ele>684.3</ele>
        <time>2019-08-15T06:12:49Z</time>
      </trkpt>
      <trkpt lat="41.5128770" lon="-5.0177390">
        <ele>684.3</ele>
        <time>2019-08-15T06:12:50Z</time>
      </trkpt>
      <trkpt lat="41.5128750" lon="-5.0177820">
        <ele>684.2</ele>
        <time>2019-08-15T06:12:51Z</time>
      </trkpt>
      <trkpt lat="41.5128750" lon="-5.0178250">
        <ele>684.2</ele>
        <time>2019-08-15T06:12:52Z</time>
      </trkpt>
      <trkpt lat="41.5128750" lon="-5.0178660">
        <ele>684.1</ele>
        <time>2019-08-15T06:12:53Z</time>
      </trkpt>
      <trkpt lat="41.5128760" lon="-5.0179060">
        <ele>684.1</ele>
        <time>2019-08-15T06:12:54Z</time>
      </trkpt>
      <trkpt lat="41.5128770" lon="-5.0179430">
        <ele>684.0</ele>
        <time>2019-08-15T06:12:55Z</time>
      </trkpt>
      <trkpt lat="41.5128780" lon="-5.0179800">
        <ele>684.0</ele>
        <time>2019-08-15T06:12:56Z</time>
      </trkpt>
      <trkpt lat="41.5128780" lon="-5.0180170">
        <ele>684.0</ele>
        <time>2019-08-15T06:12:57Z</time>
      </trkpt>
      <trkpt lat="41.5128780" lon="-5.0180540">
        <ele>684.0</ele>
        <time>2019-08-15T06:12:58Z</time>
      </trkpt>
      <trkpt lat="41.5128790" lon="-5.0180900">
        <ele>684.0</ele>
        <time>2019-08-15T06:12:59Z</time>
      </trkpt>
      <trkpt lat="41.5128800" lon="-5.0181260">
        <ele>684.0</ele>
        <time>2019-08-15T06:13:00Z</time>
      </trkpt>
      <trkpt lat="41.5128810" lon="-5.0181960">
        <ele>684.0</ele>
        <time>2019-08-15T06:13:02Z</time>
      </trkpt>
      <trkpt lat="41.5128810" lon="-5.0182680">
        <ele>684.1</ele>
        <time>2019-08-15T06:13:04Z</time>
      </trkpt>
      <trkpt lat="41.5128820" lon="-5.0183390">
        <ele>684.2</ele>
        <time>2019-08-15T06:13:06Z</time>
      </trkpt>
      <trkpt lat="41.5128830" lon="-5.0184110">
        <ele>684.3</ele>
        <time>2019-08-15T06:13:08Z</time>
      </trkpt>
      <trkpt lat="41.5128850" lon="-5.0184810">
        <ele>684.4</ele>
        <time>2019-08-15T06:13:10Z</time>
      </trkpt>
      <trkpt lat="41.5128880" lon="-5.0185500">
        <ele>684.6</ele>
        <time>2019-08-15T06:13:12Z</time>
      </trkpt>
      <trkpt lat="41.5128930" lon="-5.0186210">
        <ele>684.7</ele>
        <time>2019-08-15T06:13:14Z</time>
      </trkpt>
      <trkpt lat="41.5128960" lon="-5.0186580">
        <ele>684.8</ele>
        <time>2019-08-15T06:13:15Z</time>
      </trkpt>
      <trkpt lat="41.5129000" lon="-5.0186950">
        <ele>684.9</ele>
        <time>2019-08-15T06:13:16Z</time>
      </trkpt>
      <trkpt lat="41.5129050" lon="-5.0187330">
        <ele>685.0</ele>
        <time>2019-08-15T06:13:17Z</time>
      </trkpt>
      <trkpt lat="41.5129110" lon="-5.0187720">
        <ele>685.1</ele>
        <time>2019-08-15T06:13:18Z</time>
      </trkpt>
      <trkpt lat="41.5129170" lon="-5.0188110">
        <ele>685.2</ele>
        <time>2019-08-15T06:13:19Z</time>
      </trkpt>
      <trkpt lat="41.5129250" lon="-5.0188500">
        <ele>685.3</ele>
        <time>2019-08-15T06:13:20Z</time>
      </trkpt>
      <trkpt lat="41.5129350" lon="-5.0188900">
        <ele>685.4</ele>
        <time>2019-08-15T06:13:21Z</time>
      </trkpt>
      <trkpt lat="41.5129450" lon="-5.0189310">
        <ele>685.5</ele>
        <time>2019-08-15T06:13:22Z</time>
      </trkpt>
      <trkpt lat="41.5129570" lon="-5.0189730">
        <ele>685.6</ele>
        <time>2019-08-15T06:13:23Z</time>
      </trkpt>
      <trkpt lat="41.5129690" lon="-5.0190160">
        <ele>685.8</ele>
        <time>2019-08-15T06:13:24Z</time>
      </trkpt>
      <trkpt lat="41.5129830" lon="-5.0190580">
        <ele>686.1</ele>
        <time>2019-08-15T06:13:25Z</time>
      </trkpt>
      <trkpt lat="41.5129980" lon="-5.0190970">
        <ele>686.2</ele>
        <time>2019-08-15T06:13:26Z</time>
      </trkpt>
      <trkpt lat="41.5130150" lon="-5.0191380">
        <ele>686.4</ele>
        <time>2019-08-15T06:13:27Z</time>
      </trkpt>
      <trkpt lat="41.5130330" lon="-5.0191810">
        <ele>686.5</ele>
        <time>2019-08-15T06:13:28Z</time>
      </trkpt>
      <trkpt lat="41.5130530" lon="-5.0192250">
        <ele>686.7</ele>
        <time>2019-08-15T06:13:29Z</time>
      </trkpt>
      <trkpt lat="41.5130750" lon="-5.0192690">
        <ele>686.9</ele>
        <time>2019-08-15T06:13:30Z</time>
      </trkpt>
      <trkpt lat="41.5130980" lon="-5.0193140">
        <ele>687.0</ele>
        <time>2019-08-15T06:13:31Z</time>
      </trkpt>
      <trkpt lat="41.5131220" lon="-5.0193580">
        <ele>687.3</ele>
        <time>2019-08-15T06:13:32Z</time>
      </trkpt>
      <trkpt lat="41.5131460" lon="-5.0194020">
        <ele>687.6</ele>
        <time>2019-08-15T06:13:33Z</time>
      </trkpt>
      <trkpt lat="41.5131720" lon="-5.0194420">
        <ele>688.0</ele>
        <time>2019-08-15T06:13:34Z</time>
      </trkpt>
      <trkpt lat="41.5131980" lon="-5.0194830">
        <ele>688.3</ele>
        <time>2019-08-15T06:13:35Z</time>
      </trkpt>
      <trkpt lat="41.5132240" lon="-5.0195230">
        <ele>688.5</ele>
        <time>2019-08-15T06:13:36Z</time>
      </trkpt>
      <trkpt lat="41.5132510" lon="-5.0195640">
        <ele>688.8</ele>
        <time>2019-08-15T06:13:37Z</time>
      </trkpt>
      <trkpt lat="41.5132810" lon="-5.0196030">
        <ele>689.0</ele>
        <time>2019-08-15T06:13:38Z</time>
      </trkpt>
      <trkpt lat="41.5133120" lon="-5.0196430">
        <ele>689.3</ele>
        <time>2019-08-15T06:13:39Z</time>
      </trkpt>
      <trkpt lat="41.5133440" lon="-5.0196820">
        <ele>689.5</ele>
        <time>2019-08-15T06:13:40Z</time>
      </trkpt>
      <trkpt lat="41.5133780" lon="-5.0197200">
        <ele>689.7</ele>
        <time>2019-08-15T06:13:41Z</time>
      </trkpt>
      <trkpt lat="41.5134140" lon="-5.0197560">
        <ele>690.0</ele>
        <time>2019-08-15T06:13:42Z</time>
      </trkpt>
      <trkpt lat="41.5134510" lon="-5.0197900">
        <ele>690.2</ele>
        <time>2019-08-15T06:13:43Z</time>
      </trkpt>
      <trkpt lat="41.5134880" lon="-5.0198210">
        <ele>690.4</ele>
        <time>2019-08-15T06:13:44Z</time>
      </trkpt>
      <trkpt lat="41.5135260" lon="-5.0198510">
        <ele>690.6</ele>
        <time>2019-08-15T06:13:45Z</time>
      </trkpt>
      <trkpt lat="41.5135650" lon="-5.0198770">
        <ele>690.8</ele>
        <time>2019-08-15T06:13:46Z</time>
      </trkpt>
      <trkpt lat="41.5136040" lon="-5.0199030">
        <ele>691.0</ele>
        <time>2019-08-15T06:13:47Z</time>
      </trkpt>
      <trkpt lat="41.5136430" lon="-5.0199270">
        <ele>691.0</ele>
        <time>2019-08-15T06:13:48Z</time>
      </trkpt>
      <trkpt lat="41.5136810" lon="-5.0199520">
        <ele>691.1</ele>
        <time>2019-08-15T06:13:49Z</time>
      </trkpt>
      <trkpt lat="41.5137180" lon="-5.0199740">
        <ele>691.2</ele>
        <time>2019-08-15T06:13:50Z</time>
      </trkpt>
      <trkpt lat="41.5137540" lon="-5.0199920">
        <ele>691.2</ele>
        <time>2019-08-15T06:13:51Z</time>
      </trkpt>
      <trkpt lat="41.5137880" lon="-5.0200060">
        <ele>691.3</ele>
        <time>2019-08-15T06:13:52Z</time>
      </trkpt>
      <trkpt lat="41.5138180" lon="-5.0200190">
        <ele>691.3</ele>
        <time>2019-08-15T06:13:53Z</time>
      </trkpt>
      <trkpt lat="41.5138450" lon="-5.0200270">
        <ele>691.3</ele>
        <time>2019-08-15T06:13:54Z</time>
      </trkpt>
      <trkpt lat="41.5138670" lon="-5.0200320">
        <ele>691.3</ele>
        <time>2019-08-15T06:13:55Z</time>
      </trkpt>
      <trkpt lat="41.5139090" lon="-5.0200380">
        <ele>691.2</ele>
        <time>2019-08-15T06:13:57Z</time>
      </trkpt>
      <trkpt lat="41.5139450" lon="-5.0200410">
        <ele>691.0</ele>
        <time>2019-08-15T06:13:59Z</time>
      </trkpt>
      <trkpt lat="41.5139800" lon="-5.0200300">
        <ele>690.8</ele>
        <time>2019-08-15T06:14:01Z</time>
      </trkpt>
      <trkpt lat="41.5140350" lon="-5.0199900">
        <ele>689.8</ele>
        <time>2019-08-15T06:14:03Z</time>
      </trkpt>
      <trkpt lat="41.5140730" lon="-5.0199600">
        <ele>689.5</ele>
        <time>2019-08-15T06:14:04Z</time>
      </trkpt>
      <trkpt lat="41.5141160" lon="-5.0199390">
        <ele>689.7</ele>
        <time>2019-08-15T06:14:05Z</time>
      </trkpt>
      <trkpt lat="41.5141610" lon="-5.0199310">
        <ele>689.8</ele>
        <time>2019-08-15T06:14:06Z</time>
      </trkpt>
      <trkpt lat="41.5142050" lon="-5.0199290">
        <ele>689.8</ele>
        <time>2019-08-15T06:14:07Z</time>
      </trkpt>
      <trkpt lat="41.5142460" lon="-5.0199290">
        <ele>689.9</ele>
        <time>2019-08-15T06:14:08Z</time>
      </trkpt>
      <trkpt lat="41.5142860" lon="-5.0199260">
        <ele>689.9</ele>
        <time>2019-08-15T06:14:09Z</time>
      </trkpt>
      <trkpt lat="41.5143240" lon="-5.0199190">
        <ele>689.9</ele>
        <time>2019-08-15T06:14:10Z</time>
      </trkpt>
      <trkpt lat="41.5143600" lon="-5.0199110">
        <ele>690.0</ele>
        <time>2019-08-15T06:14:11Z</time>
      </trkpt>
      <trkpt lat="41.5143930" lon="-5.0199020">
        <ele>690.0</ele>
        <time>2019-08-15T06:14:12Z</time>
      </trkpt>
      <trkpt lat="41.5144250" lon="-5.0198920">
        <ele>690.1</ele>
        <time>2019-08-15T06:14:13Z</time>
      </trkpt>
      <trkpt lat="41.5144550" lon="-5.0198810">
        <ele>690.1</ele>
        <time>2019-08-15T06:14:14Z</time>
      </trkpt>
      <trkpt lat="41.5144850" lon="-5.0198670">
        <ele>690.2</ele>
        <time>2019-08-15T06:14:15Z</time>
      </trkpt>
      <trkpt lat="41.5145150" lon="-5.0198520">
        <ele>690.2</ele>
        <time>2019-08-15T06:14:16Z</time>
      </trkpt>
      <trkpt lat="41.5145460" lon="-5.0198380">
        <ele>690.3</ele>
        <time>2019-08-15T06:14:17Z</time>
      </trkpt>
      <trkpt lat="41.5145770" lon="-5.0198250">
        <ele>690.3</ele>
        <time>2019-08-15T06:14:18Z</time>
      </trkpt>
      <trkpt lat="41.5146110" lon="-5.0198140">
        <ele>690.4</ele>
        <time>2019-08-15T06:14:19Z</time>
      </trkpt>
      <trkpt lat="41.5146440" lon="-5.0198030">
        <ele>690.5</ele>
        <time>2019-08-15T06:14:20Z</time>
      </trkpt>
      <trkpt lat="41.5146780" lon="-5.0197930">
        <ele>690.6</ele>
        <time>2019-08-15T06:14:21Z</time>
      </trkpt>
      <trkpt lat="41.5147110" lon="-5.0197790">
        <ele>690.7</ele>
        <time>2019-08-15T06:14:22Z</time>
      </trkpt>
      <trkpt lat="41.5147460" lon="-5.0197650">
        <ele>690.8</ele>
        <time>2019-08-15T06:14:23Z</time>
      </trkpt>
      <trkpt lat="41.5147810" lon="-5.0197490">
        <ele>690.8</ele>
        <time>2019-08-15T06:14:24Z</time>
      </trkpt>
      <trkpt lat="41.5148180" lon="-5.0197340">
        <ele>690.9</ele>
        <time>2019-08-15T06:14:25Z</time>
      </trkpt>
      <trkpt lat="41.5148550" lon="-5.0197190">
        <ele>691.0</ele>
        <time>2019-08-15T06:14:26Z</time>
      </trkpt>
      <trkpt lat="41.5148940" lon="-5.0197050">
        <ele>691.0</ele>
        <time>2019-08-15T06:14:27Z</time>
      </trkpt>
      <trkpt lat="41.5149330" lon="-5.0196920">
        <ele>691.1</ele>
        <time>2019-08-15T06:14:28Z</time>
      </trkpt>
      <trkpt lat="41.5149730" lon="-5.0196770">
        <ele>691.2</ele>
        <time>2019-08-15T06:14:29Z</time>
      </trkpt>
      <trkpt lat="41.5150130" lon="-5.0196610">
        <ele>691.2</ele>
        <time>2019-08-15T06:14:30Z</time>
      </trkpt>
      <trkpt lat="41.5150520" lon="-5.0196450">
        <ele>691.3</ele>
        <time>2019-08-15T06:14:31Z</time>
      </trkpt>
      <trkpt lat="41.5150940" lon="-5.0196310">
        <ele>691.3</ele>
        <time>2019-08-15T06:14:32Z</time>
      </trkpt>
      <trkpt lat="41.5151360" lon="-5.0196180">
        <ele>691.4</ele>
        <time>2019-08-15T06:14:33Z</time>
      </trkpt>
      <trkpt lat="41.5151790" lon="-5.0196040">
        <ele>691.4</ele>
        <time>2019-08-15T06:14:34Z</time>
      </trkpt>
      <trkpt lat="41.5152230" lon="-5.0195880">
        <ele>691.5</ele>
        <time>2019-08-15T06:14:35Z</time>
      </trkpt>
      <trkpt lat="41.5152670" lon="-5.0195720">
        <ele>691.5</ele>
        <time>2019-08-15T06:14:36Z</time>
      </trkpt>
      <trkpt lat="41.5153120" lon="-5.0195570">
        <ele>691.7</ele>
        <time>2019-08-15T06:14:37Z</time>
      </trkpt>
      <trkpt lat="41.5153570" lon="-5.0195440">
        <ele>691.7</ele>
        <time>2019-08-15T06:14:38Z</time>
      </trkpt>
      <trkpt lat="41.5154020" lon="-5.0195310">
        <ele>691.8</ele>
        <time>2019-08-15T06:14:39Z</time>
      </trkpt>
      <trkpt lat="41.5154450" lon="-5.0195170">
        <ele>691.9</ele>
        <time>2019-08-15T06:14:40Z</time>
      </trkpt>
      <trkpt lat="41.5154860" lon="-5.0195000">
        <ele>691.9</ele>
        <time>2019-08-15T06:14:41Z</time>
      </trkpt>
      <trkpt lat="41.5155300" lon="-5.0194850">
        <ele>692.0</ele>
        <time>2019-08-15T06:14:42Z</time>
      </trkpt>
      <trkpt lat="41.5155730" lon="-5.0194690">
        <ele>692.1</ele>
        <time>2019-08-15T06:14:43Z</time>
      </trkpt>
      <trkpt lat="41.5156170" lon="-5.0194520">
        <ele>692.1</ele>
        <time>2019-08-15T06:14:44Z</time>
      </trkpt>
      <trkpt lat="41.5156620" lon="-5.0194370">
        <ele>692.2</ele>
        <time>2019-08-15T06:14:45Z</time>
      </trkpt>
      <trkpt lat="41.5157060" lon="-5.0194220">
        <ele>692.2</ele>
        <time>2019-08-15T06:14:46Z</time>
      </trkpt>
      <trkpt lat="41.5157490" lon="-5.0194070">
        <ele>692.3</ele>
        <time>2019-08-15T06:14:47Z</time>
      </trkpt>
      <trkpt lat="41.5157910" lon="-5.0193930">
        <ele>692.3</ele>
        <time>2019-08-15T06:14:48Z</time>
      </trkpt>
      <trkpt lat="41.5158320" lon="-5.0193810">
        <ele>692.3</ele>
        <time>2019-08-15T06:14:49Z</time>
      </trkpt>
      <trkpt lat="41.5158710" lon="-5.0193690">
        <ele>692.4</ele>
        <time>2019-08-15T06:14:50Z</time>
      </trkpt>
      <trkpt lat="41.5159090" lon="-5.0193550">
        <ele>692.4</ele>
        <time>2019-08-15T06:14:51Z</time>
      </trkpt>
      <trkpt lat="41.5159470" lon="-5.0193420">
        <ele>692.4</ele>
        <time>2019-08-15T06:14:52Z</time>
      </trkpt>
      <trkpt lat="41.5159840" lon="-5.0193290">
        <ele>692.5</ele>
        <time>2019-08-15T06:14:53Z</time>
      </trkpt>
      <trkpt lat="41.5160200" lon="-5.0193190">
        <ele>692.5</ele>
        <time>2019-08-15T06:14:54Z</time>
      </trkpt>
      <trkpt lat="41.5160560" lon="-5.0193080">
        <ele>692.6</ele>
        <time>2019-08-15T06:14:55Z</time>
      </trkpt>
      <trkpt lat="41.5160930" lon="-5.0192990">
        <ele>692.6</ele>
        <time>2019-08-15T06:14:56Z</time>
      </trkpt>
      <trkpt lat="41.5161300" lon="-5.0192940">
        <ele>692.7</ele>
        <time>2019-08-15T06:14:57Z</time>
      </trkpt>
      <trkpt lat="41.5161690" lon="-5.0192960">
        <ele>692.7</ele>
        <time>2019-08-15T06:14:58Z</time>
      </trkpt>
      <trkpt lat="41.5162070" lon="-5.0193080">
        <ele>692.8</ele>
        <time>2019-08-15T06:14:59Z</time>
      </trkpt>
      <trkpt lat="41.5162440" lon="-5.0193250">
        <ele>692.9</ele>
        <time>2019-08-15T06:15:00Z</time>
      </trkpt>
      <trkpt lat="41.5162780" lon="-5.0193500">
        <ele>692.9</ele>
        <time>2019-08-15T06:15:01Z</time>
      </trkpt>
      <trkpt lat="41.5163090" lon="-5.0193840">
        <ele>692.9</ele>
        <time>2019-08-15T06:15:02Z</time>
      </trkpt>
      <trkpt lat="41.5163340" lon="-5.0194250">
        <ele>692.9</ele>
        <time>2019-08-15T06:15:03Z</time>
      </trkpt>
      <trkpt lat="41.5163520" lon="-5.0194740">
        <ele>692.8</ele>
        <time>2019-08-15T06:15:04Z</time>
      </trkpt>
      <trkpt lat="41.5163660" lon="-5.0195250">
        <ele>692.8</ele>
        <time>2019-08-15T06:15:05Z</time>
      </trkpt>
      <trkpt lat="41.5163770" lon="-5.0195770">
        <ele>692.8</ele>
        <time>2019-08-15T06:15:06Z</time>
      </trkpt>
      <trkpt lat="41.5163880" lon="-5.0196260">
        <ele>692.8</ele>
        <time>2019-08-15T06:15:07Z</time>
      </trkpt>
      <trkpt lat="41.5164000" lon="-5.0196740">
        <ele>692.8</ele>
        <time>2019-08-15T06:15:08Z</time>
      </trkpt>
      <trkpt lat="41.5164120" lon="-5.0197180">
        <ele>692.7</ele>
        <time>2019-08-15T06:15:09Z</time>
      </trkpt>
      <trkpt lat="41.5164210" lon="-5.0197610">
        <ele>692.7</ele>
        <time>2019-08-15T06:15:10Z</time>
      </trkpt>
      <trkpt lat="41.5164270" lon="-5.0198050">
        <ele>692.7</ele>
        <time>2019-08-15T06:15:11Z</time>
      </trkpt>
      <trkpt lat="41.5164320" lon="-5.0198480">
        <ele>692.7</ele>
        <time>2019-08-15T06:15:12Z</time>
      </trkpt>
      <trkpt lat="41.5164350" lon="-5.0198930">
        <ele>692.6</ele>
        <time>2019-08-15T06:15:13Z</time>
      </trkpt>
      <trkpt lat="41.5164310" lon="-5.0199380">
        <ele>692.6</ele>
        <time>2019-08-15T06:15:14Z</time>
      </trkpt>
      <trkpt lat="41.5164190" lon="-5.0199830">
        <ele>692.5</ele>
        <time>2019-08-15T06:15:15Z</time>
      </trkpt>
      <trkpt lat="41.5164030" lon="-5.0200280">
        <ele>692.4</ele>
        <time>2019-08-15T06:15:16Z</time>
      </trkpt>
      <trkpt lat="41.5163840" lon="-5.0200730">
        <ele>692.3</ele>
        <time>2019-08-15T06:15:17Z</time>
      </trkpt>
      <trkpt lat="41.5163670" lon="-5.0201210">
        <ele>692.2</ele>
        <time>2019-08-15T06:15:18Z</time>
      </trkpt>
      <trkpt lat="41.5163530" lon="-5.0201700">
        <ele>692.0</ele>
        <time>2019-08-15T06:15:19Z</time>
      </trkpt>
      <trkpt lat="41.5163420" lon="-5.0202200">
        <ele>691.9</ele>
        <time>2019-08-15T06:15:20Z</time>
      </trkpt>
      <trkpt lat="41.5163330" lon="-5.0202700">
        <ele>691.8</ele>
        <time>2019-08-15T06:15:21Z</time>
      </trkpt>
      <trkpt lat="41.5163250" lon="-5.0203180">
        <ele>691.6</ele>
        <time>2019-08-15T06:15:22Z</time>
      </trkpt>
      <trkpt lat="41.5163160" lon="-5.0203650">
        <ele>691.5</ele>
        <time>2019-08-15T06:15:23Z</time>
      </trkpt>
      <trkpt lat="41.5163100" lon="-5.0204110">
        <ele>691.4</ele>
        <time>2019-08-15T06:15:24Z</time>
      </trkpt>
      <trkpt lat="41.5163060" lon="-5.0204570">
        <ele>691.3</ele>
        <time>2019-08-15T06:15:25Z</time>
      </trkpt>
      <trkpt lat="41.5163080" lon="-5.0205050">
        <ele>691.2</ele>
        <time>2019-08-15T06:15:26Z</time>
      </trkpt>
      <trkpt lat="41.5163130" lon="-5.0205520">
        <ele>691.1</ele>
        <time>2019-08-15T06:15:27Z</time>
      </trkpt>
      <trkpt lat="41.5163210" lon="-5.0205980">
        <ele>691.1</ele>
        <time>2019-08-15T06:15:28Z</time>
      </trkpt>
      <trkpt lat="41.5163340" lon="-5.0206410">
        <ele>691.1</ele>
        <time>2019-08-15T06:15:29Z</time>
      </trkpt>
      <trkpt lat="41.5163540" lon="-5.0206800">
        <ele>691.1</ele>
        <time>2019-08-15T06:15:30Z</time>
      </trkpt>
      <trkpt lat="41.5163770" lon="-5.0207140">
        <ele>691.2</ele>
        <time>2019-08-15T06:15:31Z</time>
      </trkpt>
      <trkpt lat="41.5164020" lon="-5.0207440">
        <ele>691.2</ele>
        <time>2019-08-15T06:15:32Z</time>
      </trkpt>
      <trkpt lat="41.5164270" lon="-5.0207700">
        <ele>691.2</ele>
        <time>2019-08-15T06:15:33Z</time>
      </trkpt>
      <trkpt lat="41.5164510" lon="-5.0207940">
        <ele>691.2</ele>
        <time>2019-08-15T06:15:34Z</time>
      </trkpt>
      <trkpt lat="41.5164750" lon="-5.0208180">
        <ele>691.3</ele>
        <time>2019-08-15T06:15:35Z</time>
      </trkpt>
      <trkpt lat="41.5164990" lon="-5.0208440">
        <ele>691.3</ele>
        <time>2019-08-15T06:15:36Z</time>
      </trkpt>
      <trkpt lat="41.5165240" lon="-5.0208710">
        <ele>691.4</ele>
        <time>2019-08-15T06:15:37Z</time>
      </trkpt>
      <trkpt lat="41.5165510" lon="-5.0209000">
        <ele>691.4</ele>
        <time>2019-08-15T06:15:38Z</time>
      </trkpt>
      <trkpt lat="41.5165780" lon="-5.0209290">
        <ele>691.5</ele>
        <time>2019-08-15T06:15:39Z</time>
      </trkpt>
      <trkpt lat="41.5166050" lon="-5.0209590">
        <ele>691.5</ele>
        <time>2019-08-15T06:15:40Z</time>
      </trkpt>
      <trkpt lat="41.5166300" lon="-5.0209940">
        <ele>691.5</ele>
        <time>2019-08-15T06:15:41Z</time>
      </trkpt>
      <trkpt lat="41.5166510" lon="-5.0210340">
        <ele>691.6</ele>
        <time>2019-08-15T06:15:42Z</time>
      </trkpt>
      <trkpt lat="41.5166650" lon="-5.0210790">
        <ele>691.6</ele>
        <time>2019-08-15T06:15:43Z</time>
      </trkpt>
      <trkpt lat="41.5166710" lon="-5.0211240">
        <ele>691.7</ele>
        <time>2019-08-15T06:15:44Z</time>
      </trkpt>
      <trkpt lat="41.5166690" lon="-5.0211690">
        <ele>691.8</ele>
        <time>2019-08-15T06:15:45Z</time>
      </trkpt>
      <trkpt lat="41.5166590" lon="-5.0212170">
        <ele>692.0</ele>
        <time>2019-08-15T06:15:46Z</time>
      </trkpt>
      <trkpt lat="41.5166440" lon="-5.0212640">
        <ele>692.1</ele>
        <time>2019-08-15T06:15:47Z</time>
      </trkpt>
      <trkpt lat="41.5166230" lon="-5.0213110">
        <ele>692.2</ele>
        <time>2019-08-15T06:15:48Z</time>
      </trkpt>
      <trkpt lat="41.5165960" lon="-5.0213510">
        <ele>692.3</ele>
        <time>2019-08-15T06:15:49Z</time>
      </trkpt>
      <trkpt lat="41.5165620" lon="-5.0213860">
        <ele>692.3</ele>
        <time>2019-08-15T06:15:50Z</time>
      </trkpt>
      <trkpt lat="41.5165230" lon="-5.0214150">
        <ele>692.2</ele>
        <time>2019-08-15T06:15:51Z</time>
      </trkpt>
      <trkpt lat="41.5164810" lon="-5.0214400">
        <ele>692.3</ele>
        <time>2019-08-15T06:15:52Z</time>
      </trkpt>
      <trkpt lat="41.5164360" lon="-5.0214610">
        <ele>692.2</ele>
        <time>2019-08-15T06:15:53Z</time>
      </trkpt>
      <trkpt lat="41.5163900" lon="-5.0214800">
        <ele>692.1</ele>
        <time>2019-08-15T06:15:54Z</time>
      </trkpt>
      <trkpt lat="41.5163420" lon="-5.0215000">
        <ele>692.0</ele>
        <time>2019-08-15T06:15:55Z</time>
      </trkpt>
      <trkpt lat="41.5162950" lon="-5.0215200">
        <ele>692.1</ele>
        <time>2019-08-15T06:15:56Z</time>
      </trkpt>
      <trkpt lat="41.5162460" lon="-5.0215410">
        <ele>692.0</ele>
        <time>2019-08-15T06:15:57Z</time>
      </trkpt>
      <trkpt lat="41.5161980" lon="-5.0215620">
        <ele>692.0</ele>
        <time>2019-08-15T06:15:58Z</time>
      </trkpt>
      <trkpt lat="41.5161500" lon="-5.0215830">
        <ele>692.1</ele>
        <time>2019-08-15T06:15:59Z</time>
      </trkpt>
      <trkpt lat="41.5161010" lon="-5.0216020">
        <ele>692.0</ele>
        <time>2019-08-15T06:16:00Z</time>
      </trkpt>
      <trkpt lat="41.5160510" lon="-5.0216220">
        <ele>691.9</ele>
        <time>2019-08-15T06:16:01Z</time>
      </trkpt>
      <trkpt lat="41.5160000" lon="-5.0216430">
        <ele>691.9</ele>
        <time>2019-08-15T06:16:02Z</time>
      </trkpt>
      <trkpt lat="41.5159490" lon="-5.0216620">
        <ele>691.9</ele>
        <time>2019-08-15T06:16:03Z</time>
      </trkpt>
      <trkpt lat="41.5158990" lon="-5.0216820">
        <ele>691.9</ele>
        <time>2019-08-15T06:16:04Z</time>
      </trkpt>
      <trkpt lat="41.5158490" lon="-5.0217040">
        <ele>691.8</ele>
        <time>2019-08-15T06:16:05Z</time>
      </trkpt>
      <trkpt lat="41.5158000" lon="-5.0217260">
        <ele>691.9</ele>
        <time>2019-08-15T06:16:06Z</time>
      </trkpt>
      <trkpt lat="41.5157510" lon="-5.0217480">
        <ele>691.8</ele>
        <time>2019-08-15T06:16:07Z</time>
      </trkpt>
      <trkpt lat="41.5157000" lon="-5.0217710">
        <ele>691.8</ele>
        <time>2019-08-15T06:16:08Z</time>
      </trkpt>
      <trkpt lat="41.5156500" lon="-5.0217940">
        <ele>691.8</ele>
        <time>2019-08-15T06:16:09Z</time>
      </trkpt>
      <trkpt lat="41.5155990" lon="-5.0218150">
        <ele>691.8</ele>
        <time>2019-08-15T06:16:10Z</time>
      </trkpt>
      <trkpt lat="41.5155470" lon="-5.0218370">
        <ele>691.8</ele>
        <time>2019-08-15T06:16:11Z</time>
      </trkpt>
      <trkpt lat="41.5154950" lon="-5.0218590">
        <ele>691.7</ele>
        <time>2019-08-15T06:16:12Z</time>
      </trkpt>
      <trkpt lat="41.5154430" lon="-5.0218810">
        <ele>691.8</ele>
        <time>2019-08-15T06:16:13Z</time>
      </trkpt>
      <trkpt lat="41.5153910" lon="-5.0219040">
        <ele>691.8</ele>
        <time>2019-08-15T06:16:14Z</time>
      </trkpt>
      <trkpt lat="41.5153380" lon="-5.0219270">
        <ele>691.7</ele>
        <time>2019-08-15T06:16:15Z</time>
      </trkpt>
      <trkpt lat="41.5152860" lon="-5.0219500">
        <ele>691.8</ele>
        <time>2019-08-15T06:16:16Z</time>
      </trkpt>
      <trkpt lat="41.5152340" lon="-5.0219750">
        <ele>691.8</ele>
        <time>2019-08-15T06:16:17Z</time>
      </trkpt>
      <trkpt lat="41.5151840" lon="-5.0220030">
        <ele>691.7</ele>
        <time>2019-08-15T06:16:18Z</time>
      </trkpt>
      <trkpt lat="41.5151360" lon="-5.0220320">
        <ele>691.8</ele>
        <time>2019-08-15T06:16:19Z</time>
      </trkpt>
      <trkpt lat="41.5150900" lon="-5.0220630">
        <ele>691.7</ele>
        <time>2019-08-15T06:16:20Z</time>
      </trkpt>
      <trkpt lat="41.5150430" lon="-5.0220970">
        <ele>691.7</ele>
        <time>2019-08-15T06:16:21Z</time>
      </trkpt>
      <trkpt lat="41.5149970" lon="-5.0221360">
        <ele>691.7</ele>
        <time>2019-08-15T06:16:22Z</time>
      </trkpt>
      <trkpt lat="41.5149540" lon="-5.0221780">
        <ele>691.8</ele>
        <time>2019-08-15T06:16:23Z</time>
      </trkpt>
      <trkpt lat="41.5149120" lon="-5.0222240">
        <ele>691.8</ele>
        <time>2019-08-15T06:16:24Z</time>
      </trkpt>
      <trkpt lat="41.5148730" lon="-5.0222720">
        <ele>691.8</ele>
        <time>2019-08-15T06:16:25Z</time>
      </trkpt>
      <trkpt lat="41.5148360" lon="-5.0223240">
        <ele>691.9</ele>
        <time>2019-08-15T06:16:26Z</time>
      </trkpt>
      <trkpt lat="41.5148000" lon="-5.0223770">
        <ele>691.9</ele>
        <time>2019-08-15T06:16:27Z</time>
      </trkpt>
      <trkpt lat="41.5147660" lon="-5.0224330">
        <ele>691.8</ele>
        <time>2019-08-15T06:16:28Z</time>
      </trkpt>
      <trkpt lat="41.5147340" lon="-5.0224910">
        <ele>691.8</ele>
        <time>2019-08-15T06:16:29Z</time>
      </trkpt>
      <trkpt lat="41.5147040" lon="-5.0225500">
        <ele>691.9</ele>
        <time>2019-08-15T06:16:30Z</time>
      </trkpt>
      <trkpt lat="41.5146760" lon="-5.0226100">
        <ele>691.8</ele>
        <time>2019-08-15T06:16:31Z</time>
      </trkpt>
      <trkpt lat="41.5146500" lon="-5.0226720">
        <ele>691.7</ele>
        <time>2019-08-15T06:16:32Z</time>
      </trkpt>
      <trkpt lat="41.5146280" lon="-5.0227330">
        <ele>691.8</ele>
        <time>2019-08-15T06:16:33Z</time>
      </trkpt>
      <trkpt lat="41.5146070" lon="-5.0227960">
        <ele>691.8</ele>
        <time>2019-08-15T06:16:34Z</time>
      </trkpt>
      <trkpt lat="41.5145890" lon="-5.0228630">
        <ele>691.8</ele>
        <time>2019-08-15T06:16:35Z</time>
      </trkpt>
      <trkpt lat="41.5145750" lon="-5.0229310">
        <ele>691.9</ele>
        <time>2019-08-15T06:16:36Z</time>
      </trkpt>
      <trkpt lat="41.5145660" lon="-5.0230020">
        <ele>691.9</ele>
        <time>2019-08-15T06:16:37Z</time>
      </trkpt>
      <trkpt lat="41.5145600" lon="-5.0230720">
        <ele>691.9</ele>
        <time>2019-08-15T06:16:38Z</time>
      </trkpt>
      <trkpt lat="41.5145580" lon="-5.0231400">
        <ele>692.0</ele>
        <time>2019-08-15T06:16:39Z</time>
      </trkpt>
      <trkpt lat="41.5145580" lon="-5.0232070">
        <ele>692.0</ele>
        <time>2019-08-15T06:16:40Z</time>
      </trkpt>
      <trkpt lat="41.5145610" lon="-5.0232740">
        <ele>692.0</ele>
        <time>2019-08-15T06:16:41Z</time>
      </trkpt>
      <trkpt lat="41.5145660" lon="-5.0233400">
        <ele>692.0</ele>
        <time>2019-08-15T06:16:42Z</time>
      </trkpt>
      <trkpt lat="41.5145730" lon="-5.0234060">
        <ele>692.1</ele>
        <time>2019-08-15T06:16:43Z</time>
      </trkpt>
      <trkpt lat="41.5145810" lon="-5.0234720">
        <ele>692.1</ele>
        <time>2019-08-15T06:16:44Z</time>
      </trkpt>
      <trkpt lat="41.5145900" lon="-5.0235370">
        <ele>692.1</ele>
        <time>2019-08-15T06:16:45Z</time>
      </trkpt>
      <trkpt lat="41.5146000" lon="-5.0236030">
        <ele>692.1</ele>
        <time>2019-08-15T06:16:46Z</time>
      </trkpt>
      <trkpt lat="41.5146110" lon="-5.0236710">
        <ele>692.2</ele>
        <time>2019-08-15T06:16:47Z</time>
      </trkpt>
      <trkpt lat="41.5146240" lon="-5.0237380">
        <ele>692.2</ele>
        <time>2019-08-15T06:16:48Z</time>
      </trkpt>
      <trkpt lat="41.5146390" lon="-5.0238060">
        <ele>692.2</ele>
        <time>2019-08-15T06:16:49Z</time>
      </trkpt>
      <trkpt lat="41.5146560" lon="-5.0238730">
        <ele>692.3</ele>
        <time>2019-08-15T06:16:50Z</time>
      </trkpt>
      <trkpt lat="41.5146730" lon="-5.0239380">
        <ele>692.3</ele>
        <time>2019-08-15T06:16:51Z</time>
      </trkpt>
      <trkpt lat="41.5146920" lon="-5.0240020">
        <ele>692.3</ele>
        <time>2019-08-15T06:16:52Z</time>
      </trkpt>
      <trkpt lat="41.5147130" lon="-5.0240620">
        <ele>692.3</ele>
        <time>2019-08-15T06:16:53Z</time>
      </trkpt>
      <trkpt lat="41.5147340" lon="-5.0241220">
        <ele>692.4</ele>
        <time>2019-08-15T06:16:54Z</time>
      </trkpt>
      <trkpt lat="41.5147560" lon="-5.0241840">
        <ele>692.4</ele>
        <time>2019-08-15T06:16:55Z</time>
      </trkpt>
      <trkpt lat="41.5147780" lon="-5.0242440">
        <ele>692.4</ele>
        <time>2019-08-15T06:16:56Z</time>
      </trkpt>
      <trkpt lat="41.5148010" lon="-5.0243050">
        <ele>692.5</ele>
        <time>2019-08-15T06:16:57Z</time>
      </trkpt>
      <trkpt lat="41.5148270" lon="-5.0243620">
        <ele>692.5</ele>
        <time>2019-08-15T06:16:58Z</time>
      </trkpt>
      <trkpt lat="41.5148540" lon="-5.0244190">
        <ele>692.5</ele>
        <time>2019-08-15T06:16:59Z</time>
      </trkpt>
      <trkpt lat="41.5148820" lon="-5.0244750">
        <ele>692.5</ele>
        <time>2019-08-15T06:17:00Z</time>
      </trkpt>
      <trkpt lat="41.5149100" lon="-5.0245300">
        <ele>692.6</ele>
        <time>2019-08-15T06:17:01Z</time>
      </trkpt>
      <trkpt lat="41.5149390" lon="-5.0245830">
        <ele>692.6</ele>
        <time>2019-08-15T06:17:02Z</time>
      </trkpt>
      <trkpt lat="41.5149680" lon="-5.0246380">
        <ele>692.6</ele>
        <time>2019-08-15T06:17:03Z</time>
      </trkpt>
      <trkpt lat="41.5149950" lon="-5.0246890">
        <ele>692.7</ele>
        <time>2019-08-15T06:17:04Z</time>
      </trkpt>
      <trkpt lat="41.5150250" lon="-5.0247370">
        <ele>692.7</ele>
        <time>2019-08-15T06:17:05Z</time>
      </trkpt>
      <trkpt lat="41.5150550" lon="-5.0247870">
        <ele>692.7</ele>
        <time>2019-08-15T06:17:06Z</time>
      </trkpt>
      <trkpt lat="41.5150850" lon="-5.0248360">
        <ele>692.7</ele>
        <time>2019-08-15T06:17:07Z</time>
      </trkpt>
      <trkpt lat="41.5151150" lon="-5.0248870">
        <ele>692.8</ele>
        <time>2019-08-15T06:17:08Z</time>
      </trkpt>
      <trkpt lat="41.5151450" lon="-5.0249380">
        <ele>692.8</ele>
        <time>2019-08-15T06:17:09Z</time>
      </trkpt>
      <trkpt lat="41.5151760" lon="-5.0249870">
        <ele>692.8</ele>
        <time>2019-08-15T06:17:10Z</time>
      </trkpt>
      <trkpt lat="41.5152060" lon="-5.0250380">
        <ele>692.9</ele>
        <time>2019-08-15T06:17:11Z</time>
      </trkpt>
      <trkpt lat="41.5152370" lon="-5.0250880">
        <ele>692.9</ele>
        <time>2019-08-15T06:17:12Z</time>
      </trkpt>
      <trkpt lat="41.5152660" lon="-5.0251400">
        <ele>692.9</ele>
        <time>2019-08-15T06:17:13Z</time>
      </trkpt>
      <trkpt lat="41.5152950" lon="-5.0251900">
        <ele>692.9</ele>
        <time>2019-08-15T06:17:14Z</time>
      </trkpt>
      <trkpt lat="41.5153240" lon="-5.0252410">
        <ele>693.0</ele>
        <time>2019-08-15T06:17:15Z</time>
      </trkpt>
      <trkpt lat="41.5153520" lon="-5.0252930">
        <ele>693.0</ele>
        <time>2019-08-15T06:17:16Z</time>
      </trkpt>
      <trkpt lat="41.5153800" lon="-5.0253440">
        <ele>693.0</ele>
        <time>2019-08-15T06:17:17Z</time>
      </trkpt>
      <trkpt lat="41.5154070" lon="-5.0253970">
        <ele>693.0</ele>
        <time>2019-08-15T06:17:18Z</time>
      </trkpt>
      <trkpt lat="41.5154330" lon="-5.0254500">
        <ele>693.1</ele>
        <time>2019-08-15T06:17:19Z</time>
      </trkpt>
      <trkpt lat="41.5154600" lon="-5.0255020">
        <ele>693.1</ele>
        <time>2019-08-15T06:17:20Z</time>
      </trkpt>
      <trkpt lat="41.5154860" lon="-5.0255540">
        <ele>693.1</ele>
        <time>2019-08-15T06:17:21Z</time>
      </trkpt>
      <trkpt lat="41.5155130" lon="-5.0256080">
        <ele>693.1</ele>
        <time>2019-08-15T06:17:22Z</time>
      </trkpt>
      <trkpt lat="41.5155390" lon="-5.0256620">
        <ele>693.2</ele>
        <time>2019-08-15T06:17:23Z</time>
      </trkpt>
      <trkpt lat="41.5155650" lon="-5.0257160">
        <ele>693.2</ele>
        <time>2019-08-15T06:17:24Z</time>
      </trkpt>
      <trkpt lat="41.5155920" lon="-5.0257710">
        <ele>693.2</ele>
        <time>2019-08-15T06:17:25Z</time>
      </trkpt>
      <trkpt lat="41.5156200" lon="-5.0258260">
        <ele>693.2</ele>
        <time>2019-08-15T06:17:26Z</time>
      </trkpt>
      <trkpt lat="41.5156480" lon="-5.0258790">
        <ele>693.3</ele>
        <time>2019-08-15T06:17:27Z</time>
      </trkpt>
      <trkpt lat="41.5156750" lon="-5.0259300">
        <ele>693.3</ele>
        <time>2019-08-15T06:17:28Z</time>
      </trkpt>
      <trkpt lat="41.5157030" lon="-5.0259810">
        <ele>693.3</ele>
        <time>2019-08-15T06:17:29Z</time>
      </trkpt>
      <trkpt lat="41.5157320" lon="-5.0260320">
        <ele>693.3</ele>
        <time>2019-08-15T06:17:30Z</time>
      </trkpt>
      <trkpt lat="41.5157600" lon="-5.0260860">
        <ele>693.4</ele>
        <time>2019-08-15T06:17:31Z</time>
      </trkpt>
      <trkpt lat="41.5157890" lon="-5.0261380">
        <ele>693.4</ele>
        <time>2019-08-15T06:17:32Z</time>
      </trkpt>
      <trkpt lat="41.5158190" lon="-5.0261910">
        <ele>693.4</ele>
        <time>2019-08-15T06:17:33Z</time>
      </trkpt>
      <trkpt lat="41.5158490" lon="-5.0262440">
        <ele>693.4</ele>
        <time>2019-08-15T06:17:34Z</time>
      </trkpt>
      <trkpt lat="41.5158790" lon="-5.0262980">
        <ele>693.5</ele>
        <time>2019-08-15T06:17:35Z</time>
      </trkpt>
      <trkpt lat="41.5159100" lon="-5.0263520">
        <ele>693.5</ele>
        <time>2019-08-15T06:17:36Z</time>
      </trkpt>
      <trkpt lat="41.5159380" lon="-5.0264070">
        <ele>693.5</ele>
        <time>2019-08-15T06:17:37Z</time>
      </trkpt>
      <trkpt lat="41.5159670" lon="-5.0264630">
        <ele>693.6</ele>
        <time>2019-08-15T06:17:38Z</time>
      </trkpt>
      <trkpt lat="41.5159970" lon="-5.0265150">
        <ele>693.6</ele>
        <time>2019-08-15T06:17:39Z</time>
      </trkpt>
      <trkpt lat="41.5160270" lon="-5.0265680">
        <ele>693.6</ele>
        <time>2019-08-15T06:17:40Z</time>
      </trkpt>
      <trkpt lat="41.5160560" lon="-5.0266220">
        <ele>693.6</ele>
        <time>2019-08-15T06:17:41Z</time>
      </trkpt>
      <trkpt lat="41.5160870" lon="-5.0266750">
        <ele>693.7</ele>
        <time>2019-08-15T06:17:42Z</time>
      </trkpt>
      <trkpt lat="41.5161180" lon="-5.0267270">
        <ele>693.7</ele>
        <time>2019-08-15T06:17:43Z</time>
      </trkpt>
      <trkpt lat="41.5161480" lon="-5.0267800">
        <ele>693.7</ele>
        <time>2019-08-15T06:17:44Z</time>
      </trkpt>
      <trkpt lat="41.5161780" lon="-5.0268350">
        <ele>693.7</ele>
        <time>2019-08-15T06:17:45Z</time>
      </trkpt>
      <trkpt lat="41.5162060" lon="-5.0268860">
        <ele>693.8</ele>
        <time>2019-08-15T06:17:46Z</time>
      </trkpt>
      <trkpt lat="41.5162350" lon="-5.0269360">
        <ele>694.0</ele>
        <time>2019-08-15T06:17:47Z</time>
      </trkpt>
      <trkpt lat="41.5162640" lon="-5.0269890">
        <ele>694.1</ele>
        <time>2019-08-15T06:17:48Z</time>
      </trkpt>
      <trkpt lat="41.5162900" lon="-5.0270430">
        <ele>694.2</ele>
        <time>2019-08-15T06:17:49Z</time>
      </trkpt>
      <trkpt lat="41.5163170" lon="-5.0270980">
        <ele>694.3</ele>
        <time>2019-08-15T06:17:50Z</time>
      </trkpt>
      <trkpt lat="41.5163460" lon="-5.0271510">
        <ele>694.4</ele>
        <time>2019-08-15T06:17:51Z</time>
      </trkpt>
      <trkpt lat="41.5163750" lon="-5.0272040">
        <ele>694.5</ele>
        <time>2019-08-15T06:17:52Z</time>
      </trkpt>
      <trkpt lat="41.5164050" lon="-5.0272540">
        <ele>694.6</ele>
        <time>2019-08-15T06:17:53Z</time>
      </trkpt>
      <trkpt lat="41.5164340" lon="-5.0273050">
        <ele>694.7</ele>
        <time>2019-08-15T06:17:54Z</time>
      </trkpt>
      <trkpt lat="41.5164660" lon="-5.0273550">
        <ele>694.8</ele>
        <time>2019-08-15T06:17:55Z</time>
      </trkpt>
      <trkpt lat="41.5164990" lon="-5.0274060">
        <ele>695.0</ele>
        <time>2019-08-15T06:17:56Z</time>
      </trkpt>
      <trkpt lat="41.5165310" lon="-5.0274550">
        <ele>695.2</ele>
        <time>2019-08-15T06:17:57Z</time>
      </trkpt>
      <trkpt lat="41.5165660" lon="-5.0275010">
        <ele>695.4</ele>
        <time>2019-08-15T06:17:58Z</time>
      </trkpt>
      <trkpt lat="41.5166020" lon="-5.0275450">
        <ele>695.6</ele>
        <time>2019-08-15T06:17:59Z</time>
      </trkpt>
      <trkpt lat="41.5166380" lon="-5.0275830">
        <ele>695.8</ele>
        <time>2019-08-15T06:18:00Z</time>
      </trkpt>
      <trkpt lat="41.5166740" lon="-5.0276160">
        <ele>695.9</ele>
        <time>2019-08-15T06:18:01Z</time>
      </trkpt>
      <trkpt lat="41.5167120" lon="-5.0276470">
        <ele>696.0</ele>
        <time>2019-08-15T06:18:02Z</time>
      </trkpt>
      <trkpt lat="41.5167520" lon="-5.0276750">
        <ele>696.2</ele>
        <time>2019-08-15T06:18:03Z</time>
      </trkpt>
      <trkpt lat="41.5167910" lon="-5.0277010">
        <ele>696.3</ele>
        <time>2019-08-15T06:18:04Z</time>
      </trkpt>
      <trkpt lat="41.5168310" lon="-5.0277240">
        <ele>696.4</ele>
        <time>2019-08-15T06:18:05Z</time>
      </trkpt>
      <trkpt lat="41.5168690" lon="-5.0277450">
        <ele>696.5</ele>
        <time>2019-08-15T06:18:06Z</time>
      </trkpt>
      <trkpt lat="41.5169040" lon="-5.0277660">
        <ele>696.6</ele>
        <time>2019-08-15T06:18:07Z</time>
      </trkpt>
      <trkpt lat="41.5169390" lon="-5.0277890">
        <ele>696.7</ele>
        <time>2019-08-15T06:18:08Z</time>
      </trkpt>
      <trkpt lat="41.5169730" lon="-5.0278090">
        <ele>696.8</ele>
        <time>2019-08-15T06:18:09Z</time>
      </trkpt>
      <trkpt lat="41.5170040" lon="-5.0278270">
        <ele>696.8</ele>
        <time>2019-08-15T06:18:10Z</time>
      </trkpt>
      <trkpt lat="41.5170340" lon="-5.0278440">
        <ele>696.9</ele>
        <time>2019-08-15T06:18:11Z</time>
      </trkpt>
      <trkpt lat="41.5170620" lon="-5.0278600">
        <ele>696.9</ele>
        <time>2019-08-15T06:18:12Z</time>
      </trkpt>
      <trkpt lat="41.5170890" lon="-5.0278730">
        <ele>697.0</ele>
        <time>2019-08-15T06:18:13Z</time>
      </trkpt>
      <trkpt lat="41.5171130" lon="-5.0278880">
        <ele>697.0</ele>
        <time>2019-08-15T06:18:14Z</time>
      </trkpt>
      <trkpt lat="41.5171370" lon="-5.0279040">
        <ele>697.0</ele>
        <time>2019-08-15T06:18:15Z</time>
      </trkpt>
      <trkpt lat="41.5171810" lon="-5.0279340">
        <ele>697.1</ele>
        <time>2019-08-15T06:18:17Z</time>
      </trkpt>
      <trkpt lat="41.5172230" lon="-5.0279600">
        <ele>697.1</ele>
        <time>2019-08-15T06:18:19Z</time>
      </trkpt>
      <trkpt lat="41.5172670" lon="-5.0279860">
        <ele>697.2</ele>
        <time>2019-08-15T06:18:21Z</time>
      </trkpt>
      <trkpt lat="41.5173100" lon="-5.0280160">
        <ele>697.2</ele>
        <time>2019-08-15T06:18:23Z</time>
      </trkpt>
      <trkpt lat="41.5173540" lon="-5.0280440">
        <ele>697.2</ele>
        <time>2019-08-15T06:18:25Z</time>
      </trkpt>
      <trkpt lat="41.5173970" lon="-5.0280770">
        <ele>697.2</ele>
        <time>2019-08-15T06:18:27Z</time>
      </trkpt>
      <trkpt lat="41.5174420" lon="-5.0281090">
        <ele>697.2</ele>
        <time>2019-08-15T06:18:29Z</time>
      </trkpt>
      <trkpt lat="41.5174880" lon="-5.0281430">
        <ele>697.2</ele>
        <time>2019-08-15T06:18:31Z</time>
      </trkpt>
      <trkpt lat="41.5175330" lon="-5.0281820">
        <ele>697.1</ele>
        <time>2019-08-15T06:18:33Z</time>
      </trkpt>
      <trkpt lat="41.5175750" lon="-5.0282280">
        <ele>697.1</ele>
        <time>2019-08-15T06:18:35Z</time>
      </trkpt>
      <trkpt lat="41.5175960" lon="-5.0282550">
        <ele>697.0</ele>
        <time>2019-08-15T06:18:36Z</time>
      </trkpt>
      <trkpt lat="41.5176170" lon="-5.0282830">
        <ele>697.0</ele>
        <time>2019-08-15T06:18:37Z</time>
      </trkpt>
      <trkpt lat="41.5176370" lon="-5.0283140">
        <ele>697.0</ele>
        <time>2019-08-15T06:18:38Z</time>
      </trkpt>
      <trkpt lat="41.5176580" lon="-5.0283450">
        <ele>697.0</ele>
        <time>2019-08-15T06:18:39Z</time>
      </trkpt>
      <trkpt lat="41.5176780" lon="-5.0283770">
        <ele>696.9</ele>
        <time>2019-08-15T06:18:40Z</time>
      </trkpt>
      <trkpt lat="41.5176990" lon="-5.0284080">
        <ele>696.9</ele>
        <time>2019-08-15T06:18:41Z</time>
      </trkpt>
      <trkpt lat="41.5177180" lon="-5.0284420">
        <ele>696.7</ele>
        <time>2019-08-15T06:18:42Z</time>
      </trkpt>
      <trkpt lat="41.5177370" lon="-5.0284800">
        <ele>696.5</ele>
        <time>2019-08-15T06:18:43Z</time>
      </trkpt>
      <trkpt lat="41.5177570" lon="-5.0285200">
        <ele>696.3</ele>
        <time>2019-08-15T06:18:44Z</time>
      </trkpt>
      <trkpt lat="41.5177760" lon="-5.0285620">
        <ele>696.2</ele>
        <time>2019-08-15T06:18:45Z</time>
      </trkpt>
      <trkpt lat="41.5177950" lon="-5.0286050">
        <ele>696.0</ele>
        <time>2019-08-15T06:18:46Z</time>
      </trkpt>
      <trkpt lat="41.5178140" lon="-5.0286500">
        <ele>695.9</ele>
        <time>2019-08-15T06:18:47Z</time>
      </trkpt>
      <trkpt lat="41.5178300" lon="-5.0286960">
        <ele>695.7</ele>
        <time>2019-08-15T06:18:48Z</time>
      </trkpt>
      <trkpt lat="41.5178450" lon="-5.0287460">
        <ele>695.5</ele>
        <time>2019-08-15T06:18:49Z</time>
      </trkpt>
      <trkpt lat="41.5178590" lon="-5.0287990">
        <ele>695.3</ele>
        <time>2019-08-15T06:18:50Z</time>
      </trkpt>
      <trkpt lat="41.5178700" lon="-5.0288550">
        <ele>695.1</ele>
        <time>2019-08-15T06:18:51Z</time>
      </trkpt>
      <trkpt lat="41.5178800" lon="-5.0289160">
        <ele>694.9</ele>
        <time>2019-08-15T06:18:52Z</time>
      </trkpt>
      <trkpt lat="41.5178890" lon="-5.0289790">
        <ele>694.6</ele>
        <time>2019-08-15T06:18:53Z</time>
      </trkpt>
      <trkpt lat="41.5178990" lon="-5.0290460">
        <ele>694.4</ele>
        <time>2019-08-15T06:18:54Z</time>
      </trkpt>
      <trkpt lat="41.5179060" lon="-5.0291190">
        <ele>694.1</ele>
        <time>2019-08-15T06:18:55Z</time>
      </trkpt>
      <trkpt lat="41.5179110" lon="-5.0291960">
        <ele>693.9</ele>
        <time>2019-08-15T06:18:56Z</time>
      </trkpt>
      <trkpt lat="41.5179150" lon="-5.0292790">
        <ele>693.8</ele>
        <time>2019-08-15T06:18:57Z</time>
      </trkpt>
      <trkpt lat="41.5179170" lon="-5.0293670">
        <ele>693.8</ele>
        <time>2019-08-15T06:18:58Z</time>
      </trkpt>
      <trkpt lat="41.5179190" lon="-5.0294600">
        <ele>693.9</ele>
        <time>2019-08-15T06:18:59Z</time>
      </trkpt>
      <trkpt lat="41.5179210" lon="-5.0295540">
        <ele>694.0</ele>
        <time>2019-08-15T06:19:00Z</time>
      </trkpt>
      <trkpt lat="41.5179240" lon="-5.0296490">
        <ele>694.2</ele>
        <time>2019-08-15T06:19:01Z</time>
      </trkpt>
      <trkpt lat="41.5179280" lon="-5.0297440">
        <ele>694.3</ele>
        <time>2019-08-15T06:19:02Z</time>
      </trkpt>
      <trkpt lat="41.5179350" lon="-5.0298350">
        <ele>694.4</ele>
        <time>2019-08-15T06:19:03Z</time>
      </trkpt>
      <trkpt lat="41.5179460" lon="-5.0299230">
        <ele>694.5</ele>
        <time>2019-08-15T06:19:04Z</time>
      </trkpt>
      <trkpt lat="41.5179610" lon="-5.0300040">
        <ele>694.5</ele>
        <time>2019-08-15T06:19:05Z</time>
      </trkpt>
      <trkpt lat="41.5179790" lon="-5.0300800">
        <ele>694.6</ele>
        <time>2019-08-15T06:19:06Z</time>
      </trkpt>
      <trkpt lat="41.5180000" lon="-5.0301550">
        <ele>694.6</ele>
        <time>2019-08-15T06:19:07Z</time>
      </trkpt>
      <trkpt lat="41.5180230" lon="-5.0302260">
        <ele>694.6</ele>
        <time>2019-08-15T06:19:08Z</time>
      </trkpt>
      <trkpt lat="41.5180480" lon="-5.0302960">
        <ele>694.7</ele>
        <time>2019-08-15T06:19:09Z</time>
      </trkpt>
      <trkpt lat="41.5180760" lon="-5.0303620">
        <ele>694.7</ele>
        <time>2019-08-15T06:19:10Z</time>
      </trkpt>
      <trkpt lat="41.5181060" lon="-5.0304250">
        <ele>694.8</ele>
        <time>2019-08-15T06:19:11Z</time>
      </trkpt>
      <trkpt lat="41.5181350" lon="-5.0304860">
        <ele>694.9</ele>
        <time>2019-08-15T06:19:12Z</time>
      </trkpt>
      <trkpt lat="41.5181630" lon="-5.0305460">
        <ele>695.0</ele>
        <time>2019-08-15T06:19:13Z</time>
      </trkpt>
      <trkpt lat="41.5181880" lon="-5.0306060">
        <ele>695.2</ele>
        <time>2019-08-15T06:19:14Z</time>
      </trkpt>
      <trkpt lat="41.5182130" lon="-5.0306650">
        <ele>695.3</ele>
        <time>2019-08-15T06:19:15Z</time>
      </trkpt>
      <trkpt lat="41.5182430" lon="-5.0307200">
        <ele>695.5</ele>
        <time>2019-08-15T06:19:16Z</time>
      </trkpt>
      <trkpt lat="41.5182750" lon="-5.0307730">
        <ele>695.6</ele>
        <time>2019-08-15T06:19:17Z</time>
      </trkpt>
      <trkpt lat="41.5183060" lon="-5.0308260">
        <ele>695.7</ele>
        <time>2019-08-15T06:19:18Z</time>
      </trkpt>
      <trkpt lat="41.5183380" lon="-5.0308790">
        <ele>695.8</ele>
        <time>2019-08-15T06:19:19Z</time>
      </trkpt>
      <trkpt lat="41.5183690" lon="-5.0309330">
        <ele>695.9</ele>
        <time>2019-08-15T06:19:20Z</time>
      </trkpt>
      <trkpt lat="41.5184010" lon="-5.0309870">
        <ele>695.9</ele>
        <time>2019-08-15T06:19:21Z</time>
      </trkpt>
      <trkpt lat="41.5184320" lon="-5.0310410">
        <ele>695.9</ele>
        <time>2019-08-15T06:19:22Z</time>
      </trkpt>
      <trkpt lat="41.5184630" lon="-5.0310940">
        <ele>696.0</ele>
        <time>2019-08-15T06:19:23Z</time>
      </trkpt>
      <trkpt lat="41.5184950" lon="-5.0311470">
        <ele>696.0</ele>
        <time>2019-08-15T06:19:24Z</time>
      </trkpt>
      <trkpt lat="41.5185250" lon="-5.0312000">
        <ele>696.0</ele>
        <time>2019-08-15T06:19:25Z</time>
      </trkpt>
      <trkpt lat="41.5185530" lon="-5.0312550">
        <ele>696.1</ele>
        <time>2019-08-15T06:19:26Z</time>
      </trkpt>
      <trkpt lat="41.5185800" lon="-5.0313100">
        <ele>696.1</ele>
        <time>2019-08-15T06:19:27Z</time>
      </trkpt>
      <trkpt lat="41.5186080" lon="-5.0313620">
        <ele>696.2</ele>
        <time>2019-08-15T06:19:28Z</time>
      </trkpt>
      <trkpt lat="41.5186370" lon="-5.0314140">
        <ele>696.3</ele>
        <time>2019-08-15T06:19:29Z</time>
      </trkpt>
      <trkpt lat="41.5186660" lon="-5.0314660">
        <ele>696.4</ele>
        <time>2019-08-15T06:19:30Z</time>
      </trkpt>
      <trkpt lat="41.5186950" lon="-5.0315180">
        <ele>696.5</ele>
        <time>2019-08-15T06:19:31Z</time>
      </trkpt>
      <trkpt lat="41.5187240" lon="-5.0315710">
        <ele>696.7</ele>
        <time>2019-08-15T06:19:32Z</time>
      </trkpt>
      <trkpt lat="41.5187540" lon="-5.0316230">
        <ele>696.8</ele>
        <time>2019-08-15T06:19:33Z</time>
      </trkpt>
      <trkpt lat="41.5187840" lon="-5.0316770">
        <ele>696.9</ele>
        <time>2019-08-15T06:19:34Z</time>
      </trkpt>
      <trkpt lat="41.5188130" lon="-5.0317310">
        <ele>697.0</ele>
        <time>2019-08-15T06:19:35Z</time>
      </trkpt>
      <trkpt lat="41.5188410" lon="-5.0317840">
        <ele>697.1</ele>
        <time>2019-08-15T06:19:36Z</time>
      </trkpt>
      <trkpt lat="41.5188690" lon="-5.0318370">
        <ele>697.2</ele>
        <time>2019-08-15T06:19:37Z</time>
      </trkpt>
      <trkpt lat="41.5188980" lon="-5.0318890">
        <ele>697.3</ele>
        <time>2019-08-15T06:19:38Z</time>
      </trkpt>
      <trkpt lat="41.5189270" lon="-5.0319390">
        <ele>697.3</ele>
        <time>2019-08-15T06:19:39Z</time>
      </trkpt>
      <trkpt lat="41.5189530" lon="-5.0319860">
        <ele>697.4</ele>
        <time>2019-08-15T06:19:40Z</time>
      </trkpt>
      <trkpt lat="41.5189800" lon="-5.0320340">
        <ele>697.4</ele>
        <time>2019-08-15T06:19:41Z</time>
      </trkpt>
      <trkpt lat="41.5190060" lon="-5.0320810">
        <ele>697.4</ele>
        <time>2019-08-15T06:19:42Z</time>
      </trkpt>
      <trkpt lat="41.5190330" lon="-5.0321320">
        <ele>697.5</ele>
        <time>2019-08-15T06:19:43Z</time>
      </trkpt>
      <trkpt lat="41.5190590" lon="-5.0321840">
        <ele>697.5</ele>
        <time>2019-08-15T06:19:44Z</time>
      </trkpt>
      <trkpt lat="41.5190870" lon="-5.0322370">
        <ele>697.5</ele>
        <time>2019-08-15T06:19:45Z</time>
      </trkpt>
      <trkpt lat="41.5191150" lon="-5.0322900">
        <ele>697.6</ele>
        <time>2019-08-15T06:19:46Z</time>
      </trkpt>
      <trkpt lat="41.5191440" lon="-5.0323410">
        <ele>697.6</ele>
        <time>2019-08-15T06:19:47Z</time>
      </trkpt>
      <trkpt lat="41.5191700" lon="-5.0323950">
        <ele>697.7</ele>
        <time>2019-08-15T06:19:48Z</time>
      </trkpt>
      <trkpt lat="41.5191980" lon="-5.0324470">
        <ele>697.8</ele>
        <time>2019-08-15T06:19:49Z</time>
      </trkpt>
      <trkpt lat="41.5192260" lon="-5.0324980">
        <ele>697.9</ele>
        <time>2019-08-15T06:19:50Z</time>
      </trkpt>
      <trkpt lat="41.5192530" lon="-5.0325490">
        <ele>698.0</ele>
        <time>2019-08-15T06:19:51Z</time>
      </trkpt>
      <trkpt lat="41.5192800" lon="-5.0326000">
        <ele>698.2</ele>
        <time>2019-08-15T06:19:52Z</time>
      </trkpt>
      <trkpt lat="41.5193080" lon="-5.0326500">
        <ele>698.4</ele>
        <time>2019-08-15T06:19:53Z</time>
      </trkpt>
      <trkpt lat="41.5193350" lon="-5.0326990">
        <ele>698.5</ele>
        <time>2019-08-15T06:19:54Z</time>
      </trkpt>
      <trkpt lat="41.5193610" lon="-5.0327500">
        <ele>698.7</ele>
        <time>2019-08-15T06:19:55Z</time>
      </trkpt>
      <trkpt lat="41.5193870" lon="-5.0328010">
        <ele>698.9</ele>
        <time>2019-08-15T06:19:56Z</time>
      </trkpt>
      <trkpt lat="41.5194150" lon="-5.0328510">
        <ele>699.1</ele>
        <time>2019-08-15T06:19:57Z</time>
      </trkpt>
      <trkpt lat="41.5194440" lon="-5.0329010">
        <ele>699.3</ele>
        <time>2019-08-15T06:19:58Z</time>
      </trkpt>
      <trkpt lat="41.5194730" lon="-5.0329520">
        <ele>699.6</ele>
        <time>2019-08-15T06:19:59Z</time>
      </trkpt>
      <trkpt lat="41.5195020" lon="-5.0330020">
        <ele>699.9</ele>
        <time>2019-08-15T06:20:00Z</time>
      </trkpt>
      <trkpt lat="41.5195290" lon="-5.0330520">
        <ele>699.9</ele>
        <time>2019-08-15T06:20:01Z</time>
      </trkpt>
      <trkpt lat="41.5195550" lon="-5.0331010">
        <ele>699.9</ele>
        <time>2019-08-15T06:20:02Z</time>
      </trkpt>
      <trkpt lat="41.5195820" lon="-5.0331490">
        <ele>699.9</ele>
        <time>2019-08-15T06:20:03Z</time>
      </trkpt>
      <trkpt lat="41.5196080" lon="-5.0331970">
        <ele>699.9</ele>
        <time>2019-08-15T06:20:04Z</time>
      </trkpt>
      <trkpt lat="41.5196350" lon="-5.0332460">
        <ele>699.9</ele>
        <time>2019-08-15T06:20:05Z</time>
      </trkpt>
      <trkpt lat="41.5196610" lon="-5.0332950">
        <ele>699.9</ele>
        <time>2019-08-15T06:20:06Z</time>
      </trkpt>
      <trkpt lat="41.5196870" lon="-5.0333440">
        <ele>699.9</ele>
        <time>2019-08-15T06:20:07Z</time>
      </trkpt>
      <trkpt lat="41.5197130" lon="-5.0333930">
        <ele>699.9</ele>
        <time>2019-08-15T06:20:08Z</time>
      </trkpt>
      <trkpt lat="41.5197390" lon="-5.0334430">
        <ele>699.9</ele>
        <time>2019-08-15T06:20:09Z</time>
      </trkpt>
      <trkpt lat="41.5197660" lon="-5.0334930">
        <ele>699.9</ele>
        <time>2019-08-15T06:20:10Z</time>
      </trkpt>
      <trkpt lat="41.5197950" lon="-5.0335430">
        <ele>699.9</ele>
        <time>2019-08-15T06:20:11Z</time>
      </trkpt>
      <trkpt lat="41.5198230" lon="-5.0335930">
        <ele>700.0</ele>
        <time>2019-08-15T06:20:12Z</time>
      </trkpt>
      <trkpt lat="41.5198500" lon="-5.0336430">
        <ele>700.0</ele>
        <time>2019-08-15T06:20:13Z</time>
      </trkpt>
      <trkpt lat="41.5198780" lon="-5.0336930">
        <ele>700.0</ele>
        <time>2019-08-15T06:20:14Z</time>
      </trkpt>
      <trkpt lat="41.5199050" lon="-5.0337410">
        <ele>700.0</ele>
        <time>2019-08-15T06:20:15Z</time>
      </trkpt>
      <trkpt lat="41.5199330" lon="-5.0337880">
        <ele>700.0</ele>
        <time>2019-08-15T06:20:16Z</time>
      </trkpt>
      <trkpt lat="41.5199610" lon="-5.0338360">
        <ele>700.0</ele>
        <time>2019-08-15T06:20:17Z</time>
      </trkpt>
      <trkpt lat="41.5199880" lon="-5.0338830">
        <ele>700.0</ele>
        <time>2019-08-15T06:20:18Z</time>
      </trkpt>
      <trkpt lat="41.5200150" lon="-5.0339310">
        <ele>700.0</ele>
        <time>2019-08-15T06:20:19Z</time>
      </trkpt>
      <trkpt lat="41.5200400" lon="-5.0339800">
        <ele>700.1</ele>
        <time>2019-08-15T06:20:20Z</time>
      </trkpt>
      <trkpt lat="41.5200650" lon="-5.0340290">
        <ele>700.1</ele>
        <time>2019-08-15T06:20:21Z</time>
      </trkpt>
      <trkpt lat="41.5200910" lon="-5.0340760">
        <ele>700.2</ele>
        <time>2019-08-15T06:20:22Z</time>
      </trkpt>
      <trkpt lat="41.5201160" lon="-5.0341250">
        <ele>700.3</ele>
        <time>2019-08-15T06:20:23Z</time>
      </trkpt>
      <trkpt lat="41.5201420" lon="-5.0341740">
        <ele>700.4</ele>
        <time>2019-08-15T06:20:24Z</time>
      </trkpt>
      <trkpt lat="41.5201670" lon="-5.0342250">
        <ele>700.5</ele>
        <time>2019-08-15T06:20:25Z</time>
      </trkpt>
      <trkpt lat="41.5201920" lon="-5.0342760">
        <ele>700.7</ele>
        <time>2019-08-15T06:20:26Z</time>
      </trkpt>
      <trkpt lat="41.5202180" lon="-5.0343250">
        <ele>700.9</ele>
        <time>2019-08-15T06:20:27Z</time>
      </trkpt>
      <trkpt lat="41.5202450" lon="-5.0343750">
        <ele>701.1</ele>
        <time>2019-08-15T06:20:28Z</time>
      </trkpt>
      <trkpt lat="41.5202710" lon="-5.0344260">
        <ele>701.3</ele>
        <time>2019-08-15T06:20:29Z</time>
      </trkpt>
      <trkpt lat="41.5202960" lon="-5.0344780">
        <ele>701.6</ele>
        <time>2019-08-15T06:20:30Z</time>
      </trkpt>
      <trkpt lat="41.5203210" lon="-5.0345280">
        <ele>701.9</ele>
        <time>2019-08-15T06:20:31Z</time>
      </trkpt>
      <trkpt lat="41.5203470" lon="-5.0345790">
        <ele>702.2</ele>
        <time>2019-08-15T06:20:32Z</time>
      </trkpt>
      <trkpt lat="41.5203720" lon="-5.0346280">
        <ele>702.4</ele>
        <time>2019-08-15T06:20:33Z</time>
      </trkpt>
      <trkpt lat="41.5203980" lon="-5.0346760">
        <ele>702.6</ele>
        <time>2019-08-15T06:20:34Z</time>
      </trkpt>
      <trkpt lat="41.5204240" lon="-5.0347220">
        <ele>702.8</ele>
        <time>2019-08-15T06:20:35Z</time>
      </trkpt>
      <trkpt lat="41.5204500" lon="-5.0347670">
        <ele>702.9</ele>
        <time>2019-08-15T06:20:36Z</time>
      </trkpt>
      <trkpt lat="41.5204760" lon="-5.0348120">
        <ele>703.0</ele>
        <time>2019-08-15T06:20:37Z</time>
      </trkpt>
      <trkpt lat="41.5205000" lon="-5.0348560">
        <ele>703.1</ele>
        <time>2019-08-15T06:20:38Z</time>
      </trkpt>
      <trkpt lat="41.5205250" lon="-5.0348990">
        <ele>703.2</ele>
        <time>2019-08-15T06:20:39Z</time>
      </trkpt>
      <trkpt lat="41.5205490" lon="-5.0349420">
        <ele>703.2</ele>
        <time>2019-08-15T06:20:40Z</time>
      </trkpt>
      <trkpt lat="41.5205730" lon="-5.0349860">
        <ele>703.3</ele>
        <time>2019-08-15T06:20:41Z</time>
      </trkpt>
      <trkpt lat="41.5205960" lon="-5.0350290">
        <ele>703.4</ele>
        <time>2019-08-15T06:20:42Z</time>
      </trkpt>
      <trkpt lat="41.5206200" lon="-5.0350730">
        <ele>703.5</ele>
        <time>2019-08-15T06:20:43Z</time>
      </trkpt>
      <trkpt lat="41.5206420" lon="-5.0351180">
        <ele>703.6</ele>
        <time>2019-08-15T06:20:44Z</time>
      </trkpt>
      <trkpt lat="41.5206650" lon="-5.0351610">
        <ele>703.7</ele>
        <time>2019-08-15T06:20:45Z</time>
      </trkpt>
      <trkpt lat="41.5206890" lon="-5.0352050">
        <ele>703.8</ele>
        <time>2019-08-15T06:20:46Z</time>
      </trkpt>
      <trkpt lat="41.5207140" lon="-5.0352490">
        <ele>704.0</ele>
        <time>2019-08-15T06:20:47Z</time>
      </trkpt>
      <trkpt lat="41.5207390" lon="-5.0352920">
        <ele>704.1</ele>
        <time>2019-08-15T06:20:48Z</time>
      </trkpt>
      <trkpt lat="41.5207640" lon="-5.0353370">
        <ele>704.3</ele>
        <time>2019-08-15T06:20:49Z</time>
      </trkpt>
      <trkpt lat="41.5207900" lon="-5.0353810">
        <ele>704.4</ele>
        <time>2019-08-15T06:20:50Z</time>
      </trkpt>
      <trkpt lat="41.5208150" lon="-5.0354230">
        <ele>704.6</ele>
        <time>2019-08-15T06:20:51Z</time>
      </trkpt>
      <trkpt lat="41.5208400" lon="-5.0354670">
        <ele>704.7</ele>
        <time>2019-08-15T06:20:52Z</time>
      </trkpt>
      <trkpt lat="41.5208640" lon="-5.0355110">
        <ele>704.9</ele>
        <time>2019-08-15T06:20:53Z</time>
      </trkpt>
      <trkpt lat="41.5208870" lon="-5.0355540">
        <ele>705.0</ele>
        <time>2019-08-15T06:20:54Z</time>
      </trkpt>
      <trkpt lat="41.5209100" lon="-5.0355980">
        <ele>705.2</ele>
        <time>2019-08-15T06:20:55Z</time>
      </trkpt>
      <trkpt lat="41.5209330" lon="-5.0356430">
        <ele>705.3</ele>
        <time>2019-08-15T06:20:56Z</time>
      </trkpt>
      <trkpt lat="41.5209550" lon="-5.0356870">
        <ele>705.5</ele>
        <time>2019-08-15T06:20:57Z</time>
      </trkpt>
      <trkpt lat="41.5209780" lon="-5.0357320">
        <ele>705.6</ele>
        <time>2019-08-15T06:20:58Z</time>
      </trkpt>
      <trkpt lat="41.5210000" lon="-5.0357750">
        <ele>705.8</ele>
        <time>2019-08-15T06:20:59Z</time>
      </trkpt>
      <trkpt lat="41.5210240" lon="-5.0358180">
        <ele>705.9</ele>
        <time>2019-08-15T06:21:00Z</time>
      </trkpt>
      <trkpt lat="41.5210480" lon="-5.0358610">
        <ele>706.0</ele>
        <time>2019-08-15T06:21:01Z</time>
      </trkpt>
      <trkpt lat="41.5210720" lon="-5.0359030">
        <ele>706.1</ele>
        <time>2019-08-15T06:21:02Z</time>
      </trkpt>
      <trkpt lat="41.5210960" lon="-5.0359450">
        <ele>706.2</ele>
        <time>2019-08-15T06:21:03Z</time>
      </trkpt>
      <trkpt lat="41.5211200" lon="-5.0359870">
        <ele>706.2</ele>
        <time>2019-08-15T06:21:04Z</time>
      </trkpt>
      <trkpt lat="41.5211430" lon="-5.0360290">
        <ele>706.3</ele>
        <time>2019-08-15T06:21:05Z</time>
      </trkpt>
      <trkpt lat="41.5211670" lon="-5.0360710">
        <ele>706.3</ele>
        <time>2019-08-15T06:21:06Z</time>
      </trkpt>
      <trkpt lat="41.5211890" lon="-5.0361150">
        <ele>706.4</ele>
        <time>2019-08-15T06:21:07Z</time>
      </trkpt>
      <trkpt lat="41.5212130" lon="-5.0361580">
        <ele>706.4</ele>
        <time>2019-08-15T06:21:08Z</time>
      </trkpt>
      <trkpt lat="41.5212370" lon="-5.0362000">
        <ele>706.5</ele>
        <time>2019-08-15T06:21:09Z</time>
      </trkpt>
      <trkpt lat="41.5212600" lon="-5.0362440">
        <ele>706.6</ele>
        <time>2019-08-15T06:21:10Z</time>
      </trkpt>
      <trkpt lat="41.5212840" lon="-5.0362880">
        <ele>706.6</ele>
        <time>2019-08-15T06:21:11Z</time>
      </trkpt>
      <trkpt lat="41.5213090" lon="-5.0363350">
        <ele>706.7</ele>
        <time>2019-08-15T06:21:12Z</time>
      </trkpt>
      <trkpt lat="41.5213350" lon="-5.0363790">
        <ele>706.8</ele>
        <time>2019-08-15T06:21:13Z</time>
      </trkpt>
      <trkpt lat="41.5213610" lon="-5.0364260">
        <ele>706.9</ele>
        <time>2019-08-15T06:21:14Z</time>
      </trkpt>
      <trkpt lat="41.5213870" lon="-5.0364730">
        <ele>706.9</ele>
        <time>2019-08-15T06:21:15Z</time>
      </trkpt>
      <trkpt lat="41.5214120" lon="-5.0365190">
        <ele>707.0</ele>
        <time>2019-08-15T06:21:16Z</time>
      </trkpt>
      <trkpt lat="41.5214370" lon="-5.0365660">
        <ele>707.0</ele>
        <time>2019-08-15T06:21:17Z</time>
      </trkpt>
      <trkpt lat="41.5214620" lon="-5.0366120">
        <ele>707.0</ele>
        <time>2019-08-15T06:21:18Z</time>
      </trkpt>
      <trkpt lat="41.5214880" lon="-5.0366590">
        <ele>707.0</ele>
        <time>2019-08-15T06:21:19Z</time>
      </trkpt>
      <trkpt lat="41.5215140" lon="-5.0367060">
        <ele>707.0</ele>
        <time>2019-08-15T06:21:20Z</time>
      </trkpt>
      <trkpt lat="41.5215400" lon="-5.0367520">
        <ele>707.0</ele>
        <time>2019-08-15T06:21:21Z</time>
      </trkpt>
      <trkpt lat="41.5215660" lon="-5.0367960">
        <ele>706.9</ele>
        <time>2019-08-15T06:21:22Z</time>
      </trkpt>
      <trkpt lat="41.5215910" lon="-5.0368410">
        <ele>706.9</ele>
        <time>2019-08-15T06:21:23Z</time>
      </trkpt>
      <trkpt lat="41.5216170" lon="-5.0368840">
        <ele>706.8</ele>
        <time>2019-08-15T06:21:24Z</time>
      </trkpt>
      <trkpt lat="41.5216440" lon="-5.0369290">
        <ele>706.8</ele>
        <time>2019-08-15T06:21:25Z</time>
      </trkpt>
      <trkpt lat="41.5216690" lon="-5.0369760">
        <ele>706.7</ele>
        <time>2019-08-15T06:21:26Z</time>
      </trkpt>
      <trkpt lat="41.5216930" lon="-5.0370240">
        <ele>706.7</ele>
        <time>2019-08-15T06:21:27Z</time>
      </trkpt>
      <trkpt lat="41.5217180" lon="-5.0370700">
        <ele>706.7</ele>
        <time>2019-08-15T06:21:28Z</time>
      </trkpt>
      <trkpt lat="41.5217430" lon="-5.0371160">
        <ele>706.8</ele>
        <time>2019-08-15T06:21:29Z</time>
      </trkpt>
      <trkpt lat="41.5217690" lon="-5.0371640">
        <ele>706.8</ele>
        <time>2019-08-15T06:21:30Z</time>
      </trkpt>
      <trkpt lat="41.5217940" lon="-5.0372130">
        <ele>706.9</ele>
        <time>2019-08-15T06:21:31Z</time>
      </trkpt>
      <trkpt lat="41.5218190" lon="-5.0372630">
        <ele>707.0</ele>
        <time>2019-08-15T06:21:32Z</time>
      </trkpt>
      <trkpt lat="41.5218460" lon="-5.0373120">
        <ele>707.1</ele>
        <time>2019-08-15T06:21:33Z</time>
      </trkpt>
      <trkpt lat="41.5218720" lon="-5.0373590">
        <ele>707.2</ele>
        <time>2019-08-15T06:21:34Z</time>
      </trkpt>
      <trkpt lat="41.5218970" lon="-5.0374050">
        <ele>707.2</ele>
        <time>2019-08-15T06:21:35Z</time>
      </trkpt>
      <trkpt lat="41.5219220" lon="-5.0374490">
        <ele>707.3</ele>
        <time>2019-08-15T06:21:36Z</time>
      </trkpt>
      <trkpt lat="41.5219470" lon="-5.0374940">
        <ele>707.4</ele>
        <time>2019-08-15T06:21:37Z</time>
      </trkpt>
      <trkpt lat="41.5219730" lon="-5.0375380">
        <ele>707.4</ele>
        <time>2019-08-15T06:21:38Z</time>
      </trkpt>
      <trkpt lat="41.5219980" lon="-5.0375830">
        <ele>707.5</ele>
        <time>2019-08-15T06:21:39Z</time>
      </trkpt>
      <trkpt lat="41.5220230" lon="-5.0376300">
        <ele>707.5</ele>
        <time>2019-08-15T06:21:40Z</time>
      </trkpt>
      <trkpt lat="41.5220490" lon="-5.0376770">
        <ele>707.6</ele>
        <time>2019-08-15T06:21:41Z</time>
      </trkpt>
      <trkpt lat="41.5220740" lon="-5.0377230">
        <ele>707.6</ele>
        <time>2019-08-15T06:21:42Z</time>
      </trkpt>
      <trkpt lat="41.5221000" lon="-5.0377710">
        <ele>707.6</ele>
        <time>2019-08-15T06:21:43Z</time>
      </trkpt>
      <trkpt lat="41.5221250" lon="-5.0378180">
        <ele>707.7</ele>
        <time>2019-08-15T06:21:44Z</time>
      </trkpt>
      <trkpt lat="41.5221490" lon="-5.0378660">
        <ele>707.7</ele>
        <time>2019-08-15T06:21:45Z</time>
      </trkpt>
      <trkpt lat="41.5221740" lon="-5.0379140">
        <ele>707.7</ele>
        <time>2019-08-15T06:21:46Z</time>
      </trkpt>
      <trkpt lat="41.5221990" lon="-5.0379600">
        <ele>707.7</ele>
        <time>2019-08-15T06:21:47Z</time>
      </trkpt>
      <trkpt lat="41.5222230" lon="-5.0380040">
        <ele>707.8</ele>
        <time>2019-08-15T06:21:48Z</time>
      </trkpt>
      <trkpt lat="41.5222480" lon="-5.0380470">
        <ele>707.8</ele>
        <time>2019-08-15T06:21:49Z</time>
      </trkpt>
      <trkpt lat="41.5222720" lon="-5.0380920">
        <ele>707.9</ele>
        <time>2019-08-15T06:21:50Z</time>
      </trkpt>
      <trkpt lat="41.5222970" lon="-5.0381380">
        <ele>707.9</ele>
        <time>2019-08-15T06:21:51Z</time>
      </trkpt>
      <trkpt lat="41.5223220" lon="-5.0381840">
        <ele>708.0</ele>
        <time>2019-08-15T06:21:52Z</time>
      </trkpt>
      <trkpt lat="41.5223460" lon="-5.0382320">
        <ele>708.1</ele>
        <time>2019-08-15T06:21:53Z</time>
      </trkpt>
      <trkpt lat="41.5223690" lon="-5.0382800">
        <ele>708.2</ele>
        <time>2019-08-15T06:21:54Z</time>
      </trkpt>
      <trkpt lat="41.5223940" lon="-5.0383260">
        <ele>708.3</ele>
        <time>2019-08-15T06:21:55Z</time>
      </trkpt>
      <trkpt lat="41.5224190" lon="-5.0383710">
        <ele>708.4</ele>
        <time>2019-08-15T06:21:56Z</time>
      </trkpt>
      <trkpt lat="41.5224440" lon="-5.0384170">
        <ele>708.5</ele>
        <time>2019-08-15T06:21:57Z</time>
      </trkpt>
      <trkpt lat="41.5224690" lon="-5.0384600">
        <ele>708.7</ele>
        <time>2019-08-15T06:21:58Z</time>
      </trkpt>
      <trkpt lat="41.5224950" lon="-5.0385050">
        <ele>708.8</ele>
        <time>2019-08-15T06:21:59Z</time>
      </trkpt>
      <trkpt lat="41.5225210" lon="-5.0385510">
        <ele>708.9</ele>
        <time>2019-08-15T06:22:00Z</time>
      </trkpt>
      <trkpt lat="41.5225460" lon="-5.0385960">
        <ele>709.0</ele>
        <time>2019-08-15T06:22:01Z</time>
      </trkpt>
      <trkpt lat="41.5225720" lon="-5.0386420">
        <ele>709.2</ele>
        <time>2019-08-15T06:22:02Z</time>
      </trkpt>
      <trkpt lat="41.5225970" lon="-5.0386890">
        <ele>709.3</ele>
        <time>2019-08-15T06:22:03Z</time>
      </trkpt>
      <trkpt lat="41.5226210" lon="-5.0387360">
        <ele>709.4</ele>
        <time>2019-08-15T06:22:04Z</time>
      </trkpt>
      <trkpt lat="41.5226440" lon="-5.0387800">
        <ele>709.6</ele>
        <time>2019-08-15T06:22:05Z</time>
      </trkpt>
      <trkpt lat="41.5226670" lon="-5.0388240">
        <ele>709.7</ele>
        <time>2019-08-15T06:22:06Z</time>
      </trkpt>
      <trkpt lat="41.5226910" lon="-5.0388650">
        <ele>709.9</ele>
        <time>2019-08-15T06:22:07Z</time>
      </trkpt>
      <trkpt lat="41.5227140" lon="-5.0389070">
        <ele>710.1</ele>
        <time>2019-08-15T06:22:08Z</time>
      </trkpt>
      <trkpt lat="41.5227370" lon="-5.0389480">
        <ele>710.2</ele>
        <time>2019-08-15T06:22:09Z</time>
      </trkpt>
      <trkpt lat="41.5227590" lon="-5.0389890">
        <ele>710.3</ele>
        <time>2019-08-15T06:22:10Z</time>
      </trkpt>
      <trkpt lat="41.5227810" lon="-5.0390280">
        <ele>710.5</ele>
        <time>2019-08-15T06:22:11Z</time>
      </trkpt>
      <trkpt lat="41.5228030" lon="-5.0390680">
        <ele>710.6</ele>
        <time>2019-08-15T06:22:12Z</time>
      </trkpt>
      <trkpt lat="41.5228240" lon="-5.0391090">
        <ele>710.7</ele>
        <time>2019-08-15T06:22:13Z</time>
      </trkpt>
      <trkpt lat="41.5228460" lon="-5.0391480">
        <ele>710.8</ele>
        <time>2019-08-15T06:22:14Z</time>
      </trkpt>
      <trkpt lat="41.5228680" lon="-5.0391860">
        <ele>710.9</ele>
        <time>2019-08-15T06:22:15Z</time>
      </trkpt>
      <trkpt lat="41.5228900" lon="-5.0392230">
        <ele>711.0</ele>
        <time>2019-08-15T06:22:16Z</time>
      </trkpt>
      <trkpt lat="41.5229100" lon="-5.0392600">
        <ele>711.1</ele>
        <time>2019-08-15T06:22:17Z</time>
      </trkpt>
      <trkpt lat="41.5229310" lon="-5.0392960">
        <ele>711.2</ele>
        <time>2019-08-15T06:22:18Z</time>
      </trkpt>
      <trkpt lat="41.5229530" lon="-5.0393320">
        <ele>711.4</ele>
        <time>2019-08-15T06:22:19Z</time>
      </trkpt>
      <trkpt lat="41.5229750" lon="-5.0393680">
        <ele>711.5</ele>
        <time>2019-08-15T06:22:20Z</time>
      </trkpt>
      <trkpt lat="41.5229980" lon="-5.0394040">
        <ele>711.7</ele>
        <time>2019-08-15T06:22:21Z</time>
      </trkpt>
      <trkpt lat="41.5230220" lon="-5.0394400">
        <ele>711.9</ele>
        <time>2019-08-15T06:22:22Z</time>
      </trkpt>
      <trkpt lat="41.5230450" lon="-5.0394780">
        <ele>712.1</ele>
        <time>2019-08-15T06:22:23Z</time>
      </trkpt>
      <trkpt lat="41.5230660" lon="-5.0395170">
        <ele>712.3</ele>
        <time>2019-08-15T06:22:24Z</time>
      </trkpt>
      <trkpt lat="41.5230870" lon="-5.0395560">
        <ele>712.5</ele>
        <time>2019-08-15T06:22:25Z</time>
      </trkpt>
      <trkpt lat="41.5231100" lon="-5.0395940">
        <ele>712.7</ele>
        <time>2019-08-15T06:22:26Z</time>
      </trkpt>
      <trkpt lat="41.5231320" lon="-5.0396330">
        <ele>712.9</ele>
        <time>2019-08-15T06:22:27Z</time>
      </trkpt>
      <trkpt lat="41.5231540" lon="-5.0396710">
        <ele>713.1</ele>
        <time>2019-08-15T06:22:28Z</time>
      </trkpt>
      <trkpt lat="41.5231750" lon="-5.0397090">
        <ele>713.2</ele>
        <time>2019-08-15T06:22:29Z</time>
      </trkpt>
      <trkpt lat="41.5231960" lon="-5.0397460">
        <ele>713.4</ele>
        <time>2019-08-15T06:22:30Z</time>
      </trkpt>
      <trkpt lat="41.5232180" lon="-5.0397810">
        <ele>713.5</ele>
        <time>2019-08-15T06:22:31Z</time>
      </trkpt>
      <trkpt lat="41.5232400" lon="-5.0398140">
        <ele>713.6</ele>
        <time>2019-08-15T06:22:32Z</time>
      </trkpt>
      <trkpt lat="41.5232610" lon="-5.0398470">
        <ele>713.7</ele>
        <time>2019-08-15T06:22:33Z</time>
      </trkpt>
      <trkpt lat="41.5232810" lon="-5.0398800">
        <ele>713.8</ele>
        <time>2019-08-15T06:22:34Z</time>
      </trkpt>
      <trkpt lat="41.5233000" lon="-5.0399140">
        <ele>713.9</ele>
        <time>2019-08-15T06:22:35Z</time>
      </trkpt>
      <trkpt lat="41.5233200" lon="-5.0399470">
        <ele>713.9</ele>
        <time>2019-08-15T06:22:36Z</time>
      </trkpt>
      <trkpt lat="41.5233390" lon="-5.0399800">
        <ele>714.0</ele>
        <time>2019-08-15T06:22:37Z</time>
      </trkpt>
      <trkpt lat="41.5233580" lon="-5.0400120">
        <ele>714.1</ele>
        <time>2019-08-15T06:22:38Z</time>
      </trkpt>
      <trkpt lat="41.5233770" lon="-5.0400430">
        <ele>714.1</ele>
        <time>2019-08-15T06:22:39Z</time>
      </trkpt>
      <trkpt lat="41.5233960" lon="-5.0400740">
        <ele>714.2</ele>
        <time>2019-08-15T06:22:40Z</time>
      </trkpt>
      <trkpt lat="41.5234160" lon="-5.0401050">
        <ele>714.3</ele>
        <time>2019-08-15T06:22:41Z</time>
      </trkpt>
      <trkpt lat="41.5234360" lon="-5.0401350">
        <ele>714.4</ele>
        <time>2019-08-15T06:22:42Z</time>
      </trkpt>
      <trkpt lat="41.5234550" lon="-5.0401650">
        <ele>714.5</ele>
        <time>2019-08-15T06:22:43Z</time>
      </trkpt>
      <trkpt lat="41.5234730" lon="-5.0401950">
        <ele>714.6</ele>
        <time>2019-08-15T06:22:44Z</time>
      </trkpt>
      <trkpt lat="41.5234910" lon="-5.0402270">
        <ele>714.7</ele>
        <time>2019-08-15T06:22:45Z</time>
      </trkpt>
      <trkpt lat="41.5235100" lon="-5.0402580">
        <ele>714.8</ele>
        <time>2019-08-15T06:22:46Z</time>
      </trkpt>
      <trkpt lat="41.5235290" lon="-5.0402870">
        <ele>715.0</ele>
        <time>2019-08-15T06:22:47Z</time>
      </trkpt>
      <trkpt lat="41.5235480" lon="-5.0403180">
        <ele>715.1</ele>
        <time>2019-08-15T06:22:48Z</time>
      </trkpt>
      <trkpt lat="41.5235670" lon="-5.0403500">
        <ele>715.2</ele>
        <time>2019-08-15T06:22:49Z</time>
      </trkpt>
      <trkpt lat="41.5235850" lon="-5.0403820">
        <ele>715.4</ele>
        <time>2019-08-15T06:22:50Z</time>
      </trkpt>
      <trkpt lat="41.5236030" lon="-5.0404120">
        <ele>715.5</ele>
        <time>2019-08-15T06:22:51Z</time>
      </trkpt>
      <trkpt lat="41.5236210" lon="-5.0404440">
        <ele>715.6</ele>
        <time>2019-08-15T06:22:52Z</time>
      </trkpt>
      <trkpt lat="41.5236400" lon="-5.0404750">
        <ele>715.7</ele>
        <time>2019-08-15T06:22:53Z</time>
      </trkpt>
      <trkpt lat="41.5236600" lon="-5.0405050">
        <ele>715.8</ele>
        <time>2019-08-15T06:22:54Z</time>
      </trkpt>
      <trkpt lat="41.5236800" lon="-5.0405350">
        <ele>715.9</ele>
        <time>2019-08-15T06:22:55Z</time>
      </trkpt>
      <trkpt lat="41.5236990" lon="-5.0405660">
        <ele>716.0</ele>
        <time>2019-08-15T06:22:56Z</time>
      </trkpt>
      <trkpt lat="41.5237190" lon="-5.0405960">
        <ele>716.0</ele>
        <time>2019-08-15T06:22:57Z</time>
      </trkpt>
      <trkpt lat="41.5237390" lon="-5.0406260">
        <ele>716.1</ele>
        <time>2019-08-15T06:22:58Z</time>
      </trkpt>
      <trkpt lat="41.5237580" lon="-5.0406580">
        <ele>716.1</ele>
        <time>2019-08-15T06:22:59Z</time>
      </trkpt>
      <trkpt lat="41.5237760" lon="-5.0406900">
        <ele>716.1</ele>
        <time>2019-08-15T06:23:00Z</time>
      </trkpt>
      <trkpt lat="41.5237940" lon="-5.0407210">
        <ele>716.2</ele>
        <time>2019-08-15T06:23:01Z</time>
      </trkpt>
      <trkpt lat="41.5238120" lon="-5.0407520">
        <ele>716.2</ele>
        <time>2019-08-15T06:23:02Z</time>
      </trkpt>
      <trkpt lat="41.5238300" lon="-5.0407830">
        <ele>716.2</ele>
        <time>2019-08-15T06:23:03Z</time>
      </trkpt>
      <trkpt lat="41.5238490" lon="-5.0408170">
        <ele>716.3</ele>
        <time>2019-08-15T06:23:04Z</time>
      </trkpt>
      <trkpt lat="41.5238680" lon="-5.0408500">
        <ele>716.3</ele>
        <time>2019-08-15T06:23:05Z</time>
      </trkpt>
      <trkpt lat="41.5238880" lon="-5.0408850">
        <ele>716.4</ele>
        <time>2019-08-15T06:23:06Z</time>
      </trkpt>
      <trkpt lat="41.5239070" lon="-5.0409220">
        <ele>716.5</ele>
        <time>2019-08-15T06:23:07Z</time>
      </trkpt>
      <trkpt lat="41.5239270" lon="-5.0409580">
        <ele>716.6</ele>
        <time>2019-08-15T06:23:08Z</time>
      </trkpt>
      <trkpt lat="41.5239480" lon="-5.0409970">
        <ele>716.7</ele>
        <time>2019-08-15T06:23:09Z</time>
      </trkpt>
      <trkpt lat="41.5239700" lon="-5.0410350">
        <ele>716.8</ele>
        <time>2019-08-15T06:23:10Z</time>
      </trkpt>
      <trkpt lat="41.5239940" lon="-5.0410710">
        <ele>717.0</ele>
        <time>2019-08-15T06:23:11Z</time>
      </trkpt>
      <trkpt lat="41.5240170" lon="-5.0411050">
        <ele>717.1</ele>
        <time>2019-08-15T06:23:12Z</time>
      </trkpt>
      <trkpt lat="41.5240390" lon="-5.0411380">
        <ele>717.2</ele>
        <time>2019-08-15T06:23:13Z</time>
      </trkpt>
      <trkpt lat="41.5240610" lon="-5.0411720">
        <ele>717.3</ele>
        <time>2019-08-15T06:23:14Z</time>
      </trkpt>
      <trkpt lat="41.5240830" lon="-5.0412070">
        <ele>717.4</ele>
        <time>2019-08-15T06:23:15Z</time>
      </trkpt>
      <trkpt lat="41.5241050" lon="-5.0412420">
        <ele>717.5</ele>
        <time>2019-08-15T06:23:16Z</time>
      </trkpt>
      <trkpt lat="41.5241270" lon="-5.0412770">
        <ele>717.6</ele>
        <time>2019-08-15T06:23:17Z</time>
      </trkpt>
      <trkpt lat="41.5241490" lon="-5.0413120">
        <ele>717.8</ele>
        <time>2019-08-15T06:23:18Z</time>
      </trkpt>
      <trkpt lat="41.5241710" lon="-5.0413460">
        <ele>717.9</ele>
        <time>2019-08-15T06:23:19Z</time>
      </trkpt>
      <trkpt lat="41.5241940" lon="-5.0413790">
        <ele>718.0</ele>
        <time>2019-08-15T06:23:20Z</time>
      </trkpt>
      <trkpt lat="41.5242160" lon="-5.0414120">
        <ele>718.1</ele>
        <time>2019-08-15T06:23:21Z</time>
      </trkpt>
      <trkpt lat="41.5242390" lon="-5.0414450">
        <ele>718.2</ele>
        <time>2019-08-15T06:23:22Z</time>
      </trkpt>
      <trkpt lat="41.5242620" lon="-5.0414780">
        <ele>718.4</ele>
        <time>2019-08-15T06:23:23Z</time>
      </trkpt>
      <trkpt lat="41.5242860" lon="-5.0415100">
        <ele>718.5</ele>
        <time>2019-08-15T06:23:24Z</time>
      </trkpt>
      <trkpt lat="41.5243110" lon="-5.0415410">
        <ele>718.6</ele>
        <time>2019-08-15T06:23:25Z</time>
      </trkpt>
      <trkpt lat="41.5243380" lon="-5.0415700">
        <ele>718.7</ele>
        <time>2019-08-15T06:23:26Z</time>
      </trkpt>
      <trkpt lat="41.5243650" lon="-5.0415990">
        <ele>718.8</ele>
        <time>2019-08-15T06:23:27Z</time>
      </trkpt>
      <trkpt lat="41.5243920" lon="-5.0416260">
        <ele>718.9</ele>
        <time>2019-08-15T06:23:28Z</time>
      </trkpt>
      <trkpt lat="41.5244210" lon="-5.0416500">
        <ele>719.0</ele>
        <time>2019-08-15T06:23:29Z</time>
      </trkpt>
      <trkpt lat="41.5244490" lon="-5.0416750">
        <ele>719.1</ele>
        <time>2019-08-15T06:23:30Z</time>
      </trkpt>
      <trkpt lat="41.5244770" lon="-5.0417000">
        <ele>719.1</ele>
        <time>2019-08-15T06:23:31Z</time>
      </trkpt>
      <trkpt lat="41.5245040" lon="-5.0417260">
        <ele>719.2</ele>
        <time>2019-08-15T06:23:32Z</time>
      </trkpt>
      <trkpt lat="41.5245320" lon="-5.0417510">
        <ele>719.3</ele>
        <time>2019-08-15T06:23:33Z</time>
      </trkpt>
      <trkpt lat="41.5245610" lon="-5.0417760">
        <ele>719.3</ele>
        <time>2019-08-15T06:23:34Z</time>
      </trkpt>
      <trkpt lat="41.5245880" lon="-5.0418000">
        <ele>719.4</ele>
        <time>2019-08-15T06:23:35Z</time>
      </trkpt>
      <trkpt lat="41.5246160" lon="-5.0418250">
        <ele>719.5</ele>
        <time>2019-08-15T06:23:36Z</time>
      </trkpt>
      <trkpt lat="41.5246440" lon="-5.0418490">
        <ele>719.5</ele>
        <time>2019-08-15T06:23:37Z</time>
      </trkpt>
      <trkpt lat="41.5246710" lon="-5.0418730">
        <ele>719.6</ele>
        <time>2019-08-15T06:23:38Z</time>
      </trkpt>
      <trkpt lat="41.5246980" lon="-5.0418960">
        <ele>719.7</ele>
        <time>2019-08-15T06:23:39Z</time>
      </trkpt>
      <trkpt lat="41.5247240" lon="-5.0419200">
        <ele>719.8</ele>
        <time>2019-08-15T06:23:40Z</time>
      </trkpt>
      <trkpt lat="41.5247500" lon="-5.0419430">
        <ele>719.9</ele>
        <time>2019-08-15T06:23:41Z</time>
      </trkpt>
      <trkpt lat="41.5247770" lon="-5.0419670">
        <ele>720.1</ele>
        <time>2019-08-15T06:23:42Z</time>
      </trkpt>
      <trkpt lat="41.5248030" lon="-5.0419900">
        <ele>720.2</ele>
        <time>2019-08-15T06:23:43Z</time>
      </trkpt>
      <trkpt lat="41.5248300" lon="-5.0420120">
        <ele>720.4</ele>
        <time>2019-08-15T06:23:44Z</time>
      </trkpt>
      <trkpt lat="41.5248570" lon="-5.0420330">
        <ele>720.5</ele>
        <time>2019-08-15T06:23:45Z</time>
      </trkpt>
      <trkpt lat="41.5248840" lon="-5.0420540">
        <ele>720.7</ele>
        <time>2019-08-15T06:23:46Z</time>
      </trkpt>
      <trkpt lat="41.5249110" lon="-5.0420760">
        <ele>720.9</ele>
        <time>2019-08-15T06:23:47Z</time>
      </trkpt>
      <trkpt lat="41.5249390" lon="-5.0420960">
        <ele>721.1</ele>
        <time>2019-08-15T06:23:48Z</time>
      </trkpt>
      <trkpt lat="41.5249670" lon="-5.0421170">
        <ele>721.2</ele>
        <time>2019-08-15T06:23:49Z</time>
      </trkpt>
      <trkpt lat="41.5249960" lon="-5.0421340">
        <ele>721.4</ele>
        <time>2019-08-15T06:23:50Z</time>
      </trkpt>
      <trkpt lat="41.5250260" lon="-5.0421510">
        <ele>721.6</ele>
        <time>2019-08-15T06:23:51Z</time>
      </trkpt>
      <trkpt lat="41.5250560" lon="-5.0421650">
        <ele>721.8</ele>
        <time>2019-08-15T06:23:52Z</time>
      </trkpt>
      <trkpt lat="41.5250860" lon="-5.0421760">
        <ele>722.0</ele>
        <time>2019-08-15T06:23:53Z</time>
      </trkpt>
      <trkpt lat="41.5251160" lon="-5.0421850">
        <ele>722.2</ele>
        <time>2019-08-15T06:23:54Z</time>
      </trkpt>
      <trkpt lat="41.5251470" lon="-5.0421910">
        <ele>722.5</ele>
        <time>2019-08-15T06:23:55Z</time>
      </trkpt>
      <trkpt lat="41.5251780" lon="-5.0421930">
        <ele>722.7</ele>
        <time>2019-08-15T06:23:56Z</time>
      </trkpt>
      <trkpt lat="41.5252080" lon="-5.0421940">
        <ele>722.9</ele>
        <time>2019-08-15T06:23:57Z</time>
      </trkpt>
      <trkpt lat="41.5252380" lon="-5.0421920">
        <ele>723.1</ele>
        <time>2019-08-15T06:23:58Z</time>
      </trkpt>
      <trkpt lat="41.5252680" lon="-5.0421880">
        <ele>723.2</ele>
        <time>2019-08-15T06:23:59Z</time>
      </trkpt>
      <trkpt lat="41.5252970" lon="-5.0421820">
        <ele>723.3</ele>
        <time>2019-08-15T06:24:00Z</time>
      </trkpt>
      <trkpt lat="41.5253260" lon="-5.0421730">
        <ele>723.5</ele>
        <time>2019-08-15T06:24:01Z</time>
      </trkpt>
      <trkpt lat="41.5253550" lon="-5.0421620">
        <ele>723.6</ele>
        <time>2019-08-15T06:24:02Z</time>
      </trkpt>
      <trkpt lat="41.5253850" lon="-5.0421490">
        <ele>723.7</ele>
        <time>2019-08-15T06:24:03Z</time>
      </trkpt>
      <trkpt lat="41.5254140" lon="-5.0421350">
        <ele>723.8</ele>
        <time>2019-08-15T06:24:04Z</time>
      </trkpt>
      <trkpt lat="41.5254420" lon="-5.0421180">
        <ele>723.9</ele>
        <time>2019-08-15T06:24:05Z</time>
      </trkpt>
      <trkpt lat="41.5254690" lon="-5.0420980">
        <ele>724.0</ele>
        <time>2019-08-15T06:24:06Z</time>
      </trkpt>
      <trkpt lat="41.5254960" lon="-5.0420770">
        <ele>724.2</ele>
        <time>2019-08-15T06:24:07Z</time>
      </trkpt>
      <trkpt lat="41.5255210" lon="-5.0420560">
        <ele>724.3</ele>
        <time>2019-08-15T06:24:08Z</time>
      </trkpt>
      <trkpt lat="41.5255470" lon="-5.0420340">
        <ele>724.3</ele>
        <time>2019-08-15T06:24:09Z</time>
      </trkpt>
      <trkpt lat="41.5255720" lon="-5.0420120">
        <ele>724.4</ele>
        <time>2019-08-15T06:24:10Z</time>
      </trkpt>
      <trkpt lat="41.5255960" lon="-5.0419890">
        <ele>724.5</ele>
        <time>2019-08-15T06:24:11Z</time>
      </trkpt>
      <trkpt lat="41.5256200" lon="-5.0419660">
        <ele>724.6</ele>
        <time>2019-08-15T06:24:12Z</time>
      </trkpt>
      <trkpt lat="41.5256440" lon="-5.0419420">
        <ele>724.7</ele>
        <time>2019-08-15T06:24:13Z</time>
      </trkpt>
      <trkpt lat="41.5256680" lon="-5.0419170">
        <ele>724.8</ele>
        <time>2019-08-15T06:24:14Z</time>
      </trkpt>
      <trkpt lat="41.5256920" lon="-5.0418940">
        <ele>725.0</ele>
        <time>2019-08-15T06:24:15Z</time>
      </trkpt>
      <trkpt lat="41.5257170" lon="-5.0418690">
        <ele>725.1</ele>
        <time>2019-08-15T06:24:16Z</time>
      </trkpt>
      <trkpt lat="41.5257410" lon="-5.0418450">
        <ele>725.2</ele>
        <time>2019-08-15T06:24:17Z</time>
      </trkpt>
      <trkpt lat="41.5257650" lon="-5.0418240">
        <ele>725.3</ele>
        <time>2019-08-15T06:24:18Z</time>
      </trkpt>
      <trkpt lat="41.5257880" lon="-5.0418040">
        <ele>725.4</ele>
        <time>2019-08-15T06:24:19Z</time>
      </trkpt>
      <trkpt lat="41.5258110" lon="-5.0417830">
        <ele>725.5</ele>
        <time>2019-08-15T06:24:20Z</time>
      </trkpt>
      <trkpt lat="41.5258340" lon="-5.0417610">
        <ele>725.6</ele>
        <time>2019-08-15T06:24:21Z</time>
      </trkpt>
      <trkpt lat="41.5258570" lon="-5.0417390">
        <ele>725.7</ele>
        <time>2019-08-15T06:24:22Z</time>
      </trkpt>
      <trkpt lat="41.5258800" lon="-5.0417170">
        <ele>725.8</ele>
        <time>2019-08-15T06:24:23Z</time>
      </trkpt>
      <trkpt lat="41.5259040" lon="-5.0416950">
        <ele>725.9</ele>
        <time>2019-08-15T06:24:24Z</time>
      </trkpt>
      <trkpt lat="41.5259270" lon="-5.0416740">
        <ele>726.0</ele>
        <time>2019-08-15T06:24:25Z</time>
      </trkpt>
      <trkpt lat="41.5259500" lon="-5.0416520">
        <ele>726.2</ele>
        <time>2019-08-15T06:24:26Z</time>
      </trkpt>
      <trkpt lat="41.5259730" lon="-5.0416300">
        <ele>726.2</ele>
        <time>2019-08-15T06:24:27Z</time>
      </trkpt>
      <trkpt lat="41.5259940" lon="-5.0416080">
        <ele>726.3</ele>
        <time>2019-08-15T06:24:28Z</time>
      </trkpt>
      <trkpt lat="41.5260150" lon="-5.0415860">
        <ele>726.4</ele>
        <time>2019-08-15T06:24:29Z</time>
      </trkpt>
      <trkpt lat="41.5260580" lon="-5.0415450">
        <ele>726.5</ele>
        <time>2019-08-15T06:24:31Z</time>
      </trkpt>
      <trkpt lat="41.5260990" lon="-5.0415110">
        <ele>726.6</ele>
        <time>2019-08-15T06:24:33Z</time>
      </trkpt>
      <trkpt lat="41.5261420" lon="-5.0414830">
        <ele>726.4</ele>
        <time>2019-08-15T06:24:35Z</time>
      </trkpt>
      <trkpt lat="41.5261840" lon="-5.0414730">
        <ele>726.4</ele>
        <time>2019-08-15T06:24:37Z</time>
      </trkpt>
      <trkpt lat="41.5262070" lon="-5.0414930">
        <ele>726.3</ele>
        <time>2019-08-15T06:24:39Z</time>
      </trkpt>
      <trkpt lat="41.5262050" lon="-5.0415400">
        <ele>726.3</ele>
        <time>2019-08-15T06:24:41Z</time>
      </trkpt>
      <trkpt lat="41.5261840" lon="-5.0415960">
        <ele>726.2</ele>
        <time>2019-08-15T06:24:43Z</time>
      </trkpt>
      <trkpt lat="41.5261470" lon="-5.0416510">
        <ele>726.2</ele>
        <time>2019-08-15T06:24:45Z</time>
      </trkpt>
      <trkpt lat="41.5261240" lon="-5.0416840">
        <ele>726.2</ele>
        <time>2019-08-15T06:24:46Z</time>
      </trkpt>
      <trkpt lat="41.5260970" lon="-5.0417190">
        <ele>726.1</ele>
        <time>2019-08-15T06:24:47Z</time>
      </trkpt>
      <trkpt lat="41.5260680" lon="-5.0417570">
        <ele>726.1</ele>
        <time>2019-08-15T06:24:48Z</time>
      </trkpt>
      <trkpt lat="41.5260370" lon="-5.0417980">
        <ele>726.0</ele>
        <time>2019-08-15T06:24:49Z</time>
      </trkpt>
      <trkpt lat="41.5260040" lon="-5.0418420">
        <ele>726.0</ele>
        <time>2019-08-15T06:24:50Z</time>
      </trkpt>
      <trkpt lat="41.5259700" lon="-5.0418860">
        <ele>726.0</ele>
        <time>2019-08-15T06:24:51Z</time>
      </trkpt>
      <trkpt lat="41.5259380" lon="-5.0419330">
        <ele>726.0</ele>
        <time>2019-08-15T06:24:52Z</time>
      </trkpt>
      <trkpt lat="41.5259070" lon="-5.0419800">
        <ele>726.0</ele>
        <time>2019-08-15T06:24:53Z</time>
      </trkpt>
      <trkpt lat="41.5258780" lon="-5.0420290">
        <ele>725.9</ele>
        <time>2019-08-15T06:24:54Z</time>
      </trkpt>
      <trkpt lat="41.5258540" lon="-5.0420820">
        <ele>725.9</ele>
        <time>2019-08-15T06:24:55Z</time>
      </trkpt>
      <trkpt lat="41.5258430" lon="-5.0421410">
        <ele>725.9</ele>
        <time>2019-08-15T06:24:56Z</time>
      </trkpt>
      <trkpt lat="41.5258470" lon="-5.0421990">
        <ele>726.4</ele>
        <time>2019-08-15T06:24:57Z</time>
      </trkpt>
      <trkpt lat="41.5258620" lon="-5.0422480">
        <ele>726.4</ele>
        <time>2019-08-15T06:24:58Z</time>
      </trkpt>
      <trkpt lat="41.5258810" lon="-5.0422850">
        <ele>726.4</ele>
        <time>2019-08-15T06:24:59Z</time>
      </trkpt>
      <trkpt lat="41.5259060" lon="-5.0423030">
        <ele>726.3</ele>
        <time>2019-08-15T06:25:00Z</time>
      </trkpt>
      <trkpt lat="41.5259310" lon="-5.0423100">
        <ele>726.3</ele>
        <time>2019-08-15T06:25:01Z</time>
      </trkpt>
      <trkpt lat="41.5259790" lon="-5.0423130">
        <ele>726.4</ele>
        <time>2019-08-15T06:25:03Z</time>
      </trkpt>
      <trkpt lat="41.5260320" lon="-5.0423260">
        <ele>726.4</ele>
        <time>2019-08-15T06:25:05Z</time>
      </trkpt>
      <trkpt lat="41.5260600" lon="-5.0423360">
        <ele>726.4</ele>
        <time>2019-08-15T06:25:06Z</time>
      </trkpt>
      <trkpt lat="41.5260850" lon="-5.0423540">
        <ele>726.4</ele>
        <time>2019-08-15T06:25:07Z</time>
      </trkpt>
      <trkpt lat="41.5261100" lon="-5.0423680">
        <ele>726.5</ele>
        <time>2019-08-15T06:25:08Z</time>
      </trkpt>
      <trkpt lat="41.5261330" lon="-5.0423780">
        <ele>726.5</ele>
        <time>2019-08-15T06:25:09Z</time>
      </trkpt>
      <trkpt lat="41.5261840" lon="-5.0423950">
        <ele>726.6</ele>
        <time>2019-08-15T06:25:11Z</time>
      </trkpt>
      <trkpt lat="41.5262340" lon="-5.0424140">
        <ele>726.6</ele>
        <time>2019-08-15T06:25:13Z</time>
      </trkpt>
      <trkpt lat="41.5262740" lon="-5.0424500">
        <ele>726.7</ele>
        <time>2019-08-15T06:25:15Z</time>
      </trkpt>
      <trkpt lat="41.5262970" lon="-5.0424950">
        <ele>726.8</ele>
        <time>2019-08-15T06:25:17Z</time>
      </trkpt>
      <trkpt lat="41.5262870" lon="-5.0424950">
        <ele>726.8</ele>
        <time>2019-08-15T06:25:20Z</time>
      </trkpt>
      <trkpt lat="41.5262710" lon="-5.0424720">
        <ele>726.9</ele>
        <time>2019-08-15T06:25:23Z</time>
      </trkpt>
      <trkpt lat="41.5262600" lon="-5.0424990">
        <ele>726.9</ele>
        <time>2019-08-15T06:25:57Z</time>
      </trkpt>
      <trkpt lat="41.5262370" lon="-5.0424760">
        <ele>727.0</ele>
        <time>2019-08-15T06:26:00Z</time>
      </trkpt>
      <trkpt lat="41.5262080" lon="-5.0424610">
        <ele>727.0</ele>
        <time>2019-08-15T06:26:03Z</time>
      </trkpt>
      <trkpt lat="41.5261770" lon="-5.0424420">
        <ele>727.1</ele>
        <time>2019-08-15T06:26:06Z</time>
      </trkpt>
      <trkpt lat="41.5261480" lon="-5.0424650">
        <ele>727.2</ele>
        <time>2019-08-15T06:26:12Z</time>
      </trkpt>
      <trkpt lat="41.5261220" lon="-5.0424740">
        <ele>727.2</ele>
        <time>2019-08-15T06:26:16Z</time>
      </trkpt>
      <trkpt lat="41.5260950" lon="-5.0424660">
        <ele>727.3</ele>
        <time>2019-08-15T06:26:22Z</time>
      </trkpt>
      <trkpt lat="41.5261130" lon="-5.0424210">
        <ele>727.3</ele>
        <time>2019-08-15T06:27:09Z</time>
      </trkpt>
      <trkpt lat="41.5261260" lon="-5.0424250">
        <ele>727.3</ele>
        <time>2019-08-15T06:27:12Z</time>
      </trkpt>
      <trkpt lat="41.5261590" lon="-5.0424320">
        <ele>727.4</ele>
        <time>2019-08-15T06:27:17Z</time>
      </trkpt>
      <trkpt lat="41.5261930" lon="-5.0424490">
        <ele>727.4</ele>
        <time>2019-08-15T06:27:19Z</time>
      </trkpt>
      <trkpt lat="41.5262170" lon="-5.0424650">
        <ele>727.5</ele>
        <time>2019-08-15T06:27:22Z</time>
      </trkpt>
      <trkpt lat="41.5262430" lon="-5.0424790">
        <ele>727.5</ele>
        <time>2019-08-15T06:27:26Z</time>
      </trkpt>
      <trkpt lat="41.5262870" lon="-5.0425060">
        <ele>727.5</ele>
        <time>2019-08-15T06:27:57Z</time>
      </trkpt>
      <trkpt lat="41.5263160" lon="-5.0425440">
        <ele>727.6</ele>
        <time>2019-08-15T06:27:59Z</time>
      </trkpt>
      <trkpt lat="41.5263380" lon="-5.0426020">
        <ele>727.6</ele>
        <time>2019-08-15T06:28:01Z</time>
      </trkpt>
      <trkpt lat="41.5263510" lon="-5.0426700">
        <ele>727.6</ele>
        <time>2019-08-15T06:28:03Z</time>
      </trkpt>
      <trkpt lat="41.5263340" lon="-5.0427440">
        <ele>727.6</ele>
        <time>2019-08-15T06:28:05Z</time>
      </trkpt>
      <trkpt lat="41.5263130" lon="-5.0427790">
        <ele>727.7</ele>
        <time>2019-08-15T06:28:06Z</time>
      </trkpt>
      <trkpt lat="41.5262910" lon="-5.0428120">
        <ele>727.7</ele>
        <time>2019-08-15T06:28:07Z</time>
      </trkpt>
      <trkpt lat="41.5262700" lon="-5.0428430">
        <ele>727.7</ele>
        <time>2019-08-15T06:28:08Z</time>
      </trkpt>
      <trkpt lat="41.5262510" lon="-5.0428690">
        <ele>727.7</ele>
        <time>2019-08-15T06:28:09Z</time>
      </trkpt>
      <trkpt lat="41.5262320" lon="-5.0428900">
        <ele>727.7</ele>
        <time>2019-08-15T06:28:10Z</time>
      </trkpt>
      <trkpt lat="41.5261860" lon="-5.0429120">
        <ele>727.7</ele>
        <time>2019-08-15T06:28:12Z</time>
      </trkpt>
      <trkpt lat="41.5261370" lon="-5.0428740">
        <ele>727.6</ele>
        <time>2019-08-15T06:28:14Z</time>
      </trkpt>
      <trkpt lat="41.5261160" lon="-5.0428390">
        <ele>727.6</ele>
        <time>2019-08-15T06:28:15Z</time>
      </trkpt>
      <trkpt lat="41.5260960" lon="-5.0428000">
        <ele>727.5</ele>
        <time>2019-08-15T06:28:16Z</time>
      </trkpt>
      <trkpt lat="41.5260740" lon="-5.0427600">
        <ele>727.5</ele>
        <time>2019-08-15T06:28:17Z</time>
      </trkpt>
      <trkpt lat="41.5260510" lon="-5.0427220">
        <ele>727.5</ele>
        <time>2019-08-15T06:28:18Z</time>
      </trkpt>
      <trkpt lat="41.5260290" lon="-5.0426810">
        <ele>727.4</ele>
        <time>2019-08-15T06:28:19Z</time>
      </trkpt>
      <trkpt lat="41.5260090" lon="-5.0426410">
        <ele>727.4</ele>
        <time>2019-08-15T06:28:20Z</time>
      </trkpt>
      <trkpt lat="41.5259910" lon="-5.0426000">
        <ele>727.4</ele>
        <time>2019-08-15T06:28:21Z</time>
      </trkpt>
      <trkpt lat="41.5259730" lon="-5.0425620">
        <ele>727.4</ele>
        <time>2019-08-15T06:28:22Z</time>
      </trkpt>
      <trkpt lat="41.5259540" lon="-5.0425270">
        <ele>727.3</ele>
        <time>2019-08-15T06:28:23Z</time>
      </trkpt>
      <trkpt lat="41.5259350" lon="-5.0424910">
        <ele>727.3</ele>
        <time>2019-08-15T06:28:24Z</time>
      </trkpt>
      <trkpt lat="41.5259180" lon="-5.0424560">
        <ele>727.2</ele>
        <time>2019-08-15T06:28:25Z</time>
      </trkpt>
      <trkpt lat="41.5259000" lon="-5.0424210">
        <ele>727.2</ele>
        <time>2019-08-15T06:28:26Z</time>
      </trkpt>
      <trkpt lat="41.5258830" lon="-5.0423860">
        <ele>727.1</ele>
        <time>2019-08-15T06:28:27Z</time>
      </trkpt>
      <trkpt lat="41.5258670" lon="-5.0423510">
        <ele>727.0</ele>
        <time>2019-08-15T06:28:28Z</time>
      </trkpt>
      <trkpt lat="41.5258520" lon="-5.0423150">
        <ele>726.9</ele>
        <time>2019-08-15T06:28:29Z</time>
      </trkpt>
      <trkpt lat="41.5258350" lon="-5.0422800">
        <ele>726.8</ele>
        <time>2019-08-15T06:28:30Z</time>
      </trkpt>
      <trkpt lat="41.5258130" lon="-5.0422480">
        <ele>726.7</ele>
        <time>2019-08-15T06:28:31Z</time>
      </trkpt>
      <trkpt lat="41.5257840" lon="-5.0422240">
        <ele>726.4</ele>
        <time>2019-08-15T06:28:32Z</time>
      </trkpt>
      <trkpt lat="41.5257540" lon="-5.0422080">
        <ele>726.3</ele>
        <time>2019-08-15T06:28:33Z</time>
      </trkpt>
      <trkpt lat="41.5257270" lon="-5.0422040">
        <ele>726.2</ele>
        <time>2019-08-15T06:28:34Z</time>
      </trkpt>
      <trkpt lat="41.5256870" lon="-5.0422260">
        <ele>725.6</ele>
        <time>2019-08-15T06:28:36Z</time>
      </trkpt>
      <trkpt lat="41.5256570" lon="-5.0422570">
        <ele>725.6</ele>
        <time>2019-08-15T06:28:38Z</time>
      </trkpt>
      <trkpt lat="41.5256380" lon="-5.0422770">
        <ele>725.5</ele>
        <time>2019-08-15T06:28:40Z</time>
      </trkpt>
      <trkpt lat="41.5256040" lon="-5.0423120">
        <ele>725.4</ele>
        <time>2019-08-15T06:28:47Z</time>
      </trkpt>
      <trkpt lat="41.5255690" lon="-5.0423520">
        <ele>725.3</ele>
        <time>2019-08-15T06:28:49Z</time>
      </trkpt>
      <trkpt lat="41.5255240" lon="-5.0423950">
        <ele>725.2</ele>
        <time>2019-08-15T06:28:51Z</time>
      </trkpt>
      <trkpt lat="41.5254990" lon="-5.0424190">
        <ele>725.1</ele>
        <time>2019-08-15T06:28:52Z</time>
      </trkpt>
      <trkpt lat="41.5254730" lon="-5.0424450">
        <ele>725.1</ele>
        <time>2019-08-15T06:28:53Z</time>
      </trkpt>
      <trkpt lat="41.5254480" lon="-5.0424760">
        <ele>725.1</ele>
        <time>2019-08-15T06:28:54Z</time>
      </trkpt>
      <trkpt lat="41.5254250" lon="-5.0425110">
        <ele>725.0</ele>
        <time>2019-08-15T06:28:55Z</time>
      </trkpt>
      <trkpt lat="41.5254020" lon="-5.0425510">
        <ele>725.0</ele>
        <time>2019-08-15T06:28:56Z</time>
      </trkpt>
      <trkpt lat="41.5253780" lon="-5.0425910">
        <ele>724.9</ele>
        <time>2019-08-15T06:28:57Z</time>
      </trkpt>
      <trkpt lat="41.5253490" lon="-5.0426260">
        <ele>724.9</ele>
        <time>2019-08-15T06:28:58Z</time>
      </trkpt>
      <trkpt lat="41.5253150" lon="-5.0426560">
        <ele>724.8</ele>
        <time>2019-08-15T06:28:59Z</time>
      </trkpt>
      <trkpt lat="41.5252780" lon="-5.0426830">
        <ele>724.7</ele>
        <time>2019-08-15T06:29:00Z</time>
      </trkpt>
      <trkpt lat="41.5252390" lon="-5.0427070">
        <ele>724.6</ele>
        <time>2019-08-15T06:29:01Z</time>
      </trkpt>
      <trkpt lat="41.5251980" lon="-5.0427290">
        <ele>724.5</ele>
        <time>2019-08-15T06:29:02Z</time>
      </trkpt>
      <trkpt lat="41.5251570" lon="-5.0427520">
        <ele>724.5</ele>
        <time>2019-08-15T06:29:03Z</time>
      </trkpt>
      <trkpt lat="41.5251150" lon="-5.0427780">
        <ele>724.4</ele>
        <time>2019-08-15T06:29:04Z</time>
      </trkpt>
      <trkpt lat="41.5250730" lon="-5.0428070">
        <ele>723.9</ele>
        <time>2019-08-15T06:29:05Z</time>
      </trkpt>
      <trkpt lat="41.5250330" lon="-5.0428420">
        <ele>723.7</ele>
        <time>2019-08-15T06:29:06Z</time>
      </trkpt>
      <trkpt lat="41.5249950" lon="-5.0428820">
        <ele>723.5</ele>
        <time>2019-08-15T06:29:07Z</time>
      </trkpt>
      <trkpt lat="41.5249560" lon="-5.0429240">
        <ele>723.4</ele>
        <time>2019-08-15T06:29:08Z</time>
      </trkpt>
      <trkpt lat="41.5249180" lon="-5.0429660">
        <ele>723.2</ele>
        <time>2019-08-15T06:29:09Z</time>
      </trkpt>
      <trkpt lat="41.5248790" lon="-5.0430060">
        <ele>723.1</ele>
        <time>2019-08-15T06:29:10Z</time>
      </trkpt>
      <trkpt lat="41.5248400" lon="-5.0430410">
        <ele>723.1</ele>
        <time>2019-08-15T06:29:11Z</time>
      </trkpt>
      <trkpt lat="41.5248020" lon="-5.0430760">
        <ele>722.9</ele>
        <time>2019-08-15T06:29:12Z</time>
      </trkpt>
      <trkpt lat="41.5247660" lon="-5.0431110">
        <ele>722.7</ele>
        <time>2019-08-15T06:29:13Z</time>
      </trkpt>
      <trkpt lat="41.5247310" lon="-5.0431490">
        <ele>722.6</ele>
        <time>2019-08-15T06:29:14Z</time>
      </trkpt>
      <trkpt lat="41.5246950" lon="-5.0431860">
        <ele>722.4</ele>
        <time>2019-08-15T06:29:15Z</time>
      </trkpt>
      <trkpt lat="41.5246570" lon="-5.0432260">
        <ele>722.3</ele>
        <time>2019-08-15T06:29:16Z</time>
      </trkpt>
      <trkpt lat="41.5246220" lon="-5.0432650">
        <ele>722.2</ele>
        <time>2019-08-15T06:29:17Z</time>
      </trkpt>
      <trkpt lat="41.5245860" lon="-5.0433030">
        <ele>722.2</ele>
        <time>2019-08-15T06:29:18Z</time>
      </trkpt>
      <trkpt lat="41.5245500" lon="-5.0433420">
        <ele>722.2</ele>
        <time>2019-08-15T06:29:19Z</time>
      </trkpt>
      <trkpt lat="41.5245140" lon="-5.0433790">
        <ele>722.2</ele>
        <time>2019-08-15T06:29:20Z</time>
      </trkpt>
      <trkpt lat="41.5244780" lon="-5.0434130">
        <ele>722.2</ele>
        <time>2019-08-15T06:29:21Z</time>
      </trkpt>
      <trkpt lat="41.5244400" lon="-5.0434510">
        <ele>722.2</ele>
        <time>2019-08-15T06:29:22Z</time>
      </trkpt>
      <trkpt lat="41.5244020" lon="-5.0434880">
        <ele>722.2</ele>
        <time>2019-08-15T06:29:23Z</time>
      </trkpt>
      <trkpt lat="41.5243660" lon="-5.0435270">
        <ele>722.2</ele>
        <time>2019-08-15T06:29:24Z</time>
      </trkpt>
      <trkpt lat="41.5243290" lon="-5.0435650">
        <ele>722.3</ele>
        <time>2019-08-15T06:29:25Z</time>
      </trkpt>
      <trkpt lat="41.5242920" lon="-5.0436060">
        <ele>722.3</ele>
        <time>2019-08-15T06:29:26Z</time>
      </trkpt>
      <trkpt lat="41.5242540" lon="-5.0436480">
        <ele>722.2</ele>
        <time>2019-08-15T06:29:27Z</time>
      </trkpt>
      <trkpt lat="41.5242140" lon="-5.0436890">
        <ele>722.1</ele>
        <time>2019-08-15T06:29:28Z</time>
      </trkpt>
      <trkpt lat="41.5241730" lon="-5.0437280">
        <ele>721.8</ele>
        <time>2019-08-15T06:29:29Z</time>
      </trkpt>
      <trkpt lat="41.5241320" lon="-5.0437650">
        <ele>721.5</ele>
        <time>2019-08-15T06:29:30Z</time>
      </trkpt>
      <trkpt lat="41.5240900" lon="-5.0438030">
        <ele>721.2</ele>
        <time>2019-08-15T06:29:31Z</time>
      </trkpt>
      <trkpt lat="41.5240500" lon="-5.0438430">
        <ele>720.9</ele>
        <time>2019-08-15T06:29:32Z</time>
      </trkpt>
      <trkpt lat="41.5240080" lon="-5.0438850">
        <ele>720.5</ele>
        <time>2019-08-15T06:29:33Z</time>
      </trkpt>
      <trkpt lat="41.5239640" lon="-5.0439270">
        <ele>720.1</ele>
        <time>2019-08-15T06:29:34Z</time>
      </trkpt>
      <trkpt lat="41.5239170" lon="-5.0439690">
        <ele>719.7</ele>
        <time>2019-08-15T06:29:35Z</time>
      </trkpt>
      <trkpt lat="41.5238660" lon="-5.0440100">
        <ele>719.3</ele>
        <time>2019-08-15T06:29:36Z</time>
      </trkpt>
      <trkpt lat="41.5238120" lon="-5.0440520">
        <ele>719.1</ele>
        <time>2019-08-15T06:29:37Z</time>
      </trkpt>
      <trkpt lat="41.5237530" lon="-5.0440910">
        <ele>718.8</ele>
        <time>2019-08-15T06:29:38Z</time>
      </trkpt>
      <trkpt lat="41.5236900" lon="-5.0441260">
        <ele>718.6</ele>
        <time>2019-08-15T06:29:39Z</time>
      </trkpt>
      <trkpt lat="41.5236240" lon="-5.0441550">
        <ele>718.3</ele>
        <time>2019-08-15T06:29:40Z</time>
      </trkpt>
      <trkpt lat="41.5235560" lon="-5.0441780">
        <ele>718.1</ele>
        <time>2019-08-15T06:29:41Z</time>
      </trkpt>
      <trkpt lat="41.5234890" lon="-5.0441980">
        <ele>717.8</ele>
        <time>2019-08-15T06:29:42Z</time>
      </trkpt>
      <trkpt lat="41.5234190" lon="-5.0442160">
        <ele>717.5</ele>
        <time>2019-08-15T06:29:43Z</time>
      </trkpt>
      <trkpt lat="41.5233460" lon="-5.0442350">
        <ele>717.2</ele>
        <time>2019-08-15T06:29:44Z</time>
      </trkpt>
      <trkpt lat="41.5232700" lon="-5.0442570">
        <ele>716.9</ele>
        <time>2019-08-15T06:29:45Z</time>
      </trkpt>
      <trkpt lat="41.5231910" lon="-5.0442830">
        <ele>716.5</ele>
        <time>2019-08-15T06:29:46Z</time>
      </trkpt>
      <trkpt lat="41.5231080" lon="-5.0443160">
        <ele>716.0</ele>
        <time>2019-08-15T06:29:47Z</time>
      </trkpt>
      <trkpt lat="41.5230240" lon="-5.0443600">
        <ele>715.6</ele>
        <time>2019-08-15T06:29:48Z</time>
      </trkpt>
      <trkpt lat="41.5229440" lon="-5.0444150">
        <ele>715.2</ele>
        <time>2019-08-15T06:29:49Z</time>
      </trkpt>
      <trkpt lat="41.5228670" lon="-5.0444780">
        <ele>714.8</ele>
        <time>2019-08-15T06:29:50Z</time>
      </trkpt>
      <trkpt lat="41.5227930" lon="-5.0445450">
        <ele>714.4</ele>
        <time>2019-08-15T06:29:51Z</time>
      </trkpt>
      <trkpt lat="41.5227230" lon="-5.0446140">
        <ele>714.0</ele>
        <time>2019-08-15T06:29:52Z</time>
      </trkpt>
      <trkpt lat="41.5226560" lon="-5.0446810">
        <ele>713.6</ele>
        <time>2019-08-15T06:29:53Z</time>
      </trkpt>
      <trkpt lat="41.5225940" lon="-5.0447440">
        <ele>713.3</ele>
        <time>2019-08-15T06:29:54Z</time>
      </trkpt>
      <trkpt lat="41.5225400" lon="-5.0447980">
        <ele>713.1</ele>
        <time>2019-08-15T06:29:55Z</time>
      </trkpt>
      <trkpt lat="41.5224940" lon="-5.0448450">
        <ele>712.9</ele>
        <time>2019-08-15T06:29:56Z</time>
      </trkpt>
      <trkpt lat="41.5224580" lon="-5.0448870">
        <ele>713.2</ele>
        <time>2019-08-15T06:29:57Z</time>
      </trkpt>
      <trkpt lat="41.5224340" lon="-5.0449270">
        <ele>713.4</ele>
        <time>2019-08-15T06:29:58Z</time>
      </trkpt>
      <trkpt lat="41.5224270" lon="-5.0449670">
        <ele>713.5</ele>
        <time>2019-08-15T06:29:59Z</time>
      </trkpt>
      <trkpt lat="41.5224330" lon="-5.0450020">
        <ele>713.7</ele>
        <time>2019-08-15T06:30:00Z</time>
      </trkpt>
      <trkpt lat="41.5224640" lon="-5.0450480">
        <ele>713.9</ele>
        <time>2019-08-15T06:30:02Z</time>
      </trkpt>
      <trkpt lat="41.5225160" lon="-5.0450410">
        <ele>714.1</ele>
        <time>2019-08-15T06:30:04Z</time>
      </trkpt>
      <trkpt lat="41.5225430" lon="-5.0450230">
        <ele>714.2</ele>
        <time>2019-08-15T06:30:05Z</time>
      </trkpt>
      <trkpt lat="41.5225710" lon="-5.0450050">
        <ele>714.3</ele>
        <time>2019-08-15T06:30:06Z</time>
      </trkpt>
      <trkpt lat="41.5225990" lon="-5.0449820">
        <ele>714.4</ele>
        <time>2019-08-15T06:30:07Z</time>
      </trkpt>
      <trkpt lat="41.5226270" lon="-5.0449590">
        <ele>714.6</ele>
        <time>2019-08-15T06:30:08Z</time>
      </trkpt>
      <trkpt lat="41.5226550" lon="-5.0449360">
        <ele>714.7</ele>
        <time>2019-08-15T06:30:09Z</time>
      </trkpt>
      <trkpt lat="41.5226840" lon="-5.0449140">
        <ele>714.7</ele>
        <time>2019-08-15T06:30:10Z</time>
      </trkpt>
      <trkpt lat="41.5227130" lon="-5.0448950">
        <ele>714.8</ele>
        <time>2019-08-15T06:30:11Z</time>
      </trkpt>
      <trkpt lat="41.5227430" lon="-5.0448780">
        <ele>714.9</ele>
        <time>2019-08-15T06:30:12Z</time>
      </trkpt>
      <trkpt lat="41.5227730" lon="-5.0448610">
        <ele>715.0</ele>
        <time>2019-08-15T06:30:13Z</time>
      </trkpt>
      <trkpt lat="41.5228030" lon="-5.0448430">
        <ele>715.1</ele>
        <time>2019-08-15T06:30:14Z</time>
      </trkpt>
      <trkpt lat="41.5228330" lon="-5.0448260">
        <ele>715.2</ele>
        <time>2019-08-15T06:30:15Z</time>
      </trkpt>
      <trkpt lat="41.5228630" lon="-5.0448100">
        <ele>715.2</ele>
        <time>2019-08-15T06:30:16Z</time>
      </trkpt>
      <trkpt lat="41.5228930" lon="-5.0447930">
        <ele>715.3</ele>
        <time>2019-08-15T06:30:17Z</time>
      </trkpt>
      <trkpt lat="41.5229230" lon="-5.0447740">
        <ele>715.4</ele>
        <time>2019-08-15T06:30:18Z</time>
      </trkpt>
      <trkpt lat="41.5229530" lon="-5.0447570">
        <ele>715.6</ele>
        <time>2019-08-15T06:30:19Z</time>
      </trkpt>
      <trkpt lat="41.5229830" lon="-5.0447390">
        <ele>715.7</ele>
        <time>2019-08-15T06:30:20Z</time>
      </trkpt>
      <trkpt lat="41.5230130" lon="-5.0447210">
        <ele>715.9</ele>
        <time>2019-08-15T06:30:21Z</time>
      </trkpt>
      <trkpt lat="41.5230430" lon="-5.0447030">
        <ele>716.0</ele>
        <time>2019-08-15T06:30:22Z</time>
      </trkpt>
      <trkpt lat="41.5230720" lon="-5.0446840">
        <ele>716.1</ele>
        <time>2019-08-15T06:30:23Z</time>
      </trkpt>
      <trkpt lat="41.5231020" lon="-5.0446660">
        <ele>716.2</ele>
        <time>2019-08-15T06:30:24Z</time>
      </trkpt>
      <trkpt lat="41.5231320" lon="-5.0446470">
        <ele>716.3</ele>
        <time>2019-08-15T06:30:25Z</time>
      </trkpt>
      <trkpt lat="41.5231640" lon="-5.0446270">
        <ele>716.5</ele>
        <time>2019-08-15T06:30:26Z</time>
      </trkpt>
      <trkpt lat="41.5231980" lon="-5.0446080">
        <ele>716.6</ele>
        <time>2019-08-15T06:30:27Z</time>
      </trkpt>
      <trkpt lat="41.5232310" lon="-5.0445860">
        <ele>716.8</ele>
        <time>2019-08-15T06:30:28Z</time>
      </trkpt>
      <trkpt lat="41.5232660" lon="-5.0445630">
        <ele>716.9</ele>
        <time>2019-08-15T06:30:29Z</time>
      </trkpt>
      <trkpt lat="41.5233020" lon="-5.0445400">
        <ele>717.0</ele>
        <time>2019-08-15T06:30:30Z</time>
      </trkpt>
      <trkpt lat="41.5233380" lon="-5.0445190">
        <ele>717.1</ele>
        <time>2019-08-15T06:30:31Z</time>
      </trkpt>
      <trkpt lat="41.5233730" lon="-5.0444990">
        <ele>717.3</ele>
        <time>2019-08-15T06:30:32Z</time>
      </trkpt>
      <trkpt lat="41.5234080" lon="-5.0444820">
        <ele>717.4</ele>
        <time>2019-08-15T06:30:33Z</time>
      </trkpt>
      <trkpt lat="41.5234430" lon="-5.0444640">
        <ele>717.4</ele>
        <time>2019-08-15T06:30:34Z</time>
      </trkpt>
      <trkpt lat="41.5234760" lon="-5.0444450">
        <ele>717.5</ele>
        <time>2019-08-15T06:30:35Z</time>
      </trkpt>
      <trkpt lat="41.5235100" lon="-5.0444270">
        <ele>717.6</ele>
        <time>2019-08-15T06:30:36Z</time>
      </trkpt>
      <trkpt lat="41.5235440" lon="-5.0444100">
        <ele>717.7</ele>
        <time>2019-08-15T06:30:37Z</time>
      </trkpt>
      <trkpt lat="41.5235770" lon="-5.0443910">
        <ele>717.8</ele>
        <time>2019-08-15T06:30:38Z</time>
      </trkpt>
      <trkpt lat="41.5236090" lon="-5.0443720">
        <ele>717.9</ele>
        <time>2019-08-15T06:30:39Z</time>
      </trkpt>
      <trkpt lat="41.5236400" lon="-5.0443540">
        <ele>718.0</ele>
        <time>2019-08-15T06:30:40Z</time>
      </trkpt>
      <trkpt lat="41.5236710" lon="-5.0443370">
        <ele>718.2</ele>
        <time>2019-08-15T06:30:41Z</time>
      </trkpt>
      <trkpt lat="41.5237020" lon="-5.0443200">
        <ele>718.3</ele>
        <time>2019-08-15T06:30:42Z</time>
      </trkpt>
      <trkpt lat="41.5237310" lon="-5.0443030">
        <ele>718.5</ele>
        <time>2019-08-15T06:30:43Z</time>
      </trkpt>
      <trkpt lat="41.5237610" lon="-5.0442890">
        <ele>718.6</ele>
        <time>2019-08-15T06:30:44Z</time>
      </trkpt>
      <trkpt lat="41.5237900" lon="-5.0442760">
        <ele>718.7</ele>
        <time>2019-08-15T06:30:45Z</time>
      </trkpt>
      <trkpt lat="41.5238190" lon="-5.0442620">
        <ele>718.8</ele>
        <time>2019-08-15T06:30:46Z</time>
      </trkpt>
      <trkpt lat="41.5238470" lon="-5.0442470">
        <ele>719.0</ele>
        <time>2019-08-15T06:30:47Z</time>
      </trkpt>
      <trkpt lat="41.5238750" lon="-5.0442350">
        <ele>719.1</ele>
        <time>2019-08-15T06:30:48Z</time>
      </trkpt>
      <trkpt lat="41.5239030" lon="-5.0442240">
        <ele>719.2</ele>
        <time>2019-08-15T06:30:49Z</time>
      </trkpt>
      <trkpt lat="41.5239290" lon="-5.0442170">
        <ele>719.2</ele>
        <time>2019-08-15T06:30:50Z</time>
      </trkpt>
      <trkpt lat="41.5239790" lon="-5.0442070">
        <ele>719.4</ele>
        <time>2019-08-15T06:30:52Z</time>
      </trkpt>
      <trkpt lat="41.5240390" lon="-5.0441970">
        <ele>719.6</ele>
        <time>2019-08-15T06:30:54Z</time>
      </trkpt>
      <trkpt lat="41.5240710" lon="-5.0442000">
        <ele>719.7</ele>
        <time>2019-08-15T06:30:55Z</time>
      </trkpt>
      <trkpt lat="41.5241020" lon="-5.0442080">
        <ele>719.8</ele>
        <time>2019-08-15T06:30:56Z</time>
      </trkpt>
      <trkpt lat="41.5241320" lon="-5.0442210">
        <ele>719.8</ele>
        <time>2019-08-15T06:30:57Z</time>
      </trkpt>
      <trkpt lat="41.5241610" lon="-5.0442370">
        <ele>719.7</ele>
        <time>2019-08-15T06:30:58Z</time>
      </trkpt>
      <trkpt lat="41.5241910" lon="-5.0442520">
        <ele>719.7</ele>
        <time>2019-08-15T06:30:59Z</time>
      </trkpt>
      <trkpt lat="41.5242230" lon="-5.0442620">
        <ele>719.7</ele>
        <time>2019-08-15T06:31:00Z</time>
      </trkpt>
      <trkpt lat="41.5242540" lon="-5.0442710">
        <ele>719.7</ele>
        <time>2019-08-15T06:31:01Z</time>
      </trkpt>
      <trkpt lat="41.5242840" lon="-5.0442830">
        <ele>719.6</ele>
        <time>2019-08-15T06:31:02Z</time>
      </trkpt>
      <trkpt lat="41.5243140" lon="-5.0442960">
        <ele>719.6</ele>
        <time>2019-08-15T06:31:03Z</time>
      </trkpt>
      <trkpt lat="41.5243440" lon="-5.0443120">
        <ele>719.6</ele>
        <time>2019-08-15T06:31:04Z</time>
      </trkpt>
      <trkpt lat="41.5243730" lon="-5.0443290">
        <ele>719.5</ele>
        <time>2019-08-15T06:31:05Z</time>
      </trkpt>
      <trkpt lat="41.5244020" lon="-5.0443480">
        <ele>719.5</ele>
        <time>2019-08-15T06:31:06Z</time>
      </trkpt>
      <trkpt lat="41.5244320" lon="-5.0443660">
        <ele>719.4</ele>
        <time>2019-08-15T06:31:07Z</time>
      </trkpt>
      <trkpt lat="41.5244610" lon="-5.0443840">
        <ele>719.4</ele>
        <time>2019-08-15T06:31:08Z</time>
      </trkpt>
      <trkpt lat="41.5244900" lon="-5.0444030">
        <ele>719.3</ele>
        <time>2019-08-15T06:31:09Z</time>
      </trkpt>
      <trkpt lat="41.5245190" lon="-5.0444230">
        <ele>719.2</ele>
        <time>2019-08-15T06:31:10Z</time>
      </trkpt>
      <trkpt lat="41.5245470" lon="-5.0444450">
        <ele>719.1</ele>
        <time>2019-08-15T06:31:11Z</time>
      </trkpt>
      <trkpt lat="41.5245740" lon="-5.0444680">
        <ele>719.0</ele>
        <time>2019-08-15T06:31:12Z</time>
      </trkpt>
      <trkpt lat="41.5246010" lon="-5.0444880">
        <ele>719.0</ele>
        <time>2019-08-15T06:31:13Z</time>
      </trkpt>
      <trkpt lat="41.5246290" lon="-5.0445060">
        <ele>719.0</ele>
        <time>2019-08-15T06:31:14Z</time>
      </trkpt>
      <trkpt lat="41.5246550" lon="-5.0445230">
        <ele>718.9</ele>
        <time>2019-08-15T06:31:15Z</time>
      </trkpt>
      <trkpt lat="41.5246810" lon="-5.0445400">
        <ele>718.9</ele>
        <time>2019-08-15T06:31:16Z</time>
      </trkpt>
      <trkpt lat="41.5247050" lon="-5.0445580">
        <ele>718.8</ele>
        <time>2019-08-15T06:31:17Z</time>
      </trkpt>
      <trkpt lat="41.5247290" lon="-5.0445760">
        <ele>718.7</ele>
        <time>2019-08-15T06:31:18Z</time>
      </trkpt>
      <trkpt lat="41.5247540" lon="-5.0445930">
        <ele>718.7</ele>
        <time>2019-08-15T06:31:19Z</time>
      </trkpt>
      <trkpt lat="41.5247810" lon="-5.0446090">
        <ele>718.7</ele>
        <time>2019-08-15T06:31:20Z</time>
      </trkpt>
      <trkpt lat="41.5248080" lon="-5.0446240">
        <ele>718.6</ele>
        <time>2019-08-15T06:31:21Z</time>
      </trkpt>
      <trkpt lat="41.5248350" lon="-5.0446390">
        <ele>718.6</ele>
        <time>2019-08-15T06:31:22Z</time>
      </trkpt>
      <trkpt lat="41.5248630" lon="-5.0446550">
        <ele>718.6</ele>
        <time>2019-08-15T06:31:23Z</time>
      </trkpt>
      <trkpt lat="41.5248900" lon="-5.0446730">
        <ele>718.5</ele>
        <time>2019-08-15T06:31:24Z</time>
      </trkpt>
      <trkpt lat="41.5249170" lon="-5.0446920">
        <ele>718.5</ele>
        <time>2019-08-15T06:31:25Z</time>
      </trkpt>
      <trkpt lat="41.5249420" lon="-5.0447120">
        <ele>718.5</ele>
        <time>2019-08-15T06:31:26Z</time>
      </trkpt>
      <trkpt lat="41.5249680" lon="-5.0447320">
        <ele>718.6</ele>
        <time>2019-08-15T06:31:27Z</time>
      </trkpt>
      <trkpt lat="41.5249930" lon="-5.0447510">
        <ele>718.6</ele>
        <time>2019-08-15T06:31:28Z</time>
      </trkpt>
      <trkpt lat="41.5250180" lon="-5.0447710">
        <ele>718.6</ele>
        <time>2019-08-15T06:31:29Z</time>
      </trkpt>
      <trkpt lat="41.5250440" lon="-5.0447920">
        <ele>718.7</ele>
        <time>2019-08-15T06:31:30Z</time>
      </trkpt>
      <trkpt lat="41.5250690" lon="-5.0448140">
        <ele>718.7</ele>
        <time>2019-08-15T06:31:31Z</time>
      </trkpt>
      <trkpt lat="41.5250950" lon="-5.0448380">
        <ele>718.7</ele>
        <time>2019-08-15T06:31:32Z</time>
      </trkpt>
      <trkpt lat="41.5251210" lon="-5.0448630">
        <ele>718.7</ele>
        <time>2019-08-15T06:31:33Z</time>
      </trkpt>
      <trkpt lat="41.5251470" lon="-5.0448900">
        <ele>718.8</ele>
        <time>2019-08-15T06:31:34Z</time>
      </trkpt>
      <trkpt lat="41.5251730" lon="-5.0449170">
        <ele>718.9</ele>
        <time>2019-08-15T06:31:35Z</time>
      </trkpt>
      <trkpt lat="41.5251990" lon="-5.0449440">
        <ele>719.0</ele>
        <time>2019-08-15T06:31:36Z</time>
      </trkpt>
      <trkpt lat="41.5252250" lon="-5.0449720">
        <ele>719.1</ele>
        <time>2019-08-15T06:31:37Z</time>
      </trkpt>
      <trkpt lat="41.5252510" lon="-5.0449990">
        <ele>719.2</ele>
        <time>2019-08-15T06:31:38Z</time>
      </trkpt>
      <trkpt lat="41.5252770" lon="-5.0450260">
        <ele>719.4</ele>
        <time>2019-08-15T06:31:39Z</time>
      </trkpt>
      <trkpt lat="41.5253020" lon="-5.0450540">
        <ele>719.5</ele>
        <time>2019-08-15T06:31:40Z</time>
      </trkpt>
      <trkpt lat="41.5253260" lon="-5.0450830">
        <ele>719.7</ele>
        <time>2019-08-15T06:31:41Z</time>
      </trkpt>
      <trkpt lat="41.5253500" lon="-5.0451140">
        <ele>719.8</ele>
        <time>2019-08-15T06:31:42Z</time>
      </trkpt>
      <trkpt lat="41.5253730" lon="-5.0451440">
        <ele>720.0</ele>
        <time>2019-08-15T06:31:43Z</time>
      </trkpt>
      <trkpt lat="41.5253970" lon="-5.0451750">
        <ele>720.2</ele>
        <time>2019-08-15T06:31:44Z</time>
      </trkpt>
      <trkpt lat="41.5254200" lon="-5.0452060">
        <ele>720.5</ele>
        <time>2019-08-15T06:31:45Z</time>
      </trkpt>
      <trkpt lat="41.5254430" lon="-5.0452360">
        <ele>720.7</ele>
        <time>2019-08-15T06:31:46Z</time>
      </trkpt>
      <trkpt lat="41.5254660" lon="-5.0452670">
        <ele>720.8</ele>
        <time>2019-08-15T06:31:47Z</time>
      </trkpt>
      <trkpt lat="41.5254880" lon="-5.0452980">
        <ele>721.0</ele>
        <time>2019-08-15T06:31:48Z</time>
      </trkpt>
      <trkpt lat="41.5255110" lon="-5.0453300">
        <ele>721.1</ele>
        <time>2019-08-15T06:31:49Z</time>
      </trkpt>
      <trkpt lat="41.5255330" lon="-5.0453620">
        <ele>721.3</ele>
        <time>2019-08-15T06:31:50Z</time>
      </trkpt>
      <trkpt lat="41.5255540" lon="-5.0453960">
        <ele>721.5</ele>
        <time>2019-08-15T06:31:51Z</time>
      </trkpt>
      <trkpt lat="41.5255750" lon="-5.0454300">
        <ele>721.7</ele>
        <time>2019-08-15T06:31:52Z</time>
      </trkpt>
      <trkpt lat="41.5255960" lon="-5.0454640">
        <ele>721.9</ele>
        <time>2019-08-15T06:31:53Z</time>
      </trkpt>
      <trkpt lat="41.5256170" lon="-5.0454980">
        <ele>722.1</ele>
        <time>2019-08-15T06:31:54Z</time>
      </trkpt>
      <trkpt lat="41.5256360" lon="-5.0455340">
        <ele>722.2</ele>
        <time>2019-08-15T06:31:55Z</time>
      </trkpt>
      <trkpt lat="41.5256560" lon="-5.0455700">
        <ele>722.3</ele>
        <time>2019-08-15T06:31:56Z</time>
      </trkpt>
      <trkpt lat="41.5256760" lon="-5.0456050">
        <ele>722.4</ele>
        <time>2019-08-15T06:31:57Z</time>
      </trkpt>
      <trkpt lat="41.5256950" lon="-5.0456410">
        <ele>722.6</ele>
        <time>2019-08-15T06:31:58Z</time>
      </trkpt>
      <trkpt lat="41.5257150" lon="-5.0456770">
        <ele>722.8</ele>
        <time>2019-08-15T06:31:59Z</time>
      </trkpt>
      <trkpt lat="41.5257360" lon="-5.0457150">
        <ele>723.0</ele>
        <time>2019-08-15T06:32:00Z</time>
      </trkpt>
      <trkpt lat="41.5257560" lon="-5.0457520">
        <ele>723.1</ele>
        <time>2019-08-15T06:32:01Z</time>
      </trkpt>
      <trkpt lat="41.5257770" lon="-5.0457910">
        <ele>723.2</ele>
        <time>2019-08-15T06:32:02Z</time>
      </trkpt>
      <trkpt lat="41.5257980" lon="-5.0458300">
        <ele>723.4</ele>
        <time>2019-08-15T06:32:03Z</time>
      </trkpt>
      <trkpt lat="41.5258210" lon="-5.0458680">
        <ele>723.6</ele>
        <time>2019-08-15T06:32:04Z</time>
      </trkpt>
      <trkpt lat="41.5258430" lon="-5.0459070">
        <ele>723.8</ele>
        <time>2019-08-15T06:32:05Z</time>
      </trkpt>
      <trkpt lat="41.5258650" lon="-5.0459480">
        <ele>724.0</ele>
        <time>2019-08-15T06:32:06Z</time>
      </trkpt>
      <trkpt lat="41.5258870" lon="-5.0459890">
        <ele>724.1</ele>
        <time>2019-08-15T06:32:07Z</time>
      </trkpt>
      <trkpt lat="41.5259100" lon="-5.0460290">
        <ele>724.2</ele>
        <time>2019-08-15T06:32:08Z</time>
      </trkpt>
      <trkpt lat="41.5259330" lon="-5.0460700">
        <ele>724.2</ele>
        <time>2019-08-15T06:32:09Z</time>
      </trkpt>
      <trkpt lat="41.5259550" lon="-5.0461110">
        <ele>724.4</ele>
        <time>2019-08-15T06:32:10Z</time>
      </trkpt>
      <trkpt lat="41.5259780" lon="-5.0461530">
        <ele>724.6</ele>
        <time>2019-08-15T06:32:11Z</time>
      </trkpt>
      <trkpt lat="41.5260000" lon="-5.0461940">
        <ele>724.8</ele>
        <time>2019-08-15T06:32:12Z</time>
      </trkpt>
      <trkpt lat="41.5260210" lon="-5.0462360">
        <ele>725.0</ele>
        <time>2019-08-15T06:32:13Z</time>
      </trkpt>
      <trkpt lat="41.5260420" lon="-5.0462790">
        <ele>725.2</ele>
        <time>2019-08-15T06:32:14Z</time>
      </trkpt>
      <trkpt lat="41.5260610" lon="-5.0463240">
        <ele>725.2</ele>
        <time>2019-08-15T06:32:15Z</time>
      </trkpt>
      <trkpt lat="41.5260810" lon="-5.0463670">
        <ele>725.3</ele>
        <time>2019-08-15T06:32:16Z</time>
      </trkpt>
      <trkpt lat="41.5261030" lon="-5.0464090">
        <ele>725.3</ele>
        <time>2019-08-15T06:32:17Z</time>
      </trkpt>
      <trkpt lat="41.5261260" lon="-5.0464490">
        <ele>725.4</ele>
        <time>2019-08-15T06:32:18Z</time>
      </trkpt>
      <trkpt lat="41.5261490" lon="-5.0464880">
        <ele>725.5</ele>
        <time>2019-08-15T06:32:19Z</time>
      </trkpt>
      <trkpt lat="41.5261700" lon="-5.0465300">
        <ele>725.6</ele>
        <time>2019-08-15T06:32:20Z</time>
      </trkpt>
      <trkpt lat="41.5261940" lon="-5.0465710">
        <ele>725.6</ele>
        <time>2019-08-15T06:32:21Z</time>
      </trkpt>
      <trkpt lat="41.5262180" lon="-5.0466110">
        <ele>725.7</ele>
        <time>2019-08-15T06:32:22Z</time>
      </trkpt>
      <trkpt lat="41.5262400" lon="-5.0466510">
        <ele>725.9</ele>
        <time>2019-08-15T06:32:23Z</time>
      </trkpt>
      <trkpt lat="41.5262620" lon="-5.0466920">
        <ele>726.1</ele>
        <time>2019-08-15T06:32:24Z</time>
      </trkpt>
      <trkpt lat="41.5262840" lon="-5.0467330">
        <ele>726.2</ele>
        <time>2019-08-15T06:32:25Z</time>
      </trkpt>
      <trkpt lat="41.5263060" lon="-5.0467720">
        <ele>726.4</ele>
        <time>2019-08-15T06:32:26Z</time>
      </trkpt>
      <trkpt lat="41.5263280" lon="-5.0468110">
        <ele>726.5</ele>
        <time>2019-08-15T06:32:27Z</time>
      </trkpt>
      <trkpt lat="41.5263500" lon="-5.0468480">
        <ele>726.5</ele>
        <time>2019-08-15T06:32:28Z</time>
      </trkpt>
      <trkpt lat="41.5263720" lon="-5.0468870">
        <ele>726.6</ele>
        <time>2019-08-15T06:32:29Z</time>
      </trkpt>
      <trkpt lat="41.5263900" lon="-5.0469270">
        <ele>726.8</ele>
        <time>2019-08-15T06:32:30Z</time>
      </trkpt>
      <trkpt lat="41.5264100" lon="-5.0469650">
        <ele>727.0</ele>
        <time>2019-08-15T06:32:31Z</time>
      </trkpt>
      <trkpt lat="41.5264310" lon="-5.0470030">
        <ele>727.1</ele>
        <time>2019-08-15T06:32:32Z</time>
      </trkpt>
      <trkpt lat="41.5264520" lon="-5.0470410">
        <ele>727.2</ele>
        <time>2019-08-15T06:32:33Z</time>
      </trkpt>
      <trkpt lat="41.5264730" lon="-5.0470780">
        <ele>727.4</ele>
        <time>2019-08-15T06:32:34Z</time>
      </trkpt>
      <trkpt lat="41.5264950" lon="-5.0471160">
        <ele>727.6</ele>
        <time>2019-08-15T06:32:35Z</time>
      </trkpt>
      <trkpt lat="41.5265150" lon="-5.0471540">
        <ele>727.8</ele>
        <time>2019-08-15T06:32:36Z</time>
      </trkpt>
      <trkpt lat="41.5265360" lon="-5.0471910">
        <ele>728.1</ele>
        <time>2019-08-15T06:32:37Z</time>
      </trkpt>
      <trkpt lat="41.5265570" lon="-5.0472290">
        <ele>728.3</ele>
        <time>2019-08-15T06:32:38Z</time>
      </trkpt>
      <trkpt lat="41.5265770" lon="-5.0472680">
        <ele>728.6</ele>
        <time>2019-08-15T06:32:39Z</time>
      </trkpt>
      <trkpt lat="41.5265980" lon="-5.0473070">
        <ele>728.8</ele>
        <time>2019-08-15T06:32:40Z</time>
      </trkpt>
      <trkpt lat="41.5266180" lon="-5.0473460">
        <ele>728.9</ele>
        <time>2019-08-15T06:32:41Z</time>
      </trkpt>
      <trkpt lat="41.5266390" lon="-5.0473840">
        <ele>729.2</ele>
        <time>2019-08-15T06:32:42Z</time>
      </trkpt>
      <trkpt lat="41.5266600" lon="-5.0474220">
        <ele>729.5</ele>
        <time>2019-08-15T06:32:43Z</time>
      </trkpt>
      <trkpt lat="41.5266810" lon="-5.0474590">
        <ele>729.8</ele>
        <time>2019-08-15T06:32:44Z</time>
      </trkpt>
      <trkpt lat="41.5267020" lon="-5.0474980">
        <ele>730.0</ele>
        <time>2019-08-15T06:32:45Z</time>
      </trkpt>
      <trkpt lat="41.5267230" lon="-5.0475370">
        <ele>730.2</ele>
        <time>2019-08-15T06:32:46Z</time>
      </trkpt>
      <trkpt lat="41.5267440" lon="-5.0475750">
        <ele>730.5</ele>
        <time>2019-08-15T06:32:47Z</time>
      </trkpt>
      <trkpt lat="41.5267650" lon="-5.0476140">
        <ele>730.8</ele>
        <time>2019-08-15T06:32:48Z</time>
      </trkpt>
      <trkpt lat="41.5267860" lon="-5.0476530">
        <ele>731.0</ele>
        <time>2019-08-15T06:32:49Z</time>
      </trkpt>
      <trkpt lat="41.5268070" lon="-5.0476920">
        <ele>731.3</ele>
        <time>2019-08-15T06:32:50Z</time>
      </trkpt>
      <trkpt lat="41.5268280" lon="-5.0477300">
        <ele>731.5</ele>
        <time>2019-08-15T06:32:51Z</time>
      </trkpt>
      <trkpt lat="41.5268500" lon="-5.0477680">
        <ele>731.7</ele>
        <time>2019-08-15T06:32:52Z</time>
      </trkpt>
      <trkpt lat="41.5268720" lon="-5.0478060">
        <ele>731.9</ele>
        <time>2019-08-15T06:32:53Z</time>
      </trkpt>
      <trkpt lat="41.5268940" lon="-5.0478410">
        <ele>732.0</ele>
        <time>2019-08-15T06:32:54Z</time>
      </trkpt>
      <trkpt lat="41.5269170" lon="-5.0478750">
        <ele>732.2</ele>
        <time>2019-08-15T06:32:55Z</time>
      </trkpt>
      <trkpt lat="41.5269400" lon="-5.0479110">
        <ele>732.4</ele>
        <time>2019-08-15T06:32:56Z</time>
      </trkpt>
      <trkpt lat="41.5269630" lon="-5.0479500">
        <ele>732.5</ele>
        <time>2019-08-15T06:32:57Z</time>
      </trkpt>
      <trkpt lat="41.5269840" lon="-5.0479900">
        <ele>732.6</ele>
        <time>2019-08-15T06:32:58Z</time>
      </trkpt>
      <trkpt lat="41.5270050" lon="-5.0480320">
        <ele>732.7</ele>
        <time>2019-08-15T06:32:59Z</time>
      </trkpt>
      <trkpt lat="41.5270270" lon="-5.0480750">
        <ele>732.7</ele>
        <time>2019-08-15T06:33:00Z</time>
      </trkpt>
      <trkpt lat="41.5270490" lon="-5.0481160">
        <ele>732.7</ele>
        <time>2019-08-15T06:33:01Z</time>
      </trkpt>
      <trkpt lat="41.5270720" lon="-5.0481590">
        <ele>732.7</ele>
        <time>2019-08-15T06:33:02Z</time>
      </trkpt>
      <trkpt lat="41.5270960" lon="-5.0482030">
        <ele>732.7</ele>
        <time>2019-08-15T06:33:03Z</time>
      </trkpt>
      <trkpt lat="41.5271190" lon="-5.0482470">
        <ele>732.7</ele>
        <time>2019-08-15T06:33:04Z</time>
      </trkpt>
      <trkpt lat="41.5271430" lon="-5.0482900">
        <ele>732.6</ele>
        <time>2019-08-15T06:33:05Z</time>
      </trkpt>
      <trkpt lat="41.5271670" lon="-5.0483350">
        <ele>732.6</ele>
        <time>2019-08-15T06:33:06Z</time>
      </trkpt>
      <trkpt lat="41.5271910" lon="-5.0483800">
        <ele>732.6</ele>
        <time>2019-08-15T06:33:07Z</time>
      </trkpt>
      <trkpt lat="41.5272140" lon="-5.0484270">
        <ele>732.6</ele>
        <time>2019-08-15T06:33:08Z</time>
      </trkpt>
      <trkpt lat="41.5272370" lon="-5.0484730">
        <ele>732.6</ele>
        <time>2019-08-15T06:33:09Z</time>
      </trkpt>
      <trkpt lat="41.5272610" lon="-5.0485190">
        <ele>732.7</ele>
        <time>2019-08-15T06:33:10Z</time>
      </trkpt>
      <trkpt lat="41.5272840" lon="-5.0485650">
        <ele>732.6</ele>
        <time>2019-08-15T06:33:11Z</time>
      </trkpt>
      <trkpt lat="41.5273060" lon="-5.0486100">
        <ele>732.6</ele>
        <time>2019-08-15T06:33:12Z</time>
      </trkpt>
      <trkpt lat="41.5273290" lon="-5.0486560">
        <ele>732.6</ele>
        <time>2019-08-15T06:33:13Z</time>
      </trkpt>
      <trkpt lat="41.5273530" lon="-5.0487020">
        <ele>732.5</ele>
        <time>2019-08-15T06:33:14Z</time>
      </trkpt>
      <trkpt lat="41.5273770" lon="-5.0487490">
        <ele>732.5</ele>
        <time>2019-08-15T06:33:15Z</time>
      </trkpt>
      <trkpt lat="41.5274010" lon="-5.0487960">
        <ele>732.4</ele>
        <time>2019-08-15T06:33:16Z</time>
      </trkpt>
      <trkpt lat="41.5274260" lon="-5.0488440">
        <ele>732.4</ele>
        <time>2019-08-15T06:33:17Z</time>
      </trkpt>
      <trkpt lat="41.5274520" lon="-5.0488920">
        <ele>732.3</ele>
        <time>2019-08-15T06:33:18Z</time>
      </trkpt>
      <trkpt lat="41.5274780" lon="-5.0489370">
        <ele>732.3</ele>
        <time>2019-08-15T06:33:19Z</time>
      </trkpt>
      <trkpt lat="41.5275040" lon="-5.0489820">
        <ele>732.3</ele>
        <time>2019-08-15T06:33:20Z</time>
      </trkpt>
      <trkpt lat="41.5275300" lon="-5.0490290">
        <ele>732.3</ele>
        <time>2019-08-15T06:33:21Z</time>
      </trkpt>
      <trkpt lat="41.5275560" lon="-5.0490770">
        <ele>732.2</ele>
        <time>2019-08-15T06:33:22Z</time>
      </trkpt>
      <trkpt lat="41.5275830" lon="-5.0491230">
        <ele>732.2</ele>
        <time>2019-08-15T06:33:23Z</time>
      </trkpt>
      <trkpt lat="41.5276090" lon="-5.0491670">
        <ele>732.1</ele>
        <time>2019-08-15T06:33:24Z</time>
      </trkpt>
      <trkpt lat="41.5276350" lon="-5.0492110">
        <ele>732.1</ele>
        <time>2019-08-15T06:33:25Z</time>
      </trkpt>
      <trkpt lat="41.5276610" lon="-5.0492570">
        <ele>732.0</ele>
        <time>2019-08-15T06:33:26Z</time>
      </trkpt>
      <trkpt lat="41.5276860" lon="-5.0493040">
        <ele>732.0</ele>
        <time>2019-08-15T06:33:27Z</time>
      </trkpt>
      <trkpt lat="41.5277120" lon="-5.0493520">
        <ele>732.0</ele>
        <time>2019-08-15T06:33:28Z</time>
      </trkpt>
      <trkpt lat="41.5277390" lon="-5.0494000">
        <ele>732.0</ele>
        <time>2019-08-15T06:33:29Z</time>
      </trkpt>
      <trkpt lat="41.5277660" lon="-5.0494490">
        <ele>732.0</ele>
        <time>2019-08-15T06:33:30Z</time>
      </trkpt>
      <trkpt lat="41.5277940" lon="-5.0494990">
        <ele>731.9</ele>
        <time>2019-08-15T06:33:31Z</time>
      </trkpt>
      <trkpt lat="41.5278210" lon="-5.0495500">
        <ele>731.8</ele>
        <time>2019-08-15T06:33:32Z</time>
      </trkpt>
      <trkpt lat="41.5278490" lon="-5.0496010">
        <ele>731.7</ele>
        <time>2019-08-15T06:33:33Z</time>
      </trkpt>
      <trkpt lat="41.5278780" lon="-5.0496510">
        <ele>731.6</ele>
        <time>2019-08-15T06:33:34Z</time>
      </trkpt>
      <trkpt lat="41.5279070" lon="-5.0497000">
        <ele>731.5</ele>
        <time>2019-08-15T06:33:35Z</time>
      </trkpt>
      <trkpt lat="41.5279330" lon="-5.0497500">
        <ele>731.4</ele>
        <time>2019-08-15T06:33:36Z</time>
      </trkpt>
      <trkpt lat="41.5279580" lon="-5.0497990">
        <ele>731.3</ele>
        <time>2019-08-15T06:33:37Z</time>
      </trkpt>
      <trkpt lat="41.5279840" lon="-5.0498470">
        <ele>731.1</ele>
        <time>2019-08-15T06:33:38Z</time>
      </trkpt>
      <trkpt lat="41.5280100" lon="-5.0498920">
        <ele>731.0</ele>
        <time>2019-08-15T06:33:39Z</time>
      </trkpt>
      <trkpt lat="41.5280360" lon="-5.0499400">
        <ele>730.9</ele>
        <time>2019-08-15T06:33:40Z</time>
      </trkpt>
      <trkpt lat="41.5280620" lon="-5.0499880">
        <ele>730.8</ele>
        <time>2019-08-15T06:33:41Z</time>
      </trkpt>
      <trkpt lat="41.5280890" lon="-5.0500360">
        <ele>730.6</ele>
        <time>2019-08-15T06:33:42Z</time>
      </trkpt>
      <trkpt lat="41.5281170" lon="-5.0500830">
        <ele>730.5</ele>
        <time>2019-08-15T06:33:43Z</time>
      </trkpt>
      <trkpt lat="41.5281450" lon="-5.0501310">
        <ele>730.4</ele>
        <time>2019-08-15T06:33:44Z</time>
      </trkpt>
      <trkpt lat="41.5281720" lon="-5.0501790">
        <ele>730.4</ele>
        <time>2019-08-15T06:33:45Z</time>
      </trkpt>
      <trkpt lat="41.5282000" lon="-5.0502290">
        <ele>730.3</ele>
        <time>2019-08-15T06:33:46Z</time>
      </trkpt>
      <trkpt lat="41.5282300" lon="-5.0502800">
        <ele>730.2</ele>
        <time>2019-08-15T06:33:47Z</time>
      </trkpt>
      <trkpt lat="41.5282590" lon="-5.0503300">
        <ele>730.1</ele>
        <time>2019-08-15T06:33:48Z</time>
      </trkpt>
      <trkpt lat="41.5282890" lon="-5.0503810">
        <ele>730.1</ele>
        <time>2019-08-15T06:33:49Z</time>
      </trkpt>
      <trkpt lat="41.5283200" lon="-5.0504290">
        <ele>730.1</ele>
        <time>2019-08-15T06:33:50Z</time>
      </trkpt>
      <trkpt lat="41.5283510" lon="-5.0504780">
        <ele>730.0</ele>
        <time>2019-08-15T06:33:51Z</time>
      </trkpt>
      <trkpt lat="41.5283820" lon="-5.0505250">
        <ele>730.0</ele>
        <time>2019-08-15T06:33:52Z</time>
      </trkpt>
      <trkpt lat="41.5284120" lon="-5.0505700">
        <ele>730.1</ele>
        <time>2019-08-15T06:33:53Z</time>
      </trkpt>
      <trkpt lat="41.5284430" lon="-5.0506150">
        <ele>730.1</ele>
        <time>2019-08-15T06:33:54Z</time>
      </trkpt>
      <trkpt lat="41.5284720" lon="-5.0506590">
        <ele>730.1</ele>
        <time>2019-08-15T06:33:55Z</time>
      </trkpt>
      <trkpt lat="41.5285000" lon="-5.0507030">
        <ele>730.2</ele>
        <time>2019-08-15T06:33:56Z</time>
      </trkpt>
      <trkpt lat="41.5285300" lon="-5.0507480">
        <ele>730.2</ele>
        <time>2019-08-15T06:33:57Z</time>
      </trkpt>
      <trkpt lat="41.5285600" lon="-5.0507980">
        <ele>730.1</ele>
        <time>2019-08-15T06:33:58Z</time>
      </trkpt>
      <trkpt lat="41.5285880" lon="-5.0508550">
        <ele>730.1</ele>
        <time>2019-08-15T06:33:59Z</time>
      </trkpt>
      <trkpt lat="41.5286140" lon="-5.0509170">
        <ele>730.1</ele>
        <time>2019-08-15T06:34:00Z</time>
      </trkpt>
      <trkpt lat="41.5286370" lon="-5.0509800">
        <ele>730.1</ele>
        <time>2019-08-15T06:34:01Z</time>
      </trkpt>
      <trkpt lat="41.5286620" lon="-5.0510430">
        <ele>730.1</ele>
        <time>2019-08-15T06:34:02Z</time>
      </trkpt>
      <trkpt lat="41.5286870" lon="-5.0511050">
        <ele>730.1</ele>
        <time>2019-08-15T06:34:03Z</time>
      </trkpt>
      <trkpt lat="41.5287120" lon="-5.0511640">
        <ele>730.0</ele>
        <time>2019-08-15T06:34:04Z</time>
      </trkpt>
      <trkpt lat="41.5287390" lon="-5.0512220">
        <ele>729.9</ele>
        <time>2019-08-15T06:34:05Z</time>
      </trkpt>
      <trkpt lat="41.5287690" lon="-5.0512800">
        <ele>729.8</ele>
        <time>2019-08-15T06:34:06Z</time>
      </trkpt>
      <trkpt lat="41.5287980" lon="-5.0513380">
        <ele>729.7</ele>
        <time>2019-08-15T06:34:07Z</time>
      </trkpt>
      <trkpt lat="41.5288260" lon="-5.0513950">
        <ele>729.6</ele>
        <time>2019-08-15T06:34:08Z</time>
      </trkpt>
      <trkpt lat="41.5288560" lon="-5.0514490">
        <ele>729.5</ele>
        <time>2019-08-15T06:34:09Z</time>
      </trkpt>
      <trkpt lat="41.5288860" lon="-5.0515060">
        <ele>729.4</ele>
        <time>2019-08-15T06:34:10Z</time>
      </trkpt>
      <trkpt lat="41.5289150" lon="-5.0515610">
        <ele>729.4</ele>
        <time>2019-08-15T06:34:11Z</time>
      </trkpt>
      <trkpt lat="41.5289450" lon="-5.0516150">
        <ele>729.2</ele>
        <time>2019-08-15T06:34:12Z</time>
      </trkpt>
      <trkpt lat="41.5289740" lon="-5.0516680">
        <ele>729.1</ele>
        <time>2019-08-15T06:34:13Z</time>
      </trkpt>
      <trkpt lat="41.5290030" lon="-5.0517210">
        <ele>729.1</ele>
        <time>2019-08-15T06:34:14Z</time>
      </trkpt>
      <trkpt lat="41.5290300" lon="-5.0517770">
        <ele>729.0</ele>
        <time>2019-08-15T06:34:15Z</time>
      </trkpt>
      <trkpt lat="41.5290590" lon="-5.0518300">
        <ele>729.0</ele>
        <time>2019-08-15T06:34:16Z</time>
      </trkpt>
      <trkpt lat="41.5290880" lon="-5.0518810">
        <ele>729.0</ele>
        <time>2019-08-15T06:34:17Z</time>
      </trkpt>
      <trkpt lat="41.5291190" lon="-5.0519320">
        <ele>729.0</ele>
        <time>2019-08-15T06:34:18Z</time>
      </trkpt>
      <trkpt lat="41.5291480" lon="-5.0519830">
        <ele>729.0</ele>
        <time>2019-08-15T06:34:19Z</time>
      </trkpt>
      <trkpt lat="41.5291780" lon="-5.0520340">
        <ele>729.1</ele>
        <time>2019-08-15T06:34:20Z</time>
      </trkpt>
      <trkpt lat="41.5292060" lon="-5.0520860">
        <ele>729.2</ele>
        <time>2019-08-15T06:34:21Z</time>
      </trkpt>
      <trkpt lat="41.5292330" lon="-5.0521380">
        <ele>729.3</ele>
        <time>2019-08-15T06:34:22Z</time>
      </trkpt>
      <trkpt lat="41.5292610" lon="-5.0521900">
        <ele>729.3</ele>
        <time>2019-08-15T06:34:23Z</time>
      </trkpt>
      <trkpt lat="41.5292900" lon="-5.0522390">
        <ele>729.4</ele>
        <time>2019-08-15T06:34:24Z</time>
      </trkpt>
      <trkpt lat="41.5293180" lon="-5.0522880">
        <ele>729.5</ele>
        <time>2019-08-15T06:34:25Z</time>
      </trkpt>
      <trkpt lat="41.5293460" lon="-5.0523370">
        <ele>729.6</ele>
        <time>2019-08-15T06:34:26Z</time>
      </trkpt>
      <trkpt lat="41.5293740" lon="-5.0523860">
        <ele>729.7</ele>
        <time>2019-08-15T06:34:27Z</time>
      </trkpt>
      <trkpt lat="41.5294020" lon="-5.0524370">
        <ele>729.9</ele>
        <time>2019-08-15T06:34:28Z</time>
      </trkpt>
      <trkpt lat="41.5294300" lon="-5.0524860">
        <ele>730.0</ele>
        <time>2019-08-15T06:34:29Z</time>
      </trkpt>
      <trkpt lat="41.5294570" lon="-5.0525350">
        <ele>730.1</ele>
        <time>2019-08-15T06:34:30Z</time>
      </trkpt>
      <trkpt lat="41.5294850" lon="-5.0525830">
        <ele>730.3</ele>
        <time>2019-08-15T06:34:31Z</time>
      </trkpt>
      <trkpt lat="41.5295130" lon="-5.0526320">
        <ele>730.5</ele>
        <time>2019-08-15T06:34:32Z</time>
      </trkpt>
      <trkpt lat="41.5295420" lon="-5.0526800">
        <ele>730.7</ele>
        <time>2019-08-15T06:34:33Z</time>
      </trkpt>
      <trkpt lat="41.5295700" lon="-5.0527300">
        <ele>730.9</ele>
        <time>2019-08-15T06:34:34Z</time>
      </trkpt>
      <trkpt lat="41.5295990" lon="-5.0527780">
        <ele>731.0</ele>
        <time>2019-08-15T06:34:35Z</time>
      </trkpt>
      <trkpt lat="41.5296280" lon="-5.0528270">
        <ele>731.2</ele>
        <time>2019-08-15T06:34:36Z</time>
      </trkpt>
      <trkpt lat="41.5296560" lon="-5.0528750">
        <ele>731.5</ele>
        <time>2019-08-15T06:34:37Z</time>
      </trkpt>
      <trkpt lat="41.5296850" lon="-5.0529230">
        <ele>731.6</ele>
        <time>2019-08-15T06:34:38Z</time>
      </trkpt>
      <trkpt lat="41.5297130" lon="-5.0529720">
        <ele>731.8</ele>
        <time>2019-08-15T06:34:39Z</time>
      </trkpt>
      <trkpt lat="41.5297400" lon="-5.0530210">
        <ele>731.8</ele>
        <time>2019-08-15T06:34:40Z</time>
      </trkpt>
      <trkpt lat="41.5297670" lon="-5.0530700">
        <ele>731.8</ele>
        <time>2019-08-15T06:34:41Z</time>
      </trkpt>
      <trkpt lat="41.5297940" lon="-5.0531180">
        <ele>732.1</ele>
        <time>2019-08-15T06:34:42Z</time>
      </trkpt>
      <trkpt lat="41.5298210" lon="-5.0531660">
        <ele>732.4</ele>
        <time>2019-08-15T06:34:43Z</time>
      </trkpt>
      <trkpt lat="41.5298490" lon="-5.0532140">
        <ele>732.5</ele>
        <time>2019-08-15T06:34:44Z</time>
      </trkpt>
      <trkpt lat="41.5298790" lon="-5.0532620">
        <ele>732.7</ele>
        <time>2019-08-15T06:34:45Z</time>
      </trkpt>
      <trkpt lat="41.5299070" lon="-5.0533110">
        <ele>733.0</ele>
        <time>2019-08-15T06:34:46Z</time>
      </trkpt>
      <trkpt lat="41.5299340" lon="-5.0533600">
        <ele>733.2</ele>
        <time>2019-08-15T06:34:47Z</time>
      </trkpt>
      <trkpt lat="41.5299630" lon="-5.0534080">
        <ele>733.5</ele>
        <time>2019-08-15T06:34:48Z</time>
      </trkpt>
      <trkpt lat="41.5299910" lon="-5.0534550">
        <ele>733.7</ele>
        <time>2019-08-15T06:34:49Z</time>
      </trkpt>
      <trkpt lat="41.5300180" lon="-5.0535020">
        <ele>733.8</ele>
        <time>2019-08-15T06:34:50Z</time>
      </trkpt>
      <trkpt lat="41.5300450" lon="-5.0535490">
        <ele>733.9</ele>
        <time>2019-08-15T06:34:51Z</time>
      </trkpt>
      <trkpt lat="41.5300730" lon="-5.0535970">
        <ele>734.1</ele>
        <time>2019-08-15T06:34:52Z</time>
      </trkpt>
      <trkpt lat="41.5301000" lon="-5.0536420">
        <ele>734.3</ele>
        <time>2019-08-15T06:34:53Z</time>
      </trkpt>
      <trkpt lat="41.5301270" lon="-5.0536880">
        <ele>734.5</ele>
        <time>2019-08-15T06:34:54Z</time>
      </trkpt>
      <trkpt lat="41.5301530" lon="-5.0537340">
        <ele>734.6</ele>
        <time>2019-08-15T06:34:55Z</time>
      </trkpt>
      <trkpt lat="41.5301790" lon="-5.0537820">
        <ele>734.6</ele>
        <time>2019-08-15T06:34:56Z</time>
      </trkpt>
      <trkpt lat="41.5302040" lon="-5.0538320">
        <ele>734.7</ele>
        <time>2019-08-15T06:34:57Z</time>
      </trkpt>
      <trkpt lat="41.5302310" lon="-5.0538820">
        <ele>734.8</ele>
        <time>2019-08-15T06:34:58Z</time>
      </trkpt>
      <trkpt lat="41.5302570" lon="-5.0539340">
        <ele>734.9</ele>
        <time>2019-08-15T06:34:59Z</time>
      </trkpt>
      <trkpt lat="41.5302840" lon="-5.0539840">
        <ele>735.1</ele>
        <time>2019-08-15T06:35:00Z</time>
      </trkpt>
      <trkpt lat="41.5303110" lon="-5.0540350">
        <ele>735.2</ele>
        <time>2019-08-15T06:35:01Z</time>
      </trkpt>
      <trkpt lat="41.5303400" lon="-5.0540840">
        <ele>735.2</ele>
        <time>2019-08-15T06:35:02Z</time>
      </trkpt>
      <trkpt lat="41.5303680" lon="-5.0541330">
        <ele>735.3</ele>
        <time>2019-08-15T06:35:03Z</time>
      </trkpt>
      <trkpt lat="41.5303940" lon="-5.0541840">
        <ele>735.4</ele>
        <time>2019-08-15T06:35:04Z</time>
      </trkpt>
      <trkpt lat="41.5304210" lon="-5.0542350">
        <ele>735.6</ele>
        <time>2019-08-15T06:35:05Z</time>
      </trkpt>
      <trkpt lat="41.5304470" lon="-5.0542830">
        <ele>735.7</ele>
        <time>2019-08-15T06:35:06Z</time>
      </trkpt>
      <trkpt lat="41.5304710" lon="-5.0543330">
        <ele>735.8</ele>
        <time>2019-08-15T06:35:07Z</time>
      </trkpt>
      <trkpt lat="41.5304940" lon="-5.0543830">
        <ele>735.8</ele>
        <time>2019-08-15T06:35:08Z</time>
      </trkpt>
      <trkpt lat="41.5305170" lon="-5.0544310">
        <ele>735.9</ele>
        <time>2019-08-15T06:35:09Z</time>
      </trkpt>
      <trkpt lat="41.5305390" lon="-5.0544790">
        <ele>736.0</ele>
        <time>2019-08-15T06:35:10Z</time>
      </trkpt>
      <trkpt lat="41.5305600" lon="-5.0545260">
        <ele>736.1</ele>
        <time>2019-08-15T06:35:11Z</time>
      </trkpt>
      <trkpt lat="41.5305780" lon="-5.0545750">
        <ele>736.2</ele>
        <time>2019-08-15T06:35:12Z</time>
      </trkpt>
      <trkpt lat="41.5305980" lon="-5.0546300">
        <ele>736.3</ele>
        <time>2019-08-15T06:35:13Z</time>
      </trkpt>
      <trkpt lat="41.5306200" lon="-5.0546890">
        <ele>736.3</ele>
        <time>2019-08-15T06:35:14Z</time>
      </trkpt>
      <trkpt lat="41.5306420" lon="-5.0547490">
        <ele>736.4</ele>
        <time>2019-08-15T06:35:15Z</time>
      </trkpt>
      <trkpt lat="41.5306620" lon="-5.0548100">
        <ele>736.5</ele>
        <time>2019-08-15T06:35:16Z</time>
      </trkpt>
      <trkpt lat="41.5306810" lon="-5.0548730">
        <ele>736.6</ele>
        <time>2019-08-15T06:35:17Z</time>
      </trkpt>
      <trkpt lat="41.5307020" lon="-5.0549360">
        <ele>736.7</ele>
        <time>2019-08-15T06:35:18Z</time>
      </trkpt>
      <trkpt lat="41.5307290" lon="-5.0549910">
        <ele>736.9</ele>
        <time>2019-08-15T06:35:19Z</time>
      </trkpt>
      <trkpt lat="41.5307610" lon="-5.0550390">
        <ele>737.0</ele>
        <time>2019-08-15T06:35:20Z</time>
      </trkpt>
      <trkpt lat="41.5307960" lon="-5.0550830">
        <ele>737.1</ele>
        <time>2019-08-15T06:35:21Z</time>
      </trkpt>
      <trkpt lat="41.5308320" lon="-5.0551250">
        <ele>737.3</ele>
        <time>2019-08-15T06:35:22Z</time>
      </trkpt>
      <trkpt lat="41.5308680" lon="-5.0551670">
        <ele>737.5</ele>
        <time>2019-08-15T06:35:23Z</time>
      </trkpt>
      <trkpt lat="41.5309030" lon="-5.0552060">
        <ele>737.7</ele>
        <time>2019-08-15T06:35:24Z</time>
      </trkpt>
      <trkpt lat="41.5309340" lon="-5.0552450">
        <ele>737.7</ele>
        <time>2019-08-15T06:35:25Z</time>
      </trkpt>
      <trkpt lat="41.5309610" lon="-5.0552800">
        <ele>737.8</ele>
        <time>2019-08-15T06:35:26Z</time>
      </trkpt>
      <trkpt lat="41.5309840" lon="-5.0553120">
        <ele>737.9</ele>
        <time>2019-08-15T06:35:27Z</time>
      </trkpt>
      <trkpt lat="41.5310060" lon="-5.0553440">
        <ele>737.9</ele>
        <time>2019-08-15T06:35:28Z</time>
      </trkpt>
      <trkpt lat="41.5310270" lon="-5.0553730">
        <ele>738.0</ele>
        <time>2019-08-15T06:35:29Z</time>
      </trkpt>
      <trkpt lat="41.5310460" lon="-5.0554000">
        <ele>738.1</ele>
        <time>2019-08-15T06:35:30Z</time>
      </trkpt>
      <trkpt lat="41.5310630" lon="-5.0554270">
        <ele>738.2</ele>
        <time>2019-08-15T06:35:31Z</time>
      </trkpt>
      <trkpt lat="41.5310940" lon="-5.0554800">
        <ele>738.3</ele>
        <time>2019-08-15T06:35:33Z</time>
      </trkpt>
      <trkpt lat="41.5311240" lon="-5.0555290">
        <ele>738.4</ele>
        <time>2019-08-15T06:35:35Z</time>
      </trkpt>
      <trkpt lat="41.5311530" lon="-5.0555850">
        <ele>738.5</ele>
        <time>2019-08-15T06:35:37Z</time>
      </trkpt>
      <trkpt lat="41.5311830" lon="-5.0556440">
        <ele>738.7</ele>
        <time>2019-08-15T06:35:39Z</time>
      </trkpt>
      <trkpt lat="41.5311980" lon="-5.0556740">
        <ele>738.8</ele>
        <time>2019-08-15T06:35:40Z</time>
      </trkpt>
      <trkpt lat="41.5312130" lon="-5.0557040">
        <ele>738.9</ele>
        <time>2019-08-15T06:35:41Z</time>
      </trkpt>
      <trkpt lat="41.5312440" lon="-5.0557630">
        <ele>739.1</ele>
        <time>2019-08-15T06:35:43Z</time>
      </trkpt>
      <trkpt lat="41.5312750" lon="-5.0558210">
        <ele>739.1</ele>
        <time>2019-08-15T06:35:45Z</time>
      </trkpt>
      <trkpt lat="41.5313090" lon="-5.0558780">
        <ele>739.4</ele>
        <time>2019-08-15T06:35:47Z</time>
      </trkpt>
      <trkpt lat="41.5313260" lon="-5.0559060">
        <ele>739.5</ele>
        <time>2019-08-15T06:35:48Z</time>
      </trkpt>
      <trkpt lat="41.5313580" lon="-5.0559640">
        <ele>739.8</ele>
        <time>2019-08-15T06:35:50Z</time>
      </trkpt>
      <trkpt lat="41.5313740" lon="-5.0559940">
        <ele>739.9</ele>
        <time>2019-08-15T06:35:51Z</time>
      </trkpt>
      <trkpt lat="41.5313900" lon="-5.0560230">
        <ele>740.1</ele>
        <time>2019-08-15T06:35:52Z</time>
      </trkpt>
      <trkpt lat="41.5314060" lon="-5.0560530">
        <ele>740.2</ele>
        <time>2019-08-15T06:35:53Z</time>
      </trkpt>
      <trkpt lat="41.5314230" lon="-5.0560830">
        <ele>740.3</ele>
        <time>2019-08-15T06:35:54Z</time>
      </trkpt>
      <trkpt lat="41.5314410" lon="-5.0561140">
        <ele>740.4</ele>
        <time>2019-08-15T06:35:55Z</time>
      </trkpt>
      <trkpt lat="41.5314590" lon="-5.0561460">
        <ele>740.6</ele>
        <time>2019-08-15T06:35:56Z</time>
      </trkpt>
      <trkpt lat="41.5314770" lon="-5.0561790">
        <ele>740.8</ele>
        <time>2019-08-15T06:35:57Z</time>
      </trkpt>
      <trkpt lat="41.5314950" lon="-5.0562120">
        <ele>741.0</ele>
        <time>2019-08-15T06:35:58Z</time>
      </trkpt>
      <trkpt lat="41.5315130" lon="-5.0562470">
        <ele>741.1</ele>
        <time>2019-08-15T06:35:59Z</time>
      </trkpt>
      <trkpt lat="41.5315320" lon="-5.0562820">
        <ele>741.2</ele>
        <time>2019-08-15T06:36:00Z</time>
      </trkpt>
      <trkpt lat="41.5315510" lon="-5.0563170">
        <ele>741.3</ele>
        <time>2019-08-15T06:36:01Z</time>
      </trkpt>
      <trkpt lat="41.5315700" lon="-5.0563510">
        <ele>741.4</ele>
        <time>2019-08-15T06:36:02Z</time>
      </trkpt>
      <trkpt lat="41.5315900" lon="-5.0563870">
        <ele>741.5</ele>
        <time>2019-08-15T06:36:03Z</time>
      </trkpt>
      <trkpt lat="41.5316100" lon="-5.0564230">
        <ele>741.6</ele>
        <time>2019-08-15T06:36:04Z</time>
      </trkpt>
      <trkpt lat="41.5316310" lon="-5.0564600">
        <ele>741.7</ele>
        <time>2019-08-15T06:36:05Z</time>
      </trkpt>
      <trkpt lat="41.5316520" lon="-5.0564970">
        <ele>741.8</ele>
        <time>2019-08-15T06:36:06Z</time>
      </trkpt>
      <trkpt lat="41.5316720" lon="-5.0565360">
        <ele>741.8</ele>
        <time>2019-08-15T06:36:07Z</time>
      </trkpt>
      <trkpt lat="41.5316940" lon="-5.0565730">
        <ele>741.7</ele>
        <time>2019-08-15T06:36:08Z</time>
      </trkpt>
      <trkpt lat="41.5317160" lon="-5.0566100">
        <ele>741.7</ele>
        <time>2019-08-15T06:36:09Z</time>
      </trkpt>
      <trkpt lat="41.5317390" lon="-5.0566480">
        <ele>741.8</ele>
        <time>2019-08-15T06:36:10Z</time>
      </trkpt>
      <trkpt lat="41.5317610" lon="-5.0566870">
        <ele>741.9</ele>
        <time>2019-08-15T06:36:11Z</time>
      </trkpt>
      <trkpt lat="41.5317830" lon="-5.0567260">
        <ele>741.9</ele>
        <time>2019-08-15T06:36:12Z</time>
      </trkpt>
      <trkpt lat="41.5318050" lon="-5.0567660">
        <ele>742.0</ele>
        <time>2019-08-15T06:36:13Z</time>
      </trkpt>
      <trkpt lat="41.5318280" lon="-5.0568050">
        <ele>742.0</ele>
        <time>2019-08-15T06:36:14Z</time>
      </trkpt>
      <trkpt lat="41.5318490" lon="-5.0568450">
        <ele>741.9</ele>
        <time>2019-08-15T06:36:15Z</time>
      </trkpt>
      <trkpt lat="41.5318710" lon="-5.0568850">
        <ele>741.9</ele>
        <time>2019-08-15T06:36:16Z</time>
      </trkpt>
      <trkpt lat="41.5318930" lon="-5.0569240">
        <ele>741.9</ele>
        <time>2019-08-15T06:36:17Z</time>
      </trkpt>
      <trkpt lat="41.5319150" lon="-5.0569640">
        <ele>742.0</ele>
        <time>2019-08-15T06:36:18Z</time>
      </trkpt>
      <trkpt lat="41.5319360" lon="-5.0570050">
        <ele>742.0</ele>
        <time>2019-08-15T06:36:19Z</time>
      </trkpt>
      <trkpt lat="41.5319590" lon="-5.0570450">
        <ele>742.0</ele>
        <time>2019-08-15T06:36:20Z</time>
      </trkpt>
      <trkpt lat="41.5319810" lon="-5.0570840">
        <ele>742.0</ele>
        <time>2019-08-15T06:36:21Z</time>
      </trkpt>
      <trkpt lat="41.5320030" lon="-5.0571240">
        <ele>742.0</ele>
        <time>2019-08-15T06:36:22Z</time>
      </trkpt>
      <trkpt lat="41.5320250" lon="-5.0571630">
        <ele>742.0</ele>
        <time>2019-08-15T06:36:23Z</time>
      </trkpt>
      <trkpt lat="41.5320480" lon="-5.0572040">
        <ele>742.0</ele>
        <time>2019-08-15T06:36:24Z</time>
      </trkpt>
      <trkpt lat="41.5320710" lon="-5.0572450">
        <ele>742.1</ele>
        <time>2019-08-15T06:36:25Z</time>
      </trkpt>
      <trkpt lat="41.5320940" lon="-5.0572870">
        <ele>742.1</ele>
        <time>2019-08-15T06:36:26Z</time>
      </trkpt>
      <trkpt lat="41.5321170" lon="-5.0573280">
        <ele>742.1</ele>
        <time>2019-08-15T06:36:27Z</time>
      </trkpt>
      <trkpt lat="41.5321410" lon="-5.0573690">
        <ele>742.1</ele>
        <time>2019-08-15T06:36:28Z</time>
      </trkpt>
      <trkpt lat="41.5321640" lon="-5.0574100">
        <ele>742.1</ele>
        <time>2019-08-15T06:36:29Z</time>
      </trkpt>
      <trkpt lat="41.5321870" lon="-5.0574530">
        <ele>742.1</ele>
        <time>2019-08-15T06:36:30Z</time>
      </trkpt>
      <trkpt lat="41.5322110" lon="-5.0574960">
        <ele>742.2</ele>
        <time>2019-08-15T06:36:31Z</time>
      </trkpt>
      <trkpt lat="41.5322350" lon="-5.0575390">
        <ele>742.4</ele>
        <time>2019-08-15T06:36:32Z</time>
      </trkpt>
      <trkpt lat="41.5322590" lon="-5.0575830">
        <ele>742.4</ele>
        <time>2019-08-15T06:36:33Z</time>
      </trkpt>
      <trkpt lat="41.5322850" lon="-5.0576280">
        <ele>742.5</ele>
        <time>2019-08-15T06:36:34Z</time>
      </trkpt>
      <trkpt lat="41.5323100" lon="-5.0576730">
        <ele>742.5</ele>
        <time>2019-08-15T06:36:35Z</time>
      </trkpt>
      <trkpt lat="41.5323350" lon="-5.0577180">
        <ele>742.7</ele>
        <time>2019-08-15T06:36:36Z</time>
      </trkpt>
      <trkpt lat="41.5323600" lon="-5.0577630">
        <ele>742.7</ele>
        <time>2019-08-15T06:36:37Z</time>
      </trkpt>
      <trkpt lat="41.5323860" lon="-5.0578090">
        <ele>742.8</ele>
        <time>2019-08-15T06:36:38Z</time>
      </trkpt>
      <trkpt lat="41.5324120" lon="-5.0578540">
        <ele>742.8</ele>
        <time>2019-08-15T06:36:39Z</time>
      </trkpt>
      <trkpt lat="41.5324360" lon="-5.0579000">
        <ele>742.9</ele>
        <time>2019-08-15T06:36:40Z</time>
      </trkpt>
      <trkpt lat="41.5324600" lon="-5.0579470">
        <ele>742.9</ele>
        <time>2019-08-15T06:36:41Z</time>
      </trkpt>
      <trkpt lat="41.5324840" lon="-5.0579930">
        <ele>743.1</ele>
        <time>2019-08-15T06:36:42Z</time>
      </trkpt>
      <trkpt lat="41.5325090" lon="-5.0580380">
        <ele>743.3</ele>
        <time>2019-08-15T06:36:43Z</time>
      </trkpt>
      <trkpt lat="41.5325360" lon="-5.0580820">
        <ele>743.5</ele>
        <time>2019-08-15T06:36:44Z</time>
      </trkpt>
      <trkpt lat="41.5325610" lon="-5.0581260">
        <ele>743.7</ele>
        <time>2019-08-15T06:36:45Z</time>
      </trkpt>
      <trkpt lat="41.5325860" lon="-5.0581700">
        <ele>743.8</ele>
        <time>2019-08-15T06:36:46Z</time>
      </trkpt>
      <trkpt lat="41.5326110" lon="-5.0582140">
        <ele>743.9</ele>
        <time>2019-08-15T06:36:47Z</time>
      </trkpt>
      <trkpt lat="41.5326360" lon="-5.0582600">
        <ele>744.0</ele>
        <time>2019-08-15T06:36:48Z</time>
      </trkpt>
      <trkpt lat="41.5326610" lon="-5.0583040">
        <ele>744.2</ele>
        <time>2019-08-15T06:36:49Z</time>
      </trkpt>
      <trkpt lat="41.5326870" lon="-5.0583470">
        <ele>744.4</ele>
        <time>2019-08-15T06:36:50Z</time>
      </trkpt>
      <trkpt lat="41.5327120" lon="-5.0583880">
        <ele>744.5</ele>
        <time>2019-08-15T06:36:51Z</time>
      </trkpt>
      <trkpt lat="41.5327370" lon="-5.0584310">
        <ele>744.7</ele>
        <time>2019-08-15T06:36:52Z</time>
      </trkpt>
      <trkpt lat="41.5327620" lon="-5.0584740">
        <ele>744.8</ele>
        <time>2019-08-15T06:36:53Z</time>
      </trkpt>
      <trkpt lat="41.5327860" lon="-5.0585180">
        <ele>744.9</ele>
        <time>2019-08-15T06:36:54Z</time>
      </trkpt>
      <trkpt lat="41.5328100" lon="-5.0585630">
        <ele>745.2</ele>
        <time>2019-08-15T06:36:55Z</time>
      </trkpt>
      <trkpt lat="41.5328350" lon="-5.0586080">
        <ele>745.4</ele>
        <time>2019-08-15T06:36:56Z</time>
      </trkpt>
      <trkpt lat="41.5328600" lon="-5.0586550">
        <ele>745.5</ele>
        <time>2019-08-15T06:36:57Z</time>
      </trkpt>
      <trkpt lat="41.5328840" lon="-5.0587010">
        <ele>745.7</ele>
        <time>2019-08-15T06:36:58Z</time>
      </trkpt>
      <trkpt lat="41.5329070" lon="-5.0587460">
        <ele>745.9</ele>
        <time>2019-08-15T06:36:59Z</time>
      </trkpt>
      <trkpt lat="41.5329310" lon="-5.0587920">
        <ele>746.1</ele>
        <time>2019-08-15T06:37:00Z</time>
      </trkpt>
      <trkpt lat="41.5329530" lon="-5.0588400">
        <ele>746.3</ele>
        <time>2019-08-15T06:37:01Z</time>
      </trkpt>
      <trkpt lat="41.5329740" lon="-5.0588880">
        <ele>746.4</ele>
        <time>2019-08-15T06:37:02Z</time>
      </trkpt>
      <trkpt lat="41.5329920" lon="-5.0589380">
        <ele>746.5</ele>
        <time>2019-08-15T06:37:03Z</time>
      </trkpt>
      <trkpt lat="41.5330060" lon="-5.0589930">
        <ele>746.6</ele>
        <time>2019-08-15T06:37:04Z</time>
      </trkpt>
      <trkpt lat="41.5330150" lon="-5.0590500">
        <ele>746.5</ele>
        <time>2019-08-15T06:37:05Z</time>
      </trkpt>
      <trkpt lat="41.5330190" lon="-5.0591100">
        <ele>746.3</ele>
        <time>2019-08-15T06:37:06Z</time>
      </trkpt>
      <trkpt lat="41.5330140" lon="-5.0591720">
        <ele>746.2</ele>
        <time>2019-08-15T06:37:07Z</time>
      </trkpt>
      <trkpt lat="41.5330010" lon="-5.0592360">
        <ele>746.1</ele>
        <time>2019-08-15T06:37:08Z</time>
      </trkpt>
      <trkpt lat="41.5329830" lon="-5.0592960">
        <ele>746.0</ele>
        <time>2019-08-15T06:37:09Z</time>
      </trkpt>
      <trkpt lat="41.5329590" lon="-5.0593520">
        <ele>745.9</ele>
        <time>2019-08-15T06:37:10Z</time>
      </trkpt>
      <trkpt lat="41.5329320" lon="-5.0594070">
        <ele>745.8</ele>
        <time>2019-08-15T06:37:11Z</time>
      </trkpt>
      <trkpt lat="41.5329040" lon="-5.0594620">
        <ele>745.7</ele>
        <time>2019-08-15T06:37:12Z</time>
      </trkpt>
      <trkpt lat="41.5328760" lon="-5.0595180">
        <ele>745.5</ele>
        <time>2019-08-15T06:37:13Z</time>
      </trkpt>
      <trkpt lat="41.5328510" lon="-5.0595770">
        <ele>745.3</ele>
        <time>2019-08-15T06:37:14Z</time>
      </trkpt>
      <trkpt lat="41.5328260" lon="-5.0596400">
        <ele>745.2</ele>
        <time>2019-08-15T06:37:15Z</time>
      </trkpt>
      <trkpt lat="41.5328040" lon="-5.0597040">
        <ele>745.0</ele>
        <time>2019-08-15T06:37:16Z</time>
      </trkpt>
      <trkpt lat="41.5327840" lon="-5.0597720">
        <ele>744.8</ele>
        <time>2019-08-15T06:37:17Z</time>
      </trkpt>
      <trkpt lat="41.5327700" lon="-5.0598440">
        <ele>744.6</ele>
        <time>2019-08-15T06:37:18Z</time>
      </trkpt>
      <trkpt lat="41.5327590" lon="-5.0599160">
        <ele>744.4</ele>
        <time>2019-08-15T06:37:19Z</time>
      </trkpt>
      <trkpt lat="41.5327540" lon="-5.0599940">
        <ele>744.2</ele>
        <time>2019-08-15T06:37:20Z</time>
      </trkpt>
      <trkpt lat="41.5327540" lon="-5.0600710">
        <ele>744.0</ele>
        <time>2019-08-15T06:37:21Z</time>
      </trkpt>
      <trkpt lat="41.5327590" lon="-5.0601490">
        <ele>743.8</ele>
        <time>2019-08-15T06:37:22Z</time>
      </trkpt>
      <trkpt lat="41.5327680" lon="-5.0602250">
        <ele>743.7</ele>
        <time>2019-08-15T06:37:23Z</time>
      </trkpt>
      <trkpt lat="41.5327840" lon="-5.0603010">
        <ele>743.6</ele>
        <time>2019-08-15T06:37:24Z</time>
      </trkpt>
      <trkpt lat="41.5328060" lon="-5.0603730">
        <ele>743.5</ele>
        <time>2019-08-15T06:37:25Z</time>
      </trkpt>
      <trkpt lat="41.5328330" lon="-5.0604410">
        <ele>743.5</ele>
        <time>2019-08-15T06:37:26Z</time>
      </trkpt>
      <trkpt lat="41.5328660" lon="-5.0605030">
        <ele>743.5</ele>
        <time>2019-08-15T06:37:27Z</time>
      </trkpt>
      <trkpt lat="41.5328990" lon="-5.0605630">
        <ele>743.4</ele>
        <time>2019-08-15T06:37:28Z</time>
      </trkpt>
      <trkpt lat="41.5329340" lon="-5.0606210">
        <ele>743.3</ele>
        <time>2019-08-15T06:37:29Z</time>
      </trkpt>
      <trkpt lat="41.5329670" lon="-5.0606790">
        <ele>743.2</ele>
        <time>2019-08-15T06:37:30Z</time>
      </trkpt>
      <trkpt lat="41.5329980" lon="-5.0607360">
        <ele>743.1</ele>
        <time>2019-08-15T06:37:31Z</time>
      </trkpt>
      <trkpt lat="41.5330260" lon="-5.0607950">
        <ele>743.0</ele>
        <time>2019-08-15T06:37:32Z</time>
      </trkpt>
      <trkpt lat="41.5330510" lon="-5.0608550">
        <ele>742.9</ele>
        <time>2019-08-15T06:37:33Z</time>
      </trkpt>
      <trkpt lat="41.5330760" lon="-5.0609140">
        <ele>742.7</ele>
        <time>2019-08-15T06:37:34Z</time>
      </trkpt>
      <trkpt lat="41.5330960" lon="-5.0609690">
        <ele>742.4</ele>
        <time>2019-08-15T06:37:35Z</time>
      </trkpt>
      <trkpt lat="41.5331160" lon="-5.0610150">
        <ele>742.2</ele>
        <time>2019-08-15T06:37:36Z</time>
      </trkpt>
      <trkpt lat="41.5331360" lon="-5.0610500">
        <ele>742.1</ele>
        <time>2019-08-15T06:37:37Z</time>
      </trkpt>
      <trkpt lat="41.5331550" lon="-5.0610770">
        <ele>742.0</ele>
        <time>2019-08-15T06:37:38Z</time>
      </trkpt>
      <trkpt lat="41.5331750" lon="-5.0610930">
        <ele>741.9</ele>
        <time>2019-08-15T06:37:39Z</time>
      </trkpt>
      <trkpt lat="41.5332190" lon="-5.0611080">
        <ele>742.1</ele>
        <time>2019-08-15T06:37:41Z</time>
      </trkpt>
      <trkpt lat="41.5332610" lon="-5.0610890">
        <ele>742.2</ele>
        <time>2019-08-15T06:37:43Z</time>
      </trkpt>
      <trkpt lat="41.5333010" lon="-5.0610380">
        <ele>742.4</ele>
        <time>2019-08-15T06:37:45Z</time>
      </trkpt>
      <trkpt lat="41.5333150" lon="-5.0610030">
        <ele>742.4</ele>
        <time>2019-08-15T06:37:46Z</time>
      </trkpt>
      <trkpt lat="41.5333230" lon="-5.0609660">
        <ele>742.5</ele>
        <time>2019-08-15T06:37:47Z</time>
      </trkpt>
      <trkpt lat="41.5333250" lon="-5.0609260">
        <ele>742.5</ele>
        <time>2019-08-15T06:37:48Z</time>
      </trkpt>
      <trkpt lat="41.5333250" lon="-5.0608850">
        <ele>742.6</ele>
        <time>2019-08-15T06:37:49Z</time>
      </trkpt>
      <trkpt lat="41.5333240" lon="-5.0608410">
        <ele>742.7</ele>
        <time>2019-08-15T06:37:50Z</time>
      </trkpt>
      <trkpt lat="41.5333240" lon="-5.0607930">
        <ele>742.7</ele>
        <time>2019-08-15T06:37:51Z</time>
      </trkpt>
      <trkpt lat="41.5333250" lon="-5.0607430">
        <ele>742.8</ele>
        <time>2019-08-15T06:37:52Z</time>
      </trkpt>
      <trkpt lat="41.5333250" lon="-5.0606900">
        <ele>742.9</ele>
        <time>2019-08-15T06:37:53Z</time>
      </trkpt>
      <trkpt lat="41.5333240" lon="-5.0606360">
        <ele>743.0</ele>
        <time>2019-08-15T06:37:54Z</time>
      </trkpt>
      <trkpt lat="41.5333230" lon="-5.0605810">
        <ele>743.0</ele>
        <time>2019-08-15T06:37:55Z</time>
      </trkpt>
      <trkpt lat="41.5333190" lon="-5.0605250">
        <ele>743.1</ele>
        <time>2019-08-15T06:37:56Z</time>
      </trkpt>
      <trkpt lat="41.5333150" lon="-5.0604690">
        <ele>743.2</ele>
        <time>2019-08-15T06:37:57Z</time>
      </trkpt>
      <trkpt lat="41.5333100" lon="-5.0604140">
        <ele>743.3</ele>
        <time>2019-08-15T06:37:58Z</time>
      </trkpt>
      <trkpt lat="41.5333060" lon="-5.0603570">
        <ele>743.4</ele>
        <time>2019-08-15T06:37:59Z</time>
      </trkpt>
      <trkpt lat="41.5333020" lon="-5.0603010">
        <ele>743.4</ele>
        <time>2019-08-15T06:38:00Z</time>
      </trkpt>
      <trkpt lat="41.5332990" lon="-5.0602450">
        <ele>743.5</ele>
        <time>2019-08-15T06:38:01Z</time>
      </trkpt>
      <trkpt lat="41.5332980" lon="-5.0601890">
        <ele>743.6</ele>
        <time>2019-08-15T06:38:02Z</time>
      </trkpt>
      <trkpt lat="41.5332980" lon="-5.0601310">
        <ele>743.7</ele>
        <time>2019-08-15T06:38:03Z</time>
      </trkpt>
      <trkpt lat="41.5333000" lon="-5.0600740">
        <ele>743.8</ele>
        <time>2019-08-15T06:38:04Z</time>
      </trkpt>
      <trkpt lat="41.5333020" lon="-5.0600180">
        <ele>743.9</ele>
        <time>2019-08-15T06:38:05Z</time>
      </trkpt>
      <trkpt lat="41.5333050" lon="-5.0599620">
        <ele>743.9</ele>
        <time>2019-08-15T06:38:06Z</time>
      </trkpt>
      <trkpt lat="41.5333110" lon="-5.0599080">
        <ele>744.0</ele>
        <time>2019-08-15T06:38:07Z</time>
      </trkpt>
      <trkpt lat="41.5333200" lon="-5.0598570">
        <ele>744.1</ele>
        <time>2019-08-15T06:38:08Z</time>
      </trkpt>
      <trkpt lat="41.5333340" lon="-5.0598140">
        <ele>744.2</ele>
        <time>2019-08-15T06:38:09Z</time>
      </trkpt>
      <trkpt lat="41.5333480" lon="-5.0597760">
        <ele>744.2</ele>
        <time>2019-08-15T06:38:10Z</time>
      </trkpt>
      <trkpt lat="41.5333650" lon="-5.0597430">
        <ele>744.3</ele>
        <time>2019-08-15T06:38:11Z</time>
      </trkpt>
      <trkpt lat="41.5333850" lon="-5.0597200">
        <ele>744.3</ele>
        <time>2019-08-15T06:38:12Z</time>
      </trkpt>
      <trkpt lat="41.5334360" lon="-5.0597170">
        <ele>744.3</ele>
        <time>2019-08-15T06:38:14Z</time>
      </trkpt>
      <trkpt lat="41.5334860" lon="-5.0597690">
        <ele>744.4</ele>
        <time>2019-08-15T06:38:16Z</time>
      </trkpt>
      <trkpt lat="41.5335090" lon="-5.0598080">
        <ele>744.5</ele>
        <time>2019-08-15T06:38:17Z</time>
      </trkpt>
      <trkpt lat="41.5335310" lon="-5.0598520">
        <ele>744.5</ele>
        <time>2019-08-15T06:38:18Z</time>
      </trkpt>
      <trkpt lat="41.5335540" lon="-5.0598940">
        <ele>744.6</ele>
        <time>2019-08-15T06:38:19Z</time>
      </trkpt>
      <trkpt lat="41.5335780" lon="-5.0599380">
        <ele>744.6</ele>
        <time>2019-08-15T06:38:20Z</time>
      </trkpt>
      <trkpt lat="41.5336020" lon="-5.0599850">
        <ele>744.6</ele>
        <time>2019-08-15T06:38:21Z</time>
      </trkpt>
      <trkpt lat="41.5336260" lon="-5.0600310">
        <ele>744.6</ele>
        <time>2019-08-15T06:38:22Z</time>
      </trkpt>
      <trkpt lat="41.5336520" lon="-5.0600780">
        <ele>744.6</ele>
        <time>2019-08-15T06:38:23Z</time>
      </trkpt>
      <trkpt lat="41.5336780" lon="-5.0601250">
        <ele>744.6</ele>
        <time>2019-08-15T06:38:24Z</time>
      </trkpt>
      <trkpt lat="41.5337050" lon="-5.0601740">
        <ele>744.7</ele>
        <time>2019-08-15T06:38:25Z</time>
      </trkpt>
      <trkpt lat="41.5337310" lon="-5.0602230">
        <ele>744.6</ele>
        <time>2019-08-15T06:38:26Z</time>
      </trkpt>
      <trkpt lat="41.5337570" lon="-5.0602740">
        <ele>744.6</ele>
        <time>2019-08-15T06:38:27Z</time>
      </trkpt>
      <trkpt lat="41.5337820" lon="-5.0603250">
        <ele>744.6</ele>
        <time>2019-08-15T06:38:28Z</time>
      </trkpt>
      <trkpt lat="41.5338090" lon="-5.0603750">
        <ele>744.6</ele>
        <time>2019-08-15T06:38:29Z</time>
      </trkpt>
      <trkpt lat="41.5338350" lon="-5.0604250">
        <ele>744.5</ele>
        <time>2019-08-15T06:38:30Z</time>
      </trkpt>
      <trkpt lat="41.5338620" lon="-5.0604760">
        <ele>744.5</ele>
        <time>2019-08-15T06:38:31Z</time>
      </trkpt>
      <trkpt lat="41.5338900" lon="-5.0605280">
        <ele>744.4</ele>
        <time>2019-08-15T06:38:32Z</time>
      </trkpt>
      <trkpt lat="41.5339180" lon="-5.0605810">
        <ele>744.4</ele>
        <time>2019-08-15T06:38:33Z</time>
      </trkpt>
      <trkpt lat="41.5339470" lon="-5.0606340">
        <ele>744.3</ele>
        <time>2019-08-15T06:38:34Z</time>
      </trkpt>
      <trkpt lat="41.5339750" lon="-5.0606880">
        <ele>744.2</ele>
        <time>2019-08-15T06:38:35Z</time>
      </trkpt>
      <trkpt lat="41.5340040" lon="-5.0607430">
        <ele>744.1</ele>
        <time>2019-08-15T06:38:36Z</time>
      </trkpt>
      <trkpt lat="41.5340320" lon="-5.0607970">
        <ele>744.1</ele>
        <time>2019-08-15T06:38:37Z</time>
      </trkpt>
      <trkpt lat="41.5340590" lon="-5.0608500">
        <ele>744.0</ele>
        <time>2019-08-15T06:38:38Z</time>
      </trkpt>
      <trkpt lat="41.5340870" lon="-5.0609050">
        <ele>743.9</ele>
        <time>2019-08-15T06:38:39Z</time>
      </trkpt>
      <trkpt lat="41.5341170" lon="-5.0609600">
        <ele>743.8</ele>
        <time>2019-08-15T06:38:40Z</time>
      </trkpt>
      <trkpt lat="41.5341480" lon="-5.0610140">
        <ele>743.7</ele>
        <time>2019-08-15T06:38:41Z</time>
      </trkpt>
      <trkpt lat="41.5341790" lon="-5.0610690">
        <ele>743.6</ele>
        <time>2019-08-15T06:38:42Z</time>
      </trkpt>
      <trkpt lat="41.5342110" lon="-5.0611240">
        <ele>743.5</ele>
        <time>2019-08-15T06:38:43Z</time>
      </trkpt>
      <trkpt lat="41.5342440" lon="-5.0611810">
        <ele>743.5</ele>
        <time>2019-08-15T06:38:44Z</time>
      </trkpt>
      <trkpt lat="41.5342770" lon="-5.0612380">
        <ele>743.4</ele>
        <time>2019-08-15T06:38:45Z</time>
      </trkpt>
      <trkpt lat="41.5343110" lon="-5.0612970">
        <ele>743.3</ele>
        <time>2019-08-15T06:38:46Z</time>
      </trkpt>
      <trkpt lat="41.5343430" lon="-5.0613560">
        <ele>743.2</ele>
        <time>2019-08-15T06:38:47Z</time>
      </trkpt>
      <trkpt lat="41.5343750" lon="-5.0614160">
        <ele>743.1</ele>
        <time>2019-08-15T06:38:48Z</time>
      </trkpt>
      <trkpt lat="41.5344070" lon="-5.0614740">
        <ele>743.0</ele>
        <time>2019-08-15T06:38:49Z</time>
      </trkpt>
      <trkpt lat="41.5344370" lon="-5.0615310">
        <ele>743.0</ele>
        <time>2019-08-15T06:38:50Z</time>
      </trkpt>
      <trkpt lat="41.5344660" lon="-5.0615890">
        <ele>742.9</ele>
        <time>2019-08-15T06:38:51Z</time>
      </trkpt>
      <trkpt lat="41.5344950" lon="-5.0616460">
        <ele>742.8</ele>
        <time>2019-08-15T06:38:52Z</time>
      </trkpt>
      <trkpt lat="41.5345260" lon="-5.0617050">
        <ele>742.8</ele>
        <time>2019-08-15T06:38:53Z</time>
      </trkpt>
      <trkpt lat="41.5345570" lon="-5.0617640">
        <ele>742.7</ele>
        <time>2019-08-15T06:38:54Z</time>
      </trkpt>
      <trkpt lat="41.5345880" lon="-5.0618240">
        <ele>742.7</ele>
        <time>2019-08-15T06:38:55Z</time>
      </trkpt>
      <trkpt lat="41.5346200" lon="-5.0618820">
        <ele>742.7</ele>
        <time>2019-08-15T06:38:56Z</time>
      </trkpt>
      <trkpt lat="41.5346530" lon="-5.0619400">
        <ele>742.7</ele>
        <time>2019-08-15T06:38:57Z</time>
      </trkpt>
      <trkpt lat="41.5346840" lon="-5.0620010">
        <ele>742.7</ele>
        <time>2019-08-15T06:38:58Z</time>
      </trkpt>
      <trkpt lat="41.5347170" lon="-5.0620650">
        <ele>742.6</ele>
        <time>2019-08-15T06:38:59Z</time>
      </trkpt>
      <trkpt lat="41.5347500" lon="-5.0621280">
        <ele>742.6</ele>
        <time>2019-08-15T06:39:00Z</time>
      </trkpt>
      <trkpt lat="41.5347840" lon="-5.0621900">
        <ele>742.7</ele>
        <time>2019-08-15T06:39:01Z</time>
      </trkpt>
      <trkpt lat="41.5348180" lon="-5.0622540">
        <ele>742.7</ele>
        <time>2019-08-15T06:39:02Z</time>
      </trkpt>
      <trkpt lat="41.5348490" lon="-5.0623140">
        <ele>742.7</ele>
        <time>2019-08-15T06:39:03Z</time>
      </trkpt>
      <trkpt lat="41.5348800" lon="-5.0623680">
        <ele>742.8</ele>
        <time>2019-08-15T06:39:04Z</time>
      </trkpt>
      <trkpt lat="41.5349070" lon="-5.0624170">
        <ele>742.8</ele>
        <time>2019-08-15T06:39:05Z</time>
      </trkpt>
      <trkpt lat="41.5349330" lon="-5.0624650">
        <ele>742.8</ele>
        <time>2019-08-15T06:39:06Z</time>
      </trkpt>
      <trkpt lat="41.5349590" lon="-5.0625110">
        <ele>742.8</ele>
        <time>2019-08-15T06:39:07Z</time>
      </trkpt>
      <trkpt lat="41.5349850" lon="-5.0625580">
        <ele>742.8</ele>
        <time>2019-08-15T06:39:08Z</time>
      </trkpt>
      <trkpt lat="41.5350120" lon="-5.0626050">
        <ele>742.9</ele>
        <time>2019-08-15T06:39:09Z</time>
      </trkpt>
      <trkpt lat="41.5350400" lon="-5.0626580">
        <ele>742.9</ele>
        <time>2019-08-15T06:39:10Z</time>
      </trkpt>
      <trkpt lat="41.5350700" lon="-5.0627170">
        <ele>742.9</ele>
        <time>2019-08-15T06:39:11Z</time>
      </trkpt>
      <trkpt lat="41.5351040" lon="-5.0627820">
        <ele>743.0</ele>
        <time>2019-08-15T06:39:12Z</time>
      </trkpt>
      <trkpt lat="41.5351380" lon="-5.0628430">
        <ele>743.0</ele>
        <time>2019-08-15T06:39:13Z</time>
      </trkpt>
      <trkpt lat="41.5351690" lon="-5.0629000">
        <ele>743.1</ele>
        <time>2019-08-15T06:39:14Z</time>
      </trkpt>
      <trkpt lat="41.5351980" lon="-5.0629540">
        <ele>743.1</ele>
        <time>2019-08-15T06:39:15Z</time>
      </trkpt>
      <trkpt lat="41.5352270" lon="-5.0630060">
        <ele>743.2</ele>
        <time>2019-08-15T06:39:16Z</time>
      </trkpt>
      <trkpt lat="41.5352580" lon="-5.0630570">
        <ele>743.2</ele>
        <time>2019-08-15T06:39:17Z</time>
      </trkpt>
      <trkpt lat="41.5352890" lon="-5.0631090">
        <ele>743.3</ele>
        <time>2019-08-15T06:39:18Z</time>
      </trkpt>
      <trkpt lat="41.5353190" lon="-5.0631590">
        <ele>743.4</ele>
        <time>2019-08-15T06:39:19Z</time>
      </trkpt>
      <trkpt lat="41.5353500" lon="-5.0632090">
        <ele>743.5</ele>
        <time>2019-08-15T06:39:20Z</time>
      </trkpt>
      <trkpt lat="41.5353800" lon="-5.0632570">
        <ele>743.6</ele>
        <time>2019-08-15T06:39:21Z</time>
      </trkpt>
      <trkpt lat="41.5354090" lon="-5.0633020">
        <ele>743.6</ele>
        <time>2019-08-15T06:39:22Z</time>
      </trkpt>
      <trkpt lat="41.5354350" lon="-5.0633420">
        <ele>743.7</ele>
        <time>2019-08-15T06:39:23Z</time>
      </trkpt>
      <trkpt lat="41.5354590" lon="-5.0633820">
        <ele>743.8</ele>
        <time>2019-08-15T06:39:24Z</time>
      </trkpt>
      <trkpt lat="41.5354850" lon="-5.0634250">
        <ele>743.9</ele>
        <time>2019-08-15T06:39:25Z</time>
      </trkpt>
      <trkpt lat="41.5355110" lon="-5.0634660">
        <ele>744.0</ele>
        <time>2019-08-15T06:39:26Z</time>
      </trkpt>
      <trkpt lat="41.5355370" lon="-5.0635060">
        <ele>744.1</ele>
        <time>2019-08-15T06:39:27Z</time>
      </trkpt>
      <trkpt lat="41.5355620" lon="-5.0635470">
        <ele>744.2</ele>
        <time>2019-08-15T06:39:28Z</time>
      </trkpt>
      <trkpt lat="41.5355870" lon="-5.0635870">
        <ele>744.3</ele>
        <time>2019-08-15T06:39:29Z</time>
      </trkpt>
      <trkpt lat="41.5356110" lon="-5.0636280">
        <ele>744.4</ele>
        <time>2019-08-15T06:39:30Z</time>
      </trkpt>
      <trkpt lat="41.5356350" lon="-5.0636710">
        <ele>744.5</ele>
        <time>2019-08-15T06:39:31Z</time>
      </trkpt>
      <trkpt lat="41.5356610" lon="-5.0637130">
        <ele>744.6</ele>
        <time>2019-08-15T06:39:32Z</time>
      </trkpt>
      <trkpt lat="41.5356860" lon="-5.0637550">
        <ele>744.7</ele>
        <time>2019-08-15T06:39:33Z</time>
      </trkpt>
      <trkpt lat="41.5357110" lon="-5.0637970">
        <ele>744.9</ele>
        <time>2019-08-15T06:39:34Z</time>
      </trkpt>
      <trkpt lat="41.5357360" lon="-5.0638390">
        <ele>745.0</ele>
        <time>2019-08-15T06:39:35Z</time>
      </trkpt>
      <trkpt lat="41.5357610" lon="-5.0638830">
        <ele>745.1</ele>
        <time>2019-08-15T06:39:36Z</time>
      </trkpt>
      <trkpt lat="41.5357860" lon="-5.0639270">
        <ele>745.3</ele>
        <time>2019-08-15T06:39:37Z</time>
      </trkpt>
      <trkpt lat="41.5358120" lon="-5.0639710">
        <ele>745.4</ele>
        <time>2019-08-15T06:39:38Z</time>
      </trkpt>
      <trkpt lat="41.5358380" lon="-5.0640180">
        <ele>745.6</ele>
        <time>2019-08-15T06:39:39Z</time>
      </trkpt>
      <trkpt lat="41.5358650" lon="-5.0640660">
        <ele>745.8</ele>
        <time>2019-08-15T06:39:40Z</time>
      </trkpt>
      <trkpt lat="41.5358930" lon="-5.0641120">
        <ele>745.9</ele>
        <time>2019-08-15T06:39:41Z</time>
      </trkpt>
      <trkpt lat="41.5359210" lon="-5.0641570">
        <ele>746.1</ele>
        <time>2019-08-15T06:39:42Z</time>
      </trkpt>
      <trkpt lat="41.5359500" lon="-5.0641980">
        <ele>746.1</ele>
        <time>2019-08-15T06:39:43Z</time>
      </trkpt>
      <trkpt lat="41.5359800" lon="-5.0642350">
        <ele>746.2</ele>
        <time>2019-08-15T06:39:44Z</time>
      </trkpt>
      <trkpt lat="41.5360090" lon="-5.0642700">
        <ele>746.2</ele>
        <time>2019-08-15T06:39:45Z</time>
      </trkpt>
      <trkpt lat="41.5360400" lon="-5.0643030">
        <ele>746.3</ele>
        <time>2019-08-15T06:39:46Z</time>
      </trkpt>
      <trkpt lat="41.5360710" lon="-5.0643350">
        <ele>746.3</ele>
        <time>2019-08-15T06:39:47Z</time>
      </trkpt>
      <trkpt lat="41.5361010" lon="-5.0643680">
        <ele>746.4</ele>
        <time>2019-08-15T06:39:48Z</time>
      </trkpt>
      <trkpt lat="41.5361290" lon="-5.0644050">
        <ele>746.4</ele>
        <time>2019-08-15T06:39:49Z</time>
      </trkpt>
      <trkpt lat="41.5361580" lon="-5.0644410">
        <ele>746.5</ele>
        <time>2019-08-15T06:39:50Z</time>
      </trkpt>
      <trkpt lat="41.5361870" lon="-5.0644790">
        <ele>746.5</ele>
        <time>2019-08-15T06:39:51Z</time>
      </trkpt>
      <trkpt lat="41.5362150" lon="-5.0645190">
        <ele>746.6</ele>
        <time>2019-08-15T06:39:52Z</time>
      </trkpt>
      <trkpt lat="41.5362440" lon="-5.0645580">
        <ele>746.6</ele>
        <time>2019-08-15T06:39:53Z</time>
      </trkpt>
      <trkpt lat="41.5362730" lon="-5.0645990">
        <ele>746.7</ele>
        <time>2019-08-15T06:39:54Z</time>
      </trkpt>
      <trkpt lat="41.5363020" lon="-5.0646420">
        <ele>746.7</ele>
        <time>2019-08-15T06:39:55Z</time>
      </trkpt>
      <trkpt lat="41.5363330" lon="-5.0646840">
        <ele>746.8</ele>
        <time>2019-08-15T06:39:56Z</time>
      </trkpt>
      <trkpt lat="41.5363650" lon="-5.0647260">
        <ele>746.9</ele>
        <time>2019-08-15T06:39:57Z</time>
      </trkpt>
      <trkpt lat="41.5363960" lon="-5.0647650">
        <ele>746.9</ele>
        <time>2019-08-15T06:39:58Z</time>
      </trkpt>
      <trkpt lat="41.5364280" lon="-5.0648070">
        <ele>747.0</ele>
        <time>2019-08-15T06:39:59Z</time>
      </trkpt>
      <trkpt lat="41.5364580" lon="-5.0648510">
        <ele>747.0</ele>
        <time>2019-08-15T06:40:00Z</time>
      </trkpt>
      <trkpt lat="41.5364890" lon="-5.0648940">
        <ele>747.1</ele>
        <time>2019-08-15T06:40:01Z</time>
      </trkpt>
      <trkpt lat="41.5365220" lon="-5.0649340">
        <ele>747.1</ele>
        <time>2019-08-15T06:40:02Z</time>
      </trkpt>
      <trkpt lat="41.5365540" lon="-5.0649760">
        <ele>747.2</ele>
        <time>2019-08-15T06:40:03Z</time>
      </trkpt>
      <trkpt lat="41.5365870" lon="-5.0650180">
        <ele>747.2</ele>
        <time>2019-08-15T06:40:04Z</time>
      </trkpt>
      <trkpt lat="41.5366210" lon="-5.0650580">
        <ele>747.3</ele>
        <time>2019-08-15T06:40:05Z</time>
      </trkpt>
      <trkpt lat="41.5366550" lon="-5.0650990">
        <ele>747.4</ele>
        <time>2019-08-15T06:40:06Z</time>
      </trkpt>
      <trkpt lat="41.5366890" lon="-5.0651410">
        <ele>747.4</ele>
        <time>2019-08-15T06:40:07Z</time>
      </trkpt>
      <trkpt lat="41.5367220" lon="-5.0651810">
        <ele>747.4</ele>
        <time>2019-08-15T06:40:08Z</time>
      </trkpt>
      <trkpt lat="41.5367540" lon="-5.0652190">
        <ele>747.5</ele>
        <time>2019-08-15T06:40:09Z</time>
      </trkpt>
      <trkpt lat="41.5367860" lon="-5.0652580">
        <ele>747.5</ele>
        <time>2019-08-15T06:40:10Z</time>
      </trkpt>
      <trkpt lat="41.5368200" lon="-5.0652970">
        <ele>747.5</ele>
        <time>2019-08-15T06:40:11Z</time>
      </trkpt>
      <trkpt lat="41.5368540" lon="-5.0653370">
        <ele>747.5</ele>
        <time>2019-08-15T06:40:12Z</time>
      </trkpt>
      <trkpt lat="41.5368890" lon="-5.0653790">
        <ele>747.6</ele>
        <time>2019-08-15T06:40:13Z</time>
      </trkpt>
      <trkpt lat="41.5369240" lon="-5.0654200">
        <ele>747.6</ele>
        <time>2019-08-15T06:40:14Z</time>
      </trkpt>
      <trkpt lat="41.5369610" lon="-5.0654620">
        <ele>747.6</ele>
        <time>2019-08-15T06:40:15Z</time>
      </trkpt>
      <trkpt lat="41.5369960" lon="-5.0655050">
        <ele>747.6</ele>
        <time>2019-08-15T06:40:16Z</time>
      </trkpt>
      <trkpt lat="41.5370320" lon="-5.0655470">
        <ele>747.6</ele>
        <time>2019-08-15T06:40:17Z</time>
      </trkpt>
      <trkpt lat="41.5370670" lon="-5.0655890">
        <ele>747.6</ele>
        <time>2019-08-15T06:40:18Z</time>
      </trkpt>
      <trkpt lat="41.5371030" lon="-5.0656310">
        <ele>747.6</ele>
        <time>2019-08-15T06:40:19Z</time>
      </trkpt>
      <trkpt lat="41.5371380" lon="-5.0656730">
        <ele>747.5</ele>
        <time>2019-08-15T06:40:20Z</time>
      </trkpt>
      <trkpt lat="41.5371740" lon="-5.0657170">
        <ele>747.5</ele>
        <time>2019-08-15T06:40:21Z</time>
      </trkpt>
      <trkpt lat="41.5372120" lon="-5.0657600">
        <ele>747.5</ele>
        <time>2019-08-15T06:40:22Z</time>
      </trkpt>
      <trkpt lat="41.5372520" lon="-5.0658020">
        <ele>747.5</ele>
        <time>2019-08-15T06:40:23Z</time>
      </trkpt>
      <trkpt lat="41.5372930" lon="-5.0658440">
        <ele>747.5</ele>
        <time>2019-08-15T06:40:24Z</time>
      </trkpt>
      <trkpt lat="41.5373330" lon="-5.0658860">
        <ele>747.4</ele>
        <time>2019-08-15T06:40:25Z</time>
      </trkpt>
      <trkpt lat="41.5373740" lon="-5.0659290">
        <ele>747.4</ele>
        <time>2019-08-15T06:40:26Z</time>
      </trkpt>
      <trkpt lat="41.5374150" lon="-5.0659700">
        <ele>747.3</ele>
        <time>2019-08-15T06:40:27Z</time>
      </trkpt>
      <trkpt lat="41.5374570" lon="-5.0660110">
        <ele>747.3</ele>
        <time>2019-08-15T06:40:28Z</time>
      </trkpt>
      <trkpt lat="41.5375000" lon="-5.0660520">
        <ele>747.2</ele>
        <time>2019-08-15T06:40:29Z</time>
      </trkpt>
      <trkpt lat="41.5375450" lon="-5.0660930">
        <ele>747.1</ele>
        <time>2019-08-15T06:40:30Z</time>
      </trkpt>
      <trkpt lat="41.5375900" lon="-5.0661340">
        <ele>747.1</ele>
        <time>2019-08-15T06:40:31Z</time>
      </trkpt>
      <trkpt lat="41.5376370" lon="-5.0661750">
        <ele>747.0</ele>
        <time>2019-08-15T06:40:32Z</time>
      </trkpt>
      <trkpt lat="41.5376850" lon="-5.0662160">
        <ele>746.9</ele>
        <time>2019-08-15T06:40:33Z</time>
      </trkpt>
      <trkpt lat="41.5377330" lon="-5.0662570">
        <ele>746.9</ele>
        <time>2019-08-15T06:40:34Z</time>
      </trkpt>
      <trkpt lat="41.5377810" lon="-5.0663000">
        <ele>746.8</ele>
        <time>2019-08-15T06:40:35Z</time>
      </trkpt>
      <trkpt lat="41.5378290" lon="-5.0663440">
        <ele>746.7</ele>
        <time>2019-08-15T06:40:36Z</time>
      </trkpt>
      <trkpt lat="41.5378790" lon="-5.0663890">
        <ele>746.6</ele>
        <time>2019-08-15T06:40:37Z</time>
      </trkpt>
      <trkpt lat="41.5379290" lon="-5.0664340">
        <ele>746.6</ele>
        <time>2019-08-15T06:40:38Z</time>
      </trkpt>
      <trkpt lat="41.5379800" lon="-5.0664780">
        <ele>746.5</ele>
        <time>2019-08-15T06:40:39Z</time>
      </trkpt>
      <trkpt lat="41.5380310" lon="-5.0665230">
        <ele>746.4</ele>
        <time>2019-08-15T06:40:40Z</time>
      </trkpt>
      <trkpt lat="41.5380820" lon="-5.0665690">
        <ele>746.4</ele>
        <time>2019-08-15T06:40:41Z</time>
      </trkpt>
      <trkpt lat="41.5381320" lon="-5.0666120">
        <ele>746.3</ele>
        <time>2019-08-15T06:40:42Z</time>
      </trkpt>
      <trkpt lat="41.5381820" lon="-5.0666560">
        <ele>746.3</ele>
        <time>2019-08-15T06:40:43Z</time>
      </trkpt>
      <trkpt lat="41.5382340" lon="-5.0667000">
        <ele>746.2</ele>
        <time>2019-08-15T06:40:44Z</time>
      </trkpt>
      <trkpt lat="41.5382850" lon="-5.0667450">
        <ele>746.2</ele>
        <time>2019-08-15T06:40:45Z</time>
      </trkpt>
      <trkpt lat="41.5383370" lon="-5.0667900">
        <ele>746.1</ele>
        <time>2019-08-15T06:40:46Z</time>
      </trkpt>
      <trkpt lat="41.5383880" lon="-5.0668370">
        <ele>746.1</ele>
        <time>2019-08-15T06:40:47Z</time>
      </trkpt>
      <trkpt lat="41.5384400" lon="-5.0668820">
        <ele>746.1</ele>
        <time>2019-08-15T06:40:48Z</time>
      </trkpt>
      <trkpt lat="41.5384920" lon="-5.0669260">
        <ele>746.0</ele>
        <time>2019-08-15T06:40:49Z</time>
      </trkpt>
      <trkpt lat="41.5385440" lon="-5.0669720">
        <ele>746.0</ele>
        <time>2019-08-15T06:40:50Z</time>
      </trkpt>
      <trkpt lat="41.5385960" lon="-5.0670180">
        <ele>746.0</ele>
        <time>2019-08-15T06:40:51Z</time>
      </trkpt>
      <trkpt lat="41.5386480" lon="-5.0670650">
        <ele>746.0</ele>
        <time>2019-08-15T06:40:52Z</time>
      </trkpt>
      <trkpt lat="41.5387000" lon="-5.0671090">
        <ele>745.9</ele>
        <time>2019-08-15T06:40:53Z</time>
      </trkpt>
      <trkpt lat="41.5387510" lon="-5.0671540">
        <ele>745.9</ele>
        <time>2019-08-15T06:40:54Z</time>
      </trkpt>
      <trkpt lat="41.5388010" lon="-5.0671970">
        <ele>745.9</ele>
        <time>2019-08-15T06:40:55Z</time>
      </trkpt>
      <trkpt lat="41.5388510" lon="-5.0672410">
        <ele>745.9</ele>
        <time>2019-08-15T06:40:56Z</time>
      </trkpt>
      <trkpt lat="41.5389020" lon="-5.0672850">
        <ele>745.9</ele>
        <time>2019-08-15T06:40:57Z</time>
      </trkpt>
      <trkpt lat="41.5389530" lon="-5.0673310">
        <ele>745.8</ele>
        <time>2019-08-15T06:40:58Z</time>
      </trkpt>
      <trkpt lat="41.5390060" lon="-5.0673760">
        <ele>745.8</ele>
        <time>2019-08-15T06:40:59Z</time>
      </trkpt>
      <trkpt lat="41.5390590" lon="-5.0674200">
        <ele>745.8</ele>
        <time>2019-08-15T06:41:00Z</time>
      </trkpt>
      <trkpt lat="41.5391100" lon="-5.0674650">
        <ele>745.8</ele>
        <time>2019-08-15T06:41:01Z</time>
      </trkpt>
      <trkpt lat="41.5391630" lon="-5.0675080">
        <ele>745.7</ele>
        <time>2019-08-15T06:41:02Z</time>
      </trkpt>
      <trkpt lat="41.5392160" lon="-5.0675510">
        <ele>745.7</ele>
        <time>2019-08-15T06:41:03Z</time>
      </trkpt>
      <trkpt lat="41.5392700" lon="-5.0675940">
        <ele>745.7</ele>
        <time>2019-08-15T06:41:04Z</time>
      </trkpt>
      <trkpt lat="41.5393240" lon="-5.0676390">
        <ele>745.6</ele>
        <time>2019-08-15T06:41:05Z</time>
      </trkpt>
      <trkpt lat="41.5393800" lon="-5.0676850">
        <ele>745.6</ele>
        <time>2019-08-15T06:41:06Z</time>
      </trkpt>
      <trkpt lat="41.5394350" lon="-5.0677330">
        <ele>745.5</ele>
        <time>2019-08-15T06:41:07Z</time>
      </trkpt>
      <trkpt lat="41.5394910" lon="-5.0677800">
        <ele>745.5</ele>
        <time>2019-08-15T06:41:08Z</time>
      </trkpt>
      <trkpt lat="41.5395460" lon="-5.0678240">
        <ele>745.4</ele>
        <time>2019-08-15T06:41:09Z</time>
      </trkpt>
      <trkpt lat="41.5396020" lon="-5.0678700">
        <ele>745.4</ele>
        <time>2019-08-15T06:41:10Z</time>
      </trkpt>
      <trkpt lat="41.5396580" lon="-5.0679170">
        <ele>745.3</ele>
        <time>2019-08-15T06:41:11Z</time>
      </trkpt>
      <trkpt lat="41.5397150" lon="-5.0679640">
        <ele>745.2</ele>
        <time>2019-08-15T06:41:12Z</time>
      </trkpt>
      <trkpt lat="41.5397720" lon="-5.0680120">
        <ele>745.1</ele>
        <time>2019-08-15T06:41:13Z</time>
      </trkpt>
      <trkpt lat="41.5398290" lon="-5.0680590">
        <ele>745.0</ele>
        <time>2019-08-15T06:41:14Z</time>
      </trkpt>
      <trkpt lat="41.5398870" lon="-5.0681060">
        <ele>744.9</ele>
        <time>2019-08-15T06:41:15Z</time>
      </trkpt>
      <trkpt lat="41.5399450" lon="-5.0681530">
        <ele>744.8</ele>
        <time>2019-08-15T06:41:16Z</time>
      </trkpt>
      <trkpt lat="41.5400020" lon="-5.0682000">
        <ele>744.7</ele>
        <time>2019-08-15T06:41:17Z</time>
      </trkpt>
      <trkpt lat="41.5400590" lon="-5.0682450">
        <ele>744.6</ele>
        <time>2019-08-15T06:41:18Z</time>
      </trkpt>
      <trkpt lat="41.5401140" lon="-5.0682920">
        <ele>744.4</ele>
        <time>2019-08-15T06:41:19Z</time>
      </trkpt>
      <trkpt lat="41.5401700" lon="-5.0683410">
        <ele>744.3</ele>
        <time>2019-08-15T06:41:20Z</time>
      </trkpt>
      <trkpt lat="41.5402250" lon="-5.0683920">
        <ele>744.2</ele>
        <time>2019-08-15T06:41:21Z</time>
      </trkpt>
      <trkpt lat="41.5402800" lon="-5.0684460">
        <ele>744.0</ele>
        <time>2019-08-15T06:41:22Z</time>
      </trkpt>
      <trkpt lat="41.5403340" lon="-5.0685010">
        <ele>743.9</ele>
        <time>2019-08-15T06:41:23Z</time>
      </trkpt>
      <trkpt lat="41.5403860" lon="-5.0685600">
        <ele>743.7</ele>
        <time>2019-08-15T06:41:24Z</time>
      </trkpt>
      <trkpt lat="41.5404360" lon="-5.0686210">
        <ele>743.6</ele>
        <time>2019-08-15T06:41:25Z</time>
      </trkpt>
      <trkpt lat="41.5404840" lon="-5.0686860">
        <ele>743.4</ele>
        <time>2019-08-15T06:41:26Z</time>
      </trkpt>
      <trkpt lat="41.5405300" lon="-5.0687510">
        <ele>743.3</ele>
        <time>2019-08-15T06:41:27Z</time>
      </trkpt>
      <trkpt lat="41.5405750" lon="-5.0688170">
        <ele>743.1</ele>
        <time>2019-08-15T06:41:28Z</time>
      </trkpt>
      <trkpt lat="41.5406200" lon="-5.0688850">
        <ele>743.0</ele>
        <time>2019-08-15T06:41:29Z</time>
      </trkpt>
      <trkpt lat="41.5406640" lon="-5.0689560">
        <ele>742.9</ele>
        <time>2019-08-15T06:41:30Z</time>
      </trkpt>
      <trkpt lat="41.5407060" lon="-5.0690330">
        <ele>742.7</ele>
        <time>2019-08-15T06:41:31Z</time>
      </trkpt>
      <trkpt lat="41.5407500" lon="-5.0691090">
        <ele>742.6</ele>
        <time>2019-08-15T06:41:32Z</time>
      </trkpt>
      <trkpt lat="41.5407950" lon="-5.0691840">
        <ele>742.5</ele>
        <time>2019-08-15T06:41:33Z</time>
      </trkpt>
      <trkpt lat="41.5408390" lon="-5.0692570">
        <ele>742.4</ele>
        <time>2019-08-15T06:41:34Z</time>
      </trkpt>
      <trkpt lat="41.5408840" lon="-5.0693330">
        <ele>742.3</ele>
        <time>2019-08-15T06:41:35Z</time>
      </trkpt>
      <trkpt lat="41.5409280" lon="-5.0694110">
        <ele>742.2</ele>
        <time>2019-08-15T06:41:36Z</time>
      </trkpt>
      <trkpt lat="41.5409720" lon="-5.0694900">
        <ele>742.1</ele>
        <time>2019-08-15T06:41:37Z</time>
      </trkpt>
      <trkpt lat="41.5410140" lon="-5.0695670">
        <ele>742.0</ele>
        <time>2019-08-15T06:41:38Z</time>
      </trkpt>
      <trkpt lat="41.5410570" lon="-5.0696480">
        <ele>741.9</ele>
        <time>2019-08-15T06:41:39Z</time>
      </trkpt>
      <trkpt lat="41.5410990" lon="-5.0697290">
        <ele>741.8</ele>
        <time>2019-08-15T06:41:40Z</time>
      </trkpt>
      <trkpt lat="41.5411380" lon="-5.0698110">
        <ele>741.7</ele>
        <time>2019-08-15T06:41:41Z</time>
      </trkpt>
      <trkpt lat="41.5411740" lon="-5.0698940">
        <ele>741.6</ele>
        <time>2019-08-15T06:41:42Z</time>
      </trkpt>
      <trkpt lat="41.5412040" lon="-5.0699780">
        <ele>741.6</ele>
        <time>2019-08-15T06:41:43Z</time>
      </trkpt>
      <trkpt lat="41.5412260" lon="-5.0700650">
        <ele>741.5</ele>
        <time>2019-08-15T06:41:44Z</time>
      </trkpt>
      <trkpt lat="41.5412380" lon="-5.0701540">
        <ele>741.4</ele>
        <time>2019-08-15T06:41:45Z</time>
      </trkpt>
      <trkpt lat="41.5412370" lon="-5.0702430">
        <ele>741.4</ele>
        <time>2019-08-15T06:41:46Z</time>
      </trkpt>
      <trkpt lat="41.5412270" lon="-5.0703340">
        <ele>741.3</ele>
        <time>2019-08-15T06:41:47Z</time>
      </trkpt>
      <trkpt lat="41.5412080" lon="-5.0704200">
        <ele>741.3</ele>
        <time>2019-08-15T06:41:48Z</time>
      </trkpt>
      <trkpt lat="41.5411820" lon="-5.0705000">
        <ele>741.2</ele>
        <time>2019-08-15T06:41:49Z</time>
      </trkpt>
      <trkpt lat="41.5411490" lon="-5.0705770">
        <ele>741.2</ele>
        <time>2019-08-15T06:41:50Z</time>
      </trkpt>
      <trkpt lat="41.5411140" lon="-5.0706500">
        <ele>741.1</ele>
        <time>2019-08-15T06:41:51Z</time>
      </trkpt>
      <trkpt lat="41.5410760" lon="-5.0707200">
        <ele>741.1</ele>
        <time>2019-08-15T06:41:52Z</time>
      </trkpt>
      <trkpt lat="41.5410340" lon="-5.0707870">
        <ele>741.0</ele>
        <time>2019-08-15T06:41:53Z</time>
      </trkpt>
      <trkpt lat="41.5409920" lon="-5.0708490">
        <ele>741.0</ele>
        <time>2019-08-15T06:41:54Z</time>
      </trkpt>
      <trkpt lat="41.5409500" lon="-5.0709080">
        <ele>741.0</ele>
        <time>2019-08-15T06:41:55Z</time>
      </trkpt>
      <trkpt lat="41.5409070" lon="-5.0709620">
        <ele>741.0</ele>
        <time>2019-08-15T06:41:56Z</time>
      </trkpt>
      <trkpt lat="41.5408640" lon="-5.0710120">
        <ele>741.0</ele>
        <time>2019-08-15T06:41:57Z</time>
      </trkpt>
      <trkpt lat="41.5408240" lon="-5.0710630">
        <ele>741.0</ele>
        <time>2019-08-15T06:41:58Z</time>
      </trkpt>
      <trkpt lat="41.5407880" lon="-5.0711140">
        <ele>741.1</ele>
        <time>2019-08-15T06:41:59Z</time>
      </trkpt>
      <trkpt lat="41.5407580" lon="-5.0711610">
        <ele>741.2</ele>
        <time>2019-08-15T06:42:00Z</time>
      </trkpt>
      <trkpt lat="41.5407390" lon="-5.0712040">
        <ele>741.2</ele>
        <time>2019-08-15T06:42:01Z</time>
      </trkpt>
      <trkpt lat="41.5407270" lon="-5.0712420">
        <ele>741.3</ele>
        <time>2019-08-15T06:42:02Z</time>
      </trkpt>
      <trkpt lat="41.5407210" lon="-5.0712700">
        <ele>741.3</ele>
        <time>2019-08-15T06:42:03Z</time>
      </trkpt>
      <trkpt lat="41.5407380" lon="-5.0713150">
        <ele>741.3</ele>
        <time>2019-08-15T06:42:05Z</time>
      </trkpt>
      <trkpt lat="41.5407700" lon="-5.0713350">
        <ele>741.3</ele>
        <time>2019-08-15T06:42:07Z</time>
      </trkpt>
      <trkpt lat="41.5408030" lon="-5.0713440">
        <ele>741.2</ele>
        <time>2019-08-15T06:42:09Z</time>
      </trkpt>
      <trkpt lat="41.5408350" lon="-5.0713370">
        <ele>741.2</ele>
        <time>2019-08-15T06:42:11Z</time>
      </trkpt>
      <trkpt lat="41.5408420" lon="-5.0713250">
        <ele>741.2</ele>
        <time>2019-08-15T06:42:14Z</time>
      </trkpt>
      <trkpt lat="41.5408520" lon="-5.0712690">
        <ele>741.2</ele>
        <time>2019-08-15T06:42:18Z</time>
      </trkpt>
      <trkpt lat="41.5408820" lon="-5.0712200">
        <ele>741.2</ele>
        <time>2019-08-15T06:42:20Z</time>
      </trkpt>
      <trkpt lat="41.5409260" lon="-5.0711730">
        <ele>741.1</ele>
        <time>2019-08-15T06:42:22Z</time>
      </trkpt>
      <trkpt lat="41.5409460" lon="-5.0711460">
        <ele>741.1</ele>
        <time>2019-08-15T06:42:23Z</time>
      </trkpt>
      <trkpt lat="41.5409620" lon="-5.0711140">
        <ele>741.1</ele>
        <time>2019-08-15T06:42:24Z</time>
      </trkpt>
      <trkpt lat="41.5409760" lon="-5.0710830">
        <ele>741.1</ele>
        <time>2019-08-15T06:42:25Z</time>
      </trkpt>
      <trkpt lat="41.5409940" lon="-5.0710600">
        <ele>741.1</ele>
        <time>2019-08-15T06:42:26Z</time>
      </trkpt>
      <trkpt lat="41.5410330" lon="-5.0710310">
        <ele>741.1</ele>
        <time>2019-08-15T06:42:28Z</time>
      </trkpt>
      <trkpt lat="41.5410580" lon="-5.0710180">
        <ele>741.1</ele>
        <time>2019-08-15T06:42:30Z</time>
      </trkpt>
      <trkpt lat="41.5410730" lon="-5.0710220">
        <ele>741.1</ele>
        <time>2019-08-15T06:42:36Z</time>
      </trkpt>
      <trkpt lat="41.5409850" lon="-5.0710050">
        <ele>741.1</ele>
        <time>2019-08-15T06:42:59Z</time>
      </trkpt>
      <trkpt lat="41.5409660" lon="-5.0710440">
        <ele>741.1</ele>
        <time>2019-08-15T06:43:00Z</time>
      </trkpt>
      <trkpt lat="41.5409460" lon="-5.0710870">
        <ele>741.2</ele>
        <time>2019-08-15T06:43:01Z</time>
      </trkpt>
      <trkpt lat="41.5409250" lon="-5.0711330">
        <ele>741.2</ele>
        <time>2019-08-15T06:43:02Z</time>
      </trkpt>
      <trkpt lat="41.5409010" lon="-5.0711760">
        <ele>741.2</ele>
        <time>2019-08-15T06:43:03Z</time>
      </trkpt>
      <trkpt lat="41.5408750" lon="-5.0712150">
        <ele>741.2</ele>
        <time>2019-08-15T06:43:04Z</time>
      </trkpt>
      <trkpt lat="41.5408540" lon="-5.0712540">
        <ele>740.9</ele>
        <time>2019-08-15T06:43:05Z</time>
      </trkpt>
      <trkpt lat="41.5408460" lon="-5.0712900">
        <ele>740.9</ele>
        <time>2019-08-15T06:43:06Z</time>
      </trkpt>
      <trkpt lat="41.5408530" lon="-5.0713220">
        <ele>740.8</ele>
        <time>2019-08-15T06:43:07Z</time>
      </trkpt>
      <trkpt lat="41.5409110" lon="-5.0713460">
        <ele>740.8</ele>
        <time>2019-08-15T06:43:09Z</time>
      </trkpt>
      <trkpt lat="41.5409450" lon="-5.0713290">
        <ele>740.7</ele>
        <time>2019-08-15T06:43:10Z</time>
      </trkpt>
      <trkpt lat="41.5409780" lon="-5.0713010">
        <ele>740.6</ele>
        <time>2019-08-15T06:43:11Z</time>
      </trkpt>
      <trkpt lat="41.5410150" lon="-5.0712670">
        <ele>740.5</ele>
        <time>2019-08-15T06:43:12Z</time>
      </trkpt>
      <trkpt lat="41.5410550" lon="-5.0712310">
        <ele>740.5</ele>
        <time>2019-08-15T06:43:13Z</time>
      </trkpt>
      <trkpt lat="41.5410960" lon="-5.0711920">
        <ele>740.5</ele>
        <time>2019-08-15T06:43:14Z</time>
      </trkpt>
      <trkpt lat="41.5411380" lon="-5.0711470">
        <ele>740.3</ele>
        <time>2019-08-15T06:43:15Z</time>
      </trkpt>
      <trkpt lat="41.5411790" lon="-5.0710970">
        <ele>740.3</ele>
        <time>2019-08-15T06:43:16Z</time>
      </trkpt>
      <trkpt lat="41.5412190" lon="-5.0710480">
        <ele>740.3</ele>
        <time>2019-08-15T06:43:17Z</time>
      </trkpt>
      <trkpt lat="41.5412580" lon="-5.0710030">
        <ele>740.3</ele>
        <time>2019-08-15T06:43:18Z</time>
      </trkpt>
      <trkpt lat="41.5412960" lon="-5.0709620">
        <ele>740.3</ele>
        <time>2019-08-15T06:43:19Z</time>
      </trkpt>
      <trkpt lat="41.5413310" lon="-5.0709220">
        <ele>740.3</ele>
        <time>2019-08-15T06:43:20Z</time>
      </trkpt>
      <trkpt lat="41.5413660" lon="-5.0708830">
        <ele>740.3</ele>
        <time>2019-08-15T06:43:21Z</time>
      </trkpt>
      <trkpt lat="41.5414010" lon="-5.0708440">
        <ele>740.3</ele>
        <time>2019-08-15T06:43:22Z</time>
      </trkpt>
      <trkpt lat="41.5414350" lon="-5.0708040">
        <ele>740.3</ele>
        <time>2019-08-15T06:43:23Z</time>
      </trkpt>
      <trkpt lat="41.5414700" lon="-5.0707650">
        <ele>740.3</ele>
        <time>2019-08-15T06:43:24Z</time>
      </trkpt>
      <trkpt lat="41.5415060" lon="-5.0707270">
        <ele>740.4</ele>
        <time>2019-08-15T06:43:25Z</time>
      </trkpt>
      <trkpt lat="41.5415440" lon="-5.0706920">
        <ele>740.4</ele>
        <time>2019-08-15T06:43:26Z</time>
      </trkpt>
      <trkpt lat="41.5415830" lon="-5.0706580">
        <ele>740.4</ele>
        <time>2019-08-15T06:43:27Z</time>
      </trkpt>
      <trkpt lat="41.5416240" lon="-5.0706270">
        <ele>740.4</ele>
        <time>2019-08-15T06:43:28Z</time>
      </trkpt>
      <trkpt lat="41.5416690" lon="-5.0706000">
        <ele>740.4</ele>
        <time>2019-08-15T06:43:29Z</time>
      </trkpt>
      <trkpt lat="41.5417150" lon="-5.0705810">
        <ele>740.5</ele>
        <time>2019-08-15T06:43:30Z</time>
      </trkpt>
      <trkpt lat="41.5417620" lon="-5.0705650">
        <ele>740.5</ele>
        <time>2019-08-15T06:43:31Z</time>
      </trkpt>
      <trkpt lat="41.5418110" lon="-5.0705480">
        <ele>740.5</ele>
        <time>2019-08-15T06:43:32Z</time>
      </trkpt>
      <trkpt lat="41.5418620" lon="-5.0705340">
        <ele>740.6</ele>
        <time>2019-08-15T06:43:33Z</time>
      </trkpt>
      <trkpt lat="41.5419150" lon="-5.0705240">
        <ele>740.6</ele>
        <time>2019-08-15T06:43:34Z</time>
      </trkpt>
      <trkpt lat="41.5419680" lon="-5.0705190">
        <ele>740.6</ele>
        <time>2019-08-15T06:43:35Z</time>
      </trkpt>
      <trkpt lat="41.5420210" lon="-5.0705160">
        <ele>740.7</ele>
        <time>2019-08-15T06:43:36Z</time>
      </trkpt>
      <trkpt lat="41.5420740" lon="-5.0705130">
        <ele>740.7</ele>
        <time>2019-08-15T06:43:37Z</time>
      </trkpt>
      <trkpt lat="41.5421250" lon="-5.0705090">
        <ele>740.7</ele>
        <time>2019-08-15T06:43:38Z</time>
      </trkpt>
      <trkpt lat="41.5421730" lon="-5.0705060">
        <ele>740.8</ele>
        <time>2019-08-15T06:43:39Z</time>
      </trkpt>
      <trkpt lat="41.5422190" lon="-5.0705060">
        <ele>740.8</ele>
        <time>2019-08-15T06:43:40Z</time>
      </trkpt>
      <trkpt lat="41.5422630" lon="-5.0705070">
        <ele>740.8</ele>
        <time>2019-08-15T06:43:41Z</time>
      </trkpt>
      <trkpt lat="41.5423060" lon="-5.0705100">
        <ele>740.9</ele>
        <time>2019-08-15T06:43:42Z</time>
      </trkpt>
      <trkpt lat="41.5423470" lon="-5.0705130">
        <ele>740.9</ele>
        <time>2019-08-15T06:43:43Z</time>
      </trkpt>
      <trkpt lat="41.5423880" lon="-5.0705150">
        <ele>740.9</ele>
        <time>2019-08-15T06:43:44Z</time>
      </trkpt>
      <trkpt lat="41.5424280" lon="-5.0705180">
        <ele>740.9</ele>
        <time>2019-08-15T06:43:45Z</time>
      </trkpt>
      <trkpt lat="41.5424700" lon="-5.0705230">
        <ele>740.9</ele>
        <time>2019-08-15T06:43:46Z</time>
      </trkpt>
      <trkpt lat="41.5425130" lon="-5.0705290">
        <ele>740.9</ele>
        <time>2019-08-15T06:43:47Z</time>
      </trkpt>
      <trkpt lat="41.5425560" lon="-5.0705350">
        <ele>740.9</ele>
        <time>2019-08-15T06:43:48Z</time>
      </trkpt>
      <trkpt lat="41.5426000" lon="-5.0705430">
        <ele>740.9</ele>
        <time>2019-08-15T06:43:49Z</time>
      </trkpt>
      <trkpt lat="41.5426440" lon="-5.0705520">
        <ele>740.8</ele>
        <time>2019-08-15T06:43:50Z</time>
      </trkpt>
      <trkpt lat="41.5426900" lon="-5.0705640">
        <ele>740.8</ele>
        <time>2019-08-15T06:43:51Z</time>
      </trkpt>
      <trkpt lat="41.5427380" lon="-5.0705800">
        <ele>740.7</ele>
        <time>2019-08-15T06:43:52Z</time>
      </trkpt>
      <trkpt lat="41.5427870" lon="-5.0705950">
        <ele>740.6</ele>
        <time>2019-08-15T06:43:53Z</time>
      </trkpt>
      <trkpt lat="41.5428360" lon="-5.0706110">
        <ele>740.5</ele>
        <time>2019-08-15T06:43:54Z</time>
      </trkpt>
      <trkpt lat="41.5428870" lon="-5.0706260">
        <ele>740.4</ele>
        <time>2019-08-15T06:43:55Z</time>
      </trkpt>
      <trkpt lat="41.5429390" lon="-5.0706430">
        <ele>740.2</ele>
        <time>2019-08-15T06:43:56Z</time>
      </trkpt>
      <trkpt lat="41.5429920" lon="-5.0706610">
        <ele>740.1</ele>
        <time>2019-08-15T06:43:57Z</time>
      </trkpt>
      <trkpt lat="41.5430460" lon="-5.0706810">
        <ele>739.9</ele>
        <time>2019-08-15T06:43:58Z</time>
      </trkpt>
      <trkpt lat="41.5431000" lon="-5.0707020">
        <ele>739.8</ele>
        <time>2019-08-15T06:43:59Z</time>
      </trkpt>
      <trkpt lat="41.5431540" lon="-5.0707260">
        <ele>739.6</ele>
        <time>2019-08-15T06:44:00Z</time>
      </trkpt>
      <trkpt lat="41.5432090" lon="-5.0707490">
        <ele>739.4</ele>
        <time>2019-08-15T06:44:01Z</time>
      </trkpt>
      <trkpt lat="41.5432650" lon="-5.0707740">
        <ele>739.3</ele>
        <time>2019-08-15T06:44:02Z</time>
      </trkpt>
      <trkpt lat="41.5433200" lon="-5.0708050">
        <ele>739.1</ele>
        <time>2019-08-15T06:44:03Z</time>
      </trkpt>
      <trkpt lat="41.5433730" lon="-5.0708420">
        <ele>738.9</ele>
        <time>2019-08-15T06:44:04Z</time>
      </trkpt>
      <trkpt lat="41.5434270" lon="-5.0708740">
        <ele>738.7</ele>
        <time>2019-08-15T06:44:05Z</time>
      </trkpt>
      <trkpt lat="41.5434750" lon="-5.0709080">
        <ele>738.6</ele>
        <time>2019-08-15T06:44:06Z</time>
      </trkpt>
      <trkpt lat="41.5435240" lon="-5.0709490">
        <ele>738.4</ele>
        <time>2019-08-15T06:44:07Z</time>
      </trkpt>
      <trkpt lat="41.5435770" lon="-5.0709850">
        <ele>738.3</ele>
        <time>2019-08-15T06:44:08Z</time>
      </trkpt>
      <trkpt lat="41.5436300" lon="-5.0710190">
        <ele>738.1</ele>
        <time>2019-08-15T06:44:09Z</time>
      </trkpt>
      <trkpt lat="41.5436790" lon="-5.0710560">
        <ele>738.0</ele>
        <time>2019-08-15T06:44:10Z</time>
      </trkpt>
      <trkpt lat="41.5437320" lon="-5.0710990">
        <ele>737.8</ele>
        <time>2019-08-15T06:44:11Z</time>
      </trkpt>
      <trkpt lat="41.5437820" lon="-5.0711440">
        <ele>737.7</ele>
        <time>2019-08-15T06:44:12Z</time>
      </trkpt>
      <trkpt lat="41.5438270" lon="-5.0712080">
        <ele>737.5</ele>
        <time>2019-08-15T06:44:13Z</time>
      </trkpt>
      <trkpt lat="41.5438740" lon="-5.0712720">
        <ele>737.4</ele>
        <time>2019-08-15T06:44:14Z</time>
      </trkpt>
      <trkpt lat="41.5439310" lon="-5.0713170">
        <ele>737.2</ele>
        <time>2019-08-15T06:44:15Z</time>
      </trkpt>
      <trkpt lat="41.5439880" lon="-5.0713530">
        <ele>737.1</ele>
        <time>2019-08-15T06:44:16Z</time>
      </trkpt>
      <trkpt lat="41.5440410" lon="-5.0713880">
        <ele>736.9</ele>
        <time>2019-08-15T06:44:17Z</time>
      </trkpt>
      <trkpt lat="41.5440910" lon="-5.0714250">
        <ele>736.8</ele>
        <time>2019-08-15T06:44:18Z</time>
      </trkpt>
      <trkpt lat="41.5441440" lon="-5.0714640">
        <ele>736.6</ele>
        <time>2019-08-15T06:44:19Z</time>
      </trkpt>
      <trkpt lat="41.5441940" lon="-5.0715140">
        <ele>736.4</ele>
        <time>2019-08-15T06:44:20Z</time>
      </trkpt>
      <trkpt lat="41.5442410" lon="-5.0715570">
        <ele>736.3</ele>
        <time>2019-08-15T06:44:21Z</time>
      </trkpt>
      <trkpt lat="41.5442960" lon="-5.0715960">
        <ele>736.1</ele>
        <time>2019-08-15T06:44:22Z</time>
      </trkpt>
      <trkpt lat="41.5443540" lon="-5.0716350">
        <ele>735.9</ele>
        <time>2019-08-15T06:44:23Z</time>
      </trkpt>
      <trkpt lat="41.5444090" lon="-5.0716750">
        <ele>735.8</ele>
        <time>2019-08-15T06:44:24Z</time>
      </trkpt>
      <trkpt lat="41.5444650" lon="-5.0717170">
        <ele>735.6</ele>
        <time>2019-08-15T06:44:25Z</time>
      </trkpt>
      <trkpt lat="41.5445200" lon="-5.0717580">
        <ele>735.5</ele>
        <time>2019-08-15T06:44:26Z</time>
      </trkpt>
      <trkpt lat="41.5445740" lon="-5.0717990">
        <ele>735.3</ele>
        <time>2019-08-15T06:44:27Z</time>
      </trkpt>
      <trkpt lat="41.5446290" lon="-5.0718400">
        <ele>735.1</ele>
        <time>2019-08-15T06:44:28Z</time>
      </trkpt>
      <trkpt lat="41.5446840" lon="-5.0718830">
        <ele>735.0</ele>
        <time>2019-08-15T06:44:29Z</time>
      </trkpt>
      <trkpt lat="41.5447380" lon="-5.0719290">
        <ele>734.8</ele>
        <time>2019-08-15T06:44:30Z</time>
      </trkpt>
      <trkpt lat="41.5447940" lon="-5.0719760">
        <ele>734.7</ele>
        <time>2019-08-15T06:44:31Z</time>
      </trkpt>
      <trkpt lat="41.5448490" lon="-5.0720180">
        <ele>734.5</ele>
        <time>2019-08-15T06:44:32Z</time>
      </trkpt>
      <trkpt lat="41.5449060" lon="-5.0720600">
        <ele>734.4</ele>
        <time>2019-08-15T06:44:33Z</time>
      </trkpt>
      <trkpt lat="41.5449610" lon="-5.0721010">
        <ele>734.2</ele>
        <time>2019-08-15T06:44:34Z</time>
      </trkpt>
      <trkpt lat="41.5450160" lon="-5.0721440">
        <ele>734.1</ele>
        <time>2019-08-15T06:44:35Z</time>
      </trkpt>
      <trkpt lat="41.5450690" lon="-5.0721870">
        <ele>734.0</ele>
        <time>2019-08-15T06:44:36Z</time>
      </trkpt>
      <trkpt lat="41.5451230" lon="-5.0722300">
        <ele>733.8</ele>
        <time>2019-08-15T06:44:37Z</time>
      </trkpt>
      <trkpt lat="41.5451790" lon="-5.0722690">
        <ele>733.7</ele>
        <time>2019-08-15T06:44:38Z</time>
      </trkpt>
      <trkpt lat="41.5452330" lon="-5.0723100">
        <ele>733.6</ele>
        <time>2019-08-15T06:44:39Z</time>
      </trkpt>
      <trkpt lat="41.5452870" lon="-5.0723540">
        <ele>733.4</ele>
        <time>2019-08-15T06:44:40Z</time>
      </trkpt>
      <trkpt lat="41.5453430" lon="-5.0723980">
        <ele>733.3</ele>
        <time>2019-08-15T06:44:41Z</time>
      </trkpt>
      <trkpt lat="41.5454000" lon="-5.0724420">
        <ele>733.2</ele>
        <time>2019-08-15T06:44:42Z</time>
      </trkpt>
      <trkpt lat="41.5454570" lon="-5.0724870">
        <ele>733.1</ele>
        <time>2019-08-15T06:44:43Z</time>
      </trkpt>
      <trkpt lat="41.5455130" lon="-5.0725330">
        <ele>732.9</ele>
        <time>2019-08-15T06:44:44Z</time>
      </trkpt>
      <trkpt lat="41.5455700" lon="-5.0725790">
        <ele>732.8</ele>
        <time>2019-08-15T06:44:45Z</time>
      </trkpt>
      <trkpt lat="41.5456270" lon="-5.0726220">
        <ele>732.7</ele>
        <time>2019-08-15T06:44:46Z</time>
      </trkpt>
      <trkpt lat="41.5456850" lon="-5.0726640">
        <ele>732.5</ele>
        <time>2019-08-15T06:44:47Z</time>
      </trkpt>
      <trkpt lat="41.5457420" lon="-5.0727080">
        <ele>732.4</ele>
        <time>2019-08-15T06:44:48Z</time>
      </trkpt>
      <trkpt lat="41.5457990" lon="-5.0727510">
        <ele>732.3</ele>
        <time>2019-08-15T06:44:49Z</time>
      </trkpt>
      <trkpt lat="41.5458560" lon="-5.0727940">
        <ele>732.1</ele>
        <time>2019-08-15T06:44:50Z</time>
      </trkpt>
      <trkpt lat="41.5459120" lon="-5.0728390">
        <ele>732.0</ele>
        <time>2019-08-15T06:44:51Z</time>
      </trkpt>
      <trkpt lat="41.5459670" lon="-5.0728850">
        <ele>731.9</ele>
        <time>2019-08-15T06:44:52Z</time>
      </trkpt>
      <trkpt lat="41.5460240" lon="-5.0729290">
        <ele>731.7</ele>
        <time>2019-08-15T06:44:53Z</time>
      </trkpt>
      <trkpt lat="41.5460800" lon="-5.0729760">
        <ele>731.6</ele>
        <time>2019-08-15T06:44:54Z</time>
      </trkpt>
      <trkpt lat="41.5461340" lon="-5.0730240">
        <ele>731.5</ele>
        <time>2019-08-15T06:44:55Z</time>
      </trkpt>
      <trkpt lat="41.5461890" lon="-5.0730720">
        <ele>731.3</ele>
        <time>2019-08-15T06:44:56Z</time>
      </trkpt>
      <trkpt lat="41.5462440" lon="-5.0731190">
        <ele>731.2</ele>
        <time>2019-08-15T06:44:57Z</time>
      </trkpt>
      <trkpt lat="41.5463000" lon="-5.0731640">
        <ele>731.0</ele>
        <time>2019-08-15T06:44:58Z</time>
      </trkpt>
      <trkpt lat="41.5463570" lon="-5.0732090">
        <ele>730.9</ele>
        <time>2019-08-15T06:44:59Z</time>
      </trkpt>
      <trkpt lat="41.5464140" lon="-5.0732530">
        <ele>730.7</ele>
        <time>2019-08-15T06:45:00Z</time>
      </trkpt>
      <trkpt lat="41.5464690" lon="-5.0732980">
        <ele>730.6</ele>
        <time>2019-08-15T06:45:01Z</time>
      </trkpt>
      <trkpt lat="41.5465230" lon="-5.0733440">
        <ele>730.4</ele>
        <time>2019-08-15T06:45:02Z</time>
      </trkpt>
      <trkpt lat="41.5465780" lon="-5.0733900">
        <ele>730.2</ele>
        <time>2019-08-15T06:45:03Z</time>
      </trkpt>
      <trkpt lat="41.5466340" lon="-5.0734350">
        <ele>730.0</ele>
        <time>2019-08-15T06:45:04Z</time>
      </trkpt>
      <trkpt lat="41.5466900" lon="-5.0734800">
        <ele>729.9</ele>
        <time>2019-08-15T06:45:05Z</time>
      </trkpt>
      <trkpt lat="41.5467480" lon="-5.0735270">
        <ele>729.7</ele>
        <time>2019-08-15T06:45:06Z</time>
      </trkpt>
      <trkpt lat="41.5468080" lon="-5.0735730">
        <ele>729.5</ele>
        <time>2019-08-15T06:45:07Z</time>
      </trkpt>
      <trkpt lat="41.5468670" lon="-5.0736190">
        <ele>729.4</ele>
        <time>2019-08-15T06:45:08Z</time>
      </trkpt>
      <trkpt lat="41.5469270" lon="-5.0736640">
        <ele>729.2</ele>
        <time>2019-08-15T06:45:09Z</time>
      </trkpt>
      <trkpt lat="41.5469870" lon="-5.0737110">
        <ele>729.1</ele>
        <time>2019-08-15T06:45:10Z</time>
      </trkpt>
      <trkpt lat="41.5470470" lon="-5.0737570">
        <ele>728.9</ele>
        <time>2019-08-15T06:45:11Z</time>
      </trkpt>
      <trkpt lat="41.5471080" lon="-5.0738020">
        <ele>728.7</ele>
        <time>2019-08-15T06:45:12Z</time>
      </trkpt>
      <trkpt lat="41.5471670" lon="-5.0738480">
        <ele>728.6</ele>
        <time>2019-08-15T06:45:13Z</time>
      </trkpt>
      <trkpt lat="41.5472250" lon="-5.0738930">
        <ele>728.5</ele>
        <time>2019-08-15T06:45:14Z</time>
      </trkpt>
      <trkpt lat="41.5472840" lon="-5.0739390">
        <ele>728.3</ele>
        <time>2019-08-15T06:45:15Z</time>
      </trkpt>
      <trkpt lat="41.5473410" lon="-5.0739850">
        <ele>728.2</ele>
        <time>2019-08-15T06:45:16Z</time>
      </trkpt>
      <trkpt lat="41.5473990" lon="-5.0740320">
        <ele>728.1</ele>
        <time>2019-08-15T06:45:17Z</time>
      </trkpt>
      <trkpt lat="41.5474570" lon="-5.0740770">
        <ele>727.9</ele>
        <time>2019-08-15T06:45:18Z</time>
      </trkpt>
      <trkpt lat="41.5475170" lon="-5.0741200">
        <ele>727.8</ele>
        <time>2019-08-15T06:45:19Z</time>
      </trkpt>
      <trkpt lat="41.5475720" lon="-5.0741640">
        <ele>727.6</ele>
        <time>2019-08-15T06:45:20Z</time>
      </trkpt>
      <trkpt lat="41.5476270" lon="-5.0742090">
        <ele>727.5</ele>
        <time>2019-08-15T06:45:21Z</time>
      </trkpt>
      <trkpt lat="41.5476820" lon="-5.0742560">
        <ele>727.3</ele>
        <time>2019-08-15T06:45:22Z</time>
      </trkpt>
      <trkpt lat="41.5477370" lon="-5.0743040">
        <ele>727.2</ele>
        <time>2019-08-15T06:45:23Z</time>
      </trkpt>
      <trkpt lat="41.5477910" lon="-5.0743550">
        <ele>727.0</ele>
        <time>2019-08-15T06:45:24Z</time>
      </trkpt>
      <trkpt lat="41.5478470" lon="-5.0744060">
        <ele>726.8</ele>
        <time>2019-08-15T06:45:25Z</time>
      </trkpt>
      <trkpt lat="41.5479040" lon="-5.0744540">
        <ele>726.7</ele>
        <time>2019-08-15T06:45:26Z</time>
      </trkpt>
      <trkpt lat="41.5479610" lon="-5.0745020">
        <ele>726.5</ele>
        <time>2019-08-15T06:45:27Z</time>
      </trkpt>
      <trkpt lat="41.5480180" lon="-5.0745490">
        <ele>726.3</ele>
        <time>2019-08-15T06:45:28Z</time>
      </trkpt>
      <trkpt lat="41.5480770" lon="-5.0745960">
        <ele>726.1</ele>
        <time>2019-08-15T06:45:29Z</time>
      </trkpt>
      <trkpt lat="41.5481380" lon="-5.0746430">
        <ele>725.9</ele>
        <time>2019-08-15T06:45:30Z</time>
      </trkpt>
      <trkpt lat="41.5481990" lon="-5.0746900">
        <ele>725.7</ele>
        <time>2019-08-15T06:45:31Z</time>
      </trkpt>
      <trkpt lat="41.5482590" lon="-5.0747370">
        <ele>725.5</ele>
        <time>2019-08-15T06:45:32Z</time>
      </trkpt>
      <trkpt lat="41.5483210" lon="-5.0747840">
        <ele>725.3</ele>
        <time>2019-08-15T06:45:33Z</time>
      </trkpt>
      <trkpt lat="41.5483830" lon="-5.0748340">
        <ele>725.1</ele>
        <time>2019-08-15T06:45:34Z</time>
      </trkpt>
      <trkpt lat="41.5484450" lon="-5.0748830">
        <ele>724.9</ele>
        <time>2019-08-15T06:45:35Z</time>
      </trkpt>
      <trkpt lat="41.5485080" lon="-5.0749300">
        <ele>724.7</ele>
        <time>2019-08-15T06:45:36Z</time>
      </trkpt>
      <trkpt lat="41.5485690" lon="-5.0749780">
        <ele>724.5</ele>
        <time>2019-08-15T06:45:37Z</time>
      </trkpt>
      <trkpt lat="41.5486310" lon="-5.0750260">
        <ele>724.3</ele>
        <time>2019-08-15T06:45:38Z</time>
      </trkpt>
      <trkpt lat="41.5486930" lon="-5.0750750">
        <ele>724.1</ele>
        <time>2019-08-15T06:45:39Z</time>
      </trkpt>
      <trkpt lat="41.5487560" lon="-5.0751220">
        <ele>723.9</ele>
        <time>2019-08-15T06:45:40Z</time>
      </trkpt>
      <trkpt lat="41.5488210" lon="-5.0751680">
        <ele>723.8</ele>
        <time>2019-08-15T06:45:41Z</time>
      </trkpt>
      <trkpt lat="41.5488850" lon="-5.0752150">
        <ele>723.7</ele>
        <time>2019-08-15T06:45:42Z</time>
      </trkpt>
      <trkpt lat="41.5489440" lon="-5.0752640">
        <ele>723.5</ele>
        <time>2019-08-15T06:45:43Z</time>
      </trkpt>
      <trkpt lat="41.5490010" lon="-5.0753160">
        <ele>723.4</ele>
        <time>2019-08-15T06:45:44Z</time>
      </trkpt>
      <trkpt lat="41.5490590" lon="-5.0753680">
        <ele>723.2</ele>
        <time>2019-08-15T06:45:45Z</time>
      </trkpt>
      <trkpt lat="41.5491180" lon="-5.0754130">
        <ele>723.1</ele>
        <time>2019-08-15T06:45:46Z</time>
      </trkpt>
      <trkpt lat="41.5491760" lon="-5.0754600">
        <ele>723.0</ele>
        <time>2019-08-15T06:45:47Z</time>
      </trkpt>
      <trkpt lat="41.5492340" lon="-5.0755040">
        <ele>722.8</ele>
        <time>2019-08-15T06:45:48Z</time>
      </trkpt>
      <trkpt lat="41.5492900" lon="-5.0755480">
        <ele>722.7</ele>
        <time>2019-08-15T06:45:49Z</time>
      </trkpt>
      <trkpt lat="41.5493460" lon="-5.0755910">
        <ele>722.5</ele>
        <time>2019-08-15T06:45:50Z</time>
      </trkpt>
      <trkpt lat="41.5494010" lon="-5.0756350">
        <ele>722.3</ele>
        <time>2019-08-15T06:45:51Z</time>
      </trkpt>
      <trkpt lat="41.5494550" lon="-5.0756770">
        <ele>722.1</ele>
        <time>2019-08-15T06:45:52Z</time>
      </trkpt>
      <trkpt lat="41.5495100" lon="-5.0757180">
        <ele>721.9</ele>
        <time>2019-08-15T06:45:53Z</time>
      </trkpt>
      <trkpt lat="41.5495650" lon="-5.0757580">
        <ele>721.7</ele>
        <time>2019-08-15T06:45:54Z</time>
      </trkpt>
      <trkpt lat="41.5496210" lon="-5.0757990">
        <ele>721.5</ele>
        <time>2019-08-15T06:45:55Z</time>
      </trkpt>
      <trkpt lat="41.5496770" lon="-5.0758410">
        <ele>721.1</ele>
        <time>2019-08-15T06:45:56Z</time>
      </trkpt>
      <trkpt lat="41.5497320" lon="-5.0758830">
        <ele>720.9</ele>
        <time>2019-08-15T06:45:57Z</time>
      </trkpt>
      <trkpt lat="41.5497880" lon="-5.0759250">
        <ele>720.8</ele>
        <time>2019-08-15T06:45:58Z</time>
      </trkpt>
      <trkpt lat="41.5498430" lon="-5.0759660">
        <ele>720.7</ele>
        <time>2019-08-15T06:45:59Z</time>
      </trkpt>
      <trkpt lat="41.5499000" lon="-5.0760090">
        <ele>720.6</ele>
        <time>2019-08-15T06:46:00Z</time>
      </trkpt>
      <trkpt lat="41.5499570" lon="-5.0760540">
        <ele>720.5</ele>
        <time>2019-08-15T06:46:01Z</time>
      </trkpt>
      <trkpt lat="41.5500140" lon="-5.0761010">
        <ele>720.3</ele>
        <time>2019-08-15T06:46:02Z</time>
      </trkpt>
      <trkpt lat="41.5500720" lon="-5.0761500">
        <ele>720.2</ele>
        <time>2019-08-15T06:46:03Z</time>
      </trkpt>
      <trkpt lat="41.5501290" lon="-5.0761990">
        <ele>720.1</ele>
        <time>2019-08-15T06:46:04Z</time>
      </trkpt>
      <trkpt lat="41.5501860" lon="-5.0762470">
        <ele>720.0</ele>
        <time>2019-08-15T06:46:05Z</time>
      </trkpt>
      <trkpt lat="41.5502450" lon="-5.0762930">
        <ele>719.9</ele>
        <time>2019-08-15T06:46:06Z</time>
      </trkpt>
      <trkpt lat="41.5503050" lon="-5.0763410">
        <ele>719.8</ele>
        <time>2019-08-15T06:46:07Z</time>
      </trkpt>
      <trkpt lat="41.5503640" lon="-5.0763880">
        <ele>719.7</ele>
        <time>2019-08-15T06:46:08Z</time>
      </trkpt>
      <trkpt lat="41.5504210" lon="-5.0764380">
        <ele>719.6</ele>
        <time>2019-08-15T06:46:09Z</time>
      </trkpt>
      <trkpt lat="41.5504800" lon="-5.0764860">
        <ele>719.5</ele>
        <time>2019-08-15T06:46:10Z</time>
      </trkpt>
      <trkpt lat="41.5505380" lon="-5.0765300">
        <ele>719.4</ele>
        <time>2019-08-15T06:46:11Z</time>
      </trkpt>
      <trkpt lat="41.5505960" lon="-5.0765740">
        <ele>719.4</ele>
        <time>2019-08-15T06:46:12Z</time>
      </trkpt>
      <trkpt lat="41.5506530" lon="-5.0766160">
        <ele>719.3</ele>
        <time>2019-08-15T06:46:13Z</time>
      </trkpt>
      <trkpt lat="41.5507080" lon="-5.0766560">
        <ele>719.3</ele>
        <time>2019-08-15T06:46:14Z</time>
      </trkpt>
      <trkpt lat="41.5507600" lon="-5.0767040">
        <ele>719.2</ele>
        <time>2019-08-15T06:46:15Z</time>
      </trkpt>
      <trkpt lat="41.5508110" lon="-5.0767560">
        <ele>719.2</ele>
        <time>2019-08-15T06:46:16Z</time>
      </trkpt>
      <trkpt lat="41.5508640" lon="-5.0768030">
        <ele>719.2</ele>
        <time>2019-08-15T06:46:17Z</time>
      </trkpt>
      <trkpt lat="41.5509210" lon="-5.0768450">
        <ele>719.1</ele>
        <time>2019-08-15T06:46:18Z</time>
      </trkpt>
      <trkpt lat="41.5509780" lon="-5.0768860">
        <ele>719.1</ele>
        <time>2019-08-15T06:46:19Z</time>
      </trkpt>
      <trkpt lat="41.5510350" lon="-5.0769230">
        <ele>719.1</ele>
        <time>2019-08-15T06:46:20Z</time>
      </trkpt>
      <trkpt lat="41.5510900" lon="-5.0769600">
        <ele>719.1</ele>
        <time>2019-08-15T06:46:21Z</time>
      </trkpt>
      <trkpt lat="41.5511430" lon="-5.0769970">
        <ele>719.0</ele>
        <time>2019-08-15T06:46:22Z</time>
      </trkpt>
      <trkpt lat="41.5511950" lon="-5.0770350">
        <ele>719.0</ele>
        <time>2019-08-15T06:46:23Z</time>
      </trkpt>
      <trkpt lat="41.5512470" lon="-5.0770750">
        <ele>719.0</ele>
        <time>2019-08-15T06:46:24Z</time>
      </trkpt>
      <trkpt lat="41.5512980" lon="-5.0771160">
        <ele>718.9</ele>
        <time>2019-08-15T06:46:25Z</time>
      </trkpt>
      <trkpt lat="41.5513500" lon="-5.0771600">
        <ele>718.9</ele>
        <time>2019-08-15T06:46:26Z</time>
      </trkpt>
      <trkpt lat="41.5514020" lon="-5.0772030">
        <ele>718.9</ele>
        <time>2019-08-15T06:46:27Z</time>
      </trkpt>
      <trkpt lat="41.5514550" lon="-5.0772420">
        <ele>718.9</ele>
        <time>2019-08-15T06:46:28Z</time>
      </trkpt>
      <trkpt lat="41.5515050" lon="-5.0772810">
        <ele>718.8</ele>
        <time>2019-08-15T06:46:29Z</time>
      </trkpt>
      <trkpt lat="41.5515560" lon="-5.0773240">
        <ele>718.8</ele>
        <time>2019-08-15T06:46:30Z</time>
      </trkpt>
      <trkpt lat="41.5516080" lon="-5.0773660">
        <ele>718.7</ele>
        <time>2019-08-15T06:46:31Z</time>
      </trkpt>
      <trkpt lat="41.5516620" lon="-5.0774070">
        <ele>718.7</ele>
        <time>2019-08-15T06:46:32Z</time>
      </trkpt>
      <trkpt lat="41.5517160" lon="-5.0774510">
        <ele>718.7</ele>
        <time>2019-08-15T06:46:33Z</time>
      </trkpt>
      <trkpt lat="41.5517720" lon="-5.0774960">
        <ele>718.6</ele>
        <time>2019-08-15T06:46:34Z</time>
      </trkpt>
      <trkpt lat="41.5518290" lon="-5.0775390">
        <ele>718.6</ele>
        <time>2019-08-15T06:46:35Z</time>
      </trkpt>
      <trkpt lat="41.5518860" lon="-5.0775830">
        <ele>718.5</ele>
        <time>2019-08-15T06:46:36Z</time>
      </trkpt>
      <trkpt lat="41.5519410" lon="-5.0776280">
        <ele>718.5</ele>
        <time>2019-08-15T06:46:37Z</time>
      </trkpt>
      <trkpt lat="41.5519950" lon="-5.0776740">
        <ele>718.5</ele>
        <time>2019-08-15T06:46:38Z</time>
      </trkpt>
      <trkpt lat="41.5520500" lon="-5.0777210">
        <ele>718.4</ele>
        <time>2019-08-15T06:46:39Z</time>
      </trkpt>
      <trkpt lat="41.5521050" lon="-5.0777670">
        <ele>718.4</ele>
        <time>2019-08-15T06:46:40Z</time>
      </trkpt>
      <trkpt lat="41.5521620" lon="-5.0778110">
        <ele>718.4</ele>
        <time>2019-08-15T06:46:41Z</time>
      </trkpt>
      <trkpt lat="41.5522160" lon="-5.0778550">
        <ele>718.4</ele>
        <time>2019-08-15T06:46:42Z</time>
      </trkpt>
      <trkpt lat="41.5522690" lon="-5.0778990">
        <ele>718.4</ele>
        <time>2019-08-15T06:46:43Z</time>
      </trkpt>
      <trkpt lat="41.5523200" lon="-5.0779430">
        <ele>718.4</ele>
        <time>2019-08-15T06:46:44Z</time>
      </trkpt>
      <trkpt lat="41.5523710" lon="-5.0779840">
        <ele>718.4</ele>
        <time>2019-08-15T06:46:45Z</time>
      </trkpt>
      <trkpt lat="41.5524220" lon="-5.0780230">
        <ele>718.4</ele>
        <time>2019-08-15T06:46:46Z</time>
      </trkpt>
      <trkpt lat="41.5524740" lon="-5.0780620">
        <ele>718.4</ele>
        <time>2019-08-15T06:46:47Z</time>
      </trkpt>
      <trkpt lat="41.5525230" lon="-5.0781000">
        <ele>718.4</ele>
        <time>2019-08-15T06:46:48Z</time>
      </trkpt>
      <trkpt lat="41.5525710" lon="-5.0781380">
        <ele>718.4</ele>
        <time>2019-08-15T06:46:49Z</time>
      </trkpt>
      <trkpt lat="41.5526200" lon="-5.0781780">
        <ele>718.4</ele>
        <time>2019-08-15T06:46:50Z</time>
      </trkpt>
      <trkpt lat="41.5526680" lon="-5.0782180">
        <ele>718.4</ele>
        <time>2019-08-15T06:46:51Z</time>
      </trkpt>
      <trkpt lat="41.5527150" lon="-5.0782580">
        <ele>718.4</ele>
        <time>2019-08-15T06:46:52Z</time>
      </trkpt>
      <trkpt lat="41.5527610" lon="-5.0782960">
        <ele>718.4</ele>
        <time>2019-08-15T06:46:53Z</time>
      </trkpt>
      <trkpt lat="41.5528060" lon="-5.0783350">
        <ele>718.4</ele>
        <time>2019-08-15T06:46:54Z</time>
      </trkpt>
      <trkpt lat="41.5528500" lon="-5.0783750">
        <ele>718.4</ele>
        <time>2019-08-15T06:46:55Z</time>
      </trkpt>
      <trkpt lat="41.5528930" lon="-5.0784150">
        <ele>718.4</ele>
        <time>2019-08-15T06:46:56Z</time>
      </trkpt>
      <trkpt lat="41.5529360" lon="-5.0784560">
        <ele>718.4</ele>
        <time>2019-08-15T06:46:57Z</time>
      </trkpt>
      <trkpt lat="41.5529780" lon="-5.0784960">
        <ele>718.3</ele>
        <time>2019-08-15T06:46:58Z</time>
      </trkpt>
      <trkpt lat="41.5530200" lon="-5.0785360">
        <ele>718.3</ele>
        <time>2019-08-15T06:46:59Z</time>
      </trkpt>
      <trkpt lat="41.5530630" lon="-5.0785770">
        <ele>718.3</ele>
        <time>2019-08-15T06:47:00Z</time>
      </trkpt>
      <trkpt lat="41.5531050" lon="-5.0786190">
        <ele>718.2</ele>
        <time>2019-08-15T06:47:01Z</time>
      </trkpt>
      <trkpt lat="41.5531470" lon="-5.0786650">
        <ele>718.2</ele>
        <time>2019-08-15T06:47:02Z</time>
      </trkpt>
      <trkpt lat="41.5531900" lon="-5.0787120">
        <ele>718.1</ele>
        <time>2019-08-15T06:47:03Z</time>
      </trkpt>
      <trkpt lat="41.5532360" lon="-5.0787620">
        <ele>718.1</ele>
        <time>2019-08-15T06:47:04Z</time>
      </trkpt>
      <trkpt lat="41.5532840" lon="-5.0788100">
        <ele>718.0</ele>
        <time>2019-08-15T06:47:05Z</time>
      </trkpt>
      <trkpt lat="41.5533330" lon="-5.0788560">
        <ele>717.9</ele>
        <time>2019-08-15T06:47:06Z</time>
      </trkpt>
      <trkpt lat="41.5533810" lon="-5.0789020">
        <ele>717.9</ele>
        <time>2019-08-15T06:47:07Z</time>
      </trkpt>
      <trkpt lat="41.5534340" lon="-5.0789410">
        <ele>717.8</ele>
        <time>2019-08-15T06:47:08Z</time>
      </trkpt>
      <trkpt lat="41.5534880" lon="-5.0789770">
        <ele>717.8</ele>
        <time>2019-08-15T06:47:09Z</time>
      </trkpt>
      <trkpt lat="41.5535460" lon="-5.0790110">
        <ele>717.7</ele>
        <time>2019-08-15T06:47:10Z</time>
      </trkpt>
      <trkpt lat="41.5535990" lon="-5.0790420">
        <ele>717.7</ele>
        <time>2019-08-15T06:47:11Z</time>
      </trkpt>
      <trkpt lat="41.5536500" lon="-5.0790710">
        <ele>717.7</ele>
        <time>2019-08-15T06:47:12Z</time>
      </trkpt>
      <trkpt lat="41.5536990" lon="-5.0791020">
        <ele>717.6</ele>
        <time>2019-08-15T06:47:13Z</time>
      </trkpt>
      <trkpt lat="41.5537480" lon="-5.0791350">
        <ele>717.6</ele>
        <time>2019-08-15T06:47:14Z</time>
      </trkpt>
      <trkpt lat="41.5537970" lon="-5.0791670">
        <ele>717.6</ele>
        <time>2019-08-15T06:47:15Z</time>
      </trkpt>
      <trkpt lat="41.5538460" lon="-5.0791990">
        <ele>717.5</ele>
        <time>2019-08-15T06:47:16Z</time>
      </trkpt>
      <trkpt lat="41.5538950" lon="-5.0792320">
        <ele>717.5</ele>
        <time>2019-08-15T06:47:17Z</time>
      </trkpt>
      <trkpt lat="41.5539440" lon="-5.0792650">
        <ele>717.5</ele>
        <time>2019-08-15T06:47:18Z</time>
      </trkpt>
      <trkpt lat="41.5539920" lon="-5.0792990">
        <ele>717.5</ele>
        <time>2019-08-15T06:47:19Z</time>
      </trkpt>
      <trkpt lat="41.5540400" lon="-5.0793320">
        <ele>717.4</ele>
        <time>2019-08-15T06:47:20Z</time>
      </trkpt>
      <trkpt lat="41.5540860" lon="-5.0793670">
        <ele>717.4</ele>
        <time>2019-08-15T06:47:21Z</time>
      </trkpt>
      <trkpt lat="41.5541320" lon="-5.0794060">
        <ele>717.3</ele>
        <time>2019-08-15T06:47:22Z</time>
      </trkpt>
      <trkpt lat="41.5541780" lon="-5.0794470">
        <ele>717.3</ele>
        <time>2019-08-15T06:47:23Z</time>
      </trkpt>
      <trkpt lat="41.5542240" lon="-5.0794860">
        <ele>717.2</ele>
        <time>2019-08-15T06:47:24Z</time>
      </trkpt>
      <trkpt lat="41.5542720" lon="-5.0795240">
        <ele>717.2</ele>
        <time>2019-08-15T06:47:25Z</time>
      </trkpt>
      <trkpt lat="41.5543190" lon="-5.0795640">
        <ele>717.1</ele>
        <time>2019-08-15T06:47:26Z</time>
      </trkpt>
      <trkpt lat="41.5543670" lon="-5.0796030">
        <ele>717.1</ele>
        <time>2019-08-15T06:47:27Z</time>
      </trkpt>
      <trkpt lat="41.5544140" lon="-5.0796440">
        <ele>717.0</ele>
        <time>2019-08-15T06:47:28Z</time>
      </trkpt>
      <trkpt lat="41.5544620" lon="-5.0796860">
        <ele>716.9</ele>
        <time>2019-08-15T06:47:29Z</time>
      </trkpt>
      <trkpt lat="41.5545100" lon="-5.0797250">
        <ele>716.8</ele>
        <time>2019-08-15T06:47:30Z</time>
      </trkpt>
      <trkpt lat="41.5545560" lon="-5.0797620">
        <ele>716.7</ele>
        <time>2019-08-15T06:47:31Z</time>
      </trkpt>
      <trkpt lat="41.5546010" lon="-5.0798000">
        <ele>716.7</ele>
        <time>2019-08-15T06:47:32Z</time>
      </trkpt>
      <trkpt lat="41.5546470" lon="-5.0798370">
        <ele>716.7</ele>
        <time>2019-08-15T06:47:33Z</time>
      </trkpt>
      <trkpt lat="41.5546940" lon="-5.0798750">
        <ele>716.8</ele>
        <time>2019-08-15T06:47:34Z</time>
      </trkpt>
      <trkpt lat="41.5547400" lon="-5.0799150">
        <ele>716.8</ele>
        <time>2019-08-15T06:47:35Z</time>
      </trkpt>
      <trkpt lat="41.5547820" lon="-5.0799530">
        <ele>716.9</ele>
        <time>2019-08-15T06:47:36Z</time>
      </trkpt>
      <trkpt lat="41.5548180" lon="-5.0799890">
        <ele>716.9</ele>
        <time>2019-08-15T06:47:37Z</time>
      </trkpt>
      <trkpt lat="41.5548530" lon="-5.0800240">
        <ele>717.0</ele>
        <time>2019-08-15T06:47:38Z</time>
      </trkpt>
      <trkpt lat="41.5548870" lon="-5.0800560">
        <ele>717.0</ele>
        <time>2019-08-15T06:47:39Z</time>
      </trkpt>
      <trkpt lat="41.5549200" lon="-5.0800870">
        <ele>717.0</ele>
        <time>2019-08-15T06:47:40Z</time>
      </trkpt>
      <trkpt lat="41.5549520" lon="-5.0801180">
        <ele>717.0</ele>
        <time>2019-08-15T06:47:41Z</time>
      </trkpt>
      <trkpt lat="41.5549850" lon="-5.0801520">
        <ele>717.0</ele>
        <time>2019-08-15T06:47:42Z</time>
      </trkpt>
      <trkpt lat="41.5550190" lon="-5.0801840">
        <ele>717.0</ele>
        <time>2019-08-15T06:47:43Z</time>
      </trkpt>
      <trkpt lat="41.5550530" lon="-5.0802150">
        <ele>717.0</ele>
        <time>2019-08-15T06:47:44Z</time>
      </trkpt>
      <trkpt lat="41.5550860" lon="-5.0802460">
        <ele>717.0</ele>
        <time>2019-08-15T06:47:45Z</time>
      </trkpt>
      <trkpt lat="41.5551180" lon="-5.0802760">
        <ele>717.0</ele>
        <time>2019-08-15T06:47:46Z</time>
      </trkpt>
      <trkpt lat="41.5551510" lon="-5.0803060">
        <ele>717.1</ele>
        <time>2019-08-15T06:47:47Z</time>
      </trkpt>
      <trkpt lat="41.5551840" lon="-5.0803380">
        <ele>717.1</ele>
        <time>2019-08-15T06:47:48Z</time>
      </trkpt>
      <trkpt lat="41.5552170" lon="-5.0803710">
        <ele>717.2</ele>
        <time>2019-08-15T06:47:49Z</time>
      </trkpt>
      <trkpt lat="41.5552510" lon="-5.0804010">
        <ele>717.3</ele>
        <time>2019-08-15T06:47:50Z</time>
      </trkpt>
      <trkpt lat="41.5552850" lon="-5.0804290">
        <ele>717.4</ele>
        <time>2019-08-15T06:47:51Z</time>
      </trkpt>
      <trkpt lat="41.5553190" lon="-5.0804570">
        <ele>717.5</ele>
        <time>2019-08-15T06:47:52Z</time>
      </trkpt>
      <trkpt lat="41.5553550" lon="-5.0804850">
        <ele>717.6</ele>
        <time>2019-08-15T06:47:53Z</time>
      </trkpt>
      <trkpt lat="41.5553910" lon="-5.0805160">
        <ele>717.8</ele>
        <time>2019-08-15T06:47:54Z</time>
      </trkpt>
      <trkpt lat="41.5554260" lon="-5.0805500">
        <ele>718.0</ele>
        <time>2019-08-15T06:47:55Z</time>
      </trkpt>
      <trkpt lat="41.5554650" lon="-5.0805840">
        <ele>718.2</ele>
        <time>2019-08-15T06:47:56Z</time>
      </trkpt>
      <trkpt lat="41.5555030" lon="-5.0806170">
        <ele>718.3</ele>
        <time>2019-08-15T06:47:57Z</time>
      </trkpt>
      <trkpt lat="41.5555420" lon="-5.0806500">
        <ele>718.6</ele>
        <time>2019-08-15T06:47:58Z</time>
      </trkpt>
      <trkpt lat="41.5555800" lon="-5.0806810">
        <ele>718.8</ele>
        <time>2019-08-15T06:47:59Z</time>
      </trkpt>
      <trkpt lat="41.5556200" lon="-5.0807130">
        <ele>719.1</ele>
        <time>2019-08-15T06:48:00Z</time>
      </trkpt>
      <trkpt lat="41.5556570" lon="-5.0807450">
        <ele>719.3</ele>
        <time>2019-08-15T06:48:01Z</time>
      </trkpt>
      <trkpt lat="41.5556950" lon="-5.0807780">
        <ele>719.4</ele>
        <time>2019-08-15T06:48:02Z</time>
      </trkpt>
      <trkpt lat="41.5557310" lon="-5.0808120">
        <ele>719.4</ele>
        <time>2019-08-15T06:48:03Z</time>
      </trkpt>
      <trkpt lat="41.5557680" lon="-5.0808450">
        <ele>719.5</ele>
        <time>2019-08-15T06:48:04Z</time>
      </trkpt>
      <trkpt lat="41.5558060" lon="-5.0808780">
        <ele>719.5</ele>
        <time>2019-08-15T06:48:05Z</time>
      </trkpt>
      <trkpt lat="41.5558450" lon="-5.0809100">
        <ele>719.6</ele>
        <time>2019-08-15T06:48:06Z</time>
      </trkpt>
      <trkpt lat="41.5558840" lon="-5.0809450">
        <ele>719.7</ele>
        <time>2019-08-15T06:48:07Z</time>
      </trkpt>
      <trkpt lat="41.5559220" lon="-5.0809800">
        <ele>719.8</ele>
        <time>2019-08-15T06:48:08Z</time>
      </trkpt>
      <trkpt lat="41.5559610" lon="-5.0810140">
        <ele>719.9</ele>
        <time>2019-08-15T06:48:09Z</time>
      </trkpt>
      <trkpt lat="41.5559990" lon="-5.0810480">
        <ele>719.9</ele>
        <time>2019-08-15T06:48:10Z</time>
      </trkpt>
      <trkpt lat="41.5560370" lon="-5.0810830">
        <ele>720.0</ele>
        <time>2019-08-15T06:48:11Z</time>
      </trkpt>
      <trkpt lat="41.5560770" lon="-5.0811170">
        <ele>720.1</ele>
        <time>2019-08-15T06:48:12Z</time>
      </trkpt>
      <trkpt lat="41.5561150" lon="-5.0811510">
        <ele>720.1</ele>
        <time>2019-08-15T06:48:13Z</time>
      </trkpt>
      <trkpt lat="41.5561530" lon="-5.0811840">
        <ele>720.2</ele>
        <time>2019-08-15T06:48:14Z</time>
      </trkpt>
      <trkpt lat="41.5561910" lon="-5.0812150">
        <ele>720.2</ele>
        <time>2019-08-15T06:48:15Z</time>
      </trkpt>
      <trkpt lat="41.5562290" lon="-5.0812470">
        <ele>720.3</ele>
        <time>2019-08-15T06:48:16Z</time>
      </trkpt>
      <trkpt lat="41.5562680" lon="-5.0812790">
        <ele>720.4</ele>
        <time>2019-08-15T06:48:17Z</time>
      </trkpt>
      <trkpt lat="41.5563070" lon="-5.0813120">
        <ele>720.4</ele>
        <time>2019-08-15T06:48:18Z</time>
      </trkpt>
      <trkpt lat="41.5563440" lon="-5.0813490">
        <ele>720.5</ele>
        <time>2019-08-15T06:48:19Z</time>
      </trkpt>
      <trkpt lat="41.5563810" lon="-5.0813850">
        <ele>720.5</ele>
        <time>2019-08-15T06:48:20Z</time>
      </trkpt>
      <trkpt lat="41.5564170" lon="-5.0814210">
        <ele>720.6</ele>
        <time>2019-08-15T06:48:21Z</time>
      </trkpt>
      <trkpt lat="41.5564540" lon="-5.0814570">
        <ele>720.6</ele>
        <time>2019-08-15T06:48:22Z</time>
      </trkpt>
      <trkpt lat="41.5564900" lon="-5.0814920">
        <ele>720.7</ele>
        <time>2019-08-15T06:48:23Z</time>
      </trkpt>
      <trkpt lat="41.5565250" lon="-5.0815260">
        <ele>720.8</ele>
        <time>2019-08-15T06:48:24Z</time>
      </trkpt>
      <trkpt lat="41.5565620" lon="-5.0815610">
        <ele>720.8</ele>
        <time>2019-08-15T06:48:25Z</time>
      </trkpt>
      <trkpt lat="41.5565990" lon="-5.0815970">
        <ele>720.9</ele>
        <time>2019-08-15T06:48:26Z</time>
      </trkpt>
      <trkpt lat="41.5566370" lon="-5.0816330">
        <ele>720.9</ele>
        <time>2019-08-15T06:48:27Z</time>
      </trkpt>
      <trkpt lat="41.5566750" lon="-5.0816670">
        <ele>721.0</ele>
        <time>2019-08-15T06:48:28Z</time>
      </trkpt>
      <trkpt lat="41.5567120" lon="-5.0817030">
        <ele>721.0</ele>
        <time>2019-08-15T06:48:29Z</time>
      </trkpt>
      <trkpt lat="41.5567490" lon="-5.0817400">
        <ele>721.1</ele>
        <time>2019-08-15T06:48:30Z</time>
      </trkpt>
      <trkpt lat="41.5567860" lon="-5.0817740">
        <ele>721.1</ele>
        <time>2019-08-15T06:48:31Z</time>
      </trkpt>
      <trkpt lat="41.5568230" lon="-5.0818090">
        <ele>721.2</ele>
        <time>2019-08-15T06:48:32Z</time>
      </trkpt>
      <trkpt lat="41.5568590" lon="-5.0818450">
        <ele>721.2</ele>
        <time>2019-08-15T06:48:33Z</time>
      </trkpt>
      <trkpt lat="41.5568940" lon="-5.0818820">
        <ele>721.3</ele>
        <time>2019-08-15T06:48:34Z</time>
      </trkpt>
      <trkpt lat="41.5569300" lon="-5.0819190">
        <ele>721.3</ele>
        <time>2019-08-15T06:48:35Z</time>
      </trkpt>
      <trkpt lat="41.5569650" lon="-5.0819550">
        <ele>721.4</ele>
        <time>2019-08-15T06:48:36Z</time>
      </trkpt>
      <trkpt lat="41.5570020" lon="-5.0819920">
        <ele>721.4</ele>
        <time>2019-08-15T06:48:37Z</time>
      </trkpt>
      <trkpt lat="41.5570400" lon="-5.0820310">
        <ele>721.4</ele>
        <time>2019-08-15T06:48:38Z</time>
      </trkpt>
      <trkpt lat="41.5570780" lon="-5.0820710">
        <ele>721.5</ele>
        <time>2019-08-15T06:48:39Z</time>
      </trkpt>
      <trkpt lat="41.5571170" lon="-5.0821150">
        <ele>721.5</ele>
        <time>2019-08-15T06:48:40Z</time>
      </trkpt>
      <trkpt lat="41.5571570" lon="-5.0821590">
        <ele>721.5</ele>
        <time>2019-08-15T06:48:41Z</time>
      </trkpt>
      <trkpt lat="41.5571990" lon="-5.0822010">
        <ele>721.6</ele>
        <time>2019-08-15T06:48:42Z</time>
      </trkpt>
      <trkpt lat="41.5572400" lon="-5.0822400">
        <ele>721.6</ele>
        <time>2019-08-15T06:48:43Z</time>
      </trkpt>
      <trkpt lat="41.5572820" lon="-5.0822760">
        <ele>721.6</ele>
        <time>2019-08-15T06:48:44Z</time>
      </trkpt>
      <trkpt lat="41.5573240" lon="-5.0823130">
        <ele>721.6</ele>
        <time>2019-08-15T06:48:45Z</time>
      </trkpt>
      <trkpt lat="41.5573660" lon="-5.0823510">
        <ele>721.6</ele>
        <time>2019-08-15T06:48:46Z</time>
      </trkpt>
      <trkpt lat="41.5574100" lon="-5.0823930">
        <ele>721.6</ele>
        <time>2019-08-15T06:48:47Z</time>
      </trkpt>
      <trkpt lat="41.5574540" lon="-5.0824350">
        <ele>721.7</ele>
        <time>2019-08-15T06:48:48Z</time>
      </trkpt>
      <trkpt lat="41.5574980" lon="-5.0824770">
        <ele>721.7</ele>
        <time>2019-08-15T06:48:49Z</time>
      </trkpt>
      <trkpt lat="41.5575420" lon="-5.0825190">
        <ele>721.7</ele>
        <time>2019-08-15T06:48:50Z</time>
      </trkpt>
      <trkpt lat="41.5575880" lon="-5.0825620">
        <ele>721.7</ele>
        <time>2019-08-15T06:48:51Z</time>
      </trkpt>
      <trkpt lat="41.5576330" lon="-5.0826060">
        <ele>721.7</ele>
        <time>2019-08-15T06:48:52Z</time>
      </trkpt>
      <trkpt lat="41.5576800" lon="-5.0826490">
        <ele>721.7</ele>
        <time>2019-08-15T06:48:53Z</time>
      </trkpt>
      <trkpt lat="41.5577280" lon="-5.0826930">
        <ele>721.7</ele>
        <time>2019-08-15T06:48:54Z</time>
      </trkpt>
      <trkpt lat="41.5577760" lon="-5.0827340">
        <ele>721.7</ele>
        <time>2019-08-15T06:48:55Z</time>
      </trkpt>
      <trkpt lat="41.5578220" lon="-5.0827730">
        <ele>721.7</ele>
        <time>2019-08-15T06:48:56Z</time>
      </trkpt>
      <trkpt lat="41.5578670" lon="-5.0828120">
        <ele>721.7</ele>
        <time>2019-08-15T06:48:57Z</time>
      </trkpt>
      <trkpt lat="41.5579120" lon="-5.0828530">
        <ele>721.7</ele>
        <time>2019-08-15T06:48:58Z</time>
      </trkpt>
      <trkpt lat="41.5579560" lon="-5.0828930">
        <ele>721.8</ele>
        <time>2019-08-15T06:48:59Z</time>
      </trkpt>
      <trkpt lat="41.5580000" lon="-5.0829330">
        <ele>721.8</ele>
        <time>2019-08-15T06:49:00Z</time>
      </trkpt>
      <trkpt lat="41.5580450" lon="-5.0829730">
        <ele>721.8</ele>
        <time>2019-08-15T06:49:01Z</time>
      </trkpt>
      <trkpt lat="41.5580890" lon="-5.0830150">
        <ele>721.8</ele>
        <time>2019-08-15T06:49:02Z</time>
      </trkpt>
      <trkpt lat="41.5581320" lon="-5.0830590">
        <ele>721.8</ele>
        <time>2019-08-15T06:49:03Z</time>
      </trkpt>
      <trkpt lat="41.5581760" lon="-5.0831030">
        <ele>721.9</ele>
        <time>2019-08-15T06:49:04Z</time>
      </trkpt>
      <trkpt lat="41.5582200" lon="-5.0831470">
        <ele>721.9</ele>
        <time>2019-08-15T06:49:05Z</time>
      </trkpt>
      <trkpt lat="41.5582650" lon="-5.0831920">
        <ele>721.9</ele>
        <time>2019-08-15T06:49:06Z</time>
      </trkpt>
      <trkpt lat="41.5583110" lon="-5.0832350">
        <ele>721.9</ele>
        <time>2019-08-15T06:49:07Z</time>
      </trkpt>
      <trkpt lat="41.5583560" lon="-5.0832760">
        <ele>721.9</ele>
        <time>2019-08-15T06:49:08Z</time>
      </trkpt>
      <trkpt lat="41.5584010" lon="-5.0833160">
        <ele>721.9</ele>
        <time>2019-08-15T06:49:09Z</time>
      </trkpt>
      <trkpt lat="41.5584460" lon="-5.0833550">
        <ele>722.0</ele>
        <time>2019-08-15T06:49:10Z</time>
      </trkpt>
      <trkpt lat="41.5584910" lon="-5.0833930">
        <ele>722.0</ele>
        <time>2019-08-15T06:49:11Z</time>
      </trkpt>
      <trkpt lat="41.5585340" lon="-5.0834300">
        <ele>722.0</ele>
        <time>2019-08-15T06:49:12Z</time>
      </trkpt>
      <trkpt lat="41.5585770" lon="-5.0834680">
        <ele>722.0</ele>
        <time>2019-08-15T06:49:13Z</time>
      </trkpt>
      <trkpt lat="41.5586210" lon="-5.0835070">
        <ele>722.0</ele>
        <time>2019-08-15T06:49:14Z</time>
      </trkpt>
      <trkpt lat="41.5586660" lon="-5.0835460">
        <ele>722.0</ele>
        <time>2019-08-15T06:49:15Z</time>
      </trkpt>
      <trkpt lat="41.5587100" lon="-5.0835880">
        <ele>722.0</ele>
        <time>2019-08-15T06:49:16Z</time>
      </trkpt>
      <trkpt lat="41.5587550" lon="-5.0836300">
        <ele>721.9</ele>
        <time>2019-08-15T06:49:17Z</time>
      </trkpt>
      <trkpt lat="41.5588010" lon="-5.0836720">
        <ele>721.9</ele>
        <time>2019-08-15T06:49:18Z</time>
      </trkpt>
      <trkpt lat="41.5588470" lon="-5.0837130">
        <ele>721.9</ele>
        <time>2019-08-15T06:49:19Z</time>
      </trkpt>
      <trkpt lat="41.5588930" lon="-5.0837520">
        <ele>721.9</ele>
        <time>2019-08-15T06:49:20Z</time>
      </trkpt>
      <trkpt lat="41.5589380" lon="-5.0837890">
        <ele>721.9</ele>
        <time>2019-08-15T06:49:21Z</time>
      </trkpt>
      <trkpt lat="41.5589820" lon="-5.0838250">
        <ele>721.9</ele>
        <time>2019-08-15T06:49:22Z</time>
      </trkpt>
      <trkpt lat="41.5590270" lon="-5.0838590">
        <ele>721.9</ele>
        <time>2019-08-15T06:49:23Z</time>
      </trkpt>
      <trkpt lat="41.5590710" lon="-5.0838940">
        <ele>721.9</ele>
        <time>2019-08-15T06:49:24Z</time>
      </trkpt>
      <trkpt lat="41.5591140" lon="-5.0839290">
        <ele>721.9</ele>
        <time>2019-08-15T06:49:25Z</time>
      </trkpt>
      <trkpt lat="41.5591560" lon="-5.0839640">
        <ele>721.9</ele>
        <time>2019-08-15T06:49:26Z</time>
      </trkpt>
      <trkpt lat="41.5591980" lon="-5.0840000">
        <ele>721.9</ele>
        <time>2019-08-15T06:49:27Z</time>
      </trkpt>
      <trkpt lat="41.5592390" lon="-5.0840370">
        <ele>721.9</ele>
        <time>2019-08-15T06:49:28Z</time>
      </trkpt>
      <trkpt lat="41.5592760" lon="-5.0840790">
        <ele>721.9</ele>
        <time>2019-08-15T06:49:29Z</time>
      </trkpt>
      <trkpt lat="41.5593090" lon="-5.0841290">
        <ele>721.9</ele>
        <time>2019-08-15T06:49:30Z</time>
      </trkpt>
      <trkpt lat="41.5593340" lon="-5.0841860">
        <ele>721.9</ele>
        <time>2019-08-15T06:49:31Z</time>
      </trkpt>
      <trkpt lat="41.5593480" lon="-5.0842480">
        <ele>721.9</ele>
        <time>2019-08-15T06:49:32Z</time>
      </trkpt>
      <trkpt lat="41.5593520" lon="-5.0843150">
        <ele>721.9</ele>
        <time>2019-08-15T06:49:33Z</time>
      </trkpt>
      <trkpt lat="41.5593450" lon="-5.0843840">
        <ele>722.0</ele>
        <time>2019-08-15T06:49:34Z</time>
      </trkpt>
      <trkpt lat="41.5593320" lon="-5.0844520">
        <ele>722.0</ele>
        <time>2019-08-15T06:49:35Z</time>
      </trkpt>
      <trkpt lat="41.5593150" lon="-5.0845210">
        <ele>722.0</ele>
        <time>2019-08-15T06:49:36Z</time>
      </trkpt>
      <trkpt lat="41.5592990" lon="-5.0845890">
        <ele>722.0</ele>
        <time>2019-08-15T06:49:37Z</time>
      </trkpt>
      <trkpt lat="41.5592840" lon="-5.0846610">
        <ele>722.0</ele>
        <time>2019-08-15T06:49:38Z</time>
      </trkpt>
      <trkpt lat="41.5592730" lon="-5.0847360">
        <ele>722.1</ele>
        <time>2019-08-15T06:49:39Z</time>
      </trkpt>
      <trkpt lat="41.5592680" lon="-5.0848130">
        <ele>722.1</ele>
        <time>2019-08-15T06:49:40Z</time>
      </trkpt>
      <trkpt lat="41.5592690" lon="-5.0848910">
        <ele>722.1</ele>
        <time>2019-08-15T06:49:41Z</time>
      </trkpt>
      <trkpt lat="41.5592760" lon="-5.0849680">
        <ele>722.1</ele>
        <time>2019-08-15T06:49:42Z</time>
      </trkpt>
      <trkpt lat="41.5592880" lon="-5.0850420">
        <ele>722.2</ele>
        <time>2019-08-15T06:49:43Z</time>
      </trkpt>
      <trkpt lat="41.5593050" lon="-5.0851130">
        <ele>722.2</ele>
        <time>2019-08-15T06:49:44Z</time>
      </trkpt>
      <trkpt lat="41.5593270" lon="-5.0851770">
        <ele>722.2</ele>
        <time>2019-08-15T06:49:45Z</time>
      </trkpt>
      <trkpt lat="41.5593500" lon="-5.0852380">
        <ele>722.2</ele>
        <time>2019-08-15T06:49:46Z</time>
      </trkpt>
      <trkpt lat="41.5593740" lon="-5.0852970">
        <ele>722.2</ele>
        <time>2019-08-15T06:49:47Z</time>
      </trkpt>
      <trkpt lat="41.5594020" lon="-5.0853540">
        <ele>722.3</ele>
        <time>2019-08-15T06:49:48Z</time>
      </trkpt>
      <trkpt lat="41.5594330" lon="-5.0854090">
        <ele>722.3</ele>
        <time>2019-08-15T06:49:49Z</time>
      </trkpt>
      <trkpt lat="41.5594630" lon="-5.0854630">
        <ele>722.3</ele>
        <time>2019-08-15T06:49:50Z</time>
      </trkpt>
      <trkpt lat="41.5594940" lon="-5.0855170">
        <ele>722.3</ele>
        <time>2019-08-15T06:49:51Z</time>
      </trkpt>
      <trkpt lat="41.5595230" lon="-5.0855740">
        <ele>722.3</ele>
        <time>2019-08-15T06:49:52Z</time>
      </trkpt>
      <trkpt lat="41.5595500" lon="-5.0856340">
        <ele>722.4</ele>
        <time>2019-08-15T06:49:53Z</time>
      </trkpt>
      <trkpt lat="41.5595760" lon="-5.0856950">
        <ele>722.4</ele>
        <time>2019-08-15T06:49:54Z</time>
      </trkpt>
      <trkpt lat="41.5595990" lon="-5.0857560">
        <ele>722.3</ele>
        <time>2019-08-15T06:49:55Z</time>
      </trkpt>
      <trkpt lat="41.5596210" lon="-5.0858180">
        <ele>722.3</ele>
        <time>2019-08-15T06:49:56Z</time>
      </trkpt>
      <trkpt lat="41.5596430" lon="-5.0858820">
        <ele>722.2</ele>
        <time>2019-08-15T06:49:57Z</time>
      </trkpt>
      <trkpt lat="41.5596630" lon="-5.0859460">
        <ele>722.2</ele>
        <time>2019-08-15T06:49:58Z</time>
      </trkpt>
      <trkpt lat="41.5596810" lon="-5.0860100">
        <ele>722.1</ele>
        <time>2019-08-15T06:49:59Z</time>
      </trkpt>
      <trkpt lat="41.5596990" lon="-5.0860720">
        <ele>722.0</ele>
        <time>2019-08-15T06:50:00Z</time>
      </trkpt>
      <trkpt lat="41.5597190" lon="-5.0861290">
        <ele>722.0</ele>
        <time>2019-08-15T06:50:01Z</time>
      </trkpt>
      <trkpt lat="41.5597420" lon="-5.0861770">
        <ele>722.0</ele>
        <time>2019-08-15T06:50:02Z</time>
      </trkpt>
      <trkpt lat="41.5597680" lon="-5.0862110">
        <ele>721.9</ele>
        <time>2019-08-15T06:50:03Z</time>
      </trkpt>
      <trkpt lat="41.5597940" lon="-5.0862300">
        <ele>721.9</ele>
        <time>2019-08-15T06:50:04Z</time>
      </trkpt>
      <trkpt lat="41.5598210" lon="-5.0862360">
        <ele>722.1</ele>
        <time>2019-08-15T06:50:05Z</time>
      </trkpt>
      <trkpt lat="41.5598750" lon="-5.0862170">
        <ele>722.2</ele>
        <time>2019-08-15T06:50:07Z</time>
      </trkpt>
      <trkpt lat="41.5599000" lon="-5.0861870">
        <ele>722.2</ele>
        <time>2019-08-15T06:50:08Z</time>
      </trkpt>
      <trkpt lat="41.5599170" lon="-5.0861450">
        <ele>722.3</ele>
        <time>2019-08-15T06:50:09Z</time>
      </trkpt>
      <trkpt lat="41.5599280" lon="-5.0860950">
        <ele>722.3</ele>
        <time>2019-08-15T06:50:10Z</time>
      </trkpt>
      <trkpt lat="41.5599320" lon="-5.0860410">
        <ele>722.4</ele>
        <time>2019-08-15T06:50:11Z</time>
      </trkpt>
      <trkpt lat="41.5599310" lon="-5.0859840">
        <ele>722.5</ele>
        <time>2019-08-15T06:50:12Z</time>
      </trkpt>
      <trkpt lat="41.5599250" lon="-5.0859250">
        <ele>722.5</ele>
        <time>2019-08-15T06:50:13Z</time>
      </trkpt>
      <trkpt lat="41.5599190" lon="-5.0858650">
        <ele>722.6</ele>
        <time>2019-08-15T06:50:14Z</time>
      </trkpt>
      <trkpt lat="41.5599110" lon="-5.0858040">
        <ele>722.7</ele>
        <time>2019-08-15T06:50:15Z</time>
      </trkpt>
      <trkpt lat="41.5599020" lon="-5.0857430">
        <ele>722.7</ele>
        <time>2019-08-15T06:50:16Z</time>
      </trkpt>
      <trkpt lat="41.5598920" lon="-5.0856820">
        <ele>722.8</ele>
        <time>2019-08-15T06:50:17Z</time>
      </trkpt>
      <trkpt lat="41.5598810" lon="-5.0856200">
        <ele>722.8</ele>
        <time>2019-08-15T06:50:18Z</time>
      </trkpt>
      <trkpt lat="41.5598690" lon="-5.0855560">
        <ele>722.9</ele>
        <time>2019-08-15T06:50:19Z</time>
      </trkpt>
      <trkpt lat="41.5598570" lon="-5.0854930">
        <ele>722.9</ele>
        <time>2019-08-15T06:50:20Z</time>
      </trkpt>
      <trkpt lat="41.5598440" lon="-5.0854300">
        <ele>723.0</ele>
        <time>2019-08-15T06:50:21Z</time>
      </trkpt>
      <trkpt lat="41.5598300" lon="-5.0853680">
        <ele>723.0</ele>
        <time>2019-08-15T06:50:22Z</time>
      </trkpt>
      <trkpt lat="41.5598140" lon="-5.0853060">
        <ele>723.0</ele>
        <time>2019-08-15T06:50:23Z</time>
      </trkpt>
      <trkpt lat="41.5597980" lon="-5.0852430">
        <ele>723.1</ele>
        <time>2019-08-15T06:50:24Z</time>
      </trkpt>
      <trkpt lat="41.5597830" lon="-5.0851790">
        <ele>723.1</ele>
        <time>2019-08-15T06:50:25Z</time>
      </trkpt>
      <trkpt lat="41.5597670" lon="-5.0851130">
        <ele>723.1</ele>
        <time>2019-08-15T06:50:26Z</time>
      </trkpt>
      <trkpt lat="41.5597530" lon="-5.0850470">
        <ele>723.1</ele>
        <time>2019-08-15T06:50:27Z</time>
      </trkpt>
      <trkpt lat="41.5597410" lon="-5.0849800">
        <ele>723.1</ele>
        <time>2019-08-15T06:50:28Z</time>
      </trkpt>
      <trkpt lat="41.5597320" lon="-5.0849120">
        <ele>723.1</ele>
        <time>2019-08-15T06:50:29Z</time>
      </trkpt>
      <trkpt lat="41.5597260" lon="-5.0848440">
        <ele>723.2</ele>
        <time>2019-08-15T06:50:30Z</time>
      </trkpt>
      <trkpt lat="41.5597240" lon="-5.0847770">
        <ele>723.2</ele>
        <time>2019-08-15T06:50:31Z</time>
      </trkpt>
      <trkpt lat="41.5597290" lon="-5.0847120">
        <ele>723.2</ele>
        <time>2019-08-15T06:50:32Z</time>
      </trkpt>
      <trkpt lat="41.5597440" lon="-5.0846570">
        <ele>723.3</ele>
        <time>2019-08-15T06:50:33Z</time>
      </trkpt>
      <trkpt lat="41.5597710" lon="-5.0846170">
        <ele>723.4</ele>
        <time>2019-08-15T06:50:34Z</time>
      </trkpt>
      <trkpt lat="41.5598070" lon="-5.0845950">
        <ele>723.4</ele>
        <time>2019-08-15T06:50:35Z</time>
      </trkpt>
      <trkpt lat="41.5598470" lon="-5.0845930">
        <ele>723.5</ele>
        <time>2019-08-15T06:50:36Z</time>
      </trkpt>
      <trkpt lat="41.5598870" lon="-5.0846080">
        <ele>723.5</ele>
        <time>2019-08-15T06:50:37Z</time>
      </trkpt>
      <trkpt lat="41.5599270" lon="-5.0846330">
        <ele>723.6</ele>
        <time>2019-08-15T06:50:38Z</time>
      </trkpt>
      <trkpt lat="41.5599660" lon="-5.0846610">
        <ele>723.6</ele>
        <time>2019-08-15T06:50:39Z</time>
      </trkpt>
      <trkpt lat="41.5600030" lon="-5.0846920">
        <ele>723.6</ele>
        <time>2019-08-15T06:50:40Z</time>
      </trkpt>
      <trkpt lat="41.5600410" lon="-5.0847230">
        <ele>723.6</ele>
        <time>2019-08-15T06:50:41Z</time>
      </trkpt>
      <trkpt lat="41.5600790" lon="-5.0847550">
        <ele>723.6</ele>
        <time>2019-08-15T06:50:42Z</time>
      </trkpt>
      <trkpt lat="41.5601180" lon="-5.0847870">
        <ele>723.6</ele>
        <time>2019-08-15T06:50:43Z</time>
      </trkpt>
      <trkpt lat="41.5601570" lon="-5.0848200">
        <ele>723.5</ele>
        <time>2019-08-15T06:50:44Z</time>
      </trkpt>
      <trkpt lat="41.5601960" lon="-5.0848500">
        <ele>723.4</ele>
        <time>2019-08-15T06:50:45Z</time>
      </trkpt>
      <trkpt lat="41.5602350" lon="-5.0848800">
        <ele>723.4</ele>
        <time>2019-08-15T06:50:46Z</time>
      </trkpt>
      <trkpt lat="41.5602730" lon="-5.0849110">
        <ele>723.3</ele>
        <time>2019-08-15T06:50:47Z</time>
      </trkpt>
      <trkpt lat="41.5603120" lon="-5.0849430">
        <ele>723.2</ele>
        <time>2019-08-15T06:50:48Z</time>
      </trkpt>
      <trkpt lat="41.5603520" lon="-5.0849750">
        <ele>723.1</ele>
        <time>2019-08-15T06:50:49Z</time>
      </trkpt>
      <trkpt lat="41.5603930" lon="-5.0850040">
        <ele>723.1</ele>
        <time>2019-08-15T06:50:50Z</time>
      </trkpt>
      <trkpt lat="41.5604330" lon="-5.0850360">
        <ele>723.0</ele>
        <time>2019-08-15T06:50:51Z</time>
      </trkpt>
      <trkpt lat="41.5604720" lon="-5.0850700">
        <ele>723.0</ele>
        <time>2019-08-15T06:50:52Z</time>
      </trkpt>
      <trkpt lat="41.5605110" lon="-5.0851040">
        <ele>723.0</ele>
        <time>2019-08-15T06:50:53Z</time>
      </trkpt>
      <trkpt lat="41.5605510" lon="-5.0851370">
        <ele>722.9</ele>
        <time>2019-08-15T06:50:54Z</time>
      </trkpt>
      <trkpt lat="41.5605900" lon="-5.0851700">
        <ele>722.9</ele>
        <time>2019-08-15T06:50:55Z</time>
      </trkpt>
      <trkpt lat="41.5606300" lon="-5.0852040">
        <ele>722.9</ele>
        <time>2019-08-15T06:50:56Z</time>
      </trkpt>
      <trkpt lat="41.5606700" lon="-5.0852360">
        <ele>722.8</ele>
        <time>2019-08-15T06:50:57Z</time>
      </trkpt>
      <trkpt lat="41.5607090" lon="-5.0852670">
        <ele>722.8</ele>
        <time>2019-08-15T06:50:58Z</time>
      </trkpt>
      <trkpt lat="41.5607480" lon="-5.0852980">
        <ele>722.7</ele>
        <time>2019-08-15T06:50:59Z</time>
      </trkpt>
      <trkpt lat="41.5607860" lon="-5.0853300">
        <ele>722.7</ele>
        <time>2019-08-15T06:51:00Z</time>
      </trkpt>
      <trkpt lat="41.5608240" lon="-5.0853620">
        <ele>722.6</ele>
        <time>2019-08-15T06:51:01Z</time>
      </trkpt>
      <trkpt lat="41.5608650" lon="-5.0853940">
        <ele>722.6</ele>
        <time>2019-08-15T06:51:02Z</time>
      </trkpt>
      <trkpt lat="41.5609040" lon="-5.0854270">
        <ele>722.5</ele>
        <time>2019-08-15T06:51:03Z</time>
      </trkpt>
      <trkpt lat="41.5609430" lon="-5.0854590">
        <ele>722.5</ele>
        <time>2019-08-15T06:51:04Z</time>
      </trkpt>
      <trkpt lat="41.5609820" lon="-5.0854930">
        <ele>722.5</ele>
        <time>2019-08-15T06:51:05Z</time>
      </trkpt>
      <trkpt lat="41.5610220" lon="-5.0855260">
        <ele>722.5</ele>
        <time>2019-08-15T06:51:06Z</time>
      </trkpt>
      <trkpt lat="41.5610620" lon="-5.0855590">
        <ele>722.5</ele>
        <time>2019-08-15T06:51:07Z</time>
      </trkpt>
      <trkpt lat="41.5611020" lon="-5.0855920">
        <ele>722.5</ele>
        <time>2019-08-15T06:51:08Z</time>
      </trkpt>
      <trkpt lat="41.5611420" lon="-5.0856230">
        <ele>722.6</ele>
        <time>2019-08-15T06:51:09Z</time>
      </trkpt>
      <trkpt lat="41.5611820" lon="-5.0856550">
        <ele>722.7</ele>
        <time>2019-08-15T06:51:10Z</time>
      </trkpt>
      <trkpt lat="41.5612210" lon="-5.0856870">
        <ele>722.7</ele>
        <time>2019-08-15T06:51:11Z</time>
      </trkpt>
      <trkpt lat="41.5612600" lon="-5.0857200">
        <ele>722.8</ele>
        <time>2019-08-15T06:51:12Z</time>
      </trkpt>
      <trkpt lat="41.5612990" lon="-5.0857520">
        <ele>722.8</ele>
        <time>2019-08-15T06:51:13Z</time>
      </trkpt>
      <trkpt lat="41.5613390" lon="-5.0857820">
        <ele>722.9</ele>
        <time>2019-08-15T06:51:14Z</time>
      </trkpt>
      <trkpt lat="41.5613790" lon="-5.0858130">
        <ele>723.0</ele>
        <time>2019-08-15T06:51:15Z</time>
      </trkpt>
      <trkpt lat="41.5614180" lon="-5.0858450">
        <ele>723.1</ele>
        <time>2019-08-15T06:51:16Z</time>
      </trkpt>
      <trkpt lat="41.5614570" lon="-5.0858760">
        <ele>723.1</ele>
        <time>2019-08-15T06:51:17Z</time>
      </trkpt>
      <trkpt lat="41.5614960" lon="-5.0859060">
        <ele>723.2</ele>
        <time>2019-08-15T06:51:18Z</time>
      </trkpt>
      <trkpt lat="41.5615350" lon="-5.0859360">
        <ele>723.3</ele>
        <time>2019-08-15T06:51:19Z</time>
      </trkpt>
      <trkpt lat="41.5615730" lon="-5.0859660">
        <ele>723.4</ele>
        <time>2019-08-15T06:51:20Z</time>
      </trkpt>
      <trkpt lat="41.5616120" lon="-5.0859960">
        <ele>723.5</ele>
        <time>2019-08-15T06:51:21Z</time>
      </trkpt>
      <trkpt lat="41.5616500" lon="-5.0860260">
        <ele>723.5</ele>
        <time>2019-08-15T06:51:22Z</time>
      </trkpt>
      <trkpt lat="41.5616890" lon="-5.0860560">
        <ele>723.6</ele>
        <time>2019-08-15T06:51:23Z</time>
      </trkpt>
      <trkpt lat="41.5617270" lon="-5.0860850">
        <ele>723.8</ele>
        <time>2019-08-15T06:51:24Z</time>
      </trkpt>
      <trkpt lat="41.5617640" lon="-5.0861160">
        <ele>723.8</ele>
        <time>2019-08-15T06:51:25Z</time>
      </trkpt>
      <trkpt lat="41.5618010" lon="-5.0861460">
        <ele>723.9</ele>
        <time>2019-08-15T06:51:26Z</time>
      </trkpt>
      <trkpt lat="41.5618370" lon="-5.0861760">
        <ele>724.0</ele>
        <time>2019-08-15T06:51:27Z</time>
      </trkpt>
      <trkpt lat="41.5618740" lon="-5.0862060">
        <ele>724.0</ele>
        <time>2019-08-15T06:51:28Z</time>
      </trkpt>
      <trkpt lat="41.5619110" lon="-5.0862370">
        <ele>724.2</ele>
        <time>2019-08-15T06:51:29Z</time>
      </trkpt>
      <trkpt lat="41.5619480" lon="-5.0862670">
        <ele>724.3</ele>
        <time>2019-08-15T06:51:30Z</time>
      </trkpt>
      <trkpt lat="41.5619840" lon="-5.0862950">
        <ele>724.4</ele>
        <time>2019-08-15T06:51:31Z</time>
      </trkpt>
      <trkpt lat="41.5620220" lon="-5.0863260">
        <ele>724.4</ele>
        <time>2019-08-15T06:51:32Z</time>
      </trkpt>
      <trkpt lat="41.5620590" lon="-5.0863570">
        <ele>724.5</ele>
        <time>2019-08-15T06:51:33Z</time>
      </trkpt>
      <trkpt lat="41.5620980" lon="-5.0863870">
        <ele>724.7</ele>
        <time>2019-08-15T06:51:34Z</time>
      </trkpt>
      <trkpt lat="41.5621380" lon="-5.0864170">
        <ele>724.8</ele>
        <time>2019-08-15T06:51:35Z</time>
      </trkpt>
      <trkpt lat="41.5621770" lon="-5.0864470">
        <ele>724.9</ele>
        <time>2019-08-15T06:51:36Z</time>
      </trkpt>
      <trkpt lat="41.5622150" lon="-5.0864770">
        <ele>725.0</ele>
        <time>2019-08-15T06:51:37Z</time>
      </trkpt>
      <trkpt lat="41.5622560" lon="-5.0865080">
        <ele>725.1</ele>
        <time>2019-08-15T06:51:38Z</time>
      </trkpt>
      <trkpt lat="41.5622960" lon="-5.0865390">
        <ele>725.2</ele>
        <time>2019-08-15T06:51:39Z</time>
      </trkpt>
      <trkpt lat="41.5623370" lon="-5.0865700">
        <ele>725.4</ele>
        <time>2019-08-15T06:51:40Z</time>
      </trkpt>
      <trkpt lat="41.5623770" lon="-5.0866010">
        <ele>725.5</ele>
        <time>2019-08-15T06:51:41Z</time>
      </trkpt>
      <trkpt lat="41.5624180" lon="-5.0866340">
        <ele>725.6</ele>
        <time>2019-08-15T06:51:42Z</time>
      </trkpt>
      <trkpt lat="41.5624590" lon="-5.0866650">
        <ele>725.7</ele>
        <time>2019-08-15T06:51:43Z</time>
      </trkpt>
      <trkpt lat="41.5624990" lon="-5.0866970">
        <ele>725.9</ele>
        <time>2019-08-15T06:51:44Z</time>
      </trkpt>
      <trkpt lat="41.5625390" lon="-5.0867280">
        <ele>726.0</ele>
        <time>2019-08-15T06:51:45Z</time>
      </trkpt>
      <trkpt lat="41.5625780" lon="-5.0867590">
        <ele>726.0</ele>
        <time>2019-08-15T06:51:46Z</time>
      </trkpt>
      <trkpt lat="41.5626170" lon="-5.0867910">
        <ele>726.1</ele>
        <time>2019-08-15T06:51:47Z</time>
      </trkpt>
      <trkpt lat="41.5626550" lon="-5.0868210">
        <ele>726.2</ele>
        <time>2019-08-15T06:51:48Z</time>
      </trkpt>
      <trkpt lat="41.5626940" lon="-5.0868500">
        <ele>726.3</ele>
        <time>2019-08-15T06:51:49Z</time>
      </trkpt>
      <trkpt lat="41.5627330" lon="-5.0868800">
        <ele>726.4</ele>
        <time>2019-08-15T06:51:50Z</time>
      </trkpt>
      <trkpt lat="41.5627730" lon="-5.0869090">
        <ele>726.4</ele>
        <time>2019-08-15T06:51:51Z</time>
      </trkpt>
      <trkpt lat="41.5628110" lon="-5.0869390">
        <ele>726.5</ele>
        <time>2019-08-15T06:51:52Z</time>
      </trkpt>
      <trkpt lat="41.5628490" lon="-5.0869700">
        <ele>726.6</ele>
        <time>2019-08-15T06:51:53Z</time>
      </trkpt>
      <trkpt lat="41.5628880" lon="-5.0870010">
        <ele>726.7</ele>
        <time>2019-08-15T06:51:54Z</time>
      </trkpt>
      <trkpt lat="41.5629260" lon="-5.0870310">
        <ele>726.7</ele>
        <time>2019-08-15T06:51:55Z</time>
      </trkpt>
      <trkpt lat="41.5629650" lon="-5.0870610">
        <ele>726.7</ele>
        <time>2019-08-15T06:51:56Z</time>
      </trkpt>
      <trkpt lat="41.5630040" lon="-5.0870900">
        <ele>726.8</ele>
        <time>2019-08-15T06:51:57Z</time>
      </trkpt>
      <trkpt lat="41.5630430" lon="-5.0871190">
        <ele>726.9</ele>
        <time>2019-08-15T06:51:58Z</time>
      </trkpt>
      <trkpt lat="41.5630810" lon="-5.0871480">
        <ele>727.0</ele>
        <time>2019-08-15T06:51:59Z</time>
      </trkpt>
      <trkpt lat="41.5631210" lon="-5.0871770">
        <ele>727.1</ele>
        <time>2019-08-15T06:52:00Z</time>
      </trkpt>
      <trkpt lat="41.5631610" lon="-5.0872040">
        <ele>727.1</ele>
        <time>2019-08-15T06:52:01Z</time>
      </trkpt>
      <trkpt lat="41.5632000" lon="-5.0872320">
        <ele>727.2</ele>
        <time>2019-08-15T06:52:02Z</time>
      </trkpt>
      <trkpt lat="41.5632390" lon="-5.0872610">
        <ele>727.3</ele>
        <time>2019-08-15T06:52:03Z</time>
      </trkpt>
      <trkpt lat="41.5632780" lon="-5.0872910">
        <ele>727.4</ele>
        <time>2019-08-15T06:52:04Z</time>
      </trkpt>
      <trkpt lat="41.5633160" lon="-5.0873200">
        <ele>727.5</ele>
        <time>2019-08-15T06:52:05Z</time>
      </trkpt>
      <trkpt lat="41.5633540" lon="-5.0873490">
        <ele>727.5</ele>
        <time>2019-08-15T06:52:06Z</time>
      </trkpt>
      <trkpt lat="41.5633910" lon="-5.0873770">
        <ele>727.6</ele>
        <time>2019-08-15T06:52:07Z</time>
      </trkpt>
      <trkpt lat="41.5634290" lon="-5.0874060">
        <ele>727.7</ele>
        <time>2019-08-15T06:52:08Z</time>
      </trkpt>
      <trkpt lat="41.5634660" lon="-5.0874330">
        <ele>727.7</ele>
        <time>2019-08-15T06:52:09Z</time>
      </trkpt>
      <trkpt lat="41.5635020" lon="-5.0874600">
        <ele>727.8</ele>
        <time>2019-08-15T06:52:10Z</time>
      </trkpt>
      <trkpt lat="41.5635370" lon="-5.0874870">
        <ele>727.8</ele>
        <time>2019-08-15T06:52:11Z</time>
      </trkpt>
      <trkpt lat="41.5635720" lon="-5.0875130">
        <ele>727.9</ele>
        <time>2019-08-15T06:52:12Z</time>
      </trkpt>
      <trkpt lat="41.5636060" lon="-5.0875400">
        <ele>727.9</ele>
        <time>2019-08-15T06:52:13Z</time>
      </trkpt>
      <trkpt lat="41.5636420" lon="-5.0875670">
        <ele>727.9</ele>
        <time>2019-08-15T06:52:14Z</time>
      </trkpt>
      <trkpt lat="41.5636750" lon="-5.0875940">
        <ele>727.9</ele>
        <time>2019-08-15T06:52:15Z</time>
      </trkpt>
      <trkpt lat="41.5637090" lon="-5.0876200">
        <ele>727.9</ele>
        <time>2019-08-15T06:52:16Z</time>
      </trkpt>
      <trkpt lat="41.5637430" lon="-5.0876460">
        <ele>727.9</ele>
        <time>2019-08-15T06:52:17Z</time>
      </trkpt>
      <trkpt lat="41.5637780" lon="-5.0876720">
        <ele>727.9</ele>
        <time>2019-08-15T06:52:18Z</time>
      </trkpt>
      <trkpt lat="41.5638120" lon="-5.0876990">
        <ele>727.9</ele>
        <time>2019-08-15T06:52:19Z</time>
      </trkpt>
      <trkpt lat="41.5638450" lon="-5.0877250">
        <ele>728.0</ele>
        <time>2019-08-15T06:52:20Z</time>
      </trkpt>
      <trkpt lat="41.5638800" lon="-5.0877500">
        <ele>728.0</ele>
        <time>2019-08-15T06:52:21Z</time>
      </trkpt>
      <trkpt lat="41.5639140" lon="-5.0877750">
        <ele>728.0</ele>
        <time>2019-08-15T06:52:22Z</time>
      </trkpt>
      <trkpt lat="41.5639480" lon="-5.0878000">
        <ele>728.0</ele>
        <time>2019-08-15T06:52:23Z</time>
      </trkpt>
      <trkpt lat="41.5639810" lon="-5.0878260">
        <ele>728.0</ele>
        <time>2019-08-15T06:52:24Z</time>
      </trkpt>
      <trkpt lat="41.5640130" lon="-5.0878520">
        <ele>728.0</ele>
        <time>2019-08-15T06:52:25Z</time>
      </trkpt>
      <trkpt lat="41.5640460" lon="-5.0878790">
        <ele>728.0</ele>
        <time>2019-08-15T06:52:26Z</time>
      </trkpt>
      <trkpt lat="41.5640790" lon="-5.0879040">
        <ele>728.1</ele>
        <time>2019-08-15T06:52:27Z</time>
      </trkpt>
      <trkpt lat="41.5641140" lon="-5.0879310">
        <ele>728.1</ele>
        <time>2019-08-15T06:52:28Z</time>
      </trkpt>
      <trkpt lat="41.5641480" lon="-5.0879580">
        <ele>728.2</ele>
        <time>2019-08-15T06:52:29Z</time>
      </trkpt>
      <trkpt lat="41.5641810" lon="-5.0879860">
        <ele>728.2</ele>
        <time>2019-08-15T06:52:30Z</time>
      </trkpt>
      <trkpt lat="41.5642130" lon="-5.0880150">
        <ele>728.3</ele>
        <time>2019-08-15T06:52:31Z</time>
      </trkpt>
      <trkpt lat="41.5642450" lon="-5.0880410">
        <ele>728.4</ele>
        <time>2019-08-15T06:52:32Z</time>
      </trkpt>
      <trkpt lat="41.5642780" lon="-5.0880680">
        <ele>728.5</ele>
        <time>2019-08-15T06:52:33Z</time>
      </trkpt>
      <trkpt lat="41.5643110" lon="-5.0880940">
        <ele>728.6</ele>
        <time>2019-08-15T06:52:34Z</time>
      </trkpt>
      <trkpt lat="41.5643440" lon="-5.0881200">
        <ele>728.6</ele>
        <time>2019-08-15T06:52:35Z</time>
      </trkpt>
      <trkpt lat="41.5643770" lon="-5.0881460">
        <ele>728.7</ele>
        <time>2019-08-15T06:52:36Z</time>
      </trkpt>
      <trkpt lat="41.5644090" lon="-5.0881710">
        <ele>728.8</ele>
        <time>2019-08-15T06:52:37Z</time>
      </trkpt>
      <trkpt lat="41.5644400" lon="-5.0881980">
        <ele>728.9</ele>
        <time>2019-08-15T06:52:38Z</time>
      </trkpt>
      <trkpt lat="41.5644710" lon="-5.0882240">
        <ele>729.0</ele>
        <time>2019-08-15T06:52:39Z</time>
      </trkpt>
      <trkpt lat="41.5645020" lon="-5.0882480">
        <ele>729.1</ele>
        <time>2019-08-15T06:52:40Z</time>
      </trkpt>
      <trkpt lat="41.5645320" lon="-5.0882720">
        <ele>729.1</ele>
        <time>2019-08-15T06:52:41Z</time>
      </trkpt>
      <trkpt lat="41.5645620" lon="-5.0882960">
        <ele>729.2</ele>
        <time>2019-08-15T06:52:42Z</time>
      </trkpt>
      <trkpt lat="41.5645920" lon="-5.0883200">
        <ele>729.3</ele>
        <time>2019-08-15T06:52:43Z</time>
      </trkpt>
      <trkpt lat="41.5646210" lon="-5.0883430">
        <ele>729.4</ele>
        <time>2019-08-15T06:52:44Z</time>
      </trkpt>
      <trkpt lat="41.5646500" lon="-5.0883660">
        <ele>729.5</ele>
        <time>2019-08-15T06:52:45Z</time>
      </trkpt>
      <trkpt lat="41.5646790" lon="-5.0883880">
        <ele>729.6</ele>
        <time>2019-08-15T06:52:46Z</time>
      </trkpt>
      <trkpt lat="41.5647070" lon="-5.0884110">
        <ele>729.7</ele>
        <time>2019-08-15T06:52:47Z</time>
      </trkpt>
      <trkpt lat="41.5647350" lon="-5.0884350">
        <ele>729.8</ele>
        <time>2019-08-15T06:52:48Z</time>
      </trkpt>
      <trkpt lat="41.5647630" lon="-5.0884590">
        <ele>729.9</ele>
        <time>2019-08-15T06:52:49Z</time>
      </trkpt>
      <trkpt lat="41.5647920" lon="-5.0884820">
        <ele>730.1</ele>
        <time>2019-08-15T06:52:50Z</time>
      </trkpt>
      <trkpt lat="41.5648200" lon="-5.0885060">
        <ele>730.2</ele>
        <time>2019-08-15T06:52:51Z</time>
      </trkpt>
      <trkpt lat="41.5648480" lon="-5.0885290">
        <ele>730.4</ele>
        <time>2019-08-15T06:52:52Z</time>
      </trkpt>
      <trkpt lat="41.5648760" lon="-5.0885510">
        <ele>730.5</ele>
        <time>2019-08-15T06:52:53Z</time>
      </trkpt>
      <trkpt lat="41.5649030" lon="-5.0885730">
        <ele>730.6</ele>
        <time>2019-08-15T06:52:54Z</time>
      </trkpt>
      <trkpt lat="41.5649290" lon="-5.0885950">
        <ele>730.8</ele>
        <time>2019-08-15T06:52:55Z</time>
      </trkpt>
      <trkpt lat="41.5649560" lon="-5.0886160">
        <ele>730.9</ele>
        <time>2019-08-15T06:52:56Z</time>
      </trkpt>
      <trkpt lat="41.5649830" lon="-5.0886370">
        <ele>731.1</ele>
        <time>2019-08-15T06:52:57Z</time>
      </trkpt>
      <trkpt lat="41.5650100" lon="-5.0886590">
        <ele>731.4</ele>
        <time>2019-08-15T06:52:58Z</time>
      </trkpt>
      <trkpt lat="41.5650370" lon="-5.0886810">
        <ele>731.5</ele>
        <time>2019-08-15T06:52:59Z</time>
      </trkpt>
      <trkpt lat="41.5650620" lon="-5.0887020">
        <ele>731.6</ele>
        <time>2019-08-15T06:53:00Z</time>
      </trkpt>
      <trkpt lat="41.5650880" lon="-5.0887230">
        <ele>731.7</ele>
        <time>2019-08-15T06:53:01Z</time>
      </trkpt>
      <trkpt lat="41.5651140" lon="-5.0887440">
        <ele>731.9</ele>
        <time>2019-08-15T06:53:02Z</time>
      </trkpt>
      <trkpt lat="41.5651400" lon="-5.0887640">
        <ele>732.0</ele>
        <time>2019-08-15T06:53:03Z</time>
      </trkpt>
      <trkpt lat="41.5651650" lon="-5.0887830">
        <ele>732.1</ele>
        <time>2019-08-15T06:53:04Z</time>
      </trkpt>
      <trkpt lat="41.5651920" lon="-5.0888030">
        <ele>732.2</ele>
        <time>2019-08-15T06:53:05Z</time>
      </trkpt>
      <trkpt lat="41.5652190" lon="-5.0888230">
        <ele>732.3</ele>
        <time>2019-08-15T06:53:06Z</time>
      </trkpt>
      <trkpt lat="41.5652470" lon="-5.0888430">
        <ele>732.4</ele>
        <time>2019-08-15T06:53:07Z</time>
      </trkpt>
      <trkpt lat="41.5652750" lon="-5.0888630">
        <ele>732.5</ele>
        <time>2019-08-15T06:53:08Z</time>
      </trkpt>
      <trkpt lat="41.5653040" lon="-5.0888840">
        <ele>732.7</ele>
        <time>2019-08-15T06:53:09Z</time>
      </trkpt>
      <trkpt lat="41.5653330" lon="-5.0889060">
        <ele>732.8</ele>
        <time>2019-08-15T06:53:10Z</time>
      </trkpt>
      <trkpt lat="41.5653620" lon="-5.0889270">
        <ele>733.0</ele>
        <time>2019-08-15T06:53:11Z</time>
      </trkpt>
      <trkpt lat="41.5653920" lon="-5.0889490">
        <ele>733.1</ele>
        <time>2019-08-15T06:53:12Z</time>
      </trkpt>
      <trkpt lat="41.5654230" lon="-5.0889700">
        <ele>733.4</ele>
        <time>2019-08-15T06:53:13Z</time>
      </trkpt>
      <trkpt lat="41.5654530" lon="-5.0889910">
        <ele>733.8</ele>
        <time>2019-08-15T06:53:14Z</time>
      </trkpt>
      <trkpt lat="41.5654840" lon="-5.0890140">
        <ele>734.1</ele>
        <time>2019-08-15T06:53:15Z</time>
      </trkpt>
      <trkpt lat="41.5655160" lon="-5.0890360">
        <ele>734.4</ele>
        <time>2019-08-15T06:53:16Z</time>
      </trkpt>
      <trkpt lat="41.5655460" lon="-5.0890580">
        <ele>734.6</ele>
        <time>2019-08-15T06:53:17Z</time>
      </trkpt>
      <trkpt lat="41.5655770" lon="-5.0890800">
        <ele>734.8</ele>
        <time>2019-08-15T06:53:18Z</time>
      </trkpt>
      <trkpt lat="41.5656060" lon="-5.0891020">
        <ele>735.0</ele>
        <time>2019-08-15T06:53:19Z</time>
      </trkpt>
      <trkpt lat="41.5656360" lon="-5.0891230">
        <ele>735.2</ele>
        <time>2019-08-15T06:53:20Z</time>
      </trkpt>
      <trkpt lat="41.5656660" lon="-5.0891460">
        <ele>735.5</ele>
        <time>2019-08-15T06:53:21Z</time>
      </trkpt>
      <trkpt lat="41.5656960" lon="-5.0891680">
        <ele>735.7</ele>
        <time>2019-08-15T06:53:22Z</time>
      </trkpt>
      <trkpt lat="41.5657260" lon="-5.0891900">
        <ele>735.8</ele>
        <time>2019-08-15T06:53:23Z</time>
      </trkpt>
      <trkpt lat="41.5657570" lon="-5.0892130">
        <ele>735.8</ele>
        <time>2019-08-15T06:53:24Z</time>
      </trkpt>
      <trkpt lat="41.5657880" lon="-5.0892360">
        <ele>735.9</ele>
        <time>2019-08-15T06:53:25Z</time>
      </trkpt>
      <trkpt lat="41.5658190" lon="-5.0892600">
        <ele>735.9</ele>
        <time>2019-08-15T06:53:26Z</time>
      </trkpt>
      <trkpt lat="41.5658500" lon="-5.0892830">
        <ele>735.9</ele>
        <time>2019-08-15T06:53:27Z</time>
      </trkpt>
      <trkpt lat="41.5658830" lon="-5.0893070">
        <ele>735.8</ele>
        <time>2019-08-15T06:53:28Z</time>
      </trkpt>
      <trkpt lat="41.5659170" lon="-5.0893310">
        <ele>735.7</ele>
        <time>2019-08-15T06:53:29Z</time>
      </trkpt>
      <trkpt lat="41.5659510" lon="-5.0893540">
        <ele>735.5</ele>
        <time>2019-08-15T06:53:30Z</time>
      </trkpt>
      <trkpt lat="41.5659870" lon="-5.0893760">
        <ele>735.2</ele>
        <time>2019-08-15T06:53:31Z</time>
      </trkpt>
      <trkpt lat="41.5660220" lon="-5.0894000">
        <ele>735.0</ele>
        <time>2019-08-15T06:53:32Z</time>
      </trkpt>
      <trkpt lat="41.5660570" lon="-5.0894240">
        <ele>734.8</ele>
        <time>2019-08-15T06:53:33Z</time>
      </trkpt>
      <trkpt lat="41.5660940" lon="-5.0894470">
        <ele>734.6</ele>
        <time>2019-08-15T06:53:34Z</time>
      </trkpt>
      <trkpt lat="41.5661310" lon="-5.0894710">
        <ele>734.4</ele>
        <time>2019-08-15T06:53:35Z</time>
      </trkpt>
      <trkpt lat="41.5661660" lon="-5.0894970">
        <ele>734.3</ele>
        <time>2019-08-15T06:53:36Z</time>
      </trkpt>
      <trkpt lat="41.5662020" lon="-5.0895210">
        <ele>734.1</ele>
        <time>2019-08-15T06:53:37Z</time>
      </trkpt>
      <trkpt lat="41.5662390" lon="-5.0895440">
        <ele>734.0</ele>
        <time>2019-08-15T06:53:38Z</time>
      </trkpt>
      <trkpt lat="41.5662760" lon="-5.0895690">
        <ele>733.9</ele>
        <time>2019-08-15T06:53:39Z</time>
      </trkpt>
      <trkpt lat="41.5663140" lon="-5.0895940">
        <ele>733.8</ele>
        <time>2019-08-15T06:53:40Z</time>
      </trkpt>
      <trkpt lat="41.5663520" lon="-5.0896200">
        <ele>733.8</ele>
        <time>2019-08-15T06:53:41Z</time>
      </trkpt>
      <trkpt lat="41.5663930" lon="-5.0896480">
        <ele>733.7</ele>
        <time>2019-08-15T06:53:42Z</time>
      </trkpt>
      <trkpt lat="41.5664330" lon="-5.0896750">
        <ele>733.7</ele>
        <time>2019-08-15T06:53:43Z</time>
      </trkpt>
      <trkpt lat="41.5664750" lon="-5.0897040">
        <ele>733.8</ele>
        <time>2019-08-15T06:53:44Z</time>
      </trkpt>
      <trkpt lat="41.5665170" lon="-5.0897330">
        <ele>733.8</ele>
        <time>2019-08-15T06:53:45Z</time>
      </trkpt>
      <trkpt lat="41.5665600" lon="-5.0897620">
        <ele>733.8</ele>
        <time>2019-08-15T06:53:46Z</time>
      </trkpt>
      <trkpt lat="41.5666050" lon="-5.0897910">
        <ele>733.8</ele>
        <time>2019-08-15T06:53:47Z</time>
      </trkpt>
      <trkpt lat="41.5666490" lon="-5.0898220">
        <ele>733.8</ele>
        <time>2019-08-15T06:53:48Z</time>
      </trkpt>
      <trkpt lat="41.5666940" lon="-5.0898520">
        <ele>733.8</ele>
        <time>2019-08-15T06:53:49Z</time>
      </trkpt>
      <trkpt lat="41.5667390" lon="-5.0898830">
        <ele>733.8</ele>
        <time>2019-08-15T06:53:50Z</time>
      </trkpt>
      <trkpt lat="41.5667840" lon="-5.0899130">
        <ele>733.8</ele>
        <time>2019-08-15T06:53:51Z</time>
      </trkpt>
      <trkpt lat="41.5668290" lon="-5.0899420">
        <ele>733.8</ele>
        <time>2019-08-15T06:53:52Z</time>
      </trkpt>
      <trkpt lat="41.5668730" lon="-5.0899710">
        <ele>733.9</ele>
        <time>2019-08-15T06:53:53Z</time>
      </trkpt>
      <trkpt lat="41.5669160" lon="-5.0899990">
        <ele>733.9</ele>
        <time>2019-08-15T06:53:54Z</time>
      </trkpt>
      <trkpt lat="41.5669600" lon="-5.0900250">
        <ele>733.9</ele>
        <time>2019-08-15T06:53:55Z</time>
      </trkpt>
      <trkpt lat="41.5670010" lon="-5.0900510">
        <ele>734.0</ele>
        <time>2019-08-15T06:53:56Z</time>
      </trkpt>
      <trkpt lat="41.5670390" lon="-5.0900780">
        <ele>734.0</ele>
        <time>2019-08-15T06:53:57Z</time>
      </trkpt>
      <trkpt lat="41.5670760" lon="-5.0901020">
        <ele>734.0</ele>
        <time>2019-08-15T06:53:58Z</time>
      </trkpt>
      <trkpt lat="41.5671110" lon="-5.0901260">
        <ele>734.0</ele>
        <time>2019-08-15T06:53:59Z</time>
      </trkpt>
      <trkpt lat="41.5671470" lon="-5.0901500">
        <ele>734.1</ele>
        <time>2019-08-15T06:54:00Z</time>
      </trkpt>
      <trkpt lat="41.5671820" lon="-5.0901750">
        <ele>734.1</ele>
        <time>2019-08-15T06:54:01Z</time>
      </trkpt>
      <trkpt lat="41.5672150" lon="-5.0902010">
        <ele>734.1</ele>
        <time>2019-08-15T06:54:02Z</time>
      </trkpt>
      <trkpt lat="41.5672500" lon="-5.0902250">
        <ele>734.1</ele>
        <time>2019-08-15T06:54:03Z</time>
      </trkpt>
      <trkpt lat="41.5672840" lon="-5.0902490">
        <ele>734.2</ele>
        <time>2019-08-15T06:54:04Z</time>
      </trkpt>
      <trkpt lat="41.5673190" lon="-5.0902710">
        <ele>734.2</ele>
        <time>2019-08-15T06:54:05Z</time>
      </trkpt>
      <trkpt lat="41.5673530" lon="-5.0902940">
        <ele>734.3</ele>
        <time>2019-08-15T06:54:06Z</time>
      </trkpt>
      <trkpt lat="41.5673860" lon="-5.0903170">
        <ele>734.3</ele>
        <time>2019-08-15T06:54:07Z</time>
      </trkpt>
      <trkpt lat="41.5674200" lon="-5.0903380">
        <ele>734.4</ele>
        <time>2019-08-15T06:54:08Z</time>
      </trkpt>
      <trkpt lat="41.5674550" lon="-5.0903620">
        <ele>734.4</ele>
        <time>2019-08-15T06:54:09Z</time>
      </trkpt>
      <trkpt lat="41.5674880" lon="-5.0903860">
        <ele>734.5</ele>
        <time>2019-08-15T06:54:10Z</time>
      </trkpt>
      <trkpt lat="41.5675220" lon="-5.0904120">
        <ele>734.6</ele>
        <time>2019-08-15T06:54:11Z</time>
      </trkpt>
      <trkpt lat="41.5675560" lon="-5.0904360">
        <ele>734.7</ele>
        <time>2019-08-15T06:54:12Z</time>
      </trkpt>
      <trkpt lat="41.5675900" lon="-5.0904590">
        <ele>734.8</ele>
        <time>2019-08-15T06:54:13Z</time>
      </trkpt>
      <trkpt lat="41.5676250" lon="-5.0904830">
        <ele>734.9</ele>
        <time>2019-08-15T06:54:14Z</time>
      </trkpt>
      <trkpt lat="41.5676580" lon="-5.0905080">
        <ele>734.9</ele>
        <time>2019-08-15T06:54:15Z</time>
      </trkpt>
      <trkpt lat="41.5676920" lon="-5.0905320">
        <ele>734.9</ele>
        <time>2019-08-15T06:54:16Z</time>
      </trkpt>
      <trkpt lat="41.5677260" lon="-5.0905550">
        <ele>735.0</ele>
        <time>2019-08-15T06:54:17Z</time>
      </trkpt>
      <trkpt lat="41.5677600" lon="-5.0905790">
        <ele>735.0</ele>
        <time>2019-08-15T06:54:18Z</time>
      </trkpt>
      <trkpt lat="41.5677930" lon="-5.0906010">
        <ele>735.0</ele>
        <time>2019-08-15T06:54:19Z</time>
      </trkpt>
      <trkpt lat="41.5678250" lon="-5.0906220">
        <ele>735.1</ele>
        <time>2019-08-15T06:54:20Z</time>
      </trkpt>
      <trkpt lat="41.5678560" lon="-5.0906430">
        <ele>735.1</ele>
        <time>2019-08-15T06:54:21Z</time>
      </trkpt>
      <trkpt lat="41.5678840" lon="-5.0906620">
        <ele>735.1</ele>
        <time>2019-08-15T06:54:22Z</time>
      </trkpt>
      <trkpt lat="41.5679130" lon="-5.0906820">
        <ele>735.1</ele>
        <time>2019-08-15T06:54:23Z</time>
      </trkpt>
      <trkpt lat="41.5679420" lon="-5.0907010">
        <ele>735.2</ele>
        <time>2019-08-15T06:54:24Z</time>
      </trkpt>
      <trkpt lat="41.5679690" lon="-5.0907200">
        <ele>735.2</ele>
        <time>2019-08-15T06:54:25Z</time>
      </trkpt>
      <trkpt lat="41.5679970" lon="-5.0907400">
        <ele>735.3</ele>
        <time>2019-08-15T06:54:26Z</time>
      </trkpt>
      <trkpt lat="41.5680250" lon="-5.0907590">
        <ele>735.3</ele>
        <time>2019-08-15T06:54:27Z</time>
      </trkpt>
      <trkpt lat="41.5680530" lon="-5.0907790">
        <ele>735.4</ele>
        <time>2019-08-15T06:54:28Z</time>
      </trkpt>
      <trkpt lat="41.5680810" lon="-5.0907990">
        <ele>735.5</ele>
        <time>2019-08-15T06:54:29Z</time>
      </trkpt>
      <trkpt lat="41.5681090" lon="-5.0908190">
        <ele>735.5</ele>
        <time>2019-08-15T06:54:30Z</time>
      </trkpt>
      <trkpt lat="41.5681380" lon="-5.0908400">
        <ele>735.6</ele>
        <time>2019-08-15T06:54:31Z</time>
      </trkpt>
      <trkpt lat="41.5681660" lon="-5.0908600">
        <ele>735.7</ele>
        <time>2019-08-15T06:54:32Z</time>
      </trkpt>
      <trkpt lat="41.5681950" lon="-5.0908800">
        <ele>735.8</ele>
        <time>2019-08-15T06:54:33Z</time>
      </trkpt>
      <trkpt lat="41.5682240" lon="-5.0909000">
        <ele>736.0</ele>
        <time>2019-08-15T06:54:34Z</time>
      </trkpt>
      <trkpt lat="41.5682530" lon="-5.0909210">
        <ele>736.1</ele>
        <time>2019-08-15T06:54:35Z</time>
      </trkpt>
      <trkpt lat="41.5682830" lon="-5.0909420">
        <ele>736.2</ele>
        <time>2019-08-15T06:54:36Z</time>
      </trkpt>
      <trkpt lat="41.5683120" lon="-5.0909620">
        <ele>736.4</ele>
        <time>2019-08-15T06:54:37Z</time>
      </trkpt>
      <trkpt lat="41.5683430" lon="-5.0909830">
        <ele>736.5</ele>
        <time>2019-08-15T06:54:38Z</time>
      </trkpt>
      <trkpt lat="41.5683730" lon="-5.0910020">
        <ele>736.7</ele>
        <time>2019-08-15T06:54:39Z</time>
      </trkpt>
      <trkpt lat="41.5684030" lon="-5.0910220">
        <ele>736.8</ele>
        <time>2019-08-15T06:54:40Z</time>
      </trkpt>
      <trkpt lat="41.5684330" lon="-5.0910430">
        <ele>737.0</ele>
        <time>2019-08-15T06:54:41Z</time>
      </trkpt>
      <trkpt lat="41.5684630" lon="-5.0910650">
        <ele>737.1</ele>
        <time>2019-08-15T06:54:42Z</time>
      </trkpt>
      <trkpt lat="41.5684930" lon="-5.0910870">
        <ele>737.3</ele>
        <time>2019-08-15T06:54:43Z</time>
      </trkpt>
      <trkpt lat="41.5685240" lon="-5.0911070">
        <ele>737.5</ele>
        <time>2019-08-15T06:54:44Z</time>
      </trkpt>
      <trkpt lat="41.5685550" lon="-5.0911270">
        <ele>737.7</ele>
        <time>2019-08-15T06:54:45Z</time>
      </trkpt>
      <trkpt lat="41.5685870" lon="-5.0911490">
        <ele>737.9</ele>
        <time>2019-08-15T06:54:46Z</time>
      </trkpt>
      <trkpt lat="41.5686190" lon="-5.0911730">
        <ele>738.1</ele>
        <time>2019-08-15T06:54:47Z</time>
      </trkpt>
      <trkpt lat="41.5686520" lon="-5.0911970">
        <ele>738.2</ele>
        <time>2019-08-15T06:54:48Z</time>
      </trkpt>
      <trkpt lat="41.5686850" lon="-5.0912200">
        <ele>738.3</ele>
        <time>2019-08-15T06:54:49Z</time>
      </trkpt>
      <trkpt lat="41.5687200" lon="-5.0912440">
        <ele>738.4</ele>
        <time>2019-08-15T06:54:50Z</time>
      </trkpt>
      <trkpt lat="41.5687560" lon="-5.0912680">
        <ele>738.6</ele>
        <time>2019-08-15T06:54:51Z</time>
      </trkpt>
      <trkpt lat="41.5687920" lon="-5.0912940">
        <ele>738.7</ele>
        <time>2019-08-15T06:54:52Z</time>
      </trkpt>
      <trkpt lat="41.5688290" lon="-5.0913180">
        <ele>738.9</ele>
        <time>2019-08-15T06:54:53Z</time>
      </trkpt>
      <trkpt lat="41.5688660" lon="-5.0913420">
        <ele>739.1</ele>
        <time>2019-08-15T06:54:54Z</time>
      </trkpt>
      <trkpt lat="41.5689010" lon="-5.0913670">
        <ele>739.3</ele>
        <time>2019-08-15T06:54:55Z</time>
      </trkpt>
      <trkpt lat="41.5689370" lon="-5.0913930">
        <ele>739.4</ele>
        <time>2019-08-15T06:54:56Z</time>
      </trkpt>
      <trkpt lat="41.5689720" lon="-5.0914180">
        <ele>739.6</ele>
        <time>2019-08-15T06:54:57Z</time>
      </trkpt>
      <trkpt lat="41.5690050" lon="-5.0914420">
        <ele>739.7</ele>
        <time>2019-08-15T06:54:58Z</time>
      </trkpt>
      <trkpt lat="41.5690380" lon="-5.0914670">
        <ele>739.8</ele>
        <time>2019-08-15T06:54:59Z</time>
      </trkpt>
      <trkpt lat="41.5690700" lon="-5.0914920">
        <ele>739.8</ele>
        <time>2019-08-15T06:55:00Z</time>
      </trkpt>
      <trkpt lat="41.5691030" lon="-5.0915160">
        <ele>739.9</ele>
        <time>2019-08-15T06:55:01Z</time>
      </trkpt>
      <trkpt lat="41.5691370" lon="-5.0915390">
        <ele>739.9</ele>
        <time>2019-08-15T06:55:02Z</time>
      </trkpt>
      <trkpt lat="41.5691690" lon="-5.0915630">
        <ele>739.9</ele>
        <time>2019-08-15T06:55:03Z</time>
      </trkpt>
      <trkpt lat="41.5692010" lon="-5.0915880">
        <ele>740.0</ele>
        <time>2019-08-15T06:55:04Z</time>
      </trkpt>
      <trkpt lat="41.5692330" lon="-5.0916110">
        <ele>740.1</ele>
        <time>2019-08-15T06:55:05Z</time>
      </trkpt>
      <trkpt lat="41.5692650" lon="-5.0916360">
        <ele>740.2</ele>
        <time>2019-08-15T06:55:06Z</time>
      </trkpt>
      <trkpt lat="41.5692970" lon="-5.0916620">
        <ele>740.3</ele>
        <time>2019-08-15T06:55:07Z</time>
      </trkpt>
      <trkpt lat="41.5693280" lon="-5.0916880">
        <ele>740.5</ele>
        <time>2019-08-15T06:55:08Z</time>
      </trkpt>
      <trkpt lat="41.5693600" lon="-5.0917130">
        <ele>740.6</ele>
        <time>2019-08-15T06:55:09Z</time>
      </trkpt>
      <trkpt lat="41.5693920" lon="-5.0917380">
        <ele>740.8</ele>
        <time>2019-08-15T06:55:10Z</time>
      </trkpt>
      <trkpt lat="41.5694230" lon="-5.0917630">
        <ele>741.1</ele>
        <time>2019-08-15T06:55:11Z</time>
      </trkpt>
      <trkpt lat="41.5694530" lon="-5.0917890">
        <ele>741.3</ele>
        <time>2019-08-15T06:55:12Z</time>
      </trkpt>
      <trkpt lat="41.5694850" lon="-5.0918130">
        <ele>741.6</ele>
        <time>2019-08-15T06:55:13Z</time>
      </trkpt>
      <trkpt lat="41.5695160" lon="-5.0918370">
        <ele>741.9</ele>
        <time>2019-08-15T06:55:14Z</time>
      </trkpt>
      <trkpt lat="41.5695470" lon="-5.0918620">
        <ele>742.3</ele>
        <time>2019-08-15T06:55:15Z</time>
      </trkpt>
      <trkpt lat="41.5695770" lon="-5.0918880">
        <ele>742.8</ele>
        <time>2019-08-15T06:55:16Z</time>
      </trkpt>
      <trkpt lat="41.5696070" lon="-5.0919150">
        <ele>743.1</ele>
        <time>2019-08-15T06:55:17Z</time>
      </trkpt>
      <trkpt lat="41.5696380" lon="-5.0919410">
        <ele>743.5</ele>
        <time>2019-08-15T06:55:18Z</time>
      </trkpt>
      <trkpt lat="41.5696700" lon="-5.0919650">
        <ele>743.9</ele>
        <time>2019-08-15T06:55:19Z</time>
      </trkpt>
      <trkpt lat="41.5697020" lon="-5.0919890">
        <ele>744.2</ele>
        <time>2019-08-15T06:55:20Z</time>
      </trkpt>
      <trkpt lat="41.5697350" lon="-5.0920150">
        <ele>744.6</ele>
        <time>2019-08-15T06:55:21Z</time>
      </trkpt>
      <trkpt lat="41.5697660" lon="-5.0920420">
        <ele>745.1</ele>
        <time>2019-08-15T06:55:22Z</time>
      </trkpt>
      <trkpt lat="41.5697970" lon="-5.0920700">
        <ele>745.5</ele>
        <time>2019-08-15T06:55:23Z</time>
      </trkpt>
      <trkpt lat="41.5698290" lon="-5.0920980">
        <ele>745.7</ele>
        <time>2019-08-15T06:55:24Z</time>
      </trkpt>
      <trkpt lat="41.5698600" lon="-5.0921240">
        <ele>745.9</ele>
        <time>2019-08-15T06:55:25Z</time>
      </trkpt>
      <trkpt lat="41.5698930" lon="-5.0921520">
        <ele>746.1</ele>
        <time>2019-08-15T06:55:26Z</time>
      </trkpt>
      <trkpt lat="41.5699250" lon="-5.0921770">
        <ele>746.1</ele>
        <time>2019-08-15T06:55:27Z</time>
      </trkpt>
      <trkpt lat="41.5699570" lon="-5.0922030">
        <ele>746.2</ele>
        <time>2019-08-15T06:55:28Z</time>
      </trkpt>
      <trkpt lat="41.5699900" lon="-5.0922300">
        <ele>746.2</ele>
        <time>2019-08-15T06:55:29Z</time>
      </trkpt>
      <trkpt lat="41.5700220" lon="-5.0922590">
        <ele>746.3</ele>
        <time>2019-08-15T06:55:30Z</time>
      </trkpt>
      <trkpt lat="41.5700550" lon="-5.0922880">
        <ele>746.2</ele>
        <time>2019-08-15T06:55:31Z</time>
      </trkpt>
      <trkpt lat="41.5700890" lon="-5.0923170">
        <ele>746.2</ele>
        <time>2019-08-15T06:55:32Z</time>
      </trkpt>
      <trkpt lat="41.5701230" lon="-5.0923470">
        <ele>746.1</ele>
        <time>2019-08-15T06:55:33Z</time>
      </trkpt>
      <trkpt lat="41.5701580" lon="-5.0923780">
        <ele>746.0</ele>
        <time>2019-08-15T06:55:34Z</time>
      </trkpt>
      <trkpt lat="41.5701930" lon="-5.0924080">
        <ele>745.9</ele>
        <time>2019-08-15T06:55:35Z</time>
      </trkpt>
      <trkpt lat="41.5702270" lon="-5.0924370">
        <ele>745.8</ele>
        <time>2019-08-15T06:55:36Z</time>
      </trkpt>
      <trkpt lat="41.5702620" lon="-5.0924670">
        <ele>745.7</ele>
        <time>2019-08-15T06:55:37Z</time>
      </trkpt>
      <trkpt lat="41.5702960" lon="-5.0924980">
        <ele>745.6</ele>
        <time>2019-08-15T06:55:38Z</time>
      </trkpt>
      <trkpt lat="41.5703320" lon="-5.0925300">
        <ele>745.5</ele>
        <time>2019-08-15T06:55:39Z</time>
      </trkpt>
      <trkpt lat="41.5703670" lon="-5.0925630">
        <ele>745.3</ele>
        <time>2019-08-15T06:55:40Z</time>
      </trkpt>
      <trkpt lat="41.5704040" lon="-5.0925960">
        <ele>745.3</ele>
        <time>2019-08-15T06:55:41Z</time>
      </trkpt>
      <trkpt lat="41.5704390" lon="-5.0926290">
        <ele>745.2</ele>
        <time>2019-08-15T06:55:42Z</time>
      </trkpt>
      <trkpt lat="41.5704740" lon="-5.0926620">
        <ele>745.2</ele>
        <time>2019-08-15T06:55:43Z</time>
      </trkpt>
      <trkpt lat="41.5705120" lon="-5.0926980">
        <ele>745.1</ele>
        <time>2019-08-15T06:55:44Z</time>
      </trkpt>
      <trkpt lat="41.5705520" lon="-5.0927330">
        <ele>745.1</ele>
        <time>2019-08-15T06:55:45Z</time>
      </trkpt>
      <trkpt lat="41.5705910" lon="-5.0927700">
        <ele>745.1</ele>
        <time>2019-08-15T06:55:46Z</time>
      </trkpt>
      <trkpt lat="41.5706310" lon="-5.0928080">
        <ele>745.0</ele>
        <time>2019-08-15T06:55:47Z</time>
      </trkpt>
      <trkpt lat="41.5706710" lon="-5.0928460">
        <ele>745.0</ele>
        <time>2019-08-15T06:55:48Z</time>
      </trkpt>
      <trkpt lat="41.5707100" lon="-5.0928840">
        <ele>745.1</ele>
        <time>2019-08-15T06:55:49Z</time>
      </trkpt>
      <trkpt lat="41.5707490" lon="-5.0929220">
        <ele>745.1</ele>
        <time>2019-08-15T06:55:50Z</time>
      </trkpt>
      <trkpt lat="41.5707890" lon="-5.0929610">
        <ele>745.1</ele>
        <time>2019-08-15T06:55:51Z</time>
      </trkpt>
      <trkpt lat="41.5708310" lon="-5.0930020">
        <ele>745.1</ele>
        <time>2019-08-15T06:55:52Z</time>
      </trkpt>
      <trkpt lat="41.5708740" lon="-5.0930430">
        <ele>745.0</ele>
        <time>2019-08-15T06:55:53Z</time>
      </trkpt>
      <trkpt lat="41.5709160" lon="-5.0930840">
        <ele>745.1</ele>
        <time>2019-08-15T06:55:54Z</time>
      </trkpt>
      <trkpt lat="41.5709570" lon="-5.0931250">
        <ele>745.1</ele>
        <time>2019-08-15T06:55:55Z</time>
      </trkpt>
      <trkpt lat="41.5709960" lon="-5.0931650">
        <ele>745.0</ele>
        <time>2019-08-15T06:55:56Z</time>
      </trkpt>
      <trkpt lat="41.5710350" lon="-5.0932040">
        <ele>745.0</ele>
        <time>2019-08-15T06:55:57Z</time>
      </trkpt>
      <trkpt lat="41.5710730" lon="-5.0932430">
        <ele>744.9</ele>
        <time>2019-08-15T06:55:58Z</time>
      </trkpt>
      <trkpt lat="41.5711120" lon="-5.0932820">
        <ele>745.0</ele>
        <time>2019-08-15T06:55:59Z</time>
      </trkpt>
      <trkpt lat="41.5711520" lon="-5.0933240">
        <ele>745.0</ele>
        <time>2019-08-15T06:56:00Z</time>
      </trkpt>
      <trkpt lat="41.5711910" lon="-5.0933640">
        <ele>744.9</ele>
        <time>2019-08-15T06:56:01Z</time>
      </trkpt>
      <trkpt lat="41.5712300" lon="-5.0934090">
        <ele>744.8</ele>
        <time>2019-08-15T06:56:02Z</time>
      </trkpt>
      <trkpt lat="41.5712710" lon="-5.0934560">
        <ele>744.8</ele>
        <time>2019-08-15T06:56:03Z</time>
      </trkpt>
      <trkpt lat="41.5713130" lon="-5.0935050">
        <ele>744.8</ele>
        <time>2019-08-15T06:56:04Z</time>
      </trkpt>
      <trkpt lat="41.5713550" lon="-5.0935550">
        <ele>744.8</ele>
        <time>2019-08-15T06:56:05Z</time>
      </trkpt>
      <trkpt lat="41.5713960" lon="-5.0936030">
        <ele>744.9</ele>
        <time>2019-08-15T06:56:06Z</time>
      </trkpt>
      <trkpt lat="41.5714340" lon="-5.0936490">
        <ele>745.0</ele>
        <time>2019-08-15T06:56:07Z</time>
      </trkpt>
      <trkpt lat="41.5714720" lon="-5.0936930">
        <ele>745.1</ele>
        <time>2019-08-15T06:56:08Z</time>
      </trkpt>
      <trkpt lat="41.5715090" lon="-5.0937370">
        <ele>745.1</ele>
        <time>2019-08-15T06:56:09Z</time>
      </trkpt>
      <trkpt lat="41.5715460" lon="-5.0937830">
        <ele>745.2</ele>
        <time>2019-08-15T06:56:10Z</time>
      </trkpt>
      <trkpt lat="41.5715830" lon="-5.0938290">
        <ele>745.2</ele>
        <time>2019-08-15T06:56:11Z</time>
      </trkpt>
      <trkpt lat="41.5716200" lon="-5.0938750">
        <ele>745.2</ele>
        <time>2019-08-15T06:56:12Z</time>
      </trkpt>
      <trkpt lat="41.5716580" lon="-5.0939220">
        <ele>745.2</ele>
        <time>2019-08-15T06:56:13Z</time>
      </trkpt>
      <trkpt lat="41.5716960" lon="-5.0939670">
        <ele>745.3</ele>
        <time>2019-08-15T06:56:14Z</time>
      </trkpt>
      <trkpt lat="41.5717340" lon="-5.0940120">
        <ele>745.3</ele>
        <time>2019-08-15T06:56:15Z</time>
      </trkpt>
      <trkpt lat="41.5717710" lon="-5.0940550">
        <ele>745.3</ele>
        <time>2019-08-15T06:56:16Z</time>
      </trkpt>
      <trkpt lat="41.5718060" lon="-5.0940970">
        <ele>745.2</ele>
        <time>2019-08-15T06:56:17Z</time>
      </trkpt>
      <trkpt lat="41.5718420" lon="-5.0941370">
        <ele>745.1</ele>
        <time>2019-08-15T06:56:18Z</time>
      </trkpt>
      <trkpt lat="41.5718750" lon="-5.0941760">
        <ele>745.0</ele>
        <time>2019-08-15T06:56:19Z</time>
      </trkpt>
      <trkpt lat="41.5719100" lon="-5.0942170">
        <ele>744.9</ele>
        <time>2019-08-15T06:56:20Z</time>
      </trkpt>
      <trkpt lat="41.5719430" lon="-5.0942560">
        <ele>744.8</ele>
        <time>2019-08-15T06:56:21Z</time>
      </trkpt>
      <trkpt lat="41.5719760" lon="-5.0942980">
        <ele>744.7</ele>
        <time>2019-08-15T06:56:22Z</time>
      </trkpt>
      <trkpt lat="41.5720090" lon="-5.0943390">
        <ele>744.7</ele>
        <time>2019-08-15T06:56:23Z</time>
      </trkpt>
      <trkpt lat="41.5720420" lon="-5.0943790">
        <ele>744.7</ele>
        <time>2019-08-15T06:56:24Z</time>
      </trkpt>
      <trkpt lat="41.5720740" lon="-5.0944210">
        <ele>744.7</ele>
        <time>2019-08-15T06:56:25Z</time>
      </trkpt>
      <trkpt lat="41.5721060" lon="-5.0944620">
        <ele>744.6</ele>
        <time>2019-08-15T06:56:26Z</time>
      </trkpt>
      <trkpt lat="41.5721410" lon="-5.0945020">
        <ele>744.6</ele>
        <time>2019-08-15T06:56:27Z</time>
      </trkpt>
      <trkpt lat="41.5721750" lon="-5.0945440">
        <ele>744.5</ele>
        <time>2019-08-15T06:56:28Z</time>
      </trkpt>
      <trkpt lat="41.5722080" lon="-5.0945840">
        <ele>744.5</ele>
        <time>2019-08-15T06:56:29Z</time>
      </trkpt>
      <trkpt lat="41.5722420" lon="-5.0946250">
        <ele>744.5</ele>
        <time>2019-08-15T06:56:30Z</time>
      </trkpt>
      <trkpt lat="41.5722770" lon="-5.0946660">
        <ele>744.5</ele>
        <time>2019-08-15T06:56:31Z</time>
      </trkpt>
      <trkpt lat="41.5723120" lon="-5.0947070">
        <ele>744.6</ele>
        <time>2019-08-15T06:56:32Z</time>
      </trkpt>
      <trkpt lat="41.5723470" lon="-5.0947490">
        <ele>744.6</ele>
        <time>2019-08-15T06:56:33Z</time>
      </trkpt>
      <trkpt lat="41.5723810" lon="-5.0947940">
        <ele>744.7</ele>
        <time>2019-08-15T06:56:34Z</time>
      </trkpt>
      <trkpt lat="41.5724160" lon="-5.0948390">
        <ele>744.7</ele>
        <time>2019-08-15T06:56:35Z</time>
      </trkpt>
      <trkpt lat="41.5724510" lon="-5.0948860">
        <ele>744.8</ele>
        <time>2019-08-15T06:56:36Z</time>
      </trkpt>
      <trkpt lat="41.5724860" lon="-5.0949320">
        <ele>744.9</ele>
        <time>2019-08-15T06:56:37Z</time>
      </trkpt>
      <trkpt lat="41.5725210" lon="-5.0949770">
        <ele>745.0</ele>
        <time>2019-08-15T06:56:38Z</time>
      </trkpt>
      <trkpt lat="41.5725560" lon="-5.0950220">
        <ele>745.1</ele>
        <time>2019-08-15T06:56:39Z</time>
      </trkpt>
      <trkpt lat="41.5725900" lon="-5.0950650">
        <ele>745.2</ele>
        <time>2019-08-15T06:56:40Z</time>
      </trkpt>
      <trkpt lat="41.5726230" lon="-5.0951090">
        <ele>745.4</ele>
        <time>2019-08-15T06:56:41Z</time>
      </trkpt>
      <trkpt lat="41.5726550" lon="-5.0951550">
        <ele>745.5</ele>
        <time>2019-08-15T06:56:42Z</time>
      </trkpt>
      <trkpt lat="41.5726890" lon="-5.0952010">
        <ele>745.6</ele>
        <time>2019-08-15T06:56:43Z</time>
      </trkpt>
      <trkpt lat="41.5727240" lon="-5.0952450">
        <ele>745.7</ele>
        <time>2019-08-15T06:56:44Z</time>
      </trkpt>
      <trkpt lat="41.5727610" lon="-5.0952890">
        <ele>745.8</ele>
        <time>2019-08-15T06:56:45Z</time>
      </trkpt>
      <trkpt lat="41.5727970" lon="-5.0953300">
        <ele>746.0</ele>
        <time>2019-08-15T06:56:46Z</time>
      </trkpt>
      <trkpt lat="41.5728330" lon="-5.0953680">
        <ele>746.1</ele>
        <time>2019-08-15T06:56:47Z</time>
      </trkpt>
      <trkpt lat="41.5728690" lon="-5.0954060">
        <ele>746.2</ele>
        <time>2019-08-15T06:56:48Z</time>
      </trkpt>
      <trkpt lat="41.5729060" lon="-5.0954440">
        <ele>746.2</ele>
        <time>2019-08-15T06:56:49Z</time>
      </trkpt>
      <trkpt lat="41.5729410" lon="-5.0954830">
        <ele>746.3</ele>
        <time>2019-08-15T06:56:50Z</time>
      </trkpt>
      <trkpt lat="41.5729760" lon="-5.0955230">
        <ele>746.4</ele>
        <time>2019-08-15T06:56:51Z</time>
      </trkpt>
      <trkpt lat="41.5730100" lon="-5.0955650">
        <ele>746.4</ele>
        <time>2019-08-15T06:56:52Z</time>
      </trkpt>
      <trkpt lat="41.5730420" lon="-5.0956100">
        <ele>746.4</ele>
        <time>2019-08-15T06:56:53Z</time>
      </trkpt>
      <trkpt lat="41.5730710" lon="-5.0956580">
        <ele>746.4</ele>
        <time>2019-08-15T06:56:54Z</time>
      </trkpt>
      <trkpt lat="41.5730960" lon="-5.0957100">
        <ele>746.4</ele>
        <time>2019-08-15T06:56:55Z</time>
      </trkpt>
      <trkpt lat="41.5731170" lon="-5.0957650">
        <ele>746.4</ele>
        <time>2019-08-15T06:56:56Z</time>
      </trkpt>
      <trkpt lat="41.5731360" lon="-5.0958260">
        <ele>746.4</ele>
        <time>2019-08-15T06:56:57Z</time>
      </trkpt>
      <trkpt lat="41.5731570" lon="-5.0958890">
        <ele>746.4</ele>
        <time>2019-08-15T06:56:58Z</time>
      </trkpt>
      <trkpt lat="41.5731790" lon="-5.0959510">
        <ele>746.4</ele>
        <time>2019-08-15T06:56:59Z</time>
      </trkpt>
      <trkpt lat="41.5732020" lon="-5.0960140">
        <ele>746.4</ele>
        <time>2019-08-15T06:57:00Z</time>
      </trkpt>
      <trkpt lat="41.5732250" lon="-5.0960730">
        <ele>746.4</ele>
        <time>2019-08-15T06:57:01Z</time>
      </trkpt>
      <trkpt lat="41.5732500" lon="-5.0961320">
        <ele>746.5</ele>
        <time>2019-08-15T06:57:02Z</time>
      </trkpt>
      <trkpt lat="41.5732720" lon="-5.0961920">
        <ele>746.6</ele>
        <time>2019-08-15T06:57:03Z</time>
      </trkpt>
      <trkpt lat="41.5732940" lon="-5.0962530">
        <ele>746.6</ele>
        <time>2019-08-15T06:57:04Z</time>
      </trkpt>
      <trkpt lat="41.5733170" lon="-5.0963120">
        <ele>746.6</ele>
        <time>2019-08-15T06:57:05Z</time>
      </trkpt>
      <trkpt lat="41.5733410" lon="-5.0963720">
        <ele>746.7</ele>
        <time>2019-08-15T06:57:06Z</time>
      </trkpt>
      <trkpt lat="41.5733630" lon="-5.0964350">
        <ele>746.7</ele>
        <time>2019-08-15T06:57:07Z</time>
      </trkpt>
      <trkpt lat="41.5733850" lon="-5.0965000">
        <ele>746.7</ele>
        <time>2019-08-15T06:57:08Z</time>
      </trkpt>
      <trkpt lat="41.5734100" lon="-5.0965630">
        <ele>746.8</ele>
        <time>2019-08-15T06:57:09Z</time>
      </trkpt>
      <trkpt lat="41.5734350" lon="-5.0966260">
        <ele>746.8</ele>
        <time>2019-08-15T06:57:10Z</time>
      </trkpt>
      <trkpt lat="41.5734600" lon="-5.0966870">
        <ele>746.8</ele>
        <time>2019-08-15T06:57:11Z</time>
      </trkpt>
      <trkpt lat="41.5734840" lon="-5.0967460">
        <ele>746.9</ele>
        <time>2019-08-15T06:57:12Z</time>
      </trkpt>
      <trkpt lat="41.5735080" lon="-5.0968060">
        <ele>746.9</ele>
        <time>2019-08-15T06:57:13Z</time>
      </trkpt>
      <trkpt lat="41.5735330" lon="-5.0968660">
        <ele>746.9</ele>
        <time>2019-08-15T06:57:14Z</time>
      </trkpt>
      <trkpt lat="41.5735570" lon="-5.0969280">
        <ele>747.0</ele>
        <time>2019-08-15T06:57:15Z</time>
      </trkpt>
      <trkpt lat="41.5735810" lon="-5.0969880">
        <ele>747.1</ele>
        <time>2019-08-15T06:57:16Z</time>
      </trkpt>
      <trkpt lat="41.5736050" lon="-5.0970480">
        <ele>747.2</ele>
        <time>2019-08-15T06:57:17Z</time>
      </trkpt>
      <trkpt lat="41.5736280" lon="-5.0971070">
        <ele>747.2</ele>
        <time>2019-08-15T06:57:18Z</time>
      </trkpt>
      <trkpt lat="41.5736520" lon="-5.0971670">
        <ele>747.3</ele>
        <time>2019-08-15T06:57:19Z</time>
      </trkpt>
      <trkpt lat="41.5736750" lon="-5.0972270">
        <ele>747.4</ele>
        <time>2019-08-15T06:57:20Z</time>
      </trkpt>
      <trkpt lat="41.5736970" lon="-5.0972880">
        <ele>747.4</ele>
        <time>2019-08-15T06:57:21Z</time>
      </trkpt>
      <trkpt lat="41.5737200" lon="-5.0973480">
        <ele>747.4</ele>
        <time>2019-08-15T06:57:22Z</time>
      </trkpt>
      <trkpt lat="41.5737440" lon="-5.0974080">
        <ele>747.5</ele>
        <time>2019-08-15T06:57:23Z</time>
      </trkpt>
      <trkpt lat="41.5737670" lon="-5.0974680">
        <ele>747.5</ele>
        <time>2019-08-15T06:57:24Z</time>
      </trkpt>
      <trkpt lat="41.5737910" lon="-5.0975280">
        <ele>747.6</ele>
        <time>2019-08-15T06:57:25Z</time>
      </trkpt>
      <trkpt lat="41.5738150" lon="-5.0975870">
        <ele>747.7</ele>
        <time>2019-08-15T06:57:26Z</time>
      </trkpt>
      <trkpt lat="41.5738390" lon="-5.0976470">
        <ele>747.7</ele>
        <time>2019-08-15T06:57:27Z</time>
      </trkpt>
      <trkpt lat="41.5738630" lon="-5.0977070">
        <ele>747.7</ele>
        <time>2019-08-15T06:57:28Z</time>
      </trkpt>
      <trkpt lat="41.5738850" lon="-5.0977670">
        <ele>747.7</ele>
        <time>2019-08-15T06:57:29Z</time>
      </trkpt>
      <trkpt lat="41.5739070" lon="-5.0978260">
        <ele>747.8</ele>
        <time>2019-08-15T06:57:30Z</time>
      </trkpt>
      <trkpt lat="41.5739300" lon="-5.0978860">
        <ele>747.8</ele>
        <time>2019-08-15T06:57:31Z</time>
      </trkpt>
      <trkpt lat="41.5739520" lon="-5.0979440">
        <ele>747.8</ele>
        <time>2019-08-15T06:57:32Z</time>
      </trkpt>
      <trkpt lat="41.5739760" lon="-5.0980010">
        <ele>747.7</ele>
        <time>2019-08-15T06:57:33Z</time>
      </trkpt>
      <trkpt lat="41.5739990" lon="-5.0980570">
        <ele>747.7</ele>
        <time>2019-08-15T06:57:34Z</time>
      </trkpt>
      <trkpt lat="41.5740230" lon="-5.0981140">
        <ele>747.6</ele>
        <time>2019-08-15T06:57:35Z</time>
      </trkpt>
      <trkpt lat="41.5740490" lon="-5.0981720">
        <ele>747.6</ele>
        <time>2019-08-15T06:57:36Z</time>
      </trkpt>
      <trkpt lat="41.5740750" lon="-5.0982270">
        <ele>747.5</ele>
        <time>2019-08-15T06:57:37Z</time>
      </trkpt>
      <trkpt lat="41.5741040" lon="-5.0982790">
        <ele>747.4</ele>
        <time>2019-08-15T06:57:38Z</time>
      </trkpt>
      <trkpt lat="41.5741350" lon="-5.0983290">
        <ele>747.4</ele>
        <time>2019-08-15T06:57:39Z</time>
      </trkpt>
      <trkpt lat="41.5741660" lon="-5.0983810">
        <ele>747.3</ele>
        <time>2019-08-15T06:57:40Z</time>
      </trkpt>
      <trkpt lat="41.5742000" lon="-5.0984320">
        <ele>747.3</ele>
        <time>2019-08-15T06:57:41Z</time>
      </trkpt>
      <trkpt lat="41.5742370" lon="-5.0984840">
        <ele>747.3</ele>
        <time>2019-08-15T06:57:42Z</time>
      </trkpt>
      <trkpt lat="41.5742750" lon="-5.0985330">
        <ele>747.3</ele>
        <time>2019-08-15T06:57:43Z</time>
      </trkpt>
      <trkpt lat="41.5743120" lon="-5.0985810">
        <ele>747.2</ele>
        <time>2019-08-15T06:57:44Z</time>
      </trkpt>
      <trkpt lat="41.5743480" lon="-5.0986260">
        <ele>747.2</ele>
        <time>2019-08-15T06:57:45Z</time>
      </trkpt>
      <trkpt lat="41.5743830" lon="-5.0986670">
        <ele>747.2</ele>
        <time>2019-08-15T06:57:46Z</time>
      </trkpt>
      <trkpt lat="41.5744170" lon="-5.0987060">
        <ele>747.2</ele>
        <time>2019-08-15T06:57:47Z</time>
      </trkpt>
      <trkpt lat="41.5744500" lon="-5.0987440">
        <ele>747.2</ele>
        <time>2019-08-15T06:57:48Z</time>
      </trkpt>
      <trkpt lat="41.5744820" lon="-5.0987810">
        <ele>747.2</ele>
        <time>2019-08-15T06:57:49Z</time>
      </trkpt>
      <trkpt lat="41.5745140" lon="-5.0988180">
        <ele>747.3</ele>
        <time>2019-08-15T06:57:50Z</time>
      </trkpt>
      <trkpt lat="41.5745470" lon="-5.0988580">
        <ele>747.3</ele>
        <time>2019-08-15T06:57:51Z</time>
      </trkpt>
      <trkpt lat="41.5745800" lon="-5.0988980">
        <ele>747.3</ele>
        <time>2019-08-15T06:57:52Z</time>
      </trkpt>
      <trkpt lat="41.5746140" lon="-5.0989380">
        <ele>747.4</ele>
        <time>2019-08-15T06:57:53Z</time>
      </trkpt>
      <trkpt lat="41.5746480" lon="-5.0989790">
        <ele>747.5</ele>
        <time>2019-08-15T06:57:54Z</time>
      </trkpt>
      <trkpt lat="41.5746820" lon="-5.0990200">
        <ele>747.5</ele>
        <time>2019-08-15T06:57:55Z</time>
      </trkpt>
      <trkpt lat="41.5747150" lon="-5.0990600">
        <ele>747.6</ele>
        <time>2019-08-15T06:57:56Z</time>
      </trkpt>
      <trkpt lat="41.5747490" lon="-5.0990990">
        <ele>747.7</ele>
        <time>2019-08-15T06:57:57Z</time>
      </trkpt>
      <trkpt lat="41.5747830" lon="-5.0991390">
        <ele>747.7</ele>
        <time>2019-08-15T06:57:58Z</time>
      </trkpt>
      <trkpt lat="41.5748170" lon="-5.0991780">
        <ele>747.7</ele>
        <time>2019-08-15T06:57:59Z</time>
      </trkpt>
      <trkpt lat="41.5748490" lon="-5.0992180">
        <ele>747.7</ele>
        <time>2019-08-15T06:58:00Z</time>
      </trkpt>
      <trkpt lat="41.5748810" lon="-5.0992560">
        <ele>747.7</ele>
        <time>2019-08-15T06:58:01Z</time>
      </trkpt>
      <trkpt lat="41.5749120" lon="-5.0992910">
        <ele>747.6</ele>
        <time>2019-08-15T06:58:02Z</time>
      </trkpt>
      <trkpt lat="41.5749420" lon="-5.0993250">
        <ele>747.6</ele>
        <time>2019-08-15T06:58:03Z</time>
      </trkpt>
      <trkpt lat="41.5749700" lon="-5.0993600">
        <ele>747.6</ele>
        <time>2019-08-15T06:58:04Z</time>
      </trkpt>
      <trkpt lat="41.5749970" lon="-5.0993960">
        <ele>747.5</ele>
        <time>2019-08-15T06:58:05Z</time>
      </trkpt>
      <trkpt lat="41.5750220" lon="-5.0994320">
        <ele>747.4</ele>
        <time>2019-08-15T06:58:06Z</time>
      </trkpt>
      <trkpt lat="41.5750430" lon="-5.0994720">
        <ele>747.4</ele>
        <time>2019-08-15T06:58:07Z</time>
      </trkpt>
      <trkpt lat="41.5750620" lon="-5.0995150">
        <ele>747.3</ele>
        <time>2019-08-15T06:58:08Z</time>
      </trkpt>
      <trkpt lat="41.5750790" lon="-5.0995630">
        <ele>747.2</ele>
        <time>2019-08-15T06:58:09Z</time>
      </trkpt>
      <trkpt lat="41.5750930" lon="-5.0996180">
        <ele>747.0</ele>
        <time>2019-08-15T06:58:10Z</time>
      </trkpt>
      <trkpt lat="41.5751080" lon="-5.0996750">
        <ele>746.9</ele>
        <time>2019-08-15T06:58:11Z</time>
      </trkpt>
      <trkpt lat="41.5751250" lon="-5.0997330">
        <ele>746.8</ele>
        <time>2019-08-15T06:58:12Z</time>
      </trkpt>
      <trkpt lat="41.5751450" lon="-5.0997880">
        <ele>746.7</ele>
        <time>2019-08-15T06:58:13Z</time>
      </trkpt>
      <trkpt lat="41.5751700" lon="-5.0998390">
        <ele>746.6</ele>
        <time>2019-08-15T06:58:14Z</time>
      </trkpt>
      <trkpt lat="41.5751980" lon="-5.0998870">
        <ele>746.4</ele>
        <time>2019-08-15T06:58:15Z</time>
      </trkpt>
      <trkpt lat="41.5752300" lon="-5.0999320">
        <ele>746.3</ele>
        <time>2019-08-15T06:58:16Z</time>
      </trkpt>
      <trkpt lat="41.5752620" lon="-5.0999740">
        <ele>746.2</ele>
        <time>2019-08-15T06:58:17Z</time>
      </trkpt>
      <trkpt lat="41.5752920" lon="-5.1000130">
        <ele>746.0</ele>
        <time>2019-08-15T06:58:18Z</time>
      </trkpt>
      <trkpt lat="41.5753150" lon="-5.1000420">
        <ele>745.9</ele>
        <time>2019-08-15T06:58:19Z</time>
      </trkpt>
      <trkpt lat="41.5753330" lon="-5.1000570">
        <ele>745.9</ele>
        <time>2019-08-15T06:58:20Z</time>
      </trkpt>
      <trkpt lat="41.5753690" lon="-5.1000660">
        <ele>745.7</ele>
        <time>2019-08-15T06:58:22Z</time>
      </trkpt>
      <trkpt lat="41.5754060" lon="-5.1000530">
        <ele>745.8</ele>
        <time>2019-08-15T06:58:24Z</time>
      </trkpt>
      <trkpt lat="41.5754220" lon="-5.1000260">
        <ele>745.8</ele>
        <time>2019-08-15T06:58:27Z</time>
      </trkpt>
      <trkpt lat="41.5754430" lon="-5.0999880">
        <ele>746.0</ele>
        <time>2019-08-15T06:58:29Z</time>
      </trkpt>
      <trkpt lat="41.5754730" lon="-5.0999420">
        <ele>746.1</ele>
        <time>2019-08-15T06:58:31Z</time>
      </trkpt>
      <trkpt lat="41.5754990" lon="-5.0999010">
        <ele>746.2</ele>
        <time>2019-08-15T06:58:33Z</time>
      </trkpt>
      <trkpt lat="41.5755190" lon="-5.0998680">
        <ele>746.3</ele>
        <time>2019-08-15T06:58:35Z</time>
      </trkpt>
      <trkpt lat="41.5755350" lon="-5.0998340">
        <ele>746.4</ele>
        <time>2019-08-15T06:58:37Z</time>
      </trkpt>
      <trkpt lat="41.5755320" lon="-5.0997890">
        <ele>746.6</ele>
        <time>2019-08-15T06:58:40Z</time>
      </trkpt>
      <trkpt lat="41.5755370" lon="-5.0997450">
        <ele>746.7</ele>
        <time>2019-08-15T06:58:42Z</time>
      </trkpt>
      <trkpt lat="41.5755460" lon="-5.0997090">
        <ele>746.8</ele>
        <time>2019-08-15T06:58:44Z</time>
      </trkpt>
      <trkpt lat="41.5755610" lon="-5.0996590">
        <ele>746.9</ele>
        <time>2019-08-15T06:58:47Z</time>
      </trkpt>
      <trkpt lat="41.5755700" lon="-5.0996190">
        <ele>747.0</ele>
        <time>2019-08-15T06:58:49Z</time>
      </trkpt>
      <trkpt lat="41.5756080" lon="-5.0995890">
        <ele>747.0</ele>
        <time>2019-08-15T06:58:52Z</time>
      </trkpt>
      <trkpt lat="41.5756370" lon="-5.0995520">
        <ele>747.0</ele>
        <time>2019-08-15T06:58:54Z</time>
      </trkpt>
      <trkpt lat="41.5756410" lon="-5.0995100">
        <ele>747.1</ele>
        <time>2019-08-15T06:58:56Z</time>
      </trkpt>
      <trkpt lat="41.5756270" lon="-5.0994620">
        <ele>747.2</ele>
        <time>2019-08-15T06:58:58Z</time>
      </trkpt>
      <trkpt lat="41.5756130" lon="-5.0994040">
        <ele>747.3</ele>
        <time>2019-08-15T06:59:00Z</time>
      </trkpt>
      <trkpt lat="41.5756130" lon="-5.0993340">
        <ele>747.4</ele>
        <time>2019-08-15T06:59:02Z</time>
      </trkpt>
      <trkpt lat="41.5756190" lon="-5.0992620">
        <ele>747.5</ele>
        <time>2019-08-15T06:59:04Z</time>
      </trkpt>
      <trkpt lat="41.5756240" lon="-5.0992260">
        <ele>747.5</ele>
        <time>2019-08-15T06:59:05Z</time>
      </trkpt>
      <trkpt lat="41.5756290" lon="-5.0991920">
        <ele>747.6</ele>
        <time>2019-08-15T06:59:06Z</time>
      </trkpt>
      <trkpt lat="41.5756410" lon="-5.0991400">
        <ele>747.7</ele>
        <time>2019-08-15T06:59:08Z</time>
      </trkpt>
      <trkpt lat="41.5756400" lon="-5.0991260">
        <ele>747.7</ele>
        <time>2019-08-15T06:59:15Z</time>
      </trkpt>
      <trkpt lat="41.5755900" lon="-5.0991990">
        <ele>747.6</ele>
        <time>2019-08-15T06:59:34Z</time>
      </trkpt>
      <trkpt lat="41.5756140" lon="-5.0991790">
        <ele>747.6</ele>
        <time>2019-08-15T06:59:39Z</time>
      </trkpt>
      <trkpt lat="41.5756040" lon="-5.0991730">
        <ele>747.6</ele>
        <time>2019-08-15T06:59:45Z</time>
      </trkpt>
      <trkpt lat="41.5755810" lon="-5.0992010">
        <ele>747.6</ele>
        <time>2019-08-15T06:59:48Z</time>
      </trkpt>
      <trkpt lat="41.5755540" lon="-5.0992310">
        <ele>747.6</ele>
        <time>2019-08-15T06:59:51Z</time>
      </trkpt>
      <trkpt lat="41.5755310" lon="-5.0992670">
        <ele>747.5</ele>
        <time>2019-08-15T06:59:54Z</time>
      </trkpt>
      <trkpt lat="41.5755100" lon="-5.0993010">
        <ele>747.5</ele>
        <time>2019-08-15T06:59:57Z</time>
      </trkpt>
      <trkpt lat="41.5754830" lon="-5.0993330">
        <ele>747.4</ele>
        <time>2019-08-15T07:00:00Z</time>
      </trkpt>
      <trkpt lat="41.5754680" lon="-5.0993670">
        <ele>747.4</ele>
        <time>2019-08-15T07:00:03Z</time>
      </trkpt>
      <trkpt lat="41.5754480" lon="-5.0994000">
        <ele>747.4</ele>
        <time>2019-08-15T07:00:07Z</time>
      </trkpt>
      <trkpt lat="41.5754510" lon="-5.0994410">
        <ele>747.3</ele>
        <time>2019-08-15T07:00:11Z</time>
      </trkpt>
      <trkpt lat="41.5754690" lon="-5.0994760">
        <ele>747.3</ele>
        <time>2019-08-15T07:00:14Z</time>
      </trkpt>
      <trkpt lat="41.5754850" lon="-5.0995010">
        <ele>747.2</ele>
        <time>2019-08-15T07:00:17Z</time>
      </trkpt>
      <trkpt lat="41.5754990" lon="-5.0995510">
        <ele>747.1</ele>
        <time>2019-08-15T07:00:22Z</time>
      </trkpt>
      <trkpt lat="41.5755120" lon="-5.0995770">
        <ele>747.1</ele>
        <time>2019-08-15T07:00:25Z</time>
      </trkpt>
      <trkpt lat="41.5755130" lon="-5.0995960">
        <ele>747.0</ele>
        <time>2019-08-15T07:00:32Z</time>
      </trkpt>
      <trkpt lat="41.5753850" lon="-5.0993600">
        <ele>747.5</ele>
        <time>2019-08-15T07:05:27Z</time>
      </trkpt>
      <trkpt lat="41.5753940" lon="-5.0993290">
        <ele>747.6</ele>
        <time>2019-08-15T07:05:30Z</time>
      </trkpt>
      <trkpt lat="41.5756290" lon="-5.0996050">
        <ele>747.0</ele>
        <time>2019-08-15T07:07:43Z</time>
      </trkpt>
      <trkpt lat="41.5756210" lon="-5.0995770">
        <ele>747.0</ele>
        <time>2019-08-15T07:07:44Z</time>
      </trkpt>
      <trkpt lat="41.5756450" lon="-5.0995730">
        <ele>747.0</ele>
        <time>2019-08-15T07:07:46Z</time>
      </trkpt>
      <trkpt lat="41.5756820" lon="-5.0995620">
        <ele>747.0</ele>
        <time>2019-08-15T07:07:50Z</time>
      </trkpt>
      <trkpt lat="41.5756670" lon="-5.0995190">
        <ele>747.1</ele>
        <time>2019-08-15T07:07:55Z</time>
      </trkpt>
      <trkpt lat="41.5756470" lon="-5.0995000">
        <ele>747.2</ele>
        <time>2019-08-15T07:07:57Z</time>
      </trkpt>
      <trkpt lat="41.5756200" lon="-5.0994750">
        <ele>747.2</ele>
        <time>2019-08-15T07:08:00Z</time>
      </trkpt>
      <trkpt lat="41.5756090" lon="-5.0994570">
        <ele>747.3</ele>
        <time>2019-08-15T07:08:03Z</time>
      </trkpt>
      <trkpt lat="41.5756040" lon="-5.0994280">
        <ele>747.3</ele>
        <time>2019-08-15T07:08:06Z</time>
      </trkpt>
      <trkpt lat="41.5755910" lon="-5.0993970">
        <ele>747.3</ele>
        <time>2019-08-15T07:08:10Z</time>
      </trkpt>
      <trkpt lat="41.5755900" lon="-5.0993830">
        <ele>747.3</ele>
        <time>2019-08-15T07:08:12Z</time>
      </trkpt>
      <trkpt lat="41.5755460" lon="-5.0994120">
        <ele>747.4</ele>
        <time>2019-08-15T07:08:15Z</time>
      </trkpt>
      <trkpt lat="41.5756380" lon="-5.0992800">
        <ele>747.5</ele>
        <time>2019-08-15T07:14:45Z</time>
      </trkpt>
      <trkpt lat="41.5756440" lon="-5.0993140">
        <ele>747.4</ele>
        <time>2019-08-15T07:14:46Z</time>
      </trkpt>
      <trkpt lat="41.5756550" lon="-5.0993920">
        <ele>747.3</ele>
        <time>2019-08-15T07:14:48Z</time>
      </trkpt>
      <trkpt lat="41.5756600" lon="-5.0994290">
        <ele>747.2</ele>
        <time>2019-08-15T07:14:49Z</time>
      </trkpt>
      <trkpt lat="41.5756680" lon="-5.0994630">
        <ele>747.2</ele>
        <time>2019-08-15T07:14:50Z</time>
      </trkpt>
      <trkpt lat="41.5756720" lon="-5.0995400">
        <ele>747.1</ele>
        <time>2019-08-15T07:14:52Z</time>
      </trkpt>
      <trkpt lat="41.5756790" lon="-5.0995690">
        <ele>747.0</ele>
        <time>2019-08-15T07:14:53Z</time>
      </trkpt>
      <trkpt lat="41.5756870" lon="-5.0996170">
        <ele>746.9</ele>
        <time>2019-08-15T07:14:55Z</time>
      </trkpt>
      <trkpt lat="41.5756970" lon="-5.0996370">
        <ele>746.8</ele>
        <time>2019-08-15T07:14:58Z</time>
      </trkpt>
      <trkpt lat="41.5756820" lon="-5.0995980">
        <ele>746.9</ele>
        <time>2019-08-15T07:15:02Z</time>
      </trkpt>
      <trkpt lat="41.5756920" lon="-5.0995700">
        <ele>747.0</ele>
        <time>2019-08-15T07:15:07Z</time>
      </trkpt>
      <trkpt lat="41.5756700" lon="-5.0996750">
        <ele>746.8</ele>
        <time>2019-08-15T07:15:40Z</time>
      </trkpt>
      <trkpt lat="41.5756480" lon="-5.0997110">
        <ele>746.8</ele>
        <time>2019-08-15T07:15:42Z</time>
      </trkpt>
      <trkpt lat="41.5756100" lon="-5.0997260">
        <ele>746.7</ele>
        <time>2019-08-15T07:15:44Z</time>
      </trkpt>
      <trkpt lat="41.5755720" lon="-5.0997500">
        <ele>746.7</ele>
        <time>2019-08-15T07:15:46Z</time>
      </trkpt>
      <trkpt lat="41.5755330" lon="-5.0997660">
        <ele>746.6</ele>
        <time>2019-08-15T07:15:48Z</time>
      </trkpt>
      <trkpt lat="41.5755060" lon="-5.0997750">
        <ele>746.6</ele>
        <time>2019-08-15T07:15:50Z</time>
      </trkpt>
      <trkpt lat="41.5754850" lon="-5.0997980">
        <ele>746.6</ele>
        <time>2019-08-15T07:15:53Z</time>
      </trkpt>
      <trkpt lat="41.5754330" lon="-5.0998760">
        <ele>746.4</ele>
        <time>2019-08-15T07:15:56Z</time>
      </trkpt>
      <trkpt lat="41.5754210" lon="-5.0999120">
        <ele>746.2</ele>
        <time>2019-08-15T07:15:57Z</time>
      </trkpt>
      <trkpt lat="41.5754070" lon="-5.0999500">
        <ele>746.1</ele>
        <time>2019-08-15T07:15:58Z</time>
      </trkpt>
      <trkpt lat="41.5753940" lon="-5.0999970">
        <ele>746.0</ele>
        <time>2019-08-15T07:15:59Z</time>
      </trkpt>
      <trkpt lat="41.5753880" lon="-5.1000540">
        <ele>745.9</ele>
        <time>2019-08-15T07:16:00Z</time>
      </trkpt>
      <trkpt lat="41.5753920" lon="-5.1000940">
        <ele>745.7</ele>
        <time>2019-08-15T07:16:01Z</time>
      </trkpt>
      <trkpt lat="41.5754050" lon="-5.1001290">
        <ele>745.7</ele>
        <time>2019-08-15T07:16:02Z</time>
      </trkpt>
      <trkpt lat="41.5754240" lon="-5.1001600">
        <ele>745.6</ele>
        <time>2019-08-15T07:16:03Z</time>
      </trkpt>
      <trkpt lat="41.5754470" lon="-5.1001860">
        <ele>745.5</ele>
        <time>2019-08-15T07:16:04Z</time>
      </trkpt>
      <trkpt lat="41.5754700" lon="-5.1002100">
        <ele>745.4</ele>
        <time>2019-08-15T07:16:05Z</time>
      </trkpt>
      <trkpt lat="41.5754910" lon="-5.1002320">
        <ele>745.3</ele>
        <time>2019-08-15T07:16:06Z</time>
      </trkpt>
      <trkpt lat="41.5755130" lon="-5.1002540">
        <ele>745.2</ele>
        <time>2019-08-15T07:16:07Z</time>
      </trkpt>
      <trkpt lat="41.5755570" lon="-5.1002910">
        <ele>745.1</ele>
        <time>2019-08-15T07:16:09Z</time>
      </trkpt>
      <trkpt lat="41.5756020" lon="-5.1002990">
        <ele>745.0</ele>
        <time>2019-08-15T07:16:11Z</time>
      </trkpt>
      <trkpt lat="41.5756530" lon="-5.1003010">
        <ele>745.0</ele>
        <time>2019-08-15T07:16:13Z</time>
      </trkpt>
      <trkpt lat="41.5756810" lon="-5.1002970">
        <ele>745.1</ele>
        <time>2019-08-15T07:16:14Z</time>
      </trkpt>
      <trkpt lat="41.5757100" lon="-5.1002890">
        <ele>745.1</ele>
        <time>2019-08-15T07:16:15Z</time>
      </trkpt>
      <trkpt lat="41.5757390" lon="-5.1002790">
        <ele>745.2</ele>
        <time>2019-08-15T07:16:16Z</time>
      </trkpt>
      <trkpt lat="41.5757680" lon="-5.1002690">
        <ele>745.2</ele>
        <time>2019-08-15T07:16:17Z</time>
      </trkpt>
      <trkpt lat="41.5757990" lon="-5.1002590">
        <ele>745.2</ele>
        <time>2019-08-15T07:16:18Z</time>
      </trkpt>
      <trkpt lat="41.5758280" lon="-5.1002480">
        <ele>745.2</ele>
        <time>2019-08-15T07:16:19Z</time>
      </trkpt>
      <trkpt lat="41.5758590" lon="-5.1002370">
        <ele>745.3</ele>
        <time>2019-08-15T07:16:20Z</time>
      </trkpt>
      <trkpt lat="41.5758900" lon="-5.1002280">
        <ele>745.2</ele>
        <time>2019-08-15T07:16:21Z</time>
      </trkpt>
      <trkpt lat="41.5759200" lon="-5.1002170">
        <ele>745.2</ele>
        <time>2019-08-15T07:16:22Z</time>
      </trkpt>
      <trkpt lat="41.5759500" lon="-5.1002050">
        <ele>745.2</ele>
        <time>2019-08-15T07:16:23Z</time>
      </trkpt>
      <trkpt lat="41.5759780" lon="-5.1001900">
        <ele>745.3</ele>
        <time>2019-08-15T07:16:24Z</time>
      </trkpt>
      <trkpt lat="41.5760060" lon="-5.1001770">
        <ele>745.3</ele>
        <time>2019-08-15T07:16:25Z</time>
      </trkpt>
      <trkpt lat="41.5760330" lon="-5.1001630">
        <ele>745.3</ele>
        <time>2019-08-15T07:16:26Z</time>
      </trkpt>
      <trkpt lat="41.5760620" lon="-5.1001500">
        <ele>745.3</ele>
        <time>2019-08-15T07:16:27Z</time>
      </trkpt>
      <trkpt lat="41.5760940" lon="-5.1001370">
        <ele>745.4</ele>
        <time>2019-08-15T07:16:28Z</time>
      </trkpt>
      <trkpt lat="41.5761280" lon="-5.1001240">
        <ele>745.4</ele>
        <time>2019-08-15T07:16:29Z</time>
      </trkpt>
      <trkpt lat="41.5761640" lon="-5.1001080">
        <ele>745.4</ele>
        <time>2019-08-15T07:16:30Z</time>
      </trkpt>
      <trkpt lat="41.5762010" lon="-5.1000940">
        <ele>745.3</ele>
        <time>2019-08-15T07:16:31Z</time>
      </trkpt>
      <trkpt lat="41.5762400" lon="-5.1000810">
        <ele>745.3</ele>
        <time>2019-08-15T07:16:32Z</time>
      </trkpt>
      <trkpt lat="41.5762800" lon="-5.1000670">
        <ele>745.4</ele>
        <time>2019-08-15T07:16:33Z</time>
      </trkpt>
      <trkpt lat="41.5763190" lon="-5.1000550">
        <ele>745.4</ele>
        <time>2019-08-15T07:16:34Z</time>
      </trkpt>
      <trkpt lat="41.5763590" lon="-5.1000450">
        <ele>745.3</ele>
        <time>2019-08-15T07:16:35Z</time>
      </trkpt>
      <trkpt lat="41.5763990" lon="-5.1000400">
        <ele>745.3</ele>
        <time>2019-08-15T07:16:36Z</time>
      </trkpt>
      <trkpt lat="41.5764380" lon="-5.1000420">
        <ele>745.3</ele>
        <time>2019-08-15T07:16:37Z</time>
      </trkpt>
      <trkpt lat="41.5764760" lon="-5.1000490">
        <ele>745.3</ele>
        <time>2019-08-15T07:16:38Z</time>
      </trkpt>
      <trkpt lat="41.5765150" lon="-5.1000590">
        <ele>745.2</ele>
        <time>2019-08-15T07:16:39Z</time>
      </trkpt>
      <trkpt lat="41.5765490" lon="-5.1000770">
        <ele>745.1</ele>
        <time>2019-08-15T07:16:40Z</time>
      </trkpt>
      <trkpt lat="41.5765810" lon="-5.1001030">
        <ele>745.1</ele>
        <time>2019-08-15T07:16:41Z</time>
      </trkpt>
      <trkpt lat="41.5766110" lon="-5.1001360">
        <ele>745.0</ele>
        <time>2019-08-15T07:16:42Z</time>
      </trkpt>
      <trkpt lat="41.5766410" lon="-5.1001730">
        <ele>744.9</ele>
        <time>2019-08-15T07:16:43Z</time>
      </trkpt>
      <trkpt lat="41.5766710" lon="-5.1002130">
        <ele>744.8</ele>
        <time>2019-08-15T07:16:44Z</time>
      </trkpt>
      <trkpt lat="41.5767010" lon="-5.1002510">
        <ele>744.7</ele>
        <time>2019-08-15T07:16:45Z</time>
      </trkpt>
      <trkpt lat="41.5767300" lon="-5.1002910">
        <ele>744.6</ele>
        <time>2019-08-15T07:16:46Z</time>
      </trkpt>
      <trkpt lat="41.5767560" lon="-5.1003270">
        <ele>744.5</ele>
        <time>2019-08-15T07:16:47Z</time>
      </trkpt>
      <trkpt lat="41.5767880" lon="-5.1003660">
        <ele>744.4</ele>
        <time>2019-08-15T07:16:48Z</time>
      </trkpt>
      <trkpt lat="41.5768150" lon="-5.1004040">
        <ele>744.3</ele>
        <time>2019-08-15T07:16:49Z</time>
      </trkpt>
      <trkpt lat="41.5768450" lon="-5.1004460">
        <ele>744.2</ele>
        <time>2019-08-15T07:16:50Z</time>
      </trkpt>
      <trkpt lat="41.5768740" lon="-5.1004850">
        <ele>744.2</ele>
        <time>2019-08-15T07:16:51Z</time>
      </trkpt>
      <trkpt lat="41.5769000" lon="-5.1005230">
        <ele>744.1</ele>
        <time>2019-08-15T07:16:52Z</time>
      </trkpt>
      <trkpt lat="41.5769300" lon="-5.1005600">
        <ele>744.0</ele>
        <time>2019-08-15T07:16:53Z</time>
      </trkpt>
      <trkpt lat="41.5769600" lon="-5.1005980">
        <ele>744.0</ele>
        <time>2019-08-15T07:16:54Z</time>
      </trkpt>
      <trkpt lat="41.5769920" lon="-5.1006380">
        <ele>743.9</ele>
        <time>2019-08-15T07:16:55Z</time>
      </trkpt>
      <trkpt lat="41.5770220" lon="-5.1006800">
        <ele>743.8</ele>
        <time>2019-08-15T07:16:56Z</time>
      </trkpt>
      <trkpt lat="41.5770530" lon="-5.1007230">
        <ele>743.8</ele>
        <time>2019-08-15T07:16:57Z</time>
      </trkpt>
      <trkpt lat="41.5770850" lon="-5.1007660">
        <ele>743.7</ele>
        <time>2019-08-15T07:16:58Z</time>
      </trkpt>
      <trkpt lat="41.5771190" lon="-5.1008090">
        <ele>743.7</ele>
        <time>2019-08-15T07:16:59Z</time>
      </trkpt>
      <trkpt lat="41.5771510" lon="-5.1008530">
        <ele>743.7</ele>
        <time>2019-08-15T07:17:00Z</time>
      </trkpt>
      <trkpt lat="41.5771800" lon="-5.1008960">
        <ele>743.6</ele>
        <time>2019-08-15T07:17:01Z</time>
      </trkpt>
      <trkpt lat="41.5772090" lon="-5.1009380">
        <ele>743.6</ele>
        <time>2019-08-15T07:17:02Z</time>
      </trkpt>
      <trkpt lat="41.5772400" lon="-5.1009800">
        <ele>743.6</ele>
        <time>2019-08-15T07:17:03Z</time>
      </trkpt>
      <trkpt lat="41.5772780" lon="-5.1010210">
        <ele>743.6</ele>
        <time>2019-08-15T07:17:04Z</time>
      </trkpt>
      <trkpt lat="41.5773200" lon="-5.1010650">
        <ele>743.6</ele>
        <time>2019-08-15T07:17:05Z</time>
      </trkpt>
      <trkpt lat="41.5773540" lon="-5.1011060">
        <ele>743.6</ele>
        <time>2019-08-15T07:17:06Z</time>
      </trkpt>
      <trkpt lat="41.5773890" lon="-5.1011540">
        <ele>743.5</ele>
        <time>2019-08-15T07:17:07Z</time>
      </trkpt>
      <trkpt lat="41.5774240" lon="-5.1012010">
        <ele>743.5</ele>
        <time>2019-08-15T07:17:08Z</time>
      </trkpt>
      <trkpt lat="41.5774630" lon="-5.1012490">
        <ele>743.5</ele>
        <time>2019-08-15T07:17:09Z</time>
      </trkpt>
      <trkpt lat="41.5775030" lon="-5.1012970">
        <ele>743.5</ele>
        <time>2019-08-15T07:17:10Z</time>
      </trkpt>
      <trkpt lat="41.5775430" lon="-5.1013500">
        <ele>743.5</ele>
        <time>2019-08-15T07:17:11Z</time>
      </trkpt>
      <trkpt lat="41.5775810" lon="-5.1014000">
        <ele>743.5</ele>
        <time>2019-08-15T07:17:12Z</time>
      </trkpt>
      <trkpt lat="41.5776200" lon="-5.1014550">
        <ele>743.4</ele>
        <time>2019-08-15T07:17:13Z</time>
      </trkpt>
      <trkpt lat="41.5776610" lon="-5.1015080">
        <ele>743.4</ele>
        <time>2019-08-15T07:17:14Z</time>
      </trkpt>
      <trkpt lat="41.5777040" lon="-5.1015600">
        <ele>743.4</ele>
        <time>2019-08-15T07:17:15Z</time>
      </trkpt>
      <trkpt lat="41.5777480" lon="-5.1016140">
        <ele>743.4</ele>
        <time>2019-08-15T07:17:16Z</time>
      </trkpt>
      <trkpt lat="41.5777880" lon="-5.1016680">
        <ele>743.3</ele>
        <time>2019-08-15T07:17:17Z</time>
      </trkpt>
      <trkpt lat="41.5778290" lon="-5.1017220">
        <ele>743.3</ele>
        <time>2019-08-15T07:17:18Z</time>
      </trkpt>
      <trkpt lat="41.5778720" lon="-5.1017750">
        <ele>743.3</ele>
        <time>2019-08-15T07:17:19Z</time>
      </trkpt>
      <trkpt lat="41.5779120" lon="-5.1018270">
        <ele>743.2</ele>
        <time>2019-08-15T07:17:20Z</time>
      </trkpt>
      <trkpt lat="41.5779550" lon="-5.1018790">
        <ele>743.2</ele>
        <time>2019-08-15T07:17:21Z</time>
      </trkpt>
      <trkpt lat="41.5779980" lon="-5.1019300">
        <ele>743.1</ele>
        <time>2019-08-15T07:17:22Z</time>
      </trkpt>
      <trkpt lat="41.5780400" lon="-5.1019780">
        <ele>743.0</ele>
        <time>2019-08-15T07:17:23Z</time>
      </trkpt>
      <trkpt lat="41.5780840" lon="-5.1020290">
        <ele>742.9</ele>
        <time>2019-08-15T07:17:24Z</time>
      </trkpt>
      <trkpt lat="41.5781250" lon="-5.1020770">
        <ele>742.8</ele>
        <time>2019-08-15T07:17:25Z</time>
      </trkpt>
      <trkpt lat="41.5781720" lon="-5.1021200">
        <ele>742.7</ele>
        <time>2019-08-15T07:17:26Z</time>
      </trkpt>
      <trkpt lat="41.5782160" lon="-5.1021550">
        <ele>742.7</ele>
        <time>2019-08-15T07:17:27Z</time>
      </trkpt>
      <trkpt lat="41.5782590" lon="-5.1021840">
        <ele>742.6</ele>
        <time>2019-08-15T07:17:28Z</time>
      </trkpt>
      <trkpt lat="41.5783110" lon="-5.1022040">
        <ele>742.5</ele>
        <time>2019-08-15T07:17:29Z</time>
      </trkpt>
      <trkpt lat="41.5783530" lon="-5.1022250">
        <ele>742.5</ele>
        <time>2019-08-15T07:17:30Z</time>
      </trkpt>
      <trkpt lat="41.5783950" lon="-5.1022450">
        <ele>742.5</ele>
        <time>2019-08-15T07:17:31Z</time>
      </trkpt>
      <trkpt lat="41.5784390" lon="-5.1022710">
        <ele>742.4</ele>
        <time>2019-08-15T07:17:32Z</time>
      </trkpt>
      <trkpt lat="41.5784730" lon="-5.1023030">
        <ele>742.3</ele>
        <time>2019-08-15T07:17:33Z</time>
      </trkpt>
      <trkpt lat="41.5785070" lon="-5.1023400">
        <ele>742.1</ele>
        <time>2019-08-15T07:17:34Z</time>
      </trkpt>
      <trkpt lat="41.5785440" lon="-5.1023800">
        <ele>742.0</ele>
        <time>2019-08-15T07:17:35Z</time>
      </trkpt>
      <trkpt lat="41.5785780" lon="-5.1024220">
        <ele>741.9</ele>
        <time>2019-08-15T07:17:36Z</time>
      </trkpt>
      <trkpt lat="41.5786130" lon="-5.1024660">
        <ele>741.7</ele>
        <time>2019-08-15T07:17:37Z</time>
      </trkpt>
      <trkpt lat="41.5786490" lon="-5.1025080">
        <ele>741.6</ele>
        <time>2019-08-15T07:17:38Z</time>
      </trkpt>
      <trkpt lat="41.5786910" lon="-5.1025480">
        <ele>741.6</ele>
        <time>2019-08-15T07:17:39Z</time>
      </trkpt>
      <trkpt lat="41.5787250" lon="-5.1025910">
        <ele>741.4</ele>
        <time>2019-08-15T07:17:40Z</time>
      </trkpt>
      <trkpt lat="41.5787580" lon="-5.1026360">
        <ele>741.2</ele>
        <time>2019-08-15T07:17:41Z</time>
      </trkpt>
      <trkpt lat="41.5787930" lon="-5.1026800">
        <ele>741.1</ele>
        <time>2019-08-15T07:17:42Z</time>
      </trkpt>
      <trkpt lat="41.5788320" lon="-5.1027270">
        <ele>741.0</ele>
        <time>2019-08-15T07:17:43Z</time>
      </trkpt>
      <trkpt lat="41.5788680" lon="-5.1027760">
        <ele>740.9</ele>
        <time>2019-08-15T07:17:44Z</time>
      </trkpt>
      <trkpt lat="41.5789070" lon="-5.1028260">
        <ele>740.8</ele>
        <time>2019-08-15T07:17:45Z</time>
      </trkpt>
      <trkpt lat="41.5789470" lon="-5.1028740">
        <ele>740.8</ele>
        <time>2019-08-15T07:17:46Z</time>
      </trkpt>
      <trkpt lat="41.5789860" lon="-5.1029240">
        <ele>740.8</ele>
        <time>2019-08-15T07:17:47Z</time>
      </trkpt>
      <trkpt lat="41.5790250" lon="-5.1029710">
        <ele>740.8</ele>
        <time>2019-08-15T07:17:48Z</time>
      </trkpt>
      <trkpt lat="41.5790690" lon="-5.1030140">
        <ele>740.7</ele>
        <time>2019-08-15T07:17:49Z</time>
      </trkpt>
      <trkpt lat="41.5791080" lon="-5.1030610">
        <ele>740.7</ele>
        <time>2019-08-15T07:17:50Z</time>
      </trkpt>
      <trkpt lat="41.5791420" lon="-5.1031070">
        <ele>740.7</ele>
        <time>2019-08-15T07:17:51Z</time>
      </trkpt>
      <trkpt lat="41.5791740" lon="-5.1031510">
        <ele>740.7</ele>
        <time>2019-08-15T07:17:52Z</time>
      </trkpt>
      <trkpt lat="41.5792080" lon="-5.1031900">
        <ele>740.7</ele>
        <time>2019-08-15T07:17:53Z</time>
      </trkpt>
      <trkpt lat="41.5792450" lon="-5.1032280">
        <ele>740.8</ele>
        <time>2019-08-15T07:17:54Z</time>
      </trkpt>
      <trkpt lat="41.5792810" lon="-5.1032670">
        <ele>740.8</ele>
        <time>2019-08-15T07:17:55Z</time>
      </trkpt>
      <trkpt lat="41.5793140" lon="-5.1033040">
        <ele>740.8</ele>
        <time>2019-08-15T07:17:56Z</time>
      </trkpt>
      <trkpt lat="41.5793530" lon="-5.1033410">
        <ele>740.8</ele>
        <time>2019-08-15T07:17:57Z</time>
      </trkpt>
      <trkpt lat="41.5793850" lon="-5.1033800">
        <ele>740.9</ele>
        <time>2019-08-15T07:17:58Z</time>
      </trkpt>
      <trkpt lat="41.5794230" lon="-5.1034220">
        <ele>741.0</ele>
        <time>2019-08-15T07:17:59Z</time>
      </trkpt>
      <trkpt lat="41.5794600" lon="-5.1034660">
        <ele>741.0</ele>
        <time>2019-08-15T07:18:00Z</time>
      </trkpt>
      <trkpt lat="41.5794970" lon="-5.1035120">
        <ele>741.0</ele>
        <time>2019-08-15T07:18:01Z</time>
      </trkpt>
      <trkpt lat="41.5795360" lon="-5.1035610">
        <ele>741.1</ele>
        <time>2019-08-15T07:18:02Z</time>
      </trkpt>
      <trkpt lat="41.5795760" lon="-5.1036060">
        <ele>741.0</ele>
        <time>2019-08-15T07:18:03Z</time>
      </trkpt>
      <trkpt lat="41.5796150" lon="-5.1036520">
        <ele>741.0</ele>
        <time>2019-08-15T07:18:04Z</time>
      </trkpt>
      <trkpt lat="41.5796520" lon="-5.1036980">
        <ele>740.9</ele>
        <time>2019-08-15T07:18:05Z</time>
      </trkpt>
      <trkpt lat="41.5796880" lon="-5.1037400">
        <ele>740.9</ele>
        <time>2019-08-15T07:18:06Z</time>
      </trkpt>
      <trkpt lat="41.5797200" lon="-5.1037810">
        <ele>740.8</ele>
        <time>2019-08-15T07:18:07Z</time>
      </trkpt>
      <trkpt lat="41.5797510" lon="-5.1038220">
        <ele>740.7</ele>
        <time>2019-08-15T07:18:08Z</time>
      </trkpt>
      <trkpt lat="41.5797800" lon="-5.1038600">
        <ele>740.6</ele>
        <time>2019-08-15T07:18:09Z</time>
      </trkpt>
      <trkpt lat="41.5798140" lon="-5.1038990">
        <ele>740.5</ele>
        <time>2019-08-15T07:18:10Z</time>
      </trkpt>
      <trkpt lat="41.5798480" lon="-5.1039390">
        <ele>740.4</ele>
        <time>2019-08-15T07:18:11Z</time>
      </trkpt>
      <trkpt lat="41.5798810" lon="-5.1039830">
        <ele>740.2</ele>
        <time>2019-08-15T07:18:12Z</time>
      </trkpt>
      <trkpt lat="41.5799190" lon="-5.1040260">
        <ele>740.1</ele>
        <time>2019-08-15T07:18:13Z</time>
      </trkpt>
      <trkpt lat="41.5799560" lon="-5.1040680">
        <ele>740.0</ele>
        <time>2019-08-15T07:18:14Z</time>
      </trkpt>
      <trkpt lat="41.5799910" lon="-5.1041090">
        <ele>739.8</ele>
        <time>2019-08-15T07:18:15Z</time>
      </trkpt>
      <trkpt lat="41.5800250" lon="-5.1041510">
        <ele>739.8</ele>
        <time>2019-08-15T07:18:16Z</time>
      </trkpt>
      <trkpt lat="41.5800600" lon="-5.1041960">
        <ele>739.7</ele>
        <time>2019-08-15T07:18:17Z</time>
      </trkpt>
      <trkpt lat="41.5800970" lon="-5.1042400">
        <ele>739.5</ele>
        <time>2019-08-15T07:18:18Z</time>
      </trkpt>
      <trkpt lat="41.5801330" lon="-5.1042850">
        <ele>739.4</ele>
        <time>2019-08-15T07:18:19Z</time>
      </trkpt>
      <trkpt lat="41.5801690" lon="-5.1043290">
        <ele>739.2</ele>
        <time>2019-08-15T07:18:20Z</time>
      </trkpt>
      <trkpt lat="41.5802020" lon="-5.1043740">
        <ele>739.1</ele>
        <time>2019-08-15T07:18:21Z</time>
      </trkpt>
      <trkpt lat="41.5802370" lon="-5.1044220">
        <ele>739.0</ele>
        <time>2019-08-15T07:18:22Z</time>
      </trkpt>
      <trkpt lat="41.5802730" lon="-5.1044700">
        <ele>738.9</ele>
        <time>2019-08-15T07:18:23Z</time>
      </trkpt>
      <trkpt lat="41.5803120" lon="-5.1045180">
        <ele>738.8</ele>
        <time>2019-08-15T07:18:24Z</time>
      </trkpt>
      <trkpt lat="41.5803520" lon="-5.1045650">
        <ele>738.7</ele>
        <time>2019-08-15T07:18:25Z</time>
      </trkpt>
      <trkpt lat="41.5803930" lon="-5.1046130">
        <ele>738.7</ele>
        <time>2019-08-15T07:18:26Z</time>
      </trkpt>
      <trkpt lat="41.5804280" lon="-5.1046590">
        <ele>738.6</ele>
        <time>2019-08-15T07:18:27Z</time>
      </trkpt>
      <trkpt lat="41.5804610" lon="-5.1047030">
        <ele>738.6</ele>
        <time>2019-08-15T07:18:28Z</time>
      </trkpt>
      <trkpt lat="41.5804970" lon="-5.1047450">
        <ele>738.6</ele>
        <time>2019-08-15T07:18:29Z</time>
      </trkpt>
      <trkpt lat="41.5805320" lon="-5.1047880">
        <ele>738.6</ele>
        <time>2019-08-15T07:18:30Z</time>
      </trkpt>
      <trkpt lat="41.5805650" lon="-5.1048350">
        <ele>738.6</ele>
        <time>2019-08-15T07:18:31Z</time>
      </trkpt>
      <trkpt lat="41.5806010" lon="-5.1048820">
        <ele>738.6</ele>
        <time>2019-08-15T07:18:32Z</time>
      </trkpt>
      <trkpt lat="41.5806370" lon="-5.1049300">
        <ele>738.6</ele>
        <time>2019-08-15T07:18:33Z</time>
      </trkpt>
      <trkpt lat="41.5806720" lon="-5.1049750">
        <ele>738.6</ele>
        <time>2019-08-15T07:18:34Z</time>
      </trkpt>
      <trkpt lat="41.5807070" lon="-5.1050190">
        <ele>738.6</ele>
        <time>2019-08-15T07:18:35Z</time>
      </trkpt>
      <trkpt lat="41.5807450" lon="-5.1050650">
        <ele>738.6</ele>
        <time>2019-08-15T07:18:36Z</time>
      </trkpt>
      <trkpt lat="41.5807800" lon="-5.1051060">
        <ele>738.6</ele>
        <time>2019-08-15T07:18:37Z</time>
      </trkpt>
      <trkpt lat="41.5808150" lon="-5.1051470">
        <ele>738.6</ele>
        <time>2019-08-15T07:18:38Z</time>
      </trkpt>
      <trkpt lat="41.5808500" lon="-5.1051910">
        <ele>738.6</ele>
        <time>2019-08-15T07:18:39Z</time>
      </trkpt>
      <trkpt lat="41.5808840" lon="-5.1052370">
        <ele>738.5</ele>
        <time>2019-08-15T07:18:40Z</time>
      </trkpt>
      <trkpt lat="41.5809200" lon="-5.1052820">
        <ele>738.5</ele>
        <time>2019-08-15T07:18:41Z</time>
      </trkpt>
      <trkpt lat="41.5809580" lon="-5.1053280">
        <ele>738.5</ele>
        <time>2019-08-15T07:18:42Z</time>
      </trkpt>
      <trkpt lat="41.5809980" lon="-5.1053690">
        <ele>738.4</ele>
        <time>2019-08-15T07:18:43Z</time>
      </trkpt>
      <trkpt lat="41.5810330" lon="-5.1054080">
        <ele>738.4</ele>
        <time>2019-08-15T07:18:44Z</time>
      </trkpt>
      <trkpt lat="41.5810660" lon="-5.1054480">
        <ele>738.4</ele>
        <time>2019-08-15T07:18:45Z</time>
      </trkpt>
      <trkpt lat="41.5810960" lon="-5.1054870">
        <ele>738.3</ele>
        <time>2019-08-15T07:18:46Z</time>
      </trkpt>
      <trkpt lat="41.5811250" lon="-5.1055260">
        <ele>738.2</ele>
        <time>2019-08-15T07:18:47Z</time>
      </trkpt>
      <trkpt lat="41.5811580" lon="-5.1055670">
        <ele>738.2</ele>
        <time>2019-08-15T07:18:48Z</time>
      </trkpt>
      <trkpt lat="41.5811900" lon="-5.1056090">
        <ele>738.1</ele>
        <time>2019-08-15T07:18:49Z</time>
      </trkpt>
      <trkpt lat="41.5812230" lon="-5.1056520">
        <ele>738.0</ele>
        <time>2019-08-15T07:18:50Z</time>
      </trkpt>
      <trkpt lat="41.5812560" lon="-5.1056950">
        <ele>737.9</ele>
        <time>2019-08-15T07:18:51Z</time>
      </trkpt>
      <trkpt lat="41.5812860" lon="-5.1057390">
        <ele>737.9</ele>
        <time>2019-08-15T07:18:52Z</time>
      </trkpt>
      <trkpt lat="41.5813150" lon="-5.1057840">
        <ele>737.8</ele>
        <time>2019-08-15T07:18:53Z</time>
      </trkpt>
      <trkpt lat="41.5813460" lon="-5.1058280">
        <ele>737.8</ele>
        <time>2019-08-15T07:18:54Z</time>
      </trkpt>
      <trkpt lat="41.5813770" lon="-5.1058720">
        <ele>737.8</ele>
        <time>2019-08-15T07:18:55Z</time>
      </trkpt>
      <trkpt lat="41.5814100" lon="-5.1059170">
        <ele>737.7</ele>
        <time>2019-08-15T07:18:56Z</time>
      </trkpt>
      <trkpt lat="41.5814450" lon="-5.1059620">
        <ele>737.6</ele>
        <time>2019-08-15T07:18:57Z</time>
      </trkpt>
      <trkpt lat="41.5814790" lon="-5.1060050">
        <ele>737.6</ele>
        <time>2019-08-15T07:18:58Z</time>
      </trkpt>
      <trkpt lat="41.5815100" lon="-5.1060480">
        <ele>737.5</ele>
        <time>2019-08-15T07:18:59Z</time>
      </trkpt>
      <trkpt lat="41.5815390" lon="-5.1060920">
        <ele>737.4</ele>
        <time>2019-08-15T07:19:00Z</time>
      </trkpt>
      <trkpt lat="41.5815670" lon="-5.1061380">
        <ele>737.4</ele>
        <time>2019-08-15T07:19:01Z</time>
      </trkpt>
      <trkpt lat="41.5815940" lon="-5.1061910">
        <ele>737.3</ele>
        <time>2019-08-15T07:19:02Z</time>
      </trkpt>
      <trkpt lat="41.5816180" lon="-5.1062470">
        <ele>737.2</ele>
        <time>2019-08-15T07:19:03Z</time>
      </trkpt>
      <trkpt lat="41.5816360" lon="-5.1063100">
        <ele>737.1</ele>
        <time>2019-08-15T07:19:04Z</time>
      </trkpt>
      <trkpt lat="41.5816450" lon="-5.1063760">
        <ele>736.9</ele>
        <time>2019-08-15T07:19:05Z</time>
      </trkpt>
      <trkpt lat="41.5816450" lon="-5.1064460">
        <ele>736.8</ele>
        <time>2019-08-15T07:19:06Z</time>
      </trkpt>
      <trkpt lat="41.5816360" lon="-5.1065160">
        <ele>736.7</ele>
        <time>2019-08-15T07:19:07Z</time>
      </trkpt>
      <trkpt lat="41.5816180" lon="-5.1065810">
        <ele>736.6</ele>
        <time>2019-08-15T07:19:08Z</time>
      </trkpt>
      <trkpt lat="41.5815990" lon="-5.1066410">
        <ele>736.6</ele>
        <time>2019-08-15T07:19:09Z</time>
      </trkpt>
      <trkpt lat="41.5815810" lon="-5.1067010">
        <ele>736.5</ele>
        <time>2019-08-15T07:19:10Z</time>
      </trkpt>
      <trkpt lat="41.5815600" lon="-5.1067580">
        <ele>736.4</ele>
        <time>2019-08-15T07:19:11Z</time>
      </trkpt>
      <trkpt lat="41.5815390" lon="-5.1068130">
        <ele>736.4</ele>
        <time>2019-08-15T07:19:12Z</time>
      </trkpt>
      <trkpt lat="41.5815200" lon="-5.1068660">
        <ele>736.3</ele>
        <time>2019-08-15T07:19:13Z</time>
      </trkpt>
      <trkpt lat="41.5815010" lon="-5.1069190">
        <ele>736.2</ele>
        <time>2019-08-15T07:19:14Z</time>
      </trkpt>
      <trkpt lat="41.5814810" lon="-5.1069730">
        <ele>736.1</ele>
        <time>2019-08-15T07:19:15Z</time>
      </trkpt>
      <trkpt lat="41.5814610" lon="-5.1070280">
        <ele>736.0</ele>
        <time>2019-08-15T07:19:16Z</time>
      </trkpt>
      <trkpt lat="41.5814400" lon="-5.1070870">
        <ele>735.9</ele>
        <time>2019-08-15T07:19:17Z</time>
      </trkpt>
      <trkpt lat="41.5814200" lon="-5.1071450">
        <ele>735.7</ele>
        <time>2019-08-15T07:19:18Z</time>
      </trkpt>
      <trkpt lat="41.5813960" lon="-5.1072030">
        <ele>735.6</ele>
        <time>2019-08-15T07:19:19Z</time>
      </trkpt>
      <trkpt lat="41.5813740" lon="-5.1072610">
        <ele>735.5</ele>
        <time>2019-08-15T07:19:20Z</time>
      </trkpt>
      <trkpt lat="41.5813550" lon="-5.1073220">
        <ele>735.4</ele>
        <time>2019-08-15T07:19:21Z</time>
      </trkpt>
      <trkpt lat="41.5813400" lon="-5.1073830">
        <ele>735.2</ele>
        <time>2019-08-15T07:19:22Z</time>
      </trkpt>
      <trkpt lat="41.5813250" lon="-5.1074410">
        <ele>735.2</ele>
        <time>2019-08-15T07:19:23Z</time>
      </trkpt>
      <trkpt lat="41.5813150" lon="-5.1074980">
        <ele>735.1</ele>
        <time>2019-08-15T07:19:24Z</time>
      </trkpt>
      <trkpt lat="41.5813120" lon="-5.1075560">
        <ele>735.0</ele>
        <time>2019-08-15T07:19:25Z</time>
      </trkpt>
      <trkpt lat="41.5813190" lon="-5.1076120">
        <ele>735.0</ele>
        <time>2019-08-15T07:19:26Z</time>
      </trkpt>
      <trkpt lat="41.5813390" lon="-5.1076660">
        <ele>734.8</ele>
        <time>2019-08-15T07:19:27Z</time>
      </trkpt>
      <trkpt lat="41.5813690" lon="-5.1077050">
        <ele>734.8</ele>
        <time>2019-08-15T07:19:28Z</time>
      </trkpt>
      <trkpt lat="41.5814020" lon="-5.1077230">
        <ele>734.8</ele>
        <time>2019-08-15T07:19:29Z</time>
      </trkpt>
      <trkpt lat="41.5814360" lon="-5.1077290">
        <ele>734.8</ele>
        <time>2019-08-15T07:19:30Z</time>
      </trkpt>
      <trkpt lat="41.5814740" lon="-5.1077240">
        <ele>734.8</ele>
        <time>2019-08-15T07:19:31Z</time>
      </trkpt>
      <trkpt lat="41.5815110" lon="-5.1077080">
        <ele>734.8</ele>
        <time>2019-08-15T07:19:32Z</time>
      </trkpt>
      <trkpt lat="41.5815450" lon="-5.1076820">
        <ele>734.8</ele>
        <time>2019-08-15T07:19:33Z</time>
      </trkpt>
      <trkpt lat="41.5815750" lon="-5.1076480">
        <ele>734.7</ele>
        <time>2019-08-15T07:19:34Z</time>
      </trkpt>
      <trkpt lat="41.5816070" lon="-5.1076130">
        <ele>734.7</ele>
        <time>2019-08-15T07:19:35Z</time>
      </trkpt>
      <trkpt lat="41.5816400" lon="-5.1075810">
        <ele>734.7</ele>
        <time>2019-08-15T07:19:36Z</time>
      </trkpt>
      <trkpt lat="41.5816740" lon="-5.1075500">
        <ele>734.7</ele>
        <time>2019-08-15T07:19:37Z</time>
      </trkpt>
      <trkpt lat="41.5817070" lon="-5.1075160">
        <ele>734.7</ele>
        <time>2019-08-15T07:19:38Z</time>
      </trkpt>
      <trkpt lat="41.5817400" lon="-5.1074840">
        <ele>734.7</ele>
        <time>2019-08-15T07:19:39Z</time>
      </trkpt>
      <trkpt lat="41.5817740" lon="-5.1074530">
        <ele>734.7</ele>
        <time>2019-08-15T07:19:40Z</time>
      </trkpt>
      <trkpt lat="41.5818080" lon="-5.1074180">
        <ele>734.7</ele>
        <time>2019-08-15T07:19:41Z</time>
      </trkpt>
      <trkpt lat="41.5818390" lon="-5.1073830">
        <ele>734.8</ele>
        <time>2019-08-15T07:19:42Z</time>
      </trkpt>
      <trkpt lat="41.5818690" lon="-5.1073510">
        <ele>734.8</ele>
        <time>2019-08-15T07:19:43Z</time>
      </trkpt>
      <trkpt lat="41.5818980" lon="-5.1073200">
        <ele>734.9</ele>
        <time>2019-08-15T07:19:44Z</time>
      </trkpt>
      <trkpt lat="41.5819270" lon="-5.1072890">
        <ele>734.9</ele>
        <time>2019-08-15T07:19:45Z</time>
      </trkpt>
      <trkpt lat="41.5819530" lon="-5.1072560">
        <ele>735.0</ele>
        <time>2019-08-15T07:19:46Z</time>
      </trkpt>
      <trkpt lat="41.5819790" lon="-5.1072230">
        <ele>735.0</ele>
        <time>2019-08-15T07:19:47Z</time>
      </trkpt>
      <trkpt lat="41.5820050" lon="-5.1071910">
        <ele>735.0</ele>
        <time>2019-08-15T07:19:48Z</time>
      </trkpt>
      <trkpt lat="41.5820360" lon="-5.1071600">
        <ele>735.0</ele>
        <time>2019-08-15T07:19:49Z</time>
      </trkpt>
      <trkpt lat="41.5820700" lon="-5.1071340">
        <ele>735.1</ele>
        <time>2019-08-15T07:19:50Z</time>
      </trkpt>
      <trkpt lat="41.5821080" lon="-5.1071150">
        <ele>735.1</ele>
        <time>2019-08-15T07:19:51Z</time>
      </trkpt>
      <trkpt lat="41.5821470" lon="-5.1071090">
        <ele>735.0</ele>
        <time>2019-08-15T07:19:52Z</time>
      </trkpt>
      <trkpt lat="41.5821820" lon="-5.1071230">
        <ele>734.9</ele>
        <time>2019-08-15T07:19:53Z</time>
      </trkpt>
      <trkpt lat="41.5822110" lon="-5.1071530">
        <ele>734.8</ele>
        <time>2019-08-15T07:19:54Z</time>
      </trkpt>
      <trkpt lat="41.5822370" lon="-5.1071910">
        <ele>734.6</ele>
        <time>2019-08-15T07:19:55Z</time>
      </trkpt>
      <trkpt lat="41.5822610" lon="-5.1072300">
        <ele>734.5</ele>
        <time>2019-08-15T07:19:56Z</time>
      </trkpt>
      <trkpt lat="41.5822870" lon="-5.1072700">
        <ele>734.4</ele>
        <time>2019-08-15T07:19:57Z</time>
      </trkpt>
      <trkpt lat="41.5823130" lon="-5.1073150">
        <ele>734.3</ele>
        <time>2019-08-15T07:19:58Z</time>
      </trkpt>
      <trkpt lat="41.5823380" lon="-5.1073660">
        <ele>734.1</ele>
        <time>2019-08-15T07:19:59Z</time>
      </trkpt>
      <trkpt lat="41.5823620" lon="-5.1074200">
        <ele>734.0</ele>
        <time>2019-08-15T07:20:00Z</time>
      </trkpt>
      <trkpt lat="41.5823890" lon="-5.1074740">
        <ele>733.9</ele>
        <time>2019-08-15T07:20:01Z</time>
      </trkpt>
      <trkpt lat="41.5824200" lon="-5.1075280">
        <ele>733.7</ele>
        <time>2019-08-15T07:20:02Z</time>
      </trkpt>
      <trkpt lat="41.5824510" lon="-5.1075830">
        <ele>733.6</ele>
        <time>2019-08-15T07:20:03Z</time>
      </trkpt>
      <trkpt lat="41.5824840" lon="-5.1076400">
        <ele>733.5</ele>
        <time>2019-08-15T07:20:04Z</time>
      </trkpt>
      <trkpt lat="41.5825160" lon="-5.1076980">
        <ele>733.4</ele>
        <time>2019-08-15T07:20:05Z</time>
      </trkpt>
      <trkpt lat="41.5825420" lon="-5.1077590">
        <ele>733.3</ele>
        <time>2019-08-15T07:20:06Z</time>
      </trkpt>
      <trkpt lat="41.5825720" lon="-5.1078220">
        <ele>733.1</ele>
        <time>2019-08-15T07:20:07Z</time>
      </trkpt>
      <trkpt lat="41.5826040" lon="-5.1078850">
        <ele>732.8</ele>
        <time>2019-08-15T07:20:08Z</time>
      </trkpt>
      <trkpt lat="41.5826380" lon="-5.1079500">
        <ele>732.6</ele>
        <time>2019-08-15T07:20:09Z</time>
      </trkpt>
      <trkpt lat="41.5826720" lon="-5.1080150">
        <ele>732.5</ele>
        <time>2019-08-15T07:20:10Z</time>
      </trkpt>
      <trkpt lat="41.5827050" lon="-5.1080790">
        <ele>732.2</ele>
        <time>2019-08-15T07:20:11Z</time>
      </trkpt>
      <trkpt lat="41.5827380" lon="-5.1081430">
        <ele>731.9</ele>
        <time>2019-08-15T07:20:12Z</time>
      </trkpt>
      <trkpt lat="41.5827700" lon="-5.1082090">
        <ele>731.6</ele>
        <time>2019-08-15T07:20:13Z</time>
      </trkpt>
      <trkpt lat="41.5828060" lon="-5.1082760">
        <ele>731.3</ele>
        <time>2019-08-15T07:20:14Z</time>
      </trkpt>
      <trkpt lat="41.5828410" lon="-5.1083410">
        <ele>731.0</ele>
        <time>2019-08-15T07:20:15Z</time>
      </trkpt>
      <trkpt lat="41.5828770" lon="-5.1084060">
        <ele>730.6</ele>
        <time>2019-08-15T07:20:16Z</time>
      </trkpt>
      <trkpt lat="41.5829150" lon="-5.1084730">
        <ele>730.3</ele>
        <time>2019-08-15T07:20:17Z</time>
      </trkpt>
      <trkpt lat="41.5829520" lon="-5.1085440">
        <ele>730.0</ele>
        <time>2019-08-15T07:20:18Z</time>
      </trkpt>
      <trkpt lat="41.5829860" lon="-5.1086120">
        <ele>729.6</ele>
        <time>2019-08-15T07:20:19Z</time>
      </trkpt>
      <trkpt lat="41.5830220" lon="-5.1086840">
        <ele>729.1</ele>
        <time>2019-08-15T07:20:20Z</time>
      </trkpt>
      <trkpt lat="41.5830570" lon="-5.1087570">
        <ele>728.7</ele>
        <time>2019-08-15T07:20:21Z</time>
      </trkpt>
      <trkpt lat="41.5830910" lon="-5.1088340">
        <ele>728.4</ele>
        <time>2019-08-15T07:20:22Z</time>
      </trkpt>
      <trkpt lat="41.5831270" lon="-5.1089110">
        <ele>728.1</ele>
        <time>2019-08-15T07:20:23Z</time>
      </trkpt>
      <trkpt lat="41.5831670" lon="-5.1089880">
        <ele>727.8</ele>
        <time>2019-08-15T07:20:24Z</time>
      </trkpt>
      <trkpt lat="41.5832070" lon="-5.1090660">
        <ele>727.5</ele>
        <time>2019-08-15T07:20:25Z</time>
      </trkpt>
      <trkpt lat="41.5832460" lon="-5.1091460">
        <ele>727.3</ele>
        <time>2019-08-15T07:20:26Z</time>
      </trkpt>
      <trkpt lat="41.5832860" lon="-5.1092280">
        <ele>727.0</ele>
        <time>2019-08-15T07:20:27Z</time>
      </trkpt>
      <trkpt lat="41.5833270" lon="-5.1093100">
        <ele>726.7</ele>
        <time>2019-08-15T07:20:28Z</time>
      </trkpt>
      <trkpt lat="41.5833690" lon="-5.1093930">
        <ele>726.4</ele>
        <time>2019-08-15T07:20:29Z</time>
      </trkpt>
      <trkpt lat="41.5834110" lon="-5.1094780">
        <ele>726.1</ele>
        <time>2019-08-15T07:20:30Z</time>
      </trkpt>
      <trkpt lat="41.5834540" lon="-5.1095620">
        <ele>725.8</ele>
        <time>2019-08-15T07:20:31Z</time>
      </trkpt>
      <trkpt lat="41.5834960" lon="-5.1096460">
        <ele>725.4</ele>
        <time>2019-08-15T07:20:32Z</time>
      </trkpt>
      <trkpt lat="41.5835400" lon="-5.1097270">
        <ele>725.0</ele>
        <time>2019-08-15T07:20:33Z</time>
      </trkpt>
      <trkpt lat="41.5835880" lon="-5.1098050">
        <ele>724.6</ele>
        <time>2019-08-15T07:20:34Z</time>
      </trkpt>
      <trkpt lat="41.5836380" lon="-5.1098810">
        <ele>724.2</ele>
        <time>2019-08-15T07:20:35Z</time>
      </trkpt>
      <trkpt lat="41.5836910" lon="-5.1099560">
        <ele>723.8</ele>
        <time>2019-08-15T07:20:36Z</time>
      </trkpt>
      <trkpt lat="41.5837460" lon="-5.1100300">
        <ele>723.4</ele>
        <time>2019-08-15T07:20:37Z</time>
      </trkpt>
      <trkpt lat="41.5838030" lon="-5.1101020">
        <ele>723.1</ele>
        <time>2019-08-15T07:20:38Z</time>
      </trkpt>
      <trkpt lat="41.5838620" lon="-5.1101720">
        <ele>722.7</ele>
        <time>2019-08-15T07:20:39Z</time>
      </trkpt>
      <trkpt lat="41.5839210" lon="-5.1102380">
        <ele>722.2</ele>
        <time>2019-08-15T07:20:40Z</time>
      </trkpt>
      <trkpt lat="41.5839810" lon="-5.1102990">
        <ele>722.0</ele>
        <time>2019-08-15T07:20:41Z</time>
      </trkpt>
      <trkpt lat="41.5840430" lon="-5.1103570">
        <ele>721.7</ele>
        <time>2019-08-15T07:20:42Z</time>
      </trkpt>
      <trkpt lat="41.5841040" lon="-5.1104140">
        <ele>721.4</ele>
        <time>2019-08-15T07:20:43Z</time>
      </trkpt>
      <trkpt lat="41.5841650" lon="-5.1104710">
        <ele>721.2</ele>
        <time>2019-08-15T07:20:44Z</time>
      </trkpt>
      <trkpt lat="41.5842280" lon="-5.1105250">
        <ele>720.9</ele>
        <time>2019-08-15T07:20:45Z</time>
      </trkpt>
      <trkpt lat="41.5842910" lon="-5.1105770">
        <ele>720.7</ele>
        <time>2019-08-15T07:20:46Z</time>
      </trkpt>
      <trkpt lat="41.5843540" lon="-5.1106320">
        <ele>720.4</ele>
        <time>2019-08-15T07:20:47Z</time>
      </trkpt>
      <trkpt lat="41.5844150" lon="-5.1106880">
        <ele>720.3</ele>
        <time>2019-08-15T07:20:48Z</time>
      </trkpt>
      <trkpt lat="41.5844770" lon="-5.1107470">
        <ele>720.0</ele>
        <time>2019-08-15T07:20:49Z</time>
      </trkpt>
      <trkpt lat="41.5845430" lon="-5.1108090">
        <ele>719.8</ele>
        <time>2019-08-15T07:20:50Z</time>
      </trkpt>
      <trkpt lat="41.5846010" lon="-5.1108740">
        <ele>719.6</ele>
        <time>2019-08-15T07:20:51Z</time>
      </trkpt>
      <trkpt lat="41.5846590" lon="-5.1109360">
        <ele>719.5</ele>
        <time>2019-08-15T07:20:52Z</time>
      </trkpt>
      <trkpt lat="41.5847240" lon="-5.1110000">
        <ele>719.4</ele>
        <time>2019-08-15T07:20:53Z</time>
      </trkpt>
      <trkpt lat="41.5847800" lon="-5.1110670">
        <ele>719.3</ele>
        <time>2019-08-15T07:20:54Z</time>
      </trkpt>
      <trkpt lat="41.5848400" lon="-5.1111340">
        <ele>719.1</ele>
        <time>2019-08-15T07:20:55Z</time>
      </trkpt>
      <trkpt lat="41.5849020" lon="-5.1111990">
        <ele>719.1</ele>
        <time>2019-08-15T07:20:56Z</time>
      </trkpt>
      <trkpt lat="41.5849610" lon="-5.1112630">
        <ele>719.0</ele>
        <time>2019-08-15T07:20:57Z</time>
      </trkpt>
      <trkpt lat="41.5850210" lon="-5.1113230">
        <ele>718.9</ele>
        <time>2019-08-15T07:20:58Z</time>
      </trkpt>
      <trkpt lat="41.5850860" lon="-5.1113840">
        <ele>718.9</ele>
        <time>2019-08-15T07:20:59Z</time>
      </trkpt>
      <trkpt lat="41.5851500" lon="-5.1114410">
        <ele>718.8</ele>
        <time>2019-08-15T07:21:00Z</time>
      </trkpt>
      <trkpt lat="41.5852050" lon="-5.1114920">
        <ele>718.8</ele>
        <time>2019-08-15T07:21:01Z</time>
      </trkpt>
      <trkpt lat="41.5852650" lon="-5.1115420">
        <ele>718.7</ele>
        <time>2019-08-15T07:21:02Z</time>
      </trkpt>
      <trkpt lat="41.5853190" lon="-5.1115880">
        <ele>718.6</ele>
        <time>2019-08-15T07:21:03Z</time>
      </trkpt>
      <trkpt lat="41.5853710" lon="-5.1116340">
        <ele>718.5</ele>
        <time>2019-08-15T07:21:04Z</time>
      </trkpt>
      <trkpt lat="41.5854220" lon="-5.1116750">
        <ele>718.4</ele>
        <time>2019-08-15T07:21:05Z</time>
      </trkpt>
      <trkpt lat="41.5854680" lon="-5.1117120">
        <ele>718.3</ele>
        <time>2019-08-15T07:21:06Z</time>
      </trkpt>
      <trkpt lat="41.5855150" lon="-5.1117560">
        <ele>718.1</ele>
        <time>2019-08-15T07:21:07Z</time>
      </trkpt>
      <trkpt lat="41.5855650" lon="-5.1118080">
        <ele>718.0</ele>
        <time>2019-08-15T07:21:08Z</time>
      </trkpt>
      <trkpt lat="41.5856130" lon="-5.1118570">
        <ele>717.8</ele>
        <time>2019-08-15T07:21:09Z</time>
      </trkpt>
      <trkpt lat="41.5856630" lon="-5.1118940">
        <ele>717.7</ele>
        <time>2019-08-15T07:21:10Z</time>
      </trkpt>
      <trkpt lat="41.5857150" lon="-5.1119290">
        <ele>717.5</ele>
        <time>2019-08-15T07:21:11Z</time>
      </trkpt>
      <trkpt lat="41.5857780" lon="-5.1119610">
        <ele>717.3</ele>
        <time>2019-08-15T07:21:12Z</time>
      </trkpt>
      <trkpt lat="41.5858410" lon="-5.1120020">
        <ele>717.1</ele>
        <time>2019-08-15T07:21:13Z</time>
      </trkpt>
      <trkpt lat="41.5859050" lon="-5.1120440">
        <ele>717.0</ele>
        <time>2019-08-15T07:21:14Z</time>
      </trkpt>
      <trkpt lat="41.5859720" lon="-5.1120830">
        <ele>716.9</ele>
        <time>2019-08-15T07:21:15Z</time>
      </trkpt>
      <trkpt lat="41.5860340" lon="-5.1121210">
        <ele>716.9</ele>
        <time>2019-08-15T07:21:16Z</time>
      </trkpt>
      <trkpt lat="41.5860810" lon="-5.1121560">
        <ele>716.9</ele>
        <time>2019-08-15T07:21:17Z</time>
      </trkpt>
      <trkpt lat="41.5861240" lon="-5.1121880">
        <ele>716.8</ele>
        <time>2019-08-15T07:21:18Z</time>
      </trkpt>
      <trkpt lat="41.5861630" lon="-5.1122170">
        <ele>716.8</ele>
        <time>2019-08-15T07:21:19Z</time>
      </trkpt>
      <trkpt lat="41.5862070" lon="-5.1122460">
        <ele>716.8</ele>
        <time>2019-08-15T07:21:20Z</time>
      </trkpt>
      <trkpt lat="41.5862480" lon="-5.1122700">
        <ele>716.9</ele>
        <time>2019-08-15T07:21:21Z</time>
      </trkpt>
      <trkpt lat="41.5862930" lon="-5.1122990">
        <ele>716.9</ele>
        <time>2019-08-15T07:21:22Z</time>
      </trkpt>
      <trkpt lat="41.5863430" lon="-5.1123290">
        <ele>717.0</ele>
        <time>2019-08-15T07:21:23Z</time>
      </trkpt>
      <trkpt lat="41.5863920" lon="-5.1123610">
        <ele>717.1</ele>
        <time>2019-08-15T07:21:24Z</time>
      </trkpt>
      <trkpt lat="41.5864390" lon="-5.1123930">
        <ele>717.2</ele>
        <time>2019-08-15T07:21:25Z</time>
      </trkpt>
      <trkpt lat="41.5864820" lon="-5.1124210">
        <ele>717.3</ele>
        <time>2019-08-15T07:21:26Z</time>
      </trkpt>
      <trkpt lat="41.5865240" lon="-5.1124480">
        <ele>717.3</ele>
        <time>2019-08-15T07:21:27Z</time>
      </trkpt>
      <trkpt lat="41.5865680" lon="-5.1124780">
        <ele>717.3</ele>
        <time>2019-08-15T07:21:28Z</time>
      </trkpt>
      <trkpt lat="41.5866070" lon="-5.1125060">
        <ele>717.3</ele>
        <time>2019-08-15T07:21:29Z</time>
      </trkpt>
      <trkpt lat="41.5866480" lon="-5.1125330">
        <ele>717.3</ele>
        <time>2019-08-15T07:21:30Z</time>
      </trkpt>
      <trkpt lat="41.5866880" lon="-5.1125650">
        <ele>717.4</ele>
        <time>2019-08-15T07:21:31Z</time>
      </trkpt>
      <trkpt lat="41.5867310" lon="-5.1125980">
        <ele>717.4</ele>
        <time>2019-08-15T07:21:32Z</time>
      </trkpt>
      <trkpt lat="41.5867720" lon="-5.1126280">
        <ele>717.4</ele>
        <time>2019-08-15T07:21:33Z</time>
      </trkpt>
      <trkpt lat="41.5868130" lon="-5.1126570">
        <ele>717.5</ele>
        <time>2019-08-15T07:21:34Z</time>
      </trkpt>
      <trkpt lat="41.5868530" lon="-5.1126850">
        <ele>717.5</ele>
        <time>2019-08-15T07:21:35Z</time>
      </trkpt>
      <trkpt lat="41.5868940" lon="-5.1127130">
        <ele>717.5</ele>
        <time>2019-08-15T07:21:36Z</time>
      </trkpt>
      <trkpt lat="41.5869310" lon="-5.1127370">
        <ele>717.5</ele>
        <time>2019-08-15T07:21:37Z</time>
      </trkpt>
      <trkpt lat="41.5869710" lon="-5.1127590">
        <ele>717.6</ele>
        <time>2019-08-15T07:21:38Z</time>
      </trkpt>
      <trkpt lat="41.5870090" lon="-5.1127830">
        <ele>717.6</ele>
        <time>2019-08-15T07:21:39Z</time>
      </trkpt>
      <trkpt lat="41.5870510" lon="-5.1128120">
        <ele>717.7</ele>
        <time>2019-08-15T07:21:40Z</time>
      </trkpt>
      <trkpt lat="41.5870870" lon="-5.1128420">
        <ele>717.7</ele>
        <time>2019-08-15T07:21:41Z</time>
      </trkpt>
      <trkpt lat="41.5871290" lon="-5.1128690">
        <ele>717.7</ele>
        <time>2019-08-15T07:21:42Z</time>
      </trkpt>
      <trkpt lat="41.5871670" lon="-5.1128960">
        <ele>717.7</ele>
        <time>2019-08-15T07:21:43Z</time>
      </trkpt>
      <trkpt lat="41.5872030" lon="-5.1129250">
        <ele>717.8</ele>
        <time>2019-08-15T07:21:44Z</time>
      </trkpt>
      <trkpt lat="41.5872410" lon="-5.1129530">
        <ele>717.9</ele>
        <time>2019-08-15T07:21:45Z</time>
      </trkpt>
      <trkpt lat="41.5872750" lon="-5.1129800">
        <ele>718.0</ele>
        <time>2019-08-15T07:21:46Z</time>
      </trkpt>
      <trkpt lat="41.5873130" lon="-5.1130080">
        <ele>718.0</ele>
        <time>2019-08-15T07:21:47Z</time>
      </trkpt>
      <trkpt lat="41.5873500" lon="-5.1130320">
        <ele>718.0</ele>
        <time>2019-08-15T07:21:48Z</time>
      </trkpt>
      <trkpt lat="41.5873870" lon="-5.1130560">
        <ele>718.1</ele>
        <time>2019-08-15T07:21:49Z</time>
      </trkpt>
      <trkpt lat="41.5874200" lon="-5.1130820">
        <ele>718.1</ele>
        <time>2019-08-15T07:21:50Z</time>
      </trkpt>
      <trkpt lat="41.5874620" lon="-5.1131130">
        <ele>718.1</ele>
        <time>2019-08-15T07:21:51Z</time>
      </trkpt>
      <trkpt lat="41.5875020" lon="-5.1131410">
        <ele>718.2</ele>
        <time>2019-08-15T07:21:52Z</time>
      </trkpt>
      <trkpt lat="41.5875430" lon="-5.1131690">
        <ele>718.3</ele>
        <time>2019-08-15T07:21:53Z</time>
      </trkpt>
      <trkpt lat="41.5875830" lon="-5.1131980">
        <ele>718.4</ele>
        <time>2019-08-15T07:21:54Z</time>
      </trkpt>
      <trkpt lat="41.5876200" lon="-5.1132250">
        <ele>718.5</ele>
        <time>2019-08-15T07:21:55Z</time>
      </trkpt>
      <trkpt lat="41.5876610" lon="-5.1132520">
        <ele>718.6</ele>
        <time>2019-08-15T07:21:56Z</time>
      </trkpt>
      <trkpt lat="41.5876970" lon="-5.1132780">
        <ele>718.7</ele>
        <time>2019-08-15T07:21:57Z</time>
      </trkpt>
      <trkpt lat="41.5877330" lon="-5.1133060">
        <ele>718.8</ele>
        <time>2019-08-15T07:21:58Z</time>
      </trkpt>
      <trkpt lat="41.5877680" lon="-5.1133340">
        <ele>719.0</ele>
        <time>2019-08-15T07:21:59Z</time>
      </trkpt>
      <trkpt lat="41.5878020" lon="-5.1133610">
        <ele>719.2</ele>
        <time>2019-08-15T07:22:00Z</time>
      </trkpt>
      <trkpt lat="41.5878330" lon="-5.1133870">
        <ele>719.3</ele>
        <time>2019-08-15T07:22:01Z</time>
      </trkpt>
      <trkpt lat="41.5878610" lon="-5.1134150">
        <ele>719.5</ele>
        <time>2019-08-15T07:22:02Z</time>
      </trkpt>
      <trkpt lat="41.5878920" lon="-5.1134430">
        <ele>719.6</ele>
        <time>2019-08-15T07:22:03Z</time>
      </trkpt>
      <trkpt lat="41.5879200" lon="-5.1134690">
        <ele>719.8</ele>
        <time>2019-08-15T07:22:04Z</time>
      </trkpt>
      <trkpt lat="41.5879510" lon="-5.1134940">
        <ele>720.0</ele>
        <time>2019-08-15T07:22:05Z</time>
      </trkpt>
      <trkpt lat="41.5879820" lon="-5.1135220">
        <ele>720.1</ele>
        <time>2019-08-15T07:22:06Z</time>
      </trkpt>
      <trkpt lat="41.5880120" lon="-5.1135530">
        <ele>720.3</ele>
        <time>2019-08-15T07:22:07Z</time>
      </trkpt>
      <trkpt lat="41.5880480" lon="-5.1135850">
        <ele>720.5</ele>
        <time>2019-08-15T07:22:08Z</time>
      </trkpt>
      <trkpt lat="41.5880840" lon="-5.1136150">
        <ele>720.7</ele>
        <time>2019-08-15T07:22:09Z</time>
      </trkpt>
      <trkpt lat="41.5881130" lon="-5.1136450">
        <ele>720.9</ele>
        <time>2019-08-15T07:22:10Z</time>
      </trkpt>
      <trkpt lat="41.5881420" lon="-5.1136770">
        <ele>721.2</ele>
        <time>2019-08-15T07:22:11Z</time>
      </trkpt>
      <trkpt lat="41.5881720" lon="-5.1137090">
        <ele>721.4</ele>
        <time>2019-08-15T07:22:12Z</time>
      </trkpt>
      <trkpt lat="41.5882030" lon="-5.1137410">
        <ele>721.6</ele>
        <time>2019-08-15T07:22:13Z</time>
      </trkpt>
      <trkpt lat="41.5882320" lon="-5.1137720">
        <ele>721.8</ele>
        <time>2019-08-15T07:22:14Z</time>
      </trkpt>
      <trkpt lat="41.5882530" lon="-5.1137990">
        <ele>721.9</ele>
        <time>2019-08-15T07:22:15Z</time>
      </trkpt>
      <trkpt lat="41.5882770" lon="-5.1138250">
        <ele>722.0</ele>
        <time>2019-08-15T07:22:16Z</time>
      </trkpt>
      <trkpt lat="41.5883000" lon="-5.1138500">
        <ele>722.2</ele>
        <time>2019-08-15T07:22:17Z</time>
      </trkpt>
      <trkpt lat="41.5883210" lon="-5.1138740">
        <ele>722.3</ele>
        <time>2019-08-15T07:22:18Z</time>
      </trkpt>
      <trkpt lat="41.5883430" lon="-5.1138980">
        <ele>722.4</ele>
        <time>2019-08-15T07:22:19Z</time>
      </trkpt>
      <trkpt lat="41.5883620" lon="-5.1139170">
        <ele>722.5</ele>
        <time>2019-08-15T07:22:20Z</time>
      </trkpt>
      <trkpt lat="41.5884020" lon="-5.1139470">
        <ele>722.7</ele>
        <time>2019-08-15T07:22:22Z</time>
      </trkpt>
      <trkpt lat="41.5884320" lon="-5.1139750">
        <ele>722.9</ele>
        <time>2019-08-15T07:22:24Z</time>
      </trkpt>
      <trkpt lat="41.5884750" lon="-5.1140060">
        <ele>723.1</ele>
        <time>2019-08-15T07:22:26Z</time>
      </trkpt>
      <trkpt lat="41.5885120" lon="-5.1140410">
        <ele>723.3</ele>
        <time>2019-08-15T07:22:28Z</time>
      </trkpt>
      <trkpt lat="41.5885410" lon="-5.1140770">
        <ele>723.5</ele>
        <time>2019-08-15T07:22:30Z</time>
      </trkpt>
      <trkpt lat="41.5885700" lon="-5.1141130">
        <ele>723.7</ele>
        <time>2019-08-15T07:22:32Z</time>
      </trkpt>
      <trkpt lat="41.5885940" lon="-5.1141500">
        <ele>723.8</ele>
        <time>2019-08-15T07:22:34Z</time>
      </trkpt>
      <trkpt lat="41.5886290" lon="-5.1141890">
        <ele>724.0</ele>
        <time>2019-08-15T07:22:36Z</time>
      </trkpt>
      <trkpt lat="41.5886580" lon="-5.1142290">
        <ele>724.2</ele>
        <time>2019-08-15T07:22:38Z</time>
      </trkpt>
      <trkpt lat="41.5886950" lon="-5.1142700">
        <ele>724.4</ele>
        <time>2019-08-15T07:22:40Z</time>
      </trkpt>
      <trkpt lat="41.5887300" lon="-5.1143110">
        <ele>724.7</ele>
        <time>2019-08-15T07:22:42Z</time>
      </trkpt>
      <trkpt lat="41.5887670" lon="-5.1143530">
        <ele>724.9</ele>
        <time>2019-08-15T07:22:44Z</time>
      </trkpt>
      <trkpt lat="41.5888050" lon="-5.1143940">
        <ele>725.1</ele>
        <time>2019-08-15T07:22:46Z</time>
      </trkpt>
      <trkpt lat="41.5888460" lon="-5.1144410">
        <ele>725.4</ele>
        <time>2019-08-15T07:22:48Z</time>
      </trkpt>
      <trkpt lat="41.5888670" lon="-5.1144680">
        <ele>725.6</ele>
        <time>2019-08-15T07:22:49Z</time>
      </trkpt>
      <trkpt lat="41.5888890" lon="-5.1144960">
        <ele>725.7</ele>
        <time>2019-08-15T07:22:50Z</time>
      </trkpt>
      <trkpt lat="41.5889060" lon="-5.1145210">
        <ele>725.8</ele>
        <time>2019-08-15T07:22:51Z</time>
      </trkpt>
      <trkpt lat="41.5889460" lon="-5.1145700">
        <ele>726.0</ele>
        <time>2019-08-15T07:22:53Z</time>
      </trkpt>
      <trkpt lat="41.5889830" lon="-5.1146180">
        <ele>726.2</ele>
        <time>2019-08-15T07:22:55Z</time>
      </trkpt>
      <trkpt lat="41.5890040" lon="-5.1146420">
        <ele>726.2</ele>
        <time>2019-08-15T07:22:56Z</time>
      </trkpt>
      <trkpt lat="41.5890240" lon="-5.1146680">
        <ele>726.3</ele>
        <time>2019-08-15T07:22:57Z</time>
      </trkpt>
      <trkpt lat="41.5890450" lon="-5.1146940">
        <ele>726.3</ele>
        <time>2019-08-15T07:22:58Z</time>
      </trkpt>
      <trkpt lat="41.5890700" lon="-5.1147220">
        <ele>726.3</ele>
        <time>2019-08-15T07:22:59Z</time>
      </trkpt>
      <trkpt lat="41.5890960" lon="-5.1147500">
        <ele>726.3</ele>
        <time>2019-08-15T07:23:00Z</time>
      </trkpt>
      <trkpt lat="41.5891220" lon="-5.1147810">
        <ele>726.2</ele>
        <time>2019-08-15T07:23:01Z</time>
      </trkpt>
      <trkpt lat="41.5891480" lon="-5.1148120">
        <ele>726.2</ele>
        <time>2019-08-15T07:23:02Z</time>
      </trkpt>
      <trkpt lat="41.5891740" lon="-5.1148440">
        <ele>726.1</ele>
        <time>2019-08-15T07:23:03Z</time>
      </trkpt>
      <trkpt lat="41.5892000" lon="-5.1148780">
        <ele>725.9</ele>
        <time>2019-08-15T07:23:04Z</time>
      </trkpt>
      <trkpt lat="41.5892300" lon="-5.1149130">
        <ele>725.7</ele>
        <time>2019-08-15T07:23:05Z</time>
      </trkpt>
      <trkpt lat="41.5892580" lon="-5.1149480">
        <ele>725.5</ele>
        <time>2019-08-15T07:23:06Z</time>
      </trkpt>
      <trkpt lat="41.5892870" lon="-5.1149850">
        <ele>725.2</ele>
        <time>2019-08-15T07:23:07Z</time>
      </trkpt>
      <trkpt lat="41.5893180" lon="-5.1150240">
        <ele>724.9</ele>
        <time>2019-08-15T07:23:08Z</time>
      </trkpt>
      <trkpt lat="41.5893520" lon="-5.1150650">
        <ele>724.6</ele>
        <time>2019-08-15T07:23:09Z</time>
      </trkpt>
      <trkpt lat="41.5893860" lon="-5.1151100">
        <ele>724.3</ele>
        <time>2019-08-15T07:23:10Z</time>
      </trkpt>
      <trkpt lat="41.5894240" lon="-5.1151570">
        <ele>724.0</ele>
        <time>2019-08-15T07:23:11Z</time>
      </trkpt>
      <trkpt lat="41.5894650" lon="-5.1152040">
        <ele>723.7</ele>
        <time>2019-08-15T07:23:12Z</time>
      </trkpt>
      <trkpt lat="41.5895050" lon="-5.1152560">
        <ele>723.3</ele>
        <time>2019-08-15T07:23:13Z</time>
      </trkpt>
      <trkpt lat="41.5895470" lon="-5.1153120">
        <ele>722.8</ele>
        <time>2019-08-15T07:23:14Z</time>
      </trkpt>
      <trkpt lat="41.5895940" lon="-5.1153730">
        <ele>722.5</ele>
        <time>2019-08-15T07:23:15Z</time>
      </trkpt>
      <trkpt lat="41.5896420" lon="-5.1154370">
        <ele>722.1</ele>
        <time>2019-08-15T07:23:16Z</time>
      </trkpt>
      <trkpt lat="41.5896910" lon="-5.1155010">
        <ele>721.7</ele>
        <time>2019-08-15T07:23:17Z</time>
      </trkpt>
      <trkpt lat="41.5897400" lon="-5.1155670">
        <ele>721.4</ele>
        <time>2019-08-15T07:23:18Z</time>
      </trkpt>
      <trkpt lat="41.5897880" lon="-5.1156340">
        <ele>721.1</ele>
        <time>2019-08-15T07:23:19Z</time>
      </trkpt>
      <trkpt lat="41.5898360" lon="-5.1157020">
        <ele>720.9</ele>
        <time>2019-08-15T07:23:20Z</time>
      </trkpt>
      <trkpt lat="41.5898840" lon="-5.1157710">
        <ele>720.6</ele>
        <time>2019-08-15T07:23:21Z</time>
      </trkpt>
      <trkpt lat="41.5899290" lon="-5.1158400">
        <ele>720.2</ele>
        <time>2019-08-15T07:23:22Z</time>
      </trkpt>
      <trkpt lat="41.5899760" lon="-5.1159090">
        <ele>719.9</ele>
        <time>2019-08-15T07:23:23Z</time>
      </trkpt>
      <trkpt lat="41.5900230" lon="-5.1159780">
        <ele>719.4</ele>
        <time>2019-08-15T07:23:24Z</time>
      </trkpt>
      <trkpt lat="41.5900710" lon="-5.1160480">
        <ele>719.1</ele>
        <time>2019-08-15T07:23:25Z</time>
      </trkpt>
      <trkpt lat="41.5901200" lon="-5.1161190">
        <ele>718.7</ele>
        <time>2019-08-15T07:23:26Z</time>
      </trkpt>
      <trkpt lat="41.5901690" lon="-5.1161900">
        <ele>718.3</ele>
        <time>2019-08-15T07:23:27Z</time>
      </trkpt>
      <trkpt lat="41.5902160" lon="-5.1162600">
        <ele>717.9</ele>
        <time>2019-08-15T07:23:28Z</time>
      </trkpt>
      <trkpt lat="41.5902630" lon="-5.1163320">
        <ele>717.4</ele>
        <time>2019-08-15T07:23:29Z</time>
      </trkpt>
      <trkpt lat="41.5903110" lon="-5.1164050">
        <ele>717.0</ele>
        <time>2019-08-15T07:23:30Z</time>
      </trkpt>
      <trkpt lat="41.5903580" lon="-5.1164830">
        <ele>716.5</ele>
        <time>2019-08-15T07:23:31Z</time>
      </trkpt>
      <trkpt lat="41.5904010" lon="-5.1165660">
        <ele>716.0</ele>
        <time>2019-08-15T07:23:32Z</time>
      </trkpt>
      <trkpt lat="41.5904470" lon="-5.1166480">
        <ele>715.6</ele>
        <time>2019-08-15T07:23:33Z</time>
      </trkpt>
      <trkpt lat="41.5904920" lon="-5.1167300">
        <ele>715.1</ele>
        <time>2019-08-15T07:23:34Z</time>
      </trkpt>
      <trkpt lat="41.5905380" lon="-5.1168150">
        <ele>714.7</ele>
        <time>2019-08-15T07:23:35Z</time>
      </trkpt>
      <trkpt lat="41.5905830" lon="-5.1169040">
        <ele>714.1</ele>
        <time>2019-08-15T07:23:36Z</time>
      </trkpt>
      <trkpt lat="41.5906260" lon="-5.1169940">
        <ele>713.8</ele>
        <time>2019-08-15T07:23:37Z</time>
      </trkpt>
      <trkpt lat="41.5906680" lon="-5.1170850">
        <ele>713.6</ele>
        <time>2019-08-15T07:23:38Z</time>
      </trkpt>
      <trkpt lat="41.5907130" lon="-5.1171790">
        <ele>713.3</ele>
        <time>2019-08-15T07:23:39Z</time>
      </trkpt>
      <trkpt lat="41.5907580" lon="-5.1172710">
        <ele>713.0</ele>
        <time>2019-08-15T07:23:40Z</time>
      </trkpt>
      <trkpt lat="41.5908050" lon="-5.1173640">
        <ele>712.8</ele>
        <time>2019-08-15T07:23:41Z</time>
      </trkpt>
      <trkpt lat="41.5908530" lon="-5.1174580">
        <ele>712.6</ele>
        <time>2019-08-15T07:23:42Z</time>
      </trkpt>
      <trkpt lat="41.5908990" lon="-5.1175530">
        <ele>712.5</ele>
        <time>2019-08-15T07:23:43Z</time>
      </trkpt>
      <trkpt lat="41.5909420" lon="-5.1176490">
        <ele>712.3</ele>
        <time>2019-08-15T07:23:44Z</time>
      </trkpt>
      <trkpt lat="41.5909850" lon="-5.1177450">
        <ele>712.2</ele>
        <time>2019-08-15T07:23:45Z</time>
      </trkpt>
      <trkpt lat="41.5910280" lon="-5.1178320">
        <ele>712.1</ele>
        <time>2019-08-15T07:23:46Z</time>
      </trkpt>
      <trkpt lat="41.5910670" lon="-5.1179130">
        <ele>712.0</ele>
        <time>2019-08-15T07:23:47Z</time>
      </trkpt>
      <trkpt lat="41.5911030" lon="-5.1179890">
        <ele>711.8</ele>
        <time>2019-08-15T07:23:48Z</time>
      </trkpt>
      <trkpt lat="41.5911370" lon="-5.1180600">
        <ele>711.6</ele>
        <time>2019-08-15T07:23:49Z</time>
      </trkpt>
      <trkpt lat="41.5911670" lon="-5.1181230">
        <ele>711.4</ele>
        <time>2019-08-15T07:23:50Z</time>
      </trkpt>
      <trkpt lat="41.5911970" lon="-5.1181850">
        <ele>711.2</ele>
        <time>2019-08-15T07:23:51Z</time>
      </trkpt>
      <trkpt lat="41.5912290" lon="-5.1182370">
        <ele>711.0</ele>
        <time>2019-08-15T07:23:52Z</time>
      </trkpt>
      <trkpt lat="41.5912670" lon="-5.1182760">
        <ele>710.9</ele>
        <time>2019-08-15T07:23:53Z</time>
      </trkpt>
      <trkpt lat="41.5913070" lon="-5.1182930">
        <ele>710.9</ele>
        <time>2019-08-15T07:23:54Z</time>
      </trkpt>
      <trkpt lat="41.5913450" lon="-5.1182850">
        <ele>710.9</ele>
        <time>2019-08-15T07:23:55Z</time>
      </trkpt>
      <trkpt lat="41.5913790" lon="-5.1182590">
        <ele>711.0</ele>
        <time>2019-08-15T07:23:56Z</time>
      </trkpt>
      <trkpt lat="41.5914080" lon="-5.1182200">
        <ele>711.1</ele>
        <time>2019-08-15T07:23:57Z</time>
      </trkpt>
      <trkpt lat="41.5914350" lon="-5.1181780">
        <ele>711.3</ele>
        <time>2019-08-15T07:23:58Z</time>
      </trkpt>
      <trkpt lat="41.5914610" lon="-5.1181320">
        <ele>711.4</ele>
        <time>2019-08-15T07:23:59Z</time>
      </trkpt>
      <trkpt lat="41.5914870" lon="-5.1180870">
        <ele>711.5</ele>
        <time>2019-08-15T07:24:00Z</time>
      </trkpt>
      <trkpt lat="41.5915070" lon="-5.1180410">
        <ele>711.6</ele>
        <time>2019-08-15T07:24:01Z</time>
      </trkpt>
      <trkpt lat="41.5915290" lon="-5.1180020">
        <ele>711.6</ele>
        <time>2019-08-15T07:24:02Z</time>
      </trkpt>
      <trkpt lat="41.5915340" lon="-5.1179780">
        <ele>711.7</ele>
        <time>2019-08-15T07:24:03Z</time>
      </trkpt>
      <trkpt lat="41.5915990" lon="-5.1178490">
        <ele>711.8</ele>
        <time>2019-08-15T07:24:05Z</time>
      </trkpt>
      <trkpt lat="41.5916150" lon="-5.1178060">
        <ele>711.9</ele>
        <time>2019-08-15T07:24:06Z</time>
      </trkpt>
      <trkpt lat="41.5916250" lon="-5.1177890">
        <ele>711.9</ele>
        <time>2019-08-15T07:24:07Z</time>
      </trkpt>
      <trkpt lat="41.5916140" lon="-5.1177480">
        <ele>712.0</ele>
        <time>2019-08-15T07:24:09Z</time>
      </trkpt>
      <trkpt lat="41.5916120" lon="-5.1176850">
        <ele>712.0</ele>
        <time>2019-08-15T07:24:11Z</time>
      </trkpt>
      <trkpt lat="41.5916190" lon="-5.1176210">
        <ele>712.1</ele>
        <time>2019-08-15T07:24:13Z</time>
      </trkpt>
      <trkpt lat="41.5916290" lon="-5.1175820">
        <ele>712.1</ele>
        <time>2019-08-15T07:24:14Z</time>
      </trkpt>
      <trkpt lat="41.5916330" lon="-5.1175490">
        <ele>712.2</ele>
        <time>2019-08-15T07:24:15Z</time>
      </trkpt>
      <trkpt lat="41.5916460" lon="-5.1174940">
        <ele>712.3</ele>
        <time>2019-08-15T07:24:17Z</time>
      </trkpt>
      <trkpt lat="41.5916530" lon="-5.1174440">
        <ele>712.3</ele>
        <time>2019-08-15T07:24:19Z</time>
      </trkpt>
      <trkpt lat="41.5916610" lon="-5.1174240">
        <ele>712.4</ele>
        <time>2019-08-15T07:24:21Z</time>
      </trkpt>
      <trkpt lat="41.5916720" lon="-5.1173950">
        <ele>712.4</ele>
        <time>2019-08-15T07:24:26Z</time>
      </trkpt>
      <trkpt lat="41.5916670" lon="-5.1174020">
        <ele>712.4</ele>
        <time>2019-08-15T07:24:35Z</time>
      </trkpt>
      <trkpt lat="41.5917660" lon="-5.1173560">
        <ele>712.0</ele>
        <time>2019-08-15T07:25:11Z</time>
      </trkpt>
      <trkpt lat="41.5918010" lon="-5.1173710">
        <ele>711.9</ele>
        <time>2019-08-15T07:25:12Z</time>
      </trkpt>
      <trkpt lat="41.5918340" lon="-5.1173910">
        <ele>711.9</ele>
        <time>2019-08-15T07:25:13Z</time>
      </trkpt>
      <trkpt lat="41.5918700" lon="-5.1174180">
        <ele>711.8</ele>
        <time>2019-08-15T07:25:14Z</time>
      </trkpt>
      <trkpt lat="41.5919090" lon="-5.1174500">
        <ele>711.7</ele>
        <time>2019-08-15T07:25:15Z</time>
      </trkpt>
      <trkpt lat="41.5919500" lon="-5.1174840">
        <ele>711.3</ele>
        <time>2019-08-15T07:25:16Z</time>
      </trkpt>
      <trkpt lat="41.5919930" lon="-5.1175170">
        <ele>711.1</ele>
        <time>2019-08-15T07:25:17Z</time>
      </trkpt>
      <trkpt lat="41.5920390" lon="-5.1175480">
        <ele>710.9</ele>
        <time>2019-08-15T07:25:18Z</time>
      </trkpt>
      <trkpt lat="41.5920830" lon="-5.1175770">
        <ele>710.7</ele>
        <time>2019-08-15T07:25:19Z</time>
      </trkpt>
      <trkpt lat="41.5921270" lon="-5.1176040">
        <ele>710.5</ele>
        <time>2019-08-15T07:25:20Z</time>
      </trkpt>
      <trkpt lat="41.5921720" lon="-5.1176310">
        <ele>710.3</ele>
        <time>2019-08-15T07:25:21Z</time>
      </trkpt>
      <trkpt lat="41.5922180" lon="-5.1176580">
        <ele>710.2</ele>
        <time>2019-08-15T07:25:22Z</time>
      </trkpt>
      <trkpt lat="41.5922630" lon="-5.1176820">
        <ele>710.2</ele>
        <time>2019-08-15T07:25:23Z</time>
      </trkpt>
      <trkpt lat="41.5923070" lon="-5.1177050">
        <ele>710.1</ele>
        <time>2019-08-15T07:25:24Z</time>
      </trkpt>
      <trkpt lat="41.5923530" lon="-5.1177240">
        <ele>710.0</ele>
        <time>2019-08-15T07:25:25Z</time>
      </trkpt>
      <trkpt lat="41.5923990" lon="-5.1177420">
        <ele>709.9</ele>
        <time>2019-08-15T07:25:26Z</time>
      </trkpt>
      <trkpt lat="41.5924470" lon="-5.1177630">
        <ele>709.8</ele>
        <time>2019-08-15T07:25:27Z</time>
      </trkpt>
      <trkpt lat="41.5924950" lon="-5.1177840">
        <ele>709.7</ele>
        <time>2019-08-15T07:25:28Z</time>
      </trkpt>
      <trkpt lat="41.5925440" lon="-5.1178070">
        <ele>709.7</ele>
        <time>2019-08-15T07:25:29Z</time>
      </trkpt>
      <trkpt lat="41.5925900" lon="-5.1178290">
        <ele>709.7</ele>
        <time>2019-08-15T07:25:30Z</time>
      </trkpt>
      <trkpt lat="41.5926370" lon="-5.1178490">
        <ele>709.6</ele>
        <time>2019-08-15T07:25:31Z</time>
      </trkpt>
      <trkpt lat="41.5926820" lon="-5.1178700">
        <ele>709.5</ele>
        <time>2019-08-15T07:25:32Z</time>
      </trkpt>
      <trkpt lat="41.5927260" lon="-5.1178890">
        <ele>709.4</ele>
        <time>2019-08-15T07:25:33Z</time>
      </trkpt>
      <trkpt lat="41.5927700" lon="-5.1179090">
        <ele>709.3</ele>
        <time>2019-08-15T07:25:34Z</time>
      </trkpt>
      <trkpt lat="41.5928140" lon="-5.1179280">
        <ele>709.2</ele>
        <time>2019-08-15T07:25:35Z</time>
      </trkpt>
      <trkpt lat="41.5928580" lon="-5.1179470">
        <ele>709.1</ele>
        <time>2019-08-15T07:25:36Z</time>
      </trkpt>
      <trkpt lat="41.5929020" lon="-5.1179670">
        <ele>709.0</ele>
        <time>2019-08-15T07:25:37Z</time>
      </trkpt>
      <trkpt lat="41.5929470" lon="-5.1179900">
        <ele>708.8</ele>
        <time>2019-08-15T07:25:38Z</time>
      </trkpt>
      <trkpt lat="41.5929920" lon="-5.1180130">
        <ele>708.7</ele>
        <time>2019-08-15T07:25:39Z</time>
      </trkpt>
      <trkpt lat="41.5930380" lon="-5.1180350">
        <ele>708.5</ele>
        <time>2019-08-15T07:25:40Z</time>
      </trkpt>
      <trkpt lat="41.5930820" lon="-5.1180550">
        <ele>708.3</ele>
        <time>2019-08-15T07:25:41Z</time>
      </trkpt>
      <trkpt lat="41.5931270" lon="-5.1180740">
        <ele>708.2</ele>
        <time>2019-08-15T07:25:42Z</time>
      </trkpt>
      <trkpt lat="41.5931730" lon="-5.1180950">
        <ele>708.1</ele>
        <time>2019-08-15T07:25:43Z</time>
      </trkpt>
      <trkpt lat="41.5932200" lon="-5.1181190">
        <ele>708.0</ele>
        <time>2019-08-15T07:25:44Z</time>
      </trkpt>
      <trkpt lat="41.5932670" lon="-5.1181400">
        <ele>707.9</ele>
        <time>2019-08-15T07:25:45Z</time>
      </trkpt>
      <trkpt lat="41.5933130" lon="-5.1181640">
        <ele>707.8</ele>
        <time>2019-08-15T07:25:46Z</time>
      </trkpt>
      <trkpt lat="41.5933590" lon="-5.1181850">
        <ele>707.8</ele>
        <time>2019-08-15T07:25:47Z</time>
      </trkpt>
      <trkpt lat="41.5934040" lon="-5.1182060">
        <ele>707.7</ele>
        <time>2019-08-15T07:25:48Z</time>
      </trkpt>
      <trkpt lat="41.5934480" lon="-5.1182280">
        <ele>707.6</ele>
        <time>2019-08-15T07:25:49Z</time>
      </trkpt>
      <trkpt lat="41.5934930" lon="-5.1182530">
        <ele>707.6</ele>
        <time>2019-08-15T07:25:50Z</time>
      </trkpt>
      <trkpt lat="41.5935400" lon="-5.1182750">
        <ele>707.5</ele>
        <time>2019-08-15T07:25:51Z</time>
      </trkpt>
      <trkpt lat="41.5935860" lon="-5.1182970">
        <ele>707.4</ele>
        <time>2019-08-15T07:25:52Z</time>
      </trkpt>
      <trkpt lat="41.5936320" lon="-5.1183200">
        <ele>707.4</ele>
        <time>2019-08-15T07:25:53Z</time>
      </trkpt>
      <trkpt lat="41.5936790" lon="-5.1183440">
        <ele>707.3</ele>
        <time>2019-08-15T07:25:54Z</time>
      </trkpt>
      <trkpt lat="41.5937270" lon="-5.1183660">
        <ele>707.3</ele>
        <time>2019-08-15T07:25:55Z</time>
      </trkpt>
      <trkpt lat="41.5937740" lon="-5.1183860">
        <ele>707.2</ele>
        <time>2019-08-15T07:25:56Z</time>
      </trkpt>
      <trkpt lat="41.5938220" lon="-5.1184070">
        <ele>707.2</ele>
        <time>2019-08-15T07:25:57Z</time>
      </trkpt>
      <trkpt lat="41.5938690" lon="-5.1184300">
        <ele>707.2</ele>
        <time>2019-08-15T07:25:58Z</time>
      </trkpt>
      <trkpt lat="41.5939160" lon="-5.1184560">
        <ele>707.2</ele>
        <time>2019-08-15T07:25:59Z</time>
      </trkpt>
      <trkpt lat="41.5939620" lon="-5.1184800">
        <ele>707.2</ele>
        <time>2019-08-15T07:26:00Z</time>
      </trkpt>
      <trkpt lat="41.5940100" lon="-5.1185030">
        <ele>707.2</ele>
        <time>2019-08-15T07:26:01Z</time>
      </trkpt>
      <trkpt lat="41.5940570" lon="-5.1185240">
        <ele>707.3</ele>
        <time>2019-08-15T07:26:02Z</time>
      </trkpt>
      <trkpt lat="41.5941040" lon="-5.1185440">
        <ele>707.3</ele>
        <time>2019-08-15T07:26:03Z</time>
      </trkpt>
      <trkpt lat="41.5941510" lon="-5.1185660">
        <ele>707.3</ele>
        <time>2019-08-15T07:26:04Z</time>
      </trkpt>
      <trkpt lat="41.5941990" lon="-5.1185850">
        <ele>707.4</ele>
        <time>2019-08-15T07:26:05Z</time>
      </trkpt>
      <trkpt lat="41.5942470" lon="-5.1186050">
        <ele>707.4</ele>
        <time>2019-08-15T07:26:06Z</time>
      </trkpt>
      <trkpt lat="41.5942950" lon="-5.1186260">
        <ele>707.5</ele>
        <time>2019-08-15T07:26:07Z</time>
      </trkpt>
      <trkpt lat="41.5943420" lon="-5.1186470">
        <ele>707.5</ele>
        <time>2019-08-15T07:26:08Z</time>
      </trkpt>
      <trkpt lat="41.5943900" lon="-5.1186690">
        <ele>707.6</ele>
        <time>2019-08-15T07:26:09Z</time>
      </trkpt>
      <trkpt lat="41.5944370" lon="-5.1186890">
        <ele>707.6</ele>
        <time>2019-08-15T07:26:10Z</time>
      </trkpt>
      <trkpt lat="41.5944830" lon="-5.1187080">
        <ele>707.7</ele>
        <time>2019-08-15T07:26:11Z</time>
      </trkpt>
      <trkpt lat="41.5945260" lon="-5.1187290">
        <ele>707.7</ele>
        <time>2019-08-15T07:26:12Z</time>
      </trkpt>
      <trkpt lat="41.5945700" lon="-5.1187490">
        <ele>707.7</ele>
        <time>2019-08-15T07:26:13Z</time>
      </trkpt>
      <trkpt lat="41.5946150" lon="-5.1187680">
        <ele>707.7</ele>
        <time>2019-08-15T07:26:14Z</time>
      </trkpt>
      <trkpt lat="41.5946610" lon="-5.1187870">
        <ele>707.8</ele>
        <time>2019-08-15T07:26:15Z</time>
      </trkpt>
      <trkpt lat="41.5947050" lon="-5.1188050">
        <ele>707.8</ele>
        <time>2019-08-15T07:26:16Z</time>
      </trkpt>
      <trkpt lat="41.5947480" lon="-5.1188200">
        <ele>707.8</ele>
        <time>2019-08-15T07:26:17Z</time>
      </trkpt>
      <trkpt lat="41.5947900" lon="-5.1188350">
        <ele>707.8</ele>
        <time>2019-08-15T07:26:18Z</time>
      </trkpt>
      <trkpt lat="41.5948300" lon="-5.1188500">
        <ele>707.8</ele>
        <time>2019-08-15T07:26:19Z</time>
      </trkpt>
      <trkpt lat="41.5948680" lon="-5.1188630">
        <ele>707.8</ele>
        <time>2019-08-15T07:26:20Z</time>
      </trkpt>
      <trkpt lat="41.5949050" lon="-5.1188770">
        <ele>707.9</ele>
        <time>2019-08-15T07:26:21Z</time>
      </trkpt>
      <trkpt lat="41.5949460" lon="-5.1188880">
        <ele>707.9</ele>
        <time>2019-08-15T07:26:22Z</time>
      </trkpt>
      <trkpt lat="41.5949890" lon="-5.1189010">
        <ele>707.9</ele>
        <time>2019-08-15T07:26:23Z</time>
      </trkpt>
      <trkpt lat="41.5950310" lon="-5.1189180">
        <ele>707.9</ele>
        <time>2019-08-15T07:26:24Z</time>
      </trkpt>
      <trkpt lat="41.5950730" lon="-5.1189380">
        <ele>707.9</ele>
        <time>2019-08-15T07:26:25Z</time>
      </trkpt>
      <trkpt lat="41.5951150" lon="-5.1189600">
        <ele>707.9</ele>
        <time>2019-08-15T07:26:26Z</time>
      </trkpt>
      <trkpt lat="41.5951550" lon="-5.1189840">
        <ele>707.9</ele>
        <time>2019-08-15T07:26:27Z</time>
      </trkpt>
      <trkpt lat="41.5951940" lon="-5.1190060">
        <ele>708.0</ele>
        <time>2019-08-15T07:26:28Z</time>
      </trkpt>
      <trkpt lat="41.5952350" lon="-5.1190280">
        <ele>708.0</ele>
        <time>2019-08-15T07:26:29Z</time>
      </trkpt>
      <trkpt lat="41.5952760" lon="-5.1190490">
        <ele>708.0</ele>
        <time>2019-08-15T07:26:30Z</time>
      </trkpt>
      <trkpt lat="41.5953180" lon="-5.1190720">
        <ele>708.0</ele>
        <time>2019-08-15T07:26:31Z</time>
      </trkpt>
      <trkpt lat="41.5953610" lon="-5.1190930">
        <ele>708.1</ele>
        <time>2019-08-15T07:26:32Z</time>
      </trkpt>
      <trkpt lat="41.5954040" lon="-5.1191140">
        <ele>708.1</ele>
        <time>2019-08-15T07:26:33Z</time>
      </trkpt>
      <trkpt lat="41.5954460" lon="-5.1191370">
        <ele>708.2</ele>
        <time>2019-08-15T07:26:34Z</time>
      </trkpt>
      <trkpt lat="41.5954890" lon="-5.1191580">
        <ele>708.2</ele>
        <time>2019-08-15T07:26:35Z</time>
      </trkpt>
      <trkpt lat="41.5955330" lon="-5.1191820">
        <ele>708.3</ele>
        <time>2019-08-15T07:26:36Z</time>
      </trkpt>
      <trkpt lat="41.5955760" lon="-5.1192090">
        <ele>708.4</ele>
        <time>2019-08-15T07:26:37Z</time>
      </trkpt>
      <trkpt lat="41.5956200" lon="-5.1192350">
        <ele>708.5</ele>
        <time>2019-08-15T07:26:38Z</time>
      </trkpt>
      <trkpt lat="41.5956640" lon="-5.1192610">
        <ele>708.7</ele>
        <time>2019-08-15T07:26:39Z</time>
      </trkpt>
      <trkpt lat="41.5957080" lon="-5.1192870">
        <ele>708.8</ele>
        <time>2019-08-15T07:26:40Z</time>
      </trkpt>
      <trkpt lat="41.5957520" lon="-5.1193150">
        <ele>708.9</ele>
        <time>2019-08-15T07:26:41Z</time>
      </trkpt>
      <trkpt lat="41.5957950" lon="-5.1193440">
        <ele>709.0</ele>
        <time>2019-08-15T07:26:42Z</time>
      </trkpt>
      <trkpt lat="41.5958380" lon="-5.1193760">
        <ele>709.2</ele>
        <time>2019-08-15T07:26:43Z</time>
      </trkpt>
      <trkpt lat="41.5958800" lon="-5.1194080">
        <ele>709.4</ele>
        <time>2019-08-15T07:26:44Z</time>
      </trkpt>
      <trkpt lat="41.5959210" lon="-5.1194420">
        <ele>709.5</ele>
        <time>2019-08-15T07:26:45Z</time>
      </trkpt>
      <trkpt lat="41.5959630" lon="-5.1194760">
        <ele>709.7</ele>
        <time>2019-08-15T07:26:46Z</time>
      </trkpt>
      <trkpt lat="41.5960040" lon="-5.1195110">
        <ele>709.9</ele>
        <time>2019-08-15T07:26:47Z</time>
      </trkpt>
      <trkpt lat="41.5960460" lon="-5.1195460">
        <ele>710.0</ele>
        <time>2019-08-15T07:26:48Z</time>
      </trkpt>
      <trkpt lat="41.5960890" lon="-5.1195830">
        <ele>710.3</ele>
        <time>2019-08-15T07:26:49Z</time>
      </trkpt>
      <trkpt lat="41.5961310" lon="-5.1196240">
        <ele>710.5</ele>
        <time>2019-08-15T07:26:50Z</time>
      </trkpt>
      <trkpt lat="41.5961720" lon="-5.1196630">
        <ele>710.7</ele>
        <time>2019-08-15T07:26:51Z</time>
      </trkpt>
      <trkpt lat="41.5962120" lon="-5.1197030">
        <ele>710.9</ele>
        <time>2019-08-15T07:26:52Z</time>
      </trkpt>
      <trkpt lat="41.5962530" lon="-5.1197430">
        <ele>711.1</ele>
        <time>2019-08-15T07:26:53Z</time>
      </trkpt>
      <trkpt lat="41.5962940" lon="-5.1197830">
        <ele>711.3</ele>
        <time>2019-08-15T07:26:54Z</time>
      </trkpt>
      <trkpt lat="41.5963350" lon="-5.1198220">
        <ele>711.5</ele>
        <time>2019-08-15T07:26:55Z</time>
      </trkpt>
      <trkpt lat="41.5963740" lon="-5.1198620">
        <ele>711.7</ele>
        <time>2019-08-15T07:26:56Z</time>
      </trkpt>
      <trkpt lat="41.5964100" lon="-5.1199020">
        <ele>711.9</ele>
        <time>2019-08-15T07:26:57Z</time>
      </trkpt>
      <trkpt lat="41.5964470" lon="-5.1199430">
        <ele>712.0</ele>
        <time>2019-08-15T07:26:58Z</time>
      </trkpt>
      <trkpt lat="41.5964830" lon="-5.1199860">
        <ele>712.2</ele>
        <time>2019-08-15T07:26:59Z</time>
      </trkpt>
      <trkpt lat="41.5965200" lon="-5.1200310">
        <ele>712.4</ele>
        <time>2019-08-15T07:27:00Z</time>
      </trkpt>
      <trkpt lat="41.5965560" lon="-5.1200750">
        <ele>712.6</ele>
        <time>2019-08-15T07:27:01Z</time>
      </trkpt>
      <trkpt lat="41.5965920" lon="-5.1201200">
        <ele>712.7</ele>
        <time>2019-08-15T07:27:02Z</time>
      </trkpt>
      <trkpt lat="41.5966260" lon="-5.1201660">
        <ele>712.7</ele>
        <time>2019-08-15T07:27:03Z</time>
      </trkpt>
      <trkpt lat="41.5966600" lon="-5.1202140">
        <ele>712.8</ele>
        <time>2019-08-15T07:27:04Z</time>
      </trkpt>
      <trkpt lat="41.5966930" lon="-5.1202600">
        <ele>712.8</ele>
        <time>2019-08-15T07:27:05Z</time>
      </trkpt>
      <trkpt lat="41.5967260" lon="-5.1203080">
        <ele>712.8</ele>
        <time>2019-08-15T07:27:06Z</time>
      </trkpt>
      <trkpt lat="41.5967580" lon="-5.1203560">
        <ele>712.9</ele>
        <time>2019-08-15T07:27:07Z</time>
      </trkpt>
      <trkpt lat="41.5967900" lon="-5.1204040">
        <ele>712.9</ele>
        <time>2019-08-15T07:27:08Z</time>
      </trkpt>
      <trkpt lat="41.5968220" lon="-5.1204530">
        <ele>712.9</ele>
        <time>2019-08-15T07:27:09Z</time>
      </trkpt>
      <trkpt lat="41.5968540" lon="-5.1205020">
        <ele>712.9</ele>
        <time>2019-08-15T07:27:10Z</time>
      </trkpt>
      <trkpt lat="41.5968830" lon="-5.1205530">
        <ele>712.9</ele>
        <time>2019-08-15T07:27:11Z</time>
      </trkpt>
      <trkpt lat="41.5969130" lon="-5.1206060">
        <ele>712.9</ele>
        <time>2019-08-15T07:27:12Z</time>
      </trkpt>
      <trkpt lat="41.5969430" lon="-5.1206600">
        <ele>712.8</ele>
        <time>2019-08-15T07:27:13Z</time>
      </trkpt>
      <trkpt lat="41.5969730" lon="-5.1207120">
        <ele>712.8</ele>
        <time>2019-08-15T07:27:14Z</time>
      </trkpt>
      <trkpt lat="41.5970020" lon="-5.1207650">
        <ele>712.8</ele>
        <time>2019-08-15T07:27:15Z</time>
      </trkpt>
      <trkpt lat="41.5970300" lon="-5.1208190">
        <ele>712.8</ele>
        <time>2019-08-15T07:27:16Z</time>
      </trkpt>
      <trkpt lat="41.5970590" lon="-5.1208740">
        <ele>712.7</ele>
        <time>2019-08-15T07:27:17Z</time>
      </trkpt>
      <trkpt lat="41.5970870" lon="-5.1209310">
        <ele>712.7</ele>
        <time>2019-08-15T07:27:18Z</time>
      </trkpt>
      <trkpt lat="41.5971140" lon="-5.1209870">
        <ele>712.7</ele>
        <time>2019-08-15T07:27:19Z</time>
      </trkpt>
      <trkpt lat="41.5971410" lon="-5.1210420">
        <ele>712.7</ele>
        <time>2019-08-15T07:27:20Z</time>
      </trkpt>
      <trkpt lat="41.5971700" lon="-5.1210980">
        <ele>712.7</ele>
        <time>2019-08-15T07:27:21Z</time>
      </trkpt>
      <trkpt lat="41.5971970" lon="-5.1211550">
        <ele>712.7</ele>
        <time>2019-08-15T07:27:22Z</time>
      </trkpt>
      <trkpt lat="41.5972250" lon="-5.1212120">
        <ele>712.6</ele>
        <time>2019-08-15T07:27:23Z</time>
      </trkpt>
      <trkpt lat="41.5972530" lon="-5.1212680">
        <ele>712.6</ele>
        <time>2019-08-15T07:27:24Z</time>
      </trkpt>
      <trkpt lat="41.5972810" lon="-5.1213250">
        <ele>712.6</ele>
        <time>2019-08-15T07:27:25Z</time>
      </trkpt>
      <trkpt lat="41.5973100" lon="-5.1213840">
        <ele>712.6</ele>
        <time>2019-08-15T07:27:26Z</time>
      </trkpt>
      <trkpt lat="41.5973380" lon="-5.1214390">
        <ele>712.6</ele>
        <time>2019-08-15T07:27:27Z</time>
      </trkpt>
      <trkpt lat="41.5973660" lon="-5.1214940">
        <ele>712.6</ele>
        <time>2019-08-15T07:27:28Z</time>
      </trkpt>
      <trkpt lat="41.5973950" lon="-5.1215500">
        <ele>712.6</ele>
        <time>2019-08-15T07:27:29Z</time>
      </trkpt>
      <trkpt lat="41.5974240" lon="-5.1216040">
        <ele>712.7</ele>
        <time>2019-08-15T07:27:30Z</time>
      </trkpt>
      <trkpt lat="41.5974510" lon="-5.1216610">
        <ele>712.7</ele>
        <time>2019-08-15T07:27:31Z</time>
      </trkpt>
      <trkpt lat="41.5974780" lon="-5.1217170">
        <ele>712.7</ele>
        <time>2019-08-15T07:27:32Z</time>
      </trkpt>
      <trkpt lat="41.5975050" lon="-5.1217740">
        <ele>712.7</ele>
        <time>2019-08-15T07:27:33Z</time>
      </trkpt>
      <trkpt lat="41.5975300" lon="-5.1218320">
        <ele>712.8</ele>
        <time>2019-08-15T07:27:34Z</time>
      </trkpt>
      <trkpt lat="41.5975560" lon="-5.1218910">
        <ele>712.8</ele>
        <time>2019-08-15T07:27:35Z</time>
      </trkpt>
      <trkpt lat="41.5975820" lon="-5.1219450">
        <ele>712.9</ele>
        <time>2019-08-15T07:27:36Z</time>
      </trkpt>
      <trkpt lat="41.5976080" lon="-5.1220020">
        <ele>712.9</ele>
        <time>2019-08-15T07:27:37Z</time>
      </trkpt>
      <trkpt lat="41.5976340" lon="-5.1220560">
        <ele>713.0</ele>
        <time>2019-08-15T07:27:38Z</time>
      </trkpt>
      <trkpt lat="41.5976610" lon="-5.1221110">
        <ele>713.1</ele>
        <time>2019-08-15T07:27:39Z</time>
      </trkpt>
      <trkpt lat="41.5976870" lon="-5.1221650">
        <ele>713.1</ele>
        <time>2019-08-15T07:27:40Z</time>
      </trkpt>
      <trkpt lat="41.5977140" lon="-5.1222190">
        <ele>713.2</ele>
        <time>2019-08-15T07:27:41Z</time>
      </trkpt>
      <trkpt lat="41.5977430" lon="-5.1222720">
        <ele>713.3</ele>
        <time>2019-08-15T07:27:42Z</time>
      </trkpt>
      <trkpt lat="41.5977700" lon="-5.1223250">
        <ele>713.4</ele>
        <time>2019-08-15T07:27:43Z</time>
      </trkpt>
      <trkpt lat="41.5977960" lon="-5.1223770">
        <ele>713.5</ele>
        <time>2019-08-15T07:27:44Z</time>
      </trkpt>
      <trkpt lat="41.5978200" lon="-5.1224310">
        <ele>713.6</ele>
        <time>2019-08-15T07:27:45Z</time>
      </trkpt>
      <trkpt lat="41.5978450" lon="-5.1224830">
        <ele>713.7</ele>
        <time>2019-08-15T07:27:46Z</time>
      </trkpt>
      <trkpt lat="41.5978700" lon="-5.1225350">
        <ele>713.8</ele>
        <time>2019-08-15T07:27:47Z</time>
      </trkpt>
      <trkpt lat="41.5978960" lon="-5.1225890">
        <ele>713.9</ele>
        <time>2019-08-15T07:27:48Z</time>
      </trkpt>
      <trkpt lat="41.5979220" lon="-5.1226430">
        <ele>713.9</ele>
        <time>2019-08-15T07:27:49Z</time>
      </trkpt>
      <trkpt lat="41.5979470" lon="-5.1226960">
        <ele>713.9</ele>
        <time>2019-08-15T07:27:50Z</time>
      </trkpt>
      <trkpt lat="41.5979720" lon="-5.1227480">
        <ele>714.0</ele>
        <time>2019-08-15T07:27:51Z</time>
      </trkpt>
      <trkpt lat="41.5979960" lon="-5.1227980">
        <ele>714.1</ele>
        <time>2019-08-15T07:27:52Z</time>
      </trkpt>
      <trkpt lat="41.5980210" lon="-5.1228440">
        <ele>714.2</ele>
        <time>2019-08-15T07:27:53Z</time>
      </trkpt>
      <trkpt lat="41.5980460" lon="-5.1228860">
        <ele>714.2</ele>
        <time>2019-08-15T07:27:54Z</time>
      </trkpt>
      <trkpt lat="41.5980770" lon="-5.1229190">
        <ele>714.3</ele>
        <time>2019-08-15T07:27:55Z</time>
      </trkpt>
      <trkpt lat="41.5981140" lon="-5.1229420">
        <ele>714.3</ele>
        <time>2019-08-15T07:27:56Z</time>
      </trkpt>
      <trkpt lat="41.5981500" lon="-5.1229640">
        <ele>714.4</ele>
        <time>2019-08-15T07:27:57Z</time>
      </trkpt>
      <trkpt lat="41.5981830" lon="-5.1229930">
        <ele>714.4</ele>
        <time>2019-08-15T07:27:58Z</time>
      </trkpt>
      <trkpt lat="41.5982140" lon="-5.1230280">
        <ele>714.5</ele>
        <time>2019-08-15T07:27:59Z</time>
      </trkpt>
      <trkpt lat="41.5982430" lon="-5.1230680">
        <ele>714.5</ele>
        <time>2019-08-15T07:28:00Z</time>
      </trkpt>
      <trkpt lat="41.5982710" lon="-5.1231100">
        <ele>714.6</ele>
        <time>2019-08-15T07:28:01Z</time>
      </trkpt>
      <trkpt lat="41.5982980" lon="-5.1231560">
        <ele>714.6</ele>
        <time>2019-08-15T07:28:02Z</time>
      </trkpt>
      <trkpt lat="41.5983250" lon="-5.1232010">
        <ele>714.6</ele>
        <time>2019-08-15T07:28:03Z</time>
      </trkpt>
      <trkpt lat="41.5983510" lon="-5.1232510">
        <ele>714.6</ele>
        <time>2019-08-15T07:28:04Z</time>
      </trkpt>
      <trkpt lat="41.5983780" lon="-5.1233000">
        <ele>714.7</ele>
        <time>2019-08-15T07:28:05Z</time>
      </trkpt>
      <trkpt lat="41.5984050" lon="-5.1233500">
        <ele>714.7</ele>
        <time>2019-08-15T07:28:06Z</time>
      </trkpt>
      <trkpt lat="41.5984310" lon="-5.1234010">
        <ele>714.7</ele>
        <time>2019-08-15T07:28:07Z</time>
      </trkpt>
      <trkpt lat="41.5984570" lon="-5.1234500">
        <ele>714.7</ele>
        <time>2019-08-15T07:28:08Z</time>
      </trkpt>
      <trkpt lat="41.5984830" lon="-5.1234990">
        <ele>714.7</ele>
        <time>2019-08-15T07:28:09Z</time>
      </trkpt>
      <trkpt lat="41.5985090" lon="-5.1235470">
        <ele>714.7</ele>
        <time>2019-08-15T07:28:10Z</time>
      </trkpt>
      <trkpt lat="41.5985370" lon="-5.1235960">
        <ele>714.7</ele>
        <time>2019-08-15T07:28:11Z</time>
      </trkpt>
      <trkpt lat="41.5985650" lon="-5.1236440">
        <ele>714.6</ele>
        <time>2019-08-15T07:28:12Z</time>
      </trkpt>
      <trkpt lat="41.5985940" lon="-5.1236910">
        <ele>714.6</ele>
        <time>2019-08-15T07:28:13Z</time>
      </trkpt>
      <trkpt lat="41.5986230" lon="-5.1237390">
        <ele>714.6</ele>
        <time>2019-08-15T07:28:14Z</time>
      </trkpt>
      <trkpt lat="41.5986520" lon="-5.1237910">
        <ele>714.6</ele>
        <time>2019-08-15T07:28:15Z</time>
      </trkpt>
      <trkpt lat="41.5986810" lon="-5.1238410">
        <ele>714.6</ele>
        <time>2019-08-15T07:28:16Z</time>
      </trkpt>
      <trkpt lat="41.5987100" lon="-5.1238910">
        <ele>714.5</ele>
        <time>2019-08-15T07:28:17Z</time>
      </trkpt>
      <trkpt lat="41.5987400" lon="-5.1239420">
        <ele>714.5</ele>
        <time>2019-08-15T07:28:18Z</time>
      </trkpt>
      <trkpt lat="41.5987670" lon="-5.1239940">
        <ele>714.5</ele>
        <time>2019-08-15T07:28:19Z</time>
      </trkpt>
      <trkpt lat="41.5987940" lon="-5.1240460">
        <ele>714.6</ele>
        <time>2019-08-15T07:28:20Z</time>
      </trkpt>
      <trkpt lat="41.5988210" lon="-5.1240970">
        <ele>714.7</ele>
        <time>2019-08-15T07:28:21Z</time>
      </trkpt>
      <trkpt lat="41.5988490" lon="-5.1241470">
        <ele>714.7</ele>
        <time>2019-08-15T07:28:22Z</time>
      </trkpt>
      <trkpt lat="41.5988790" lon="-5.1241960">
        <ele>714.8</ele>
        <time>2019-08-15T07:28:23Z</time>
      </trkpt>
      <trkpt lat="41.5989100" lon="-5.1242450">
        <ele>714.9</ele>
        <time>2019-08-15T07:28:24Z</time>
      </trkpt>
      <trkpt lat="41.5989410" lon="-5.1242920">
        <ele>715.0</ele>
        <time>2019-08-15T07:28:25Z</time>
      </trkpt>
      <trkpt lat="41.5989730" lon="-5.1243390">
        <ele>715.1</ele>
        <time>2019-08-15T07:28:26Z</time>
      </trkpt>
      <trkpt lat="41.5990050" lon="-5.1243850">
        <ele>715.3</ele>
        <time>2019-08-15T07:28:27Z</time>
      </trkpt>
      <trkpt lat="41.5990380" lon="-5.1244300">
        <ele>715.4</ele>
        <time>2019-08-15T07:28:28Z</time>
      </trkpt>
      <trkpt lat="41.5990700" lon="-5.1244720">
        <ele>715.6</ele>
        <time>2019-08-15T07:28:29Z</time>
      </trkpt>
      <trkpt lat="41.5991020" lon="-5.1245140">
        <ele>715.8</ele>
        <time>2019-08-15T07:28:30Z</time>
      </trkpt>
      <trkpt lat="41.5991300" lon="-5.1245610">
        <ele>715.9</ele>
        <time>2019-08-15T07:28:31Z</time>
      </trkpt>
      <trkpt lat="41.5991600" lon="-5.1246050">
        <ele>716.1</ele>
        <time>2019-08-15T07:28:32Z</time>
      </trkpt>
      <trkpt lat="41.5991900" lon="-5.1246500">
        <ele>716.3</ele>
        <time>2019-08-15T07:28:33Z</time>
      </trkpt>
      <trkpt lat="41.5992180" lon="-5.1246980">
        <ele>716.4</ele>
        <time>2019-08-15T07:28:34Z</time>
      </trkpt>
      <trkpt lat="41.5992470" lon="-5.1247440">
        <ele>716.5</ele>
        <time>2019-08-15T07:28:35Z</time>
      </trkpt>
      <trkpt lat="41.5992760" lon="-5.1247920">
        <ele>716.6</ele>
        <time>2019-08-15T07:28:36Z</time>
      </trkpt>
      <trkpt lat="41.5993040" lon="-5.1248390">
        <ele>716.7</ele>
        <time>2019-08-15T07:28:37Z</time>
      </trkpt>
      <trkpt lat="41.5993320" lon="-5.1248850">
        <ele>716.7</ele>
        <time>2019-08-15T07:28:38Z</time>
      </trkpt>
      <trkpt lat="41.5993590" lon="-5.1249320">
        <ele>716.8</ele>
        <time>2019-08-15T07:28:39Z</time>
      </trkpt>
      <trkpt lat="41.5993870" lon="-5.1249780">
        <ele>716.8</ele>
        <time>2019-08-15T07:28:40Z</time>
      </trkpt>
      <trkpt lat="41.5994120" lon="-5.1250240">
        <ele>716.8</ele>
        <time>2019-08-15T07:28:41Z</time>
      </trkpt>
      <trkpt lat="41.5994370" lon="-5.1250700">
        <ele>716.8</ele>
        <time>2019-08-15T07:28:42Z</time>
      </trkpt>
      <trkpt lat="41.5994620" lon="-5.1251190">
        <ele>716.8</ele>
        <time>2019-08-15T07:28:43Z</time>
      </trkpt>
      <trkpt lat="41.5994870" lon="-5.1251660">
        <ele>716.8</ele>
        <time>2019-08-15T07:28:44Z</time>
      </trkpt>
      <trkpt lat="41.5995110" lon="-5.1252140">
        <ele>716.8</ele>
        <time>2019-08-15T07:28:45Z</time>
      </trkpt>
      <trkpt lat="41.5995350" lon="-5.1252630">
        <ele>716.8</ele>
        <time>2019-08-15T07:28:46Z</time>
      </trkpt>
      <trkpt lat="41.5995590" lon="-5.1253120">
        <ele>716.8</ele>
        <time>2019-08-15T07:28:47Z</time>
      </trkpt>
      <trkpt lat="41.5995850" lon="-5.1253610">
        <ele>716.8</ele>
        <time>2019-08-15T07:28:48Z</time>
      </trkpt>
      <trkpt lat="41.5996110" lon="-5.1254070">
        <ele>716.8</ele>
        <time>2019-08-15T07:28:49Z</time>
      </trkpt>
      <trkpt lat="41.5996370" lon="-5.1254540">
        <ele>716.8</ele>
        <time>2019-08-15T07:28:50Z</time>
      </trkpt>
      <trkpt lat="41.5996650" lon="-5.1255010">
        <ele>716.8</ele>
        <time>2019-08-15T07:28:51Z</time>
      </trkpt>
      <trkpt lat="41.5996910" lon="-5.1255460">
        <ele>716.9</ele>
        <time>2019-08-15T07:28:52Z</time>
      </trkpt>
      <trkpt lat="41.5997180" lon="-5.1255930">
        <ele>716.9</ele>
        <time>2019-08-15T07:28:53Z</time>
      </trkpt>
      <trkpt lat="41.5997430" lon="-5.1256400">
        <ele>716.9</ele>
        <time>2019-08-15T07:28:54Z</time>
      </trkpt>
      <trkpt lat="41.5997700" lon="-5.1256880">
        <ele>716.9</ele>
        <time>2019-08-15T07:28:55Z</time>
      </trkpt>
      <trkpt lat="41.5997960" lon="-5.1257370">
        <ele>717.0</ele>
        <time>2019-08-15T07:28:56Z</time>
      </trkpt>
      <trkpt lat="41.5998220" lon="-5.1257870">
        <ele>717.0</ele>
        <time>2019-08-15T07:28:57Z</time>
      </trkpt>
      <trkpt lat="41.5998500" lon="-5.1258390">
        <ele>717.0</ele>
        <time>2019-08-15T07:28:58Z</time>
      </trkpt>
      <trkpt lat="41.5998780" lon="-5.1258910">
        <ele>717.0</ele>
        <time>2019-08-15T07:28:59Z</time>
      </trkpt>
      <trkpt lat="41.5999060" lon="-5.1259460">
        <ele>717.1</ele>
        <time>2019-08-15T07:29:00Z</time>
      </trkpt>
      <trkpt lat="41.5999330" lon="-5.1260000">
        <ele>717.1</ele>
        <time>2019-08-15T07:29:01Z</time>
      </trkpt>
      <trkpt lat="41.5999600" lon="-5.1260530">
        <ele>717.2</ele>
        <time>2019-08-15T07:29:02Z</time>
      </trkpt>
      <trkpt lat="41.5999870" lon="-5.1261060">
        <ele>717.2</ele>
        <time>2019-08-15T07:29:03Z</time>
      </trkpt>
      <trkpt lat="41.6000150" lon="-5.1261570">
        <ele>717.3</ele>
        <time>2019-08-15T07:29:04Z</time>
      </trkpt>
      <trkpt lat="41.6000430" lon="-5.1262080">
        <ele>717.3</ele>
        <time>2019-08-15T07:29:05Z</time>
      </trkpt>
      <trkpt lat="41.6000690" lon="-5.1262630">
        <ele>717.3</ele>
        <time>2019-08-15T07:29:06Z</time>
      </trkpt>
      <trkpt lat="41.6000940" lon="-5.1263170">
        <ele>717.4</ele>
        <time>2019-08-15T07:29:07Z</time>
      </trkpt>
      <trkpt lat="41.6001170" lon="-5.1263710">
        <ele>717.4</ele>
        <time>2019-08-15T07:29:08Z</time>
      </trkpt>
      <trkpt lat="41.6001410" lon="-5.1264290">
        <ele>717.4</ele>
        <time>2019-08-15T07:29:09Z</time>
      </trkpt>
      <trkpt lat="41.6001650" lon="-5.1264840">
        <ele>717.5</ele>
        <time>2019-08-15T07:29:10Z</time>
      </trkpt>
      <trkpt lat="41.6001890" lon="-5.1265390">
        <ele>717.5</ele>
        <time>2019-08-15T07:29:11Z</time>
      </trkpt>
      <trkpt lat="41.6002140" lon="-5.1265950">
        <ele>717.5</ele>
        <time>2019-08-15T07:29:12Z</time>
      </trkpt>
      <trkpt lat="41.6002390" lon="-5.1266510">
        <ele>717.6</ele>
        <time>2019-08-15T07:29:13Z</time>
      </trkpt>
      <trkpt lat="41.6002630" lon="-5.1267060">
        <ele>717.6</ele>
        <time>2019-08-15T07:29:14Z</time>
      </trkpt>
      <trkpt lat="41.6002900" lon="-5.1267610">
        <ele>717.7</ele>
        <time>2019-08-15T07:29:15Z</time>
      </trkpt>
      <trkpt lat="41.6003180" lon="-5.1268150">
        <ele>717.8</ele>
        <time>2019-08-15T07:29:16Z</time>
      </trkpt>
      <trkpt lat="41.6003460" lon="-5.1268700">
        <ele>717.8</ele>
        <time>2019-08-15T07:29:17Z</time>
      </trkpt>
      <trkpt lat="41.6003740" lon="-5.1269240">
        <ele>717.8</ele>
        <time>2019-08-15T07:29:18Z</time>
      </trkpt>
      <trkpt lat="41.6004040" lon="-5.1269760">
        <ele>717.9</ele>
        <time>2019-08-15T07:29:19Z</time>
      </trkpt>
      <trkpt lat="41.6004330" lon="-5.1270280">
        <ele>718.0</ele>
        <time>2019-08-15T07:29:20Z</time>
      </trkpt>
      <trkpt lat="41.6004630" lon="-5.1270770">
        <ele>718.0</ele>
        <time>2019-08-15T07:29:21Z</time>
      </trkpt>
      <trkpt lat="41.6004920" lon="-5.1271290">
        <ele>718.1</ele>
        <time>2019-08-15T07:29:22Z</time>
      </trkpt>
      <trkpt lat="41.6005190" lon="-5.1271810">
        <ele>718.2</ele>
        <time>2019-08-15T07:29:23Z</time>
      </trkpt>
      <trkpt lat="41.6005460" lon="-5.1272350">
        <ele>718.3</ele>
        <time>2019-08-15T07:29:24Z</time>
      </trkpt>
      <trkpt lat="41.6005720" lon="-5.1272910">
        <ele>718.4</ele>
        <time>2019-08-15T07:29:25Z</time>
      </trkpt>
      <trkpt lat="41.6005970" lon="-5.1273450">
        <ele>718.5</ele>
        <time>2019-08-15T07:29:26Z</time>
      </trkpt>
      <trkpt lat="41.6006210" lon="-5.1273990">
        <ele>718.7</ele>
        <time>2019-08-15T07:29:27Z</time>
      </trkpt>
      <trkpt lat="41.6006470" lon="-5.1274550">
        <ele>718.8</ele>
        <time>2019-08-15T07:29:28Z</time>
      </trkpt>
      <trkpt lat="41.6006730" lon="-5.1275100">
        <ele>718.9</ele>
        <time>2019-08-15T07:29:29Z</time>
      </trkpt>
      <trkpt lat="41.6006990" lon="-5.1275650">
        <ele>719.0</ele>
        <time>2019-08-15T07:29:30Z</time>
      </trkpt>
      <trkpt lat="41.6007240" lon="-5.1276180">
        <ele>719.2</ele>
        <time>2019-08-15T07:29:31Z</time>
      </trkpt>
      <trkpt lat="41.6007500" lon="-5.1276730">
        <ele>719.3</ele>
        <time>2019-08-15T07:29:32Z</time>
      </trkpt>
      <trkpt lat="41.6007770" lon="-5.1277290">
        <ele>719.4</ele>
        <time>2019-08-15T07:29:33Z</time>
      </trkpt>
      <trkpt lat="41.6008020" lon="-5.1277830">
        <ele>719.6</ele>
        <time>2019-08-15T07:29:34Z</time>
      </trkpt>
      <trkpt lat="41.6008290" lon="-5.1278380">
        <ele>719.7</ele>
        <time>2019-08-15T07:29:35Z</time>
      </trkpt>
      <trkpt lat="41.6008550" lon="-5.1278920">
        <ele>719.8</ele>
        <time>2019-08-15T07:29:36Z</time>
      </trkpt>
      <trkpt lat="41.6008800" lon="-5.1279460">
        <ele>719.9</ele>
        <time>2019-08-15T07:29:37Z</time>
      </trkpt>
      <trkpt lat="41.6009050" lon="-5.1279970">
        <ele>720.1</ele>
        <time>2019-08-15T07:29:38Z</time>
      </trkpt>
      <trkpt lat="41.6009320" lon="-5.1280490">
        <ele>720.2</ele>
        <time>2019-08-15T07:29:39Z</time>
      </trkpt>
      <trkpt lat="41.6009570" lon="-5.1281030">
        <ele>720.2</ele>
        <time>2019-08-15T07:29:40Z</time>
      </trkpt>
      <trkpt lat="41.6009830" lon="-5.1281570">
        <ele>720.4</ele>
        <time>2019-08-15T07:29:41Z</time>
      </trkpt>
      <trkpt lat="41.6010100" lon="-5.1282100">
        <ele>720.5</ele>
        <time>2019-08-15T07:29:42Z</time>
      </trkpt>
      <trkpt lat="41.6010370" lon="-5.1282630">
        <ele>720.6</ele>
        <time>2019-08-15T07:29:43Z</time>
      </trkpt>
      <trkpt lat="41.6010630" lon="-5.1283150">
        <ele>720.7</ele>
        <time>2019-08-15T07:29:44Z</time>
      </trkpt>
      <trkpt lat="41.6010900" lon="-5.1283670">
        <ele>720.8</ele>
        <time>2019-08-15T07:29:45Z</time>
      </trkpt>
      <trkpt lat="41.6011170" lon="-5.1284190">
        <ele>721.0</ele>
        <time>2019-08-15T07:29:46Z</time>
      </trkpt>
      <trkpt lat="41.6011440" lon="-5.1284720">
        <ele>721.1</ele>
        <time>2019-08-15T07:29:47Z</time>
      </trkpt>
      <trkpt lat="41.6011720" lon="-5.1285230">
        <ele>721.2</ele>
        <time>2019-08-15T07:29:48Z</time>
      </trkpt>
      <trkpt lat="41.6011990" lon="-5.1285730">
        <ele>721.3</ele>
        <time>2019-08-15T07:29:49Z</time>
      </trkpt>
      <trkpt lat="41.6012250" lon="-5.1286230">
        <ele>721.4</ele>
        <time>2019-08-15T07:29:50Z</time>
      </trkpt>
      <trkpt lat="41.6012500" lon="-5.1286730">
        <ele>721.4</ele>
        <time>2019-08-15T07:29:51Z</time>
      </trkpt>
      <trkpt lat="41.6012730" lon="-5.1287220">
        <ele>721.5</ele>
        <time>2019-08-15T07:29:52Z</time>
      </trkpt>
      <trkpt lat="41.6012960" lon="-5.1287700">
        <ele>721.6</ele>
        <time>2019-08-15T07:29:53Z</time>
      </trkpt>
      <trkpt lat="41.6013180" lon="-5.1288180">
        <ele>721.6</ele>
        <time>2019-08-15T07:29:54Z</time>
      </trkpt>
      <trkpt lat="41.6013400" lon="-5.1288640">
        <ele>721.7</ele>
        <time>2019-08-15T07:29:55Z</time>
      </trkpt>
      <trkpt lat="41.6013620" lon="-5.1289110">
        <ele>721.7</ele>
        <time>2019-08-15T07:29:56Z</time>
      </trkpt>
      <trkpt lat="41.6013850" lon="-5.1289570">
        <ele>721.8</ele>
        <time>2019-08-15T07:29:57Z</time>
      </trkpt>
      <trkpt lat="41.6014070" lon="-5.1290020">
        <ele>721.9</ele>
        <time>2019-08-15T07:29:58Z</time>
      </trkpt>
      <trkpt lat="41.6014290" lon="-5.1290460">
        <ele>721.9</ele>
        <time>2019-08-15T07:29:59Z</time>
      </trkpt>
      <trkpt lat="41.6014500" lon="-5.1290880">
        <ele>722.0</ele>
        <time>2019-08-15T07:30:00Z</time>
      </trkpt>
      <trkpt lat="41.6014700" lon="-5.1291320">
        <ele>722.1</ele>
        <time>2019-08-15T07:30:01Z</time>
      </trkpt>
      <trkpt lat="41.6014910" lon="-5.1291750">
        <ele>722.2</ele>
        <time>2019-08-15T07:30:02Z</time>
      </trkpt>
      <trkpt lat="41.6015120" lon="-5.1292150">
        <ele>722.3</ele>
        <time>2019-08-15T07:30:03Z</time>
      </trkpt>
      <trkpt lat="41.6015320" lon="-5.1292550">
        <ele>722.3</ele>
        <time>2019-08-15T07:30:04Z</time>
      </trkpt>
      <trkpt lat="41.6015530" lon="-5.1292950">
        <ele>722.4</ele>
        <time>2019-08-15T07:30:05Z</time>
      </trkpt>
      <trkpt lat="41.6015750" lon="-5.1293350">
        <ele>722.6</ele>
        <time>2019-08-15T07:30:06Z</time>
      </trkpt>
      <trkpt lat="41.6015950" lon="-5.1293760">
        <ele>722.7</ele>
        <time>2019-08-15T07:30:07Z</time>
      </trkpt>
      <trkpt lat="41.6016150" lon="-5.1294170">
        <ele>722.8</ele>
        <time>2019-08-15T07:30:08Z</time>
      </trkpt>
      <trkpt lat="41.6016350" lon="-5.1294560">
        <ele>722.9</ele>
        <time>2019-08-15T07:30:09Z</time>
      </trkpt>
      <trkpt lat="41.6016550" lon="-5.1294980">
        <ele>723.0</ele>
        <time>2019-08-15T07:30:10Z</time>
      </trkpt>
      <trkpt lat="41.6016750" lon="-5.1295410">
        <ele>723.2</ele>
        <time>2019-08-15T07:30:11Z</time>
      </trkpt>
      <trkpt lat="41.6016950" lon="-5.1295830">
        <ele>723.3</ele>
        <time>2019-08-15T07:30:12Z</time>
      </trkpt>
      <trkpt lat="41.6017160" lon="-5.1296250">
        <ele>723.4</ele>
        <time>2019-08-15T07:30:13Z</time>
      </trkpt>
      <trkpt lat="41.6017360" lon="-5.1296660">
        <ele>723.5</ele>
        <time>2019-08-15T07:30:14Z</time>
      </trkpt>
      <trkpt lat="41.6017570" lon="-5.1297070">
        <ele>723.7</ele>
        <time>2019-08-15T07:30:15Z</time>
      </trkpt>
      <trkpt lat="41.6017780" lon="-5.1297500">
        <ele>723.8</ele>
        <time>2019-08-15T07:30:16Z</time>
      </trkpt>
      <trkpt lat="41.6017970" lon="-5.1297940">
        <ele>723.9</ele>
        <time>2019-08-15T07:30:17Z</time>
      </trkpt>
      <trkpt lat="41.6018170" lon="-5.1298370">
        <ele>724.0</ele>
        <time>2019-08-15T07:30:18Z</time>
      </trkpt>
      <trkpt lat="41.6018380" lon="-5.1298800">
        <ele>724.1</ele>
        <time>2019-08-15T07:30:19Z</time>
      </trkpt>
      <trkpt lat="41.6018590" lon="-5.1299220">
        <ele>724.2</ele>
        <time>2019-08-15T07:30:20Z</time>
      </trkpt>
      <trkpt lat="41.6018790" lon="-5.1299660">
        <ele>724.4</ele>
        <time>2019-08-15T07:30:21Z</time>
      </trkpt>
      <trkpt lat="41.6019000" lon="-5.1300090">
        <ele>724.5</ele>
        <time>2019-08-15T07:30:22Z</time>
      </trkpt>
      <trkpt lat="41.6019210" lon="-5.1300490">
        <ele>724.6</ele>
        <time>2019-08-15T07:30:23Z</time>
      </trkpt>
      <trkpt lat="41.6019410" lon="-5.1300900">
        <ele>724.7</ele>
        <time>2019-08-15T07:30:24Z</time>
      </trkpt>
      <trkpt lat="41.6019610" lon="-5.1301290">
        <ele>724.8</ele>
        <time>2019-08-15T07:30:25Z</time>
      </trkpt>
      <trkpt lat="41.6019810" lon="-5.1301670">
        <ele>724.9</ele>
        <time>2019-08-15T07:30:26Z</time>
      </trkpt>
      <trkpt lat="41.6020010" lon="-5.1302070">
        <ele>725.0</ele>
        <time>2019-08-15T07:30:27Z</time>
      </trkpt>
      <trkpt lat="41.6020220" lon="-5.1302480">
        <ele>725.1</ele>
        <time>2019-08-15T07:30:28Z</time>
      </trkpt>
      <trkpt lat="41.6020420" lon="-5.1302900">
        <ele>725.3</ele>
        <time>2019-08-15T07:30:29Z</time>
      </trkpt>
      <trkpt lat="41.6020620" lon="-5.1303310">
        <ele>725.4</ele>
        <time>2019-08-15T07:30:30Z</time>
      </trkpt>
      <trkpt lat="41.6020810" lon="-5.1303750">
        <ele>725.5</ele>
        <time>2019-08-15T07:30:31Z</time>
      </trkpt>
      <trkpt lat="41.6021030" lon="-5.1304190">
        <ele>725.6</ele>
        <time>2019-08-15T07:30:32Z</time>
      </trkpt>
      <trkpt lat="41.6021230" lon="-5.1304620">
        <ele>725.7</ele>
        <time>2019-08-15T07:30:33Z</time>
      </trkpt>
      <trkpt lat="41.6021460" lon="-5.1305030">
        <ele>725.8</ele>
        <time>2019-08-15T07:30:34Z</time>
      </trkpt>
      <trkpt lat="41.6021680" lon="-5.1305440">
        <ele>725.9</ele>
        <time>2019-08-15T07:30:35Z</time>
      </trkpt>
      <trkpt lat="41.6021900" lon="-5.1305840">
        <ele>726.0</ele>
        <time>2019-08-15T07:30:36Z</time>
      </trkpt>
      <trkpt lat="41.6022110" lon="-5.1306240">
        <ele>726.1</ele>
        <time>2019-08-15T07:30:37Z</time>
      </trkpt>
      <trkpt lat="41.6022320" lon="-5.1306630">
        <ele>726.2</ele>
        <time>2019-08-15T07:30:38Z</time>
      </trkpt>
      <trkpt lat="41.6022510" lon="-5.1307030">
        <ele>726.3</ele>
        <time>2019-08-15T07:30:39Z</time>
      </trkpt>
      <trkpt lat="41.6022710" lon="-5.1307430">
        <ele>726.4</ele>
        <time>2019-08-15T07:30:40Z</time>
      </trkpt>
      <trkpt lat="41.6022910" lon="-5.1307820">
        <ele>726.4</ele>
        <time>2019-08-15T07:30:41Z</time>
      </trkpt>
      <trkpt lat="41.6023110" lon="-5.1308210">
        <ele>726.5</ele>
        <time>2019-08-15T07:30:42Z</time>
      </trkpt>
      <trkpt lat="41.6023310" lon="-5.1308620">
        <ele>726.5</ele>
        <time>2019-08-15T07:30:43Z</time>
      </trkpt>
      <trkpt lat="41.6023520" lon="-5.1309050">
        <ele>726.6</ele>
        <time>2019-08-15T07:30:44Z</time>
      </trkpt>
      <trkpt lat="41.6023730" lon="-5.1309470">
        <ele>726.6</ele>
        <time>2019-08-15T07:30:45Z</time>
      </trkpt>
      <trkpt lat="41.6023930" lon="-5.1309890">
        <ele>726.7</ele>
        <time>2019-08-15T07:30:46Z</time>
      </trkpt>
      <trkpt lat="41.6024150" lon="-5.1310300">
        <ele>726.7</ele>
        <time>2019-08-15T07:30:47Z</time>
      </trkpt>
      <trkpt lat="41.6024360" lon="-5.1310720">
        <ele>726.8</ele>
        <time>2019-08-15T07:30:48Z</time>
      </trkpt>
      <trkpt lat="41.6024570" lon="-5.1311140">
        <ele>726.8</ele>
        <time>2019-08-15T07:30:49Z</time>
      </trkpt>
      <trkpt lat="41.6024790" lon="-5.1311580">
        <ele>726.9</ele>
        <time>2019-08-15T07:30:50Z</time>
      </trkpt>
      <trkpt lat="41.6025020" lon="-5.1312030">
        <ele>726.9</ele>
        <time>2019-08-15T07:30:51Z</time>
      </trkpt>
      <trkpt lat="41.6025240" lon="-5.1312480">
        <ele>727.0</ele>
        <time>2019-08-15T07:30:52Z</time>
      </trkpt>
      <trkpt lat="41.6025480" lon="-5.1312940">
        <ele>727.1</ele>
        <time>2019-08-15T07:30:53Z</time>
      </trkpt>
      <trkpt lat="41.6025710" lon="-5.1313400">
        <ele>727.2</ele>
        <time>2019-08-15T07:30:54Z</time>
      </trkpt>
      <trkpt lat="41.6025940" lon="-5.1313870">
        <ele>727.2</ele>
        <time>2019-08-15T07:30:55Z</time>
      </trkpt>
      <trkpt lat="41.6026180" lon="-5.1314340">
        <ele>727.3</ele>
        <time>2019-08-15T07:30:56Z</time>
      </trkpt>
      <trkpt lat="41.6026420" lon="-5.1314820">
        <ele>727.4</ele>
        <time>2019-08-15T07:30:57Z</time>
      </trkpt>
      <trkpt lat="41.6026640" lon="-5.1315280">
        <ele>727.4</ele>
        <time>2019-08-15T07:30:58Z</time>
      </trkpt>
      <trkpt lat="41.6026860" lon="-5.1315720">
        <ele>727.5</ele>
        <time>2019-08-15T07:30:59Z</time>
      </trkpt>
      <trkpt lat="41.6027080" lon="-5.1316150">
        <ele>727.5</ele>
        <time>2019-08-15T07:31:00Z</time>
      </trkpt>
      <trkpt lat="41.6027290" lon="-5.1316580">
        <ele>727.6</ele>
        <time>2019-08-15T07:31:01Z</time>
      </trkpt>
      <trkpt lat="41.6027490" lon="-5.1317030">
        <ele>727.7</ele>
        <time>2019-08-15T07:31:02Z</time>
      </trkpt>
      <trkpt lat="41.6027700" lon="-5.1317480">
        <ele>727.8</ele>
        <time>2019-08-15T07:31:03Z</time>
      </trkpt>
      <trkpt lat="41.6027930" lon="-5.1317920">
        <ele>727.8</ele>
        <time>2019-08-15T07:31:04Z</time>
      </trkpt>
      <trkpt lat="41.6028150" lon="-5.1318370">
        <ele>727.9</ele>
        <time>2019-08-15T07:31:05Z</time>
      </trkpt>
      <trkpt lat="41.6028380" lon="-5.1318830">
        <ele>727.9</ele>
        <time>2019-08-15T07:31:06Z</time>
      </trkpt>
      <trkpt lat="41.6028590" lon="-5.1319300">
        <ele>728.0</ele>
        <time>2019-08-15T07:31:07Z</time>
      </trkpt>
      <trkpt lat="41.6028830" lon="-5.1319750">
        <ele>728.1</ele>
        <time>2019-08-15T07:31:08Z</time>
      </trkpt>
      <trkpt lat="41.6029060" lon="-5.1320200">
        <ele>728.1</ele>
        <time>2019-08-15T07:31:09Z</time>
      </trkpt>
      <trkpt lat="41.6029290" lon="-5.1320650">
        <ele>728.1</ele>
        <time>2019-08-15T07:31:10Z</time>
      </trkpt>
      <trkpt lat="41.6029520" lon="-5.1321100">
        <ele>728.2</ele>
        <time>2019-08-15T07:31:11Z</time>
      </trkpt>
      <trkpt lat="41.6029760" lon="-5.1321550">
        <ele>728.3</ele>
        <time>2019-08-15T07:31:12Z</time>
      </trkpt>
      <trkpt lat="41.6029990" lon="-5.1322000">
        <ele>728.3</ele>
        <time>2019-08-15T07:31:13Z</time>
      </trkpt>
      <trkpt lat="41.6030210" lon="-5.1322450">
        <ele>728.4</ele>
        <time>2019-08-15T07:31:14Z</time>
      </trkpt>
      <trkpt lat="41.6030440" lon="-5.1322910">
        <ele>728.4</ele>
        <time>2019-08-15T07:31:15Z</time>
      </trkpt>
      <trkpt lat="41.6030680" lon="-5.1323390">
        <ele>728.5</ele>
        <time>2019-08-15T07:31:16Z</time>
      </trkpt>
      <trkpt lat="41.6030900" lon="-5.1323870">
        <ele>728.6</ele>
        <time>2019-08-15T07:31:17Z</time>
      </trkpt>
      <trkpt lat="41.6031130" lon="-5.1324340">
        <ele>728.7</ele>
        <time>2019-08-15T07:31:18Z</time>
      </trkpt>
      <trkpt lat="41.6031360" lon="-5.1324840">
        <ele>728.8</ele>
        <time>2019-08-15T07:31:19Z</time>
      </trkpt>
      <trkpt lat="41.6031600" lon="-5.1325320">
        <ele>728.8</ele>
        <time>2019-08-15T07:31:20Z</time>
      </trkpt>
      <trkpt lat="41.6031840" lon="-5.1325820">
        <ele>728.9</ele>
        <time>2019-08-15T07:31:21Z</time>
      </trkpt>
      <trkpt lat="41.6032060" lon="-5.1326320">
        <ele>729.0</ele>
        <time>2019-08-15T07:31:22Z</time>
      </trkpt>
      <trkpt lat="41.6032300" lon="-5.1326800">
        <ele>729.1</ele>
        <time>2019-08-15T07:31:23Z</time>
      </trkpt>
      <trkpt lat="41.6032530" lon="-5.1327290">
        <ele>729.2</ele>
        <time>2019-08-15T07:31:24Z</time>
      </trkpt>
      <trkpt lat="41.6032760" lon="-5.1327760">
        <ele>729.3</ele>
        <time>2019-08-15T07:31:25Z</time>
      </trkpt>
      <trkpt lat="41.6032980" lon="-5.1328230">
        <ele>729.4</ele>
        <time>2019-08-15T07:31:26Z</time>
      </trkpt>
      <trkpt lat="41.6033210" lon="-5.1328710">
        <ele>729.4</ele>
        <time>2019-08-15T07:31:27Z</time>
      </trkpt>
      <trkpt lat="41.6033450" lon="-5.1329180">
        <ele>729.5</ele>
        <time>2019-08-15T07:31:28Z</time>
      </trkpt>
      <trkpt lat="41.6033690" lon="-5.1329640">
        <ele>729.7</ele>
        <time>2019-08-15T07:31:29Z</time>
      </trkpt>
      <trkpt lat="41.6033910" lon="-5.1330090">
        <ele>729.8</ele>
        <time>2019-08-15T07:31:30Z</time>
      </trkpt>
      <trkpt lat="41.6034120" lon="-5.1330540">
        <ele>729.9</ele>
        <time>2019-08-15T07:31:31Z</time>
      </trkpt>
      <trkpt lat="41.6034350" lon="-5.1331000">
        <ele>729.9</ele>
        <time>2019-08-15T07:31:32Z</time>
      </trkpt>
      <trkpt lat="41.6034570" lon="-5.1331460">
        <ele>730.0</ele>
        <time>2019-08-15T07:31:33Z</time>
      </trkpt>
      <trkpt lat="41.6034780" lon="-5.1331910">
        <ele>730.1</ele>
        <time>2019-08-15T07:31:34Z</time>
      </trkpt>
      <trkpt lat="41.6034980" lon="-5.1332360">
        <ele>730.2</ele>
        <time>2019-08-15T07:31:35Z</time>
      </trkpt>
      <trkpt lat="41.6035180" lon="-5.1332810">
        <ele>730.2</ele>
        <time>2019-08-15T07:31:36Z</time>
      </trkpt>
      <trkpt lat="41.6035390" lon="-5.1333250">
        <ele>730.3</ele>
        <time>2019-08-15T07:31:37Z</time>
      </trkpt>
      <trkpt lat="41.6035600" lon="-5.1333710">
        <ele>730.4</ele>
        <time>2019-08-15T07:31:38Z</time>
      </trkpt>
      <trkpt lat="41.6035810" lon="-5.1334150">
        <ele>730.4</ele>
        <time>2019-08-15T07:31:39Z</time>
      </trkpt>
      <trkpt lat="41.6036030" lon="-5.1334580">
        <ele>730.5</ele>
        <time>2019-08-15T07:31:40Z</time>
      </trkpt>
      <trkpt lat="41.6036250" lon="-5.1335010">
        <ele>730.5</ele>
        <time>2019-08-15T07:31:41Z</time>
      </trkpt>
      <trkpt lat="41.6036480" lon="-5.1335470">
        <ele>730.6</ele>
        <time>2019-08-15T07:31:42Z</time>
      </trkpt>
      <trkpt lat="41.6036690" lon="-5.1335920">
        <ele>730.6</ele>
        <time>2019-08-15T07:31:43Z</time>
      </trkpt>
      <trkpt lat="41.6036900" lon="-5.1336370">
        <ele>730.7</ele>
        <time>2019-08-15T07:31:44Z</time>
      </trkpt>
      <trkpt lat="41.6037110" lon="-5.1336840">
        <ele>730.7</ele>
        <time>2019-08-15T07:31:45Z</time>
      </trkpt>
      <trkpt lat="41.6037330" lon="-5.1337280">
        <ele>730.7</ele>
        <time>2019-08-15T07:31:46Z</time>
      </trkpt>
      <trkpt lat="41.6037550" lon="-5.1337750">
        <ele>730.8</ele>
        <time>2019-08-15T07:31:47Z</time>
      </trkpt>
      <trkpt lat="41.6037770" lon="-5.1338210">
        <ele>730.8</ele>
        <time>2019-08-15T07:31:48Z</time>
      </trkpt>
      <trkpt lat="41.6037990" lon="-5.1338670">
        <ele>730.9</ele>
        <time>2019-08-15T07:31:49Z</time>
      </trkpt>
      <trkpt lat="41.6038210" lon="-5.1339130">
        <ele>730.9</ele>
        <time>2019-08-15T07:31:50Z</time>
      </trkpt>
      <trkpt lat="41.6038430" lon="-5.1339590">
        <ele>731.0</ele>
        <time>2019-08-15T07:31:51Z</time>
      </trkpt>
      <trkpt lat="41.6038650" lon="-5.1340050">
        <ele>731.1</ele>
        <time>2019-08-15T07:31:52Z</time>
      </trkpt>
      <trkpt lat="41.6038870" lon="-5.1340510">
        <ele>731.2</ele>
        <time>2019-08-15T07:31:53Z</time>
      </trkpt>
      <trkpt lat="41.6039090" lon="-5.1340990">
        <ele>731.3</ele>
        <time>2019-08-15T07:31:54Z</time>
      </trkpt>
      <trkpt lat="41.6039320" lon="-5.1341460">
        <ele>731.5</ele>
        <time>2019-08-15T07:31:55Z</time>
      </trkpt>
      <trkpt lat="41.6039540" lon="-5.1341940">
        <ele>731.7</ele>
        <time>2019-08-15T07:31:56Z</time>
      </trkpt>
      <trkpt lat="41.6039760" lon="-5.1342410">
        <ele>731.8</ele>
        <time>2019-08-15T07:31:57Z</time>
      </trkpt>
      <trkpt lat="41.6039970" lon="-5.1342890">
        <ele>732.0</ele>
        <time>2019-08-15T07:31:58Z</time>
      </trkpt>
      <trkpt lat="41.6040180" lon="-5.1343350">
        <ele>732.2</ele>
        <time>2019-08-15T07:31:59Z</time>
      </trkpt>
      <trkpt lat="41.6040400" lon="-5.1343830">
        <ele>732.4</ele>
        <time>2019-08-15T07:32:00Z</time>
      </trkpt>
      <trkpt lat="41.6040620" lon="-5.1344310">
        <ele>732.6</ele>
        <time>2019-08-15T07:32:01Z</time>
      </trkpt>
      <trkpt lat="41.6040850" lon="-5.1344790">
        <ele>732.8</ele>
        <time>2019-08-15T07:32:02Z</time>
      </trkpt>
      <trkpt lat="41.6041080" lon="-5.1345260">
        <ele>733.1</ele>
        <time>2019-08-15T07:32:03Z</time>
      </trkpt>
      <trkpt lat="41.6041320" lon="-5.1345730">
        <ele>733.2</ele>
        <time>2019-08-15T07:32:04Z</time>
      </trkpt>
      <trkpt lat="41.6041550" lon="-5.1346190">
        <ele>733.4</ele>
        <time>2019-08-15T07:32:05Z</time>
      </trkpt>
      <trkpt lat="41.6041790" lon="-5.1346650">
        <ele>733.6</ele>
        <time>2019-08-15T07:32:06Z</time>
      </trkpt>
      <trkpt lat="41.6042010" lon="-5.1347090">
        <ele>733.8</ele>
        <time>2019-08-15T07:32:07Z</time>
      </trkpt>
      <trkpt lat="41.6042240" lon="-5.1347560">
        <ele>733.9</ele>
        <time>2019-08-15T07:32:08Z</time>
      </trkpt>
      <trkpt lat="41.6042450" lon="-5.1348020">
        <ele>734.0</ele>
        <time>2019-08-15T07:32:09Z</time>
      </trkpt>
      <trkpt lat="41.6042680" lon="-5.1348480">
        <ele>734.1</ele>
        <time>2019-08-15T07:32:10Z</time>
      </trkpt>
      <trkpt lat="41.6042910" lon="-5.1348920">
        <ele>734.2</ele>
        <time>2019-08-15T07:32:11Z</time>
      </trkpt>
      <trkpt lat="41.6043140" lon="-5.1349360">
        <ele>734.3</ele>
        <time>2019-08-15T07:32:12Z</time>
      </trkpt>
      <trkpt lat="41.6043390" lon="-5.1349760">
        <ele>734.3</ele>
        <time>2019-08-15T07:32:13Z</time>
      </trkpt>
      <trkpt lat="41.6043680" lon="-5.1350110">
        <ele>734.4</ele>
        <time>2019-08-15T07:32:14Z</time>
      </trkpt>
      <trkpt lat="41.6044030" lon="-5.1350350">
        <ele>734.4</ele>
        <time>2019-08-15T07:32:15Z</time>
      </trkpt>
      <trkpt lat="41.6044410" lon="-5.1350430">
        <ele>734.4</ele>
        <time>2019-08-15T07:32:16Z</time>
      </trkpt>
      <trkpt lat="41.6044790" lon="-5.1350370">
        <ele>734.4</ele>
        <time>2019-08-15T07:32:17Z</time>
      </trkpt>
      <trkpt lat="41.6045140" lon="-5.1350160">
        <ele>734.4</ele>
        <time>2019-08-15T07:32:18Z</time>
      </trkpt>
      <trkpt lat="41.6045420" lon="-5.1349840">
        <ele>734.4</ele>
        <time>2019-08-15T07:32:19Z</time>
      </trkpt>
      <trkpt lat="41.6045620" lon="-5.1349430">
        <ele>734.4</ele>
        <time>2019-08-15T07:32:20Z</time>
      </trkpt>
      <trkpt lat="41.6045780" lon="-5.1348950">
        <ele>734.4</ele>
        <time>2019-08-15T07:32:21Z</time>
      </trkpt>
      <trkpt lat="41.6045920" lon="-5.1348460">
        <ele>734.4</ele>
        <time>2019-08-15T07:32:22Z</time>
      </trkpt>
      <trkpt lat="41.6046050" lon="-5.1347970">
        <ele>734.4</ele>
        <time>2019-08-15T07:32:23Z</time>
      </trkpt>
      <trkpt lat="41.6046200" lon="-5.1347460">
        <ele>734.4</ele>
        <time>2019-08-15T07:32:24Z</time>
      </trkpt>
      <trkpt lat="41.6046360" lon="-5.1346960">
        <ele>734.4</ele>
        <time>2019-08-15T07:32:25Z</time>
      </trkpt>
      <trkpt lat="41.6046520" lon="-5.1346480">
        <ele>734.4</ele>
        <time>2019-08-15T07:32:26Z</time>
      </trkpt>
      <trkpt lat="41.6046690" lon="-5.1346010">
        <ele>734.4</ele>
        <time>2019-08-15T07:32:27Z</time>
      </trkpt>
      <trkpt lat="41.6046860" lon="-5.1345530">
        <ele>734.4</ele>
        <time>2019-08-15T07:32:28Z</time>
      </trkpt>
      <trkpt lat="41.6047030" lon="-5.1345060">
        <ele>734.4</ele>
        <time>2019-08-15T07:32:29Z</time>
      </trkpt>
      <trkpt lat="41.6047200" lon="-5.1344570">
        <ele>734.4</ele>
        <time>2019-08-15T07:32:30Z</time>
      </trkpt>
      <trkpt lat="41.6047380" lon="-5.1344090">
        <ele>734.4</ele>
        <time>2019-08-15T07:32:31Z</time>
      </trkpt>
      <trkpt lat="41.6047540" lon="-5.1343630">
        <ele>734.4</ele>
        <time>2019-08-15T07:32:32Z</time>
      </trkpt>
      <trkpt lat="41.6047700" lon="-5.1343170">
        <ele>734.5</ele>
        <time>2019-08-15T07:32:33Z</time>
      </trkpt>
      <trkpt lat="41.6047860" lon="-5.1342720">
        <ele>734.5</ele>
        <time>2019-08-15T07:32:34Z</time>
      </trkpt>
      <trkpt lat="41.6048040" lon="-5.1342280">
        <ele>734.5</ele>
        <time>2019-08-15T07:32:35Z</time>
      </trkpt>
      <trkpt lat="41.6048210" lon="-5.1341870">
        <ele>734.5</ele>
        <time>2019-08-15T07:32:36Z</time>
      </trkpt>
      <trkpt lat="41.6048410" lon="-5.1341500">
        <ele>734.5</ele>
        <time>2019-08-15T07:32:37Z</time>
      </trkpt>
      <trkpt lat="41.6048630" lon="-5.1341170">
        <ele>734.5</ele>
        <time>2019-08-15T07:32:38Z</time>
      </trkpt>
      <trkpt lat="41.6048830" lon="-5.1340930">
        <ele>734.5</ele>
        <time>2019-08-15T07:32:39Z</time>
      </trkpt>
      <trkpt lat="41.6049030" lon="-5.1340760">
        <ele>734.5</ele>
        <time>2019-08-15T07:32:40Z</time>
      </trkpt>
      <trkpt lat="41.6049270" lon="-5.1340680">
        <ele>734.5</ele>
        <time>2019-08-15T07:32:42Z</time>
      </trkpt>
      <trkpt lat="41.6050340" lon="-5.1339780">
        <ele>734.5</ele>
        <time>2019-08-15T07:34:33Z</time>
      </trkpt>
      <trkpt lat="41.6050480" lon="-5.1339320">
        <ele>734.5</ele>
        <time>2019-08-15T07:34:34Z</time>
      </trkpt>
      <trkpt lat="41.6050620" lon="-5.1338860">
        <ele>734.4</ele>
        <time>2019-08-15T07:34:35Z</time>
      </trkpt>
      <trkpt lat="41.6050770" lon="-5.1338390">
        <ele>734.4</ele>
        <time>2019-08-15T07:34:36Z</time>
      </trkpt>
      <trkpt lat="41.6050930" lon="-5.1337930">
        <ele>734.3</ele>
        <time>2019-08-15T07:34:37Z</time>
      </trkpt>
      <trkpt lat="41.6051090" lon="-5.1337460">
        <ele>734.2</ele>
        <time>2019-08-15T07:34:38Z</time>
      </trkpt>
      <trkpt lat="41.6051260" lon="-5.1336990">
        <ele>734.1</ele>
        <time>2019-08-15T07:34:39Z</time>
      </trkpt>
      <trkpt lat="41.6051430" lon="-5.1336520">
        <ele>734.1</ele>
        <time>2019-08-15T07:34:40Z</time>
      </trkpt>
      <trkpt lat="41.6051600" lon="-5.1336080">
        <ele>734.0</ele>
        <time>2019-08-15T07:34:41Z</time>
      </trkpt>
      <trkpt lat="41.6051770" lon="-5.1335640">
        <ele>733.9</ele>
        <time>2019-08-15T07:34:42Z</time>
      </trkpt>
      <trkpt lat="41.6051940" lon="-5.1335190">
        <ele>733.8</ele>
        <time>2019-08-15T07:34:43Z</time>
      </trkpt>
      <trkpt lat="41.6052110" lon="-5.1334750">
        <ele>733.6</ele>
        <time>2019-08-15T07:34:44Z</time>
      </trkpt>
      <trkpt lat="41.6052270" lon="-5.1334290">
        <ele>733.6</ele>
        <time>2019-08-15T07:34:45Z</time>
      </trkpt>
      <trkpt lat="41.6052440" lon="-5.1333850">
        <ele>733.5</ele>
        <time>2019-08-15T07:34:46Z</time>
      </trkpt>
      <trkpt lat="41.6052610" lon="-5.1333400">
        <ele>733.4</ele>
        <time>2019-08-15T07:34:47Z</time>
      </trkpt>
      <trkpt lat="41.6052800" lon="-5.1332980">
        <ele>733.2</ele>
        <time>2019-08-15T07:34:48Z</time>
      </trkpt>
      <trkpt lat="41.6053000" lon="-5.1332550">
        <ele>733.1</ele>
        <time>2019-08-15T07:34:49Z</time>
      </trkpt>
      <trkpt lat="41.6053210" lon="-5.1332110">
        <ele>732.9</ele>
        <time>2019-08-15T07:34:50Z</time>
      </trkpt>
      <trkpt lat="41.6053410" lon="-5.1331610">
        <ele>732.8</ele>
        <time>2019-08-15T07:34:51Z</time>
      </trkpt>
      <trkpt lat="41.6053610" lon="-5.1331110">
        <ele>732.7</ele>
        <time>2019-08-15T07:34:52Z</time>
      </trkpt>
      <trkpt lat="41.6053810" lon="-5.1330630">
        <ele>732.6</ele>
        <time>2019-08-15T07:34:53Z</time>
      </trkpt>
      <trkpt lat="41.6054000" lon="-5.1330150">
        <ele>732.5</ele>
        <time>2019-08-15T07:34:54Z</time>
      </trkpt>
      <trkpt lat="41.6054200" lon="-5.1329640">
        <ele>732.4</ele>
        <time>2019-08-15T07:34:55Z</time>
      </trkpt>
      <trkpt lat="41.6054410" lon="-5.1329100">
        <ele>732.3</ele>
        <time>2019-08-15T07:34:56Z</time>
      </trkpt>
      <trkpt lat="41.6054620" lon="-5.1328540">
        <ele>732.2</ele>
        <time>2019-08-15T07:34:57Z</time>
      </trkpt>
      <trkpt lat="41.6054840" lon="-5.1327960">
        <ele>732.2</ele>
        <time>2019-08-15T07:34:58Z</time>
      </trkpt>
      <trkpt lat="41.6055070" lon="-5.1327380">
        <ele>732.1</ele>
        <time>2019-08-15T07:34:59Z</time>
      </trkpt>
      <trkpt lat="41.6055320" lon="-5.1326800">
        <ele>732.1</ele>
        <time>2019-08-15T07:35:00Z</time>
      </trkpt>
      <trkpt lat="41.6055550" lon="-5.1326190">
        <ele>732.0</ele>
        <time>2019-08-15T07:35:01Z</time>
      </trkpt>
      <trkpt lat="41.6055780" lon="-5.1325580">
        <ele>732.0</ele>
        <time>2019-08-15T07:35:02Z</time>
      </trkpt>
      <trkpt lat="41.6056020" lon="-5.1324960">
        <ele>732.0</ele>
        <time>2019-08-15T07:35:03Z</time>
      </trkpt>
      <trkpt lat="41.6056250" lon="-5.1324360">
        <ele>732.0</ele>
        <time>2019-08-15T07:35:04Z</time>
      </trkpt>
      <trkpt lat="41.6056480" lon="-5.1323760">
        <ele>732.0</ele>
        <time>2019-08-15T07:35:05Z</time>
      </trkpt>
      <trkpt lat="41.6056720" lon="-5.1323180">
        <ele>732.1</ele>
        <time>2019-08-15T07:35:06Z</time>
      </trkpt>
      <trkpt lat="41.6056950" lon="-5.1322630">
        <ele>732.1</ele>
        <time>2019-08-15T07:35:07Z</time>
      </trkpt>
      <trkpt lat="41.6057160" lon="-5.1322080">
        <ele>732.2</ele>
        <time>2019-08-15T07:35:08Z</time>
      </trkpt>
      <trkpt lat="41.6057370" lon="-5.1321540">
        <ele>732.2</ele>
        <time>2019-08-15T07:35:09Z</time>
      </trkpt>
      <trkpt lat="41.6057570" lon="-5.1321000">
        <ele>732.4</ele>
        <time>2019-08-15T07:35:10Z</time>
      </trkpt>
      <trkpt lat="41.6057770" lon="-5.1320490">
        <ele>732.5</ele>
        <time>2019-08-15T07:35:11Z</time>
      </trkpt>
      <trkpt lat="41.6057970" lon="-5.1319990">
        <ele>732.6</ele>
        <time>2019-08-15T07:35:12Z</time>
      </trkpt>
      <trkpt lat="41.6058160" lon="-5.1319490">
        <ele>732.7</ele>
        <time>2019-08-15T07:35:13Z</time>
      </trkpt>
      <trkpt lat="41.6058360" lon="-5.1319000">
        <ele>732.9</ele>
        <time>2019-08-15T07:35:14Z</time>
      </trkpt>
      <trkpt lat="41.6058540" lon="-5.1318500">
        <ele>733.1</ele>
        <time>2019-08-15T07:35:15Z</time>
      </trkpt>
      <trkpt lat="41.6058720" lon="-5.1318010">
        <ele>733.2</ele>
        <time>2019-08-15T07:35:16Z</time>
      </trkpt>
      <trkpt lat="41.6058890" lon="-5.1317530">
        <ele>733.3</ele>
        <time>2019-08-15T07:35:17Z</time>
      </trkpt>
      <trkpt lat="41.6059060" lon="-5.1317070">
        <ele>733.4</ele>
        <time>2019-08-15T07:35:18Z</time>
      </trkpt>
      <trkpt lat="41.6059230" lon="-5.1316620">
        <ele>733.5</ele>
        <time>2019-08-15T07:35:19Z</time>
      </trkpt>
      <trkpt lat="41.6059400" lon="-5.1316190">
        <ele>733.6</ele>
        <time>2019-08-15T07:35:20Z</time>
      </trkpt>
      <trkpt lat="41.6059570" lon="-5.1315750">
        <ele>733.7</ele>
        <time>2019-08-15T07:35:21Z</time>
      </trkpt>
      <trkpt lat="41.6059740" lon="-5.1315320">
        <ele>733.7</ele>
        <time>2019-08-15T07:35:22Z</time>
      </trkpt>
      <trkpt lat="41.6059900" lon="-5.1314890">
        <ele>733.8</ele>
        <time>2019-08-15T07:35:23Z</time>
      </trkpt>
      <trkpt lat="41.6060060" lon="-5.1314470">
        <ele>733.9</ele>
        <time>2019-08-15T07:35:24Z</time>
      </trkpt>
      <trkpt lat="41.6060210" lon="-5.1314050">
        <ele>734.0</ele>
        <time>2019-08-15T07:35:25Z</time>
      </trkpt>
      <trkpt lat="41.6060360" lon="-5.1313630">
        <ele>734.1</ele>
        <time>2019-08-15T07:35:26Z</time>
      </trkpt>
      <trkpt lat="41.6060490" lon="-5.1313210">
        <ele>734.2</ele>
        <time>2019-08-15T07:35:27Z</time>
      </trkpt>
      <trkpt lat="41.6060630" lon="-5.1312790">
        <ele>734.3</ele>
        <time>2019-08-15T07:35:28Z</time>
      </trkpt>
      <trkpt lat="41.6060770" lon="-5.1312360">
        <ele>734.3</ele>
        <time>2019-08-15T07:35:29Z</time>
      </trkpt>
      <trkpt lat="41.6060900" lon="-5.1311930">
        <ele>734.4</ele>
        <time>2019-08-15T07:35:30Z</time>
      </trkpt>
      <trkpt lat="41.6061030" lon="-5.1311490">
        <ele>734.5</ele>
        <time>2019-08-15T07:35:31Z</time>
      </trkpt>
      <trkpt lat="41.6061180" lon="-5.1311050">
        <ele>734.6</ele>
        <time>2019-08-15T07:35:32Z</time>
      </trkpt>
      <trkpt lat="41.6061320" lon="-5.1310610">
        <ele>734.7</ele>
        <time>2019-08-15T07:35:33Z</time>
      </trkpt>
      <trkpt lat="41.6061470" lon="-5.1310160">
        <ele>734.9</ele>
        <time>2019-08-15T07:35:34Z</time>
      </trkpt>
      <trkpt lat="41.6061610" lon="-5.1309710">
        <ele>734.9</ele>
        <time>2019-08-15T07:35:35Z</time>
      </trkpt>
      <trkpt lat="41.6061760" lon="-5.1309250">
        <ele>735.0</ele>
        <time>2019-08-15T07:35:36Z</time>
      </trkpt>
      <trkpt lat="41.6061920" lon="-5.1308800">
        <ele>735.0</ele>
        <time>2019-08-15T07:35:37Z</time>
      </trkpt>
      <trkpt lat="41.6062060" lon="-5.1308340">
        <ele>735.0</ele>
        <time>2019-08-15T07:35:38Z</time>
      </trkpt>
      <trkpt lat="41.6062200" lon="-5.1307860">
        <ele>735.1</ele>
        <time>2019-08-15T07:35:39Z</time>
      </trkpt>
      <trkpt lat="41.6062320" lon="-5.1307390">
        <ele>735.2</ele>
        <time>2019-08-15T07:35:40Z</time>
      </trkpt>
      <trkpt lat="41.6062450" lon="-5.1306920">
        <ele>735.3</ele>
        <time>2019-08-15T07:35:41Z</time>
      </trkpt>
      <trkpt lat="41.6062580" lon="-5.1306460">
        <ele>735.4</ele>
        <time>2019-08-15T07:35:42Z</time>
      </trkpt>
      <trkpt lat="41.6062690" lon="-5.1306010">
        <ele>735.4</ele>
        <time>2019-08-15T07:35:43Z</time>
      </trkpt>
      <trkpt lat="41.6062800" lon="-5.1305550">
        <ele>735.5</ele>
        <time>2019-08-15T07:35:44Z</time>
      </trkpt>
      <trkpt lat="41.6062900" lon="-5.1305090">
        <ele>735.6</ele>
        <time>2019-08-15T07:35:45Z</time>
      </trkpt>
      <trkpt lat="41.6063000" lon="-5.1304640">
        <ele>735.7</ele>
        <time>2019-08-15T07:35:46Z</time>
      </trkpt>
      <trkpt lat="41.6063100" lon="-5.1304200">
        <ele>735.7</ele>
        <time>2019-08-15T07:35:47Z</time>
      </trkpt>
      <trkpt lat="41.6063180" lon="-5.1303750">
        <ele>735.7</ele>
        <time>2019-08-15T07:35:48Z</time>
      </trkpt>
      <trkpt lat="41.6063250" lon="-5.1303320">
        <ele>735.7</ele>
        <time>2019-08-15T07:35:49Z</time>
      </trkpt>
      <trkpt lat="41.6063340" lon="-5.1302880">
        <ele>735.7</ele>
        <time>2019-08-15T07:35:50Z</time>
      </trkpt>
      <trkpt lat="41.6063430" lon="-5.1302440">
        <ele>735.8</ele>
        <time>2019-08-15T07:35:51Z</time>
      </trkpt>
      <trkpt lat="41.6063510" lon="-5.1302000">
        <ele>735.8</ele>
        <time>2019-08-15T07:35:52Z</time>
      </trkpt>
      <trkpt lat="41.6063580" lon="-5.1301560">
        <ele>735.9</ele>
        <time>2019-08-15T07:35:53Z</time>
      </trkpt>
      <trkpt lat="41.6063640" lon="-5.1301120">
        <ele>735.9</ele>
        <time>2019-08-15T07:35:54Z</time>
      </trkpt>
      <trkpt lat="41.6063690" lon="-5.1300690">
        <ele>735.9</ele>
        <time>2019-08-15T07:35:55Z</time>
      </trkpt>
      <trkpt lat="41.6063750" lon="-5.1300250">
        <ele>736.0</ele>
        <time>2019-08-15T07:35:56Z</time>
      </trkpt>
      <trkpt lat="41.6063790" lon="-5.1299810">
        <ele>736.0</ele>
        <time>2019-08-15T07:35:57Z</time>
      </trkpt>
      <trkpt lat="41.6063850" lon="-5.1299380">
        <ele>736.0</ele>
        <time>2019-08-15T07:35:58Z</time>
      </trkpt>
      <trkpt lat="41.6063900" lon="-5.1298960">
        <ele>736.1</ele>
        <time>2019-08-15T07:35:59Z</time>
      </trkpt>
      <trkpt lat="41.6063960" lon="-5.1298580">
        <ele>736.2</ele>
        <time>2019-08-15T07:36:00Z</time>
      </trkpt>
      <trkpt lat="41.6064010" lon="-5.1298200">
        <ele>736.2</ele>
        <time>2019-08-15T07:36:01Z</time>
      </trkpt>
      <trkpt lat="41.6064090" lon="-5.1297850">
        <ele>736.2</ele>
        <time>2019-08-15T07:36:02Z</time>
      </trkpt>
      <trkpt lat="41.6064220" lon="-5.1297570">
        <ele>736.3</ele>
        <time>2019-08-15T07:36:03Z</time>
      </trkpt>
      <trkpt lat="41.6064620" lon="-5.1297290">
        <ele>736.5</ele>
        <time>2019-08-15T07:36:05Z</time>
      </trkpt>
      <trkpt lat="41.6065030" lon="-5.1297410">
        <ele>736.5</ele>
        <time>2019-08-15T07:36:07Z</time>
      </trkpt>
      <trkpt lat="41.6065390" lon="-5.1297850">
        <ele>736.6</ele>
        <time>2019-08-15T07:36:09Z</time>
      </trkpt>
      <trkpt lat="41.6065770" lon="-5.1298400">
        <ele>736.7</ele>
        <time>2019-08-15T07:36:11Z</time>
      </trkpt>
      <trkpt lat="41.6065980" lon="-5.1298690">
        <ele>736.8</ele>
        <time>2019-08-15T07:36:12Z</time>
      </trkpt>
      <trkpt lat="41.6066190" lon="-5.1298990">
        <ele>736.9</ele>
        <time>2019-08-15T07:36:13Z</time>
      </trkpt>
      <trkpt lat="41.6066400" lon="-5.1299290">
        <ele>737.0</ele>
        <time>2019-08-15T07:36:14Z</time>
      </trkpt>
      <trkpt lat="41.6066620" lon="-5.1299580">
        <ele>737.0</ele>
        <time>2019-08-15T07:36:15Z</time>
      </trkpt>
      <trkpt lat="41.6066840" lon="-5.1299880">
        <ele>737.1</ele>
        <time>2019-08-15T07:36:16Z</time>
      </trkpt>
      <trkpt lat="41.6067060" lon="-5.1300190">
        <ele>737.2</ele>
        <time>2019-08-15T07:36:17Z</time>
      </trkpt>
      <trkpt lat="41.6067280" lon="-5.1300500">
        <ele>737.3</ele>
        <time>2019-08-15T07:36:18Z</time>
      </trkpt>
      <trkpt lat="41.6067510" lon="-5.1300810">
        <ele>737.4</ele>
        <time>2019-08-15T07:36:19Z</time>
      </trkpt>
      <trkpt lat="41.6067740" lon="-5.1301120">
        <ele>737.5</ele>
        <time>2019-08-15T07:36:20Z</time>
      </trkpt>
      <trkpt lat="41.6067960" lon="-5.1301450">
        <ele>737.6</ele>
        <time>2019-08-15T07:36:21Z</time>
      </trkpt>
      <trkpt lat="41.6068200" lon="-5.1301760">
        <ele>737.7</ele>
        <time>2019-08-15T07:36:22Z</time>
      </trkpt>
      <trkpt lat="41.6068430" lon="-5.1302080">
        <ele>737.8</ele>
        <time>2019-08-15T07:36:23Z</time>
      </trkpt>
      <trkpt lat="41.6068670" lon="-5.1302410">
        <ele>737.8</ele>
        <time>2019-08-15T07:36:24Z</time>
      </trkpt>
      <trkpt lat="41.6068900" lon="-5.1302740">
        <ele>737.9</ele>
        <time>2019-08-15T07:36:25Z</time>
      </trkpt>
      <trkpt lat="41.6069150" lon="-5.1303070">
        <ele>738.0</ele>
        <time>2019-08-15T07:36:26Z</time>
      </trkpt>
      <trkpt lat="41.6069400" lon="-5.1303400">
        <ele>738.1</ele>
        <time>2019-08-15T07:36:27Z</time>
      </trkpt>
      <trkpt lat="41.6069650" lon="-5.1303750">
        <ele>738.2</ele>
        <time>2019-08-15T07:36:28Z</time>
      </trkpt>
      <trkpt lat="41.6069910" lon="-5.1304110">
        <ele>738.2</ele>
        <time>2019-08-15T07:36:29Z</time>
      </trkpt>
      <trkpt lat="41.6070160" lon="-5.1304470">
        <ele>738.3</ele>
        <time>2019-08-15T07:36:30Z</time>
      </trkpt>
      <trkpt lat="41.6070410" lon="-5.1304850">
        <ele>738.4</ele>
        <time>2019-08-15T07:36:31Z</time>
      </trkpt>
      <trkpt lat="41.6070660" lon="-5.1305220">
        <ele>738.5</ele>
        <time>2019-08-15T07:36:32Z</time>
      </trkpt>
      <trkpt lat="41.6070920" lon="-5.1305600">
        <ele>738.5</ele>
        <time>2019-08-15T07:36:33Z</time>
      </trkpt>
      <trkpt lat="41.6071190" lon="-5.1305970">
        <ele>738.5</ele>
        <time>2019-08-15T07:36:34Z</time>
      </trkpt>
      <trkpt lat="41.6071460" lon="-5.1306340">
        <ele>738.5</ele>
        <time>2019-08-15T07:36:35Z</time>
      </trkpt>
      <trkpt lat="41.6071730" lon="-5.1306710">
        <ele>738.6</ele>
        <time>2019-08-15T07:36:36Z</time>
      </trkpt>
      <trkpt lat="41.6072000" lon="-5.1307090">
        <ele>738.6</ele>
        <time>2019-08-15T07:36:37Z</time>
      </trkpt>
      <trkpt lat="41.6072280" lon="-5.1307470">
        <ele>738.6</ele>
        <time>2019-08-15T07:36:38Z</time>
      </trkpt>
      <trkpt lat="41.6072550" lon="-5.1307830">
        <ele>738.6</ele>
        <time>2019-08-15T07:36:39Z</time>
      </trkpt>
      <trkpt lat="41.6072810" lon="-5.1308200">
        <ele>738.5</ele>
        <time>2019-08-15T07:36:40Z</time>
      </trkpt>
      <trkpt lat="41.6073070" lon="-5.1308560">
        <ele>738.4</ele>
        <time>2019-08-15T07:36:41Z</time>
      </trkpt>
      <trkpt lat="41.6073320" lon="-5.1308920">
        <ele>738.4</ele>
        <time>2019-08-15T07:36:42Z</time>
      </trkpt>
      <trkpt lat="41.6073570" lon="-5.1309270">
        <ele>738.3</ele>
        <time>2019-08-15T07:36:43Z</time>
      </trkpt>
      <trkpt lat="41.6073820" lon="-5.1309620">
        <ele>738.3</ele>
        <time>2019-08-15T07:36:44Z</time>
      </trkpt>
      <trkpt lat="41.6074070" lon="-5.1309960">
        <ele>738.2</ele>
        <time>2019-08-15T07:36:45Z</time>
      </trkpt>
      <trkpt lat="41.6074320" lon="-5.1310290">
        <ele>738.2</ele>
        <time>2019-08-15T07:36:46Z</time>
      </trkpt>
      <trkpt lat="41.6074560" lon="-5.1310640">
        <ele>738.1</ele>
        <time>2019-08-15T07:36:47Z</time>
      </trkpt>
      <trkpt lat="41.6074810" lon="-5.1310980">
        <ele>738.1</ele>
        <time>2019-08-15T07:36:48Z</time>
      </trkpt>
      <trkpt lat="41.6075060" lon="-5.1311330">
        <ele>738.0</ele>
        <time>2019-08-15T07:36:49Z</time>
      </trkpt>
      <trkpt lat="41.6075310" lon="-5.1311680">
        <ele>738.0</ele>
        <time>2019-08-15T07:36:50Z</time>
      </trkpt>
      <trkpt lat="41.6075570" lon="-5.1312020">
        <ele>737.9</ele>
        <time>2019-08-15T07:36:51Z</time>
      </trkpt>
      <trkpt lat="41.6075830" lon="-5.1312370">
        <ele>737.8</ele>
        <time>2019-08-15T07:36:52Z</time>
      </trkpt>
      <trkpt lat="41.6076090" lon="-5.1312710">
        <ele>737.7</ele>
        <time>2019-08-15T07:36:53Z</time>
      </trkpt>
      <trkpt lat="41.6076350" lon="-5.1313050">
        <ele>737.6</ele>
        <time>2019-08-15T07:36:54Z</time>
      </trkpt>
      <trkpt lat="41.6076610" lon="-5.1313410">
        <ele>737.5</ele>
        <time>2019-08-15T07:36:55Z</time>
      </trkpt>
      <trkpt lat="41.6076870" lon="-5.1313760">
        <ele>737.4</ele>
        <time>2019-08-15T07:36:56Z</time>
      </trkpt>
      <trkpt lat="41.6077130" lon="-5.1314130">
        <ele>737.3</ele>
        <time>2019-08-15T07:36:57Z</time>
      </trkpt>
      <trkpt lat="41.6077410" lon="-5.1314530">
        <ele>737.2</ele>
        <time>2019-08-15T07:36:58Z</time>
      </trkpt>
      <trkpt lat="41.6077700" lon="-5.1314900">
        <ele>737.1</ele>
        <time>2019-08-15T07:36:59Z</time>
      </trkpt>
      <trkpt lat="41.6077990" lon="-5.1315290">
        <ele>737.0</ele>
        <time>2019-08-15T07:37:00Z</time>
      </trkpt>
      <trkpt lat="41.6078290" lon="-5.1315660">
        <ele>737.0</ele>
        <time>2019-08-15T07:37:01Z</time>
      </trkpt>
      <trkpt lat="41.6078590" lon="-5.1316050">
        <ele>736.9</ele>
        <time>2019-08-15T07:37:02Z</time>
      </trkpt>
      <trkpt lat="41.6078900" lon="-5.1316450">
        <ele>736.7</ele>
        <time>2019-08-15T07:37:03Z</time>
      </trkpt>
      <trkpt lat="41.6079210" lon="-5.1316890">
        <ele>736.6</ele>
        <time>2019-08-15T07:37:04Z</time>
      </trkpt>
      <trkpt lat="41.6079530" lon="-5.1317310">
        <ele>736.4</ele>
        <time>2019-08-15T07:37:05Z</time>
      </trkpt>
      <trkpt lat="41.6079880" lon="-5.1317750">
        <ele>736.3</ele>
        <time>2019-08-15T07:37:06Z</time>
      </trkpt>
      <trkpt lat="41.6080260" lon="-5.1318230">
        <ele>736.2</ele>
        <time>2019-08-15T07:37:07Z</time>
      </trkpt>
      <trkpt lat="41.6080660" lon="-5.1318740">
        <ele>736.1</ele>
        <time>2019-08-15T07:37:08Z</time>
      </trkpt>
      <trkpt lat="41.6081090" lon="-5.1319310">
        <ele>736.1</ele>
        <time>2019-08-15T07:37:09Z</time>
      </trkpt>
      <trkpt lat="41.6081530" lon="-5.1319890">
        <ele>736.0</ele>
        <time>2019-08-15T07:37:10Z</time>
      </trkpt>
      <trkpt lat="41.6081980" lon="-5.1320480">
        <ele>736.1</ele>
        <time>2019-08-15T07:37:11Z</time>
      </trkpt>
      <trkpt lat="41.6082400" lon="-5.1321040">
        <ele>736.1</ele>
        <time>2019-08-15T07:37:12Z</time>
      </trkpt>
      <trkpt lat="41.6082820" lon="-5.1321590">
        <ele>736.2</ele>
        <time>2019-08-15T07:37:13Z</time>
      </trkpt>
      <trkpt lat="41.6083200" lon="-5.1322090">
        <ele>736.3</ele>
        <time>2019-08-15T07:37:14Z</time>
      </trkpt>
      <trkpt lat="41.6083570" lon="-5.1322580">
        <ele>736.4</ele>
        <time>2019-08-15T07:37:15Z</time>
      </trkpt>
      <trkpt lat="41.6083920" lon="-5.1323050">
        <ele>736.5</ele>
        <time>2019-08-15T07:37:16Z</time>
      </trkpt>
      <trkpt lat="41.6084240" lon="-5.1323490">
        <ele>736.5</ele>
        <time>2019-08-15T07:37:17Z</time>
      </trkpt>
      <trkpt lat="41.6084560" lon="-5.1323910">
        <ele>736.6</ele>
        <time>2019-08-15T07:37:18Z</time>
      </trkpt>
      <trkpt lat="41.6084870" lon="-5.1324310">
        <ele>736.7</ele>
        <time>2019-08-15T07:37:19Z</time>
      </trkpt>
      <trkpt lat="41.6085180" lon="-5.1324690">
        <ele>736.8</ele>
        <time>2019-08-15T07:37:20Z</time>
      </trkpt>
      <trkpt lat="41.6085490" lon="-5.1325090">
        <ele>737.0</ele>
        <time>2019-08-15T07:37:21Z</time>
      </trkpt>
      <trkpt lat="41.6085800" lon="-5.1325520">
        <ele>737.1</ele>
        <time>2019-08-15T07:37:22Z</time>
      </trkpt>
      <trkpt lat="41.6086120" lon="-5.1325930">
        <ele>737.2</ele>
        <time>2019-08-15T07:37:23Z</time>
      </trkpt>
      <trkpt lat="41.6086440" lon="-5.1326370">
        <ele>737.4</ele>
        <time>2019-08-15T07:37:24Z</time>
      </trkpt>
      <trkpt lat="41.6086800" lon="-5.1326850">
        <ele>737.5</ele>
        <time>2019-08-15T07:37:25Z</time>
      </trkpt>
      <trkpt lat="41.6087160" lon="-5.1327360">
        <ele>737.6</ele>
        <time>2019-08-15T07:37:26Z</time>
      </trkpt>
      <trkpt lat="41.6087520" lon="-5.1327850">
        <ele>737.7</ele>
        <time>2019-08-15T07:37:27Z</time>
      </trkpt>
      <trkpt lat="41.6087890" lon="-5.1328330">
        <ele>737.9</ele>
        <time>2019-08-15T07:37:28Z</time>
      </trkpt>
      <trkpt lat="41.6088240" lon="-5.1328810">
        <ele>738.0</ele>
        <time>2019-08-15T07:37:29Z</time>
      </trkpt>
      <trkpt lat="41.6088590" lon="-5.1329290">
        <ele>738.2</ele>
        <time>2019-08-15T07:37:30Z</time>
      </trkpt>
      <trkpt lat="41.6088940" lon="-5.1329750">
        <ele>738.4</ele>
        <time>2019-08-15T07:37:31Z</time>
      </trkpt>
      <trkpt lat="41.6089290" lon="-5.1330210">
        <ele>738.5</ele>
        <time>2019-08-15T07:37:32Z</time>
      </trkpt>
      <trkpt lat="41.6089650" lon="-5.1330690">
        <ele>738.7</ele>
        <time>2019-08-15T07:37:33Z</time>
      </trkpt>
      <trkpt lat="41.6090000" lon="-5.1331180">
        <ele>738.9</ele>
        <time>2019-08-15T07:37:34Z</time>
      </trkpt>
      <trkpt lat="41.6090360" lon="-5.1331630">
        <ele>739.1</ele>
        <time>2019-08-15T07:37:35Z</time>
      </trkpt>
      <trkpt lat="41.6090710" lon="-5.1332090">
        <ele>739.3</ele>
        <time>2019-08-15T07:37:36Z</time>
      </trkpt>
      <trkpt lat="41.6091050" lon="-5.1332530">
        <ele>739.6</ele>
        <time>2019-08-15T07:37:37Z</time>
      </trkpt>
      <trkpt lat="41.6091390" lon="-5.1332950">
        <ele>739.8</ele>
        <time>2019-08-15T07:37:38Z</time>
      </trkpt>
      <trkpt lat="41.6091700" lon="-5.1333360">
        <ele>740.1</ele>
        <time>2019-08-15T07:37:39Z</time>
      </trkpt>
      <trkpt lat="41.6092000" lon="-5.1333750">
        <ele>740.4</ele>
        <time>2019-08-15T07:37:40Z</time>
      </trkpt>
      <trkpt lat="41.6092290" lon="-5.1334100">
        <ele>740.7</ele>
        <time>2019-08-15T07:37:41Z</time>
      </trkpt>
      <trkpt lat="41.6092550" lon="-5.1334440">
        <ele>740.9</ele>
        <time>2019-08-15T07:37:42Z</time>
      </trkpt>
      <trkpt lat="41.6092800" lon="-5.1334750">
        <ele>741.1</ele>
        <time>2019-08-15T07:37:43Z</time>
      </trkpt>
      <trkpt lat="41.6093030" lon="-5.1335050">
        <ele>741.4</ele>
        <time>2019-08-15T07:37:44Z</time>
      </trkpt>
      <trkpt lat="41.6093250" lon="-5.1335350">
        <ele>741.6</ele>
        <time>2019-08-15T07:37:45Z</time>
      </trkpt>
      <trkpt lat="41.6093460" lon="-5.1335650">
        <ele>741.7</ele>
        <time>2019-08-15T07:37:46Z</time>
      </trkpt>
      <trkpt lat="41.6093660" lon="-5.1335920">
        <ele>741.9</ele>
        <time>2019-08-15T07:37:47Z</time>
      </trkpt>
      <trkpt lat="41.6093860" lon="-5.1336190">
        <ele>742.0</ele>
        <time>2019-08-15T07:37:48Z</time>
      </trkpt>
      <trkpt lat="41.6094070" lon="-5.1336450">
        <ele>742.2</ele>
        <time>2019-08-15T07:37:49Z</time>
      </trkpt>
      <trkpt lat="41.6094270" lon="-5.1336720">
        <ele>742.3</ele>
        <time>2019-08-15T07:37:50Z</time>
      </trkpt>
      <trkpt lat="41.6094460" lon="-5.1336990">
        <ele>742.4</ele>
        <time>2019-08-15T07:37:51Z</time>
      </trkpt>
      <trkpt lat="41.6094660" lon="-5.1337250">
        <ele>742.5</ele>
        <time>2019-08-15T07:37:52Z</time>
      </trkpt>
      <trkpt lat="41.6094860" lon="-5.1337510">
        <ele>742.7</ele>
        <time>2019-08-15T07:37:53Z</time>
      </trkpt>
      <trkpt lat="41.6095070" lon="-5.1337770">
        <ele>742.8</ele>
        <time>2019-08-15T07:37:54Z</time>
      </trkpt>
      <trkpt lat="41.6095260" lon="-5.1338030">
        <ele>742.9</ele>
        <time>2019-08-15T07:37:55Z</time>
      </trkpt>
      <trkpt lat="41.6095460" lon="-5.1338290">
        <ele>743.0</ele>
        <time>2019-08-15T07:37:56Z</time>
      </trkpt>
      <trkpt lat="41.6095660" lon="-5.1338550">
        <ele>743.1</ele>
        <time>2019-08-15T07:37:57Z</time>
      </trkpt>
      <trkpt lat="41.6095850" lon="-5.1338800">
        <ele>743.2</ele>
        <time>2019-08-15T07:37:58Z</time>
      </trkpt>
      <trkpt lat="41.6096040" lon="-5.1339080">
        <ele>743.3</ele>
        <time>2019-08-15T07:37:59Z</time>
      </trkpt>
      <trkpt lat="41.6096240" lon="-5.1339350">
        <ele>743.5</ele>
        <time>2019-08-15T07:38:00Z</time>
      </trkpt>
      <trkpt lat="41.6096430" lon="-5.1339610">
        <ele>743.6</ele>
        <time>2019-08-15T07:38:01Z</time>
      </trkpt>
      <trkpt lat="41.6096630" lon="-5.1339870">
        <ele>743.7</ele>
        <time>2019-08-15T07:38:02Z</time>
      </trkpt>
      <trkpt lat="41.6096820" lon="-5.1340140">
        <ele>743.8</ele>
        <time>2019-08-15T07:38:03Z</time>
      </trkpt>
      <trkpt lat="41.6097020" lon="-5.1340420">
        <ele>744.0</ele>
        <time>2019-08-15T07:38:04Z</time>
      </trkpt>
      <trkpt lat="41.6097210" lon="-5.1340700">
        <ele>744.1</ele>
        <time>2019-08-15T07:38:05Z</time>
      </trkpt>
      <trkpt lat="41.6097410" lon="-5.1340980">
        <ele>744.1</ele>
        <time>2019-08-15T07:38:06Z</time>
      </trkpt>
      <trkpt lat="41.6097620" lon="-5.1341250">
        <ele>744.2</ele>
        <time>2019-08-15T07:38:07Z</time>
      </trkpt>
      <trkpt lat="41.6097830" lon="-5.1341520">
        <ele>744.3</ele>
        <time>2019-08-15T07:38:08Z</time>
      </trkpt>
      <trkpt lat="41.6098040" lon="-5.1341800">
        <ele>744.4</ele>
        <time>2019-08-15T07:38:09Z</time>
      </trkpt>
      <trkpt lat="41.6098240" lon="-5.1342080">
        <ele>744.4</ele>
        <time>2019-08-15T07:38:10Z</time>
      </trkpt>
      <trkpt lat="41.6098450" lon="-5.1342350">
        <ele>744.5</ele>
        <time>2019-08-15T07:38:11Z</time>
      </trkpt>
      <trkpt lat="41.6098660" lon="-5.1342630">
        <ele>744.5</ele>
        <time>2019-08-15T07:38:12Z</time>
      </trkpt>
      <trkpt lat="41.6098870" lon="-5.1342900">
        <ele>744.6</ele>
        <time>2019-08-15T07:38:13Z</time>
      </trkpt>
      <trkpt lat="41.6099090" lon="-5.1343180">
        <ele>744.7</ele>
        <time>2019-08-15T07:38:14Z</time>
      </trkpt>
      <trkpt lat="41.6099300" lon="-5.1343460">
        <ele>744.7</ele>
        <time>2019-08-15T07:38:15Z</time>
      </trkpt>
      <trkpt lat="41.6099520" lon="-5.1343740">
        <ele>744.8</ele>
        <time>2019-08-15T07:38:16Z</time>
      </trkpt>
      <trkpt lat="41.6099730" lon="-5.1344010">
        <ele>744.9</ele>
        <time>2019-08-15T07:38:17Z</time>
      </trkpt>
      <trkpt lat="41.6099950" lon="-5.1344280">
        <ele>744.9</ele>
        <time>2019-08-15T07:38:18Z</time>
      </trkpt>
      <trkpt lat="41.6100160" lon="-5.1344560">
        <ele>745.0</ele>
        <time>2019-08-15T07:38:19Z</time>
      </trkpt>
      <trkpt lat="41.6100380" lon="-5.1344840">
        <ele>745.1</ele>
        <time>2019-08-15T07:38:20Z</time>
      </trkpt>
      <trkpt lat="41.6100590" lon="-5.1345120">
        <ele>745.2</ele>
        <time>2019-08-15T07:38:21Z</time>
      </trkpt>
      <trkpt lat="41.6100810" lon="-5.1345400">
        <ele>745.2</ele>
        <time>2019-08-15T07:38:22Z</time>
      </trkpt>
      <trkpt lat="41.6101020" lon="-5.1345680">
        <ele>745.3</ele>
        <time>2019-08-15T07:38:23Z</time>
      </trkpt>
      <trkpt lat="41.6101240" lon="-5.1345960">
        <ele>745.3</ele>
        <time>2019-08-15T07:38:24Z</time>
      </trkpt>
      <trkpt lat="41.6101450" lon="-5.1346240">
        <ele>745.4</ele>
        <time>2019-08-15T07:38:25Z</time>
      </trkpt>
      <trkpt lat="41.6101660" lon="-5.1346520">
        <ele>745.5</ele>
        <time>2019-08-15T07:38:26Z</time>
      </trkpt>
      <trkpt lat="41.6101870" lon="-5.1346810">
        <ele>745.6</ele>
        <time>2019-08-15T07:38:27Z</time>
      </trkpt>
      <trkpt lat="41.6102100" lon="-5.1347080">
        <ele>745.8</ele>
        <time>2019-08-15T07:38:28Z</time>
      </trkpt>
      <trkpt lat="41.6102320" lon="-5.1347370">
        <ele>745.9</ele>
        <time>2019-08-15T07:38:29Z</time>
      </trkpt>
      <trkpt lat="41.6102550" lon="-5.1347660">
        <ele>746.0</ele>
        <time>2019-08-15T07:38:30Z</time>
      </trkpt>
      <trkpt lat="41.6102780" lon="-5.1347950">
        <ele>746.1</ele>
        <time>2019-08-15T07:38:31Z</time>
      </trkpt>
      <trkpt lat="41.6103010" lon="-5.1348240">
        <ele>746.3</ele>
        <time>2019-08-15T07:38:32Z</time>
      </trkpt>
      <trkpt lat="41.6103250" lon="-5.1348550">
        <ele>746.4</ele>
        <time>2019-08-15T07:38:33Z</time>
      </trkpt>
      <trkpt lat="41.6103490" lon="-5.1348850">
        <ele>746.5</ele>
        <time>2019-08-15T07:38:34Z</time>
      </trkpt>
      <trkpt lat="41.6103740" lon="-5.1349170">
        <ele>746.7</ele>
        <time>2019-08-15T07:38:35Z</time>
      </trkpt>
      <trkpt lat="41.6103990" lon="-5.1349490">
        <ele>746.8</ele>
        <time>2019-08-15T07:38:36Z</time>
      </trkpt>
      <trkpt lat="41.6104250" lon="-5.1349820">
        <ele>747.0</ele>
        <time>2019-08-15T07:38:37Z</time>
      </trkpt>
      <trkpt lat="41.6104500" lon="-5.1350150">
        <ele>747.1</ele>
        <time>2019-08-15T07:38:38Z</time>
      </trkpt>
      <trkpt lat="41.6104760" lon="-5.1350480">
        <ele>747.3</ele>
        <time>2019-08-15T07:38:39Z</time>
      </trkpt>
      <trkpt lat="41.6105020" lon="-5.1350810">
        <ele>747.4</ele>
        <time>2019-08-15T07:38:40Z</time>
      </trkpt>
      <trkpt lat="41.6105280" lon="-5.1351150">
        <ele>747.6</ele>
        <time>2019-08-15T07:38:41Z</time>
      </trkpt>
      <trkpt lat="41.6105530" lon="-5.1351490">
        <ele>747.7</ele>
        <time>2019-08-15T07:38:42Z</time>
      </trkpt>
      <trkpt lat="41.6105780" lon="-5.1351840">
        <ele>747.9</ele>
        <time>2019-08-15T07:38:43Z</time>
      </trkpt>
      <trkpt lat="41.6106030" lon="-5.1352170">
        <ele>748.0</ele>
        <time>2019-08-15T07:38:44Z</time>
      </trkpt>
      <trkpt lat="41.6106280" lon="-5.1352500">
        <ele>748.2</ele>
        <time>2019-08-15T07:38:45Z</time>
      </trkpt>
      <trkpt lat="41.6106530" lon="-5.1352820">
        <ele>748.3</ele>
        <time>2019-08-15T07:38:46Z</time>
      </trkpt>
      <trkpt lat="41.6106770" lon="-5.1353130">
        <ele>748.4</ele>
        <time>2019-08-15T07:38:47Z</time>
      </trkpt>
      <trkpt lat="41.6107010" lon="-5.1353440">
        <ele>748.5</ele>
        <time>2019-08-15T07:38:48Z</time>
      </trkpt>
      <trkpt lat="41.6107240" lon="-5.1353760">
        <ele>748.6</ele>
        <time>2019-08-15T07:38:49Z</time>
      </trkpt>
      <trkpt lat="41.6107480" lon="-5.1354080">
        <ele>748.7</ele>
        <time>2019-08-15T07:38:50Z</time>
      </trkpt>
      <trkpt lat="41.6107710" lon="-5.1354410">
        <ele>748.8</ele>
        <time>2019-08-15T07:38:51Z</time>
      </trkpt>
      <trkpt lat="41.6107940" lon="-5.1354740">
        <ele>748.9</ele>
        <time>2019-08-15T07:38:52Z</time>
      </trkpt>
      <trkpt lat="41.6108170" lon="-5.1355080">
        <ele>749.0</ele>
        <time>2019-08-15T07:38:53Z</time>
      </trkpt>
      <trkpt lat="41.6108390" lon="-5.1355410">
        <ele>749.1</ele>
        <time>2019-08-15T07:38:54Z</time>
      </trkpt>
      <trkpt lat="41.6108620" lon="-5.1355730">
        <ele>749.2</ele>
        <time>2019-08-15T07:38:55Z</time>
      </trkpt>
      <trkpt lat="41.6108850" lon="-5.1356040">
        <ele>749.3</ele>
        <time>2019-08-15T07:38:56Z</time>
      </trkpt>
      <trkpt lat="41.6109070" lon="-5.1356340">
        <ele>749.4</ele>
        <time>2019-08-15T07:38:57Z</time>
      </trkpt>
      <trkpt lat="41.6109290" lon="-5.1356640">
        <ele>749.5</ele>
        <time>2019-08-15T07:38:58Z</time>
      </trkpt>
      <trkpt lat="41.6109500" lon="-5.1356910">
        <ele>749.5</ele>
        <time>2019-08-15T07:38:59Z</time>
      </trkpt>
      <trkpt lat="41.6109720" lon="-5.1357180">
        <ele>749.6</ele>
        <time>2019-08-15T07:39:00Z</time>
      </trkpt>
      <trkpt lat="41.6109910" lon="-5.1357440">
        <ele>749.7</ele>
        <time>2019-08-15T07:39:01Z</time>
      </trkpt>
      <trkpt lat="41.6110100" lon="-5.1357690">
        <ele>749.8</ele>
        <time>2019-08-15T07:39:02Z</time>
      </trkpt>
      <trkpt lat="41.6110470" lon="-5.1358160">
        <ele>750.0</ele>
        <time>2019-08-15T07:39:04Z</time>
      </trkpt>
      <trkpt lat="41.6110830" lon="-5.1358620">
        <ele>750.2</ele>
        <time>2019-08-15T07:39:06Z</time>
      </trkpt>
      <trkpt lat="41.6111210" lon="-5.1359060">
        <ele>750.3</ele>
        <time>2019-08-15T07:39:08Z</time>
      </trkpt>
      <trkpt lat="41.6111590" lon="-5.1359440">
        <ele>750.4</ele>
        <time>2019-08-15T07:39:10Z</time>
      </trkpt>
      <trkpt lat="41.6111960" lon="-5.1359810">
        <ele>750.5</ele>
        <time>2019-08-15T07:39:12Z</time>
      </trkpt>
      <trkpt lat="41.6112340" lon="-5.1360190">
        <ele>750.7</ele>
        <time>2019-08-15T07:39:14Z</time>
      </trkpt>
      <trkpt lat="41.6112730" lon="-5.1360550">
        <ele>750.7</ele>
        <time>2019-08-15T07:39:16Z</time>
      </trkpt>
      <trkpt lat="41.6113130" lon="-5.1360910">
        <ele>750.8</ele>
        <time>2019-08-15T07:39:18Z</time>
      </trkpt>
      <trkpt lat="41.6113550" lon="-5.1361260">
        <ele>750.8</ele>
        <time>2019-08-15T07:39:20Z</time>
      </trkpt>
      <trkpt lat="41.6114000" lon="-5.1361640">
        <ele>750.9</ele>
        <time>2019-08-15T07:39:22Z</time>
      </trkpt>
      <trkpt lat="41.6114240" lon="-5.1361840">
        <ele>750.9</ele>
        <time>2019-08-15T07:39:23Z</time>
      </trkpt>
      <trkpt lat="41.6114500" lon="-5.1362040">
        <ele>750.9</ele>
        <time>2019-08-15T07:39:24Z</time>
      </trkpt>
      <trkpt lat="41.6114760" lon="-5.1362270">
        <ele>750.9</ele>
        <time>2019-08-15T07:39:25Z</time>
      </trkpt>
      <trkpt lat="41.6115040" lon="-5.1362500">
        <ele>751.0</ele>
        <time>2019-08-15T07:39:26Z</time>
      </trkpt>
      <trkpt lat="41.6115330" lon="-5.1362750">
        <ele>751.0</ele>
        <time>2019-08-15T07:39:27Z</time>
      </trkpt>
      <trkpt lat="41.6115640" lon="-5.1363010">
        <ele>751.0</ele>
        <time>2019-08-15T07:39:28Z</time>
      </trkpt>
      <trkpt lat="41.6115960" lon="-5.1363280">
        <ele>751.1</ele>
        <time>2019-08-15T07:39:29Z</time>
      </trkpt>
      <trkpt lat="41.6116290" lon="-5.1363570">
        <ele>751.2</ele>
        <time>2019-08-15T07:39:30Z</time>
      </trkpt>
      <trkpt lat="41.6116630" lon="-5.1363900">
        <ele>751.3</ele>
        <time>2019-08-15T07:39:31Z</time>
      </trkpt>
      <trkpt lat="41.6116990" lon="-5.1364250">
        <ele>751.5</ele>
        <time>2019-08-15T07:39:32Z</time>
      </trkpt>
      <trkpt lat="41.6117340" lon="-5.1364610">
        <ele>751.6</ele>
        <time>2019-08-15T07:39:33Z</time>
      </trkpt>
      <trkpt lat="41.6117690" lon="-5.1364990">
        <ele>751.8</ele>
        <time>2019-08-15T07:39:34Z</time>
      </trkpt>
      <trkpt lat="41.6118010" lon="-5.1365400">
        <ele>751.9</ele>
        <time>2019-08-15T07:39:35Z</time>
      </trkpt>
      <trkpt lat="41.6118310" lon="-5.1365860">
        <ele>752.0</ele>
        <time>2019-08-15T07:39:36Z</time>
      </trkpt>
      <trkpt lat="41.6118580" lon="-5.1366360">
        <ele>752.1</ele>
        <time>2019-08-15T07:39:37Z</time>
      </trkpt>
      <trkpt lat="41.6118830" lon="-5.1366870">
        <ele>752.2</ele>
        <time>2019-08-15T07:39:38Z</time>
      </trkpt>
      <trkpt lat="41.6119050" lon="-5.1367380">
        <ele>752.3</ele>
        <time>2019-08-15T07:39:39Z</time>
      </trkpt>
      <trkpt lat="41.6119270" lon="-5.1367920">
        <ele>752.4</ele>
        <time>2019-08-15T07:39:40Z</time>
      </trkpt>
      <trkpt lat="41.6119470" lon="-5.1368450">
        <ele>752.5</ele>
        <time>2019-08-15T07:39:41Z</time>
      </trkpt>
      <trkpt lat="41.6119660" lon="-5.1369020">
        <ele>752.6</ele>
        <time>2019-08-15T07:39:42Z</time>
      </trkpt>
      <trkpt lat="41.6119850" lon="-5.1369610">
        <ele>752.8</ele>
        <time>2019-08-15T07:39:43Z</time>
      </trkpt>
      <trkpt lat="41.6120030" lon="-5.1370220">
        <ele>752.9</ele>
        <time>2019-08-15T07:39:44Z</time>
      </trkpt>
      <trkpt lat="41.6120210" lon="-5.1370800">
        <ele>753.0</ele>
        <time>2019-08-15T07:39:45Z</time>
      </trkpt>
      <trkpt lat="41.6120390" lon="-5.1371380">
        <ele>753.1</ele>
        <time>2019-08-15T07:39:46Z</time>
      </trkpt>
      <trkpt lat="41.6120550" lon="-5.1371970">
        <ele>753.2</ele>
        <time>2019-08-15T07:39:47Z</time>
      </trkpt>
      <trkpt lat="41.6120730" lon="-5.1372540">
        <ele>753.3</ele>
        <time>2019-08-15T07:39:48Z</time>
      </trkpt>
      <trkpt lat="41.6120900" lon="-5.1373110">
        <ele>753.5</ele>
        <time>2019-08-15T07:39:49Z</time>
      </trkpt>
      <trkpt lat="41.6121070" lon="-5.1373710">
        <ele>753.7</ele>
        <time>2019-08-15T07:39:50Z</time>
      </trkpt>
      <trkpt lat="41.6121240" lon="-5.1374280">
        <ele>754.0</ele>
        <time>2019-08-15T07:39:51Z</time>
      </trkpt>
      <trkpt lat="41.6121400" lon="-5.1374850">
        <ele>754.2</ele>
        <time>2019-08-15T07:39:52Z</time>
      </trkpt>
      <trkpt lat="41.6121560" lon="-5.1375420">
        <ele>754.5</ele>
        <time>2019-08-15T07:39:53Z</time>
      </trkpt>
      <trkpt lat="41.6121720" lon="-5.1375950">
        <ele>754.9</ele>
        <time>2019-08-15T07:39:54Z</time>
      </trkpt>
      <trkpt lat="41.6121880" lon="-5.1376470">
        <ele>755.2</ele>
        <time>2019-08-15T07:39:55Z</time>
      </trkpt>
      <trkpt lat="41.6122030" lon="-5.1376970">
        <ele>755.5</ele>
        <time>2019-08-15T07:39:56Z</time>
      </trkpt>
      <trkpt lat="41.6122180" lon="-5.1377440">
        <ele>755.8</ele>
        <time>2019-08-15T07:39:57Z</time>
      </trkpt>
      <trkpt lat="41.6122330" lon="-5.1377880">
        <ele>756.0</ele>
        <time>2019-08-15T07:39:58Z</time>
      </trkpt>
      <trkpt lat="41.6122470" lon="-5.1378280">
        <ele>756.2</ele>
        <time>2019-08-15T07:39:59Z</time>
      </trkpt>
      <trkpt lat="41.6122600" lon="-5.1378650">
        <ele>756.4</ele>
        <time>2019-08-15T07:40:00Z</time>
      </trkpt>
      <trkpt lat="41.6122720" lon="-5.1379030">
        <ele>756.6</ele>
        <time>2019-08-15T07:40:01Z</time>
      </trkpt>
      <trkpt lat="41.6122830" lon="-5.1379390">
        <ele>756.8</ele>
        <time>2019-08-15T07:40:02Z</time>
      </trkpt>
      <trkpt lat="41.6122940" lon="-5.1379760">
        <ele>756.9</ele>
        <time>2019-08-15T07:40:03Z</time>
      </trkpt>
      <trkpt lat="41.6123050" lon="-5.1380120">
        <ele>757.1</ele>
        <time>2019-08-15T07:40:04Z</time>
      </trkpt>
      <trkpt lat="41.6123160" lon="-5.1380470">
        <ele>757.2</ele>
        <time>2019-08-15T07:40:05Z</time>
      </trkpt>
      <trkpt lat="41.6123270" lon="-5.1380810">
        <ele>757.3</ele>
        <time>2019-08-15T07:40:06Z</time>
      </trkpt>
      <trkpt lat="41.6123380" lon="-5.1381160">
        <ele>757.5</ele>
        <time>2019-08-15T07:40:07Z</time>
      </trkpt>
      <trkpt lat="41.6123490" lon="-5.1381500">
        <ele>757.6</ele>
        <time>2019-08-15T07:40:08Z</time>
      </trkpt>
      <trkpt lat="41.6123600" lon="-5.1381820">
        <ele>757.6</ele>
        <time>2019-08-15T07:40:09Z</time>
      </trkpt>
      <trkpt lat="41.6123820" lon="-5.1382480">
        <ele>757.8</ele>
        <time>2019-08-15T07:40:11Z</time>
      </trkpt>
      <trkpt lat="41.6123940" lon="-5.1382790">
        <ele>757.8</ele>
        <time>2019-08-15T07:40:12Z</time>
      </trkpt>
      <trkpt lat="41.6124190" lon="-5.1383420">
        <ele>758.0</ele>
        <time>2019-08-15T07:40:14Z</time>
      </trkpt>
      <trkpt lat="41.6124450" lon="-5.1384020">
        <ele>758.1</ele>
        <time>2019-08-15T07:40:16Z</time>
      </trkpt>
      <trkpt lat="41.6124750" lon="-5.1384600">
        <ele>758.2</ele>
        <time>2019-08-15T07:40:18Z</time>
      </trkpt>
      <trkpt lat="41.6125080" lon="-5.1385150">
        <ele>758.4</ele>
        <time>2019-08-15T07:40:20Z</time>
      </trkpt>
      <trkpt lat="41.6125460" lon="-5.1385700">
        <ele>758.5</ele>
        <time>2019-08-15T07:40:22Z</time>
      </trkpt>
      <trkpt lat="41.6125670" lon="-5.1385960">
        <ele>758.5</ele>
        <time>2019-08-15T07:40:23Z</time>
      </trkpt>
      <trkpt lat="41.6125890" lon="-5.1386210">
        <ele>758.6</ele>
        <time>2019-08-15T07:40:24Z</time>
      </trkpt>
      <trkpt lat="41.6126120" lon="-5.1386450">
        <ele>758.6</ele>
        <time>2019-08-15T07:40:25Z</time>
      </trkpt>
      <trkpt lat="41.6126350" lon="-5.1386690">
        <ele>758.7</ele>
        <time>2019-08-15T07:40:26Z</time>
      </trkpt>
      <trkpt lat="41.6126580" lon="-5.1386940">
        <ele>758.8</ele>
        <time>2019-08-15T07:40:27Z</time>
      </trkpt>
      <trkpt lat="41.6126810" lon="-5.1387190">
        <ele>758.9</ele>
        <time>2019-08-15T07:40:28Z</time>
      </trkpt>
      <trkpt lat="41.6127050" lon="-5.1387430">
        <ele>759.0</ele>
        <time>2019-08-15T07:40:29Z</time>
      </trkpt>
      <trkpt lat="41.6127270" lon="-5.1387670">
        <ele>759.1</ele>
        <time>2019-08-15T07:40:30Z</time>
      </trkpt>
      <trkpt lat="41.6127500" lon="-5.1387920">
        <ele>759.2</ele>
        <time>2019-08-15T07:40:31Z</time>
      </trkpt>
      <trkpt lat="41.6127720" lon="-5.1388160">
        <ele>759.3</ele>
        <time>2019-08-15T07:40:32Z</time>
      </trkpt>
      <trkpt lat="41.6127950" lon="-5.1388400">
        <ele>759.4</ele>
        <time>2019-08-15T07:40:33Z</time>
      </trkpt>
      <trkpt lat="41.6128170" lon="-5.1388650">
        <ele>759.6</ele>
        <time>2019-08-15T07:40:34Z</time>
      </trkpt>
      <trkpt lat="41.6128400" lon="-5.1388890">
        <ele>759.7</ele>
        <time>2019-08-15T07:40:35Z</time>
      </trkpt>
      <trkpt lat="41.6128620" lon="-5.1389120">
        <ele>759.9</ele>
        <time>2019-08-15T07:40:36Z</time>
      </trkpt>
      <trkpt lat="41.6128850" lon="-5.1389360">
        <ele>760.0</ele>
        <time>2019-08-15T07:40:37Z</time>
      </trkpt>
      <trkpt lat="41.6129070" lon="-5.1389600">
        <ele>760.1</ele>
        <time>2019-08-15T07:40:38Z</time>
      </trkpt>
      <trkpt lat="41.6129280" lon="-5.1389850">
        <ele>760.2</ele>
        <time>2019-08-15T07:40:39Z</time>
      </trkpt>
      <trkpt lat="41.6129500" lon="-5.1390100">
        <ele>760.3</ele>
        <time>2019-08-15T07:40:40Z</time>
      </trkpt>
      <trkpt lat="41.6129700" lon="-5.1390360">
        <ele>760.3</ele>
        <time>2019-08-15T07:40:41Z</time>
      </trkpt>
      <trkpt lat="41.6129920" lon="-5.1390610">
        <ele>760.4</ele>
        <time>2019-08-15T07:40:42Z</time>
      </trkpt>
      <trkpt lat="41.6130130" lon="-5.1390850">
        <ele>760.6</ele>
        <time>2019-08-15T07:40:43Z</time>
      </trkpt>
      <trkpt lat="41.6130350" lon="-5.1391080">
        <ele>760.7</ele>
        <time>2019-08-15T07:40:44Z</time>
      </trkpt>
      <trkpt lat="41.6130550" lon="-5.1391300">
        <ele>760.8</ele>
        <time>2019-08-15T07:40:45Z</time>
      </trkpt>
      <trkpt lat="41.6130950" lon="-5.1391740">
        <ele>760.9</ele>
        <time>2019-08-15T07:40:47Z</time>
      </trkpt>
      <trkpt lat="41.6131310" lon="-5.1392100">
        <ele>761.0</ele>
        <time>2019-08-15T07:40:49Z</time>
      </trkpt>
      <trkpt lat="41.6131660" lon="-5.1392430">
        <ele>761.1</ele>
        <time>2019-08-15T07:40:51Z</time>
      </trkpt>
      <trkpt lat="41.6132010" lon="-5.1392760">
        <ele>761.1</ele>
        <time>2019-08-15T07:40:53Z</time>
      </trkpt>
      <trkpt lat="41.6132340" lon="-5.1393090">
        <ele>761.1</ele>
        <time>2019-08-15T07:40:55Z</time>
      </trkpt>
      <trkpt lat="41.6132670" lon="-5.1393390">
        <ele>761.1</ele>
        <time>2019-08-15T07:40:57Z</time>
      </trkpt>
      <trkpt lat="41.6133030" lon="-5.1393660">
        <ele>761.1</ele>
        <time>2019-08-15T07:40:59Z</time>
      </trkpt>
      <trkpt lat="41.6133390" lon="-5.1393940">
        <ele>761.0</ele>
        <time>2019-08-15T07:41:01Z</time>
      </trkpt>
      <trkpt lat="41.6133770" lon="-5.1394240">
        <ele>760.8</ele>
        <time>2019-08-15T07:41:03Z</time>
      </trkpt>
      <trkpt lat="41.6134160" lon="-5.1394510">
        <ele>760.7</ele>
        <time>2019-08-15T07:41:05Z</time>
      </trkpt>
      <trkpt lat="41.6134560" lon="-5.1394740">
        <ele>760.6</ele>
        <time>2019-08-15T07:41:07Z</time>
      </trkpt>
      <trkpt lat="41.6134970" lon="-5.1394990">
        <ele>760.5</ele>
        <time>2019-08-15T07:41:09Z</time>
      </trkpt>
      <trkpt lat="41.6135370" lon="-5.1395230">
        <ele>760.5</ele>
        <time>2019-08-15T07:41:11Z</time>
      </trkpt>
      <trkpt lat="41.6135760" lon="-5.1395480">
        <ele>760.5</ele>
        <time>2019-08-15T07:41:13Z</time>
      </trkpt>
      <trkpt lat="41.6136140" lon="-5.1395740">
        <ele>760.6</ele>
        <time>2019-08-15T07:41:15Z</time>
      </trkpt>
      <trkpt lat="41.6136520" lon="-5.1396000">
        <ele>760.7</ele>
        <time>2019-08-15T07:41:17Z</time>
      </trkpt>
      <trkpt lat="41.6136920" lon="-5.1396260">
        <ele>760.8</ele>
        <time>2019-08-15T07:41:19Z</time>
      </trkpt>
      <trkpt lat="41.6137310" lon="-5.1396490">
        <ele>761.0</ele>
        <time>2019-08-15T07:41:21Z</time>
      </trkpt>
      <trkpt lat="41.6137710" lon="-5.1396730">
        <ele>761.3</ele>
        <time>2019-08-15T07:41:23Z</time>
      </trkpt>
      <trkpt lat="41.6138100" lon="-5.1396970">
        <ele>761.7</ele>
        <time>2019-08-15T07:41:25Z</time>
      </trkpt>
      <trkpt lat="41.6138510" lon="-5.1397220">
        <ele>762.1</ele>
        <time>2019-08-15T07:41:27Z</time>
      </trkpt>
      <trkpt lat="41.6138910" lon="-5.1397460">
        <ele>762.7</ele>
        <time>2019-08-15T07:41:29Z</time>
      </trkpt>
      <trkpt lat="41.6139290" lon="-5.1397680">
        <ele>763.3</ele>
        <time>2019-08-15T07:41:31Z</time>
      </trkpt>
      <trkpt lat="41.6139670" lon="-5.1397900">
        <ele>763.7</ele>
        <time>2019-08-15T07:41:33Z</time>
      </trkpt>
      <trkpt lat="41.6140050" lon="-5.1398090">
        <ele>764.0</ele>
        <time>2019-08-15T07:41:35Z</time>
      </trkpt>
      <trkpt lat="41.6140400" lon="-5.1398290">
        <ele>764.4</ele>
        <time>2019-08-15T07:41:37Z</time>
      </trkpt>
      <trkpt lat="41.6140750" lon="-5.1398500">
        <ele>764.7</ele>
        <time>2019-08-15T07:41:39Z</time>
      </trkpt>
      <trkpt lat="41.6141090" lon="-5.1398700">
        <ele>765.3</ele>
        <time>2019-08-15T07:41:41Z</time>
      </trkpt>
      <trkpt lat="41.6141420" lon="-5.1398900">
        <ele>765.9</ele>
        <time>2019-08-15T07:41:43Z</time>
      </trkpt>
      <trkpt lat="41.6141700" lon="-5.1399170">
        <ele>766.5</ele>
        <time>2019-08-15T07:41:45Z</time>
      </trkpt>
      <trkpt lat="41.6141990" lon="-5.1399410">
        <ele>766.9</ele>
        <time>2019-08-15T07:41:47Z</time>
      </trkpt>
      <trkpt lat="41.6142290" lon="-5.1399630">
        <ele>767.4</ele>
        <time>2019-08-15T07:41:49Z</time>
      </trkpt>
      <trkpt lat="41.6142600" lon="-5.1399810">
        <ele>768.1</ele>
        <time>2019-08-15T07:41:51Z</time>
      </trkpt>
      <trkpt lat="41.6142910" lon="-5.1399990">
        <ele>768.8</ele>
        <time>2019-08-15T07:41:53Z</time>
      </trkpt>
      <trkpt lat="41.6143240" lon="-5.1400160">
        <ele>769.5</ele>
        <time>2019-08-15T07:41:55Z</time>
      </trkpt>
      <trkpt lat="41.6143560" lon="-5.1400310">
        <ele>770.1</ele>
        <time>2019-08-15T07:41:57Z</time>
      </trkpt>
      <trkpt lat="41.6143880" lon="-5.1400470">
        <ele>770.7</ele>
        <time>2019-08-15T07:41:59Z</time>
      </trkpt>
      <trkpt lat="41.6144220" lon="-5.1400530">
        <ele>771.5</ele>
        <time>2019-08-15T07:42:01Z</time>
      </trkpt>
      <trkpt lat="41.6144550" lon="-5.1400620">
        <ele>772.3</ele>
        <time>2019-08-15T07:42:03Z</time>
      </trkpt>
      <trkpt lat="41.6144880" lon="-5.1400780">
        <ele>773.0</ele>
        <time>2019-08-15T07:42:05Z</time>
      </trkpt>
      <trkpt lat="41.6145210" lon="-5.1400910">
        <ele>773.6</ele>
        <time>2019-08-15T07:42:07Z</time>
      </trkpt>
      <trkpt lat="41.6145520" lon="-5.1401050">
        <ele>774.1</ele>
        <time>2019-08-15T07:42:09Z</time>
      </trkpt>
      <trkpt lat="41.6145840" lon="-5.1401180">
        <ele>774.9</ele>
        <time>2019-08-15T07:42:11Z</time>
      </trkpt>
      <trkpt lat="41.6146160" lon="-5.1401290">
        <ele>775.8</ele>
        <time>2019-08-15T07:42:13Z</time>
      </trkpt>
      <trkpt lat="41.6146480" lon="-5.1401390">
        <ele>776.7</ele>
        <time>2019-08-15T07:42:15Z</time>
      </trkpt>
      <trkpt lat="41.6146770" lon="-5.1401480">
        <ele>777.5</ele>
        <time>2019-08-15T07:42:17Z</time>
      </trkpt>
      <trkpt lat="41.6147060" lon="-5.1401580">
        <ele>778.3</ele>
        <time>2019-08-15T07:42:19Z</time>
      </trkpt>
      <trkpt lat="41.6147350" lon="-5.1401660">
        <ele>779.1</ele>
        <time>2019-08-15T07:42:21Z</time>
      </trkpt>
      <trkpt lat="41.6147650" lon="-5.1401750">
        <ele>779.7</ele>
        <time>2019-08-15T07:42:23Z</time>
      </trkpt>
      <trkpt lat="41.6147950" lon="-5.1401850">
        <ele>780.3</ele>
        <time>2019-08-15T07:42:25Z</time>
      </trkpt>
      <trkpt lat="41.6148220" lon="-5.1401900">
        <ele>780.8</ele>
        <time>2019-08-15T07:42:27Z</time>
      </trkpt>
      <trkpt lat="41.6148510" lon="-5.1401950">
        <ele>781.6</ele>
        <time>2019-08-15T07:42:29Z</time>
      </trkpt>
      <trkpt lat="41.6148800" lon="-5.1402000">
        <ele>782.4</ele>
        <time>2019-08-15T07:42:31Z</time>
      </trkpt>
      <trkpt lat="41.6149090" lon="-5.1402060">
        <ele>783.1</ele>
        <time>2019-08-15T07:42:33Z</time>
      </trkpt>
      <trkpt lat="41.6149400" lon="-5.1402110">
        <ele>783.9</ele>
        <time>2019-08-15T07:42:35Z</time>
      </trkpt>
      <trkpt lat="41.6149690" lon="-5.1402150">
        <ele>784.6</ele>
        <time>2019-08-15T07:42:37Z</time>
      </trkpt>
      <trkpt lat="41.6149970" lon="-5.1402170">
        <ele>785.2</ele>
        <time>2019-08-15T07:42:39Z</time>
      </trkpt>
      <trkpt lat="41.6150260" lon="-5.1402220">
        <ele>785.7</ele>
        <time>2019-08-15T07:42:41Z</time>
      </trkpt>
      <trkpt lat="41.6150540" lon="-5.1402250">
        <ele>786.1</ele>
        <time>2019-08-15T07:42:43Z</time>
      </trkpt>
      <trkpt lat="41.6150830" lon="-5.1402270">
        <ele>786.5</ele>
        <time>2019-08-15T07:42:45Z</time>
      </trkpt>
      <trkpt lat="41.6151120" lon="-5.1402310">
        <ele>786.9</ele>
        <time>2019-08-15T07:42:47Z</time>
      </trkpt>
      <trkpt lat="41.6151390" lon="-5.1402340">
        <ele>787.3</ele>
        <time>2019-08-15T07:42:49Z</time>
      </trkpt>
      <trkpt lat="41.6151680" lon="-5.1402360">
        <ele>787.8</ele>
        <time>2019-08-15T07:42:51Z</time>
      </trkpt>
      <trkpt lat="41.6151970" lon="-5.1402390">
        <ele>788.2</ele>
        <time>2019-08-15T07:42:53Z</time>
      </trkpt>
      <trkpt lat="41.6152260" lon="-5.1402420">
        <ele>788.6</ele>
        <time>2019-08-15T07:42:55Z</time>
      </trkpt>
      <trkpt lat="41.6152540" lon="-5.1402470">
        <ele>788.9</ele>
        <time>2019-08-15T07:42:57Z</time>
      </trkpt>
      <trkpt lat="41.6152820" lon="-5.1402500">
        <ele>789.3</ele>
        <time>2019-08-15T07:42:59Z</time>
      </trkpt>
      <trkpt lat="41.6153110" lon="-5.1402560">
        <ele>789.6</ele>
        <time>2019-08-15T07:43:01Z</time>
      </trkpt>
      <trkpt lat="41.6153400" lon="-5.1402620">
        <ele>790.0</ele>
        <time>2019-08-15T07:43:03Z</time>
      </trkpt>
      <trkpt lat="41.6153700" lon="-5.1402690">
        <ele>790.3</ele>
        <time>2019-08-15T07:43:05Z</time>
      </trkpt>
      <trkpt lat="41.6154010" lon="-5.1402750">
        <ele>790.7</ele>
        <time>2019-08-15T07:43:07Z</time>
      </trkpt>
      <trkpt lat="41.6154330" lon="-5.1402800">
        <ele>791.1</ele>
        <time>2019-08-15T07:43:09Z</time>
      </trkpt>
      <trkpt lat="41.6154660" lon="-5.1402870">
        <ele>791.5</ele>
        <time>2019-08-15T07:43:11Z</time>
      </trkpt>
      <trkpt lat="41.6154980" lon="-5.1402950">
        <ele>791.9</ele>
        <time>2019-08-15T07:43:13Z</time>
      </trkpt>
      <trkpt lat="41.6155300" lon="-5.1402990">
        <ele>792.3</ele>
        <time>2019-08-15T07:43:15Z</time>
      </trkpt>
      <trkpt lat="41.6155610" lon="-5.1403040">
        <ele>792.7</ele>
        <time>2019-08-15T07:43:17Z</time>
      </trkpt>
      <trkpt lat="41.6155930" lon="-5.1403110">
        <ele>793.1</ele>
        <time>2019-08-15T07:43:19Z</time>
      </trkpt>
      <trkpt lat="41.6156260" lon="-5.1403140">
        <ele>793.4</ele>
        <time>2019-08-15T07:43:21Z</time>
      </trkpt>
      <trkpt lat="41.6156620" lon="-5.1403130">
        <ele>793.7</ele>
        <time>2019-08-15T07:43:23Z</time>
      </trkpt>
      <trkpt lat="41.6156840" lon="-5.1403170">
        <ele>793.8</ele>
        <time>2019-08-15T07:43:25Z</time>
      </trkpt>
      <trkpt lat="41.6157570" lon="-5.1403160">
        <ele>794.2</ele>
        <time>2019-08-15T07:44:06Z</time>
      </trkpt>
      <trkpt lat="41.6157940" lon="-5.1403250">
        <ele>794.3</ele>
        <time>2019-08-15T07:44:08Z</time>
      </trkpt>
      <trkpt lat="41.6158350" lon="-5.1403400">
        <ele>794.5</ele>
        <time>2019-08-15T07:44:10Z</time>
      </trkpt>
      <trkpt lat="41.6158790" lon="-5.1403550">
        <ele>794.6</ele>
        <time>2019-08-15T07:44:12Z</time>
      </trkpt>
      <trkpt lat="41.6159270" lon="-5.1403780">
        <ele>794.6</ele>
        <time>2019-08-15T07:44:14Z</time>
      </trkpt>
      <trkpt lat="41.6159770" lon="-5.1403990">
        <ele>794.6</ele>
        <time>2019-08-15T07:44:16Z</time>
      </trkpt>
      <trkpt lat="41.6160340" lon="-5.1404290">
        <ele>794.4</ele>
        <time>2019-08-15T07:44:18Z</time>
      </trkpt>
      <trkpt lat="41.6160660" lon="-5.1404470">
        <ele>794.4</ele>
        <time>2019-08-15T07:44:19Z</time>
      </trkpt>
      <trkpt lat="41.6161000" lon="-5.1404650">
        <ele>794.3</ele>
        <time>2019-08-15T07:44:20Z</time>
      </trkpt>
      <trkpt lat="41.6161380" lon="-5.1404880">
        <ele>794.1</ele>
        <time>2019-08-15T07:44:21Z</time>
      </trkpt>
      <trkpt lat="41.6161800" lon="-5.1405120">
        <ele>794.0</ele>
        <time>2019-08-15T07:44:22Z</time>
      </trkpt>
      <trkpt lat="41.6162260" lon="-5.1405380">
        <ele>793.8</ele>
        <time>2019-08-15T07:44:23Z</time>
      </trkpt>
      <trkpt lat="41.6162740" lon="-5.1405670">
        <ele>793.6</ele>
        <time>2019-08-15T07:44:24Z</time>
      </trkpt>
      <trkpt lat="41.6163240" lon="-5.1405970">
        <ele>793.4</ele>
        <time>2019-08-15T07:44:25Z</time>
      </trkpt>
      <trkpt lat="41.6163730" lon="-5.1406260">
        <ele>793.1</ele>
        <time>2019-08-15T07:44:26Z</time>
      </trkpt>
      <trkpt lat="41.6164220" lon="-5.1406560">
        <ele>792.9</ele>
        <time>2019-08-15T07:44:27Z</time>
      </trkpt>
      <trkpt lat="41.6164710" lon="-5.1406860">
        <ele>792.6</ele>
        <time>2019-08-15T07:44:28Z</time>
      </trkpt>
      <trkpt lat="41.6165210" lon="-5.1407150">
        <ele>792.2</ele>
        <time>2019-08-15T07:44:29Z</time>
      </trkpt>
      <trkpt lat="41.6165700" lon="-5.1407440">
        <ele>791.8</ele>
        <time>2019-08-15T07:44:30Z</time>
      </trkpt>
      <trkpt lat="41.6166190" lon="-5.1407730">
        <ele>791.5</ele>
        <time>2019-08-15T07:44:31Z</time>
      </trkpt>
      <trkpt lat="41.6166680" lon="-5.1408020">
        <ele>791.1</ele>
        <time>2019-08-15T07:44:32Z</time>
      </trkpt>
      <trkpt lat="41.6167180" lon="-5.1408300">
        <ele>790.6</ele>
        <time>2019-08-15T07:44:33Z</time>
      </trkpt>
      <trkpt lat="41.6167670" lon="-5.1408600">
        <ele>790.1</ele>
        <time>2019-08-15T07:44:34Z</time>
      </trkpt>
      <trkpt lat="41.6168170" lon="-5.1408900">
        <ele>789.7</ele>
        <time>2019-08-15T07:44:35Z</time>
      </trkpt>
      <trkpt lat="41.6168680" lon="-5.1409190">
        <ele>789.3</ele>
        <time>2019-08-15T07:44:36Z</time>
      </trkpt>
      <trkpt lat="41.6169180" lon="-5.1409500">
        <ele>788.8</ele>
        <time>2019-08-15T07:44:37Z</time>
      </trkpt>
      <trkpt lat="41.6169680" lon="-5.1409810">
        <ele>788.4</ele>
        <time>2019-08-15T07:44:38Z</time>
      </trkpt>
      <trkpt lat="41.6170180" lon="-5.1410130">
        <ele>788.0</ele>
        <time>2019-08-15T07:44:39Z</time>
      </trkpt>
      <trkpt lat="41.6170650" lon="-5.1410480">
        <ele>787.7</ele>
        <time>2019-08-15T07:44:40Z</time>
      </trkpt>
      <trkpt lat="41.6171110" lon="-5.1410900">
        <ele>787.4</ele>
        <time>2019-08-15T07:44:41Z</time>
      </trkpt>
      <trkpt lat="41.6171540" lon="-5.1411440">
        <ele>787.0</ele>
        <time>2019-08-15T07:44:42Z</time>
      </trkpt>
      <trkpt lat="41.6171930" lon="-5.1412050">
        <ele>786.6</ele>
        <time>2019-08-15T07:44:43Z</time>
      </trkpt>
      <trkpt lat="41.6172290" lon="-5.1412800">
        <ele>786.4</ele>
        <time>2019-08-15T07:44:44Z</time>
      </trkpt>
      <trkpt lat="41.6172640" lon="-5.1413640">
        <ele>786.1</ele>
        <time>2019-08-15T07:44:45Z</time>
      </trkpt>
      <trkpt lat="41.6172980" lon="-5.1414550">
        <ele>785.7</ele>
        <time>2019-08-15T07:44:46Z</time>
      </trkpt>
      <trkpt lat="41.6173330" lon="-5.1415510">
        <ele>785.3</ele>
        <time>2019-08-15T07:44:47Z</time>
      </trkpt>
      <trkpt lat="41.6173700" lon="-5.1416520">
        <ele>784.9</ele>
        <time>2019-08-15T07:44:48Z</time>
      </trkpt>
      <trkpt lat="41.6174070" lon="-5.1417560">
        <ele>784.2</ele>
        <time>2019-08-15T07:44:49Z</time>
      </trkpt>
      <trkpt lat="41.6174450" lon="-5.1418630">
        <ele>783.6</ele>
        <time>2019-08-15T07:44:50Z</time>
      </trkpt>
      <trkpt lat="41.6174830" lon="-5.1419730">
        <ele>782.8</ele>
        <time>2019-08-15T07:44:51Z</time>
      </trkpt>
      <trkpt lat="41.6175230" lon="-5.1420860">
        <ele>782.0</ele>
        <time>2019-08-15T07:44:52Z</time>
      </trkpt>
      <trkpt lat="41.6175620" lon="-5.1422010">
        <ele>780.9</ele>
        <time>2019-08-15T07:44:53Z</time>
      </trkpt>
      <trkpt lat="41.6176030" lon="-5.1423170">
        <ele>780.5</ele>
        <time>2019-08-15T07:44:54Z</time>
      </trkpt>
      <trkpt lat="41.6176440" lon="-5.1424350">
        <ele>780.3</ele>
        <time>2019-08-15T07:44:55Z</time>
      </trkpt>
      <trkpt lat="41.6176860" lon="-5.1425530">
        <ele>780.1</ele>
        <time>2019-08-15T07:44:56Z</time>
      </trkpt>
      <trkpt lat="41.6177270" lon="-5.1426730">
        <ele>779.9</ele>
        <time>2019-08-15T07:44:57Z</time>
      </trkpt>
      <trkpt lat="41.6177690" lon="-5.1427920">
        <ele>779.6</ele>
        <time>2019-08-15T07:44:58Z</time>
      </trkpt>
      <trkpt lat="41.6178090" lon="-5.1429100">
        <ele>779.5</ele>
        <time>2019-08-15T07:44:59Z</time>
      </trkpt>
      <trkpt lat="41.6178490" lon="-5.1430250">
        <ele>779.2</ele>
        <time>2019-08-15T07:45:00Z</time>
      </trkpt>
      <trkpt lat="41.6178900" lon="-5.1431400">
        <ele>779.0</ele>
        <time>2019-08-15T07:45:01Z</time>
      </trkpt>
      <trkpt lat="41.6179290" lon="-5.1432530">
        <ele>778.5</ele>
        <time>2019-08-15T07:45:02Z</time>
      </trkpt>
      <trkpt lat="41.6179690" lon="-5.1433630">
        <ele>778.2</ele>
        <time>2019-08-15T07:45:03Z</time>
      </trkpt>
      <trkpt lat="41.6180060" lon="-5.1434710">
        <ele>777.8</ele>
        <time>2019-08-15T07:45:04Z</time>
      </trkpt>
      <trkpt lat="41.6180430" lon="-5.1435760">
        <ele>777.6</ele>
        <time>2019-08-15T07:45:05Z</time>
      </trkpt>
      <trkpt lat="41.6180800" lon="-5.1436780">
        <ele>777.2</ele>
        <time>2019-08-15T07:45:06Z</time>
      </trkpt>
      <trkpt lat="41.6181150" lon="-5.1437770">
        <ele>776.9</ele>
        <time>2019-08-15T07:45:07Z</time>
      </trkpt>
      <trkpt lat="41.6181500" lon="-5.1438730">
        <ele>776.6</ele>
        <time>2019-08-15T07:45:08Z</time>
      </trkpt>
      <trkpt lat="41.6181840" lon="-5.1439660">
        <ele>776.4</ele>
        <time>2019-08-15T07:45:09Z</time>
      </trkpt>
      <trkpt lat="41.6182190" lon="-5.1440560">
        <ele>776.2</ele>
        <time>2019-08-15T07:45:10Z</time>
      </trkpt>
      <trkpt lat="41.6182530" lon="-5.1441440">
        <ele>776.0</ele>
        <time>2019-08-15T07:45:11Z</time>
      </trkpt>
      <trkpt lat="41.6182860" lon="-5.1442350">
        <ele>775.7</ele>
        <time>2019-08-15T07:45:12Z</time>
      </trkpt>
      <trkpt lat="41.6183200" lon="-5.1443300">
        <ele>775.3</ele>
        <time>2019-08-15T07:45:13Z</time>
      </trkpt>
      <trkpt lat="41.6183540" lon="-5.1444300">
        <ele>774.9</ele>
        <time>2019-08-15T07:45:14Z</time>
      </trkpt>
      <trkpt lat="41.6183910" lon="-5.1445360">
        <ele>774.5</ele>
        <time>2019-08-15T07:45:15Z</time>
      </trkpt>
      <trkpt lat="41.6184290" lon="-5.1446480">
        <ele>773.9</ele>
        <time>2019-08-15T07:45:16Z</time>
      </trkpt>
      <trkpt lat="41.6184670" lon="-5.1447650">
        <ele>773.2</ele>
        <time>2019-08-15T07:45:17Z</time>
      </trkpt>
      <trkpt lat="41.6185050" lon="-5.1448860">
        <ele>772.5</ele>
        <time>2019-08-15T07:45:18Z</time>
      </trkpt>
      <trkpt lat="41.6185450" lon="-5.1450080">
        <ele>771.9</ele>
        <time>2019-08-15T07:45:19Z</time>
      </trkpt>
      <trkpt lat="41.6185880" lon="-5.1451290">
        <ele>771.2</ele>
        <time>2019-08-15T07:45:20Z</time>
      </trkpt>
      <trkpt lat="41.6186310" lon="-5.1452500">
        <ele>770.7</ele>
        <time>2019-08-15T07:45:21Z</time>
      </trkpt>
      <trkpt lat="41.6186750" lon="-5.1453700">
        <ele>770.2</ele>
        <time>2019-08-15T07:45:22Z</time>
      </trkpt>
      <trkpt lat="41.6187200" lon="-5.1454900">
        <ele>769.9</ele>
        <time>2019-08-15T07:45:23Z</time>
      </trkpt>
      <trkpt lat="41.6187650" lon="-5.1456100">
        <ele>769.7</ele>
        <time>2019-08-15T07:45:24Z</time>
      </trkpt>
      <trkpt lat="41.6188120" lon="-5.1457310">
        <ele>769.5</ele>
        <time>2019-08-15T07:45:25Z</time>
      </trkpt>
      <trkpt lat="41.6188570" lon="-5.1458570">
        <ele>769.3</ele>
        <time>2019-08-15T07:45:26Z</time>
      </trkpt>
      <trkpt lat="41.6189030" lon="-5.1459860">
        <ele>769.1</ele>
        <time>2019-08-15T07:45:27Z</time>
      </trkpt>
      <trkpt lat="41.6189500" lon="-5.1461160">
        <ele>768.9</ele>
        <time>2019-08-15T07:45:28Z</time>
      </trkpt>
      <trkpt lat="41.6189970" lon="-5.1462470">
        <ele>768.6</ele>
        <time>2019-08-15T07:45:29Z</time>
      </trkpt>
      <trkpt lat="41.6190440" lon="-5.1463790">
        <ele>768.4</ele>
        <time>2019-08-15T07:45:30Z</time>
      </trkpt>
      <trkpt lat="41.6190910" lon="-5.1465120">
        <ele>768.3</ele>
        <time>2019-08-15T07:45:31Z</time>
      </trkpt>
      <trkpt lat="41.6191390" lon="-5.1466480">
        <ele>768.4</ele>
        <time>2019-08-15T07:45:32Z</time>
      </trkpt>
      <trkpt lat="41.6191880" lon="-5.1467830">
        <ele>768.5</ele>
        <time>2019-08-15T07:45:33Z</time>
      </trkpt>
      <trkpt lat="41.6192360" lon="-5.1469160">
        <ele>768.7</ele>
        <time>2019-08-15T07:45:34Z</time>
      </trkpt>
      <trkpt lat="41.6192880" lon="-5.1470440">
        <ele>768.9</ele>
        <time>2019-08-15T07:45:35Z</time>
      </trkpt>
      <trkpt lat="41.6193380" lon="-5.1471720">
        <ele>769.0</ele>
        <time>2019-08-15T07:45:36Z</time>
      </trkpt>
      <trkpt lat="41.6193850" lon="-5.1473010">
        <ele>769.0</ele>
        <time>2019-08-15T07:45:37Z</time>
      </trkpt>
      <trkpt lat="41.6194280" lon="-5.1474300">
        <ele>768.8</ele>
        <time>2019-08-15T07:45:38Z</time>
      </trkpt>
      <trkpt lat="41.6194700" lon="-5.1475590">
        <ele>768.6</ele>
        <time>2019-08-15T07:45:39Z</time>
      </trkpt>
      <trkpt lat="41.6195140" lon="-5.1476890">
        <ele>768.3</ele>
        <time>2019-08-15T07:45:40Z</time>
      </trkpt>
      <trkpt lat="41.6195600" lon="-5.1478170">
        <ele>767.9</ele>
        <time>2019-08-15T07:45:41Z</time>
      </trkpt>
      <trkpt lat="41.6196070" lon="-5.1479430">
        <ele>767.5</ele>
        <time>2019-08-15T07:45:42Z</time>
      </trkpt>
      <trkpt lat="41.6196530" lon="-5.1480700">
        <ele>767.2</ele>
        <time>2019-08-15T07:45:43Z</time>
      </trkpt>
      <trkpt lat="41.6196990" lon="-5.1481950">
        <ele>766.8</ele>
        <time>2019-08-15T07:45:44Z</time>
      </trkpt>
      <trkpt lat="41.6197470" lon="-5.1483220">
        <ele>766.4</ele>
        <time>2019-08-15T07:45:45Z</time>
      </trkpt>
      <trkpt lat="41.6197950" lon="-5.1484490">
        <ele>766.1</ele>
        <time>2019-08-15T07:45:46Z</time>
      </trkpt>
      <trkpt lat="41.6198420" lon="-5.1485750">
        <ele>765.8</ele>
        <time>2019-08-15T07:45:47Z</time>
      </trkpt>
      <trkpt lat="41.6198880" lon="-5.1486990">
        <ele>765.4</ele>
        <time>2019-08-15T07:45:48Z</time>
      </trkpt>
      <trkpt lat="41.6199320" lon="-5.1488220">
        <ele>765.0</ele>
        <time>2019-08-15T07:45:49Z</time>
      </trkpt>
      <trkpt lat="41.6199760" lon="-5.1489440">
        <ele>764.7</ele>
        <time>2019-08-15T07:45:50Z</time>
      </trkpt>
      <trkpt lat="41.6200200" lon="-5.1490660">
        <ele>764.5</ele>
        <time>2019-08-15T07:45:51Z</time>
      </trkpt>
      <trkpt lat="41.6200630" lon="-5.1491860">
        <ele>764.3</ele>
        <time>2019-08-15T07:45:52Z</time>
      </trkpt>
      <trkpt lat="41.6201070" lon="-5.1493050">
        <ele>764.1</ele>
        <time>2019-08-15T07:45:53Z</time>
      </trkpt>
      <trkpt lat="41.6201500" lon="-5.1494240">
        <ele>763.9</ele>
        <time>2019-08-15T07:45:54Z</time>
      </trkpt>
      <trkpt lat="41.6201910" lon="-5.1495390">
        <ele>763.8</ele>
        <time>2019-08-15T07:45:55Z</time>
      </trkpt>
      <trkpt lat="41.6202330" lon="-5.1496530">
        <ele>763.6</ele>
        <time>2019-08-15T07:45:56Z</time>
      </trkpt>
      <trkpt lat="41.6202740" lon="-5.1497670">
        <ele>763.5</ele>
        <time>2019-08-15T07:45:57Z</time>
      </trkpt>
      <trkpt lat="41.6203150" lon="-5.1498800">
        <ele>763.3</ele>
        <time>2019-08-15T07:45:58Z</time>
      </trkpt>
      <trkpt lat="41.6203550" lon="-5.1499920">
        <ele>763.1</ele>
        <time>2019-08-15T07:45:59Z</time>
      </trkpt>
      <trkpt lat="41.6203950" lon="-5.1501030">
        <ele>762.9</ele>
        <time>2019-08-15T07:46:00Z</time>
      </trkpt>
      <trkpt lat="41.6204350" lon="-5.1502130">
        <ele>762.7</ele>
        <time>2019-08-15T07:46:01Z</time>
      </trkpt>
      <trkpt lat="41.6204750" lon="-5.1503230">
        <ele>762.4</ele>
        <time>2019-08-15T07:46:02Z</time>
      </trkpt>
      <trkpt lat="41.6205130" lon="-5.1504310">
        <ele>762.2</ele>
        <time>2019-08-15T07:46:03Z</time>
      </trkpt>
      <trkpt lat="41.6205510" lon="-5.1505380">
        <ele>761.9</ele>
        <time>2019-08-15T07:46:04Z</time>
      </trkpt>
      <trkpt lat="41.6205870" lon="-5.1506440">
        <ele>761.6</ele>
        <time>2019-08-15T07:46:05Z</time>
      </trkpt>
      <trkpt lat="41.6206250" lon="-5.1507470">
        <ele>761.2</ele>
        <time>2019-08-15T07:46:06Z</time>
      </trkpt>
      <trkpt lat="41.6206620" lon="-5.1508480">
        <ele>760.8</ele>
        <time>2019-08-15T07:46:07Z</time>
      </trkpt>
      <trkpt lat="41.6206970" lon="-5.1509490">
        <ele>760.2</ele>
        <time>2019-08-15T07:46:08Z</time>
      </trkpt>
      <trkpt lat="41.6207330" lon="-5.1510480">
        <ele>759.7</ele>
        <time>2019-08-15T07:46:09Z</time>
      </trkpt>
      <trkpt lat="41.6207680" lon="-5.1511460">
        <ele>759.1</ele>
        <time>2019-08-15T07:46:10Z</time>
      </trkpt>
      <trkpt lat="41.6208030" lon="-5.1512460">
        <ele>758.6</ele>
        <time>2019-08-15T07:46:11Z</time>
      </trkpt>
      <trkpt lat="41.6208370" lon="-5.1513500">
        <ele>757.8</ele>
        <time>2019-08-15T07:46:12Z</time>
      </trkpt>
      <trkpt lat="41.6208730" lon="-5.1514570">
        <ele>757.1</ele>
        <time>2019-08-15T07:46:13Z</time>
      </trkpt>
      <trkpt lat="41.6209120" lon="-5.1515700">
        <ele>756.2</ele>
        <time>2019-08-15T07:46:14Z</time>
      </trkpt>
      <trkpt lat="41.6209530" lon="-5.1516860">
        <ele>755.5</ele>
        <time>2019-08-15T07:46:15Z</time>
      </trkpt>
      <trkpt lat="41.6209970" lon="-5.1518060">
        <ele>754.8</ele>
        <time>2019-08-15T07:46:16Z</time>
      </trkpt>
      <trkpt lat="41.6210420" lon="-5.1519310">
        <ele>754.2</ele>
        <time>2019-08-15T07:46:17Z</time>
      </trkpt>
      <trkpt lat="41.6210900" lon="-5.1520600">
        <ele>753.8</ele>
        <time>2019-08-15T07:46:18Z</time>
      </trkpt>
      <trkpt lat="41.6211370" lon="-5.1521880">
        <ele>753.4</ele>
        <time>2019-08-15T07:46:19Z</time>
      </trkpt>
      <trkpt lat="41.6211820" lon="-5.1523120">
        <ele>753.0</ele>
        <time>2019-08-15T07:46:20Z</time>
      </trkpt>
      <trkpt lat="41.6212240" lon="-5.1524270">
        <ele>752.5</ele>
        <time>2019-08-15T07:46:21Z</time>
      </trkpt>
      <trkpt lat="41.6212630" lon="-5.1525310">
        <ele>752.0</ele>
        <time>2019-08-15T07:46:22Z</time>
      </trkpt>
      <trkpt lat="41.6212960" lon="-5.1526180">
        <ele>751.5</ele>
        <time>2019-08-15T07:46:23Z</time>
      </trkpt>
      <trkpt lat="41.6213210" lon="-5.1526880">
        <ele>751.3</ele>
        <time>2019-08-15T07:46:24Z</time>
      </trkpt>
      <trkpt lat="41.6213390" lon="-5.1527350">
        <ele>751.0</ele>
        <time>2019-08-15T07:46:25Z</time>
      </trkpt>
      <trkpt lat="41.6213500" lon="-5.1527600">
        <ele>750.8</ele>
        <time>2019-08-15T07:46:26Z</time>
      </trkpt>
      <trkpt lat="41.6214040" lon="-5.1528930">
        <ele>750.3</ele>
        <time>2019-08-15T07:46:28Z</time>
      </trkpt>
      <trkpt lat="41.6214480" lon="-5.1530210">
        <ele>749.7</ele>
        <time>2019-08-15T07:46:36Z</time>
      </trkpt>
      <trkpt lat="41.6214910" lon="-5.1531500">
        <ele>749.3</ele>
        <time>2019-08-15T07:46:52Z</time>
      </trkpt>
      <trkpt lat="41.6215340" lon="-5.1532780">
        <ele>749.0</ele>
        <time>2019-08-15T07:46:53Z</time>
      </trkpt>
      <trkpt lat="41.6215620" lon="-5.1533540">
        <ele>748.9</ele>
        <time>2019-08-15T07:46:54Z</time>
      </trkpt>
      <trkpt lat="41.6215920" lon="-5.1534290">
        <ele>748.9</ele>
        <time>2019-08-15T07:46:55Z</time>
      </trkpt>
      <trkpt lat="41.6216210" lon="-5.1535070">
        <ele>748.8</ele>
        <time>2019-08-15T07:46:56Z</time>
      </trkpt>
      <trkpt lat="41.6216520" lon="-5.1535890">
        <ele>748.8</ele>
        <time>2019-08-15T07:46:57Z</time>
      </trkpt>
      <trkpt lat="41.6216830" lon="-5.1536690">
        <ele>748.7</ele>
        <time>2019-08-15T07:46:58Z</time>
      </trkpt>
      <trkpt lat="41.6217120" lon="-5.1537500">
        <ele>748.7</ele>
        <time>2019-08-15T07:46:59Z</time>
      </trkpt>
      <trkpt lat="41.6217410" lon="-5.1538310">
        <ele>748.6</ele>
        <time>2019-08-15T07:47:00Z</time>
      </trkpt>
      <trkpt lat="41.6217700" lon="-5.1539150">
        <ele>748.6</ele>
        <time>2019-08-15T07:47:01Z</time>
      </trkpt>
      <trkpt lat="41.6217980" lon="-5.1539980">
        <ele>748.5</ele>
        <time>2019-08-15T07:47:02Z</time>
      </trkpt>
      <trkpt lat="41.6218260" lon="-5.1540810">
        <ele>748.5</ele>
        <time>2019-08-15T07:47:03Z</time>
      </trkpt>
      <trkpt lat="41.6218540" lon="-5.1541620">
        <ele>748.5</ele>
        <time>2019-08-15T07:47:04Z</time>
      </trkpt>
      <trkpt lat="41.6218840" lon="-5.1542430">
        <ele>748.5</ele>
        <time>2019-08-15T07:47:05Z</time>
      </trkpt>
      <trkpt lat="41.6219120" lon="-5.1543250">
        <ele>748.6</ele>
        <time>2019-08-15T07:47:06Z</time>
      </trkpt>
      <trkpt lat="41.6219410" lon="-5.1544040">
        <ele>748.6</ele>
        <time>2019-08-15T07:47:07Z</time>
      </trkpt>
      <trkpt lat="41.6219690" lon="-5.1544830">
        <ele>748.7</ele>
        <time>2019-08-15T07:47:08Z</time>
      </trkpt>
      <trkpt lat="41.6219970" lon="-5.1545590">
        <ele>748.8</ele>
        <time>2019-08-15T07:47:09Z</time>
      </trkpt>
      <trkpt lat="41.6220230" lon="-5.1546340">
        <ele>748.9</ele>
        <time>2019-08-15T07:47:10Z</time>
      </trkpt>
      <trkpt lat="41.6220500" lon="-5.1547060">
        <ele>748.9</ele>
        <time>2019-08-15T07:47:11Z</time>
      </trkpt>
      <trkpt lat="41.6220760" lon="-5.1547760">
        <ele>749.0</ele>
        <time>2019-08-15T07:47:12Z</time>
      </trkpt>
      <trkpt lat="41.6221010" lon="-5.1548430">
        <ele>749.0</ele>
        <time>2019-08-15T07:47:13Z</time>
      </trkpt>
      <trkpt lat="41.6221250" lon="-5.1549090">
        <ele>749.1</ele>
        <time>2019-08-15T07:47:14Z</time>
      </trkpt>
      <trkpt lat="41.6221480" lon="-5.1549730">
        <ele>749.1</ele>
        <time>2019-08-15T07:47:15Z</time>
      </trkpt>
      <trkpt lat="41.6221690" lon="-5.1550380">
        <ele>749.2</ele>
        <time>2019-08-15T07:47:16Z</time>
      </trkpt>
      <trkpt lat="41.6221910" lon="-5.1551040">
        <ele>749.2</ele>
        <time>2019-08-15T07:47:17Z</time>
      </trkpt>
      <trkpt lat="41.6222170" lon="-5.1551700">
        <ele>749.3</ele>
        <time>2019-08-15T07:47:18Z</time>
      </trkpt>
      <trkpt lat="41.6222450" lon="-5.1552370">
        <ele>749.3</ele>
        <time>2019-08-15T07:47:19Z</time>
      </trkpt>
      <trkpt lat="41.6222740" lon="-5.1553050">
        <ele>749.4</ele>
        <time>2019-08-15T07:47:20Z</time>
      </trkpt>
      <trkpt lat="41.6223010" lon="-5.1553760">
        <ele>749.4</ele>
        <time>2019-08-15T07:47:21Z</time>
      </trkpt>
      <trkpt lat="41.6223280" lon="-5.1554480">
        <ele>749.5</ele>
        <time>2019-08-15T07:47:22Z</time>
      </trkpt>
      <trkpt lat="41.6223540" lon="-5.1555230">
        <ele>749.6</ele>
        <time>2019-08-15T07:47:23Z</time>
      </trkpt>
      <trkpt lat="41.6223800" lon="-5.1555970">
        <ele>749.6</ele>
        <time>2019-08-15T07:47:24Z</time>
      </trkpt>
      <trkpt lat="41.6224060" lon="-5.1556700">
        <ele>749.6</ele>
        <time>2019-08-15T07:47:25Z</time>
      </trkpt>
      <trkpt lat="41.6224310" lon="-5.1557440">
        <ele>749.6</ele>
        <time>2019-08-15T07:47:26Z</time>
      </trkpt>
      <trkpt lat="41.6224570" lon="-5.1558180">
        <ele>749.6</ele>
        <time>2019-08-15T07:47:27Z</time>
      </trkpt>
      <trkpt lat="41.6224820" lon="-5.1558920">
        <ele>749.6</ele>
        <time>2019-08-15T07:47:28Z</time>
      </trkpt>
      <trkpt lat="41.6225090" lon="-5.1559650">
        <ele>749.5</ele>
        <time>2019-08-15T07:47:29Z</time>
      </trkpt>
      <trkpt lat="41.6225360" lon="-5.1560360">
        <ele>749.5</ele>
        <time>2019-08-15T07:47:30Z</time>
      </trkpt>
      <trkpt lat="41.6225620" lon="-5.1561100">
        <ele>749.5</ele>
        <time>2019-08-15T07:47:31Z</time>
      </trkpt>
      <trkpt lat="41.6225870" lon="-5.1561840">
        <ele>749.4</ele>
        <time>2019-08-15T07:47:32Z</time>
      </trkpt>
      <trkpt lat="41.6226110" lon="-5.1562590">
        <ele>749.4</ele>
        <time>2019-08-15T07:47:33Z</time>
      </trkpt>
      <trkpt lat="41.6226380" lon="-5.1563330">
        <ele>749.4</ele>
        <time>2019-08-15T07:47:34Z</time>
      </trkpt>
      <trkpt lat="41.6226650" lon="-5.1564060">
        <ele>749.4</ele>
        <time>2019-08-15T07:47:35Z</time>
      </trkpt>
      <trkpt lat="41.6226910" lon="-5.1564790">
        <ele>749.4</ele>
        <time>2019-08-15T07:47:36Z</time>
      </trkpt>
      <trkpt lat="41.6227170" lon="-5.1565520">
        <ele>749.3</ele>
        <time>2019-08-15T07:47:37Z</time>
      </trkpt>
      <trkpt lat="41.6227440" lon="-5.1566270">
        <ele>749.3</ele>
        <time>2019-08-15T07:47:38Z</time>
      </trkpt>
      <trkpt lat="41.6227710" lon="-5.1567030">
        <ele>749.3</ele>
        <time>2019-08-15T07:47:39Z</time>
      </trkpt>
      <trkpt lat="41.6227970" lon="-5.1567800">
        <ele>749.3</ele>
        <time>2019-08-15T07:47:40Z</time>
      </trkpt>
      <trkpt lat="41.6228230" lon="-5.1568570">
        <ele>749.3</ele>
        <time>2019-08-15T07:47:41Z</time>
      </trkpt>
      <trkpt lat="41.6228490" lon="-5.1569340">
        <ele>749.3</ele>
        <time>2019-08-15T07:47:42Z</time>
      </trkpt>
      <trkpt lat="41.6228750" lon="-5.1570090">
        <ele>749.3</ele>
        <time>2019-08-15T07:47:43Z</time>
      </trkpt>
      <trkpt lat="41.6229020" lon="-5.1570850">
        <ele>749.2</ele>
        <time>2019-08-15T07:47:44Z</time>
      </trkpt>
      <trkpt lat="41.6229300" lon="-5.1571610">
        <ele>749.2</ele>
        <time>2019-08-15T07:47:45Z</time>
      </trkpt>
      <trkpt lat="41.6229580" lon="-5.1572400">
        <ele>749.1</ele>
        <time>2019-08-15T07:47:46Z</time>
      </trkpt>
      <trkpt lat="41.6229870" lon="-5.1573210">
        <ele>749.0</ele>
        <time>2019-08-15T07:47:47Z</time>
      </trkpt>
      <trkpt lat="41.6230160" lon="-5.1574030">
        <ele>748.9</ele>
        <time>2019-08-15T07:47:48Z</time>
      </trkpt>
      <trkpt lat="41.6230460" lon="-5.1574840">
        <ele>748.8</ele>
        <time>2019-08-15T07:47:49Z</time>
      </trkpt>
      <trkpt lat="41.6230770" lon="-5.1575660">
        <ele>748.6</ele>
        <time>2019-08-15T07:47:50Z</time>
      </trkpt>
      <trkpt lat="41.6231070" lon="-5.1576480">
        <ele>748.4</ele>
        <time>2019-08-15T07:47:51Z</time>
      </trkpt>
      <trkpt lat="41.6231380" lon="-5.1577320">
        <ele>748.3</ele>
        <time>2019-08-15T07:47:52Z</time>
      </trkpt>
      <trkpt lat="41.6231690" lon="-5.1578160">
        <ele>748.1</ele>
        <time>2019-08-15T07:47:53Z</time>
      </trkpt>
      <trkpt lat="41.6232000" lon="-5.1579030">
        <ele>748.0</ele>
        <time>2019-08-15T07:47:54Z</time>
      </trkpt>
      <trkpt lat="41.6232310" lon="-5.1579910">
        <ele>747.8</ele>
        <time>2019-08-15T07:47:55Z</time>
      </trkpt>
      <trkpt lat="41.6232630" lon="-5.1580780">
        <ele>747.6</ele>
        <time>2019-08-15T07:47:56Z</time>
      </trkpt>
      <trkpt lat="41.6232940" lon="-5.1581670">
        <ele>747.5</ele>
        <time>2019-08-15T07:47:57Z</time>
      </trkpt>
      <trkpt lat="41.6233250" lon="-5.1582560">
        <ele>747.4</ele>
        <time>2019-08-15T07:47:58Z</time>
      </trkpt>
      <trkpt lat="41.6233560" lon="-5.1583450">
        <ele>747.3</ele>
        <time>2019-08-15T07:47:59Z</time>
      </trkpt>
      <trkpt lat="41.6233870" lon="-5.1584340">
        <ele>747.1</ele>
        <time>2019-08-15T07:48:00Z</time>
      </trkpt>
      <trkpt lat="41.6234170" lon="-5.1585210">
        <ele>747.1</ele>
        <time>2019-08-15T07:48:01Z</time>
      </trkpt>
      <trkpt lat="41.6234470" lon="-5.1586050">
        <ele>746.9</ele>
        <time>2019-08-15T07:48:02Z</time>
      </trkpt>
      <trkpt lat="41.6234780" lon="-5.1586850">
        <ele>746.8</ele>
        <time>2019-08-15T07:48:03Z</time>
      </trkpt>
      <trkpt lat="41.6235070" lon="-5.1587640">
        <ele>746.7</ele>
        <time>2019-08-15T07:48:04Z</time>
      </trkpt>
      <trkpt lat="41.6235340" lon="-5.1588410">
        <ele>746.5</ele>
        <time>2019-08-15T07:48:05Z</time>
      </trkpt>
      <trkpt lat="41.6235620" lon="-5.1589200">
        <ele>746.4</ele>
        <time>2019-08-15T07:48:06Z</time>
      </trkpt>
      <trkpt lat="41.6235890" lon="-5.1589960">
        <ele>746.1</ele>
        <time>2019-08-15T07:48:07Z</time>
      </trkpt>
      <trkpt lat="41.6236120" lon="-5.1590650">
        <ele>746.0</ele>
        <time>2019-08-15T07:48:08Z</time>
      </trkpt>
      <trkpt lat="41.6236400" lon="-5.1591270">
        <ele>745.8</ele>
        <time>2019-08-15T07:48:09Z</time>
      </trkpt>
      <trkpt lat="41.6236630" lon="-5.1591900">
        <ele>745.7</ele>
        <time>2019-08-15T07:48:10Z</time>
      </trkpt>
      <trkpt lat="41.6236860" lon="-5.1592510">
        <ele>745.6</ele>
        <time>2019-08-15T07:48:11Z</time>
      </trkpt>
      <trkpt lat="41.6237090" lon="-5.1593140">
        <ele>745.5</ele>
        <time>2019-08-15T07:48:12Z</time>
      </trkpt>
      <trkpt lat="41.6237280" lon="-5.1593840">
        <ele>745.4</ele>
        <time>2019-08-15T07:48:13Z</time>
      </trkpt>
      <trkpt lat="41.6237520" lon="-5.1594560">
        <ele>745.3</ele>
        <time>2019-08-15T07:48:14Z</time>
      </trkpt>
      <trkpt lat="41.6237770" lon="-5.1595210">
        <ele>745.2</ele>
        <time>2019-08-15T07:48:15Z</time>
      </trkpt>
      <trkpt lat="41.6238040" lon="-5.1595850">
        <ele>745.1</ele>
        <time>2019-08-15T07:48:16Z</time>
      </trkpt>
      <trkpt lat="41.6238290" lon="-5.1596510">
        <ele>745.1</ele>
        <time>2019-08-15T07:48:17Z</time>
      </trkpt>
      <trkpt lat="41.6238540" lon="-5.1597200">
        <ele>745.0</ele>
        <time>2019-08-15T07:48:18Z</time>
      </trkpt>
      <trkpt lat="41.6238800" lon="-5.1597920">
        <ele>744.9</ele>
        <time>2019-08-15T07:48:19Z</time>
      </trkpt>
      <trkpt lat="41.6239080" lon="-5.1598680">
        <ele>744.9</ele>
        <time>2019-08-15T07:48:20Z</time>
      </trkpt>
      <trkpt lat="41.6239370" lon="-5.1599440">
        <ele>744.8</ele>
        <time>2019-08-15T07:48:21Z</time>
      </trkpt>
      <trkpt lat="41.6239670" lon="-5.1600230">
        <ele>744.8</ele>
        <time>2019-08-15T07:48:22Z</time>
      </trkpt>
      <trkpt lat="41.6239980" lon="-5.1601040">
        <ele>744.8</ele>
        <time>2019-08-15T07:48:23Z</time>
      </trkpt>
      <trkpt lat="41.6240280" lon="-5.1601820">
        <ele>744.8</ele>
        <time>2019-08-15T07:48:24Z</time>
      </trkpt>
      <trkpt lat="41.6240590" lon="-5.1602610">
        <ele>744.8</ele>
        <time>2019-08-15T07:48:25Z</time>
      </trkpt>
      <trkpt lat="41.6240910" lon="-5.1603380">
        <ele>744.8</ele>
        <time>2019-08-15T07:48:26Z</time>
      </trkpt>
      <trkpt lat="41.6241240" lon="-5.1604140">
        <ele>744.8</ele>
        <time>2019-08-15T07:48:27Z</time>
      </trkpt>
      <trkpt lat="41.6241540" lon="-5.1604860">
        <ele>744.9</ele>
        <time>2019-08-15T07:48:28Z</time>
      </trkpt>
      <trkpt lat="41.6241800" lon="-5.1605560">
        <ele>744.9</ele>
        <time>2019-08-15T07:48:29Z</time>
      </trkpt>
      <trkpt lat="41.6242040" lon="-5.1606220">
        <ele>745.0</ele>
        <time>2019-08-15T07:48:30Z</time>
      </trkpt>
      <trkpt lat="41.6242270" lon="-5.1606900">
        <ele>745.0</ele>
        <time>2019-08-15T07:48:31Z</time>
      </trkpt>
      <trkpt lat="41.6242500" lon="-5.1607560">
        <ele>745.1</ele>
        <time>2019-08-15T07:48:32Z</time>
      </trkpt>
      <trkpt lat="41.6242760" lon="-5.1608310">
        <ele>745.2</ele>
        <time>2019-08-15T07:48:33Z</time>
      </trkpt>
      <trkpt lat="41.6243030" lon="-5.1609010">
        <ele>745.3</ele>
        <time>2019-08-15T07:48:34Z</time>
      </trkpt>
      <trkpt lat="41.6243280" lon="-5.1609680">
        <ele>745.3</ele>
        <time>2019-08-15T07:48:35Z</time>
      </trkpt>
      <trkpt lat="41.6243580" lon="-5.1610420">
        <ele>745.4</ele>
        <time>2019-08-15T07:48:36Z</time>
      </trkpt>
      <trkpt lat="41.6243840" lon="-5.1611130">
        <ele>745.5</ele>
        <time>2019-08-15T07:48:37Z</time>
      </trkpt>
      <trkpt lat="41.6244100" lon="-5.1611840">
        <ele>745.5</ele>
        <time>2019-08-15T07:48:38Z</time>
      </trkpt>
      <trkpt lat="41.6244350" lon="-5.1612550">
        <ele>745.6</ele>
        <time>2019-08-15T07:48:39Z</time>
      </trkpt>
      <trkpt lat="41.6244610" lon="-5.1613240">
        <ele>745.6</ele>
        <time>2019-08-15T07:48:40Z</time>
      </trkpt>
      <trkpt lat="41.6244870" lon="-5.1613920">
        <ele>745.6</ele>
        <time>2019-08-15T07:48:41Z</time>
      </trkpt>
      <trkpt lat="41.6245130" lon="-5.1614610">
        <ele>745.6</ele>
        <time>2019-08-15T07:48:42Z</time>
      </trkpt>
      <trkpt lat="41.6245380" lon="-5.1615320">
        <ele>745.6</ele>
        <time>2019-08-15T07:48:43Z</time>
      </trkpt>
      <trkpt lat="41.6245640" lon="-5.1616040">
        <ele>745.6</ele>
        <time>2019-08-15T07:48:44Z</time>
      </trkpt>
      <trkpt lat="41.6245910" lon="-5.1616760">
        <ele>745.6</ele>
        <time>2019-08-15T07:48:45Z</time>
      </trkpt>
      <trkpt lat="41.6246180" lon="-5.1617500">
        <ele>745.5</ele>
        <time>2019-08-15T07:48:46Z</time>
      </trkpt>
      <trkpt lat="41.6246440" lon="-5.1618260">
        <ele>745.4</ele>
        <time>2019-08-15T07:48:47Z</time>
      </trkpt>
      <trkpt lat="41.6246710" lon="-5.1619030">
        <ele>745.3</ele>
        <time>2019-08-15T07:48:48Z</time>
      </trkpt>
      <trkpt lat="41.6246980" lon="-5.1619840">
        <ele>745.2</ele>
        <time>2019-08-15T07:48:49Z</time>
      </trkpt>
      <trkpt lat="41.6247260" lon="-5.1620620">
        <ele>745.2</ele>
        <time>2019-08-15T07:48:50Z</time>
      </trkpt>
      <trkpt lat="41.6247530" lon="-5.1621430">
        <ele>745.1</ele>
        <time>2019-08-15T07:48:51Z</time>
      </trkpt>
      <trkpt lat="41.6247790" lon="-5.1622230">
        <ele>745.0</ele>
        <time>2019-08-15T07:48:52Z</time>
      </trkpt>
      <trkpt lat="41.6248080" lon="-5.1623020">
        <ele>744.9</ele>
        <time>2019-08-15T07:48:53Z</time>
      </trkpt>
      <trkpt lat="41.6248390" lon="-5.1623830">
        <ele>744.8</ele>
        <time>2019-08-15T07:48:54Z</time>
      </trkpt>
      <trkpt lat="41.6248700" lon="-5.1624650">
        <ele>744.8</ele>
        <time>2019-08-15T07:48:55Z</time>
      </trkpt>
      <trkpt lat="41.6249030" lon="-5.1625480">
        <ele>744.7</ele>
        <time>2019-08-15T07:48:56Z</time>
      </trkpt>
      <trkpt lat="41.6249350" lon="-5.1626320">
        <ele>744.6</ele>
        <time>2019-08-15T07:48:57Z</time>
      </trkpt>
      <trkpt lat="41.6249660" lon="-5.1627170">
        <ele>744.5</ele>
        <time>2019-08-15T07:48:58Z</time>
      </trkpt>
      <trkpt lat="41.6249960" lon="-5.1628030">
        <ele>744.4</ele>
        <time>2019-08-15T07:48:59Z</time>
      </trkpt>
      <trkpt lat="41.6250280" lon="-5.1628890">
        <ele>744.4</ele>
        <time>2019-08-15T07:49:00Z</time>
      </trkpt>
      <trkpt lat="41.6250610" lon="-5.1629740">
        <ele>744.3</ele>
        <time>2019-08-15T07:49:01Z</time>
      </trkpt>
      <trkpt lat="41.6250920" lon="-5.1630600">
        <ele>744.3</ele>
        <time>2019-08-15T07:49:02Z</time>
      </trkpt>
      <trkpt lat="41.6251230" lon="-5.1631470">
        <ele>744.2</ele>
        <time>2019-08-15T07:49:03Z</time>
      </trkpt>
      <trkpt lat="41.6251540" lon="-5.1632330">
        <ele>744.2</ele>
        <time>2019-08-15T07:49:04Z</time>
      </trkpt>
      <trkpt lat="41.6251850" lon="-5.1633200">
        <ele>744.2</ele>
        <time>2019-08-15T07:49:05Z</time>
      </trkpt>
      <trkpt lat="41.6252170" lon="-5.1634070">
        <ele>744.2</ele>
        <time>2019-08-15T07:49:06Z</time>
      </trkpt>
      <trkpt lat="41.6252470" lon="-5.1634950">
        <ele>744.3</ele>
        <time>2019-08-15T07:49:07Z</time>
      </trkpt>
      <trkpt lat="41.6252740" lon="-5.1635850">
        <ele>744.3</ele>
        <time>2019-08-15T07:49:08Z</time>
      </trkpt>
      <trkpt lat="41.6253030" lon="-5.1636740">
        <ele>744.3</ele>
        <time>2019-08-15T07:49:09Z</time>
      </trkpt>
      <trkpt lat="41.6253340" lon="-5.1637610">
        <ele>744.4</ele>
        <time>2019-08-15T07:49:10Z</time>
      </trkpt>
      <trkpt lat="41.6253660" lon="-5.1638450">
        <ele>744.4</ele>
        <time>2019-08-15T07:49:11Z</time>
      </trkpt>
      <trkpt lat="41.6253970" lon="-5.1639270">
        <ele>744.4</ele>
        <time>2019-08-15T07:49:12Z</time>
      </trkpt>
      <trkpt lat="41.6254280" lon="-5.1640070">
        <ele>744.4</ele>
        <time>2019-08-15T07:49:13Z</time>
      </trkpt>
      <trkpt lat="41.6254600" lon="-5.1640840">
        <ele>744.5</ele>
        <time>2019-08-15T07:49:14Z</time>
      </trkpt>
      <trkpt lat="41.6254910" lon="-5.1641630">
        <ele>744.5</ele>
        <time>2019-08-15T07:49:15Z</time>
      </trkpt>
      <trkpt lat="41.6255190" lon="-5.1642460">
        <ele>744.5</ele>
        <time>2019-08-15T07:49:16Z</time>
      </trkpt>
      <trkpt lat="41.6255450" lon="-5.1643320">
        <ele>744.5</ele>
        <time>2019-08-15T07:49:17Z</time>
      </trkpt>
      <trkpt lat="41.6255720" lon="-5.1644160">
        <ele>744.5</ele>
        <time>2019-08-15T07:49:18Z</time>
      </trkpt>
      <trkpt lat="41.6256020" lon="-5.1644970">
        <ele>744.6</ele>
        <time>2019-08-15T07:49:19Z</time>
      </trkpt>
      <trkpt lat="41.6256330" lon="-5.1645790">
        <ele>744.6</ele>
        <time>2019-08-15T07:49:20Z</time>
      </trkpt>
      <trkpt lat="41.6256630" lon="-5.1646600">
        <ele>744.6</ele>
        <time>2019-08-15T07:49:21Z</time>
      </trkpt>
      <trkpt lat="41.6256920" lon="-5.1647410">
        <ele>744.6</ele>
        <time>2019-08-15T07:49:22Z</time>
      </trkpt>
      <trkpt lat="41.6257200" lon="-5.1648220">
        <ele>744.6</ele>
        <time>2019-08-15T07:49:23Z</time>
      </trkpt>
      <trkpt lat="41.6257480" lon="-5.1649010">
        <ele>744.5</ele>
        <time>2019-08-15T07:49:24Z</time>
      </trkpt>
      <trkpt lat="41.6257750" lon="-5.1649810">
        <ele>744.5</ele>
        <time>2019-08-15T07:49:25Z</time>
      </trkpt>
      <trkpt lat="41.6258030" lon="-5.1650580">
        <ele>744.4</ele>
        <time>2019-08-15T07:49:26Z</time>
      </trkpt>
      <trkpt lat="41.6258320" lon="-5.1651350">
        <ele>744.3</ele>
        <time>2019-08-15T07:49:27Z</time>
      </trkpt>
      <trkpt lat="41.6258600" lon="-5.1652120">
        <ele>744.3</ele>
        <time>2019-08-15T07:49:28Z</time>
      </trkpt>
      <trkpt lat="41.6258880" lon="-5.1652890">
        <ele>744.2</ele>
        <time>2019-08-15T07:49:29Z</time>
      </trkpt>
      <trkpt lat="41.6259140" lon="-5.1653660">
        <ele>744.2</ele>
        <time>2019-08-15T07:49:30Z</time>
      </trkpt>
      <trkpt lat="41.6259400" lon="-5.1654420">
        <ele>744.1</ele>
        <time>2019-08-15T07:49:31Z</time>
      </trkpt>
      <trkpt lat="41.6259670" lon="-5.1655180">
        <ele>744.2</ele>
        <time>2019-08-15T07:49:32Z</time>
      </trkpt>
      <trkpt lat="41.6259940" lon="-5.1655950">
        <ele>744.2</ele>
        <time>2019-08-15T07:49:33Z</time>
      </trkpt>
      <trkpt lat="41.6260210" lon="-5.1656720">
        <ele>744.4</ele>
        <time>2019-08-15T07:49:34Z</time>
      </trkpt>
      <trkpt lat="41.6260480" lon="-5.1657490">
        <ele>744.6</ele>
        <time>2019-08-15T07:49:35Z</time>
      </trkpt>
      <trkpt lat="41.6260760" lon="-5.1658250">
        <ele>744.7</ele>
        <time>2019-08-15T07:49:36Z</time>
      </trkpt>
      <trkpt lat="41.6261050" lon="-5.1659000">
        <ele>744.9</ele>
        <time>2019-08-15T07:49:37Z</time>
      </trkpt>
      <trkpt lat="41.6261340" lon="-5.1659750">
        <ele>745.0</ele>
        <time>2019-08-15T07:49:38Z</time>
      </trkpt>
      <trkpt lat="41.6261630" lon="-5.1660510">
        <ele>745.1</ele>
        <time>2019-08-15T07:49:39Z</time>
      </trkpt>
      <trkpt lat="41.6261910" lon="-5.1661270">
        <ele>745.3</ele>
        <time>2019-08-15T07:49:40Z</time>
      </trkpt>
      <trkpt lat="41.6262180" lon="-5.1662040">
        <ele>745.4</ele>
        <time>2019-08-15T07:49:41Z</time>
      </trkpt>
      <trkpt lat="41.6262450" lon="-5.1662790">
        <ele>745.5</ele>
        <time>2019-08-15T07:49:42Z</time>
      </trkpt>
      <trkpt lat="41.6262730" lon="-5.1663540">
        <ele>745.6</ele>
        <time>2019-08-15T07:49:43Z</time>
      </trkpt>
      <trkpt lat="41.6262980" lon="-5.1664290">
        <ele>745.6</ele>
        <time>2019-08-15T07:49:44Z</time>
      </trkpt>
      <trkpt lat="41.6263180" lon="-5.1665040">
        <ele>745.7</ele>
        <time>2019-08-15T07:49:45Z</time>
      </trkpt>
      <trkpt lat="41.6263320" lon="-5.1665810">
        <ele>745.7</ele>
        <time>2019-08-15T07:49:46Z</time>
      </trkpt>
      <trkpt lat="41.6263400" lon="-5.1666590">
        <ele>745.7</ele>
        <time>2019-08-15T07:49:47Z</time>
      </trkpt>
      <trkpt lat="41.6263450" lon="-5.1667380">
        <ele>745.6</ele>
        <time>2019-08-15T07:49:48Z</time>
      </trkpt>
      <trkpt lat="41.6263500" lon="-5.1668160">
        <ele>745.6</ele>
        <time>2019-08-15T07:49:49Z</time>
      </trkpt>
      <trkpt lat="41.6263560" lon="-5.1668960">
        <ele>745.4</ele>
        <time>2019-08-15T07:49:50Z</time>
      </trkpt>
      <trkpt lat="41.6263620" lon="-5.1669770">
        <ele>745.4</ele>
        <time>2019-08-15T07:49:51Z</time>
      </trkpt>
      <trkpt lat="41.6263680" lon="-5.1670580">
        <ele>745.3</ele>
        <time>2019-08-15T07:49:52Z</time>
      </trkpt>
      <trkpt lat="41.6263750" lon="-5.1671400">
        <ele>745.2</ele>
        <time>2019-08-15T07:49:53Z</time>
      </trkpt>
      <trkpt lat="41.6263840" lon="-5.1672230">
        <ele>745.2</ele>
        <time>2019-08-15T07:49:54Z</time>
      </trkpt>
      <trkpt lat="41.6263930" lon="-5.1673050">
        <ele>745.1</ele>
        <time>2019-08-15T07:49:55Z</time>
      </trkpt>
      <trkpt lat="41.6264030" lon="-5.1673860">
        <ele>745.1</ele>
        <time>2019-08-15T07:49:56Z</time>
      </trkpt>
      <trkpt lat="41.6264140" lon="-5.1674680">
        <ele>745.0</ele>
        <time>2019-08-15T07:49:57Z</time>
      </trkpt>
      <trkpt lat="41.6264260" lon="-5.1675490">
        <ele>745.0</ele>
        <time>2019-08-15T07:49:58Z</time>
      </trkpt>
      <trkpt lat="41.6264390" lon="-5.1676300">
        <ele>744.9</ele>
        <time>2019-08-15T07:49:59Z</time>
      </trkpt>
      <trkpt lat="41.6264540" lon="-5.1677110">
        <ele>744.7</ele>
        <time>2019-08-15T07:50:00Z</time>
      </trkpt>
      <trkpt lat="41.6264690" lon="-5.1677920">
        <ele>744.6</ele>
        <time>2019-08-15T07:50:01Z</time>
      </trkpt>
      <trkpt lat="41.6264840" lon="-5.1678720">
        <ele>744.5</ele>
        <time>2019-08-15T07:50:02Z</time>
      </trkpt>
      <trkpt lat="41.6264990" lon="-5.1679510">
        <ele>744.4</ele>
        <time>2019-08-15T07:50:03Z</time>
      </trkpt>
      <trkpt lat="41.6265160" lon="-5.1680320">
        <ele>744.3</ele>
        <time>2019-08-15T07:50:04Z</time>
      </trkpt>
      <trkpt lat="41.6265340" lon="-5.1681130">
        <ele>744.2</ele>
        <time>2019-08-15T07:50:05Z</time>
      </trkpt>
      <trkpt lat="41.6265540" lon="-5.1681900">
        <ele>744.2</ele>
        <time>2019-08-15T07:50:06Z</time>
      </trkpt>
      <trkpt lat="41.6265750" lon="-5.1682670">
        <ele>744.1</ele>
        <time>2019-08-15T07:50:07Z</time>
      </trkpt>
      <trkpt lat="41.6265950" lon="-5.1683420">
        <ele>744.0</ele>
        <time>2019-08-15T07:50:08Z</time>
      </trkpt>
      <trkpt lat="41.6266160" lon="-5.1684180">
        <ele>743.8</ele>
        <time>2019-08-15T07:50:09Z</time>
      </trkpt>
      <trkpt lat="41.6266390" lon="-5.1684940">
        <ele>743.7</ele>
        <time>2019-08-15T07:50:10Z</time>
      </trkpt>
      <trkpt lat="41.6266630" lon="-5.1685740">
        <ele>743.5</ele>
        <time>2019-08-15T07:50:11Z</time>
      </trkpt>
      <trkpt lat="41.6266860" lon="-5.1686560">
        <ele>743.2</ele>
        <time>2019-08-15T07:50:12Z</time>
      </trkpt>
      <trkpt lat="41.6267080" lon="-5.1687380">
        <ele>743.1</ele>
        <time>2019-08-15T07:50:13Z</time>
      </trkpt>
      <trkpt lat="41.6267310" lon="-5.1688210">
        <ele>742.8</ele>
        <time>2019-08-15T07:50:14Z</time>
      </trkpt>
      <trkpt lat="41.6267560" lon="-5.1689020">
        <ele>742.7</ele>
        <time>2019-08-15T07:50:15Z</time>
      </trkpt>
      <trkpt lat="41.6267820" lon="-5.1689840">
        <ele>742.5</ele>
        <time>2019-08-15T07:50:16Z</time>
      </trkpt>
      <trkpt lat="41.6268080" lon="-5.1690700">
        <ele>742.3</ele>
        <time>2019-08-15T07:50:17Z</time>
      </trkpt>
      <trkpt lat="41.6268330" lon="-5.1691550">
        <ele>742.2</ele>
        <time>2019-08-15T07:50:18Z</time>
      </trkpt>
      <trkpt lat="41.6268580" lon="-5.1692400">
        <ele>742.2</ele>
        <time>2019-08-15T07:50:19Z</time>
      </trkpt>
      <trkpt lat="41.6268830" lon="-5.1693250">
        <ele>742.1</ele>
        <time>2019-08-15T07:50:20Z</time>
      </trkpt>
      <trkpt lat="41.6269080" lon="-5.1694100">
        <ele>742.1</ele>
        <time>2019-08-15T07:50:21Z</time>
      </trkpt>
      <trkpt lat="41.6269340" lon="-5.1694940">
        <ele>742.1</ele>
        <time>2019-08-15T07:50:22Z</time>
      </trkpt>
      <trkpt lat="41.6269580" lon="-5.1695800">
        <ele>742.1</ele>
        <time>2019-08-15T07:50:23Z</time>
      </trkpt>
      <trkpt lat="41.6269820" lon="-5.1696640">
        <ele>742.0</ele>
        <time>2019-08-15T07:50:24Z</time>
      </trkpt>
      <trkpt lat="41.6270060" lon="-5.1697480">
        <ele>742.0</ele>
        <time>2019-08-15T07:50:25Z</time>
      </trkpt>
      <trkpt lat="41.6270300" lon="-5.1698310">
        <ele>741.9</ele>
        <time>2019-08-15T07:50:26Z</time>
      </trkpt>
      <trkpt lat="41.6270550" lon="-5.1699140">
        <ele>741.8</ele>
        <time>2019-08-15T07:50:27Z</time>
      </trkpt>
      <trkpt lat="41.6270800" lon="-5.1699960">
        <ele>741.7</ele>
        <time>2019-08-15T07:50:28Z</time>
      </trkpt>
      <trkpt lat="41.6271050" lon="-5.1700790">
        <ele>741.5</ele>
        <time>2019-08-15T07:50:29Z</time>
      </trkpt>
      <trkpt lat="41.6271290" lon="-5.1701610">
        <ele>741.4</ele>
        <time>2019-08-15T07:50:30Z</time>
      </trkpt>
      <trkpt lat="41.6271510" lon="-5.1702430">
        <ele>741.3</ele>
        <time>2019-08-15T07:50:31Z</time>
      </trkpt>
      <trkpt lat="41.6271750" lon="-5.1703230">
        <ele>741.2</ele>
        <time>2019-08-15T07:50:32Z</time>
      </trkpt>
      <trkpt lat="41.6271980" lon="-5.1704030">
        <ele>741.1</ele>
        <time>2019-08-15T07:50:33Z</time>
      </trkpt>
      <trkpt lat="41.6272200" lon="-5.1704830">
        <ele>740.9</ele>
        <time>2019-08-15T07:50:34Z</time>
      </trkpt>
      <trkpt lat="41.6272410" lon="-5.1705620">
        <ele>740.8</ele>
        <time>2019-08-15T07:50:35Z</time>
      </trkpt>
      <trkpt lat="41.6272620" lon="-5.1706420">
        <ele>740.7</ele>
        <time>2019-08-15T07:50:36Z</time>
      </trkpt>
      <trkpt lat="41.6272830" lon="-5.1707210">
        <ele>740.6</ele>
        <time>2019-08-15T07:50:37Z</time>
      </trkpt>
      <trkpt lat="41.6273040" lon="-5.1708000">
        <ele>740.5</ele>
        <time>2019-08-15T07:50:38Z</time>
      </trkpt>
      <trkpt lat="41.6273250" lon="-5.1708770">
        <ele>740.3</ele>
        <time>2019-08-15T07:50:39Z</time>
      </trkpt>
      <trkpt lat="41.6273440" lon="-5.1709560">
        <ele>740.3</ele>
        <time>2019-08-15T07:50:40Z</time>
      </trkpt>
      <trkpt lat="41.6273610" lon="-5.1710340">
        <ele>740.2</ele>
        <time>2019-08-15T07:50:41Z</time>
      </trkpt>
      <trkpt lat="41.6273770" lon="-5.1711120">
        <ele>740.0</ele>
        <time>2019-08-15T07:50:42Z</time>
      </trkpt>
      <trkpt lat="41.6273910" lon="-5.1711890">
        <ele>739.9</ele>
        <time>2019-08-15T07:50:43Z</time>
      </trkpt>
      <trkpt lat="41.6274040" lon="-5.1712640">
        <ele>739.8</ele>
        <time>2019-08-15T07:50:44Z</time>
      </trkpt>
      <trkpt lat="41.6274140" lon="-5.1713370">
        <ele>739.7</ele>
        <time>2019-08-15T07:50:45Z</time>
      </trkpt>
      <trkpt lat="41.6274220" lon="-5.1714090">
        <ele>739.7</ele>
        <time>2019-08-15T07:50:46Z</time>
      </trkpt>
      <trkpt lat="41.6274320" lon="-5.1714800">
        <ele>739.6</ele>
        <time>2019-08-15T07:50:47Z</time>
      </trkpt>
      <trkpt lat="41.6274460" lon="-5.1715520">
        <ele>739.5</ele>
        <time>2019-08-15T07:50:48Z</time>
      </trkpt>
      <trkpt lat="41.6274630" lon="-5.1716240">
        <ele>739.4</ele>
        <time>2019-08-15T07:50:49Z</time>
      </trkpt>
      <trkpt lat="41.6274840" lon="-5.1716930">
        <ele>739.4</ele>
        <time>2019-08-15T07:50:50Z</time>
      </trkpt>
      <trkpt lat="41.6275080" lon="-5.1717620">
        <ele>739.3</ele>
        <time>2019-08-15T07:50:51Z</time>
      </trkpt>
      <trkpt lat="41.6275360" lon="-5.1718300">
        <ele>739.2</ele>
        <time>2019-08-15T07:50:52Z</time>
      </trkpt>
      <trkpt lat="41.6275640" lon="-5.1718980">
        <ele>739.2</ele>
        <time>2019-08-15T07:50:53Z</time>
      </trkpt>
      <trkpt lat="41.6275930" lon="-5.1719700">
        <ele>739.2</ele>
        <time>2019-08-15T07:50:54Z</time>
      </trkpt>
      <trkpt lat="41.6276230" lon="-5.1720430">
        <ele>739.1</ele>
        <time>2019-08-15T07:50:55Z</time>
      </trkpt>
      <trkpt lat="41.6276530" lon="-5.1721180">
        <ele>739.1</ele>
        <time>2019-08-15T07:50:56Z</time>
      </trkpt>
      <trkpt lat="41.6276830" lon="-5.1721950">
        <ele>739.0</ele>
        <time>2019-08-15T07:50:57Z</time>
      </trkpt>
      <trkpt lat="41.6277150" lon="-5.1722740">
        <ele>739.0</ele>
        <time>2019-08-15T07:50:58Z</time>
      </trkpt>
      <trkpt lat="41.6277470" lon="-5.1723540">
        <ele>739.0</ele>
        <time>2019-08-15T07:50:59Z</time>
      </trkpt>
      <trkpt lat="41.6277810" lon="-5.1724360">
        <ele>739.0</ele>
        <time>2019-08-15T07:51:00Z</time>
      </trkpt>
      <trkpt lat="41.6278150" lon="-5.1725200">
        <ele>739.0</ele>
        <time>2019-08-15T07:51:01Z</time>
      </trkpt>
      <trkpt lat="41.6278490" lon="-5.1726050">
        <ele>738.9</ele>
        <time>2019-08-15T07:51:02Z</time>
      </trkpt>
      <trkpt lat="41.6278820" lon="-5.1726910">
        <ele>738.9</ele>
        <time>2019-08-15T07:51:03Z</time>
      </trkpt>
      <trkpt lat="41.6279160" lon="-5.1727780">
        <ele>738.8</ele>
        <time>2019-08-15T07:51:04Z</time>
      </trkpt>
      <trkpt lat="41.6279500" lon="-5.1728660">
        <ele>738.8</ele>
        <time>2019-08-15T07:51:05Z</time>
      </trkpt>
      <trkpt lat="41.6279860" lon="-5.1729540">
        <ele>738.8</ele>
        <time>2019-08-15T07:51:06Z</time>
      </trkpt>
      <trkpt lat="41.6280210" lon="-5.1730410">
        <ele>738.8</ele>
        <time>2019-08-15T07:51:07Z</time>
      </trkpt>
      <trkpt lat="41.6280570" lon="-5.1731280">
        <ele>738.6</ele>
        <time>2019-08-15T07:51:08Z</time>
      </trkpt>
      <trkpt lat="41.6280930" lon="-5.1732120">
        <ele>738.5</ele>
        <time>2019-08-15T07:51:09Z</time>
      </trkpt>
      <trkpt lat="41.6281300" lon="-5.1732970">
        <ele>738.5</ele>
        <time>2019-08-15T07:51:10Z</time>
      </trkpt>
      <trkpt lat="41.6281690" lon="-5.1733820">
        <ele>738.4</ele>
        <time>2019-08-15T07:51:11Z</time>
      </trkpt>
      <trkpt lat="41.6282080" lon="-5.1734660">
        <ele>738.2</ele>
        <time>2019-08-15T07:51:12Z</time>
      </trkpt>
      <trkpt lat="41.6282480" lon="-5.1735480">
        <ele>737.9</ele>
        <time>2019-08-15T07:51:13Z</time>
      </trkpt>
      <trkpt lat="41.6282920" lon="-5.1736280">
        <ele>737.8</ele>
        <time>2019-08-15T07:51:14Z</time>
      </trkpt>
      <trkpt lat="41.6283370" lon="-5.1737060">
        <ele>737.5</ele>
        <time>2019-08-15T07:51:15Z</time>
      </trkpt>
      <trkpt lat="41.6283850" lon="-5.1737810">
        <ele>737.3</ele>
        <time>2019-08-15T07:51:16Z</time>
      </trkpt>
      <trkpt lat="41.6284360" lon="-5.1738560">
        <ele>737.1</ele>
        <time>2019-08-15T07:51:17Z</time>
      </trkpt>
      <trkpt lat="41.6284870" lon="-5.1739280">
        <ele>736.9</ele>
        <time>2019-08-15T07:51:18Z</time>
      </trkpt>
      <trkpt lat="41.6285360" lon="-5.1739960">
        <ele>736.8</ele>
        <time>2019-08-15T07:51:19Z</time>
      </trkpt>
      <trkpt lat="41.6285870" lon="-5.1740630">
        <ele>736.8</ele>
        <time>2019-08-15T07:51:20Z</time>
      </trkpt>
      <trkpt lat="41.6286360" lon="-5.1741320">
        <ele>736.7</ele>
        <time>2019-08-15T07:51:21Z</time>
      </trkpt>
      <trkpt lat="41.6286840" lon="-5.1742010">
        <ele>736.7</ele>
        <time>2019-08-15T07:51:22Z</time>
      </trkpt>
      <trkpt lat="41.6287290" lon="-5.1742670">
        <ele>736.6</ele>
        <time>2019-08-15T07:51:23Z</time>
      </trkpt>
      <trkpt lat="41.6287770" lon="-5.1743380">
        <ele>736.6</ele>
        <time>2019-08-15T07:51:24Z</time>
      </trkpt>
      <trkpt lat="41.6288230" lon="-5.1744070">
        <ele>736.6</ele>
        <time>2019-08-15T07:51:25Z</time>
      </trkpt>
      <trkpt lat="41.6288630" lon="-5.1744730">
        <ele>736.5</ele>
        <time>2019-08-15T07:51:26Z</time>
      </trkpt>
      <trkpt lat="41.6289080" lon="-5.1745400">
        <ele>736.4</ele>
        <time>2019-08-15T07:51:27Z</time>
      </trkpt>
      <trkpt lat="41.6289530" lon="-5.1746030">
        <ele>736.3</ele>
        <time>2019-08-15T07:51:28Z</time>
      </trkpt>
      <trkpt lat="41.6289980" lon="-5.1746630">
        <ele>736.1</ele>
        <time>2019-08-15T07:51:29Z</time>
      </trkpt>
      <trkpt lat="41.6290420" lon="-5.1747240">
        <ele>735.9</ele>
        <time>2019-08-15T07:51:30Z</time>
      </trkpt>
      <trkpt lat="41.6290860" lon="-5.1747870">
        <ele>735.6</ele>
        <time>2019-08-15T07:51:31Z</time>
      </trkpt>
      <trkpt lat="41.6291290" lon="-5.1748500">
        <ele>735.3</ele>
        <time>2019-08-15T07:51:32Z</time>
      </trkpt>
      <trkpt lat="41.6291700" lon="-5.1749120">
        <ele>734.9</ele>
        <time>2019-08-15T07:51:33Z</time>
      </trkpt>
      <trkpt lat="41.6292110" lon="-5.1749720">
        <ele>734.7</ele>
        <time>2019-08-15T07:51:34Z</time>
      </trkpt>
      <trkpt lat="41.6292500" lon="-5.1750280">
        <ele>734.5</ele>
        <time>2019-08-15T07:51:35Z</time>
      </trkpt>
      <trkpt lat="41.6292880" lon="-5.1750810">
        <ele>734.2</ele>
        <time>2019-08-15T07:51:36Z</time>
      </trkpt>
      <trkpt lat="41.6293250" lon="-5.1751340">
        <ele>734.1</ele>
        <time>2019-08-15T07:51:37Z</time>
      </trkpt>
      <trkpt lat="41.6293640" lon="-5.1751840">
        <ele>733.9</ele>
        <time>2019-08-15T07:51:38Z</time>
      </trkpt>
      <trkpt lat="41.6294020" lon="-5.1752430">
        <ele>733.9</ele>
        <time>2019-08-15T07:51:39Z</time>
      </trkpt>
      <trkpt lat="41.6294420" lon="-5.1753050">
        <ele>733.8</ele>
        <time>2019-08-15T07:51:40Z</time>
      </trkpt>
      <trkpt lat="41.6294810" lon="-5.1753620">
        <ele>733.8</ele>
        <time>2019-08-15T07:51:41Z</time>
      </trkpt>
      <trkpt lat="41.6295220" lon="-5.1754210">
        <ele>733.9</ele>
        <time>2019-08-15T07:51:42Z</time>
      </trkpt>
      <trkpt lat="41.6295630" lon="-5.1754800">
        <ele>734.0</ele>
        <time>2019-08-15T07:51:43Z</time>
      </trkpt>
      <trkpt lat="41.6296050" lon="-5.1755310">
        <ele>734.1</ele>
        <time>2019-08-15T07:51:44Z</time>
      </trkpt>
      <trkpt lat="41.6296430" lon="-5.1755800">
        <ele>734.1</ele>
        <time>2019-08-15T07:51:45Z</time>
      </trkpt>
      <trkpt lat="41.6296750" lon="-5.1756250">
        <ele>734.1</ele>
        <time>2019-08-15T07:51:46Z</time>
      </trkpt>
      <trkpt lat="41.6297030" lon="-5.1756390">
        <ele>734.1</ele>
        <time>2019-08-15T07:51:47Z</time>
      </trkpt>
      <trkpt lat="41.6297300" lon="-5.1756350">
        <ele>734.2</ele>
        <time>2019-08-15T07:51:48Z</time>
      </trkpt>
      <trkpt lat="41.6297730" lon="-5.1756130">
        <ele>734.2</ele>
        <time>2019-08-15T07:51:50Z</time>
      </trkpt>
      <trkpt lat="41.6298270" lon="-5.1755860">
        <ele>734.3</ele>
        <time>2019-08-15T07:51:52Z</time>
      </trkpt>
      <trkpt lat="41.6298610" lon="-5.1755870">
        <ele>734.4</ele>
        <time>2019-08-15T07:51:53Z</time>
      </trkpt>
      <trkpt lat="41.6298900" lon="-5.1756080">
        <ele>734.5</ele>
        <time>2019-08-15T07:51:54Z</time>
      </trkpt>
      <trkpt lat="41.6299280" lon="-5.1756270">
        <ele>734.6</ele>
        <time>2019-08-15T07:51:55Z</time>
      </trkpt>
      <trkpt lat="41.6299640" lon="-5.1756490">
        <ele>734.7</ele>
        <time>2019-08-15T07:51:56Z</time>
      </trkpt>
      <trkpt lat="41.6299970" lon="-5.1756730">
        <ele>734.7</ele>
        <time>2019-08-15T07:51:57Z</time>
      </trkpt>
      <trkpt lat="41.6300280" lon="-5.1756980">
        <ele>734.9</ele>
        <time>2019-08-15T07:51:58Z</time>
      </trkpt>
      <trkpt lat="41.6300600" lon="-5.1757230">
        <ele>735.0</ele>
        <time>2019-08-15T07:51:59Z</time>
      </trkpt>
      <trkpt lat="41.6300930" lon="-5.1757440">
        <ele>735.1</ele>
        <time>2019-08-15T07:52:00Z</time>
      </trkpt>
      <trkpt lat="41.6301280" lon="-5.1757660">
        <ele>735.2</ele>
        <time>2019-08-15T07:52:01Z</time>
      </trkpt>
      <trkpt lat="41.6301630" lon="-5.1757800">
        <ele>735.3</ele>
        <time>2019-08-15T07:52:02Z</time>
      </trkpt>
      <trkpt lat="41.6301970" lon="-5.1757940">
        <ele>735.4</ele>
        <time>2019-08-15T07:52:03Z</time>
      </trkpt>
      <trkpt lat="41.6302290" lon="-5.1758110">
        <ele>735.5</ele>
        <time>2019-08-15T07:52:04Z</time>
      </trkpt>
      <trkpt lat="41.6302590" lon="-5.1758270">
        <ele>735.6</ele>
        <time>2019-08-15T07:52:05Z</time>
      </trkpt>
      <trkpt lat="41.6302860" lon="-5.1758490">
        <ele>735.7</ele>
        <time>2019-08-15T07:52:06Z</time>
      </trkpt>
      <trkpt lat="41.6303130" lon="-5.1758720">
        <ele>735.8</ele>
        <time>2019-08-15T07:52:07Z</time>
      </trkpt>
      <trkpt lat="41.6303360" lon="-5.1758910">
        <ele>735.8</ele>
        <time>2019-08-15T07:52:08Z</time>
      </trkpt>
      <trkpt lat="41.6303620" lon="-5.1759100">
        <ele>735.9</ele>
        <time>2019-08-15T07:52:09Z</time>
      </trkpt>
      <trkpt lat="41.6303910" lon="-5.1759320">
        <ele>736.0</ele>
        <time>2019-08-15T07:52:10Z</time>
      </trkpt>
      <trkpt lat="41.6304190" lon="-5.1759590">
        <ele>736.0</ele>
        <time>2019-08-15T07:52:11Z</time>
      </trkpt>
      <trkpt lat="41.6304460" lon="-5.1759710">
        <ele>736.1</ele>
        <time>2019-08-15T07:52:12Z</time>
      </trkpt>
      <trkpt lat="41.6304710" lon="-5.1759890">
        <ele>736.2</ele>
        <time>2019-08-15T07:52:13Z</time>
      </trkpt>
      <trkpt lat="41.6304940" lon="-5.1760070">
        <ele>736.2</ele>
        <time>2019-08-15T07:52:14Z</time>
      </trkpt>
      <trkpt lat="41.6305370" lon="-5.1760370">
        <ele>736.3</ele>
        <time>2019-08-15T07:52:16Z</time>
      </trkpt>
      <trkpt lat="41.6305820" lon="-5.1760510">
        <ele>736.4</ele>
        <time>2019-08-15T07:52:18Z</time>
      </trkpt>
      <trkpt lat="41.6306220" lon="-5.1760760">
        <ele>736.5</ele>
        <time>2019-08-15T07:52:20Z</time>
      </trkpt>
      <trkpt lat="41.6306630" lon="-5.1761060">
        <ele>736.6</ele>
        <time>2019-08-15T07:52:22Z</time>
      </trkpt>
      <trkpt lat="41.6307080" lon="-5.1761360">
        <ele>736.7</ele>
        <time>2019-08-15T07:52:24Z</time>
      </trkpt>
      <trkpt lat="41.6307540" lon="-5.1761660">
        <ele>736.8</ele>
        <time>2019-08-15T07:52:26Z</time>
      </trkpt>
      <trkpt lat="41.6307960" lon="-5.1762030">
        <ele>736.8</ele>
        <time>2019-08-15T07:52:28Z</time>
      </trkpt>
      <trkpt lat="41.6308400" lon="-5.1762320">
        <ele>736.9</ele>
        <time>2019-08-15T07:52:30Z</time>
      </trkpt>
      <trkpt lat="41.6308800" lon="-5.1762640">
        <ele>737.1</ele>
        <time>2019-08-15T07:52:32Z</time>
      </trkpt>
      <trkpt lat="41.6309430" lon="-5.1763170">
        <ele>737.2</ele>
        <time>2019-08-15T07:52:34Z</time>
      </trkpt>
      <trkpt lat="41.6309790" lon="-5.1763480">
        <ele>737.2</ele>
        <time>2019-08-15T07:52:35Z</time>
      </trkpt>
      <trkpt lat="41.6310100" lon="-5.1763780">
        <ele>737.4</ele>
        <time>2019-08-15T07:52:36Z</time>
      </trkpt>
      <trkpt lat="41.6310380" lon="-5.1764080">
        <ele>737.6</ele>
        <time>2019-08-15T07:52:37Z</time>
      </trkpt>
      <trkpt lat="41.6310670" lon="-5.1764390">
        <ele>737.7</ele>
        <time>2019-08-15T07:52:38Z</time>
      </trkpt>
      <trkpt lat="41.6310950" lon="-5.1764700">
        <ele>737.9</ele>
        <time>2019-08-15T07:52:39Z</time>
      </trkpt>
      <trkpt lat="41.6311250" lon="-5.1764990">
        <ele>738.0</ele>
        <time>2019-08-15T07:52:40Z</time>
      </trkpt>
      <trkpt lat="41.6311560" lon="-5.1765260">
        <ele>738.2</ele>
        <time>2019-08-15T07:52:41Z</time>
      </trkpt>
      <trkpt lat="41.6311880" lon="-5.1765510">
        <ele>738.3</ele>
        <time>2019-08-15T07:52:42Z</time>
      </trkpt>
      <trkpt lat="41.6312200" lon="-5.1765780">
        <ele>738.4</ele>
        <time>2019-08-15T07:52:43Z</time>
      </trkpt>
      <trkpt lat="41.6312530" lon="-5.1766030">
        <ele>738.6</ele>
        <time>2019-08-15T07:52:44Z</time>
      </trkpt>
      <trkpt lat="41.6312860" lon="-5.1766270">
        <ele>738.7</ele>
        <time>2019-08-15T07:52:45Z</time>
      </trkpt>
      <trkpt lat="41.6313180" lon="-5.1766510">
        <ele>738.8</ele>
        <time>2019-08-15T07:52:46Z</time>
      </trkpt>
      <trkpt lat="41.6313510" lon="-5.1766740">
        <ele>739.0</ele>
        <time>2019-08-15T07:52:47Z</time>
      </trkpt>
      <trkpt lat="41.6313830" lon="-5.1766950">
        <ele>739.1</ele>
        <time>2019-08-15T07:52:48Z</time>
      </trkpt>
      <trkpt lat="41.6314150" lon="-5.1767150">
        <ele>739.3</ele>
        <time>2019-08-15T07:52:49Z</time>
      </trkpt>
      <trkpt lat="41.6314480" lon="-5.1767330">
        <ele>739.6</ele>
        <time>2019-08-15T07:52:50Z</time>
      </trkpt>
      <trkpt lat="41.6314820" lon="-5.1767480">
        <ele>739.8</ele>
        <time>2019-08-15T07:52:51Z</time>
      </trkpt>
      <trkpt lat="41.6315160" lon="-5.1767640">
        <ele>740.1</ele>
        <time>2019-08-15T07:52:52Z</time>
      </trkpt>
      <trkpt lat="41.6315500" lon="-5.1767820">
        <ele>740.3</ele>
        <time>2019-08-15T07:52:53Z</time>
      </trkpt>
      <trkpt lat="41.6315840" lon="-5.1767980">
        <ele>740.4</ele>
        <time>2019-08-15T07:52:54Z</time>
      </trkpt>
      <trkpt lat="41.6316190" lon="-5.1768160">
        <ele>740.6</ele>
        <time>2019-08-15T07:52:55Z</time>
      </trkpt>
      <trkpt lat="41.6316530" lon="-5.1768350">
        <ele>740.8</ele>
        <time>2019-08-15T07:52:56Z</time>
      </trkpt>
      <trkpt lat="41.6316860" lon="-5.1768540">
        <ele>741.0</ele>
        <time>2019-08-15T07:52:57Z</time>
      </trkpt>
      <trkpt lat="41.6317200" lon="-5.1768730">
        <ele>741.2</ele>
        <time>2019-08-15T07:52:58Z</time>
      </trkpt>
      <trkpt lat="41.6317530" lon="-5.1768920">
        <ele>741.4</ele>
        <time>2019-08-15T07:52:59Z</time>
      </trkpt>
      <trkpt lat="41.6317870" lon="-5.1769130">
        <ele>741.6</ele>
        <time>2019-08-15T07:53:00Z</time>
      </trkpt>
      <trkpt lat="41.6318200" lon="-5.1769350">
        <ele>741.8</ele>
        <time>2019-08-15T07:53:01Z</time>
      </trkpt>
      <trkpt lat="41.6318540" lon="-5.1769570">
        <ele>741.9</ele>
        <time>2019-08-15T07:53:02Z</time>
      </trkpt>
      <trkpt lat="41.6318870" lon="-5.1769760">
        <ele>742.1</ele>
        <time>2019-08-15T07:53:03Z</time>
      </trkpt>
      <trkpt lat="41.6319230" lon="-5.1769940">
        <ele>742.4</ele>
        <time>2019-08-15T07:53:04Z</time>
      </trkpt>
      <trkpt lat="41.6319580" lon="-5.1770120">
        <ele>742.7</ele>
        <time>2019-08-15T07:53:05Z</time>
      </trkpt>
      <trkpt lat="41.6319920" lon="-5.1770340">
        <ele>743.1</ele>
        <time>2019-08-15T07:53:06Z</time>
      </trkpt>
      <trkpt lat="41.6320250" lon="-5.1770560">
        <ele>743.4</ele>
        <time>2019-08-15T07:53:07Z</time>
      </trkpt>
      <trkpt lat="41.6320580" lon="-5.1770790">
        <ele>743.6</ele>
        <time>2019-08-15T07:53:08Z</time>
      </trkpt>
      <trkpt lat="41.6320910" lon="-5.1771010">
        <ele>743.8</ele>
        <time>2019-08-15T07:53:09Z</time>
      </trkpt>
      <trkpt lat="41.6321240" lon="-5.1771210">
        <ele>744.0</ele>
        <time>2019-08-15T07:53:10Z</time>
      </trkpt>
      <trkpt lat="41.6321580" lon="-5.1771410">
        <ele>744.2</ele>
        <time>2019-08-15T07:53:11Z</time>
      </trkpt>
      <trkpt lat="41.6321920" lon="-5.1771600">
        <ele>744.5</ele>
        <time>2019-08-15T07:53:12Z</time>
      </trkpt>
      <trkpt lat="41.6322230" lon="-5.1771810">
        <ele>744.7</ele>
        <time>2019-08-15T07:53:13Z</time>
      </trkpt>
      <trkpt lat="41.6322540" lon="-5.1772000">
        <ele>745.0</ele>
        <time>2019-08-15T07:53:14Z</time>
      </trkpt>
      <trkpt lat="41.6322870" lon="-5.1772150">
        <ele>745.2</ele>
        <time>2019-08-15T07:53:15Z</time>
      </trkpt>
      <trkpt lat="41.6323190" lon="-5.1772260">
        <ele>745.4</ele>
        <time>2019-08-15T07:53:16Z</time>
      </trkpt>
      <trkpt lat="41.6323510" lon="-5.1772350">
        <ele>745.5</ele>
        <time>2019-08-15T07:53:17Z</time>
      </trkpt>
      <trkpt lat="41.6323820" lon="-5.1772460">
        <ele>745.6</ele>
        <time>2019-08-15T07:53:18Z</time>
      </trkpt>
      <trkpt lat="41.6324130" lon="-5.1772570">
        <ele>745.7</ele>
        <time>2019-08-15T07:53:19Z</time>
      </trkpt>
      <trkpt lat="41.6324430" lon="-5.1772660">
        <ele>745.8</ele>
        <time>2019-08-15T07:53:20Z</time>
      </trkpt>
      <trkpt lat="41.6324730" lon="-5.1772730">
        <ele>745.9</ele>
        <time>2019-08-15T07:53:21Z</time>
      </trkpt>
      <trkpt lat="41.6325020" lon="-5.1772790">
        <ele>746.0</ele>
        <time>2019-08-15T07:53:22Z</time>
      </trkpt>
      <trkpt lat="41.6325310" lon="-5.1772850">
        <ele>746.1</ele>
        <time>2019-08-15T07:53:23Z</time>
      </trkpt>
      <trkpt lat="41.6325600" lon="-5.1772890">
        <ele>746.1</ele>
        <time>2019-08-15T07:53:24Z</time>
      </trkpt>
      <trkpt lat="41.6325880" lon="-5.1772940">
        <ele>746.2</ele>
        <time>2019-08-15T07:53:25Z</time>
      </trkpt>
      <trkpt lat="41.6326140" lon="-5.1773020">
        <ele>746.2</ele>
        <time>2019-08-15T07:53:26Z</time>
      </trkpt>
      <trkpt lat="41.6326400" lon="-5.1773100">
        <ele>746.3</ele>
        <time>2019-08-15T07:53:27Z</time>
      </trkpt>
      <trkpt lat="41.6326890" lon="-5.1773330">
        <ele>746.2</ele>
        <time>2019-08-15T07:53:29Z</time>
      </trkpt>
      <trkpt lat="41.6327270" lon="-5.1773730">
        <ele>746.1</ele>
        <time>2019-08-15T07:53:31Z</time>
      </trkpt>
      <trkpt lat="41.6327560" lon="-5.1774220">
        <ele>745.9</ele>
        <time>2019-08-15T07:53:33Z</time>
      </trkpt>
      <trkpt lat="41.6327790" lon="-5.1774680">
        <ele>745.8</ele>
        <time>2019-08-15T07:53:35Z</time>
      </trkpt>
      <trkpt lat="41.6327990" lon="-5.1774980">
        <ele>745.8</ele>
        <time>2019-08-15T07:53:37Z</time>
      </trkpt>
      <trkpt lat="41.6328090" lon="-5.1775040">
        <ele>745.7</ele>
        <time>2019-08-15T07:53:41Z</time>
      </trkpt>
      <trkpt lat="41.6328530" lon="-5.1775390">
        <ele>745.6</ele>
        <time>2019-08-15T07:53:46Z</time>
      </trkpt>
      <trkpt lat="41.6328600" lon="-5.1775490">
        <ele>745.6</ele>
        <time>2019-08-15T07:53:50Z</time>
      </trkpt>
      <trkpt lat="41.6329200" lon="-5.1777140">
        <ele>745.1</ele>
        <time>2019-08-15T07:55:42Z</time>
      </trkpt>
      <trkpt lat="41.6329400" lon="-5.1777460">
        <ele>744.9</ele>
        <time>2019-08-15T07:55:43Z</time>
      </trkpt>
      <trkpt lat="41.6329620" lon="-5.1777780">
        <ele>744.6</ele>
        <time>2019-08-15T07:55:44Z</time>
      </trkpt>
      <trkpt lat="41.6329840" lon="-5.1778120">
        <ele>744.5</ele>
        <time>2019-08-15T07:55:45Z</time>
      </trkpt>
      <trkpt lat="41.6330070" lon="-5.1778490">
        <ele>744.4</ele>
        <time>2019-08-15T07:55:46Z</time>
      </trkpt>
      <trkpt lat="41.6330290" lon="-5.1778920">
        <ele>744.3</ele>
        <time>2019-08-15T07:55:47Z</time>
      </trkpt>
      <trkpt lat="41.6330490" lon="-5.1779390">
        <ele>744.1</ele>
        <time>2019-08-15T07:55:48Z</time>
      </trkpt>
      <trkpt lat="41.6330690" lon="-5.1779880">
        <ele>744.0</ele>
        <time>2019-08-15T07:55:49Z</time>
      </trkpt>
      <trkpt lat="41.6330900" lon="-5.1780430">
        <ele>743.8</ele>
        <time>2019-08-15T07:55:50Z</time>
      </trkpt>
      <trkpt lat="41.6331090" lon="-5.1781030">
        <ele>743.7</ele>
        <time>2019-08-15T07:55:51Z</time>
      </trkpt>
      <trkpt lat="41.6331300" lon="-5.1781680">
        <ele>743.5</ele>
        <time>2019-08-15T07:55:52Z</time>
      </trkpt>
      <trkpt lat="41.6331560" lon="-5.1782370">
        <ele>743.3</ele>
        <time>2019-08-15T07:55:53Z</time>
      </trkpt>
      <trkpt lat="41.6331830" lon="-5.1783120">
        <ele>743.1</ele>
        <time>2019-08-15T07:55:54Z</time>
      </trkpt>
      <trkpt lat="41.6332120" lon="-5.1783910">
        <ele>742.8</ele>
        <time>2019-08-15T07:55:55Z</time>
      </trkpt>
      <trkpt lat="41.6332420" lon="-5.1784750">
        <ele>742.6</ele>
        <time>2019-08-15T07:55:56Z</time>
      </trkpt>
      <trkpt lat="41.6332710" lon="-5.1785620">
        <ele>742.3</ele>
        <time>2019-08-15T07:55:57Z</time>
      </trkpt>
      <trkpt lat="41.6333010" lon="-5.1786530">
        <ele>742.1</ele>
        <time>2019-08-15T07:55:58Z</time>
      </trkpt>
      <trkpt lat="41.6333330" lon="-5.1787460">
        <ele>741.8</ele>
        <time>2019-08-15T07:55:59Z</time>
      </trkpt>
      <trkpt lat="41.6333670" lon="-5.1788400">
        <ele>741.6</ele>
        <time>2019-08-15T07:56:00Z</time>
      </trkpt>
      <trkpt lat="41.6334010" lon="-5.1789350">
        <ele>741.2</ele>
        <time>2019-08-15T07:56:01Z</time>
      </trkpt>
      <trkpt lat="41.6334350" lon="-5.1790290">
        <ele>740.8</ele>
        <time>2019-08-15T07:56:02Z</time>
      </trkpt>
      <trkpt lat="41.6334710" lon="-5.1791200">
        <ele>740.5</ele>
        <time>2019-08-15T07:56:03Z</time>
      </trkpt>
      <trkpt lat="41.6335050" lon="-5.1792100">
        <ele>740.1</ele>
        <time>2019-08-15T07:56:04Z</time>
      </trkpt>
      <trkpt lat="41.6335390" lon="-5.1792990">
        <ele>739.5</ele>
        <time>2019-08-15T07:56:05Z</time>
      </trkpt>
      <trkpt lat="41.6335760" lon="-5.1793850">
        <ele>739.1</ele>
        <time>2019-08-15T07:56:06Z</time>
      </trkpt>
      <trkpt lat="41.6336120" lon="-5.1794680">
        <ele>738.7</ele>
        <time>2019-08-15T07:56:07Z</time>
      </trkpt>
      <trkpt lat="41.6336490" lon="-5.1795510">
        <ele>738.2</ele>
        <time>2019-08-15T07:56:08Z</time>
      </trkpt>
      <trkpt lat="41.6336850" lon="-5.1796320">
        <ele>738.0</ele>
        <time>2019-08-15T07:56:09Z</time>
      </trkpt>
      <trkpt lat="41.6337200" lon="-5.1797120">
        <ele>738.0</ele>
        <time>2019-08-15T07:56:10Z</time>
      </trkpt>
      <trkpt lat="41.6337560" lon="-5.1797930">
        <ele>737.8</ele>
        <time>2019-08-15T07:56:11Z</time>
      </trkpt>
      <trkpt lat="41.6337910" lon="-5.1798710">
        <ele>737.6</ele>
        <time>2019-08-15T07:56:12Z</time>
      </trkpt>
      <trkpt lat="41.6338250" lon="-5.1799510">
        <ele>737.4</ele>
        <time>2019-08-15T07:56:13Z</time>
      </trkpt>
      <trkpt lat="41.6338620" lon="-5.1800290">
        <ele>737.1</ele>
        <time>2019-08-15T07:56:14Z</time>
      </trkpt>
      <trkpt lat="41.6338990" lon="-5.1801060">
        <ele>737.0</ele>
        <time>2019-08-15T07:56:15Z</time>
      </trkpt>
      <trkpt lat="41.6339370" lon="-5.1801810">
        <ele>737.0</ele>
        <time>2019-08-15T07:56:16Z</time>
      </trkpt>
      <trkpt lat="41.6339730" lon="-5.1802550">
        <ele>736.9</ele>
        <time>2019-08-15T07:56:17Z</time>
      </trkpt>
      <trkpt lat="41.6340120" lon="-5.1803270">
        <ele>736.9</ele>
        <time>2019-08-15T07:56:18Z</time>
      </trkpt>
      <trkpt lat="41.6340520" lon="-5.1803980">
        <ele>736.8</ele>
        <time>2019-08-15T07:56:19Z</time>
      </trkpt>
      <trkpt lat="41.6340970" lon="-5.1804650">
        <ele>736.8</ele>
        <time>2019-08-15T07:56:20Z</time>
      </trkpt>
      <trkpt lat="41.6341430" lon="-5.1805270">
        <ele>736.8</ele>
        <time>2019-08-15T07:56:21Z</time>
      </trkpt>
      <trkpt lat="41.6341910" lon="-5.1805820">
        <ele>736.7</ele>
        <time>2019-08-15T07:56:22Z</time>
      </trkpt>
      <trkpt lat="41.6342410" lon="-5.1806290">
        <ele>736.7</ele>
        <time>2019-08-15T07:56:23Z</time>
      </trkpt>
      <trkpt lat="41.6342950" lon="-5.1806740">
        <ele>736.6</ele>
        <time>2019-08-15T07:56:24Z</time>
      </trkpt>
      <trkpt lat="41.6343480" lon="-5.1807170">
        <ele>736.6</ele>
        <time>2019-08-15T07:56:25Z</time>
      </trkpt>
      <trkpt lat="41.6344010" lon="-5.1807590">
        <ele>736.5</ele>
        <time>2019-08-15T07:56:26Z</time>
      </trkpt>
      <trkpt lat="41.6344510" lon="-5.1808000">
        <ele>736.4</ele>
        <time>2019-08-15T07:56:27Z</time>
      </trkpt>
      <trkpt lat="41.6345020" lon="-5.1808380">
        <ele>736.3</ele>
        <time>2019-08-15T07:56:28Z</time>
      </trkpt>
      <trkpt lat="41.6345530" lon="-5.1808740">
        <ele>736.2</ele>
        <time>2019-08-15T07:56:29Z</time>
      </trkpt>
      <trkpt lat="41.6346040" lon="-5.1809110">
        <ele>736.1</ele>
        <time>2019-08-15T07:56:30Z</time>
      </trkpt>
      <trkpt lat="41.6346560" lon="-5.1809490">
        <ele>736.0</ele>
        <time>2019-08-15T07:56:31Z</time>
      </trkpt>
      <trkpt lat="41.6347090" lon="-5.1809870">
        <ele>736.0</ele>
        <time>2019-08-15T07:56:32Z</time>
      </trkpt>
      <trkpt lat="41.6347610" lon="-5.1810240">
        <ele>735.9</ele>
        <time>2019-08-15T07:56:33Z</time>
      </trkpt>
      <trkpt lat="41.6348130" lon="-5.1810600">
        <ele>735.8</ele>
        <time>2019-08-15T07:56:34Z</time>
      </trkpt>
      <trkpt lat="41.6348650" lon="-5.1810960">
        <ele>735.8</ele>
        <time>2019-08-15T07:56:35Z</time>
      </trkpt>
      <trkpt lat="41.6349160" lon="-5.1811310">
        <ele>735.8</ele>
        <time>2019-08-15T07:56:36Z</time>
      </trkpt>
      <trkpt lat="41.6349680" lon="-5.1811650">
        <ele>735.8</ele>
        <time>2019-08-15T07:56:37Z</time>
      </trkpt>
      <trkpt lat="41.6350190" lon="-5.1811990">
        <ele>735.7</ele>
        <time>2019-08-15T07:56:38Z</time>
      </trkpt>
      <trkpt lat="41.6350700" lon="-5.1812320">
        <ele>735.7</ele>
        <time>2019-08-15T07:56:39Z</time>
      </trkpt>
      <trkpt lat="41.6351200" lon="-5.1812650">
        <ele>735.7</ele>
        <time>2019-08-15T07:56:40Z</time>
      </trkpt>
      <trkpt lat="41.6351710" lon="-5.1812980">
        <ele>735.7</ele>
        <time>2019-08-15T07:56:41Z</time>
      </trkpt>
      <trkpt lat="41.6352230" lon="-5.1813300">
        <ele>735.7</ele>
        <time>2019-08-15T07:56:42Z</time>
      </trkpt>
      <trkpt lat="41.6352750" lon="-5.1813620">
        <ele>735.6</ele>
        <time>2019-08-15T07:56:43Z</time>
      </trkpt>
      <trkpt lat="41.6353270" lon="-5.1813940">
        <ele>735.6</ele>
        <time>2019-08-15T07:56:44Z</time>
      </trkpt>
      <trkpt lat="41.6353780" lon="-5.1814260">
        <ele>735.6</ele>
        <time>2019-08-15T07:56:45Z</time>
      </trkpt>
      <trkpt lat="41.6354290" lon="-5.1814580">
        <ele>735.6</ele>
        <time>2019-08-15T07:56:46Z</time>
      </trkpt>
      <trkpt lat="41.6354800" lon="-5.1814890">
        <ele>735.6</ele>
        <time>2019-08-15T07:56:47Z</time>
      </trkpt>
      <trkpt lat="41.6355310" lon="-5.1815230">
        <ele>735.5</ele>
        <time>2019-08-15T07:56:48Z</time>
      </trkpt>
      <trkpt lat="41.6355820" lon="-5.1815550">
        <ele>735.5</ele>
        <time>2019-08-15T07:56:49Z</time>
      </trkpt>
      <trkpt lat="41.6356330" lon="-5.1815870">
        <ele>735.5</ele>
        <time>2019-08-15T07:56:50Z</time>
      </trkpt>
      <trkpt lat="41.6356830" lon="-5.1816200">
        <ele>735.5</ele>
        <time>2019-08-15T07:56:51Z</time>
      </trkpt>
      <trkpt lat="41.6357320" lon="-5.1816520">
        <ele>735.4</ele>
        <time>2019-08-15T07:56:52Z</time>
      </trkpt>
      <trkpt lat="41.6357820" lon="-5.1816840">
        <ele>735.4</ele>
        <time>2019-08-15T07:56:53Z</time>
      </trkpt>
      <trkpt lat="41.6358310" lon="-5.1817140">
        <ele>735.4</ele>
        <time>2019-08-15T07:56:54Z</time>
      </trkpt>
      <trkpt lat="41.6358810" lon="-5.1817450">
        <ele>735.4</ele>
        <time>2019-08-15T07:56:55Z</time>
      </trkpt>
      <trkpt lat="41.6359310" lon="-5.1817750">
        <ele>735.4</ele>
        <time>2019-08-15T07:56:56Z</time>
      </trkpt>
      <trkpt lat="41.6359820" lon="-5.1818050">
        <ele>735.4</ele>
        <time>2019-08-15T07:56:57Z</time>
      </trkpt>
      <trkpt lat="41.6360320" lon="-5.1818360">
        <ele>735.4</ele>
        <time>2019-08-15T07:56:58Z</time>
      </trkpt>
      <trkpt lat="41.6360820" lon="-5.1818680">
        <ele>735.3</ele>
        <time>2019-08-15T07:56:59Z</time>
      </trkpt>
      <trkpt lat="41.6361330" lon="-5.1818990">
        <ele>735.3</ele>
        <time>2019-08-15T07:57:00Z</time>
      </trkpt>
      <trkpt lat="41.6361830" lon="-5.1819290">
        <ele>735.3</ele>
        <time>2019-08-15T07:57:01Z</time>
      </trkpt>
      <trkpt lat="41.6362340" lon="-5.1819590">
        <ele>735.3</ele>
        <time>2019-08-15T07:57:02Z</time>
      </trkpt>
      <trkpt lat="41.6362840" lon="-5.1819890">
        <ele>735.3</ele>
        <time>2019-08-15T07:57:03Z</time>
      </trkpt>
      <trkpt lat="41.6363340" lon="-5.1820210">
        <ele>735.3</ele>
        <time>2019-08-15T07:57:04Z</time>
      </trkpt>
      <trkpt lat="41.6363830" lon="-5.1820520">
        <ele>735.3</ele>
        <time>2019-08-15T07:57:05Z</time>
      </trkpt>
      <trkpt lat="41.6364320" lon="-5.1820830">
        <ele>735.3</ele>
        <time>2019-08-15T07:57:06Z</time>
      </trkpt>
      <trkpt lat="41.6364800" lon="-5.1821130">
        <ele>735.3</ele>
        <time>2019-08-15T07:57:07Z</time>
      </trkpt>
      <trkpt lat="41.6365280" lon="-5.1821410">
        <ele>735.3</ele>
        <time>2019-08-15T07:57:08Z</time>
      </trkpt>
      <trkpt lat="41.6365740" lon="-5.1821710">
        <ele>735.3</ele>
        <time>2019-08-15T07:57:09Z</time>
      </trkpt>
      <trkpt lat="41.6366210" lon="-5.1822000">
        <ele>735.3</ele>
        <time>2019-08-15T07:57:10Z</time>
      </trkpt>
      <trkpt lat="41.6366680" lon="-5.1822290">
        <ele>735.3</ele>
        <time>2019-08-15T07:57:11Z</time>
      </trkpt>
      <trkpt lat="41.6367150" lon="-5.1822570">
        <ele>735.3</ele>
        <time>2019-08-15T07:57:12Z</time>
      </trkpt>
      <trkpt lat="41.6367620" lon="-5.1822860">
        <ele>735.4</ele>
        <time>2019-08-15T07:57:13Z</time>
      </trkpt>
      <trkpt lat="41.6368090" lon="-5.1823160">
        <ele>735.4</ele>
        <time>2019-08-15T07:57:14Z</time>
      </trkpt>
      <trkpt lat="41.6368570" lon="-5.1823460">
        <ele>735.4</ele>
        <time>2019-08-15T07:57:15Z</time>
      </trkpt>
      <trkpt lat="41.6369050" lon="-5.1823750">
        <ele>735.4</ele>
        <time>2019-08-15T07:57:16Z</time>
      </trkpt>
      <trkpt lat="41.6369520" lon="-5.1824030">
        <ele>735.4</ele>
        <time>2019-08-15T07:57:17Z</time>
      </trkpt>
      <trkpt lat="41.6369980" lon="-5.1824330">
        <ele>735.4</ele>
        <time>2019-08-15T07:57:18Z</time>
      </trkpt>
      <trkpt lat="41.6370440" lon="-5.1824640">
        <ele>735.5</ele>
        <time>2019-08-15T07:57:19Z</time>
      </trkpt>
      <trkpt lat="41.6370890" lon="-5.1824940">
        <ele>735.5</ele>
        <time>2019-08-15T07:57:20Z</time>
      </trkpt>
      <trkpt lat="41.6371360" lon="-5.1825230">
        <ele>735.5</ele>
        <time>2019-08-15T07:57:21Z</time>
      </trkpt>
      <trkpt lat="41.6371830" lon="-5.1825510">
        <ele>735.5</ele>
        <time>2019-08-15T07:57:22Z</time>
      </trkpt>
      <trkpt lat="41.6372300" lon="-5.1825810">
        <ele>735.6</ele>
        <time>2019-08-15T07:57:23Z</time>
      </trkpt>
      <trkpt lat="41.6372760" lon="-5.1826110">
        <ele>735.6</ele>
        <time>2019-08-15T07:57:24Z</time>
      </trkpt>
      <trkpt lat="41.6373220" lon="-5.1826400">
        <ele>735.6</ele>
        <time>2019-08-15T07:57:25Z</time>
      </trkpt>
      <trkpt lat="41.6373690" lon="-5.1826670">
        <ele>735.6</ele>
        <time>2019-08-15T07:57:26Z</time>
      </trkpt>
      <trkpt lat="41.6374140" lon="-5.1826930">
        <ele>735.7</ele>
        <time>2019-08-15T07:57:27Z</time>
      </trkpt>
      <trkpt lat="41.6374600" lon="-5.1827180">
        <ele>735.7</ele>
        <time>2019-08-15T07:57:28Z</time>
      </trkpt>
      <trkpt lat="41.6375040" lon="-5.1827430">
        <ele>735.7</ele>
        <time>2019-08-15T07:57:29Z</time>
      </trkpt>
      <trkpt lat="41.6375500" lon="-5.1827680">
        <ele>735.6</ele>
        <time>2019-08-15T07:57:30Z</time>
      </trkpt>
      <trkpt lat="41.6375960" lon="-5.1827920">
        <ele>735.6</ele>
        <time>2019-08-15T07:57:31Z</time>
      </trkpt>
      <trkpt lat="41.6376410" lon="-5.1828160">
        <ele>735.6</ele>
        <time>2019-08-15T07:57:32Z</time>
      </trkpt>
      <trkpt lat="41.6376870" lon="-5.1828400">
        <ele>735.6</ele>
        <time>2019-08-15T07:57:33Z</time>
      </trkpt>
      <trkpt lat="41.6377340" lon="-5.1828650">
        <ele>735.6</ele>
        <time>2019-08-15T07:57:34Z</time>
      </trkpt>
      <trkpt lat="41.6377810" lon="-5.1828880">
        <ele>735.6</ele>
        <time>2019-08-15T07:57:35Z</time>
      </trkpt>
      <trkpt lat="41.6378280" lon="-5.1829110">
        <ele>735.6</ele>
        <time>2019-08-15T07:57:36Z</time>
      </trkpt>
      <trkpt lat="41.6378760" lon="-5.1829320">
        <ele>735.5</ele>
        <time>2019-08-15T07:57:37Z</time>
      </trkpt>
      <trkpt lat="41.6379230" lon="-5.1829520">
        <ele>735.5</ele>
        <time>2019-08-15T07:57:38Z</time>
      </trkpt>
      <trkpt lat="41.6379710" lon="-5.1829720">
        <ele>735.5</ele>
        <time>2019-08-15T07:57:39Z</time>
      </trkpt>
      <trkpt lat="41.6380170" lon="-5.1829900">
        <ele>735.5</ele>
        <time>2019-08-15T07:57:40Z</time>
      </trkpt>
      <trkpt lat="41.6380650" lon="-5.1830110">
        <ele>735.5</ele>
        <time>2019-08-15T07:57:41Z</time>
      </trkpt>
      <trkpt lat="41.6381130" lon="-5.1830320">
        <ele>735.5</ele>
        <time>2019-08-15T07:57:42Z</time>
      </trkpt>
      <trkpt lat="41.6381600" lon="-5.1830530">
        <ele>735.5</ele>
        <time>2019-08-15T07:57:43Z</time>
      </trkpt>
      <trkpt lat="41.6382080" lon="-5.1830720">
        <ele>735.5</ele>
        <time>2019-08-15T07:57:44Z</time>
      </trkpt>
      <trkpt lat="41.6382560" lon="-5.1830900">
        <ele>735.5</ele>
        <time>2019-08-15T07:57:45Z</time>
      </trkpt>
      <trkpt lat="41.6383040" lon="-5.1831100">
        <ele>735.5</ele>
        <time>2019-08-15T07:57:46Z</time>
      </trkpt>
      <trkpt lat="41.6383500" lon="-5.1831300">
        <ele>735.5</ele>
        <time>2019-08-15T07:57:47Z</time>
      </trkpt>
      <trkpt lat="41.6383960" lon="-5.1831500">
        <ele>735.5</ele>
        <time>2019-08-15T07:57:48Z</time>
      </trkpt>
      <trkpt lat="41.6384430" lon="-5.1831690">
        <ele>735.5</ele>
        <time>2019-08-15T07:57:49Z</time>
      </trkpt>
      <trkpt lat="41.6384900" lon="-5.1831870">
        <ele>735.5</ele>
        <time>2019-08-15T07:57:50Z</time>
      </trkpt>
      <trkpt lat="41.6385380" lon="-5.1832080">
        <ele>735.6</ele>
        <time>2019-08-15T07:57:51Z</time>
      </trkpt>
      <trkpt lat="41.6385860" lon="-5.1832290">
        <ele>735.6</ele>
        <time>2019-08-15T07:57:52Z</time>
      </trkpt>
      <trkpt lat="41.6386330" lon="-5.1832530">
        <ele>735.6</ele>
        <time>2019-08-15T07:57:53Z</time>
      </trkpt>
      <trkpt lat="41.6386810" lon="-5.1832760">
        <ele>735.6</ele>
        <time>2019-08-15T07:57:54Z</time>
      </trkpt>
      <trkpt lat="41.6387280" lon="-5.1833010">
        <ele>735.7</ele>
        <time>2019-08-15T07:57:55Z</time>
      </trkpt>
      <trkpt lat="41.6387760" lon="-5.1833250">
        <ele>735.7</ele>
        <time>2019-08-15T07:57:56Z</time>
      </trkpt>
      <trkpt lat="41.6388250" lon="-5.1833480">
        <ele>735.7</ele>
        <time>2019-08-15T07:57:57Z</time>
      </trkpt>
      <trkpt lat="41.6388730" lon="-5.1833720">
        <ele>735.7</ele>
        <time>2019-08-15T07:57:58Z</time>
      </trkpt>
      <trkpt lat="41.6389220" lon="-5.1833970">
        <ele>735.7</ele>
        <time>2019-08-15T07:57:59Z</time>
      </trkpt>
      <trkpt lat="41.6389720" lon="-5.1834230">
        <ele>735.7</ele>
        <time>2019-08-15T07:58:00Z</time>
      </trkpt>
      <trkpt lat="41.6390200" lon="-5.1834500">
        <ele>735.7</ele>
        <time>2019-08-15T07:58:01Z</time>
      </trkpt>
      <trkpt lat="41.6390680" lon="-5.1834780">
        <ele>735.6</ele>
        <time>2019-08-15T07:58:02Z</time>
      </trkpt>
      <trkpt lat="41.6391170" lon="-5.1835050">
        <ele>735.6</ele>
        <time>2019-08-15T07:58:03Z</time>
      </trkpt>
      <trkpt lat="41.6391660" lon="-5.1835320">
        <ele>735.6</ele>
        <time>2019-08-15T07:58:04Z</time>
      </trkpt>
      <trkpt lat="41.6392140" lon="-5.1835580">
        <ele>735.6</ele>
        <time>2019-08-15T07:58:05Z</time>
      </trkpt>
      <trkpt lat="41.6392620" lon="-5.1835830">
        <ele>735.5</ele>
        <time>2019-08-15T07:58:06Z</time>
      </trkpt>
      <trkpt lat="41.6393080" lon="-5.1836090">
        <ele>735.5</ele>
        <time>2019-08-15T07:58:07Z</time>
      </trkpt>
      <trkpt lat="41.6393530" lon="-5.1836330">
        <ele>735.5</ele>
        <time>2019-08-15T07:58:08Z</time>
      </trkpt>
      <trkpt lat="41.6393950" lon="-5.1836580">
        <ele>735.5</ele>
        <time>2019-08-15T07:58:09Z</time>
      </trkpt>
      <trkpt lat="41.6394360" lon="-5.1836840">
        <ele>735.4</ele>
        <time>2019-08-15T07:58:10Z</time>
      </trkpt>
      <trkpt lat="41.6394770" lon="-5.1837110">
        <ele>735.4</ele>
        <time>2019-08-15T07:58:11Z</time>
      </trkpt>
      <trkpt lat="41.6395190" lon="-5.1837380">
        <ele>735.4</ele>
        <time>2019-08-15T07:58:12Z</time>
      </trkpt>
      <trkpt lat="41.6395630" lon="-5.1837660">
        <ele>735.4</ele>
        <time>2019-08-15T07:58:13Z</time>
      </trkpt>
      <trkpt lat="41.6396070" lon="-5.1837960">
        <ele>735.4</ele>
        <time>2019-08-15T07:58:14Z</time>
      </trkpt>
      <trkpt lat="41.6396540" lon="-5.1838260">
        <ele>735.4</ele>
        <time>2019-08-15T07:58:15Z</time>
      </trkpt>
      <trkpt lat="41.6397010" lon="-5.1838570">
        <ele>735.4</ele>
        <time>2019-08-15T07:58:16Z</time>
      </trkpt>
      <trkpt lat="41.6397500" lon="-5.1838870">
        <ele>735.4</ele>
        <time>2019-08-15T07:58:17Z</time>
      </trkpt>
      <trkpt lat="41.6397990" lon="-5.1839170">
        <ele>735.4</ele>
        <time>2019-08-15T07:58:18Z</time>
      </trkpt>
      <trkpt lat="41.6398490" lon="-5.1839480">
        <ele>735.4</ele>
        <time>2019-08-15T07:58:19Z</time>
      </trkpt>
      <trkpt lat="41.6398980" lon="-5.1839820">
        <ele>735.4</ele>
        <time>2019-08-15T07:58:20Z</time>
      </trkpt>
      <trkpt lat="41.6399470" lon="-5.1840140">
        <ele>735.4</ele>
        <time>2019-08-15T07:58:21Z</time>
      </trkpt>
      <trkpt lat="41.6399970" lon="-5.1840460">
        <ele>735.4</ele>
        <time>2019-08-15T07:58:22Z</time>
      </trkpt>
      <trkpt lat="41.6400470" lon="-5.1840780">
        <ele>735.4</ele>
        <time>2019-08-15T07:58:23Z</time>
      </trkpt>
      <trkpt lat="41.6400950" lon="-5.1841100">
        <ele>735.4</ele>
        <time>2019-08-15T07:58:24Z</time>
      </trkpt>
      <trkpt lat="41.6401440" lon="-5.1841430">
        <ele>735.4</ele>
        <time>2019-08-15T07:58:25Z</time>
      </trkpt>
      <trkpt lat="41.6401920" lon="-5.1841760">
        <ele>735.4</ele>
        <time>2019-08-15T07:58:26Z</time>
      </trkpt>
      <trkpt lat="41.6402410" lon="-5.1842090">
        <ele>735.4</ele>
        <time>2019-08-15T07:58:27Z</time>
      </trkpt>
      <trkpt lat="41.6402900" lon="-5.1842430">
        <ele>735.4</ele>
        <time>2019-08-15T07:58:28Z</time>
      </trkpt>
      <trkpt lat="41.6403380" lon="-5.1842760">
        <ele>735.4</ele>
        <time>2019-08-15T07:58:29Z</time>
      </trkpt>
      <trkpt lat="41.6403860" lon="-5.1843090">
        <ele>735.4</ele>
        <time>2019-08-15T07:58:30Z</time>
      </trkpt>
      <trkpt lat="41.6404330" lon="-5.1843410">
        <ele>735.4</ele>
        <time>2019-08-15T07:58:31Z</time>
      </trkpt>
      <trkpt lat="41.6404820" lon="-5.1843720">
        <ele>735.4</ele>
        <time>2019-08-15T07:58:32Z</time>
      </trkpt>
      <trkpt lat="41.6405310" lon="-5.1844050">
        <ele>735.4</ele>
        <time>2019-08-15T07:58:33Z</time>
      </trkpt>
      <trkpt lat="41.6405780" lon="-5.1844370">
        <ele>735.4</ele>
        <time>2019-08-15T07:58:34Z</time>
      </trkpt>
      <trkpt lat="41.6406250" lon="-5.1844710">
        <ele>735.4</ele>
        <time>2019-08-15T07:58:35Z</time>
      </trkpt>
      <trkpt lat="41.6406720" lon="-5.1845020">
        <ele>735.4</ele>
        <time>2019-08-15T07:58:36Z</time>
      </trkpt>
      <trkpt lat="41.6407190" lon="-5.1845340">
        <ele>735.4</ele>
        <time>2019-08-15T07:58:37Z</time>
      </trkpt>
      <trkpt lat="41.6407670" lon="-5.1845650">
        <ele>735.4</ele>
        <time>2019-08-15T07:58:38Z</time>
      </trkpt>
      <trkpt lat="41.6408170" lon="-5.1845960">
        <ele>735.4</ele>
        <time>2019-08-15T07:58:39Z</time>
      </trkpt>
      <trkpt lat="41.6408670" lon="-5.1846220">
        <ele>735.5</ele>
        <time>2019-08-15T07:58:40Z</time>
      </trkpt>
      <trkpt lat="41.6409160" lon="-5.1846470">
        <ele>735.5</ele>
        <time>2019-08-15T07:58:41Z</time>
      </trkpt>
      <trkpt lat="41.6409660" lon="-5.1846710">
        <ele>735.5</ele>
        <time>2019-08-15T07:58:42Z</time>
      </trkpt>
      <trkpt lat="41.6410170" lon="-5.1846910">
        <ele>735.5</ele>
        <time>2019-08-15T07:58:43Z</time>
      </trkpt>
      <trkpt lat="41.6410690" lon="-5.1847080">
        <ele>735.5</ele>
        <time>2019-08-15T07:58:44Z</time>
      </trkpt>
      <trkpt lat="41.6411220" lon="-5.1847210">
        <ele>735.5</ele>
        <time>2019-08-15T07:58:45Z</time>
      </trkpt>
      <trkpt lat="41.6411750" lon="-5.1847290">
        <ele>735.6</ele>
        <time>2019-08-15T07:58:46Z</time>
      </trkpt>
      <trkpt lat="41.6412270" lon="-5.1847370">
        <ele>735.6</ele>
        <time>2019-08-15T07:58:47Z</time>
      </trkpt>
      <trkpt lat="41.6412790" lon="-5.1847410">
        <ele>735.6</ele>
        <time>2019-08-15T07:58:48Z</time>
      </trkpt>
      <trkpt lat="41.6413330" lon="-5.1847420">
        <ele>735.6</ele>
        <time>2019-08-15T07:58:49Z</time>
      </trkpt>
      <trkpt lat="41.6413850" lon="-5.1847390">
        <ele>735.6</ele>
        <time>2019-08-15T07:58:50Z</time>
      </trkpt>
      <trkpt lat="41.6414370" lon="-5.1847320">
        <ele>735.5</ele>
        <time>2019-08-15T07:58:51Z</time>
      </trkpt>
      <trkpt lat="41.6414890" lon="-5.1847250">
        <ele>735.5</ele>
        <time>2019-08-15T07:58:52Z</time>
      </trkpt>
      <trkpt lat="41.6415400" lon="-5.1847170">
        <ele>735.5</ele>
        <time>2019-08-15T07:58:53Z</time>
      </trkpt>
      <trkpt lat="41.6415910" lon="-5.1847060">
        <ele>735.4</ele>
        <time>2019-08-15T07:58:54Z</time>
      </trkpt>
      <trkpt lat="41.6416410" lon="-5.1846940">
        <ele>735.4</ele>
        <time>2019-08-15T07:58:55Z</time>
      </trkpt>
      <trkpt lat="41.6416900" lon="-5.1846770">
        <ele>735.4</ele>
        <time>2019-08-15T07:58:56Z</time>
      </trkpt>
      <trkpt lat="41.6417380" lon="-5.1846590">
        <ele>735.3</ele>
        <time>2019-08-15T07:58:57Z</time>
      </trkpt>
      <trkpt lat="41.6417850" lon="-5.1846400">
        <ele>735.3</ele>
        <time>2019-08-15T07:58:58Z</time>
      </trkpt>
      <trkpt lat="41.6418320" lon="-5.1846210">
        <ele>735.2</ele>
        <time>2019-08-15T07:58:59Z</time>
      </trkpt>
      <trkpt lat="41.6418790" lon="-5.1846010">
        <ele>735.2</ele>
        <time>2019-08-15T07:59:00Z</time>
      </trkpt>
      <trkpt lat="41.6419270" lon="-5.1845840">
        <ele>735.2</ele>
        <time>2019-08-15T07:59:01Z</time>
      </trkpt>
      <trkpt lat="41.6419750" lon="-5.1845680">
        <ele>735.2</ele>
        <time>2019-08-15T07:59:02Z</time>
      </trkpt>
      <trkpt lat="41.6420250" lon="-5.1845510">
        <ele>735.1</ele>
        <time>2019-08-15T07:59:03Z</time>
      </trkpt>
      <trkpt lat="41.6420740" lon="-5.1845340">
        <ele>735.1</ele>
        <time>2019-08-15T07:59:04Z</time>
      </trkpt>
      <trkpt lat="41.6421240" lon="-5.1845190">
        <ele>735.1</ele>
        <time>2019-08-15T07:59:05Z</time>
      </trkpt>
      <trkpt lat="41.6421730" lon="-5.1845070">
        <ele>735.1</ele>
        <time>2019-08-15T07:59:06Z</time>
      </trkpt>
      <trkpt lat="41.6422260" lon="-5.1844970">
        <ele>735.1</ele>
        <time>2019-08-15T07:59:07Z</time>
      </trkpt>
      <trkpt lat="41.6422780" lon="-5.1844910">
        <ele>735.1</ele>
        <time>2019-08-15T07:59:08Z</time>
      </trkpt>
      <trkpt lat="41.6423300" lon="-5.1844900">
        <ele>735.1</ele>
        <time>2019-08-15T07:59:09Z</time>
      </trkpt>
      <trkpt lat="41.6423820" lon="-5.1844930">
        <ele>735.1</ele>
        <time>2019-08-15T07:59:10Z</time>
      </trkpt>
      <trkpt lat="41.6424330" lon="-5.1844990">
        <ele>735.1</ele>
        <time>2019-08-15T07:59:11Z</time>
      </trkpt>
      <trkpt lat="41.6424860" lon="-5.1845090">
        <ele>735.1</ele>
        <time>2019-08-15T07:59:12Z</time>
      </trkpt>
      <trkpt lat="41.6425370" lon="-5.1845200">
        <ele>735.1</ele>
        <time>2019-08-15T07:59:13Z</time>
      </trkpt>
      <trkpt lat="41.6425870" lon="-5.1845340">
        <ele>735.1</ele>
        <time>2019-08-15T07:59:14Z</time>
      </trkpt>
      <trkpt lat="41.6426370" lon="-5.1845490">
        <ele>735.1</ele>
        <time>2019-08-15T07:59:15Z</time>
      </trkpt>
      <trkpt lat="41.6426860" lon="-5.1845640">
        <ele>735.1</ele>
        <time>2019-08-15T07:59:16Z</time>
      </trkpt>
      <trkpt lat="41.6427350" lon="-5.1845790">
        <ele>735.1</ele>
        <time>2019-08-15T07:59:17Z</time>
      </trkpt>
      <trkpt lat="41.6427850" lon="-5.1845930">
        <ele>735.1</ele>
        <time>2019-08-15T07:59:18Z</time>
      </trkpt>
      <trkpt lat="41.6428330" lon="-5.1846080">
        <ele>735.1</ele>
        <time>2019-08-15T07:59:19Z</time>
      </trkpt>
      <trkpt lat="41.6428800" lon="-5.1846200">
        <ele>735.2</ele>
        <time>2019-08-15T07:59:20Z</time>
      </trkpt>
      <trkpt lat="41.6429270" lon="-5.1846330">
        <ele>735.2</ele>
        <time>2019-08-15T07:59:21Z</time>
      </trkpt>
      <trkpt lat="41.6429730" lon="-5.1846460">
        <ele>735.3</ele>
        <time>2019-08-15T07:59:22Z</time>
      </trkpt>
      <trkpt lat="41.6430200" lon="-5.1846590">
        <ele>735.3</ele>
        <time>2019-08-15T07:59:23Z</time>
      </trkpt>
      <trkpt lat="41.6430670" lon="-5.1846720">
        <ele>735.3</ele>
        <time>2019-08-15T07:59:24Z</time>
      </trkpt>
      <trkpt lat="41.6431140" lon="-5.1846850">
        <ele>735.4</ele>
        <time>2019-08-15T07:59:25Z</time>
      </trkpt>
      <trkpt lat="41.6431610" lon="-5.1846960">
        <ele>735.5</ele>
        <time>2019-08-15T07:59:26Z</time>
      </trkpt>
      <trkpt lat="41.6432070" lon="-5.1847110">
        <ele>735.6</ele>
        <time>2019-08-15T07:59:27Z</time>
      </trkpt>
      <trkpt lat="41.6432530" lon="-5.1847260">
        <ele>735.6</ele>
        <time>2019-08-15T07:59:28Z</time>
      </trkpt>
      <trkpt lat="41.6432990" lon="-5.1847380">
        <ele>735.7</ele>
        <time>2019-08-15T07:59:29Z</time>
      </trkpt>
      <trkpt lat="41.6433450" lon="-5.1847510">
        <ele>735.7</ele>
        <time>2019-08-15T07:59:30Z</time>
      </trkpt>
      <trkpt lat="41.6433890" lon="-5.1847660">
        <ele>735.8</ele>
        <time>2019-08-15T07:59:31Z</time>
      </trkpt>
      <trkpt lat="41.6434320" lon="-5.1847790">
        <ele>735.9</ele>
        <time>2019-08-15T07:59:32Z</time>
      </trkpt>
      <trkpt lat="41.6434750" lon="-5.1847910">
        <ele>735.9</ele>
        <time>2019-08-15T07:59:33Z</time>
      </trkpt>
      <trkpt lat="41.6435190" lon="-5.1848050">
        <ele>736.0</ele>
        <time>2019-08-15T07:59:34Z</time>
      </trkpt>
      <trkpt lat="41.6435630" lon="-5.1848170">
        <ele>736.1</ele>
        <time>2019-08-15T07:59:35Z</time>
      </trkpt>
      <trkpt lat="41.6436080" lon="-5.1848290">
        <ele>736.1</ele>
        <time>2019-08-15T07:59:36Z</time>
      </trkpt>
      <trkpt lat="41.6436520" lon="-5.1848390">
        <ele>736.2</ele>
        <time>2019-08-15T07:59:37Z</time>
      </trkpt>
      <trkpt lat="41.6436990" lon="-5.1848500">
        <ele>736.2</ele>
        <time>2019-08-15T07:59:38Z</time>
      </trkpt>
      <trkpt lat="41.6437450" lon="-5.1848610">
        <ele>736.3</ele>
        <time>2019-08-15T07:59:39Z</time>
      </trkpt>
      <trkpt lat="41.6437930" lon="-5.1848710">
        <ele>736.4</ele>
        <time>2019-08-15T07:59:40Z</time>
      </trkpt>
      <trkpt lat="41.6438410" lon="-5.1848810">
        <ele>736.4</ele>
        <time>2019-08-15T07:59:41Z</time>
      </trkpt>
      <trkpt lat="41.6438890" lon="-5.1848910">
        <ele>736.5</ele>
        <time>2019-08-15T07:59:42Z</time>
      </trkpt>
      <trkpt lat="41.6439370" lon="-5.1848990">
        <ele>736.5</ele>
        <time>2019-08-15T07:59:43Z</time>
      </trkpt>
      <trkpt lat="41.6439850" lon="-5.1849040">
        <ele>736.6</ele>
        <time>2019-08-15T07:59:44Z</time>
      </trkpt>
      <trkpt lat="41.6440330" lon="-5.1849080">
        <ele>736.6</ele>
        <time>2019-08-15T07:59:45Z</time>
      </trkpt>
      <trkpt lat="41.6440810" lon="-5.1849130">
        <ele>736.7</ele>
        <time>2019-08-15T07:59:46Z</time>
      </trkpt>
      <trkpt lat="41.6441290" lon="-5.1849180">
        <ele>736.7</ele>
        <time>2019-08-15T07:59:47Z</time>
      </trkpt>
      <trkpt lat="41.6441770" lon="-5.1849240">
        <ele>736.7</ele>
        <time>2019-08-15T07:59:48Z</time>
      </trkpt>
      <trkpt lat="41.6442270" lon="-5.1849300">
        <ele>736.7</ele>
        <time>2019-08-15T07:59:49Z</time>
      </trkpt>
      <trkpt lat="41.6442760" lon="-5.1849330">
        <ele>736.7</ele>
        <time>2019-08-15T07:59:50Z</time>
      </trkpt>
      <trkpt lat="41.6443250" lon="-5.1849370">
        <ele>736.7</ele>
        <time>2019-08-15T07:59:51Z</time>
      </trkpt>
      <trkpt lat="41.6443750" lon="-5.1849390">
        <ele>736.7</ele>
        <time>2019-08-15T07:59:52Z</time>
      </trkpt>
      <trkpt lat="41.6444250" lon="-5.1849450">
        <ele>736.7</ele>
        <time>2019-08-15T07:59:53Z</time>
      </trkpt>
      <trkpt lat="41.6444760" lon="-5.1849500">
        <ele>736.7</ele>
        <time>2019-08-15T07:59:54Z</time>
      </trkpt>
      <trkpt lat="41.6445260" lon="-5.1849540">
        <ele>736.7</ele>
        <time>2019-08-15T07:59:55Z</time>
      </trkpt>
      <trkpt lat="41.6445780" lon="-5.1849570">
        <ele>736.8</ele>
        <time>2019-08-15T07:59:56Z</time>
      </trkpt>
      <trkpt lat="41.6446290" lon="-5.1849600">
        <ele>736.8</ele>
        <time>2019-08-15T07:59:57Z</time>
      </trkpt>
      <trkpt lat="41.6446800" lon="-5.1849650">
        <ele>736.8</ele>
        <time>2019-08-15T07:59:58Z</time>
      </trkpt>
      <trkpt lat="41.6447320" lon="-5.1849680">
        <ele>736.8</ele>
        <time>2019-08-15T07:59:59Z</time>
      </trkpt>
      <trkpt lat="41.6447840" lon="-5.1849730">
        <ele>736.9</ele>
        <time>2019-08-15T08:00:00Z</time>
      </trkpt>
      <trkpt lat="41.6448350" lon="-5.1849790">
        <ele>736.9</ele>
        <time>2019-08-15T08:00:01Z</time>
      </trkpt>
      <trkpt lat="41.6448860" lon="-5.1849840">
        <ele>736.9</ele>
        <time>2019-08-15T08:00:02Z</time>
      </trkpt>
      <trkpt lat="41.6449360" lon="-5.1849880">
        <ele>737.0</ele>
        <time>2019-08-15T08:00:03Z</time>
      </trkpt>
      <trkpt lat="41.6449860" lon="-5.1849920">
        <ele>737.0</ele>
        <time>2019-08-15T08:00:04Z</time>
      </trkpt>
      <trkpt lat="41.6450370" lon="-5.1849960">
        <ele>737.1</ele>
        <time>2019-08-15T08:00:05Z</time>
      </trkpt>
      <trkpt lat="41.6450890" lon="-5.1850000">
        <ele>737.2</ele>
        <time>2019-08-15T08:00:06Z</time>
      </trkpt>
      <trkpt lat="41.6451400" lon="-5.1850040">
        <ele>737.2</ele>
        <time>2019-08-15T08:00:07Z</time>
      </trkpt>
      <trkpt lat="41.6451900" lon="-5.1850110">
        <ele>737.3</ele>
        <time>2019-08-15T08:00:08Z</time>
      </trkpt>
      <trkpt lat="41.6452390" lon="-5.1850230">
        <ele>737.3</ele>
        <time>2019-08-15T08:00:09Z</time>
      </trkpt>
      <trkpt lat="41.6452840" lon="-5.1850360">
        <ele>737.4</ele>
        <time>2019-08-15T08:00:10Z</time>
      </trkpt>
      <trkpt lat="41.6453250" lon="-5.1850500">
        <ele>737.4</ele>
        <time>2019-08-15T08:00:11Z</time>
      </trkpt>
      <trkpt lat="41.6453600" lon="-5.1850690">
        <ele>737.4</ele>
        <time>2019-08-15T08:00:12Z</time>
      </trkpt>
      <trkpt lat="41.6453920" lon="-5.1850920">
        <ele>737.3</ele>
        <time>2019-08-15T08:00:13Z</time>
      </trkpt>
      <trkpt lat="41.6454180" lon="-5.1851230">
        <ele>737.3</ele>
        <time>2019-08-15T08:00:14Z</time>
      </trkpt>
      <trkpt lat="41.6454420" lon="-5.1851570">
        <ele>737.3</ele>
        <time>2019-08-15T08:00:15Z</time>
      </trkpt>
      <trkpt lat="41.6454640" lon="-5.1851950">
        <ele>737.2</ele>
        <time>2019-08-15T08:00:16Z</time>
      </trkpt>
      <trkpt lat="41.6454850" lon="-5.1852390">
        <ele>737.2</ele>
        <time>2019-08-15T08:00:17Z</time>
      </trkpt>
      <trkpt lat="41.6455060" lon="-5.1852850">
        <ele>737.2</ele>
        <time>2019-08-15T08:00:18Z</time>
      </trkpt>
      <trkpt lat="41.6455280" lon="-5.1853320">
        <ele>737.1</ele>
        <time>2019-08-15T08:00:19Z</time>
      </trkpt>
      <trkpt lat="41.6455490" lon="-5.1853810">
        <ele>737.1</ele>
        <time>2019-08-15T08:00:20Z</time>
      </trkpt>
      <trkpt lat="41.6455700" lon="-5.1854300">
        <ele>737.0</ele>
        <time>2019-08-15T08:00:21Z</time>
      </trkpt>
      <trkpt lat="41.6455900" lon="-5.1854810">
        <ele>737.0</ele>
        <time>2019-08-15T08:00:22Z</time>
      </trkpt>
      <trkpt lat="41.6456110" lon="-5.1855350">
        <ele>736.9</ele>
        <time>2019-08-15T08:00:23Z</time>
      </trkpt>
      <trkpt lat="41.6456330" lon="-5.1855890">
        <ele>736.9</ele>
        <time>2019-08-15T08:00:24Z</time>
      </trkpt>
      <trkpt lat="41.6456530" lon="-5.1856440">
        <ele>736.9</ele>
        <time>2019-08-15T08:00:25Z</time>
      </trkpt>
      <trkpt lat="41.6456750" lon="-5.1856990">
        <ele>736.9</ele>
        <time>2019-08-15T08:00:26Z</time>
      </trkpt>
      <trkpt lat="41.6456980" lon="-5.1857520">
        <ele>736.8</ele>
        <time>2019-08-15T08:00:27Z</time>
      </trkpt>
      <trkpt lat="41.6457220" lon="-5.1858060">
        <ele>736.8</ele>
        <time>2019-08-15T08:00:28Z</time>
      </trkpt>
      <trkpt lat="41.6457470" lon="-5.1858640">
        <ele>736.8</ele>
        <time>2019-08-15T08:00:29Z</time>
      </trkpt>
      <trkpt lat="41.6457720" lon="-5.1859220">
        <ele>736.7</ele>
        <time>2019-08-15T08:00:30Z</time>
      </trkpt>
      <trkpt lat="41.6457950" lon="-5.1859840">
        <ele>736.7</ele>
        <time>2019-08-15T08:00:31Z</time>
      </trkpt>
      <trkpt lat="41.6458190" lon="-5.1860460">
        <ele>736.7</ele>
        <time>2019-08-15T08:00:32Z</time>
      </trkpt>
      <trkpt lat="41.6458430" lon="-5.1861080">
        <ele>736.7</ele>
        <time>2019-08-15T08:00:33Z</time>
      </trkpt>
      <trkpt lat="41.6458680" lon="-5.1861710">
        <ele>736.7</ele>
        <time>2019-08-15T08:00:34Z</time>
      </trkpt>
      <trkpt lat="41.6458930" lon="-5.1862330">
        <ele>736.7</ele>
        <time>2019-08-15T08:00:35Z</time>
      </trkpt>
      <trkpt lat="41.6459160" lon="-5.1862930">
        <ele>736.7</ele>
        <time>2019-08-15T08:00:36Z</time>
      </trkpt>
      <trkpt lat="41.6459410" lon="-5.1863520">
        <ele>736.8</ele>
        <time>2019-08-15T08:00:37Z</time>
      </trkpt>
      <trkpt lat="41.6459660" lon="-5.1864100">
        <ele>736.8</ele>
        <time>2019-08-15T08:00:38Z</time>
      </trkpt>
      <trkpt lat="41.6459960" lon="-5.1864670">
        <ele>736.8</ele>
        <time>2019-08-15T08:00:39Z</time>
      </trkpt>
      <trkpt lat="41.6460260" lon="-5.1865180">
        <ele>736.8</ele>
        <time>2019-08-15T08:00:40Z</time>
      </trkpt>
      <trkpt lat="41.6460510" lon="-5.1865590">
        <ele>736.9</ele>
        <time>2019-08-15T08:00:41Z</time>
      </trkpt>
      <trkpt lat="41.6460620" lon="-5.1865910">
        <ele>737.0</ele>
        <time>2019-08-15T08:00:42Z</time>
      </trkpt>
      <trkpt lat="41.6460510" lon="-5.1866560">
        <ele>737.1</ele>
        <time>2019-08-15T08:00:44Z</time>
      </trkpt>
      <trkpt lat="41.6460270" lon="-5.1867170">
        <ele>737.2</ele>
        <time>2019-08-15T08:00:46Z</time>
      </trkpt>
      <trkpt lat="41.6460130" lon="-5.1867870">
        <ele>737.3</ele>
        <time>2019-08-15T08:00:48Z</time>
      </trkpt>
      <trkpt lat="41.6460110" lon="-5.1868240">
        <ele>737.4</ele>
        <time>2019-08-15T08:00:49Z</time>
      </trkpt>
      <trkpt lat="41.6460100" lon="-5.1868630">
        <ele>737.4</ele>
        <time>2019-08-15T08:00:50Z</time>
      </trkpt>
      <trkpt lat="41.6460100" lon="-5.1869030">
        <ele>737.5</ele>
        <time>2019-08-15T08:00:51Z</time>
      </trkpt>
      <trkpt lat="41.6460070" lon="-5.1869450">
        <ele>737.5</ele>
        <time>2019-08-15T08:00:52Z</time>
      </trkpt>
      <trkpt lat="41.6460040" lon="-5.1869880">
        <ele>737.5</ele>
        <time>2019-08-15T08:00:53Z</time>
      </trkpt>
      <trkpt lat="41.6460010" lon="-5.1870320">
        <ele>737.6</ele>
        <time>2019-08-15T08:00:54Z</time>
      </trkpt>
      <trkpt lat="41.6459980" lon="-5.1870760">
        <ele>737.6</ele>
        <time>2019-08-15T08:00:55Z</time>
      </trkpt>
      <trkpt lat="41.6459940" lon="-5.1871210">
        <ele>737.7</ele>
        <time>2019-08-15T08:00:56Z</time>
      </trkpt>
      <trkpt lat="41.6459890" lon="-5.1871660">
        <ele>737.8</ele>
        <time>2019-08-15T08:00:57Z</time>
      </trkpt>
      <trkpt lat="41.6459850" lon="-5.1872090">
        <ele>737.9</ele>
        <time>2019-08-15T08:00:58Z</time>
      </trkpt>
      <trkpt lat="41.6459820" lon="-5.1872510">
        <ele>738.0</ele>
        <time>2019-08-15T08:00:59Z</time>
      </trkpt>
      <trkpt lat="41.6459780" lon="-5.1872900">
        <ele>738.1</ele>
        <time>2019-08-15T08:01:00Z</time>
      </trkpt>
      <trkpt lat="41.6459760" lon="-5.1873310">
        <ele>738.1</ele>
        <time>2019-08-15T08:01:01Z</time>
      </trkpt>
      <trkpt lat="41.6459730" lon="-5.1873700">
        <ele>738.2</ele>
        <time>2019-08-15T08:01:02Z</time>
      </trkpt>
      <trkpt lat="41.6459700" lon="-5.1874080">
        <ele>738.3</ele>
        <time>2019-08-15T08:01:03Z</time>
      </trkpt>
      <trkpt lat="41.6459660" lon="-5.1874460">
        <ele>738.3</ele>
        <time>2019-08-15T08:01:04Z</time>
      </trkpt>
      <trkpt lat="41.6459640" lon="-5.1874830">
        <ele>738.4</ele>
        <time>2019-08-15T08:01:05Z</time>
      </trkpt>
      <trkpt lat="41.6459620" lon="-5.1875190">
        <ele>738.4</ele>
        <time>2019-08-15T08:01:06Z</time>
      </trkpt>
      <trkpt lat="41.6459590" lon="-5.1875540">
        <ele>738.4</ele>
        <time>2019-08-15T08:01:07Z</time>
      </trkpt>
      <trkpt lat="41.6459540" lon="-5.1876210">
        <ele>738.5</ele>
        <time>2019-08-15T08:01:09Z</time>
      </trkpt>
      <trkpt lat="41.6459470" lon="-5.1876890">
        <ele>738.6</ele>
        <time>2019-08-15T08:01:11Z</time>
      </trkpt>
      <trkpt lat="41.6459390" lon="-5.1877560">
        <ele>738.7</ele>
        <time>2019-08-15T08:01:13Z</time>
      </trkpt>
      <trkpt lat="41.6459290" lon="-5.1878210">
        <ele>738.7</ele>
        <time>2019-08-15T08:01:15Z</time>
      </trkpt>
      <trkpt lat="41.6459210" lon="-5.1878860">
        <ele>738.8</ele>
        <time>2019-08-15T08:01:17Z</time>
      </trkpt>
      <trkpt lat="41.6459150" lon="-5.1879500">
        <ele>738.9</ele>
        <time>2019-08-15T08:01:19Z</time>
      </trkpt>
      <trkpt lat="41.6459060" lon="-5.1880150">
        <ele>739.0</ele>
        <time>2019-08-15T08:01:21Z</time>
      </trkpt>
      <trkpt lat="41.6458950" lon="-5.1880810">
        <ele>739.1</ele>
        <time>2019-08-15T08:01:23Z</time>
      </trkpt>
      <trkpt lat="41.6458860" lon="-5.1881470">
        <ele>739.2</ele>
        <time>2019-08-15T08:01:25Z</time>
      </trkpt>
      <trkpt lat="41.6458780" lon="-5.1882140">
        <ele>739.4</ele>
        <time>2019-08-15T08:01:27Z</time>
      </trkpt>
      <trkpt lat="41.6458690" lon="-5.1882800">
        <ele>739.6</ele>
        <time>2019-08-15T08:01:29Z</time>
      </trkpt>
      <trkpt lat="41.6458580" lon="-5.1883490">
        <ele>739.8</ele>
        <time>2019-08-15T08:01:31Z</time>
      </trkpt>
      <trkpt lat="41.6458480" lon="-5.1884190">
        <ele>740.0</ele>
        <time>2019-08-15T08:01:33Z</time>
      </trkpt>
      <trkpt lat="41.6458440" lon="-5.1884890">
        <ele>740.1</ele>
        <time>2019-08-15T08:01:35Z</time>
      </trkpt>
      <trkpt lat="41.6458390" lon="-5.1885610">
        <ele>740.3</ele>
        <time>2019-08-15T08:01:37Z</time>
      </trkpt>
      <trkpt lat="41.6458350" lon="-5.1885980">
        <ele>740.4</ele>
        <time>2019-08-15T08:01:38Z</time>
      </trkpt>
      <trkpt lat="41.6458310" lon="-5.1886350">
        <ele>740.5</ele>
        <time>2019-08-15T08:01:39Z</time>
      </trkpt>
      <trkpt lat="41.6458270" lon="-5.1886720">
        <ele>740.5</ele>
        <time>2019-08-15T08:01:40Z</time>
      </trkpt>
      <trkpt lat="41.6458220" lon="-5.1887080">
        <ele>740.6</ele>
        <time>2019-08-15T08:01:41Z</time>
      </trkpt>
      <trkpt lat="41.6458160" lon="-5.1887440">
        <ele>740.7</ele>
        <time>2019-08-15T08:01:42Z</time>
      </trkpt>
      <trkpt lat="41.6458090" lon="-5.1887790">
        <ele>740.8</ele>
        <time>2019-08-15T08:01:43Z</time>
      </trkpt>
      <trkpt lat="41.6458030" lon="-5.1888160">
        <ele>740.8</ele>
        <time>2019-08-15T08:01:44Z</time>
      </trkpt>
      <trkpt lat="41.6457980" lon="-5.1888520">
        <ele>740.9</ele>
        <time>2019-08-15T08:01:45Z</time>
      </trkpt>
      <trkpt lat="41.6457940" lon="-5.1888870">
        <ele>740.9</ele>
        <time>2019-08-15T08:01:46Z</time>
      </trkpt>
      <trkpt lat="41.6457870" lon="-5.1889540">
        <ele>740.9</ele>
        <time>2019-08-15T08:01:48Z</time>
      </trkpt>
      <trkpt lat="41.6457750" lon="-5.1890310">
        <ele>741.0</ele>
        <time>2019-08-15T08:01:50Z</time>
      </trkpt>
      <trkpt lat="41.6457680" lon="-5.1890720">
        <ele>741.0</ele>
        <time>2019-08-15T08:01:51Z</time>
      </trkpt>
      <trkpt lat="41.6457610" lon="-5.1891150">
        <ele>741.1</ele>
        <time>2019-08-15T08:01:52Z</time>
      </trkpt>
      <trkpt lat="41.6457540" lon="-5.1891590">
        <ele>741.1</ele>
        <time>2019-08-15T08:01:53Z</time>
      </trkpt>
      <trkpt lat="41.6457470" lon="-5.1892040">
        <ele>741.1</ele>
        <time>2019-08-15T08:01:54Z</time>
      </trkpt>
      <trkpt lat="41.6457400" lon="-5.1892490">
        <ele>741.1</ele>
        <time>2019-08-15T08:01:55Z</time>
      </trkpt>
      <trkpt lat="41.6457330" lon="-5.1892930">
        <ele>741.1</ele>
        <time>2019-08-15T08:01:56Z</time>
      </trkpt>
      <trkpt lat="41.6457250" lon="-5.1893370">
        <ele>741.1</ele>
        <time>2019-08-15T08:01:57Z</time>
      </trkpt>
      <trkpt lat="41.6457180" lon="-5.1893800">
        <ele>741.1</ele>
        <time>2019-08-15T08:01:58Z</time>
      </trkpt>
      <trkpt lat="41.6457110" lon="-5.1894240">
        <ele>741.1</ele>
        <time>2019-08-15T08:01:59Z</time>
      </trkpt>
      <trkpt lat="41.6457040" lon="-5.1894700">
        <ele>741.1</ele>
        <time>2019-08-15T08:02:00Z</time>
      </trkpt>
      <trkpt lat="41.6456960" lon="-5.1895200">
        <ele>741.1</ele>
        <time>2019-08-15T08:02:01Z</time>
      </trkpt>
      <trkpt lat="41.6456860" lon="-5.1895700">
        <ele>741.1</ele>
        <time>2019-08-15T08:02:02Z</time>
      </trkpt>
      <trkpt lat="41.6456750" lon="-5.1896190">
        <ele>741.1</ele>
        <time>2019-08-15T08:02:03Z</time>
      </trkpt>
      <trkpt lat="41.6456670" lon="-5.1896700">
        <ele>741.1</ele>
        <time>2019-08-15T08:02:04Z</time>
      </trkpt>
      <trkpt lat="41.6456600" lon="-5.1897250">
        <ele>741.1</ele>
        <time>2019-08-15T08:02:05Z</time>
      </trkpt>
      <trkpt lat="41.6456550" lon="-5.1897810">
        <ele>741.1</ele>
        <time>2019-08-15T08:02:06Z</time>
      </trkpt>
      <trkpt lat="41.6456530" lon="-5.1898400">
        <ele>741.2</ele>
        <time>2019-08-15T08:02:07Z</time>
      </trkpt>
      <trkpt lat="41.6456550" lon="-5.1899000">
        <ele>741.2</ele>
        <time>2019-08-15T08:02:08Z</time>
      </trkpt>
      <trkpt lat="41.6456600" lon="-5.1899600">
        <ele>741.3</ele>
        <time>2019-08-15T08:02:09Z</time>
      </trkpt>
      <trkpt lat="41.6456680" lon="-5.1900190">
        <ele>741.4</ele>
        <time>2019-08-15T08:02:10Z</time>
      </trkpt>
      <trkpt lat="41.6456810" lon="-5.1900770">
        <ele>741.5</ele>
        <time>2019-08-15T08:02:11Z</time>
      </trkpt>
      <trkpt lat="41.6456960" lon="-5.1901320">
        <ele>741.6</ele>
        <time>2019-08-15T08:02:12Z</time>
      </trkpt>
      <trkpt lat="41.6457160" lon="-5.1901860">
        <ele>741.7</ele>
        <time>2019-08-15T08:02:13Z</time>
      </trkpt>
      <trkpt lat="41.6457410" lon="-5.1902360">
        <ele>741.8</ele>
        <time>2019-08-15T08:02:14Z</time>
      </trkpt>
      <trkpt lat="41.6457710" lon="-5.1902830">
        <ele>741.9</ele>
        <time>2019-08-15T08:02:15Z</time>
      </trkpt>
      <trkpt lat="41.6458030" lon="-5.1903280">
        <ele>741.9</ele>
        <time>2019-08-15T08:02:16Z</time>
      </trkpt>
      <trkpt lat="41.6458370" lon="-5.1903710">
        <ele>742.0</ele>
        <time>2019-08-15T08:02:17Z</time>
      </trkpt>
      <trkpt lat="41.6458730" lon="-5.1904110">
        <ele>742.1</ele>
        <time>2019-08-15T08:02:18Z</time>
      </trkpt>
      <trkpt lat="41.6459120" lon="-5.1904460">
        <ele>742.1</ele>
        <time>2019-08-15T08:02:19Z</time>
      </trkpt>
      <trkpt lat="41.6459530" lon="-5.1904800">
        <ele>742.1</ele>
        <time>2019-08-15T08:02:20Z</time>
      </trkpt>
      <trkpt lat="41.6459950" lon="-5.1905150">
        <ele>742.1</ele>
        <time>2019-08-15T08:02:21Z</time>
      </trkpt>
      <trkpt lat="41.6460380" lon="-5.1905510">
        <ele>742.1</ele>
        <time>2019-08-15T08:02:22Z</time>
      </trkpt>
      <trkpt lat="41.6460800" lon="-5.1905900">
        <ele>742.1</ele>
        <time>2019-08-15T08:02:23Z</time>
      </trkpt>
      <trkpt lat="41.6461220" lon="-5.1906280">
        <ele>742.2</ele>
        <time>2019-08-15T08:02:24Z</time>
      </trkpt>
      <trkpt lat="41.6461620" lon="-5.1906720">
        <ele>742.2</ele>
        <time>2019-08-15T08:02:25Z</time>
      </trkpt>
      <trkpt lat="41.6461960" lon="-5.1907230">
        <ele>742.2</ele>
        <time>2019-08-15T08:02:26Z</time>
      </trkpt>
      <trkpt lat="41.6462230" lon="-5.1907820">
        <ele>742.2</ele>
        <time>2019-08-15T08:02:27Z</time>
      </trkpt>
      <trkpt lat="41.6462470" lon="-5.1908460">
        <ele>742.2</ele>
        <time>2019-08-15T08:02:28Z</time>
      </trkpt>
      <trkpt lat="41.6462690" lon="-5.1909130">
        <ele>742.3</ele>
        <time>2019-08-15T08:02:29Z</time>
      </trkpt>
      <trkpt lat="41.6462890" lon="-5.1909830">
        <ele>742.3</ele>
        <time>2019-08-15T08:02:30Z</time>
      </trkpt>
      <trkpt lat="41.6463050" lon="-5.1910540">
        <ele>742.4</ele>
        <time>2019-08-15T08:02:31Z</time>
      </trkpt>
      <trkpt lat="41.6463220" lon="-5.1911250">
        <ele>742.4</ele>
        <time>2019-08-15T08:02:32Z</time>
      </trkpt>
      <trkpt lat="41.6463390" lon="-5.1911940">
        <ele>742.5</ele>
        <time>2019-08-15T08:02:33Z</time>
      </trkpt>
      <trkpt lat="41.6463550" lon="-5.1912630">
        <ele>742.5</ele>
        <time>2019-08-15T08:02:34Z</time>
      </trkpt>
      <trkpt lat="41.6463750" lon="-5.1913300">
        <ele>742.7</ele>
        <time>2019-08-15T08:02:35Z</time>
      </trkpt>
      <trkpt lat="41.6463980" lon="-5.1913950">
        <ele>742.8</ele>
        <time>2019-08-15T08:02:36Z</time>
      </trkpt>
      <trkpt lat="41.6464230" lon="-5.1914610">
        <ele>743.0</ele>
        <time>2019-08-15T08:02:37Z</time>
      </trkpt>
      <trkpt lat="41.6464520" lon="-5.1915230">
        <ele>743.3</ele>
        <time>2019-08-15T08:02:38Z</time>
      </trkpt>
      <trkpt lat="41.6464840" lon="-5.1915830">
        <ele>743.6</ele>
        <time>2019-08-15T08:02:39Z</time>
      </trkpt>
      <trkpt lat="41.6465170" lon="-5.1916400">
        <ele>743.9</ele>
        <time>2019-08-15T08:02:40Z</time>
      </trkpt>
      <trkpt lat="41.6465510" lon="-5.1916940">
        <ele>744.3</ele>
        <time>2019-08-15T08:02:41Z</time>
      </trkpt>
      <trkpt lat="41.6465850" lon="-5.1917460">
        <ele>744.6</ele>
        <time>2019-08-15T08:02:42Z</time>
      </trkpt>
      <trkpt lat="41.6466190" lon="-5.1917970">
        <ele>744.8</ele>
        <time>2019-08-15T08:02:43Z</time>
      </trkpt>
      <trkpt lat="41.6466480" lon="-5.1918490">
        <ele>745.1</ele>
        <time>2019-08-15T08:02:44Z</time>
      </trkpt>
      <trkpt lat="41.6466750" lon="-5.1919040">
        <ele>745.3</ele>
        <time>2019-08-15T08:02:45Z</time>
      </trkpt>
      <trkpt lat="41.6466980" lon="-5.1919620">
        <ele>745.6</ele>
        <time>2019-08-15T08:02:46Z</time>
      </trkpt>
      <trkpt lat="41.6467160" lon="-5.1920230">
        <ele>745.7</ele>
        <time>2019-08-15T08:02:47Z</time>
      </trkpt>
      <trkpt lat="41.6467290" lon="-5.1920860">
        <ele>745.9</ele>
        <time>2019-08-15T08:02:48Z</time>
      </trkpt>
      <trkpt lat="41.6467350" lon="-5.1921510">
        <ele>745.9</ele>
        <time>2019-08-15T08:02:49Z</time>
      </trkpt>
      <trkpt lat="41.6467350" lon="-5.1922180">
        <ele>746.0</ele>
        <time>2019-08-15T08:02:50Z</time>
      </trkpt>
      <trkpt lat="41.6467290" lon="-5.1922830">
        <ele>746.1</ele>
        <time>2019-08-15T08:02:51Z</time>
      </trkpt>
      <trkpt lat="41.6467200" lon="-5.1923470">
        <ele>746.1</ele>
        <time>2019-08-15T08:02:52Z</time>
      </trkpt>
      <trkpt lat="41.6467070" lon="-5.1924090">
        <ele>746.1</ele>
        <time>2019-08-15T08:02:53Z</time>
      </trkpt>
      <trkpt lat="41.6466930" lon="-5.1924710">
        <ele>746.1</ele>
        <time>2019-08-15T08:02:54Z</time>
      </trkpt>
      <trkpt lat="41.6466770" lon="-5.1925300">
        <ele>746.1</ele>
        <time>2019-08-15T08:02:55Z</time>
      </trkpt>
      <trkpt lat="41.6466600" lon="-5.1925900">
        <ele>746.1</ele>
        <time>2019-08-15T08:02:56Z</time>
      </trkpt>
      <trkpt lat="41.6466430" lon="-5.1926490">
        <ele>746.1</ele>
        <time>2019-08-15T08:02:57Z</time>
      </trkpt>
      <trkpt lat="41.6466250" lon="-5.1927090">
        <ele>746.1</ele>
        <time>2019-08-15T08:02:58Z</time>
      </trkpt>
      <trkpt lat="41.6466080" lon="-5.1927700">
        <ele>746.2</ele>
        <time>2019-08-15T08:02:59Z</time>
      </trkpt>
      <trkpt lat="41.6465910" lon="-5.1928330">
        <ele>746.2</ele>
        <time>2019-08-15T08:03:00Z</time>
      </trkpt>
      <trkpt lat="41.6465730" lon="-5.1928950">
        <ele>746.3</ele>
        <time>2019-08-15T08:03:01Z</time>
      </trkpt>
      <trkpt lat="41.6465540" lon="-5.1929570">
        <ele>746.4</ele>
        <time>2019-08-15T08:03:02Z</time>
      </trkpt>
      <trkpt lat="41.6465360" lon="-5.1930200">
        <ele>746.4</ele>
        <time>2019-08-15T08:03:03Z</time>
      </trkpt>
      <trkpt lat="41.6465190" lon="-5.1930810">
        <ele>746.5</ele>
        <time>2019-08-15T08:03:04Z</time>
      </trkpt>
      <trkpt lat="41.6465010" lon="-5.1931400">
        <ele>746.5</ele>
        <time>2019-08-15T08:03:05Z</time>
      </trkpt>
      <trkpt lat="41.6464850" lon="-5.1931970">
        <ele>746.6</ele>
        <time>2019-08-15T08:03:06Z</time>
      </trkpt>
      <trkpt lat="41.6464690" lon="-5.1932500">
        <ele>746.6</ele>
        <time>2019-08-15T08:03:07Z</time>
      </trkpt>
      <trkpt lat="41.6464530" lon="-5.1933010">
        <ele>746.6</ele>
        <time>2019-08-15T08:03:08Z</time>
      </trkpt>
      <trkpt lat="41.6464390" lon="-5.1933490">
        <ele>746.6</ele>
        <time>2019-08-15T08:03:09Z</time>
      </trkpt>
      <trkpt lat="41.6464320" lon="-5.1933960">
        <ele>746.6</ele>
        <time>2019-08-15T08:03:10Z</time>
      </trkpt>
      <trkpt lat="41.6464370" lon="-5.1934400">
        <ele>746.5</ele>
        <time>2019-08-15T08:03:11Z</time>
      </trkpt>
      <trkpt lat="41.6464530" lon="-5.1934740">
        <ele>746.5</ele>
        <time>2019-08-15T08:03:12Z</time>
      </trkpt>
      <trkpt lat="41.6464790" lon="-5.1934970">
        <ele>746.5</ele>
        <time>2019-08-15T08:03:13Z</time>
      </trkpt>
      <trkpt lat="41.6465070" lon="-5.1935100">
        <ele>746.5</ele>
        <time>2019-08-15T08:03:14Z</time>
      </trkpt>
      <trkpt lat="41.6465400" lon="-5.1935190">
        <ele>746.5</ele>
        <time>2019-08-15T08:03:15Z</time>
      </trkpt>
      <trkpt lat="41.6465750" lon="-5.1935310">
        <ele>746.5</ele>
        <time>2019-08-15T08:03:16Z</time>
      </trkpt>
      <trkpt lat="41.6466110" lon="-5.1935440">
        <ele>746.5</ele>
        <time>2019-08-15T08:03:17Z</time>
      </trkpt>
      <trkpt lat="41.6466490" lon="-5.1935580">
        <ele>746.4</ele>
        <time>2019-08-15T08:03:18Z</time>
      </trkpt>
      <trkpt lat="41.6466890" lon="-5.1935690">
        <ele>746.4</ele>
        <time>2019-08-15T08:03:19Z</time>
      </trkpt>
      <trkpt lat="41.6467300" lon="-5.1935810">
        <ele>746.4</ele>
        <time>2019-08-15T08:03:20Z</time>
      </trkpt>
      <trkpt lat="41.6467710" lon="-5.1935940">
        <ele>746.4</ele>
        <time>2019-08-15T08:03:21Z</time>
      </trkpt>
      <trkpt lat="41.6468110" lon="-5.1936090">
        <ele>746.4</ele>
        <time>2019-08-15T08:03:22Z</time>
      </trkpt>
      <trkpt lat="41.6468500" lon="-5.1936220">
        <ele>746.4</ele>
        <time>2019-08-15T08:03:23Z</time>
      </trkpt>
      <trkpt lat="41.6468900" lon="-5.1936360">
        <ele>746.4</ele>
        <time>2019-08-15T08:03:24Z</time>
      </trkpt>
      <trkpt lat="41.6469290" lon="-5.1936470">
        <ele>746.5</ele>
        <time>2019-08-15T08:03:25Z</time>
      </trkpt>
      <trkpt lat="41.6469690" lon="-5.1936600">
        <ele>746.5</ele>
        <time>2019-08-15T08:03:26Z</time>
      </trkpt>
      <trkpt lat="41.6470080" lon="-5.1936730">
        <ele>746.5</ele>
        <time>2019-08-15T08:03:27Z</time>
      </trkpt>
      <trkpt lat="41.6470470" lon="-5.1936880">
        <ele>746.6</ele>
        <time>2019-08-15T08:03:28Z</time>
      </trkpt>
      <trkpt lat="41.6470860" lon="-5.1937000">
        <ele>746.6</ele>
        <time>2019-08-15T08:03:29Z</time>
      </trkpt>
      <trkpt lat="41.6471230" lon="-5.1937150">
        <ele>746.6</ele>
        <time>2019-08-15T08:03:30Z</time>
      </trkpt>
      <trkpt lat="41.6471600" lon="-5.1937300">
        <ele>746.7</ele>
        <time>2019-08-15T08:03:31Z</time>
      </trkpt>
      <trkpt lat="41.6471950" lon="-5.1937450">
        <ele>746.7</ele>
        <time>2019-08-15T08:03:32Z</time>
      </trkpt>
      <trkpt lat="41.6472310" lon="-5.1937570">
        <ele>746.8</ele>
        <time>2019-08-15T08:03:33Z</time>
      </trkpt>
      <trkpt lat="41.6472650" lon="-5.1937690">
        <ele>746.8</ele>
        <time>2019-08-15T08:03:34Z</time>
      </trkpt>
      <trkpt lat="41.6472980" lon="-5.1937800">
        <ele>746.9</ele>
        <time>2019-08-15T08:03:35Z</time>
      </trkpt>
      <trkpt lat="41.6473310" lon="-5.1937930">
        <ele>746.9</ele>
        <time>2019-08-15T08:03:36Z</time>
      </trkpt>
      <trkpt lat="41.6473630" lon="-5.1938050">
        <ele>747.0</ele>
        <time>2019-08-15T08:03:37Z</time>
      </trkpt>
      <trkpt lat="41.6473950" lon="-5.1938180">
        <ele>747.0</ele>
        <time>2019-08-15T08:03:38Z</time>
      </trkpt>
      <trkpt lat="41.6474270" lon="-5.1938290">
        <ele>747.1</ele>
        <time>2019-08-15T08:03:39Z</time>
      </trkpt>
      <trkpt lat="41.6474580" lon="-5.1938400">
        <ele>747.2</ele>
        <time>2019-08-15T08:03:40Z</time>
      </trkpt>
      <trkpt lat="41.6474870" lon="-5.1938510">
        <ele>747.2</ele>
        <time>2019-08-15T08:03:41Z</time>
      </trkpt>
      <trkpt lat="41.6475160" lon="-5.1938620">
        <ele>747.3</ele>
        <time>2019-08-15T08:03:42Z</time>
      </trkpt>
      <trkpt lat="41.6475460" lon="-5.1938720">
        <ele>747.4</ele>
        <time>2019-08-15T08:03:43Z</time>
      </trkpt>
      <trkpt lat="41.6475750" lon="-5.1938830">
        <ele>747.4</ele>
        <time>2019-08-15T08:03:44Z</time>
      </trkpt>
      <trkpt lat="41.6476060" lon="-5.1938950">
        <ele>747.5</ele>
        <time>2019-08-15T08:03:45Z</time>
      </trkpt>
      <trkpt lat="41.6476370" lon="-5.1939050">
        <ele>747.5</ele>
        <time>2019-08-15T08:03:46Z</time>
      </trkpt>
      <trkpt lat="41.6476690" lon="-5.1939140">
        <ele>747.6</ele>
        <time>2019-08-15T08:03:47Z</time>
      </trkpt>
      <trkpt lat="41.6477010" lon="-5.1939240">
        <ele>747.7</ele>
        <time>2019-08-15T08:03:48Z</time>
      </trkpt>
      <trkpt lat="41.6477330" lon="-5.1939350">
        <ele>747.8</ele>
        <time>2019-08-15T08:03:49Z</time>
      </trkpt>
      <trkpt lat="41.6477640" lon="-5.1939460">
        <ele>747.9</ele>
        <time>2019-08-15T08:03:50Z</time>
      </trkpt>
      <trkpt lat="41.6477960" lon="-5.1939590">
        <ele>748.0</ele>
        <time>2019-08-15T08:03:51Z</time>
      </trkpt>
      <trkpt lat="41.6478280" lon="-5.1939700">
        <ele>748.0</ele>
        <time>2019-08-15T08:03:52Z</time>
      </trkpt>
      <trkpt lat="41.6478610" lon="-5.1939810">
        <ele>748.1</ele>
        <time>2019-08-15T08:03:53Z</time>
      </trkpt>
      <trkpt lat="41.6478940" lon="-5.1939940">
        <ele>748.2</ele>
        <time>2019-08-15T08:03:54Z</time>
      </trkpt>
      <trkpt lat="41.6479280" lon="-5.1940070">
        <ele>748.2</ele>
        <time>2019-08-15T08:03:55Z</time>
      </trkpt>
      <trkpt lat="41.6479630" lon="-5.1940200">
        <ele>748.3</ele>
        <time>2019-08-15T08:03:56Z</time>
      </trkpt>
      <trkpt lat="41.6479980" lon="-5.1940340">
        <ele>748.3</ele>
        <time>2019-08-15T08:03:57Z</time>
      </trkpt>
      <trkpt lat="41.6480350" lon="-5.1940480">
        <ele>748.4</ele>
        <time>2019-08-15T08:03:58Z</time>
      </trkpt>
      <trkpt lat="41.6480730" lon="-5.1940610">
        <ele>748.5</ele>
        <time>2019-08-15T08:03:59Z</time>
      </trkpt>
      <trkpt lat="41.6481120" lon="-5.1940740">
        <ele>748.5</ele>
        <time>2019-08-15T08:04:00Z</time>
      </trkpt>
      <trkpt lat="41.6481510" lon="-5.1940880">
        <ele>748.5</ele>
        <time>2019-08-15T08:04:01Z</time>
      </trkpt>
      <trkpt lat="41.6481910" lon="-5.1941030">
        <ele>748.5</ele>
        <time>2019-08-15T08:04:02Z</time>
      </trkpt>
      <trkpt lat="41.6482310" lon="-5.1941170">
        <ele>748.6</ele>
        <time>2019-08-15T08:04:03Z</time>
      </trkpt>
      <trkpt lat="41.6482710" lon="-5.1941330">
        <ele>748.6</ele>
        <time>2019-08-15T08:04:04Z</time>
      </trkpt>
      <trkpt lat="41.6483110" lon="-5.1941490">
        <ele>748.7</ele>
        <time>2019-08-15T08:04:05Z</time>
      </trkpt>
      <trkpt lat="41.6483520" lon="-5.1941650">
        <ele>748.7</ele>
        <time>2019-08-15T08:04:06Z</time>
      </trkpt>
      <trkpt lat="41.6483930" lon="-5.1941820">
        <ele>748.7</ele>
        <time>2019-08-15T08:04:07Z</time>
      </trkpt>
      <trkpt lat="41.6484330" lon="-5.1941960">
        <ele>748.7</ele>
        <time>2019-08-15T08:04:08Z</time>
      </trkpt>
      <trkpt lat="41.6484740" lon="-5.1942120">
        <ele>748.8</ele>
        <time>2019-08-15T08:04:09Z</time>
      </trkpt>
      <trkpt lat="41.6485180" lon="-5.1942300">
        <ele>748.8</ele>
        <time>2019-08-15T08:04:10Z</time>
      </trkpt>
      <trkpt lat="41.6485620" lon="-5.1942480">
        <ele>748.8</ele>
        <time>2019-08-15T08:04:11Z</time>
      </trkpt>
      <trkpt lat="41.6486070" lon="-5.1942650">
        <ele>748.9</ele>
        <time>2019-08-15T08:04:12Z</time>
      </trkpt>
      <trkpt lat="41.6486530" lon="-5.1942820">
        <ele>748.9</ele>
        <time>2019-08-15T08:04:13Z</time>
      </trkpt>
      <trkpt lat="41.6487000" lon="-5.1942980">
        <ele>749.0</ele>
        <time>2019-08-15T08:04:14Z</time>
      </trkpt>
      <trkpt lat="41.6487470" lon="-5.1943160">
        <ele>749.1</ele>
        <time>2019-08-15T08:04:15Z</time>
      </trkpt>
      <trkpt lat="41.6487930" lon="-5.1943350">
        <ele>749.2</ele>
        <time>2019-08-15T08:04:16Z</time>
      </trkpt>
      <trkpt lat="41.6488390" lon="-5.1943540">
        <ele>749.3</ele>
        <time>2019-08-15T08:04:17Z</time>
      </trkpt>
      <trkpt lat="41.6488840" lon="-5.1943710">
        <ele>749.4</ele>
        <time>2019-08-15T08:04:18Z</time>
      </trkpt>
      <trkpt lat="41.6489290" lon="-5.1943910">
        <ele>749.5</ele>
        <time>2019-08-15T08:04:19Z</time>
      </trkpt>
      <trkpt lat="41.6489730" lon="-5.1944100">
        <ele>749.6</ele>
        <time>2019-08-15T08:04:20Z</time>
      </trkpt>
      <trkpt lat="41.6490170" lon="-5.1944270">
        <ele>749.7</ele>
        <time>2019-08-15T08:04:21Z</time>
      </trkpt>
      <trkpt lat="41.6490600" lon="-5.1944420">
        <ele>749.8</ele>
        <time>2019-08-15T08:04:22Z</time>
      </trkpt>
      <trkpt lat="41.6491020" lon="-5.1944590">
        <ele>749.9</ele>
        <time>2019-08-15T08:04:23Z</time>
      </trkpt>
      <trkpt lat="41.6491430" lon="-5.1944750">
        <ele>750.0</ele>
        <time>2019-08-15T08:04:24Z</time>
      </trkpt>
      <trkpt lat="41.6491820" lon="-5.1944890">
        <ele>750.1</ele>
        <time>2019-08-15T08:04:25Z</time>
      </trkpt>
      <trkpt lat="41.6492180" lon="-5.1945030">
        <ele>750.1</ele>
        <time>2019-08-15T08:04:26Z</time>
      </trkpt>
      <trkpt lat="41.6492540" lon="-5.1945170">
        <ele>750.2</ele>
        <time>2019-08-15T08:04:27Z</time>
      </trkpt>
      <trkpt lat="41.6492890" lon="-5.1945290">
        <ele>750.3</ele>
        <time>2019-08-15T08:04:28Z</time>
      </trkpt>
      <trkpt lat="41.6493230" lon="-5.1945390">
        <ele>750.4</ele>
        <time>2019-08-15T08:04:29Z</time>
      </trkpt>
      <trkpt lat="41.6493560" lon="-5.1945490">
        <ele>750.4</ele>
        <time>2019-08-15T08:04:30Z</time>
      </trkpt>
      <trkpt lat="41.6493840" lon="-5.1945580">
        <ele>750.5</ele>
        <time>2019-08-15T08:04:31Z</time>
      </trkpt>
      <trkpt lat="41.6494090" lon="-5.1945690">
        <ele>750.6</ele>
        <time>2019-08-15T08:04:32Z</time>
      </trkpt>
      <trkpt lat="41.6494560" lon="-5.1945900">
        <ele>750.6</ele>
        <time>2019-08-15T08:04:34Z</time>
      </trkpt>
      <trkpt lat="41.6494990" lon="-5.1946060">
        <ele>750.7</ele>
        <time>2019-08-15T08:04:36Z</time>
      </trkpt>
      <trkpt lat="41.6495370" lon="-5.1946200">
        <ele>750.7</ele>
        <time>2019-08-15T08:04:38Z</time>
      </trkpt>
      <trkpt lat="41.6495750" lon="-5.1946340">
        <ele>750.8</ele>
        <time>2019-08-15T08:04:40Z</time>
      </trkpt>
      <trkpt lat="41.6496120" lon="-5.1946480">
        <ele>750.8</ele>
        <time>2019-08-15T08:04:42Z</time>
      </trkpt>
      <trkpt lat="41.6496500" lon="-5.1946590">
        <ele>750.9</ele>
        <time>2019-08-15T08:04:44Z</time>
      </trkpt>
      <trkpt lat="41.6496880" lon="-5.1946730">
        <ele>750.9</ele>
        <time>2019-08-15T08:04:46Z</time>
      </trkpt>
      <trkpt lat="41.6497250" lon="-5.1946880">
        <ele>751.0</ele>
        <time>2019-08-15T08:04:48Z</time>
      </trkpt>
      <trkpt lat="41.6497660" lon="-5.1947040">
        <ele>751.0</ele>
        <time>2019-08-15T08:04:50Z</time>
      </trkpt>
      <trkpt lat="41.6498100" lon="-5.1947210">
        <ele>751.0</ele>
        <time>2019-08-15T08:04:52Z</time>
      </trkpt>
      <trkpt lat="41.6498560" lon="-5.1947390">
        <ele>751.0</ele>
        <time>2019-08-15T08:04:54Z</time>
      </trkpt>
      <trkpt lat="41.6499090" lon="-5.1947620">
        <ele>751.1</ele>
        <time>2019-08-15T08:04:56Z</time>
      </trkpt>
      <trkpt lat="41.6499400" lon="-5.1947750">
        <ele>751.1</ele>
        <time>2019-08-15T08:04:57Z</time>
      </trkpt>
      <trkpt lat="41.6499720" lon="-5.1947870">
        <ele>751.2</ele>
        <time>2019-08-15T08:04:58Z</time>
      </trkpt>
      <trkpt lat="41.6500080" lon="-5.1947990">
        <ele>751.2</ele>
        <time>2019-08-15T08:04:59Z</time>
      </trkpt>
      <trkpt lat="41.6500460" lon="-5.1948120">
        <ele>751.2</ele>
        <time>2019-08-15T08:05:00Z</time>
      </trkpt>
      <trkpt lat="41.6500880" lon="-5.1948280">
        <ele>751.3</ele>
        <time>2019-08-15T08:05:01Z</time>
      </trkpt>
      <trkpt lat="41.6501330" lon="-5.1948450">
        <ele>751.3</ele>
        <time>2019-08-15T08:05:02Z</time>
      </trkpt>
      <trkpt lat="41.6501830" lon="-5.1948630">
        <ele>751.4</ele>
        <time>2019-08-15T08:05:03Z</time>
      </trkpt>
      <trkpt lat="41.6502380" lon="-5.1948830">
        <ele>751.5</ele>
        <time>2019-08-15T08:05:04Z</time>
      </trkpt>
      <trkpt lat="41.6502980" lon="-5.1949040">
        <ele>751.6</ele>
        <time>2019-08-15T08:05:05Z</time>
      </trkpt>
      <trkpt lat="41.6503620" lon="-5.1949270">
        <ele>751.7</ele>
        <time>2019-08-15T08:05:06Z</time>
      </trkpt>
      <trkpt lat="41.6504280" lon="-5.1949520">
        <ele>751.8</ele>
        <time>2019-08-15T08:05:07Z</time>
      </trkpt>
      <trkpt lat="41.6504940" lon="-5.1949770">
        <ele>752.0</ele>
        <time>2019-08-15T08:05:08Z</time>
      </trkpt>
      <trkpt lat="41.6505610" lon="-5.1950000">
        <ele>752.1</ele>
        <time>2019-08-15T08:05:09Z</time>
      </trkpt>
      <trkpt lat="41.6506260" lon="-5.1950240">
        <ele>752.3</ele>
        <time>2019-08-15T08:05:10Z</time>
      </trkpt>
      <trkpt lat="41.6506880" lon="-5.1950470">
        <ele>752.4</ele>
        <time>2019-08-15T08:05:11Z</time>
      </trkpt>
      <trkpt lat="41.6507470" lon="-5.1950700">
        <ele>752.5</ele>
        <time>2019-08-15T08:05:12Z</time>
      </trkpt>
      <trkpt lat="41.6508020" lon="-5.1950910">
        <ele>752.6</ele>
        <time>2019-08-15T08:05:13Z</time>
      </trkpt>
      <trkpt lat="41.6508520" lon="-5.1951120">
        <ele>752.7</ele>
        <time>2019-08-15T08:05:14Z</time>
      </trkpt>
      <trkpt lat="41.6509000" lon="-5.1951320">
        <ele>752.7</ele>
        <time>2019-08-15T08:05:15Z</time>
      </trkpt>
      <trkpt lat="41.6509460" lon="-5.1951520">
        <ele>752.8</ele>
        <time>2019-08-15T08:05:16Z</time>
      </trkpt>
      <trkpt lat="41.6509910" lon="-5.1951690">
        <ele>752.8</ele>
        <time>2019-08-15T08:05:17Z</time>
      </trkpt>
      <trkpt lat="41.6510340" lon="-5.1951850">
        <ele>752.9</ele>
        <time>2019-08-15T08:05:18Z</time>
      </trkpt>
      <trkpt lat="41.6510750" lon="-5.1952000">
        <ele>752.9</ele>
        <time>2019-08-15T08:05:19Z</time>
      </trkpt>
      <trkpt lat="41.6511150" lon="-5.1952160">
        <ele>753.0</ele>
        <time>2019-08-15T08:05:20Z</time>
      </trkpt>
      <trkpt lat="41.6511530" lon="-5.1952310">
        <ele>753.0</ele>
        <time>2019-08-15T08:05:21Z</time>
      </trkpt>
      <trkpt lat="41.6511890" lon="-5.1952470">
        <ele>753.1</ele>
        <time>2019-08-15T08:05:22Z</time>
      </trkpt>
      <trkpt lat="41.6512250" lon="-5.1952630">
        <ele>753.2</ele>
        <time>2019-08-15T08:05:23Z</time>
      </trkpt>
      <trkpt lat="41.6512590" lon="-5.1952780">
        <ele>753.3</ele>
        <time>2019-08-15T08:05:24Z</time>
      </trkpt>
      <trkpt lat="41.6512940" lon="-5.1952930">
        <ele>753.4</ele>
        <time>2019-08-15T08:05:25Z</time>
      </trkpt>
      <trkpt lat="41.6513270" lon="-5.1953050">
        <ele>753.5</ele>
        <time>2019-08-15T08:05:26Z</time>
      </trkpt>
      <trkpt lat="41.6513600" lon="-5.1953210">
        <ele>753.6</ele>
        <time>2019-08-15T08:05:27Z</time>
      </trkpt>
      <trkpt lat="41.6513930" lon="-5.1953350">
        <ele>753.6</ele>
        <time>2019-08-15T08:05:28Z</time>
      </trkpt>
      <trkpt lat="41.6514250" lon="-5.1953480">
        <ele>753.7</ele>
        <time>2019-08-15T08:05:29Z</time>
      </trkpt>
      <trkpt lat="41.6514560" lon="-5.1953610">
        <ele>753.8</ele>
        <time>2019-08-15T08:05:30Z</time>
      </trkpt>
      <trkpt lat="41.6514880" lon="-5.1953730">
        <ele>753.9</ele>
        <time>2019-08-15T08:05:31Z</time>
      </trkpt>
      <trkpt lat="41.6515190" lon="-5.1953850">
        <ele>754.0</ele>
        <time>2019-08-15T08:05:32Z</time>
      </trkpt>
      <trkpt lat="41.6515500" lon="-5.1953970">
        <ele>754.1</ele>
        <time>2019-08-15T08:05:33Z</time>
      </trkpt>
      <trkpt lat="41.6515800" lon="-5.1954080">
        <ele>754.2</ele>
        <time>2019-08-15T08:05:34Z</time>
      </trkpt>
      <trkpt lat="41.6516100" lon="-5.1954180">
        <ele>754.3</ele>
        <time>2019-08-15T08:05:35Z</time>
      </trkpt>
      <trkpt lat="41.6516390" lon="-5.1954290">
        <ele>754.4</ele>
        <time>2019-08-15T08:05:36Z</time>
      </trkpt>
      <trkpt lat="41.6516690" lon="-5.1954400">
        <ele>754.4</ele>
        <time>2019-08-15T08:05:37Z</time>
      </trkpt>
      <trkpt lat="41.6516980" lon="-5.1954510">
        <ele>754.5</ele>
        <time>2019-08-15T08:05:38Z</time>
      </trkpt>
      <trkpt lat="41.6517280" lon="-5.1954620">
        <ele>754.6</ele>
        <time>2019-08-15T08:05:39Z</time>
      </trkpt>
      <trkpt lat="41.6517580" lon="-5.1954720">
        <ele>754.7</ele>
        <time>2019-08-15T08:05:40Z</time>
      </trkpt>
      <trkpt lat="41.6517880" lon="-5.1954840">
        <ele>754.8</ele>
        <time>2019-08-15T08:05:41Z</time>
      </trkpt>
      <trkpt lat="41.6518170" lon="-5.1954950">
        <ele>754.9</ele>
        <time>2019-08-15T08:05:42Z</time>
      </trkpt>
      <trkpt lat="41.6518460" lon="-5.1955050">
        <ele>755.0</ele>
        <time>2019-08-15T08:05:43Z</time>
      </trkpt>
      <trkpt lat="41.6518750" lon="-5.1955160">
        <ele>755.1</ele>
        <time>2019-08-15T08:05:44Z</time>
      </trkpt>
      <trkpt lat="41.6519030" lon="-5.1955260">
        <ele>755.2</ele>
        <time>2019-08-15T08:05:45Z</time>
      </trkpt>
      <trkpt lat="41.6519320" lon="-5.1955360">
        <ele>755.3</ele>
        <time>2019-08-15T08:05:46Z</time>
      </trkpt>
      <trkpt lat="41.6519600" lon="-5.1955460">
        <ele>755.4</ele>
        <time>2019-08-15T08:05:47Z</time>
      </trkpt>
      <trkpt lat="41.6519870" lon="-5.1955580">
        <ele>755.5</ele>
        <time>2019-08-15T08:05:48Z</time>
      </trkpt>
      <trkpt lat="41.6520150" lon="-5.1955680">
        <ele>755.6</ele>
        <time>2019-08-15T08:05:49Z</time>
      </trkpt>
      <trkpt lat="41.6520430" lon="-5.1955780">
        <ele>755.6</ele>
        <time>2019-08-15T08:05:50Z</time>
      </trkpt>
      <trkpt lat="41.6520720" lon="-5.1955880">
        <ele>755.7</ele>
        <time>2019-08-15T08:05:51Z</time>
      </trkpt>
      <trkpt lat="41.6521000" lon="-5.1955980">
        <ele>755.7</ele>
        <time>2019-08-15T08:05:52Z</time>
      </trkpt>
      <trkpt lat="41.6521280" lon="-5.1956100">
        <ele>755.8</ele>
        <time>2019-08-15T08:05:53Z</time>
      </trkpt>
      <trkpt lat="41.6521550" lon="-5.1956200">
        <ele>755.9</ele>
        <time>2019-08-15T08:05:54Z</time>
      </trkpt>
      <trkpt lat="41.6521840" lon="-5.1956310">
        <ele>755.9</ele>
        <time>2019-08-15T08:05:55Z</time>
      </trkpt>
      <trkpt lat="41.6522120" lon="-5.1956410">
        <ele>756.0</ele>
        <time>2019-08-15T08:05:56Z</time>
      </trkpt>
      <trkpt lat="41.6522400" lon="-5.1956510">
        <ele>756.1</ele>
        <time>2019-08-15T08:05:57Z</time>
      </trkpt>
      <trkpt lat="41.6522680" lon="-5.1956620">
        <ele>756.2</ele>
        <time>2019-08-15T08:05:58Z</time>
      </trkpt>
      <trkpt lat="41.6522970" lon="-5.1956730">
        <ele>756.2</ele>
        <time>2019-08-15T08:05:59Z</time>
      </trkpt>
      <trkpt lat="41.6523250" lon="-5.1956830">
        <ele>756.3</ele>
        <time>2019-08-15T08:06:00Z</time>
      </trkpt>
      <trkpt lat="41.6523530" lon="-5.1956930">
        <ele>756.4</ele>
        <time>2019-08-15T08:06:01Z</time>
      </trkpt>
      <trkpt lat="41.6523800" lon="-5.1957030">
        <ele>756.4</ele>
        <time>2019-08-15T08:06:02Z</time>
      </trkpt>
      <trkpt lat="41.6524080" lon="-5.1957130">
        <ele>756.5</ele>
        <time>2019-08-15T08:06:03Z</time>
      </trkpt>
      <trkpt lat="41.6524360" lon="-5.1957230">
        <ele>756.5</ele>
        <time>2019-08-15T08:06:04Z</time>
      </trkpt>
      <trkpt lat="41.6524630" lon="-5.1957330">
        <ele>756.6</ele>
        <time>2019-08-15T08:06:05Z</time>
      </trkpt>
      <trkpt lat="41.6524900" lon="-5.1957430">
        <ele>756.6</ele>
        <time>2019-08-15T08:06:06Z</time>
      </trkpt>
      <trkpt lat="41.6525180" lon="-5.1957540">
        <ele>756.7</ele>
        <time>2019-08-15T08:06:07Z</time>
      </trkpt>
      <trkpt lat="41.6525460" lon="-5.1957640">
        <ele>756.8</ele>
        <time>2019-08-15T08:06:08Z</time>
      </trkpt>
      <trkpt lat="41.6525750" lon="-5.1957740">
        <ele>756.9</ele>
        <time>2019-08-15T08:06:09Z</time>
      </trkpt>
      <trkpt lat="41.6526030" lon="-5.1957840">
        <ele>756.9</ele>
        <time>2019-08-15T08:06:10Z</time>
      </trkpt>
      <trkpt lat="41.6526320" lon="-5.1957950">
        <ele>757.0</ele>
        <time>2019-08-15T08:06:11Z</time>
      </trkpt>
      <trkpt lat="41.6526610" lon="-5.1958070">
        <ele>757.1</ele>
        <time>2019-08-15T08:06:12Z</time>
      </trkpt>
      <trkpt lat="41.6526900" lon="-5.1958180">
        <ele>757.1</ele>
        <time>2019-08-15T08:06:13Z</time>
      </trkpt>
      <trkpt lat="41.6527190" lon="-5.1958280">
        <ele>757.2</ele>
        <time>2019-08-15T08:06:14Z</time>
      </trkpt>
      <trkpt lat="41.6527480" lon="-5.1958380">
        <ele>757.2</ele>
        <time>2019-08-15T08:06:15Z</time>
      </trkpt>
      <trkpt lat="41.6527770" lon="-5.1958490">
        <ele>757.2</ele>
        <time>2019-08-15T08:06:16Z</time>
      </trkpt>
      <trkpt lat="41.6528060" lon="-5.1958600">
        <ele>757.3</ele>
        <time>2019-08-15T08:06:17Z</time>
      </trkpt>
      <trkpt lat="41.6528340" lon="-5.1958710">
        <ele>757.4</ele>
        <time>2019-08-15T08:06:18Z</time>
      </trkpt>
      <trkpt lat="41.6528630" lon="-5.1958810">
        <ele>757.5</ele>
        <time>2019-08-15T08:06:19Z</time>
      </trkpt>
      <trkpt lat="41.6528920" lon="-5.1958920">
        <ele>757.6</ele>
        <time>2019-08-15T08:06:20Z</time>
      </trkpt>
      <trkpt lat="41.6529220" lon="-5.1959020">
        <ele>757.6</ele>
        <time>2019-08-15T08:06:21Z</time>
      </trkpt>
      <trkpt lat="41.6529510" lon="-5.1959120">
        <ele>757.7</ele>
        <time>2019-08-15T08:06:22Z</time>
      </trkpt>
      <trkpt lat="41.6529810" lon="-5.1959230">
        <ele>757.8</ele>
        <time>2019-08-15T08:06:23Z</time>
      </trkpt>
      <trkpt lat="41.6530100" lon="-5.1959350">
        <ele>757.9</ele>
        <time>2019-08-15T08:06:24Z</time>
      </trkpt>
      <trkpt lat="41.6530400" lon="-5.1959470">
        <ele>757.9</ele>
        <time>2019-08-15T08:06:25Z</time>
      </trkpt>
      <trkpt lat="41.6530710" lon="-5.1959590">
        <ele>758.0</ele>
        <time>2019-08-15T08:06:26Z</time>
      </trkpt>
      <trkpt lat="41.6531010" lon="-5.1959700">
        <ele>758.0</ele>
        <time>2019-08-15T08:06:27Z</time>
      </trkpt>
      <trkpt lat="41.6531320" lon="-5.1959820">
        <ele>758.0</ele>
        <time>2019-08-15T08:06:28Z</time>
      </trkpt>
      <trkpt lat="41.6531630" lon="-5.1959930">
        <ele>758.1</ele>
        <time>2019-08-15T08:06:29Z</time>
      </trkpt>
      <trkpt lat="41.6531940" lon="-5.1960050">
        <ele>758.1</ele>
        <time>2019-08-15T08:06:30Z</time>
      </trkpt>
      <trkpt lat="41.6532230" lon="-5.1960160">
        <ele>758.2</ele>
        <time>2019-08-15T08:06:31Z</time>
      </trkpt>
      <trkpt lat="41.6532530" lon="-5.1960270">
        <ele>758.3</ele>
        <time>2019-08-15T08:06:32Z</time>
      </trkpt>
      <trkpt lat="41.6532830" lon="-5.1960370">
        <ele>758.3</ele>
        <time>2019-08-15T08:06:33Z</time>
      </trkpt>
      <trkpt lat="41.6533130" lon="-5.1960480">
        <ele>758.4</ele>
        <time>2019-08-15T08:06:34Z</time>
      </trkpt>
      <trkpt lat="41.6533440" lon="-5.1960590">
        <ele>758.5</ele>
        <time>2019-08-15T08:06:35Z</time>
      </trkpt>
      <trkpt lat="41.6533750" lon="-5.1960710">
        <ele>758.6</ele>
        <time>2019-08-15T08:06:36Z</time>
      </trkpt>
      <trkpt lat="41.6534060" lon="-5.1960820">
        <ele>758.6</ele>
        <time>2019-08-15T08:06:37Z</time>
      </trkpt>
      <trkpt lat="41.6534380" lon="-5.1960930">
        <ele>758.6</ele>
        <time>2019-08-15T08:06:38Z</time>
      </trkpt>
      <trkpt lat="41.6534700" lon="-5.1961050">
        <ele>758.7</ele>
        <time>2019-08-15T08:06:39Z</time>
      </trkpt>
      <trkpt lat="41.6535020" lon="-5.1961160">
        <ele>758.7</ele>
        <time>2019-08-15T08:06:40Z</time>
      </trkpt>
      <trkpt lat="41.6535340" lon="-5.1961290">
        <ele>758.9</ele>
        <time>2019-08-15T08:06:41Z</time>
      </trkpt>
      <trkpt lat="41.6535660" lon="-5.1961420">
        <ele>759.0</ele>
        <time>2019-08-15T08:06:42Z</time>
      </trkpt>
      <trkpt lat="41.6535980" lon="-5.1961540">
        <ele>759.1</ele>
        <time>2019-08-15T08:06:43Z</time>
      </trkpt>
      <trkpt lat="41.6536310" lon="-5.1961660">
        <ele>759.3</ele>
        <time>2019-08-15T08:06:44Z</time>
      </trkpt>
      <trkpt lat="41.6536640" lon="-5.1961770">
        <ele>759.5</ele>
        <time>2019-08-15T08:06:45Z</time>
      </trkpt>
      <trkpt lat="41.6536970" lon="-5.1961880">
        <ele>759.8</ele>
        <time>2019-08-15T08:06:46Z</time>
      </trkpt>
      <trkpt lat="41.6537300" lon="-5.1961990">
        <ele>760.0</ele>
        <time>2019-08-15T08:06:47Z</time>
      </trkpt>
      <trkpt lat="41.6537640" lon="-5.1962110">
        <ele>760.1</ele>
        <time>2019-08-15T08:06:48Z</time>
      </trkpt>
      <trkpt lat="41.6537970" lon="-5.1962230">
        <ele>760.2</ele>
        <time>2019-08-15T08:06:49Z</time>
      </trkpt>
      <trkpt lat="41.6538300" lon="-5.1962340">
        <ele>760.3</ele>
        <time>2019-08-15T08:06:50Z</time>
      </trkpt>
      <trkpt lat="41.6538630" lon="-5.1962450">
        <ele>760.6</ele>
        <time>2019-08-15T08:06:51Z</time>
      </trkpt>
      <trkpt lat="41.6538950" lon="-5.1962570">
        <ele>760.8</ele>
        <time>2019-08-15T08:06:52Z</time>
      </trkpt>
      <trkpt lat="41.6539260" lon="-5.1962690">
        <ele>761.1</ele>
        <time>2019-08-15T08:06:53Z</time>
      </trkpt>
      <trkpt lat="41.6539570" lon="-5.1962810">
        <ele>761.4</ele>
        <time>2019-08-15T08:06:54Z</time>
      </trkpt>
      <trkpt lat="41.6539860" lon="-5.1962930">
        <ele>761.6</ele>
        <time>2019-08-15T08:06:55Z</time>
      </trkpt>
      <trkpt lat="41.6540160" lon="-5.1963050">
        <ele>761.9</ele>
        <time>2019-08-15T08:06:56Z</time>
      </trkpt>
      <trkpt lat="41.6540460" lon="-5.1963150">
        <ele>762.1</ele>
        <time>2019-08-15T08:06:57Z</time>
      </trkpt>
      <trkpt lat="41.6540750" lon="-5.1963260">
        <ele>762.3</ele>
        <time>2019-08-15T08:06:58Z</time>
      </trkpt>
      <trkpt lat="41.6541040" lon="-5.1963370">
        <ele>762.4</ele>
        <time>2019-08-15T08:06:59Z</time>
      </trkpt>
      <trkpt lat="41.6541330" lon="-5.1963490">
        <ele>762.6</ele>
        <time>2019-08-15T08:07:00Z</time>
      </trkpt>
      <trkpt lat="41.6541620" lon="-5.1963590">
        <ele>762.8</ele>
        <time>2019-08-15T08:07:01Z</time>
      </trkpt>
      <trkpt lat="41.6541920" lon="-5.1963700">
        <ele>763.0</ele>
        <time>2019-08-15T08:07:02Z</time>
      </trkpt>
      <trkpt lat="41.6542210" lon="-5.1963820">
        <ele>763.3</ele>
        <time>2019-08-15T08:07:03Z</time>
      </trkpt>
      <trkpt lat="41.6542510" lon="-5.1963940">
        <ele>763.6</ele>
        <time>2019-08-15T08:07:04Z</time>
      </trkpt>
      <trkpt lat="41.6542820" lon="-5.1964060">
        <ele>763.8</ele>
        <time>2019-08-15T08:07:05Z</time>
      </trkpt>
      <trkpt lat="41.6543130" lon="-5.1964170">
        <ele>764.0</ele>
        <time>2019-08-15T08:07:06Z</time>
      </trkpt>
      <trkpt lat="41.6543450" lon="-5.1964290">
        <ele>764.2</ele>
        <time>2019-08-15T08:07:07Z</time>
      </trkpt>
      <trkpt lat="41.6543770" lon="-5.1964420">
        <ele>764.4</ele>
        <time>2019-08-15T08:07:08Z</time>
      </trkpt>
      <trkpt lat="41.6544110" lon="-5.1964560">
        <ele>764.6</ele>
        <time>2019-08-15T08:07:09Z</time>
      </trkpt>
      <trkpt lat="41.6544440" lon="-5.1964690">
        <ele>764.8</ele>
        <time>2019-08-15T08:07:10Z</time>
      </trkpt>
      <trkpt lat="41.6544790" lon="-5.1964800">
        <ele>764.9</ele>
        <time>2019-08-15T08:07:11Z</time>
      </trkpt>
      <trkpt lat="41.6545150" lon="-5.1964910">
        <ele>765.1</ele>
        <time>2019-08-15T08:07:12Z</time>
      </trkpt>
      <trkpt lat="41.6545510" lon="-5.1965010">
        <ele>765.3</ele>
        <time>2019-08-15T08:07:13Z</time>
      </trkpt>
      <trkpt lat="41.6545880" lon="-5.1965120">
        <ele>765.4</ele>
        <time>2019-08-15T08:07:14Z</time>
      </trkpt>
      <trkpt lat="41.6546250" lon="-5.1965240">
        <ele>765.6</ele>
        <time>2019-08-15T08:07:15Z</time>
      </trkpt>
      <trkpt lat="41.6546620" lon="-5.1965390">
        <ele>765.8</ele>
        <time>2019-08-15T08:07:16Z</time>
      </trkpt>
      <trkpt lat="41.6546980" lon="-5.1965530">
        <ele>766.0</ele>
        <time>2019-08-15T08:07:17Z</time>
      </trkpt>
      <trkpt lat="41.6547310" lon="-5.1965670">
        <ele>766.1</ele>
        <time>2019-08-15T08:07:18Z</time>
      </trkpt>
      <trkpt lat="41.6547640" lon="-5.1965810">
        <ele>766.3</ele>
        <time>2019-08-15T08:07:19Z</time>
      </trkpt>
      <trkpt lat="41.6547970" lon="-5.1965940">
        <ele>766.4</ele>
        <time>2019-08-15T08:07:20Z</time>
      </trkpt>
      <trkpt lat="41.6548310" lon="-5.1966050">
        <ele>766.5</ele>
        <time>2019-08-15T08:07:21Z</time>
      </trkpt>
      <trkpt lat="41.6548650" lon="-5.1966170">
        <ele>766.6</ele>
        <time>2019-08-15T08:07:22Z</time>
      </trkpt>
      <trkpt lat="41.6549000" lon="-5.1966280">
        <ele>766.6</ele>
        <time>2019-08-15T08:07:23Z</time>
      </trkpt>
      <trkpt lat="41.6549350" lon="-5.1966410">
        <ele>766.7</ele>
        <time>2019-08-15T08:07:24Z</time>
      </trkpt>
      <trkpt lat="41.6549700" lon="-5.1966540">
        <ele>766.8</ele>
        <time>2019-08-15T08:07:25Z</time>
      </trkpt>
      <trkpt lat="41.6550040" lon="-5.1966670">
        <ele>766.9</ele>
        <time>2019-08-15T08:07:26Z</time>
      </trkpt>
      <trkpt lat="41.6550370" lon="-5.1966790">
        <ele>767.0</ele>
        <time>2019-08-15T08:07:27Z</time>
      </trkpt>
      <trkpt lat="41.6550690" lon="-5.1966910">
        <ele>767.1</ele>
        <time>2019-08-15T08:07:28Z</time>
      </trkpt>
      <trkpt lat="41.6551000" lon="-5.1967020">
        <ele>767.2</ele>
        <time>2019-08-15T08:07:29Z</time>
      </trkpt>
      <trkpt lat="41.6551290" lon="-5.1967130">
        <ele>767.3</ele>
        <time>2019-08-15T08:07:30Z</time>
      </trkpt>
      <trkpt lat="41.6551580" lon="-5.1967230">
        <ele>767.3</ele>
        <time>2019-08-15T08:07:31Z</time>
      </trkpt>
      <trkpt lat="41.6551860" lon="-5.1967340">
        <ele>767.4</ele>
        <time>2019-08-15T08:07:32Z</time>
      </trkpt>
      <trkpt lat="41.6552110" lon="-5.1967460">
        <ele>767.5</ele>
        <time>2019-08-15T08:07:33Z</time>
      </trkpt>
      <trkpt lat="41.6552370" lon="-5.1967570">
        <ele>767.6</ele>
        <time>2019-08-15T08:07:34Z</time>
      </trkpt>
      <trkpt lat="41.6552630" lon="-5.1967650">
        <ele>767.7</ele>
        <time>2019-08-15T08:07:35Z</time>
      </trkpt>
      <trkpt lat="41.6553110" lon="-5.1967840">
        <ele>767.8</ele>
        <time>2019-08-15T08:07:37Z</time>
      </trkpt>
      <trkpt lat="41.6553550" lon="-5.1968010">
        <ele>767.9</ele>
        <time>2019-08-15T08:07:39Z</time>
      </trkpt>
      <trkpt lat="41.6553970" lon="-5.1968160">
        <ele>768.1</ele>
        <time>2019-08-15T08:07:41Z</time>
      </trkpt>
      <trkpt lat="41.6554350" lon="-5.1968310">
        <ele>768.2</ele>
        <time>2019-08-15T08:07:43Z</time>
      </trkpt>
      <trkpt lat="41.6554710" lon="-5.1968440">
        <ele>768.3</ele>
        <time>2019-08-15T08:07:45Z</time>
      </trkpt>
      <trkpt lat="41.6555060" lon="-5.1968570">
        <ele>768.3</ele>
        <time>2019-08-15T08:07:47Z</time>
      </trkpt>
      <trkpt lat="41.6555400" lon="-5.1968710">
        <ele>768.4</ele>
        <time>2019-08-15T08:07:49Z</time>
      </trkpt>
      <trkpt lat="41.6555720" lon="-5.1968830">
        <ele>768.4</ele>
        <time>2019-08-15T08:07:51Z</time>
      </trkpt>
      <trkpt lat="41.6556030" lon="-5.1968950">
        <ele>768.4</ele>
        <time>2019-08-15T08:07:53Z</time>
      </trkpt>
      <trkpt lat="41.6556360" lon="-5.1969080">
        <ele>768.4</ele>
        <time>2019-08-15T08:07:55Z</time>
      </trkpt>
      <trkpt lat="41.6556670" lon="-5.1969200">
        <ele>768.5</ele>
        <time>2019-08-15T08:07:57Z</time>
      </trkpt>
      <trkpt lat="41.6556980" lon="-5.1969310">
        <ele>768.5</ele>
        <time>2019-08-15T08:07:59Z</time>
      </trkpt>
      <trkpt lat="41.6557290" lon="-5.1969420">
        <ele>768.5</ele>
        <time>2019-08-15T08:08:01Z</time>
      </trkpt>
      <trkpt lat="41.6557600" lon="-5.1969560">
        <ele>768.5</ele>
        <time>2019-08-15T08:08:03Z</time>
      </trkpt>
      <trkpt lat="41.6557920" lon="-5.1969670">
        <ele>768.5</ele>
        <time>2019-08-15T08:08:05Z</time>
      </trkpt>
      <trkpt lat="41.6558250" lon="-5.1969770">
        <ele>768.5</ele>
        <time>2019-08-15T08:08:07Z</time>
      </trkpt>
      <trkpt lat="41.6558580" lon="-5.1969870">
        <ele>768.5</ele>
        <time>2019-08-15T08:08:09Z</time>
      </trkpt>
      <trkpt lat="41.6558930" lon="-5.1969980">
        <ele>768.4</ele>
        <time>2019-08-15T08:08:11Z</time>
      </trkpt>
      <trkpt lat="41.6559300" lon="-5.1970090">
        <ele>768.4</ele>
        <time>2019-08-15T08:08:13Z</time>
      </trkpt>
      <trkpt lat="41.6559700" lon="-5.1970200">
        <ele>768.3</ele>
        <time>2019-08-15T08:08:15Z</time>
      </trkpt>
      <trkpt lat="41.6560170" lon="-5.1970290">
        <ele>768.3</ele>
        <time>2019-08-15T08:08:17Z</time>
      </trkpt>
      <trkpt lat="41.6560740" lon="-5.1970380">
        <ele>768.2</ele>
        <time>2019-08-15T08:08:19Z</time>
      </trkpt>
      <trkpt lat="41.6561050" lon="-5.1970410">
        <ele>768.2</ele>
        <time>2019-08-15T08:08:20Z</time>
      </trkpt>
      <trkpt lat="41.6561380" lon="-5.1970400">
        <ele>768.1</ele>
        <time>2019-08-15T08:08:21Z</time>
      </trkpt>
      <trkpt lat="41.6561740" lon="-5.1970380">
        <ele>768.1</ele>
        <time>2019-08-15T08:08:22Z</time>
      </trkpt>
      <trkpt lat="41.6562090" lon="-5.1970350">
        <ele>768.1</ele>
        <time>2019-08-15T08:08:23Z</time>
      </trkpt>
      <trkpt lat="41.6562450" lon="-5.1970290">
        <ele>768.0</ele>
        <time>2019-08-15T08:08:24Z</time>
      </trkpt>
      <trkpt lat="41.6562820" lon="-5.1970230">
        <ele>768.0</ele>
        <time>2019-08-15T08:08:25Z</time>
      </trkpt>
      <trkpt lat="41.6563200" lon="-5.1970190">
        <ele>768.0</ele>
        <time>2019-08-15T08:08:26Z</time>
      </trkpt>
      <trkpt lat="41.6563600" lon="-5.1970150">
        <ele>768.0</ele>
        <time>2019-08-15T08:08:27Z</time>
      </trkpt>
      <trkpt lat="41.6564000" lon="-5.1970090">
        <ele>768.0</ele>
        <time>2019-08-15T08:08:28Z</time>
      </trkpt>
      <trkpt lat="41.6564420" lon="-5.1970040">
        <ele>767.9</ele>
        <time>2019-08-15T08:08:29Z</time>
      </trkpt>
      <trkpt lat="41.6564840" lon="-5.1969980">
        <ele>767.8</ele>
        <time>2019-08-15T08:08:30Z</time>
      </trkpt>
      <trkpt lat="41.6565260" lon="-5.1969920">
        <ele>767.8</ele>
        <time>2019-08-15T08:08:31Z</time>
      </trkpt>
      <trkpt lat="41.6565700" lon="-5.1969860">
        <ele>767.7</ele>
        <time>2019-08-15T08:08:32Z</time>
      </trkpt>
      <trkpt lat="41.6566130" lon="-5.1969820">
        <ele>767.7</ele>
        <time>2019-08-15T08:08:33Z</time>
      </trkpt>
      <trkpt lat="41.6566580" lon="-5.1969760">
        <ele>767.7</ele>
        <time>2019-08-15T08:08:34Z</time>
      </trkpt>
      <trkpt lat="41.6567040" lon="-5.1969700">
        <ele>767.6</ele>
        <time>2019-08-15T08:08:35Z</time>
      </trkpt>
      <trkpt lat="41.6567530" lon="-5.1969620">
        <ele>767.5</ele>
        <time>2019-08-15T08:08:36Z</time>
      </trkpt>
      <trkpt lat="41.6568040" lon="-5.1969560">
        <ele>767.4</ele>
        <time>2019-08-15T08:08:37Z</time>
      </trkpt>
      <trkpt lat="41.6568580" lon="-5.1969500">
        <ele>767.3</ele>
        <time>2019-08-15T08:08:38Z</time>
      </trkpt>
      <trkpt lat="41.6569120" lon="-5.1969420">
        <ele>767.2</ele>
        <time>2019-08-15T08:08:39Z</time>
      </trkpt>
      <trkpt lat="41.6569680" lon="-5.1969340">
        <ele>767.2</ele>
        <time>2019-08-15T08:08:40Z</time>
      </trkpt>
      <trkpt lat="41.6570240" lon="-5.1969270">
        <ele>767.2</ele>
        <time>2019-08-15T08:08:41Z</time>
      </trkpt>
      <trkpt lat="41.6570800" lon="-5.1969210">
        <ele>767.2</ele>
        <time>2019-08-15T08:08:42Z</time>
      </trkpt>
      <trkpt lat="41.6571370" lon="-5.1969160">
        <ele>767.3</ele>
        <time>2019-08-15T08:08:43Z</time>
      </trkpt>
      <trkpt lat="41.6571920" lon="-5.1969080">
        <ele>767.4</ele>
        <time>2019-08-15T08:08:44Z</time>
      </trkpt>
      <trkpt lat="41.6572410" lon="-5.1969010">
        <ele>767.5</ele>
        <time>2019-08-15T08:08:45Z</time>
      </trkpt>
      <trkpt lat="41.6572860" lon="-5.1968950">
        <ele>767.7</ele>
        <time>2019-08-15T08:08:46Z</time>
      </trkpt>
      <trkpt lat="41.6573270" lon="-5.1968930">
        <ele>767.8</ele>
        <time>2019-08-15T08:08:47Z</time>
      </trkpt>
      <trkpt lat="41.6573650" lon="-5.1968900">
        <ele>768.0</ele>
        <time>2019-08-15T08:08:48Z</time>
      </trkpt>
      <trkpt lat="41.6574000" lon="-5.1968850">
        <ele>768.2</ele>
        <time>2019-08-15T08:08:49Z</time>
      </trkpt>
      <trkpt lat="41.6574340" lon="-5.1968800">
        <ele>768.5</ele>
        <time>2019-08-15T08:08:50Z</time>
      </trkpt>
      <trkpt lat="41.6574670" lon="-5.1968750">
        <ele>768.7</ele>
        <time>2019-08-15T08:08:51Z</time>
      </trkpt>
      <trkpt lat="41.6575020" lon="-5.1968700">
        <ele>768.9</ele>
        <time>2019-08-15T08:08:52Z</time>
      </trkpt>
      <trkpt lat="41.6575360" lon="-5.1968660">
        <ele>769.1</ele>
        <time>2019-08-15T08:08:53Z</time>
      </trkpt>
      <trkpt lat="41.6575700" lon="-5.1968620">
        <ele>769.3</ele>
        <time>2019-08-15T08:08:54Z</time>
      </trkpt>
      <trkpt lat="41.6576020" lon="-5.1968560">
        <ele>769.4</ele>
        <time>2019-08-15T08:08:55Z</time>
      </trkpt>
      <trkpt lat="41.6576340" lon="-5.1968490">
        <ele>769.6</ele>
        <time>2019-08-15T08:08:56Z</time>
      </trkpt>
      <trkpt lat="41.6576650" lon="-5.1968430">
        <ele>769.7</ele>
        <time>2019-08-15T08:08:57Z</time>
      </trkpt>
      <trkpt lat="41.6576940" lon="-5.1968380">
        <ele>769.8</ele>
        <time>2019-08-15T08:08:58Z</time>
      </trkpt>
      <trkpt lat="41.6577230" lon="-5.1968340">
        <ele>770.0</ele>
        <time>2019-08-15T08:08:59Z</time>
      </trkpt>
      <trkpt lat="41.6577510" lon="-5.1968330">
        <ele>770.1</ele>
        <time>2019-08-15T08:09:00Z</time>
      </trkpt>
      <trkpt lat="41.6577790" lon="-5.1968330">
        <ele>770.2</ele>
        <time>2019-08-15T08:09:01Z</time>
      </trkpt>
      <trkpt lat="41.6578060" lon="-5.1968300">
        <ele>770.2</ele>
        <time>2019-08-15T08:09:02Z</time>
      </trkpt>
      <trkpt lat="41.6578580" lon="-5.1968230">
        <ele>770.3</ele>
        <time>2019-08-15T08:09:04Z</time>
      </trkpt>
      <trkpt lat="41.6579070" lon="-5.1968170">
        <ele>770.4</ele>
        <time>2019-08-15T08:09:06Z</time>
      </trkpt>
      <trkpt lat="41.6579570" lon="-5.1968100">
        <ele>770.5</ele>
        <time>2019-08-15T08:09:08Z</time>
      </trkpt>
      <trkpt lat="41.6580070" lon="-5.1968040">
        <ele>770.6</ele>
        <time>2019-08-15T08:09:10Z</time>
      </trkpt>
      <trkpt lat="41.6580570" lon="-5.1967980">
        <ele>770.7</ele>
        <time>2019-08-15T08:09:12Z</time>
      </trkpt>
      <trkpt lat="41.6581080" lon="-5.1967930">
        <ele>770.7</ele>
        <time>2019-08-15T08:09:14Z</time>
      </trkpt>
      <trkpt lat="41.6581570" lon="-5.1967890">
        <ele>770.6</ele>
        <time>2019-08-15T08:09:16Z</time>
      </trkpt>
      <trkpt lat="41.6582040" lon="-5.1967860">
        <ele>770.5</ele>
        <time>2019-08-15T08:09:18Z</time>
      </trkpt>
      <trkpt lat="41.6582510" lon="-5.1967850">
        <ele>770.5</ele>
        <time>2019-08-15T08:09:20Z</time>
      </trkpt>
      <trkpt lat="41.6582980" lon="-5.1967870">
        <ele>770.7</ele>
        <time>2019-08-15T08:09:22Z</time>
      </trkpt>
      <trkpt lat="41.6583460" lon="-5.1967900">
        <ele>770.6</ele>
        <time>2019-08-15T08:09:24Z</time>
      </trkpt>
      <trkpt lat="41.6583950" lon="-5.1967970">
        <ele>770.5</ele>
        <time>2019-08-15T08:09:26Z</time>
      </trkpt>
      <trkpt lat="41.6584460" lon="-5.1968070">
        <ele>770.4</ele>
        <time>2019-08-15T08:09:28Z</time>
      </trkpt>
      <trkpt lat="41.6584960" lon="-5.1968200">
        <ele>770.3</ele>
        <time>2019-08-15T08:09:30Z</time>
      </trkpt>
      <trkpt lat="41.6585460" lon="-5.1968340">
        <ele>770.3</ele>
        <time>2019-08-15T08:09:32Z</time>
      </trkpt>
      <trkpt lat="41.6586010" lon="-5.1968520">
        <ele>770.3</ele>
        <time>2019-08-15T08:09:34Z</time>
      </trkpt>
      <trkpt lat="41.6586300" lon="-5.1968610">
        <ele>770.3</ele>
        <time>2019-08-15T08:09:35Z</time>
      </trkpt>
      <trkpt lat="41.6586610" lon="-5.1968710">
        <ele>770.3</ele>
        <time>2019-08-15T08:09:36Z</time>
      </trkpt>
      <trkpt lat="41.6586920" lon="-5.1968820">
        <ele>770.2</ele>
        <time>2019-08-15T08:09:37Z</time>
      </trkpt>
      <trkpt lat="41.6587220" lon="-5.1968920">
        <ele>770.1</ele>
        <time>2019-08-15T08:09:38Z</time>
      </trkpt>
      <trkpt lat="41.6587560" lon="-5.1969030">
        <ele>770.1</ele>
        <time>2019-08-15T08:09:39Z</time>
      </trkpt>
      <trkpt lat="41.6587910" lon="-5.1969150">
        <ele>770.1</ele>
        <time>2019-08-15T08:09:40Z</time>
      </trkpt>
      <trkpt lat="41.6588280" lon="-5.1969260">
        <ele>770.1</ele>
        <time>2019-08-15T08:09:41Z</time>
      </trkpt>
      <trkpt lat="41.6588670" lon="-5.1969380">
        <ele>770.2</ele>
        <time>2019-08-15T08:09:42Z</time>
      </trkpt>
      <trkpt lat="41.6589090" lon="-5.1969510">
        <ele>770.3</ele>
        <time>2019-08-15T08:09:43Z</time>
      </trkpt>
      <trkpt lat="41.6589520" lon="-5.1969650">
        <ele>770.4</ele>
        <time>2019-08-15T08:09:44Z</time>
      </trkpt>
      <trkpt lat="41.6589970" lon="-5.1969780">
        <ele>770.4</ele>
        <time>2019-08-15T08:09:45Z</time>
      </trkpt>
      <trkpt lat="41.6590430" lon="-5.1969920">
        <ele>770.6</ele>
        <time>2019-08-15T08:09:46Z</time>
      </trkpt>
      <trkpt lat="41.6590920" lon="-5.1970050">
        <ele>770.8</ele>
        <time>2019-08-15T08:09:47Z</time>
      </trkpt>
      <trkpt lat="41.6591430" lon="-5.1970170">
        <ele>771.0</ele>
        <time>2019-08-15T08:09:48Z</time>
      </trkpt>
      <trkpt lat="41.6591930" lon="-5.1970310">
        <ele>771.2</ele>
        <time>2019-08-15T08:09:49Z</time>
      </trkpt>
      <trkpt lat="41.6592420" lon="-5.1970450">
        <ele>771.5</ele>
        <time>2019-08-15T08:09:50Z</time>
      </trkpt>
      <trkpt lat="41.6592910" lon="-5.1970580">
        <ele>771.8</ele>
        <time>2019-08-15T08:09:51Z</time>
      </trkpt>
      <trkpt lat="41.6593390" lon="-5.1970740">
        <ele>772.1</ele>
        <time>2019-08-15T08:09:52Z</time>
      </trkpt>
      <trkpt lat="41.6593840" lon="-5.1970910">
        <ele>772.3</ele>
        <time>2019-08-15T08:09:53Z</time>
      </trkpt>
      <trkpt lat="41.6594260" lon="-5.1971080">
        <ele>772.5</ele>
        <time>2019-08-15T08:09:54Z</time>
      </trkpt>
      <trkpt lat="41.6594660" lon="-5.1971250">
        <ele>772.8</ele>
        <time>2019-08-15T08:09:55Z</time>
      </trkpt>
      <trkpt lat="41.6595060" lon="-5.1971420">
        <ele>773.0</ele>
        <time>2019-08-15T08:09:56Z</time>
      </trkpt>
      <trkpt lat="41.6595430" lon="-5.1971550">
        <ele>773.2</ele>
        <time>2019-08-15T08:09:57Z</time>
      </trkpt>
      <trkpt lat="41.6595810" lon="-5.1971670">
        <ele>773.4</ele>
        <time>2019-08-15T08:09:58Z</time>
      </trkpt>
      <trkpt lat="41.6596160" lon="-5.1971770">
        <ele>773.5</ele>
        <time>2019-08-15T08:09:59Z</time>
      </trkpt>
      <trkpt lat="41.6596530" lon="-5.1971860">
        <ele>773.6</ele>
        <time>2019-08-15T08:10:00Z</time>
      </trkpt>
      <trkpt lat="41.6596880" lon="-5.1971970">
        <ele>773.7</ele>
        <time>2019-08-15T08:10:01Z</time>
      </trkpt>
      <trkpt lat="41.6597240" lon="-5.1972070">
        <ele>773.9</ele>
        <time>2019-08-15T08:10:02Z</time>
      </trkpt>
      <trkpt lat="41.6597590" lon="-5.1972190">
        <ele>774.0</ele>
        <time>2019-08-15T08:10:03Z</time>
      </trkpt>
      <trkpt lat="41.6597930" lon="-5.1972280">
        <ele>774.1</ele>
        <time>2019-08-15T08:10:04Z</time>
      </trkpt>
      <trkpt lat="41.6598260" lon="-5.1972370">
        <ele>774.1</ele>
        <time>2019-08-15T08:10:05Z</time>
      </trkpt>
      <trkpt lat="41.6598590" lon="-5.1972470">
        <ele>774.2</ele>
        <time>2019-08-15T08:10:06Z</time>
      </trkpt>
      <trkpt lat="41.6598920" lon="-5.1972560">
        <ele>774.3</ele>
        <time>2019-08-15T08:10:07Z</time>
      </trkpt>
      <trkpt lat="41.6599250" lon="-5.1972640">
        <ele>774.4</ele>
        <time>2019-08-15T08:10:08Z</time>
      </trkpt>
      <trkpt lat="41.6599570" lon="-5.1972730">
        <ele>774.5</ele>
        <time>2019-08-15T08:10:09Z</time>
      </trkpt>
      <trkpt lat="41.6599880" lon="-5.1972830">
        <ele>774.6</ele>
        <time>2019-08-15T08:10:10Z</time>
      </trkpt>
      <trkpt lat="41.6600190" lon="-5.1972920">
        <ele>774.8</ele>
        <time>2019-08-15T08:10:11Z</time>
      </trkpt>
      <trkpt lat="41.6600500" lon="-5.1973000">
        <ele>774.9</ele>
        <time>2019-08-15T08:10:12Z</time>
      </trkpt>
      <trkpt lat="41.6600810" lon="-5.1973080">
        <ele>774.9</ele>
        <time>2019-08-15T08:10:13Z</time>
      </trkpt>
      <trkpt lat="41.6601110" lon="-5.1973170">
        <ele>775.0</ele>
        <time>2019-08-15T08:10:14Z</time>
      </trkpt>
      <trkpt lat="41.6601420" lon="-5.1973260">
        <ele>775.0</ele>
        <time>2019-08-15T08:10:15Z</time>
      </trkpt>
      <trkpt lat="41.6601730" lon="-5.1973350">
        <ele>775.1</ele>
        <time>2019-08-15T08:10:16Z</time>
      </trkpt>
      <trkpt lat="41.6602050" lon="-5.1973430">
        <ele>775.2</ele>
        <time>2019-08-15T08:10:17Z</time>
      </trkpt>
      <trkpt lat="41.6602360" lon="-5.1973520">
        <ele>775.3</ele>
        <time>2019-08-15T08:10:18Z</time>
      </trkpt>
      <trkpt lat="41.6602670" lon="-5.1973610">
        <ele>775.5</ele>
        <time>2019-08-15T08:10:19Z</time>
      </trkpt>
      <trkpt lat="41.6602970" lon="-5.1973710">
        <ele>775.6</ele>
        <time>2019-08-15T08:10:20Z</time>
      </trkpt>
      <trkpt lat="41.6603270" lon="-5.1973800">
        <ele>775.7</ele>
        <time>2019-08-15T08:10:21Z</time>
      </trkpt>
      <trkpt lat="41.6603570" lon="-5.1973890">
        <ele>775.7</ele>
        <time>2019-08-15T08:10:22Z</time>
      </trkpt>
      <trkpt lat="41.6603870" lon="-5.1973980">
        <ele>775.8</ele>
        <time>2019-08-15T08:10:23Z</time>
      </trkpt>
      <trkpt lat="41.6604170" lon="-5.1974070">
        <ele>775.9</ele>
        <time>2019-08-15T08:10:24Z</time>
      </trkpt>
      <trkpt lat="41.6604470" lon="-5.1974160">
        <ele>776.1</ele>
        <time>2019-08-15T08:10:25Z</time>
      </trkpt>
      <trkpt lat="41.6604770" lon="-5.1974260">
        <ele>776.2</ele>
        <time>2019-08-15T08:10:26Z</time>
      </trkpt>
      <trkpt lat="41.6605080" lon="-5.1974360">
        <ele>776.3</ele>
        <time>2019-08-15T08:10:27Z</time>
      </trkpt>
      <trkpt lat="41.6605370" lon="-5.1974460">
        <ele>776.3</ele>
        <time>2019-08-15T08:10:28Z</time>
      </trkpt>
      <trkpt lat="41.6605680" lon="-5.1974550">
        <ele>776.4</ele>
        <time>2019-08-15T08:10:29Z</time>
      </trkpt>
      <trkpt lat="41.6605980" lon="-5.1974640">
        <ele>776.5</ele>
        <time>2019-08-15T08:10:30Z</time>
      </trkpt>
      <trkpt lat="41.6606270" lon="-5.1974730">
        <ele>776.6</ele>
        <time>2019-08-15T08:10:31Z</time>
      </trkpt>
      <trkpt lat="41.6606570" lon="-5.1974820">
        <ele>776.7</ele>
        <time>2019-08-15T08:10:32Z</time>
      </trkpt>
      <trkpt lat="41.6606870" lon="-5.1974890">
        <ele>776.8</ele>
        <time>2019-08-15T08:10:33Z</time>
      </trkpt>
      <trkpt lat="41.6607180" lon="-5.1974970">
        <ele>776.9</ele>
        <time>2019-08-15T08:10:34Z</time>
      </trkpt>
      <trkpt lat="41.6607480" lon="-5.1975050">
        <ele>777.0</ele>
        <time>2019-08-15T08:10:35Z</time>
      </trkpt>
      <trkpt lat="41.6607770" lon="-5.1975150">
        <ele>777.0</ele>
        <time>2019-08-15T08:10:36Z</time>
      </trkpt>
      <trkpt lat="41.6608070" lon="-5.1975240">
        <ele>777.0</ele>
        <time>2019-08-15T08:10:37Z</time>
      </trkpt>
      <trkpt lat="41.6608350" lon="-5.1975320">
        <ele>777.0</ele>
        <time>2019-08-15T08:10:38Z</time>
      </trkpt>
      <trkpt lat="41.6608640" lon="-5.1975400">
        <ele>777.0</ele>
        <time>2019-08-15T08:10:39Z</time>
      </trkpt>
      <trkpt lat="41.6608920" lon="-5.1975480">
        <ele>777.1</ele>
        <time>2019-08-15T08:10:40Z</time>
      </trkpt>
      <trkpt lat="41.6609210" lon="-5.1975570">
        <ele>777.1</ele>
        <time>2019-08-15T08:10:41Z</time>
      </trkpt>
      <trkpt lat="41.6609500" lon="-5.1975650">
        <ele>777.0</ele>
        <time>2019-08-15T08:10:42Z</time>
      </trkpt>
      <trkpt lat="41.6609820" lon="-5.1975760">
        <ele>777.0</ele>
        <time>2019-08-15T08:10:43Z</time>
      </trkpt>
      <trkpt lat="41.6610170" lon="-5.1975870">
        <ele>776.9</ele>
        <time>2019-08-15T08:10:44Z</time>
      </trkpt>
      <trkpt lat="41.6610520" lon="-5.1975990">
        <ele>776.9</ele>
        <time>2019-08-15T08:10:45Z</time>
      </trkpt>
      <trkpt lat="41.6610880" lon="-5.1976090">
        <ele>776.8</ele>
        <time>2019-08-15T08:10:46Z</time>
      </trkpt>
      <trkpt lat="41.6611240" lon="-5.1976180">
        <ele>776.8</ele>
        <time>2019-08-15T08:10:47Z</time>
      </trkpt>
      <trkpt lat="41.6611610" lon="-5.1976270">
        <ele>776.8</ele>
        <time>2019-08-15T08:10:48Z</time>
      </trkpt>
      <trkpt lat="41.6611980" lon="-5.1976380">
        <ele>776.8</ele>
        <time>2019-08-15T08:10:49Z</time>
      </trkpt>
      <trkpt lat="41.6612350" lon="-5.1976490">
        <ele>776.6</ele>
        <time>2019-08-15T08:10:50Z</time>
      </trkpt>
      <trkpt lat="41.6612730" lon="-5.1976600">
        <ele>776.5</ele>
        <time>2019-08-15T08:10:51Z</time>
      </trkpt>
      <trkpt lat="41.6613120" lon="-5.1976720">
        <ele>776.5</ele>
        <time>2019-08-15T08:10:52Z</time>
      </trkpt>
      <trkpt lat="41.6613510" lon="-5.1976850">
        <ele>776.4</ele>
        <time>2019-08-15T08:10:53Z</time>
      </trkpt>
      <trkpt lat="41.6613920" lon="-5.1976990">
        <ele>776.4</ele>
        <time>2019-08-15T08:10:54Z</time>
      </trkpt>
      <trkpt lat="41.6614310" lon="-5.1977120">
        <ele>776.4</ele>
        <time>2019-08-15T08:10:55Z</time>
      </trkpt>
      <trkpt lat="41.6614720" lon="-5.1977240">
        <ele>776.4</ele>
        <time>2019-08-15T08:10:56Z</time>
      </trkpt>
      <trkpt lat="41.6615150" lon="-5.1977360">
        <ele>776.3</ele>
        <time>2019-08-15T08:10:57Z</time>
      </trkpt>
      <trkpt lat="41.6615580" lon="-5.1977480">
        <ele>776.3</ele>
        <time>2019-08-15T08:10:58Z</time>
      </trkpt>
      <trkpt lat="41.6616020" lon="-5.1977610">
        <ele>776.4</ele>
        <time>2019-08-15T08:10:59Z</time>
      </trkpt>
      <trkpt lat="41.6616440" lon="-5.1977740">
        <ele>776.4</ele>
        <time>2019-08-15T08:11:00Z</time>
      </trkpt>
      <trkpt lat="41.6616870" lon="-5.1977880">
        <ele>776.4</ele>
        <time>2019-08-15T08:11:01Z</time>
      </trkpt>
      <trkpt lat="41.6617290" lon="-5.1978040">
        <ele>776.4</ele>
        <time>2019-08-15T08:11:02Z</time>
      </trkpt>
      <trkpt lat="41.6617730" lon="-5.1978160">
        <ele>776.5</ele>
        <time>2019-08-15T08:11:03Z</time>
      </trkpt>
      <trkpt lat="41.6618160" lon="-5.1978290">
        <ele>776.6</ele>
        <time>2019-08-15T08:11:04Z</time>
      </trkpt>
      <trkpt lat="41.6618580" lon="-5.1978410">
        <ele>776.6</ele>
        <time>2019-08-15T08:11:05Z</time>
      </trkpt>
      <trkpt lat="41.6619000" lon="-5.1978540">
        <ele>776.6</ele>
        <time>2019-08-15T08:11:06Z</time>
      </trkpt>
      <trkpt lat="41.6619420" lon="-5.1978650">
        <ele>776.6</ele>
        <time>2019-08-15T08:11:07Z</time>
      </trkpt>
      <trkpt lat="41.6619830" lon="-5.1978760">
        <ele>776.6</ele>
        <time>2019-08-15T08:11:08Z</time>
      </trkpt>
      <trkpt lat="41.6620230" lon="-5.1978890">
        <ele>776.6</ele>
        <time>2019-08-15T08:11:09Z</time>
      </trkpt>
      <trkpt lat="41.6620640" lon="-5.1979000">
        <ele>776.7</ele>
        <time>2019-08-15T08:11:10Z</time>
      </trkpt>
      <trkpt lat="41.6621040" lon="-5.1979110">
        <ele>776.7</ele>
        <time>2019-08-15T08:11:11Z</time>
      </trkpt>
      <trkpt lat="41.6621430" lon="-5.1979230">
        <ele>776.8</ele>
        <time>2019-08-15T08:11:12Z</time>
      </trkpt>
      <trkpt lat="41.6621830" lon="-5.1979360">
        <ele>776.8</ele>
        <time>2019-08-15T08:11:13Z</time>
      </trkpt>
      <trkpt lat="41.6622220" lon="-5.1979490">
        <ele>776.8</ele>
        <time>2019-08-15T08:11:14Z</time>
      </trkpt>
      <trkpt lat="41.6622620" lon="-5.1979610">
        <ele>776.9</ele>
        <time>2019-08-15T08:11:15Z</time>
      </trkpt>
      <trkpt lat="41.6623000" lon="-5.1979730">
        <ele>776.9</ele>
        <time>2019-08-15T08:11:16Z</time>
      </trkpt>
      <trkpt lat="41.6623380" lon="-5.1979850">
        <ele>777.0</ele>
        <time>2019-08-15T08:11:17Z</time>
      </trkpt>
      <trkpt lat="41.6623760" lon="-5.1979970">
        <ele>777.1</ele>
        <time>2019-08-15T08:11:18Z</time>
      </trkpt>
      <trkpt lat="41.6624130" lon="-5.1980070">
        <ele>777.2</ele>
        <time>2019-08-15T08:11:19Z</time>
      </trkpt>
      <trkpt lat="41.6624510" lon="-5.1980200">
        <ele>777.1</ele>
        <time>2019-08-15T08:11:20Z</time>
      </trkpt>
      <trkpt lat="41.6624870" lon="-5.1980350">
        <ele>777.1</ele>
        <time>2019-08-15T08:11:21Z</time>
      </trkpt>
      <trkpt lat="41.6625220" lon="-5.1980500">
        <ele>777.2</ele>
        <time>2019-08-15T08:11:22Z</time>
      </trkpt>
      <trkpt lat="41.6625560" lon="-5.1980630">
        <ele>777.2</ele>
        <time>2019-08-15T08:11:23Z</time>
      </trkpt>
      <trkpt lat="41.6625900" lon="-5.1980760">
        <ele>777.3</ele>
        <time>2019-08-15T08:11:24Z</time>
      </trkpt>
      <trkpt lat="41.6626250" lon="-5.1980890">
        <ele>777.3</ele>
        <time>2019-08-15T08:11:25Z</time>
      </trkpt>
      <trkpt lat="41.6626580" lon="-5.1981010">
        <ele>777.3</ele>
        <time>2019-08-15T08:11:26Z</time>
      </trkpt>
      <trkpt lat="41.6626900" lon="-5.1981110">
        <ele>777.4</ele>
        <time>2019-08-15T08:11:27Z</time>
      </trkpt>
      <trkpt lat="41.6627220" lon="-5.1981220">
        <ele>777.4</ele>
        <time>2019-08-15T08:11:28Z</time>
      </trkpt>
      <trkpt lat="41.6627530" lon="-5.1981340">
        <ele>777.4</ele>
        <time>2019-08-15T08:11:29Z</time>
      </trkpt>
      <trkpt lat="41.6627830" lon="-5.1981460">
        <ele>777.3</ele>
        <time>2019-08-15T08:11:30Z</time>
      </trkpt>
      <trkpt lat="41.6628120" lon="-5.1981580">
        <ele>777.1</ele>
        <time>2019-08-15T08:11:31Z</time>
      </trkpt>
      <trkpt lat="41.6628400" lon="-5.1981690">
        <ele>777.1</ele>
        <time>2019-08-15T08:11:32Z</time>
      </trkpt>
      <trkpt lat="41.6628680" lon="-5.1981780">
        <ele>777.2</ele>
        <time>2019-08-15T08:11:33Z</time>
      </trkpt>
      <trkpt lat="41.6628940" lon="-5.1981870">
        <ele>777.2</ele>
        <time>2019-08-15T08:11:34Z</time>
      </trkpt>
      <trkpt lat="41.6629190" lon="-5.1981980">
        <ele>777.3</ele>
        <time>2019-08-15T08:11:35Z</time>
      </trkpt>
      <trkpt lat="41.6629650" lon="-5.1982160">
        <ele>777.4</ele>
        <time>2019-08-15T08:11:37Z</time>
      </trkpt>
      <trkpt lat="41.6630060" lon="-5.1982310">
        <ele>777.5</ele>
        <time>2019-08-15T08:11:39Z</time>
      </trkpt>
      <trkpt lat="41.6630460" lon="-5.1982470">
        <ele>777.5</ele>
        <time>2019-08-15T08:11:41Z</time>
      </trkpt>
      <trkpt lat="41.6630830" lon="-5.1982620">
        <ele>777.6</ele>
        <time>2019-08-15T08:11:43Z</time>
      </trkpt>
      <trkpt lat="41.6631210" lon="-5.1982790">
        <ele>777.9</ele>
        <time>2019-08-15T08:11:45Z</time>
      </trkpt>
      <trkpt lat="41.6631590" lon="-5.1982940">
        <ele>778.3</ele>
        <time>2019-08-15T08:11:47Z</time>
      </trkpt>
      <trkpt lat="41.6631970" lon="-5.1983070">
        <ele>778.7</ele>
        <time>2019-08-15T08:11:49Z</time>
      </trkpt>
      <trkpt lat="41.6632340" lon="-5.1983220">
        <ele>779.1</ele>
        <time>2019-08-15T08:11:51Z</time>
      </trkpt>
      <trkpt lat="41.6632700" lon="-5.1983380">
        <ele>779.5</ele>
        <time>2019-08-15T08:11:53Z</time>
      </trkpt>
      <trkpt lat="41.6633060" lon="-5.1983500">
        <ele>779.9</ele>
        <time>2019-08-15T08:11:55Z</time>
      </trkpt>
      <trkpt lat="41.6633410" lon="-5.1983630">
        <ele>780.2</ele>
        <time>2019-08-15T08:11:57Z</time>
      </trkpt>
      <trkpt lat="41.6633780" lon="-5.1983780">
        <ele>780.4</ele>
        <time>2019-08-15T08:11:59Z</time>
      </trkpt>
      <trkpt lat="41.6634140" lon="-5.1983930">
        <ele>780.8</ele>
        <time>2019-08-15T08:12:01Z</time>
      </trkpt>
      <trkpt lat="41.6634520" lon="-5.1984080">
        <ele>781.2</ele>
        <time>2019-08-15T08:12:03Z</time>
      </trkpt>
      <trkpt lat="41.6634930" lon="-5.1984230">
        <ele>781.7</ele>
        <time>2019-08-15T08:12:05Z</time>
      </trkpt>
      <trkpt lat="41.6635350" lon="-5.1984330">
        <ele>782.0</ele>
        <time>2019-08-15T08:12:07Z</time>
      </trkpt>
      <trkpt lat="41.6635790" lon="-5.1984440">
        <ele>782.5</ele>
        <time>2019-08-15T08:12:09Z</time>
      </trkpt>
      <trkpt lat="41.6636280" lon="-5.1984600">
        <ele>783.1</ele>
        <time>2019-08-15T08:12:11Z</time>
      </trkpt>
      <trkpt lat="41.6636820" lon="-5.1984760">
        <ele>783.5</ele>
        <time>2019-08-15T08:12:13Z</time>
      </trkpt>
      <trkpt lat="41.6637100" lon="-5.1984820">
        <ele>783.7</ele>
        <time>2019-08-15T08:12:14Z</time>
      </trkpt>
      <trkpt lat="41.6637370" lon="-5.1984880">
        <ele>784.1</ele>
        <time>2019-08-15T08:12:15Z</time>
      </trkpt>
      <trkpt lat="41.6637640" lon="-5.1984920">
        <ele>784.5</ele>
        <time>2019-08-15T08:12:16Z</time>
      </trkpt>
      <trkpt lat="41.6638200" lon="-5.1985010">
        <ele>785.0</ele>
        <time>2019-08-15T08:12:18Z</time>
      </trkpt>
      <trkpt lat="41.6638500" lon="-5.1985060">
        <ele>785.1</ele>
        <time>2019-08-15T08:12:19Z</time>
      </trkpt>
      <trkpt lat="41.6638800" lon="-5.1985100">
        <ele>785.4</ele>
        <time>2019-08-15T08:12:20Z</time>
      </trkpt>
      <trkpt lat="41.6639120" lon="-5.1985150">
        <ele>785.7</ele>
        <time>2019-08-15T08:12:21Z</time>
      </trkpt>
      <trkpt lat="41.6639430" lon="-5.1985190">
        <ele>786.0</ele>
        <time>2019-08-15T08:12:22Z</time>
      </trkpt>
      <trkpt lat="41.6639750" lon="-5.1985240">
        <ele>786.2</ele>
        <time>2019-08-15T08:12:23Z</time>
      </trkpt>
      <trkpt lat="41.6640070" lon="-5.1985270">
        <ele>786.4</ele>
        <time>2019-08-15T08:12:24Z</time>
      </trkpt>
      <trkpt lat="41.6640380" lon="-5.1985290">
        <ele>786.7</ele>
        <time>2019-08-15T08:12:25Z</time>
      </trkpt>
      <trkpt lat="41.6640700" lon="-5.1985300">
        <ele>787.2</ele>
        <time>2019-08-15T08:12:26Z</time>
      </trkpt>
      <trkpt lat="41.6641040" lon="-5.1985340">
        <ele>787.6</ele>
        <time>2019-08-15T08:12:27Z</time>
      </trkpt>
      <trkpt lat="41.6641390" lon="-5.1985380">
        <ele>787.8</ele>
        <time>2019-08-15T08:12:28Z</time>
      </trkpt>
      <trkpt lat="41.6641740" lon="-5.1985410">
        <ele>788.1</ele>
        <time>2019-08-15T08:12:29Z</time>
      </trkpt>
      <trkpt lat="41.6642080" lon="-5.1985440">
        <ele>788.4</ele>
        <time>2019-08-15T08:12:30Z</time>
      </trkpt>
      <trkpt lat="41.6642410" lon="-5.1985480">
        <ele>788.7</ele>
        <time>2019-08-15T08:12:31Z</time>
      </trkpt>
      <trkpt lat="41.6642760" lon="-5.1985530">
        <ele>789.0</ele>
        <time>2019-08-15T08:12:32Z</time>
      </trkpt>
      <trkpt lat="41.6643120" lon="-5.1985560">
        <ele>789.2</ele>
        <time>2019-08-15T08:12:33Z</time>
      </trkpt>
      <trkpt lat="41.6643480" lon="-5.1985610">
        <ele>789.4</ele>
        <time>2019-08-15T08:12:34Z</time>
      </trkpt>
      <trkpt lat="41.6643840" lon="-5.1985640">
        <ele>789.6</ele>
        <time>2019-08-15T08:12:35Z</time>
      </trkpt>
      <trkpt lat="41.6644200" lon="-5.1985680">
        <ele>789.8</ele>
        <time>2019-08-15T08:12:36Z</time>
      </trkpt>
      <trkpt lat="41.6644560" lon="-5.1985710">
        <ele>790.0</ele>
        <time>2019-08-15T08:12:37Z</time>
      </trkpt>
      <trkpt lat="41.6644910" lon="-5.1985730">
        <ele>790.2</ele>
        <time>2019-08-15T08:12:38Z</time>
      </trkpt>
      <trkpt lat="41.6645250" lon="-5.1985760">
        <ele>790.4</ele>
        <time>2019-08-15T08:12:39Z</time>
      </trkpt>
      <trkpt lat="41.6645580" lon="-5.1985790">
        <ele>790.6</ele>
        <time>2019-08-15T08:12:40Z</time>
      </trkpt>
      <trkpt lat="41.6645900" lon="-5.1985800">
        <ele>790.8</ele>
        <time>2019-08-15T08:12:41Z</time>
      </trkpt>
      <trkpt lat="41.6646210" lon="-5.1985820">
        <ele>791.0</ele>
        <time>2019-08-15T08:12:42Z</time>
      </trkpt>
      <trkpt lat="41.6646490" lon="-5.1985830">
        <ele>791.2</ele>
        <time>2019-08-15T08:12:43Z</time>
      </trkpt>
      <trkpt lat="41.6646730" lon="-5.1985830">
        <ele>791.3</ele>
        <time>2019-08-15T08:12:44Z</time>
      </trkpt>
      <trkpt lat="41.6647160" lon="-5.1985810">
        <ele>791.6</ele>
        <time>2019-08-15T08:12:46Z</time>
      </trkpt>
      <trkpt lat="41.6647510" lon="-5.1985840">
        <ele>791.8</ele>
        <time>2019-08-15T08:12:48Z</time>
      </trkpt>
      <trkpt lat="41.6647820" lon="-5.1985860">
        <ele>792.0</ele>
        <time>2019-08-15T08:12:50Z</time>
      </trkpt>
      <trkpt lat="41.6648130" lon="-5.1985870">
        <ele>792.2</ele>
        <time>2019-08-15T08:12:52Z</time>
      </trkpt>
      <trkpt lat="41.6648450" lon="-5.1985900">
        <ele>792.6</ele>
        <time>2019-08-15T08:12:54Z</time>
      </trkpt>
      <trkpt lat="41.6648750" lon="-5.1985930">
        <ele>792.9</ele>
        <time>2019-08-15T08:12:56Z</time>
      </trkpt>
      <trkpt lat="41.6649070" lon="-5.1985950">
        <ele>793.3</ele>
        <time>2019-08-15T08:12:58Z</time>
      </trkpt>
      <trkpt lat="41.6649400" lon="-5.1985970">
        <ele>793.9</ele>
        <time>2019-08-15T08:13:00Z</time>
      </trkpt>
      <trkpt lat="41.6649720" lon="-5.1985960">
        <ele>794.4</ele>
        <time>2019-08-15T08:13:02Z</time>
      </trkpt>
      <trkpt lat="41.6650040" lon="-5.1985970">
        <ele>794.9</ele>
        <time>2019-08-15T08:13:04Z</time>
      </trkpt>
      <trkpt lat="41.6650370" lon="-5.1985980">
        <ele>795.4</ele>
        <time>2019-08-15T08:13:06Z</time>
      </trkpt>
      <trkpt lat="41.6650690" lon="-5.1986020">
        <ele>795.9</ele>
        <time>2019-08-15T08:13:08Z</time>
      </trkpt>
      <trkpt lat="41.6651010" lon="-5.1986050">
        <ele>796.2</ele>
        <time>2019-08-15T08:13:10Z</time>
      </trkpt>
      <trkpt lat="41.6651330" lon="-5.1986030">
        <ele>796.6</ele>
        <time>2019-08-15T08:13:12Z</time>
      </trkpt>
      <trkpt lat="41.6651660" lon="-5.1986060">
        <ele>797.0</ele>
        <time>2019-08-15T08:13:14Z</time>
      </trkpt>
      <trkpt lat="41.6651990" lon="-5.1986110">
        <ele>797.5</ele>
        <time>2019-08-15T08:13:16Z</time>
      </trkpt>
      <trkpt lat="41.6652310" lon="-5.1986140">
        <ele>797.9</ele>
        <time>2019-08-15T08:13:18Z</time>
      </trkpt>
      <trkpt lat="41.6652630" lon="-5.1986130">
        <ele>798.3</ele>
        <time>2019-08-15T08:13:20Z</time>
      </trkpt>
      <trkpt lat="41.6652950" lon="-5.1986150">
        <ele>798.7</ele>
        <time>2019-08-15T08:13:22Z</time>
      </trkpt>
      <trkpt lat="41.6653280" lon="-5.1986170">
        <ele>799.1</ele>
        <time>2019-08-15T08:13:24Z</time>
      </trkpt>
      <trkpt lat="41.6653610" lon="-5.1986170">
        <ele>799.5</ele>
        <time>2019-08-15T08:13:26Z</time>
      </trkpt>
      <trkpt lat="41.6653930" lon="-5.1986210">
        <ele>799.9</ele>
        <time>2019-08-15T08:13:28Z</time>
      </trkpt>
      <trkpt lat="41.6654250" lon="-5.1986230">
        <ele>800.3</ele>
        <time>2019-08-15T08:13:30Z</time>
      </trkpt>
      <trkpt lat="41.6654570" lon="-5.1986240">
        <ele>800.7</ele>
        <time>2019-08-15T08:13:32Z</time>
      </trkpt>
      <trkpt lat="41.6654890" lon="-5.1986240">
        <ele>801.1</ele>
        <time>2019-08-15T08:13:34Z</time>
      </trkpt>
      <trkpt lat="41.6655210" lon="-5.1986250">
        <ele>801.4</ele>
        <time>2019-08-15T08:13:36Z</time>
      </trkpt>
      <trkpt lat="41.6655540" lon="-5.1986230">
        <ele>801.6</ele>
        <time>2019-08-15T08:13:38Z</time>
      </trkpt>
      <trkpt lat="41.6655890" lon="-5.1986220">
        <ele>801.9</ele>
        <time>2019-08-15T08:13:40Z</time>
      </trkpt>
      <trkpt lat="41.6656230" lon="-5.1986220">
        <ele>802.3</ele>
        <time>2019-08-15T08:13:42Z</time>
      </trkpt>
      <trkpt lat="41.6656610" lon="-5.1986200">
        <ele>802.7</ele>
        <time>2019-08-15T08:13:44Z</time>
      </trkpt>
      <trkpt lat="41.6657020" lon="-5.1986150">
        <ele>803.1</ele>
        <time>2019-08-15T08:13:46Z</time>
      </trkpt>
      <trkpt lat="41.6657430" lon="-5.1986060">
        <ele>803.5</ele>
        <time>2019-08-15T08:13:48Z</time>
      </trkpt>
      <trkpt lat="41.6657840" lon="-5.1985980">
        <ele>803.8</ele>
        <time>2019-08-15T08:13:50Z</time>
      </trkpt>
      <trkpt lat="41.6658270" lon="-5.1985890">
        <ele>803.8</ele>
        <time>2019-08-15T08:13:52Z</time>
      </trkpt>
      <trkpt lat="41.6658750" lon="-5.1985780">
        <ele>803.9</ele>
        <time>2019-08-15T08:13:54Z</time>
      </trkpt>
      <trkpt lat="41.6659260" lon="-5.1985660">
        <ele>804.0</ele>
        <time>2019-08-15T08:13:56Z</time>
      </trkpt>
      <trkpt lat="41.6659830" lon="-5.1985500">
        <ele>804.4</ele>
        <time>2019-08-15T08:13:58Z</time>
      </trkpt>
      <trkpt lat="41.6660120" lon="-5.1985400">
        <ele>804.7</ele>
        <time>2019-08-15T08:13:59Z</time>
      </trkpt>
      <trkpt lat="41.6660420" lon="-5.1985300">
        <ele>804.8</ele>
        <time>2019-08-15T08:14:00Z</time>
      </trkpt>
      <trkpt lat="41.6660710" lon="-5.1985210">
        <ele>804.8</ele>
        <time>2019-08-15T08:14:01Z</time>
      </trkpt>
      <trkpt lat="41.6661010" lon="-5.1985140">
        <ele>804.8</ele>
        <time>2019-08-15T08:14:02Z</time>
      </trkpt>
      <trkpt lat="41.6661320" lon="-5.1985040">
        <ele>805.1</ele>
        <time>2019-08-15T08:14:03Z</time>
      </trkpt>
      <trkpt lat="41.6661650" lon="-5.1984900">
        <ele>805.4</ele>
        <time>2019-08-15T08:14:04Z</time>
      </trkpt>
      <trkpt lat="41.6661990" lon="-5.1984770">
        <ele>805.7</ele>
        <time>2019-08-15T08:14:05Z</time>
      </trkpt>
      <trkpt lat="41.6662340" lon="-5.1984640">
        <ele>805.7</ele>
        <time>2019-08-15T08:14:06Z</time>
      </trkpt>
      <trkpt lat="41.6662700" lon="-5.1984520">
        <ele>805.7</ele>
        <time>2019-08-15T08:14:07Z</time>
      </trkpt>
      <trkpt lat="41.6663060" lon="-5.1984390">
        <ele>806.1</ele>
        <time>2019-08-15T08:14:08Z</time>
      </trkpt>
      <trkpt lat="41.6663450" lon="-5.1984250">
        <ele>806.5</ele>
        <time>2019-08-15T08:14:09Z</time>
      </trkpt>
      <trkpt lat="41.6663850" lon="-5.1984110">
        <ele>806.6</ele>
        <time>2019-08-15T08:14:10Z</time>
      </trkpt>
      <trkpt lat="41.6664270" lon="-5.1983980">
        <ele>806.6</ele>
        <time>2019-08-15T08:14:11Z</time>
      </trkpt>
      <trkpt lat="41.6664700" lon="-5.1983850">
        <ele>806.6</ele>
        <time>2019-08-15T08:14:12Z</time>
      </trkpt>
      <trkpt lat="41.6665150" lon="-5.1983730">
        <ele>806.7</ele>
        <time>2019-08-15T08:14:13Z</time>
      </trkpt>
      <trkpt lat="41.6665600" lon="-5.1983610">
        <ele>806.8</ele>
        <time>2019-08-15T08:14:14Z</time>
      </trkpt>
      <trkpt lat="41.6666030" lon="-5.1983500">
        <ele>806.9</ele>
        <time>2019-08-15T08:14:15Z</time>
      </trkpt>
      <trkpt lat="41.6666440" lon="-5.1983410">
        <ele>806.9</ele>
        <time>2019-08-15T08:14:16Z</time>
      </trkpt>
      <trkpt lat="41.6666850" lon="-5.1983340">
        <ele>806.9</ele>
        <time>2019-08-15T08:14:17Z</time>
      </trkpt>
      <trkpt lat="41.6667240" lon="-5.1983280">
        <ele>806.4</ele>
        <time>2019-08-15T08:14:18Z</time>
      </trkpt>
      <trkpt lat="41.6667600" lon="-5.1983220">
        <ele>806.0</ele>
        <time>2019-08-15T08:14:19Z</time>
      </trkpt>
      <trkpt lat="41.6667950" lon="-5.1983160">
        <ele>805.8</ele>
        <time>2019-08-15T08:14:20Z</time>
      </trkpt>
      <trkpt lat="41.6668270" lon="-5.1983110">
        <ele>805.7</ele>
        <time>2019-08-15T08:14:21Z</time>
      </trkpt>
      <trkpt lat="41.6668580" lon="-5.1983070">
        <ele>805.6</ele>
        <time>2019-08-15T08:14:22Z</time>
      </trkpt>
      <trkpt lat="41.6668870" lon="-5.1983050">
        <ele>805.4</ele>
        <time>2019-08-15T08:14:23Z</time>
      </trkpt>
      <trkpt lat="41.6669160" lon="-5.1983030">
        <ele>805.3</ele>
        <time>2019-08-15T08:14:24Z</time>
      </trkpt>
      <trkpt lat="41.6669440" lon="-5.1983000">
        <ele>805.0</ele>
        <time>2019-08-15T08:14:25Z</time>
      </trkpt>
      <trkpt lat="41.6669710" lon="-5.1982960">
        <ele>804.6</ele>
        <time>2019-08-15T08:14:26Z</time>
      </trkpt>
      <trkpt lat="41.6669980" lon="-5.1982930">
        <ele>804.2</ele>
        <time>2019-08-15T08:14:27Z</time>
      </trkpt>
      <trkpt lat="41.6670490" lon="-5.1982850">
        <ele>803.7</ele>
        <time>2019-08-15T08:14:29Z</time>
      </trkpt>
      <trkpt lat="41.6671000" lon="-5.1982820">
        <ele>803.2</ele>
        <time>2019-08-15T08:14:31Z</time>
      </trkpt>
      <trkpt lat="41.6671490" lon="-5.1982770">
        <ele>802.9</ele>
        <time>2019-08-15T08:14:33Z</time>
      </trkpt>
      <trkpt lat="41.6671980" lon="-5.1982700">
        <ele>802.4</ele>
        <time>2019-08-15T08:14:35Z</time>
      </trkpt>
      <trkpt lat="41.6672470" lon="-5.1982690">
        <ele>801.9</ele>
        <time>2019-08-15T08:14:37Z</time>
      </trkpt>
      <trkpt lat="41.6672960" lon="-5.1982660">
        <ele>801.5</ele>
        <time>2019-08-15T08:14:39Z</time>
      </trkpt>
      <trkpt lat="41.6673440" lon="-5.1982650">
        <ele>801.2</ele>
        <time>2019-08-15T08:14:41Z</time>
      </trkpt>
      <trkpt lat="41.6673930" lon="-5.1982650">
        <ele>800.8</ele>
        <time>2019-08-15T08:14:43Z</time>
      </trkpt>
      <trkpt lat="41.6674410" lon="-5.1982650">
        <ele>800.7</ele>
        <time>2019-08-15T08:14:45Z</time>
      </trkpt>
      <trkpt lat="41.6674880" lon="-5.1982650">
        <ele>800.5</ele>
        <time>2019-08-15T08:14:47Z</time>
      </trkpt>
      <trkpt lat="41.6675330" lon="-5.1982690">
        <ele>800.5</ele>
        <time>2019-08-15T08:14:49Z</time>
      </trkpt>
      <trkpt lat="41.6675760" lon="-5.1982730">
        <ele>800.5</ele>
        <time>2019-08-15T08:14:51Z</time>
      </trkpt>
      <trkpt lat="41.6676150" lon="-5.1982770">
        <ele>800.5</ele>
        <time>2019-08-15T08:14:53Z</time>
      </trkpt>
      <trkpt lat="41.6676530" lon="-5.1982780">
        <ele>800.6</ele>
        <time>2019-08-15T08:14:55Z</time>
      </trkpt>
      <trkpt lat="41.6676890" lon="-5.1982810">
        <ele>801.2</ele>
        <time>2019-08-15T08:14:57Z</time>
      </trkpt>
      <trkpt lat="41.6677260" lon="-5.1982860">
        <ele>801.8</ele>
        <time>2019-08-15T08:14:59Z</time>
      </trkpt>
      <trkpt lat="41.6677610" lon="-5.1982930">
        <ele>802.1</ele>
        <time>2019-08-15T08:15:01Z</time>
      </trkpt>
      <trkpt lat="41.6677960" lon="-5.1982990">
        <ele>802.3</ele>
        <time>2019-08-15T08:15:03Z</time>
      </trkpt>
      <trkpt lat="41.6678310" lon="-5.1983040">
        <ele>802.5</ele>
        <time>2019-08-15T08:15:05Z</time>
      </trkpt>
      <trkpt lat="41.6678670" lon="-5.1983090">
        <ele>802.6</ele>
        <time>2019-08-15T08:15:07Z</time>
      </trkpt>
      <trkpt lat="41.6679040" lon="-5.1983140">
        <ele>802.8</ele>
        <time>2019-08-15T08:15:09Z</time>
      </trkpt>
      <trkpt lat="41.6679410" lon="-5.1983190">
        <ele>803.1</ele>
        <time>2019-08-15T08:15:11Z</time>
      </trkpt>
      <trkpt lat="41.6679790" lon="-5.1983250">
        <ele>803.3</ele>
        <time>2019-08-15T08:15:13Z</time>
      </trkpt>
      <trkpt lat="41.6680170" lon="-5.1983330">
        <ele>803.6</ele>
        <time>2019-08-15T08:15:15Z</time>
      </trkpt>
      <trkpt lat="41.6680560" lon="-5.1983380">
        <ele>803.8</ele>
        <time>2019-08-15T08:15:17Z</time>
      </trkpt>
      <trkpt lat="41.6680940" lon="-5.1983420">
        <ele>804.3</ele>
        <time>2019-08-15T08:15:19Z</time>
      </trkpt>
      <trkpt lat="41.6681330" lon="-5.1983440">
        <ele>805.0</ele>
        <time>2019-08-15T08:15:21Z</time>
      </trkpt>
      <trkpt lat="41.6681760" lon="-5.1983450">
        <ele>805.6</ele>
        <time>2019-08-15T08:15:23Z</time>
      </trkpt>
      <trkpt lat="41.6682170" lon="-5.1983460">
        <ele>806.1</ele>
        <time>2019-08-15T08:15:25Z</time>
      </trkpt>
      <trkpt lat="41.6682650" lon="-5.1983480">
        <ele>806.6</ele>
        <time>2019-08-15T08:15:27Z</time>
      </trkpt>
      <trkpt lat="41.6683300" lon="-5.1983500">
        <ele>807.2</ele>
        <time>2019-08-15T08:15:29Z</time>
      </trkpt>
      <trkpt lat="41.6683710" lon="-5.1983530">
        <ele>807.7</ele>
        <time>2019-08-15T08:15:30Z</time>
      </trkpt>
      <trkpt lat="41.6684160" lon="-5.1983550">
        <ele>808.3</ele>
        <time>2019-08-15T08:15:31Z</time>
      </trkpt>
      <trkpt lat="41.6684670" lon="-5.1983580">
        <ele>808.9</ele>
        <time>2019-08-15T08:15:32Z</time>
      </trkpt>
      <trkpt lat="41.6685210" lon="-5.1983640">
        <ele>809.4</ele>
        <time>2019-08-15T08:15:33Z</time>
      </trkpt>
      <trkpt lat="41.6685760" lon="-5.1983730">
        <ele>809.8</ele>
        <time>2019-08-15T08:15:34Z</time>
      </trkpt>
      <trkpt lat="41.6686300" lon="-5.1983840">
        <ele>810.6</ele>
        <time>2019-08-15T08:15:35Z</time>
      </trkpt>
      <trkpt lat="41.6686790" lon="-5.1983990">
        <ele>810.8</ele>
        <time>2019-08-15T08:15:36Z</time>
      </trkpt>
      <trkpt lat="41.6687210" lon="-5.1984140">
        <ele>811.1</ele>
        <time>2019-08-15T08:15:37Z</time>
      </trkpt>
      <trkpt lat="41.6687560" lon="-5.1984270">
        <ele>811.4</ele>
        <time>2019-08-15T08:15:38Z</time>
      </trkpt>
      <trkpt lat="41.6687870" lon="-5.1984380">
        <ele>811.7</ele>
        <time>2019-08-15T08:15:39Z</time>
      </trkpt>
      <trkpt lat="41.6688140" lon="-5.1984490">
        <ele>812.0</ele>
        <time>2019-08-15T08:15:40Z</time>
      </trkpt>
      <trkpt lat="41.6688360" lon="-5.1984590">
        <ele>812.2</ele>
        <time>2019-08-15T08:15:41Z</time>
      </trkpt>
      <trkpt lat="41.6688750" lon="-5.1984760">
        <ele>812.6</ele>
        <time>2019-08-15T08:15:43Z</time>
      </trkpt>
      <trkpt lat="41.6689210" lon="-5.1984910">
        <ele>813.1</ele>
        <time>2019-08-15T08:15:45Z</time>
      </trkpt>
      <trkpt lat="41.6689720" lon="-5.1985150">
        <ele>813.4</ele>
        <time>2019-08-15T08:15:47Z</time>
      </trkpt>
      <trkpt lat="41.6690200" lon="-5.1985390">
        <ele>813.5</ele>
        <time>2019-08-15T08:15:49Z</time>
      </trkpt>
      <trkpt lat="41.6690670" lon="-5.1985580">
        <ele>813.9</ele>
        <time>2019-08-15T08:15:51Z</time>
      </trkpt>
      <trkpt lat="41.6691160" lon="-5.1985770">
        <ele>814.4</ele>
        <time>2019-08-15T08:15:53Z</time>
      </trkpt>
      <trkpt lat="41.6691670" lon="-5.1986010">
        <ele>815.0</ele>
        <time>2019-08-15T08:15:55Z</time>
      </trkpt>
      <trkpt lat="41.6691940" lon="-5.1986130">
        <ele>815.3</ele>
        <time>2019-08-15T08:15:56Z</time>
      </trkpt>
      <trkpt lat="41.6692200" lon="-5.1986250">
        <ele>815.5</ele>
        <time>2019-08-15T08:15:57Z</time>
      </trkpt>
      <trkpt lat="41.6692470" lon="-5.1986360">
        <ele>815.8</ele>
        <time>2019-08-15T08:15:58Z</time>
      </trkpt>
      <trkpt lat="41.6692720" lon="-5.1986480">
        <ele>816.0</ele>
        <time>2019-08-15T08:15:59Z</time>
      </trkpt>
      <trkpt lat="41.6693220" lon="-5.1986690">
        <ele>816.4</ele>
        <time>2019-08-15T08:16:01Z</time>
      </trkpt>
      <trkpt lat="41.6693690" lon="-5.1986910">
        <ele>816.7</ele>
        <time>2019-08-15T08:16:03Z</time>
      </trkpt>
      <trkpt lat="41.6694150" lon="-5.1987100">
        <ele>817.0</ele>
        <time>2019-08-15T08:16:05Z</time>
      </trkpt>
      <trkpt lat="41.6694610" lon="-5.1987290">
        <ele>817.1</ele>
        <time>2019-08-15T08:16:07Z</time>
      </trkpt>
      <trkpt lat="41.6695090" lon="-5.1987530">
        <ele>817.1</ele>
        <time>2019-08-15T08:16:09Z</time>
      </trkpt>
      <trkpt lat="41.6695600" lon="-5.1987760">
        <ele>817.5</ele>
        <time>2019-08-15T08:16:11Z</time>
      </trkpt>
      <trkpt lat="41.6695880" lon="-5.1987880">
        <ele>817.7</ele>
        <time>2019-08-15T08:16:12Z</time>
      </trkpt>
      <trkpt lat="41.6696170" lon="-5.1988030">
        <ele>817.9</ele>
        <time>2019-08-15T08:16:13Z</time>
      </trkpt>
      <trkpt lat="41.6696480" lon="-5.1988190">
        <ele>818.2</ele>
        <time>2019-08-15T08:16:14Z</time>
      </trkpt>
      <trkpt lat="41.6696810" lon="-5.1988360">
        <ele>818.5</ele>
        <time>2019-08-15T08:16:15Z</time>
      </trkpt>
      <trkpt lat="41.6697180" lon="-5.1988550">
        <ele>818.8</ele>
        <time>2019-08-15T08:16:16Z</time>
      </trkpt>
      <trkpt lat="41.6697580" lon="-5.1988750">
        <ele>819.2</ele>
        <time>2019-08-15T08:16:17Z</time>
      </trkpt>
      <trkpt lat="41.6698030" lon="-5.1988970">
        <ele>819.6</ele>
        <time>2019-08-15T08:16:18Z</time>
      </trkpt>
      <trkpt lat="41.6698500" lon="-5.1989220">
        <ele>819.9</ele>
        <time>2019-08-15T08:16:19Z</time>
      </trkpt>
      <trkpt lat="41.6699000" lon="-5.1989490">
        <ele>820.3</ele>
        <time>2019-08-15T08:16:20Z</time>
      </trkpt>
      <trkpt lat="41.6699510" lon="-5.1989790">
        <ele>820.7</ele>
        <time>2019-08-15T08:16:21Z</time>
      </trkpt>
      <trkpt lat="41.6700040" lon="-5.1990100">
        <ele>821.0</ele>
        <time>2019-08-15T08:16:22Z</time>
      </trkpt>
      <trkpt lat="41.6700570" lon="-5.1990390">
        <ele>821.3</ele>
        <time>2019-08-15T08:16:23Z</time>
      </trkpt>
      <trkpt lat="41.6701080" lon="-5.1990670">
        <ele>821.5</ele>
        <time>2019-08-15T08:16:24Z</time>
      </trkpt>
      <trkpt lat="41.6701570" lon="-5.1990950">
        <ele>821.7</ele>
        <time>2019-08-15T08:16:25Z</time>
      </trkpt>
      <trkpt lat="41.6702020" lon="-5.1991220">
        <ele>821.9</ele>
        <time>2019-08-15T08:16:26Z</time>
      </trkpt>
      <trkpt lat="41.6702420" lon="-5.1991470">
        <ele>822.1</ele>
        <time>2019-08-15T08:16:27Z</time>
      </trkpt>
      <trkpt lat="41.6702800" lon="-5.1991710">
        <ele>822.1</ele>
        <time>2019-08-15T08:16:28Z</time>
      </trkpt>
      <trkpt lat="41.6703140" lon="-5.1991940">
        <ele>822.2</ele>
        <time>2019-08-15T08:16:29Z</time>
      </trkpt>
      <trkpt lat="41.6703470" lon="-5.1992190">
        <ele>822.2</ele>
        <time>2019-08-15T08:16:30Z</time>
      </trkpt>
      <trkpt lat="41.6703800" lon="-5.1992430">
        <ele>822.3</ele>
        <time>2019-08-15T08:16:31Z</time>
      </trkpt>
      <trkpt lat="41.6704130" lon="-5.1992680">
        <ele>822.4</ele>
        <time>2019-08-15T08:16:32Z</time>
      </trkpt>
      <trkpt lat="41.6704450" lon="-5.1992930">
        <ele>822.5</ele>
        <time>2019-08-15T08:16:33Z</time>
      </trkpt>
      <trkpt lat="41.6704760" lon="-5.1993190">
        <ele>822.5</ele>
        <time>2019-08-15T08:16:34Z</time>
      </trkpt>
      <trkpt lat="41.6705050" lon="-5.1993460">
        <ele>822.6</ele>
        <time>2019-08-15T08:16:35Z</time>
      </trkpt>
      <trkpt lat="41.6705340" lon="-5.1993730">
        <ele>822.6</ele>
        <time>2019-08-15T08:16:36Z</time>
      </trkpt>
      <trkpt lat="41.6705630" lon="-5.1993990">
        <ele>822.6</ele>
        <time>2019-08-15T08:16:37Z</time>
      </trkpt>
      <trkpt lat="41.6705920" lon="-5.1994260">
        <ele>822.6</ele>
        <time>2019-08-15T08:16:38Z</time>
      </trkpt>
      <trkpt lat="41.6706200" lon="-5.1994520">
        <ele>822.7</ele>
        <time>2019-08-15T08:16:39Z</time>
      </trkpt>
      <trkpt lat="41.6706480" lon="-5.1994770">
        <ele>822.8</ele>
        <time>2019-08-15T08:16:40Z</time>
      </trkpt>
      <trkpt lat="41.6706750" lon="-5.1995010">
        <ele>822.9</ele>
        <time>2019-08-15T08:16:41Z</time>
      </trkpt>
      <trkpt lat="41.6707010" lon="-5.1995240">
        <ele>822.9</ele>
        <time>2019-08-15T08:16:42Z</time>
      </trkpt>
      <trkpt lat="41.6707260" lon="-5.1995480">
        <ele>822.9</ele>
        <time>2019-08-15T08:16:43Z</time>
      </trkpt>
      <trkpt lat="41.6707520" lon="-5.1995710">
        <ele>823.0</ele>
        <time>2019-08-15T08:16:44Z</time>
      </trkpt>
      <trkpt lat="41.6707760" lon="-5.1995950">
        <ele>823.1</ele>
        <time>2019-08-15T08:16:45Z</time>
      </trkpt>
      <trkpt lat="41.6708010" lon="-5.1996180">
        <ele>823.1</ele>
        <time>2019-08-15T08:16:46Z</time>
      </trkpt>
      <trkpt lat="41.6708250" lon="-5.1996420">
        <ele>823.2</ele>
        <time>2019-08-15T08:16:47Z</time>
      </trkpt>
      <trkpt lat="41.6708480" lon="-5.1996660">
        <ele>823.2</ele>
        <time>2019-08-15T08:16:48Z</time>
      </trkpt>
      <trkpt lat="41.6708730" lon="-5.1996880">
        <ele>823.2</ele>
        <time>2019-08-15T08:16:49Z</time>
      </trkpt>
      <trkpt lat="41.6708970" lon="-5.1997110">
        <ele>823.3</ele>
        <time>2019-08-15T08:16:50Z</time>
      </trkpt>
      <trkpt lat="41.6709210" lon="-5.1997320">
        <ele>823.4</ele>
        <time>2019-08-15T08:16:51Z</time>
      </trkpt>
      <trkpt lat="41.6709450" lon="-5.1997530">
        <ele>823.5</ele>
        <time>2019-08-15T08:16:52Z</time>
      </trkpt>
      <trkpt lat="41.6709660" lon="-5.1997720">
        <ele>823.5</ele>
        <time>2019-08-15T08:16:53Z</time>
      </trkpt>
      <trkpt lat="41.6710080" lon="-5.1998140">
        <ele>823.6</ele>
        <time>2019-08-15T08:16:55Z</time>
      </trkpt>
      <trkpt lat="41.6710500" lon="-5.1998560">
        <ele>823.7</ele>
        <time>2019-08-15T08:16:57Z</time>
      </trkpt>
      <trkpt lat="41.6710920" lon="-5.1998990">
        <ele>823.9</ele>
        <time>2019-08-15T08:16:59Z</time>
      </trkpt>
      <trkpt lat="41.6711340" lon="-5.1999440">
        <ele>824.0</ele>
        <time>2019-08-15T08:17:01Z</time>
      </trkpt>
      <trkpt lat="41.6711570" lon="-5.1999680">
        <ele>824.0</ele>
        <time>2019-08-15T08:17:02Z</time>
      </trkpt>
      <trkpt lat="41.6711810" lon="-5.1999930">
        <ele>824.1</ele>
        <time>2019-08-15T08:17:03Z</time>
      </trkpt>
      <trkpt lat="41.6712050" lon="-5.2000190">
        <ele>824.2</ele>
        <time>2019-08-15T08:17:04Z</time>
      </trkpt>
      <trkpt lat="41.6712300" lon="-5.2000470">
        <ele>824.2</ele>
        <time>2019-08-15T08:17:05Z</time>
      </trkpt>
      <trkpt lat="41.6712540" lon="-5.2000760">
        <ele>824.3</ele>
        <time>2019-08-15T08:17:06Z</time>
      </trkpt>
      <trkpt lat="41.6712810" lon="-5.2001080">
        <ele>824.4</ele>
        <time>2019-08-15T08:17:07Z</time>
      </trkpt>
      <trkpt lat="41.6713090" lon="-5.2001420">
        <ele>824.4</ele>
        <time>2019-08-15T08:17:08Z</time>
      </trkpt>
      <trkpt lat="41.6713390" lon="-5.2001780">
        <ele>824.5</ele>
        <time>2019-08-15T08:17:09Z</time>
      </trkpt>
      <trkpt lat="41.6713710" lon="-5.2002150">
        <ele>824.6</ele>
        <time>2019-08-15T08:17:10Z</time>
      </trkpt>
      <trkpt lat="41.6714030" lon="-5.2002520">
        <ele>824.7</ele>
        <time>2019-08-15T08:17:11Z</time>
      </trkpt>
      <trkpt lat="41.6714350" lon="-5.2002920">
        <ele>824.8</ele>
        <time>2019-08-15T08:17:12Z</time>
      </trkpt>
      <trkpt lat="41.6714660" lon="-5.2003340">
        <ele>824.9</ele>
        <time>2019-08-15T08:17:13Z</time>
      </trkpt>
      <trkpt lat="41.6714990" lon="-5.2003750">
        <ele>825.0</ele>
        <time>2019-08-15T08:17:14Z</time>
      </trkpt>
      <trkpt lat="41.6715310" lon="-5.2004150">
        <ele>825.0</ele>
        <time>2019-08-15T08:17:15Z</time>
      </trkpt>
      <trkpt lat="41.6715610" lon="-5.2004540">
        <ele>825.1</ele>
        <time>2019-08-15T08:17:16Z</time>
      </trkpt>
      <trkpt lat="41.6715900" lon="-5.2004920">
        <ele>825.1</ele>
        <time>2019-08-15T08:17:17Z</time>
      </trkpt>
      <trkpt lat="41.6716180" lon="-5.2005290">
        <ele>825.1</ele>
        <time>2019-08-15T08:17:18Z</time>
      </trkpt>
      <trkpt lat="41.6716450" lon="-5.2005660">
        <ele>825.1</ele>
        <time>2019-08-15T08:17:19Z</time>
      </trkpt>
      <trkpt lat="41.6716730" lon="-5.2006030">
        <ele>825.1</ele>
        <time>2019-08-15T08:17:20Z</time>
      </trkpt>
      <trkpt lat="41.6716990" lon="-5.2006410">
        <ele>825.1</ele>
        <time>2019-08-15T08:17:21Z</time>
      </trkpt>
      <trkpt lat="41.6717260" lon="-5.2006810">
        <ele>825.1</ele>
        <time>2019-08-15T08:17:22Z</time>
      </trkpt>
      <trkpt lat="41.6717530" lon="-5.2007190">
        <ele>825.1</ele>
        <time>2019-08-15T08:17:23Z</time>
      </trkpt>
      <trkpt lat="41.6717810" lon="-5.2007590">
        <ele>825.0</ele>
        <time>2019-08-15T08:17:24Z</time>
      </trkpt>
      <trkpt lat="41.6718100" lon="-5.2007990">
        <ele>825.0</ele>
        <time>2019-08-15T08:17:25Z</time>
      </trkpt>
      <trkpt lat="41.6718390" lon="-5.2008410">
        <ele>825.0</ele>
        <time>2019-08-15T08:17:26Z</time>
      </trkpt>
      <trkpt lat="41.6718670" lon="-5.2008840">
        <ele>825.0</ele>
        <time>2019-08-15T08:17:27Z</time>
      </trkpt>
      <trkpt lat="41.6718950" lon="-5.2009260">
        <ele>824.9</ele>
        <time>2019-08-15T08:17:28Z</time>
      </trkpt>
      <trkpt lat="41.6719230" lon="-5.2009700">
        <ele>824.9</ele>
        <time>2019-08-15T08:17:29Z</time>
      </trkpt>
      <trkpt lat="41.6719540" lon="-5.2010150">
        <ele>824.9</ele>
        <time>2019-08-15T08:17:30Z</time>
      </trkpt>
      <trkpt lat="41.6719840" lon="-5.2010580">
        <ele>825.0</ele>
        <time>2019-08-15T08:17:31Z</time>
      </trkpt>
      <trkpt lat="41.6720120" lon="-5.2010980">
        <ele>825.0</ele>
        <time>2019-08-15T08:17:32Z</time>
      </trkpt>
      <trkpt lat="41.6720390" lon="-5.2011350">
        <ele>825.0</ele>
        <time>2019-08-15T08:17:33Z</time>
      </trkpt>
      <trkpt lat="41.6720620" lon="-5.2011710">
        <ele>825.0</ele>
        <time>2019-08-15T08:17:34Z</time>
      </trkpt>
      <trkpt lat="41.6720840" lon="-5.2012090">
        <ele>825.1</ele>
        <time>2019-08-15T08:17:35Z</time>
      </trkpt>
      <trkpt lat="41.6721090" lon="-5.2012480">
        <ele>825.1</ele>
        <time>2019-08-15T08:17:36Z</time>
      </trkpt>
      <trkpt lat="41.6721370" lon="-5.2012910">
        <ele>825.2</ele>
        <time>2019-08-15T08:17:37Z</time>
      </trkpt>
      <trkpt lat="41.6721660" lon="-5.2013360">
        <ele>825.3</ele>
        <time>2019-08-15T08:17:38Z</time>
      </trkpt>
      <trkpt lat="41.6721960" lon="-5.2013820">
        <ele>825.4</ele>
        <time>2019-08-15T08:17:39Z</time>
      </trkpt>
      <trkpt lat="41.6722290" lon="-5.2014300">
        <ele>825.4</ele>
        <time>2019-08-15T08:17:40Z</time>
      </trkpt>
      <trkpt lat="41.6722620" lon="-5.2014800">
        <ele>825.5</ele>
        <time>2019-08-15T08:17:41Z</time>
      </trkpt>
      <trkpt lat="41.6722960" lon="-5.2015310">
        <ele>825.6</ele>
        <time>2019-08-15T08:17:42Z</time>
      </trkpt>
      <trkpt lat="41.6723300" lon="-5.2015820">
        <ele>825.6</ele>
        <time>2019-08-15T08:17:43Z</time>
      </trkpt>
      <trkpt lat="41.6723660" lon="-5.2016310">
        <ele>825.7</ele>
        <time>2019-08-15T08:17:44Z</time>
      </trkpt>
      <trkpt lat="41.6724020" lon="-5.2016830">
        <ele>825.7</ele>
        <time>2019-08-15T08:17:45Z</time>
      </trkpt>
      <trkpt lat="41.6724390" lon="-5.2017340">
        <ele>825.7</ele>
        <time>2019-08-15T08:17:46Z</time>
      </trkpt>
      <trkpt lat="41.6724760" lon="-5.2017880">
        <ele>825.7</ele>
        <time>2019-08-15T08:17:47Z</time>
      </trkpt>
      <trkpt lat="41.6725140" lon="-5.2018400">
        <ele>825.7</ele>
        <time>2019-08-15T08:17:48Z</time>
      </trkpt>
      <trkpt lat="41.6725520" lon="-5.2018930">
        <ele>825.7</ele>
        <time>2019-08-15T08:17:49Z</time>
      </trkpt>
      <trkpt lat="41.6725910" lon="-5.2019450">
        <ele>825.7</ele>
        <time>2019-08-15T08:17:50Z</time>
      </trkpt>
      <trkpt lat="41.6726300" lon="-5.2019960">
        <ele>825.7</ele>
        <time>2019-08-15T08:17:51Z</time>
      </trkpt>
      <trkpt lat="41.6726690" lon="-5.2020480">
        <ele>825.7</ele>
        <time>2019-08-15T08:17:52Z</time>
      </trkpt>
      <trkpt lat="41.6727080" lon="-5.2021000">
        <ele>825.7</ele>
        <time>2019-08-15T08:17:53Z</time>
      </trkpt>
      <trkpt lat="41.6727470" lon="-5.2021510">
        <ele>825.7</ele>
        <time>2019-08-15T08:17:54Z</time>
      </trkpt>
      <trkpt lat="41.6727870" lon="-5.2022020">
        <ele>825.7</ele>
        <time>2019-08-15T08:17:55Z</time>
      </trkpt>
      <trkpt lat="41.6728280" lon="-5.2022540">
        <ele>825.7</ele>
        <time>2019-08-15T08:17:56Z</time>
      </trkpt>
      <trkpt lat="41.6728700" lon="-5.2023040">
        <ele>825.7</ele>
        <time>2019-08-15T08:17:57Z</time>
      </trkpt>
      <trkpt lat="41.6729120" lon="-5.2023560">
        <ele>825.7</ele>
        <time>2019-08-15T08:17:58Z</time>
      </trkpt>
      <trkpt lat="41.6729560" lon="-5.2024090">
        <ele>825.7</ele>
        <time>2019-08-15T08:17:59Z</time>
      </trkpt>
      <trkpt lat="41.6730000" lon="-5.2024590">
        <ele>825.7</ele>
        <time>2019-08-15T08:18:00Z</time>
      </trkpt>
      <trkpt lat="41.6730470" lon="-5.2025100">
        <ele>825.7</ele>
        <time>2019-08-15T08:18:01Z</time>
      </trkpt>
      <trkpt lat="41.6730940" lon="-5.2025610">
        <ele>825.6</ele>
        <time>2019-08-15T08:18:02Z</time>
      </trkpt>
      <trkpt lat="41.6731400" lon="-5.2026110">
        <ele>825.6</ele>
        <time>2019-08-15T08:18:03Z</time>
      </trkpt>
      <trkpt lat="41.6731860" lon="-5.2026590">
        <ele>825.6</ele>
        <time>2019-08-15T08:18:04Z</time>
      </trkpt>
      <trkpt lat="41.6732320" lon="-5.2027050">
        <ele>825.5</ele>
        <time>2019-08-15T08:18:05Z</time>
      </trkpt>
      <trkpt lat="41.6732770" lon="-5.2027490">
        <ele>825.5</ele>
        <time>2019-08-15T08:18:06Z</time>
      </trkpt>
      <trkpt lat="41.6733250" lon="-5.2027930">
        <ele>825.4</ele>
        <time>2019-08-15T08:18:07Z</time>
      </trkpt>
      <trkpt lat="41.6733740" lon="-5.2028380">
        <ele>825.3</ele>
        <time>2019-08-15T08:18:08Z</time>
      </trkpt>
      <trkpt lat="41.6734240" lon="-5.2028820">
        <ele>825.3</ele>
        <time>2019-08-15T08:18:09Z</time>
      </trkpt>
      <trkpt lat="41.6734730" lon="-5.2029270">
        <ele>825.2</ele>
        <time>2019-08-15T08:18:10Z</time>
      </trkpt>
      <trkpt lat="41.6735210" lon="-5.2029720">
        <ele>825.2</ele>
        <time>2019-08-15T08:18:11Z</time>
      </trkpt>
      <trkpt lat="41.6735680" lon="-5.2030150">
        <ele>825.1</ele>
        <time>2019-08-15T08:18:12Z</time>
      </trkpt>
      <trkpt lat="41.6736160" lon="-5.2030570">
        <ele>825.0</ele>
        <time>2019-08-15T08:18:13Z</time>
      </trkpt>
      <trkpt lat="41.6736640" lon="-5.2030980">
        <ele>825.0</ele>
        <time>2019-08-15T08:18:14Z</time>
      </trkpt>
      <trkpt lat="41.6737110" lon="-5.2031420">
        <ele>824.9</ele>
        <time>2019-08-15T08:18:15Z</time>
      </trkpt>
      <trkpt lat="41.6737590" lon="-5.2031870">
        <ele>824.8</ele>
        <time>2019-08-15T08:18:16Z</time>
      </trkpt>
      <trkpt lat="41.6738080" lon="-5.2032320">
        <ele>824.8</ele>
        <time>2019-08-15T08:18:17Z</time>
      </trkpt>
      <trkpt lat="41.6738580" lon="-5.2032750">
        <ele>824.7</ele>
        <time>2019-08-15T08:18:18Z</time>
      </trkpt>
      <trkpt lat="41.6739080" lon="-5.2033160">
        <ele>824.6</ele>
        <time>2019-08-15T08:18:19Z</time>
      </trkpt>
      <trkpt lat="41.6739570" lon="-5.2033590">
        <ele>824.6</ele>
        <time>2019-08-15T08:18:20Z</time>
      </trkpt>
      <trkpt lat="41.6740050" lon="-5.2034030">
        <ele>824.5</ele>
        <time>2019-08-15T08:18:21Z</time>
      </trkpt>
      <trkpt lat="41.6740520" lon="-5.2034470">
        <ele>824.3</ele>
        <time>2019-08-15T08:18:22Z</time>
      </trkpt>
      <trkpt lat="41.6741000" lon="-5.2034900">
        <ele>824.2</ele>
        <time>2019-08-15T08:18:23Z</time>
      </trkpt>
      <trkpt lat="41.6741480" lon="-5.2035330">
        <ele>823.9</ele>
        <time>2019-08-15T08:18:24Z</time>
      </trkpt>
      <trkpt lat="41.6741960" lon="-5.2035750">
        <ele>823.6</ele>
        <time>2019-08-15T08:18:25Z</time>
      </trkpt>
      <trkpt lat="41.6742450" lon="-5.2036180">
        <ele>823.4</ele>
        <time>2019-08-15T08:18:26Z</time>
      </trkpt>
      <trkpt lat="41.6742930" lon="-5.2036590">
        <ele>823.1</ele>
        <time>2019-08-15T08:18:27Z</time>
      </trkpt>
      <trkpt lat="41.6743410" lon="-5.2037030">
        <ele>822.8</ele>
        <time>2019-08-15T08:18:28Z</time>
      </trkpt>
      <trkpt lat="41.6743880" lon="-5.2037450">
        <ele>822.6</ele>
        <time>2019-08-15T08:18:29Z</time>
      </trkpt>
      <trkpt lat="41.6744360" lon="-5.2037870">
        <ele>822.4</ele>
        <time>2019-08-15T08:18:30Z</time>
      </trkpt>
      <trkpt lat="41.6744840" lon="-5.2038290">
        <ele>822.1</ele>
        <time>2019-08-15T08:18:31Z</time>
      </trkpt>
      <trkpt lat="41.6745320" lon="-5.2038730">
        <ele>822.0</ele>
        <time>2019-08-15T08:18:32Z</time>
      </trkpt>
      <trkpt lat="41.6745800" lon="-5.2039170">
        <ele>821.8</ele>
        <time>2019-08-15T08:18:33Z</time>
      </trkpt>
      <trkpt lat="41.6746280" lon="-5.2039620">
        <ele>821.7</ele>
        <time>2019-08-15T08:18:34Z</time>
      </trkpt>
      <trkpt lat="41.6746760" lon="-5.2040050">
        <ele>821.7</ele>
        <time>2019-08-15T08:18:35Z</time>
      </trkpt>
      <trkpt lat="41.6747220" lon="-5.2040470">
        <ele>821.6</ele>
        <time>2019-08-15T08:18:36Z</time>
      </trkpt>
      <trkpt lat="41.6747680" lon="-5.2040890">
        <ele>821.4</ele>
        <time>2019-08-15T08:18:37Z</time>
      </trkpt>
      <trkpt lat="41.6748120" lon="-5.2041290">
        <ele>821.3</ele>
        <time>2019-08-15T08:18:38Z</time>
      </trkpt>
      <trkpt lat="41.6748560" lon="-5.2041690">
        <ele>821.3</ele>
        <time>2019-08-15T08:18:39Z</time>
      </trkpt>
      <trkpt lat="41.6748990" lon="-5.2042090">
        <ele>821.2</ele>
        <time>2019-08-15T08:18:40Z</time>
      </trkpt>
      <trkpt lat="41.6749460" lon="-5.2042490">
        <ele>821.2</ele>
        <time>2019-08-15T08:18:41Z</time>
      </trkpt>
      <trkpt lat="41.6749960" lon="-5.2042890">
        <ele>821.1</ele>
        <time>2019-08-15T08:18:42Z</time>
      </trkpt>
      <trkpt lat="41.6750510" lon="-5.2043350">
        <ele>821.1</ele>
        <time>2019-08-15T08:18:43Z</time>
      </trkpt>
      <trkpt lat="41.6751110" lon="-5.2043820">
        <ele>821.1</ele>
        <time>2019-08-15T08:18:44Z</time>
      </trkpt>
      <trkpt lat="41.6751750" lon="-5.2044320">
        <ele>821.1</ele>
        <time>2019-08-15T08:18:45Z</time>
      </trkpt>
      <trkpt lat="41.6752400" lon="-5.2044840">
        <ele>821.0</ele>
        <time>2019-08-15T08:18:46Z</time>
      </trkpt>
      <trkpt lat="41.6753040" lon="-5.2045360">
        <ele>820.9</ele>
        <time>2019-08-15T08:18:47Z</time>
      </trkpt>
      <trkpt lat="41.6753690" lon="-5.2045900">
        <ele>820.9</ele>
        <time>2019-08-15T08:18:48Z</time>
      </trkpt>
      <trkpt lat="41.6754320" lon="-5.2046430">
        <ele>820.8</ele>
        <time>2019-08-15T08:18:49Z</time>
      </trkpt>
      <trkpt lat="41.6754940" lon="-5.2046950">
        <ele>820.7</ele>
        <time>2019-08-15T08:18:50Z</time>
      </trkpt>
      <trkpt lat="41.6755550" lon="-5.2047460">
        <ele>820.7</ele>
        <time>2019-08-15T08:18:51Z</time>
      </trkpt>
      <trkpt lat="41.6756150" lon="-5.2047950">
        <ele>820.6</ele>
        <time>2019-08-15T08:18:52Z</time>
      </trkpt>
      <trkpt lat="41.6756760" lon="-5.2048440">
        <ele>820.6</ele>
        <time>2019-08-15T08:18:53Z</time>
      </trkpt>
      <trkpt lat="41.6757360" lon="-5.2048930">
        <ele>820.6</ele>
        <time>2019-08-15T08:18:54Z</time>
      </trkpt>
      <trkpt lat="41.6757950" lon="-5.2049430">
        <ele>820.6</ele>
        <time>2019-08-15T08:18:55Z</time>
      </trkpt>
      <trkpt lat="41.6758540" lon="-5.2049920">
        <ele>820.7</ele>
        <time>2019-08-15T08:18:56Z</time>
      </trkpt>
      <trkpt lat="41.6759110" lon="-5.2050390">
        <ele>820.8</ele>
        <time>2019-08-15T08:18:57Z</time>
      </trkpt>
      <trkpt lat="41.6759690" lon="-5.2050870">
        <ele>820.9</ele>
        <time>2019-08-15T08:18:58Z</time>
      </trkpt>
      <trkpt lat="41.6760270" lon="-5.2051350">
        <ele>821.0</ele>
        <time>2019-08-15T08:18:59Z</time>
      </trkpt>
      <trkpt lat="41.6760850" lon="-5.2051840">
        <ele>821.1</ele>
        <time>2019-08-15T08:19:00Z</time>
      </trkpt>
      <trkpt lat="41.6761430" lon="-5.2052330">
        <ele>821.2</ele>
        <time>2019-08-15T08:19:01Z</time>
      </trkpt>
      <trkpt lat="41.6762000" lon="-5.2052810">
        <ele>821.3</ele>
        <time>2019-08-15T08:19:02Z</time>
      </trkpt>
      <trkpt lat="41.6762570" lon="-5.2053280">
        <ele>821.4</ele>
        <time>2019-08-15T08:19:03Z</time>
      </trkpt>
      <trkpt lat="41.6763120" lon="-5.2053750">
        <ele>821.3</ele>
        <time>2019-08-15T08:19:04Z</time>
      </trkpt>
      <trkpt lat="41.6763670" lon="-5.2054200">
        <ele>821.3</ele>
        <time>2019-08-15T08:19:05Z</time>
      </trkpt>
      <trkpt lat="41.6764250" lon="-5.2054670">
        <ele>821.3</ele>
        <time>2019-08-15T08:19:06Z</time>
      </trkpt>
      <trkpt lat="41.6764830" lon="-5.2055130">
        <ele>821.3</ele>
        <time>2019-08-15T08:19:07Z</time>
      </trkpt>
      <trkpt lat="41.6765430" lon="-5.2055610">
        <ele>821.2</ele>
        <time>2019-08-15T08:19:08Z</time>
      </trkpt>
      <trkpt lat="41.6766010" lon="-5.2056070">
        <ele>821.1</ele>
        <time>2019-08-15T08:19:09Z</time>
      </trkpt>
      <trkpt lat="41.6766580" lon="-5.2056540">
        <ele>821.0</ele>
        <time>2019-08-15T08:19:10Z</time>
      </trkpt>
      <trkpt lat="41.6767130" lon="-5.2057020">
        <ele>820.9</ele>
        <time>2019-08-15T08:19:11Z</time>
      </trkpt>
      <trkpt lat="41.6767670" lon="-5.2057490">
        <ele>820.9</ele>
        <time>2019-08-15T08:19:12Z</time>
      </trkpt>
      <trkpt lat="41.6768220" lon="-5.2057960">
        <ele>820.8</ele>
        <time>2019-08-15T08:19:13Z</time>
      </trkpt>
      <trkpt lat="41.6768750" lon="-5.2058410">
        <ele>820.7</ele>
        <time>2019-08-15T08:19:14Z</time>
      </trkpt>
      <trkpt lat="41.6769290" lon="-5.2058850">
        <ele>820.5</ele>
        <time>2019-08-15T08:19:15Z</time>
      </trkpt>
      <trkpt lat="41.6769820" lon="-5.2059290">
        <ele>820.4</ele>
        <time>2019-08-15T08:19:16Z</time>
      </trkpt>
      <trkpt lat="41.6770340" lon="-5.2059740">
        <ele>820.3</ele>
        <time>2019-08-15T08:19:17Z</time>
      </trkpt>
      <trkpt lat="41.6770850" lon="-5.2060230">
        <ele>820.2</ele>
        <time>2019-08-15T08:19:18Z</time>
      </trkpt>
      <trkpt lat="41.6771330" lon="-5.2060780">
        <ele>820.1</ele>
        <time>2019-08-15T08:19:19Z</time>
      </trkpt>
      <trkpt lat="41.6771810" lon="-5.2061380">
        <ele>820.0</ele>
        <time>2019-08-15T08:19:20Z</time>
      </trkpt>
      <trkpt lat="41.6772240" lon="-5.2062060">
        <ele>819.9</ele>
        <time>2019-08-15T08:19:21Z</time>
      </trkpt>
      <trkpt lat="41.6772640" lon="-5.2062770">
        <ele>819.8</ele>
        <time>2019-08-15T08:19:22Z</time>
      </trkpt>
      <trkpt lat="41.6773010" lon="-5.2063520">
        <ele>819.7</ele>
        <time>2019-08-15T08:19:23Z</time>
      </trkpt>
      <trkpt lat="41.6773370" lon="-5.2064290">
        <ele>819.6</ele>
        <time>2019-08-15T08:19:24Z</time>
      </trkpt>
      <trkpt lat="41.6773720" lon="-5.2065090">
        <ele>819.6</ele>
        <time>2019-08-15T08:19:25Z</time>
      </trkpt>
      <trkpt lat="41.6774060" lon="-5.2065890">
        <ele>819.6</ele>
        <time>2019-08-15T08:19:26Z</time>
      </trkpt>
      <trkpt lat="41.6774400" lon="-5.2066710">
        <ele>819.6</ele>
        <time>2019-08-15T08:19:27Z</time>
      </trkpt>
      <trkpt lat="41.6774730" lon="-5.2067540">
        <ele>819.6</ele>
        <time>2019-08-15T08:19:28Z</time>
      </trkpt>
      <trkpt lat="41.6775030" lon="-5.2068370">
        <ele>819.7</ele>
        <time>2019-08-15T08:19:29Z</time>
      </trkpt>
      <trkpt lat="41.6775290" lon="-5.2069180">
        <ele>819.7</ele>
        <time>2019-08-15T08:19:30Z</time>
      </trkpt>
      <trkpt lat="41.6775530" lon="-5.2069990">
        <ele>819.8</ele>
        <time>2019-08-15T08:19:31Z</time>
      </trkpt>
      <trkpt lat="41.6775740" lon="-5.2070800">
        <ele>819.9</ele>
        <time>2019-08-15T08:19:32Z</time>
      </trkpt>
      <trkpt lat="41.6775950" lon="-5.2071640">
        <ele>820.0</ele>
        <time>2019-08-15T08:19:33Z</time>
      </trkpt>
      <trkpt lat="41.6776160" lon="-5.2072490">
        <ele>820.0</ele>
        <time>2019-08-15T08:19:34Z</time>
      </trkpt>
      <trkpt lat="41.6776370" lon="-5.2073340">
        <ele>820.1</ele>
        <time>2019-08-15T08:19:35Z</time>
      </trkpt>
      <trkpt lat="41.6776580" lon="-5.2074210">
        <ele>820.2</ele>
        <time>2019-08-15T08:19:36Z</time>
      </trkpt>
      <trkpt lat="41.6776760" lon="-5.2075060">
        <ele>820.1</ele>
        <time>2019-08-15T08:19:37Z</time>
      </trkpt>
      <trkpt lat="41.6776930" lon="-5.2075910">
        <ele>820.1</ele>
        <time>2019-08-15T08:19:38Z</time>
      </trkpt>
      <trkpt lat="41.6777110" lon="-5.2076760">
        <ele>820.2</ele>
        <time>2019-08-15T08:19:39Z</time>
      </trkpt>
      <trkpt lat="41.6777270" lon="-5.2077630">
        <ele>820.2</ele>
        <time>2019-08-15T08:19:40Z</time>
      </trkpt>
      <trkpt lat="41.6777400" lon="-5.2078530">
        <ele>820.0</ele>
        <time>2019-08-15T08:19:41Z</time>
      </trkpt>
      <trkpt lat="41.6777500" lon="-5.2079470">
        <ele>819.7</ele>
        <time>2019-08-15T08:19:42Z</time>
      </trkpt>
      <trkpt lat="41.6777560" lon="-5.2080430">
        <ele>819.7</ele>
        <time>2019-08-15T08:19:43Z</time>
      </trkpt>
      <trkpt lat="41.6777550" lon="-5.2081400">
        <ele>819.5</ele>
        <time>2019-08-15T08:19:44Z</time>
      </trkpt>
      <trkpt lat="41.6777440" lon="-5.2082380">
        <ele>819.3</ele>
        <time>2019-08-15T08:19:45Z</time>
      </trkpt>
      <trkpt lat="41.6777220" lon="-5.2083340">
        <ele>819.0</ele>
        <time>2019-08-15T08:19:46Z</time>
      </trkpt>
      <trkpt lat="41.6776930" lon="-5.2084260">
        <ele>818.8</ele>
        <time>2019-08-15T08:19:47Z</time>
      </trkpt>
      <trkpt lat="41.6776600" lon="-5.2085140">
        <ele>818.5</ele>
        <time>2019-08-15T08:19:48Z</time>
      </trkpt>
      <trkpt lat="41.6776240" lon="-5.2085970">
        <ele>818.3</ele>
        <time>2019-08-15T08:19:49Z</time>
      </trkpt>
      <trkpt lat="41.6775860" lon="-5.2086740">
        <ele>818.1</ele>
        <time>2019-08-15T08:19:50Z</time>
      </trkpt>
      <trkpt lat="41.6775450" lon="-5.2087460">
        <ele>817.8</ele>
        <time>2019-08-15T08:19:51Z</time>
      </trkpt>
      <trkpt lat="41.6775010" lon="-5.2088160">
        <ele>817.5</ele>
        <time>2019-08-15T08:19:52Z</time>
      </trkpt>
      <trkpt lat="41.6774560" lon="-5.2088840">
        <ele>817.2</ele>
        <time>2019-08-15T08:19:53Z</time>
      </trkpt>
      <trkpt lat="41.6774120" lon="-5.2089500">
        <ele>816.9</ele>
        <time>2019-08-15T08:19:54Z</time>
      </trkpt>
      <trkpt lat="41.6773700" lon="-5.2090140">
        <ele>816.7</ele>
        <time>2019-08-15T08:19:55Z</time>
      </trkpt>
      <trkpt lat="41.6773320" lon="-5.2090760">
        <ele>816.5</ele>
        <time>2019-08-15T08:19:56Z</time>
      </trkpt>
      <trkpt lat="41.6773050" lon="-5.2091340">
        <ele>816.3</ele>
        <time>2019-08-15T08:19:57Z</time>
      </trkpt>
      <trkpt lat="41.6772900" lon="-5.2091920">
        <ele>816.2</ele>
        <time>2019-08-15T08:19:58Z</time>
      </trkpt>
      <trkpt lat="41.6772890" lon="-5.2092520">
        <ele>816.0</ele>
        <time>2019-08-15T08:19:59Z</time>
      </trkpt>
      <trkpt lat="41.6773060" lon="-5.2093140">
        <ele>815.8</ele>
        <time>2019-08-15T08:20:00Z</time>
      </trkpt>
      <trkpt lat="41.6773380" lon="-5.2093680">
        <ele>816.0</ele>
        <time>2019-08-15T08:20:01Z</time>
      </trkpt>
      <trkpt lat="41.6773830" lon="-5.2094090">
        <ele>816.2</ele>
        <time>2019-08-15T08:20:02Z</time>
      </trkpt>
      <trkpt lat="41.6774350" lon="-5.2094350">
        <ele>816.4</ele>
        <time>2019-08-15T08:20:03Z</time>
      </trkpt>
      <trkpt lat="41.6774860" lon="-5.2094580">
        <ele>816.7</ele>
        <time>2019-08-15T08:20:04Z</time>
      </trkpt>
      <trkpt lat="41.6775340" lon="-5.2094800">
        <ele>816.9</ele>
        <time>2019-08-15T08:20:05Z</time>
      </trkpt>
      <trkpt lat="41.6775810" lon="-5.2094960">
        <ele>817.1</ele>
        <time>2019-08-15T08:20:06Z</time>
      </trkpt>
      <trkpt lat="41.6776250" lon="-5.2095070">
        <ele>817.3</ele>
        <time>2019-08-15T08:20:07Z</time>
      </trkpt>
      <trkpt lat="41.6776640" lon="-5.2095120">
        <ele>817.4</ele>
        <time>2019-08-15T08:20:08Z</time>
      </trkpt>
      <trkpt lat="41.6776980" lon="-5.2095140">
        <ele>817.5</ele>
        <time>2019-08-15T08:20:09Z</time>
      </trkpt>
      <trkpt lat="41.6777260" lon="-5.2095150">
        <ele>817.6</ele>
        <time>2019-08-15T08:20:10Z</time>
      </trkpt>
      <trkpt lat="41.6777530" lon="-5.2095170">
        <ele>817.7</ele>
        <time>2019-08-15T08:20:11Z</time>
      </trkpt>
      <trkpt lat="41.6778040" lon="-5.2095290">
        <ele>817.8</ele>
        <time>2019-08-15T08:20:13Z</time>
      </trkpt>
      <trkpt lat="41.6778540" lon="-5.2095440">
        <ele>817.9</ele>
        <time>2019-08-15T08:20:15Z</time>
      </trkpt>
      <trkpt lat="41.6778990" lon="-5.2095690">
        <ele>818.0</ele>
        <time>2019-08-15T08:20:17Z</time>
      </trkpt>
      <trkpt lat="41.6779400" lon="-5.2096000">
        <ele>818.0</ele>
        <time>2019-08-15T08:20:19Z</time>
      </trkpt>
      <trkpt lat="41.6779780" lon="-5.2096340">
        <ele>818.0</ele>
        <time>2019-08-15T08:20:21Z</time>
      </trkpt>
      <trkpt lat="41.6780190" lon="-5.2096790">
        <ele>818.1</ele>
        <time>2019-08-15T08:20:23Z</time>
      </trkpt>
      <trkpt lat="41.6780600" lon="-5.2097290">
        <ele>818.2</ele>
        <time>2019-08-15T08:20:25Z</time>
      </trkpt>
      <trkpt lat="41.6780800" lon="-5.2097560">
        <ele>818.3</ele>
        <time>2019-08-15T08:20:26Z</time>
      </trkpt>
      <trkpt lat="41.6781010" lon="-5.2097820">
        <ele>818.4</ele>
        <time>2019-08-15T08:20:27Z</time>
      </trkpt>
      <trkpt lat="41.6781220" lon="-5.2098090">
        <ele>818.4</ele>
        <time>2019-08-15T08:20:28Z</time>
      </trkpt>
      <trkpt lat="41.6781430" lon="-5.2098340">
        <ele>818.5</ele>
        <time>2019-08-15T08:20:29Z</time>
      </trkpt>
      <trkpt lat="41.6781630" lon="-5.2098590">
        <ele>818.6</ele>
        <time>2019-08-15T08:20:30Z</time>
      </trkpt>
      <trkpt lat="41.6781830" lon="-5.2098830">
        <ele>818.7</ele>
        <time>2019-08-15T08:20:31Z</time>
      </trkpt>
      <trkpt lat="41.6782000" lon="-5.2099080">
        <ele>818.7</ele>
        <time>2019-08-15T08:20:32Z</time>
      </trkpt>
      <trkpt lat="41.6782340" lon="-5.2099530">
        <ele>818.9</ele>
        <time>2019-08-15T08:20:34Z</time>
      </trkpt>
      <trkpt lat="41.6782710" lon="-5.2099990">
        <ele>819.1</ele>
        <time>2019-08-15T08:20:36Z</time>
      </trkpt>
      <trkpt lat="41.6783040" lon="-5.2100460">
        <ele>819.4</ele>
        <time>2019-08-15T08:20:38Z</time>
      </trkpt>
      <trkpt lat="41.6783370" lon="-5.2100860">
        <ele>819.6</ele>
        <time>2019-08-15T08:20:40Z</time>
      </trkpt>
      <trkpt lat="41.6783690" lon="-5.2101230">
        <ele>819.7</ele>
        <time>2019-08-15T08:20:42Z</time>
      </trkpt>
      <trkpt lat="41.6784000" lon="-5.2101600">
        <ele>820.0</ele>
        <time>2019-08-15T08:20:44Z</time>
      </trkpt>
      <trkpt lat="41.6784320" lon="-5.2101940">
        <ele>820.3</ele>
        <time>2019-08-15T08:20:46Z</time>
      </trkpt>
      <trkpt lat="41.6784660" lon="-5.2102240">
        <ele>820.6</ele>
        <time>2019-08-15T08:20:48Z</time>
      </trkpt>
      <trkpt lat="41.6785010" lon="-5.2102520">
        <ele>821.0</ele>
        <time>2019-08-15T08:20:50Z</time>
      </trkpt>
      <trkpt lat="41.6785370" lon="-5.2102720">
        <ele>821.2</ele>
        <time>2019-08-15T08:20:52Z</time>
      </trkpt>
      <trkpt lat="41.6785750" lon="-5.2102860">
        <ele>821.5</ele>
        <time>2019-08-15T08:20:54Z</time>
      </trkpt>
      <trkpt lat="41.6786160" lon="-5.2103050">
        <ele>821.7</ele>
        <time>2019-08-15T08:20:56Z</time>
      </trkpt>
      <trkpt lat="41.6786720" lon="-5.2103220">
        <ele>821.9</ele>
        <time>2019-08-15T08:20:58Z</time>
      </trkpt>
      <trkpt lat="41.6786970" lon="-5.2103320">
        <ele>821.7</ele>
        <time>2019-08-15T08:20:59Z</time>
      </trkpt>
      <trkpt lat="41.6787350" lon="-5.2103570">
        <ele>821.8</ele>
        <time>2019-08-15T08:21:01Z</time>
      </trkpt>
      <trkpt lat="41.6787650" lon="-5.2103650">
        <ele>821.7</ele>
        <time>2019-08-15T08:21:03Z</time>
      </trkpt>
      <trkpt lat="41.6787840" lon="-5.2103330">
        <ele>821.6</ele>
        <time>2019-08-15T08:21:05Z</time>
      </trkpt>
      <trkpt lat="41.6787730" lon="-5.2102680">
        <ele>821.3</ele>
        <time>2019-08-15T08:21:07Z</time>
      </trkpt>
      <trkpt lat="41.6787600" lon="-5.2102280">
        <ele>821.2</ele>
        <time>2019-08-15T08:21:08Z</time>
      </trkpt>
      <trkpt lat="41.6787430" lon="-5.2101840">
        <ele>821.0</ele>
        <time>2019-08-15T08:21:09Z</time>
      </trkpt>
      <trkpt lat="41.6787240" lon="-5.2101340">
        <ele>820.8</ele>
        <time>2019-08-15T08:21:10Z</time>
      </trkpt>
      <trkpt lat="41.6787050" lon="-5.2100790">
        <ele>820.7</ele>
        <time>2019-08-15T08:21:11Z</time>
      </trkpt>
      <trkpt lat="41.6786850" lon="-5.2100200">
        <ele>820.6</ele>
        <time>2019-08-15T08:21:12Z</time>
      </trkpt>
      <trkpt lat="41.6786640" lon="-5.2099560">
        <ele>820.5</ele>
        <time>2019-08-15T08:21:13Z</time>
      </trkpt>
      <trkpt lat="41.6786420" lon="-5.2098880">
        <ele>820.4</ele>
        <time>2019-08-15T08:21:14Z</time>
      </trkpt>
      <trkpt lat="41.6786220" lon="-5.2098160">
        <ele>820.3</ele>
        <time>2019-08-15T08:21:15Z</time>
      </trkpt>
      <trkpt lat="41.6786010" lon="-5.2097410">
        <ele>820.3</ele>
        <time>2019-08-15T08:21:16Z</time>
      </trkpt>
      <trkpt lat="41.6785780" lon="-5.2096650">
        <ele>820.3</ele>
        <time>2019-08-15T08:21:17Z</time>
      </trkpt>
      <trkpt lat="41.6785550" lon="-5.2095880">
        <ele>820.3</ele>
        <time>2019-08-15T08:21:18Z</time>
      </trkpt>
      <trkpt lat="41.6785330" lon="-5.2095080">
        <ele>820.4</ele>
        <time>2019-08-15T08:21:19Z</time>
      </trkpt>
      <trkpt lat="41.6785150" lon="-5.2094280">
        <ele>820.5</ele>
        <time>2019-08-15T08:21:20Z</time>
      </trkpt>
      <trkpt lat="41.6785000" lon="-5.2093470">
        <ele>820.6</ele>
        <time>2019-08-15T08:21:21Z</time>
      </trkpt>
      <trkpt lat="41.6784880" lon="-5.2092660">
        <ele>820.6</ele>
        <time>2019-08-15T08:21:22Z</time>
      </trkpt>
      <trkpt lat="41.6784810" lon="-5.2091850">
        <ele>820.7</ele>
        <time>2019-08-15T08:21:23Z</time>
      </trkpt>
      <trkpt lat="41.6784800" lon="-5.2091040">
        <ele>820.8</ele>
        <time>2019-08-15T08:21:24Z</time>
      </trkpt>
      <trkpt lat="41.6784820" lon="-5.2090230">
        <ele>820.9</ele>
        <time>2019-08-15T08:21:25Z</time>
      </trkpt>
      <trkpt lat="41.6784890" lon="-5.2089420">
        <ele>820.9</ele>
        <time>2019-08-15T08:21:26Z</time>
      </trkpt>
      <trkpt lat="41.6784990" lon="-5.2088630">
        <ele>820.9</ele>
        <time>2019-08-15T08:21:27Z</time>
      </trkpt>
      <trkpt lat="41.6785130" lon="-5.2087860">
        <ele>820.9</ele>
        <time>2019-08-15T08:21:28Z</time>
      </trkpt>
      <trkpt lat="41.6785260" lon="-5.2087140">
        <ele>820.9</ele>
        <time>2019-08-15T08:21:29Z</time>
      </trkpt>
      <trkpt lat="41.6785360" lon="-5.2086450">
        <ele>820.8</ele>
        <time>2019-08-15T08:21:30Z</time>
      </trkpt>
      <trkpt lat="41.6785460" lon="-5.2085770">
        <ele>820.8</ele>
        <time>2019-08-15T08:21:31Z</time>
      </trkpt>
      <trkpt lat="41.6785580" lon="-5.2085100">
        <ele>820.8</ele>
        <time>2019-08-15T08:21:32Z</time>
      </trkpt>
      <trkpt lat="41.6785740" lon="-5.2084450">
        <ele>820.8</ele>
        <time>2019-08-15T08:21:33Z</time>
      </trkpt>
      <trkpt lat="41.6785950" lon="-5.2083840">
        <ele>820.9</ele>
        <time>2019-08-15T08:21:34Z</time>
      </trkpt>
      <trkpt lat="41.6786180" lon="-5.2083240">
        <ele>820.9</ele>
        <time>2019-08-15T08:21:35Z</time>
      </trkpt>
      <trkpt lat="41.6786450" lon="-5.2082670">
        <ele>821.0</ele>
        <time>2019-08-15T08:21:36Z</time>
      </trkpt>
      <trkpt lat="41.6786750" lon="-5.2082160">
        <ele>821.1</ele>
        <time>2019-08-15T08:21:37Z</time>
      </trkpt>
      <trkpt lat="41.6787100" lon="-5.2081730">
        <ele>821.1</ele>
        <time>2019-08-15T08:21:38Z</time>
      </trkpt>
      <trkpt lat="41.6787480" lon="-5.2081410">
        <ele>821.2</ele>
        <time>2019-08-15T08:21:39Z</time>
      </trkpt>
      <trkpt lat="41.6787880" lon="-5.2081210">
        <ele>821.3</ele>
        <time>2019-08-15T08:21:40Z</time>
      </trkpt>
      <trkpt lat="41.6788290" lon="-5.2081120">
        <ele>821.4</ele>
        <time>2019-08-15T08:21:41Z</time>
      </trkpt>
      <trkpt lat="41.6788690" lon="-5.2081120">
        <ele>821.5</ele>
        <time>2019-08-15T08:21:42Z</time>
      </trkpt>
      <trkpt lat="41.6789070" lon="-5.2081160">
        <ele>821.5</ele>
        <time>2019-08-15T08:21:43Z</time>
      </trkpt>
      <trkpt lat="41.6789460" lon="-5.2081220">
        <ele>821.6</ele>
        <time>2019-08-15T08:21:44Z</time>
      </trkpt>
      <trkpt lat="41.6789820" lon="-5.2081280">
        <ele>821.6</ele>
        <time>2019-08-15T08:21:45Z</time>
      </trkpt>
      <trkpt lat="41.6790180" lon="-5.2081350">
        <ele>821.7</ele>
        <time>2019-08-15T08:21:46Z</time>
      </trkpt>
      <trkpt lat="41.6790510" lon="-5.2081420">
        <ele>821.8</ele>
        <time>2019-08-15T08:21:47Z</time>
      </trkpt>
      <trkpt lat="41.6790820" lon="-5.2081490">
        <ele>821.8</ele>
        <time>2019-08-15T08:21:48Z</time>
      </trkpt>
      <trkpt lat="41.6791110" lon="-5.2081550">
        <ele>821.9</ele>
        <time>2019-08-15T08:21:49Z</time>
      </trkpt>
      <trkpt lat="41.6791380" lon="-5.2081600">
        <ele>821.9</ele>
        <time>2019-08-15T08:21:50Z</time>
      </trkpt>
      <trkpt lat="41.6791630" lon="-5.2081670">
        <ele>822.0</ele>
        <time>2019-08-15T08:21:51Z</time>
      </trkpt>
      <trkpt lat="41.6792090" lon="-5.2081810">
        <ele>822.0</ele>
        <time>2019-08-15T08:21:53Z</time>
      </trkpt>
      <trkpt lat="41.6792540" lon="-5.2081920">
        <ele>822.1</ele>
        <time>2019-08-15T08:21:55Z</time>
      </trkpt>
      <trkpt lat="41.6792980" lon="-5.2082000">
        <ele>822.2</ele>
        <time>2019-08-15T08:21:57Z</time>
      </trkpt>
      <trkpt lat="41.6793380" lon="-5.2082100">
        <ele>822.2</ele>
        <time>2019-08-15T08:21:59Z</time>
      </trkpt>
      <trkpt lat="41.6793770" lon="-5.2082260">
        <ele>822.3</ele>
        <time>2019-08-15T08:22:01Z</time>
      </trkpt>
      <trkpt lat="41.6794190" lon="-5.2082400">
        <ele>822.4</ele>
        <time>2019-08-15T08:22:03Z</time>
      </trkpt>
      <trkpt lat="41.6794630" lon="-5.2082550">
        <ele>822.4</ele>
        <time>2019-08-15T08:22:05Z</time>
      </trkpt>
      <trkpt lat="41.6795080" lon="-5.2082730">
        <ele>822.6</ele>
        <time>2019-08-15T08:22:07Z</time>
      </trkpt>
      <trkpt lat="41.6795570" lon="-5.2082860">
        <ele>822.7</ele>
        <time>2019-08-15T08:22:09Z</time>
      </trkpt>
      <trkpt lat="41.6796100" lon="-5.2083050">
        <ele>822.7</ele>
        <time>2019-08-15T08:22:11Z</time>
      </trkpt>
      <trkpt lat="41.6796380" lon="-5.2083170">
        <ele>822.8</ele>
        <time>2019-08-15T08:22:12Z</time>
      </trkpt>
      <trkpt lat="41.6796690" lon="-5.2083310">
        <ele>822.9</ele>
        <time>2019-08-15T08:22:13Z</time>
      </trkpt>
      <trkpt lat="41.6797020" lon="-5.2083460">
        <ele>823.0</ele>
        <time>2019-08-15T08:22:14Z</time>
      </trkpt>
      <trkpt lat="41.6797350" lon="-5.2083610">
        <ele>823.0</ele>
        <time>2019-08-15T08:22:15Z</time>
      </trkpt>
      <trkpt lat="41.6797670" lon="-5.2083750">
        <ele>823.1</ele>
        <time>2019-08-15T08:22:16Z</time>
      </trkpt>
      <trkpt lat="41.6798000" lon="-5.2083900">
        <ele>823.2</ele>
        <time>2019-08-15T08:22:17Z</time>
      </trkpt>
      <trkpt lat="41.6798340" lon="-5.2084070">
        <ele>823.2</ele>
        <time>2019-08-15T08:22:18Z</time>
      </trkpt>
      <trkpt lat="41.6798680" lon="-5.2084260">
        <ele>823.3</ele>
        <time>2019-08-15T08:22:19Z</time>
      </trkpt>
      <trkpt lat="41.6799040" lon="-5.2084460">
        <ele>823.4</ele>
        <time>2019-08-15T08:22:20Z</time>
      </trkpt>
      <trkpt lat="41.6799410" lon="-5.2084660">
        <ele>823.5</ele>
        <time>2019-08-15T08:22:21Z</time>
      </trkpt>
      <trkpt lat="41.6799780" lon="-5.2084870">
        <ele>823.5</ele>
        <time>2019-08-15T08:22:22Z</time>
      </trkpt>
      <trkpt lat="41.6800170" lon="-5.2085100">
        <ele>823.6</ele>
        <time>2019-08-15T08:22:23Z</time>
      </trkpt>
      <trkpt lat="41.6800570" lon="-5.2085330">
        <ele>823.7</ele>
        <time>2019-08-15T08:22:24Z</time>
      </trkpt>
      <trkpt lat="41.6800970" lon="-5.2085570">
        <ele>823.7</ele>
        <time>2019-08-15T08:22:25Z</time>
      </trkpt>
      <trkpt lat="41.6801380" lon="-5.2085830">
        <ele>823.8</ele>
        <time>2019-08-15T08:22:26Z</time>
      </trkpt>
      <trkpt lat="41.6801780" lon="-5.2086100">
        <ele>823.9</ele>
        <time>2019-08-15T08:22:27Z</time>
      </trkpt>
      <trkpt lat="41.6802180" lon="-5.2086360">
        <ele>823.9</ele>
        <time>2019-08-15T08:22:28Z</time>
      </trkpt>
      <trkpt lat="41.6802600" lon="-5.2086610">
        <ele>824.0</ele>
        <time>2019-08-15T08:22:29Z</time>
      </trkpt>
      <trkpt lat="41.6803020" lon="-5.2086890">
        <ele>824.1</ele>
        <time>2019-08-15T08:22:30Z</time>
      </trkpt>
      <trkpt lat="41.6803430" lon="-5.2087160">
        <ele>824.2</ele>
        <time>2019-08-15T08:22:31Z</time>
      </trkpt>
      <trkpt lat="41.6803840" lon="-5.2087440">
        <ele>824.2</ele>
        <time>2019-08-15T08:22:32Z</time>
      </trkpt>
      <trkpt lat="41.6804240" lon="-5.2087740">
        <ele>824.3</ele>
        <time>2019-08-15T08:22:33Z</time>
      </trkpt>
      <trkpt lat="41.6804650" lon="-5.2088040">
        <ele>824.3</ele>
        <time>2019-08-15T08:22:34Z</time>
      </trkpt>
      <trkpt lat="41.6805070" lon="-5.2088350">
        <ele>824.4</ele>
        <time>2019-08-15T08:22:35Z</time>
      </trkpt>
      <trkpt lat="41.6805490" lon="-5.2088650">
        <ele>824.4</ele>
        <time>2019-08-15T08:22:36Z</time>
      </trkpt>
      <trkpt lat="41.6805920" lon="-5.2088950">
        <ele>824.5</ele>
        <time>2019-08-15T08:22:37Z</time>
      </trkpt>
      <trkpt lat="41.6806330" lon="-5.2089260">
        <ele>824.7</ele>
        <time>2019-08-15T08:22:38Z</time>
      </trkpt>
      <trkpt lat="41.6806740" lon="-5.2089530">
        <ele>824.8</ele>
        <time>2019-08-15T08:22:39Z</time>
      </trkpt>
      <trkpt lat="41.6807130" lon="-5.2089790">
        <ele>824.8</ele>
        <time>2019-08-15T08:22:40Z</time>
      </trkpt>
      <trkpt lat="41.6807510" lon="-5.2090070">
        <ele>824.9</ele>
        <time>2019-08-15T08:22:41Z</time>
      </trkpt>
      <trkpt lat="41.6807890" lon="-5.2090360">
        <ele>824.9</ele>
        <time>2019-08-15T08:22:42Z</time>
      </trkpt>
      <trkpt lat="41.6808270" lon="-5.2090630">
        <ele>825.0</ele>
        <time>2019-08-15T08:22:43Z</time>
      </trkpt>
      <trkpt lat="41.6808650" lon="-5.2090880">
        <ele>825.1</ele>
        <time>2019-08-15T08:22:44Z</time>
      </trkpt>
      <trkpt lat="41.6809010" lon="-5.2091140">
        <ele>825.2</ele>
        <time>2019-08-15T08:22:45Z</time>
      </trkpt>
      <trkpt lat="41.6809380" lon="-5.2091390">
        <ele>825.2</ele>
        <time>2019-08-15T08:22:46Z</time>
      </trkpt>
      <trkpt lat="41.6809750" lon="-5.2091610">
        <ele>825.3</ele>
        <time>2019-08-15T08:22:47Z</time>
      </trkpt>
      <trkpt lat="41.6810100" lon="-5.2091830">
        <ele>825.3</ele>
        <time>2019-08-15T08:22:48Z</time>
      </trkpt>
      <trkpt lat="41.6810460" lon="-5.2092050">
        <ele>825.4</ele>
        <time>2019-08-15T08:22:49Z</time>
      </trkpt>
      <trkpt lat="41.6810830" lon="-5.2092260">
        <ele>825.4</ele>
        <time>2019-08-15T08:22:50Z</time>
      </trkpt>
      <trkpt lat="41.6811190" lon="-5.2092470">
        <ele>825.5</ele>
        <time>2019-08-15T08:22:51Z</time>
      </trkpt>
      <trkpt lat="41.6811560" lon="-5.2092690">
        <ele>825.5</ele>
        <time>2019-08-15T08:22:52Z</time>
      </trkpt>
      <trkpt lat="41.6811940" lon="-5.2092910">
        <ele>825.5</ele>
        <time>2019-08-15T08:22:53Z</time>
      </trkpt>
      <trkpt lat="41.6812340" lon="-5.2093150">
        <ele>825.6</ele>
        <time>2019-08-15T08:22:54Z</time>
      </trkpt>
      <trkpt lat="41.6812730" lon="-5.2093360">
        <ele>825.6</ele>
        <time>2019-08-15T08:22:55Z</time>
      </trkpt>
      <trkpt lat="41.6813140" lon="-5.2093560">
        <ele>825.7</ele>
        <time>2019-08-15T08:22:56Z</time>
      </trkpt>
      <trkpt lat="41.6813550" lon="-5.2093760">
        <ele>825.7</ele>
        <time>2019-08-15T08:22:57Z</time>
      </trkpt>
      <trkpt lat="41.6813950" lon="-5.2093970">
        <ele>825.7</ele>
        <time>2019-08-15T08:22:58Z</time>
      </trkpt>
      <trkpt lat="41.6814360" lon="-5.2094180">
        <ele>825.7</ele>
        <time>2019-08-15T08:22:59Z</time>
      </trkpt>
      <trkpt lat="41.6814760" lon="-5.2094390">
        <ele>825.7</ele>
        <time>2019-08-15T08:23:00Z</time>
      </trkpt>
      <trkpt lat="41.6815170" lon="-5.2094590">
        <ele>825.7</ele>
        <time>2019-08-15T08:23:01Z</time>
      </trkpt>
      <trkpt lat="41.6815570" lon="-5.2094810">
        <ele>825.7</ele>
        <time>2019-08-15T08:23:02Z</time>
      </trkpt>
      <trkpt lat="41.6815970" lon="-5.2095030">
        <ele>825.7</ele>
        <time>2019-08-15T08:23:03Z</time>
      </trkpt>
      <trkpt lat="41.6816380" lon="-5.2095250">
        <ele>825.7</ele>
        <time>2019-08-15T08:23:04Z</time>
      </trkpt>
      <trkpt lat="41.6816780" lon="-5.2095470">
        <ele>825.6</ele>
        <time>2019-08-15T08:23:05Z</time>
      </trkpt>
      <trkpt lat="41.6817200" lon="-5.2095680">
        <ele>825.6</ele>
        <time>2019-08-15T08:23:06Z</time>
      </trkpt>
      <trkpt lat="41.6817630" lon="-5.2095910">
        <ele>825.6</ele>
        <time>2019-08-15T08:23:07Z</time>
      </trkpt>
      <trkpt lat="41.6818050" lon="-5.2096130">
        <ele>825.5</ele>
        <time>2019-08-15T08:23:08Z</time>
      </trkpt>
      <trkpt lat="41.6818480" lon="-5.2096360">
        <ele>825.5</ele>
        <time>2019-08-15T08:23:09Z</time>
      </trkpt>
      <trkpt lat="41.6818920" lon="-5.2096590">
        <ele>825.4</ele>
        <time>2019-08-15T08:23:10Z</time>
      </trkpt>
      <trkpt lat="41.6819330" lon="-5.2096820">
        <ele>825.4</ele>
        <time>2019-08-15T08:23:11Z</time>
      </trkpt>
      <trkpt lat="41.6819760" lon="-5.2097040">
        <ele>825.3</ele>
        <time>2019-08-15T08:23:12Z</time>
      </trkpt>
      <trkpt lat="41.6820210" lon="-5.2097270">
        <ele>825.3</ele>
        <time>2019-08-15T08:23:13Z</time>
      </trkpt>
      <trkpt lat="41.6820670" lon="-5.2097510">
        <ele>825.3</ele>
        <time>2019-08-15T08:23:14Z</time>
      </trkpt>
      <trkpt lat="41.6821160" lon="-5.2097760">
        <ele>825.2</ele>
        <time>2019-08-15T08:23:15Z</time>
      </trkpt>
      <trkpt lat="41.6821640" lon="-5.2098000">
        <ele>825.2</ele>
        <time>2019-08-15T08:23:16Z</time>
      </trkpt>
      <trkpt lat="41.6822120" lon="-5.2098250">
        <ele>825.1</ele>
        <time>2019-08-15T08:23:17Z</time>
      </trkpt>
      <trkpt lat="41.6822620" lon="-5.2098510">
        <ele>825.0</ele>
        <time>2019-08-15T08:23:18Z</time>
      </trkpt>
      <trkpt lat="41.6823100" lon="-5.2098770">
        <ele>825.0</ele>
        <time>2019-08-15T08:23:19Z</time>
      </trkpt>
      <trkpt lat="41.6823570" lon="-5.2099060">
        <ele>824.8</ele>
        <time>2019-08-15T08:23:20Z</time>
      </trkpt>
      <trkpt lat="41.6824010" lon="-5.2099320">
        <ele>824.6</ele>
        <time>2019-08-15T08:23:21Z</time>
      </trkpt>
      <trkpt lat="41.6824450" lon="-5.2099570">
        <ele>824.5</ele>
        <time>2019-08-15T08:23:22Z</time>
      </trkpt>
      <trkpt lat="41.6824900" lon="-5.2099800">
        <ele>824.3</ele>
        <time>2019-08-15T08:23:23Z</time>
      </trkpt>
      <trkpt lat="41.6825380" lon="-5.2100060">
        <ele>824.0</ele>
        <time>2019-08-15T08:23:24Z</time>
      </trkpt>
      <trkpt lat="41.6825890" lon="-5.2100310">
        <ele>823.7</ele>
        <time>2019-08-15T08:23:25Z</time>
      </trkpt>
      <trkpt lat="41.6826400" lon="-5.2100540">
        <ele>823.5</ele>
        <time>2019-08-15T08:23:26Z</time>
      </trkpt>
      <trkpt lat="41.6826900" lon="-5.2100760">
        <ele>823.4</ele>
        <time>2019-08-15T08:23:27Z</time>
      </trkpt>
      <trkpt lat="41.6827400" lon="-5.2100960">
        <ele>823.2</ele>
        <time>2019-08-15T08:23:28Z</time>
      </trkpt>
      <trkpt lat="41.6827900" lon="-5.2101170">
        <ele>823.0</ele>
        <time>2019-08-15T08:23:29Z</time>
      </trkpt>
      <trkpt lat="41.6828420" lon="-5.2101390">
        <ele>822.9</ele>
        <time>2019-08-15T08:23:30Z</time>
      </trkpt>
      <trkpt lat="41.6828970" lon="-5.2101620">
        <ele>822.8</ele>
        <time>2019-08-15T08:23:31Z</time>
      </trkpt>
      <trkpt lat="41.6829520" lon="-5.2101860">
        <ele>822.7</ele>
        <time>2019-08-15T08:23:32Z</time>
      </trkpt>
      <trkpt lat="41.6830060" lon="-5.2102100">
        <ele>822.6</ele>
        <time>2019-08-15T08:23:33Z</time>
      </trkpt>
      <trkpt lat="41.6830610" lon="-5.2102350">
        <ele>822.5</ele>
        <time>2019-08-15T08:23:34Z</time>
      </trkpt>
      <trkpt lat="41.6831160" lon="-5.2102580">
        <ele>822.5</ele>
        <time>2019-08-15T08:23:35Z</time>
      </trkpt>
      <trkpt lat="41.6831690" lon="-5.2102810">
        <ele>822.5</ele>
        <time>2019-08-15T08:23:36Z</time>
      </trkpt>
      <trkpt lat="41.6832230" lon="-5.2103040">
        <ele>822.5</ele>
        <time>2019-08-15T08:23:37Z</time>
      </trkpt>
      <trkpt lat="41.6832740" lon="-5.2103270">
        <ele>822.6</ele>
        <time>2019-08-15T08:23:38Z</time>
      </trkpt>
      <trkpt lat="41.6833250" lon="-5.2103500">
        <ele>822.7</ele>
        <time>2019-08-15T08:23:39Z</time>
      </trkpt>
      <trkpt lat="41.6833770" lon="-5.2103750">
        <ele>822.9</ele>
        <time>2019-08-15T08:23:40Z</time>
      </trkpt>
      <trkpt lat="41.6834260" lon="-5.2103980">
        <ele>823.1</ele>
        <time>2019-08-15T08:23:41Z</time>
      </trkpt>
      <trkpt lat="41.6834740" lon="-5.2104220">
        <ele>823.4</ele>
        <time>2019-08-15T08:23:42Z</time>
      </trkpt>
      <trkpt lat="41.6835230" lon="-5.2104450">
        <ele>823.6</ele>
        <time>2019-08-15T08:23:43Z</time>
      </trkpt>
      <trkpt lat="41.6835730" lon="-5.2104680">
        <ele>823.9</ele>
        <time>2019-08-15T08:23:44Z</time>
      </trkpt>
      <trkpt lat="41.6836240" lon="-5.2104920">
        <ele>824.2</ele>
        <time>2019-08-15T08:23:45Z</time>
      </trkpt>
      <trkpt lat="41.6836760" lon="-5.2105170">
        <ele>824.5</ele>
        <time>2019-08-15T08:23:46Z</time>
      </trkpt>
      <trkpt lat="41.6837290" lon="-5.2105420">
        <ele>824.7</ele>
        <time>2019-08-15T08:23:47Z</time>
      </trkpt>
      <trkpt lat="41.6837790" lon="-5.2105660">
        <ele>824.9</ele>
        <time>2019-08-15T08:23:48Z</time>
      </trkpt>
      <trkpt lat="41.6838270" lon="-5.2105900">
        <ele>825.0</ele>
        <time>2019-08-15T08:23:49Z</time>
      </trkpt>
      <trkpt lat="41.6838750" lon="-5.2106120">
        <ele>825.1</ele>
        <time>2019-08-15T08:23:50Z</time>
      </trkpt>
      <trkpt lat="41.6839250" lon="-5.2106330">
        <ele>825.1</ele>
        <time>2019-08-15T08:23:51Z</time>
      </trkpt>
      <trkpt lat="41.6839720" lon="-5.2106550">
        <ele>825.1</ele>
        <time>2019-08-15T08:23:52Z</time>
      </trkpt>
      <trkpt lat="41.6840160" lon="-5.2106770">
        <ele>825.1</ele>
        <time>2019-08-15T08:23:53Z</time>
      </trkpt>
      <trkpt lat="41.6840600" lon="-5.2106980">
        <ele>825.2</ele>
        <time>2019-08-15T08:23:54Z</time>
      </trkpt>
      <trkpt lat="41.6841080" lon="-5.2107210">
        <ele>825.2</ele>
        <time>2019-08-15T08:23:55Z</time>
      </trkpt>
      <trkpt lat="41.6841570" lon="-5.2107460">
        <ele>825.2</ele>
        <time>2019-08-15T08:23:56Z</time>
      </trkpt>
      <trkpt lat="41.6842050" lon="-5.2107710">
        <ele>825.4</ele>
        <time>2019-08-15T08:23:57Z</time>
      </trkpt>
      <trkpt lat="41.6842530" lon="-5.2107930">
        <ele>825.5</ele>
        <time>2019-08-15T08:23:58Z</time>
      </trkpt>
      <trkpt lat="41.6842970" lon="-5.2108130">
        <ele>825.6</ele>
        <time>2019-08-15T08:23:59Z</time>
      </trkpt>
      <trkpt lat="41.6843390" lon="-5.2108330">
        <ele>825.7</ele>
        <time>2019-08-15T08:24:00Z</time>
      </trkpt>
      <trkpt lat="41.6843820" lon="-5.2108540">
        <ele>825.8</ele>
        <time>2019-08-15T08:24:01Z</time>
      </trkpt>
      <trkpt lat="41.6844260" lon="-5.2108750">
        <ele>825.9</ele>
        <time>2019-08-15T08:24:02Z</time>
      </trkpt>
      <trkpt lat="41.6844710" lon="-5.2108970">
        <ele>826.0</ele>
        <time>2019-08-15T08:24:03Z</time>
      </trkpt>
      <trkpt lat="41.6845160" lon="-5.2109200">
        <ele>826.1</ele>
        <time>2019-08-15T08:24:04Z</time>
      </trkpt>
      <trkpt lat="41.6845630" lon="-5.2109420">
        <ele>826.2</ele>
        <time>2019-08-15T08:24:05Z</time>
      </trkpt>
      <trkpt lat="41.6846100" lon="-5.2109630">
        <ele>826.3</ele>
        <time>2019-08-15T08:24:06Z</time>
      </trkpt>
      <trkpt lat="41.6846580" lon="-5.2109860">
        <ele>826.4</ele>
        <time>2019-08-15T08:24:07Z</time>
      </trkpt>
      <trkpt lat="41.6847060" lon="-5.2110100">
        <ele>826.5</ele>
        <time>2019-08-15T08:24:08Z</time>
      </trkpt>
      <trkpt lat="41.6847540" lon="-5.2110340">
        <ele>826.6</ele>
        <time>2019-08-15T08:24:09Z</time>
      </trkpt>
      <trkpt lat="41.6848030" lon="-5.2110570">
        <ele>826.8</ele>
        <time>2019-08-15T08:24:10Z</time>
      </trkpt>
      <trkpt lat="41.6848520" lon="-5.2110800">
        <ele>826.8</ele>
        <time>2019-08-15T08:24:11Z</time>
      </trkpt>
      <trkpt lat="41.6849000" lon="-5.2111020">
        <ele>826.9</ele>
        <time>2019-08-15T08:24:12Z</time>
      </trkpt>
      <trkpt lat="41.6849490" lon="-5.2111260">
        <ele>827.0</ele>
        <time>2019-08-15T08:24:13Z</time>
      </trkpt>
      <trkpt lat="41.6849980" lon="-5.2111470">
        <ele>827.2</ele>
        <time>2019-08-15T08:24:14Z</time>
      </trkpt>
      <trkpt lat="41.6850470" lon="-5.2111680">
        <ele>827.3</ele>
        <time>2019-08-15T08:24:15Z</time>
      </trkpt>
      <trkpt lat="41.6850930" lon="-5.2111900">
        <ele>827.4</ele>
        <time>2019-08-15T08:24:16Z</time>
      </trkpt>
      <trkpt lat="41.6851370" lon="-5.2112100">
        <ele>827.5</ele>
        <time>2019-08-15T08:24:17Z</time>
      </trkpt>
      <trkpt lat="41.6851810" lon="-5.2112310">
        <ele>827.7</ele>
        <time>2019-08-15T08:24:18Z</time>
      </trkpt>
      <trkpt lat="41.6852270" lon="-5.2112520">
        <ele>827.8</ele>
        <time>2019-08-15T08:24:19Z</time>
      </trkpt>
      <trkpt lat="41.6852730" lon="-5.2112730">
        <ele>827.9</ele>
        <time>2019-08-15T08:24:20Z</time>
      </trkpt>
      <trkpt lat="41.6853190" lon="-5.2112960">
        <ele>828.1</ele>
        <time>2019-08-15T08:24:21Z</time>
      </trkpt>
      <trkpt lat="41.6853670" lon="-5.2113200">
        <ele>828.2</ele>
        <time>2019-08-15T08:24:22Z</time>
      </trkpt>
      <trkpt lat="41.6854150" lon="-5.2113450">
        <ele>828.3</ele>
        <time>2019-08-15T08:24:23Z</time>
      </trkpt>
      <trkpt lat="41.6854630" lon="-5.2113690">
        <ele>828.4</ele>
        <time>2019-08-15T08:24:24Z</time>
      </trkpt>
      <trkpt lat="41.6855100" lon="-5.2113920">
        <ele>828.4</ele>
        <time>2019-08-15T08:24:25Z</time>
      </trkpt>
      <trkpt lat="41.6855580" lon="-5.2114160">
        <ele>828.5</ele>
        <time>2019-08-15T08:24:26Z</time>
      </trkpt>
      <trkpt lat="41.6856060" lon="-5.2114390">
        <ele>828.5</ele>
        <time>2019-08-15T08:24:27Z</time>
      </trkpt>
      <trkpt lat="41.6856530" lon="-5.2114620">
        <ele>828.6</ele>
        <time>2019-08-15T08:24:28Z</time>
      </trkpt>
      <trkpt lat="41.6857000" lon="-5.2114830">
        <ele>828.8</ele>
        <time>2019-08-15T08:24:29Z</time>
      </trkpt>
      <trkpt lat="41.6857470" lon="-5.2115060">
        <ele>829.0</ele>
        <time>2019-08-15T08:24:30Z</time>
      </trkpt>
      <trkpt lat="41.6857950" lon="-5.2115290">
        <ele>829.2</ele>
        <time>2019-08-15T08:24:31Z</time>
      </trkpt>
      <trkpt lat="41.6858430" lon="-5.2115520">
        <ele>829.3</ele>
        <time>2019-08-15T08:24:32Z</time>
      </trkpt>
      <trkpt lat="41.6858920" lon="-5.2115770">
        <ele>829.5</ele>
        <time>2019-08-15T08:24:33Z</time>
      </trkpt>
      <trkpt lat="41.6859400" lon="-5.2116000">
        <ele>829.6</ele>
        <time>2019-08-15T08:24:34Z</time>
      </trkpt>
      <trkpt lat="41.6859900" lon="-5.2116230">
        <ele>829.7</ele>
        <time>2019-08-15T08:24:35Z</time>
      </trkpt>
      <trkpt lat="41.6860400" lon="-5.2116450">
        <ele>829.7</ele>
        <time>2019-08-15T08:24:36Z</time>
      </trkpt>
      <trkpt lat="41.6860900" lon="-5.2116680">
        <ele>829.7</ele>
        <time>2019-08-15T08:24:37Z</time>
      </trkpt>
      <trkpt lat="41.6861390" lon="-5.2116890">
        <ele>829.6</ele>
        <time>2019-08-15T08:24:38Z</time>
      </trkpt>
      <trkpt lat="41.6861870" lon="-5.2117110">
        <ele>829.6</ele>
        <time>2019-08-15T08:24:39Z</time>
      </trkpt>
      <trkpt lat="41.6862360" lon="-5.2117320">
        <ele>829.6</ele>
        <time>2019-08-15T08:24:40Z</time>
      </trkpt>
      <trkpt lat="41.6862870" lon="-5.2117550">
        <ele>829.5</ele>
        <time>2019-08-15T08:24:41Z</time>
      </trkpt>
      <trkpt lat="41.6863360" lon="-5.2117800">
        <ele>829.5</ele>
        <time>2019-08-15T08:24:42Z</time>
      </trkpt>
      <trkpt lat="41.6863850" lon="-5.2118080">
        <ele>829.4</ele>
        <time>2019-08-15T08:24:43Z</time>
      </trkpt>
      <trkpt lat="41.6864350" lon="-5.2118340">
        <ele>829.4</ele>
        <time>2019-08-15T08:24:44Z</time>
      </trkpt>
      <trkpt lat="41.6864840" lon="-5.2118600">
        <ele>829.3</ele>
        <time>2019-08-15T08:24:45Z</time>
      </trkpt>
      <trkpt lat="41.6865360" lon="-5.2118850">
        <ele>829.3</ele>
        <time>2019-08-15T08:24:46Z</time>
      </trkpt>
      <trkpt lat="41.6865880" lon="-5.2119080">
        <ele>829.2</ele>
        <time>2019-08-15T08:24:47Z</time>
      </trkpt>
      <trkpt lat="41.6866390" lon="-5.2119330">
        <ele>829.2</ele>
        <time>2019-08-15T08:24:48Z</time>
      </trkpt>
      <trkpt lat="41.6866900" lon="-5.2119600">
        <ele>829.1</ele>
        <time>2019-08-15T08:24:49Z</time>
      </trkpt>
      <trkpt lat="41.6867400" lon="-5.2119870">
        <ele>829.1</ele>
        <time>2019-08-15T08:24:50Z</time>
      </trkpt>
      <trkpt lat="41.6867910" lon="-5.2120130">
        <ele>829.1</ele>
        <time>2019-08-15T08:24:51Z</time>
      </trkpt>
      <trkpt lat="41.6868420" lon="-5.2120370">
        <ele>829.1</ele>
        <time>2019-08-15T08:24:52Z</time>
      </trkpt>
      <trkpt lat="41.6868930" lon="-5.2120630">
        <ele>829.0</ele>
        <time>2019-08-15T08:24:53Z</time>
      </trkpt>
      <trkpt lat="41.6869430" lon="-5.2120900">
        <ele>829.1</ele>
        <time>2019-08-15T08:24:54Z</time>
      </trkpt>
      <trkpt lat="41.6869940" lon="-5.2121160">
        <ele>829.1</ele>
        <time>2019-08-15T08:24:55Z</time>
      </trkpt>
      <trkpt lat="41.6870450" lon="-5.2121420">
        <ele>829.1</ele>
        <time>2019-08-15T08:24:56Z</time>
      </trkpt>
      <trkpt lat="41.6870970" lon="-5.2121690">
        <ele>829.1</ele>
        <time>2019-08-15T08:24:57Z</time>
      </trkpt>
      <trkpt lat="41.6871510" lon="-5.2121920">
        <ele>829.1</ele>
        <time>2019-08-15T08:24:58Z</time>
      </trkpt>
      <trkpt lat="41.6872040" lon="-5.2122130">
        <ele>829.2</ele>
        <time>2019-08-15T08:24:59Z</time>
      </trkpt>
      <trkpt lat="41.6872580" lon="-5.2122370">
        <ele>829.2</ele>
        <time>2019-08-15T08:25:00Z</time>
      </trkpt>
      <trkpt lat="41.6873110" lon="-5.2122650">
        <ele>829.2</ele>
        <time>2019-08-15T08:25:01Z</time>
      </trkpt>
      <trkpt lat="41.6873630" lon="-5.2122930">
        <ele>829.2</ele>
        <time>2019-08-15T08:25:02Z</time>
      </trkpt>
      <trkpt lat="41.6874150" lon="-5.2123170">
        <ele>829.2</ele>
        <time>2019-08-15T08:25:03Z</time>
      </trkpt>
      <trkpt lat="41.6874690" lon="-5.2123410">
        <ele>829.1</ele>
        <time>2019-08-15T08:25:04Z</time>
      </trkpt>
      <trkpt lat="41.6875210" lon="-5.2123680">
        <ele>829.1</ele>
        <time>2019-08-15T08:25:05Z</time>
      </trkpt>
      <trkpt lat="41.6875720" lon="-5.2123970">
        <ele>829.1</ele>
        <time>2019-08-15T08:25:06Z</time>
      </trkpt>
      <trkpt lat="41.6876220" lon="-5.2124240">
        <ele>829.0</ele>
        <time>2019-08-15T08:25:07Z</time>
      </trkpt>
      <trkpt lat="41.6876710" lon="-5.2124510">
        <ele>829.0</ele>
        <time>2019-08-15T08:25:08Z</time>
      </trkpt>
      <trkpt lat="41.6877220" lon="-5.2124770">
        <ele>829.0</ele>
        <time>2019-08-15T08:25:09Z</time>
      </trkpt>
      <trkpt lat="41.6877720" lon="-5.2125010">
        <ele>828.9</ele>
        <time>2019-08-15T08:25:10Z</time>
      </trkpt>
      <trkpt lat="41.6878220" lon="-5.2125250">
        <ele>828.9</ele>
        <time>2019-08-15T08:25:11Z</time>
      </trkpt>
      <trkpt lat="41.6878710" lon="-5.2125510">
        <ele>828.9</ele>
        <time>2019-08-15T08:25:12Z</time>
      </trkpt>
      <trkpt lat="41.6879200" lon="-5.2125770">
        <ele>828.9</ele>
        <time>2019-08-15T08:25:13Z</time>
      </trkpt>
      <trkpt lat="41.6879690" lon="-5.2126030">
        <ele>828.9</ele>
        <time>2019-08-15T08:25:14Z</time>
      </trkpt>
      <trkpt lat="41.6880190" lon="-5.2126280">
        <ele>828.9</ele>
        <time>2019-08-15T08:25:15Z</time>
      </trkpt>
      <trkpt lat="41.6880700" lon="-5.2126550">
        <ele>828.9</ele>
        <time>2019-08-15T08:25:16Z</time>
      </trkpt>
      <trkpt lat="41.6881210" lon="-5.2126830">
        <ele>829.0</ele>
        <time>2019-08-15T08:25:17Z</time>
      </trkpt>
      <trkpt lat="41.6881700" lon="-5.2127100">
        <ele>829.0</ele>
        <time>2019-08-15T08:25:18Z</time>
      </trkpt>
      <trkpt lat="41.6882210" lon="-5.2127370">
        <ele>829.0</ele>
        <time>2019-08-15T08:25:19Z</time>
      </trkpt>
      <trkpt lat="41.6882720" lon="-5.2127640">
        <ele>829.0</ele>
        <time>2019-08-15T08:25:20Z</time>
      </trkpt>
      <trkpt lat="41.6883220" lon="-5.2127930">
        <ele>829.0</ele>
        <time>2019-08-15T08:25:21Z</time>
      </trkpt>
      <trkpt lat="41.6883720" lon="-5.2128220">
        <ele>829.0</ele>
        <time>2019-08-15T08:25:22Z</time>
      </trkpt>
      <trkpt lat="41.6884230" lon="-5.2128520">
        <ele>829.0</ele>
        <time>2019-08-15T08:25:23Z</time>
      </trkpt>
      <trkpt lat="41.6884730" lon="-5.2128800">
        <ele>829.0</ele>
        <time>2019-08-15T08:25:24Z</time>
      </trkpt>
      <trkpt lat="41.6885230" lon="-5.2129090">
        <ele>829.0</ele>
        <time>2019-08-15T08:25:25Z</time>
      </trkpt>
      <trkpt lat="41.6885740" lon="-5.2129390">
        <ele>829.0</ele>
        <time>2019-08-15T08:25:26Z</time>
      </trkpt>
      <trkpt lat="41.6886260" lon="-5.2129690">
        <ele>828.9</ele>
        <time>2019-08-15T08:25:27Z</time>
      </trkpt>
      <trkpt lat="41.6886780" lon="-5.2129990">
        <ele>828.9</ele>
        <time>2019-08-15T08:25:28Z</time>
      </trkpt>
      <trkpt lat="41.6887300" lon="-5.2130310">
        <ele>828.8</ele>
        <time>2019-08-15T08:25:29Z</time>
      </trkpt>
      <trkpt lat="41.6887790" lon="-5.2130650">
        <ele>828.8</ele>
        <time>2019-08-15T08:25:30Z</time>
      </trkpt>
      <trkpt lat="41.6888280" lon="-5.2131000">
        <ele>828.8</ele>
        <time>2019-08-15T08:25:31Z</time>
      </trkpt>
      <trkpt lat="41.6888790" lon="-5.2131350">
        <ele>828.8</ele>
        <time>2019-08-15T08:25:32Z</time>
      </trkpt>
      <trkpt lat="41.6889300" lon="-5.2131710">
        <ele>828.8</ele>
        <time>2019-08-15T08:25:33Z</time>
      </trkpt>
      <trkpt lat="41.6889800" lon="-5.2132070">
        <ele>828.8</ele>
        <time>2019-08-15T08:25:34Z</time>
      </trkpt>
      <trkpt lat="41.6890300" lon="-5.2132430">
        <ele>828.8</ele>
        <time>2019-08-15T08:25:35Z</time>
      </trkpt>
      <trkpt lat="41.6890800" lon="-5.2132800">
        <ele>828.8</ele>
        <time>2019-08-15T08:25:36Z</time>
      </trkpt>
      <trkpt lat="41.6891300" lon="-5.2133180">
        <ele>828.8</ele>
        <time>2019-08-15T08:25:37Z</time>
      </trkpt>
      <trkpt lat="41.6891790" lon="-5.2133560">
        <ele>828.8</ele>
        <time>2019-08-15T08:25:38Z</time>
      </trkpt>
      <trkpt lat="41.6892280" lon="-5.2133930">
        <ele>828.9</ele>
        <time>2019-08-15T08:25:39Z</time>
      </trkpt>
      <trkpt lat="41.6892760" lon="-5.2134310">
        <ele>828.9</ele>
        <time>2019-08-15T08:25:40Z</time>
      </trkpt>
      <trkpt lat="41.6893260" lon="-5.2134700">
        <ele>829.0</ele>
        <time>2019-08-15T08:25:41Z</time>
      </trkpt>
      <trkpt lat="41.6893770" lon="-5.2135080">
        <ele>829.0</ele>
        <time>2019-08-15T08:25:42Z</time>
      </trkpt>
      <trkpt lat="41.6894270" lon="-5.2135470">
        <ele>829.1</ele>
        <time>2019-08-15T08:25:43Z</time>
      </trkpt>
      <trkpt lat="41.6894770" lon="-5.2135860">
        <ele>829.2</ele>
        <time>2019-08-15T08:25:44Z</time>
      </trkpt>
      <trkpt lat="41.6895280" lon="-5.2136250">
        <ele>829.2</ele>
        <time>2019-08-15T08:25:45Z</time>
      </trkpt>
      <trkpt lat="41.6895780" lon="-5.2136640">
        <ele>829.3</ele>
        <time>2019-08-15T08:25:46Z</time>
      </trkpt>
      <trkpt lat="41.6896290" lon="-5.2137030">
        <ele>829.3</ele>
        <time>2019-08-15T08:25:47Z</time>
      </trkpt>
      <trkpt lat="41.6896800" lon="-5.2137430">
        <ele>829.4</ele>
        <time>2019-08-15T08:25:48Z</time>
      </trkpt>
      <trkpt lat="41.6897320" lon="-5.2137830">
        <ele>829.4</ele>
        <time>2019-08-15T08:25:49Z</time>
      </trkpt>
      <trkpt lat="41.6897840" lon="-5.2138260">
        <ele>829.5</ele>
        <time>2019-08-15T08:25:50Z</time>
      </trkpt>
      <trkpt lat="41.6898380" lon="-5.2138690">
        <ele>829.5</ele>
        <time>2019-08-15T08:25:51Z</time>
      </trkpt>
      <trkpt lat="41.6898930" lon="-5.2139130">
        <ele>829.5</ele>
        <time>2019-08-15T08:25:52Z</time>
      </trkpt>
      <trkpt lat="41.6899470" lon="-5.2139560">
        <ele>829.5</ele>
        <time>2019-08-15T08:25:53Z</time>
      </trkpt>
      <trkpt lat="41.6900000" lon="-5.2139990">
        <ele>829.6</ele>
        <time>2019-08-15T08:25:54Z</time>
      </trkpt>
      <trkpt lat="41.6900530" lon="-5.2140420">
        <ele>829.6</ele>
        <time>2019-08-15T08:25:55Z</time>
      </trkpt>
      <trkpt lat="41.6901060" lon="-5.2140850">
        <ele>829.6</ele>
        <time>2019-08-15T08:25:56Z</time>
      </trkpt>
      <trkpt lat="41.6901600" lon="-5.2141270">
        <ele>829.6</ele>
        <time>2019-08-15T08:25:57Z</time>
      </trkpt>
      <trkpt lat="41.6902130" lon="-5.2141700">
        <ele>829.6</ele>
        <time>2019-08-15T08:25:58Z</time>
      </trkpt>
      <trkpt lat="41.6902650" lon="-5.2142130">
        <ele>829.6</ele>
        <time>2019-08-15T08:25:59Z</time>
      </trkpt>
      <trkpt lat="41.6903180" lon="-5.2142550">
        <ele>829.6</ele>
        <time>2019-08-15T08:26:00Z</time>
      </trkpt>
      <trkpt lat="41.6903720" lon="-5.2142980">
        <ele>829.6</ele>
        <time>2019-08-15T08:26:01Z</time>
      </trkpt>
      <trkpt lat="41.6904270" lon="-5.2143420">
        <ele>829.6</ele>
        <time>2019-08-15T08:26:02Z</time>
      </trkpt>
      <trkpt lat="41.6904800" lon="-5.2143870">
        <ele>829.6</ele>
        <time>2019-08-15T08:26:03Z</time>
      </trkpt>
      <trkpt lat="41.6905340" lon="-5.2144320">
        <ele>829.6</ele>
        <time>2019-08-15T08:26:04Z</time>
      </trkpt>
      <trkpt lat="41.6905870" lon="-5.2144790">
        <ele>829.6</ele>
        <time>2019-08-15T08:26:05Z</time>
      </trkpt>
      <trkpt lat="41.6906390" lon="-5.2145260">
        <ele>829.5</ele>
        <time>2019-08-15T08:26:06Z</time>
      </trkpt>
      <trkpt lat="41.6906910" lon="-5.2145700">
        <ele>829.5</ele>
        <time>2019-08-15T08:26:07Z</time>
      </trkpt>
      <trkpt lat="41.6907420" lon="-5.2146130">
        <ele>829.5</ele>
        <time>2019-08-15T08:26:08Z</time>
      </trkpt>
      <trkpt lat="41.6907910" lon="-5.2146540">
        <ele>829.5</ele>
        <time>2019-08-15T08:26:09Z</time>
      </trkpt>
      <trkpt lat="41.6908390" lon="-5.2146950">
        <ele>829.5</ele>
        <time>2019-08-15T08:26:10Z</time>
      </trkpt>
      <trkpt lat="41.6908860" lon="-5.2147340">
        <ele>829.5</ele>
        <time>2019-08-15T08:26:11Z</time>
      </trkpt>
      <trkpt lat="41.6909310" lon="-5.2147730">
        <ele>829.5</ele>
        <time>2019-08-15T08:26:12Z</time>
      </trkpt>
      <trkpt lat="41.6909740" lon="-5.2148120">
        <ele>829.5</ele>
        <time>2019-08-15T08:26:13Z</time>
      </trkpt>
      <trkpt lat="41.6910170" lon="-5.2148480">
        <ele>829.5</ele>
        <time>2019-08-15T08:26:14Z</time>
      </trkpt>
      <trkpt lat="41.6910580" lon="-5.2148830">
        <ele>829.5</ele>
        <time>2019-08-15T08:26:15Z</time>
      </trkpt>
      <trkpt lat="41.6910960" lon="-5.2149170">
        <ele>829.5</ele>
        <time>2019-08-15T08:26:16Z</time>
      </trkpt>
      <trkpt lat="41.6911310" lon="-5.2149510">
        <ele>829.5</ele>
        <time>2019-08-15T08:26:17Z</time>
      </trkpt>
      <trkpt lat="41.6911660" lon="-5.2149860">
        <ele>829.5</ele>
        <time>2019-08-15T08:26:18Z</time>
      </trkpt>
      <trkpt lat="41.6912010" lon="-5.2150250">
        <ele>829.5</ele>
        <time>2019-08-15T08:26:19Z</time>
      </trkpt>
      <trkpt lat="41.6912340" lon="-5.2150710">
        <ele>829.6</ele>
        <time>2019-08-15T08:26:20Z</time>
      </trkpt>
      <trkpt lat="41.6912630" lon="-5.2151230">
        <ele>829.6</ele>
        <time>2019-08-15T08:26:21Z</time>
      </trkpt>
      <trkpt lat="41.6912900" lon="-5.2151800">
        <ele>829.6</ele>
        <time>2019-08-15T08:26:22Z</time>
      </trkpt>
      <trkpt lat="41.6913160" lon="-5.2152320">
        <ele>829.6</ele>
        <time>2019-08-15T08:26:23Z</time>
      </trkpt>
      <trkpt lat="41.6913450" lon="-5.2152770">
        <ele>829.5</ele>
        <time>2019-08-15T08:26:24Z</time>
      </trkpt>
      <trkpt lat="41.6913760" lon="-5.2153120">
        <ele>829.5</ele>
        <time>2019-08-15T08:26:25Z</time>
      </trkpt>
      <trkpt lat="41.6914080" lon="-5.2153400">
        <ele>829.6</ele>
        <time>2019-08-15T08:26:26Z</time>
      </trkpt>
      <trkpt lat="41.6914360" lon="-5.2153680">
        <ele>829.6</ele>
        <time>2019-08-15T08:26:27Z</time>
      </trkpt>
      <trkpt lat="41.6914570" lon="-5.2153990">
        <ele>829.6</ele>
        <time>2019-08-15T08:26:28Z</time>
      </trkpt>
      <trkpt lat="41.6914760" lon="-5.2154310">
        <ele>829.6</ele>
        <time>2019-08-15T08:26:29Z</time>
      </trkpt>
      <trkpt lat="41.6914930" lon="-5.2154630">
        <ele>829.6</ele>
        <time>2019-08-15T08:26:30Z</time>
      </trkpt>
      <trkpt lat="41.6915110" lon="-5.2154940">
        <ele>829.6</ele>
        <time>2019-08-15T08:26:31Z</time>
      </trkpt>
      <trkpt lat="41.6915330" lon="-5.2155240">
        <ele>829.6</ele>
        <time>2019-08-15T08:26:32Z</time>
      </trkpt>
      <trkpt lat="41.6915520" lon="-5.2155450">
        <ele>829.6</ele>
        <time>2019-08-15T08:26:33Z</time>
      </trkpt>
      <trkpt lat="41.6915650" lon="-5.2155580">
        <ele>829.6</ele>
        <time>2019-08-15T08:26:35Z</time>
      </trkpt>
      <trkpt lat="41.6916360" lon="-5.2157040">
        <ele>829.8</ele>
        <time>2019-08-15T08:30:59Z</time>
      </trkpt>
      <trkpt lat="41.6916560" lon="-5.2157360">
        <ele>829.8</ele>
        <time>2019-08-15T08:31:00Z</time>
      </trkpt>
      <trkpt lat="41.6916740" lon="-5.2157720">
        <ele>829.8</ele>
        <time>2019-08-15T08:31:01Z</time>
      </trkpt>
      <trkpt lat="41.6916910" lon="-5.2158090">
        <ele>829.9</ele>
        <time>2019-08-15T08:31:02Z</time>
      </trkpt>
      <trkpt lat="41.6917090" lon="-5.2158470">
        <ele>829.9</ele>
        <time>2019-08-15T08:31:03Z</time>
      </trkpt>
      <trkpt lat="41.6917280" lon="-5.2158850">
        <ele>830.0</ele>
        <time>2019-08-15T08:31:04Z</time>
      </trkpt>
      <trkpt lat="41.6917490" lon="-5.2159230">
        <ele>830.0</ele>
        <time>2019-08-15T08:31:05Z</time>
      </trkpt>
      <trkpt lat="41.6917700" lon="-5.2159620">
        <ele>830.1</ele>
        <time>2019-08-15T08:31:06Z</time>
      </trkpt>
      <trkpt lat="41.6917930" lon="-5.2160030">
        <ele>830.2</ele>
        <time>2019-08-15T08:31:07Z</time>
      </trkpt>
      <trkpt lat="41.6918150" lon="-5.2160450">
        <ele>830.3</ele>
        <time>2019-08-15T08:31:08Z</time>
      </trkpt>
      <trkpt lat="41.6918360" lon="-5.2160880">
        <ele>830.4</ele>
        <time>2019-08-15T08:31:09Z</time>
      </trkpt>
      <trkpt lat="41.6918600" lon="-5.2161320">
        <ele>830.4</ele>
        <time>2019-08-15T08:31:10Z</time>
      </trkpt>
      <trkpt lat="41.6918830" lon="-5.2161780">
        <ele>830.5</ele>
        <time>2019-08-15T08:31:11Z</time>
      </trkpt>
      <trkpt lat="41.6919080" lon="-5.2162240">
        <ele>830.6</ele>
        <time>2019-08-15T08:31:12Z</time>
      </trkpt>
      <trkpt lat="41.6919350" lon="-5.2162710">
        <ele>830.7</ele>
        <time>2019-08-15T08:31:13Z</time>
      </trkpt>
      <trkpt lat="41.6919620" lon="-5.2163210">
        <ele>830.7</ele>
        <time>2019-08-15T08:31:14Z</time>
      </trkpt>
      <trkpt lat="41.6919890" lon="-5.2163700">
        <ele>830.8</ele>
        <time>2019-08-15T08:31:15Z</time>
      </trkpt>
      <trkpt lat="41.6920170" lon="-5.2164180">
        <ele>830.8</ele>
        <time>2019-08-15T08:31:16Z</time>
      </trkpt>
      <trkpt lat="41.6920460" lon="-5.2164650">
        <ele>830.8</ele>
        <time>2019-08-15T08:31:17Z</time>
      </trkpt>
      <trkpt lat="41.6920750" lon="-5.2165120">
        <ele>830.8</ele>
        <time>2019-08-15T08:31:18Z</time>
      </trkpt>
      <trkpt lat="41.6921030" lon="-5.2165570">
        <ele>830.8</ele>
        <time>2019-08-15T08:31:19Z</time>
      </trkpt>
      <trkpt lat="41.6921300" lon="-5.2166020">
        <ele>830.8</ele>
        <time>2019-08-15T08:31:20Z</time>
      </trkpt>
      <trkpt lat="41.6921530" lon="-5.2166500">
        <ele>830.8</ele>
        <time>2019-08-15T08:31:21Z</time>
      </trkpt>
      <trkpt lat="41.6921720" lon="-5.2167070">
        <ele>830.8</ele>
        <time>2019-08-15T08:31:22Z</time>
      </trkpt>
      <trkpt lat="41.6921830" lon="-5.2167670">
        <ele>830.7</ele>
        <time>2019-08-15T08:31:23Z</time>
      </trkpt>
      <trkpt lat="41.6921880" lon="-5.2168280">
        <ele>830.6</ele>
        <time>2019-08-15T08:31:24Z</time>
      </trkpt>
      <trkpt lat="41.6921890" lon="-5.2168880">
        <ele>830.5</ele>
        <time>2019-08-15T08:31:25Z</time>
      </trkpt>
      <trkpt lat="41.6921860" lon="-5.2169460">
        <ele>830.3</ele>
        <time>2019-08-15T08:31:26Z</time>
      </trkpt>
      <trkpt lat="41.6921820" lon="-5.2170050">
        <ele>830.1</ele>
        <time>2019-08-15T08:31:27Z</time>
      </trkpt>
      <trkpt lat="41.6921790" lon="-5.2170670">
        <ele>829.9</ele>
        <time>2019-08-15T08:31:28Z</time>
      </trkpt>
      <trkpt lat="41.6921750" lon="-5.2171300">
        <ele>829.7</ele>
        <time>2019-08-15T08:31:29Z</time>
      </trkpt>
      <trkpt lat="41.6921700" lon="-5.2171970">
        <ele>829.5</ele>
        <time>2019-08-15T08:31:30Z</time>
      </trkpt>
      <trkpt lat="41.6921670" lon="-5.2172630">
        <ele>829.2</ele>
        <time>2019-08-15T08:31:31Z</time>
      </trkpt>
      <trkpt lat="41.6921660" lon="-5.2173290">
        <ele>828.9</ele>
        <time>2019-08-15T08:31:32Z</time>
      </trkpt>
      <trkpt lat="41.6921690" lon="-5.2173960">
        <ele>828.6</ele>
        <time>2019-08-15T08:31:33Z</time>
      </trkpt>
      <trkpt lat="41.6921770" lon="-5.2174660">
        <ele>828.5</ele>
        <time>2019-08-15T08:31:34Z</time>
      </trkpt>
      <trkpt lat="41.6921890" lon="-5.2175360">
        <ele>828.4</ele>
        <time>2019-08-15T08:31:35Z</time>
      </trkpt>
      <trkpt lat="41.6922070" lon="-5.2176030">
        <ele>828.3</ele>
        <time>2019-08-15T08:31:36Z</time>
      </trkpt>
      <trkpt lat="41.6922290" lon="-5.2176670">
        <ele>828.2</ele>
        <time>2019-08-15T08:31:37Z</time>
      </trkpt>
      <trkpt lat="41.6922520" lon="-5.2177260">
        <ele>828.1</ele>
        <time>2019-08-15T08:31:38Z</time>
      </trkpt>
      <trkpt lat="41.6922810" lon="-5.2177770">
        <ele>828.1</ele>
        <time>2019-08-15T08:31:39Z</time>
      </trkpt>
      <trkpt lat="41.6923170" lon="-5.2178190">
        <ele>828.0</ele>
        <time>2019-08-15T08:31:40Z</time>
      </trkpt>
      <trkpt lat="41.6923540" lon="-5.2178610">
        <ele>828.0</ele>
        <time>2019-08-15T08:31:41Z</time>
      </trkpt>
      <trkpt lat="41.6923900" lon="-5.2179070">
        <ele>827.9</ele>
        <time>2019-08-15T08:31:42Z</time>
      </trkpt>
      <trkpt lat="41.6924250" lon="-5.2179550">
        <ele>827.8</ele>
        <time>2019-08-15T08:31:43Z</time>
      </trkpt>
      <trkpt lat="41.6924640" lon="-5.2180010">
        <ele>827.8</ele>
        <time>2019-08-15T08:31:44Z</time>
      </trkpt>
      <trkpt lat="41.6925040" lon="-5.2180440">
        <ele>827.7</ele>
        <time>2019-08-15T08:31:45Z</time>
      </trkpt>
      <trkpt lat="41.6925460" lon="-5.2180860">
        <ele>827.5</ele>
        <time>2019-08-15T08:31:46Z</time>
      </trkpt>
      <trkpt lat="41.6925890" lon="-5.2181220">
        <ele>827.4</ele>
        <time>2019-08-15T08:31:47Z</time>
      </trkpt>
      <trkpt lat="41.6926360" lon="-5.2181520">
        <ele>827.3</ele>
        <time>2019-08-15T08:31:48Z</time>
      </trkpt>
      <trkpt lat="41.6926850" lon="-5.2181720">
        <ele>827.1</ele>
        <time>2019-08-15T08:31:49Z</time>
      </trkpt>
      <trkpt lat="41.6927330" lon="-5.2181800">
        <ele>827.0</ele>
        <time>2019-08-15T08:31:50Z</time>
      </trkpt>
      <trkpt lat="41.6927770" lon="-5.2181780">
        <ele>827.0</ele>
        <time>2019-08-15T08:31:51Z</time>
      </trkpt>
      <trkpt lat="41.6928190" lon="-5.2181700">
        <ele>826.9</ele>
        <time>2019-08-15T08:31:52Z</time>
      </trkpt>
      <trkpt lat="41.6928570" lon="-5.2181590">
        <ele>826.9</ele>
        <time>2019-08-15T08:31:53Z</time>
      </trkpt>
      <trkpt lat="41.6928910" lon="-5.2181480">
        <ele>826.9</ele>
        <time>2019-08-15T08:31:54Z</time>
      </trkpt>
      <trkpt lat="41.6929210" lon="-5.2181380">
        <ele>826.8</ele>
        <time>2019-08-15T08:31:55Z</time>
      </trkpt>
      <trkpt lat="41.6929540" lon="-5.2181270">
        <ele>826.8</ele>
        <time>2019-08-15T08:31:56Z</time>
      </trkpt>
      <trkpt lat="41.6929900" lon="-5.2181150">
        <ele>826.7</ele>
        <time>2019-08-15T08:31:57Z</time>
      </trkpt>
      <trkpt lat="41.6930300" lon="-5.2181100">
        <ele>826.6</ele>
        <time>2019-08-15T08:31:58Z</time>
      </trkpt>
      <trkpt lat="41.6930740" lon="-5.2181080">
        <ele>826.6</ele>
        <time>2019-08-15T08:31:59Z</time>
      </trkpt>
      <trkpt lat="41.6931180" lon="-5.2181040">
        <ele>826.6</ele>
        <time>2019-08-15T08:32:00Z</time>
      </trkpt>
      <trkpt lat="41.6931640" lon="-5.2180980">
        <ele>826.6</ele>
        <time>2019-08-15T08:32:01Z</time>
      </trkpt>
      <trkpt lat="41.6932100" lon="-5.2180890">
        <ele>826.6</ele>
        <time>2019-08-15T08:32:02Z</time>
      </trkpt>
      <trkpt lat="41.6932560" lon="-5.2180810">
        <ele>826.6</ele>
        <time>2019-08-15T08:32:03Z</time>
      </trkpt>
      <trkpt lat="41.6933030" lon="-5.2180740">
        <ele>826.6</ele>
        <time>2019-08-15T08:32:04Z</time>
      </trkpt>
      <trkpt lat="41.6933480" lon="-5.2180690">
        <ele>826.7</ele>
        <time>2019-08-15T08:32:05Z</time>
      </trkpt>
      <trkpt lat="41.6933910" lon="-5.2180630">
        <ele>826.7</ele>
        <time>2019-08-15T08:32:06Z</time>
      </trkpt>
      <trkpt lat="41.6934330" lon="-5.2180590">
        <ele>826.8</ele>
        <time>2019-08-15T08:32:07Z</time>
      </trkpt>
      <trkpt lat="41.6934790" lon="-5.2180550">
        <ele>826.8</ele>
        <time>2019-08-15T08:32:08Z</time>
      </trkpt>
      <trkpt lat="41.6935250" lon="-5.2180520">
        <ele>826.9</ele>
        <time>2019-08-15T08:32:09Z</time>
      </trkpt>
      <trkpt lat="41.6935690" lon="-5.2180490">
        <ele>827.0</ele>
        <time>2019-08-15T08:32:10Z</time>
      </trkpt>
      <trkpt lat="41.6936130" lon="-5.2180470">
        <ele>827.1</ele>
        <time>2019-08-15T08:32:11Z</time>
      </trkpt>
      <trkpt lat="41.6936570" lon="-5.2180450">
        <ele>827.2</ele>
        <time>2019-08-15T08:32:12Z</time>
      </trkpt>
      <trkpt lat="41.6937000" lon="-5.2180440">
        <ele>827.3</ele>
        <time>2019-08-15T08:32:13Z</time>
      </trkpt>
      <trkpt lat="41.6937420" lon="-5.2180420">
        <ele>827.4</ele>
        <time>2019-08-15T08:32:14Z</time>
      </trkpt>
      <trkpt lat="41.6937830" lon="-5.2180400">
        <ele>827.5</ele>
        <time>2019-08-15T08:32:15Z</time>
      </trkpt>
      <trkpt lat="41.6938260" lon="-5.2180380">
        <ele>827.5</ele>
        <time>2019-08-15T08:32:16Z</time>
      </trkpt>
      <trkpt lat="41.6938690" lon="-5.2180370">
        <ele>827.6</ele>
        <time>2019-08-15T08:32:17Z</time>
      </trkpt>
      <trkpt lat="41.6939130" lon="-5.2180360">
        <ele>827.6</ele>
        <time>2019-08-15T08:32:18Z</time>
      </trkpt>
      <trkpt lat="41.6939560" lon="-5.2180350">
        <ele>827.7</ele>
        <time>2019-08-15T08:32:19Z</time>
      </trkpt>
      <trkpt lat="41.6940000" lon="-5.2180340">
        <ele>827.7</ele>
        <time>2019-08-15T08:32:20Z</time>
      </trkpt>
      <trkpt lat="41.6940450" lon="-5.2180320">
        <ele>827.7</ele>
        <time>2019-08-15T08:32:21Z</time>
      </trkpt>
      <trkpt lat="41.6940900" lon="-5.2180310">
        <ele>827.7</ele>
        <time>2019-08-15T08:32:22Z</time>
      </trkpt>
      <trkpt lat="41.6941360" lon="-5.2180290">
        <ele>827.7</ele>
        <time>2019-08-15T08:32:23Z</time>
      </trkpt>
      <trkpt lat="41.6941820" lon="-5.2180280">
        <ele>827.7</ele>
        <time>2019-08-15T08:32:24Z</time>
      </trkpt>
      <trkpt lat="41.6942280" lon="-5.2180270">
        <ele>827.7</ele>
        <time>2019-08-15T08:32:25Z</time>
      </trkpt>
      <trkpt lat="41.6942750" lon="-5.2180250">
        <ele>827.7</ele>
        <time>2019-08-15T08:32:26Z</time>
      </trkpt>
      <trkpt lat="41.6943230" lon="-5.2180260">
        <ele>827.7</ele>
        <time>2019-08-15T08:32:27Z</time>
      </trkpt>
      <trkpt lat="41.6943700" lon="-5.2180270">
        <ele>827.7</ele>
        <time>2019-08-15T08:32:28Z</time>
      </trkpt>
      <trkpt lat="41.6944170" lon="-5.2180230">
        <ele>827.7</ele>
        <time>2019-08-15T08:32:29Z</time>
      </trkpt>
      <trkpt lat="41.6944660" lon="-5.2180170">
        <ele>827.7</ele>
        <time>2019-08-15T08:32:30Z</time>
      </trkpt>
      <trkpt lat="41.6945150" lon="-5.2180130">
        <ele>827.7</ele>
        <time>2019-08-15T08:32:31Z</time>
      </trkpt>
      <trkpt lat="41.6945650" lon="-5.2180100">
        <ele>827.7</ele>
        <time>2019-08-15T08:32:32Z</time>
      </trkpt>
      <trkpt lat="41.6946150" lon="-5.2180070">
        <ele>827.7</ele>
        <time>2019-08-15T08:32:33Z</time>
      </trkpt>
      <trkpt lat="41.6946660" lon="-5.2180100">
        <ele>827.7</ele>
        <time>2019-08-15T08:32:34Z</time>
      </trkpt>
      <trkpt lat="41.6947160" lon="-5.2180140">
        <ele>827.7</ele>
        <time>2019-08-15T08:32:35Z</time>
      </trkpt>
      <trkpt lat="41.6947650" lon="-5.2180230">
        <ele>827.7</ele>
        <time>2019-08-15T08:32:36Z</time>
      </trkpt>
      <trkpt lat="41.6948130" lon="-5.2180390">
        <ele>827.7</ele>
        <time>2019-08-15T08:32:37Z</time>
      </trkpt>
      <trkpt lat="41.6948600" lon="-5.2180640">
        <ele>827.8</ele>
        <time>2019-08-15T08:32:38Z</time>
      </trkpt>
      <trkpt lat="41.6949040" lon="-5.2180920">
        <ele>827.8</ele>
        <time>2019-08-15T08:32:39Z</time>
      </trkpt>
      <trkpt lat="41.6949470" lon="-5.2181230">
        <ele>827.9</ele>
        <time>2019-08-15T08:32:40Z</time>
      </trkpt>
      <trkpt lat="41.6949870" lon="-5.2181580">
        <ele>827.9</ele>
        <time>2019-08-15T08:32:41Z</time>
      </trkpt>
      <trkpt lat="41.6950270" lon="-5.2181920">
        <ele>828.0</ele>
        <time>2019-08-15T08:32:42Z</time>
      </trkpt>
      <trkpt lat="41.6950680" lon="-5.2182240">
        <ele>828.0</ele>
        <time>2019-08-15T08:32:43Z</time>
      </trkpt>
      <trkpt lat="41.6951100" lon="-5.2182560">
        <ele>828.1</ele>
        <time>2019-08-15T08:32:44Z</time>
      </trkpt>
      <trkpt lat="41.6951530" lon="-5.2182890">
        <ele>828.1</ele>
        <time>2019-08-15T08:32:45Z</time>
      </trkpt>
      <trkpt lat="41.6951960" lon="-5.2183230">
        <ele>828.2</ele>
        <time>2019-08-15T08:32:46Z</time>
      </trkpt>
      <trkpt lat="41.6952380" lon="-5.2183560">
        <ele>828.2</ele>
        <time>2019-08-15T08:32:47Z</time>
      </trkpt>
      <trkpt lat="41.6952810" lon="-5.2183910">
        <ele>828.2</ele>
        <time>2019-08-15T08:32:48Z</time>
      </trkpt>
      <trkpt lat="41.6953240" lon="-5.2184260">
        <ele>828.2</ele>
        <time>2019-08-15T08:32:49Z</time>
      </trkpt>
      <trkpt lat="41.6953680" lon="-5.2184600">
        <ele>828.1</ele>
        <time>2019-08-15T08:32:50Z</time>
      </trkpt>
      <trkpt lat="41.6954120" lon="-5.2184940">
        <ele>828.1</ele>
        <time>2019-08-15T08:32:51Z</time>
      </trkpt>
      <trkpt lat="41.6954560" lon="-5.2185280">
        <ele>828.0</ele>
        <time>2019-08-15T08:32:52Z</time>
      </trkpt>
      <trkpt lat="41.6954990" lon="-5.2185610">
        <ele>827.9</ele>
        <time>2019-08-15T08:32:53Z</time>
      </trkpt>
      <trkpt lat="41.6955420" lon="-5.2185930">
        <ele>827.9</ele>
        <time>2019-08-15T08:32:54Z</time>
      </trkpt>
      <trkpt lat="41.6955850" lon="-5.2186250">
        <ele>827.7</ele>
        <time>2019-08-15T08:32:55Z</time>
      </trkpt>
      <trkpt lat="41.6956270" lon="-5.2186590">
        <ele>827.6</ele>
        <time>2019-08-15T08:32:56Z</time>
      </trkpt>
      <trkpt lat="41.6956680" lon="-5.2186930">
        <ele>827.6</ele>
        <time>2019-08-15T08:32:57Z</time>
      </trkpt>
      <trkpt lat="41.6957080" lon="-5.2187290">
        <ele>827.6</ele>
        <time>2019-08-15T08:32:58Z</time>
      </trkpt>
      <trkpt lat="41.6957490" lon="-5.2187640">
        <ele>827.5</ele>
        <time>2019-08-15T08:32:59Z</time>
      </trkpt>
      <trkpt lat="41.6957890" lon="-5.2187990">
        <ele>827.4</ele>
        <time>2019-08-15T08:33:00Z</time>
      </trkpt>
      <trkpt lat="41.6958310" lon="-5.2188330">
        <ele>827.3</ele>
        <time>2019-08-15T08:33:01Z</time>
      </trkpt>
      <trkpt lat="41.6958730" lon="-5.2188680">
        <ele>827.3</ele>
        <time>2019-08-15T08:33:02Z</time>
      </trkpt>
      <trkpt lat="41.6959160" lon="-5.2189020">
        <ele>827.3</ele>
        <time>2019-08-15T08:33:03Z</time>
      </trkpt>
      <trkpt lat="41.6959580" lon="-5.2189370">
        <ele>827.2</ele>
        <time>2019-08-15T08:33:04Z</time>
      </trkpt>
      <trkpt lat="41.6960010" lon="-5.2189720">
        <ele>827.2</ele>
        <time>2019-08-15T08:33:05Z</time>
      </trkpt>
      <trkpt lat="41.6960430" lon="-5.2190080">
        <ele>827.2</ele>
        <time>2019-08-15T08:33:06Z</time>
      </trkpt>
      <trkpt lat="41.6960820" lon="-5.2190460">
        <ele>827.2</ele>
        <time>2019-08-15T08:33:07Z</time>
      </trkpt>
      <trkpt lat="41.6961220" lon="-5.2190850">
        <ele>827.3</ele>
        <time>2019-08-15T08:33:08Z</time>
      </trkpt>
      <trkpt lat="41.6961630" lon="-5.2191220">
        <ele>827.3</ele>
        <time>2019-08-15T08:33:09Z</time>
      </trkpt>
      <trkpt lat="41.6962030" lon="-5.2191590">
        <ele>827.3</ele>
        <time>2019-08-15T08:33:10Z</time>
      </trkpt>
      <trkpt lat="41.6962440" lon="-5.2191950">
        <ele>827.4</ele>
        <time>2019-08-15T08:33:11Z</time>
      </trkpt>
      <trkpt lat="41.6962850" lon="-5.2192290">
        <ele>827.5</ele>
        <time>2019-08-15T08:33:12Z</time>
      </trkpt>
      <trkpt lat="41.6963270" lon="-5.2192650">
        <ele>827.5</ele>
        <time>2019-08-15T08:33:13Z</time>
      </trkpt>
      <trkpt lat="41.6963690" lon="-5.2193030">
        <ele>827.6</ele>
        <time>2019-08-15T08:33:14Z</time>
      </trkpt>
      <trkpt lat="41.6964110" lon="-5.2193420">
        <ele>827.6</ele>
        <time>2019-08-15T08:33:15Z</time>
      </trkpt>
      <trkpt lat="41.6964520" lon="-5.2193830">
        <ele>827.7</ele>
        <time>2019-08-15T08:33:16Z</time>
      </trkpt>
      <trkpt lat="41.6964930" lon="-5.2194230">
        <ele>827.7</ele>
        <time>2019-08-15T08:33:17Z</time>
      </trkpt>
      <trkpt lat="41.6965320" lon="-5.2194650">
        <ele>827.8</ele>
        <time>2019-08-15T08:33:18Z</time>
      </trkpt>
      <trkpt lat="41.6965730" lon="-5.2195070">
        <ele>827.9</ele>
        <time>2019-08-15T08:33:19Z</time>
      </trkpt>
      <trkpt lat="41.6966140" lon="-5.2195460">
        <ele>827.9</ele>
        <time>2019-08-15T08:33:20Z</time>
      </trkpt>
      <trkpt lat="41.6966550" lon="-5.2195870">
        <ele>827.9</ele>
        <time>2019-08-15T08:33:21Z</time>
      </trkpt>
      <trkpt lat="41.6966970" lon="-5.2196290">
        <ele>828.0</ele>
        <time>2019-08-15T08:33:22Z</time>
      </trkpt>
      <trkpt lat="41.6967380" lon="-5.2196700">
        <ele>828.0</ele>
        <time>2019-08-15T08:33:23Z</time>
      </trkpt>
      <trkpt lat="41.6967790" lon="-5.2197150">
        <ele>828.0</ele>
        <time>2019-08-15T08:33:24Z</time>
      </trkpt>
      <trkpt lat="41.6968200" lon="-5.2197600">
        <ele>828.1</ele>
        <time>2019-08-15T08:33:25Z</time>
      </trkpt>
      <trkpt lat="41.6968620" lon="-5.2198040">
        <ele>828.2</ele>
        <time>2019-08-15T08:33:26Z</time>
      </trkpt>
      <trkpt lat="41.6969040" lon="-5.2198460">
        <ele>828.3</ele>
        <time>2019-08-15T08:33:27Z</time>
      </trkpt>
      <trkpt lat="41.6969440" lon="-5.2198890">
        <ele>828.4</ele>
        <time>2019-08-15T08:33:28Z</time>
      </trkpt>
      <trkpt lat="41.6969860" lon="-5.2199340">
        <ele>828.5</ele>
        <time>2019-08-15T08:33:29Z</time>
      </trkpt>
      <trkpt lat="41.6970290" lon="-5.2199790">
        <ele>828.6</ele>
        <time>2019-08-15T08:33:30Z</time>
      </trkpt>
      <trkpt lat="41.6970730" lon="-5.2200210">
        <ele>828.7</ele>
        <time>2019-08-15T08:33:31Z</time>
      </trkpt>
      <trkpt lat="41.6971180" lon="-5.2200640">
        <ele>828.9</ele>
        <time>2019-08-15T08:33:32Z</time>
      </trkpt>
      <trkpt lat="41.6971610" lon="-5.2201070">
        <ele>829.0</ele>
        <time>2019-08-15T08:33:33Z</time>
      </trkpt>
      <trkpt lat="41.6972030" lon="-5.2201540">
        <ele>829.1</ele>
        <time>2019-08-15T08:33:34Z</time>
      </trkpt>
      <trkpt lat="41.6972450" lon="-5.2202000">
        <ele>829.3</ele>
        <time>2019-08-15T08:33:35Z</time>
      </trkpt>
      <trkpt lat="41.6972870" lon="-5.2202460">
        <ele>829.4</ele>
        <time>2019-08-15T08:33:36Z</time>
      </trkpt>
      <trkpt lat="41.6973290" lon="-5.2202930">
        <ele>829.4</ele>
        <time>2019-08-15T08:33:37Z</time>
      </trkpt>
      <trkpt lat="41.6973700" lon="-5.2203410">
        <ele>829.5</ele>
        <time>2019-08-15T08:33:38Z</time>
      </trkpt>
      <trkpt lat="41.6974120" lon="-5.2203880">
        <ele>829.6</ele>
        <time>2019-08-15T08:33:39Z</time>
      </trkpt>
      <trkpt lat="41.6974540" lon="-5.2204340">
        <ele>829.6</ele>
        <time>2019-08-15T08:33:40Z</time>
      </trkpt>
      <trkpt lat="41.6974950" lon="-5.2204800">
        <ele>829.6</ele>
        <time>2019-08-15T08:33:41Z</time>
      </trkpt>
      <trkpt lat="41.6975350" lon="-5.2205250">
        <ele>829.6</ele>
        <time>2019-08-15T08:33:42Z</time>
      </trkpt>
      <trkpt lat="41.6975760" lon="-5.2205710">
        <ele>829.7</ele>
        <time>2019-08-15T08:33:43Z</time>
      </trkpt>
      <trkpt lat="41.6976150" lon="-5.2206150">
        <ele>829.6</ele>
        <time>2019-08-15T08:33:44Z</time>
      </trkpt>
      <trkpt lat="41.6976540" lon="-5.2206600">
        <ele>829.6</ele>
        <time>2019-08-15T08:33:45Z</time>
      </trkpt>
      <trkpt lat="41.6976930" lon="-5.2207070">
        <ele>829.6</ele>
        <time>2019-08-15T08:33:46Z</time>
      </trkpt>
      <trkpt lat="41.6977320" lon="-5.2207540">
        <ele>829.5</ele>
        <time>2019-08-15T08:33:47Z</time>
      </trkpt>
      <trkpt lat="41.6977700" lon="-5.2208010">
        <ele>829.5</ele>
        <time>2019-08-15T08:33:48Z</time>
      </trkpt>
      <trkpt lat="41.6978090" lon="-5.2208510">
        <ele>829.4</ele>
        <time>2019-08-15T08:33:49Z</time>
      </trkpt>
      <trkpt lat="41.6978470" lon="-5.2209000">
        <ele>829.3</ele>
        <time>2019-08-15T08:33:50Z</time>
      </trkpt>
      <trkpt lat="41.6978860" lon="-5.2209490">
        <ele>829.2</ele>
        <time>2019-08-15T08:33:51Z</time>
      </trkpt>
      <trkpt lat="41.6979240" lon="-5.2210000">
        <ele>829.0</ele>
        <time>2019-08-15T08:33:52Z</time>
      </trkpt>
      <trkpt lat="41.6979630" lon="-5.2210500">
        <ele>828.9</ele>
        <time>2019-08-15T08:33:53Z</time>
      </trkpt>
      <trkpt lat="41.6980020" lon="-5.2211020">
        <ele>828.8</ele>
        <time>2019-08-15T08:33:54Z</time>
      </trkpt>
      <trkpt lat="41.6980400" lon="-5.2211560">
        <ele>828.7</ele>
        <time>2019-08-15T08:33:55Z</time>
      </trkpt>
      <trkpt lat="41.6980780" lon="-5.2212090">
        <ele>828.6</ele>
        <time>2019-08-15T08:33:56Z</time>
      </trkpt>
      <trkpt lat="41.6981160" lon="-5.2212650">
        <ele>828.5</ele>
        <time>2019-08-15T08:33:57Z</time>
      </trkpt>
      <trkpt lat="41.6981540" lon="-5.2213220">
        <ele>828.4</ele>
        <time>2019-08-15T08:33:58Z</time>
      </trkpt>
      <trkpt lat="41.6981930" lon="-5.2213790">
        <ele>828.3</ele>
        <time>2019-08-15T08:33:59Z</time>
      </trkpt>
      <trkpt lat="41.6982330" lon="-5.2214370">
        <ele>828.2</ele>
        <time>2019-08-15T08:34:00Z</time>
      </trkpt>
      <trkpt lat="41.6982720" lon="-5.2214940">
        <ele>828.2</ele>
        <time>2019-08-15T08:34:01Z</time>
      </trkpt>
      <trkpt lat="41.6983110" lon="-5.2215540">
        <ele>828.1</ele>
        <time>2019-08-15T08:34:02Z</time>
      </trkpt>
      <trkpt lat="41.6983460" lon="-5.2216120">
        <ele>828.1</ele>
        <time>2019-08-15T08:34:03Z</time>
      </trkpt>
      <trkpt lat="41.6983790" lon="-5.2216700">
        <ele>828.2</ele>
        <time>2019-08-15T08:34:04Z</time>
      </trkpt>
      <trkpt lat="41.6984140" lon="-5.2217260">
        <ele>828.2</ele>
        <time>2019-08-15T08:34:05Z</time>
      </trkpt>
      <trkpt lat="41.6984510" lon="-5.2217850">
        <ele>828.3</ele>
        <time>2019-08-15T08:34:06Z</time>
      </trkpt>
      <trkpt lat="41.6984870" lon="-5.2218440">
        <ele>828.4</ele>
        <time>2019-08-15T08:34:07Z</time>
      </trkpt>
      <trkpt lat="41.6985240" lon="-5.2219050">
        <ele>828.4</ele>
        <time>2019-08-15T08:34:08Z</time>
      </trkpt>
      <trkpt lat="41.6985610" lon="-5.2219660">
        <ele>828.5</ele>
        <time>2019-08-15T08:34:09Z</time>
      </trkpt>
      <trkpt lat="41.6985970" lon="-5.2220250">
        <ele>828.6</ele>
        <time>2019-08-15T08:34:10Z</time>
      </trkpt>
      <trkpt lat="41.6986330" lon="-5.2220850">
        <ele>828.7</ele>
        <time>2019-08-15T08:34:11Z</time>
      </trkpt>
      <trkpt lat="41.6986660" lon="-5.2221460">
        <ele>828.7</ele>
        <time>2019-08-15T08:34:12Z</time>
      </trkpt>
      <trkpt lat="41.6986950" lon="-5.2222110">
        <ele>828.8</ele>
        <time>2019-08-15T08:34:13Z</time>
      </trkpt>
      <trkpt lat="41.6987150" lon="-5.2222810">
        <ele>829.0</ele>
        <time>2019-08-15T08:34:14Z</time>
      </trkpt>
      <trkpt lat="41.6987220" lon="-5.2223540">
        <ele>829.0</ele>
        <time>2019-08-15T08:34:15Z</time>
      </trkpt>
      <trkpt lat="41.6987090" lon="-5.2224280">
        <ele>828.9</ele>
        <time>2019-08-15T08:34:16Z</time>
      </trkpt>
      <trkpt lat="41.6986810" lon="-5.2224920">
        <ele>828.9</ele>
        <time>2019-08-15T08:34:17Z</time>
      </trkpt>
      <trkpt lat="41.6986440" lon="-5.2225450">
        <ele>828.8</ele>
        <time>2019-08-15T08:34:18Z</time>
      </trkpt>
      <trkpt lat="41.6986070" lon="-5.2225950">
        <ele>828.6</ele>
        <time>2019-08-15T08:34:19Z</time>
      </trkpt>
      <trkpt lat="41.6985730" lon="-5.2226450">
        <ele>828.6</ele>
        <time>2019-08-15T08:34:20Z</time>
      </trkpt>
      <trkpt lat="41.6985460" lon="-5.2226990">
        <ele>828.5</ele>
        <time>2019-08-15T08:34:21Z</time>
      </trkpt>
      <trkpt lat="41.6985300" lon="-5.2227550">
        <ele>828.5</ele>
        <time>2019-08-15T08:34:22Z</time>
      </trkpt>
      <trkpt lat="41.6985220" lon="-5.2228070">
        <ele>828.5</ele>
        <time>2019-08-15T08:34:23Z</time>
      </trkpt>
      <trkpt lat="41.6985100" lon="-5.2228520">
        <ele>828.3</ele>
        <time>2019-08-15T08:34:24Z</time>
      </trkpt>
      <trkpt lat="41.6984990" lon="-5.2228900">
        <ele>828.3</ele>
        <time>2019-08-15T08:34:25Z</time>
      </trkpt>
      <trkpt lat="41.6984860" lon="-5.2229230">
        <ele>828.2</ele>
        <time>2019-08-15T08:34:26Z</time>
      </trkpt>
      <trkpt lat="41.6984750" lon="-5.2229510">
        <ele>828.2</ele>
        <time>2019-08-15T08:34:27Z</time>
      </trkpt>
      <trkpt lat="41.6984490" lon="-5.2230030">
        <ele>828.1</ele>
        <time>2019-08-15T08:34:29Z</time>
      </trkpt>
      <trkpt lat="41.6984130" lon="-5.2230730">
        <ele>827.9</ele>
        <time>2019-08-15T08:34:31Z</time>
      </trkpt>
      <trkpt lat="41.6983950" lon="-5.2231180">
        <ele>827.8</ele>
        <time>2019-08-15T08:34:32Z</time>
      </trkpt>
      <trkpt lat="41.6983790" lon="-5.2231680">
        <ele>827.7</ele>
        <time>2019-08-15T08:34:33Z</time>
      </trkpt>
      <trkpt lat="41.6983610" lon="-5.2232220">
        <ele>827.6</ele>
        <time>2019-08-15T08:34:34Z</time>
      </trkpt>
      <trkpt lat="41.6983390" lon="-5.2232770">
        <ele>827.5</ele>
        <time>2019-08-15T08:34:35Z</time>
      </trkpt>
      <trkpt lat="41.6983150" lon="-5.2233320">
        <ele>827.4</ele>
        <time>2019-08-15T08:34:36Z</time>
      </trkpt>
      <trkpt lat="41.6982900" lon="-5.2233870">
        <ele>827.4</ele>
        <time>2019-08-15T08:34:37Z</time>
      </trkpt>
      <trkpt lat="41.6982660" lon="-5.2234450">
        <ele>827.4</ele>
        <time>2019-08-15T08:34:38Z</time>
      </trkpt>
      <trkpt lat="41.6982410" lon="-5.2235050">
        <ele>827.4</ele>
        <time>2019-08-15T08:34:39Z</time>
      </trkpt>
      <trkpt lat="41.6982180" lon="-5.2235670">
        <ele>827.4</ele>
        <time>2019-08-15T08:34:40Z</time>
      </trkpt>
      <trkpt lat="41.6981960" lon="-5.2236290">
        <ele>827.5</ele>
        <time>2019-08-15T08:34:41Z</time>
      </trkpt>
      <trkpt lat="41.6981740" lon="-5.2236920">
        <ele>827.5</ele>
        <time>2019-08-15T08:34:42Z</time>
      </trkpt>
      <trkpt lat="41.6981520" lon="-5.2237520">
        <ele>827.5</ele>
        <time>2019-08-15T08:34:43Z</time>
      </trkpt>
      <trkpt lat="41.6981310" lon="-5.2238100">
        <ele>827.6</ele>
        <time>2019-08-15T08:34:44Z</time>
      </trkpt>
      <trkpt lat="41.6981110" lon="-5.2238690">
        <ele>827.7</ele>
        <time>2019-08-15T08:34:45Z</time>
      </trkpt>
      <trkpt lat="41.6980910" lon="-5.2239260">
        <ele>827.7</ele>
        <time>2019-08-15T08:34:46Z</time>
      </trkpt>
      <trkpt lat="41.6980680" lon="-5.2239830">
        <ele>827.8</ele>
        <time>2019-08-15T08:34:47Z</time>
      </trkpt>
      <trkpt lat="41.6980440" lon="-5.2240410">
        <ele>827.9</ele>
        <time>2019-08-15T08:34:48Z</time>
      </trkpt>
      <trkpt lat="41.6980180" lon="-5.2240990">
        <ele>827.9</ele>
        <time>2019-08-15T08:34:49Z</time>
      </trkpt>
      <trkpt lat="41.6979900" lon="-5.2241560">
        <ele>828.0</ele>
        <time>2019-08-15T08:34:50Z</time>
      </trkpt>
      <trkpt lat="41.6979590" lon="-5.2242100">
        <ele>828.1</ele>
        <time>2019-08-15T08:34:51Z</time>
      </trkpt>
      <trkpt lat="41.6979290" lon="-5.2242640">
        <ele>828.2</ele>
        <time>2019-08-15T08:34:52Z</time>
      </trkpt>
      <trkpt lat="41.6978990" lon="-5.2243150">
        <ele>828.4</ele>
        <time>2019-08-15T08:34:53Z</time>
      </trkpt>
      <trkpt lat="41.6978670" lon="-5.2243650">
        <ele>828.4</ele>
        <time>2019-08-15T08:34:54Z</time>
      </trkpt>
      <trkpt lat="41.6978350" lon="-5.2244160">
        <ele>828.5</ele>
        <time>2019-08-15T08:34:55Z</time>
      </trkpt>
      <trkpt lat="41.6978050" lon="-5.2244710">
        <ele>828.5</ele>
        <time>2019-08-15T08:34:56Z</time>
      </trkpt>
      <trkpt lat="41.6977760" lon="-5.2245270">
        <ele>828.6</ele>
        <time>2019-08-15T08:34:57Z</time>
      </trkpt>
      <trkpt lat="41.6977490" lon="-5.2245840">
        <ele>828.7</ele>
        <time>2019-08-15T08:34:58Z</time>
      </trkpt>
      <trkpt lat="41.6977240" lon="-5.2246400">
        <ele>828.8</ele>
        <time>2019-08-15T08:34:59Z</time>
      </trkpt>
      <trkpt lat="41.6977010" lon="-5.2246990">
        <ele>828.9</ele>
        <time>2019-08-15T08:35:00Z</time>
      </trkpt>
      <trkpt lat="41.6976770" lon="-5.2247600">
        <ele>829.0</ele>
        <time>2019-08-15T08:35:01Z</time>
      </trkpt>
      <trkpt lat="41.6976520" lon="-5.2248220">
        <ele>829.0</ele>
        <time>2019-08-15T08:35:02Z</time>
      </trkpt>
      <trkpt lat="41.6976270" lon="-5.2248810">
        <ele>829.1</ele>
        <time>2019-08-15T08:35:03Z</time>
      </trkpt>
      <trkpt lat="41.6976040" lon="-5.2249390">
        <ele>829.1</ele>
        <time>2019-08-15T08:35:04Z</time>
      </trkpt>
      <trkpt lat="41.6975850" lon="-5.2249990">
        <ele>829.1</ele>
        <time>2019-08-15T08:35:05Z</time>
      </trkpt>
      <trkpt lat="41.6975730" lon="-5.2250640">
        <ele>829.2</ele>
        <time>2019-08-15T08:35:06Z</time>
      </trkpt>
      <trkpt lat="41.6975700" lon="-5.2251330">
        <ele>829.2</ele>
        <time>2019-08-15T08:35:07Z</time>
      </trkpt>
      <trkpt lat="41.6975730" lon="-5.2252020">
        <ele>829.2</ele>
        <time>2019-08-15T08:35:08Z</time>
      </trkpt>
      <trkpt lat="41.6975840" lon="-5.2252700">
        <ele>829.2</ele>
        <time>2019-08-15T08:35:09Z</time>
      </trkpt>
      <trkpt lat="41.6976010" lon="-5.2253350">
        <ele>829.3</ele>
        <time>2019-08-15T08:35:10Z</time>
      </trkpt>
      <trkpt lat="41.6976230" lon="-5.2253990">
        <ele>829.3</ele>
        <time>2019-08-15T08:35:11Z</time>
      </trkpt>
      <trkpt lat="41.6976450" lon="-5.2254630">
        <ele>829.3</ele>
        <time>2019-08-15T08:35:12Z</time>
      </trkpt>
      <trkpt lat="41.6976690" lon="-5.2255260">
        <ele>829.2</ele>
        <time>2019-08-15T08:35:13Z</time>
      </trkpt>
      <trkpt lat="41.6976920" lon="-5.2255910">
        <ele>829.2</ele>
        <time>2019-08-15T08:35:14Z</time>
      </trkpt>
      <trkpt lat="41.6977160" lon="-5.2256570">
        <ele>829.1</ele>
        <time>2019-08-15T08:35:15Z</time>
      </trkpt>
      <trkpt lat="41.6977410" lon="-5.2257200">
        <ele>829.0</ele>
        <time>2019-08-15T08:35:16Z</time>
      </trkpt>
      <trkpt lat="41.6977670" lon="-5.2257820">
        <ele>828.9</ele>
        <time>2019-08-15T08:35:17Z</time>
      </trkpt>
      <trkpt lat="41.6977930" lon="-5.2258410">
        <ele>828.8</ele>
        <time>2019-08-15T08:35:18Z</time>
      </trkpt>
      <trkpt lat="41.6978220" lon="-5.2258960">
        <ele>828.7</ele>
        <time>2019-08-15T08:35:19Z</time>
      </trkpt>
      <trkpt lat="41.6978570" lon="-5.2259480">
        <ele>828.6</ele>
        <time>2019-08-15T08:35:20Z</time>
      </trkpt>
      <trkpt lat="41.6978950" lon="-5.2259990">
        <ele>828.4</ele>
        <time>2019-08-15T08:35:21Z</time>
      </trkpt>
      <trkpt lat="41.6979330" lon="-5.2260480">
        <ele>828.3</ele>
        <time>2019-08-15T08:35:22Z</time>
      </trkpt>
      <trkpt lat="41.6979710" lon="-5.2260970">
        <ele>828.3</ele>
        <time>2019-08-15T08:35:23Z</time>
      </trkpt>
      <trkpt lat="41.6980070" lon="-5.2261460">
        <ele>828.3</ele>
        <time>2019-08-15T08:35:24Z</time>
      </trkpt>
      <trkpt lat="41.6980400" lon="-5.2262000">
        <ele>828.2</ele>
        <time>2019-08-15T08:35:25Z</time>
      </trkpt>
      <trkpt lat="41.6980700" lon="-5.2262620">
        <ele>828.0</ele>
        <time>2019-08-15T08:35:26Z</time>
      </trkpt>
      <trkpt lat="41.6980920" lon="-5.2263310">
        <ele>827.9</ele>
        <time>2019-08-15T08:35:27Z</time>
      </trkpt>
      <trkpt lat="41.6981060" lon="-5.2264050">
        <ele>827.8</ele>
        <time>2019-08-15T08:35:28Z</time>
      </trkpt>
      <trkpt lat="41.6981150" lon="-5.2264810">
        <ele>827.6</ele>
        <time>2019-08-15T08:35:29Z</time>
      </trkpt>
      <trkpt lat="41.6981200" lon="-5.2265600">
        <ele>827.5</ele>
        <time>2019-08-15T08:35:30Z</time>
      </trkpt>
      <trkpt lat="41.6981210" lon="-5.2266430">
        <ele>827.4</ele>
        <time>2019-08-15T08:35:31Z</time>
      </trkpt>
      <trkpt lat="41.6981230" lon="-5.2267290">
        <ele>827.3</ele>
        <time>2019-08-15T08:35:32Z</time>
      </trkpt>
      <trkpt lat="41.6981260" lon="-5.2268170">
        <ele>827.2</ele>
        <time>2019-08-15T08:35:33Z</time>
      </trkpt>
      <trkpt lat="41.6981300" lon="-5.2269070">
        <ele>827.0</ele>
        <time>2019-08-15T08:35:34Z</time>
      </trkpt>
      <trkpt lat="41.6981350" lon="-5.2269990">
        <ele>826.9</ele>
        <time>2019-08-15T08:35:35Z</time>
      </trkpt>
      <trkpt lat="41.6981400" lon="-5.2270910">
        <ele>826.8</ele>
        <time>2019-08-15T08:35:36Z</time>
      </trkpt>
      <trkpt lat="41.6981460" lon="-5.2271840">
        <ele>826.7</ele>
        <time>2019-08-15T08:35:37Z</time>
      </trkpt>
      <trkpt lat="41.6981540" lon="-5.2272760">
        <ele>826.5</ele>
        <time>2019-08-15T08:35:38Z</time>
      </trkpt>
      <trkpt lat="41.6981630" lon="-5.2273690">
        <ele>826.3</ele>
        <time>2019-08-15T08:35:39Z</time>
      </trkpt>
      <trkpt lat="41.6981710" lon="-5.2274640">
        <ele>826.2</ele>
        <time>2019-08-15T08:35:40Z</time>
      </trkpt>
      <trkpt lat="41.6981820" lon="-5.2275630">
        <ele>825.9</ele>
        <time>2019-08-15T08:35:41Z</time>
      </trkpt>
      <trkpt lat="41.6981910" lon="-5.2276640">
        <ele>825.4</ele>
        <time>2019-08-15T08:35:42Z</time>
      </trkpt>
      <trkpt lat="41.6982010" lon="-5.2277650">
        <ele>824.8</ele>
        <time>2019-08-15T08:35:43Z</time>
      </trkpt>
      <trkpt lat="41.6982110" lon="-5.2278670">
        <ele>824.3</ele>
        <time>2019-08-15T08:35:44Z</time>
      </trkpt>
      <trkpt lat="41.6982200" lon="-5.2279690">
        <ele>823.8</ele>
        <time>2019-08-15T08:35:45Z</time>
      </trkpt>
      <trkpt lat="41.6982290" lon="-5.2280720">
        <ele>823.2</ele>
        <time>2019-08-15T08:35:46Z</time>
      </trkpt>
      <trkpt lat="41.6982370" lon="-5.2281730">
        <ele>822.8</ele>
        <time>2019-08-15T08:35:47Z</time>
      </trkpt>
      <trkpt lat="41.6982450" lon="-5.2282740">
        <ele>822.5</ele>
        <time>2019-08-15T08:35:48Z</time>
      </trkpt>
      <trkpt lat="41.6982530" lon="-5.2283740">
        <ele>822.5</ele>
        <time>2019-08-15T08:35:49Z</time>
      </trkpt>
      <trkpt lat="41.6982630" lon="-5.2284730">
        <ele>822.6</ele>
        <time>2019-08-15T08:35:50Z</time>
      </trkpt>
      <trkpt lat="41.6982710" lon="-5.2285710">
        <ele>822.6</ele>
        <time>2019-08-15T08:35:51Z</time>
      </trkpt>
      <trkpt lat="41.6982790" lon="-5.2286650">
        <ele>822.7</ele>
        <time>2019-08-15T08:35:52Z</time>
      </trkpt>
      <trkpt lat="41.6982870" lon="-5.2287600">
        <ele>822.8</ele>
        <time>2019-08-15T08:35:53Z</time>
      </trkpt>
      <trkpt lat="41.6982950" lon="-5.2288540">
        <ele>822.8</ele>
        <time>2019-08-15T08:35:54Z</time>
      </trkpt>
      <trkpt lat="41.6983030" lon="-5.2289480">
        <ele>822.7</ele>
        <time>2019-08-15T08:35:55Z</time>
      </trkpt>
      <trkpt lat="41.6983110" lon="-5.2290430">
        <ele>822.7</ele>
        <time>2019-08-15T08:35:56Z</time>
      </trkpt>
      <trkpt lat="41.6983200" lon="-5.2291380">
        <ele>822.6</ele>
        <time>2019-08-15T08:35:57Z</time>
      </trkpt>
      <trkpt lat="41.6983280" lon="-5.2292350">
        <ele>822.5</ele>
        <time>2019-08-15T08:35:58Z</time>
      </trkpt>
      <trkpt lat="41.6983360" lon="-5.2293300">
        <ele>822.4</ele>
        <time>2019-08-15T08:35:59Z</time>
      </trkpt>
      <trkpt lat="41.6983450" lon="-5.2294240">
        <ele>822.3</ele>
        <time>2019-08-15T08:36:00Z</time>
      </trkpt>
      <trkpt lat="41.6983530" lon="-5.2295200">
        <ele>822.3</ele>
        <time>2019-08-15T08:36:01Z</time>
      </trkpt>
      <trkpt lat="41.6983620" lon="-5.2296130">
        <ele>822.2</ele>
        <time>2019-08-15T08:36:02Z</time>
      </trkpt>
      <trkpt lat="41.6983710" lon="-5.2297060">
        <ele>822.2</ele>
        <time>2019-08-15T08:36:03Z</time>
      </trkpt>
      <trkpt lat="41.6983790" lon="-5.2297990">
        <ele>822.2</ele>
        <time>2019-08-15T08:36:04Z</time>
      </trkpt>
      <trkpt lat="41.6983870" lon="-5.2298920">
        <ele>822.1</ele>
        <time>2019-08-15T08:36:05Z</time>
      </trkpt>
      <trkpt lat="41.6983960" lon="-5.2299850">
        <ele>822.0</ele>
        <time>2019-08-15T08:36:06Z</time>
      </trkpt>
      <trkpt lat="41.6984040" lon="-5.2300780">
        <ele>821.9</ele>
        <time>2019-08-15T08:36:07Z</time>
      </trkpt>
      <trkpt lat="41.6984120" lon="-5.2301720">
        <ele>821.8</ele>
        <time>2019-08-15T08:36:08Z</time>
      </trkpt>
      <trkpt lat="41.6984200" lon="-5.2302640">
        <ele>821.6</ele>
        <time>2019-08-15T08:36:09Z</time>
      </trkpt>
      <trkpt lat="41.6984300" lon="-5.2303580">
        <ele>821.5</ele>
        <time>2019-08-15T08:36:10Z</time>
      </trkpt>
      <trkpt lat="41.6984390" lon="-5.2304530">
        <ele>821.3</ele>
        <time>2019-08-15T08:36:11Z</time>
      </trkpt>
      <trkpt lat="41.6984480" lon="-5.2305460">
        <ele>821.2</ele>
        <time>2019-08-15T08:36:12Z</time>
      </trkpt>
      <trkpt lat="41.6984560" lon="-5.2306390">
        <ele>821.1</ele>
        <time>2019-08-15T08:36:13Z</time>
      </trkpt>
      <trkpt lat="41.6984640" lon="-5.2307320">
        <ele>820.9</ele>
        <time>2019-08-15T08:36:14Z</time>
      </trkpt>
      <trkpt lat="41.6984730" lon="-5.2308230">
        <ele>820.8</ele>
        <time>2019-08-15T08:36:15Z</time>
      </trkpt>
      <trkpt lat="41.6984810" lon="-5.2309110">
        <ele>820.7</ele>
        <time>2019-08-15T08:36:16Z</time>
      </trkpt>
      <trkpt lat="41.6984910" lon="-5.2309990">
        <ele>820.7</ele>
        <time>2019-08-15T08:36:17Z</time>
      </trkpt>
      <trkpt lat="41.6984980" lon="-5.2310860">
        <ele>820.6</ele>
        <time>2019-08-15T08:36:18Z</time>
      </trkpt>
      <trkpt lat="41.6985070" lon="-5.2311740">
        <ele>820.5</ele>
        <time>2019-08-15T08:36:19Z</time>
      </trkpt>
      <trkpt lat="41.6985150" lon="-5.2312630">
        <ele>820.4</ele>
        <time>2019-08-15T08:36:20Z</time>
      </trkpt>
      <trkpt lat="41.6985230" lon="-5.2313500">
        <ele>820.3</ele>
        <time>2019-08-15T08:36:21Z</time>
      </trkpt>
      <trkpt lat="41.6985310" lon="-5.2314370">
        <ele>820.3</ele>
        <time>2019-08-15T08:36:22Z</time>
      </trkpt>
      <trkpt lat="41.6985410" lon="-5.2315260">
        <ele>820.2</ele>
        <time>2019-08-15T08:36:23Z</time>
      </trkpt>
      <trkpt lat="41.6985490" lon="-5.2316140">
        <ele>820.1</ele>
        <time>2019-08-15T08:36:24Z</time>
      </trkpt>
      <trkpt lat="41.6985580" lon="-5.2317030">
        <ele>820.1</ele>
        <time>2019-08-15T08:36:25Z</time>
      </trkpt>
      <trkpt lat="41.6985670" lon="-5.2317920">
        <ele>820.0</ele>
        <time>2019-08-15T08:36:26Z</time>
      </trkpt>
      <trkpt lat="41.6985750" lon="-5.2318810">
        <ele>820.0</ele>
        <time>2019-08-15T08:36:27Z</time>
      </trkpt>
      <trkpt lat="41.6985810" lon="-5.2319710">
        <ele>820.0</ele>
        <time>2019-08-15T08:36:28Z</time>
      </trkpt>
      <trkpt lat="41.6985890" lon="-5.2320590">
        <ele>819.9</ele>
        <time>2019-08-15T08:36:29Z</time>
      </trkpt>
      <trkpt lat="41.6985970" lon="-5.2321490">
        <ele>819.8</ele>
        <time>2019-08-15T08:36:30Z</time>
      </trkpt>
      <trkpt lat="41.6986080" lon="-5.2322400">
        <ele>819.6</ele>
        <time>2019-08-15T08:36:31Z</time>
      </trkpt>
      <trkpt lat="41.6986180" lon="-5.2323280">
        <ele>819.3</ele>
        <time>2019-08-15T08:36:32Z</time>
      </trkpt>
      <trkpt lat="41.6986260" lon="-5.2324160">
        <ele>819.1</ele>
        <time>2019-08-15T08:36:33Z</time>
      </trkpt>
      <trkpt lat="41.6986360" lon="-5.2325030">
        <ele>818.8</ele>
        <time>2019-08-15T08:36:34Z</time>
      </trkpt>
      <trkpt lat="41.6986440" lon="-5.2325890">
        <ele>818.5</ele>
        <time>2019-08-15T08:36:35Z</time>
      </trkpt>
      <trkpt lat="41.6986510" lon="-5.2326750">
        <ele>818.2</ele>
        <time>2019-08-15T08:36:36Z</time>
      </trkpt>
      <trkpt lat="41.6986590" lon="-5.2327580">
        <ele>818.0</ele>
        <time>2019-08-15T08:36:37Z</time>
      </trkpt>
      <trkpt lat="41.6986660" lon="-5.2328390">
        <ele>817.8</ele>
        <time>2019-08-15T08:36:38Z</time>
      </trkpt>
      <trkpt lat="41.6986730" lon="-5.2329210">
        <ele>817.5</ele>
        <time>2019-08-15T08:36:39Z</time>
      </trkpt>
      <trkpt lat="41.6986810" lon="-5.2330030">
        <ele>817.3</ele>
        <time>2019-08-15T08:36:40Z</time>
      </trkpt>
      <trkpt lat="41.6986890" lon="-5.2330860">
        <ele>817.1</ele>
        <time>2019-08-15T08:36:41Z</time>
      </trkpt>
      <trkpt lat="41.6986960" lon="-5.2331680">
        <ele>817.0</ele>
        <time>2019-08-15T08:36:42Z</time>
      </trkpt>
      <trkpt lat="41.6987030" lon="-5.2332510">
        <ele>817.0</ele>
        <time>2019-08-15T08:36:43Z</time>
      </trkpt>
      <trkpt lat="41.6987100" lon="-5.2333350">
        <ele>817.0</ele>
        <time>2019-08-15T08:36:44Z</time>
      </trkpt>
      <trkpt lat="41.6987190" lon="-5.2334190">
        <ele>817.0</ele>
        <time>2019-08-15T08:36:45Z</time>
      </trkpt>
      <trkpt lat="41.6987260" lon="-5.2335030">
        <ele>817.1</ele>
        <time>2019-08-15T08:36:46Z</time>
      </trkpt>
      <trkpt lat="41.6987350" lon="-5.2335870">
        <ele>817.2</ele>
        <time>2019-08-15T08:36:47Z</time>
      </trkpt>
      <trkpt lat="41.6987450" lon="-5.2336720">
        <ele>817.3</ele>
        <time>2019-08-15T08:36:48Z</time>
      </trkpt>
      <trkpt lat="41.6987540" lon="-5.2337590">
        <ele>817.4</ele>
        <time>2019-08-15T08:36:49Z</time>
      </trkpt>
      <trkpt lat="41.6987630" lon="-5.2338470">
        <ele>817.6</ele>
        <time>2019-08-15T08:36:50Z</time>
      </trkpt>
      <trkpt lat="41.6987720" lon="-5.2339340">
        <ele>817.7</ele>
        <time>2019-08-15T08:36:51Z</time>
      </trkpt>
      <trkpt lat="41.6987800" lon="-5.2340220">
        <ele>817.9</ele>
        <time>2019-08-15T08:36:52Z</time>
      </trkpt>
      <trkpt lat="41.6987880" lon="-5.2341120">
        <ele>818.1</ele>
        <time>2019-08-15T08:36:53Z</time>
      </trkpt>
      <trkpt lat="41.6987960" lon="-5.2342020">
        <ele>818.3</ele>
        <time>2019-08-15T08:36:54Z</time>
      </trkpt>
      <trkpt lat="41.6988040" lon="-5.2342930">
        <ele>818.6</ele>
        <time>2019-08-15T08:36:55Z</time>
      </trkpt>
      <trkpt lat="41.6988120" lon="-5.2343840">
        <ele>818.8</ele>
        <time>2019-08-15T08:36:56Z</time>
      </trkpt>
      <trkpt lat="41.6988210" lon="-5.2344770">
        <ele>819.1</ele>
        <time>2019-08-15T08:36:57Z</time>
      </trkpt>
      <trkpt lat="41.6988300" lon="-5.2345690">
        <ele>819.3</ele>
        <time>2019-08-15T08:36:58Z</time>
      </trkpt>
      <trkpt lat="41.6988390" lon="-5.2346600">
        <ele>819.5</ele>
        <time>2019-08-15T08:36:59Z</time>
      </trkpt>
      <trkpt lat="41.6988480" lon="-5.2347510">
        <ele>819.7</ele>
        <time>2019-08-15T08:37:00Z</time>
      </trkpt>
      <trkpt lat="41.6988570" lon="-5.2348410">
        <ele>819.8</ele>
        <time>2019-08-15T08:37:01Z</time>
      </trkpt>
      <trkpt lat="41.6988640" lon="-5.2349290">
        <ele>819.7</ele>
        <time>2019-08-15T08:37:02Z</time>
      </trkpt>
      <trkpt lat="41.6988720" lon="-5.2350160">
        <ele>819.7</ele>
        <time>2019-08-15T08:37:03Z</time>
      </trkpt>
      <trkpt lat="41.6988800" lon="-5.2351060">
        <ele>819.5</ele>
        <time>2019-08-15T08:37:04Z</time>
      </trkpt>
      <trkpt lat="41.6988890" lon="-5.2351970">
        <ele>819.3</ele>
        <time>2019-08-15T08:37:05Z</time>
      </trkpt>
      <trkpt lat="41.6988970" lon="-5.2352880">
        <ele>819.1</ele>
        <time>2019-08-15T08:37:06Z</time>
      </trkpt>
      <trkpt lat="41.6989060" lon="-5.2353790">
        <ele>818.8</ele>
        <time>2019-08-15T08:37:07Z</time>
      </trkpt>
      <trkpt lat="41.6989140" lon="-5.2354680">
        <ele>818.5</ele>
        <time>2019-08-15T08:37:08Z</time>
      </trkpt>
      <trkpt lat="41.6989210" lon="-5.2355560">
        <ele>818.5</ele>
        <time>2019-08-15T08:37:09Z</time>
      </trkpt>
      <trkpt lat="41.6989280" lon="-5.2356440">
        <ele>818.3</ele>
        <time>2019-08-15T08:37:10Z</time>
      </trkpt>
      <trkpt lat="41.6989380" lon="-5.2357310">
        <ele>818.1</ele>
        <time>2019-08-15T08:37:11Z</time>
      </trkpt>
      <trkpt lat="41.6989490" lon="-5.2358160">
        <ele>818.0</ele>
        <time>2019-08-15T08:37:12Z</time>
      </trkpt>
      <trkpt lat="41.6989580" lon="-5.2359000">
        <ele>817.8</ele>
        <time>2019-08-15T08:37:13Z</time>
      </trkpt>
      <trkpt lat="41.6989660" lon="-5.2359820">
        <ele>817.7</ele>
        <time>2019-08-15T08:37:14Z</time>
      </trkpt>
      <trkpt lat="41.6989740" lon="-5.2360650">
        <ele>817.6</ele>
        <time>2019-08-15T08:37:15Z</time>
      </trkpt>
      <trkpt lat="41.6989820" lon="-5.2361460">
        <ele>817.4</ele>
        <time>2019-08-15T08:37:16Z</time>
      </trkpt>
      <trkpt lat="41.6989910" lon="-5.2362260">
        <ele>817.2</ele>
        <time>2019-08-15T08:37:17Z</time>
      </trkpt>
      <trkpt lat="41.6989990" lon="-5.2363030">
        <ele>817.0</ele>
        <time>2019-08-15T08:37:18Z</time>
      </trkpt>
      <trkpt lat="41.6990070" lon="-5.2363780">
        <ele>816.9</ele>
        <time>2019-08-15T08:37:19Z</time>
      </trkpt>
      <trkpt lat="41.6990140" lon="-5.2364520">
        <ele>816.8</ele>
        <time>2019-08-15T08:37:20Z</time>
      </trkpt>
      <trkpt lat="41.6990210" lon="-5.2365250">
        <ele>816.8</ele>
        <time>2019-08-15T08:37:21Z</time>
      </trkpt>
      <trkpt lat="41.6990290" lon="-5.2365970">
        <ele>816.7</ele>
        <time>2019-08-15T08:37:22Z</time>
      </trkpt>
      <trkpt lat="41.6990370" lon="-5.2366700">
        <ele>816.7</ele>
        <time>2019-08-15T08:37:23Z</time>
      </trkpt>
      <trkpt lat="41.6990440" lon="-5.2367440">
        <ele>816.7</ele>
        <time>2019-08-15T08:37:24Z</time>
      </trkpt>
      <trkpt lat="41.6990510" lon="-5.2368180">
        <ele>816.8</ele>
        <time>2019-08-15T08:37:25Z</time>
      </trkpt>
      <trkpt lat="41.6990580" lon="-5.2368920">
        <ele>817.0</ele>
        <time>2019-08-15T08:37:26Z</time>
      </trkpt>
      <trkpt lat="41.6990660" lon="-5.2369640">
        <ele>817.1</ele>
        <time>2019-08-15T08:37:27Z</time>
      </trkpt>
      <trkpt lat="41.6990730" lon="-5.2370380">
        <ele>817.2</ele>
        <time>2019-08-15T08:37:28Z</time>
      </trkpt>
      <trkpt lat="41.6990790" lon="-5.2371120">
        <ele>817.4</ele>
        <time>2019-08-15T08:37:29Z</time>
      </trkpt>
      <trkpt lat="41.6990850" lon="-5.2371850">
        <ele>817.6</ele>
        <time>2019-08-15T08:37:30Z</time>
      </trkpt>
      <trkpt lat="41.6990930" lon="-5.2372590">
        <ele>817.8</ele>
        <time>2019-08-15T08:37:31Z</time>
      </trkpt>
      <trkpt lat="41.6991010" lon="-5.2373320">
        <ele>817.9</ele>
        <time>2019-08-15T08:37:32Z</time>
      </trkpt>
      <trkpt lat="41.6991080" lon="-5.2374050">
        <ele>818.0</ele>
        <time>2019-08-15T08:37:33Z</time>
      </trkpt>
      <trkpt lat="41.6991150" lon="-5.2374780">
        <ele>818.2</ele>
        <time>2019-08-15T08:37:34Z</time>
      </trkpt>
      <trkpt lat="41.6991230" lon="-5.2375510">
        <ele>818.3</ele>
        <time>2019-08-15T08:37:35Z</time>
      </trkpt>
      <trkpt lat="41.6991290" lon="-5.2376230">
        <ele>818.3</ele>
        <time>2019-08-15T08:37:36Z</time>
      </trkpt>
      <trkpt lat="41.6991360" lon="-5.2376940">
        <ele>818.4</ele>
        <time>2019-08-15T08:37:37Z</time>
      </trkpt>
      <trkpt lat="41.6991440" lon="-5.2377640">
        <ele>818.5</ele>
        <time>2019-08-15T08:37:38Z</time>
      </trkpt>
      <trkpt lat="41.6991510" lon="-5.2378310">
        <ele>818.6</ele>
        <time>2019-08-15T08:37:39Z</time>
      </trkpt>
      <trkpt lat="41.6991570" lon="-5.2378970">
        <ele>818.6</ele>
        <time>2019-08-15T08:37:40Z</time>
      </trkpt>
      <trkpt lat="41.6991620" lon="-5.2379630">
        <ele>818.6</ele>
        <time>2019-08-15T08:37:41Z</time>
      </trkpt>
      <trkpt lat="41.6991680" lon="-5.2380270">
        <ele>818.6</ele>
        <time>2019-08-15T08:37:42Z</time>
      </trkpt>
      <trkpt lat="41.6991730" lon="-5.2380920">
        <ele>818.7</ele>
        <time>2019-08-15T08:37:43Z</time>
      </trkpt>
      <trkpt lat="41.6991780" lon="-5.2381560">
        <ele>818.7</ele>
        <time>2019-08-15T08:37:44Z</time>
      </trkpt>
      <trkpt lat="41.6991840" lon="-5.2382200">
        <ele>818.7</ele>
        <time>2019-08-15T08:37:45Z</time>
      </trkpt>
      <trkpt lat="41.6991910" lon="-5.2382840">
        <ele>818.7</ele>
        <time>2019-08-15T08:37:46Z</time>
      </trkpt>
      <trkpt lat="41.6991970" lon="-5.2383460">
        <ele>818.7</ele>
        <time>2019-08-15T08:37:47Z</time>
      </trkpt>
      <trkpt lat="41.6992020" lon="-5.2384080">
        <ele>818.7</ele>
        <time>2019-08-15T08:37:48Z</time>
      </trkpt>
      <trkpt lat="41.6992060" lon="-5.2384700">
        <ele>818.7</ele>
        <time>2019-08-15T08:37:49Z</time>
      </trkpt>
      <trkpt lat="41.6992120" lon="-5.2385320">
        <ele>818.7</ele>
        <time>2019-08-15T08:37:50Z</time>
      </trkpt>
      <trkpt lat="41.6992200" lon="-5.2385940">
        <ele>818.6</ele>
        <time>2019-08-15T08:37:51Z</time>
      </trkpt>
      <trkpt lat="41.6992280" lon="-5.2386560">
        <ele>818.6</ele>
        <time>2019-08-15T08:37:52Z</time>
      </trkpt>
      <trkpt lat="41.6992360" lon="-5.2387200">
        <ele>818.6</ele>
        <time>2019-08-15T08:37:53Z</time>
      </trkpt>
      <trkpt lat="41.6992430" lon="-5.2387850">
        <ele>818.5</ele>
        <time>2019-08-15T08:37:54Z</time>
      </trkpt>
      <trkpt lat="41.6992500" lon="-5.2388490">
        <ele>818.5</ele>
        <time>2019-08-15T08:37:55Z</time>
      </trkpt>
      <trkpt lat="41.6992580" lon="-5.2389130">
        <ele>818.5</ele>
        <time>2019-08-15T08:37:56Z</time>
      </trkpt>
      <trkpt lat="41.6992670" lon="-5.2389780">
        <ele>818.5</ele>
        <time>2019-08-15T08:37:57Z</time>
      </trkpt>
      <trkpt lat="41.6992760" lon="-5.2390440">
        <ele>818.4</ele>
        <time>2019-08-15T08:37:58Z</time>
      </trkpt>
      <trkpt lat="41.6992870" lon="-5.2391120">
        <ele>818.4</ele>
        <time>2019-08-15T08:37:59Z</time>
      </trkpt>
      <trkpt lat="41.6992980" lon="-5.2391810">
        <ele>818.4</ele>
        <time>2019-08-15T08:38:00Z</time>
      </trkpt>
      <trkpt lat="41.6993090" lon="-5.2392490">
        <ele>818.4</ele>
        <time>2019-08-15T08:38:01Z</time>
      </trkpt>
      <trkpt lat="41.6993210" lon="-5.2393130">
        <ele>818.5</ele>
        <time>2019-08-15T08:38:02Z</time>
      </trkpt>
      <trkpt lat="41.6993350" lon="-5.2393760">
        <ele>818.5</ele>
        <time>2019-08-15T08:38:03Z</time>
      </trkpt>
      <trkpt lat="41.6993500" lon="-5.2394400">
        <ele>818.5</ele>
        <time>2019-08-15T08:38:04Z</time>
      </trkpt>
      <trkpt lat="41.6993660" lon="-5.2395040">
        <ele>818.5</ele>
        <time>2019-08-15T08:38:05Z</time>
      </trkpt>
      <trkpt lat="41.6993830" lon="-5.2395690">
        <ele>818.5</ele>
        <time>2019-08-15T08:38:06Z</time>
      </trkpt>
      <trkpt lat="41.6994020" lon="-5.2396370">
        <ele>818.5</ele>
        <time>2019-08-15T08:38:07Z</time>
      </trkpt>
      <trkpt lat="41.6994250" lon="-5.2397050">
        <ele>818.5</ele>
        <time>2019-08-15T08:38:08Z</time>
      </trkpt>
      <trkpt lat="41.6994480" lon="-5.2397760">
        <ele>818.5</ele>
        <time>2019-08-15T08:38:09Z</time>
      </trkpt>
      <trkpt lat="41.6994730" lon="-5.2398500">
        <ele>818.3</ele>
        <time>2019-08-15T08:38:10Z</time>
      </trkpt>
      <trkpt lat="41.6995010" lon="-5.2399250">
        <ele>818.1</ele>
        <time>2019-08-15T08:38:11Z</time>
      </trkpt>
      <trkpt lat="41.6995350" lon="-5.2400010">
        <ele>817.8</ele>
        <time>2019-08-15T08:38:12Z</time>
      </trkpt>
      <trkpt lat="41.6995720" lon="-5.2400780">
        <ele>817.3</ele>
        <time>2019-08-15T08:38:13Z</time>
      </trkpt>
      <trkpt lat="41.6996130" lon="-5.2401590">
        <ele>816.8</ele>
        <time>2019-08-15T08:38:14Z</time>
      </trkpt>
      <trkpt lat="41.6996560" lon="-5.2402410">
        <ele>816.2</ele>
        <time>2019-08-15T08:38:15Z</time>
      </trkpt>
      <trkpt lat="41.6997010" lon="-5.2403260">
        <ele>815.6</ele>
        <time>2019-08-15T08:38:16Z</time>
      </trkpt>
      <trkpt lat="41.6997420" lon="-5.2404150">
        <ele>814.8</ele>
        <time>2019-08-15T08:38:17Z</time>
      </trkpt>
      <trkpt lat="41.6997800" lon="-5.2405080">
        <ele>814.2</ele>
        <time>2019-08-15T08:38:18Z</time>
      </trkpt>
      <trkpt lat="41.6998100" lon="-5.2406030">
        <ele>813.7</ele>
        <time>2019-08-15T08:38:19Z</time>
      </trkpt>
      <trkpt lat="41.6998340" lon="-5.2407030">
        <ele>813.3</ele>
        <time>2019-08-15T08:38:20Z</time>
      </trkpt>
      <trkpt lat="41.6998530" lon="-5.2408060">
        <ele>812.9</ele>
        <time>2019-08-15T08:38:21Z</time>
      </trkpt>
      <trkpt lat="41.6998690" lon="-5.2409090">
        <ele>812.6</ele>
        <time>2019-08-15T08:38:22Z</time>
      </trkpt>
      <trkpt lat="41.6998820" lon="-5.2410110">
        <ele>812.2</ele>
        <time>2019-08-15T08:38:23Z</time>
      </trkpt>
      <trkpt lat="41.6998940" lon="-5.2411080">
        <ele>811.6</ele>
        <time>2019-08-15T08:38:24Z</time>
      </trkpt>
      <trkpt lat="41.6999060" lon="-5.2412020">
        <ele>810.9</ele>
        <time>2019-08-15T08:38:25Z</time>
      </trkpt>
      <trkpt lat="41.6999180" lon="-5.2412940">
        <ele>809.9</ele>
        <time>2019-08-15T08:38:26Z</time>
      </trkpt>
      <trkpt lat="41.6999300" lon="-5.2413820">
        <ele>808.8</ele>
        <time>2019-08-15T08:38:27Z</time>
      </trkpt>
      <trkpt lat="41.6999420" lon="-5.2414670">
        <ele>808.1</ele>
        <time>2019-08-15T08:38:28Z</time>
      </trkpt>
      <trkpt lat="41.6999530" lon="-5.2415490">
        <ele>807.4</ele>
        <time>2019-08-15T08:38:29Z</time>
      </trkpt>
      <trkpt lat="41.6999680" lon="-5.2416290">
        <ele>806.6</ele>
        <time>2019-08-15T08:38:30Z</time>
      </trkpt>
      <trkpt lat="41.6999910" lon="-5.2417010">
        <ele>805.7</ele>
        <time>2019-08-15T08:38:31Z</time>
      </trkpt>
      <trkpt lat="41.7000230" lon="-5.2417680">
        <ele>804.9</ele>
        <time>2019-08-15T08:38:32Z</time>
      </trkpt>
      <trkpt lat="41.7000700" lon="-5.2418280">
        <ele>804.2</ele>
        <time>2019-08-15T08:38:33Z</time>
      </trkpt>
      <trkpt lat="41.7001280" lon="-5.2418860">
        <ele>803.7</ele>
        <time>2019-08-15T08:38:34Z</time>
      </trkpt>
      <trkpt lat="41.7001900" lon="-5.2419480">
        <ele>802.8</ele>
        <time>2019-08-15T08:38:35Z</time>
      </trkpt>
      <trkpt lat="41.7002560" lon="-5.2420200">
        <ele>801.4</ele>
        <time>2019-08-15T08:38:36Z</time>
      </trkpt>
      <trkpt lat="41.7003250" lon="-5.2421010">
        <ele>800.0</ele>
        <time>2019-08-15T08:38:37Z</time>
      </trkpt>
      <trkpt lat="41.7004030" lon="-5.2421890">
        <ele>798.2</ele>
        <time>2019-08-15T08:38:38Z</time>
      </trkpt>
      <trkpt lat="41.7004890" lon="-5.2422800">
        <ele>796.2</ele>
        <time>2019-08-15T08:38:39Z</time>
      </trkpt>
      <trkpt lat="41.7005820" lon="-5.2423750">
        <ele>794.1</ele>
        <time>2019-08-15T08:38:40Z</time>
      </trkpt>
      <trkpt lat="41.7006790" lon="-5.2424730">
        <ele>791.8</ele>
        <time>2019-08-15T08:38:41Z</time>
      </trkpt>
      <trkpt lat="41.7007780" lon="-5.2425580">
        <ele>789.6</ele>
        <time>2019-08-15T08:38:42Z</time>
      </trkpt>
      <trkpt lat="41.7008780" lon="-5.2426260">
        <ele>787.1</ele>
        <time>2019-08-15T08:38:43Z</time>
      </trkpt>
      <trkpt lat="41.7009810" lon="-5.2426880">
        <ele>785.1</ele>
        <time>2019-08-15T08:38:44Z</time>
      </trkpt>
      <trkpt lat="41.7010860" lon="-5.2427340">
        <ele>783.4</ele>
        <time>2019-08-15T08:38:45Z</time>
      </trkpt>
      <trkpt lat="41.7011920" lon="-5.2427710">
        <ele>782.2</ele>
        <time>2019-08-15T08:38:46Z</time>
      </trkpt>
      <trkpt lat="41.7012970" lon="-5.2428050">
        <ele>780.8</ele>
        <time>2019-08-15T08:38:47Z</time>
      </trkpt>
      <trkpt lat="41.7014000" lon="-5.2428460">
        <ele>779.4</ele>
        <time>2019-08-15T08:38:48Z</time>
      </trkpt>
      <trkpt lat="41.7015000" lon="-5.2428920">
        <ele>778.5</ele>
        <time>2019-08-15T08:38:49Z</time>
      </trkpt>
      <trkpt lat="41.7015960" lon="-5.2429420">
        <ele>777.4</ele>
        <time>2019-08-15T08:38:50Z</time>
      </trkpt>
      <trkpt lat="41.7016870" lon="-5.2429960">
        <ele>776.5</ele>
        <time>2019-08-15T08:38:51Z</time>
      </trkpt>
      <trkpt lat="41.7017770" lon="-5.2430460">
        <ele>775.4</ele>
        <time>2019-08-15T08:38:52Z</time>
      </trkpt>
      <trkpt lat="41.7018660" lon="-5.2430950">
        <ele>774.7</ele>
        <time>2019-08-15T08:38:53Z</time>
      </trkpt>
      <trkpt lat="41.7019540" lon="-5.2431440">
        <ele>774.2</ele>
        <time>2019-08-15T08:38:54Z</time>
      </trkpt>
      <trkpt lat="41.7020410" lon="-5.2431940">
        <ele>773.7</ele>
        <time>2019-08-15T08:38:55Z</time>
      </trkpt>
      <trkpt lat="41.7021260" lon="-5.2432460">
        <ele>773.3</ele>
        <time>2019-08-15T08:38:56Z</time>
      </trkpt>
      <trkpt lat="41.7022120" lon="-5.2433020">
        <ele>772.8</ele>
        <time>2019-08-15T08:38:57Z</time>
      </trkpt>
      <trkpt lat="41.7022960" lon="-5.2433640">
        <ele>772.7</ele>
        <time>2019-08-15T08:38:58Z</time>
      </trkpt>
      <trkpt lat="41.7023790" lon="-5.2434310">
        <ele>772.8</ele>
        <time>2019-08-15T08:38:59Z</time>
      </trkpt>
      <trkpt lat="41.7024580" lon="-5.2435060">
        <ele>772.8</ele>
        <time>2019-08-15T08:39:00Z</time>
      </trkpt>
      <trkpt lat="41.7025340" lon="-5.2435880">
        <ele>772.7</ele>
        <time>2019-08-15T08:39:01Z</time>
      </trkpt>
      <trkpt lat="41.7026050" lon="-5.2436770">
        <ele>772.5</ele>
        <time>2019-08-15T08:39:02Z</time>
      </trkpt>
      <trkpt lat="41.7026720" lon="-5.2437700">
        <ele>772.5</ele>
        <time>2019-08-15T08:39:03Z</time>
      </trkpt>
      <trkpt lat="41.7027330" lon="-5.2438640">
        <ele>772.7</ele>
        <time>2019-08-15T08:39:04Z</time>
      </trkpt>
      <trkpt lat="41.7027930" lon="-5.2439620">
        <ele>773.0</ele>
        <time>2019-08-15T08:39:05Z</time>
      </trkpt>
      <trkpt lat="41.7028510" lon="-5.2440590">
        <ele>773.2</ele>
        <time>2019-08-15T08:39:06Z</time>
      </trkpt>
      <trkpt lat="41.7029080" lon="-5.2441550">
        <ele>773.1</ele>
        <time>2019-08-15T08:39:07Z</time>
      </trkpt>
      <trkpt lat="41.7029640" lon="-5.2442490">
        <ele>773.0</ele>
        <time>2019-08-15T08:39:08Z</time>
      </trkpt>
      <trkpt lat="41.7030190" lon="-5.2443390">
        <ele>772.9</ele>
        <time>2019-08-15T08:39:09Z</time>
      </trkpt>
      <trkpt lat="41.7030700" lon="-5.2444220">
        <ele>772.8</ele>
        <time>2019-08-15T08:39:10Z</time>
      </trkpt>
      <trkpt lat="41.7031130" lon="-5.2444930">
        <ele>772.8</ele>
        <time>2019-08-15T08:39:11Z</time>
      </trkpt>
      <trkpt lat="41.7031460" lon="-5.2445460">
        <ele>772.8</ele>
        <time>2019-08-15T08:39:12Z</time>
      </trkpt>
      <trkpt lat="41.7031670" lon="-5.2445810">
        <ele>772.7</ele>
        <time>2019-08-15T08:39:13Z</time>
      </trkpt>
      <trkpt lat="41.7031710" lon="-5.2445980">
        <ele>772.7</ele>
        <time>2019-08-15T08:39:14Z</time>
      </trkpt>
      <trkpt lat="41.7032060" lon="-5.2446630">
        <ele>772.7</ele>
        <time>2019-08-15T08:39:20Z</time>
      </trkpt>
      <trkpt lat="41.7032490" lon="-5.2447260">
        <ele>772.7</ele>
        <time>2019-08-15T08:39:38Z</time>
      </trkpt>
      <trkpt lat="41.7032910" lon="-5.2447900">
        <ele>772.7</ele>
        <time>2019-08-15T08:39:39Z</time>
      </trkpt>
      <trkpt lat="41.7033260" lon="-5.2448380">
        <ele>772.6</ele>
        <time>2019-08-15T08:39:40Z</time>
      </trkpt>
      <trkpt lat="41.7033660" lon="-5.2448850">
        <ele>772.5</ele>
        <time>2019-08-15T08:39:41Z</time>
      </trkpt>
      <trkpt lat="41.7034080" lon="-5.2449280">
        <ele>772.4</ele>
        <time>2019-08-15T08:39:42Z</time>
      </trkpt>
      <trkpt lat="41.7034520" lon="-5.2449680">
        <ele>772.3</ele>
        <time>2019-08-15T08:39:43Z</time>
      </trkpt>
      <trkpt lat="41.7034990" lon="-5.2450050">
        <ele>772.1</ele>
        <time>2019-08-15T08:39:44Z</time>
      </trkpt>
      <trkpt lat="41.7035470" lon="-5.2450410">
        <ele>772.0</ele>
        <time>2019-08-15T08:39:45Z</time>
      </trkpt>
      <trkpt lat="41.7035970" lon="-5.2450770">
        <ele>771.8</ele>
        <time>2019-08-15T08:39:46Z</time>
      </trkpt>
      <trkpt lat="41.7036490" lon="-5.2451140">
        <ele>771.7</ele>
        <time>2019-08-15T08:39:47Z</time>
      </trkpt>
      <trkpt lat="41.7037020" lon="-5.2451500">
        <ele>771.5</ele>
        <time>2019-08-15T08:39:48Z</time>
      </trkpt>
      <trkpt lat="41.7037550" lon="-5.2451850">
        <ele>771.4</ele>
        <time>2019-08-15T08:39:49Z</time>
      </trkpt>
      <trkpt lat="41.7038080" lon="-5.2452180">
        <ele>771.3</ele>
        <time>2019-08-15T08:39:50Z</time>
      </trkpt>
      <trkpt lat="41.7038580" lon="-5.2452490">
        <ele>771.3</ele>
        <time>2019-08-15T08:39:51Z</time>
      </trkpt>
      <trkpt lat="41.7039080" lon="-5.2452820">
        <ele>771.0</ele>
        <time>2019-08-15T08:39:52Z</time>
      </trkpt>
      <trkpt lat="41.7039570" lon="-5.2453150">
        <ele>770.8</ele>
        <time>2019-08-15T08:39:53Z</time>
      </trkpt>
      <trkpt lat="41.7040070" lon="-5.2453480">
        <ele>770.6</ele>
        <time>2019-08-15T08:39:54Z</time>
      </trkpt>
      <trkpt lat="41.7040580" lon="-5.2453830">
        <ele>770.3</ele>
        <time>2019-08-15T08:39:55Z</time>
      </trkpt>
      <trkpt lat="41.7041100" lon="-5.2454230">
        <ele>769.9</ele>
        <time>2019-08-15T08:39:56Z</time>
      </trkpt>
      <trkpt lat="41.7041630" lon="-5.2454630">
        <ele>769.5</ele>
        <time>2019-08-15T08:39:57Z</time>
      </trkpt>
      <trkpt lat="41.7042150" lon="-5.2455000">
        <ele>769.1</ele>
        <time>2019-08-15T08:39:58Z</time>
      </trkpt>
      <trkpt lat="41.7042670" lon="-5.2455410">
        <ele>768.6</ele>
        <time>2019-08-15T08:39:59Z</time>
      </trkpt>
      <trkpt lat="41.7043210" lon="-5.2455840">
        <ele>767.9</ele>
        <time>2019-08-15T08:40:00Z</time>
      </trkpt>
      <trkpt lat="41.7043760" lon="-5.2456270">
        <ele>767.5</ele>
        <time>2019-08-15T08:40:01Z</time>
      </trkpt>
      <trkpt lat="41.7044330" lon="-5.2456690">
        <ele>766.9</ele>
        <time>2019-08-15T08:40:02Z</time>
      </trkpt>
      <trkpt lat="41.7044920" lon="-5.2457130">
        <ele>766.2</ele>
        <time>2019-08-15T08:40:03Z</time>
      </trkpt>
      <trkpt lat="41.7045500" lon="-5.2457580">
        <ele>765.7</ele>
        <time>2019-08-15T08:40:04Z</time>
      </trkpt>
      <trkpt lat="41.7046090" lon="-5.2458040">
        <ele>764.9</ele>
        <time>2019-08-15T08:40:05Z</time>
      </trkpt>
      <trkpt lat="41.7046690" lon="-5.2458510">
        <ele>764.0</ele>
        <time>2019-08-15T08:40:06Z</time>
      </trkpt>
      <trkpt lat="41.7047290" lon="-5.2458990">
        <ele>763.2</ele>
        <time>2019-08-15T08:40:07Z</time>
      </trkpt>
      <trkpt lat="41.7047900" lon="-5.2459490">
        <ele>762.5</ele>
        <time>2019-08-15T08:40:08Z</time>
      </trkpt>
      <trkpt lat="41.7048550" lon="-5.2459990">
        <ele>761.6</ele>
        <time>2019-08-15T08:40:09Z</time>
      </trkpt>
      <trkpt lat="41.7049230" lon="-5.2460500">
        <ele>760.8</ele>
        <time>2019-08-15T08:40:10Z</time>
      </trkpt>
      <trkpt lat="41.7049920" lon="-5.2461030">
        <ele>759.9</ele>
        <time>2019-08-15T08:40:11Z</time>
      </trkpt>
      <trkpt lat="41.7050640" lon="-5.2461570">
        <ele>759.1</ele>
        <time>2019-08-15T08:40:12Z</time>
      </trkpt>
      <trkpt lat="41.7051370" lon="-5.2462130">
        <ele>758.3</ele>
        <time>2019-08-15T08:40:13Z</time>
      </trkpt>
      <trkpt lat="41.7052120" lon="-5.2462700">
        <ele>757.3</ele>
        <time>2019-08-15T08:40:14Z</time>
      </trkpt>
      <trkpt lat="41.7052870" lon="-5.2463300">
        <ele>756.1</ele>
        <time>2019-08-15T08:40:15Z</time>
      </trkpt>
      <trkpt lat="41.7053630" lon="-5.2463890">
        <ele>754.7</ele>
        <time>2019-08-15T08:40:16Z</time>
      </trkpt>
      <trkpt lat="41.7054410" lon="-5.2464490">
        <ele>753.3</ele>
        <time>2019-08-15T08:40:17Z</time>
      </trkpt>
      <trkpt lat="41.7055180" lon="-5.2465080">
        <ele>752.1</ele>
        <time>2019-08-15T08:40:18Z</time>
      </trkpt>
      <trkpt lat="41.7055970" lon="-5.2465640">
        <ele>750.9</ele>
        <time>2019-08-15T08:40:19Z</time>
      </trkpt>
      <trkpt lat="41.7056770" lon="-5.2466210">
        <ele>750.2</ele>
        <time>2019-08-15T08:40:20Z</time>
      </trkpt>
      <trkpt lat="41.7057570" lon="-5.2466800">
        <ele>750.3</ele>
        <time>2019-08-15T08:40:21Z</time>
      </trkpt>
      <trkpt lat="41.7058350" lon="-5.2467400">
        <ele>750.9</ele>
        <time>2019-08-15T08:40:22Z</time>
      </trkpt>
      <trkpt lat="41.7059140" lon="-5.2468020">
        <ele>751.8</ele>
        <time>2019-08-15T08:40:23Z</time>
      </trkpt>
      <trkpt lat="41.7059930" lon="-5.2468620">
        <ele>753.0</ele>
        <time>2019-08-15T08:40:24Z</time>
      </trkpt>
      <trkpt lat="41.7060730" lon="-5.2469250">
        <ele>753.9</ele>
        <time>2019-08-15T08:40:25Z</time>
      </trkpt>
      <trkpt lat="41.7061540" lon="-5.2469860">
        <ele>754.5</ele>
        <time>2019-08-15T08:40:26Z</time>
      </trkpt>
      <trkpt lat="41.7062350" lon="-5.2470470">
        <ele>754.8</ele>
        <time>2019-08-15T08:40:27Z</time>
      </trkpt>
      <trkpt lat="41.7063140" lon="-5.2471100">
        <ele>754.9</ele>
        <time>2019-08-15T08:40:28Z</time>
      </trkpt>
      <trkpt lat="41.7063930" lon="-5.2471720">
        <ele>754.7</ele>
        <time>2019-08-15T08:40:29Z</time>
      </trkpt>
      <trkpt lat="41.7064730" lon="-5.2472320">
        <ele>754.4</ele>
        <time>2019-08-15T08:40:30Z</time>
      </trkpt>
      <trkpt lat="41.7065530" lon="-5.2472920">
        <ele>753.6</ele>
        <time>2019-08-15T08:40:31Z</time>
      </trkpt>
      <trkpt lat="41.7066310" lon="-5.2473520">
        <ele>753.0</ele>
        <time>2019-08-15T08:40:32Z</time>
      </trkpt>
      <trkpt lat="41.7067080" lon="-5.2474130">
        <ele>752.3</ele>
        <time>2019-08-15T08:40:33Z</time>
      </trkpt>
      <trkpt lat="41.7067860" lon="-5.2474750">
        <ele>751.6</ele>
        <time>2019-08-15T08:40:34Z</time>
      </trkpt>
      <trkpt lat="41.7068640" lon="-5.2475350">
        <ele>751.0</ele>
        <time>2019-08-15T08:40:35Z</time>
      </trkpt>
      <trkpt lat="41.7069410" lon="-5.2475950">
        <ele>750.4</ele>
        <time>2019-08-15T08:40:36Z</time>
      </trkpt>
      <trkpt lat="41.7070170" lon="-5.2476540">
        <ele>750.1</ele>
        <time>2019-08-15T08:40:37Z</time>
      </trkpt>
      <trkpt lat="41.7070920" lon="-5.2477110">
        <ele>749.7</ele>
        <time>2019-08-15T08:40:38Z</time>
      </trkpt>
      <trkpt lat="41.7071660" lon="-5.2477660">
        <ele>749.4</ele>
        <time>2019-08-15T08:40:39Z</time>
      </trkpt>
      <trkpt lat="41.7072390" lon="-5.2478200">
        <ele>749.1</ele>
        <time>2019-08-15T08:40:40Z</time>
      </trkpt>
      <trkpt lat="41.7073080" lon="-5.2478740">
        <ele>748.8</ele>
        <time>2019-08-15T08:40:41Z</time>
      </trkpt>
      <trkpt lat="41.7073780" lon="-5.2479270">
        <ele>748.5</ele>
        <time>2019-08-15T08:40:42Z</time>
      </trkpt>
      <trkpt lat="41.7074480" lon="-5.2479810">
        <ele>748.3</ele>
        <time>2019-08-15T08:40:43Z</time>
      </trkpt>
      <trkpt lat="41.7075190" lon="-5.2480340">
        <ele>748.0</ele>
        <time>2019-08-15T08:40:44Z</time>
      </trkpt>
      <trkpt lat="41.7075910" lon="-5.2480900">
        <ele>747.7</ele>
        <time>2019-08-15T08:40:45Z</time>
      </trkpt>
      <trkpt lat="41.7076630" lon="-5.2481460">
        <ele>747.5</ele>
        <time>2019-08-15T08:40:46Z</time>
      </trkpt>
      <trkpt lat="41.7077370" lon="-5.2482020">
        <ele>747.3</ele>
        <time>2019-08-15T08:40:47Z</time>
      </trkpt>
      <trkpt lat="41.7078100" lon="-5.2482570">
        <ele>747.1</ele>
        <time>2019-08-15T08:40:48Z</time>
      </trkpt>
      <trkpt lat="41.7078820" lon="-5.2483130">
        <ele>747.1</ele>
        <time>2019-08-15T08:40:49Z</time>
      </trkpt>
      <trkpt lat="41.7079540" lon="-5.2483670">
        <ele>747.0</ele>
        <time>2019-08-15T08:40:50Z</time>
      </trkpt>
      <trkpt lat="41.7080240" lon="-5.2484210">
        <ele>747.0</ele>
        <time>2019-08-15T08:40:51Z</time>
      </trkpt>
      <trkpt lat="41.7080930" lon="-5.2484750">
        <ele>747.0</ele>
        <time>2019-08-15T08:40:52Z</time>
      </trkpt>
      <trkpt lat="41.7081620" lon="-5.2485280">
        <ele>747.0</ele>
        <time>2019-08-15T08:40:53Z</time>
      </trkpt>
      <trkpt lat="41.7082320" lon="-5.2485810">
        <ele>747.0</ele>
        <time>2019-08-15T08:40:54Z</time>
      </trkpt>
      <trkpt lat="41.7083020" lon="-5.2486350">
        <ele>747.1</ele>
        <time>2019-08-15T08:40:55Z</time>
      </trkpt>
      <trkpt lat="41.7083720" lon="-5.2486890">
        <ele>747.0</ele>
        <time>2019-08-15T08:40:56Z</time>
      </trkpt>
      <trkpt lat="41.7084430" lon="-5.2487440">
        <ele>747.0</ele>
        <time>2019-08-15T08:40:57Z</time>
      </trkpt>
      <trkpt lat="41.7085160" lon="-5.2487990">
        <ele>747.0</ele>
        <time>2019-08-15T08:40:58Z</time>
      </trkpt>
      <trkpt lat="41.7085880" lon="-5.2488560">
        <ele>747.0</ele>
        <time>2019-08-15T08:40:59Z</time>
      </trkpt>
      <trkpt lat="41.7086600" lon="-5.2489140">
        <ele>746.9</ele>
        <time>2019-08-15T08:41:00Z</time>
      </trkpt>
      <trkpt lat="41.7087320" lon="-5.2489700">
        <ele>746.9</ele>
        <time>2019-08-15T08:41:01Z</time>
      </trkpt>
      <trkpt lat="41.7088020" lon="-5.2490260">
        <ele>746.8</ele>
        <time>2019-08-15T08:41:02Z</time>
      </trkpt>
      <trkpt lat="41.7088730" lon="-5.2490810">
        <ele>746.8</ele>
        <time>2019-08-15T08:41:03Z</time>
      </trkpt>
      <trkpt lat="41.7089430" lon="-5.2491340">
        <ele>746.8</ele>
        <time>2019-08-15T08:41:04Z</time>
      </trkpt>
      <trkpt lat="41.7090140" lon="-5.2491870">
        <ele>746.7</ele>
        <time>2019-08-15T08:41:05Z</time>
      </trkpt>
      <trkpt lat="41.7090810" lon="-5.2492390">
        <ele>746.7</ele>
        <time>2019-08-15T08:41:06Z</time>
      </trkpt>
      <trkpt lat="41.7091490" lon="-5.2492890">
        <ele>746.7</ele>
        <time>2019-08-15T08:41:07Z</time>
      </trkpt>
      <trkpt lat="41.7092140" lon="-5.2493380">
        <ele>746.6</ele>
        <time>2019-08-15T08:41:08Z</time>
      </trkpt>
      <trkpt lat="41.7092740" lon="-5.2493890">
        <ele>746.6</ele>
        <time>2019-08-15T08:41:09Z</time>
      </trkpt>
      <trkpt lat="41.7093320" lon="-5.2494400">
        <ele>746.6</ele>
        <time>2019-08-15T08:41:10Z</time>
      </trkpt>
      <trkpt lat="41.7093900" lon="-5.2494860">
        <ele>746.5</ele>
        <time>2019-08-15T08:41:11Z</time>
      </trkpt>
      <trkpt lat="41.7094450" lon="-5.2495260">
        <ele>746.5</ele>
        <time>2019-08-15T08:41:12Z</time>
      </trkpt>
      <trkpt lat="41.7094980" lon="-5.2495660">
        <ele>746.5</ele>
        <time>2019-08-15T08:41:13Z</time>
      </trkpt>
      <trkpt lat="41.7095460" lon="-5.2496040">
        <ele>746.4</ele>
        <time>2019-08-15T08:41:14Z</time>
      </trkpt>
      <trkpt lat="41.7095910" lon="-5.2496380">
        <ele>746.4</ele>
        <time>2019-08-15T08:41:15Z</time>
      </trkpt>
      <trkpt lat="41.7096360" lon="-5.2496720">
        <ele>746.4</ele>
        <time>2019-08-15T08:41:16Z</time>
      </trkpt>
      <trkpt lat="41.7096790" lon="-5.2497060">
        <ele>746.3</ele>
        <time>2019-08-15T08:41:17Z</time>
      </trkpt>
      <trkpt lat="41.7097210" lon="-5.2497400">
        <ele>746.2</ele>
        <time>2019-08-15T08:41:18Z</time>
      </trkpt>
      <trkpt lat="41.7097640" lon="-5.2497750">
        <ele>746.1</ele>
        <time>2019-08-15T08:41:19Z</time>
      </trkpt>
      <trkpt lat="41.7098060" lon="-5.2498100">
        <ele>746.0</ele>
        <time>2019-08-15T08:41:20Z</time>
      </trkpt>
      <trkpt lat="41.7098480" lon="-5.2498430">
        <ele>745.8</ele>
        <time>2019-08-15T08:41:21Z</time>
      </trkpt>
      <trkpt lat="41.7098880" lon="-5.2498770">
        <ele>745.7</ele>
        <time>2019-08-15T08:41:22Z</time>
      </trkpt>
      <trkpt lat="41.7099300" lon="-5.2499100">
        <ele>745.5</ele>
        <time>2019-08-15T08:41:23Z</time>
      </trkpt>
      <trkpt lat="41.7099720" lon="-5.2499420">
        <ele>745.3</ele>
        <time>2019-08-15T08:41:24Z</time>
      </trkpt>
      <trkpt lat="41.7100140" lon="-5.2499760">
        <ele>745.0</ele>
        <time>2019-08-15T08:41:25Z</time>
      </trkpt>
      <trkpt lat="41.7100560" lon="-5.2500100">
        <ele>744.6</ele>
        <time>2019-08-15T08:41:26Z</time>
      </trkpt>
      <trkpt lat="41.7100970" lon="-5.2500430">
        <ele>744.3</ele>
        <time>2019-08-15T08:41:27Z</time>
      </trkpt>
      <trkpt lat="41.7101400" lon="-5.2500770">
        <ele>744.0</ele>
        <time>2019-08-15T08:41:28Z</time>
      </trkpt>
      <trkpt lat="41.7101830" lon="-5.2501120">
        <ele>743.6</ele>
        <time>2019-08-15T08:41:29Z</time>
      </trkpt>
      <trkpt lat="41.7102280" lon="-5.2501480">
        <ele>743.2</ele>
        <time>2019-08-15T08:41:30Z</time>
      </trkpt>
      <trkpt lat="41.7102730" lon="-5.2501880">
        <ele>742.8</ele>
        <time>2019-08-15T08:41:31Z</time>
      </trkpt>
      <trkpt lat="41.7103210" lon="-5.2502320">
        <ele>742.3</ele>
        <time>2019-08-15T08:41:32Z</time>
      </trkpt>
      <trkpt lat="41.7103740" lon="-5.2502750">
        <ele>742.0</ele>
        <time>2019-08-15T08:41:33Z</time>
      </trkpt>
      <trkpt lat="41.7104310" lon="-5.2503180">
        <ele>741.5</ele>
        <time>2019-08-15T08:41:34Z</time>
      </trkpt>
      <trkpt lat="41.7104890" lon="-5.2503640">
        <ele>741.2</ele>
        <time>2019-08-15T08:41:35Z</time>
      </trkpt>
      <trkpt lat="41.7105470" lon="-5.2504110">
        <ele>741.0</ele>
        <time>2019-08-15T08:41:36Z</time>
      </trkpt>
      <trkpt lat="41.7106040" lon="-5.2504570">
        <ele>740.9</ele>
        <time>2019-08-15T08:41:37Z</time>
      </trkpt>
      <trkpt lat="41.7106620" lon="-5.2505030">
        <ele>740.6</ele>
        <time>2019-08-15T08:41:38Z</time>
      </trkpt>
      <trkpt lat="41.7107200" lon="-5.2505460">
        <ele>740.4</ele>
        <time>2019-08-15T08:41:39Z</time>
      </trkpt>
      <trkpt lat="41.7107780" lon="-5.2505910">
        <ele>740.1</ele>
        <time>2019-08-15T08:41:40Z</time>
      </trkpt>
      <trkpt lat="41.7108350" lon="-5.2506360">
        <ele>739.8</ele>
        <time>2019-08-15T08:41:41Z</time>
      </trkpt>
      <trkpt lat="41.7108950" lon="-5.2506810">
        <ele>739.6</ele>
        <time>2019-08-15T08:41:42Z</time>
      </trkpt>
      <trkpt lat="41.7109550" lon="-5.2507300">
        <ele>739.3</ele>
        <time>2019-08-15T08:41:43Z</time>
      </trkpt>
      <trkpt lat="41.7110160" lon="-5.2507790">
        <ele>738.9</ele>
        <time>2019-08-15T08:41:44Z</time>
      </trkpt>
      <trkpt lat="41.7110800" lon="-5.2508300">
        <ele>738.5</ele>
        <time>2019-08-15T08:41:45Z</time>
      </trkpt>
      <trkpt lat="41.7111450" lon="-5.2508840">
        <ele>738.1</ele>
        <time>2019-08-15T08:41:46Z</time>
      </trkpt>
      <trkpt lat="41.7112130" lon="-5.2509370">
        <ele>737.7</ele>
        <time>2019-08-15T08:41:47Z</time>
      </trkpt>
      <trkpt lat="41.7112810" lon="-5.2509900">
        <ele>737.2</ele>
        <time>2019-08-15T08:41:48Z</time>
      </trkpt>
      <trkpt lat="41.7113490" lon="-5.2510430">
        <ele>736.9</ele>
        <time>2019-08-15T08:41:49Z</time>
      </trkpt>
      <trkpt lat="41.7114170" lon="-5.2510970">
        <ele>736.6</ele>
        <time>2019-08-15T08:41:50Z</time>
      </trkpt>
      <trkpt lat="41.7114840" lon="-5.2511510">
        <ele>736.4</ele>
        <time>2019-08-15T08:41:51Z</time>
      </trkpt>
      <trkpt lat="41.7115520" lon="-5.2512030">
        <ele>736.4</ele>
        <time>2019-08-15T08:41:52Z</time>
      </trkpt>
      <trkpt lat="41.7116190" lon="-5.2512520">
        <ele>736.4</ele>
        <time>2019-08-15T08:41:53Z</time>
      </trkpt>
      <trkpt lat="41.7116840" lon="-5.2513040">
        <ele>736.3</ele>
        <time>2019-08-15T08:41:54Z</time>
      </trkpt>
      <trkpt lat="41.7117480" lon="-5.2513550">
        <ele>736.3</ele>
        <time>2019-08-15T08:41:55Z</time>
      </trkpt>
      <trkpt lat="41.7118120" lon="-5.2514040">
        <ele>736.4</ele>
        <time>2019-08-15T08:41:56Z</time>
      </trkpt>
      <trkpt lat="41.7118740" lon="-5.2514520">
        <ele>736.4</ele>
        <time>2019-08-15T08:41:57Z</time>
      </trkpt>
      <trkpt lat="41.7119340" lon="-5.2514990">
        <ele>736.4</ele>
        <time>2019-08-15T08:41:58Z</time>
      </trkpt>
      <trkpt lat="41.7119910" lon="-5.2515450">
        <ele>736.4</ele>
        <time>2019-08-15T08:41:59Z</time>
      </trkpt>
      <trkpt lat="41.7120450" lon="-5.2515880">
        <ele>736.3</ele>
        <time>2019-08-15T08:42:00Z</time>
      </trkpt>
      <trkpt lat="41.7120980" lon="-5.2516300">
        <ele>736.3</ele>
        <time>2019-08-15T08:42:01Z</time>
      </trkpt>
      <trkpt lat="41.7121500" lon="-5.2516710">
        <ele>736.2</ele>
        <time>2019-08-15T08:42:02Z</time>
      </trkpt>
      <trkpt lat="41.7122010" lon="-5.2517100">
        <ele>736.1</ele>
        <time>2019-08-15T08:42:03Z</time>
      </trkpt>
      <trkpt lat="41.7122500" lon="-5.2517490">
        <ele>735.9</ele>
        <time>2019-08-15T08:42:04Z</time>
      </trkpt>
      <trkpt lat="41.7123000" lon="-5.2517860">
        <ele>735.9</ele>
        <time>2019-08-15T08:42:05Z</time>
      </trkpt>
      <trkpt lat="41.7123480" lon="-5.2518240">
        <ele>735.9</ele>
        <time>2019-08-15T08:42:06Z</time>
      </trkpt>
      <trkpt lat="41.7123940" lon="-5.2518610">
        <ele>735.7</ele>
        <time>2019-08-15T08:42:07Z</time>
      </trkpt>
      <trkpt lat="41.7124370" lon="-5.2518980">
        <ele>735.6</ele>
        <time>2019-08-15T08:42:08Z</time>
      </trkpt>
      <trkpt lat="41.7124780" lon="-5.2519320">
        <ele>735.5</ele>
        <time>2019-08-15T08:42:09Z</time>
      </trkpt>
      <trkpt lat="41.7125160" lon="-5.2519620">
        <ele>735.3</ele>
        <time>2019-08-15T08:42:10Z</time>
      </trkpt>
      <trkpt lat="41.7125520" lon="-5.2519910">
        <ele>735.1</ele>
        <time>2019-08-15T08:42:11Z</time>
      </trkpt>
      <trkpt lat="41.7125870" lon="-5.2520190">
        <ele>734.9</ele>
        <time>2019-08-15T08:42:12Z</time>
      </trkpt>
      <trkpt lat="41.7126220" lon="-5.2520480">
        <ele>734.7</ele>
        <time>2019-08-15T08:42:13Z</time>
      </trkpt>
      <trkpt lat="41.7126610" lon="-5.2520750">
        <ele>734.6</ele>
        <time>2019-08-15T08:42:14Z</time>
      </trkpt>
      <trkpt lat="41.7127030" lon="-5.2521050">
        <ele>734.4</ele>
        <time>2019-08-15T08:42:15Z</time>
      </trkpt>
      <trkpt lat="41.7127480" lon="-5.2521360">
        <ele>734.1</ele>
        <time>2019-08-15T08:42:16Z</time>
      </trkpt>
      <trkpt lat="41.7127950" lon="-5.2521730">
        <ele>733.8</ele>
        <time>2019-08-15T08:42:17Z</time>
      </trkpt>
      <trkpt lat="41.7128450" lon="-5.2522150">
        <ele>733.5</ele>
        <time>2019-08-15T08:42:18Z</time>
      </trkpt>
      <trkpt lat="41.7128990" lon="-5.2522590">
        <ele>733.1</ele>
        <time>2019-08-15T08:42:19Z</time>
      </trkpt>
      <trkpt lat="41.7129560" lon="-5.2523070">
        <ele>732.5</ele>
        <time>2019-08-15T08:42:20Z</time>
      </trkpt>
      <trkpt lat="41.7130160" lon="-5.2523560">
        <ele>732.1</ele>
        <time>2019-08-15T08:42:21Z</time>
      </trkpt>
      <trkpt lat="41.7130800" lon="-5.2524050">
        <ele>731.7</ele>
        <time>2019-08-15T08:42:22Z</time>
      </trkpt>
      <trkpt lat="41.7131440" lon="-5.2524550">
        <ele>731.3</ele>
        <time>2019-08-15T08:42:23Z</time>
      </trkpt>
      <trkpt lat="41.7132080" lon="-5.2525070">
        <ele>731.3</ele>
        <time>2019-08-15T08:42:24Z</time>
      </trkpt>
      <trkpt lat="41.7132720" lon="-5.2525590">
        <ele>731.3</ele>
        <time>2019-08-15T08:42:25Z</time>
      </trkpt>
      <trkpt lat="41.7133370" lon="-5.2526090">
        <ele>731.3</ele>
        <time>2019-08-15T08:42:26Z</time>
      </trkpt>
      <trkpt lat="41.7134010" lon="-5.2526570">
        <ele>731.3</ele>
        <time>2019-08-15T08:42:27Z</time>
      </trkpt>
      <trkpt lat="41.7134640" lon="-5.2527060">
        <ele>731.4</ele>
        <time>2019-08-15T08:42:28Z</time>
      </trkpt>
      <trkpt lat="41.7135260" lon="-5.2527540">
        <ele>731.5</ele>
        <time>2019-08-15T08:42:29Z</time>
      </trkpt>
      <trkpt lat="41.7135900" lon="-5.2528010">
        <ele>731.5</ele>
        <time>2019-08-15T08:42:30Z</time>
      </trkpt>
      <trkpt lat="41.7136540" lon="-5.2528510">
        <ele>731.6</ele>
        <time>2019-08-15T08:42:31Z</time>
      </trkpt>
      <trkpt lat="41.7137200" lon="-5.2528990">
        <ele>731.7</ele>
        <time>2019-08-15T08:42:32Z</time>
      </trkpt>
      <trkpt lat="41.7137880" lon="-5.2529440">
        <ele>731.7</ele>
        <time>2019-08-15T08:42:33Z</time>
      </trkpt>
      <trkpt lat="41.7138540" lon="-5.2529900">
        <ele>731.7</ele>
        <time>2019-08-15T08:42:34Z</time>
      </trkpt>
      <trkpt lat="41.7139220" lon="-5.2530420">
        <ele>731.6</ele>
        <time>2019-08-15T08:42:35Z</time>
      </trkpt>
      <trkpt lat="41.7139900" lon="-5.2530970">
        <ele>731.5</ele>
        <time>2019-08-15T08:42:36Z</time>
      </trkpt>
      <trkpt lat="41.7140610" lon="-5.2531510">
        <ele>731.3</ele>
        <time>2019-08-15T08:42:37Z</time>
      </trkpt>
      <trkpt lat="41.7141320" lon="-5.2532060">
        <ele>731.0</ele>
        <time>2019-08-15T08:42:38Z</time>
      </trkpt>
      <trkpt lat="41.7142030" lon="-5.2532620">
        <ele>730.8</ele>
        <time>2019-08-15T08:42:39Z</time>
      </trkpt>
      <trkpt lat="41.7142740" lon="-5.2533170">
        <ele>730.5</ele>
        <time>2019-08-15T08:42:40Z</time>
      </trkpt>
      <trkpt lat="41.7143440" lon="-5.2533720">
        <ele>730.3</ele>
        <time>2019-08-15T08:42:41Z</time>
      </trkpt>
      <trkpt lat="41.7144140" lon="-5.2534260">
        <ele>730.1</ele>
        <time>2019-08-15T08:42:42Z</time>
      </trkpt>
      <trkpt lat="41.7144810" lon="-5.2534800">
        <ele>729.9</ele>
        <time>2019-08-15T08:42:43Z</time>
      </trkpt>
      <trkpt lat="41.7145490" lon="-5.2535340">
        <ele>729.7</ele>
        <time>2019-08-15T08:42:44Z</time>
      </trkpt>
      <trkpt lat="41.7146150" lon="-5.2535860">
        <ele>729.6</ele>
        <time>2019-08-15T08:42:45Z</time>
      </trkpt>
      <trkpt lat="41.7146810" lon="-5.2536360">
        <ele>729.5</ele>
        <time>2019-08-15T08:42:46Z</time>
      </trkpt>
      <trkpt lat="41.7147450" lon="-5.2536870">
        <ele>729.5</ele>
        <time>2019-08-15T08:42:47Z</time>
      </trkpt>
      <trkpt lat="41.7148080" lon="-5.2537370">
        <ele>729.4</ele>
        <time>2019-08-15T08:42:48Z</time>
      </trkpt>
      <trkpt lat="41.7148700" lon="-5.2537860">
        <ele>729.4</ele>
        <time>2019-08-15T08:42:49Z</time>
      </trkpt>
      <trkpt lat="41.7149310" lon="-5.2538340">
        <ele>729.4</ele>
        <time>2019-08-15T08:42:50Z</time>
      </trkpt>
      <trkpt lat="41.7149910" lon="-5.2538810">
        <ele>729.4</ele>
        <time>2019-08-15T08:42:51Z</time>
      </trkpt>
      <trkpt lat="41.7150480" lon="-5.2539260">
        <ele>729.4</ele>
        <time>2019-08-15T08:42:52Z</time>
      </trkpt>
      <trkpt lat="41.7151040" lon="-5.2539680">
        <ele>729.5</ele>
        <time>2019-08-15T08:42:53Z</time>
      </trkpt>
      <trkpt lat="41.7151570" lon="-5.2540090">
        <ele>729.7</ele>
        <time>2019-08-15T08:42:54Z</time>
      </trkpt>
      <trkpt lat="41.7152100" lon="-5.2540480">
        <ele>729.9</ele>
        <time>2019-08-15T08:42:55Z</time>
      </trkpt>
      <trkpt lat="41.7152610" lon="-5.2540880">
        <ele>730.2</ele>
        <time>2019-08-15T08:42:56Z</time>
      </trkpt>
      <trkpt lat="41.7153130" lon="-5.2541260">
        <ele>730.5</ele>
        <time>2019-08-15T08:42:57Z</time>
      </trkpt>
      <trkpt lat="41.7153620" lon="-5.2541640">
        <ele>730.7</ele>
        <time>2019-08-15T08:42:58Z</time>
      </trkpt>
      <trkpt lat="41.7154110" lon="-5.2541990">
        <ele>730.8</ele>
        <time>2019-08-15T08:42:59Z</time>
      </trkpt>
      <trkpt lat="41.7154570" lon="-5.2542330">
        <ele>730.9</ele>
        <time>2019-08-15T08:43:00Z</time>
      </trkpt>
      <trkpt lat="41.7155010" lon="-5.2542670">
        <ele>731.0</ele>
        <time>2019-08-15T08:43:01Z</time>
      </trkpt>
      <trkpt lat="41.7155440" lon="-5.2542980">
        <ele>731.1</ele>
        <time>2019-08-15T08:43:02Z</time>
      </trkpt>
      <trkpt lat="41.7155850" lon="-5.2543280">
        <ele>731.1</ele>
        <time>2019-08-15T08:43:03Z</time>
      </trkpt>
      <trkpt lat="41.7156260" lon="-5.2543580">
        <ele>731.0</ele>
        <time>2019-08-15T08:43:04Z</time>
      </trkpt>
      <trkpt lat="41.7156680" lon="-5.2543920">
        <ele>731.0</ele>
        <time>2019-08-15T08:43:05Z</time>
      </trkpt>
      <trkpt lat="41.7157110" lon="-5.2544290">
        <ele>730.9</ele>
        <time>2019-08-15T08:43:06Z</time>
      </trkpt>
      <trkpt lat="41.7157580" lon="-5.2544680">
        <ele>730.7</ele>
        <time>2019-08-15T08:43:07Z</time>
      </trkpt>
      <trkpt lat="41.7158070" lon="-5.2545090">
        <ele>730.5</ele>
        <time>2019-08-15T08:43:08Z</time>
      </trkpt>
      <trkpt lat="41.7158580" lon="-5.2545490">
        <ele>730.3</ele>
        <time>2019-08-15T08:43:09Z</time>
      </trkpt>
      <trkpt lat="41.7159110" lon="-5.2545890">
        <ele>730.1</ele>
        <time>2019-08-15T08:43:10Z</time>
      </trkpt>
      <trkpt lat="41.7159630" lon="-5.2546280">
        <ele>730.0</ele>
        <time>2019-08-15T08:43:11Z</time>
      </trkpt>
      <trkpt lat="41.7160140" lon="-5.2546670">
        <ele>729.8</ele>
        <time>2019-08-15T08:43:12Z</time>
      </trkpt>
      <trkpt lat="41.7160630" lon="-5.2547050">
        <ele>729.7</ele>
        <time>2019-08-15T08:43:13Z</time>
      </trkpt>
      <trkpt lat="41.7161100" lon="-5.2547420">
        <ele>729.6</ele>
        <time>2019-08-15T08:43:14Z</time>
      </trkpt>
      <trkpt lat="41.7161570" lon="-5.2547800">
        <ele>729.6</ele>
        <time>2019-08-15T08:43:15Z</time>
      </trkpt>
      <trkpt lat="41.7162040" lon="-5.2548230">
        <ele>729.5</ele>
        <time>2019-08-15T08:43:16Z</time>
      </trkpt>
      <trkpt lat="41.7162520" lon="-5.2548650">
        <ele>729.3</ele>
        <time>2019-08-15T08:43:17Z</time>
      </trkpt>
      <trkpt lat="41.7163020" lon="-5.2549050">
        <ele>729.3</ele>
        <time>2019-08-15T08:43:18Z</time>
      </trkpt>
      <trkpt lat="41.7163530" lon="-5.2549460">
        <ele>729.2</ele>
        <time>2019-08-15T08:43:19Z</time>
      </trkpt>
      <trkpt lat="41.7164050" lon="-5.2549870">
        <ele>729.2</ele>
        <time>2019-08-15T08:43:20Z</time>
      </trkpt>
      <trkpt lat="41.7164580" lon="-5.2550280">
        <ele>729.2</ele>
        <time>2019-08-15T08:43:21Z</time>
      </trkpt>
      <trkpt lat="41.7165110" lon="-5.2550660">
        <ele>729.2</ele>
        <time>2019-08-15T08:43:22Z</time>
      </trkpt>
      <trkpt lat="41.7165630" lon="-5.2551040">
        <ele>729.2</ele>
        <time>2019-08-15T08:43:23Z</time>
      </trkpt>
      <trkpt lat="41.7166140" lon="-5.2551420">
        <ele>729.3</ele>
        <time>2019-08-15T08:43:24Z</time>
      </trkpt>
      <trkpt lat="41.7166630" lon="-5.2551790">
        <ele>729.4</ele>
        <time>2019-08-15T08:43:25Z</time>
      </trkpt>
      <trkpt lat="41.7167090" lon="-5.2552140">
        <ele>729.4</ele>
        <time>2019-08-15T08:43:26Z</time>
      </trkpt>
      <trkpt lat="41.7167550" lon="-5.2552460">
        <ele>729.5</ele>
        <time>2019-08-15T08:43:27Z</time>
      </trkpt>
      <trkpt lat="41.7167970" lon="-5.2552780">
        <ele>729.7</ele>
        <time>2019-08-15T08:43:28Z</time>
      </trkpt>
      <trkpt lat="41.7168360" lon="-5.2553070">
        <ele>729.7</ele>
        <time>2019-08-15T08:43:29Z</time>
      </trkpt>
      <trkpt lat="41.7168760" lon="-5.2553280">
        <ele>729.8</ele>
        <time>2019-08-15T08:43:30Z</time>
      </trkpt>
      <trkpt lat="41.7169190" lon="-5.2553370">
        <ele>729.8</ele>
        <time>2019-08-15T08:43:31Z</time>
      </trkpt>
      <trkpt lat="41.7169630" lon="-5.2553300">
        <ele>729.9</ele>
        <time>2019-08-15T08:43:32Z</time>
      </trkpt>
      <trkpt lat="41.7170070" lon="-5.2553100">
        <ele>729.9</ele>
        <time>2019-08-15T08:43:33Z</time>
      </trkpt>
      <trkpt lat="41.7170510" lon="-5.2552860">
        <ele>730.0</ele>
        <time>2019-08-15T08:43:34Z</time>
      </trkpt>
      <trkpt lat="41.7170950" lon="-5.2552610">
        <ele>730.0</ele>
        <time>2019-08-15T08:43:35Z</time>
      </trkpt>
      <trkpt lat="41.7171380" lon="-5.2552380">
        <ele>730.0</ele>
        <time>2019-08-15T08:43:36Z</time>
      </trkpt>
      <trkpt lat="41.7171820" lon="-5.2552150">
        <ele>730.0</ele>
        <time>2019-08-15T08:43:37Z</time>
      </trkpt>
      <trkpt lat="41.7172270" lon="-5.2551910">
        <ele>729.9</ele>
        <time>2019-08-15T08:43:38Z</time>
      </trkpt>
      <trkpt lat="41.7172730" lon="-5.2551670">
        <ele>729.9</ele>
        <time>2019-08-15T08:43:39Z</time>
      </trkpt>
      <trkpt lat="41.7173190" lon="-5.2551440">
        <ele>729.8</ele>
        <time>2019-08-15T08:43:40Z</time>
      </trkpt>
      <trkpt lat="41.7173660" lon="-5.2551190">
        <ele>729.8</ele>
        <time>2019-08-15T08:43:41Z</time>
      </trkpt>
      <trkpt lat="41.7174150" lon="-5.2550970">
        <ele>729.7</ele>
        <time>2019-08-15T08:43:42Z</time>
      </trkpt>
      <trkpt lat="41.7174650" lon="-5.2550740">
        <ele>729.6</ele>
        <time>2019-08-15T08:43:43Z</time>
      </trkpt>
      <trkpt lat="41.7175130" lon="-5.2550510">
        <ele>729.5</ele>
        <time>2019-08-15T08:43:44Z</time>
      </trkpt>
      <trkpt lat="41.7175630" lon="-5.2550270">
        <ele>729.4</ele>
        <time>2019-08-15T08:43:45Z</time>
      </trkpt>
      <trkpt lat="41.7176120" lon="-5.2550020">
        <ele>729.2</ele>
        <time>2019-08-15T08:43:46Z</time>
      </trkpt>
      <trkpt lat="41.7176610" lon="-5.2549790">
        <ele>729.0</ele>
        <time>2019-08-15T08:43:47Z</time>
      </trkpt>
      <trkpt lat="41.7177130" lon="-5.2549560">
        <ele>728.8</ele>
        <time>2019-08-15T08:43:48Z</time>
      </trkpt>
      <trkpt lat="41.7177650" lon="-5.2549340">
        <ele>728.6</ele>
        <time>2019-08-15T08:43:49Z</time>
      </trkpt>
      <trkpt lat="41.7178170" lon="-5.2549110">
        <ele>728.4</ele>
        <time>2019-08-15T08:43:50Z</time>
      </trkpt>
      <trkpt lat="41.7178670" lon="-5.2548890">
        <ele>728.1</ele>
        <time>2019-08-15T08:43:51Z</time>
      </trkpt>
      <trkpt lat="41.7179170" lon="-5.2548690">
        <ele>727.9</ele>
        <time>2019-08-15T08:43:52Z</time>
      </trkpt>
      <trkpt lat="41.7179670" lon="-5.2548500">
        <ele>727.8</ele>
        <time>2019-08-15T08:43:53Z</time>
      </trkpt>
      <trkpt lat="41.7180120" lon="-5.2548290">
        <ele>727.6</ele>
        <time>2019-08-15T08:43:54Z</time>
      </trkpt>
      <trkpt lat="41.7180590" lon="-5.2548070">
        <ele>727.4</ele>
        <time>2019-08-15T08:43:55Z</time>
      </trkpt>
      <trkpt lat="41.7181060" lon="-5.2547910">
        <ele>727.3</ele>
        <time>2019-08-15T08:43:56Z</time>
      </trkpt>
      <trkpt lat="41.7181560" lon="-5.2547760">
        <ele>727.2</ele>
        <time>2019-08-15T08:43:57Z</time>
      </trkpt>
      <trkpt lat="41.7182060" lon="-5.2547650">
        <ele>727.1</ele>
        <time>2019-08-15T08:43:58Z</time>
      </trkpt>
      <trkpt lat="41.7182550" lon="-5.2547590">
        <ele>727.0</ele>
        <time>2019-08-15T08:43:59Z</time>
      </trkpt>
      <trkpt lat="41.7183020" lon="-5.2547670">
        <ele>727.0</ele>
        <time>2019-08-15T08:44:00Z</time>
      </trkpt>
      <trkpt lat="41.7183450" lon="-5.2547910">
        <ele>726.9</ele>
        <time>2019-08-15T08:44:01Z</time>
      </trkpt>
      <trkpt lat="41.7183810" lon="-5.2548290">
        <ele>726.8</ele>
        <time>2019-08-15T08:44:02Z</time>
      </trkpt>
      <trkpt lat="41.7184110" lon="-5.2548750">
        <ele>726.9</ele>
        <time>2019-08-15T08:44:03Z</time>
      </trkpt>
      <trkpt lat="41.7184360" lon="-5.2549280">
        <ele>726.9</ele>
        <time>2019-08-15T08:44:04Z</time>
      </trkpt>
      <trkpt lat="41.7184580" lon="-5.2549840">
        <ele>726.9</ele>
        <time>2019-08-15T08:44:05Z</time>
      </trkpt>
      <trkpt lat="41.7184780" lon="-5.2550430">
        <ele>727.0</ele>
        <time>2019-08-15T08:44:06Z</time>
      </trkpt>
      <trkpt lat="41.7184980" lon="-5.2551030">
        <ele>727.1</ele>
        <time>2019-08-15T08:44:07Z</time>
      </trkpt>
      <trkpt lat="41.7185170" lon="-5.2551640">
        <ele>727.3</ele>
        <time>2019-08-15T08:44:08Z</time>
      </trkpt>
      <trkpt lat="41.7185370" lon="-5.2552240">
        <ele>727.4</ele>
        <time>2019-08-15T08:44:09Z</time>
      </trkpt>
      <trkpt lat="41.7185570" lon="-5.2552820">
        <ele>727.6</ele>
        <time>2019-08-15T08:44:10Z</time>
      </trkpt>
      <trkpt lat="41.7185770" lon="-5.2553380">
        <ele>727.7</ele>
        <time>2019-08-15T08:44:11Z</time>
      </trkpt>
      <trkpt lat="41.7185980" lon="-5.2553950">
        <ele>727.9</ele>
        <time>2019-08-15T08:44:12Z</time>
      </trkpt>
      <trkpt lat="41.7186200" lon="-5.2554510">
        <ele>728.1</ele>
        <time>2019-08-15T08:44:13Z</time>
      </trkpt>
      <trkpt lat="41.7186420" lon="-5.2555070">
        <ele>728.3</ele>
        <time>2019-08-15T08:44:14Z</time>
      </trkpt>
      <trkpt lat="41.7186630" lon="-5.2555640">
        <ele>728.4</ele>
        <time>2019-08-15T08:44:15Z</time>
      </trkpt>
      <trkpt lat="41.7186830" lon="-5.2556220">
        <ele>728.5</ele>
        <time>2019-08-15T08:44:16Z</time>
      </trkpt>
      <trkpt lat="41.7187050" lon="-5.2556810">
        <ele>728.6</ele>
        <time>2019-08-15T08:44:17Z</time>
      </trkpt>
      <trkpt lat="41.7187260" lon="-5.2557400">
        <ele>728.7</ele>
        <time>2019-08-15T08:44:18Z</time>
      </trkpt>
      <trkpt lat="41.7187480" lon="-5.2557970">
        <ele>728.8</ele>
        <time>2019-08-15T08:44:19Z</time>
      </trkpt>
      <trkpt lat="41.7187700" lon="-5.2558550">
        <ele>728.8</ele>
        <time>2019-08-15T08:44:20Z</time>
      </trkpt>
      <trkpt lat="41.7187920" lon="-5.2559120">
        <ele>728.7</ele>
        <time>2019-08-15T08:44:21Z</time>
      </trkpt>
      <trkpt lat="41.7188140" lon="-5.2559700">
        <ele>728.7</ele>
        <time>2019-08-15T08:44:22Z</time>
      </trkpt>
      <trkpt lat="41.7188380" lon="-5.2560270">
        <ele>728.5</ele>
        <time>2019-08-15T08:44:23Z</time>
      </trkpt>
      <trkpt lat="41.7188610" lon="-5.2560850">
        <ele>728.4</ele>
        <time>2019-08-15T08:44:24Z</time>
      </trkpt>
      <trkpt lat="41.7188820" lon="-5.2561430">
        <ele>728.3</ele>
        <time>2019-08-15T08:44:25Z</time>
      </trkpt>
      <trkpt lat="41.7189030" lon="-5.2562000">
        <ele>728.2</ele>
        <time>2019-08-15T08:44:26Z</time>
      </trkpt>
      <trkpt lat="41.7189230" lon="-5.2562570">
        <ele>728.0</ele>
        <time>2019-08-15T08:44:27Z</time>
      </trkpt>
      <trkpt lat="41.7189440" lon="-5.2563130">
        <ele>727.8</ele>
        <time>2019-08-15T08:44:28Z</time>
      </trkpt>
      <trkpt lat="41.7189660" lon="-5.2563690">
        <ele>727.7</ele>
        <time>2019-08-15T08:44:29Z</time>
      </trkpt>
      <trkpt lat="41.7189880" lon="-5.2564220">
        <ele>727.6</ele>
        <time>2019-08-15T08:44:30Z</time>
      </trkpt>
      <trkpt lat="41.7190110" lon="-5.2564760">
        <ele>727.4</ele>
        <time>2019-08-15T08:44:31Z</time>
      </trkpt>
      <trkpt lat="41.7190350" lon="-5.2565320">
        <ele>727.4</ele>
        <time>2019-08-15T08:44:32Z</time>
      </trkpt>
      <trkpt lat="41.7190600" lon="-5.2565860">
        <ele>727.3</ele>
        <time>2019-08-15T08:44:33Z</time>
      </trkpt>
      <trkpt lat="41.7190870" lon="-5.2566380">
        <ele>727.2</ele>
        <time>2019-08-15T08:44:34Z</time>
      </trkpt>
      <trkpt lat="41.7191170" lon="-5.2566880">
        <ele>727.1</ele>
        <time>2019-08-15T08:44:35Z</time>
      </trkpt>
      <trkpt lat="41.7191480" lon="-5.2567340">
        <ele>727.0</ele>
        <time>2019-08-15T08:44:36Z</time>
      </trkpt>
      <trkpt lat="41.7191830" lon="-5.2567760">
        <ele>726.9</ele>
        <time>2019-08-15T08:44:37Z</time>
      </trkpt>
      <trkpt lat="41.7192170" lon="-5.2568160">
        <ele>726.9</ele>
        <time>2019-08-15T08:44:38Z</time>
      </trkpt>
      <trkpt lat="41.7192490" lon="-5.2568560">
        <ele>726.8</ele>
        <time>2019-08-15T08:44:39Z</time>
      </trkpt>
      <trkpt lat="41.7192790" lon="-5.2568940">
        <ele>726.7</ele>
        <time>2019-08-15T08:44:40Z</time>
      </trkpt>
      <trkpt lat="41.7193070" lon="-5.2569330">
        <ele>726.7</ele>
        <time>2019-08-15T08:44:41Z</time>
      </trkpt>
      <trkpt lat="41.7193320" lon="-5.2569680">
        <ele>726.6</ele>
        <time>2019-08-15T08:44:42Z</time>
      </trkpt>
      <trkpt lat="41.7193530" lon="-5.2570000">
        <ele>726.6</ele>
        <time>2019-08-15T08:44:43Z</time>
      </trkpt>
      <trkpt lat="41.7193730" lon="-5.2570260">
        <ele>726.6</ele>
        <time>2019-08-15T08:44:44Z</time>
      </trkpt>
      <trkpt lat="41.7193930" lon="-5.2570420">
        <ele>726.6</ele>
        <time>2019-08-15T08:44:45Z</time>
      </trkpt>
      <trkpt lat="41.7194300" lon="-5.2570660">
        <ele>726.3</ele>
        <time>2019-08-15T08:44:47Z</time>
      </trkpt>
      <trkpt lat="41.7194700" lon="-5.2571150">
        <ele>726.3</ele>
        <time>2019-08-15T08:44:49Z</time>
      </trkpt>
      <trkpt lat="41.7194900" lon="-5.2571540">
        <ele>726.2</ele>
        <time>2019-08-15T08:44:50Z</time>
      </trkpt>
      <trkpt lat="41.7195080" lon="-5.2572000">
        <ele>726.2</ele>
        <time>2019-08-15T08:44:51Z</time>
      </trkpt>
      <trkpt lat="41.7195270" lon="-5.2572500">
        <ele>726.2</ele>
        <time>2019-08-15T08:44:52Z</time>
      </trkpt>
      <trkpt lat="41.7195470" lon="-5.2573010">
        <ele>726.1</ele>
        <time>2019-08-15T08:44:53Z</time>
      </trkpt>
      <trkpt lat="41.7195700" lon="-5.2573560">
        <ele>726.1</ele>
        <time>2019-08-15T08:44:54Z</time>
      </trkpt>
      <trkpt lat="41.7195940" lon="-5.2574120">
        <ele>726.0</ele>
        <time>2019-08-15T08:44:55Z</time>
      </trkpt>
      <trkpt lat="41.7196210" lon="-5.2574740">
        <ele>726.0</ele>
        <time>2019-08-15T08:44:56Z</time>
      </trkpt>
      <trkpt lat="41.7196480" lon="-5.2575360">
        <ele>725.9</ele>
        <time>2019-08-15T08:44:57Z</time>
      </trkpt>
      <trkpt lat="41.7196770" lon="-5.2575980">
        <ele>725.9</ele>
        <time>2019-08-15T08:44:58Z</time>
      </trkpt>
      <trkpt lat="41.7197040" lon="-5.2576590">
        <ele>726.0</ele>
        <time>2019-08-15T08:44:59Z</time>
      </trkpt>
      <trkpt lat="41.7197310" lon="-5.2577170">
        <ele>726.0</ele>
        <time>2019-08-15T08:45:00Z</time>
      </trkpt>
      <trkpt lat="41.7197560" lon="-5.2577780">
        <ele>726.0</ele>
        <time>2019-08-15T08:45:01Z</time>
      </trkpt>
      <trkpt lat="41.7197810" lon="-5.2578400">
        <ele>726.1</ele>
        <time>2019-08-15T08:45:02Z</time>
      </trkpt>
      <trkpt lat="41.7198070" lon="-5.2579040">
        <ele>726.3</ele>
        <time>2019-08-15T08:45:03Z</time>
      </trkpt>
      <trkpt lat="41.7198340" lon="-5.2579680">
        <ele>726.4</ele>
        <time>2019-08-15T08:45:04Z</time>
      </trkpt>
      <trkpt lat="41.7198620" lon="-5.2580340">
        <ele>726.5</ele>
        <time>2019-08-15T08:45:05Z</time>
      </trkpt>
      <trkpt lat="41.7198890" lon="-5.2580960">
        <ele>726.6</ele>
        <time>2019-08-15T08:45:06Z</time>
      </trkpt>
      <trkpt lat="41.7199160" lon="-5.2581580">
        <ele>726.8</ele>
        <time>2019-08-15T08:45:07Z</time>
      </trkpt>
      <trkpt lat="41.7199460" lon="-5.2582190">
        <ele>726.9</ele>
        <time>2019-08-15T08:45:08Z</time>
      </trkpt>
      <trkpt lat="41.7199760" lon="-5.2582790">
        <ele>727.1</ele>
        <time>2019-08-15T08:45:09Z</time>
      </trkpt>
      <trkpt lat="41.7200070" lon="-5.2583400">
        <ele>727.3</ele>
        <time>2019-08-15T08:45:10Z</time>
      </trkpt>
      <trkpt lat="41.7200350" lon="-5.2583990">
        <ele>727.6</ele>
        <time>2019-08-15T08:45:11Z</time>
      </trkpt>
      <trkpt lat="41.7200610" lon="-5.2584560">
        <ele>727.8</ele>
        <time>2019-08-15T08:45:12Z</time>
      </trkpt>
      <trkpt lat="41.7200840" lon="-5.2585110">
        <ele>728.0</ele>
        <time>2019-08-15T08:45:13Z</time>
      </trkpt>
      <trkpt lat="41.7201040" lon="-5.2585600">
        <ele>728.3</ele>
        <time>2019-08-15T08:45:14Z</time>
      </trkpt>
      <trkpt lat="41.7201230" lon="-5.2586050">
        <ele>728.5</ele>
        <time>2019-08-15T08:45:15Z</time>
      </trkpt>
      <trkpt lat="41.7201400" lon="-5.2586470">
        <ele>728.7</ele>
        <time>2019-08-15T08:45:16Z</time>
      </trkpt>
      <trkpt lat="41.7201580" lon="-5.2586860">
        <ele>728.9</ele>
        <time>2019-08-15T08:45:17Z</time>
      </trkpt>
      <trkpt lat="41.7201740" lon="-5.2587210">
        <ele>729.0</ele>
        <time>2019-08-15T08:45:18Z</time>
      </trkpt>
      <trkpt lat="41.7201870" lon="-5.2587510">
        <ele>729.2</ele>
        <time>2019-08-15T08:45:19Z</time>
      </trkpt>
      <trkpt lat="41.7202120" lon="-5.2588100">
        <ele>729.4</ele>
        <time>2019-08-15T08:45:21Z</time>
      </trkpt>
      <trkpt lat="41.7202390" lon="-5.2588750">
        <ele>729.6</ele>
        <time>2019-08-15T08:45:23Z</time>
      </trkpt>
      <trkpt lat="41.7202520" lon="-5.2589080">
        <ele>729.8</ele>
        <time>2019-08-15T08:45:24Z</time>
      </trkpt>
      <trkpt lat="41.7202650" lon="-5.2589410">
        <ele>729.9</ele>
        <time>2019-08-15T08:45:25Z</time>
      </trkpt>
      <trkpt lat="41.7202800" lon="-5.2589720">
        <ele>730.0</ele>
        <time>2019-08-15T08:45:26Z</time>
      </trkpt>
      <trkpt lat="41.7202930" lon="-5.2590050">
        <ele>730.0</ele>
        <time>2019-08-15T08:45:27Z</time>
      </trkpt>
      <trkpt lat="41.7203060" lon="-5.2590420">
        <ele>730.1</ele>
        <time>2019-08-15T08:45:28Z</time>
      </trkpt>
      <trkpt lat="41.7203210" lon="-5.2590810">
        <ele>730.1</ele>
        <time>2019-08-15T08:45:29Z</time>
      </trkpt>
      <trkpt lat="41.7203370" lon="-5.2591190">
        <ele>730.2</ele>
        <time>2019-08-15T08:45:30Z</time>
      </trkpt>
      <trkpt lat="41.7203540" lon="-5.2591570">
        <ele>730.3</ele>
        <time>2019-08-15T08:45:31Z</time>
      </trkpt>
      <trkpt lat="41.7203720" lon="-5.2591960">
        <ele>730.3</ele>
        <time>2019-08-15T08:45:32Z</time>
      </trkpt>
      <trkpt lat="41.7203900" lon="-5.2592360">
        <ele>730.4</ele>
        <time>2019-08-15T08:45:33Z</time>
      </trkpt>
      <trkpt lat="41.7204090" lon="-5.2592780">
        <ele>730.4</ele>
        <time>2019-08-15T08:45:34Z</time>
      </trkpt>
      <trkpt lat="41.7204290" lon="-5.2593220">
        <ele>730.4</ele>
        <time>2019-08-15T08:45:35Z</time>
      </trkpt>
      <trkpt lat="41.7204490" lon="-5.2593680">
        <ele>730.4</ele>
        <time>2019-08-15T08:45:36Z</time>
      </trkpt>
      <trkpt lat="41.7204700" lon="-5.2594170">
        <ele>730.5</ele>
        <time>2019-08-15T08:45:37Z</time>
      </trkpt>
      <trkpt lat="41.7204910" lon="-5.2594660">
        <ele>730.5</ele>
        <time>2019-08-15T08:45:38Z</time>
      </trkpt>
      <trkpt lat="41.7205140" lon="-5.2595160">
        <ele>730.5</ele>
        <time>2019-08-15T08:45:39Z</time>
      </trkpt>
      <trkpt lat="41.7205360" lon="-5.2595650">
        <ele>730.4</ele>
        <time>2019-08-15T08:45:40Z</time>
      </trkpt>
      <trkpt lat="41.7205590" lon="-5.2596130">
        <ele>730.5</ele>
        <time>2019-08-15T08:45:41Z</time>
      </trkpt>
      <trkpt lat="41.7205820" lon="-5.2596600">
        <ele>730.5</ele>
        <time>2019-08-15T08:45:42Z</time>
      </trkpt>
      <trkpt lat="41.7206060" lon="-5.2597080">
        <ele>730.5</ele>
        <time>2019-08-15T08:45:43Z</time>
      </trkpt>
      <trkpt lat="41.7206300" lon="-5.2597610">
        <ele>730.4</ele>
        <time>2019-08-15T08:45:44Z</time>
      </trkpt>
      <trkpt lat="41.7206530" lon="-5.2598160">
        <ele>730.5</ele>
        <time>2019-08-15T08:45:45Z</time>
      </trkpt>
      <trkpt lat="41.7206770" lon="-5.2598730">
        <ele>730.5</ele>
        <time>2019-08-15T08:45:46Z</time>
      </trkpt>
      <trkpt lat="41.7207020" lon="-5.2599300">
        <ele>730.4</ele>
        <time>2019-08-15T08:45:47Z</time>
      </trkpt>
      <trkpt lat="41.7207270" lon="-5.2599890">
        <ele>730.4</ele>
        <time>2019-08-15T08:45:48Z</time>
      </trkpt>
      <trkpt lat="41.7207500" lon="-5.2600490">
        <ele>730.4</ele>
        <time>2019-08-15T08:45:49Z</time>
      </trkpt>
      <trkpt lat="41.7207750" lon="-5.2601080">
        <ele>730.5</ele>
        <time>2019-08-15T08:45:50Z</time>
      </trkpt>
      <trkpt lat="41.7208020" lon="-5.2601670">
        <ele>730.7</ele>
        <time>2019-08-15T08:45:51Z</time>
      </trkpt>
      <trkpt lat="41.7208280" lon="-5.2602250">
        <ele>730.8</ele>
        <time>2019-08-15T08:45:52Z</time>
      </trkpt>
      <trkpt lat="41.7208540" lon="-5.2602830">
        <ele>730.8</ele>
        <time>2019-08-15T08:45:53Z</time>
      </trkpt>
      <trkpt lat="41.7208790" lon="-5.2603410">
        <ele>731.0</ele>
        <time>2019-08-15T08:45:54Z</time>
      </trkpt>
      <trkpt lat="41.7209040" lon="-5.2603990">
        <ele>731.2</ele>
        <time>2019-08-15T08:45:55Z</time>
      </trkpt>
      <trkpt lat="41.7209280" lon="-5.2604560">
        <ele>731.2</ele>
        <time>2019-08-15T08:45:56Z</time>
      </trkpt>
      <trkpt lat="41.7209530" lon="-5.2605120">
        <ele>731.3</ele>
        <time>2019-08-15T08:45:57Z</time>
      </trkpt>
      <trkpt lat="41.7209770" lon="-5.2605670">
        <ele>731.4</ele>
        <time>2019-08-15T08:45:58Z</time>
      </trkpt>
      <trkpt lat="41.7210010" lon="-5.2606200">
        <ele>731.4</ele>
        <time>2019-08-15T08:45:59Z</time>
      </trkpt>
      <trkpt lat="41.7210250" lon="-5.2606720">
        <ele>731.5</ele>
        <time>2019-08-15T08:46:00Z</time>
      </trkpt>
      <trkpt lat="41.7210480" lon="-5.2607240">
        <ele>731.5</ele>
        <time>2019-08-15T08:46:01Z</time>
      </trkpt>
      <trkpt lat="41.7210710" lon="-5.2607750">
        <ele>731.4</ele>
        <time>2019-08-15T08:46:02Z</time>
      </trkpt>
      <trkpt lat="41.7210940" lon="-5.2608260">
        <ele>731.3</ele>
        <time>2019-08-15T08:46:03Z</time>
      </trkpt>
      <trkpt lat="41.7211190" lon="-5.2608770">
        <ele>731.2</ele>
        <time>2019-08-15T08:46:04Z</time>
      </trkpt>
      <trkpt lat="41.7211430" lon="-5.2609280">
        <ele>731.0</ele>
        <time>2019-08-15T08:46:05Z</time>
      </trkpt>
      <trkpt lat="41.7211670" lon="-5.2609780">
        <ele>730.7</ele>
        <time>2019-08-15T08:46:06Z</time>
      </trkpt>
      <trkpt lat="41.7211920" lon="-5.2610290">
        <ele>730.5</ele>
        <time>2019-08-15T08:46:07Z</time>
      </trkpt>
      <trkpt lat="41.7212170" lon="-5.2610830">
        <ele>730.3</ele>
        <time>2019-08-15T08:46:08Z</time>
      </trkpt>
      <trkpt lat="41.7212410" lon="-5.2611420">
        <ele>730.0</ele>
        <time>2019-08-15T08:46:09Z</time>
      </trkpt>
      <trkpt lat="41.7212640" lon="-5.2612010">
        <ele>729.8</ele>
        <time>2019-08-15T08:46:10Z</time>
      </trkpt>
      <trkpt lat="41.7212890" lon="-5.2612620">
        <ele>729.4</ele>
        <time>2019-08-15T08:46:11Z</time>
      </trkpt>
      <trkpt lat="41.7213160" lon="-5.2613210">
        <ele>729.1</ele>
        <time>2019-08-15T08:46:12Z</time>
      </trkpt>
      <trkpt lat="41.7213430" lon="-5.2613790">
        <ele>729.0</ele>
        <time>2019-08-15T08:46:13Z</time>
      </trkpt>
      <trkpt lat="41.7213690" lon="-5.2614350">
        <ele>728.8</ele>
        <time>2019-08-15T08:46:14Z</time>
      </trkpt>
      <trkpt lat="41.7213940" lon="-5.2614890">
        <ele>728.6</ele>
        <time>2019-08-15T08:46:15Z</time>
      </trkpt>
      <trkpt lat="41.7214190" lon="-5.2615410">
        <ele>728.5</ele>
        <time>2019-08-15T08:46:16Z</time>
      </trkpt>
      <trkpt lat="41.7214430" lon="-5.2615910">
        <ele>728.4</ele>
        <time>2019-08-15T08:46:17Z</time>
      </trkpt>
      <trkpt lat="41.7214670" lon="-5.2616460">
        <ele>728.4</ele>
        <time>2019-08-15T08:46:18Z</time>
      </trkpt>
      <trkpt lat="41.7214920" lon="-5.2617030">
        <ele>728.3</ele>
        <time>2019-08-15T08:46:19Z</time>
      </trkpt>
      <trkpt lat="41.7215170" lon="-5.2617610">
        <ele>728.3</ele>
        <time>2019-08-15T08:46:20Z</time>
      </trkpt>
      <trkpt lat="41.7215440" lon="-5.2618200">
        <ele>728.2</ele>
        <time>2019-08-15T08:46:21Z</time>
      </trkpt>
      <trkpt lat="41.7215720" lon="-5.2618820">
        <ele>728.2</ele>
        <time>2019-08-15T08:46:22Z</time>
      </trkpt>
      <trkpt lat="41.7215980" lon="-5.2619430">
        <ele>728.2</ele>
        <time>2019-08-15T08:46:23Z</time>
      </trkpt>
      <trkpt lat="41.7216240" lon="-5.2620000">
        <ele>728.2</ele>
        <time>2019-08-15T08:46:24Z</time>
      </trkpt>
      <trkpt lat="41.7216490" lon="-5.2620560">
        <ele>728.2</ele>
        <time>2019-08-15T08:46:25Z</time>
      </trkpt>
      <trkpt lat="41.7216730" lon="-5.2621090">
        <ele>728.1</ele>
        <time>2019-08-15T08:46:26Z</time>
      </trkpt>
      <trkpt lat="41.7216960" lon="-5.2621630">
        <ele>728.1</ele>
        <time>2019-08-15T08:46:27Z</time>
      </trkpt>
      <trkpt lat="41.7217200" lon="-5.2622180">
        <ele>728.1</ele>
        <time>2019-08-15T08:46:28Z</time>
      </trkpt>
      <trkpt lat="41.7217450" lon="-5.2622730">
        <ele>728.1</ele>
        <time>2019-08-15T08:46:29Z</time>
      </trkpt>
      <trkpt lat="41.7217720" lon="-5.2623300">
        <ele>728.0</ele>
        <time>2019-08-15T08:46:30Z</time>
      </trkpt>
      <trkpt lat="41.7217990" lon="-5.2623880">
        <ele>728.0</ele>
        <time>2019-08-15T08:46:31Z</time>
      </trkpt>
      <trkpt lat="41.7218280" lon="-5.2624490">
        <ele>727.9</ele>
        <time>2019-08-15T08:46:32Z</time>
      </trkpt>
      <trkpt lat="41.7218560" lon="-5.2625140">
        <ele>727.8</ele>
        <time>2019-08-15T08:46:33Z</time>
      </trkpt>
      <trkpt lat="41.7218840" lon="-5.2625810">
        <ele>727.7</ele>
        <time>2019-08-15T08:46:34Z</time>
      </trkpt>
      <trkpt lat="41.7219110" lon="-5.2626440">
        <ele>727.6</ele>
        <time>2019-08-15T08:46:35Z</time>
      </trkpt>
      <trkpt lat="41.7219370" lon="-5.2627080">
        <ele>727.4</ele>
        <time>2019-08-15T08:46:36Z</time>
      </trkpt>
      <trkpt lat="41.7219630" lon="-5.2627690">
        <ele>727.3</ele>
        <time>2019-08-15T08:46:37Z</time>
      </trkpt>
      <trkpt lat="41.7219880" lon="-5.2628270">
        <ele>727.2</ele>
        <time>2019-08-15T08:46:38Z</time>
      </trkpt>
      <trkpt lat="41.7220130" lon="-5.2628840">
        <ele>727.1</ele>
        <time>2019-08-15T08:46:39Z</time>
      </trkpt>
      <trkpt lat="41.7220400" lon="-5.2629420">
        <ele>727.0</ele>
        <time>2019-08-15T08:46:40Z</time>
      </trkpt>
      <trkpt lat="41.7220650" lon="-5.2629990">
        <ele>726.9</ele>
        <time>2019-08-15T08:46:41Z</time>
      </trkpt>
      <trkpt lat="41.7220920" lon="-5.2630580">
        <ele>726.9</ele>
        <time>2019-08-15T08:46:42Z</time>
      </trkpt>
      <trkpt lat="41.7221180" lon="-5.2631150">
        <ele>726.9</ele>
        <time>2019-08-15T08:46:43Z</time>
      </trkpt>
      <trkpt lat="41.7221440" lon="-5.2631690">
        <ele>726.9</ele>
        <time>2019-08-15T08:46:44Z</time>
      </trkpt>
      <trkpt lat="41.7221670" lon="-5.2632220">
        <ele>726.9</ele>
        <time>2019-08-15T08:46:45Z</time>
      </trkpt>
      <trkpt lat="41.7221920" lon="-5.2632760">
        <ele>726.8</ele>
        <time>2019-08-15T08:46:46Z</time>
      </trkpt>
      <trkpt lat="41.7222180" lon="-5.2633290">
        <ele>726.8</ele>
        <time>2019-08-15T08:46:47Z</time>
      </trkpt>
      <trkpt lat="41.7222430" lon="-5.2633830">
        <ele>726.9</ele>
        <time>2019-08-15T08:46:48Z</time>
      </trkpt>
      <trkpt lat="41.7222690" lon="-5.2634400">
        <ele>726.9</ele>
        <time>2019-08-15T08:46:49Z</time>
      </trkpt>
      <trkpt lat="41.7222950" lon="-5.2634950">
        <ele>726.9</ele>
        <time>2019-08-15T08:46:50Z</time>
      </trkpt>
      <trkpt lat="41.7223200" lon="-5.2635510">
        <ele>727.0</ele>
        <time>2019-08-15T08:46:51Z</time>
      </trkpt>
      <trkpt lat="41.7223440" lon="-5.2636050">
        <ele>727.0</ele>
        <time>2019-08-15T08:46:52Z</time>
      </trkpt>
      <trkpt lat="41.7223660" lon="-5.2636570">
        <ele>727.1</ele>
        <time>2019-08-15T08:46:53Z</time>
      </trkpt>
      <trkpt lat="41.7223870" lon="-5.2637090">
        <ele>727.1</ele>
        <time>2019-08-15T08:46:54Z</time>
      </trkpt>
      <trkpt lat="41.7224100" lon="-5.2637620">
        <ele>727.1</ele>
        <time>2019-08-15T08:46:55Z</time>
      </trkpt>
      <trkpt lat="41.7224350" lon="-5.2638160">
        <ele>727.1</ele>
        <time>2019-08-15T08:46:56Z</time>
      </trkpt>
      <trkpt lat="41.7224600" lon="-5.2638720">
        <ele>727.1</ele>
        <time>2019-08-15T08:46:57Z</time>
      </trkpt>
      <trkpt lat="41.7224850" lon="-5.2639290">
        <ele>727.0</ele>
        <time>2019-08-15T08:46:58Z</time>
      </trkpt>
      <trkpt lat="41.7225090" lon="-5.2639850">
        <ele>726.9</ele>
        <time>2019-08-15T08:46:59Z</time>
      </trkpt>
      <trkpt lat="41.7225350" lon="-5.2640410">
        <ele>726.9</ele>
        <time>2019-08-15T08:47:00Z</time>
      </trkpt>
      <trkpt lat="41.7225580" lon="-5.2641000">
        <ele>726.8</ele>
        <time>2019-08-15T08:47:01Z</time>
      </trkpt>
      <trkpt lat="41.7225810" lon="-5.2641550">
        <ele>726.7</ele>
        <time>2019-08-15T08:47:02Z</time>
      </trkpt>
      <trkpt lat="41.7226040" lon="-5.2642110">
        <ele>726.6</ele>
        <time>2019-08-15T08:47:03Z</time>
      </trkpt>
      <trkpt lat="41.7226290" lon="-5.2642680">
        <ele>726.5</ele>
        <time>2019-08-15T08:47:04Z</time>
      </trkpt>
      <trkpt lat="41.7226540" lon="-5.2643260">
        <ele>726.4</ele>
        <time>2019-08-15T08:47:05Z</time>
      </trkpt>
      <trkpt lat="41.7226800" lon="-5.2643850">
        <ele>726.4</ele>
        <time>2019-08-15T08:47:06Z</time>
      </trkpt>
      <trkpt lat="41.7227060" lon="-5.2644480">
        <ele>726.3</ele>
        <time>2019-08-15T08:47:07Z</time>
      </trkpt>
      <trkpt lat="41.7227340" lon="-5.2645130">
        <ele>726.2</ele>
        <time>2019-08-15T08:47:08Z</time>
      </trkpt>
      <trkpt lat="41.7227620" lon="-5.2645790">
        <ele>726.2</ele>
        <time>2019-08-15T08:47:09Z</time>
      </trkpt>
      <trkpt lat="41.7227900" lon="-5.2646450">
        <ele>726.1</ele>
        <time>2019-08-15T08:47:10Z</time>
      </trkpt>
      <trkpt lat="41.7228190" lon="-5.2647110">
        <ele>726.1</ele>
        <time>2019-08-15T08:47:11Z</time>
      </trkpt>
      <trkpt lat="41.7228490" lon="-5.2647780">
        <ele>726.0</ele>
        <time>2019-08-15T08:47:12Z</time>
      </trkpt>
      <trkpt lat="41.7228800" lon="-5.2648480">
        <ele>726.0</ele>
        <time>2019-08-15T08:47:13Z</time>
      </trkpt>
      <trkpt lat="41.7229110" lon="-5.2649190">
        <ele>726.0</ele>
        <time>2019-08-15T08:47:14Z</time>
      </trkpt>
      <trkpt lat="41.7229430" lon="-5.2649910">
        <ele>725.8</ele>
        <time>2019-08-15T08:47:15Z</time>
      </trkpt>
      <trkpt lat="41.7229740" lon="-5.2650610">
        <ele>725.7</ele>
        <time>2019-08-15T08:47:16Z</time>
      </trkpt>
      <trkpt lat="41.7230050" lon="-5.2651310">
        <ele>725.6</ele>
        <time>2019-08-15T08:47:17Z</time>
      </trkpt>
      <trkpt lat="41.7230350" lon="-5.2652010">
        <ele>725.5</ele>
        <time>2019-08-15T08:47:18Z</time>
      </trkpt>
      <trkpt lat="41.7230660" lon="-5.2652730">
        <ele>725.3</ele>
        <time>2019-08-15T08:47:19Z</time>
      </trkpt>
      <trkpt lat="41.7230980" lon="-5.2653460">
        <ele>725.2</ele>
        <time>2019-08-15T08:47:20Z</time>
      </trkpt>
      <trkpt lat="41.7231300" lon="-5.2654200">
        <ele>725.1</ele>
        <time>2019-08-15T08:47:21Z</time>
      </trkpt>
      <trkpt lat="41.7231620" lon="-5.2654940">
        <ele>725.0</ele>
        <time>2019-08-15T08:47:22Z</time>
      </trkpt>
      <trkpt lat="41.7231940" lon="-5.2655670">
        <ele>724.9</ele>
        <time>2019-08-15T08:47:23Z</time>
      </trkpt>
      <trkpt lat="41.7232240" lon="-5.2656400">
        <ele>724.8</ele>
        <time>2019-08-15T08:47:24Z</time>
      </trkpt>
      <trkpt lat="41.7232540" lon="-5.2657120">
        <ele>724.7</ele>
        <time>2019-08-15T08:47:25Z</time>
      </trkpt>
      <trkpt lat="41.7232850" lon="-5.2657850">
        <ele>724.6</ele>
        <time>2019-08-15T08:47:26Z</time>
      </trkpt>
      <trkpt lat="41.7233170" lon="-5.2658600">
        <ele>724.6</ele>
        <time>2019-08-15T08:47:27Z</time>
      </trkpt>
      <trkpt lat="41.7233490" lon="-5.2659330">
        <ele>724.5</ele>
        <time>2019-08-15T08:47:28Z</time>
      </trkpt>
      <trkpt lat="41.7233820" lon="-5.2660060">
        <ele>724.4</ele>
        <time>2019-08-15T08:47:29Z</time>
      </trkpt>
      <trkpt lat="41.7234140" lon="-5.2660790">
        <ele>724.3</ele>
        <time>2019-08-15T08:47:30Z</time>
      </trkpt>
      <trkpt lat="41.7234460" lon="-5.2661530">
        <ele>724.3</ele>
        <time>2019-08-15T08:47:31Z</time>
      </trkpt>
      <trkpt lat="41.7234780" lon="-5.2662280">
        <ele>724.1</ele>
        <time>2019-08-15T08:47:32Z</time>
      </trkpt>
      <trkpt lat="41.7235100" lon="-5.2663030">
        <ele>724.0</ele>
        <time>2019-08-15T08:47:33Z</time>
      </trkpt>
      <trkpt lat="41.7235410" lon="-5.2663790">
        <ele>723.9</ele>
        <time>2019-08-15T08:47:34Z</time>
      </trkpt>
      <trkpt lat="41.7235730" lon="-5.2664560">
        <ele>723.7</ele>
        <time>2019-08-15T08:47:35Z</time>
      </trkpt>
      <trkpt lat="41.7236080" lon="-5.2665320">
        <ele>723.6</ele>
        <time>2019-08-15T08:47:36Z</time>
      </trkpt>
      <trkpt lat="41.7236430" lon="-5.2666080">
        <ele>723.5</ele>
        <time>2019-08-15T08:47:37Z</time>
      </trkpt>
      <trkpt lat="41.7236780" lon="-5.2666840">
        <ele>723.4</ele>
        <time>2019-08-15T08:47:38Z</time>
      </trkpt>
      <trkpt lat="41.7237130" lon="-5.2667600">
        <ele>723.3</ele>
        <time>2019-08-15T08:47:39Z</time>
      </trkpt>
      <trkpt lat="41.7237480" lon="-5.2668380">
        <ele>723.2</ele>
        <time>2019-08-15T08:47:40Z</time>
      </trkpt>
      <trkpt lat="41.7237830" lon="-5.2669170">
        <ele>723.2</ele>
        <time>2019-08-15T08:47:41Z</time>
      </trkpt>
      <trkpt lat="41.7238170" lon="-5.2669930">
        <ele>723.1</ele>
        <time>2019-08-15T08:47:42Z</time>
      </trkpt>
      <trkpt lat="41.7238520" lon="-5.2670690">
        <ele>723.1</ele>
        <time>2019-08-15T08:47:43Z</time>
      </trkpt>
      <trkpt lat="41.7238840" lon="-5.2671440">
        <ele>723.1</ele>
        <time>2019-08-15T08:47:44Z</time>
      </trkpt>
      <trkpt lat="41.7239160" lon="-5.2672180">
        <ele>723.1</ele>
        <time>2019-08-15T08:47:45Z</time>
      </trkpt>
      <trkpt lat="41.7239490" lon="-5.2672930">
        <ele>723.0</ele>
        <time>2019-08-15T08:47:46Z</time>
      </trkpt>
      <trkpt lat="41.7239840" lon="-5.2673710">
        <ele>723.0</ele>
        <time>2019-08-15T08:47:47Z</time>
      </trkpt>
      <trkpt lat="41.7240170" lon="-5.2674440">
        <ele>723.0</ele>
        <time>2019-08-15T08:47:48Z</time>
      </trkpt>
      <trkpt lat="41.7240500" lon="-5.2675160">
        <ele>722.9</ele>
        <time>2019-08-15T08:47:49Z</time>
      </trkpt>
      <trkpt lat="41.7240830" lon="-5.2675930">
        <ele>722.9</ele>
        <time>2019-08-15T08:47:50Z</time>
      </trkpt>
      <trkpt lat="41.7241160" lon="-5.2676710">
        <ele>722.9</ele>
        <time>2019-08-15T08:47:51Z</time>
      </trkpt>
      <trkpt lat="41.7241480" lon="-5.2677500">
        <ele>722.8</ele>
        <time>2019-08-15T08:47:52Z</time>
      </trkpt>
      <trkpt lat="41.7241810" lon="-5.2678280">
        <ele>722.8</ele>
        <time>2019-08-15T08:47:53Z</time>
      </trkpt>
      <trkpt lat="41.7242140" lon="-5.2679070">
        <ele>722.8</ele>
        <time>2019-08-15T08:47:54Z</time>
      </trkpt>
      <trkpt lat="41.7242470" lon="-5.2679850">
        <ele>722.7</ele>
        <time>2019-08-15T08:47:55Z</time>
      </trkpt>
      <trkpt lat="41.7242820" lon="-5.2680630">
        <ele>722.7</ele>
        <time>2019-08-15T08:47:56Z</time>
      </trkpt>
      <trkpt lat="41.7243160" lon="-5.2681420">
        <ele>722.6</ele>
        <time>2019-08-15T08:47:57Z</time>
      </trkpt>
      <trkpt lat="41.7243500" lon="-5.2682210">
        <ele>722.5</ele>
        <time>2019-08-15T08:47:58Z</time>
      </trkpt>
      <trkpt lat="41.7243830" lon="-5.2683000">
        <ele>722.4</ele>
        <time>2019-08-15T08:47:59Z</time>
      </trkpt>
      <trkpt lat="41.7244160" lon="-5.2683760">
        <ele>722.2</ele>
        <time>2019-08-15T08:48:00Z</time>
      </trkpt>
      <trkpt lat="41.7244500" lon="-5.2684520">
        <ele>722.1</ele>
        <time>2019-08-15T08:48:01Z</time>
      </trkpt>
      <trkpt lat="41.7244840" lon="-5.2685280">
        <ele>721.9</ele>
        <time>2019-08-15T08:48:02Z</time>
      </trkpt>
      <trkpt lat="41.7245170" lon="-5.2686060">
        <ele>721.7</ele>
        <time>2019-08-15T08:48:03Z</time>
      </trkpt>
      <trkpt lat="41.7245510" lon="-5.2686840">
        <ele>721.5</ele>
        <time>2019-08-15T08:48:04Z</time>
      </trkpt>
      <trkpt lat="41.7245840" lon="-5.2687620">
        <ele>721.2</ele>
        <time>2019-08-15T08:48:05Z</time>
      </trkpt>
      <trkpt lat="41.7246170" lon="-5.2688390">
        <ele>721.1</ele>
        <time>2019-08-15T08:48:06Z</time>
      </trkpt>
      <trkpt lat="41.7246490" lon="-5.2689160">
        <ele>721.0</ele>
        <time>2019-08-15T08:48:07Z</time>
      </trkpt>
      <trkpt lat="41.7246820" lon="-5.2689920">
        <ele>720.9</ele>
        <time>2019-08-15T08:48:08Z</time>
      </trkpt>
      <trkpt lat="41.7247150" lon="-5.2690650">
        <ele>720.8</ele>
        <time>2019-08-15T08:48:09Z</time>
      </trkpt>
      <trkpt lat="41.7247470" lon="-5.2691400">
        <ele>720.7</ele>
        <time>2019-08-15T08:48:10Z</time>
      </trkpt>
      <trkpt lat="41.7247790" lon="-5.2692130">
        <ele>720.6</ele>
        <time>2019-08-15T08:48:11Z</time>
      </trkpt>
      <trkpt lat="41.7248100" lon="-5.2692860">
        <ele>720.5</ele>
        <time>2019-08-15T08:48:12Z</time>
      </trkpt>
      <trkpt lat="41.7248410" lon="-5.2693580">
        <ele>720.4</ele>
        <time>2019-08-15T08:48:13Z</time>
      </trkpt>
      <trkpt lat="41.7248720" lon="-5.2694310">
        <ele>720.4</ele>
        <time>2019-08-15T08:48:14Z</time>
      </trkpt>
      <trkpt lat="41.7249030" lon="-5.2695020">
        <ele>720.3</ele>
        <time>2019-08-15T08:48:15Z</time>
      </trkpt>
      <trkpt lat="41.7249350" lon="-5.2695740">
        <ele>720.2</ele>
        <time>2019-08-15T08:48:16Z</time>
      </trkpt>
      <trkpt lat="41.7249650" lon="-5.2696440">
        <ele>720.2</ele>
        <time>2019-08-15T08:48:17Z</time>
      </trkpt>
      <trkpt lat="41.7249960" lon="-5.2697120">
        <ele>720.2</ele>
        <time>2019-08-15T08:48:18Z</time>
      </trkpt>
      <trkpt lat="41.7250250" lon="-5.2697820">
        <ele>720.1</ele>
        <time>2019-08-15T08:48:19Z</time>
      </trkpt>
      <trkpt lat="41.7250550" lon="-5.2698500">
        <ele>720.1</ele>
        <time>2019-08-15T08:48:20Z</time>
      </trkpt>
      <trkpt lat="41.7250840" lon="-5.2699180">
        <ele>720.0</ele>
        <time>2019-08-15T08:48:21Z</time>
      </trkpt>
      <trkpt lat="41.7251140" lon="-5.2699860">
        <ele>720.0</ele>
        <time>2019-08-15T08:48:22Z</time>
      </trkpt>
      <trkpt lat="41.7251430" lon="-5.2700550">
        <ele>719.9</ele>
        <time>2019-08-15T08:48:23Z</time>
      </trkpt>
      <trkpt lat="41.7251710" lon="-5.2701220">
        <ele>719.8</ele>
        <time>2019-08-15T08:48:24Z</time>
      </trkpt>
      <trkpt lat="41.7252000" lon="-5.2701880">
        <ele>719.7</ele>
        <time>2019-08-15T08:48:25Z</time>
      </trkpt>
      <trkpt lat="41.7252300" lon="-5.2702540">
        <ele>719.6</ele>
        <time>2019-08-15T08:48:26Z</time>
      </trkpt>
      <trkpt lat="41.7252610" lon="-5.2703210">
        <ele>719.4</ele>
        <time>2019-08-15T08:48:27Z</time>
      </trkpt>
      <trkpt lat="41.7252910" lon="-5.2703880">
        <ele>719.3</ele>
        <time>2019-08-15T08:48:28Z</time>
      </trkpt>
      <trkpt lat="41.7253210" lon="-5.2704550">
        <ele>719.3</ele>
        <time>2019-08-15T08:48:29Z</time>
      </trkpt>
      <trkpt lat="41.7253490" lon="-5.2705220">
        <ele>719.3</ele>
        <time>2019-08-15T08:48:30Z</time>
      </trkpt>
      <trkpt lat="41.7253770" lon="-5.2705890">
        <ele>719.2</ele>
        <time>2019-08-15T08:48:31Z</time>
      </trkpt>
      <trkpt lat="41.7254040" lon="-5.2706560">
        <ele>719.2</ele>
        <time>2019-08-15T08:48:32Z</time>
      </trkpt>
      <trkpt lat="41.7254330" lon="-5.2707210">
        <ele>719.2</ele>
        <time>2019-08-15T08:48:33Z</time>
      </trkpt>
      <trkpt lat="41.7254630" lon="-5.2707870">
        <ele>719.1</ele>
        <time>2019-08-15T08:48:34Z</time>
      </trkpt>
      <trkpt lat="41.7254930" lon="-5.2708530">
        <ele>719.1</ele>
        <time>2019-08-15T08:48:35Z</time>
      </trkpt>
      <trkpt lat="41.7255220" lon="-5.2709200">
        <ele>719.1</ele>
        <time>2019-08-15T08:48:36Z</time>
      </trkpt>
      <trkpt lat="41.7255520" lon="-5.2709890">
        <ele>719.2</ele>
        <time>2019-08-15T08:48:37Z</time>
      </trkpt>
      <trkpt lat="41.7255810" lon="-5.2710570">
        <ele>719.2</ele>
        <time>2019-08-15T08:48:38Z</time>
      </trkpt>
      <trkpt lat="41.7256100" lon="-5.2711260">
        <ele>719.3</ele>
        <time>2019-08-15T08:48:39Z</time>
      </trkpt>
      <trkpt lat="41.7256390" lon="-5.2711940">
        <ele>719.3</ele>
        <time>2019-08-15T08:48:40Z</time>
      </trkpt>
      <trkpt lat="41.7256680" lon="-5.2712620">
        <ele>719.4</ele>
        <time>2019-08-15T08:48:41Z</time>
      </trkpt>
      <trkpt lat="41.7256980" lon="-5.2713290">
        <ele>719.4</ele>
        <time>2019-08-15T08:48:42Z</time>
      </trkpt>
      <trkpt lat="41.7257290" lon="-5.2713980">
        <ele>719.4</ele>
        <time>2019-08-15T08:48:43Z</time>
      </trkpt>
      <trkpt lat="41.7257590" lon="-5.2714650">
        <ele>719.4</ele>
        <time>2019-08-15T08:48:44Z</time>
      </trkpt>
      <trkpt lat="41.7257880" lon="-5.2715330">
        <ele>719.4</ele>
        <time>2019-08-15T08:48:45Z</time>
      </trkpt>
      <trkpt lat="41.7258180" lon="-5.2716000">
        <ele>719.4</ele>
        <time>2019-08-15T08:48:46Z</time>
      </trkpt>
      <trkpt lat="41.7258480" lon="-5.2716670">
        <ele>719.4</ele>
        <time>2019-08-15T08:48:47Z</time>
      </trkpt>
      <trkpt lat="41.7258770" lon="-5.2717340">
        <ele>719.4</ele>
        <time>2019-08-15T08:48:48Z</time>
      </trkpt>
      <trkpt lat="41.7259060" lon="-5.2718000">
        <ele>719.3</ele>
        <time>2019-08-15T08:48:49Z</time>
      </trkpt>
      <trkpt lat="41.7259370" lon="-5.2718660">
        <ele>719.2</ele>
        <time>2019-08-15T08:48:50Z</time>
      </trkpt>
      <trkpt lat="41.7259670" lon="-5.2719330">
        <ele>719.2</ele>
        <time>2019-08-15T08:48:51Z</time>
      </trkpt>
      <trkpt lat="41.7259970" lon="-5.2720010">
        <ele>719.2</ele>
        <time>2019-08-15T08:48:52Z</time>
      </trkpt>
      <trkpt lat="41.7260260" lon="-5.2720690">
        <ele>719.0</ele>
        <time>2019-08-15T08:48:53Z</time>
      </trkpt>
      <trkpt lat="41.7260570" lon="-5.2721360">
        <ele>718.9</ele>
        <time>2019-08-15T08:48:54Z</time>
      </trkpt>
      <trkpt lat="41.7260870" lon="-5.2722040">
        <ele>718.8</ele>
        <time>2019-08-15T08:48:55Z</time>
      </trkpt>
      <trkpt lat="41.7261180" lon="-5.2722720">
        <ele>718.8</ele>
        <time>2019-08-15T08:48:56Z</time>
      </trkpt>
      <trkpt lat="41.7261490" lon="-5.2723410">
        <ele>718.6</ele>
        <time>2019-08-15T08:48:57Z</time>
      </trkpt>
      <trkpt lat="41.7261800" lon="-5.2724100">
        <ele>718.4</ele>
        <time>2019-08-15T08:48:58Z</time>
      </trkpt>
      <trkpt lat="41.7262090" lon="-5.2724790">
        <ele>718.3</ele>
        <time>2019-08-15T08:48:59Z</time>
      </trkpt>
      <trkpt lat="41.7262380" lon="-5.2725500">
        <ele>718.2</ele>
        <time>2019-08-15T08:49:00Z</time>
      </trkpt>
      <trkpt lat="41.7262680" lon="-5.2726190">
        <ele>718.0</ele>
        <time>2019-08-15T08:49:01Z</time>
      </trkpt>
      <trkpt lat="41.7262990" lon="-5.2726860">
        <ele>717.9</ele>
        <time>2019-08-15T08:49:02Z</time>
      </trkpt>
      <trkpt lat="41.7263310" lon="-5.2727550">
        <ele>717.8</ele>
        <time>2019-08-15T08:49:03Z</time>
      </trkpt>
      <trkpt lat="41.7263610" lon="-5.2728240">
        <ele>717.7</ele>
        <time>2019-08-15T08:49:04Z</time>
      </trkpt>
      <trkpt lat="41.7263910" lon="-5.2728930">
        <ele>717.5</ele>
        <time>2019-08-15T08:49:05Z</time>
      </trkpt>
      <trkpt lat="41.7264220" lon="-5.2729620">
        <ele>717.5</ele>
        <time>2019-08-15T08:49:06Z</time>
      </trkpt>
      <trkpt lat="41.7264520" lon="-5.2730290">
        <ele>717.4</ele>
        <time>2019-08-15T08:49:07Z</time>
      </trkpt>
      <trkpt lat="41.7264810" lon="-5.2730970">
        <ele>717.2</ele>
        <time>2019-08-15T08:49:08Z</time>
      </trkpt>
      <trkpt lat="41.7265120" lon="-5.2731680">
        <ele>717.1</ele>
        <time>2019-08-15T08:49:09Z</time>
      </trkpt>
      <trkpt lat="41.7265440" lon="-5.2732380">
        <ele>717.0</ele>
        <time>2019-08-15T08:49:10Z</time>
      </trkpt>
      <trkpt lat="41.7265760" lon="-5.2733090">
        <ele>716.9</ele>
        <time>2019-08-15T08:49:11Z</time>
      </trkpt>
      <trkpt lat="41.7266070" lon="-5.2733820">
        <ele>716.7</ele>
        <time>2019-08-15T08:49:12Z</time>
      </trkpt>
      <trkpt lat="41.7266400" lon="-5.2734540">
        <ele>716.6</ele>
        <time>2019-08-15T08:49:13Z</time>
      </trkpt>
      <trkpt lat="41.7266710" lon="-5.2735270">
        <ele>716.4</ele>
        <time>2019-08-15T08:49:14Z</time>
      </trkpt>
      <trkpt lat="41.7267030" lon="-5.2736000">
        <ele>716.3</ele>
        <time>2019-08-15T08:49:15Z</time>
      </trkpt>
      <trkpt lat="41.7267350" lon="-5.2736710">
        <ele>716.2</ele>
        <time>2019-08-15T08:49:16Z</time>
      </trkpt>
      <trkpt lat="41.7267650" lon="-5.2737410">
        <ele>716.2</ele>
        <time>2019-08-15T08:49:17Z</time>
      </trkpt>
      <trkpt lat="41.7267940" lon="-5.2738120">
        <ele>716.1</ele>
        <time>2019-08-15T08:49:18Z</time>
      </trkpt>
      <trkpt lat="41.7268250" lon="-5.2738830">
        <ele>716.1</ele>
        <time>2019-08-15T08:49:19Z</time>
      </trkpt>
      <trkpt lat="41.7268560" lon="-5.2739530">
        <ele>716.0</ele>
        <time>2019-08-15T08:49:20Z</time>
      </trkpt>
      <trkpt lat="41.7268870" lon="-5.2740240">
        <ele>716.0</ele>
        <time>2019-08-15T08:49:21Z</time>
      </trkpt>
      <trkpt lat="41.7269170" lon="-5.2740970">
        <ele>716.0</ele>
        <time>2019-08-15T08:49:22Z</time>
      </trkpt>
      <trkpt lat="41.7269470" lon="-5.2741720">
        <ele>716.0</ele>
        <time>2019-08-15T08:49:23Z</time>
      </trkpt>
      <trkpt lat="41.7269740" lon="-5.2742470">
        <ele>716.0</ele>
        <time>2019-08-15T08:49:24Z</time>
      </trkpt>
      <trkpt lat="41.7270020" lon="-5.2743240">
        <ele>716.0</ele>
        <time>2019-08-15T08:49:25Z</time>
      </trkpt>
      <trkpt lat="41.7270300" lon="-5.2743980">
        <ele>716.0</ele>
        <time>2019-08-15T08:49:26Z</time>
      </trkpt>
      <trkpt lat="41.7270580" lon="-5.2744730">
        <ele>715.9</ele>
        <time>2019-08-15T08:49:27Z</time>
      </trkpt>
      <trkpt lat="41.7270850" lon="-5.2745480">
        <ele>715.9</ele>
        <time>2019-08-15T08:49:28Z</time>
      </trkpt>
      <trkpt lat="41.7271120" lon="-5.2746230">
        <ele>715.8</ele>
        <time>2019-08-15T08:49:29Z</time>
      </trkpt>
      <trkpt lat="41.7271390" lon="-5.2746970">
        <ele>715.8</ele>
        <time>2019-08-15T08:49:30Z</time>
      </trkpt>
      <trkpt lat="41.7271680" lon="-5.2747710">
        <ele>715.7</ele>
        <time>2019-08-15T08:49:31Z</time>
      </trkpt>
      <trkpt lat="41.7271950" lon="-5.2748470">
        <ele>715.7</ele>
        <time>2019-08-15T08:49:32Z</time>
      </trkpt>
      <trkpt lat="41.7272220" lon="-5.2749220">
        <ele>715.6</ele>
        <time>2019-08-15T08:49:33Z</time>
      </trkpt>
      <trkpt lat="41.7272490" lon="-5.2749990">
        <ele>715.5</ele>
        <time>2019-08-15T08:49:34Z</time>
      </trkpt>
      <trkpt lat="41.7272750" lon="-5.2750750">
        <ele>715.5</ele>
        <time>2019-08-15T08:49:35Z</time>
      </trkpt>
      <trkpt lat="41.7273020" lon="-5.2751510">
        <ele>715.5</ele>
        <time>2019-08-15T08:49:36Z</time>
      </trkpt>
      <trkpt lat="41.7273280" lon="-5.2752270">
        <ele>715.6</ele>
        <time>2019-08-15T08:49:37Z</time>
      </trkpt>
      <trkpt lat="41.7273540" lon="-5.2753020">
        <ele>715.7</ele>
        <time>2019-08-15T08:49:38Z</time>
      </trkpt>
      <trkpt lat="41.7273800" lon="-5.2753770">
        <ele>715.7</ele>
        <time>2019-08-15T08:49:39Z</time>
      </trkpt>
      <trkpt lat="41.7274070" lon="-5.2754510">
        <ele>715.8</ele>
        <time>2019-08-15T08:49:40Z</time>
      </trkpt>
      <trkpt lat="41.7274350" lon="-5.2755250">
        <ele>716.0</ele>
        <time>2019-08-15T08:49:41Z</time>
      </trkpt>
      <trkpt lat="41.7274630" lon="-5.2756000">
        <ele>716.1</ele>
        <time>2019-08-15T08:49:42Z</time>
      </trkpt>
      <trkpt lat="41.7274890" lon="-5.2756760">
        <ele>716.3</ele>
        <time>2019-08-15T08:49:43Z</time>
      </trkpt>
      <trkpt lat="41.7275170" lon="-5.2757520">
        <ele>716.4</ele>
        <time>2019-08-15T08:49:44Z</time>
      </trkpt>
      <trkpt lat="41.7275450" lon="-5.2758280">
        <ele>716.6</ele>
        <time>2019-08-15T08:49:45Z</time>
      </trkpt>
      <trkpt lat="41.7275730" lon="-5.2759030">
        <ele>716.8</ele>
        <time>2019-08-15T08:49:46Z</time>
      </trkpt>
      <trkpt lat="41.7276000" lon="-5.2759780">
        <ele>717.0</ele>
        <time>2019-08-15T08:49:47Z</time>
      </trkpt>
      <trkpt lat="41.7276260" lon="-5.2760540">
        <ele>717.2</ele>
        <time>2019-08-15T08:49:48Z</time>
      </trkpt>
      <trkpt lat="41.7276510" lon="-5.2761300">
        <ele>717.4</ele>
        <time>2019-08-15T08:49:49Z</time>
      </trkpt>
      <trkpt lat="41.7276750" lon="-5.2762030">
        <ele>717.6</ele>
        <time>2019-08-15T08:49:50Z</time>
      </trkpt>
      <trkpt lat="41.7276990" lon="-5.2762750">
        <ele>717.7</ele>
        <time>2019-08-15T08:49:51Z</time>
      </trkpt>
      <trkpt lat="41.7277240" lon="-5.2763450">
        <ele>717.9</ele>
        <time>2019-08-15T08:49:52Z</time>
      </trkpt>
      <trkpt lat="41.7277480" lon="-5.2764170">
        <ele>718.0</ele>
        <time>2019-08-15T08:49:53Z</time>
      </trkpt>
      <trkpt lat="41.7277740" lon="-5.2764900">
        <ele>718.1</ele>
        <time>2019-08-15T08:49:54Z</time>
      </trkpt>
      <trkpt lat="41.7277980" lon="-5.2765600">
        <ele>718.1</ele>
        <time>2019-08-15T08:49:55Z</time>
      </trkpt>
      <trkpt lat="41.7278220" lon="-5.2766250">
        <ele>718.2</ele>
        <time>2019-08-15T08:49:56Z</time>
      </trkpt>
      <trkpt lat="41.7278450" lon="-5.2766880">
        <ele>718.2</ele>
        <time>2019-08-15T08:49:57Z</time>
      </trkpt>
      <trkpt lat="41.7278680" lon="-5.2767490">
        <ele>718.2</ele>
        <time>2019-08-15T08:49:58Z</time>
      </trkpt>
      <trkpt lat="41.7278910" lon="-5.2768130">
        <ele>718.2</ele>
        <time>2019-08-15T08:49:59Z</time>
      </trkpt>
      <trkpt lat="41.7279120" lon="-5.2768790">
        <ele>718.2</ele>
        <time>2019-08-15T08:50:00Z</time>
      </trkpt>
      <trkpt lat="41.7279320" lon="-5.2769450">
        <ele>718.1</ele>
        <time>2019-08-15T08:50:01Z</time>
      </trkpt>
      <trkpt lat="41.7279500" lon="-5.2770110">
        <ele>718.1</ele>
        <time>2019-08-15T08:50:02Z</time>
      </trkpt>
      <trkpt lat="41.7279660" lon="-5.2770770">
        <ele>718.1</ele>
        <time>2019-08-15T08:50:03Z</time>
      </trkpt>
      <trkpt lat="41.7279760" lon="-5.2771430">
        <ele>718.0</ele>
        <time>2019-08-15T08:50:04Z</time>
      </trkpt>
      <trkpt lat="41.7279870" lon="-5.2772090">
        <ele>718.0</ele>
        <time>2019-08-15T08:50:05Z</time>
      </trkpt>
      <trkpt lat="41.7280010" lon="-5.2772740">
        <ele>718.0</ele>
        <time>2019-08-15T08:50:06Z</time>
      </trkpt>
      <trkpt lat="41.7280160" lon="-5.2773400">
        <ele>718.0</ele>
        <time>2019-08-15T08:50:07Z</time>
      </trkpt>
      <trkpt lat="41.7280310" lon="-5.2774050">
        <ele>718.0</ele>
        <time>2019-08-15T08:50:08Z</time>
      </trkpt>
      <trkpt lat="41.7280450" lon="-5.2774720">
        <ele>718.0</ele>
        <time>2019-08-15T08:50:09Z</time>
      </trkpt>
      <trkpt lat="41.7280600" lon="-5.2775400">
        <ele>718.0</ele>
        <time>2019-08-15T08:50:10Z</time>
      </trkpt>
      <trkpt lat="41.7280750" lon="-5.2776090">
        <ele>718.1</ele>
        <time>2019-08-15T08:50:11Z</time>
      </trkpt>
      <trkpt lat="41.7280910" lon="-5.2776790">
        <ele>718.2</ele>
        <time>2019-08-15T08:50:12Z</time>
      </trkpt>
      <trkpt lat="41.7281060" lon="-5.2777490">
        <ele>718.3</ele>
        <time>2019-08-15T08:50:13Z</time>
      </trkpt>
      <trkpt lat="41.7281220" lon="-5.2778170">
        <ele>718.4</ele>
        <time>2019-08-15T08:50:14Z</time>
      </trkpt>
      <trkpt lat="41.7281370" lon="-5.2778880">
        <ele>718.5</ele>
        <time>2019-08-15T08:50:15Z</time>
      </trkpt>
      <trkpt lat="41.7281500" lon="-5.2779590">
        <ele>718.6</ele>
        <time>2019-08-15T08:50:16Z</time>
      </trkpt>
      <trkpt lat="41.7281640" lon="-5.2780300">
        <ele>718.7</ele>
        <time>2019-08-15T08:50:17Z</time>
      </trkpt>
      <trkpt lat="41.7281790" lon="-5.2781010">
        <ele>718.8</ele>
        <time>2019-08-15T08:50:18Z</time>
      </trkpt>
      <trkpt lat="41.7281940" lon="-5.2781720">
        <ele>718.8</ele>
        <time>2019-08-15T08:50:19Z</time>
      </trkpt>
      <trkpt lat="41.7282100" lon="-5.2782420">
        <ele>718.8</ele>
        <time>2019-08-15T08:50:20Z</time>
      </trkpt>
      <trkpt lat="41.7282260" lon="-5.2783150">
        <ele>718.7</ele>
        <time>2019-08-15T08:50:21Z</time>
      </trkpt>
      <trkpt lat="41.7282410" lon="-5.2783900">
        <ele>718.6</ele>
        <time>2019-08-15T08:50:22Z</time>
      </trkpt>
      <trkpt lat="41.7282570" lon="-5.2784650">
        <ele>718.4</ele>
        <time>2019-08-15T08:50:23Z</time>
      </trkpt>
      <trkpt lat="41.7282740" lon="-5.2785410">
        <ele>718.3</ele>
        <time>2019-08-15T08:50:24Z</time>
      </trkpt>
      <trkpt lat="41.7282930" lon="-5.2786160">
        <ele>718.2</ele>
        <time>2019-08-15T08:50:25Z</time>
      </trkpt>
      <trkpt lat="41.7283110" lon="-5.2786900">
        <ele>718.2</ele>
        <time>2019-08-15T08:50:26Z</time>
      </trkpt>
      <trkpt lat="41.7283300" lon="-5.2787660">
        <ele>718.1</ele>
        <time>2019-08-15T08:50:27Z</time>
      </trkpt>
      <trkpt lat="41.7283470" lon="-5.2788420">
        <ele>718.1</ele>
        <time>2019-08-15T08:50:28Z</time>
      </trkpt>
      <trkpt lat="41.7283640" lon="-5.2789190">
        <ele>718.0</ele>
        <time>2019-08-15T08:50:29Z</time>
      </trkpt>
      <trkpt lat="41.7283800" lon="-5.2789970">
        <ele>717.9</ele>
        <time>2019-08-15T08:50:30Z</time>
      </trkpt>
      <trkpt lat="41.7283970" lon="-5.2790750">
        <ele>717.9</ele>
        <time>2019-08-15T08:50:31Z</time>
      </trkpt>
      <trkpt lat="41.7284140" lon="-5.2791530">
        <ele>717.8</ele>
        <time>2019-08-15T08:50:32Z</time>
      </trkpt>
      <trkpt lat="41.7284310" lon="-5.2792300">
        <ele>717.8</ele>
        <time>2019-08-15T08:50:33Z</time>
      </trkpt>
      <trkpt lat="41.7284470" lon="-5.2793070">
        <ele>717.7</ele>
        <time>2019-08-15T08:50:34Z</time>
      </trkpt>
      <trkpt lat="41.7284640" lon="-5.2793830">
        <ele>717.5</ele>
        <time>2019-08-15T08:50:35Z</time>
      </trkpt>
      <trkpt lat="41.7284800" lon="-5.2794580">
        <ele>717.2</ele>
        <time>2019-08-15T08:50:36Z</time>
      </trkpt>
      <trkpt lat="41.7284960" lon="-5.2795350">
        <ele>716.8</ele>
        <time>2019-08-15T08:50:37Z</time>
      </trkpt>
      <trkpt lat="41.7285110" lon="-5.2796110">
        <ele>716.7</ele>
        <time>2019-08-15T08:50:38Z</time>
      </trkpt>
      <trkpt lat="41.7285280" lon="-5.2796860">
        <ele>716.6</ele>
        <time>2019-08-15T08:50:39Z</time>
      </trkpt>
      <trkpt lat="41.7285460" lon="-5.2797600">
        <ele>716.4</ele>
        <time>2019-08-15T08:50:40Z</time>
      </trkpt>
      <trkpt lat="41.7285660" lon="-5.2798350">
        <ele>716.1</ele>
        <time>2019-08-15T08:50:41Z</time>
      </trkpt>
      <trkpt lat="41.7285880" lon="-5.2799100">
        <ele>716.0</ele>
        <time>2019-08-15T08:50:42Z</time>
      </trkpt>
      <trkpt lat="41.7286110" lon="-5.2799840">
        <ele>715.9</ele>
        <time>2019-08-15T08:50:43Z</time>
      </trkpt>
      <trkpt lat="41.7286350" lon="-5.2800580">
        <ele>716.0</ele>
        <time>2019-08-15T08:50:44Z</time>
      </trkpt>
      <trkpt lat="41.7286600" lon="-5.2801310">
        <ele>716.1</ele>
        <time>2019-08-15T08:50:45Z</time>
      </trkpt>
      <trkpt lat="41.7286860" lon="-5.2802040">
        <ele>716.0</ele>
        <time>2019-08-15T08:50:46Z</time>
      </trkpt>
      <trkpt lat="41.7287140" lon="-5.2802780">
        <ele>716.1</ele>
        <time>2019-08-15T08:50:47Z</time>
      </trkpt>
      <trkpt lat="41.7287430" lon="-5.2803520">
        <ele>716.3</ele>
        <time>2019-08-15T08:50:48Z</time>
      </trkpt>
      <trkpt lat="41.7287730" lon="-5.2804280">
        <ele>716.5</ele>
        <time>2019-08-15T08:50:49Z</time>
      </trkpt>
      <trkpt lat="41.7288020" lon="-5.2805030">
        <ele>716.6</ele>
        <time>2019-08-15T08:50:50Z</time>
      </trkpt>
      <trkpt lat="41.7288320" lon="-5.2805760">
        <ele>716.6</ele>
        <time>2019-08-15T08:50:51Z</time>
      </trkpt>
      <trkpt lat="41.7288610" lon="-5.2806490">
        <ele>716.6</ele>
        <time>2019-08-15T08:50:52Z</time>
      </trkpt>
      <trkpt lat="41.7288910" lon="-5.2807230">
        <ele>716.6</ele>
        <time>2019-08-15T08:50:53Z</time>
      </trkpt>
      <trkpt lat="41.7289210" lon="-5.2808010">
        <ele>716.5</ele>
        <time>2019-08-15T08:50:54Z</time>
      </trkpt>
      <trkpt lat="41.7289510" lon="-5.2808790">
        <ele>716.4</ele>
        <time>2019-08-15T08:50:55Z</time>
      </trkpt>
      <trkpt lat="41.7289820" lon="-5.2809580">
        <ele>716.3</ele>
        <time>2019-08-15T08:50:56Z</time>
      </trkpt>
      <trkpt lat="41.7290120" lon="-5.2810380">
        <ele>716.1</ele>
        <time>2019-08-15T08:50:57Z</time>
      </trkpt>
      <trkpt lat="41.7290440" lon="-5.2811180">
        <ele>715.9</ele>
        <time>2019-08-15T08:50:58Z</time>
      </trkpt>
      <trkpt lat="41.7290740" lon="-5.2811970">
        <ele>715.6</ele>
        <time>2019-08-15T08:50:59Z</time>
      </trkpt>
      <trkpt lat="41.7291040" lon="-5.2812760">
        <ele>715.3</ele>
        <time>2019-08-15T08:51:00Z</time>
      </trkpt>
      <trkpt lat="41.7291350" lon="-5.2813550">
        <ele>715.1</ele>
        <time>2019-08-15T08:51:01Z</time>
      </trkpt>
      <trkpt lat="41.7291660" lon="-5.2814340">
        <ele>714.8</ele>
        <time>2019-08-15T08:51:02Z</time>
      </trkpt>
      <trkpt lat="41.7291970" lon="-5.2815130">
        <ele>714.6</ele>
        <time>2019-08-15T08:51:03Z</time>
      </trkpt>
      <trkpt lat="41.7292280" lon="-5.2815910">
        <ele>714.4</ele>
        <time>2019-08-15T08:51:04Z</time>
      </trkpt>
      <trkpt lat="41.7292590" lon="-5.2816720">
        <ele>714.2</ele>
        <time>2019-08-15T08:51:05Z</time>
      </trkpt>
      <trkpt lat="41.7292890" lon="-5.2817530">
        <ele>714.0</ele>
        <time>2019-08-15T08:51:06Z</time>
      </trkpt>
      <trkpt lat="41.7293180" lon="-5.2818340">
        <ele>713.8</ele>
        <time>2019-08-15T08:51:07Z</time>
      </trkpt>
      <trkpt lat="41.7293470" lon="-5.2819120">
        <ele>713.7</ele>
        <time>2019-08-15T08:51:08Z</time>
      </trkpt>
      <trkpt lat="41.7293760" lon="-5.2819880">
        <ele>713.5</ele>
        <time>2019-08-15T08:51:09Z</time>
      </trkpt>
      <trkpt lat="41.7294040" lon="-5.2820600">
        <ele>713.4</ele>
        <time>2019-08-15T08:51:10Z</time>
      </trkpt>
      <trkpt lat="41.7294320" lon="-5.2821310">
        <ele>713.3</ele>
        <time>2019-08-15T08:51:11Z</time>
      </trkpt>
      <trkpt lat="41.7294580" lon="-5.2822040">
        <ele>713.2</ele>
        <time>2019-08-15T08:51:12Z</time>
      </trkpt>
      <trkpt lat="41.7294850" lon="-5.2822780">
        <ele>713.2</ele>
        <time>2019-08-15T08:51:13Z</time>
      </trkpt>
      <trkpt lat="41.7295140" lon="-5.2823510">
        <ele>713.2</ele>
        <time>2019-08-15T08:51:14Z</time>
      </trkpt>
      <trkpt lat="41.7295430" lon="-5.2824260">
        <ele>713.2</ele>
        <time>2019-08-15T08:51:15Z</time>
      </trkpt>
      <trkpt lat="41.7295730" lon="-5.2824980">
        <ele>713.3</ele>
        <time>2019-08-15T08:51:16Z</time>
      </trkpt>
      <trkpt lat="41.7296010" lon="-5.2825710">
        <ele>713.4</ele>
        <time>2019-08-15T08:51:17Z</time>
      </trkpt>
      <trkpt lat="41.7296300" lon="-5.2826420">
        <ele>713.6</ele>
        <time>2019-08-15T08:51:18Z</time>
      </trkpt>
      <trkpt lat="41.7296590" lon="-5.2827140">
        <ele>713.7</ele>
        <time>2019-08-15T08:51:19Z</time>
      </trkpt>
      <trkpt lat="41.7296880" lon="-5.2827840">
        <ele>713.9</ele>
        <time>2019-08-15T08:51:20Z</time>
      </trkpt>
      <trkpt lat="41.7297160" lon="-5.2828550">
        <ele>714.0</ele>
        <time>2019-08-15T08:51:21Z</time>
      </trkpt>
      <trkpt lat="41.7297440" lon="-5.2829250">
        <ele>714.2</ele>
        <time>2019-08-15T08:51:22Z</time>
      </trkpt>
      <trkpt lat="41.7297710" lon="-5.2829930">
        <ele>714.4</ele>
        <time>2019-08-15T08:51:23Z</time>
      </trkpt>
      <trkpt lat="41.7297980" lon="-5.2830600">
        <ele>714.6</ele>
        <time>2019-08-15T08:51:24Z</time>
      </trkpt>
      <trkpt lat="41.7298230" lon="-5.2831270">
        <ele>714.7</ele>
        <time>2019-08-15T08:51:25Z</time>
      </trkpt>
      <trkpt lat="41.7298490" lon="-5.2831960">
        <ele>714.8</ele>
        <time>2019-08-15T08:51:26Z</time>
      </trkpt>
      <trkpt lat="41.7298750" lon="-5.2832660">
        <ele>714.9</ele>
        <time>2019-08-15T08:51:27Z</time>
      </trkpt>
      <trkpt lat="41.7299030" lon="-5.2833350">
        <ele>715.0</ele>
        <time>2019-08-15T08:51:28Z</time>
      </trkpt>
      <trkpt lat="41.7299300" lon="-5.2834020">
        <ele>715.1</ele>
        <time>2019-08-15T08:51:29Z</time>
      </trkpt>
      <trkpt lat="41.7299570" lon="-5.2834710">
        <ele>715.1</ele>
        <time>2019-08-15T08:51:30Z</time>
      </trkpt>
      <trkpt lat="41.7299840" lon="-5.2835400">
        <ele>715.1</ele>
        <time>2019-08-15T08:51:31Z</time>
      </trkpt>
      <trkpt lat="41.7300110" lon="-5.2836090">
        <ele>715.1</ele>
        <time>2019-08-15T08:51:32Z</time>
      </trkpt>
      <trkpt lat="41.7300380" lon="-5.2836790">
        <ele>715.2</ele>
        <time>2019-08-15T08:51:33Z</time>
      </trkpt>
      <trkpt lat="41.7300660" lon="-5.2837490">
        <ele>715.2</ele>
        <time>2019-08-15T08:51:34Z</time>
      </trkpt>
      <trkpt lat="41.7300920" lon="-5.2838190">
        <ele>715.2</ele>
        <time>2019-08-15T08:51:35Z</time>
      </trkpt>
      <trkpt lat="41.7301170" lon="-5.2838890">
        <ele>715.2</ele>
        <time>2019-08-15T08:51:36Z</time>
      </trkpt>
      <trkpt lat="41.7301440" lon="-5.2839590">
        <ele>715.2</ele>
        <time>2019-08-15T08:51:37Z</time>
      </trkpt>
      <trkpt lat="41.7301720" lon="-5.2840300">
        <ele>715.2</ele>
        <time>2019-08-15T08:51:38Z</time>
      </trkpt>
      <trkpt lat="41.7302010" lon="-5.2841000">
        <ele>715.2</ele>
        <time>2019-08-15T08:51:39Z</time>
      </trkpt>
      <trkpt lat="41.7302290" lon="-5.2841700">
        <ele>715.2</ele>
        <time>2019-08-15T08:51:40Z</time>
      </trkpt>
      <trkpt lat="41.7302570" lon="-5.2842420">
        <ele>715.3</ele>
        <time>2019-08-15T08:51:41Z</time>
      </trkpt>
      <trkpt lat="41.7302840" lon="-5.2843140">
        <ele>715.4</ele>
        <time>2019-08-15T08:51:42Z</time>
      </trkpt>
      <trkpt lat="41.7303090" lon="-5.2843890">
        <ele>715.4</ele>
        <time>2019-08-15T08:51:43Z</time>
      </trkpt>
      <trkpt lat="41.7303330" lon="-5.2844660">
        <ele>715.5</ele>
        <time>2019-08-15T08:51:44Z</time>
      </trkpt>
      <trkpt lat="41.7303600" lon="-5.2845400">
        <ele>715.6</ele>
        <time>2019-08-15T08:51:45Z</time>
      </trkpt>
      <trkpt lat="41.7303900" lon="-5.2846120">
        <ele>715.7</ele>
        <time>2019-08-15T08:51:46Z</time>
      </trkpt>
      <trkpt lat="41.7304180" lon="-5.2846830">
        <ele>715.8</ele>
        <time>2019-08-15T08:51:47Z</time>
      </trkpt>
      <trkpt lat="41.7304450" lon="-5.2847550">
        <ele>715.8</ele>
        <time>2019-08-15T08:51:48Z</time>
      </trkpt>
      <trkpt lat="41.7304730" lon="-5.2848250">
        <ele>715.9</ele>
        <time>2019-08-15T08:51:49Z</time>
      </trkpt>
      <trkpt lat="41.7305000" lon="-5.2848960">
        <ele>715.9</ele>
        <time>2019-08-15T08:51:50Z</time>
      </trkpt>
      <trkpt lat="41.7305290" lon="-5.2849670">
        <ele>715.9</ele>
        <time>2019-08-15T08:51:51Z</time>
      </trkpt>
      <trkpt lat="41.7305570" lon="-5.2850370">
        <ele>715.9</ele>
        <time>2019-08-15T08:51:52Z</time>
      </trkpt>
      <trkpt lat="41.7305840" lon="-5.2851070">
        <ele>715.9</ele>
        <time>2019-08-15T08:51:53Z</time>
      </trkpt>
      <trkpt lat="41.7306110" lon="-5.2851770">
        <ele>715.8</ele>
        <time>2019-08-15T08:51:54Z</time>
      </trkpt>
      <trkpt lat="41.7306370" lon="-5.2852470">
        <ele>715.8</ele>
        <time>2019-08-15T08:51:55Z</time>
      </trkpt>
      <trkpt lat="41.7306630" lon="-5.2853190">
        <ele>715.8</ele>
        <time>2019-08-15T08:51:56Z</time>
      </trkpt>
      <trkpt lat="41.7306910" lon="-5.2853900">
        <ele>715.7</ele>
        <time>2019-08-15T08:51:57Z</time>
      </trkpt>
      <trkpt lat="41.7307180" lon="-5.2854600">
        <ele>715.7</ele>
        <time>2019-08-15T08:51:58Z</time>
      </trkpt>
      <trkpt lat="41.7307450" lon="-5.2855310">
        <ele>715.6</ele>
        <time>2019-08-15T08:51:59Z</time>
      </trkpt>
      <trkpt lat="41.7307720" lon="-5.2856000">
        <ele>715.5</ele>
        <time>2019-08-15T08:52:00Z</time>
      </trkpt>
      <trkpt lat="41.7307970" lon="-5.2856710">
        <ele>715.4</ele>
        <time>2019-08-15T08:52:01Z</time>
      </trkpt>
      <trkpt lat="41.7308230" lon="-5.2857400">
        <ele>715.2</ele>
        <time>2019-08-15T08:52:02Z</time>
      </trkpt>
      <trkpt lat="41.7308480" lon="-5.2858070">
        <ele>715.1</ele>
        <time>2019-08-15T08:52:03Z</time>
      </trkpt>
      <trkpt lat="41.7308750" lon="-5.2858760">
        <ele>715.0</ele>
        <time>2019-08-15T08:52:04Z</time>
      </trkpt>
      <trkpt lat="41.7309030" lon="-5.2859440">
        <ele>714.8</ele>
        <time>2019-08-15T08:52:05Z</time>
      </trkpt>
      <trkpt lat="41.7309290" lon="-5.2860150">
        <ele>714.7</ele>
        <time>2019-08-15T08:52:06Z</time>
      </trkpt>
      <trkpt lat="41.7309560" lon="-5.2860860">
        <ele>714.5</ele>
        <time>2019-08-15T08:52:07Z</time>
      </trkpt>
      <trkpt lat="41.7309820" lon="-5.2861570">
        <ele>714.4</ele>
        <time>2019-08-15T08:52:08Z</time>
      </trkpt>
      <trkpt lat="41.7310100" lon="-5.2862280">
        <ele>714.3</ele>
        <time>2019-08-15T08:52:09Z</time>
      </trkpt>
      <trkpt lat="41.7310370" lon="-5.2862990">
        <ele>714.1</ele>
        <time>2019-08-15T08:52:10Z</time>
      </trkpt>
      <trkpt lat="41.7310660" lon="-5.2863690">
        <ele>714.0</ele>
        <time>2019-08-15T08:52:11Z</time>
      </trkpt>
      <trkpt lat="41.7310940" lon="-5.2864400">
        <ele>713.9</ele>
        <time>2019-08-15T08:52:12Z</time>
      </trkpt>
      <trkpt lat="41.7311230" lon="-5.2865140">
        <ele>713.8</ele>
        <time>2019-08-15T08:52:13Z</time>
      </trkpt>
      <trkpt lat="41.7311520" lon="-5.2865880">
        <ele>713.7</ele>
        <time>2019-08-15T08:52:14Z</time>
      </trkpt>
      <trkpt lat="41.7311800" lon="-5.2866620">
        <ele>713.6</ele>
        <time>2019-08-15T08:52:15Z</time>
      </trkpt>
      <trkpt lat="41.7312070" lon="-5.2867360">
        <ele>713.5</ele>
        <time>2019-08-15T08:52:16Z</time>
      </trkpt>
      <trkpt lat="41.7312350" lon="-5.2868080">
        <ele>713.3</ele>
        <time>2019-08-15T08:52:17Z</time>
      </trkpt>
      <trkpt lat="41.7312620" lon="-5.2868780">
        <ele>713.2</ele>
        <time>2019-08-15T08:52:18Z</time>
      </trkpt>
      <trkpt lat="41.7312880" lon="-5.2869490">
        <ele>713.1</ele>
        <time>2019-08-15T08:52:19Z</time>
      </trkpt>
      <trkpt lat="41.7313140" lon="-5.2870230">
        <ele>712.9</ele>
        <time>2019-08-15T08:52:20Z</time>
      </trkpt>
      <trkpt lat="41.7313410" lon="-5.2870980">
        <ele>712.8</ele>
        <time>2019-08-15T08:52:21Z</time>
      </trkpt>
      <trkpt lat="41.7313680" lon="-5.2871720">
        <ele>712.7</ele>
        <time>2019-08-15T08:52:22Z</time>
      </trkpt>
      <trkpt lat="41.7313950" lon="-5.2872480">
        <ele>712.6</ele>
        <time>2019-08-15T08:52:23Z</time>
      </trkpt>
      <trkpt lat="41.7314220" lon="-5.2873250">
        <ele>712.6</ele>
        <time>2019-08-15T08:52:24Z</time>
      </trkpt>
      <trkpt lat="41.7314500" lon="-5.2874010">
        <ele>712.6</ele>
        <time>2019-08-15T08:52:25Z</time>
      </trkpt>
      <trkpt lat="41.7314800" lon="-5.2874770">
        <ele>712.6</ele>
        <time>2019-08-15T08:52:26Z</time>
      </trkpt>
      <trkpt lat="41.7315080" lon="-5.2875510">
        <ele>712.7</ele>
        <time>2019-08-15T08:52:27Z</time>
      </trkpt>
      <trkpt lat="41.7315360" lon="-5.2876250">
        <ele>712.8</ele>
        <time>2019-08-15T08:52:28Z</time>
      </trkpt>
      <trkpt lat="41.7315650" lon="-5.2876970">
        <ele>712.9</ele>
        <time>2019-08-15T08:52:29Z</time>
      </trkpt>
      <trkpt lat="41.7315950" lon="-5.2877700">
        <ele>713.1</ele>
        <time>2019-08-15T08:52:30Z</time>
      </trkpt>
      <trkpt lat="41.7316240" lon="-5.2878430">
        <ele>713.2</ele>
        <time>2019-08-15T08:52:31Z</time>
      </trkpt>
      <trkpt lat="41.7316530" lon="-5.2879170">
        <ele>713.4</ele>
        <time>2019-08-15T08:52:32Z</time>
      </trkpt>
      <trkpt lat="41.7316800" lon="-5.2879930">
        <ele>713.5</ele>
        <time>2019-08-15T08:52:33Z</time>
      </trkpt>
      <trkpt lat="41.7317050" lon="-5.2880670">
        <ele>713.6</ele>
        <time>2019-08-15T08:52:34Z</time>
      </trkpt>
      <trkpt lat="41.7317310" lon="-5.2881370">
        <ele>713.7</ele>
        <time>2019-08-15T08:52:35Z</time>
      </trkpt>
      <trkpt lat="41.7317570" lon="-5.2882040">
        <ele>713.8</ele>
        <time>2019-08-15T08:52:36Z</time>
      </trkpt>
      <trkpt lat="41.7317850" lon="-5.2882690">
        <ele>713.8</ele>
        <time>2019-08-15T08:52:37Z</time>
      </trkpt>
      <trkpt lat="41.7318140" lon="-5.2883360">
        <ele>713.9</ele>
        <time>2019-08-15T08:52:38Z</time>
      </trkpt>
      <trkpt lat="41.7318450" lon="-5.2884050">
        <ele>713.9</ele>
        <time>2019-08-15T08:52:39Z</time>
      </trkpt>
      <trkpt lat="41.7318740" lon="-5.2884740">
        <ele>713.9</ele>
        <time>2019-08-15T08:52:40Z</time>
      </trkpt>
      <trkpt lat="41.7319020" lon="-5.2885460">
        <ele>713.9</ele>
        <time>2019-08-15T08:52:41Z</time>
      </trkpt>
      <trkpt lat="41.7319280" lon="-5.2886200">
        <ele>713.9</ele>
        <time>2019-08-15T08:52:42Z</time>
      </trkpt>
      <trkpt lat="41.7319520" lon="-5.2886960">
        <ele>713.8</ele>
        <time>2019-08-15T08:52:43Z</time>
      </trkpt>
      <trkpt lat="41.7319710" lon="-5.2887760">
        <ele>713.8</ele>
        <time>2019-08-15T08:52:44Z</time>
      </trkpt>
      <trkpt lat="41.7319870" lon="-5.2888580">
        <ele>713.7</ele>
        <time>2019-08-15T08:52:45Z</time>
      </trkpt>
      <trkpt lat="41.7319980" lon="-5.2889410">
        <ele>713.7</ele>
        <time>2019-08-15T08:52:46Z</time>
      </trkpt>
      <trkpt lat="41.7320080" lon="-5.2890230">
        <ele>713.7</ele>
        <time>2019-08-15T08:52:47Z</time>
      </trkpt>
      <trkpt lat="41.7320150" lon="-5.2891060">
        <ele>713.7</ele>
        <time>2019-08-15T08:52:48Z</time>
      </trkpt>
      <trkpt lat="41.7320210" lon="-5.2891880">
        <ele>713.7</ele>
        <time>2019-08-15T08:52:49Z</time>
      </trkpt>
      <trkpt lat="41.7320270" lon="-5.2892730">
        <ele>713.7</ele>
        <time>2019-08-15T08:52:50Z</time>
      </trkpt>
      <trkpt lat="41.7320340" lon="-5.2893600">
        <ele>713.7</ele>
        <time>2019-08-15T08:52:51Z</time>
      </trkpt>
      <trkpt lat="41.7320390" lon="-5.2894470">
        <ele>713.8</ele>
        <time>2019-08-15T08:52:52Z</time>
      </trkpt>
      <trkpt lat="41.7320440" lon="-5.2895350">
        <ele>713.8</ele>
        <time>2019-08-15T08:52:53Z</time>
      </trkpt>
      <trkpt lat="41.7320500" lon="-5.2896220">
        <ele>713.8</ele>
        <time>2019-08-15T08:52:54Z</time>
      </trkpt>
      <trkpt lat="41.7320560" lon="-5.2897070">
        <ele>713.8</ele>
        <time>2019-08-15T08:52:55Z</time>
      </trkpt>
      <trkpt lat="41.7320620" lon="-5.2897900">
        <ele>713.8</ele>
        <time>2019-08-15T08:52:56Z</time>
      </trkpt>
      <trkpt lat="41.7320660" lon="-5.2898730">
        <ele>713.8</ele>
        <time>2019-08-15T08:52:57Z</time>
      </trkpt>
      <trkpt lat="41.7320680" lon="-5.2899550">
        <ele>713.8</ele>
        <time>2019-08-15T08:52:58Z</time>
      </trkpt>
      <trkpt lat="41.7320710" lon="-5.2900390">
        <ele>713.8</ele>
        <time>2019-08-15T08:52:59Z</time>
      </trkpt>
      <trkpt lat="41.7320780" lon="-5.2901240">
        <ele>713.8</ele>
        <time>2019-08-15T08:53:00Z</time>
      </trkpt>
      <trkpt lat="41.7320850" lon="-5.2902090">
        <ele>713.8</ele>
        <time>2019-08-15T08:53:01Z</time>
      </trkpt>
      <trkpt lat="41.7320920" lon="-5.2902930">
        <ele>713.8</ele>
        <time>2019-08-15T08:53:02Z</time>
      </trkpt>
      <trkpt lat="41.7320990" lon="-5.2903790">
        <ele>713.8</ele>
        <time>2019-08-15T08:53:03Z</time>
      </trkpt>
      <trkpt lat="41.7321050" lon="-5.2904660">
        <ele>713.8</ele>
        <time>2019-08-15T08:53:04Z</time>
      </trkpt>
      <trkpt lat="41.7321130" lon="-5.2905530">
        <ele>713.8</ele>
        <time>2019-08-15T08:53:05Z</time>
      </trkpt>
      <trkpt lat="41.7321200" lon="-5.2906420">
        <ele>713.7</ele>
        <time>2019-08-15T08:53:06Z</time>
      </trkpt>
      <trkpt lat="41.7321270" lon="-5.2907280">
        <ele>713.6</ele>
        <time>2019-08-15T08:53:07Z</time>
      </trkpt>
      <trkpt lat="41.7321330" lon="-5.2908120">
        <ele>713.5</ele>
        <time>2019-08-15T08:53:08Z</time>
      </trkpt>
      <trkpt lat="41.7321390" lon="-5.2908940">
        <ele>713.4</ele>
        <time>2019-08-15T08:53:09Z</time>
      </trkpt>
      <trkpt lat="41.7321450" lon="-5.2909760">
        <ele>713.2</ele>
        <time>2019-08-15T08:53:10Z</time>
      </trkpt>
      <trkpt lat="41.7321500" lon="-5.2910580">
        <ele>713.0</ele>
        <time>2019-08-15T08:53:11Z</time>
      </trkpt>
      <trkpt lat="41.7321560" lon="-5.2911410">
        <ele>712.9</ele>
        <time>2019-08-15T08:53:12Z</time>
      </trkpt>
      <trkpt lat="41.7321620" lon="-5.2912260">
        <ele>712.7</ele>
        <time>2019-08-15T08:53:13Z</time>
      </trkpt>
      <trkpt lat="41.7321680" lon="-5.2913110">
        <ele>712.5</ele>
        <time>2019-08-15T08:53:14Z</time>
      </trkpt>
      <trkpt lat="41.7321760" lon="-5.2913950">
        <ele>712.4</ele>
        <time>2019-08-15T08:53:15Z</time>
      </trkpt>
      <trkpt lat="41.7321850" lon="-5.2914800">
        <ele>712.3</ele>
        <time>2019-08-15T08:53:16Z</time>
      </trkpt>
      <trkpt lat="41.7321940" lon="-5.2915650">
        <ele>712.2</ele>
        <time>2019-08-15T08:53:17Z</time>
      </trkpt>
      <trkpt lat="41.7322040" lon="-5.2916500">
        <ele>712.1</ele>
        <time>2019-08-15T08:53:18Z</time>
      </trkpt>
      <trkpt lat="41.7322120" lon="-5.2917350">
        <ele>712.1</ele>
        <time>2019-08-15T08:53:19Z</time>
      </trkpt>
      <trkpt lat="41.7322200" lon="-5.2918200">
        <ele>712.0</ele>
        <time>2019-08-15T08:53:20Z</time>
      </trkpt>
      <trkpt lat="41.7322280" lon="-5.2919070">
        <ele>712.0</ele>
        <time>2019-08-15T08:53:21Z</time>
      </trkpt>
      <trkpt lat="41.7322360" lon="-5.2919910">
        <ele>712.0</ele>
        <time>2019-08-15T08:53:22Z</time>
      </trkpt>
      <trkpt lat="41.7322430" lon="-5.2920730">
        <ele>712.0</ele>
        <time>2019-08-15T08:53:23Z</time>
      </trkpt>
      <trkpt lat="41.7322470" lon="-5.2921540">
        <ele>712.0</ele>
        <time>2019-08-15T08:53:24Z</time>
      </trkpt>
      <trkpt lat="41.7322490" lon="-5.2922360">
        <ele>712.0</ele>
        <time>2019-08-15T08:53:25Z</time>
      </trkpt>
      <trkpt lat="41.7322500" lon="-5.2923190">
        <ele>712.0</ele>
        <time>2019-08-15T08:53:26Z</time>
      </trkpt>
      <trkpt lat="41.7322540" lon="-5.2924020">
        <ele>712.1</ele>
        <time>2019-08-15T08:53:27Z</time>
      </trkpt>
      <trkpt lat="41.7322580" lon="-5.2924850">
        <ele>712.0</ele>
        <time>2019-08-15T08:53:28Z</time>
      </trkpt>
      <trkpt lat="41.7322650" lon="-5.2925690">
        <ele>712.1</ele>
        <time>2019-08-15T08:53:29Z</time>
      </trkpt>
      <trkpt lat="41.7322730" lon="-5.2926520">
        <ele>712.1</ele>
        <time>2019-08-15T08:53:30Z</time>
      </trkpt>
      <trkpt lat="41.7322800" lon="-5.2927360">
        <ele>712.1</ele>
        <time>2019-08-15T08:53:31Z</time>
      </trkpt>
      <trkpt lat="41.7322860" lon="-5.2928190">
        <ele>712.1</ele>
        <time>2019-08-15T08:53:32Z</time>
      </trkpt>
      <trkpt lat="41.7322920" lon="-5.2929040">
        <ele>712.1</ele>
        <time>2019-08-15T08:53:33Z</time>
      </trkpt>
      <trkpt lat="41.7322990" lon="-5.2929880">
        <ele>712.1</ele>
        <time>2019-08-15T08:53:34Z</time>
      </trkpt>
      <trkpt lat="41.7323050" lon="-5.2930720">
        <ele>712.1</ele>
        <time>2019-08-15T08:53:35Z</time>
      </trkpt>
      <trkpt lat="41.7323110" lon="-5.2931560">
        <ele>712.1</ele>
        <time>2019-08-15T08:53:36Z</time>
      </trkpt>
      <trkpt lat="41.7323160" lon="-5.2932380">
        <ele>712.0</ele>
        <time>2019-08-15T08:53:37Z</time>
      </trkpt>
      <trkpt lat="41.7323230" lon="-5.2933170">
        <ele>712.0</ele>
        <time>2019-08-15T08:53:38Z</time>
      </trkpt>
      <trkpt lat="41.7323280" lon="-5.2933940">
        <ele>712.0</ele>
        <time>2019-08-15T08:53:39Z</time>
      </trkpt>
      <trkpt lat="41.7323340" lon="-5.2934740">
        <ele>712.0</ele>
        <time>2019-08-15T08:53:40Z</time>
      </trkpt>
      <trkpt lat="41.7323400" lon="-5.2935550">
        <ele>711.9</ele>
        <time>2019-08-15T08:53:41Z</time>
      </trkpt>
      <trkpt lat="41.7323460" lon="-5.2936380">
        <ele>711.9</ele>
        <time>2019-08-15T08:53:42Z</time>
      </trkpt>
      <trkpt lat="41.7323530" lon="-5.2937200">
        <ele>711.9</ele>
        <time>2019-08-15T08:53:43Z</time>
      </trkpt>
      <trkpt lat="41.7323610" lon="-5.2938020">
        <ele>711.9</ele>
        <time>2019-08-15T08:53:44Z</time>
      </trkpt>
      <trkpt lat="41.7323680" lon="-5.2938810">
        <ele>711.8</ele>
        <time>2019-08-15T08:53:45Z</time>
      </trkpt>
      <trkpt lat="41.7323740" lon="-5.2939600">
        <ele>711.8</ele>
        <time>2019-08-15T08:53:46Z</time>
      </trkpt>
      <trkpt lat="41.7323820" lon="-5.2940390">
        <ele>711.7</ele>
        <time>2019-08-15T08:53:47Z</time>
      </trkpt>
      <trkpt lat="41.7323890" lon="-5.2941200">
        <ele>711.7</ele>
        <time>2019-08-15T08:53:48Z</time>
      </trkpt>
      <trkpt lat="41.7323970" lon="-5.2942020">
        <ele>711.6</ele>
        <time>2019-08-15T08:53:49Z</time>
      </trkpt>
      <trkpt lat="41.7324040" lon="-5.2942840">
        <ele>711.5</ele>
        <time>2019-08-15T08:53:50Z</time>
      </trkpt>
      <trkpt lat="41.7324110" lon="-5.2943670">
        <ele>711.4</ele>
        <time>2019-08-15T08:53:51Z</time>
      </trkpt>
      <trkpt lat="41.7324180" lon="-5.2944510">
        <ele>711.3</ele>
        <time>2019-08-15T08:53:52Z</time>
      </trkpt>
      <trkpt lat="41.7324240" lon="-5.2945320">
        <ele>711.2</ele>
        <time>2019-08-15T08:53:53Z</time>
      </trkpt>
      <trkpt lat="41.7324310" lon="-5.2946100">
        <ele>711.1</ele>
        <time>2019-08-15T08:53:54Z</time>
      </trkpt>
      <trkpt lat="41.7324360" lon="-5.2946900">
        <ele>711.1</ele>
        <time>2019-08-15T08:53:55Z</time>
      </trkpt>
      <trkpt lat="41.7324410" lon="-5.2947700">
        <ele>711.0</ele>
        <time>2019-08-15T08:53:56Z</time>
      </trkpt>
      <trkpt lat="41.7324480" lon="-5.2948510">
        <ele>711.0</ele>
        <time>2019-08-15T08:53:57Z</time>
      </trkpt>
      <trkpt lat="41.7324550" lon="-5.2949340">
        <ele>711.0</ele>
        <time>2019-08-15T08:53:58Z</time>
      </trkpt>
      <trkpt lat="41.7324610" lon="-5.2950160">
        <ele>711.0</ele>
        <time>2019-08-15T08:53:59Z</time>
      </trkpt>
      <trkpt lat="41.7324680" lon="-5.2950990">
        <ele>711.1</ele>
        <time>2019-08-15T08:54:00Z</time>
      </trkpt>
      <trkpt lat="41.7324750" lon="-5.2951840">
        <ele>711.1</ele>
        <time>2019-08-15T08:54:01Z</time>
      </trkpt>
      <trkpt lat="41.7324810" lon="-5.2952670">
        <ele>711.2</ele>
        <time>2019-08-15T08:54:02Z</time>
      </trkpt>
      <trkpt lat="41.7324880" lon="-5.2953510">
        <ele>711.3</ele>
        <time>2019-08-15T08:54:03Z</time>
      </trkpt>
      <trkpt lat="41.7324940" lon="-5.2954320">
        <ele>711.4</ele>
        <time>2019-08-15T08:54:04Z</time>
      </trkpt>
      <trkpt lat="41.7325010" lon="-5.2955140">
        <ele>711.4</ele>
        <time>2019-08-15T08:54:05Z</time>
      </trkpt>
      <trkpt lat="41.7325070" lon="-5.2955960">
        <ele>711.5</ele>
        <time>2019-08-15T08:54:06Z</time>
      </trkpt>
      <trkpt lat="41.7325140" lon="-5.2956800">
        <ele>711.5</ele>
        <time>2019-08-15T08:54:07Z</time>
      </trkpt>
      <trkpt lat="41.7325190" lon="-5.2957630">
        <ele>711.5</ele>
        <time>2019-08-15T08:54:08Z</time>
      </trkpt>
      <trkpt lat="41.7325250" lon="-5.2958470">
        <ele>711.5</ele>
        <time>2019-08-15T08:54:09Z</time>
      </trkpt>
      <trkpt lat="41.7325310" lon="-5.2959300">
        <ele>711.5</ele>
        <time>2019-08-15T08:54:10Z</time>
      </trkpt>
      <trkpt lat="41.7325370" lon="-5.2960130">
        <ele>711.5</ele>
        <time>2019-08-15T08:54:11Z</time>
      </trkpt>
      <trkpt lat="41.7325420" lon="-5.2960960">
        <ele>711.5</ele>
        <time>2019-08-15T08:54:12Z</time>
      </trkpt>
      <trkpt lat="41.7325480" lon="-5.2961800">
        <ele>711.4</ele>
        <time>2019-08-15T08:54:13Z</time>
      </trkpt>
      <trkpt lat="41.7325540" lon="-5.2962630">
        <ele>711.4</ele>
        <time>2019-08-15T08:54:14Z</time>
      </trkpt>
      <trkpt lat="41.7325590" lon="-5.2963490">
        <ele>711.3</ele>
        <time>2019-08-15T08:54:15Z</time>
      </trkpt>
      <trkpt lat="41.7325650" lon="-5.2964320">
        <ele>711.3</ele>
        <time>2019-08-15T08:54:16Z</time>
      </trkpt>
      <trkpt lat="41.7325690" lon="-5.2965130">
        <ele>711.2</ele>
        <time>2019-08-15T08:54:17Z</time>
      </trkpt>
      <trkpt lat="41.7325770" lon="-5.2965920">
        <ele>711.0</ele>
        <time>2019-08-15T08:54:18Z</time>
      </trkpt>
      <trkpt lat="41.7325840" lon="-5.2966730">
        <ele>710.9</ele>
        <time>2019-08-15T08:54:19Z</time>
      </trkpt>
      <trkpt lat="41.7325900" lon="-5.2967550">
        <ele>710.7</ele>
        <time>2019-08-15T08:54:20Z</time>
      </trkpt>
      <trkpt lat="41.7325970" lon="-5.2968380">
        <ele>710.6</ele>
        <time>2019-08-15T08:54:21Z</time>
      </trkpt>
      <trkpt lat="41.7326030" lon="-5.2969220">
        <ele>710.4</ele>
        <time>2019-08-15T08:54:22Z</time>
      </trkpt>
      <trkpt lat="41.7326090" lon="-5.2970020">
        <ele>710.2</ele>
        <time>2019-08-15T08:54:23Z</time>
      </trkpt>
      <trkpt lat="41.7326150" lon="-5.2970800">
        <ele>710.1</ele>
        <time>2019-08-15T08:54:24Z</time>
      </trkpt>
      <trkpt lat="41.7326230" lon="-5.2971590">
        <ele>709.9</ele>
        <time>2019-08-15T08:54:25Z</time>
      </trkpt>
      <trkpt lat="41.7326310" lon="-5.2972400">
        <ele>709.8</ele>
        <time>2019-08-15T08:54:26Z</time>
      </trkpt>
      <trkpt lat="41.7326380" lon="-5.2973190">
        <ele>709.7</ele>
        <time>2019-08-15T08:54:27Z</time>
      </trkpt>
      <trkpt lat="41.7326450" lon="-5.2973990">
        <ele>709.7</ele>
        <time>2019-08-15T08:54:28Z</time>
      </trkpt>
      <trkpt lat="41.7326530" lon="-5.2974780">
        <ele>709.6</ele>
        <time>2019-08-15T08:54:29Z</time>
      </trkpt>
      <trkpt lat="41.7326610" lon="-5.2975580">
        <ele>709.6</ele>
        <time>2019-08-15T08:54:30Z</time>
      </trkpt>
      <trkpt lat="41.7326680" lon="-5.2976380">
        <ele>709.6</ele>
        <time>2019-08-15T08:54:31Z</time>
      </trkpt>
      <trkpt lat="41.7326750" lon="-5.2977190">
        <ele>709.6</ele>
        <time>2019-08-15T08:54:32Z</time>
      </trkpt>
      <trkpt lat="41.7326810" lon="-5.2978020">
        <ele>709.7</ele>
        <time>2019-08-15T08:54:33Z</time>
      </trkpt>
      <trkpt lat="41.7326880" lon="-5.2978830">
        <ele>709.7</ele>
        <time>2019-08-15T08:54:34Z</time>
      </trkpt>
      <trkpt lat="41.7326950" lon="-5.2979650">
        <ele>709.7</ele>
        <time>2019-08-15T08:54:35Z</time>
      </trkpt>
      <trkpt lat="41.7327020" lon="-5.2980490">
        <ele>709.7</ele>
        <time>2019-08-15T08:54:36Z</time>
      </trkpt>
      <trkpt lat="41.7327060" lon="-5.2981320">
        <ele>709.7</ele>
        <time>2019-08-15T08:54:37Z</time>
      </trkpt>
      <trkpt lat="41.7327110" lon="-5.2982160">
        <ele>709.7</ele>
        <time>2019-08-15T08:54:38Z</time>
      </trkpt>
      <trkpt lat="41.7327170" lon="-5.2982990">
        <ele>709.6</ele>
        <time>2019-08-15T08:54:39Z</time>
      </trkpt>
      <trkpt lat="41.7327230" lon="-5.2983800">
        <ele>709.6</ele>
        <time>2019-08-15T08:54:40Z</time>
      </trkpt>
      <trkpt lat="41.7327280" lon="-5.2984590">
        <ele>709.5</ele>
        <time>2019-08-15T08:54:41Z</time>
      </trkpt>
      <trkpt lat="41.7327330" lon="-5.2985380">
        <ele>709.5</ele>
        <time>2019-08-15T08:54:42Z</time>
      </trkpt>
      <trkpt lat="41.7327400" lon="-5.2986180">
        <ele>709.4</ele>
        <time>2019-08-15T08:54:43Z</time>
      </trkpt>
      <trkpt lat="41.7327460" lon="-5.2987000">
        <ele>709.3</ele>
        <time>2019-08-15T08:54:44Z</time>
      </trkpt>
      <trkpt lat="41.7327520" lon="-5.2987820">
        <ele>709.1</ele>
        <time>2019-08-15T08:54:45Z</time>
      </trkpt>
      <trkpt lat="41.7327570" lon="-5.2988640">
        <ele>709.1</ele>
        <time>2019-08-15T08:54:46Z</time>
      </trkpt>
      <trkpt lat="41.7327610" lon="-5.2989480">
        <ele>709.0</ele>
        <time>2019-08-15T08:54:47Z</time>
      </trkpt>
      <trkpt lat="41.7327650" lon="-5.2990320">
        <ele>709.0</ele>
        <time>2019-08-15T08:54:48Z</time>
      </trkpt>
      <trkpt lat="41.7327680" lon="-5.2991140">
        <ele>709.0</ele>
        <time>2019-08-15T08:54:49Z</time>
      </trkpt>
      <trkpt lat="41.7327730" lon="-5.2991970">
        <ele>709.0</ele>
        <time>2019-08-15T08:54:50Z</time>
      </trkpt>
      <trkpt lat="41.7327760" lon="-5.2992760">
        <ele>709.0</ele>
        <time>2019-08-15T08:54:51Z</time>
      </trkpt>
      <trkpt lat="41.7327790" lon="-5.2993540">
        <ele>709.0</ele>
        <time>2019-08-15T08:54:52Z</time>
      </trkpt>
      <trkpt lat="41.7327810" lon="-5.2994340">
        <ele>709.1</ele>
        <time>2019-08-15T08:54:53Z</time>
      </trkpt>
      <trkpt lat="41.7327830" lon="-5.2995150">
        <ele>709.1</ele>
        <time>2019-08-15T08:54:54Z</time>
      </trkpt>
      <trkpt lat="41.7327850" lon="-5.2995970">
        <ele>709.2</ele>
        <time>2019-08-15T08:54:55Z</time>
      </trkpt>
      <trkpt lat="41.7327890" lon="-5.2996790">
        <ele>709.2</ele>
        <time>2019-08-15T08:54:56Z</time>
      </trkpt>
      <trkpt lat="41.7327930" lon="-5.2997620">
        <ele>709.2</ele>
        <time>2019-08-15T08:54:57Z</time>
      </trkpt>
      <trkpt lat="41.7327960" lon="-5.2998450">
        <ele>709.3</ele>
        <time>2019-08-15T08:54:58Z</time>
      </trkpt>
      <trkpt lat="41.7327980" lon="-5.2999280">
        <ele>709.3</ele>
        <time>2019-08-15T08:54:59Z</time>
      </trkpt>
      <trkpt lat="41.7328000" lon="-5.3000120">
        <ele>709.3</ele>
        <time>2019-08-15T08:55:00Z</time>
      </trkpt>
      <trkpt lat="41.7328040" lon="-5.3000960">
        <ele>709.3</ele>
        <time>2019-08-15T08:55:01Z</time>
      </trkpt>
      <trkpt lat="41.7328070" lon="-5.3001800">
        <ele>709.3</ele>
        <time>2019-08-15T08:55:02Z</time>
      </trkpt>
      <trkpt lat="41.7328110" lon="-5.3002640">
        <ele>709.3</ele>
        <time>2019-08-15T08:55:03Z</time>
      </trkpt>
      <trkpt lat="41.7328150" lon="-5.3003490">
        <ele>709.3</ele>
        <time>2019-08-15T08:55:04Z</time>
      </trkpt>
      <trkpt lat="41.7328180" lon="-5.3004350">
        <ele>709.3</ele>
        <time>2019-08-15T08:55:05Z</time>
      </trkpt>
      <trkpt lat="41.7328210" lon="-5.3005210">
        <ele>709.3</ele>
        <time>2019-08-15T08:55:06Z</time>
      </trkpt>
      <trkpt lat="41.7328240" lon="-5.3006070">
        <ele>709.3</ele>
        <time>2019-08-15T08:55:07Z</time>
      </trkpt>
      <trkpt lat="41.7328270" lon="-5.3006920">
        <ele>709.3</ele>
        <time>2019-08-15T08:55:08Z</time>
      </trkpt>
      <trkpt lat="41.7328290" lon="-5.3007760">
        <ele>709.3</ele>
        <time>2019-08-15T08:55:09Z</time>
      </trkpt>
      <trkpt lat="41.7328290" lon="-5.3008590">
        <ele>709.3</ele>
        <time>2019-08-15T08:55:10Z</time>
      </trkpt>
      <trkpt lat="41.7328290" lon="-5.3009440">
        <ele>709.3</ele>
        <time>2019-08-15T08:55:11Z</time>
      </trkpt>
      <trkpt lat="41.7328300" lon="-5.3010310">
        <ele>709.3</ele>
        <time>2019-08-15T08:55:12Z</time>
      </trkpt>
      <trkpt lat="41.7328320" lon="-5.3011180">
        <ele>709.3</ele>
        <time>2019-08-15T08:55:13Z</time>
      </trkpt>
      <trkpt lat="41.7328350" lon="-5.3012050">
        <ele>709.2</ele>
        <time>2019-08-15T08:55:14Z</time>
      </trkpt>
      <trkpt lat="41.7328380" lon="-5.3012930">
        <ele>709.2</ele>
        <time>2019-08-15T08:55:15Z</time>
      </trkpt>
      <trkpt lat="41.7328410" lon="-5.3013800">
        <ele>709.2</ele>
        <time>2019-08-15T08:55:16Z</time>
      </trkpt>
      <trkpt lat="41.7328430" lon="-5.3014680">
        <ele>709.2</ele>
        <time>2019-08-15T08:55:17Z</time>
      </trkpt>
      <trkpt lat="41.7328450" lon="-5.3015560">
        <ele>709.1</ele>
        <time>2019-08-15T08:55:18Z</time>
      </trkpt>
      <trkpt lat="41.7328480" lon="-5.3016450">
        <ele>709.0</ele>
        <time>2019-08-15T08:55:19Z</time>
      </trkpt>
      <trkpt lat="41.7328510" lon="-5.3017340">
        <ele>708.9</ele>
        <time>2019-08-15T08:55:20Z</time>
      </trkpt>
      <trkpt lat="41.7328560" lon="-5.3018220">
        <ele>708.9</ele>
        <time>2019-08-15T08:55:21Z</time>
      </trkpt>
      <trkpt lat="41.7328600" lon="-5.3019110">
        <ele>708.8</ele>
        <time>2019-08-15T08:55:22Z</time>
      </trkpt>
      <trkpt lat="41.7328640" lon="-5.3020010">
        <ele>708.6</ele>
        <time>2019-08-15T08:55:23Z</time>
      </trkpt>
      <trkpt lat="41.7328670" lon="-5.3020910">
        <ele>708.5</ele>
        <time>2019-08-15T08:55:24Z</time>
      </trkpt>
      <trkpt lat="41.7328710" lon="-5.3021800">
        <ele>708.4</ele>
        <time>2019-08-15T08:55:25Z</time>
      </trkpt>
      <trkpt lat="41.7328750" lon="-5.3022680">
        <ele>708.3</ele>
        <time>2019-08-15T08:55:26Z</time>
      </trkpt>
      <trkpt lat="41.7328780" lon="-5.3023580">
        <ele>708.3</ele>
        <time>2019-08-15T08:55:27Z</time>
      </trkpt>
      <trkpt lat="41.7328810" lon="-5.3024480">
        <ele>708.3</ele>
        <time>2019-08-15T08:55:28Z</time>
      </trkpt>
      <trkpt lat="41.7328850" lon="-5.3025390">
        <ele>708.3</ele>
        <time>2019-08-15T08:55:29Z</time>
      </trkpt>
      <trkpt lat="41.7328880" lon="-5.3026320">
        <ele>708.3</ele>
        <time>2019-08-15T08:55:30Z</time>
      </trkpt>
      <trkpt lat="41.7328910" lon="-5.3027250">
        <ele>708.3</ele>
        <time>2019-08-15T08:55:31Z</time>
      </trkpt>
      <trkpt lat="41.7328930" lon="-5.3028170">
        <ele>708.3</ele>
        <time>2019-08-15T08:55:32Z</time>
      </trkpt>
      <trkpt lat="41.7328960" lon="-5.3029100">
        <ele>708.4</ele>
        <time>2019-08-15T08:55:33Z</time>
      </trkpt>
      <trkpt lat="41.7328990" lon="-5.3030030">
        <ele>708.4</ele>
        <time>2019-08-15T08:55:34Z</time>
      </trkpt>
      <trkpt lat="41.7329030" lon="-5.3030960">
        <ele>708.4</ele>
        <time>2019-08-15T08:55:35Z</time>
      </trkpt>
      <trkpt lat="41.7329070" lon="-5.3031890">
        <ele>708.4</ele>
        <time>2019-08-15T08:55:36Z</time>
      </trkpt>
      <trkpt lat="41.7329110" lon="-5.3032810">
        <ele>708.4</ele>
        <time>2019-08-15T08:55:37Z</time>
      </trkpt>
      <trkpt lat="41.7329170" lon="-5.3033720">
        <ele>708.5</ele>
        <time>2019-08-15T08:55:38Z</time>
      </trkpt>
      <trkpt lat="41.7329200" lon="-5.3034630">
        <ele>708.5</ele>
        <time>2019-08-15T08:55:39Z</time>
      </trkpt>
      <trkpt lat="41.7329250" lon="-5.3035540">
        <ele>708.5</ele>
        <time>2019-08-15T08:55:40Z</time>
      </trkpt>
      <trkpt lat="41.7329290" lon="-5.3036450">
        <ele>708.5</ele>
        <time>2019-08-15T08:55:41Z</time>
      </trkpt>
      <trkpt lat="41.7329340" lon="-5.3037350">
        <ele>708.5</ele>
        <time>2019-08-15T08:55:42Z</time>
      </trkpt>
      <trkpt lat="41.7329400" lon="-5.3038240">
        <ele>708.5</ele>
        <time>2019-08-15T08:55:43Z</time>
      </trkpt>
      <trkpt lat="41.7329460" lon="-5.3039140">
        <ele>708.5</ele>
        <time>2019-08-15T08:55:44Z</time>
      </trkpt>
      <trkpt lat="41.7329510" lon="-5.3040030">
        <ele>708.5</ele>
        <time>2019-08-15T08:55:45Z</time>
      </trkpt>
      <trkpt lat="41.7329550" lon="-5.3040930">
        <ele>708.6</ele>
        <time>2019-08-15T08:55:46Z</time>
      </trkpt>
      <trkpt lat="41.7329580" lon="-5.3041820">
        <ele>708.6</ele>
        <time>2019-08-15T08:55:47Z</time>
      </trkpt>
      <trkpt lat="41.7329610" lon="-5.3042720">
        <ele>708.7</ele>
        <time>2019-08-15T08:55:48Z</time>
      </trkpt>
      <trkpt lat="41.7329640" lon="-5.3043620">
        <ele>708.7</ele>
        <time>2019-08-15T08:55:49Z</time>
      </trkpt>
      <trkpt lat="41.7329670" lon="-5.3044510">
        <ele>708.8</ele>
        <time>2019-08-15T08:55:50Z</time>
      </trkpt>
      <trkpt lat="41.7329700" lon="-5.3045410">
        <ele>708.9</ele>
        <time>2019-08-15T08:55:51Z</time>
      </trkpt>
      <trkpt lat="41.7329720" lon="-5.3046310">
        <ele>708.9</ele>
        <time>2019-08-15T08:55:52Z</time>
      </trkpt>
      <trkpt lat="41.7329750" lon="-5.3047200">
        <ele>709.0</ele>
        <time>2019-08-15T08:55:53Z</time>
      </trkpt>
      <trkpt lat="41.7329790" lon="-5.3048100">
        <ele>709.0</ele>
        <time>2019-08-15T08:55:54Z</time>
      </trkpt>
      <trkpt lat="41.7329810" lon="-5.3049000">
        <ele>709.0</ele>
        <time>2019-08-15T08:55:55Z</time>
      </trkpt>
      <trkpt lat="41.7329840" lon="-5.3049900">
        <ele>709.0</ele>
        <time>2019-08-15T08:55:56Z</time>
      </trkpt>
      <trkpt lat="41.7329880" lon="-5.3050800">
        <ele>709.0</ele>
        <time>2019-08-15T08:55:57Z</time>
      </trkpt>
      <trkpt lat="41.7329930" lon="-5.3051700">
        <ele>709.0</ele>
        <time>2019-08-15T08:55:58Z</time>
      </trkpt>
      <trkpt lat="41.7329960" lon="-5.3052590">
        <ele>708.9</ele>
        <time>2019-08-15T08:55:59Z</time>
      </trkpt>
      <trkpt lat="41.7330000" lon="-5.3053480">
        <ele>708.9</ele>
        <time>2019-08-15T08:56:00Z</time>
      </trkpt>
      <trkpt lat="41.7330030" lon="-5.3054370">
        <ele>708.9</ele>
        <time>2019-08-15T08:56:01Z</time>
      </trkpt>
      <trkpt lat="41.7330060" lon="-5.3055270">
        <ele>708.9</ele>
        <time>2019-08-15T08:56:02Z</time>
      </trkpt>
      <trkpt lat="41.7330100" lon="-5.3056160">
        <ele>708.8</ele>
        <time>2019-08-15T08:56:03Z</time>
      </trkpt>
      <trkpt lat="41.7330130" lon="-5.3057050">
        <ele>708.7</ele>
        <time>2019-08-15T08:56:04Z</time>
      </trkpt>
      <trkpt lat="41.7330160" lon="-5.3057930">
        <ele>708.7</ele>
        <time>2019-08-15T08:56:05Z</time>
      </trkpt>
      <trkpt lat="41.7330190" lon="-5.3058790">
        <ele>708.6</ele>
        <time>2019-08-15T08:56:06Z</time>
      </trkpt>
      <trkpt lat="41.7330220" lon="-5.3059630">
        <ele>708.5</ele>
        <time>2019-08-15T08:56:07Z</time>
      </trkpt>
      <trkpt lat="41.7330260" lon="-5.3060490">
        <ele>708.4</ele>
        <time>2019-08-15T08:56:08Z</time>
      </trkpt>
      <trkpt lat="41.7330290" lon="-5.3061340">
        <ele>708.3</ele>
        <time>2019-08-15T08:56:09Z</time>
      </trkpt>
      <trkpt lat="41.7330320" lon="-5.3062210">
        <ele>708.2</ele>
        <time>2019-08-15T08:56:10Z</time>
      </trkpt>
      <trkpt lat="41.7330360" lon="-5.3063080">
        <ele>708.1</ele>
        <time>2019-08-15T08:56:11Z</time>
      </trkpt>
      <trkpt lat="41.7330390" lon="-5.3063950">
        <ele>708.0</ele>
        <time>2019-08-15T08:56:12Z</time>
      </trkpt>
      <trkpt lat="41.7330420" lon="-5.3064830">
        <ele>707.9</ele>
        <time>2019-08-15T08:56:13Z</time>
      </trkpt>
      <trkpt lat="41.7330450" lon="-5.3065700">
        <ele>707.8</ele>
        <time>2019-08-15T08:56:14Z</time>
      </trkpt>
      <trkpt lat="41.7330480" lon="-5.3066580">
        <ele>707.8</ele>
        <time>2019-08-15T08:56:15Z</time>
      </trkpt>
      <trkpt lat="41.7330520" lon="-5.3067460">
        <ele>707.7</ele>
        <time>2019-08-15T08:56:16Z</time>
      </trkpt>
      <trkpt lat="41.7330560" lon="-5.3068330">
        <ele>707.7</ele>
        <time>2019-08-15T08:56:17Z</time>
      </trkpt>
      <trkpt lat="41.7330580" lon="-5.3069190">
        <ele>707.7</ele>
        <time>2019-08-15T08:56:18Z</time>
      </trkpt>
      <trkpt lat="41.7330620" lon="-5.3070040">
        <ele>707.6</ele>
        <time>2019-08-15T08:56:19Z</time>
      </trkpt>
      <trkpt lat="41.7330650" lon="-5.3070890">
        <ele>707.6</ele>
        <time>2019-08-15T08:56:20Z</time>
      </trkpt>
      <trkpt lat="41.7330670" lon="-5.3071750">
        <ele>707.5</ele>
        <time>2019-08-15T08:56:21Z</time>
      </trkpt>
      <trkpt lat="41.7330710" lon="-5.3072620">
        <ele>707.5</ele>
        <time>2019-08-15T08:56:22Z</time>
      </trkpt>
      <trkpt lat="41.7330740" lon="-5.3073490">
        <ele>707.5</ele>
        <time>2019-08-15T08:56:23Z</time>
      </trkpt>
      <trkpt lat="41.7330790" lon="-5.3074360">
        <ele>707.5</ele>
        <time>2019-08-15T08:56:24Z</time>
      </trkpt>
      <trkpt lat="41.7330820" lon="-5.3075250">
        <ele>707.5</ele>
        <time>2019-08-15T08:56:25Z</time>
      </trkpt>
      <trkpt lat="41.7330830" lon="-5.3076140">
        <ele>707.5</ele>
        <time>2019-08-15T08:56:26Z</time>
      </trkpt>
      <trkpt lat="41.7330850" lon="-5.3077010">
        <ele>707.5</ele>
        <time>2019-08-15T08:56:27Z</time>
      </trkpt>
      <trkpt lat="41.7330870" lon="-5.3077880">
        <ele>707.5</ele>
        <time>2019-08-15T08:56:28Z</time>
      </trkpt>
      <trkpt lat="41.7330900" lon="-5.3078760">
        <ele>707.5</ele>
        <time>2019-08-15T08:56:29Z</time>
      </trkpt>
      <trkpt lat="41.7330950" lon="-5.3079640">
        <ele>707.5</ele>
        <time>2019-08-15T08:56:30Z</time>
      </trkpt>
      <trkpt lat="41.7330980" lon="-5.3080520">
        <ele>707.5</ele>
        <time>2019-08-15T08:56:31Z</time>
      </trkpt>
      <trkpt lat="41.7331030" lon="-5.3081410">
        <ele>707.4</ele>
        <time>2019-08-15T08:56:32Z</time>
      </trkpt>
      <trkpt lat="41.7331060" lon="-5.3082290">
        <ele>707.4</ele>
        <time>2019-08-15T08:56:33Z</time>
      </trkpt>
      <trkpt lat="41.7331090" lon="-5.3083170">
        <ele>707.3</ele>
        <time>2019-08-15T08:56:34Z</time>
      </trkpt>
      <trkpt lat="41.7331110" lon="-5.3084040">
        <ele>707.2</ele>
        <time>2019-08-15T08:56:35Z</time>
      </trkpt>
      <trkpt lat="41.7331110" lon="-5.3084920">
        <ele>707.2</ele>
        <time>2019-08-15T08:56:36Z</time>
      </trkpt>
      <trkpt lat="41.7331130" lon="-5.3085800">
        <ele>707.1</ele>
        <time>2019-08-15T08:56:37Z</time>
      </trkpt>
      <trkpt lat="41.7331170" lon="-5.3086680">
        <ele>707.0</ele>
        <time>2019-08-15T08:56:38Z</time>
      </trkpt>
      <trkpt lat="41.7331210" lon="-5.3087550">
        <ele>706.9</ele>
        <time>2019-08-15T08:56:39Z</time>
      </trkpt>
      <trkpt lat="41.7331240" lon="-5.3088410">
        <ele>706.8</ele>
        <time>2019-08-15T08:56:40Z</time>
      </trkpt>
      <trkpt lat="41.7331260" lon="-5.3089270">
        <ele>706.7</ele>
        <time>2019-08-15T08:56:41Z</time>
      </trkpt>
      <trkpt lat="41.7331300" lon="-5.3090120">
        <ele>706.6</ele>
        <time>2019-08-15T08:56:42Z</time>
      </trkpt>
      <trkpt lat="41.7331330" lon="-5.3090990">
        <ele>706.5</ele>
        <time>2019-08-15T08:56:43Z</time>
      </trkpt>
      <trkpt lat="41.7331360" lon="-5.3091860">
        <ele>706.3</ele>
        <time>2019-08-15T08:56:44Z</time>
      </trkpt>
      <trkpt lat="41.7331380" lon="-5.3092750">
        <ele>706.1</ele>
        <time>2019-08-15T08:56:45Z</time>
      </trkpt>
      <trkpt lat="41.7331420" lon="-5.3093630">
        <ele>705.9</ele>
        <time>2019-08-15T08:56:46Z</time>
      </trkpt>
      <trkpt lat="41.7331460" lon="-5.3094510">
        <ele>705.8</ele>
        <time>2019-08-15T08:56:47Z</time>
      </trkpt>
      <trkpt lat="41.7331510" lon="-5.3095380">
        <ele>705.6</ele>
        <time>2019-08-15T08:56:48Z</time>
      </trkpt>
      <trkpt lat="41.7331540" lon="-5.3096250">
        <ele>705.4</ele>
        <time>2019-08-15T08:56:49Z</time>
      </trkpt>
      <trkpt lat="41.7331590" lon="-5.3097090">
        <ele>705.4</ele>
        <time>2019-08-15T08:56:50Z</time>
      </trkpt>
      <trkpt lat="41.7331620" lon="-5.3097900">
        <ele>705.3</ele>
        <time>2019-08-15T08:56:51Z</time>
      </trkpt>
      <trkpt lat="41.7331650" lon="-5.3098700">
        <ele>705.3</ele>
        <time>2019-08-15T08:56:52Z</time>
      </trkpt>
      <trkpt lat="41.7331660" lon="-5.3099520">
        <ele>705.3</ele>
        <time>2019-08-15T08:56:53Z</time>
      </trkpt>
      <trkpt lat="41.7331670" lon="-5.3100340">
        <ele>705.4</ele>
        <time>2019-08-15T08:56:54Z</time>
      </trkpt>
      <trkpt lat="41.7331700" lon="-5.3101180">
        <ele>705.5</ele>
        <time>2019-08-15T08:56:55Z</time>
      </trkpt>
      <trkpt lat="41.7331740" lon="-5.3102020">
        <ele>705.7</ele>
        <time>2019-08-15T08:56:56Z</time>
      </trkpt>
      <trkpt lat="41.7331790" lon="-5.3102860">
        <ele>705.8</ele>
        <time>2019-08-15T08:56:57Z</time>
      </trkpt>
      <trkpt lat="41.7331820" lon="-5.3103700">
        <ele>706.0</ele>
        <time>2019-08-15T08:56:58Z</time>
      </trkpt>
      <trkpt lat="41.7331850" lon="-5.3104530">
        <ele>706.1</ele>
        <time>2019-08-15T08:56:59Z</time>
      </trkpt>
      <trkpt lat="41.7331880" lon="-5.3105380">
        <ele>706.3</ele>
        <time>2019-08-15T08:57:00Z</time>
      </trkpt>
      <trkpt lat="41.7331930" lon="-5.3106220">
        <ele>706.4</ele>
        <time>2019-08-15T08:57:01Z</time>
      </trkpt>
      <trkpt lat="41.7331970" lon="-5.3107030">
        <ele>706.5</ele>
        <time>2019-08-15T08:57:02Z</time>
      </trkpt>
      <trkpt lat="41.7332010" lon="-5.3107820">
        <ele>706.5</ele>
        <time>2019-08-15T08:57:03Z</time>
      </trkpt>
      <trkpt lat="41.7332060" lon="-5.3108600">
        <ele>706.6</ele>
        <time>2019-08-15T08:57:04Z</time>
      </trkpt>
      <trkpt lat="41.7332090" lon="-5.3109370">
        <ele>706.6</ele>
        <time>2019-08-15T08:57:05Z</time>
      </trkpt>
      <trkpt lat="41.7332110" lon="-5.3110140">
        <ele>706.6</ele>
        <time>2019-08-15T08:57:06Z</time>
      </trkpt>
      <trkpt lat="41.7332130" lon="-5.3110930">
        <ele>706.6</ele>
        <time>2019-08-15T08:57:07Z</time>
      </trkpt>
      <trkpt lat="41.7332160" lon="-5.3111740">
        <ele>706.6</ele>
        <time>2019-08-15T08:57:08Z</time>
      </trkpt>
      <trkpt lat="41.7332180" lon="-5.3112520">
        <ele>706.6</ele>
        <time>2019-08-15T08:57:09Z</time>
      </trkpt>
      <trkpt lat="41.7332200" lon="-5.3113300">
        <ele>706.6</ele>
        <time>2019-08-15T08:57:10Z</time>
      </trkpt>
      <trkpt lat="41.7332240" lon="-5.3114090">
        <ele>706.5</ele>
        <time>2019-08-15T08:57:11Z</time>
      </trkpt>
      <trkpt lat="41.7332290" lon="-5.3114880">
        <ele>706.5</ele>
        <time>2019-08-15T08:57:12Z</time>
      </trkpt>
      <trkpt lat="41.7332330" lon="-5.3115690">
        <ele>706.4</ele>
        <time>2019-08-15T08:57:13Z</time>
      </trkpt>
      <trkpt lat="41.7332370" lon="-5.3116490">
        <ele>706.4</ele>
        <time>2019-08-15T08:57:14Z</time>
      </trkpt>
      <trkpt lat="41.7332420" lon="-5.3117280">
        <ele>706.3</ele>
        <time>2019-08-15T08:57:15Z</time>
      </trkpt>
      <trkpt lat="41.7332460" lon="-5.3118090">
        <ele>706.1</ele>
        <time>2019-08-15T08:57:16Z</time>
      </trkpt>
      <trkpt lat="41.7332520" lon="-5.3118890">
        <ele>706.0</ele>
        <time>2019-08-15T08:57:17Z</time>
      </trkpt>
      <trkpt lat="41.7332570" lon="-5.3119670">
        <ele>705.8</ele>
        <time>2019-08-15T08:57:18Z</time>
      </trkpt>
      <trkpt lat="41.7332620" lon="-5.3120430">
        <ele>705.7</ele>
        <time>2019-08-15T08:57:19Z</time>
      </trkpt>
      <trkpt lat="41.7332670" lon="-5.3121160">
        <ele>705.6</ele>
        <time>2019-08-15T08:57:20Z</time>
      </trkpt>
      <trkpt lat="41.7332730" lon="-5.3121860">
        <ele>705.6</ele>
        <time>2019-08-15T08:57:21Z</time>
      </trkpt>
      <trkpt lat="41.7332790" lon="-5.3122570">
        <ele>705.5</ele>
        <time>2019-08-15T08:57:22Z</time>
      </trkpt>
      <trkpt lat="41.7332840" lon="-5.3123280">
        <ele>705.5</ele>
        <time>2019-08-15T08:57:23Z</time>
      </trkpt>
      <trkpt lat="41.7332900" lon="-5.3123950">
        <ele>705.5</ele>
        <time>2019-08-15T08:57:24Z</time>
      </trkpt>
      <trkpt lat="41.7332950" lon="-5.3124610">
        <ele>705.5</ele>
        <time>2019-08-15T08:57:25Z</time>
      </trkpt>
      <trkpt lat="41.7332990" lon="-5.3125250">
        <ele>705.6</ele>
        <time>2019-08-15T08:57:26Z</time>
      </trkpt>
      <trkpt lat="41.7333040" lon="-5.3125860">
        <ele>705.7</ele>
        <time>2019-08-15T08:57:27Z</time>
      </trkpt>
      <trkpt lat="41.7333100" lon="-5.3126450">
        <ele>705.8</ele>
        <time>2019-08-15T08:57:28Z</time>
      </trkpt>
      <trkpt lat="41.7333150" lon="-5.3127080">
        <ele>705.9</ele>
        <time>2019-08-15T08:57:29Z</time>
      </trkpt>
      <trkpt lat="41.7333190" lon="-5.3127770">
        <ele>706.0</ele>
        <time>2019-08-15T08:57:30Z</time>
      </trkpt>
      <trkpt lat="41.7333210" lon="-5.3128480">
        <ele>706.1</ele>
        <time>2019-08-15T08:57:31Z</time>
      </trkpt>
      <trkpt lat="41.7333230" lon="-5.3129210">
        <ele>706.3</ele>
        <time>2019-08-15T08:57:32Z</time>
      </trkpt>
      <trkpt lat="41.7333240" lon="-5.3129940">
        <ele>706.4</ele>
        <time>2019-08-15T08:57:33Z</time>
      </trkpt>
      <trkpt lat="41.7333240" lon="-5.3130710">
        <ele>706.6</ele>
        <time>2019-08-15T08:57:34Z</time>
      </trkpt>
      <trkpt lat="41.7333250" lon="-5.3131480">
        <ele>706.7</ele>
        <time>2019-08-15T08:57:35Z</time>
      </trkpt>
      <trkpt lat="41.7333270" lon="-5.3132250">
        <ele>706.7</ele>
        <time>2019-08-15T08:57:36Z</time>
      </trkpt>
      <trkpt lat="41.7333280" lon="-5.3133020">
        <ele>706.8</ele>
        <time>2019-08-15T08:57:37Z</time>
      </trkpt>
      <trkpt lat="41.7333310" lon="-5.3133780">
        <ele>706.8</ele>
        <time>2019-08-15T08:57:38Z</time>
      </trkpt>
      <trkpt lat="41.7333370" lon="-5.3134530">
        <ele>706.8</ele>
        <time>2019-08-15T08:57:39Z</time>
      </trkpt>
      <trkpt lat="41.7333430" lon="-5.3135260">
        <ele>706.8</ele>
        <time>2019-08-15T08:57:40Z</time>
      </trkpt>
      <trkpt lat="41.7333530" lon="-5.3135970">
        <ele>706.8</ele>
        <time>2019-08-15T08:57:41Z</time>
      </trkpt>
      <trkpt lat="41.7333620" lon="-5.3136680">
        <ele>706.8</ele>
        <time>2019-08-15T08:57:42Z</time>
      </trkpt>
      <trkpt lat="41.7333740" lon="-5.3137420">
        <ele>706.8</ele>
        <time>2019-08-15T08:57:43Z</time>
      </trkpt>
      <trkpt lat="41.7333870" lon="-5.3138170">
        <ele>706.8</ele>
        <time>2019-08-15T08:57:44Z</time>
      </trkpt>
      <trkpt lat="41.7334020" lon="-5.3138910">
        <ele>706.8</ele>
        <time>2019-08-15T08:57:45Z</time>
      </trkpt>
      <trkpt lat="41.7334170" lon="-5.3139640">
        <ele>706.8</ele>
        <time>2019-08-15T08:57:46Z</time>
      </trkpt>
      <trkpt lat="41.7334290" lon="-5.3140380">
        <ele>706.8</ele>
        <time>2019-08-15T08:57:47Z</time>
      </trkpt>
      <trkpt lat="41.7334380" lon="-5.3141120">
        <ele>706.8</ele>
        <time>2019-08-15T08:57:48Z</time>
      </trkpt>
      <trkpt lat="41.7334460" lon="-5.3141870">
        <ele>706.8</ele>
        <time>2019-08-15T08:57:49Z</time>
      </trkpt>
      <trkpt lat="41.7334520" lon="-5.3142620">
        <ele>706.9</ele>
        <time>2019-08-15T08:57:50Z</time>
      </trkpt>
      <trkpt lat="41.7334570" lon="-5.3143380">
        <ele>706.9</ele>
        <time>2019-08-15T08:57:51Z</time>
      </trkpt>
      <trkpt lat="41.7334600" lon="-5.3144140">
        <ele>706.9</ele>
        <time>2019-08-15T08:57:52Z</time>
      </trkpt>
      <trkpt lat="41.7334620" lon="-5.3144890">
        <ele>707.0</ele>
        <time>2019-08-15T08:57:53Z</time>
      </trkpt>
      <trkpt lat="41.7334620" lon="-5.3145640">
        <ele>707.0</ele>
        <time>2019-08-15T08:57:54Z</time>
      </trkpt>
      <trkpt lat="41.7334610" lon="-5.3146410">
        <ele>707.0</ele>
        <time>2019-08-15T08:57:55Z</time>
      </trkpt>
      <trkpt lat="41.7334570" lon="-5.3147180">
        <ele>707.0</ele>
        <time>2019-08-15T08:57:56Z</time>
      </trkpt>
      <trkpt lat="41.7334490" lon="-5.3147950">
        <ele>707.0</ele>
        <time>2019-08-15T08:57:57Z</time>
      </trkpt>
      <trkpt lat="41.7334410" lon="-5.3148720">
        <ele>706.9</ele>
        <time>2019-08-15T08:57:58Z</time>
      </trkpt>
      <trkpt lat="41.7334340" lon="-5.3149500">
        <ele>706.9</ele>
        <time>2019-08-15T08:57:59Z</time>
      </trkpt>
      <trkpt lat="41.7334290" lon="-5.3150280">
        <ele>706.8</ele>
        <time>2019-08-15T08:58:00Z</time>
      </trkpt>
      <trkpt lat="41.7334220" lon="-5.3151060">
        <ele>706.7</ele>
        <time>2019-08-15T08:58:01Z</time>
      </trkpt>
      <trkpt lat="41.7334160" lon="-5.3151840">
        <ele>706.7</ele>
        <time>2019-08-15T08:58:02Z</time>
      </trkpt>
      <trkpt lat="41.7334070" lon="-5.3152590">
        <ele>706.6</ele>
        <time>2019-08-15T08:58:03Z</time>
      </trkpt>
      <trkpt lat="41.7333980" lon="-5.3153320">
        <ele>706.5</ele>
        <time>2019-08-15T08:58:04Z</time>
      </trkpt>
      <trkpt lat="41.7333910" lon="-5.3154060">
        <ele>706.4</ele>
        <time>2019-08-15T08:58:05Z</time>
      </trkpt>
      <trkpt lat="41.7333860" lon="-5.3154790">
        <ele>706.3</ele>
        <time>2019-08-15T08:58:06Z</time>
      </trkpt>
      <trkpt lat="41.7333860" lon="-5.3155500">
        <ele>706.2</ele>
        <time>2019-08-15T08:58:07Z</time>
      </trkpt>
      <trkpt lat="41.7333870" lon="-5.3156190">
        <ele>706.1</ele>
        <time>2019-08-15T08:58:08Z</time>
      </trkpt>
      <trkpt lat="41.7333880" lon="-5.3156880">
        <ele>706.1</ele>
        <time>2019-08-15T08:58:09Z</time>
      </trkpt>
      <trkpt lat="41.7333900" lon="-5.3157550">
        <ele>706.0</ele>
        <time>2019-08-15T08:58:10Z</time>
      </trkpt>
      <trkpt lat="41.7333930" lon="-5.3158220">
        <ele>705.9</ele>
        <time>2019-08-15T08:58:11Z</time>
      </trkpt>
      <trkpt lat="41.7333990" lon="-5.3158890">
        <ele>705.9</ele>
        <time>2019-08-15T08:58:12Z</time>
      </trkpt>
      <trkpt lat="41.7334070" lon="-5.3159540">
        <ele>705.8</ele>
        <time>2019-08-15T08:58:13Z</time>
      </trkpt>
      <trkpt lat="41.7334140" lon="-5.3160180">
        <ele>705.8</ele>
        <time>2019-08-15T08:58:14Z</time>
      </trkpt>
      <trkpt lat="41.7334210" lon="-5.3160820">
        <ele>705.8</ele>
        <time>2019-08-15T08:58:15Z</time>
      </trkpt>
      <trkpt lat="41.7334250" lon="-5.3161470">
        <ele>705.7</ele>
        <time>2019-08-15T08:58:16Z</time>
      </trkpt>
      <trkpt lat="41.7334300" lon="-5.3162120">
        <ele>705.6</ele>
        <time>2019-08-15T08:58:17Z</time>
      </trkpt>
      <trkpt lat="41.7334380" lon="-5.3162790">
        <ele>705.5</ele>
        <time>2019-08-15T08:58:18Z</time>
      </trkpt>
      <trkpt lat="41.7334470" lon="-5.3163510">
        <ele>705.4</ele>
        <time>2019-08-15T08:58:19Z</time>
      </trkpt>
      <trkpt lat="41.7334580" lon="-5.3164240">
        <ele>705.4</ele>
        <time>2019-08-15T08:58:20Z</time>
      </trkpt>
      <trkpt lat="41.7334690" lon="-5.3165000">
        <ele>705.3</ele>
        <time>2019-08-15T08:58:21Z</time>
      </trkpt>
      <trkpt lat="41.7334820" lon="-5.3165780">
        <ele>705.3</ele>
        <time>2019-08-15T08:58:22Z</time>
      </trkpt>
      <trkpt lat="41.7334940" lon="-5.3166580">
        <ele>705.3</ele>
        <time>2019-08-15T08:58:23Z</time>
      </trkpt>
      <trkpt lat="41.7335070" lon="-5.3167370">
        <ele>705.3</ele>
        <time>2019-08-15T08:58:24Z</time>
      </trkpt>
      <trkpt lat="41.7335180" lon="-5.3168180">
        <ele>705.3</ele>
        <time>2019-08-15T08:58:25Z</time>
      </trkpt>
      <trkpt lat="41.7335290" lon="-5.3168990">
        <ele>705.4</ele>
        <time>2019-08-15T08:58:26Z</time>
      </trkpt>
      <trkpt lat="41.7335410" lon="-5.3169800">
        <ele>705.4</ele>
        <time>2019-08-15T08:58:27Z</time>
      </trkpt>
      <trkpt lat="41.7335530" lon="-5.3170600">
        <ele>705.5</ele>
        <time>2019-08-15T08:58:28Z</time>
      </trkpt>
      <trkpt lat="41.7335660" lon="-5.3171420">
        <ele>705.6</ele>
        <time>2019-08-15T08:58:29Z</time>
      </trkpt>
      <trkpt lat="41.7335760" lon="-5.3172230">
        <ele>705.7</ele>
        <time>2019-08-15T08:58:30Z</time>
      </trkpt>
      <trkpt lat="41.7335870" lon="-5.3173050">
        <ele>705.8</ele>
        <time>2019-08-15T08:58:31Z</time>
      </trkpt>
      <trkpt lat="41.7335990" lon="-5.3173880">
        <ele>705.9</ele>
        <time>2019-08-15T08:58:32Z</time>
      </trkpt>
      <trkpt lat="41.7336100" lon="-5.3174720">
        <ele>706.0</ele>
        <time>2019-08-15T08:58:33Z</time>
      </trkpt>
      <trkpt lat="41.7336240" lon="-5.3175540">
        <ele>706.1</ele>
        <time>2019-08-15T08:58:34Z</time>
      </trkpt>
      <trkpt lat="41.7336350" lon="-5.3176340">
        <ele>706.2</ele>
        <time>2019-08-15T08:58:35Z</time>
      </trkpt>
      <trkpt lat="41.7336460" lon="-5.3177110">
        <ele>706.3</ele>
        <time>2019-08-15T08:58:36Z</time>
      </trkpt>
      <trkpt lat="41.7336570" lon="-5.3177860">
        <ele>706.4</ele>
        <time>2019-08-15T08:58:37Z</time>
      </trkpt>
      <trkpt lat="41.7336690" lon="-5.3178620">
        <ele>706.5</ele>
        <time>2019-08-15T08:58:38Z</time>
      </trkpt>
      <trkpt lat="41.7336810" lon="-5.3179380">
        <ele>706.6</ele>
        <time>2019-08-15T08:58:39Z</time>
      </trkpt>
      <trkpt lat="41.7336910" lon="-5.3180150">
        <ele>706.7</ele>
        <time>2019-08-15T08:58:40Z</time>
      </trkpt>
      <trkpt lat="41.7337010" lon="-5.3180940">
        <ele>706.8</ele>
        <time>2019-08-15T08:58:41Z</time>
      </trkpt>
      <trkpt lat="41.7337120" lon="-5.3181730">
        <ele>706.9</ele>
        <time>2019-08-15T08:58:42Z</time>
      </trkpt>
      <trkpt lat="41.7337240" lon="-5.3182500">
        <ele>706.9</ele>
        <time>2019-08-15T08:58:43Z</time>
      </trkpt>
      <trkpt lat="41.7337350" lon="-5.3183230">
        <ele>706.9</ele>
        <time>2019-08-15T08:58:44Z</time>
      </trkpt>
      <trkpt lat="41.7337440" lon="-5.3183950">
        <ele>706.9</ele>
        <time>2019-08-15T08:58:45Z</time>
      </trkpt>
      <trkpt lat="41.7337520" lon="-5.3184640">
        <ele>706.9</ele>
        <time>2019-08-15T08:58:46Z</time>
      </trkpt>
      <trkpt lat="41.7337610" lon="-5.3185320">
        <ele>706.9</ele>
        <time>2019-08-15T08:58:47Z</time>
      </trkpt>
      <trkpt lat="41.7337690" lon="-5.3185980">
        <ele>706.8</ele>
        <time>2019-08-15T08:58:48Z</time>
      </trkpt>
      <trkpt lat="41.7337790" lon="-5.3186650">
        <ele>706.7</ele>
        <time>2019-08-15T08:58:49Z</time>
      </trkpt>
      <trkpt lat="41.7337900" lon="-5.3187340">
        <ele>706.7</ele>
        <time>2019-08-15T08:58:50Z</time>
      </trkpt>
      <trkpt lat="41.7337980" lon="-5.3188060">
        <ele>706.6</ele>
        <time>2019-08-15T08:58:51Z</time>
      </trkpt>
      <trkpt lat="41.7338090" lon="-5.3188790">
        <ele>706.6</ele>
        <time>2019-08-15T08:58:52Z</time>
      </trkpt>
      <trkpt lat="41.7338190" lon="-5.3189550">
        <ele>706.5</ele>
        <time>2019-08-15T08:58:53Z</time>
      </trkpt>
      <trkpt lat="41.7338300" lon="-5.3190300">
        <ele>706.5</ele>
        <time>2019-08-15T08:58:54Z</time>
      </trkpt>
      <trkpt lat="41.7338420" lon="-5.3191090">
        <ele>706.6</ele>
        <time>2019-08-15T08:58:55Z</time>
      </trkpt>
      <trkpt lat="41.7338520" lon="-5.3191870">
        <ele>706.6</ele>
        <time>2019-08-15T08:58:56Z</time>
      </trkpt>
      <trkpt lat="41.7338640" lon="-5.3192670">
        <ele>706.7</ele>
        <time>2019-08-15T08:58:57Z</time>
      </trkpt>
      <trkpt lat="41.7338760" lon="-5.3193490">
        <ele>706.8</ele>
        <time>2019-08-15T08:58:58Z</time>
      </trkpt>
      <trkpt lat="41.7338860" lon="-5.3194310">
        <ele>706.9</ele>
        <time>2019-08-15T08:58:59Z</time>
      </trkpt>
      <trkpt lat="41.7338950" lon="-5.3195100">
        <ele>707.0</ele>
        <time>2019-08-15T08:59:00Z</time>
      </trkpt>
      <trkpt lat="41.7339040" lon="-5.3195870">
        <ele>707.2</ele>
        <time>2019-08-15T08:59:01Z</time>
      </trkpt>
      <trkpt lat="41.7339140" lon="-5.3196610">
        <ele>707.3</ele>
        <time>2019-08-15T08:59:02Z</time>
      </trkpt>
      <trkpt lat="41.7339240" lon="-5.3197340">
        <ele>707.4</ele>
        <time>2019-08-15T08:59:03Z</time>
      </trkpt>
      <trkpt lat="41.7339350" lon="-5.3198040">
        <ele>707.4</ele>
        <time>2019-08-15T08:59:04Z</time>
      </trkpt>
      <trkpt lat="41.7339460" lon="-5.3198720">
        <ele>707.4</ele>
        <time>2019-08-15T08:59:05Z</time>
      </trkpt>
      <trkpt lat="41.7339560" lon="-5.3199380">
        <ele>707.5</ele>
        <time>2019-08-15T08:59:06Z</time>
      </trkpt>
      <trkpt lat="41.7339640" lon="-5.3200040">
        <ele>707.5</ele>
        <time>2019-08-15T08:59:07Z</time>
      </trkpt>
      <trkpt lat="41.7339720" lon="-5.3200730">
        <ele>707.5</ele>
        <time>2019-08-15T08:59:08Z</time>
      </trkpt>
      <trkpt lat="41.7339810" lon="-5.3201450">
        <ele>707.4</ele>
        <time>2019-08-15T08:59:09Z</time>
      </trkpt>
      <trkpt lat="41.7339900" lon="-5.3202180">
        <ele>707.4</ele>
        <time>2019-08-15T08:59:10Z</time>
      </trkpt>
      <trkpt lat="41.7339990" lon="-5.3202940">
        <ele>707.3</ele>
        <time>2019-08-15T08:59:11Z</time>
      </trkpt>
      <trkpt lat="41.7340070" lon="-5.3203710">
        <ele>707.3</ele>
        <time>2019-08-15T08:59:12Z</time>
      </trkpt>
      <trkpt lat="41.7340150" lon="-5.3204490">
        <ele>707.2</ele>
        <time>2019-08-15T08:59:13Z</time>
      </trkpt>
      <trkpt lat="41.7340220" lon="-5.3205290">
        <ele>707.1</ele>
        <time>2019-08-15T08:59:14Z</time>
      </trkpt>
      <trkpt lat="41.7340270" lon="-5.3206090">
        <ele>707.1</ele>
        <time>2019-08-15T08:59:15Z</time>
      </trkpt>
      <trkpt lat="41.7340310" lon="-5.3206910">
        <ele>707.0</ele>
        <time>2019-08-15T08:59:16Z</time>
      </trkpt>
      <trkpt lat="41.7340330" lon="-5.3207720">
        <ele>707.0</ele>
        <time>2019-08-15T08:59:17Z</time>
      </trkpt>
      <trkpt lat="41.7340350" lon="-5.3208540">
        <ele>707.0</ele>
        <time>2019-08-15T08:59:18Z</time>
      </trkpt>
      <trkpt lat="41.7340370" lon="-5.3209350">
        <ele>707.1</ele>
        <time>2019-08-15T08:59:19Z</time>
      </trkpt>
      <trkpt lat="41.7340390" lon="-5.3210160">
        <ele>707.2</ele>
        <time>2019-08-15T08:59:20Z</time>
      </trkpt>
      <trkpt lat="41.7340390" lon="-5.3210940">
        <ele>707.2</ele>
        <time>2019-08-15T08:59:21Z</time>
      </trkpt>
      <trkpt lat="41.7340380" lon="-5.3211700">
        <ele>707.3</ele>
        <time>2019-08-15T08:59:22Z</time>
      </trkpt>
      <trkpt lat="41.7340370" lon="-5.3212450">
        <ele>707.4</ele>
        <time>2019-08-15T08:59:23Z</time>
      </trkpt>
      <trkpt lat="41.7340360" lon="-5.3213170">
        <ele>707.4</ele>
        <time>2019-08-15T08:59:24Z</time>
      </trkpt>
      <trkpt lat="41.7340350" lon="-5.3213890">
        <ele>707.4</ele>
        <time>2019-08-15T08:59:25Z</time>
      </trkpt>
      <trkpt lat="41.7340340" lon="-5.3214640">
        <ele>707.5</ele>
        <time>2019-08-15T08:59:26Z</time>
      </trkpt>
      <trkpt lat="41.7340330" lon="-5.3215390">
        <ele>707.5</ele>
        <time>2019-08-15T08:59:27Z</time>
      </trkpt>
      <trkpt lat="41.7340350" lon="-5.3216160">
        <ele>707.4</ele>
        <time>2019-08-15T08:59:28Z</time>
      </trkpt>
      <trkpt lat="41.7340380" lon="-5.3216920">
        <ele>707.4</ele>
        <time>2019-08-15T08:59:29Z</time>
      </trkpt>
      <trkpt lat="41.7340410" lon="-5.3217680">
        <ele>707.4</ele>
        <time>2019-08-15T08:59:30Z</time>
      </trkpt>
      <trkpt lat="41.7340470" lon="-5.3218430">
        <ele>707.4</ele>
        <time>2019-08-15T08:59:31Z</time>
      </trkpt>
      <trkpt lat="41.7340530" lon="-5.3219210">
        <ele>707.3</ele>
        <time>2019-08-15T08:59:32Z</time>
      </trkpt>
      <trkpt lat="41.7340600" lon="-5.3219990">
        <ele>707.2</ele>
        <time>2019-08-15T08:59:33Z</time>
      </trkpt>
      <trkpt lat="41.7340670" lon="-5.3220750">
        <ele>707.1</ele>
        <time>2019-08-15T08:59:34Z</time>
      </trkpt>
      <trkpt lat="41.7340730" lon="-5.3221460">
        <ele>707.0</ele>
        <time>2019-08-15T08:59:35Z</time>
      </trkpt>
      <trkpt lat="41.7340770" lon="-5.3222160">
        <ele>707.0</ele>
        <time>2019-08-15T08:59:36Z</time>
      </trkpt>
      <trkpt lat="41.7340780" lon="-5.3222840">
        <ele>706.9</ele>
        <time>2019-08-15T08:59:37Z</time>
      </trkpt>
      <trkpt lat="41.7340780" lon="-5.3223450">
        <ele>706.8</ele>
        <time>2019-08-15T08:59:38Z</time>
      </trkpt>
      <trkpt lat="41.7340760" lon="-5.3224070">
        <ele>706.8</ele>
        <time>2019-08-15T08:59:39Z</time>
      </trkpt>
      <trkpt lat="41.7340730" lon="-5.3224780">
        <ele>706.7</ele>
        <time>2019-08-15T08:59:40Z</time>
      </trkpt>
      <trkpt lat="41.7340650" lon="-5.3225520">
        <ele>706.6</ele>
        <time>2019-08-15T08:59:41Z</time>
      </trkpt>
      <trkpt lat="41.7340570" lon="-5.3226310">
        <ele>706.6</ele>
        <time>2019-08-15T08:59:42Z</time>
      </trkpt>
      <trkpt lat="41.7340530" lon="-5.3227080">
        <ele>706.5</ele>
        <time>2019-08-15T08:59:43Z</time>
      </trkpt>
      <trkpt lat="41.7340520" lon="-5.3227880">
        <ele>706.5</ele>
        <time>2019-08-15T08:59:44Z</time>
      </trkpt>
      <trkpt lat="41.7340530" lon="-5.3228680">
        <ele>706.5</ele>
        <time>2019-08-15T08:59:45Z</time>
      </trkpt>
      <trkpt lat="41.7340570" lon="-5.3229500">
        <ele>706.6</ele>
        <time>2019-08-15T08:59:46Z</time>
      </trkpt>
      <trkpt lat="41.7340600" lon="-5.3230310">
        <ele>706.6</ele>
        <time>2019-08-15T08:59:47Z</time>
      </trkpt>
      <trkpt lat="41.7340650" lon="-5.3231130">
        <ele>706.6</ele>
        <time>2019-08-15T08:59:48Z</time>
      </trkpt>
      <trkpt lat="41.7340620" lon="-5.3231950">
        <ele>706.6</ele>
        <time>2019-08-15T08:59:49Z</time>
      </trkpt>
      <trkpt lat="41.7340550" lon="-5.3232780">
        <ele>706.7</ele>
        <time>2019-08-15T08:59:50Z</time>
      </trkpt>
      <trkpt lat="41.7340470" lon="-5.3233610">
        <ele>706.7</ele>
        <time>2019-08-15T08:59:51Z</time>
      </trkpt>
      <trkpt lat="41.7340400" lon="-5.3234450">
        <ele>706.7</ele>
        <time>2019-08-15T08:59:52Z</time>
      </trkpt>
      <trkpt lat="41.7340340" lon="-5.3235300">
        <ele>706.8</ele>
        <time>2019-08-15T08:59:53Z</time>
      </trkpt>
      <trkpt lat="41.7340290" lon="-5.3236140">
        <ele>706.8</ele>
        <time>2019-08-15T08:59:54Z</time>
      </trkpt>
      <trkpt lat="41.7340260" lon="-5.3236980">
        <ele>706.8</ele>
        <time>2019-08-15T08:59:55Z</time>
      </trkpt>
      <trkpt lat="41.7340250" lon="-5.3237800">
        <ele>706.8</ele>
        <time>2019-08-15T08:59:56Z</time>
      </trkpt>
      <trkpt lat="41.7340210" lon="-5.3238610">
        <ele>706.8</ele>
        <time>2019-08-15T08:59:57Z</time>
      </trkpt>
      <trkpt lat="41.7340160" lon="-5.3239400">
        <ele>706.8</ele>
        <time>2019-08-15T08:59:58Z</time>
      </trkpt>
      <trkpt lat="41.7340090" lon="-5.3240160">
        <ele>706.8</ele>
        <time>2019-08-15T08:59:59Z</time>
      </trkpt>
      <trkpt lat="41.7340000" lon="-5.3240940">
        <ele>706.8</ele>
        <time>2019-08-15T09:00:00Z</time>
      </trkpt>
      <trkpt lat="41.7339910" lon="-5.3241720">
        <ele>706.9</ele>
        <time>2019-08-15T09:00:01Z</time>
      </trkpt>
      <trkpt lat="41.7339810" lon="-5.3242470">
        <ele>706.9</ele>
        <time>2019-08-15T09:00:02Z</time>
      </trkpt>
      <trkpt lat="41.7339710" lon="-5.3243200">
        <ele>706.9</ele>
        <time>2019-08-15T09:00:03Z</time>
      </trkpt>
      <trkpt lat="41.7339600" lon="-5.3243920">
        <ele>706.9</ele>
        <time>2019-08-15T09:00:04Z</time>
      </trkpt>
      <trkpt lat="41.7339450" lon="-5.3244600">
        <ele>706.9</ele>
        <time>2019-08-15T09:00:05Z</time>
      </trkpt>
      <trkpt lat="41.7339320" lon="-5.3245260">
        <ele>706.9</ele>
        <time>2019-08-15T09:00:06Z</time>
      </trkpt>
      <trkpt lat="41.7339180" lon="-5.3245910">
        <ele>706.9</ele>
        <time>2019-08-15T09:00:07Z</time>
      </trkpt>
      <trkpt lat="41.7339010" lon="-5.3246540">
        <ele>706.8</ele>
        <time>2019-08-15T09:00:08Z</time>
      </trkpt>
      <trkpt lat="41.7338850" lon="-5.3247130">
        <ele>706.8</ele>
        <time>2019-08-15T09:00:09Z</time>
      </trkpt>
      <trkpt lat="41.7338680" lon="-5.3247720">
        <ele>706.8</ele>
        <time>2019-08-15T09:00:10Z</time>
      </trkpt>
      <trkpt lat="41.7338480" lon="-5.3248290">
        <ele>706.8</ele>
        <time>2019-08-15T09:00:11Z</time>
      </trkpt>
      <trkpt lat="41.7338230" lon="-5.3248840">
        <ele>706.8</ele>
        <time>2019-08-15T09:00:12Z</time>
      </trkpt>
      <trkpt lat="41.7337930" lon="-5.3249310">
        <ele>706.8</ele>
        <time>2019-08-15T09:00:13Z</time>
      </trkpt>
      <trkpt lat="41.7337600" lon="-5.3249740">
        <ele>706.8</ele>
        <time>2019-08-15T09:00:14Z</time>
      </trkpt>
      <trkpt lat="41.7337290" lon="-5.3250170">
        <ele>706.8</ele>
        <time>2019-08-15T09:00:15Z</time>
      </trkpt>
      <trkpt lat="41.7337010" lon="-5.3250590">
        <ele>706.8</ele>
        <time>2019-08-15T09:00:16Z</time>
      </trkpt>
      <trkpt lat="41.7336760" lon="-5.3251030">
        <ele>706.8</ele>
        <time>2019-08-15T09:00:17Z</time>
      </trkpt>
      <trkpt lat="41.7336560" lon="-5.3251500">
        <ele>706.8</ele>
        <time>2019-08-15T09:00:18Z</time>
      </trkpt>
      <trkpt lat="41.7336380" lon="-5.3251980">
        <ele>706.8</ele>
        <time>2019-08-15T09:00:19Z</time>
      </trkpt>
      <trkpt lat="41.7336240" lon="-5.3252460">
        <ele>706.8</ele>
        <time>2019-08-15T09:00:20Z</time>
      </trkpt>
      <trkpt lat="41.7336160" lon="-5.3252960">
        <ele>706.8</ele>
        <time>2019-08-15T09:00:21Z</time>
      </trkpt>
      <trkpt lat="41.7336170" lon="-5.3253470">
        <ele>706.8</ele>
        <time>2019-08-15T09:00:22Z</time>
      </trkpt>
      <trkpt lat="41.7336330" lon="-5.3253950">
        <ele>706.8</ele>
        <time>2019-08-15T09:00:23Z</time>
      </trkpt>
      <trkpt lat="41.7336580" lon="-5.3254300">
        <ele>706.8</ele>
        <time>2019-08-15T09:00:24Z</time>
      </trkpt>
      <trkpt lat="41.7336900" lon="-5.3254510">
        <ele>707.0</ele>
        <time>2019-08-15T09:00:25Z</time>
      </trkpt>
      <trkpt lat="41.7337240" lon="-5.3254640">
        <ele>707.1</ele>
        <time>2019-08-15T09:00:26Z</time>
      </trkpt>
      <trkpt lat="41.7337580" lon="-5.3254730">
        <ele>707.2</ele>
        <time>2019-08-15T09:00:27Z</time>
      </trkpt>
      <trkpt lat="41.7337900" lon="-5.3254810">
        <ele>707.2</ele>
        <time>2019-08-15T09:00:28Z</time>
      </trkpt>
      <trkpt lat="41.7338200" lon="-5.3254870">
        <ele>707.3</ele>
        <time>2019-08-15T09:00:29Z</time>
      </trkpt>
      <trkpt lat="41.7338510" lon="-5.3254930">
        <ele>707.4</ele>
        <time>2019-08-15T09:00:30Z</time>
      </trkpt>
      <trkpt lat="41.7338850" lon="-5.3254970">
        <ele>707.4</ele>
        <time>2019-08-15T09:00:31Z</time>
      </trkpt>
      <trkpt lat="41.7339220" lon="-5.3255010">
        <ele>707.5</ele>
        <time>2019-08-15T09:00:32Z</time>
      </trkpt>
      <trkpt lat="41.7339590" lon="-5.3255080">
        <ele>707.6</ele>
        <time>2019-08-15T09:00:33Z</time>
      </trkpt>
      <trkpt lat="41.7339960" lon="-5.3255180">
        <ele>707.7</ele>
        <time>2019-08-15T09:00:34Z</time>
      </trkpt>
      <trkpt lat="41.7340330" lon="-5.3255310">
        <ele>707.8</ele>
        <time>2019-08-15T09:00:35Z</time>
      </trkpt>
      <trkpt lat="41.7340710" lon="-5.3255460">
        <ele>708.0</ele>
        <time>2019-08-15T09:00:36Z</time>
      </trkpt>
      <trkpt lat="41.7341090" lon="-5.3255630">
        <ele>708.1</ele>
        <time>2019-08-15T09:00:37Z</time>
      </trkpt>
      <trkpt lat="41.7341460" lon="-5.3255830">
        <ele>708.1</ele>
        <time>2019-08-15T09:00:38Z</time>
      </trkpt>
      <trkpt lat="41.7341830" lon="-5.3256010">
        <ele>708.2</ele>
        <time>2019-08-15T09:00:39Z</time>
      </trkpt>
      <trkpt lat="41.7342210" lon="-5.3256190">
        <ele>708.3</ele>
        <time>2019-08-15T09:00:40Z</time>
      </trkpt>
      <trkpt lat="41.7342590" lon="-5.3256360">
        <ele>708.4</ele>
        <time>2019-08-15T09:00:41Z</time>
      </trkpt>
      <trkpt lat="41.7342960" lon="-5.3256560">
        <ele>708.5</ele>
        <time>2019-08-15T09:00:42Z</time>
      </trkpt>
      <trkpt lat="41.7343350" lon="-5.3256760">
        <ele>708.6</ele>
        <time>2019-08-15T09:00:43Z</time>
      </trkpt>
      <trkpt lat="41.7343750" lon="-5.3256960">
        <ele>708.7</ele>
        <time>2019-08-15T09:00:44Z</time>
      </trkpt>
      <trkpt lat="41.7344150" lon="-5.3257160">
        <ele>708.8</ele>
        <time>2019-08-15T09:00:45Z</time>
      </trkpt>
      <trkpt lat="41.7344560" lon="-5.3257360">
        <ele>708.9</ele>
        <time>2019-08-15T09:00:46Z</time>
      </trkpt>
      <trkpt lat="41.7344980" lon="-5.3257560">
        <ele>708.9</ele>
        <time>2019-08-15T09:00:47Z</time>
      </trkpt>
      <trkpt lat="41.7345390" lon="-5.3257760">
        <ele>709.0</ele>
        <time>2019-08-15T09:00:48Z</time>
      </trkpt>
      <trkpt lat="41.7345800" lon="-5.3257960">
        <ele>709.2</ele>
        <time>2019-08-15T09:00:49Z</time>
      </trkpt>
      <trkpt lat="41.7346190" lon="-5.3258200">
        <ele>709.2</ele>
        <time>2019-08-15T09:00:50Z</time>
      </trkpt>
      <trkpt lat="41.7346590" lon="-5.3258470">
        <ele>709.3</ele>
        <time>2019-08-15T09:00:51Z</time>
      </trkpt>
      <trkpt lat="41.7346960" lon="-5.3258760">
        <ele>709.4</ele>
        <time>2019-08-15T09:00:52Z</time>
      </trkpt>
      <trkpt lat="41.7347330" lon="-5.3259050">
        <ele>709.5</ele>
        <time>2019-08-15T09:00:53Z</time>
      </trkpt>
      <trkpt lat="41.7347720" lon="-5.3259310">
        <ele>709.5</ele>
        <time>2019-08-15T09:00:54Z</time>
      </trkpt>
      <trkpt lat="41.7348100" lon="-5.3259610">
        <ele>709.6</ele>
        <time>2019-08-15T09:00:55Z</time>
      </trkpt>
      <trkpt lat="41.7348490" lon="-5.3259910">
        <ele>709.6</ele>
        <time>2019-08-15T09:00:56Z</time>
      </trkpt>
      <trkpt lat="41.7348930" lon="-5.3260170">
        <ele>709.6</ele>
        <time>2019-08-15T09:00:57Z</time>
      </trkpt>
      <trkpt lat="41.7349360" lon="-5.3260420">
        <ele>709.6</ele>
        <time>2019-08-15T09:00:58Z</time>
      </trkpt>
      <trkpt lat="41.7349810" lon="-5.3260670">
        <ele>709.6</ele>
        <time>2019-08-15T09:00:59Z</time>
      </trkpt>
      <trkpt lat="41.7350280" lon="-5.3260900">
        <ele>709.6</ele>
        <time>2019-08-15T09:01:00Z</time>
      </trkpt>
      <trkpt lat="41.7350760" lon="-5.3261130">
        <ele>709.6</ele>
        <time>2019-08-15T09:01:01Z</time>
      </trkpt>
      <trkpt lat="41.7351240" lon="-5.3261390">
        <ele>709.7</ele>
        <time>2019-08-15T09:01:02Z</time>
      </trkpt>
      <trkpt lat="41.7351730" lon="-5.3261640">
        <ele>709.7</ele>
        <time>2019-08-15T09:01:03Z</time>
      </trkpt>
      <trkpt lat="41.7352220" lon="-5.3261870">
        <ele>709.6</ele>
        <time>2019-08-15T09:01:04Z</time>
      </trkpt>
      <trkpt lat="41.7352700" lon="-5.3262090">
        <ele>709.6</ele>
        <time>2019-08-15T09:01:05Z</time>
      </trkpt>
      <trkpt lat="41.7353160" lon="-5.3262280">
        <ele>709.6</ele>
        <time>2019-08-15T09:01:06Z</time>
      </trkpt>
      <trkpt lat="41.7353620" lon="-5.3262490">
        <ele>709.6</ele>
        <time>2019-08-15T09:01:07Z</time>
      </trkpt>
      <trkpt lat="41.7354080" lon="-5.3262710">
        <ele>709.5</ele>
        <time>2019-08-15T09:01:08Z</time>
      </trkpt>
      <trkpt lat="41.7354520" lon="-5.3262950">
        <ele>709.5</ele>
        <time>2019-08-15T09:01:09Z</time>
      </trkpt>
      <trkpt lat="41.7354940" lon="-5.3263240">
        <ele>709.4</ele>
        <time>2019-08-15T09:01:10Z</time>
      </trkpt>
      <trkpt lat="41.7355330" lon="-5.3263570">
        <ele>709.4</ele>
        <time>2019-08-15T09:01:11Z</time>
      </trkpt>
      <trkpt lat="41.7355610" lon="-5.3263940">
        <ele>709.3</ele>
        <time>2019-08-15T09:01:12Z</time>
      </trkpt>
      <trkpt lat="41.7355780" lon="-5.3264250">
        <ele>709.3</ele>
        <time>2019-08-15T09:01:13Z</time>
      </trkpt>
      <trkpt lat="41.7355860" lon="-5.3264450">
        <ele>709.2</ele>
        <time>2019-08-15T09:01:14Z</time>
      </trkpt>
      <trkpt lat="41.7356020" lon="-5.3264740">
        <ele>709.2</ele>
        <time>2019-08-15T09:01:16Z</time>
      </trkpt>
      <trkpt lat="41.7356060" lon="-5.3264920">
        <ele>709.1</ele>
        <time>2019-08-15T09:01:20Z</time>
      </trkpt>
      <trkpt lat="41.7356050" lon="-5.3265380">
        <ele>709.2</ele>
        <time>2019-08-15T09:01:25Z</time>
      </trkpt>
      <trkpt lat="41.7356050" lon="-5.3265330">
        <ele>709.3</ele>
        <time>2019-08-15T09:03:25Z</time>
      </trkpt>
      <trkpt lat="41.7356430" lon="-5.3266260">
        <ele>709.3</ele>
        <time>2019-08-15T09:03:48Z</time>
      </trkpt>
      <trkpt lat="41.7356210" lon="-5.3266840">
        <ele>709.3</ele>
        <time>2019-08-15T09:03:50Z</time>
      </trkpt>
      <trkpt lat="41.7355840" lon="-5.3267420">
        <ele>709.3</ele>
        <time>2019-08-15T09:03:52Z</time>
      </trkpt>
      <trkpt lat="41.7355650" lon="-5.3267700">
        <ele>709.3</ele>
        <time>2019-08-15T09:03:53Z</time>
      </trkpt>
      <trkpt lat="41.7355480" lon="-5.3267990">
        <ele>709.3</ele>
        <time>2019-08-15T09:03:54Z</time>
      </trkpt>
      <trkpt lat="41.7355320" lon="-5.3268260">
        <ele>709.3</ele>
        <time>2019-08-15T09:03:55Z</time>
      </trkpt>
      <trkpt lat="41.7354990" lon="-5.3268760">
        <ele>709.3</ele>
        <time>2019-08-15T09:03:57Z</time>
      </trkpt>
      <trkpt lat="41.7354740" lon="-5.3269120">
        <ele>709.3</ele>
        <time>2019-08-15T09:03:59Z</time>
      </trkpt>
      <trkpt lat="41.7354680" lon="-5.3269230">
        <ele>709.3</ele>
        <time>2019-08-15T09:04:04Z</time>
      </trkpt>
      <trkpt lat="41.7354710" lon="-5.3269240">
        <ele>709.3</ele>
        <time>2019-08-15T09:04:13Z</time>
      </trkpt>
      <trkpt lat="41.7355550" lon="-5.3269550">
        <ele>709.2</ele>
        <time>2019-08-15T09:04:48Z</time>
      </trkpt>
      <trkpt lat="41.7355820" lon="-5.3269630">
        <ele>709.2</ele>
        <time>2019-08-15T09:04:51Z</time>
      </trkpt>
      <trkpt lat="41.7355770" lon="-5.3269470">
        <ele>709.2</ele>
        <time>2019-08-15T09:04:57Z</time>
      </trkpt>
      <trkpt lat="41.7355510" lon="-5.3269520">
        <ele>709.2</ele>
        <time>2019-08-15T09:04:59Z</time>
      </trkpt>
      <trkpt lat="41.7355240" lon="-5.3269220">
        <ele>709.2</ele>
        <time>2019-08-15T09:05:04Z</time>
      </trkpt>
      <trkpt lat="41.7355100" lon="-5.3268920">
        <ele>709.2</ele>
        <time>2019-08-15T09:05:09Z</time>
      </trkpt>
      <trkpt lat="41.7354860" lon="-5.3268580">
        <ele>709.1</ele>
        <time>2019-08-15T09:05:15Z</time>
      </trkpt>
      <trkpt lat="41.7354560" lon="-5.3271310">
        <ele>708.9</ele>
        <time>2019-08-15T09:07:00Z</time>
      </trkpt>
      <trkpt lat="41.7354380" lon="-5.3271700">
        <ele>708.9</ele>
        <time>2019-08-15T09:07:01Z</time>
      </trkpt>
      <trkpt lat="41.7354180" lon="-5.3272110">
        <ele>708.9</ele>
        <time>2019-08-15T09:07:02Z</time>
      </trkpt>
      <trkpt lat="41.7354000" lon="-5.3272540">
        <ele>708.9</ele>
        <time>2019-08-15T09:07:03Z</time>
      </trkpt>
      <trkpt lat="41.7353810" lon="-5.3272980">
        <ele>708.8</ele>
        <time>2019-08-15T09:07:04Z</time>
      </trkpt>
      <trkpt lat="41.7353610" lon="-5.3273400">
        <ele>708.8</ele>
        <time>2019-08-15T09:07:05Z</time>
      </trkpt>
      <trkpt lat="41.7353410" lon="-5.3273800">
        <ele>708.8</ele>
        <time>2019-08-15T09:07:06Z</time>
      </trkpt>
      <trkpt lat="41.7353210" lon="-5.3274190">
        <ele>708.8</ele>
        <time>2019-08-15T09:07:07Z</time>
      </trkpt>
      <trkpt lat="41.7353050" lon="-5.3274570">
        <ele>708.7</ele>
        <time>2019-08-15T09:07:08Z</time>
      </trkpt>
      <trkpt lat="41.7352940" lon="-5.3274900">
        <ele>708.7</ele>
        <time>2019-08-15T09:07:09Z</time>
      </trkpt>
      <trkpt lat="41.7352890" lon="-5.3275220">
        <ele>708.7</ele>
        <time>2019-08-15T09:07:10Z</time>
      </trkpt>
      <trkpt lat="41.7352920" lon="-5.3275880">
        <ele>708.6</ele>
        <time>2019-08-15T09:07:12Z</time>
      </trkpt>
      <trkpt lat="41.7353010" lon="-5.3276640">
        <ele>708.5</ele>
        <time>2019-08-15T09:07:14Z</time>
      </trkpt>
      <trkpt lat="41.7353120" lon="-5.3277050">
        <ele>708.4</ele>
        <time>2019-08-15T09:07:15Z</time>
      </trkpt>
      <trkpt lat="41.7353310" lon="-5.3277460">
        <ele>708.3</ele>
        <time>2019-08-15T09:07:16Z</time>
      </trkpt>
      <trkpt lat="41.7353560" lon="-5.3277860">
        <ele>708.3</ele>
        <time>2019-08-15T09:07:17Z</time>
      </trkpt>
      <trkpt lat="41.7353810" lon="-5.3278290">
        <ele>708.2</ele>
        <time>2019-08-15T09:07:18Z</time>
      </trkpt>
      <trkpt lat="41.7354070" lon="-5.3278770">
        <ele>708.1</ele>
        <time>2019-08-15T09:07:19Z</time>
      </trkpt>
      <trkpt lat="41.7354320" lon="-5.3279270">
        <ele>708.1</ele>
        <time>2019-08-15T09:07:20Z</time>
      </trkpt>
      <trkpt lat="41.7354550" lon="-5.3279770">
        <ele>708.0</ele>
        <time>2019-08-15T09:07:21Z</time>
      </trkpt>
      <trkpt lat="41.7354780" lon="-5.3280250">
        <ele>707.9</ele>
        <time>2019-08-15T09:07:22Z</time>
      </trkpt>
      <trkpt lat="41.7354990" lon="-5.3280710">
        <ele>707.8</ele>
        <time>2019-08-15T09:07:23Z</time>
      </trkpt>
      <trkpt lat="41.7355200" lon="-5.3281140">
        <ele>707.7</ele>
        <time>2019-08-15T09:07:24Z</time>
      </trkpt>
      <trkpt lat="41.7355420" lon="-5.3281550">
        <ele>707.3</ele>
        <time>2019-08-15T09:07:25Z</time>
      </trkpt>
      <trkpt lat="41.7355640" lon="-5.3281940">
        <ele>707.3</ele>
        <time>2019-08-15T09:07:26Z</time>
      </trkpt>
      <trkpt lat="41.7355870" lon="-5.3282320">
        <ele>707.3</ele>
        <time>2019-08-15T09:07:27Z</time>
      </trkpt>
      <trkpt lat="41.7356120" lon="-5.3282700">
        <ele>707.3</ele>
        <time>2019-08-15T09:07:28Z</time>
      </trkpt>
      <trkpt lat="41.7356370" lon="-5.3283060">
        <ele>707.1</ele>
        <time>2019-08-15T09:07:29Z</time>
      </trkpt>
      <trkpt lat="41.7356650" lon="-5.3283450">
        <ele>707.0</ele>
        <time>2019-08-15T09:07:30Z</time>
      </trkpt>
      <trkpt lat="41.7356900" lon="-5.3283910">
        <ele>706.9</ele>
        <time>2019-08-15T09:07:31Z</time>
      </trkpt>
      <trkpt lat="41.7357180" lon="-5.3284420">
        <ele>706.7</ele>
        <time>2019-08-15T09:07:32Z</time>
      </trkpt>
      <trkpt lat="41.7357440" lon="-5.3284970">
        <ele>706.6</ele>
        <time>2019-08-15T09:07:33Z</time>
      </trkpt>
      <trkpt lat="41.7357700" lon="-5.3285550">
        <ele>706.4</ele>
        <time>2019-08-15T09:07:34Z</time>
      </trkpt>
      <trkpt lat="41.7357980" lon="-5.3286140">
        <ele>706.2</ele>
        <time>2019-08-15T09:07:35Z</time>
      </trkpt>
      <trkpt lat="41.7358280" lon="-5.3286780">
        <ele>706.1</ele>
        <time>2019-08-15T09:07:36Z</time>
      </trkpt>
      <trkpt lat="41.7358610" lon="-5.3287450">
        <ele>705.8</ele>
        <time>2019-08-15T09:07:37Z</time>
      </trkpt>
      <trkpt lat="41.7358950" lon="-5.3288130">
        <ele>705.7</ele>
        <time>2019-08-15T09:07:38Z</time>
      </trkpt>
      <trkpt lat="41.7359290" lon="-5.3288840">
        <ele>705.5</ele>
        <time>2019-08-15T09:07:39Z</time>
      </trkpt>
      <trkpt lat="41.7359620" lon="-5.3289560">
        <ele>705.2</ele>
        <time>2019-08-15T09:07:40Z</time>
      </trkpt>
      <trkpt lat="41.7359940" lon="-5.3290290">
        <ele>705.0</ele>
        <time>2019-08-15T09:07:41Z</time>
      </trkpt>
      <trkpt lat="41.7360230" lon="-5.3291000">
        <ele>704.9</ele>
        <time>2019-08-15T09:07:42Z</time>
      </trkpt>
      <trkpt lat="41.7360500" lon="-5.3291710">
        <ele>704.8</ele>
        <time>2019-08-15T09:07:43Z</time>
      </trkpt>
      <trkpt lat="41.7360750" lon="-5.3292390">
        <ele>704.7</ele>
        <time>2019-08-15T09:07:44Z</time>
      </trkpt>
      <trkpt lat="41.7361000" lon="-5.3292980">
        <ele>704.5</ele>
        <time>2019-08-15T09:07:45Z</time>
      </trkpt>
      <trkpt lat="41.7361230" lon="-5.3293480">
        <ele>704.4</ele>
        <time>2019-08-15T09:07:46Z</time>
      </trkpt>
      <trkpt lat="41.7361420" lon="-5.3293860">
        <ele>704.4</ele>
        <time>2019-08-15T09:07:47Z</time>
      </trkpt>
      <trkpt lat="41.7361600" lon="-5.3294160">
        <ele>704.2</ele>
        <time>2019-08-15T09:07:48Z</time>
      </trkpt>
      <trkpt lat="41.7361820" lon="-5.3294410">
        <ele>704.2</ele>
        <time>2019-08-15T09:07:49Z</time>
      </trkpt>
      <trkpt lat="41.7362070" lon="-5.3294640">
        <ele>704.1</ele>
        <time>2019-08-15T09:07:50Z</time>
      </trkpt>
      <trkpt lat="41.7362330" lon="-5.3294860">
        <ele>704.0</ele>
        <time>2019-08-15T09:07:51Z</time>
      </trkpt>
      <trkpt lat="41.7362610" lon="-5.3295070">
        <ele>703.9</ele>
        <time>2019-08-15T09:07:52Z</time>
      </trkpt>
      <trkpt lat="41.7362890" lon="-5.3295280">
        <ele>703.8</ele>
        <time>2019-08-15T09:07:53Z</time>
      </trkpt>
      <trkpt lat="41.7363180" lon="-5.3295480">
        <ele>703.8</ele>
        <time>2019-08-15T09:07:54Z</time>
      </trkpt>
      <trkpt lat="41.7363470" lon="-5.3295680">
        <ele>703.7</ele>
        <time>2019-08-15T09:07:55Z</time>
      </trkpt>
      <trkpt lat="41.7363760" lon="-5.3295890">
        <ele>703.6</ele>
        <time>2019-08-15T09:07:56Z</time>
      </trkpt>
      <trkpt lat="41.7364060" lon="-5.3296120">
        <ele>703.4</ele>
        <time>2019-08-15T09:07:57Z</time>
      </trkpt>
      <trkpt lat="41.7364370" lon="-5.3296370">
        <ele>703.5</ele>
        <time>2019-08-15T09:07:58Z</time>
      </trkpt>
      <trkpt lat="41.7364690" lon="-5.3296600">
        <ele>703.5</ele>
        <time>2019-08-15T09:07:59Z</time>
      </trkpt>
      <trkpt lat="41.7365020" lon="-5.3296800">
        <ele>703.5</ele>
        <time>2019-08-15T09:08:00Z</time>
      </trkpt>
      <trkpt lat="41.7365370" lon="-5.3296990">
        <ele>703.5</ele>
        <time>2019-08-15T09:08:01Z</time>
      </trkpt>
      <trkpt lat="41.7365740" lon="-5.3297170">
        <ele>703.5</ele>
        <time>2019-08-15T09:08:02Z</time>
      </trkpt>
      <trkpt lat="41.7366100" lon="-5.3297360">
        <ele>703.6</ele>
        <time>2019-08-15T09:08:03Z</time>
      </trkpt>
      <trkpt lat="41.7366480" lon="-5.3297550">
        <ele>703.6</ele>
        <time>2019-08-15T09:08:04Z</time>
      </trkpt>
      <trkpt lat="41.7366870" lon="-5.3297730">
        <ele>703.6</ele>
        <time>2019-08-15T09:08:05Z</time>
      </trkpt>
      <trkpt lat="41.7367250" lon="-5.3297890">
        <ele>703.6</ele>
        <time>2019-08-15T09:08:06Z</time>
      </trkpt>
      <trkpt lat="41.7367630" lon="-5.3298050">
        <ele>703.7</ele>
        <time>2019-08-15T09:08:07Z</time>
      </trkpt>
      <trkpt lat="41.7368000" lon="-5.3298230">
        <ele>703.7</ele>
        <time>2019-08-15T09:08:08Z</time>
      </trkpt>
      <trkpt lat="41.7368370" lon="-5.3298410">
        <ele>703.8</ele>
        <time>2019-08-15T09:08:09Z</time>
      </trkpt>
      <trkpt lat="41.7368770" lon="-5.3298610">
        <ele>703.9</ele>
        <time>2019-08-15T09:08:10Z</time>
      </trkpt>
      <trkpt lat="41.7369190" lon="-5.3298790">
        <ele>703.9</ele>
        <time>2019-08-15T09:08:11Z</time>
      </trkpt>
      <trkpt lat="41.7369610" lon="-5.3298970">
        <ele>704.0</ele>
        <time>2019-08-15T09:08:12Z</time>
      </trkpt>
      <trkpt lat="41.7370060" lon="-5.3299180">
        <ele>704.2</ele>
        <time>2019-08-15T09:08:13Z</time>
      </trkpt>
      <trkpt lat="41.7370500" lon="-5.3299390">
        <ele>704.3</ele>
        <time>2019-08-15T09:08:14Z</time>
      </trkpt>
      <trkpt lat="41.7370950" lon="-5.3299620">
        <ele>704.4</ele>
        <time>2019-08-15T09:08:15Z</time>
      </trkpt>
      <trkpt lat="41.7371420" lon="-5.3299880">
        <ele>704.5</ele>
        <time>2019-08-15T09:08:16Z</time>
      </trkpt>
      <trkpt lat="41.7371900" lon="-5.3300150">
        <ele>704.7</ele>
        <time>2019-08-15T09:08:17Z</time>
      </trkpt>
      <trkpt lat="41.7372400" lon="-5.3300430">
        <ele>704.8</ele>
        <time>2019-08-15T09:08:18Z</time>
      </trkpt>
      <trkpt lat="41.7372910" lon="-5.3300710">
        <ele>705.0</ele>
        <time>2019-08-15T09:08:19Z</time>
      </trkpt>
      <trkpt lat="41.7373400" lon="-5.3300980">
        <ele>705.1</ele>
        <time>2019-08-15T09:08:20Z</time>
      </trkpt>
      <trkpt lat="41.7373880" lon="-5.3301260">
        <ele>705.4</ele>
        <time>2019-08-15T09:08:21Z</time>
      </trkpt>
      <trkpt lat="41.7374320" lon="-5.3301580">
        <ele>705.6</ele>
        <time>2019-08-15T09:08:22Z</time>
      </trkpt>
      <trkpt lat="41.7374730" lon="-5.3301870">
        <ele>705.8</ele>
        <time>2019-08-15T09:08:23Z</time>
      </trkpt>
      <trkpt lat="41.7375130" lon="-5.3302160">
        <ele>706.1</ele>
        <time>2019-08-15T09:08:24Z</time>
      </trkpt>
      <trkpt lat="41.7375480" lon="-5.3302500">
        <ele>706.4</ele>
        <time>2019-08-15T09:08:25Z</time>
      </trkpt>
      <trkpt lat="41.7375790" lon="-5.3302890">
        <ele>706.6</ele>
        <time>2019-08-15T09:08:26Z</time>
      </trkpt>
      <trkpt lat="41.7376080" lon="-5.3303290">
        <ele>706.9</ele>
        <time>2019-08-15T09:08:27Z</time>
      </trkpt>
      <trkpt lat="41.7376340" lon="-5.3303730">
        <ele>707.1</ele>
        <time>2019-08-15T09:08:28Z</time>
      </trkpt>
      <trkpt lat="41.7376580" lon="-5.3304160">
        <ele>707.4</ele>
        <time>2019-08-15T09:08:29Z</time>
      </trkpt>
      <trkpt lat="41.7376800" lon="-5.3304580">
        <ele>707.6</ele>
        <time>2019-08-15T09:08:30Z</time>
      </trkpt>
      <trkpt lat="41.7376980" lon="-5.3304970">
        <ele>707.8</ele>
        <time>2019-08-15T09:08:31Z</time>
      </trkpt>
      <trkpt lat="41.7377150" lon="-5.3305360">
        <ele>707.9</ele>
        <time>2019-08-15T09:08:32Z</time>
      </trkpt>
      <trkpt lat="41.7377320" lon="-5.3305720">
        <ele>708.1</ele>
        <time>2019-08-15T09:08:33Z</time>
      </trkpt>
      <trkpt lat="41.7377490" lon="-5.3306050">
        <ele>708.3</ele>
        <time>2019-08-15T09:08:34Z</time>
      </trkpt>
      <trkpt lat="41.7377660" lon="-5.3306380">
        <ele>708.4</ele>
        <time>2019-08-15T09:08:35Z</time>
      </trkpt>
      <trkpt lat="41.7377820" lon="-5.3306720">
        <ele>708.5</ele>
        <time>2019-08-15T09:08:36Z</time>
      </trkpt>
      <trkpt lat="41.7377970" lon="-5.3307070">
        <ele>708.5</ele>
        <time>2019-08-15T09:08:37Z</time>
      </trkpt>
      <trkpt lat="41.7378110" lon="-5.3307390">
        <ele>708.5</ele>
        <time>2019-08-15T09:08:38Z</time>
      </trkpt>
      <trkpt lat="41.7378270" lon="-5.3307720">
        <ele>708.5</ele>
        <time>2019-08-15T09:08:39Z</time>
      </trkpt>
      <trkpt lat="41.7378430" lon="-5.3308050">
        <ele>708.5</ele>
        <time>2019-08-15T09:08:40Z</time>
      </trkpt>
      <trkpt lat="41.7378600" lon="-5.3308380">
        <ele>708.5</ele>
        <time>2019-08-15T09:08:41Z</time>
      </trkpt>
      <trkpt lat="41.7378760" lon="-5.3308720">
        <ele>708.5</ele>
        <time>2019-08-15T09:08:42Z</time>
      </trkpt>
      <trkpt lat="41.7378920" lon="-5.3309050">
        <ele>708.4</ele>
        <time>2019-08-15T09:08:43Z</time>
      </trkpt>
      <trkpt lat="41.7379090" lon="-5.3309390">
        <ele>708.4</ele>
        <time>2019-08-15T09:08:44Z</time>
      </trkpt>
      <trkpt lat="41.7379260" lon="-5.3309730">
        <ele>708.3</ele>
        <time>2019-08-15T09:08:45Z</time>
      </trkpt>
      <trkpt lat="41.7379430" lon="-5.3310070">
        <ele>708.3</ele>
        <time>2019-08-15T09:08:46Z</time>
      </trkpt>
      <trkpt lat="41.7379610" lon="-5.3310390">
        <ele>708.2</ele>
        <time>2019-08-15T09:08:47Z</time>
      </trkpt>
      <trkpt lat="41.7379790" lon="-5.3310710">
        <ele>708.2</ele>
        <time>2019-08-15T09:08:48Z</time>
      </trkpt>
      <trkpt lat="41.7379950" lon="-5.3311030">
        <ele>708.2</ele>
        <time>2019-08-15T09:08:49Z</time>
      </trkpt>
      <trkpt lat="41.7380110" lon="-5.3311340">
        <ele>708.1</ele>
        <time>2019-08-15T09:08:50Z</time>
      </trkpt>
      <trkpt lat="41.7380280" lon="-5.3311670">
        <ele>708.0</ele>
        <time>2019-08-15T09:08:51Z</time>
      </trkpt>
      <trkpt lat="41.7380460" lon="-5.3312000">
        <ele>708.0</ele>
        <time>2019-08-15T09:08:52Z</time>
      </trkpt>
      <trkpt lat="41.7380670" lon="-5.3312330">
        <ele>707.9</ele>
        <time>2019-08-15T09:08:53Z</time>
      </trkpt>
      <trkpt lat="41.7380870" lon="-5.3312670">
        <ele>707.9</ele>
        <time>2019-08-15T09:08:54Z</time>
      </trkpt>
      <trkpt lat="41.7381080" lon="-5.3313040">
        <ele>707.8</ele>
        <time>2019-08-15T09:08:55Z</time>
      </trkpt>
      <trkpt lat="41.7381290" lon="-5.3313430">
        <ele>707.8</ele>
        <time>2019-08-15T09:08:56Z</time>
      </trkpt>
      <trkpt lat="41.7381500" lon="-5.3313850">
        <ele>707.7</ele>
        <time>2019-08-15T09:08:57Z</time>
      </trkpt>
      <trkpt lat="41.7381740" lon="-5.3314270">
        <ele>707.7</ele>
        <time>2019-08-15T09:08:58Z</time>
      </trkpt>
      <trkpt lat="41.7381990" lon="-5.3314680">
        <ele>707.6</ele>
        <time>2019-08-15T09:08:59Z</time>
      </trkpt>
      <trkpt lat="41.7382240" lon="-5.3315110">
        <ele>707.5</ele>
        <time>2019-08-15T09:09:00Z</time>
      </trkpt>
      <trkpt lat="41.7382510" lon="-5.3315540">
        <ele>707.4</ele>
        <time>2019-08-15T09:09:01Z</time>
      </trkpt>
      <trkpt lat="41.7382770" lon="-5.3315970">
        <ele>707.3</ele>
        <time>2019-08-15T09:09:02Z</time>
      </trkpt>
      <trkpt lat="41.7383030" lon="-5.3316400">
        <ele>707.1</ele>
        <time>2019-08-15T09:09:03Z</time>
      </trkpt>
      <trkpt lat="41.7383280" lon="-5.3316850">
        <ele>707.0</ele>
        <time>2019-08-15T09:09:04Z</time>
      </trkpt>
      <trkpt lat="41.7383510" lon="-5.3317290">
        <ele>706.8</ele>
        <time>2019-08-15T09:09:05Z</time>
      </trkpt>
      <trkpt lat="41.7383760" lon="-5.3317760">
        <ele>706.6</ele>
        <time>2019-08-15T09:09:06Z</time>
      </trkpt>
      <trkpt lat="41.7384010" lon="-5.3318230">
        <ele>706.3</ele>
        <time>2019-08-15T09:09:07Z</time>
      </trkpt>
      <trkpt lat="41.7384270" lon="-5.3318710">
        <ele>706.2</ele>
        <time>2019-08-15T09:09:08Z</time>
      </trkpt>
      <trkpt lat="41.7384540" lon="-5.3319200">
        <ele>706.0</ele>
        <time>2019-08-15T09:09:09Z</time>
      </trkpt>
      <trkpt lat="41.7384790" lon="-5.3319700">
        <ele>705.9</ele>
        <time>2019-08-15T09:09:10Z</time>
      </trkpt>
      <trkpt lat="41.7385060" lon="-5.3320190">
        <ele>705.7</ele>
        <time>2019-08-15T09:09:11Z</time>
      </trkpt>
      <trkpt lat="41.7385310" lon="-5.3320700">
        <ele>705.6</ele>
        <time>2019-08-15T09:09:12Z</time>
      </trkpt>
      <trkpt lat="41.7385590" lon="-5.3321210">
        <ele>705.5</ele>
        <time>2019-08-15T09:09:13Z</time>
      </trkpt>
      <trkpt lat="41.7385860" lon="-5.3321720">
        <ele>705.3</ele>
        <time>2019-08-15T09:09:14Z</time>
      </trkpt>
      <trkpt lat="41.7386160" lon="-5.3322250">
        <ele>705.2</ele>
        <time>2019-08-15T09:09:15Z</time>
      </trkpt>
      <trkpt lat="41.7386460" lon="-5.3322790">
        <ele>705.1</ele>
        <time>2019-08-15T09:09:16Z</time>
      </trkpt>
      <trkpt lat="41.7386760" lon="-5.3323330">
        <ele>705.0</ele>
        <time>2019-08-15T09:09:17Z</time>
      </trkpt>
      <trkpt lat="41.7387070" lon="-5.3323860">
        <ele>704.9</ele>
        <time>2019-08-15T09:09:18Z</time>
      </trkpt>
      <trkpt lat="41.7387380" lon="-5.3324400">
        <ele>704.9</ele>
        <time>2019-08-15T09:09:19Z</time>
      </trkpt>
      <trkpt lat="41.7387700" lon="-5.3324940">
        <ele>704.9</ele>
        <time>2019-08-15T09:09:20Z</time>
      </trkpt>
      <trkpt lat="41.7388010" lon="-5.3325520">
        <ele>704.9</ele>
        <time>2019-08-15T09:09:21Z</time>
      </trkpt>
      <trkpt lat="41.7388330" lon="-5.3326090">
        <ele>705.0</ele>
        <time>2019-08-15T09:09:22Z</time>
      </trkpt>
      <trkpt lat="41.7388660" lon="-5.3326650">
        <ele>705.0</ele>
        <time>2019-08-15T09:09:23Z</time>
      </trkpt>
      <trkpt lat="41.7389010" lon="-5.3327200">
        <ele>705.1</ele>
        <time>2019-08-15T09:09:24Z</time>
      </trkpt>
      <trkpt lat="41.7389360" lon="-5.3327760">
        <ele>705.2</ele>
        <time>2019-08-15T09:09:25Z</time>
      </trkpt>
      <trkpt lat="41.7389680" lon="-5.3328320">
        <ele>705.3</ele>
        <time>2019-08-15T09:09:26Z</time>
      </trkpt>
      <trkpt lat="41.7389970" lon="-5.3328890">
        <ele>705.4</ele>
        <time>2019-08-15T09:09:27Z</time>
      </trkpt>
      <trkpt lat="41.7390260" lon="-5.3329450">
        <ele>705.5</ele>
        <time>2019-08-15T09:09:28Z</time>
      </trkpt>
      <trkpt lat="41.7390560" lon="-5.3330000">
        <ele>705.6</ele>
        <time>2019-08-15T09:09:29Z</time>
      </trkpt>
      <trkpt lat="41.7390850" lon="-5.3330550">
        <ele>705.7</ele>
        <time>2019-08-15T09:09:30Z</time>
      </trkpt>
      <trkpt lat="41.7391150" lon="-5.3331120">
        <ele>705.8</ele>
        <time>2019-08-15T09:09:31Z</time>
      </trkpt>
      <trkpt lat="41.7391440" lon="-5.3331690">
        <ele>705.9</ele>
        <time>2019-08-15T09:09:32Z</time>
      </trkpt>
      <trkpt lat="41.7391740" lon="-5.3332260">
        <ele>706.1</ele>
        <time>2019-08-15T09:09:33Z</time>
      </trkpt>
      <trkpt lat="41.7392050" lon="-5.3332810">
        <ele>706.2</ele>
        <time>2019-08-15T09:09:34Z</time>
      </trkpt>
      <trkpt lat="41.7392350" lon="-5.3333370">
        <ele>706.4</ele>
        <time>2019-08-15T09:09:35Z</time>
      </trkpt>
      <trkpt lat="41.7392660" lon="-5.3333910">
        <ele>706.6</ele>
        <time>2019-08-15T09:09:36Z</time>
      </trkpt>
      <trkpt lat="41.7392960" lon="-5.3334440">
        <ele>706.7</ele>
        <time>2019-08-15T09:09:37Z</time>
      </trkpt>
      <trkpt lat="41.7393250" lon="-5.3334940">
        <ele>706.9</ele>
        <time>2019-08-15T09:09:38Z</time>
      </trkpt>
      <trkpt lat="41.7393520" lon="-5.3335420">
        <ele>707.1</ele>
        <time>2019-08-15T09:09:39Z</time>
      </trkpt>
      <trkpt lat="41.7393790" lon="-5.3335880">
        <ele>707.3</ele>
        <time>2019-08-15T09:09:40Z</time>
      </trkpt>
      <trkpt lat="41.7394050" lon="-5.3336330">
        <ele>707.5</ele>
        <time>2019-08-15T09:09:41Z</time>
      </trkpt>
      <trkpt lat="41.7394320" lon="-5.3336790">
        <ele>707.7</ele>
        <time>2019-08-15T09:09:42Z</time>
      </trkpt>
      <trkpt lat="41.7394590" lon="-5.3337250">
        <ele>707.8</ele>
        <time>2019-08-15T09:09:43Z</time>
      </trkpt>
      <trkpt lat="41.7394870" lon="-5.3337710">
        <ele>707.9</ele>
        <time>2019-08-15T09:09:44Z</time>
      </trkpt>
      <trkpt lat="41.7395160" lon="-5.3338170">
        <ele>708.0</ele>
        <time>2019-08-15T09:09:45Z</time>
      </trkpt>
      <trkpt lat="41.7395450" lon="-5.3338640">
        <ele>708.1</ele>
        <time>2019-08-15T09:09:46Z</time>
      </trkpt>
      <trkpt lat="41.7395750" lon="-5.3339100">
        <ele>708.2</ele>
        <time>2019-08-15T09:09:47Z</time>
      </trkpt>
      <trkpt lat="41.7396060" lon="-5.3339570">
        <ele>708.3</ele>
        <time>2019-08-15T09:09:48Z</time>
      </trkpt>
      <trkpt lat="41.7396370" lon="-5.3340050">
        <ele>708.4</ele>
        <time>2019-08-15T09:09:49Z</time>
      </trkpt>
      <trkpt lat="41.7396680" lon="-5.3340530">
        <ele>708.5</ele>
        <time>2019-08-15T09:09:50Z</time>
      </trkpt>
      <trkpt lat="41.7396980" lon="-5.3341010">
        <ele>708.5</ele>
        <time>2019-08-15T09:09:51Z</time>
      </trkpt>
      <trkpt lat="41.7397300" lon="-5.3341470">
        <ele>708.6</ele>
        <time>2019-08-15T09:09:52Z</time>
      </trkpt>
      <trkpt lat="41.7397620" lon="-5.3341940">
        <ele>708.6</ele>
        <time>2019-08-15T09:09:53Z</time>
      </trkpt>
      <trkpt lat="41.7397930" lon="-5.3342400">
        <ele>708.6</ele>
        <time>2019-08-15T09:09:54Z</time>
      </trkpt>
      <trkpt lat="41.7398250" lon="-5.3342880">
        <ele>708.7</ele>
        <time>2019-08-15T09:09:55Z</time>
      </trkpt>
      <trkpt lat="41.7398560" lon="-5.3343370">
        <ele>708.7</ele>
        <time>2019-08-15T09:09:56Z</time>
      </trkpt>
      <trkpt lat="41.7398890" lon="-5.3343840">
        <ele>708.7</ele>
        <time>2019-08-15T09:09:57Z</time>
      </trkpt>
      <trkpt lat="41.7399210" lon="-5.3344280">
        <ele>708.7</ele>
        <time>2019-08-15T09:09:58Z</time>
      </trkpt>
      <trkpt lat="41.7399510" lon="-5.3344730">
        <ele>708.7</ele>
        <time>2019-08-15T09:09:59Z</time>
      </trkpt>
      <trkpt lat="41.7399810" lon="-5.3345170">
        <ele>708.7</ele>
        <time>2019-08-15T09:10:00Z</time>
      </trkpt>
      <trkpt lat="41.7400100" lon="-5.3345590">
        <ele>708.8</ele>
        <time>2019-08-15T09:10:01Z</time>
      </trkpt>
      <trkpt lat="41.7400400" lon="-5.3346010">
        <ele>708.8</ele>
        <time>2019-08-15T09:10:02Z</time>
      </trkpt>
      <trkpt lat="41.7400700" lon="-5.3346460">
        <ele>708.7</ele>
        <time>2019-08-15T09:10:03Z</time>
      </trkpt>
      <trkpt lat="41.7401010" lon="-5.3346940">
        <ele>708.7</ele>
        <time>2019-08-15T09:10:04Z</time>
      </trkpt>
      <trkpt lat="41.7401330" lon="-5.3347420">
        <ele>708.7</ele>
        <time>2019-08-15T09:10:05Z</time>
      </trkpt>
      <trkpt lat="41.7401650" lon="-5.3347900">
        <ele>708.7</ele>
        <time>2019-08-15T09:10:06Z</time>
      </trkpt>
      <trkpt lat="41.7401990" lon="-5.3348390">
        <ele>708.7</ele>
        <time>2019-08-15T09:10:07Z</time>
      </trkpt>
      <trkpt lat="41.7402330" lon="-5.3348870">
        <ele>708.7</ele>
        <time>2019-08-15T09:10:08Z</time>
      </trkpt>
      <trkpt lat="41.7402680" lon="-5.3349360">
        <ele>708.6</ele>
        <time>2019-08-15T09:10:09Z</time>
      </trkpt>
      <trkpt lat="41.7403020" lon="-5.3349860">
        <ele>708.6</ele>
        <time>2019-08-15T09:10:10Z</time>
      </trkpt>
      <trkpt lat="41.7403360" lon="-5.3350360">
        <ele>708.5</ele>
        <time>2019-08-15T09:10:11Z</time>
      </trkpt>
      <trkpt lat="41.7403690" lon="-5.3350860">
        <ele>708.5</ele>
        <time>2019-08-15T09:10:12Z</time>
      </trkpt>
      <trkpt lat="41.7404020" lon="-5.3351340">
        <ele>708.4</ele>
        <time>2019-08-15T09:10:13Z</time>
      </trkpt>
      <trkpt lat="41.7404360" lon="-5.3351820">
        <ele>708.4</ele>
        <time>2019-08-15T09:10:14Z</time>
      </trkpt>
      <trkpt lat="41.7404720" lon="-5.3352300">
        <ele>708.3</ele>
        <time>2019-08-15T09:10:15Z</time>
      </trkpt>
      <trkpt lat="41.7405070" lon="-5.3352790">
        <ele>708.2</ele>
        <time>2019-08-15T09:10:16Z</time>
      </trkpt>
      <trkpt lat="41.7405400" lon="-5.3353270">
        <ele>708.2</ele>
        <time>2019-08-15T09:10:17Z</time>
      </trkpt>
      <trkpt lat="41.7405740" lon="-5.3353770">
        <ele>708.1</ele>
        <time>2019-08-15T09:10:18Z</time>
      </trkpt>
      <trkpt lat="41.7406070" lon="-5.3354270">
        <ele>708.1</ele>
        <time>2019-08-15T09:10:19Z</time>
      </trkpt>
      <trkpt lat="41.7406400" lon="-5.3354770">
        <ele>708.0</ele>
        <time>2019-08-15T09:10:20Z</time>
      </trkpt>
      <trkpt lat="41.7406740" lon="-5.3355270">
        <ele>708.0</ele>
        <time>2019-08-15T09:10:21Z</time>
      </trkpt>
      <trkpt lat="41.7407070" lon="-5.3355750">
        <ele>708.0</ele>
        <time>2019-08-15T09:10:22Z</time>
      </trkpt>
      <trkpt lat="41.7407410" lon="-5.3356230">
        <ele>708.0</ele>
        <time>2019-08-15T09:10:23Z</time>
      </trkpt>
      <trkpt lat="41.7407750" lon="-5.3356700">
        <ele>708.0</ele>
        <time>2019-08-15T09:10:24Z</time>
      </trkpt>
      <trkpt lat="41.7408090" lon="-5.3357180">
        <ele>708.1</ele>
        <time>2019-08-15T09:10:25Z</time>
      </trkpt>
      <trkpt lat="41.7408410" lon="-5.3357660">
        <ele>708.1</ele>
        <time>2019-08-15T09:10:26Z</time>
      </trkpt>
      <trkpt lat="41.7408740" lon="-5.3358140">
        <ele>708.2</ele>
        <time>2019-08-15T09:10:27Z</time>
      </trkpt>
      <trkpt lat="41.7409060" lon="-5.3358630">
        <ele>708.2</ele>
        <time>2019-08-15T09:10:28Z</time>
      </trkpt>
      <trkpt lat="41.7409400" lon="-5.3359100">
        <ele>708.3</ele>
        <time>2019-08-15T09:10:29Z</time>
      </trkpt>
      <trkpt lat="41.7409740" lon="-5.3359570">
        <ele>708.3</ele>
        <time>2019-08-15T09:10:30Z</time>
      </trkpt>
      <trkpt lat="41.7410090" lon="-5.3360030">
        <ele>708.4</ele>
        <time>2019-08-15T09:10:31Z</time>
      </trkpt>
      <trkpt lat="41.7410430" lon="-5.3360520">
        <ele>708.4</ele>
        <time>2019-08-15T09:10:32Z</time>
      </trkpt>
      <trkpt lat="41.7410760" lon="-5.3360990">
        <ele>708.5</ele>
        <time>2019-08-15T09:10:33Z</time>
      </trkpt>
      <trkpt lat="41.7411120" lon="-5.3361450">
        <ele>708.5</ele>
        <time>2019-08-15T09:10:34Z</time>
      </trkpt>
      <trkpt lat="41.7411480" lon="-5.3361900">
        <ele>708.6</ele>
        <time>2019-08-15T09:10:35Z</time>
      </trkpt>
      <trkpt lat="41.7411850" lon="-5.3362360">
        <ele>708.6</ele>
        <time>2019-08-15T09:10:36Z</time>
      </trkpt>
      <trkpt lat="41.7412210" lon="-5.3362820">
        <ele>708.7</ele>
        <time>2019-08-15T09:10:37Z</time>
      </trkpt>
      <trkpt lat="41.7412590" lon="-5.3363280">
        <ele>708.7</ele>
        <time>2019-08-15T09:10:38Z</time>
      </trkpt>
      <trkpt lat="41.7412960" lon="-5.3363740">
        <ele>708.7</ele>
        <time>2019-08-15T09:10:39Z</time>
      </trkpt>
      <trkpt lat="41.7413330" lon="-5.3364180">
        <ele>708.8</ele>
        <time>2019-08-15T09:10:40Z</time>
      </trkpt>
      <trkpt lat="41.7413700" lon="-5.3364630">
        <ele>708.8</ele>
        <time>2019-08-15T09:10:41Z</time>
      </trkpt>
      <trkpt lat="41.7414070" lon="-5.3365070">
        <ele>708.9</ele>
        <time>2019-08-15T09:10:42Z</time>
      </trkpt>
      <trkpt lat="41.7414460" lon="-5.3365520">
        <ele>708.9</ele>
        <time>2019-08-15T09:10:43Z</time>
      </trkpt>
      <trkpt lat="41.7414830" lon="-5.3365980">
        <ele>709.0</ele>
        <time>2019-08-15T09:10:44Z</time>
      </trkpt>
      <trkpt lat="41.7415210" lon="-5.3366430">
        <ele>709.0</ele>
        <time>2019-08-15T09:10:45Z</time>
      </trkpt>
      <trkpt lat="41.7415590" lon="-5.3366880">
        <ele>709.1</ele>
        <time>2019-08-15T09:10:46Z</time>
      </trkpt>
      <trkpt lat="41.7415970" lon="-5.3367350">
        <ele>709.1</ele>
        <time>2019-08-15T09:10:47Z</time>
      </trkpt>
      <trkpt lat="41.7416340" lon="-5.3367820">
        <ele>709.2</ele>
        <time>2019-08-15T09:10:48Z</time>
      </trkpt>
      <trkpt lat="41.7416700" lon="-5.3368300">
        <ele>709.2</ele>
        <time>2019-08-15T09:10:49Z</time>
      </trkpt>
      <trkpt lat="41.7417080" lon="-5.3368760">
        <ele>709.3</ele>
        <time>2019-08-15T09:10:50Z</time>
      </trkpt>
      <trkpt lat="41.7417460" lon="-5.3369200">
        <ele>709.4</ele>
        <time>2019-08-15T09:10:51Z</time>
      </trkpt>
      <trkpt lat="41.7417830" lon="-5.3369640">
        <ele>709.4</ele>
        <time>2019-08-15T09:10:52Z</time>
      </trkpt>
      <trkpt lat="41.7418200" lon="-5.3370090">
        <ele>709.5</ele>
        <time>2019-08-15T09:10:53Z</time>
      </trkpt>
      <trkpt lat="41.7418550" lon="-5.3370530">
        <ele>709.6</ele>
        <time>2019-08-15T09:10:54Z</time>
      </trkpt>
      <trkpt lat="41.7418890" lon="-5.3370960">
        <ele>709.6</ele>
        <time>2019-08-15T09:10:55Z</time>
      </trkpt>
      <trkpt lat="41.7419230" lon="-5.3371390">
        <ele>709.6</ele>
        <time>2019-08-15T09:10:56Z</time>
      </trkpt>
      <trkpt lat="41.7419580" lon="-5.3371830">
        <ele>709.7</ele>
        <time>2019-08-15T09:10:57Z</time>
      </trkpt>
      <trkpt lat="41.7419930" lon="-5.3372250">
        <ele>709.7</ele>
        <time>2019-08-15T09:10:58Z</time>
      </trkpt>
      <trkpt lat="41.7420280" lon="-5.3372690">
        <ele>709.7</ele>
        <time>2019-08-15T09:10:59Z</time>
      </trkpt>
      <trkpt lat="41.7420640" lon="-5.3373110">
        <ele>709.7</ele>
        <time>2019-08-15T09:11:00Z</time>
      </trkpt>
      <trkpt lat="41.7420990" lon="-5.3373540">
        <ele>709.7</ele>
        <time>2019-08-15T09:11:01Z</time>
      </trkpt>
      <trkpt lat="41.7421340" lon="-5.3373980">
        <ele>709.8</ele>
        <time>2019-08-15T09:11:02Z</time>
      </trkpt>
      <trkpt lat="41.7421690" lon="-5.3374420">
        <ele>709.8</ele>
        <time>2019-08-15T09:11:03Z</time>
      </trkpt>
      <trkpt lat="41.7422050" lon="-5.3374840">
        <ele>709.8</ele>
        <time>2019-08-15T09:11:04Z</time>
      </trkpt>
      <trkpt lat="41.7422420" lon="-5.3375250">
        <ele>709.8</ele>
        <time>2019-08-15T09:11:05Z</time>
      </trkpt>
      <trkpt lat="41.7422800" lon="-5.3375660">
        <ele>709.8</ele>
        <time>2019-08-15T09:11:06Z</time>
      </trkpt>
      <trkpt lat="41.7423160" lon="-5.3376070">
        <ele>709.8</ele>
        <time>2019-08-15T09:11:07Z</time>
      </trkpt>
      <trkpt lat="41.7423510" lon="-5.3376520">
        <ele>709.8</ele>
        <time>2019-08-15T09:11:08Z</time>
      </trkpt>
      <trkpt lat="41.7423850" lon="-5.3376970">
        <ele>709.8</ele>
        <time>2019-08-15T09:11:09Z</time>
      </trkpt>
      <trkpt lat="41.7424180" lon="-5.3377450">
        <ele>709.8</ele>
        <time>2019-08-15T09:11:10Z</time>
      </trkpt>
      <trkpt lat="41.7424520" lon="-5.3377930">
        <ele>709.8</ele>
        <time>2019-08-15T09:11:11Z</time>
      </trkpt>
      <trkpt lat="41.7424850" lon="-5.3378380">
        <ele>709.9</ele>
        <time>2019-08-15T09:11:12Z</time>
      </trkpt>
      <trkpt lat="41.7425190" lon="-5.3378830">
        <ele>709.9</ele>
        <time>2019-08-15T09:11:13Z</time>
      </trkpt>
      <trkpt lat="41.7425540" lon="-5.3379260">
        <ele>709.9</ele>
        <time>2019-08-15T09:11:14Z</time>
      </trkpt>
      <trkpt lat="41.7425890" lon="-5.3379690">
        <ele>710.0</ele>
        <time>2019-08-15T09:11:15Z</time>
      </trkpt>
      <trkpt lat="41.7426250" lon="-5.3380120">
        <ele>710.0</ele>
        <time>2019-08-15T09:11:16Z</time>
      </trkpt>
      <trkpt lat="41.7426600" lon="-5.3380550">
        <ele>710.1</ele>
        <time>2019-08-15T09:11:17Z</time>
      </trkpt>
      <trkpt lat="41.7426940" lon="-5.3380960">
        <ele>710.1</ele>
        <time>2019-08-15T09:11:18Z</time>
      </trkpt>
      <trkpt lat="41.7427280" lon="-5.3381390">
        <ele>710.2</ele>
        <time>2019-08-15T09:11:19Z</time>
      </trkpt>
      <trkpt lat="41.7427620" lon="-5.3381810">
        <ele>710.2</ele>
        <time>2019-08-15T09:11:20Z</time>
      </trkpt>
      <trkpt lat="41.7427980" lon="-5.3382220">
        <ele>710.3</ele>
        <time>2019-08-15T09:11:21Z</time>
      </trkpt>
      <trkpt lat="41.7428320" lon="-5.3382640">
        <ele>710.4</ele>
        <time>2019-08-15T09:11:22Z</time>
      </trkpt>
      <trkpt lat="41.7428670" lon="-5.3383050">
        <ele>710.4</ele>
        <time>2019-08-15T09:11:23Z</time>
      </trkpt>
      <trkpt lat="41.7429020" lon="-5.3383460">
        <ele>710.5</ele>
        <time>2019-08-15T09:11:24Z</time>
      </trkpt>
      <trkpt lat="41.7429380" lon="-5.3383880">
        <ele>710.5</ele>
        <time>2019-08-15T09:11:25Z</time>
      </trkpt>
      <trkpt lat="41.7429720" lon="-5.3384300">
        <ele>710.6</ele>
        <time>2019-08-15T09:11:26Z</time>
      </trkpt>
      <trkpt lat="41.7430070" lon="-5.3384730">
        <ele>710.6</ele>
        <time>2019-08-15T09:11:27Z</time>
      </trkpt>
      <trkpt lat="41.7430410" lon="-5.3385170">
        <ele>710.6</ele>
        <time>2019-08-15T09:11:28Z</time>
      </trkpt>
      <trkpt lat="41.7430760" lon="-5.3385590">
        <ele>710.7</ele>
        <time>2019-08-15T09:11:29Z</time>
      </trkpt>
      <trkpt lat="41.7431100" lon="-5.3386020">
        <ele>710.7</ele>
        <time>2019-08-15T09:11:30Z</time>
      </trkpt>
      <trkpt lat="41.7431450" lon="-5.3386460">
        <ele>710.7</ele>
        <time>2019-08-15T09:11:31Z</time>
      </trkpt>
      <trkpt lat="41.7431790" lon="-5.3386870">
        <ele>710.7</ele>
        <time>2019-08-15T09:11:32Z</time>
      </trkpt>
      <trkpt lat="41.7432150" lon="-5.3387300">
        <ele>710.7</ele>
        <time>2019-08-15T09:11:33Z</time>
      </trkpt>
      <trkpt lat="41.7432490" lon="-5.3387750">
        <ele>710.7</ele>
        <time>2019-08-15T09:11:34Z</time>
      </trkpt>
      <trkpt lat="41.7432840" lon="-5.3388180">
        <ele>710.7</ele>
        <time>2019-08-15T09:11:35Z</time>
      </trkpt>
      <trkpt lat="41.7433200" lon="-5.3388620">
        <ele>710.8</ele>
        <time>2019-08-15T09:11:36Z</time>
      </trkpt>
      <trkpt lat="41.7433560" lon="-5.3389070">
        <ele>710.8</ele>
        <time>2019-08-15T09:11:37Z</time>
      </trkpt>
      <trkpt lat="41.7433900" lon="-5.3389500">
        <ele>710.8</ele>
        <time>2019-08-15T09:11:38Z</time>
      </trkpt>
      <trkpt lat="41.7434260" lon="-5.3389930">
        <ele>710.8</ele>
        <time>2019-08-15T09:11:39Z</time>
      </trkpt>
      <trkpt lat="41.7434620" lon="-5.3390370">
        <ele>710.8</ele>
        <time>2019-08-15T09:11:40Z</time>
      </trkpt>
      <trkpt lat="41.7434970" lon="-5.3390800">
        <ele>710.8</ele>
        <time>2019-08-15T09:11:41Z</time>
      </trkpt>
      <trkpt lat="41.7435330" lon="-5.3391250">
        <ele>710.8</ele>
        <time>2019-08-15T09:11:42Z</time>
      </trkpt>
      <trkpt lat="41.7435700" lon="-5.3391690">
        <ele>710.8</ele>
        <time>2019-08-15T09:11:43Z</time>
      </trkpt>
      <trkpt lat="41.7436050" lon="-5.3392120">
        <ele>710.8</ele>
        <time>2019-08-15T09:11:44Z</time>
      </trkpt>
      <trkpt lat="41.7436420" lon="-5.3392550">
        <ele>710.8</ele>
        <time>2019-08-15T09:11:45Z</time>
      </trkpt>
      <trkpt lat="41.7436770" lon="-5.3392990">
        <ele>710.8</ele>
        <time>2019-08-15T09:11:46Z</time>
      </trkpt>
      <trkpt lat="41.7437130" lon="-5.3393430">
        <ele>710.8</ele>
        <time>2019-08-15T09:11:47Z</time>
      </trkpt>
      <trkpt lat="41.7437480" lon="-5.3393860">
        <ele>710.8</ele>
        <time>2019-08-15T09:11:48Z</time>
      </trkpt>
      <trkpt lat="41.7437830" lon="-5.3394290">
        <ele>710.8</ele>
        <time>2019-08-15T09:11:49Z</time>
      </trkpt>
      <trkpt lat="41.7438170" lon="-5.3394730">
        <ele>710.8</ele>
        <time>2019-08-15T09:11:50Z</time>
      </trkpt>
      <trkpt lat="41.7438510" lon="-5.3395150">
        <ele>710.8</ele>
        <time>2019-08-15T09:11:51Z</time>
      </trkpt>
      <trkpt lat="41.7438870" lon="-5.3395580">
        <ele>710.8</ele>
        <time>2019-08-15T09:11:52Z</time>
      </trkpt>
      <trkpt lat="41.7439220" lon="-5.3396020">
        <ele>710.8</ele>
        <time>2019-08-15T09:11:53Z</time>
      </trkpt>
      <trkpt lat="41.7439570" lon="-5.3396450">
        <ele>710.8</ele>
        <time>2019-08-15T09:11:54Z</time>
      </trkpt>
      <trkpt lat="41.7439920" lon="-5.3396900">
        <ele>710.9</ele>
        <time>2019-08-15T09:11:55Z</time>
      </trkpt>
      <trkpt lat="41.7440270" lon="-5.3397330">
        <ele>710.9</ele>
        <time>2019-08-15T09:11:56Z</time>
      </trkpt>
      <trkpt lat="41.7440640" lon="-5.3397790">
        <ele>710.9</ele>
        <time>2019-08-15T09:11:57Z</time>
      </trkpt>
      <trkpt lat="41.7441000" lon="-5.3398240">
        <ele>711.0</ele>
        <time>2019-08-15T09:11:58Z</time>
      </trkpt>
      <trkpt lat="41.7441360" lon="-5.3398690">
        <ele>711.0</ele>
        <time>2019-08-15T09:11:59Z</time>
      </trkpt>
      <trkpt lat="41.7441730" lon="-5.3399120">
        <ele>711.1</ele>
        <time>2019-08-15T09:12:00Z</time>
      </trkpt>
      <trkpt lat="41.7442090" lon="-5.3399550">
        <ele>711.2</ele>
        <time>2019-08-15T09:12:01Z</time>
      </trkpt>
      <trkpt lat="41.7442450" lon="-5.3399980">
        <ele>711.3</ele>
        <time>2019-08-15T09:12:02Z</time>
      </trkpt>
      <trkpt lat="41.7442810" lon="-5.3400430">
        <ele>711.4</ele>
        <time>2019-08-15T09:12:03Z</time>
      </trkpt>
      <trkpt lat="41.7443170" lon="-5.3400870">
        <ele>711.5</ele>
        <time>2019-08-15T09:12:04Z</time>
      </trkpt>
      <trkpt lat="41.7443530" lon="-5.3401310">
        <ele>711.6</ele>
        <time>2019-08-15T09:12:05Z</time>
      </trkpt>
      <trkpt lat="41.7443890" lon="-5.3401770">
        <ele>711.8</ele>
        <time>2019-08-15T09:12:06Z</time>
      </trkpt>
      <trkpt lat="41.7444250" lon="-5.3402220">
        <ele>711.9</ele>
        <time>2019-08-15T09:12:07Z</time>
      </trkpt>
      <trkpt lat="41.7444610" lon="-5.3402670">
        <ele>712.0</ele>
        <time>2019-08-15T09:12:08Z</time>
      </trkpt>
      <trkpt lat="41.7444980" lon="-5.3403110">
        <ele>712.1</ele>
        <time>2019-08-15T09:12:09Z</time>
      </trkpt>
      <trkpt lat="41.7445350" lon="-5.3403570">
        <ele>712.2</ele>
        <time>2019-08-15T09:12:10Z</time>
      </trkpt>
      <trkpt lat="41.7445730" lon="-5.3404020">
        <ele>712.4</ele>
        <time>2019-08-15T09:12:11Z</time>
      </trkpt>
      <trkpt lat="41.7446100" lon="-5.3404470">
        <ele>712.6</ele>
        <time>2019-08-15T09:12:12Z</time>
      </trkpt>
      <trkpt lat="41.7446480" lon="-5.3404910">
        <ele>712.7</ele>
        <time>2019-08-15T09:12:13Z</time>
      </trkpt>
      <trkpt lat="41.7446850" lon="-5.3405360">
        <ele>712.9</ele>
        <time>2019-08-15T09:12:14Z</time>
      </trkpt>
      <trkpt lat="41.7447220" lon="-5.3405810">
        <ele>713.0</ele>
        <time>2019-08-15T09:12:15Z</time>
      </trkpt>
      <trkpt lat="41.7447580" lon="-5.3406260">
        <ele>713.1</ele>
        <time>2019-08-15T09:12:16Z</time>
      </trkpt>
      <trkpt lat="41.7447960" lon="-5.3406700">
        <ele>713.1</ele>
        <time>2019-08-15T09:12:17Z</time>
      </trkpt>
      <trkpt lat="41.7448340" lon="-5.3407140">
        <ele>713.2</ele>
        <time>2019-08-15T09:12:18Z</time>
      </trkpt>
      <trkpt lat="41.7448710" lon="-5.3407590">
        <ele>713.2</ele>
        <time>2019-08-15T09:12:19Z</time>
      </trkpt>
      <trkpt lat="41.7449090" lon="-5.3408040">
        <ele>713.2</ele>
        <time>2019-08-15T09:12:20Z</time>
      </trkpt>
      <trkpt lat="41.7449460" lon="-5.3408500">
        <ele>713.2</ele>
        <time>2019-08-15T09:12:21Z</time>
      </trkpt>
      <trkpt lat="41.7449840" lon="-5.3408950">
        <ele>713.2</ele>
        <time>2019-08-15T09:12:22Z</time>
      </trkpt>
      <trkpt lat="41.7450240" lon="-5.3409410">
        <ele>713.1</ele>
        <time>2019-08-15T09:12:23Z</time>
      </trkpt>
      <trkpt lat="41.7450630" lon="-5.3409890">
        <ele>713.1</ele>
        <time>2019-08-15T09:12:24Z</time>
      </trkpt>
      <trkpt lat="41.7451020" lon="-5.3410390">
        <ele>713.0</ele>
        <time>2019-08-15T09:12:25Z</time>
      </trkpt>
      <trkpt lat="41.7451400" lon="-5.3410880">
        <ele>713.0</ele>
        <time>2019-08-15T09:12:26Z</time>
      </trkpt>
      <trkpt lat="41.7451780" lon="-5.3411360">
        <ele>712.9</ele>
        <time>2019-08-15T09:12:27Z</time>
      </trkpt>
      <trkpt lat="41.7452170" lon="-5.3411830">
        <ele>712.8</ele>
        <time>2019-08-15T09:12:28Z</time>
      </trkpt>
      <trkpt lat="41.7452580" lon="-5.3412280">
        <ele>712.7</ele>
        <time>2019-08-15T09:12:29Z</time>
      </trkpt>
      <trkpt lat="41.7452980" lon="-5.3412750">
        <ele>712.7</ele>
        <time>2019-08-15T09:12:30Z</time>
      </trkpt>
      <trkpt lat="41.7453380" lon="-5.3413240">
        <ele>712.6</ele>
        <time>2019-08-15T09:12:31Z</time>
      </trkpt>
      <trkpt lat="41.7453730" lon="-5.3413730">
        <ele>712.6</ele>
        <time>2019-08-15T09:12:32Z</time>
      </trkpt>
      <trkpt lat="41.7454080" lon="-5.3414200">
        <ele>712.6</ele>
        <time>2019-08-15T09:12:33Z</time>
      </trkpt>
      <trkpt lat="41.7454420" lon="-5.3414630">
        <ele>712.6</ele>
        <time>2019-08-15T09:12:34Z</time>
      </trkpt>
      <trkpt lat="41.7454790" lon="-5.3415060">
        <ele>712.6</ele>
        <time>2019-08-15T09:12:35Z</time>
      </trkpt>
      <trkpt lat="41.7455160" lon="-5.3415510">
        <ele>712.6</ele>
        <time>2019-08-15T09:12:36Z</time>
      </trkpt>
      <trkpt lat="41.7455530" lon="-5.3415980">
        <ele>712.6</ele>
        <time>2019-08-15T09:12:37Z</time>
      </trkpt>
      <trkpt lat="41.7455910" lon="-5.3416450">
        <ele>712.6</ele>
        <time>2019-08-15T09:12:38Z</time>
      </trkpt>
      <trkpt lat="41.7456280" lon="-5.3416930">
        <ele>712.6</ele>
        <time>2019-08-15T09:12:39Z</time>
      </trkpt>
      <trkpt lat="41.7456660" lon="-5.3417400">
        <ele>712.6</ele>
        <time>2019-08-15T09:12:40Z</time>
      </trkpt>
      <trkpt lat="41.7457030" lon="-5.3417880">
        <ele>712.6</ele>
        <time>2019-08-15T09:12:41Z</time>
      </trkpt>
      <trkpt lat="41.7457410" lon="-5.3418340">
        <ele>712.6</ele>
        <time>2019-08-15T09:12:42Z</time>
      </trkpt>
      <trkpt lat="41.7457790" lon="-5.3418810">
        <ele>712.6</ele>
        <time>2019-08-15T09:12:43Z</time>
      </trkpt>
      <trkpt lat="41.7458180" lon="-5.3419280">
        <ele>712.6</ele>
        <time>2019-08-15T09:12:44Z</time>
      </trkpt>
      <trkpt lat="41.7458570" lon="-5.3419750">
        <ele>712.5</ele>
        <time>2019-08-15T09:12:45Z</time>
      </trkpt>
      <trkpt lat="41.7458960" lon="-5.3420200">
        <ele>712.5</ele>
        <time>2019-08-15T09:12:46Z</time>
      </trkpt>
      <trkpt lat="41.7459370" lon="-5.3420620">
        <ele>712.4</ele>
        <time>2019-08-15T09:12:47Z</time>
      </trkpt>
      <trkpt lat="41.7459790" lon="-5.3421020">
        <ele>712.3</ele>
        <time>2019-08-15T09:12:48Z</time>
      </trkpt>
      <trkpt lat="41.7460200" lon="-5.3421450">
        <ele>712.2</ele>
        <time>2019-08-15T09:12:49Z</time>
      </trkpt>
      <trkpt lat="41.7460570" lon="-5.3421910">
        <ele>712.1</ele>
        <time>2019-08-15T09:12:50Z</time>
      </trkpt>
      <trkpt lat="41.7460940" lon="-5.3422380">
        <ele>712.0</ele>
        <time>2019-08-15T09:12:51Z</time>
      </trkpt>
      <trkpt lat="41.7461310" lon="-5.3422870">
        <ele>711.8</ele>
        <time>2019-08-15T09:12:52Z</time>
      </trkpt>
      <trkpt lat="41.7461690" lon="-5.3423330">
        <ele>711.8</ele>
        <time>2019-08-15T09:12:53Z</time>
      </trkpt>
      <trkpt lat="41.7462070" lon="-5.3423790">
        <ele>711.7</ele>
        <time>2019-08-15T09:12:54Z</time>
      </trkpt>
      <trkpt lat="41.7462440" lon="-5.3424250">
        <ele>711.6</ele>
        <time>2019-08-15T09:12:55Z</time>
      </trkpt>
      <trkpt lat="41.7462810" lon="-5.3424710">
        <ele>711.5</ele>
        <time>2019-08-15T09:12:56Z</time>
      </trkpt>
      <trkpt lat="41.7463190" lon="-5.3425160">
        <ele>711.5</ele>
        <time>2019-08-15T09:12:57Z</time>
      </trkpt>
      <trkpt lat="41.7463570" lon="-5.3425590">
        <ele>711.4</ele>
        <time>2019-08-15T09:12:58Z</time>
      </trkpt>
      <trkpt lat="41.7463950" lon="-5.3426030">
        <ele>711.4</ele>
        <time>2019-08-15T09:12:59Z</time>
      </trkpt>
      <trkpt lat="41.7464340" lon="-5.3426470">
        <ele>711.4</ele>
        <time>2019-08-15T09:13:00Z</time>
      </trkpt>
      <trkpt lat="41.7464710" lon="-5.3426920">
        <ele>711.4</ele>
        <time>2019-08-15T09:13:01Z</time>
      </trkpt>
      <trkpt lat="41.7465070" lon="-5.3427370">
        <ele>711.5</ele>
        <time>2019-08-15T09:13:02Z</time>
      </trkpt>
      <trkpt lat="41.7465430" lon="-5.3427830">
        <ele>711.6</ele>
        <time>2019-08-15T09:13:03Z</time>
      </trkpt>
      <trkpt lat="41.7465790" lon="-5.3428270">
        <ele>711.6</ele>
        <time>2019-08-15T09:13:04Z</time>
      </trkpt>
      <trkpt lat="41.7466140" lon="-5.3428710">
        <ele>711.7</ele>
        <time>2019-08-15T09:13:05Z</time>
      </trkpt>
      <trkpt lat="41.7466490" lon="-5.3429140">
        <ele>711.8</ele>
        <time>2019-08-15T09:13:06Z</time>
      </trkpt>
      <trkpt lat="41.7466850" lon="-5.3429590">
        <ele>711.9</ele>
        <time>2019-08-15T09:13:07Z</time>
      </trkpt>
      <trkpt lat="41.7467220" lon="-5.3430020">
        <ele>712.0</ele>
        <time>2019-08-15T09:13:08Z</time>
      </trkpt>
      <trkpt lat="41.7467580" lon="-5.3430460">
        <ele>712.1</ele>
        <time>2019-08-15T09:13:09Z</time>
      </trkpt>
      <trkpt lat="41.7467950" lon="-5.3430920">
        <ele>712.2</ele>
        <time>2019-08-15T09:13:10Z</time>
      </trkpt>
      <trkpt lat="41.7468300" lon="-5.3431360">
        <ele>712.3</ele>
        <time>2019-08-15T09:13:11Z</time>
      </trkpt>
      <trkpt lat="41.7468660" lon="-5.3431810">
        <ele>712.4</ele>
        <time>2019-08-15T09:13:12Z</time>
      </trkpt>
      <trkpt lat="41.7469030" lon="-5.3432260">
        <ele>712.5</ele>
        <time>2019-08-15T09:13:13Z</time>
      </trkpt>
      <trkpt lat="41.7469390" lon="-5.3432710">
        <ele>712.6</ele>
        <time>2019-08-15T09:13:14Z</time>
      </trkpt>
      <trkpt lat="41.7469750" lon="-5.3433170">
        <ele>712.6</ele>
        <time>2019-08-15T09:13:15Z</time>
      </trkpt>
      <trkpt lat="41.7470110" lon="-5.3433600">
        <ele>712.7</ele>
        <time>2019-08-15T09:13:16Z</time>
      </trkpt>
      <trkpt lat="41.7470470" lon="-5.3434040">
        <ele>712.7</ele>
        <time>2019-08-15T09:13:17Z</time>
      </trkpt>
      <trkpt lat="41.7470840" lon="-5.3434500">
        <ele>712.7</ele>
        <time>2019-08-15T09:13:18Z</time>
      </trkpt>
      <trkpt lat="41.7471210" lon="-5.3434950">
        <ele>712.7</ele>
        <time>2019-08-15T09:13:19Z</time>
      </trkpt>
      <trkpt lat="41.7471580" lon="-5.3435380">
        <ele>712.7</ele>
        <time>2019-08-15T09:13:20Z</time>
      </trkpt>
      <trkpt lat="41.7471950" lon="-5.3435830">
        <ele>712.7</ele>
        <time>2019-08-15T09:13:21Z</time>
      </trkpt>
      <trkpt lat="41.7472310" lon="-5.3436280">
        <ele>712.6</ele>
        <time>2019-08-15T09:13:22Z</time>
      </trkpt>
      <trkpt lat="41.7472670" lon="-5.3436730">
        <ele>712.6</ele>
        <time>2019-08-15T09:13:23Z</time>
      </trkpt>
      <trkpt lat="41.7473040" lon="-5.3437160">
        <ele>712.5</ele>
        <time>2019-08-15T09:13:24Z</time>
      </trkpt>
      <trkpt lat="41.7473410" lon="-5.3437590">
        <ele>712.5</ele>
        <time>2019-08-15T09:13:25Z</time>
      </trkpt>
      <trkpt lat="41.7473770" lon="-5.3438030">
        <ele>712.5</ele>
        <time>2019-08-15T09:13:26Z</time>
      </trkpt>
      <trkpt lat="41.7474120" lon="-5.3438480">
        <ele>712.5</ele>
        <time>2019-08-15T09:13:27Z</time>
      </trkpt>
      <trkpt lat="41.7474470" lon="-5.3438910">
        <ele>712.5</ele>
        <time>2019-08-15T09:13:28Z</time>
      </trkpt>
      <trkpt lat="41.7474810" lon="-5.3439340">
        <ele>712.5</ele>
        <time>2019-08-15T09:13:29Z</time>
      </trkpt>
      <trkpt lat="41.7475150" lon="-5.3439770">
        <ele>712.5</ele>
        <time>2019-08-15T09:13:30Z</time>
      </trkpt>
      <trkpt lat="41.7475510" lon="-5.3440180">
        <ele>712.5</ele>
        <time>2019-08-15T09:13:31Z</time>
      </trkpt>
      <trkpt lat="41.7475880" lon="-5.3440630">
        <ele>712.5</ele>
        <time>2019-08-15T09:13:32Z</time>
      </trkpt>
      <trkpt lat="41.7476260" lon="-5.3441080">
        <ele>712.6</ele>
        <time>2019-08-15T09:13:33Z</time>
      </trkpt>
      <trkpt lat="41.7476640" lon="-5.3441550">
        <ele>712.6</ele>
        <time>2019-08-15T09:13:34Z</time>
      </trkpt>
      <trkpt lat="41.7477010" lon="-5.3442010">
        <ele>712.7</ele>
        <time>2019-08-15T09:13:35Z</time>
      </trkpt>
      <trkpt lat="41.7477400" lon="-5.3442480">
        <ele>712.8</ele>
        <time>2019-08-15T09:13:36Z</time>
      </trkpt>
      <trkpt lat="41.7477770" lon="-5.3442950">
        <ele>712.9</ele>
        <time>2019-08-15T09:13:37Z</time>
      </trkpt>
      <trkpt lat="41.7478150" lon="-5.3443430">
        <ele>713.0</ele>
        <time>2019-08-15T09:13:38Z</time>
      </trkpt>
      <trkpt lat="41.7478520" lon="-5.3443900">
        <ele>713.1</ele>
        <time>2019-08-15T09:13:39Z</time>
      </trkpt>
      <trkpt lat="41.7478900" lon="-5.3444390">
        <ele>713.2</ele>
        <time>2019-08-15T09:13:40Z</time>
      </trkpt>
      <trkpt lat="41.7479290" lon="-5.3444880">
        <ele>713.3</ele>
        <time>2019-08-15T09:13:41Z</time>
      </trkpt>
      <trkpt lat="41.7479680" lon="-5.3445330">
        <ele>713.4</ele>
        <time>2019-08-15T09:13:42Z</time>
      </trkpt>
      <trkpt lat="41.7480070" lon="-5.3445790">
        <ele>713.4</ele>
        <time>2019-08-15T09:13:43Z</time>
      </trkpt>
      <trkpt lat="41.7480460" lon="-5.3446240">
        <ele>713.5</ele>
        <time>2019-08-15T09:13:44Z</time>
      </trkpt>
      <trkpt lat="41.7480840" lon="-5.3446710">
        <ele>713.5</ele>
        <time>2019-08-15T09:13:45Z</time>
      </trkpt>
      <trkpt lat="41.7481220" lon="-5.3447190">
        <ele>713.6</ele>
        <time>2019-08-15T09:13:46Z</time>
      </trkpt>
      <trkpt lat="41.7481610" lon="-5.3447680">
        <ele>713.6</ele>
        <time>2019-08-15T09:13:47Z</time>
      </trkpt>
      <trkpt lat="41.7481990" lon="-5.3448160">
        <ele>713.6</ele>
        <time>2019-08-15T09:13:48Z</time>
      </trkpt>
      <trkpt lat="41.7482380" lon="-5.3448640">
        <ele>713.7</ele>
        <time>2019-08-15T09:13:49Z</time>
      </trkpt>
      <trkpt lat="41.7482770" lon="-5.3449110">
        <ele>713.7</ele>
        <time>2019-08-15T09:13:50Z</time>
      </trkpt>
      <trkpt lat="41.7483160" lon="-5.3449580">
        <ele>713.7</ele>
        <time>2019-08-15T09:13:51Z</time>
      </trkpt>
      <trkpt lat="41.7483540" lon="-5.3450050">
        <ele>713.7</ele>
        <time>2019-08-15T09:13:52Z</time>
      </trkpt>
      <trkpt lat="41.7483920" lon="-5.3450510">
        <ele>713.7</ele>
        <time>2019-08-15T09:13:53Z</time>
      </trkpt>
      <trkpt lat="41.7484300" lon="-5.3450980">
        <ele>713.6</ele>
        <time>2019-08-15T09:13:54Z</time>
      </trkpt>
      <trkpt lat="41.7484680" lon="-5.3451450">
        <ele>713.6</ele>
        <time>2019-08-15T09:13:55Z</time>
      </trkpt>
      <trkpt lat="41.7485070" lon="-5.3451910">
        <ele>713.6</ele>
        <time>2019-08-15T09:13:56Z</time>
      </trkpt>
      <trkpt lat="41.7485450" lon="-5.3452380">
        <ele>713.6</ele>
        <time>2019-08-15T09:13:57Z</time>
      </trkpt>
      <trkpt lat="41.7485830" lon="-5.3452830">
        <ele>713.6</ele>
        <time>2019-08-15T09:13:58Z</time>
      </trkpt>
      <trkpt lat="41.7486200" lon="-5.3453310">
        <ele>713.5</ele>
        <time>2019-08-15T09:13:59Z</time>
      </trkpt>
      <trkpt lat="41.7486580" lon="-5.3453780">
        <ele>713.4</ele>
        <time>2019-08-15T09:14:00Z</time>
      </trkpt>
      <trkpt lat="41.7486970" lon="-5.3454260">
        <ele>713.4</ele>
        <time>2019-08-15T09:14:01Z</time>
      </trkpt>
      <trkpt lat="41.7487340" lon="-5.3454760">
        <ele>713.3</ele>
        <time>2019-08-15T09:14:02Z</time>
      </trkpt>
      <trkpt lat="41.7487730" lon="-5.3455260">
        <ele>713.3</ele>
        <time>2019-08-15T09:14:03Z</time>
      </trkpt>
      <trkpt lat="41.7488120" lon="-5.3455750">
        <ele>713.2</ele>
        <time>2019-08-15T09:14:04Z</time>
      </trkpt>
      <trkpt lat="41.7488520" lon="-5.3456250">
        <ele>713.2</ele>
        <time>2019-08-15T09:14:05Z</time>
      </trkpt>
      <trkpt lat="41.7488920" lon="-5.3456740">
        <ele>713.1</ele>
        <time>2019-08-15T09:14:06Z</time>
      </trkpt>
      <trkpt lat="41.7489330" lon="-5.3457230">
        <ele>713.1</ele>
        <time>2019-08-15T09:14:07Z</time>
      </trkpt>
      <trkpt lat="41.7489730" lon="-5.3457710">
        <ele>713.1</ele>
        <time>2019-08-15T09:14:08Z</time>
      </trkpt>
      <trkpt lat="41.7490120" lon="-5.3458190">
        <ele>713.1</ele>
        <time>2019-08-15T09:14:09Z</time>
      </trkpt>
      <trkpt lat="41.7490520" lon="-5.3458660">
        <ele>713.2</ele>
        <time>2019-08-15T09:14:10Z</time>
      </trkpt>
      <trkpt lat="41.7490920" lon="-5.3459150">
        <ele>713.2</ele>
        <time>2019-08-15T09:14:11Z</time>
      </trkpt>
      <trkpt lat="41.7491320" lon="-5.3459630">
        <ele>713.3</ele>
        <time>2019-08-15T09:14:12Z</time>
      </trkpt>
      <trkpt lat="41.7491720" lon="-5.3460110">
        <ele>713.3</ele>
        <time>2019-08-15T09:14:13Z</time>
      </trkpt>
      <trkpt lat="41.7492120" lon="-5.3460590">
        <ele>713.4</ele>
        <time>2019-08-15T09:14:14Z</time>
      </trkpt>
      <trkpt lat="41.7492530" lon="-5.3461060">
        <ele>713.4</ele>
        <time>2019-08-15T09:14:15Z</time>
      </trkpt>
      <trkpt lat="41.7492930" lon="-5.3461540">
        <ele>713.5</ele>
        <time>2019-08-15T09:14:16Z</time>
      </trkpt>
      <trkpt lat="41.7493320" lon="-5.3462020">
        <ele>713.5</ele>
        <time>2019-08-15T09:14:17Z</time>
      </trkpt>
      <trkpt lat="41.7493720" lon="-5.3462500">
        <ele>713.6</ele>
        <time>2019-08-15T09:14:18Z</time>
      </trkpt>
      <trkpt lat="41.7494110" lon="-5.3462990">
        <ele>713.6</ele>
        <time>2019-08-15T09:14:19Z</time>
      </trkpt>
      <trkpt lat="41.7494520" lon="-5.3463470">
        <ele>713.7</ele>
        <time>2019-08-15T09:14:20Z</time>
      </trkpt>
      <trkpt lat="41.7494930" lon="-5.3463970">
        <ele>713.7</ele>
        <time>2019-08-15T09:14:21Z</time>
      </trkpt>
      <trkpt lat="41.7495360" lon="-5.3464450">
        <ele>713.8</ele>
        <time>2019-08-15T09:14:22Z</time>
      </trkpt>
      <trkpt lat="41.7495780" lon="-5.3464940">
        <ele>713.8</ele>
        <time>2019-08-15T09:14:23Z</time>
      </trkpt>
      <trkpt lat="41.7496190" lon="-5.3465430">
        <ele>713.9</ele>
        <time>2019-08-15T09:14:24Z</time>
      </trkpt>
      <trkpt lat="41.7496610" lon="-5.3465930">
        <ele>713.9</ele>
        <time>2019-08-15T09:14:25Z</time>
      </trkpt>
      <trkpt lat="41.7497010" lon="-5.3466410">
        <ele>714.0</ele>
        <time>2019-08-15T09:14:26Z</time>
      </trkpt>
      <trkpt lat="41.7497420" lon="-5.3466890">
        <ele>714.0</ele>
        <time>2019-08-15T09:14:27Z</time>
      </trkpt>
      <trkpt lat="41.7497830" lon="-5.3467380">
        <ele>714.1</ele>
        <time>2019-08-15T09:14:28Z</time>
      </trkpt>
      <trkpt lat="41.7498230" lon="-5.3467870">
        <ele>714.1</ele>
        <time>2019-08-15T09:14:29Z</time>
      </trkpt>
      <trkpt lat="41.7498650" lon="-5.3468360">
        <ele>714.2</ele>
        <time>2019-08-15T09:14:30Z</time>
      </trkpt>
      <trkpt lat="41.7499060" lon="-5.3468830">
        <ele>714.3</ele>
        <time>2019-08-15T09:14:31Z</time>
      </trkpt>
      <trkpt lat="41.7499480" lon="-5.3469310">
        <ele>714.4</ele>
        <time>2019-08-15T09:14:32Z</time>
      </trkpt>
      <trkpt lat="41.7499900" lon="-5.3469800">
        <ele>714.5</ele>
        <time>2019-08-15T09:14:33Z</time>
      </trkpt>
      <trkpt lat="41.7500310" lon="-5.3470300">
        <ele>714.6</ele>
        <time>2019-08-15T09:14:34Z</time>
      </trkpt>
      <trkpt lat="41.7500720" lon="-5.3470800">
        <ele>714.6</ele>
        <time>2019-08-15T09:14:35Z</time>
      </trkpt>
      <trkpt lat="41.7501130" lon="-5.3471280">
        <ele>714.7</ele>
        <time>2019-08-15T09:14:36Z</time>
      </trkpt>
      <trkpt lat="41.7501530" lon="-5.3471750">
        <ele>714.7</ele>
        <time>2019-08-15T09:14:37Z</time>
      </trkpt>
      <trkpt lat="41.7501920" lon="-5.3472200">
        <ele>714.8</ele>
        <time>2019-08-15T09:14:38Z</time>
      </trkpt>
      <trkpt lat="41.7502320" lon="-5.3472650">
        <ele>714.8</ele>
        <time>2019-08-15T09:14:39Z</time>
      </trkpt>
      <trkpt lat="41.7502720" lon="-5.3473110">
        <ele>714.8</ele>
        <time>2019-08-15T09:14:40Z</time>
      </trkpt>
      <trkpt lat="41.7503130" lon="-5.3473580">
        <ele>714.8</ele>
        <time>2019-08-15T09:14:41Z</time>
      </trkpt>
      <trkpt lat="41.7503530" lon="-5.3474050">
        <ele>714.9</ele>
        <time>2019-08-15T09:14:42Z</time>
      </trkpt>
      <trkpt lat="41.7503930" lon="-5.3474530">
        <ele>714.9</ele>
        <time>2019-08-15T09:14:43Z</time>
      </trkpt>
      <trkpt lat="41.7504320" lon="-5.3475000">
        <ele>714.9</ele>
        <time>2019-08-15T09:14:44Z</time>
      </trkpt>
      <trkpt lat="41.7504720" lon="-5.3475480">
        <ele>714.9</ele>
        <time>2019-08-15T09:14:45Z</time>
      </trkpt>
      <trkpt lat="41.7505120" lon="-5.3475960">
        <ele>714.9</ele>
        <time>2019-08-15T09:14:46Z</time>
      </trkpt>
      <trkpt lat="41.7505510" lon="-5.3476430">
        <ele>714.9</ele>
        <time>2019-08-15T09:14:47Z</time>
      </trkpt>
      <trkpt lat="41.7505890" lon="-5.3476880">
        <ele>714.9</ele>
        <time>2019-08-15T09:14:48Z</time>
      </trkpt>
      <trkpt lat="41.7506240" lon="-5.3477310">
        <ele>714.9</ele>
        <time>2019-08-15T09:14:49Z</time>
      </trkpt>
      <trkpt lat="41.7506590" lon="-5.3477710">
        <ele>714.9</ele>
        <time>2019-08-15T09:14:50Z</time>
      </trkpt>
      <trkpt lat="41.7506930" lon="-5.3478120">
        <ele>715.0</ele>
        <time>2019-08-15T09:14:51Z</time>
      </trkpt>
      <trkpt lat="41.7507290" lon="-5.3478560">
        <ele>715.0</ele>
        <time>2019-08-15T09:14:52Z</time>
      </trkpt>
      <trkpt lat="41.7507660" lon="-5.3478980">
        <ele>715.0</ele>
        <time>2019-08-15T09:14:53Z</time>
      </trkpt>
      <trkpt lat="41.7508050" lon="-5.3479410">
        <ele>715.0</ele>
        <time>2019-08-15T09:14:54Z</time>
      </trkpt>
      <trkpt lat="41.7508420" lon="-5.3479860">
        <ele>715.1</ele>
        <time>2019-08-15T09:14:55Z</time>
      </trkpt>
      <trkpt lat="41.7508800" lon="-5.3480320">
        <ele>715.1</ele>
        <time>2019-08-15T09:14:56Z</time>
      </trkpt>
      <trkpt lat="41.7509190" lon="-5.3480790">
        <ele>715.1</ele>
        <time>2019-08-15T09:14:57Z</time>
      </trkpt>
      <trkpt lat="41.7509580" lon="-5.3481230">
        <ele>715.2</ele>
        <time>2019-08-15T09:14:58Z</time>
      </trkpt>
      <trkpt lat="41.7509970" lon="-5.3481690">
        <ele>715.2</ele>
        <time>2019-08-15T09:14:59Z</time>
      </trkpt>
      <trkpt lat="41.7510350" lon="-5.3482160">
        <ele>715.3</ele>
        <time>2019-08-15T09:15:00Z</time>
      </trkpt>
      <trkpt lat="41.7510730" lon="-5.3482630">
        <ele>715.3</ele>
        <time>2019-08-15T09:15:01Z</time>
      </trkpt>
      <trkpt lat="41.7511140" lon="-5.3483090">
        <ele>715.4</ele>
        <time>2019-08-15T09:15:02Z</time>
      </trkpt>
      <trkpt lat="41.7511540" lon="-5.3483540">
        <ele>715.4</ele>
        <time>2019-08-15T09:15:03Z</time>
      </trkpt>
      <trkpt lat="41.7511940" lon="-5.3484000">
        <ele>715.5</ele>
        <time>2019-08-15T09:15:04Z</time>
      </trkpt>
      <trkpt lat="41.7512340" lon="-5.3484460">
        <ele>715.5</ele>
        <time>2019-08-15T09:15:05Z</time>
      </trkpt>
      <trkpt lat="41.7512720" lon="-5.3484920">
        <ele>715.6</ele>
        <time>2019-08-15T09:15:06Z</time>
      </trkpt>
      <trkpt lat="41.7513100" lon="-5.3485380">
        <ele>715.6</ele>
        <time>2019-08-15T09:15:07Z</time>
      </trkpt>
      <trkpt lat="41.7513480" lon="-5.3485830">
        <ele>715.7</ele>
        <time>2019-08-15T09:15:08Z</time>
      </trkpt>
      <trkpt lat="41.7513870" lon="-5.3486280">
        <ele>715.7</ele>
        <time>2019-08-15T09:15:09Z</time>
      </trkpt>
      <trkpt lat="41.7514250" lon="-5.3486740">
        <ele>715.8</ele>
        <time>2019-08-15T09:15:10Z</time>
      </trkpt>
      <trkpt lat="41.7514630" lon="-5.3487210">
        <ele>715.8</ele>
        <time>2019-08-15T09:15:11Z</time>
      </trkpt>
      <trkpt lat="41.7515030" lon="-5.3487670">
        <ele>715.9</ele>
        <time>2019-08-15T09:15:12Z</time>
      </trkpt>
      <trkpt lat="41.7515430" lon="-5.3488130">
        <ele>715.9</ele>
        <time>2019-08-15T09:15:13Z</time>
      </trkpt>
      <trkpt lat="41.7515820" lon="-5.3488610">
        <ele>715.9</ele>
        <time>2019-08-15T09:15:14Z</time>
      </trkpt>
      <trkpt lat="41.7516220" lon="-5.3489080">
        <ele>716.0</ele>
        <time>2019-08-15T09:15:15Z</time>
      </trkpt>
      <trkpt lat="41.7516600" lon="-5.3489520">
        <ele>716.0</ele>
        <time>2019-08-15T09:15:16Z</time>
      </trkpt>
      <trkpt lat="41.7516970" lon="-5.3489950">
        <ele>716.1</ele>
        <time>2019-08-15T09:15:17Z</time>
      </trkpt>
      <trkpt lat="41.7517330" lon="-5.3490400">
        <ele>716.1</ele>
        <time>2019-08-15T09:15:18Z</time>
      </trkpt>
      <trkpt lat="41.7517700" lon="-5.3490850">
        <ele>716.1</ele>
        <time>2019-08-15T09:15:19Z</time>
      </trkpt>
      <trkpt lat="41.7518080" lon="-5.3491290">
        <ele>716.1</ele>
        <time>2019-08-15T09:15:20Z</time>
      </trkpt>
      <trkpt lat="41.7518470" lon="-5.3491740">
        <ele>716.2</ele>
        <time>2019-08-15T09:15:21Z</time>
      </trkpt>
      <trkpt lat="41.7518850" lon="-5.3492200">
        <ele>716.2</ele>
        <time>2019-08-15T09:15:22Z</time>
      </trkpt>
      <trkpt lat="41.7519210" lon="-5.3492630">
        <ele>716.2</ele>
        <time>2019-08-15T09:15:23Z</time>
      </trkpt>
      <trkpt lat="41.7519570" lon="-5.3493060">
        <ele>716.3</ele>
        <time>2019-08-15T09:15:24Z</time>
      </trkpt>
      <trkpt lat="41.7519930" lon="-5.3493500">
        <ele>716.3</ele>
        <time>2019-08-15T09:15:25Z</time>
      </trkpt>
      <trkpt lat="41.7520290" lon="-5.3493920">
        <ele>716.2</ele>
        <time>2019-08-15T09:15:26Z</time>
      </trkpt>
      <trkpt lat="41.7520650" lon="-5.3494360">
        <ele>716.2</ele>
        <time>2019-08-15T09:15:27Z</time>
      </trkpt>
      <trkpt lat="41.7521020" lon="-5.3494790">
        <ele>716.2</ele>
        <time>2019-08-15T09:15:28Z</time>
      </trkpt>
      <trkpt lat="41.7521380" lon="-5.3495220">
        <ele>716.1</ele>
        <time>2019-08-15T09:15:29Z</time>
      </trkpt>
      <trkpt lat="41.7521740" lon="-5.3495660">
        <ele>716.1</ele>
        <time>2019-08-15T09:15:30Z</time>
      </trkpt>
      <trkpt lat="41.7522120" lon="-5.3496100">
        <ele>716.1</ele>
        <time>2019-08-15T09:15:31Z</time>
      </trkpt>
      <trkpt lat="41.7522500" lon="-5.3496540">
        <ele>716.1</ele>
        <time>2019-08-15T09:15:32Z</time>
      </trkpt>
      <trkpt lat="41.7522870" lon="-5.3496990">
        <ele>716.1</ele>
        <time>2019-08-15T09:15:33Z</time>
      </trkpt>
      <trkpt lat="41.7523250" lon="-5.3497440">
        <ele>716.1</ele>
        <time>2019-08-15T09:15:34Z</time>
      </trkpt>
      <trkpt lat="41.7523620" lon="-5.3497880">
        <ele>716.1</ele>
        <time>2019-08-15T09:15:35Z</time>
      </trkpt>
      <trkpt lat="41.7523990" lon="-5.3498320">
        <ele>716.1</ele>
        <time>2019-08-15T09:15:36Z</time>
      </trkpt>
      <trkpt lat="41.7524370" lon="-5.3498750">
        <ele>716.1</ele>
        <time>2019-08-15T09:15:37Z</time>
      </trkpt>
      <trkpt lat="41.7524750" lon="-5.3499190">
        <ele>716.1</ele>
        <time>2019-08-15T09:15:38Z</time>
      </trkpt>
      <trkpt lat="41.7525130" lon="-5.3499650">
        <ele>716.1</ele>
        <time>2019-08-15T09:15:39Z</time>
      </trkpt>
      <trkpt lat="41.7525510" lon="-5.3500110">
        <ele>716.1</ele>
        <time>2019-08-15T09:15:40Z</time>
      </trkpt>
      <trkpt lat="41.7525900" lon="-5.3500560">
        <ele>716.1</ele>
        <time>2019-08-15T09:15:41Z</time>
      </trkpt>
      <trkpt lat="41.7526290" lon="-5.3501010">
        <ele>716.1</ele>
        <time>2019-08-15T09:15:42Z</time>
      </trkpt>
      <trkpt lat="41.7526660" lon="-5.3501450">
        <ele>716.1</ele>
        <time>2019-08-15T09:15:43Z</time>
      </trkpt>
      <trkpt lat="41.7527030" lon="-5.3501910">
        <ele>716.1</ele>
        <time>2019-08-15T09:15:44Z</time>
      </trkpt>
      <trkpt lat="41.7527400" lon="-5.3502360">
        <ele>716.1</ele>
        <time>2019-08-15T09:15:45Z</time>
      </trkpt>
      <trkpt lat="41.7527800" lon="-5.3502820">
        <ele>716.1</ele>
        <time>2019-08-15T09:15:46Z</time>
      </trkpt>
      <trkpt lat="41.7528210" lon="-5.3503310">
        <ele>716.1</ele>
        <time>2019-08-15T09:15:47Z</time>
      </trkpt>
      <trkpt lat="41.7528620" lon="-5.3503800">
        <ele>716.1</ele>
        <time>2019-08-15T09:15:48Z</time>
      </trkpt>
      <trkpt lat="41.7529050" lon="-5.3504290">
        <ele>716.1</ele>
        <time>2019-08-15T09:15:49Z</time>
      </trkpt>
      <trkpt lat="41.7529470" lon="-5.3504810">
        <ele>716.1</ele>
        <time>2019-08-15T09:15:50Z</time>
      </trkpt>
      <trkpt lat="41.7529890" lon="-5.3505320">
        <ele>716.0</ele>
        <time>2019-08-15T09:15:51Z</time>
      </trkpt>
      <trkpt lat="41.7530320" lon="-5.3505840">
        <ele>716.0</ele>
        <time>2019-08-15T09:15:52Z</time>
      </trkpt>
      <trkpt lat="41.7530740" lon="-5.3506360">
        <ele>715.9</ele>
        <time>2019-08-15T09:15:53Z</time>
      </trkpt>
      <trkpt lat="41.7531180" lon="-5.3506880">
        <ele>715.8</ele>
        <time>2019-08-15T09:15:54Z</time>
      </trkpt>
      <trkpt lat="41.7531610" lon="-5.3507400">
        <ele>715.8</ele>
        <time>2019-08-15T09:15:55Z</time>
      </trkpt>
      <trkpt lat="41.7532050" lon="-5.3507930">
        <ele>715.8</ele>
        <time>2019-08-15T09:15:56Z</time>
      </trkpt>
      <trkpt lat="41.7532480" lon="-5.3508440">
        <ele>715.8</ele>
        <time>2019-08-15T09:15:57Z</time>
      </trkpt>
      <trkpt lat="41.7532880" lon="-5.3508930">
        <ele>715.8</ele>
        <time>2019-08-15T09:15:58Z</time>
      </trkpt>
      <trkpt lat="41.7533290" lon="-5.3509400">
        <ele>715.8</ele>
        <time>2019-08-15T09:15:59Z</time>
      </trkpt>
      <trkpt lat="41.7533680" lon="-5.3509850">
        <ele>715.9</ele>
        <time>2019-08-15T09:16:00Z</time>
      </trkpt>
      <trkpt lat="41.7534090" lon="-5.3510320">
        <ele>715.9</ele>
        <time>2019-08-15T09:16:01Z</time>
      </trkpt>
      <trkpt lat="41.7534490" lon="-5.3510800">
        <ele>715.9</ele>
        <time>2019-08-15T09:16:02Z</time>
      </trkpt>
      <trkpt lat="41.7534890" lon="-5.3511290">
        <ele>715.9</ele>
        <time>2019-08-15T09:16:03Z</time>
      </trkpt>
      <trkpt lat="41.7535300" lon="-5.3511770">
        <ele>715.9</ele>
        <time>2019-08-15T09:16:04Z</time>
      </trkpt>
      <trkpt lat="41.7535710" lon="-5.3512250">
        <ele>716.0</ele>
        <time>2019-08-15T09:16:05Z</time>
      </trkpt>
      <trkpt lat="41.7536120" lon="-5.3512740">
        <ele>716.0</ele>
        <time>2019-08-15T09:16:06Z</time>
      </trkpt>
      <trkpt lat="41.7536540" lon="-5.3513220">
        <ele>716.1</ele>
        <time>2019-08-15T09:16:07Z</time>
      </trkpt>
      <trkpt lat="41.7536950" lon="-5.3513710">
        <ele>716.1</ele>
        <time>2019-08-15T09:16:08Z</time>
      </trkpt>
      <trkpt lat="41.7537340" lon="-5.3514190">
        <ele>716.1</ele>
        <time>2019-08-15T09:16:09Z</time>
      </trkpt>
      <trkpt lat="41.7537740" lon="-5.3514670">
        <ele>716.2</ele>
        <time>2019-08-15T09:16:10Z</time>
      </trkpt>
      <trkpt lat="41.7538150" lon="-5.3515150">
        <ele>716.2</ele>
        <time>2019-08-15T09:16:11Z</time>
      </trkpt>
      <trkpt lat="41.7538550" lon="-5.3515650">
        <ele>716.3</ele>
        <time>2019-08-15T09:16:12Z</time>
      </trkpt>
      <trkpt lat="41.7538950" lon="-5.3516150">
        <ele>716.4</ele>
        <time>2019-08-15T09:16:13Z</time>
      </trkpt>
      <trkpt lat="41.7539350" lon="-5.3516650">
        <ele>716.5</ele>
        <time>2019-08-15T09:16:14Z</time>
      </trkpt>
      <trkpt lat="41.7539750" lon="-5.3517130">
        <ele>716.6</ele>
        <time>2019-08-15T09:16:15Z</time>
      </trkpt>
      <trkpt lat="41.7540140" lon="-5.3517610">
        <ele>716.6</ele>
        <time>2019-08-15T09:16:16Z</time>
      </trkpt>
      <trkpt lat="41.7540520" lon="-5.3518100">
        <ele>716.7</ele>
        <time>2019-08-15T09:16:17Z</time>
      </trkpt>
      <trkpt lat="41.7540890" lon="-5.3518580">
        <ele>716.9</ele>
        <time>2019-08-15T09:16:18Z</time>
      </trkpt>
      <trkpt lat="41.7541270" lon="-5.3519040">
        <ele>717.0</ele>
        <time>2019-08-15T09:16:19Z</time>
      </trkpt>
      <trkpt lat="41.7541650" lon="-5.3519510">
        <ele>717.2</ele>
        <time>2019-08-15T09:16:20Z</time>
      </trkpt>
      <trkpt lat="41.7542030" lon="-5.3519990">
        <ele>717.3</ele>
        <time>2019-08-15T09:16:21Z</time>
      </trkpt>
      <trkpt lat="41.7542430" lon="-5.3520480">
        <ele>717.4</ele>
        <time>2019-08-15T09:16:22Z</time>
      </trkpt>
      <trkpt lat="41.7542830" lon="-5.3520960">
        <ele>717.6</ele>
        <time>2019-08-15T09:16:23Z</time>
      </trkpt>
      <trkpt lat="41.7543220" lon="-5.3521450">
        <ele>717.7</ele>
        <time>2019-08-15T09:16:24Z</time>
      </trkpt>
      <trkpt lat="41.7543610" lon="-5.3521950">
        <ele>717.7</ele>
        <time>2019-08-15T09:16:25Z</time>
      </trkpt>
      <trkpt lat="41.7544010" lon="-5.3522420">
        <ele>717.8</ele>
        <time>2019-08-15T09:16:26Z</time>
      </trkpt>
      <trkpt lat="41.7544410" lon="-5.3522890">
        <ele>717.8</ele>
        <time>2019-08-15T09:16:27Z</time>
      </trkpt>
      <trkpt lat="41.7544820" lon="-5.3523360">
        <ele>717.8</ele>
        <time>2019-08-15T09:16:28Z</time>
      </trkpt>
      <trkpt lat="41.7545220" lon="-5.3523840">
        <ele>717.9</ele>
        <time>2019-08-15T09:16:29Z</time>
      </trkpt>
      <trkpt lat="41.7545630" lon="-5.3524310">
        <ele>717.9</ele>
        <time>2019-08-15T09:16:30Z</time>
      </trkpt>
      <trkpt lat="41.7546030" lon="-5.3524790">
        <ele>717.9</ele>
        <time>2019-08-15T09:16:31Z</time>
      </trkpt>
      <trkpt lat="41.7546420" lon="-5.3525240">
        <ele>717.9</ele>
        <time>2019-08-15T09:16:32Z</time>
      </trkpt>
      <trkpt lat="41.7546780" lon="-5.3525670">
        <ele>717.9</ele>
        <time>2019-08-15T09:16:33Z</time>
      </trkpt>
      <trkpt lat="41.7547140" lon="-5.3526090">
        <ele>717.9</ele>
        <time>2019-08-15T09:16:34Z</time>
      </trkpt>
      <trkpt lat="41.7547500" lon="-5.3526520">
        <ele>717.9</ele>
        <time>2019-08-15T09:16:35Z</time>
      </trkpt>
      <trkpt lat="41.7547870" lon="-5.3526940">
        <ele>717.9</ele>
        <time>2019-08-15T09:16:36Z</time>
      </trkpt>
      <trkpt lat="41.7548250" lon="-5.3527370">
        <ele>717.8</ele>
        <time>2019-08-15T09:16:37Z</time>
      </trkpt>
      <trkpt lat="41.7548620" lon="-5.3527800">
        <ele>717.9</ele>
        <time>2019-08-15T09:16:38Z</time>
      </trkpt>
      <trkpt lat="41.7548980" lon="-5.3528230">
        <ele>717.9</ele>
        <time>2019-08-15T09:16:39Z</time>
      </trkpt>
      <trkpt lat="41.7549350" lon="-5.3528660">
        <ele>717.9</ele>
        <time>2019-08-15T09:16:40Z</time>
      </trkpt>
      <trkpt lat="41.7549720" lon="-5.3529090">
        <ele>717.9</ele>
        <time>2019-08-15T09:16:41Z</time>
      </trkpt>
      <trkpt lat="41.7550080" lon="-5.3529510">
        <ele>717.9</ele>
        <time>2019-08-15T09:16:42Z</time>
      </trkpt>
      <trkpt lat="41.7550460" lon="-5.3529930">
        <ele>717.9</ele>
        <time>2019-08-15T09:16:43Z</time>
      </trkpt>
      <trkpt lat="41.7550830" lon="-5.3530360">
        <ele>718.0</ele>
        <time>2019-08-15T09:16:44Z</time>
      </trkpt>
      <trkpt lat="41.7551190" lon="-5.3530800">
        <ele>718.0</ele>
        <time>2019-08-15T09:16:45Z</time>
      </trkpt>
      <trkpt lat="41.7551560" lon="-5.3531240">
        <ele>718.0</ele>
        <time>2019-08-15T09:16:46Z</time>
      </trkpt>
      <trkpt lat="41.7551920" lon="-5.3531710">
        <ele>718.1</ele>
        <time>2019-08-15T09:16:47Z</time>
      </trkpt>
      <trkpt lat="41.7552290" lon="-5.3532150">
        <ele>718.1</ele>
        <time>2019-08-15T09:16:48Z</time>
      </trkpt>
      <trkpt lat="41.7552670" lon="-5.3532590">
        <ele>718.1</ele>
        <time>2019-08-15T09:16:49Z</time>
      </trkpt>
      <trkpt lat="41.7553050" lon="-5.3533030">
        <ele>718.2</ele>
        <time>2019-08-15T09:16:50Z</time>
      </trkpt>
      <trkpt lat="41.7553430" lon="-5.3533470">
        <ele>718.2</ele>
        <time>2019-08-15T09:16:51Z</time>
      </trkpt>
      <trkpt lat="41.7553820" lon="-5.3533920">
        <ele>718.3</ele>
        <time>2019-08-15T09:16:52Z</time>
      </trkpt>
      <trkpt lat="41.7554200" lon="-5.3534360">
        <ele>718.3</ele>
        <time>2019-08-15T09:16:53Z</time>
      </trkpt>
      <trkpt lat="41.7554560" lon="-5.3534800">
        <ele>718.4</ele>
        <time>2019-08-15T09:16:54Z</time>
      </trkpt>
      <trkpt lat="41.7554920" lon="-5.3535250">
        <ele>718.4</ele>
        <time>2019-08-15T09:16:55Z</time>
      </trkpt>
      <trkpt lat="41.7555290" lon="-5.3535690">
        <ele>718.5</ele>
        <time>2019-08-15T09:16:56Z</time>
      </trkpt>
      <trkpt lat="41.7555670" lon="-5.3536140">
        <ele>718.5</ele>
        <time>2019-08-15T09:16:57Z</time>
      </trkpt>
      <trkpt lat="41.7556060" lon="-5.3536580">
        <ele>718.6</ele>
        <time>2019-08-15T09:16:58Z</time>
      </trkpt>
      <trkpt lat="41.7556420" lon="-5.3537030">
        <ele>718.6</ele>
        <time>2019-08-15T09:16:59Z</time>
      </trkpt>
      <trkpt lat="41.7556780" lon="-5.3537460">
        <ele>718.6</ele>
        <time>2019-08-15T09:17:00Z</time>
      </trkpt>
      <trkpt lat="41.7557140" lon="-5.3537910">
        <ele>718.7</ele>
        <time>2019-08-15T09:17:01Z</time>
      </trkpt>
      <trkpt lat="41.7557520" lon="-5.3538360">
        <ele>718.7</ele>
        <time>2019-08-15T09:17:02Z</time>
      </trkpt>
      <trkpt lat="41.7557900" lon="-5.3538810">
        <ele>718.7</ele>
        <time>2019-08-15T09:17:03Z</time>
      </trkpt>
      <trkpt lat="41.7558290" lon="-5.3539240">
        <ele>718.7</ele>
        <time>2019-08-15T09:17:04Z</time>
      </trkpt>
      <trkpt lat="41.7558670" lon="-5.3539680">
        <ele>718.7</ele>
        <time>2019-08-15T09:17:05Z</time>
      </trkpt>
      <trkpt lat="41.7559040" lon="-5.3540120">
        <ele>718.7</ele>
        <time>2019-08-15T09:17:06Z</time>
      </trkpt>
      <trkpt lat="41.7559400" lon="-5.3540560">
        <ele>718.6</ele>
        <time>2019-08-15T09:17:07Z</time>
      </trkpt>
      <trkpt lat="41.7559770" lon="-5.3540990">
        <ele>718.6</ele>
        <time>2019-08-15T09:17:08Z</time>
      </trkpt>
      <trkpt lat="41.7560140" lon="-5.3541420">
        <ele>718.5</ele>
        <time>2019-08-15T09:17:09Z</time>
      </trkpt>
      <trkpt lat="41.7560510" lon="-5.3541850">
        <ele>718.5</ele>
        <time>2019-08-15T09:17:10Z</time>
      </trkpt>
      <trkpt lat="41.7560870" lon="-5.3542290">
        <ele>718.4</ele>
        <time>2019-08-15T09:17:11Z</time>
      </trkpt>
      <trkpt lat="41.7561240" lon="-5.3542720">
        <ele>718.3</ele>
        <time>2019-08-15T09:17:12Z</time>
      </trkpt>
      <trkpt lat="41.7561620" lon="-5.3543150">
        <ele>718.2</ele>
        <time>2019-08-15T09:17:13Z</time>
      </trkpt>
      <trkpt lat="41.7561990" lon="-5.3543590">
        <ele>718.1</ele>
        <time>2019-08-15T09:17:14Z</time>
      </trkpt>
      <trkpt lat="41.7562360" lon="-5.3544030">
        <ele>718.0</ele>
        <time>2019-08-15T09:17:15Z</time>
      </trkpt>
      <trkpt lat="41.7562720" lon="-5.3544460">
        <ele>717.9</ele>
        <time>2019-08-15T09:17:16Z</time>
      </trkpt>
      <trkpt lat="41.7563070" lon="-5.3544910">
        <ele>717.8</ele>
        <time>2019-08-15T09:17:17Z</time>
      </trkpt>
      <trkpt lat="41.7563440" lon="-5.3545350">
        <ele>717.7</ele>
        <time>2019-08-15T09:17:18Z</time>
      </trkpt>
      <trkpt lat="41.7563800" lon="-5.3545800">
        <ele>717.6</ele>
        <time>2019-08-15T09:17:19Z</time>
      </trkpt>
      <trkpt lat="41.7564170" lon="-5.3546240">
        <ele>717.5</ele>
        <time>2019-08-15T09:17:20Z</time>
      </trkpt>
      <trkpt lat="41.7564550" lon="-5.3546690">
        <ele>717.4</ele>
        <time>2019-08-15T09:17:21Z</time>
      </trkpt>
      <trkpt lat="41.7564930" lon="-5.3547140">
        <ele>717.3</ele>
        <time>2019-08-15T09:17:22Z</time>
      </trkpt>
      <trkpt lat="41.7565310" lon="-5.3547580">
        <ele>717.3</ele>
        <time>2019-08-15T09:17:23Z</time>
      </trkpt>
      <trkpt lat="41.7565710" lon="-5.3548000">
        <ele>717.2</ele>
        <time>2019-08-15T09:17:24Z</time>
      </trkpt>
      <trkpt lat="41.7566110" lon="-5.3548420">
        <ele>717.2</ele>
        <time>2019-08-15T09:17:25Z</time>
      </trkpt>
      <trkpt lat="41.7566530" lon="-5.3548820">
        <ele>717.2</ele>
        <time>2019-08-15T09:17:26Z</time>
      </trkpt>
      <trkpt lat="41.7566950" lon="-5.3549220">
        <ele>717.2</ele>
        <time>2019-08-15T09:17:27Z</time>
      </trkpt>
      <trkpt lat="41.7567380" lon="-5.3549600">
        <ele>717.2</ele>
        <time>2019-08-15T09:17:28Z</time>
      </trkpt>
      <trkpt lat="41.7567820" lon="-5.3549970">
        <ele>717.3</ele>
        <time>2019-08-15T09:17:29Z</time>
      </trkpt>
      <trkpt lat="41.7568250" lon="-5.3550330">
        <ele>717.3</ele>
        <time>2019-08-15T09:17:30Z</time>
      </trkpt>
      <trkpt lat="41.7568690" lon="-5.3550670">
        <ele>717.4</ele>
        <time>2019-08-15T09:17:31Z</time>
      </trkpt>
      <trkpt lat="41.7569130" lon="-5.3551000">
        <ele>717.5</ele>
        <time>2019-08-15T09:17:32Z</time>
      </trkpt>
      <trkpt lat="41.7569570" lon="-5.3551340">
        <ele>717.7</ele>
        <time>2019-08-15T09:17:33Z</time>
      </trkpt>
      <trkpt lat="41.7570020" lon="-5.3551660">
        <ele>717.9</ele>
        <time>2019-08-15T09:17:34Z</time>
      </trkpt>
      <trkpt lat="41.7570470" lon="-5.3551970">
        <ele>718.1</ele>
        <time>2019-08-15T09:17:35Z</time>
      </trkpt>
      <trkpt lat="41.7570930" lon="-5.3552270">
        <ele>718.2</ele>
        <time>2019-08-15T09:17:36Z</time>
      </trkpt>
      <trkpt lat="41.7571380" lon="-5.3552570">
        <ele>718.4</ele>
        <time>2019-08-15T09:17:37Z</time>
      </trkpt>
      <trkpt lat="41.7571800" lon="-5.3552840">
        <ele>718.5</ele>
        <time>2019-08-15T09:17:38Z</time>
      </trkpt>
      <trkpt lat="41.7572210" lon="-5.3553110">
        <ele>718.7</ele>
        <time>2019-08-15T09:17:39Z</time>
      </trkpt>
      <trkpt lat="41.7572620" lon="-5.3553410">
        <ele>718.9</ele>
        <time>2019-08-15T09:17:40Z</time>
      </trkpt>
      <trkpt lat="41.7573040" lon="-5.3553720">
        <ele>719.0</ele>
        <time>2019-08-15T09:17:41Z</time>
      </trkpt>
      <trkpt lat="41.7573490" lon="-5.3554010">
        <ele>719.1</ele>
        <time>2019-08-15T09:17:42Z</time>
      </trkpt>
      <trkpt lat="41.7573950" lon="-5.3554300">
        <ele>719.2</ele>
        <time>2019-08-15T09:17:43Z</time>
      </trkpt>
      <trkpt lat="41.7574400" lon="-5.3554560">
        <ele>719.3</ele>
        <time>2019-08-15T09:17:44Z</time>
      </trkpt>
      <trkpt lat="41.7574850" lon="-5.3554820">
        <ele>719.4</ele>
        <time>2019-08-15T09:17:45Z</time>
      </trkpt>
      <trkpt lat="41.7575300" lon="-5.3555100">
        <ele>719.5</ele>
        <time>2019-08-15T09:17:46Z</time>
      </trkpt>
      <trkpt lat="41.7575750" lon="-5.3555410">
        <ele>719.6</ele>
        <time>2019-08-15T09:17:47Z</time>
      </trkpt>
      <trkpt lat="41.7576200" lon="-5.3555710">
        <ele>719.7</ele>
        <time>2019-08-15T09:17:48Z</time>
      </trkpt>
      <trkpt lat="41.7576650" lon="-5.3556020">
        <ele>719.8</ele>
        <time>2019-08-15T09:17:49Z</time>
      </trkpt>
      <trkpt lat="41.7577090" lon="-5.3556320">
        <ele>720.0</ele>
        <time>2019-08-15T09:17:50Z</time>
      </trkpt>
      <trkpt lat="41.7577530" lon="-5.3556630">
        <ele>720.1</ele>
        <time>2019-08-15T09:17:51Z</time>
      </trkpt>
      <trkpt lat="41.7577980" lon="-5.3556940">
        <ele>720.2</ele>
        <time>2019-08-15T09:17:52Z</time>
      </trkpt>
      <trkpt lat="41.7578420" lon="-5.3557240">
        <ele>720.4</ele>
        <time>2019-08-15T09:17:53Z</time>
      </trkpt>
      <trkpt lat="41.7578850" lon="-5.3557540">
        <ele>720.5</ele>
        <time>2019-08-15T09:17:54Z</time>
      </trkpt>
      <trkpt lat="41.7579290" lon="-5.3557840">
        <ele>720.7</ele>
        <time>2019-08-15T09:17:55Z</time>
      </trkpt>
      <trkpt lat="41.7579730" lon="-5.3558130">
        <ele>720.9</ele>
        <time>2019-08-15T09:17:56Z</time>
      </trkpt>
      <trkpt lat="41.7580180" lon="-5.3558420">
        <ele>721.0</ele>
        <time>2019-08-15T09:17:57Z</time>
      </trkpt>
      <trkpt lat="41.7580620" lon="-5.3558720">
        <ele>721.1</ele>
        <time>2019-08-15T09:17:58Z</time>
      </trkpt>
      <trkpt lat="41.7581050" lon="-5.3559040">
        <ele>721.2</ele>
        <time>2019-08-15T09:17:59Z</time>
      </trkpt>
      <trkpt lat="41.7581490" lon="-5.3559350">
        <ele>721.2</ele>
        <time>2019-08-15T09:18:00Z</time>
      </trkpt>
      <trkpt lat="41.7581930" lon="-5.3559650">
        <ele>721.2</ele>
        <time>2019-08-15T09:18:01Z</time>
      </trkpt>
      <trkpt lat="41.7582350" lon="-5.3559930">
        <ele>721.2</ele>
        <time>2019-08-15T09:18:02Z</time>
      </trkpt>
      <trkpt lat="41.7582780" lon="-5.3560200">
        <ele>721.2</ele>
        <time>2019-08-15T09:18:03Z</time>
      </trkpt>
      <trkpt lat="41.7583220" lon="-5.3560470">
        <ele>721.2</ele>
        <time>2019-08-15T09:18:04Z</time>
      </trkpt>
      <trkpt lat="41.7583680" lon="-5.3560760">
        <ele>721.2</ele>
        <time>2019-08-15T09:18:05Z</time>
      </trkpt>
      <trkpt lat="41.7584130" lon="-5.3561070">
        <ele>721.1</ele>
        <time>2019-08-15T09:18:06Z</time>
      </trkpt>
      <trkpt lat="41.7584580" lon="-5.3561400">
        <ele>721.1</ele>
        <time>2019-08-15T09:18:07Z</time>
      </trkpt>
      <trkpt lat="41.7585040" lon="-5.3561740">
        <ele>720.9</ele>
        <time>2019-08-15T09:18:08Z</time>
      </trkpt>
      <trkpt lat="41.7585510" lon="-5.3562070">
        <ele>720.9</ele>
        <time>2019-08-15T09:18:09Z</time>
      </trkpt>
      <trkpt lat="41.7585990" lon="-5.3562390">
        <ele>720.8</ele>
        <time>2019-08-15T09:18:10Z</time>
      </trkpt>
      <trkpt lat="41.7586440" lon="-5.3562690">
        <ele>720.7</ele>
        <time>2019-08-15T09:18:11Z</time>
      </trkpt>
      <trkpt lat="41.7586890" lon="-5.3563010">
        <ele>720.6</ele>
        <time>2019-08-15T09:18:12Z</time>
      </trkpt>
      <trkpt lat="41.7587340" lon="-5.3563330">
        <ele>720.6</ele>
        <time>2019-08-15T09:18:13Z</time>
      </trkpt>
      <trkpt lat="41.7587790" lon="-5.3563640">
        <ele>720.5</ele>
        <time>2019-08-15T09:18:14Z</time>
      </trkpt>
      <trkpt lat="41.7588250" lon="-5.3563970">
        <ele>720.3</ele>
        <time>2019-08-15T09:18:15Z</time>
      </trkpt>
      <trkpt lat="41.7588710" lon="-5.3564310">
        <ele>720.3</ele>
        <time>2019-08-15T09:18:16Z</time>
      </trkpt>
      <trkpt lat="41.7589180" lon="-5.3564660">
        <ele>720.3</ele>
        <time>2019-08-15T09:18:17Z</time>
      </trkpt>
      <trkpt lat="41.7589640" lon="-5.3565030">
        <ele>720.2</ele>
        <time>2019-08-15T09:18:18Z</time>
      </trkpt>
      <trkpt lat="41.7590090" lon="-5.3565400">
        <ele>720.2</ele>
        <time>2019-08-15T09:18:19Z</time>
      </trkpt>
      <trkpt lat="41.7590540" lon="-5.3565780">
        <ele>720.2</ele>
        <time>2019-08-15T09:18:20Z</time>
      </trkpt>
      <trkpt lat="41.7590980" lon="-5.3566170">
        <ele>720.2</ele>
        <time>2019-08-15T09:18:21Z</time>
      </trkpt>
      <trkpt lat="41.7591410" lon="-5.3566550">
        <ele>720.3</ele>
        <time>2019-08-15T09:18:22Z</time>
      </trkpt>
      <trkpt lat="41.7591810" lon="-5.3566940">
        <ele>720.3</ele>
        <time>2019-08-15T09:18:23Z</time>
      </trkpt>
      <trkpt lat="41.7592200" lon="-5.3567330">
        <ele>720.4</ele>
        <time>2019-08-15T09:18:24Z</time>
      </trkpt>
      <trkpt lat="41.7592590" lon="-5.3567740">
        <ele>720.5</ele>
        <time>2019-08-15T09:18:25Z</time>
      </trkpt>
      <trkpt lat="41.7592980" lon="-5.3568170">
        <ele>720.6</ele>
        <time>2019-08-15T09:18:26Z</time>
      </trkpt>
      <trkpt lat="41.7593360" lon="-5.3568610">
        <ele>720.7</ele>
        <time>2019-08-15T09:18:27Z</time>
      </trkpt>
      <trkpt lat="41.7593730" lon="-5.3569060">
        <ele>720.8</ele>
        <time>2019-08-15T09:18:28Z</time>
      </trkpt>
      <trkpt lat="41.7594120" lon="-5.3569520">
        <ele>721.0</ele>
        <time>2019-08-15T09:18:29Z</time>
      </trkpt>
      <trkpt lat="41.7594520" lon="-5.3569970">
        <ele>721.1</ele>
        <time>2019-08-15T09:18:30Z</time>
      </trkpt>
      <trkpt lat="41.7594910" lon="-5.3570450">
        <ele>721.3</ele>
        <time>2019-08-15T09:18:31Z</time>
      </trkpt>
      <trkpt lat="41.7595300" lon="-5.3570930">
        <ele>721.5</ele>
        <time>2019-08-15T09:18:32Z</time>
      </trkpt>
      <trkpt lat="41.7595690" lon="-5.3571420">
        <ele>721.6</ele>
        <time>2019-08-15T09:18:33Z</time>
      </trkpt>
      <trkpt lat="41.7596080" lon="-5.3571890">
        <ele>721.7</ele>
        <time>2019-08-15T09:18:34Z</time>
      </trkpt>
      <trkpt lat="41.7596490" lon="-5.3572340">
        <ele>721.9</ele>
        <time>2019-08-15T09:18:35Z</time>
      </trkpt>
      <trkpt lat="41.7596890" lon="-5.3572790">
        <ele>722.1</ele>
        <time>2019-08-15T09:18:36Z</time>
      </trkpt>
      <trkpt lat="41.7597280" lon="-5.3573240">
        <ele>722.2</ele>
        <time>2019-08-15T09:18:37Z</time>
      </trkpt>
      <trkpt lat="41.7597640" lon="-5.3573680">
        <ele>722.4</ele>
        <time>2019-08-15T09:18:38Z</time>
      </trkpt>
      <trkpt lat="41.7598000" lon="-5.3574110">
        <ele>722.5</ele>
        <time>2019-08-15T09:18:39Z</time>
      </trkpt>
      <trkpt lat="41.7598370" lon="-5.3574570">
        <ele>722.6</ele>
        <time>2019-08-15T09:18:40Z</time>
      </trkpt>
      <trkpt lat="41.7598750" lon="-5.3575050">
        <ele>722.7</ele>
        <time>2019-08-15T09:18:41Z</time>
      </trkpt>
      <trkpt lat="41.7599150" lon="-5.3575520">
        <ele>722.7</ele>
        <time>2019-08-15T09:18:42Z</time>
      </trkpt>
      <trkpt lat="41.7599540" lon="-5.3575980">
        <ele>722.8</ele>
        <time>2019-08-15T09:18:43Z</time>
      </trkpt>
      <trkpt lat="41.7599950" lon="-5.3576430">
        <ele>722.8</ele>
        <time>2019-08-15T09:18:44Z</time>
      </trkpt>
      <trkpt lat="41.7600330" lon="-5.3576880">
        <ele>722.9</ele>
        <time>2019-08-15T09:18:45Z</time>
      </trkpt>
      <trkpt lat="41.7600710" lon="-5.3577320">
        <ele>722.9</ele>
        <time>2019-08-15T09:18:46Z</time>
      </trkpt>
      <trkpt lat="41.7601090" lon="-5.3577770">
        <ele>723.0</ele>
        <time>2019-08-15T09:18:47Z</time>
      </trkpt>
      <trkpt lat="41.7601460" lon="-5.3578220">
        <ele>723.0</ele>
        <time>2019-08-15T09:18:48Z</time>
      </trkpt>
      <trkpt lat="41.7601850" lon="-5.3578680">
        <ele>723.0</ele>
        <time>2019-08-15T09:18:49Z</time>
      </trkpt>
      <trkpt lat="41.7602250" lon="-5.3579140">
        <ele>723.0</ele>
        <time>2019-08-15T09:18:50Z</time>
      </trkpt>
      <trkpt lat="41.7602650" lon="-5.3579620">
        <ele>723.0</ele>
        <time>2019-08-15T09:18:51Z</time>
      </trkpt>
      <trkpt lat="41.7603040" lon="-5.3580110">
        <ele>722.9</ele>
        <time>2019-08-15T09:18:52Z</time>
      </trkpt>
      <trkpt lat="41.7603410" lon="-5.3580560">
        <ele>722.9</ele>
        <time>2019-08-15T09:18:53Z</time>
      </trkpt>
      <trkpt lat="41.7603790" lon="-5.3581000">
        <ele>722.9</ele>
        <time>2019-08-15T09:18:54Z</time>
      </trkpt>
      <trkpt lat="41.7604180" lon="-5.3581420">
        <ele>722.9</ele>
        <time>2019-08-15T09:18:55Z</time>
      </trkpt>
      <trkpt lat="41.7604580" lon="-5.3581850">
        <ele>722.9</ele>
        <time>2019-08-15T09:18:56Z</time>
      </trkpt>
      <trkpt lat="41.7604980" lon="-5.3582320">
        <ele>722.8</ele>
        <time>2019-08-15T09:18:57Z</time>
      </trkpt>
      <trkpt lat="41.7605390" lon="-5.3582800">
        <ele>722.8</ele>
        <time>2019-08-15T09:18:58Z</time>
      </trkpt>
      <trkpt lat="41.7605800" lon="-5.3583290">
        <ele>722.7</ele>
        <time>2019-08-15T09:18:59Z</time>
      </trkpt>
      <trkpt lat="41.7606210" lon="-5.3583770">
        <ele>722.6</ele>
        <time>2019-08-15T09:19:00Z</time>
      </trkpt>
      <trkpt lat="41.7606590" lon="-5.3584260">
        <ele>722.6</ele>
        <time>2019-08-15T09:19:01Z</time>
      </trkpt>
      <trkpt lat="41.7607000" lon="-5.3584740">
        <ele>722.5</ele>
        <time>2019-08-15T09:19:02Z</time>
      </trkpt>
      <trkpt lat="41.7607390" lon="-5.3585220">
        <ele>722.5</ele>
        <time>2019-08-15T09:19:03Z</time>
      </trkpt>
      <trkpt lat="41.7607780" lon="-5.3585690">
        <ele>722.4</ele>
        <time>2019-08-15T09:19:04Z</time>
      </trkpt>
      <trkpt lat="41.7608150" lon="-5.3586130">
        <ele>722.4</ele>
        <time>2019-08-15T09:19:05Z</time>
      </trkpt>
      <trkpt lat="41.7608510" lon="-5.3586570">
        <ele>722.4</ele>
        <time>2019-08-15T09:19:06Z</time>
      </trkpt>
      <trkpt lat="41.7608870" lon="-5.3587010">
        <ele>722.3</ele>
        <time>2019-08-15T09:19:07Z</time>
      </trkpt>
      <trkpt lat="41.7609250" lon="-5.3587460">
        <ele>722.3</ele>
        <time>2019-08-15T09:19:08Z</time>
      </trkpt>
      <trkpt lat="41.7609640" lon="-5.3587920">
        <ele>722.3</ele>
        <time>2019-08-15T09:19:09Z</time>
      </trkpt>
      <trkpt lat="41.7610010" lon="-5.3588380">
        <ele>722.3</ele>
        <time>2019-08-15T09:19:10Z</time>
      </trkpt>
      <trkpt lat="41.7610400" lon="-5.3588840">
        <ele>722.3</ele>
        <time>2019-08-15T09:19:11Z</time>
      </trkpt>
      <trkpt lat="41.7610800" lon="-5.3589300">
        <ele>722.3</ele>
        <time>2019-08-15T09:19:12Z</time>
      </trkpt>
      <trkpt lat="41.7611190" lon="-5.3589790">
        <ele>722.4</ele>
        <time>2019-08-15T09:19:13Z</time>
      </trkpt>
      <trkpt lat="41.7611580" lon="-5.3590260">
        <ele>722.4</ele>
        <time>2019-08-15T09:19:14Z</time>
      </trkpt>
      <trkpt lat="41.7611970" lon="-5.3590730">
        <ele>722.5</ele>
        <time>2019-08-15T09:19:15Z</time>
      </trkpt>
      <trkpt lat="41.7612360" lon="-5.3591210">
        <ele>722.5</ele>
        <time>2019-08-15T09:19:16Z</time>
      </trkpt>
      <trkpt lat="41.7612760" lon="-5.3591700">
        <ele>722.6</ele>
        <time>2019-08-15T09:19:17Z</time>
      </trkpt>
      <trkpt lat="41.7613160" lon="-5.3592170">
        <ele>722.7</ele>
        <time>2019-08-15T09:19:18Z</time>
      </trkpt>
      <trkpt lat="41.7613560" lon="-5.3592660">
        <ele>722.8</ele>
        <time>2019-08-15T09:19:19Z</time>
      </trkpt>
      <trkpt lat="41.7613970" lon="-5.3593160">
        <ele>722.9</ele>
        <time>2019-08-15T09:19:20Z</time>
      </trkpt>
      <trkpt lat="41.7614370" lon="-5.3593650">
        <ele>723.0</ele>
        <time>2019-08-15T09:19:21Z</time>
      </trkpt>
      <trkpt lat="41.7614780" lon="-5.3594140">
        <ele>723.1</ele>
        <time>2019-08-15T09:19:22Z</time>
      </trkpt>
      <trkpt lat="41.7615200" lon="-5.3594640">
        <ele>723.2</ele>
        <time>2019-08-15T09:19:23Z</time>
      </trkpt>
      <trkpt lat="41.7615600" lon="-5.3595150">
        <ele>723.3</ele>
        <time>2019-08-15T09:19:24Z</time>
      </trkpt>
      <trkpt lat="41.7616010" lon="-5.3595640">
        <ele>723.3</ele>
        <time>2019-08-15T09:19:25Z</time>
      </trkpt>
      <trkpt lat="41.7616420" lon="-5.3596140">
        <ele>723.4</ele>
        <time>2019-08-15T09:19:26Z</time>
      </trkpt>
      <trkpt lat="41.7616820" lon="-5.3596630">
        <ele>723.5</ele>
        <time>2019-08-15T09:19:27Z</time>
      </trkpt>
      <trkpt lat="41.7617230" lon="-5.3597100">
        <ele>723.5</ele>
        <time>2019-08-15T09:19:28Z</time>
      </trkpt>
      <trkpt lat="41.7617640" lon="-5.3597580">
        <ele>723.5</ele>
        <time>2019-08-15T09:19:29Z</time>
      </trkpt>
      <trkpt lat="41.7618040" lon="-5.3598060">
        <ele>723.5</ele>
        <time>2019-08-15T09:19:30Z</time>
      </trkpt>
      <trkpt lat="41.7618450" lon="-5.3598550">
        <ele>723.5</ele>
        <time>2019-08-15T09:19:31Z</time>
      </trkpt>
      <trkpt lat="41.7618850" lon="-5.3599030">
        <ele>723.5</ele>
        <time>2019-08-15T09:19:32Z</time>
      </trkpt>
      <trkpt lat="41.7619250" lon="-5.3599520">
        <ele>723.5</ele>
        <time>2019-08-15T09:19:33Z</time>
      </trkpt>
      <trkpt lat="41.7619660" lon="-5.3600010">
        <ele>723.5</ele>
        <time>2019-08-15T09:19:34Z</time>
      </trkpt>
      <trkpt lat="41.7620060" lon="-5.3600500">
        <ele>723.6</ele>
        <time>2019-08-15T09:19:35Z</time>
      </trkpt>
      <trkpt lat="41.7620440" lon="-5.3600960">
        <ele>723.6</ele>
        <time>2019-08-15T09:19:36Z</time>
      </trkpt>
      <trkpt lat="41.7620800" lon="-5.3601420">
        <ele>723.6</ele>
        <time>2019-08-15T09:19:37Z</time>
      </trkpt>
      <trkpt lat="41.7621190" lon="-5.3601860">
        <ele>723.7</ele>
        <time>2019-08-15T09:19:38Z</time>
      </trkpt>
      <trkpt lat="41.7621580" lon="-5.3602310">
        <ele>723.8</ele>
        <time>2019-08-15T09:19:39Z</time>
      </trkpt>
      <trkpt lat="41.7621960" lon="-5.3602780">
        <ele>723.9</ele>
        <time>2019-08-15T09:19:40Z</time>
      </trkpt>
      <trkpt lat="41.7622340" lon="-5.3603250">
        <ele>723.9</ele>
        <time>2019-08-15T09:19:41Z</time>
      </trkpt>
      <trkpt lat="41.7622730" lon="-5.3603690">
        <ele>724.0</ele>
        <time>2019-08-15T09:19:42Z</time>
      </trkpt>
      <trkpt lat="41.7623110" lon="-5.3604130">
        <ele>724.1</ele>
        <time>2019-08-15T09:19:43Z</time>
      </trkpt>
      <trkpt lat="41.7623480" lon="-5.3604590">
        <ele>724.3</ele>
        <time>2019-08-15T09:19:44Z</time>
      </trkpt>
      <trkpt lat="41.7623850" lon="-5.3605050">
        <ele>724.4</ele>
        <time>2019-08-15T09:19:45Z</time>
      </trkpt>
      <trkpt lat="41.7624210" lon="-5.3605480">
        <ele>724.6</ele>
        <time>2019-08-15T09:19:46Z</time>
      </trkpt>
      <trkpt lat="41.7624580" lon="-5.3605910">
        <ele>724.7</ele>
        <time>2019-08-15T09:19:47Z</time>
      </trkpt>
      <trkpt lat="41.7624940" lon="-5.3606350">
        <ele>724.8</ele>
        <time>2019-08-15T09:19:48Z</time>
      </trkpt>
      <trkpt lat="41.7625310" lon="-5.3606800">
        <ele>724.9</ele>
        <time>2019-08-15T09:19:49Z</time>
      </trkpt>
      <trkpt lat="41.7625700" lon="-5.3607240">
        <ele>725.0</ele>
        <time>2019-08-15T09:19:50Z</time>
      </trkpt>
      <trkpt lat="41.7626090" lon="-5.3607700">
        <ele>725.1</ele>
        <time>2019-08-15T09:19:51Z</time>
      </trkpt>
      <trkpt lat="41.7626470" lon="-5.3608170">
        <ele>725.1</ele>
        <time>2019-08-15T09:19:52Z</time>
      </trkpt>
      <trkpt lat="41.7626860" lon="-5.3608640">
        <ele>725.2</ele>
        <time>2019-08-15T09:19:53Z</time>
      </trkpt>
      <trkpt lat="41.7627260" lon="-5.3609110">
        <ele>725.2</ele>
        <time>2019-08-15T09:19:54Z</time>
      </trkpt>
      <trkpt lat="41.7627650" lon="-5.3609580">
        <ele>725.3</ele>
        <time>2019-08-15T09:19:55Z</time>
      </trkpt>
      <trkpt lat="41.7628030" lon="-5.3610050">
        <ele>725.3</ele>
        <time>2019-08-15T09:19:56Z</time>
      </trkpt>
      <trkpt lat="41.7628430" lon="-5.3610510">
        <ele>725.3</ele>
        <time>2019-08-15T09:19:57Z</time>
      </trkpt>
      <trkpt lat="41.7628820" lon="-5.3610970">
        <ele>725.3</ele>
        <time>2019-08-15T09:19:58Z</time>
      </trkpt>
      <trkpt lat="41.7629210" lon="-5.3611420">
        <ele>725.3</ele>
        <time>2019-08-15T09:19:59Z</time>
      </trkpt>
      <trkpt lat="41.7629600" lon="-5.3611890">
        <ele>725.2</ele>
        <time>2019-08-15T09:20:00Z</time>
      </trkpt>
      <trkpt lat="41.7629990" lon="-5.3612350">
        <ele>725.1</ele>
        <time>2019-08-15T09:20:01Z</time>
      </trkpt>
      <trkpt lat="41.7630370" lon="-5.3612800">
        <ele>725.1</ele>
        <time>2019-08-15T09:20:02Z</time>
      </trkpt>
      <trkpt lat="41.7630750" lon="-5.3613220">
        <ele>725.1</ele>
        <time>2019-08-15T09:20:03Z</time>
      </trkpt>
      <trkpt lat="41.7631120" lon="-5.3613660">
        <ele>725.0</ele>
        <time>2019-08-15T09:20:04Z</time>
      </trkpt>
      <trkpt lat="41.7631490" lon="-5.3614100">
        <ele>725.0</ele>
        <time>2019-08-15T09:20:05Z</time>
      </trkpt>
      <trkpt lat="41.7631840" lon="-5.3614540">
        <ele>725.0</ele>
        <time>2019-08-15T09:20:06Z</time>
      </trkpt>
      <trkpt lat="41.7632170" lon="-5.3614950">
        <ele>724.9</ele>
        <time>2019-08-15T09:20:07Z</time>
      </trkpt>
      <trkpt lat="41.7632510" lon="-5.3615350">
        <ele>724.9</ele>
        <time>2019-08-15T09:20:08Z</time>
      </trkpt>
      <trkpt lat="41.7632850" lon="-5.3615740">
        <ele>724.8</ele>
        <time>2019-08-15T09:20:09Z</time>
      </trkpt>
      <trkpt lat="41.7633200" lon="-5.3616130">
        <ele>724.8</ele>
        <time>2019-08-15T09:20:10Z</time>
      </trkpt>
      <trkpt lat="41.7633550" lon="-5.3616520">
        <ele>724.7</ele>
        <time>2019-08-15T09:20:11Z</time>
      </trkpt>
      <trkpt lat="41.7633870" lon="-5.3616950">
        <ele>724.7</ele>
        <time>2019-08-15T09:20:12Z</time>
      </trkpt>
      <trkpt lat="41.7634200" lon="-5.3617380">
        <ele>724.6</ele>
        <time>2019-08-15T09:20:13Z</time>
      </trkpt>
      <trkpt lat="41.7634520" lon="-5.3617810">
        <ele>724.6</ele>
        <time>2019-08-15T09:20:14Z</time>
      </trkpt>
      <trkpt lat="41.7634840" lon="-5.3618260">
        <ele>724.6</ele>
        <time>2019-08-15T09:20:15Z</time>
      </trkpt>
      <trkpt lat="41.7635150" lon="-5.3618700">
        <ele>724.6</ele>
        <time>2019-08-15T09:20:16Z</time>
      </trkpt>
      <trkpt lat="41.7635470" lon="-5.3619150">
        <ele>724.6</ele>
        <time>2019-08-15T09:20:17Z</time>
      </trkpt>
      <trkpt lat="41.7635770" lon="-5.3619650">
        <ele>724.6</ele>
        <time>2019-08-15T09:20:18Z</time>
      </trkpt>
      <trkpt lat="41.7636080" lon="-5.3620160">
        <ele>724.7</ele>
        <time>2019-08-15T09:20:19Z</time>
      </trkpt>
      <trkpt lat="41.7636390" lon="-5.3620700">
        <ele>724.7</ele>
        <time>2019-08-15T09:20:20Z</time>
      </trkpt>
      <trkpt lat="41.7636690" lon="-5.3621260">
        <ele>724.7</ele>
        <time>2019-08-15T09:20:21Z</time>
      </trkpt>
      <trkpt lat="41.7636980" lon="-5.3621830">
        <ele>724.7</ele>
        <time>2019-08-15T09:20:22Z</time>
      </trkpt>
      <trkpt lat="41.7637260" lon="-5.3622430">
        <ele>724.8</ele>
        <time>2019-08-15T09:20:23Z</time>
      </trkpt>
      <trkpt lat="41.7637540" lon="-5.3623040">
        <ele>724.8</ele>
        <time>2019-08-15T09:20:24Z</time>
      </trkpt>
      <trkpt lat="41.7637800" lon="-5.3623650">
        <ele>724.8</ele>
        <time>2019-08-15T09:20:25Z</time>
      </trkpt>
      <trkpt lat="41.7638060" lon="-5.3624270">
        <ele>724.8</ele>
        <time>2019-08-15T09:20:26Z</time>
      </trkpt>
      <trkpt lat="41.7638330" lon="-5.3624880">
        <ele>724.8</ele>
        <time>2019-08-15T09:20:27Z</time>
      </trkpt>
      <trkpt lat="41.7638600" lon="-5.3625510">
        <ele>724.8</ele>
        <time>2019-08-15T09:20:28Z</time>
      </trkpt>
      <trkpt lat="41.7638860" lon="-5.3626130">
        <ele>724.8</ele>
        <time>2019-08-15T09:20:29Z</time>
      </trkpt>
      <trkpt lat="41.7639110" lon="-5.3626760">
        <ele>724.8</ele>
        <time>2019-08-15T09:20:30Z</time>
      </trkpt>
      <trkpt lat="41.7639380" lon="-5.3627410">
        <ele>724.8</ele>
        <time>2019-08-15T09:20:31Z</time>
      </trkpt>
      <trkpt lat="41.7639650" lon="-5.3628060">
        <ele>724.8</ele>
        <time>2019-08-15T09:20:32Z</time>
      </trkpt>
      <trkpt lat="41.7639940" lon="-5.3628720">
        <ele>724.8</ele>
        <time>2019-08-15T09:20:33Z</time>
      </trkpt>
      <trkpt lat="41.7640220" lon="-5.3629360">
        <ele>724.8</ele>
        <time>2019-08-15T09:20:34Z</time>
      </trkpt>
      <trkpt lat="41.7640500" lon="-5.3629990">
        <ele>724.8</ele>
        <time>2019-08-15T09:20:35Z</time>
      </trkpt>
      <trkpt lat="41.7640760" lon="-5.3630610">
        <ele>724.8</ele>
        <time>2019-08-15T09:20:36Z</time>
      </trkpt>
      <trkpt lat="41.7641010" lon="-5.3631190">
        <ele>724.7</ele>
        <time>2019-08-15T09:20:37Z</time>
      </trkpt>
      <trkpt lat="41.7641240" lon="-5.3631770">
        <ele>724.7</ele>
        <time>2019-08-15T09:20:38Z</time>
      </trkpt>
      <trkpt lat="41.7641480" lon="-5.3632340">
        <ele>724.7</ele>
        <time>2019-08-15T09:20:39Z</time>
      </trkpt>
      <trkpt lat="41.7641730" lon="-5.3632930">
        <ele>724.7</ele>
        <time>2019-08-15T09:20:40Z</time>
      </trkpt>
      <trkpt lat="41.7641980" lon="-5.3633510">
        <ele>724.7</ele>
        <time>2019-08-15T09:20:41Z</time>
      </trkpt>
      <trkpt lat="41.7642240" lon="-5.3634110">
        <ele>724.7</ele>
        <time>2019-08-15T09:20:42Z</time>
      </trkpt>
      <trkpt lat="41.7642500" lon="-5.3634710">
        <ele>724.7</ele>
        <time>2019-08-15T09:20:43Z</time>
      </trkpt>
      <trkpt lat="41.7642760" lon="-5.3635320">
        <ele>724.7</ele>
        <time>2019-08-15T09:20:44Z</time>
      </trkpt>
      <trkpt lat="41.7643020" lon="-5.3635920">
        <ele>724.7</ele>
        <time>2019-08-15T09:20:45Z</time>
      </trkpt>
      <trkpt lat="41.7643290" lon="-5.3636530">
        <ele>724.7</ele>
        <time>2019-08-15T09:20:46Z</time>
      </trkpt>
      <trkpt lat="41.7643550" lon="-5.3637140">
        <ele>724.7</ele>
        <time>2019-08-15T09:20:47Z</time>
      </trkpt>
      <trkpt lat="41.7643810" lon="-5.3637750">
        <ele>724.7</ele>
        <time>2019-08-15T09:20:48Z</time>
      </trkpt>
      <trkpt lat="41.7644070" lon="-5.3638350">
        <ele>724.8</ele>
        <time>2019-08-15T09:20:49Z</time>
      </trkpt>
      <trkpt lat="41.7644330" lon="-5.3638950">
        <ele>724.8</ele>
        <time>2019-08-15T09:20:50Z</time>
      </trkpt>
      <trkpt lat="41.7644590" lon="-5.3639560">
        <ele>724.8</ele>
        <time>2019-08-15T09:20:51Z</time>
      </trkpt>
      <trkpt lat="41.7644850" lon="-5.3640180">
        <ele>724.9</ele>
        <time>2019-08-15T09:20:52Z</time>
      </trkpt>
      <trkpt lat="41.7645110" lon="-5.3640800">
        <ele>724.9</ele>
        <time>2019-08-15T09:20:53Z</time>
      </trkpt>
      <trkpt lat="41.7645370" lon="-5.3641420">
        <ele>725.0</ele>
        <time>2019-08-15T09:20:54Z</time>
      </trkpt>
      <trkpt lat="41.7645640" lon="-5.3642050">
        <ele>725.1</ele>
        <time>2019-08-15T09:20:55Z</time>
      </trkpt>
      <trkpt lat="41.7645890" lon="-5.3642690">
        <ele>725.2</ele>
        <time>2019-08-15T09:20:56Z</time>
      </trkpt>
      <trkpt lat="41.7646160" lon="-5.3643300">
        <ele>725.2</ele>
        <time>2019-08-15T09:20:57Z</time>
      </trkpt>
      <trkpt lat="41.7646420" lon="-5.3643920">
        <ele>725.3</ele>
        <time>2019-08-15T09:20:58Z</time>
      </trkpt>
      <trkpt lat="41.7646680" lon="-5.3644530">
        <ele>725.4</ele>
        <time>2019-08-15T09:20:59Z</time>
      </trkpt>
      <trkpt lat="41.7646930" lon="-5.3645150">
        <ele>725.5</ele>
        <time>2019-08-15T09:21:00Z</time>
      </trkpt>
      <trkpt lat="41.7647190" lon="-5.3645770">
        <ele>725.5</ele>
        <time>2019-08-15T09:21:01Z</time>
      </trkpt>
      <trkpt lat="41.7647460" lon="-5.3646370">
        <ele>725.6</ele>
        <time>2019-08-15T09:21:02Z</time>
      </trkpt>
      <trkpt lat="41.7647710" lon="-5.3646970">
        <ele>725.7</ele>
        <time>2019-08-15T09:21:03Z</time>
      </trkpt>
      <trkpt lat="41.7647970" lon="-5.3647590">
        <ele>725.8</ele>
        <time>2019-08-15T09:21:04Z</time>
      </trkpt>
      <trkpt lat="41.7648240" lon="-5.3648210">
        <ele>725.8</ele>
        <time>2019-08-15T09:21:05Z</time>
      </trkpt>
      <trkpt lat="41.7648520" lon="-5.3648830">
        <ele>725.9</ele>
        <time>2019-08-15T09:21:06Z</time>
      </trkpt>
      <trkpt lat="41.7648780" lon="-5.3649440">
        <ele>726.0</ele>
        <time>2019-08-15T09:21:07Z</time>
      </trkpt>
      <trkpt lat="41.7649020" lon="-5.3650030">
        <ele>726.0</ele>
        <time>2019-08-15T09:21:08Z</time>
      </trkpt>
      <trkpt lat="41.7649270" lon="-5.3650610">
        <ele>726.1</ele>
        <time>2019-08-15T09:21:09Z</time>
      </trkpt>
      <trkpt lat="41.7649540" lon="-5.3651170">
        <ele>726.1</ele>
        <time>2019-08-15T09:21:10Z</time>
      </trkpt>
      <trkpt lat="41.7649790" lon="-5.3651740">
        <ele>726.2</ele>
        <time>2019-08-15T09:21:11Z</time>
      </trkpt>
      <trkpt lat="41.7650020" lon="-5.3652300">
        <ele>726.3</ele>
        <time>2019-08-15T09:21:12Z</time>
      </trkpt>
      <trkpt lat="41.7650260" lon="-5.3652870">
        <ele>726.4</ele>
        <time>2019-08-15T09:21:13Z</time>
      </trkpt>
      <trkpt lat="41.7650520" lon="-5.3653450">
        <ele>726.4</ele>
        <time>2019-08-15T09:21:14Z</time>
      </trkpt>
      <trkpt lat="41.7650780" lon="-5.3654050">
        <ele>726.5</ele>
        <time>2019-08-15T09:21:15Z</time>
      </trkpt>
      <trkpt lat="41.7651050" lon="-5.3654660">
        <ele>726.6</ele>
        <time>2019-08-15T09:21:16Z</time>
      </trkpt>
      <trkpt lat="41.7651340" lon="-5.3655270">
        <ele>726.6</ele>
        <time>2019-08-15T09:21:17Z</time>
      </trkpt>
      <trkpt lat="41.7651610" lon="-5.3655850">
        <ele>726.7</ele>
        <time>2019-08-15T09:21:18Z</time>
      </trkpt>
      <trkpt lat="41.7651850" lon="-5.3656390">
        <ele>726.7</ele>
        <time>2019-08-15T09:21:19Z</time>
      </trkpt>
      <trkpt lat="41.7652070" lon="-5.3656930">
        <ele>726.7</ele>
        <time>2019-08-15T09:21:20Z</time>
      </trkpt>
      <trkpt lat="41.7652270" lon="-5.3657440">
        <ele>726.7</ele>
        <time>2019-08-15T09:21:21Z</time>
      </trkpt>
      <trkpt lat="41.7652460" lon="-5.3657930">
        <ele>726.7</ele>
        <time>2019-08-15T09:21:22Z</time>
      </trkpt>
      <trkpt lat="41.7652670" lon="-5.3658410">
        <ele>726.7</ele>
        <time>2019-08-15T09:21:23Z</time>
      </trkpt>
      <trkpt lat="41.7652920" lon="-5.3658900">
        <ele>726.7</ele>
        <time>2019-08-15T09:21:24Z</time>
      </trkpt>
      <trkpt lat="41.7653170" lon="-5.3659430">
        <ele>726.7</ele>
        <time>2019-08-15T09:21:25Z</time>
      </trkpt>
      <trkpt lat="41.7653430" lon="-5.3660000">
        <ele>726.7</ele>
        <time>2019-08-15T09:21:26Z</time>
      </trkpt>
      <trkpt lat="41.7653680" lon="-5.3660600">
        <ele>726.7</ele>
        <time>2019-08-15T09:21:27Z</time>
      </trkpt>
      <trkpt lat="41.7653940" lon="-5.3661210">
        <ele>726.6</ele>
        <time>2019-08-15T09:21:28Z</time>
      </trkpt>
      <trkpt lat="41.7654210" lon="-5.3661820">
        <ele>726.6</ele>
        <time>2019-08-15T09:21:29Z</time>
      </trkpt>
      <trkpt lat="41.7654480" lon="-5.3662460">
        <ele>726.6</ele>
        <time>2019-08-15T09:21:30Z</time>
      </trkpt>
      <trkpt lat="41.7654750" lon="-5.3663100">
        <ele>726.6</ele>
        <time>2019-08-15T09:21:31Z</time>
      </trkpt>
      <trkpt lat="41.7655020" lon="-5.3663720">
        <ele>726.6</ele>
        <time>2019-08-15T09:21:32Z</time>
      </trkpt>
      <trkpt lat="41.7655280" lon="-5.3664330">
        <ele>726.7</ele>
        <time>2019-08-15T09:21:33Z</time>
      </trkpt>
      <trkpt lat="41.7655550" lon="-5.3664950">
        <ele>726.7</ele>
        <time>2019-08-15T09:21:34Z</time>
      </trkpt>
      <trkpt lat="41.7655810" lon="-5.3665570">
        <ele>726.7</ele>
        <time>2019-08-15T09:21:35Z</time>
      </trkpt>
      <trkpt lat="41.7656070" lon="-5.3666180">
        <ele>726.7</ele>
        <time>2019-08-15T09:21:36Z</time>
      </trkpt>
      <trkpt lat="41.7656330" lon="-5.3666800">
        <ele>726.8</ele>
        <time>2019-08-15T09:21:37Z</time>
      </trkpt>
      <trkpt lat="41.7656580" lon="-5.3667410">
        <ele>726.8</ele>
        <time>2019-08-15T09:21:38Z</time>
      </trkpt>
      <trkpt lat="41.7656840" lon="-5.3668030">
        <ele>726.8</ele>
        <time>2019-08-15T09:21:39Z</time>
      </trkpt>
      <trkpt lat="41.7657100" lon="-5.3668620">
        <ele>726.8</ele>
        <time>2019-08-15T09:21:40Z</time>
      </trkpt>
      <trkpt lat="41.7657360" lon="-5.3669200">
        <ele>726.9</ele>
        <time>2019-08-15T09:21:41Z</time>
      </trkpt>
      <trkpt lat="41.7657630" lon="-5.3669800">
        <ele>726.9</ele>
        <time>2019-08-15T09:21:42Z</time>
      </trkpt>
      <trkpt lat="41.7657890" lon="-5.3670420">
        <ele>726.9</ele>
        <time>2019-08-15T09:21:43Z</time>
      </trkpt>
      <trkpt lat="41.7658160" lon="-5.3671050">
        <ele>727.0</ele>
        <time>2019-08-15T09:21:44Z</time>
      </trkpt>
      <trkpt lat="41.7658420" lon="-5.3671680">
        <ele>727.0</ele>
        <time>2019-08-15T09:21:45Z</time>
      </trkpt>
      <trkpt lat="41.7658680" lon="-5.3672280">
        <ele>727.0</ele>
        <time>2019-08-15T09:21:46Z</time>
      </trkpt>
      <trkpt lat="41.7658940" lon="-5.3672860">
        <ele>727.1</ele>
        <time>2019-08-15T09:21:47Z</time>
      </trkpt>
      <trkpt lat="41.7659180" lon="-5.3673410">
        <ele>727.1</ele>
        <time>2019-08-15T09:21:48Z</time>
      </trkpt>
      <trkpt lat="41.7659420" lon="-5.3673980">
        <ele>727.1</ele>
        <time>2019-08-15T09:21:49Z</time>
      </trkpt>
      <trkpt lat="41.7659680" lon="-5.3674570">
        <ele>727.1</ele>
        <time>2019-08-15T09:21:50Z</time>
      </trkpt>
      <trkpt lat="41.7659950" lon="-5.3675160">
        <ele>727.1</ele>
        <time>2019-08-15T09:21:51Z</time>
      </trkpt>
      <trkpt lat="41.7660230" lon="-5.3675760">
        <ele>727.1</ele>
        <time>2019-08-15T09:21:52Z</time>
      </trkpt>
      <trkpt lat="41.7660490" lon="-5.3676370">
        <ele>727.1</ele>
        <time>2019-08-15T09:21:53Z</time>
      </trkpt>
      <trkpt lat="41.7660760" lon="-5.3676990">
        <ele>727.1</ele>
        <time>2019-08-15T09:21:54Z</time>
      </trkpt>
      <trkpt lat="41.7661000" lon="-5.3677630">
        <ele>727.1</ele>
        <time>2019-08-15T09:21:55Z</time>
      </trkpt>
      <trkpt lat="41.7661250" lon="-5.3678280">
        <ele>727.1</ele>
        <time>2019-08-15T09:21:56Z</time>
      </trkpt>
      <trkpt lat="41.7661520" lon="-5.3678910">
        <ele>727.0</ele>
        <time>2019-08-15T09:21:57Z</time>
      </trkpt>
      <trkpt lat="41.7661800" lon="-5.3679550">
        <ele>727.0</ele>
        <time>2019-08-15T09:21:58Z</time>
      </trkpt>
      <trkpt lat="41.7662080" lon="-5.3680180">
        <ele>727.0</ele>
        <time>2019-08-15T09:21:59Z</time>
      </trkpt>
      <trkpt lat="41.7662350" lon="-5.3680820">
        <ele>726.9</ele>
        <time>2019-08-15T09:22:00Z</time>
      </trkpt>
      <trkpt lat="41.7662630" lon="-5.3681460">
        <ele>726.9</ele>
        <time>2019-08-15T09:22:01Z</time>
      </trkpt>
      <trkpt lat="41.7662900" lon="-5.3682080">
        <ele>726.9</ele>
        <time>2019-08-15T09:22:02Z</time>
      </trkpt>
      <trkpt lat="41.7663170" lon="-5.3682700">
        <ele>726.9</ele>
        <time>2019-08-15T09:22:03Z</time>
      </trkpt>
      <trkpt lat="41.7663440" lon="-5.3683320">
        <ele>726.9</ele>
        <time>2019-08-15T09:22:04Z</time>
      </trkpt>
      <trkpt lat="41.7663710" lon="-5.3683930">
        <ele>726.9</ele>
        <time>2019-08-15T09:22:05Z</time>
      </trkpt>
      <trkpt lat="41.7663990" lon="-5.3684540">
        <ele>726.9</ele>
        <time>2019-08-15T09:22:06Z</time>
      </trkpt>
      <trkpt lat="41.7664260" lon="-5.3685160">
        <ele>726.9</ele>
        <time>2019-08-15T09:22:07Z</time>
      </trkpt>
      <trkpt lat="41.7664530" lon="-5.3685800">
        <ele>726.9</ele>
        <time>2019-08-15T09:22:08Z</time>
      </trkpt>
      <trkpt lat="41.7664790" lon="-5.3686450">
        <ele>726.9</ele>
        <time>2019-08-15T09:22:09Z</time>
      </trkpt>
      <trkpt lat="41.7665060" lon="-5.3687100">
        <ele>726.9</ele>
        <time>2019-08-15T09:22:10Z</time>
      </trkpt>
      <trkpt lat="41.7665330" lon="-5.3687740">
        <ele>727.0</ele>
        <time>2019-08-15T09:22:11Z</time>
      </trkpt>
      <trkpt lat="41.7665610" lon="-5.3688380">
        <ele>727.0</ele>
        <time>2019-08-15T09:22:12Z</time>
      </trkpt>
      <trkpt lat="41.7665890" lon="-5.3689020">
        <ele>727.0</ele>
        <time>2019-08-15T09:22:13Z</time>
      </trkpt>
      <trkpt lat="41.7666180" lon="-5.3689670">
        <ele>727.1</ele>
        <time>2019-08-15T09:22:14Z</time>
      </trkpt>
      <trkpt lat="41.7666460" lon="-5.3690320">
        <ele>727.1</ele>
        <time>2019-08-15T09:22:15Z</time>
      </trkpt>
      <trkpt lat="41.7666730" lon="-5.3690980">
        <ele>727.2</ele>
        <time>2019-08-15T09:22:16Z</time>
      </trkpt>
      <trkpt lat="41.7667020" lon="-5.3691630">
        <ele>727.2</ele>
        <time>2019-08-15T09:22:17Z</time>
      </trkpt>
      <trkpt lat="41.7667290" lon="-5.3692290">
        <ele>727.3</ele>
        <time>2019-08-15T09:22:18Z</time>
      </trkpt>
      <trkpt lat="41.7667550" lon="-5.3692950">
        <ele>727.4</ele>
        <time>2019-08-15T09:22:19Z</time>
      </trkpt>
      <trkpt lat="41.7667820" lon="-5.3693590">
        <ele>727.4</ele>
        <time>2019-08-15T09:22:20Z</time>
      </trkpt>
      <trkpt lat="41.7668110" lon="-5.3694240">
        <ele>727.5</ele>
        <time>2019-08-15T09:22:21Z</time>
      </trkpt>
      <trkpt lat="41.7668410" lon="-5.3694890">
        <ele>727.6</ele>
        <time>2019-08-15T09:22:22Z</time>
      </trkpt>
      <trkpt lat="41.7668700" lon="-5.3695550">
        <ele>727.6</ele>
        <time>2019-08-15T09:22:23Z</time>
      </trkpt>
      <trkpt lat="41.7668970" lon="-5.3696220">
        <ele>727.7</ele>
        <time>2019-08-15T09:22:24Z</time>
      </trkpt>
      <trkpt lat="41.7669230" lon="-5.3696880">
        <ele>727.7</ele>
        <time>2019-08-15T09:22:25Z</time>
      </trkpt>
      <trkpt lat="41.7669510" lon="-5.3697530">
        <ele>727.8</ele>
        <time>2019-08-15T09:22:26Z</time>
      </trkpt>
      <trkpt lat="41.7669780" lon="-5.3698180">
        <ele>727.8</ele>
        <time>2019-08-15T09:22:27Z</time>
      </trkpt>
      <trkpt lat="41.7670060" lon="-5.3698850">
        <ele>727.9</ele>
        <time>2019-08-15T09:22:28Z</time>
      </trkpt>
      <trkpt lat="41.7670340" lon="-5.3699520">
        <ele>727.9</ele>
        <time>2019-08-15T09:22:29Z</time>
      </trkpt>
      <trkpt lat="41.7670620" lon="-5.3700180">
        <ele>728.0</ele>
        <time>2019-08-15T09:22:30Z</time>
      </trkpt>
      <trkpt lat="41.7670890" lon="-5.3700850">
        <ele>728.0</ele>
        <time>2019-08-15T09:22:31Z</time>
      </trkpt>
      <trkpt lat="41.7671170" lon="-5.3701540">
        <ele>728.1</ele>
        <time>2019-08-15T09:22:32Z</time>
      </trkpt>
      <trkpt lat="41.7671450" lon="-5.3702220">
        <ele>728.1</ele>
        <time>2019-08-15T09:22:33Z</time>
      </trkpt>
      <trkpt lat="41.7671740" lon="-5.3702900">
        <ele>728.1</ele>
        <time>2019-08-15T09:22:34Z</time>
      </trkpt>
      <trkpt lat="41.7672040" lon="-5.3703590">
        <ele>728.1</ele>
        <time>2019-08-15T09:22:35Z</time>
      </trkpt>
      <trkpt lat="41.7672330" lon="-5.3704280">
        <ele>728.1</ele>
        <time>2019-08-15T09:22:36Z</time>
      </trkpt>
      <trkpt lat="41.7672640" lon="-5.3704980">
        <ele>728.1</ele>
        <time>2019-08-15T09:22:37Z</time>
      </trkpt>
      <trkpt lat="41.7672940" lon="-5.3705680">
        <ele>728.1</ele>
        <time>2019-08-15T09:22:38Z</time>
      </trkpt>
      <trkpt lat="41.7673250" lon="-5.3706380">
        <ele>728.1</ele>
        <time>2019-08-15T09:22:39Z</time>
      </trkpt>
      <trkpt lat="41.7673560" lon="-5.3707080">
        <ele>728.1</ele>
        <time>2019-08-15T09:22:40Z</time>
      </trkpt>
      <trkpt lat="41.7673890" lon="-5.3707790">
        <ele>728.2</ele>
        <time>2019-08-15T09:22:41Z</time>
      </trkpt>
      <trkpt lat="41.7674210" lon="-5.3708510">
        <ele>728.2</ele>
        <time>2019-08-15T09:22:42Z</time>
      </trkpt>
      <trkpt lat="41.7674520" lon="-5.3709230">
        <ele>728.3</ele>
        <time>2019-08-15T09:22:43Z</time>
      </trkpt>
      <trkpt lat="41.7674830" lon="-5.3709940">
        <ele>728.4</ele>
        <time>2019-08-15T09:22:44Z</time>
      </trkpt>
      <trkpt lat="41.7675120" lon="-5.3710660">
        <ele>728.5</ele>
        <time>2019-08-15T09:22:45Z</time>
      </trkpt>
      <trkpt lat="41.7675430" lon="-5.3711390">
        <ele>728.6</ele>
        <time>2019-08-15T09:22:46Z</time>
      </trkpt>
      <trkpt lat="41.7675740" lon="-5.3712110">
        <ele>728.7</ele>
        <time>2019-08-15T09:22:47Z</time>
      </trkpt>
      <trkpt lat="41.7676050" lon="-5.3712830">
        <ele>728.7</ele>
        <time>2019-08-15T09:22:48Z</time>
      </trkpt>
      <trkpt lat="41.7676360" lon="-5.3713520">
        <ele>728.9</ele>
        <time>2019-08-15T09:22:49Z</time>
      </trkpt>
      <trkpt lat="41.7676650" lon="-5.3714190">
        <ele>728.9</ele>
        <time>2019-08-15T09:22:50Z</time>
      </trkpt>
      <trkpt lat="41.7676950" lon="-5.3714860">
        <ele>729.0</ele>
        <time>2019-08-15T09:22:51Z</time>
      </trkpt>
      <trkpt lat="41.7677250" lon="-5.3715530">
        <ele>729.0</ele>
        <time>2019-08-15T09:22:52Z</time>
      </trkpt>
      <trkpt lat="41.7677550" lon="-5.3716210">
        <ele>729.1</ele>
        <time>2019-08-15T09:22:53Z</time>
      </trkpt>
      <trkpt lat="41.7677850" lon="-5.3716900">
        <ele>729.1</ele>
        <time>2019-08-15T09:22:54Z</time>
      </trkpt>
      <trkpt lat="41.7678160" lon="-5.3717590">
        <ele>729.1</ele>
        <time>2019-08-15T09:22:55Z</time>
      </trkpt>
      <trkpt lat="41.7678460" lon="-5.3718280">
        <ele>729.1</ele>
        <time>2019-08-15T09:22:56Z</time>
      </trkpt>
      <trkpt lat="41.7678760" lon="-5.3718980">
        <ele>729.1</ele>
        <time>2019-08-15T09:22:57Z</time>
      </trkpt>
      <trkpt lat="41.7679070" lon="-5.3719670">
        <ele>729.2</ele>
        <time>2019-08-15T09:22:58Z</time>
      </trkpt>
      <trkpt lat="41.7679380" lon="-5.3720360">
        <ele>729.2</ele>
        <time>2019-08-15T09:22:59Z</time>
      </trkpt>
      <trkpt lat="41.7679680" lon="-5.3721050">
        <ele>729.3</ele>
        <time>2019-08-15T09:23:00Z</time>
      </trkpt>
      <trkpt lat="41.7679990" lon="-5.3721750">
        <ele>729.4</ele>
        <time>2019-08-15T09:23:01Z</time>
      </trkpt>
      <trkpt lat="41.7680290" lon="-5.3722440">
        <ele>729.4</ele>
        <time>2019-08-15T09:23:02Z</time>
      </trkpt>
      <trkpt lat="41.7680590" lon="-5.3723140">
        <ele>729.6</ele>
        <time>2019-08-15T09:23:03Z</time>
      </trkpt>
      <trkpt lat="41.7680890" lon="-5.3723830">
        <ele>729.6</ele>
        <time>2019-08-15T09:23:04Z</time>
      </trkpt>
      <trkpt lat="41.7681180" lon="-5.3724520">
        <ele>729.6</ele>
        <time>2019-08-15T09:23:05Z</time>
      </trkpt>
      <trkpt lat="41.7681480" lon="-5.3725190">
        <ele>729.6</ele>
        <time>2019-08-15T09:23:06Z</time>
      </trkpt>
      <trkpt lat="41.7681800" lon="-5.3725870">
        <ele>729.7</ele>
        <time>2019-08-15T09:23:07Z</time>
      </trkpt>
      <trkpt lat="41.7682120" lon="-5.3726550">
        <ele>729.8</ele>
        <time>2019-08-15T09:23:08Z</time>
      </trkpt>
      <trkpt lat="41.7682430" lon="-5.3727210">
        <ele>729.9</ele>
        <time>2019-08-15T09:23:09Z</time>
      </trkpt>
      <trkpt lat="41.7682750" lon="-5.3727860">
        <ele>730.0</ele>
        <time>2019-08-15T09:23:10Z</time>
      </trkpt>
      <trkpt lat="41.7683080" lon="-5.3728520">
        <ele>730.0</ele>
        <time>2019-08-15T09:23:11Z</time>
      </trkpt>
      <trkpt lat="41.7683430" lon="-5.3729160">
        <ele>730.1</ele>
        <time>2019-08-15T09:23:12Z</time>
      </trkpt>
      <trkpt lat="41.7683780" lon="-5.3729810">
        <ele>730.1</ele>
        <time>2019-08-15T09:23:13Z</time>
      </trkpt>
      <trkpt lat="41.7684150" lon="-5.3730450">
        <ele>730.2</ele>
        <time>2019-08-15T09:23:14Z</time>
      </trkpt>
      <trkpt lat="41.7684530" lon="-5.3731080">
        <ele>730.2</ele>
        <time>2019-08-15T09:23:15Z</time>
      </trkpt>
      <trkpt lat="41.7684920" lon="-5.3731690">
        <ele>730.2</ele>
        <time>2019-08-15T09:23:16Z</time>
      </trkpt>
      <trkpt lat="41.7685340" lon="-5.3732270">
        <ele>730.2</ele>
        <time>2019-08-15T09:23:17Z</time>
      </trkpt>
      <trkpt lat="41.7685760" lon="-5.3732840">
        <ele>730.2</ele>
        <time>2019-08-15T09:23:18Z</time>
      </trkpt>
      <trkpt lat="41.7686200" lon="-5.3733390">
        <ele>730.2</ele>
        <time>2019-08-15T09:23:19Z</time>
      </trkpt>
      <trkpt lat="41.7686640" lon="-5.3733940">
        <ele>730.2</ele>
        <time>2019-08-15T09:23:20Z</time>
      </trkpt>
      <trkpt lat="41.7687070" lon="-5.3734490">
        <ele>730.2</ele>
        <time>2019-08-15T09:23:21Z</time>
      </trkpt>
      <trkpt lat="41.7687520" lon="-5.3735030">
        <ele>730.2</ele>
        <time>2019-08-15T09:23:22Z</time>
      </trkpt>
      <trkpt lat="41.7687960" lon="-5.3735570">
        <ele>730.2</ele>
        <time>2019-08-15T09:23:23Z</time>
      </trkpt>
      <trkpt lat="41.7688410" lon="-5.3736090">
        <ele>730.1</ele>
        <time>2019-08-15T09:23:24Z</time>
      </trkpt>
      <trkpt lat="41.7688880" lon="-5.3736610">
        <ele>730.1</ele>
        <time>2019-08-15T09:23:25Z</time>
      </trkpt>
      <trkpt lat="41.7689330" lon="-5.3737150">
        <ele>730.1</ele>
        <time>2019-08-15T09:23:26Z</time>
      </trkpt>
      <trkpt lat="41.7689780" lon="-5.3737690">
        <ele>730.2</ele>
        <time>2019-08-15T09:23:27Z</time>
      </trkpt>
      <trkpt lat="41.7690220" lon="-5.3738240">
        <ele>730.2</ele>
        <time>2019-08-15T09:23:28Z</time>
      </trkpt>
      <trkpt lat="41.7690630" lon="-5.3738770">
        <ele>730.3</ele>
        <time>2019-08-15T09:23:29Z</time>
      </trkpt>
      <trkpt lat="41.7691020" lon="-5.3739300">
        <ele>730.3</ele>
        <time>2019-08-15T09:23:30Z</time>
      </trkpt>
      <trkpt lat="41.7691390" lon="-5.3739830">
        <ele>730.4</ele>
        <time>2019-08-15T09:23:31Z</time>
      </trkpt>
      <trkpt lat="41.7691780" lon="-5.3740370">
        <ele>730.5</ele>
        <time>2019-08-15T09:23:32Z</time>
      </trkpt>
      <trkpt lat="41.7692170" lon="-5.3740960">
        <ele>730.7</ele>
        <time>2019-08-15T09:23:33Z</time>
      </trkpt>
      <trkpt lat="41.7692560" lon="-5.3741550">
        <ele>730.8</ele>
        <time>2019-08-15T09:23:34Z</time>
      </trkpt>
      <trkpt lat="41.7692950" lon="-5.3742160">
        <ele>730.9</ele>
        <time>2019-08-15T09:23:35Z</time>
      </trkpt>
      <trkpt lat="41.7693320" lon="-5.3742790">
        <ele>731.1</ele>
        <time>2019-08-15T09:23:36Z</time>
      </trkpt>
      <trkpt lat="41.7693690" lon="-5.3743420">
        <ele>731.3</ele>
        <time>2019-08-15T09:23:37Z</time>
      </trkpt>
      <trkpt lat="41.7694060" lon="-5.3744030">
        <ele>731.4</ele>
        <time>2019-08-15T09:23:38Z</time>
      </trkpt>
      <trkpt lat="41.7694410" lon="-5.3744660">
        <ele>731.5</ele>
        <time>2019-08-15T09:23:39Z</time>
      </trkpt>
      <trkpt lat="41.7694760" lon="-5.3745290">
        <ele>731.6</ele>
        <time>2019-08-15T09:23:40Z</time>
      </trkpt>
      <trkpt lat="41.7695120" lon="-5.3745890">
        <ele>731.7</ele>
        <time>2019-08-15T09:23:41Z</time>
      </trkpt>
      <trkpt lat="41.7695460" lon="-5.3746460">
        <ele>731.8</ele>
        <time>2019-08-15T09:23:42Z</time>
      </trkpt>
      <trkpt lat="41.7695810" lon="-5.3747010">
        <ele>731.8</ele>
        <time>2019-08-15T09:23:43Z</time>
      </trkpt>
      <trkpt lat="41.7696130" lon="-5.3747530">
        <ele>731.8</ele>
        <time>2019-08-15T09:23:44Z</time>
      </trkpt>
      <trkpt lat="41.7696450" lon="-5.3748050">
        <ele>731.8</ele>
        <time>2019-08-15T09:23:45Z</time>
      </trkpt>
      <trkpt lat="41.7696760" lon="-5.3748580">
        <ele>731.8</ele>
        <time>2019-08-15T09:23:46Z</time>
      </trkpt>
      <trkpt lat="41.7697080" lon="-5.3749130">
        <ele>731.8</ele>
        <time>2019-08-15T09:23:47Z</time>
      </trkpt>
      <trkpt lat="41.7697410" lon="-5.3749690">
        <ele>731.8</ele>
        <time>2019-08-15T09:23:48Z</time>
      </trkpt>
      <trkpt lat="41.7697760" lon="-5.3750250">
        <ele>731.7</ele>
        <time>2019-08-15T09:23:49Z</time>
      </trkpt>
      <trkpt lat="41.7698120" lon="-5.3750820">
        <ele>731.7</ele>
        <time>2019-08-15T09:23:50Z</time>
      </trkpt>
      <trkpt lat="41.7698490" lon="-5.3751380">
        <ele>731.6</ele>
        <time>2019-08-15T09:23:51Z</time>
      </trkpt>
      <trkpt lat="41.7698840" lon="-5.3751950">
        <ele>731.6</ele>
        <time>2019-08-15T09:23:52Z</time>
      </trkpt>
      <trkpt lat="41.7699200" lon="-5.3752500">
        <ele>731.6</ele>
        <time>2019-08-15T09:23:53Z</time>
      </trkpt>
      <trkpt lat="41.7699560" lon="-5.3753060">
        <ele>731.5</ele>
        <time>2019-08-15T09:23:54Z</time>
      </trkpt>
      <trkpt lat="41.7699920" lon="-5.3753610">
        <ele>731.5</ele>
        <time>2019-08-15T09:23:55Z</time>
      </trkpt>
      <trkpt lat="41.7700300" lon="-5.3754160">
        <ele>731.5</ele>
        <time>2019-08-15T09:23:56Z</time>
      </trkpt>
      <trkpt lat="41.7700670" lon="-5.3754710">
        <ele>731.5</ele>
        <time>2019-08-15T09:23:57Z</time>
      </trkpt>
      <trkpt lat="41.7701050" lon="-5.3755240">
        <ele>731.5</ele>
        <time>2019-08-15T09:23:58Z</time>
      </trkpt>
      <trkpt lat="41.7701410" lon="-5.3755750">
        <ele>731.5</ele>
        <time>2019-08-15T09:23:59Z</time>
      </trkpt>
      <trkpt lat="41.7701780" lon="-5.3756230">
        <ele>731.6</ele>
        <time>2019-08-15T09:24:00Z</time>
      </trkpt>
      <trkpt lat="41.7702150" lon="-5.3756710">
        <ele>731.6</ele>
        <time>2019-08-15T09:24:01Z</time>
      </trkpt>
      <trkpt lat="41.7702520" lon="-5.3757210">
        <ele>731.6</ele>
        <time>2019-08-15T09:24:02Z</time>
      </trkpt>
      <trkpt lat="41.7702880" lon="-5.3757710">
        <ele>731.6</ele>
        <time>2019-08-15T09:24:03Z</time>
      </trkpt>
      <trkpt lat="41.7703260" lon="-5.3758190">
        <ele>731.7</ele>
        <time>2019-08-15T09:24:04Z</time>
      </trkpt>
      <trkpt lat="41.7703650" lon="-5.3758670">
        <ele>731.7</ele>
        <time>2019-08-15T09:24:05Z</time>
      </trkpt>
      <trkpt lat="41.7704040" lon="-5.3759160">
        <ele>731.7</ele>
        <time>2019-08-15T09:24:06Z</time>
      </trkpt>
      <trkpt lat="41.7704440" lon="-5.3759670">
        <ele>731.7</ele>
        <time>2019-08-15T09:24:07Z</time>
      </trkpt>
      <trkpt lat="41.7704840" lon="-5.3760160">
        <ele>731.7</ele>
        <time>2019-08-15T09:24:08Z</time>
      </trkpt>
      <trkpt lat="41.7705240" lon="-5.3760650">
        <ele>731.7</ele>
        <time>2019-08-15T09:24:09Z</time>
      </trkpt>
      <trkpt lat="41.7705660" lon="-5.3761130">
        <ele>731.6</ele>
        <time>2019-08-15T09:24:10Z</time>
      </trkpt>
      <trkpt lat="41.7706060" lon="-5.3761630">
        <ele>731.5</ele>
        <time>2019-08-15T09:24:11Z</time>
      </trkpt>
      <trkpt lat="41.7706480" lon="-5.3762100">
        <ele>731.5</ele>
        <time>2019-08-15T09:24:12Z</time>
      </trkpt>
      <trkpt lat="41.7706900" lon="-5.3762580">
        <ele>731.4</ele>
        <time>2019-08-15T09:24:13Z</time>
      </trkpt>
      <trkpt lat="41.7707330" lon="-5.3763050">
        <ele>731.4</ele>
        <time>2019-08-15T09:24:14Z</time>
      </trkpt>
      <trkpt lat="41.7707750" lon="-5.3763510">
        <ele>731.3</ele>
        <time>2019-08-15T09:24:15Z</time>
      </trkpt>
      <trkpt lat="41.7708180" lon="-5.3763960">
        <ele>731.4</ele>
        <time>2019-08-15T09:24:16Z</time>
      </trkpt>
      <trkpt lat="41.7708610" lon="-5.3764430">
        <ele>731.3</ele>
        <time>2019-08-15T09:24:17Z</time>
      </trkpt>
      <trkpt lat="41.7709030" lon="-5.3764900">
        <ele>731.2</ele>
        <time>2019-08-15T09:24:18Z</time>
      </trkpt>
      <trkpt lat="41.7709470" lon="-5.3765340">
        <ele>731.2</ele>
        <time>2019-08-15T09:24:19Z</time>
      </trkpt>
      <trkpt lat="41.7709900" lon="-5.3765760">
        <ele>731.2</ele>
        <time>2019-08-15T09:24:20Z</time>
      </trkpt>
      <trkpt lat="41.7710350" lon="-5.3766150">
        <ele>731.2</ele>
        <time>2019-08-15T09:24:21Z</time>
      </trkpt>
      <trkpt lat="41.7710800" lon="-5.3766550">
        <ele>731.2</ele>
        <time>2019-08-15T09:24:22Z</time>
      </trkpt>
      <trkpt lat="41.7711240" lon="-5.3766950">
        <ele>731.1</ele>
        <time>2019-08-15T09:24:23Z</time>
      </trkpt>
      <trkpt lat="41.7711700" lon="-5.3767330">
        <ele>731.1</ele>
        <time>2019-08-15T09:24:24Z</time>
      </trkpt>
      <trkpt lat="41.7712140" lon="-5.3767690">
        <ele>731.1</ele>
        <time>2019-08-15T09:24:25Z</time>
      </trkpt>
      <trkpt lat="41.7712590" lon="-5.3768070">
        <ele>731.1</ele>
        <time>2019-08-15T09:24:26Z</time>
      </trkpt>
      <trkpt lat="41.7713050" lon="-5.3768440">
        <ele>731.1</ele>
        <time>2019-08-15T09:24:27Z</time>
      </trkpt>
      <trkpt lat="41.7713500" lon="-5.3768810">
        <ele>731.1</ele>
        <time>2019-08-15T09:24:28Z</time>
      </trkpt>
      <trkpt lat="41.7713970" lon="-5.3769190">
        <ele>731.1</ele>
        <time>2019-08-15T09:24:29Z</time>
      </trkpt>
      <trkpt lat="41.7714430" lon="-5.3769570">
        <ele>731.1</ele>
        <time>2019-08-15T09:24:30Z</time>
      </trkpt>
      <trkpt lat="41.7714890" lon="-5.3769920">
        <ele>731.2</ele>
        <time>2019-08-15T09:24:31Z</time>
      </trkpt>
      <trkpt lat="41.7715350" lon="-5.3770280">
        <ele>731.2</ele>
        <time>2019-08-15T09:24:32Z</time>
      </trkpt>
      <trkpt lat="41.7715800" lon="-5.3770640">
        <ele>731.3</ele>
        <time>2019-08-15T09:24:33Z</time>
      </trkpt>
      <trkpt lat="41.7716250" lon="-5.3771020">
        <ele>731.3</ele>
        <time>2019-08-15T09:24:34Z</time>
      </trkpt>
      <trkpt lat="41.7716700" lon="-5.3771400">
        <ele>731.4</ele>
        <time>2019-08-15T09:24:35Z</time>
      </trkpt>
      <trkpt lat="41.7717130" lon="-5.3771760">
        <ele>731.5</ele>
        <time>2019-08-15T09:24:36Z</time>
      </trkpt>
      <trkpt lat="41.7717540" lon="-5.3772080">
        <ele>731.5</ele>
        <time>2019-08-15T09:24:37Z</time>
      </trkpt>
      <trkpt lat="41.7717960" lon="-5.3772400">
        <ele>731.6</ele>
        <time>2019-08-15T09:24:38Z</time>
      </trkpt>
      <trkpt lat="41.7718370" lon="-5.3772750">
        <ele>731.6</ele>
        <time>2019-08-15T09:24:39Z</time>
      </trkpt>
      <trkpt lat="41.7718800" lon="-5.3773110">
        <ele>731.6</ele>
        <time>2019-08-15T09:24:40Z</time>
      </trkpt>
      <trkpt lat="41.7719210" lon="-5.3773480">
        <ele>731.6</ele>
        <time>2019-08-15T09:24:41Z</time>
      </trkpt>
      <trkpt lat="41.7719640" lon="-5.3773840">
        <ele>731.6</ele>
        <time>2019-08-15T09:24:42Z</time>
      </trkpt>
      <trkpt lat="41.7720060" lon="-5.3774220">
        <ele>731.7</ele>
        <time>2019-08-15T09:24:43Z</time>
      </trkpt>
      <trkpt lat="41.7720490" lon="-5.3774590">
        <ele>731.7</ele>
        <time>2019-08-15T09:24:44Z</time>
      </trkpt>
      <trkpt lat="41.7720910" lon="-5.3774970">
        <ele>731.6</ele>
        <time>2019-08-15T09:24:45Z</time>
      </trkpt>
      <trkpt lat="41.7721330" lon="-5.3775360">
        <ele>731.7</ele>
        <time>2019-08-15T09:24:46Z</time>
      </trkpt>
      <trkpt lat="41.7721760" lon="-5.3775750">
        <ele>731.7</ele>
        <time>2019-08-15T09:24:47Z</time>
      </trkpt>
      <trkpt lat="41.7722190" lon="-5.3776130">
        <ele>731.7</ele>
        <time>2019-08-15T09:24:48Z</time>
      </trkpt>
      <trkpt lat="41.7722620" lon="-5.3776500">
        <ele>731.8</ele>
        <time>2019-08-15T09:24:49Z</time>
      </trkpt>
      <trkpt lat="41.7723020" lon="-5.3776860">
        <ele>731.9</ele>
        <time>2019-08-15T09:24:50Z</time>
      </trkpt>
      <trkpt lat="41.7723400" lon="-5.3777210">
        <ele>732.0</ele>
        <time>2019-08-15T09:24:51Z</time>
      </trkpt>
      <trkpt lat="41.7723780" lon="-5.3777540">
        <ele>732.1</ele>
        <time>2019-08-15T09:24:52Z</time>
      </trkpt>
      <trkpt lat="41.7724180" lon="-5.3777840">
        <ele>732.3</ele>
        <time>2019-08-15T09:24:53Z</time>
      </trkpt>
      <trkpt lat="41.7724600" lon="-5.3778130">
        <ele>732.5</ele>
        <time>2019-08-15T09:24:54Z</time>
      </trkpt>
      <trkpt lat="41.7725040" lon="-5.3778430">
        <ele>732.8</ele>
        <time>2019-08-15T09:24:55Z</time>
      </trkpt>
      <trkpt lat="41.7725460" lon="-5.3778730">
        <ele>733.0</ele>
        <time>2019-08-15T09:24:56Z</time>
      </trkpt>
      <trkpt lat="41.7725840" lon="-5.3779040">
        <ele>733.2</ele>
        <time>2019-08-15T09:24:57Z</time>
      </trkpt>
      <trkpt lat="41.7726170" lon="-5.3779350">
        <ele>733.4</ele>
        <time>2019-08-15T09:24:58Z</time>
      </trkpt>
      <trkpt lat="41.7726500" lon="-5.3779620">
        <ele>733.6</ele>
        <time>2019-08-15T09:24:59Z</time>
      </trkpt>
      <trkpt lat="41.7726810" lon="-5.3779880">
        <ele>733.9</ele>
        <time>2019-08-15T09:25:00Z</time>
      </trkpt>
      <trkpt lat="41.7727120" lon="-5.3780130">
        <ele>734.1</ele>
        <time>2019-08-15T09:25:01Z</time>
      </trkpt>
      <trkpt lat="41.7727460" lon="-5.3780360">
        <ele>734.4</ele>
        <time>2019-08-15T09:25:02Z</time>
      </trkpt>
      <trkpt lat="41.7727830" lon="-5.3780580">
        <ele>734.5</ele>
        <time>2019-08-15T09:25:03Z</time>
      </trkpt>
      <trkpt lat="41.7728220" lon="-5.3780800">
        <ele>734.7</ele>
        <time>2019-08-15T09:25:04Z</time>
      </trkpt>
      <trkpt lat="41.7728640" lon="-5.3781020">
        <ele>734.9</ele>
        <time>2019-08-15T09:25:05Z</time>
      </trkpt>
      <trkpt lat="41.7729060" lon="-5.3781250">
        <ele>735.1</ele>
        <time>2019-08-15T09:25:06Z</time>
      </trkpt>
      <trkpt lat="41.7729490" lon="-5.3781500">
        <ele>735.2</ele>
        <time>2019-08-15T09:25:07Z</time>
      </trkpt>
      <trkpt lat="41.7729910" lon="-5.3781760">
        <ele>735.3</ele>
        <time>2019-08-15T09:25:08Z</time>
      </trkpt>
      <trkpt lat="41.7730310" lon="-5.3782020">
        <ele>735.4</ele>
        <time>2019-08-15T09:25:09Z</time>
      </trkpt>
      <trkpt lat="41.7730720" lon="-5.3782280">
        <ele>735.4</ele>
        <time>2019-08-15T09:25:10Z</time>
      </trkpt>
      <trkpt lat="41.7731120" lon="-5.3782550">
        <ele>735.4</ele>
        <time>2019-08-15T09:25:11Z</time>
      </trkpt>
      <trkpt lat="41.7731510" lon="-5.3782800">
        <ele>735.4</ele>
        <time>2019-08-15T09:25:12Z</time>
      </trkpt>
      <trkpt lat="41.7731900" lon="-5.3783060">
        <ele>735.4</ele>
        <time>2019-08-15T09:25:13Z</time>
      </trkpt>
      <trkpt lat="41.7732290" lon="-5.3783340">
        <ele>735.4</ele>
        <time>2019-08-15T09:25:14Z</time>
      </trkpt>
      <trkpt lat="41.7732670" lon="-5.3783660">
        <ele>735.3</ele>
        <time>2019-08-15T09:25:15Z</time>
      </trkpt>
      <trkpt lat="41.7733050" lon="-5.3783990">
        <ele>735.3</ele>
        <time>2019-08-15T09:25:16Z</time>
      </trkpt>
      <trkpt lat="41.7733430" lon="-5.3784300">
        <ele>735.2</ele>
        <time>2019-08-15T09:25:17Z</time>
      </trkpt>
      <trkpt lat="41.7733800" lon="-5.3784590">
        <ele>735.0</ele>
        <time>2019-08-15T09:25:18Z</time>
      </trkpt>
      <trkpt lat="41.7734140" lon="-5.3784880">
        <ele>734.9</ele>
        <time>2019-08-15T09:25:19Z</time>
      </trkpt>
      <trkpt lat="41.7734480" lon="-5.3785180">
        <ele>734.8</ele>
        <time>2019-08-15T09:25:20Z</time>
      </trkpt>
      <trkpt lat="41.7734830" lon="-5.3785500">
        <ele>734.7</ele>
        <time>2019-08-15T09:25:21Z</time>
      </trkpt>
      <trkpt lat="41.7735190" lon="-5.3785810">
        <ele>734.6</ele>
        <time>2019-08-15T09:25:22Z</time>
      </trkpt>
      <trkpt lat="41.7735560" lon="-5.3786110">
        <ele>734.5</ele>
        <time>2019-08-15T09:25:23Z</time>
      </trkpt>
      <trkpt lat="41.7735940" lon="-5.3786410">
        <ele>734.4</ele>
        <time>2019-08-15T09:25:24Z</time>
      </trkpt>
      <trkpt lat="41.7736310" lon="-5.3786720">
        <ele>734.3</ele>
        <time>2019-08-15T09:25:25Z</time>
      </trkpt>
      <trkpt lat="41.7736700" lon="-5.3787030">
        <ele>734.2</ele>
        <time>2019-08-15T09:25:26Z</time>
      </trkpt>
      <trkpt lat="41.7737070" lon="-5.3787330">
        <ele>734.1</ele>
        <time>2019-08-15T09:25:27Z</time>
      </trkpt>
      <trkpt lat="41.7737460" lon="-5.3787630">
        <ele>734.0</ele>
        <time>2019-08-15T09:25:28Z</time>
      </trkpt>
      <trkpt lat="41.7737870" lon="-5.3787910">
        <ele>734.0</ele>
        <time>2019-08-15T09:25:29Z</time>
      </trkpt>
      <trkpt lat="41.7738290" lon="-5.3788210">
        <ele>733.9</ele>
        <time>2019-08-15T09:25:30Z</time>
      </trkpt>
      <trkpt lat="41.7738700" lon="-5.3788520">
        <ele>733.8</ele>
        <time>2019-08-15T09:25:31Z</time>
      </trkpt>
      <trkpt lat="41.7739100" lon="-5.3788810">
        <ele>733.8</ele>
        <time>2019-08-15T09:25:32Z</time>
      </trkpt>
      <trkpt lat="41.7739470" lon="-5.3789110">
        <ele>733.8</ele>
        <time>2019-08-15T09:25:33Z</time>
      </trkpt>
      <trkpt lat="41.7739800" lon="-5.3789430">
        <ele>733.8</ele>
        <time>2019-08-15T09:25:34Z</time>
      </trkpt>
      <trkpt lat="41.7740120" lon="-5.3789780">
        <ele>733.8</ele>
        <time>2019-08-15T09:25:35Z</time>
      </trkpt>
      <trkpt lat="41.7740430" lon="-5.3790180">
        <ele>733.7</ele>
        <time>2019-08-15T09:25:36Z</time>
      </trkpt>
      <trkpt lat="41.7740740" lon="-5.3790620">
        <ele>733.7</ele>
        <time>2019-08-15T09:25:37Z</time>
      </trkpt>
      <trkpt lat="41.7741070" lon="-5.3791060">
        <ele>733.7</ele>
        <time>2019-08-15T09:25:38Z</time>
      </trkpt>
      <trkpt lat="41.7741410" lon="-5.3791480">
        <ele>733.6</ele>
        <time>2019-08-15T09:25:39Z</time>
      </trkpt>
      <trkpt lat="41.7741750" lon="-5.3791930">
        <ele>733.6</ele>
        <time>2019-08-15T09:25:40Z</time>
      </trkpt>
      <trkpt lat="41.7742080" lon="-5.3792370">
        <ele>733.5</ele>
        <time>2019-08-15T09:25:41Z</time>
      </trkpt>
      <trkpt lat="41.7742420" lon="-5.3792820">
        <ele>733.5</ele>
        <time>2019-08-15T09:25:42Z</time>
      </trkpt>
      <trkpt lat="41.7742750" lon="-5.3793280">
        <ele>733.5</ele>
        <time>2019-08-15T09:25:43Z</time>
      </trkpt>
      <trkpt lat="41.7743100" lon="-5.3793750">
        <ele>733.6</ele>
        <time>2019-08-15T09:25:44Z</time>
      </trkpt>
      <trkpt lat="41.7743440" lon="-5.3794220">
        <ele>733.6</ele>
        <time>2019-08-15T09:25:45Z</time>
      </trkpt>
      <trkpt lat="41.7743770" lon="-5.3794690">
        <ele>733.7</ele>
        <time>2019-08-15T09:25:46Z</time>
      </trkpt>
      <trkpt lat="41.7744130" lon="-5.3795170">
        <ele>733.8</ele>
        <time>2019-08-15T09:25:47Z</time>
      </trkpt>
      <trkpt lat="41.7744490" lon="-5.3795640">
        <ele>734.0</ele>
        <time>2019-08-15T09:25:48Z</time>
      </trkpt>
      <trkpt lat="41.7744860" lon="-5.3796100">
        <ele>734.2</ele>
        <time>2019-08-15T09:25:49Z</time>
      </trkpt>
      <trkpt lat="41.7745240" lon="-5.3796550">
        <ele>734.5</ele>
        <time>2019-08-15T09:25:50Z</time>
      </trkpt>
      <trkpt lat="41.7745620" lon="-5.3796990">
        <ele>734.8</ele>
        <time>2019-08-15T09:25:51Z</time>
      </trkpt>
      <trkpt lat="41.7746010" lon="-5.3797420">
        <ele>735.1</ele>
        <time>2019-08-15T09:25:52Z</time>
      </trkpt>
      <trkpt lat="41.7746390" lon="-5.3797840">
        <ele>735.4</ele>
        <time>2019-08-15T09:25:53Z</time>
      </trkpt>
      <trkpt lat="41.7746780" lon="-5.3798260">
        <ele>735.7</ele>
        <time>2019-08-15T09:25:54Z</time>
      </trkpt>
      <trkpt lat="41.7747160" lon="-5.3798670">
        <ele>736.0</ele>
        <time>2019-08-15T09:25:55Z</time>
      </trkpt>
      <trkpt lat="41.7747540" lon="-5.3799070">
        <ele>736.3</ele>
        <time>2019-08-15T09:25:56Z</time>
      </trkpt>
      <trkpt lat="41.7747910" lon="-5.3799470">
        <ele>736.5</ele>
        <time>2019-08-15T09:25:57Z</time>
      </trkpt>
      <trkpt lat="41.7748300" lon="-5.3799880">
        <ele>736.7</ele>
        <time>2019-08-15T09:25:58Z</time>
      </trkpt>
      <trkpt lat="41.7748690" lon="-5.3800280">
        <ele>736.9</ele>
        <time>2019-08-15T09:25:59Z</time>
      </trkpt>
      <trkpt lat="41.7749100" lon="-5.3800700">
        <ele>737.2</ele>
        <time>2019-08-15T09:26:00Z</time>
      </trkpt>
      <trkpt lat="41.7749500" lon="-5.3801130">
        <ele>737.4</ele>
        <time>2019-08-15T09:26:01Z</time>
      </trkpt>
      <trkpt lat="41.7749900" lon="-5.3801550">
        <ele>737.4</ele>
        <time>2019-08-15T09:26:02Z</time>
      </trkpt>
      <trkpt lat="41.7750290" lon="-5.3801960">
        <ele>737.4</ele>
        <time>2019-08-15T09:26:03Z</time>
      </trkpt>
      <trkpt lat="41.7750670" lon="-5.3802350">
        <ele>737.5</ele>
        <time>2019-08-15T09:26:04Z</time>
      </trkpt>
      <trkpt lat="41.7751050" lon="-5.3802760">
        <ele>737.5</ele>
        <time>2019-08-15T09:26:05Z</time>
      </trkpt>
      <trkpt lat="41.7751430" lon="-5.3803180">
        <ele>737.5</ele>
        <time>2019-08-15T09:26:06Z</time>
      </trkpt>
      <trkpt lat="41.7751820" lon="-5.3803600">
        <ele>737.5</ele>
        <time>2019-08-15T09:26:07Z</time>
      </trkpt>
      <trkpt lat="41.7752220" lon="-5.3803990">
        <ele>737.5</ele>
        <time>2019-08-15T09:26:08Z</time>
      </trkpt>
      <trkpt lat="41.7752620" lon="-5.3804410">
        <ele>737.5</ele>
        <time>2019-08-15T09:26:09Z</time>
      </trkpt>
      <trkpt lat="41.7753030" lon="-5.3804820">
        <ele>737.5</ele>
        <time>2019-08-15T09:26:10Z</time>
      </trkpt>
      <trkpt lat="41.7753410" lon="-5.3805220">
        <ele>737.5</ele>
        <time>2019-08-15T09:26:11Z</time>
      </trkpt>
      <trkpt lat="41.7753790" lon="-5.3805590">
        <ele>737.5</ele>
        <time>2019-08-15T09:26:12Z</time>
      </trkpt>
      <trkpt lat="41.7754140" lon="-5.3805960">
        <ele>737.5</ele>
        <time>2019-08-15T09:26:13Z</time>
      </trkpt>
      <trkpt lat="41.7754480" lon="-5.3806340">
        <ele>737.5</ele>
        <time>2019-08-15T09:26:14Z</time>
      </trkpt>
      <trkpt lat="41.7754840" lon="-5.3806700">
        <ele>737.6</ele>
        <time>2019-08-15T09:26:15Z</time>
      </trkpt>
      <trkpt lat="41.7755210" lon="-5.3807070">
        <ele>737.6</ele>
        <time>2019-08-15T09:26:16Z</time>
      </trkpt>
      <trkpt lat="41.7755580" lon="-5.3807480">
        <ele>737.7</ele>
        <time>2019-08-15T09:26:17Z</time>
      </trkpt>
      <trkpt lat="41.7755950" lon="-5.3807870">
        <ele>737.7</ele>
        <time>2019-08-15T09:26:18Z</time>
      </trkpt>
      <trkpt lat="41.7756340" lon="-5.3808250">
        <ele>737.7</ele>
        <time>2019-08-15T09:26:19Z</time>
      </trkpt>
      <trkpt lat="41.7756710" lon="-5.3808630">
        <ele>737.8</ele>
        <time>2019-08-15T09:26:20Z</time>
      </trkpt>
      <trkpt lat="41.7757080" lon="-5.3808990">
        <ele>737.8</ele>
        <time>2019-08-15T09:26:21Z</time>
      </trkpt>
      <trkpt lat="41.7757460" lon="-5.3809340">
        <ele>737.9</ele>
        <time>2019-08-15T09:26:22Z</time>
      </trkpt>
      <trkpt lat="41.7757840" lon="-5.3809720">
        <ele>738.0</ele>
        <time>2019-08-15T09:26:23Z</time>
      </trkpt>
      <trkpt lat="41.7758220" lon="-5.3810100">
        <ele>738.0</ele>
        <time>2019-08-15T09:26:24Z</time>
      </trkpt>
      <trkpt lat="41.7758570" lon="-5.3810460">
        <ele>738.1</ele>
        <time>2019-08-15T09:26:25Z</time>
      </trkpt>
      <trkpt lat="41.7758910" lon="-5.3810780">
        <ele>738.2</ele>
        <time>2019-08-15T09:26:26Z</time>
      </trkpt>
      <trkpt lat="41.7759220" lon="-5.3811090">
        <ele>738.3</ele>
        <time>2019-08-15T09:26:27Z</time>
      </trkpt>
      <trkpt lat="41.7759550" lon="-5.3811430">
        <ele>738.4</ele>
        <time>2019-08-15T09:26:28Z</time>
      </trkpt>
      <trkpt lat="41.7759890" lon="-5.3811760">
        <ele>738.5</ele>
        <time>2019-08-15T09:26:29Z</time>
      </trkpt>
      <trkpt lat="41.7760250" lon="-5.3812100">
        <ele>738.5</ele>
        <time>2019-08-15T09:26:30Z</time>
      </trkpt>
      <trkpt lat="41.7760610" lon="-5.3812440">
        <ele>738.6</ele>
        <time>2019-08-15T09:26:31Z</time>
      </trkpt>
      <trkpt lat="41.7760970" lon="-5.3812780">
        <ele>738.6</ele>
        <time>2019-08-15T09:26:32Z</time>
      </trkpt>
      <trkpt lat="41.7761330" lon="-5.3813110">
        <ele>738.7</ele>
        <time>2019-08-15T09:26:33Z</time>
      </trkpt>
      <trkpt lat="41.7761690" lon="-5.3813460">
        <ele>738.8</ele>
        <time>2019-08-15T09:26:34Z</time>
      </trkpt>
      <trkpt lat="41.7762040" lon="-5.3813800">
        <ele>738.9</ele>
        <time>2019-08-15T09:26:35Z</time>
      </trkpt>
      <trkpt lat="41.7762390" lon="-5.3814140">
        <ele>739.0</ele>
        <time>2019-08-15T09:26:36Z</time>
      </trkpt>
      <trkpt lat="41.7762750" lon="-5.3814510">
        <ele>739.0</ele>
        <time>2019-08-15T09:26:37Z</time>
      </trkpt>
      <trkpt lat="41.7763100" lon="-5.3814890">
        <ele>739.1</ele>
        <time>2019-08-15T09:26:38Z</time>
      </trkpt>
      <trkpt lat="41.7763450" lon="-5.3815270">
        <ele>739.1</ele>
        <time>2019-08-15T09:26:39Z</time>
      </trkpt>
      <trkpt lat="41.7763800" lon="-5.3815660">
        <ele>739.2</ele>
        <time>2019-08-15T09:26:40Z</time>
      </trkpt>
      <trkpt lat="41.7764150" lon="-5.3816050">
        <ele>739.3</ele>
        <time>2019-08-15T09:26:41Z</time>
      </trkpt>
      <trkpt lat="41.7764500" lon="-5.3816450">
        <ele>739.4</ele>
        <time>2019-08-15T09:26:42Z</time>
      </trkpt>
      <trkpt lat="41.7764840" lon="-5.3816840">
        <ele>739.4</ele>
        <time>2019-08-15T09:26:43Z</time>
      </trkpt>
      <trkpt lat="41.7765190" lon="-5.3817240">
        <ele>739.6</ele>
        <time>2019-08-15T09:26:44Z</time>
      </trkpt>
      <trkpt lat="41.7765530" lon="-5.3817650">
        <ele>739.7</ele>
        <time>2019-08-15T09:26:45Z</time>
      </trkpt>
      <trkpt lat="41.7765890" lon="-5.3818070">
        <ele>739.9</ele>
        <time>2019-08-15T09:26:46Z</time>
      </trkpt>
      <trkpt lat="41.7766230" lon="-5.3818490">
        <ele>740.0</ele>
        <time>2019-08-15T09:26:47Z</time>
      </trkpt>
      <trkpt lat="41.7766560" lon="-5.3818910">
        <ele>740.2</ele>
        <time>2019-08-15T09:26:48Z</time>
      </trkpt>
      <trkpt lat="41.7766900" lon="-5.3819340">
        <ele>740.3</ele>
        <time>2019-08-15T09:26:49Z</time>
      </trkpt>
      <trkpt lat="41.7767230" lon="-5.3819760">
        <ele>740.5</ele>
        <time>2019-08-15T09:26:50Z</time>
      </trkpt>
      <trkpt lat="41.7767560" lon="-5.3820190">
        <ele>740.6</ele>
        <time>2019-08-15T09:26:51Z</time>
      </trkpt>
      <trkpt lat="41.7767900" lon="-5.3820590">
        <ele>740.7</ele>
        <time>2019-08-15T09:26:52Z</time>
      </trkpt>
      <trkpt lat="41.7768250" lon="-5.3820980">
        <ele>740.8</ele>
        <time>2019-08-15T09:26:53Z</time>
      </trkpt>
      <trkpt lat="41.7768590" lon="-5.3821370">
        <ele>740.9</ele>
        <time>2019-08-15T09:26:54Z</time>
      </trkpt>
      <trkpt lat="41.7768940" lon="-5.3821770">
        <ele>740.9</ele>
        <time>2019-08-15T09:26:55Z</time>
      </trkpt>
      <trkpt lat="41.7769310" lon="-5.3822180">
        <ele>741.0</ele>
        <time>2019-08-15T09:26:56Z</time>
      </trkpt>
      <trkpt lat="41.7769670" lon="-5.3822610">
        <ele>741.0</ele>
        <time>2019-08-15T09:26:57Z</time>
      </trkpt>
      <trkpt lat="41.7770030" lon="-5.3823030">
        <ele>741.0</ele>
        <time>2019-08-15T09:26:58Z</time>
      </trkpt>
      <trkpt lat="41.7770390" lon="-5.3823450">
        <ele>740.9</ele>
        <time>2019-08-15T09:26:59Z</time>
      </trkpt>
      <trkpt lat="41.7770740" lon="-5.3823850">
        <ele>740.8</ele>
        <time>2019-08-15T09:27:00Z</time>
      </trkpt>
      <trkpt lat="41.7771060" lon="-5.3824240">
        <ele>740.8</ele>
        <time>2019-08-15T09:27:01Z</time>
      </trkpt>
      <trkpt lat="41.7771380" lon="-5.3824610">
        <ele>740.7</ele>
        <time>2019-08-15T09:27:02Z</time>
      </trkpt>
      <trkpt lat="41.7771680" lon="-5.3825010">
        <ele>740.6</ele>
        <time>2019-08-15T09:27:03Z</time>
      </trkpt>
      <trkpt lat="41.7771990" lon="-5.3825430">
        <ele>740.5</ele>
        <time>2019-08-15T09:27:04Z</time>
      </trkpt>
      <trkpt lat="41.7772290" lon="-5.3825830">
        <ele>740.4</ele>
        <time>2019-08-15T09:27:05Z</time>
      </trkpt>
      <trkpt lat="41.7772570" lon="-5.3826210">
        <ele>740.4</ele>
        <time>2019-08-15T09:27:06Z</time>
      </trkpt>
      <trkpt lat="41.7772840" lon="-5.3826580">
        <ele>740.3</ele>
        <time>2019-08-15T09:27:07Z</time>
      </trkpt>
      <trkpt lat="41.7773080" lon="-5.3826910">
        <ele>740.3</ele>
        <time>2019-08-15T09:27:08Z</time>
      </trkpt>
      <trkpt lat="41.7773310" lon="-5.3827230">
        <ele>740.3</ele>
        <time>2019-08-15T09:27:09Z</time>
      </trkpt>
      <trkpt lat="41.7773550" lon="-5.3827540">
        <ele>740.2</ele>
        <time>2019-08-15T09:27:10Z</time>
      </trkpt>
      <trkpt lat="41.7773810" lon="-5.3827880">
        <ele>740.2</ele>
        <time>2019-08-15T09:27:11Z</time>
      </trkpt>
      <trkpt lat="41.7774080" lon="-5.3828260">
        <ele>740.2</ele>
        <time>2019-08-15T09:27:12Z</time>
      </trkpt>
      <trkpt lat="41.7774360" lon="-5.3828650">
        <ele>740.3</ele>
        <time>2019-08-15T09:27:13Z</time>
      </trkpt>
      <trkpt lat="41.7774650" lon="-5.3829050">
        <ele>740.3</ele>
        <time>2019-08-15T09:27:14Z</time>
      </trkpt>
      <trkpt lat="41.7774950" lon="-5.3829450">
        <ele>740.4</ele>
        <time>2019-08-15T09:27:15Z</time>
      </trkpt>
      <trkpt lat="41.7775260" lon="-5.3829860">
        <ele>740.5</ele>
        <time>2019-08-15T09:27:16Z</time>
      </trkpt>
      <trkpt lat="41.7775580" lon="-5.3830280">
        <ele>740.6</ele>
        <time>2019-08-15T09:27:17Z</time>
      </trkpt>
      <trkpt lat="41.7775900" lon="-5.3830690">
        <ele>740.7</ele>
        <time>2019-08-15T09:27:18Z</time>
      </trkpt>
      <trkpt lat="41.7776230" lon="-5.3831100">
        <ele>740.9</ele>
        <time>2019-08-15T09:27:19Z</time>
      </trkpt>
      <trkpt lat="41.7776550" lon="-5.3831520">
        <ele>741.0</ele>
        <time>2019-08-15T09:27:20Z</time>
      </trkpt>
      <trkpt lat="41.7776870" lon="-5.3831940">
        <ele>741.1</ele>
        <time>2019-08-15T09:27:21Z</time>
      </trkpt>
      <trkpt lat="41.7777200" lon="-5.3832370">
        <ele>741.2</ele>
        <time>2019-08-15T09:27:22Z</time>
      </trkpt>
      <trkpt lat="41.7777540" lon="-5.3832790">
        <ele>741.3</ele>
        <time>2019-08-15T09:27:23Z</time>
      </trkpt>
      <trkpt lat="41.7777880" lon="-5.3833220">
        <ele>741.5</ele>
        <time>2019-08-15T09:27:24Z</time>
      </trkpt>
      <trkpt lat="41.7778220" lon="-5.3833660">
        <ele>741.6</ele>
        <time>2019-08-15T09:27:25Z</time>
      </trkpt>
      <trkpt lat="41.7778570" lon="-5.3834100">
        <ele>741.7</ele>
        <time>2019-08-15T09:27:26Z</time>
      </trkpt>
      <trkpt lat="41.7778910" lon="-5.3834530">
        <ele>741.8</ele>
        <time>2019-08-15T09:27:27Z</time>
      </trkpt>
      <trkpt lat="41.7779270" lon="-5.3834990">
        <ele>741.8</ele>
        <time>2019-08-15T09:27:28Z</time>
      </trkpt>
      <trkpt lat="41.7779620" lon="-5.3835430">
        <ele>741.9</ele>
        <time>2019-08-15T09:27:29Z</time>
      </trkpt>
      <trkpt lat="41.7779960" lon="-5.3835870">
        <ele>741.9</ele>
        <time>2019-08-15T09:27:30Z</time>
      </trkpt>
      <trkpt lat="41.7780310" lon="-5.3836330">
        <ele>742.0</ele>
        <time>2019-08-15T09:27:31Z</time>
      </trkpt>
      <trkpt lat="41.7780660" lon="-5.3836780">
        <ele>742.0</ele>
        <time>2019-08-15T09:27:32Z</time>
      </trkpt>
      <trkpt lat="41.7781000" lon="-5.3837230">
        <ele>742.1</ele>
        <time>2019-08-15T09:27:33Z</time>
      </trkpt>
      <trkpt lat="41.7781350" lon="-5.3837680">
        <ele>742.1</ele>
        <time>2019-08-15T09:27:34Z</time>
      </trkpt>
      <trkpt lat="41.7781710" lon="-5.3838130">
        <ele>742.1</ele>
        <time>2019-08-15T09:27:35Z</time>
      </trkpt>
      <trkpt lat="41.7782060" lon="-5.3838600">
        <ele>742.1</ele>
        <time>2019-08-15T09:27:36Z</time>
      </trkpt>
      <trkpt lat="41.7782400" lon="-5.3839060">
        <ele>742.2</ele>
        <time>2019-08-15T09:27:37Z</time>
      </trkpt>
      <trkpt lat="41.7782750" lon="-5.3839520">
        <ele>742.2</ele>
        <time>2019-08-15T09:27:38Z</time>
      </trkpt>
      <trkpt lat="41.7783110" lon="-5.3839980">
        <ele>742.2</ele>
        <time>2019-08-15T09:27:39Z</time>
      </trkpt>
      <trkpt lat="41.7783480" lon="-5.3840440">
        <ele>742.2</ele>
        <time>2019-08-15T09:27:40Z</time>
      </trkpt>
      <trkpt lat="41.7783830" lon="-5.3840890">
        <ele>742.1</ele>
        <time>2019-08-15T09:27:41Z</time>
      </trkpt>
      <trkpt lat="41.7784170" lon="-5.3841320">
        <ele>742.1</ele>
        <time>2019-08-15T09:27:42Z</time>
      </trkpt>
      <trkpt lat="41.7784500" lon="-5.3841760">
        <ele>742.0</ele>
        <time>2019-08-15T09:27:43Z</time>
      </trkpt>
      <trkpt lat="41.7784840" lon="-5.3842200">
        <ele>741.9</ele>
        <time>2019-08-15T09:27:44Z</time>
      </trkpt>
      <trkpt lat="41.7785200" lon="-5.3842640">
        <ele>741.8</ele>
        <time>2019-08-15T09:27:45Z</time>
      </trkpt>
      <trkpt lat="41.7785560" lon="-5.3843090">
        <ele>741.7</ele>
        <time>2019-08-15T09:27:46Z</time>
      </trkpt>
      <trkpt lat="41.7785930" lon="-5.3843550">
        <ele>741.6</ele>
        <time>2019-08-15T09:27:47Z</time>
      </trkpt>
      <trkpt lat="41.7786300" lon="-5.3844020">
        <ele>741.4</ele>
        <time>2019-08-15T09:27:48Z</time>
      </trkpt>
      <trkpt lat="41.7786670" lon="-5.3844490">
        <ele>741.2</ele>
        <time>2019-08-15T09:27:49Z</time>
      </trkpt>
      <trkpt lat="41.7787040" lon="-5.3844950">
        <ele>741.1</ele>
        <time>2019-08-15T09:27:50Z</time>
      </trkpt>
      <trkpt lat="41.7787410" lon="-5.3845410">
        <ele>740.9</ele>
        <time>2019-08-15T09:27:51Z</time>
      </trkpt>
      <trkpt lat="41.7787790" lon="-5.3845880">
        <ele>740.7</ele>
        <time>2019-08-15T09:27:52Z</time>
      </trkpt>
      <trkpt lat="41.7788160" lon="-5.3846360">
        <ele>740.6</ele>
        <time>2019-08-15T09:27:53Z</time>
      </trkpt>
      <trkpt lat="41.7788540" lon="-5.3846850">
        <ele>740.4</ele>
        <time>2019-08-15T09:27:54Z</time>
      </trkpt>
      <trkpt lat="41.7788920" lon="-5.3847320">
        <ele>740.2</ele>
        <time>2019-08-15T09:27:55Z</time>
      </trkpt>
      <trkpt lat="41.7789300" lon="-5.3847790">
        <ele>740.1</ele>
        <time>2019-08-15T09:27:56Z</time>
      </trkpt>
      <trkpt lat="41.7789690" lon="-5.3848260">
        <ele>740.1</ele>
        <time>2019-08-15T09:27:57Z</time>
      </trkpt>
      <trkpt lat="41.7790080" lon="-5.3848740">
        <ele>740.0</ele>
        <time>2019-08-15T09:27:58Z</time>
      </trkpt>
      <trkpt lat="41.7790470" lon="-5.3849210">
        <ele>739.9</ele>
        <time>2019-08-15T09:27:59Z</time>
      </trkpt>
      <trkpt lat="41.7790830" lon="-5.3849660">
        <ele>739.9</ele>
        <time>2019-08-15T09:28:00Z</time>
      </trkpt>
      <trkpt lat="41.7791180" lon="-5.3850100">
        <ele>739.8</ele>
        <time>2019-08-15T09:28:01Z</time>
      </trkpt>
      <trkpt lat="41.7791550" lon="-5.3850540">
        <ele>739.8</ele>
        <time>2019-08-15T09:28:02Z</time>
      </trkpt>
      <trkpt lat="41.7791910" lon="-5.3850970">
        <ele>739.8</ele>
        <time>2019-08-15T09:28:03Z</time>
      </trkpt>
      <trkpt lat="41.7792290" lon="-5.3851400">
        <ele>739.9</ele>
        <time>2019-08-15T09:28:04Z</time>
      </trkpt>
      <trkpt lat="41.7792660" lon="-5.3851830">
        <ele>739.9</ele>
        <time>2019-08-15T09:28:05Z</time>
      </trkpt>
      <trkpt lat="41.7793020" lon="-5.3852260">
        <ele>740.0</ele>
        <time>2019-08-15T09:28:06Z</time>
      </trkpt>
      <trkpt lat="41.7793380" lon="-5.3852690">
        <ele>740.0</ele>
        <time>2019-08-15T09:28:07Z</time>
      </trkpt>
      <trkpt lat="41.7793750" lon="-5.3853110">
        <ele>740.1</ele>
        <time>2019-08-15T09:28:08Z</time>
      </trkpt>
      <trkpt lat="41.7794130" lon="-5.3853520">
        <ele>740.2</ele>
        <time>2019-08-15T09:28:09Z</time>
      </trkpt>
      <trkpt lat="41.7794500" lon="-5.3853910">
        <ele>740.3</ele>
        <time>2019-08-15T09:28:10Z</time>
      </trkpt>
      <trkpt lat="41.7794860" lon="-5.3854300">
        <ele>740.4</ele>
        <time>2019-08-15T09:28:11Z</time>
      </trkpt>
      <trkpt lat="41.7795230" lon="-5.3854690">
        <ele>740.5</ele>
        <time>2019-08-15T09:28:12Z</time>
      </trkpt>
      <trkpt lat="41.7795600" lon="-5.3855080">
        <ele>740.6</ele>
        <time>2019-08-15T09:28:13Z</time>
      </trkpt>
      <trkpt lat="41.7795970" lon="-5.3855500">
        <ele>740.8</ele>
        <time>2019-08-15T09:28:14Z</time>
      </trkpt>
      <trkpt lat="41.7796340" lon="-5.3855930">
        <ele>740.9</ele>
        <time>2019-08-15T09:28:15Z</time>
      </trkpt>
      <trkpt lat="41.7796710" lon="-5.3856360">
        <ele>741.0</ele>
        <time>2019-08-15T09:28:16Z</time>
      </trkpt>
      <trkpt lat="41.7797060" lon="-5.3856790">
        <ele>741.0</ele>
        <time>2019-08-15T09:28:17Z</time>
      </trkpt>
      <trkpt lat="41.7797410" lon="-5.3857210">
        <ele>741.1</ele>
        <time>2019-08-15T09:28:18Z</time>
      </trkpt>
      <trkpt lat="41.7797750" lon="-5.3857650">
        <ele>741.2</ele>
        <time>2019-08-15T09:28:19Z</time>
      </trkpt>
      <trkpt lat="41.7798100" lon="-5.3858090">
        <ele>741.3</ele>
        <time>2019-08-15T09:28:20Z</time>
      </trkpt>
      <trkpt lat="41.7798460" lon="-5.3858520">
        <ele>741.3</ele>
        <time>2019-08-15T09:28:21Z</time>
      </trkpt>
      <trkpt lat="41.7798800" lon="-5.3858950">
        <ele>741.4</ele>
        <time>2019-08-15T09:28:22Z</time>
      </trkpt>
      <trkpt lat="41.7799130" lon="-5.3859360">
        <ele>741.5</ele>
        <time>2019-08-15T09:28:23Z</time>
      </trkpt>
      <trkpt lat="41.7799450" lon="-5.3859750">
        <ele>741.5</ele>
        <time>2019-08-15T09:28:24Z</time>
      </trkpt>
      <trkpt lat="41.7799770" lon="-5.3860160">
        <ele>741.6</ele>
        <time>2019-08-15T09:28:25Z</time>
      </trkpt>
      <trkpt lat="41.7800090" lon="-5.3860580">
        <ele>741.6</ele>
        <time>2019-08-15T09:28:26Z</time>
      </trkpt>
      <trkpt lat="41.7800420" lon="-5.3861000">
        <ele>741.6</ele>
        <time>2019-08-15T09:28:27Z</time>
      </trkpt>
      <trkpt lat="41.7800740" lon="-5.3861400">
        <ele>741.5</ele>
        <time>2019-08-15T09:28:28Z</time>
      </trkpt>
      <trkpt lat="41.7801070" lon="-5.3861810">
        <ele>741.5</ele>
        <time>2019-08-15T09:28:29Z</time>
      </trkpt>
      <trkpt lat="41.7801400" lon="-5.3862220">
        <ele>741.5</ele>
        <time>2019-08-15T09:28:30Z</time>
      </trkpt>
      <trkpt lat="41.7801710" lon="-5.3862640">
        <ele>741.5</ele>
        <time>2019-08-15T09:28:31Z</time>
      </trkpt>
      <trkpt lat="41.7802010" lon="-5.3863040">
        <ele>741.5</ele>
        <time>2019-08-15T09:28:32Z</time>
      </trkpt>
      <trkpt lat="41.7802310" lon="-5.3863430">
        <ele>741.5</ele>
        <time>2019-08-15T09:28:33Z</time>
      </trkpt>
      <trkpt lat="41.7802620" lon="-5.3863810">
        <ele>741.5</ele>
        <time>2019-08-15T09:28:34Z</time>
      </trkpt>
      <trkpt lat="41.7802940" lon="-5.3864210">
        <ele>741.5</ele>
        <time>2019-08-15T09:28:35Z</time>
      </trkpt>
      <trkpt lat="41.7803250" lon="-5.3864620">
        <ele>741.5</ele>
        <time>2019-08-15T09:28:36Z</time>
      </trkpt>
      <trkpt lat="41.7803540" lon="-5.3865050">
        <ele>741.5</ele>
        <time>2019-08-15T09:28:37Z</time>
      </trkpt>
      <trkpt lat="41.7803850" lon="-5.3865460">
        <ele>741.4</ele>
        <time>2019-08-15T09:28:38Z</time>
      </trkpt>
      <trkpt lat="41.7804160" lon="-5.3865890">
        <ele>741.5</ele>
        <time>2019-08-15T09:28:39Z</time>
      </trkpt>
      <trkpt lat="41.7804460" lon="-5.3866330">
        <ele>741.5</ele>
        <time>2019-08-15T09:28:40Z</time>
      </trkpt>
      <trkpt lat="41.7804770" lon="-5.3866780">
        <ele>741.5</ele>
        <time>2019-08-15T09:28:41Z</time>
      </trkpt>
      <trkpt lat="41.7805070" lon="-5.3867230">
        <ele>741.6</ele>
        <time>2019-08-15T09:28:42Z</time>
      </trkpt>
      <trkpt lat="41.7805370" lon="-5.3867690">
        <ele>741.6</ele>
        <time>2019-08-15T09:28:43Z</time>
      </trkpt>
      <trkpt lat="41.7805670" lon="-5.3868150">
        <ele>741.7</ele>
        <time>2019-08-15T09:28:44Z</time>
      </trkpt>
      <trkpt lat="41.7805970" lon="-5.3868630">
        <ele>741.8</ele>
        <time>2019-08-15T09:28:45Z</time>
      </trkpt>
      <trkpt lat="41.7806270" lon="-5.3869100">
        <ele>741.9</ele>
        <time>2019-08-15T09:28:46Z</time>
      </trkpt>
      <trkpt lat="41.7806570" lon="-5.3869600">
        <ele>742.2</ele>
        <time>2019-08-15T09:28:47Z</time>
      </trkpt>
      <trkpt lat="41.7806870" lon="-5.3870100">
        <ele>742.4</ele>
        <time>2019-08-15T09:28:48Z</time>
      </trkpt>
      <trkpt lat="41.7807150" lon="-5.3870630">
        <ele>742.6</ele>
        <time>2019-08-15T09:28:49Z</time>
      </trkpt>
      <trkpt lat="41.7807420" lon="-5.3871180">
        <ele>742.8</ele>
        <time>2019-08-15T09:28:50Z</time>
      </trkpt>
      <trkpt lat="41.7807690" lon="-5.3871730">
        <ele>743.1</ele>
        <time>2019-08-15T09:28:51Z</time>
      </trkpt>
      <trkpt lat="41.7807960" lon="-5.3872250">
        <ele>743.4</ele>
        <time>2019-08-15T09:28:52Z</time>
      </trkpt>
      <trkpt lat="41.7808250" lon="-5.3872750">
        <ele>743.7</ele>
        <time>2019-08-15T09:28:53Z</time>
      </trkpt>
      <trkpt lat="41.7808540" lon="-5.3873220">
        <ele>743.9</ele>
        <time>2019-08-15T09:28:54Z</time>
      </trkpt>
      <trkpt lat="41.7808860" lon="-5.3873670">
        <ele>744.2</ele>
        <time>2019-08-15T09:28:55Z</time>
      </trkpt>
      <trkpt lat="41.7809190" lon="-5.3874070">
        <ele>744.4</ele>
        <time>2019-08-15T09:28:56Z</time>
      </trkpt>
      <trkpt lat="41.7809540" lon="-5.3874460">
        <ele>744.7</ele>
        <time>2019-08-15T09:28:57Z</time>
      </trkpt>
      <trkpt lat="41.7809920" lon="-5.3874850">
        <ele>745.0</ele>
        <time>2019-08-15T09:28:58Z</time>
      </trkpt>
      <trkpt lat="41.7810310" lon="-5.3875210">
        <ele>745.2</ele>
        <time>2019-08-15T09:28:59Z</time>
      </trkpt>
      <trkpt lat="41.7810720" lon="-5.3875550">
        <ele>745.4</ele>
        <time>2019-08-15T09:29:00Z</time>
      </trkpt>
      <trkpt lat="41.7811110" lon="-5.3875900">
        <ele>745.6</ele>
        <time>2019-08-15T09:29:01Z</time>
      </trkpt>
      <trkpt lat="41.7811460" lon="-5.3876250">
        <ele>745.8</ele>
        <time>2019-08-15T09:29:02Z</time>
      </trkpt>
      <trkpt lat="41.7811790" lon="-5.3876580">
        <ele>745.9</ele>
        <time>2019-08-15T09:29:03Z</time>
      </trkpt>
      <trkpt lat="41.7812130" lon="-5.3876910">
        <ele>746.0</ele>
        <time>2019-08-15T09:29:04Z</time>
      </trkpt>
      <trkpt lat="41.7812480" lon="-5.3877240">
        <ele>746.1</ele>
        <time>2019-08-15T09:29:05Z</time>
      </trkpt>
      <trkpt lat="41.7812850" lon="-5.3877550">
        <ele>746.2</ele>
        <time>2019-08-15T09:29:06Z</time>
      </trkpt>
      <trkpt lat="41.7813230" lon="-5.3877880">
        <ele>746.2</ele>
        <time>2019-08-15T09:29:07Z</time>
      </trkpt>
      <trkpt lat="41.7813600" lon="-5.3878210">
        <ele>746.3</ele>
        <time>2019-08-15T09:29:08Z</time>
      </trkpt>
      <trkpt lat="41.7813980" lon="-5.3878540">
        <ele>746.3</ele>
        <time>2019-08-15T09:29:09Z</time>
      </trkpt>
      <trkpt lat="41.7814340" lon="-5.3878890">
        <ele>746.3</ele>
        <time>2019-08-15T09:29:10Z</time>
      </trkpt>
      <trkpt lat="41.7814720" lon="-5.3879230">
        <ele>746.2</ele>
        <time>2019-08-15T09:29:11Z</time>
      </trkpt>
      <trkpt lat="41.7815110" lon="-5.3879530">
        <ele>746.2</ele>
        <time>2019-08-15T09:29:12Z</time>
      </trkpt>
      <trkpt lat="41.7815480" lon="-5.3879830">
        <ele>746.1</ele>
        <time>2019-08-15T09:29:13Z</time>
      </trkpt>
      <trkpt lat="41.7815860" lon="-5.3880130">
        <ele>746.0</ele>
        <time>2019-08-15T09:29:14Z</time>
      </trkpt>
      <trkpt lat="41.7816240" lon="-5.3880420">
        <ele>745.9</ele>
        <time>2019-08-15T09:29:15Z</time>
      </trkpt>
      <trkpt lat="41.7816640" lon="-5.3880730">
        <ele>745.8</ele>
        <time>2019-08-15T09:29:16Z</time>
      </trkpt>
      <trkpt lat="41.7817030" lon="-5.3881070">
        <ele>745.7</ele>
        <time>2019-08-15T09:29:17Z</time>
      </trkpt>
      <trkpt lat="41.7817400" lon="-5.3881440">
        <ele>745.6</ele>
        <time>2019-08-15T09:29:18Z</time>
      </trkpt>
      <trkpt lat="41.7817760" lon="-5.3881830">
        <ele>745.4</ele>
        <time>2019-08-15T09:29:19Z</time>
      </trkpt>
      <trkpt lat="41.7818140" lon="-5.3882220">
        <ele>745.3</ele>
        <time>2019-08-15T09:29:20Z</time>
      </trkpt>
      <trkpt lat="41.7818510" lon="-5.3882640">
        <ele>745.2</ele>
        <time>2019-08-15T09:29:21Z</time>
      </trkpt>
      <trkpt lat="41.7818850" lon="-5.3883110">
        <ele>745.0</ele>
        <time>2019-08-15T09:29:22Z</time>
      </trkpt>
      <trkpt lat="41.7819160" lon="-5.3883570">
        <ele>744.9</ele>
        <time>2019-08-15T09:29:23Z</time>
      </trkpt>
      <trkpt lat="41.7819480" lon="-5.3884000">
        <ele>744.8</ele>
        <time>2019-08-15T09:29:24Z</time>
      </trkpt>
      <trkpt lat="41.7819800" lon="-5.3884400">
        <ele>744.7</ele>
        <time>2019-08-15T09:29:25Z</time>
      </trkpt>
      <trkpt lat="41.7820100" lon="-5.3884840">
        <ele>744.7</ele>
        <time>2019-08-15T09:29:26Z</time>
      </trkpt>
      <trkpt lat="41.7820420" lon="-5.3885300">
        <ele>744.6</ele>
        <time>2019-08-15T09:29:27Z</time>
      </trkpt>
      <trkpt lat="41.7820730" lon="-5.3885760">
        <ele>744.5</ele>
        <time>2019-08-15T09:29:28Z</time>
      </trkpt>
      <trkpt lat="41.7821030" lon="-5.3886190">
        <ele>744.4</ele>
        <time>2019-08-15T09:29:29Z</time>
      </trkpt>
      <trkpt lat="41.7821320" lon="-5.3886590">
        <ele>744.4</ele>
        <time>2019-08-15T09:29:30Z</time>
      </trkpt>
      <trkpt lat="41.7821590" lon="-5.3886970">
        <ele>744.4</ele>
        <time>2019-08-15T09:29:31Z</time>
      </trkpt>
      <trkpt lat="41.7821840" lon="-5.3887330">
        <ele>744.3</ele>
        <time>2019-08-15T09:29:32Z</time>
      </trkpt>
      <trkpt lat="41.7822100" lon="-5.3887690">
        <ele>744.3</ele>
        <time>2019-08-15T09:29:33Z</time>
      </trkpt>
      <trkpt lat="41.7822380" lon="-5.3888070">
        <ele>744.2</ele>
        <time>2019-08-15T09:29:34Z</time>
      </trkpt>
      <trkpt lat="41.7822670" lon="-5.3888450">
        <ele>744.2</ele>
        <time>2019-08-15T09:29:35Z</time>
      </trkpt>
      <trkpt lat="41.7822980" lon="-5.3888860">
        <ele>744.1</ele>
        <time>2019-08-15T09:29:36Z</time>
      </trkpt>
      <trkpt lat="41.7823270" lon="-5.3889290">
        <ele>744.1</ele>
        <time>2019-08-15T09:29:37Z</time>
      </trkpt>
      <trkpt lat="41.7823580" lon="-5.3889710">
        <ele>744.0</ele>
        <time>2019-08-15T09:29:38Z</time>
      </trkpt>
      <trkpt lat="41.7823890" lon="-5.3890110">
        <ele>743.9</ele>
        <time>2019-08-15T09:29:39Z</time>
      </trkpt>
      <trkpt lat="41.7824210" lon="-5.3890540">
        <ele>743.9</ele>
        <time>2019-08-15T09:29:40Z</time>
      </trkpt>
      <trkpt lat="41.7824540" lon="-5.3890970">
        <ele>743.8</ele>
        <time>2019-08-15T09:29:41Z</time>
      </trkpt>
      <trkpt lat="41.7824860" lon="-5.3891410">
        <ele>743.7</ele>
        <time>2019-08-15T09:29:42Z</time>
      </trkpt>
      <trkpt lat="41.7825180" lon="-5.3891840">
        <ele>743.7</ele>
        <time>2019-08-15T09:29:43Z</time>
      </trkpt>
      <trkpt lat="41.7825510" lon="-5.3892270">
        <ele>743.6</ele>
        <time>2019-08-15T09:29:44Z</time>
      </trkpt>
      <trkpt lat="41.7825850" lon="-5.3892700">
        <ele>743.6</ele>
        <time>2019-08-15T09:29:45Z</time>
      </trkpt>
      <trkpt lat="41.7826190" lon="-5.3893130">
        <ele>743.6</ele>
        <time>2019-08-15T09:29:46Z</time>
      </trkpt>
      <trkpt lat="41.7826500" lon="-5.3893560">
        <ele>743.7</ele>
        <time>2019-08-15T09:29:47Z</time>
      </trkpt>
      <trkpt lat="41.7826800" lon="-5.3893970">
        <ele>743.7</ele>
        <time>2019-08-15T09:29:48Z</time>
      </trkpt>
      <trkpt lat="41.7827080" lon="-5.3894340">
        <ele>743.8</ele>
        <time>2019-08-15T09:29:49Z</time>
      </trkpt>
      <trkpt lat="41.7827350" lon="-5.3894710">
        <ele>743.9</ele>
        <time>2019-08-15T09:29:50Z</time>
      </trkpt>
      <trkpt lat="41.7827610" lon="-5.3895040">
        <ele>743.9</ele>
        <time>2019-08-15T09:29:51Z</time>
      </trkpt>
      <trkpt lat="41.7827840" lon="-5.3895370">
        <ele>744.0</ele>
        <time>2019-08-15T09:29:52Z</time>
      </trkpt>
      <trkpt lat="41.7828050" lon="-5.3895690">
        <ele>744.0</ele>
        <time>2019-08-15T09:29:53Z</time>
      </trkpt>
      <trkpt lat="41.7828270" lon="-5.3896020">
        <ele>744.1</ele>
        <time>2019-08-15T09:29:54Z</time>
      </trkpt>
      <trkpt lat="41.7828530" lon="-5.3896370">
        <ele>744.1</ele>
        <time>2019-08-15T09:29:55Z</time>
      </trkpt>
      <trkpt lat="41.7828800" lon="-5.3896740">
        <ele>744.2</ele>
        <time>2019-08-15T09:29:56Z</time>
      </trkpt>
      <trkpt lat="41.7829090" lon="-5.3897140">
        <ele>744.3</ele>
        <time>2019-08-15T09:29:57Z</time>
      </trkpt>
      <trkpt lat="41.7829370" lon="-5.3897550">
        <ele>744.3</ele>
        <time>2019-08-15T09:29:58Z</time>
      </trkpt>
      <trkpt lat="41.7829670" lon="-5.3897950">
        <ele>744.4</ele>
        <time>2019-08-15T09:29:59Z</time>
      </trkpt>
      <trkpt lat="41.7829950" lon="-5.3898350">
        <ele>744.4</ele>
        <time>2019-08-15T09:30:00Z</time>
      </trkpt>
      <trkpt lat="41.7830230" lon="-5.3898740">
        <ele>744.5</ele>
        <time>2019-08-15T09:30:01Z</time>
      </trkpt>
      <trkpt lat="41.7830530" lon="-5.3899140">
        <ele>744.6</ele>
        <time>2019-08-15T09:30:02Z</time>
      </trkpt>
      <trkpt lat="41.7830840" lon="-5.3899540">
        <ele>744.6</ele>
        <time>2019-08-15T09:30:03Z</time>
      </trkpt>
      <trkpt lat="41.7831140" lon="-5.3899950">
        <ele>744.7</ele>
        <time>2019-08-15T09:30:04Z</time>
      </trkpt>
      <trkpt lat="41.7831450" lon="-5.3900360">
        <ele>744.8</ele>
        <time>2019-08-15T09:30:05Z</time>
      </trkpt>
      <trkpt lat="41.7831760" lon="-5.3900790">
        <ele>745.0</ele>
        <time>2019-08-15T09:30:06Z</time>
      </trkpt>
      <trkpt lat="41.7832050" lon="-5.3901210">
        <ele>745.1</ele>
        <time>2019-08-15T09:30:07Z</time>
      </trkpt>
      <trkpt lat="41.7832350" lon="-5.3901620">
        <ele>745.2</ele>
        <time>2019-08-15T09:30:08Z</time>
      </trkpt>
      <trkpt lat="41.7832640" lon="-5.3902020">
        <ele>745.4</ele>
        <time>2019-08-15T09:30:09Z</time>
      </trkpt>
      <trkpt lat="41.7832910" lon="-5.3902400">
        <ele>745.5</ele>
        <time>2019-08-15T09:30:10Z</time>
      </trkpt>
      <trkpt lat="41.7833180" lon="-5.3902780">
        <ele>745.7</ele>
        <time>2019-08-15T09:30:11Z</time>
      </trkpt>
      <trkpt lat="41.7833450" lon="-5.3903160">
        <ele>745.9</ele>
        <time>2019-08-15T09:30:12Z</time>
      </trkpt>
      <trkpt lat="41.7833730" lon="-5.3903560">
        <ele>746.1</ele>
        <time>2019-08-15T09:30:13Z</time>
      </trkpt>
      <trkpt lat="41.7834010" lon="-5.3903980">
        <ele>746.3</ele>
        <time>2019-08-15T09:30:14Z</time>
      </trkpt>
      <trkpt lat="41.7834290" lon="-5.3904390">
        <ele>746.5</ele>
        <time>2019-08-15T09:30:15Z</time>
      </trkpt>
      <trkpt lat="41.7834570" lon="-5.3904810">
        <ele>746.7</ele>
        <time>2019-08-15T09:30:16Z</time>
      </trkpt>
      <trkpt lat="41.7834850" lon="-5.3905230">
        <ele>747.0</ele>
        <time>2019-08-15T09:30:17Z</time>
      </trkpt>
      <trkpt lat="41.7835130" lon="-5.3905660">
        <ele>747.2</ele>
        <time>2019-08-15T09:30:18Z</time>
      </trkpt>
      <trkpt lat="41.7835410" lon="-5.3906130">
        <ele>747.6</ele>
        <time>2019-08-15T09:30:19Z</time>
      </trkpt>
      <trkpt lat="41.7835690" lon="-5.3906590">
        <ele>747.8</ele>
        <time>2019-08-15T09:30:20Z</time>
      </trkpt>
      <trkpt lat="41.7835970" lon="-5.3907060">
        <ele>748.0</ele>
        <time>2019-08-15T09:30:21Z</time>
      </trkpt>
      <trkpt lat="41.7836260" lon="-5.3907530">
        <ele>748.3</ele>
        <time>2019-08-15T09:30:22Z</time>
      </trkpt>
      <trkpt lat="41.7836540" lon="-5.3908010">
        <ele>748.6</ele>
        <time>2019-08-15T09:30:23Z</time>
      </trkpt>
      <trkpt lat="41.7836810" lon="-5.3908450">
        <ele>748.6</ele>
        <time>2019-08-15T09:30:24Z</time>
      </trkpt>
      <trkpt lat="41.7837060" lon="-5.3908870">
        <ele>748.6</ele>
        <time>2019-08-15T09:30:25Z</time>
      </trkpt>
      <trkpt lat="41.7837310" lon="-5.3909290">
        <ele>748.6</ele>
        <time>2019-08-15T09:30:26Z</time>
      </trkpt>
      <trkpt lat="41.7837550" lon="-5.3909720">
        <ele>748.6</ele>
        <time>2019-08-15T09:30:27Z</time>
      </trkpt>
      <trkpt lat="41.7837810" lon="-5.3910180">
        <ele>748.6</ele>
        <time>2019-08-15T09:30:28Z</time>
      </trkpt>
      <trkpt lat="41.7838060" lon="-5.3910670">
        <ele>748.6</ele>
        <time>2019-08-15T09:30:29Z</time>
      </trkpt>
      <trkpt lat="41.7838310" lon="-5.3911150">
        <ele>748.5</ele>
        <time>2019-08-15T09:30:30Z</time>
      </trkpt>
      <trkpt lat="41.7838570" lon="-5.3911630">
        <ele>748.4</ele>
        <time>2019-08-15T09:30:31Z</time>
      </trkpt>
      <trkpt lat="41.7838820" lon="-5.3912120">
        <ele>748.2</ele>
        <time>2019-08-15T09:30:32Z</time>
      </trkpt>
      <trkpt lat="41.7839050" lon="-5.3912600">
        <ele>748.2</ele>
        <time>2019-08-15T09:30:33Z</time>
      </trkpt>
      <trkpt lat="41.7839290" lon="-5.3913040">
        <ele>748.1</ele>
        <time>2019-08-15T09:30:34Z</time>
      </trkpt>
      <trkpt lat="41.7839540" lon="-5.3913480">
        <ele>748.1</ele>
        <time>2019-08-15T09:30:35Z</time>
      </trkpt>
      <trkpt lat="41.7839790" lon="-5.3913950">
        <ele>748.0</ele>
        <time>2019-08-15T09:30:36Z</time>
      </trkpt>
      <trkpt lat="41.7840040" lon="-5.3914440">
        <ele>748.0</ele>
        <time>2019-08-15T09:30:37Z</time>
      </trkpt>
      <trkpt lat="41.7840290" lon="-5.3914930">
        <ele>747.9</ele>
        <time>2019-08-15T09:30:38Z</time>
      </trkpt>
      <trkpt lat="41.7840560" lon="-5.3915390">
        <ele>747.9</ele>
        <time>2019-08-15T09:30:39Z</time>
      </trkpt>
      <trkpt lat="41.7840850" lon="-5.3915860">
        <ele>747.9</ele>
        <time>2019-08-15T09:30:40Z</time>
      </trkpt>
      <trkpt lat="41.7841140" lon="-5.3916320">
        <ele>747.9</ele>
        <time>2019-08-15T09:30:41Z</time>
      </trkpt>
      <trkpt lat="41.7841410" lon="-5.3916800">
        <ele>747.9</ele>
        <time>2019-08-15T09:30:42Z</time>
      </trkpt>
      <trkpt lat="41.7841700" lon="-5.3917270">
        <ele>747.8</ele>
        <time>2019-08-15T09:30:43Z</time>
      </trkpt>
      <trkpt lat="41.7841990" lon="-5.3917740">
        <ele>747.8</ele>
        <time>2019-08-15T09:30:44Z</time>
      </trkpt>
      <trkpt lat="41.7842300" lon="-5.3918200">
        <ele>747.8</ele>
        <time>2019-08-15T09:30:45Z</time>
      </trkpt>
      <trkpt lat="41.7842570" lon="-5.3918660">
        <ele>747.8</ele>
        <time>2019-08-15T09:30:46Z</time>
      </trkpt>
      <trkpt lat="41.7842840" lon="-5.3919120">
        <ele>747.8</ele>
        <time>2019-08-15T09:30:47Z</time>
      </trkpt>
      <trkpt lat="41.7843110" lon="-5.3919570">
        <ele>747.8</ele>
        <time>2019-08-15T09:30:48Z</time>
      </trkpt>
      <trkpt lat="41.7843380" lon="-5.3920020">
        <ele>747.8</ele>
        <time>2019-08-15T09:30:49Z</time>
      </trkpt>
      <trkpt lat="41.7843660" lon="-5.3920480">
        <ele>747.7</ele>
        <time>2019-08-15T09:30:50Z</time>
      </trkpt>
      <trkpt lat="41.7843970" lon="-5.3920930">
        <ele>747.7</ele>
        <time>2019-08-15T09:30:51Z</time>
      </trkpt>
      <trkpt lat="41.7844290" lon="-5.3921370">
        <ele>747.7</ele>
        <time>2019-08-15T09:30:52Z</time>
      </trkpt>
      <trkpt lat="41.7844610" lon="-5.3921840">
        <ele>747.7</ele>
        <time>2019-08-15T09:30:53Z</time>
      </trkpt>
      <trkpt lat="41.7844930" lon="-5.3922300">
        <ele>747.6</ele>
        <time>2019-08-15T09:30:54Z</time>
      </trkpt>
      <trkpt lat="41.7845250" lon="-5.3922760">
        <ele>747.6</ele>
        <time>2019-08-15T09:30:55Z</time>
      </trkpt>
      <trkpt lat="41.7845560" lon="-5.3923170">
        <ele>747.5</ele>
        <time>2019-08-15T09:30:56Z</time>
      </trkpt>
      <trkpt lat="41.7845840" lon="-5.3923590">
        <ele>747.5</ele>
        <time>2019-08-15T09:30:57Z</time>
      </trkpt>
      <trkpt lat="41.7846140" lon="-5.3924000">
        <ele>747.5</ele>
        <time>2019-08-15T09:30:58Z</time>
      </trkpt>
      <trkpt lat="41.7846440" lon="-5.3924400">
        <ele>747.4</ele>
        <time>2019-08-15T09:30:59Z</time>
      </trkpt>
      <trkpt lat="41.7846760" lon="-5.3924810">
        <ele>747.4</ele>
        <time>2019-08-15T09:31:00Z</time>
      </trkpt>
      <trkpt lat="41.7847080" lon="-5.3925180">
        <ele>747.4</ele>
        <time>2019-08-15T09:31:01Z</time>
      </trkpt>
      <trkpt lat="41.7847400" lon="-5.3925570">
        <ele>747.5</ele>
        <time>2019-08-15T09:31:02Z</time>
      </trkpt>
      <trkpt lat="41.7847730" lon="-5.3925960">
        <ele>747.5</ele>
        <time>2019-08-15T09:31:03Z</time>
      </trkpt>
      <trkpt lat="41.7848050" lon="-5.3926390">
        <ele>747.5</ele>
        <time>2019-08-15T09:31:04Z</time>
      </trkpt>
      <trkpt lat="41.7848370" lon="-5.3926830">
        <ele>747.5</ele>
        <time>2019-08-15T09:31:05Z</time>
      </trkpt>
      <trkpt lat="41.7848680" lon="-5.3927280">
        <ele>747.6</ele>
        <time>2019-08-15T09:31:06Z</time>
      </trkpt>
      <trkpt lat="41.7849000" lon="-5.3927720">
        <ele>747.5</ele>
        <time>2019-08-15T09:31:07Z</time>
      </trkpt>
      <trkpt lat="41.7849330" lon="-5.3928140">
        <ele>747.5</ele>
        <time>2019-08-15T09:31:08Z</time>
      </trkpt>
      <trkpt lat="41.7849670" lon="-5.3928550">
        <ele>747.5</ele>
        <time>2019-08-15T09:31:09Z</time>
      </trkpt>
      <trkpt lat="41.7850020" lon="-5.3928950">
        <ele>747.4</ele>
        <time>2019-08-15T09:31:10Z</time>
      </trkpt>
      <trkpt lat="41.7850370" lon="-5.3929340">
        <ele>747.4</ele>
        <time>2019-08-15T09:31:11Z</time>
      </trkpt>
      <trkpt lat="41.7850710" lon="-5.3929730">
        <ele>747.3</ele>
        <time>2019-08-15T09:31:12Z</time>
      </trkpt>
      <trkpt lat="41.7851060" lon="-5.3930140">
        <ele>747.2</ele>
        <time>2019-08-15T09:31:13Z</time>
      </trkpt>
      <trkpt lat="41.7851410" lon="-5.3930560">
        <ele>747.0</ele>
        <time>2019-08-15T09:31:14Z</time>
      </trkpt>
      <trkpt lat="41.7851770" lon="-5.3930980">
        <ele>746.9</ele>
        <time>2019-08-15T09:31:15Z</time>
      </trkpt>
      <trkpt lat="41.7852110" lon="-5.3931410">
        <ele>746.8</ele>
        <time>2019-08-15T09:31:16Z</time>
      </trkpt>
      <trkpt lat="41.7852460" lon="-5.3931820">
        <ele>746.7</ele>
        <time>2019-08-15T09:31:17Z</time>
      </trkpt>
      <trkpt lat="41.7852800" lon="-5.3932210">
        <ele>746.6</ele>
        <time>2019-08-15T09:31:18Z</time>
      </trkpt>
      <trkpt lat="41.7853150" lon="-5.3932550">
        <ele>746.4</ele>
        <time>2019-08-15T09:31:19Z</time>
      </trkpt>
      <trkpt lat="41.7853470" lon="-5.3932890">
        <ele>746.3</ele>
        <time>2019-08-15T09:31:20Z</time>
      </trkpt>
      <trkpt lat="41.7853760" lon="-5.3933270">
        <ele>746.1</ele>
        <time>2019-08-15T09:31:21Z</time>
      </trkpt>
      <trkpt lat="41.7854080" lon="-5.3933640">
        <ele>746.1</ele>
        <time>2019-08-15T09:31:22Z</time>
      </trkpt>
      <trkpt lat="41.7854420" lon="-5.3933990">
        <ele>746.1</ele>
        <time>2019-08-15T09:31:23Z</time>
      </trkpt>
      <trkpt lat="41.7854780" lon="-5.3934310">
        <ele>746.0</ele>
        <time>2019-08-15T09:31:24Z</time>
      </trkpt>
      <trkpt lat="41.7855140" lon="-5.3934650">
        <ele>745.9</ele>
        <time>2019-08-15T09:31:25Z</time>
      </trkpt>
      <trkpt lat="41.7855490" lon="-5.3934990">
        <ele>745.9</ele>
        <time>2019-08-15T09:31:26Z</time>
      </trkpt>
      <trkpt lat="41.7855840" lon="-5.3935330">
        <ele>745.8</ele>
        <time>2019-08-15T09:31:27Z</time>
      </trkpt>
      <trkpt lat="41.7856190" lon="-5.3935670">
        <ele>745.8</ele>
        <time>2019-08-15T09:31:28Z</time>
      </trkpt>
      <trkpt lat="41.7856540" lon="-5.3936020">
        <ele>745.9</ele>
        <time>2019-08-15T09:31:29Z</time>
      </trkpt>
      <trkpt lat="41.7856890" lon="-5.3936380">
        <ele>745.9</ele>
        <time>2019-08-15T09:31:30Z</time>
      </trkpt>
      <trkpt lat="41.7857240" lon="-5.3936720">
        <ele>745.9</ele>
        <time>2019-08-15T09:31:31Z</time>
      </trkpt>
      <trkpt lat="41.7857590" lon="-5.3937080">
        <ele>745.9</ele>
        <time>2019-08-15T09:31:32Z</time>
      </trkpt>
      <trkpt lat="41.7857940" lon="-5.3937440">
        <ele>746.0</ele>
        <time>2019-08-15T09:31:33Z</time>
      </trkpt>
      <trkpt lat="41.7858290" lon="-5.3937810">
        <ele>746.1</ele>
        <time>2019-08-15T09:31:34Z</time>
      </trkpt>
      <trkpt lat="41.7858640" lon="-5.3938170">
        <ele>746.2</ele>
        <time>2019-08-15T09:31:35Z</time>
      </trkpt>
      <trkpt lat="41.7858990" lon="-5.3938530">
        <ele>746.4</ele>
        <time>2019-08-15T09:31:36Z</time>
      </trkpt>
      <trkpt lat="41.7859350" lon="-5.3938890">
        <ele>746.5</ele>
        <time>2019-08-15T09:31:37Z</time>
      </trkpt>
      <trkpt lat="41.7859710" lon="-5.3939250">
        <ele>746.7</ele>
        <time>2019-08-15T09:31:38Z</time>
      </trkpt>
      <trkpt lat="41.7860050" lon="-5.3939600">
        <ele>746.8</ele>
        <time>2019-08-15T09:31:39Z</time>
      </trkpt>
      <trkpt lat="41.7860370" lon="-5.3939920">
        <ele>746.9</ele>
        <time>2019-08-15T09:31:40Z</time>
      </trkpt>
      <trkpt lat="41.7860690" lon="-5.3940220">
        <ele>746.9</ele>
        <time>2019-08-15T09:31:41Z</time>
      </trkpt>
      <trkpt lat="41.7861010" lon="-5.3940540">
        <ele>747.0</ele>
        <time>2019-08-15T09:31:42Z</time>
      </trkpt>
      <trkpt lat="41.7861360" lon="-5.3940870">
        <ele>747.1</ele>
        <time>2019-08-15T09:31:43Z</time>
      </trkpt>
      <trkpt lat="41.7861710" lon="-5.3941170">
        <ele>747.2</ele>
        <time>2019-08-15T09:31:44Z</time>
      </trkpt>
      <trkpt lat="41.7862060" lon="-5.3941480">
        <ele>747.3</ele>
        <time>2019-08-15T09:31:45Z</time>
      </trkpt>
      <trkpt lat="41.7862410" lon="-5.3941770">
        <ele>747.4</ele>
        <time>2019-08-15T09:31:46Z</time>
      </trkpt>
      <trkpt lat="41.7862790" lon="-5.3942030">
        <ele>747.4</ele>
        <time>2019-08-15T09:31:47Z</time>
      </trkpt>
      <trkpt lat="41.7863180" lon="-5.3942290">
        <ele>747.3</ele>
        <time>2019-08-15T09:31:48Z</time>
      </trkpt>
      <trkpt lat="41.7863560" lon="-5.3942570">
        <ele>747.5</ele>
        <time>2019-08-15T09:31:49Z</time>
      </trkpt>
      <trkpt lat="41.7863950" lon="-5.3942880">
        <ele>747.7</ele>
        <time>2019-08-15T09:31:50Z</time>
      </trkpt>
      <trkpt lat="41.7864340" lon="-5.3943210">
        <ele>747.8</ele>
        <time>2019-08-15T09:31:51Z</time>
      </trkpt>
      <trkpt lat="41.7864730" lon="-5.3943540">
        <ele>747.9</ele>
        <time>2019-08-15T09:31:52Z</time>
      </trkpt>
      <trkpt lat="41.7865100" lon="-5.3943850">
        <ele>748.1</ele>
        <time>2019-08-15T09:31:53Z</time>
      </trkpt>
      <trkpt lat="41.7865450" lon="-5.3944160">
        <ele>748.2</ele>
        <time>2019-08-15T09:31:54Z</time>
      </trkpt>
      <trkpt lat="41.7865790" lon="-5.3944460">
        <ele>748.4</ele>
        <time>2019-08-15T09:31:55Z</time>
      </trkpt>
      <trkpt lat="41.7866120" lon="-5.3944750">
        <ele>748.5</ele>
        <time>2019-08-15T09:31:56Z</time>
      </trkpt>
      <trkpt lat="41.7866450" lon="-5.3945050">
        <ele>748.6</ele>
        <time>2019-08-15T09:31:57Z</time>
      </trkpt>
      <trkpt lat="41.7866790" lon="-5.3945340">
        <ele>748.6</ele>
        <time>2019-08-15T09:31:58Z</time>
      </trkpt>
      <trkpt lat="41.7867160" lon="-5.3945650">
        <ele>748.6</ele>
        <time>2019-08-15T09:31:59Z</time>
      </trkpt>
      <trkpt lat="41.7867520" lon="-5.3945990">
        <ele>748.6</ele>
        <time>2019-08-15T09:32:00Z</time>
      </trkpt>
      <trkpt lat="41.7867890" lon="-5.3946340">
        <ele>748.6</ele>
        <time>2019-08-15T09:32:01Z</time>
      </trkpt>
      <trkpt lat="41.7868240" lon="-5.3946700">
        <ele>748.5</ele>
        <time>2019-08-15T09:32:02Z</time>
      </trkpt>
      <trkpt lat="41.7868570" lon="-5.3947070">
        <ele>748.4</ele>
        <time>2019-08-15T09:32:03Z</time>
      </trkpt>
      <trkpt lat="41.7868870" lon="-5.3947420">
        <ele>748.4</ele>
        <time>2019-08-15T09:32:04Z</time>
      </trkpt>
      <trkpt lat="41.7869160" lon="-5.3947740">
        <ele>748.4</ele>
        <time>2019-08-15T09:32:05Z</time>
      </trkpt>
      <trkpt lat="41.7869440" lon="-5.3948030">
        <ele>748.5</ele>
        <time>2019-08-15T09:32:06Z</time>
      </trkpt>
      <trkpt lat="41.7869750" lon="-5.3948360">
        <ele>748.6</ele>
        <time>2019-08-15T09:32:07Z</time>
      </trkpt>
      <trkpt lat="41.7870040" lon="-5.3948730">
        <ele>748.6</ele>
        <time>2019-08-15T09:32:08Z</time>
      </trkpt>
      <trkpt lat="41.7870330" lon="-5.3949110">
        <ele>748.5</ele>
        <time>2019-08-15T09:32:09Z</time>
      </trkpt>
      <trkpt lat="41.7870640" lon="-5.3949470">
        <ele>748.5</ele>
        <time>2019-08-15T09:32:10Z</time>
      </trkpt>
      <trkpt lat="41.7870950" lon="-5.3949830">
        <ele>748.5</ele>
        <time>2019-08-15T09:32:11Z</time>
      </trkpt>
      <trkpt lat="41.7871270" lon="-5.3950200">
        <ele>748.5</ele>
        <time>2019-08-15T09:32:12Z</time>
      </trkpt>
      <trkpt lat="41.7871590" lon="-5.3950560">
        <ele>748.5</ele>
        <time>2019-08-15T09:32:13Z</time>
      </trkpt>
      <trkpt lat="41.7871910" lon="-5.3950930">
        <ele>748.6</ele>
        <time>2019-08-15T09:32:14Z</time>
      </trkpt>
      <trkpt lat="41.7872230" lon="-5.3951310">
        <ele>748.9</ele>
        <time>2019-08-15T09:32:15Z</time>
      </trkpt>
      <trkpt lat="41.7872550" lon="-5.3951700">
        <ele>749.2</ele>
        <time>2019-08-15T09:32:16Z</time>
      </trkpt>
      <trkpt lat="41.7872870" lon="-5.3952080">
        <ele>749.3</ele>
        <time>2019-08-15T09:32:17Z</time>
      </trkpt>
      <trkpt lat="41.7873200" lon="-5.3952460">
        <ele>749.5</ele>
        <time>2019-08-15T09:32:18Z</time>
      </trkpt>
      <trkpt lat="41.7873530" lon="-5.3952850">
        <ele>749.6</ele>
        <time>2019-08-15T09:32:19Z</time>
      </trkpt>
      <trkpt lat="41.7873850" lon="-5.3953230">
        <ele>749.8</ele>
        <time>2019-08-15T09:32:20Z</time>
      </trkpt>
      <trkpt lat="41.7874150" lon="-5.3953600">
        <ele>750.0</ele>
        <time>2019-08-15T09:32:21Z</time>
      </trkpt>
      <trkpt lat="41.7874460" lon="-5.3953980">
        <ele>750.2</ele>
        <time>2019-08-15T09:32:22Z</time>
      </trkpt>
      <trkpt lat="41.7874760" lon="-5.3954380">
        <ele>750.3</ele>
        <time>2019-08-15T09:32:23Z</time>
      </trkpt>
      <trkpt lat="41.7875070" lon="-5.3954790">
        <ele>750.5</ele>
        <time>2019-08-15T09:32:24Z</time>
      </trkpt>
      <trkpt lat="41.7875370" lon="-5.3955200">
        <ele>750.7</ele>
        <time>2019-08-15T09:32:25Z</time>
      </trkpt>
      <trkpt lat="41.7875690" lon="-5.3955620">
        <ele>750.9</ele>
        <time>2019-08-15T09:32:26Z</time>
      </trkpt>
      <trkpt lat="41.7876010" lon="-5.3956040">
        <ele>751.0</ele>
        <time>2019-08-15T09:32:27Z</time>
      </trkpt>
      <trkpt lat="41.7876320" lon="-5.3956430">
        <ele>751.2</ele>
        <time>2019-08-15T09:32:28Z</time>
      </trkpt>
      <trkpt lat="41.7876610" lon="-5.3956820">
        <ele>751.3</ele>
        <time>2019-08-15T09:32:29Z</time>
      </trkpt>
      <trkpt lat="41.7876910" lon="-5.3957210">
        <ele>751.5</ele>
        <time>2019-08-15T09:32:30Z</time>
      </trkpt>
      <trkpt lat="41.7877200" lon="-5.3957620">
        <ele>751.6</ele>
        <time>2019-08-15T09:32:31Z</time>
      </trkpt>
      <trkpt lat="41.7877480" lon="-5.3958060">
        <ele>751.7</ele>
        <time>2019-08-15T09:32:32Z</time>
      </trkpt>
      <trkpt lat="41.7877780" lon="-5.3958470">
        <ele>751.7</ele>
        <time>2019-08-15T09:32:33Z</time>
      </trkpt>
      <trkpt lat="41.7878090" lon="-5.3958860">
        <ele>751.9</ele>
        <time>2019-08-15T09:32:34Z</time>
      </trkpt>
      <trkpt lat="41.7878420" lon="-5.3959240">
        <ele>751.9</ele>
        <time>2019-08-15T09:32:35Z</time>
      </trkpt>
      <trkpt lat="41.7878750" lon="-5.3959600">
        <ele>752.0</ele>
        <time>2019-08-15T09:32:36Z</time>
      </trkpt>
      <trkpt lat="41.7879110" lon="-5.3959950">
        <ele>752.0</ele>
        <time>2019-08-15T09:32:37Z</time>
      </trkpt>
      <trkpt lat="41.7879480" lon="-5.3960290">
        <ele>752.1</ele>
        <time>2019-08-15T09:32:38Z</time>
      </trkpt>
      <trkpt lat="41.7879840" lon="-5.3960650">
        <ele>752.2</ele>
        <time>2019-08-15T09:32:39Z</time>
      </trkpt>
      <trkpt lat="41.7880210" lon="-5.3961020">
        <ele>752.3</ele>
        <time>2019-08-15T09:32:40Z</time>
      </trkpt>
      <trkpt lat="41.7880580" lon="-5.3961410">
        <ele>752.4</ele>
        <time>2019-08-15T09:32:41Z</time>
      </trkpt>
      <trkpt lat="41.7880950" lon="-5.3961790">
        <ele>752.5</ele>
        <time>2019-08-15T09:32:42Z</time>
      </trkpt>
      <trkpt lat="41.7881300" lon="-5.3962190">
        <ele>752.5</ele>
        <time>2019-08-15T09:32:43Z</time>
      </trkpt>
      <trkpt lat="41.7881630" lon="-5.3962600">
        <ele>752.6</ele>
        <time>2019-08-15T09:32:44Z</time>
      </trkpt>
      <trkpt lat="41.7881950" lon="-5.3963010">
        <ele>752.7</ele>
        <time>2019-08-15T09:32:45Z</time>
      </trkpt>
      <trkpt lat="41.7882250" lon="-5.3963380">
        <ele>752.8</ele>
        <time>2019-08-15T09:32:46Z</time>
      </trkpt>
      <trkpt lat="41.7882560" lon="-5.3963720">
        <ele>752.9</ele>
        <time>2019-08-15T09:32:47Z</time>
      </trkpt>
      <trkpt lat="41.7882840" lon="-5.3964060">
        <ele>753.0</ele>
        <time>2019-08-15T09:32:48Z</time>
      </trkpt>
      <trkpt lat="41.7883130" lon="-5.3964410">
        <ele>753.0</ele>
        <time>2019-08-15T09:32:49Z</time>
      </trkpt>
      <trkpt lat="41.7883420" lon="-5.3964790">
        <ele>753.1</ele>
        <time>2019-08-15T09:32:50Z</time>
      </trkpt>
      <trkpt lat="41.7883720" lon="-5.3965190">
        <ele>753.1</ele>
        <time>2019-08-15T09:32:51Z</time>
      </trkpt>
      <trkpt lat="41.7884060" lon="-5.3965570">
        <ele>753.2</ele>
        <time>2019-08-15T09:32:52Z</time>
      </trkpt>
      <trkpt lat="41.7884420" lon="-5.3965940">
        <ele>753.2</ele>
        <time>2019-08-15T09:32:53Z</time>
      </trkpt>
      <trkpt lat="41.7884780" lon="-5.3966320">
        <ele>753.2</ele>
        <time>2019-08-15T09:32:54Z</time>
      </trkpt>
      <trkpt lat="41.7885130" lon="-5.3966730">
        <ele>753.2</ele>
        <time>2019-08-15T09:32:55Z</time>
      </trkpt>
      <trkpt lat="41.7885470" lon="-5.3967160">
        <ele>753.2</ele>
        <time>2019-08-15T09:32:56Z</time>
      </trkpt>
      <trkpt lat="41.7885830" lon="-5.3967580">
        <ele>753.2</ele>
        <time>2019-08-15T09:32:57Z</time>
      </trkpt>
      <trkpt lat="41.7886180" lon="-5.3968000">
        <ele>753.1</ele>
        <time>2019-08-15T09:32:58Z</time>
      </trkpt>
      <trkpt lat="41.7886530" lon="-5.3968390">
        <ele>753.1</ele>
        <time>2019-08-15T09:32:59Z</time>
      </trkpt>
      <trkpt lat="41.7886870" lon="-5.3968740">
        <ele>753.0</ele>
        <time>2019-08-15T09:33:00Z</time>
      </trkpt>
      <trkpt lat="41.7887200" lon="-5.3969050">
        <ele>752.9</ele>
        <time>2019-08-15T09:33:01Z</time>
      </trkpt>
      <trkpt lat="41.7887510" lon="-5.3969360">
        <ele>752.9</ele>
        <time>2019-08-15T09:33:02Z</time>
      </trkpt>
      <trkpt lat="41.7887800" lon="-5.3969690">
        <ele>752.8</ele>
        <time>2019-08-15T09:33:03Z</time>
      </trkpt>
      <trkpt lat="41.7888110" lon="-5.3970030">
        <ele>752.7</ele>
        <time>2019-08-15T09:33:04Z</time>
      </trkpt>
      <trkpt lat="41.7888450" lon="-5.3970400">
        <ele>752.7</ele>
        <time>2019-08-15T09:33:05Z</time>
      </trkpt>
      <trkpt lat="41.7888810" lon="-5.3970750">
        <ele>752.6</ele>
        <time>2019-08-15T09:33:06Z</time>
      </trkpt>
      <trkpt lat="41.7889180" lon="-5.3971110">
        <ele>752.5</ele>
        <time>2019-08-15T09:33:07Z</time>
      </trkpt>
      <trkpt lat="41.7889540" lon="-5.3971480">
        <ele>752.5</ele>
        <time>2019-08-15T09:33:08Z</time>
      </trkpt>
      <trkpt lat="41.7889890" lon="-5.3971870">
        <ele>752.5</ele>
        <time>2019-08-15T09:33:09Z</time>
      </trkpt>
      <trkpt lat="41.7890230" lon="-5.3972250">
        <ele>752.5</ele>
        <time>2019-08-15T09:33:10Z</time>
      </trkpt>
      <trkpt lat="41.7890590" lon="-5.3972650">
        <ele>752.5</ele>
        <time>2019-08-15T09:33:11Z</time>
      </trkpt>
      <trkpt lat="41.7890960" lon="-5.3973050">
        <ele>752.5</ele>
        <time>2019-08-15T09:33:12Z</time>
      </trkpt>
      <trkpt lat="41.7891330" lon="-5.3973450">
        <ele>752.5</ele>
        <time>2019-08-15T09:33:13Z</time>
      </trkpt>
      <trkpt lat="41.7891710" lon="-5.3973840">
        <ele>752.5</ele>
        <time>2019-08-15T09:33:14Z</time>
      </trkpt>
      <trkpt lat="41.7892090" lon="-5.3974240">
        <ele>752.5</ele>
        <time>2019-08-15T09:33:15Z</time>
      </trkpt>
      <trkpt lat="41.7892460" lon="-5.3974650">
        <ele>752.6</ele>
        <time>2019-08-15T09:33:16Z</time>
      </trkpt>
      <trkpt lat="41.7892830" lon="-5.3975070">
        <ele>752.6</ele>
        <time>2019-08-15T09:33:17Z</time>
      </trkpt>
      <trkpt lat="41.7893210" lon="-5.3975470">
        <ele>752.6</ele>
        <time>2019-08-15T09:33:18Z</time>
      </trkpt>
      <trkpt lat="41.7893590" lon="-5.3975870">
        <ele>752.7</ele>
        <time>2019-08-15T09:33:19Z</time>
      </trkpt>
      <trkpt lat="41.7893980" lon="-5.3976290">
        <ele>752.6</ele>
        <time>2019-08-15T09:33:20Z</time>
      </trkpt>
      <trkpt lat="41.7894350" lon="-5.3976700">
        <ele>752.7</ele>
        <time>2019-08-15T09:33:21Z</time>
      </trkpt>
      <trkpt lat="41.7894730" lon="-5.3977130">
        <ele>752.7</ele>
        <time>2019-08-15T09:33:22Z</time>
      </trkpt>
      <trkpt lat="41.7895120" lon="-5.3977550">
        <ele>752.7</ele>
        <time>2019-08-15T09:33:23Z</time>
      </trkpt>
      <trkpt lat="41.7895510" lon="-5.3977950">
        <ele>752.7</ele>
        <time>2019-08-15T09:33:24Z</time>
      </trkpt>
      <trkpt lat="41.7895880" lon="-5.3978370">
        <ele>752.7</ele>
        <time>2019-08-15T09:33:25Z</time>
      </trkpt>
      <trkpt lat="41.7896260" lon="-5.3978750">
        <ele>752.7</ele>
        <time>2019-08-15T09:33:26Z</time>
      </trkpt>
      <trkpt lat="41.7896620" lon="-5.3979130">
        <ele>752.7</ele>
        <time>2019-08-15T09:33:27Z</time>
      </trkpt>
      <trkpt lat="41.7896990" lon="-5.3979520">
        <ele>752.7</ele>
        <time>2019-08-15T09:33:28Z</time>
      </trkpt>
      <trkpt lat="41.7897360" lon="-5.3979920">
        <ele>752.7</ele>
        <time>2019-08-15T09:33:29Z</time>
      </trkpt>
      <trkpt lat="41.7897750" lon="-5.3980320">
        <ele>752.7</ele>
        <time>2019-08-15T09:33:30Z</time>
      </trkpt>
      <trkpt lat="41.7898140" lon="-5.3980730">
        <ele>752.7</ele>
        <time>2019-08-15T09:33:31Z</time>
      </trkpt>
      <trkpt lat="41.7898540" lon="-5.3981140">
        <ele>752.7</ele>
        <time>2019-08-15T09:33:32Z</time>
      </trkpt>
      <trkpt lat="41.7898960" lon="-5.3981530">
        <ele>752.7</ele>
        <time>2019-08-15T09:33:33Z</time>
      </trkpt>
      <trkpt lat="41.7899380" lon="-5.3981930">
        <ele>752.6</ele>
        <time>2019-08-15T09:33:34Z</time>
      </trkpt>
      <trkpt lat="41.7899810" lon="-5.3982280">
        <ele>752.6</ele>
        <time>2019-08-15T09:33:35Z</time>
      </trkpt>
      <trkpt lat="41.7900260" lon="-5.3982610">
        <ele>752.5</ele>
        <time>2019-08-15T09:33:36Z</time>
      </trkpt>
      <trkpt lat="41.7900710" lon="-5.3982910">
        <ele>752.5</ele>
        <time>2019-08-15T09:33:37Z</time>
      </trkpt>
      <trkpt lat="41.7901160" lon="-5.3983190">
        <ele>752.4</ele>
        <time>2019-08-15T09:33:38Z</time>
      </trkpt>
      <trkpt lat="41.7901580" lon="-5.3983490">
        <ele>752.3</ele>
        <time>2019-08-15T09:33:39Z</time>
      </trkpt>
      <trkpt lat="41.7901970" lon="-5.3983800">
        <ele>752.3</ele>
        <time>2019-08-15T09:33:40Z</time>
      </trkpt>
      <trkpt lat="41.7902330" lon="-5.3984100">
        <ele>752.4</ele>
        <time>2019-08-15T09:33:41Z</time>
      </trkpt>
      <trkpt lat="41.7902710" lon="-5.3984430">
        <ele>752.5</ele>
        <time>2019-08-15T09:33:42Z</time>
      </trkpt>
      <trkpt lat="41.7903110" lon="-5.3984780">
        <ele>752.5</ele>
        <time>2019-08-15T09:33:43Z</time>
      </trkpt>
      <trkpt lat="41.7903540" lon="-5.3985120">
        <ele>752.6</ele>
        <time>2019-08-15T09:33:44Z</time>
      </trkpt>
      <trkpt lat="41.7903980" lon="-5.3985460">
        <ele>752.6</ele>
        <time>2019-08-15T09:33:45Z</time>
      </trkpt>
      <trkpt lat="41.7904400" lon="-5.3985840">
        <ele>752.7</ele>
        <time>2019-08-15T09:33:46Z</time>
      </trkpt>
      <trkpt lat="41.7904820" lon="-5.3986230">
        <ele>752.8</ele>
        <time>2019-08-15T09:33:47Z</time>
      </trkpt>
      <trkpt lat="41.7905240" lon="-5.3986590">
        <ele>752.9</ele>
        <time>2019-08-15T09:33:48Z</time>
      </trkpt>
      <trkpt lat="41.7905660" lon="-5.3986970">
        <ele>753.0</ele>
        <time>2019-08-15T09:33:49Z</time>
      </trkpt>
      <trkpt lat="41.7906060" lon="-5.3987360">
        <ele>753.1</ele>
        <time>2019-08-15T09:33:50Z</time>
      </trkpt>
      <trkpt lat="41.7906450" lon="-5.3987750">
        <ele>753.2</ele>
        <time>2019-08-15T09:33:51Z</time>
      </trkpt>
      <trkpt lat="41.7906840" lon="-5.3988130">
        <ele>753.3</ele>
        <time>2019-08-15T09:33:52Z</time>
      </trkpt>
      <trkpt lat="41.7907230" lon="-5.3988530">
        <ele>753.4</ele>
        <time>2019-08-15T09:33:53Z</time>
      </trkpt>
      <trkpt lat="41.7907620" lon="-5.3988920">
        <ele>753.5</ele>
        <time>2019-08-15T09:33:54Z</time>
      </trkpt>
      <trkpt lat="41.7907990" lon="-5.3989300">
        <ele>753.6</ele>
        <time>2019-08-15T09:33:55Z</time>
      </trkpt>
      <trkpt lat="41.7908370" lon="-5.3989680">
        <ele>753.7</ele>
        <time>2019-08-15T09:33:56Z</time>
      </trkpt>
      <trkpt lat="41.7908770" lon="-5.3990060">
        <ele>753.8</ele>
        <time>2019-08-15T09:33:57Z</time>
      </trkpt>
      <trkpt lat="41.7909180" lon="-5.3990410">
        <ele>753.8</ele>
        <time>2019-08-15T09:33:58Z</time>
      </trkpt>
      <trkpt lat="41.7909600" lon="-5.3990760">
        <ele>753.9</ele>
        <time>2019-08-15T09:33:59Z</time>
      </trkpt>
      <trkpt lat="41.7910010" lon="-5.3991110">
        <ele>754.0</ele>
        <time>2019-08-15T09:34:00Z</time>
      </trkpt>
      <trkpt lat="41.7910400" lon="-5.3991470">
        <ele>754.0</ele>
        <time>2019-08-15T09:34:01Z</time>
      </trkpt>
      <trkpt lat="41.7910810" lon="-5.3991790">
        <ele>754.1</ele>
        <time>2019-08-15T09:34:02Z</time>
      </trkpt>
      <trkpt lat="41.7911240" lon="-5.3992080">
        <ele>754.2</ele>
        <time>2019-08-15T09:34:03Z</time>
      </trkpt>
      <trkpt lat="41.7911660" lon="-5.3992390">
        <ele>754.3</ele>
        <time>2019-08-15T09:34:04Z</time>
      </trkpt>
      <trkpt lat="41.7912050" lon="-5.3992710">
        <ele>754.4</ele>
        <time>2019-08-15T09:34:05Z</time>
      </trkpt>
      <trkpt lat="41.7912430" lon="-5.3993030">
        <ele>754.4</ele>
        <time>2019-08-15T09:34:06Z</time>
      </trkpt>
      <trkpt lat="41.7912790" lon="-5.3993330">
        <ele>754.5</ele>
        <time>2019-08-15T09:34:07Z</time>
      </trkpt>
      <trkpt lat="41.7913160" lon="-5.3993640">
        <ele>754.6</ele>
        <time>2019-08-15T09:34:08Z</time>
      </trkpt>
      <trkpt lat="41.7913540" lon="-5.3993960">
        <ele>754.6</ele>
        <time>2019-08-15T09:34:09Z</time>
      </trkpt>
      <trkpt lat="41.7913920" lon="-5.3994280">
        <ele>754.7</ele>
        <time>2019-08-15T09:34:10Z</time>
      </trkpt>
      <trkpt lat="41.7914340" lon="-5.3994600">
        <ele>754.7</ele>
        <time>2019-08-15T09:34:11Z</time>
      </trkpt>
      <trkpt lat="41.7914770" lon="-5.3994920">
        <ele>754.7</ele>
        <time>2019-08-15T09:34:12Z</time>
      </trkpt>
      <trkpt lat="41.7915200" lon="-5.3995250">
        <ele>754.8</ele>
        <time>2019-08-15T09:34:13Z</time>
      </trkpt>
      <trkpt lat="41.7915590" lon="-5.3995580">
        <ele>754.9</ele>
        <time>2019-08-15T09:34:14Z</time>
      </trkpt>
      <trkpt lat="41.7915970" lon="-5.3995870">
        <ele>755.0</ele>
        <time>2019-08-15T09:34:15Z</time>
      </trkpt>
      <trkpt lat="41.7916350" lon="-5.3996170">
        <ele>755.0</ele>
        <time>2019-08-15T09:34:16Z</time>
      </trkpt>
      <trkpt lat="41.7916710" lon="-5.3996460">
        <ele>755.0</ele>
        <time>2019-08-15T09:34:17Z</time>
      </trkpt>
      <trkpt lat="41.7917070" lon="-5.3996750">
        <ele>755.1</ele>
        <time>2019-08-15T09:34:18Z</time>
      </trkpt>
      <trkpt lat="41.7917450" lon="-5.3997060">
        <ele>755.1</ele>
        <time>2019-08-15T09:34:19Z</time>
      </trkpt>
      <trkpt lat="41.7917870" lon="-5.3997370">
        <ele>755.1</ele>
        <time>2019-08-15T09:34:20Z</time>
      </trkpt>
      <trkpt lat="41.7918300" lon="-5.3997690">
        <ele>755.1</ele>
        <time>2019-08-15T09:34:21Z</time>
      </trkpt>
      <trkpt lat="41.7918750" lon="-5.3997990">
        <ele>755.1</ele>
        <time>2019-08-15T09:34:22Z</time>
      </trkpt>
      <trkpt lat="41.7919240" lon="-5.3998290">
        <ele>755.0</ele>
        <time>2019-08-15T09:34:23Z</time>
      </trkpt>
      <trkpt lat="41.7919720" lon="-5.3998590">
        <ele>755.0</ele>
        <time>2019-08-15T09:34:24Z</time>
      </trkpt>
      <trkpt lat="41.7920180" lon="-5.3998880">
        <ele>755.0</ele>
        <time>2019-08-15T09:34:25Z</time>
      </trkpt>
      <trkpt lat="41.7920640" lon="-5.3999130">
        <ele>754.9</ele>
        <time>2019-08-15T09:34:26Z</time>
      </trkpt>
      <trkpt lat="41.7921100" lon="-5.3999350">
        <ele>754.8</ele>
        <time>2019-08-15T09:34:27Z</time>
      </trkpt>
      <trkpt lat="41.7921550" lon="-5.3999550">
        <ele>754.7</ele>
        <time>2019-08-15T09:34:28Z</time>
      </trkpt>
      <trkpt lat="41.7921980" lon="-5.3999750">
        <ele>754.7</ele>
        <time>2019-08-15T09:34:29Z</time>
      </trkpt>
      <trkpt lat="41.7922380" lon="-5.3999950">
        <ele>754.6</ele>
        <time>2019-08-15T09:34:30Z</time>
      </trkpt>
      <trkpt lat="41.7922780" lon="-5.4000150">
        <ele>754.6</ele>
        <time>2019-08-15T09:34:31Z</time>
      </trkpt>
      <trkpt lat="41.7923190" lon="-5.4000330">
        <ele>754.5</ele>
        <time>2019-08-15T09:34:32Z</time>
      </trkpt>
      <trkpt lat="41.7923610" lon="-5.4000530">
        <ele>754.4</ele>
        <time>2019-08-15T09:34:33Z</time>
      </trkpt>
      <trkpt lat="41.7924050" lon="-5.4000730">
        <ele>754.4</ele>
        <time>2019-08-15T09:34:34Z</time>
      </trkpt>
      <trkpt lat="41.7924480" lon="-5.4000920">
        <ele>754.3</ele>
        <time>2019-08-15T09:34:35Z</time>
      </trkpt>
      <trkpt lat="41.7924940" lon="-5.4001120">
        <ele>754.1</ele>
        <time>2019-08-15T09:34:36Z</time>
      </trkpt>
      <trkpt lat="41.7925410" lon="-5.4001310">
        <ele>754.1</ele>
        <time>2019-08-15T09:34:37Z</time>
      </trkpt>
      <trkpt lat="41.7925880" lon="-5.4001470">
        <ele>754.0</ele>
        <time>2019-08-15T09:34:38Z</time>
      </trkpt>
      <trkpt lat="41.7926370" lon="-5.4001610">
        <ele>753.8</ele>
        <time>2019-08-15T09:34:39Z</time>
      </trkpt>
      <trkpt lat="41.7926840" lon="-5.4001730">
        <ele>753.7</ele>
        <time>2019-08-15T09:34:40Z</time>
      </trkpt>
      <trkpt lat="41.7927290" lon="-5.4001820">
        <ele>753.6</ele>
        <time>2019-08-15T09:34:41Z</time>
      </trkpt>
      <trkpt lat="41.7927730" lon="-5.4001890">
        <ele>753.6</ele>
        <time>2019-08-15T09:34:42Z</time>
      </trkpt>
      <trkpt lat="41.7928150" lon="-5.4001950">
        <ele>753.5</ele>
        <time>2019-08-15T09:34:43Z</time>
      </trkpt>
      <trkpt lat="41.7928570" lon="-5.4002000">
        <ele>753.4</ele>
        <time>2019-08-15T09:34:44Z</time>
      </trkpt>
      <trkpt lat="41.7928990" lon="-5.4002070">
        <ele>753.3</ele>
        <time>2019-08-15T09:34:45Z</time>
      </trkpt>
      <trkpt lat="41.7929440" lon="-5.4002140">
        <ele>753.2</ele>
        <time>2019-08-15T09:34:46Z</time>
      </trkpt>
      <trkpt lat="41.7929930" lon="-5.4002200">
        <ele>753.1</ele>
        <time>2019-08-15T09:34:47Z</time>
      </trkpt>
      <trkpt lat="41.7930440" lon="-5.4002230">
        <ele>753.0</ele>
        <time>2019-08-15T09:34:48Z</time>
      </trkpt>
      <trkpt lat="41.7930950" lon="-5.4002300">
        <ele>753.0</ele>
        <time>2019-08-15T09:34:49Z</time>
      </trkpt>
      <trkpt lat="41.7931460" lon="-5.4002390">
        <ele>752.8</ele>
        <time>2019-08-15T09:34:50Z</time>
      </trkpt>
      <trkpt lat="41.7931950" lon="-5.4002500">
        <ele>752.7</ele>
        <time>2019-08-15T09:34:51Z</time>
      </trkpt>
      <trkpt lat="41.7932430" lon="-5.4002600">
        <ele>752.6</ele>
        <time>2019-08-15T09:34:52Z</time>
      </trkpt>
      <trkpt lat="41.7932900" lon="-5.4002690">
        <ele>752.5</ele>
        <time>2019-08-15T09:34:53Z</time>
      </trkpt>
      <trkpt lat="41.7933360" lon="-5.4002800">
        <ele>752.4</ele>
        <time>2019-08-15T09:34:54Z</time>
      </trkpt>
      <trkpt lat="41.7933830" lon="-5.4002920">
        <ele>752.2</ele>
        <time>2019-08-15T09:34:55Z</time>
      </trkpt>
      <trkpt lat="41.7934290" lon="-5.4003010">
        <ele>752.1</ele>
        <time>2019-08-15T09:34:56Z</time>
      </trkpt>
      <trkpt lat="41.7934710" lon="-5.4003080">
        <ele>752.0</ele>
        <time>2019-08-15T09:34:57Z</time>
      </trkpt>
      <trkpt lat="41.7935110" lon="-5.4003180">
        <ele>752.0</ele>
        <time>2019-08-15T09:34:58Z</time>
      </trkpt>
      <trkpt lat="41.7935520" lon="-5.4003260">
        <ele>751.9</ele>
        <time>2019-08-15T09:34:59Z</time>
      </trkpt>
      <trkpt lat="41.7935960" lon="-5.4003350">
        <ele>751.7</ele>
        <time>2019-08-15T09:35:00Z</time>
      </trkpt>
      <trkpt lat="41.7936410" lon="-5.4003420">
        <ele>751.7</ele>
        <time>2019-08-15T09:35:01Z</time>
      </trkpt>
      <trkpt lat="41.7936880" lon="-5.4003490">
        <ele>751.6</ele>
        <time>2019-08-15T09:35:02Z</time>
      </trkpt>
      <trkpt lat="41.7937360" lon="-5.4003540">
        <ele>751.5</ele>
        <time>2019-08-15T09:35:03Z</time>
      </trkpt>
      <trkpt lat="41.7937850" lon="-5.4003580">
        <ele>751.5</ele>
        <time>2019-08-15T09:35:04Z</time>
      </trkpt>
      <trkpt lat="41.7938330" lon="-5.4003600">
        <ele>751.4</ele>
        <time>2019-08-15T09:35:05Z</time>
      </trkpt>
      <trkpt lat="41.7938820" lon="-5.4003610">
        <ele>751.4</ele>
        <time>2019-08-15T09:35:06Z</time>
      </trkpt>
      <trkpt lat="41.7939290" lon="-5.4003620">
        <ele>751.4</ele>
        <time>2019-08-15T09:35:07Z</time>
      </trkpt>
      <trkpt lat="41.7939770" lon="-5.4003650">
        <ele>751.4</ele>
        <time>2019-08-15T09:35:08Z</time>
      </trkpt>
      <trkpt lat="41.7940240" lon="-5.4003700">
        <ele>751.4</ele>
        <time>2019-08-15T09:35:09Z</time>
      </trkpt>
      <trkpt lat="41.7940720" lon="-5.4003780">
        <ele>751.5</ele>
        <time>2019-08-15T09:35:10Z</time>
      </trkpt>
      <trkpt lat="41.7941210" lon="-5.4003850">
        <ele>751.5</ele>
        <time>2019-08-15T09:35:11Z</time>
      </trkpt>
      <trkpt lat="41.7941700" lon="-5.4003950">
        <ele>751.5</ele>
        <time>2019-08-15T09:35:12Z</time>
      </trkpt>
      <trkpt lat="41.7942200" lon="-5.4004060">
        <ele>751.5</ele>
        <time>2019-08-15T09:35:13Z</time>
      </trkpt>
      <trkpt lat="41.7942700" lon="-5.4004200">
        <ele>751.4</ele>
        <time>2019-08-15T09:35:14Z</time>
      </trkpt>
      <trkpt lat="41.7943200" lon="-5.4004370">
        <ele>751.4</ele>
        <time>2019-08-15T09:35:15Z</time>
      </trkpt>
      <trkpt lat="41.7943680" lon="-5.4004560">
        <ele>751.5</ele>
        <time>2019-08-15T09:35:16Z</time>
      </trkpt>
      <trkpt lat="41.7944160" lon="-5.4004780">
        <ele>751.6</ele>
        <time>2019-08-15T09:35:17Z</time>
      </trkpt>
      <trkpt lat="41.7944620" lon="-5.4005030">
        <ele>751.6</ele>
        <time>2019-08-15T09:35:18Z</time>
      </trkpt>
      <trkpt lat="41.7945070" lon="-5.4005310">
        <ele>751.6</ele>
        <time>2019-08-15T09:35:19Z</time>
      </trkpt>
      <trkpt lat="41.7945510" lon="-5.4005600">
        <ele>751.7</ele>
        <time>2019-08-15T09:35:20Z</time>
      </trkpt>
      <trkpt lat="41.7945940" lon="-5.4005920">
        <ele>751.7</ele>
        <time>2019-08-15T09:35:21Z</time>
      </trkpt>
      <trkpt lat="41.7946370" lon="-5.4006230">
        <ele>751.7</ele>
        <time>2019-08-15T09:35:22Z</time>
      </trkpt>
      <trkpt lat="41.7946780" lon="-5.4006570">
        <ele>751.7</ele>
        <time>2019-08-15T09:35:23Z</time>
      </trkpt>
      <trkpt lat="41.7947170" lon="-5.4006940">
        <ele>751.7</ele>
        <time>2019-08-15T09:35:24Z</time>
      </trkpt>
      <trkpt lat="41.7947540" lon="-5.4007330">
        <ele>751.7</ele>
        <time>2019-08-15T09:35:25Z</time>
      </trkpt>
      <trkpt lat="41.7947890" lon="-5.4007750">
        <ele>751.7</ele>
        <time>2019-08-15T09:35:26Z</time>
      </trkpt>
      <trkpt lat="41.7948230" lon="-5.4008180">
        <ele>751.7</ele>
        <time>2019-08-15T09:35:27Z</time>
      </trkpt>
      <trkpt lat="41.7948570" lon="-5.4008650">
        <ele>751.8</ele>
        <time>2019-08-15T09:35:28Z</time>
      </trkpt>
      <trkpt lat="41.7948920" lon="-5.4009170">
        <ele>751.8</ele>
        <time>2019-08-15T09:35:29Z</time>
      </trkpt>
      <trkpt lat="41.7949260" lon="-5.4009710">
        <ele>751.8</ele>
        <time>2019-08-15T09:35:30Z</time>
      </trkpt>
      <trkpt lat="41.7949570" lon="-5.4010290">
        <ele>751.9</ele>
        <time>2019-08-15T09:35:31Z</time>
      </trkpt>
      <trkpt lat="41.7949880" lon="-5.4010890">
        <ele>752.0</ele>
        <time>2019-08-15T09:35:32Z</time>
      </trkpt>
      <trkpt lat="41.7950170" lon="-5.4011480">
        <ele>752.0</ele>
        <time>2019-08-15T09:35:33Z</time>
      </trkpt>
      <trkpt lat="41.7950460" lon="-5.4012070">
        <ele>752.1</ele>
        <time>2019-08-15T09:35:34Z</time>
      </trkpt>
      <trkpt lat="41.7950740" lon="-5.4012630">
        <ele>752.1</ele>
        <time>2019-08-15T09:35:35Z</time>
      </trkpt>
      <trkpt lat="41.7951020" lon="-5.4013190">
        <ele>752.2</ele>
        <time>2019-08-15T09:35:36Z</time>
      </trkpt>
      <trkpt lat="41.7951290" lon="-5.4013750">
        <ele>752.3</ele>
        <time>2019-08-15T09:35:37Z</time>
      </trkpt>
      <trkpt lat="41.7951560" lon="-5.4014310">
        <ele>752.3</ele>
        <time>2019-08-15T09:35:38Z</time>
      </trkpt>
      <trkpt lat="41.7951840" lon="-5.4014860">
        <ele>752.2</ele>
        <time>2019-08-15T09:35:39Z</time>
      </trkpt>
      <trkpt lat="41.7952130" lon="-5.4015410">
        <ele>752.2</ele>
        <time>2019-08-15T09:35:40Z</time>
      </trkpt>
      <trkpt lat="41.7952440" lon="-5.4016010">
        <ele>752.0</ele>
        <time>2019-08-15T09:35:41Z</time>
      </trkpt>
      <trkpt lat="41.7952750" lon="-5.4016630">
        <ele>751.8</ele>
        <time>2019-08-15T09:35:42Z</time>
      </trkpt>
      <trkpt lat="41.7953060" lon="-5.4017240">
        <ele>751.5</ele>
        <time>2019-08-15T09:35:43Z</time>
      </trkpt>
      <trkpt lat="41.7953390" lon="-5.4017860">
        <ele>751.3</ele>
        <time>2019-08-15T09:35:44Z</time>
      </trkpt>
      <trkpt lat="41.7953710" lon="-5.4018450">
        <ele>751.0</ele>
        <time>2019-08-15T09:35:45Z</time>
      </trkpt>
      <trkpt lat="41.7954050" lon="-5.4019020">
        <ele>750.7</ele>
        <time>2019-08-15T09:35:46Z</time>
      </trkpt>
      <trkpt lat="41.7954390" lon="-5.4019570">
        <ele>750.5</ele>
        <time>2019-08-15T09:35:47Z</time>
      </trkpt>
      <trkpt lat="41.7954720" lon="-5.4020080">
        <ele>750.3</ele>
        <time>2019-08-15T09:35:48Z</time>
      </trkpt>
      <trkpt lat="41.7955070" lon="-5.4020580">
        <ele>750.0</ele>
        <time>2019-08-15T09:35:49Z</time>
      </trkpt>
      <trkpt lat="41.7955430" lon="-5.4021030">
        <ele>749.8</ele>
        <time>2019-08-15T09:35:50Z</time>
      </trkpt>
      <trkpt lat="41.7955790" lon="-5.4021470">
        <ele>749.6</ele>
        <time>2019-08-15T09:35:51Z</time>
      </trkpt>
      <trkpt lat="41.7956160" lon="-5.4021930">
        <ele>749.4</ele>
        <time>2019-08-15T09:35:52Z</time>
      </trkpt>
      <trkpt lat="41.7956550" lon="-5.4022390">
        <ele>749.2</ele>
        <time>2019-08-15T09:35:53Z</time>
      </trkpt>
      <trkpt lat="41.7956970" lon="-5.4022840">
        <ele>749.0</ele>
        <time>2019-08-15T09:35:54Z</time>
      </trkpt>
      <trkpt lat="41.7957440" lon="-5.4023250">
        <ele>748.9</ele>
        <time>2019-08-15T09:35:55Z</time>
      </trkpt>
      <trkpt lat="41.7957890" lon="-5.4023660">
        <ele>748.8</ele>
        <time>2019-08-15T09:35:56Z</time>
      </trkpt>
      <trkpt lat="41.7958350" lon="-5.4024080">
        <ele>748.6</ele>
        <time>2019-08-15T09:35:57Z</time>
      </trkpt>
      <trkpt lat="41.7958790" lon="-5.4024470">
        <ele>748.4</ele>
        <time>2019-08-15T09:35:58Z</time>
      </trkpt>
      <trkpt lat="41.7959230" lon="-5.4024860">
        <ele>748.4</ele>
        <time>2019-08-15T09:35:59Z</time>
      </trkpt>
      <trkpt lat="41.7959660" lon="-5.4025250">
        <ele>748.3</ele>
        <time>2019-08-15T09:36:00Z</time>
      </trkpt>
      <trkpt lat="41.7960080" lon="-5.4025650">
        <ele>748.1</ele>
        <time>2019-08-15T09:36:01Z</time>
      </trkpt>
      <trkpt lat="41.7960510" lon="-5.4026040">
        <ele>747.9</ele>
        <time>2019-08-15T09:36:02Z</time>
      </trkpt>
      <trkpt lat="41.7960950" lon="-5.4026410">
        <ele>747.8</ele>
        <time>2019-08-15T09:36:03Z</time>
      </trkpt>
      <trkpt lat="41.7961370" lon="-5.4026770">
        <ele>747.6</ele>
        <time>2019-08-15T09:36:04Z</time>
      </trkpt>
      <trkpt lat="41.7961790" lon="-5.4027140">
        <ele>747.3</ele>
        <time>2019-08-15T09:36:05Z</time>
      </trkpt>
      <trkpt lat="41.7962200" lon="-5.4027520">
        <ele>747.3</ele>
        <time>2019-08-15T09:36:06Z</time>
      </trkpt>
      <trkpt lat="41.7962580" lon="-5.4027930">
        <ele>747.0</ele>
        <time>2019-08-15T09:36:07Z</time>
      </trkpt>
      <trkpt lat="41.7962960" lon="-5.4028330">
        <ele>746.8</ele>
        <time>2019-08-15T09:36:08Z</time>
      </trkpt>
      <trkpt lat="41.7963370" lon="-5.4028740">
        <ele>746.7</ele>
        <time>2019-08-15T09:36:09Z</time>
      </trkpt>
      <trkpt lat="41.7963780" lon="-5.4029170">
        <ele>746.4</ele>
        <time>2019-08-15T09:36:10Z</time>
      </trkpt>
      <trkpt lat="41.7964180" lon="-5.4029610">
        <ele>746.1</ele>
        <time>2019-08-15T09:36:11Z</time>
      </trkpt>
      <trkpt lat="41.7964600" lon="-5.4030080">
        <ele>746.0</ele>
        <time>2019-08-15T09:36:12Z</time>
      </trkpt>
      <trkpt lat="41.7965020" lon="-5.4030530">
        <ele>745.6</ele>
        <time>2019-08-15T09:36:13Z</time>
      </trkpt>
      <trkpt lat="41.7965420" lon="-5.4030980">
        <ele>745.4</ele>
        <time>2019-08-15T09:36:14Z</time>
      </trkpt>
      <trkpt lat="41.7965820" lon="-5.4031400">
        <ele>745.1</ele>
        <time>2019-08-15T09:36:15Z</time>
      </trkpt>
      <trkpt lat="41.7966200" lon="-5.4031810">
        <ele>745.1</ele>
        <time>2019-08-15T09:36:16Z</time>
      </trkpt>
      <trkpt lat="41.7966560" lon="-5.4032230">
        <ele>745.1</ele>
        <time>2019-08-15T09:36:17Z</time>
      </trkpt>
      <trkpt lat="41.7966930" lon="-5.4032670">
        <ele>744.9</ele>
        <time>2019-08-15T09:36:18Z</time>
      </trkpt>
      <trkpt lat="41.7967310" lon="-5.4033120">
        <ele>744.7</ele>
        <time>2019-08-15T09:36:19Z</time>
      </trkpt>
      <trkpt lat="41.7967690" lon="-5.4033570">
        <ele>744.5</ele>
        <time>2019-08-15T09:36:20Z</time>
      </trkpt>
      <trkpt lat="41.7968060" lon="-5.4034030">
        <ele>744.3</ele>
        <time>2019-08-15T09:36:21Z</time>
      </trkpt>
      <trkpt lat="41.7968420" lon="-5.4034490">
        <ele>744.0</ele>
        <time>2019-08-15T09:36:22Z</time>
      </trkpt>
      <trkpt lat="41.7968790" lon="-5.4034940">
        <ele>743.8</ele>
        <time>2019-08-15T09:36:23Z</time>
      </trkpt>
      <trkpt lat="41.7969140" lon="-5.4035390">
        <ele>743.7</ele>
        <time>2019-08-15T09:36:24Z</time>
      </trkpt>
      <trkpt lat="41.7969490" lon="-5.4035840">
        <ele>743.6</ele>
        <time>2019-08-15T09:36:25Z</time>
      </trkpt>
      <trkpt lat="41.7969830" lon="-5.4036270">
        <ele>743.5</ele>
        <time>2019-08-15T09:36:26Z</time>
      </trkpt>
      <trkpt lat="41.7970170" lon="-5.4036700">
        <ele>743.3</ele>
        <time>2019-08-15T09:36:27Z</time>
      </trkpt>
      <trkpt lat="41.7970510" lon="-5.4037110">
        <ele>743.2</ele>
        <time>2019-08-15T09:36:28Z</time>
      </trkpt>
      <trkpt lat="41.7970850" lon="-5.4037530">
        <ele>743.1</ele>
        <time>2019-08-15T09:36:29Z</time>
      </trkpt>
      <trkpt lat="41.7971180" lon="-5.4037940">
        <ele>743.0</ele>
        <time>2019-08-15T09:36:30Z</time>
      </trkpt>
      <trkpt lat="41.7971500" lon="-5.4038350">
        <ele>742.9</ele>
        <time>2019-08-15T09:36:31Z</time>
      </trkpt>
      <trkpt lat="41.7971810" lon="-5.4038750">
        <ele>742.9</ele>
        <time>2019-08-15T09:36:32Z</time>
      </trkpt>
      <trkpt lat="41.7972140" lon="-5.4039140">
        <ele>742.8</ele>
        <time>2019-08-15T09:36:33Z</time>
      </trkpt>
      <trkpt lat="41.7972440" lon="-5.4039510">
        <ele>742.6</ele>
        <time>2019-08-15T09:36:34Z</time>
      </trkpt>
      <trkpt lat="41.7972760" lon="-5.4039910">
        <ele>742.5</ele>
        <time>2019-08-15T09:36:35Z</time>
      </trkpt>
      <trkpt lat="41.7973100" lon="-5.4040300">
        <ele>742.3</ele>
        <time>2019-08-15T09:36:36Z</time>
      </trkpt>
      <trkpt lat="41.7973450" lon="-5.4040730">
        <ele>742.2</ele>
        <time>2019-08-15T09:36:37Z</time>
      </trkpt>
      <trkpt lat="41.7973830" lon="-5.4041190">
        <ele>742.1</ele>
        <time>2019-08-15T09:36:38Z</time>
      </trkpt>
      <trkpt lat="41.7974210" lon="-5.4041660">
        <ele>742.0</ele>
        <time>2019-08-15T09:36:39Z</time>
      </trkpt>
      <trkpt lat="41.7974590" lon="-5.4042090">
        <ele>741.9</ele>
        <time>2019-08-15T09:36:40Z</time>
      </trkpt>
      <trkpt lat="41.7974980" lon="-5.4042510">
        <ele>741.7</ele>
        <time>2019-08-15T09:36:41Z</time>
      </trkpt>
      <trkpt lat="41.7975350" lon="-5.4042930">
        <ele>741.6</ele>
        <time>2019-08-15T09:36:42Z</time>
      </trkpt>
      <trkpt lat="41.7975720" lon="-5.4043350">
        <ele>741.5</ele>
        <time>2019-08-15T09:36:43Z</time>
      </trkpt>
      <trkpt lat="41.7976090" lon="-5.4043750">
        <ele>741.4</ele>
        <time>2019-08-15T09:36:44Z</time>
      </trkpt>
      <trkpt lat="41.7976460" lon="-5.4044140">
        <ele>741.2</ele>
        <time>2019-08-15T09:36:45Z</time>
      </trkpt>
      <trkpt lat="41.7976820" lon="-5.4044520">
        <ele>741.0</ele>
        <time>2019-08-15T09:36:46Z</time>
      </trkpt>
      <trkpt lat="41.7977180" lon="-5.4044890">
        <ele>740.9</ele>
        <time>2019-08-15T09:36:47Z</time>
      </trkpt>
      <trkpt lat="41.7977520" lon="-5.4045290">
        <ele>740.9</ele>
        <time>2019-08-15T09:36:48Z</time>
      </trkpt>
      <trkpt lat="41.7977880" lon="-5.4045650">
        <ele>740.9</ele>
        <time>2019-08-15T09:36:49Z</time>
      </trkpt>
      <trkpt lat="41.7978250" lon="-5.4046000">
        <ele>740.9</ele>
        <time>2019-08-15T09:36:50Z</time>
      </trkpt>
      <trkpt lat="41.7978620" lon="-5.4046350">
        <ele>740.9</ele>
        <time>2019-08-15T09:36:51Z</time>
      </trkpt>
      <trkpt lat="41.7978990" lon="-5.4046710">
        <ele>741.0</ele>
        <time>2019-08-15T09:36:52Z</time>
      </trkpt>
      <trkpt lat="41.7979360" lon="-5.4047070">
        <ele>741.0</ele>
        <time>2019-08-15T09:36:53Z</time>
      </trkpt>
      <trkpt lat="41.7979760" lon="-5.4047430">
        <ele>741.0</ele>
        <time>2019-08-15T09:36:54Z</time>
      </trkpt>
      <trkpt lat="41.7980160" lon="-5.4047790">
        <ele>741.0</ele>
        <time>2019-08-15T09:36:55Z</time>
      </trkpt>
      <trkpt lat="41.7980560" lon="-5.4048140">
        <ele>741.1</ele>
        <time>2019-08-15T09:36:56Z</time>
      </trkpt>
      <trkpt lat="41.7980950" lon="-5.4048510">
        <ele>741.1</ele>
        <time>2019-08-15T09:36:57Z</time>
      </trkpt>
      <trkpt lat="41.7981330" lon="-5.4048880">
        <ele>741.1</ele>
        <time>2019-08-15T09:36:58Z</time>
      </trkpt>
      <trkpt lat="41.7981710" lon="-5.4049250">
        <ele>741.0</ele>
        <time>2019-08-15T09:36:59Z</time>
      </trkpt>
      <trkpt lat="41.7982090" lon="-5.4049650">
        <ele>741.0</ele>
        <time>2019-08-15T09:37:00Z</time>
      </trkpt>
      <trkpt lat="41.7982460" lon="-5.4050080">
        <ele>741.0</ele>
        <time>2019-08-15T09:37:01Z</time>
      </trkpt>
      <trkpt lat="41.7982850" lon="-5.4050530">
        <ele>740.9</ele>
        <time>2019-08-15T09:37:02Z</time>
      </trkpt>
      <trkpt lat="41.7983230" lon="-5.4050970">
        <ele>740.9</ele>
        <time>2019-08-15T09:37:03Z</time>
      </trkpt>
      <trkpt lat="41.7983620" lon="-5.4051420">
        <ele>740.8</ele>
        <time>2019-08-15T09:37:04Z</time>
      </trkpt>
      <trkpt lat="41.7984000" lon="-5.4051860">
        <ele>740.8</ele>
        <time>2019-08-15T09:37:05Z</time>
      </trkpt>
      <trkpt lat="41.7984360" lon="-5.4052300">
        <ele>740.8</ele>
        <time>2019-08-15T09:37:06Z</time>
      </trkpt>
      <trkpt lat="41.7984720" lon="-5.4052740">
        <ele>740.8</ele>
        <time>2019-08-15T09:37:07Z</time>
      </trkpt>
      <trkpt lat="41.7985090" lon="-5.4053200">
        <ele>740.9</ele>
        <time>2019-08-15T09:37:08Z</time>
      </trkpt>
      <trkpt lat="41.7985450" lon="-5.4053650">
        <ele>740.9</ele>
        <time>2019-08-15T09:37:09Z</time>
      </trkpt>
      <trkpt lat="41.7985840" lon="-5.4054100">
        <ele>740.9</ele>
        <time>2019-08-15T09:37:10Z</time>
      </trkpt>
      <trkpt lat="41.7986210" lon="-5.4054530">
        <ele>741.0</ele>
        <time>2019-08-15T09:37:11Z</time>
      </trkpt>
      <trkpt lat="41.7986580" lon="-5.4054970">
        <ele>741.0</ele>
        <time>2019-08-15T09:37:12Z</time>
      </trkpt>
      <trkpt lat="41.7986930" lon="-5.4055400">
        <ele>741.0</ele>
        <time>2019-08-15T09:37:13Z</time>
      </trkpt>
      <trkpt lat="41.7987310" lon="-5.4055840">
        <ele>741.1</ele>
        <time>2019-08-15T09:37:14Z</time>
      </trkpt>
      <trkpt lat="41.7987690" lon="-5.4056280">
        <ele>741.1</ele>
        <time>2019-08-15T09:37:15Z</time>
      </trkpt>
      <trkpt lat="41.7988070" lon="-5.4056750">
        <ele>741.1</ele>
        <time>2019-08-15T09:37:16Z</time>
      </trkpt>
      <trkpt lat="41.7988420" lon="-5.4057240">
        <ele>741.2</ele>
        <time>2019-08-15T09:37:17Z</time>
      </trkpt>
      <trkpt lat="41.7988760" lon="-5.4057730">
        <ele>741.2</ele>
        <time>2019-08-15T09:37:18Z</time>
      </trkpt>
      <trkpt lat="41.7989100" lon="-5.4058180">
        <ele>741.2</ele>
        <time>2019-08-15T09:37:19Z</time>
      </trkpt>
      <trkpt lat="41.7989450" lon="-5.4058610">
        <ele>741.3</ele>
        <time>2019-08-15T09:37:20Z</time>
      </trkpt>
      <trkpt lat="41.7989790" lon="-5.4059050">
        <ele>741.3</ele>
        <time>2019-08-15T09:37:21Z</time>
      </trkpt>
      <trkpt lat="41.7990140" lon="-5.4059480">
        <ele>741.3</ele>
        <time>2019-08-15T09:37:22Z</time>
      </trkpt>
      <trkpt lat="41.7990490" lon="-5.4059910">
        <ele>741.3</ele>
        <time>2019-08-15T09:37:23Z</time>
      </trkpt>
      <trkpt lat="41.7990840" lon="-5.4060320">
        <ele>741.4</ele>
        <time>2019-08-15T09:37:24Z</time>
      </trkpt>
      <trkpt lat="41.7991170" lon="-5.4060740">
        <ele>741.4</ele>
        <time>2019-08-15T09:37:25Z</time>
      </trkpt>
      <trkpt lat="41.7991510" lon="-5.4061150">
        <ele>741.5</ele>
        <time>2019-08-15T09:37:26Z</time>
      </trkpt>
      <trkpt lat="41.7991830" lon="-5.4061540">
        <ele>741.5</ele>
        <time>2019-08-15T09:37:27Z</time>
      </trkpt>
      <trkpt lat="41.7992150" lon="-5.4061920">
        <ele>741.6</ele>
        <time>2019-08-15T09:37:28Z</time>
      </trkpt>
      <trkpt lat="41.7992500" lon="-5.4062280">
        <ele>741.6</ele>
        <time>2019-08-15T09:37:29Z</time>
      </trkpt>
      <trkpt lat="41.7992860" lon="-5.4062660">
        <ele>741.7</ele>
        <time>2019-08-15T09:37:30Z</time>
      </trkpt>
      <trkpt lat="41.7993200" lon="-5.4063070">
        <ele>741.7</ele>
        <time>2019-08-15T09:37:31Z</time>
      </trkpt>
      <trkpt lat="41.7993530" lon="-5.4063490">
        <ele>741.7</ele>
        <time>2019-08-15T09:37:32Z</time>
      </trkpt>
      <trkpt lat="41.7993850" lon="-5.4063880">
        <ele>741.8</ele>
        <time>2019-08-15T09:37:33Z</time>
      </trkpt>
      <trkpt lat="41.7994160" lon="-5.4064250">
        <ele>741.8</ele>
        <time>2019-08-15T09:37:34Z</time>
      </trkpt>
      <trkpt lat="41.7994460" lon="-5.4064600">
        <ele>741.8</ele>
        <time>2019-08-15T09:37:35Z</time>
      </trkpt>
      <trkpt lat="41.7994770" lon="-5.4064950">
        <ele>742.1</ele>
        <time>2019-08-15T09:37:36Z</time>
      </trkpt>
      <trkpt lat="41.7995020" lon="-5.4065260">
        <ele>742.2</ele>
        <time>2019-08-15T09:37:37Z</time>
      </trkpt>
      <trkpt lat="41.7995200" lon="-5.4065520">
        <ele>742.3</ele>
        <time>2019-08-15T09:37:38Z</time>
      </trkpt>
      <trkpt lat="41.7995420" lon="-5.4065860">
        <ele>742.4</ele>
        <time>2019-08-15T09:37:40Z</time>
      </trkpt>
      <trkpt lat="41.7995660" lon="-5.4065660">
        <ele>742.5</ele>
        <time>2019-08-15T09:37:48Z</time>
      </trkpt>
      <trkpt lat="41.7995820" lon="-5.4065300">
        <ele>742.6</ele>
        <time>2019-08-15T09:37:51Z</time>
      </trkpt>
      <trkpt lat="41.7996100" lon="-5.4064690">
        <ele>742.8</ele>
        <time>2019-08-15T09:37:54Z</time>
      </trkpt>
      <trkpt lat="41.7996360" lon="-5.4064150">
        <ele>743.0</ele>
        <time>2019-08-15T09:37:56Z</time>
      </trkpt>
      <trkpt lat="41.7996620" lon="-5.4063570">
        <ele>743.1</ele>
        <time>2019-08-15T09:37:58Z</time>
      </trkpt>
      <trkpt lat="41.7996870" lon="-5.4062860">
        <ele>743.2</ele>
        <time>2019-08-15T09:38:00Z</time>
      </trkpt>
      <trkpt lat="41.7997040" lon="-5.4062480">
        <ele>743.3</ele>
        <time>2019-08-15T09:38:01Z</time>
      </trkpt>
      <trkpt lat="41.7997220" lon="-5.4062100">
        <ele>743.2</ele>
        <time>2019-08-15T09:38:02Z</time>
      </trkpt>
      <trkpt lat="41.7997400" lon="-5.4061690">
        <ele>743.1</ele>
        <time>2019-08-15T09:38:03Z</time>
      </trkpt>
      <trkpt lat="41.7997590" lon="-5.4061270">
        <ele>743.2</ele>
        <time>2019-08-15T09:38:04Z</time>
      </trkpt>
      <trkpt lat="41.7997800" lon="-5.4060840">
        <ele>743.3</ele>
        <time>2019-08-15T09:38:05Z</time>
      </trkpt>
      <trkpt lat="41.7998010" lon="-5.4060390">
        <ele>743.3</ele>
        <time>2019-08-15T09:38:06Z</time>
      </trkpt>
      <trkpt lat="41.7998220" lon="-5.4059940">
        <ele>743.2</ele>
        <time>2019-08-15T09:38:07Z</time>
      </trkpt>
      <trkpt lat="41.7998450" lon="-5.4059490">
        <ele>743.2</ele>
        <time>2019-08-15T09:38:08Z</time>
      </trkpt>
      <trkpt lat="41.7998690" lon="-5.4059030">
        <ele>743.1</ele>
        <time>2019-08-15T09:38:09Z</time>
      </trkpt>
      <trkpt lat="41.7998900" lon="-5.4058550">
        <ele>743.1</ele>
        <time>2019-08-15T09:38:10Z</time>
      </trkpt>
      <trkpt lat="41.7999110" lon="-5.4058040">
        <ele>743.1</ele>
        <time>2019-08-15T09:38:11Z</time>
      </trkpt>
      <trkpt lat="41.7999340" lon="-5.4057530">
        <ele>743.1</ele>
        <time>2019-08-15T09:38:12Z</time>
      </trkpt>
      <trkpt lat="41.7999570" lon="-5.4057020">
        <ele>743.1</ele>
        <time>2019-08-15T09:38:13Z</time>
      </trkpt>
      <trkpt lat="41.7999830" lon="-5.4056510">
        <ele>743.1</ele>
        <time>2019-08-15T09:38:14Z</time>
      </trkpt>
      <trkpt lat="41.8000080" lon="-5.4056010">
        <ele>743.3</ele>
        <time>2019-08-15T09:38:15Z</time>
      </trkpt>
      <trkpt lat="41.8000300" lon="-5.4055520">
        <ele>743.4</ele>
        <time>2019-08-15T09:38:16Z</time>
      </trkpt>
      <trkpt lat="41.8000490" lon="-5.4055030">
        <ele>743.4</ele>
        <time>2019-08-15T09:38:17Z</time>
      </trkpt>
      <trkpt lat="41.8000680" lon="-5.4054560">
        <ele>743.5</ele>
        <time>2019-08-15T09:38:18Z</time>
      </trkpt>
      <trkpt lat="41.8000880" lon="-5.4054080">
        <ele>743.6</ele>
        <time>2019-08-15T09:38:19Z</time>
      </trkpt>
      <trkpt lat="41.8001080" lon="-5.4053600">
        <ele>743.7</ele>
        <time>2019-08-15T09:38:20Z</time>
      </trkpt>
      <trkpt lat="41.8001310" lon="-5.4053130">
        <ele>743.7</ele>
        <time>2019-08-15T09:38:21Z</time>
      </trkpt>
      <trkpt lat="41.8001540" lon="-5.4052660">
        <ele>743.7</ele>
        <time>2019-08-15T09:38:22Z</time>
      </trkpt>
      <trkpt lat="41.8001770" lon="-5.4052160">
        <ele>743.5</ele>
        <time>2019-08-15T09:38:23Z</time>
      </trkpt>
      <trkpt lat="41.8002020" lon="-5.4051650">
        <ele>743.4</ele>
        <time>2019-08-15T09:38:24Z</time>
      </trkpt>
      <trkpt lat="41.8002260" lon="-5.4051150">
        <ele>743.3</ele>
        <time>2019-08-15T09:38:25Z</time>
      </trkpt>
      <trkpt lat="41.8002480" lon="-5.4050670">
        <ele>743.3</ele>
        <time>2019-08-15T09:38:26Z</time>
      </trkpt>
      <trkpt lat="41.8002700" lon="-5.4050220">
        <ele>743.3</ele>
        <time>2019-08-15T09:38:27Z</time>
      </trkpt>
      <trkpt lat="41.8002910" lon="-5.4049780">
        <ele>743.3</ele>
        <time>2019-08-15T09:38:28Z</time>
      </trkpt>
      <trkpt lat="41.8003110" lon="-5.4049380">
        <ele>743.2</ele>
        <time>2019-08-15T09:38:29Z</time>
      </trkpt>
      <trkpt lat="41.8003300" lon="-5.4048980">
        <ele>743.1</ele>
        <time>2019-08-15T09:38:30Z</time>
      </trkpt>
      <trkpt lat="41.8003500" lon="-5.4048580">
        <ele>743.0</ele>
        <time>2019-08-15T09:38:31Z</time>
      </trkpt>
      <trkpt lat="41.8003710" lon="-5.4048160">
        <ele>743.0</ele>
        <time>2019-08-15T09:38:32Z</time>
      </trkpt>
      <trkpt lat="41.8003930" lon="-5.4047710">
        <ele>742.9</ele>
        <time>2019-08-15T09:38:33Z</time>
      </trkpt>
      <trkpt lat="41.8004140" lon="-5.4047230">
        <ele>742.9</ele>
        <time>2019-08-15T09:38:34Z</time>
      </trkpt>
      <trkpt lat="41.8004370" lon="-5.4046760">
        <ele>742.8</ele>
        <time>2019-08-15T09:38:35Z</time>
      </trkpt>
      <trkpt lat="41.8004600" lon="-5.4046310">
        <ele>742.7</ele>
        <time>2019-08-15T09:38:36Z</time>
      </trkpt>
      <trkpt lat="41.8004840" lon="-5.4045870">
        <ele>742.6</ele>
        <time>2019-08-15T09:38:37Z</time>
      </trkpt>
      <trkpt lat="41.8005070" lon="-5.4045450">
        <ele>742.6</ele>
        <time>2019-08-15T09:38:38Z</time>
      </trkpt>
      <trkpt lat="41.8005290" lon="-5.4045000">
        <ele>742.5</ele>
        <time>2019-08-15T09:38:39Z</time>
      </trkpt>
      <trkpt lat="41.8005490" lon="-5.4044570">
        <ele>742.5</ele>
        <time>2019-08-15T09:38:40Z</time>
      </trkpt>
      <trkpt lat="41.8005710" lon="-5.4044150">
        <ele>742.5</ele>
        <time>2019-08-15T09:38:41Z</time>
      </trkpt>
      <trkpt lat="41.8005950" lon="-5.4043740">
        <ele>742.5</ele>
        <time>2019-08-15T09:38:42Z</time>
      </trkpt>
      <trkpt lat="41.8006210" lon="-5.4043340">
        <ele>742.5</ele>
        <time>2019-08-15T09:38:43Z</time>
      </trkpt>
      <trkpt lat="41.8006470" lon="-5.4042910">
        <ele>742.4</ele>
        <time>2019-08-15T09:38:44Z</time>
      </trkpt>
      <trkpt lat="41.8006700" lon="-5.4042510">
        <ele>742.4</ele>
        <time>2019-08-15T09:38:45Z</time>
      </trkpt>
      <trkpt lat="41.8006940" lon="-5.4042090">
        <ele>742.4</ele>
        <time>2019-08-15T09:38:46Z</time>
      </trkpt>
      <trkpt lat="41.8007170" lon="-5.4041670">
        <ele>742.3</ele>
        <time>2019-08-15T09:38:47Z</time>
      </trkpt>
      <trkpt lat="41.8007410" lon="-5.4041230">
        <ele>742.2</ele>
        <time>2019-08-15T09:38:48Z</time>
      </trkpt>
      <trkpt lat="41.8007660" lon="-5.4040800">
        <ele>742.1</ele>
        <time>2019-08-15T09:38:49Z</time>
      </trkpt>
      <trkpt lat="41.8007910" lon="-5.4040370">
        <ele>742.1</ele>
        <time>2019-08-15T09:38:50Z</time>
      </trkpt>
      <trkpt lat="41.8008180" lon="-5.4039970">
        <ele>742.1</ele>
        <time>2019-08-15T09:38:51Z</time>
      </trkpt>
      <trkpt lat="41.8008450" lon="-5.4039560">
        <ele>742.1</ele>
        <time>2019-08-15T09:38:52Z</time>
      </trkpt>
      <trkpt lat="41.8008720" lon="-5.4039150">
        <ele>742.1</ele>
        <time>2019-08-15T09:38:53Z</time>
      </trkpt>
      <trkpt lat="41.8008990" lon="-5.4038730">
        <ele>742.0</ele>
        <time>2019-08-15T09:38:54Z</time>
      </trkpt>
      <trkpt lat="41.8009260" lon="-5.4038300">
        <ele>742.0</ele>
        <time>2019-08-15T09:38:55Z</time>
      </trkpt>
      <trkpt lat="41.8009520" lon="-5.4037870">
        <ele>742.0</ele>
        <time>2019-08-15T09:38:56Z</time>
      </trkpt>
      <trkpt lat="41.8009770" lon="-5.4037460">
        <ele>741.9</ele>
        <time>2019-08-15T09:38:57Z</time>
      </trkpt>
      <trkpt lat="41.8010000" lon="-5.4037050">
        <ele>741.9</ele>
        <time>2019-08-15T09:38:58Z</time>
      </trkpt>
      <trkpt lat="41.8010220" lon="-5.4036650">
        <ele>741.9</ele>
        <time>2019-08-15T09:38:59Z</time>
      </trkpt>
      <trkpt lat="41.8010460" lon="-5.4036230">
        <ele>741.9</ele>
        <time>2019-08-15T09:39:00Z</time>
      </trkpt>
      <trkpt lat="41.8010710" lon="-5.4035820">
        <ele>742.0</ele>
        <time>2019-08-15T09:39:01Z</time>
      </trkpt>
      <trkpt lat="41.8010950" lon="-5.4035410">
        <ele>742.0</ele>
        <time>2019-08-15T09:39:02Z</time>
      </trkpt>
      <trkpt lat="41.8011210" lon="-5.4035010">
        <ele>742.0</ele>
        <time>2019-08-15T09:39:03Z</time>
      </trkpt>
      <trkpt lat="41.8011470" lon="-5.4034600">
        <ele>742.0</ele>
        <time>2019-08-15T09:39:04Z</time>
      </trkpt>
      <trkpt lat="41.8011740" lon="-5.4034180">
        <ele>742.1</ele>
        <time>2019-08-15T09:39:05Z</time>
      </trkpt>
      <trkpt lat="41.8011990" lon="-5.4033750">
        <ele>742.2</ele>
        <time>2019-08-15T09:39:06Z</time>
      </trkpt>
      <trkpt lat="41.8012240" lon="-5.4033320">
        <ele>742.2</ele>
        <time>2019-08-15T09:39:07Z</time>
      </trkpt>
      <trkpt lat="41.8012500" lon="-5.4032910">
        <ele>742.2</ele>
        <time>2019-08-15T09:39:08Z</time>
      </trkpt>
      <trkpt lat="41.8012750" lon="-5.4032480">
        <ele>742.3</ele>
        <time>2019-08-15T09:39:09Z</time>
      </trkpt>
      <trkpt lat="41.8013010" lon="-5.4032070">
        <ele>742.3</ele>
        <time>2019-08-15T09:39:10Z</time>
      </trkpt>
      <trkpt lat="41.8013260" lon="-5.4031670">
        <ele>742.4</ele>
        <time>2019-08-15T09:39:11Z</time>
      </trkpt>
      <trkpt lat="41.8013500" lon="-5.4031250">
        <ele>742.4</ele>
        <time>2019-08-15T09:39:12Z</time>
      </trkpt>
      <trkpt lat="41.8013750" lon="-5.4030830">
        <ele>742.3</ele>
        <time>2019-08-15T09:39:13Z</time>
      </trkpt>
      <trkpt lat="41.8014000" lon="-5.4030410">
        <ele>742.4</ele>
        <time>2019-08-15T09:39:14Z</time>
      </trkpt>
      <trkpt lat="41.8014260" lon="-5.4030010">
        <ele>742.4</ele>
        <time>2019-08-15T09:39:15Z</time>
      </trkpt>
      <trkpt lat="41.8014510" lon="-5.4029600">
        <ele>742.4</ele>
        <time>2019-08-15T09:39:16Z</time>
      </trkpt>
      <trkpt lat="41.8014760" lon="-5.4029200">
        <ele>742.4</ele>
        <time>2019-08-15T09:39:17Z</time>
      </trkpt>
      <trkpt lat="41.8015000" lon="-5.4028820">
        <ele>742.5</ele>
        <time>2019-08-15T09:39:18Z</time>
      </trkpt>
      <trkpt lat="41.8015220" lon="-5.4028450">
        <ele>742.4</ele>
        <time>2019-08-15T09:39:19Z</time>
      </trkpt>
      <trkpt lat="41.8015420" lon="-5.4028080">
        <ele>742.3</ele>
        <time>2019-08-15T09:39:20Z</time>
      </trkpt>
      <trkpt lat="41.8015620" lon="-5.4027720">
        <ele>742.2</ele>
        <time>2019-08-15T09:39:21Z</time>
      </trkpt>
      <trkpt lat="41.8015810" lon="-5.4027390">
        <ele>742.2</ele>
        <time>2019-08-15T09:39:22Z</time>
      </trkpt>
      <trkpt lat="41.8016000" lon="-5.4027070">
        <ele>742.2</ele>
        <time>2019-08-15T09:39:23Z</time>
      </trkpt>
      <trkpt lat="41.8016190" lon="-5.4026750">
        <ele>742.2</ele>
        <time>2019-08-15T09:39:24Z</time>
      </trkpt>
      <trkpt lat="41.8016390" lon="-5.4026470">
        <ele>742.2</ele>
        <time>2019-08-15T09:39:25Z</time>
      </trkpt>
      <trkpt lat="41.8016610" lon="-5.4026270">
        <ele>742.2</ele>
        <time>2019-08-15T09:39:26Z</time>
      </trkpt>
      <trkpt lat="41.8017060" lon="-5.4026100">
        <ele>742.3</ele>
        <time>2019-08-15T09:39:28Z</time>
      </trkpt>
      <trkpt lat="41.8017480" lon="-5.4026030">
        <ele>742.4</ele>
        <time>2019-08-15T09:39:30Z</time>
      </trkpt>
      <trkpt lat="41.8017870" lon="-5.4025960">
        <ele>742.7</ele>
        <time>2019-08-15T09:39:32Z</time>
      </trkpt>
      <trkpt lat="41.8018360" lon="-5.4025810">
        <ele>743.0</ele>
        <time>2019-08-15T09:39:34Z</time>
      </trkpt>
      <trkpt lat="41.8018870" lon="-5.4025640">
        <ele>743.2</ele>
        <time>2019-08-15T09:39:36Z</time>
      </trkpt>
      <trkpt lat="41.8019390" lon="-5.4025490">
        <ele>743.4</ele>
        <time>2019-08-15T09:39:38Z</time>
      </trkpt>
      <trkpt lat="41.8019930" lon="-5.4025320">
        <ele>743.5</ele>
        <time>2019-08-15T09:39:40Z</time>
      </trkpt>
      <trkpt lat="41.8020200" lon="-5.4025250">
        <ele>743.6</ele>
        <time>2019-08-15T09:39:41Z</time>
      </trkpt>
      <trkpt lat="41.8020480" lon="-5.4025210">
        <ele>743.7</ele>
        <time>2019-08-15T09:39:42Z</time>
      </trkpt>
      <trkpt lat="41.8020760" lon="-5.4025180">
        <ele>743.8</ele>
        <time>2019-08-15T09:39:43Z</time>
      </trkpt>
      <trkpt lat="41.8021040" lon="-5.4025150">
        <ele>743.9</ele>
        <time>2019-08-15T09:39:44Z</time>
      </trkpt>
      <trkpt lat="41.8021320" lon="-5.4025100">
        <ele>744.0</ele>
        <time>2019-08-15T09:39:45Z</time>
      </trkpt>
      <trkpt lat="41.8021610" lon="-5.4025080">
        <ele>744.0</ele>
        <time>2019-08-15T09:39:46Z</time>
      </trkpt>
      <trkpt lat="41.8021900" lon="-5.4025070">
        <ele>744.0</ele>
        <time>2019-08-15T09:39:47Z</time>
      </trkpt>
      <trkpt lat="41.8022180" lon="-5.4025050">
        <ele>744.0</ele>
        <time>2019-08-15T09:39:48Z</time>
      </trkpt>
      <trkpt lat="41.8022470" lon="-5.4025030">
        <ele>744.1</ele>
        <time>2019-08-15T09:39:49Z</time>
      </trkpt>
      <trkpt lat="41.8022750" lon="-5.4025010">
        <ele>744.1</ele>
        <time>2019-08-15T09:39:50Z</time>
      </trkpt>
      <trkpt lat="41.8023050" lon="-5.4025000">
        <ele>744.2</ele>
        <time>2019-08-15T09:39:51Z</time>
      </trkpt>
      <trkpt lat="41.8023350" lon="-5.4024990">
        <ele>744.2</ele>
        <time>2019-08-15T09:39:52Z</time>
      </trkpt>
      <trkpt lat="41.8023650" lon="-5.4024970">
        <ele>744.2</ele>
        <time>2019-08-15T09:39:53Z</time>
      </trkpt>
      <trkpt lat="41.8023960" lon="-5.4024960">
        <ele>744.3</ele>
        <time>2019-08-15T09:39:54Z</time>
      </trkpt>
      <trkpt lat="41.8024270" lon="-5.4024960">
        <ele>744.3</ele>
        <time>2019-08-15T09:39:55Z</time>
      </trkpt>
      <trkpt lat="41.8024580" lon="-5.4024930">
        <ele>744.4</ele>
        <time>2019-08-15T09:39:56Z</time>
      </trkpt>
      <trkpt lat="41.8024900" lon="-5.4024900">
        <ele>744.4</ele>
        <time>2019-08-15T09:39:57Z</time>
      </trkpt>
      <trkpt lat="41.8025240" lon="-5.4024870">
        <ele>744.4</ele>
        <time>2019-08-15T09:39:58Z</time>
      </trkpt>
      <trkpt lat="41.8025570" lon="-5.4024850">
        <ele>744.4</ele>
        <time>2019-08-15T09:39:59Z</time>
      </trkpt>
      <trkpt lat="41.8025900" lon="-5.4024820">
        <ele>744.4</ele>
        <time>2019-08-15T09:40:00Z</time>
      </trkpt>
      <trkpt lat="41.8026230" lon="-5.4024790">
        <ele>744.4</ele>
        <time>2019-08-15T09:40:01Z</time>
      </trkpt>
      <trkpt lat="41.8026560" lon="-5.4024760">
        <ele>744.5</ele>
        <time>2019-08-15T09:40:02Z</time>
      </trkpt>
      <trkpt lat="41.8026890" lon="-5.4024740">
        <ele>744.5</ele>
        <time>2019-08-15T09:40:03Z</time>
      </trkpt>
      <trkpt lat="41.8027230" lon="-5.4024710">
        <ele>744.6</ele>
        <time>2019-08-15T09:40:04Z</time>
      </trkpt>
      <trkpt lat="41.8027570" lon="-5.4024690">
        <ele>744.6</ele>
        <time>2019-08-15T09:40:05Z</time>
      </trkpt>
      <trkpt lat="41.8027910" lon="-5.4024670">
        <ele>744.7</ele>
        <time>2019-08-15T09:40:06Z</time>
      </trkpt>
      <trkpt lat="41.8028240" lon="-5.4024680">
        <ele>744.8</ele>
        <time>2019-08-15T09:40:07Z</time>
      </trkpt>
      <trkpt lat="41.8028580" lon="-5.4024690">
        <ele>744.9</ele>
        <time>2019-08-15T09:40:08Z</time>
      </trkpt>
      <trkpt lat="41.8028930" lon="-5.4024700">
        <ele>744.9</ele>
        <time>2019-08-15T09:40:09Z</time>
      </trkpt>
      <trkpt lat="41.8029270" lon="-5.4024710">
        <ele>745.0</ele>
        <time>2019-08-15T09:40:10Z</time>
      </trkpt>
      <trkpt lat="41.8029620" lon="-5.4024730">
        <ele>745.2</ele>
        <time>2019-08-15T09:40:11Z</time>
      </trkpt>
      <trkpt lat="41.8029970" lon="-5.4024770">
        <ele>745.3</ele>
        <time>2019-08-15T09:40:12Z</time>
      </trkpt>
      <trkpt lat="41.8030310" lon="-5.4024810">
        <ele>745.4</ele>
        <time>2019-08-15T09:40:13Z</time>
      </trkpt>
      <trkpt lat="41.8030660" lon="-5.4024840">
        <ele>745.5</ele>
        <time>2019-08-15T09:40:14Z</time>
      </trkpt>
      <trkpt lat="41.8031000" lon="-5.4024860">
        <ele>745.7</ele>
        <time>2019-08-15T09:40:15Z</time>
      </trkpt>
      <trkpt lat="41.8031330" lon="-5.4024890">
        <ele>745.7</ele>
        <time>2019-08-15T09:40:16Z</time>
      </trkpt>
      <trkpt lat="41.8031660" lon="-5.4024930">
        <ele>745.8</ele>
        <time>2019-08-15T09:40:17Z</time>
      </trkpt>
      <trkpt lat="41.8031980" lon="-5.4024960">
        <ele>745.8</ele>
        <time>2019-08-15T09:40:18Z</time>
      </trkpt>
      <trkpt lat="41.8032300" lon="-5.4024980">
        <ele>745.8</ele>
        <time>2019-08-15T09:40:19Z</time>
      </trkpt>
      <trkpt lat="41.8032640" lon="-5.4025000">
        <ele>745.8</ele>
        <time>2019-08-15T09:40:20Z</time>
      </trkpt>
      <trkpt lat="41.8032980" lon="-5.4025020">
        <ele>745.8</ele>
        <time>2019-08-15T09:40:21Z</time>
      </trkpt>
      <trkpt lat="41.8033320" lon="-5.4025040">
        <ele>745.7</ele>
        <time>2019-08-15T09:40:22Z</time>
      </trkpt>
      <trkpt lat="41.8033660" lon="-5.4025060">
        <ele>745.7</ele>
        <time>2019-08-15T09:40:23Z</time>
      </trkpt>
      <trkpt lat="41.8033990" lon="-5.4025070">
        <ele>745.6</ele>
        <time>2019-08-15T09:40:24Z</time>
      </trkpt>
      <trkpt lat="41.8034310" lon="-5.4025090">
        <ele>745.6</ele>
        <time>2019-08-15T09:40:25Z</time>
      </trkpt>
      <trkpt lat="41.8034620" lon="-5.4025110">
        <ele>745.5</ele>
        <time>2019-08-15T09:40:26Z</time>
      </trkpt>
      <trkpt lat="41.8034930" lon="-5.4025120">
        <ele>745.4</ele>
        <time>2019-08-15T09:40:27Z</time>
      </trkpt>
      <trkpt lat="41.8035240" lon="-5.4025130">
        <ele>745.3</ele>
        <time>2019-08-15T09:40:28Z</time>
      </trkpt>
      <trkpt lat="41.8035540" lon="-5.4025130">
        <ele>745.3</ele>
        <time>2019-08-15T09:40:29Z</time>
      </trkpt>
      <trkpt lat="41.8035860" lon="-5.4025120">
        <ele>745.3</ele>
        <time>2019-08-15T09:40:30Z</time>
      </trkpt>
      <trkpt lat="41.8036170" lon="-5.4025100">
        <ele>745.3</ele>
        <time>2019-08-15T09:40:31Z</time>
      </trkpt>
      <trkpt lat="41.8036480" lon="-5.4025100">
        <ele>745.3</ele>
        <time>2019-08-15T09:40:32Z</time>
      </trkpt>
      <trkpt lat="41.8036770" lon="-5.4025100">
        <ele>745.3</ele>
        <time>2019-08-15T09:40:33Z</time>
      </trkpt>
      <trkpt lat="41.8037040" lon="-5.4025090">
        <ele>745.3</ele>
        <time>2019-08-15T09:40:34Z</time>
      </trkpt>
      <trkpt lat="41.8037620" lon="-5.4025040">
        <ele>745.3</ele>
        <time>2019-08-15T09:40:36Z</time>
      </trkpt>
      <trkpt lat="41.8037940" lon="-5.4025020">
        <ele>745.5</ele>
        <time>2019-08-15T09:40:37Z</time>
      </trkpt>
      <trkpt lat="41.8038260" lon="-5.4024990">
        <ele>745.6</ele>
        <time>2019-08-15T09:40:38Z</time>
      </trkpt>
      <trkpt lat="41.8038590" lon="-5.4024970">
        <ele>745.9</ele>
        <time>2019-08-15T09:40:39Z</time>
      </trkpt>
      <trkpt lat="41.8038900" lon="-5.4024940">
        <ele>746.1</ele>
        <time>2019-08-15T09:40:40Z</time>
      </trkpt>
      <trkpt lat="41.8039200" lon="-5.4024920">
        <ele>746.3</ele>
        <time>2019-08-15T09:40:41Z</time>
      </trkpt>
      <trkpt lat="41.8039480" lon="-5.4024890">
        <ele>746.5</ele>
        <time>2019-08-15T09:40:42Z</time>
      </trkpt>
      <trkpt lat="41.8039740" lon="-5.4024860">
        <ele>746.7</ele>
        <time>2019-08-15T09:40:43Z</time>
      </trkpt>
      <trkpt lat="41.8040220" lon="-5.4024810">
        <ele>747.1</ele>
        <time>2019-08-15T09:40:45Z</time>
      </trkpt>
      <trkpt lat="41.8040730" lon="-5.4024700">
        <ele>747.5</ele>
        <time>2019-08-15T09:40:47Z</time>
      </trkpt>
      <trkpt lat="41.8041270" lon="-5.4024580">
        <ele>747.7</ele>
        <time>2019-08-15T09:40:49Z</time>
      </trkpt>
      <trkpt lat="41.8041540" lon="-5.4024520">
        <ele>747.9</ele>
        <time>2019-08-15T09:40:50Z</time>
      </trkpt>
      <trkpt lat="41.8041810" lon="-5.4024450">
        <ele>748.0</ele>
        <time>2019-08-15T09:40:51Z</time>
      </trkpt>
      <trkpt lat="41.8042090" lon="-5.4024370">
        <ele>748.2</ele>
        <time>2019-08-15T09:40:52Z</time>
      </trkpt>
      <trkpt lat="41.8042370" lon="-5.4024310">
        <ele>748.3</ele>
        <time>2019-08-15T09:40:53Z</time>
      </trkpt>
      <trkpt lat="41.8042660" lon="-5.4024240">
        <ele>748.5</ele>
        <time>2019-08-15T09:40:54Z</time>
      </trkpt>
      <trkpt lat="41.8042940" lon="-5.4024130">
        <ele>748.7</ele>
        <time>2019-08-15T09:40:55Z</time>
      </trkpt>
      <trkpt lat="41.8043220" lon="-5.4024020">
        <ele>748.8</ele>
        <time>2019-08-15T09:40:56Z</time>
      </trkpt>
      <trkpt lat="41.8043490" lon="-5.4023920">
        <ele>748.9</ele>
        <time>2019-08-15T09:40:57Z</time>
      </trkpt>
      <trkpt lat="41.8043760" lon="-5.4023800">
        <ele>749.0</ele>
        <time>2019-08-15T09:40:58Z</time>
      </trkpt>
      <trkpt lat="41.8044030" lon="-5.4023690">
        <ele>749.2</ele>
        <time>2019-08-15T09:40:59Z</time>
      </trkpt>
      <trkpt lat="41.8044300" lon="-5.4023590">
        <ele>749.3</ele>
        <time>2019-08-15T09:41:00Z</time>
      </trkpt>
      <trkpt lat="41.8044560" lon="-5.4023490">
        <ele>749.4</ele>
        <time>2019-08-15T09:41:01Z</time>
      </trkpt>
      <trkpt lat="41.8044820" lon="-5.4023400">
        <ele>749.5</ele>
        <time>2019-08-15T09:41:02Z</time>
      </trkpt>
      <trkpt lat="41.8045340" lon="-5.4023230">
        <ele>749.6</ele>
        <time>2019-08-15T09:41:04Z</time>
      </trkpt>
      <trkpt lat="41.8045860" lon="-5.4023090">
        <ele>749.8</ele>
        <time>2019-08-15T09:41:06Z</time>
      </trkpt>
      <trkpt lat="41.8046380" lon="-5.4023020">
        <ele>749.8</ele>
        <time>2019-08-15T09:41:08Z</time>
      </trkpt>
      <trkpt lat="41.8046880" lon="-5.4023010">
        <ele>749.9</ele>
        <time>2019-08-15T09:41:10Z</time>
      </trkpt>
      <trkpt lat="41.8047400" lon="-5.4022990">
        <ele>750.1</ele>
        <time>2019-08-15T09:41:12Z</time>
      </trkpt>
      <trkpt lat="41.8047910" lon="-5.4022990">
        <ele>750.2</ele>
        <time>2019-08-15T09:41:14Z</time>
      </trkpt>
      <trkpt lat="41.8048390" lon="-5.4023000">
        <ele>750.4</ele>
        <time>2019-08-15T09:41:16Z</time>
      </trkpt>
      <trkpt lat="41.8048840" lon="-5.4023020">
        <ele>750.5</ele>
        <time>2019-08-15T09:41:18Z</time>
      </trkpt>
      <trkpt lat="41.8049290" lon="-5.4022970">
        <ele>750.7</ele>
        <time>2019-08-15T09:41:20Z</time>
      </trkpt>
      <trkpt lat="41.8049750" lon="-5.4022910">
        <ele>751.0</ele>
        <time>2019-08-15T09:41:22Z</time>
      </trkpt>
      <trkpt lat="41.8050210" lon="-5.4022860">
        <ele>751.4</ele>
        <time>2019-08-15T09:41:24Z</time>
      </trkpt>
      <trkpt lat="41.8050680" lon="-5.4022830">
        <ele>751.8</ele>
        <time>2019-08-15T09:41:26Z</time>
      </trkpt>
      <trkpt lat="41.8051160" lon="-5.4022840">
        <ele>752.2</ele>
        <time>2019-08-15T09:41:28Z</time>
      </trkpt>
      <trkpt lat="41.8051630" lon="-5.4022900">
        <ele>752.5</ele>
        <time>2019-08-15T09:41:30Z</time>
      </trkpt>
      <trkpt lat="41.8052080" lon="-5.4022960">
        <ele>752.8</ele>
        <time>2019-08-15T09:41:32Z</time>
      </trkpt>
      <trkpt lat="41.8052500" lon="-5.4023090">
        <ele>753.2</ele>
        <time>2019-08-15T09:41:34Z</time>
      </trkpt>
      <trkpt lat="41.8052930" lon="-5.4023200">
        <ele>753.6</ele>
        <time>2019-08-15T09:41:36Z</time>
      </trkpt>
      <trkpt lat="41.8053380" lon="-5.4023300">
        <ele>753.9</ele>
        <time>2019-08-15T09:41:38Z</time>
      </trkpt>
      <trkpt lat="41.8053810" lon="-5.4023430">
        <ele>754.3</ele>
        <time>2019-08-15T09:41:40Z</time>
      </trkpt>
      <trkpt lat="41.8054240" lon="-5.4023540">
        <ele>754.8</ele>
        <time>2019-08-15T09:41:42Z</time>
      </trkpt>
      <trkpt lat="41.8054680" lon="-5.4023670">
        <ele>755.2</ele>
        <time>2019-08-15T09:41:44Z</time>
      </trkpt>
      <trkpt lat="41.8055110" lon="-5.4023800">
        <ele>755.5</ele>
        <time>2019-08-15T09:41:46Z</time>
      </trkpt>
      <trkpt lat="41.8055550" lon="-5.4023940">
        <ele>756.0</ele>
        <time>2019-08-15T09:41:48Z</time>
      </trkpt>
      <trkpt lat="41.8055980" lon="-5.4024090">
        <ele>756.6</ele>
        <time>2019-08-15T09:41:50Z</time>
      </trkpt>
      <trkpt lat="41.8056380" lon="-5.4024250">
        <ele>757.2</ele>
        <time>2019-08-15T09:41:52Z</time>
      </trkpt>
      <trkpt lat="41.8056770" lon="-5.4024420">
        <ele>757.8</ele>
        <time>2019-08-15T09:41:54Z</time>
      </trkpt>
      <trkpt lat="41.8057110" lon="-5.4024550">
        <ele>758.2</ele>
        <time>2019-08-15T09:41:56Z</time>
      </trkpt>
      <trkpt lat="41.8057420" lon="-5.4024670">
        <ele>758.4</ele>
        <time>2019-08-15T09:41:58Z</time>
      </trkpt>
      <trkpt lat="41.8057740" lon="-5.4024800">
        <ele>758.8</ele>
        <time>2019-08-15T09:42:00Z</time>
      </trkpt>
      <trkpt lat="41.8058060" lon="-5.4024940">
        <ele>759.3</ele>
        <time>2019-08-15T09:42:02Z</time>
      </trkpt>
      <trkpt lat="41.8058380" lon="-5.4025070">
        <ele>759.8</ele>
        <time>2019-08-15T09:42:04Z</time>
      </trkpt>
      <trkpt lat="41.8058710" lon="-5.4025200">
        <ele>760.2</ele>
        <time>2019-08-15T09:42:06Z</time>
      </trkpt>
      <trkpt lat="41.8059040" lon="-5.4025330">
        <ele>760.5</ele>
        <time>2019-08-15T09:42:08Z</time>
      </trkpt>
      <trkpt lat="41.8059380" lon="-5.4025440">
        <ele>760.8</ele>
        <time>2019-08-15T09:42:10Z</time>
      </trkpt>
      <trkpt lat="41.8059700" lon="-5.4025570">
        <ele>761.2</ele>
        <time>2019-08-15T09:42:12Z</time>
      </trkpt>
      <trkpt lat="41.8060020" lon="-5.4025710">
        <ele>761.6</ele>
        <time>2019-08-15T09:42:14Z</time>
      </trkpt>
      <trkpt lat="41.8060350" lon="-5.4025860">
        <ele>762.0</ele>
        <time>2019-08-15T09:42:16Z</time>
      </trkpt>
      <trkpt lat="41.8060710" lon="-5.4025990">
        <ele>762.4</ele>
        <time>2019-08-15T09:42:18Z</time>
      </trkpt>
      <trkpt lat="41.8061070" lon="-5.4026130">
        <ele>762.9</ele>
        <time>2019-08-15T09:42:20Z</time>
      </trkpt>
      <trkpt lat="41.8061430" lon="-5.4026280">
        <ele>763.1</ele>
        <time>2019-08-15T09:42:22Z</time>
      </trkpt>
      <trkpt lat="41.8061780" lon="-5.4026420">
        <ele>763.4</ele>
        <time>2019-08-15T09:42:24Z</time>
      </trkpt>
      <trkpt lat="41.8062170" lon="-5.4026600">
        <ele>763.7</ele>
        <time>2019-08-15T09:42:26Z</time>
      </trkpt>
      <trkpt lat="41.8062570" lon="-5.4026750">
        <ele>764.0</ele>
        <time>2019-08-15T09:42:28Z</time>
      </trkpt>
      <trkpt lat="41.8062960" lon="-5.4026900">
        <ele>764.3</ele>
        <time>2019-08-15T09:42:30Z</time>
      </trkpt>
      <trkpt lat="41.8063360" lon="-5.4027090">
        <ele>764.6</ele>
        <time>2019-08-15T09:42:32Z</time>
      </trkpt>
      <trkpt lat="41.8063780" lon="-5.4027260">
        <ele>764.8</ele>
        <time>2019-08-15T09:42:34Z</time>
      </trkpt>
      <trkpt lat="41.8064210" lon="-5.4027440">
        <ele>764.9</ele>
        <time>2019-08-15T09:42:36Z</time>
      </trkpt>
      <trkpt lat="41.8064670" lon="-5.4027630">
        <ele>765.1</ele>
        <time>2019-08-15T09:42:38Z</time>
      </trkpt>
      <trkpt lat="41.8065180" lon="-5.4027870">
        <ele>765.2</ele>
        <time>2019-08-15T09:42:40Z</time>
      </trkpt>
      <trkpt lat="41.8065600" lon="-5.4028060">
        <ele>765.3</ele>
        <time>2019-08-15T09:42:42Z</time>
      </trkpt>
      <trkpt lat="41.8066000" lon="-5.4028240">
        <ele>765.3</ele>
        <time>2019-08-15T09:42:44Z</time>
      </trkpt>
      <trkpt lat="41.8066460" lon="-5.4028440">
        <ele>765.4</ele>
        <time>2019-08-15T09:42:46Z</time>
      </trkpt>
      <trkpt lat="41.8066970" lon="-5.4028680">
        <ele>765.4</ele>
        <time>2019-08-15T09:42:48Z</time>
      </trkpt>
      <trkpt lat="41.8067250" lon="-5.4028800">
        <ele>765.4</ele>
        <time>2019-08-15T09:42:49Z</time>
      </trkpt>
      <trkpt lat="41.8067540" lon="-5.4028920">
        <ele>765.4</ele>
        <time>2019-08-15T09:42:50Z</time>
      </trkpt>
      <trkpt lat="41.8067830" lon="-5.4029060">
        <ele>765.5</ele>
        <time>2019-08-15T09:42:51Z</time>
      </trkpt>
      <trkpt lat="41.8068140" lon="-5.4029200">
        <ele>765.5</ele>
        <time>2019-08-15T09:42:52Z</time>
      </trkpt>
      <trkpt lat="41.8068460" lon="-5.4029340">
        <ele>765.5</ele>
        <time>2019-08-15T09:42:53Z</time>
      </trkpt>
      <trkpt lat="41.8068800" lon="-5.4029480">
        <ele>765.5</ele>
        <time>2019-08-15T09:42:54Z</time>
      </trkpt>
      <trkpt lat="41.8069150" lon="-5.4029620">
        <ele>765.5</ele>
        <time>2019-08-15T09:42:55Z</time>
      </trkpt>
      <trkpt lat="41.8069510" lon="-5.4029770">
        <ele>765.5</ele>
        <time>2019-08-15T09:42:56Z</time>
      </trkpt>
      <trkpt lat="41.8069880" lon="-5.4029930">
        <ele>765.5</ele>
        <time>2019-08-15T09:42:57Z</time>
      </trkpt>
      <trkpt lat="41.8070240" lon="-5.4030070">
        <ele>765.5</ele>
        <time>2019-08-15T09:42:58Z</time>
      </trkpt>
      <trkpt lat="41.8070590" lon="-5.4030190">
        <ele>765.5</ele>
        <time>2019-08-15T09:42:59Z</time>
      </trkpt>
      <trkpt lat="41.8070920" lon="-5.4030310">
        <ele>765.5</ele>
        <time>2019-08-15T09:43:00Z</time>
      </trkpt>
      <trkpt lat="41.8071240" lon="-5.4030420">
        <ele>765.5</ele>
        <time>2019-08-15T09:43:01Z</time>
      </trkpt>
      <trkpt lat="41.8071580" lon="-5.4030560">
        <ele>765.5</ele>
        <time>2019-08-15T09:43:02Z</time>
      </trkpt>
      <trkpt lat="41.8071960" lon="-5.4030700">
        <ele>765.5</ele>
        <time>2019-08-15T09:43:03Z</time>
      </trkpt>
      <trkpt lat="41.8072360" lon="-5.4030840">
        <ele>765.4</ele>
        <time>2019-08-15T09:43:04Z</time>
      </trkpt>
      <trkpt lat="41.8072760" lon="-5.4031000">
        <ele>765.4</ele>
        <time>2019-08-15T09:43:05Z</time>
      </trkpt>
      <trkpt lat="41.8073160" lon="-5.4031150">
        <ele>765.4</ele>
        <time>2019-08-15T09:43:06Z</time>
      </trkpt>
      <trkpt lat="41.8073560" lon="-5.4031300">
        <ele>765.4</ele>
        <time>2019-08-15T09:43:07Z</time>
      </trkpt>
      <trkpt lat="41.8073980" lon="-5.4031450">
        <ele>765.3</ele>
        <time>2019-08-15T09:43:08Z</time>
      </trkpt>
      <trkpt lat="41.8074400" lon="-5.4031610">
        <ele>765.3</ele>
        <time>2019-08-15T09:43:09Z</time>
      </trkpt>
      <trkpt lat="41.8074850" lon="-5.4031770">
        <ele>765.2</ele>
        <time>2019-08-15T09:43:10Z</time>
      </trkpt>
      <trkpt lat="41.8075300" lon="-5.4031920">
        <ele>765.2</ele>
        <time>2019-08-15T09:43:11Z</time>
      </trkpt>
      <trkpt lat="41.8075780" lon="-5.4032090">
        <ele>765.1</ele>
        <time>2019-08-15T09:43:12Z</time>
      </trkpt>
      <trkpt lat="41.8076260" lon="-5.4032270">
        <ele>765.0</ele>
        <time>2019-08-15T09:43:13Z</time>
      </trkpt>
      <trkpt lat="41.8076750" lon="-5.4032460">
        <ele>764.9</ele>
        <time>2019-08-15T09:43:14Z</time>
      </trkpt>
      <trkpt lat="41.8077260" lon="-5.4032640">
        <ele>764.8</ele>
        <time>2019-08-15T09:43:15Z</time>
      </trkpt>
      <trkpt lat="41.8077780" lon="-5.4032830">
        <ele>764.6</ele>
        <time>2019-08-15T09:43:16Z</time>
      </trkpt>
      <trkpt lat="41.8078290" lon="-5.4033020">
        <ele>764.5</ele>
        <time>2019-08-15T09:43:17Z</time>
      </trkpt>
      <trkpt lat="41.8078790" lon="-5.4033210">
        <ele>764.4</ele>
        <time>2019-08-15T09:43:18Z</time>
      </trkpt>
      <trkpt lat="41.8079290" lon="-5.4033400">
        <ele>764.3</ele>
        <time>2019-08-15T09:43:19Z</time>
      </trkpt>
      <trkpt lat="41.8079790" lon="-5.4033600">
        <ele>764.2</ele>
        <time>2019-08-15T09:43:20Z</time>
      </trkpt>
      <trkpt lat="41.8080280" lon="-5.4033800">
        <ele>764.1</ele>
        <time>2019-08-15T09:43:21Z</time>
      </trkpt>
      <trkpt lat="41.8080770" lon="-5.4034020">
        <ele>764.0</ele>
        <time>2019-08-15T09:43:22Z</time>
      </trkpt>
      <trkpt lat="41.8081260" lon="-5.4034240">
        <ele>764.0</ele>
        <time>2019-08-15T09:43:23Z</time>
      </trkpt>
      <trkpt lat="41.8081770" lon="-5.4034470">
        <ele>764.0</ele>
        <time>2019-08-15T09:43:24Z</time>
      </trkpt>
      <trkpt lat="41.8082280" lon="-5.4034720">
        <ele>764.0</ele>
        <time>2019-08-15T09:43:25Z</time>
      </trkpt>
      <trkpt lat="41.8082780" lon="-5.4034980">
        <ele>764.0</ele>
        <time>2019-08-15T09:43:26Z</time>
      </trkpt>
      <trkpt lat="41.8083290" lon="-5.4035230">
        <ele>763.9</ele>
        <time>2019-08-15T09:43:27Z</time>
      </trkpt>
      <trkpt lat="41.8083780" lon="-5.4035470">
        <ele>763.9</ele>
        <time>2019-08-15T09:43:28Z</time>
      </trkpt>
      <trkpt lat="41.8084260" lon="-5.4035710">
        <ele>763.9</ele>
        <time>2019-08-15T09:43:29Z</time>
      </trkpt>
      <trkpt lat="41.8084720" lon="-5.4035960">
        <ele>763.9</ele>
        <time>2019-08-15T09:43:30Z</time>
      </trkpt>
      <trkpt lat="41.8085180" lon="-5.4036210">
        <ele>763.9</ele>
        <time>2019-08-15T09:43:31Z</time>
      </trkpt>
      <trkpt lat="41.8085630" lon="-5.4036460">
        <ele>763.9</ele>
        <time>2019-08-15T09:43:32Z</time>
      </trkpt>
      <trkpt lat="41.8086100" lon="-5.4036740">
        <ele>764.0</ele>
        <time>2019-08-15T09:43:33Z</time>
      </trkpt>
      <trkpt lat="41.8086560" lon="-5.4037030">
        <ele>764.0</ele>
        <time>2019-08-15T09:43:34Z</time>
      </trkpt>
      <trkpt lat="41.8087040" lon="-5.4037320">
        <ele>764.0</ele>
        <time>2019-08-15T09:43:35Z</time>
      </trkpt>
      <trkpt lat="41.8087500" lon="-5.4037630">
        <ele>764.1</ele>
        <time>2019-08-15T09:43:36Z</time>
      </trkpt>
      <trkpt lat="41.8087960" lon="-5.4037950">
        <ele>764.2</ele>
        <time>2019-08-15T09:43:37Z</time>
      </trkpt>
      <trkpt lat="41.8088390" lon="-5.4038260">
        <ele>764.3</ele>
        <time>2019-08-15T09:43:38Z</time>
      </trkpt>
      <trkpt lat="41.8088810" lon="-5.4038570">
        <ele>764.3</ele>
        <time>2019-08-15T09:43:39Z</time>
      </trkpt>
      <trkpt lat="41.8089240" lon="-5.4038870">
        <ele>764.4</ele>
        <time>2019-08-15T09:43:40Z</time>
      </trkpt>
      <trkpt lat="41.8089650" lon="-5.4039200">
        <ele>764.4</ele>
        <time>2019-08-15T09:43:41Z</time>
      </trkpt>
      <trkpt lat="41.8090080" lon="-5.4039530">
        <ele>764.4</ele>
        <time>2019-08-15T09:43:42Z</time>
      </trkpt>
      <trkpt lat="41.8090510" lon="-5.4039870">
        <ele>764.4</ele>
        <time>2019-08-15T09:43:43Z</time>
      </trkpt>
      <trkpt lat="41.8090930" lon="-5.4040200">
        <ele>764.5</ele>
        <time>2019-08-15T09:43:44Z</time>
      </trkpt>
      <trkpt lat="41.8091330" lon="-5.4040500">
        <ele>764.5</ele>
        <time>2019-08-15T09:43:45Z</time>
      </trkpt>
      <trkpt lat="41.8091730" lon="-5.4040760">
        <ele>764.4</ele>
        <time>2019-08-15T09:43:46Z</time>
      </trkpt>
      <trkpt lat="41.8092120" lon="-5.4040990">
        <ele>764.4</ele>
        <time>2019-08-15T09:43:47Z</time>
      </trkpt>
      <trkpt lat="41.8092530" lon="-5.4041210">
        <ele>764.4</ele>
        <time>2019-08-15T09:43:48Z</time>
      </trkpt>
      <trkpt lat="41.8092950" lon="-5.4041400">
        <ele>764.3</ele>
        <time>2019-08-15T09:43:49Z</time>
      </trkpt>
      <trkpt lat="41.8093400" lon="-5.4041570">
        <ele>764.2</ele>
        <time>2019-08-15T09:43:50Z</time>
      </trkpt>
      <trkpt lat="41.8093850" lon="-5.4041730">
        <ele>764.2</ele>
        <time>2019-08-15T09:43:51Z</time>
      </trkpt>
      <trkpt lat="41.8094310" lon="-5.4041880">
        <ele>764.2</ele>
        <time>2019-08-15T09:43:52Z</time>
      </trkpt>
      <trkpt lat="41.8094770" lon="-5.4042030">
        <ele>764.1</ele>
        <time>2019-08-15T09:43:53Z</time>
      </trkpt>
      <trkpt lat="41.8095210" lon="-5.4042170">
        <ele>764.0</ele>
        <time>2019-08-15T09:43:54Z</time>
      </trkpt>
      <trkpt lat="41.8095610" lon="-5.4042320">
        <ele>764.0</ele>
        <time>2019-08-15T09:43:55Z</time>
      </trkpt>
      <trkpt lat="41.8096010" lon="-5.4042440">
        <ele>763.9</ele>
        <time>2019-08-15T09:43:56Z</time>
      </trkpt>
      <trkpt lat="41.8096420" lon="-5.4042580">
        <ele>763.9</ele>
        <time>2019-08-15T09:43:57Z</time>
      </trkpt>
      <trkpt lat="41.8096830" lon="-5.4042720">
        <ele>763.9</ele>
        <time>2019-08-15T09:43:58Z</time>
      </trkpt>
      <trkpt lat="41.8097240" lon="-5.4042880">
        <ele>763.9</ele>
        <time>2019-08-15T09:43:59Z</time>
      </trkpt>
      <trkpt lat="41.8097630" lon="-5.4043030">
        <ele>763.9</ele>
        <time>2019-08-15T09:44:00Z</time>
      </trkpt>
      <trkpt lat="41.8098000" lon="-5.4043180">
        <ele>763.9</ele>
        <time>2019-08-15T09:44:01Z</time>
      </trkpt>
      <trkpt lat="41.8098360" lon="-5.4043310">
        <ele>763.9</ele>
        <time>2019-08-15T09:44:02Z</time>
      </trkpt>
      <trkpt lat="41.8098720" lon="-5.4043460">
        <ele>763.9</ele>
        <time>2019-08-15T09:44:03Z</time>
      </trkpt>
      <trkpt lat="41.8099080" lon="-5.4043620">
        <ele>764.0</ele>
        <time>2019-08-15T09:44:04Z</time>
      </trkpt>
      <trkpt lat="41.8099440" lon="-5.4043770">
        <ele>764.0</ele>
        <time>2019-08-15T09:44:05Z</time>
      </trkpt>
      <trkpt lat="41.8099810" lon="-5.4043920">
        <ele>764.1</ele>
        <time>2019-08-15T09:44:06Z</time>
      </trkpt>
      <trkpt lat="41.8100180" lon="-5.4044090">
        <ele>764.2</ele>
        <time>2019-08-15T09:44:07Z</time>
      </trkpt>
      <trkpt lat="41.8100570" lon="-5.4044280">
        <ele>764.3</ele>
        <time>2019-08-15T09:44:08Z</time>
      </trkpt>
      <trkpt lat="41.8100950" lon="-5.4044460">
        <ele>764.4</ele>
        <time>2019-08-15T09:44:09Z</time>
      </trkpt>
      <trkpt lat="41.8101320" lon="-5.4044610">
        <ele>764.6</ele>
        <time>2019-08-15T09:44:10Z</time>
      </trkpt>
      <trkpt lat="41.8101690" lon="-5.4044780">
        <ele>764.7</ele>
        <time>2019-08-15T09:44:11Z</time>
      </trkpt>
      <trkpt lat="41.8102060" lon="-5.4044910">
        <ele>764.9</ele>
        <time>2019-08-15T09:44:12Z</time>
      </trkpt>
      <trkpt lat="41.8102420" lon="-5.4045020">
        <ele>765.0</ele>
        <time>2019-08-15T09:44:13Z</time>
      </trkpt>
      <trkpt lat="41.8102770" lon="-5.4045140">
        <ele>765.1</ele>
        <time>2019-08-15T09:44:14Z</time>
      </trkpt>
      <trkpt lat="41.8103120" lon="-5.4045220">
        <ele>765.3</ele>
        <time>2019-08-15T09:44:15Z</time>
      </trkpt>
      <trkpt lat="41.8103480" lon="-5.4045280">
        <ele>765.5</ele>
        <time>2019-08-15T09:44:16Z</time>
      </trkpt>
      <trkpt lat="41.8103850" lon="-5.4045340">
        <ele>765.6</ele>
        <time>2019-08-15T09:44:17Z</time>
      </trkpt>
      <trkpt lat="41.8104230" lon="-5.4045370">
        <ele>765.7</ele>
        <time>2019-08-15T09:44:18Z</time>
      </trkpt>
      <trkpt lat="41.8104610" lon="-5.4045420">
        <ele>765.9</ele>
        <time>2019-08-15T09:44:19Z</time>
      </trkpt>
      <trkpt lat="41.8104980" lon="-5.4045430">
        <ele>766.0</ele>
        <time>2019-08-15T09:44:20Z</time>
      </trkpt>
      <trkpt lat="41.8105340" lon="-5.4045470">
        <ele>766.1</ele>
        <time>2019-08-15T09:44:21Z</time>
      </trkpt>
      <trkpt lat="41.8105690" lon="-5.4045500">
        <ele>766.2</ele>
        <time>2019-08-15T09:44:22Z</time>
      </trkpt>
      <trkpt lat="41.8106040" lon="-5.4045530">
        <ele>766.2</ele>
        <time>2019-08-15T09:44:23Z</time>
      </trkpt>
      <trkpt lat="41.8106400" lon="-5.4045550">
        <ele>766.3</ele>
        <time>2019-08-15T09:44:24Z</time>
      </trkpt>
      <trkpt lat="41.8106750" lon="-5.4045590">
        <ele>766.4</ele>
        <time>2019-08-15T09:44:25Z</time>
      </trkpt>
      <trkpt lat="41.8107100" lon="-5.4045610">
        <ele>766.4</ele>
        <time>2019-08-15T09:44:26Z</time>
      </trkpt>
      <trkpt lat="41.8107460" lon="-5.4045650">
        <ele>766.4</ele>
        <time>2019-08-15T09:44:27Z</time>
      </trkpt>
      <trkpt lat="41.8107820" lon="-5.4045690">
        <ele>766.5</ele>
        <time>2019-08-15T09:44:28Z</time>
      </trkpt>
      <trkpt lat="41.8108180" lon="-5.4045720">
        <ele>766.5</ele>
        <time>2019-08-15T09:44:29Z</time>
      </trkpt>
      <trkpt lat="41.8108540" lon="-5.4045770">
        <ele>766.6</ele>
        <time>2019-08-15T09:44:30Z</time>
      </trkpt>
      <trkpt lat="41.8108900" lon="-5.4045840">
        <ele>766.6</ele>
        <time>2019-08-15T09:44:31Z</time>
      </trkpt>
      <trkpt lat="41.8109250" lon="-5.4045910">
        <ele>766.6</ele>
        <time>2019-08-15T09:44:32Z</time>
      </trkpt>
      <trkpt lat="41.8109620" lon="-5.4046000">
        <ele>766.6</ele>
        <time>2019-08-15T09:44:33Z</time>
      </trkpt>
      <trkpt lat="41.8109970" lon="-5.4046090">
        <ele>766.7</ele>
        <time>2019-08-15T09:44:34Z</time>
      </trkpt>
      <trkpt lat="41.8110320" lon="-5.4046200">
        <ele>766.7</ele>
        <time>2019-08-15T09:44:35Z</time>
      </trkpt>
      <trkpt lat="41.8110670" lon="-5.4046310">
        <ele>766.7</ele>
        <time>2019-08-15T09:44:36Z</time>
      </trkpt>
      <trkpt lat="41.8111030" lon="-5.4046420">
        <ele>766.7</ele>
        <time>2019-08-15T09:44:37Z</time>
      </trkpt>
      <trkpt lat="41.8111390" lon="-5.4046540">
        <ele>766.7</ele>
        <time>2019-08-15T09:44:38Z</time>
      </trkpt>
      <trkpt lat="41.8111760" lon="-5.4046660">
        <ele>766.7</ele>
        <time>2019-08-15T09:44:39Z</time>
      </trkpt>
      <trkpt lat="41.8112130" lon="-5.4046750">
        <ele>766.7</ele>
        <time>2019-08-15T09:44:40Z</time>
      </trkpt>
      <trkpt lat="41.8112510" lon="-5.4046840">
        <ele>766.7</ele>
        <time>2019-08-15T09:44:41Z</time>
      </trkpt>
      <trkpt lat="41.8112890" lon="-5.4046930">
        <ele>766.7</ele>
        <time>2019-08-15T09:44:42Z</time>
      </trkpt>
      <trkpt lat="41.8113270" lon="-5.4047020">
        <ele>766.7</ele>
        <time>2019-08-15T09:44:43Z</time>
      </trkpt>
      <trkpt lat="41.8113650" lon="-5.4047110">
        <ele>766.7</ele>
        <time>2019-08-15T09:44:44Z</time>
      </trkpt>
      <trkpt lat="41.8114030" lon="-5.4047220">
        <ele>766.6</ele>
        <time>2019-08-15T09:44:45Z</time>
      </trkpt>
      <trkpt lat="41.8114410" lon="-5.4047350">
        <ele>766.6</ele>
        <time>2019-08-15T09:44:46Z</time>
      </trkpt>
      <trkpt lat="41.8114770" lon="-5.4047460">
        <ele>766.6</ele>
        <time>2019-08-15T09:44:47Z</time>
      </trkpt>
      <trkpt lat="41.8115110" lon="-5.4047530">
        <ele>766.5</ele>
        <time>2019-08-15T09:44:48Z</time>
      </trkpt>
      <trkpt lat="41.8115420" lon="-5.4047580">
        <ele>766.5</ele>
        <time>2019-08-15T09:44:49Z</time>
      </trkpt>
      <trkpt lat="41.8115720" lon="-5.4047640">
        <ele>766.5</ele>
        <time>2019-08-15T09:44:50Z</time>
      </trkpt>
      <trkpt lat="41.8116040" lon="-5.4047720">
        <ele>766.4</ele>
        <time>2019-08-15T09:44:51Z</time>
      </trkpt>
      <trkpt lat="41.8116400" lon="-5.4047790">
        <ele>766.4</ele>
        <time>2019-08-15T09:44:52Z</time>
      </trkpt>
      <trkpt lat="41.8116770" lon="-5.4047880">
        <ele>766.3</ele>
        <time>2019-08-15T09:44:53Z</time>
      </trkpt>
      <trkpt lat="41.8117160" lon="-5.4047940">
        <ele>766.2</ele>
        <time>2019-08-15T09:44:54Z</time>
      </trkpt>
      <trkpt lat="41.8117560" lon="-5.4048020">
        <ele>766.1</ele>
        <time>2019-08-15T09:44:55Z</time>
      </trkpt>
      <trkpt lat="41.8117960" lon="-5.4048100">
        <ele>766.0</ele>
        <time>2019-08-15T09:44:56Z</time>
      </trkpt>
      <trkpt lat="41.8118380" lon="-5.4048180">
        <ele>766.0</ele>
        <time>2019-08-15T09:44:57Z</time>
      </trkpt>
      <trkpt lat="41.8118800" lon="-5.4048250">
        <ele>765.9</ele>
        <time>2019-08-15T09:44:58Z</time>
      </trkpt>
      <trkpt lat="41.8119250" lon="-5.4048350">
        <ele>765.8</ele>
        <time>2019-08-15T09:44:59Z</time>
      </trkpt>
      <trkpt lat="41.8119700" lon="-5.4048460">
        <ele>765.6</ele>
        <time>2019-08-15T09:45:00Z</time>
      </trkpt>
      <trkpt lat="41.8120130" lon="-5.4048540">
        <ele>765.5</ele>
        <time>2019-08-15T09:45:01Z</time>
      </trkpt>
      <trkpt lat="41.8120550" lon="-5.4048600">
        <ele>765.4</ele>
        <time>2019-08-15T09:45:02Z</time>
      </trkpt>
      <trkpt lat="41.8120980" lon="-5.4048690">
        <ele>765.3</ele>
        <time>2019-08-15T09:45:03Z</time>
      </trkpt>
      <trkpt lat="41.8121390" lon="-5.4048780">
        <ele>765.2</ele>
        <time>2019-08-15T09:45:04Z</time>
      </trkpt>
      <trkpt lat="41.8121810" lon="-5.4048880">
        <ele>765.1</ele>
        <time>2019-08-15T09:45:05Z</time>
      </trkpt>
      <trkpt lat="41.8122220" lon="-5.4048970">
        <ele>765.0</ele>
        <time>2019-08-15T09:45:06Z</time>
      </trkpt>
      <trkpt lat="41.8122640" lon="-5.4049060">
        <ele>764.9</ele>
        <time>2019-08-15T09:45:07Z</time>
      </trkpt>
      <trkpt lat="41.8123080" lon="-5.4049150">
        <ele>764.7</ele>
        <time>2019-08-15T09:45:08Z</time>
      </trkpt>
      <trkpt lat="41.8123520" lon="-5.4049240">
        <ele>764.6</ele>
        <time>2019-08-15T09:45:09Z</time>
      </trkpt>
      <trkpt lat="41.8123960" lon="-5.4049360">
        <ele>764.4</ele>
        <time>2019-08-15T09:45:10Z</time>
      </trkpt>
      <trkpt lat="41.8124410" lon="-5.4049500">
        <ele>764.3</ele>
        <time>2019-08-15T09:45:11Z</time>
      </trkpt>
      <trkpt lat="41.8124870" lon="-5.4049640">
        <ele>764.2</ele>
        <time>2019-08-15T09:45:12Z</time>
      </trkpt>
      <trkpt lat="41.8125330" lon="-5.4049790">
        <ele>764.1</ele>
        <time>2019-08-15T09:45:13Z</time>
      </trkpt>
      <trkpt lat="41.8125790" lon="-5.4049970">
        <ele>763.9</ele>
        <time>2019-08-15T09:45:14Z</time>
      </trkpt>
      <trkpt lat="41.8126270" lon="-5.4050160">
        <ele>763.8</ele>
        <time>2019-08-15T09:45:15Z</time>
      </trkpt>
      <trkpt lat="41.8126760" lon="-5.4050350">
        <ele>763.7</ele>
        <time>2019-08-15T09:45:16Z</time>
      </trkpt>
      <trkpt lat="41.8127250" lon="-5.4050560">
        <ele>763.6</ele>
        <time>2019-08-15T09:45:17Z</time>
      </trkpt>
      <trkpt lat="41.8127760" lon="-5.4050760">
        <ele>763.5</ele>
        <time>2019-08-15T09:45:18Z</time>
      </trkpt>
      <trkpt lat="41.8128280" lon="-5.4050960">
        <ele>763.4</ele>
        <time>2019-08-15T09:45:19Z</time>
      </trkpt>
      <trkpt lat="41.8128820" lon="-5.4051130">
        <ele>763.3</ele>
        <time>2019-08-15T09:45:20Z</time>
      </trkpt>
      <trkpt lat="41.8129370" lon="-5.4051280">
        <ele>763.3</ele>
        <time>2019-08-15T09:45:21Z</time>
      </trkpt>
      <trkpt lat="41.8129920" lon="-5.4051370">
        <ele>763.2</ele>
        <time>2019-08-15T09:45:22Z</time>
      </trkpt>
      <trkpt lat="41.8130460" lon="-5.4051430">
        <ele>763.1</ele>
        <time>2019-08-15T09:45:23Z</time>
      </trkpt>
      <trkpt lat="41.8131010" lon="-5.4051450">
        <ele>763.0</ele>
        <time>2019-08-15T09:45:24Z</time>
      </trkpt>
      <trkpt lat="41.8131560" lon="-5.4051400">
        <ele>763.0</ele>
        <time>2019-08-15T09:45:25Z</time>
      </trkpt>
      <trkpt lat="41.8132100" lon="-5.4051300">
        <ele>762.9</ele>
        <time>2019-08-15T09:45:26Z</time>
      </trkpt>
      <trkpt lat="41.8132630" lon="-5.4051190">
        <ele>762.8</ele>
        <time>2019-08-15T09:45:27Z</time>
      </trkpt>
      <trkpt lat="41.8133170" lon="-5.4051060">
        <ele>762.8</ele>
        <time>2019-08-15T09:45:28Z</time>
      </trkpt>
      <trkpt lat="41.8133690" lon="-5.4050910">
        <ele>762.7</ele>
        <time>2019-08-15T09:45:29Z</time>
      </trkpt>
      <trkpt lat="41.8134210" lon="-5.4050750">
        <ele>762.6</ele>
        <time>2019-08-15T09:45:30Z</time>
      </trkpt>
      <trkpt lat="41.8134720" lon="-5.4050570">
        <ele>762.5</ele>
        <time>2019-08-15T09:45:31Z</time>
      </trkpt>
      <trkpt lat="41.8135220" lon="-5.4050370">
        <ele>762.4</ele>
        <time>2019-08-15T09:45:32Z</time>
      </trkpt>
      <trkpt lat="41.8135710" lon="-5.4050150">
        <ele>762.3</ele>
        <time>2019-08-15T09:45:33Z</time>
      </trkpt>
      <trkpt lat="41.8136220" lon="-5.4049920">
        <ele>762.1</ele>
        <time>2019-08-15T09:45:34Z</time>
      </trkpt>
      <trkpt lat="41.8136740" lon="-5.4049660">
        <ele>762.0</ele>
        <time>2019-08-15T09:45:35Z</time>
      </trkpt>
      <trkpt lat="41.8137250" lon="-5.4049410">
        <ele>761.9</ele>
        <time>2019-08-15T09:45:36Z</time>
      </trkpt>
      <trkpt lat="41.8137770" lon="-5.4049170">
        <ele>761.8</ele>
        <time>2019-08-15T09:45:37Z</time>
      </trkpt>
      <trkpt lat="41.8138280" lon="-5.4048950">
        <ele>761.7</ele>
        <time>2019-08-15T09:45:38Z</time>
      </trkpt>
      <trkpt lat="41.8138790" lon="-5.4048740">
        <ele>761.6</ele>
        <time>2019-08-15T09:45:39Z</time>
      </trkpt>
      <trkpt lat="41.8139310" lon="-5.4048540">
        <ele>761.7</ele>
        <time>2019-08-15T09:45:40Z</time>
      </trkpt>
      <trkpt lat="41.8139810" lon="-5.4048340">
        <ele>761.7</ele>
        <time>2019-08-15T09:45:41Z</time>
      </trkpt>
      <trkpt lat="41.8140310" lon="-5.4048130">
        <ele>761.6</ele>
        <time>2019-08-15T09:45:42Z</time>
      </trkpt>
      <trkpt lat="41.8140810" lon="-5.4047930">
        <ele>761.7</ele>
        <time>2019-08-15T09:45:43Z</time>
      </trkpt>
      <trkpt lat="41.8141320" lon="-5.4047740">
        <ele>761.8</ele>
        <time>2019-08-15T09:45:44Z</time>
      </trkpt>
      <trkpt lat="41.8141810" lon="-5.4047560">
        <ele>762.0</ele>
        <time>2019-08-15T09:45:45Z</time>
      </trkpt>
      <trkpt lat="41.8142320" lon="-5.4047370">
        <ele>762.0</ele>
        <time>2019-08-15T09:45:46Z</time>
      </trkpt>
      <trkpt lat="41.8142850" lon="-5.4047180">
        <ele>762.0</ele>
        <time>2019-08-15T09:45:47Z</time>
      </trkpt>
      <trkpt lat="41.8143400" lon="-5.4046960">
        <ele>762.1</ele>
        <time>2019-08-15T09:45:48Z</time>
      </trkpt>
      <trkpt lat="41.8143960" lon="-5.4046710">
        <ele>762.2</ele>
        <time>2019-08-15T09:45:49Z</time>
      </trkpt>
      <trkpt lat="41.8144550" lon="-5.4046460">
        <ele>762.3</ele>
        <time>2019-08-15T09:45:50Z</time>
      </trkpt>
      <trkpt lat="41.8145130" lon="-5.4046190">
        <ele>762.4</ele>
        <time>2019-08-15T09:45:51Z</time>
      </trkpt>
      <trkpt lat="41.8145700" lon="-5.4045870">
        <ele>762.6</ele>
        <time>2019-08-15T09:45:52Z</time>
      </trkpt>
      <trkpt lat="41.8146250" lon="-5.4045520">
        <ele>762.6</ele>
        <time>2019-08-15T09:45:53Z</time>
      </trkpt>
      <trkpt lat="41.8146770" lon="-5.4045120">
        <ele>762.4</ele>
        <time>2019-08-15T09:45:54Z</time>
      </trkpt>
      <trkpt lat="41.8147300" lon="-5.4044710">
        <ele>762.2</ele>
        <time>2019-08-15T09:45:55Z</time>
      </trkpt>
      <trkpt lat="41.8147810" lon="-5.4044270">
        <ele>762.0</ele>
        <time>2019-08-15T09:45:56Z</time>
      </trkpt>
      <trkpt lat="41.8148290" lon="-5.4043810">
        <ele>761.6</ele>
        <time>2019-08-15T09:45:57Z</time>
      </trkpt>
      <trkpt lat="41.8148740" lon="-5.4043300">
        <ele>761.5</ele>
        <time>2019-08-15T09:45:58Z</time>
      </trkpt>
      <trkpt lat="41.8149190" lon="-5.4042810">
        <ele>761.4</ele>
        <time>2019-08-15T09:45:59Z</time>
      </trkpt>
      <trkpt lat="41.8149630" lon="-5.4042310">
        <ele>761.1</ele>
        <time>2019-08-15T09:46:00Z</time>
      </trkpt>
      <trkpt lat="41.8150040" lon="-5.4041790">
        <ele>760.8</ele>
        <time>2019-08-15T09:46:01Z</time>
      </trkpt>
      <trkpt lat="41.8150430" lon="-5.4041240">
        <ele>760.5</ele>
        <time>2019-08-15T09:46:02Z</time>
      </trkpt>
      <trkpt lat="41.8150790" lon="-5.4040680">
        <ele>760.2</ele>
        <time>2019-08-15T09:46:03Z</time>
      </trkpt>
      <trkpt lat="41.8151110" lon="-5.4040090">
        <ele>760.0</ele>
        <time>2019-08-15T09:46:04Z</time>
      </trkpt>
      <trkpt lat="41.8151390" lon="-5.4039490">
        <ele>759.8</ele>
        <time>2019-08-15T09:46:05Z</time>
      </trkpt>
      <trkpt lat="41.8151650" lon="-5.4038870">
        <ele>759.6</ele>
        <time>2019-08-15T09:46:06Z</time>
      </trkpt>
      <trkpt lat="41.8151870" lon="-5.4038220">
        <ele>759.4</ele>
        <time>2019-08-15T09:46:07Z</time>
      </trkpt>
      <trkpt lat="41.8152090" lon="-5.4037570">
        <ele>759.3</ele>
        <time>2019-08-15T09:46:08Z</time>
      </trkpt>
      <trkpt lat="41.8152310" lon="-5.4036920">
        <ele>759.1</ele>
        <time>2019-08-15T09:46:09Z</time>
      </trkpt>
      <trkpt lat="41.8152530" lon="-5.4036260">
        <ele>758.9</ele>
        <time>2019-08-15T09:46:10Z</time>
      </trkpt>
      <trkpt lat="41.8152720" lon="-5.4035560">
        <ele>758.6</ele>
        <time>2019-08-15T09:46:11Z</time>
      </trkpt>
      <trkpt lat="41.8152950" lon="-5.4034850">
        <ele>758.3</ele>
        <time>2019-08-15T09:46:12Z</time>
      </trkpt>
      <trkpt lat="41.8153210" lon="-5.4034140">
        <ele>758.0</ele>
        <time>2019-08-15T09:46:13Z</time>
      </trkpt>
      <trkpt lat="41.8153480" lon="-5.4033450">
        <ele>757.7</ele>
        <time>2019-08-15T09:46:14Z</time>
      </trkpt>
      <trkpt lat="41.8153780" lon="-5.4032760">
        <ele>757.4</ele>
        <time>2019-08-15T09:46:15Z</time>
      </trkpt>
      <trkpt lat="41.8154100" lon="-5.4032070">
        <ele>757.3</ele>
        <time>2019-08-15T09:46:16Z</time>
      </trkpt>
      <trkpt lat="41.8154460" lon="-5.4031400">
        <ele>757.1</ele>
        <time>2019-08-15T09:46:17Z</time>
      </trkpt>
      <trkpt lat="41.8154830" lon="-5.4030710">
        <ele>757.0</ele>
        <time>2019-08-15T09:46:18Z</time>
      </trkpt>
      <trkpt lat="41.8155180" lon="-5.4029970">
        <ele>756.8</ele>
        <time>2019-08-15T09:46:19Z</time>
      </trkpt>
      <trkpt lat="41.8155500" lon="-5.4029190">
        <ele>756.6</ele>
        <time>2019-08-15T09:46:20Z</time>
      </trkpt>
      <trkpt lat="41.8155800" lon="-5.4028370">
        <ele>756.3</ele>
        <time>2019-08-15T09:46:21Z</time>
      </trkpt>
      <trkpt lat="41.8156090" lon="-5.4027560">
        <ele>756.1</ele>
        <time>2019-08-15T09:46:22Z</time>
      </trkpt>
      <trkpt lat="41.8156360" lon="-5.4026760">
        <ele>755.8</ele>
        <time>2019-08-15T09:46:23Z</time>
      </trkpt>
      <trkpt lat="41.8156620" lon="-5.4025970">
        <ele>755.5</ele>
        <time>2019-08-15T09:46:24Z</time>
      </trkpt>
      <trkpt lat="41.8156860" lon="-5.4025220">
        <ele>755.3</ele>
        <time>2019-08-15T09:46:25Z</time>
      </trkpt>
      <trkpt lat="41.8157070" lon="-5.4024480">
        <ele>755.2</ele>
        <time>2019-08-15T09:46:26Z</time>
      </trkpt>
      <trkpt lat="41.8157310" lon="-5.4023800">
        <ele>755.2</ele>
        <time>2019-08-15T09:46:27Z</time>
      </trkpt>
      <trkpt lat="41.8157590" lon="-5.4023160">
        <ele>755.2</ele>
        <time>2019-08-15T09:46:28Z</time>
      </trkpt>
      <trkpt lat="41.8157930" lon="-5.4022580">
        <ele>755.3</ele>
        <time>2019-08-15T09:46:29Z</time>
      </trkpt>
      <trkpt lat="41.8158300" lon="-5.4022040">
        <ele>755.3</ele>
        <time>2019-08-15T09:46:30Z</time>
      </trkpt>
      <trkpt lat="41.8158710" lon="-5.4021580">
        <ele>755.4</ele>
        <time>2019-08-15T09:46:31Z</time>
      </trkpt>
      <trkpt lat="41.8159130" lon="-5.4021150">
        <ele>755.7</ele>
        <time>2019-08-15T09:46:32Z</time>
      </trkpt>
      <trkpt lat="41.8159540" lon="-5.4020740">
        <ele>756.0</ele>
        <time>2019-08-15T09:46:33Z</time>
      </trkpt>
      <trkpt lat="41.8159910" lon="-5.4020330">
        <ele>756.1</ele>
        <time>2019-08-15T09:46:34Z</time>
      </trkpt>
      <trkpt lat="41.8160260" lon="-5.4019900">
        <ele>756.1</ele>
        <time>2019-08-15T09:46:35Z</time>
      </trkpt>
      <trkpt lat="41.8160590" lon="-5.4019490">
        <ele>756.3</ele>
        <time>2019-08-15T09:46:36Z</time>
      </trkpt>
      <trkpt lat="41.8160910" lon="-5.4019100">
        <ele>756.5</ele>
        <time>2019-08-15T09:46:37Z</time>
      </trkpt>
      <trkpt lat="41.8161190" lon="-5.4018730">
        <ele>756.7</ele>
        <time>2019-08-15T09:46:38Z</time>
      </trkpt>
      <trkpt lat="41.8161460" lon="-5.4018360">
        <ele>756.8</ele>
        <time>2019-08-15T09:46:39Z</time>
      </trkpt>
      <trkpt lat="41.8161720" lon="-5.4018000">
        <ele>756.7</ele>
        <time>2019-08-15T09:46:40Z</time>
      </trkpt>
      <trkpt lat="41.8161960" lon="-5.4017630">
        <ele>756.7</ele>
        <time>2019-08-15T09:46:41Z</time>
      </trkpt>
      <trkpt lat="41.8162190" lon="-5.4017280">
        <ele>756.7</ele>
        <time>2019-08-15T09:46:42Z</time>
      </trkpt>
      <trkpt lat="41.8162420" lon="-5.4016940">
        <ele>756.6</ele>
        <time>2019-08-15T09:46:43Z</time>
      </trkpt>
      <trkpt lat="41.8162640" lon="-5.4016590">
        <ele>756.6</ele>
        <time>2019-08-15T09:46:44Z</time>
      </trkpt>
      <trkpt lat="41.8162850" lon="-5.4016250">
        <ele>756.6</ele>
        <time>2019-08-15T09:46:45Z</time>
      </trkpt>
      <trkpt lat="41.8163050" lon="-5.4015920">
        <ele>756.5</ele>
        <time>2019-08-15T09:46:46Z</time>
      </trkpt>
      <trkpt lat="41.8163260" lon="-5.4015610">
        <ele>756.4</ele>
        <time>2019-08-15T09:46:47Z</time>
      </trkpt>
      <trkpt lat="41.8163470" lon="-5.4015310">
        <ele>756.2</ele>
        <time>2019-08-15T09:46:48Z</time>
      </trkpt>
      <trkpt lat="41.8163670" lon="-5.4015010">
        <ele>756.0</ele>
        <time>2019-08-15T09:46:49Z</time>
      </trkpt>
      <trkpt lat="41.8163860" lon="-5.4014700">
        <ele>755.8</ele>
        <time>2019-08-15T09:46:50Z</time>
      </trkpt>
      <trkpt lat="41.8164060" lon="-5.4014400">
        <ele>755.6</ele>
        <time>2019-08-15T09:46:51Z</time>
      </trkpt>
      <trkpt lat="41.8164250" lon="-5.4014110">
        <ele>755.5</ele>
        <time>2019-08-15T09:46:52Z</time>
      </trkpt>
      <trkpt lat="41.8164440" lon="-5.4013820">
        <ele>755.3</ele>
        <time>2019-08-15T09:46:53Z</time>
      </trkpt>
      <trkpt lat="41.8164640" lon="-5.4013540">
        <ele>755.1</ele>
        <time>2019-08-15T09:46:54Z</time>
      </trkpt>
      <trkpt lat="41.8164840" lon="-5.4013270">
        <ele>754.9</ele>
        <time>2019-08-15T09:46:55Z</time>
      </trkpt>
      <trkpt lat="41.8165060" lon="-5.4013000">
        <ele>754.7</ele>
        <time>2019-08-15T09:46:56Z</time>
      </trkpt>
      <trkpt lat="41.8165270" lon="-5.4012720">
        <ele>754.4</ele>
        <time>2019-08-15T09:46:57Z</time>
      </trkpt>
      <trkpt lat="41.8165480" lon="-5.4012440">
        <ele>754.2</ele>
        <time>2019-08-15T09:46:58Z</time>
      </trkpt>
      <trkpt lat="41.8165690" lon="-5.4012160">
        <ele>753.9</ele>
        <time>2019-08-15T09:46:59Z</time>
      </trkpt>
      <trkpt lat="41.8165910" lon="-5.4011900">
        <ele>753.7</ele>
        <time>2019-08-15T09:47:00Z</time>
      </trkpt>
      <trkpt lat="41.8166140" lon="-5.4011640">
        <ele>753.4</ele>
        <time>2019-08-15T09:47:01Z</time>
      </trkpt>
      <trkpt lat="41.8166380" lon="-5.4011390">
        <ele>753.2</ele>
        <time>2019-08-15T09:47:02Z</time>
      </trkpt>
      <trkpt lat="41.8166630" lon="-5.4011120">
        <ele>753.0</ele>
        <time>2019-08-15T09:47:03Z</time>
      </trkpt>
      <trkpt lat="41.8166900" lon="-5.4010820">
        <ele>752.8</ele>
        <time>2019-08-15T09:47:04Z</time>
      </trkpt>
      <trkpt lat="41.8167180" lon="-5.4010490">
        <ele>752.5</ele>
        <time>2019-08-15T09:47:05Z</time>
      </trkpt>
      <trkpt lat="41.8167440" lon="-5.4010170">
        <ele>752.3</ele>
        <time>2019-08-15T09:47:06Z</time>
      </trkpt>
      <trkpt lat="41.8167690" lon="-5.4009850">
        <ele>752.1</ele>
        <time>2019-08-15T09:47:07Z</time>
      </trkpt>
      <trkpt lat="41.8167930" lon="-5.4009530">
        <ele>751.8</ele>
        <time>2019-08-15T09:47:08Z</time>
      </trkpt>
      <trkpt lat="41.8168170" lon="-5.4009210">
        <ele>751.6</ele>
        <time>2019-08-15T09:47:09Z</time>
      </trkpt>
      <trkpt lat="41.8168410" lon="-5.4008870">
        <ele>751.4</ele>
        <time>2019-08-15T09:47:10Z</time>
      </trkpt>
      <trkpt lat="41.8168660" lon="-5.4008540">
        <ele>751.3</ele>
        <time>2019-08-15T09:47:11Z</time>
      </trkpt>
      <trkpt lat="41.8168920" lon="-5.4008210">
        <ele>751.2</ele>
        <time>2019-08-15T09:47:12Z</time>
      </trkpt>
      <trkpt lat="41.8169160" lon="-5.4007880">
        <ele>751.1</ele>
        <time>2019-08-15T09:47:13Z</time>
      </trkpt>
      <trkpt lat="41.8169420" lon="-5.4007540">
        <ele>750.9</ele>
        <time>2019-08-15T09:47:14Z</time>
      </trkpt>
      <trkpt lat="41.8169700" lon="-5.4007200">
        <ele>750.7</ele>
        <time>2019-08-15T09:47:15Z</time>
      </trkpt>
      <trkpt lat="41.8170010" lon="-5.4006870">
        <ele>750.4</ele>
        <time>2019-08-15T09:47:16Z</time>
      </trkpt>
      <trkpt lat="41.8170330" lon="-5.4006540">
        <ele>750.2</ele>
        <time>2019-08-15T09:47:17Z</time>
      </trkpt>
      <trkpt lat="41.8170680" lon="-5.4006210">
        <ele>750.0</ele>
        <time>2019-08-15T09:47:18Z</time>
      </trkpt>
      <trkpt lat="41.8171050" lon="-5.4005880">
        <ele>749.7</ele>
        <time>2019-08-15T09:47:19Z</time>
      </trkpt>
      <trkpt lat="41.8171440" lon="-5.4005540">
        <ele>749.4</ele>
        <time>2019-08-15T09:47:20Z</time>
      </trkpt>
      <trkpt lat="41.8171850" lon="-5.4005190">
        <ele>749.1</ele>
        <time>2019-08-15T09:47:21Z</time>
      </trkpt>
      <trkpt lat="41.8172260" lon="-5.4004830">
        <ele>748.9</ele>
        <time>2019-08-15T09:47:22Z</time>
      </trkpt>
      <trkpt lat="41.8172690" lon="-5.4004460">
        <ele>748.6</ele>
        <time>2019-08-15T09:47:23Z</time>
      </trkpt>
      <trkpt lat="41.8173110" lon="-5.4004090">
        <ele>748.4</ele>
        <time>2019-08-15T09:47:24Z</time>
      </trkpt>
      <trkpt lat="41.8173520" lon="-5.4003750">
        <ele>748.1</ele>
        <time>2019-08-15T09:47:25Z</time>
      </trkpt>
      <trkpt lat="41.8173910" lon="-5.4003450">
        <ele>747.9</ele>
        <time>2019-08-15T09:47:26Z</time>
      </trkpt>
      <trkpt lat="41.8174270" lon="-5.4003170">
        <ele>747.8</ele>
        <time>2019-08-15T09:47:27Z</time>
      </trkpt>
      <trkpt lat="41.8174620" lon="-5.4002870">
        <ele>747.8</ele>
        <time>2019-08-15T09:47:28Z</time>
      </trkpt>
      <trkpt lat="41.8174970" lon="-5.4002550">
        <ele>747.7</ele>
        <time>2019-08-15T09:47:29Z</time>
      </trkpt>
      <trkpt lat="41.8175330" lon="-5.4002220">
        <ele>747.6</ele>
        <time>2019-08-15T09:47:30Z</time>
      </trkpt>
      <trkpt lat="41.8175700" lon="-5.4001930">
        <ele>747.6</ele>
        <time>2019-08-15T09:47:31Z</time>
      </trkpt>
      <trkpt lat="41.8176100" lon="-5.4001690">
        <ele>747.6</ele>
        <time>2019-08-15T09:47:32Z</time>
      </trkpt>
      <trkpt lat="41.8176530" lon="-5.4001510">
        <ele>747.5</ele>
        <time>2019-08-15T09:47:33Z</time>
      </trkpt>
      <trkpt lat="41.8177000" lon="-5.4001440">
        <ele>747.3</ele>
        <time>2019-08-15T09:47:34Z</time>
      </trkpt>
      <trkpt lat="41.8177470" lon="-5.4001500">
        <ele>747.0</ele>
        <time>2019-08-15T09:47:35Z</time>
      </trkpt>
      <trkpt lat="41.8177930" lon="-5.4001690">
        <ele>746.8</ele>
        <time>2019-08-15T09:47:36Z</time>
      </trkpt>
      <trkpt lat="41.8178410" lon="-5.4001920">
        <ele>746.6</ele>
        <time>2019-08-15T09:47:37Z</time>
      </trkpt>
      <trkpt lat="41.8178890" lon="-5.4002170">
        <ele>746.5</ele>
        <time>2019-08-15T09:47:38Z</time>
      </trkpt>
      <trkpt lat="41.8179370" lon="-5.4002450">
        <ele>746.3</ele>
        <time>2019-08-15T09:47:39Z</time>
      </trkpt>
      <trkpt lat="41.8179830" lon="-5.4002730">
        <ele>746.2</ele>
        <time>2019-08-15T09:47:40Z</time>
      </trkpt>
      <trkpt lat="41.8180310" lon="-5.4003040">
        <ele>746.0</ele>
        <time>2019-08-15T09:47:41Z</time>
      </trkpt>
      <trkpt lat="41.8180800" lon="-5.4003350">
        <ele>745.8</ele>
        <time>2019-08-15T09:47:42Z</time>
      </trkpt>
      <trkpt lat="41.8181280" lon="-5.4003690">
        <ele>745.6</ele>
        <time>2019-08-15T09:47:43Z</time>
      </trkpt>
      <trkpt lat="41.8181770" lon="-5.4004060">
        <ele>745.2</ele>
        <time>2019-08-15T09:47:44Z</time>
      </trkpt>
      <trkpt lat="41.8182260" lon="-5.4004410">
        <ele>744.8</ele>
        <time>2019-08-15T09:47:45Z</time>
      </trkpt>
      <trkpt lat="41.8182730" lon="-5.4004770">
        <ele>744.4</ele>
        <time>2019-08-15T09:47:46Z</time>
      </trkpt>
      <trkpt lat="41.8183220" lon="-5.4005180">
        <ele>744.1</ele>
        <time>2019-08-15T09:47:47Z</time>
      </trkpt>
      <trkpt lat="41.8183700" lon="-5.4005610">
        <ele>743.7</ele>
        <time>2019-08-15T09:47:48Z</time>
      </trkpt>
      <trkpt lat="41.8184180" lon="-5.4006040">
        <ele>743.5</ele>
        <time>2019-08-15T09:47:49Z</time>
      </trkpt>
      <trkpt lat="41.8184650" lon="-5.4006460">
        <ele>743.2</ele>
        <time>2019-08-15T09:47:50Z</time>
      </trkpt>
      <trkpt lat="41.8185110" lon="-5.4006870">
        <ele>743.0</ele>
        <time>2019-08-15T09:47:51Z</time>
      </trkpt>
      <trkpt lat="41.8185560" lon="-5.4007270">
        <ele>742.8</ele>
        <time>2019-08-15T09:47:52Z</time>
      </trkpt>
      <trkpt lat="41.8185990" lon="-5.4007670">
        <ele>742.7</ele>
        <time>2019-08-15T09:47:53Z</time>
      </trkpt>
      <trkpt lat="41.8186410" lon="-5.4008070">
        <ele>742.5</ele>
        <time>2019-08-15T09:47:54Z</time>
      </trkpt>
      <trkpt lat="41.8186820" lon="-5.4008450">
        <ele>742.3</ele>
        <time>2019-08-15T09:47:55Z</time>
      </trkpt>
      <trkpt lat="41.8187220" lon="-5.4008830">
        <ele>742.2</ele>
        <time>2019-08-15T09:47:56Z</time>
      </trkpt>
      <trkpt lat="41.8187620" lon="-5.4009230">
        <ele>742.1</ele>
        <time>2019-08-15T09:47:57Z</time>
      </trkpt>
      <trkpt lat="41.8188030" lon="-5.4009630">
        <ele>741.9</ele>
        <time>2019-08-15T09:47:58Z</time>
      </trkpt>
      <trkpt lat="41.8188430" lon="-5.4010060">
        <ele>741.8</ele>
        <time>2019-08-15T09:47:59Z</time>
      </trkpt>
      <trkpt lat="41.8188860" lon="-5.4010520">
        <ele>741.7</ele>
        <time>2019-08-15T09:48:00Z</time>
      </trkpt>
      <trkpt lat="41.8189290" lon="-5.4010990">
        <ele>741.6</ele>
        <time>2019-08-15T09:48:01Z</time>
      </trkpt>
      <trkpt lat="41.8189720" lon="-5.4011450">
        <ele>741.6</ele>
        <time>2019-08-15T09:48:02Z</time>
      </trkpt>
      <trkpt lat="41.8190150" lon="-5.4011920">
        <ele>741.5</ele>
        <time>2019-08-15T09:48:03Z</time>
      </trkpt>
      <trkpt lat="41.8190580" lon="-5.4012360">
        <ele>741.4</ele>
        <time>2019-08-15T09:48:04Z</time>
      </trkpt>
      <trkpt lat="41.8191020" lon="-5.4012780">
        <ele>741.3</ele>
        <time>2019-08-15T09:48:05Z</time>
      </trkpt>
      <trkpt lat="41.8191470" lon="-5.4013190">
        <ele>741.2</ele>
        <time>2019-08-15T09:48:06Z</time>
      </trkpt>
      <trkpt lat="41.8191920" lon="-5.4013580">
        <ele>741.1</ele>
        <time>2019-08-15T09:48:07Z</time>
      </trkpt>
      <trkpt lat="41.8192360" lon="-5.4013950">
        <ele>741.0</ele>
        <time>2019-08-15T09:48:08Z</time>
      </trkpt>
      <trkpt lat="41.8192790" lon="-5.4014310">
        <ele>740.9</ele>
        <time>2019-08-15T09:48:09Z</time>
      </trkpt>
      <trkpt lat="41.8193230" lon="-5.4014660">
        <ele>740.8</ele>
        <time>2019-08-15T09:48:10Z</time>
      </trkpt>
      <trkpt lat="41.8193700" lon="-5.4015010">
        <ele>740.6</ele>
        <time>2019-08-15T09:48:11Z</time>
      </trkpt>
      <trkpt lat="41.8194160" lon="-5.4015390">
        <ele>740.5</ele>
        <time>2019-08-15T09:48:12Z</time>
      </trkpt>
      <trkpt lat="41.8194640" lon="-5.4015740">
        <ele>740.3</ele>
        <time>2019-08-15T09:48:13Z</time>
      </trkpt>
      <trkpt lat="41.8195120" lon="-5.4016040">
        <ele>740.1</ele>
        <time>2019-08-15T09:48:14Z</time>
      </trkpt>
      <trkpt lat="41.8195600" lon="-5.4016320">
        <ele>740.0</ele>
        <time>2019-08-15T09:48:15Z</time>
      </trkpt>
      <trkpt lat="41.8196060" lon="-5.4016620">
        <ele>739.8</ele>
        <time>2019-08-15T09:48:16Z</time>
      </trkpt>
      <trkpt lat="41.8196510" lon="-5.4016920">
        <ele>739.6</ele>
        <time>2019-08-15T09:48:17Z</time>
      </trkpt>
      <trkpt lat="41.8196980" lon="-5.4017240">
        <ele>739.4</ele>
        <time>2019-08-15T09:48:18Z</time>
      </trkpt>
      <trkpt lat="41.8197440" lon="-5.4017580">
        <ele>739.3</ele>
        <time>2019-08-15T09:48:19Z</time>
      </trkpt>
      <trkpt lat="41.8197890" lon="-5.4017910">
        <ele>739.1</ele>
        <time>2019-08-15T09:48:20Z</time>
      </trkpt>
      <trkpt lat="41.8198340" lon="-5.4018250">
        <ele>739.0</ele>
        <time>2019-08-15T09:48:21Z</time>
      </trkpt>
      <trkpt lat="41.8198810" lon="-5.4018590">
        <ele>738.9</ele>
        <time>2019-08-15T09:48:22Z</time>
      </trkpt>
      <trkpt lat="41.8199260" lon="-5.4018940">
        <ele>738.8</ele>
        <time>2019-08-15T09:48:23Z</time>
      </trkpt>
      <trkpt lat="41.8199700" lon="-5.4019280">
        <ele>738.7</ele>
        <time>2019-08-15T09:48:24Z</time>
      </trkpt>
      <trkpt lat="41.8200150" lon="-5.4019620">
        <ele>738.6</ele>
        <time>2019-08-15T09:48:25Z</time>
      </trkpt>
      <trkpt lat="41.8200600" lon="-5.4019970">
        <ele>738.5</ele>
        <time>2019-08-15T09:48:26Z</time>
      </trkpt>
      <trkpt lat="41.8201070" lon="-5.4020330">
        <ele>738.4</ele>
        <time>2019-08-15T09:48:27Z</time>
      </trkpt>
      <trkpt lat="41.8201570" lon="-5.4020690">
        <ele>738.2</ele>
        <time>2019-08-15T09:48:28Z</time>
      </trkpt>
      <trkpt lat="41.8202050" lon="-5.4021030">
        <ele>738.1</ele>
        <time>2019-08-15T09:48:29Z</time>
      </trkpt>
      <trkpt lat="41.8202540" lon="-5.4021380">
        <ele>737.9</ele>
        <time>2019-08-15T09:48:30Z</time>
      </trkpt>
      <trkpt lat="41.8203020" lon="-5.4021720">
        <ele>737.8</ele>
        <time>2019-08-15T09:48:31Z</time>
      </trkpt>
      <trkpt lat="41.8203490" lon="-5.4022030">
        <ele>737.6</ele>
        <time>2019-08-15T09:48:32Z</time>
      </trkpt>
      <trkpt lat="41.8203950" lon="-5.4022330">
        <ele>737.5</ele>
        <time>2019-08-15T09:48:33Z</time>
      </trkpt>
      <trkpt lat="41.8204400" lon="-5.4022650">
        <ele>737.3</ele>
        <time>2019-08-15T09:48:34Z</time>
      </trkpt>
      <trkpt lat="41.8204890" lon="-5.4022980">
        <ele>737.1</ele>
        <time>2019-08-15T09:48:35Z</time>
      </trkpt>
      <trkpt lat="41.8205390" lon="-5.4023300">
        <ele>737.0</ele>
        <time>2019-08-15T09:48:36Z</time>
      </trkpt>
      <trkpt lat="41.8205890" lon="-5.4023640">
        <ele>736.8</ele>
        <time>2019-08-15T09:48:37Z</time>
      </trkpt>
      <trkpt lat="41.8206400" lon="-5.4023970">
        <ele>736.7</ele>
        <time>2019-08-15T09:48:38Z</time>
      </trkpt>
      <trkpt lat="41.8206900" lon="-5.4024290">
        <ele>736.5</ele>
        <time>2019-08-15T09:48:39Z</time>
      </trkpt>
      <trkpt lat="41.8207390" lon="-5.4024610">
        <ele>736.4</ele>
        <time>2019-08-15T09:48:40Z</time>
      </trkpt>
      <trkpt lat="41.8207870" lon="-5.4024940">
        <ele>736.3</ele>
        <time>2019-08-15T09:48:41Z</time>
      </trkpt>
      <trkpt lat="41.8208360" lon="-5.4025280">
        <ele>736.2</ele>
        <time>2019-08-15T09:48:42Z</time>
      </trkpt>
      <trkpt lat="41.8208830" lon="-5.4025630">
        <ele>736.1</ele>
        <time>2019-08-15T09:48:43Z</time>
      </trkpt>
      <trkpt lat="41.8209270" lon="-5.4025970">
        <ele>736.0</ele>
        <time>2019-08-15T09:48:44Z</time>
      </trkpt>
      <trkpt lat="41.8209720" lon="-5.4026290">
        <ele>735.9</ele>
        <time>2019-08-15T09:48:45Z</time>
      </trkpt>
      <trkpt lat="41.8210210" lon="-5.4026580">
        <ele>735.7</ele>
        <time>2019-08-15T09:48:46Z</time>
      </trkpt>
      <trkpt lat="41.8210700" lon="-5.4026860">
        <ele>735.6</ele>
        <time>2019-08-15T09:48:47Z</time>
      </trkpt>
      <trkpt lat="41.8211200" lon="-5.4027170">
        <ele>735.4</ele>
        <time>2019-08-15T09:48:48Z</time>
      </trkpt>
      <trkpt lat="41.8211710" lon="-5.4027480">
        <ele>735.2</ele>
        <time>2019-08-15T09:48:49Z</time>
      </trkpt>
      <trkpt lat="41.8212220" lon="-5.4027800">
        <ele>735.0</ele>
        <time>2019-08-15T09:48:50Z</time>
      </trkpt>
      <trkpt lat="41.8212740" lon="-5.4028140">
        <ele>734.8</ele>
        <time>2019-08-15T09:48:51Z</time>
      </trkpt>
      <trkpt lat="41.8213260" lon="-5.4028500">
        <ele>734.7</ele>
        <time>2019-08-15T09:48:52Z</time>
      </trkpt>
      <trkpt lat="41.8213790" lon="-5.4028850">
        <ele>734.5</ele>
        <time>2019-08-15T09:48:53Z</time>
      </trkpt>
      <trkpt lat="41.8214300" lon="-5.4029210">
        <ele>734.4</ele>
        <time>2019-08-15T09:48:54Z</time>
      </trkpt>
      <trkpt lat="41.8214790" lon="-5.4029560">
        <ele>734.3</ele>
        <time>2019-08-15T09:48:55Z</time>
      </trkpt>
      <trkpt lat="41.8215280" lon="-5.4029910">
        <ele>734.2</ele>
        <time>2019-08-15T09:48:56Z</time>
      </trkpt>
      <trkpt lat="41.8215760" lon="-5.4030240">
        <ele>734.1</ele>
        <time>2019-08-15T09:48:57Z</time>
      </trkpt>
      <trkpt lat="41.8216240" lon="-5.4030590">
        <ele>734.0</ele>
        <time>2019-08-15T09:48:58Z</time>
      </trkpt>
      <trkpt lat="41.8216680" lon="-5.4030960">
        <ele>733.8</ele>
        <time>2019-08-15T09:48:59Z</time>
      </trkpt>
      <trkpt lat="41.8217140" lon="-5.4031310">
        <ele>733.7</ele>
        <time>2019-08-15T09:49:00Z</time>
      </trkpt>
      <trkpt lat="41.8217610" lon="-5.4031660">
        <ele>733.6</ele>
        <time>2019-08-15T09:49:01Z</time>
      </trkpt>
      <trkpt lat="41.8218090" lon="-5.4032020">
        <ele>733.4</ele>
        <time>2019-08-15T09:49:02Z</time>
      </trkpt>
      <trkpt lat="41.8218560" lon="-5.4032400">
        <ele>733.3</ele>
        <time>2019-08-15T09:49:03Z</time>
      </trkpt>
      <trkpt lat="41.8219020" lon="-5.4032790">
        <ele>733.1</ele>
        <time>2019-08-15T09:49:04Z</time>
      </trkpt>
      <trkpt lat="41.8219470" lon="-5.4033170">
        <ele>732.9</ele>
        <time>2019-08-15T09:49:05Z</time>
      </trkpt>
      <trkpt lat="41.8219910" lon="-5.4033530">
        <ele>732.7</ele>
        <time>2019-08-15T09:49:06Z</time>
      </trkpt>
      <trkpt lat="41.8220340" lon="-5.4033890">
        <ele>732.6</ele>
        <time>2019-08-15T09:49:07Z</time>
      </trkpt>
      <trkpt lat="41.8220770" lon="-5.4034250">
        <ele>732.4</ele>
        <time>2019-08-15T09:49:08Z</time>
      </trkpt>
      <trkpt lat="41.8221200" lon="-5.4034630">
        <ele>732.3</ele>
        <time>2019-08-15T09:49:09Z</time>
      </trkpt>
      <trkpt lat="41.8221620" lon="-5.4035020">
        <ele>732.2</ele>
        <time>2019-08-15T09:49:10Z</time>
      </trkpt>
      <trkpt lat="41.8222060" lon="-5.4035430">
        <ele>732.1</ele>
        <time>2019-08-15T09:49:11Z</time>
      </trkpt>
      <trkpt lat="41.8222500" lon="-5.4035860">
        <ele>732.0</ele>
        <time>2019-08-15T09:49:12Z</time>
      </trkpt>
      <trkpt lat="41.8222950" lon="-5.4036300">
        <ele>731.9</ele>
        <time>2019-08-15T09:49:13Z</time>
      </trkpt>
      <trkpt lat="41.8223400" lon="-5.4036740">
        <ele>731.8</ele>
        <time>2019-08-15T09:49:14Z</time>
      </trkpt>
      <trkpt lat="41.8223820" lon="-5.4037150">
        <ele>731.8</ele>
        <time>2019-08-15T09:49:15Z</time>
      </trkpt>
      <trkpt lat="41.8224240" lon="-5.4037570">
        <ele>731.7</ele>
        <time>2019-08-15T09:49:16Z</time>
      </trkpt>
      <trkpt lat="41.8224660" lon="-5.4037970">
        <ele>731.6</ele>
        <time>2019-08-15T09:49:17Z</time>
      </trkpt>
      <trkpt lat="41.8225080" lon="-5.4038350">
        <ele>731.6</ele>
        <time>2019-08-15T09:49:18Z</time>
      </trkpt>
      <trkpt lat="41.8225510" lon="-5.4038730">
        <ele>731.5</ele>
        <time>2019-08-15T09:49:19Z</time>
      </trkpt>
      <trkpt lat="41.8225950" lon="-5.4039130">
        <ele>731.4</ele>
        <time>2019-08-15T09:49:20Z</time>
      </trkpt>
      <trkpt lat="41.8226400" lon="-5.4039520">
        <ele>731.4</ele>
        <time>2019-08-15T09:49:21Z</time>
      </trkpt>
      <trkpt lat="41.8226860" lon="-5.4039890">
        <ele>731.3</ele>
        <time>2019-08-15T09:49:22Z</time>
      </trkpt>
      <trkpt lat="41.8227290" lon="-5.4040260">
        <ele>731.2</ele>
        <time>2019-08-15T09:49:23Z</time>
      </trkpt>
      <trkpt lat="41.8227720" lon="-5.4040610">
        <ele>731.1</ele>
        <time>2019-08-15T09:49:24Z</time>
      </trkpt>
      <trkpt lat="41.8228140" lon="-5.4040970">
        <ele>731.1</ele>
        <time>2019-08-15T09:49:25Z</time>
      </trkpt>
      <trkpt lat="41.8228550" lon="-5.4041320">
        <ele>731.0</ele>
        <time>2019-08-15T09:49:26Z</time>
      </trkpt>
      <trkpt lat="41.8228980" lon="-5.4041680">
        <ele>730.9</ele>
        <time>2019-08-15T09:49:27Z</time>
      </trkpt>
      <trkpt lat="41.8229450" lon="-5.4042060">
        <ele>730.8</ele>
        <time>2019-08-15T09:49:28Z</time>
      </trkpt>
      <trkpt lat="41.8229930" lon="-5.4042460">
        <ele>730.7</ele>
        <time>2019-08-15T09:49:29Z</time>
      </trkpt>
      <trkpt lat="41.8230420" lon="-5.4042860">
        <ele>730.6</ele>
        <time>2019-08-15T09:49:30Z</time>
      </trkpt>
      <trkpt lat="41.8230920" lon="-5.4043270">
        <ele>730.4</ele>
        <time>2019-08-15T09:49:31Z</time>
      </trkpt>
      <trkpt lat="41.8231410" lon="-5.4043670">
        <ele>730.3</ele>
        <time>2019-08-15T09:49:32Z</time>
      </trkpt>
      <trkpt lat="41.8231900" lon="-5.4044070">
        <ele>730.2</ele>
        <time>2019-08-15T09:49:33Z</time>
      </trkpt>
      <trkpt lat="41.8232390" lon="-5.4044460">
        <ele>730.1</ele>
        <time>2019-08-15T09:49:34Z</time>
      </trkpt>
      <trkpt lat="41.8232890" lon="-5.4044820">
        <ele>730.0</ele>
        <time>2019-08-15T09:49:35Z</time>
      </trkpt>
      <trkpt lat="41.8233390" lon="-5.4045170">
        <ele>729.8</ele>
        <time>2019-08-15T09:49:36Z</time>
      </trkpt>
      <trkpt lat="41.8233880" lon="-5.4045540">
        <ele>729.7</ele>
        <time>2019-08-15T09:49:37Z</time>
      </trkpt>
      <trkpt lat="41.8234360" lon="-5.4045910">
        <ele>729.6</ele>
        <time>2019-08-15T09:49:38Z</time>
      </trkpt>
      <trkpt lat="41.8234840" lon="-5.4046260">
        <ele>729.4</ele>
        <time>2019-08-15T09:49:39Z</time>
      </trkpt>
      <trkpt lat="41.8235330" lon="-5.4046610">
        <ele>729.3</ele>
        <time>2019-08-15T09:49:40Z</time>
      </trkpt>
      <trkpt lat="41.8235840" lon="-5.4046980">
        <ele>729.1</ele>
        <time>2019-08-15T09:49:41Z</time>
      </trkpt>
      <trkpt lat="41.8236370" lon="-5.4047350">
        <ele>729.0</ele>
        <time>2019-08-15T09:49:42Z</time>
      </trkpt>
      <trkpt lat="41.8236920" lon="-5.4047740">
        <ele>728.8</ele>
        <time>2019-08-15T09:49:43Z</time>
      </trkpt>
      <trkpt lat="41.8237450" lon="-5.4048130">
        <ele>728.6</ele>
        <time>2019-08-15T09:49:44Z</time>
      </trkpt>
      <trkpt lat="41.8237960" lon="-5.4048520">
        <ele>728.5</ele>
        <time>2019-08-15T09:49:45Z</time>
      </trkpt>
      <trkpt lat="41.8238460" lon="-5.4048910">
        <ele>728.3</ele>
        <time>2019-08-15T09:49:46Z</time>
      </trkpt>
      <trkpt lat="41.8238950" lon="-5.4049280">
        <ele>728.2</ele>
        <time>2019-08-15T09:49:47Z</time>
      </trkpt>
      <trkpt lat="41.8239440" lon="-5.4049650">
        <ele>728.1</ele>
        <time>2019-08-15T09:49:48Z</time>
      </trkpt>
      <trkpt lat="41.8239900" lon="-5.4050010">
        <ele>728.0</ele>
        <time>2019-08-15T09:49:49Z</time>
      </trkpt>
      <trkpt lat="41.8240360" lon="-5.4050360">
        <ele>727.9</ele>
        <time>2019-08-15T09:49:50Z</time>
      </trkpt>
      <trkpt lat="41.8240820" lon="-5.4050700">
        <ele>727.8</ele>
        <time>2019-08-15T09:49:51Z</time>
      </trkpt>
      <trkpt lat="41.8241270" lon="-5.4051030">
        <ele>727.7</ele>
        <time>2019-08-15T09:49:52Z</time>
      </trkpt>
      <trkpt lat="41.8241730" lon="-5.4051370">
        <ele>727.6</ele>
        <time>2019-08-15T09:49:53Z</time>
      </trkpt>
      <trkpt lat="41.8242210" lon="-5.4051730">
        <ele>727.5</ele>
        <time>2019-08-15T09:49:54Z</time>
      </trkpt>
      <trkpt lat="41.8242700" lon="-5.4052090">
        <ele>727.4</ele>
        <time>2019-08-15T09:49:55Z</time>
      </trkpt>
      <trkpt lat="41.8243190" lon="-5.4052440">
        <ele>727.3</ele>
        <time>2019-08-15T09:49:56Z</time>
      </trkpt>
      <trkpt lat="41.8243680" lon="-5.4052790">
        <ele>727.2</ele>
        <time>2019-08-15T09:49:57Z</time>
      </trkpt>
      <trkpt lat="41.8244160" lon="-5.4053130">
        <ele>727.1</ele>
        <time>2019-08-15T09:49:58Z</time>
      </trkpt>
      <trkpt lat="41.8244630" lon="-5.4053480">
        <ele>727.0</ele>
        <time>2019-08-15T09:49:59Z</time>
      </trkpt>
      <trkpt lat="41.8245090" lon="-5.4053810">
        <ele>726.9</ele>
        <time>2019-08-15T09:50:00Z</time>
      </trkpt>
      <trkpt lat="41.8245570" lon="-5.4054130">
        <ele>726.7</ele>
        <time>2019-08-15T09:50:01Z</time>
      </trkpt>
      <trkpt lat="41.8246050" lon="-5.4054430">
        <ele>726.6</ele>
        <time>2019-08-15T09:50:02Z</time>
      </trkpt>
      <trkpt lat="41.8246540" lon="-5.4054750">
        <ele>726.4</ele>
        <time>2019-08-15T09:50:03Z</time>
      </trkpt>
      <trkpt lat="41.8247050" lon="-5.4055080">
        <ele>726.2</ele>
        <time>2019-08-15T09:50:04Z</time>
      </trkpt>
      <trkpt lat="41.8247560" lon="-5.4055420">
        <ele>726.0</ele>
        <time>2019-08-15T09:50:05Z</time>
      </trkpt>
      <trkpt lat="41.8248080" lon="-5.4055760">
        <ele>725.9</ele>
        <time>2019-08-15T09:50:06Z</time>
      </trkpt>
      <trkpt lat="41.8248590" lon="-5.4056110">
        <ele>725.7</ele>
        <time>2019-08-15T09:50:07Z</time>
      </trkpt>
      <trkpt lat="41.8249110" lon="-5.4056450">
        <ele>725.6</ele>
        <time>2019-08-15T09:50:08Z</time>
      </trkpt>
      <trkpt lat="41.8249620" lon="-5.4056780">
        <ele>725.4</ele>
        <time>2019-08-15T09:50:09Z</time>
      </trkpt>
      <trkpt lat="41.8250120" lon="-5.4057130">
        <ele>725.3</ele>
        <time>2019-08-15T09:50:10Z</time>
      </trkpt>
      <trkpt lat="41.8250630" lon="-5.4057460">
        <ele>725.2</ele>
        <time>2019-08-15T09:50:11Z</time>
      </trkpt>
      <trkpt lat="41.8251120" lon="-5.4057790">
        <ele>725.1</ele>
        <time>2019-08-15T09:50:12Z</time>
      </trkpt>
      <trkpt lat="41.8251630" lon="-5.4058130">
        <ele>725.1</ele>
        <time>2019-08-15T09:50:13Z</time>
      </trkpt>
      <trkpt lat="41.8252140" lon="-5.4058490">
        <ele>725.0</ele>
        <time>2019-08-15T09:50:14Z</time>
      </trkpt>
      <trkpt lat="41.8252640" lon="-5.4058850">
        <ele>724.9</ele>
        <time>2019-08-15T09:50:15Z</time>
      </trkpt>
      <trkpt lat="41.8253140" lon="-5.4059200">
        <ele>724.8</ele>
        <time>2019-08-15T09:50:16Z</time>
      </trkpt>
      <trkpt lat="41.8253620" lon="-5.4059550">
        <ele>724.7</ele>
        <time>2019-08-15T09:50:17Z</time>
      </trkpt>
      <trkpt lat="41.8254080" lon="-5.4059890">
        <ele>724.6</ele>
        <time>2019-08-15T09:50:18Z</time>
      </trkpt>
      <trkpt lat="41.8254580" lon="-5.4060230">
        <ele>724.5</ele>
        <time>2019-08-15T09:50:19Z</time>
      </trkpt>
      <trkpt lat="41.8255080" lon="-5.4060580">
        <ele>724.4</ele>
        <time>2019-08-15T09:50:20Z</time>
      </trkpt>
      <trkpt lat="41.8255610" lon="-5.4060940">
        <ele>724.3</ele>
        <time>2019-08-15T09:50:21Z</time>
      </trkpt>
      <trkpt lat="41.8256160" lon="-5.4061300">
        <ele>724.2</ele>
        <time>2019-08-15T09:50:22Z</time>
      </trkpt>
      <trkpt lat="41.8256710" lon="-5.4061660">
        <ele>724.0</ele>
        <time>2019-08-15T09:50:23Z</time>
      </trkpt>
      <trkpt lat="41.8257250" lon="-5.4062030">
        <ele>723.9</ele>
        <time>2019-08-15T09:50:24Z</time>
      </trkpt>
      <trkpt lat="41.8257780" lon="-5.4062380">
        <ele>723.7</ele>
        <time>2019-08-15T09:50:25Z</time>
      </trkpt>
      <trkpt lat="41.8258320" lon="-5.4062710">
        <ele>723.5</ele>
        <time>2019-08-15T09:50:26Z</time>
      </trkpt>
      <trkpt lat="41.8258840" lon="-5.4063030">
        <ele>723.3</ele>
        <time>2019-08-15T09:50:27Z</time>
      </trkpt>
      <trkpt lat="41.8259350" lon="-5.4063360">
        <ele>723.1</ele>
        <time>2019-08-15T09:50:28Z</time>
      </trkpt>
      <trkpt lat="41.8259860" lon="-5.4063700">
        <ele>722.9</ele>
        <time>2019-08-15T09:50:29Z</time>
      </trkpt>
      <trkpt lat="41.8260380" lon="-5.4064050">
        <ele>722.7</ele>
        <time>2019-08-15T09:50:30Z</time>
      </trkpt>
      <trkpt lat="41.8260910" lon="-5.4064400">
        <ele>722.5</ele>
        <time>2019-08-15T09:50:31Z</time>
      </trkpt>
      <trkpt lat="41.8261450" lon="-5.4064740">
        <ele>722.3</ele>
        <time>2019-08-15T09:50:32Z</time>
      </trkpt>
      <trkpt lat="41.8261980" lon="-5.4065090">
        <ele>722.1</ele>
        <time>2019-08-15T09:50:33Z</time>
      </trkpt>
      <trkpt lat="41.8262530" lon="-5.4065450">
        <ele>721.9</ele>
        <time>2019-08-15T09:50:34Z</time>
      </trkpt>
      <trkpt lat="41.8263090" lon="-5.4065780">
        <ele>721.8</ele>
        <time>2019-08-15T09:50:35Z</time>
      </trkpt>
      <trkpt lat="41.8263650" lon="-5.4066110">
        <ele>721.6</ele>
        <time>2019-08-15T09:50:36Z</time>
      </trkpt>
      <trkpt lat="41.8264200" lon="-5.4066430">
        <ele>721.5</ele>
        <time>2019-08-15T09:50:37Z</time>
      </trkpt>
      <trkpt lat="41.8264740" lon="-5.4066770">
        <ele>721.4</ele>
        <time>2019-08-15T09:50:38Z</time>
      </trkpt>
      <trkpt lat="41.8265290" lon="-5.4067100">
        <ele>721.3</ele>
        <time>2019-08-15T09:50:39Z</time>
      </trkpt>
      <trkpt lat="41.8265810" lon="-5.4067430">
        <ele>721.2</ele>
        <time>2019-08-15T09:50:40Z</time>
      </trkpt>
      <trkpt lat="41.8266310" lon="-5.4067760">
        <ele>721.1</ele>
        <time>2019-08-15T09:50:41Z</time>
      </trkpt>
      <trkpt lat="41.8266800" lon="-5.4068080">
        <ele>720.9</ele>
        <time>2019-08-15T09:50:42Z</time>
      </trkpt>
      <trkpt lat="41.8267280" lon="-5.4068380">
        <ele>720.8</ele>
        <time>2019-08-15T09:50:43Z</time>
      </trkpt>
      <trkpt lat="41.8267750" lon="-5.4068650">
        <ele>720.7</ele>
        <time>2019-08-15T09:50:44Z</time>
      </trkpt>
      <trkpt lat="41.8268200" lon="-5.4068940">
        <ele>720.5</ele>
        <time>2019-08-15T09:50:45Z</time>
      </trkpt>
      <trkpt lat="41.8268660" lon="-5.4069250">
        <ele>720.3</ele>
        <time>2019-08-15T09:50:46Z</time>
      </trkpt>
      <trkpt lat="41.8269120" lon="-5.4069560">
        <ele>720.2</ele>
        <time>2019-08-15T09:50:47Z</time>
      </trkpt>
      <trkpt lat="41.8269610" lon="-5.4069880">
        <ele>720.0</ele>
        <time>2019-08-15T09:50:48Z</time>
      </trkpt>
      <trkpt lat="41.8270100" lon="-5.4070200">
        <ele>719.9</ele>
        <time>2019-08-15T09:50:49Z</time>
      </trkpt>
      <trkpt lat="41.8270610" lon="-5.4070520">
        <ele>719.8</ele>
        <time>2019-08-15T09:50:50Z</time>
      </trkpt>
      <trkpt lat="41.8271120" lon="-5.4070850">
        <ele>719.6</ele>
        <time>2019-08-15T09:50:51Z</time>
      </trkpt>
      <trkpt lat="41.8271650" lon="-5.4071180">
        <ele>719.5</ele>
        <time>2019-08-15T09:50:52Z</time>
      </trkpt>
      <trkpt lat="41.8272170" lon="-5.4071530">
        <ele>719.5</ele>
        <time>2019-08-15T09:50:53Z</time>
      </trkpt>
      <trkpt lat="41.8272710" lon="-5.4071870">
        <ele>719.4</ele>
        <time>2019-08-15T09:50:54Z</time>
      </trkpt>
      <trkpt lat="41.8273220" lon="-5.4072190">
        <ele>719.3</ele>
        <time>2019-08-15T09:50:55Z</time>
      </trkpt>
      <trkpt lat="41.8273730" lon="-5.4072500">
        <ele>719.2</ele>
        <time>2019-08-15T09:50:56Z</time>
      </trkpt>
      <trkpt lat="41.8274230" lon="-5.4072810">
        <ele>719.1</ele>
        <time>2019-08-15T09:50:57Z</time>
      </trkpt>
      <trkpt lat="41.8274720" lon="-5.4073130">
        <ele>719.0</ele>
        <time>2019-08-15T09:50:58Z</time>
      </trkpt>
      <trkpt lat="41.8275220" lon="-5.4073450">
        <ele>718.9</ele>
        <time>2019-08-15T09:50:59Z</time>
      </trkpt>
      <trkpt lat="41.8275730" lon="-5.4073760">
        <ele>718.8</ele>
        <time>2019-08-15T09:51:00Z</time>
      </trkpt>
      <trkpt lat="41.8276250" lon="-5.4074090">
        <ele>718.7</ele>
        <time>2019-08-15T09:51:01Z</time>
      </trkpt>
      <trkpt lat="41.8276770" lon="-5.4074400">
        <ele>718.6</ele>
        <time>2019-08-15T09:51:02Z</time>
      </trkpt>
      <trkpt lat="41.8277290" lon="-5.4074710">
        <ele>718.4</ele>
        <time>2019-08-15T09:51:03Z</time>
      </trkpt>
      <trkpt lat="41.8277780" lon="-5.4075050">
        <ele>718.3</ele>
        <time>2019-08-15T09:51:04Z</time>
      </trkpt>
      <trkpt lat="41.8278260" lon="-5.4075380">
        <ele>718.2</ele>
        <time>2019-08-15T09:51:05Z</time>
      </trkpt>
      <trkpt lat="41.8278730" lon="-5.4075690">
        <ele>718.1</ele>
        <time>2019-08-15T09:51:06Z</time>
      </trkpt>
      <trkpt lat="41.8279180" lon="-5.4075980">
        <ele>718.0</ele>
        <time>2019-08-15T09:51:07Z</time>
      </trkpt>
      <trkpt lat="41.8279580" lon="-5.4076280">
        <ele>717.9</ele>
        <time>2019-08-15T09:51:08Z</time>
      </trkpt>
      <trkpt lat="41.8279940" lon="-5.4076590">
        <ele>717.8</ele>
        <time>2019-08-15T09:51:09Z</time>
      </trkpt>
      <trkpt lat="41.8280260" lon="-5.4076930">
        <ele>717.8</ele>
        <time>2019-08-15T09:51:10Z</time>
      </trkpt>
      <trkpt lat="41.8280580" lon="-5.4077350">
        <ele>717.7</ele>
        <time>2019-08-15T09:51:11Z</time>
      </trkpt>
      <trkpt lat="41.8280920" lon="-5.4077830">
        <ele>717.6</ele>
        <time>2019-08-15T09:51:12Z</time>
      </trkpt>
      <trkpt lat="41.8281330" lon="-5.4078250">
        <ele>717.6</ele>
        <time>2019-08-15T09:51:13Z</time>
      </trkpt>
      <trkpt lat="41.8281800" lon="-5.4078590">
        <ele>717.5</ele>
        <time>2019-08-15T09:51:14Z</time>
      </trkpt>
      <trkpt lat="41.8282320" lon="-5.4078880">
        <ele>717.4</ele>
        <time>2019-08-15T09:51:15Z</time>
      </trkpt>
      <trkpt lat="41.8282860" lon="-5.4079160">
        <ele>717.4</ele>
        <time>2019-08-15T09:51:16Z</time>
      </trkpt>
      <trkpt lat="41.8283430" lon="-5.4079440">
        <ele>717.3</ele>
        <time>2019-08-15T09:51:17Z</time>
      </trkpt>
      <trkpt lat="41.8284000" lon="-5.4079710">
        <ele>717.2</ele>
        <time>2019-08-15T09:51:18Z</time>
      </trkpt>
      <trkpt lat="41.8284570" lon="-5.4079960">
        <ele>717.2</ele>
        <time>2019-08-15T09:51:19Z</time>
      </trkpt>
      <trkpt lat="41.8285110" lon="-5.4080200">
        <ele>717.1</ele>
        <time>2019-08-15T09:51:20Z</time>
      </trkpt>
      <trkpt lat="41.8285640" lon="-5.4080440">
        <ele>717.0</ele>
        <time>2019-08-15T09:51:21Z</time>
      </trkpt>
      <trkpt lat="41.8286160" lon="-5.4080670">
        <ele>717.0</ele>
        <time>2019-08-15T09:51:22Z</time>
      </trkpt>
      <trkpt lat="41.8286650" lon="-5.4080900">
        <ele>716.9</ele>
        <time>2019-08-15T09:51:23Z</time>
      </trkpt>
      <trkpt lat="41.8287150" lon="-5.4081130">
        <ele>716.9</ele>
        <time>2019-08-15T09:51:24Z</time>
      </trkpt>
      <trkpt lat="41.8287690" lon="-5.4081380">
        <ele>716.8</ele>
        <time>2019-08-15T09:51:25Z</time>
      </trkpt>
      <trkpt lat="41.8288240" lon="-5.4081670">
        <ele>716.8</ele>
        <time>2019-08-15T09:51:26Z</time>
      </trkpt>
      <trkpt lat="41.8288800" lon="-5.4081960">
        <ele>716.7</ele>
        <time>2019-08-15T09:51:27Z</time>
      </trkpt>
      <trkpt lat="41.8289390" lon="-5.4082240">
        <ele>716.6</ele>
        <time>2019-08-15T09:51:28Z</time>
      </trkpt>
      <trkpt lat="41.8289980" lon="-5.4082530">
        <ele>716.6</ele>
        <time>2019-08-15T09:51:29Z</time>
      </trkpt>
      <trkpt lat="41.8290580" lon="-5.4082840">
        <ele>716.5</ele>
        <time>2019-08-15T09:51:30Z</time>
      </trkpt>
      <trkpt lat="41.8291200" lon="-5.4083160">
        <ele>716.4</ele>
        <time>2019-08-15T09:51:31Z</time>
      </trkpt>
      <trkpt lat="41.8291810" lon="-5.4083500">
        <ele>716.3</ele>
        <time>2019-08-15T09:51:32Z</time>
      </trkpt>
      <trkpt lat="41.8292410" lon="-5.4083820">
        <ele>716.2</ele>
        <time>2019-08-15T09:51:33Z</time>
      </trkpt>
      <trkpt lat="41.8292990" lon="-5.4084110">
        <ele>716.1</ele>
        <time>2019-08-15T09:51:34Z</time>
      </trkpt>
      <trkpt lat="41.8293560" lon="-5.4084410">
        <ele>716.0</ele>
        <time>2019-08-15T09:51:35Z</time>
      </trkpt>
      <trkpt lat="41.8294120" lon="-5.4084700">
        <ele>715.9</ele>
        <time>2019-08-15T09:51:36Z</time>
      </trkpt>
      <trkpt lat="41.8294660" lon="-5.4084980">
        <ele>715.9</ele>
        <time>2019-08-15T09:51:37Z</time>
      </trkpt>
      <trkpt lat="41.8295190" lon="-5.4085260">
        <ele>715.8</ele>
        <time>2019-08-15T09:51:38Z</time>
      </trkpt>
      <trkpt lat="41.8295720" lon="-5.4085590">
        <ele>715.7</ele>
        <time>2019-08-15T09:51:39Z</time>
      </trkpt>
      <trkpt lat="41.8296270" lon="-5.4085910">
        <ele>715.6</ele>
        <time>2019-08-15T09:51:40Z</time>
      </trkpt>
      <trkpt lat="41.8296830" lon="-5.4086240">
        <ele>715.5</ele>
        <time>2019-08-15T09:51:41Z</time>
      </trkpt>
      <trkpt lat="41.8297410" lon="-5.4086580">
        <ele>715.3</ele>
        <time>2019-08-15T09:51:42Z</time>
      </trkpt>
      <trkpt lat="41.8298000" lon="-5.4086940">
        <ele>715.2</ele>
        <time>2019-08-15T09:51:43Z</time>
      </trkpt>
      <trkpt lat="41.8298590" lon="-5.4087310">
        <ele>715.1</ele>
        <time>2019-08-15T09:51:44Z</time>
      </trkpt>
      <trkpt lat="41.8299170" lon="-5.4087680">
        <ele>715.0</ele>
        <time>2019-08-15T09:51:45Z</time>
      </trkpt>
      <trkpt lat="41.8299740" lon="-5.4088050">
        <ele>714.9</ele>
        <time>2019-08-15T09:51:46Z</time>
      </trkpt>
      <trkpt lat="41.8300290" lon="-5.4088410">
        <ele>714.8</ele>
        <time>2019-08-15T09:51:47Z</time>
      </trkpt>
      <trkpt lat="41.8300830" lon="-5.4088750">
        <ele>714.7</ele>
        <time>2019-08-15T09:51:48Z</time>
      </trkpt>
      <trkpt lat="41.8301350" lon="-5.4089070">
        <ele>714.6</ele>
        <time>2019-08-15T09:51:49Z</time>
      </trkpt>
      <trkpt lat="41.8301860" lon="-5.4089380">
        <ele>714.5</ele>
        <time>2019-08-15T09:51:50Z</time>
      </trkpt>
      <trkpt lat="41.8302370" lon="-5.4089690">
        <ele>714.4</ele>
        <time>2019-08-15T09:51:51Z</time>
      </trkpt>
      <trkpt lat="41.8302860" lon="-5.4090010">
        <ele>714.3</ele>
        <time>2019-08-15T09:51:52Z</time>
      </trkpt>
      <trkpt lat="41.8303360" lon="-5.4090360">
        <ele>714.1</ele>
        <time>2019-08-15T09:51:53Z</time>
      </trkpt>
      <trkpt lat="41.8303870" lon="-5.4090680">
        <ele>714.0</ele>
        <time>2019-08-15T09:51:54Z</time>
      </trkpt>
      <trkpt lat="41.8304390" lon="-5.4091000">
        <ele>713.9</ele>
        <time>2019-08-15T09:51:55Z</time>
      </trkpt>
      <trkpt lat="41.8304910" lon="-5.4091310">
        <ele>713.7</ele>
        <time>2019-08-15T09:51:56Z</time>
      </trkpt>
      <trkpt lat="41.8305440" lon="-5.4091600">
        <ele>713.6</ele>
        <time>2019-08-15T09:51:57Z</time>
      </trkpt>
      <trkpt lat="41.8305960" lon="-5.4091920">
        <ele>713.4</ele>
        <time>2019-08-15T09:51:58Z</time>
      </trkpt>
      <trkpt lat="41.8306460" lon="-5.4092260">
        <ele>713.3</ele>
        <time>2019-08-15T09:51:59Z</time>
      </trkpt>
      <trkpt lat="41.8306970" lon="-5.4092580">
        <ele>713.1</ele>
        <time>2019-08-15T09:52:00Z</time>
      </trkpt>
      <trkpt lat="41.8307470" lon="-5.4092870">
        <ele>713.0</ele>
        <time>2019-08-15T09:52:01Z</time>
      </trkpt>
      <trkpt lat="41.8307990" lon="-5.4093170">
        <ele>712.9</ele>
        <time>2019-08-15T09:52:02Z</time>
      </trkpt>
      <trkpt lat="41.8308500" lon="-5.4093480">
        <ele>712.8</ele>
        <time>2019-08-15T09:52:03Z</time>
      </trkpt>
      <trkpt lat="41.8308990" lon="-5.4093790">
        <ele>712.7</ele>
        <time>2019-08-15T09:52:04Z</time>
      </trkpt>
      <trkpt lat="41.8309490" lon="-5.4094100">
        <ele>712.6</ele>
        <time>2019-08-15T09:52:05Z</time>
      </trkpt>
      <trkpt lat="41.8309980" lon="-5.4094410">
        <ele>712.5</ele>
        <time>2019-08-15T09:52:06Z</time>
      </trkpt>
      <trkpt lat="41.8310460" lon="-5.4094710">
        <ele>712.5</ele>
        <time>2019-08-15T09:52:07Z</time>
      </trkpt>
      <trkpt lat="41.8310950" lon="-5.4094980">
        <ele>712.4</ele>
        <time>2019-08-15T09:52:08Z</time>
      </trkpt>
      <trkpt lat="41.8311430" lon="-5.4095230">
        <ele>712.4</ele>
        <time>2019-08-15T09:52:09Z</time>
      </trkpt>
      <trkpt lat="41.8311900" lon="-5.4095490">
        <ele>712.3</ele>
        <time>2019-08-15T09:52:10Z</time>
      </trkpt>
      <trkpt lat="41.8312390" lon="-5.4095740">
        <ele>712.2</ele>
        <time>2019-08-15T09:52:11Z</time>
      </trkpt>
      <trkpt lat="41.8312910" lon="-5.4095990">
        <ele>712.1</ele>
        <time>2019-08-15T09:52:12Z</time>
      </trkpt>
      <trkpt lat="41.8313450" lon="-5.4096250">
        <ele>712.0</ele>
        <time>2019-08-15T09:52:13Z</time>
      </trkpt>
      <trkpt lat="41.8313970" lon="-5.4096540">
        <ele>711.9</ele>
        <time>2019-08-15T09:52:14Z</time>
      </trkpt>
      <trkpt lat="41.8314480" lon="-5.4096850">
        <ele>711.8</ele>
        <time>2019-08-15T09:52:15Z</time>
      </trkpt>
      <trkpt lat="41.8314980" lon="-5.4097140">
        <ele>711.7</ele>
        <time>2019-08-15T09:52:16Z</time>
      </trkpt>
      <trkpt lat="41.8315480" lon="-5.4097430">
        <ele>711.6</ele>
        <time>2019-08-15T09:52:17Z</time>
      </trkpt>
      <trkpt lat="41.8315970" lon="-5.4097710">
        <ele>711.5</ele>
        <time>2019-08-15T09:52:18Z</time>
      </trkpt>
      <trkpt lat="41.8316450" lon="-5.4097980">
        <ele>711.4</ele>
        <time>2019-08-15T09:52:19Z</time>
      </trkpt>
      <trkpt lat="41.8316950" lon="-5.4098250">
        <ele>711.3</ele>
        <time>2019-08-15T09:52:20Z</time>
      </trkpt>
      <trkpt lat="41.8317430" lon="-5.4098540">
        <ele>711.2</ele>
        <time>2019-08-15T09:52:21Z</time>
      </trkpt>
      <trkpt lat="41.8317910" lon="-5.4098850">
        <ele>711.0</ele>
        <time>2019-08-15T09:52:22Z</time>
      </trkpt>
      <trkpt lat="41.8318390" lon="-5.4099160">
        <ele>710.9</ele>
        <time>2019-08-15T09:52:23Z</time>
      </trkpt>
      <trkpt lat="41.8318880" lon="-5.4099520">
        <ele>710.8</ele>
        <time>2019-08-15T09:52:24Z</time>
      </trkpt>
      <trkpt lat="41.8319380" lon="-5.4099850">
        <ele>710.7</ele>
        <time>2019-08-15T09:52:25Z</time>
      </trkpt>
      <trkpt lat="41.8319880" lon="-5.4100140">
        <ele>710.6</ele>
        <time>2019-08-15T09:52:26Z</time>
      </trkpt>
      <trkpt lat="41.8320390" lon="-5.4100440">
        <ele>710.5</ele>
        <time>2019-08-15T09:52:27Z</time>
      </trkpt>
      <trkpt lat="41.8320870" lon="-5.4100750">
        <ele>710.4</ele>
        <time>2019-08-15T09:52:28Z</time>
      </trkpt>
      <trkpt lat="41.8321350" lon="-5.4101080">
        <ele>710.3</ele>
        <time>2019-08-15T09:52:29Z</time>
      </trkpt>
      <trkpt lat="41.8321810" lon="-5.4101410">
        <ele>710.3</ele>
        <time>2019-08-15T09:52:30Z</time>
      </trkpt>
      <trkpt lat="41.8322250" lon="-5.4101770">
        <ele>710.2</ele>
        <time>2019-08-15T09:52:31Z</time>
      </trkpt>
      <trkpt lat="41.8322680" lon="-5.4102100">
        <ele>710.1</ele>
        <time>2019-08-15T09:52:32Z</time>
      </trkpt>
      <trkpt lat="41.8323120" lon="-5.4102410">
        <ele>710.0</ele>
        <time>2019-08-15T09:52:33Z</time>
      </trkpt>
      <trkpt lat="41.8323540" lon="-5.4102740">
        <ele>709.9</ele>
        <time>2019-08-15T09:52:34Z</time>
      </trkpt>
      <trkpt lat="41.8323950" lon="-5.4103070">
        <ele>709.8</ele>
        <time>2019-08-15T09:52:35Z</time>
      </trkpt>
      <trkpt lat="41.8324370" lon="-5.4103370">
        <ele>709.7</ele>
        <time>2019-08-15T09:52:36Z</time>
      </trkpt>
      <trkpt lat="41.8324800" lon="-5.4103670">
        <ele>709.6</ele>
        <time>2019-08-15T09:52:37Z</time>
      </trkpt>
      <trkpt lat="41.8325270" lon="-5.4103940">
        <ele>709.5</ele>
        <time>2019-08-15T09:52:38Z</time>
      </trkpt>
      <trkpt lat="41.8325730" lon="-5.4104220">
        <ele>709.4</ele>
        <time>2019-08-15T09:52:39Z</time>
      </trkpt>
      <trkpt lat="41.8326200" lon="-5.4104560">
        <ele>709.2</ele>
        <time>2019-08-15T09:52:40Z</time>
      </trkpt>
      <trkpt lat="41.8326680" lon="-5.4104920">
        <ele>709.1</ele>
        <time>2019-08-15T09:52:41Z</time>
      </trkpt>
      <trkpt lat="41.8327160" lon="-5.4105290">
        <ele>709.0</ele>
        <time>2019-08-15T09:52:42Z</time>
      </trkpt>
      <trkpt lat="41.8327630" lon="-5.4105650">
        <ele>708.9</ele>
        <time>2019-08-15T09:52:43Z</time>
      </trkpt>
      <trkpt lat="41.8328110" lon="-5.4106040">
        <ele>708.8</ele>
        <time>2019-08-15T09:52:44Z</time>
      </trkpt>
      <trkpt lat="41.8328590" lon="-5.4106400">
        <ele>708.7</ele>
        <time>2019-08-15T09:52:45Z</time>
      </trkpt>
      <trkpt lat="41.8329060" lon="-5.4106740">
        <ele>708.6</ele>
        <time>2019-08-15T09:52:46Z</time>
      </trkpt>
      <trkpt lat="41.8329530" lon="-5.4107100">
        <ele>708.6</ele>
        <time>2019-08-15T09:52:47Z</time>
      </trkpt>
      <trkpt lat="41.8329990" lon="-5.4107450">
        <ele>708.5</ele>
        <time>2019-08-15T09:52:48Z</time>
      </trkpt>
      <trkpt lat="41.8330430" lon="-5.4107800">
        <ele>708.4</ele>
        <time>2019-08-15T09:52:49Z</time>
      </trkpt>
      <trkpt lat="41.8330870" lon="-5.4108150">
        <ele>708.4</ele>
        <time>2019-08-15T09:52:50Z</time>
      </trkpt>
      <trkpt lat="41.8331320" lon="-5.4108470">
        <ele>708.3</ele>
        <time>2019-08-15T09:52:51Z</time>
      </trkpt>
      <trkpt lat="41.8331790" lon="-5.4108810">
        <ele>708.3</ele>
        <time>2019-08-15T09:52:52Z</time>
      </trkpt>
      <trkpt lat="41.8332260" lon="-5.4109160">
        <ele>708.2</ele>
        <time>2019-08-15T09:52:53Z</time>
      </trkpt>
      <trkpt lat="41.8332740" lon="-5.4109510">
        <ele>708.1</ele>
        <time>2019-08-15T09:52:54Z</time>
      </trkpt>
      <trkpt lat="41.8333210" lon="-5.4109870">
        <ele>708.0</ele>
        <time>2019-08-15T09:52:55Z</time>
      </trkpt>
      <trkpt lat="41.8333690" lon="-5.4110220">
        <ele>707.9</ele>
        <time>2019-08-15T09:52:56Z</time>
      </trkpt>
      <trkpt lat="41.8334170" lon="-5.4110570">
        <ele>707.8</ele>
        <time>2019-08-15T09:52:57Z</time>
      </trkpt>
      <trkpt lat="41.8334640" lon="-5.4110910">
        <ele>707.7</ele>
        <time>2019-08-15T09:52:58Z</time>
      </trkpt>
      <trkpt lat="41.8335090" lon="-5.4111270">
        <ele>707.5</ele>
        <time>2019-08-15T09:52:59Z</time>
      </trkpt>
      <trkpt lat="41.8335540" lon="-5.4111620">
        <ele>707.4</ele>
        <time>2019-08-15T09:53:00Z</time>
      </trkpt>
      <trkpt lat="41.8335990" lon="-5.4111960">
        <ele>707.3</ele>
        <time>2019-08-15T09:53:01Z</time>
      </trkpt>
      <trkpt lat="41.8336430" lon="-5.4112290">
        <ele>707.2</ele>
        <time>2019-08-15T09:53:02Z</time>
      </trkpt>
      <trkpt lat="41.8336850" lon="-5.4112620">
        <ele>707.1</ele>
        <time>2019-08-15T09:53:03Z</time>
      </trkpt>
      <trkpt lat="41.8337280" lon="-5.4112970">
        <ele>707.0</ele>
        <time>2019-08-15T09:53:04Z</time>
      </trkpt>
      <trkpt lat="41.8337740" lon="-5.4113320">
        <ele>706.9</ele>
        <time>2019-08-15T09:53:05Z</time>
      </trkpt>
      <trkpt lat="41.8338210" lon="-5.4113700">
        <ele>706.8</ele>
        <time>2019-08-15T09:53:06Z</time>
      </trkpt>
      <trkpt lat="41.8338690" lon="-5.4114070">
        <ele>706.8</ele>
        <time>2019-08-15T09:53:07Z</time>
      </trkpt>
      <trkpt lat="41.8339180" lon="-5.4114440">
        <ele>706.7</ele>
        <time>2019-08-15T09:53:08Z</time>
      </trkpt>
      <trkpt lat="41.8339670" lon="-5.4114830">
        <ele>706.6</ele>
        <time>2019-08-15T09:53:09Z</time>
      </trkpt>
      <trkpt lat="41.8340150" lon="-5.4115230">
        <ele>706.5</ele>
        <time>2019-08-15T09:53:10Z</time>
      </trkpt>
      <trkpt lat="41.8340630" lon="-5.4115620">
        <ele>706.4</ele>
        <time>2019-08-15T09:53:11Z</time>
      </trkpt>
      <trkpt lat="41.8341110" lon="-5.4116020">
        <ele>706.3</ele>
        <time>2019-08-15T09:53:12Z</time>
      </trkpt>
      <trkpt lat="41.8341580" lon="-5.4116410">
        <ele>706.1</ele>
        <time>2019-08-15T09:53:13Z</time>
      </trkpt>
      <trkpt lat="41.8342050" lon="-5.4116800">
        <ele>706.0</ele>
        <time>2019-08-15T09:53:14Z</time>
      </trkpt>
      <trkpt lat="41.8342510" lon="-5.4117180">
        <ele>705.9</ele>
        <time>2019-08-15T09:53:15Z</time>
      </trkpt>
      <trkpt lat="41.8342950" lon="-5.4117580">
        <ele>705.9</ele>
        <time>2019-08-15T09:53:16Z</time>
      </trkpt>
      <trkpt lat="41.8343400" lon="-5.4117980">
        <ele>705.8</ele>
        <time>2019-08-15T09:53:17Z</time>
      </trkpt>
      <trkpt lat="41.8343830" lon="-5.4118360">
        <ele>705.7</ele>
        <time>2019-08-15T09:53:18Z</time>
      </trkpt>
      <trkpt lat="41.8344270" lon="-5.4118770">
        <ele>705.7</ele>
        <time>2019-08-15T09:53:19Z</time>
      </trkpt>
      <trkpt lat="41.8344700" lon="-5.4119190">
        <ele>705.6</ele>
        <time>2019-08-15T09:53:20Z</time>
      </trkpt>
      <trkpt lat="41.8345150" lon="-5.4119620">
        <ele>705.5</ele>
        <time>2019-08-15T09:53:21Z</time>
      </trkpt>
      <trkpt lat="41.8345620" lon="-5.4120080">
        <ele>705.5</ele>
        <time>2019-08-15T09:53:22Z</time>
      </trkpt>
      <trkpt lat="41.8346080" lon="-5.4120540">
        <ele>705.4</ele>
        <time>2019-08-15T09:53:23Z</time>
      </trkpt>
      <trkpt lat="41.8346530" lon="-5.4121030">
        <ele>705.3</ele>
        <time>2019-08-15T09:53:24Z</time>
      </trkpt>
      <trkpt lat="41.8346990" lon="-5.4121540">
        <ele>705.3</ele>
        <time>2019-08-15T09:53:25Z</time>
      </trkpt>
      <trkpt lat="41.8347440" lon="-5.4122060">
        <ele>705.2</ele>
        <time>2019-08-15T09:53:26Z</time>
      </trkpt>
      <trkpt lat="41.8347870" lon="-5.4122590">
        <ele>705.1</ele>
        <time>2019-08-15T09:53:27Z</time>
      </trkpt>
      <trkpt lat="41.8348290" lon="-5.4123120">
        <ele>705.0</ele>
        <time>2019-08-15T09:53:28Z</time>
      </trkpt>
      <trkpt lat="41.8348700" lon="-5.4123650">
        <ele>704.8</ele>
        <time>2019-08-15T09:53:29Z</time>
      </trkpt>
      <trkpt lat="41.8349100" lon="-5.4124180">
        <ele>704.7</ele>
        <time>2019-08-15T09:53:30Z</time>
      </trkpt>
      <trkpt lat="41.8349470" lon="-5.4124740">
        <ele>704.5</ele>
        <time>2019-08-15T09:53:31Z</time>
      </trkpt>
      <trkpt lat="41.8349850" lon="-5.4125320">
        <ele>704.3</ele>
        <time>2019-08-15T09:53:32Z</time>
      </trkpt>
      <trkpt lat="41.8350220" lon="-5.4125910">
        <ele>704.2</ele>
        <time>2019-08-15T09:53:33Z</time>
      </trkpt>
      <trkpt lat="41.8350590" lon="-5.4126510">
        <ele>704.0</ele>
        <time>2019-08-15T09:53:34Z</time>
      </trkpt>
      <trkpt lat="41.8350940" lon="-5.4127130">
        <ele>703.9</ele>
        <time>2019-08-15T09:53:35Z</time>
      </trkpt>
      <trkpt lat="41.8351270" lon="-5.4127770">
        <ele>703.7</ele>
        <time>2019-08-15T09:53:36Z</time>
      </trkpt>
      <trkpt lat="41.8351580" lon="-5.4128440">
        <ele>703.6</ele>
        <time>2019-08-15T09:53:37Z</time>
      </trkpt>
      <trkpt lat="41.8351850" lon="-5.4129120">
        <ele>703.5</ele>
        <time>2019-08-15T09:53:38Z</time>
      </trkpt>
      <trkpt lat="41.8352090" lon="-5.4129780">
        <ele>703.5</ele>
        <time>2019-08-15T09:53:39Z</time>
      </trkpt>
      <trkpt lat="41.8352330" lon="-5.4130400">
        <ele>703.4</ele>
        <time>2019-08-15T09:53:40Z</time>
      </trkpt>
      <trkpt lat="41.8352550" lon="-5.4131000">
        <ele>703.3</ele>
        <time>2019-08-15T09:53:41Z</time>
      </trkpt>
      <trkpt lat="41.8352780" lon="-5.4131570">
        <ele>703.3</ele>
        <time>2019-08-15T09:53:42Z</time>
      </trkpt>
      <trkpt lat="41.8353000" lon="-5.4132090">
        <ele>703.3</ele>
        <time>2019-08-15T09:53:43Z</time>
      </trkpt>
      <trkpt lat="41.8353230" lon="-5.4132580">
        <ele>703.2</ele>
        <time>2019-08-15T09:53:44Z</time>
      </trkpt>
      <trkpt lat="41.8353490" lon="-5.4133000">
        <ele>703.2</ele>
        <time>2019-08-15T09:53:45Z</time>
      </trkpt>
      <trkpt lat="41.8353760" lon="-5.4133370">
        <ele>703.2</ele>
        <time>2019-08-15T09:53:46Z</time>
      </trkpt>
      <trkpt lat="41.8354040" lon="-5.4133680">
        <ele>703.2</ele>
        <time>2019-08-15T09:53:47Z</time>
      </trkpt>
      <trkpt lat="41.8354300" lon="-5.4133980">
        <ele>703.2</ele>
        <time>2019-08-15T09:53:48Z</time>
      </trkpt>
      <trkpt lat="41.8354580" lon="-5.4134280">
        <ele>703.2</ele>
        <time>2019-08-15T09:53:49Z</time>
      </trkpt>
      <trkpt lat="41.8354870" lon="-5.4134610">
        <ele>703.2</ele>
        <time>2019-08-15T09:53:50Z</time>
      </trkpt>
      <trkpt lat="41.8355160" lon="-5.4134930">
        <ele>703.1</ele>
        <time>2019-08-15T09:53:51Z</time>
      </trkpt>
      <trkpt lat="41.8355430" lon="-5.4135190">
        <ele>703.1</ele>
        <time>2019-08-15T09:53:52Z</time>
      </trkpt>
      <trkpt lat="41.8355700" lon="-5.4135420">
        <ele>703.1</ele>
        <time>2019-08-15T09:53:53Z</time>
      </trkpt>
      <trkpt lat="41.8355970" lon="-5.4135650">
        <ele>703.1</ele>
        <time>2019-08-15T09:53:54Z</time>
      </trkpt>
      <trkpt lat="41.8356250" lon="-5.4135890">
        <ele>703.1</ele>
        <time>2019-08-15T09:53:55Z</time>
      </trkpt>
      <trkpt lat="41.8356550" lon="-5.4136130">
        <ele>703.1</ele>
        <time>2019-08-15T09:53:56Z</time>
      </trkpt>
      <trkpt lat="41.8356870" lon="-5.4136390">
        <ele>703.1</ele>
        <time>2019-08-15T09:53:57Z</time>
      </trkpt>
      <trkpt lat="41.8357210" lon="-5.4136660">
        <ele>703.1</ele>
        <time>2019-08-15T09:53:58Z</time>
      </trkpt>
      <trkpt lat="41.8357550" lon="-5.4136930">
        <ele>703.1</ele>
        <time>2019-08-15T09:53:59Z</time>
      </trkpt>
      <trkpt lat="41.8357900" lon="-5.4137210">
        <ele>703.0</ele>
        <time>2019-08-15T09:54:00Z</time>
      </trkpt>
      <trkpt lat="41.8358270" lon="-5.4137470">
        <ele>703.0</ele>
        <time>2019-08-15T09:54:01Z</time>
      </trkpt>
      <trkpt lat="41.8358640" lon="-5.4137750">
        <ele>703.0</ele>
        <time>2019-08-15T09:54:02Z</time>
      </trkpt>
      <trkpt lat="41.8359010" lon="-5.4138010">
        <ele>703.0</ele>
        <time>2019-08-15T09:54:03Z</time>
      </trkpt>
      <trkpt lat="41.8359390" lon="-5.4138230">
        <ele>703.0</ele>
        <time>2019-08-15T09:54:04Z</time>
      </trkpt>
      <trkpt lat="41.8359770" lon="-5.4138410">
        <ele>703.0</ele>
        <time>2019-08-15T09:54:05Z</time>
      </trkpt>
      <trkpt lat="41.8360140" lon="-5.4138580">
        <ele>703.0</ele>
        <time>2019-08-15T09:54:06Z</time>
      </trkpt>
      <trkpt lat="41.8360500" lon="-5.4138720">
        <ele>702.9</ele>
        <time>2019-08-15T09:54:07Z</time>
      </trkpt>
      <trkpt lat="41.8360850" lon="-5.4138790">
        <ele>702.9</ele>
        <time>2019-08-15T09:54:08Z</time>
      </trkpt>
      <trkpt lat="41.8361230" lon="-5.4138830">
        <ele>702.9</ele>
        <time>2019-08-15T09:54:09Z</time>
      </trkpt>
      <trkpt lat="41.8361630" lon="-5.4138870">
        <ele>702.8</ele>
        <time>2019-08-15T09:54:10Z</time>
      </trkpt>
      <trkpt lat="41.8362030" lon="-5.4138930">
        <ele>702.7</ele>
        <time>2019-08-15T09:54:11Z</time>
      </trkpt>
      <trkpt lat="41.8362430" lon="-5.4138970">
        <ele>702.7</ele>
        <time>2019-08-15T09:54:12Z</time>
      </trkpt>
      <trkpt lat="41.8362860" lon="-5.4138960">
        <ele>702.6</ele>
        <time>2019-08-15T09:54:13Z</time>
      </trkpt>
      <trkpt lat="41.8363300" lon="-5.4138900">
        <ele>702.6</ele>
        <time>2019-08-15T09:54:14Z</time>
      </trkpt>
      <trkpt lat="41.8363750" lon="-5.4138840">
        <ele>702.6</ele>
        <time>2019-08-15T09:54:15Z</time>
      </trkpt>
      <trkpt lat="41.8364210" lon="-5.4138780">
        <ele>702.5</ele>
        <time>2019-08-15T09:54:16Z</time>
      </trkpt>
      <trkpt lat="41.8364690" lon="-5.4138710">
        <ele>702.5</ele>
        <time>2019-08-15T09:54:17Z</time>
      </trkpt>
      <trkpt lat="41.8365190" lon="-5.4138630">
        <ele>702.4</ele>
        <time>2019-08-15T09:54:18Z</time>
      </trkpt>
      <trkpt lat="41.8365710" lon="-5.4138560">
        <ele>702.3</ele>
        <time>2019-08-15T09:54:19Z</time>
      </trkpt>
      <trkpt lat="41.8366220" lon="-5.4138510">
        <ele>702.1</ele>
        <time>2019-08-15T09:54:20Z</time>
      </trkpt>
      <trkpt lat="41.8366720" lon="-5.4138440">
        <ele>702.0</ele>
        <time>2019-08-15T09:54:21Z</time>
      </trkpt>
      <trkpt lat="41.8367210" lon="-5.4138370">
        <ele>701.9</ele>
        <time>2019-08-15T09:54:22Z</time>
      </trkpt>
      <trkpt lat="41.8367690" lon="-5.4138320">
        <ele>701.7</ele>
        <time>2019-08-15T09:54:23Z</time>
      </trkpt>
      <trkpt lat="41.8368160" lon="-5.4138270">
        <ele>701.6</ele>
        <time>2019-08-15T09:54:24Z</time>
      </trkpt>
      <trkpt lat="41.8368660" lon="-5.4138190">
        <ele>701.5</ele>
        <time>2019-08-15T09:54:25Z</time>
      </trkpt>
      <trkpt lat="41.8369160" lon="-5.4138100">
        <ele>701.4</ele>
        <time>2019-08-15T09:54:26Z</time>
      </trkpt>
      <trkpt lat="41.8369670" lon="-5.4138030">
        <ele>701.4</ele>
        <time>2019-08-15T09:54:27Z</time>
      </trkpt>
      <trkpt lat="41.8370190" lon="-5.4137960">
        <ele>701.3</ele>
        <time>2019-08-15T09:54:28Z</time>
      </trkpt>
      <trkpt lat="41.8370720" lon="-5.4137900">
        <ele>701.2</ele>
        <time>2019-08-15T09:54:29Z</time>
      </trkpt>
      <trkpt lat="41.8371260" lon="-5.4137850">
        <ele>701.2</ele>
        <time>2019-08-15T09:54:30Z</time>
      </trkpt>
      <trkpt lat="41.8371790" lon="-5.4137800">
        <ele>701.1</ele>
        <time>2019-08-15T09:54:31Z</time>
      </trkpt>
      <trkpt lat="41.8372320" lon="-5.4137740">
        <ele>701.1</ele>
        <time>2019-08-15T09:54:32Z</time>
      </trkpt>
      <trkpt lat="41.8372850" lon="-5.4137690">
        <ele>701.1</ele>
        <time>2019-08-15T09:54:33Z</time>
      </trkpt>
      <trkpt lat="41.8373350" lon="-5.4137640">
        <ele>701.0</ele>
        <time>2019-08-15T09:54:34Z</time>
      </trkpt>
      <trkpt lat="41.8373840" lon="-5.4137590">
        <ele>701.0</ele>
        <time>2019-08-15T09:54:35Z</time>
      </trkpt>
      <trkpt lat="41.8374300" lon="-5.4137530">
        <ele>701.0</ele>
        <time>2019-08-15T09:54:36Z</time>
      </trkpt>
      <trkpt lat="41.8374740" lon="-5.4137470">
        <ele>700.9</ele>
        <time>2019-08-15T09:54:37Z</time>
      </trkpt>
      <trkpt lat="41.8375180" lon="-5.4137440">
        <ele>700.9</ele>
        <time>2019-08-15T09:54:38Z</time>
      </trkpt>
      <trkpt lat="41.8375630" lon="-5.4137400">
        <ele>700.9</ele>
        <time>2019-08-15T09:54:39Z</time>
      </trkpt>
      <trkpt lat="41.8376120" lon="-5.4137350">
        <ele>700.9</ele>
        <time>2019-08-15T09:54:40Z</time>
      </trkpt>
      <trkpt lat="41.8376600" lon="-5.4137290">
        <ele>700.9</ele>
        <time>2019-08-15T09:54:41Z</time>
      </trkpt>
      <trkpt lat="41.8377110" lon="-5.4137220">
        <ele>700.8</ele>
        <time>2019-08-15T09:54:42Z</time>
      </trkpt>
      <trkpt lat="41.8377620" lon="-5.4137150">
        <ele>700.8</ele>
        <time>2019-08-15T09:54:43Z</time>
      </trkpt>
      <trkpt lat="41.8378150" lon="-5.4137110">
        <ele>700.8</ele>
        <time>2019-08-15T09:54:44Z</time>
      </trkpt>
      <trkpt lat="41.8378690" lon="-5.4137060">
        <ele>700.7</ele>
        <time>2019-08-15T09:54:45Z</time>
      </trkpt>
      <trkpt lat="41.8379220" lon="-5.4137010">
        <ele>700.7</ele>
        <time>2019-08-15T09:54:46Z</time>
      </trkpt>
      <trkpt lat="41.8379770" lon="-5.4136950">
        <ele>700.6</ele>
        <time>2019-08-15T09:54:47Z</time>
      </trkpt>
      <trkpt lat="41.8380300" lon="-5.4136900">
        <ele>700.5</ele>
        <time>2019-08-15T09:54:48Z</time>
      </trkpt>
      <trkpt lat="41.8380810" lon="-5.4136850">
        <ele>700.4</ele>
        <time>2019-08-15T09:54:49Z</time>
      </trkpt>
      <trkpt lat="41.8381300" lon="-5.4136780">
        <ele>700.3</ele>
        <time>2019-08-15T09:54:50Z</time>
      </trkpt>
      <trkpt lat="41.8381810" lon="-5.4136710">
        <ele>700.3</ele>
        <time>2019-08-15T09:54:51Z</time>
      </trkpt>
      <trkpt lat="41.8382320" lon="-5.4136660">
        <ele>700.2</ele>
        <time>2019-08-15T09:54:52Z</time>
      </trkpt>
      <trkpt lat="41.8382840" lon="-5.4136610">
        <ele>700.1</ele>
        <time>2019-08-15T09:54:53Z</time>
      </trkpt>
      <trkpt lat="41.8383370" lon="-5.4136550">
        <ele>700.0</ele>
        <time>2019-08-15T09:54:54Z</time>
      </trkpt>
      <trkpt lat="41.8383900" lon="-5.4136480">
        <ele>700.0</ele>
        <time>2019-08-15T09:54:55Z</time>
      </trkpt>
      <trkpt lat="41.8384440" lon="-5.4136410">
        <ele>699.9</ele>
        <time>2019-08-15T09:54:56Z</time>
      </trkpt>
      <trkpt lat="41.8384980" lon="-5.4136330">
        <ele>699.8</ele>
        <time>2019-08-15T09:54:57Z</time>
      </trkpt>
      <trkpt lat="41.8385510" lon="-5.4136280">
        <ele>699.8</ele>
        <time>2019-08-15T09:54:58Z</time>
      </trkpt>
      <trkpt lat="41.8386030" lon="-5.4136220">
        <ele>699.7</ele>
        <time>2019-08-15T09:54:59Z</time>
      </trkpt>
      <trkpt lat="41.8386540" lon="-5.4136160">
        <ele>699.7</ele>
        <time>2019-08-15T09:55:00Z</time>
      </trkpt>
      <trkpt lat="41.8387040" lon="-5.4136100">
        <ele>699.6</ele>
        <time>2019-08-15T09:55:01Z</time>
      </trkpt>
      <trkpt lat="41.8387550" lon="-5.4136040">
        <ele>699.5</ele>
        <time>2019-08-15T09:55:02Z</time>
      </trkpt>
      <trkpt lat="41.8388070" lon="-5.4135970">
        <ele>699.5</ele>
        <time>2019-08-15T09:55:03Z</time>
      </trkpt>
      <trkpt lat="41.8388600" lon="-5.4135920">
        <ele>699.4</ele>
        <time>2019-08-15T09:55:04Z</time>
      </trkpt>
      <trkpt lat="41.8389140" lon="-5.4135860">
        <ele>699.3</ele>
        <time>2019-08-15T09:55:05Z</time>
      </trkpt>
      <trkpt lat="41.8389670" lon="-5.4135800">
        <ele>699.2</ele>
        <time>2019-08-15T09:55:06Z</time>
      </trkpt>
      <trkpt lat="41.8390180" lon="-5.4135750">
        <ele>699.1</ele>
        <time>2019-08-15T09:55:07Z</time>
      </trkpt>
      <trkpt lat="41.8390700" lon="-5.4135700">
        <ele>699.0</ele>
        <time>2019-08-15T09:55:08Z</time>
      </trkpt>
      <trkpt lat="41.8391240" lon="-5.4135640">
        <ele>698.9</ele>
        <time>2019-08-15T09:55:09Z</time>
      </trkpt>
      <trkpt lat="41.8391790" lon="-5.4135580">
        <ele>698.8</ele>
        <time>2019-08-15T09:55:10Z</time>
      </trkpt>
      <trkpt lat="41.8392350" lon="-5.4135520">
        <ele>698.7</ele>
        <time>2019-08-15T09:55:11Z</time>
      </trkpt>
      <trkpt lat="41.8392920" lon="-5.4135450">
        <ele>698.5</ele>
        <time>2019-08-15T09:55:12Z</time>
      </trkpt>
      <trkpt lat="41.8393500" lon="-5.4135380">
        <ele>698.4</ele>
        <time>2019-08-15T09:55:13Z</time>
      </trkpt>
      <trkpt lat="41.8394050" lon="-5.4135310">
        <ele>698.2</ele>
        <time>2019-08-15T09:55:14Z</time>
      </trkpt>
      <trkpt lat="41.8394580" lon="-5.4135220">
        <ele>698.1</ele>
        <time>2019-08-15T09:55:15Z</time>
      </trkpt>
      <trkpt lat="41.8395100" lon="-5.4135100">
        <ele>698.0</ele>
        <time>2019-08-15T09:55:16Z</time>
      </trkpt>
      <trkpt lat="41.8395610" lon="-5.4134980">
        <ele>697.8</ele>
        <time>2019-08-15T09:55:17Z</time>
      </trkpt>
      <trkpt lat="41.8396120" lon="-5.4134880">
        <ele>697.7</ele>
        <time>2019-08-15T09:55:18Z</time>
      </trkpt>
      <trkpt lat="41.8396610" lon="-5.4134760">
        <ele>697.7</ele>
        <time>2019-08-15T09:55:19Z</time>
      </trkpt>
      <trkpt lat="41.8397090" lon="-5.4134670">
        <ele>697.6</ele>
        <time>2019-08-15T09:55:20Z</time>
      </trkpt>
      <trkpt lat="41.8397580" lon="-5.4134560">
        <ele>697.5</ele>
        <time>2019-08-15T09:55:21Z</time>
      </trkpt>
      <trkpt lat="41.8398060" lon="-5.4134450">
        <ele>697.5</ele>
        <time>2019-08-15T09:55:22Z</time>
      </trkpt>
      <trkpt lat="41.8398520" lon="-5.4134330">
        <ele>697.4</ele>
        <time>2019-08-15T09:55:23Z</time>
      </trkpt>
      <trkpt lat="41.8398970" lon="-5.4134190">
        <ele>697.4</ele>
        <time>2019-08-15T09:55:24Z</time>
      </trkpt>
      <trkpt lat="41.8399420" lon="-5.4134040">
        <ele>697.3</ele>
        <time>2019-08-15T09:55:25Z</time>
      </trkpt>
      <trkpt lat="41.8399870" lon="-5.4133930">
        <ele>697.3</ele>
        <time>2019-08-15T09:55:26Z</time>
      </trkpt>
      <trkpt lat="41.8400320" lon="-5.4133830">
        <ele>697.2</ele>
        <time>2019-08-15T09:55:27Z</time>
      </trkpt>
      <trkpt lat="41.8400790" lon="-5.4133700">
        <ele>697.1</ele>
        <time>2019-08-15T09:55:28Z</time>
      </trkpt>
      <trkpt lat="41.8401270" lon="-5.4133580">
        <ele>697.1</ele>
        <time>2019-08-15T09:55:29Z</time>
      </trkpt>
      <trkpt lat="41.8401770" lon="-5.4133480">
        <ele>697.0</ele>
        <time>2019-08-15T09:55:30Z</time>
      </trkpt>
      <trkpt lat="41.8402290" lon="-5.4133360">
        <ele>696.9</ele>
        <time>2019-08-15T09:55:31Z</time>
      </trkpt>
      <trkpt lat="41.8402780" lon="-5.4133230">
        <ele>696.8</ele>
        <time>2019-08-15T09:55:32Z</time>
      </trkpt>
      <trkpt lat="41.8403280" lon="-5.4133080">
        <ele>696.7</ele>
        <time>2019-08-15T09:55:33Z</time>
      </trkpt>
      <trkpt lat="41.8403770" lon="-5.4132950">
        <ele>696.7</ele>
        <time>2019-08-15T09:55:34Z</time>
      </trkpt>
      <trkpt lat="41.8404250" lon="-5.4132850">
        <ele>696.6</ele>
        <time>2019-08-15T09:55:35Z</time>
      </trkpt>
      <trkpt lat="41.8404750" lon="-5.4132790">
        <ele>696.5</ele>
        <time>2019-08-15T09:55:36Z</time>
      </trkpt>
      <trkpt lat="41.8405240" lon="-5.4132690">
        <ele>696.4</ele>
        <time>2019-08-15T09:55:37Z</time>
      </trkpt>
      <trkpt lat="41.8405730" lon="-5.4132590">
        <ele>696.3</ele>
        <time>2019-08-15T09:55:38Z</time>
      </trkpt>
      <trkpt lat="41.8406230" lon="-5.4132460">
        <ele>696.2</ele>
        <time>2019-08-15T09:55:39Z</time>
      </trkpt>
      <trkpt lat="41.8406740" lon="-5.4132350">
        <ele>696.1</ele>
        <time>2019-08-15T09:55:40Z</time>
      </trkpt>
      <trkpt lat="41.8407290" lon="-5.4132230">
        <ele>695.9</ele>
        <time>2019-08-15T09:55:41Z</time>
      </trkpt>
      <trkpt lat="41.8407860" lon="-5.4132120">
        <ele>695.8</ele>
        <time>2019-08-15T09:55:42Z</time>
      </trkpt>
      <trkpt lat="41.8408430" lon="-5.4131980">
        <ele>695.7</ele>
        <time>2019-08-15T09:55:43Z</time>
      </trkpt>
      <trkpt lat="41.8409000" lon="-5.4131850">
        <ele>695.6</ele>
        <time>2019-08-15T09:55:44Z</time>
      </trkpt>
      <trkpt lat="41.8409560" lon="-5.4131760">
        <ele>695.5</ele>
        <time>2019-08-15T09:55:45Z</time>
      </trkpt>
      <trkpt lat="41.8410120" lon="-5.4131670">
        <ele>695.4</ele>
        <time>2019-08-15T09:55:46Z</time>
      </trkpt>
      <trkpt lat="41.8410700" lon="-5.4131600">
        <ele>695.3</ele>
        <time>2019-08-15T09:55:47Z</time>
      </trkpt>
      <trkpt lat="41.8411280" lon="-5.4131530">
        <ele>695.2</ele>
        <time>2019-08-15T09:55:48Z</time>
      </trkpt>
      <trkpt lat="41.8411860" lon="-5.4131470">
        <ele>695.0</ele>
        <time>2019-08-15T09:55:49Z</time>
      </trkpt>
      <trkpt lat="41.8412420" lon="-5.4131440">
        <ele>694.9</ele>
        <time>2019-08-15T09:55:50Z</time>
      </trkpt>
      <trkpt lat="41.8412980" lon="-5.4131420">
        <ele>694.8</ele>
        <time>2019-08-15T09:55:51Z</time>
      </trkpt>
      <trkpt lat="41.8413530" lon="-5.4131420">
        <ele>694.6</ele>
        <time>2019-08-15T09:55:52Z</time>
      </trkpt>
      <trkpt lat="41.8414060" lon="-5.4131430">
        <ele>694.5</ele>
        <time>2019-08-15T09:55:53Z</time>
      </trkpt>
      <trkpt lat="41.8414580" lon="-5.4131430">
        <ele>694.3</ele>
        <time>2019-08-15T09:55:54Z</time>
      </trkpt>
      <trkpt lat="41.8415100" lon="-5.4131450">
        <ele>694.2</ele>
        <time>2019-08-15T09:55:55Z</time>
      </trkpt>
      <trkpt lat="41.8415610" lon="-5.4131510">
        <ele>694.1</ele>
        <time>2019-08-15T09:55:56Z</time>
      </trkpt>
      <trkpt lat="41.8416100" lon="-5.4131600">
        <ele>693.9</ele>
        <time>2019-08-15T09:55:57Z</time>
      </trkpt>
      <trkpt lat="41.8416590" lon="-5.4131700">
        <ele>693.8</ele>
        <time>2019-08-15T09:55:58Z</time>
      </trkpt>
      <trkpt lat="41.8417090" lon="-5.4131800">
        <ele>693.7</ele>
        <time>2019-08-15T09:55:59Z</time>
      </trkpt>
      <trkpt lat="41.8417590" lon="-5.4131850">
        <ele>693.5</ele>
        <time>2019-08-15T09:56:00Z</time>
      </trkpt>
      <trkpt lat="41.8418120" lon="-5.4131890">
        <ele>693.4</ele>
        <time>2019-08-15T09:56:01Z</time>
      </trkpt>
      <trkpt lat="41.8418670" lon="-5.4131990">
        <ele>693.4</ele>
        <time>2019-08-15T09:56:02Z</time>
      </trkpt>
      <trkpt lat="41.8419210" lon="-5.4132100">
        <ele>693.3</ele>
        <time>2019-08-15T09:56:03Z</time>
      </trkpt>
      <trkpt lat="41.8419760" lon="-5.4132190">
        <ele>693.2</ele>
        <time>2019-08-15T09:56:04Z</time>
      </trkpt>
      <trkpt lat="41.8420330" lon="-5.4132280">
        <ele>693.1</ele>
        <time>2019-08-15T09:56:05Z</time>
      </trkpt>
      <trkpt lat="41.8420910" lon="-5.4132360">
        <ele>693.0</ele>
        <time>2019-08-15T09:56:06Z</time>
      </trkpt>
      <trkpt lat="41.8421490" lon="-5.4132440">
        <ele>692.9</ele>
        <time>2019-08-15T09:56:07Z</time>
      </trkpt>
      <trkpt lat="41.8422080" lon="-5.4132490">
        <ele>692.8</ele>
        <time>2019-08-15T09:56:08Z</time>
      </trkpt>
      <trkpt lat="41.8422660" lon="-5.4132550">
        <ele>692.6</ele>
        <time>2019-08-15T09:56:09Z</time>
      </trkpt>
      <trkpt lat="41.8423230" lon="-5.4132620">
        <ele>692.5</ele>
        <time>2019-08-15T09:56:10Z</time>
      </trkpt>
      <trkpt lat="41.8423820" lon="-5.4132690">
        <ele>692.3</ele>
        <time>2019-08-15T09:56:11Z</time>
      </trkpt>
      <trkpt lat="41.8424400" lon="-5.4132760">
        <ele>692.2</ele>
        <time>2019-08-15T09:56:12Z</time>
      </trkpt>
      <trkpt lat="41.8424980" lon="-5.4132840">
        <ele>692.1</ele>
        <time>2019-08-15T09:56:13Z</time>
      </trkpt>
      <trkpt lat="41.8425570" lon="-5.4132910">
        <ele>692.0</ele>
        <time>2019-08-15T09:56:14Z</time>
      </trkpt>
      <trkpt lat="41.8426160" lon="-5.4132990">
        <ele>691.9</ele>
        <time>2019-08-15T09:56:15Z</time>
      </trkpt>
      <trkpt lat="41.8426750" lon="-5.4133080">
        <ele>691.8</ele>
        <time>2019-08-15T09:56:16Z</time>
      </trkpt>
      <trkpt lat="41.8427330" lon="-5.4133160">
        <ele>691.7</ele>
        <time>2019-08-15T09:56:17Z</time>
      </trkpt>
      <trkpt lat="41.8427920" lon="-5.4133230">
        <ele>691.7</ele>
        <time>2019-08-15T09:56:18Z</time>
      </trkpt>
      <trkpt lat="41.8428490" lon="-5.4133310">
        <ele>691.6</ele>
        <time>2019-08-15T09:56:19Z</time>
      </trkpt>
      <trkpt lat="41.8429060" lon="-5.4133380">
        <ele>691.5</ele>
        <time>2019-08-15T09:56:20Z</time>
      </trkpt>
      <trkpt lat="41.8429620" lon="-5.4133440">
        <ele>691.5</ele>
        <time>2019-08-15T09:56:21Z</time>
      </trkpt>
      <trkpt lat="41.8430180" lon="-5.4133480">
        <ele>691.4</ele>
        <time>2019-08-15T09:56:22Z</time>
      </trkpt>
      <trkpt lat="41.8430720" lon="-5.4133520">
        <ele>691.4</ele>
        <time>2019-08-15T09:56:23Z</time>
      </trkpt>
      <trkpt lat="41.8431240" lon="-5.4133570">
        <ele>691.3</ele>
        <time>2019-08-15T09:56:24Z</time>
      </trkpt>
      <trkpt lat="41.8431740" lon="-5.4133630">
        <ele>691.3</ele>
        <time>2019-08-15T09:56:25Z</time>
      </trkpt>
      <trkpt lat="41.8432230" lon="-5.4133660">
        <ele>691.3</ele>
        <time>2019-08-15T09:56:26Z</time>
      </trkpt>
      <trkpt lat="41.8432730" lon="-5.4133710">
        <ele>691.3</ele>
        <time>2019-08-15T09:56:27Z</time>
      </trkpt>
      <trkpt lat="41.8433230" lon="-5.4133770">
        <ele>691.2</ele>
        <time>2019-08-15T09:56:28Z</time>
      </trkpt>
      <trkpt lat="41.8433740" lon="-5.4133810">
        <ele>691.2</ele>
        <time>2019-08-15T09:56:29Z</time>
      </trkpt>
      <trkpt lat="41.8434240" lon="-5.4133880">
        <ele>691.2</ele>
        <time>2019-08-15T09:56:30Z</time>
      </trkpt>
      <trkpt lat="41.8434730" lon="-5.4133980">
        <ele>691.2</ele>
        <time>2019-08-15T09:56:31Z</time>
      </trkpt>
      <trkpt lat="41.8435240" lon="-5.4134060">
        <ele>691.1</ele>
        <time>2019-08-15T09:56:32Z</time>
      </trkpt>
      <trkpt lat="41.8435740" lon="-5.4134140">
        <ele>691.1</ele>
        <time>2019-08-15T09:56:33Z</time>
      </trkpt>
      <trkpt lat="41.8436240" lon="-5.4134210">
        <ele>691.1</ele>
        <time>2019-08-15T09:56:34Z</time>
      </trkpt>
      <trkpt lat="41.8436740" lon="-5.4134290">
        <ele>691.1</ele>
        <time>2019-08-15T09:56:35Z</time>
      </trkpt>
      <trkpt lat="41.8437250" lon="-5.4134360">
        <ele>691.2</ele>
        <time>2019-08-15T09:56:36Z</time>
      </trkpt>
      <trkpt lat="41.8437760" lon="-5.4134440">
        <ele>691.2</ele>
        <time>2019-08-15T09:56:37Z</time>
      </trkpt>
      <trkpt lat="41.8438250" lon="-5.4134510">
        <ele>691.3</ele>
        <time>2019-08-15T09:56:38Z</time>
      </trkpt>
      <trkpt lat="41.8438740" lon="-5.4134560">
        <ele>691.3</ele>
        <time>2019-08-15T09:56:39Z</time>
      </trkpt>
      <trkpt lat="41.8439200" lon="-5.4134600">
        <ele>691.4</ele>
        <time>2019-08-15T09:56:40Z</time>
      </trkpt>
      <trkpt lat="41.8439650" lon="-5.4134660">
        <ele>691.4</ele>
        <time>2019-08-15T09:56:41Z</time>
      </trkpt>
      <trkpt lat="41.8440120" lon="-5.4134750">
        <ele>691.4</ele>
        <time>2019-08-15T09:56:42Z</time>
      </trkpt>
      <trkpt lat="41.8440590" lon="-5.4134820">
        <ele>691.5</ele>
        <time>2019-08-15T09:56:43Z</time>
      </trkpt>
      <trkpt lat="41.8441070" lon="-5.4134890">
        <ele>691.5</ele>
        <time>2019-08-15T09:56:44Z</time>
      </trkpt>
      <trkpt lat="41.8441550" lon="-5.4134940">
        <ele>691.5</ele>
        <time>2019-08-15T09:56:45Z</time>
      </trkpt>
      <trkpt lat="41.8442030" lon="-5.4135000">
        <ele>691.5</ele>
        <time>2019-08-15T09:56:46Z</time>
      </trkpt>
      <trkpt lat="41.8442510" lon="-5.4135070">
        <ele>691.5</ele>
        <time>2019-08-15T09:56:47Z</time>
      </trkpt>
      <trkpt lat="41.8443000" lon="-5.4135140">
        <ele>691.5</ele>
        <time>2019-08-15T09:56:48Z</time>
      </trkpt>
      <trkpt lat="41.8443480" lon="-5.4135190">
        <ele>691.5</ele>
        <time>2019-08-15T09:56:49Z</time>
      </trkpt>
      <trkpt lat="41.8443960" lon="-5.4135240">
        <ele>691.6</ele>
        <time>2019-08-15T09:56:50Z</time>
      </trkpt>
      <trkpt lat="41.8444450" lon="-5.4135300">
        <ele>691.6</ele>
        <time>2019-08-15T09:56:51Z</time>
      </trkpt>
      <trkpt lat="41.8444940" lon="-5.4135340">
        <ele>691.6</ele>
        <time>2019-08-15T09:56:52Z</time>
      </trkpt>
      <trkpt lat="41.8445430" lon="-5.4135390">
        <ele>691.6</ele>
        <time>2019-08-15T09:56:53Z</time>
      </trkpt>
      <trkpt lat="41.8445920" lon="-5.4135440">
        <ele>691.7</ele>
        <time>2019-08-15T09:56:54Z</time>
      </trkpt>
      <trkpt lat="41.8446410" lon="-5.4135490">
        <ele>691.7</ele>
        <time>2019-08-15T09:56:55Z</time>
      </trkpt>
      <trkpt lat="41.8446880" lon="-5.4135530">
        <ele>691.7</ele>
        <time>2019-08-15T09:56:56Z</time>
      </trkpt>
      <trkpt lat="41.8447360" lon="-5.4135590">
        <ele>691.8</ele>
        <time>2019-08-15T09:56:57Z</time>
      </trkpt>
      <trkpt lat="41.8447830" lon="-5.4135640">
        <ele>691.8</ele>
        <time>2019-08-15T09:56:58Z</time>
      </trkpt>
      <trkpt lat="41.8448300" lon="-5.4135700">
        <ele>691.8</ele>
        <time>2019-08-15T09:56:59Z</time>
      </trkpt>
      <trkpt lat="41.8448760" lon="-5.4135760">
        <ele>691.9</ele>
        <time>2019-08-15T09:57:00Z</time>
      </trkpt>
      <trkpt lat="41.8449220" lon="-5.4135810">
        <ele>691.9</ele>
        <time>2019-08-15T09:57:01Z</time>
      </trkpt>
      <trkpt lat="41.8449690" lon="-5.4135890">
        <ele>691.9</ele>
        <time>2019-08-15T09:57:02Z</time>
      </trkpt>
      <trkpt lat="41.8450140" lon="-5.4135940">
        <ele>692.0</ele>
        <time>2019-08-15T09:57:03Z</time>
      </trkpt>
      <trkpt lat="41.8450590" lon="-5.4135990">
        <ele>692.0</ele>
        <time>2019-08-15T09:57:04Z</time>
      </trkpt>
      <trkpt lat="41.8451040" lon="-5.4136040">
        <ele>692.1</ele>
        <time>2019-08-15T09:57:05Z</time>
      </trkpt>
      <trkpt lat="41.8451480" lon="-5.4136090">
        <ele>692.1</ele>
        <time>2019-08-15T09:57:06Z</time>
      </trkpt>
      <trkpt lat="41.8451920" lon="-5.4136150">
        <ele>692.2</ele>
        <time>2019-08-15T09:57:07Z</time>
      </trkpt>
      <trkpt lat="41.8452340" lon="-5.4136200">
        <ele>692.2</ele>
        <time>2019-08-15T09:57:08Z</time>
      </trkpt>
      <trkpt lat="41.8452750" lon="-5.4136250">
        <ele>692.3</ele>
        <time>2019-08-15T09:57:09Z</time>
      </trkpt>
      <trkpt lat="41.8453150" lon="-5.4136300">
        <ele>692.3</ele>
        <time>2019-08-15T09:57:10Z</time>
      </trkpt>
      <trkpt lat="41.8453540" lon="-5.4136340">
        <ele>692.4</ele>
        <time>2019-08-15T09:57:11Z</time>
      </trkpt>
      <trkpt lat="41.8453930" lon="-5.4136380">
        <ele>692.4</ele>
        <time>2019-08-15T09:57:12Z</time>
      </trkpt>
      <trkpt lat="41.8454310" lon="-5.4136430">
        <ele>692.5</ele>
        <time>2019-08-15T09:57:13Z</time>
      </trkpt>
      <trkpt lat="41.8454690" lon="-5.4136480">
        <ele>692.5</ele>
        <time>2019-08-15T09:57:14Z</time>
      </trkpt>
      <trkpt lat="41.8455070" lon="-5.4136530">
        <ele>692.6</ele>
        <time>2019-08-15T09:57:15Z</time>
      </trkpt>
      <trkpt lat="41.8455430" lon="-5.4136570">
        <ele>692.7</ele>
        <time>2019-08-15T09:57:16Z</time>
      </trkpt>
      <trkpt lat="41.8455800" lon="-5.4136620">
        <ele>692.9</ele>
        <time>2019-08-15T09:57:17Z</time>
      </trkpt>
      <trkpt lat="41.8456170" lon="-5.4136670">
        <ele>693.0</ele>
        <time>2019-08-15T09:57:18Z</time>
      </trkpt>
      <trkpt lat="41.8456540" lon="-5.4136730">
        <ele>693.1</ele>
        <time>2019-08-15T09:57:19Z</time>
      </trkpt>
      <trkpt lat="41.8456920" lon="-5.4136770">
        <ele>693.3</ele>
        <time>2019-08-15T09:57:20Z</time>
      </trkpt>
      <trkpt lat="41.8457290" lon="-5.4136850">
        <ele>693.5</ele>
        <time>2019-08-15T09:57:21Z</time>
      </trkpt>
      <trkpt lat="41.8457680" lon="-5.4136900">
        <ele>693.6</ele>
        <time>2019-08-15T09:57:22Z</time>
      </trkpt>
      <trkpt lat="41.8458070" lon="-5.4136940">
        <ele>693.8</ele>
        <time>2019-08-15T09:57:23Z</time>
      </trkpt>
      <trkpt lat="41.8458470" lon="-5.4136980">
        <ele>693.9</ele>
        <time>2019-08-15T09:57:24Z</time>
      </trkpt>
      <trkpt lat="41.8458860" lon="-5.4137030">
        <ele>694.1</ele>
        <time>2019-08-15T09:57:25Z</time>
      </trkpt>
      <trkpt lat="41.8459260" lon="-5.4137090">
        <ele>694.2</ele>
        <time>2019-08-15T09:57:26Z</time>
      </trkpt>
      <trkpt lat="41.8459640" lon="-5.4137150">
        <ele>694.3</ele>
        <time>2019-08-15T09:57:27Z</time>
      </trkpt>
      <trkpt lat="41.8460030" lon="-5.4137230">
        <ele>694.5</ele>
        <time>2019-08-15T09:57:28Z</time>
      </trkpt>
      <trkpt lat="41.8460430" lon="-5.4137300">
        <ele>694.6</ele>
        <time>2019-08-15T09:57:29Z</time>
      </trkpt>
      <trkpt lat="41.8460830" lon="-5.4137350">
        <ele>694.7</ele>
        <time>2019-08-15T09:57:30Z</time>
      </trkpt>
      <trkpt lat="41.8461240" lon="-5.4137390">
        <ele>694.9</ele>
        <time>2019-08-15T09:57:31Z</time>
      </trkpt>
      <trkpt lat="41.8461630" lon="-5.4137420">
        <ele>695.0</ele>
        <time>2019-08-15T09:57:32Z</time>
      </trkpt>
      <trkpt lat="41.8462010" lon="-5.4137450">
        <ele>695.1</ele>
        <time>2019-08-15T09:57:33Z</time>
      </trkpt>
      <trkpt lat="41.8462400" lon="-5.4137510">
        <ele>695.3</ele>
        <time>2019-08-15T09:57:34Z</time>
      </trkpt>
      <trkpt lat="41.8462820" lon="-5.4137570">
        <ele>695.4</ele>
        <time>2019-08-15T09:57:35Z</time>
      </trkpt>
      <trkpt lat="41.8463260" lon="-5.4137630">
        <ele>695.6</ele>
        <time>2019-08-15T09:57:36Z</time>
      </trkpt>
      <trkpt lat="41.8463700" lon="-5.4137700">
        <ele>695.7</ele>
        <time>2019-08-15T09:57:37Z</time>
      </trkpt>
      <trkpt lat="41.8464130" lon="-5.4137760">
        <ele>695.8</ele>
        <time>2019-08-15T09:57:38Z</time>
      </trkpt>
      <trkpt lat="41.8464570" lon="-5.4137830">
        <ele>695.9</ele>
        <time>2019-08-15T09:57:39Z</time>
      </trkpt>
      <trkpt lat="41.8465000" lon="-5.4137870">
        <ele>696.0</ele>
        <time>2019-08-15T09:57:40Z</time>
      </trkpt>
      <trkpt lat="41.8465450" lon="-5.4137920">
        <ele>696.0</ele>
        <time>2019-08-15T09:57:41Z</time>
      </trkpt>
      <trkpt lat="41.8465890" lon="-5.4137980">
        <ele>696.0</ele>
        <time>2019-08-15T09:57:42Z</time>
      </trkpt>
      <trkpt lat="41.8466350" lon="-5.4138070">
        <ele>696.1</ele>
        <time>2019-08-15T09:57:43Z</time>
      </trkpt>
      <trkpt lat="41.8466800" lon="-5.4138180">
        <ele>696.1</ele>
        <time>2019-08-15T09:57:44Z</time>
      </trkpt>
      <trkpt lat="41.8467260" lon="-5.4138260">
        <ele>696.1</ele>
        <time>2019-08-15T09:57:45Z</time>
      </trkpt>
      <trkpt lat="41.8467720" lon="-5.4138330">
        <ele>696.1</ele>
        <time>2019-08-15T09:57:46Z</time>
      </trkpt>
      <trkpt lat="41.8468200" lon="-5.4138380">
        <ele>696.1</ele>
        <time>2019-08-15T09:57:47Z</time>
      </trkpt>
      <trkpt lat="41.8468680" lon="-5.4138420">
        <ele>696.1</ele>
        <time>2019-08-15T09:57:48Z</time>
      </trkpt>
      <trkpt lat="41.8469190" lon="-5.4138440">
        <ele>696.1</ele>
        <time>2019-08-15T09:57:49Z</time>
      </trkpt>
      <trkpt lat="41.8469710" lon="-5.4138470">
        <ele>696.1</ele>
        <time>2019-08-15T09:57:50Z</time>
      </trkpt>
      <trkpt lat="41.8470240" lon="-5.4138490">
        <ele>696.0</ele>
        <time>2019-08-15T09:57:51Z</time>
      </trkpt>
      <trkpt lat="41.8470790" lon="-5.4138560">
        <ele>696.0</ele>
        <time>2019-08-15T09:57:52Z</time>
      </trkpt>
      <trkpt lat="41.8471360" lon="-5.4138630">
        <ele>696.0</ele>
        <time>2019-08-15T09:57:53Z</time>
      </trkpt>
      <trkpt lat="41.8471920" lon="-5.4138700">
        <ele>695.9</ele>
        <time>2019-08-15T09:57:54Z</time>
      </trkpt>
      <trkpt lat="41.8472470" lon="-5.4138780">
        <ele>695.9</ele>
        <time>2019-08-15T09:57:55Z</time>
      </trkpt>
      <trkpt lat="41.8473000" lon="-5.4138870">
        <ele>695.8</ele>
        <time>2019-08-15T09:57:56Z</time>
      </trkpt>
      <trkpt lat="41.8473520" lon="-5.4138950">
        <ele>695.8</ele>
        <time>2019-08-15T09:57:57Z</time>
      </trkpt>
      <trkpt lat="41.8474010" lon="-5.4139000">
        <ele>695.7</ele>
        <time>2019-08-15T09:57:58Z</time>
      </trkpt>
      <trkpt lat="41.8474510" lon="-5.4139040">
        <ele>695.7</ele>
        <time>2019-08-15T09:57:59Z</time>
      </trkpt>
      <trkpt lat="41.8475020" lon="-5.4139060">
        <ele>695.7</ele>
        <time>2019-08-15T09:58:00Z</time>
      </trkpt>
      <trkpt lat="41.8475530" lon="-5.4139090">
        <ele>695.7</ele>
        <time>2019-08-15T09:58:01Z</time>
      </trkpt>
      <trkpt lat="41.8476060" lon="-5.4139130">
        <ele>695.7</ele>
        <time>2019-08-15T09:58:02Z</time>
      </trkpt>
      <trkpt lat="41.8476590" lon="-5.4139190">
        <ele>695.7</ele>
        <time>2019-08-15T09:58:03Z</time>
      </trkpt>
      <trkpt lat="41.8477120" lon="-5.4139270">
        <ele>695.6</ele>
        <time>2019-08-15T09:58:04Z</time>
      </trkpt>
      <trkpt lat="41.8477640" lon="-5.4139350">
        <ele>695.6</ele>
        <time>2019-08-15T09:58:05Z</time>
      </trkpt>
      <trkpt lat="41.8478160" lon="-5.4139430">
        <ele>695.6</ele>
        <time>2019-08-15T09:58:06Z</time>
      </trkpt>
      <trkpt lat="41.8478660" lon="-5.4139500">
        <ele>695.6</ele>
        <time>2019-08-15T09:58:07Z</time>
      </trkpt>
      <trkpt lat="41.8479150" lon="-5.4139550">
        <ele>695.5</ele>
        <time>2019-08-15T09:58:08Z</time>
      </trkpt>
      <trkpt lat="41.8479620" lon="-5.4139590">
        <ele>695.5</ele>
        <time>2019-08-15T09:58:09Z</time>
      </trkpt>
      <trkpt lat="41.8480100" lon="-5.4139640">
        <ele>695.5</ele>
        <time>2019-08-15T09:58:10Z</time>
      </trkpt>
      <trkpt lat="41.8480570" lon="-5.4139710">
        <ele>695.5</ele>
        <time>2019-08-15T09:58:11Z</time>
      </trkpt>
      <trkpt lat="41.8481050" lon="-5.4139780">
        <ele>695.4</ele>
        <time>2019-08-15T09:58:12Z</time>
      </trkpt>
      <trkpt lat="41.8481570" lon="-5.4139850">
        <ele>695.4</ele>
        <time>2019-08-15T09:58:13Z</time>
      </trkpt>
      <trkpt lat="41.8482110" lon="-5.4139930">
        <ele>695.3</ele>
        <time>2019-08-15T09:58:14Z</time>
      </trkpt>
      <trkpt lat="41.8482670" lon="-5.4140000">
        <ele>695.2</ele>
        <time>2019-08-15T09:58:15Z</time>
      </trkpt>
      <trkpt lat="41.8483260" lon="-5.4140060">
        <ele>695.1</ele>
        <time>2019-08-15T09:58:16Z</time>
      </trkpt>
      <trkpt lat="41.8483870" lon="-5.4140160">
        <ele>695.0</ele>
        <time>2019-08-15T09:58:17Z</time>
      </trkpt>
      <trkpt lat="41.8484490" lon="-5.4140250">
        <ele>694.9</ele>
        <time>2019-08-15T09:58:18Z</time>
      </trkpt>
      <trkpt lat="41.8485130" lon="-5.4140360">
        <ele>694.8</ele>
        <time>2019-08-15T09:58:19Z</time>
      </trkpt>
      <trkpt lat="41.8485780" lon="-5.4140440">
        <ele>694.7</ele>
        <time>2019-08-15T09:58:20Z</time>
      </trkpt>
      <trkpt lat="41.8486450" lon="-5.4140520">
        <ele>694.5</ele>
        <time>2019-08-15T09:58:21Z</time>
      </trkpt>
      <trkpt lat="41.8487130" lon="-5.4140590">
        <ele>694.4</ele>
        <time>2019-08-15T09:58:22Z</time>
      </trkpt>
      <trkpt lat="41.8487810" lon="-5.4140680">
        <ele>694.2</ele>
        <time>2019-08-15T09:58:23Z</time>
      </trkpt>
      <trkpt lat="41.8488490" lon="-5.4140780">
        <ele>694.0</ele>
        <time>2019-08-15T09:58:24Z</time>
      </trkpt>
      <trkpt lat="41.8489180" lon="-5.4140880">
        <ele>693.8</ele>
        <time>2019-08-15T09:58:25Z</time>
      </trkpt>
      <trkpt lat="41.8489880" lon="-5.4140990">
        <ele>693.7</ele>
        <time>2019-08-15T09:58:26Z</time>
      </trkpt>
      <trkpt lat="41.8490590" lon="-5.4141090">
        <ele>693.6</ele>
        <time>2019-08-15T09:58:27Z</time>
      </trkpt>
      <trkpt lat="41.8491300" lon="-5.4141190">
        <ele>693.5</ele>
        <time>2019-08-15T09:58:28Z</time>
      </trkpt>
      <trkpt lat="41.8492010" lon="-5.4141290">
        <ele>693.4</ele>
        <time>2019-08-15T09:58:29Z</time>
      </trkpt>
      <trkpt lat="41.8492720" lon="-5.4141390">
        <ele>693.3</ele>
        <time>2019-08-15T09:58:30Z</time>
      </trkpt>
      <trkpt lat="41.8493440" lon="-5.4141490">
        <ele>693.2</ele>
        <time>2019-08-15T09:58:31Z</time>
      </trkpt>
      <trkpt lat="41.8494140" lon="-5.4141590">
        <ele>693.0</ele>
        <time>2019-08-15T09:58:32Z</time>
      </trkpt>
      <trkpt lat="41.8494820" lon="-5.4141690">
        <ele>692.9</ele>
        <time>2019-08-15T09:58:33Z</time>
      </trkpt>
      <trkpt lat="41.8495480" lon="-5.4141750">
        <ele>692.8</ele>
        <time>2019-08-15T09:58:34Z</time>
      </trkpt>
      <trkpt lat="41.8496080" lon="-5.4141830">
        <ele>692.7</ele>
        <time>2019-08-15T09:58:35Z</time>
      </trkpt>
      <trkpt lat="41.8496700" lon="-5.4141900">
        <ele>692.6</ele>
        <time>2019-08-15T09:58:36Z</time>
      </trkpt>
      <trkpt lat="41.8497330" lon="-5.4141970">
        <ele>692.5</ele>
        <time>2019-08-15T09:58:37Z</time>
      </trkpt>
      <trkpt lat="41.8497940" lon="-5.4142020">
        <ele>692.4</ele>
        <time>2019-08-15T09:58:38Z</time>
      </trkpt>
      <trkpt lat="41.8498540" lon="-5.4142080">
        <ele>692.3</ele>
        <time>2019-08-15T09:58:39Z</time>
      </trkpt>
      <trkpt lat="41.8499120" lon="-5.4142150">
        <ele>692.2</ele>
        <time>2019-08-15T09:58:40Z</time>
      </trkpt>
      <trkpt lat="41.8499730" lon="-5.4142230">
        <ele>692.1</ele>
        <time>2019-08-15T09:58:41Z</time>
      </trkpt>
      <trkpt lat="41.8500360" lon="-5.4142340">
        <ele>692.0</ele>
        <time>2019-08-15T09:58:42Z</time>
      </trkpt>
      <trkpt lat="41.8501000" lon="-5.4142400">
        <ele>691.9</ele>
        <time>2019-08-15T09:58:43Z</time>
      </trkpt>
      <trkpt lat="41.8501600" lon="-5.4142480">
        <ele>691.9</ele>
        <time>2019-08-15T09:58:44Z</time>
      </trkpt>
      <trkpt lat="41.8502190" lon="-5.4142550">
        <ele>691.9</ele>
        <time>2019-08-15T09:58:45Z</time>
      </trkpt>
      <trkpt lat="41.8502760" lon="-5.4142620">
        <ele>691.9</ele>
        <time>2019-08-15T09:58:46Z</time>
      </trkpt>
      <trkpt lat="41.8503330" lon="-5.4142680">
        <ele>691.9</ele>
        <time>2019-08-15T09:58:47Z</time>
      </trkpt>
      <trkpt lat="41.8503900" lon="-5.4142740">
        <ele>691.9</ele>
        <time>2019-08-15T09:58:48Z</time>
      </trkpt>
      <trkpt lat="41.8504450" lon="-5.4142810">
        <ele>691.9</ele>
        <time>2019-08-15T09:58:49Z</time>
      </trkpt>
      <trkpt lat="41.8504980" lon="-5.4142880">
        <ele>692.0</ele>
        <time>2019-08-15T09:58:50Z</time>
      </trkpt>
      <trkpt lat="41.8505470" lon="-5.4142960">
        <ele>692.1</ele>
        <time>2019-08-15T09:58:51Z</time>
      </trkpt>
      <trkpt lat="41.8505930" lon="-5.4143030">
        <ele>692.2</ele>
        <time>2019-08-15T09:58:52Z</time>
      </trkpt>
      <trkpt lat="41.8506370" lon="-5.4143070">
        <ele>692.4</ele>
        <time>2019-08-15T09:58:53Z</time>
      </trkpt>
      <trkpt lat="41.8506780" lon="-5.4143120">
        <ele>692.5</ele>
        <time>2019-08-15T09:58:54Z</time>
      </trkpt>
      <trkpt lat="41.8507170" lon="-5.4143180">
        <ele>692.6</ele>
        <time>2019-08-15T09:58:55Z</time>
      </trkpt>
      <trkpt lat="41.8507570" lon="-5.4143220">
        <ele>692.8</ele>
        <time>2019-08-15T09:58:56Z</time>
      </trkpt>
      <trkpt lat="41.8507990" lon="-5.4143270">
        <ele>692.9</ele>
        <time>2019-08-15T09:58:57Z</time>
      </trkpt>
      <trkpt lat="41.8508420" lon="-5.4143320">
        <ele>693.0</ele>
        <time>2019-08-15T09:58:58Z</time>
      </trkpt>
      <trkpt lat="41.8508880" lon="-5.4143370">
        <ele>693.1</ele>
        <time>2019-08-15T09:58:59Z</time>
      </trkpt>
      <trkpt lat="41.8509350" lon="-5.4143430">
        <ele>693.2</ele>
        <time>2019-08-15T09:59:00Z</time>
      </trkpt>
      <trkpt lat="41.8509830" lon="-5.4143500">
        <ele>693.3</ele>
        <time>2019-08-15T09:59:01Z</time>
      </trkpt>
      <trkpt lat="41.8510320" lon="-5.4143560">
        <ele>693.3</ele>
        <time>2019-08-15T09:59:02Z</time>
      </trkpt>
      <trkpt lat="41.8510810" lon="-5.4143620">
        <ele>693.4</ele>
        <time>2019-08-15T09:59:03Z</time>
      </trkpt>
      <trkpt lat="41.8511320" lon="-5.4143660">
        <ele>693.5</ele>
        <time>2019-08-15T09:59:04Z</time>
      </trkpt>
      <trkpt lat="41.8511830" lon="-5.4143720">
        <ele>693.6</ele>
        <time>2019-08-15T09:59:05Z</time>
      </trkpt>
      <trkpt lat="41.8512360" lon="-5.4143800">
        <ele>693.6</ele>
        <time>2019-08-15T09:59:06Z</time>
      </trkpt>
      <trkpt lat="41.8512900" lon="-5.4143860">
        <ele>693.6</ele>
        <time>2019-08-15T09:59:07Z</time>
      </trkpt>
      <trkpt lat="41.8513420" lon="-5.4143920">
        <ele>693.6</ele>
        <time>2019-08-15T09:59:08Z</time>
      </trkpt>
      <trkpt lat="41.8513940" lon="-5.4144000">
        <ele>693.6</ele>
        <time>2019-08-15T09:59:09Z</time>
      </trkpt>
      <trkpt lat="41.8514450" lon="-5.4144070">
        <ele>693.6</ele>
        <time>2019-08-15T09:59:10Z</time>
      </trkpt>
      <trkpt lat="41.8514970" lon="-5.4144140">
        <ele>693.6</ele>
        <time>2019-08-15T09:59:11Z</time>
      </trkpt>
      <trkpt lat="41.8515500" lon="-5.4144190">
        <ele>693.6</ele>
        <time>2019-08-15T09:59:12Z</time>
      </trkpt>
      <trkpt lat="41.8516050" lon="-5.4144260">
        <ele>693.5</ele>
        <time>2019-08-15T09:59:13Z</time>
      </trkpt>
      <trkpt lat="41.8516620" lon="-5.4144330">
        <ele>693.4</ele>
        <time>2019-08-15T09:59:14Z</time>
      </trkpt>
      <trkpt lat="41.8517200" lon="-5.4144390">
        <ele>693.2</ele>
        <time>2019-08-15T09:59:15Z</time>
      </trkpt>
      <trkpt lat="41.8517760" lon="-5.4144460">
        <ele>693.1</ele>
        <time>2019-08-15T09:59:16Z</time>
      </trkpt>
      <trkpt lat="41.8518320" lon="-5.4144550">
        <ele>693.1</ele>
        <time>2019-08-15T09:59:17Z</time>
      </trkpt>
      <trkpt lat="41.8518870" lon="-5.4144630">
        <ele>693.0</ele>
        <time>2019-08-15T09:59:18Z</time>
      </trkpt>
      <trkpt lat="41.8519420" lon="-5.4144690">
        <ele>692.9</ele>
        <time>2019-08-15T09:59:19Z</time>
      </trkpt>
      <trkpt lat="41.8519980" lon="-5.4144760">
        <ele>692.8</ele>
        <time>2019-08-15T09:59:20Z</time>
      </trkpt>
      <trkpt lat="41.8520550" lon="-5.4144850">
        <ele>692.7</ele>
        <time>2019-08-15T09:59:21Z</time>
      </trkpt>
      <trkpt lat="41.8521130" lon="-5.4144920">
        <ele>692.6</ele>
        <time>2019-08-15T09:59:22Z</time>
      </trkpt>
      <trkpt lat="41.8521710" lon="-5.4145000">
        <ele>692.5</ele>
        <time>2019-08-15T09:59:23Z</time>
      </trkpt>
      <trkpt lat="41.8522270" lon="-5.4145080">
        <ele>692.4</ele>
        <time>2019-08-15T09:59:24Z</time>
      </trkpt>
      <trkpt lat="41.8522820" lon="-5.4145160">
        <ele>692.3</ele>
        <time>2019-08-15T09:59:25Z</time>
      </trkpt>
      <trkpt lat="41.8523350" lon="-5.4145230">
        <ele>692.2</ele>
        <time>2019-08-15T09:59:26Z</time>
      </trkpt>
      <trkpt lat="41.8523870" lon="-5.4145300">
        <ele>692.1</ele>
        <time>2019-08-15T09:59:27Z</time>
      </trkpt>
      <trkpt lat="41.8524370" lon="-5.4145380">
        <ele>692.1</ele>
        <time>2019-08-15T09:59:28Z</time>
      </trkpt>
      <trkpt lat="41.8524860" lon="-5.4145430">
        <ele>692.0</ele>
        <time>2019-08-15T09:59:29Z</time>
      </trkpt>
      <trkpt lat="41.8525340" lon="-5.4145470">
        <ele>692.0</ele>
        <time>2019-08-15T09:59:30Z</time>
      </trkpt>
      <trkpt lat="41.8525820" lon="-5.4145530">
        <ele>692.0</ele>
        <time>2019-08-15T09:59:31Z</time>
      </trkpt>
      <trkpt lat="41.8526330" lon="-5.4145590">
        <ele>692.0</ele>
        <time>2019-08-15T09:59:32Z</time>
      </trkpt>
      <trkpt lat="41.8526850" lon="-5.4145660">
        <ele>691.9</ele>
        <time>2019-08-15T09:59:33Z</time>
      </trkpt>
      <trkpt lat="41.8527380" lon="-5.4145750">
        <ele>691.9</ele>
        <time>2019-08-15T09:59:34Z</time>
      </trkpt>
      <trkpt lat="41.8527920" lon="-5.4145850">
        <ele>691.9</ele>
        <time>2019-08-15T09:59:35Z</time>
      </trkpt>
      <trkpt lat="41.8528470" lon="-5.4145970">
        <ele>691.8</ele>
        <time>2019-08-15T09:59:36Z</time>
      </trkpt>
      <trkpt lat="41.8529030" lon="-5.4146080">
        <ele>691.8</ele>
        <time>2019-08-15T09:59:37Z</time>
      </trkpt>
      <trkpt lat="41.8529600" lon="-5.4146190">
        <ele>691.7</ele>
        <time>2019-08-15T09:59:38Z</time>
      </trkpt>
      <trkpt lat="41.8530160" lon="-5.4146290">
        <ele>691.7</ele>
        <time>2019-08-15T09:59:39Z</time>
      </trkpt>
      <trkpt lat="41.8530730" lon="-5.4146390">
        <ele>691.6</ele>
        <time>2019-08-15T09:59:40Z</time>
      </trkpt>
      <trkpt lat="41.8531300" lon="-5.4146480">
        <ele>691.5</ele>
        <time>2019-08-15T09:59:41Z</time>
      </trkpt>
      <trkpt lat="41.8531880" lon="-5.4146580">
        <ele>691.5</ele>
        <time>2019-08-15T09:59:42Z</time>
      </trkpt>
      <trkpt lat="41.8532460" lon="-5.4146670">
        <ele>691.4</ele>
        <time>2019-08-15T09:59:43Z</time>
      </trkpt>
      <trkpt lat="41.8533020" lon="-5.4146830">
        <ele>691.3</ele>
        <time>2019-08-15T09:59:44Z</time>
      </trkpt>
      <trkpt lat="41.8533550" lon="-5.4147030">
        <ele>691.2</ele>
        <time>2019-08-15T09:59:45Z</time>
      </trkpt>
      <trkpt lat="41.8534060" lon="-5.4147270">
        <ele>691.2</ele>
        <time>2019-08-15T09:59:46Z</time>
      </trkpt>
      <trkpt lat="41.8534550" lon="-5.4147550">
        <ele>691.1</ele>
        <time>2019-08-15T09:59:47Z</time>
      </trkpt>
      <trkpt lat="41.8534990" lon="-5.4147820">
        <ele>691.1</ele>
        <time>2019-08-15T09:59:48Z</time>
      </trkpt>
      <trkpt lat="41.8535390" lon="-5.4148080">
        <ele>691.1</ele>
        <time>2019-08-15T09:59:49Z</time>
      </trkpt>
      <trkpt lat="41.8535760" lon="-5.4148340">
        <ele>691.0</ele>
        <time>2019-08-15T09:59:50Z</time>
      </trkpt>
      <trkpt lat="41.8536090" lon="-5.4148590">
        <ele>691.1</ele>
        <time>2019-08-15T09:59:51Z</time>
      </trkpt>
      <trkpt lat="41.8536400" lon="-5.4148820">
        <ele>691.1</ele>
        <time>2019-08-15T09:59:52Z</time>
      </trkpt>
      <trkpt lat="41.8536670" lon="-5.4149040">
        <ele>691.1</ele>
        <time>2019-08-15T09:59:53Z</time>
      </trkpt>
      <trkpt lat="41.8536930" lon="-5.4149240">
        <ele>691.1</ele>
        <time>2019-08-15T09:59:54Z</time>
      </trkpt>
      <trkpt lat="41.8537170" lon="-5.4149430">
        <ele>691.2</ele>
        <time>2019-08-15T09:59:55Z</time>
      </trkpt>
      <trkpt lat="41.8537390" lon="-5.4149600">
        <ele>691.2</ele>
        <time>2019-08-15T09:59:56Z</time>
      </trkpt>
      <trkpt lat="41.8537800" lon="-5.4149940">
        <ele>691.4</ele>
        <time>2019-08-15T09:59:58Z</time>
      </trkpt>
      <trkpt lat="41.8538210" lon="-5.4150240">
        <ele>691.5</ele>
        <time>2019-08-15T10:00:00Z</time>
      </trkpt>
      <trkpt lat="41.8538620" lon="-5.4150480">
        <ele>691.7</ele>
        <time>2019-08-15T10:00:02Z</time>
      </trkpt>
      <trkpt lat="41.8539050" lon="-5.4150650">
        <ele>691.9</ele>
        <time>2019-08-15T10:00:04Z</time>
      </trkpt>
      <trkpt lat="41.8539500" lon="-5.4150730">
        <ele>692.1</ele>
        <time>2019-08-15T10:00:06Z</time>
      </trkpt>
      <trkpt lat="41.8539950" lon="-5.4150800">
        <ele>692.3</ele>
        <time>2019-08-15T10:00:08Z</time>
      </trkpt>
      <trkpt lat="41.8540400" lon="-5.4150840">
        <ele>692.5</ele>
        <time>2019-08-15T10:00:10Z</time>
      </trkpt>
      <trkpt lat="41.8540850" lon="-5.4150850">
        <ele>692.7</ele>
        <time>2019-08-15T10:00:12Z</time>
      </trkpt>
      <trkpt lat="41.8541310" lon="-5.4150820">
        <ele>692.9</ele>
        <time>2019-08-15T10:00:14Z</time>
      </trkpt>
      <trkpt lat="41.8541760" lon="-5.4150740">
        <ele>693.0</ele>
        <time>2019-08-15T10:00:16Z</time>
      </trkpt>
      <trkpt lat="41.8542220" lon="-5.4150620">
        <ele>693.2</ele>
        <time>2019-08-15T10:00:18Z</time>
      </trkpt>
      <trkpt lat="41.8542670" lon="-5.4150450">
        <ele>693.4</ele>
        <time>2019-08-15T10:00:20Z</time>
      </trkpt>
      <trkpt lat="41.8543120" lon="-5.4150290">
        <ele>693.6</ele>
        <time>2019-08-15T10:00:22Z</time>
      </trkpt>
      <trkpt lat="41.8543580" lon="-5.4150130">
        <ele>693.7</ele>
        <time>2019-08-15T10:00:24Z</time>
      </trkpt>
      <trkpt lat="41.8544050" lon="-5.4149980">
        <ele>693.9</ele>
        <time>2019-08-15T10:00:26Z</time>
      </trkpt>
      <trkpt lat="41.8544550" lon="-5.4149870">
        <ele>694.0</ele>
        <time>2019-08-15T10:00:28Z</time>
      </trkpt>
      <trkpt lat="41.8545020" lon="-5.4149730">
        <ele>693.9</ele>
        <time>2019-08-15T10:00:30Z</time>
      </trkpt>
      <trkpt lat="41.8545490" lon="-5.4149570">
        <ele>693.9</ele>
        <time>2019-08-15T10:00:32Z</time>
      </trkpt>
      <trkpt lat="41.8546010" lon="-5.4149400">
        <ele>693.9</ele>
        <time>2019-08-15T10:00:34Z</time>
      </trkpt>
      <trkpt lat="41.8546510" lon="-5.4149240">
        <ele>693.8</ele>
        <time>2019-08-15T10:00:36Z</time>
      </trkpt>
      <trkpt lat="41.8546990" lon="-5.4149100">
        <ele>693.8</ele>
        <time>2019-08-15T10:00:38Z</time>
      </trkpt>
      <trkpt lat="41.8547520" lon="-5.4148920">
        <ele>693.7</ele>
        <time>2019-08-15T10:00:40Z</time>
      </trkpt>
      <trkpt lat="41.8547810" lon="-5.4148820">
        <ele>693.7</ele>
        <time>2019-08-15T10:00:41Z</time>
      </trkpt>
      <trkpt lat="41.8548130" lon="-5.4148730">
        <ele>693.7</ele>
        <time>2019-08-15T10:00:42Z</time>
      </trkpt>
      <trkpt lat="41.8548460" lon="-5.4148640">
        <ele>693.7</ele>
        <time>2019-08-15T10:00:43Z</time>
      </trkpt>
      <trkpt lat="41.8548780" lon="-5.4148540">
        <ele>693.7</ele>
        <time>2019-08-15T10:00:44Z</time>
      </trkpt>
      <trkpt lat="41.8549100" lon="-5.4148440">
        <ele>693.6</ele>
        <time>2019-08-15T10:00:45Z</time>
      </trkpt>
      <trkpt lat="41.8549410" lon="-5.4148320">
        <ele>693.6</ele>
        <time>2019-08-15T10:00:46Z</time>
      </trkpt>
      <trkpt lat="41.8549660" lon="-5.4148230">
        <ele>693.6</ele>
        <time>2019-08-15T10:00:47Z</time>
      </trkpt>
      <trkpt lat="41.8549860" lon="-5.4148210">
        <ele>693.6</ele>
        <time>2019-08-15T10:00:49Z</time>
      </trkpt>
      <trkpt lat="41.8551320" lon="-5.4147590">
        <ele>693.8</ele>
        <time>2019-08-15T10:02:37Z</time>
      </trkpt>
      <trkpt lat="41.8551520" lon="-5.4147530">
        <ele>693.8</ele>
        <time>2019-08-15T10:02:38Z</time>
      </trkpt>
      <trkpt lat="41.8551970" lon="-5.4147430">
        <ele>693.8</ele>
        <time>2019-08-15T10:02:39Z</time>
      </trkpt>
      <trkpt lat="41.8552460" lon="-5.4147350">
        <ele>693.9</ele>
        <time>2019-08-15T10:02:40Z</time>
      </trkpt>
      <trkpt lat="41.8552990" lon="-5.4147240">
        <ele>693.9</ele>
        <time>2019-08-15T10:02:41Z</time>
      </trkpt>
      <trkpt lat="41.8553540" lon="-5.4147170">
        <ele>693.8</ele>
        <time>2019-08-15T10:02:42Z</time>
      </trkpt>
      <trkpt lat="41.8554130" lon="-5.4147160">
        <ele>693.8</ele>
        <time>2019-08-15T10:02:43Z</time>
      </trkpt>
      <trkpt lat="41.8554750" lon="-5.4147250">
        <ele>693.7</ele>
        <time>2019-08-15T10:02:44Z</time>
      </trkpt>
      <trkpt lat="41.8555400" lon="-5.4147400">
        <ele>693.6</ele>
        <time>2019-08-15T10:02:45Z</time>
      </trkpt>
      <trkpt lat="41.8556080" lon="-5.4147610">
        <ele>693.5</ele>
        <time>2019-08-15T10:02:46Z</time>
      </trkpt>
      <trkpt lat="41.8556770" lon="-5.4147890">
        <ele>693.3</ele>
        <time>2019-08-15T10:02:47Z</time>
      </trkpt>
      <trkpt lat="41.8557490" lon="-5.4148230">
        <ele>693.2</ele>
        <time>2019-08-15T10:02:48Z</time>
      </trkpt>
      <trkpt lat="41.8558230" lon="-5.4148620">
        <ele>692.9</ele>
        <time>2019-08-15T10:02:49Z</time>
      </trkpt>
      <trkpt lat="41.8558990" lon="-5.4149000">
        <ele>692.6</ele>
        <time>2019-08-15T10:02:50Z</time>
      </trkpt>
      <trkpt lat="41.8559770" lon="-5.4149360">
        <ele>692.2</ele>
        <time>2019-08-15T10:02:51Z</time>
      </trkpt>
      <trkpt lat="41.8560550" lon="-5.4149680">
        <ele>691.8</ele>
        <time>2019-08-15T10:02:52Z</time>
      </trkpt>
      <trkpt lat="41.8561340" lon="-5.4149960">
        <ele>691.3</ele>
        <time>2019-08-15T10:02:53Z</time>
      </trkpt>
      <trkpt lat="41.8562140" lon="-5.4150180">
        <ele>690.7</ele>
        <time>2019-08-15T10:02:54Z</time>
      </trkpt>
      <trkpt lat="41.8562920" lon="-5.4150340">
        <ele>690.1</ele>
        <time>2019-08-15T10:02:55Z</time>
      </trkpt>
      <trkpt lat="41.8563670" lon="-5.4150440">
        <ele>689.5</ele>
        <time>2019-08-15T10:02:56Z</time>
      </trkpt>
      <trkpt lat="41.8564390" lon="-5.4150530">
        <ele>688.8</ele>
        <time>2019-08-15T10:02:57Z</time>
      </trkpt>
      <trkpt lat="41.8565100" lon="-5.4150630">
        <ele>688.2</ele>
        <time>2019-08-15T10:02:58Z</time>
      </trkpt>
      <trkpt lat="41.8565790" lon="-5.4150740">
        <ele>687.6</ele>
        <time>2019-08-15T10:02:59Z</time>
      </trkpt>
      <trkpt lat="41.8566460" lon="-5.4150850">
        <ele>687.1</ele>
        <time>2019-08-15T10:03:00Z</time>
      </trkpt>
      <trkpt lat="41.8567110" lon="-5.4150950">
        <ele>686.8</ele>
        <time>2019-08-15T10:03:01Z</time>
      </trkpt>
      <trkpt lat="41.8567760" lon="-5.4151050">
        <ele>686.6</ele>
        <time>2019-08-15T10:03:02Z</time>
      </trkpt>
      <trkpt lat="41.8568400" lon="-5.4151140">
        <ele>686.5</ele>
        <time>2019-08-15T10:03:03Z</time>
      </trkpt>
      <trkpt lat="41.8569030" lon="-5.4151240">
        <ele>686.5</ele>
        <time>2019-08-15T10:03:04Z</time>
      </trkpt>
      <trkpt lat="41.8569640" lon="-5.4151340">
        <ele>686.5</ele>
        <time>2019-08-15T10:03:05Z</time>
      </trkpt>
      <trkpt lat="41.8570230" lon="-5.4151420">
        <ele>686.5</ele>
        <time>2019-08-15T10:03:06Z</time>
      </trkpt>
      <trkpt lat="41.8570810" lon="-5.4151500">
        <ele>686.6</ele>
        <time>2019-08-15T10:03:07Z</time>
      </trkpt>
      <trkpt lat="41.8571380" lon="-5.4151580">
        <ele>686.7</ele>
        <time>2019-08-15T10:03:08Z</time>
      </trkpt>
      <trkpt lat="41.8571930" lon="-5.4151660">
        <ele>686.7</ele>
        <time>2019-08-15T10:03:09Z</time>
      </trkpt>
      <trkpt lat="41.8572480" lon="-5.4151730">
        <ele>686.8</ele>
        <time>2019-08-15T10:03:10Z</time>
      </trkpt>
      <trkpt lat="41.8573030" lon="-5.4151800">
        <ele>686.9</ele>
        <time>2019-08-15T10:03:11Z</time>
      </trkpt>
      <trkpt lat="41.8573580" lon="-5.4151870">
        <ele>686.9</ele>
        <time>2019-08-15T10:03:12Z</time>
      </trkpt>
      <trkpt lat="41.8574140" lon="-5.4151940">
        <ele>687.0</ele>
        <time>2019-08-15T10:03:13Z</time>
      </trkpt>
      <trkpt lat="41.8574700" lon="-5.4152010">
        <ele>687.0</ele>
        <time>2019-08-15T10:03:14Z</time>
      </trkpt>
      <trkpt lat="41.8575250" lon="-5.4152090">
        <ele>687.1</ele>
        <time>2019-08-15T10:03:15Z</time>
      </trkpt>
      <trkpt lat="41.8575800" lon="-5.4152150">
        <ele>687.1</ele>
        <time>2019-08-15T10:03:16Z</time>
      </trkpt>
      <trkpt lat="41.8576330" lon="-5.4152210">
        <ele>687.1</ele>
        <time>2019-08-15T10:03:17Z</time>
      </trkpt>
      <trkpt lat="41.8576840" lon="-5.4152260">
        <ele>687.1</ele>
        <time>2019-08-15T10:03:18Z</time>
      </trkpt>
      <trkpt lat="41.8577350" lon="-5.4152330">
        <ele>687.0</ele>
        <time>2019-08-15T10:03:19Z</time>
      </trkpt>
      <trkpt lat="41.8577860" lon="-5.4152400">
        <ele>687.0</ele>
        <time>2019-08-15T10:03:20Z</time>
      </trkpt>
      <trkpt lat="41.8578380" lon="-5.4152460">
        <ele>687.0</ele>
        <time>2019-08-15T10:03:21Z</time>
      </trkpt>
      <trkpt lat="41.8578890" lon="-5.4152510">
        <ele>687.0</ele>
        <time>2019-08-15T10:03:22Z</time>
      </trkpt>
      <trkpt lat="41.8579400" lon="-5.4152580">
        <ele>687.0</ele>
        <time>2019-08-15T10:03:23Z</time>
      </trkpt>
      <trkpt lat="41.8579910" lon="-5.4152640">
        <ele>687.0</ele>
        <time>2019-08-15T10:03:24Z</time>
      </trkpt>
      <trkpt lat="41.8580420" lon="-5.4152710">
        <ele>687.0</ele>
        <time>2019-08-15T10:03:25Z</time>
      </trkpt>
      <trkpt lat="41.8580950" lon="-5.4152780">
        <ele>687.0</ele>
        <time>2019-08-15T10:03:26Z</time>
      </trkpt>
      <trkpt lat="41.8581490" lon="-5.4152840">
        <ele>687.1</ele>
        <time>2019-08-15T10:03:27Z</time>
      </trkpt>
      <trkpt lat="41.8582010" lon="-5.4152900">
        <ele>687.2</ele>
        <time>2019-08-15T10:03:28Z</time>
      </trkpt>
      <trkpt lat="41.8582550" lon="-5.4152960">
        <ele>687.2</ele>
        <time>2019-08-15T10:03:29Z</time>
      </trkpt>
      <trkpt lat="41.8583080" lon="-5.4153000">
        <ele>687.3</ele>
        <time>2019-08-15T10:03:30Z</time>
      </trkpt>
      <trkpt lat="41.8583610" lon="-5.4153050">
        <ele>687.4</ele>
        <time>2019-08-15T10:03:31Z</time>
      </trkpt>
      <trkpt lat="41.8584150" lon="-5.4153100">
        <ele>687.5</ele>
        <time>2019-08-15T10:03:32Z</time>
      </trkpt>
      <trkpt lat="41.8584690" lon="-5.4153140">
        <ele>687.7</ele>
        <time>2019-08-15T10:03:33Z</time>
      </trkpt>
      <trkpt lat="41.8585230" lon="-5.4153180">
        <ele>687.8</ele>
        <time>2019-08-15T10:03:34Z</time>
      </trkpt>
      <trkpt lat="41.8585750" lon="-5.4153220">
        <ele>687.9</ele>
        <time>2019-08-15T10:03:35Z</time>
      </trkpt>
      <trkpt lat="41.8586290" lon="-5.4153260">
        <ele>688.1</ele>
        <time>2019-08-15T10:03:36Z</time>
      </trkpt>
      <trkpt lat="41.8586820" lon="-5.4153310">
        <ele>688.2</ele>
        <time>2019-08-15T10:03:37Z</time>
      </trkpt>
      <trkpt lat="41.8587360" lon="-5.4153350">
        <ele>688.3</ele>
        <time>2019-08-15T10:03:38Z</time>
      </trkpt>
      <trkpt lat="41.8587900" lon="-5.4153370">
        <ele>688.4</ele>
        <time>2019-08-15T10:03:39Z</time>
      </trkpt>
      <trkpt lat="41.8588440" lon="-5.4153400">
        <ele>688.5</ele>
        <time>2019-08-15T10:03:40Z</time>
      </trkpt>
      <trkpt lat="41.8588980" lon="-5.4153430">
        <ele>688.6</ele>
        <time>2019-08-15T10:03:41Z</time>
      </trkpt>
      <trkpt lat="41.8589510" lon="-5.4153450">
        <ele>688.7</ele>
        <time>2019-08-15T10:03:42Z</time>
      </trkpt>
      <trkpt lat="41.8590040" lon="-5.4153480">
        <ele>688.8</ele>
        <time>2019-08-15T10:03:43Z</time>
      </trkpt>
      <trkpt lat="41.8590570" lon="-5.4153490">
        <ele>688.9</ele>
        <time>2019-08-15T10:03:44Z</time>
      </trkpt>
      <trkpt lat="41.8591100" lon="-5.4153500">
        <ele>689.0</ele>
        <time>2019-08-15T10:03:45Z</time>
      </trkpt>
      <trkpt lat="41.8591620" lon="-5.4153520">
        <ele>689.1</ele>
        <time>2019-08-15T10:03:46Z</time>
      </trkpt>
      <trkpt lat="41.8592140" lon="-5.4153540">
        <ele>689.2</ele>
        <time>2019-08-15T10:03:47Z</time>
      </trkpt>
      <trkpt lat="41.8592670" lon="-5.4153550">
        <ele>689.3</ele>
        <time>2019-08-15T10:03:48Z</time>
      </trkpt>
      <trkpt lat="41.8593200" lon="-5.4153540">
        <ele>689.4</ele>
        <time>2019-08-15T10:03:49Z</time>
      </trkpt>
      <trkpt lat="41.8593730" lon="-5.4153510">
        <ele>689.4</ele>
        <time>2019-08-15T10:03:50Z</time>
      </trkpt>
      <trkpt lat="41.8594240" lon="-5.4153480">
        <ele>689.5</ele>
        <time>2019-08-15T10:03:51Z</time>
      </trkpt>
      <trkpt lat="41.8594760" lon="-5.4153460">
        <ele>689.6</ele>
        <time>2019-08-15T10:03:52Z</time>
      </trkpt>
      <trkpt lat="41.8595280" lon="-5.4153450">
        <ele>689.8</ele>
        <time>2019-08-15T10:03:53Z</time>
      </trkpt>
      <trkpt lat="41.8595800" lon="-5.4153410">
        <ele>689.9</ele>
        <time>2019-08-15T10:03:54Z</time>
      </trkpt>
      <trkpt lat="41.8596330" lon="-5.4153370">
        <ele>690.0</ele>
        <time>2019-08-15T10:03:55Z</time>
      </trkpt>
      <trkpt lat="41.8596840" lon="-5.4153320">
        <ele>690.1</ele>
        <time>2019-08-15T10:03:56Z</time>
      </trkpt>
      <trkpt lat="41.8597350" lon="-5.4153260">
        <ele>690.2</ele>
        <time>2019-08-15T10:03:57Z</time>
      </trkpt>
      <trkpt lat="41.8597860" lon="-5.4153210">
        <ele>690.2</ele>
        <time>2019-08-15T10:03:58Z</time>
      </trkpt>
      <trkpt lat="41.8598350" lon="-5.4153170">
        <ele>690.3</ele>
        <time>2019-08-15T10:03:59Z</time>
      </trkpt>
      <trkpt lat="41.8598850" lon="-5.4153120">
        <ele>690.4</ele>
        <time>2019-08-15T10:04:00Z</time>
      </trkpt>
      <trkpt lat="41.8599320" lon="-5.4153060">
        <ele>690.6</ele>
        <time>2019-08-15T10:04:01Z</time>
      </trkpt>
      <trkpt lat="41.8599780" lon="-5.4153000">
        <ele>690.7</ele>
        <time>2019-08-15T10:04:02Z</time>
      </trkpt>
      <trkpt lat="41.8600230" lon="-5.4152940">
        <ele>690.8</ele>
        <time>2019-08-15T10:04:03Z</time>
      </trkpt>
      <trkpt lat="41.8600690" lon="-5.4152880">
        <ele>690.9</ele>
        <time>2019-08-15T10:04:04Z</time>
      </trkpt>
      <trkpt lat="41.8601140" lon="-5.4152800">
        <ele>691.0</ele>
        <time>2019-08-15T10:04:05Z</time>
      </trkpt>
      <trkpt lat="41.8601590" lon="-5.4152720">
        <ele>691.2</ele>
        <time>2019-08-15T10:04:06Z</time>
      </trkpt>
      <trkpt lat="41.8602040" lon="-5.4152660">
        <ele>691.3</ele>
        <time>2019-08-15T10:04:07Z</time>
      </trkpt>
      <trkpt lat="41.8602500" lon="-5.4152600">
        <ele>691.4</ele>
        <time>2019-08-15T10:04:08Z</time>
      </trkpt>
      <trkpt lat="41.8602950" lon="-5.4152560">
        <ele>691.5</ele>
        <time>2019-08-15T10:04:09Z</time>
      </trkpt>
      <trkpt lat="41.8603380" lon="-5.4152490">
        <ele>691.6</ele>
        <time>2019-08-15T10:04:10Z</time>
      </trkpt>
      <trkpt lat="41.8603830" lon="-5.4152420">
        <ele>691.6</ele>
        <time>2019-08-15T10:04:11Z</time>
      </trkpt>
      <trkpt lat="41.8604290" lon="-5.4152360">
        <ele>691.6</ele>
        <time>2019-08-15T10:04:12Z</time>
      </trkpt>
      <trkpt lat="41.8604740" lon="-5.4152280">
        <ele>691.6</ele>
        <time>2019-08-15T10:04:13Z</time>
      </trkpt>
      <trkpt lat="41.8605180" lon="-5.4152180">
        <ele>691.6</ele>
        <time>2019-08-15T10:04:14Z</time>
      </trkpt>
      <trkpt lat="41.8605610" lon="-5.4151950">
        <ele>691.6</ele>
        <time>2019-08-15T10:04:15Z</time>
      </trkpt>
      <trkpt lat="41.8605950" lon="-5.4151520">
        <ele>691.7</ele>
        <time>2019-08-15T10:04:16Z</time>
      </trkpt>
      <trkpt lat="41.8606160" lon="-5.4150960">
        <ele>691.8</ele>
        <time>2019-08-15T10:04:17Z</time>
      </trkpt>
      <trkpt lat="41.8606210" lon="-5.4150370">
        <ele>691.9</ele>
        <time>2019-08-15T10:04:18Z</time>
      </trkpt>
      <trkpt lat="41.8606200" lon="-5.4149800">
        <ele>692.0</ele>
        <time>2019-08-15T10:04:19Z</time>
      </trkpt>
      <trkpt lat="41.8606150" lon="-5.4149300">
        <ele>692.1</ele>
        <time>2019-08-15T10:04:20Z</time>
      </trkpt>
      <trkpt lat="41.8606100" lon="-5.4148840">
        <ele>692.2</ele>
        <time>2019-08-15T10:04:21Z</time>
      </trkpt>
      <trkpt lat="41.8606080" lon="-5.4148390">
        <ele>692.3</ele>
        <time>2019-08-15T10:04:22Z</time>
      </trkpt>
      <trkpt lat="41.8606120" lon="-5.4147970">
        <ele>692.3</ele>
        <time>2019-08-15T10:04:23Z</time>
      </trkpt>
      <trkpt lat="41.8606210" lon="-5.4147600">
        <ele>692.4</ele>
        <time>2019-08-15T10:04:24Z</time>
      </trkpt>
      <trkpt lat="41.8606370" lon="-5.4147310">
        <ele>692.7</ele>
        <time>2019-08-15T10:04:25Z</time>
      </trkpt>
      <trkpt lat="41.8606860" lon="-5.4147000">
        <ele>692.6</ele>
        <time>2019-08-15T10:04:27Z</time>
      </trkpt>
      <trkpt lat="41.8607190" lon="-5.4147010">
        <ele>692.6</ele>
        <time>2019-08-15T10:04:28Z</time>
      </trkpt>
      <trkpt lat="41.8607550" lon="-5.4147130">
        <ele>692.5</ele>
        <time>2019-08-15T10:04:29Z</time>
      </trkpt>
      <trkpt lat="41.8607920" lon="-5.4147340">
        <ele>692.5</ele>
        <time>2019-08-15T10:04:30Z</time>
      </trkpt>
      <trkpt lat="41.8608320" lon="-5.4147600">
        <ele>692.4</ele>
        <time>2019-08-15T10:04:31Z</time>
      </trkpt>
      <trkpt lat="41.8608730" lon="-5.4147910">
        <ele>692.4</ele>
        <time>2019-08-15T10:04:32Z</time>
      </trkpt>
      <trkpt lat="41.8609140" lon="-5.4148250">
        <ele>692.3</ele>
        <time>2019-08-15T10:04:33Z</time>
      </trkpt>
      <trkpt lat="41.8609570" lon="-5.4148640">
        <ele>692.2</ele>
        <time>2019-08-15T10:04:34Z</time>
      </trkpt>
      <trkpt lat="41.8610010" lon="-5.4149060">
        <ele>692.1</ele>
        <time>2019-08-15T10:04:35Z</time>
      </trkpt>
      <trkpt lat="41.8610440" lon="-5.4149480">
        <ele>692.0</ele>
        <time>2019-08-15T10:04:36Z</time>
      </trkpt>
      <trkpt lat="41.8610900" lon="-5.4149900">
        <ele>691.9</ele>
        <time>2019-08-15T10:04:37Z</time>
      </trkpt>
      <trkpt lat="41.8611350" lon="-5.4150350">
        <ele>692.0</ele>
        <time>2019-08-15T10:04:38Z</time>
      </trkpt>
      <trkpt lat="41.8611790" lon="-5.4150780">
        <ele>692.0</ele>
        <time>2019-08-15T10:04:39Z</time>
      </trkpt>
      <trkpt lat="41.8612220" lon="-5.4151160">
        <ele>692.0</ele>
        <time>2019-08-15T10:04:40Z</time>
      </trkpt>
      <trkpt lat="41.8612620" lon="-5.4151500">
        <ele>692.0</ele>
        <time>2019-08-15T10:04:41Z</time>
      </trkpt>
      <trkpt lat="41.8613000" lon="-5.4151820">
        <ele>692.0</ele>
        <time>2019-08-15T10:04:42Z</time>
      </trkpt>
      <trkpt lat="41.8613400" lon="-5.4152120">
        <ele>692.0</ele>
        <time>2019-08-15T10:04:43Z</time>
      </trkpt>
      <trkpt lat="41.8613840" lon="-5.4152450">
        <ele>691.9</ele>
        <time>2019-08-15T10:04:44Z</time>
      </trkpt>
      <trkpt lat="41.8614290" lon="-5.4152810">
        <ele>691.8</ele>
        <time>2019-08-15T10:04:45Z</time>
      </trkpt>
      <trkpt lat="41.8614730" lon="-5.4153190">
        <ele>691.7</ele>
        <time>2019-08-15T10:04:46Z</time>
      </trkpt>
      <trkpt lat="41.8615150" lon="-5.4153600">
        <ele>691.6</ele>
        <time>2019-08-15T10:04:47Z</time>
      </trkpt>
      <trkpt lat="41.8615570" lon="-5.4154010">
        <ele>691.4</ele>
        <time>2019-08-15T10:04:48Z</time>
      </trkpt>
      <trkpt lat="41.8615980" lon="-5.4154450">
        <ele>691.3</ele>
        <time>2019-08-15T10:04:49Z</time>
      </trkpt>
      <trkpt lat="41.8616410" lon="-5.4154870">
        <ele>691.1</ele>
        <time>2019-08-15T10:04:50Z</time>
      </trkpt>
      <trkpt lat="41.8616840" lon="-5.4155280">
        <ele>690.9</ele>
        <time>2019-08-15T10:04:51Z</time>
      </trkpt>
      <trkpt lat="41.8617270" lon="-5.4155700">
        <ele>690.9</ele>
        <time>2019-08-15T10:04:52Z</time>
      </trkpt>
      <trkpt lat="41.8617690" lon="-5.4156090">
        <ele>690.9</ele>
        <time>2019-08-15T10:04:53Z</time>
      </trkpt>
      <trkpt lat="41.8618100" lon="-5.4156480">
        <ele>690.9</ele>
        <time>2019-08-15T10:04:54Z</time>
      </trkpt>
      <trkpt lat="41.8618520" lon="-5.4156880">
        <ele>691.0</ele>
        <time>2019-08-15T10:04:55Z</time>
      </trkpt>
      <trkpt lat="41.8618930" lon="-5.4157310">
        <ele>691.1</ele>
        <time>2019-08-15T10:04:56Z</time>
      </trkpt>
      <trkpt lat="41.8619330" lon="-5.4157750">
        <ele>691.2</ele>
        <time>2019-08-15T10:04:57Z</time>
      </trkpt>
      <trkpt lat="41.8619720" lon="-5.4158170">
        <ele>691.3</ele>
        <time>2019-08-15T10:04:58Z</time>
      </trkpt>
      <trkpt lat="41.8620130" lon="-5.4158570">
        <ele>691.4</ele>
        <time>2019-08-15T10:04:59Z</time>
      </trkpt>
      <trkpt lat="41.8620540" lon="-5.4158950">
        <ele>691.5</ele>
        <time>2019-08-15T10:05:00Z</time>
      </trkpt>
      <trkpt lat="41.8620950" lon="-5.4159300">
        <ele>691.5</ele>
        <time>2019-08-15T10:05:01Z</time>
      </trkpt>
      <trkpt lat="41.8621340" lon="-5.4159640">
        <ele>691.6</ele>
        <time>2019-08-15T10:05:02Z</time>
      </trkpt>
      <trkpt lat="41.8621730" lon="-5.4160000">
        <ele>691.6</ele>
        <time>2019-08-15T10:05:03Z</time>
      </trkpt>
      <trkpt lat="41.8622130" lon="-5.4160400">
        <ele>691.6</ele>
        <time>2019-08-15T10:05:04Z</time>
      </trkpt>
      <trkpt lat="41.8622540" lon="-5.4160830">
        <ele>691.7</ele>
        <time>2019-08-15T10:05:05Z</time>
      </trkpt>
      <trkpt lat="41.8622970" lon="-5.4161260">
        <ele>691.7</ele>
        <time>2019-08-15T10:05:06Z</time>
      </trkpt>
      <trkpt lat="41.8623410" lon="-5.4161690">
        <ele>691.7</ele>
        <time>2019-08-15T10:05:07Z</time>
      </trkpt>
      <trkpt lat="41.8623860" lon="-5.4162150">
        <ele>691.6</ele>
        <time>2019-08-15T10:05:08Z</time>
      </trkpt>
      <trkpt lat="41.8624320" lon="-5.4162610">
        <ele>691.6</ele>
        <time>2019-08-15T10:05:09Z</time>
      </trkpt>
      <trkpt lat="41.8624770" lon="-5.4163100">
        <ele>691.5</ele>
        <time>2019-08-15T10:05:10Z</time>
      </trkpt>
      <trkpt lat="41.8625230" lon="-5.4163540">
        <ele>691.4</ele>
        <time>2019-08-15T10:05:11Z</time>
      </trkpt>
      <trkpt lat="41.8625690" lon="-5.4163990">
        <ele>691.3</ele>
        <time>2019-08-15T10:05:12Z</time>
      </trkpt>
      <trkpt lat="41.8626160" lon="-5.4164410">
        <ele>691.2</ele>
        <time>2019-08-15T10:05:13Z</time>
      </trkpt>
      <trkpt lat="41.8626620" lon="-5.4164820">
        <ele>691.1</ele>
        <time>2019-08-15T10:05:14Z</time>
      </trkpt>
      <trkpt lat="41.8627080" lon="-5.4165230">
        <ele>691.0</ele>
        <time>2019-08-15T10:05:15Z</time>
      </trkpt>
      <trkpt lat="41.8627540" lon="-5.4165640">
        <ele>691.0</ele>
        <time>2019-08-15T10:05:16Z</time>
      </trkpt>
      <trkpt lat="41.8627990" lon="-5.4166050">
        <ele>690.9</ele>
        <time>2019-08-15T10:05:17Z</time>
      </trkpt>
      <trkpt lat="41.8628430" lon="-5.4166470">
        <ele>690.9</ele>
        <time>2019-08-15T10:05:18Z</time>
      </trkpt>
      <trkpt lat="41.8628890" lon="-5.4166840">
        <ele>690.9</ele>
        <time>2019-08-15T10:05:19Z</time>
      </trkpt>
      <trkpt lat="41.8629350" lon="-5.4167180">
        <ele>690.8</ele>
        <time>2019-08-15T10:05:20Z</time>
      </trkpt>
      <trkpt lat="41.8629810" lon="-5.4167500">
        <ele>690.8</ele>
        <time>2019-08-15T10:05:21Z</time>
      </trkpt>
      <trkpt lat="41.8630240" lon="-5.4167840">
        <ele>690.7</ele>
        <time>2019-08-15T10:05:22Z</time>
      </trkpt>
      <trkpt lat="41.8630660" lon="-5.4168170">
        <ele>690.7</ele>
        <time>2019-08-15T10:05:23Z</time>
      </trkpt>
      <trkpt lat="41.8631060" lon="-5.4168510">
        <ele>690.7</ele>
        <time>2019-08-15T10:05:24Z</time>
      </trkpt>
      <trkpt lat="41.8631450" lon="-5.4168860">
        <ele>690.6</ele>
        <time>2019-08-15T10:05:25Z</time>
      </trkpt>
      <trkpt lat="41.8631810" lon="-5.4169190">
        <ele>690.6</ele>
        <time>2019-08-15T10:05:26Z</time>
      </trkpt>
      <trkpt lat="41.8632180" lon="-5.4169550">
        <ele>690.6</ele>
        <time>2019-08-15T10:05:27Z</time>
      </trkpt>
      <trkpt lat="41.8632570" lon="-5.4169920">
        <ele>690.5</ele>
        <time>2019-08-15T10:05:28Z</time>
      </trkpt>
      <trkpt lat="41.8632950" lon="-5.4170300">
        <ele>690.5</ele>
        <time>2019-08-15T10:05:29Z</time>
      </trkpt>
      <trkpt lat="41.8633330" lon="-5.4170680">
        <ele>690.5</ele>
        <time>2019-08-15T10:05:30Z</time>
      </trkpt>
      <trkpt lat="41.8633730" lon="-5.4171010">
        <ele>690.5</ele>
        <time>2019-08-15T10:05:31Z</time>
      </trkpt>
      <trkpt lat="41.8634130" lon="-5.4171320">
        <ele>690.4</ele>
        <time>2019-08-15T10:05:32Z</time>
      </trkpt>
      <trkpt lat="41.8634540" lon="-5.4171630">
        <ele>690.3</ele>
        <time>2019-08-15T10:05:33Z</time>
      </trkpt>
      <trkpt lat="41.8634940" lon="-5.4171940">
        <ele>690.3</ele>
        <time>2019-08-15T10:05:34Z</time>
      </trkpt>
      <trkpt lat="41.8635300" lon="-5.4172310">
        <ele>690.3</ele>
        <time>2019-08-15T10:05:35Z</time>
      </trkpt>
      <trkpt lat="41.8635660" lon="-5.4172680">
        <ele>690.3</ele>
        <time>2019-08-15T10:05:36Z</time>
      </trkpt>
      <trkpt lat="41.8636020" lon="-5.4173040">
        <ele>690.3</ele>
        <time>2019-08-15T10:05:37Z</time>
      </trkpt>
      <trkpt lat="41.8636400" lon="-5.4173370">
        <ele>690.3</ele>
        <time>2019-08-15T10:05:38Z</time>
      </trkpt>
      <trkpt lat="41.8636750" lon="-5.4173700">
        <ele>690.3</ele>
        <time>2019-08-15T10:05:39Z</time>
      </trkpt>
      <trkpt lat="41.8637080" lon="-5.4174020">
        <ele>690.3</ele>
        <time>2019-08-15T10:05:40Z</time>
      </trkpt>
      <trkpt lat="41.8637430" lon="-5.4174340">
        <ele>690.3</ele>
        <time>2019-08-15T10:05:41Z</time>
      </trkpt>
      <trkpt lat="41.8637780" lon="-5.4174680">
        <ele>690.3</ele>
        <time>2019-08-15T10:05:42Z</time>
      </trkpt>
      <trkpt lat="41.8638120" lon="-5.4175040">
        <ele>690.3</ele>
        <time>2019-08-15T10:05:43Z</time>
      </trkpt>
      <trkpt lat="41.8638460" lon="-5.4175420">
        <ele>690.3</ele>
        <time>2019-08-15T10:05:44Z</time>
      </trkpt>
      <trkpt lat="41.8638840" lon="-5.4175790">
        <ele>690.3</ele>
        <time>2019-08-15T10:05:45Z</time>
      </trkpt>
      <trkpt lat="41.8639240" lon="-5.4176120">
        <ele>690.3</ele>
        <time>2019-08-15T10:05:46Z</time>
      </trkpt>
      <trkpt lat="41.8639670" lon="-5.4176460">
        <ele>690.3</ele>
        <time>2019-08-15T10:05:47Z</time>
      </trkpt>
      <trkpt lat="41.8640090" lon="-5.4176810">
        <ele>690.3</ele>
        <time>2019-08-15T10:05:48Z</time>
      </trkpt>
      <trkpt lat="41.8640510" lon="-5.4177160">
        <ele>690.3</ele>
        <time>2019-08-15T10:05:49Z</time>
      </trkpt>
      <trkpt lat="41.8640900" lon="-5.4177490">
        <ele>690.3</ele>
        <time>2019-08-15T10:05:50Z</time>
      </trkpt>
      <trkpt lat="41.8641260" lon="-5.4177800">
        <ele>690.2</ele>
        <time>2019-08-15T10:05:51Z</time>
      </trkpt>
      <trkpt lat="41.8641600" lon="-5.4178120">
        <ele>690.2</ele>
        <time>2019-08-15T10:05:52Z</time>
      </trkpt>
      <trkpt lat="41.8641950" lon="-5.4178440">
        <ele>690.2</ele>
        <time>2019-08-15T10:05:53Z</time>
      </trkpt>
      <trkpt lat="41.8642310" lon="-5.4178810">
        <ele>690.1</ele>
        <time>2019-08-15T10:05:54Z</time>
      </trkpt>
      <trkpt lat="41.8642670" lon="-5.4179180">
        <ele>690.1</ele>
        <time>2019-08-15T10:05:55Z</time>
      </trkpt>
      <trkpt lat="41.8643040" lon="-5.4179560">
        <ele>690.0</ele>
        <time>2019-08-15T10:05:56Z</time>
      </trkpt>
      <trkpt lat="41.8643400" lon="-5.4179960">
        <ele>690.0</ele>
        <time>2019-08-15T10:05:57Z</time>
      </trkpt>
      <trkpt lat="41.8643770" lon="-5.4180360">
        <ele>690.0</ele>
        <time>2019-08-15T10:05:58Z</time>
      </trkpt>
      <trkpt lat="41.8644140" lon="-5.4180750">
        <ele>690.0</ele>
        <time>2019-08-15T10:05:59Z</time>
      </trkpt>
      <trkpt lat="41.8644500" lon="-5.4181150">
        <ele>689.9</ele>
        <time>2019-08-15T10:06:00Z</time>
      </trkpt>
      <trkpt lat="41.8644870" lon="-5.4181540">
        <ele>689.9</ele>
        <time>2019-08-15T10:06:01Z</time>
      </trkpt>
      <trkpt lat="41.8645220" lon="-5.4181910">
        <ele>689.9</ele>
        <time>2019-08-15T10:06:02Z</time>
      </trkpt>
      <trkpt lat="41.8645580" lon="-5.4182260">
        <ele>689.8</ele>
        <time>2019-08-15T10:06:03Z</time>
      </trkpt>
      <trkpt lat="41.8645930" lon="-5.4182580">
        <ele>689.8</ele>
        <time>2019-08-15T10:06:04Z</time>
      </trkpt>
      <trkpt lat="41.8646290" lon="-5.4182840">
        <ele>689.8</ele>
        <time>2019-08-15T10:06:05Z</time>
      </trkpt>
      <trkpt lat="41.8646630" lon="-5.4183060">
        <ele>689.8</ele>
        <time>2019-08-15T10:06:06Z</time>
      </trkpt>
      <trkpt lat="41.8646980" lon="-5.4183290">
        <ele>689.7</ele>
        <time>2019-08-15T10:06:07Z</time>
      </trkpt>
      <trkpt lat="41.8647340" lon="-5.4183490">
        <ele>689.6</ele>
        <time>2019-08-15T10:06:08Z</time>
      </trkpt>
      <trkpt lat="41.8647700" lon="-5.4183690">
        <ele>689.6</ele>
        <time>2019-08-15T10:06:09Z</time>
      </trkpt>
      <trkpt lat="41.8648090" lon="-5.4183900">
        <ele>689.5</ele>
        <time>2019-08-15T10:06:10Z</time>
      </trkpt>
      <trkpt lat="41.8648480" lon="-5.4184080">
        <ele>689.5</ele>
        <time>2019-08-15T10:06:11Z</time>
      </trkpt>
      <trkpt lat="41.8648900" lon="-5.4184210">
        <ele>689.4</ele>
        <time>2019-08-15T10:06:12Z</time>
      </trkpt>
      <trkpt lat="41.8649340" lon="-5.4184300">
        <ele>689.3</ele>
        <time>2019-08-15T10:06:13Z</time>
      </trkpt>
      <trkpt lat="41.8649790" lon="-5.4184310">
        <ele>689.2</ele>
        <time>2019-08-15T10:06:14Z</time>
      </trkpt>
      <trkpt lat="41.8650240" lon="-5.4184220">
        <ele>689.1</ele>
        <time>2019-08-15T10:06:15Z</time>
      </trkpt>
      <trkpt lat="41.8650680" lon="-5.4184040">
        <ele>689.1</ele>
        <time>2019-08-15T10:06:16Z</time>
      </trkpt>
      <trkpt lat="41.8651090" lon="-5.4183810">
        <ele>689.1</ele>
        <time>2019-08-15T10:06:17Z</time>
      </trkpt>
      <trkpt lat="41.8651460" lon="-5.4183550">
        <ele>689.0</ele>
        <time>2019-08-15T10:06:18Z</time>
      </trkpt>
      <trkpt lat="41.8651800" lon="-5.4183250">
        <ele>689.0</ele>
        <time>2019-08-15T10:06:19Z</time>
      </trkpt>
      <trkpt lat="41.8652110" lon="-5.4182920">
        <ele>688.9</ele>
        <time>2019-08-15T10:06:20Z</time>
      </trkpt>
      <trkpt lat="41.8652420" lon="-5.4182600">
        <ele>688.9</ele>
        <time>2019-08-15T10:06:21Z</time>
      </trkpt>
      <trkpt lat="41.8652720" lon="-5.4182280">
        <ele>688.8</ele>
        <time>2019-08-15T10:06:22Z</time>
      </trkpt>
      <trkpt lat="41.8653000" lon="-5.4181960">
        <ele>688.7</ele>
        <time>2019-08-15T10:06:23Z</time>
      </trkpt>
      <trkpt lat="41.8653290" lon="-5.4181600">
        <ele>688.7</ele>
        <time>2019-08-15T10:06:24Z</time>
      </trkpt>
      <trkpt lat="41.8653590" lon="-5.4181200">
        <ele>688.6</ele>
        <time>2019-08-15T10:06:25Z</time>
      </trkpt>
      <trkpt lat="41.8653900" lon="-5.4180800">
        <ele>688.5</ele>
        <time>2019-08-15T10:06:26Z</time>
      </trkpt>
      <trkpt lat="41.8654220" lon="-5.4180400">
        <ele>688.3</ele>
        <time>2019-08-15T10:06:27Z</time>
      </trkpt>
      <trkpt lat="41.8654540" lon="-5.4179960">
        <ele>688.2</ele>
        <time>2019-08-15T10:06:28Z</time>
      </trkpt>
      <trkpt lat="41.8654840" lon="-5.4179500">
        <ele>688.1</ele>
        <time>2019-08-15T10:06:29Z</time>
      </trkpt>
      <trkpt lat="41.8655130" lon="-5.4179030">
        <ele>687.9</ele>
        <time>2019-08-15T10:06:30Z</time>
      </trkpt>
      <trkpt lat="41.8655420" lon="-5.4178560">
        <ele>687.8</ele>
        <time>2019-08-15T10:06:31Z</time>
      </trkpt>
      <trkpt lat="41.8655690" lon="-5.4178070">
        <ele>687.7</ele>
        <time>2019-08-15T10:06:32Z</time>
      </trkpt>
      <trkpt lat="41.8655960" lon="-5.4177560">
        <ele>687.6</ele>
        <time>2019-08-15T10:06:33Z</time>
      </trkpt>
      <trkpt lat="41.8656240" lon="-5.4177030">
        <ele>687.5</ele>
        <time>2019-08-15T10:06:34Z</time>
      </trkpt>
      <trkpt lat="41.8656490" lon="-5.4176480">
        <ele>687.5</ele>
        <time>2019-08-15T10:06:35Z</time>
      </trkpt>
      <trkpt lat="41.8656720" lon="-5.4175960">
        <ele>687.4</ele>
        <time>2019-08-15T10:06:36Z</time>
      </trkpt>
      <trkpt lat="41.8656940" lon="-5.4175450">
        <ele>687.3</ele>
        <time>2019-08-15T10:06:37Z</time>
      </trkpt>
      <trkpt lat="41.8657150" lon="-5.4174930">
        <ele>687.2</ele>
        <time>2019-08-15T10:06:38Z</time>
      </trkpt>
      <trkpt lat="41.8657340" lon="-5.4174390">
        <ele>687.2</ele>
        <time>2019-08-15T10:06:39Z</time>
      </trkpt>
      <trkpt lat="41.8657520" lon="-5.4173830">
        <ele>687.1</ele>
        <time>2019-08-15T10:06:40Z</time>
      </trkpt>
      <trkpt lat="41.8657710" lon="-5.4173260">
        <ele>687.0</ele>
        <time>2019-08-15T10:06:41Z</time>
      </trkpt>
      <trkpt lat="41.8657910" lon="-5.4172660">
        <ele>686.9</ele>
        <time>2019-08-15T10:06:42Z</time>
      </trkpt>
      <trkpt lat="41.8658100" lon="-5.4172040">
        <ele>686.9</ele>
        <time>2019-08-15T10:06:43Z</time>
      </trkpt>
      <trkpt lat="41.8658280" lon="-5.4171390">
        <ele>686.8</ele>
        <time>2019-08-15T10:06:44Z</time>
      </trkpt>
      <trkpt lat="41.8658450" lon="-5.4170730">
        <ele>686.6</ele>
        <time>2019-08-15T10:06:45Z</time>
      </trkpt>
      <trkpt lat="41.8658630" lon="-5.4170070">
        <ele>686.6</ele>
        <time>2019-08-15T10:06:46Z</time>
      </trkpt>
      <trkpt lat="41.8658780" lon="-5.4169420">
        <ele>686.5</ele>
        <time>2019-08-15T10:06:47Z</time>
      </trkpt>
      <trkpt lat="41.8658930" lon="-5.4168760">
        <ele>686.4</ele>
        <time>2019-08-15T10:06:48Z</time>
      </trkpt>
      <trkpt lat="41.8659070" lon="-5.4168120">
        <ele>686.4</ele>
        <time>2019-08-15T10:06:49Z</time>
      </trkpt>
      <trkpt lat="41.8659210" lon="-5.4167500">
        <ele>686.3</ele>
        <time>2019-08-15T10:06:50Z</time>
      </trkpt>
      <trkpt lat="41.8659330" lon="-5.4166870">
        <ele>686.3</ele>
        <time>2019-08-15T10:06:51Z</time>
      </trkpt>
      <trkpt lat="41.8659430" lon="-5.4166260">
        <ele>686.3</ele>
        <time>2019-08-15T10:06:52Z</time>
      </trkpt>
      <trkpt lat="41.8659510" lon="-5.4165650">
        <ele>686.3</ele>
        <time>2019-08-15T10:06:53Z</time>
      </trkpt>
      <trkpt lat="41.8659550" lon="-5.4165070">
        <ele>686.4</ele>
        <time>2019-08-15T10:06:54Z</time>
      </trkpt>
      <trkpt lat="41.8659590" lon="-5.4164500">
        <ele>686.5</ele>
        <time>2019-08-15T10:06:55Z</time>
      </trkpt>
      <trkpt lat="41.8659640" lon="-5.4163970">
        <ele>686.6</ele>
        <time>2019-08-15T10:06:56Z</time>
      </trkpt>
      <trkpt lat="41.8659690" lon="-5.4163440">
        <ele>686.8</ele>
        <time>2019-08-15T10:06:57Z</time>
      </trkpt>
      <trkpt lat="41.8659750" lon="-5.4162920">
        <ele>686.9</ele>
        <time>2019-08-15T10:06:58Z</time>
      </trkpt>
      <trkpt lat="41.8659800" lon="-5.4162410">
        <ele>687.0</ele>
        <time>2019-08-15T10:06:59Z</time>
      </trkpt>
      <trkpt lat="41.8659830" lon="-5.4161920">
        <ele>687.1</ele>
        <time>2019-08-15T10:07:00Z</time>
      </trkpt>
      <trkpt lat="41.8659830" lon="-5.4161440">
        <ele>687.3</ele>
        <time>2019-08-15T10:07:01Z</time>
      </trkpt>
      <trkpt lat="41.8659780" lon="-5.4160950">
        <ele>687.4</ele>
        <time>2019-08-15T10:07:02Z</time>
      </trkpt>
      <trkpt lat="41.8659700" lon="-5.4160470">
        <ele>687.6</ele>
        <time>2019-08-15T10:07:03Z</time>
      </trkpt>
      <trkpt lat="41.8659560" lon="-5.4160030">
        <ele>687.7</ele>
        <time>2019-08-15T10:07:04Z</time>
      </trkpt>
      <trkpt lat="41.8659380" lon="-5.4159640">
        <ele>687.8</ele>
        <time>2019-08-15T10:07:05Z</time>
      </trkpt>
      <trkpt lat="41.8659130" lon="-5.4159300">
        <ele>687.9</ele>
        <time>2019-08-15T10:07:06Z</time>
      </trkpt>
      <trkpt lat="41.8658850" lon="-5.4159020">
        <ele>687.9</ele>
        <time>2019-08-15T10:07:07Z</time>
      </trkpt>
      <trkpt lat="41.8658540" lon="-5.4158800">
        <ele>688.0</ele>
        <time>2019-08-15T10:07:08Z</time>
      </trkpt>
      <trkpt lat="41.8658170" lon="-5.4158640">
        <ele>688.1</ele>
        <time>2019-08-15T10:07:09Z</time>
      </trkpt>
      <trkpt lat="41.8657790" lon="-5.4158510">
        <ele>688.2</ele>
        <time>2019-08-15T10:07:10Z</time>
      </trkpt>
      <trkpt lat="41.8657400" lon="-5.4158320">
        <ele>688.3</ele>
        <time>2019-08-15T10:07:11Z</time>
      </trkpt>
      <trkpt lat="41.8657020" lon="-5.4158060">
        <ele>688.5</ele>
        <time>2019-08-15T10:07:12Z</time>
      </trkpt>
      <trkpt lat="41.8656660" lon="-5.4157760">
        <ele>688.6</ele>
        <time>2019-08-15T10:07:13Z</time>
      </trkpt>
      <trkpt lat="41.8656320" lon="-5.4157440">
        <ele>688.6</ele>
        <time>2019-08-15T10:07:14Z</time>
      </trkpt>
      <trkpt lat="41.8656000" lon="-5.4157120">
        <ele>688.7</ele>
        <time>2019-08-15T10:07:15Z</time>
      </trkpt>
      <trkpt lat="41.8655730" lon="-5.4156780">
        <ele>688.8</ele>
        <time>2019-08-15T10:07:16Z</time>
      </trkpt>
      <trkpt lat="41.8655480" lon="-5.4156470">
        <ele>688.9</ele>
        <time>2019-08-15T10:07:17Z</time>
      </trkpt>
      <trkpt lat="41.8655240" lon="-5.4156180">
        <ele>689.0</ele>
        <time>2019-08-15T10:07:18Z</time>
      </trkpt>
      <trkpt lat="41.8655020" lon="-5.4155910">
        <ele>689.1</ele>
        <time>2019-08-15T10:07:19Z</time>
      </trkpt>
      <trkpt lat="41.8654800" lon="-5.4155640">
        <ele>689.2</ele>
        <time>2019-08-15T10:07:20Z</time>
      </trkpt>
      <trkpt lat="41.8654600" lon="-5.4155370">
        <ele>689.3</ele>
        <time>2019-08-15T10:07:21Z</time>
      </trkpt>
      <trkpt lat="41.8654390" lon="-5.4155090">
        <ele>689.4</ele>
        <time>2019-08-15T10:07:22Z</time>
      </trkpt>
      <trkpt lat="41.8654180" lon="-5.4154800">
        <ele>689.5</ele>
        <time>2019-08-15T10:07:23Z</time>
      </trkpt>
      <trkpt lat="41.8653970" lon="-5.4154500">
        <ele>689.7</ele>
        <time>2019-08-15T10:07:24Z</time>
      </trkpt>
      <trkpt lat="41.8653750" lon="-5.4154190">
        <ele>689.8</ele>
        <time>2019-08-15T10:07:25Z</time>
      </trkpt>
      <trkpt lat="41.8653520" lon="-5.4153880">
        <ele>689.9</ele>
        <time>2019-08-15T10:07:26Z</time>
      </trkpt>
      <trkpt lat="41.8653300" lon="-5.4153560">
        <ele>690.1</ele>
        <time>2019-08-15T10:07:27Z</time>
      </trkpt>
      <trkpt lat="41.8653070" lon="-5.4153220">
        <ele>690.2</ele>
        <time>2019-08-15T10:07:28Z</time>
      </trkpt>
      <trkpt lat="41.8652850" lon="-5.4152870">
        <ele>690.3</ele>
        <time>2019-08-15T10:07:29Z</time>
      </trkpt>
      <trkpt lat="41.8652590" lon="-5.4152540">
        <ele>690.5</ele>
        <time>2019-08-15T10:07:30Z</time>
      </trkpt>
      <trkpt lat="41.8652330" lon="-5.4152200">
        <ele>690.6</ele>
        <time>2019-08-15T10:07:31Z</time>
      </trkpt>
      <trkpt lat="41.8652060" lon="-5.4151860">
        <ele>690.7</ele>
        <time>2019-08-15T10:07:32Z</time>
      </trkpt>
      <trkpt lat="41.8651800" lon="-5.4151500">
        <ele>690.8</ele>
        <time>2019-08-15T10:07:33Z</time>
      </trkpt>
      <trkpt lat="41.8651540" lon="-5.4151130">
        <ele>690.9</ele>
        <time>2019-08-15T10:07:34Z</time>
      </trkpt>
      <trkpt lat="41.8651280" lon="-5.4150760">
        <ele>691.0</ele>
        <time>2019-08-15T10:07:35Z</time>
      </trkpt>
      <trkpt lat="41.8651020" lon="-5.4150390">
        <ele>691.1</ele>
        <time>2019-08-15T10:07:36Z</time>
      </trkpt>
      <trkpt lat="41.8650760" lon="-5.4150010">
        <ele>691.2</ele>
        <time>2019-08-15T10:07:37Z</time>
      </trkpt>
      <trkpt lat="41.8650500" lon="-5.4149630">
        <ele>691.3</ele>
        <time>2019-08-15T10:07:38Z</time>
      </trkpt>
      <trkpt lat="41.8650240" lon="-5.4149240">
        <ele>691.4</ele>
        <time>2019-08-15T10:07:39Z</time>
      </trkpt>
      <trkpt lat="41.8649990" lon="-5.4148880">
        <ele>691.7</ele>
        <time>2019-08-15T10:07:40Z</time>
      </trkpt>
      <trkpt lat="41.8649780" lon="-5.4148540">
        <ele>691.8</ele>
        <time>2019-08-15T10:07:41Z</time>
      </trkpt>
      <trkpt lat="41.8649600" lon="-5.4148230">
        <ele>691.9</ele>
        <time>2019-08-15T10:07:42Z</time>
      </trkpt>
      <trkpt lat="41.8649460" lon="-5.4147930">
        <ele>692.0</ele>
        <time>2019-08-15T10:07:43Z</time>
      </trkpt>
      <trkpt lat="41.8649260" lon="-5.4147520">
        <ele>692.1</ele>
        <time>2019-08-15T10:07:45Z</time>
      </trkpt>
      <trkpt lat="41.8647990" lon="-5.4145670">
        <ele>692.7</ele>
        <time>2019-08-15T10:08:45Z</time>
      </trkpt>
      <trkpt lat="41.8647800" lon="-5.4145010">
        <ele>692.7</ele>
        <time>2019-08-15T10:08:47Z</time>
      </trkpt>
      <trkpt lat="41.8647530" lon="-5.4144340">
        <ele>692.8</ele>
        <time>2019-08-15T10:08:49Z</time>
      </trkpt>
      <trkpt lat="41.8647390" lon="-5.4143990">
        <ele>692.8</ele>
        <time>2019-08-15T10:08:50Z</time>
      </trkpt>
      <trkpt lat="41.8647240" lon="-5.4143690">
        <ele>692.8</ele>
        <time>2019-08-15T10:08:51Z</time>
      </trkpt>
      <trkpt lat="41.8647130" lon="-5.4143130">
        <ele>692.9</ele>
        <time>2019-08-15T10:08:53Z</time>
      </trkpt>
      <trkpt lat="41.8647080" lon="-5.4143050">
        <ele>692.9</ele>
        <time>2019-08-15T10:08:57Z</time>
      </trkpt>
      <trkpt lat="41.8646820" lon="-5.4142760">
        <ele>692.9</ele>
        <time>2019-08-15T10:09:01Z</time>
      </trkpt>
      <trkpt lat="41.8646880" lon="-5.4142320">
        <ele>692.9</ele>
        <time>2019-08-15T10:09:04Z</time>
      </trkpt>
      <trkpt lat="41.8646830" lon="-5.4142040">
        <ele>693.0</ele>
        <time>2019-08-15T10:09:07Z</time>
      </trkpt>
      <trkpt lat="41.8646730" lon="-5.4141760">
        <ele>693.0</ele>
        <time>2019-08-15T10:09:13Z</time>
      </trkpt>
      <trkpt lat="41.8647070" lon="-5.4142250">
        <ele>693.0</ele>
        <time>2019-08-15T10:09:16Z</time>
      </trkpt>
      <trkpt lat="41.8647170" lon="-5.4142600">
        <ele>693.1</ele>
        <time>2019-08-15T10:09:19Z</time>
      </trkpt>
      <trkpt lat="41.8647230" lon="-5.4142990">
        <ele>693.1</ele>
        <time>2019-08-15T10:09:25Z</time>
      </trkpt>
      <trkpt lat="41.8647360" lon="-5.4143430">
        <ele>693.1</ele>
        <time>2019-08-15T10:09:29Z</time>
      </trkpt>
      <trkpt lat="41.8647470" lon="-5.4143780">
        <ele>693.1</ele>
        <time>2019-08-15T10:09:33Z</time>
      </trkpt>
      <trkpt lat="41.8647740" lon="-5.4144110">
        <ele>693.2</ele>
        <time>2019-08-15T10:09:37Z</time>
      </trkpt>
      <trkpt lat="41.8647370" lon="-5.4143170">
        <ele>693.3</ele>
        <time>2019-08-15T10:09:40Z</time>
      </trkpt>
      <trkpt lat="41.8647160" lon="-5.4143110">
        <ele>693.3</ele>
        <time>2019-08-15T10:09:41Z</time>
      </trkpt>
      <trkpt lat="41.8646950" lon="-5.4143150">
        <ele>693.3</ele>
        <time>2019-08-15T10:09:43Z</time>
      </trkpt>
      <trkpt lat="41.8648920" lon="-5.4134440">
        <ele>693.7</ele>
        <time>2019-08-15T10:41:22Z</time>
      </trkpt>
      <trkpt lat="41.8649030" lon="-5.4134880">
        <ele>693.6</ele>
        <time>2019-08-15T10:41:27Z</time>
      </trkpt>
      <trkpt lat="41.8649310" lon="-5.4135210">
        <ele>693.6</ele>
        <time>2019-08-15T10:41:30Z</time>
      </trkpt>
      <trkpt lat="41.8649600" lon="-5.4135500">
        <ele>693.5</ele>
        <time>2019-08-15T10:41:32Z</time>
      </trkpt>
      <trkpt lat="41.8649970" lon="-5.4135980">
        <ele>693.5</ele>
        <time>2019-08-15T10:41:34Z</time>
      </trkpt>
      <trkpt lat="41.8650230" lon="-5.4136180">
        <ele>693.5</ele>
        <time>2019-08-15T10:41:35Z</time>
      </trkpt>
      <trkpt lat="41.8650440" lon="-5.4136430">
        <ele>693.4</ele>
        <time>2019-08-15T10:41:36Z</time>
      </trkpt>
      <trkpt lat="41.8651210" lon="-5.4136500">
        <ele>693.3</ele>
        <time>2019-08-15T10:41:37Z</time>
      </trkpt>
      <trkpt lat="41.8651790" lon="-5.4136550">
        <ele>693.1</ele>
        <time>2019-08-15T10:41:38Z</time>
      </trkpt>
      <trkpt lat="41.8652040" lon="-5.4136670">
        <ele>693.1</ele>
        <time>2019-08-15T10:41:39Z</time>
      </trkpt>
      <trkpt lat="41.8652420" lon="-5.4136550">
        <ele>693.1</ele>
        <time>2019-08-15T10:41:41Z</time>
      </trkpt>
      <trkpt lat="41.8652540" lon="-5.4136640">
        <ele>693.1</ele>
        <time>2019-08-15T10:41:43Z</time>
      </trkpt>
      <trkpt lat="41.8652820" lon="-5.4136610">
        <ele>693.1</ele>
        <time>2019-08-15T10:41:47Z</time>
      </trkpt>
      <trkpt lat="41.8653000" lon="-5.4136500">
        <ele>693.0</ele>
        <time>2019-08-15T10:41:51Z</time>
      </trkpt>
      <trkpt lat="41.8653280" lon="-5.4136870">
        <ele>693.0</ele>
        <time>2019-08-15T10:41:54Z</time>
      </trkpt>
      <trkpt lat="41.8653460" lon="-5.4137170">
        <ele>693.0</ele>
        <time>2019-08-15T10:41:57Z</time>
      </trkpt>
      <trkpt lat="41.8653670" lon="-5.4137530">
        <ele>693.0</ele>
        <time>2019-08-15T10:41:59Z</time>
      </trkpt>
      <trkpt lat="41.8653920" lon="-5.4138290">
        <ele>692.9</ele>
        <time>2019-08-15T10:42:01Z</time>
      </trkpt>
      <trkpt lat="41.8654130" lon="-5.4138610">
        <ele>692.8</ele>
        <time>2019-08-15T10:42:02Z</time>
      </trkpt>
      <trkpt lat="41.8654300" lon="-5.4138940">
        <ele>692.8</ele>
        <time>2019-08-15T10:42:03Z</time>
      </trkpt>
      <trkpt lat="41.8654450" lon="-5.4139280">
        <ele>692.7</ele>
        <time>2019-08-15T10:42:04Z</time>
      </trkpt>
      <trkpt lat="41.8654600" lon="-5.4139670">
        <ele>692.6</ele>
        <time>2019-08-15T10:42:05Z</time>
      </trkpt>
      <trkpt lat="41.8654800" lon="-5.4140020">
        <ele>692.6</ele>
        <time>2019-08-15T10:42:06Z</time>
      </trkpt>
      <trkpt lat="41.8654950" lon="-5.4140360">
        <ele>692.5</ele>
        <time>2019-08-15T10:42:07Z</time>
      </trkpt>
      <trkpt lat="41.8655200" lon="-5.4140730">
        <ele>692.4</ele>
        <time>2019-08-15T10:42:08Z</time>
      </trkpt>
      <trkpt lat="41.8655430" lon="-5.4141050">
        <ele>692.4</ele>
        <time>2019-08-15T10:42:09Z</time>
      </trkpt>
      <trkpt lat="41.8655650" lon="-5.4141280">
        <ele>692.3</ele>
        <time>2019-08-15T10:42:10Z</time>
      </trkpt>
      <trkpt lat="41.8655760" lon="-5.4141470">
        <ele>692.3</ele>
        <time>2019-08-15T10:42:11Z</time>
      </trkpt>
      <trkpt lat="41.8656070" lon="-5.4141790">
        <ele>692.2</ele>
        <time>2019-08-15T10:42:13Z</time>
      </trkpt>
      <trkpt lat="41.8656410" lon="-5.4142470">
        <ele>692.1</ele>
        <time>2019-08-15T10:42:15Z</time>
      </trkpt>
      <trkpt lat="41.8656590" lon="-5.4142790">
        <ele>692.0</ele>
        <time>2019-08-15T10:42:16Z</time>
      </trkpt>
      <trkpt lat="41.8656830" lon="-5.4143110">
        <ele>691.9</ele>
        <time>2019-08-15T10:42:17Z</time>
      </trkpt>
      <trkpt lat="41.8657040" lon="-5.4143560">
        <ele>691.9</ele>
        <time>2019-08-15T10:42:18Z</time>
      </trkpt>
      <trkpt lat="41.8657280" lon="-5.4143880">
        <ele>691.9</ele>
        <time>2019-08-15T10:42:19Z</time>
      </trkpt>
      <trkpt lat="41.8657500" lon="-5.4144200">
        <ele>691.9</ele>
        <time>2019-08-15T10:42:20Z</time>
      </trkpt>
      <trkpt lat="41.8657720" lon="-5.4144520">
        <ele>691.8</ele>
        <time>2019-08-15T10:42:21Z</time>
      </trkpt>
      <trkpt lat="41.8657880" lon="-5.4144800">
        <ele>691.8</ele>
        <time>2019-08-15T10:42:22Z</time>
      </trkpt>
      <trkpt lat="41.8658230" lon="-5.4145460">
        <ele>691.7</ele>
        <time>2019-08-15T10:42:24Z</time>
      </trkpt>
      <trkpt lat="41.8658420" lon="-5.4145760">
        <ele>691.6</ele>
        <time>2019-08-15T10:42:25Z</time>
      </trkpt>
      <trkpt lat="41.8658630" lon="-5.4146060">
        <ele>691.5</ele>
        <time>2019-08-15T10:42:26Z</time>
      </trkpt>
      <trkpt lat="41.8658830" lon="-5.4146390">
        <ele>691.5</ele>
        <time>2019-08-15T10:42:27Z</time>
      </trkpt>
      <trkpt lat="41.8659040" lon="-5.4146710">
        <ele>691.4</ele>
        <time>2019-08-15T10:42:28Z</time>
      </trkpt>
      <trkpt lat="41.8659220" lon="-5.4146970">
        <ele>691.3</ele>
        <time>2019-08-15T10:42:29Z</time>
      </trkpt>
      <trkpt lat="41.8659440" lon="-5.4147240">
        <ele>691.2</ele>
        <time>2019-08-15T10:42:30Z</time>
      </trkpt>
      <trkpt lat="41.8659640" lon="-5.4147570">
        <ele>691.1</ele>
        <time>2019-08-15T10:42:31Z</time>
      </trkpt>
      <trkpt lat="41.8659830" lon="-5.4147840">
        <ele>691.1</ele>
        <time>2019-08-15T10:42:32Z</time>
      </trkpt>
      <trkpt lat="41.8659980" lon="-5.4148060">
        <ele>691.0</ele>
        <time>2019-08-15T10:42:33Z</time>
      </trkpt>
      <trkpt lat="41.8660180" lon="-5.4148630">
        <ele>690.8</ele>
        <time>2019-08-15T10:42:35Z</time>
      </trkpt>
      <trkpt lat="41.8660470" lon="-5.4149370">
        <ele>690.6</ele>
        <time>2019-08-15T10:42:37Z</time>
      </trkpt>
      <trkpt lat="41.8660610" lon="-5.4149860">
        <ele>690.4</ele>
        <time>2019-08-15T10:42:38Z</time>
      </trkpt>
      <trkpt lat="41.8660690" lon="-5.4150380">
        <ele>690.4</ele>
        <time>2019-08-15T10:42:39Z</time>
      </trkpt>
      <trkpt lat="41.8660700" lon="-5.4150850">
        <ele>690.3</ele>
        <time>2019-08-15T10:42:40Z</time>
      </trkpt>
      <trkpt lat="41.8660660" lon="-5.4151290">
        <ele>690.3</ele>
        <time>2019-08-15T10:42:41Z</time>
      </trkpt>
      <trkpt lat="41.8660650" lon="-5.4151780">
        <ele>690.2</ele>
        <time>2019-08-15T10:42:42Z</time>
      </trkpt>
      <trkpt lat="41.8660610" lon="-5.4152290">
        <ele>690.1</ele>
        <time>2019-08-15T10:42:43Z</time>
      </trkpt>
      <trkpt lat="41.8660600" lon="-5.4152810">
        <ele>690.1</ele>
        <time>2019-08-15T10:42:44Z</time>
      </trkpt>
      <trkpt lat="41.8660580" lon="-5.4153300">
        <ele>689.9</ele>
        <time>2019-08-15T10:42:45Z</time>
      </trkpt>
      <trkpt lat="41.8660570" lon="-5.4153780">
        <ele>689.8</ele>
        <time>2019-08-15T10:42:46Z</time>
      </trkpt>
      <trkpt lat="41.8660540" lon="-5.4154220">
        <ele>689.7</ele>
        <time>2019-08-15T10:42:47Z</time>
      </trkpt>
      <trkpt lat="41.8660460" lon="-5.4154610">
        <ele>689.6</ele>
        <time>2019-08-15T10:42:48Z</time>
      </trkpt>
      <trkpt lat="41.8660410" lon="-5.4154970">
        <ele>689.5</ele>
        <time>2019-08-15T10:42:49Z</time>
      </trkpt>
      <trkpt lat="41.8660380" lon="-5.4155380">
        <ele>689.4</ele>
        <time>2019-08-15T10:42:50Z</time>
      </trkpt>
      <trkpt lat="41.8660350" lon="-5.4155870">
        <ele>689.2</ele>
        <time>2019-08-15T10:42:51Z</time>
      </trkpt>
      <trkpt lat="41.8660330" lon="-5.4156370">
        <ele>689.0</ele>
        <time>2019-08-15T10:42:52Z</time>
      </trkpt>
      <trkpt lat="41.8660310" lon="-5.4156870">
        <ele>688.8</ele>
        <time>2019-08-15T10:42:53Z</time>
      </trkpt>
      <trkpt lat="41.8660290" lon="-5.4157350">
        <ele>688.6</ele>
        <time>2019-08-15T10:42:54Z</time>
      </trkpt>
      <trkpt lat="41.8660270" lon="-5.4157850">
        <ele>688.4</ele>
        <time>2019-08-15T10:42:55Z</time>
      </trkpt>
      <trkpt lat="41.8660270" lon="-5.4158490">
        <ele>688.2</ele>
        <time>2019-08-15T10:42:56Z</time>
      </trkpt>
      <trkpt lat="41.8660230" lon="-5.4159130">
        <ele>687.9</ele>
        <time>2019-08-15T10:42:57Z</time>
      </trkpt>
      <trkpt lat="41.8660200" lon="-5.4159760">
        <ele>687.7</ele>
        <time>2019-08-15T10:42:58Z</time>
      </trkpt>
      <trkpt lat="41.8660140" lon="-5.4160320">
        <ele>687.6</ele>
        <time>2019-08-15T10:42:59Z</time>
      </trkpt>
      <trkpt lat="41.8660100" lon="-5.4160860">
        <ele>687.4</ele>
        <time>2019-08-15T10:43:00Z</time>
      </trkpt>
      <trkpt lat="41.8660050" lon="-5.4161440">
        <ele>687.3</ele>
        <time>2019-08-15T10:43:01Z</time>
      </trkpt>
      <trkpt lat="41.8660020" lon="-5.4162060">
        <ele>687.0</ele>
        <time>2019-08-15T10:43:02Z</time>
      </trkpt>
      <trkpt lat="41.8659970" lon="-5.4162660">
        <ele>686.9</ele>
        <time>2019-08-15T10:43:03Z</time>
      </trkpt>
      <trkpt lat="41.8659890" lon="-5.4163250">
        <ele>686.8</ele>
        <time>2019-08-15T10:43:04Z</time>
      </trkpt>
      <trkpt lat="41.8659810" lon="-5.4163850">
        <ele>686.6</ele>
        <time>2019-08-15T10:43:05Z</time>
      </trkpt>
      <trkpt lat="41.8659730" lon="-5.4164460">
        <ele>686.5</ele>
        <time>2019-08-15T10:43:06Z</time>
      </trkpt>
      <trkpt lat="41.8659630" lon="-5.4165100">
        <ele>686.4</ele>
        <time>2019-08-15T10:43:07Z</time>
      </trkpt>
      <trkpt lat="41.8659520" lon="-5.4165740">
        <ele>686.3</ele>
        <time>2019-08-15T10:43:08Z</time>
      </trkpt>
      <trkpt lat="41.8659450" lon="-5.4166380">
        <ele>686.3</ele>
        <time>2019-08-15T10:43:09Z</time>
      </trkpt>
      <trkpt lat="41.8659350" lon="-5.4167010">
        <ele>686.3</ele>
        <time>2019-08-15T10:43:10Z</time>
      </trkpt>
      <trkpt lat="41.8659320" lon="-5.4167690">
        <ele>686.3</ele>
        <time>2019-08-15T10:43:11Z</time>
      </trkpt>
      <trkpt lat="41.8659240" lon="-5.4168330">
        <ele>686.4</ele>
        <time>2019-08-15T10:43:12Z</time>
      </trkpt>
      <trkpt lat="41.8659100" lon="-5.4168910">
        <ele>686.4</ele>
        <time>2019-08-15T10:43:13Z</time>
      </trkpt>
      <trkpt lat="41.8658960" lon="-5.4169500">
        <ele>686.5</ele>
        <time>2019-08-15T10:43:14Z</time>
      </trkpt>
      <trkpt lat="41.8658830" lon="-5.4170080">
        <ele>686.6</ele>
        <time>2019-08-15T10:43:15Z</time>
      </trkpt>
      <trkpt lat="41.8658690" lon="-5.4170590">
        <ele>686.6</ele>
        <time>2019-08-15T10:43:16Z</time>
      </trkpt>
      <trkpt lat="41.8658570" lon="-5.4171110">
        <ele>686.7</ele>
        <time>2019-08-15T10:43:17Z</time>
      </trkpt>
      <trkpt lat="41.8658430" lon="-5.4171620">
        <ele>686.8</ele>
        <time>2019-08-15T10:43:18Z</time>
      </trkpt>
      <trkpt lat="41.8658290" lon="-5.4172150">
        <ele>686.8</ele>
        <time>2019-08-15T10:43:19Z</time>
      </trkpt>
      <trkpt lat="41.8658110" lon="-5.4172680">
        <ele>686.9</ele>
        <time>2019-08-15T10:43:20Z</time>
      </trkpt>
      <trkpt lat="41.8657940" lon="-5.4173200">
        <ele>687.0</ele>
        <time>2019-08-15T10:43:21Z</time>
      </trkpt>
      <trkpt lat="41.8657750" lon="-5.4173710">
        <ele>687.0</ele>
        <time>2019-08-15T10:43:22Z</time>
      </trkpt>
      <trkpt lat="41.8657550" lon="-5.4174190">
        <ele>687.1</ele>
        <time>2019-08-15T10:43:23Z</time>
      </trkpt>
      <trkpt lat="41.8657360" lon="-5.4174690">
        <ele>687.2</ele>
        <time>2019-08-15T10:43:24Z</time>
      </trkpt>
      <trkpt lat="41.8657140" lon="-5.4175220">
        <ele>687.2</ele>
        <time>2019-08-15T10:43:25Z</time>
      </trkpt>
      <trkpt lat="41.8656910" lon="-5.4175710">
        <ele>687.3</ele>
        <time>2019-08-15T10:43:26Z</time>
      </trkpt>
      <trkpt lat="41.8656670" lon="-5.4176200">
        <ele>687.4</ele>
        <time>2019-08-15T10:43:27Z</time>
      </trkpt>
      <trkpt lat="41.8656430" lon="-5.4176740">
        <ele>687.5</ele>
        <time>2019-08-15T10:43:28Z</time>
      </trkpt>
      <trkpt lat="41.8656170" lon="-5.4177250">
        <ele>687.5</ele>
        <time>2019-08-15T10:43:29Z</time>
      </trkpt>
      <trkpt lat="41.8655910" lon="-5.4177740">
        <ele>687.5</ele>
        <time>2019-08-15T10:43:30Z</time>
      </trkpt>
      <trkpt lat="41.8655620" lon="-5.4178210">
        <ele>687.7</ele>
        <time>2019-08-15T10:43:31Z</time>
      </trkpt>
      <trkpt lat="41.8655340" lon="-5.4178670">
        <ele>687.9</ele>
        <time>2019-08-15T10:43:32Z</time>
      </trkpt>
      <trkpt lat="41.8655050" lon="-5.4179130">
        <ele>688.0</ele>
        <time>2019-08-15T10:43:33Z</time>
      </trkpt>
      <trkpt lat="41.8654770" lon="-5.4179580">
        <ele>688.1</ele>
        <time>2019-08-15T10:43:34Z</time>
      </trkpt>
      <trkpt lat="41.8654490" lon="-5.4180050">
        <ele>688.2</ele>
        <time>2019-08-15T10:43:35Z</time>
      </trkpt>
      <trkpt lat="41.8654220" lon="-5.4180480">
        <ele>688.3</ele>
        <time>2019-08-15T10:43:36Z</time>
      </trkpt>
      <trkpt lat="41.8653930" lon="-5.4180940">
        <ele>688.5</ele>
        <time>2019-08-15T10:43:37Z</time>
      </trkpt>
      <trkpt lat="41.8653650" lon="-5.4181360">
        <ele>688.6</ele>
        <time>2019-08-15T10:43:38Z</time>
      </trkpt>
      <trkpt lat="41.8653370" lon="-5.4181740">
        <ele>688.7</ele>
        <time>2019-08-15T10:43:39Z</time>
      </trkpt>
      <trkpt lat="41.8653090" lon="-5.4182100">
        <ele>688.7</ele>
        <time>2019-08-15T10:43:40Z</time>
      </trkpt>
      <trkpt lat="41.8652810" lon="-5.4182460">
        <ele>688.8</ele>
        <time>2019-08-15T10:43:41Z</time>
      </trkpt>
      <trkpt lat="41.8652530" lon="-5.4182780">
        <ele>688.9</ele>
        <time>2019-08-15T10:43:42Z</time>
      </trkpt>
      <trkpt lat="41.8652240" lon="-5.4183100">
        <ele>688.9</ele>
        <time>2019-08-15T10:43:43Z</time>
      </trkpt>
      <trkpt lat="41.8651940" lon="-5.4183410">
        <ele>689.0</ele>
        <time>2019-08-15T10:43:44Z</time>
      </trkpt>
      <trkpt lat="41.8651670" lon="-5.4183760">
        <ele>689.0</ele>
        <time>2019-08-15T10:43:45Z</time>
      </trkpt>
      <trkpt lat="41.8651430" lon="-5.4184180">
        <ele>689.0</ele>
        <time>2019-08-15T10:43:46Z</time>
      </trkpt>
      <trkpt lat="41.8651200" lon="-5.4184640">
        <ele>689.0</ele>
        <time>2019-08-15T10:43:47Z</time>
      </trkpt>
      <trkpt lat="41.8650970" lon="-5.4185100">
        <ele>689.1</ele>
        <time>2019-08-15T10:43:48Z</time>
      </trkpt>
      <trkpt lat="41.8650780" lon="-5.4185610">
        <ele>689.1</ele>
        <time>2019-08-15T10:43:49Z</time>
      </trkpt>
      <trkpt lat="41.8650600" lon="-5.4186150">
        <ele>689.0</ele>
        <time>2019-08-15T10:43:50Z</time>
      </trkpt>
      <trkpt lat="41.8650450" lon="-5.4186690">
        <ele>689.0</ele>
        <time>2019-08-15T10:43:51Z</time>
      </trkpt>
      <trkpt lat="41.8650340" lon="-5.4187220">
        <ele>689.0</ele>
        <time>2019-08-15T10:43:52Z</time>
      </trkpt>
      <trkpt lat="41.8650290" lon="-5.4187760">
        <ele>689.0</ele>
        <time>2019-08-15T10:43:53Z</time>
      </trkpt>
      <trkpt lat="41.8650310" lon="-5.4188320">
        <ele>689.0</ele>
        <time>2019-08-15T10:43:54Z</time>
      </trkpt>
      <trkpt lat="41.8650380" lon="-5.4188850">
        <ele>689.0</ele>
        <time>2019-08-15T10:43:55Z</time>
      </trkpt>
      <trkpt lat="41.8650470" lon="-5.4189360">
        <ele>689.0</ele>
        <time>2019-08-15T10:43:56Z</time>
      </trkpt>
      <trkpt lat="41.8650600" lon="-5.4189860">
        <ele>689.0</ele>
        <time>2019-08-15T10:43:57Z</time>
      </trkpt>
      <trkpt lat="41.8650760" lon="-5.4190360">
        <ele>688.9</ele>
        <time>2019-08-15T10:43:58Z</time>
      </trkpt>
      <trkpt lat="41.8650960" lon="-5.4190880">
        <ele>688.8</ele>
        <time>2019-08-15T10:43:59Z</time>
      </trkpt>
      <trkpt lat="41.8651190" lon="-5.4191370">
        <ele>688.7</ele>
        <time>2019-08-15T10:44:00Z</time>
      </trkpt>
      <trkpt lat="41.8651430" lon="-5.4191880">
        <ele>688.6</ele>
        <time>2019-08-15T10:44:01Z</time>
      </trkpt>
      <trkpt lat="41.8651680" lon="-5.4192430">
        <ele>688.5</ele>
        <time>2019-08-15T10:44:02Z</time>
      </trkpt>
      <trkpt lat="41.8651920" lon="-5.4192970">
        <ele>688.4</ele>
        <time>2019-08-15T10:44:03Z</time>
      </trkpt>
      <trkpt lat="41.8652150" lon="-5.4193540">
        <ele>688.3</ele>
        <time>2019-08-15T10:44:04Z</time>
      </trkpt>
      <trkpt lat="41.8652400" lon="-5.4194130">
        <ele>688.3</ele>
        <time>2019-08-15T10:44:05Z</time>
      </trkpt>
      <trkpt lat="41.8652630" lon="-5.4194720">
        <ele>688.2</ele>
        <time>2019-08-15T10:44:06Z</time>
      </trkpt>
      <trkpt lat="41.8652870" lon="-5.4195320">
        <ele>688.1</ele>
        <time>2019-08-15T10:44:07Z</time>
      </trkpt>
      <trkpt lat="41.8653100" lon="-5.4195920">
        <ele>688.0</ele>
        <time>2019-08-15T10:44:08Z</time>
      </trkpt>
      <trkpt lat="41.8653340" lon="-5.4196500">
        <ele>688.0</ele>
        <time>2019-08-15T10:44:09Z</time>
      </trkpt>
      <trkpt lat="41.8653560" lon="-5.4197070">
        <ele>687.9</ele>
        <time>2019-08-15T10:44:10Z</time>
      </trkpt>
      <trkpt lat="41.8653770" lon="-5.4197660">
        <ele>687.9</ele>
        <time>2019-08-15T10:44:11Z</time>
      </trkpt>
      <trkpt lat="41.8653970" lon="-5.4198260">
        <ele>687.8</ele>
        <time>2019-08-15T10:44:12Z</time>
      </trkpt>
      <trkpt lat="41.8654170" lon="-5.4198870">
        <ele>687.8</ele>
        <time>2019-08-15T10:44:13Z</time>
      </trkpt>
      <trkpt lat="41.8654370" lon="-5.4199480">
        <ele>687.7</ele>
        <time>2019-08-15T10:44:14Z</time>
      </trkpt>
      <trkpt lat="41.8654570" lon="-5.4200070">
        <ele>687.6</ele>
        <time>2019-08-15T10:44:15Z</time>
      </trkpt>
      <trkpt lat="41.8654760" lon="-5.4200640">
        <ele>687.6</ele>
        <time>2019-08-15T10:44:16Z</time>
      </trkpt>
      <trkpt lat="41.8654970" lon="-5.4201250">
        <ele>687.5</ele>
        <time>2019-08-15T10:44:17Z</time>
      </trkpt>
      <trkpt lat="41.8655170" lon="-5.4201860">
        <ele>687.5</ele>
        <time>2019-08-15T10:44:18Z</time>
      </trkpt>
      <trkpt lat="41.8655390" lon="-5.4202450">
        <ele>687.4</ele>
        <time>2019-08-15T10:44:19Z</time>
      </trkpt>
      <trkpt lat="41.8655610" lon="-5.4203050">
        <ele>687.3</ele>
        <time>2019-08-15T10:44:20Z</time>
      </trkpt>
      <trkpt lat="41.8655810" lon="-5.4203600">
        <ele>687.2</ele>
        <time>2019-08-15T10:44:21Z</time>
      </trkpt>
      <trkpt lat="41.8656030" lon="-5.4204160">
        <ele>687.1</ele>
        <time>2019-08-15T10:44:22Z</time>
      </trkpt>
      <trkpt lat="41.8656250" lon="-5.4204740">
        <ele>687.1</ele>
        <time>2019-08-15T10:44:23Z</time>
      </trkpt>
      <trkpt lat="41.8656450" lon="-5.4205320">
        <ele>687.0</ele>
        <time>2019-08-15T10:44:24Z</time>
      </trkpt>
      <trkpt lat="41.8656650" lon="-5.4205900">
        <ele>686.9</ele>
        <time>2019-08-15T10:44:25Z</time>
      </trkpt>
      <trkpt lat="41.8656840" lon="-5.4206510">
        <ele>686.8</ele>
        <time>2019-08-15T10:44:26Z</time>
      </trkpt>
      <trkpt lat="41.8657040" lon="-5.4207130">
        <ele>686.6</ele>
        <time>2019-08-15T10:44:27Z</time>
      </trkpt>
      <trkpt lat="41.8657270" lon="-5.4207730">
        <ele>686.5</ele>
        <time>2019-08-15T10:44:28Z</time>
      </trkpt>
      <trkpt lat="41.8657490" lon="-5.4208360">
        <ele>686.4</ele>
        <time>2019-08-15T10:44:29Z</time>
      </trkpt>
      <trkpt lat="41.8657690" lon="-5.4209020">
        <ele>686.2</ele>
        <time>2019-08-15T10:44:30Z</time>
      </trkpt>
      <trkpt lat="41.8657890" lon="-5.4209690">
        <ele>686.1</ele>
        <time>2019-08-15T10:44:31Z</time>
      </trkpt>
      <trkpt lat="41.8658080" lon="-5.4210330">
        <ele>685.9</ele>
        <time>2019-08-15T10:44:32Z</time>
      </trkpt>
      <trkpt lat="41.8658270" lon="-5.4210980">
        <ele>685.9</ele>
        <time>2019-08-15T10:44:33Z</time>
      </trkpt>
      <trkpt lat="41.8658460" lon="-5.4211650">
        <ele>685.8</ele>
        <time>2019-08-15T10:44:34Z</time>
      </trkpt>
      <trkpt lat="41.8658660" lon="-5.4212300">
        <ele>685.8</ele>
        <time>2019-08-15T10:44:35Z</time>
      </trkpt>
      <trkpt lat="41.8658860" lon="-5.4212970">
        <ele>685.8</ele>
        <time>2019-08-15T10:44:36Z</time>
      </trkpt>
      <trkpt lat="41.8659030" lon="-5.4213620">
        <ele>685.7</ele>
        <time>2019-08-15T10:44:37Z</time>
      </trkpt>
      <trkpt lat="41.8659210" lon="-5.4214260">
        <ele>685.7</ele>
        <time>2019-08-15T10:44:38Z</time>
      </trkpt>
      <trkpt lat="41.8659390" lon="-5.4214880">
        <ele>685.7</ele>
        <time>2019-08-15T10:44:39Z</time>
      </trkpt>
      <trkpt lat="41.8659590" lon="-5.4215490">
        <ele>685.6</ele>
        <time>2019-08-15T10:44:40Z</time>
      </trkpt>
      <trkpt lat="41.8659770" lon="-5.4216120">
        <ele>685.6</ele>
        <time>2019-08-15T10:44:41Z</time>
      </trkpt>
      <trkpt lat="41.8659950" lon="-5.4216770">
        <ele>685.5</ele>
        <time>2019-08-15T10:44:42Z</time>
      </trkpt>
      <trkpt lat="41.8660130" lon="-5.4217410">
        <ele>685.5</ele>
        <time>2019-08-15T10:44:43Z</time>
      </trkpt>
      <trkpt lat="41.8660330" lon="-5.4218060">
        <ele>685.4</ele>
        <time>2019-08-15T10:44:44Z</time>
      </trkpt>
      <trkpt lat="41.8660510" lon="-5.4218720">
        <ele>685.4</ele>
        <time>2019-08-15T10:44:45Z</time>
      </trkpt>
      <trkpt lat="41.8660690" lon="-5.4219380">
        <ele>685.3</ele>
        <time>2019-08-15T10:44:46Z</time>
      </trkpt>
      <trkpt lat="41.8660890" lon="-5.4220010">
        <ele>685.3</ele>
        <time>2019-08-15T10:44:47Z</time>
      </trkpt>
      <trkpt lat="41.8661070" lon="-5.4220670">
        <ele>685.2</ele>
        <time>2019-08-15T10:44:48Z</time>
      </trkpt>
      <trkpt lat="41.8661250" lon="-5.4221370">
        <ele>685.1</ele>
        <time>2019-08-15T10:44:49Z</time>
      </trkpt>
      <trkpt lat="41.8661430" lon="-5.4222060">
        <ele>685.1</ele>
        <time>2019-08-15T10:44:50Z</time>
      </trkpt>
      <trkpt lat="41.8661610" lon="-5.4222730">
        <ele>685.0</ele>
        <time>2019-08-15T10:44:51Z</time>
      </trkpt>
      <trkpt lat="41.8661800" lon="-5.4223380">
        <ele>685.0</ele>
        <time>2019-08-15T10:44:52Z</time>
      </trkpt>
      <trkpt lat="41.8661980" lon="-5.4224040">
        <ele>684.9</ele>
        <time>2019-08-15T10:44:53Z</time>
      </trkpt>
      <trkpt lat="41.8662160" lon="-5.4224710">
        <ele>684.9</ele>
        <time>2019-08-15T10:44:54Z</time>
      </trkpt>
      <trkpt lat="41.8662360" lon="-5.4225390">
        <ele>684.8</ele>
        <time>2019-08-15T10:44:55Z</time>
      </trkpt>
      <trkpt lat="41.8662550" lon="-5.4226070">
        <ele>684.8</ele>
        <time>2019-08-15T10:44:56Z</time>
      </trkpt>
      <trkpt lat="41.8662750" lon="-5.4226740">
        <ele>684.8</ele>
        <time>2019-08-15T10:44:57Z</time>
      </trkpt>
      <trkpt lat="41.8662940" lon="-5.4227410">
        <ele>684.8</ele>
        <time>2019-08-15T10:44:58Z</time>
      </trkpt>
      <trkpt lat="41.8663140" lon="-5.4228080">
        <ele>684.8</ele>
        <time>2019-08-15T10:44:59Z</time>
      </trkpt>
      <trkpt lat="41.8663320" lon="-5.4228750">
        <ele>684.7</ele>
        <time>2019-08-15T10:45:00Z</time>
      </trkpt>
      <trkpt lat="41.8663510" lon="-5.4229410">
        <ele>684.7</ele>
        <time>2019-08-15T10:45:01Z</time>
      </trkpt>
      <trkpt lat="41.8663700" lon="-5.4230090">
        <ele>684.7</ele>
        <time>2019-08-15T10:45:02Z</time>
      </trkpt>
      <trkpt lat="41.8663880" lon="-5.4230740">
        <ele>684.7</ele>
        <time>2019-08-15T10:45:03Z</time>
      </trkpt>
      <trkpt lat="41.8664070" lon="-5.4231400">
        <ele>684.7</ele>
        <time>2019-08-15T10:45:04Z</time>
      </trkpt>
      <trkpt lat="41.8664240" lon="-5.4232040">
        <ele>684.7</ele>
        <time>2019-08-15T10:45:05Z</time>
      </trkpt>
      <trkpt lat="41.8664420" lon="-5.4232680">
        <ele>684.7</ele>
        <time>2019-08-15T10:45:06Z</time>
      </trkpt>
      <trkpt lat="41.8664590" lon="-5.4233320">
        <ele>684.7</ele>
        <time>2019-08-15T10:45:07Z</time>
      </trkpt>
      <trkpt lat="41.8664760" lon="-5.4233980">
        <ele>684.7</ele>
        <time>2019-08-15T10:45:08Z</time>
      </trkpt>
      <trkpt lat="41.8664930" lon="-5.4234640">
        <ele>684.7</ele>
        <time>2019-08-15T10:45:09Z</time>
      </trkpt>
      <trkpt lat="41.8665090" lon="-5.4235280">
        <ele>684.7</ele>
        <time>2019-08-15T10:45:10Z</time>
      </trkpt>
      <trkpt lat="41.8665270" lon="-5.4235920">
        <ele>684.7</ele>
        <time>2019-08-15T10:45:11Z</time>
      </trkpt>
      <trkpt lat="41.8665460" lon="-5.4236580">
        <ele>684.7</ele>
        <time>2019-08-15T10:45:12Z</time>
      </trkpt>
      <trkpt lat="41.8665650" lon="-5.4237260">
        <ele>684.7</ele>
        <time>2019-08-15T10:45:13Z</time>
      </trkpt>
      <trkpt lat="41.8665840" lon="-5.4237940">
        <ele>684.7</ele>
        <time>2019-08-15T10:45:14Z</time>
      </trkpt>
      <trkpt lat="41.8666030" lon="-5.4238630">
        <ele>684.7</ele>
        <time>2019-08-15T10:45:15Z</time>
      </trkpt>
      <trkpt lat="41.8666230" lon="-5.4239320">
        <ele>684.8</ele>
        <time>2019-08-15T10:45:16Z</time>
      </trkpt>
      <trkpt lat="41.8666420" lon="-5.4239990">
        <ele>684.8</ele>
        <time>2019-08-15T10:45:17Z</time>
      </trkpt>
      <trkpt lat="41.8666610" lon="-5.4240650">
        <ele>684.8</ele>
        <time>2019-08-15T10:45:18Z</time>
      </trkpt>
      <trkpt lat="41.8666810" lon="-5.4241330">
        <ele>684.8</ele>
        <time>2019-08-15T10:45:19Z</time>
      </trkpt>
      <trkpt lat="41.8667010" lon="-5.4242000">
        <ele>684.8</ele>
        <time>2019-08-15T10:45:20Z</time>
      </trkpt>
      <trkpt lat="41.8667220" lon="-5.4242690">
        <ele>684.8</ele>
        <time>2019-08-15T10:45:21Z</time>
      </trkpt>
      <trkpt lat="41.8667440" lon="-5.4243390">
        <ele>684.9</ele>
        <time>2019-08-15T10:45:22Z</time>
      </trkpt>
      <trkpt lat="41.8667640" lon="-5.4244100">
        <ele>684.9</ele>
        <time>2019-08-15T10:45:23Z</time>
      </trkpt>
      <trkpt lat="41.8667850" lon="-5.4244820">
        <ele>684.9</ele>
        <time>2019-08-15T10:45:24Z</time>
      </trkpt>
      <trkpt lat="41.8668050" lon="-5.4245520">
        <ele>684.9</ele>
        <time>2019-08-15T10:45:25Z</time>
      </trkpt>
      <trkpt lat="41.8668260" lon="-5.4246210">
        <ele>684.9</ele>
        <time>2019-08-15T10:45:26Z</time>
      </trkpt>
      <trkpt lat="41.8668440" lon="-5.4246910">
        <ele>684.9</ele>
        <time>2019-08-15T10:45:27Z</time>
      </trkpt>
      <trkpt lat="41.8668640" lon="-5.4247610">
        <ele>684.9</ele>
        <time>2019-08-15T10:45:28Z</time>
      </trkpt>
      <trkpt lat="41.8668830" lon="-5.4248330">
        <ele>684.9</ele>
        <time>2019-08-15T10:45:29Z</time>
      </trkpt>
      <trkpt lat="41.8669010" lon="-5.4249050">
        <ele>684.9</ele>
        <time>2019-08-15T10:45:30Z</time>
      </trkpt>
      <trkpt lat="41.8669200" lon="-5.4249780">
        <ele>684.9</ele>
        <time>2019-08-15T10:45:31Z</time>
      </trkpt>
      <trkpt lat="41.8669390" lon="-5.4250480">
        <ele>684.9</ele>
        <time>2019-08-15T10:45:32Z</time>
      </trkpt>
      <trkpt lat="41.8669570" lon="-5.4251150">
        <ele>684.9</ele>
        <time>2019-08-15T10:45:33Z</time>
      </trkpt>
      <trkpt lat="41.8669790" lon="-5.4251840">
        <ele>684.9</ele>
        <time>2019-08-15T10:45:34Z</time>
      </trkpt>
      <trkpt lat="41.8669990" lon="-5.4252540">
        <ele>684.9</ele>
        <time>2019-08-15T10:45:35Z</time>
      </trkpt>
      <trkpt lat="41.8670180" lon="-5.4253240">
        <ele>684.9</ele>
        <time>2019-08-15T10:45:36Z</time>
      </trkpt>
      <trkpt lat="41.8670380" lon="-5.4253950">
        <ele>684.9</ele>
        <time>2019-08-15T10:45:37Z</time>
      </trkpt>
      <trkpt lat="41.8670580" lon="-5.4254660">
        <ele>684.9</ele>
        <time>2019-08-15T10:45:38Z</time>
      </trkpt>
      <trkpt lat="41.8670800" lon="-5.4255380">
        <ele>684.9</ele>
        <time>2019-08-15T10:45:39Z</time>
      </trkpt>
      <trkpt lat="41.8671000" lon="-5.4256090">
        <ele>684.9</ele>
        <time>2019-08-15T10:45:40Z</time>
      </trkpt>
      <trkpt lat="41.8671200" lon="-5.4256780">
        <ele>685.0</ele>
        <time>2019-08-15T10:45:41Z</time>
      </trkpt>
      <trkpt lat="41.8671390" lon="-5.4257450">
        <ele>685.0</ele>
        <time>2019-08-15T10:45:42Z</time>
      </trkpt>
      <trkpt lat="41.8671570" lon="-5.4258170">
        <ele>685.0</ele>
        <time>2019-08-15T10:45:43Z</time>
      </trkpt>
      <trkpt lat="41.8671760" lon="-5.4258900">
        <ele>685.0</ele>
        <time>2019-08-15T10:45:44Z</time>
      </trkpt>
      <trkpt lat="41.8671950" lon="-5.4259610">
        <ele>685.0</ele>
        <time>2019-08-15T10:45:45Z</time>
      </trkpt>
      <trkpt lat="41.8672160" lon="-5.4260330">
        <ele>685.0</ele>
        <time>2019-08-15T10:45:46Z</time>
      </trkpt>
      <trkpt lat="41.8672370" lon="-5.4261030">
        <ele>685.0</ele>
        <time>2019-08-15T10:45:47Z</time>
      </trkpt>
      <trkpt lat="41.8672560" lon="-5.4261720">
        <ele>685.0</ele>
        <time>2019-08-15T10:45:48Z</time>
      </trkpt>
      <trkpt lat="41.8672760" lon="-5.4262410">
        <ele>685.0</ele>
        <time>2019-08-15T10:45:49Z</time>
      </trkpt>
      <trkpt lat="41.8672970" lon="-5.4263130">
        <ele>685.0</ele>
        <time>2019-08-15T10:45:50Z</time>
      </trkpt>
      <trkpt lat="41.8673160" lon="-5.4263860">
        <ele>685.1</ele>
        <time>2019-08-15T10:45:51Z</time>
      </trkpt>
      <trkpt lat="41.8673350" lon="-5.4264570">
        <ele>685.1</ele>
        <time>2019-08-15T10:45:52Z</time>
      </trkpt>
      <trkpt lat="41.8673570" lon="-5.4265280">
        <ele>685.1</ele>
        <time>2019-08-15T10:45:53Z</time>
      </trkpt>
      <trkpt lat="41.8673770" lon="-5.4265990">
        <ele>685.1</ele>
        <time>2019-08-15T10:45:54Z</time>
      </trkpt>
      <trkpt lat="41.8673980" lon="-5.4266710">
        <ele>685.1</ele>
        <time>2019-08-15T10:45:55Z</time>
      </trkpt>
      <trkpt lat="41.8674180" lon="-5.4267430">
        <ele>685.1</ele>
        <time>2019-08-15T10:45:56Z</time>
      </trkpt>
      <trkpt lat="41.8674390" lon="-5.4268140">
        <ele>685.1</ele>
        <time>2019-08-15T10:45:57Z</time>
      </trkpt>
      <trkpt lat="41.8674580" lon="-5.4268850">
        <ele>685.1</ele>
        <time>2019-08-15T10:45:58Z</time>
      </trkpt>
      <trkpt lat="41.8674790" lon="-5.4269550">
        <ele>685.2</ele>
        <time>2019-08-15T10:45:59Z</time>
      </trkpt>
      <trkpt lat="41.8674990" lon="-5.4270230">
        <ele>685.2</ele>
        <time>2019-08-15T10:46:00Z</time>
      </trkpt>
      <trkpt lat="41.8675190" lon="-5.4270910">
        <ele>685.2</ele>
        <time>2019-08-15T10:46:01Z</time>
      </trkpt>
      <trkpt lat="41.8675390" lon="-5.4271600">
        <ele>685.2</ele>
        <time>2019-08-15T10:46:02Z</time>
      </trkpt>
      <trkpt lat="41.8675570" lon="-5.4272290">
        <ele>685.3</ele>
        <time>2019-08-15T10:46:03Z</time>
      </trkpt>
      <trkpt lat="41.8675760" lon="-5.4272980">
        <ele>685.3</ele>
        <time>2019-08-15T10:46:04Z</time>
      </trkpt>
      <trkpt lat="41.8675950" lon="-5.4273680">
        <ele>685.3</ele>
        <time>2019-08-15T10:46:05Z</time>
      </trkpt>
      <trkpt lat="41.8676140" lon="-5.4274370">
        <ele>685.3</ele>
        <time>2019-08-15T10:46:06Z</time>
      </trkpt>
      <trkpt lat="41.8676330" lon="-5.4275020">
        <ele>685.4</ele>
        <time>2019-08-15T10:46:07Z</time>
      </trkpt>
      <trkpt lat="41.8676520" lon="-5.4275670">
        <ele>685.4</ele>
        <time>2019-08-15T10:46:08Z</time>
      </trkpt>
      <trkpt lat="41.8676710" lon="-5.4276350">
        <ele>685.4</ele>
        <time>2019-08-15T10:46:09Z</time>
      </trkpt>
      <trkpt lat="41.8676880" lon="-5.4277030">
        <ele>685.4</ele>
        <time>2019-08-15T10:46:10Z</time>
      </trkpt>
      <trkpt lat="41.8677060" lon="-5.4277720">
        <ele>685.4</ele>
        <time>2019-08-15T10:46:11Z</time>
      </trkpt>
      <trkpt lat="41.8677240" lon="-5.4278430">
        <ele>685.5</ele>
        <time>2019-08-15T10:46:12Z</time>
      </trkpt>
      <trkpt lat="41.8677430" lon="-5.4279120">
        <ele>685.5</ele>
        <time>2019-08-15T10:46:13Z</time>
      </trkpt>
      <trkpt lat="41.8677620" lon="-5.4279820">
        <ele>685.5</ele>
        <time>2019-08-15T10:46:14Z</time>
      </trkpt>
      <trkpt lat="41.8677820" lon="-5.4280510">
        <ele>685.5</ele>
        <time>2019-08-15T10:46:15Z</time>
      </trkpt>
      <trkpt lat="41.8678010" lon="-5.4281180">
        <ele>685.5</ele>
        <time>2019-08-15T10:46:16Z</time>
      </trkpt>
      <trkpt lat="41.8678190" lon="-5.4281840">
        <ele>685.6</ele>
        <time>2019-08-15T10:46:17Z</time>
      </trkpt>
      <trkpt lat="41.8678380" lon="-5.4282480">
        <ele>685.6</ele>
        <time>2019-08-15T10:46:18Z</time>
      </trkpt>
      <trkpt lat="41.8678580" lon="-5.4283130">
        <ele>685.6</ele>
        <time>2019-08-15T10:46:19Z</time>
      </trkpt>
      <trkpt lat="41.8678780" lon="-5.4283810">
        <ele>685.7</ele>
        <time>2019-08-15T10:46:20Z</time>
      </trkpt>
      <trkpt lat="41.8678980" lon="-5.4284500">
        <ele>685.7</ele>
        <time>2019-08-15T10:46:21Z</time>
      </trkpt>
      <trkpt lat="41.8679170" lon="-5.4285200">
        <ele>685.7</ele>
        <time>2019-08-15T10:46:22Z</time>
      </trkpt>
      <trkpt lat="41.8679360" lon="-5.4285900">
        <ele>685.7</ele>
        <time>2019-08-15T10:46:23Z</time>
      </trkpt>
      <trkpt lat="41.8679570" lon="-5.4286620">
        <ele>685.8</ele>
        <time>2019-08-15T10:46:24Z</time>
      </trkpt>
      <trkpt lat="41.8679770" lon="-5.4287310">
        <ele>685.8</ele>
        <time>2019-08-15T10:46:25Z</time>
      </trkpt>
      <trkpt lat="41.8679960" lon="-5.4287960">
        <ele>685.8</ele>
        <time>2019-08-15T10:46:26Z</time>
      </trkpt>
      <trkpt lat="41.8680140" lon="-5.4288610">
        <ele>685.9</ele>
        <time>2019-08-15T10:46:27Z</time>
      </trkpt>
      <trkpt lat="41.8680320" lon="-5.4289260">
        <ele>685.9</ele>
        <time>2019-08-15T10:46:28Z</time>
      </trkpt>
      <trkpt lat="41.8680490" lon="-5.4289880">
        <ele>685.9</ele>
        <time>2019-08-15T10:46:29Z</time>
      </trkpt>
      <trkpt lat="41.8680650" lon="-5.4290520">
        <ele>686.0</ele>
        <time>2019-08-15T10:46:30Z</time>
      </trkpt>
      <trkpt lat="41.8680810" lon="-5.4291200">
        <ele>686.0</ele>
        <time>2019-08-15T10:46:31Z</time>
      </trkpt>
      <trkpt lat="41.8680970" lon="-5.4291880">
        <ele>686.0</ele>
        <time>2019-08-15T10:46:32Z</time>
      </trkpt>
      <trkpt lat="41.8681130" lon="-5.4292560">
        <ele>686.1</ele>
        <time>2019-08-15T10:46:33Z</time>
      </trkpt>
      <trkpt lat="41.8681280" lon="-5.4293230">
        <ele>686.1</ele>
        <time>2019-08-15T10:46:34Z</time>
      </trkpt>
      <trkpt lat="41.8681460" lon="-5.4293930">
        <ele>686.1</ele>
        <time>2019-08-15T10:46:35Z</time>
      </trkpt>
      <trkpt lat="41.8681660" lon="-5.4294620">
        <ele>686.2</ele>
        <time>2019-08-15T10:46:36Z</time>
      </trkpt>
      <trkpt lat="41.8681860" lon="-5.4295320">
        <ele>686.2</ele>
        <time>2019-08-15T10:46:37Z</time>
      </trkpt>
      <trkpt lat="41.8682080" lon="-5.4295990">
        <ele>686.2</ele>
        <time>2019-08-15T10:46:38Z</time>
      </trkpt>
      <trkpt lat="41.8682320" lon="-5.4296670">
        <ele>686.2</ele>
        <time>2019-08-15T10:46:39Z</time>
      </trkpt>
      <trkpt lat="41.8682550" lon="-5.4297350">
        <ele>686.2</ele>
        <time>2019-08-15T10:46:40Z</time>
      </trkpt>
      <trkpt lat="41.8682770" lon="-5.4298020">
        <ele>686.3</ele>
        <time>2019-08-15T10:46:41Z</time>
      </trkpt>
      <trkpt lat="41.8682970" lon="-5.4298710">
        <ele>686.3</ele>
        <time>2019-08-15T10:46:42Z</time>
      </trkpt>
      <trkpt lat="41.8683170" lon="-5.4299400">
        <ele>686.3</ele>
        <time>2019-08-15T10:46:43Z</time>
      </trkpt>
      <trkpt lat="41.8683360" lon="-5.4300070">
        <ele>686.2</ele>
        <time>2019-08-15T10:46:44Z</time>
      </trkpt>
      <trkpt lat="41.8683560" lon="-5.4300750">
        <ele>686.2</ele>
        <time>2019-08-15T10:46:45Z</time>
      </trkpt>
      <trkpt lat="41.8683740" lon="-5.4301420">
        <ele>686.2</ele>
        <time>2019-08-15T10:46:46Z</time>
      </trkpt>
      <trkpt lat="41.8683920" lon="-5.4302070">
        <ele>686.2</ele>
        <time>2019-08-15T10:46:47Z</time>
      </trkpt>
      <trkpt lat="41.8684120" lon="-5.4302710">
        <ele>686.1</ele>
        <time>2019-08-15T10:46:48Z</time>
      </trkpt>
      <trkpt lat="41.8684300" lon="-5.4303360">
        <ele>686.1</ele>
        <time>2019-08-15T10:46:49Z</time>
      </trkpt>
      <trkpt lat="41.8684480" lon="-5.4303990">
        <ele>686.0</ele>
        <time>2019-08-15T10:46:50Z</time>
      </trkpt>
      <trkpt lat="41.8684650" lon="-5.4304600">
        <ele>685.9</ele>
        <time>2019-08-15T10:46:51Z</time>
      </trkpt>
      <trkpt lat="41.8684810" lon="-5.4305220">
        <ele>685.8</ele>
        <time>2019-08-15T10:46:52Z</time>
      </trkpt>
      <trkpt lat="41.8684980" lon="-5.4305830">
        <ele>685.7</ele>
        <time>2019-08-15T10:46:53Z</time>
      </trkpt>
      <trkpt lat="41.8685160" lon="-5.4306450">
        <ele>685.6</ele>
        <time>2019-08-15T10:46:54Z</time>
      </trkpt>
      <trkpt lat="41.8685330" lon="-5.4307050">
        <ele>685.5</ele>
        <time>2019-08-15T10:46:55Z</time>
      </trkpt>
      <trkpt lat="41.8685500" lon="-5.4307660">
        <ele>685.3</ele>
        <time>2019-08-15T10:46:56Z</time>
      </trkpt>
      <trkpt lat="41.8685680" lon="-5.4308280">
        <ele>685.2</ele>
        <time>2019-08-15T10:46:57Z</time>
      </trkpt>
      <trkpt lat="41.8685840" lon="-5.4308900">
        <ele>685.0</ele>
        <time>2019-08-15T10:46:58Z</time>
      </trkpt>
      <trkpt lat="41.8686010" lon="-5.4309510">
        <ele>684.8</ele>
        <time>2019-08-15T10:46:59Z</time>
      </trkpt>
      <trkpt lat="41.8686170" lon="-5.4310120">
        <ele>684.7</ele>
        <time>2019-08-15T10:47:00Z</time>
      </trkpt>
      <trkpt lat="41.8686330" lon="-5.4310740">
        <ele>684.6</ele>
        <time>2019-08-15T10:47:01Z</time>
      </trkpt>
      <trkpt lat="41.8686500" lon="-5.4311340">
        <ele>684.4</ele>
        <time>2019-08-15T10:47:02Z</time>
      </trkpt>
      <trkpt lat="41.8686660" lon="-5.4311970">
        <ele>684.4</ele>
        <time>2019-08-15T10:47:03Z</time>
      </trkpt>
      <trkpt lat="41.8686820" lon="-5.4312580">
        <ele>684.4</ele>
        <time>2019-08-15T10:47:04Z</time>
      </trkpt>
      <trkpt lat="41.8686970" lon="-5.4313180">
        <ele>684.4</ele>
        <time>2019-08-15T10:47:05Z</time>
      </trkpt>
      <trkpt lat="41.8687130" lon="-5.4313740">
        <ele>684.3</ele>
        <time>2019-08-15T10:47:06Z</time>
      </trkpt>
      <trkpt lat="41.8687280" lon="-5.4314290">
        <ele>684.3</ele>
        <time>2019-08-15T10:47:07Z</time>
      </trkpt>
      <trkpt lat="41.8687440" lon="-5.4314850">
        <ele>684.3</ele>
        <time>2019-08-15T10:47:08Z</time>
      </trkpt>
      <trkpt lat="41.8687600" lon="-5.4315420">
        <ele>684.3</ele>
        <time>2019-08-15T10:47:09Z</time>
      </trkpt>
      <trkpt lat="41.8687750" lon="-5.4315980">
        <ele>684.2</ele>
        <time>2019-08-15T10:47:10Z</time>
      </trkpt>
      <trkpt lat="41.8687920" lon="-5.4316560">
        <ele>684.2</ele>
        <time>2019-08-15T10:47:11Z</time>
      </trkpt>
      <trkpt lat="41.8688100" lon="-5.4317120">
        <ele>684.1</ele>
        <time>2019-08-15T10:47:12Z</time>
      </trkpt>
      <trkpt lat="41.8688270" lon="-5.4317710">
        <ele>684.1</ele>
        <time>2019-08-15T10:47:13Z</time>
      </trkpt>
      <trkpt lat="41.8688450" lon="-5.4318320">
        <ele>684.0</ele>
        <time>2019-08-15T10:47:14Z</time>
      </trkpt>
      <trkpt lat="41.8688620" lon="-5.4318930">
        <ele>684.0</ele>
        <time>2019-08-15T10:47:15Z</time>
      </trkpt>
      <trkpt lat="41.8688780" lon="-5.4319560">
        <ele>683.9</ele>
        <time>2019-08-15T10:47:16Z</time>
      </trkpt>
      <trkpt lat="41.8688940" lon="-5.4320170">
        <ele>683.8</ele>
        <time>2019-08-15T10:47:17Z</time>
      </trkpt>
      <trkpt lat="41.8689100" lon="-5.4320770">
        <ele>683.8</ele>
        <time>2019-08-15T10:47:18Z</time>
      </trkpt>
      <trkpt lat="41.8689270" lon="-5.4321360">
        <ele>683.8</ele>
        <time>2019-08-15T10:47:19Z</time>
      </trkpt>
      <trkpt lat="41.8689440" lon="-5.4321940">
        <ele>683.8</ele>
        <time>2019-08-15T10:47:20Z</time>
      </trkpt>
      <trkpt lat="41.8689600" lon="-5.4322490">
        <ele>683.9</ele>
        <time>2019-08-15T10:47:21Z</time>
      </trkpt>
      <trkpt lat="41.8689760" lon="-5.4323020">
        <ele>683.9</ele>
        <time>2019-08-15T10:47:22Z</time>
      </trkpt>
      <trkpt lat="41.8689910" lon="-5.4323540">
        <ele>683.9</ele>
        <time>2019-08-15T10:47:23Z</time>
      </trkpt>
      <trkpt lat="41.8690080" lon="-5.4324040">
        <ele>684.0</ele>
        <time>2019-08-15T10:47:24Z</time>
      </trkpt>
      <trkpt lat="41.8690230" lon="-5.4324500">
        <ele>684.0</ele>
        <time>2019-08-15T10:47:25Z</time>
      </trkpt>
      <trkpt lat="41.8690380" lon="-5.4324950">
        <ele>684.0</ele>
        <time>2019-08-15T10:47:26Z</time>
      </trkpt>
      <trkpt lat="41.8690530" lon="-5.4325390">
        <ele>684.0</ele>
        <time>2019-08-15T10:47:27Z</time>
      </trkpt>
      <trkpt lat="41.8690660" lon="-5.4325830">
        <ele>684.0</ele>
        <time>2019-08-15T10:47:28Z</time>
      </trkpt>
      <trkpt lat="41.8690790" lon="-5.4326240">
        <ele>684.0</ele>
        <time>2019-08-15T10:47:29Z</time>
      </trkpt>
      <trkpt lat="41.8690890" lon="-5.4326540">
        <ele>684.0</ele>
        <time>2019-08-15T10:47:30Z</time>
      </trkpt>
      <trkpt lat="41.8690970" lon="-5.4326830">
        <ele>684.0</ele>
        <time>2019-08-15T10:47:32Z</time>
      </trkpt>
      <trkpt lat="41.8690980" lon="-5.4326800">
        <ele>684.0</ele>
        <time>2019-08-15T10:47:39Z</time>
      </trkpt>
      <trkpt lat="41.8690230" lon="-5.4324060">
        <ele>684.0</ele>
        <time>2019-08-15T10:47:53Z</time>
      </trkpt>
      <trkpt lat="41.8690100" lon="-5.4323630">
        <ele>683.9</ele>
        <time>2019-08-15T10:47:54Z</time>
      </trkpt>
      <trkpt lat="41.8689980" lon="-5.4323200">
        <ele>683.9</ele>
        <time>2019-08-15T10:47:55Z</time>
      </trkpt>
      <trkpt lat="41.8689870" lon="-5.4322790">
        <ele>683.9</ele>
        <time>2019-08-15T10:47:56Z</time>
      </trkpt>
      <trkpt lat="41.8689770" lon="-5.4322410">
        <ele>683.9</ele>
        <time>2019-08-15T10:47:57Z</time>
      </trkpt>
      <trkpt lat="41.8689690" lon="-5.4322070">
        <ele>683.7</ele>
        <time>2019-08-15T10:47:58Z</time>
      </trkpt>
      <trkpt lat="41.8689720" lon="-5.4321620">
        <ele>683.7</ele>
        <time>2019-08-15T10:48:00Z</time>
      </trkpt>
      <trkpt lat="41.8689970" lon="-5.4321380">
        <ele>683.7</ele>
        <time>2019-08-15T10:48:02Z</time>
      </trkpt>
      <trkpt lat="41.8690300" lon="-5.4322230">
        <ele>683.7</ele>
        <time>2019-08-15T10:48:05Z</time>
      </trkpt>
      <trkpt lat="41.8690430" lon="-5.4322720">
        <ele>683.7</ele>
        <time>2019-08-15T10:48:06Z</time>
      </trkpt>
      <trkpt lat="41.8690610" lon="-5.4323230">
        <ele>683.7</ele>
        <time>2019-08-15T10:48:07Z</time>
      </trkpt>
      <trkpt lat="41.8690790" lon="-5.4323750">
        <ele>683.7</ele>
        <time>2019-08-15T10:48:08Z</time>
      </trkpt>
      <trkpt lat="41.8690950" lon="-5.4324290">
        <ele>683.7</ele>
        <time>2019-08-15T10:48:09Z</time>
      </trkpt>
      <trkpt lat="41.8691090" lon="-5.4324830">
        <ele>683.7</ele>
        <time>2019-08-15T10:48:10Z</time>
      </trkpt>
      <trkpt lat="41.8691210" lon="-5.4325310">
        <ele>683.7</ele>
        <time>2019-08-15T10:48:11Z</time>
      </trkpt>
      <trkpt lat="41.8691340" lon="-5.4325730">
        <ele>683.7</ele>
        <time>2019-08-15T10:48:12Z</time>
      </trkpt>
      <trkpt lat="41.8691470" lon="-5.4326120">
        <ele>683.7</ele>
        <time>2019-08-15T10:48:13Z</time>
      </trkpt>
      <trkpt lat="41.8691590" lon="-5.4326490">
        <ele>683.7</ele>
        <time>2019-08-15T10:48:14Z</time>
      </trkpt>
      <trkpt lat="41.8691730" lon="-5.4326870">
        <ele>683.6</ele>
        <time>2019-08-15T10:48:15Z</time>
      </trkpt>
      <trkpt lat="41.8691870" lon="-5.4327290">
        <ele>683.6</ele>
        <time>2019-08-15T10:48:16Z</time>
      </trkpt>
      <trkpt lat="41.8692000" lon="-5.4327750">
        <ele>683.6</ele>
        <time>2019-08-15T10:48:17Z</time>
      </trkpt>
      <trkpt lat="41.8692150" lon="-5.4328260">
        <ele>683.6</ele>
        <time>2019-08-15T10:48:18Z</time>
      </trkpt>
      <trkpt lat="41.8692310" lon="-5.4328800">
        <ele>683.6</ele>
        <time>2019-08-15T10:48:19Z</time>
      </trkpt>
      <trkpt lat="41.8692460" lon="-5.4329360">
        <ele>683.6</ele>
        <time>2019-08-15T10:48:20Z</time>
      </trkpt>
      <trkpt lat="41.8692650" lon="-5.4329920">
        <ele>683.6</ele>
        <time>2019-08-15T10:48:21Z</time>
      </trkpt>
      <trkpt lat="41.8692850" lon="-5.4330480">
        <ele>683.6</ele>
        <time>2019-08-15T10:48:22Z</time>
      </trkpt>
      <trkpt lat="41.8693060" lon="-5.4331030">
        <ele>683.5</ele>
        <time>2019-08-15T10:48:23Z</time>
      </trkpt>
      <trkpt lat="41.8693270" lon="-5.4331590">
        <ele>683.5</ele>
        <time>2019-08-15T10:48:24Z</time>
      </trkpt>
      <trkpt lat="41.8693500" lon="-5.4332160">
        <ele>683.5</ele>
        <time>2019-08-15T10:48:25Z</time>
      </trkpt>
      <trkpt lat="41.8693740" lon="-5.4332720">
        <ele>683.5</ele>
        <time>2019-08-15T10:48:26Z</time>
      </trkpt>
      <trkpt lat="41.8693970" lon="-5.4333300">
        <ele>683.5</ele>
        <time>2019-08-15T10:48:27Z</time>
      </trkpt>
      <trkpt lat="41.8694200" lon="-5.4333880">
        <ele>683.4</ele>
        <time>2019-08-15T10:48:28Z</time>
      </trkpt>
      <trkpt lat="41.8694430" lon="-5.4334420">
        <ele>683.4</ele>
        <time>2019-08-15T10:48:29Z</time>
      </trkpt>
      <trkpt lat="41.8694630" lon="-5.4334950">
        <ele>683.4</ele>
        <time>2019-08-15T10:48:30Z</time>
      </trkpt>
      <trkpt lat="41.8694830" lon="-5.4335480">
        <ele>683.4</ele>
        <time>2019-08-15T10:48:31Z</time>
      </trkpt>
      <trkpt lat="41.8695040" lon="-5.4335970">
        <ele>683.3</ele>
        <time>2019-08-15T10:48:32Z</time>
      </trkpt>
      <trkpt lat="41.8695240" lon="-5.4336450">
        <ele>683.3</ele>
        <time>2019-08-15T10:48:33Z</time>
      </trkpt>
      <trkpt lat="41.8695440" lon="-5.4336930">
        <ele>683.3</ele>
        <time>2019-08-15T10:48:34Z</time>
      </trkpt>
      <trkpt lat="41.8695660" lon="-5.4337360">
        <ele>683.3</ele>
        <time>2019-08-15T10:48:35Z</time>
      </trkpt>
      <trkpt lat="41.8695890" lon="-5.4337780">
        <ele>683.2</ele>
        <time>2019-08-15T10:48:36Z</time>
      </trkpt>
      <trkpt lat="41.8696080" lon="-5.4338180">
        <ele>683.2</ele>
        <time>2019-08-15T10:48:37Z</time>
      </trkpt>
      <trkpt lat="41.8696280" lon="-5.4338560">
        <ele>683.2</ele>
        <time>2019-08-15T10:48:38Z</time>
      </trkpt>
      <trkpt lat="41.8696510" lon="-5.4338940">
        <ele>683.2</ele>
        <time>2019-08-15T10:48:39Z</time>
      </trkpt>
      <trkpt lat="41.8696770" lon="-5.4339330">
        <ele>683.1</ele>
        <time>2019-08-15T10:48:40Z</time>
      </trkpt>
      <trkpt lat="41.8697050" lon="-5.4339730">
        <ele>683.1</ele>
        <time>2019-08-15T10:48:41Z</time>
      </trkpt>
      <trkpt lat="41.8697350" lon="-5.4340130">
        <ele>683.1</ele>
        <time>2019-08-15T10:48:42Z</time>
      </trkpt>
      <trkpt lat="41.8697670" lon="-5.4340520">
        <ele>683.1</ele>
        <time>2019-08-15T10:48:43Z</time>
      </trkpt>
      <trkpt lat="41.8698000" lon="-5.4340920">
        <ele>683.1</ele>
        <time>2019-08-15T10:48:44Z</time>
      </trkpt>
      <trkpt lat="41.8698370" lon="-5.4341290">
        <ele>683.1</ele>
        <time>2019-08-15T10:48:45Z</time>
      </trkpt>
      <trkpt lat="41.8698750" lon="-5.4341620">
        <ele>683.1</ele>
        <time>2019-08-15T10:48:46Z</time>
      </trkpt>
      <trkpt lat="41.8699140" lon="-5.4341920">
        <ele>683.1</ele>
        <time>2019-08-15T10:48:47Z</time>
      </trkpt>
      <trkpt lat="41.8699550" lon="-5.4342150">
        <ele>683.2</ele>
        <time>2019-08-15T10:48:48Z</time>
      </trkpt>
      <trkpt lat="41.8699960" lon="-5.4342360">
        <ele>683.2</ele>
        <time>2019-08-15T10:48:49Z</time>
      </trkpt>
      <trkpt lat="41.8700390" lon="-5.4342600">
        <ele>683.2</ele>
        <time>2019-08-15T10:48:50Z</time>
      </trkpt>
      <trkpt lat="41.8700840" lon="-5.4342810">
        <ele>683.3</ele>
        <time>2019-08-15T10:48:51Z</time>
      </trkpt>
      <trkpt lat="41.8701270" lon="-5.4342980">
        <ele>683.4</ele>
        <time>2019-08-15T10:48:52Z</time>
      </trkpt>
      <trkpt lat="41.8701690" lon="-5.4343140">
        <ele>683.4</ele>
        <time>2019-08-15T10:48:53Z</time>
      </trkpt>
      <trkpt lat="41.8702140" lon="-5.4343330">
        <ele>683.5</ele>
        <time>2019-08-15T10:48:54Z</time>
      </trkpt>
      <trkpt lat="41.8702580" lon="-5.4343520">
        <ele>683.5</ele>
        <time>2019-08-15T10:48:55Z</time>
      </trkpt>
      <trkpt lat="41.8703010" lon="-5.4343700">
        <ele>683.6</ele>
        <time>2019-08-15T10:48:56Z</time>
      </trkpt>
      <trkpt lat="41.8703430" lon="-5.4343890">
        <ele>683.6</ele>
        <time>2019-08-15T10:48:57Z</time>
      </trkpt>
      <trkpt lat="41.8703860" lon="-5.4344090">
        <ele>683.6</ele>
        <time>2019-08-15T10:48:58Z</time>
      </trkpt>
      <trkpt lat="41.8704280" lon="-5.4344260">
        <ele>683.7</ele>
        <time>2019-08-15T10:48:59Z</time>
      </trkpt>
      <trkpt lat="41.8704690" lon="-5.4344410">
        <ele>683.8</ele>
        <time>2019-08-15T10:49:00Z</time>
      </trkpt>
      <trkpt lat="41.8705110" lon="-5.4344570">
        <ele>683.9</ele>
        <time>2019-08-15T10:49:01Z</time>
      </trkpt>
      <trkpt lat="41.8705540" lon="-5.4344750">
        <ele>684.0</ele>
        <time>2019-08-15T10:49:02Z</time>
      </trkpt>
      <trkpt lat="41.8705950" lon="-5.4344970">
        <ele>684.1</ele>
        <time>2019-08-15T10:49:03Z</time>
      </trkpt>
      <trkpt lat="41.8706370" lon="-5.4345220">
        <ele>684.3</ele>
        <time>2019-08-15T10:49:04Z</time>
      </trkpt>
      <trkpt lat="41.8706790" lon="-5.4345510">
        <ele>684.4</ele>
        <time>2019-08-15T10:49:05Z</time>
      </trkpt>
      <trkpt lat="41.8707190" lon="-5.4345860">
        <ele>684.6</ele>
        <time>2019-08-15T10:49:06Z</time>
      </trkpt>
      <trkpt lat="41.8707550" lon="-5.4346260">
        <ele>684.8</ele>
        <time>2019-08-15T10:49:07Z</time>
      </trkpt>
      <trkpt lat="41.8707900" lon="-5.4346700">
        <ele>684.9</ele>
        <time>2019-08-15T10:49:08Z</time>
      </trkpt>
      <trkpt lat="41.8708260" lon="-5.4347170">
        <ele>685.1</ele>
        <time>2019-08-15T10:49:09Z</time>
      </trkpt>
      <trkpt lat="41.8708590" lon="-5.4347670">
        <ele>685.3</ele>
        <time>2019-08-15T10:49:10Z</time>
      </trkpt>
      <trkpt lat="41.8708860" lon="-5.4348190">
        <ele>685.3</ele>
        <time>2019-08-15T10:49:11Z</time>
      </trkpt>
      <trkpt lat="41.8709110" lon="-5.4348730">
        <ele>685.4</ele>
        <time>2019-08-15T10:49:12Z</time>
      </trkpt>
      <trkpt lat="41.8709360" lon="-5.4349310">
        <ele>685.5</ele>
        <time>2019-08-15T10:49:13Z</time>
      </trkpt>
      <trkpt lat="41.8709590" lon="-5.4349910">
        <ele>685.5</ele>
        <time>2019-08-15T10:49:14Z</time>
      </trkpt>
      <trkpt lat="41.8709790" lon="-5.4350520">
        <ele>685.6</ele>
        <time>2019-08-15T10:49:15Z</time>
      </trkpt>
      <trkpt lat="41.8709960" lon="-5.4351230">
        <ele>685.7</ele>
        <time>2019-08-15T10:49:16Z</time>
      </trkpt>
      <trkpt lat="41.8710050" lon="-5.4351940">
        <ele>685.7</ele>
        <time>2019-08-15T10:49:17Z</time>
      </trkpt>
      <trkpt lat="41.8710070" lon="-5.4352640">
        <ele>685.7</ele>
        <time>2019-08-15T10:49:18Z</time>
      </trkpt>
      <trkpt lat="41.8710040" lon="-5.4353280">
        <ele>685.7</ele>
        <time>2019-08-15T10:49:19Z</time>
      </trkpt>
      <trkpt lat="41.8709970" lon="-5.4353900">
        <ele>685.7</ele>
        <time>2019-08-15T10:49:20Z</time>
      </trkpt>
      <trkpt lat="41.8709890" lon="-5.4354460">
        <ele>685.8</ele>
        <time>2019-08-15T10:49:21Z</time>
      </trkpt>
      <trkpt lat="41.8709780" lon="-5.4355000">
        <ele>685.8</ele>
        <time>2019-08-15T10:49:22Z</time>
      </trkpt>
      <trkpt lat="41.8709650" lon="-5.4355570">
        <ele>685.8</ele>
        <time>2019-08-15T10:49:23Z</time>
      </trkpt>
      <trkpt lat="41.8709500" lon="-5.4356170">
        <ele>685.9</ele>
        <time>2019-08-15T10:49:24Z</time>
      </trkpt>
      <trkpt lat="41.8709340" lon="-5.4356790">
        <ele>685.9</ele>
        <time>2019-08-15T10:49:25Z</time>
      </trkpt>
      <trkpt lat="41.8709190" lon="-5.4357390">
        <ele>685.9</ele>
        <time>2019-08-15T10:49:26Z</time>
      </trkpt>
      <trkpt lat="41.8709020" lon="-5.4357990">
        <ele>686.0</ele>
        <time>2019-08-15T10:49:27Z</time>
      </trkpt>
      <trkpt lat="41.8708830" lon="-5.4358620">
        <ele>686.1</ele>
        <time>2019-08-15T10:49:28Z</time>
      </trkpt>
      <trkpt lat="41.8708630" lon="-5.4359200">
        <ele>686.1</ele>
        <time>2019-08-15T10:49:29Z</time>
      </trkpt>
      <trkpt lat="41.8708420" lon="-5.4359780">
        <ele>686.2</ele>
        <time>2019-08-15T10:49:30Z</time>
      </trkpt>
      <trkpt lat="41.8708210" lon="-5.4360330">
        <ele>686.2</ele>
        <time>2019-08-15T10:49:31Z</time>
      </trkpt>
      <trkpt lat="41.8707990" lon="-5.4360830">
        <ele>686.3</ele>
        <time>2019-08-15T10:49:32Z</time>
      </trkpt>
      <trkpt lat="41.8707770" lon="-5.4361380">
        <ele>686.4</ele>
        <time>2019-08-15T10:49:33Z</time>
      </trkpt>
      <trkpt lat="41.8707540" lon="-5.4361970">
        <ele>686.4</ele>
        <time>2019-08-15T10:49:34Z</time>
      </trkpt>
      <trkpt lat="41.8707290" lon="-5.4362550">
        <ele>686.4</ele>
        <time>2019-08-15T10:49:35Z</time>
      </trkpt>
      <trkpt lat="41.8707040" lon="-5.4363110">
        <ele>686.5</ele>
        <time>2019-08-15T10:49:36Z</time>
      </trkpt>
      <trkpt lat="41.8706790" lon="-5.4363680">
        <ele>686.5</ele>
        <time>2019-08-15T10:49:37Z</time>
      </trkpt>
      <trkpt lat="41.8706570" lon="-5.4364170">
        <ele>686.5</ele>
        <time>2019-08-15T10:49:38Z</time>
      </trkpt>
      <trkpt lat="41.8706390" lon="-5.4364650">
        <ele>686.5</ele>
        <time>2019-08-15T10:49:39Z</time>
      </trkpt>
      <trkpt lat="41.8706230" lon="-5.4365140">
        <ele>686.5</ele>
        <time>2019-08-15T10:49:40Z</time>
      </trkpt>
      <trkpt lat="41.8706140" lon="-5.4365630">
        <ele>686.5</ele>
        <time>2019-08-15T10:49:41Z</time>
      </trkpt>
      <trkpt lat="41.8706190" lon="-5.4366060">
        <ele>686.5</ele>
        <time>2019-08-15T10:49:42Z</time>
      </trkpt>
      <trkpt lat="41.8706340" lon="-5.4366500">
        <ele>686.6</ele>
        <time>2019-08-15T10:49:43Z</time>
      </trkpt>
      <trkpt lat="41.8706540" lon="-5.4366900">
        <ele>686.6</ele>
        <time>2019-08-15T10:49:44Z</time>
      </trkpt>
      <trkpt lat="41.8706780" lon="-5.4367320">
        <ele>686.7</ele>
        <time>2019-08-15T10:49:45Z</time>
      </trkpt>
      <trkpt lat="41.8706990" lon="-5.4367730">
        <ele>686.8</ele>
        <time>2019-08-15T10:49:46Z</time>
      </trkpt>
      <trkpt lat="41.8707210" lon="-5.4368160">
        <ele>686.8</ele>
        <time>2019-08-15T10:49:47Z</time>
      </trkpt>
      <trkpt lat="41.8707450" lon="-5.4368610">
        <ele>686.9</ele>
        <time>2019-08-15T10:49:48Z</time>
      </trkpt>
      <trkpt lat="41.8707690" lon="-5.4369060">
        <ele>686.9</ele>
        <time>2019-08-15T10:49:49Z</time>
      </trkpt>
      <trkpt lat="41.8707960" lon="-5.4369520">
        <ele>686.9</ele>
        <time>2019-08-15T10:49:50Z</time>
      </trkpt>
      <trkpt lat="41.8708220" lon="-5.4370000">
        <ele>687.0</ele>
        <time>2019-08-15T10:49:51Z</time>
      </trkpt>
      <trkpt lat="41.8708500" lon="-5.4370480">
        <ele>687.0</ele>
        <time>2019-08-15T10:49:52Z</time>
      </trkpt>
      <trkpt lat="41.8708790" lon="-5.4370990">
        <ele>687.0</ele>
        <time>2019-08-15T10:49:53Z</time>
      </trkpt>
      <trkpt lat="41.8709050" lon="-5.4371470">
        <ele>687.0</ele>
        <time>2019-08-15T10:49:54Z</time>
      </trkpt>
      <trkpt lat="41.8709320" lon="-5.4371930">
        <ele>687.1</ele>
        <time>2019-08-15T10:49:55Z</time>
      </trkpt>
      <trkpt lat="41.8709560" lon="-5.4372380">
        <ele>687.1</ele>
        <time>2019-08-15T10:49:56Z</time>
      </trkpt>
      <trkpt lat="41.8709810" lon="-5.4372860">
        <ele>687.1</ele>
        <time>2019-08-15T10:49:57Z</time>
      </trkpt>
      <trkpt lat="41.8710050" lon="-5.4373330">
        <ele>687.1</ele>
        <time>2019-08-15T10:49:58Z</time>
      </trkpt>
      <trkpt lat="41.8710280" lon="-5.4373780">
        <ele>687.2</ele>
        <time>2019-08-15T10:49:59Z</time>
      </trkpt>
      <trkpt lat="41.8710520" lon="-5.4374200">
        <ele>687.2</ele>
        <time>2019-08-15T10:50:00Z</time>
      </trkpt>
      <trkpt lat="41.8710740" lon="-5.4374610">
        <ele>687.2</ele>
        <time>2019-08-15T10:50:01Z</time>
      </trkpt>
      <trkpt lat="41.8710950" lon="-5.4375020">
        <ele>687.2</ele>
        <time>2019-08-15T10:50:02Z</time>
      </trkpt>
      <trkpt lat="41.8711190" lon="-5.4375450">
        <ele>687.2</ele>
        <time>2019-08-15T10:50:03Z</time>
      </trkpt>
      <trkpt lat="41.8711420" lon="-5.4375890">
        <ele>687.2</ele>
        <time>2019-08-15T10:50:04Z</time>
      </trkpt>
      <trkpt lat="41.8711650" lon="-5.4376340">
        <ele>687.2</ele>
        <time>2019-08-15T10:50:05Z</time>
      </trkpt>
      <trkpt lat="41.8711880" lon="-5.4376790">
        <ele>687.2</ele>
        <time>2019-08-15T10:50:06Z</time>
      </trkpt>
      <trkpt lat="41.8712120" lon="-5.4377280">
        <ele>687.3</ele>
        <time>2019-08-15T10:50:07Z</time>
      </trkpt>
      <trkpt lat="41.8712360" lon="-5.4377730">
        <ele>687.3</ele>
        <time>2019-08-15T10:50:08Z</time>
      </trkpt>
      <trkpt lat="41.8712610" lon="-5.4378180">
        <ele>687.3</ele>
        <time>2019-08-15T10:50:09Z</time>
      </trkpt>
      <trkpt lat="41.8712850" lon="-5.4378660">
        <ele>687.3</ele>
        <time>2019-08-15T10:50:10Z</time>
      </trkpt>
      <trkpt lat="41.8713100" lon="-5.4379130">
        <ele>687.3</ele>
        <time>2019-08-15T10:50:11Z</time>
      </trkpt>
      <trkpt lat="41.8713360" lon="-5.4379580">
        <ele>687.4</ele>
        <time>2019-08-15T10:50:12Z</time>
      </trkpt>
      <trkpt lat="41.8713620" lon="-5.4380050">
        <ele>687.4</ele>
        <time>2019-08-15T10:50:13Z</time>
      </trkpt>
      <trkpt lat="41.8713880" lon="-5.4380520">
        <ele>687.4</ele>
        <time>2019-08-15T10:50:14Z</time>
      </trkpt>
      <trkpt lat="41.8714130" lon="-5.4381000">
        <ele>687.4</ele>
        <time>2019-08-15T10:50:15Z</time>
      </trkpt>
      <trkpt lat="41.8714380" lon="-5.4381460">
        <ele>687.3</ele>
        <time>2019-08-15T10:50:16Z</time>
      </trkpt>
      <trkpt lat="41.8714630" lon="-5.4381950">
        <ele>687.3</ele>
        <time>2019-08-15T10:50:17Z</time>
      </trkpt>
      <trkpt lat="41.8714880" lon="-5.4382450">
        <ele>687.3</ele>
        <time>2019-08-15T10:50:18Z</time>
      </trkpt>
      <trkpt lat="41.8715120" lon="-5.4382940">
        <ele>687.3</ele>
        <time>2019-08-15T10:50:19Z</time>
      </trkpt>
      <trkpt lat="41.8715360" lon="-5.4383440">
        <ele>687.3</ele>
        <time>2019-08-15T10:50:20Z</time>
      </trkpt>
      <trkpt lat="41.8715620" lon="-5.4383930">
        <ele>687.2</ele>
        <time>2019-08-15T10:50:21Z</time>
      </trkpt>
      <trkpt lat="41.8715860" lon="-5.4384410">
        <ele>687.2</ele>
        <time>2019-08-15T10:50:22Z</time>
      </trkpt>
      <trkpt lat="41.8716120" lon="-5.4384910">
        <ele>687.1</ele>
        <time>2019-08-15T10:50:23Z</time>
      </trkpt>
      <trkpt lat="41.8716380" lon="-5.4385410">
        <ele>687.0</ele>
        <time>2019-08-15T10:50:24Z</time>
      </trkpt>
      <trkpt lat="41.8716640" lon="-5.4385910">
        <ele>687.0</ele>
        <time>2019-08-15T10:50:25Z</time>
      </trkpt>
      <trkpt lat="41.8716880" lon="-5.4386410">
        <ele>686.9</ele>
        <time>2019-08-15T10:50:26Z</time>
      </trkpt>
      <trkpt lat="41.8717150" lon="-5.4386910">
        <ele>686.9</ele>
        <time>2019-08-15T10:50:27Z</time>
      </trkpt>
      <trkpt lat="41.8717420" lon="-5.4387380">
        <ele>686.8</ele>
        <time>2019-08-15T10:50:28Z</time>
      </trkpt>
      <trkpt lat="41.8717670" lon="-5.4387870">
        <ele>686.8</ele>
        <time>2019-08-15T10:50:29Z</time>
      </trkpt>
      <trkpt lat="41.8717930" lon="-5.4388350">
        <ele>686.7</ele>
        <time>2019-08-15T10:50:30Z</time>
      </trkpt>
      <trkpt lat="41.8718180" lon="-5.4388820">
        <ele>686.7</ele>
        <time>2019-08-15T10:50:31Z</time>
      </trkpt>
      <trkpt lat="41.8718430" lon="-5.4389310">
        <ele>686.7</ele>
        <time>2019-08-15T10:50:32Z</time>
      </trkpt>
      <trkpt lat="41.8718670" lon="-5.4389780">
        <ele>686.7</ele>
        <time>2019-08-15T10:50:33Z</time>
      </trkpt>
      <trkpt lat="41.8718930" lon="-5.4390250">
        <ele>686.7</ele>
        <time>2019-08-15T10:50:34Z</time>
      </trkpt>
      <trkpt lat="41.8719200" lon="-5.4390730">
        <ele>686.7</ele>
        <time>2019-08-15T10:50:35Z</time>
      </trkpt>
      <trkpt lat="41.8719460" lon="-5.4391180">
        <ele>686.8</ele>
        <time>2019-08-15T10:50:36Z</time>
      </trkpt>
      <trkpt lat="41.8719720" lon="-5.4391640">
        <ele>686.8</ele>
        <time>2019-08-15T10:50:37Z</time>
      </trkpt>
      <trkpt lat="41.8719970" lon="-5.4392110">
        <ele>686.9</ele>
        <time>2019-08-15T10:50:38Z</time>
      </trkpt>
      <trkpt lat="41.8720200" lon="-5.4392580">
        <ele>686.9</ele>
        <time>2019-08-15T10:50:39Z</time>
      </trkpt>
      <trkpt lat="41.8720440" lon="-5.4393040">
        <ele>687.0</ele>
        <time>2019-08-15T10:50:40Z</time>
      </trkpt>
      <trkpt lat="41.8720670" lon="-5.4393500">
        <ele>687.0</ele>
        <time>2019-08-15T10:50:41Z</time>
      </trkpt>
      <trkpt lat="41.8720920" lon="-5.4393960">
        <ele>687.1</ele>
        <time>2019-08-15T10:50:42Z</time>
      </trkpt>
      <trkpt lat="41.8721180" lon="-5.4394420">
        <ele>687.2</ele>
        <time>2019-08-15T10:50:43Z</time>
      </trkpt>
      <trkpt lat="41.8721420" lon="-5.4394920">
        <ele>687.2</ele>
        <time>2019-08-15T10:50:44Z</time>
      </trkpt>
      <trkpt lat="41.8721670" lon="-5.4395410">
        <ele>687.3</ele>
        <time>2019-08-15T10:50:45Z</time>
      </trkpt>
      <trkpt lat="41.8721930" lon="-5.4395900">
        <ele>687.4</ele>
        <time>2019-08-15T10:50:46Z</time>
      </trkpt>
      <trkpt lat="41.8722180" lon="-5.4396380">
        <ele>687.4</ele>
        <time>2019-08-15T10:50:47Z</time>
      </trkpt>
      <trkpt lat="41.8722420" lon="-5.4396870">
        <ele>687.5</ele>
        <time>2019-08-15T10:50:48Z</time>
      </trkpt>
      <trkpt lat="41.8722660" lon="-5.4397350">
        <ele>687.6</ele>
        <time>2019-08-15T10:50:49Z</time>
      </trkpt>
      <trkpt lat="41.8722900" lon="-5.4397820">
        <ele>687.7</ele>
        <time>2019-08-15T10:50:50Z</time>
      </trkpt>
      <trkpt lat="41.8723140" lon="-5.4398270">
        <ele>687.8</ele>
        <time>2019-08-15T10:50:51Z</time>
      </trkpt>
      <trkpt lat="41.8723390" lon="-5.4398720">
        <ele>687.9</ele>
        <time>2019-08-15T10:50:52Z</time>
      </trkpt>
      <trkpt lat="41.8723610" lon="-5.4399170">
        <ele>688.0</ele>
        <time>2019-08-15T10:50:53Z</time>
      </trkpt>
      <trkpt lat="41.8723820" lon="-5.4399630">
        <ele>688.0</ele>
        <time>2019-08-15T10:50:54Z</time>
      </trkpt>
      <trkpt lat="41.8724020" lon="-5.4400080">
        <ele>688.1</ele>
        <time>2019-08-15T10:50:55Z</time>
      </trkpt>
      <trkpt lat="41.8724250" lon="-5.4400510">
        <ele>688.1</ele>
        <time>2019-08-15T10:50:56Z</time>
      </trkpt>
      <trkpt lat="41.8724470" lon="-5.4400930">
        <ele>688.2</ele>
        <time>2019-08-15T10:50:57Z</time>
      </trkpt>
      <trkpt lat="41.8724710" lon="-5.4401380">
        <ele>688.2</ele>
        <time>2019-08-15T10:50:58Z</time>
      </trkpt>
      <trkpt lat="41.8724940" lon="-5.4401810">
        <ele>688.3</ele>
        <time>2019-08-15T10:50:59Z</time>
      </trkpt>
      <trkpt lat="41.8725170" lon="-5.4402250">
        <ele>688.4</ele>
        <time>2019-08-15T10:51:00Z</time>
      </trkpt>
      <trkpt lat="41.8725410" lon="-5.4402670">
        <ele>688.5</ele>
        <time>2019-08-15T10:51:01Z</time>
      </trkpt>
      <trkpt lat="41.8725640" lon="-5.4403090">
        <ele>688.6</ele>
        <time>2019-08-15T10:51:02Z</time>
      </trkpt>
      <trkpt lat="41.8725870" lon="-5.4403510">
        <ele>688.6</ele>
        <time>2019-08-15T10:51:03Z</time>
      </trkpt>
      <trkpt lat="41.8726110" lon="-5.4403920">
        <ele>688.7</ele>
        <time>2019-08-15T10:51:04Z</time>
      </trkpt>
      <trkpt lat="41.8726320" lon="-5.4404370">
        <ele>688.8</ele>
        <time>2019-08-15T10:51:05Z</time>
      </trkpt>
      <trkpt lat="41.8726530" lon="-5.4404820">
        <ele>688.8</ele>
        <time>2019-08-15T10:51:06Z</time>
      </trkpt>
      <trkpt lat="41.8726760" lon="-5.4405220">
        <ele>688.9</ele>
        <time>2019-08-15T10:51:07Z</time>
      </trkpt>
      <trkpt lat="41.8726990" lon="-5.4405620">
        <ele>689.0</ele>
        <time>2019-08-15T10:51:08Z</time>
      </trkpt>
      <trkpt lat="41.8727200" lon="-5.4406040">
        <ele>689.0</ele>
        <time>2019-08-15T10:51:09Z</time>
      </trkpt>
      <trkpt lat="41.8727410" lon="-5.4406470">
        <ele>689.1</ele>
        <time>2019-08-15T10:51:10Z</time>
      </trkpt>
      <trkpt lat="41.8727640" lon="-5.4406890">
        <ele>689.2</ele>
        <time>2019-08-15T10:51:11Z</time>
      </trkpt>
      <trkpt lat="41.8727850" lon="-5.4407310">
        <ele>689.2</ele>
        <time>2019-08-15T10:51:12Z</time>
      </trkpt>
      <trkpt lat="41.8728050" lon="-5.4407720">
        <ele>689.3</ele>
        <time>2019-08-15T10:51:13Z</time>
      </trkpt>
      <trkpt lat="41.8728270" lon="-5.4408120">
        <ele>689.4</ele>
        <time>2019-08-15T10:51:14Z</time>
      </trkpt>
      <trkpt lat="41.8728460" lon="-5.4408510">
        <ele>689.4</ele>
        <time>2019-08-15T10:51:15Z</time>
      </trkpt>
      <trkpt lat="41.8728640" lon="-5.4408930">
        <ele>689.5</ele>
        <time>2019-08-15T10:51:16Z</time>
      </trkpt>
      <trkpt lat="41.8728850" lon="-5.4409330">
        <ele>689.6</ele>
        <time>2019-08-15T10:51:17Z</time>
      </trkpt>
      <trkpt lat="41.8729050" lon="-5.4409700">
        <ele>689.8</ele>
        <time>2019-08-15T10:51:18Z</time>
      </trkpt>
      <trkpt lat="41.8729240" lon="-5.4410080">
        <ele>689.9</ele>
        <time>2019-08-15T10:51:19Z</time>
      </trkpt>
      <trkpt lat="41.8729420" lon="-5.4410430">
        <ele>690.0</ele>
        <time>2019-08-15T10:51:20Z</time>
      </trkpt>
      <trkpt lat="41.8729610" lon="-5.4410790">
        <ele>690.0</ele>
        <time>2019-08-15T10:51:21Z</time>
      </trkpt>
      <trkpt lat="41.8729790" lon="-5.4411130">
        <ele>690.1</ele>
        <time>2019-08-15T10:51:22Z</time>
      </trkpt>
      <trkpt lat="41.8729970" lon="-5.4411430">
        <ele>690.2</ele>
        <time>2019-08-15T10:51:23Z</time>
      </trkpt>
      <trkpt lat="41.8730130" lon="-5.4411730">
        <ele>690.3</ele>
        <time>2019-08-15T10:51:24Z</time>
      </trkpt>
      <trkpt lat="41.8730430" lon="-5.4412290">
        <ele>690.6</ele>
        <time>2019-08-15T10:51:26Z</time>
      </trkpt>
      <trkpt lat="41.8730730" lon="-5.4412850">
        <ele>690.8</ele>
        <time>2019-08-15T10:51:28Z</time>
      </trkpt>
      <trkpt lat="41.8731030" lon="-5.4413430">
        <ele>691.1</ele>
        <time>2019-08-15T10:51:30Z</time>
      </trkpt>
      <trkpt lat="41.8731350" lon="-5.4414020">
        <ele>691.4</ele>
        <time>2019-08-15T10:51:32Z</time>
      </trkpt>
      <trkpt lat="41.8731520" lon="-5.4414320">
        <ele>691.5</ele>
        <time>2019-08-15T10:51:33Z</time>
      </trkpt>
      <trkpt lat="41.8731670" lon="-5.4414610">
        <ele>691.6</ele>
        <time>2019-08-15T10:51:34Z</time>
      </trkpt>
      <trkpt lat="41.8732010" lon="-5.4415180">
        <ele>691.8</ele>
        <time>2019-08-15T10:51:36Z</time>
      </trkpt>
      <trkpt lat="41.8732170" lon="-5.4415470">
        <ele>691.8</ele>
        <time>2019-08-15T10:51:37Z</time>
      </trkpt>
      <trkpt lat="41.8732500" lon="-5.4416030">
        <ele>692.0</ele>
        <time>2019-08-15T10:51:39Z</time>
      </trkpt>
      <trkpt lat="41.8732660" lon="-5.4416310">
        <ele>692.0</ele>
        <time>2019-08-15T10:51:40Z</time>
      </trkpt>
      <trkpt lat="41.8732970" lon="-5.4416870">
        <ele>692.1</ele>
        <time>2019-08-15T10:51:42Z</time>
      </trkpt>
      <trkpt lat="41.8733310" lon="-5.4417450">
        <ele>692.1</ele>
        <time>2019-08-15T10:51:44Z</time>
      </trkpt>
      <trkpt lat="41.8733480" lon="-5.4417760">
        <ele>692.2</ele>
        <time>2019-08-15T10:51:45Z</time>
      </trkpt>
      <trkpt lat="41.8733620" lon="-5.4418070">
        <ele>692.2</ele>
        <time>2019-08-15T10:51:46Z</time>
      </trkpt>
      <trkpt lat="41.8733780" lon="-5.4418380">
        <ele>692.2</ele>
        <time>2019-08-15T10:51:47Z</time>
      </trkpt>
      <trkpt lat="41.8733940" lon="-5.4418680">
        <ele>692.2</ele>
        <time>2019-08-15T10:51:48Z</time>
      </trkpt>
      <trkpt lat="41.8734110" lon="-5.4418980">
        <ele>692.2</ele>
        <time>2019-08-15T10:51:49Z</time>
      </trkpt>
      <trkpt lat="41.8734260" lon="-5.4419280">
        <ele>692.2</ele>
        <time>2019-08-15T10:51:50Z</time>
      </trkpt>
      <trkpt lat="41.8734590" lon="-5.4419900">
        <ele>692.2</ele>
        <time>2019-08-15T10:51:52Z</time>
      </trkpt>
      <trkpt lat="41.8734760" lon="-5.4420240">
        <ele>692.3</ele>
        <time>2019-08-15T10:51:53Z</time>
      </trkpt>
      <trkpt lat="41.8734930" lon="-5.4420550">
        <ele>692.3</ele>
        <time>2019-08-15T10:51:54Z</time>
      </trkpt>
      <trkpt lat="41.8735100" lon="-5.4420860">
        <ele>692.3</ele>
        <time>2019-08-15T10:51:55Z</time>
      </trkpt>
      <trkpt lat="41.8735270" lon="-5.4421170">
        <ele>692.3</ele>
        <time>2019-08-15T10:51:56Z</time>
      </trkpt>
      <trkpt lat="41.8735450" lon="-5.4421480">
        <ele>692.3</ele>
        <time>2019-08-15T10:51:57Z</time>
      </trkpt>
      <trkpt lat="41.8735620" lon="-5.4421810">
        <ele>692.3</ele>
        <time>2019-08-15T10:51:58Z</time>
      </trkpt>
      <trkpt lat="41.8735800" lon="-5.4422170">
        <ele>692.4</ele>
        <time>2019-08-15T10:51:59Z</time>
      </trkpt>
      <trkpt lat="41.8735990" lon="-5.4422530">
        <ele>692.4</ele>
        <time>2019-08-15T10:52:00Z</time>
      </trkpt>
      <trkpt lat="41.8736190" lon="-5.4422900">
        <ele>692.4</ele>
        <time>2019-08-15T10:52:01Z</time>
      </trkpt>
      <trkpt lat="41.8736400" lon="-5.4423280">
        <ele>692.4</ele>
        <time>2019-08-15T10:52:02Z</time>
      </trkpt>
      <trkpt lat="41.8736600" lon="-5.4423650">
        <ele>692.5</ele>
        <time>2019-08-15T10:52:03Z</time>
      </trkpt>
      <trkpt lat="41.8736800" lon="-5.4424030">
        <ele>692.5</ele>
        <time>2019-08-15T10:52:04Z</time>
      </trkpt>
      <trkpt lat="41.8737010" lon="-5.4424430">
        <ele>692.5</ele>
        <time>2019-08-15T10:52:05Z</time>
      </trkpt>
      <trkpt lat="41.8737210" lon="-5.4424820">
        <ele>692.6</ele>
        <time>2019-08-15T10:52:06Z</time>
      </trkpt>
      <trkpt lat="41.8737400" lon="-5.4425200">
        <ele>692.6</ele>
        <time>2019-08-15T10:52:07Z</time>
      </trkpt>
      <trkpt lat="41.8737590" lon="-5.4425580">
        <ele>692.6</ele>
        <time>2019-08-15T10:52:08Z</time>
      </trkpt>
      <trkpt lat="41.8737790" lon="-5.4425970">
        <ele>692.6</ele>
        <time>2019-08-15T10:52:09Z</time>
      </trkpt>
      <trkpt lat="41.8737990" lon="-5.4426370">
        <ele>692.7</ele>
        <time>2019-08-15T10:52:10Z</time>
      </trkpt>
      <trkpt lat="41.8738200" lon="-5.4426790">
        <ele>692.7</ele>
        <time>2019-08-15T10:52:11Z</time>
      </trkpt>
      <trkpt lat="41.8738400" lon="-5.4427190">
        <ele>692.7</ele>
        <time>2019-08-15T10:52:12Z</time>
      </trkpt>
      <trkpt lat="41.8738610" lon="-5.4427600">
        <ele>692.7</ele>
        <time>2019-08-15T10:52:13Z</time>
      </trkpt>
      <trkpt lat="41.8738830" lon="-5.4428000">
        <ele>692.7</ele>
        <time>2019-08-15T10:52:14Z</time>
      </trkpt>
      <trkpt lat="41.8739020" lon="-5.4428380">
        <ele>692.8</ele>
        <time>2019-08-15T10:52:15Z</time>
      </trkpt>
      <trkpt lat="41.8739220" lon="-5.4428760">
        <ele>692.8</ele>
        <time>2019-08-15T10:52:16Z</time>
      </trkpt>
      <trkpt lat="41.8739420" lon="-5.4429130">
        <ele>692.8</ele>
        <time>2019-08-15T10:52:17Z</time>
      </trkpt>
      <trkpt lat="41.8739610" lon="-5.4429550">
        <ele>692.8</ele>
        <time>2019-08-15T10:52:18Z</time>
      </trkpt>
      <trkpt lat="41.8739820" lon="-5.4429980">
        <ele>692.9</ele>
        <time>2019-08-15T10:52:19Z</time>
      </trkpt>
      <trkpt lat="41.8740040" lon="-5.4430420">
        <ele>693.0</ele>
        <time>2019-08-15T10:52:20Z</time>
      </trkpt>
      <trkpt lat="41.8740290" lon="-5.4430880">
        <ele>693.0</ele>
        <time>2019-08-15T10:52:21Z</time>
      </trkpt>
      <trkpt lat="41.8740540" lon="-5.4431360">
        <ele>693.1</ele>
        <time>2019-08-15T10:52:22Z</time>
      </trkpt>
      <trkpt lat="41.8740770" lon="-5.4431820">
        <ele>693.1</ele>
        <time>2019-08-15T10:52:23Z</time>
      </trkpt>
      <trkpt lat="41.8741030" lon="-5.4432240">
        <ele>693.2</ele>
        <time>2019-08-15T10:52:24Z</time>
      </trkpt>
      <trkpt lat="41.8741280" lon="-5.4432690">
        <ele>693.3</ele>
        <time>2019-08-15T10:52:25Z</time>
      </trkpt>
      <trkpt lat="41.8741520" lon="-5.4433140">
        <ele>693.4</ele>
        <time>2019-08-15T10:52:26Z</time>
      </trkpt>
      <trkpt lat="41.8741740" lon="-5.4433550">
        <ele>693.6</ele>
        <time>2019-08-15T10:52:27Z</time>
      </trkpt>
      <trkpt lat="41.8741970" lon="-5.4433960">
        <ele>693.7</ele>
        <time>2019-08-15T10:52:28Z</time>
      </trkpt>
      <trkpt lat="41.8742220" lon="-5.4434440">
        <ele>693.8</ele>
        <time>2019-08-15T10:52:29Z</time>
      </trkpt>
      <trkpt lat="41.8742490" lon="-5.4434950">
        <ele>694.0</ele>
        <time>2019-08-15T10:52:30Z</time>
      </trkpt>
      <trkpt lat="41.8742750" lon="-5.4435450">
        <ele>694.2</ele>
        <time>2019-08-15T10:52:31Z</time>
      </trkpt>
      <trkpt lat="41.8743030" lon="-5.4435940">
        <ele>694.4</ele>
        <time>2019-08-15T10:52:32Z</time>
      </trkpt>
      <trkpt lat="41.8743300" lon="-5.4436410">
        <ele>694.5</ele>
        <time>2019-08-15T10:52:33Z</time>
      </trkpt>
      <trkpt lat="41.8743530" lon="-5.4436870">
        <ele>694.6</ele>
        <time>2019-08-15T10:52:34Z</time>
      </trkpt>
      <trkpt lat="41.8743770" lon="-5.4437320">
        <ele>694.8</ele>
        <time>2019-08-15T10:52:35Z</time>
      </trkpt>
      <trkpt lat="41.8744010" lon="-5.4437810">
        <ele>695.0</ele>
        <time>2019-08-15T10:52:36Z</time>
      </trkpt>
      <trkpt lat="41.8744260" lon="-5.4438300">
        <ele>695.3</ele>
        <time>2019-08-15T10:52:37Z</time>
      </trkpt>
      <trkpt lat="41.8744490" lon="-5.4438770">
        <ele>695.5</ele>
        <time>2019-08-15T10:52:38Z</time>
      </trkpt>
      <trkpt lat="41.8744730" lon="-5.4439240">
        <ele>695.6</ele>
        <time>2019-08-15T10:52:39Z</time>
      </trkpt>
      <trkpt lat="41.8744970" lon="-5.4439690">
        <ele>695.8</ele>
        <time>2019-08-15T10:52:40Z</time>
      </trkpt>
      <trkpt lat="41.8745210" lon="-5.4440150">
        <ele>695.9</ele>
        <time>2019-08-15T10:52:41Z</time>
      </trkpt>
      <trkpt lat="41.8745450" lon="-5.4440600">
        <ele>696.1</ele>
        <time>2019-08-15T10:52:42Z</time>
      </trkpt>
      <trkpt lat="41.8745690" lon="-5.4441050">
        <ele>696.2</ele>
        <time>2019-08-15T10:52:43Z</time>
      </trkpt>
      <trkpt lat="41.8745900" lon="-5.4441510">
        <ele>696.3</ele>
        <time>2019-08-15T10:52:44Z</time>
      </trkpt>
      <trkpt lat="41.8746130" lon="-5.4441980">
        <ele>696.5</ele>
        <time>2019-08-15T10:52:45Z</time>
      </trkpt>
      <trkpt lat="41.8746380" lon="-5.4442430">
        <ele>696.6</ele>
        <time>2019-08-15T10:52:46Z</time>
      </trkpt>
      <trkpt lat="41.8746620" lon="-5.4442890">
        <ele>696.7</ele>
        <time>2019-08-15T10:52:47Z</time>
      </trkpt>
      <trkpt lat="41.8746870" lon="-5.4443360">
        <ele>696.9</ele>
        <time>2019-08-15T10:52:48Z</time>
      </trkpt>
      <trkpt lat="41.8747130" lon="-5.4443830">
        <ele>697.0</ele>
        <time>2019-08-15T10:52:49Z</time>
      </trkpt>
      <trkpt lat="41.8747360" lon="-5.4444290">
        <ele>697.0</ele>
        <time>2019-08-15T10:52:50Z</time>
      </trkpt>
      <trkpt lat="41.8747570" lon="-5.4444790">
        <ele>697.0</ele>
        <time>2019-08-15T10:52:51Z</time>
      </trkpt>
      <trkpt lat="41.8747790" lon="-5.4445280">
        <ele>697.1</ele>
        <time>2019-08-15T10:52:52Z</time>
      </trkpt>
      <trkpt lat="41.8748010" lon="-5.4445710">
        <ele>697.1</ele>
        <time>2019-08-15T10:52:53Z</time>
      </trkpt>
      <trkpt lat="41.8748260" lon="-5.4446160">
        <ele>697.2</ele>
        <time>2019-08-15T10:52:54Z</time>
      </trkpt>
      <trkpt lat="41.8748500" lon="-5.4446580">
        <ele>697.2</ele>
        <time>2019-08-15T10:52:55Z</time>
      </trkpt>
      <trkpt lat="41.8748740" lon="-5.4447030">
        <ele>697.2</ele>
        <time>2019-08-15T10:52:56Z</time>
      </trkpt>
      <trkpt lat="41.8749000" lon="-5.4447480">
        <ele>697.2</ele>
        <time>2019-08-15T10:52:57Z</time>
      </trkpt>
      <trkpt lat="41.8749270" lon="-5.4447940">
        <ele>697.2</ele>
        <time>2019-08-15T10:52:58Z</time>
      </trkpt>
      <trkpt lat="41.8749510" lon="-5.4448400">
        <ele>697.3</ele>
        <time>2019-08-15T10:52:59Z</time>
      </trkpt>
      <trkpt lat="41.8749740" lon="-5.4448870">
        <ele>697.3</ele>
        <time>2019-08-15T10:53:00Z</time>
      </trkpt>
      <trkpt lat="41.8749990" lon="-5.4449340">
        <ele>697.3</ele>
        <time>2019-08-15T10:53:01Z</time>
      </trkpt>
      <trkpt lat="41.8750240" lon="-5.4449790">
        <ele>697.3</ele>
        <time>2019-08-15T10:53:02Z</time>
      </trkpt>
      <trkpt lat="41.8750500" lon="-5.4450250">
        <ele>697.4</ele>
        <time>2019-08-15T10:53:03Z</time>
      </trkpt>
      <trkpt lat="41.8750750" lon="-5.4450720">
        <ele>697.5</ele>
        <time>2019-08-15T10:53:04Z</time>
      </trkpt>
      <trkpt lat="41.8750980" lon="-5.4451190">
        <ele>697.5</ele>
        <time>2019-08-15T10:53:05Z</time>
      </trkpt>
      <trkpt lat="41.8751200" lon="-5.4451650">
        <ele>697.6</ele>
        <time>2019-08-15T10:53:06Z</time>
      </trkpt>
      <trkpt lat="41.8751440" lon="-5.4452120">
        <ele>697.6</ele>
        <time>2019-08-15T10:53:07Z</time>
      </trkpt>
      <trkpt lat="41.8751680" lon="-5.4452580">
        <ele>697.7</ele>
        <time>2019-08-15T10:53:08Z</time>
      </trkpt>
      <trkpt lat="41.8751920" lon="-5.4453030">
        <ele>697.7</ele>
        <time>2019-08-15T10:53:09Z</time>
      </trkpt>
      <trkpt lat="41.8752170" lon="-5.4453500">
        <ele>697.8</ele>
        <time>2019-08-15T10:53:10Z</time>
      </trkpt>
      <trkpt lat="41.8752410" lon="-5.4453960">
        <ele>697.8</ele>
        <time>2019-08-15T10:53:11Z</time>
      </trkpt>
      <trkpt lat="41.8752660" lon="-5.4454430">
        <ele>697.9</ele>
        <time>2019-08-15T10:53:12Z</time>
      </trkpt>
      <trkpt lat="41.8752900" lon="-5.4454880">
        <ele>697.9</ele>
        <time>2019-08-15T10:53:13Z</time>
      </trkpt>
      <trkpt lat="41.8753130" lon="-5.4455330">
        <ele>697.9</ele>
        <time>2019-08-15T10:53:14Z</time>
      </trkpt>
      <trkpt lat="41.8753360" lon="-5.4455780">
        <ele>698.0</ele>
        <time>2019-08-15T10:53:15Z</time>
      </trkpt>
      <trkpt lat="41.8753600" lon="-5.4456240">
        <ele>698.0</ele>
        <time>2019-08-15T10:53:16Z</time>
      </trkpt>
      <trkpt lat="41.8753850" lon="-5.4456710">
        <ele>698.0</ele>
        <time>2019-08-15T10:53:17Z</time>
      </trkpt>
      <trkpt lat="41.8754080" lon="-5.4457160">
        <ele>698.0</ele>
        <time>2019-08-15T10:53:18Z</time>
      </trkpt>
      <trkpt lat="41.8754320" lon="-5.4457620">
        <ele>698.0</ele>
        <time>2019-08-15T10:53:19Z</time>
      </trkpt>
      <trkpt lat="41.8754550" lon="-5.4458070">
        <ele>698.0</ele>
        <time>2019-08-15T10:53:20Z</time>
      </trkpt>
      <trkpt lat="41.8754770" lon="-5.4458520">
        <ele>698.1</ele>
        <time>2019-08-15T10:53:21Z</time>
      </trkpt>
      <trkpt lat="41.8755000" lon="-5.4458960">
        <ele>698.1</ele>
        <time>2019-08-15T10:53:22Z</time>
      </trkpt>
      <trkpt lat="41.8755240" lon="-5.4459390">
        <ele>698.1</ele>
        <time>2019-08-15T10:53:23Z</time>
      </trkpt>
      <trkpt lat="41.8755470" lon="-5.4459820">
        <ele>698.1</ele>
        <time>2019-08-15T10:53:24Z</time>
      </trkpt>
      <trkpt lat="41.8755690" lon="-5.4460240">
        <ele>698.1</ele>
        <time>2019-08-15T10:53:25Z</time>
      </trkpt>
      <trkpt lat="41.8755900" lon="-5.4460690">
        <ele>698.1</ele>
        <time>2019-08-15T10:53:26Z</time>
      </trkpt>
      <trkpt lat="41.8756120" lon="-5.4461130">
        <ele>698.1</ele>
        <time>2019-08-15T10:53:27Z</time>
      </trkpt>
      <trkpt lat="41.8756350" lon="-5.4461570">
        <ele>698.1</ele>
        <time>2019-08-15T10:53:28Z</time>
      </trkpt>
      <trkpt lat="41.8756570" lon="-5.4461990">
        <ele>698.1</ele>
        <time>2019-08-15T10:53:29Z</time>
      </trkpt>
      <trkpt lat="41.8756790" lon="-5.4462430">
        <ele>698.1</ele>
        <time>2019-08-15T10:53:30Z</time>
      </trkpt>
      <trkpt lat="41.8757020" lon="-5.4462880">
        <ele>698.2</ele>
        <time>2019-08-15T10:53:31Z</time>
      </trkpt>
      <trkpt lat="41.8757250" lon="-5.4463320">
        <ele>698.2</ele>
        <time>2019-08-15T10:53:32Z</time>
      </trkpt>
      <trkpt lat="41.8757500" lon="-5.4463750">
        <ele>698.2</ele>
        <time>2019-08-15T10:53:33Z</time>
      </trkpt>
      <trkpt lat="41.8757740" lon="-5.4464190">
        <ele>698.3</ele>
        <time>2019-08-15T10:53:34Z</time>
      </trkpt>
      <trkpt lat="41.8757970" lon="-5.4464640">
        <ele>698.3</ele>
        <time>2019-08-15T10:53:35Z</time>
      </trkpt>
      <trkpt lat="41.8758210" lon="-5.4465100">
        <ele>698.3</ele>
        <time>2019-08-15T10:53:36Z</time>
      </trkpt>
      <trkpt lat="41.8758460" lon="-5.4465530">
        <ele>698.3</ele>
        <time>2019-08-15T10:53:37Z</time>
      </trkpt>
      <trkpt lat="41.8758710" lon="-5.4465960">
        <ele>698.3</ele>
        <time>2019-08-15T10:53:38Z</time>
      </trkpt>
      <trkpt lat="41.8758950" lon="-5.4466380">
        <ele>698.4</ele>
        <time>2019-08-15T10:53:39Z</time>
      </trkpt>
      <trkpt lat="41.8759190" lon="-5.4466800">
        <ele>698.4</ele>
        <time>2019-08-15T10:53:40Z</time>
      </trkpt>
      <trkpt lat="41.8759410" lon="-5.4467240">
        <ele>698.4</ele>
        <time>2019-08-15T10:53:41Z</time>
      </trkpt>
      <trkpt lat="41.8759630" lon="-5.4467680">
        <ele>698.4</ele>
        <time>2019-08-15T10:53:42Z</time>
      </trkpt>
      <trkpt lat="41.8759860" lon="-5.4468150">
        <ele>698.4</ele>
        <time>2019-08-15T10:53:43Z</time>
      </trkpt>
      <trkpt lat="41.8760100" lon="-5.4468600">
        <ele>698.4</ele>
        <time>2019-08-15T10:53:44Z</time>
      </trkpt>
      <trkpt lat="41.8760330" lon="-5.4469040">
        <ele>698.5</ele>
        <time>2019-08-15T10:53:45Z</time>
      </trkpt>
      <trkpt lat="41.8760570" lon="-5.4469500">
        <ele>698.5</ele>
        <time>2019-08-15T10:53:46Z</time>
      </trkpt>
      <trkpt lat="41.8760830" lon="-5.4469980">
        <ele>698.5</ele>
        <time>2019-08-15T10:53:47Z</time>
      </trkpt>
      <trkpt lat="41.8761080" lon="-5.4470440">
        <ele>698.5</ele>
        <time>2019-08-15T10:53:48Z</time>
      </trkpt>
      <trkpt lat="41.8761330" lon="-5.4470900">
        <ele>698.6</ele>
        <time>2019-08-15T10:53:49Z</time>
      </trkpt>
      <trkpt lat="41.8761590" lon="-5.4471360">
        <ele>698.6</ele>
        <time>2019-08-15T10:53:50Z</time>
      </trkpt>
      <trkpt lat="41.8761820" lon="-5.4471850">
        <ele>698.6</ele>
        <time>2019-08-15T10:53:51Z</time>
      </trkpt>
      <trkpt lat="41.8762040" lon="-5.4472330">
        <ele>698.7</ele>
        <time>2019-08-15T10:53:52Z</time>
      </trkpt>
      <trkpt lat="41.8762290" lon="-5.4472780">
        <ele>698.8</ele>
        <time>2019-08-15T10:53:53Z</time>
      </trkpt>
      <trkpt lat="41.8762530" lon="-5.4473240">
        <ele>698.9</ele>
        <time>2019-08-15T10:53:54Z</time>
      </trkpt>
      <trkpt lat="41.8762770" lon="-5.4473700">
        <ele>698.9</ele>
        <time>2019-08-15T10:53:55Z</time>
      </trkpt>
      <trkpt lat="41.8763020" lon="-5.4474180">
        <ele>698.9</ele>
        <time>2019-08-15T10:53:56Z</time>
      </trkpt>
      <trkpt lat="41.8763280" lon="-5.4474650">
        <ele>698.9</ele>
        <time>2019-08-15T10:53:57Z</time>
      </trkpt>
      <trkpt lat="41.8763530" lon="-5.4475150">
        <ele>698.9</ele>
        <time>2019-08-15T10:53:58Z</time>
      </trkpt>
      <trkpt lat="41.8763770" lon="-5.4475640">
        <ele>699.1</ele>
        <time>2019-08-15T10:53:59Z</time>
      </trkpt>
      <trkpt lat="41.8764000" lon="-5.4476090">
        <ele>699.2</ele>
        <time>2019-08-15T10:54:00Z</time>
      </trkpt>
      <trkpt lat="41.8764260" lon="-5.4476570">
        <ele>699.3</ele>
        <time>2019-08-15T10:54:01Z</time>
      </trkpt>
      <trkpt lat="41.8764520" lon="-5.4477060">
        <ele>699.4</ele>
        <time>2019-08-15T10:54:02Z</time>
      </trkpt>
      <trkpt lat="41.8764780" lon="-5.4477550">
        <ele>699.5</ele>
        <time>2019-08-15T10:54:03Z</time>
      </trkpt>
      <trkpt lat="41.8765040" lon="-5.4478080">
        <ele>699.5</ele>
        <time>2019-08-15T10:54:04Z</time>
      </trkpt>
      <trkpt lat="41.8765290" lon="-5.4478580">
        <ele>699.7</ele>
        <time>2019-08-15T10:54:05Z</time>
      </trkpt>
      <trkpt lat="41.8765540" lon="-5.4479080">
        <ele>699.9</ele>
        <time>2019-08-15T10:54:06Z</time>
      </trkpt>
      <trkpt lat="41.8765780" lon="-5.4479560">
        <ele>700.0</ele>
        <time>2019-08-15T10:54:07Z</time>
      </trkpt>
      <trkpt lat="41.8766020" lon="-5.4480040">
        <ele>700.0</ele>
        <time>2019-08-15T10:54:08Z</time>
      </trkpt>
      <trkpt lat="41.8766250" lon="-5.4480480">
        <ele>700.2</ele>
        <time>2019-08-15T10:54:09Z</time>
      </trkpt>
      <trkpt lat="41.8766480" lon="-5.4480880">
        <ele>700.4</ele>
        <time>2019-08-15T10:54:10Z</time>
      </trkpt>
      <trkpt lat="41.8766720" lon="-5.4481300">
        <ele>700.6</ele>
        <time>2019-08-15T10:54:11Z</time>
      </trkpt>
      <trkpt lat="41.8766980" lon="-5.4481760">
        <ele>700.8</ele>
        <time>2019-08-15T10:54:12Z</time>
      </trkpt>
      <trkpt lat="41.8767260" lon="-5.4482240">
        <ele>700.9</ele>
        <time>2019-08-15T10:54:13Z</time>
      </trkpt>
      <trkpt lat="41.8767540" lon="-5.4482750">
        <ele>701.0</ele>
        <time>2019-08-15T10:54:14Z</time>
      </trkpt>
      <trkpt lat="41.8767790" lon="-5.4483270">
        <ele>701.2</ele>
        <time>2019-08-15T10:54:15Z</time>
      </trkpt>
      <trkpt lat="41.8768030" lon="-5.4483780">
        <ele>701.3</ele>
        <time>2019-08-15T10:54:16Z</time>
      </trkpt>
      <trkpt lat="41.8768260" lon="-5.4484260">
        <ele>701.4</ele>
        <time>2019-08-15T10:54:17Z</time>
      </trkpt>
      <trkpt lat="41.8768510" lon="-5.4484710">
        <ele>701.4</ele>
        <time>2019-08-15T10:54:18Z</time>
      </trkpt>
      <trkpt lat="41.8768790" lon="-5.4485180">
        <ele>701.5</ele>
        <time>2019-08-15T10:54:19Z</time>
      </trkpt>
      <trkpt lat="41.8769080" lon="-5.4485670">
        <ele>701.5</ele>
        <time>2019-08-15T10:54:20Z</time>
      </trkpt>
      <trkpt lat="41.8769360" lon="-5.4486140">
        <ele>701.6</ele>
        <time>2019-08-15T10:54:21Z</time>
      </trkpt>
      <trkpt lat="41.8769630" lon="-5.4486600">
        <ele>701.7</ele>
        <time>2019-08-15T10:54:22Z</time>
      </trkpt>
      <trkpt lat="41.8769900" lon="-5.4487070">
        <ele>701.7</ele>
        <time>2019-08-15T10:54:23Z</time>
      </trkpt>
      <trkpt lat="41.8770150" lon="-5.4487550">
        <ele>701.6</ele>
        <time>2019-08-15T10:54:24Z</time>
      </trkpt>
      <trkpt lat="41.8770400" lon="-5.4488020">
        <ele>701.6</ele>
        <time>2019-08-15T10:54:25Z</time>
      </trkpt>
      <trkpt lat="41.8770650" lon="-5.4488490">
        <ele>701.6</ele>
        <time>2019-08-15T10:54:26Z</time>
      </trkpt>
      <trkpt lat="41.8770930" lon="-5.4488950">
        <ele>701.7</ele>
        <time>2019-08-15T10:54:27Z</time>
      </trkpt>
      <trkpt lat="41.8771180" lon="-5.4489390">
        <ele>701.7</ele>
        <time>2019-08-15T10:54:28Z</time>
      </trkpt>
      <trkpt lat="41.8771430" lon="-5.4489820">
        <ele>701.8</ele>
        <time>2019-08-15T10:54:29Z</time>
      </trkpt>
      <trkpt lat="41.8771680" lon="-5.4490220">
        <ele>701.8</ele>
        <time>2019-08-15T10:54:30Z</time>
      </trkpt>
      <trkpt lat="41.8771940" lon="-5.4490640">
        <ele>701.8</ele>
        <time>2019-08-15T10:54:31Z</time>
      </trkpt>
      <trkpt lat="41.8772180" lon="-5.4491060">
        <ele>701.9</ele>
        <time>2019-08-15T10:54:32Z</time>
      </trkpt>
      <trkpt lat="41.8772450" lon="-5.4491480">
        <ele>702.0</ele>
        <time>2019-08-15T10:54:33Z</time>
      </trkpt>
      <trkpt lat="41.8772700" lon="-5.4491860">
        <ele>702.1</ele>
        <time>2019-08-15T10:54:34Z</time>
      </trkpt>
      <trkpt lat="41.8772940" lon="-5.4492260">
        <ele>702.2</ele>
        <time>2019-08-15T10:54:35Z</time>
      </trkpt>
      <trkpt lat="41.8773190" lon="-5.4492630">
        <ele>702.3</ele>
        <time>2019-08-15T10:54:36Z</time>
      </trkpt>
      <trkpt lat="41.8773440" lon="-5.4493010">
        <ele>702.3</ele>
        <time>2019-08-15T10:54:37Z</time>
      </trkpt>
      <trkpt lat="41.8773670" lon="-5.4493390">
        <ele>702.4</ele>
        <time>2019-08-15T10:54:38Z</time>
      </trkpt>
      <trkpt lat="41.8773910" lon="-5.4493790">
        <ele>702.3</ele>
        <time>2019-08-15T10:54:39Z</time>
      </trkpt>
      <trkpt lat="41.8774160" lon="-5.4494170">
        <ele>702.3</ele>
        <time>2019-08-15T10:54:40Z</time>
      </trkpt>
      <trkpt lat="41.8774400" lon="-5.4494570">
        <ele>702.4</ele>
        <time>2019-08-15T10:54:41Z</time>
      </trkpt>
      <trkpt lat="41.8774670" lon="-5.4494940">
        <ele>702.4</ele>
        <time>2019-08-15T10:54:42Z</time>
      </trkpt>
      <trkpt lat="41.8774910" lon="-5.4495330">
        <ele>702.4</ele>
        <time>2019-08-15T10:54:43Z</time>
      </trkpt>
      <trkpt lat="41.8775150" lon="-5.4495720">
        <ele>702.5</ele>
        <time>2019-08-15T10:54:44Z</time>
      </trkpt>
      <trkpt lat="41.8775380" lon="-5.4496120">
        <ele>702.5</ele>
        <time>2019-08-15T10:54:45Z</time>
      </trkpt>
      <trkpt lat="41.8775630" lon="-5.4496510">
        <ele>702.6</ele>
        <time>2019-08-15T10:54:46Z</time>
      </trkpt>
      <trkpt lat="41.8775870" lon="-5.4496900">
        <ele>702.6</ele>
        <time>2019-08-15T10:54:47Z</time>
      </trkpt>
      <trkpt lat="41.8776120" lon="-5.4497280">
        <ele>702.6</ele>
        <time>2019-08-15T10:54:48Z</time>
      </trkpt>
      <trkpt lat="41.8776380" lon="-5.4497660">
        <ele>702.6</ele>
        <time>2019-08-15T10:54:49Z</time>
      </trkpt>
      <trkpt lat="41.8776610" lon="-5.4498050">
        <ele>702.8</ele>
        <time>2019-08-15T10:54:50Z</time>
      </trkpt>
      <trkpt lat="41.8776850" lon="-5.4498440">
        <ele>702.9</ele>
        <time>2019-08-15T10:54:51Z</time>
      </trkpt>
      <trkpt lat="41.8777070" lon="-5.4498820">
        <ele>703.0</ele>
        <time>2019-08-15T10:54:52Z</time>
      </trkpt>
      <trkpt lat="41.8777290" lon="-5.4499210">
        <ele>703.2</ele>
        <time>2019-08-15T10:54:53Z</time>
      </trkpt>
      <trkpt lat="41.8777530" lon="-5.4499570">
        <ele>703.4</ele>
        <time>2019-08-15T10:54:54Z</time>
      </trkpt>
      <trkpt lat="41.8777770" lon="-5.4499950">
        <ele>703.8</ele>
        <time>2019-08-15T10:54:55Z</time>
      </trkpt>
      <trkpt lat="41.8778020" lon="-5.4500330">
        <ele>704.1</ele>
        <time>2019-08-15T10:54:56Z</time>
      </trkpt>
      <trkpt lat="41.8778270" lon="-5.4500700">
        <ele>704.4</ele>
        <time>2019-08-15T10:54:57Z</time>
      </trkpt>
      <trkpt lat="41.8778520" lon="-5.4501090">
        <ele>704.7</ele>
        <time>2019-08-15T10:54:58Z</time>
      </trkpt>
      <trkpt lat="41.8778750" lon="-5.4501490">
        <ele>704.9</ele>
        <time>2019-08-15T10:54:59Z</time>
      </trkpt>
      <trkpt lat="41.8778980" lon="-5.4501890">
        <ele>705.0</ele>
        <time>2019-08-15T10:55:00Z</time>
      </trkpt>
      <trkpt lat="41.8779240" lon="-5.4502260">
        <ele>705.2</ele>
        <time>2019-08-15T10:55:01Z</time>
      </trkpt>
      <trkpt lat="41.8779480" lon="-5.4502620">
        <ele>705.6</ele>
        <time>2019-08-15T10:55:02Z</time>
      </trkpt>
      <trkpt lat="41.8779710" lon="-5.4502970">
        <ele>705.9</ele>
        <time>2019-08-15T10:55:03Z</time>
      </trkpt>
      <trkpt lat="41.8779940" lon="-5.4503330">
        <ele>706.2</ele>
        <time>2019-08-15T10:55:04Z</time>
      </trkpt>
      <trkpt lat="41.8780180" lon="-5.4503710">
        <ele>706.5</ele>
        <time>2019-08-15T10:55:05Z</time>
      </trkpt>
      <trkpt lat="41.8780410" lon="-5.4504080">
        <ele>706.9</ele>
        <time>2019-08-15T10:55:06Z</time>
      </trkpt>
      <trkpt lat="41.8780640" lon="-5.4504470">
        <ele>707.2</ele>
        <time>2019-08-15T10:55:07Z</time>
      </trkpt>
      <trkpt lat="41.8780910" lon="-5.4504840">
        <ele>707.5</ele>
        <time>2019-08-15T10:55:08Z</time>
      </trkpt>
      <trkpt lat="41.8781170" lon="-5.4505200">
        <ele>707.7</ele>
        <time>2019-08-15T10:55:09Z</time>
      </trkpt>
      <trkpt lat="41.8781410" lon="-5.4505540">
        <ele>707.8</ele>
        <time>2019-08-15T10:55:10Z</time>
      </trkpt>
      <trkpt lat="41.8781630" lon="-5.4505910">
        <ele>708.0</ele>
        <time>2019-08-15T10:55:11Z</time>
      </trkpt>
      <trkpt lat="41.8781900" lon="-5.4506280">
        <ele>708.3</ele>
        <time>2019-08-15T10:55:12Z</time>
      </trkpt>
      <trkpt lat="41.8782140" lon="-5.4506650">
        <ele>708.5</ele>
        <time>2019-08-15T10:55:13Z</time>
      </trkpt>
      <trkpt lat="41.8782400" lon="-5.4507010">
        <ele>708.7</ele>
        <time>2019-08-15T10:55:14Z</time>
      </trkpt>
      <trkpt lat="41.8782650" lon="-5.4507380">
        <ele>708.9</ele>
        <time>2019-08-15T10:55:15Z</time>
      </trkpt>
      <trkpt lat="41.8782910" lon="-5.4507770">
        <ele>709.0</ele>
        <time>2019-08-15T10:55:16Z</time>
      </trkpt>
      <trkpt lat="41.8783160" lon="-5.4508150">
        <ele>709.2</ele>
        <time>2019-08-15T10:55:17Z</time>
      </trkpt>
      <trkpt lat="41.8783400" lon="-5.4508530">
        <ele>709.2</ele>
        <time>2019-08-15T10:55:18Z</time>
      </trkpt>
      <trkpt lat="41.8783600" lon="-5.4508890">
        <ele>709.3</ele>
        <time>2019-08-15T10:55:19Z</time>
      </trkpt>
      <trkpt lat="41.8783810" lon="-5.4509250">
        <ele>709.3</ele>
        <time>2019-08-15T10:55:20Z</time>
      </trkpt>
      <trkpt lat="41.8784040" lon="-5.4509590">
        <ele>709.3</ele>
        <time>2019-08-15T10:55:21Z</time>
      </trkpt>
      <trkpt lat="41.8784270" lon="-5.4509950">
        <ele>709.3</ele>
        <time>2019-08-15T10:55:22Z</time>
      </trkpt>
      <trkpt lat="41.8784500" lon="-5.4510320">
        <ele>709.3</ele>
        <time>2019-08-15T10:55:23Z</time>
      </trkpt>
      <trkpt lat="41.8784720" lon="-5.4510690">
        <ele>709.3</ele>
        <time>2019-08-15T10:55:24Z</time>
      </trkpt>
      <trkpt lat="41.8784950" lon="-5.4511040">
        <ele>709.3</ele>
        <time>2019-08-15T10:55:25Z</time>
      </trkpt>
      <trkpt lat="41.8785200" lon="-5.4511400">
        <ele>709.3</ele>
        <time>2019-08-15T10:55:26Z</time>
      </trkpt>
      <trkpt lat="41.8785440" lon="-5.4511740">
        <ele>709.3</ele>
        <time>2019-08-15T10:55:27Z</time>
      </trkpt>
      <trkpt lat="41.8785680" lon="-5.4512110">
        <ele>709.3</ele>
        <time>2019-08-15T10:55:28Z</time>
      </trkpt>
      <trkpt lat="41.8785930" lon="-5.4512490">
        <ele>709.4</ele>
        <time>2019-08-15T10:55:29Z</time>
      </trkpt>
      <trkpt lat="41.8786180" lon="-5.4512850">
        <ele>709.3</ele>
        <time>2019-08-15T10:55:30Z</time>
      </trkpt>
      <trkpt lat="41.8786440" lon="-5.4513200">
        <ele>709.3</ele>
        <time>2019-08-15T10:55:31Z</time>
      </trkpt>
      <trkpt lat="41.8786670" lon="-5.4513590">
        <ele>709.3</ele>
        <time>2019-08-15T10:55:32Z</time>
      </trkpt>
      <trkpt lat="41.8786910" lon="-5.4513990">
        <ele>709.4</ele>
        <time>2019-08-15T10:55:33Z</time>
      </trkpt>
      <trkpt lat="41.8787160" lon="-5.4514340">
        <ele>709.4</ele>
        <time>2019-08-15T10:55:34Z</time>
      </trkpt>
      <trkpt lat="41.8787410" lon="-5.4514680">
        <ele>709.4</ele>
        <time>2019-08-15T10:55:35Z</time>
      </trkpt>
      <trkpt lat="41.8787660" lon="-5.4515040">
        <ele>709.5</ele>
        <time>2019-08-15T10:55:36Z</time>
      </trkpt>
      <trkpt lat="41.8787920" lon="-5.4515430">
        <ele>709.5</ele>
        <time>2019-08-15T10:55:37Z</time>
      </trkpt>
      <trkpt lat="41.8788190" lon="-5.4515800">
        <ele>709.6</ele>
        <time>2019-08-15T10:55:38Z</time>
      </trkpt>
      <trkpt lat="41.8788450" lon="-5.4516170">
        <ele>709.6</ele>
        <time>2019-08-15T10:55:39Z</time>
      </trkpt>
      <trkpt lat="41.8788720" lon="-5.4516530">
        <ele>709.7</ele>
        <time>2019-08-15T10:55:40Z</time>
      </trkpt>
      <trkpt lat="41.8788990" lon="-5.4516890">
        <ele>709.8</ele>
        <time>2019-08-15T10:55:41Z</time>
      </trkpt>
      <trkpt lat="41.8789290" lon="-5.4517240">
        <ele>709.9</ele>
        <time>2019-08-15T10:55:42Z</time>
      </trkpt>
      <trkpt lat="41.8789560" lon="-5.4517590">
        <ele>710.0</ele>
        <time>2019-08-15T10:55:43Z</time>
      </trkpt>
      <trkpt lat="41.8789830" lon="-5.4517970">
        <ele>710.1</ele>
        <time>2019-08-15T10:55:44Z</time>
      </trkpt>
      <trkpt lat="41.8790100" lon="-5.4518330">
        <ele>710.2</ele>
        <time>2019-08-15T10:55:45Z</time>
      </trkpt>
      <trkpt lat="41.8790360" lon="-5.4518690">
        <ele>710.3</ele>
        <time>2019-08-15T10:55:46Z</time>
      </trkpt>
      <trkpt lat="41.8790610" lon="-5.4519060">
        <ele>710.4</ele>
        <time>2019-08-15T10:55:47Z</time>
      </trkpt>
      <trkpt lat="41.8790850" lon="-5.4519410">
        <ele>710.5</ele>
        <time>2019-08-15T10:55:48Z</time>
      </trkpt>
      <trkpt lat="41.8791120" lon="-5.4519790">
        <ele>710.6</ele>
        <time>2019-08-15T10:55:49Z</time>
      </trkpt>
      <trkpt lat="41.8791390" lon="-5.4520150">
        <ele>710.7</ele>
        <time>2019-08-15T10:55:50Z</time>
      </trkpt>
      <trkpt lat="41.8791650" lon="-5.4520460">
        <ele>710.9</ele>
        <time>2019-08-15T10:55:51Z</time>
      </trkpt>
      <trkpt lat="41.8791910" lon="-5.4520820">
        <ele>711.0</ele>
        <time>2019-08-15T10:55:52Z</time>
      </trkpt>
      <trkpt lat="41.8792180" lon="-5.4521210">
        <ele>711.1</ele>
        <time>2019-08-15T10:55:53Z</time>
      </trkpt>
      <trkpt lat="41.8792470" lon="-5.4521630">
        <ele>711.3</ele>
        <time>2019-08-15T10:55:54Z</time>
      </trkpt>
      <trkpt lat="41.8792740" lon="-5.4522000">
        <ele>711.4</ele>
        <time>2019-08-15T10:55:55Z</time>
      </trkpt>
      <trkpt lat="41.8793000" lon="-5.4522340">
        <ele>711.4</ele>
        <time>2019-08-15T10:55:56Z</time>
      </trkpt>
      <trkpt lat="41.8793290" lon="-5.4522700">
        <ele>711.4</ele>
        <time>2019-08-15T10:55:57Z</time>
      </trkpt>
      <trkpt lat="41.8793570" lon="-5.4523050">
        <ele>711.5</ele>
        <time>2019-08-15T10:55:58Z</time>
      </trkpt>
      <trkpt lat="41.8793830" lon="-5.4523410">
        <ele>711.6</ele>
        <time>2019-08-15T10:55:59Z</time>
      </trkpt>
      <trkpt lat="41.8794110" lon="-5.4523810">
        <ele>711.7</ele>
        <time>2019-08-15T10:56:00Z</time>
      </trkpt>
      <trkpt lat="41.8794360" lon="-5.4524210">
        <ele>711.8</ele>
        <time>2019-08-15T10:56:01Z</time>
      </trkpt>
      <trkpt lat="41.8794650" lon="-5.4524640">
        <ele>711.8</ele>
        <time>2019-08-15T10:56:02Z</time>
      </trkpt>
      <trkpt lat="41.8794930" lon="-5.4524990">
        <ele>711.9</ele>
        <time>2019-08-15T10:56:03Z</time>
      </trkpt>
      <trkpt lat="41.8795190" lon="-5.4525370">
        <ele>712.0</ele>
        <time>2019-08-15T10:56:04Z</time>
      </trkpt>
      <trkpt lat="41.8795400" lon="-5.4525730">
        <ele>712.0</ele>
        <time>2019-08-15T10:56:05Z</time>
      </trkpt>
      <trkpt lat="41.8795700" lon="-5.4526150">
        <ele>712.1</ele>
        <time>2019-08-15T10:56:06Z</time>
      </trkpt>
      <trkpt lat="41.8795970" lon="-5.4526580">
        <ele>712.1</ele>
        <time>2019-08-15T10:56:07Z</time>
      </trkpt>
      <trkpt lat="41.8796210" lon="-5.4526990">
        <ele>712.1</ele>
        <time>2019-08-15T10:56:08Z</time>
      </trkpt>
      <trkpt lat="41.8796510" lon="-5.4527370">
        <ele>712.1</ele>
        <time>2019-08-15T10:56:09Z</time>
      </trkpt>
      <trkpt lat="41.8796770" lon="-5.4527730">
        <ele>712.2</ele>
        <time>2019-08-15T10:56:10Z</time>
      </trkpt>
      <trkpt lat="41.8797040" lon="-5.4528120">
        <ele>712.2</ele>
        <time>2019-08-15T10:56:11Z</time>
      </trkpt>
      <trkpt lat="41.8797330" lon="-5.4528520">
        <ele>712.2</ele>
        <time>2019-08-15T10:56:12Z</time>
      </trkpt>
      <trkpt lat="41.8797620" lon="-5.4528920">
        <ele>712.2</ele>
        <time>2019-08-15T10:56:13Z</time>
      </trkpt>
      <trkpt lat="41.8797940" lon="-5.4529350">
        <ele>712.2</ele>
        <time>2019-08-15T10:56:14Z</time>
      </trkpt>
      <trkpt lat="41.8798200" lon="-5.4529770">
        <ele>712.2</ele>
        <time>2019-08-15T10:56:15Z</time>
      </trkpt>
      <trkpt lat="41.8798470" lon="-5.4530200">
        <ele>712.3</ele>
        <time>2019-08-15T10:56:16Z</time>
      </trkpt>
      <trkpt lat="41.8798760" lon="-5.4530640">
        <ele>712.3</ele>
        <time>2019-08-15T10:56:17Z</time>
      </trkpt>
      <trkpt lat="41.8799030" lon="-5.4531060">
        <ele>712.3</ele>
        <time>2019-08-15T10:56:18Z</time>
      </trkpt>
      <trkpt lat="41.8799300" lon="-5.4531490">
        <ele>712.2</ele>
        <time>2019-08-15T10:56:19Z</time>
      </trkpt>
      <trkpt lat="41.8799580" lon="-5.4531940">
        <ele>712.3</ele>
        <time>2019-08-15T10:56:20Z</time>
      </trkpt>
      <trkpt lat="41.8799850" lon="-5.4532390">
        <ele>712.3</ele>
        <time>2019-08-15T10:56:21Z</time>
      </trkpt>
      <trkpt lat="41.8800130" lon="-5.4532820">
        <ele>712.3</ele>
        <time>2019-08-15T10:56:22Z</time>
      </trkpt>
      <trkpt lat="41.8800420" lon="-5.4533240">
        <ele>712.4</ele>
        <time>2019-08-15T10:56:23Z</time>
      </trkpt>
      <trkpt lat="41.8800690" lon="-5.4533650">
        <ele>712.4</ele>
        <time>2019-08-15T10:56:24Z</time>
      </trkpt>
      <trkpt lat="41.8800960" lon="-5.4534040">
        <ele>712.5</ele>
        <time>2019-08-15T10:56:25Z</time>
      </trkpt>
      <trkpt lat="41.8801210" lon="-5.4534430">
        <ele>712.4</ele>
        <time>2019-08-15T10:56:26Z</time>
      </trkpt>
      <trkpt lat="41.8801480" lon="-5.4534830">
        <ele>712.4</ele>
        <time>2019-08-15T10:56:27Z</time>
      </trkpt>
      <trkpt lat="41.8801780" lon="-5.4535230">
        <ele>712.5</ele>
        <time>2019-08-15T10:56:28Z</time>
      </trkpt>
      <trkpt lat="41.8802080" lon="-5.4535620">
        <ele>712.5</ele>
        <time>2019-08-15T10:56:29Z</time>
      </trkpt>
      <trkpt lat="41.8802380" lon="-5.4535950">
        <ele>712.6</ele>
        <time>2019-08-15T10:56:30Z</time>
      </trkpt>
      <trkpt lat="41.8802680" lon="-5.4536270">
        <ele>712.6</ele>
        <time>2019-08-15T10:56:31Z</time>
      </trkpt>
      <trkpt lat="41.8802990" lon="-5.4536580">
        <ele>712.7</ele>
        <time>2019-08-15T10:56:32Z</time>
      </trkpt>
      <trkpt lat="41.8803300" lon="-5.4536870">
        <ele>712.7</ele>
        <time>2019-08-15T10:56:33Z</time>
      </trkpt>
      <trkpt lat="41.8803620" lon="-5.4537140">
        <ele>712.7</ele>
        <time>2019-08-15T10:56:34Z</time>
      </trkpt>
      <trkpt lat="41.8803940" lon="-5.4537430">
        <ele>712.8</ele>
        <time>2019-08-15T10:56:35Z</time>
      </trkpt>
      <trkpt lat="41.8804250" lon="-5.4537660">
        <ele>712.8</ele>
        <time>2019-08-15T10:56:36Z</time>
      </trkpt>
      <trkpt lat="41.8804580" lon="-5.4537890">
        <ele>712.8</ele>
        <time>2019-08-15T10:56:37Z</time>
      </trkpt>
      <trkpt lat="41.8804930" lon="-5.4538180">
        <ele>712.9</ele>
        <time>2019-08-15T10:56:38Z</time>
      </trkpt>
      <trkpt lat="41.8805310" lon="-5.4538450">
        <ele>713.0</ele>
        <time>2019-08-15T10:56:39Z</time>
      </trkpt>
      <trkpt lat="41.8805660" lon="-5.4538740">
        <ele>713.1</ele>
        <time>2019-08-15T10:56:40Z</time>
      </trkpt>
      <trkpt lat="41.8806000" lon="-5.4539010">
        <ele>713.1</ele>
        <time>2019-08-15T10:56:41Z</time>
      </trkpt>
      <trkpt lat="41.8806340" lon="-5.4539250">
        <ele>713.2</ele>
        <time>2019-08-15T10:56:42Z</time>
      </trkpt>
      <trkpt lat="41.8806630" lon="-5.4539500">
        <ele>713.2</ele>
        <time>2019-08-15T10:56:43Z</time>
      </trkpt>
      <trkpt lat="41.8806960" lon="-5.4539740">
        <ele>713.2</ele>
        <time>2019-08-15T10:56:44Z</time>
      </trkpt>
      <trkpt lat="41.8807230" lon="-5.4540010">
        <ele>713.2</ele>
        <time>2019-08-15T10:56:45Z</time>
      </trkpt>
      <trkpt lat="41.8807520" lon="-5.4540260">
        <ele>713.2</ele>
        <time>2019-08-15T10:56:46Z</time>
      </trkpt>
      <trkpt lat="41.8807780" lon="-5.4540490">
        <ele>713.2</ele>
        <time>2019-08-15T10:56:47Z</time>
      </trkpt>
      <trkpt lat="41.8808060" lon="-5.4540730">
        <ele>713.3</ele>
        <time>2019-08-15T10:56:48Z</time>
      </trkpt>
      <trkpt lat="41.8808310" lon="-5.4540970">
        <ele>713.4</ele>
        <time>2019-08-15T10:56:49Z</time>
      </trkpt>
      <trkpt lat="41.8808540" lon="-5.4541200">
        <ele>713.4</ele>
        <time>2019-08-15T10:56:50Z</time>
      </trkpt>
      <trkpt lat="41.8808750" lon="-5.4541430">
        <ele>713.5</ele>
        <time>2019-08-15T10:56:51Z</time>
      </trkpt>
      <trkpt lat="41.8808960" lon="-5.4541650">
        <ele>713.6</ele>
        <time>2019-08-15T10:56:52Z</time>
      </trkpt>
      <trkpt lat="41.8809380" lon="-5.4542110">
        <ele>713.7</ele>
        <time>2019-08-15T10:56:54Z</time>
      </trkpt>
      <trkpt lat="41.8809580" lon="-5.4542370">
        <ele>713.8</ele>
        <time>2019-08-15T10:56:55Z</time>
      </trkpt>
      <trkpt lat="41.8809770" lon="-5.4542610">
        <ele>713.8</ele>
        <time>2019-08-15T10:56:56Z</time>
      </trkpt>
      <trkpt lat="41.8810170" lon="-5.4543080">
        <ele>714.1</ele>
        <time>2019-08-15T10:56:58Z</time>
      </trkpt>
      <trkpt lat="41.8810350" lon="-5.4543290">
        <ele>714.2</ele>
        <time>2019-08-15T10:56:59Z</time>
      </trkpt>
      <trkpt lat="41.8810730" lon="-5.4543700">
        <ele>714.4</ele>
        <time>2019-08-15T10:57:01Z</time>
      </trkpt>
      <trkpt lat="41.8811100" lon="-5.4544130">
        <ele>714.6</ele>
        <time>2019-08-15T10:57:03Z</time>
      </trkpt>
      <trkpt lat="41.8811410" lon="-5.4544580">
        <ele>714.6</ele>
        <time>2019-08-15T10:57:05Z</time>
      </trkpt>
      <trkpt lat="41.8811790" lon="-5.4545050">
        <ele>714.8</ele>
        <time>2019-08-15T10:57:07Z</time>
      </trkpt>
      <trkpt lat="41.8812150" lon="-5.4545460">
        <ele>715.2</ele>
        <time>2019-08-15T10:57:09Z</time>
      </trkpt>
      <trkpt lat="41.8812510" lon="-5.4545870">
        <ele>715.6</ele>
        <time>2019-08-15T10:57:11Z</time>
      </trkpt>
      <trkpt lat="41.8812900" lon="-5.4546300">
        <ele>716.0</ele>
        <time>2019-08-15T10:57:13Z</time>
      </trkpt>
      <trkpt lat="41.8813320" lon="-5.4546700">
        <ele>716.2</ele>
        <time>2019-08-15T10:57:15Z</time>
      </trkpt>
      <trkpt lat="41.8813700" lon="-5.4547070">
        <ele>716.6</ele>
        <time>2019-08-15T10:57:17Z</time>
      </trkpt>
      <trkpt lat="41.8814030" lon="-5.4547450">
        <ele>717.0</ele>
        <time>2019-08-15T10:57:19Z</time>
      </trkpt>
      <trkpt lat="41.8814380" lon="-5.4547830">
        <ele>717.4</ele>
        <time>2019-08-15T10:57:21Z</time>
      </trkpt>
      <trkpt lat="41.8814810" lon="-5.4548240">
        <ele>717.8</ele>
        <time>2019-08-15T10:57:23Z</time>
      </trkpt>
      <trkpt lat="41.8815000" lon="-5.4548450">
        <ele>718.0</ele>
        <time>2019-08-15T10:57:24Z</time>
      </trkpt>
      <trkpt lat="41.8815400" lon="-5.4548880">
        <ele>718.3</ele>
        <time>2019-08-15T10:57:26Z</time>
      </trkpt>
      <trkpt lat="41.8815740" lon="-5.4549270">
        <ele>718.4</ele>
        <time>2019-08-15T10:57:28Z</time>
      </trkpt>
      <trkpt lat="41.8816120" lon="-5.4549670">
        <ele>718.6</ele>
        <time>2019-08-15T10:57:30Z</time>
      </trkpt>
      <trkpt lat="41.8816510" lon="-5.4550060">
        <ele>718.7</ele>
        <time>2019-08-15T10:57:32Z</time>
      </trkpt>
      <trkpt lat="41.8816860" lon="-5.4550460">
        <ele>718.7</ele>
        <time>2019-08-15T10:57:34Z</time>
      </trkpt>
      <trkpt lat="41.8817220" lon="-5.4550870">
        <ele>718.7</ele>
        <time>2019-08-15T10:57:36Z</time>
      </trkpt>
      <trkpt lat="41.8817610" lon="-5.4551280">
        <ele>718.7</ele>
        <time>2019-08-15T10:57:38Z</time>
      </trkpt>
      <trkpt lat="41.8817970" lon="-5.4551680">
        <ele>718.7</ele>
        <time>2019-08-15T10:57:40Z</time>
      </trkpt>
      <trkpt lat="41.8818280" lon="-5.4552110">
        <ele>718.7</ele>
        <time>2019-08-15T10:57:42Z</time>
      </trkpt>
      <trkpt lat="41.8818700" lon="-5.4552570">
        <ele>718.7</ele>
        <time>2019-08-15T10:57:44Z</time>
      </trkpt>
      <trkpt lat="41.8819100" lon="-5.4553030">
        <ele>718.7</ele>
        <time>2019-08-15T10:57:46Z</time>
      </trkpt>
      <trkpt lat="41.8819500" lon="-5.4553480">
        <ele>718.9</ele>
        <time>2019-08-15T10:57:48Z</time>
      </trkpt>
      <trkpt lat="41.8819870" lon="-5.4553920">
        <ele>719.0</ele>
        <time>2019-08-15T10:57:50Z</time>
      </trkpt>
      <trkpt lat="41.8820250" lon="-5.4554400">
        <ele>719.1</ele>
        <time>2019-08-15T10:57:52Z</time>
      </trkpt>
      <trkpt lat="41.8820590" lon="-5.4554930">
        <ele>719.5</ele>
        <time>2019-08-15T10:57:54Z</time>
      </trkpt>
      <trkpt lat="41.8820930" lon="-5.4555450">
        <ele>719.8</ele>
        <time>2019-08-15T10:57:56Z</time>
      </trkpt>
      <trkpt lat="41.8821300" lon="-5.4555940">
        <ele>720.1</ele>
        <time>2019-08-15T10:57:58Z</time>
      </trkpt>
      <trkpt lat="41.8821480" lon="-5.4556200">
        <ele>720.3</ele>
        <time>2019-08-15T10:57:59Z</time>
      </trkpt>
      <trkpt lat="41.8821860" lon="-5.4556760">
        <ele>720.6</ele>
        <time>2019-08-15T10:58:01Z</time>
      </trkpt>
      <trkpt lat="41.8822020" lon="-5.4557030">
        <ele>720.6</ele>
        <time>2019-08-15T10:58:02Z</time>
      </trkpt>
      <trkpt lat="41.8822310" lon="-5.4557510">
        <ele>720.6</ele>
        <time>2019-08-15T10:58:04Z</time>
      </trkpt>
      <trkpt lat="41.8822640" lon="-5.4557980">
        <ele>720.8</ele>
        <time>2019-08-15T10:58:06Z</time>
      </trkpt>
      <trkpt lat="41.8822860" lon="-5.4558310">
        <ele>720.8</ele>
        <time>2019-08-15T10:58:08Z</time>
      </trkpt>
      <trkpt lat="41.8822860" lon="-5.4558410">
        <ele>720.8</ele>
        <time>2019-08-15T10:58:14Z</time>
      </trkpt>
      <trkpt lat="41.8822920" lon="-5.4559510">
        <ele>720.8</ele>
        <time>2019-08-15T10:58:31Z</time>
      </trkpt>
      <trkpt lat="41.8822630" lon="-5.4560090">
        <ele>720.9</ele>
        <time>2019-08-15T10:58:33Z</time>
      </trkpt>
      <trkpt lat="41.8822310" lon="-5.4560610">
        <ele>720.9</ele>
        <time>2019-08-15T10:58:35Z</time>
      </trkpt>
      <trkpt lat="41.8821920" lon="-5.4561050">
        <ele>720.9</ele>
        <time>2019-08-15T10:58:37Z</time>
      </trkpt>
      <trkpt lat="41.8821460" lon="-5.4561540">
        <ele>720.9</ele>
        <time>2019-08-15T10:58:39Z</time>
      </trkpt>
      <trkpt lat="41.8821260" lon="-5.4561780">
        <ele>720.9</ele>
        <time>2019-08-15T10:58:40Z</time>
      </trkpt>
      <trkpt lat="41.8821040" lon="-5.4562000">
        <ele>720.9</ele>
        <time>2019-08-15T10:58:41Z</time>
      </trkpt>
      <trkpt lat="41.8820840" lon="-5.4562210">
        <ele>720.9</ele>
        <time>2019-08-15T10:58:42Z</time>
      </trkpt>
      <trkpt lat="41.8820420" lon="-5.4562710">
        <ele>720.7</ele>
        <time>2019-08-15T10:58:44Z</time>
      </trkpt>
      <trkpt lat="41.8820180" lon="-5.4562970">
        <ele>720.7</ele>
        <time>2019-08-15T10:58:45Z</time>
      </trkpt>
      <trkpt lat="41.8819940" lon="-5.4563220">
        <ele>720.6</ele>
        <time>2019-08-15T10:58:46Z</time>
      </trkpt>
      <trkpt lat="41.8819760" lon="-5.4563480">
        <ele>720.5</ele>
        <time>2019-08-15T10:58:47Z</time>
      </trkpt>
      <trkpt lat="41.8819590" lon="-5.4563760">
        <ele>720.5</ele>
        <time>2019-08-15T10:58:48Z</time>
      </trkpt>
      <trkpt lat="41.8819180" lon="-5.4564370">
        <ele>720.4</ele>
        <time>2019-08-15T10:58:50Z</time>
      </trkpt>
      <trkpt lat="41.8818940" lon="-5.4564640">
        <ele>720.3</ele>
        <time>2019-08-15T10:58:51Z</time>
      </trkpt>
      <trkpt lat="41.8818720" lon="-5.4564900">
        <ele>720.2</ele>
        <time>2019-08-15T10:58:52Z</time>
      </trkpt>
      <trkpt lat="41.8818470" lon="-5.4565180">
        <ele>720.1</ele>
        <time>2019-08-15T10:58:53Z</time>
      </trkpt>
      <trkpt lat="41.8818210" lon="-5.4565470">
        <ele>720.0</ele>
        <time>2019-08-15T10:58:54Z</time>
      </trkpt>
      <trkpt lat="41.8817950" lon="-5.4565760">
        <ele>719.9</ele>
        <time>2019-08-15T10:58:55Z</time>
      </trkpt>
      <trkpt lat="41.8817680" lon="-5.4566070">
        <ele>719.8</ele>
        <time>2019-08-15T10:58:56Z</time>
      </trkpt>
      <trkpt lat="41.8817430" lon="-5.4566390">
        <ele>719.8</ele>
        <time>2019-08-15T10:58:57Z</time>
      </trkpt>
      <trkpt lat="41.8817190" lon="-5.4566740">
        <ele>719.8</ele>
        <time>2019-08-15T10:58:58Z</time>
      </trkpt>
      <trkpt lat="41.8816920" lon="-5.4567130">
        <ele>719.5</ele>
        <time>2019-08-15T10:58:59Z</time>
      </trkpt>
      <trkpt lat="41.8816660" lon="-5.4567540">
        <ele>719.4</ele>
        <time>2019-08-15T10:59:00Z</time>
      </trkpt>
      <trkpt lat="41.8816410" lon="-5.4567990">
        <ele>719.2</ele>
        <time>2019-08-15T10:59:01Z</time>
      </trkpt>
      <trkpt lat="41.8816210" lon="-5.4568530">
        <ele>719.0</ele>
        <time>2019-08-15T10:59:02Z</time>
      </trkpt>
      <trkpt lat="41.8816080" lon="-5.4569120">
        <ele>718.8</ele>
        <time>2019-08-15T10:59:03Z</time>
      </trkpt>
      <trkpt lat="41.8816080" lon="-5.4569750">
        <ele>719.0</ele>
        <time>2019-08-15T10:59:04Z</time>
      </trkpt>
      <trkpt lat="41.8816200" lon="-5.4570350">
        <ele>719.4</ele>
        <time>2019-08-15T10:59:05Z</time>
      </trkpt>
      <trkpt lat="41.8816440" lon="-5.4570880">
        <ele>719.7</ele>
        <time>2019-08-15T10:59:06Z</time>
      </trkpt>
      <trkpt lat="41.8816730" lon="-5.4571360">
        <ele>720.1</ele>
        <time>2019-08-15T10:59:07Z</time>
      </trkpt>
      <trkpt lat="41.8817010" lon="-5.4571800">
        <ele>720.3</ele>
        <time>2019-08-15T10:59:08Z</time>
      </trkpt>
      <trkpt lat="41.8817310" lon="-5.4572280">
        <ele>720.5</ele>
        <time>2019-08-15T10:59:09Z</time>
      </trkpt>
      <trkpt lat="41.8817670" lon="-5.4572780">
        <ele>720.7</ele>
        <time>2019-08-15T10:59:10Z</time>
      </trkpt>
      <trkpt lat="41.8818050" lon="-5.4573310">
        <ele>720.6</ele>
        <time>2019-08-15T10:59:11Z</time>
      </trkpt>
      <trkpt lat="41.8818430" lon="-5.4573810">
        <ele>720.6</ele>
        <time>2019-08-15T10:59:12Z</time>
      </trkpt>
      <trkpt lat="41.8818830" lon="-5.4574290">
        <ele>720.7</ele>
        <time>2019-08-15T10:59:13Z</time>
      </trkpt>
      <trkpt lat="41.8819220" lon="-5.4574760">
        <ele>720.6</ele>
        <time>2019-08-15T10:59:14Z</time>
      </trkpt>
      <trkpt lat="41.8819590" lon="-5.4575250">
        <ele>720.5</ele>
        <time>2019-08-15T10:59:15Z</time>
      </trkpt>
      <trkpt lat="41.8819970" lon="-5.4575750">
        <ele>720.4</ele>
        <time>2019-08-15T10:59:16Z</time>
      </trkpt>
      <trkpt lat="41.8820370" lon="-5.4576230">
        <ele>720.2</ele>
        <time>2019-08-15T10:59:17Z</time>
      </trkpt>
      <trkpt lat="41.8820780" lon="-5.4576690">
        <ele>720.1</ele>
        <time>2019-08-15T10:59:18Z</time>
      </trkpt>
      <trkpt lat="41.8821220" lon="-5.4577150">
        <ele>720.0</ele>
        <time>2019-08-15T10:59:19Z</time>
      </trkpt>
      <trkpt lat="41.8821650" lon="-5.4577580">
        <ele>720.2</ele>
        <time>2019-08-15T10:59:20Z</time>
      </trkpt>
      <trkpt lat="41.8822110" lon="-5.4578070">
        <ele>720.3</ele>
        <time>2019-08-15T10:59:21Z</time>
      </trkpt>
      <trkpt lat="41.8822540" lon="-5.4578540">
        <ele>720.4</ele>
        <time>2019-08-15T10:59:22Z</time>
      </trkpt>
      <trkpt lat="41.8822970" lon="-5.4579060">
        <ele>720.5</ele>
        <time>2019-08-15T10:59:23Z</time>
      </trkpt>
      <trkpt lat="41.8823380" lon="-5.4579580">
        <ele>720.6</ele>
        <time>2019-08-15T10:59:24Z</time>
      </trkpt>
      <trkpt lat="41.8823820" lon="-5.4580060">
        <ele>720.8</ele>
        <time>2019-08-15T10:59:25Z</time>
      </trkpt>
      <trkpt lat="41.8824260" lon="-5.4580540">
        <ele>720.8</ele>
        <time>2019-08-15T10:59:26Z</time>
      </trkpt>
      <trkpt lat="41.8824710" lon="-5.4581010">
        <ele>720.8</ele>
        <time>2019-08-15T10:59:27Z</time>
      </trkpt>
      <trkpt lat="41.8825160" lon="-5.4581470">
        <ele>720.8</ele>
        <time>2019-08-15T10:59:28Z</time>
      </trkpt>
      <trkpt lat="41.8825610" lon="-5.4581940">
        <ele>721.0</ele>
        <time>2019-08-15T10:59:29Z</time>
      </trkpt>
      <trkpt lat="41.8826060" lon="-5.4582420">
        <ele>721.0</ele>
        <time>2019-08-15T10:59:30Z</time>
      </trkpt>
      <trkpt lat="41.8826500" lon="-5.4582890">
        <ele>720.9</ele>
        <time>2019-08-15T10:59:31Z</time>
      </trkpt>
      <trkpt lat="41.8826940" lon="-5.4583350">
        <ele>720.7</ele>
        <time>2019-08-15T10:59:32Z</time>
      </trkpt>
      <trkpt lat="41.8827410" lon="-5.4583820">
        <ele>720.7</ele>
        <time>2019-08-15T10:59:33Z</time>
      </trkpt>
      <trkpt lat="41.8827870" lon="-5.4584320">
        <ele>720.7</ele>
        <time>2019-08-15T10:59:34Z</time>
      </trkpt>
      <trkpt lat="41.8828360" lon="-5.4584820">
        <ele>720.7</ele>
        <time>2019-08-15T10:59:35Z</time>
      </trkpt>
      <trkpt lat="41.8828840" lon="-5.4585300">
        <ele>720.6</ele>
        <time>2019-08-15T10:59:36Z</time>
      </trkpt>
      <trkpt lat="41.8829360" lon="-5.4585850">
        <ele>720.6</ele>
        <time>2019-08-15T10:59:37Z</time>
      </trkpt>
      <trkpt lat="41.8829850" lon="-5.4586360">
        <ele>720.6</ele>
        <time>2019-08-15T10:59:38Z</time>
      </trkpt>
      <trkpt lat="41.8830330" lon="-5.4586850">
        <ele>720.5</ele>
        <time>2019-08-15T10:59:39Z</time>
      </trkpt>
      <trkpt lat="41.8830780" lon="-5.4587320">
        <ele>720.4</ele>
        <time>2019-08-15T10:59:40Z</time>
      </trkpt>
      <trkpt lat="41.8831260" lon="-5.4587750">
        <ele>720.4</ele>
        <time>2019-08-15T10:59:41Z</time>
      </trkpt>
      <trkpt lat="41.8831780" lon="-5.4588180">
        <ele>720.4</ele>
        <time>2019-08-15T10:59:42Z</time>
      </trkpt>
      <trkpt lat="41.8832260" lon="-5.4588580">
        <ele>720.4</ele>
        <time>2019-08-15T10:59:43Z</time>
      </trkpt>
      <trkpt lat="41.8832740" lon="-5.4588970">
        <ele>720.4</ele>
        <time>2019-08-15T10:59:44Z</time>
      </trkpt>
      <trkpt lat="41.8833220" lon="-5.4589360">
        <ele>720.5</ele>
        <time>2019-08-15T10:59:45Z</time>
      </trkpt>
      <trkpt lat="41.8833700" lon="-5.4589750">
        <ele>720.5</ele>
        <time>2019-08-15T10:59:46Z</time>
      </trkpt>
      <trkpt lat="41.8834160" lon="-5.4590150">
        <ele>720.5</ele>
        <time>2019-08-15T10:59:47Z</time>
      </trkpt>
      <trkpt lat="41.8834620" lon="-5.4590510">
        <ele>720.6</ele>
        <time>2019-08-15T10:59:48Z</time>
      </trkpt>
      <trkpt lat="41.8835100" lon="-5.4590860">
        <ele>720.7</ele>
        <time>2019-08-15T10:59:49Z</time>
      </trkpt>
      <trkpt lat="41.8835570" lon="-5.4591210">
        <ele>720.7</ele>
        <time>2019-08-15T10:59:50Z</time>
      </trkpt>
      <trkpt lat="41.8836020" lon="-5.4591610">
        <ele>720.9</ele>
        <time>2019-08-15T10:59:51Z</time>
      </trkpt>
      <trkpt lat="41.8836430" lon="-5.4592020">
        <ele>721.0</ele>
        <time>2019-08-15T10:59:52Z</time>
      </trkpt>
      <trkpt lat="41.8836830" lon="-5.4592480">
        <ele>721.1</ele>
        <time>2019-08-15T10:59:53Z</time>
      </trkpt>
      <trkpt lat="41.8837250" lon="-5.4593000">
        <ele>721.2</ele>
        <time>2019-08-15T10:59:54Z</time>
      </trkpt>
      <trkpt lat="41.8837640" lon="-5.4593500">
        <ele>721.3</ele>
        <time>2019-08-15T10:59:55Z</time>
      </trkpt>
      <trkpt lat="41.8838060" lon="-5.4594010">
        <ele>721.4</ele>
        <time>2019-08-15T10:59:56Z</time>
      </trkpt>
      <trkpt lat="41.8838460" lon="-5.4594550">
        <ele>721.5</ele>
        <time>2019-08-15T10:59:57Z</time>
      </trkpt>
      <trkpt lat="41.8838880" lon="-5.4595120">
        <ele>721.6</ele>
        <time>2019-08-15T10:59:58Z</time>
      </trkpt>
      <trkpt lat="41.8839310" lon="-5.4595670">
        <ele>721.6</ele>
        <time>2019-08-15T10:59:59Z</time>
      </trkpt>
      <trkpt lat="41.8839700" lon="-5.4596240">
        <ele>721.7</ele>
        <time>2019-08-15T11:00:00Z</time>
      </trkpt>
      <trkpt lat="41.8840080" lon="-5.4596790">
        <ele>721.7</ele>
        <time>2019-08-15T11:00:01Z</time>
      </trkpt>
      <trkpt lat="41.8840460" lon="-5.4597320">
        <ele>721.6</ele>
        <time>2019-08-15T11:00:02Z</time>
      </trkpt>
      <trkpt lat="41.8840840" lon="-5.4597850">
        <ele>721.6</ele>
        <time>2019-08-15T11:00:03Z</time>
      </trkpt>
      <trkpt lat="41.8841210" lon="-5.4598360">
        <ele>721.5</ele>
        <time>2019-08-15T11:00:04Z</time>
      </trkpt>
      <trkpt lat="41.8841580" lon="-5.4598910">
        <ele>721.5</ele>
        <time>2019-08-15T11:00:05Z</time>
      </trkpt>
      <trkpt lat="41.8841970" lon="-5.4599460">
        <ele>721.4</ele>
        <time>2019-08-15T11:00:06Z</time>
      </trkpt>
      <trkpt lat="41.8842360" lon="-5.4600000">
        <ele>721.3</ele>
        <time>2019-08-15T11:00:07Z</time>
      </trkpt>
      <trkpt lat="41.8842770" lon="-5.4600570">
        <ele>721.2</ele>
        <time>2019-08-15T11:00:08Z</time>
      </trkpt>
      <trkpt lat="41.8843220" lon="-5.4601150">
        <ele>721.1</ele>
        <time>2019-08-15T11:00:09Z</time>
      </trkpt>
      <trkpt lat="41.8843700" lon="-5.4601770">
        <ele>721.0</ele>
        <time>2019-08-15T11:00:10Z</time>
      </trkpt>
      <trkpt lat="41.8844150" lon="-5.4602380">
        <ele>721.0</ele>
        <time>2019-08-15T11:00:11Z</time>
      </trkpt>
      <trkpt lat="41.8844620" lon="-5.4602990">
        <ele>721.0</ele>
        <time>2019-08-15T11:00:12Z</time>
      </trkpt>
      <trkpt lat="41.8845050" lon="-5.4603570">
        <ele>721.0</ele>
        <time>2019-08-15T11:00:13Z</time>
      </trkpt>
      <trkpt lat="41.8845440" lon="-5.4604100">
        <ele>721.0</ele>
        <time>2019-08-15T11:00:14Z</time>
      </trkpt>
      <trkpt lat="41.8845810" lon="-5.4604610">
        <ele>721.1</ele>
        <time>2019-08-15T11:00:15Z</time>
      </trkpt>
      <trkpt lat="41.8846180" lon="-5.4605110">
        <ele>721.2</ele>
        <time>2019-08-15T11:00:16Z</time>
      </trkpt>
      <trkpt lat="41.8846440" lon="-5.4605490">
        <ele>721.3</ele>
        <time>2019-08-15T11:00:17Z</time>
      </trkpt>
      <trkpt lat="41.8846580" lon="-5.4605690">
        <ele>721.3</ele>
        <time>2019-08-15T11:00:18Z</time>
      </trkpt>
      <trkpt lat="41.8846510" lon="-5.4605800">
        <ele>721.3</ele>
        <time>2019-08-15T11:00:22Z</time>
      </trkpt>
      <trkpt lat="41.8847490" lon="-5.4606870">
        <ele>721.6</ele>
        <time>2019-08-15T11:00:47Z</time>
      </trkpt>
      <trkpt lat="41.8847740" lon="-5.4607200">
        <ele>721.6</ele>
        <time>2019-08-15T11:00:48Z</time>
      </trkpt>
      <trkpt lat="41.8848010" lon="-5.4607580">
        <ele>721.7</ele>
        <time>2019-08-15T11:00:49Z</time>
      </trkpt>
      <trkpt lat="41.8848280" lon="-5.4607970">
        <ele>721.8</ele>
        <time>2019-08-15T11:00:50Z</time>
      </trkpt>
      <trkpt lat="41.8848570" lon="-5.4608370">
        <ele>721.9</ele>
        <time>2019-08-15T11:00:51Z</time>
      </trkpt>
      <trkpt lat="41.8848900" lon="-5.4608770">
        <ele>722.0</ele>
        <time>2019-08-15T11:00:52Z</time>
      </trkpt>
      <trkpt lat="41.8849260" lon="-5.4609210">
        <ele>722.1</ele>
        <time>2019-08-15T11:00:53Z</time>
      </trkpt>
      <trkpt lat="41.8849640" lon="-5.4609640">
        <ele>722.2</ele>
        <time>2019-08-15T11:00:54Z</time>
      </trkpt>
      <trkpt lat="41.8849960" lon="-5.4610110">
        <ele>722.3</ele>
        <time>2019-08-15T11:00:55Z</time>
      </trkpt>
      <trkpt lat="41.8850300" lon="-5.4610590">
        <ele>722.4</ele>
        <time>2019-08-15T11:00:56Z</time>
      </trkpt>
      <trkpt lat="41.8850630" lon="-5.4611060">
        <ele>722.5</ele>
        <time>2019-08-15T11:00:57Z</time>
      </trkpt>
      <trkpt lat="41.8850950" lon="-5.4611560">
        <ele>722.6</ele>
        <time>2019-08-15T11:00:58Z</time>
      </trkpt>
      <trkpt lat="41.8851270" lon="-5.4612020">
        <ele>722.7</ele>
        <time>2019-08-15T11:00:59Z</time>
      </trkpt>
      <trkpt lat="41.8851610" lon="-5.4612500">
        <ele>722.8</ele>
        <time>2019-08-15T11:01:00Z</time>
      </trkpt>
      <trkpt lat="41.8851950" lon="-5.4612980">
        <ele>722.9</ele>
        <time>2019-08-15T11:01:01Z</time>
      </trkpt>
      <trkpt lat="41.8852260" lon="-5.4613450">
        <ele>723.0</ele>
        <time>2019-08-15T11:01:02Z</time>
      </trkpt>
      <trkpt lat="41.8852590" lon="-5.4613910">
        <ele>723.1</ele>
        <time>2019-08-15T11:01:03Z</time>
      </trkpt>
      <trkpt lat="41.8852930" lon="-5.4614370">
        <ele>723.2</ele>
        <time>2019-08-15T11:01:04Z</time>
      </trkpt>
      <trkpt lat="41.8853260" lon="-5.4614830">
        <ele>723.3</ele>
        <time>2019-08-15T11:01:05Z</time>
      </trkpt>
      <trkpt lat="41.8853580" lon="-5.4615280">
        <ele>723.4</ele>
        <time>2019-08-15T11:01:06Z</time>
      </trkpt>
      <trkpt lat="41.8853920" lon="-5.4615720">
        <ele>723.4</ele>
        <time>2019-08-15T11:01:07Z</time>
      </trkpt>
      <trkpt lat="41.8854230" lon="-5.4616170">
        <ele>723.4</ele>
        <time>2019-08-15T11:01:08Z</time>
      </trkpt>
      <trkpt lat="41.8854520" lon="-5.4616620">
        <ele>723.4</ele>
        <time>2019-08-15T11:01:09Z</time>
      </trkpt>
      <trkpt lat="41.8854850" lon="-5.4617090">
        <ele>723.5</ele>
        <time>2019-08-15T11:01:10Z</time>
      </trkpt>
      <trkpt lat="41.8855190" lon="-5.4617570">
        <ele>723.5</ele>
        <time>2019-08-15T11:01:11Z</time>
      </trkpt>
      <trkpt lat="41.8855520" lon="-5.4618050">
        <ele>723.5</ele>
        <time>2019-08-15T11:01:12Z</time>
      </trkpt>
      <trkpt lat="41.8855900" lon="-5.4618550">
        <ele>723.5</ele>
        <time>2019-08-15T11:01:13Z</time>
      </trkpt>
      <trkpt lat="41.8856300" lon="-5.4619010">
        <ele>723.5</ele>
        <time>2019-08-15T11:01:14Z</time>
      </trkpt>
      <trkpt lat="41.8856640" lon="-5.4619470">
        <ele>723.5</ele>
        <time>2019-08-15T11:01:15Z</time>
      </trkpt>
      <trkpt lat="41.8856980" lon="-5.4619890">
        <ele>723.3</ele>
        <time>2019-08-15T11:01:16Z</time>
      </trkpt>
      <trkpt lat="41.8857310" lon="-5.4620370">
        <ele>723.2</ele>
        <time>2019-08-15T11:01:17Z</time>
      </trkpt>
      <trkpt lat="41.8857630" lon="-5.4620810">
        <ele>723.0</ele>
        <time>2019-08-15T11:01:18Z</time>
      </trkpt>
      <trkpt lat="41.8857960" lon="-5.4621250">
        <ele>722.9</ele>
        <time>2019-08-15T11:01:19Z</time>
      </trkpt>
      <trkpt lat="41.8858280" lon="-5.4621690">
        <ele>722.7</ele>
        <time>2019-08-15T11:01:20Z</time>
      </trkpt>
      <trkpt lat="41.8858580" lon="-5.4622160">
        <ele>722.5</ele>
        <time>2019-08-15T11:01:21Z</time>
      </trkpt>
      <trkpt lat="41.8858890" lon="-5.4622600">
        <ele>722.3</ele>
        <time>2019-08-15T11:01:22Z</time>
      </trkpt>
      <trkpt lat="41.8859200" lon="-5.4623020">
        <ele>722.2</ele>
        <time>2019-08-15T11:01:23Z</time>
      </trkpt>
      <trkpt lat="41.8859480" lon="-5.4623450">
        <ele>722.1</ele>
        <time>2019-08-15T11:01:24Z</time>
      </trkpt>
      <trkpt lat="41.8859800" lon="-5.4623870">
        <ele>722.0</ele>
        <time>2019-08-15T11:01:25Z</time>
      </trkpt>
      <trkpt lat="41.8860120" lon="-5.4624270">
        <ele>721.9</ele>
        <time>2019-08-15T11:01:26Z</time>
      </trkpt>
      <trkpt lat="41.8860390" lon="-5.4624660">
        <ele>721.8</ele>
        <time>2019-08-15T11:01:27Z</time>
      </trkpt>
      <trkpt lat="41.8860690" lon="-5.4625040">
        <ele>721.7</ele>
        <time>2019-08-15T11:01:28Z</time>
      </trkpt>
      <trkpt lat="41.8860980" lon="-5.4625430">
        <ele>721.7</ele>
        <time>2019-08-15T11:01:29Z</time>
      </trkpt>
      <trkpt lat="41.8861280" lon="-5.4625810">
        <ele>721.6</ele>
        <time>2019-08-15T11:01:30Z</time>
      </trkpt>
      <trkpt lat="41.8861550" lon="-5.4626180">
        <ele>721.6</ele>
        <time>2019-08-15T11:01:31Z</time>
      </trkpt>
      <trkpt lat="41.8861800" lon="-5.4626570">
        <ele>721.6</ele>
        <time>2019-08-15T11:01:32Z</time>
      </trkpt>
      <trkpt lat="41.8862010" lon="-5.4626970">
        <ele>721.6</ele>
        <time>2019-08-15T11:01:33Z</time>
      </trkpt>
      <trkpt lat="41.8862230" lon="-5.4627400">
        <ele>721.6</ele>
        <time>2019-08-15T11:01:34Z</time>
      </trkpt>
      <trkpt lat="41.8862490" lon="-5.4627830">
        <ele>721.6</ele>
        <time>2019-08-15T11:01:35Z</time>
      </trkpt>
      <trkpt lat="41.8862780" lon="-5.4628270">
        <ele>721.6</ele>
        <time>2019-08-15T11:01:36Z</time>
      </trkpt>
      <trkpt lat="41.8863090" lon="-5.4628700">
        <ele>721.6</ele>
        <time>2019-08-15T11:01:37Z</time>
      </trkpt>
      <trkpt lat="41.8863410" lon="-5.4629110">
        <ele>721.6</ele>
        <time>2019-08-15T11:01:38Z</time>
      </trkpt>
      <trkpt lat="41.8863700" lon="-5.4629520">
        <ele>721.6</ele>
        <time>2019-08-15T11:01:39Z</time>
      </trkpt>
      <trkpt lat="41.8864040" lon="-5.4629980">
        <ele>721.7</ele>
        <time>2019-08-15T11:01:40Z</time>
      </trkpt>
      <trkpt lat="41.8864390" lon="-5.4630410">
        <ele>721.8</ele>
        <time>2019-08-15T11:01:41Z</time>
      </trkpt>
      <trkpt lat="41.8864750" lon="-5.4630870">
        <ele>721.8</ele>
        <time>2019-08-15T11:01:42Z</time>
      </trkpt>
      <trkpt lat="41.8865120" lon="-5.4631330">
        <ele>721.9</ele>
        <time>2019-08-15T11:01:43Z</time>
      </trkpt>
      <trkpt lat="41.8865480" lon="-5.4631750">
        <ele>721.9</ele>
        <time>2019-08-15T11:01:44Z</time>
      </trkpt>
      <trkpt lat="41.8865860" lon="-5.4632190">
        <ele>721.9</ele>
        <time>2019-08-15T11:01:45Z</time>
      </trkpt>
      <trkpt lat="41.8866250" lon="-5.4632630">
        <ele>722.0</ele>
        <time>2019-08-15T11:01:46Z</time>
      </trkpt>
      <trkpt lat="41.8866610" lon="-5.4633060">
        <ele>722.0</ele>
        <time>2019-08-15T11:01:47Z</time>
      </trkpt>
      <trkpt lat="41.8866940" lon="-5.4633490">
        <ele>722.0</ele>
        <time>2019-08-15T11:01:48Z</time>
      </trkpt>
      <trkpt lat="41.8867250" lon="-5.4633900">
        <ele>722.1</ele>
        <time>2019-08-15T11:01:49Z</time>
      </trkpt>
      <trkpt lat="41.8867570" lon="-5.4634320">
        <ele>722.1</ele>
        <time>2019-08-15T11:01:50Z</time>
      </trkpt>
      <trkpt lat="41.8867870" lon="-5.4634760">
        <ele>722.2</ele>
        <time>2019-08-15T11:01:51Z</time>
      </trkpt>
      <trkpt lat="41.8868200" lon="-5.4635200">
        <ele>722.2</ele>
        <time>2019-08-15T11:01:52Z</time>
      </trkpt>
      <trkpt lat="41.8868540" lon="-5.4635620">
        <ele>722.3</ele>
        <time>2019-08-15T11:01:53Z</time>
      </trkpt>
      <trkpt lat="41.8868880" lon="-5.4636010">
        <ele>722.3</ele>
        <time>2019-08-15T11:01:54Z</time>
      </trkpt>
      <trkpt lat="41.8869200" lon="-5.4636420">
        <ele>722.4</ele>
        <time>2019-08-15T11:01:55Z</time>
      </trkpt>
      <trkpt lat="41.8869520" lon="-5.4636850">
        <ele>722.5</ele>
        <time>2019-08-15T11:01:56Z</time>
      </trkpt>
      <trkpt lat="41.8869870" lon="-5.4637270">
        <ele>722.6</ele>
        <time>2019-08-15T11:01:57Z</time>
      </trkpt>
      <trkpt lat="41.8870210" lon="-5.4637690">
        <ele>722.6</ele>
        <time>2019-08-15T11:01:58Z</time>
      </trkpt>
      <trkpt lat="41.8870540" lon="-5.4638120">
        <ele>722.7</ele>
        <time>2019-08-15T11:01:59Z</time>
      </trkpt>
      <trkpt lat="41.8870880" lon="-5.4638540">
        <ele>722.8</ele>
        <time>2019-08-15T11:02:00Z</time>
      </trkpt>
      <trkpt lat="41.8871220" lon="-5.4638960">
        <ele>722.9</ele>
        <time>2019-08-15T11:02:01Z</time>
      </trkpt>
      <trkpt lat="41.8871550" lon="-5.4639370">
        <ele>723.0</ele>
        <time>2019-08-15T11:02:02Z</time>
      </trkpt>
      <trkpt lat="41.8871860" lon="-5.4639770">
        <ele>723.0</ele>
        <time>2019-08-15T11:02:03Z</time>
      </trkpt>
      <trkpt lat="41.8872150" lon="-5.4640150">
        <ele>723.1</ele>
        <time>2019-08-15T11:02:04Z</time>
      </trkpt>
      <trkpt lat="41.8872450" lon="-5.4640510">
        <ele>723.2</ele>
        <time>2019-08-15T11:02:05Z</time>
      </trkpt>
      <trkpt lat="41.8872740" lon="-5.4640840">
        <ele>723.3</ele>
        <time>2019-08-15T11:02:06Z</time>
      </trkpt>
      <trkpt lat="41.8873040" lon="-5.4641180">
        <ele>723.4</ele>
        <time>2019-08-15T11:02:07Z</time>
      </trkpt>
      <trkpt lat="41.8873340" lon="-5.4641520">
        <ele>723.6</ele>
        <time>2019-08-15T11:02:08Z</time>
      </trkpt>
      <trkpt lat="41.8873650" lon="-5.4641910">
        <ele>723.8</ele>
        <time>2019-08-15T11:02:09Z</time>
      </trkpt>
      <trkpt lat="41.8873970" lon="-5.4642310">
        <ele>723.9</ele>
        <time>2019-08-15T11:02:10Z</time>
      </trkpt>
      <trkpt lat="41.8874300" lon="-5.4642720">
        <ele>724.0</ele>
        <time>2019-08-15T11:02:11Z</time>
      </trkpt>
      <trkpt lat="41.8874630" lon="-5.4643130">
        <ele>724.1</ele>
        <time>2019-08-15T11:02:12Z</time>
      </trkpt>
      <trkpt lat="41.8874970" lon="-5.4643500">
        <ele>724.3</ele>
        <time>2019-08-15T11:02:13Z</time>
      </trkpt>
      <trkpt lat="41.8875300" lon="-5.4643900">
        <ele>724.4</ele>
        <time>2019-08-15T11:02:14Z</time>
      </trkpt>
      <trkpt lat="41.8875620" lon="-5.4644280">
        <ele>724.5</ele>
        <time>2019-08-15T11:02:15Z</time>
      </trkpt>
      <trkpt lat="41.8875960" lon="-5.4644680">
        <ele>724.7</ele>
        <time>2019-08-15T11:02:16Z</time>
      </trkpt>
      <trkpt lat="41.8876350" lon="-5.4645110">
        <ele>724.8</ele>
        <time>2019-08-15T11:02:17Z</time>
      </trkpt>
      <trkpt lat="41.8876700" lon="-5.4645540">
        <ele>724.9</ele>
        <time>2019-08-15T11:02:18Z</time>
      </trkpt>
      <trkpt lat="41.8877060" lon="-5.4645960">
        <ele>725.1</ele>
        <time>2019-08-15T11:02:19Z</time>
      </trkpt>
      <trkpt lat="41.8877430" lon="-5.4646410">
        <ele>725.2</ele>
        <time>2019-08-15T11:02:20Z</time>
      </trkpt>
      <trkpt lat="41.8877790" lon="-5.4646830">
        <ele>725.3</ele>
        <time>2019-08-15T11:02:21Z</time>
      </trkpt>
      <trkpt lat="41.8878150" lon="-5.4647270">
        <ele>725.4</ele>
        <time>2019-08-15T11:02:22Z</time>
      </trkpt>
      <trkpt lat="41.8878500" lon="-5.4647730">
        <ele>725.5</ele>
        <time>2019-08-15T11:02:23Z</time>
      </trkpt>
      <trkpt lat="41.8878900" lon="-5.4648170">
        <ele>725.5</ele>
        <time>2019-08-15T11:02:24Z</time>
      </trkpt>
      <trkpt lat="41.8879300" lon="-5.4648630">
        <ele>725.5</ele>
        <time>2019-08-15T11:02:25Z</time>
      </trkpt>
      <trkpt lat="41.8879680" lon="-5.4649080">
        <ele>725.5</ele>
        <time>2019-08-15T11:02:26Z</time>
      </trkpt>
      <trkpt lat="41.8880080" lon="-5.4649540">
        <ele>725.5</ele>
        <time>2019-08-15T11:02:27Z</time>
      </trkpt>
      <trkpt lat="41.8880460" lon="-5.4650000">
        <ele>725.5</ele>
        <time>2019-08-15T11:02:28Z</time>
      </trkpt>
      <trkpt lat="41.8880830" lon="-5.4650480">
        <ele>725.4</ele>
        <time>2019-08-15T11:02:29Z</time>
      </trkpt>
      <trkpt lat="41.8881220" lon="-5.4650980">
        <ele>725.4</ele>
        <time>2019-08-15T11:02:30Z</time>
      </trkpt>
      <trkpt lat="41.8881610" lon="-5.4651470">
        <ele>725.3</ele>
        <time>2019-08-15T11:02:31Z</time>
      </trkpt>
      <trkpt lat="41.8881990" lon="-5.4651960">
        <ele>725.3</ele>
        <time>2019-08-15T11:02:32Z</time>
      </trkpt>
      <trkpt lat="41.8882380" lon="-5.4652460">
        <ele>725.3</ele>
        <time>2019-08-15T11:02:33Z</time>
      </trkpt>
      <trkpt lat="41.8882760" lon="-5.4652950">
        <ele>725.2</ele>
        <time>2019-08-15T11:02:34Z</time>
      </trkpt>
      <trkpt lat="41.8883160" lon="-5.4653420">
        <ele>725.2</ele>
        <time>2019-08-15T11:02:35Z</time>
      </trkpt>
      <trkpt lat="41.8883570" lon="-5.4653880">
        <ele>725.1</ele>
        <time>2019-08-15T11:02:36Z</time>
      </trkpt>
      <trkpt lat="41.8883970" lon="-5.4654340">
        <ele>725.1</ele>
        <time>2019-08-15T11:02:37Z</time>
      </trkpt>
      <trkpt lat="41.8884380" lon="-5.4654800">
        <ele>725.0</ele>
        <time>2019-08-15T11:02:38Z</time>
      </trkpt>
      <trkpt lat="41.8884800" lon="-5.4655270">
        <ele>725.0</ele>
        <time>2019-08-15T11:02:39Z</time>
      </trkpt>
      <trkpt lat="41.8885210" lon="-5.4655750">
        <ele>724.9</ele>
        <time>2019-08-15T11:02:40Z</time>
      </trkpt>
      <trkpt lat="41.8885610" lon="-5.4656260">
        <ele>724.9</ele>
        <time>2019-08-15T11:02:41Z</time>
      </trkpt>
      <trkpt lat="41.8886020" lon="-5.4656780">
        <ele>724.9</ele>
        <time>2019-08-15T11:02:42Z</time>
      </trkpt>
      <trkpt lat="41.8886440" lon="-5.4657290">
        <ele>724.8</ele>
        <time>2019-08-15T11:02:43Z</time>
      </trkpt>
      <trkpt lat="41.8886870" lon="-5.4657810">
        <ele>724.8</ele>
        <time>2019-08-15T11:02:44Z</time>
      </trkpt>
      <trkpt lat="41.8887300" lon="-5.4658340">
        <ele>724.8</ele>
        <time>2019-08-15T11:02:45Z</time>
      </trkpt>
      <trkpt lat="41.8887730" lon="-5.4658870">
        <ele>724.7</ele>
        <time>2019-08-15T11:02:46Z</time>
      </trkpt>
      <trkpt lat="41.8888150" lon="-5.4659410">
        <ele>724.7</ele>
        <time>2019-08-15T11:02:47Z</time>
      </trkpt>
      <trkpt lat="41.8888580" lon="-5.4659970">
        <ele>724.7</ele>
        <time>2019-08-15T11:02:48Z</time>
      </trkpt>
      <trkpt lat="41.8889000" lon="-5.4660530">
        <ele>724.7</ele>
        <time>2019-08-15T11:02:49Z</time>
      </trkpt>
      <trkpt lat="41.8889430" lon="-5.4661080">
        <ele>724.7</ele>
        <time>2019-08-15T11:02:50Z</time>
      </trkpt>
      <trkpt lat="41.8889870" lon="-5.4661620">
        <ele>724.7</ele>
        <time>2019-08-15T11:02:51Z</time>
      </trkpt>
      <trkpt lat="41.8890330" lon="-5.4662160">
        <ele>724.7</ele>
        <time>2019-08-15T11:02:52Z</time>
      </trkpt>
      <trkpt lat="41.8890790" lon="-5.4662700">
        <ele>724.7</ele>
        <time>2019-08-15T11:02:53Z</time>
      </trkpt>
      <trkpt lat="41.8891250" lon="-5.4663260">
        <ele>724.8</ele>
        <time>2019-08-15T11:02:54Z</time>
      </trkpt>
      <trkpt lat="41.8891710" lon="-5.4663810">
        <ele>724.8</ele>
        <time>2019-08-15T11:02:55Z</time>
      </trkpt>
      <trkpt lat="41.8892160" lon="-5.4664340">
        <ele>724.8</ele>
        <time>2019-08-15T11:02:56Z</time>
      </trkpt>
      <trkpt lat="41.8892610" lon="-5.4664870">
        <ele>724.8</ele>
        <time>2019-08-15T11:02:57Z</time>
      </trkpt>
      <trkpt lat="41.8893030" lon="-5.4665400">
        <ele>724.8</ele>
        <time>2019-08-15T11:02:58Z</time>
      </trkpt>
      <trkpt lat="41.8893460" lon="-5.4665920">
        <ele>724.9</ele>
        <time>2019-08-15T11:02:59Z</time>
      </trkpt>
      <trkpt lat="41.8893880" lon="-5.4666460">
        <ele>724.9</ele>
        <time>2019-08-15T11:03:00Z</time>
      </trkpt>
      <trkpt lat="41.8894310" lon="-5.4666990">
        <ele>724.9</ele>
        <time>2019-08-15T11:03:01Z</time>
      </trkpt>
      <trkpt lat="41.8894750" lon="-5.4667520">
        <ele>725.0</ele>
        <time>2019-08-15T11:03:02Z</time>
      </trkpt>
      <trkpt lat="41.8895190" lon="-5.4668060">
        <ele>725.0</ele>
        <time>2019-08-15T11:03:03Z</time>
      </trkpt>
      <trkpt lat="41.8895620" lon="-5.4668610">
        <ele>725.1</ele>
        <time>2019-08-15T11:03:04Z</time>
      </trkpt>
      <trkpt lat="41.8896050" lon="-5.4669160">
        <ele>725.2</ele>
        <time>2019-08-15T11:03:05Z</time>
      </trkpt>
      <trkpt lat="41.8896480" lon="-5.4669690">
        <ele>725.2</ele>
        <time>2019-08-15T11:03:06Z</time>
      </trkpt>
      <trkpt lat="41.8896920" lon="-5.4670210">
        <ele>725.3</ele>
        <time>2019-08-15T11:03:07Z</time>
      </trkpt>
      <trkpt lat="41.8897350" lon="-5.4670730">
        <ele>725.4</ele>
        <time>2019-08-15T11:03:08Z</time>
      </trkpt>
      <trkpt lat="41.8897780" lon="-5.4671230">
        <ele>725.5</ele>
        <time>2019-08-15T11:03:09Z</time>
      </trkpt>
      <trkpt lat="41.8898200" lon="-5.4671740">
        <ele>725.6</ele>
        <time>2019-08-15T11:03:10Z</time>
      </trkpt>
      <trkpt lat="41.8898620" lon="-5.4672240">
        <ele>725.7</ele>
        <time>2019-08-15T11:03:11Z</time>
      </trkpt>
      <trkpt lat="41.8899030" lon="-5.4672760">
        <ele>725.8</ele>
        <time>2019-08-15T11:03:12Z</time>
      </trkpt>
      <trkpt lat="41.8899430" lon="-5.4673270">
        <ele>725.9</ele>
        <time>2019-08-15T11:03:13Z</time>
      </trkpt>
      <trkpt lat="41.8899810" lon="-5.4673780">
        <ele>726.0</ele>
        <time>2019-08-15T11:03:14Z</time>
      </trkpt>
      <trkpt lat="41.8900210" lon="-5.4674300">
        <ele>726.2</ele>
        <time>2019-08-15T11:03:15Z</time>
      </trkpt>
      <trkpt lat="41.8900620" lon="-5.4674820">
        <ele>726.3</ele>
        <time>2019-08-15T11:03:16Z</time>
      </trkpt>
      <trkpt lat="41.8901020" lon="-5.4675330">
        <ele>726.5</ele>
        <time>2019-08-15T11:03:17Z</time>
      </trkpt>
      <trkpt lat="41.8901420" lon="-5.4675850">
        <ele>726.6</ele>
        <time>2019-08-15T11:03:18Z</time>
      </trkpt>
      <trkpt lat="41.8901820" lon="-5.4676370">
        <ele>726.8</ele>
        <time>2019-08-15T11:03:19Z</time>
      </trkpt>
      <trkpt lat="41.8902220" lon="-5.4676900">
        <ele>727.0</ele>
        <time>2019-08-15T11:03:20Z</time>
      </trkpt>
      <trkpt lat="41.8902600" lon="-5.4677440">
        <ele>727.1</ele>
        <time>2019-08-15T11:03:21Z</time>
      </trkpt>
      <trkpt lat="41.8902980" lon="-5.4677950">
        <ele>727.2</ele>
        <time>2019-08-15T11:03:22Z</time>
      </trkpt>
      <trkpt lat="41.8903350" lon="-5.4678470">
        <ele>727.3</ele>
        <time>2019-08-15T11:03:23Z</time>
      </trkpt>
      <trkpt lat="41.8903740" lon="-5.4678990">
        <ele>727.3</ele>
        <time>2019-08-15T11:03:24Z</time>
      </trkpt>
      <trkpt lat="41.8904130" lon="-5.4679510">
        <ele>727.4</ele>
        <time>2019-08-15T11:03:25Z</time>
      </trkpt>
      <trkpt lat="41.8904520" lon="-5.4680060">
        <ele>727.5</ele>
        <time>2019-08-15T11:03:26Z</time>
      </trkpt>
      <trkpt lat="41.8904910" lon="-5.4680610">
        <ele>727.6</ele>
        <time>2019-08-15T11:03:27Z</time>
      </trkpt>
      <trkpt lat="41.8905290" lon="-5.4681170">
        <ele>727.6</ele>
        <time>2019-08-15T11:03:28Z</time>
      </trkpt>
      <trkpt lat="41.8905690" lon="-5.4681720">
        <ele>727.6</ele>
        <time>2019-08-15T11:03:29Z</time>
      </trkpt>
      <trkpt lat="41.8906080" lon="-5.4682280">
        <ele>727.5</ele>
        <time>2019-08-15T11:03:30Z</time>
      </trkpt>
      <trkpt lat="41.8906480" lon="-5.4682860">
        <ele>727.4</ele>
        <time>2019-08-15T11:03:31Z</time>
      </trkpt>
      <trkpt lat="41.8906860" lon="-5.4683450">
        <ele>727.2</ele>
        <time>2019-08-15T11:03:32Z</time>
      </trkpt>
      <trkpt lat="41.8907260" lon="-5.4684050">
        <ele>727.0</ele>
        <time>2019-08-15T11:03:33Z</time>
      </trkpt>
      <trkpt lat="41.8907640" lon="-5.4684660">
        <ele>726.8</ele>
        <time>2019-08-15T11:03:34Z</time>
      </trkpt>
      <trkpt lat="41.8908010" lon="-5.4685280">
        <ele>726.6</ele>
        <time>2019-08-15T11:03:35Z</time>
      </trkpt>
      <trkpt lat="41.8908370" lon="-5.4685920">
        <ele>726.4</ele>
        <time>2019-08-15T11:03:36Z</time>
      </trkpt>
      <trkpt lat="41.8908720" lon="-5.4686580">
        <ele>726.2</ele>
        <time>2019-08-15T11:03:37Z</time>
      </trkpt>
      <trkpt lat="41.8909060" lon="-5.4687230">
        <ele>726.1</ele>
        <time>2019-08-15T11:03:38Z</time>
      </trkpt>
      <trkpt lat="41.8909400" lon="-5.4687890">
        <ele>725.9</ele>
        <time>2019-08-15T11:03:39Z</time>
      </trkpt>
      <trkpt lat="41.8909730" lon="-5.4688540">
        <ele>725.8</ele>
        <time>2019-08-15T11:03:40Z</time>
      </trkpt>
      <trkpt lat="41.8910050" lon="-5.4689200">
        <ele>725.8</ele>
        <time>2019-08-15T11:03:41Z</time>
      </trkpt>
      <trkpt lat="41.8910380" lon="-5.4689860">
        <ele>725.7</ele>
        <time>2019-08-15T11:03:42Z</time>
      </trkpt>
      <trkpt lat="41.8910720" lon="-5.4690540">
        <ele>725.6</ele>
        <time>2019-08-15T11:03:43Z</time>
      </trkpt>
      <trkpt lat="41.8911040" lon="-5.4691230">
        <ele>725.6</ele>
        <time>2019-08-15T11:03:44Z</time>
      </trkpt>
      <trkpt lat="41.8911370" lon="-5.4691900">
        <ele>725.6</ele>
        <time>2019-08-15T11:03:45Z</time>
      </trkpt>
      <trkpt lat="41.8911690" lon="-5.4692560">
        <ele>725.7</ele>
        <time>2019-08-15T11:03:46Z</time>
      </trkpt>
      <trkpt lat="41.8911980" lon="-5.4693180">
        <ele>725.7</ele>
        <time>2019-08-15T11:03:47Z</time>
      </trkpt>
      <trkpt lat="41.8912280" lon="-5.4693810">
        <ele>725.7</ele>
        <time>2019-08-15T11:03:48Z</time>
      </trkpt>
      <trkpt lat="41.8912600" lon="-5.4694450">
        <ele>725.8</ele>
        <time>2019-08-15T11:03:49Z</time>
      </trkpt>
      <trkpt lat="41.8912930" lon="-5.4695150">
        <ele>725.8</ele>
        <time>2019-08-15T11:03:50Z</time>
      </trkpt>
      <trkpt lat="41.8913260" lon="-5.4695840">
        <ele>725.8</ele>
        <time>2019-08-15T11:03:51Z</time>
      </trkpt>
      <trkpt lat="41.8913600" lon="-5.4696530">
        <ele>725.9</ele>
        <time>2019-08-15T11:03:52Z</time>
      </trkpt>
      <trkpt lat="41.8913940" lon="-5.4697230">
        <ele>725.8</ele>
        <time>2019-08-15T11:03:53Z</time>
      </trkpt>
      <trkpt lat="41.8914260" lon="-5.4697890">
        <ele>725.8</ele>
        <time>2019-08-15T11:03:54Z</time>
      </trkpt>
      <trkpt lat="41.8914570" lon="-5.4698530">
        <ele>725.8</ele>
        <time>2019-08-15T11:03:55Z</time>
      </trkpt>
      <trkpt lat="41.8914880" lon="-5.4699150">
        <ele>725.8</ele>
        <time>2019-08-15T11:03:56Z</time>
      </trkpt>
      <trkpt lat="41.8915200" lon="-5.4699800">
        <ele>725.7</ele>
        <time>2019-08-15T11:03:57Z</time>
      </trkpt>
      <trkpt lat="41.8915510" lon="-5.4700460">
        <ele>725.7</ele>
        <time>2019-08-15T11:03:58Z</time>
      </trkpt>
      <trkpt lat="41.8915830" lon="-5.4701150">
        <ele>725.6</ele>
        <time>2019-08-15T11:03:59Z</time>
      </trkpt>
      <trkpt lat="41.8916150" lon="-5.4701840">
        <ele>725.6</ele>
        <time>2019-08-15T11:04:00Z</time>
      </trkpt>
      <trkpt lat="41.8916470" lon="-5.4702540">
        <ele>725.5</ele>
        <time>2019-08-15T11:04:01Z</time>
      </trkpt>
      <trkpt lat="41.8916800" lon="-5.4703230">
        <ele>725.4</ele>
        <time>2019-08-15T11:04:02Z</time>
      </trkpt>
      <trkpt lat="41.8917130" lon="-5.4703910">
        <ele>725.3</ele>
        <time>2019-08-15T11:04:03Z</time>
      </trkpt>
      <trkpt lat="41.8917470" lon="-5.4704610">
        <ele>725.2</ele>
        <time>2019-08-15T11:04:04Z</time>
      </trkpt>
      <trkpt lat="41.8917810" lon="-5.4705320">
        <ele>725.1</ele>
        <time>2019-08-15T11:04:05Z</time>
      </trkpt>
      <trkpt lat="41.8918150" lon="-5.4706050">
        <ele>724.9</ele>
        <time>2019-08-15T11:04:06Z</time>
      </trkpt>
      <trkpt lat="41.8918490" lon="-5.4706780">
        <ele>724.7</ele>
        <time>2019-08-15T11:04:07Z</time>
      </trkpt>
      <trkpt lat="41.8918820" lon="-5.4707500">
        <ele>724.5</ele>
        <time>2019-08-15T11:04:08Z</time>
      </trkpt>
      <trkpt lat="41.8919160" lon="-5.4708220">
        <ele>724.1</ele>
        <time>2019-08-15T11:04:09Z</time>
      </trkpt>
      <trkpt lat="41.8919500" lon="-5.4708940">
        <ele>723.8</ele>
        <time>2019-08-15T11:04:10Z</time>
      </trkpt>
      <trkpt lat="41.8919860" lon="-5.4709680">
        <ele>723.5</ele>
        <time>2019-08-15T11:04:11Z</time>
      </trkpt>
      <trkpt lat="41.8920210" lon="-5.4710440">
        <ele>723.3</ele>
        <time>2019-08-15T11:04:12Z</time>
      </trkpt>
      <trkpt lat="41.8920550" lon="-5.4711180">
        <ele>723.0</ele>
        <time>2019-08-15T11:04:13Z</time>
      </trkpt>
      <trkpt lat="41.8920910" lon="-5.4711930">
        <ele>722.7</ele>
        <time>2019-08-15T11:04:14Z</time>
      </trkpt>
      <trkpt lat="41.8921280" lon="-5.4712670">
        <ele>722.6</ele>
        <time>2019-08-15T11:04:15Z</time>
      </trkpt>
      <trkpt lat="41.8921650" lon="-5.4713440">
        <ele>722.4</ele>
        <time>2019-08-15T11:04:16Z</time>
      </trkpt>
      <trkpt lat="41.8922020" lon="-5.4714220">
        <ele>722.2</ele>
        <time>2019-08-15T11:04:17Z</time>
      </trkpt>
      <trkpt lat="41.8922370" lon="-5.4715010">
        <ele>722.1</ele>
        <time>2019-08-15T11:04:18Z</time>
      </trkpt>
      <trkpt lat="41.8922720" lon="-5.4715790">
        <ele>722.0</ele>
        <time>2019-08-15T11:04:19Z</time>
      </trkpt>
      <trkpt lat="41.8923080" lon="-5.4716570">
        <ele>721.9</ele>
        <time>2019-08-15T11:04:20Z</time>
      </trkpt>
      <trkpt lat="41.8923440" lon="-5.4717340">
        <ele>721.7</ele>
        <time>2019-08-15T11:04:21Z</time>
      </trkpt>
      <trkpt lat="41.8923780" lon="-5.4718120">
        <ele>721.6</ele>
        <time>2019-08-15T11:04:22Z</time>
      </trkpt>
      <trkpt lat="41.8924140" lon="-5.4718890">
        <ele>721.5</ele>
        <time>2019-08-15T11:04:23Z</time>
      </trkpt>
      <trkpt lat="41.8924490" lon="-5.4719650">
        <ele>721.4</ele>
        <time>2019-08-15T11:04:24Z</time>
      </trkpt>
      <trkpt lat="41.8924840" lon="-5.4720420">
        <ele>721.2</ele>
        <time>2019-08-15T11:04:25Z</time>
      </trkpt>
      <trkpt lat="41.8925190" lon="-5.4721170">
        <ele>721.1</ele>
        <time>2019-08-15T11:04:26Z</time>
      </trkpt>
      <trkpt lat="41.8925530" lon="-5.4721930">
        <ele>720.9</ele>
        <time>2019-08-15T11:04:27Z</time>
      </trkpt>
      <trkpt lat="41.8925870" lon="-5.4722690">
        <ele>720.8</ele>
        <time>2019-08-15T11:04:28Z</time>
      </trkpt>
      <trkpt lat="41.8926220" lon="-5.4723430">
        <ele>720.7</ele>
        <time>2019-08-15T11:04:29Z</time>
      </trkpt>
      <trkpt lat="41.8926560" lon="-5.4724180">
        <ele>720.6</ele>
        <time>2019-08-15T11:04:30Z</time>
      </trkpt>
      <trkpt lat="41.8926880" lon="-5.4724940">
        <ele>720.5</ele>
        <time>2019-08-15T11:04:31Z</time>
      </trkpt>
      <trkpt lat="41.8927200" lon="-5.4725700">
        <ele>720.5</ele>
        <time>2019-08-15T11:04:32Z</time>
      </trkpt>
      <trkpt lat="41.8927520" lon="-5.4726450">
        <ele>720.4</ele>
        <time>2019-08-15T11:04:33Z</time>
      </trkpt>
      <trkpt lat="41.8927850" lon="-5.4727200">
        <ele>720.4</ele>
        <time>2019-08-15T11:04:34Z</time>
      </trkpt>
      <trkpt lat="41.8928170" lon="-5.4727910">
        <ele>720.3</ele>
        <time>2019-08-15T11:04:35Z</time>
      </trkpt>
      <trkpt lat="41.8928480" lon="-5.4728610">
        <ele>720.3</ele>
        <time>2019-08-15T11:04:36Z</time>
      </trkpt>
      <trkpt lat="41.8928800" lon="-5.4729280">
        <ele>720.3</ele>
        <time>2019-08-15T11:04:37Z</time>
      </trkpt>
      <trkpt lat="41.8929140" lon="-5.4729920">
        <ele>720.2</ele>
        <time>2019-08-15T11:04:38Z</time>
      </trkpt>
      <trkpt lat="41.8929500" lon="-5.4730520">
        <ele>720.1</ele>
        <time>2019-08-15T11:04:39Z</time>
      </trkpt>
      <trkpt lat="41.8929870" lon="-5.4731100">
        <ele>720.0</ele>
        <time>2019-08-15T11:04:40Z</time>
      </trkpt>
      <trkpt lat="41.8930240" lon="-5.4731650">
        <ele>719.9</ele>
        <time>2019-08-15T11:04:41Z</time>
      </trkpt>
      <trkpt lat="41.8930640" lon="-5.4732170">
        <ele>719.8</ele>
        <time>2019-08-15T11:04:42Z</time>
      </trkpt>
      <trkpt lat="41.8931040" lon="-5.4732690">
        <ele>719.7</ele>
        <time>2019-08-15T11:04:43Z</time>
      </trkpt>
      <trkpt lat="41.8931440" lon="-5.4733250">
        <ele>719.6</ele>
        <time>2019-08-15T11:04:44Z</time>
      </trkpt>
      <trkpt lat="41.8931790" lon="-5.4733780">
        <ele>719.5</ele>
        <time>2019-08-15T11:04:45Z</time>
      </trkpt>
      <trkpt lat="41.8932110" lon="-5.4734210">
        <ele>719.4</ele>
        <time>2019-08-15T11:04:46Z</time>
      </trkpt>
      <trkpt lat="41.8932430" lon="-5.4734510">
        <ele>719.4</ele>
        <time>2019-08-15T11:04:47Z</time>
      </trkpt>
      <trkpt lat="41.8932750" lon="-5.4734730">
        <ele>719.4</ele>
        <time>2019-08-15T11:04:48Z</time>
      </trkpt>
      <trkpt lat="41.8933060" lon="-5.4734920">
        <ele>719.4</ele>
        <time>2019-08-15T11:04:49Z</time>
      </trkpt>
      <trkpt lat="41.8933370" lon="-5.4735180">
        <ele>719.4</ele>
        <time>2019-08-15T11:04:50Z</time>
      </trkpt>
      <trkpt lat="41.8933700" lon="-5.4735510">
        <ele>719.4</ele>
        <time>2019-08-15T11:04:51Z</time>
      </trkpt>
      <trkpt lat="41.8934050" lon="-5.4735920">
        <ele>719.4</ele>
        <time>2019-08-15T11:04:52Z</time>
      </trkpt>
      <trkpt lat="41.8934410" lon="-5.4736400">
        <ele>719.5</ele>
        <time>2019-08-15T11:04:53Z</time>
      </trkpt>
      <trkpt lat="41.8934760" lon="-5.4736950">
        <ele>719.6</ele>
        <time>2019-08-15T11:04:54Z</time>
      </trkpt>
      <trkpt lat="41.8935120" lon="-5.4737540">
        <ele>719.7</ele>
        <time>2019-08-15T11:04:55Z</time>
      </trkpt>
      <trkpt lat="41.8935460" lon="-5.4738180">
        <ele>719.8</ele>
        <time>2019-08-15T11:04:56Z</time>
      </trkpt>
      <trkpt lat="41.8935810" lon="-5.4738870">
        <ele>720.0</ele>
        <time>2019-08-15T11:04:57Z</time>
      </trkpt>
      <trkpt lat="41.8936180" lon="-5.4739580">
        <ele>720.1</ele>
        <time>2019-08-15T11:04:58Z</time>
      </trkpt>
      <trkpt lat="41.8936570" lon="-5.4740300">
        <ele>720.3</ele>
        <time>2019-08-15T11:04:59Z</time>
      </trkpt>
      <trkpt lat="41.8936960" lon="-5.4741040">
        <ele>720.4</ele>
        <time>2019-08-15T11:05:00Z</time>
      </trkpt>
      <trkpt lat="41.8937350" lon="-5.4741800">
        <ele>720.4</ele>
        <time>2019-08-15T11:05:01Z</time>
      </trkpt>
      <trkpt lat="41.8937760" lon="-5.4742580">
        <ele>720.5</ele>
        <time>2019-08-15T11:05:02Z</time>
      </trkpt>
      <trkpt lat="41.8938180" lon="-5.4743370">
        <ele>720.5</ele>
        <time>2019-08-15T11:05:03Z</time>
      </trkpt>
      <trkpt lat="41.8938620" lon="-5.4744170">
        <ele>720.6</ele>
        <time>2019-08-15T11:05:04Z</time>
      </trkpt>
      <trkpt lat="41.8939060" lon="-5.4744990">
        <ele>720.6</ele>
        <time>2019-08-15T11:05:05Z</time>
      </trkpt>
      <trkpt lat="41.8939520" lon="-5.4745820">
        <ele>720.5</ele>
        <time>2019-08-15T11:05:06Z</time>
      </trkpt>
      <trkpt lat="41.8939990" lon="-5.4746630">
        <ele>720.5</ele>
        <time>2019-08-15T11:05:07Z</time>
      </trkpt>
      <trkpt lat="41.8940450" lon="-5.4747430">
        <ele>720.4</ele>
        <time>2019-08-15T11:05:08Z</time>
      </trkpt>
      <trkpt lat="41.8940930" lon="-5.4748210">
        <ele>720.3</ele>
        <time>2019-08-15T11:05:09Z</time>
      </trkpt>
      <trkpt lat="41.8941400" lon="-5.4748990">
        <ele>720.2</ele>
        <time>2019-08-15T11:05:10Z</time>
      </trkpt>
      <trkpt lat="41.8941870" lon="-5.4749770">
        <ele>720.0</ele>
        <time>2019-08-15T11:05:11Z</time>
      </trkpt>
      <trkpt lat="41.8942350" lon="-5.4750520">
        <ele>719.8</ele>
        <time>2019-08-15T11:05:12Z</time>
      </trkpt>
      <trkpt lat="41.8942840" lon="-5.4751260">
        <ele>719.5</ele>
        <time>2019-08-15T11:05:13Z</time>
      </trkpt>
      <trkpt lat="41.8943330" lon="-5.4751980">
        <ele>719.2</ele>
        <time>2019-08-15T11:05:14Z</time>
      </trkpt>
      <trkpt lat="41.8943820" lon="-5.4752710">
        <ele>718.9</ele>
        <time>2019-08-15T11:05:15Z</time>
      </trkpt>
      <trkpt lat="41.8944330" lon="-5.4753420">
        <ele>718.6</ele>
        <time>2019-08-15T11:05:16Z</time>
      </trkpt>
      <trkpt lat="41.8944840" lon="-5.4754140">
        <ele>718.2</ele>
        <time>2019-08-15T11:05:17Z</time>
      </trkpt>
      <trkpt lat="41.8945340" lon="-5.4754840">
        <ele>717.8</ele>
        <time>2019-08-15T11:05:18Z</time>
      </trkpt>
      <trkpt lat="41.8945850" lon="-5.4755530">
        <ele>717.5</ele>
        <time>2019-08-15T11:05:19Z</time>
      </trkpt>
      <trkpt lat="41.8946350" lon="-5.4756230">
        <ele>717.2</ele>
        <time>2019-08-15T11:05:20Z</time>
      </trkpt>
      <trkpt lat="41.8946870" lon="-5.4756920">
        <ele>716.9</ele>
        <time>2019-08-15T11:05:21Z</time>
      </trkpt>
      <trkpt lat="41.8947400" lon="-5.4757630">
        <ele>716.7</ele>
        <time>2019-08-15T11:05:22Z</time>
      </trkpt>
      <trkpt lat="41.8947930" lon="-5.4758350">
        <ele>716.5</ele>
        <time>2019-08-15T11:05:23Z</time>
      </trkpt>
      <trkpt lat="41.8948500" lon="-5.4759050">
        <ele>716.4</ele>
        <time>2019-08-15T11:05:24Z</time>
      </trkpt>
      <trkpt lat="41.8949080" lon="-5.4759760">
        <ele>716.2</ele>
        <time>2019-08-15T11:05:25Z</time>
      </trkpt>
      <trkpt lat="41.8949650" lon="-5.4760480">
        <ele>716.1</ele>
        <time>2019-08-15T11:05:26Z</time>
      </trkpt>
      <trkpt lat="41.8950240" lon="-5.4761170">
        <ele>715.9</ele>
        <time>2019-08-15T11:05:27Z</time>
      </trkpt>
      <trkpt lat="41.8950830" lon="-5.4761850">
        <ele>715.7</ele>
        <time>2019-08-15T11:05:28Z</time>
      </trkpt>
      <trkpt lat="41.8951430" lon="-5.4762520">
        <ele>715.6</ele>
        <time>2019-08-15T11:05:29Z</time>
      </trkpt>
      <trkpt lat="41.8952010" lon="-5.4763190">
        <ele>715.5</ele>
        <time>2019-08-15T11:05:30Z</time>
      </trkpt>
      <trkpt lat="41.8952590" lon="-5.4763840">
        <ele>715.4</ele>
        <time>2019-08-15T11:05:31Z</time>
      </trkpt>
      <trkpt lat="41.8953160" lon="-5.4764500">
        <ele>715.3</ele>
        <time>2019-08-15T11:05:32Z</time>
      </trkpt>
      <trkpt lat="41.8953730" lon="-5.4765140">
        <ele>715.2</ele>
        <time>2019-08-15T11:05:33Z</time>
      </trkpt>
      <trkpt lat="41.8954300" lon="-5.4765780">
        <ele>715.0</ele>
        <time>2019-08-15T11:05:34Z</time>
      </trkpt>
      <trkpt lat="41.8954880" lon="-5.4766420">
        <ele>714.8</ele>
        <time>2019-08-15T11:05:35Z</time>
      </trkpt>
      <trkpt lat="41.8955450" lon="-5.4767060">
        <ele>714.6</ele>
        <time>2019-08-15T11:05:36Z</time>
      </trkpt>
      <trkpt lat="41.8956030" lon="-5.4767700">
        <ele>714.3</ele>
        <time>2019-08-15T11:05:37Z</time>
      </trkpt>
      <trkpt lat="41.8956620" lon="-5.4768340">
        <ele>714.1</ele>
        <time>2019-08-15T11:05:38Z</time>
      </trkpt>
      <trkpt lat="41.8957210" lon="-5.4768980">
        <ele>713.9</ele>
        <time>2019-08-15T11:05:39Z</time>
      </trkpt>
      <trkpt lat="41.8957790" lon="-5.4769620">
        <ele>713.7</ele>
        <time>2019-08-15T11:05:40Z</time>
      </trkpt>
      <trkpt lat="41.8958370" lon="-5.4770270">
        <ele>713.4</ele>
        <time>2019-08-15T11:05:41Z</time>
      </trkpt>
      <trkpt lat="41.8958930" lon="-5.4770900">
        <ele>713.3</ele>
        <time>2019-08-15T11:05:42Z</time>
      </trkpt>
      <trkpt lat="41.8959500" lon="-5.4771550">
        <ele>713.1</ele>
        <time>2019-08-15T11:05:43Z</time>
      </trkpt>
      <trkpt lat="41.8960080" lon="-5.4772170">
        <ele>713.0</ele>
        <time>2019-08-15T11:05:44Z</time>
      </trkpt>
      <trkpt lat="41.8960650" lon="-5.4772800">
        <ele>713.0</ele>
        <time>2019-08-15T11:05:45Z</time>
      </trkpt>
      <trkpt lat="41.8961220" lon="-5.4773440">
        <ele>712.9</ele>
        <time>2019-08-15T11:05:46Z</time>
      </trkpt>
      <trkpt lat="41.8961770" lon="-5.4774090">
        <ele>712.9</ele>
        <time>2019-08-15T11:05:47Z</time>
      </trkpt>
      <trkpt lat="41.8962330" lon="-5.4774730">
        <ele>712.9</ele>
        <time>2019-08-15T11:05:48Z</time>
      </trkpt>
      <trkpt lat="41.8962890" lon="-5.4775340">
        <ele>712.8</ele>
        <time>2019-08-15T11:05:49Z</time>
      </trkpt>
      <trkpt lat="41.8963430" lon="-5.4775940">
        <ele>712.8</ele>
        <time>2019-08-15T11:05:50Z</time>
      </trkpt>
      <trkpt lat="41.8963950" lon="-5.4776550">
        <ele>712.8</ele>
        <time>2019-08-15T11:05:51Z</time>
      </trkpt>
      <trkpt lat="41.8964460" lon="-5.4777150">
        <ele>712.8</ele>
        <time>2019-08-15T11:05:52Z</time>
      </trkpt>
      <trkpt lat="41.8964970" lon="-5.4777710">
        <ele>712.7</ele>
        <time>2019-08-15T11:05:53Z</time>
      </trkpt>
      <trkpt lat="41.8965490" lon="-5.4778280">
        <ele>712.7</ele>
        <time>2019-08-15T11:05:54Z</time>
      </trkpt>
      <trkpt lat="41.8966020" lon="-5.4778850">
        <ele>712.6</ele>
        <time>2019-08-15T11:05:55Z</time>
      </trkpt>
      <trkpt lat="41.8966560" lon="-5.4779430">
        <ele>712.6</ele>
        <time>2019-08-15T11:05:56Z</time>
      </trkpt>
      <trkpt lat="41.8967100" lon="-5.4780040">
        <ele>712.5</ele>
        <time>2019-08-15T11:05:57Z</time>
      </trkpt>
      <trkpt lat="41.8967640" lon="-5.4780660">
        <ele>712.5</ele>
        <time>2019-08-15T11:05:58Z</time>
      </trkpt>
      <trkpt lat="41.8968200" lon="-5.4781290">
        <ele>712.4</ele>
        <time>2019-08-15T11:05:59Z</time>
      </trkpt>
      <trkpt lat="41.8968740" lon="-5.4781910">
        <ele>712.4</ele>
        <time>2019-08-15T11:06:00Z</time>
      </trkpt>
      <trkpt lat="41.8969250" lon="-5.4782530">
        <ele>712.3</ele>
        <time>2019-08-15T11:06:01Z</time>
      </trkpt>
      <trkpt lat="41.8969760" lon="-5.4783130">
        <ele>712.3</ele>
        <time>2019-08-15T11:06:02Z</time>
      </trkpt>
      <trkpt lat="41.8970270" lon="-5.4783690">
        <ele>712.3</ele>
        <time>2019-08-15T11:06:03Z</time>
      </trkpt>
      <trkpt lat="41.8970760" lon="-5.4784240">
        <ele>712.3</ele>
        <time>2019-08-15T11:06:04Z</time>
      </trkpt>
      <trkpt lat="41.8971230" lon="-5.4784790">
        <ele>712.3</ele>
        <time>2019-08-15T11:06:05Z</time>
      </trkpt>
      <trkpt lat="41.8971710" lon="-5.4785330">
        <ele>712.3</ele>
        <time>2019-08-15T11:06:06Z</time>
      </trkpt>
      <trkpt lat="41.8972210" lon="-5.4785870">
        <ele>712.3</ele>
        <time>2019-08-15T11:06:07Z</time>
      </trkpt>
      <trkpt lat="41.8972720" lon="-5.4786420">
        <ele>712.3</ele>
        <time>2019-08-15T11:06:08Z</time>
      </trkpt>
      <trkpt lat="41.8973240" lon="-5.4787000">
        <ele>712.3</ele>
        <time>2019-08-15T11:06:09Z</time>
      </trkpt>
      <trkpt lat="41.8973760" lon="-5.4787590">
        <ele>712.3</ele>
        <time>2019-08-15T11:06:10Z</time>
      </trkpt>
      <trkpt lat="41.8974290" lon="-5.4788190">
        <ele>712.3</ele>
        <time>2019-08-15T11:06:11Z</time>
      </trkpt>
      <trkpt lat="41.8974820" lon="-5.4788770">
        <ele>712.2</ele>
        <time>2019-08-15T11:06:12Z</time>
      </trkpt>
      <trkpt lat="41.8975320" lon="-5.4789340">
        <ele>712.2</ele>
        <time>2019-08-15T11:06:13Z</time>
      </trkpt>
      <trkpt lat="41.8975800" lon="-5.4789910">
        <ele>712.1</ele>
        <time>2019-08-15T11:06:14Z</time>
      </trkpt>
      <trkpt lat="41.8976280" lon="-5.4790470">
        <ele>711.9</ele>
        <time>2019-08-15T11:06:15Z</time>
      </trkpt>
      <trkpt lat="41.8976760" lon="-5.4790970">
        <ele>711.7</ele>
        <time>2019-08-15T11:06:16Z</time>
      </trkpt>
      <trkpt lat="41.8977240" lon="-5.4791460">
        <ele>711.6</ele>
        <time>2019-08-15T11:06:17Z</time>
      </trkpt>
      <trkpt lat="41.8977730" lon="-5.4791960">
        <ele>711.5</ele>
        <time>2019-08-15T11:06:18Z</time>
      </trkpt>
      <trkpt lat="41.8978220" lon="-5.4792490">
        <ele>711.3</ele>
        <time>2019-08-15T11:06:19Z</time>
      </trkpt>
      <trkpt lat="41.8978710" lon="-5.4793020">
        <ele>711.2</ele>
        <time>2019-08-15T11:06:20Z</time>
      </trkpt>
      <trkpt lat="41.8979200" lon="-5.4793550">
        <ele>711.0</ele>
        <time>2019-08-15T11:06:21Z</time>
      </trkpt>
      <trkpt lat="41.8979670" lon="-5.4794110">
        <ele>710.9</ele>
        <time>2019-08-15T11:06:22Z</time>
      </trkpt>
      <trkpt lat="41.8980150" lon="-5.4794650">
        <ele>710.8</ele>
        <time>2019-08-15T11:06:23Z</time>
      </trkpt>
      <trkpt lat="41.8980610" lon="-5.4795160">
        <ele>710.8</ele>
        <time>2019-08-15T11:06:24Z</time>
      </trkpt>
      <trkpt lat="41.8981060" lon="-5.4795670">
        <ele>710.7</ele>
        <time>2019-08-15T11:06:25Z</time>
      </trkpt>
      <trkpt lat="41.8981530" lon="-5.4796180">
        <ele>710.6</ele>
        <time>2019-08-15T11:06:26Z</time>
      </trkpt>
      <trkpt lat="41.8982020" lon="-5.4796700">
        <ele>710.4</ele>
        <time>2019-08-15T11:06:27Z</time>
      </trkpt>
      <trkpt lat="41.8982510" lon="-5.4797230">
        <ele>710.3</ele>
        <time>2019-08-15T11:06:28Z</time>
      </trkpt>
      <trkpt lat="41.8983010" lon="-5.4797780">
        <ele>710.1</ele>
        <time>2019-08-15T11:06:29Z</time>
      </trkpt>
      <trkpt lat="41.8983510" lon="-5.4798350">
        <ele>710.0</ele>
        <time>2019-08-15T11:06:30Z</time>
      </trkpt>
      <trkpt lat="41.8984000" lon="-5.4798920">
        <ele>709.8</ele>
        <time>2019-08-15T11:06:31Z</time>
      </trkpt>
      <trkpt lat="41.8984480" lon="-5.4799490">
        <ele>709.7</ele>
        <time>2019-08-15T11:06:32Z</time>
      </trkpt>
      <trkpt lat="41.8984960" lon="-5.4800060">
        <ele>709.6</ele>
        <time>2019-08-15T11:06:33Z</time>
      </trkpt>
      <trkpt lat="41.8985450" lon="-5.4800630">
        <ele>709.5</ele>
        <time>2019-08-15T11:06:34Z</time>
      </trkpt>
      <trkpt lat="41.8985950" lon="-5.4801180">
        <ele>709.4</ele>
        <time>2019-08-15T11:06:35Z</time>
      </trkpt>
      <trkpt lat="41.8986450" lon="-5.4801740">
        <ele>709.3</ele>
        <time>2019-08-15T11:06:36Z</time>
      </trkpt>
      <trkpt lat="41.8986940" lon="-5.4802290">
        <ele>709.2</ele>
        <time>2019-08-15T11:06:37Z</time>
      </trkpt>
      <trkpt lat="41.8987460" lon="-5.4802840">
        <ele>709.1</ele>
        <time>2019-08-15T11:06:38Z</time>
      </trkpt>
      <trkpt lat="41.8987980" lon="-5.4803410">
        <ele>709.1</ele>
        <time>2019-08-15T11:06:39Z</time>
      </trkpt>
      <trkpt lat="41.8988500" lon="-5.4803980">
        <ele>709.1</ele>
        <time>2019-08-15T11:06:40Z</time>
      </trkpt>
      <trkpt lat="41.8989020" lon="-5.4804560">
        <ele>709.0</ele>
        <time>2019-08-15T11:06:41Z</time>
      </trkpt>
      <trkpt lat="41.8989550" lon="-5.4805140">
        <ele>708.8</ele>
        <time>2019-08-15T11:06:42Z</time>
      </trkpt>
      <trkpt lat="41.8990070" lon="-5.4805740">
        <ele>708.6</ele>
        <time>2019-08-15T11:06:43Z</time>
      </trkpt>
      <trkpt lat="41.8990590" lon="-5.4806330">
        <ele>708.4</ele>
        <time>2019-08-15T11:06:44Z</time>
      </trkpt>
      <trkpt lat="41.8991120" lon="-5.4806910">
        <ele>708.1</ele>
        <time>2019-08-15T11:06:45Z</time>
      </trkpt>
      <trkpt lat="41.8991640" lon="-5.4807490">
        <ele>707.9</ele>
        <time>2019-08-15T11:06:46Z</time>
      </trkpt>
      <trkpt lat="41.8992170" lon="-5.4808080">
        <ele>707.6</ele>
        <time>2019-08-15T11:06:47Z</time>
      </trkpt>
      <trkpt lat="41.8992690" lon="-5.4808690">
        <ele>707.3</ele>
        <time>2019-08-15T11:06:48Z</time>
      </trkpt>
      <trkpt lat="41.8993220" lon="-5.4809290">
        <ele>707.0</ele>
        <time>2019-08-15T11:06:49Z</time>
      </trkpt>
      <trkpt lat="41.8993760" lon="-5.4809910">
        <ele>706.6</ele>
        <time>2019-08-15T11:06:50Z</time>
      </trkpt>
      <trkpt lat="41.8994290" lon="-5.4810520">
        <ele>706.4</ele>
        <time>2019-08-15T11:06:51Z</time>
      </trkpt>
      <trkpt lat="41.8994820" lon="-5.4811120">
        <ele>706.0</ele>
        <time>2019-08-15T11:06:52Z</time>
      </trkpt>
      <trkpt lat="41.8995340" lon="-5.4811710">
        <ele>705.6</ele>
        <time>2019-08-15T11:06:53Z</time>
      </trkpt>
      <trkpt lat="41.8995860" lon="-5.4812310">
        <ele>705.3</ele>
        <time>2019-08-15T11:06:54Z</time>
      </trkpt>
      <trkpt lat="41.8996380" lon="-5.4812900">
        <ele>705.0</ele>
        <time>2019-08-15T11:06:55Z</time>
      </trkpt>
      <trkpt lat="41.8996920" lon="-5.4813500">
        <ele>704.8</ele>
        <time>2019-08-15T11:06:56Z</time>
      </trkpt>
      <trkpt lat="41.8997460" lon="-5.4814120">
        <ele>704.6</ele>
        <time>2019-08-15T11:06:57Z</time>
      </trkpt>
      <trkpt lat="41.8998020" lon="-5.4814750">
        <ele>704.3</ele>
        <time>2019-08-15T11:06:58Z</time>
      </trkpt>
      <trkpt lat="41.8998620" lon="-5.4815350">
        <ele>704.2</ele>
        <time>2019-08-15T11:06:59Z</time>
      </trkpt>
      <trkpt lat="41.8999200" lon="-5.4815970">
        <ele>703.8</ele>
        <time>2019-08-15T11:07:00Z</time>
      </trkpt>
      <trkpt lat="41.8999700" lon="-5.4816590">
        <ele>703.5</ele>
        <time>2019-08-15T11:07:01Z</time>
      </trkpt>
      <trkpt lat="41.9000260" lon="-5.4817210">
        <ele>703.1</ele>
        <time>2019-08-15T11:07:02Z</time>
      </trkpt>
      <trkpt lat="41.9000850" lon="-5.4817800">
        <ele>702.6</ele>
        <time>2019-08-15T11:07:03Z</time>
      </trkpt>
      <trkpt lat="41.9001450" lon="-5.4818380">
        <ele>702.2</ele>
        <time>2019-08-15T11:07:04Z</time>
      </trkpt>
      <trkpt lat="41.9002030" lon="-5.4818990">
        <ele>702.0</ele>
        <time>2019-08-15T11:07:05Z</time>
      </trkpt>
      <trkpt lat="41.9002590" lon="-5.4819590">
        <ele>701.8</ele>
        <time>2019-08-15T11:07:06Z</time>
      </trkpt>
      <trkpt lat="41.9003120" lon="-5.4820170">
        <ele>701.6</ele>
        <time>2019-08-15T11:07:07Z</time>
      </trkpt>
      <trkpt lat="41.9003650" lon="-5.4820760">
        <ele>701.4</ele>
        <time>2019-08-15T11:07:08Z</time>
      </trkpt>
      <trkpt lat="41.9004180" lon="-5.4821340">
        <ele>701.3</ele>
        <time>2019-08-15T11:07:09Z</time>
      </trkpt>
      <trkpt lat="41.9004710" lon="-5.4821920">
        <ele>701.1</ele>
        <time>2019-08-15T11:07:10Z</time>
      </trkpt>
      <trkpt lat="41.9005250" lon="-5.4822550">
        <ele>700.9</ele>
        <time>2019-08-15T11:07:11Z</time>
      </trkpt>
      <trkpt lat="41.9005740" lon="-5.4823190">
        <ele>700.8</ele>
        <time>2019-08-15T11:07:12Z</time>
      </trkpt>
      <trkpt lat="41.9006240" lon="-5.4823850">
        <ele>700.6</ele>
        <time>2019-08-15T11:07:13Z</time>
      </trkpt>
      <trkpt lat="41.9006740" lon="-5.4824550">
        <ele>700.4</ele>
        <time>2019-08-15T11:07:14Z</time>
      </trkpt>
      <trkpt lat="41.9007250" lon="-5.4825250">
        <ele>700.2</ele>
        <time>2019-08-15T11:07:15Z</time>
      </trkpt>
      <trkpt lat="41.9007710" lon="-5.4825980">
        <ele>699.9</ele>
        <time>2019-08-15T11:07:16Z</time>
      </trkpt>
      <trkpt lat="41.9008140" lon="-5.4826730">
        <ele>699.7</ele>
        <time>2019-08-15T11:07:17Z</time>
      </trkpt>
      <trkpt lat="41.9008580" lon="-5.4827410">
        <ele>699.4</ele>
        <time>2019-08-15T11:07:18Z</time>
      </trkpt>
      <trkpt lat="41.9009020" lon="-5.4828040">
        <ele>699.2</ele>
        <time>2019-08-15T11:07:19Z</time>
      </trkpt>
      <trkpt lat="41.9009450" lon="-5.4828680">
        <ele>699.0</ele>
        <time>2019-08-15T11:07:20Z</time>
      </trkpt>
      <trkpt lat="41.9009860" lon="-5.4829330">
        <ele>699.0</ele>
        <time>2019-08-15T11:07:21Z</time>
      </trkpt>
      <trkpt lat="41.9010230" lon="-5.4830000">
        <ele>698.9</ele>
        <time>2019-08-15T11:07:22Z</time>
      </trkpt>
      <trkpt lat="41.9010580" lon="-5.4830690">
        <ele>698.8</ele>
        <time>2019-08-15T11:07:23Z</time>
      </trkpt>
      <trkpt lat="41.9010930" lon="-5.4831390">
        <ele>698.6</ele>
        <time>2019-08-15T11:07:24Z</time>
      </trkpt>
      <trkpt lat="41.9011270" lon="-5.4832120">
        <ele>698.5</ele>
        <time>2019-08-15T11:07:25Z</time>
      </trkpt>
      <trkpt lat="41.9011570" lon="-5.4832860">
        <ele>698.4</ele>
        <time>2019-08-15T11:07:26Z</time>
      </trkpt>
      <trkpt lat="41.9011860" lon="-5.4833610">
        <ele>698.3</ele>
        <time>2019-08-15T11:07:27Z</time>
      </trkpt>
      <trkpt lat="41.9012170" lon="-5.4834330">
        <ele>698.2</ele>
        <time>2019-08-15T11:07:28Z</time>
      </trkpt>
      <trkpt lat="41.9012490" lon="-5.4835040">
        <ele>698.2</ele>
        <time>2019-08-15T11:07:29Z</time>
      </trkpt>
      <trkpt lat="41.9012790" lon="-5.4835750">
        <ele>698.1</ele>
        <time>2019-08-15T11:07:30Z</time>
      </trkpt>
      <trkpt lat="41.9013080" lon="-5.4836480">
        <ele>698.0</ele>
        <time>2019-08-15T11:07:31Z</time>
      </trkpt>
      <trkpt lat="41.9013380" lon="-5.4837230">
        <ele>698.0</ele>
        <time>2019-08-15T11:07:32Z</time>
      </trkpt>
      <trkpt lat="41.9013680" lon="-5.4837960">
        <ele>698.0</ele>
        <time>2019-08-15T11:07:33Z</time>
      </trkpt>
      <trkpt lat="41.9013990" lon="-5.4838700">
        <ele>697.9</ele>
        <time>2019-08-15T11:07:34Z</time>
      </trkpt>
      <trkpt lat="41.9014290" lon="-5.4839430">
        <ele>697.9</ele>
        <time>2019-08-15T11:07:35Z</time>
      </trkpt>
      <trkpt lat="41.9014590" lon="-5.4840160">
        <ele>697.9</ele>
        <time>2019-08-15T11:07:36Z</time>
      </trkpt>
      <trkpt lat="41.9014880" lon="-5.4840860">
        <ele>697.9</ele>
        <time>2019-08-15T11:07:37Z</time>
      </trkpt>
      <trkpt lat="41.9015180" lon="-5.4841550">
        <ele>697.9</ele>
        <time>2019-08-15T11:07:38Z</time>
      </trkpt>
      <trkpt lat="41.9015470" lon="-5.4842250">
        <ele>697.9</ele>
        <time>2019-08-15T11:07:39Z</time>
      </trkpt>
      <trkpt lat="41.9015760" lon="-5.4842970">
        <ele>697.9</ele>
        <time>2019-08-15T11:07:40Z</time>
      </trkpt>
      <trkpt lat="41.9016060" lon="-5.4843690">
        <ele>697.9</ele>
        <time>2019-08-15T11:07:41Z</time>
      </trkpt>
      <trkpt lat="41.9016350" lon="-5.4844430">
        <ele>698.0</ele>
        <time>2019-08-15T11:07:42Z</time>
      </trkpt>
      <trkpt lat="41.9016650" lon="-5.4845140">
        <ele>698.0</ele>
        <time>2019-08-15T11:07:43Z</time>
      </trkpt>
      <trkpt lat="41.9016940" lon="-5.4845860">
        <ele>698.1</ele>
        <time>2019-08-15T11:07:44Z</time>
      </trkpt>
      <trkpt lat="41.9017230" lon="-5.4846600">
        <ele>698.1</ele>
        <time>2019-08-15T11:07:45Z</time>
      </trkpt>
      <trkpt lat="41.9017530" lon="-5.4847330">
        <ele>698.1</ele>
        <time>2019-08-15T11:07:46Z</time>
      </trkpt>
      <trkpt lat="41.9017820" lon="-5.4848070">
        <ele>698.3</ele>
        <time>2019-08-15T11:07:47Z</time>
      </trkpt>
      <trkpt lat="41.9018110" lon="-5.4848820">
        <ele>698.4</ele>
        <time>2019-08-15T11:07:48Z</time>
      </trkpt>
      <trkpt lat="41.9018390" lon="-5.4849550">
        <ele>698.5</ele>
        <time>2019-08-15T11:07:49Z</time>
      </trkpt>
      <trkpt lat="41.9018650" lon="-5.4850270">
        <ele>698.6</ele>
        <time>2019-08-15T11:07:50Z</time>
      </trkpt>
      <trkpt lat="41.9018930" lon="-5.4851000">
        <ele>698.7</ele>
        <time>2019-08-15T11:07:51Z</time>
      </trkpt>
      <trkpt lat="41.9019230" lon="-5.4851700">
        <ele>698.8</ele>
        <time>2019-08-15T11:07:52Z</time>
      </trkpt>
      <trkpt lat="41.9019530" lon="-5.4852420">
        <ele>698.9</ele>
        <time>2019-08-15T11:07:53Z</time>
      </trkpt>
      <trkpt lat="41.9019820" lon="-5.4853150">
        <ele>699.0</ele>
        <time>2019-08-15T11:07:54Z</time>
      </trkpt>
      <trkpt lat="41.9020120" lon="-5.4853890">
        <ele>699.2</ele>
        <time>2019-08-15T11:07:55Z</time>
      </trkpt>
      <trkpt lat="41.9020430" lon="-5.4854610">
        <ele>699.3</ele>
        <time>2019-08-15T11:07:56Z</time>
      </trkpt>
      <trkpt lat="41.9020730" lon="-5.4855350">
        <ele>699.4</ele>
        <time>2019-08-15T11:07:57Z</time>
      </trkpt>
      <trkpt lat="41.9021020" lon="-5.4856110">
        <ele>699.5</ele>
        <time>2019-08-15T11:07:58Z</time>
      </trkpt>
      <trkpt lat="41.9021310" lon="-5.4856850">
        <ele>699.7</ele>
        <time>2019-08-15T11:07:59Z</time>
      </trkpt>
      <trkpt lat="41.9021630" lon="-5.4857570">
        <ele>699.8</ele>
        <time>2019-08-15T11:08:00Z</time>
      </trkpt>
      <trkpt lat="41.9021970" lon="-5.4858280">
        <ele>699.9</ele>
        <time>2019-08-15T11:08:01Z</time>
      </trkpt>
      <trkpt lat="41.9022290" lon="-5.4858970">
        <ele>700.1</ele>
        <time>2019-08-15T11:08:02Z</time>
      </trkpt>
      <trkpt lat="41.9022600" lon="-5.4859680">
        <ele>700.3</ele>
        <time>2019-08-15T11:08:03Z</time>
      </trkpt>
      <trkpt lat="41.9022930" lon="-5.4860420">
        <ele>700.5</ele>
        <time>2019-08-15T11:08:04Z</time>
      </trkpt>
      <trkpt lat="41.9023250" lon="-5.4861100">
        <ele>700.5</ele>
        <time>2019-08-15T11:08:05Z</time>
      </trkpt>
      <trkpt lat="41.9023530" lon="-5.4861800">
        <ele>700.6</ele>
        <time>2019-08-15T11:08:06Z</time>
      </trkpt>
      <trkpt lat="41.9023830" lon="-5.4862490">
        <ele>700.9</ele>
        <time>2019-08-15T11:08:07Z</time>
      </trkpt>
      <trkpt lat="41.9024140" lon="-5.4863140">
        <ele>701.1</ele>
        <time>2019-08-15T11:08:08Z</time>
      </trkpt>
      <trkpt lat="41.9024430" lon="-5.4863750">
        <ele>701.3</ele>
        <time>2019-08-15T11:08:09Z</time>
      </trkpt>
      <trkpt lat="41.9024710" lon="-5.4864390">
        <ele>701.4</ele>
        <time>2019-08-15T11:08:10Z</time>
      </trkpt>
      <trkpt lat="41.9024990" lon="-5.4865080">
        <ele>701.7</ele>
        <time>2019-08-15T11:08:11Z</time>
      </trkpt>
      <trkpt lat="41.9025250" lon="-5.4865810">
        <ele>702.0</ele>
        <time>2019-08-15T11:08:12Z</time>
      </trkpt>
      <trkpt lat="41.9025520" lon="-5.4866500">
        <ele>702.0</ele>
        <time>2019-08-15T11:08:13Z</time>
      </trkpt>
      <trkpt lat="41.9025770" lon="-5.4867210">
        <ele>702.0</ele>
        <time>2019-08-15T11:08:14Z</time>
      </trkpt>
      <trkpt lat="41.9026010" lon="-5.4867970">
        <ele>702.1</ele>
        <time>2019-08-15T11:08:15Z</time>
      </trkpt>
      <trkpt lat="41.9026290" lon="-5.4868670">
        <ele>702.2</ele>
        <time>2019-08-15T11:08:16Z</time>
      </trkpt>
      <trkpt lat="41.9026560" lon="-5.4869330">
        <ele>702.3</ele>
        <time>2019-08-15T11:08:17Z</time>
      </trkpt>
      <trkpt lat="41.9026730" lon="-5.4869940">
        <ele>702.4</ele>
        <time>2019-08-15T11:08:18Z</time>
      </trkpt>
      <trkpt lat="41.9026930" lon="-5.4870570">
        <ele>702.4</ele>
        <time>2019-08-15T11:08:19Z</time>
      </trkpt>
      <trkpt lat="41.9027190" lon="-5.4871200">
        <ele>702.6</ele>
        <time>2019-08-15T11:08:20Z</time>
      </trkpt>
      <trkpt lat="41.9027460" lon="-5.4871890">
        <ele>702.6</ele>
        <time>2019-08-15T11:08:21Z</time>
      </trkpt>
      <trkpt lat="41.9027700" lon="-5.4872560">
        <ele>702.7</ele>
        <time>2019-08-15T11:08:22Z</time>
      </trkpt>
      <trkpt lat="41.9027950" lon="-5.4873220">
        <ele>702.8</ele>
        <time>2019-08-15T11:08:23Z</time>
      </trkpt>
      <trkpt lat="41.9028240" lon="-5.4873870">
        <ele>702.9</ele>
        <time>2019-08-15T11:08:24Z</time>
      </trkpt>
      <trkpt lat="41.9028510" lon="-5.4874520">
        <ele>703.1</ele>
        <time>2019-08-15T11:08:25Z</time>
      </trkpt>
      <trkpt lat="41.9028810" lon="-5.4875140">
        <ele>703.3</ele>
        <time>2019-08-15T11:08:26Z</time>
      </trkpt>
      <trkpt lat="41.9029100" lon="-5.4875750">
        <ele>703.4</ele>
        <time>2019-08-15T11:08:27Z</time>
      </trkpt>
      <trkpt lat="41.9029350" lon="-5.4876380">
        <ele>703.6</ele>
        <time>2019-08-15T11:08:28Z</time>
      </trkpt>
      <trkpt lat="41.9029550" lon="-5.4876940">
        <ele>703.6</ele>
        <time>2019-08-15T11:08:29Z</time>
      </trkpt>
      <trkpt lat="41.9029780" lon="-5.4877490">
        <ele>703.7</ele>
        <time>2019-08-15T11:08:30Z</time>
      </trkpt>
      <trkpt lat="41.9030070" lon="-5.4877980">
        <ele>703.8</ele>
        <time>2019-08-15T11:08:31Z</time>
      </trkpt>
      <trkpt lat="41.9030330" lon="-5.4878570">
        <ele>703.9</ele>
        <time>2019-08-15T11:08:32Z</time>
      </trkpt>
      <trkpt lat="41.9030630" lon="-5.4879140">
        <ele>704.0</ele>
        <time>2019-08-15T11:08:33Z</time>
      </trkpt>
      <trkpt lat="41.9030930" lon="-5.4879730">
        <ele>704.1</ele>
        <time>2019-08-15T11:08:34Z</time>
      </trkpt>
      <trkpt lat="41.9031210" lon="-5.4880320">
        <ele>704.2</ele>
        <time>2019-08-15T11:08:35Z</time>
      </trkpt>
      <trkpt lat="41.9031480" lon="-5.4880940">
        <ele>704.3</ele>
        <time>2019-08-15T11:08:36Z</time>
      </trkpt>
      <trkpt lat="41.9031760" lon="-5.4881560">
        <ele>704.3</ele>
        <time>2019-08-15T11:08:37Z</time>
      </trkpt>
      <trkpt lat="41.9032010" lon="-5.4882150">
        <ele>704.2</ele>
        <time>2019-08-15T11:08:38Z</time>
      </trkpt>
      <trkpt lat="41.9032240" lon="-5.4882780">
        <ele>704.1</ele>
        <time>2019-08-15T11:08:39Z</time>
      </trkpt>
      <trkpt lat="41.9032460" lon="-5.4883370">
        <ele>703.9</ele>
        <time>2019-08-15T11:08:40Z</time>
      </trkpt>
      <trkpt lat="41.9032700" lon="-5.4883930">
        <ele>703.8</ele>
        <time>2019-08-15T11:08:41Z</time>
      </trkpt>
      <trkpt lat="41.9032920" lon="-5.4884430">
        <ele>703.6</ele>
        <time>2019-08-15T11:08:42Z</time>
      </trkpt>
      <trkpt lat="41.9033140" lon="-5.4884930">
        <ele>703.4</ele>
        <time>2019-08-15T11:08:43Z</time>
      </trkpt>
      <trkpt lat="41.9033350" lon="-5.4885420">
        <ele>703.2</ele>
        <time>2019-08-15T11:08:44Z</time>
      </trkpt>
      <trkpt lat="41.9033620" lon="-5.4885930">
        <ele>703.0</ele>
        <time>2019-08-15T11:08:45Z</time>
      </trkpt>
      <trkpt lat="41.9033930" lon="-5.4886430">
        <ele>702.8</ele>
        <time>2019-08-15T11:08:46Z</time>
      </trkpt>
      <trkpt lat="41.9034240" lon="-5.4886940">
        <ele>702.6</ele>
        <time>2019-08-15T11:08:47Z</time>
      </trkpt>
      <trkpt lat="41.9034550" lon="-5.4887470">
        <ele>702.5</ele>
        <time>2019-08-15T11:08:48Z</time>
      </trkpt>
      <trkpt lat="41.9034850" lon="-5.4888020">
        <ele>702.5</ele>
        <time>2019-08-15T11:08:49Z</time>
      </trkpt>
      <trkpt lat="41.9035150" lon="-5.4888560">
        <ele>702.3</ele>
        <time>2019-08-15T11:08:50Z</time>
      </trkpt>
      <trkpt lat="41.9035440" lon="-5.4889100">
        <ele>702.2</ele>
        <time>2019-08-15T11:08:51Z</time>
      </trkpt>
      <trkpt lat="41.9035700" lon="-5.4889620">
        <ele>702.0</ele>
        <time>2019-08-15T11:08:52Z</time>
      </trkpt>
      <trkpt lat="41.9035950" lon="-5.4890110">
        <ele>701.9</ele>
        <time>2019-08-15T11:08:53Z</time>
      </trkpt>
      <trkpt lat="41.9036190" lon="-5.4890600">
        <ele>701.8</ele>
        <time>2019-08-15T11:08:54Z</time>
      </trkpt>
      <trkpt lat="41.9036450" lon="-5.4891140">
        <ele>701.6</ele>
        <time>2019-08-15T11:08:55Z</time>
      </trkpt>
      <trkpt lat="41.9036740" lon="-5.4891710">
        <ele>701.4</ele>
        <time>2019-08-15T11:08:56Z</time>
      </trkpt>
      <trkpt lat="41.9037020" lon="-5.4892270">
        <ele>701.3</ele>
        <time>2019-08-15T11:08:57Z</time>
      </trkpt>
      <trkpt lat="41.9037320" lon="-5.4892760">
        <ele>701.2</ele>
        <time>2019-08-15T11:08:58Z</time>
      </trkpt>
      <trkpt lat="41.9037600" lon="-5.4893250">
        <ele>701.2</ele>
        <time>2019-08-15T11:08:59Z</time>
      </trkpt>
      <trkpt lat="41.9037880" lon="-5.4893840">
        <ele>701.1</ele>
        <time>2019-08-15T11:09:00Z</time>
      </trkpt>
      <trkpt lat="41.9038190" lon="-5.4894360">
        <ele>701.1</ele>
        <time>2019-08-15T11:09:01Z</time>
      </trkpt>
      <trkpt lat="41.9038440" lon="-5.4894860">
        <ele>701.0</ele>
        <time>2019-08-15T11:09:02Z</time>
      </trkpt>
      <trkpt lat="41.9038670" lon="-5.4895370">
        <ele>701.1</ele>
        <time>2019-08-15T11:09:03Z</time>
      </trkpt>
      <trkpt lat="41.9038850" lon="-5.4895830">
        <ele>701.1</ele>
        <time>2019-08-15T11:09:04Z</time>
      </trkpt>
      <trkpt lat="41.9039120" lon="-5.4896320">
        <ele>701.1</ele>
        <time>2019-08-15T11:09:05Z</time>
      </trkpt>
      <trkpt lat="41.9039390" lon="-5.4896810">
        <ele>701.2</ele>
        <time>2019-08-15T11:09:06Z</time>
      </trkpt>
      <trkpt lat="41.9039630" lon="-5.4897290">
        <ele>701.3</ele>
        <time>2019-08-15T11:09:07Z</time>
      </trkpt>
      <trkpt lat="41.9039870" lon="-5.4897780">
        <ele>701.3</ele>
        <time>2019-08-15T11:09:08Z</time>
      </trkpt>
      <trkpt lat="41.9040130" lon="-5.4898280">
        <ele>701.4</ele>
        <time>2019-08-15T11:09:09Z</time>
      </trkpt>
      <trkpt lat="41.9040380" lon="-5.4898770">
        <ele>701.6</ele>
        <time>2019-08-15T11:09:10Z</time>
      </trkpt>
      <trkpt lat="41.9040600" lon="-5.4899290">
        <ele>701.7</ele>
        <time>2019-08-15T11:09:11Z</time>
      </trkpt>
      <trkpt lat="41.9040700" lon="-5.4899860">
        <ele>701.8</ele>
        <time>2019-08-15T11:09:12Z</time>
      </trkpt>
      <trkpt lat="41.9040690" lon="-5.4900440">
        <ele>701.9</ele>
        <time>2019-08-15T11:09:13Z</time>
      </trkpt>
      <trkpt lat="41.9040620" lon="-5.4900990">
        <ele>702.1</ele>
        <time>2019-08-15T11:09:14Z</time>
      </trkpt>
      <trkpt lat="41.9040570" lon="-5.4901530">
        <ele>702.2</ele>
        <time>2019-08-15T11:09:15Z</time>
      </trkpt>
      <trkpt lat="41.9040580" lon="-5.4902100">
        <ele>702.4</ele>
        <time>2019-08-15T11:09:16Z</time>
      </trkpt>
      <trkpt lat="41.9040700" lon="-5.4902620">
        <ele>702.5</ele>
        <time>2019-08-15T11:09:17Z</time>
      </trkpt>
      <trkpt lat="41.9040900" lon="-5.4903090">
        <ele>702.6</ele>
        <time>2019-08-15T11:09:18Z</time>
      </trkpt>
      <trkpt lat="41.9041120" lon="-5.4903550">
        <ele>702.7</ele>
        <time>2019-08-15T11:09:19Z</time>
      </trkpt>
      <trkpt lat="41.9041360" lon="-5.4904000">
        <ele>702.9</ele>
        <time>2019-08-15T11:09:20Z</time>
      </trkpt>
      <trkpt lat="41.9041590" lon="-5.4904480">
        <ele>703.0</ele>
        <time>2019-08-15T11:09:21Z</time>
      </trkpt>
      <trkpt lat="41.9041830" lon="-5.4904960">
        <ele>703.1</ele>
        <time>2019-08-15T11:09:22Z</time>
      </trkpt>
      <trkpt lat="41.9042070" lon="-5.4905440">
        <ele>703.2</ele>
        <time>2019-08-15T11:09:23Z</time>
      </trkpt>
      <trkpt lat="41.9042320" lon="-5.4905900">
        <ele>703.2</ele>
        <time>2019-08-15T11:09:24Z</time>
      </trkpt>
      <trkpt lat="41.9042570" lon="-5.4906370">
        <ele>703.3</ele>
        <time>2019-08-15T11:09:25Z</time>
      </trkpt>
      <trkpt lat="41.9042840" lon="-5.4906820">
        <ele>703.3</ele>
        <time>2019-08-15T11:09:26Z</time>
      </trkpt>
      <trkpt lat="41.9043080" lon="-5.4907270">
        <ele>703.3</ele>
        <time>2019-08-15T11:09:27Z</time>
      </trkpt>
      <trkpt lat="41.9043320" lon="-5.4907740">
        <ele>703.3</ele>
        <time>2019-08-15T11:09:28Z</time>
      </trkpt>
      <trkpt lat="41.9043540" lon="-5.4908200">
        <ele>703.3</ele>
        <time>2019-08-15T11:09:29Z</time>
      </trkpt>
      <trkpt lat="41.9043790" lon="-5.4908640">
        <ele>703.2</ele>
        <time>2019-08-15T11:09:30Z</time>
      </trkpt>
      <trkpt lat="41.9044020" lon="-5.4909070">
        <ele>703.2</ele>
        <time>2019-08-15T11:09:31Z</time>
      </trkpt>
      <trkpt lat="41.9044230" lon="-5.4909510">
        <ele>703.2</ele>
        <time>2019-08-15T11:09:32Z</time>
      </trkpt>
      <trkpt lat="41.9044450" lon="-5.4909960">
        <ele>703.1</ele>
        <time>2019-08-15T11:09:33Z</time>
      </trkpt>
      <trkpt lat="41.9044680" lon="-5.4910420">
        <ele>703.1</ele>
        <time>2019-08-15T11:09:34Z</time>
      </trkpt>
      <trkpt lat="41.9044910" lon="-5.4910860">
        <ele>703.1</ele>
        <time>2019-08-15T11:09:35Z</time>
      </trkpt>
      <trkpt lat="41.9045130" lon="-5.4911310">
        <ele>703.0</ele>
        <time>2019-08-15T11:09:36Z</time>
      </trkpt>
      <trkpt lat="41.9045340" lon="-5.4911760">
        <ele>703.0</ele>
        <time>2019-08-15T11:09:37Z</time>
      </trkpt>
      <trkpt lat="41.9045540" lon="-5.4912210">
        <ele>702.9</ele>
        <time>2019-08-15T11:09:38Z</time>
      </trkpt>
      <trkpt lat="41.9045750" lon="-5.4912660">
        <ele>702.9</ele>
        <time>2019-08-15T11:09:39Z</time>
      </trkpt>
      <trkpt lat="41.9045970" lon="-5.4913110">
        <ele>702.9</ele>
        <time>2019-08-15T11:09:40Z</time>
      </trkpt>
      <trkpt lat="41.9046180" lon="-5.4913580">
        <ele>702.9</ele>
        <time>2019-08-15T11:09:41Z</time>
      </trkpt>
      <trkpt lat="41.9046390" lon="-5.4914080">
        <ele>702.9</ele>
        <time>2019-08-15T11:09:42Z</time>
      </trkpt>
      <trkpt lat="41.9046620" lon="-5.4914540">
        <ele>702.9</ele>
        <time>2019-08-15T11:09:43Z</time>
      </trkpt>
      <trkpt lat="41.9046860" lon="-5.4915000">
        <ele>702.9</ele>
        <time>2019-08-15T11:09:44Z</time>
      </trkpt>
      <trkpt lat="41.9047120" lon="-5.4915470">
        <ele>702.9</ele>
        <time>2019-08-15T11:09:45Z</time>
      </trkpt>
      <trkpt lat="41.9047360" lon="-5.4915930">
        <ele>702.9</ele>
        <time>2019-08-15T11:09:46Z</time>
      </trkpt>
      <trkpt lat="41.9047580" lon="-5.4916410">
        <ele>702.9</ele>
        <time>2019-08-15T11:09:47Z</time>
      </trkpt>
      <trkpt lat="41.9047810" lon="-5.4916890">
        <ele>702.9</ele>
        <time>2019-08-15T11:09:48Z</time>
      </trkpt>
      <trkpt lat="41.9048050" lon="-5.4917350">
        <ele>702.9</ele>
        <time>2019-08-15T11:09:49Z</time>
      </trkpt>
      <trkpt lat="41.9048300" lon="-5.4917830">
        <ele>703.0</ele>
        <time>2019-08-15T11:09:50Z</time>
      </trkpt>
      <trkpt lat="41.9048550" lon="-5.4918320">
        <ele>703.0</ele>
        <time>2019-08-15T11:09:51Z</time>
      </trkpt>
      <trkpt lat="41.9048810" lon="-5.4918820">
        <ele>703.0</ele>
        <time>2019-08-15T11:09:52Z</time>
      </trkpt>
      <trkpt lat="41.9049070" lon="-5.4919320">
        <ele>703.0</ele>
        <time>2019-08-15T11:09:53Z</time>
      </trkpt>
      <trkpt lat="41.9049320" lon="-5.4919810">
        <ele>703.1</ele>
        <time>2019-08-15T11:09:54Z</time>
      </trkpt>
      <trkpt lat="41.9049560" lon="-5.4920310">
        <ele>703.1</ele>
        <time>2019-08-15T11:09:55Z</time>
      </trkpt>
      <trkpt lat="41.9049800" lon="-5.4920790">
        <ele>703.1</ele>
        <time>2019-08-15T11:09:56Z</time>
      </trkpt>
      <trkpt lat="41.9050050" lon="-5.4921270">
        <ele>703.2</ele>
        <time>2019-08-15T11:09:57Z</time>
      </trkpt>
      <trkpt lat="41.9050300" lon="-5.4921750">
        <ele>703.2</ele>
        <time>2019-08-15T11:09:58Z</time>
      </trkpt>
      <trkpt lat="41.9050550" lon="-5.4922240">
        <ele>703.3</ele>
        <time>2019-08-15T11:09:59Z</time>
      </trkpt>
      <trkpt lat="41.9050780" lon="-5.4922720">
        <ele>703.3</ele>
        <time>2019-08-15T11:10:00Z</time>
      </trkpt>
      <trkpt lat="41.9051030" lon="-5.4923210">
        <ele>703.4</ele>
        <time>2019-08-15T11:10:01Z</time>
      </trkpt>
      <trkpt lat="41.9051270" lon="-5.4923690">
        <ele>703.5</ele>
        <time>2019-08-15T11:10:02Z</time>
      </trkpt>
      <trkpt lat="41.9051510" lon="-5.4924180">
        <ele>703.5</ele>
        <time>2019-08-15T11:10:03Z</time>
      </trkpt>
      <trkpt lat="41.9051740" lon="-5.4924660">
        <ele>703.6</ele>
        <time>2019-08-15T11:10:04Z</time>
      </trkpt>
      <trkpt lat="41.9051980" lon="-5.4925160">
        <ele>703.7</ele>
        <time>2019-08-15T11:10:05Z</time>
      </trkpt>
      <trkpt lat="41.9052220" lon="-5.4925640">
        <ele>703.7</ele>
        <time>2019-08-15T11:10:06Z</time>
      </trkpt>
      <trkpt lat="41.9052460" lon="-5.4926140">
        <ele>703.8</ele>
        <time>2019-08-15T11:10:07Z</time>
      </trkpt>
      <trkpt lat="41.9052700" lon="-5.4926630">
        <ele>703.9</ele>
        <time>2019-08-15T11:10:08Z</time>
      </trkpt>
      <trkpt lat="41.9052930" lon="-5.4927140">
        <ele>704.0</ele>
        <time>2019-08-15T11:10:09Z</time>
      </trkpt>
      <trkpt lat="41.9053160" lon="-5.4927650">
        <ele>704.1</ele>
        <time>2019-08-15T11:10:10Z</time>
      </trkpt>
      <trkpt lat="41.9053400" lon="-5.4928150">
        <ele>704.1</ele>
        <time>2019-08-15T11:10:11Z</time>
      </trkpt>
      <trkpt lat="41.9053650" lon="-5.4928650">
        <ele>704.2</ele>
        <time>2019-08-15T11:10:12Z</time>
      </trkpt>
      <trkpt lat="41.9053880" lon="-5.4929160">
        <ele>704.3</ele>
        <time>2019-08-15T11:10:13Z</time>
      </trkpt>
      <trkpt lat="41.9054140" lon="-5.4929660">
        <ele>704.3</ele>
        <time>2019-08-15T11:10:14Z</time>
      </trkpt>
      <trkpt lat="41.9054370" lon="-5.4930160">
        <ele>704.4</ele>
        <time>2019-08-15T11:10:15Z</time>
      </trkpt>
      <trkpt lat="41.9054610" lon="-5.4930670">
        <ele>704.5</ele>
        <time>2019-08-15T11:10:16Z</time>
      </trkpt>
      <trkpt lat="41.9054840" lon="-5.4931170">
        <ele>704.6</ele>
        <time>2019-08-15T11:10:17Z</time>
      </trkpt>
      <trkpt lat="41.9055080" lon="-5.4931680">
        <ele>704.6</ele>
        <time>2019-08-15T11:10:18Z</time>
      </trkpt>
      <trkpt lat="41.9055300" lon="-5.4932210">
        <ele>704.7</ele>
        <time>2019-08-15T11:10:19Z</time>
      </trkpt>
      <trkpt lat="41.9055520" lon="-5.4932720">
        <ele>704.8</ele>
        <time>2019-08-15T11:10:20Z</time>
      </trkpt>
      <trkpt lat="41.9055720" lon="-5.4933240">
        <ele>704.9</ele>
        <time>2019-08-15T11:10:21Z</time>
      </trkpt>
      <trkpt lat="41.9055920" lon="-5.4933750">
        <ele>705.0</ele>
        <time>2019-08-15T11:10:22Z</time>
      </trkpt>
      <trkpt lat="41.9056120" lon="-5.4934240">
        <ele>705.1</ele>
        <time>2019-08-15T11:10:23Z</time>
      </trkpt>
      <trkpt lat="41.9056330" lon="-5.4934720">
        <ele>705.2</ele>
        <time>2019-08-15T11:10:24Z</time>
      </trkpt>
      <trkpt lat="41.9056550" lon="-5.4935170">
        <ele>705.3</ele>
        <time>2019-08-15T11:10:25Z</time>
      </trkpt>
      <trkpt lat="41.9056790" lon="-5.4935590">
        <ele>705.3</ele>
        <time>2019-08-15T11:10:26Z</time>
      </trkpt>
      <trkpt lat="41.9057010" lon="-5.4936020">
        <ele>705.4</ele>
        <time>2019-08-15T11:10:27Z</time>
      </trkpt>
      <trkpt lat="41.9057220" lon="-5.4936480">
        <ele>705.5</ele>
        <time>2019-08-15T11:10:28Z</time>
      </trkpt>
      <trkpt lat="41.9057450" lon="-5.4936920">
        <ele>705.6</ele>
        <time>2019-08-15T11:10:29Z</time>
      </trkpt>
      <trkpt lat="41.9057680" lon="-5.4937370">
        <ele>705.7</ele>
        <time>2019-08-15T11:10:30Z</time>
      </trkpt>
      <trkpt lat="41.9057900" lon="-5.4937840">
        <ele>705.8</ele>
        <time>2019-08-15T11:10:31Z</time>
      </trkpt>
      <trkpt lat="41.9058130" lon="-5.4938280">
        <ele>705.8</ele>
        <time>2019-08-15T11:10:32Z</time>
      </trkpt>
      <trkpt lat="41.9058340" lon="-5.4938700">
        <ele>706.0</ele>
        <time>2019-08-15T11:10:33Z</time>
      </trkpt>
      <trkpt lat="41.9058560" lon="-5.4939150">
        <ele>706.1</ele>
        <time>2019-08-15T11:10:34Z</time>
      </trkpt>
      <trkpt lat="41.9058780" lon="-5.4939570">
        <ele>706.2</ele>
        <time>2019-08-15T11:10:35Z</time>
      </trkpt>
      <trkpt lat="41.9059000" lon="-5.4940000">
        <ele>706.3</ele>
        <time>2019-08-15T11:10:36Z</time>
      </trkpt>
      <trkpt lat="41.9059230" lon="-5.4940410">
        <ele>706.4</ele>
        <time>2019-08-15T11:10:37Z</time>
      </trkpt>
      <trkpt lat="41.9059440" lon="-5.4940790">
        <ele>706.4</ele>
        <time>2019-08-15T11:10:38Z</time>
      </trkpt>
      <trkpt lat="41.9059640" lon="-5.4941200">
        <ele>706.5</ele>
        <time>2019-08-15T11:10:39Z</time>
      </trkpt>
      <trkpt lat="41.9059850" lon="-5.4941620">
        <ele>706.6</ele>
        <time>2019-08-15T11:10:40Z</time>
      </trkpt>
      <trkpt lat="41.9060060" lon="-5.4942060">
        <ele>706.8</ele>
        <time>2019-08-15T11:10:41Z</time>
      </trkpt>
      <trkpt lat="41.9060270" lon="-5.4942540">
        <ele>706.9</ele>
        <time>2019-08-15T11:10:42Z</time>
      </trkpt>
      <trkpt lat="41.9060490" lon="-5.4942990">
        <ele>707.1</ele>
        <time>2019-08-15T11:10:43Z</time>
      </trkpt>
      <trkpt lat="41.9060730" lon="-5.4943440">
        <ele>707.2</ele>
        <time>2019-08-15T11:10:44Z</time>
      </trkpt>
      <trkpt lat="41.9060960" lon="-5.4943900">
        <ele>707.3</ele>
        <time>2019-08-15T11:10:45Z</time>
      </trkpt>
      <trkpt lat="41.9061180" lon="-5.4944370">
        <ele>707.4</ele>
        <time>2019-08-15T11:10:46Z</time>
      </trkpt>
      <trkpt lat="41.9061400" lon="-5.4944850">
        <ele>707.5</ele>
        <time>2019-08-15T11:10:47Z</time>
      </trkpt>
      <trkpt lat="41.9061610" lon="-5.4945330">
        <ele>707.6</ele>
        <time>2019-08-15T11:10:48Z</time>
      </trkpt>
      <trkpt lat="41.9061840" lon="-5.4945800">
        <ele>707.8</ele>
        <time>2019-08-15T11:10:49Z</time>
      </trkpt>
      <trkpt lat="41.9062070" lon="-5.4946290">
        <ele>707.9</ele>
        <time>2019-08-15T11:10:50Z</time>
      </trkpt>
      <trkpt lat="41.9062280" lon="-5.4946770">
        <ele>708.0</ele>
        <time>2019-08-15T11:10:51Z</time>
      </trkpt>
      <trkpt lat="41.9062490" lon="-5.4947230">
        <ele>708.1</ele>
        <time>2019-08-15T11:10:52Z</time>
      </trkpt>
      <trkpt lat="41.9062700" lon="-5.4947680">
        <ele>708.2</ele>
        <time>2019-08-15T11:10:53Z</time>
      </trkpt>
      <trkpt lat="41.9062920" lon="-5.4948130">
        <ele>708.3</ele>
        <time>2019-08-15T11:10:54Z</time>
      </trkpt>
      <trkpt lat="41.9063130" lon="-5.4948590">
        <ele>708.4</ele>
        <time>2019-08-15T11:10:55Z</time>
      </trkpt>
      <trkpt lat="41.9063350" lon="-5.4949010">
        <ele>708.5</ele>
        <time>2019-08-15T11:10:56Z</time>
      </trkpt>
      <trkpt lat="41.9063560" lon="-5.4949420">
        <ele>708.6</ele>
        <time>2019-08-15T11:10:57Z</time>
      </trkpt>
      <trkpt lat="41.9063770" lon="-5.4949820">
        <ele>708.7</ele>
        <time>2019-08-15T11:10:58Z</time>
      </trkpt>
      <trkpt lat="41.9063960" lon="-5.4950220">
        <ele>708.7</ele>
        <time>2019-08-15T11:10:59Z</time>
      </trkpt>
      <trkpt lat="41.9064150" lon="-5.4950630">
        <ele>708.8</ele>
        <time>2019-08-15T11:11:00Z</time>
      </trkpt>
      <trkpt lat="41.9064350" lon="-5.4951040">
        <ele>708.8</ele>
        <time>2019-08-15T11:11:01Z</time>
      </trkpt>
      <trkpt lat="41.9064560" lon="-5.4951460">
        <ele>708.9</ele>
        <time>2019-08-15T11:11:02Z</time>
      </trkpt>
      <trkpt lat="41.9064760" lon="-5.4951880">
        <ele>708.9</ele>
        <time>2019-08-15T11:11:03Z</time>
      </trkpt>
      <trkpt lat="41.9064960" lon="-5.4952310">
        <ele>709.0</ele>
        <time>2019-08-15T11:11:04Z</time>
      </trkpt>
      <trkpt lat="41.9065170" lon="-5.4952720">
        <ele>709.0</ele>
        <time>2019-08-15T11:11:05Z</time>
      </trkpt>
      <trkpt lat="41.9065370" lon="-5.4953130">
        <ele>709.1</ele>
        <time>2019-08-15T11:11:06Z</time>
      </trkpt>
      <trkpt lat="41.9065560" lon="-5.4953540">
        <ele>709.1</ele>
        <time>2019-08-15T11:11:07Z</time>
      </trkpt>
      <trkpt lat="41.9065740" lon="-5.4953950">
        <ele>709.1</ele>
        <time>2019-08-15T11:11:08Z</time>
      </trkpt>
      <trkpt lat="41.9065910" lon="-5.4954360">
        <ele>709.1</ele>
        <time>2019-08-15T11:11:09Z</time>
      </trkpt>
      <trkpt lat="41.9066090" lon="-5.4954750">
        <ele>709.2</ele>
        <time>2019-08-15T11:11:10Z</time>
      </trkpt>
      <trkpt lat="41.9066270" lon="-5.4955140">
        <ele>709.2</ele>
        <time>2019-08-15T11:11:11Z</time>
      </trkpt>
      <trkpt lat="41.9066450" lon="-5.4955550">
        <ele>709.2</ele>
        <time>2019-08-15T11:11:12Z</time>
      </trkpt>
      <trkpt lat="41.9066630" lon="-5.4955950">
        <ele>709.3</ele>
        <time>2019-08-15T11:11:13Z</time>
      </trkpt>
      <trkpt lat="41.9066810" lon="-5.4956340">
        <ele>709.4</ele>
        <time>2019-08-15T11:11:14Z</time>
      </trkpt>
      <trkpt lat="41.9066990" lon="-5.4956720">
        <ele>709.4</ele>
        <time>2019-08-15T11:11:15Z</time>
      </trkpt>
      <trkpt lat="41.9067160" lon="-5.4957080">
        <ele>709.4</ele>
        <time>2019-08-15T11:11:16Z</time>
      </trkpt>
      <trkpt lat="41.9067330" lon="-5.4957430">
        <ele>709.5</ele>
        <time>2019-08-15T11:11:17Z</time>
      </trkpt>
      <trkpt lat="41.9067500" lon="-5.4957770">
        <ele>709.6</ele>
        <time>2019-08-15T11:11:18Z</time>
      </trkpt>
      <trkpt lat="41.9067660" lon="-5.4958120">
        <ele>709.7</ele>
        <time>2019-08-15T11:11:19Z</time>
      </trkpt>
      <trkpt lat="41.9067840" lon="-5.4958470">
        <ele>709.8</ele>
        <time>2019-08-15T11:11:20Z</time>
      </trkpt>
      <trkpt lat="41.9068020" lon="-5.4958810">
        <ele>709.8</ele>
        <time>2019-08-15T11:11:21Z</time>
      </trkpt>
      <trkpt lat="41.9068190" lon="-5.4959170">
        <ele>709.9</ele>
        <time>2019-08-15T11:11:22Z</time>
      </trkpt>
      <trkpt lat="41.9068380" lon="-5.4959540">
        <ele>710.0</ele>
        <time>2019-08-15T11:11:23Z</time>
      </trkpt>
      <trkpt lat="41.9068570" lon="-5.4959930">
        <ele>710.1</ele>
        <time>2019-08-15T11:11:24Z</time>
      </trkpt>
      <trkpt lat="41.9068750" lon="-5.4960330">
        <ele>710.2</ele>
        <time>2019-08-15T11:11:25Z</time>
      </trkpt>
      <trkpt lat="41.9068940" lon="-5.4960730">
        <ele>710.4</ele>
        <time>2019-08-15T11:11:26Z</time>
      </trkpt>
      <trkpt lat="41.9069130" lon="-5.4961140">
        <ele>710.5</ele>
        <time>2019-08-15T11:11:27Z</time>
      </trkpt>
      <trkpt lat="41.9069290" lon="-5.4961560">
        <ele>710.7</ele>
        <time>2019-08-15T11:11:28Z</time>
      </trkpt>
      <trkpt lat="41.9069430" lon="-5.4961990">
        <ele>710.9</ele>
        <time>2019-08-15T11:11:29Z</time>
      </trkpt>
      <trkpt lat="41.9069530" lon="-5.4962420">
        <ele>711.0</ele>
        <time>2019-08-15T11:11:30Z</time>
      </trkpt>
      <trkpt lat="41.9069570" lon="-5.4962860">
        <ele>711.2</ele>
        <time>2019-08-15T11:11:31Z</time>
      </trkpt>
      <trkpt lat="41.9069550" lon="-5.4963310">
        <ele>711.3</ele>
        <time>2019-08-15T11:11:32Z</time>
      </trkpt>
      <trkpt lat="41.9069470" lon="-5.4963770">
        <ele>711.5</ele>
        <time>2019-08-15T11:11:33Z</time>
      </trkpt>
      <trkpt lat="41.9069320" lon="-5.4964190">
        <ele>711.7</ele>
        <time>2019-08-15T11:11:34Z</time>
      </trkpt>
      <trkpt lat="41.9069090" lon="-5.4964550">
        <ele>711.8</ele>
        <time>2019-08-15T11:11:35Z</time>
      </trkpt>
      <trkpt lat="41.9068820" lon="-5.4964820">
        <ele>711.9</ele>
        <time>2019-08-15T11:11:36Z</time>
      </trkpt>
      <trkpt lat="41.9068530" lon="-5.4965030">
        <ele>712.0</ele>
        <time>2019-08-15T11:11:37Z</time>
      </trkpt>
      <trkpt lat="41.9068220" lon="-5.4965190">
        <ele>712.0</ele>
        <time>2019-08-15T11:11:38Z</time>
      </trkpt>
      <trkpt lat="41.9067880" lon="-5.4965280">
        <ele>712.0</ele>
        <time>2019-08-15T11:11:39Z</time>
      </trkpt>
      <trkpt lat="41.9067520" lon="-5.4965320">
        <ele>712.0</ele>
        <time>2019-08-15T11:11:40Z</time>
      </trkpt>
      <trkpt lat="41.9067140" lon="-5.4965310">
        <ele>711.8</ele>
        <time>2019-08-15T11:11:41Z</time>
      </trkpt>
      <trkpt lat="41.9066740" lon="-5.4965280">
        <ele>711.7</ele>
        <time>2019-08-15T11:11:42Z</time>
      </trkpt>
      <trkpt lat="41.9066320" lon="-5.4965240">
        <ele>711.7</ele>
        <time>2019-08-15T11:11:43Z</time>
      </trkpt>
      <trkpt lat="41.9065880" lon="-5.4965190">
        <ele>711.6</ele>
        <time>2019-08-15T11:11:44Z</time>
      </trkpt>
      <trkpt lat="41.9065420" lon="-5.4965110">
        <ele>711.5</ele>
        <time>2019-08-15T11:11:45Z</time>
      </trkpt>
      <trkpt lat="41.9064960" lon="-5.4965010">
        <ele>711.5</ele>
        <time>2019-08-15T11:11:46Z</time>
      </trkpt>
      <trkpt lat="41.9064500" lon="-5.4964890">
        <ele>711.4</ele>
        <time>2019-08-15T11:11:47Z</time>
      </trkpt>
      <trkpt lat="41.9064050" lon="-5.4964780">
        <ele>711.3</ele>
        <time>2019-08-15T11:11:48Z</time>
      </trkpt>
      <trkpt lat="41.9063610" lon="-5.4964680">
        <ele>711.3</ele>
        <time>2019-08-15T11:11:49Z</time>
      </trkpt>
      <trkpt lat="41.9063160" lon="-5.4964590">
        <ele>711.3</ele>
        <time>2019-08-15T11:11:50Z</time>
      </trkpt>
      <trkpt lat="41.9062710" lon="-5.4964480">
        <ele>711.3</ele>
        <time>2019-08-15T11:11:51Z</time>
      </trkpt>
      <trkpt lat="41.9062250" lon="-5.4964330">
        <ele>711.2</ele>
        <time>2019-08-15T11:11:52Z</time>
      </trkpt>
      <trkpt lat="41.9061810" lon="-5.4964170">
        <ele>711.3</ele>
        <time>2019-08-15T11:11:53Z</time>
      </trkpt>
      <trkpt lat="41.9061360" lon="-5.4964000">
        <ele>711.4</ele>
        <time>2019-08-15T11:11:54Z</time>
      </trkpt>
      <trkpt lat="41.9060910" lon="-5.4963850">
        <ele>711.4</ele>
        <time>2019-08-15T11:11:55Z</time>
      </trkpt>
      <trkpt lat="41.9060480" lon="-5.4963720">
        <ele>711.4</ele>
        <time>2019-08-15T11:11:56Z</time>
      </trkpt>
      <trkpt lat="41.9060060" lon="-5.4963570">
        <ele>711.4</ele>
        <time>2019-08-15T11:11:57Z</time>
      </trkpt>
      <trkpt lat="41.9059650" lon="-5.4963390">
        <ele>711.4</ele>
        <time>2019-08-15T11:11:58Z</time>
      </trkpt>
      <trkpt lat="41.9059240" lon="-5.4963210">
        <ele>711.5</ele>
        <time>2019-08-15T11:11:59Z</time>
      </trkpt>
      <trkpt lat="41.9058840" lon="-5.4963040">
        <ele>711.5</ele>
        <time>2019-08-15T11:12:00Z</time>
      </trkpt>
      <trkpt lat="41.9058430" lon="-5.4962890">
        <ele>711.5</ele>
        <time>2019-08-15T11:12:01Z</time>
      </trkpt>
      <trkpt lat="41.9058040" lon="-5.4962730">
        <ele>711.5</ele>
        <time>2019-08-15T11:12:02Z</time>
      </trkpt>
      <trkpt lat="41.9057660" lon="-5.4962560">
        <ele>711.5</ele>
        <time>2019-08-15T11:12:03Z</time>
      </trkpt>
      <trkpt lat="41.9057270" lon="-5.4962380">
        <ele>711.4</ele>
        <time>2019-08-15T11:12:04Z</time>
      </trkpt>
      <trkpt lat="41.9056910" lon="-5.4962190">
        <ele>711.4</ele>
        <time>2019-08-15T11:12:05Z</time>
      </trkpt>
      <trkpt lat="41.9056560" lon="-5.4962020">
        <ele>711.4</ele>
        <time>2019-08-15T11:12:06Z</time>
      </trkpt>
      <trkpt lat="41.9056200" lon="-5.4961850">
        <ele>711.3</ele>
        <time>2019-08-15T11:12:07Z</time>
      </trkpt>
      <trkpt lat="41.9055850" lon="-5.4961680">
        <ele>711.3</ele>
        <time>2019-08-15T11:12:08Z</time>
      </trkpt>
      <trkpt lat="41.9055480" lon="-5.4961490">
        <ele>711.3</ele>
        <time>2019-08-15T11:12:09Z</time>
      </trkpt>
      <trkpt lat="41.9055100" lon="-5.4961310">
        <ele>711.2</ele>
        <time>2019-08-15T11:12:10Z</time>
      </trkpt>
      <trkpt lat="41.9054710" lon="-5.4961170">
        <ele>711.2</ele>
        <time>2019-08-15T11:12:11Z</time>
      </trkpt>
      <trkpt lat="41.9054320" lon="-5.4961060">
        <ele>711.1</ele>
        <time>2019-08-15T11:12:12Z</time>
      </trkpt>
      <trkpt lat="41.9053950" lon="-5.4960990">
        <ele>711.1</ele>
        <time>2019-08-15T11:12:13Z</time>
      </trkpt>
      <trkpt lat="41.9053610" lon="-5.4960970">
        <ele>711.1</ele>
        <time>2019-08-15T11:12:14Z</time>
      </trkpt>
      <trkpt lat="41.9053310" lon="-5.4961020">
        <ele>711.0</ele>
        <time>2019-08-15T11:12:15Z</time>
      </trkpt>
      <trkpt lat="41.9053050" lon="-5.4961200">
        <ele>711.0</ele>
        <time>2019-08-15T11:12:16Z</time>
      </trkpt>
      <trkpt lat="41.9052900" lon="-5.4961480">
        <ele>710.9</ele>
        <time>2019-08-15T11:12:17Z</time>
      </trkpt>
      <trkpt lat="41.9052960" lon="-5.4962060">
        <ele>710.9</ele>
        <time>2019-08-15T11:12:19Z</time>
      </trkpt>
      <trkpt lat="41.9053340" lon="-5.4962290">
        <ele>710.9</ele>
        <time>2019-08-15T11:12:21Z</time>
      </trkpt>
      <trkpt lat="41.9053720" lon="-5.4962420">
        <ele>711.0</ele>
        <time>2019-08-15T11:12:23Z</time>
      </trkpt>
      <trkpt lat="41.9053950" lon="-5.4962560">
        <ele>711.0</ele>
        <time>2019-08-15T11:12:25Z</time>
      </trkpt>
      <trkpt lat="41.9055470" lon="-5.4963190">
        <ele>711.2</ele>
        <time>2019-08-15T11:16:43Z</time>
      </trkpt>
      <trkpt lat="41.9055780" lon="-5.4963300">
        <ele>711.2</ele>
        <time>2019-08-15T11:16:44Z</time>
      </trkpt>
      <trkpt lat="41.9056100" lon="-5.4963420">
        <ele>711.3</ele>
        <time>2019-08-15T11:16:45Z</time>
      </trkpt>
      <trkpt lat="41.9056420" lon="-5.4963570">
        <ele>711.3</ele>
        <time>2019-08-15T11:16:46Z</time>
      </trkpt>
      <trkpt lat="41.9056750" lon="-5.4963710">
        <ele>711.4</ele>
        <time>2019-08-15T11:16:47Z</time>
      </trkpt>
      <trkpt lat="41.9057070" lon="-5.4963840">
        <ele>711.4</ele>
        <time>2019-08-15T11:16:48Z</time>
      </trkpt>
      <trkpt lat="41.9057390" lon="-5.4963970">
        <ele>711.4</ele>
        <time>2019-08-15T11:16:49Z</time>
      </trkpt>
      <trkpt lat="41.9057700" lon="-5.4964100">
        <ele>711.4</ele>
        <time>2019-08-15T11:16:50Z</time>
      </trkpt>
      <trkpt lat="41.9058010" lon="-5.4964230">
        <ele>711.4</ele>
        <time>2019-08-15T11:16:51Z</time>
      </trkpt>
      <trkpt lat="41.9058320" lon="-5.4964340">
        <ele>711.5</ele>
        <time>2019-08-15T11:16:52Z</time>
      </trkpt>
      <trkpt lat="41.9058630" lon="-5.4964450">
        <ele>711.5</ele>
        <time>2019-08-15T11:16:53Z</time>
      </trkpt>
      <trkpt lat="41.9058930" lon="-5.4964560">
        <ele>711.5</ele>
        <time>2019-08-15T11:16:54Z</time>
      </trkpt>
      <trkpt lat="41.9059220" lon="-5.4964650">
        <ele>711.6</ele>
        <time>2019-08-15T11:16:55Z</time>
      </trkpt>
      <trkpt lat="41.9059500" lon="-5.4964750">
        <ele>711.6</ele>
        <time>2019-08-15T11:16:56Z</time>
      </trkpt>
      <trkpt lat="41.9059780" lon="-5.4964840">
        <ele>711.6</ele>
        <time>2019-08-15T11:16:57Z</time>
      </trkpt>
      <trkpt lat="41.9060040" lon="-5.4964940">
        <ele>711.6</ele>
        <time>2019-08-15T11:16:58Z</time>
      </trkpt>
      <trkpt lat="41.9060290" lon="-5.4965040">
        <ele>711.6</ele>
        <time>2019-08-15T11:16:59Z</time>
      </trkpt>
      <trkpt lat="41.9060770" lon="-5.4965250">
        <ele>711.6</ele>
        <time>2019-08-15T11:17:01Z</time>
      </trkpt>
      <trkpt lat="41.9061270" lon="-5.4965440">
        <ele>711.6</ele>
        <time>2019-08-15T11:17:03Z</time>
      </trkpt>
      <trkpt lat="41.9061770" lon="-5.4965630">
        <ele>711.6</ele>
        <time>2019-08-15T11:17:05Z</time>
      </trkpt>
      <trkpt lat="41.9062280" lon="-5.4965820">
        <ele>711.7</ele>
        <time>2019-08-15T11:17:07Z</time>
      </trkpt>
      <trkpt lat="41.9062790" lon="-5.4966000">
        <ele>711.7</ele>
        <time>2019-08-15T11:17:09Z</time>
      </trkpt>
      <trkpt lat="41.9063290" lon="-5.4966190">
        <ele>711.8</ele>
        <time>2019-08-15T11:17:11Z</time>
      </trkpt>
      <trkpt lat="41.9063800" lon="-5.4966390">
        <ele>711.9</ele>
        <time>2019-08-15T11:17:13Z</time>
      </trkpt>
      <trkpt lat="41.9064060" lon="-5.4966500">
        <ele>711.9</ele>
        <time>2019-08-15T11:17:14Z</time>
      </trkpt>
      <trkpt lat="41.9064320" lon="-5.4966620">
        <ele>712.0</ele>
        <time>2019-08-15T11:17:15Z</time>
      </trkpt>
      <trkpt lat="41.9064580" lon="-5.4966730">
        <ele>712.0</ele>
        <time>2019-08-15T11:17:16Z</time>
      </trkpt>
      <trkpt lat="41.9064850" lon="-5.4966840">
        <ele>712.0</ele>
        <time>2019-08-15T11:17:17Z</time>
      </trkpt>
      <trkpt lat="41.9065120" lon="-5.4966970">
        <ele>712.0</ele>
        <time>2019-08-15T11:17:18Z</time>
      </trkpt>
      <trkpt lat="41.9065380" lon="-5.4967090">
        <ele>712.1</ele>
        <time>2019-08-15T11:17:19Z</time>
      </trkpt>
      <trkpt lat="41.9065640" lon="-5.4967200">
        <ele>712.1</ele>
        <time>2019-08-15T11:17:20Z</time>
      </trkpt>
      <trkpt lat="41.9065910" lon="-5.4967300">
        <ele>712.2</ele>
        <time>2019-08-15T11:17:21Z</time>
      </trkpt>
      <trkpt lat="41.9066170" lon="-5.4967390">
        <ele>712.3</ele>
        <time>2019-08-15T11:17:22Z</time>
      </trkpt>
      <trkpt lat="41.9066440" lon="-5.4967460">
        <ele>712.3</ele>
        <time>2019-08-15T11:17:23Z</time>
      </trkpt>
      <trkpt lat="41.9066710" lon="-5.4967530">
        <ele>712.4</ele>
        <time>2019-08-15T11:17:24Z</time>
      </trkpt>
      <trkpt lat="41.9066980" lon="-5.4967600">
        <ele>712.4</ele>
        <time>2019-08-15T11:17:25Z</time>
      </trkpt>
      <trkpt lat="41.9067260" lon="-5.4967680">
        <ele>712.5</ele>
        <time>2019-08-15T11:17:26Z</time>
      </trkpt>
      <trkpt lat="41.9067540" lon="-5.4967740">
        <ele>712.7</ele>
        <time>2019-08-15T11:17:27Z</time>
      </trkpt>
      <trkpt lat="41.9067820" lon="-5.4967770">
        <ele>712.7</ele>
        <time>2019-08-15T11:17:28Z</time>
      </trkpt>
      <trkpt lat="41.9068110" lon="-5.4967760">
        <ele>712.8</ele>
        <time>2019-08-15T11:17:29Z</time>
      </trkpt>
      <trkpt lat="41.9068400" lon="-5.4967730">
        <ele>712.8</ele>
        <time>2019-08-15T11:17:30Z</time>
      </trkpt>
      <trkpt lat="41.9068680" lon="-5.4967680">
        <ele>712.8</ele>
        <time>2019-08-15T11:17:31Z</time>
      </trkpt>
      <trkpt lat="41.9068960" lon="-5.4967610">
        <ele>712.8</ele>
        <time>2019-08-15T11:17:32Z</time>
      </trkpt>
      <trkpt lat="41.9069220" lon="-5.4967510">
        <ele>712.8</ele>
        <time>2019-08-15T11:17:33Z</time>
      </trkpt>
      <trkpt lat="41.9069460" lon="-5.4967410">
        <ele>712.9</ele>
        <time>2019-08-15T11:17:34Z</time>
      </trkpt>
      <trkpt lat="41.9069910" lon="-5.4967150">
        <ele>713.0</ele>
        <time>2019-08-15T11:17:36Z</time>
      </trkpt>
      <trkpt lat="41.9070380" lon="-5.4966800">
        <ele>713.0</ele>
        <time>2019-08-15T11:17:38Z</time>
      </trkpt>
      <trkpt lat="41.9070630" lon="-5.4966630">
        <ele>713.0</ele>
        <time>2019-08-15T11:17:39Z</time>
      </trkpt>
      <trkpt lat="41.9070890" lon="-5.4966450">
        <ele>713.1</ele>
        <time>2019-08-15T11:17:40Z</time>
      </trkpt>
      <trkpt lat="41.9071150" lon="-5.4966240">
        <ele>713.1</ele>
        <time>2019-08-15T11:17:41Z</time>
      </trkpt>
      <trkpt lat="41.9071410" lon="-5.4966030">
        <ele>713.1</ele>
        <time>2019-08-15T11:17:42Z</time>
      </trkpt>
      <trkpt lat="41.9071660" lon="-5.4965820">
        <ele>713.1</ele>
        <time>2019-08-15T11:17:43Z</time>
      </trkpt>
      <trkpt lat="41.9071910" lon="-5.4965610">
        <ele>713.1</ele>
        <time>2019-08-15T11:17:44Z</time>
      </trkpt>
      <trkpt lat="41.9072170" lon="-5.4965400">
        <ele>713.1</ele>
        <time>2019-08-15T11:17:45Z</time>
      </trkpt>
      <trkpt lat="41.9072430" lon="-5.4965190">
        <ele>713.2</ele>
        <time>2019-08-15T11:17:46Z</time>
      </trkpt>
      <trkpt lat="41.9072700" lon="-5.4964970">
        <ele>713.2</ele>
        <time>2019-08-15T11:17:47Z</time>
      </trkpt>
      <trkpt lat="41.9072980" lon="-5.4964760">
        <ele>713.3</ele>
        <time>2019-08-15T11:17:48Z</time>
      </trkpt>
      <trkpt lat="41.9073260" lon="-5.4964560">
        <ele>713.3</ele>
        <time>2019-08-15T11:17:49Z</time>
      </trkpt>
      <trkpt lat="41.9073560" lon="-5.4964340">
        <ele>713.3</ele>
        <time>2019-08-15T11:17:50Z</time>
      </trkpt>
      <trkpt lat="41.9073870" lon="-5.4964120">
        <ele>713.4</ele>
        <time>2019-08-15T11:17:51Z</time>
      </trkpt>
      <trkpt lat="41.9074180" lon="-5.4963880">
        <ele>713.4</ele>
        <time>2019-08-15T11:17:52Z</time>
      </trkpt>
      <trkpt lat="41.9074490" lon="-5.4963630">
        <ele>713.5</ele>
        <time>2019-08-15T11:17:53Z</time>
      </trkpt>
      <trkpt lat="41.9074820" lon="-5.4963370">
        <ele>713.5</ele>
        <time>2019-08-15T11:17:54Z</time>
      </trkpt>
      <trkpt lat="41.9075150" lon="-5.4963130">
        <ele>713.5</ele>
        <time>2019-08-15T11:17:55Z</time>
      </trkpt>
      <trkpt lat="41.9075480" lon="-5.4962910">
        <ele>713.5</ele>
        <time>2019-08-15T11:17:56Z</time>
      </trkpt>
      <trkpt lat="41.9075780" lon="-5.4962690">
        <ele>713.6</ele>
        <time>2019-08-15T11:17:57Z</time>
      </trkpt>
      <trkpt lat="41.9076090" lon="-5.4962430">
        <ele>713.6</ele>
        <time>2019-08-15T11:17:58Z</time>
      </trkpt>
      <trkpt lat="41.9076410" lon="-5.4962200">
        <ele>713.6</ele>
        <time>2019-08-15T11:17:59Z</time>
      </trkpt>
      <trkpt lat="41.9076720" lon="-5.4961990">
        <ele>713.6</ele>
        <time>2019-08-15T11:18:00Z</time>
      </trkpt>
      <trkpt lat="41.9077020" lon="-5.4961840">
        <ele>713.6</ele>
        <time>2019-08-15T11:18:01Z</time>
      </trkpt>
      <trkpt lat="41.9077350" lon="-5.4961680">
        <ele>713.6</ele>
        <time>2019-08-15T11:18:02Z</time>
      </trkpt>
      <trkpt lat="41.9077700" lon="-5.4961530">
        <ele>713.7</ele>
        <time>2019-08-15T11:18:03Z</time>
      </trkpt>
      <trkpt lat="41.9078090" lon="-5.4961430">
        <ele>713.7</ele>
        <time>2019-08-15T11:18:04Z</time>
      </trkpt>
      <trkpt lat="41.9078510" lon="-5.4961380">
        <ele>713.7</ele>
        <time>2019-08-15T11:18:05Z</time>
      </trkpt>
      <trkpt lat="41.9078940" lon="-5.4961370">
        <ele>713.7</ele>
        <time>2019-08-15T11:18:06Z</time>
      </trkpt>
      <trkpt lat="41.9079360" lon="-5.4961410">
        <ele>713.7</ele>
        <time>2019-08-15T11:18:07Z</time>
      </trkpt>
      <trkpt lat="41.9079770" lon="-5.4961510">
        <ele>713.7</ele>
        <time>2019-08-15T11:18:08Z</time>
      </trkpt>
      <trkpt lat="41.9080160" lon="-5.4961690">
        <ele>713.7</ele>
        <time>2019-08-15T11:18:09Z</time>
      </trkpt>
      <trkpt lat="41.9080520" lon="-5.4961940">
        <ele>713.7</ele>
        <time>2019-08-15T11:18:10Z</time>
      </trkpt>
      <trkpt lat="41.9080860" lon="-5.4962280">
        <ele>713.7</ele>
        <time>2019-08-15T11:18:11Z</time>
      </trkpt>
      <trkpt lat="41.9081190" lon="-5.4962680">
        <ele>713.7</ele>
        <time>2019-08-15T11:18:12Z</time>
      </trkpt>
      <trkpt lat="41.9081500" lon="-5.4963140">
        <ele>713.6</ele>
        <time>2019-08-15T11:18:13Z</time>
      </trkpt>
      <trkpt lat="41.9081800" lon="-5.4963650">
        <ele>713.6</ele>
        <time>2019-08-15T11:18:14Z</time>
      </trkpt>
      <trkpt lat="41.9082100" lon="-5.4964190">
        <ele>713.5</ele>
        <time>2019-08-15T11:18:15Z</time>
      </trkpt>
      <trkpt lat="41.9082400" lon="-5.4964750">
        <ele>713.5</ele>
        <time>2019-08-15T11:18:16Z</time>
      </trkpt>
      <trkpt lat="41.9082690" lon="-5.4965340">
        <ele>713.4</ele>
        <time>2019-08-15T11:18:17Z</time>
      </trkpt>
      <trkpt lat="41.9082960" lon="-5.4965950">
        <ele>713.2</ele>
        <time>2019-08-15T11:18:18Z</time>
      </trkpt>
      <trkpt lat="41.9083220" lon="-5.4966580">
        <ele>713.0</ele>
        <time>2019-08-15T11:18:19Z</time>
      </trkpt>
      <trkpt lat="41.9083480" lon="-5.4967230">
        <ele>712.9</ele>
        <time>2019-08-15T11:18:20Z</time>
      </trkpt>
      <trkpt lat="41.9083760" lon="-5.4967880">
        <ele>712.7</ele>
        <time>2019-08-15T11:18:21Z</time>
      </trkpt>
      <trkpt lat="41.9084040" lon="-5.4968530">
        <ele>712.6</ele>
        <time>2019-08-15T11:18:22Z</time>
      </trkpt>
      <trkpt lat="41.9084320" lon="-5.4969200">
        <ele>712.4</ele>
        <time>2019-08-15T11:18:23Z</time>
      </trkpt>
      <trkpt lat="41.9084630" lon="-5.4969890">
        <ele>712.3</ele>
        <time>2019-08-15T11:18:24Z</time>
      </trkpt>
      <trkpt lat="41.9084950" lon="-5.4970590">
        <ele>712.2</ele>
        <time>2019-08-15T11:18:25Z</time>
      </trkpt>
      <trkpt lat="41.9085260" lon="-5.4971300">
        <ele>712.1</ele>
        <time>2019-08-15T11:18:26Z</time>
      </trkpt>
      <trkpt lat="41.9085570" lon="-5.4972030">
        <ele>712.0</ele>
        <time>2019-08-15T11:18:27Z</time>
      </trkpt>
      <trkpt lat="41.9085920" lon="-5.4972750">
        <ele>712.0</ele>
        <time>2019-08-15T11:18:28Z</time>
      </trkpt>
      <trkpt lat="41.9086300" lon="-5.4973450">
        <ele>712.1</ele>
        <time>2019-08-15T11:18:29Z</time>
      </trkpt>
      <trkpt lat="41.9086720" lon="-5.4974120">
        <ele>712.2</ele>
        <time>2019-08-15T11:18:30Z</time>
      </trkpt>
      <trkpt lat="41.9087180" lon="-5.4974740">
        <ele>712.3</ele>
        <time>2019-08-15T11:18:31Z</time>
      </trkpt>
      <trkpt lat="41.9087700" lon="-5.4975290">
        <ele>712.4</ele>
        <time>2019-08-15T11:18:32Z</time>
      </trkpt>
      <trkpt lat="41.9088260" lon="-5.4975780">
        <ele>712.5</ele>
        <time>2019-08-15T11:18:33Z</time>
      </trkpt>
      <trkpt lat="41.9088850" lon="-5.4976200">
        <ele>712.5</ele>
        <time>2019-08-15T11:18:34Z</time>
      </trkpt>
      <trkpt lat="41.9089480" lon="-5.4976550">
        <ele>712.5</ele>
        <time>2019-08-15T11:18:35Z</time>
      </trkpt>
      <trkpt lat="41.9090120" lon="-5.4976800">
        <ele>712.4</ele>
        <time>2019-08-15T11:18:36Z</time>
      </trkpt>
      <trkpt lat="41.9090760" lon="-5.4977010">
        <ele>712.2</ele>
        <time>2019-08-15T11:18:37Z</time>
      </trkpt>
      <trkpt lat="41.9091350" lon="-5.4977200">
        <ele>712.0</ele>
        <time>2019-08-15T11:18:38Z</time>
      </trkpt>
      <trkpt lat="41.9091880" lon="-5.4977390">
        <ele>711.8</ele>
        <time>2019-08-15T11:18:39Z</time>
      </trkpt>
      <trkpt lat="41.9092350" lon="-5.4977570">
        <ele>711.5</ele>
        <time>2019-08-15T11:18:40Z</time>
      </trkpt>
      <trkpt lat="41.9092780" lon="-5.4977740">
        <ele>711.3</ele>
        <time>2019-08-15T11:18:41Z</time>
      </trkpt>
      <trkpt lat="41.9093140" lon="-5.4977890">
        <ele>711.0</ele>
        <time>2019-08-15T11:18:42Z</time>
      </trkpt>
      <trkpt lat="41.9093460" lon="-5.4978050">
        <ele>711.1</ele>
        <time>2019-08-15T11:18:43Z</time>
      </trkpt>
      <trkpt lat="41.9093710" lon="-5.4978220">
        <ele>711.2</ele>
        <time>2019-08-15T11:18:44Z</time>
      </trkpt>
      <trkpt lat="41.9093850" lon="-5.4978380">
        <ele>711.2</ele>
        <time>2019-08-15T11:18:45Z</time>
      </trkpt>
      <trkpt lat="41.9093840" lon="-5.4978750">
        <ele>711.3</ele>
        <time>2019-08-15T11:18:47Z</time>
      </trkpt>
      <trkpt lat="41.9093480" lon="-5.4979090">
        <ele>711.5</ele>
        <time>2019-08-15T11:18:49Z</time>
      </trkpt>
      <trkpt lat="41.9092980" lon="-5.4979240">
        <ele>711.7</ele>
        <time>2019-08-15T11:18:51Z</time>
      </trkpt>
      <trkpt lat="41.9092470" lon="-5.4979350">
        <ele>712.0</ele>
        <time>2019-08-15T11:18:53Z</time>
      </trkpt>
      <trkpt lat="41.9091890" lon="-5.4979360">
        <ele>712.2</ele>
        <time>2019-08-15T11:18:55Z</time>
      </trkpt>
      <trkpt lat="41.9091580" lon="-5.4979290">
        <ele>712.3</ele>
        <time>2019-08-15T11:18:56Z</time>
      </trkpt>
      <trkpt lat="41.9091270" lon="-5.4979190">
        <ele>712.3</ele>
        <time>2019-08-15T11:18:57Z</time>
      </trkpt>
      <trkpt lat="41.9090960" lon="-5.4979070">
        <ele>712.4</ele>
        <time>2019-08-15T11:18:58Z</time>
      </trkpt>
      <trkpt lat="41.9090630" lon="-5.4978930">
        <ele>712.5</ele>
        <time>2019-08-15T11:18:59Z</time>
      </trkpt>
      <trkpt lat="41.9090310" lon="-5.4978760">
        <ele>712.5</ele>
        <time>2019-08-15T11:19:00Z</time>
      </trkpt>
      <trkpt lat="41.9089980" lon="-5.4978550">
        <ele>712.6</ele>
        <time>2019-08-15T11:19:01Z</time>
      </trkpt>
      <trkpt lat="41.9089660" lon="-5.4978330">
        <ele>712.6</ele>
        <time>2019-08-15T11:19:02Z</time>
      </trkpt>
      <trkpt lat="41.9089330" lon="-5.4978130">
        <ele>712.6</ele>
        <time>2019-08-15T11:19:03Z</time>
      </trkpt>
      <trkpt lat="41.9089000" lon="-5.4977920">
        <ele>712.6</ele>
        <time>2019-08-15T11:19:04Z</time>
      </trkpt>
      <trkpt lat="41.9088690" lon="-5.4977690">
        <ele>712.6</ele>
        <time>2019-08-15T11:19:05Z</time>
      </trkpt>
      <trkpt lat="41.9088380" lon="-5.4977460">
        <ele>712.6</ele>
        <time>2019-08-15T11:19:06Z</time>
      </trkpt>
      <trkpt lat="41.9088080" lon="-5.4977220">
        <ele>712.5</ele>
        <time>2019-08-15T11:19:07Z</time>
      </trkpt>
      <trkpt lat="41.9087760" lon="-5.4977010">
        <ele>712.4</ele>
        <time>2019-08-15T11:19:08Z</time>
      </trkpt>
      <trkpt lat="41.9087440" lon="-5.4976790">
        <ele>712.4</ele>
        <time>2019-08-15T11:19:09Z</time>
      </trkpt>
      <trkpt lat="41.9087120" lon="-5.4976550">
        <ele>712.3</ele>
        <time>2019-08-15T11:19:10Z</time>
      </trkpt>
      <trkpt lat="41.9086800" lon="-5.4976290">
        <ele>712.2</ele>
        <time>2019-08-15T11:19:11Z</time>
      </trkpt>
      <trkpt lat="41.9086460" lon="-5.4976030">
        <ele>712.2</ele>
        <time>2019-08-15T11:19:12Z</time>
      </trkpt>
      <trkpt lat="41.9086100" lon="-5.4975770">
        <ele>712.0</ele>
        <time>2019-08-15T11:19:13Z</time>
      </trkpt>
      <trkpt lat="41.9085730" lon="-5.4975540">
        <ele>712.0</ele>
        <time>2019-08-15T11:19:14Z</time>
      </trkpt>
      <trkpt lat="41.9085330" lon="-5.4975360">
        <ele>711.9</ele>
        <time>2019-08-15T11:19:15Z</time>
      </trkpt>
      <trkpt lat="41.9084910" lon="-5.4975250">
        <ele>711.9</ele>
        <time>2019-08-15T11:19:16Z</time>
      </trkpt>
      <trkpt lat="41.9084470" lon="-5.4975280">
        <ele>711.9</ele>
        <time>2019-08-15T11:19:17Z</time>
      </trkpt>
      <trkpt lat="41.9084060" lon="-5.4975470">
        <ele>712.0</ele>
        <time>2019-08-15T11:19:18Z</time>
      </trkpt>
      <trkpt lat="41.9083700" lon="-5.4975820">
        <ele>712.1</ele>
        <time>2019-08-15T11:19:19Z</time>
      </trkpt>
      <trkpt lat="41.9083430" lon="-5.4976290">
        <ele>712.2</ele>
        <time>2019-08-15T11:19:20Z</time>
      </trkpt>
      <trkpt lat="41.9083240" lon="-5.4976810">
        <ele>712.4</ele>
        <time>2019-08-15T11:19:21Z</time>
      </trkpt>
      <trkpt lat="41.9083160" lon="-5.4977360">
        <ele>712.5</ele>
        <time>2019-08-15T11:19:22Z</time>
      </trkpt>
      <trkpt lat="41.9083190" lon="-5.4977920">
        <ele>712.7</ele>
        <time>2019-08-15T11:19:23Z</time>
      </trkpt>
      <trkpt lat="41.9083300" lon="-5.4978470">
        <ele>712.8</ele>
        <time>2019-08-15T11:19:24Z</time>
      </trkpt>
      <trkpt lat="41.9083460" lon="-5.4978990">
        <ele>712.9</ele>
        <time>2019-08-15T11:19:25Z</time>
      </trkpt>
      <trkpt lat="41.9083640" lon="-5.4979490">
        <ele>713.0</ele>
        <time>2019-08-15T11:19:26Z</time>
      </trkpt>
      <trkpt lat="41.9083840" lon="-5.4980000">
        <ele>713.1</ele>
        <time>2019-08-15T11:19:27Z</time>
      </trkpt>
      <trkpt lat="41.9084060" lon="-5.4980510">
        <ele>713.2</ele>
        <time>2019-08-15T11:19:28Z</time>
      </trkpt>
      <trkpt lat="41.9084290" lon="-5.4981030">
        <ele>713.3</ele>
        <time>2019-08-15T11:19:29Z</time>
      </trkpt>
      <trkpt lat="41.9084520" lon="-5.4981550">
        <ele>713.4</ele>
        <time>2019-08-15T11:19:30Z</time>
      </trkpt>
      <trkpt lat="41.9084770" lon="-5.4982080">
        <ele>713.4</ele>
        <time>2019-08-15T11:19:31Z</time>
      </trkpt>
      <trkpt lat="41.9085020" lon="-5.4982620">
        <ele>713.5</ele>
        <time>2019-08-15T11:19:32Z</time>
      </trkpt>
      <trkpt lat="41.9085280" lon="-5.4983140">
        <ele>713.5</ele>
        <time>2019-08-15T11:19:33Z</time>
      </trkpt>
      <trkpt lat="41.9085540" lon="-5.4983660">
        <ele>713.5</ele>
        <time>2019-08-15T11:19:34Z</time>
      </trkpt>
      <trkpt lat="41.9085790" lon="-5.4984160">
        <ele>713.5</ele>
        <time>2019-08-15T11:19:35Z</time>
      </trkpt>
      <trkpt lat="41.9086020" lon="-5.4984630">
        <ele>713.5</ele>
        <time>2019-08-15T11:19:36Z</time>
      </trkpt>
      <trkpt lat="41.9086250" lon="-5.4985090">
        <ele>713.4</ele>
        <time>2019-08-15T11:19:37Z</time>
      </trkpt>
      <trkpt lat="41.9086490" lon="-5.4985580">
        <ele>713.4</ele>
        <time>2019-08-15T11:19:38Z</time>
      </trkpt>
      <trkpt lat="41.9086730" lon="-5.4986070">
        <ele>713.3</ele>
        <time>2019-08-15T11:19:39Z</time>
      </trkpt>
      <trkpt lat="41.9086970" lon="-5.4986590">
        <ele>713.3</ele>
        <time>2019-08-15T11:19:40Z</time>
      </trkpt>
      <trkpt lat="41.9087220" lon="-5.4987100">
        <ele>713.3</ele>
        <time>2019-08-15T11:19:41Z</time>
      </trkpt>
      <trkpt lat="41.9087470" lon="-5.4987580">
        <ele>713.2</ele>
        <time>2019-08-15T11:19:42Z</time>
      </trkpt>
      <trkpt lat="41.9087710" lon="-5.4988070">
        <ele>713.2</ele>
        <time>2019-08-15T11:19:43Z</time>
      </trkpt>
      <trkpt lat="41.9087930" lon="-5.4988530">
        <ele>713.2</ele>
        <time>2019-08-15T11:19:44Z</time>
      </trkpt>
      <trkpt lat="41.9088140" lon="-5.4988970">
        <ele>713.2</ele>
        <time>2019-08-15T11:19:45Z</time>
      </trkpt>
      <trkpt lat="41.9088350" lon="-5.4989380">
        <ele>713.2</ele>
        <time>2019-08-15T11:19:46Z</time>
      </trkpt>
      <trkpt lat="41.9088570" lon="-5.4989820">
        <ele>713.2</ele>
        <time>2019-08-15T11:19:47Z</time>
      </trkpt>
      <trkpt lat="41.9088800" lon="-5.4990270">
        <ele>713.1</ele>
        <time>2019-08-15T11:19:48Z</time>
      </trkpt>
      <trkpt lat="41.9089030" lon="-5.4990720">
        <ele>713.1</ele>
        <time>2019-08-15T11:19:49Z</time>
      </trkpt>
      <trkpt lat="41.9089260" lon="-5.4991200">
        <ele>713.1</ele>
        <time>2019-08-15T11:19:50Z</time>
      </trkpt>
      <trkpt lat="41.9089500" lon="-5.4991670">
        <ele>713.1</ele>
        <time>2019-08-15T11:19:51Z</time>
      </trkpt>
      <trkpt lat="41.9089740" lon="-5.4992140">
        <ele>713.1</ele>
        <time>2019-08-15T11:19:52Z</time>
      </trkpt>
      <trkpt lat="41.9089970" lon="-5.4992620">
        <ele>713.1</ele>
        <time>2019-08-15T11:19:53Z</time>
      </trkpt>
      <trkpt lat="41.9090210" lon="-5.4993120">
        <ele>713.2</ele>
        <time>2019-08-15T11:19:54Z</time>
      </trkpt>
      <trkpt lat="41.9090450" lon="-5.4993620">
        <ele>713.2</ele>
        <time>2019-08-15T11:19:55Z</time>
      </trkpt>
      <trkpt lat="41.9090680" lon="-5.4994130">
        <ele>713.2</ele>
        <time>2019-08-15T11:19:56Z</time>
      </trkpt>
      <trkpt lat="41.9090930" lon="-5.4994630">
        <ele>713.2</ele>
        <time>2019-08-15T11:19:57Z</time>
      </trkpt>
      <trkpt lat="41.9091170" lon="-5.4995140">
        <ele>713.2</ele>
        <time>2019-08-15T11:19:58Z</time>
      </trkpt>
      <trkpt lat="41.9091410" lon="-5.4995660">
        <ele>713.3</ele>
        <time>2019-08-15T11:19:59Z</time>
      </trkpt>
      <trkpt lat="41.9091670" lon="-5.4996180">
        <ele>713.3</ele>
        <time>2019-08-15T11:20:00Z</time>
      </trkpt>
      <trkpt lat="41.9091940" lon="-5.4996720">
        <ele>713.3</ele>
        <time>2019-08-15T11:20:01Z</time>
      </trkpt>
      <trkpt lat="41.9092210" lon="-5.4997280">
        <ele>713.2</ele>
        <time>2019-08-15T11:20:02Z</time>
      </trkpt>
      <trkpt lat="41.9092500" lon="-5.4997830">
        <ele>713.2</ele>
        <time>2019-08-15T11:20:03Z</time>
      </trkpt>
      <trkpt lat="41.9092770" lon="-5.4998440">
        <ele>713.2</ele>
        <time>2019-08-15T11:20:04Z</time>
      </trkpt>
      <trkpt lat="41.9093070" lon="-5.4999050">
        <ele>713.2</ele>
        <time>2019-08-15T11:20:05Z</time>
      </trkpt>
      <trkpt lat="41.9093400" lon="-5.4999690">
        <ele>713.2</ele>
        <time>2019-08-15T11:20:06Z</time>
      </trkpt>
      <trkpt lat="41.9093750" lon="-5.5000310">
        <ele>713.2</ele>
        <time>2019-08-15T11:20:07Z</time>
      </trkpt>
      <trkpt lat="41.9094100" lon="-5.5000960">
        <ele>713.3</ele>
        <time>2019-08-15T11:20:08Z</time>
      </trkpt>
      <trkpt lat="41.9094430" lon="-5.5001590">
        <ele>713.3</ele>
        <time>2019-08-15T11:20:09Z</time>
      </trkpt>
      <trkpt lat="41.9094720" lon="-5.5002240">
        <ele>713.3</ele>
        <time>2019-08-15T11:20:10Z</time>
      </trkpt>
      <trkpt lat="41.9094940" lon="-5.5002880">
        <ele>713.3</ele>
        <time>2019-08-15T11:20:11Z</time>
      </trkpt>
      <trkpt lat="41.9095110" lon="-5.5003500">
        <ele>713.3</ele>
        <time>2019-08-15T11:20:12Z</time>
      </trkpt>
      <trkpt lat="41.9095290" lon="-5.5004040">
        <ele>713.3</ele>
        <time>2019-08-15T11:20:13Z</time>
      </trkpt>
      <trkpt lat="41.9095470" lon="-5.5004460">
        <ele>713.3</ele>
        <time>2019-08-15T11:20:14Z</time>
      </trkpt>
      <trkpt lat="41.9095660" lon="-5.5004820">
        <ele>713.3</ele>
        <time>2019-08-15T11:20:15Z</time>
      </trkpt>
      <trkpt lat="41.9095850" lon="-5.5005170">
        <ele>713.3</ele>
        <time>2019-08-15T11:20:16Z</time>
      </trkpt>
      <trkpt lat="41.9096030" lon="-5.5005530">
        <ele>713.3</ele>
        <time>2019-08-15T11:20:17Z</time>
      </trkpt>
      <trkpt lat="41.9096220" lon="-5.5005880">
        <ele>713.3</ele>
        <time>2019-08-15T11:20:18Z</time>
      </trkpt>
      <trkpt lat="41.9096420" lon="-5.5006230">
        <ele>713.3</ele>
        <time>2019-08-15T11:20:19Z</time>
      </trkpt>
      <trkpt lat="41.9096620" lon="-5.5006590">
        <ele>713.3</ele>
        <time>2019-08-15T11:20:20Z</time>
      </trkpt>
      <trkpt lat="41.9096810" lon="-5.5006950">
        <ele>713.3</ele>
        <time>2019-08-15T11:20:21Z</time>
      </trkpt>
      <trkpt lat="41.9097010" lon="-5.5007320">
        <ele>713.2</ele>
        <time>2019-08-15T11:20:22Z</time>
      </trkpt>
      <trkpt lat="41.9097200" lon="-5.5007690">
        <ele>713.2</ele>
        <time>2019-08-15T11:20:23Z</time>
      </trkpt>
      <trkpt lat="41.9097380" lon="-5.5008070">
        <ele>713.2</ele>
        <time>2019-08-15T11:20:24Z</time>
      </trkpt>
      <trkpt lat="41.9097560" lon="-5.5008450">
        <ele>713.2</ele>
        <time>2019-08-15T11:20:25Z</time>
      </trkpt>
      <trkpt lat="41.9097750" lon="-5.5008830">
        <ele>713.2</ele>
        <time>2019-08-15T11:20:26Z</time>
      </trkpt>
      <trkpt lat="41.9097930" lon="-5.5009220">
        <ele>713.2</ele>
        <time>2019-08-15T11:20:27Z</time>
      </trkpt>
      <trkpt lat="41.9098130" lon="-5.5009610">
        <ele>713.1</ele>
        <time>2019-08-15T11:20:28Z</time>
      </trkpt>
      <trkpt lat="41.9098310" lon="-5.5010000">
        <ele>713.1</ele>
        <time>2019-08-15T11:20:29Z</time>
      </trkpt>
      <trkpt lat="41.9098490" lon="-5.5010380">
        <ele>713.1</ele>
        <time>2019-08-15T11:20:30Z</time>
      </trkpt>
      <trkpt lat="41.9098690" lon="-5.5010730">
        <ele>713.1</ele>
        <time>2019-08-15T11:20:31Z</time>
      </trkpt>
      <trkpt lat="41.9098880" lon="-5.5011100">
        <ele>713.1</ele>
        <time>2019-08-15T11:20:32Z</time>
      </trkpt>
      <trkpt lat="41.9099060" lon="-5.5011480">
        <ele>713.1</ele>
        <time>2019-08-15T11:20:33Z</time>
      </trkpt>
      <trkpt lat="41.9099240" lon="-5.5011870">
        <ele>713.1</ele>
        <time>2019-08-15T11:20:34Z</time>
      </trkpt>
      <trkpt lat="41.9099410" lon="-5.5012270">
        <ele>713.1</ele>
        <time>2019-08-15T11:20:35Z</time>
      </trkpt>
      <trkpt lat="41.9099600" lon="-5.5012670">
        <ele>713.1</ele>
        <time>2019-08-15T11:20:36Z</time>
      </trkpt>
      <trkpt lat="41.9099790" lon="-5.5013060">
        <ele>713.1</ele>
        <time>2019-08-15T11:20:37Z</time>
      </trkpt>
      <trkpt lat="41.9099970" lon="-5.5013460">
        <ele>713.2</ele>
        <time>2019-08-15T11:20:38Z</time>
      </trkpt>
      <trkpt lat="41.9100150" lon="-5.5013850">
        <ele>713.2</ele>
        <time>2019-08-15T11:20:39Z</time>
      </trkpt>
      <trkpt lat="41.9100330" lon="-5.5014230">
        <ele>713.2</ele>
        <time>2019-08-15T11:20:40Z</time>
      </trkpt>
      <trkpt lat="41.9100530" lon="-5.5014620">
        <ele>713.2</ele>
        <time>2019-08-15T11:20:41Z</time>
      </trkpt>
      <trkpt lat="41.9100710" lon="-5.5015020">
        <ele>713.3</ele>
        <time>2019-08-15T11:20:42Z</time>
      </trkpt>
      <trkpt lat="41.9100890" lon="-5.5015410">
        <ele>713.3</ele>
        <time>2019-08-15T11:20:43Z</time>
      </trkpt>
      <trkpt lat="41.9101080" lon="-5.5015790">
        <ele>713.4</ele>
        <time>2019-08-15T11:20:44Z</time>
      </trkpt>
      <trkpt lat="41.9101280" lon="-5.5016190">
        <ele>713.4</ele>
        <time>2019-08-15T11:20:45Z</time>
      </trkpt>
      <trkpt lat="41.9101480" lon="-5.5016580">
        <ele>713.5</ele>
        <time>2019-08-15T11:20:46Z</time>
      </trkpt>
      <trkpt lat="41.9101670" lon="-5.5016970">
        <ele>713.5</ele>
        <time>2019-08-15T11:20:47Z</time>
      </trkpt>
      <trkpt lat="41.9101860" lon="-5.5017370">
        <ele>713.5</ele>
        <time>2019-08-15T11:20:48Z</time>
      </trkpt>
      <trkpt lat="41.9102050" lon="-5.5017770">
        <ele>713.6</ele>
        <time>2019-08-15T11:20:49Z</time>
      </trkpt>
      <trkpt lat="41.9102230" lon="-5.5018170">
        <ele>713.7</ele>
        <time>2019-08-15T11:20:50Z</time>
      </trkpt>
      <trkpt lat="41.9102410" lon="-5.5018560">
        <ele>713.7</ele>
        <time>2019-08-15T11:20:51Z</time>
      </trkpt>
      <trkpt lat="41.9102590" lon="-5.5018960">
        <ele>713.7</ele>
        <time>2019-08-15T11:20:52Z</time>
      </trkpt>
      <trkpt lat="41.9102780" lon="-5.5019360">
        <ele>713.8</ele>
        <time>2019-08-15T11:20:53Z</time>
      </trkpt>
      <trkpt lat="41.9102980" lon="-5.5019740">
        <ele>713.9</ele>
        <time>2019-08-15T11:20:54Z</time>
      </trkpt>
      <trkpt lat="41.9103160" lon="-5.5020130">
        <ele>713.9</ele>
        <time>2019-08-15T11:20:55Z</time>
      </trkpt>
      <trkpt lat="41.9103350" lon="-5.5020510">
        <ele>714.0</ele>
        <time>2019-08-15T11:20:56Z</time>
      </trkpt>
      <trkpt lat="41.9103540" lon="-5.5020900">
        <ele>714.1</ele>
        <time>2019-08-15T11:20:57Z</time>
      </trkpt>
      <trkpt lat="41.9103740" lon="-5.5021300">
        <ele>714.1</ele>
        <time>2019-08-15T11:20:58Z</time>
      </trkpt>
      <trkpt lat="41.9103920" lon="-5.5021690">
        <ele>714.2</ele>
        <time>2019-08-15T11:20:59Z</time>
      </trkpt>
      <trkpt lat="41.9104090" lon="-5.5022070">
        <ele>714.4</ele>
        <time>2019-08-15T11:21:00Z</time>
      </trkpt>
      <trkpt lat="41.9104270" lon="-5.5022440">
        <ele>714.5</ele>
        <time>2019-08-15T11:21:01Z</time>
      </trkpt>
      <trkpt lat="41.9104450" lon="-5.5022820">
        <ele>714.6</ele>
        <time>2019-08-15T11:21:02Z</time>
      </trkpt>
      <trkpt lat="41.9104630" lon="-5.5023190">
        <ele>714.7</ele>
        <time>2019-08-15T11:21:03Z</time>
      </trkpt>
      <trkpt lat="41.9104810" lon="-5.5023570">
        <ele>714.8</ele>
        <time>2019-08-15T11:21:04Z</time>
      </trkpt>
      <trkpt lat="41.9104980" lon="-5.5023940">
        <ele>715.0</ele>
        <time>2019-08-15T11:21:05Z</time>
      </trkpt>
      <trkpt lat="41.9105160" lon="-5.5024320">
        <ele>715.2</ele>
        <time>2019-08-15T11:21:06Z</time>
      </trkpt>
      <trkpt lat="41.9105330" lon="-5.5024700">
        <ele>715.3</ele>
        <time>2019-08-15T11:21:07Z</time>
      </trkpt>
      <trkpt lat="41.9105510" lon="-5.5025060">
        <ele>715.4</ele>
        <time>2019-08-15T11:21:08Z</time>
      </trkpt>
      <trkpt lat="41.9105680" lon="-5.5025430">
        <ele>715.5</ele>
        <time>2019-08-15T11:21:09Z</time>
      </trkpt>
      <trkpt lat="41.9105860" lon="-5.5025800">
        <ele>715.7</ele>
        <time>2019-08-15T11:21:10Z</time>
      </trkpt>
      <trkpt lat="41.9106030" lon="-5.5026150">
        <ele>715.9</ele>
        <time>2019-08-15T11:21:11Z</time>
      </trkpt>
      <trkpt lat="41.9106210" lon="-5.5026510">
        <ele>716.0</ele>
        <time>2019-08-15T11:21:12Z</time>
      </trkpt>
      <trkpt lat="41.9106380" lon="-5.5026870">
        <ele>716.1</ele>
        <time>2019-08-15T11:21:13Z</time>
      </trkpt>
      <trkpt lat="41.9106540" lon="-5.5027230">
        <ele>716.3</ele>
        <time>2019-08-15T11:21:14Z</time>
      </trkpt>
      <trkpt lat="41.9106720" lon="-5.5027590">
        <ele>716.5</ele>
        <time>2019-08-15T11:21:15Z</time>
      </trkpt>
      <trkpt lat="41.9106890" lon="-5.5027950">
        <ele>716.7</ele>
        <time>2019-08-15T11:21:16Z</time>
      </trkpt>
      <trkpt lat="41.9107070" lon="-5.5028300">
        <ele>716.9</ele>
        <time>2019-08-15T11:21:17Z</time>
      </trkpt>
      <trkpt lat="41.9107240" lon="-5.5028660">
        <ele>717.1</ele>
        <time>2019-08-15T11:21:18Z</time>
      </trkpt>
      <trkpt lat="41.9107400" lon="-5.5029020">
        <ele>717.2</ele>
        <time>2019-08-15T11:21:19Z</time>
      </trkpt>
      <trkpt lat="41.9107560" lon="-5.5029370">
        <ele>717.3</ele>
        <time>2019-08-15T11:21:20Z</time>
      </trkpt>
      <trkpt lat="41.9107740" lon="-5.5029720">
        <ele>717.4</ele>
        <time>2019-08-15T11:21:21Z</time>
      </trkpt>
      <trkpt lat="41.9107910" lon="-5.5030080">
        <ele>717.6</ele>
        <time>2019-08-15T11:21:22Z</time>
      </trkpt>
      <trkpt lat="41.9108070" lon="-5.5030430">
        <ele>717.8</ele>
        <time>2019-08-15T11:21:23Z</time>
      </trkpt>
      <trkpt lat="41.9108230" lon="-5.5030780">
        <ele>717.9</ele>
        <time>2019-08-15T11:21:24Z</time>
      </trkpt>
      <trkpt lat="41.9108400" lon="-5.5031130">
        <ele>718.0</ele>
        <time>2019-08-15T11:21:25Z</time>
      </trkpt>
      <trkpt lat="41.9108570" lon="-5.5031480">
        <ele>718.2</ele>
        <time>2019-08-15T11:21:26Z</time>
      </trkpt>
      <trkpt lat="41.9108740" lon="-5.5031820">
        <ele>718.3</ele>
        <time>2019-08-15T11:21:27Z</time>
      </trkpt>
      <trkpt lat="41.9108910" lon="-5.5032160">
        <ele>718.4</ele>
        <time>2019-08-15T11:21:28Z</time>
      </trkpt>
      <trkpt lat="41.9109080" lon="-5.5032500">
        <ele>718.5</ele>
        <time>2019-08-15T11:21:29Z</time>
      </trkpt>
      <trkpt lat="41.9109250" lon="-5.5032840">
        <ele>718.6</ele>
        <time>2019-08-15T11:21:30Z</time>
      </trkpt>
      <trkpt lat="41.9109420" lon="-5.5033180">
        <ele>718.7</ele>
        <time>2019-08-15T11:21:31Z</time>
      </trkpt>
      <trkpt lat="41.9109590" lon="-5.5033530">
        <ele>718.8</ele>
        <time>2019-08-15T11:21:32Z</time>
      </trkpt>
      <trkpt lat="41.9109760" lon="-5.5033880">
        <ele>718.9</ele>
        <time>2019-08-15T11:21:33Z</time>
      </trkpt>
      <trkpt lat="41.9109930" lon="-5.5034230">
        <ele>719.1</ele>
        <time>2019-08-15T11:21:34Z</time>
      </trkpt>
      <trkpt lat="41.9110100" lon="-5.5034590">
        <ele>719.2</ele>
        <time>2019-08-15T11:21:35Z</time>
      </trkpt>
      <trkpt lat="41.9110270" lon="-5.5034950">
        <ele>719.2</ele>
        <time>2019-08-15T11:21:36Z</time>
      </trkpt>
      <trkpt lat="41.9110440" lon="-5.5035300">
        <ele>719.3</ele>
        <time>2019-08-15T11:21:37Z</time>
      </trkpt>
      <trkpt lat="41.9110610" lon="-5.5035650">
        <ele>719.4</ele>
        <time>2019-08-15T11:21:38Z</time>
      </trkpt>
      <trkpt lat="41.9110780" lon="-5.5036000">
        <ele>719.5</ele>
        <time>2019-08-15T11:21:39Z</time>
      </trkpt>
      <trkpt lat="41.9110960" lon="-5.5036350">
        <ele>719.6</ele>
        <time>2019-08-15T11:21:40Z</time>
      </trkpt>
      <trkpt lat="41.9111140" lon="-5.5036700">
        <ele>719.7</ele>
        <time>2019-08-15T11:21:41Z</time>
      </trkpt>
      <trkpt lat="41.9111310" lon="-5.5037060">
        <ele>719.8</ele>
        <time>2019-08-15T11:21:42Z</time>
      </trkpt>
      <trkpt lat="41.9111490" lon="-5.5037430">
        <ele>719.9</ele>
        <time>2019-08-15T11:21:43Z</time>
      </trkpt>
      <trkpt lat="41.9111670" lon="-5.5037800">
        <ele>720.0</ele>
        <time>2019-08-15T11:21:44Z</time>
      </trkpt>
      <trkpt lat="41.9111860" lon="-5.5038170">
        <ele>720.1</ele>
        <time>2019-08-15T11:21:45Z</time>
      </trkpt>
      <trkpt lat="41.9112040" lon="-5.5038540">
        <ele>720.2</ele>
        <time>2019-08-15T11:21:46Z</time>
      </trkpt>
      <trkpt lat="41.9112220" lon="-5.5038920">
        <ele>720.3</ele>
        <time>2019-08-15T11:21:47Z</time>
      </trkpt>
      <trkpt lat="41.9112410" lon="-5.5039300">
        <ele>720.4</ele>
        <time>2019-08-15T11:21:48Z</time>
      </trkpt>
      <trkpt lat="41.9112600" lon="-5.5039680">
        <ele>720.5</ele>
        <time>2019-08-15T11:21:49Z</time>
      </trkpt>
      <trkpt lat="41.9112790" lon="-5.5040070">
        <ele>720.6</ele>
        <time>2019-08-15T11:21:50Z</time>
      </trkpt>
      <trkpt lat="41.9112980" lon="-5.5040460">
        <ele>720.6</ele>
        <time>2019-08-15T11:21:51Z</time>
      </trkpt>
      <trkpt lat="41.9113180" lon="-5.5040850">
        <ele>720.7</ele>
        <time>2019-08-15T11:21:52Z</time>
      </trkpt>
      <trkpt lat="41.9113380" lon="-5.5041240">
        <ele>720.7</ele>
        <time>2019-08-15T11:21:53Z</time>
      </trkpt>
      <trkpt lat="41.9113570" lon="-5.5041630">
        <ele>720.8</ele>
        <time>2019-08-15T11:21:54Z</time>
      </trkpt>
      <trkpt lat="41.9113770" lon="-5.5042020">
        <ele>720.8</ele>
        <time>2019-08-15T11:21:55Z</time>
      </trkpt>
      <trkpt lat="41.9113960" lon="-5.5042400">
        <ele>720.9</ele>
        <time>2019-08-15T11:21:56Z</time>
      </trkpt>
      <trkpt lat="41.9114150" lon="-5.5042780">
        <ele>720.9</ele>
        <time>2019-08-15T11:21:57Z</time>
      </trkpt>
      <trkpt lat="41.9114340" lon="-5.5043160">
        <ele>721.0</ele>
        <time>2019-08-15T11:21:58Z</time>
      </trkpt>
      <trkpt lat="41.9114540" lon="-5.5043540">
        <ele>721.0</ele>
        <time>2019-08-15T11:21:59Z</time>
      </trkpt>
      <trkpt lat="41.9114740" lon="-5.5043920">
        <ele>721.0</ele>
        <time>2019-08-15T11:22:00Z</time>
      </trkpt>
      <trkpt lat="41.9114940" lon="-5.5044310">
        <ele>721.0</ele>
        <time>2019-08-15T11:22:01Z</time>
      </trkpt>
      <trkpt lat="41.9115140" lon="-5.5044710">
        <ele>721.1</ele>
        <time>2019-08-15T11:22:02Z</time>
      </trkpt>
      <trkpt lat="41.9115340" lon="-5.5045090">
        <ele>721.1</ele>
        <time>2019-08-15T11:22:03Z</time>
      </trkpt>
      <trkpt lat="41.9115540" lon="-5.5045480">
        <ele>721.1</ele>
        <time>2019-08-15T11:22:04Z</time>
      </trkpt>
      <trkpt lat="41.9115730" lon="-5.5045860">
        <ele>721.1</ele>
        <time>2019-08-15T11:22:05Z</time>
      </trkpt>
      <trkpt lat="41.9115930" lon="-5.5046240">
        <ele>721.2</ele>
        <time>2019-08-15T11:22:06Z</time>
      </trkpt>
      <trkpt lat="41.9116130" lon="-5.5046600">
        <ele>721.2</ele>
        <time>2019-08-15T11:22:07Z</time>
      </trkpt>
      <trkpt lat="41.9116330" lon="-5.5046960">
        <ele>721.3</ele>
        <time>2019-08-15T11:22:08Z</time>
      </trkpt>
      <trkpt lat="41.9116530" lon="-5.5047340">
        <ele>721.3</ele>
        <time>2019-08-15T11:22:09Z</time>
      </trkpt>
      <trkpt lat="41.9116730" lon="-5.5047710">
        <ele>721.4</ele>
        <time>2019-08-15T11:22:10Z</time>
      </trkpt>
      <trkpt lat="41.9116930" lon="-5.5048090">
        <ele>721.4</ele>
        <time>2019-08-15T11:22:11Z</time>
      </trkpt>
      <trkpt lat="41.9117140" lon="-5.5048470">
        <ele>721.5</ele>
        <time>2019-08-15T11:22:12Z</time>
      </trkpt>
      <trkpt lat="41.9117340" lon="-5.5048860">
        <ele>721.6</ele>
        <time>2019-08-15T11:22:13Z</time>
      </trkpt>
      <trkpt lat="41.9117550" lon="-5.5049240">
        <ele>721.7</ele>
        <time>2019-08-15T11:22:14Z</time>
      </trkpt>
      <trkpt lat="41.9117760" lon="-5.5049620">
        <ele>721.8</ele>
        <time>2019-08-15T11:22:15Z</time>
      </trkpt>
      <trkpt lat="41.9117960" lon="-5.5049990">
        <ele>721.9</ele>
        <time>2019-08-15T11:22:16Z</time>
      </trkpt>
      <trkpt lat="41.9118170" lon="-5.5050370">
        <ele>721.9</ele>
        <time>2019-08-15T11:22:17Z</time>
      </trkpt>
      <trkpt lat="41.9118380" lon="-5.5050740">
        <ele>722.0</ele>
        <time>2019-08-15T11:22:18Z</time>
      </trkpt>
      <trkpt lat="41.9118590" lon="-5.5051110">
        <ele>722.1</ele>
        <time>2019-08-15T11:22:19Z</time>
      </trkpt>
      <trkpt lat="41.9118800" lon="-5.5051490">
        <ele>722.2</ele>
        <time>2019-08-15T11:22:20Z</time>
      </trkpt>
      <trkpt lat="41.9119010" lon="-5.5051860">
        <ele>722.3</ele>
        <time>2019-08-15T11:22:21Z</time>
      </trkpt>
      <trkpt lat="41.9119220" lon="-5.5052230">
        <ele>722.4</ele>
        <time>2019-08-15T11:22:22Z</time>
      </trkpt>
      <trkpt lat="41.9119440" lon="-5.5052600">
        <ele>722.5</ele>
        <time>2019-08-15T11:22:23Z</time>
      </trkpt>
      <trkpt lat="41.9119650" lon="-5.5052960">
        <ele>722.6</ele>
        <time>2019-08-15T11:22:24Z</time>
      </trkpt>
      <trkpt lat="41.9119860" lon="-5.5053330">
        <ele>722.6</ele>
        <time>2019-08-15T11:22:25Z</time>
      </trkpt>
      <trkpt lat="41.9120080" lon="-5.5053690">
        <ele>722.7</ele>
        <time>2019-08-15T11:22:26Z</time>
      </trkpt>
      <trkpt lat="41.9120290" lon="-5.5054050">
        <ele>722.8</ele>
        <time>2019-08-15T11:22:27Z</time>
      </trkpt>
      <trkpt lat="41.9120510" lon="-5.5054420">
        <ele>722.9</ele>
        <time>2019-08-15T11:22:28Z</time>
      </trkpt>
      <trkpt lat="41.9120740" lon="-5.5054780">
        <ele>723.0</ele>
        <time>2019-08-15T11:22:29Z</time>
      </trkpt>
      <trkpt lat="41.9120960" lon="-5.5055140">
        <ele>723.0</ele>
        <time>2019-08-15T11:22:30Z</time>
      </trkpt>
      <trkpt lat="41.9121190" lon="-5.5055510">
        <ele>723.1</ele>
        <time>2019-08-15T11:22:31Z</time>
      </trkpt>
      <trkpt lat="41.9121410" lon="-5.5055880">
        <ele>723.2</ele>
        <time>2019-08-15T11:22:32Z</time>
      </trkpt>
      <trkpt lat="41.9121640" lon="-5.5056240">
        <ele>723.2</ele>
        <time>2019-08-15T11:22:33Z</time>
      </trkpt>
      <trkpt lat="41.9121860" lon="-5.5056610">
        <ele>723.3</ele>
        <time>2019-08-15T11:22:34Z</time>
      </trkpt>
      <trkpt lat="41.9122090" lon="-5.5056980">
        <ele>723.4</ele>
        <time>2019-08-15T11:22:35Z</time>
      </trkpt>
      <trkpt lat="41.9122320" lon="-5.5057330">
        <ele>723.5</ele>
        <time>2019-08-15T11:22:36Z</time>
      </trkpt>
      <trkpt lat="41.9122550" lon="-5.5057690">
        <ele>723.7</ele>
        <time>2019-08-15T11:22:37Z</time>
      </trkpt>
      <trkpt lat="41.9122780" lon="-5.5058040">
        <ele>723.8</ele>
        <time>2019-08-15T11:22:38Z</time>
      </trkpt>
      <trkpt lat="41.9123010" lon="-5.5058390">
        <ele>723.9</ele>
        <time>2019-08-15T11:22:39Z</time>
      </trkpt>
      <trkpt lat="41.9123230" lon="-5.5058740">
        <ele>724.1</ele>
        <time>2019-08-15T11:22:40Z</time>
      </trkpt>
      <trkpt lat="41.9123450" lon="-5.5059090">
        <ele>724.2</ele>
        <time>2019-08-15T11:22:41Z</time>
      </trkpt>
      <trkpt lat="41.9123650" lon="-5.5059450">
        <ele>724.4</ele>
        <time>2019-08-15T11:22:42Z</time>
      </trkpt>
      <trkpt lat="41.9123850" lon="-5.5059810">
        <ele>724.5</ele>
        <time>2019-08-15T11:22:43Z</time>
      </trkpt>
      <trkpt lat="41.9124050" lon="-5.5060160">
        <ele>724.7</ele>
        <time>2019-08-15T11:22:44Z</time>
      </trkpt>
      <trkpt lat="41.9124250" lon="-5.5060500">
        <ele>724.8</ele>
        <time>2019-08-15T11:22:45Z</time>
      </trkpt>
      <trkpt lat="41.9124460" lon="-5.5060830">
        <ele>724.9</ele>
        <time>2019-08-15T11:22:46Z</time>
      </trkpt>
      <trkpt lat="41.9124660" lon="-5.5061150">
        <ele>725.0</ele>
        <time>2019-08-15T11:22:47Z</time>
      </trkpt>
      <trkpt lat="41.9124860" lon="-5.5061480">
        <ele>725.2</ele>
        <time>2019-08-15T11:22:48Z</time>
      </trkpt>
      <trkpt lat="41.9125060" lon="-5.5061810">
        <ele>725.3</ele>
        <time>2019-08-15T11:22:49Z</time>
      </trkpt>
      <trkpt lat="41.9125260" lon="-5.5062140">
        <ele>725.5</ele>
        <time>2019-08-15T11:22:50Z</time>
      </trkpt>
      <trkpt lat="41.9125460" lon="-5.5062460">
        <ele>725.7</ele>
        <time>2019-08-15T11:22:51Z</time>
      </trkpt>
      <trkpt lat="41.9125650" lon="-5.5062780">
        <ele>725.8</ele>
        <time>2019-08-15T11:22:52Z</time>
      </trkpt>
      <trkpt lat="41.9125840" lon="-5.5063110">
        <ele>726.0</ele>
        <time>2019-08-15T11:22:53Z</time>
      </trkpt>
      <trkpt lat="41.9126030" lon="-5.5063430">
        <ele>726.1</ele>
        <time>2019-08-15T11:22:54Z</time>
      </trkpt>
      <trkpt lat="41.9126240" lon="-5.5063750">
        <ele>726.3</ele>
        <time>2019-08-15T11:22:55Z</time>
      </trkpt>
      <trkpt lat="41.9126450" lon="-5.5064070">
        <ele>726.4</ele>
        <time>2019-08-15T11:22:56Z</time>
      </trkpt>
      <trkpt lat="41.9126650" lon="-5.5064400">
        <ele>726.6</ele>
        <time>2019-08-15T11:22:57Z</time>
      </trkpt>
      <trkpt lat="41.9126860" lon="-5.5064740">
        <ele>726.7</ele>
        <time>2019-08-15T11:22:58Z</time>
      </trkpt>
      <trkpt lat="41.9127080" lon="-5.5065070">
        <ele>726.8</ele>
        <time>2019-08-15T11:22:59Z</time>
      </trkpt>
      <trkpt lat="41.9127290" lon="-5.5065410">
        <ele>726.9</ele>
        <time>2019-08-15T11:23:00Z</time>
      </trkpt>
      <trkpt lat="41.9127500" lon="-5.5065750">
        <ele>727.0</ele>
        <time>2019-08-15T11:23:01Z</time>
      </trkpt>
      <trkpt lat="41.9127710" lon="-5.5066090">
        <ele>727.1</ele>
        <time>2019-08-15T11:23:02Z</time>
      </trkpt>
      <trkpt lat="41.9127920" lon="-5.5066430">
        <ele>727.2</ele>
        <time>2019-08-15T11:23:03Z</time>
      </trkpt>
      <trkpt lat="41.9128130" lon="-5.5066770">
        <ele>727.3</ele>
        <time>2019-08-15T11:23:04Z</time>
      </trkpt>
      <trkpt lat="41.9128340" lon="-5.5067100">
        <ele>727.4</ele>
        <time>2019-08-15T11:23:05Z</time>
      </trkpt>
      <trkpt lat="41.9128540" lon="-5.5067420">
        <ele>727.5</ele>
        <time>2019-08-15T11:23:06Z</time>
      </trkpt>
      <trkpt lat="41.9128740" lon="-5.5067730">
        <ele>727.5</ele>
        <time>2019-08-15T11:23:07Z</time>
      </trkpt>
      <trkpt lat="41.9128940" lon="-5.5068030">
        <ele>727.6</ele>
        <time>2019-08-15T11:23:08Z</time>
      </trkpt>
      <trkpt lat="41.9129140" lon="-5.5068340">
        <ele>727.7</ele>
        <time>2019-08-15T11:23:09Z</time>
      </trkpt>
      <trkpt lat="41.9129340" lon="-5.5068650">
        <ele>727.7</ele>
        <time>2019-08-15T11:23:10Z</time>
      </trkpt>
      <trkpt lat="41.9129540" lon="-5.5068960">
        <ele>727.8</ele>
        <time>2019-08-15T11:23:11Z</time>
      </trkpt>
      <trkpt lat="41.9129760" lon="-5.5069270">
        <ele>727.8</ele>
        <time>2019-08-15T11:23:12Z</time>
      </trkpt>
      <trkpt lat="41.9129970" lon="-5.5069600">
        <ele>727.9</ele>
        <time>2019-08-15T11:23:13Z</time>
      </trkpt>
      <trkpt lat="41.9130190" lon="-5.5069920">
        <ele>728.0</ele>
        <time>2019-08-15T11:23:14Z</time>
      </trkpt>
      <trkpt lat="41.9130410" lon="-5.5070250">
        <ele>728.0</ele>
        <time>2019-08-15T11:23:15Z</time>
      </trkpt>
      <trkpt lat="41.9130620" lon="-5.5070590">
        <ele>728.1</ele>
        <time>2019-08-15T11:23:16Z</time>
      </trkpt>
      <trkpt lat="41.9130850" lon="-5.5070920">
        <ele>728.1</ele>
        <time>2019-08-15T11:23:17Z</time>
      </trkpt>
      <trkpt lat="41.9131070" lon="-5.5071250">
        <ele>728.2</ele>
        <time>2019-08-15T11:23:18Z</time>
      </trkpt>
      <trkpt lat="41.9131280" lon="-5.5071580">
        <ele>728.2</ele>
        <time>2019-08-15T11:23:19Z</time>
      </trkpt>
      <trkpt lat="41.9131490" lon="-5.5071910">
        <ele>728.3</ele>
        <time>2019-08-15T11:23:20Z</time>
      </trkpt>
      <trkpt lat="41.9131700" lon="-5.5072230">
        <ele>728.3</ele>
        <time>2019-08-15T11:23:21Z</time>
      </trkpt>
      <trkpt lat="41.9131920" lon="-5.5072550">
        <ele>728.3</ele>
        <time>2019-08-15T11:23:22Z</time>
      </trkpt>
      <trkpt lat="41.9132130" lon="-5.5072870">
        <ele>728.4</ele>
        <time>2019-08-15T11:23:23Z</time>
      </trkpt>
      <trkpt lat="41.9132350" lon="-5.5073200">
        <ele>728.4</ele>
        <time>2019-08-15T11:23:24Z</time>
      </trkpt>
      <trkpt lat="41.9132560" lon="-5.5073530">
        <ele>728.4</ele>
        <time>2019-08-15T11:23:25Z</time>
      </trkpt>
      <trkpt lat="41.9132780" lon="-5.5073860">
        <ele>728.5</ele>
        <time>2019-08-15T11:23:26Z</time>
      </trkpt>
      <trkpt lat="41.9133000" lon="-5.5074200">
        <ele>728.5</ele>
        <time>2019-08-15T11:23:27Z</time>
      </trkpt>
      <trkpt lat="41.9133240" lon="-5.5074540">
        <ele>728.5</ele>
        <time>2019-08-15T11:23:28Z</time>
      </trkpt>
      <trkpt lat="41.9133480" lon="-5.5074880">
        <ele>728.5</ele>
        <time>2019-08-15T11:23:29Z</time>
      </trkpt>
      <trkpt lat="41.9133720" lon="-5.5075240">
        <ele>728.5</ele>
        <time>2019-08-15T11:23:30Z</time>
      </trkpt>
      <trkpt lat="41.9133960" lon="-5.5075600">
        <ele>728.5</ele>
        <time>2019-08-15T11:23:31Z</time>
      </trkpt>
      <trkpt lat="41.9134200" lon="-5.5075950">
        <ele>728.6</ele>
        <time>2019-08-15T11:23:32Z</time>
      </trkpt>
      <trkpt lat="41.9134440" lon="-5.5076310">
        <ele>728.6</ele>
        <time>2019-08-15T11:23:33Z</time>
      </trkpt>
      <trkpt lat="41.9134680" lon="-5.5076650">
        <ele>728.6</ele>
        <time>2019-08-15T11:23:34Z</time>
      </trkpt>
      <trkpt lat="41.9134920" lon="-5.5076990">
        <ele>728.6</ele>
        <time>2019-08-15T11:23:35Z</time>
      </trkpt>
      <trkpt lat="41.9135160" lon="-5.5077350">
        <ele>728.6</ele>
        <time>2019-08-15T11:23:36Z</time>
      </trkpt>
      <trkpt lat="41.9135400" lon="-5.5077710">
        <ele>728.7</ele>
        <time>2019-08-15T11:23:37Z</time>
      </trkpt>
      <trkpt lat="41.9135640" lon="-5.5078080">
        <ele>728.7</ele>
        <time>2019-08-15T11:23:38Z</time>
      </trkpt>
      <trkpt lat="41.9135880" lon="-5.5078460">
        <ele>728.7</ele>
        <time>2019-08-15T11:23:39Z</time>
      </trkpt>
      <trkpt lat="41.9136110" lon="-5.5078820">
        <ele>728.8</ele>
        <time>2019-08-15T11:23:40Z</time>
      </trkpt>
      <trkpt lat="41.9136340" lon="-5.5079180">
        <ele>728.8</ele>
        <time>2019-08-15T11:23:41Z</time>
      </trkpt>
      <trkpt lat="41.9136570" lon="-5.5079530">
        <ele>728.9</ele>
        <time>2019-08-15T11:23:42Z</time>
      </trkpt>
      <trkpt lat="41.9136790" lon="-5.5079880">
        <ele>728.9</ele>
        <time>2019-08-15T11:23:43Z</time>
      </trkpt>
      <trkpt lat="41.9137030" lon="-5.5080230">
        <ele>729.0</ele>
        <time>2019-08-15T11:23:44Z</time>
      </trkpt>
      <trkpt lat="41.9137260" lon="-5.5080580">
        <ele>729.0</ele>
        <time>2019-08-15T11:23:45Z</time>
      </trkpt>
      <trkpt lat="41.9137500" lon="-5.5080940">
        <ele>729.1</ele>
        <time>2019-08-15T11:23:46Z</time>
      </trkpt>
      <trkpt lat="41.9137760" lon="-5.5081310">
        <ele>729.2</ele>
        <time>2019-08-15T11:23:47Z</time>
      </trkpt>
      <trkpt lat="41.9138010" lon="-5.5081680">
        <ele>729.2</ele>
        <time>2019-08-15T11:23:48Z</time>
      </trkpt>
      <trkpt lat="41.9138260" lon="-5.5082050">
        <ele>729.3</ele>
        <time>2019-08-15T11:23:49Z</time>
      </trkpt>
      <trkpt lat="41.9138510" lon="-5.5082430">
        <ele>729.4</ele>
        <time>2019-08-15T11:23:50Z</time>
      </trkpt>
      <trkpt lat="41.9138770" lon="-5.5082810">
        <ele>729.5</ele>
        <time>2019-08-15T11:23:51Z</time>
      </trkpt>
      <trkpt lat="41.9139030" lon="-5.5083180">
        <ele>729.5</ele>
        <time>2019-08-15T11:23:52Z</time>
      </trkpt>
      <trkpt lat="41.9139290" lon="-5.5083580">
        <ele>729.6</ele>
        <time>2019-08-15T11:23:53Z</time>
      </trkpt>
      <trkpt lat="41.9139540" lon="-5.5083990">
        <ele>729.6</ele>
        <time>2019-08-15T11:23:54Z</time>
      </trkpt>
      <trkpt lat="41.9139800" lon="-5.5084410">
        <ele>729.7</ele>
        <time>2019-08-15T11:23:55Z</time>
      </trkpt>
      <trkpt lat="41.9140060" lon="-5.5084820">
        <ele>729.7</ele>
        <time>2019-08-15T11:23:56Z</time>
      </trkpt>
      <trkpt lat="41.9140330" lon="-5.5085240">
        <ele>729.8</ele>
        <time>2019-08-15T11:23:57Z</time>
      </trkpt>
      <trkpt lat="41.9140600" lon="-5.5085650">
        <ele>729.8</ele>
        <time>2019-08-15T11:23:58Z</time>
      </trkpt>
      <trkpt lat="41.9140880" lon="-5.5086070">
        <ele>729.9</ele>
        <time>2019-08-15T11:23:59Z</time>
      </trkpt>
      <trkpt lat="41.9141150" lon="-5.5086470">
        <ele>729.9</ele>
        <time>2019-08-15T11:24:00Z</time>
      </trkpt>
      <trkpt lat="41.9141400" lon="-5.5086880">
        <ele>729.9</ele>
        <time>2019-08-15T11:24:01Z</time>
      </trkpt>
      <trkpt lat="41.9141670" lon="-5.5087290">
        <ele>730.0</ele>
        <time>2019-08-15T11:24:02Z</time>
      </trkpt>
      <trkpt lat="41.9141930" lon="-5.5087710">
        <ele>730.0</ele>
        <time>2019-08-15T11:24:03Z</time>
      </trkpt>
      <trkpt lat="41.9142210" lon="-5.5088160">
        <ele>730.0</ele>
        <time>2019-08-15T11:24:04Z</time>
      </trkpt>
      <trkpt lat="41.9142490" lon="-5.5088620">
        <ele>730.0</ele>
        <time>2019-08-15T11:24:05Z</time>
      </trkpt>
      <trkpt lat="41.9142780" lon="-5.5089060">
        <ele>730.0</ele>
        <time>2019-08-15T11:24:06Z</time>
      </trkpt>
      <trkpt lat="41.9143040" lon="-5.5089500">
        <ele>730.0</ele>
        <time>2019-08-15T11:24:07Z</time>
      </trkpt>
      <trkpt lat="41.9143280" lon="-5.5089930">
        <ele>730.0</ele>
        <time>2019-08-15T11:24:08Z</time>
      </trkpt>
      <trkpt lat="41.9143540" lon="-5.5090370">
        <ele>730.0</ele>
        <time>2019-08-15T11:24:09Z</time>
      </trkpt>
      <trkpt lat="41.9143820" lon="-5.5090800">
        <ele>729.9</ele>
        <time>2019-08-15T11:24:10Z</time>
      </trkpt>
      <trkpt lat="41.9144110" lon="-5.5091250">
        <ele>729.9</ele>
        <time>2019-08-15T11:24:11Z</time>
      </trkpt>
      <trkpt lat="41.9144410" lon="-5.5091700">
        <ele>729.8</ele>
        <time>2019-08-15T11:24:12Z</time>
      </trkpt>
      <trkpt lat="41.9144710" lon="-5.5092160">
        <ele>729.8</ele>
        <time>2019-08-15T11:24:13Z</time>
      </trkpt>
      <trkpt lat="41.9145010" lon="-5.5092620">
        <ele>729.7</ele>
        <time>2019-08-15T11:24:14Z</time>
      </trkpt>
      <trkpt lat="41.9145300" lon="-5.5093080">
        <ele>729.7</ele>
        <time>2019-08-15T11:24:15Z</time>
      </trkpt>
      <trkpt lat="41.9145590" lon="-5.5093530">
        <ele>729.7</ele>
        <time>2019-08-15T11:24:16Z</time>
      </trkpt>
      <trkpt lat="41.9145850" lon="-5.5093950">
        <ele>729.7</ele>
        <time>2019-08-15T11:24:17Z</time>
      </trkpt>
      <trkpt lat="41.9146130" lon="-5.5094380">
        <ele>729.6</ele>
        <time>2019-08-15T11:24:18Z</time>
      </trkpt>
      <trkpt lat="41.9146410" lon="-5.5094830">
        <ele>729.6</ele>
        <time>2019-08-15T11:24:19Z</time>
      </trkpt>
      <trkpt lat="41.9146700" lon="-5.5095330">
        <ele>729.6</ele>
        <time>2019-08-15T11:24:20Z</time>
      </trkpt>
      <trkpt lat="41.9147010" lon="-5.5095850">
        <ele>729.6</ele>
        <time>2019-08-15T11:24:21Z</time>
      </trkpt>
      <trkpt lat="41.9147340" lon="-5.5096390">
        <ele>729.6</ele>
        <time>2019-08-15T11:24:22Z</time>
      </trkpt>
      <trkpt lat="41.9147660" lon="-5.5096920">
        <ele>729.5</ele>
        <time>2019-08-15T11:24:23Z</time>
      </trkpt>
      <trkpt lat="41.9147970" lon="-5.5097440">
        <ele>729.5</ele>
        <time>2019-08-15T11:24:24Z</time>
      </trkpt>
      <trkpt lat="41.9148290" lon="-5.5097960">
        <ele>729.5</ele>
        <time>2019-08-15T11:24:25Z</time>
      </trkpt>
      <trkpt lat="41.9148600" lon="-5.5098460">
        <ele>729.4</ele>
        <time>2019-08-15T11:24:26Z</time>
      </trkpt>
      <trkpt lat="41.9148890" lon="-5.5098950">
        <ele>729.3</ele>
        <time>2019-08-15T11:24:27Z</time>
      </trkpt>
      <trkpt lat="41.9149170" lon="-5.5099440">
        <ele>729.3</ele>
        <time>2019-08-15T11:24:28Z</time>
      </trkpt>
      <trkpt lat="41.9149490" lon="-5.5099920">
        <ele>729.3</ele>
        <time>2019-08-15T11:24:29Z</time>
      </trkpt>
      <trkpt lat="41.9149820" lon="-5.5100410">
        <ele>729.1</ele>
        <time>2019-08-15T11:24:30Z</time>
      </trkpt>
      <trkpt lat="41.9150160" lon="-5.5100910">
        <ele>729.0</ele>
        <time>2019-08-15T11:24:31Z</time>
      </trkpt>
      <trkpt lat="41.9150490" lon="-5.5101420">
        <ele>728.8</ele>
        <time>2019-08-15T11:24:32Z</time>
      </trkpt>
      <trkpt lat="41.9150810" lon="-5.5101920">
        <ele>728.7</ele>
        <time>2019-08-15T11:24:33Z</time>
      </trkpt>
      <trkpt lat="41.9151120" lon="-5.5102410">
        <ele>728.6</ele>
        <time>2019-08-15T11:24:34Z</time>
      </trkpt>
      <trkpt lat="41.9151430" lon="-5.5102870">
        <ele>728.5</ele>
        <time>2019-08-15T11:24:35Z</time>
      </trkpt>
      <trkpt lat="41.9151730" lon="-5.5103330">
        <ele>728.4</ele>
        <time>2019-08-15T11:24:36Z</time>
      </trkpt>
      <trkpt lat="41.9152020" lon="-5.5103790">
        <ele>728.3</ele>
        <time>2019-08-15T11:24:37Z</time>
      </trkpt>
      <trkpt lat="41.9152310" lon="-5.5104250">
        <ele>728.2</ele>
        <time>2019-08-15T11:24:38Z</time>
      </trkpt>
      <trkpt lat="41.9152610" lon="-5.5104730">
        <ele>728.1</ele>
        <time>2019-08-15T11:24:39Z</time>
      </trkpt>
      <trkpt lat="41.9152930" lon="-5.5105210">
        <ele>728.1</ele>
        <time>2019-08-15T11:24:40Z</time>
      </trkpt>
      <trkpt lat="41.9153240" lon="-5.5105690">
        <ele>728.0</ele>
        <time>2019-08-15T11:24:41Z</time>
      </trkpt>
      <trkpt lat="41.9153550" lon="-5.5106180">
        <ele>728.0</ele>
        <time>2019-08-15T11:24:42Z</time>
      </trkpt>
      <trkpt lat="41.9153860" lon="-5.5106690">
        <ele>728.0</ele>
        <time>2019-08-15T11:24:43Z</time>
      </trkpt>
      <trkpt lat="41.9154180" lon="-5.5107190">
        <ele>728.0</ele>
        <time>2019-08-15T11:24:44Z</time>
      </trkpt>
      <trkpt lat="41.9154500" lon="-5.5107700">
        <ele>728.0</ele>
        <time>2019-08-15T11:24:45Z</time>
      </trkpt>
      <trkpt lat="41.9154830" lon="-5.5108220">
        <ele>728.0</ele>
        <time>2019-08-15T11:24:46Z</time>
      </trkpt>
      <trkpt lat="41.9155170" lon="-5.5108730">
        <ele>728.1</ele>
        <time>2019-08-15T11:24:47Z</time>
      </trkpt>
      <trkpt lat="41.9155510" lon="-5.5109250">
        <ele>728.1</ele>
        <time>2019-08-15T11:24:48Z</time>
      </trkpt>
      <trkpt lat="41.9155850" lon="-5.5109760">
        <ele>728.2</ele>
        <time>2019-08-15T11:24:49Z</time>
      </trkpt>
      <trkpt lat="41.9156180" lon="-5.5110280">
        <ele>728.3</ele>
        <time>2019-08-15T11:24:50Z</time>
      </trkpt>
      <trkpt lat="41.9156530" lon="-5.5110790">
        <ele>728.4</ele>
        <time>2019-08-15T11:24:51Z</time>
      </trkpt>
      <trkpt lat="41.9156870" lon="-5.5111290">
        <ele>728.5</ele>
        <time>2019-08-15T11:24:52Z</time>
      </trkpt>
      <trkpt lat="41.9157210" lon="-5.5111790">
        <ele>728.6</ele>
        <time>2019-08-15T11:24:53Z</time>
      </trkpt>
      <trkpt lat="41.9157540" lon="-5.5112270">
        <ele>728.8</ele>
        <time>2019-08-15T11:24:54Z</time>
      </trkpt>
      <trkpt lat="41.9157860" lon="-5.5112730">
        <ele>728.8</ele>
        <time>2019-08-15T11:24:55Z</time>
      </trkpt>
      <trkpt lat="41.9158160" lon="-5.5113160">
        <ele>728.9</ele>
        <time>2019-08-15T11:24:56Z</time>
      </trkpt>
      <trkpt lat="41.9158440" lon="-5.5113560">
        <ele>729.0</ele>
        <time>2019-08-15T11:24:57Z</time>
      </trkpt>
      <trkpt lat="41.9158700" lon="-5.5113940">
        <ele>729.1</ele>
        <time>2019-08-15T11:24:58Z</time>
      </trkpt>
      <trkpt lat="41.9158950" lon="-5.5114310">
        <ele>729.2</ele>
        <time>2019-08-15T11:24:59Z</time>
      </trkpt>
      <trkpt lat="41.9159210" lon="-5.5114700">
        <ele>729.3</ele>
        <time>2019-08-15T11:25:00Z</time>
      </trkpt>
      <trkpt lat="41.9159460" lon="-5.5115110">
        <ele>729.4</ele>
        <time>2019-08-15T11:25:01Z</time>
      </trkpt>
      <trkpt lat="41.9159730" lon="-5.5115500">
        <ele>729.5</ele>
        <time>2019-08-15T11:25:02Z</time>
      </trkpt>
      <trkpt lat="41.9159990" lon="-5.5115910">
        <ele>729.6</ele>
        <time>2019-08-15T11:25:03Z</time>
      </trkpt>
      <trkpt lat="41.9160240" lon="-5.5116320">
        <ele>729.7</ele>
        <time>2019-08-15T11:25:04Z</time>
      </trkpt>
      <trkpt lat="41.9160510" lon="-5.5116710">
        <ele>729.8</ele>
        <time>2019-08-15T11:25:05Z</time>
      </trkpt>
      <trkpt lat="41.9160770" lon="-5.5117120">
        <ele>729.9</ele>
        <time>2019-08-15T11:25:06Z</time>
      </trkpt>
      <trkpt lat="41.9161050" lon="-5.5117550">
        <ele>730.0</ele>
        <time>2019-08-15T11:25:07Z</time>
      </trkpt>
      <trkpt lat="41.9161330" lon="-5.5117970">
        <ele>730.0</ele>
        <time>2019-08-15T11:25:08Z</time>
      </trkpt>
      <trkpt lat="41.9161600" lon="-5.5118410">
        <ele>730.1</ele>
        <time>2019-08-15T11:25:09Z</time>
      </trkpt>
      <trkpt lat="41.9161880" lon="-5.5118850">
        <ele>730.2</ele>
        <time>2019-08-15T11:25:10Z</time>
      </trkpt>
      <trkpt lat="41.9162160" lon="-5.5119320">
        <ele>730.3</ele>
        <time>2019-08-15T11:25:11Z</time>
      </trkpt>
      <trkpt lat="41.9162440" lon="-5.5119770">
        <ele>730.3</ele>
        <time>2019-08-15T11:25:12Z</time>
      </trkpt>
      <trkpt lat="41.9162740" lon="-5.5120200">
        <ele>730.4</ele>
        <time>2019-08-15T11:25:13Z</time>
      </trkpt>
      <trkpt lat="41.9163040" lon="-5.5120640">
        <ele>730.5</ele>
        <time>2019-08-15T11:25:14Z</time>
      </trkpt>
      <trkpt lat="41.9163310" lon="-5.5121050">
        <ele>730.5</ele>
        <time>2019-08-15T11:25:15Z</time>
      </trkpt>
      <trkpt lat="41.9163580" lon="-5.5121450">
        <ele>730.6</ele>
        <time>2019-08-15T11:25:16Z</time>
      </trkpt>
      <trkpt lat="41.9163820" lon="-5.5121840">
        <ele>730.6</ele>
        <time>2019-08-15T11:25:17Z</time>
      </trkpt>
      <trkpt lat="41.9164050" lon="-5.5122200">
        <ele>730.7</ele>
        <time>2019-08-15T11:25:18Z</time>
      </trkpt>
      <trkpt lat="41.9164270" lon="-5.5122540">
        <ele>730.7</ele>
        <time>2019-08-15T11:25:19Z</time>
      </trkpt>
      <trkpt lat="41.9164470" lon="-5.5122870">
        <ele>730.7</ele>
        <time>2019-08-15T11:25:20Z</time>
      </trkpt>
      <trkpt lat="41.9164660" lon="-5.5123180">
        <ele>730.7</ele>
        <time>2019-08-15T11:25:21Z</time>
      </trkpt>
      <trkpt lat="41.9164850" lon="-5.5123460">
        <ele>730.7</ele>
        <time>2019-08-15T11:25:22Z</time>
      </trkpt>
      <trkpt lat="41.9165020" lon="-5.5123710">
        <ele>730.8</ele>
        <time>2019-08-15T11:25:23Z</time>
      </trkpt>
      <trkpt lat="41.9165130" lon="-5.5123960">
        <ele>730.8</ele>
        <time>2019-08-15T11:25:25Z</time>
      </trkpt>
      <trkpt lat="41.9165120" lon="-5.5123830">
        <ele>730.8</ele>
        <time>2019-08-15T11:25:30Z</time>
      </trkpt>
      <trkpt lat="41.9165690" lon="-5.5125020">
        <ele>730.8</ele>
        <time>2019-08-15T11:26:29Z</time>
      </trkpt>
      <trkpt lat="41.9165890" lon="-5.5125330">
        <ele>730.7</ele>
        <time>2019-08-15T11:26:30Z</time>
      </trkpt>
      <trkpt lat="41.9166120" lon="-5.5125660">
        <ele>730.7</ele>
        <time>2019-08-15T11:26:31Z</time>
      </trkpt>
      <trkpt lat="41.9166370" lon="-5.5126000">
        <ele>730.7</ele>
        <time>2019-08-15T11:26:32Z</time>
      </trkpt>
      <trkpt lat="41.9166610" lon="-5.5126350">
        <ele>730.7</ele>
        <time>2019-08-15T11:26:33Z</time>
      </trkpt>
      <trkpt lat="41.9166840" lon="-5.5126680">
        <ele>730.6</ele>
        <time>2019-08-15T11:26:34Z</time>
      </trkpt>
      <trkpt lat="41.9167060" lon="-5.5127030">
        <ele>730.6</ele>
        <time>2019-08-15T11:26:35Z</time>
      </trkpt>
      <trkpt lat="41.9167280" lon="-5.5127350">
        <ele>730.5</ele>
        <time>2019-08-15T11:26:36Z</time>
      </trkpt>
      <trkpt lat="41.9167500" lon="-5.5127670">
        <ele>730.5</ele>
        <time>2019-08-15T11:26:37Z</time>
      </trkpt>
      <trkpt lat="41.9167710" lon="-5.5127970">
        <ele>730.5</ele>
        <time>2019-08-15T11:26:38Z</time>
      </trkpt>
      <trkpt lat="41.9167920" lon="-5.5128270">
        <ele>730.5</ele>
        <time>2019-08-15T11:26:39Z</time>
      </trkpt>
      <trkpt lat="41.9168130" lon="-5.5128570">
        <ele>730.4</ele>
        <time>2019-08-15T11:26:40Z</time>
      </trkpt>
      <trkpt lat="41.9168340" lon="-5.5128860">
        <ele>730.4</ele>
        <time>2019-08-15T11:26:41Z</time>
      </trkpt>
      <trkpt lat="41.9168530" lon="-5.5129160">
        <ele>730.4</ele>
        <time>2019-08-15T11:26:42Z</time>
      </trkpt>
      <trkpt lat="41.9168720" lon="-5.5129460">
        <ele>730.5</ele>
        <time>2019-08-15T11:26:43Z</time>
      </trkpt>
      <trkpt lat="41.9168890" lon="-5.5129750">
        <ele>730.5</ele>
        <time>2019-08-15T11:26:44Z</time>
      </trkpt>
      <trkpt lat="41.9169060" lon="-5.5130040">
        <ele>730.5</ele>
        <time>2019-08-15T11:26:45Z</time>
      </trkpt>
      <trkpt lat="41.9169220" lon="-5.5130310">
        <ele>730.6</ele>
        <time>2019-08-15T11:26:46Z</time>
      </trkpt>
      <trkpt lat="41.9169540" lon="-5.5130780">
        <ele>730.6</ele>
        <time>2019-08-15T11:26:48Z</time>
      </trkpt>
      <trkpt lat="41.9169880" lon="-5.5131320">
        <ele>730.7</ele>
        <time>2019-08-15T11:26:50Z</time>
      </trkpt>
      <trkpt lat="41.9170080" lon="-5.5131650">
        <ele>730.7</ele>
        <time>2019-08-15T11:26:51Z</time>
      </trkpt>
      <trkpt lat="41.9170300" lon="-5.5132000">
        <ele>730.7</ele>
        <time>2019-08-15T11:26:52Z</time>
      </trkpt>
      <trkpt lat="41.9170540" lon="-5.5132370">
        <ele>730.7</ele>
        <time>2019-08-15T11:26:53Z</time>
      </trkpt>
      <trkpt lat="41.9170780" lon="-5.5132750">
        <ele>730.7</ele>
        <time>2019-08-15T11:26:54Z</time>
      </trkpt>
      <trkpt lat="41.9171040" lon="-5.5133140">
        <ele>730.8</ele>
        <time>2019-08-15T11:26:55Z</time>
      </trkpt>
      <trkpt lat="41.9171290" lon="-5.5133540">
        <ele>730.8</ele>
        <time>2019-08-15T11:26:56Z</time>
      </trkpt>
      <trkpt lat="41.9171560" lon="-5.5133960">
        <ele>730.9</ele>
        <time>2019-08-15T11:26:57Z</time>
      </trkpt>
      <trkpt lat="41.9171840" lon="-5.5134370">
        <ele>730.9</ele>
        <time>2019-08-15T11:26:58Z</time>
      </trkpt>
      <trkpt lat="41.9172100" lon="-5.5134770">
        <ele>731.0</ele>
        <time>2019-08-15T11:26:59Z</time>
      </trkpt>
      <trkpt lat="41.9172380" lon="-5.5135160">
        <ele>731.1</ele>
        <time>2019-08-15T11:27:00Z</time>
      </trkpt>
      <trkpt lat="41.9172650" lon="-5.5135550">
        <ele>731.2</ele>
        <time>2019-08-15T11:27:01Z</time>
      </trkpt>
      <trkpt lat="41.9172910" lon="-5.5135940">
        <ele>731.3</ele>
        <time>2019-08-15T11:27:02Z</time>
      </trkpt>
      <trkpt lat="41.9173170" lon="-5.5136330">
        <ele>731.4</ele>
        <time>2019-08-15T11:27:03Z</time>
      </trkpt>
      <trkpt lat="41.9173420" lon="-5.5136720">
        <ele>731.5</ele>
        <time>2019-08-15T11:27:04Z</time>
      </trkpt>
      <trkpt lat="41.9173680" lon="-5.5137110">
        <ele>731.6</ele>
        <time>2019-08-15T11:27:05Z</time>
      </trkpt>
      <trkpt lat="41.9173930" lon="-5.5137480">
        <ele>731.7</ele>
        <time>2019-08-15T11:27:06Z</time>
      </trkpt>
      <trkpt lat="41.9174170" lon="-5.5137840">
        <ele>731.7</ele>
        <time>2019-08-15T11:27:07Z</time>
      </trkpt>
      <trkpt lat="41.9174410" lon="-5.5138190">
        <ele>731.8</ele>
        <time>2019-08-15T11:27:08Z</time>
      </trkpt>
      <trkpt lat="41.9174650" lon="-5.5138540">
        <ele>731.8</ele>
        <time>2019-08-15T11:27:09Z</time>
      </trkpt>
      <trkpt lat="41.9174880" lon="-5.5138890">
        <ele>731.9</ele>
        <time>2019-08-15T11:27:10Z</time>
      </trkpt>
      <trkpt lat="41.9175110" lon="-5.5139240">
        <ele>731.9</ele>
        <time>2019-08-15T11:27:11Z</time>
      </trkpt>
      <trkpt lat="41.9175350" lon="-5.5139600">
        <ele>731.9</ele>
        <time>2019-08-15T11:27:12Z</time>
      </trkpt>
      <trkpt lat="41.9175580" lon="-5.5139960">
        <ele>731.9</ele>
        <time>2019-08-15T11:27:13Z</time>
      </trkpt>
      <trkpt lat="41.9175820" lon="-5.5140320">
        <ele>731.9</ele>
        <time>2019-08-15T11:27:14Z</time>
      </trkpt>
      <trkpt lat="41.9176060" lon="-5.5140680">
        <ele>731.9</ele>
        <time>2019-08-15T11:27:15Z</time>
      </trkpt>
      <trkpt lat="41.9176280" lon="-5.5141030">
        <ele>731.8</ele>
        <time>2019-08-15T11:27:16Z</time>
      </trkpt>
      <trkpt lat="41.9176500" lon="-5.5141380">
        <ele>731.8</ele>
        <time>2019-08-15T11:27:17Z</time>
      </trkpt>
      <trkpt lat="41.9176730" lon="-5.5141730">
        <ele>731.7</ele>
        <time>2019-08-15T11:27:18Z</time>
      </trkpt>
      <trkpt lat="41.9176970" lon="-5.5142070">
        <ele>731.6</ele>
        <time>2019-08-15T11:27:19Z</time>
      </trkpt>
      <trkpt lat="41.9177210" lon="-5.5142410">
        <ele>731.5</ele>
        <time>2019-08-15T11:27:20Z</time>
      </trkpt>
      <trkpt lat="41.9177440" lon="-5.5142760">
        <ele>731.4</ele>
        <time>2019-08-15T11:27:21Z</time>
      </trkpt>
      <trkpt lat="41.9177670" lon="-5.5143120">
        <ele>731.3</ele>
        <time>2019-08-15T11:27:22Z</time>
      </trkpt>
      <trkpt lat="41.9177910" lon="-5.5143470">
        <ele>731.2</ele>
        <time>2019-08-15T11:27:23Z</time>
      </trkpt>
      <trkpt lat="41.9178140" lon="-5.5143830">
        <ele>731.1</ele>
        <time>2019-08-15T11:27:24Z</time>
      </trkpt>
      <trkpt lat="41.9178370" lon="-5.5144170">
        <ele>730.9</ele>
        <time>2019-08-15T11:27:25Z</time>
      </trkpt>
      <trkpt lat="41.9178580" lon="-5.5144490">
        <ele>730.8</ele>
        <time>2019-08-15T11:27:26Z</time>
      </trkpt>
      <trkpt lat="41.9178790" lon="-5.5144810">
        <ele>730.7</ele>
        <time>2019-08-15T11:27:27Z</time>
      </trkpt>
      <trkpt lat="41.9178990" lon="-5.5145130">
        <ele>730.6</ele>
        <time>2019-08-15T11:27:28Z</time>
      </trkpt>
      <trkpt lat="41.9179210" lon="-5.5145440">
        <ele>730.5</ele>
        <time>2019-08-15T11:27:29Z</time>
      </trkpt>
      <trkpt lat="41.9179420" lon="-5.5145750">
        <ele>730.4</ele>
        <time>2019-08-15T11:27:30Z</time>
      </trkpt>
      <trkpt lat="41.9179640" lon="-5.5146050">
        <ele>730.3</ele>
        <time>2019-08-15T11:27:31Z</time>
      </trkpt>
      <trkpt lat="41.9179840" lon="-5.5146360">
        <ele>730.2</ele>
        <time>2019-08-15T11:27:32Z</time>
      </trkpt>
      <trkpt lat="41.9180050" lon="-5.5146670">
        <ele>730.1</ele>
        <time>2019-08-15T11:27:33Z</time>
      </trkpt>
      <trkpt lat="41.9180250" lon="-5.5146970">
        <ele>730.1</ele>
        <time>2019-08-15T11:27:34Z</time>
      </trkpt>
      <trkpt lat="41.9180450" lon="-5.5147280">
        <ele>730.0</ele>
        <time>2019-08-15T11:27:35Z</time>
      </trkpt>
      <trkpt lat="41.9180650" lon="-5.5147600">
        <ele>729.9</ele>
        <time>2019-08-15T11:27:36Z</time>
      </trkpt>
      <trkpt lat="41.9180860" lon="-5.5147930">
        <ele>729.9</ele>
        <time>2019-08-15T11:27:37Z</time>
      </trkpt>
      <trkpt lat="41.9181080" lon="-5.5148270">
        <ele>729.8</ele>
        <time>2019-08-15T11:27:38Z</time>
      </trkpt>
      <trkpt lat="41.9181310" lon="-5.5148620">
        <ele>729.8</ele>
        <time>2019-08-15T11:27:39Z</time>
      </trkpt>
      <trkpt lat="41.9181540" lon="-5.5148980">
        <ele>729.7</ele>
        <time>2019-08-15T11:27:40Z</time>
      </trkpt>
      <trkpt lat="41.9181790" lon="-5.5149350">
        <ele>729.7</ele>
        <time>2019-08-15T11:27:41Z</time>
      </trkpt>
      <trkpt lat="41.9182040" lon="-5.5149740">
        <ele>729.7</ele>
        <time>2019-08-15T11:27:42Z</time>
      </trkpt>
      <trkpt lat="41.9182300" lon="-5.5150150">
        <ele>729.8</ele>
        <time>2019-08-15T11:27:43Z</time>
      </trkpt>
      <trkpt lat="41.9182560" lon="-5.5150560">
        <ele>729.8</ele>
        <time>2019-08-15T11:27:44Z</time>
      </trkpt>
      <trkpt lat="41.9182830" lon="-5.5150980">
        <ele>729.9</ele>
        <time>2019-08-15T11:27:45Z</time>
      </trkpt>
      <trkpt lat="41.9183090" lon="-5.5151410">
        <ele>729.9</ele>
        <time>2019-08-15T11:27:46Z</time>
      </trkpt>
      <trkpt lat="41.9183340" lon="-5.5151800">
        <ele>730.1</ele>
        <time>2019-08-15T11:27:47Z</time>
      </trkpt>
      <trkpt lat="41.9183600" lon="-5.5152200">
        <ele>730.2</ele>
        <time>2019-08-15T11:27:48Z</time>
      </trkpt>
      <trkpt lat="41.9183860" lon="-5.5152600">
        <ele>730.4</ele>
        <time>2019-08-15T11:27:49Z</time>
      </trkpt>
      <trkpt lat="41.9184120" lon="-5.5153000">
        <ele>730.5</ele>
        <time>2019-08-15T11:27:50Z</time>
      </trkpt>
      <trkpt lat="41.9184380" lon="-5.5153400">
        <ele>730.6</ele>
        <time>2019-08-15T11:27:51Z</time>
      </trkpt>
      <trkpt lat="41.9184650" lon="-5.5153810">
        <ele>730.7</ele>
        <time>2019-08-15T11:27:52Z</time>
      </trkpt>
      <trkpt lat="41.9184910" lon="-5.5154240">
        <ele>730.9</ele>
        <time>2019-08-15T11:27:53Z</time>
      </trkpt>
      <trkpt lat="41.9185180" lon="-5.5154670">
        <ele>731.0</ele>
        <time>2019-08-15T11:27:54Z</time>
      </trkpt>
      <trkpt lat="41.9185450" lon="-5.5155120">
        <ele>731.1</ele>
        <time>2019-08-15T11:27:55Z</time>
      </trkpt>
      <trkpt lat="41.9185740" lon="-5.5155570">
        <ele>731.2</ele>
        <time>2019-08-15T11:27:56Z</time>
      </trkpt>
      <trkpt lat="41.9186030" lon="-5.5156020">
        <ele>731.2</ele>
        <time>2019-08-15T11:27:57Z</time>
      </trkpt>
      <trkpt lat="41.9186310" lon="-5.5156460">
        <ele>731.3</ele>
        <time>2019-08-15T11:27:58Z</time>
      </trkpt>
      <trkpt lat="41.9186580" lon="-5.5156890">
        <ele>731.4</ele>
        <time>2019-08-15T11:27:59Z</time>
      </trkpt>
      <trkpt lat="41.9186850" lon="-5.5157320">
        <ele>731.5</ele>
        <time>2019-08-15T11:28:00Z</time>
      </trkpt>
      <trkpt lat="41.9187130" lon="-5.5157750">
        <ele>731.6</ele>
        <time>2019-08-15T11:28:01Z</time>
      </trkpt>
      <trkpt lat="41.9187440" lon="-5.5158200">
        <ele>731.7</ele>
        <time>2019-08-15T11:28:02Z</time>
      </trkpt>
      <trkpt lat="41.9187750" lon="-5.5158690">
        <ele>731.8</ele>
        <time>2019-08-15T11:28:03Z</time>
      </trkpt>
      <trkpt lat="41.9188050" lon="-5.5159170">
        <ele>731.8</ele>
        <time>2019-08-15T11:28:04Z</time>
      </trkpt>
      <trkpt lat="41.9188350" lon="-5.5159670">
        <ele>731.9</ele>
        <time>2019-08-15T11:28:05Z</time>
      </trkpt>
      <trkpt lat="41.9188660" lon="-5.5160160">
        <ele>731.9</ele>
        <time>2019-08-15T11:28:06Z</time>
      </trkpt>
      <trkpt lat="41.9188980" lon="-5.5160650">
        <ele>732.0</ele>
        <time>2019-08-15T11:28:07Z</time>
      </trkpt>
      <trkpt lat="41.9189310" lon="-5.5161140">
        <ele>732.1</ele>
        <time>2019-08-15T11:28:08Z</time>
      </trkpt>
      <trkpt lat="41.9189640" lon="-5.5161640">
        <ele>732.1</ele>
        <time>2019-08-15T11:28:09Z</time>
      </trkpt>
      <trkpt lat="41.9189960" lon="-5.5162120">
        <ele>732.2</ele>
        <time>2019-08-15T11:28:10Z</time>
      </trkpt>
      <trkpt lat="41.9190290" lon="-5.5162600">
        <ele>732.3</ele>
        <time>2019-08-15T11:28:11Z</time>
      </trkpt>
      <trkpt lat="41.9190600" lon="-5.5163070">
        <ele>732.3</ele>
        <time>2019-08-15T11:28:12Z</time>
      </trkpt>
      <trkpt lat="41.9190890" lon="-5.5163550">
        <ele>732.3</ele>
        <time>2019-08-15T11:28:13Z</time>
      </trkpt>
      <trkpt lat="41.9191190" lon="-5.5164010">
        <ele>732.3</ele>
        <time>2019-08-15T11:28:14Z</time>
      </trkpt>
      <trkpt lat="41.9191470" lon="-5.5164460">
        <ele>732.4</ele>
        <time>2019-08-15T11:28:15Z</time>
      </trkpt>
      <trkpt lat="41.9191750" lon="-5.5164910">
        <ele>732.4</ele>
        <time>2019-08-15T11:28:16Z</time>
      </trkpt>
      <trkpt lat="41.9192030" lon="-5.5165380">
        <ele>732.4</ele>
        <time>2019-08-15T11:28:17Z</time>
      </trkpt>
      <trkpt lat="41.9192320" lon="-5.5165850">
        <ele>732.4</ele>
        <time>2019-08-15T11:28:18Z</time>
      </trkpt>
      <trkpt lat="41.9192630" lon="-5.5166290">
        <ele>732.4</ele>
        <time>2019-08-15T11:28:19Z</time>
      </trkpt>
      <trkpt lat="41.9192920" lon="-5.5166740">
        <ele>732.5</ele>
        <time>2019-08-15T11:28:20Z</time>
      </trkpt>
      <trkpt lat="41.9193210" lon="-5.5167190">
        <ele>732.5</ele>
        <time>2019-08-15T11:28:21Z</time>
      </trkpt>
      <trkpt lat="41.9193500" lon="-5.5167660">
        <ele>732.5</ele>
        <time>2019-08-15T11:28:22Z</time>
      </trkpt>
      <trkpt lat="41.9193800" lon="-5.5168120">
        <ele>732.6</ele>
        <time>2019-08-15T11:28:23Z</time>
      </trkpt>
      <trkpt lat="41.9194110" lon="-5.5168570">
        <ele>732.6</ele>
        <time>2019-08-15T11:28:24Z</time>
      </trkpt>
      <trkpt lat="41.9194410" lon="-5.5169040">
        <ele>732.7</ele>
        <time>2019-08-15T11:28:25Z</time>
      </trkpt>
      <trkpt lat="41.9194700" lon="-5.5169510">
        <ele>732.8</ele>
        <time>2019-08-15T11:28:26Z</time>
      </trkpt>
      <trkpt lat="41.9195000" lon="-5.5169990">
        <ele>732.9</ele>
        <time>2019-08-15T11:28:27Z</time>
      </trkpt>
      <trkpt lat="41.9195330" lon="-5.5170480">
        <ele>733.0</ele>
        <time>2019-08-15T11:28:28Z</time>
      </trkpt>
      <trkpt lat="41.9195640" lon="-5.5170970">
        <ele>733.1</ele>
        <time>2019-08-15T11:28:29Z</time>
      </trkpt>
      <trkpt lat="41.9195950" lon="-5.5171450">
        <ele>733.2</ele>
        <time>2019-08-15T11:28:30Z</time>
      </trkpt>
      <trkpt lat="41.9196270" lon="-5.5171940">
        <ele>733.3</ele>
        <time>2019-08-15T11:28:31Z</time>
      </trkpt>
      <trkpt lat="41.9196590" lon="-5.5172440">
        <ele>733.3</ele>
        <time>2019-08-15T11:28:32Z</time>
      </trkpt>
      <trkpt lat="41.9196920" lon="-5.5172940">
        <ele>733.4</ele>
        <time>2019-08-15T11:28:33Z</time>
      </trkpt>
      <trkpt lat="41.9197260" lon="-5.5173450">
        <ele>733.4</ele>
        <time>2019-08-15T11:28:34Z</time>
      </trkpt>
      <trkpt lat="41.9197590" lon="-5.5173960">
        <ele>733.3</ele>
        <time>2019-08-15T11:28:35Z</time>
      </trkpt>
      <trkpt lat="41.9197920" lon="-5.5174460">
        <ele>733.3</ele>
        <time>2019-08-15T11:28:36Z</time>
      </trkpt>
      <trkpt lat="41.9198230" lon="-5.5174950">
        <ele>733.3</ele>
        <time>2019-08-15T11:28:37Z</time>
      </trkpt>
      <trkpt lat="41.9198530" lon="-5.5175440">
        <ele>733.2</ele>
        <time>2019-08-15T11:28:38Z</time>
      </trkpt>
      <trkpt lat="41.9198840" lon="-5.5175910">
        <ele>733.1</ele>
        <time>2019-08-15T11:28:39Z</time>
      </trkpt>
      <trkpt lat="41.9199140" lon="-5.5176360">
        <ele>732.9</ele>
        <time>2019-08-15T11:28:40Z</time>
      </trkpt>
      <trkpt lat="41.9199430" lon="-5.5176810">
        <ele>732.8</ele>
        <time>2019-08-15T11:28:41Z</time>
      </trkpt>
      <trkpt lat="41.9199720" lon="-5.5177280">
        <ele>732.6</ele>
        <time>2019-08-15T11:28:42Z</time>
      </trkpt>
      <trkpt lat="41.9200030" lon="-5.5177760">
        <ele>732.4</ele>
        <time>2019-08-15T11:28:43Z</time>
      </trkpt>
      <trkpt lat="41.9200330" lon="-5.5178260">
        <ele>732.2</ele>
        <time>2019-08-15T11:28:44Z</time>
      </trkpt>
      <trkpt lat="41.9200640" lon="-5.5178780">
        <ele>732.0</ele>
        <time>2019-08-15T11:28:45Z</time>
      </trkpt>
      <trkpt lat="41.9200970" lon="-5.5179270">
        <ele>731.9</ele>
        <time>2019-08-15T11:28:46Z</time>
      </trkpt>
      <trkpt lat="41.9201290" lon="-5.5179760">
        <ele>731.7</ele>
        <time>2019-08-15T11:28:47Z</time>
      </trkpt>
      <trkpt lat="41.9201610" lon="-5.5180260">
        <ele>731.5</ele>
        <time>2019-08-15T11:28:48Z</time>
      </trkpt>
      <trkpt lat="41.9201920" lon="-5.5180800">
        <ele>731.4</ele>
        <time>2019-08-15T11:28:49Z</time>
      </trkpt>
      <trkpt lat="41.9202250" lon="-5.5181340">
        <ele>731.2</ele>
        <time>2019-08-15T11:28:50Z</time>
      </trkpt>
      <trkpt lat="41.9202590" lon="-5.5181870">
        <ele>731.1</ele>
        <time>2019-08-15T11:28:51Z</time>
      </trkpt>
      <trkpt lat="41.9202930" lon="-5.5182410">
        <ele>731.0</ele>
        <time>2019-08-15T11:28:52Z</time>
      </trkpt>
      <trkpt lat="41.9203280" lon="-5.5182940">
        <ele>730.9</ele>
        <time>2019-08-15T11:28:53Z</time>
      </trkpt>
      <trkpt lat="41.9203610" lon="-5.5183460">
        <ele>730.9</ele>
        <time>2019-08-15T11:28:54Z</time>
      </trkpt>
      <trkpt lat="41.9203930" lon="-5.5183990">
        <ele>730.9</ele>
        <time>2019-08-15T11:28:55Z</time>
      </trkpt>
      <trkpt lat="41.9204270" lon="-5.5184510">
        <ele>730.9</ele>
        <time>2019-08-15T11:28:56Z</time>
      </trkpt>
      <trkpt lat="41.9204610" lon="-5.5185030">
        <ele>730.9</ele>
        <time>2019-08-15T11:28:57Z</time>
      </trkpt>
      <trkpt lat="41.9204940" lon="-5.5185570">
        <ele>731.0</ele>
        <time>2019-08-15T11:28:58Z</time>
      </trkpt>
      <trkpt lat="41.9205300" lon="-5.5186130">
        <ele>731.1</ele>
        <time>2019-08-15T11:28:59Z</time>
      </trkpt>
      <trkpt lat="41.9205650" lon="-5.5186680">
        <ele>731.2</ele>
        <time>2019-08-15T11:29:00Z</time>
      </trkpt>
      <trkpt lat="41.9206010" lon="-5.5187230">
        <ele>731.3</ele>
        <time>2019-08-15T11:29:01Z</time>
      </trkpt>
      <trkpt lat="41.9206370" lon="-5.5187750">
        <ele>731.4</ele>
        <time>2019-08-15T11:29:02Z</time>
      </trkpt>
      <trkpt lat="41.9206730" lon="-5.5188220">
        <ele>731.5</ele>
        <time>2019-08-15T11:29:03Z</time>
      </trkpt>
      <trkpt lat="41.9207070" lon="-5.5188680">
        <ele>731.5</ele>
        <time>2019-08-15T11:29:04Z</time>
      </trkpt>
      <trkpt lat="41.9207390" lon="-5.5189150">
        <ele>731.6</ele>
        <time>2019-08-15T11:29:05Z</time>
      </trkpt>
      <trkpt lat="41.9207710" lon="-5.5189640">
        <ele>731.7</ele>
        <time>2019-08-15T11:29:06Z</time>
      </trkpt>
      <trkpt lat="41.9208020" lon="-5.5190140">
        <ele>731.7</ele>
        <time>2019-08-15T11:29:07Z</time>
      </trkpt>
      <trkpt lat="41.9208330" lon="-5.5190620">
        <ele>731.8</ele>
        <time>2019-08-15T11:29:08Z</time>
      </trkpt>
      <trkpt lat="41.9208630" lon="-5.5191100">
        <ele>731.8</ele>
        <time>2019-08-15T11:29:09Z</time>
      </trkpt>
      <trkpt lat="41.9208920" lon="-5.5191560">
        <ele>731.8</ele>
        <time>2019-08-15T11:29:10Z</time>
      </trkpt>
      <trkpt lat="41.9209200" lon="-5.5192020">
        <ele>731.8</ele>
        <time>2019-08-15T11:29:11Z</time>
      </trkpt>
      <trkpt lat="41.9209490" lon="-5.5192480">
        <ele>731.7</ele>
        <time>2019-08-15T11:29:12Z</time>
      </trkpt>
      <trkpt lat="41.9209780" lon="-5.5192940">
        <ele>731.7</ele>
        <time>2019-08-15T11:29:13Z</time>
      </trkpt>
      <trkpt lat="41.9210060" lon="-5.5193400">
        <ele>731.7</ele>
        <time>2019-08-15T11:29:14Z</time>
      </trkpt>
      <trkpt lat="41.9210330" lon="-5.5193860">
        <ele>731.7</ele>
        <time>2019-08-15T11:29:15Z</time>
      </trkpt>
      <trkpt lat="41.9210610" lon="-5.5194300">
        <ele>731.8</ele>
        <time>2019-08-15T11:29:16Z</time>
      </trkpt>
      <trkpt lat="41.9210890" lon="-5.5194750">
        <ele>731.8</ele>
        <time>2019-08-15T11:29:17Z</time>
      </trkpt>
      <trkpt lat="41.9211160" lon="-5.5195190">
        <ele>732.0</ele>
        <time>2019-08-15T11:29:18Z</time>
      </trkpt>
      <trkpt lat="41.9211430" lon="-5.5195620">
        <ele>732.1</ele>
        <time>2019-08-15T11:29:19Z</time>
      </trkpt>
      <trkpt lat="41.9211690" lon="-5.5196060">
        <ele>732.3</ele>
        <time>2019-08-15T11:29:20Z</time>
      </trkpt>
      <trkpt lat="41.9211950" lon="-5.5196480">
        <ele>732.4</ele>
        <time>2019-08-15T11:29:21Z</time>
      </trkpt>
      <trkpt lat="41.9212210" lon="-5.5196890">
        <ele>732.6</ele>
        <time>2019-08-15T11:29:22Z</time>
      </trkpt>
      <trkpt lat="41.9212480" lon="-5.5197300">
        <ele>732.7</ele>
        <time>2019-08-15T11:29:23Z</time>
      </trkpt>
      <trkpt lat="41.9212750" lon="-5.5197700">
        <ele>732.8</ele>
        <time>2019-08-15T11:29:24Z</time>
      </trkpt>
      <trkpt lat="41.9213010" lon="-5.5198120">
        <ele>733.0</ele>
        <time>2019-08-15T11:29:25Z</time>
      </trkpt>
      <trkpt lat="41.9213280" lon="-5.5198550">
        <ele>733.2</ele>
        <time>2019-08-15T11:29:26Z</time>
      </trkpt>
      <trkpt lat="41.9213540" lon="-5.5198980">
        <ele>733.5</ele>
        <time>2019-08-15T11:29:27Z</time>
      </trkpt>
      <trkpt lat="41.9213810" lon="-5.5199390">
        <ele>733.7</ele>
        <time>2019-08-15T11:29:28Z</time>
      </trkpt>
      <trkpt lat="41.9214060" lon="-5.5199820">
        <ele>733.9</ele>
        <time>2019-08-15T11:29:29Z</time>
      </trkpt>
      <trkpt lat="41.9214320" lon="-5.5200230">
        <ele>734.2</ele>
        <time>2019-08-15T11:29:30Z</time>
      </trkpt>
      <trkpt lat="41.9214580" lon="-5.5200650">
        <ele>734.4</ele>
        <time>2019-08-15T11:29:31Z</time>
      </trkpt>
      <trkpt lat="41.9214850" lon="-5.5201050">
        <ele>734.6</ele>
        <time>2019-08-15T11:29:32Z</time>
      </trkpt>
      <trkpt lat="41.9215110" lon="-5.5201460">
        <ele>734.7</ele>
        <time>2019-08-15T11:29:33Z</time>
      </trkpt>
      <trkpt lat="41.9215380" lon="-5.5201860">
        <ele>734.8</ele>
        <time>2019-08-15T11:29:34Z</time>
      </trkpt>
      <trkpt lat="41.9215660" lon="-5.5202260">
        <ele>734.8</ele>
        <time>2019-08-15T11:29:35Z</time>
      </trkpt>
      <trkpt lat="41.9215920" lon="-5.5202650">
        <ele>734.9</ele>
        <time>2019-08-15T11:29:36Z</time>
      </trkpt>
      <trkpt lat="41.9216170" lon="-5.5203050">
        <ele>734.9</ele>
        <time>2019-08-15T11:29:37Z</time>
      </trkpt>
      <trkpt lat="41.9216430" lon="-5.5203440">
        <ele>734.9</ele>
        <time>2019-08-15T11:29:38Z</time>
      </trkpt>
      <trkpt lat="41.9216690" lon="-5.5203820">
        <ele>734.9</ele>
        <time>2019-08-15T11:29:39Z</time>
      </trkpt>
      <trkpt lat="41.9216950" lon="-5.5204210">
        <ele>734.8</ele>
        <time>2019-08-15T11:29:40Z</time>
      </trkpt>
      <trkpt lat="41.9217220" lon="-5.5204610">
        <ele>734.8</ele>
        <time>2019-08-15T11:29:41Z</time>
      </trkpt>
      <trkpt lat="41.9217480" lon="-5.5205020">
        <ele>734.7</ele>
        <time>2019-08-15T11:29:42Z</time>
      </trkpt>
      <trkpt lat="41.9217740" lon="-5.5205430">
        <ele>734.7</ele>
        <time>2019-08-15T11:29:43Z</time>
      </trkpt>
      <trkpt lat="41.9218000" lon="-5.5205830">
        <ele>734.6</ele>
        <time>2019-08-15T11:29:44Z</time>
      </trkpt>
      <trkpt lat="41.9218260" lon="-5.5206240">
        <ele>734.6</ele>
        <time>2019-08-15T11:29:45Z</time>
      </trkpt>
      <trkpt lat="41.9218520" lon="-5.5206650">
        <ele>734.5</ele>
        <time>2019-08-15T11:29:46Z</time>
      </trkpt>
      <trkpt lat="41.9218790" lon="-5.5207050">
        <ele>734.5</ele>
        <time>2019-08-15T11:29:47Z</time>
      </trkpt>
      <trkpt lat="41.9219050" lon="-5.5207450">
        <ele>734.5</ele>
        <time>2019-08-15T11:29:48Z</time>
      </trkpt>
      <trkpt lat="41.9219310" lon="-5.5207850">
        <ele>734.5</ele>
        <time>2019-08-15T11:29:49Z</time>
      </trkpt>
      <trkpt lat="41.9219560" lon="-5.5208260">
        <ele>734.5</ele>
        <time>2019-08-15T11:29:50Z</time>
      </trkpt>
      <trkpt lat="41.9219820" lon="-5.5208670">
        <ele>734.5</ele>
        <time>2019-08-15T11:29:51Z</time>
      </trkpt>
      <trkpt lat="41.9220080" lon="-5.5209080">
        <ele>734.5</ele>
        <time>2019-08-15T11:29:52Z</time>
      </trkpt>
      <trkpt lat="41.9220350" lon="-5.5209480">
        <ele>734.6</ele>
        <time>2019-08-15T11:29:53Z</time>
      </trkpt>
      <trkpt lat="41.9220610" lon="-5.5209890">
        <ele>734.6</ele>
        <time>2019-08-15T11:29:54Z</time>
      </trkpt>
      <trkpt lat="41.9220880" lon="-5.5210310">
        <ele>734.7</ele>
        <time>2019-08-15T11:29:55Z</time>
      </trkpt>
      <trkpt lat="41.9221140" lon="-5.5210730">
        <ele>734.7</ele>
        <time>2019-08-15T11:29:56Z</time>
      </trkpt>
      <trkpt lat="41.9221410" lon="-5.5211140">
        <ele>734.8</ele>
        <time>2019-08-15T11:29:57Z</time>
      </trkpt>
      <trkpt lat="41.9221670" lon="-5.5211550">
        <ele>734.8</ele>
        <time>2019-08-15T11:29:58Z</time>
      </trkpt>
      <trkpt lat="41.9221930" lon="-5.5211940">
        <ele>734.9</ele>
        <time>2019-08-15T11:29:59Z</time>
      </trkpt>
      <trkpt lat="41.9222180" lon="-5.5212340">
        <ele>735.0</ele>
        <time>2019-08-15T11:30:00Z</time>
      </trkpt>
      <trkpt lat="41.9222440" lon="-5.5212730">
        <ele>735.1</ele>
        <time>2019-08-15T11:30:01Z</time>
      </trkpt>
      <trkpt lat="41.9222700" lon="-5.5213130">
        <ele>735.2</ele>
        <time>2019-08-15T11:30:02Z</time>
      </trkpt>
      <trkpt lat="41.9222960" lon="-5.5213520">
        <ele>735.3</ele>
        <time>2019-08-15T11:30:03Z</time>
      </trkpt>
      <trkpt lat="41.9223210" lon="-5.5213930">
        <ele>735.4</ele>
        <time>2019-08-15T11:30:04Z</time>
      </trkpt>
      <trkpt lat="41.9223470" lon="-5.5214330">
        <ele>735.5</ele>
        <time>2019-08-15T11:30:05Z</time>
      </trkpt>
      <trkpt lat="41.9223730" lon="-5.5214740">
        <ele>735.6</ele>
        <time>2019-08-15T11:30:06Z</time>
      </trkpt>
      <trkpt lat="41.9223990" lon="-5.5215140">
        <ele>735.7</ele>
        <time>2019-08-15T11:30:07Z</time>
      </trkpt>
      <trkpt lat="41.9224260" lon="-5.5215540">
        <ele>735.8</ele>
        <time>2019-08-15T11:30:08Z</time>
      </trkpt>
      <trkpt lat="41.9224520" lon="-5.5215950">
        <ele>735.9</ele>
        <time>2019-08-15T11:30:09Z</time>
      </trkpt>
      <trkpt lat="41.9224790" lon="-5.5216370">
        <ele>736.1</ele>
        <time>2019-08-15T11:30:10Z</time>
      </trkpt>
      <trkpt lat="41.9225060" lon="-5.5216790">
        <ele>736.2</ele>
        <time>2019-08-15T11:30:11Z</time>
      </trkpt>
      <trkpt lat="41.9225330" lon="-5.5217220">
        <ele>736.4</ele>
        <time>2019-08-15T11:30:12Z</time>
      </trkpt>
      <trkpt lat="41.9225600" lon="-5.5217640">
        <ele>736.6</ele>
        <time>2019-08-15T11:30:13Z</time>
      </trkpt>
      <trkpt lat="41.9225860" lon="-5.5218060">
        <ele>736.8</ele>
        <time>2019-08-15T11:30:14Z</time>
      </trkpt>
      <trkpt lat="41.9226150" lon="-5.5218490">
        <ele>737.0</ele>
        <time>2019-08-15T11:30:15Z</time>
      </trkpt>
      <trkpt lat="41.9226420" lon="-5.5218920">
        <ele>737.2</ele>
        <time>2019-08-15T11:30:16Z</time>
      </trkpt>
      <trkpt lat="41.9226690" lon="-5.5219360">
        <ele>737.4</ele>
        <time>2019-08-15T11:30:17Z</time>
      </trkpt>
      <trkpt lat="41.9226970" lon="-5.5219790">
        <ele>737.6</ele>
        <time>2019-08-15T11:30:18Z</time>
      </trkpt>
      <trkpt lat="41.9227240" lon="-5.5220220">
        <ele>737.8</ele>
        <time>2019-08-15T11:30:19Z</time>
      </trkpt>
      <trkpt lat="41.9227520" lon="-5.5220630">
        <ele>738.0</ele>
        <time>2019-08-15T11:30:20Z</time>
      </trkpt>
      <trkpt lat="41.9227800" lon="-5.5221030">
        <ele>738.2</ele>
        <time>2019-08-15T11:30:21Z</time>
      </trkpt>
      <trkpt lat="41.9228090" lon="-5.5221430">
        <ele>738.3</ele>
        <time>2019-08-15T11:30:22Z</time>
      </trkpt>
      <trkpt lat="41.9228400" lon="-5.5221800">
        <ele>738.4</ele>
        <time>2019-08-15T11:30:23Z</time>
      </trkpt>
      <trkpt lat="41.9228730" lon="-5.5222150">
        <ele>738.6</ele>
        <time>2019-08-15T11:30:24Z</time>
      </trkpt>
      <trkpt lat="41.9229090" lon="-5.5222450">
        <ele>738.7</ele>
        <time>2019-08-15T11:30:25Z</time>
      </trkpt>
      <trkpt lat="41.9229490" lon="-5.5222650">
        <ele>738.8</ele>
        <time>2019-08-15T11:30:26Z</time>
      </trkpt>
      <trkpt lat="41.9229910" lon="-5.5222760">
        <ele>738.9</ele>
        <time>2019-08-15T11:30:27Z</time>
      </trkpt>
      <trkpt lat="41.9230290" lon="-5.5222750">
        <ele>738.9</ele>
        <time>2019-08-15T11:30:28Z</time>
      </trkpt>
      <trkpt lat="41.9230610" lon="-5.5222620">
        <ele>738.9</ele>
        <time>2019-08-15T11:30:29Z</time>
      </trkpt>
      <trkpt lat="41.9230940" lon="-5.5222410">
        <ele>739.0</ele>
        <time>2019-08-15T11:30:30Z</time>
      </trkpt>
      <trkpt lat="41.9231280" lon="-5.5222140">
        <ele>738.9</ele>
        <time>2019-08-15T11:30:31Z</time>
      </trkpt>
      <trkpt lat="41.9231630" lon="-5.5221820">
        <ele>738.9</ele>
        <time>2019-08-15T11:30:32Z</time>
      </trkpt>
      <trkpt lat="41.9231990" lon="-5.5221490">
        <ele>738.9</ele>
        <time>2019-08-15T11:30:33Z</time>
      </trkpt>
      <trkpt lat="41.9232360" lon="-5.5221130">
        <ele>738.8</ele>
        <time>2019-08-15T11:30:34Z</time>
      </trkpt>
      <trkpt lat="41.9232730" lon="-5.5220770">
        <ele>738.8</ele>
        <time>2019-08-15T11:30:35Z</time>
      </trkpt>
      <trkpt lat="41.9233110" lon="-5.5220400">
        <ele>738.7</ele>
        <time>2019-08-15T11:30:36Z</time>
      </trkpt>
      <trkpt lat="41.9233490" lon="-5.5219970">
        <ele>738.6</ele>
        <time>2019-08-15T11:30:37Z</time>
      </trkpt>
      <trkpt lat="41.9233860" lon="-5.5219580">
        <ele>738.6</ele>
        <time>2019-08-15T11:30:38Z</time>
      </trkpt>
      <trkpt lat="41.9234230" lon="-5.5219210">
        <ele>738.4</ele>
        <time>2019-08-15T11:30:39Z</time>
      </trkpt>
      <trkpt lat="41.9234590" lon="-5.5218870">
        <ele>738.3</ele>
        <time>2019-08-15T11:30:40Z</time>
      </trkpt>
      <trkpt lat="41.9234950" lon="-5.5218550">
        <ele>738.2</ele>
        <time>2019-08-15T11:30:41Z</time>
      </trkpt>
      <trkpt lat="41.9235280" lon="-5.5218240">
        <ele>738.1</ele>
        <time>2019-08-15T11:30:42Z</time>
      </trkpt>
      <trkpt lat="41.9235630" lon="-5.5217930">
        <ele>737.9</ele>
        <time>2019-08-15T11:30:43Z</time>
      </trkpt>
      <trkpt lat="41.9235980" lon="-5.5217610">
        <ele>737.7</ele>
        <time>2019-08-15T11:30:44Z</time>
      </trkpt>
      <trkpt lat="41.9236330" lon="-5.5217270">
        <ele>737.5</ele>
        <time>2019-08-15T11:30:45Z</time>
      </trkpt>
      <trkpt lat="41.9236690" lon="-5.5216920">
        <ele>737.3</ele>
        <time>2019-08-15T11:30:46Z</time>
      </trkpt>
      <trkpt lat="41.9237040" lon="-5.5216580">
        <ele>737.1</ele>
        <time>2019-08-15T11:30:47Z</time>
      </trkpt>
      <trkpt lat="41.9237380" lon="-5.5216230">
        <ele>736.8</ele>
        <time>2019-08-15T11:30:48Z</time>
      </trkpt>
      <trkpt lat="41.9237730" lon="-5.5215870">
        <ele>736.6</ele>
        <time>2019-08-15T11:30:49Z</time>
      </trkpt>
      <trkpt lat="41.9238050" lon="-5.5215530">
        <ele>736.4</ele>
        <time>2019-08-15T11:30:50Z</time>
      </trkpt>
      <trkpt lat="41.9238370" lon="-5.5215170">
        <ele>736.2</ele>
        <time>2019-08-15T11:30:51Z</time>
      </trkpt>
      <trkpt lat="41.9238700" lon="-5.5214810">
        <ele>736.0</ele>
        <time>2019-08-15T11:30:52Z</time>
      </trkpt>
      <trkpt lat="41.9239030" lon="-5.5214440">
        <ele>735.8</ele>
        <time>2019-08-15T11:30:53Z</time>
      </trkpt>
      <trkpt lat="41.9239360" lon="-5.5214020">
        <ele>735.6</ele>
        <time>2019-08-15T11:30:54Z</time>
      </trkpt>
      <trkpt lat="41.9239670" lon="-5.5213540">
        <ele>735.4</ele>
        <time>2019-08-15T11:30:55Z</time>
      </trkpt>
      <trkpt lat="41.9239970" lon="-5.5213030">
        <ele>735.1</ele>
        <time>2019-08-15T11:30:56Z</time>
      </trkpt>
      <trkpt lat="41.9240280" lon="-5.5212490">
        <ele>734.9</ele>
        <time>2019-08-15T11:30:57Z</time>
      </trkpt>
      <trkpt lat="41.9240610" lon="-5.5211960">
        <ele>734.7</ele>
        <time>2019-08-15T11:30:58Z</time>
      </trkpt>
      <trkpt lat="41.9240900" lon="-5.5211440">
        <ele>734.5</ele>
        <time>2019-08-15T11:30:59Z</time>
      </trkpt>
      <trkpt lat="41.9241180" lon="-5.5210920">
        <ele>734.4</ele>
        <time>2019-08-15T11:31:00Z</time>
      </trkpt>
      <trkpt lat="41.9241430" lon="-5.5210400">
        <ele>734.2</ele>
        <time>2019-08-15T11:31:01Z</time>
      </trkpt>
      <trkpt lat="41.9241700" lon="-5.5209880">
        <ele>734.1</ele>
        <time>2019-08-15T11:31:02Z</time>
      </trkpt>
      <trkpt lat="41.9241970" lon="-5.5209390">
        <ele>734.0</ele>
        <time>2019-08-15T11:31:03Z</time>
      </trkpt>
      <trkpt lat="41.9242320" lon="-5.5208980">
        <ele>733.9</ele>
        <time>2019-08-15T11:31:04Z</time>
      </trkpt>
      <trkpt lat="41.9242740" lon="-5.5208690">
        <ele>733.8</ele>
        <time>2019-08-15T11:31:05Z</time>
      </trkpt>
      <trkpt lat="41.9243210" lon="-5.5208550">
        <ele>733.7</ele>
        <time>2019-08-15T11:31:06Z</time>
      </trkpt>
      <trkpt lat="41.9243700" lon="-5.5208590">
        <ele>733.7</ele>
        <time>2019-08-15T11:31:07Z</time>
      </trkpt>
      <trkpt lat="41.9244150" lon="-5.5208800">
        <ele>733.6</ele>
        <time>2019-08-15T11:31:08Z</time>
      </trkpt>
      <trkpt lat="41.9244530" lon="-5.5209150">
        <ele>733.6</ele>
        <time>2019-08-15T11:31:09Z</time>
      </trkpt>
      <trkpt lat="41.9244790" lon="-5.5209610">
        <ele>733.7</ele>
        <time>2019-08-15T11:31:10Z</time>
      </trkpt>
      <trkpt lat="41.9244900" lon="-5.5210130">
        <ele>733.8</ele>
        <time>2019-08-15T11:31:11Z</time>
      </trkpt>
      <trkpt lat="41.9244870" lon="-5.5210640">
        <ele>733.8</ele>
        <time>2019-08-15T11:31:12Z</time>
      </trkpt>
      <trkpt lat="41.9244720" lon="-5.5211090">
        <ele>733.9</ele>
        <time>2019-08-15T11:31:13Z</time>
      </trkpt>
      <trkpt lat="41.9244510" lon="-5.5211520">
        <ele>734.0</ele>
        <time>2019-08-15T11:31:14Z</time>
      </trkpt>
      <trkpt lat="41.9244240" lon="-5.5211920">
        <ele>734.1</ele>
        <time>2019-08-15T11:31:15Z</time>
      </trkpt>
      <trkpt lat="41.9243950" lon="-5.5212290">
        <ele>734.2</ele>
        <time>2019-08-15T11:31:16Z</time>
      </trkpt>
      <trkpt lat="41.9243650" lon="-5.5212630">
        <ele>734.3</ele>
        <time>2019-08-15T11:31:17Z</time>
      </trkpt>
      <trkpt lat="41.9243370" lon="-5.5212980">
        <ele>734.4</ele>
        <time>2019-08-15T11:31:18Z</time>
      </trkpt>
      <trkpt lat="41.9243100" lon="-5.5213320">
        <ele>734.5</ele>
        <time>2019-08-15T11:31:19Z</time>
      </trkpt>
      <trkpt lat="41.9242830" lon="-5.5213680">
        <ele>734.6</ele>
        <time>2019-08-15T11:31:20Z</time>
      </trkpt>
      <trkpt lat="41.9242570" lon="-5.5214060">
        <ele>734.7</ele>
        <time>2019-08-15T11:31:21Z</time>
      </trkpt>
      <trkpt lat="41.9242290" lon="-5.5214420">
        <ele>734.8</ele>
        <time>2019-08-15T11:31:22Z</time>
      </trkpt>
      <trkpt lat="41.9242010" lon="-5.5214780">
        <ele>734.9</ele>
        <time>2019-08-15T11:31:23Z</time>
      </trkpt>
      <trkpt lat="41.9241740" lon="-5.5215150">
        <ele>735.1</ele>
        <time>2019-08-15T11:31:24Z</time>
      </trkpt>
      <trkpt lat="41.9241470" lon="-5.5215490">
        <ele>735.2</ele>
        <time>2019-08-15T11:31:25Z</time>
      </trkpt>
      <trkpt lat="41.9241200" lon="-5.5215820">
        <ele>735.2</ele>
        <time>2019-08-15T11:31:26Z</time>
      </trkpt>
      <trkpt lat="41.9240930" lon="-5.5216150">
        <ele>735.2</ele>
        <time>2019-08-15T11:31:27Z</time>
      </trkpt>
      <trkpt lat="41.9240670" lon="-5.5216490">
        <ele>735.5</ele>
        <time>2019-08-15T11:31:28Z</time>
      </trkpt>
      <trkpt lat="41.9240410" lon="-5.5216850">
        <ele>735.7</ele>
        <time>2019-08-15T11:31:29Z</time>
      </trkpt>
      <trkpt lat="41.9240140" lon="-5.5217210">
        <ele>735.9</ele>
        <time>2019-08-15T11:31:30Z</time>
      </trkpt>
      <trkpt lat="41.9239880" lon="-5.5217580">
        <ele>736.1</ele>
        <time>2019-08-15T11:31:31Z</time>
      </trkpt>
      <trkpt lat="41.9239610" lon="-5.5217930">
        <ele>736.2</ele>
        <time>2019-08-15T11:31:32Z</time>
      </trkpt>
      <trkpt lat="41.9239340" lon="-5.5218280">
        <ele>736.4</ele>
        <time>2019-08-15T11:31:33Z</time>
      </trkpt>
      <trkpt lat="41.9239070" lon="-5.5218630">
        <ele>736.6</ele>
        <time>2019-08-15T11:31:34Z</time>
      </trkpt>
      <trkpt lat="41.9238820" lon="-5.5219000">
        <ele>736.8</ele>
        <time>2019-08-15T11:31:35Z</time>
      </trkpt>
      <trkpt lat="41.9238560" lon="-5.5219400">
        <ele>737.1</ele>
        <time>2019-08-15T11:31:36Z</time>
      </trkpt>
      <trkpt lat="41.9238300" lon="-5.5219780">
        <ele>737.3</ele>
        <time>2019-08-15T11:31:37Z</time>
      </trkpt>
      <trkpt lat="41.9238020" lon="-5.5220150">
        <ele>737.4</ele>
        <time>2019-08-15T11:31:38Z</time>
      </trkpt>
      <trkpt lat="41.9237750" lon="-5.5220510">
        <ele>737.6</ele>
        <time>2019-08-15T11:31:39Z</time>
      </trkpt>
      <trkpt lat="41.9237470" lon="-5.5220870">
        <ele>737.8</ele>
        <time>2019-08-15T11:31:40Z</time>
      </trkpt>
      <trkpt lat="41.9237210" lon="-5.5221240">
        <ele>738.0</ele>
        <time>2019-08-15T11:31:41Z</time>
      </trkpt>
      <trkpt lat="41.9236960" lon="-5.5221630">
        <ele>738.1</ele>
        <time>2019-08-15T11:31:42Z</time>
      </trkpt>
      <trkpt lat="41.9236700" lon="-5.5222020">
        <ele>738.3</ele>
        <time>2019-08-15T11:31:43Z</time>
      </trkpt>
      <trkpt lat="41.9236460" lon="-5.5222400">
        <ele>738.4</ele>
        <time>2019-08-15T11:31:44Z</time>
      </trkpt>
      <trkpt lat="41.9236250" lon="-5.5222780">
        <ele>738.5</ele>
        <time>2019-08-15T11:31:45Z</time>
      </trkpt>
      <trkpt lat="41.9236100" lon="-5.5223200">
        <ele>738.4</ele>
        <time>2019-08-15T11:31:46Z</time>
      </trkpt>
      <trkpt lat="41.9236060" lon="-5.5223650">
        <ele>738.3</ele>
        <time>2019-08-15T11:31:47Z</time>
      </trkpt>
      <trkpt lat="41.9236150" lon="-5.5224110">
        <ele>738.1</ele>
        <time>2019-08-15T11:31:48Z</time>
      </trkpt>
      <trkpt lat="41.9236350" lon="-5.5224510">
        <ele>738.0</ele>
        <time>2019-08-15T11:31:49Z</time>
      </trkpt>
      <trkpt lat="41.9236580" lon="-5.5224840">
        <ele>737.9</ele>
        <time>2019-08-15T11:31:50Z</time>
      </trkpt>
      <trkpt lat="41.9236790" lon="-5.5225100">
        <ele>737.8</ele>
        <time>2019-08-15T11:31:51Z</time>
      </trkpt>
      <trkpt lat="41.9236970" lon="-5.5225310">
        <ele>737.8</ele>
        <time>2019-08-15T11:31:52Z</time>
      </trkpt>
      <trkpt lat="41.9237390" lon="-5.5225690">
        <ele>737.6</ele>
        <time>2019-08-15T11:31:54Z</time>
      </trkpt>
      <trkpt lat="41.9237910" lon="-5.5226170">
        <ele>737.3</ele>
        <time>2019-08-15T11:31:56Z</time>
      </trkpt>
      <trkpt lat="41.9238190" lon="-5.5226450">
        <ele>737.2</ele>
        <time>2019-08-15T11:31:57Z</time>
      </trkpt>
      <trkpt lat="41.9238490" lon="-5.5226750">
        <ele>737.1</ele>
        <time>2019-08-15T11:31:58Z</time>
      </trkpt>
      <trkpt lat="41.9238810" lon="-5.5227060">
        <ele>736.9</ele>
        <time>2019-08-15T11:31:59Z</time>
      </trkpt>
      <trkpt lat="41.9239140" lon="-5.5227380">
        <ele>736.9</ele>
        <time>2019-08-15T11:32:00Z</time>
      </trkpt>
      <trkpt lat="41.9239470" lon="-5.5227680">
        <ele>736.8</ele>
        <time>2019-08-15T11:32:01Z</time>
      </trkpt>
      <trkpt lat="41.9239800" lon="-5.5227980">
        <ele>736.7</ele>
        <time>2019-08-15T11:32:02Z</time>
      </trkpt>
      <trkpt lat="41.9240120" lon="-5.5228290">
        <ele>736.6</ele>
        <time>2019-08-15T11:32:03Z</time>
      </trkpt>
      <trkpt lat="41.9240440" lon="-5.5228600">
        <ele>736.6</ele>
        <time>2019-08-15T11:32:04Z</time>
      </trkpt>
      <trkpt lat="41.9240760" lon="-5.5228920">
        <ele>736.5</ele>
        <time>2019-08-15T11:32:05Z</time>
      </trkpt>
      <trkpt lat="41.9241070" lon="-5.5229220">
        <ele>736.4</ele>
        <time>2019-08-15T11:32:06Z</time>
      </trkpt>
      <trkpt lat="41.9241390" lon="-5.5229530">
        <ele>736.4</ele>
        <time>2019-08-15T11:32:07Z</time>
      </trkpt>
      <trkpt lat="41.9241710" lon="-5.5229810">
        <ele>736.4</ele>
        <time>2019-08-15T11:32:08Z</time>
      </trkpt>
      <trkpt lat="41.9242020" lon="-5.5230110">
        <ele>736.4</ele>
        <time>2019-08-15T11:32:09Z</time>
      </trkpt>
      <trkpt lat="41.9242340" lon="-5.5230420">
        <ele>736.4</ele>
        <time>2019-08-15T11:32:10Z</time>
      </trkpt>
      <trkpt lat="41.9242670" lon="-5.5230740">
        <ele>736.4</ele>
        <time>2019-08-15T11:32:11Z</time>
      </trkpt>
      <trkpt lat="41.9243020" lon="-5.5231070">
        <ele>736.4</ele>
        <time>2019-08-15T11:32:12Z</time>
      </trkpt>
      <trkpt lat="41.9243350" lon="-5.5231400">
        <ele>736.4</ele>
        <time>2019-08-15T11:32:13Z</time>
      </trkpt>
      <trkpt lat="41.9243700" lon="-5.5231720">
        <ele>736.4</ele>
        <time>2019-08-15T11:32:14Z</time>
      </trkpt>
      <trkpt lat="41.9244060" lon="-5.5232060">
        <ele>736.3</ele>
        <time>2019-08-15T11:32:15Z</time>
      </trkpt>
      <trkpt lat="41.9244430" lon="-5.5232390">
        <ele>736.3</ele>
        <time>2019-08-15T11:32:16Z</time>
      </trkpt>
      <trkpt lat="41.9244790" lon="-5.5232760">
        <ele>736.3</ele>
        <time>2019-08-15T11:32:17Z</time>
      </trkpt>
      <trkpt lat="41.9245170" lon="-5.5233130">
        <ele>736.4</ele>
        <time>2019-08-15T11:32:18Z</time>
      </trkpt>
      <trkpt lat="41.9245540" lon="-5.5233500">
        <ele>736.4</ele>
        <time>2019-08-15T11:32:19Z</time>
      </trkpt>
      <trkpt lat="41.9245900" lon="-5.5233860">
        <ele>736.4</ele>
        <time>2019-08-15T11:32:20Z</time>
      </trkpt>
      <trkpt lat="41.9246250" lon="-5.5234210">
        <ele>736.5</ele>
        <time>2019-08-15T11:32:21Z</time>
      </trkpt>
      <trkpt lat="41.9246600" lon="-5.5234520">
        <ele>736.5</ele>
        <time>2019-08-15T11:32:22Z</time>
      </trkpt>
      <trkpt lat="41.9246960" lon="-5.5234830">
        <ele>736.6</ele>
        <time>2019-08-15T11:32:23Z</time>
      </trkpt>
      <trkpt lat="41.9247330" lon="-5.5235160">
        <ele>736.7</ele>
        <time>2019-08-15T11:32:24Z</time>
      </trkpt>
      <trkpt lat="41.9247700" lon="-5.5235490">
        <ele>736.8</ele>
        <time>2019-08-15T11:32:25Z</time>
      </trkpt>
      <trkpt lat="41.9248060" lon="-5.5235830">
        <ele>736.8</ele>
        <time>2019-08-15T11:32:26Z</time>
      </trkpt>
      <trkpt lat="41.9248410" lon="-5.5236170">
        <ele>736.9</ele>
        <time>2019-08-15T11:32:27Z</time>
      </trkpt>
      <trkpt lat="41.9248760" lon="-5.5236500">
        <ele>737.0</ele>
        <time>2019-08-15T11:32:28Z</time>
      </trkpt>
      <trkpt lat="41.9249110" lon="-5.5236850">
        <ele>737.1</ele>
        <time>2019-08-15T11:32:29Z</time>
      </trkpt>
      <trkpt lat="41.9249450" lon="-5.5237190">
        <ele>737.2</ele>
        <time>2019-08-15T11:32:30Z</time>
      </trkpt>
      <trkpt lat="41.9249800" lon="-5.5237530">
        <ele>737.3</ele>
        <time>2019-08-15T11:32:31Z</time>
      </trkpt>
      <trkpt lat="41.9250160" lon="-5.5237860">
        <ele>737.4</ele>
        <time>2019-08-15T11:32:32Z</time>
      </trkpt>
      <trkpt lat="41.9250490" lon="-5.5238180">
        <ele>737.5</ele>
        <time>2019-08-15T11:32:33Z</time>
      </trkpt>
      <trkpt lat="41.9250830" lon="-5.5238510">
        <ele>737.6</ele>
        <time>2019-08-15T11:32:34Z</time>
      </trkpt>
      <trkpt lat="41.9251150" lon="-5.5238840">
        <ele>737.7</ele>
        <time>2019-08-15T11:32:35Z</time>
      </trkpt>
      <trkpt lat="41.9251480" lon="-5.5239140">
        <ele>737.8</ele>
        <time>2019-08-15T11:32:36Z</time>
      </trkpt>
      <trkpt lat="41.9251800" lon="-5.5239460">
        <ele>738.0</ele>
        <time>2019-08-15T11:32:37Z</time>
      </trkpt>
      <trkpt lat="41.9252110" lon="-5.5239770">
        <ele>738.1</ele>
        <time>2019-08-15T11:32:38Z</time>
      </trkpt>
      <trkpt lat="41.9252430" lon="-5.5240070">
        <ele>738.1</ele>
        <time>2019-08-15T11:32:39Z</time>
      </trkpt>
      <trkpt lat="41.9252760" lon="-5.5240370">
        <ele>738.2</ele>
        <time>2019-08-15T11:32:40Z</time>
      </trkpt>
      <trkpt lat="41.9253070" lon="-5.5240670">
        <ele>738.3</ele>
        <time>2019-08-15T11:32:41Z</time>
      </trkpt>
      <trkpt lat="41.9253380" lon="-5.5240990">
        <ele>738.4</ele>
        <time>2019-08-15T11:32:42Z</time>
      </trkpt>
      <trkpt lat="41.9253690" lon="-5.5241280">
        <ele>738.4</ele>
        <time>2019-08-15T11:32:43Z</time>
      </trkpt>
      <trkpt lat="41.9254000" lon="-5.5241590">
        <ele>738.5</ele>
        <time>2019-08-15T11:32:44Z</time>
      </trkpt>
      <trkpt lat="41.9254310" lon="-5.5241890">
        <ele>738.6</ele>
        <time>2019-08-15T11:32:45Z</time>
      </trkpt>
      <trkpt lat="41.9254620" lon="-5.5242190">
        <ele>738.7</ele>
        <time>2019-08-15T11:32:46Z</time>
      </trkpt>
      <trkpt lat="41.9254920" lon="-5.5242500">
        <ele>738.8</ele>
        <time>2019-08-15T11:32:47Z</time>
      </trkpt>
      <trkpt lat="41.9255230" lon="-5.5242780">
        <ele>738.8</ele>
        <time>2019-08-15T11:32:48Z</time>
      </trkpt>
      <trkpt lat="41.9255530" lon="-5.5243080">
        <ele>738.9</ele>
        <time>2019-08-15T11:32:49Z</time>
      </trkpt>
      <trkpt lat="41.9255820" lon="-5.5243360">
        <ele>739.0</ele>
        <time>2019-08-15T11:32:50Z</time>
      </trkpt>
      <trkpt lat="41.9256110" lon="-5.5243650">
        <ele>739.0</ele>
        <time>2019-08-15T11:32:51Z</time>
      </trkpt>
      <trkpt lat="41.9256400" lon="-5.5243930">
        <ele>739.1</ele>
        <time>2019-08-15T11:32:52Z</time>
      </trkpt>
      <trkpt lat="41.9256690" lon="-5.5244210">
        <ele>739.1</ele>
        <time>2019-08-15T11:32:53Z</time>
      </trkpt>
      <trkpt lat="41.9256990" lon="-5.5244480">
        <ele>739.2</ele>
        <time>2019-08-15T11:32:54Z</time>
      </trkpt>
      <trkpt lat="41.9257280" lon="-5.5244740">
        <ele>739.3</ele>
        <time>2019-08-15T11:32:55Z</time>
      </trkpt>
      <trkpt lat="41.9257570" lon="-5.5245010">
        <ele>739.3</ele>
        <time>2019-08-15T11:32:56Z</time>
      </trkpt>
      <trkpt lat="41.9257870" lon="-5.5245300">
        <ele>739.4</ele>
        <time>2019-08-15T11:32:57Z</time>
      </trkpt>
      <trkpt lat="41.9258170" lon="-5.5245580">
        <ele>739.4</ele>
        <time>2019-08-15T11:32:58Z</time>
      </trkpt>
      <trkpt lat="41.9258470" lon="-5.5245870">
        <ele>739.4</ele>
        <time>2019-08-15T11:32:59Z</time>
      </trkpt>
      <trkpt lat="41.9258770" lon="-5.5246160">
        <ele>739.5</ele>
        <time>2019-08-15T11:33:00Z</time>
      </trkpt>
      <trkpt lat="41.9259070" lon="-5.5246450">
        <ele>739.5</ele>
        <time>2019-08-15T11:33:01Z</time>
      </trkpt>
      <trkpt lat="41.9259370" lon="-5.5246730">
        <ele>739.6</ele>
        <time>2019-08-15T11:33:02Z</time>
      </trkpt>
      <trkpt lat="41.9259660" lon="-5.5247020">
        <ele>739.6</ele>
        <time>2019-08-15T11:33:03Z</time>
      </trkpt>
      <trkpt lat="41.9259970" lon="-5.5247300">
        <ele>739.6</ele>
        <time>2019-08-15T11:33:04Z</time>
      </trkpt>
      <trkpt lat="41.9260260" lon="-5.5247550">
        <ele>739.7</ele>
        <time>2019-08-15T11:33:05Z</time>
      </trkpt>
      <trkpt lat="41.9260540" lon="-5.5247820">
        <ele>739.7</ele>
        <time>2019-08-15T11:33:06Z</time>
      </trkpt>
      <trkpt lat="41.9260840" lon="-5.5248070">
        <ele>739.7</ele>
        <time>2019-08-15T11:33:07Z</time>
      </trkpt>
      <trkpt lat="41.9261140" lon="-5.5248330">
        <ele>739.8</ele>
        <time>2019-08-15T11:33:08Z</time>
      </trkpt>
      <trkpt lat="41.9261450" lon="-5.5248590">
        <ele>739.8</ele>
        <time>2019-08-15T11:33:09Z</time>
      </trkpt>
      <trkpt lat="41.9261750" lon="-5.5248860">
        <ele>739.9</ele>
        <time>2019-08-15T11:33:10Z</time>
      </trkpt>
      <trkpt lat="41.9262030" lon="-5.5249140">
        <ele>739.9</ele>
        <time>2019-08-15T11:33:11Z</time>
      </trkpt>
      <trkpt lat="41.9262330" lon="-5.5249430">
        <ele>739.9</ele>
        <time>2019-08-15T11:33:12Z</time>
      </trkpt>
      <trkpt lat="41.9262630" lon="-5.5249700">
        <ele>740.0</ele>
        <time>2019-08-15T11:33:13Z</time>
      </trkpt>
      <trkpt lat="41.9262930" lon="-5.5249960">
        <ele>740.1</ele>
        <time>2019-08-15T11:33:14Z</time>
      </trkpt>
      <trkpt lat="41.9263220" lon="-5.5250250">
        <ele>740.1</ele>
        <time>2019-08-15T11:33:15Z</time>
      </trkpt>
      <trkpt lat="41.9263530" lon="-5.5250540">
        <ele>740.2</ele>
        <time>2019-08-15T11:33:16Z</time>
      </trkpt>
      <trkpt lat="41.9263820" lon="-5.5250840">
        <ele>740.3</ele>
        <time>2019-08-15T11:33:17Z</time>
      </trkpt>
      <trkpt lat="41.9264110" lon="-5.5251130">
        <ele>740.3</ele>
        <time>2019-08-15T11:33:18Z</time>
      </trkpt>
      <trkpt lat="41.9264400" lon="-5.5251420">
        <ele>740.4</ele>
        <time>2019-08-15T11:33:19Z</time>
      </trkpt>
      <trkpt lat="41.9264690" lon="-5.5251710">
        <ele>740.5</ele>
        <time>2019-08-15T11:33:20Z</time>
      </trkpt>
      <trkpt lat="41.9264990" lon="-5.5251990">
        <ele>740.6</ele>
        <time>2019-08-15T11:33:21Z</time>
      </trkpt>
      <trkpt lat="41.9265290" lon="-5.5252270">
        <ele>740.7</ele>
        <time>2019-08-15T11:33:22Z</time>
      </trkpt>
      <trkpt lat="41.9265610" lon="-5.5252560">
        <ele>740.8</ele>
        <time>2019-08-15T11:33:23Z</time>
      </trkpt>
      <trkpt lat="41.9265920" lon="-5.5252860">
        <ele>740.9</ele>
        <time>2019-08-15T11:33:24Z</time>
      </trkpt>
      <trkpt lat="41.9266230" lon="-5.5253160">
        <ele>741.0</ele>
        <time>2019-08-15T11:33:25Z</time>
      </trkpt>
      <trkpt lat="41.9266540" lon="-5.5253460">
        <ele>741.2</ele>
        <time>2019-08-15T11:33:26Z</time>
      </trkpt>
      <trkpt lat="41.9266870" lon="-5.5253760">
        <ele>741.3</ele>
        <time>2019-08-15T11:33:27Z</time>
      </trkpt>
      <trkpt lat="41.9267190" lon="-5.5254070">
        <ele>741.4</ele>
        <time>2019-08-15T11:33:28Z</time>
      </trkpt>
      <trkpt lat="41.9267510" lon="-5.5254380">
        <ele>741.6</ele>
        <time>2019-08-15T11:33:29Z</time>
      </trkpt>
      <trkpt lat="41.9267840" lon="-5.5254700">
        <ele>741.7</ele>
        <time>2019-08-15T11:33:30Z</time>
      </trkpt>
      <trkpt lat="41.9268160" lon="-5.5255020">
        <ele>741.8</ele>
        <time>2019-08-15T11:33:31Z</time>
      </trkpt>
      <trkpt lat="41.9268480" lon="-5.5255360">
        <ele>742.0</ele>
        <time>2019-08-15T11:33:32Z</time>
      </trkpt>
      <trkpt lat="41.9268790" lon="-5.5255660">
        <ele>742.1</ele>
        <time>2019-08-15T11:33:33Z</time>
      </trkpt>
      <trkpt lat="41.9269110" lon="-5.5255970">
        <ele>742.2</ele>
        <time>2019-08-15T11:33:34Z</time>
      </trkpt>
      <trkpt lat="41.9269430" lon="-5.5256290">
        <ele>742.3</ele>
        <time>2019-08-15T11:33:35Z</time>
      </trkpt>
      <trkpt lat="41.9269740" lon="-5.5256590">
        <ele>742.4</ele>
        <time>2019-08-15T11:33:36Z</time>
      </trkpt>
      <trkpt lat="41.9270050" lon="-5.5256890">
        <ele>742.5</ele>
        <time>2019-08-15T11:33:37Z</time>
      </trkpt>
      <trkpt lat="41.9270360" lon="-5.5257190">
        <ele>742.6</ele>
        <time>2019-08-15T11:33:38Z</time>
      </trkpt>
      <trkpt lat="41.9270670" lon="-5.5257470">
        <ele>742.7</ele>
        <time>2019-08-15T11:33:39Z</time>
      </trkpt>
      <trkpt lat="41.9270990" lon="-5.5257770">
        <ele>742.8</ele>
        <time>2019-08-15T11:33:40Z</time>
      </trkpt>
      <trkpt lat="41.9271310" lon="-5.5258050">
        <ele>742.8</ele>
        <time>2019-08-15T11:33:41Z</time>
      </trkpt>
      <trkpt lat="41.9271620" lon="-5.5258350">
        <ele>742.9</ele>
        <time>2019-08-15T11:33:42Z</time>
      </trkpt>
      <trkpt lat="41.9271930" lon="-5.5258640">
        <ele>743.0</ele>
        <time>2019-08-15T11:33:43Z</time>
      </trkpt>
      <trkpt lat="41.9272250" lon="-5.5258950">
        <ele>743.0</ele>
        <time>2019-08-15T11:33:44Z</time>
      </trkpt>
      <trkpt lat="41.9272560" lon="-5.5259250">
        <ele>743.1</ele>
        <time>2019-08-15T11:33:45Z</time>
      </trkpt>
      <trkpt lat="41.9272860" lon="-5.5259530">
        <ele>743.1</ele>
        <time>2019-08-15T11:33:46Z</time>
      </trkpt>
      <trkpt lat="41.9273160" lon="-5.5259810">
        <ele>743.1</ele>
        <time>2019-08-15T11:33:47Z</time>
      </trkpt>
      <trkpt lat="41.9273460" lon="-5.5260100">
        <ele>743.2</ele>
        <time>2019-08-15T11:33:48Z</time>
      </trkpt>
      <trkpt lat="41.9273750" lon="-5.5260390">
        <ele>743.2</ele>
        <time>2019-08-15T11:33:49Z</time>
      </trkpt>
      <trkpt lat="41.9274040" lon="-5.5260670">
        <ele>743.3</ele>
        <time>2019-08-15T11:33:50Z</time>
      </trkpt>
      <trkpt lat="41.9274320" lon="-5.5260930">
        <ele>743.3</ele>
        <time>2019-08-15T11:33:51Z</time>
      </trkpt>
      <trkpt lat="41.9274600" lon="-5.5261190">
        <ele>743.3</ele>
        <time>2019-08-15T11:33:52Z</time>
      </trkpt>
      <trkpt lat="41.9274860" lon="-5.5261450">
        <ele>743.3</ele>
        <time>2019-08-15T11:33:53Z</time>
      </trkpt>
      <trkpt lat="41.9275120" lon="-5.5261690">
        <ele>743.4</ele>
        <time>2019-08-15T11:33:54Z</time>
      </trkpt>
      <trkpt lat="41.9275380" lon="-5.5261950">
        <ele>743.4</ele>
        <time>2019-08-15T11:33:55Z</time>
      </trkpt>
      <trkpt lat="41.9275640" lon="-5.5262200">
        <ele>743.5</ele>
        <time>2019-08-15T11:33:56Z</time>
      </trkpt>
      <trkpt lat="41.9275900" lon="-5.5262450">
        <ele>743.6</ele>
        <time>2019-08-15T11:33:57Z</time>
      </trkpt>
      <trkpt lat="41.9276170" lon="-5.5262700">
        <ele>743.6</ele>
        <time>2019-08-15T11:33:58Z</time>
      </trkpt>
      <trkpt lat="41.9276430" lon="-5.5262960">
        <ele>743.7</ele>
        <time>2019-08-15T11:33:59Z</time>
      </trkpt>
      <trkpt lat="41.9276710" lon="-5.5263230">
        <ele>743.8</ele>
        <time>2019-08-15T11:34:00Z</time>
      </trkpt>
      <trkpt lat="41.9276980" lon="-5.5263500">
        <ele>743.9</ele>
        <time>2019-08-15T11:34:01Z</time>
      </trkpt>
      <trkpt lat="41.9277260" lon="-5.5263770">
        <ele>744.0</ele>
        <time>2019-08-15T11:34:02Z</time>
      </trkpt>
      <trkpt lat="41.9277530" lon="-5.5264040">
        <ele>744.1</ele>
        <time>2019-08-15T11:34:03Z</time>
      </trkpt>
      <trkpt lat="41.9277800" lon="-5.5264300">
        <ele>744.2</ele>
        <time>2019-08-15T11:34:04Z</time>
      </trkpt>
      <trkpt lat="41.9278070" lon="-5.5264580">
        <ele>744.3</ele>
        <time>2019-08-15T11:34:05Z</time>
      </trkpt>
      <trkpt lat="41.9278340" lon="-5.5264860">
        <ele>744.4</ele>
        <time>2019-08-15T11:34:06Z</time>
      </trkpt>
      <trkpt lat="41.9278610" lon="-5.5265130">
        <ele>744.6</ele>
        <time>2019-08-15T11:34:07Z</time>
      </trkpt>
      <trkpt lat="41.9278880" lon="-5.5265390">
        <ele>744.7</ele>
        <time>2019-08-15T11:34:08Z</time>
      </trkpt>
      <trkpt lat="41.9279160" lon="-5.5265650">
        <ele>744.8</ele>
        <time>2019-08-15T11:34:09Z</time>
      </trkpt>
      <trkpt lat="41.9279440" lon="-5.5265910">
        <ele>744.9</ele>
        <time>2019-08-15T11:34:10Z</time>
      </trkpt>
      <trkpt lat="41.9279720" lon="-5.5266180">
        <ele>745.0</ele>
        <time>2019-08-15T11:34:11Z</time>
      </trkpt>
      <trkpt lat="41.9280000" lon="-5.5266450">
        <ele>745.1</ele>
        <time>2019-08-15T11:34:12Z</time>
      </trkpt>
      <trkpt lat="41.9280280" lon="-5.5266720">
        <ele>745.2</ele>
        <time>2019-08-15T11:34:13Z</time>
      </trkpt>
      <trkpt lat="41.9280550" lon="-5.5266980">
        <ele>745.3</ele>
        <time>2019-08-15T11:34:14Z</time>
      </trkpt>
      <trkpt lat="41.9280810" lon="-5.5267210">
        <ele>745.3</ele>
        <time>2019-08-15T11:34:15Z</time>
      </trkpt>
      <trkpt lat="41.9281070" lon="-5.5267450">
        <ele>745.4</ele>
        <time>2019-08-15T11:34:16Z</time>
      </trkpt>
      <trkpt lat="41.9281330" lon="-5.5267700">
        <ele>745.4</ele>
        <time>2019-08-15T11:34:17Z</time>
      </trkpt>
      <trkpt lat="41.9281590" lon="-5.5267970">
        <ele>745.5</ele>
        <time>2019-08-15T11:34:18Z</time>
      </trkpt>
      <trkpt lat="41.9281860" lon="-5.5268240">
        <ele>745.6</ele>
        <time>2019-08-15T11:34:19Z</time>
      </trkpt>
      <trkpt lat="41.9282140" lon="-5.5268500">
        <ele>745.6</ele>
        <time>2019-08-15T11:34:20Z</time>
      </trkpt>
      <trkpt lat="41.9282410" lon="-5.5268780">
        <ele>745.6</ele>
        <time>2019-08-15T11:34:21Z</time>
      </trkpt>
      <trkpt lat="41.9282680" lon="-5.5269050">
        <ele>745.6</ele>
        <time>2019-08-15T11:34:22Z</time>
      </trkpt>
      <trkpt lat="41.9282950" lon="-5.5269320">
        <ele>745.6</ele>
        <time>2019-08-15T11:34:23Z</time>
      </trkpt>
      <trkpt lat="41.9283230" lon="-5.5269590">
        <ele>745.6</ele>
        <time>2019-08-15T11:34:24Z</time>
      </trkpt>
      <trkpt lat="41.9283500" lon="-5.5269860">
        <ele>745.6</ele>
        <time>2019-08-15T11:34:25Z</time>
      </trkpt>
      <trkpt lat="41.9283770" lon="-5.5270140">
        <ele>745.7</ele>
        <time>2019-08-15T11:34:26Z</time>
      </trkpt>
      <trkpt lat="41.9284050" lon="-5.5270410">
        <ele>745.7</ele>
        <time>2019-08-15T11:34:27Z</time>
      </trkpt>
      <trkpt lat="41.9284320" lon="-5.5270670">
        <ele>745.7</ele>
        <time>2019-08-15T11:34:28Z</time>
      </trkpt>
      <trkpt lat="41.9284590" lon="-5.5270940">
        <ele>745.8</ele>
        <time>2019-08-15T11:34:29Z</time>
      </trkpt>
      <trkpt lat="41.9284850" lon="-5.5271200">
        <ele>745.8</ele>
        <time>2019-08-15T11:34:30Z</time>
      </trkpt>
      <trkpt lat="41.9285110" lon="-5.5271450">
        <ele>745.8</ele>
        <time>2019-08-15T11:34:31Z</time>
      </trkpt>
      <trkpt lat="41.9285370" lon="-5.5271700">
        <ele>745.8</ele>
        <time>2019-08-15T11:34:32Z</time>
      </trkpt>
      <trkpt lat="41.9285630" lon="-5.5271930">
        <ele>745.9</ele>
        <time>2019-08-15T11:34:33Z</time>
      </trkpt>
      <trkpt lat="41.9285870" lon="-5.5272160">
        <ele>745.9</ele>
        <time>2019-08-15T11:34:34Z</time>
      </trkpt>
      <trkpt lat="41.9286120" lon="-5.5272400">
        <ele>746.0</ele>
        <time>2019-08-15T11:34:35Z</time>
      </trkpt>
      <trkpt lat="41.9286370" lon="-5.5272640">
        <ele>746.0</ele>
        <time>2019-08-15T11:34:36Z</time>
      </trkpt>
      <trkpt lat="41.9286610" lon="-5.5272890">
        <ele>746.1</ele>
        <time>2019-08-15T11:34:37Z</time>
      </trkpt>
      <trkpt lat="41.9286860" lon="-5.5273130">
        <ele>746.1</ele>
        <time>2019-08-15T11:34:38Z</time>
      </trkpt>
      <trkpt lat="41.9287110" lon="-5.5273360">
        <ele>746.2</ele>
        <time>2019-08-15T11:34:39Z</time>
      </trkpt>
      <trkpt lat="41.9287360" lon="-5.5273610">
        <ele>746.2</ele>
        <time>2019-08-15T11:34:40Z</time>
      </trkpt>
      <trkpt lat="41.9287610" lon="-5.5273860">
        <ele>746.2</ele>
        <time>2019-08-15T11:34:41Z</time>
      </trkpt>
      <trkpt lat="41.9287860" lon="-5.5274100">
        <ele>746.2</ele>
        <time>2019-08-15T11:34:42Z</time>
      </trkpt>
      <trkpt lat="41.9288120" lon="-5.5274350">
        <ele>746.2</ele>
        <time>2019-08-15T11:34:43Z</time>
      </trkpt>
      <trkpt lat="41.9288390" lon="-5.5274590">
        <ele>746.3</ele>
        <time>2019-08-15T11:34:44Z</time>
      </trkpt>
      <trkpt lat="41.9288650" lon="-5.5274830">
        <ele>746.3</ele>
        <time>2019-08-15T11:34:45Z</time>
      </trkpt>
      <trkpt lat="41.9288900" lon="-5.5275080">
        <ele>746.3</ele>
        <time>2019-08-15T11:34:46Z</time>
      </trkpt>
      <trkpt lat="41.9289160" lon="-5.5275330">
        <ele>746.3</ele>
        <time>2019-08-15T11:34:47Z</time>
      </trkpt>
      <trkpt lat="41.9289410" lon="-5.5275560">
        <ele>746.3</ele>
        <time>2019-08-15T11:34:48Z</time>
      </trkpt>
      <trkpt lat="41.9289630" lon="-5.5275770">
        <ele>746.3</ele>
        <time>2019-08-15T11:34:49Z</time>
      </trkpt>
      <trkpt lat="41.9290080" lon="-5.5276160">
        <ele>746.3</ele>
        <time>2019-08-15T11:34:51Z</time>
      </trkpt>
      <trkpt lat="41.9290330" lon="-5.5276390">
        <ele>746.2</ele>
        <time>2019-08-15T11:34:52Z</time>
      </trkpt>
      <trkpt lat="41.9290590" lon="-5.5276630">
        <ele>746.2</ele>
        <time>2019-08-15T11:34:53Z</time>
      </trkpt>
      <trkpt lat="41.9290860" lon="-5.5276890">
        <ele>746.2</ele>
        <time>2019-08-15T11:34:54Z</time>
      </trkpt>
      <trkpt lat="41.9291150" lon="-5.5277170">
        <ele>746.1</ele>
        <time>2019-08-15T11:34:55Z</time>
      </trkpt>
      <trkpt lat="41.9291450" lon="-5.5277440">
        <ele>746.1</ele>
        <time>2019-08-15T11:34:56Z</time>
      </trkpt>
      <trkpt lat="41.9291760" lon="-5.5277730">
        <ele>746.0</ele>
        <time>2019-08-15T11:34:57Z</time>
      </trkpt>
      <trkpt lat="41.9292080" lon="-5.5278030">
        <ele>746.0</ele>
        <time>2019-08-15T11:34:58Z</time>
      </trkpt>
      <trkpt lat="41.9292410" lon="-5.5278330">
        <ele>745.9</ele>
        <time>2019-08-15T11:34:59Z</time>
      </trkpt>
      <trkpt lat="41.9292750" lon="-5.5278650">
        <ele>745.8</ele>
        <time>2019-08-15T11:35:00Z</time>
      </trkpt>
      <trkpt lat="41.9293100" lon="-5.5278980">
        <ele>745.8</ele>
        <time>2019-08-15T11:35:01Z</time>
      </trkpt>
      <trkpt lat="41.9293450" lon="-5.5279310">
        <ele>745.7</ele>
        <time>2019-08-15T11:35:02Z</time>
      </trkpt>
      <trkpt lat="41.9293790" lon="-5.5279630">
        <ele>745.6</ele>
        <time>2019-08-15T11:35:03Z</time>
      </trkpt>
      <trkpt lat="41.9294140" lon="-5.5279960">
        <ele>745.6</ele>
        <time>2019-08-15T11:35:04Z</time>
      </trkpt>
      <trkpt lat="41.9294490" lon="-5.5280300">
        <ele>745.5</ele>
        <time>2019-08-15T11:35:05Z</time>
      </trkpt>
      <trkpt lat="41.9294830" lon="-5.5280640">
        <ele>745.4</ele>
        <time>2019-08-15T11:35:06Z</time>
      </trkpt>
      <trkpt lat="41.9295190" lon="-5.5280990">
        <ele>745.4</ele>
        <time>2019-08-15T11:35:07Z</time>
      </trkpt>
      <trkpt lat="41.9295550" lon="-5.5281320">
        <ele>745.3</ele>
        <time>2019-08-15T11:35:08Z</time>
      </trkpt>
      <trkpt lat="41.9295910" lon="-5.5281670">
        <ele>745.3</ele>
        <time>2019-08-15T11:35:09Z</time>
      </trkpt>
      <trkpt lat="41.9296290" lon="-5.5282040">
        <ele>745.2</ele>
        <time>2019-08-15T11:35:10Z</time>
      </trkpt>
      <trkpt lat="41.9296670" lon="-5.5282400">
        <ele>745.2</ele>
        <time>2019-08-15T11:35:11Z</time>
      </trkpt>
      <trkpt lat="41.9297060" lon="-5.5282770">
        <ele>745.2</ele>
        <time>2019-08-15T11:35:12Z</time>
      </trkpt>
      <trkpt lat="41.9297450" lon="-5.5283160">
        <ele>745.2</ele>
        <time>2019-08-15T11:35:13Z</time>
      </trkpt>
      <trkpt lat="41.9297830" lon="-5.5283570">
        <ele>745.1</ele>
        <time>2019-08-15T11:35:14Z</time>
      </trkpt>
      <trkpt lat="41.9298210" lon="-5.5283990">
        <ele>745.2</ele>
        <time>2019-08-15T11:35:15Z</time>
      </trkpt>
      <trkpt lat="41.9298600" lon="-5.5284390">
        <ele>745.2</ele>
        <time>2019-08-15T11:35:16Z</time>
      </trkpt>
      <trkpt lat="41.9299010" lon="-5.5284770">
        <ele>745.2</ele>
        <time>2019-08-15T11:35:17Z</time>
      </trkpt>
      <trkpt lat="41.9299420" lon="-5.5285130">
        <ele>745.2</ele>
        <time>2019-08-15T11:35:18Z</time>
      </trkpt>
      <trkpt lat="41.9299810" lon="-5.5285460">
        <ele>745.2</ele>
        <time>2019-08-15T11:35:19Z</time>
      </trkpt>
      <trkpt lat="41.9300190" lon="-5.5285790">
        <ele>745.2</ele>
        <time>2019-08-15T11:35:20Z</time>
      </trkpt>
      <trkpt lat="41.9300550" lon="-5.5286150">
        <ele>745.2</ele>
        <time>2019-08-15T11:35:21Z</time>
      </trkpt>
      <trkpt lat="41.9300870" lon="-5.5286510">
        <ele>745.2</ele>
        <time>2019-08-15T11:35:22Z</time>
      </trkpt>
      <trkpt lat="41.9301200" lon="-5.5286870">
        <ele>745.2</ele>
        <time>2019-08-15T11:35:23Z</time>
      </trkpt>
      <trkpt lat="41.9301530" lon="-5.5287210">
        <ele>745.2</ele>
        <time>2019-08-15T11:35:24Z</time>
      </trkpt>
      <trkpt lat="41.9301880" lon="-5.5287530">
        <ele>745.2</ele>
        <time>2019-08-15T11:35:25Z</time>
      </trkpt>
      <trkpt lat="41.9302230" lon="-5.5287840">
        <ele>745.2</ele>
        <time>2019-08-15T11:35:26Z</time>
      </trkpt>
      <trkpt lat="41.9302580" lon="-5.5288170">
        <ele>745.2</ele>
        <time>2019-08-15T11:35:27Z</time>
      </trkpt>
      <trkpt lat="41.9302920" lon="-5.5288510">
        <ele>745.2</ele>
        <time>2019-08-15T11:35:28Z</time>
      </trkpt>
      <trkpt lat="41.9303270" lon="-5.5288850">
        <ele>745.1</ele>
        <time>2019-08-15T11:35:29Z</time>
      </trkpt>
      <trkpt lat="41.9303630" lon="-5.5289180">
        <ele>745.1</ele>
        <time>2019-08-15T11:35:30Z</time>
      </trkpt>
      <trkpt lat="41.9303970" lon="-5.5289530">
        <ele>745.0</ele>
        <time>2019-08-15T11:35:31Z</time>
      </trkpt>
      <trkpt lat="41.9304310" lon="-5.5289910">
        <ele>745.0</ele>
        <time>2019-08-15T11:35:32Z</time>
      </trkpt>
      <trkpt lat="41.9304650" lon="-5.5290290">
        <ele>745.0</ele>
        <time>2019-08-15T11:35:33Z</time>
      </trkpt>
      <trkpt lat="41.9304970" lon="-5.5290690">
        <ele>745.0</ele>
        <time>2019-08-15T11:35:34Z</time>
      </trkpt>
      <trkpt lat="41.9305290" lon="-5.5291100">
        <ele>745.0</ele>
        <time>2019-08-15T11:35:35Z</time>
      </trkpt>
      <trkpt lat="41.9305630" lon="-5.5291550">
        <ele>745.0</ele>
        <time>2019-08-15T11:35:36Z</time>
      </trkpt>
      <trkpt lat="41.9305960" lon="-5.5292010">
        <ele>744.9</ele>
        <time>2019-08-15T11:35:37Z</time>
      </trkpt>
      <trkpt lat="41.9306280" lon="-5.5292480">
        <ele>744.9</ele>
        <time>2019-08-15T11:35:38Z</time>
      </trkpt>
      <trkpt lat="41.9306610" lon="-5.5292960">
        <ele>744.9</ele>
        <time>2019-08-15T11:35:39Z</time>
      </trkpt>
      <trkpt lat="41.9306940" lon="-5.5293440">
        <ele>745.0</ele>
        <time>2019-08-15T11:35:40Z</time>
      </trkpt>
      <trkpt lat="41.9307260" lon="-5.5293910">
        <ele>745.0</ele>
        <time>2019-08-15T11:35:41Z</time>
      </trkpt>
      <trkpt lat="41.9307570" lon="-5.5294370">
        <ele>745.0</ele>
        <time>2019-08-15T11:35:42Z</time>
      </trkpt>
      <trkpt lat="41.9307870" lon="-5.5294820">
        <ele>745.0</ele>
        <time>2019-08-15T11:35:43Z</time>
      </trkpt>
      <trkpt lat="41.9308170" lon="-5.5295270">
        <ele>745.1</ele>
        <time>2019-08-15T11:35:44Z</time>
      </trkpt>
      <trkpt lat="41.9308470" lon="-5.5295750">
        <ele>745.2</ele>
        <time>2019-08-15T11:35:45Z</time>
      </trkpt>
      <trkpt lat="41.9308780" lon="-5.5296230">
        <ele>745.2</ele>
        <time>2019-08-15T11:35:46Z</time>
      </trkpt>
      <trkpt lat="41.9309100" lon="-5.5296700">
        <ele>745.3</ele>
        <time>2019-08-15T11:35:47Z</time>
      </trkpt>
      <trkpt lat="41.9309430" lon="-5.5297170">
        <ele>745.3</ele>
        <time>2019-08-15T11:35:48Z</time>
      </trkpt>
      <trkpt lat="41.9309740" lon="-5.5297640">
        <ele>745.4</ele>
        <time>2019-08-15T11:35:49Z</time>
      </trkpt>
      <trkpt lat="41.9310050" lon="-5.5298130">
        <ele>745.5</ele>
        <time>2019-08-15T11:35:50Z</time>
      </trkpt>
      <trkpt lat="41.9310360" lon="-5.5298600">
        <ele>745.6</ele>
        <time>2019-08-15T11:35:51Z</time>
      </trkpt>
      <trkpt lat="41.9310670" lon="-5.5299090">
        <ele>745.7</ele>
        <time>2019-08-15T11:35:52Z</time>
      </trkpt>
      <trkpt lat="41.9310980" lon="-5.5299560">
        <ele>745.7</ele>
        <time>2019-08-15T11:35:53Z</time>
      </trkpt>
      <trkpt lat="41.9311290" lon="-5.5300050">
        <ele>745.8</ele>
        <time>2019-08-15T11:35:54Z</time>
      </trkpt>
      <trkpt lat="41.9311600" lon="-5.5300540">
        <ele>745.9</ele>
        <time>2019-08-15T11:35:55Z</time>
      </trkpt>
      <trkpt lat="41.9311910" lon="-5.5301030">
        <ele>746.0</ele>
        <time>2019-08-15T11:35:56Z</time>
      </trkpt>
      <trkpt lat="41.9312210" lon="-5.5301510">
        <ele>746.1</ele>
        <time>2019-08-15T11:35:57Z</time>
      </trkpt>
      <trkpt lat="41.9312520" lon="-5.5301990">
        <ele>746.1</ele>
        <time>2019-08-15T11:35:58Z</time>
      </trkpt>
      <trkpt lat="41.9312840" lon="-5.5302470">
        <ele>746.2</ele>
        <time>2019-08-15T11:35:59Z</time>
      </trkpt>
      <trkpt lat="41.9313160" lon="-5.5302950">
        <ele>746.3</ele>
        <time>2019-08-15T11:36:00Z</time>
      </trkpt>
      <trkpt lat="41.9313480" lon="-5.5303430">
        <ele>746.3</ele>
        <time>2019-08-15T11:36:01Z</time>
      </trkpt>
      <trkpt lat="41.9313810" lon="-5.5303900">
        <ele>746.4</ele>
        <time>2019-08-15T11:36:02Z</time>
      </trkpt>
      <trkpt lat="41.9314140" lon="-5.5304380">
        <ele>746.5</ele>
        <time>2019-08-15T11:36:03Z</time>
      </trkpt>
      <trkpt lat="41.9314490" lon="-5.5304860">
        <ele>746.5</ele>
        <time>2019-08-15T11:36:04Z</time>
      </trkpt>
      <trkpt lat="41.9314830" lon="-5.5305340">
        <ele>746.6</ele>
        <time>2019-08-15T11:36:05Z</time>
      </trkpt>
      <trkpt lat="41.9315170" lon="-5.5305830">
        <ele>746.6</ele>
        <time>2019-08-15T11:36:06Z</time>
      </trkpt>
      <trkpt lat="41.9315510" lon="-5.5306340">
        <ele>746.6</ele>
        <time>2019-08-15T11:36:07Z</time>
      </trkpt>
      <trkpt lat="41.9315820" lon="-5.5306880">
        <ele>746.7</ele>
        <time>2019-08-15T11:36:08Z</time>
      </trkpt>
      <trkpt lat="41.9316120" lon="-5.5307400">
        <ele>746.7</ele>
        <time>2019-08-15T11:36:09Z</time>
      </trkpt>
      <trkpt lat="41.9316420" lon="-5.5307920">
        <ele>746.8</ele>
        <time>2019-08-15T11:36:10Z</time>
      </trkpt>
      <trkpt lat="41.9316730" lon="-5.5308420">
        <ele>746.8</ele>
        <time>2019-08-15T11:36:11Z</time>
      </trkpt>
      <trkpt lat="41.9317030" lon="-5.5308920">
        <ele>746.9</ele>
        <time>2019-08-15T11:36:12Z</time>
      </trkpt>
      <trkpt lat="41.9317340" lon="-5.5309410">
        <ele>746.9</ele>
        <time>2019-08-15T11:36:13Z</time>
      </trkpt>
      <trkpt lat="41.9317650" lon="-5.5309890">
        <ele>746.9</ele>
        <time>2019-08-15T11:36:14Z</time>
      </trkpt>
      <trkpt lat="41.9317980" lon="-5.5310360">
        <ele>747.0</ele>
        <time>2019-08-15T11:36:15Z</time>
      </trkpt>
      <trkpt lat="41.9318290" lon="-5.5310840">
        <ele>747.0</ele>
        <time>2019-08-15T11:36:16Z</time>
      </trkpt>
      <trkpt lat="41.9318600" lon="-5.5311320">
        <ele>747.1</ele>
        <time>2019-08-15T11:36:17Z</time>
      </trkpt>
      <trkpt lat="41.9318890" lon="-5.5311800">
        <ele>747.1</ele>
        <time>2019-08-15T11:36:18Z</time>
      </trkpt>
      <trkpt lat="41.9319180" lon="-5.5312280">
        <ele>747.2</ele>
        <time>2019-08-15T11:36:19Z</time>
      </trkpt>
      <trkpt lat="41.9319480" lon="-5.5312760">
        <ele>747.2</ele>
        <time>2019-08-15T11:36:20Z</time>
      </trkpt>
      <trkpt lat="41.9319790" lon="-5.5313240">
        <ele>747.3</ele>
        <time>2019-08-15T11:36:21Z</time>
      </trkpt>
      <trkpt lat="41.9320100" lon="-5.5313730">
        <ele>747.3</ele>
        <time>2019-08-15T11:36:22Z</time>
      </trkpt>
      <trkpt lat="41.9320410" lon="-5.5314210">
        <ele>747.4</ele>
        <time>2019-08-15T11:36:23Z</time>
      </trkpt>
      <trkpt lat="41.9320730" lon="-5.5314700">
        <ele>747.4</ele>
        <time>2019-08-15T11:36:24Z</time>
      </trkpt>
      <trkpt lat="41.9321050" lon="-5.5315200">
        <ele>747.5</ele>
        <time>2019-08-15T11:36:25Z</time>
      </trkpt>
      <trkpt lat="41.9321370" lon="-5.5315680">
        <ele>747.6</ele>
        <time>2019-08-15T11:36:26Z</time>
      </trkpt>
      <trkpt lat="41.9321680" lon="-5.5316170">
        <ele>747.6</ele>
        <time>2019-08-15T11:36:27Z</time>
      </trkpt>
      <trkpt lat="41.9321970" lon="-5.5316630">
        <ele>747.7</ele>
        <time>2019-08-15T11:36:28Z</time>
      </trkpt>
      <trkpt lat="41.9322240" lon="-5.5317080">
        <ele>747.7</ele>
        <time>2019-08-15T11:36:29Z</time>
      </trkpt>
      <trkpt lat="41.9322520" lon="-5.5317560">
        <ele>747.8</ele>
        <time>2019-08-15T11:36:30Z</time>
      </trkpt>
      <trkpt lat="41.9322820" lon="-5.5318050">
        <ele>747.9</ele>
        <time>2019-08-15T11:36:31Z</time>
      </trkpt>
      <trkpt lat="41.9323130" lon="-5.5318550">
        <ele>747.9</ele>
        <time>2019-08-15T11:36:32Z</time>
      </trkpt>
      <trkpt lat="41.9323450" lon="-5.5319060">
        <ele>748.0</ele>
        <time>2019-08-15T11:36:33Z</time>
      </trkpt>
      <trkpt lat="41.9323780" lon="-5.5319550">
        <ele>748.0</ele>
        <time>2019-08-15T11:36:34Z</time>
      </trkpt>
      <trkpt lat="41.9324100" lon="-5.5320050">
        <ele>748.1</ele>
        <time>2019-08-15T11:36:35Z</time>
      </trkpt>
      <trkpt lat="41.9324420" lon="-5.5320540">
        <ele>748.1</ele>
        <time>2019-08-15T11:36:36Z</time>
      </trkpt>
      <trkpt lat="41.9324720" lon="-5.5321030">
        <ele>748.2</ele>
        <time>2019-08-15T11:36:37Z</time>
      </trkpt>
      <trkpt lat="41.9325030" lon="-5.5321510">
        <ele>748.3</ele>
        <time>2019-08-15T11:36:38Z</time>
      </trkpt>
      <trkpt lat="41.9325350" lon="-5.5321980">
        <ele>748.3</ele>
        <time>2019-08-15T11:36:39Z</time>
      </trkpt>
      <trkpt lat="41.9325680" lon="-5.5322440">
        <ele>748.3</ele>
        <time>2019-08-15T11:36:40Z</time>
      </trkpt>
      <trkpt lat="41.9326020" lon="-5.5322910">
        <ele>748.3</ele>
        <time>2019-08-15T11:36:41Z</time>
      </trkpt>
      <trkpt lat="41.9326360" lon="-5.5323410">
        <ele>748.2</ele>
        <time>2019-08-15T11:36:42Z</time>
      </trkpt>
      <trkpt lat="41.9326690" lon="-5.5323940">
        <ele>748.2</ele>
        <time>2019-08-15T11:36:43Z</time>
      </trkpt>
      <trkpt lat="41.9326990" lon="-5.5324480">
        <ele>748.1</ele>
        <time>2019-08-15T11:36:44Z</time>
      </trkpt>
      <trkpt lat="41.9327300" lon="-5.5325020">
        <ele>748.0</ele>
        <time>2019-08-15T11:36:45Z</time>
      </trkpt>
      <trkpt lat="41.9327610" lon="-5.5325550">
        <ele>747.9</ele>
        <time>2019-08-15T11:36:46Z</time>
      </trkpt>
      <trkpt lat="41.9327930" lon="-5.5326090">
        <ele>747.8</ele>
        <time>2019-08-15T11:36:47Z</time>
      </trkpt>
      <trkpt lat="41.9328250" lon="-5.5326600">
        <ele>747.8</ele>
        <time>2019-08-15T11:36:48Z</time>
      </trkpt>
      <trkpt lat="41.9328560" lon="-5.5327090">
        <ele>747.7</ele>
        <time>2019-08-15T11:36:49Z</time>
      </trkpt>
      <trkpt lat="41.9328890" lon="-5.5327600">
        <ele>747.6</ele>
        <time>2019-08-15T11:36:50Z</time>
      </trkpt>
      <trkpt lat="41.9329220" lon="-5.5328120">
        <ele>747.5</ele>
        <time>2019-08-15T11:36:51Z</time>
      </trkpt>
      <trkpt lat="41.9329570" lon="-5.5328660">
        <ele>747.4</ele>
        <time>2019-08-15T11:36:52Z</time>
      </trkpt>
      <trkpt lat="41.9329920" lon="-5.5329190">
        <ele>747.3</ele>
        <time>2019-08-15T11:36:53Z</time>
      </trkpt>
      <trkpt lat="41.9330260" lon="-5.5329740">
        <ele>747.2</ele>
        <time>2019-08-15T11:36:54Z</time>
      </trkpt>
      <trkpt lat="41.9330600" lon="-5.5330280">
        <ele>747.1</ele>
        <time>2019-08-15T11:36:55Z</time>
      </trkpt>
      <trkpt lat="41.9330980" lon="-5.5330810">
        <ele>747.1</ele>
        <time>2019-08-15T11:36:56Z</time>
      </trkpt>
      <trkpt lat="41.9331340" lon="-5.5331350">
        <ele>747.0</ele>
        <time>2019-08-15T11:36:57Z</time>
      </trkpt>
      <trkpt lat="41.9331680" lon="-5.5331860">
        <ele>747.0</ele>
        <time>2019-08-15T11:36:58Z</time>
      </trkpt>
      <trkpt lat="41.9332020" lon="-5.5332390">
        <ele>747.0</ele>
        <time>2019-08-15T11:36:59Z</time>
      </trkpt>
      <trkpt lat="41.9332370" lon="-5.5332940">
        <ele>746.9</ele>
        <time>2019-08-15T11:37:00Z</time>
      </trkpt>
      <trkpt lat="41.9332740" lon="-5.5333470">
        <ele>746.9</ele>
        <time>2019-08-15T11:37:01Z</time>
      </trkpt>
      <trkpt lat="41.9333110" lon="-5.5334020">
        <ele>746.9</ele>
        <time>2019-08-15T11:37:02Z</time>
      </trkpt>
      <trkpt lat="41.9333470" lon="-5.5334590">
        <ele>747.0</ele>
        <time>2019-08-15T11:37:03Z</time>
      </trkpt>
      <trkpt lat="41.9333830" lon="-5.5335180">
        <ele>747.0</ele>
        <time>2019-08-15T11:37:04Z</time>
      </trkpt>
      <trkpt lat="41.9334190" lon="-5.5335740">
        <ele>747.0</ele>
        <time>2019-08-15T11:37:05Z</time>
      </trkpt>
      <trkpt lat="41.9334540" lon="-5.5336310">
        <ele>747.1</ele>
        <time>2019-08-15T11:37:06Z</time>
      </trkpt>
      <trkpt lat="41.9334900" lon="-5.5336880">
        <ele>747.1</ele>
        <time>2019-08-15T11:37:07Z</time>
      </trkpt>
      <trkpt lat="41.9335260" lon="-5.5337450">
        <ele>747.1</ele>
        <time>2019-08-15T11:37:08Z</time>
      </trkpt>
      <trkpt lat="41.9335620" lon="-5.5338020">
        <ele>747.2</ele>
        <time>2019-08-15T11:37:09Z</time>
      </trkpt>
      <trkpt lat="41.9335980" lon="-5.5338590">
        <ele>747.3</ele>
        <time>2019-08-15T11:37:10Z</time>
      </trkpt>
      <trkpt lat="41.9336360" lon="-5.5339170">
        <ele>747.5</ele>
        <time>2019-08-15T11:37:11Z</time>
      </trkpt>
      <trkpt lat="41.9336740" lon="-5.5339740">
        <ele>747.6</ele>
        <time>2019-08-15T11:37:12Z</time>
      </trkpt>
      <trkpt lat="41.9337120" lon="-5.5340310">
        <ele>747.7</ele>
        <time>2019-08-15T11:37:13Z</time>
      </trkpt>
      <trkpt lat="41.9337500" lon="-5.5340860">
        <ele>747.8</ele>
        <time>2019-08-15T11:37:14Z</time>
      </trkpt>
      <trkpt lat="41.9337870" lon="-5.5341420">
        <ele>747.8</ele>
        <time>2019-08-15T11:37:15Z</time>
      </trkpt>
      <trkpt lat="41.9338240" lon="-5.5341980">
        <ele>747.9</ele>
        <time>2019-08-15T11:37:16Z</time>
      </trkpt>
      <trkpt lat="41.9338600" lon="-5.5342540">
        <ele>748.0</ele>
        <time>2019-08-15T11:37:17Z</time>
      </trkpt>
      <trkpt lat="41.9338960" lon="-5.5343090">
        <ele>748.1</ele>
        <time>2019-08-15T11:37:18Z</time>
      </trkpt>
      <trkpt lat="41.9339310" lon="-5.5343610">
        <ele>748.2</ele>
        <time>2019-08-15T11:37:19Z</time>
      </trkpt>
      <trkpt lat="41.9339670" lon="-5.5344150">
        <ele>748.2</ele>
        <time>2019-08-15T11:37:20Z</time>
      </trkpt>
      <trkpt lat="41.9340020" lon="-5.5344690">
        <ele>748.2</ele>
        <time>2019-08-15T11:37:21Z</time>
      </trkpt>
      <trkpt lat="41.9340370" lon="-5.5345250">
        <ele>748.3</ele>
        <time>2019-08-15T11:37:22Z</time>
      </trkpt>
      <trkpt lat="41.9340710" lon="-5.5345800">
        <ele>748.3</ele>
        <time>2019-08-15T11:37:23Z</time>
      </trkpt>
      <trkpt lat="41.9341050" lon="-5.5346340">
        <ele>748.3</ele>
        <time>2019-08-15T11:37:24Z</time>
      </trkpt>
      <trkpt lat="41.9341400" lon="-5.5346860">
        <ele>748.3</ele>
        <time>2019-08-15T11:37:25Z</time>
      </trkpt>
      <trkpt lat="41.9341720" lon="-5.5347380">
        <ele>748.3</ele>
        <time>2019-08-15T11:37:26Z</time>
      </trkpt>
      <trkpt lat="41.9342050" lon="-5.5347900">
        <ele>748.2</ele>
        <time>2019-08-15T11:37:27Z</time>
      </trkpt>
      <trkpt lat="41.9342380" lon="-5.5348420">
        <ele>748.2</ele>
        <time>2019-08-15T11:37:28Z</time>
      </trkpt>
      <trkpt lat="41.9342720" lon="-5.5348940">
        <ele>748.2</ele>
        <time>2019-08-15T11:37:29Z</time>
      </trkpt>
      <trkpt lat="41.9343050" lon="-5.5349440">
        <ele>748.1</ele>
        <time>2019-08-15T11:37:30Z</time>
      </trkpt>
      <trkpt lat="41.9343380" lon="-5.5349950">
        <ele>748.0</ele>
        <time>2019-08-15T11:37:31Z</time>
      </trkpt>
      <trkpt lat="41.9343700" lon="-5.5350450">
        <ele>747.9</ele>
        <time>2019-08-15T11:37:32Z</time>
      </trkpt>
      <trkpt lat="41.9344030" lon="-5.5350950">
        <ele>747.8</ele>
        <time>2019-08-15T11:37:33Z</time>
      </trkpt>
      <trkpt lat="41.9344360" lon="-5.5351450">
        <ele>747.7</ele>
        <time>2019-08-15T11:37:34Z</time>
      </trkpt>
      <trkpt lat="41.9344700" lon="-5.5351960">
        <ele>747.6</ele>
        <time>2019-08-15T11:37:35Z</time>
      </trkpt>
      <trkpt lat="41.9345040" lon="-5.5352470">
        <ele>747.5</ele>
        <time>2019-08-15T11:37:36Z</time>
      </trkpt>
      <trkpt lat="41.9345390" lon="-5.5353010">
        <ele>747.5</ele>
        <time>2019-08-15T11:37:37Z</time>
      </trkpt>
      <trkpt lat="41.9345740" lon="-5.5353550">
        <ele>747.4</ele>
        <time>2019-08-15T11:37:38Z</time>
      </trkpt>
      <trkpt lat="41.9346080" lon="-5.5354080">
        <ele>747.3</ele>
        <time>2019-08-15T11:37:39Z</time>
      </trkpt>
      <trkpt lat="41.9346420" lon="-5.5354610">
        <ele>747.2</ele>
        <time>2019-08-15T11:37:40Z</time>
      </trkpt>
      <trkpt lat="41.9346750" lon="-5.5355120">
        <ele>747.1</ele>
        <time>2019-08-15T11:37:41Z</time>
      </trkpt>
      <trkpt lat="41.9347070" lon="-5.5355630">
        <ele>747.0</ele>
        <time>2019-08-15T11:37:42Z</time>
      </trkpt>
      <trkpt lat="41.9347400" lon="-5.5356150">
        <ele>746.9</ele>
        <time>2019-08-15T11:37:43Z</time>
      </trkpt>
      <trkpt lat="41.9347730" lon="-5.5356650">
        <ele>746.8</ele>
        <time>2019-08-15T11:37:44Z</time>
      </trkpt>
      <trkpt lat="41.9348060" lon="-5.5357150">
        <ele>746.7</ele>
        <time>2019-08-15T11:37:45Z</time>
      </trkpt>
      <trkpt lat="41.9348390" lon="-5.5357650">
        <ele>746.6</ele>
        <time>2019-08-15T11:37:46Z</time>
      </trkpt>
      <trkpt lat="41.9348700" lon="-5.5358170">
        <ele>746.5</ele>
        <time>2019-08-15T11:37:47Z</time>
      </trkpt>
      <trkpt lat="41.9349020" lon="-5.5358680">
        <ele>746.4</ele>
        <time>2019-08-15T11:37:48Z</time>
      </trkpt>
      <trkpt lat="41.9349330" lon="-5.5359180">
        <ele>746.3</ele>
        <time>2019-08-15T11:37:49Z</time>
      </trkpt>
      <trkpt lat="41.9349680" lon="-5.5359710">
        <ele>746.1</ele>
        <time>2019-08-15T11:37:50Z</time>
      </trkpt>
      <trkpt lat="41.9350030" lon="-5.5360260">
        <ele>745.9</ele>
        <time>2019-08-15T11:37:51Z</time>
      </trkpt>
      <trkpt lat="41.9350400" lon="-5.5360830">
        <ele>745.7</ele>
        <time>2019-08-15T11:37:52Z</time>
      </trkpt>
      <trkpt lat="41.9350760" lon="-5.5361410">
        <ele>745.5</ele>
        <time>2019-08-15T11:37:53Z</time>
      </trkpt>
      <trkpt lat="41.9351120" lon="-5.5361980">
        <ele>745.3</ele>
        <time>2019-08-15T11:37:54Z</time>
      </trkpt>
      <trkpt lat="41.9351480" lon="-5.5362530">
        <ele>745.2</ele>
        <time>2019-08-15T11:37:55Z</time>
      </trkpt>
      <trkpt lat="41.9351830" lon="-5.5363080">
        <ele>745.0</ele>
        <time>2019-08-15T11:37:56Z</time>
      </trkpt>
      <trkpt lat="41.9352200" lon="-5.5363640">
        <ele>744.8</ele>
        <time>2019-08-15T11:37:57Z</time>
      </trkpt>
      <trkpt lat="41.9352570" lon="-5.5364190">
        <ele>744.5</ele>
        <time>2019-08-15T11:37:58Z</time>
      </trkpt>
      <trkpt lat="41.9352960" lon="-5.5364760">
        <ele>744.3</ele>
        <time>2019-08-15T11:37:59Z</time>
      </trkpt>
      <trkpt lat="41.9353330" lon="-5.5365340">
        <ele>744.2</ele>
        <time>2019-08-15T11:38:00Z</time>
      </trkpt>
      <trkpt lat="41.9353700" lon="-5.5365910">
        <ele>744.0</ele>
        <time>2019-08-15T11:38:01Z</time>
      </trkpt>
      <trkpt lat="41.9354060" lon="-5.5366450">
        <ele>743.9</ele>
        <time>2019-08-15T11:38:02Z</time>
      </trkpt>
      <trkpt lat="41.9354410" lon="-5.5367000">
        <ele>743.9</ele>
        <time>2019-08-15T11:38:03Z</time>
      </trkpt>
      <trkpt lat="41.9354770" lon="-5.5367560">
        <ele>743.9</ele>
        <time>2019-08-15T11:38:04Z</time>
      </trkpt>
      <trkpt lat="41.9355140" lon="-5.5368110">
        <ele>743.8</ele>
        <time>2019-08-15T11:38:05Z</time>
      </trkpt>
      <trkpt lat="41.9355510" lon="-5.5368670">
        <ele>743.8</ele>
        <time>2019-08-15T11:38:06Z</time>
      </trkpt>
      <trkpt lat="41.9355890" lon="-5.5369240">
        <ele>743.8</ele>
        <time>2019-08-15T11:38:07Z</time>
      </trkpt>
      <trkpt lat="41.9356270" lon="-5.5369840">
        <ele>743.7</ele>
        <time>2019-08-15T11:38:08Z</time>
      </trkpt>
      <trkpt lat="41.9356670" lon="-5.5370450">
        <ele>743.7</ele>
        <time>2019-08-15T11:38:09Z</time>
      </trkpt>
      <trkpt lat="41.9357040" lon="-5.5371050">
        <ele>743.7</ele>
        <time>2019-08-15T11:38:10Z</time>
      </trkpt>
      <trkpt lat="41.9357410" lon="-5.5371630">
        <ele>743.7</ele>
        <time>2019-08-15T11:38:11Z</time>
      </trkpt>
      <trkpt lat="41.9357770" lon="-5.5372210">
        <ele>743.7</ele>
        <time>2019-08-15T11:38:12Z</time>
      </trkpt>
      <trkpt lat="41.9358130" lon="-5.5372770">
        <ele>743.6</ele>
        <time>2019-08-15T11:38:13Z</time>
      </trkpt>
      <trkpt lat="41.9358490" lon="-5.5373320">
        <ele>743.4</ele>
        <time>2019-08-15T11:38:14Z</time>
      </trkpt>
      <trkpt lat="41.9358840" lon="-5.5373860">
        <ele>743.2</ele>
        <time>2019-08-15T11:38:15Z</time>
      </trkpt>
      <trkpt lat="41.9359210" lon="-5.5374420">
        <ele>743.0</ele>
        <time>2019-08-15T11:38:16Z</time>
      </trkpt>
      <trkpt lat="41.9359560" lon="-5.5374980">
        <ele>742.8</ele>
        <time>2019-08-15T11:38:17Z</time>
      </trkpt>
      <trkpt lat="41.9359940" lon="-5.5375550">
        <ele>742.6</ele>
        <time>2019-08-15T11:38:18Z</time>
      </trkpt>
      <trkpt lat="41.9360300" lon="-5.5376120">
        <ele>742.5</ele>
        <time>2019-08-15T11:38:19Z</time>
      </trkpt>
      <trkpt lat="41.9360660" lon="-5.5376710">
        <ele>742.3</ele>
        <time>2019-08-15T11:38:20Z</time>
      </trkpt>
      <trkpt lat="41.9361030" lon="-5.5377300">
        <ele>742.1</ele>
        <time>2019-08-15T11:38:21Z</time>
      </trkpt>
      <trkpt lat="41.9361410" lon="-5.5377890">
        <ele>741.9</ele>
        <time>2019-08-15T11:38:22Z</time>
      </trkpt>
      <trkpt lat="41.9361790" lon="-5.5378490">
        <ele>741.7</ele>
        <time>2019-08-15T11:38:23Z</time>
      </trkpt>
      <trkpt lat="41.9362170" lon="-5.5379100">
        <ele>741.6</ele>
        <time>2019-08-15T11:38:24Z</time>
      </trkpt>
      <trkpt lat="41.9362560" lon="-5.5379700">
        <ele>741.5</ele>
        <time>2019-08-15T11:38:25Z</time>
      </trkpt>
      <trkpt lat="41.9362940" lon="-5.5380310">
        <ele>741.5</ele>
        <time>2019-08-15T11:38:26Z</time>
      </trkpt>
      <trkpt lat="41.9363330" lon="-5.5380930">
        <ele>741.5</ele>
        <time>2019-08-15T11:38:27Z</time>
      </trkpt>
      <trkpt lat="41.9363710" lon="-5.5381540">
        <ele>741.4</ele>
        <time>2019-08-15T11:38:28Z</time>
      </trkpt>
      <trkpt lat="41.9364110" lon="-5.5382130">
        <ele>741.3</ele>
        <time>2019-08-15T11:38:29Z</time>
      </trkpt>
      <trkpt lat="41.9364510" lon="-5.5382740">
        <ele>741.2</ele>
        <time>2019-08-15T11:38:30Z</time>
      </trkpt>
      <trkpt lat="41.9364900" lon="-5.5383340">
        <ele>741.1</ele>
        <time>2019-08-15T11:38:31Z</time>
      </trkpt>
      <trkpt lat="41.9365280" lon="-5.5383950">
        <ele>741.0</ele>
        <time>2019-08-15T11:38:32Z</time>
      </trkpt>
      <trkpt lat="41.9365660" lon="-5.5384570">
        <ele>740.9</ele>
        <time>2019-08-15T11:38:33Z</time>
      </trkpt>
      <trkpt lat="41.9366040" lon="-5.5385190">
        <ele>740.9</ele>
        <time>2019-08-15T11:38:34Z</time>
      </trkpt>
      <trkpt lat="41.9366430" lon="-5.5385790">
        <ele>740.9</ele>
        <time>2019-08-15T11:38:35Z</time>
      </trkpt>
      <trkpt lat="41.9366810" lon="-5.5386390">
        <ele>740.9</ele>
        <time>2019-08-15T11:38:36Z</time>
      </trkpt>
      <trkpt lat="41.9367190" lon="-5.5386970">
        <ele>740.9</ele>
        <time>2019-08-15T11:38:37Z</time>
      </trkpt>
      <trkpt lat="41.9367570" lon="-5.5387550">
        <ele>741.0</ele>
        <time>2019-08-15T11:38:38Z</time>
      </trkpt>
      <trkpt lat="41.9367950" lon="-5.5388100">
        <ele>741.0</ele>
        <time>2019-08-15T11:38:39Z</time>
      </trkpt>
      <trkpt lat="41.9368310" lon="-5.5388640">
        <ele>741.1</ele>
        <time>2019-08-15T11:38:40Z</time>
      </trkpt>
      <trkpt lat="41.9368680" lon="-5.5389180">
        <ele>741.1</ele>
        <time>2019-08-15T11:38:41Z</time>
      </trkpt>
      <trkpt lat="41.9369020" lon="-5.5389700">
        <ele>741.2</ele>
        <time>2019-08-15T11:38:42Z</time>
      </trkpt>
      <trkpt lat="41.9369350" lon="-5.5390180">
        <ele>741.2</ele>
        <time>2019-08-15T11:38:43Z</time>
      </trkpt>
      <trkpt lat="41.9369670" lon="-5.5390650">
        <ele>741.3</ele>
        <time>2019-08-15T11:38:44Z</time>
      </trkpt>
      <trkpt lat="41.9369960" lon="-5.5391100">
        <ele>741.3</ele>
        <time>2019-08-15T11:38:45Z</time>
      </trkpt>
      <trkpt lat="41.9370230" lon="-5.5391520">
        <ele>741.3</ele>
        <time>2019-08-15T11:38:46Z</time>
      </trkpt>
      <trkpt lat="41.9370480" lon="-5.5391960">
        <ele>741.2</ele>
        <time>2019-08-15T11:38:47Z</time>
      </trkpt>
      <trkpt lat="41.9370740" lon="-5.5392400">
        <ele>741.2</ele>
        <time>2019-08-15T11:38:48Z</time>
      </trkpt>
      <trkpt lat="41.9371010" lon="-5.5392830">
        <ele>741.2</ele>
        <time>2019-08-15T11:38:49Z</time>
      </trkpt>
      <trkpt lat="41.9371300" lon="-5.5393270">
        <ele>741.1</ele>
        <time>2019-08-15T11:38:50Z</time>
      </trkpt>
      <trkpt lat="41.9371580" lon="-5.5393720">
        <ele>741.1</ele>
        <time>2019-08-15T11:38:51Z</time>
      </trkpt>
      <trkpt lat="41.9371870" lon="-5.5394190">
        <ele>741.0</ele>
        <time>2019-08-15T11:38:52Z</time>
      </trkpt>
      <trkpt lat="41.9372160" lon="-5.5394650">
        <ele>741.0</ele>
        <time>2019-08-15T11:38:53Z</time>
      </trkpt>
      <trkpt lat="41.9372460" lon="-5.5395130">
        <ele>740.9</ele>
        <time>2019-08-15T11:38:54Z</time>
      </trkpt>
      <trkpt lat="41.9372770" lon="-5.5395620">
        <ele>740.8</ele>
        <time>2019-08-15T11:38:55Z</time>
      </trkpt>
      <trkpt lat="41.9373080" lon="-5.5396120">
        <ele>740.6</ele>
        <time>2019-08-15T11:38:56Z</time>
      </trkpt>
      <trkpt lat="41.9373390" lon="-5.5396600">
        <ele>740.5</ele>
        <time>2019-08-15T11:38:57Z</time>
      </trkpt>
      <trkpt lat="41.9373670" lon="-5.5397060">
        <ele>740.4</ele>
        <time>2019-08-15T11:38:58Z</time>
      </trkpt>
      <trkpt lat="41.9373960" lon="-5.5397500">
        <ele>740.2</ele>
        <time>2019-08-15T11:38:59Z</time>
      </trkpt>
      <trkpt lat="41.9374250" lon="-5.5397920">
        <ele>740.0</ele>
        <time>2019-08-15T11:39:00Z</time>
      </trkpt>
      <trkpt lat="41.9374560" lon="-5.5398350">
        <ele>739.9</ele>
        <time>2019-08-15T11:39:01Z</time>
      </trkpt>
      <trkpt lat="41.9374870" lon="-5.5398790">
        <ele>739.8</ele>
        <time>2019-08-15T11:39:02Z</time>
      </trkpt>
      <trkpt lat="41.9375180" lon="-5.5399260">
        <ele>739.8</ele>
        <time>2019-08-15T11:39:03Z</time>
      </trkpt>
      <trkpt lat="41.9375470" lon="-5.5399720">
        <ele>739.7</ele>
        <time>2019-08-15T11:39:04Z</time>
      </trkpt>
      <trkpt lat="41.9375790" lon="-5.5400200">
        <ele>739.6</ele>
        <time>2019-08-15T11:39:05Z</time>
      </trkpt>
      <trkpt lat="41.9376130" lon="-5.5400720">
        <ele>739.6</ele>
        <time>2019-08-15T11:39:06Z</time>
      </trkpt>
      <trkpt lat="41.9376480" lon="-5.5401280">
        <ele>739.5</ele>
        <time>2019-08-15T11:39:07Z</time>
      </trkpt>
      <trkpt lat="41.9376810" lon="-5.5401850">
        <ele>739.5</ele>
        <time>2019-08-15T11:39:08Z</time>
      </trkpt>
      <trkpt lat="41.9377170" lon="-5.5402420">
        <ele>739.5</ele>
        <time>2019-08-15T11:39:09Z</time>
      </trkpt>
      <trkpt lat="41.9377520" lon="-5.5402990">
        <ele>739.4</ele>
        <time>2019-08-15T11:39:10Z</time>
      </trkpt>
      <trkpt lat="41.9377880" lon="-5.5403550">
        <ele>739.4</ele>
        <time>2019-08-15T11:39:11Z</time>
      </trkpt>
      <trkpt lat="41.9378240" lon="-5.5404110">
        <ele>739.4</ele>
        <time>2019-08-15T11:39:12Z</time>
      </trkpt>
      <trkpt lat="41.9378610" lon="-5.5404690">
        <ele>739.3</ele>
        <time>2019-08-15T11:39:13Z</time>
      </trkpt>
      <trkpt lat="41.9378980" lon="-5.5405270">
        <ele>739.2</ele>
        <time>2019-08-15T11:39:14Z</time>
      </trkpt>
      <trkpt lat="41.9379360" lon="-5.5405840">
        <ele>739.1</ele>
        <time>2019-08-15T11:39:15Z</time>
      </trkpt>
      <trkpt lat="41.9379720" lon="-5.5406420">
        <ele>739.0</ele>
        <time>2019-08-15T11:39:16Z</time>
      </trkpt>
      <trkpt lat="41.9380090" lon="-5.5406980">
        <ele>738.9</ele>
        <time>2019-08-15T11:39:17Z</time>
      </trkpt>
      <trkpt lat="41.9380440" lon="-5.5407540">
        <ele>738.8</ele>
        <time>2019-08-15T11:39:18Z</time>
      </trkpt>
      <trkpt lat="41.9380790" lon="-5.5408090">
        <ele>738.7</ele>
        <time>2019-08-15T11:39:19Z</time>
      </trkpt>
      <trkpt lat="41.9381140" lon="-5.5408650">
        <ele>738.6</ele>
        <time>2019-08-15T11:39:20Z</time>
      </trkpt>
      <trkpt lat="41.9381500" lon="-5.5409210">
        <ele>738.4</ele>
        <time>2019-08-15T11:39:21Z</time>
      </trkpt>
      <trkpt lat="41.9381870" lon="-5.5409790">
        <ele>738.3</ele>
        <time>2019-08-15T11:39:22Z</time>
      </trkpt>
      <trkpt lat="41.9382240" lon="-5.5410380">
        <ele>738.1</ele>
        <time>2019-08-15T11:39:23Z</time>
      </trkpt>
      <trkpt lat="41.9382610" lon="-5.5410940">
        <ele>738.0</ele>
        <time>2019-08-15T11:39:24Z</time>
      </trkpt>
      <trkpt lat="41.9382980" lon="-5.5411530">
        <ele>737.8</ele>
        <time>2019-08-15T11:39:25Z</time>
      </trkpt>
      <trkpt lat="41.9383360" lon="-5.5412120">
        <ele>737.6</ele>
        <time>2019-08-15T11:39:26Z</time>
      </trkpt>
      <trkpt lat="41.9383720" lon="-5.5412690">
        <ele>737.3</ele>
        <time>2019-08-15T11:39:27Z</time>
      </trkpt>
      <trkpt lat="41.9384080" lon="-5.5413240">
        <ele>737.2</ele>
        <time>2019-08-15T11:39:28Z</time>
      </trkpt>
      <trkpt lat="41.9384430" lon="-5.5413770">
        <ele>737.0</ele>
        <time>2019-08-15T11:39:29Z</time>
      </trkpt>
      <trkpt lat="41.9384780" lon="-5.5414330">
        <ele>736.9</ele>
        <time>2019-08-15T11:39:30Z</time>
      </trkpt>
      <trkpt lat="41.9385150" lon="-5.5414890">
        <ele>736.7</ele>
        <time>2019-08-15T11:39:31Z</time>
      </trkpt>
      <trkpt lat="41.9385520" lon="-5.5415470">
        <ele>736.6</ele>
        <time>2019-08-15T11:39:32Z</time>
      </trkpt>
      <trkpt lat="41.9385910" lon="-5.5416080">
        <ele>736.5</ele>
        <time>2019-08-15T11:39:33Z</time>
      </trkpt>
      <trkpt lat="41.9386310" lon="-5.5416680">
        <ele>736.4</ele>
        <time>2019-08-15T11:39:34Z</time>
      </trkpt>
      <trkpt lat="41.9386720" lon="-5.5417240">
        <ele>736.3</ele>
        <time>2019-08-15T11:39:35Z</time>
      </trkpt>
      <trkpt lat="41.9387110" lon="-5.5417790">
        <ele>736.3</ele>
        <time>2019-08-15T11:39:36Z</time>
      </trkpt>
      <trkpt lat="41.9387470" lon="-5.5418340">
        <ele>736.3</ele>
        <time>2019-08-15T11:39:37Z</time>
      </trkpt>
      <trkpt lat="41.9387810" lon="-5.5418880">
        <ele>736.3</ele>
        <time>2019-08-15T11:39:38Z</time>
      </trkpt>
      <trkpt lat="41.9388140" lon="-5.5419390">
        <ele>736.3</ele>
        <time>2019-08-15T11:39:39Z</time>
      </trkpt>
      <trkpt lat="41.9388460" lon="-5.5419890">
        <ele>736.3</ele>
        <time>2019-08-15T11:39:40Z</time>
      </trkpt>
      <trkpt lat="41.9388780" lon="-5.5420410">
        <ele>736.3</ele>
        <time>2019-08-15T11:39:41Z</time>
      </trkpt>
      <trkpt lat="41.9389100" lon="-5.5420900">
        <ele>736.4</ele>
        <time>2019-08-15T11:39:42Z</time>
      </trkpt>
      <trkpt lat="41.9389410" lon="-5.5421390">
        <ele>736.5</ele>
        <time>2019-08-15T11:39:43Z</time>
      </trkpt>
      <trkpt lat="41.9389710" lon="-5.5421860">
        <ele>736.5</ele>
        <time>2019-08-15T11:39:44Z</time>
      </trkpt>
      <trkpt lat="41.9390030" lon="-5.5422310">
        <ele>736.6</ele>
        <time>2019-08-15T11:39:45Z</time>
      </trkpt>
      <trkpt lat="41.9390350" lon="-5.5422790">
        <ele>736.6</ele>
        <time>2019-08-15T11:39:46Z</time>
      </trkpt>
      <trkpt lat="41.9390670" lon="-5.5423280">
        <ele>736.6</ele>
        <time>2019-08-15T11:39:47Z</time>
      </trkpt>
      <trkpt lat="41.9390980" lon="-5.5423780">
        <ele>736.7</ele>
        <time>2019-08-15T11:39:48Z</time>
      </trkpt>
      <trkpt lat="41.9391290" lon="-5.5424290">
        <ele>736.7</ele>
        <time>2019-08-15T11:39:49Z</time>
      </trkpt>
      <trkpt lat="41.9391590" lon="-5.5424800">
        <ele>736.8</ele>
        <time>2019-08-15T11:39:50Z</time>
      </trkpt>
      <trkpt lat="41.9391900" lon="-5.5425310">
        <ele>736.8</ele>
        <time>2019-08-15T11:39:51Z</time>
      </trkpt>
      <trkpt lat="41.9392220" lon="-5.5425800">
        <ele>736.9</ele>
        <time>2019-08-15T11:39:52Z</time>
      </trkpt>
      <trkpt lat="41.9392550" lon="-5.5426280">
        <ele>736.9</ele>
        <time>2019-08-15T11:39:53Z</time>
      </trkpt>
      <trkpt lat="41.9392840" lon="-5.5426740">
        <ele>737.0</ele>
        <time>2019-08-15T11:39:54Z</time>
      </trkpt>
      <trkpt lat="41.9393130" lon="-5.5427170">
        <ele>737.0</ele>
        <time>2019-08-15T11:39:55Z</time>
      </trkpt>
      <trkpt lat="41.9393400" lon="-5.5427600">
        <ele>737.0</ele>
        <time>2019-08-15T11:39:56Z</time>
      </trkpt>
      <trkpt lat="41.9393660" lon="-5.5428030">
        <ele>737.1</ele>
        <time>2019-08-15T11:39:57Z</time>
      </trkpt>
      <trkpt lat="41.9393930" lon="-5.5428460">
        <ele>737.1</ele>
        <time>2019-08-15T11:39:58Z</time>
      </trkpt>
      <trkpt lat="41.9394200" lon="-5.5428890">
        <ele>737.2</ele>
        <time>2019-08-15T11:39:59Z</time>
      </trkpt>
      <trkpt lat="41.9394470" lon="-5.5429310">
        <ele>737.3</ele>
        <time>2019-08-15T11:40:00Z</time>
      </trkpt>
      <trkpt lat="41.9394750" lon="-5.5429720">
        <ele>737.4</ele>
        <time>2019-08-15T11:40:01Z</time>
      </trkpt>
      <trkpt lat="41.9395010" lon="-5.5430150">
        <ele>737.6</ele>
        <time>2019-08-15T11:40:02Z</time>
      </trkpt>
      <trkpt lat="41.9395270" lon="-5.5430580">
        <ele>737.6</ele>
        <time>2019-08-15T11:40:03Z</time>
      </trkpt>
      <trkpt lat="41.9395520" lon="-5.5430990">
        <ele>737.7</ele>
        <time>2019-08-15T11:40:04Z</time>
      </trkpt>
      <trkpt lat="41.9395760" lon="-5.5431380">
        <ele>737.7</ele>
        <time>2019-08-15T11:40:05Z</time>
      </trkpt>
      <trkpt lat="41.9396010" lon="-5.5431760">
        <ele>737.8</ele>
        <time>2019-08-15T11:40:06Z</time>
      </trkpt>
      <trkpt lat="41.9396250" lon="-5.5432150">
        <ele>737.9</ele>
        <time>2019-08-15T11:40:07Z</time>
      </trkpt>
      <trkpt lat="41.9396500" lon="-5.5432510">
        <ele>737.9</ele>
        <time>2019-08-15T11:40:08Z</time>
      </trkpt>
      <trkpt lat="41.9396740" lon="-5.5432880">
        <ele>738.0</ele>
        <time>2019-08-15T11:40:09Z</time>
      </trkpt>
      <trkpt lat="41.9396980" lon="-5.5433240">
        <ele>738.1</ele>
        <time>2019-08-15T11:40:10Z</time>
      </trkpt>
      <trkpt lat="41.9397220" lon="-5.5433610">
        <ele>738.2</ele>
        <time>2019-08-15T11:40:11Z</time>
      </trkpt>
      <trkpt lat="41.9397440" lon="-5.5433960">
        <ele>738.3</ele>
        <time>2019-08-15T11:40:12Z</time>
      </trkpt>
      <trkpt lat="41.9397670" lon="-5.5434310">
        <ele>738.3</ele>
        <time>2019-08-15T11:40:13Z</time>
      </trkpt>
      <trkpt lat="41.9397890" lon="-5.5434660">
        <ele>738.4</ele>
        <time>2019-08-15T11:40:14Z</time>
      </trkpt>
      <trkpt lat="41.9398100" lon="-5.5434990">
        <ele>738.5</ele>
        <time>2019-08-15T11:40:15Z</time>
      </trkpt>
      <trkpt lat="41.9398310" lon="-5.5435320">
        <ele>738.5</ele>
        <time>2019-08-15T11:40:16Z</time>
      </trkpt>
      <trkpt lat="41.9398520" lon="-5.5435650">
        <ele>738.5</ele>
        <time>2019-08-15T11:40:17Z</time>
      </trkpt>
      <trkpt lat="41.9398730" lon="-5.5435970">
        <ele>738.6</ele>
        <time>2019-08-15T11:40:18Z</time>
      </trkpt>
      <trkpt lat="41.9398950" lon="-5.5436300">
        <ele>738.7</ele>
        <time>2019-08-15T11:40:19Z</time>
      </trkpt>
      <trkpt lat="41.9399160" lon="-5.5436640">
        <ele>738.7</ele>
        <time>2019-08-15T11:40:20Z</time>
      </trkpt>
      <trkpt lat="41.9399370" lon="-5.5436970">
        <ele>738.8</ele>
        <time>2019-08-15T11:40:21Z</time>
      </trkpt>
      <trkpt lat="41.9399580" lon="-5.5437290">
        <ele>738.8</ele>
        <time>2019-08-15T11:40:22Z</time>
      </trkpt>
      <trkpt lat="41.9399800" lon="-5.5437640">
        <ele>738.9</ele>
        <time>2019-08-15T11:40:23Z</time>
      </trkpt>
      <trkpt lat="41.9400020" lon="-5.5437970">
        <ele>738.9</ele>
        <time>2019-08-15T11:40:24Z</time>
      </trkpt>
      <trkpt lat="41.9400240" lon="-5.5438310">
        <ele>739.0</ele>
        <time>2019-08-15T11:40:25Z</time>
      </trkpt>
      <trkpt lat="41.9400470" lon="-5.5438650">
        <ele>739.1</ele>
        <time>2019-08-15T11:40:26Z</time>
      </trkpt>
      <trkpt lat="41.9400710" lon="-5.5438990">
        <ele>739.1</ele>
        <time>2019-08-15T11:40:27Z</time>
      </trkpt>
      <trkpt lat="41.9400940" lon="-5.5439340">
        <ele>739.2</ele>
        <time>2019-08-15T11:40:28Z</time>
      </trkpt>
      <trkpt lat="41.9401160" lon="-5.5439700">
        <ele>739.2</ele>
        <time>2019-08-15T11:40:29Z</time>
      </trkpt>
      <trkpt lat="41.9401380" lon="-5.5440060">
        <ele>739.2</ele>
        <time>2019-08-15T11:40:30Z</time>
      </trkpt>
      <trkpt lat="41.9401630" lon="-5.5440420">
        <ele>739.2</ele>
        <time>2019-08-15T11:40:31Z</time>
      </trkpt>
      <trkpt lat="41.9401880" lon="-5.5440770">
        <ele>739.3</ele>
        <time>2019-08-15T11:40:32Z</time>
      </trkpt>
      <trkpt lat="41.9402140" lon="-5.5441150">
        <ele>739.3</ele>
        <time>2019-08-15T11:40:33Z</time>
      </trkpt>
      <trkpt lat="41.9402410" lon="-5.5441550">
        <ele>739.4</ele>
        <time>2019-08-15T11:40:34Z</time>
      </trkpt>
      <trkpt lat="41.9402670" lon="-5.5441980">
        <ele>739.4</ele>
        <time>2019-08-15T11:40:35Z</time>
      </trkpt>
      <trkpt lat="41.9402960" lon="-5.5442430">
        <ele>739.4</ele>
        <time>2019-08-15T11:40:36Z</time>
      </trkpt>
      <trkpt lat="41.9403240" lon="-5.5442890">
        <ele>739.5</ele>
        <time>2019-08-15T11:40:37Z</time>
      </trkpt>
      <trkpt lat="41.9403530" lon="-5.5443340">
        <ele>739.4</ele>
        <time>2019-08-15T11:40:38Z</time>
      </trkpt>
      <trkpt lat="41.9403820" lon="-5.5443770">
        <ele>739.4</ele>
        <time>2019-08-15T11:40:39Z</time>
      </trkpt>
      <trkpt lat="41.9404110" lon="-5.5444220">
        <ele>739.3</ele>
        <time>2019-08-15T11:40:40Z</time>
      </trkpt>
      <trkpt lat="41.9404390" lon="-5.5444670">
        <ele>739.3</ele>
        <time>2019-08-15T11:40:41Z</time>
      </trkpt>
      <trkpt lat="41.9404680" lon="-5.5445120">
        <ele>739.3</ele>
        <time>2019-08-15T11:40:42Z</time>
      </trkpt>
      <trkpt lat="41.9404970" lon="-5.5445590">
        <ele>739.2</ele>
        <time>2019-08-15T11:40:43Z</time>
      </trkpt>
      <trkpt lat="41.9405270" lon="-5.5446090">
        <ele>739.2</ele>
        <time>2019-08-15T11:40:44Z</time>
      </trkpt>
      <trkpt lat="41.9405580" lon="-5.5446570">
        <ele>739.2</ele>
        <time>2019-08-15T11:40:45Z</time>
      </trkpt>
      <trkpt lat="41.9405900" lon="-5.5447060">
        <ele>739.2</ele>
        <time>2019-08-15T11:40:46Z</time>
      </trkpt>
      <trkpt lat="41.9406220" lon="-5.5447560">
        <ele>739.2</ele>
        <time>2019-08-15T11:40:47Z</time>
      </trkpt>
      <trkpt lat="41.9406560" lon="-5.5448060">
        <ele>739.2</ele>
        <time>2019-08-15T11:40:48Z</time>
      </trkpt>
      <trkpt lat="41.9406900" lon="-5.5448590">
        <ele>739.1</ele>
        <time>2019-08-15T11:40:49Z</time>
      </trkpt>
      <trkpt lat="41.9407230" lon="-5.5449130">
        <ele>739.0</ele>
        <time>2019-08-15T11:40:50Z</time>
      </trkpt>
      <trkpt lat="41.9407590" lon="-5.5449670">
        <ele>738.9</ele>
        <time>2019-08-15T11:40:51Z</time>
      </trkpt>
      <trkpt lat="41.9407950" lon="-5.5450230">
        <ele>738.8</ele>
        <time>2019-08-15T11:40:52Z</time>
      </trkpt>
      <trkpt lat="41.9408310" lon="-5.5450830">
        <ele>738.8</ele>
        <time>2019-08-15T11:40:53Z</time>
      </trkpt>
      <trkpt lat="41.9408670" lon="-5.5451430">
        <ele>738.6</ele>
        <time>2019-08-15T11:40:54Z</time>
      </trkpt>
      <trkpt lat="41.9409040" lon="-5.5452010">
        <ele>738.5</ele>
        <time>2019-08-15T11:40:55Z</time>
      </trkpt>
      <trkpt lat="41.9409370" lon="-5.5452600">
        <ele>738.4</ele>
        <time>2019-08-15T11:40:56Z</time>
      </trkpt>
      <trkpt lat="41.9409650" lon="-5.5453180">
        <ele>738.4</ele>
        <time>2019-08-15T11:40:57Z</time>
      </trkpt>
      <trkpt lat="41.9409890" lon="-5.5453740">
        <ele>738.4</ele>
        <time>2019-08-15T11:40:58Z</time>
      </trkpt>
      <trkpt lat="41.9410080" lon="-5.5454240">
        <ele>738.4</ele>
        <time>2019-08-15T11:40:59Z</time>
      </trkpt>
      <trkpt lat="41.9410230" lon="-5.5454680">
        <ele>738.3</ele>
        <time>2019-08-15T11:41:00Z</time>
      </trkpt>
      <trkpt lat="41.9410360" lon="-5.5455080">
        <ele>738.3</ele>
        <time>2019-08-15T11:41:01Z</time>
      </trkpt>
      <trkpt lat="41.9410470" lon="-5.5455470">
        <ele>738.4</ele>
        <time>2019-08-15T11:41:02Z</time>
      </trkpt>
      <trkpt lat="41.9410520" lon="-5.5455910">
        <ele>738.4</ele>
        <time>2019-08-15T11:41:03Z</time>
      </trkpt>
      <trkpt lat="41.9410490" lon="-5.5456350">
        <ele>738.4</ele>
        <time>2019-08-15T11:41:04Z</time>
      </trkpt>
      <trkpt lat="41.9410390" lon="-5.5456810">
        <ele>738.4</ele>
        <time>2019-08-15T11:41:05Z</time>
      </trkpt>
      <trkpt lat="41.9410200" lon="-5.5457260">
        <ele>738.2</ele>
        <time>2019-08-15T11:41:06Z</time>
      </trkpt>
      <trkpt lat="41.9409940" lon="-5.5457690">
        <ele>738.1</ele>
        <time>2019-08-15T11:41:07Z</time>
      </trkpt>
      <trkpt lat="41.9409650" lon="-5.5458130">
        <ele>737.9</ele>
        <time>2019-08-15T11:41:08Z</time>
      </trkpt>
      <trkpt lat="41.9409340" lon="-5.5458550">
        <ele>737.8</ele>
        <time>2019-08-15T11:41:09Z</time>
      </trkpt>
      <trkpt lat="41.9409020" lon="-5.5458970">
        <ele>737.7</ele>
        <time>2019-08-15T11:41:10Z</time>
      </trkpt>
      <trkpt lat="41.9408710" lon="-5.5459390">
        <ele>737.6</ele>
        <time>2019-08-15T11:41:11Z</time>
      </trkpt>
      <trkpt lat="41.9408390" lon="-5.5459810">
        <ele>737.5</ele>
        <time>2019-08-15T11:41:12Z</time>
      </trkpt>
      <trkpt lat="41.9408090" lon="-5.5460240">
        <ele>737.4</ele>
        <time>2019-08-15T11:41:13Z</time>
      </trkpt>
      <trkpt lat="41.9407800" lon="-5.5460670">
        <ele>737.3</ele>
        <time>2019-08-15T11:41:14Z</time>
      </trkpt>
      <trkpt lat="41.9407510" lon="-5.5461110">
        <ele>737.2</ele>
        <time>2019-08-15T11:41:15Z</time>
      </trkpt>
      <trkpt lat="41.9407240" lon="-5.5461550">
        <ele>737.2</ele>
        <time>2019-08-15T11:41:16Z</time>
      </trkpt>
      <trkpt lat="41.9406960" lon="-5.5462000">
        <ele>737.1</ele>
        <time>2019-08-15T11:41:17Z</time>
      </trkpt>
      <trkpt lat="41.9406680" lon="-5.5462440">
        <ele>737.1</ele>
        <time>2019-08-15T11:41:18Z</time>
      </trkpt>
      <trkpt lat="41.9406410" lon="-5.5462880">
        <ele>737.0</ele>
        <time>2019-08-15T11:41:19Z</time>
      </trkpt>
      <trkpt lat="41.9406150" lon="-5.5463330">
        <ele>737.0</ele>
        <time>2019-08-15T11:41:20Z</time>
      </trkpt>
      <trkpt lat="41.9405890" lon="-5.5463780">
        <ele>737.0</ele>
        <time>2019-08-15T11:41:21Z</time>
      </trkpt>
      <trkpt lat="41.9405640" lon="-5.5464220">
        <ele>737.0</ele>
        <time>2019-08-15T11:41:22Z</time>
      </trkpt>
      <trkpt lat="41.9405390" lon="-5.5464680">
        <ele>736.9</ele>
        <time>2019-08-15T11:41:23Z</time>
      </trkpt>
      <trkpt lat="41.9405140" lon="-5.5465140">
        <ele>736.9</ele>
        <time>2019-08-15T11:41:24Z</time>
      </trkpt>
      <trkpt lat="41.9404890" lon="-5.5465600">
        <ele>736.9</ele>
        <time>2019-08-15T11:41:25Z</time>
      </trkpt>
      <trkpt lat="41.9404640" lon="-5.5466060">
        <ele>736.9</ele>
        <time>2019-08-15T11:41:26Z</time>
      </trkpt>
      <trkpt lat="41.9404380" lon="-5.5466500">
        <ele>736.9</ele>
        <time>2019-08-15T11:41:27Z</time>
      </trkpt>
      <trkpt lat="41.9404120" lon="-5.5466970">
        <ele>736.9</ele>
        <time>2019-08-15T11:41:28Z</time>
      </trkpt>
      <trkpt lat="41.9403840" lon="-5.5467430">
        <ele>736.9</ele>
        <time>2019-08-15T11:41:29Z</time>
      </trkpt>
      <trkpt lat="41.9403550" lon="-5.5467900">
        <ele>736.9</ele>
        <time>2019-08-15T11:41:30Z</time>
      </trkpt>
      <trkpt lat="41.9403260" lon="-5.5468380">
        <ele>736.9</ele>
        <time>2019-08-15T11:41:31Z</time>
      </trkpt>
      <trkpt lat="41.9402970" lon="-5.5468890">
        <ele>736.9</ele>
        <time>2019-08-15T11:41:32Z</time>
      </trkpt>
      <trkpt lat="41.9402680" lon="-5.5469450">
        <ele>736.9</ele>
        <time>2019-08-15T11:41:33Z</time>
      </trkpt>
      <trkpt lat="41.9402390" lon="-5.5470010">
        <ele>736.9</ele>
        <time>2019-08-15T11:41:34Z</time>
      </trkpt>
      <trkpt lat="41.9402080" lon="-5.5470590">
        <ele>736.8</ele>
        <time>2019-08-15T11:41:35Z</time>
      </trkpt>
      <trkpt lat="41.9401770" lon="-5.5471180">
        <ele>736.8</ele>
        <time>2019-08-15T11:41:36Z</time>
      </trkpt>
      <trkpt lat="41.9401440" lon="-5.5471780">
        <ele>736.8</ele>
        <time>2019-08-15T11:41:37Z</time>
      </trkpt>
      <trkpt lat="41.9401080" lon="-5.5472390">
        <ele>736.7</ele>
        <time>2019-08-15T11:41:38Z</time>
      </trkpt>
      <trkpt lat="41.9400750" lon="-5.5472990">
        <ele>736.6</ele>
        <time>2019-08-15T11:41:39Z</time>
      </trkpt>
      <trkpt lat="41.9400420" lon="-5.5473570">
        <ele>736.5</ele>
        <time>2019-08-15T11:41:40Z</time>
      </trkpt>
      <trkpt lat="41.9400090" lon="-5.5474150">
        <ele>736.5</ele>
        <time>2019-08-15T11:41:41Z</time>
      </trkpt>
      <trkpt lat="41.9399760" lon="-5.5474700">
        <ele>736.4</ele>
        <time>2019-08-15T11:41:42Z</time>
      </trkpt>
      <trkpt lat="41.9399460" lon="-5.5475250">
        <ele>736.3</ele>
        <time>2019-08-15T11:41:43Z</time>
      </trkpt>
      <trkpt lat="41.9399170" lon="-5.5475810">
        <ele>736.3</ele>
        <time>2019-08-15T11:41:44Z</time>
      </trkpt>
      <trkpt lat="41.9398870" lon="-5.5476350">
        <ele>736.2</ele>
        <time>2019-08-15T11:41:45Z</time>
      </trkpt>
      <trkpt lat="41.9398550" lon="-5.5476860">
        <ele>736.1</ele>
        <time>2019-08-15T11:41:46Z</time>
      </trkpt>
      <trkpt lat="41.9398210" lon="-5.5477340">
        <ele>736.1</ele>
        <time>2019-08-15T11:41:47Z</time>
      </trkpt>
      <trkpt lat="41.9397860" lon="-5.5477780">
        <ele>736.1</ele>
        <time>2019-08-15T11:41:48Z</time>
      </trkpt>
      <trkpt lat="41.9397500" lon="-5.5478190">
        <ele>736.1</ele>
        <time>2019-08-15T11:41:49Z</time>
      </trkpt>
      <trkpt lat="41.9397130" lon="-5.5478580">
        <ele>736.1</ele>
        <time>2019-08-15T11:41:50Z</time>
      </trkpt>
      <trkpt lat="41.9396760" lon="-5.5478960">
        <ele>736.1</ele>
        <time>2019-08-15T11:41:51Z</time>
      </trkpt>
      <trkpt lat="41.9396400" lon="-5.5479320">
        <ele>736.1</ele>
        <time>2019-08-15T11:41:52Z</time>
      </trkpt>
      <trkpt lat="41.9396060" lon="-5.5479670">
        <ele>736.1</ele>
        <time>2019-08-15T11:41:53Z</time>
      </trkpt>
      <trkpt lat="41.9395720" lon="-5.5480010">
        <ele>736.2</ele>
        <time>2019-08-15T11:41:54Z</time>
      </trkpt>
      <trkpt lat="41.9395400" lon="-5.5480360">
        <ele>736.2</ele>
        <time>2019-08-15T11:41:55Z</time>
      </trkpt>
      <trkpt lat="41.9395080" lon="-5.5480690">
        <ele>736.2</ele>
        <time>2019-08-15T11:41:56Z</time>
      </trkpt>
      <trkpt lat="41.9394770" lon="-5.5481020">
        <ele>736.3</ele>
        <time>2019-08-15T11:41:57Z</time>
      </trkpt>
      <trkpt lat="41.9394470" lon="-5.5481320">
        <ele>736.3</ele>
        <time>2019-08-15T11:41:58Z</time>
      </trkpt>
      <trkpt lat="41.9394170" lon="-5.5481610">
        <ele>736.3</ele>
        <time>2019-08-15T11:41:59Z</time>
      </trkpt>
      <trkpt lat="41.9393880" lon="-5.5481870">
        <ele>736.4</ele>
        <time>2019-08-15T11:42:00Z</time>
      </trkpt>
      <trkpt lat="41.9393600" lon="-5.5482080">
        <ele>736.4</ele>
        <time>2019-08-15T11:42:01Z</time>
      </trkpt>
      <trkpt lat="41.9393340" lon="-5.5482220">
        <ele>736.4</ele>
        <time>2019-08-15T11:42:02Z</time>
      </trkpt>
      <trkpt lat="41.9393100" lon="-5.5482290">
        <ele>736.4</ele>
        <time>2019-08-15T11:42:03Z</time>
      </trkpt>
      <trkpt lat="41.9392670" lon="-5.5482290">
        <ele>736.4</ele>
        <time>2019-08-15T11:42:05Z</time>
      </trkpt>
      <trkpt lat="41.9392400" lon="-5.5482180">
        <ele>736.4</ele>
        <time>2019-08-15T11:42:07Z</time>
      </trkpt>
      <trkpt lat="41.9392560" lon="-5.5481930">
        <ele>736.3</ele>
        <time>2019-08-15T11:42:12Z</time>
      </trkpt>
      <trkpt lat="41.9392910" lon="-5.5481960">
        <ele>736.3</ele>
        <time>2019-08-15T11:42:14Z</time>
      </trkpt>
      <trkpt lat="41.9393350" lon="-5.5482070">
        <ele>736.3</ele>
        <time>2019-08-15T11:42:16Z</time>
      </trkpt>
      <trkpt lat="41.9393780" lon="-5.5481950">
        <ele>736.3</ele>
        <time>2019-08-15T11:42:18Z</time>
      </trkpt>
      <trkpt lat="41.9394210" lon="-5.5481590">
        <ele>736.3</ele>
        <time>2019-08-15T11:42:20Z</time>
      </trkpt>
      <trkpt lat="41.9394660" lon="-5.5481110">
        <ele>736.2</ele>
        <time>2019-08-15T11:42:22Z</time>
      </trkpt>
      <trkpt lat="41.9394910" lon="-5.5480840">
        <ele>736.2</ele>
        <time>2019-08-15T11:42:23Z</time>
      </trkpt>
      <trkpt lat="41.9395170" lon="-5.5480570">
        <ele>736.2</ele>
        <time>2019-08-15T11:42:24Z</time>
      </trkpt>
      <trkpt lat="41.9395470" lon="-5.5480360">
        <ele>736.2</ele>
        <time>2019-08-15T11:42:25Z</time>
      </trkpt>
      <trkpt lat="41.9395820" lon="-5.5480280">
        <ele>736.2</ele>
        <time>2019-08-15T11:42:26Z</time>
      </trkpt>
      <trkpt lat="41.9396160" lon="-5.5480350">
        <ele>736.1</ele>
        <time>2019-08-15T11:42:27Z</time>
      </trkpt>
      <trkpt lat="41.9396470" lon="-5.5480530">
        <ele>736.1</ele>
        <time>2019-08-15T11:42:28Z</time>
      </trkpt>
      <trkpt lat="41.9396740" lon="-5.5480810">
        <ele>736.1</ele>
        <time>2019-08-15T11:42:29Z</time>
      </trkpt>
      <trkpt lat="41.9396980" lon="-5.5481160">
        <ele>736.1</ele>
        <time>2019-08-15T11:42:30Z</time>
      </trkpt>
      <trkpt lat="41.9397220" lon="-5.5481510">
        <ele>736.1</ele>
        <time>2019-08-15T11:42:31Z</time>
      </trkpt>
      <trkpt lat="41.9397470" lon="-5.5481870">
        <ele>736.1</ele>
        <time>2019-08-15T11:42:32Z</time>
      </trkpt>
      <trkpt lat="41.9397690" lon="-5.5482280">
        <ele>736.1</ele>
        <time>2019-08-15T11:42:33Z</time>
      </trkpt>
      <trkpt lat="41.9397860" lon="-5.5482730">
        <ele>736.2</ele>
        <time>2019-08-15T11:42:34Z</time>
      </trkpt>
      <trkpt lat="41.9397990" lon="-5.5483220">
        <ele>736.2</ele>
        <time>2019-08-15T11:42:35Z</time>
      </trkpt>
      <trkpt lat="41.9398100" lon="-5.5483720">
        <ele>736.2</ele>
        <time>2019-08-15T11:42:36Z</time>
      </trkpt>
      <trkpt lat="41.9398160" lon="-5.5484230">
        <ele>736.3</ele>
        <time>2019-08-15T11:42:37Z</time>
      </trkpt>
      <trkpt lat="41.9398160" lon="-5.5484760">
        <ele>736.3</ele>
        <time>2019-08-15T11:42:38Z</time>
      </trkpt>
      <trkpt lat="41.9398110" lon="-5.5485270">
        <ele>736.3</ele>
        <time>2019-08-15T11:42:39Z</time>
      </trkpt>
      <trkpt lat="41.9398030" lon="-5.5485770">
        <ele>736.3</ele>
        <time>2019-08-15T11:42:40Z</time>
      </trkpt>
      <trkpt lat="41.9397920" lon="-5.5486240">
        <ele>736.4</ele>
        <time>2019-08-15T11:42:41Z</time>
      </trkpt>
      <trkpt lat="41.9397780" lon="-5.5486720">
        <ele>736.4</ele>
        <time>2019-08-15T11:42:42Z</time>
      </trkpt>
      <trkpt lat="41.9397660" lon="-5.5487220">
        <ele>736.4</ele>
        <time>2019-08-15T11:42:43Z</time>
      </trkpt>
      <trkpt lat="41.9397550" lon="-5.5487720">
        <ele>736.4</ele>
        <time>2019-08-15T11:42:44Z</time>
      </trkpt>
      <trkpt lat="41.9397470" lon="-5.5488230">
        <ele>736.5</ele>
        <time>2019-08-15T11:42:45Z</time>
      </trkpt>
      <trkpt lat="41.9397440" lon="-5.5488750">
        <ele>736.5</ele>
        <time>2019-08-15T11:42:46Z</time>
      </trkpt>
      <trkpt lat="41.9397500" lon="-5.5489230">
        <ele>736.5</ele>
        <time>2019-08-15T11:42:47Z</time>
      </trkpt>
      <trkpt lat="41.9397630" lon="-5.5489680">
        <ele>736.5</ele>
        <time>2019-08-15T11:42:48Z</time>
      </trkpt>
      <trkpt lat="41.9397820" lon="-5.5490090">
        <ele>736.5</ele>
        <time>2019-08-15T11:42:49Z</time>
      </trkpt>
      <trkpt lat="41.9398030" lon="-5.5490470">
        <ele>736.5</ele>
        <time>2019-08-15T11:42:50Z</time>
      </trkpt>
      <trkpt lat="41.9398260" lon="-5.5490850">
        <ele>736.6</ele>
        <time>2019-08-15T11:42:51Z</time>
      </trkpt>
      <trkpt lat="41.9398480" lon="-5.5491230">
        <ele>736.6</ele>
        <time>2019-08-15T11:42:52Z</time>
      </trkpt>
      <trkpt lat="41.9398710" lon="-5.5491600">
        <ele>736.6</ele>
        <time>2019-08-15T11:42:53Z</time>
      </trkpt>
      <trkpt lat="41.9398940" lon="-5.5491980">
        <ele>736.6</ele>
        <time>2019-08-15T11:42:54Z</time>
      </trkpt>
      <trkpt lat="41.9399170" lon="-5.5492340">
        <ele>736.6</ele>
        <time>2019-08-15T11:42:55Z</time>
      </trkpt>
      <trkpt lat="41.9399400" lon="-5.5492710">
        <ele>736.6</ele>
        <time>2019-08-15T11:42:56Z</time>
      </trkpt>
      <trkpt lat="41.9399630" lon="-5.5493080">
        <ele>736.6</ele>
        <time>2019-08-15T11:42:57Z</time>
      </trkpt>
      <trkpt lat="41.9399860" lon="-5.5493460">
        <ele>736.7</ele>
        <time>2019-08-15T11:42:58Z</time>
      </trkpt>
      <trkpt lat="41.9400080" lon="-5.5493820">
        <ele>736.7</ele>
        <time>2019-08-15T11:42:59Z</time>
      </trkpt>
      <trkpt lat="41.9400300" lon="-5.5494190">
        <ele>736.8</ele>
        <time>2019-08-15T11:43:00Z</time>
      </trkpt>
      <trkpt lat="41.9400510" lon="-5.5494550">
        <ele>736.8</ele>
        <time>2019-08-15T11:43:01Z</time>
      </trkpt>
      <trkpt lat="41.9400730" lon="-5.5494900">
        <ele>736.9</ele>
        <time>2019-08-15T11:43:02Z</time>
      </trkpt>
      <trkpt lat="41.9400940" lon="-5.5495250">
        <ele>737.0</ele>
        <time>2019-08-15T11:43:03Z</time>
      </trkpt>
      <trkpt lat="41.9401150" lon="-5.5495590">
        <ele>737.1</ele>
        <time>2019-08-15T11:43:04Z</time>
      </trkpt>
      <trkpt lat="41.9401350" lon="-5.5495930">
        <ele>737.1</ele>
        <time>2019-08-15T11:43:05Z</time>
      </trkpt>
      <trkpt lat="41.9401560" lon="-5.5496270">
        <ele>737.2</ele>
        <time>2019-08-15T11:43:06Z</time>
      </trkpt>
      <trkpt lat="41.9401760" lon="-5.5496620">
        <ele>737.3</ele>
        <time>2019-08-15T11:43:07Z</time>
      </trkpt>
      <trkpt lat="41.9401970" lon="-5.5496970">
        <ele>737.4</ele>
        <time>2019-08-15T11:43:08Z</time>
      </trkpt>
      <trkpt lat="41.9402180" lon="-5.5497320">
        <ele>737.5</ele>
        <time>2019-08-15T11:43:09Z</time>
      </trkpt>
      <trkpt lat="41.9402400" lon="-5.5497660">
        <ele>737.7</ele>
        <time>2019-08-15T11:43:10Z</time>
      </trkpt>
      <trkpt lat="41.9402610" lon="-5.5498000">
        <ele>737.8</ele>
        <time>2019-08-15T11:43:11Z</time>
      </trkpt>
      <trkpt lat="41.9402820" lon="-5.5498340">
        <ele>737.9</ele>
        <time>2019-08-15T11:43:12Z</time>
      </trkpt>
      <trkpt lat="41.9403030" lon="-5.5498690">
        <ele>737.9</ele>
        <time>2019-08-15T11:43:13Z</time>
      </trkpt>
      <trkpt lat="41.9403240" lon="-5.5499050">
        <ele>738.0</ele>
        <time>2019-08-15T11:43:14Z</time>
      </trkpt>
      <trkpt lat="41.9403440" lon="-5.5499400">
        <ele>738.1</ele>
        <time>2019-08-15T11:43:15Z</time>
      </trkpt>
      <trkpt lat="41.9403650" lon="-5.5499760">
        <ele>738.3</ele>
        <time>2019-08-15T11:43:16Z</time>
      </trkpt>
      <trkpt lat="41.9403870" lon="-5.5500110">
        <ele>738.4</ele>
        <time>2019-08-15T11:43:17Z</time>
      </trkpt>
      <trkpt lat="41.9404090" lon="-5.5500450">
        <ele>738.5</ele>
        <time>2019-08-15T11:43:18Z</time>
      </trkpt>
      <trkpt lat="41.9404310" lon="-5.5500810">
        <ele>738.6</ele>
        <time>2019-08-15T11:43:19Z</time>
      </trkpt>
      <trkpt lat="41.9404530" lon="-5.5501160">
        <ele>738.7</ele>
        <time>2019-08-15T11:43:20Z</time>
      </trkpt>
      <trkpt lat="41.9404740" lon="-5.5501510">
        <ele>738.8</ele>
        <time>2019-08-15T11:43:21Z</time>
      </trkpt>
      <trkpt lat="41.9404950" lon="-5.5501880">
        <ele>738.8</ele>
        <time>2019-08-15T11:43:22Z</time>
      </trkpt>
      <trkpt lat="41.9405170" lon="-5.5502260">
        <ele>738.9</ele>
        <time>2019-08-15T11:43:23Z</time>
      </trkpt>
      <trkpt lat="41.9405400" lon="-5.5502610">
        <ele>739.0</ele>
        <time>2019-08-15T11:43:24Z</time>
      </trkpt>
      <trkpt lat="41.9405630" lon="-5.5502970">
        <ele>739.1</ele>
        <time>2019-08-15T11:43:25Z</time>
      </trkpt>
      <trkpt lat="41.9405870" lon="-5.5503310">
        <ele>739.1</ele>
        <time>2019-08-15T11:43:26Z</time>
      </trkpt>
      <trkpt lat="41.9406100" lon="-5.5503650">
        <ele>739.2</ele>
        <time>2019-08-15T11:43:27Z</time>
      </trkpt>
      <trkpt lat="41.9406350" lon="-5.5504000">
        <ele>739.2</ele>
        <time>2019-08-15T11:43:28Z</time>
      </trkpt>
      <trkpt lat="41.9406600" lon="-5.5504350">
        <ele>739.2</ele>
        <time>2019-08-15T11:43:29Z</time>
      </trkpt>
      <trkpt lat="41.9406850" lon="-5.5504730">
        <ele>739.2</ele>
        <time>2019-08-15T11:43:30Z</time>
      </trkpt>
      <trkpt lat="41.9407100" lon="-5.5505110">
        <ele>739.3</ele>
        <time>2019-08-15T11:43:31Z</time>
      </trkpt>
      <trkpt lat="41.9407330" lon="-5.5505470">
        <ele>739.3</ele>
        <time>2019-08-15T11:43:32Z</time>
      </trkpt>
      <trkpt lat="41.9407580" lon="-5.5505840">
        <ele>739.2</ele>
        <time>2019-08-15T11:43:33Z</time>
      </trkpt>
      <trkpt lat="41.9407820" lon="-5.5506220">
        <ele>739.2</ele>
        <time>2019-08-15T11:43:34Z</time>
      </trkpt>
      <trkpt lat="41.9408070" lon="-5.5506630">
        <ele>739.2</ele>
        <time>2019-08-15T11:43:35Z</time>
      </trkpt>
      <trkpt lat="41.9408300" lon="-5.5507080">
        <ele>739.1</ele>
        <time>2019-08-15T11:43:36Z</time>
      </trkpt>
      <trkpt lat="41.9408550" lon="-5.5507550">
        <ele>739.1</ele>
        <time>2019-08-15T11:43:37Z</time>
      </trkpt>
      <trkpt lat="41.9408810" lon="-5.5508020">
        <ele>739.0</ele>
        <time>2019-08-15T11:43:38Z</time>
      </trkpt>
      <trkpt lat="41.9409100" lon="-5.5508500">
        <ele>738.9</ele>
        <time>2019-08-15T11:43:39Z</time>
      </trkpt>
      <trkpt lat="41.9409400" lon="-5.5508990">
        <ele>738.8</ele>
        <time>2019-08-15T11:43:40Z</time>
      </trkpt>
      <trkpt lat="41.9409700" lon="-5.5509500">
        <ele>738.7</ele>
        <time>2019-08-15T11:43:41Z</time>
      </trkpt>
      <trkpt lat="41.9410000" lon="-5.5510030">
        <ele>738.7</ele>
        <time>2019-08-15T11:43:42Z</time>
      </trkpt>
      <trkpt lat="41.9410300" lon="-5.5510570">
        <ele>738.6</ele>
        <time>2019-08-15T11:43:43Z</time>
      </trkpt>
      <trkpt lat="41.9410580" lon="-5.5511130">
        <ele>738.5</ele>
        <time>2019-08-15T11:43:44Z</time>
      </trkpt>
      <trkpt lat="41.9410870" lon="-5.5511660">
        <ele>738.5</ele>
        <time>2019-08-15T11:43:45Z</time>
      </trkpt>
      <trkpt lat="41.9411180" lon="-5.5512180">
        <ele>738.4</ele>
        <time>2019-08-15T11:43:46Z</time>
      </trkpt>
      <trkpt lat="41.9411480" lon="-5.5512710">
        <ele>738.4</ele>
        <time>2019-08-15T11:43:47Z</time>
      </trkpt>
      <trkpt lat="41.9411780" lon="-5.5513240">
        <ele>738.4</ele>
        <time>2019-08-15T11:43:48Z</time>
      </trkpt>
      <trkpt lat="41.9412080" lon="-5.5513750">
        <ele>738.4</ele>
        <time>2019-08-15T11:43:49Z</time>
      </trkpt>
      <trkpt lat="41.9412350" lon="-5.5514270">
        <ele>738.4</ele>
        <time>2019-08-15T11:43:50Z</time>
      </trkpt>
      <trkpt lat="41.9412620" lon="-5.5514780">
        <ele>738.4</ele>
        <time>2019-08-15T11:43:51Z</time>
      </trkpt>
      <trkpt lat="41.9412890" lon="-5.5515290">
        <ele>738.4</ele>
        <time>2019-08-15T11:43:52Z</time>
      </trkpt>
      <trkpt lat="41.9413180" lon="-5.5515780">
        <ele>738.5</ele>
        <time>2019-08-15T11:43:53Z</time>
      </trkpt>
      <trkpt lat="41.9413470" lon="-5.5516280">
        <ele>738.5</ele>
        <time>2019-08-15T11:43:54Z</time>
      </trkpt>
      <trkpt lat="41.9413760" lon="-5.5516780">
        <ele>738.5</ele>
        <time>2019-08-15T11:43:55Z</time>
      </trkpt>
      <trkpt lat="41.9414060" lon="-5.5517280">
        <ele>738.6</ele>
        <time>2019-08-15T11:43:56Z</time>
      </trkpt>
      <trkpt lat="41.9414350" lon="-5.5517780">
        <ele>738.6</ele>
        <time>2019-08-15T11:43:57Z</time>
      </trkpt>
      <trkpt lat="41.9414640" lon="-5.5518270">
        <ele>738.6</ele>
        <time>2019-08-15T11:43:58Z</time>
      </trkpt>
      <trkpt lat="41.9414940" lon="-5.5518770">
        <ele>738.7</ele>
        <time>2019-08-15T11:43:59Z</time>
      </trkpt>
      <trkpt lat="41.9415280" lon="-5.5519190">
        <ele>738.7</ele>
        <time>2019-08-15T11:44:00Z</time>
      </trkpt>
      <trkpt lat="41.9415690" lon="-5.5519500">
        <ele>738.7</ele>
        <time>2019-08-15T11:44:01Z</time>
      </trkpt>
      <trkpt lat="41.9416160" lon="-5.5519640">
        <ele>738.8</ele>
        <time>2019-08-15T11:44:02Z</time>
      </trkpt>
      <trkpt lat="41.9416640" lon="-5.5519600">
        <ele>738.8</ele>
        <time>2019-08-15T11:44:03Z</time>
      </trkpt>
      <trkpt lat="41.9417100" lon="-5.5519410">
        <ele>738.8</ele>
        <time>2019-08-15T11:44:04Z</time>
      </trkpt>
      <trkpt lat="41.9417520" lon="-5.5519110">
        <ele>738.9</ele>
        <time>2019-08-15T11:44:05Z</time>
      </trkpt>
      <trkpt lat="41.9417890" lon="-5.5518710">
        <ele>738.9</ele>
        <time>2019-08-15T11:44:06Z</time>
      </trkpt>
      <trkpt lat="41.9418250" lon="-5.5518320">
        <ele>738.9</ele>
        <time>2019-08-15T11:44:07Z</time>
      </trkpt>
      <trkpt lat="41.9418610" lon="-5.5517930">
        <ele>738.9</ele>
        <time>2019-08-15T11:44:08Z</time>
      </trkpt>
      <trkpt lat="41.9418970" lon="-5.5517520">
        <ele>738.9</ele>
        <time>2019-08-15T11:44:09Z</time>
      </trkpt>
      <trkpt lat="41.9419320" lon="-5.5517150">
        <ele>738.9</ele>
        <time>2019-08-15T11:44:10Z</time>
      </trkpt>
      <trkpt lat="41.9419650" lon="-5.5516780">
        <ele>738.9</ele>
        <time>2019-08-15T11:44:11Z</time>
      </trkpt>
      <trkpt lat="41.9419960" lon="-5.5516420">
        <ele>738.8</ele>
        <time>2019-08-15T11:44:12Z</time>
      </trkpt>
      <trkpt lat="41.9420250" lon="-5.5516070">
        <ele>738.8</ele>
        <time>2019-08-15T11:44:13Z</time>
      </trkpt>
      <trkpt lat="41.9420540" lon="-5.5515720">
        <ele>738.8</ele>
        <time>2019-08-15T11:44:14Z</time>
      </trkpt>
      <trkpt lat="41.9420850" lon="-5.5515370">
        <ele>738.7</ele>
        <time>2019-08-15T11:44:15Z</time>
      </trkpt>
      <trkpt lat="41.9421170" lon="-5.5515030">
        <ele>738.7</ele>
        <time>2019-08-15T11:44:16Z</time>
      </trkpt>
      <trkpt lat="41.9421500" lon="-5.5514670">
        <ele>738.6</ele>
        <time>2019-08-15T11:44:17Z</time>
      </trkpt>
      <trkpt lat="41.9421820" lon="-5.5514300">
        <ele>738.5</ele>
        <time>2019-08-15T11:44:18Z</time>
      </trkpt>
      <trkpt lat="41.9422150" lon="-5.5513940">
        <ele>738.5</ele>
        <time>2019-08-15T11:44:19Z</time>
      </trkpt>
      <trkpt lat="41.9422470" lon="-5.5513570">
        <ele>738.4</ele>
        <time>2019-08-15T11:44:20Z</time>
      </trkpt>
      <trkpt lat="41.9422790" lon="-5.5513200">
        <ele>738.3</ele>
        <time>2019-08-15T11:44:21Z</time>
      </trkpt>
      <trkpt lat="41.9423130" lon="-5.5512830">
        <ele>738.2</ele>
        <time>2019-08-15T11:44:22Z</time>
      </trkpt>
      <trkpt lat="41.9423460" lon="-5.5512460">
        <ele>738.1</ele>
        <time>2019-08-15T11:44:23Z</time>
      </trkpt>
      <trkpt lat="41.9423810" lon="-5.5512110">
        <ele>738.0</ele>
        <time>2019-08-15T11:44:24Z</time>
      </trkpt>
      <trkpt lat="41.9424160" lon="-5.5511770">
        <ele>737.8</ele>
        <time>2019-08-15T11:44:25Z</time>
      </trkpt>
      <trkpt lat="41.9424510" lon="-5.5511430">
        <ele>737.7</ele>
        <time>2019-08-15T11:44:26Z</time>
      </trkpt>
      <trkpt lat="41.9424850" lon="-5.5511100">
        <ele>737.6</ele>
        <time>2019-08-15T11:44:27Z</time>
      </trkpt>
      <trkpt lat="41.9425180" lon="-5.5510770">
        <ele>737.6</ele>
        <time>2019-08-15T11:44:28Z</time>
      </trkpt>
      <trkpt lat="41.9425500" lon="-5.5510430">
        <ele>737.5</ele>
        <time>2019-08-15T11:44:29Z</time>
      </trkpt>
      <trkpt lat="41.9425820" lon="-5.5510100">
        <ele>737.4</ele>
        <time>2019-08-15T11:44:30Z</time>
      </trkpt>
      <trkpt lat="41.9426130" lon="-5.5509790">
        <ele>737.3</ele>
        <time>2019-08-15T11:44:31Z</time>
      </trkpt>
      <trkpt lat="41.9426440" lon="-5.5509480">
        <ele>737.2</ele>
        <time>2019-08-15T11:44:32Z</time>
      </trkpt>
      <trkpt lat="41.9426750" lon="-5.5509170">
        <ele>737.1</ele>
        <time>2019-08-15T11:44:33Z</time>
      </trkpt>
      <trkpt lat="41.9427050" lon="-5.5508860">
        <ele>737.1</ele>
        <time>2019-08-15T11:44:34Z</time>
      </trkpt>
      <trkpt lat="41.9427360" lon="-5.5508540">
        <ele>737.0</ele>
        <time>2019-08-15T11:44:35Z</time>
      </trkpt>
      <trkpt lat="41.9427650" lon="-5.5508210">
        <ele>737.0</ele>
        <time>2019-08-15T11:44:36Z</time>
      </trkpt>
      <trkpt lat="41.9427950" lon="-5.5507900">
        <ele>736.9</ele>
        <time>2019-08-15T11:44:37Z</time>
      </trkpt>
      <trkpt lat="41.9428250" lon="-5.5507590">
        <ele>736.9</ele>
        <time>2019-08-15T11:44:38Z</time>
      </trkpt>
      <trkpt lat="41.9428530" lon="-5.5507260">
        <ele>736.9</ele>
        <time>2019-08-15T11:44:39Z</time>
      </trkpt>
      <trkpt lat="41.9428810" lon="-5.5506920">
        <ele>736.9</ele>
        <time>2019-08-15T11:44:40Z</time>
      </trkpt>
      <trkpt lat="41.9429110" lon="-5.5506580">
        <ele>736.9</ele>
        <time>2019-08-15T11:44:41Z</time>
      </trkpt>
      <trkpt lat="41.9429420" lon="-5.5506260">
        <ele>736.9</ele>
        <time>2019-08-15T11:44:42Z</time>
      </trkpt>
      <trkpt lat="41.9429750" lon="-5.5505950">
        <ele>736.9</ele>
        <time>2019-08-15T11:44:43Z</time>
      </trkpt>
      <trkpt lat="41.9430070" lon="-5.5505600">
        <ele>736.9</ele>
        <time>2019-08-15T11:44:44Z</time>
      </trkpt>
      <trkpt lat="41.9430380" lon="-5.5505250">
        <ele>736.9</ele>
        <time>2019-08-15T11:44:45Z</time>
      </trkpt>
      <trkpt lat="41.9430720" lon="-5.5504910">
        <ele>736.9</ele>
        <time>2019-08-15T11:44:46Z</time>
      </trkpt>
      <trkpt lat="41.9431070" lon="-5.5504600">
        <ele>736.9</ele>
        <time>2019-08-15T11:44:47Z</time>
      </trkpt>
      <trkpt lat="41.9431400" lon="-5.5504310">
        <ele>736.9</ele>
        <time>2019-08-15T11:44:48Z</time>
      </trkpt>
      <trkpt lat="41.9431730" lon="-5.5504040">
        <ele>736.9</ele>
        <time>2019-08-15T11:44:49Z</time>
      </trkpt>
      <trkpt lat="41.9432030" lon="-5.5503830">
        <ele>736.9</ele>
        <time>2019-08-15T11:44:50Z</time>
      </trkpt>
      <trkpt lat="41.9432330" lon="-5.5503660">
        <ele>736.9</ele>
        <time>2019-08-15T11:44:51Z</time>
      </trkpt>
      <trkpt lat="41.9432610" lon="-5.5503540">
        <ele>736.9</ele>
        <time>2019-08-15T11:44:52Z</time>
      </trkpt>
      <trkpt lat="41.9432880" lon="-5.5503500">
        <ele>736.9</ele>
        <time>2019-08-15T11:44:53Z</time>
      </trkpt>
      <trkpt lat="41.9433120" lon="-5.5503530">
        <ele>736.8</ele>
        <time>2019-08-15T11:44:54Z</time>
      </trkpt>
      <trkpt lat="41.9433490" lon="-5.5503710">
        <ele>736.8</ele>
        <time>2019-08-15T11:44:56Z</time>
      </trkpt>
      <trkpt lat="41.9433840" lon="-5.5504020">
        <ele>736.8</ele>
        <time>2019-08-15T11:44:58Z</time>
      </trkpt>
      <trkpt lat="41.9434140" lon="-5.5504510">
        <ele>736.8</ele>
        <time>2019-08-15T11:45:00Z</time>
      </trkpt>
      <trkpt lat="41.9434320" lon="-5.5505130">
        <ele>736.6</ele>
        <time>2019-08-15T11:45:02Z</time>
      </trkpt>
      <trkpt lat="41.9434470" lon="-5.5505930">
        <ele>736.6</ele>
        <time>2019-08-15T11:45:04Z</time>
      </trkpt>
      <trkpt lat="41.9434550" lon="-5.5506430">
        <ele>736.5</ele>
        <time>2019-08-15T11:45:05Z</time>
      </trkpt>
      <trkpt lat="41.9434610" lon="-5.5507020">
        <ele>736.5</ele>
        <time>2019-08-15T11:45:06Z</time>
      </trkpt>
      <trkpt lat="41.9434640" lon="-5.5507680">
        <ele>736.5</ele>
        <time>2019-08-15T11:45:07Z</time>
      </trkpt>
      <trkpt lat="41.9434670" lon="-5.5508390">
        <ele>736.5</ele>
        <time>2019-08-15T11:45:08Z</time>
      </trkpt>
      <trkpt lat="41.9434690" lon="-5.5509150">
        <ele>736.5</ele>
        <time>2019-08-15T11:45:09Z</time>
      </trkpt>
      <trkpt lat="41.9434660" lon="-5.5509930">
        <ele>736.6</ele>
        <time>2019-08-15T11:45:10Z</time>
      </trkpt>
      <trkpt lat="41.9434600" lon="-5.5510730">
        <ele>736.6</ele>
        <time>2019-08-15T11:45:11Z</time>
      </trkpt>
      <trkpt lat="41.9434510" lon="-5.5511540">
        <ele>736.6</ele>
        <time>2019-08-15T11:45:12Z</time>
      </trkpt>
      <trkpt lat="41.9434410" lon="-5.5512330">
        <ele>736.7</ele>
        <time>2019-08-15T11:45:13Z</time>
      </trkpt>
      <trkpt lat="41.9434300" lon="-5.5513090">
        <ele>736.7</ele>
        <time>2019-08-15T11:45:14Z</time>
      </trkpt>
      <trkpt lat="41.9434200" lon="-5.5513810">
        <ele>736.7</ele>
        <time>2019-08-15T11:45:15Z</time>
      </trkpt>
      <trkpt lat="41.9434100" lon="-5.5514520">
        <ele>736.7</ele>
        <time>2019-08-15T11:45:16Z</time>
      </trkpt>
      <trkpt lat="41.9434000" lon="-5.5515190">
        <ele>736.7</ele>
        <time>2019-08-15T11:45:17Z</time>
      </trkpt>
      <trkpt lat="41.9433910" lon="-5.5515870">
        <ele>736.7</ele>
        <time>2019-08-15T11:45:18Z</time>
      </trkpt>
      <trkpt lat="41.9433810" lon="-5.5516570">
        <ele>736.7</ele>
        <time>2019-08-15T11:45:19Z</time>
      </trkpt>
      <trkpt lat="41.9433700" lon="-5.5517260">
        <ele>736.6</ele>
        <time>2019-08-15T11:45:20Z</time>
      </trkpt>
      <trkpt lat="41.9433590" lon="-5.5517970">
        <ele>736.6</ele>
        <time>2019-08-15T11:45:21Z</time>
      </trkpt>
      <trkpt lat="41.9433490" lon="-5.5518650">
        <ele>736.5</ele>
        <time>2019-08-15T11:45:22Z</time>
      </trkpt>
      <trkpt lat="41.9433380" lon="-5.5519340">
        <ele>736.5</ele>
        <time>2019-08-15T11:45:23Z</time>
      </trkpt>
      <trkpt lat="41.9433280" lon="-5.5520030">
        <ele>736.4</ele>
        <time>2019-08-15T11:45:24Z</time>
      </trkpt>
      <trkpt lat="41.9433180" lon="-5.5520720">
        <ele>736.4</ele>
        <time>2019-08-15T11:45:25Z</time>
      </trkpt>
      <trkpt lat="41.9433060" lon="-5.5521420">
        <ele>736.3</ele>
        <time>2019-08-15T11:45:26Z</time>
      </trkpt>
      <trkpt lat="41.9432950" lon="-5.5522080">
        <ele>736.2</ele>
        <time>2019-08-15T11:45:27Z</time>
      </trkpt>
      <trkpt lat="41.9432820" lon="-5.5522720">
        <ele>736.2</ele>
        <time>2019-08-15T11:45:28Z</time>
      </trkpt>
      <trkpt lat="41.9432700" lon="-5.5523380">
        <ele>736.2</ele>
        <time>2019-08-15T11:45:29Z</time>
      </trkpt>
      <trkpt lat="41.9432610" lon="-5.5524040">
        <ele>736.2</ele>
        <time>2019-08-15T11:45:30Z</time>
      </trkpt>
      <trkpt lat="41.9432530" lon="-5.5524740">
        <ele>736.1</ele>
        <time>2019-08-15T11:45:31Z</time>
      </trkpt>
      <trkpt lat="41.9432440" lon="-5.5525440">
        <ele>736.1</ele>
        <time>2019-08-15T11:45:32Z</time>
      </trkpt>
      <trkpt lat="41.9432330" lon="-5.5526140">
        <ele>736.1</ele>
        <time>2019-08-15T11:45:33Z</time>
      </trkpt>
      <trkpt lat="41.9432220" lon="-5.5526860">
        <ele>736.1</ele>
        <time>2019-08-15T11:45:34Z</time>
      </trkpt>
      <trkpt lat="41.9432110" lon="-5.5527580">
        <ele>736.1</ele>
        <time>2019-08-15T11:45:35Z</time>
      </trkpt>
      <trkpt lat="41.9431990" lon="-5.5528290">
        <ele>736.1</ele>
        <time>2019-08-15T11:45:36Z</time>
      </trkpt>
      <trkpt lat="41.9431870" lon="-5.5528980">
        <ele>736.1</ele>
        <time>2019-08-15T11:45:37Z</time>
      </trkpt>
      <trkpt lat="41.9431760" lon="-5.5529640">
        <ele>736.1</ele>
        <time>2019-08-15T11:45:38Z</time>
      </trkpt>
      <trkpt lat="41.9431640" lon="-5.5530320">
        <ele>736.1</ele>
        <time>2019-08-15T11:45:39Z</time>
      </trkpt>
      <trkpt lat="41.9431530" lon="-5.5530990">
        <ele>736.2</ele>
        <time>2019-08-15T11:45:40Z</time>
      </trkpt>
      <trkpt lat="41.9431440" lon="-5.5531680">
        <ele>736.2</ele>
        <time>2019-08-15T11:45:41Z</time>
      </trkpt>
      <trkpt lat="41.9431340" lon="-5.5532360">
        <ele>736.3</ele>
        <time>2019-08-15T11:45:42Z</time>
      </trkpt>
      <trkpt lat="41.9431260" lon="-5.5533050">
        <ele>736.3</ele>
        <time>2019-08-15T11:45:43Z</time>
      </trkpt>
      <trkpt lat="41.9431170" lon="-5.5533730">
        <ele>736.5</ele>
        <time>2019-08-15T11:45:44Z</time>
      </trkpt>
      <trkpt lat="41.9431070" lon="-5.5534410">
        <ele>736.6</ele>
        <time>2019-08-15T11:45:45Z</time>
      </trkpt>
      <trkpt lat="41.9430960" lon="-5.5535080">
        <ele>736.7</ele>
        <time>2019-08-15T11:45:46Z</time>
      </trkpt>
      <trkpt lat="41.9430870" lon="-5.5535750">
        <ele>736.8</ele>
        <time>2019-08-15T11:45:47Z</time>
      </trkpt>
      <trkpt lat="41.9430790" lon="-5.5536380">
        <ele>737.0</ele>
        <time>2019-08-15T11:45:48Z</time>
      </trkpt>
      <trkpt lat="41.9430740" lon="-5.5536990">
        <ele>737.1</ele>
        <time>2019-08-15T11:45:49Z</time>
      </trkpt>
      <trkpt lat="41.9430700" lon="-5.5537560">
        <ele>737.3</ele>
        <time>2019-08-15T11:45:50Z</time>
      </trkpt>
      <trkpt lat="41.9430690" lon="-5.5538120">
        <ele>737.5</ele>
        <time>2019-08-15T11:45:51Z</time>
      </trkpt>
      <trkpt lat="41.9430710" lon="-5.5538640">
        <ele>737.7</ele>
        <time>2019-08-15T11:45:52Z</time>
      </trkpt>
      <trkpt lat="41.9430740" lon="-5.5539150">
        <ele>737.8</ele>
        <time>2019-08-15T11:45:53Z</time>
      </trkpt>
      <trkpt lat="41.9430790" lon="-5.5539670">
        <ele>737.9</ele>
        <time>2019-08-15T11:45:54Z</time>
      </trkpt>
      <trkpt lat="41.9430860" lon="-5.5540190">
        <ele>737.9</ele>
        <time>2019-08-15T11:45:55Z</time>
      </trkpt>
      <trkpt lat="41.9430920" lon="-5.5540710">
        <ele>738.0</ele>
        <time>2019-08-15T11:45:56Z</time>
      </trkpt>
      <trkpt lat="41.9430970" lon="-5.5541210">
        <ele>738.1</ele>
        <time>2019-08-15T11:45:57Z</time>
      </trkpt>
      <trkpt lat="41.9431010" lon="-5.5541660">
        <ele>738.1</ele>
        <time>2019-08-15T11:45:58Z</time>
      </trkpt>
      <trkpt lat="41.9431060" lon="-5.5541990">
        <ele>738.2</ele>
        <time>2019-08-15T11:45:59Z</time>
      </trkpt>
      <trkpt lat="41.9431120" lon="-5.5542300">
        <ele>738.2</ele>
        <time>2019-08-15T11:46:01Z</time>
      </trkpt>
      <trkpt lat="41.9430930" lon="-5.5541400">
        <ele>738.1</ele>
        <time>2019-08-15T11:46:51Z</time>
      </trkpt>
      <trkpt lat="41.9430770" lon="-5.5540810">
        <ele>738.2</ele>
        <time>2019-08-15T11:46:59Z</time>
      </trkpt>
      <trkpt lat="41.9430690" lon="-5.5540000">
        <ele>738.1</ele>
        <time>2019-08-15T11:47:01Z</time>
      </trkpt>
      <trkpt lat="41.9430650" lon="-5.5539520">
        <ele>738.1</ele>
        <time>2019-08-15T11:47:02Z</time>
      </trkpt>
      <trkpt lat="41.9430630" lon="-5.5538990">
        <ele>738.0</ele>
        <time>2019-08-15T11:47:03Z</time>
      </trkpt>
      <trkpt lat="41.9430640" lon="-5.5538430">
        <ele>737.9</ele>
        <time>2019-08-15T11:47:04Z</time>
      </trkpt>
      <trkpt lat="41.9430680" lon="-5.5537870">
        <ele>737.8</ele>
        <time>2019-08-15T11:47:05Z</time>
      </trkpt>
      <trkpt lat="41.9430700" lon="-5.5537300">
        <ele>737.7</ele>
        <time>2019-08-15T11:47:06Z</time>
      </trkpt>
      <trkpt lat="41.9430740" lon="-5.5536710">
        <ele>737.6</ele>
        <time>2019-08-15T11:47:07Z</time>
      </trkpt>
      <trkpt lat="41.9430810" lon="-5.5536130">
        <ele>737.4</ele>
        <time>2019-08-15T11:47:08Z</time>
      </trkpt>
      <trkpt lat="41.9430870" lon="-5.5535580">
        <ele>737.2</ele>
        <time>2019-08-15T11:47:09Z</time>
      </trkpt>
      <trkpt lat="41.9430920" lon="-5.5535040">
        <ele>737.1</ele>
        <time>2019-08-15T11:47:10Z</time>
      </trkpt>
      <trkpt lat="41.9430990" lon="-5.5534510">
        <ele>736.9</ele>
        <time>2019-08-15T11:47:11Z</time>
      </trkpt>
      <trkpt lat="41.9431070" lon="-5.5533950">
        <ele>736.7</ele>
        <time>2019-08-15T11:47:12Z</time>
      </trkpt>
      <trkpt lat="41.9431140" lon="-5.5533380">
        <ele>736.6</ele>
        <time>2019-08-15T11:47:13Z</time>
      </trkpt>
      <trkpt lat="41.9431220" lon="-5.5532810">
        <ele>736.5</ele>
        <time>2019-08-15T11:47:14Z</time>
      </trkpt>
      <trkpt lat="41.9431310" lon="-5.5532220">
        <ele>736.5</ele>
        <time>2019-08-15T11:47:15Z</time>
      </trkpt>
      <trkpt lat="41.9431410" lon="-5.5531630">
        <ele>736.3</ele>
        <time>2019-08-15T11:47:16Z</time>
      </trkpt>
      <trkpt lat="41.9431500" lon="-5.5531020">
        <ele>736.3</ele>
        <time>2019-08-15T11:47:17Z</time>
      </trkpt>
      <trkpt lat="41.9431600" lon="-5.5530420">
        <ele>736.2</ele>
        <time>2019-08-15T11:47:18Z</time>
      </trkpt>
      <trkpt lat="41.9431680" lon="-5.5529850">
        <ele>736.2</ele>
        <time>2019-08-15T11:47:19Z</time>
      </trkpt>
      <trkpt lat="41.9431760" lon="-5.5529310">
        <ele>736.1</ele>
        <time>2019-08-15T11:47:20Z</time>
      </trkpt>
      <trkpt lat="41.9431840" lon="-5.5528800">
        <ele>736.1</ele>
        <time>2019-08-15T11:47:21Z</time>
      </trkpt>
      <trkpt lat="41.9431920" lon="-5.5528310">
        <ele>736.1</ele>
        <time>2019-08-15T11:47:22Z</time>
      </trkpt>
      <trkpt lat="41.9431990" lon="-5.5527820">
        <ele>736.1</ele>
        <time>2019-08-15T11:47:23Z</time>
      </trkpt>
      <trkpt lat="41.9432070" lon="-5.5527300">
        <ele>736.1</ele>
        <time>2019-08-15T11:47:24Z</time>
      </trkpt>
      <trkpt lat="41.9432140" lon="-5.5526750">
        <ele>736.1</ele>
        <time>2019-08-15T11:47:25Z</time>
      </trkpt>
      <trkpt lat="41.9432210" lon="-5.5526200">
        <ele>736.1</ele>
        <time>2019-08-15T11:47:26Z</time>
      </trkpt>
      <trkpt lat="41.9432300" lon="-5.5525640">
        <ele>736.1</ele>
        <time>2019-08-15T11:47:27Z</time>
      </trkpt>
      <trkpt lat="41.9432400" lon="-5.5525080">
        <ele>736.1</ele>
        <time>2019-08-15T11:47:28Z</time>
      </trkpt>
      <trkpt lat="41.9432500" lon="-5.5524510">
        <ele>736.1</ele>
        <time>2019-08-15T11:47:29Z</time>
      </trkpt>
      <trkpt lat="41.9432600" lon="-5.5523930">
        <ele>736.1</ele>
        <time>2019-08-15T11:47:30Z</time>
      </trkpt>
      <trkpt lat="41.9432700" lon="-5.5523360">
        <ele>736.1</ele>
        <time>2019-08-15T11:47:31Z</time>
      </trkpt>
      <trkpt lat="41.9432790" lon="-5.5522770">
        <ele>736.2</ele>
        <time>2019-08-15T11:47:32Z</time>
      </trkpt>
      <trkpt lat="41.9432880" lon="-5.5522200">
        <ele>736.2</ele>
        <time>2019-08-15T11:47:33Z</time>
      </trkpt>
      <trkpt lat="41.9432970" lon="-5.5521610">
        <ele>736.2</ele>
        <time>2019-08-15T11:47:34Z</time>
      </trkpt>
      <trkpt lat="41.9433050" lon="-5.5521040">
        <ele>736.2</ele>
        <time>2019-08-15T11:47:35Z</time>
      </trkpt>
      <trkpt lat="41.9433140" lon="-5.5520470">
        <ele>736.3</ele>
        <time>2019-08-15T11:47:36Z</time>
      </trkpt>
      <trkpt lat="41.9433220" lon="-5.5519910">
        <ele>736.4</ele>
        <time>2019-08-15T11:47:37Z</time>
      </trkpt>
      <trkpt lat="41.9433310" lon="-5.5519310">
        <ele>736.4</ele>
        <time>2019-08-15T11:47:38Z</time>
      </trkpt>
      <trkpt lat="41.9433400" lon="-5.5518720">
        <ele>736.4</ele>
        <time>2019-08-15T11:47:39Z</time>
      </trkpt>
      <trkpt lat="41.9433480" lon="-5.5518130">
        <ele>736.5</ele>
        <time>2019-08-15T11:47:40Z</time>
      </trkpt>
      <trkpt lat="41.9433560" lon="-5.5517530">
        <ele>736.6</ele>
        <time>2019-08-15T11:47:41Z</time>
      </trkpt>
      <trkpt lat="41.9433650" lon="-5.5516920">
        <ele>736.6</ele>
        <time>2019-08-15T11:47:42Z</time>
      </trkpt>
      <trkpt lat="41.9433760" lon="-5.5516330">
        <ele>736.6</ele>
        <time>2019-08-15T11:47:43Z</time>
      </trkpt>
      <trkpt lat="41.9433840" lon="-5.5515740">
        <ele>736.7</ele>
        <time>2019-08-15T11:47:44Z</time>
      </trkpt>
      <trkpt lat="41.9433930" lon="-5.5515140">
        <ele>736.7</ele>
        <time>2019-08-15T11:47:45Z</time>
      </trkpt>
      <trkpt lat="41.9434010" lon="-5.5514550">
        <ele>736.7</ele>
        <time>2019-08-15T11:47:46Z</time>
      </trkpt>
      <trkpt lat="41.9434100" lon="-5.5513970">
        <ele>736.7</ele>
        <time>2019-08-15T11:47:47Z</time>
      </trkpt>
      <trkpt lat="41.9434190" lon="-5.5513380">
        <ele>736.7</ele>
        <time>2019-08-15T11:47:48Z</time>
      </trkpt>
      <trkpt lat="41.9434260" lon="-5.5512790">
        <ele>736.7</ele>
        <time>2019-08-15T11:47:49Z</time>
      </trkpt>
      <trkpt lat="41.9434350" lon="-5.5512200">
        <ele>736.7</ele>
        <time>2019-08-15T11:47:50Z</time>
      </trkpt>
      <trkpt lat="41.9434430" lon="-5.5511620">
        <ele>736.7</ele>
        <time>2019-08-15T11:47:51Z</time>
      </trkpt>
      <trkpt lat="41.9434490" lon="-5.5511040">
        <ele>736.6</ele>
        <time>2019-08-15T11:47:52Z</time>
      </trkpt>
      <trkpt lat="41.9434540" lon="-5.5510480">
        <ele>736.6</ele>
        <time>2019-08-15T11:47:53Z</time>
      </trkpt>
      <trkpt lat="41.9434580" lon="-5.5509950">
        <ele>736.6</ele>
        <time>2019-08-15T11:47:54Z</time>
      </trkpt>
      <trkpt lat="41.9434630" lon="-5.5509440">
        <ele>736.6</ele>
        <time>2019-08-15T11:47:55Z</time>
      </trkpt>
      <trkpt lat="41.9434650" lon="-5.5508960">
        <ele>736.6</ele>
        <time>2019-08-15T11:47:56Z</time>
      </trkpt>
      <trkpt lat="41.9434650" lon="-5.5508480">
        <ele>736.5</ele>
        <time>2019-08-15T11:47:57Z</time>
      </trkpt>
      <trkpt lat="41.9434640" lon="-5.5508060">
        <ele>736.5</ele>
        <time>2019-08-15T11:47:58Z</time>
      </trkpt>
      <trkpt lat="41.9434640" lon="-5.5507680">
        <ele>736.5</ele>
        <time>2019-08-15T11:47:59Z</time>
      </trkpt>
      <trkpt lat="41.9434630" lon="-5.5507320">
        <ele>736.5</ele>
        <time>2019-08-15T11:48:00Z</time>
      </trkpt>
      <trkpt lat="41.9434570" lon="-5.5506640">
        <ele>736.5</ele>
        <time>2019-08-15T11:48:02Z</time>
      </trkpt>
      <trkpt lat="41.9434470" lon="-5.5506000">
        <ele>736.5</ele>
        <time>2019-08-15T11:48:04Z</time>
      </trkpt>
      <trkpt lat="41.9434370" lon="-5.5505400">
        <ele>736.6</ele>
        <time>2019-08-15T11:48:06Z</time>
      </trkpt>
      <trkpt lat="41.9434230" lon="-5.5504830">
        <ele>736.6</ele>
        <time>2019-08-15T11:48:08Z</time>
      </trkpt>
      <trkpt lat="41.9434130" lon="-5.5504120">
        <ele>736.7</ele>
        <time>2019-08-15T11:48:10Z</time>
      </trkpt>
      <trkpt lat="41.9434150" lon="-5.5503660">
        <ele>736.8</ele>
        <time>2019-08-15T11:48:11Z</time>
      </trkpt>
      <trkpt lat="41.9434240" lon="-5.5503150">
        <ele>736.8</ele>
        <time>2019-08-15T11:48:12Z</time>
      </trkpt>
      <trkpt lat="41.9434380" lon="-5.5502630">
        <ele>736.8</ele>
        <time>2019-08-15T11:48:13Z</time>
      </trkpt>
      <trkpt lat="41.9434530" lon="-5.5502100">
        <ele>736.8</ele>
        <time>2019-08-15T11:48:14Z</time>
      </trkpt>
      <trkpt lat="41.9434660" lon="-5.5501550">
        <ele>736.9</ele>
        <time>2019-08-15T11:48:15Z</time>
      </trkpt>
      <trkpt lat="41.9434770" lon="-5.5501010">
        <ele>736.9</ele>
        <time>2019-08-15T11:48:16Z</time>
      </trkpt>
      <trkpt lat="41.9434860" lon="-5.5500470">
        <ele>736.9</ele>
        <time>2019-08-15T11:48:17Z</time>
      </trkpt>
      <trkpt lat="41.9434950" lon="-5.5499950">
        <ele>736.9</ele>
        <time>2019-08-15T11:48:18Z</time>
      </trkpt>
      <trkpt lat="41.9435050" lon="-5.5499460">
        <ele>736.9</ele>
        <time>2019-08-15T11:48:19Z</time>
      </trkpt>
      <trkpt lat="41.9435130" lon="-5.5499000">
        <ele>736.9</ele>
        <time>2019-08-15T11:48:20Z</time>
      </trkpt>
      <trkpt lat="41.9435230" lon="-5.5498590">
        <ele>736.9</ele>
        <time>2019-08-15T11:48:21Z</time>
      </trkpt>
      <trkpt lat="41.9435400" lon="-5.5498280">
        <ele>736.9</ele>
        <time>2019-08-15T11:48:22Z</time>
      </trkpt>
      <trkpt lat="41.9435640" lon="-5.5498090">
        <ele>736.8</ele>
        <time>2019-08-15T11:48:23Z</time>
      </trkpt>
      <trkpt lat="41.9435950" lon="-5.5497970">
        <ele>736.7</ele>
        <time>2019-08-15T11:48:24Z</time>
      </trkpt>
      <trkpt lat="41.9436350" lon="-5.5497980">
        <ele>736.7</ele>
        <time>2019-08-15T11:48:25Z</time>
      </trkpt>
      <trkpt lat="41.9436800" lon="-5.5498090">
        <ele>736.6</ele>
        <time>2019-08-15T11:48:26Z</time>
      </trkpt>
      <trkpt lat="41.9437300" lon="-5.5498280">
        <ele>736.5</ele>
        <time>2019-08-15T11:48:27Z</time>
      </trkpt>
      <trkpt lat="41.9437850" lon="-5.5498580">
        <ele>736.4</ele>
        <time>2019-08-15T11:48:28Z</time>
      </trkpt>
      <trkpt lat="41.9438420" lon="-5.5498990">
        <ele>736.3</ele>
        <time>2019-08-15T11:48:29Z</time>
      </trkpt>
      <trkpt lat="41.9438980" lon="-5.5499460">
        <ele>736.2</ele>
        <time>2019-08-15T11:48:30Z</time>
      </trkpt>
      <trkpt lat="41.9439490" lon="-5.5500010">
        <ele>736.1</ele>
        <time>2019-08-15T11:48:31Z</time>
      </trkpt>
      <trkpt lat="41.9439940" lon="-5.5500610">
        <ele>736.0</ele>
        <time>2019-08-15T11:48:32Z</time>
      </trkpt>
      <trkpt lat="41.9440380" lon="-5.5501230">
        <ele>736.0</ele>
        <time>2019-08-15T11:48:33Z</time>
      </trkpt>
      <trkpt lat="41.9440790" lon="-5.5501860">
        <ele>735.9</ele>
        <time>2019-08-15T11:48:34Z</time>
      </trkpt>
      <trkpt lat="41.9441190" lon="-5.5502490">
        <ele>735.9</ele>
        <time>2019-08-15T11:48:35Z</time>
      </trkpt>
      <trkpt lat="41.9441560" lon="-5.5503100">
        <ele>735.9</ele>
        <time>2019-08-15T11:48:36Z</time>
      </trkpt>
      <trkpt lat="41.9441930" lon="-5.5503680">
        <ele>736.0</ele>
        <time>2019-08-15T11:48:37Z</time>
      </trkpt>
      <trkpt lat="41.9442280" lon="-5.5504230">
        <ele>736.0</ele>
        <time>2019-08-15T11:48:38Z</time>
      </trkpt>
      <trkpt lat="41.9442630" lon="-5.5504780">
        <ele>736.0</ele>
        <time>2019-08-15T11:48:39Z</time>
      </trkpt>
      <trkpt lat="41.9442960" lon="-5.5505330">
        <ele>736.1</ele>
        <time>2019-08-15T11:48:40Z</time>
      </trkpt>
      <trkpt lat="41.9443310" lon="-5.5505860">
        <ele>736.1</ele>
        <time>2019-08-15T11:48:41Z</time>
      </trkpt>
      <trkpt lat="41.9443650" lon="-5.5506390">
        <ele>736.2</ele>
        <time>2019-08-15T11:48:42Z</time>
      </trkpt>
      <trkpt lat="41.9444000" lon="-5.5506920">
        <ele>736.2</ele>
        <time>2019-08-15T11:48:43Z</time>
      </trkpt>
      <trkpt lat="41.9444340" lon="-5.5507450">
        <ele>736.3</ele>
        <time>2019-08-15T11:48:44Z</time>
      </trkpt>
      <trkpt lat="41.9444690" lon="-5.5508000">
        <ele>736.3</ele>
        <time>2019-08-15T11:48:45Z</time>
      </trkpt>
      <trkpt lat="41.9445030" lon="-5.5508520">
        <ele>736.4</ele>
        <time>2019-08-15T11:48:46Z</time>
      </trkpt>
      <trkpt lat="41.9445370" lon="-5.5509060">
        <ele>736.5</ele>
        <time>2019-08-15T11:48:47Z</time>
      </trkpt>
      <trkpt lat="41.9445710" lon="-5.5509590">
        <ele>736.6</ele>
        <time>2019-08-15T11:48:48Z</time>
      </trkpt>
      <trkpt lat="41.9446060" lon="-5.5510120">
        <ele>736.6</ele>
        <time>2019-08-15T11:48:49Z</time>
      </trkpt>
      <trkpt lat="41.9446420" lon="-5.5510640">
        <ele>736.7</ele>
        <time>2019-08-15T11:48:50Z</time>
      </trkpt>
      <trkpt lat="41.9446780" lon="-5.5511180">
        <ele>736.8</ele>
        <time>2019-08-15T11:48:51Z</time>
      </trkpt>
      <trkpt lat="41.9447110" lon="-5.5511730">
        <ele>736.8</ele>
        <time>2019-08-15T11:48:52Z</time>
      </trkpt>
      <trkpt lat="41.9447440" lon="-5.5512300">
        <ele>736.9</ele>
        <time>2019-08-15T11:48:53Z</time>
      </trkpt>
      <trkpt lat="41.9447780" lon="-5.5512860">
        <ele>736.9</ele>
        <time>2019-08-15T11:48:54Z</time>
      </trkpt>
      <trkpt lat="41.9448130" lon="-5.5513410">
        <ele>737.0</ele>
        <time>2019-08-15T11:48:55Z</time>
      </trkpt>
      <trkpt lat="41.9448480" lon="-5.5513960">
        <ele>737.1</ele>
        <time>2019-08-15T11:48:56Z</time>
      </trkpt>
      <trkpt lat="41.9448830" lon="-5.5514520">
        <ele>737.2</ele>
        <time>2019-08-15T11:48:57Z</time>
      </trkpt>
      <trkpt lat="41.9449180" lon="-5.5515060">
        <ele>737.3</ele>
        <time>2019-08-15T11:48:58Z</time>
      </trkpt>
      <trkpt lat="41.9449540" lon="-5.5515610">
        <ele>737.4</ele>
        <time>2019-08-15T11:48:59Z</time>
      </trkpt>
      <trkpt lat="41.9449900" lon="-5.5516160">
        <ele>737.5</ele>
        <time>2019-08-15T11:49:00Z</time>
      </trkpt>
      <trkpt lat="41.9450250" lon="-5.5516710">
        <ele>737.6</ele>
        <time>2019-08-15T11:49:01Z</time>
      </trkpt>
      <trkpt lat="41.9450600" lon="-5.5517250">
        <ele>737.8</ele>
        <time>2019-08-15T11:49:02Z</time>
      </trkpt>
      <trkpt lat="41.9450960" lon="-5.5517780">
        <ele>738.0</ele>
        <time>2019-08-15T11:49:03Z</time>
      </trkpt>
      <trkpt lat="41.9451310" lon="-5.5518310">
        <ele>738.1</ele>
        <time>2019-08-15T11:49:04Z</time>
      </trkpt>
      <trkpt lat="41.9451650" lon="-5.5518850">
        <ele>738.3</ele>
        <time>2019-08-15T11:49:05Z</time>
      </trkpt>
      <trkpt lat="41.9451990" lon="-5.5519380">
        <ele>738.5</ele>
        <time>2019-08-15T11:49:06Z</time>
      </trkpt>
      <trkpt lat="41.9452330" lon="-5.5519910">
        <ele>738.7</ele>
        <time>2019-08-15T11:49:07Z</time>
      </trkpt>
      <trkpt lat="41.9452670" lon="-5.5520430">
        <ele>738.9</ele>
        <time>2019-08-15T11:49:08Z</time>
      </trkpt>
      <trkpt lat="41.9453000" lon="-5.5520960">
        <ele>739.0</ele>
        <time>2019-08-15T11:49:09Z</time>
      </trkpt>
      <trkpt lat="41.9453330" lon="-5.5521480">
        <ele>739.1</ele>
        <time>2019-08-15T11:49:10Z</time>
      </trkpt>
      <trkpt lat="41.9453650" lon="-5.5521990">
        <ele>739.3</ele>
        <time>2019-08-15T11:49:11Z</time>
      </trkpt>
      <trkpt lat="41.9453970" lon="-5.5522500">
        <ele>739.5</ele>
        <time>2019-08-15T11:49:12Z</time>
      </trkpt>
      <trkpt lat="41.9454290" lon="-5.5523010">
        <ele>739.6</ele>
        <time>2019-08-15T11:49:13Z</time>
      </trkpt>
      <trkpt lat="41.9454610" lon="-5.5523510">
        <ele>739.7</ele>
        <time>2019-08-15T11:49:14Z</time>
      </trkpt>
      <trkpt lat="41.9454920" lon="-5.5523990">
        <ele>739.9</ele>
        <time>2019-08-15T11:49:15Z</time>
      </trkpt>
      <trkpt lat="41.9455240" lon="-5.5524450">
        <ele>740.0</ele>
        <time>2019-08-15T11:49:16Z</time>
      </trkpt>
      <trkpt lat="41.9455560" lon="-5.5524930">
        <ele>740.0</ele>
        <time>2019-08-15T11:49:17Z</time>
      </trkpt>
      <trkpt lat="41.9455870" lon="-5.5525420">
        <ele>740.1</ele>
        <time>2019-08-15T11:49:18Z</time>
      </trkpt>
      <trkpt lat="41.9456200" lon="-5.5525910">
        <ele>740.0</ele>
        <time>2019-08-15T11:49:19Z</time>
      </trkpt>
      <trkpt lat="41.9456530" lon="-5.5526390">
        <ele>740.0</ele>
        <time>2019-08-15T11:49:20Z</time>
      </trkpt>
      <trkpt lat="41.9456870" lon="-5.5526880">
        <ele>740.0</ele>
        <time>2019-08-15T11:49:21Z</time>
      </trkpt>
      <trkpt lat="41.9457200" lon="-5.5527380">
        <ele>740.0</ele>
        <time>2019-08-15T11:49:22Z</time>
      </trkpt>
      <trkpt lat="41.9457540" lon="-5.5527880">
        <ele>740.0</ele>
        <time>2019-08-15T11:49:23Z</time>
      </trkpt>
      <trkpt lat="41.9457880" lon="-5.5528380">
        <ele>739.9</ele>
        <time>2019-08-15T11:49:24Z</time>
      </trkpt>
      <trkpt lat="41.9458220" lon="-5.5528890">
        <ele>739.9</ele>
        <time>2019-08-15T11:49:25Z</time>
      </trkpt>
      <trkpt lat="41.9458560" lon="-5.5529410">
        <ele>739.8</ele>
        <time>2019-08-15T11:49:26Z</time>
      </trkpt>
      <trkpt lat="41.9458890" lon="-5.5529930">
        <ele>739.8</ele>
        <time>2019-08-15T11:49:27Z</time>
      </trkpt>
      <trkpt lat="41.9459230" lon="-5.5530450">
        <ele>739.7</ele>
        <time>2019-08-15T11:49:28Z</time>
      </trkpt>
      <trkpt lat="41.9459550" lon="-5.5530990">
        <ele>739.7</ele>
        <time>2019-08-15T11:49:29Z</time>
      </trkpt>
      <trkpt lat="41.9459880" lon="-5.5531510">
        <ele>739.6</ele>
        <time>2019-08-15T11:49:30Z</time>
      </trkpt>
      <trkpt lat="41.9460220" lon="-5.5532040">
        <ele>739.6</ele>
        <time>2019-08-15T11:49:31Z</time>
      </trkpt>
      <trkpt lat="41.9460560" lon="-5.5532550">
        <ele>739.5</ele>
        <time>2019-08-15T11:49:32Z</time>
      </trkpt>
      <trkpt lat="41.9460890" lon="-5.5533070">
        <ele>739.5</ele>
        <time>2019-08-15T11:49:33Z</time>
      </trkpt>
      <trkpt lat="41.9461220" lon="-5.5533590">
        <ele>739.5</ele>
        <time>2019-08-15T11:49:34Z</time>
      </trkpt>
      <trkpt lat="41.9461550" lon="-5.5534090">
        <ele>739.5</ele>
        <time>2019-08-15T11:49:35Z</time>
      </trkpt>
      <trkpt lat="41.9461870" lon="-5.5534580">
        <ele>739.5</ele>
        <time>2019-08-15T11:49:36Z</time>
      </trkpt>
      <trkpt lat="41.9462160" lon="-5.5535050">
        <ele>739.5</ele>
        <time>2019-08-15T11:49:37Z</time>
      </trkpt>
      <trkpt lat="41.9462480" lon="-5.5535510">
        <ele>739.5</ele>
        <time>2019-08-15T11:49:38Z</time>
      </trkpt>
      <trkpt lat="41.9462810" lon="-5.5535990">
        <ele>739.6</ele>
        <time>2019-08-15T11:49:39Z</time>
      </trkpt>
      <trkpt lat="41.9463130" lon="-5.5536510">
        <ele>739.6</ele>
        <time>2019-08-15T11:49:40Z</time>
      </trkpt>
      <trkpt lat="41.9463450" lon="-5.5537050">
        <ele>739.6</ele>
        <time>2019-08-15T11:49:41Z</time>
      </trkpt>
      <trkpt lat="41.9463770" lon="-5.5537590">
        <ele>739.6</ele>
        <time>2019-08-15T11:49:42Z</time>
      </trkpt>
      <trkpt lat="41.9464100" lon="-5.5538120">
        <ele>739.6</ele>
        <time>2019-08-15T11:49:43Z</time>
      </trkpt>
      <trkpt lat="41.9464430" lon="-5.5538670">
        <ele>739.6</ele>
        <time>2019-08-15T11:49:44Z</time>
      </trkpt>
      <trkpt lat="41.9464770" lon="-5.5539190">
        <ele>739.6</ele>
        <time>2019-08-15T11:49:45Z</time>
      </trkpt>
      <trkpt lat="41.9465100" lon="-5.5539690">
        <ele>739.7</ele>
        <time>2019-08-15T11:49:46Z</time>
      </trkpt>
      <trkpt lat="41.9465440" lon="-5.5540170">
        <ele>739.7</ele>
        <time>2019-08-15T11:49:47Z</time>
      </trkpt>
      <trkpt lat="41.9465770" lon="-5.5540650">
        <ele>739.7</ele>
        <time>2019-08-15T11:49:48Z</time>
      </trkpt>
      <trkpt lat="41.9466110" lon="-5.5541140">
        <ele>739.6</ele>
        <time>2019-08-15T11:49:49Z</time>
      </trkpt>
      <trkpt lat="41.9466460" lon="-5.5541660">
        <ele>739.6</ele>
        <time>2019-08-15T11:49:50Z</time>
      </trkpt>
      <trkpt lat="41.9466810" lon="-5.5542200">
        <ele>739.6</ele>
        <time>2019-08-15T11:49:51Z</time>
      </trkpt>
      <trkpt lat="41.9467160" lon="-5.5542760">
        <ele>739.6</ele>
        <time>2019-08-15T11:49:52Z</time>
      </trkpt>
      <trkpt lat="41.9467490" lon="-5.5543340">
        <ele>739.6</ele>
        <time>2019-08-15T11:49:53Z</time>
      </trkpt>
      <trkpt lat="41.9467820" lon="-5.5543910">
        <ele>739.6</ele>
        <time>2019-08-15T11:49:54Z</time>
      </trkpt>
      <trkpt lat="41.9468160" lon="-5.5544450">
        <ele>739.6</ele>
        <time>2019-08-15T11:49:55Z</time>
      </trkpt>
      <trkpt lat="41.9468510" lon="-5.5544990">
        <ele>739.6</ele>
        <time>2019-08-15T11:49:56Z</time>
      </trkpt>
      <trkpt lat="41.9468860" lon="-5.5545530">
        <ele>739.6</ele>
        <time>2019-08-15T11:49:57Z</time>
      </trkpt>
      <trkpt lat="41.9469200" lon="-5.5546050">
        <ele>739.6</ele>
        <time>2019-08-15T11:49:58Z</time>
      </trkpt>
      <trkpt lat="41.9469560" lon="-5.5546560">
        <ele>739.6</ele>
        <time>2019-08-15T11:49:59Z</time>
      </trkpt>
      <trkpt lat="41.9469900" lon="-5.5547080">
        <ele>739.6</ele>
        <time>2019-08-15T11:50:00Z</time>
      </trkpt>
      <trkpt lat="41.9470210" lon="-5.5547630">
        <ele>739.6</ele>
        <time>2019-08-15T11:50:01Z</time>
      </trkpt>
      <trkpt lat="41.9470510" lon="-5.5548190">
        <ele>739.6</ele>
        <time>2019-08-15T11:50:02Z</time>
      </trkpt>
      <trkpt lat="41.9470850" lon="-5.5548710">
        <ele>739.6</ele>
        <time>2019-08-15T11:50:03Z</time>
      </trkpt>
      <trkpt lat="41.9471210" lon="-5.5549230">
        <ele>739.6</ele>
        <time>2019-08-15T11:50:04Z</time>
      </trkpt>
      <trkpt lat="41.9471570" lon="-5.5549760">
        <ele>739.6</ele>
        <time>2019-08-15T11:50:05Z</time>
      </trkpt>
      <trkpt lat="41.9471900" lon="-5.5550260">
        <ele>739.6</ele>
        <time>2019-08-15T11:50:06Z</time>
      </trkpt>
      <trkpt lat="41.9472230" lon="-5.5550760">
        <ele>739.6</ele>
        <time>2019-08-15T11:50:07Z</time>
      </trkpt>
      <trkpt lat="41.9472550" lon="-5.5551250">
        <ele>739.6</ele>
        <time>2019-08-15T11:50:08Z</time>
      </trkpt>
      <trkpt lat="41.9472880" lon="-5.5551750">
        <ele>739.6</ele>
        <time>2019-08-15T11:50:09Z</time>
      </trkpt>
      <trkpt lat="41.9473210" lon="-5.5552280">
        <ele>739.5</ele>
        <time>2019-08-15T11:50:10Z</time>
      </trkpt>
      <trkpt lat="41.9473540" lon="-5.5552800">
        <ele>739.5</ele>
        <time>2019-08-15T11:50:11Z</time>
      </trkpt>
      <trkpt lat="41.9473890" lon="-5.5553340">
        <ele>739.5</ele>
        <time>2019-08-15T11:50:12Z</time>
      </trkpt>
      <trkpt lat="41.9474220" lon="-5.5553870">
        <ele>739.4</ele>
        <time>2019-08-15T11:50:13Z</time>
      </trkpt>
      <trkpt lat="41.9474550" lon="-5.5554430">
        <ele>739.4</ele>
        <time>2019-08-15T11:50:14Z</time>
      </trkpt>
      <trkpt lat="41.9474880" lon="-5.5554970">
        <ele>739.4</ele>
        <time>2019-08-15T11:50:15Z</time>
      </trkpt>
      <trkpt lat="41.9475200" lon="-5.5555480">
        <ele>739.4</ele>
        <time>2019-08-15T11:50:16Z</time>
      </trkpt>
      <trkpt lat="41.9475530" lon="-5.5555950">
        <ele>739.5</ele>
        <time>2019-08-15T11:50:17Z</time>
      </trkpt>
      <trkpt lat="41.9475860" lon="-5.5556410">
        <ele>739.5</ele>
        <time>2019-08-15T11:50:18Z</time>
      </trkpt>
      <trkpt lat="41.9476170" lon="-5.5556870">
        <ele>739.6</ele>
        <time>2019-08-15T11:50:19Z</time>
      </trkpt>
      <trkpt lat="41.9476480" lon="-5.5557330">
        <ele>739.7</ele>
        <time>2019-08-15T11:50:20Z</time>
      </trkpt>
      <trkpt lat="41.9476790" lon="-5.5557800">
        <ele>739.8</ele>
        <time>2019-08-15T11:50:21Z</time>
      </trkpt>
      <trkpt lat="41.9477090" lon="-5.5558280">
        <ele>739.9</ele>
        <time>2019-08-15T11:50:22Z</time>
      </trkpt>
      <trkpt lat="41.9477380" lon="-5.5558760">
        <ele>740.0</ele>
        <time>2019-08-15T11:50:23Z</time>
      </trkpt>
      <trkpt lat="41.9477690" lon="-5.5559240">
        <ele>740.1</ele>
        <time>2019-08-15T11:50:24Z</time>
      </trkpt>
      <trkpt lat="41.9478010" lon="-5.5559710">
        <ele>740.3</ele>
        <time>2019-08-15T11:50:25Z</time>
      </trkpt>
      <trkpt lat="41.9478320" lon="-5.5560180">
        <ele>740.4</ele>
        <time>2019-08-15T11:50:26Z</time>
      </trkpt>
      <trkpt lat="41.9478630" lon="-5.5560640">
        <ele>740.5</ele>
        <time>2019-08-15T11:50:27Z</time>
      </trkpt>
      <trkpt lat="41.9478920" lon="-5.5561110">
        <ele>740.6</ele>
        <time>2019-08-15T11:50:28Z</time>
      </trkpt>
      <trkpt lat="41.9479220" lon="-5.5561580">
        <ele>740.7</ele>
        <time>2019-08-15T11:50:29Z</time>
      </trkpt>
      <trkpt lat="41.9479540" lon="-5.5562040">
        <ele>740.8</ele>
        <time>2019-08-15T11:50:30Z</time>
      </trkpt>
      <trkpt lat="41.9479850" lon="-5.5562500">
        <ele>741.0</ele>
        <time>2019-08-15T11:50:31Z</time>
      </trkpt>
      <trkpt lat="41.9480160" lon="-5.5562960">
        <ele>741.1</ele>
        <time>2019-08-15T11:50:32Z</time>
      </trkpt>
      <trkpt lat="41.9480450" lon="-5.5563410">
        <ele>741.2</ele>
        <time>2019-08-15T11:50:33Z</time>
      </trkpt>
      <trkpt lat="41.9480750" lon="-5.5563850">
        <ele>741.3</ele>
        <time>2019-08-15T11:50:34Z</time>
      </trkpt>
      <trkpt lat="41.9481060" lon="-5.5564320">
        <ele>741.4</ele>
        <time>2019-08-15T11:50:35Z</time>
      </trkpt>
      <trkpt lat="41.9481360" lon="-5.5564780">
        <ele>741.5</ele>
        <time>2019-08-15T11:50:36Z</time>
      </trkpt>
      <trkpt lat="41.9481650" lon="-5.5565250">
        <ele>741.5</ele>
        <time>2019-08-15T11:50:37Z</time>
      </trkpt>
      <trkpt lat="41.9481940" lon="-5.5565720">
        <ele>741.6</ele>
        <time>2019-08-15T11:50:38Z</time>
      </trkpt>
      <trkpt lat="41.9482250" lon="-5.5566180">
        <ele>741.7</ele>
        <time>2019-08-15T11:50:39Z</time>
      </trkpt>
      <trkpt lat="41.9482550" lon="-5.5566650">
        <ele>741.7</ele>
        <time>2019-08-15T11:50:40Z</time>
      </trkpt>
      <trkpt lat="41.9482850" lon="-5.5567130">
        <ele>741.7</ele>
        <time>2019-08-15T11:50:41Z</time>
      </trkpt>
      <trkpt lat="41.9483170" lon="-5.5567600">
        <ele>741.8</ele>
        <time>2019-08-15T11:50:42Z</time>
      </trkpt>
      <trkpt lat="41.9483480" lon="-5.5568100">
        <ele>741.8</ele>
        <time>2019-08-15T11:50:43Z</time>
      </trkpt>
      <trkpt lat="41.9483800" lon="-5.5568590">
        <ele>741.8</ele>
        <time>2019-08-15T11:50:44Z</time>
      </trkpt>
      <trkpt lat="41.9484110" lon="-5.5569080">
        <ele>741.8</ele>
        <time>2019-08-15T11:50:45Z</time>
      </trkpt>
      <trkpt lat="41.9484440" lon="-5.5569590">
        <ele>741.9</ele>
        <time>2019-08-15T11:50:46Z</time>
      </trkpt>
      <trkpt lat="41.9484760" lon="-5.5570110">
        <ele>741.9</ele>
        <time>2019-08-15T11:50:47Z</time>
      </trkpt>
      <trkpt lat="41.9485070" lon="-5.5570640">
        <ele>741.8</ele>
        <time>2019-08-15T11:50:48Z</time>
      </trkpt>
      <trkpt lat="41.9485380" lon="-5.5571170">
        <ele>741.8</ele>
        <time>2019-08-15T11:50:49Z</time>
      </trkpt>
      <trkpt lat="41.9485700" lon="-5.5571690">
        <ele>741.8</ele>
        <time>2019-08-15T11:50:50Z</time>
      </trkpt>
      <trkpt lat="41.9486020" lon="-5.5572200">
        <ele>741.8</ele>
        <time>2019-08-15T11:50:51Z</time>
      </trkpt>
      <trkpt lat="41.9486340" lon="-5.5572710">
        <ele>741.8</ele>
        <time>2019-08-15T11:50:52Z</time>
      </trkpt>
      <trkpt lat="41.9486660" lon="-5.5573210">
        <ele>741.7</ele>
        <time>2019-08-15T11:50:53Z</time>
      </trkpt>
      <trkpt lat="41.9486990" lon="-5.5573730">
        <ele>741.7</ele>
        <time>2019-08-15T11:50:54Z</time>
      </trkpt>
      <trkpt lat="41.9487320" lon="-5.5574240">
        <ele>741.7</ele>
        <time>2019-08-15T11:50:55Z</time>
      </trkpt>
      <trkpt lat="41.9487660" lon="-5.5574750">
        <ele>741.6</ele>
        <time>2019-08-15T11:50:56Z</time>
      </trkpt>
      <trkpt lat="41.9487990" lon="-5.5575240">
        <ele>741.5</ele>
        <time>2019-08-15T11:50:57Z</time>
      </trkpt>
      <trkpt lat="41.9488320" lon="-5.5575730">
        <ele>741.5</ele>
        <time>2019-08-15T11:50:58Z</time>
      </trkpt>
      <trkpt lat="41.9488640" lon="-5.5576210">
        <ele>741.4</ele>
        <time>2019-08-15T11:50:59Z</time>
      </trkpt>
      <trkpt lat="41.9488950" lon="-5.5576690">
        <ele>741.3</ele>
        <time>2019-08-15T11:51:00Z</time>
      </trkpt>
      <trkpt lat="41.9489280" lon="-5.5577180">
        <ele>741.2</ele>
        <time>2019-08-15T11:51:01Z</time>
      </trkpt>
      <trkpt lat="41.9489620" lon="-5.5577710">
        <ele>741.0</ele>
        <time>2019-08-15T11:51:02Z</time>
      </trkpt>
      <trkpt lat="41.9489970" lon="-5.5578270">
        <ele>740.9</ele>
        <time>2019-08-15T11:51:03Z</time>
      </trkpt>
      <trkpt lat="41.9490320" lon="-5.5578830">
        <ele>740.8</ele>
        <time>2019-08-15T11:51:04Z</time>
      </trkpt>
      <trkpt lat="41.9490700" lon="-5.5579400">
        <ele>740.8</ele>
        <time>2019-08-15T11:51:05Z</time>
      </trkpt>
      <trkpt lat="41.9491070" lon="-5.5579950">
        <ele>740.7</ele>
        <time>2019-08-15T11:51:06Z</time>
      </trkpt>
      <trkpt lat="41.9491450" lon="-5.5580520">
        <ele>740.6</ele>
        <time>2019-08-15T11:51:07Z</time>
      </trkpt>
      <trkpt lat="41.9491810" lon="-5.5581090">
        <ele>740.6</ele>
        <time>2019-08-15T11:51:08Z</time>
      </trkpt>
      <trkpt lat="41.9492170" lon="-5.5581670">
        <ele>740.6</ele>
        <time>2019-08-15T11:51:09Z</time>
      </trkpt>
      <trkpt lat="41.9492520" lon="-5.5582220">
        <ele>740.6</ele>
        <time>2019-08-15T11:51:10Z</time>
      </trkpt>
      <trkpt lat="41.9492850" lon="-5.5582760">
        <ele>740.6</ele>
        <time>2019-08-15T11:51:11Z</time>
      </trkpt>
      <trkpt lat="41.9493210" lon="-5.5583280">
        <ele>740.6</ele>
        <time>2019-08-15T11:51:12Z</time>
      </trkpt>
      <trkpt lat="41.9493560" lon="-5.5583800">
        <ele>740.6</ele>
        <time>2019-08-15T11:51:13Z</time>
      </trkpt>
      <trkpt lat="41.9493930" lon="-5.5584350">
        <ele>740.6</ele>
        <time>2019-08-15T11:51:14Z</time>
      </trkpt>
      <trkpt lat="41.9494290" lon="-5.5584910">
        <ele>740.6</ele>
        <time>2019-08-15T11:51:15Z</time>
      </trkpt>
      <trkpt lat="41.9494660" lon="-5.5585480">
        <ele>740.6</ele>
        <time>2019-08-15T11:51:16Z</time>
      </trkpt>
      <trkpt lat="41.9495040" lon="-5.5586060">
        <ele>740.6</ele>
        <time>2019-08-15T11:51:17Z</time>
      </trkpt>
      <trkpt lat="41.9495410" lon="-5.5586650">
        <ele>740.6</ele>
        <time>2019-08-15T11:51:18Z</time>
      </trkpt>
      <trkpt lat="41.9495760" lon="-5.5587230">
        <ele>740.5</ele>
        <time>2019-08-15T11:51:19Z</time>
      </trkpt>
      <trkpt lat="41.9496110" lon="-5.5587780">
        <ele>740.5</ele>
        <time>2019-08-15T11:51:20Z</time>
      </trkpt>
      <trkpt lat="41.9496450" lon="-5.5588340">
        <ele>740.4</ele>
        <time>2019-08-15T11:51:21Z</time>
      </trkpt>
      <trkpt lat="41.9496790" lon="-5.5588840">
        <ele>740.3</ele>
        <time>2019-08-15T11:51:22Z</time>
      </trkpt>
      <trkpt lat="41.9497140" lon="-5.5589330">
        <ele>740.3</ele>
        <time>2019-08-15T11:51:23Z</time>
      </trkpt>
      <trkpt lat="41.9497480" lon="-5.5589860">
        <ele>740.2</ele>
        <time>2019-08-15T11:51:24Z</time>
      </trkpt>
      <trkpt lat="41.9497850" lon="-5.5590420">
        <ele>740.1</ele>
        <time>2019-08-15T11:51:25Z</time>
      </trkpt>
      <trkpt lat="41.9498230" lon="-5.5591010">
        <ele>739.9</ele>
        <time>2019-08-15T11:51:26Z</time>
      </trkpt>
      <trkpt lat="41.9498620" lon="-5.5591600">
        <ele>739.8</ele>
        <time>2019-08-15T11:51:27Z</time>
      </trkpt>
      <trkpt lat="41.9499020" lon="-5.5592210">
        <ele>739.7</ele>
        <time>2019-08-15T11:51:28Z</time>
      </trkpt>
      <trkpt lat="41.9499420" lon="-5.5592800">
        <ele>739.6</ele>
        <time>2019-08-15T11:51:29Z</time>
      </trkpt>
      <trkpt lat="41.9499810" lon="-5.5593400">
        <ele>739.5</ele>
        <time>2019-08-15T11:51:30Z</time>
      </trkpt>
      <trkpt lat="41.9500190" lon="-5.5594010">
        <ele>739.4</ele>
        <time>2019-08-15T11:51:31Z</time>
      </trkpt>
      <trkpt lat="41.9500560" lon="-5.5594600">
        <ele>739.3</ele>
        <time>2019-08-15T11:51:32Z</time>
      </trkpt>
      <trkpt lat="41.9500920" lon="-5.5595190">
        <ele>739.2</ele>
        <time>2019-08-15T11:51:33Z</time>
      </trkpt>
      <trkpt lat="41.9501270" lon="-5.5595770">
        <ele>739.2</ele>
        <time>2019-08-15T11:51:34Z</time>
      </trkpt>
      <trkpt lat="41.9501630" lon="-5.5596330">
        <ele>739.1</ele>
        <time>2019-08-15T11:51:35Z</time>
      </trkpt>
      <trkpt lat="41.9501990" lon="-5.5596890">
        <ele>739.1</ele>
        <time>2019-08-15T11:51:36Z</time>
      </trkpt>
      <trkpt lat="41.9502370" lon="-5.5597470">
        <ele>739.0</ele>
        <time>2019-08-15T11:51:37Z</time>
      </trkpt>
      <trkpt lat="41.9502750" lon="-5.5598070">
        <ele>739.0</ele>
        <time>2019-08-15T11:51:38Z</time>
      </trkpt>
      <trkpt lat="41.9503150" lon="-5.5598690">
        <ele>739.0</ele>
        <time>2019-08-15T11:51:39Z</time>
      </trkpt>
      <trkpt lat="41.9503550" lon="-5.5599340">
        <ele>738.9</ele>
        <time>2019-08-15T11:51:40Z</time>
      </trkpt>
      <trkpt lat="41.9503970" lon="-5.5599970">
        <ele>738.9</ele>
        <time>2019-08-15T11:51:41Z</time>
      </trkpt>
      <trkpt lat="41.9504380" lon="-5.5600600">
        <ele>738.9</ele>
        <time>2019-08-15T11:51:42Z</time>
      </trkpt>
      <trkpt lat="41.9504780" lon="-5.5601200">
        <ele>738.9</ele>
        <time>2019-08-15T11:51:43Z</time>
      </trkpt>
      <trkpt lat="41.9505150" lon="-5.5601800">
        <ele>738.9</ele>
        <time>2019-08-15T11:51:44Z</time>
      </trkpt>
      <trkpt lat="41.9505530" lon="-5.5602410">
        <ele>738.9</ele>
        <time>2019-08-15T11:51:45Z</time>
      </trkpt>
      <trkpt lat="41.9505930" lon="-5.5603000">
        <ele>738.9</ele>
        <time>2019-08-15T11:51:46Z</time>
      </trkpt>
      <trkpt lat="41.9506320" lon="-5.5603590">
        <ele>738.9</ele>
        <time>2019-08-15T11:51:47Z</time>
      </trkpt>
      <trkpt lat="41.9506710" lon="-5.5604190">
        <ele>738.9</ele>
        <time>2019-08-15T11:51:48Z</time>
      </trkpt>
      <trkpt lat="41.9507110" lon="-5.5604770">
        <ele>738.9</ele>
        <time>2019-08-15T11:51:49Z</time>
      </trkpt>
      <trkpt lat="41.9507500" lon="-5.5605280">
        <ele>738.9</ele>
        <time>2019-08-15T11:51:50Z</time>
      </trkpt>
      <trkpt lat="41.9507880" lon="-5.5605790">
        <ele>738.9</ele>
        <time>2019-08-15T11:51:51Z</time>
      </trkpt>
      <trkpt lat="41.9508230" lon="-5.5606280">
        <ele>739.0</ele>
        <time>2019-08-15T11:51:52Z</time>
      </trkpt>
      <trkpt lat="41.9508560" lon="-5.5606740">
        <ele>739.0</ele>
        <time>2019-08-15T11:51:53Z</time>
      </trkpt>
      <trkpt lat="41.9508870" lon="-5.5607160">
        <ele>739.0</ele>
        <time>2019-08-15T11:51:54Z</time>
      </trkpt>
      <trkpt lat="41.9509170" lon="-5.5607560">
        <ele>739.0</ele>
        <time>2019-08-15T11:51:55Z</time>
      </trkpt>
      <trkpt lat="41.9509430" lon="-5.5607940">
        <ele>739.1</ele>
        <time>2019-08-15T11:51:56Z</time>
      </trkpt>
      <trkpt lat="41.9509660" lon="-5.5608300">
        <ele>739.2</ele>
        <time>2019-08-15T11:51:57Z</time>
      </trkpt>
      <trkpt lat="41.9509860" lon="-5.5608630">
        <ele>739.3</ele>
        <time>2019-08-15T11:51:58Z</time>
      </trkpt>
      <trkpt lat="41.9510040" lon="-5.5608920">
        <ele>739.3</ele>
        <time>2019-08-15T11:51:59Z</time>
      </trkpt>
      <trkpt lat="41.9510220" lon="-5.5609180">
        <ele>739.4</ele>
        <time>2019-08-15T11:52:00Z</time>
      </trkpt>
      <trkpt lat="41.9510600" lon="-5.5609810">
        <ele>739.5</ele>
        <time>2019-08-15T11:52:02Z</time>
      </trkpt>
      <trkpt lat="41.9510790" lon="-5.5610140">
        <ele>739.6</ele>
        <time>2019-08-15T11:52:03Z</time>
      </trkpt>
      <trkpt lat="41.9510990" lon="-5.5610470">
        <ele>739.6</ele>
        <time>2019-08-15T11:52:04Z</time>
      </trkpt>
      <trkpt lat="41.9511200" lon="-5.5610820">
        <ele>739.7</ele>
        <time>2019-08-15T11:52:05Z</time>
      </trkpt>
      <trkpt lat="41.9511430" lon="-5.5611170">
        <ele>739.8</ele>
        <time>2019-08-15T11:52:06Z</time>
      </trkpt>
      <trkpt lat="41.9511670" lon="-5.5611540">
        <ele>739.9</ele>
        <time>2019-08-15T11:52:07Z</time>
      </trkpt>
      <trkpt lat="41.9511920" lon="-5.5611920">
        <ele>740.0</ele>
        <time>2019-08-15T11:52:08Z</time>
      </trkpt>
      <trkpt lat="41.9512160" lon="-5.5612310">
        <ele>740.2</ele>
        <time>2019-08-15T11:52:09Z</time>
      </trkpt>
      <trkpt lat="41.9512400" lon="-5.5612710">
        <ele>740.3</ele>
        <time>2019-08-15T11:52:10Z</time>
      </trkpt>
      <trkpt lat="41.9512660" lon="-5.5613110">
        <ele>740.4</ele>
        <time>2019-08-15T11:52:11Z</time>
      </trkpt>
      <trkpt lat="41.9512930" lon="-5.5613500">
        <ele>740.5</ele>
        <time>2019-08-15T11:52:12Z</time>
      </trkpt>
      <trkpt lat="41.9513190" lon="-5.5613910">
        <ele>740.7</ele>
        <time>2019-08-15T11:52:13Z</time>
      </trkpt>
      <trkpt lat="41.9513450" lon="-5.5614320">
        <ele>740.8</ele>
        <time>2019-08-15T11:52:14Z</time>
      </trkpt>
      <trkpt lat="41.9513720" lon="-5.5614740">
        <ele>741.0</ele>
        <time>2019-08-15T11:52:15Z</time>
      </trkpt>
      <trkpt lat="41.9514000" lon="-5.5615140">
        <ele>741.1</ele>
        <time>2019-08-15T11:52:16Z</time>
      </trkpt>
      <trkpt lat="41.9514280" lon="-5.5615540">
        <ele>741.2</ele>
        <time>2019-08-15T11:52:17Z</time>
      </trkpt>
      <trkpt lat="41.9514560" lon="-5.5615960">
        <ele>741.3</ele>
        <time>2019-08-15T11:52:18Z</time>
      </trkpt>
      <trkpt lat="41.9514830" lon="-5.5616380">
        <ele>741.3</ele>
        <time>2019-08-15T11:52:19Z</time>
      </trkpt>
      <trkpt lat="41.9515080" lon="-5.5616800">
        <ele>741.3</ele>
        <time>2019-08-15T11:52:20Z</time>
      </trkpt>
      <trkpt lat="41.9515330" lon="-5.5617200">
        <ele>741.3</ele>
        <time>2019-08-15T11:52:21Z</time>
      </trkpt>
      <trkpt lat="41.9515570" lon="-5.5617580">
        <ele>741.3</ele>
        <time>2019-08-15T11:52:22Z</time>
      </trkpt>
      <trkpt lat="41.9515820" lon="-5.5617960">
        <ele>741.2</ele>
        <time>2019-08-15T11:52:23Z</time>
      </trkpt>
      <trkpt lat="41.9516050" lon="-5.5618340">
        <ele>741.2</ele>
        <time>2019-08-15T11:52:24Z</time>
      </trkpt>
      <trkpt lat="41.9516290" lon="-5.5618730">
        <ele>741.2</ele>
        <time>2019-08-15T11:52:25Z</time>
      </trkpt>
      <trkpt lat="41.9516530" lon="-5.5619110">
        <ele>741.1</ele>
        <time>2019-08-15T11:52:26Z</time>
      </trkpt>
      <trkpt lat="41.9516770" lon="-5.5619510">
        <ele>741.0</ele>
        <time>2019-08-15T11:52:27Z</time>
      </trkpt>
      <trkpt lat="41.9517020" lon="-5.5619920">
        <ele>741.0</ele>
        <time>2019-08-15T11:52:28Z</time>
      </trkpt>
      <trkpt lat="41.9517280" lon="-5.5620310">
        <ele>740.9</ele>
        <time>2019-08-15T11:52:29Z</time>
      </trkpt>
      <trkpt lat="41.9517530" lon="-5.5620710">
        <ele>740.8</ele>
        <time>2019-08-15T11:52:30Z</time>
      </trkpt>
      <trkpt lat="41.9517790" lon="-5.5621110">
        <ele>740.7</ele>
        <time>2019-08-15T11:52:31Z</time>
      </trkpt>
      <trkpt lat="41.9518060" lon="-5.5621520">
        <ele>740.7</ele>
        <time>2019-08-15T11:52:32Z</time>
      </trkpt>
      <trkpt lat="41.9518320" lon="-5.5621930">
        <ele>740.6</ele>
        <time>2019-08-15T11:52:33Z</time>
      </trkpt>
      <trkpt lat="41.9518600" lon="-5.5622370">
        <ele>740.5</ele>
        <time>2019-08-15T11:52:34Z</time>
      </trkpt>
      <trkpt lat="41.9518900" lon="-5.5622840">
        <ele>740.3</ele>
        <time>2019-08-15T11:52:35Z</time>
      </trkpt>
      <trkpt lat="41.9519200" lon="-5.5623330">
        <ele>740.2</ele>
        <time>2019-08-15T11:52:36Z</time>
      </trkpt>
      <trkpt lat="41.9519520" lon="-5.5623840">
        <ele>740.0</ele>
        <time>2019-08-15T11:52:37Z</time>
      </trkpt>
      <trkpt lat="41.9519850" lon="-5.5624380">
        <ele>739.9</ele>
        <time>2019-08-15T11:52:38Z</time>
      </trkpt>
      <trkpt lat="41.9520200" lon="-5.5624920">
        <ele>739.7</ele>
        <time>2019-08-15T11:52:39Z</time>
      </trkpt>
      <trkpt lat="41.9520560" lon="-5.5625470">
        <ele>739.6</ele>
        <time>2019-08-15T11:52:40Z</time>
      </trkpt>
      <trkpt lat="41.9520930" lon="-5.5626000">
        <ele>739.4</ele>
        <time>2019-08-15T11:52:41Z</time>
      </trkpt>
      <trkpt lat="41.9521280" lon="-5.5626520">
        <ele>739.2</ele>
        <time>2019-08-15T11:52:42Z</time>
      </trkpt>
      <trkpt lat="41.9521620" lon="-5.5627050">
        <ele>739.0</ele>
        <time>2019-08-15T11:52:43Z</time>
      </trkpt>
      <trkpt lat="41.9521940" lon="-5.5627580">
        <ele>738.8</ele>
        <time>2019-08-15T11:52:44Z</time>
      </trkpt>
      <trkpt lat="41.9522260" lon="-5.5628100">
        <ele>738.5</ele>
        <time>2019-08-15T11:52:45Z</time>
      </trkpt>
      <trkpt lat="41.9522590" lon="-5.5628610">
        <ele>738.3</ele>
        <time>2019-08-15T11:52:46Z</time>
      </trkpt>
      <trkpt lat="41.9522930" lon="-5.5629110">
        <ele>738.2</ele>
        <time>2019-08-15T11:52:47Z</time>
      </trkpt>
      <trkpt lat="41.9523260" lon="-5.5629650">
        <ele>737.9</ele>
        <time>2019-08-15T11:52:48Z</time>
      </trkpt>
      <trkpt lat="41.9523590" lon="-5.5630190">
        <ele>737.7</ele>
        <time>2019-08-15T11:52:49Z</time>
      </trkpt>
      <trkpt lat="41.9523910" lon="-5.5630730">
        <ele>737.4</ele>
        <time>2019-08-15T11:52:50Z</time>
      </trkpt>
      <trkpt lat="41.9524260" lon="-5.5631260">
        <ele>737.0</ele>
        <time>2019-08-15T11:52:51Z</time>
      </trkpt>
      <trkpt lat="41.9524620" lon="-5.5631790">
        <ele>736.7</ele>
        <time>2019-08-15T11:52:52Z</time>
      </trkpt>
      <trkpt lat="41.9524980" lon="-5.5632350">
        <ele>736.4</ele>
        <time>2019-08-15T11:52:53Z</time>
      </trkpt>
      <trkpt lat="41.9525350" lon="-5.5632950">
        <ele>736.1</ele>
        <time>2019-08-15T11:52:54Z</time>
      </trkpt>
      <trkpt lat="41.9525730" lon="-5.5633550">
        <ele>735.8</ele>
        <time>2019-08-15T11:52:55Z</time>
      </trkpt>
      <trkpt lat="41.9526120" lon="-5.5634150">
        <ele>735.5</ele>
        <time>2019-08-15T11:52:56Z</time>
      </trkpt>
      <trkpt lat="41.9526520" lon="-5.5634760">
        <ele>735.2</ele>
        <time>2019-08-15T11:52:57Z</time>
      </trkpt>
      <trkpt lat="41.9526920" lon="-5.5635390">
        <ele>734.9</ele>
        <time>2019-08-15T11:52:58Z</time>
      </trkpt>
      <trkpt lat="41.9527330" lon="-5.5636010">
        <ele>734.6</ele>
        <time>2019-08-15T11:52:59Z</time>
      </trkpt>
      <trkpt lat="41.9527740" lon="-5.5636650">
        <ele>734.3</ele>
        <time>2019-08-15T11:53:00Z</time>
      </trkpt>
      <trkpt lat="41.9528150" lon="-5.5637310">
        <ele>733.9</ele>
        <time>2019-08-15T11:53:01Z</time>
      </trkpt>
      <trkpt lat="41.9528560" lon="-5.5637970">
        <ele>733.6</ele>
        <time>2019-08-15T11:53:02Z</time>
      </trkpt>
      <trkpt lat="41.9528980" lon="-5.5638640">
        <ele>733.3</ele>
        <time>2019-08-15T11:53:03Z</time>
      </trkpt>
      <trkpt lat="41.9529410" lon="-5.5639310">
        <ele>732.9</ele>
        <time>2019-08-15T11:53:04Z</time>
      </trkpt>
      <trkpt lat="41.9529830" lon="-5.5639970">
        <ele>732.7</ele>
        <time>2019-08-15T11:53:05Z</time>
      </trkpt>
      <trkpt lat="41.9530250" lon="-5.5640610">
        <ele>732.5</ele>
        <time>2019-08-15T11:53:06Z</time>
      </trkpt>
      <trkpt lat="41.9530640" lon="-5.5641210">
        <ele>732.5</ele>
        <time>2019-08-15T11:53:07Z</time>
      </trkpt>
      <trkpt lat="41.9530990" lon="-5.5641740">
        <ele>732.4</ele>
        <time>2019-08-15T11:53:08Z</time>
      </trkpt>
      <trkpt lat="41.9531310" lon="-5.5642220">
        <ele>732.4</ele>
        <time>2019-08-15T11:53:09Z</time>
      </trkpt>
      <trkpt lat="41.9531620" lon="-5.5642690">
        <ele>732.4</ele>
        <time>2019-08-15T11:53:10Z</time>
      </trkpt>
      <trkpt lat="41.9531920" lon="-5.5643150">
        <ele>732.4</ele>
        <time>2019-08-15T11:53:11Z</time>
      </trkpt>
      <trkpt lat="41.9532200" lon="-5.5643620">
        <ele>732.5</ele>
        <time>2019-08-15T11:53:12Z</time>
      </trkpt>
      <trkpt lat="41.9532470" lon="-5.5644070">
        <ele>732.5</ele>
        <time>2019-08-15T11:53:13Z</time>
      </trkpt>
      <trkpt lat="41.9532730" lon="-5.5644510">
        <ele>732.6</ele>
        <time>2019-08-15T11:53:14Z</time>
      </trkpt>
      <trkpt lat="41.9533000" lon="-5.5644930">
        <ele>732.7</ele>
        <time>2019-08-15T11:53:15Z</time>
      </trkpt>
      <trkpt lat="41.9533280" lon="-5.5645330">
        <ele>732.7</ele>
        <time>2019-08-15T11:53:16Z</time>
      </trkpt>
      <trkpt lat="41.9533550" lon="-5.5645740">
        <ele>732.8</ele>
        <time>2019-08-15T11:53:17Z</time>
      </trkpt>
      <trkpt lat="41.9533820" lon="-5.5646140">
        <ele>732.9</ele>
        <time>2019-08-15T11:53:18Z</time>
      </trkpt>
      <trkpt lat="41.9534080" lon="-5.5646550">
        <ele>732.9</ele>
        <time>2019-08-15T11:53:19Z</time>
      </trkpt>
      <trkpt lat="41.9534340" lon="-5.5646970">
        <ele>733.0</ele>
        <time>2019-08-15T11:53:20Z</time>
      </trkpt>
      <trkpt lat="41.9534590" lon="-5.5647370">
        <ele>733.1</ele>
        <time>2019-08-15T11:53:21Z</time>
      </trkpt>
      <trkpt lat="41.9534850" lon="-5.5647780">
        <ele>733.1</ele>
        <time>2019-08-15T11:53:22Z</time>
      </trkpt>
      <trkpt lat="41.9535100" lon="-5.5648160">
        <ele>733.1</ele>
        <time>2019-08-15T11:53:23Z</time>
      </trkpt>
      <trkpt lat="41.9535350" lon="-5.5648550">
        <ele>733.2</ele>
        <time>2019-08-15T11:53:24Z</time>
      </trkpt>
      <trkpt lat="41.9535590" lon="-5.5648940">
        <ele>733.2</ele>
        <time>2019-08-15T11:53:25Z</time>
      </trkpt>
      <trkpt lat="41.9535830" lon="-5.5649330">
        <ele>733.2</ele>
        <time>2019-08-15T11:53:26Z</time>
      </trkpt>
      <trkpt lat="41.9536090" lon="-5.5649730">
        <ele>733.3</ele>
        <time>2019-08-15T11:53:27Z</time>
      </trkpt>
      <trkpt lat="41.9536370" lon="-5.5650160">
        <ele>733.3</ele>
        <time>2019-08-15T11:53:28Z</time>
      </trkpt>
      <trkpt lat="41.9536650" lon="-5.5650610">
        <ele>733.3</ele>
        <time>2019-08-15T11:53:29Z</time>
      </trkpt>
      <trkpt lat="41.9536940" lon="-5.5651060">
        <ele>733.3</ele>
        <time>2019-08-15T11:53:30Z</time>
      </trkpt>
      <trkpt lat="41.9537250" lon="-5.5651510">
        <ele>733.3</ele>
        <time>2019-08-15T11:53:31Z</time>
      </trkpt>
      <trkpt lat="41.9537570" lon="-5.5651990">
        <ele>733.2</ele>
        <time>2019-08-15T11:53:32Z</time>
      </trkpt>
      <trkpt lat="41.9537890" lon="-5.5652490">
        <ele>733.2</ele>
        <time>2019-08-15T11:53:33Z</time>
      </trkpt>
      <trkpt lat="41.9538200" lon="-5.5652980">
        <ele>733.2</ele>
        <time>2019-08-15T11:53:34Z</time>
      </trkpt>
      <trkpt lat="41.9538520" lon="-5.5653470">
        <ele>733.2</ele>
        <time>2019-08-15T11:53:35Z</time>
      </trkpt>
      <trkpt lat="41.9538850" lon="-5.5653960">
        <ele>733.1</ele>
        <time>2019-08-15T11:53:36Z</time>
      </trkpt>
      <trkpt lat="41.9539170" lon="-5.5654450">
        <ele>733.1</ele>
        <time>2019-08-15T11:53:37Z</time>
      </trkpt>
      <trkpt lat="41.9539510" lon="-5.5654940">
        <ele>733.0</ele>
        <time>2019-08-15T11:53:38Z</time>
      </trkpt>
      <trkpt lat="41.9539840" lon="-5.5655420">
        <ele>733.0</ele>
        <time>2019-08-15T11:53:39Z</time>
      </trkpt>
      <trkpt lat="41.9540170" lon="-5.5655890">
        <ele>732.9</ele>
        <time>2019-08-15T11:53:40Z</time>
      </trkpt>
      <trkpt lat="41.9540460" lon="-5.5656350">
        <ele>732.9</ele>
        <time>2019-08-15T11:53:41Z</time>
      </trkpt>
      <trkpt lat="41.9540730" lon="-5.5656790">
        <ele>732.9</ele>
        <time>2019-08-15T11:53:42Z</time>
      </trkpt>
      <trkpt lat="41.9540980" lon="-5.5657230">
        <ele>732.9</ele>
        <time>2019-08-15T11:53:43Z</time>
      </trkpt>
      <trkpt lat="41.9541220" lon="-5.5657680">
        <ele>732.8</ele>
        <time>2019-08-15T11:53:44Z</time>
      </trkpt>
      <trkpt lat="41.9541430" lon="-5.5658110">
        <ele>732.8</ele>
        <time>2019-08-15T11:53:45Z</time>
      </trkpt>
      <trkpt lat="41.9541650" lon="-5.5658550">
        <ele>732.8</ele>
        <time>2019-08-15T11:53:46Z</time>
      </trkpt>
      <trkpt lat="41.9541870" lon="-5.5658950">
        <ele>732.8</ele>
        <time>2019-08-15T11:53:47Z</time>
      </trkpt>
      <trkpt lat="41.9542100" lon="-5.5659340">
        <ele>732.8</ele>
        <time>2019-08-15T11:53:48Z</time>
      </trkpt>
      <trkpt lat="41.9542350" lon="-5.5659710">
        <ele>732.8</ele>
        <time>2019-08-15T11:53:49Z</time>
      </trkpt>
      <trkpt lat="41.9542610" lon="-5.5660080">
        <ele>732.8</ele>
        <time>2019-08-15T11:53:50Z</time>
      </trkpt>
      <trkpt lat="41.9542860" lon="-5.5660450">
        <ele>732.8</ele>
        <time>2019-08-15T11:53:51Z</time>
      </trkpt>
      <trkpt lat="41.9543100" lon="-5.5660840">
        <ele>732.8</ele>
        <time>2019-08-15T11:53:52Z</time>
      </trkpt>
      <trkpt lat="41.9543360" lon="-5.5661210">
        <ele>732.8</ele>
        <time>2019-08-15T11:53:53Z</time>
      </trkpt>
      <trkpt lat="41.9543640" lon="-5.5661580">
        <ele>732.8</ele>
        <time>2019-08-15T11:53:54Z</time>
      </trkpt>
      <trkpt lat="41.9543940" lon="-5.5661950">
        <ele>732.8</ele>
        <time>2019-08-15T11:53:55Z</time>
      </trkpt>
      <trkpt lat="41.9544220" lon="-5.5662330">
        <ele>732.8</ele>
        <time>2019-08-15T11:53:56Z</time>
      </trkpt>
      <trkpt lat="41.9544480" lon="-5.5662750">
        <ele>732.8</ele>
        <time>2019-08-15T11:53:57Z</time>
      </trkpt>
      <trkpt lat="41.9544740" lon="-5.5663180">
        <ele>732.8</ele>
        <time>2019-08-15T11:53:58Z</time>
      </trkpt>
      <trkpt lat="41.9545020" lon="-5.5663590">
        <ele>732.8</ele>
        <time>2019-08-15T11:53:59Z</time>
      </trkpt>
      <trkpt lat="41.9545310" lon="-5.5663980">
        <ele>732.8</ele>
        <time>2019-08-15T11:54:00Z</time>
      </trkpt>
      <trkpt lat="41.9545590" lon="-5.5664410">
        <ele>732.8</ele>
        <time>2019-08-15T11:54:01Z</time>
      </trkpt>
      <trkpt lat="41.9545870" lon="-5.5664870">
        <ele>732.8</ele>
        <time>2019-08-15T11:54:02Z</time>
      </trkpt>
      <trkpt lat="41.9546150" lon="-5.5665330">
        <ele>732.8</ele>
        <time>2019-08-15T11:54:03Z</time>
      </trkpt>
      <trkpt lat="41.9546450" lon="-5.5665800">
        <ele>732.8</ele>
        <time>2019-08-15T11:54:04Z</time>
      </trkpt>
      <trkpt lat="41.9546750" lon="-5.5666250">
        <ele>732.8</ele>
        <time>2019-08-15T11:54:05Z</time>
      </trkpt>
      <trkpt lat="41.9547050" lon="-5.5666710">
        <ele>732.7</ele>
        <time>2019-08-15T11:54:06Z</time>
      </trkpt>
      <trkpt lat="41.9547360" lon="-5.5667170">
        <ele>732.7</ele>
        <time>2019-08-15T11:54:07Z</time>
      </trkpt>
      <trkpt lat="41.9547660" lon="-5.5667650">
        <ele>732.7</ele>
        <time>2019-08-15T11:54:08Z</time>
      </trkpt>
      <trkpt lat="41.9547970" lon="-5.5668150">
        <ele>732.6</ele>
        <time>2019-08-15T11:54:09Z</time>
      </trkpt>
      <trkpt lat="41.9548280" lon="-5.5668640">
        <ele>732.6</ele>
        <time>2019-08-15T11:54:10Z</time>
      </trkpt>
      <trkpt lat="41.9548590" lon="-5.5669120">
        <ele>732.5</ele>
        <time>2019-08-15T11:54:11Z</time>
      </trkpt>
      <trkpt lat="41.9548890" lon="-5.5669590">
        <ele>732.5</ele>
        <time>2019-08-15T11:54:12Z</time>
      </trkpt>
      <trkpt lat="41.9549180" lon="-5.5670050">
        <ele>732.4</ele>
        <time>2019-08-15T11:54:13Z</time>
      </trkpt>
      <trkpt lat="41.9549470" lon="-5.5670520">
        <ele>732.3</ele>
        <time>2019-08-15T11:54:14Z</time>
      </trkpt>
      <trkpt lat="41.9549780" lon="-5.5670980">
        <ele>732.2</ele>
        <time>2019-08-15T11:54:15Z</time>
      </trkpt>
      <trkpt lat="41.9550090" lon="-5.5671430">
        <ele>732.1</ele>
        <time>2019-08-15T11:54:16Z</time>
      </trkpt>
      <trkpt lat="41.9550390" lon="-5.5671880">
        <ele>732.1</ele>
        <time>2019-08-15T11:54:17Z</time>
      </trkpt>
      <trkpt lat="41.9550690" lon="-5.5672330">
        <ele>732.0</ele>
        <time>2019-08-15T11:54:18Z</time>
      </trkpt>
      <trkpt lat="41.9550990" lon="-5.5672770">
        <ele>731.9</ele>
        <time>2019-08-15T11:54:19Z</time>
      </trkpt>
      <trkpt lat="41.9551290" lon="-5.5673190">
        <ele>731.9</ele>
        <time>2019-08-15T11:54:20Z</time>
      </trkpt>
      <trkpt lat="41.9551610" lon="-5.5673630">
        <ele>731.8</ele>
        <time>2019-08-15T11:54:21Z</time>
      </trkpt>
      <trkpt lat="41.9551920" lon="-5.5674110">
        <ele>731.7</ele>
        <time>2019-08-15T11:54:22Z</time>
      </trkpt>
      <trkpt lat="41.9552250" lon="-5.5674600">
        <ele>731.7</ele>
        <time>2019-08-15T11:54:23Z</time>
      </trkpt>
      <trkpt lat="41.9552590" lon="-5.5675120">
        <ele>731.6</ele>
        <time>2019-08-15T11:54:24Z</time>
      </trkpt>
      <trkpt lat="41.9552940" lon="-5.5675650">
        <ele>731.5</ele>
        <time>2019-08-15T11:54:25Z</time>
      </trkpt>
      <trkpt lat="41.9553270" lon="-5.5676180">
        <ele>731.4</ele>
        <time>2019-08-15T11:54:26Z</time>
      </trkpt>
      <trkpt lat="41.9553590" lon="-5.5676710">
        <ele>731.3</ele>
        <time>2019-08-15T11:54:27Z</time>
      </trkpt>
      <trkpt lat="41.9553920" lon="-5.5677230">
        <ele>731.2</ele>
        <time>2019-08-15T11:54:28Z</time>
      </trkpt>
      <trkpt lat="41.9554250" lon="-5.5677730">
        <ele>731.1</ele>
        <time>2019-08-15T11:54:29Z</time>
      </trkpt>
      <trkpt lat="41.9554570" lon="-5.5678190">
        <ele>730.9</ele>
        <time>2019-08-15T11:54:30Z</time>
      </trkpt>
      <trkpt lat="41.9554880" lon="-5.5678640">
        <ele>730.8</ele>
        <time>2019-08-15T11:54:31Z</time>
      </trkpt>
      <trkpt lat="41.9555180" lon="-5.5679090">
        <ele>730.7</ele>
        <time>2019-08-15T11:54:32Z</time>
      </trkpt>
      <trkpt lat="41.9555470" lon="-5.5679560">
        <ele>730.6</ele>
        <time>2019-08-15T11:54:33Z</time>
      </trkpt>
      <trkpt lat="41.9555780" lon="-5.5680030">
        <ele>730.6</ele>
        <time>2019-08-15T11:54:34Z</time>
      </trkpt>
      <trkpt lat="41.9556080" lon="-5.5680520">
        <ele>730.5</ele>
        <time>2019-08-15T11:54:35Z</time>
      </trkpt>
      <trkpt lat="41.9556370" lon="-5.5681000">
        <ele>730.4</ele>
        <time>2019-08-15T11:54:36Z</time>
      </trkpt>
      <trkpt lat="41.9556670" lon="-5.5681480">
        <ele>730.4</ele>
        <time>2019-08-15T11:54:37Z</time>
      </trkpt>
      <trkpt lat="41.9556980" lon="-5.5681960">
        <ele>730.3</ele>
        <time>2019-08-15T11:54:38Z</time>
      </trkpt>
      <trkpt lat="41.9557290" lon="-5.5682440">
        <ele>730.3</ele>
        <time>2019-08-15T11:54:39Z</time>
      </trkpt>
      <trkpt lat="41.9557610" lon="-5.5682930">
        <ele>730.4</ele>
        <time>2019-08-15T11:54:40Z</time>
      </trkpt>
      <trkpt lat="41.9557910" lon="-5.5683420">
        <ele>730.4</ele>
        <time>2019-08-15T11:54:41Z</time>
      </trkpt>
      <trkpt lat="41.9558200" lon="-5.5683900">
        <ele>730.4</ele>
        <time>2019-08-15T11:54:42Z</time>
      </trkpt>
      <trkpt lat="41.9558490" lon="-5.5684390">
        <ele>730.5</ele>
        <time>2019-08-15T11:54:43Z</time>
      </trkpt>
      <trkpt lat="41.9558810" lon="-5.5684870">
        <ele>730.5</ele>
        <time>2019-08-15T11:54:44Z</time>
      </trkpt>
      <trkpt lat="41.9559140" lon="-5.5685350">
        <ele>730.7</ele>
        <time>2019-08-15T11:54:45Z</time>
      </trkpt>
      <trkpt lat="41.9559450" lon="-5.5685830">
        <ele>730.8</ele>
        <time>2019-08-15T11:54:46Z</time>
      </trkpt>
      <trkpt lat="41.9559760" lon="-5.5686310">
        <ele>730.9</ele>
        <time>2019-08-15T11:54:47Z</time>
      </trkpt>
      <trkpt lat="41.9560060" lon="-5.5686760">
        <ele>731.1</ele>
        <time>2019-08-15T11:54:48Z</time>
      </trkpt>
      <trkpt lat="41.9560380" lon="-5.5687200">
        <ele>731.2</ele>
        <time>2019-08-15T11:54:49Z</time>
      </trkpt>
      <trkpt lat="41.9560680" lon="-5.5687660">
        <ele>731.3</ele>
        <time>2019-08-15T11:54:50Z</time>
      </trkpt>
      <trkpt lat="41.9560980" lon="-5.5688130">
        <ele>731.4</ele>
        <time>2019-08-15T11:54:51Z</time>
      </trkpt>
      <trkpt lat="41.9561280" lon="-5.5688600">
        <ele>731.6</ele>
        <time>2019-08-15T11:54:52Z</time>
      </trkpt>
      <trkpt lat="41.9561600" lon="-5.5689070">
        <ele>731.7</ele>
        <time>2019-08-15T11:54:53Z</time>
      </trkpt>
      <trkpt lat="41.9561910" lon="-5.5689520">
        <ele>731.7</ele>
        <time>2019-08-15T11:54:54Z</time>
      </trkpt>
      <trkpt lat="41.9562210" lon="-5.5689980">
        <ele>731.8</ele>
        <time>2019-08-15T11:54:55Z</time>
      </trkpt>
      <trkpt lat="41.9562500" lon="-5.5690390">
        <ele>731.8</ele>
        <time>2019-08-15T11:54:56Z</time>
      </trkpt>
      <trkpt lat="41.9562770" lon="-5.5690780">
        <ele>731.8</ele>
        <time>2019-08-15T11:54:57Z</time>
      </trkpt>
      <trkpt lat="41.9563040" lon="-5.5691190">
        <ele>731.8</ele>
        <time>2019-08-15T11:54:58Z</time>
      </trkpt>
      <trkpt lat="41.9563300" lon="-5.5691620">
        <ele>731.7</ele>
        <time>2019-08-15T11:54:59Z</time>
      </trkpt>
      <trkpt lat="41.9563570" lon="-5.5692080">
        <ele>731.7</ele>
        <time>2019-08-15T11:55:00Z</time>
      </trkpt>
      <trkpt lat="41.9563870" lon="-5.5692560">
        <ele>731.5</ele>
        <time>2019-08-15T11:55:01Z</time>
      </trkpt>
      <trkpt lat="41.9564180" lon="-5.5693070">
        <ele>731.3</ele>
        <time>2019-08-15T11:55:02Z</time>
      </trkpt>
      <trkpt lat="41.9564500" lon="-5.5693590">
        <ele>731.1</ele>
        <time>2019-08-15T11:55:03Z</time>
      </trkpt>
      <trkpt lat="41.9564810" lon="-5.5694120">
        <ele>730.9</ele>
        <time>2019-08-15T11:55:04Z</time>
      </trkpt>
      <trkpt lat="41.9565130" lon="-5.5694650">
        <ele>730.7</ele>
        <time>2019-08-15T11:55:05Z</time>
      </trkpt>
      <trkpt lat="41.9565440" lon="-5.5695160">
        <ele>730.6</ele>
        <time>2019-08-15T11:55:06Z</time>
      </trkpt>
      <trkpt lat="41.9565770" lon="-5.5695680">
        <ele>730.4</ele>
        <time>2019-08-15T11:55:07Z</time>
      </trkpt>
      <trkpt lat="41.9566090" lon="-5.5696190">
        <ele>730.2</ele>
        <time>2019-08-15T11:55:08Z</time>
      </trkpt>
      <trkpt lat="41.9566420" lon="-5.5696700">
        <ele>730.0</ele>
        <time>2019-08-15T11:55:09Z</time>
      </trkpt>
      <trkpt lat="41.9566740" lon="-5.5697210">
        <ele>729.9</ele>
        <time>2019-08-15T11:55:10Z</time>
      </trkpt>
      <trkpt lat="41.9567070" lon="-5.5697730">
        <ele>729.7</ele>
        <time>2019-08-15T11:55:11Z</time>
      </trkpt>
      <trkpt lat="41.9567410" lon="-5.5698250">
        <ele>729.4</ele>
        <time>2019-08-15T11:55:12Z</time>
      </trkpt>
      <trkpt lat="41.9567730" lon="-5.5698790">
        <ele>729.3</ele>
        <time>2019-08-15T11:55:13Z</time>
      </trkpt>
      <trkpt lat="41.9568060" lon="-5.5699360">
        <ele>729.1</ele>
        <time>2019-08-15T11:55:14Z</time>
      </trkpt>
      <trkpt lat="41.9568390" lon="-5.5699900">
        <ele>729.0</ele>
        <time>2019-08-15T11:55:15Z</time>
      </trkpt>
      <trkpt lat="41.9568720" lon="-5.5700430">
        <ele>728.9</ele>
        <time>2019-08-15T11:55:16Z</time>
      </trkpt>
      <trkpt lat="41.9569060" lon="-5.5700970">
        <ele>728.7</ele>
        <time>2019-08-15T11:55:17Z</time>
      </trkpt>
      <trkpt lat="41.9569400" lon="-5.5701510">
        <ele>728.5</ele>
        <time>2019-08-15T11:55:18Z</time>
      </trkpt>
      <trkpt lat="41.9569740" lon="-5.5702080">
        <ele>728.4</ele>
        <time>2019-08-15T11:55:19Z</time>
      </trkpt>
      <trkpt lat="41.9570080" lon="-5.5702650">
        <ele>728.2</ele>
        <time>2019-08-15T11:55:20Z</time>
      </trkpt>
      <trkpt lat="41.9570440" lon="-5.5703240">
        <ele>728.1</ele>
        <time>2019-08-15T11:55:21Z</time>
      </trkpt>
      <trkpt lat="41.9570790" lon="-5.5703830">
        <ele>727.9</ele>
        <time>2019-08-15T11:55:22Z</time>
      </trkpt>
      <trkpt lat="41.9571160" lon="-5.5704430">
        <ele>727.7</ele>
        <time>2019-08-15T11:55:23Z</time>
      </trkpt>
      <trkpt lat="41.9571540" lon="-5.5705040">
        <ele>727.7</ele>
        <time>2019-08-15T11:55:24Z</time>
      </trkpt>
      <trkpt lat="41.9571920" lon="-5.5705670">
        <ele>727.6</ele>
        <time>2019-08-15T11:55:25Z</time>
      </trkpt>
      <trkpt lat="41.9572300" lon="-5.5706280">
        <ele>727.5</ele>
        <time>2019-08-15T11:55:26Z</time>
      </trkpt>
      <trkpt lat="41.9572690" lon="-5.5706930">
        <ele>727.4</ele>
        <time>2019-08-15T11:55:27Z</time>
      </trkpt>
      <trkpt lat="41.9573090" lon="-5.5707580">
        <ele>727.3</ele>
        <time>2019-08-15T11:55:28Z</time>
      </trkpt>
      <trkpt lat="41.9573500" lon="-5.5708250">
        <ele>727.2</ele>
        <time>2019-08-15T11:55:29Z</time>
      </trkpt>
      <trkpt lat="41.9573910" lon="-5.5708930">
        <ele>727.0</ele>
        <time>2019-08-15T11:55:30Z</time>
      </trkpt>
      <trkpt lat="41.9574320" lon="-5.5709620">
        <ele>726.8</ele>
        <time>2019-08-15T11:55:31Z</time>
      </trkpt>
      <trkpt lat="41.9574730" lon="-5.5710310">
        <ele>726.7</ele>
        <time>2019-08-15T11:55:32Z</time>
      </trkpt>
      <trkpt lat="41.9575170" lon="-5.5710970">
        <ele>726.5</ele>
        <time>2019-08-15T11:55:33Z</time>
      </trkpt>
      <trkpt lat="41.9575590" lon="-5.5711650">
        <ele>726.4</ele>
        <time>2019-08-15T11:55:34Z</time>
      </trkpt>
      <trkpt lat="41.9576010" lon="-5.5712320">
        <ele>726.2</ele>
        <time>2019-08-15T11:55:35Z</time>
      </trkpt>
      <trkpt lat="41.9576460" lon="-5.5712960">
        <ele>726.1</ele>
        <time>2019-08-15T11:55:36Z</time>
      </trkpt>
      <trkpt lat="41.9576890" lon="-5.5713580">
        <ele>726.0</ele>
        <time>2019-08-15T11:55:37Z</time>
      </trkpt>
      <trkpt lat="41.9577290" lon="-5.5714200">
        <ele>726.0</ele>
        <time>2019-08-15T11:55:38Z</time>
      </trkpt>
      <trkpt lat="41.9577660" lon="-5.5714820">
        <ele>726.0</ele>
        <time>2019-08-15T11:55:39Z</time>
      </trkpt>
      <trkpt lat="41.9578020" lon="-5.5715430">
        <ele>726.1</ele>
        <time>2019-08-15T11:55:40Z</time>
      </trkpt>
      <trkpt lat="41.9578380" lon="-5.5716010">
        <ele>726.2</ele>
        <time>2019-08-15T11:55:41Z</time>
      </trkpt>
      <trkpt lat="41.9578730" lon="-5.5716570">
        <ele>726.3</ele>
        <time>2019-08-15T11:55:42Z</time>
      </trkpt>
      <trkpt lat="41.9579060" lon="-5.5717090">
        <ele>726.4</ele>
        <time>2019-08-15T11:55:43Z</time>
      </trkpt>
      <trkpt lat="41.9579370" lon="-5.5717600">
        <ele>726.5</ele>
        <time>2019-08-15T11:55:44Z</time>
      </trkpt>
      <trkpt lat="41.9579670" lon="-5.5718090">
        <ele>726.6</ele>
        <time>2019-08-15T11:55:45Z</time>
      </trkpt>
      <trkpt lat="41.9579970" lon="-5.5718580">
        <ele>726.7</ele>
        <time>2019-08-15T11:55:46Z</time>
      </trkpt>
      <trkpt lat="41.9580270" lon="-5.5719050">
        <ele>726.8</ele>
        <time>2019-08-15T11:55:47Z</time>
      </trkpt>
      <trkpt lat="41.9580560" lon="-5.5719500">
        <ele>727.0</ele>
        <time>2019-08-15T11:55:48Z</time>
      </trkpt>
      <trkpt lat="41.9580840" lon="-5.5719960">
        <ele>727.1</ele>
        <time>2019-08-15T11:55:49Z</time>
      </trkpt>
      <trkpt lat="41.9581120" lon="-5.5720420">
        <ele>727.3</ele>
        <time>2019-08-15T11:55:50Z</time>
      </trkpt>
      <trkpt lat="41.9581400" lon="-5.5720840">
        <ele>727.5</ele>
        <time>2019-08-15T11:55:51Z</time>
      </trkpt>
      <trkpt lat="41.9581670" lon="-5.5721270">
        <ele>727.7</ele>
        <time>2019-08-15T11:55:52Z</time>
      </trkpt>
      <trkpt lat="41.9581940" lon="-5.5721680">
        <ele>727.8</ele>
        <time>2019-08-15T11:55:53Z</time>
      </trkpt>
      <trkpt lat="41.9582200" lon="-5.5722090">
        <ele>727.9</ele>
        <time>2019-08-15T11:55:54Z</time>
      </trkpt>
      <trkpt lat="41.9582450" lon="-5.5722490">
        <ele>728.0</ele>
        <time>2019-08-15T11:55:55Z</time>
      </trkpt>
      <trkpt lat="41.9582710" lon="-5.5722880">
        <ele>728.1</ele>
        <time>2019-08-15T11:55:56Z</time>
      </trkpt>
      <trkpt lat="41.9582960" lon="-5.5723260">
        <ele>728.3</ele>
        <time>2019-08-15T11:55:57Z</time>
      </trkpt>
      <trkpt lat="41.9583210" lon="-5.5723630">
        <ele>728.4</ele>
        <time>2019-08-15T11:55:58Z</time>
      </trkpt>
      <trkpt lat="41.9583440" lon="-5.5723980">
        <ele>728.5</ele>
        <time>2019-08-15T11:55:59Z</time>
      </trkpt>
      <trkpt lat="41.9583680" lon="-5.5724360">
        <ele>728.7</ele>
        <time>2019-08-15T11:56:00Z</time>
      </trkpt>
      <trkpt lat="41.9583910" lon="-5.5724710">
        <ele>728.9</ele>
        <time>2019-08-15T11:56:01Z</time>
      </trkpt>
      <trkpt lat="41.9584140" lon="-5.5725050">
        <ele>729.0</ele>
        <time>2019-08-15T11:56:02Z</time>
      </trkpt>
      <trkpt lat="41.9584360" lon="-5.5725390">
        <ele>729.2</ele>
        <time>2019-08-15T11:56:03Z</time>
      </trkpt>
      <trkpt lat="41.9584590" lon="-5.5725750">
        <ele>729.3</ele>
        <time>2019-08-15T11:56:04Z</time>
      </trkpt>
      <trkpt lat="41.9584810" lon="-5.5726120">
        <ele>729.5</ele>
        <time>2019-08-15T11:56:05Z</time>
      </trkpt>
      <trkpt lat="41.9585040" lon="-5.5726500">
        <ele>729.6</ele>
        <time>2019-08-15T11:56:06Z</time>
      </trkpt>
      <trkpt lat="41.9585270" lon="-5.5726870">
        <ele>729.7</ele>
        <time>2019-08-15T11:56:07Z</time>
      </trkpt>
      <trkpt lat="41.9585490" lon="-5.5727240">
        <ele>729.8</ele>
        <time>2019-08-15T11:56:08Z</time>
      </trkpt>
      <trkpt lat="41.9585710" lon="-5.5727610">
        <ele>729.9</ele>
        <time>2019-08-15T11:56:09Z</time>
      </trkpt>
      <trkpt lat="41.9585930" lon="-5.5727990">
        <ele>730.1</ele>
        <time>2019-08-15T11:56:10Z</time>
      </trkpt>
      <trkpt lat="41.9586160" lon="-5.5728370">
        <ele>730.2</ele>
        <time>2019-08-15T11:56:11Z</time>
      </trkpt>
      <trkpt lat="41.9586380" lon="-5.5728750">
        <ele>730.3</ele>
        <time>2019-08-15T11:56:12Z</time>
      </trkpt>
      <trkpt lat="41.9586610" lon="-5.5729130">
        <ele>730.5</ele>
        <time>2019-08-15T11:56:13Z</time>
      </trkpt>
      <trkpt lat="41.9586840" lon="-5.5729500">
        <ele>730.6</ele>
        <time>2019-08-15T11:56:14Z</time>
      </trkpt>
      <trkpt lat="41.9587070" lon="-5.5729870">
        <ele>730.7</ele>
        <time>2019-08-15T11:56:15Z</time>
      </trkpt>
      <trkpt lat="41.9587290" lon="-5.5730250">
        <ele>730.8</ele>
        <time>2019-08-15T11:56:16Z</time>
      </trkpt>
      <trkpt lat="41.9587500" lon="-5.5730620">
        <ele>730.9</ele>
        <time>2019-08-15T11:56:17Z</time>
      </trkpt>
      <trkpt lat="41.9587720" lon="-5.5730990">
        <ele>731.0</ele>
        <time>2019-08-15T11:56:18Z</time>
      </trkpt>
      <trkpt lat="41.9587950" lon="-5.5731380">
        <ele>731.0</ele>
        <time>2019-08-15T11:56:19Z</time>
      </trkpt>
      <trkpt lat="41.9588180" lon="-5.5731780">
        <ele>731.0</ele>
        <time>2019-08-15T11:56:20Z</time>
      </trkpt>
      <trkpt lat="41.9588410" lon="-5.5732180">
        <ele>731.1</ele>
        <time>2019-08-15T11:56:21Z</time>
      </trkpt>
      <trkpt lat="41.9588650" lon="-5.5732600">
        <ele>731.2</ele>
        <time>2019-08-15T11:56:22Z</time>
      </trkpt>
      <trkpt lat="41.9588900" lon="-5.5733010">
        <ele>731.2</ele>
        <time>2019-08-15T11:56:23Z</time>
      </trkpt>
      <trkpt lat="41.9589150" lon="-5.5733430">
        <ele>731.3</ele>
        <time>2019-08-15T11:56:24Z</time>
      </trkpt>
      <trkpt lat="41.9589390" lon="-5.5733840">
        <ele>731.3</ele>
        <time>2019-08-15T11:56:25Z</time>
      </trkpt>
      <trkpt lat="41.9589640" lon="-5.5734220">
        <ele>731.3</ele>
        <time>2019-08-15T11:56:26Z</time>
      </trkpt>
      <trkpt lat="41.9589880" lon="-5.5734610">
        <ele>731.4</ele>
        <time>2019-08-15T11:56:27Z</time>
      </trkpt>
      <trkpt lat="41.9590110" lon="-5.5735000">
        <ele>731.4</ele>
        <time>2019-08-15T11:56:28Z</time>
      </trkpt>
      <trkpt lat="41.9590350" lon="-5.5735380">
        <ele>731.4</ele>
        <time>2019-08-15T11:56:29Z</time>
      </trkpt>
      <trkpt lat="41.9590580" lon="-5.5735770">
        <ele>731.4</ele>
        <time>2019-08-15T11:56:30Z</time>
      </trkpt>
      <trkpt lat="41.9590810" lon="-5.5736160">
        <ele>731.4</ele>
        <time>2019-08-15T11:56:31Z</time>
      </trkpt>
      <trkpt lat="41.9591030" lon="-5.5736540">
        <ele>731.4</ele>
        <time>2019-08-15T11:56:32Z</time>
      </trkpt>
      <trkpt lat="41.9591260" lon="-5.5736940">
        <ele>731.4</ele>
        <time>2019-08-15T11:56:33Z</time>
      </trkpt>
      <trkpt lat="41.9591500" lon="-5.5737340">
        <ele>731.4</ele>
        <time>2019-08-15T11:56:34Z</time>
      </trkpt>
      <trkpt lat="41.9591750" lon="-5.5737760">
        <ele>731.4</ele>
        <time>2019-08-15T11:56:35Z</time>
      </trkpt>
      <trkpt lat="41.9592040" lon="-5.5738200">
        <ele>731.4</ele>
        <time>2019-08-15T11:56:36Z</time>
      </trkpt>
      <trkpt lat="41.9592330" lon="-5.5738660">
        <ele>731.4</ele>
        <time>2019-08-15T11:56:37Z</time>
      </trkpt>
      <trkpt lat="41.9592620" lon="-5.5739140">
        <ele>731.4</ele>
        <time>2019-08-15T11:56:38Z</time>
      </trkpt>
      <trkpt lat="41.9592910" lon="-5.5739610">
        <ele>731.4</ele>
        <time>2019-08-15T11:56:39Z</time>
      </trkpt>
      <trkpt lat="41.9593200" lon="-5.5740080">
        <ele>731.3</ele>
        <time>2019-08-15T11:56:40Z</time>
      </trkpt>
      <trkpt lat="41.9593500" lon="-5.5740540">
        <ele>731.3</ele>
        <time>2019-08-15T11:56:41Z</time>
      </trkpt>
      <trkpt lat="41.9593780" lon="-5.5740990">
        <ele>731.3</ele>
        <time>2019-08-15T11:56:42Z</time>
      </trkpt>
      <trkpt lat="41.9594050" lon="-5.5741450">
        <ele>731.3</ele>
        <time>2019-08-15T11:56:43Z</time>
      </trkpt>
      <trkpt lat="41.9594330" lon="-5.5741930">
        <ele>731.2</ele>
        <time>2019-08-15T11:56:44Z</time>
      </trkpt>
      <trkpt lat="41.9594620" lon="-5.5742410">
        <ele>731.2</ele>
        <time>2019-08-15T11:56:45Z</time>
      </trkpt>
      <trkpt lat="41.9594920" lon="-5.5742900">
        <ele>731.1</ele>
        <time>2019-08-15T11:56:46Z</time>
      </trkpt>
      <trkpt lat="41.9595230" lon="-5.5743390">
        <ele>731.0</ele>
        <time>2019-08-15T11:56:47Z</time>
      </trkpt>
      <trkpt lat="41.9595550" lon="-5.5743890">
        <ele>731.0</ele>
        <time>2019-08-15T11:56:48Z</time>
      </trkpt>
      <trkpt lat="41.9595860" lon="-5.5744410">
        <ele>730.9</ele>
        <time>2019-08-15T11:56:49Z</time>
      </trkpt>
      <trkpt lat="41.9596180" lon="-5.5744940">
        <ele>730.9</ele>
        <time>2019-08-15T11:56:50Z</time>
      </trkpt>
      <trkpt lat="41.9596520" lon="-5.5745450">
        <ele>730.9</ele>
        <time>2019-08-15T11:56:51Z</time>
      </trkpt>
      <trkpt lat="41.9596870" lon="-5.5745970">
        <ele>730.9</ele>
        <time>2019-08-15T11:56:52Z</time>
      </trkpt>
      <trkpt lat="41.9597210" lon="-5.5746490">
        <ele>730.9</ele>
        <time>2019-08-15T11:56:53Z</time>
      </trkpt>
      <trkpt lat="41.9597540" lon="-5.5747030">
        <ele>730.9</ele>
        <time>2019-08-15T11:56:54Z</time>
      </trkpt>
      <trkpt lat="41.9597850" lon="-5.5747560">
        <ele>730.9</ele>
        <time>2019-08-15T11:56:55Z</time>
      </trkpt>
      <trkpt lat="41.9598160" lon="-5.5748100">
        <ele>731.0</ele>
        <time>2019-08-15T11:56:56Z</time>
      </trkpt>
      <trkpt lat="41.9598480" lon="-5.5748630">
        <ele>731.1</ele>
        <time>2019-08-15T11:56:57Z</time>
      </trkpt>
      <trkpt lat="41.9598790" lon="-5.5749150">
        <ele>731.1</ele>
        <time>2019-08-15T11:56:58Z</time>
      </trkpt>
      <trkpt lat="41.9599110" lon="-5.5749670">
        <ele>731.2</ele>
        <time>2019-08-15T11:56:59Z</time>
      </trkpt>
      <trkpt lat="41.9599440" lon="-5.5750180">
        <ele>731.3</ele>
        <time>2019-08-15T11:57:00Z</time>
      </trkpt>
      <trkpt lat="41.9599770" lon="-5.5750700">
        <ele>731.4</ele>
        <time>2019-08-15T11:57:01Z</time>
      </trkpt>
      <trkpt lat="41.9600100" lon="-5.5751220">
        <ele>731.5</ele>
        <time>2019-08-15T11:57:02Z</time>
      </trkpt>
      <trkpt lat="41.9600430" lon="-5.5751740">
        <ele>731.6</ele>
        <time>2019-08-15T11:57:03Z</time>
      </trkpt>
      <trkpt lat="41.9600760" lon="-5.5752250">
        <ele>731.7</ele>
        <time>2019-08-15T11:57:04Z</time>
      </trkpt>
      <trkpt lat="41.9601090" lon="-5.5752780">
        <ele>731.8</ele>
        <time>2019-08-15T11:57:05Z</time>
      </trkpt>
      <trkpt lat="41.9601420" lon="-5.5753300">
        <ele>731.8</ele>
        <time>2019-08-15T11:57:06Z</time>
      </trkpt>
      <trkpt lat="41.9601740" lon="-5.5753810">
        <ele>731.9</ele>
        <time>2019-08-15T11:57:07Z</time>
      </trkpt>
      <trkpt lat="41.9602050" lon="-5.5754310">
        <ele>732.0</ele>
        <time>2019-08-15T11:57:08Z</time>
      </trkpt>
      <trkpt lat="41.9602340" lon="-5.5754800">
        <ele>732.1</ele>
        <time>2019-08-15T11:57:09Z</time>
      </trkpt>
      <trkpt lat="41.9602670" lon="-5.5755290">
        <ele>732.1</ele>
        <time>2019-08-15T11:57:10Z</time>
      </trkpt>
      <trkpt lat="41.9602990" lon="-5.5755800">
        <ele>732.1</ele>
        <time>2019-08-15T11:57:11Z</time>
      </trkpt>
      <trkpt lat="41.9603310" lon="-5.5756340">
        <ele>732.1</ele>
        <time>2019-08-15T11:57:12Z</time>
      </trkpt>
      <trkpt lat="41.9603630" lon="-5.5756900">
        <ele>732.1</ele>
        <time>2019-08-15T11:57:13Z</time>
      </trkpt>
      <trkpt lat="41.9603970" lon="-5.5757460">
        <ele>732.1</ele>
        <time>2019-08-15T11:57:14Z</time>
      </trkpt>
      <trkpt lat="41.9604320" lon="-5.5758000">
        <ele>732.1</ele>
        <time>2019-08-15T11:57:15Z</time>
      </trkpt>
      <trkpt lat="41.9604660" lon="-5.5758550">
        <ele>732.0</ele>
        <time>2019-08-15T11:57:16Z</time>
      </trkpt>
      <trkpt lat="41.9605000" lon="-5.5759100">
        <ele>732.0</ele>
        <time>2019-08-15T11:57:17Z</time>
      </trkpt>
      <trkpt lat="41.9605350" lon="-5.5759650">
        <ele>732.0</ele>
        <time>2019-08-15T11:57:18Z</time>
      </trkpt>
      <trkpt lat="41.9605700" lon="-5.5760210">
        <ele>732.0</ele>
        <time>2019-08-15T11:57:19Z</time>
      </trkpt>
      <trkpt lat="41.9606050" lon="-5.5760760">
        <ele>731.9</ele>
        <time>2019-08-15T11:57:20Z</time>
      </trkpt>
      <trkpt lat="41.9606390" lon="-5.5761300">
        <ele>731.9</ele>
        <time>2019-08-15T11:57:21Z</time>
      </trkpt>
      <trkpt lat="41.9606730" lon="-5.5761850">
        <ele>731.8</ele>
        <time>2019-08-15T11:57:22Z</time>
      </trkpt>
      <trkpt lat="41.9607070" lon="-5.5762390">
        <ele>731.8</ele>
        <time>2019-08-15T11:57:23Z</time>
      </trkpt>
      <trkpt lat="41.9607410" lon="-5.5762950">
        <ele>731.8</ele>
        <time>2019-08-15T11:57:24Z</time>
      </trkpt>
      <trkpt lat="41.9607760" lon="-5.5763500">
        <ele>731.7</ele>
        <time>2019-08-15T11:57:25Z</time>
      </trkpt>
      <trkpt lat="41.9608120" lon="-5.5764060">
        <ele>731.7</ele>
        <time>2019-08-15T11:57:26Z</time>
      </trkpt>
      <trkpt lat="41.9608480" lon="-5.5764620">
        <ele>731.7</ele>
        <time>2019-08-15T11:57:27Z</time>
      </trkpt>
      <trkpt lat="41.9608850" lon="-5.5765190">
        <ele>731.7</ele>
        <time>2019-08-15T11:57:28Z</time>
      </trkpt>
      <trkpt lat="41.9609210" lon="-5.5765780">
        <ele>731.7</ele>
        <time>2019-08-15T11:57:29Z</time>
      </trkpt>
      <trkpt lat="41.9609580" lon="-5.5766350">
        <ele>731.7</ele>
        <time>2019-08-15T11:57:30Z</time>
      </trkpt>
      <trkpt lat="41.9609960" lon="-5.5766950">
        <ele>731.7</ele>
        <time>2019-08-15T11:57:31Z</time>
      </trkpt>
      <trkpt lat="41.9610330" lon="-5.5767540">
        <ele>731.7</ele>
        <time>2019-08-15T11:57:32Z</time>
      </trkpt>
      <trkpt lat="41.9610690" lon="-5.5768140">
        <ele>731.7</ele>
        <time>2019-08-15T11:57:33Z</time>
      </trkpt>
      <trkpt lat="41.9611040" lon="-5.5768730">
        <ele>731.7</ele>
        <time>2019-08-15T11:57:34Z</time>
      </trkpt>
      <trkpt lat="41.9611390" lon="-5.5769320">
        <ele>731.8</ele>
        <time>2019-08-15T11:57:35Z</time>
      </trkpt>
      <trkpt lat="41.9611760" lon="-5.5769910">
        <ele>731.8</ele>
        <time>2019-08-15T11:57:36Z</time>
      </trkpt>
      <trkpt lat="41.9612120" lon="-5.5770510">
        <ele>731.8</ele>
        <time>2019-08-15T11:57:37Z</time>
      </trkpt>
      <trkpt lat="41.9612480" lon="-5.5771110">
        <ele>731.8</ele>
        <time>2019-08-15T11:57:38Z</time>
      </trkpt>
      <trkpt lat="41.9612840" lon="-5.5771720">
        <ele>731.8</ele>
        <time>2019-08-15T11:57:39Z</time>
      </trkpt>
      <trkpt lat="41.9613200" lon="-5.5772300">
        <ele>731.7</ele>
        <time>2019-08-15T11:57:40Z</time>
      </trkpt>
      <trkpt lat="41.9613560" lon="-5.5772860">
        <ele>731.6</ele>
        <time>2019-08-15T11:57:41Z</time>
      </trkpt>
      <trkpt lat="41.9613910" lon="-5.5773400">
        <ele>731.5</ele>
        <time>2019-08-15T11:57:42Z</time>
      </trkpt>
      <trkpt lat="41.9614250" lon="-5.5773950">
        <ele>731.4</ele>
        <time>2019-08-15T11:57:43Z</time>
      </trkpt>
      <trkpt lat="41.9614590" lon="-5.5774510">
        <ele>731.2</ele>
        <time>2019-08-15T11:57:44Z</time>
      </trkpt>
      <trkpt lat="41.9614950" lon="-5.5775090">
        <ele>731.0</ele>
        <time>2019-08-15T11:57:45Z</time>
      </trkpt>
      <trkpt lat="41.9615330" lon="-5.5775690">
        <ele>730.7</ele>
        <time>2019-08-15T11:57:46Z</time>
      </trkpt>
      <trkpt lat="41.9615720" lon="-5.5776300">
        <ele>730.5</ele>
        <time>2019-08-15T11:57:47Z</time>
      </trkpt>
      <trkpt lat="41.9616090" lon="-5.5776910">
        <ele>730.3</ele>
        <time>2019-08-15T11:57:48Z</time>
      </trkpt>
      <trkpt lat="41.9616480" lon="-5.5777530">
        <ele>730.0</ele>
        <time>2019-08-15T11:57:49Z</time>
      </trkpt>
      <trkpt lat="41.9616870" lon="-5.5778160">
        <ele>729.8</ele>
        <time>2019-08-15T11:57:50Z</time>
      </trkpt>
      <trkpt lat="41.9617270" lon="-5.5778790">
        <ele>729.6</ele>
        <time>2019-08-15T11:57:51Z</time>
      </trkpt>
      <trkpt lat="41.9617660" lon="-5.5779430">
        <ele>729.4</ele>
        <time>2019-08-15T11:57:52Z</time>
      </trkpt>
      <trkpt lat="41.9618050" lon="-5.5780070">
        <ele>729.3</ele>
        <time>2019-08-15T11:57:53Z</time>
      </trkpt>
      <trkpt lat="41.9618440" lon="-5.5780710">
        <ele>729.2</ele>
        <time>2019-08-15T11:57:54Z</time>
      </trkpt>
      <trkpt lat="41.9618810" lon="-5.5781330">
        <ele>729.1</ele>
        <time>2019-08-15T11:57:55Z</time>
      </trkpt>
      <trkpt lat="41.9619180" lon="-5.5781910">
        <ele>729.0</ele>
        <time>2019-08-15T11:57:56Z</time>
      </trkpt>
      <trkpt lat="41.9619540" lon="-5.5782490">
        <ele>729.1</ele>
        <time>2019-08-15T11:57:57Z</time>
      </trkpt>
      <trkpt lat="41.9619880" lon="-5.5783070">
        <ele>729.1</ele>
        <time>2019-08-15T11:57:58Z</time>
      </trkpt>
      <trkpt lat="41.9620210" lon="-5.5783610">
        <ele>729.2</ele>
        <time>2019-08-15T11:57:59Z</time>
      </trkpt>
      <trkpt lat="41.9620550" lon="-5.5784140">
        <ele>729.3</ele>
        <time>2019-08-15T11:58:00Z</time>
      </trkpt>
      <trkpt lat="41.9620870" lon="-5.5784710">
        <ele>729.5</ele>
        <time>2019-08-15T11:58:01Z</time>
      </trkpt>
      <trkpt lat="41.9621190" lon="-5.5785280">
        <ele>729.6</ele>
        <time>2019-08-15T11:58:02Z</time>
      </trkpt>
      <trkpt lat="41.9621540" lon="-5.5785840">
        <ele>729.8</ele>
        <time>2019-08-15T11:58:03Z</time>
      </trkpt>
      <trkpt lat="41.9621880" lon="-5.5786430">
        <ele>730.1</ele>
        <time>2019-08-15T11:58:04Z</time>
      </trkpt>
      <trkpt lat="41.9622200" lon="-5.5786980">
        <ele>730.3</ele>
        <time>2019-08-15T11:58:05Z</time>
      </trkpt>
      <trkpt lat="41.9622540" lon="-5.5787540">
        <ele>730.4</ele>
        <time>2019-08-15T11:58:06Z</time>
      </trkpt>
      <trkpt lat="41.9622880" lon="-5.5788070">
        <ele>730.6</ele>
        <time>2019-08-15T11:58:07Z</time>
      </trkpt>
      <trkpt lat="41.9623210" lon="-5.5788560">
        <ele>730.9</ele>
        <time>2019-08-15T11:58:08Z</time>
      </trkpt>
      <trkpt lat="41.9623510" lon="-5.5789040">
        <ele>731.1</ele>
        <time>2019-08-15T11:58:09Z</time>
      </trkpt>
      <trkpt lat="41.9623800" lon="-5.5789500">
        <ele>731.2</ele>
        <time>2019-08-15T11:58:10Z</time>
      </trkpt>
      <trkpt lat="41.9624080" lon="-5.5789940">
        <ele>731.3</ele>
        <time>2019-08-15T11:58:11Z</time>
      </trkpt>
      <trkpt lat="41.9624320" lon="-5.5790370">
        <ele>731.4</ele>
        <time>2019-08-15T11:58:12Z</time>
      </trkpt>
      <trkpt lat="41.9624560" lon="-5.5790790">
        <ele>731.5</ele>
        <time>2019-08-15T11:58:13Z</time>
      </trkpt>
      <trkpt lat="41.9624830" lon="-5.5791200">
        <ele>731.6</ele>
        <time>2019-08-15T11:58:14Z</time>
      </trkpt>
      <trkpt lat="41.9625130" lon="-5.5791620">
        <ele>731.7</ele>
        <time>2019-08-15T11:58:15Z</time>
      </trkpt>
      <trkpt lat="41.9625450" lon="-5.5792060">
        <ele>731.8</ele>
        <time>2019-08-15T11:58:16Z</time>
      </trkpt>
      <trkpt lat="41.9625780" lon="-5.5792550">
        <ele>731.8</ele>
        <time>2019-08-15T11:58:17Z</time>
      </trkpt>
      <trkpt lat="41.9626090" lon="-5.5793030">
        <ele>731.8</ele>
        <time>2019-08-15T11:58:18Z</time>
      </trkpt>
      <trkpt lat="41.9626410" lon="-5.5793540">
        <ele>731.8</ele>
        <time>2019-08-15T11:58:19Z</time>
      </trkpt>
      <trkpt lat="41.9626730" lon="-5.5794050">
        <ele>731.8</ele>
        <time>2019-08-15T11:58:20Z</time>
      </trkpt>
      <trkpt lat="41.9627070" lon="-5.5794550">
        <ele>731.7</ele>
        <time>2019-08-15T11:58:21Z</time>
      </trkpt>
      <trkpt lat="41.9627400" lon="-5.5795080">
        <ele>731.6</ele>
        <time>2019-08-15T11:58:22Z</time>
      </trkpt>
      <trkpt lat="41.9627740" lon="-5.5795640">
        <ele>731.4</ele>
        <time>2019-08-15T11:58:23Z</time>
      </trkpt>
      <trkpt lat="41.9628080" lon="-5.5796210">
        <ele>731.2</ele>
        <time>2019-08-15T11:58:24Z</time>
      </trkpt>
      <trkpt lat="41.9628430" lon="-5.5796790">
        <ele>731.0</ele>
        <time>2019-08-15T11:58:25Z</time>
      </trkpt>
      <trkpt lat="41.9628790" lon="-5.5797400">
        <ele>730.7</ele>
        <time>2019-08-15T11:58:26Z</time>
      </trkpt>
      <trkpt lat="41.9629140" lon="-5.5798010">
        <ele>730.4</ele>
        <time>2019-08-15T11:58:27Z</time>
      </trkpt>
      <trkpt lat="41.9629500" lon="-5.5798630">
        <ele>730.1</ele>
        <time>2019-08-15T11:58:28Z</time>
      </trkpt>
      <trkpt lat="41.9629850" lon="-5.5799210">
        <ele>729.8</ele>
        <time>2019-08-15T11:58:29Z</time>
      </trkpt>
      <trkpt lat="41.9630190" lon="-5.5799790">
        <ele>729.4</ele>
        <time>2019-08-15T11:58:30Z</time>
      </trkpt>
      <trkpt lat="41.9630550" lon="-5.5800370">
        <ele>729.2</ele>
        <time>2019-08-15T11:58:31Z</time>
      </trkpt>
      <trkpt lat="41.9630900" lon="-5.5800930">
        <ele>728.9</ele>
        <time>2019-08-15T11:58:32Z</time>
      </trkpt>
      <trkpt lat="41.9631250" lon="-5.5801500">
        <ele>728.7</ele>
        <time>2019-08-15T11:58:33Z</time>
      </trkpt>
      <trkpt lat="41.9631580" lon="-5.5802070">
        <ele>728.5</ele>
        <time>2019-08-15T11:58:34Z</time>
      </trkpt>
      <trkpt lat="41.9631920" lon="-5.5802640">
        <ele>728.4</ele>
        <time>2019-08-15T11:58:35Z</time>
      </trkpt>
      <trkpt lat="41.9632250" lon="-5.5803250">
        <ele>728.2</ele>
        <time>2019-08-15T11:58:36Z</time>
      </trkpt>
      <trkpt lat="41.9632610" lon="-5.5803830">
        <ele>728.1</ele>
        <time>2019-08-15T11:58:37Z</time>
      </trkpt>
      <trkpt lat="41.9632960" lon="-5.5804410">
        <ele>728.0</ele>
        <time>2019-08-15T11:58:38Z</time>
      </trkpt>
      <trkpt lat="41.9633300" lon="-5.5804970">
        <ele>727.8</ele>
        <time>2019-08-15T11:58:39Z</time>
      </trkpt>
      <trkpt lat="41.9633650" lon="-5.5805560">
        <ele>727.7</ele>
        <time>2019-08-15T11:58:40Z</time>
      </trkpt>
      <trkpt lat="41.9634020" lon="-5.5806170">
        <ele>727.7</ele>
        <time>2019-08-15T11:58:41Z</time>
      </trkpt>
      <trkpt lat="41.9634380" lon="-5.5806820">
        <ele>727.7</ele>
        <time>2019-08-15T11:58:42Z</time>
      </trkpt>
      <trkpt lat="41.9634760" lon="-5.5807480">
        <ele>727.7</ele>
        <time>2019-08-15T11:58:43Z</time>
      </trkpt>
      <trkpt lat="41.9635150" lon="-5.5808130">
        <ele>727.8</ele>
        <time>2019-08-15T11:58:44Z</time>
      </trkpt>
      <trkpt lat="41.9635550" lon="-5.5808760">
        <ele>727.8</ele>
        <time>2019-08-15T11:58:45Z</time>
      </trkpt>
      <trkpt lat="41.9635940" lon="-5.5809360">
        <ele>727.9</ele>
        <time>2019-08-15T11:58:46Z</time>
      </trkpt>
      <trkpt lat="41.9636320" lon="-5.5809960">
        <ele>728.0</ele>
        <time>2019-08-15T11:58:47Z</time>
      </trkpt>
      <trkpt lat="41.9636710" lon="-5.5810550">
        <ele>728.1</ele>
        <time>2019-08-15T11:58:48Z</time>
      </trkpt>
      <trkpt lat="41.9637120" lon="-5.5811160">
        <ele>728.2</ele>
        <time>2019-08-15T11:58:49Z</time>
      </trkpt>
      <trkpt lat="41.9637520" lon="-5.5811780">
        <ele>728.4</ele>
        <time>2019-08-15T11:58:50Z</time>
      </trkpt>
      <trkpt lat="41.9637910" lon="-5.5812410">
        <ele>728.5</ele>
        <time>2019-08-15T11:58:51Z</time>
      </trkpt>
      <trkpt lat="41.9638300" lon="-5.5813060">
        <ele>728.7</ele>
        <time>2019-08-15T11:58:52Z</time>
      </trkpt>
      <trkpt lat="41.9638700" lon="-5.5813680">
        <ele>728.9</ele>
        <time>2019-08-15T11:58:53Z</time>
      </trkpt>
      <trkpt lat="41.9639100" lon="-5.5814290">
        <ele>728.9</ele>
        <time>2019-08-15T11:58:54Z</time>
      </trkpt>
      <trkpt lat="41.9639500" lon="-5.5814890">
        <ele>729.0</ele>
        <time>2019-08-15T11:58:55Z</time>
      </trkpt>
      <trkpt lat="41.9639900" lon="-5.5815490">
        <ele>729.2</ele>
        <time>2019-08-15T11:58:56Z</time>
      </trkpt>
      <trkpt lat="41.9640280" lon="-5.5816090">
        <ele>729.3</ele>
        <time>2019-08-15T11:58:57Z</time>
      </trkpt>
      <trkpt lat="41.9640660" lon="-5.5816700">
        <ele>729.3</ele>
        <time>2019-08-15T11:58:58Z</time>
      </trkpt>
      <trkpt lat="41.9641030" lon="-5.5817280">
        <ele>729.3</ele>
        <time>2019-08-15T11:58:59Z</time>
      </trkpt>
      <trkpt lat="41.9641400" lon="-5.5817850">
        <ele>729.3</ele>
        <time>2019-08-15T11:59:00Z</time>
      </trkpt>
      <trkpt lat="41.9641770" lon="-5.5818410">
        <ele>729.2</ele>
        <time>2019-08-15T11:59:01Z</time>
      </trkpt>
      <trkpt lat="41.9642130" lon="-5.5818990">
        <ele>729.1</ele>
        <time>2019-08-15T11:59:02Z</time>
      </trkpt>
      <trkpt lat="41.9642500" lon="-5.5819590">
        <ele>729.0</ele>
        <time>2019-08-15T11:59:03Z</time>
      </trkpt>
      <trkpt lat="41.9642900" lon="-5.5820200">
        <ele>728.9</ele>
        <time>2019-08-15T11:59:04Z</time>
      </trkpt>
      <trkpt lat="41.9643280" lon="-5.5820800">
        <ele>728.7</ele>
        <time>2019-08-15T11:59:05Z</time>
      </trkpt>
      <trkpt lat="41.9643660" lon="-5.5821370">
        <ele>728.5</ele>
        <time>2019-08-15T11:59:06Z</time>
      </trkpt>
      <trkpt lat="41.9644040" lon="-5.5821930">
        <ele>728.3</ele>
        <time>2019-08-15T11:59:07Z</time>
      </trkpt>
      <trkpt lat="41.9644420" lon="-5.5822490">
        <ele>728.1</ele>
        <time>2019-08-15T11:59:08Z</time>
      </trkpt>
      <trkpt lat="41.9644780" lon="-5.5823080">
        <ele>727.9</ele>
        <time>2019-08-15T11:59:09Z</time>
      </trkpt>
      <trkpt lat="41.9645130" lon="-5.5823690">
        <ele>727.8</ele>
        <time>2019-08-15T11:59:10Z</time>
      </trkpt>
      <trkpt lat="41.9645480" lon="-5.5824290">
        <ele>727.7</ele>
        <time>2019-08-15T11:59:11Z</time>
      </trkpt>
      <trkpt lat="41.9645820" lon="-5.5824910">
        <ele>727.5</ele>
        <time>2019-08-15T11:59:12Z</time>
      </trkpt>
      <trkpt lat="41.9646160" lon="-5.5825520">
        <ele>727.4</ele>
        <time>2019-08-15T11:59:13Z</time>
      </trkpt>
      <trkpt lat="41.9646510" lon="-5.5826130">
        <ele>727.3</ele>
        <time>2019-08-15T11:59:14Z</time>
      </trkpt>
      <trkpt lat="41.9646870" lon="-5.5826730">
        <ele>727.3</ele>
        <time>2019-08-15T11:59:15Z</time>
      </trkpt>
      <trkpt lat="41.9647240" lon="-5.5827310">
        <ele>727.2</ele>
        <time>2019-08-15T11:59:16Z</time>
      </trkpt>
      <trkpt lat="41.9647600" lon="-5.5827880">
        <ele>727.1</ele>
        <time>2019-08-15T11:59:17Z</time>
      </trkpt>
      <trkpt lat="41.9647950" lon="-5.5828440">
        <ele>727.0</ele>
        <time>2019-08-15T11:59:18Z</time>
      </trkpt>
      <trkpt lat="41.9648300" lon="-5.5828980">
        <ele>727.0</ele>
        <time>2019-08-15T11:59:19Z</time>
      </trkpt>
      <trkpt lat="41.9648620" lon="-5.5829510">
        <ele>726.9</ele>
        <time>2019-08-15T11:59:20Z</time>
      </trkpt>
      <trkpt lat="41.9648930" lon="-5.5830050">
        <ele>726.8</ele>
        <time>2019-08-15T11:59:21Z</time>
      </trkpt>
      <trkpt lat="41.9649240" lon="-5.5830580">
        <ele>726.6</ele>
        <time>2019-08-15T11:59:22Z</time>
      </trkpt>
      <trkpt lat="41.9649550" lon="-5.5831110">
        <ele>726.5</ele>
        <time>2019-08-15T11:59:23Z</time>
      </trkpt>
      <trkpt lat="41.9649860" lon="-5.5831650">
        <ele>726.3</ele>
        <time>2019-08-15T11:59:24Z</time>
      </trkpt>
      <trkpt lat="41.9650170" lon="-5.5832200">
        <ele>726.1</ele>
        <time>2019-08-15T11:59:25Z</time>
      </trkpt>
      <trkpt lat="41.9650480" lon="-5.5832760">
        <ele>725.9</ele>
        <time>2019-08-15T11:59:26Z</time>
      </trkpt>
      <trkpt lat="41.9650810" lon="-5.5833310">
        <ele>725.6</ele>
        <time>2019-08-15T11:59:27Z</time>
      </trkpt>
      <trkpt lat="41.9651170" lon="-5.5833880">
        <ele>725.3</ele>
        <time>2019-08-15T11:59:28Z</time>
      </trkpt>
      <trkpt lat="41.9651550" lon="-5.5834490">
        <ele>725.1</ele>
        <time>2019-08-15T11:59:29Z</time>
      </trkpt>
      <trkpt lat="41.9651940" lon="-5.5835120">
        <ele>724.9</ele>
        <time>2019-08-15T11:59:30Z</time>
      </trkpt>
      <trkpt lat="41.9652350" lon="-5.5835770">
        <ele>724.7</ele>
        <time>2019-08-15T11:59:31Z</time>
      </trkpt>
      <trkpt lat="41.9652760" lon="-5.5836440">
        <ele>724.5</ele>
        <time>2019-08-15T11:59:32Z</time>
      </trkpt>
      <trkpt lat="41.9653180" lon="-5.5837110">
        <ele>724.3</ele>
        <time>2019-08-15T11:59:33Z</time>
      </trkpt>
      <trkpt lat="41.9653590" lon="-5.5837760">
        <ele>724.2</ele>
        <time>2019-08-15T11:59:34Z</time>
      </trkpt>
      <trkpt lat="41.9654010" lon="-5.5838390">
        <ele>724.1</ele>
        <time>2019-08-15T11:59:35Z</time>
      </trkpt>
      <trkpt lat="41.9654420" lon="-5.5839020">
        <ele>724.0</ele>
        <time>2019-08-15T11:59:36Z</time>
      </trkpt>
      <trkpt lat="41.9654800" lon="-5.5839660">
        <ele>723.8</ele>
        <time>2019-08-15T11:59:37Z</time>
      </trkpt>
      <trkpt lat="41.9655170" lon="-5.5840270">
        <ele>723.7</ele>
        <time>2019-08-15T11:59:38Z</time>
      </trkpt>
      <trkpt lat="41.9655530" lon="-5.5840850">
        <ele>723.6</ele>
        <time>2019-08-15T11:59:39Z</time>
      </trkpt>
      <trkpt lat="41.9655870" lon="-5.5841430">
        <ele>723.4</ele>
        <time>2019-08-15T11:59:40Z</time>
      </trkpt>
      <trkpt lat="41.9656210" lon="-5.5842000">
        <ele>723.3</ele>
        <time>2019-08-15T11:59:41Z</time>
      </trkpt>
      <trkpt lat="41.9656560" lon="-5.5842540">
        <ele>723.3</ele>
        <time>2019-08-15T11:59:42Z</time>
      </trkpt>
      <trkpt lat="41.9656910" lon="-5.5843050">
        <ele>723.2</ele>
        <time>2019-08-15T11:59:43Z</time>
      </trkpt>
      <trkpt lat="41.9657230" lon="-5.5843580">
        <ele>723.1</ele>
        <time>2019-08-15T11:59:44Z</time>
      </trkpt>
      <trkpt lat="41.9657540" lon="-5.5844110">
        <ele>723.0</ele>
        <time>2019-08-15T11:59:45Z</time>
      </trkpt>
      <trkpt lat="41.9657870" lon="-5.5844670">
        <ele>722.9</ele>
        <time>2019-08-15T11:59:46Z</time>
      </trkpt>
      <trkpt lat="41.9658230" lon="-5.5845240">
        <ele>722.8</ele>
        <time>2019-08-15T11:59:47Z</time>
      </trkpt>
      <trkpt lat="41.9658610" lon="-5.5845820">
        <ele>722.7</ele>
        <time>2019-08-15T11:59:48Z</time>
      </trkpt>
      <trkpt lat="41.9658970" lon="-5.5846420">
        <ele>722.6</ele>
        <time>2019-08-15T11:59:49Z</time>
      </trkpt>
      <trkpt lat="41.9659330" lon="-5.5847060">
        <ele>722.6</ele>
        <time>2019-08-15T11:59:50Z</time>
      </trkpt>
      <trkpt lat="41.9659750" lon="-5.5847680">
        <ele>722.7</ele>
        <time>2019-08-15T11:59:51Z</time>
      </trkpt>
      <trkpt lat="41.9660210" lon="-5.5848270">
        <ele>722.7</ele>
        <time>2019-08-15T11:59:52Z</time>
      </trkpt>
      <trkpt lat="41.9660650" lon="-5.5848870">
        <ele>722.8</ele>
        <time>2019-08-15T11:59:53Z</time>
      </trkpt>
      <trkpt lat="41.9661060" lon="-5.5849470">
        <ele>722.8</ele>
        <time>2019-08-15T11:59:54Z</time>
      </trkpt>
      <trkpt lat="41.9661450" lon="-5.5850060">
        <ele>722.9</ele>
        <time>2019-08-15T11:59:55Z</time>
      </trkpt>
      <trkpt lat="41.9661810" lon="-5.5850650">
        <ele>723.0</ele>
        <time>2019-08-15T11:59:56Z</time>
      </trkpt>
      <trkpt lat="41.9662150" lon="-5.5851220">
        <ele>723.1</ele>
        <time>2019-08-15T11:59:57Z</time>
      </trkpt>
      <trkpt lat="41.9662470" lon="-5.5851770">
        <ele>723.2</ele>
        <time>2019-08-15T11:59:58Z</time>
      </trkpt>
      <trkpt lat="41.9662780" lon="-5.5852290">
        <ele>723.3</ele>
        <time>2019-08-15T11:59:59Z</time>
      </trkpt>
      <trkpt lat="41.9663060" lon="-5.5852740">
        <ele>723.4</ele>
        <time>2019-08-15T12:00:00Z</time>
      </trkpt>
      <trkpt lat="41.9663260" lon="-5.5853050">
        <ele>723.4</ele>
        <time>2019-08-15T12:00:01Z</time>
      </trkpt>
      <trkpt lat="41.9663410" lon="-5.5853290">
        <ele>723.4</ele>
        <time>2019-08-15T12:00:02Z</time>
      </trkpt>
      <trkpt lat="41.9663750" lon="-5.5853910">
        <ele>723.5</ele>
        <time>2019-08-15T12:00:04Z</time>
      </trkpt>
      <trkpt lat="41.9663970" lon="-5.5854310">
        <ele>723.5</ele>
        <time>2019-08-15T12:00:05Z</time>
      </trkpt>
      <trkpt lat="41.9664230" lon="-5.5854740">
        <ele>723.5</ele>
        <time>2019-08-15T12:00:06Z</time>
      </trkpt>
      <trkpt lat="41.9664510" lon="-5.5855230">
        <ele>723.6</ele>
        <time>2019-08-15T12:00:07Z</time>
      </trkpt>
      <trkpt lat="41.9664790" lon="-5.5855730">
        <ele>723.6</ele>
        <time>2019-08-15T12:00:08Z</time>
      </trkpt>
      <trkpt lat="41.9665110" lon="-5.5856240">
        <ele>723.6</ele>
        <time>2019-08-15T12:00:09Z</time>
      </trkpt>
      <trkpt lat="41.9665450" lon="-5.5856770">
        <ele>723.6</ele>
        <time>2019-08-15T12:00:10Z</time>
      </trkpt>
      <trkpt lat="41.9665780" lon="-5.5857310">
        <ele>723.6</ele>
        <time>2019-08-15T12:00:11Z</time>
      </trkpt>
      <trkpt lat="41.9666130" lon="-5.5857880">
        <ele>723.6</ele>
        <time>2019-08-15T12:00:12Z</time>
      </trkpt>
      <trkpt lat="41.9666480" lon="-5.5858450">
        <ele>723.5</ele>
        <time>2019-08-15T12:00:13Z</time>
      </trkpt>
      <trkpt lat="41.9666850" lon="-5.5859040">
        <ele>723.5</ele>
        <time>2019-08-15T12:00:14Z</time>
      </trkpt>
      <trkpt lat="41.9667210" lon="-5.5859640">
        <ele>723.5</ele>
        <time>2019-08-15T12:00:15Z</time>
      </trkpt>
      <trkpt lat="41.9667570" lon="-5.5860230">
        <ele>723.5</ele>
        <time>2019-08-15T12:00:16Z</time>
      </trkpt>
      <trkpt lat="41.9667920" lon="-5.5860820">
        <ele>723.4</ele>
        <time>2019-08-15T12:00:17Z</time>
      </trkpt>
      <trkpt lat="41.9668270" lon="-5.5861380">
        <ele>723.4</ele>
        <time>2019-08-15T12:00:18Z</time>
      </trkpt>
      <trkpt lat="41.9668620" lon="-5.5861920">
        <ele>723.4</ele>
        <time>2019-08-15T12:00:19Z</time>
      </trkpt>
      <trkpt lat="41.9668950" lon="-5.5862430">
        <ele>723.4</ele>
        <time>2019-08-15T12:00:20Z</time>
      </trkpt>
      <trkpt lat="41.9669260" lon="-5.5862940">
        <ele>723.4</ele>
        <time>2019-08-15T12:00:21Z</time>
      </trkpt>
      <trkpt lat="41.9669580" lon="-5.5863460">
        <ele>723.4</ele>
        <time>2019-08-15T12:00:22Z</time>
      </trkpt>
      <trkpt lat="41.9669910" lon="-5.5864000">
        <ele>723.4</ele>
        <time>2019-08-15T12:00:23Z</time>
      </trkpt>
      <trkpt lat="41.9670240" lon="-5.5864530">
        <ele>723.4</ele>
        <time>2019-08-15T12:00:24Z</time>
      </trkpt>
      <trkpt lat="41.9670570" lon="-5.5865050">
        <ele>723.4</ele>
        <time>2019-08-15T12:00:25Z</time>
      </trkpt>
      <trkpt lat="41.9670890" lon="-5.5865580">
        <ele>723.5</ele>
        <time>2019-08-15T12:00:26Z</time>
      </trkpt>
      <trkpt lat="41.9671190" lon="-5.5866100">
        <ele>723.5</ele>
        <time>2019-08-15T12:00:27Z</time>
      </trkpt>
      <trkpt lat="41.9671500" lon="-5.5866610">
        <ele>723.5</ele>
        <time>2019-08-15T12:00:28Z</time>
      </trkpt>
      <trkpt lat="41.9671800" lon="-5.5867120">
        <ele>723.5</ele>
        <time>2019-08-15T12:00:29Z</time>
      </trkpt>
      <trkpt lat="41.9672110" lon="-5.5867640">
        <ele>723.6</ele>
        <time>2019-08-15T12:00:30Z</time>
      </trkpt>
      <trkpt lat="41.9672420" lon="-5.5868150">
        <ele>723.6</ele>
        <time>2019-08-15T12:00:31Z</time>
      </trkpt>
      <trkpt lat="41.9672740" lon="-5.5868660">
        <ele>723.7</ele>
        <time>2019-08-15T12:00:32Z</time>
      </trkpt>
      <trkpt lat="41.9673050" lon="-5.5869200">
        <ele>723.7</ele>
        <time>2019-08-15T12:00:33Z</time>
      </trkpt>
      <trkpt lat="41.9673370" lon="-5.5869740">
        <ele>723.8</ele>
        <time>2019-08-15T12:00:34Z</time>
      </trkpt>
      <trkpt lat="41.9673700" lon="-5.5870270">
        <ele>723.8</ele>
        <time>2019-08-15T12:00:35Z</time>
      </trkpt>
      <trkpt lat="41.9674020" lon="-5.5870800">
        <ele>723.9</ele>
        <time>2019-08-15T12:00:36Z</time>
      </trkpt>
      <trkpt lat="41.9674350" lon="-5.5871350">
        <ele>723.9</ele>
        <time>2019-08-15T12:00:37Z</time>
      </trkpt>
      <trkpt lat="41.9674680" lon="-5.5871890">
        <ele>723.9</ele>
        <time>2019-08-15T12:00:38Z</time>
      </trkpt>
      <trkpt lat="41.9675030" lon="-5.5872430">
        <ele>724.0</ele>
        <time>2019-08-15T12:00:39Z</time>
      </trkpt>
      <trkpt lat="41.9675360" lon="-5.5872980">
        <ele>724.0</ele>
        <time>2019-08-15T12:00:40Z</time>
      </trkpt>
      <trkpt lat="41.9675680" lon="-5.5873520">
        <ele>724.0</ele>
        <time>2019-08-15T12:00:41Z</time>
      </trkpt>
      <trkpt lat="41.9676000" lon="-5.5874050">
        <ele>724.0</ele>
        <time>2019-08-15T12:00:42Z</time>
      </trkpt>
      <trkpt lat="41.9676340" lon="-5.5874570">
        <ele>724.0</ele>
        <time>2019-08-15T12:00:43Z</time>
      </trkpt>
      <trkpt lat="41.9676650" lon="-5.5875090">
        <ele>724.0</ele>
        <time>2019-08-15T12:00:44Z</time>
      </trkpt>
      <trkpt lat="41.9676970" lon="-5.5875610">
        <ele>724.1</ele>
        <time>2019-08-15T12:00:45Z</time>
      </trkpt>
      <trkpt lat="41.9677300" lon="-5.5876130">
        <ele>724.1</ele>
        <time>2019-08-15T12:00:46Z</time>
      </trkpt>
      <trkpt lat="41.9677620" lon="-5.5876660">
        <ele>724.1</ele>
        <time>2019-08-15T12:00:47Z</time>
      </trkpt>
      <trkpt lat="41.9677950" lon="-5.5877170">
        <ele>724.1</ele>
        <time>2019-08-15T12:00:48Z</time>
      </trkpt>
      <trkpt lat="41.9678270" lon="-5.5877690">
        <ele>724.2</ele>
        <time>2019-08-15T12:00:49Z</time>
      </trkpt>
      <trkpt lat="41.9678600" lon="-5.5878210">
        <ele>724.2</ele>
        <time>2019-08-15T12:00:50Z</time>
      </trkpt>
      <trkpt lat="41.9678910" lon="-5.5878730">
        <ele>724.2</ele>
        <time>2019-08-15T12:00:51Z</time>
      </trkpt>
      <trkpt lat="41.9679240" lon="-5.5879250">
        <ele>724.3</ele>
        <time>2019-08-15T12:00:52Z</time>
      </trkpt>
      <trkpt lat="41.9679550" lon="-5.5879780">
        <ele>724.3</ele>
        <time>2019-08-15T12:00:53Z</time>
      </trkpt>
      <trkpt lat="41.9679870" lon="-5.5880300">
        <ele>724.4</ele>
        <time>2019-08-15T12:00:54Z</time>
      </trkpt>
      <trkpt lat="41.9680190" lon="-5.5880830">
        <ele>724.5</ele>
        <time>2019-08-15T12:00:55Z</time>
      </trkpt>
      <trkpt lat="41.9680500" lon="-5.5881350">
        <ele>724.5</ele>
        <time>2019-08-15T12:00:56Z</time>
      </trkpt>
      <trkpt lat="41.9680820" lon="-5.5881880">
        <ele>724.6</ele>
        <time>2019-08-15T12:00:57Z</time>
      </trkpt>
      <trkpt lat="41.9681140" lon="-5.5882390">
        <ele>724.7</ele>
        <time>2019-08-15T12:00:58Z</time>
      </trkpt>
      <trkpt lat="41.9681450" lon="-5.5882890">
        <ele>724.7</ele>
        <time>2019-08-15T12:00:59Z</time>
      </trkpt>
      <trkpt lat="41.9681750" lon="-5.5883390">
        <ele>724.8</ele>
        <time>2019-08-15T12:01:00Z</time>
      </trkpt>
      <trkpt lat="41.9682050" lon="-5.5883880">
        <ele>724.8</ele>
        <time>2019-08-15T12:01:01Z</time>
      </trkpt>
      <trkpt lat="41.9682350" lon="-5.5884370">
        <ele>724.9</ele>
        <time>2019-08-15T12:01:02Z</time>
      </trkpt>
      <trkpt lat="41.9682630" lon="-5.5884850">
        <ele>724.9</ele>
        <time>2019-08-15T12:01:03Z</time>
      </trkpt>
      <trkpt lat="41.9682930" lon="-5.5885310">
        <ele>725.0</ele>
        <time>2019-08-15T12:01:04Z</time>
      </trkpt>
      <trkpt lat="41.9683210" lon="-5.5885790">
        <ele>725.1</ele>
        <time>2019-08-15T12:01:05Z</time>
      </trkpt>
      <trkpt lat="41.9683500" lon="-5.5886270">
        <ele>725.2</ele>
        <time>2019-08-15T12:01:06Z</time>
      </trkpt>
      <trkpt lat="41.9683800" lon="-5.5886740">
        <ele>725.3</ele>
        <time>2019-08-15T12:01:07Z</time>
      </trkpt>
      <trkpt lat="41.9684100" lon="-5.5887220">
        <ele>725.3</ele>
        <time>2019-08-15T12:01:08Z</time>
      </trkpt>
      <trkpt lat="41.9684390" lon="-5.5887700">
        <ele>725.4</ele>
        <time>2019-08-15T12:01:09Z</time>
      </trkpt>
      <trkpt lat="41.9684680" lon="-5.5888180">
        <ele>725.6</ele>
        <time>2019-08-15T12:01:10Z</time>
      </trkpt>
      <trkpt lat="41.9684970" lon="-5.5888630">
        <ele>725.7</ele>
        <time>2019-08-15T12:01:11Z</time>
      </trkpt>
      <trkpt lat="41.9685250" lon="-5.5889070">
        <ele>725.8</ele>
        <time>2019-08-15T12:01:12Z</time>
      </trkpt>
      <trkpt lat="41.9685520" lon="-5.5889520">
        <ele>725.9</ele>
        <time>2019-08-15T12:01:13Z</time>
      </trkpt>
      <trkpt lat="41.9685800" lon="-5.5889970">
        <ele>726.1</ele>
        <time>2019-08-15T12:01:14Z</time>
      </trkpt>
      <trkpt lat="41.9686080" lon="-5.5890400">
        <ele>726.2</ele>
        <time>2019-08-15T12:01:15Z</time>
      </trkpt>
      <trkpt lat="41.9686350" lon="-5.5890840">
        <ele>726.3</ele>
        <time>2019-08-15T12:01:16Z</time>
      </trkpt>
      <trkpt lat="41.9686630" lon="-5.5891290">
        <ele>726.3</ele>
        <time>2019-08-15T12:01:17Z</time>
      </trkpt>
      <trkpt lat="41.9686900" lon="-5.5891740">
        <ele>726.4</ele>
        <time>2019-08-15T12:01:18Z</time>
      </trkpt>
      <trkpt lat="41.9687170" lon="-5.5892200">
        <ele>726.4</ele>
        <time>2019-08-15T12:01:19Z</time>
      </trkpt>
      <trkpt lat="41.9687460" lon="-5.5892660">
        <ele>726.4</ele>
        <time>2019-08-15T12:01:20Z</time>
      </trkpt>
      <trkpt lat="41.9687760" lon="-5.5893130">
        <ele>726.4</ele>
        <time>2019-08-15T12:01:21Z</time>
      </trkpt>
      <trkpt lat="41.9688060" lon="-5.5893600">
        <ele>726.2</ele>
        <time>2019-08-15T12:01:22Z</time>
      </trkpt>
      <trkpt lat="41.9688350" lon="-5.5894080">
        <ele>726.1</ele>
        <time>2019-08-15T12:01:23Z</time>
      </trkpt>
      <trkpt lat="41.9688660" lon="-5.5894580">
        <ele>726.0</ele>
        <time>2019-08-15T12:01:24Z</time>
      </trkpt>
      <trkpt lat="41.9688970" lon="-5.5895080">
        <ele>725.8</ele>
        <time>2019-08-15T12:01:25Z</time>
      </trkpt>
      <trkpt lat="41.9689280" lon="-5.5895590">
        <ele>725.6</ele>
        <time>2019-08-15T12:01:26Z</time>
      </trkpt>
      <trkpt lat="41.9689590" lon="-5.5896090">
        <ele>725.4</ele>
        <time>2019-08-15T12:01:27Z</time>
      </trkpt>
      <trkpt lat="41.9689910" lon="-5.5896600">
        <ele>725.1</ele>
        <time>2019-08-15T12:01:28Z</time>
      </trkpt>
      <trkpt lat="41.9690250" lon="-5.5897120">
        <ele>724.9</ele>
        <time>2019-08-15T12:01:29Z</time>
      </trkpt>
      <trkpt lat="41.9690590" lon="-5.5897670">
        <ele>724.6</ele>
        <time>2019-08-15T12:01:30Z</time>
      </trkpt>
      <trkpt lat="41.9690940" lon="-5.5898220">
        <ele>724.4</ele>
        <time>2019-08-15T12:01:31Z</time>
      </trkpt>
      <trkpt lat="41.9691290" lon="-5.5898770">
        <ele>724.2</ele>
        <time>2019-08-15T12:01:32Z</time>
      </trkpt>
      <trkpt lat="41.9691620" lon="-5.5899310">
        <ele>724.0</ele>
        <time>2019-08-15T12:01:33Z</time>
      </trkpt>
      <trkpt lat="41.9691960" lon="-5.5899840">
        <ele>723.8</ele>
        <time>2019-08-15T12:01:34Z</time>
      </trkpt>
      <trkpt lat="41.9692290" lon="-5.5900390">
        <ele>723.7</ele>
        <time>2019-08-15T12:01:35Z</time>
      </trkpt>
      <trkpt lat="41.9692630" lon="-5.5900970">
        <ele>723.6</ele>
        <time>2019-08-15T12:01:36Z</time>
      </trkpt>
      <trkpt lat="41.9692970" lon="-5.5901530">
        <ele>723.5</ele>
        <time>2019-08-15T12:01:37Z</time>
      </trkpt>
      <trkpt lat="41.9693310" lon="-5.5902090">
        <ele>723.4</ele>
        <time>2019-08-15T12:01:38Z</time>
      </trkpt>
      <trkpt lat="41.9693660" lon="-5.5902660">
        <ele>723.4</ele>
        <time>2019-08-15T12:01:39Z</time>
      </trkpt>
      <trkpt lat="41.9694010" lon="-5.5903220">
        <ele>723.3</ele>
        <time>2019-08-15T12:01:40Z</time>
      </trkpt>
      <trkpt lat="41.9694370" lon="-5.5903790">
        <ele>723.2</ele>
        <time>2019-08-15T12:01:41Z</time>
      </trkpt>
      <trkpt lat="41.9694730" lon="-5.5904360">
        <ele>723.2</ele>
        <time>2019-08-15T12:01:42Z</time>
      </trkpt>
      <trkpt lat="41.9695090" lon="-5.5904950">
        <ele>723.2</ele>
        <time>2019-08-15T12:01:43Z</time>
      </trkpt>
      <trkpt lat="41.9695450" lon="-5.5905540">
        <ele>723.1</ele>
        <time>2019-08-15T12:01:44Z</time>
      </trkpt>
      <trkpt lat="41.9695810" lon="-5.5906130">
        <ele>723.0</ele>
        <time>2019-08-15T12:01:45Z</time>
      </trkpt>
      <trkpt lat="41.9696180" lon="-5.5906730">
        <ele>723.0</ele>
        <time>2019-08-15T12:01:46Z</time>
      </trkpt>
      <trkpt lat="41.9696550" lon="-5.5907310">
        <ele>722.9</ele>
        <time>2019-08-15T12:01:47Z</time>
      </trkpt>
      <trkpt lat="41.9696920" lon="-5.5907900">
        <ele>722.8</ele>
        <time>2019-08-15T12:01:48Z</time>
      </trkpt>
      <trkpt lat="41.9697280" lon="-5.5908480">
        <ele>722.8</ele>
        <time>2019-08-15T12:01:49Z</time>
      </trkpt>
      <trkpt lat="41.9697650" lon="-5.5909070">
        <ele>722.7</ele>
        <time>2019-08-15T12:01:50Z</time>
      </trkpt>
      <trkpt lat="41.9698020" lon="-5.5909660">
        <ele>722.6</ele>
        <time>2019-08-15T12:01:51Z</time>
      </trkpt>
      <trkpt lat="41.9698380" lon="-5.5910240">
        <ele>722.6</ele>
        <time>2019-08-15T12:01:52Z</time>
      </trkpt>
      <trkpt lat="41.9698740" lon="-5.5910820">
        <ele>722.6</ele>
        <time>2019-08-15T12:01:53Z</time>
      </trkpt>
      <trkpt lat="41.9699090" lon="-5.5911390">
        <ele>722.5</ele>
        <time>2019-08-15T12:01:54Z</time>
      </trkpt>
      <trkpt lat="41.9699450" lon="-5.5911950">
        <ele>722.5</ele>
        <time>2019-08-15T12:01:55Z</time>
      </trkpt>
      <trkpt lat="41.9699810" lon="-5.5912510">
        <ele>722.5</ele>
        <time>2019-08-15T12:01:56Z</time>
      </trkpt>
      <trkpt lat="41.9700160" lon="-5.5913090">
        <ele>722.5</ele>
        <time>2019-08-15T12:01:57Z</time>
      </trkpt>
      <trkpt lat="41.9700500" lon="-5.5913660">
        <ele>722.5</ele>
        <time>2019-08-15T12:01:58Z</time>
      </trkpt>
      <trkpt lat="41.9700840" lon="-5.5914210">
        <ele>722.6</ele>
        <time>2019-08-15T12:01:59Z</time>
      </trkpt>
      <trkpt lat="41.9701160" lon="-5.5914740">
        <ele>722.7</ele>
        <time>2019-08-15T12:02:00Z</time>
      </trkpt>
      <trkpt lat="41.9701460" lon="-5.5915240">
        <ele>722.8</ele>
        <time>2019-08-15T12:02:01Z</time>
      </trkpt>
      <trkpt lat="41.9701740" lon="-5.5915700">
        <ele>722.9</ele>
        <time>2019-08-15T12:02:02Z</time>
      </trkpt>
      <trkpt lat="41.9702030" lon="-5.5916180">
        <ele>723.0</ele>
        <time>2019-08-15T12:02:03Z</time>
      </trkpt>
      <trkpt lat="41.9702330" lon="-5.5916650">
        <ele>723.1</ele>
        <time>2019-08-15T12:02:04Z</time>
      </trkpt>
      <trkpt lat="41.9702620" lon="-5.5917130">
        <ele>723.2</ele>
        <time>2019-08-15T12:02:05Z</time>
      </trkpt>
      <trkpt lat="41.9702910" lon="-5.5917620">
        <ele>723.3</ele>
        <time>2019-08-15T12:02:06Z</time>
      </trkpt>
      <trkpt lat="41.9703210" lon="-5.5918110">
        <ele>723.4</ele>
        <time>2019-08-15T12:02:07Z</time>
      </trkpt>
      <trkpt lat="41.9703510" lon="-5.5918610">
        <ele>723.5</ele>
        <time>2019-08-15T12:02:08Z</time>
      </trkpt>
      <trkpt lat="41.9703820" lon="-5.5919110">
        <ele>723.6</ele>
        <time>2019-08-15T12:02:09Z</time>
      </trkpt>
      <trkpt lat="41.9704110" lon="-5.5919610">
        <ele>723.8</ele>
        <time>2019-08-15T12:02:10Z</time>
      </trkpt>
      <trkpt lat="41.9704420" lon="-5.5920110">
        <ele>723.9</ele>
        <time>2019-08-15T12:02:11Z</time>
      </trkpt>
      <trkpt lat="41.9704720" lon="-5.5920610">
        <ele>724.0</ele>
        <time>2019-08-15T12:02:12Z</time>
      </trkpt>
      <trkpt lat="41.9705030" lon="-5.5921120">
        <ele>724.1</ele>
        <time>2019-08-15T12:02:13Z</time>
      </trkpt>
      <trkpt lat="41.9705340" lon="-5.5921630">
        <ele>724.2</ele>
        <time>2019-08-15T12:02:14Z</time>
      </trkpt>
      <trkpt lat="41.9705640" lon="-5.5922150">
        <ele>724.3</ele>
        <time>2019-08-15T12:02:15Z</time>
      </trkpt>
      <trkpt lat="41.9705940" lon="-5.5922620">
        <ele>724.4</ele>
        <time>2019-08-15T12:02:16Z</time>
      </trkpt>
      <trkpt lat="41.9706240" lon="-5.5923070">
        <ele>724.5</ele>
        <time>2019-08-15T12:02:17Z</time>
      </trkpt>
      <trkpt lat="41.9706540" lon="-5.5923540">
        <ele>724.6</ele>
        <time>2019-08-15T12:02:18Z</time>
      </trkpt>
      <trkpt lat="41.9706830" lon="-5.5924020">
        <ele>724.6</ele>
        <time>2019-08-15T12:02:19Z</time>
      </trkpt>
      <trkpt lat="41.9707120" lon="-5.5924520">
        <ele>724.6</ele>
        <time>2019-08-15T12:02:20Z</time>
      </trkpt>
      <trkpt lat="41.9707410" lon="-5.5925020">
        <ele>724.6</ele>
        <time>2019-08-15T12:02:21Z</time>
      </trkpt>
      <trkpt lat="41.9707720" lon="-5.5925520">
        <ele>724.6</ele>
        <time>2019-08-15T12:02:22Z</time>
      </trkpt>
      <trkpt lat="41.9708020" lon="-5.5926020">
        <ele>724.6</ele>
        <time>2019-08-15T12:02:23Z</time>
      </trkpt>
      <trkpt lat="41.9708330" lon="-5.5926510">
        <ele>724.6</ele>
        <time>2019-08-15T12:02:24Z</time>
      </trkpt>
      <trkpt lat="41.9708640" lon="-5.5926990">
        <ele>724.6</ele>
        <time>2019-08-15T12:02:25Z</time>
      </trkpt>
      <trkpt lat="41.9708950" lon="-5.5927480">
        <ele>724.6</ele>
        <time>2019-08-15T12:02:26Z</time>
      </trkpt>
      <trkpt lat="41.9709260" lon="-5.5927950">
        <ele>724.6</ele>
        <time>2019-08-15T12:02:27Z</time>
      </trkpt>
      <trkpt lat="41.9709570" lon="-5.5928420">
        <ele>724.6</ele>
        <time>2019-08-15T12:02:28Z</time>
      </trkpt>
      <trkpt lat="41.9709890" lon="-5.5928910">
        <ele>724.5</ele>
        <time>2019-08-15T12:02:29Z</time>
      </trkpt>
      <trkpt lat="41.9710190" lon="-5.5929410">
        <ele>724.5</ele>
        <time>2019-08-15T12:02:30Z</time>
      </trkpt>
      <trkpt lat="41.9710490" lon="-5.5929910">
        <ele>724.4</ele>
        <time>2019-08-15T12:02:31Z</time>
      </trkpt>
      <trkpt lat="41.9710790" lon="-5.5930390">
        <ele>724.3</ele>
        <time>2019-08-15T12:02:32Z</time>
      </trkpt>
      <trkpt lat="41.9711090" lon="-5.5930870">
        <ele>724.2</ele>
        <time>2019-08-15T12:02:33Z</time>
      </trkpt>
      <trkpt lat="41.9711390" lon="-5.5931360">
        <ele>724.2</ele>
        <time>2019-08-15T12:02:34Z</time>
      </trkpt>
      <trkpt lat="41.9711680" lon="-5.5931840">
        <ele>724.2</ele>
        <time>2019-08-15T12:02:35Z</time>
      </trkpt>
      <trkpt lat="41.9711970" lon="-5.5932300">
        <ele>724.2</ele>
        <time>2019-08-15T12:02:36Z</time>
      </trkpt>
      <trkpt lat="41.9712250" lon="-5.5932760">
        <ele>724.2</ele>
        <time>2019-08-15T12:02:37Z</time>
      </trkpt>
      <trkpt lat="41.9712550" lon="-5.5933220">
        <ele>724.2</ele>
        <time>2019-08-15T12:02:38Z</time>
      </trkpt>
      <trkpt lat="41.9712850" lon="-5.5933680">
        <ele>724.2</ele>
        <time>2019-08-15T12:02:39Z</time>
      </trkpt>
      <trkpt lat="41.9713150" lon="-5.5934150">
        <ele>724.2</ele>
        <time>2019-08-15T12:02:40Z</time>
      </trkpt>
      <trkpt lat="41.9713450" lon="-5.5934640">
        <ele>724.3</ele>
        <time>2019-08-15T12:02:41Z</time>
      </trkpt>
      <trkpt lat="41.9713750" lon="-5.5935130">
        <ele>724.4</ele>
        <time>2019-08-15T12:02:42Z</time>
      </trkpt>
      <trkpt lat="41.9714050" lon="-5.5935610">
        <ele>724.5</ele>
        <time>2019-08-15T12:02:43Z</time>
      </trkpt>
      <trkpt lat="41.9714350" lon="-5.5936090">
        <ele>724.7</ele>
        <time>2019-08-15T12:02:44Z</time>
      </trkpt>
      <trkpt lat="41.9714650" lon="-5.5936580">
        <ele>724.8</ele>
        <time>2019-08-15T12:02:45Z</time>
      </trkpt>
      <trkpt lat="41.9714940" lon="-5.5937050">
        <ele>725.0</ele>
        <time>2019-08-15T12:02:46Z</time>
      </trkpt>
      <trkpt lat="41.9715220" lon="-5.5937530">
        <ele>725.2</ele>
        <time>2019-08-15T12:02:47Z</time>
      </trkpt>
      <trkpt lat="41.9715510" lon="-5.5937990">
        <ele>725.3</ele>
        <time>2019-08-15T12:02:48Z</time>
      </trkpt>
      <trkpt lat="41.9715810" lon="-5.5938480">
        <ele>725.5</ele>
        <time>2019-08-15T12:02:49Z</time>
      </trkpt>
      <trkpt lat="41.9716110" lon="-5.5938950">
        <ele>725.7</ele>
        <time>2019-08-15T12:02:50Z</time>
      </trkpt>
      <trkpt lat="41.9716410" lon="-5.5939410">
        <ele>726.0</ele>
        <time>2019-08-15T12:02:51Z</time>
      </trkpt>
      <trkpt lat="41.9716710" lon="-5.5939880">
        <ele>726.2</ele>
        <time>2019-08-15T12:02:52Z</time>
      </trkpt>
      <trkpt lat="41.9717010" lon="-5.5940360">
        <ele>726.5</ele>
        <time>2019-08-15T12:02:53Z</time>
      </trkpt>
      <trkpt lat="41.9717310" lon="-5.5940840">
        <ele>726.7</ele>
        <time>2019-08-15T12:02:54Z</time>
      </trkpt>
      <trkpt lat="41.9717600" lon="-5.5941320">
        <ele>726.8</ele>
        <time>2019-08-15T12:02:55Z</time>
      </trkpt>
      <trkpt lat="41.9717900" lon="-5.5941810">
        <ele>726.8</ele>
        <time>2019-08-15T12:02:56Z</time>
      </trkpt>
      <trkpt lat="41.9718200" lon="-5.5942290">
        <ele>726.9</ele>
        <time>2019-08-15T12:02:57Z</time>
      </trkpt>
      <trkpt lat="41.9718500" lon="-5.5942780">
        <ele>727.1</ele>
        <time>2019-08-15T12:02:58Z</time>
      </trkpt>
      <trkpt lat="41.9718800" lon="-5.5943300">
        <ele>727.1</ele>
        <time>2019-08-15T12:02:59Z</time>
      </trkpt>
      <trkpt lat="41.9719080" lon="-5.5943790">
        <ele>727.1</ele>
        <time>2019-08-15T12:03:00Z</time>
      </trkpt>
      <trkpt lat="41.9719380" lon="-5.5944280">
        <ele>727.1</ele>
        <time>2019-08-15T12:03:01Z</time>
      </trkpt>
      <trkpt lat="41.9719680" lon="-5.5944760">
        <ele>727.1</ele>
        <time>2019-08-15T12:03:02Z</time>
      </trkpt>
      <trkpt lat="41.9719960" lon="-5.5945240">
        <ele>727.1</ele>
        <time>2019-08-15T12:03:03Z</time>
      </trkpt>
      <trkpt lat="41.9720260" lon="-5.5945750">
        <ele>727.0</ele>
        <time>2019-08-15T12:03:04Z</time>
      </trkpt>
      <trkpt lat="41.9720570" lon="-5.5946260">
        <ele>727.0</ele>
        <time>2019-08-15T12:03:05Z</time>
      </trkpt>
      <trkpt lat="41.9720900" lon="-5.5946780">
        <ele>726.9</ele>
        <time>2019-08-15T12:03:06Z</time>
      </trkpt>
      <trkpt lat="41.9721230" lon="-5.5947300">
        <ele>726.8</ele>
        <time>2019-08-15T12:03:07Z</time>
      </trkpt>
      <trkpt lat="41.9721560" lon="-5.5947820">
        <ele>726.7</ele>
        <time>2019-08-15T12:03:08Z</time>
      </trkpt>
      <trkpt lat="41.9721890" lon="-5.5948360">
        <ele>726.7</ele>
        <time>2019-08-15T12:03:09Z</time>
      </trkpt>
      <trkpt lat="41.9722210" lon="-5.5948900">
        <ele>726.6</ele>
        <time>2019-08-15T12:03:10Z</time>
      </trkpt>
      <trkpt lat="41.9722530" lon="-5.5949440">
        <ele>726.5</ele>
        <time>2019-08-15T12:03:11Z</time>
      </trkpt>
      <trkpt lat="41.9722860" lon="-5.5949990">
        <ele>726.4</ele>
        <time>2019-08-15T12:03:12Z</time>
      </trkpt>
      <trkpt lat="41.9723190" lon="-5.5950530">
        <ele>726.3</ele>
        <time>2019-08-15T12:03:13Z</time>
      </trkpt>
      <trkpt lat="41.9723510" lon="-5.5951060">
        <ele>726.2</ele>
        <time>2019-08-15T12:03:14Z</time>
      </trkpt>
      <trkpt lat="41.9723850" lon="-5.5951600">
        <ele>726.0</ele>
        <time>2019-08-15T12:03:15Z</time>
      </trkpt>
      <trkpt lat="41.9724170" lon="-5.5952120">
        <ele>725.9</ele>
        <time>2019-08-15T12:03:16Z</time>
      </trkpt>
      <trkpt lat="41.9724480" lon="-5.5952630">
        <ele>725.8</ele>
        <time>2019-08-15T12:03:17Z</time>
      </trkpt>
      <trkpt lat="41.9724800" lon="-5.5953150">
        <ele>725.6</ele>
        <time>2019-08-15T12:03:18Z</time>
      </trkpt>
      <trkpt lat="41.9725110" lon="-5.5953680">
        <ele>725.5</ele>
        <time>2019-08-15T12:03:19Z</time>
      </trkpt>
      <trkpt lat="41.9725420" lon="-5.5954190">
        <ele>725.4</ele>
        <time>2019-08-15T12:03:20Z</time>
      </trkpt>
      <trkpt lat="41.9725710" lon="-5.5954690">
        <ele>725.2</ele>
        <time>2019-08-15T12:03:21Z</time>
      </trkpt>
      <trkpt lat="41.9726020" lon="-5.5955210">
        <ele>725.2</ele>
        <time>2019-08-15T12:03:22Z</time>
      </trkpt>
      <trkpt lat="41.9726330" lon="-5.5955700">
        <ele>725.1</ele>
        <time>2019-08-15T12:03:23Z</time>
      </trkpt>
      <trkpt lat="41.9726640" lon="-5.5956200">
        <ele>725.1</ele>
        <time>2019-08-15T12:03:24Z</time>
      </trkpt>
      <trkpt lat="41.9726930" lon="-5.5956730">
        <ele>725.0</ele>
        <time>2019-08-15T12:03:25Z</time>
      </trkpt>
      <trkpt lat="41.9727250" lon="-5.5957260">
        <ele>725.0</ele>
        <time>2019-08-15T12:03:26Z</time>
      </trkpt>
      <trkpt lat="41.9727570" lon="-5.5957790">
        <ele>725.0</ele>
        <time>2019-08-15T12:03:27Z</time>
      </trkpt>
      <trkpt lat="41.9727880" lon="-5.5958300">
        <ele>725.0</ele>
        <time>2019-08-15T12:03:28Z</time>
      </trkpt>
      <trkpt lat="41.9728210" lon="-5.5958790">
        <ele>725.0</ele>
        <time>2019-08-15T12:03:29Z</time>
      </trkpt>
      <trkpt lat="41.9728510" lon="-5.5959290">
        <ele>725.0</ele>
        <time>2019-08-15T12:03:30Z</time>
      </trkpt>
      <trkpt lat="41.9728820" lon="-5.5959800">
        <ele>725.0</ele>
        <time>2019-08-15T12:03:31Z</time>
      </trkpt>
      <trkpt lat="41.9729130" lon="-5.5960320">
        <ele>725.1</ele>
        <time>2019-08-15T12:03:32Z</time>
      </trkpt>
      <trkpt lat="41.9729450" lon="-5.5960840">
        <ele>725.1</ele>
        <time>2019-08-15T12:03:33Z</time>
      </trkpt>
      <trkpt lat="41.9729780" lon="-5.5961350">
        <ele>725.1</ele>
        <time>2019-08-15T12:03:34Z</time>
      </trkpt>
      <trkpt lat="41.9730110" lon="-5.5961880">
        <ele>725.0</ele>
        <time>2019-08-15T12:03:35Z</time>
      </trkpt>
      <trkpt lat="41.9730450" lon="-5.5962420">
        <ele>725.0</ele>
        <time>2019-08-15T12:03:36Z</time>
      </trkpt>
      <trkpt lat="41.9730790" lon="-5.5962980">
        <ele>725.0</ele>
        <time>2019-08-15T12:03:37Z</time>
      </trkpt>
      <trkpt lat="41.9731130" lon="-5.5963540">
        <ele>724.9</ele>
        <time>2019-08-15T12:03:38Z</time>
      </trkpt>
      <trkpt lat="41.9731480" lon="-5.5964100">
        <ele>724.9</ele>
        <time>2019-08-15T12:03:39Z</time>
      </trkpt>
      <trkpt lat="41.9731830" lon="-5.5964650">
        <ele>724.8</ele>
        <time>2019-08-15T12:03:40Z</time>
      </trkpt>
      <trkpt lat="41.9732170" lon="-5.5965210">
        <ele>724.8</ele>
        <time>2019-08-15T12:03:41Z</time>
      </trkpt>
      <trkpt lat="41.9732540" lon="-5.5965780">
        <ele>724.7</ele>
        <time>2019-08-15T12:03:42Z</time>
      </trkpt>
      <trkpt lat="41.9732890" lon="-5.5966360">
        <ele>724.6</ele>
        <time>2019-08-15T12:03:43Z</time>
      </trkpt>
      <trkpt lat="41.9733250" lon="-5.5966920">
        <ele>724.6</ele>
        <time>2019-08-15T12:03:44Z</time>
      </trkpt>
      <trkpt lat="41.9733600" lon="-5.5967460">
        <ele>724.5</ele>
        <time>2019-08-15T12:03:45Z</time>
      </trkpt>
      <trkpt lat="41.9733940" lon="-5.5968000">
        <ele>724.5</ele>
        <time>2019-08-15T12:03:46Z</time>
      </trkpt>
      <trkpt lat="41.9734270" lon="-5.5968560">
        <ele>724.4</ele>
        <time>2019-08-15T12:03:47Z</time>
      </trkpt>
      <trkpt lat="41.9734640" lon="-5.5969140">
        <ele>724.4</ele>
        <time>2019-08-15T12:03:48Z</time>
      </trkpt>
      <trkpt lat="41.9735010" lon="-5.5969730">
        <ele>724.3</ele>
        <time>2019-08-15T12:03:49Z</time>
      </trkpt>
      <trkpt lat="41.9735380" lon="-5.5970330">
        <ele>724.2</ele>
        <time>2019-08-15T12:03:50Z</time>
      </trkpt>
      <trkpt lat="41.9735750" lon="-5.5970940">
        <ele>724.1</ele>
        <time>2019-08-15T12:03:51Z</time>
      </trkpt>
      <trkpt lat="41.9736120" lon="-5.5971550">
        <ele>724.0</ele>
        <time>2019-08-15T12:03:52Z</time>
      </trkpt>
      <trkpt lat="41.9736490" lon="-5.5972130">
        <ele>724.0</ele>
        <time>2019-08-15T12:03:53Z</time>
      </trkpt>
      <trkpt lat="41.9736850" lon="-5.5972710">
        <ele>723.9</ele>
        <time>2019-08-15T12:03:54Z</time>
      </trkpt>
      <trkpt lat="41.9737200" lon="-5.5973280">
        <ele>723.8</ele>
        <time>2019-08-15T12:03:55Z</time>
      </trkpt>
      <trkpt lat="41.9737530" lon="-5.5973850">
        <ele>723.7</ele>
        <time>2019-08-15T12:03:56Z</time>
      </trkpt>
      <trkpt lat="41.9737880" lon="-5.5974410">
        <ele>723.6</ele>
        <time>2019-08-15T12:03:57Z</time>
      </trkpt>
      <trkpt lat="41.9738240" lon="-5.5974990">
        <ele>723.5</ele>
        <time>2019-08-15T12:03:58Z</time>
      </trkpt>
      <trkpt lat="41.9738600" lon="-5.5975570">
        <ele>723.4</ele>
        <time>2019-08-15T12:03:59Z</time>
      </trkpt>
      <trkpt lat="41.9738960" lon="-5.5976160">
        <ele>723.3</ele>
        <time>2019-08-15T12:04:00Z</time>
      </trkpt>
      <trkpt lat="41.9739310" lon="-5.5976750">
        <ele>723.2</ele>
        <time>2019-08-15T12:04:01Z</time>
      </trkpt>
      <trkpt lat="41.9739640" lon="-5.5977310">
        <ele>723.1</ele>
        <time>2019-08-15T12:04:02Z</time>
      </trkpt>
      <trkpt lat="41.9739980" lon="-5.5977860">
        <ele>723.1</ele>
        <time>2019-08-15T12:04:03Z</time>
      </trkpt>
      <trkpt lat="41.9740340" lon="-5.5978420">
        <ele>723.0</ele>
        <time>2019-08-15T12:04:04Z</time>
      </trkpt>
      <trkpt lat="41.9740680" lon="-5.5978990">
        <ele>723.0</ele>
        <time>2019-08-15T12:04:05Z</time>
      </trkpt>
      <trkpt lat="41.9741040" lon="-5.5979570">
        <ele>723.0</ele>
        <time>2019-08-15T12:04:06Z</time>
      </trkpt>
      <trkpt lat="41.9741380" lon="-5.5980130">
        <ele>723.0</ele>
        <time>2019-08-15T12:04:07Z</time>
      </trkpt>
      <trkpt lat="41.9741710" lon="-5.5980670">
        <ele>723.0</ele>
        <time>2019-08-15T12:04:08Z</time>
      </trkpt>
      <trkpt lat="41.9742030" lon="-5.5981210">
        <ele>723.1</ele>
        <time>2019-08-15T12:04:09Z</time>
      </trkpt>
      <trkpt lat="41.9742330" lon="-5.5981730">
        <ele>723.1</ele>
        <time>2019-08-15T12:04:10Z</time>
      </trkpt>
      <trkpt lat="41.9742630" lon="-5.5982230">
        <ele>723.2</ele>
        <time>2019-08-15T12:04:11Z</time>
      </trkpt>
      <trkpt lat="41.9742950" lon="-5.5982730">
        <ele>723.3</ele>
        <time>2019-08-15T12:04:12Z</time>
      </trkpt>
      <trkpt lat="41.9743270" lon="-5.5983240">
        <ele>723.3</ele>
        <time>2019-08-15T12:04:13Z</time>
      </trkpt>
      <trkpt lat="41.9743600" lon="-5.5983740">
        <ele>723.4</ele>
        <time>2019-08-15T12:04:14Z</time>
      </trkpt>
      <trkpt lat="41.9743920" lon="-5.5984240">
        <ele>723.4</ele>
        <time>2019-08-15T12:04:15Z</time>
      </trkpt>
      <trkpt lat="41.9744240" lon="-5.5984750">
        <ele>723.4</ele>
        <time>2019-08-15T12:04:16Z</time>
      </trkpt>
      <trkpt lat="41.9744560" lon="-5.5985270">
        <ele>723.5</ele>
        <time>2019-08-15T12:04:17Z</time>
      </trkpt>
      <trkpt lat="41.9744870" lon="-5.5985790">
        <ele>723.5</ele>
        <time>2019-08-15T12:04:18Z</time>
      </trkpt>
      <trkpt lat="41.9745210" lon="-5.5986320">
        <ele>723.5</ele>
        <time>2019-08-15T12:04:19Z</time>
      </trkpt>
      <trkpt lat="41.9745540" lon="-5.5986860">
        <ele>723.5</ele>
        <time>2019-08-15T12:04:20Z</time>
      </trkpt>
      <trkpt lat="41.9745890" lon="-5.5987420">
        <ele>723.5</ele>
        <time>2019-08-15T12:04:21Z</time>
      </trkpt>
      <trkpt lat="41.9746240" lon="-5.5987990">
        <ele>723.4</ele>
        <time>2019-08-15T12:04:22Z</time>
      </trkpt>
      <trkpt lat="41.9746580" lon="-5.5988570">
        <ele>723.4</ele>
        <time>2019-08-15T12:04:23Z</time>
      </trkpt>
      <trkpt lat="41.9746930" lon="-5.5989150">
        <ele>723.3</ele>
        <time>2019-08-15T12:04:24Z</time>
      </trkpt>
      <trkpt lat="41.9747280" lon="-5.5989720">
        <ele>723.3</ele>
        <time>2019-08-15T12:04:25Z</time>
      </trkpt>
      <trkpt lat="41.9747620" lon="-5.5990250">
        <ele>723.3</ele>
        <time>2019-08-15T12:04:26Z</time>
      </trkpt>
      <trkpt lat="41.9747960" lon="-5.5990770">
        <ele>723.2</ele>
        <time>2019-08-15T12:04:27Z</time>
      </trkpt>
      <trkpt lat="41.9748290" lon="-5.5991260">
        <ele>723.2</ele>
        <time>2019-08-15T12:04:28Z</time>
      </trkpt>
      <trkpt lat="41.9748600" lon="-5.5991760">
        <ele>723.2</ele>
        <time>2019-08-15T12:04:29Z</time>
      </trkpt>
      <trkpt lat="41.9748910" lon="-5.5992230">
        <ele>723.2</ele>
        <time>2019-08-15T12:04:30Z</time>
      </trkpt>
      <trkpt lat="41.9749200" lon="-5.5992690">
        <ele>723.2</ele>
        <time>2019-08-15T12:04:31Z</time>
      </trkpt>
      <trkpt lat="41.9749470" lon="-5.5993150">
        <ele>723.2</ele>
        <time>2019-08-15T12:04:32Z</time>
      </trkpt>
      <trkpt lat="41.9749740" lon="-5.5993590">
        <ele>723.3</ele>
        <time>2019-08-15T12:04:33Z</time>
      </trkpt>
      <trkpt lat="41.9749990" lon="-5.5993990">
        <ele>723.3</ele>
        <time>2019-08-15T12:04:34Z</time>
      </trkpt>
      <trkpt lat="41.9750250" lon="-5.5994400">
        <ele>723.4</ele>
        <time>2019-08-15T12:04:35Z</time>
      </trkpt>
      <trkpt lat="41.9750520" lon="-5.5994830">
        <ele>723.5</ele>
        <time>2019-08-15T12:04:36Z</time>
      </trkpt>
      <trkpt lat="41.9750780" lon="-5.5995300">
        <ele>723.6</ele>
        <time>2019-08-15T12:04:37Z</time>
      </trkpt>
      <trkpt lat="41.9751080" lon="-5.5995830">
        <ele>723.6</ele>
        <time>2019-08-15T12:04:38Z</time>
      </trkpt>
      <trkpt lat="41.9751400" lon="-5.5996400">
        <ele>723.7</ele>
        <time>2019-08-15T12:04:39Z</time>
      </trkpt>
      <trkpt lat="41.9751740" lon="-5.5996960">
        <ele>723.7</ele>
        <time>2019-08-15T12:04:40Z</time>
      </trkpt>
      <trkpt lat="41.9752110" lon="-5.5997520">
        <ele>723.6</ele>
        <time>2019-08-15T12:04:41Z</time>
      </trkpt>
      <trkpt lat="41.9752500" lon="-5.5998060">
        <ele>723.6</ele>
        <time>2019-08-15T12:04:42Z</time>
      </trkpt>
      <trkpt lat="41.9752860" lon="-5.5998600">
        <ele>723.6</ele>
        <time>2019-08-15T12:04:43Z</time>
      </trkpt>
      <trkpt lat="41.9753190" lon="-5.5999130">
        <ele>723.6</ele>
        <time>2019-08-15T12:04:44Z</time>
      </trkpt>
      <trkpt lat="41.9753490" lon="-5.5999610">
        <ele>723.5</ele>
        <time>2019-08-15T12:04:45Z</time>
      </trkpt>
      <trkpt lat="41.9753760" lon="-5.6000060">
        <ele>723.6</ele>
        <time>2019-08-15T12:04:46Z</time>
      </trkpt>
      <trkpt lat="41.9754020" lon="-5.6000480">
        <ele>723.5</ele>
        <time>2019-08-15T12:04:47Z</time>
      </trkpt>
      <trkpt lat="41.9754270" lon="-5.6000910">
        <ele>723.4</ele>
        <time>2019-08-15T12:04:48Z</time>
      </trkpt>
      <trkpt lat="41.9754500" lon="-5.6001360">
        <ele>723.4</ele>
        <time>2019-08-15T12:04:49Z</time>
      </trkpt>
      <trkpt lat="41.9754750" lon="-5.6001830">
        <ele>723.3</ele>
        <time>2019-08-15T12:04:50Z</time>
      </trkpt>
      <trkpt lat="41.9755030" lon="-5.6002310">
        <ele>723.2</ele>
        <time>2019-08-15T12:04:51Z</time>
      </trkpt>
      <trkpt lat="41.9755340" lon="-5.6002800">
        <ele>723.2</ele>
        <time>2019-08-15T12:04:52Z</time>
      </trkpt>
      <trkpt lat="41.9755660" lon="-5.6003320">
        <ele>723.1</ele>
        <time>2019-08-15T12:04:53Z</time>
      </trkpt>
      <trkpt lat="41.9755990" lon="-5.6003870">
        <ele>723.0</ele>
        <time>2019-08-15T12:04:54Z</time>
      </trkpt>
      <trkpt lat="41.9756310" lon="-5.6004420">
        <ele>723.0</ele>
        <time>2019-08-15T12:04:55Z</time>
      </trkpt>
      <trkpt lat="41.9756650" lon="-5.6004980">
        <ele>722.9</ele>
        <time>2019-08-15T12:04:56Z</time>
      </trkpt>
      <trkpt lat="41.9757000" lon="-5.6005560">
        <ele>722.8</ele>
        <time>2019-08-15T12:04:57Z</time>
      </trkpt>
      <trkpt lat="41.9757340" lon="-5.6006120">
        <ele>722.8</ele>
        <time>2019-08-15T12:04:58Z</time>
      </trkpt>
      <trkpt lat="41.9757690" lon="-5.6006680">
        <ele>722.7</ele>
        <time>2019-08-15T12:04:59Z</time>
      </trkpt>
      <trkpt lat="41.9758020" lon="-5.6007220">
        <ele>722.6</ele>
        <time>2019-08-15T12:05:00Z</time>
      </trkpt>
      <trkpt lat="41.9758350" lon="-5.6007760">
        <ele>722.5</ele>
        <time>2019-08-15T12:05:01Z</time>
      </trkpt>
      <trkpt lat="41.9758690" lon="-5.6008310">
        <ele>722.5</ele>
        <time>2019-08-15T12:05:02Z</time>
      </trkpt>
      <trkpt lat="41.9759030" lon="-5.6008870">
        <ele>722.4</ele>
        <time>2019-08-15T12:05:03Z</time>
      </trkpt>
      <trkpt lat="41.9759370" lon="-5.6009410">
        <ele>722.3</ele>
        <time>2019-08-15T12:05:04Z</time>
      </trkpt>
      <trkpt lat="41.9759700" lon="-5.6009940">
        <ele>722.2</ele>
        <time>2019-08-15T12:05:05Z</time>
      </trkpt>
      <trkpt lat="41.9760050" lon="-5.6010490">
        <ele>722.2</ele>
        <time>2019-08-15T12:05:06Z</time>
      </trkpt>
      <trkpt lat="41.9760380" lon="-5.6011030">
        <ele>722.0</ele>
        <time>2019-08-15T12:05:07Z</time>
      </trkpt>
      <trkpt lat="41.9760720" lon="-5.6011560">
        <ele>721.9</ele>
        <time>2019-08-15T12:05:08Z</time>
      </trkpt>
      <trkpt lat="41.9761060" lon="-5.6012100">
        <ele>721.9</ele>
        <time>2019-08-15T12:05:09Z</time>
      </trkpt>
      <trkpt lat="41.9761390" lon="-5.6012640">
        <ele>721.8</ele>
        <time>2019-08-15T12:05:10Z</time>
      </trkpt>
      <trkpt lat="41.9761720" lon="-5.6013190">
        <ele>721.8</ele>
        <time>2019-08-15T12:05:11Z</time>
      </trkpt>
      <trkpt lat="41.9762060" lon="-5.6013730">
        <ele>721.7</ele>
        <time>2019-08-15T12:05:12Z</time>
      </trkpt>
      <trkpt lat="41.9762410" lon="-5.6014280">
        <ele>721.7</ele>
        <time>2019-08-15T12:05:13Z</time>
      </trkpt>
      <trkpt lat="41.9762750" lon="-5.6014820">
        <ele>721.7</ele>
        <time>2019-08-15T12:05:14Z</time>
      </trkpt>
      <trkpt lat="41.9763100" lon="-5.6015380">
        <ele>721.7</ele>
        <time>2019-08-15T12:05:15Z</time>
      </trkpt>
      <trkpt lat="41.9763440" lon="-5.6015940">
        <ele>721.7</ele>
        <time>2019-08-15T12:05:16Z</time>
      </trkpt>
      <trkpt lat="41.9763770" lon="-5.6016500">
        <ele>721.7</ele>
        <time>2019-08-15T12:05:17Z</time>
      </trkpt>
      <trkpt lat="41.9764110" lon="-5.6017030">
        <ele>721.7</ele>
        <time>2019-08-15T12:05:18Z</time>
      </trkpt>
      <trkpt lat="41.9764440" lon="-5.6017570">
        <ele>721.7</ele>
        <time>2019-08-15T12:05:19Z</time>
      </trkpt>
      <trkpt lat="41.9764760" lon="-5.6018090">
        <ele>721.8</ele>
        <time>2019-08-15T12:05:20Z</time>
      </trkpt>
      <trkpt lat="41.9765060" lon="-5.6018580">
        <ele>721.8</ele>
        <time>2019-08-15T12:05:21Z</time>
      </trkpt>
      <trkpt lat="41.9765350" lon="-5.6019050">
        <ele>721.8</ele>
        <time>2019-08-15T12:05:22Z</time>
      </trkpt>
      <trkpt lat="41.9765660" lon="-5.6019530">
        <ele>721.9</ele>
        <time>2019-08-15T12:05:23Z</time>
      </trkpt>
      <trkpt lat="41.9765940" lon="-5.6020010">
        <ele>721.9</ele>
        <time>2019-08-15T12:05:24Z</time>
      </trkpt>
      <trkpt lat="41.9766230" lon="-5.6020490">
        <ele>722.0</ele>
        <time>2019-08-15T12:05:25Z</time>
      </trkpt>
      <trkpt lat="41.9766510" lon="-5.6020980">
        <ele>722.1</ele>
        <time>2019-08-15T12:05:26Z</time>
      </trkpt>
      <trkpt lat="41.9766800" lon="-5.6021470">
        <ele>722.1</ele>
        <time>2019-08-15T12:05:27Z</time>
      </trkpt>
      <trkpt lat="41.9767120" lon="-5.6021960">
        <ele>722.2</ele>
        <time>2019-08-15T12:05:28Z</time>
      </trkpt>
      <trkpt lat="41.9767440" lon="-5.6022460">
        <ele>722.3</ele>
        <time>2019-08-15T12:05:29Z</time>
      </trkpt>
      <trkpt lat="41.9767750" lon="-5.6022960">
        <ele>722.4</ele>
        <time>2019-08-15T12:05:30Z</time>
      </trkpt>
      <trkpt lat="41.9768060" lon="-5.6023450">
        <ele>722.5</ele>
        <time>2019-08-15T12:05:31Z</time>
      </trkpt>
      <trkpt lat="41.9768370" lon="-5.6023970">
        <ele>722.6</ele>
        <time>2019-08-15T12:05:32Z</time>
      </trkpt>
      <trkpt lat="41.9768700" lon="-5.6024490">
        <ele>722.7</ele>
        <time>2019-08-15T12:05:33Z</time>
      </trkpt>
      <trkpt lat="41.9769040" lon="-5.6025020">
        <ele>722.8</ele>
        <time>2019-08-15T12:05:34Z</time>
      </trkpt>
      <trkpt lat="41.9769370" lon="-5.6025560">
        <ele>722.9</ele>
        <time>2019-08-15T12:05:35Z</time>
      </trkpt>
      <trkpt lat="41.9769700" lon="-5.6026090">
        <ele>723.0</ele>
        <time>2019-08-15T12:05:36Z</time>
      </trkpt>
      <trkpt lat="41.9770040" lon="-5.6026600">
        <ele>723.1</ele>
        <time>2019-08-15T12:05:37Z</time>
      </trkpt>
      <trkpt lat="41.9770370" lon="-5.6027130">
        <ele>723.2</ele>
        <time>2019-08-15T12:05:38Z</time>
      </trkpt>
      <trkpt lat="41.9770690" lon="-5.6027660">
        <ele>723.2</ele>
        <time>2019-08-15T12:05:39Z</time>
      </trkpt>
      <trkpt lat="41.9771020" lon="-5.6028200">
        <ele>723.3</ele>
        <time>2019-08-15T12:05:40Z</time>
      </trkpt>
      <trkpt lat="41.9771340" lon="-5.6028710">
        <ele>723.4</ele>
        <time>2019-08-15T12:05:41Z</time>
      </trkpt>
      <trkpt lat="41.9771640" lon="-5.6029220">
        <ele>723.4</ele>
        <time>2019-08-15T12:05:42Z</time>
      </trkpt>
      <trkpt lat="41.9771930" lon="-5.6029690">
        <ele>723.5</ele>
        <time>2019-08-15T12:05:43Z</time>
      </trkpt>
      <trkpt lat="41.9772220" lon="-5.6030130">
        <ele>723.5</ele>
        <time>2019-08-15T12:05:44Z</time>
      </trkpt>
      <trkpt lat="41.9772520" lon="-5.6030630">
        <ele>723.5</ele>
        <time>2019-08-15T12:05:45Z</time>
      </trkpt>
      <trkpt lat="41.9772830" lon="-5.6031140">
        <ele>723.5</ele>
        <time>2019-08-15T12:05:46Z</time>
      </trkpt>
      <trkpt lat="41.9773140" lon="-5.6031640">
        <ele>723.4</ele>
        <time>2019-08-15T12:05:47Z</time>
      </trkpt>
      <trkpt lat="41.9773450" lon="-5.6032140">
        <ele>723.4</ele>
        <time>2019-08-15T12:05:48Z</time>
      </trkpt>
      <trkpt lat="41.9773770" lon="-5.6032640">
        <ele>723.4</ele>
        <time>2019-08-15T12:05:49Z</time>
      </trkpt>
      <trkpt lat="41.9774080" lon="-5.6033140">
        <ele>723.3</ele>
        <time>2019-08-15T12:05:50Z</time>
      </trkpt>
      <trkpt lat="41.9774380" lon="-5.6033630">
        <ele>723.3</ele>
        <time>2019-08-15T12:05:51Z</time>
      </trkpt>
      <trkpt lat="41.9774680" lon="-5.6034120">
        <ele>723.2</ele>
        <time>2019-08-15T12:05:52Z</time>
      </trkpt>
      <trkpt lat="41.9774980" lon="-5.6034610">
        <ele>723.1</ele>
        <time>2019-08-15T12:05:53Z</time>
      </trkpt>
      <trkpt lat="41.9775280" lon="-5.6035100">
        <ele>723.1</ele>
        <time>2019-08-15T12:05:54Z</time>
      </trkpt>
      <trkpt lat="41.9775570" lon="-5.6035570">
        <ele>723.0</ele>
        <time>2019-08-15T12:05:55Z</time>
      </trkpt>
      <trkpt lat="41.9775870" lon="-5.6036050">
        <ele>723.0</ele>
        <time>2019-08-15T12:05:56Z</time>
      </trkpt>
      <trkpt lat="41.9776160" lon="-5.6036530">
        <ele>722.9</ele>
        <time>2019-08-15T12:05:57Z</time>
      </trkpt>
      <trkpt lat="41.9776460" lon="-5.6037020">
        <ele>722.9</ele>
        <time>2019-08-15T12:05:58Z</time>
      </trkpt>
      <trkpt lat="41.9776760" lon="-5.6037520">
        <ele>722.8</ele>
        <time>2019-08-15T12:05:59Z</time>
      </trkpt>
      <trkpt lat="41.9777070" lon="-5.6038020">
        <ele>722.9</ele>
        <time>2019-08-15T12:06:00Z</time>
      </trkpt>
      <trkpt lat="41.9777360" lon="-5.6038510">
        <ele>722.9</ele>
        <time>2019-08-15T12:06:01Z</time>
      </trkpt>
      <trkpt lat="41.9777660" lon="-5.6038980">
        <ele>722.9</ele>
        <time>2019-08-15T12:06:02Z</time>
      </trkpt>
      <trkpt lat="41.9777930" lon="-5.6039420">
        <ele>723.0</ele>
        <time>2019-08-15T12:06:03Z</time>
      </trkpt>
      <trkpt lat="41.9778190" lon="-5.6039860">
        <ele>723.0</ele>
        <time>2019-08-15T12:06:04Z</time>
      </trkpt>
      <trkpt lat="41.9778460" lon="-5.6040310">
        <ele>723.1</ele>
        <time>2019-08-15T12:06:05Z</time>
      </trkpt>
      <trkpt lat="41.9778740" lon="-5.6040770">
        <ele>723.2</ele>
        <time>2019-08-15T12:06:06Z</time>
      </trkpt>
      <trkpt lat="41.9779020" lon="-5.6041220">
        <ele>723.3</ele>
        <time>2019-08-15T12:06:07Z</time>
      </trkpt>
      <trkpt lat="41.9779300" lon="-5.6041660">
        <ele>723.4</ele>
        <time>2019-08-15T12:06:08Z</time>
      </trkpt>
      <trkpt lat="41.9779600" lon="-5.6042120">
        <ele>723.5</ele>
        <time>2019-08-15T12:06:09Z</time>
      </trkpt>
      <trkpt lat="41.9779890" lon="-5.6042570">
        <ele>723.6</ele>
        <time>2019-08-15T12:06:10Z</time>
      </trkpt>
      <trkpt lat="41.9780160" lon="-5.6043030">
        <ele>723.7</ele>
        <time>2019-08-15T12:06:11Z</time>
      </trkpt>
      <trkpt lat="41.9780450" lon="-5.6043500">
        <ele>723.8</ele>
        <time>2019-08-15T12:06:12Z</time>
      </trkpt>
      <trkpt lat="41.9780740" lon="-5.6043960">
        <ele>723.9</ele>
        <time>2019-08-15T12:06:13Z</time>
      </trkpt>
      <trkpt lat="41.9781060" lon="-5.6044410">
        <ele>724.0</ele>
        <time>2019-08-15T12:06:14Z</time>
      </trkpt>
      <trkpt lat="41.9781370" lon="-5.6044860">
        <ele>724.1</ele>
        <time>2019-08-15T12:06:15Z</time>
      </trkpt>
      <trkpt lat="41.9781670" lon="-5.6045310">
        <ele>724.2</ele>
        <time>2019-08-15T12:06:16Z</time>
      </trkpt>
      <trkpt lat="41.9781940" lon="-5.6045750">
        <ele>724.2</ele>
        <time>2019-08-15T12:06:17Z</time>
      </trkpt>
      <trkpt lat="41.9782190" lon="-5.6046180">
        <ele>724.3</ele>
        <time>2019-08-15T12:06:18Z</time>
      </trkpt>
      <trkpt lat="41.9782450" lon="-5.6046600">
        <ele>724.3</ele>
        <time>2019-08-15T12:06:19Z</time>
      </trkpt>
      <trkpt lat="41.9782710" lon="-5.6047020">
        <ele>724.3</ele>
        <time>2019-08-15T12:06:20Z</time>
      </trkpt>
      <trkpt lat="41.9782980" lon="-5.6047470">
        <ele>724.4</ele>
        <time>2019-08-15T12:06:21Z</time>
      </trkpt>
      <trkpt lat="41.9783260" lon="-5.6047920">
        <ele>724.4</ele>
        <time>2019-08-15T12:06:22Z</time>
      </trkpt>
      <trkpt lat="41.9783560" lon="-5.6048380">
        <ele>724.4</ele>
        <time>2019-08-15T12:06:23Z</time>
      </trkpt>
      <trkpt lat="41.9783870" lon="-5.6048860">
        <ele>724.3</ele>
        <time>2019-08-15T12:06:24Z</time>
      </trkpt>
      <trkpt lat="41.9784190" lon="-5.6049360">
        <ele>724.3</ele>
        <time>2019-08-15T12:06:25Z</time>
      </trkpt>
      <trkpt lat="41.9784480" lon="-5.6049860">
        <ele>724.2</ele>
        <time>2019-08-15T12:06:26Z</time>
      </trkpt>
      <trkpt lat="41.9784730" lon="-5.6050350">
        <ele>724.2</ele>
        <time>2019-08-15T12:06:27Z</time>
      </trkpt>
      <trkpt lat="41.9784970" lon="-5.6050840">
        <ele>724.1</ele>
        <time>2019-08-15T12:06:28Z</time>
      </trkpt>
      <trkpt lat="41.9785230" lon="-5.6051320">
        <ele>723.9</ele>
        <time>2019-08-15T12:06:29Z</time>
      </trkpt>
      <trkpt lat="41.9785490" lon="-5.6051780">
        <ele>723.8</ele>
        <time>2019-08-15T12:06:30Z</time>
      </trkpt>
      <trkpt lat="41.9785750" lon="-5.6052250">
        <ele>723.7</ele>
        <time>2019-08-15T12:06:31Z</time>
      </trkpt>
      <trkpt lat="41.9786010" lon="-5.6052710">
        <ele>723.5</ele>
        <time>2019-08-15T12:06:32Z</time>
      </trkpt>
      <trkpt lat="41.9786270" lon="-5.6053150">
        <ele>723.4</ele>
        <time>2019-08-15T12:06:33Z</time>
      </trkpt>
      <trkpt lat="41.9786530" lon="-5.6053570">
        <ele>723.3</ele>
        <time>2019-08-15T12:06:34Z</time>
      </trkpt>
      <trkpt lat="41.9786760" lon="-5.6053990">
        <ele>723.2</ele>
        <time>2019-08-15T12:06:35Z</time>
      </trkpt>
      <trkpt lat="41.9786980" lon="-5.6054400">
        <ele>723.1</ele>
        <time>2019-08-15T12:06:36Z</time>
      </trkpt>
      <trkpt lat="41.9787200" lon="-5.6054760">
        <ele>723.0</ele>
        <time>2019-08-15T12:06:37Z</time>
      </trkpt>
      <trkpt lat="41.9787460" lon="-5.6055090">
        <ele>722.9</ele>
        <time>2019-08-15T12:06:38Z</time>
      </trkpt>
      <trkpt lat="41.9787730" lon="-5.6055440">
        <ele>722.7</ele>
        <time>2019-08-15T12:06:39Z</time>
      </trkpt>
      <trkpt lat="41.9788000" lon="-5.6055840">
        <ele>722.6</ele>
        <time>2019-08-15T12:06:40Z</time>
      </trkpt>
      <trkpt lat="41.9788270" lon="-5.6056270">
        <ele>722.5</ele>
        <time>2019-08-15T12:06:41Z</time>
      </trkpt>
      <trkpt lat="41.9788540" lon="-5.6056730">
        <ele>722.4</ele>
        <time>2019-08-15T12:06:42Z</time>
      </trkpt>
      <trkpt lat="41.9788830" lon="-5.6057220">
        <ele>722.4</ele>
        <time>2019-08-15T12:06:43Z</time>
      </trkpt>
      <trkpt lat="41.9789120" lon="-5.6057690">
        <ele>722.3</ele>
        <time>2019-08-15T12:06:44Z</time>
      </trkpt>
      <trkpt lat="41.9789390" lon="-5.6058140">
        <ele>722.3</ele>
        <time>2019-08-15T12:06:45Z</time>
      </trkpt>
      <trkpt lat="41.9789660" lon="-5.6058580">
        <ele>722.2</ele>
        <time>2019-08-15T12:06:46Z</time>
      </trkpt>
      <trkpt lat="41.9789940" lon="-5.6058990">
        <ele>722.2</ele>
        <time>2019-08-15T12:06:47Z</time>
      </trkpt>
      <trkpt lat="41.9790200" lon="-5.6059390">
        <ele>722.2</ele>
        <time>2019-08-15T12:06:48Z</time>
      </trkpt>
      <trkpt lat="41.9790440" lon="-5.6059790">
        <ele>722.3</ele>
        <time>2019-08-15T12:06:49Z</time>
      </trkpt>
      <trkpt lat="41.9790700" lon="-5.6060220">
        <ele>722.3</ele>
        <time>2019-08-15T12:06:50Z</time>
      </trkpt>
      <trkpt lat="41.9791000" lon="-5.6060650">
        <ele>722.3</ele>
        <time>2019-08-15T12:06:51Z</time>
      </trkpt>
      <trkpt lat="41.9791300" lon="-5.6061120">
        <ele>722.3</ele>
        <time>2019-08-15T12:06:52Z</time>
      </trkpt>
      <trkpt lat="41.9791590" lon="-5.6061580">
        <ele>722.4</ele>
        <time>2019-08-15T12:06:53Z</time>
      </trkpt>
      <trkpt lat="41.9791890" lon="-5.6062060">
        <ele>722.4</ele>
        <time>2019-08-15T12:06:54Z</time>
      </trkpt>
      <trkpt lat="41.9792180" lon="-5.6062550">
        <ele>722.5</ele>
        <time>2019-08-15T12:06:55Z</time>
      </trkpt>
      <trkpt lat="41.9792480" lon="-5.6063050">
        <ele>722.5</ele>
        <time>2019-08-15T12:06:56Z</time>
      </trkpt>
      <trkpt lat="41.9792780" lon="-5.6063550">
        <ele>722.5</ele>
        <time>2019-08-15T12:06:57Z</time>
      </trkpt>
      <trkpt lat="41.9793110" lon="-5.6064050">
        <ele>722.6</ele>
        <time>2019-08-15T12:06:58Z</time>
      </trkpt>
      <trkpt lat="41.9793440" lon="-5.6064550">
        <ele>722.6</ele>
        <time>2019-08-15T12:06:59Z</time>
      </trkpt>
      <trkpt lat="41.9793760" lon="-5.6065050">
        <ele>722.6</ele>
        <time>2019-08-15T12:07:00Z</time>
      </trkpt>
      <trkpt lat="41.9794070" lon="-5.6065540">
        <ele>722.7</ele>
        <time>2019-08-15T12:07:01Z</time>
      </trkpt>
      <trkpt lat="41.9794380" lon="-5.6066000">
        <ele>722.7</ele>
        <time>2019-08-15T12:07:02Z</time>
      </trkpt>
      <trkpt lat="41.9794680" lon="-5.6066430">
        <ele>722.7</ele>
        <time>2019-08-15T12:07:03Z</time>
      </trkpt>
      <trkpt lat="41.9794950" lon="-5.6066860">
        <ele>722.7</ele>
        <time>2019-08-15T12:07:04Z</time>
      </trkpt>
      <trkpt lat="41.9795200" lon="-5.6067270">
        <ele>722.6</ele>
        <time>2019-08-15T12:07:05Z</time>
      </trkpt>
      <trkpt lat="41.9795440" lon="-5.6067670">
        <ele>722.6</ele>
        <time>2019-08-15T12:07:06Z</time>
      </trkpt>
      <trkpt lat="41.9795690" lon="-5.6068050">
        <ele>722.6</ele>
        <time>2019-08-15T12:07:07Z</time>
      </trkpt>
      <trkpt lat="41.9795910" lon="-5.6068430">
        <ele>722.5</ele>
        <time>2019-08-15T12:07:08Z</time>
      </trkpt>
      <trkpt lat="41.9796120" lon="-5.6068820">
        <ele>722.5</ele>
        <time>2019-08-15T12:07:09Z</time>
      </trkpt>
      <trkpt lat="41.9796350" lon="-5.6069230">
        <ele>722.5</ele>
        <time>2019-08-15T12:07:10Z</time>
      </trkpt>
      <trkpt lat="41.9796580" lon="-5.6069630">
        <ele>722.4</ele>
        <time>2019-08-15T12:07:11Z</time>
      </trkpt>
      <trkpt lat="41.9796830" lon="-5.6070040">
        <ele>722.4</ele>
        <time>2019-08-15T12:07:12Z</time>
      </trkpt>
      <trkpt lat="41.9797090" lon="-5.6070470">
        <ele>722.4</ele>
        <time>2019-08-15T12:07:13Z</time>
      </trkpt>
      <trkpt lat="41.9797350" lon="-5.6070890">
        <ele>722.3</ele>
        <time>2019-08-15T12:07:14Z</time>
      </trkpt>
      <trkpt lat="41.9797620" lon="-5.6071320">
        <ele>722.3</ele>
        <time>2019-08-15T12:07:15Z</time>
      </trkpt>
      <trkpt lat="41.9797900" lon="-5.6071740">
        <ele>722.3</ele>
        <time>2019-08-15T12:07:16Z</time>
      </trkpt>
      <trkpt lat="41.9798200" lon="-5.6072150">
        <ele>722.3</ele>
        <time>2019-08-15T12:07:17Z</time>
      </trkpt>
      <trkpt lat="41.9798480" lon="-5.6072580">
        <ele>722.3</ele>
        <time>2019-08-15T12:07:18Z</time>
      </trkpt>
      <trkpt lat="41.9798740" lon="-5.6073010">
        <ele>722.4</ele>
        <time>2019-08-15T12:07:19Z</time>
      </trkpt>
      <trkpt lat="41.9799000" lon="-5.6073440">
        <ele>722.4</ele>
        <time>2019-08-15T12:07:20Z</time>
      </trkpt>
      <trkpt lat="41.9799250" lon="-5.6073840">
        <ele>722.5</ele>
        <time>2019-08-15T12:07:21Z</time>
      </trkpt>
      <trkpt lat="41.9799490" lon="-5.6074210">
        <ele>722.6</ele>
        <time>2019-08-15T12:07:22Z</time>
      </trkpt>
      <trkpt lat="41.9799730" lon="-5.6074570">
        <ele>722.7</ele>
        <time>2019-08-15T12:07:23Z</time>
      </trkpt>
      <trkpt lat="41.9799960" lon="-5.6074940">
        <ele>722.8</ele>
        <time>2019-08-15T12:07:24Z</time>
      </trkpt>
      <trkpt lat="41.9800200" lon="-5.6075320">
        <ele>722.9</ele>
        <time>2019-08-15T12:07:25Z</time>
      </trkpt>
      <trkpt lat="41.9800460" lon="-5.6075680">
        <ele>723.0</ele>
        <time>2019-08-15T12:07:26Z</time>
      </trkpt>
      <trkpt lat="41.9800700" lon="-5.6076010">
        <ele>723.2</ele>
        <time>2019-08-15T12:07:27Z</time>
      </trkpt>
      <trkpt lat="41.9800920" lon="-5.6076340">
        <ele>723.3</ele>
        <time>2019-08-15T12:07:28Z</time>
      </trkpt>
      <trkpt lat="41.9801130" lon="-5.6076650">
        <ele>723.5</ele>
        <time>2019-08-15T12:07:29Z</time>
      </trkpt>
      <trkpt lat="41.9801310" lon="-5.6076920">
        <ele>723.6</ele>
        <time>2019-08-15T12:07:30Z</time>
      </trkpt>
      <trkpt lat="41.9801590" lon="-5.6077380">
        <ele>723.8</ele>
        <time>2019-08-15T12:07:32Z</time>
      </trkpt>
      <trkpt lat="41.9801870" lon="-5.6077830">
        <ele>724.0</ele>
        <time>2019-08-15T12:07:34Z</time>
      </trkpt>
      <trkpt lat="41.9802290" lon="-5.6078400">
        <ele>724.4</ele>
        <time>2019-08-15T12:07:36Z</time>
      </trkpt>
      <trkpt lat="41.9802550" lon="-5.6078700">
        <ele>724.5</ele>
        <time>2019-08-15T12:07:37Z</time>
      </trkpt>
      <trkpt lat="41.9802860" lon="-5.6079000">
        <ele>724.7</ele>
        <time>2019-08-15T12:07:38Z</time>
      </trkpt>
      <trkpt lat="41.9803170" lon="-5.6079310">
        <ele>724.9</ele>
        <time>2019-08-15T12:07:39Z</time>
      </trkpt>
      <trkpt lat="41.9803440" lon="-5.6079640">
        <ele>725.1</ele>
        <time>2019-08-15T12:07:40Z</time>
      </trkpt>
      <trkpt lat="41.9803660" lon="-5.6079980">
        <ele>725.2</ele>
        <time>2019-08-15T12:07:41Z</time>
      </trkpt>
      <trkpt lat="41.9803860" lon="-5.6080320">
        <ele>725.3</ele>
        <time>2019-08-15T12:07:42Z</time>
      </trkpt>
      <trkpt lat="41.9804080" lon="-5.6080690">
        <ele>725.4</ele>
        <time>2019-08-15T12:07:43Z</time>
      </trkpt>
      <trkpt lat="41.9804310" lon="-5.6081100">
        <ele>725.5</ele>
        <time>2019-08-15T12:07:44Z</time>
      </trkpt>
      <trkpt lat="41.9804560" lon="-5.6081530">
        <ele>725.6</ele>
        <time>2019-08-15T12:07:45Z</time>
      </trkpt>
      <trkpt lat="41.9804840" lon="-5.6081950">
        <ele>725.6</ele>
        <time>2019-08-15T12:07:46Z</time>
      </trkpt>
      <trkpt lat="41.9805140" lon="-5.6082350">
        <ele>725.6</ele>
        <time>2019-08-15T12:07:47Z</time>
      </trkpt>
      <trkpt lat="41.9805420" lon="-5.6082740">
        <ele>725.6</ele>
        <time>2019-08-15T12:07:48Z</time>
      </trkpt>
      <trkpt lat="41.9805680" lon="-5.6083130">
        <ele>725.6</ele>
        <time>2019-08-15T12:07:49Z</time>
      </trkpt>
      <trkpt lat="41.9805930" lon="-5.6083500">
        <ele>725.5</ele>
        <time>2019-08-15T12:07:50Z</time>
      </trkpt>
      <trkpt lat="41.9806170" lon="-5.6083870">
        <ele>725.5</ele>
        <time>2019-08-15T12:07:51Z</time>
      </trkpt>
      <trkpt lat="41.9806430" lon="-5.6084230">
        <ele>725.4</ele>
        <time>2019-08-15T12:07:52Z</time>
      </trkpt>
      <trkpt lat="41.9806700" lon="-5.6084600">
        <ele>725.3</ele>
        <time>2019-08-15T12:07:53Z</time>
      </trkpt>
      <trkpt lat="41.9806970" lon="-5.6085000">
        <ele>725.1</ele>
        <time>2019-08-15T12:07:54Z</time>
      </trkpt>
      <trkpt lat="41.9807240" lon="-5.6085410">
        <ele>724.9</ele>
        <time>2019-08-15T12:07:55Z</time>
      </trkpt>
      <trkpt lat="41.9807520" lon="-5.6085780">
        <ele>724.7</ele>
        <time>2019-08-15T12:07:56Z</time>
      </trkpt>
      <trkpt lat="41.9807790" lon="-5.6086140">
        <ele>724.5</ele>
        <time>2019-08-15T12:07:57Z</time>
      </trkpt>
      <trkpt lat="41.9808050" lon="-5.6086480">
        <ele>724.5</ele>
        <time>2019-08-15T12:07:58Z</time>
      </trkpt>
      <trkpt lat="41.9808290" lon="-5.6086860">
        <ele>724.3</ele>
        <time>2019-08-15T12:07:59Z</time>
      </trkpt>
      <trkpt lat="41.9808550" lon="-5.6087240">
        <ele>724.1</ele>
        <time>2019-08-15T12:08:00Z</time>
      </trkpt>
      <trkpt lat="41.9808810" lon="-5.6087640">
        <ele>724.0</ele>
        <time>2019-08-15T12:08:01Z</time>
      </trkpt>
      <trkpt lat="41.9809090" lon="-5.6088050">
        <ele>723.8</ele>
        <time>2019-08-15T12:08:02Z</time>
      </trkpt>
      <trkpt lat="41.9809400" lon="-5.6088450">
        <ele>723.6</ele>
        <time>2019-08-15T12:08:03Z</time>
      </trkpt>
      <trkpt lat="41.9809670" lon="-5.6088820">
        <ele>723.5</ele>
        <time>2019-08-15T12:08:04Z</time>
      </trkpt>
      <trkpt lat="41.9809940" lon="-5.6089260">
        <ele>723.4</ele>
        <time>2019-08-15T12:08:05Z</time>
      </trkpt>
      <trkpt lat="41.9810210" lon="-5.6089690">
        <ele>723.3</ele>
        <time>2019-08-15T12:08:06Z</time>
      </trkpt>
      <trkpt lat="41.9810470" lon="-5.6090110">
        <ele>723.2</ele>
        <time>2019-08-15T12:08:07Z</time>
      </trkpt>
      <trkpt lat="41.9810730" lon="-5.6090510">
        <ele>723.1</ele>
        <time>2019-08-15T12:08:08Z</time>
      </trkpt>
      <trkpt lat="41.9810960" lon="-5.6090910">
        <ele>723.1</ele>
        <time>2019-08-15T12:08:09Z</time>
      </trkpt>
      <trkpt lat="41.9811170" lon="-5.6091300">
        <ele>723.1</ele>
        <time>2019-08-15T12:08:10Z</time>
      </trkpt>
      <trkpt lat="41.9811370" lon="-5.6091630">
        <ele>723.1</ele>
        <time>2019-08-15T12:08:11Z</time>
      </trkpt>
      <trkpt lat="41.9811570" lon="-5.6091890">
        <ele>723.0</ele>
        <time>2019-08-15T12:08:12Z</time>
      </trkpt>
      <trkpt lat="41.9811790" lon="-5.6092160">
        <ele>723.0</ele>
        <time>2019-08-15T12:08:13Z</time>
      </trkpt>
      <trkpt lat="41.9812010" lon="-5.6092450">
        <ele>723.1</ele>
        <time>2019-08-15T12:08:14Z</time>
      </trkpt>
      <trkpt lat="41.9812220" lon="-5.6092800">
        <ele>723.1</ele>
        <time>2019-08-15T12:08:15Z</time>
      </trkpt>
      <trkpt lat="41.9812430" lon="-5.6093160">
        <ele>723.1</ele>
        <time>2019-08-15T12:08:16Z</time>
      </trkpt>
      <trkpt lat="41.9812630" lon="-5.6093500">
        <ele>723.1</ele>
        <time>2019-08-15T12:08:17Z</time>
      </trkpt>
      <trkpt lat="41.9812880" lon="-5.6093870">
        <ele>723.2</ele>
        <time>2019-08-15T12:08:18Z</time>
      </trkpt>
      <trkpt lat="41.9813140" lon="-5.6094280">
        <ele>723.2</ele>
        <time>2019-08-15T12:08:19Z</time>
      </trkpt>
      <trkpt lat="41.9813420" lon="-5.6094700">
        <ele>723.3</ele>
        <time>2019-08-15T12:08:20Z</time>
      </trkpt>
      <trkpt lat="41.9813740" lon="-5.6095100">
        <ele>723.4</ele>
        <time>2019-08-15T12:08:21Z</time>
      </trkpt>
      <trkpt lat="41.9814050" lon="-5.6095530">
        <ele>723.4</ele>
        <time>2019-08-15T12:08:22Z</time>
      </trkpt>
      <trkpt lat="41.9814370" lon="-5.6095960">
        <ele>723.5</ele>
        <time>2019-08-15T12:08:23Z</time>
      </trkpt>
      <trkpt lat="41.9814660" lon="-5.6096420">
        <ele>723.6</ele>
        <time>2019-08-15T12:08:24Z</time>
      </trkpt>
      <trkpt lat="41.9814950" lon="-5.6096900">
        <ele>723.7</ele>
        <time>2019-08-15T12:08:25Z</time>
      </trkpt>
      <trkpt lat="41.9815230" lon="-5.6097380">
        <ele>723.8</ele>
        <time>2019-08-15T12:08:26Z</time>
      </trkpt>
      <trkpt lat="41.9815520" lon="-5.6097840">
        <ele>723.9</ele>
        <time>2019-08-15T12:08:27Z</time>
      </trkpt>
      <trkpt lat="41.9815830" lon="-5.6098290">
        <ele>724.0</ele>
        <time>2019-08-15T12:08:28Z</time>
      </trkpt>
      <trkpt lat="41.9816140" lon="-5.6098750">
        <ele>724.1</ele>
        <time>2019-08-15T12:08:29Z</time>
      </trkpt>
      <trkpt lat="41.9816440" lon="-5.6099210">
        <ele>724.2</ele>
        <time>2019-08-15T12:08:30Z</time>
      </trkpt>
      <trkpt lat="41.9816700" lon="-5.6099690">
        <ele>724.3</ele>
        <time>2019-08-15T12:08:31Z</time>
      </trkpt>
      <trkpt lat="41.9816940" lon="-5.6100160">
        <ele>724.4</ele>
        <time>2019-08-15T12:08:32Z</time>
      </trkpt>
      <trkpt lat="41.9817130" lon="-5.6100560">
        <ele>724.5</ele>
        <time>2019-08-15T12:08:33Z</time>
      </trkpt>
      <trkpt lat="41.9817250" lon="-5.6100750">
        <ele>724.6</ele>
        <time>2019-08-15T12:08:34Z</time>
      </trkpt>
      <trkpt lat="41.9817290" lon="-5.6100730">
        <ele>724.6</ele>
        <time>2019-08-15T12:08:38Z</time>
      </trkpt>
      <trkpt lat="41.9818160" lon="-5.6101030">
        <ele>724.7</ele>
        <time>2019-08-15T12:09:26Z</time>
      </trkpt>
      <trkpt lat="41.9818440" lon="-5.6101290">
        <ele>724.8</ele>
        <time>2019-08-15T12:09:28Z</time>
      </trkpt>
      <trkpt lat="41.9818820" lon="-5.6101570">
        <ele>724.9</ele>
        <time>2019-08-15T12:09:30Z</time>
      </trkpt>
      <trkpt lat="41.9819130" lon="-5.6101930">
        <ele>724.9</ele>
        <time>2019-08-15T12:09:32Z</time>
      </trkpt>
      <trkpt lat="41.9819300" lon="-5.6102280">
        <ele>725.0</ele>
        <time>2019-08-15T12:09:34Z</time>
      </trkpt>
      <trkpt lat="41.9819420" lon="-5.6102550">
        <ele>725.1</ele>
        <time>2019-08-15T12:09:36Z</time>
      </trkpt>
      <trkpt lat="41.9819710" lon="-5.6102620">
        <ele>725.1</ele>
        <time>2019-08-15T12:09:42Z</time>
      </trkpt>
      <trkpt lat="41.9820060" lon="-5.6102860">
        <ele>725.2</ele>
        <time>2019-08-15T12:09:44Z</time>
      </trkpt>
      <trkpt lat="41.9820490" lon="-5.6103140">
        <ele>725.2</ele>
        <time>2019-08-15T12:09:46Z</time>
      </trkpt>
      <trkpt lat="41.9820970" lon="-5.6103560">
        <ele>725.3</ele>
        <time>2019-08-15T12:09:48Z</time>
      </trkpt>
      <trkpt lat="41.9821220" lon="-5.6103810">
        <ele>725.4</ele>
        <time>2019-08-15T12:09:49Z</time>
      </trkpt>
      <trkpt lat="41.9821460" lon="-5.6104070">
        <ele>725.4</ele>
        <time>2019-08-15T12:09:50Z</time>
      </trkpt>
      <trkpt lat="41.9821710" lon="-5.6104310">
        <ele>725.5</ele>
        <time>2019-08-15T12:09:51Z</time>
      </trkpt>
      <trkpt lat="41.9821940" lon="-5.6104530">
        <ele>725.5</ele>
        <time>2019-08-15T12:09:52Z</time>
      </trkpt>
      <trkpt lat="41.9822150" lon="-5.6104740">
        <ele>725.6</ele>
        <time>2019-08-15T12:09:53Z</time>
      </trkpt>
      <trkpt lat="41.9822530" lon="-5.6105120">
        <ele>725.6</ele>
        <time>2019-08-15T12:09:55Z</time>
      </trkpt>
      <trkpt lat="41.9822810" lon="-5.6105450">
        <ele>725.7</ele>
        <time>2019-08-15T12:09:57Z</time>
      </trkpt>
      <trkpt lat="41.9823000" lon="-5.6105690">
        <ele>725.7</ele>
        <time>2019-08-15T12:09:59Z</time>
      </trkpt>
      <trkpt lat="41.9823340" lon="-5.6105880">
        <ele>725.7</ele>
        <time>2019-08-15T12:10:02Z</time>
      </trkpt>
      <trkpt lat="41.9823680" lon="-5.6105960">
        <ele>725.8</ele>
        <time>2019-08-15T12:10:04Z</time>
      </trkpt>
      <trkpt lat="41.9824000" lon="-5.6105990">
        <ele>725.8</ele>
        <time>2019-08-15T12:10:06Z</time>
      </trkpt>
      <trkpt lat="41.9825150" lon="-5.6105900">
        <ele>726.0</ele>
        <time>2019-08-15T12:10:22Z</time>
      </trkpt>
      <trkpt lat="41.9825510" lon="-5.6105900">
        <ele>726.0</ele>
        <time>2019-08-15T12:10:23Z</time>
      </trkpt>
      <trkpt lat="41.9825860" lon="-5.6105850">
        <ele>726.0</ele>
        <time>2019-08-15T12:10:24Z</time>
      </trkpt>
      <trkpt lat="41.9826230" lon="-5.6105800">
        <ele>726.1</ele>
        <time>2019-08-15T12:10:25Z</time>
      </trkpt>
      <trkpt lat="41.9826620" lon="-5.6105740">
        <ele>726.1</ele>
        <time>2019-08-15T12:10:26Z</time>
      </trkpt>
      <trkpt lat="41.9827010" lon="-5.6105710">
        <ele>726.1</ele>
        <time>2019-08-15T12:10:27Z</time>
      </trkpt>
      <trkpt lat="41.9827410" lon="-5.6105760">
        <ele>726.2</ele>
        <time>2019-08-15T12:10:28Z</time>
      </trkpt>
      <trkpt lat="41.9827800" lon="-5.6105880">
        <ele>726.2</ele>
        <time>2019-08-15T12:10:29Z</time>
      </trkpt>
      <trkpt lat="41.9828150" lon="-5.6106080">
        <ele>726.3</ele>
        <time>2019-08-15T12:10:30Z</time>
      </trkpt>
      <trkpt lat="41.9828470" lon="-5.6106340">
        <ele>726.3</ele>
        <time>2019-08-15T12:10:31Z</time>
      </trkpt>
      <trkpt lat="41.9828760" lon="-5.6106630">
        <ele>726.4</ele>
        <time>2019-08-15T12:10:32Z</time>
      </trkpt>
      <trkpt lat="41.9829030" lon="-5.6106960">
        <ele>726.4</ele>
        <time>2019-08-15T12:10:33Z</time>
      </trkpt>
      <trkpt lat="41.9829280" lon="-5.6107310">
        <ele>726.5</ele>
        <time>2019-08-15T12:10:34Z</time>
      </trkpt>
      <trkpt lat="41.9829500" lon="-5.6107690">
        <ele>726.5</ele>
        <time>2019-08-15T12:10:35Z</time>
      </trkpt>
      <trkpt lat="41.9829660" lon="-5.6108090">
        <ele>726.6</ele>
        <time>2019-08-15T12:10:36Z</time>
      </trkpt>
      <trkpt lat="41.9829780" lon="-5.6108430">
        <ele>726.6</ele>
        <time>2019-08-15T12:10:37Z</time>
      </trkpt>
      <trkpt lat="41.9829900" lon="-5.6108700">
        <ele>726.6</ele>
        <time>2019-08-15T12:10:38Z</time>
      </trkpt>
      <trkpt lat="41.9830080" lon="-5.6108980">
        <ele>726.6</ele>
        <time>2019-08-15T12:10:40Z</time>
      </trkpt>
      <trkpt lat="41.9830970" lon="-5.6109680">
        <ele>727.7</ele>
        <time>2019-08-15T12:11:14Z</time>
      </trkpt>
      <trkpt lat="41.9831510" lon="-5.6109820">
        <ele>728.1</ele>
        <time>2019-08-15T12:11:16Z</time>
      </trkpt>
      <trkpt lat="41.9831810" lon="-5.6109870">
        <ele>728.3</ele>
        <time>2019-08-15T12:11:17Z</time>
      </trkpt>
      <trkpt lat="41.9832120" lon="-5.6109910">
        <ele>728.5</ele>
        <time>2019-08-15T12:11:18Z</time>
      </trkpt>
      <trkpt lat="41.9832440" lon="-5.6109990">
        <ele>728.7</ele>
        <time>2019-08-15T12:11:19Z</time>
      </trkpt>
      <trkpt lat="41.9832760" lon="-5.6110060">
        <ele>728.9</ele>
        <time>2019-08-15T12:11:20Z</time>
      </trkpt>
      <trkpt lat="41.9833090" lon="-5.6110160">
        <ele>729.1</ele>
        <time>2019-08-15T12:11:21Z</time>
      </trkpt>
      <trkpt lat="41.9833420" lon="-5.6110250">
        <ele>729.3</ele>
        <time>2019-08-15T12:11:22Z</time>
      </trkpt>
      <trkpt lat="41.9833760" lon="-5.6110330">
        <ele>729.5</ele>
        <time>2019-08-15T12:11:23Z</time>
      </trkpt>
      <trkpt lat="41.9834110" lon="-5.6110410">
        <ele>729.6</ele>
        <time>2019-08-15T12:11:24Z</time>
      </trkpt>
      <trkpt lat="41.9834460" lon="-5.6110500">
        <ele>729.8</ele>
        <time>2019-08-15T12:11:25Z</time>
      </trkpt>
      <trkpt lat="41.9834800" lon="-5.6110600">
        <ele>729.9</ele>
        <time>2019-08-15T12:11:26Z</time>
      </trkpt>
      <trkpt lat="41.9835140" lon="-5.6110700">
        <ele>730.0</ele>
        <time>2019-08-15T12:11:27Z</time>
      </trkpt>
      <trkpt lat="41.9835480" lon="-5.6110810">
        <ele>730.1</ele>
        <time>2019-08-15T12:11:28Z</time>
      </trkpt>
      <trkpt lat="41.9835830" lon="-5.6110910">
        <ele>730.3</ele>
        <time>2019-08-15T12:11:29Z</time>
      </trkpt>
      <trkpt lat="41.9836180" lon="-5.6111010">
        <ele>730.4</ele>
        <time>2019-08-15T12:11:30Z</time>
      </trkpt>
      <trkpt lat="41.9836530" lon="-5.6111100">
        <ele>730.5</ele>
        <time>2019-08-15T12:11:31Z</time>
      </trkpt>
      <trkpt lat="41.9836870" lon="-5.6111200">
        <ele>730.7</ele>
        <time>2019-08-15T12:11:32Z</time>
      </trkpt>
      <trkpt lat="41.9837210" lon="-5.6111320">
        <ele>730.8</ele>
        <time>2019-08-15T12:11:33Z</time>
      </trkpt>
      <trkpt lat="41.9837550" lon="-5.6111450">
        <ele>731.0</ele>
        <time>2019-08-15T12:11:34Z</time>
      </trkpt>
      <trkpt lat="41.9837890" lon="-5.6111590">
        <ele>731.1</ele>
        <time>2019-08-15T12:11:35Z</time>
      </trkpt>
      <trkpt lat="41.9838220" lon="-5.6111710">
        <ele>731.3</ele>
        <time>2019-08-15T12:11:36Z</time>
      </trkpt>
      <trkpt lat="41.9838540" lon="-5.6111840">
        <ele>731.5</ele>
        <time>2019-08-15T12:11:37Z</time>
      </trkpt>
      <trkpt lat="41.9838850" lon="-5.6112020">
        <ele>731.7</ele>
        <time>2019-08-15T12:11:38Z</time>
      </trkpt>
      <trkpt lat="41.9839130" lon="-5.6112260">
        <ele>731.9</ele>
        <time>2019-08-15T12:11:39Z</time>
      </trkpt>
      <trkpt lat="41.9839390" lon="-5.6112520">
        <ele>732.0</ele>
        <time>2019-08-15T12:11:40Z</time>
      </trkpt>
      <trkpt lat="41.9839650" lon="-5.6112790">
        <ele>732.2</ele>
        <time>2019-08-15T12:11:41Z</time>
      </trkpt>
      <trkpt lat="41.9839900" lon="-5.6113080">
        <ele>732.4</ele>
        <time>2019-08-15T12:11:42Z</time>
      </trkpt>
      <trkpt lat="41.9840150" lon="-5.6113370">
        <ele>732.6</ele>
        <time>2019-08-15T12:11:43Z</time>
      </trkpt>
      <trkpt lat="41.9840390" lon="-5.6113670">
        <ele>732.9</ele>
        <time>2019-08-15T12:11:44Z</time>
      </trkpt>
      <trkpt lat="41.9840610" lon="-5.6113990">
        <ele>733.0</ele>
        <time>2019-08-15T12:11:45Z</time>
      </trkpt>
      <trkpt lat="41.9840820" lon="-5.6114300">
        <ele>733.1</ele>
        <time>2019-08-15T12:11:46Z</time>
      </trkpt>
      <trkpt lat="41.9841040" lon="-5.6114610">
        <ele>733.2</ele>
        <time>2019-08-15T12:11:47Z</time>
      </trkpt>
      <trkpt lat="41.9841240" lon="-5.6114910">
        <ele>733.4</ele>
        <time>2019-08-15T12:11:48Z</time>
      </trkpt>
      <trkpt lat="41.9841440" lon="-5.6115220">
        <ele>733.5</ele>
        <time>2019-08-15T12:11:49Z</time>
      </trkpt>
      <trkpt lat="41.9841640" lon="-5.6115530">
        <ele>733.6</ele>
        <time>2019-08-15T12:11:50Z</time>
      </trkpt>
      <trkpt lat="41.9841840" lon="-5.6115830">
        <ele>733.7</ele>
        <time>2019-08-15T12:11:51Z</time>
      </trkpt>
      <trkpt lat="41.9842050" lon="-5.6116120">
        <ele>733.8</ele>
        <time>2019-08-15T12:11:52Z</time>
      </trkpt>
      <trkpt lat="41.9842240" lon="-5.6116420">
        <ele>734.0</ele>
        <time>2019-08-15T12:11:53Z</time>
      </trkpt>
      <trkpt lat="41.9842440" lon="-5.6116690">
        <ele>734.1</ele>
        <time>2019-08-15T12:11:54Z</time>
      </trkpt>
      <trkpt lat="41.9842650" lon="-5.6116950">
        <ele>734.2</ele>
        <time>2019-08-15T12:11:55Z</time>
      </trkpt>
      <trkpt lat="41.9842850" lon="-5.6117220">
        <ele>734.3</ele>
        <time>2019-08-15T12:11:56Z</time>
      </trkpt>
      <trkpt lat="41.9843060" lon="-5.6117490">
        <ele>734.4</ele>
        <time>2019-08-15T12:11:57Z</time>
      </trkpt>
      <trkpt lat="41.9843260" lon="-5.6117770">
        <ele>734.5</ele>
        <time>2019-08-15T12:11:58Z</time>
      </trkpt>
      <trkpt lat="41.9843460" lon="-5.6118050">
        <ele>734.6</ele>
        <time>2019-08-15T12:11:59Z</time>
      </trkpt>
      <trkpt lat="41.9843660" lon="-5.6118340">
        <ele>734.7</ele>
        <time>2019-08-15T12:12:00Z</time>
      </trkpt>
      <trkpt lat="41.9843870" lon="-5.6118630">
        <ele>734.8</ele>
        <time>2019-08-15T12:12:01Z</time>
      </trkpt>
      <trkpt lat="41.9844070" lon="-5.6118930">
        <ele>735.0</ele>
        <time>2019-08-15T12:12:02Z</time>
      </trkpt>
      <trkpt lat="41.9844280" lon="-5.6119210">
        <ele>735.1</ele>
        <time>2019-08-15T12:12:03Z</time>
      </trkpt>
      <trkpt lat="41.9844490" lon="-5.6119490">
        <ele>735.2</ele>
        <time>2019-08-15T12:12:04Z</time>
      </trkpt>
      <trkpt lat="41.9844700" lon="-5.6119760">
        <ele>735.3</ele>
        <time>2019-08-15T12:12:05Z</time>
      </trkpt>
      <trkpt lat="41.9844900" lon="-5.6120050">
        <ele>735.4</ele>
        <time>2019-08-15T12:12:06Z</time>
      </trkpt>
      <trkpt lat="41.9845100" lon="-5.6120330">
        <ele>735.5</ele>
        <time>2019-08-15T12:12:07Z</time>
      </trkpt>
      <trkpt lat="41.9845290" lon="-5.6120610">
        <ele>735.6</ele>
        <time>2019-08-15T12:12:08Z</time>
      </trkpt>
      <trkpt lat="41.9845470" lon="-5.6120870">
        <ele>735.7</ele>
        <time>2019-08-15T12:12:09Z</time>
      </trkpt>
      <trkpt lat="41.9845660" lon="-5.6121130">
        <ele>735.8</ele>
        <time>2019-08-15T12:12:10Z</time>
      </trkpt>
      <trkpt lat="41.9845860" lon="-5.6121390">
        <ele>735.9</ele>
        <time>2019-08-15T12:12:11Z</time>
      </trkpt>
      <trkpt lat="41.9846050" lon="-5.6121660">
        <ele>736.1</ele>
        <time>2019-08-15T12:12:12Z</time>
      </trkpt>
      <trkpt lat="41.9846240" lon="-5.6121920">
        <ele>736.1</ele>
        <time>2019-08-15T12:12:13Z</time>
      </trkpt>
      <trkpt lat="41.9846440" lon="-5.6122180">
        <ele>736.2</ele>
        <time>2019-08-15T12:12:14Z</time>
      </trkpt>
      <trkpt lat="41.9846640" lon="-5.6122450">
        <ele>736.3</ele>
        <time>2019-08-15T12:12:15Z</time>
      </trkpt>
      <trkpt lat="41.9846840" lon="-5.6122710">
        <ele>736.4</ele>
        <time>2019-08-15T12:12:16Z</time>
      </trkpt>
      <trkpt lat="41.9847050" lon="-5.6122980">
        <ele>736.4</ele>
        <time>2019-08-15T12:12:17Z</time>
      </trkpt>
      <trkpt lat="41.9847250" lon="-5.6123230">
        <ele>736.5</ele>
        <time>2019-08-15T12:12:18Z</time>
      </trkpt>
      <trkpt lat="41.9847470" lon="-5.6123480">
        <ele>736.6</ele>
        <time>2019-08-15T12:12:19Z</time>
      </trkpt>
      <trkpt lat="41.9847670" lon="-5.6123730">
        <ele>736.7</ele>
        <time>2019-08-15T12:12:20Z</time>
      </trkpt>
      <trkpt lat="41.9847870" lon="-5.6124000">
        <ele>736.7</ele>
        <time>2019-08-15T12:12:21Z</time>
      </trkpt>
      <trkpt lat="41.9848050" lon="-5.6124280">
        <ele>736.8</ele>
        <time>2019-08-15T12:12:22Z</time>
      </trkpt>
      <trkpt lat="41.9848240" lon="-5.6124560">
        <ele>736.9</ele>
        <time>2019-08-15T12:12:23Z</time>
      </trkpt>
      <trkpt lat="41.9848440" lon="-5.6124820">
        <ele>736.9</ele>
        <time>2019-08-15T12:12:24Z</time>
      </trkpt>
      <trkpt lat="41.9848620" lon="-5.6125090">
        <ele>737.0</ele>
        <time>2019-08-15T12:12:25Z</time>
      </trkpt>
      <trkpt lat="41.9848810" lon="-5.6125350">
        <ele>737.0</ele>
        <time>2019-08-15T12:12:26Z</time>
      </trkpt>
      <trkpt lat="41.9849200" lon="-5.6125840">
        <ele>737.1</ele>
        <time>2019-08-15T12:12:28Z</time>
      </trkpt>
      <trkpt lat="41.9849600" lon="-5.6126350">
        <ele>737.3</ele>
        <time>2019-08-15T12:12:30Z</time>
      </trkpt>
      <trkpt lat="41.9849790" lon="-5.6126610">
        <ele>737.3</ele>
        <time>2019-08-15T12:12:31Z</time>
      </trkpt>
      <trkpt lat="41.9849990" lon="-5.6126870">
        <ele>737.4</ele>
        <time>2019-08-15T12:12:32Z</time>
      </trkpt>
      <trkpt lat="41.9850180" lon="-5.6127120">
        <ele>737.4</ele>
        <time>2019-08-15T12:12:33Z</time>
      </trkpt>
      <trkpt lat="41.9850530" lon="-5.6127600">
        <ele>737.4</ele>
        <time>2019-08-15T12:12:35Z</time>
      </trkpt>
      <trkpt lat="41.9850890" lon="-5.6128070">
        <ele>737.5</ele>
        <time>2019-08-15T12:12:37Z</time>
      </trkpt>
      <trkpt lat="41.9851280" lon="-5.6128580">
        <ele>737.6</ele>
        <time>2019-08-15T12:12:39Z</time>
      </trkpt>
      <trkpt lat="41.9851480" lon="-5.6128850">
        <ele>737.6</ele>
        <time>2019-08-15T12:12:40Z</time>
      </trkpt>
      <trkpt lat="41.9851680" lon="-5.6129110">
        <ele>737.6</ele>
        <time>2019-08-15T12:12:41Z</time>
      </trkpt>
      <trkpt lat="41.9851870" lon="-5.6129380">
        <ele>737.6</ele>
        <time>2019-08-15T12:12:42Z</time>
      </trkpt>
      <trkpt lat="41.9852070" lon="-5.6129660">
        <ele>737.7</ele>
        <time>2019-08-15T12:12:43Z</time>
      </trkpt>
      <trkpt lat="41.9852270" lon="-5.6129940">
        <ele>737.7</ele>
        <time>2019-08-15T12:12:44Z</time>
      </trkpt>
      <trkpt lat="41.9852480" lon="-5.6130210">
        <ele>737.7</ele>
        <time>2019-08-15T12:12:45Z</time>
      </trkpt>
      <trkpt lat="41.9852680" lon="-5.6130490">
        <ele>737.7</ele>
        <time>2019-08-15T12:12:46Z</time>
      </trkpt>
      <trkpt lat="41.9852880" lon="-5.6130770">
        <ele>737.7</ele>
        <time>2019-08-15T12:12:47Z</time>
      </trkpt>
      <trkpt lat="41.9853060" lon="-5.6131080">
        <ele>737.8</ele>
        <time>2019-08-15T12:12:48Z</time>
      </trkpt>
      <trkpt lat="41.9853190" lon="-5.6131410">
        <ele>737.8</ele>
        <time>2019-08-15T12:12:49Z</time>
      </trkpt>
      <trkpt lat="41.9853270" lon="-5.6131770">
        <ele>737.8</ele>
        <time>2019-08-15T12:12:50Z</time>
      </trkpt>
      <trkpt lat="41.9853280" lon="-5.6132160">
        <ele>737.8</ele>
        <time>2019-08-15T12:12:51Z</time>
      </trkpt>
      <trkpt lat="41.9853200" lon="-5.6132580">
        <ele>737.7</ele>
        <time>2019-08-15T12:12:52Z</time>
      </trkpt>
      <trkpt lat="41.9853060" lon="-5.6132990">
        <ele>737.7</ele>
        <time>2019-08-15T12:12:53Z</time>
      </trkpt>
      <trkpt lat="41.9852900" lon="-5.6133400">
        <ele>737.7</ele>
        <time>2019-08-15T12:12:54Z</time>
      </trkpt>
      <trkpt lat="41.9852720" lon="-5.6133810">
        <ele>737.7</ele>
        <time>2019-08-15T12:12:55Z</time>
      </trkpt>
      <trkpt lat="41.9852540" lon="-5.6134220">
        <ele>737.7</ele>
        <time>2019-08-15T12:12:56Z</time>
      </trkpt>
      <trkpt lat="41.9852360" lon="-5.6134620">
        <ele>737.7</ele>
        <time>2019-08-15T12:12:57Z</time>
      </trkpt>
      <trkpt lat="41.9852150" lon="-5.6135080">
        <ele>737.7</ele>
        <time>2019-08-15T12:12:58Z</time>
      </trkpt>
      <trkpt lat="41.9851950" lon="-5.6135510">
        <ele>737.7</ele>
        <time>2019-08-15T12:12:59Z</time>
      </trkpt>
      <trkpt lat="41.9851770" lon="-5.6135850">
        <ele>737.7</ele>
        <time>2019-08-15T12:13:00Z</time>
      </trkpt>
      <trkpt lat="41.9851610" lon="-5.6136190">
        <ele>737.7</ele>
        <time>2019-08-15T12:13:01Z</time>
      </trkpt>
      <trkpt lat="41.9851440" lon="-5.6136560">
        <ele>737.7</ele>
        <time>2019-08-15T12:13:02Z</time>
      </trkpt>
      <trkpt lat="41.9851270" lon="-5.6136950">
        <ele>737.7</ele>
        <time>2019-08-15T12:13:03Z</time>
      </trkpt>
      <trkpt lat="41.9851090" lon="-5.6137370">
        <ele>737.7</ele>
        <time>2019-08-15T12:13:04Z</time>
      </trkpt>
      <trkpt lat="41.9850900" lon="-5.6137770">
        <ele>737.7</ele>
        <time>2019-08-15T12:13:05Z</time>
      </trkpt>
      <trkpt lat="41.9850730" lon="-5.6138180">
        <ele>737.7</ele>
        <time>2019-08-15T12:13:06Z</time>
      </trkpt>
      <trkpt lat="41.9850560" lon="-5.6138600">
        <ele>737.7</ele>
        <time>2019-08-15T12:13:07Z</time>
      </trkpt>
      <trkpt lat="41.9850400" lon="-5.6138990">
        <ele>737.7</ele>
        <time>2019-08-15T12:13:08Z</time>
      </trkpt>
      <trkpt lat="41.9850260" lon="-5.6139380">
        <ele>737.7</ele>
        <time>2019-08-15T12:13:09Z</time>
      </trkpt>
      <trkpt lat="41.9850100" lon="-5.6139760">
        <ele>737.7</ele>
        <time>2019-08-15T12:13:10Z</time>
      </trkpt>
      <trkpt lat="41.9849940" lon="-5.6140100">
        <ele>737.7</ele>
        <time>2019-08-15T12:13:11Z</time>
      </trkpt>
      <trkpt lat="41.9849760" lon="-5.6140450">
        <ele>737.7</ele>
        <time>2019-08-15T12:13:12Z</time>
      </trkpt>
      <trkpt lat="41.9849570" lon="-5.6140870">
        <ele>737.7</ele>
        <time>2019-08-15T12:13:13Z</time>
      </trkpt>
      <trkpt lat="41.9849370" lon="-5.6141330">
        <ele>737.7</ele>
        <time>2019-08-15T12:13:14Z</time>
      </trkpt>
      <trkpt lat="41.9849160" lon="-5.6141810">
        <ele>737.7</ele>
        <time>2019-08-15T12:13:15Z</time>
      </trkpt>
      <trkpt lat="41.9848950" lon="-5.6142290">
        <ele>737.7</ele>
        <time>2019-08-15T12:13:16Z</time>
      </trkpt>
      <trkpt lat="41.9848740" lon="-5.6142770">
        <ele>737.6</ele>
        <time>2019-08-15T12:13:17Z</time>
      </trkpt>
      <trkpt lat="41.9848550" lon="-5.6143230">
        <ele>737.6</ele>
        <time>2019-08-15T12:13:18Z</time>
      </trkpt>
      <trkpt lat="41.9848340" lon="-5.6143730">
        <ele>737.5</ele>
        <time>2019-08-15T12:13:19Z</time>
      </trkpt>
      <trkpt lat="41.9848120" lon="-5.6144250">
        <ele>737.4</ele>
        <time>2019-08-15T12:13:20Z</time>
      </trkpt>
      <trkpt lat="41.9847890" lon="-5.6144770">
        <ele>737.2</ele>
        <time>2019-08-15T12:13:21Z</time>
      </trkpt>
      <trkpt lat="41.9847680" lon="-5.6145280">
        <ele>737.1</ele>
        <time>2019-08-15T12:13:22Z</time>
      </trkpt>
      <trkpt lat="41.9847470" lon="-5.6145790">
        <ele>737.0</ele>
        <time>2019-08-15T12:13:23Z</time>
      </trkpt>
      <trkpt lat="41.9847270" lon="-5.6146280">
        <ele>736.8</ele>
        <time>2019-08-15T12:13:24Z</time>
      </trkpt>
      <trkpt lat="41.9847060" lon="-5.6146770">
        <ele>736.7</ele>
        <time>2019-08-15T12:13:25Z</time>
      </trkpt>
      <trkpt lat="41.9846850" lon="-5.6147250">
        <ele>736.5</ele>
        <time>2019-08-15T12:13:26Z</time>
      </trkpt>
      <trkpt lat="41.9846620" lon="-5.6147730">
        <ele>736.3</ele>
        <time>2019-08-15T12:13:27Z</time>
      </trkpt>
      <trkpt lat="41.9846410" lon="-5.6148240">
        <ele>736.1</ele>
        <time>2019-08-15T12:13:28Z</time>
      </trkpt>
      <trkpt lat="41.9846190" lon="-5.6148750">
        <ele>736.0</ele>
        <time>2019-08-15T12:13:29Z</time>
      </trkpt>
      <trkpt lat="41.9845970" lon="-5.6149270">
        <ele>735.8</ele>
        <time>2019-08-15T12:13:30Z</time>
      </trkpt>
      <trkpt lat="41.9845720" lon="-5.6149790">
        <ele>735.6</ele>
        <time>2019-08-15T12:13:31Z</time>
      </trkpt>
      <trkpt lat="41.9845470" lon="-5.6150330">
        <ele>735.4</ele>
        <time>2019-08-15T12:13:32Z</time>
      </trkpt>
      <trkpt lat="41.9845240" lon="-5.6150880">
        <ele>735.2</ele>
        <time>2019-08-15T12:13:33Z</time>
      </trkpt>
      <trkpt lat="41.9844990" lon="-5.6151490">
        <ele>734.9</ele>
        <time>2019-08-15T12:13:34Z</time>
      </trkpt>
      <trkpt lat="41.9844740" lon="-5.6152120">
        <ele>734.7</ele>
        <time>2019-08-15T12:13:35Z</time>
      </trkpt>
      <trkpt lat="41.9844470" lon="-5.6152780">
        <ele>734.4</ele>
        <time>2019-08-15T12:13:36Z</time>
      </trkpt>
      <trkpt lat="41.9844180" lon="-5.6153460">
        <ele>734.1</ele>
        <time>2019-08-15T12:13:37Z</time>
      </trkpt>
      <trkpt lat="41.9843870" lon="-5.6154180">
        <ele>734.0</ele>
        <time>2019-08-15T12:13:38Z</time>
      </trkpt>
      <trkpt lat="41.9843550" lon="-5.6154930">
        <ele>733.9</ele>
        <time>2019-08-15T12:13:39Z</time>
      </trkpt>
      <trkpt lat="41.9843220" lon="-5.6155680">
        <ele>733.8</ele>
        <time>2019-08-15T12:13:40Z</time>
      </trkpt>
      <trkpt lat="41.9842880" lon="-5.6156430">
        <ele>733.7</ele>
        <time>2019-08-15T12:13:41Z</time>
      </trkpt>
      <trkpt lat="41.9842550" lon="-5.6157200">
        <ele>733.7</ele>
        <time>2019-08-15T12:13:42Z</time>
      </trkpt>
      <trkpt lat="41.9842220" lon="-5.6157980">
        <ele>733.7</ele>
        <time>2019-08-15T12:13:43Z</time>
      </trkpt>
      <trkpt lat="41.9841880" lon="-5.6158770">
        <ele>733.6</ele>
        <time>2019-08-15T12:13:44Z</time>
      </trkpt>
      <trkpt lat="41.9841560" lon="-5.6159550">
        <ele>733.5</ele>
        <time>2019-08-15T12:13:45Z</time>
      </trkpt>
      <trkpt lat="41.9841250" lon="-5.6160320">
        <ele>733.4</ele>
        <time>2019-08-15T12:13:46Z</time>
      </trkpt>
      <trkpt lat="41.9840940" lon="-5.6161090">
        <ele>733.2</ele>
        <time>2019-08-15T12:13:47Z</time>
      </trkpt>
      <trkpt lat="41.9840610" lon="-5.6161840">
        <ele>733.0</ele>
        <time>2019-08-15T12:13:48Z</time>
      </trkpt>
      <trkpt lat="41.9840290" lon="-5.6162580">
        <ele>732.9</ele>
        <time>2019-08-15T12:13:49Z</time>
      </trkpt>
      <trkpt lat="41.9839970" lon="-5.6163320">
        <ele>732.8</ele>
        <time>2019-08-15T12:13:50Z</time>
      </trkpt>
      <trkpt lat="41.9839670" lon="-5.6164050">
        <ele>732.7</ele>
        <time>2019-08-15T12:13:51Z</time>
      </trkpt>
      <trkpt lat="41.9839350" lon="-5.6164770">
        <ele>732.7</ele>
        <time>2019-08-15T12:13:52Z</time>
      </trkpt>
      <trkpt lat="41.9839040" lon="-5.6165470">
        <ele>732.7</ele>
        <time>2019-08-15T12:13:53Z</time>
      </trkpt>
      <trkpt lat="41.9838740" lon="-5.6166170">
        <ele>732.7</ele>
        <time>2019-08-15T12:13:54Z</time>
      </trkpt>
      <trkpt lat="41.9838460" lon="-5.6166860">
        <ele>732.6</ele>
        <time>2019-08-15T12:13:55Z</time>
      </trkpt>
      <trkpt lat="41.9838190" lon="-5.6167530">
        <ele>732.6</ele>
        <time>2019-08-15T12:13:56Z</time>
      </trkpt>
      <trkpt lat="41.9837920" lon="-5.6168200">
        <ele>732.4</ele>
        <time>2019-08-15T12:13:57Z</time>
      </trkpt>
      <trkpt lat="41.9837650" lon="-5.6168850">
        <ele>732.3</ele>
        <time>2019-08-15T12:13:58Z</time>
      </trkpt>
      <trkpt lat="41.9837370" lon="-5.6169490">
        <ele>732.2</ele>
        <time>2019-08-15T12:13:59Z</time>
      </trkpt>
      <trkpt lat="41.9837110" lon="-5.6170120">
        <ele>732.1</ele>
        <time>2019-08-15T12:14:00Z</time>
      </trkpt>
      <trkpt lat="41.9836860" lon="-5.6170740">
        <ele>731.9</ele>
        <time>2019-08-15T12:14:01Z</time>
      </trkpt>
      <trkpt lat="41.9836600" lon="-5.6171350">
        <ele>731.8</ele>
        <time>2019-08-15T12:14:02Z</time>
      </trkpt>
      <trkpt lat="41.9836350" lon="-5.6171980">
        <ele>731.7</ele>
        <time>2019-08-15T12:14:03Z</time>
      </trkpt>
      <trkpt lat="41.9836130" lon="-5.6172600">
        <ele>731.6</ele>
        <time>2019-08-15T12:14:04Z</time>
      </trkpt>
      <trkpt lat="41.9835920" lon="-5.6173210">
        <ele>731.6</ele>
        <time>2019-08-15T12:14:05Z</time>
      </trkpt>
      <trkpt lat="41.9835750" lon="-5.6173840">
        <ele>731.4</ele>
        <time>2019-08-15T12:14:06Z</time>
      </trkpt>
      <trkpt lat="41.9835630" lon="-5.6174470">
        <ele>731.3</ele>
        <time>2019-08-15T12:14:07Z</time>
      </trkpt>
      <trkpt lat="41.9835570" lon="-5.6175130">
        <ele>731.2</ele>
        <time>2019-08-15T12:14:08Z</time>
      </trkpt>
      <trkpt lat="41.9835580" lon="-5.6175800">
        <ele>731.1</ele>
        <time>2019-08-15T12:14:09Z</time>
      </trkpt>
      <trkpt lat="41.9835660" lon="-5.6176440">
        <ele>731.0</ele>
        <time>2019-08-15T12:14:10Z</time>
      </trkpt>
      <trkpt lat="41.9835820" lon="-5.6177070">
        <ele>730.9</ele>
        <time>2019-08-15T12:14:11Z</time>
      </trkpt>
      <trkpt lat="41.9836020" lon="-5.6177690">
        <ele>730.7</ele>
        <time>2019-08-15T12:14:12Z</time>
      </trkpt>
      <trkpt lat="41.9836240" lon="-5.6178290">
        <ele>730.6</ele>
        <time>2019-08-15T12:14:13Z</time>
      </trkpt>
      <trkpt lat="41.9836500" lon="-5.6178870">
        <ele>730.5</ele>
        <time>2019-08-15T12:14:14Z</time>
      </trkpt>
      <trkpt lat="41.9836780" lon="-5.6179460">
        <ele>730.3</ele>
        <time>2019-08-15T12:14:15Z</time>
      </trkpt>
      <trkpt lat="41.9837080" lon="-5.6180040">
        <ele>730.2</ele>
        <time>2019-08-15T12:14:16Z</time>
      </trkpt>
      <trkpt lat="41.9837380" lon="-5.6180610">
        <ele>730.1</ele>
        <time>2019-08-15T12:14:17Z</time>
      </trkpt>
      <trkpt lat="41.9837690" lon="-5.6181190">
        <ele>729.9</ele>
        <time>2019-08-15T12:14:18Z</time>
      </trkpt>
      <trkpt lat="41.9838020" lon="-5.6181770">
        <ele>729.8</ele>
        <time>2019-08-15T12:14:19Z</time>
      </trkpt>
      <trkpt lat="41.9838350" lon="-5.6182350">
        <ele>729.6</ele>
        <time>2019-08-15T12:14:20Z</time>
      </trkpt>
      <trkpt lat="41.9838680" lon="-5.6182960">
        <ele>729.5</ele>
        <time>2019-08-15T12:14:21Z</time>
      </trkpt>
      <trkpt lat="41.9839000" lon="-5.6183590">
        <ele>729.3</ele>
        <time>2019-08-15T12:14:22Z</time>
      </trkpt>
      <trkpt lat="41.9839300" lon="-5.6184260">
        <ele>729.0</ele>
        <time>2019-08-15T12:14:23Z</time>
      </trkpt>
      <trkpt lat="41.9839580" lon="-5.6184980">
        <ele>728.7</ele>
        <time>2019-08-15T12:14:24Z</time>
      </trkpt>
      <trkpt lat="41.9839790" lon="-5.6185770">
        <ele>728.3</ele>
        <time>2019-08-15T12:14:25Z</time>
      </trkpt>
      <trkpt lat="41.9839930" lon="-5.6186640">
        <ele>728.0</ele>
        <time>2019-08-15T12:14:26Z</time>
      </trkpt>
      <trkpt lat="41.9840020" lon="-5.6187570">
        <ele>727.5</ele>
        <time>2019-08-15T12:14:27Z</time>
      </trkpt>
      <trkpt lat="41.9840070" lon="-5.6188540">
        <ele>727.0</ele>
        <time>2019-08-15T12:14:28Z</time>
      </trkpt>
      <trkpt lat="41.9840070" lon="-5.6189560">
        <ele>726.5</ele>
        <time>2019-08-15T12:14:29Z</time>
      </trkpt>
      <trkpt lat="41.9840030" lon="-5.6190610">
        <ele>725.9</ele>
        <time>2019-08-15T12:14:30Z</time>
      </trkpt>
      <trkpt lat="41.9839950" lon="-5.6191720">
        <ele>725.3</ele>
        <time>2019-08-15T12:14:31Z</time>
      </trkpt>
      <trkpt lat="41.9839850" lon="-5.6192870">
        <ele>724.8</ele>
        <time>2019-08-15T12:14:32Z</time>
      </trkpt>
      <trkpt lat="41.9839710" lon="-5.6194040">
        <ele>724.2</ele>
        <time>2019-08-15T12:14:33Z</time>
      </trkpt>
      <trkpt lat="41.9839560" lon="-5.6195220">
        <ele>723.7</ele>
        <time>2019-08-15T12:14:34Z</time>
      </trkpt>
      <trkpt lat="41.9839410" lon="-5.6196410">
        <ele>723.0</ele>
        <time>2019-08-15T12:14:35Z</time>
      </trkpt>
      <trkpt lat="41.9839260" lon="-5.6197630">
        <ele>722.3</ele>
        <time>2019-08-15T12:14:36Z</time>
      </trkpt>
      <trkpt lat="41.9839080" lon="-5.6198860">
        <ele>721.6</ele>
        <time>2019-08-15T12:14:37Z</time>
      </trkpt>
      <trkpt lat="41.9838870" lon="-5.6200100">
        <ele>720.8</ele>
        <time>2019-08-15T12:14:38Z</time>
      </trkpt>
      <trkpt lat="41.9838630" lon="-5.6201350">
        <ele>719.9</ele>
        <time>2019-08-15T12:14:39Z</time>
      </trkpt>
      <trkpt lat="41.9838380" lon="-5.6202620">
        <ele>719.2</ele>
        <time>2019-08-15T12:14:40Z</time>
      </trkpt>
      <trkpt lat="41.9838090" lon="-5.6203900">
        <ele>718.3</ele>
        <time>2019-08-15T12:14:41Z</time>
      </trkpt>
      <trkpt lat="41.9837730" lon="-5.6205120">
        <ele>717.3</ele>
        <time>2019-08-15T12:14:42Z</time>
      </trkpt>
      <trkpt lat="41.9837330" lon="-5.6206270">
        <ele>716.3</ele>
        <time>2019-08-15T12:14:43Z</time>
      </trkpt>
      <trkpt lat="41.9836880" lon="-5.6207290">
        <ele>715.5</ele>
        <time>2019-08-15T12:14:44Z</time>
      </trkpt>
      <trkpt lat="41.9836400" lon="-5.6208210">
        <ele>714.7</ele>
        <time>2019-08-15T12:14:45Z</time>
      </trkpt>
      <trkpt lat="41.9835880" lon="-5.6209070">
        <ele>713.9</ele>
        <time>2019-08-15T12:14:46Z</time>
      </trkpt>
      <trkpt lat="41.9835340" lon="-5.6209960">
        <ele>712.8</ele>
        <time>2019-08-15T12:14:47Z</time>
      </trkpt>
      <trkpt lat="41.9834820" lon="-5.6210900">
        <ele>712.8</ele>
        <time>2019-08-15T12:14:48Z</time>
      </trkpt>
      <trkpt lat="41.9834390" lon="-5.6211890">
        <ele>712.9</ele>
        <time>2019-08-15T12:14:49Z</time>
      </trkpt>
      <trkpt lat="41.9834100" lon="-5.6212940">
        <ele>713.0</ele>
        <time>2019-08-15T12:14:50Z</time>
      </trkpt>
      <trkpt lat="41.9834010" lon="-5.6214100">
        <ele>713.1</ele>
        <time>2019-08-15T12:14:51Z</time>
      </trkpt>
      <trkpt lat="41.9834160" lon="-5.6215280">
        <ele>713.2</ele>
        <time>2019-08-15T12:14:52Z</time>
      </trkpt>
      <trkpt lat="41.9834480" lon="-5.6216420">
        <ele>713.3</ele>
        <time>2019-08-15T12:14:53Z</time>
      </trkpt>
      <trkpt lat="41.9834880" lon="-5.6217500">
        <ele>713.3</ele>
        <time>2019-08-15T12:14:54Z</time>
      </trkpt>
      <trkpt lat="41.9835270" lon="-5.6218570">
        <ele>713.2</ele>
        <time>2019-08-15T12:14:55Z</time>
      </trkpt>
      <trkpt lat="41.9835620" lon="-5.6219610">
        <ele>713.2</ele>
        <time>2019-08-15T12:14:56Z</time>
      </trkpt>
      <trkpt lat="41.9835970" lon="-5.6220620">
        <ele>713.0</ele>
        <time>2019-08-15T12:14:57Z</time>
      </trkpt>
      <trkpt lat="41.9836310" lon="-5.6221600">
        <ele>712.7</ele>
        <time>2019-08-15T12:14:58Z</time>
      </trkpt>
      <trkpt lat="41.9836630" lon="-5.6222550">
        <ele>712.6</ele>
        <time>2019-08-15T12:14:59Z</time>
      </trkpt>
      <trkpt lat="41.9836940" lon="-5.6223460">
        <ele>712.5</ele>
        <time>2019-08-15T12:15:00Z</time>
      </trkpt>
      <trkpt lat="41.9837240" lon="-5.6224360">
        <ele>712.4</ele>
        <time>2019-08-15T12:15:01Z</time>
      </trkpt>
      <trkpt lat="41.9837510" lon="-5.6225220">
        <ele>712.4</ele>
        <time>2019-08-15T12:15:02Z</time>
      </trkpt>
      <trkpt lat="41.9837790" lon="-5.6226060">
        <ele>712.4</ele>
        <time>2019-08-15T12:15:03Z</time>
      </trkpt>
      <trkpt lat="41.9838070" lon="-5.6226880">
        <ele>712.5</ele>
        <time>2019-08-15T12:15:04Z</time>
      </trkpt>
      <trkpt lat="41.9838330" lon="-5.6227670">
        <ele>712.6</ele>
        <time>2019-08-15T12:15:05Z</time>
      </trkpt>
      <trkpt lat="41.9838570" lon="-5.6228440">
        <ele>712.6</ele>
        <time>2019-08-15T12:15:06Z</time>
      </trkpt>
      <trkpt lat="41.9838810" lon="-5.6229190">
        <ele>712.7</ele>
        <time>2019-08-15T12:15:07Z</time>
      </trkpt>
      <trkpt lat="41.9839050" lon="-5.6229920">
        <ele>712.7</ele>
        <time>2019-08-15T12:15:08Z</time>
      </trkpt>
      <trkpt lat="41.9839290" lon="-5.6230620">
        <ele>712.8</ele>
        <time>2019-08-15T12:15:09Z</time>
      </trkpt>
      <trkpt lat="41.9839550" lon="-5.6231300">
        <ele>712.9</ele>
        <time>2019-08-15T12:15:10Z</time>
      </trkpt>
      <trkpt lat="41.9839790" lon="-5.6231980">
        <ele>712.9</ele>
        <time>2019-08-15T12:15:11Z</time>
      </trkpt>
      <trkpt lat="41.9840010" lon="-5.6232650">
        <ele>712.9</ele>
        <time>2019-08-15T12:15:12Z</time>
      </trkpt>
      <trkpt lat="41.9840220" lon="-5.6233340">
        <ele>712.9</ele>
        <time>2019-08-15T12:15:13Z</time>
      </trkpt>
      <trkpt lat="41.9840430" lon="-5.6234010">
        <ele>712.7</ele>
        <time>2019-08-15T12:15:14Z</time>
      </trkpt>
      <trkpt lat="41.9840660" lon="-5.6234650">
        <ele>712.5</ele>
        <time>2019-08-15T12:15:15Z</time>
      </trkpt>
      <trkpt lat="41.9840890" lon="-5.6235290">
        <ele>712.2</ele>
        <time>2019-08-15T12:15:16Z</time>
      </trkpt>
      <trkpt lat="41.9841120" lon="-5.6235940">
        <ele>711.8</ele>
        <time>2019-08-15T12:15:17Z</time>
      </trkpt>
      <trkpt lat="41.9841330" lon="-5.6236580">
        <ele>711.4</ele>
        <time>2019-08-15T12:15:18Z</time>
      </trkpt>
      <trkpt lat="41.9841530" lon="-5.6237210">
        <ele>711.1</ele>
        <time>2019-08-15T12:15:19Z</time>
      </trkpt>
      <trkpt lat="41.9841720" lon="-5.6237840">
        <ele>710.9</ele>
        <time>2019-08-15T12:15:20Z</time>
      </trkpt>
      <trkpt lat="41.9841910" lon="-5.6238480">
        <ele>710.8</ele>
        <time>2019-08-15T12:15:21Z</time>
      </trkpt>
      <trkpt lat="41.9842100" lon="-5.6239110">
        <ele>710.7</ele>
        <time>2019-08-15T12:15:22Z</time>
      </trkpt>
      <trkpt lat="41.9842290" lon="-5.6239730">
        <ele>710.7</ele>
        <time>2019-08-15T12:15:23Z</time>
      </trkpt>
      <trkpt lat="41.9842490" lon="-5.6240340">
        <ele>710.7</ele>
        <time>2019-08-15T12:15:24Z</time>
      </trkpt>
      <trkpt lat="41.9842700" lon="-5.6240940">
        <ele>710.7</ele>
        <time>2019-08-15T12:15:25Z</time>
      </trkpt>
      <trkpt lat="41.9842910" lon="-5.6241540">
        <ele>710.7</ele>
        <time>2019-08-15T12:15:26Z</time>
      </trkpt>
      <trkpt lat="41.9843080" lon="-5.6242160">
        <ele>710.8</ele>
        <time>2019-08-15T12:15:27Z</time>
      </trkpt>
      <trkpt lat="41.9843260" lon="-5.6242780">
        <ele>710.8</ele>
        <time>2019-08-15T12:15:28Z</time>
      </trkpt>
      <trkpt lat="41.9843450" lon="-5.6243370">
        <ele>710.8</ele>
        <time>2019-08-15T12:15:29Z</time>
      </trkpt>
      <trkpt lat="41.9843660" lon="-5.6243940">
        <ele>710.9</ele>
        <time>2019-08-15T12:15:30Z</time>
      </trkpt>
      <trkpt lat="41.9843860" lon="-5.6244520">
        <ele>710.9</ele>
        <time>2019-08-15T12:15:31Z</time>
      </trkpt>
      <trkpt lat="41.9844050" lon="-5.6245090">
        <ele>710.8</ele>
        <time>2019-08-15T12:15:32Z</time>
      </trkpt>
      <trkpt lat="41.9844190" lon="-5.6245630">
        <ele>710.8</ele>
        <time>2019-08-15T12:15:33Z</time>
      </trkpt>
      <trkpt lat="41.9844280" lon="-5.6246090">
        <ele>710.7</ele>
        <time>2019-08-15T12:15:34Z</time>
      </trkpt>
      <trkpt lat="41.9844320" lon="-5.6246450">
        <ele>710.7</ele>
        <time>2019-08-15T12:15:35Z</time>
      </trkpt>
      <trkpt lat="41.9844320" lon="-5.6246730">
        <ele>710.6</ele>
        <time>2019-08-15T12:15:36Z</time>
      </trkpt>
      <trkpt lat="41.9844220" lon="-5.6247020">
        <ele>710.5</ele>
        <time>2019-08-15T12:15:38Z</time>
      </trkpt>
      <trkpt lat="41.9844070" lon="-5.6247010">
        <ele>710.5</ele>
        <time>2019-08-15T12:15:46Z</time>
      </trkpt>
      <trkpt lat="41.9844460" lon="-5.6247330">
        <ele>710.3</ele>
        <time>2019-08-15T12:21:04Z</time>
      </trkpt>
      <trkpt lat="41.9844680" lon="-5.6247640">
        <ele>710.2</ele>
        <time>2019-08-15T12:21:08Z</time>
      </trkpt>
      <trkpt lat="41.9844760" lon="-5.6247920">
        <ele>710.2</ele>
        <time>2019-08-15T12:21:12Z</time>
      </trkpt>
      <trkpt lat="41.9844930" lon="-5.6248360">
        <ele>710.0</ele>
        <time>2019-08-15T12:21:17Z</time>
      </trkpt>
      <trkpt lat="41.9844950" lon="-5.6248610">
        <ele>709.9</ele>
        <time>2019-08-15T12:21:23Z</time>
      </trkpt>
      <trkpt lat="41.9844960" lon="-5.6249110">
        <ele>709.8</ele>
        <time>2019-08-15T12:21:26Z</time>
      </trkpt>
      <trkpt lat="41.9845030" lon="-5.6249680">
        <ele>709.6</ele>
        <time>2019-08-15T12:21:28Z</time>
      </trkpt>
      <trkpt lat="41.9845290" lon="-5.6250350">
        <ele>709.3</ele>
        <time>2019-08-15T12:21:30Z</time>
      </trkpt>
      <trkpt lat="41.9845430" lon="-5.6250720">
        <ele>709.2</ele>
        <time>2019-08-15T12:21:31Z</time>
      </trkpt>
      <trkpt lat="41.9845590" lon="-5.6251120">
        <ele>709.1</ele>
        <time>2019-08-15T12:21:32Z</time>
      </trkpt>
      <trkpt lat="41.9845750" lon="-5.6251560">
        <ele>708.9</ele>
        <time>2019-08-15T12:21:33Z</time>
      </trkpt>
      <trkpt lat="41.9845920" lon="-5.6252060">
        <ele>708.8</ele>
        <time>2019-08-15T12:21:34Z</time>
      </trkpt>
      <trkpt lat="41.9846100" lon="-5.6252570">
        <ele>708.6</ele>
        <time>2019-08-15T12:21:35Z</time>
      </trkpt>
      <trkpt lat="41.9846300" lon="-5.6253130">
        <ele>708.5</ele>
        <time>2019-08-15T12:21:36Z</time>
      </trkpt>
      <trkpt lat="41.9846530" lon="-5.6253710">
        <ele>708.4</ele>
        <time>2019-08-15T12:21:37Z</time>
      </trkpt>
      <trkpt lat="41.9846760" lon="-5.6254330">
        <ele>708.3</ele>
        <time>2019-08-15T12:21:38Z</time>
      </trkpt>
      <trkpt lat="41.9846980" lon="-5.6254990">
        <ele>708.2</ele>
        <time>2019-08-15T12:21:39Z</time>
      </trkpt>
      <trkpt lat="41.9847210" lon="-5.6255670">
        <ele>708.0</ele>
        <time>2019-08-15T12:21:40Z</time>
      </trkpt>
      <trkpt lat="41.9847450" lon="-5.6256320">
        <ele>708.0</ele>
        <time>2019-08-15T12:21:41Z</time>
      </trkpt>
      <trkpt lat="41.9847680" lon="-5.6256950">
        <ele>707.9</ele>
        <time>2019-08-15T12:21:42Z</time>
      </trkpt>
      <trkpt lat="41.9847890" lon="-5.6257560">
        <ele>707.8</ele>
        <time>2019-08-15T12:21:43Z</time>
      </trkpt>
      <trkpt lat="41.9848060" lon="-5.6258170">
        <ele>708.0</ele>
        <time>2019-08-15T12:21:44Z</time>
      </trkpt>
      <trkpt lat="41.9848140" lon="-5.6258800">
        <ele>708.2</ele>
        <time>2019-08-15T12:21:45Z</time>
      </trkpt>
      <trkpt lat="41.9848210" lon="-5.6259420">
        <ele>708.4</ele>
        <time>2019-08-15T12:21:46Z</time>
      </trkpt>
      <trkpt lat="41.9848280" lon="-5.6260040">
        <ele>708.6</ele>
        <time>2019-08-15T12:21:47Z</time>
      </trkpt>
      <trkpt lat="41.9848380" lon="-5.6260660">
        <ele>708.8</ele>
        <time>2019-08-15T12:21:48Z</time>
      </trkpt>
      <trkpt lat="41.9848480" lon="-5.6261280">
        <ele>709.1</ele>
        <time>2019-08-15T12:21:49Z</time>
      </trkpt>
      <trkpt lat="41.9848580" lon="-5.6261920">
        <ele>709.3</ele>
        <time>2019-08-15T12:21:50Z</time>
      </trkpt>
      <trkpt lat="41.9848660" lon="-5.6262570">
        <ele>709.5</ele>
        <time>2019-08-15T12:21:51Z</time>
      </trkpt>
      <trkpt lat="41.9848770" lon="-5.6263210">
        <ele>709.7</ele>
        <time>2019-08-15T12:21:52Z</time>
      </trkpt>
      <trkpt lat="41.9848900" lon="-5.6263840">
        <ele>709.7</ele>
        <time>2019-08-15T12:21:53Z</time>
      </trkpt>
      <trkpt lat="41.9849070" lon="-5.6264460">
        <ele>709.7</ele>
        <time>2019-08-15T12:21:54Z</time>
      </trkpt>
      <trkpt lat="41.9849270" lon="-5.6265080">
        <ele>709.7</ele>
        <time>2019-08-15T12:21:55Z</time>
      </trkpt>
      <trkpt lat="41.9849480" lon="-5.6265720">
        <ele>709.6</ele>
        <time>2019-08-15T12:21:56Z</time>
      </trkpt>
      <trkpt lat="41.9849690" lon="-5.6266360">
        <ele>709.6</ele>
        <time>2019-08-15T12:21:57Z</time>
      </trkpt>
      <trkpt lat="41.9849910" lon="-5.6267000">
        <ele>709.5</ele>
        <time>2019-08-15T12:21:58Z</time>
      </trkpt>
      <trkpt lat="41.9850130" lon="-5.6267630">
        <ele>709.5</ele>
        <time>2019-08-15T12:21:59Z</time>
      </trkpt>
      <trkpt lat="41.9850370" lon="-5.6268250">
        <ele>709.4</ele>
        <time>2019-08-15T12:22:00Z</time>
      </trkpt>
      <trkpt lat="41.9850610" lon="-5.6268870">
        <ele>709.3</ele>
        <time>2019-08-15T12:22:01Z</time>
      </trkpt>
      <trkpt lat="41.9850850" lon="-5.6269490">
        <ele>709.1</ele>
        <time>2019-08-15T12:22:02Z</time>
      </trkpt>
      <trkpt lat="41.9851080" lon="-5.6270130">
        <ele>709.0</ele>
        <time>2019-08-15T12:22:03Z</time>
      </trkpt>
      <trkpt lat="41.9851300" lon="-5.6270800">
        <ele>708.7</ele>
        <time>2019-08-15T12:22:04Z</time>
      </trkpt>
      <trkpt lat="41.9851480" lon="-5.6271470">
        <ele>708.6</ele>
        <time>2019-08-15T12:22:05Z</time>
      </trkpt>
      <trkpt lat="41.9851620" lon="-5.6272130">
        <ele>708.6</ele>
        <time>2019-08-15T12:22:06Z</time>
      </trkpt>
      <trkpt lat="41.9851730" lon="-5.6272790">
        <ele>708.6</ele>
        <time>2019-08-15T12:22:07Z</time>
      </trkpt>
      <trkpt lat="41.9851770" lon="-5.6273430">
        <ele>708.6</ele>
        <time>2019-08-15T12:22:08Z</time>
      </trkpt>
      <trkpt lat="41.9851750" lon="-5.6274050">
        <ele>708.6</ele>
        <time>2019-08-15T12:22:09Z</time>
      </trkpt>
      <trkpt lat="41.9851700" lon="-5.6274680">
        <ele>708.6</ele>
        <time>2019-08-15T12:22:10Z</time>
      </trkpt>
      <trkpt lat="41.9851650" lon="-5.6275290">
        <ele>708.6</ele>
        <time>2019-08-15T12:22:11Z</time>
      </trkpt>
      <trkpt lat="41.9851630" lon="-5.6275900">
        <ele>708.6</ele>
        <time>2019-08-15T12:22:12Z</time>
      </trkpt>
      <trkpt lat="41.9851620" lon="-5.6276510">
        <ele>708.6</ele>
        <time>2019-08-15T12:22:13Z</time>
      </trkpt>
      <trkpt lat="41.9851600" lon="-5.6277140">
        <ele>708.6</ele>
        <time>2019-08-15T12:22:14Z</time>
      </trkpt>
      <trkpt lat="41.9851590" lon="-5.6277760">
        <ele>708.6</ele>
        <time>2019-08-15T12:22:15Z</time>
      </trkpt>
      <trkpt lat="41.9851560" lon="-5.6278380">
        <ele>708.6</ele>
        <time>2019-08-15T12:22:16Z</time>
      </trkpt>
      <trkpt lat="41.9851540" lon="-5.6279010">
        <ele>708.6</ele>
        <time>2019-08-15T12:22:17Z</time>
      </trkpt>
      <trkpt lat="41.9851530" lon="-5.6279620">
        <ele>708.6</ele>
        <time>2019-08-15T12:22:18Z</time>
      </trkpt>
      <trkpt lat="41.9851530" lon="-5.6280240">
        <ele>708.7</ele>
        <time>2019-08-15T12:22:19Z</time>
      </trkpt>
      <trkpt lat="41.9851540" lon="-5.6280920">
        <ele>708.7</ele>
        <time>2019-08-15T12:22:20Z</time>
      </trkpt>
      <trkpt lat="41.9851510" lon="-5.6281660">
        <ele>708.7</ele>
        <time>2019-08-15T12:22:21Z</time>
      </trkpt>
      <trkpt lat="41.9851410" lon="-5.6282510">
        <ele>708.8</ele>
        <time>2019-08-15T12:22:22Z</time>
      </trkpt>
      <trkpt lat="41.9851190" lon="-5.6283320">
        <ele>708.8</ele>
        <time>2019-08-15T12:22:23Z</time>
      </trkpt>
      <trkpt lat="41.9850910" lon="-5.6284040">
        <ele>708.9</ele>
        <time>2019-08-15T12:22:24Z</time>
      </trkpt>
      <trkpt lat="41.9850650" lon="-5.6284740">
        <ele>708.9</ele>
        <time>2019-08-15T12:22:25Z</time>
      </trkpt>
      <trkpt lat="41.9850390" lon="-5.6285390">
        <ele>709.0</ele>
        <time>2019-08-15T12:22:26Z</time>
      </trkpt>
      <trkpt lat="41.9850230" lon="-5.6286060">
        <ele>709.0</ele>
        <time>2019-08-15T12:22:27Z</time>
      </trkpt>
      <trkpt lat="41.9850240" lon="-5.6286660">
        <ele>709.1</ele>
        <time>2019-08-15T12:22:28Z</time>
      </trkpt>
      <trkpt lat="41.9850260" lon="-5.6287260">
        <ele>709.1</ele>
        <time>2019-08-15T12:22:29Z</time>
      </trkpt>
      <trkpt lat="41.9850220" lon="-5.6287890">
        <ele>709.2</ele>
        <time>2019-08-15T12:22:30Z</time>
      </trkpt>
      <trkpt lat="41.9850060" lon="-5.6288520">
        <ele>709.3</ele>
        <time>2019-08-15T12:22:31Z</time>
      </trkpt>
      <trkpt lat="41.9849880" lon="-5.6289140">
        <ele>709.4</ele>
        <time>2019-08-15T12:22:32Z</time>
      </trkpt>
      <trkpt lat="41.9849680" lon="-5.6289780">
        <ele>709.5</ele>
        <time>2019-08-15T12:22:33Z</time>
      </trkpt>
      <trkpt lat="41.9849570" lon="-5.6290470">
        <ele>709.7</ele>
        <time>2019-08-15T12:22:34Z</time>
      </trkpt>
      <trkpt lat="41.9849520" lon="-5.6291090">
        <ele>709.8</ele>
        <time>2019-08-15T12:22:35Z</time>
      </trkpt>
      <trkpt lat="41.9849380" lon="-5.6291670">
        <ele>709.9</ele>
        <time>2019-08-15T12:22:36Z</time>
      </trkpt>
      <trkpt lat="41.9849280" lon="-5.6292210">
        <ele>710.1</ele>
        <time>2019-08-15T12:22:37Z</time>
      </trkpt>
      <trkpt lat="41.9849250" lon="-5.6292760">
        <ele>710.2</ele>
        <time>2019-08-15T12:22:38Z</time>
      </trkpt>
      <trkpt lat="41.9849310" lon="-5.6293520">
        <ele>710.1</ele>
        <time>2019-08-15T12:22:39Z</time>
      </trkpt>
      <trkpt lat="41.9849350" lon="-5.6294210">
        <ele>710.0</ele>
        <time>2019-08-15T12:22:40Z</time>
      </trkpt>
      <trkpt lat="41.9849410" lon="-5.6294830">
        <ele>709.9</ele>
        <time>2019-08-15T12:22:41Z</time>
      </trkpt>
      <trkpt lat="41.9849480" lon="-5.6295390">
        <ele>709.8</ele>
        <time>2019-08-15T12:22:42Z</time>
      </trkpt>
      <trkpt lat="41.9849600" lon="-5.6295900">
        <ele>709.7</ele>
        <time>2019-08-15T12:22:43Z</time>
      </trkpt>
      <trkpt lat="41.9849730" lon="-5.6296370">
        <ele>709.7</ele>
        <time>2019-08-15T12:22:44Z</time>
      </trkpt>
      <trkpt lat="41.9849840" lon="-5.6296860">
        <ele>709.6</ele>
        <time>2019-08-15T12:22:45Z</time>
      </trkpt>
      <trkpt lat="41.9849960" lon="-5.6297330">
        <ele>709.5</ele>
        <time>2019-08-15T12:22:46Z</time>
      </trkpt>
      <trkpt lat="41.9850110" lon="-5.6297800">
        <ele>709.4</ele>
        <time>2019-08-15T12:22:47Z</time>
      </trkpt>
      <trkpt lat="41.9850250" lon="-5.6298300">
        <ele>709.4</ele>
        <time>2019-08-15T12:22:48Z</time>
      </trkpt>
      <trkpt lat="41.9850400" lon="-5.6298810">
        <ele>709.3</ele>
        <time>2019-08-15T12:22:49Z</time>
      </trkpt>
      <trkpt lat="41.9850530" lon="-5.6299350">
        <ele>709.2</ele>
        <time>2019-08-15T12:22:50Z</time>
      </trkpt>
      <trkpt lat="41.9850680" lon="-5.6299850">
        <ele>709.2</ele>
        <time>2019-08-15T12:22:51Z</time>
      </trkpt>
      <trkpt lat="41.9850840" lon="-5.6300360">
        <ele>709.1</ele>
        <time>2019-08-15T12:22:52Z</time>
      </trkpt>
      <trkpt lat="41.9850990" lon="-5.6300880">
        <ele>709.0</ele>
        <time>2019-08-15T12:22:53Z</time>
      </trkpt>
      <trkpt lat="41.9851120" lon="-5.6301390">
        <ele>708.9</ele>
        <time>2019-08-15T12:22:54Z</time>
      </trkpt>
      <trkpt lat="41.9851260" lon="-5.6301900">
        <ele>708.9</ele>
        <time>2019-08-15T12:22:55Z</time>
      </trkpt>
      <trkpt lat="41.9851410" lon="-5.6302420">
        <ele>708.8</ele>
        <time>2019-08-15T12:22:56Z</time>
      </trkpt>
      <trkpt lat="41.9851580" lon="-5.6302930">
        <ele>708.7</ele>
        <time>2019-08-15T12:22:57Z</time>
      </trkpt>
      <trkpt lat="41.9851770" lon="-5.6303460">
        <ele>708.6</ele>
        <time>2019-08-15T12:22:58Z</time>
      </trkpt>
      <trkpt lat="41.9851930" lon="-5.6304010">
        <ele>708.5</ele>
        <time>2019-08-15T12:22:59Z</time>
      </trkpt>
      <trkpt lat="41.9852070" lon="-5.6304570">
        <ele>708.4</ele>
        <time>2019-08-15T12:23:00Z</time>
      </trkpt>
      <trkpt lat="41.9852220" lon="-5.6305140">
        <ele>708.3</ele>
        <time>2019-08-15T12:23:01Z</time>
      </trkpt>
      <trkpt lat="41.9852390" lon="-5.6305710">
        <ele>708.2</ele>
        <time>2019-08-15T12:23:02Z</time>
      </trkpt>
      <trkpt lat="41.9852570" lon="-5.6306280">
        <ele>708.1</ele>
        <time>2019-08-15T12:23:03Z</time>
      </trkpt>
      <trkpt lat="41.9852760" lon="-5.6306860">
        <ele>708.0</ele>
        <time>2019-08-15T12:23:04Z</time>
      </trkpt>
      <trkpt lat="41.9852960" lon="-5.6307460">
        <ele>707.9</ele>
        <time>2019-08-15T12:23:05Z</time>
      </trkpt>
      <trkpt lat="41.9853140" lon="-5.6308070">
        <ele>707.8</ele>
        <time>2019-08-15T12:23:06Z</time>
      </trkpt>
      <trkpt lat="41.9853330" lon="-5.6308700">
        <ele>707.7</ele>
        <time>2019-08-15T12:23:07Z</time>
      </trkpt>
      <trkpt lat="41.9853500" lon="-5.6309320">
        <ele>707.6</ele>
        <time>2019-08-15T12:23:08Z</time>
      </trkpt>
      <trkpt lat="41.9853640" lon="-5.6309950">
        <ele>707.5</ele>
        <time>2019-08-15T12:23:09Z</time>
      </trkpt>
      <trkpt lat="41.9853790" lon="-5.6310570">
        <ele>707.5</ele>
        <time>2019-08-15T12:23:10Z</time>
      </trkpt>
      <trkpt lat="41.9853940" lon="-5.6311160">
        <ele>707.4</ele>
        <time>2019-08-15T12:23:11Z</time>
      </trkpt>
      <trkpt lat="41.9854070" lon="-5.6311760">
        <ele>707.3</ele>
        <time>2019-08-15T12:23:12Z</time>
      </trkpt>
      <trkpt lat="41.9854160" lon="-5.6312400">
        <ele>707.2</ele>
        <time>2019-08-15T12:23:13Z</time>
      </trkpt>
      <trkpt lat="41.9854210" lon="-5.6313070">
        <ele>707.1</ele>
        <time>2019-08-15T12:23:14Z</time>
      </trkpt>
      <trkpt lat="41.9854220" lon="-5.6313760">
        <ele>707.0</ele>
        <time>2019-08-15T12:23:15Z</time>
      </trkpt>
      <trkpt lat="41.9854190" lon="-5.6314460">
        <ele>706.9</ele>
        <time>2019-08-15T12:23:16Z</time>
      </trkpt>
      <trkpt lat="41.9854160" lon="-5.6315170">
        <ele>706.8</ele>
        <time>2019-08-15T12:23:17Z</time>
      </trkpt>
      <trkpt lat="41.9854130" lon="-5.6315900">
        <ele>706.7</ele>
        <time>2019-08-15T12:23:18Z</time>
      </trkpt>
      <trkpt lat="41.9854070" lon="-5.6316630">
        <ele>706.6</ele>
        <time>2019-08-15T12:23:19Z</time>
      </trkpt>
      <trkpt lat="41.9853990" lon="-5.6317350">
        <ele>706.5</ele>
        <time>2019-08-15T12:23:20Z</time>
      </trkpt>
      <trkpt lat="41.9853920" lon="-5.6318070">
        <ele>706.5</ele>
        <time>2019-08-15T12:23:21Z</time>
      </trkpt>
      <trkpt lat="41.9853860" lon="-5.6318780">
        <ele>706.4</ele>
        <time>2019-08-15T12:23:22Z</time>
      </trkpt>
      <trkpt lat="41.9853810" lon="-5.6319490">
        <ele>706.3</ele>
        <time>2019-08-15T12:23:23Z</time>
      </trkpt>
      <trkpt lat="41.9853800" lon="-5.6320190">
        <ele>706.2</ele>
        <time>2019-08-15T12:23:24Z</time>
      </trkpt>
      <trkpt lat="41.9853840" lon="-5.6320910">
        <ele>706.1</ele>
        <time>2019-08-15T12:23:25Z</time>
      </trkpt>
      <trkpt lat="41.9853920" lon="-5.6321640">
        <ele>706.1</ele>
        <time>2019-08-15T12:23:26Z</time>
      </trkpt>
      <trkpt lat="41.9854040" lon="-5.6322360">
        <ele>706.1</ele>
        <time>2019-08-15T12:23:27Z</time>
      </trkpt>
      <trkpt lat="41.9854200" lon="-5.6323070">
        <ele>706.1</ele>
        <time>2019-08-15T12:23:28Z</time>
      </trkpt>
      <trkpt lat="41.9854420" lon="-5.6323760">
        <ele>706.0</ele>
        <time>2019-08-15T12:23:29Z</time>
      </trkpt>
      <trkpt lat="41.9854660" lon="-5.6324440">
        <ele>706.0</ele>
        <time>2019-08-15T12:23:30Z</time>
      </trkpt>
      <trkpt lat="41.9854940" lon="-5.6325090">
        <ele>706.0</ele>
        <time>2019-08-15T12:23:31Z</time>
      </trkpt>
      <trkpt lat="41.9855240" lon="-5.6325750">
        <ele>706.0</ele>
        <time>2019-08-15T12:23:32Z</time>
      </trkpt>
      <trkpt lat="41.9855540" lon="-5.6326370">
        <ele>706.0</ele>
        <time>2019-08-15T12:23:33Z</time>
      </trkpt>
      <trkpt lat="41.9855840" lon="-5.6326970">
        <ele>706.0</ele>
        <time>2019-08-15T12:23:34Z</time>
      </trkpt>
      <trkpt lat="41.9856120" lon="-5.6327560">
        <ele>706.0</ele>
        <time>2019-08-15T12:23:35Z</time>
      </trkpt>
      <trkpt lat="41.9856380" lon="-5.6328150">
        <ele>706.0</ele>
        <time>2019-08-15T12:23:36Z</time>
      </trkpt>
      <trkpt lat="41.9856640" lon="-5.6328730">
        <ele>706.0</ele>
        <time>2019-08-15T12:23:37Z</time>
      </trkpt>
      <trkpt lat="41.9856900" lon="-5.6329320">
        <ele>706.0</ele>
        <time>2019-08-15T12:23:38Z</time>
      </trkpt>
      <trkpt lat="41.9857150" lon="-5.6329920">
        <ele>706.0</ele>
        <time>2019-08-15T12:23:39Z</time>
      </trkpt>
      <trkpt lat="41.9857410" lon="-5.6330520">
        <ele>706.0</ele>
        <time>2019-08-15T12:23:40Z</time>
      </trkpt>
      <trkpt lat="41.9857680" lon="-5.6331130">
        <ele>706.1</ele>
        <time>2019-08-15T12:23:41Z</time>
      </trkpt>
      <trkpt lat="41.9857940" lon="-5.6331750">
        <ele>706.1</ele>
        <time>2019-08-15T12:23:42Z</time>
      </trkpt>
      <trkpt lat="41.9858210" lon="-5.6332380">
        <ele>706.1</ele>
        <time>2019-08-15T12:23:43Z</time>
      </trkpt>
      <trkpt lat="41.9858500" lon="-5.6333020">
        <ele>706.1</ele>
        <time>2019-08-15T12:23:44Z</time>
      </trkpt>
      <trkpt lat="41.9858780" lon="-5.6333680">
        <ele>706.2</ele>
        <time>2019-08-15T12:23:45Z</time>
      </trkpt>
      <trkpt lat="41.9859050" lon="-5.6334340">
        <ele>706.2</ele>
        <time>2019-08-15T12:23:46Z</time>
      </trkpt>
      <trkpt lat="41.9859330" lon="-5.6335010">
        <ele>706.2</ele>
        <time>2019-08-15T12:23:47Z</time>
      </trkpt>
      <trkpt lat="41.9859600" lon="-5.6335670">
        <ele>706.3</ele>
        <time>2019-08-15T12:23:48Z</time>
      </trkpt>
      <trkpt lat="41.9859870" lon="-5.6336300">
        <ele>706.3</ele>
        <time>2019-08-15T12:23:49Z</time>
      </trkpt>
      <trkpt lat="41.9860160" lon="-5.6336950">
        <ele>706.3</ele>
        <time>2019-08-15T12:23:50Z</time>
      </trkpt>
      <trkpt lat="41.9860440" lon="-5.6337590">
        <ele>706.4</ele>
        <time>2019-08-15T12:23:51Z</time>
      </trkpt>
      <trkpt lat="41.9860720" lon="-5.6338250">
        <ele>706.4</ele>
        <time>2019-08-15T12:23:52Z</time>
      </trkpt>
      <trkpt lat="41.9861010" lon="-5.6338910">
        <ele>706.4</ele>
        <time>2019-08-15T12:23:53Z</time>
      </trkpt>
      <trkpt lat="41.9861290" lon="-5.6339580">
        <ele>706.5</ele>
        <time>2019-08-15T12:23:54Z</time>
      </trkpt>
      <trkpt lat="41.9861560" lon="-5.6340250">
        <ele>706.5</ele>
        <time>2019-08-15T12:23:55Z</time>
      </trkpt>
      <trkpt lat="41.9861830" lon="-5.6340930">
        <ele>706.5</ele>
        <time>2019-08-15T12:23:56Z</time>
      </trkpt>
      <trkpt lat="41.9862110" lon="-5.6341590">
        <ele>706.5</ele>
        <time>2019-08-15T12:23:57Z</time>
      </trkpt>
      <trkpt lat="41.9862390" lon="-5.6342270">
        <ele>706.5</ele>
        <time>2019-08-15T12:23:58Z</time>
      </trkpt>
      <trkpt lat="41.9862650" lon="-5.6342910">
        <ele>706.6</ele>
        <time>2019-08-15T12:23:59Z</time>
      </trkpt>
      <trkpt lat="41.9862920" lon="-5.6343540">
        <ele>706.6</ele>
        <time>2019-08-15T12:24:00Z</time>
      </trkpt>
      <trkpt lat="41.9863180" lon="-5.6344190">
        <ele>706.6</ele>
        <time>2019-08-15T12:24:01Z</time>
      </trkpt>
      <trkpt lat="41.9863460" lon="-5.6344850">
        <ele>706.6</ele>
        <time>2019-08-15T12:24:02Z</time>
      </trkpt>
      <trkpt lat="41.9863720" lon="-5.6345490">
        <ele>706.7</ele>
        <time>2019-08-15T12:24:03Z</time>
      </trkpt>
      <trkpt lat="41.9863990" lon="-5.6346130">
        <ele>706.7</ele>
        <time>2019-08-15T12:24:04Z</time>
      </trkpt>
      <trkpt lat="41.9864250" lon="-5.6346760">
        <ele>706.7</ele>
        <time>2019-08-15T12:24:05Z</time>
      </trkpt>
      <trkpt lat="41.9864500" lon="-5.6347390">
        <ele>706.7</ele>
        <time>2019-08-15T12:24:06Z</time>
      </trkpt>
      <trkpt lat="41.9864750" lon="-5.6347990">
        <ele>706.8</ele>
        <time>2019-08-15T12:24:07Z</time>
      </trkpt>
      <trkpt lat="41.9864990" lon="-5.6348600">
        <ele>706.8</ele>
        <time>2019-08-15T12:24:08Z</time>
      </trkpt>
      <trkpt lat="41.9865250" lon="-5.6349220">
        <ele>706.8</ele>
        <time>2019-08-15T12:24:09Z</time>
      </trkpt>
      <trkpt lat="41.9865510" lon="-5.6349850">
        <ele>706.7</ele>
        <time>2019-08-15T12:24:10Z</time>
      </trkpt>
      <trkpt lat="41.9865770" lon="-5.6350480">
        <ele>706.7</ele>
        <time>2019-08-15T12:24:11Z</time>
      </trkpt>
      <trkpt lat="41.9866030" lon="-5.6351100">
        <ele>706.7</ele>
        <time>2019-08-15T12:24:12Z</time>
      </trkpt>
      <trkpt lat="41.9866290" lon="-5.6351720">
        <ele>706.7</ele>
        <time>2019-08-15T12:24:13Z</time>
      </trkpt>
      <trkpt lat="41.9866560" lon="-5.6352350">
        <ele>706.6</ele>
        <time>2019-08-15T12:24:14Z</time>
      </trkpt>
      <trkpt lat="41.9866830" lon="-5.6352980">
        <ele>706.6</ele>
        <time>2019-08-15T12:24:15Z</time>
      </trkpt>
      <trkpt lat="41.9867100" lon="-5.6353650">
        <ele>706.6</ele>
        <time>2019-08-15T12:24:16Z</time>
      </trkpt>
      <trkpt lat="41.9867370" lon="-5.6354290">
        <ele>706.6</ele>
        <time>2019-08-15T12:24:17Z</time>
      </trkpt>
      <trkpt lat="41.9867650" lon="-5.6354920">
        <ele>706.5</ele>
        <time>2019-08-15T12:24:18Z</time>
      </trkpt>
      <trkpt lat="41.9867930" lon="-5.6355570">
        <ele>706.5</ele>
        <time>2019-08-15T12:24:19Z</time>
      </trkpt>
      <trkpt lat="41.9868220" lon="-5.6356230">
        <ele>706.5</ele>
        <time>2019-08-15T12:24:20Z</time>
      </trkpt>
      <trkpt lat="41.9868510" lon="-5.6356920">
        <ele>706.4</ele>
        <time>2019-08-15T12:24:21Z</time>
      </trkpt>
      <trkpt lat="41.9868780" lon="-5.6357620">
        <ele>706.4</ele>
        <time>2019-08-15T12:24:22Z</time>
      </trkpt>
      <trkpt lat="41.9869050" lon="-5.6358310">
        <ele>706.4</ele>
        <time>2019-08-15T12:24:23Z</time>
      </trkpt>
      <trkpt lat="41.9869330" lon="-5.6358980">
        <ele>706.4</ele>
        <time>2019-08-15T12:24:24Z</time>
      </trkpt>
      <trkpt lat="41.9869620" lon="-5.6359640">
        <ele>706.3</ele>
        <time>2019-08-15T12:24:25Z</time>
      </trkpt>
      <trkpt lat="41.9869910" lon="-5.6360310">
        <ele>706.3</ele>
        <time>2019-08-15T12:24:26Z</time>
      </trkpt>
      <trkpt lat="41.9870210" lon="-5.6360980">
        <ele>706.2</ele>
        <time>2019-08-15T12:24:27Z</time>
      </trkpt>
      <trkpt lat="41.9870500" lon="-5.6361660">
        <ele>706.2</ele>
        <time>2019-08-15T12:24:28Z</time>
      </trkpt>
      <trkpt lat="41.9870790" lon="-5.6362330">
        <ele>706.1</ele>
        <time>2019-08-15T12:24:29Z</time>
      </trkpt>
      <trkpt lat="41.9871070" lon="-5.6363000">
        <ele>706.1</ele>
        <time>2019-08-15T12:24:30Z</time>
      </trkpt>
      <trkpt lat="41.9871340" lon="-5.6363640">
        <ele>706.0</ele>
        <time>2019-08-15T12:24:31Z</time>
      </trkpt>
      <trkpt lat="41.9871620" lon="-5.6364280">
        <ele>706.0</ele>
        <time>2019-08-15T12:24:32Z</time>
      </trkpt>
      <trkpt lat="41.9871890" lon="-5.6364930">
        <ele>706.0</ele>
        <time>2019-08-15T12:24:33Z</time>
      </trkpt>
      <trkpt lat="41.9872160" lon="-5.6365590">
        <ele>705.9</ele>
        <time>2019-08-15T12:24:34Z</time>
      </trkpt>
      <trkpt lat="41.9872460" lon="-5.6366270">
        <ele>705.9</ele>
        <time>2019-08-15T12:24:35Z</time>
      </trkpt>
      <trkpt lat="41.9872750" lon="-5.6366970">
        <ele>705.9</ele>
        <time>2019-08-15T12:24:36Z</time>
      </trkpt>
      <trkpt lat="41.9873030" lon="-5.6367680">
        <ele>705.8</ele>
        <time>2019-08-15T12:24:37Z</time>
      </trkpt>
      <trkpt lat="41.9873320" lon="-5.6368380">
        <ele>705.8</ele>
        <time>2019-08-15T12:24:38Z</time>
      </trkpt>
      <trkpt lat="41.9873610" lon="-5.6369070">
        <ele>705.8</ele>
        <time>2019-08-15T12:24:39Z</time>
      </trkpt>
      <trkpt lat="41.9873880" lon="-5.6369750">
        <ele>705.7</ele>
        <time>2019-08-15T12:24:40Z</time>
      </trkpt>
      <trkpt lat="41.9874150" lon="-5.6370420">
        <ele>705.7</ele>
        <time>2019-08-15T12:24:41Z</time>
      </trkpt>
      <trkpt lat="41.9874430" lon="-5.6371100">
        <ele>705.7</ele>
        <time>2019-08-15T12:24:42Z</time>
      </trkpt>
      <trkpt lat="41.9874730" lon="-5.6371800">
        <ele>705.7</ele>
        <time>2019-08-15T12:24:43Z</time>
      </trkpt>
      <trkpt lat="41.9875040" lon="-5.6372510">
        <ele>705.7</ele>
        <time>2019-08-15T12:24:44Z</time>
      </trkpt>
      <trkpt lat="41.9875350" lon="-5.6373210">
        <ele>705.7</ele>
        <time>2019-08-15T12:24:45Z</time>
      </trkpt>
      <trkpt lat="41.9875650" lon="-5.6373920">
        <ele>705.7</ele>
        <time>2019-08-15T12:24:46Z</time>
      </trkpt>
      <trkpt lat="41.9875940" lon="-5.6374630">
        <ele>705.8</ele>
        <time>2019-08-15T12:24:47Z</time>
      </trkpt>
      <trkpt lat="41.9876220" lon="-5.6375350">
        <ele>705.8</ele>
        <time>2019-08-15T12:24:48Z</time>
      </trkpt>
      <trkpt lat="41.9876510" lon="-5.6376050">
        <ele>705.8</ele>
        <time>2019-08-15T12:24:49Z</time>
      </trkpt>
      <trkpt lat="41.9876800" lon="-5.6376750">
        <ele>705.8</ele>
        <time>2019-08-15T12:24:50Z</time>
      </trkpt>
      <trkpt lat="41.9877100" lon="-5.6377470">
        <ele>705.9</ele>
        <time>2019-08-15T12:24:51Z</time>
      </trkpt>
      <trkpt lat="41.9877400" lon="-5.6378180">
        <ele>705.9</ele>
        <time>2019-08-15T12:24:52Z</time>
      </trkpt>
      <trkpt lat="41.9877700" lon="-5.6378890">
        <ele>705.9</ele>
        <time>2019-08-15T12:24:53Z</time>
      </trkpt>
      <trkpt lat="41.9878010" lon="-5.6379600">
        <ele>706.0</ele>
        <time>2019-08-15T12:24:54Z</time>
      </trkpt>
      <trkpt lat="41.9878310" lon="-5.6380290">
        <ele>706.0</ele>
        <time>2019-08-15T12:24:55Z</time>
      </trkpt>
      <trkpt lat="41.9878610" lon="-5.6380980">
        <ele>706.0</ele>
        <time>2019-08-15T12:24:56Z</time>
      </trkpt>
      <trkpt lat="41.9878910" lon="-5.6381680">
        <ele>706.0</ele>
        <time>2019-08-15T12:24:57Z</time>
      </trkpt>
      <trkpt lat="41.9879210" lon="-5.6382390">
        <ele>706.0</ele>
        <time>2019-08-15T12:24:58Z</time>
      </trkpt>
      <trkpt lat="41.9879500" lon="-5.6383110">
        <ele>706.0</ele>
        <time>2019-08-15T12:24:59Z</time>
      </trkpt>
      <trkpt lat="41.9879780" lon="-5.6383830">
        <ele>706.1</ele>
        <time>2019-08-15T12:25:00Z</time>
      </trkpt>
      <trkpt lat="41.9880060" lon="-5.6384550">
        <ele>706.1</ele>
        <time>2019-08-15T12:25:01Z</time>
      </trkpt>
      <trkpt lat="41.9880350" lon="-5.6385280">
        <ele>706.1</ele>
        <time>2019-08-15T12:25:02Z</time>
      </trkpt>
      <trkpt lat="41.9880670" lon="-5.6386030">
        <ele>706.1</ele>
        <time>2019-08-15T12:25:03Z</time>
      </trkpt>
      <trkpt lat="41.9881000" lon="-5.6386770">
        <ele>706.1</ele>
        <time>2019-08-15T12:25:04Z</time>
      </trkpt>
      <trkpt lat="41.9881290" lon="-5.6387500">
        <ele>706.1</ele>
        <time>2019-08-15T12:25:05Z</time>
      </trkpt>
      <trkpt lat="41.9881570" lon="-5.6388220">
        <ele>706.1</ele>
        <time>2019-08-15T12:25:06Z</time>
      </trkpt>
      <trkpt lat="41.9881870" lon="-5.6388940">
        <ele>706.1</ele>
        <time>2019-08-15T12:25:07Z</time>
      </trkpt>
      <trkpt lat="41.9882200" lon="-5.6389670">
        <ele>706.1</ele>
        <time>2019-08-15T12:25:08Z</time>
      </trkpt>
      <trkpt lat="41.9882550" lon="-5.6390390">
        <ele>706.1</ele>
        <time>2019-08-15T12:25:09Z</time>
      </trkpt>
      <trkpt lat="41.9882870" lon="-5.6391140">
        <ele>706.1</ele>
        <time>2019-08-15T12:25:10Z</time>
      </trkpt>
      <trkpt lat="41.9883180" lon="-5.6391890">
        <ele>706.1</ele>
        <time>2019-08-15T12:25:11Z</time>
      </trkpt>
      <trkpt lat="41.9883490" lon="-5.6392650">
        <ele>706.2</ele>
        <time>2019-08-15T12:25:12Z</time>
      </trkpt>
      <trkpt lat="41.9883790" lon="-5.6393400">
        <ele>706.2</ele>
        <time>2019-08-15T12:25:13Z</time>
      </trkpt>
      <trkpt lat="41.9884100" lon="-5.6394150">
        <ele>706.2</ele>
        <time>2019-08-15T12:25:14Z</time>
      </trkpt>
      <trkpt lat="41.9884400" lon="-5.6394880">
        <ele>706.2</ele>
        <time>2019-08-15T12:25:15Z</time>
      </trkpt>
      <trkpt lat="41.9884690" lon="-5.6395610">
        <ele>706.2</ele>
        <time>2019-08-15T12:25:16Z</time>
      </trkpt>
      <trkpt lat="41.9885000" lon="-5.6396330">
        <ele>706.2</ele>
        <time>2019-08-15T12:25:17Z</time>
      </trkpt>
      <trkpt lat="41.9885310" lon="-5.6397060">
        <ele>706.2</ele>
        <time>2019-08-15T12:25:18Z</time>
      </trkpt>
      <trkpt lat="41.9885640" lon="-5.6397810">
        <ele>706.2</ele>
        <time>2019-08-15T12:25:19Z</time>
      </trkpt>
      <trkpt lat="41.9885940" lon="-5.6398570">
        <ele>706.2</ele>
        <time>2019-08-15T12:25:20Z</time>
      </trkpt>
      <trkpt lat="41.9886230" lon="-5.6399330">
        <ele>706.2</ele>
        <time>2019-08-15T12:25:21Z</time>
      </trkpt>
      <trkpt lat="41.9886530" lon="-5.6400080">
        <ele>706.2</ele>
        <time>2019-08-15T12:25:22Z</time>
      </trkpt>
      <trkpt lat="41.9886840" lon="-5.6400800">
        <ele>706.2</ele>
        <time>2019-08-15T12:25:23Z</time>
      </trkpt>
      <trkpt lat="41.9887160" lon="-5.6401530">
        <ele>706.2</ele>
        <time>2019-08-15T12:25:24Z</time>
      </trkpt>
      <trkpt lat="41.9887460" lon="-5.6402250">
        <ele>706.2</ele>
        <time>2019-08-15T12:25:25Z</time>
      </trkpt>
      <trkpt lat="41.9887750" lon="-5.6402960">
        <ele>706.2</ele>
        <time>2019-08-15T12:25:26Z</time>
      </trkpt>
      <trkpt lat="41.9888040" lon="-5.6403640">
        <ele>706.2</ele>
        <time>2019-08-15T12:25:27Z</time>
      </trkpt>
      <trkpt lat="41.9888330" lon="-5.6404320">
        <ele>706.2</ele>
        <time>2019-08-15T12:25:28Z</time>
      </trkpt>
      <trkpt lat="41.9888620" lon="-5.6405020">
        <ele>706.2</ele>
        <time>2019-08-15T12:25:29Z</time>
      </trkpt>
      <trkpt lat="41.9888910" lon="-5.6405730">
        <ele>706.2</ele>
        <time>2019-08-15T12:25:30Z</time>
      </trkpt>
      <trkpt lat="41.9889190" lon="-5.6406420">
        <ele>706.2</ele>
        <time>2019-08-15T12:25:31Z</time>
      </trkpt>
      <trkpt lat="41.9889480" lon="-5.6407120">
        <ele>706.2</ele>
        <time>2019-08-15T12:25:32Z</time>
      </trkpt>
      <trkpt lat="41.9889770" lon="-5.6407810">
        <ele>706.2</ele>
        <time>2019-08-15T12:25:33Z</time>
      </trkpt>
      <trkpt lat="41.9890050" lon="-5.6408490">
        <ele>706.2</ele>
        <time>2019-08-15T12:25:34Z</time>
      </trkpt>
      <trkpt lat="41.9890330" lon="-5.6409170">
        <ele>706.1</ele>
        <time>2019-08-15T12:25:35Z</time>
      </trkpt>
      <trkpt lat="41.9890600" lon="-5.6409830">
        <ele>706.1</ele>
        <time>2019-08-15T12:25:36Z</time>
      </trkpt>
      <trkpt lat="41.9890870" lon="-5.6410480">
        <ele>706.1</ele>
        <time>2019-08-15T12:25:37Z</time>
      </trkpt>
      <trkpt lat="41.9891140" lon="-5.6411130">
        <ele>706.1</ele>
        <time>2019-08-15T12:25:38Z</time>
      </trkpt>
      <trkpt lat="41.9891420" lon="-5.6411800">
        <ele>706.1</ele>
        <time>2019-08-15T12:25:39Z</time>
      </trkpt>
      <trkpt lat="41.9891710" lon="-5.6412480">
        <ele>706.1</ele>
        <time>2019-08-15T12:25:40Z</time>
      </trkpt>
      <trkpt lat="41.9891990" lon="-5.6413160">
        <ele>706.1</ele>
        <time>2019-08-15T12:25:41Z</time>
      </trkpt>
      <trkpt lat="41.9892270" lon="-5.6413820">
        <ele>706.1</ele>
        <time>2019-08-15T12:25:42Z</time>
      </trkpt>
      <trkpt lat="41.9892530" lon="-5.6414460">
        <ele>706.1</ele>
        <time>2019-08-15T12:25:43Z</time>
      </trkpt>
      <trkpt lat="41.9892790" lon="-5.6415090">
        <ele>706.1</ele>
        <time>2019-08-15T12:25:44Z</time>
      </trkpt>
      <trkpt lat="41.9893050" lon="-5.6415710">
        <ele>706.1</ele>
        <time>2019-08-15T12:25:45Z</time>
      </trkpt>
      <trkpt lat="41.9893330" lon="-5.6416320">
        <ele>706.1</ele>
        <time>2019-08-15T12:25:46Z</time>
      </trkpt>
      <trkpt lat="41.9893600" lon="-5.6416930">
        <ele>706.1</ele>
        <time>2019-08-15T12:25:47Z</time>
      </trkpt>
      <trkpt lat="41.9893850" lon="-5.6417560">
        <ele>706.1</ele>
        <time>2019-08-15T12:25:48Z</time>
      </trkpt>
      <trkpt lat="41.9894110" lon="-5.6418180">
        <ele>706.1</ele>
        <time>2019-08-15T12:25:49Z</time>
      </trkpt>
      <trkpt lat="41.9894380" lon="-5.6418770">
        <ele>706.1</ele>
        <time>2019-08-15T12:25:50Z</time>
      </trkpt>
      <trkpt lat="41.9894640" lon="-5.6419370">
        <ele>706.1</ele>
        <time>2019-08-15T12:25:51Z</time>
      </trkpt>
      <trkpt lat="41.9894890" lon="-5.6419970">
        <ele>706.1</ele>
        <time>2019-08-15T12:25:52Z</time>
      </trkpt>
      <trkpt lat="41.9895140" lon="-5.6420570">
        <ele>706.1</ele>
        <time>2019-08-15T12:25:53Z</time>
      </trkpt>
      <trkpt lat="41.9895390" lon="-5.6421190">
        <ele>706.1</ele>
        <time>2019-08-15T12:25:54Z</time>
      </trkpt>
      <trkpt lat="41.9895650" lon="-5.6421810">
        <ele>706.1</ele>
        <time>2019-08-15T12:25:55Z</time>
      </trkpt>
      <trkpt lat="41.9895900" lon="-5.6422410">
        <ele>706.1</ele>
        <time>2019-08-15T12:25:56Z</time>
      </trkpt>
      <trkpt lat="41.9896150" lon="-5.6423010">
        <ele>706.0</ele>
        <time>2019-08-15T12:25:57Z</time>
      </trkpt>
      <trkpt lat="41.9896400" lon="-5.6423630">
        <ele>705.9</ele>
        <time>2019-08-15T12:25:58Z</time>
      </trkpt>
      <trkpt lat="41.9896660" lon="-5.6424260">
        <ele>705.9</ele>
        <time>2019-08-15T12:25:59Z</time>
      </trkpt>
      <trkpt lat="41.9896910" lon="-5.6424890">
        <ele>705.8</ele>
        <time>2019-08-15T12:26:00Z</time>
      </trkpt>
      <trkpt lat="41.9897160" lon="-5.6425530">
        <ele>705.8</ele>
        <time>2019-08-15T12:26:01Z</time>
      </trkpt>
      <trkpt lat="41.9897410" lon="-5.6426160">
        <ele>705.8</ele>
        <time>2019-08-15T12:26:02Z</time>
      </trkpt>
      <trkpt lat="41.9897680" lon="-5.6426780">
        <ele>705.8</ele>
        <time>2019-08-15T12:26:03Z</time>
      </trkpt>
      <trkpt lat="41.9897930" lon="-5.6427390">
        <ele>705.8</ele>
        <time>2019-08-15T12:26:04Z</time>
      </trkpt>
      <trkpt lat="41.9898190" lon="-5.6427990">
        <ele>705.9</ele>
        <time>2019-08-15T12:26:05Z</time>
      </trkpt>
      <trkpt lat="41.9898440" lon="-5.6428600">
        <ele>705.9</ele>
        <time>2019-08-15T12:26:06Z</time>
      </trkpt>
      <trkpt lat="41.9898700" lon="-5.6429190">
        <ele>705.9</ele>
        <time>2019-08-15T12:26:07Z</time>
      </trkpt>
      <trkpt lat="41.9898960" lon="-5.6429810">
        <ele>705.9</ele>
        <time>2019-08-15T12:26:08Z</time>
      </trkpt>
      <trkpt lat="41.9899220" lon="-5.6430420">
        <ele>706.0</ele>
        <time>2019-08-15T12:26:09Z</time>
      </trkpt>
      <trkpt lat="41.9899490" lon="-5.6431030">
        <ele>706.0</ele>
        <time>2019-08-15T12:26:10Z</time>
      </trkpt>
      <trkpt lat="41.9899750" lon="-5.6431650">
        <ele>706.0</ele>
        <time>2019-08-15T12:26:11Z</time>
      </trkpt>
      <trkpt lat="41.9899980" lon="-5.6432300">
        <ele>705.9</ele>
        <time>2019-08-15T12:26:12Z</time>
      </trkpt>
      <trkpt lat="41.9900200" lon="-5.6432940">
        <ele>705.9</ele>
        <time>2019-08-15T12:26:13Z</time>
      </trkpt>
      <trkpt lat="41.9900420" lon="-5.6433590">
        <ele>705.8</ele>
        <time>2019-08-15T12:26:14Z</time>
      </trkpt>
      <trkpt lat="41.9900610" lon="-5.6434240">
        <ele>705.7</ele>
        <time>2019-08-15T12:26:15Z</time>
      </trkpt>
      <trkpt lat="41.9900800" lon="-5.6434880">
        <ele>705.7</ele>
        <time>2019-08-15T12:26:16Z</time>
      </trkpt>
      <trkpt lat="41.9900950" lon="-5.6435530">
        <ele>705.7</ele>
        <time>2019-08-15T12:26:17Z</time>
      </trkpt>
      <trkpt lat="41.9901080" lon="-5.6436170">
        <ele>705.6</ele>
        <time>2019-08-15T12:26:18Z</time>
      </trkpt>
      <trkpt lat="41.9901230" lon="-5.6436820">
        <ele>705.6</ele>
        <time>2019-08-15T12:26:19Z</time>
      </trkpt>
      <trkpt lat="41.9901380" lon="-5.6437470">
        <ele>705.5</ele>
        <time>2019-08-15T12:26:20Z</time>
      </trkpt>
      <trkpt lat="41.9901540" lon="-5.6438140">
        <ele>705.5</ele>
        <time>2019-08-15T12:26:21Z</time>
      </trkpt>
      <trkpt lat="41.9901700" lon="-5.6438830">
        <ele>705.4</ele>
        <time>2019-08-15T12:26:22Z</time>
      </trkpt>
      <trkpt lat="41.9901830" lon="-5.6439530">
        <ele>705.4</ele>
        <time>2019-08-15T12:26:23Z</time>
      </trkpt>
      <trkpt lat="41.9901960" lon="-5.6440230">
        <ele>705.3</ele>
        <time>2019-08-15T12:26:24Z</time>
      </trkpt>
      <trkpt lat="41.9902110" lon="-5.6440940">
        <ele>705.3</ele>
        <time>2019-08-15T12:26:25Z</time>
      </trkpt>
      <trkpt lat="41.9902280" lon="-5.6441640">
        <ele>705.2</ele>
        <time>2019-08-15T12:26:26Z</time>
      </trkpt>
      <trkpt lat="41.9902460" lon="-5.6442360">
        <ele>705.2</ele>
        <time>2019-08-15T12:26:27Z</time>
      </trkpt>
      <trkpt lat="41.9902630" lon="-5.6443070">
        <ele>705.2</ele>
        <time>2019-08-15T12:26:28Z</time>
      </trkpt>
      <trkpt lat="41.9902790" lon="-5.6443760">
        <ele>705.2</ele>
        <time>2019-08-15T12:26:29Z</time>
      </trkpt>
      <trkpt lat="41.9902940" lon="-5.6444440">
        <ele>705.2</ele>
        <time>2019-08-15T12:26:30Z</time>
      </trkpt>
      <trkpt lat="41.9903100" lon="-5.6445120">
        <ele>705.2</ele>
        <time>2019-08-15T12:26:31Z</time>
      </trkpt>
      <trkpt lat="41.9903250" lon="-5.6445820">
        <ele>705.3</ele>
        <time>2019-08-15T12:26:32Z</time>
      </trkpt>
      <trkpt lat="41.9903420" lon="-5.6446500">
        <ele>705.5</ele>
        <time>2019-08-15T12:26:33Z</time>
      </trkpt>
      <trkpt lat="41.9903600" lon="-5.6447200">
        <ele>705.7</ele>
        <time>2019-08-15T12:26:34Z</time>
      </trkpt>
      <trkpt lat="41.9903760" lon="-5.6447890">
        <ele>705.9</ele>
        <time>2019-08-15T12:26:35Z</time>
      </trkpt>
      <trkpt lat="41.9903910" lon="-5.6448560">
        <ele>706.1</ele>
        <time>2019-08-15T12:26:36Z</time>
      </trkpt>
      <trkpt lat="41.9904050" lon="-5.6449220">
        <ele>706.2</ele>
        <time>2019-08-15T12:26:37Z</time>
      </trkpt>
      <trkpt lat="41.9904200" lon="-5.6449860">
        <ele>706.3</ele>
        <time>2019-08-15T12:26:38Z</time>
      </trkpt>
      <trkpt lat="41.9904340" lon="-5.6450490">
        <ele>706.4</ele>
        <time>2019-08-15T12:26:39Z</time>
      </trkpt>
      <trkpt lat="41.9904480" lon="-5.6451100">
        <ele>706.4</ele>
        <time>2019-08-15T12:26:40Z</time>
      </trkpt>
      <trkpt lat="41.9904620" lon="-5.6451700">
        <ele>706.4</ele>
        <time>2019-08-15T12:26:41Z</time>
      </trkpt>
      <trkpt lat="41.9904750" lon="-5.6452290">
        <ele>706.3</ele>
        <time>2019-08-15T12:26:42Z</time>
      </trkpt>
      <trkpt lat="41.9904890" lon="-5.6452890">
        <ele>706.3</ele>
        <time>2019-08-15T12:26:43Z</time>
      </trkpt>
      <trkpt lat="41.9905030" lon="-5.6453510">
        <ele>706.2</ele>
        <time>2019-08-15T12:26:44Z</time>
      </trkpt>
      <trkpt lat="41.9905160" lon="-5.6454160">
        <ele>706.1</ele>
        <time>2019-08-15T12:26:45Z</time>
      </trkpt>
      <trkpt lat="41.9905310" lon="-5.6454840">
        <ele>706.0</ele>
        <time>2019-08-15T12:26:46Z</time>
      </trkpt>
      <trkpt lat="41.9905460" lon="-5.6455520">
        <ele>705.9</ele>
        <time>2019-08-15T12:26:47Z</time>
      </trkpt>
      <trkpt lat="41.9905610" lon="-5.6456200">
        <ele>705.7</ele>
        <time>2019-08-15T12:26:48Z</time>
      </trkpt>
      <trkpt lat="41.9905760" lon="-5.6456890">
        <ele>705.6</ele>
        <time>2019-08-15T12:26:49Z</time>
      </trkpt>
      <trkpt lat="41.9905930" lon="-5.6457600">
        <ele>705.5</ele>
        <time>2019-08-15T12:26:50Z</time>
      </trkpt>
      <trkpt lat="41.9906100" lon="-5.6458320">
        <ele>705.3</ele>
        <time>2019-08-15T12:26:51Z</time>
      </trkpt>
      <trkpt lat="41.9906260" lon="-5.6459030">
        <ele>705.1</ele>
        <time>2019-08-15T12:26:52Z</time>
      </trkpt>
      <trkpt lat="41.9906400" lon="-5.6459720">
        <ele>705.0</ele>
        <time>2019-08-15T12:26:53Z</time>
      </trkpt>
      <trkpt lat="41.9906540" lon="-5.6460400">
        <ele>704.9</ele>
        <time>2019-08-15T12:26:54Z</time>
      </trkpt>
      <trkpt lat="41.9906670" lon="-5.6461060">
        <ele>704.7</ele>
        <time>2019-08-15T12:26:55Z</time>
      </trkpt>
      <trkpt lat="41.9906800" lon="-5.6461700">
        <ele>704.6</ele>
        <time>2019-08-15T12:26:56Z</time>
      </trkpt>
      <trkpt lat="41.9906980" lon="-5.6462350">
        <ele>704.5</ele>
        <time>2019-08-15T12:26:57Z</time>
      </trkpt>
      <trkpt lat="41.9907160" lon="-5.6463030">
        <ele>704.4</ele>
        <time>2019-08-15T12:26:58Z</time>
      </trkpt>
      <trkpt lat="41.9907340" lon="-5.6463740">
        <ele>704.2</ele>
        <time>2019-08-15T12:26:59Z</time>
      </trkpt>
      <trkpt lat="41.9907460" lon="-5.6464440">
        <ele>704.2</ele>
        <time>2019-08-15T12:27:00Z</time>
      </trkpt>
      <trkpt lat="41.9907610" lon="-5.6465120">
        <ele>704.1</ele>
        <time>2019-08-15T12:27:01Z</time>
      </trkpt>
      <trkpt lat="41.9907780" lon="-5.6465800">
        <ele>704.0</ele>
        <time>2019-08-15T12:27:02Z</time>
      </trkpt>
      <trkpt lat="41.9907950" lon="-5.6466490">
        <ele>703.9</ele>
        <time>2019-08-15T12:27:03Z</time>
      </trkpt>
      <trkpt lat="41.9908120" lon="-5.6467180">
        <ele>703.8</ele>
        <time>2019-08-15T12:27:04Z</time>
      </trkpt>
      <trkpt lat="41.9908290" lon="-5.6467870">
        <ele>703.7</ele>
        <time>2019-08-15T12:27:05Z</time>
      </trkpt>
      <trkpt lat="41.9908450" lon="-5.6468570">
        <ele>703.6</ele>
        <time>2019-08-15T12:27:06Z</time>
      </trkpt>
      <trkpt lat="41.9908610" lon="-5.6469260">
        <ele>703.5</ele>
        <time>2019-08-15T12:27:07Z</time>
      </trkpt>
      <trkpt lat="41.9908770" lon="-5.6469960">
        <ele>703.7</ele>
        <time>2019-08-15T12:27:08Z</time>
      </trkpt>
      <trkpt lat="41.9908940" lon="-5.6470680">
        <ele>703.8</ele>
        <time>2019-08-15T12:27:09Z</time>
      </trkpt>
      <trkpt lat="41.9909070" lon="-5.6471400">
        <ele>703.9</ele>
        <time>2019-08-15T12:27:10Z</time>
      </trkpt>
      <trkpt lat="41.9909210" lon="-5.6472110">
        <ele>704.1</ele>
        <time>2019-08-15T12:27:11Z</time>
      </trkpt>
      <trkpt lat="41.9909350" lon="-5.6472790">
        <ele>704.2</ele>
        <time>2019-08-15T12:27:12Z</time>
      </trkpt>
      <trkpt lat="41.9909500" lon="-5.6473450">
        <ele>704.3</ele>
        <time>2019-08-15T12:27:13Z</time>
      </trkpt>
      <trkpt lat="41.9909660" lon="-5.6474090">
        <ele>704.5</ele>
        <time>2019-08-15T12:27:14Z</time>
      </trkpt>
      <trkpt lat="41.9909810" lon="-5.6474690">
        <ele>704.6</ele>
        <time>2019-08-15T12:27:15Z</time>
      </trkpt>
      <trkpt lat="41.9909960" lon="-5.6475300">
        <ele>704.7</ele>
        <time>2019-08-15T12:27:16Z</time>
      </trkpt>
      <trkpt lat="41.9910100" lon="-5.6475910">
        <ele>704.9</ele>
        <time>2019-08-15T12:27:17Z</time>
      </trkpt>
      <trkpt lat="41.9910240" lon="-5.6476550">
        <ele>705.0</ele>
        <time>2019-08-15T12:27:18Z</time>
      </trkpt>
      <trkpt lat="41.9910380" lon="-5.6477190">
        <ele>705.1</ele>
        <time>2019-08-15T12:27:19Z</time>
      </trkpt>
      <trkpt lat="41.9910530" lon="-5.6477830">
        <ele>705.3</ele>
        <time>2019-08-15T12:27:20Z</time>
      </trkpt>
      <trkpt lat="41.9910700" lon="-5.6478490">
        <ele>705.4</ele>
        <time>2019-08-15T12:27:21Z</time>
      </trkpt>
      <trkpt lat="41.9910850" lon="-5.6479150">
        <ele>705.5</ele>
        <time>2019-08-15T12:27:22Z</time>
      </trkpt>
      <trkpt lat="41.9910990" lon="-5.6479810">
        <ele>705.6</ele>
        <time>2019-08-15T12:27:23Z</time>
      </trkpt>
      <trkpt lat="41.9911130" lon="-5.6480460">
        <ele>705.7</ele>
        <time>2019-08-15T12:27:24Z</time>
      </trkpt>
      <trkpt lat="41.9911280" lon="-5.6481100">
        <ele>705.8</ele>
        <time>2019-08-15T12:27:25Z</time>
      </trkpt>
      <trkpt lat="41.9911440" lon="-5.6481760">
        <ele>705.9</ele>
        <time>2019-08-15T12:27:26Z</time>
      </trkpt>
      <trkpt lat="41.9911600" lon="-5.6482410">
        <ele>706.0</ele>
        <time>2019-08-15T12:27:27Z</time>
      </trkpt>
      <trkpt lat="41.9911750" lon="-5.6483060">
        <ele>706.1</ele>
        <time>2019-08-15T12:27:28Z</time>
      </trkpt>
      <trkpt lat="41.9911900" lon="-5.6483710">
        <ele>706.2</ele>
        <time>2019-08-15T12:27:29Z</time>
      </trkpt>
      <trkpt lat="41.9912050" lon="-5.6484360">
        <ele>706.3</ele>
        <time>2019-08-15T12:27:30Z</time>
      </trkpt>
      <trkpt lat="41.9912190" lon="-5.6485020">
        <ele>706.4</ele>
        <time>2019-08-15T12:27:31Z</time>
      </trkpt>
      <trkpt lat="41.9912330" lon="-5.6485670">
        <ele>706.5</ele>
        <time>2019-08-15T12:27:32Z</time>
      </trkpt>
      <trkpt lat="41.9912490" lon="-5.6486340">
        <ele>706.6</ele>
        <time>2019-08-15T12:27:33Z</time>
      </trkpt>
      <trkpt lat="41.9912650" lon="-5.6487000">
        <ele>706.7</ele>
        <time>2019-08-15T12:27:34Z</time>
      </trkpt>
      <trkpt lat="41.9912810" lon="-5.6487670">
        <ele>706.8</ele>
        <time>2019-08-15T12:27:35Z</time>
      </trkpt>
      <trkpt lat="41.9912980" lon="-5.6488350">
        <ele>706.9</ele>
        <time>2019-08-15T12:27:36Z</time>
      </trkpt>
      <trkpt lat="41.9913160" lon="-5.6489040">
        <ele>706.9</ele>
        <time>2019-08-15T12:27:37Z</time>
      </trkpt>
      <trkpt lat="41.9913310" lon="-5.6489740">
        <ele>707.0</ele>
        <time>2019-08-15T12:27:38Z</time>
      </trkpt>
      <trkpt lat="41.9913450" lon="-5.6490420">
        <ele>707.0</ele>
        <time>2019-08-15T12:27:39Z</time>
      </trkpt>
      <trkpt lat="41.9913590" lon="-5.6491060">
        <ele>707.1</ele>
        <time>2019-08-15T12:27:40Z</time>
      </trkpt>
      <trkpt lat="41.9913730" lon="-5.6491680">
        <ele>707.2</ele>
        <time>2019-08-15T12:27:41Z</time>
      </trkpt>
      <trkpt lat="41.9913870" lon="-5.6492310">
        <ele>707.2</ele>
        <time>2019-08-15T12:27:42Z</time>
      </trkpt>
      <trkpt lat="41.9914050" lon="-5.6492940">
        <ele>707.3</ele>
        <time>2019-08-15T12:27:43Z</time>
      </trkpt>
      <trkpt lat="41.9914200" lon="-5.6493590">
        <ele>707.4</ele>
        <time>2019-08-15T12:27:44Z</time>
      </trkpt>
      <trkpt lat="41.9914360" lon="-5.6494260">
        <ele>707.5</ele>
        <time>2019-08-15T12:27:45Z</time>
      </trkpt>
      <trkpt lat="41.9914520" lon="-5.6494930">
        <ele>707.6</ele>
        <time>2019-08-15T12:27:46Z</time>
      </trkpt>
      <trkpt lat="41.9914680" lon="-5.6495610">
        <ele>707.7</ele>
        <time>2019-08-15T12:27:47Z</time>
      </trkpt>
      <trkpt lat="41.9914860" lon="-5.6496270">
        <ele>707.7</ele>
        <time>2019-08-15T12:27:48Z</time>
      </trkpt>
      <trkpt lat="41.9915050" lon="-5.6496930">
        <ele>707.8</ele>
        <time>2019-08-15T12:27:49Z</time>
      </trkpt>
      <trkpt lat="41.9915210" lon="-5.6497590">
        <ele>707.9</ele>
        <time>2019-08-15T12:27:50Z</time>
      </trkpt>
      <trkpt lat="41.9915360" lon="-5.6498230">
        <ele>708.0</ele>
        <time>2019-08-15T12:27:51Z</time>
      </trkpt>
      <trkpt lat="41.9915510" lon="-5.6498870">
        <ele>708.2</ele>
        <time>2019-08-15T12:27:52Z</time>
      </trkpt>
      <trkpt lat="41.9915660" lon="-5.6499500">
        <ele>708.3</ele>
        <time>2019-08-15T12:27:53Z</time>
      </trkpt>
      <trkpt lat="41.9915820" lon="-5.6500150">
        <ele>708.4</ele>
        <time>2019-08-15T12:27:54Z</time>
      </trkpt>
      <trkpt lat="41.9915990" lon="-5.6500790">
        <ele>708.5</ele>
        <time>2019-08-15T12:27:55Z</time>
      </trkpt>
      <trkpt lat="41.9916170" lon="-5.6501440">
        <ele>708.6</ele>
        <time>2019-08-15T12:27:56Z</time>
      </trkpt>
      <trkpt lat="41.9916340" lon="-5.6502100">
        <ele>708.8</ele>
        <time>2019-08-15T12:27:57Z</time>
      </trkpt>
      <trkpt lat="41.9916500" lon="-5.6502760">
        <ele>708.7</ele>
        <time>2019-08-15T12:27:58Z</time>
      </trkpt>
      <trkpt lat="41.9916660" lon="-5.6503430">
        <ele>708.7</ele>
        <time>2019-08-15T12:27:59Z</time>
      </trkpt>
      <trkpt lat="41.9916800" lon="-5.6504140">
        <ele>708.7</ele>
        <time>2019-08-15T12:28:00Z</time>
      </trkpt>
      <trkpt lat="41.9916930" lon="-5.6504860">
        <ele>708.5</ele>
        <time>2019-08-15T12:28:01Z</time>
      </trkpt>
      <trkpt lat="41.9917060" lon="-5.6505570">
        <ele>708.3</ele>
        <time>2019-08-15T12:28:02Z</time>
      </trkpt>
      <trkpt lat="41.9917200" lon="-5.6506290">
        <ele>708.2</ele>
        <time>2019-08-15T12:28:03Z</time>
      </trkpt>
      <trkpt lat="41.9917360" lon="-5.6506960">
        <ele>708.0</ele>
        <time>2019-08-15T12:28:04Z</time>
      </trkpt>
      <trkpt lat="41.9917520" lon="-5.6507610">
        <ele>707.8</ele>
        <time>2019-08-15T12:28:05Z</time>
      </trkpt>
      <trkpt lat="41.9917680" lon="-5.6508260">
        <ele>707.6</ele>
        <time>2019-08-15T12:28:06Z</time>
      </trkpt>
      <trkpt lat="41.9917840" lon="-5.6508920">
        <ele>707.4</ele>
        <time>2019-08-15T12:28:07Z</time>
      </trkpt>
      <trkpt lat="41.9917980" lon="-5.6509610">
        <ele>707.2</ele>
        <time>2019-08-15T12:28:08Z</time>
      </trkpt>
      <trkpt lat="41.9918120" lon="-5.6510320">
        <ele>707.0</ele>
        <time>2019-08-15T12:28:09Z</time>
      </trkpt>
      <trkpt lat="41.9918260" lon="-5.6511040">
        <ele>706.7</ele>
        <time>2019-08-15T12:28:10Z</time>
      </trkpt>
      <trkpt lat="41.9918410" lon="-5.6511790">
        <ele>706.6</ele>
        <time>2019-08-15T12:28:11Z</time>
      </trkpt>
      <trkpt lat="41.9918570" lon="-5.6512540">
        <ele>706.6</ele>
        <time>2019-08-15T12:28:12Z</time>
      </trkpt>
      <trkpt lat="41.9918730" lon="-5.6513270">
        <ele>706.5</ele>
        <time>2019-08-15T12:28:13Z</time>
      </trkpt>
      <trkpt lat="41.9918880" lon="-5.6513970">
        <ele>706.4</ele>
        <time>2019-08-15T12:28:14Z</time>
      </trkpt>
      <trkpt lat="41.9919000" lon="-5.6514650">
        <ele>706.4</ele>
        <time>2019-08-15T12:28:15Z</time>
      </trkpt>
      <trkpt lat="41.9919110" lon="-5.6515330">
        <ele>706.3</ele>
        <time>2019-08-15T12:28:16Z</time>
      </trkpt>
      <trkpt lat="41.9919200" lon="-5.6516010">
        <ele>706.3</ele>
        <time>2019-08-15T12:28:17Z</time>
      </trkpt>
      <trkpt lat="41.9919310" lon="-5.6516710">
        <ele>706.2</ele>
        <time>2019-08-15T12:28:18Z</time>
      </trkpt>
      <trkpt lat="41.9919390" lon="-5.6517460">
        <ele>706.1</ele>
        <time>2019-08-15T12:28:19Z</time>
      </trkpt>
      <trkpt lat="41.9919510" lon="-5.6518160">
        <ele>705.9</ele>
        <time>2019-08-15T12:28:20Z</time>
      </trkpt>
      <trkpt lat="41.9919610" lon="-5.6518930">
        <ele>705.8</ele>
        <time>2019-08-15T12:28:21Z</time>
      </trkpt>
      <trkpt lat="41.9919660" lon="-5.6519660">
        <ele>705.7</ele>
        <time>2019-08-15T12:28:22Z</time>
      </trkpt>
      <trkpt lat="41.9919720" lon="-5.6520400">
        <ele>705.5</ele>
        <time>2019-08-15T12:28:23Z</time>
      </trkpt>
      <trkpt lat="41.9919770" lon="-5.6521140">
        <ele>705.5</ele>
        <time>2019-08-15T12:28:24Z</time>
      </trkpt>
      <trkpt lat="41.9919830" lon="-5.6521860">
        <ele>705.4</ele>
        <time>2019-08-15T12:28:25Z</time>
      </trkpt>
      <trkpt lat="41.9919910" lon="-5.6522570">
        <ele>705.4</ele>
        <time>2019-08-15T12:28:26Z</time>
      </trkpt>
      <trkpt lat="41.9920010" lon="-5.6523290">
        <ele>705.3</ele>
        <time>2019-08-15T12:28:27Z</time>
      </trkpt>
      <trkpt lat="41.9920100" lon="-5.6523980">
        <ele>705.3</ele>
        <time>2019-08-15T12:28:28Z</time>
      </trkpt>
      <trkpt lat="41.9920200" lon="-5.6524650">
        <ele>705.2</ele>
        <time>2019-08-15T12:28:29Z</time>
      </trkpt>
      <trkpt lat="41.9920270" lon="-5.6525350">
        <ele>705.2</ele>
        <time>2019-08-15T12:28:30Z</time>
      </trkpt>
      <trkpt lat="41.9920350" lon="-5.6526040">
        <ele>705.1</ele>
        <time>2019-08-15T12:28:31Z</time>
      </trkpt>
      <trkpt lat="41.9920410" lon="-5.6526720">
        <ele>705.1</ele>
        <time>2019-08-15T12:28:32Z</time>
      </trkpt>
      <trkpt lat="41.9920400" lon="-5.6527430">
        <ele>705.1</ele>
        <time>2019-08-15T12:28:33Z</time>
      </trkpt>
      <trkpt lat="41.9920390" lon="-5.6528140">
        <ele>705.0</ele>
        <time>2019-08-15T12:28:34Z</time>
      </trkpt>
      <trkpt lat="41.9920370" lon="-5.6528850">
        <ele>705.0</ele>
        <time>2019-08-15T12:28:35Z</time>
      </trkpt>
      <trkpt lat="41.9920350" lon="-5.6529590">
        <ele>704.9</ele>
        <time>2019-08-15T12:28:36Z</time>
      </trkpt>
      <trkpt lat="41.9920340" lon="-5.6530330">
        <ele>704.9</ele>
        <time>2019-08-15T12:28:37Z</time>
      </trkpt>
      <trkpt lat="41.9920350" lon="-5.6531070">
        <ele>704.8</ele>
        <time>2019-08-15T12:28:38Z</time>
      </trkpt>
      <trkpt lat="41.9920360" lon="-5.6531810">
        <ele>704.8</ele>
        <time>2019-08-15T12:28:39Z</time>
      </trkpt>
      <trkpt lat="41.9920400" lon="-5.6532540">
        <ele>704.7</ele>
        <time>2019-08-15T12:28:40Z</time>
      </trkpt>
      <trkpt lat="41.9920450" lon="-5.6533270">
        <ele>704.7</ele>
        <time>2019-08-15T12:28:41Z</time>
      </trkpt>
      <trkpt lat="41.9920490" lon="-5.6534040">
        <ele>704.6</ele>
        <time>2019-08-15T12:28:42Z</time>
      </trkpt>
      <trkpt lat="41.9920540" lon="-5.6534800">
        <ele>704.6</ele>
        <time>2019-08-15T12:28:43Z</time>
      </trkpt>
      <trkpt lat="41.9920590" lon="-5.6535570">
        <ele>704.5</ele>
        <time>2019-08-15T12:28:44Z</time>
      </trkpt>
      <trkpt lat="41.9920640" lon="-5.6536330">
        <ele>704.5</ele>
        <time>2019-08-15T12:28:45Z</time>
      </trkpt>
      <trkpt lat="41.9920690" lon="-5.6537110">
        <ele>704.4</ele>
        <time>2019-08-15T12:28:46Z</time>
      </trkpt>
      <trkpt lat="41.9920740" lon="-5.6537890">
        <ele>704.4</ele>
        <time>2019-08-15T12:28:47Z</time>
      </trkpt>
      <trkpt lat="41.9920780" lon="-5.6538670">
        <ele>704.3</ele>
        <time>2019-08-15T12:28:48Z</time>
      </trkpt>
      <trkpt lat="41.9920820" lon="-5.6539480">
        <ele>704.2</ele>
        <time>2019-08-15T12:28:49Z</time>
      </trkpt>
      <trkpt lat="41.9920860" lon="-5.6540260">
        <ele>704.1</ele>
        <time>2019-08-15T12:28:50Z</time>
      </trkpt>
      <trkpt lat="41.9920900" lon="-5.6541040">
        <ele>704.0</ele>
        <time>2019-08-15T12:28:51Z</time>
      </trkpt>
      <trkpt lat="41.9920940" lon="-5.6541810">
        <ele>703.9</ele>
        <time>2019-08-15T12:28:52Z</time>
      </trkpt>
      <trkpt lat="41.9920970" lon="-5.6542580">
        <ele>703.7</ele>
        <time>2019-08-15T12:28:53Z</time>
      </trkpt>
      <trkpt lat="41.9921020" lon="-5.6543350">
        <ele>703.5</ele>
        <time>2019-08-15T12:28:54Z</time>
      </trkpt>
      <trkpt lat="41.9921080" lon="-5.6544090">
        <ele>703.3</ele>
        <time>2019-08-15T12:28:55Z</time>
      </trkpt>
      <trkpt lat="41.9921120" lon="-5.6544850">
        <ele>703.2</ele>
        <time>2019-08-15T12:28:56Z</time>
      </trkpt>
      <trkpt lat="41.9921170" lon="-5.6545610">
        <ele>703.1</ele>
        <time>2019-08-15T12:28:57Z</time>
      </trkpt>
      <trkpt lat="41.9921210" lon="-5.6546370">
        <ele>703.0</ele>
        <time>2019-08-15T12:28:58Z</time>
      </trkpt>
      <trkpt lat="41.9921250" lon="-5.6547110">
        <ele>702.9</ele>
        <time>2019-08-15T12:28:59Z</time>
      </trkpt>
      <trkpt lat="41.9921290" lon="-5.6547830">
        <ele>702.8</ele>
        <time>2019-08-15T12:29:00Z</time>
      </trkpt>
      <trkpt lat="41.9921330" lon="-5.6548520">
        <ele>702.8</ele>
        <time>2019-08-15T12:29:01Z</time>
      </trkpt>
      <trkpt lat="41.9921380" lon="-5.6549210">
        <ele>702.7</ele>
        <time>2019-08-15T12:29:02Z</time>
      </trkpt>
      <trkpt lat="41.9921430" lon="-5.6549900">
        <ele>702.7</ele>
        <time>2019-08-15T12:29:03Z</time>
      </trkpt>
      <trkpt lat="41.9921490" lon="-5.6550610">
        <ele>702.6</ele>
        <time>2019-08-15T12:29:04Z</time>
      </trkpt>
      <trkpt lat="41.9921530" lon="-5.6551330">
        <ele>702.6</ele>
        <time>2019-08-15T12:29:05Z</time>
      </trkpt>
      <trkpt lat="41.9921560" lon="-5.6552070">
        <ele>702.7</ele>
        <time>2019-08-15T12:29:06Z</time>
      </trkpt>
      <trkpt lat="41.9921600" lon="-5.6552800">
        <ele>702.7</ele>
        <time>2019-08-15T12:29:07Z</time>
      </trkpt>
      <trkpt lat="41.9921640" lon="-5.6553500">
        <ele>702.7</ele>
        <time>2019-08-15T12:29:08Z</time>
      </trkpt>
      <trkpt lat="41.9921680" lon="-5.6554190">
        <ele>702.7</ele>
        <time>2019-08-15T12:29:09Z</time>
      </trkpt>
      <trkpt lat="41.9921730" lon="-5.6554870">
        <ele>702.8</ele>
        <time>2019-08-15T12:29:10Z</time>
      </trkpt>
      <trkpt lat="41.9921760" lon="-5.6555540">
        <ele>702.8</ele>
        <time>2019-08-15T12:29:11Z</time>
      </trkpt>
      <trkpt lat="41.9921800" lon="-5.6556190">
        <ele>702.8</ele>
        <time>2019-08-15T12:29:12Z</time>
      </trkpt>
      <trkpt lat="41.9921830" lon="-5.6556830">
        <ele>702.8</ele>
        <time>2019-08-15T12:29:13Z</time>
      </trkpt>
      <trkpt lat="41.9921870" lon="-5.6557490">
        <ele>702.7</ele>
        <time>2019-08-15T12:29:14Z</time>
      </trkpt>
      <trkpt lat="41.9921930" lon="-5.6558150">
        <ele>702.7</ele>
        <time>2019-08-15T12:29:15Z</time>
      </trkpt>
      <trkpt lat="41.9921980" lon="-5.6558860">
        <ele>702.6</ele>
        <time>2019-08-15T12:29:16Z</time>
      </trkpt>
      <trkpt lat="41.9922030" lon="-5.6559590">
        <ele>702.5</ele>
        <time>2019-08-15T12:29:17Z</time>
      </trkpt>
      <trkpt lat="41.9922070" lon="-5.6560310">
        <ele>702.3</ele>
        <time>2019-08-15T12:29:18Z</time>
      </trkpt>
      <trkpt lat="41.9922140" lon="-5.6561030">
        <ele>702.2</ele>
        <time>2019-08-15T12:29:19Z</time>
      </trkpt>
      <trkpt lat="41.9922210" lon="-5.6561770">
        <ele>702.0</ele>
        <time>2019-08-15T12:29:20Z</time>
      </trkpt>
      <trkpt lat="41.9922260" lon="-5.6562500">
        <ele>701.9</ele>
        <time>2019-08-15T12:29:21Z</time>
      </trkpt>
      <trkpt lat="41.9922300" lon="-5.6563220">
        <ele>701.8</ele>
        <time>2019-08-15T12:29:22Z</time>
      </trkpt>
      <trkpt lat="41.9922350" lon="-5.6563940">
        <ele>701.8</ele>
        <time>2019-08-15T12:29:23Z</time>
      </trkpt>
      <trkpt lat="41.9922400" lon="-5.6564650">
        <ele>701.8</ele>
        <time>2019-08-15T12:29:24Z</time>
      </trkpt>
      <trkpt lat="41.9922460" lon="-5.6565370">
        <ele>701.8</ele>
        <time>2019-08-15T12:29:25Z</time>
      </trkpt>
      <trkpt lat="41.9922510" lon="-5.6566090">
        <ele>701.9</ele>
        <time>2019-08-15T12:29:26Z</time>
      </trkpt>
      <trkpt lat="41.9922570" lon="-5.6566830">
        <ele>702.0</ele>
        <time>2019-08-15T12:29:27Z</time>
      </trkpt>
      <trkpt lat="41.9922610" lon="-5.6567580">
        <ele>702.2</ele>
        <time>2019-08-15T12:29:28Z</time>
      </trkpt>
      <trkpt lat="41.9922650" lon="-5.6568330">
        <ele>702.3</ele>
        <time>2019-08-15T12:29:29Z</time>
      </trkpt>
      <trkpt lat="41.9922690" lon="-5.6569090">
        <ele>702.5</ele>
        <time>2019-08-15T12:29:30Z</time>
      </trkpt>
      <trkpt lat="41.9922740" lon="-5.6569870">
        <ele>702.6</ele>
        <time>2019-08-15T12:29:31Z</time>
      </trkpt>
      <trkpt lat="41.9922780" lon="-5.6570620">
        <ele>702.7</ele>
        <time>2019-08-15T12:29:32Z</time>
      </trkpt>
      <trkpt lat="41.9922830" lon="-5.6571360">
        <ele>702.8</ele>
        <time>2019-08-15T12:29:33Z</time>
      </trkpt>
      <trkpt lat="41.9922880" lon="-5.6572070">
        <ele>702.8</ele>
        <time>2019-08-15T12:29:34Z</time>
      </trkpt>
      <trkpt lat="41.9922920" lon="-5.6572780">
        <ele>702.8</ele>
        <time>2019-08-15T12:29:35Z</time>
      </trkpt>
      <trkpt lat="41.9922970" lon="-5.6573470">
        <ele>702.8</ele>
        <time>2019-08-15T12:29:36Z</time>
      </trkpt>
      <trkpt lat="41.9923010" lon="-5.6574150">
        <ele>702.8</ele>
        <time>2019-08-15T12:29:37Z</time>
      </trkpt>
      <trkpt lat="41.9923050" lon="-5.6574810">
        <ele>702.7</ele>
        <time>2019-08-15T12:29:38Z</time>
      </trkpt>
      <trkpt lat="41.9923090" lon="-5.6575470">
        <ele>702.7</ele>
        <time>2019-08-15T12:29:39Z</time>
      </trkpt>
      <trkpt lat="41.9923150" lon="-5.6576140">
        <ele>702.6</ele>
        <time>2019-08-15T12:29:40Z</time>
      </trkpt>
      <trkpt lat="41.9923220" lon="-5.6576820">
        <ele>702.5</ele>
        <time>2019-08-15T12:29:41Z</time>
      </trkpt>
      <trkpt lat="41.9923300" lon="-5.6577510">
        <ele>702.4</ele>
        <time>2019-08-15T12:29:42Z</time>
      </trkpt>
      <trkpt lat="41.9923380" lon="-5.6578220">
        <ele>702.3</ele>
        <time>2019-08-15T12:29:43Z</time>
      </trkpt>
      <trkpt lat="41.9923510" lon="-5.6578910">
        <ele>702.3</ele>
        <time>2019-08-15T12:29:44Z</time>
      </trkpt>
      <trkpt lat="41.9923690" lon="-5.6579600">
        <ele>702.3</ele>
        <time>2019-08-15T12:29:45Z</time>
      </trkpt>
      <trkpt lat="41.9923890" lon="-5.6580290">
        <ele>702.4</ele>
        <time>2019-08-15T12:29:46Z</time>
      </trkpt>
      <trkpt lat="41.9924110" lon="-5.6580980">
        <ele>702.5</ele>
        <time>2019-08-15T12:29:47Z</time>
      </trkpt>
      <trkpt lat="41.9924320" lon="-5.6581660">
        <ele>702.6</ele>
        <time>2019-08-15T12:29:48Z</time>
      </trkpt>
      <trkpt lat="41.9924520" lon="-5.6582330">
        <ele>702.7</ele>
        <time>2019-08-15T12:29:49Z</time>
      </trkpt>
      <trkpt lat="41.9924720" lon="-5.6582970">
        <ele>702.7</ele>
        <time>2019-08-15T12:29:50Z</time>
      </trkpt>
      <trkpt lat="41.9924920" lon="-5.6583590">
        <ele>702.8</ele>
        <time>2019-08-15T12:29:51Z</time>
      </trkpt>
      <trkpt lat="41.9925110" lon="-5.6584200">
        <ele>702.8</ele>
        <time>2019-08-15T12:29:52Z</time>
      </trkpt>
      <trkpt lat="41.9925300" lon="-5.6584820">
        <ele>702.8</ele>
        <time>2019-08-15T12:29:53Z</time>
      </trkpt>
      <trkpt lat="41.9925510" lon="-5.6585440">
        <ele>702.8</ele>
        <time>2019-08-15T12:29:54Z</time>
      </trkpt>
      <trkpt lat="41.9925700" lon="-5.6586090">
        <ele>702.8</ele>
        <time>2019-08-15T12:29:55Z</time>
      </trkpt>
      <trkpt lat="41.9925880" lon="-5.6586750">
        <ele>702.8</ele>
        <time>2019-08-15T12:29:56Z</time>
      </trkpt>
      <trkpt lat="41.9926080" lon="-5.6587420">
        <ele>702.8</ele>
        <time>2019-08-15T12:29:57Z</time>
      </trkpt>
      <trkpt lat="41.9926300" lon="-5.6588080">
        <ele>702.8</ele>
        <time>2019-08-15T12:29:58Z</time>
      </trkpt>
      <trkpt lat="41.9926520" lon="-5.6588750">
        <ele>702.8</ele>
        <time>2019-08-15T12:29:59Z</time>
      </trkpt>
      <trkpt lat="41.9926740" lon="-5.6589420">
        <ele>702.8</ele>
        <time>2019-08-15T12:30:00Z</time>
      </trkpt>
      <trkpt lat="41.9926950" lon="-5.6590090">
        <ele>702.8</ele>
        <time>2019-08-15T12:30:01Z</time>
      </trkpt>
      <trkpt lat="41.9927150" lon="-5.6590730">
        <ele>702.7</ele>
        <time>2019-08-15T12:30:02Z</time>
      </trkpt>
      <trkpt lat="41.9927350" lon="-5.6591370">
        <ele>702.7</ele>
        <time>2019-08-15T12:30:03Z</time>
      </trkpt>
      <trkpt lat="41.9927530" lon="-5.6592010">
        <ele>702.6</ele>
        <time>2019-08-15T12:30:04Z</time>
      </trkpt>
      <trkpt lat="41.9927710" lon="-5.6592630">
        <ele>702.6</ele>
        <time>2019-08-15T12:30:05Z</time>
      </trkpt>
      <trkpt lat="41.9927900" lon="-5.6593260">
        <ele>702.5</ele>
        <time>2019-08-15T12:30:06Z</time>
      </trkpt>
      <trkpt lat="41.9928140" lon="-5.6593870">
        <ele>702.5</ele>
        <time>2019-08-15T12:30:07Z</time>
      </trkpt>
      <trkpt lat="41.9928370" lon="-5.6594520">
        <ele>702.4</ele>
        <time>2019-08-15T12:30:08Z</time>
      </trkpt>
      <trkpt lat="41.9928570" lon="-5.6595210">
        <ele>702.3</ele>
        <time>2019-08-15T12:30:09Z</time>
      </trkpt>
      <trkpt lat="41.9928780" lon="-5.6595920">
        <ele>702.2</ele>
        <time>2019-08-15T12:30:10Z</time>
      </trkpt>
      <trkpt lat="41.9929010" lon="-5.6596630">
        <ele>702.2</ele>
        <time>2019-08-15T12:30:11Z</time>
      </trkpt>
      <trkpt lat="41.9929230" lon="-5.6597350">
        <ele>702.1</ele>
        <time>2019-08-15T12:30:12Z</time>
      </trkpt>
      <trkpt lat="41.9929450" lon="-5.6598070">
        <ele>702.1</ele>
        <time>2019-08-15T12:30:13Z</time>
      </trkpt>
      <trkpt lat="41.9929670" lon="-5.6598810">
        <ele>702.1</ele>
        <time>2019-08-15T12:30:14Z</time>
      </trkpt>
      <trkpt lat="41.9929900" lon="-5.6599540">
        <ele>702.1</ele>
        <time>2019-08-15T12:30:15Z</time>
      </trkpt>
      <trkpt lat="41.9930130" lon="-5.6600260">
        <ele>702.1</ele>
        <time>2019-08-15T12:30:16Z</time>
      </trkpt>
      <trkpt lat="41.9930350" lon="-5.6600970">
        <ele>702.1</ele>
        <time>2019-08-15T12:30:17Z</time>
      </trkpt>
      <trkpt lat="41.9930550" lon="-5.6601670">
        <ele>702.1</ele>
        <time>2019-08-15T12:30:18Z</time>
      </trkpt>
      <trkpt lat="41.9930760" lon="-5.6602370">
        <ele>702.1</ele>
        <time>2019-08-15T12:30:19Z</time>
      </trkpt>
      <trkpt lat="41.9930970" lon="-5.6603030">
        <ele>702.1</ele>
        <time>2019-08-15T12:30:20Z</time>
      </trkpt>
      <trkpt lat="41.9931150" lon="-5.6603700">
        <ele>702.0</ele>
        <time>2019-08-15T12:30:21Z</time>
      </trkpt>
      <trkpt lat="41.9931360" lon="-5.6604380">
        <ele>702.0</ele>
        <time>2019-08-15T12:30:22Z</time>
      </trkpt>
      <trkpt lat="41.9931570" lon="-5.6605050">
        <ele>702.0</ele>
        <time>2019-08-15T12:30:23Z</time>
      </trkpt>
      <trkpt lat="41.9931770" lon="-5.6605730">
        <ele>702.0</ele>
        <time>2019-08-15T12:30:24Z</time>
      </trkpt>
      <trkpt lat="41.9931980" lon="-5.6606400">
        <ele>702.0</ele>
        <time>2019-08-15T12:30:25Z</time>
      </trkpt>
      <trkpt lat="41.9932190" lon="-5.6607080">
        <ele>702.0</ele>
        <time>2019-08-15T12:30:26Z</time>
      </trkpt>
      <trkpt lat="41.9932410" lon="-5.6607770">
        <ele>702.0</ele>
        <time>2019-08-15T12:30:27Z</time>
      </trkpt>
      <trkpt lat="41.9932630" lon="-5.6608450">
        <ele>702.0</ele>
        <time>2019-08-15T12:30:28Z</time>
      </trkpt>
      <trkpt lat="41.9932840" lon="-5.6609150">
        <ele>702.1</ele>
        <time>2019-08-15T12:30:29Z</time>
      </trkpt>
      <trkpt lat="41.9933050" lon="-5.6609850">
        <ele>702.1</ele>
        <time>2019-08-15T12:30:30Z</time>
      </trkpt>
      <trkpt lat="41.9933280" lon="-5.6610560">
        <ele>702.1</ele>
        <time>2019-08-15T12:30:31Z</time>
      </trkpt>
      <trkpt lat="41.9933500" lon="-5.6611280">
        <ele>702.1</ele>
        <time>2019-08-15T12:30:32Z</time>
      </trkpt>
      <trkpt lat="41.9933710" lon="-5.6612010">
        <ele>702.2</ele>
        <time>2019-08-15T12:30:33Z</time>
      </trkpt>
      <trkpt lat="41.9933930" lon="-5.6612730">
        <ele>702.2</ele>
        <time>2019-08-15T12:30:34Z</time>
      </trkpt>
      <trkpt lat="41.9934130" lon="-5.6613430">
        <ele>702.2</ele>
        <time>2019-08-15T12:30:35Z</time>
      </trkpt>
      <trkpt lat="41.9934320" lon="-5.6614090">
        <ele>702.3</ele>
        <time>2019-08-15T12:30:36Z</time>
      </trkpt>
      <trkpt lat="41.9934530" lon="-5.6614760">
        <ele>702.4</ele>
        <time>2019-08-15T12:30:37Z</time>
      </trkpt>
      <trkpt lat="41.9934760" lon="-5.6615460">
        <ele>702.4</ele>
        <time>2019-08-15T12:30:38Z</time>
      </trkpt>
      <trkpt lat="41.9934970" lon="-5.6616180">
        <ele>702.5</ele>
        <time>2019-08-15T12:30:39Z</time>
      </trkpt>
      <trkpt lat="41.9935200" lon="-5.6616900">
        <ele>702.5</ele>
        <time>2019-08-15T12:30:40Z</time>
      </trkpt>
      <trkpt lat="41.9935440" lon="-5.6617620">
        <ele>702.6</ele>
        <time>2019-08-15T12:30:41Z</time>
      </trkpt>
      <trkpt lat="41.9935670" lon="-5.6618350">
        <ele>702.6</ele>
        <time>2019-08-15T12:30:42Z</time>
      </trkpt>
      <trkpt lat="41.9935900" lon="-5.6619090">
        <ele>702.6</ele>
        <time>2019-08-15T12:30:43Z</time>
      </trkpt>
      <trkpt lat="41.9936130" lon="-5.6619820">
        <ele>702.6</ele>
        <time>2019-08-15T12:30:44Z</time>
      </trkpt>
      <trkpt lat="41.9936340" lon="-5.6620570">
        <ele>702.6</ele>
        <time>2019-08-15T12:30:45Z</time>
      </trkpt>
      <trkpt lat="41.9936550" lon="-5.6621300">
        <ele>702.5</ele>
        <time>2019-08-15T12:30:46Z</time>
      </trkpt>
      <trkpt lat="41.9936760" lon="-5.6622010">
        <ele>702.4</ele>
        <time>2019-08-15T12:30:47Z</time>
      </trkpt>
      <trkpt lat="41.9936970" lon="-5.6622670">
        <ele>702.3</ele>
        <time>2019-08-15T12:30:48Z</time>
      </trkpt>
      <trkpt lat="41.9937170" lon="-5.6623280">
        <ele>702.2</ele>
        <time>2019-08-15T12:30:49Z</time>
      </trkpt>
      <trkpt lat="41.9937400" lon="-5.6623890">
        <ele>702.1</ele>
        <time>2019-08-15T12:30:50Z</time>
      </trkpt>
      <trkpt lat="41.9937660" lon="-5.6624470">
        <ele>702.0</ele>
        <time>2019-08-15T12:30:51Z</time>
      </trkpt>
      <trkpt lat="41.9937960" lon="-5.6625060">
        <ele>701.8</ele>
        <time>2019-08-15T12:30:52Z</time>
      </trkpt>
      <trkpt lat="41.9938330" lon="-5.6625610">
        <ele>701.7</ele>
        <time>2019-08-15T12:30:53Z</time>
      </trkpt>
      <trkpt lat="41.9938740" lon="-5.6626140">
        <ele>701.6</ele>
        <time>2019-08-15T12:30:54Z</time>
      </trkpt>
      <trkpt lat="41.9939160" lon="-5.6626680">
        <ele>701.5</ele>
        <time>2019-08-15T12:30:55Z</time>
      </trkpt>
      <trkpt lat="41.9939590" lon="-5.6627240">
        <ele>701.3</ele>
        <time>2019-08-15T12:30:56Z</time>
      </trkpt>
      <trkpt lat="41.9940020" lon="-5.6627800">
        <ele>701.2</ele>
        <time>2019-08-15T12:30:57Z</time>
      </trkpt>
      <trkpt lat="41.9940450" lon="-5.6628340">
        <ele>701.1</ele>
        <time>2019-08-15T12:30:58Z</time>
      </trkpt>
      <trkpt lat="41.9940890" lon="-5.6628890">
        <ele>701.2</ele>
        <time>2019-08-15T12:30:59Z</time>
      </trkpt>
      <trkpt lat="41.9941330" lon="-5.6629430">
        <ele>701.5</ele>
        <time>2019-08-15T12:31:00Z</time>
      </trkpt>
      <trkpt lat="41.9941770" lon="-5.6629980">
        <ele>701.8</ele>
        <time>2019-08-15T12:31:01Z</time>
      </trkpt>
      <trkpt lat="41.9942200" lon="-5.6630540">
        <ele>702.0</ele>
        <time>2019-08-15T12:31:02Z</time>
      </trkpt>
      <trkpt lat="41.9942610" lon="-5.6631100">
        <ele>702.2</ele>
        <time>2019-08-15T12:31:03Z</time>
      </trkpt>
      <trkpt lat="41.9943020" lon="-5.6631650">
        <ele>702.5</ele>
        <time>2019-08-15T12:31:04Z</time>
      </trkpt>
      <trkpt lat="41.9943420" lon="-5.6632160">
        <ele>702.7</ele>
        <time>2019-08-15T12:31:05Z</time>
      </trkpt>
      <trkpt lat="41.9943820" lon="-5.6632630">
        <ele>702.9</ele>
        <time>2019-08-15T12:31:06Z</time>
      </trkpt>
      <trkpt lat="41.9944230" lon="-5.6633070">
        <ele>703.1</ele>
        <time>2019-08-15T12:31:07Z</time>
      </trkpt>
      <trkpt lat="41.9944650" lon="-5.6633510">
        <ele>703.2</ele>
        <time>2019-08-15T12:31:08Z</time>
      </trkpt>
      <trkpt lat="41.9945060" lon="-5.6633980">
        <ele>703.5</ele>
        <time>2019-08-15T12:31:09Z</time>
      </trkpt>
      <trkpt lat="41.9945460" lon="-5.6634480">
        <ele>703.5</ele>
        <time>2019-08-15T12:31:10Z</time>
      </trkpt>
      <trkpt lat="41.9945850" lon="-5.6634970">
        <ele>703.5</ele>
        <time>2019-08-15T12:31:11Z</time>
      </trkpt>
      <trkpt lat="41.9946250" lon="-5.6635450">
        <ele>703.4</ele>
        <time>2019-08-15T12:31:12Z</time>
      </trkpt>
      <trkpt lat="41.9946640" lon="-5.6635940">
        <ele>703.4</ele>
        <time>2019-08-15T12:31:13Z</time>
      </trkpt>
      <trkpt lat="41.9947040" lon="-5.6636440">
        <ele>703.3</ele>
        <time>2019-08-15T12:31:14Z</time>
      </trkpt>
      <trkpt lat="41.9947430" lon="-5.6636920">
        <ele>703.3</ele>
        <time>2019-08-15T12:31:15Z</time>
      </trkpt>
      <trkpt lat="41.9947790" lon="-5.6637380">
        <ele>703.3</ele>
        <time>2019-08-15T12:31:16Z</time>
      </trkpt>
      <trkpt lat="41.9948140" lon="-5.6637840">
        <ele>703.3</ele>
        <time>2019-08-15T12:31:17Z</time>
      </trkpt>
      <trkpt lat="41.9948490" lon="-5.6638280">
        <ele>703.3</ele>
        <time>2019-08-15T12:31:18Z</time>
      </trkpt>
      <trkpt lat="41.9948840" lon="-5.6638700">
        <ele>703.3</ele>
        <time>2019-08-15T12:31:19Z</time>
      </trkpt>
      <trkpt lat="41.9949170" lon="-5.6639110">
        <ele>703.2</ele>
        <time>2019-08-15T12:31:20Z</time>
      </trkpt>
      <trkpt lat="41.9949500" lon="-5.6639480">
        <ele>703.2</ele>
        <time>2019-08-15T12:31:21Z</time>
      </trkpt>
      <trkpt lat="41.9949810" lon="-5.6639860">
        <ele>703.2</ele>
        <time>2019-08-15T12:31:22Z</time>
      </trkpt>
      <trkpt lat="41.9950110" lon="-5.6640220">
        <ele>703.2</ele>
        <time>2019-08-15T12:31:23Z</time>
      </trkpt>
      <trkpt lat="41.9950400" lon="-5.6640550">
        <ele>703.2</ele>
        <time>2019-08-15T12:31:24Z</time>
      </trkpt>
      <trkpt lat="41.9950700" lon="-5.6640860">
        <ele>703.2</ele>
        <time>2019-08-15T12:31:25Z</time>
      </trkpt>
      <trkpt lat="41.9950970" lon="-5.6641160">
        <ele>703.2</ele>
        <time>2019-08-15T12:31:26Z</time>
      </trkpt>
      <trkpt lat="41.9951220" lon="-5.6641480">
        <ele>703.2</ele>
        <time>2019-08-15T12:31:27Z</time>
      </trkpt>
      <trkpt lat="41.9951490" lon="-5.6641830">
        <ele>703.2</ele>
        <time>2019-08-15T12:31:28Z</time>
      </trkpt>
      <trkpt lat="41.9951760" lon="-5.6642200">
        <ele>703.2</ele>
        <time>2019-08-15T12:31:29Z</time>
      </trkpt>
      <trkpt lat="41.9952030" lon="-5.6642640">
        <ele>703.2</ele>
        <time>2019-08-15T12:31:30Z</time>
      </trkpt>
      <trkpt lat="41.9952290" lon="-5.6643120">
        <ele>703.2</ele>
        <time>2019-08-15T12:31:31Z</time>
      </trkpt>
      <trkpt lat="41.9952590" lon="-5.6643610">
        <ele>703.2</ele>
        <time>2019-08-15T12:31:32Z</time>
      </trkpt>
      <trkpt lat="41.9952940" lon="-5.6644100">
        <ele>703.2</ele>
        <time>2019-08-15T12:31:33Z</time>
      </trkpt>
      <trkpt lat="41.9953270" lon="-5.6644600">
        <ele>703.2</ele>
        <time>2019-08-15T12:31:34Z</time>
      </trkpt>
      <trkpt lat="41.9953610" lon="-5.6645120">
        <ele>703.2</ele>
        <time>2019-08-15T12:31:35Z</time>
      </trkpt>
      <trkpt lat="41.9953980" lon="-5.6645630">
        <ele>703.2</ele>
        <time>2019-08-15T12:31:36Z</time>
      </trkpt>
      <trkpt lat="41.9954360" lon="-5.6646120">
        <ele>703.2</ele>
        <time>2019-08-15T12:31:37Z</time>
      </trkpt>
      <trkpt lat="41.9954770" lon="-5.6646610">
        <ele>703.2</ele>
        <time>2019-08-15T12:31:38Z</time>
      </trkpt>
      <trkpt lat="41.9955160" lon="-5.6647100">
        <ele>703.2</ele>
        <time>2019-08-15T12:31:39Z</time>
      </trkpt>
      <trkpt lat="41.9955540" lon="-5.6647600">
        <ele>703.2</ele>
        <time>2019-08-15T12:31:40Z</time>
      </trkpt>
      <trkpt lat="41.9955910" lon="-5.6648070">
        <ele>703.2</ele>
        <time>2019-08-15T12:31:41Z</time>
      </trkpt>
      <trkpt lat="41.9956280" lon="-5.6648500">
        <ele>703.2</ele>
        <time>2019-08-15T12:31:42Z</time>
      </trkpt>
      <trkpt lat="41.9956660" lon="-5.6648900">
        <ele>703.1</ele>
        <time>2019-08-15T12:31:43Z</time>
      </trkpt>
      <trkpt lat="41.9957020" lon="-5.6649290">
        <ele>703.0</ele>
        <time>2019-08-15T12:31:44Z</time>
      </trkpt>
      <trkpt lat="41.9957350" lon="-5.6649680">
        <ele>702.9</ele>
        <time>2019-08-15T12:31:45Z</time>
      </trkpt>
      <trkpt lat="41.9957660" lon="-5.6650090">
        <ele>702.8</ele>
        <time>2019-08-15T12:31:46Z</time>
      </trkpt>
      <trkpt lat="41.9957960" lon="-5.6650500">
        <ele>702.7</ele>
        <time>2019-08-15T12:31:47Z</time>
      </trkpt>
      <trkpt lat="41.9958310" lon="-5.6650860">
        <ele>702.6</ele>
        <time>2019-08-15T12:31:48Z</time>
      </trkpt>
      <trkpt lat="41.9958680" lon="-5.6651220">
        <ele>702.5</ele>
        <time>2019-08-15T12:31:49Z</time>
      </trkpt>
      <trkpt lat="41.9959060" lon="-5.6651610">
        <ele>702.4</ele>
        <time>2019-08-15T12:31:50Z</time>
      </trkpt>
      <trkpt lat="41.9959430" lon="-5.6652020">
        <ele>702.4</ele>
        <time>2019-08-15T12:31:51Z</time>
      </trkpt>
      <trkpt lat="41.9959810" lon="-5.6652460">
        <ele>702.3</ele>
        <time>2019-08-15T12:31:52Z</time>
      </trkpt>
      <trkpt lat="41.9960210" lon="-5.6652870">
        <ele>702.3</ele>
        <time>2019-08-15T12:31:53Z</time>
      </trkpt>
      <trkpt lat="41.9960610" lon="-5.6653270">
        <ele>702.3</ele>
        <time>2019-08-15T12:31:54Z</time>
      </trkpt>
      <trkpt lat="41.9961030" lon="-5.6653640">
        <ele>702.3</ele>
        <time>2019-08-15T12:31:55Z</time>
      </trkpt>
      <trkpt lat="41.9961420" lon="-5.6654000">
        <ele>702.3</ele>
        <time>2019-08-15T12:31:56Z</time>
      </trkpt>
      <trkpt lat="41.9961800" lon="-5.6654360">
        <ele>702.3</ele>
        <time>2019-08-15T12:31:57Z</time>
      </trkpt>
      <trkpt lat="41.9962170" lon="-5.6654710">
        <ele>702.3</ele>
        <time>2019-08-15T12:31:58Z</time>
      </trkpt>
      <trkpt lat="41.9962530" lon="-5.6655050">
        <ele>702.3</ele>
        <time>2019-08-15T12:31:59Z</time>
      </trkpt>
      <trkpt lat="41.9962890" lon="-5.6655380">
        <ele>702.3</ele>
        <time>2019-08-15T12:32:00Z</time>
      </trkpt>
      <trkpt lat="41.9963240" lon="-5.6655730">
        <ele>702.3</ele>
        <time>2019-08-15T12:32:01Z</time>
      </trkpt>
      <trkpt lat="41.9963600" lon="-5.6656090">
        <ele>702.3</ele>
        <time>2019-08-15T12:32:02Z</time>
      </trkpt>
      <trkpt lat="41.9963980" lon="-5.6656450">
        <ele>702.3</ele>
        <time>2019-08-15T12:32:03Z</time>
      </trkpt>
      <trkpt lat="41.9964350" lon="-5.6656790">
        <ele>702.3</ele>
        <time>2019-08-15T12:32:04Z</time>
      </trkpt>
      <trkpt lat="41.9964730" lon="-5.6657160">
        <ele>702.3</ele>
        <time>2019-08-15T12:32:05Z</time>
      </trkpt>
      <trkpt lat="41.9965100" lon="-5.6657530">
        <ele>702.3</ele>
        <time>2019-08-15T12:32:06Z</time>
      </trkpt>
      <trkpt lat="41.9965470" lon="-5.6657920">
        <ele>702.3</ele>
        <time>2019-08-15T12:32:07Z</time>
      </trkpt>
      <trkpt lat="41.9965870" lon="-5.6658300">
        <ele>702.3</ele>
        <time>2019-08-15T12:32:08Z</time>
      </trkpt>
      <trkpt lat="41.9966260" lon="-5.6658700">
        <ele>702.3</ele>
        <time>2019-08-15T12:32:09Z</time>
      </trkpt>
      <trkpt lat="41.9966660" lon="-5.6659100">
        <ele>702.3</ele>
        <time>2019-08-15T12:32:10Z</time>
      </trkpt>
      <trkpt lat="41.9967080" lon="-5.6659490">
        <ele>702.3</ele>
        <time>2019-08-15T12:32:11Z</time>
      </trkpt>
      <trkpt lat="41.9967500" lon="-5.6659880">
        <ele>702.4</ele>
        <time>2019-08-15T12:32:12Z</time>
      </trkpt>
      <trkpt lat="41.9967910" lon="-5.6660270">
        <ele>702.4</ele>
        <time>2019-08-15T12:32:13Z</time>
      </trkpt>
      <trkpt lat="41.9968310" lon="-5.6660640">
        <ele>702.4</ele>
        <time>2019-08-15T12:32:14Z</time>
      </trkpt>
      <trkpt lat="41.9968690" lon="-5.6660990">
        <ele>702.4</ele>
        <time>2019-08-15T12:32:15Z</time>
      </trkpt>
      <trkpt lat="41.9969060" lon="-5.6661340">
        <ele>702.4</ele>
        <time>2019-08-15T12:32:16Z</time>
      </trkpt>
      <trkpt lat="41.9969420" lon="-5.6661680">
        <ele>702.4</ele>
        <time>2019-08-15T12:32:17Z</time>
      </trkpt>
      <trkpt lat="41.9969790" lon="-5.6662040">
        <ele>702.5</ele>
        <time>2019-08-15T12:32:18Z</time>
      </trkpt>
      <trkpt lat="41.9970160" lon="-5.6662420">
        <ele>702.5</ele>
        <time>2019-08-15T12:32:19Z</time>
      </trkpt>
      <trkpt lat="41.9970540" lon="-5.6662810">
        <ele>702.6</ele>
        <time>2019-08-15T12:32:20Z</time>
      </trkpt>
      <trkpt lat="41.9970940" lon="-5.6663180">
        <ele>702.6</ele>
        <time>2019-08-15T12:32:21Z</time>
      </trkpt>
      <trkpt lat="41.9971350" lon="-5.6663570">
        <ele>702.7</ele>
        <time>2019-08-15T12:32:22Z</time>
      </trkpt>
      <trkpt lat="41.9971770" lon="-5.6663940">
        <ele>702.7</ele>
        <time>2019-08-15T12:32:23Z</time>
      </trkpt>
      <trkpt lat="41.9972180" lon="-5.6664330">
        <ele>702.8</ele>
        <time>2019-08-15T12:32:24Z</time>
      </trkpt>
      <trkpt lat="41.9972600" lon="-5.6664740">
        <ele>702.9</ele>
        <time>2019-08-15T12:32:25Z</time>
      </trkpt>
      <trkpt lat="41.9973000" lon="-5.6665150">
        <ele>702.9</ele>
        <time>2019-08-15T12:32:26Z</time>
      </trkpt>
      <trkpt lat="41.9973390" lon="-5.6665570">
        <ele>702.9</ele>
        <time>2019-08-15T12:32:27Z</time>
      </trkpt>
      <trkpt lat="41.9973760" lon="-5.6665980">
        <ele>702.9</ele>
        <time>2019-08-15T12:32:28Z</time>
      </trkpt>
      <trkpt lat="41.9974100" lon="-5.6666400">
        <ele>702.9</ele>
        <time>2019-08-15T12:32:29Z</time>
      </trkpt>
      <trkpt lat="41.9974440" lon="-5.6666830">
        <ele>703.0</ele>
        <time>2019-08-15T12:32:30Z</time>
      </trkpt>
      <trkpt lat="41.9974790" lon="-5.6667270">
        <ele>703.0</ele>
        <time>2019-08-15T12:32:31Z</time>
      </trkpt>
      <trkpt lat="41.9975150" lon="-5.6667710">
        <ele>703.1</ele>
        <time>2019-08-15T12:32:32Z</time>
      </trkpt>
      <trkpt lat="41.9975500" lon="-5.6668180">
        <ele>703.1</ele>
        <time>2019-08-15T12:32:33Z</time>
      </trkpt>
      <trkpt lat="41.9975860" lon="-5.6668640">
        <ele>703.3</ele>
        <time>2019-08-15T12:32:34Z</time>
      </trkpt>
      <trkpt lat="41.9976220" lon="-5.6669080">
        <ele>703.4</ele>
        <time>2019-08-15T12:32:35Z</time>
      </trkpt>
      <trkpt lat="41.9976610" lon="-5.6669520">
        <ele>703.5</ele>
        <time>2019-08-15T12:32:36Z</time>
      </trkpt>
      <trkpt lat="41.9977000" lon="-5.6669960">
        <ele>703.6</ele>
        <time>2019-08-15T12:32:37Z</time>
      </trkpt>
      <trkpt lat="41.9977380" lon="-5.6670380">
        <ele>703.6</ele>
        <time>2019-08-15T12:32:38Z</time>
      </trkpt>
      <trkpt lat="41.9977750" lon="-5.6670790">
        <ele>703.6</ele>
        <time>2019-08-15T12:32:39Z</time>
      </trkpt>
      <trkpt lat="41.9978110" lon="-5.6671190">
        <ele>703.6</ele>
        <time>2019-08-15T12:32:40Z</time>
      </trkpt>
      <trkpt lat="41.9978490" lon="-5.6671600">
        <ele>703.4</ele>
        <time>2019-08-15T12:32:41Z</time>
      </trkpt>
      <trkpt lat="41.9978870" lon="-5.6672000">
        <ele>703.3</ele>
        <time>2019-08-15T12:32:42Z</time>
      </trkpt>
      <trkpt lat="41.9979260" lon="-5.6672400">
        <ele>703.0</ele>
        <time>2019-08-15T12:32:43Z</time>
      </trkpt>
      <trkpt lat="41.9979660" lon="-5.6672800">
        <ele>702.9</ele>
        <time>2019-08-15T12:32:44Z</time>
      </trkpt>
      <trkpt lat="41.9980050" lon="-5.6673230">
        <ele>702.9</ele>
        <time>2019-08-15T12:32:45Z</time>
      </trkpt>
      <trkpt lat="41.9980460" lon="-5.6673670">
        <ele>702.9</ele>
        <time>2019-08-15T12:32:46Z</time>
      </trkpt>
      <trkpt lat="41.9980880" lon="-5.6674090">
        <ele>702.8</ele>
        <time>2019-08-15T12:32:47Z</time>
      </trkpt>
      <trkpt lat="41.9981300" lon="-5.6674520">
        <ele>702.7</ele>
        <time>2019-08-15T12:32:48Z</time>
      </trkpt>
      <trkpt lat="41.9981730" lon="-5.6674950">
        <ele>702.7</ele>
        <time>2019-08-15T12:32:49Z</time>
      </trkpt>
      <trkpt lat="41.9982140" lon="-5.6675380">
        <ele>702.7</ele>
        <time>2019-08-15T12:32:50Z</time>
      </trkpt>
      <trkpt lat="41.9982550" lon="-5.6675810">
        <ele>702.6</ele>
        <time>2019-08-15T12:32:51Z</time>
      </trkpt>
      <trkpt lat="41.9982970" lon="-5.6676260">
        <ele>702.6</ele>
        <time>2019-08-15T12:32:52Z</time>
      </trkpt>
      <trkpt lat="41.9983380" lon="-5.6676740">
        <ele>702.6</ele>
        <time>2019-08-15T12:32:53Z</time>
      </trkpt>
      <trkpt lat="41.9983790" lon="-5.6677220">
        <ele>702.9</ele>
        <time>2019-08-15T12:32:54Z</time>
      </trkpt>
      <trkpt lat="41.9984220" lon="-5.6677670">
        <ele>703.2</ele>
        <time>2019-08-15T12:32:55Z</time>
      </trkpt>
      <trkpt lat="41.9984620" lon="-5.6678090">
        <ele>703.3</ele>
        <time>2019-08-15T12:32:56Z</time>
      </trkpt>
      <trkpt lat="41.9985010" lon="-5.6678490">
        <ele>703.5</ele>
        <time>2019-08-15T12:32:57Z</time>
      </trkpt>
      <trkpt lat="41.9985380" lon="-5.6678880">
        <ele>703.5</ele>
        <time>2019-08-15T12:32:58Z</time>
      </trkpt>
      <trkpt lat="41.9985730" lon="-5.6679290">
        <ele>703.6</ele>
        <time>2019-08-15T12:32:59Z</time>
      </trkpt>
      <trkpt lat="41.9986070" lon="-5.6679690">
        <ele>703.6</ele>
        <time>2019-08-15T12:33:00Z</time>
      </trkpt>
      <trkpt lat="41.9986410" lon="-5.6680120">
        <ele>703.6</ele>
        <time>2019-08-15T12:33:01Z</time>
      </trkpt>
      <trkpt lat="41.9986760" lon="-5.6680580">
        <ele>703.7</ele>
        <time>2019-08-15T12:33:02Z</time>
      </trkpt>
      <trkpt lat="41.9987120" lon="-5.6681050">
        <ele>703.7</ele>
        <time>2019-08-15T12:33:03Z</time>
      </trkpt>
      <trkpt lat="41.9987480" lon="-5.6681530">
        <ele>703.7</ele>
        <time>2019-08-15T12:33:04Z</time>
      </trkpt>
      <trkpt lat="41.9987850" lon="-5.6682020">
        <ele>703.7</ele>
        <time>2019-08-15T12:33:05Z</time>
      </trkpt>
      <trkpt lat="41.9988210" lon="-5.6682520">
        <ele>703.7</ele>
        <time>2019-08-15T12:33:06Z</time>
      </trkpt>
      <trkpt lat="41.9988580" lon="-5.6683030">
        <ele>703.8</ele>
        <time>2019-08-15T12:33:07Z</time>
      </trkpt>
      <trkpt lat="41.9988950" lon="-5.6683520">
        <ele>703.8</ele>
        <time>2019-08-15T12:33:08Z</time>
      </trkpt>
      <trkpt lat="41.9989310" lon="-5.6684010">
        <ele>703.8</ele>
        <time>2019-08-15T12:33:09Z</time>
      </trkpt>
      <trkpt lat="41.9989660" lon="-5.6684470">
        <ele>703.8</ele>
        <time>2019-08-15T12:33:10Z</time>
      </trkpt>
      <trkpt lat="41.9989990" lon="-5.6684920">
        <ele>703.8</ele>
        <time>2019-08-15T12:33:11Z</time>
      </trkpt>
      <trkpt lat="41.9990320" lon="-5.6685350">
        <ele>703.9</ele>
        <time>2019-08-15T12:33:12Z</time>
      </trkpt>
      <trkpt lat="41.9990640" lon="-5.6685770">
        <ele>703.9</ele>
        <time>2019-08-15T12:33:13Z</time>
      </trkpt>
      <trkpt lat="41.9990970" lon="-5.6686170">
        <ele>703.9</ele>
        <time>2019-08-15T12:33:14Z</time>
      </trkpt>
      <trkpt lat="41.9991310" lon="-5.6686560">
        <ele>703.9</ele>
        <time>2019-08-15T12:33:15Z</time>
      </trkpt>
      <trkpt lat="41.9991670" lon="-5.6686970">
        <ele>703.9</ele>
        <time>2019-08-15T12:33:16Z</time>
      </trkpt>
      <trkpt lat="41.9992020" lon="-5.6687420">
        <ele>703.9</ele>
        <time>2019-08-15T12:33:17Z</time>
      </trkpt>
      <trkpt lat="41.9992370" lon="-5.6687880">
        <ele>704.0</ele>
        <time>2019-08-15T12:33:18Z</time>
      </trkpt>
      <trkpt lat="41.9992710" lon="-5.6688350">
        <ele>704.0</ele>
        <time>2019-08-15T12:33:19Z</time>
      </trkpt>
      <trkpt lat="41.9993050" lon="-5.6688820">
        <ele>704.0</ele>
        <time>2019-08-15T12:33:20Z</time>
      </trkpt>
      <trkpt lat="41.9993440" lon="-5.6689290">
        <ele>704.0</ele>
        <time>2019-08-15T12:33:21Z</time>
      </trkpt>
      <trkpt lat="41.9993840" lon="-5.6689750">
        <ele>704.1</ele>
        <time>2019-08-15T12:33:22Z</time>
      </trkpt>
      <trkpt lat="41.9994230" lon="-5.6690210">
        <ele>704.2</ele>
        <time>2019-08-15T12:33:23Z</time>
      </trkpt>
      <trkpt lat="41.9994610" lon="-5.6690680">
        <ele>704.3</ele>
        <time>2019-08-15T12:33:24Z</time>
      </trkpt>
      <trkpt lat="41.9995000" lon="-5.6691160">
        <ele>704.5</ele>
        <time>2019-08-15T12:33:25Z</time>
      </trkpt>
      <trkpt lat="41.9995380" lon="-5.6691660">
        <ele>704.7</ele>
        <time>2019-08-15T12:33:26Z</time>
      </trkpt>
      <trkpt lat="41.9995750" lon="-5.6692160">
        <ele>704.9</ele>
        <time>2019-08-15T12:33:27Z</time>
      </trkpt>
      <trkpt lat="41.9996130" lon="-5.6692650">
        <ele>705.0</ele>
        <time>2019-08-15T12:33:28Z</time>
      </trkpt>
      <trkpt lat="41.9996500" lon="-5.6693110">
        <ele>705.2</ele>
        <time>2019-08-15T12:33:29Z</time>
      </trkpt>
      <trkpt lat="41.9996850" lon="-5.6693570">
        <ele>705.2</ele>
        <time>2019-08-15T12:33:30Z</time>
      </trkpt>
      <trkpt lat="41.9997180" lon="-5.6694010">
        <ele>705.3</ele>
        <time>2019-08-15T12:33:31Z</time>
      </trkpt>
      <trkpt lat="41.9997520" lon="-5.6694460">
        <ele>705.3</ele>
        <time>2019-08-15T12:33:32Z</time>
      </trkpt>
      <trkpt lat="41.9997840" lon="-5.6694860">
        <ele>705.4</ele>
        <time>2019-08-15T12:33:33Z</time>
      </trkpt>
      <trkpt lat="41.9998160" lon="-5.6695270">
        <ele>705.4</ele>
        <time>2019-08-15T12:33:34Z</time>
      </trkpt>
      <trkpt lat="41.9998480" lon="-5.6695640">
        <ele>705.4</ele>
        <time>2019-08-15T12:33:35Z</time>
      </trkpt>
      <trkpt lat="41.9998790" lon="-5.6696020">
        <ele>705.4</ele>
        <time>2019-08-15T12:33:36Z</time>
      </trkpt>
      <trkpt lat="41.9999070" lon="-5.6696390">
        <ele>705.4</ele>
        <time>2019-08-15T12:33:37Z</time>
      </trkpt>
      <trkpt lat="41.9999390" lon="-5.6696750">
        <ele>705.4</ele>
        <time>2019-08-15T12:33:38Z</time>
      </trkpt>
      <trkpt lat="41.9999740" lon="-5.6697130">
        <ele>705.5</ele>
        <time>2019-08-15T12:33:39Z</time>
      </trkpt>
      <trkpt lat="42.0000110" lon="-5.6697550">
        <ele>705.5</ele>
        <time>2019-08-15T12:33:40Z</time>
      </trkpt>
      <trkpt lat="42.0000480" lon="-5.6697980">
        <ele>705.5</ele>
        <time>2019-08-15T12:33:41Z</time>
      </trkpt>
      <trkpt lat="42.0000870" lon="-5.6698430">
        <ele>705.5</ele>
        <time>2019-08-15T12:33:42Z</time>
      </trkpt>
      <trkpt lat="42.0001260" lon="-5.6698880">
        <ele>705.5</ele>
        <time>2019-08-15T12:33:43Z</time>
      </trkpt>
      <trkpt lat="42.0001640" lon="-5.6699340">
        <ele>705.6</ele>
        <time>2019-08-15T12:33:44Z</time>
      </trkpt>
      <trkpt lat="42.0002020" lon="-5.6699750">
        <ele>705.6</ele>
        <time>2019-08-15T12:33:45Z</time>
      </trkpt>
      <trkpt lat="42.0002410" lon="-5.6700110">
        <ele>705.6</ele>
        <time>2019-08-15T12:33:46Z</time>
      </trkpt>
      <trkpt lat="42.0002790" lon="-5.6700480">
        <ele>705.6</ele>
        <time>2019-08-15T12:33:47Z</time>
      </trkpt>
      <trkpt lat="42.0003160" lon="-5.6700860">
        <ele>705.7</ele>
        <time>2019-08-15T12:33:48Z</time>
      </trkpt>
      <trkpt lat="42.0003510" lon="-5.6701260">
        <ele>705.8</ele>
        <time>2019-08-15T12:33:49Z</time>
      </trkpt>
      <trkpt lat="42.0003860" lon="-5.6701650">
        <ele>705.9</ele>
        <time>2019-08-15T12:33:50Z</time>
      </trkpt>
      <trkpt lat="42.0004200" lon="-5.6702010">
        <ele>706.0</ele>
        <time>2019-08-15T12:33:51Z</time>
      </trkpt>
      <trkpt lat="42.0004540" lon="-5.6702340">
        <ele>706.2</ele>
        <time>2019-08-15T12:33:52Z</time>
      </trkpt>
      <trkpt lat="42.0004910" lon="-5.6702640">
        <ele>706.4</ele>
        <time>2019-08-15T12:33:53Z</time>
      </trkpt>
      <trkpt lat="42.0005300" lon="-5.6702890">
        <ele>707.0</ele>
        <time>2019-08-15T12:33:54Z</time>
      </trkpt>
      <trkpt lat="42.0005730" lon="-5.6703060">
        <ele>707.0</ele>
        <time>2019-08-15T12:33:55Z</time>
      </trkpt>
      <trkpt lat="42.0006190" lon="-5.6703170">
        <ele>707.1</ele>
        <time>2019-08-15T12:33:56Z</time>
      </trkpt>
      <trkpt lat="42.0006660" lon="-5.6703260">
        <ele>707.2</ele>
        <time>2019-08-15T12:33:57Z</time>
      </trkpt>
      <trkpt lat="42.0007110" lon="-5.6703410">
        <ele>707.3</ele>
        <time>2019-08-15T12:33:58Z</time>
      </trkpt>
      <trkpt lat="42.0007520" lon="-5.6703660">
        <ele>707.5</ele>
        <time>2019-08-15T12:33:59Z</time>
      </trkpt>
      <trkpt lat="42.0007840" lon="-5.6704020">
        <ele>707.6</ele>
        <time>2019-08-15T12:34:00Z</time>
      </trkpt>
      <trkpt lat="42.0008070" lon="-5.6704440">
        <ele>707.6</ele>
        <time>2019-08-15T12:34:01Z</time>
      </trkpt>
      <trkpt lat="42.0008200" lon="-5.6704930">
        <ele>707.5</ele>
        <time>2019-08-15T12:34:02Z</time>
      </trkpt>
      <trkpt lat="42.0008230" lon="-5.6705410">
        <ele>707.4</ele>
        <time>2019-08-15T12:34:03Z</time>
      </trkpt>
      <trkpt lat="42.0008190" lon="-5.6705870">
        <ele>707.3</ele>
        <time>2019-08-15T12:34:04Z</time>
      </trkpt>
      <trkpt lat="42.0008120" lon="-5.6706310">
        <ele>707.2</ele>
        <time>2019-08-15T12:34:05Z</time>
      </trkpt>
      <trkpt lat="42.0008080" lon="-5.6706750">
        <ele>707.2</ele>
        <time>2019-08-15T12:34:06Z</time>
      </trkpt>
      <trkpt lat="42.0008070" lon="-5.6707200">
        <ele>707.3</ele>
        <time>2019-08-15T12:34:07Z</time>
      </trkpt>
      <trkpt lat="42.0008100" lon="-5.6707650">
        <ele>707.4</ele>
        <time>2019-08-15T12:34:08Z</time>
      </trkpt>
      <trkpt lat="42.0008170" lon="-5.6708070">
        <ele>707.5</ele>
        <time>2019-08-15T12:34:09Z</time>
      </trkpt>
      <trkpt lat="42.0008270" lon="-5.6708410">
        <ele>707.5</ele>
        <time>2019-08-15T12:34:10Z</time>
      </trkpt>
      <trkpt lat="42.0008360" lon="-5.6708610">
        <ele>707.6</ele>
        <time>2019-08-15T12:34:11Z</time>
      </trkpt>
      <trkpt lat="42.0008530" lon="-5.6708740">
        <ele>707.6</ele>
        <time>2019-08-15T12:34:16Z</time>
      </trkpt>
      <trkpt lat="42.0008820" lon="-5.6708880">
        <ele>707.7</ele>
        <time>2019-08-15T12:34:19Z</time>
      </trkpt>
      <trkpt lat="42.0008960" lon="-5.6708930">
        <ele>707.8</ele>
        <time>2019-08-15T12:34:29Z</time>
      </trkpt>
      <trkpt lat="42.0009510" lon="-5.6709230">
        <ele>707.8</ele>
        <time>2019-08-15T12:34:32Z</time>
      </trkpt>
      <trkpt lat="42.0009860" lon="-5.6709430">
        <ele>708.0</ele>
        <time>2019-08-15T12:34:33Z</time>
      </trkpt>
      <trkpt lat="42.0010180" lon="-5.6709720">
        <ele>708.2</ele>
        <time>2019-08-15T12:34:34Z</time>
      </trkpt>
      <trkpt lat="42.0010480" lon="-5.6710100">
        <ele>708.4</ele>
        <time>2019-08-15T12:34:35Z</time>
      </trkpt>
      <trkpt lat="42.0010740" lon="-5.6710520">
        <ele>708.5</ele>
        <time>2019-08-15T12:34:36Z</time>
      </trkpt>
      <trkpt lat="42.0010980" lon="-5.6710970">
        <ele>708.7</ele>
        <time>2019-08-15T12:34:37Z</time>
      </trkpt>
      <trkpt lat="42.0011220" lon="-5.6711420">
        <ele>709.0</ele>
        <time>2019-08-15T12:34:38Z</time>
      </trkpt>
      <trkpt lat="42.0011470" lon="-5.6711880">
        <ele>709.1</ele>
        <time>2019-08-15T12:34:39Z</time>
      </trkpt>
      <trkpt lat="42.0011730" lon="-5.6712300">
        <ele>709.2</ele>
        <time>2019-08-15T12:34:40Z</time>
      </trkpt>
      <trkpt lat="42.0012000" lon="-5.6712730">
        <ele>709.4</ele>
        <time>2019-08-15T12:34:41Z</time>
      </trkpt>
      <trkpt lat="42.0012270" lon="-5.6713170">
        <ele>709.7</ele>
        <time>2019-08-15T12:34:42Z</time>
      </trkpt>
      <trkpt lat="42.0012540" lon="-5.6713620">
        <ele>709.9</ele>
        <time>2019-08-15T12:34:43Z</time>
      </trkpt>
      <trkpt lat="42.0012820" lon="-5.6714070">
        <ele>710.0</ele>
        <time>2019-08-15T12:34:44Z</time>
      </trkpt>
      <trkpt lat="42.0013100" lon="-5.6714570">
        <ele>710.2</ele>
        <time>2019-08-15T12:34:45Z</time>
      </trkpt>
      <trkpt lat="42.0013390" lon="-5.6715070">
        <ele>710.3</ele>
        <time>2019-08-15T12:34:46Z</time>
      </trkpt>
      <trkpt lat="42.0013690" lon="-5.6715530">
        <ele>710.5</ele>
        <time>2019-08-15T12:34:47Z</time>
      </trkpt>
      <trkpt lat="42.0013980" lon="-5.6716000">
        <ele>710.6</ele>
        <time>2019-08-15T12:34:48Z</time>
      </trkpt>
      <trkpt lat="42.0014290" lon="-5.6716480">
        <ele>710.7</ele>
        <time>2019-08-15T12:34:49Z</time>
      </trkpt>
      <trkpt lat="42.0014600" lon="-5.6716960">
        <ele>710.8</ele>
        <time>2019-08-15T12:34:50Z</time>
      </trkpt>
      <trkpt lat="42.0014900" lon="-5.6717460">
        <ele>711.0</ele>
        <time>2019-08-15T12:34:51Z</time>
      </trkpt>
      <trkpt lat="42.0015200" lon="-5.6717980">
        <ele>711.1</ele>
        <time>2019-08-15T12:34:52Z</time>
      </trkpt>
      <trkpt lat="42.0015490" lon="-5.6718490">
        <ele>711.2</ele>
        <time>2019-08-15T12:34:53Z</time>
      </trkpt>
      <trkpt lat="42.0015780" lon="-5.6719020">
        <ele>711.3</ele>
        <time>2019-08-15T12:34:54Z</time>
      </trkpt>
      <trkpt lat="42.0016070" lon="-5.6719530">
        <ele>711.5</ele>
        <time>2019-08-15T12:34:55Z</time>
      </trkpt>
      <trkpt lat="42.0016350" lon="-5.6720050">
        <ele>711.8</ele>
        <time>2019-08-15T12:34:56Z</time>
      </trkpt>
      <trkpt lat="42.0016630" lon="-5.6720550">
        <ele>712.0</ele>
        <time>2019-08-15T12:34:57Z</time>
      </trkpt>
      <trkpt lat="42.0016900" lon="-5.6721020">
        <ele>712.2</ele>
        <time>2019-08-15T12:34:58Z</time>
      </trkpt>
      <trkpt lat="42.0017150" lon="-5.6721480">
        <ele>712.4</ele>
        <time>2019-08-15T12:34:59Z</time>
      </trkpt>
      <trkpt lat="42.0017400" lon="-5.6721940">
        <ele>712.6</ele>
        <time>2019-08-15T12:35:00Z</time>
      </trkpt>
      <trkpt lat="42.0017650" lon="-5.6722420">
        <ele>712.8</ele>
        <time>2019-08-15T12:35:01Z</time>
      </trkpt>
      <trkpt lat="42.0017910" lon="-5.6722880">
        <ele>713.0</ele>
        <time>2019-08-15T12:35:02Z</time>
      </trkpt>
      <trkpt lat="42.0018180" lon="-5.6723330">
        <ele>713.1</ele>
        <time>2019-08-15T12:35:03Z</time>
      </trkpt>
      <trkpt lat="42.0018450" lon="-5.6723790">
        <ele>713.3</ele>
        <time>2019-08-15T12:35:04Z</time>
      </trkpt>
      <trkpt lat="42.0018720" lon="-5.6724240">
        <ele>713.5</ele>
        <time>2019-08-15T12:35:05Z</time>
      </trkpt>
      <trkpt lat="42.0018980" lon="-5.6724680">
        <ele>713.7</ele>
        <time>2019-08-15T12:35:06Z</time>
      </trkpt>
      <trkpt lat="42.0019260" lon="-5.6725130">
        <ele>713.9</ele>
        <time>2019-08-15T12:35:07Z</time>
      </trkpt>
      <trkpt lat="42.0019580" lon="-5.6725590">
        <ele>714.1</ele>
        <time>2019-08-15T12:35:08Z</time>
      </trkpt>
      <trkpt lat="42.0019870" lon="-5.6726070">
        <ele>714.4</ele>
        <time>2019-08-15T12:35:09Z</time>
      </trkpt>
      <trkpt lat="42.0020140" lon="-5.6726520">
        <ele>714.6</ele>
        <time>2019-08-15T12:35:10Z</time>
      </trkpt>
      <trkpt lat="42.0020400" lon="-5.6726950">
        <ele>714.8</ele>
        <time>2019-08-15T12:35:11Z</time>
      </trkpt>
      <trkpt lat="42.0020650" lon="-5.6727350">
        <ele>715.0</ele>
        <time>2019-08-15T12:35:12Z</time>
      </trkpt>
      <trkpt lat="42.0020880" lon="-5.6727740">
        <ele>715.2</ele>
        <time>2019-08-15T12:35:13Z</time>
      </trkpt>
      <trkpt lat="42.0021090" lon="-5.6728080">
        <ele>715.5</ele>
        <time>2019-08-15T12:35:14Z</time>
      </trkpt>
      <trkpt lat="42.0021320" lon="-5.6728440">
        <ele>715.7</ele>
        <time>2019-08-15T12:35:15Z</time>
      </trkpt>
      <trkpt lat="42.0021540" lon="-5.6728800">
        <ele>716.0</ele>
        <time>2019-08-15T12:35:16Z</time>
      </trkpt>
      <trkpt lat="42.0021750" lon="-5.6729170">
        <ele>716.4</ele>
        <time>2019-08-15T12:35:17Z</time>
      </trkpt>
      <trkpt lat="42.0021960" lon="-5.6729550">
        <ele>716.8</ele>
        <time>2019-08-15T12:35:18Z</time>
      </trkpt>
      <trkpt lat="42.0022160" lon="-5.6729870">
        <ele>717.2</ele>
        <time>2019-08-15T12:35:19Z</time>
      </trkpt>
      <trkpt lat="42.0022350" lon="-5.6730130">
        <ele>717.4</ele>
        <time>2019-08-15T12:35:20Z</time>
      </trkpt>
      <trkpt lat="42.0022520" lon="-5.6730330">
        <ele>717.5</ele>
        <time>2019-08-15T12:35:21Z</time>
      </trkpt>
      <trkpt lat="42.0022810" lon="-5.6730670">
        <ele>717.7</ele>
        <time>2019-08-15T12:35:23Z</time>
      </trkpt>
      <trkpt lat="42.0023080" lon="-5.6730840">
        <ele>717.8</ele>
        <time>2019-08-15T12:35:25Z</time>
      </trkpt>
      <trkpt lat="42.0023400" lon="-5.6730780">
        <ele>718.6</ele>
        <time>2019-08-15T12:35:27Z</time>
      </trkpt>
      <trkpt lat="42.0023800" lon="-5.6730510">
        <ele>718.7</ele>
        <time>2019-08-15T12:35:29Z</time>
      </trkpt>
      <trkpt lat="42.0024220" lon="-5.6730210">
        <ele>718.7</ele>
        <time>2019-08-15T12:35:31Z</time>
      </trkpt>
      <trkpt lat="42.0024650" lon="-5.6729870">
        <ele>718.8</ele>
        <time>2019-08-15T12:35:33Z</time>
      </trkpt>
      <trkpt lat="42.0025120" lon="-5.6729580">
        <ele>718.9</ele>
        <time>2019-08-15T12:35:35Z</time>
      </trkpt>
      <trkpt lat="42.0025570" lon="-5.6729290">
        <ele>719.0</ele>
        <time>2019-08-15T12:35:37Z</time>
      </trkpt>
      <trkpt lat="42.0026020" lon="-5.6729000">
        <ele>719.0</ele>
        <time>2019-08-15T12:35:39Z</time>
      </trkpt>
      <trkpt lat="42.0026480" lon="-5.6728650">
        <ele>719.0</ele>
        <time>2019-08-15T12:35:41Z</time>
      </trkpt>
      <trkpt lat="42.0026710" lon="-5.6728370">
        <ele>719.1</ele>
        <time>2019-08-15T12:35:42Z</time>
      </trkpt>
      <trkpt lat="42.0026950" lon="-5.6728060">
        <ele>718.9</ele>
        <time>2019-08-15T12:35:43Z</time>
      </trkpt>
      <trkpt lat="42.0027250" lon="-5.6727790">
        <ele>718.8</ele>
        <time>2019-08-15T12:35:44Z</time>
      </trkpt>
      <trkpt lat="42.0027580" lon="-5.6727610">
        <ele>718.8</ele>
        <time>2019-08-15T12:35:45Z</time>
      </trkpt>
      <trkpt lat="42.0027930" lon="-5.6727580">
        <ele>718.9</ele>
        <time>2019-08-15T12:35:46Z</time>
      </trkpt>
      <trkpt lat="42.0028250" lon="-5.6727710">
        <ele>719.0</ele>
        <time>2019-08-15T12:35:47Z</time>
      </trkpt>
      <trkpt lat="42.0028500" lon="-5.6727950">
        <ele>719.7</ele>
        <time>2019-08-15T12:35:48Z</time>
      </trkpt>
      <trkpt lat="42.0028640" lon="-5.6728240">
        <ele>719.8</ele>
        <time>2019-08-15T12:35:49Z</time>
      </trkpt>
      <trkpt lat="42.0028790" lon="-5.6728820">
        <ele>719.8</ele>
        <time>2019-08-15T12:35:51Z</time>
      </trkpt>
      <trkpt lat="42.0028880" lon="-5.6729390">
        <ele>719.9</ele>
        <time>2019-08-15T12:35:53Z</time>
      </trkpt>
      <trkpt lat="42.0029070" lon="-5.6729930">
        <ele>720.3</ele>
        <time>2019-08-15T12:35:55Z</time>
      </trkpt>
      <trkpt lat="42.0029380" lon="-5.6730460">
        <ele>720.4</ele>
        <time>2019-08-15T12:35:57Z</time>
      </trkpt>
      <trkpt lat="42.0029670" lon="-5.6731100">
        <ele>720.7</ele>
        <time>2019-08-15T12:35:59Z</time>
      </trkpt>
      <trkpt lat="42.0029790" lon="-5.6731450">
        <ele>720.8</ele>
        <time>2019-08-15T12:36:00Z</time>
      </trkpt>
      <trkpt lat="42.0029910" lon="-5.6731780">
        <ele>721.0</ele>
        <time>2019-08-15T12:36:01Z</time>
      </trkpt>
      <trkpt lat="42.0030030" lon="-5.6732120">
        <ele>721.1</ele>
        <time>2019-08-15T12:36:02Z</time>
      </trkpt>
      <trkpt lat="42.0030150" lon="-5.6732460">
        <ele>721.3</ele>
        <time>2019-08-15T12:36:03Z</time>
      </trkpt>
      <trkpt lat="42.0030280" lon="-5.6732780">
        <ele>721.4</ele>
        <time>2019-08-15T12:36:04Z</time>
      </trkpt>
      <trkpt lat="42.0030420" lon="-5.6733070">
        <ele>721.6</ele>
        <time>2019-08-15T12:36:05Z</time>
      </trkpt>
      <trkpt lat="42.0030640" lon="-5.6733650">
        <ele>721.9</ele>
        <time>2019-08-15T12:36:07Z</time>
      </trkpt>
      <trkpt lat="42.0030840" lon="-5.6734140">
        <ele>722.1</ele>
        <time>2019-08-15T12:36:09Z</time>
      </trkpt>
      <trkpt lat="42.0031060" lon="-5.6734690">
        <ele>722.4</ele>
        <time>2019-08-15T12:36:11Z</time>
      </trkpt>
      <trkpt lat="42.0031300" lon="-5.6735270">
        <ele>722.6</ele>
        <time>2019-08-15T12:36:13Z</time>
      </trkpt>
      <trkpt lat="42.0031550" lon="-5.6735870">
        <ele>722.7</ele>
        <time>2019-08-15T12:36:15Z</time>
      </trkpt>
      <trkpt lat="42.0031830" lon="-5.6736420">
        <ele>722.8</ele>
        <time>2019-08-15T12:36:17Z</time>
      </trkpt>
      <trkpt lat="42.0032190" lon="-5.6736890">
        <ele>723.0</ele>
        <time>2019-08-15T12:36:19Z</time>
      </trkpt>
      <trkpt lat="42.0032660" lon="-5.6737180">
        <ele>723.3</ele>
        <time>2019-08-15T12:36:21Z</time>
      </trkpt>
      <trkpt lat="42.0033200" lon="-5.6737410">
        <ele>723.3</ele>
        <time>2019-08-15T12:36:23Z</time>
      </trkpt>
      <trkpt lat="42.0033490" lon="-5.6737560">
        <ele>723.3</ele>
        <time>2019-08-15T12:36:24Z</time>
      </trkpt>
      <trkpt lat="42.0033760" lon="-5.6737760">
        <ele>723.8</ele>
        <time>2019-08-15T12:36:25Z</time>
      </trkpt>
      <trkpt lat="42.0034000" lon="-5.6738000">
        <ele>723.8</ele>
        <time>2019-08-15T12:36:26Z</time>
      </trkpt>
      <trkpt lat="42.0034190" lon="-5.6738270">
        <ele>723.8</ele>
        <time>2019-08-15T12:36:27Z</time>
      </trkpt>
      <trkpt lat="42.0034350" lon="-5.6738530">
        <ele>723.8</ele>
        <time>2019-08-15T12:36:28Z</time>
      </trkpt>
      <trkpt lat="42.0034620" lon="-5.6738950">
        <ele>724.3</ele>
        <time>2019-08-15T12:36:30Z</time>
      </trkpt>
      <trkpt lat="42.0034980" lon="-5.6739240">
        <ele>724.3</ele>
        <time>2019-08-15T12:36:32Z</time>
      </trkpt>
      <trkpt lat="42.0035460" lon="-5.6739380">
        <ele>724.7</ele>
        <time>2019-08-15T12:36:34Z</time>
      </trkpt>
      <trkpt lat="42.0035920" lon="-5.6739510">
        <ele>724.7</ele>
        <time>2019-08-15T12:36:36Z</time>
      </trkpt>
      <trkpt lat="42.0036130" lon="-5.6739890">
        <ele>724.7</ele>
        <time>2019-08-15T12:36:38Z</time>
      </trkpt>
      <trkpt lat="42.0035780" lon="-5.6740170">
        <ele>724.7</ele>
        <time>2019-08-15T12:36:40Z</time>
      </trkpt>
      <trkpt lat="42.0035550" lon="-5.6740200">
        <ele>724.7</ele>
        <time>2019-08-15T12:36:42Z</time>
      </trkpt>
      <trkpt lat="42.0035400" lon="-5.6740140">
        <ele>724.8</ele>
        <time>2019-08-15T12:36:47Z</time>
      </trkpt>
      <trkpt lat="42.0034080" lon="-5.6740250">
        <ele>724.2</ele>
        <time>2019-08-15T12:36:59Z</time>
      </trkpt>
      <trkpt lat="42.0033770" lon="-5.6740120">
        <ele>724.2</ele>
        <time>2019-08-15T12:37:00Z</time>
      </trkpt>
      <trkpt lat="42.0033410" lon="-5.6740040">
        <ele>723.7</ele>
        <time>2019-08-15T12:37:01Z</time>
      </trkpt>
      <trkpt lat="42.0033030" lon="-5.6739980">
        <ele>723.6</ele>
        <time>2019-08-15T12:37:02Z</time>
      </trkpt>
      <trkpt lat="42.0032660" lon="-5.6739960">
        <ele>723.5</ele>
        <time>2019-08-15T12:37:03Z</time>
      </trkpt>
      <trkpt lat="42.0032350" lon="-5.6740010">
        <ele>723.5</ele>
        <time>2019-08-15T12:37:04Z</time>
      </trkpt>
      <trkpt lat="42.0032060" lon="-5.6740240">
        <ele>723.6</ele>
        <time>2019-08-15T12:37:05Z</time>
      </trkpt>
      <trkpt lat="42.0031870" lon="-5.6740670">
        <ele>723.7</ele>
        <time>2019-08-15T12:37:06Z</time>
      </trkpt>
      <trkpt lat="42.0031740" lon="-5.6741130">
        <ele>723.7</ele>
        <time>2019-08-15T12:37:07Z</time>
      </trkpt>
      <trkpt lat="42.0031670" lon="-5.6741570">
        <ele>723.8</ele>
        <time>2019-08-15T12:37:08Z</time>
      </trkpt>
      <trkpt lat="42.0031630" lon="-5.6741970">
        <ele>723.9</ele>
        <time>2019-08-15T12:37:09Z</time>
      </trkpt>
      <trkpt lat="42.0031550" lon="-5.6742350">
        <ele>723.9</ele>
        <time>2019-08-15T12:37:10Z</time>
      </trkpt>
      <trkpt lat="42.0031520" lon="-5.6742740">
        <ele>724.1</ele>
        <time>2019-08-15T12:37:11Z</time>
      </trkpt>
      <trkpt lat="42.0031510" lon="-5.6743160">
        <ele>724.2</ele>
        <time>2019-08-15T12:37:12Z</time>
      </trkpt>
      <trkpt lat="42.0031470" lon="-5.6743480">
        <ele>724.3</ele>
        <time>2019-08-15T12:37:13Z</time>
      </trkpt>
      <trkpt lat="42.0031370" lon="-5.6744050">
        <ele>724.4</ele>
        <time>2019-08-15T12:37:15Z</time>
      </trkpt>
      <trkpt lat="42.0031290" lon="-5.6744630">
        <ele>724.6</ele>
        <time>2019-08-15T12:37:17Z</time>
      </trkpt>
      <trkpt lat="42.0031240" lon="-5.6745260">
        <ele>724.8</ele>
        <time>2019-08-15T12:37:19Z</time>
      </trkpt>
      <trkpt lat="42.0031160" lon="-5.6745930">
        <ele>725.1</ele>
        <time>2019-08-15T12:37:21Z</time>
      </trkpt>
      <trkpt lat="42.0031140" lon="-5.6746590">
        <ele>725.3</ele>
        <time>2019-08-15T12:37:23Z</time>
      </trkpt>
      <trkpt lat="42.0031060" lon="-5.6747240">
        <ele>725.6</ele>
        <time>2019-08-15T12:37:25Z</time>
      </trkpt>
      <trkpt lat="42.0030980" lon="-5.6747820">
        <ele>725.9</ele>
        <time>2019-08-15T12:37:27Z</time>
      </trkpt>
      <trkpt lat="42.0030900" lon="-5.6748360">
        <ele>726.2</ele>
        <time>2019-08-15T12:37:29Z</time>
      </trkpt>
      <trkpt lat="42.0030830" lon="-5.6748880">
        <ele>726.5</ele>
        <time>2019-08-15T12:37:31Z</time>
      </trkpt>
      <trkpt lat="42.0030760" lon="-5.6749440">
        <ele>726.8</ele>
        <time>2019-08-15T12:37:33Z</time>
      </trkpt>
      <trkpt lat="42.0030710" lon="-5.6750000">
        <ele>727.1</ele>
        <time>2019-08-15T12:37:35Z</time>
      </trkpt>
      <trkpt lat="42.0030660" lon="-5.6750600">
        <ele>727.4</ele>
        <time>2019-08-15T12:37:37Z</time>
      </trkpt>
      <trkpt lat="42.0030660" lon="-5.6751180">
        <ele>727.7</ele>
        <time>2019-08-15T12:37:39Z</time>
      </trkpt>
      <trkpt lat="42.0030600" lon="-5.6751770">
        <ele>728.0</ele>
        <time>2019-08-15T12:37:41Z</time>
      </trkpt>
      <trkpt lat="42.0030570" lon="-5.6752380">
        <ele>728.3</ele>
        <time>2019-08-15T12:37:43Z</time>
      </trkpt>
      <trkpt lat="42.0030540" lon="-5.6752980">
        <ele>728.5</ele>
        <time>2019-08-15T12:37:45Z</time>
      </trkpt>
      <trkpt lat="42.0030470" lon="-5.6753590">
        <ele>728.8</ele>
        <time>2019-08-15T12:37:47Z</time>
      </trkpt>
      <trkpt lat="42.0030390" lon="-5.6754180">
        <ele>729.0</ele>
        <time>2019-08-15T12:37:49Z</time>
      </trkpt>
      <trkpt lat="42.0030330" lon="-5.6754770">
        <ele>729.3</ele>
        <time>2019-08-15T12:37:51Z</time>
      </trkpt>
      <trkpt lat="42.0030260" lon="-5.6755380">
        <ele>729.5</ele>
        <time>2019-08-15T12:37:53Z</time>
      </trkpt>
      <trkpt lat="42.0030180" lon="-5.6755990">
        <ele>729.9</ele>
        <time>2019-08-15T12:37:55Z</time>
      </trkpt>
      <trkpt lat="42.0030100" lon="-5.6756600">
        <ele>730.0</ele>
        <time>2019-08-15T12:37:57Z</time>
      </trkpt>
      <trkpt lat="42.0030040" lon="-5.6757230">
        <ele>730.1</ele>
        <time>2019-08-15T12:37:59Z</time>
      </trkpt>
      <trkpt lat="42.0030020" lon="-5.6757880">
        <ele>730.6</ele>
        <time>2019-08-15T12:38:01Z</time>
      </trkpt>
      <trkpt lat="42.0030010" lon="-5.6758530">
        <ele>731.1</ele>
        <time>2019-08-15T12:38:03Z</time>
      </trkpt>
      <trkpt lat="42.0029980" lon="-5.6759140">
        <ele>731.4</ele>
        <time>2019-08-15T12:38:05Z</time>
      </trkpt>
      <trkpt lat="42.0029890" lon="-5.6759720">
        <ele>731.7</ele>
        <time>2019-08-15T12:38:07Z</time>
      </trkpt>
      <trkpt lat="42.0029800" lon="-5.6760330">
        <ele>732.0</ele>
        <time>2019-08-15T12:38:09Z</time>
      </trkpt>
      <trkpt lat="42.0029660" lon="-5.6760810">
        <ele>732.3</ele>
        <time>2019-08-15T12:38:11Z</time>
      </trkpt>
      <trkpt lat="42.0029510" lon="-5.6761210">
        <ele>732.5</ele>
        <time>2019-08-15T12:38:13Z</time>
      </trkpt>
      <trkpt lat="42.0029710" lon="-5.6762100">
        <ele>733.1</ele>
        <time>2019-08-15T12:38:30Z</time>
      </trkpt>
      <trkpt lat="42.0029640" lon="-5.6762570">
        <ele>733.3</ele>
        <time>2019-08-15T12:38:32Z</time>
      </trkpt>
      <trkpt lat="42.0029540" lon="-5.6763070">
        <ele>733.8</ele>
        <time>2019-08-15T12:38:34Z</time>
      </trkpt>
      <trkpt lat="42.0029460" lon="-5.6763630">
        <ele>734.3</ele>
        <time>2019-08-15T12:38:36Z</time>
      </trkpt>
      <trkpt lat="42.0029420" lon="-5.6764130">
        <ele>734.8</ele>
        <time>2019-08-15T12:38:38Z</time>
      </trkpt>
      <trkpt lat="42.0029350" lon="-5.6764680">
        <ele>735.3</ele>
        <time>2019-08-15T12:38:40Z</time>
      </trkpt>
      <trkpt lat="42.0029280" lon="-5.6765250">
        <ele>735.8</ele>
        <time>2019-08-15T12:38:42Z</time>
      </trkpt>
      <trkpt lat="42.0029190" lon="-5.6765750">
        <ele>736.3</ele>
        <time>2019-08-15T12:38:44Z</time>
      </trkpt>
      <trkpt lat="42.0029100" lon="-5.6766250">
        <ele>736.7</ele>
        <time>2019-08-15T12:38:46Z</time>
      </trkpt>
      <trkpt lat="42.0029040" lon="-5.6766740">
        <ele>737.2</ele>
        <time>2019-08-15T12:38:48Z</time>
      </trkpt>
      <trkpt lat="42.0029010" lon="-5.6767220">
        <ele>737.6</ele>
        <time>2019-08-15T12:38:50Z</time>
      </trkpt>
      <trkpt lat="42.0028980" lon="-5.6767670">
        <ele>738.2</ele>
        <time>2019-08-15T12:38:52Z</time>
      </trkpt>
      <trkpt lat="42.0028930" lon="-5.6768120">
        <ele>738.6</ele>
        <time>2019-08-15T12:38:54Z</time>
      </trkpt>
      <trkpt lat="42.0028880" lon="-5.6768580">
        <ele>739.0</ele>
        <time>2019-08-15T12:38:56Z</time>
      </trkpt>
      <trkpt lat="42.0028830" lon="-5.6769040">
        <ele>739.5</ele>
        <time>2019-08-15T12:38:58Z</time>
      </trkpt>
      <trkpt lat="42.0028800" lon="-5.6769490">
        <ele>739.9</ele>
        <time>2019-08-15T12:39:00Z</time>
      </trkpt>
      <trkpt lat="42.0028770" lon="-5.6769950">
        <ele>740.4</ele>
        <time>2019-08-15T12:39:02Z</time>
      </trkpt>
      <trkpt lat="42.0028700" lon="-5.6770410">
        <ele>740.8</ele>
        <time>2019-08-15T12:39:04Z</time>
      </trkpt>
      <trkpt lat="42.0028680" lon="-5.6770880">
        <ele>741.3</ele>
        <time>2019-08-15T12:39:06Z</time>
      </trkpt>
      <trkpt lat="42.0028680" lon="-5.6771360">
        <ele>741.7</ele>
        <time>2019-08-15T12:39:08Z</time>
      </trkpt>
      <trkpt lat="42.0028640" lon="-5.6771830">
        <ele>742.8</ele>
        <time>2019-08-15T12:39:10Z</time>
      </trkpt>
      <trkpt lat="42.0028570" lon="-5.6772280">
        <ele>743.2</ele>
        <time>2019-08-15T12:39:12Z</time>
      </trkpt>
      <trkpt lat="42.0028550" lon="-5.6772720">
        <ele>743.7</ele>
        <time>2019-08-15T12:39:14Z</time>
      </trkpt>
      <trkpt lat="42.0028510" lon="-5.6773120">
        <ele>744.1</ele>
        <time>2019-08-15T12:39:16Z</time>
      </trkpt>
      <trkpt lat="42.0028440" lon="-5.6773530">
        <ele>744.5</ele>
        <time>2019-08-15T12:39:18Z</time>
      </trkpt>
      <trkpt lat="42.0028380" lon="-5.6773960">
        <ele>744.9</ele>
        <time>2019-08-15T12:39:20Z</time>
      </trkpt>
      <trkpt lat="42.0028330" lon="-5.6774390">
        <ele>745.3</ele>
        <time>2019-08-15T12:39:22Z</time>
      </trkpt>
      <trkpt lat="42.0028260" lon="-5.6774840">
        <ele>745.6</ele>
        <time>2019-08-15T12:39:24Z</time>
      </trkpt>
      <trkpt lat="42.0028200" lon="-5.6775300">
        <ele>745.9</ele>
        <time>2019-08-15T12:39:26Z</time>
      </trkpt>
      <trkpt lat="42.0028170" lon="-5.6775690">
        <ele>746.2</ele>
        <time>2019-08-15T12:39:28Z</time>
      </trkpt>
      <trkpt lat="42.0028090" lon="-5.6776120">
        <ele>746.5</ele>
        <time>2019-08-15T12:39:30Z</time>
      </trkpt>
      <trkpt lat="42.0027970" lon="-5.6776630">
        <ele>746.9</ele>
        <time>2019-08-15T12:39:32Z</time>
      </trkpt>
      <trkpt lat="42.0027960" lon="-5.6777190">
        <ele>747.6</ele>
        <time>2019-08-15T12:39:34Z</time>
      </trkpt>
      <trkpt lat="42.0027860" lon="-5.6777680">
        <ele>747.7</ele>
        <time>2019-08-15T12:39:36Z</time>
      </trkpt>
      <trkpt lat="42.0027690" lon="-5.6778160">
        <ele>747.9</ele>
        <time>2019-08-15T12:39:38Z</time>
      </trkpt>
      <trkpt lat="42.0027510" lon="-5.6778640">
        <ele>748.1</ele>
        <time>2019-08-15T12:39:40Z</time>
      </trkpt>
      <trkpt lat="42.0027360" lon="-5.6779120">
        <ele>748.4</ele>
        <time>2019-08-15T12:39:42Z</time>
      </trkpt>
      <trkpt lat="42.0027260" lon="-5.6779610">
        <ele>748.6</ele>
        <time>2019-08-15T12:39:44Z</time>
      </trkpt>
      <trkpt lat="42.0027180" lon="-5.6780050">
        <ele>749.1</ele>
        <time>2019-08-15T12:39:46Z</time>
      </trkpt>
      <trkpt lat="42.0027090" lon="-5.6780450">
        <ele>749.1</ele>
        <time>2019-08-15T12:39:48Z</time>
      </trkpt>
      <trkpt lat="42.0027020" lon="-5.6780870">
        <ele>749.2</ele>
        <time>2019-08-15T12:39:50Z</time>
      </trkpt>
      <trkpt lat="42.0026930" lon="-5.6781260">
        <ele>749.2</ele>
        <time>2019-08-15T12:39:52Z</time>
      </trkpt>
      <trkpt lat="42.0026840" lon="-5.6781580">
        <ele>749.4</ele>
        <time>2019-08-15T12:39:54Z</time>
      </trkpt>
      <trkpt lat="42.0026750" lon="-5.6781980">
        <ele>749.6</ele>
        <time>2019-08-15T12:39:56Z</time>
      </trkpt>
      <trkpt lat="42.0026630" lon="-5.6782380">
        <ele>749.8</ele>
        <time>2019-08-15T12:39:58Z</time>
      </trkpt>
      <trkpt lat="42.0026480" lon="-5.6782830">
        <ele>750.0</ele>
        <time>2019-08-15T12:40:00Z</time>
      </trkpt>
      <trkpt lat="42.0026340" lon="-5.6783290">
        <ele>750.2</ele>
        <time>2019-08-15T12:40:02Z</time>
      </trkpt>
      <trkpt lat="42.0026170" lon="-5.6783750">
        <ele>750.4</ele>
        <time>2019-08-15T12:40:04Z</time>
      </trkpt>
      <trkpt lat="42.0026000" lon="-5.6784210">
        <ele>750.6</ele>
        <time>2019-08-15T12:40:06Z</time>
      </trkpt>
      <trkpt lat="42.0025770" lon="-5.6784670">
        <ele>750.7</ele>
        <time>2019-08-15T12:40:08Z</time>
      </trkpt>
      <trkpt lat="42.0025520" lon="-5.6785140">
        <ele>750.8</ele>
        <time>2019-08-15T12:40:10Z</time>
      </trkpt>
      <trkpt lat="42.0025250" lon="-5.6785650">
        <ele>750.9</ele>
        <time>2019-08-15T12:40:12Z</time>
      </trkpt>
      <trkpt lat="42.0025010" lon="-5.6786190">
        <ele>750.9</ele>
        <time>2019-08-15T12:40:14Z</time>
      </trkpt>
      <trkpt lat="42.0024730" lon="-5.6786700">
        <ele>750.9</ele>
        <time>2019-08-15T12:40:16Z</time>
      </trkpt>
      <trkpt lat="42.0024430" lon="-5.6787170">
        <ele>750.9</ele>
        <time>2019-08-15T12:40:18Z</time>
      </trkpt>
      <trkpt lat="42.0024610" lon="-5.6788300">
        <ele>750.8</ele>
        <time>2019-08-15T12:40:20Z</time>
      </trkpt>
      <trkpt lat="42.0024430" lon="-5.6788510">
        <ele>750.7</ele>
        <time>2019-08-15T12:40:21Z</time>
      </trkpt>
      <trkpt lat="42.0024110" lon="-5.6789030">
        <ele>750.7</ele>
        <time>2019-08-15T12:40:23Z</time>
      </trkpt>
      <trkpt lat="42.0023730" lon="-5.6789600">
        <ele>750.6</ele>
        <time>2019-08-15T12:40:25Z</time>
      </trkpt>
      <trkpt lat="42.0023570" lon="-5.6789920">
        <ele>750.6</ele>
        <time>2019-08-15T12:40:26Z</time>
      </trkpt>
      <trkpt lat="42.0023410" lon="-5.6790240">
        <ele>750.6</ele>
        <time>2019-08-15T12:40:27Z</time>
      </trkpt>
      <trkpt lat="42.0023250" lon="-5.6790510">
        <ele>750.5</ele>
        <time>2019-08-15T12:40:28Z</time>
      </trkpt>
      <trkpt lat="42.0022940" lon="-5.6791040">
        <ele>750.5</ele>
        <time>2019-08-15T12:40:30Z</time>
      </trkpt>
      <trkpt lat="42.0022580" lon="-5.6791630">
        <ele>750.5</ele>
        <time>2019-08-15T12:40:32Z</time>
      </trkpt>
      <trkpt lat="42.0022370" lon="-5.6791920">
        <ele>750.5</ele>
        <time>2019-08-15T12:40:33Z</time>
      </trkpt>
      <trkpt lat="42.0022150" lon="-5.6792260">
        <ele>750.4</ele>
        <time>2019-08-15T12:40:34Z</time>
      </trkpt>
      <trkpt lat="42.0021950" lon="-5.6792620">
        <ele>750.4</ele>
        <time>2019-08-15T12:40:35Z</time>
      </trkpt>
      <trkpt lat="42.0021750" lon="-5.6792960">
        <ele>750.4</ele>
        <time>2019-08-15T12:40:36Z</time>
      </trkpt>
      <trkpt lat="42.0021610" lon="-5.6793380">
        <ele>750.3</ele>
        <time>2019-08-15T12:40:37Z</time>
      </trkpt>
      <trkpt lat="42.0021450" lon="-5.6793720">
        <ele>750.3</ele>
        <time>2019-08-15T12:40:38Z</time>
      </trkpt>
      <trkpt lat="42.0021310" lon="-5.6794030">
        <ele>750.2</ele>
        <time>2019-08-15T12:40:39Z</time>
      </trkpt>
      <trkpt lat="42.0021090" lon="-5.6794320">
        <ele>750.2</ele>
        <time>2019-08-15T12:40:40Z</time>
      </trkpt>
      <trkpt lat="42.0020810" lon="-5.6794620">
        <ele>750.1</ele>
        <time>2019-08-15T12:40:41Z</time>
      </trkpt>
      <trkpt lat="42.0020690" lon="-5.6794980">
        <ele>750.1</ele>
        <time>2019-08-15T12:40:42Z</time>
      </trkpt>
      <trkpt lat="42.0020510" lon="-5.6795290">
        <ele>750.0</ele>
        <time>2019-08-15T12:40:43Z</time>
      </trkpt>
      <trkpt lat="42.0020310" lon="-5.6795770">
        <ele>749.9</ele>
        <time>2019-08-15T12:40:44Z</time>
      </trkpt>
      <trkpt lat="42.0020210" lon="-5.6796090">
        <ele>749.8</ele>
        <time>2019-08-15T12:40:45Z</time>
      </trkpt>
      <trkpt lat="42.0019840" lon="-5.6796760">
        <ele>749.6</ele>
        <time>2019-08-15T12:40:47Z</time>
      </trkpt>
      <trkpt lat="42.0019780" lon="-5.6797200">
        <ele>749.6</ele>
        <time>2019-08-15T12:40:48Z</time>
      </trkpt>
      <trkpt lat="42.0019800" lon="-5.6797690">
        <ele>749.6</ele>
        <time>2019-08-15T12:40:49Z</time>
      </trkpt>
      <trkpt lat="42.0019840" lon="-5.6798060">
        <ele>749.3</ele>
        <time>2019-08-15T12:40:50Z</time>
      </trkpt>
      <trkpt lat="42.0019990" lon="-5.6798380">
        <ele>749.3</ele>
        <time>2019-08-15T12:40:51Z</time>
      </trkpt>
      <trkpt lat="42.0019970" lon="-5.6798500">
        <ele>749.3</ele>
        <time>2019-08-15T12:40:52Z</time>
      </trkpt>
      <trkpt lat="42.0020020" lon="-5.6798670">
        <ele>749.3</ele>
        <time>2019-08-15T12:40:58Z</time>
      </trkpt>
      <trkpt lat="42.0019710" lon="-5.6798810">
        <ele>749.3</ele>
        <time>2019-08-15T12:41:00Z</time>
      </trkpt>
      <trkpt lat="42.0019320" lon="-5.6798380">
        <ele>749.3</ele>
        <time>2019-08-15T12:41:57Z</time>
      </trkpt>
      <trkpt lat="42.0019430" lon="-5.6799020">
        <ele>749.1</ele>
        <time>2019-08-15T12:41:59Z</time>
      </trkpt>
      <trkpt lat="42.0019530" lon="-5.6799690">
        <ele>749.0</ele>
        <time>2019-08-15T12:42:01Z</time>
      </trkpt>
      <trkpt lat="42.0019620" lon="-5.6800450">
        <ele>748.6</ele>
        <time>2019-08-15T12:42:03Z</time>
      </trkpt>
      <trkpt lat="42.0019650" lon="-5.6800820">
        <ele>748.5</ele>
        <time>2019-08-15T12:42:04Z</time>
      </trkpt>
      <trkpt lat="42.0019710" lon="-5.6801200">
        <ele>748.5</ele>
        <time>2019-08-15T12:42:05Z</time>
      </trkpt>
      <trkpt lat="42.0019800" lon="-5.6801590">
        <ele>748.4</ele>
        <time>2019-08-15T12:42:06Z</time>
      </trkpt>
      <trkpt lat="42.0019930" lon="-5.6801970">
        <ele>748.3</ele>
        <time>2019-08-15T12:42:07Z</time>
      </trkpt>
      <trkpt lat="42.0020060" lon="-5.6802380">
        <ele>748.2</ele>
        <time>2019-08-15T12:42:08Z</time>
      </trkpt>
      <trkpt lat="42.0020190" lon="-5.6802780">
        <ele>748.1</ele>
        <time>2019-08-15T12:42:09Z</time>
      </trkpt>
      <trkpt lat="42.0020300" lon="-5.6803150">
        <ele>747.9</ele>
        <time>2019-08-15T12:42:10Z</time>
      </trkpt>
      <trkpt lat="42.0020350" lon="-5.6803540">
        <ele>747.8</ele>
        <time>2019-08-15T12:42:11Z</time>
      </trkpt>
      <trkpt lat="42.0020330" lon="-5.6804020">
        <ele>747.7</ele>
        <time>2019-08-15T12:42:12Z</time>
      </trkpt>
      <trkpt lat="42.0020230" lon="-5.6804420">
        <ele>747.6</ele>
        <time>2019-08-15T12:42:13Z</time>
      </trkpt>
      <trkpt lat="42.0020060" lon="-5.6804780">
        <ele>747.4</ele>
        <time>2019-08-15T12:42:14Z</time>
      </trkpt>
      <trkpt lat="42.0019880" lon="-5.6805090">
        <ele>747.3</ele>
        <time>2019-08-15T12:42:15Z</time>
      </trkpt>
      <trkpt lat="42.0019710" lon="-5.6805380">
        <ele>747.2</ele>
        <time>2019-08-15T12:42:16Z</time>
      </trkpt>
      <trkpt lat="42.0019560" lon="-5.6805670">
        <ele>747.1</ele>
        <time>2019-08-15T12:42:17Z</time>
      </trkpt>
      <trkpt lat="42.0019380" lon="-5.6806210">
        <ele>747.0</ele>
        <time>2019-08-15T12:42:19Z</time>
      </trkpt>
      <trkpt lat="42.0019190" lon="-5.6806640">
        <ele>746.8</ele>
        <time>2019-08-15T12:42:21Z</time>
      </trkpt>
      <trkpt lat="42.0018930" lon="-5.6807050">
        <ele>746.7</ele>
        <time>2019-08-15T12:42:23Z</time>
      </trkpt>
      <trkpt lat="42.0018700" lon="-5.6807540">
        <ele>746.6</ele>
        <time>2019-08-15T12:42:25Z</time>
      </trkpt>
      <trkpt lat="42.0018440" lon="-5.6807980">
        <ele>746.6</ele>
        <time>2019-08-15T12:42:27Z</time>
      </trkpt>
      <trkpt lat="42.0018190" lon="-5.6808370">
        <ele>746.5</ele>
        <time>2019-08-15T12:42:29Z</time>
      </trkpt>
      <trkpt lat="42.0017960" lon="-5.6808810">
        <ele>746.4</ele>
        <time>2019-08-15T12:42:31Z</time>
      </trkpt>
      <trkpt lat="42.0017720" lon="-5.6809270">
        <ele>746.2</ele>
        <time>2019-08-15T12:42:33Z</time>
      </trkpt>
      <trkpt lat="42.0017520" lon="-5.6809740">
        <ele>746.1</ele>
        <time>2019-08-15T12:42:35Z</time>
      </trkpt>
      <trkpt lat="42.0017340" lon="-5.6810240">
        <ele>746.0</ele>
        <time>2019-08-15T12:42:37Z</time>
      </trkpt>
      <trkpt lat="42.0017170" lon="-5.6810790">
        <ele>745.9</ele>
        <time>2019-08-15T12:42:39Z</time>
      </trkpt>
      <trkpt lat="42.0016980" lon="-5.6811260">
        <ele>745.8</ele>
        <time>2019-08-15T12:42:41Z</time>
      </trkpt>
      <trkpt lat="42.0016860" lon="-5.6811570">
        <ele>745.6</ele>
        <time>2019-08-15T12:42:43Z</time>
      </trkpt>
      <trkpt lat="42.0016630" lon="-5.6812110">
        <ele>745.4</ele>
        <time>2019-08-15T12:42:46Z</time>
      </trkpt>
      <trkpt lat="42.0016440" lon="-5.6812560">
        <ele>745.3</ele>
        <time>2019-08-15T12:42:48Z</time>
      </trkpt>
      <trkpt lat="42.0016300" lon="-5.6813040">
        <ele>745.1</ele>
        <time>2019-08-15T12:42:50Z</time>
      </trkpt>
      <trkpt lat="42.0016220" lon="-5.6813460">
        <ele>745.1</ele>
        <time>2019-08-15T12:42:52Z</time>
      </trkpt>
      <trkpt lat="42.0016260" lon="-5.6813740">
        <ele>745.1</ele>
        <time>2019-08-15T12:42:54Z</time>
      </trkpt>
      <trkpt lat="42.0016550" lon="-5.6814030">
        <ele>744.9</ele>
        <time>2019-08-15T12:42:57Z</time>
      </trkpt>
      <trkpt lat="42.0016860" lon="-5.6814200">
        <ele>744.8</ele>
        <time>2019-08-15T12:42:59Z</time>
      </trkpt>
      <trkpt lat="42.0017070" lon="-5.6814460">
        <ele>744.7</ele>
        <time>2019-08-15T12:43:01Z</time>
      </trkpt>
      <trkpt lat="42.0017180" lon="-5.6814670">
        <ele>744.7</ele>
        <time>2019-08-15T12:43:04Z</time>
      </trkpt>
      <trkpt lat="42.0017950" lon="-5.6815000">
        <ele>744.4</ele>
        <time>2019-08-15T12:43:26Z</time>
      </trkpt>
      <trkpt lat="42.0018260" lon="-5.6815190">
        <ele>744.2</ele>
        <time>2019-08-15T12:43:28Z</time>
      </trkpt>
      <trkpt lat="42.0018600" lon="-5.6815320">
        <ele>744.1</ele>
        <time>2019-08-15T12:43:30Z</time>
      </trkpt>
      <trkpt lat="42.0018980" lon="-5.6815460">
        <ele>744.0</ele>
        <time>2019-08-15T12:43:32Z</time>
      </trkpt>
      <trkpt lat="42.0019380" lon="-5.6815700">
        <ele>743.8</ele>
        <time>2019-08-15T12:43:34Z</time>
      </trkpt>
      <trkpt lat="42.0019750" lon="-5.6815990">
        <ele>743.7</ele>
        <time>2019-08-15T12:43:36Z</time>
      </trkpt>
      <trkpt lat="42.0020120" lon="-5.6816250">
        <ele>743.6</ele>
        <time>2019-08-15T12:43:38Z</time>
      </trkpt>
      <trkpt lat="42.0020480" lon="-5.6816520">
        <ele>743.4</ele>
        <time>2019-08-15T12:43:40Z</time>
      </trkpt>
      <trkpt lat="42.0020950" lon="-5.6816740">
        <ele>743.2</ele>
        <time>2019-08-15T12:43:42Z</time>
      </trkpt>
      <trkpt lat="42.0021450" lon="-5.6817050">
        <ele>743.1</ele>
        <time>2019-08-15T12:43:44Z</time>
      </trkpt>
      <trkpt lat="42.0021700" lon="-5.6817260">
        <ele>743.0</ele>
        <time>2019-08-15T12:43:45Z</time>
      </trkpt>
      <trkpt lat="42.0021940" lon="-5.6817450">
        <ele>742.9</ele>
        <time>2019-08-15T12:43:46Z</time>
      </trkpt>
      <trkpt lat="42.0022170" lon="-5.6817610">
        <ele>742.9</ele>
        <time>2019-08-15T12:43:47Z</time>
      </trkpt>
      <trkpt lat="42.0022590" lon="-5.6817840">
        <ele>742.7</ele>
        <time>2019-08-15T12:43:49Z</time>
      </trkpt>
      <trkpt lat="42.0022890" lon="-5.6818060">
        <ele>742.7</ele>
        <time>2019-08-15T12:43:51Z</time>
      </trkpt>
      <trkpt lat="42.0023100" lon="-5.6818300">
        <ele>742.6</ele>
        <time>2019-08-15T12:43:53Z</time>
      </trkpt>
      <trkpt lat="42.0023230" lon="-5.6818630">
        <ele>742.5</ele>
        <time>2019-08-15T12:43:55Z</time>
      </trkpt>
      <trkpt lat="42.0023390" lon="-5.6818950">
        <ele>742.4</ele>
        <time>2019-08-15T12:43:57Z</time>
      </trkpt>
      <trkpt lat="42.0023630" lon="-5.6819150">
        <ele>742.3</ele>
        <time>2019-08-15T12:43:59Z</time>
      </trkpt>
      <trkpt lat="42.0023790" lon="-5.6819310">
        <ele>742.2</ele>
        <time>2019-08-15T12:44:02Z</time>
      </trkpt>
      <trkpt lat="42.0024230" lon="-5.6818180">
        <ele>742.1</ele>
        <time>2019-08-15T13:28:43Z</time>
      </trkpt>
      <trkpt lat="42.0024660" lon="-5.6818660">
        <ele>742.0</ele>
        <time>2019-08-15T13:28:46Z</time>
      </trkpt>
      <trkpt lat="42.0024820" lon="-5.6818980">
        <ele>741.9</ele>
        <time>2019-08-15T13:28:48Z</time>
      </trkpt>
      <trkpt lat="42.0025040" lon="-5.6819300">
        <ele>741.6</ele>
        <time>2019-08-15T13:28:51Z</time>
      </trkpt>
      <trkpt lat="42.0025400" lon="-5.6819620">
        <ele>741.4</ele>
        <time>2019-08-15T13:28:56Z</time>
      </trkpt>
      <trkpt lat="42.0025510" lon="-5.6820220">
        <ele>741.3</ele>
        <time>2019-08-15T13:28:59Z</time>
      </trkpt>
      <trkpt lat="42.0025400" lon="-5.6820890">
        <ele>741.1</ele>
        <time>2019-08-15T13:29:01Z</time>
      </trkpt>
      <trkpt lat="42.0025160" lon="-5.6821370">
        <ele>741.0</ele>
        <time>2019-08-15T13:29:03Z</time>
      </trkpt>
      <trkpt lat="42.0024990" lon="-5.6821860">
        <ele>740.9</ele>
        <time>2019-08-15T13:29:05Z</time>
      </trkpt>
      <trkpt lat="42.0024890" lon="-5.6822290">
        <ele>740.8</ele>
        <time>2019-08-15T13:29:07Z</time>
      </trkpt>
      <trkpt lat="42.0024860" lon="-5.6822770">
        <ele>740.7</ele>
        <time>2019-08-15T13:29:09Z</time>
      </trkpt>
      <trkpt lat="42.0024740" lon="-5.6823210">
        <ele>740.6</ele>
        <time>2019-08-15T13:29:11Z</time>
      </trkpt>
      <trkpt lat="42.0024690" lon="-5.6823600">
        <ele>740.5</ele>
        <time>2019-08-15T13:29:13Z</time>
      </trkpt>
      <trkpt lat="42.0024630" lon="-5.6824010">
        <ele>740.5</ele>
        <time>2019-08-15T13:29:15Z</time>
      </trkpt>
      <trkpt lat="42.0024530" lon="-5.6824460">
        <ele>740.5</ele>
        <time>2019-08-15T13:29:17Z</time>
      </trkpt>
      <trkpt lat="42.0024610" lon="-5.6824870">
        <ele>740.4</ele>
        <time>2019-08-15T13:29:19Z</time>
      </trkpt>
      <trkpt lat="42.0024770" lon="-5.6825200">
        <ele>740.4</ele>
        <time>2019-08-15T13:29:21Z</time>
      </trkpt>
      <trkpt lat="42.0024860" lon="-5.6825560">
        <ele>740.4</ele>
        <time>2019-08-15T13:29:23Z</time>
      </trkpt>
      <trkpt lat="42.0024800" lon="-5.6826000">
        <ele>740.4</ele>
        <time>2019-08-15T13:29:25Z</time>
      </trkpt>
      <trkpt lat="42.0024550" lon="-5.6826130">
        <ele>740.3</ele>
        <time>2019-08-15T13:29:27Z</time>
      </trkpt>
      <trkpt lat="42.0024230" lon="-5.6826060">
        <ele>740.3</ele>
        <time>2019-08-15T13:29:30Z</time>
      </trkpt>
      <trkpt lat="42.0023830" lon="-5.6825890">
        <ele>740.3</ele>
        <time>2019-08-15T13:29:33Z</time>
      </trkpt>
      <trkpt lat="42.0023440" lon="-5.6825780">
        <ele>740.3</ele>
        <time>2019-08-15T13:29:35Z</time>
      </trkpt>
      <trkpt lat="42.0023050" lon="-5.6825750">
        <ele>740.3</ele>
        <time>2019-08-15T13:29:37Z</time>
      </trkpt>
      <trkpt lat="42.0022670" lon="-5.6825760">
        <ele>740.2</ele>
        <time>2019-08-15T13:29:39Z</time>
      </trkpt>
      <trkpt lat="42.0022330" lon="-5.6825850">
        <ele>740.0</ele>
        <time>2019-08-15T13:29:41Z</time>
      </trkpt>
      <trkpt lat="42.0022000" lon="-5.6826060">
        <ele>739.8</ele>
        <time>2019-08-15T13:29:43Z</time>
      </trkpt>
      <trkpt lat="42.0021620" lon="-5.6826420">
        <ele>739.6</ele>
        <time>2019-08-15T13:29:45Z</time>
      </trkpt>
      <trkpt lat="42.0021170" lon="-5.6826820">
        <ele>739.3</ele>
        <time>2019-08-15T13:29:47Z</time>
      </trkpt>
      <trkpt lat="42.0020930" lon="-5.6827050">
        <ele>739.1</ele>
        <time>2019-08-15T13:29:48Z</time>
      </trkpt>
      <trkpt lat="42.0020700" lon="-5.6827300">
        <ele>738.9</ele>
        <time>2019-08-15T13:29:49Z</time>
      </trkpt>
      <trkpt lat="42.0020470" lon="-5.6827560">
        <ele>738.6</ele>
        <time>2019-08-15T13:29:50Z</time>
      </trkpt>
      <trkpt lat="42.0020260" lon="-5.6827830">
        <ele>738.4</ele>
        <time>2019-08-15T13:29:51Z</time>
      </trkpt>
      <trkpt lat="42.0020080" lon="-5.6828100">
        <ele>738.2</ele>
        <time>2019-08-15T13:29:52Z</time>
      </trkpt>
      <trkpt lat="42.0020010" lon="-5.6828450">
        <ele>737.8</ele>
        <time>2019-08-15T13:29:53Z</time>
      </trkpt>
      <trkpt lat="42.0020130" lon="-5.6829100">
        <ele>737.8</ele>
        <time>2019-08-15T13:29:55Z</time>
      </trkpt>
      <trkpt lat="42.0020350" lon="-5.6829580">
        <ele>737.8</ele>
        <time>2019-08-15T13:29:57Z</time>
      </trkpt>
      <trkpt lat="42.0020650" lon="-5.6830050">
        <ele>737.8</ele>
        <time>2019-08-15T13:29:59Z</time>
      </trkpt>
      <trkpt lat="42.0020960" lon="-5.6830540">
        <ele>737.8</ele>
        <time>2019-08-15T13:30:01Z</time>
      </trkpt>
      <trkpt lat="42.0021080" lon="-5.6830790">
        <ele>737.8</ele>
        <time>2019-08-15T13:30:03Z</time>
      </trkpt>
      <trkpt lat="42.0021110" lon="-5.6830390">
        <ele>737.8</ele>
        <time>2019-08-15T13:30:11Z</time>
      </trkpt>
      <trkpt lat="42.0020810" lon="-5.6830020">
        <ele>737.8</ele>
        <time>2019-08-15T13:30:13Z</time>
      </trkpt>
      <trkpt lat="42.0020370" lon="-5.6829500">
        <ele>737.8</ele>
        <time>2019-08-15T13:30:15Z</time>
      </trkpt>
      <trkpt lat="42.0020140" lon="-5.6829210">
        <ele>737.8</ele>
        <time>2019-08-15T13:30:16Z</time>
      </trkpt>
      <trkpt lat="42.0019930" lon="-5.6828890">
        <ele>737.8</ele>
        <time>2019-08-15T13:30:17Z</time>
      </trkpt>
      <trkpt lat="42.0019720" lon="-5.6828570">
        <ele>737.8</ele>
        <time>2019-08-15T13:30:18Z</time>
      </trkpt>
      <trkpt lat="42.0019530" lon="-5.6828260">
        <ele>737.8</ele>
        <time>2019-08-15T13:30:19Z</time>
      </trkpt>
      <trkpt lat="42.0019330" lon="-5.6827960">
        <ele>737.7</ele>
        <time>2019-08-15T13:30:20Z</time>
      </trkpt>
      <trkpt lat="42.0019110" lon="-5.6827670">
        <ele>737.7</ele>
        <time>2019-08-15T13:30:21Z</time>
      </trkpt>
      <trkpt lat="42.0018880" lon="-5.6827400">
        <ele>737.7</ele>
        <time>2019-08-15T13:30:22Z</time>
      </trkpt>
      <trkpt lat="42.0018650" lon="-5.6827120">
        <ele>737.6</ele>
        <time>2019-08-15T13:30:23Z</time>
      </trkpt>
      <trkpt lat="42.0018430" lon="-5.6826860">
        <ele>737.6</ele>
        <time>2019-08-15T13:30:24Z</time>
      </trkpt>
      <trkpt lat="42.0018220" lon="-5.6826620">
        <ele>737.6</ele>
        <time>2019-08-15T13:30:25Z</time>
      </trkpt>
      <trkpt lat="42.0018020" lon="-5.6826370">
        <ele>737.6</ele>
        <time>2019-08-15T13:30:26Z</time>
      </trkpt>
      <trkpt lat="42.0017810" lon="-5.6826120">
        <ele>737.5</ele>
        <time>2019-08-15T13:30:27Z</time>
      </trkpt>
      <trkpt lat="42.0017590" lon="-5.6825870">
        <ele>737.5</ele>
        <time>2019-08-15T13:30:28Z</time>
      </trkpt>
      <trkpt lat="42.0017380" lon="-5.6825610">
        <ele>737.5</ele>
        <time>2019-08-15T13:30:29Z</time>
      </trkpt>
      <trkpt lat="42.0017150" lon="-5.6825390">
        <ele>737.5</ele>
        <time>2019-08-15T13:30:30Z</time>
      </trkpt>
      <trkpt lat="42.0016930" lon="-5.6825160">
        <ele>737.6</ele>
        <time>2019-08-15T13:30:31Z</time>
      </trkpt>
      <trkpt lat="42.0016720" lon="-5.6824910">
        <ele>737.7</ele>
        <time>2019-08-15T13:30:32Z</time>
      </trkpt>
      <trkpt lat="42.0016500" lon="-5.6824640">
        <ele>737.8</ele>
        <time>2019-08-15T13:30:33Z</time>
      </trkpt>
      <trkpt lat="42.0016270" lon="-5.6824340">
        <ele>737.8</ele>
        <time>2019-08-15T13:30:34Z</time>
      </trkpt>
      <trkpt lat="42.0016040" lon="-5.6824030">
        <ele>737.9</ele>
        <time>2019-08-15T13:30:35Z</time>
      </trkpt>
      <trkpt lat="42.0015810" lon="-5.6823710">
        <ele>737.9</ele>
        <time>2019-08-15T13:30:36Z</time>
      </trkpt>
      <trkpt lat="42.0015610" lon="-5.6823400">
        <ele>738.0</ele>
        <time>2019-08-15T13:30:37Z</time>
      </trkpt>
      <trkpt lat="42.0015420" lon="-5.6823110">
        <ele>738.1</ele>
        <time>2019-08-15T13:30:38Z</time>
      </trkpt>
      <trkpt lat="42.0015260" lon="-5.6822790">
        <ele>738.3</ele>
        <time>2019-08-15T13:30:39Z</time>
      </trkpt>
      <trkpt lat="42.0015120" lon="-5.6822440">
        <ele>738.5</ele>
        <time>2019-08-15T13:30:40Z</time>
      </trkpt>
      <trkpt lat="42.0014980" lon="-5.6822060">
        <ele>738.7</ele>
        <time>2019-08-15T13:30:41Z</time>
      </trkpt>
      <trkpt lat="42.0014860" lon="-5.6821720">
        <ele>739.0</ele>
        <time>2019-08-15T13:30:42Z</time>
      </trkpt>
      <trkpt lat="42.0014760" lon="-5.6821420">
        <ele>739.1</ele>
        <time>2019-08-15T13:30:43Z</time>
      </trkpt>
      <trkpt lat="42.0014540" lon="-5.6820890">
        <ele>739.4</ele>
        <time>2019-08-15T13:30:45Z</time>
      </trkpt>
      <trkpt lat="42.0014290" lon="-5.6820510">
        <ele>739.5</ele>
        <time>2019-08-15T13:30:47Z</time>
      </trkpt>
      <trkpt lat="42.0013920" lon="-5.6820580">
        <ele>739.5</ele>
        <time>2019-08-15T13:30:49Z</time>
      </trkpt>
      <trkpt lat="42.0013430" lon="-5.6821080">
        <ele>739.0</ele>
        <time>2019-08-15T13:30:51Z</time>
      </trkpt>
      <trkpt lat="42.0013170" lon="-5.6821410">
        <ele>738.9</ele>
        <time>2019-08-15T13:30:52Z</time>
      </trkpt>
      <trkpt lat="42.0012870" lon="-5.6821790">
        <ele>737.6</ele>
        <time>2019-08-15T13:30:53Z</time>
      </trkpt>
      <trkpt lat="42.0012560" lon="-5.6822180">
        <ele>737.6</ele>
        <time>2019-08-15T13:30:54Z</time>
      </trkpt>
      <trkpt lat="42.0012190" lon="-5.6822670">
        <ele>736.2</ele>
        <time>2019-08-15T13:30:55Z</time>
      </trkpt>
      <trkpt lat="42.0011810" lon="-5.6823210">
        <ele>735.2</ele>
        <time>2019-08-15T13:30:56Z</time>
      </trkpt>
      <trkpt lat="42.0011410" lon="-5.6823770">
        <ele>733.8</ele>
        <time>2019-08-15T13:30:57Z</time>
      </trkpt>
      <trkpt lat="42.0011010" lon="-5.6824310">
        <ele>733.0</ele>
        <time>2019-08-15T13:30:58Z</time>
      </trkpt>
      <trkpt lat="42.0010570" lon="-5.6824840">
        <ele>732.2</ele>
        <time>2019-08-15T13:30:59Z</time>
      </trkpt>
      <trkpt lat="42.0010120" lon="-5.6825380">
        <ele>731.4</ele>
        <time>2019-08-15T13:31:00Z</time>
      </trkpt>
      <trkpt lat="42.0009670" lon="-5.6825870">
        <ele>730.6</ele>
        <time>2019-08-15T13:31:01Z</time>
      </trkpt>
      <trkpt lat="42.0009210" lon="-5.6826270">
        <ele>730.0</ele>
        <time>2019-08-15T13:31:02Z</time>
      </trkpt>
      <trkpt lat="42.0008740" lon="-5.6826580">
        <ele>729.4</ele>
        <time>2019-08-15T13:31:03Z</time>
      </trkpt>
      <trkpt lat="42.0008230" lon="-5.6826770">
        <ele>728.7</ele>
        <time>2019-08-15T13:31:04Z</time>
      </trkpt>
      <trkpt lat="42.0007710" lon="-5.6826860">
        <ele>728.0</ele>
        <time>2019-08-15T13:31:05Z</time>
      </trkpt>
      <trkpt lat="42.0007170" lon="-5.6826870">
        <ele>727.4</ele>
        <time>2019-08-15T13:31:06Z</time>
      </trkpt>
      <trkpt lat="42.0006610" lon="-5.6826810">
        <ele>726.8</ele>
        <time>2019-08-15T13:31:07Z</time>
      </trkpt>
      <trkpt lat="42.0006010" lon="-5.6826700">
        <ele>726.1</ele>
        <time>2019-08-15T13:31:08Z</time>
      </trkpt>
      <trkpt lat="42.0005410" lon="-5.6826560">
        <ele>725.3</ele>
        <time>2019-08-15T13:31:09Z</time>
      </trkpt>
      <trkpt lat="42.0004820" lon="-5.6826390">
        <ele>724.5</ele>
        <time>2019-08-15T13:31:10Z</time>
      </trkpt>
      <trkpt lat="42.0004230" lon="-5.6826200">
        <ele>723.7</ele>
        <time>2019-08-15T13:31:11Z</time>
      </trkpt>
      <trkpt lat="42.0003660" lon="-5.6826030">
        <ele>723.1</ele>
        <time>2019-08-15T13:31:12Z</time>
      </trkpt>
      <trkpt lat="42.0003100" lon="-5.6825860">
        <ele>722.7</ele>
        <time>2019-08-15T13:31:13Z</time>
      </trkpt>
      <trkpt lat="42.0002590" lon="-5.6825700">
        <ele>722.2</ele>
        <time>2019-08-15T13:31:14Z</time>
      </trkpt>
      <trkpt lat="42.0002130" lon="-5.6825570">
        <ele>721.5</ele>
        <time>2019-08-15T13:31:15Z</time>
      </trkpt>
      <trkpt lat="42.0001710" lon="-5.6825420">
        <ele>721.1</ele>
        <time>2019-08-15T13:31:16Z</time>
      </trkpt>
      <trkpt lat="42.0001270" lon="-5.6825270">
        <ele>720.7</ele>
        <time>2019-08-15T13:31:17Z</time>
      </trkpt>
      <trkpt lat="42.0000810" lon="-5.6825110">
        <ele>720.4</ele>
        <time>2019-08-15T13:31:18Z</time>
      </trkpt>
      <trkpt lat="42.0000340" lon="-5.6824950">
        <ele>720.1</ele>
        <time>2019-08-15T13:31:19Z</time>
      </trkpt>
      <trkpt lat="41.9999900" lon="-5.6824780">
        <ele>719.9</ele>
        <time>2019-08-15T13:31:20Z</time>
      </trkpt>
      <trkpt lat="41.9999500" lon="-5.6824590">
        <ele>719.6</ele>
        <time>2019-08-15T13:31:21Z</time>
      </trkpt>
      <trkpt lat="41.9999110" lon="-5.6824380">
        <ele>719.4</ele>
        <time>2019-08-15T13:31:22Z</time>
      </trkpt>
      <trkpt lat="41.9998750" lon="-5.6824170">
        <ele>719.2</ele>
        <time>2019-08-15T13:31:23Z</time>
      </trkpt>
      <trkpt lat="41.9998420" lon="-5.6823990">
        <ele>719.1</ele>
        <time>2019-08-15T13:31:24Z</time>
      </trkpt>
      <trkpt lat="41.9998150" lon="-5.6823850">
        <ele>718.9</ele>
        <time>2019-08-15T13:31:25Z</time>
      </trkpt>
      <trkpt lat="41.9997920" lon="-5.6823780">
        <ele>718.8</ele>
        <time>2019-08-15T13:31:26Z</time>
      </trkpt>
      <trkpt lat="41.9997600" lon="-5.6823760">
        <ele>718.7</ele>
        <time>2019-08-15T13:31:28Z</time>
      </trkpt>
      <trkpt lat="41.9997510" lon="-5.6823780">
        <ele>718.6</ele>
        <time>2019-08-15T13:31:33Z</time>
      </trkpt>
      <trkpt lat="41.9996530" lon="-5.6823680">
        <ele>718.2</ele>
        <time>2019-08-15T13:31:55Z</time>
      </trkpt>
      <trkpt lat="41.9996120" lon="-5.6823750">
        <ele>718.0</ele>
        <time>2019-08-15T13:31:56Z</time>
      </trkpt>
      <trkpt lat="41.9995640" lon="-5.6823970">
        <ele>716.4</ele>
        <time>2019-08-15T13:31:57Z</time>
      </trkpt>
      <trkpt lat="41.9995170" lon="-5.6824390">
        <ele>715.6</ele>
        <time>2019-08-15T13:31:58Z</time>
      </trkpt>
      <trkpt lat="41.9994700" lon="-5.6824900">
        <ele>714.8</ele>
        <time>2019-08-15T13:31:59Z</time>
      </trkpt>
      <trkpt lat="41.9994290" lon="-5.6825420">
        <ele>713.9</ele>
        <time>2019-08-15T13:32:00Z</time>
      </trkpt>
      <trkpt lat="41.9993920" lon="-5.6825910">
        <ele>713.2</ele>
        <time>2019-08-15T13:32:01Z</time>
      </trkpt>
      <trkpt lat="41.9993600" lon="-5.6826380">
        <ele>712.5</ele>
        <time>2019-08-15T13:32:02Z</time>
      </trkpt>
      <trkpt lat="41.9993300" lon="-5.6826860">
        <ele>711.8</ele>
        <time>2019-08-15T13:32:03Z</time>
      </trkpt>
      <trkpt lat="41.9993000" lon="-5.6827340">
        <ele>711.2</ele>
        <time>2019-08-15T13:32:04Z</time>
      </trkpt>
      <trkpt lat="41.9992760" lon="-5.6827800">
        <ele>710.4</ele>
        <time>2019-08-15T13:32:05Z</time>
      </trkpt>
      <trkpt lat="41.9992570" lon="-5.6828320">
        <ele>710.2</ele>
        <time>2019-08-15T13:32:06Z</time>
      </trkpt>
      <trkpt lat="41.9992400" lon="-5.6828840">
        <ele>709.9</ele>
        <time>2019-08-15T13:32:07Z</time>
      </trkpt>
      <trkpt lat="41.9992210" lon="-5.6829310">
        <ele>709.7</ele>
        <time>2019-08-15T13:32:08Z</time>
      </trkpt>
      <trkpt lat="41.9992020" lon="-5.6829780">
        <ele>709.4</ele>
        <time>2019-08-15T13:32:09Z</time>
      </trkpt>
      <trkpt lat="41.9991850" lon="-5.6830260">
        <ele>709.1</ele>
        <time>2019-08-15T13:32:10Z</time>
      </trkpt>
      <trkpt lat="41.9991680" lon="-5.6830680">
        <ele>708.9</ele>
        <time>2019-08-15T13:32:11Z</time>
      </trkpt>
      <trkpt lat="41.9991490" lon="-5.6831090">
        <ele>708.8</ele>
        <time>2019-08-15T13:32:12Z</time>
      </trkpt>
      <trkpt lat="41.9991280" lon="-5.6831490">
        <ele>708.7</ele>
        <time>2019-08-15T13:32:13Z</time>
      </trkpt>
      <trkpt lat="41.9991090" lon="-5.6831880">
        <ele>708.6</ele>
        <time>2019-08-15T13:32:14Z</time>
      </trkpt>
      <trkpt lat="41.9990920" lon="-5.6832300">
        <ele>708.5</ele>
        <time>2019-08-15T13:32:15Z</time>
      </trkpt>
      <trkpt lat="41.9990760" lon="-5.6832700">
        <ele>708.4</ele>
        <time>2019-08-15T13:32:16Z</time>
      </trkpt>
      <trkpt lat="41.9990590" lon="-5.6833090">
        <ele>708.3</ele>
        <time>2019-08-15T13:32:17Z</time>
      </trkpt>
      <trkpt lat="41.9990390" lon="-5.6833510">
        <ele>708.2</ele>
        <time>2019-08-15T13:32:18Z</time>
      </trkpt>
      <trkpt lat="41.9990180" lon="-5.6833940">
        <ele>708.1</ele>
        <time>2019-08-15T13:32:19Z</time>
      </trkpt>
      <trkpt lat="41.9989960" lon="-5.6834400">
        <ele>708.0</ele>
        <time>2019-08-15T13:32:20Z</time>
      </trkpt>
      <trkpt lat="41.9989750" lon="-5.6834900">
        <ele>707.9</ele>
        <time>2019-08-15T13:32:21Z</time>
      </trkpt>
      <trkpt lat="41.9989550" lon="-5.6835430">
        <ele>707.8</ele>
        <time>2019-08-15T13:32:22Z</time>
      </trkpt>
      <trkpt lat="41.9989360" lon="-5.6835930">
        <ele>707.7</ele>
        <time>2019-08-15T13:32:23Z</time>
      </trkpt>
      <trkpt lat="41.9989170" lon="-5.6836440">
        <ele>707.7</ele>
        <time>2019-08-15T13:32:24Z</time>
      </trkpt>
      <trkpt lat="41.9988970" lon="-5.6836950">
        <ele>707.6</ele>
        <time>2019-08-15T13:32:25Z</time>
      </trkpt>
      <trkpt lat="41.9988800" lon="-5.6837480">
        <ele>707.6</ele>
        <time>2019-08-15T13:32:26Z</time>
      </trkpt>
      <trkpt lat="41.9988630" lon="-5.6837950">
        <ele>707.5</ele>
        <time>2019-08-15T13:32:27Z</time>
      </trkpt>
      <trkpt lat="41.9988460" lon="-5.6838370">
        <ele>707.5</ele>
        <time>2019-08-15T13:32:28Z</time>
      </trkpt>
      <trkpt lat="41.9988300" lon="-5.6838720">
        <ele>707.4</ele>
        <time>2019-08-15T13:32:29Z</time>
      </trkpt>
      <trkpt lat="41.9988180" lon="-5.6839020">
        <ele>707.4</ele>
        <time>2019-08-15T13:32:30Z</time>
      </trkpt>
      <trkpt lat="41.9988030" lon="-5.6839440">
        <ele>707.3</ele>
        <time>2019-08-15T13:32:32Z</time>
      </trkpt>
      <trkpt lat="41.9987900" lon="-5.6839680">
        <ele>707.3</ele>
        <time>2019-08-15T13:32:34Z</time>
      </trkpt>
      <trkpt lat="41.9988400" lon="-5.6840410">
        <ele>707.1</ele>
        <time>2019-08-15T13:33:04Z</time>
      </trkpt>
      <trkpt lat="41.9988590" lon="-5.6839290">
        <ele>706.9</ele>
        <time>2019-08-15T13:37:26Z</time>
      </trkpt>
      <trkpt lat="41.9988820" lon="-5.6839020">
        <ele>706.8</ele>
        <time>2019-08-15T13:37:29Z</time>
      </trkpt>
      <trkpt lat="41.9988930" lon="-5.6838630">
        <ele>706.7</ele>
        <time>2019-08-15T13:37:33Z</time>
      </trkpt>
      <trkpt lat="41.9988860" lon="-5.6838350">
        <ele>706.7</ele>
        <time>2019-08-15T13:37:41Z</time>
      </trkpt>
      <trkpt lat="41.9988390" lon="-5.6839210">
        <ele>706.5</ele>
        <time>2019-08-15T13:41:45Z</time>
      </trkpt>
      <trkpt lat="41.9988290" lon="-5.6839040">
        <ele>706.5</ele>
        <time>2019-08-15T13:41:47Z</time>
      </trkpt>
      <trkpt lat="41.9987950" lon="-5.6839550">
        <ele>706.4</ele>
        <time>2019-08-15T13:41:51Z</time>
      </trkpt>
      <trkpt lat="41.9987760" lon="-5.6840120">
        <ele>706.4</ele>
        <time>2019-08-15T13:41:53Z</time>
      </trkpt>
      <trkpt lat="41.9987530" lon="-5.6840790">
        <ele>706.3</ele>
        <time>2019-08-15T13:41:55Z</time>
      </trkpt>
      <trkpt lat="41.9987360" lon="-5.6841130">
        <ele>706.2</ele>
        <time>2019-08-15T13:41:56Z</time>
      </trkpt>
      <trkpt lat="41.9987190" lon="-5.6841500">
        <ele>706.2</ele>
        <time>2019-08-15T13:41:57Z</time>
      </trkpt>
      <trkpt lat="41.9987020" lon="-5.6841910">
        <ele>706.1</ele>
        <time>2019-08-15T13:41:58Z</time>
      </trkpt>
      <trkpt lat="41.9986830" lon="-5.6842370">
        <ele>706.1</ele>
        <time>2019-08-15T13:41:59Z</time>
      </trkpt>
      <trkpt lat="41.9986640" lon="-5.6842790">
        <ele>706.0</ele>
        <time>2019-08-15T13:42:00Z</time>
      </trkpt>
      <trkpt lat="41.9986440" lon="-5.6843220">
        <ele>705.9</ele>
        <time>2019-08-15T13:42:01Z</time>
      </trkpt>
      <trkpt lat="41.9986250" lon="-5.6843650">
        <ele>705.8</ele>
        <time>2019-08-15T13:42:02Z</time>
      </trkpt>
      <trkpt lat="41.9986060" lon="-5.6844080">
        <ele>705.7</ele>
        <time>2019-08-15T13:42:03Z</time>
      </trkpt>
      <trkpt lat="41.9985860" lon="-5.6844500">
        <ele>705.6</ele>
        <time>2019-08-15T13:42:04Z</time>
      </trkpt>
      <trkpt lat="41.9985670" lon="-5.6844930">
        <ele>705.5</ele>
        <time>2019-08-15T13:42:05Z</time>
      </trkpt>
      <trkpt lat="41.9985480" lon="-5.6845370">
        <ele>705.4</ele>
        <time>2019-08-15T13:42:06Z</time>
      </trkpt>
      <trkpt lat="41.9985260" lon="-5.6845770">
        <ele>705.3</ele>
        <time>2019-08-15T13:42:07Z</time>
      </trkpt>
      <trkpt lat="41.9985040" lon="-5.6846170">
        <ele>705.2</ele>
        <time>2019-08-15T13:42:08Z</time>
      </trkpt>
      <trkpt lat="41.9984810" lon="-5.6846550">
        <ele>704.9</ele>
        <time>2019-08-15T13:42:09Z</time>
      </trkpt>
      <trkpt lat="41.9984590" lon="-5.6846890">
        <ele>704.8</ele>
        <time>2019-08-15T13:42:10Z</time>
      </trkpt>
      <trkpt lat="41.9984420" lon="-5.6847180">
        <ele>704.8</ele>
        <time>2019-08-15T13:42:11Z</time>
      </trkpt>
      <trkpt lat="41.9984250" lon="-5.6847430">
        <ele>704.8</ele>
        <time>2019-08-15T13:42:12Z</time>
      </trkpt>
      <trkpt lat="41.9983960" lon="-5.6847800">
        <ele>704.7</ele>
        <time>2019-08-15T13:42:14Z</time>
      </trkpt>
      <trkpt lat="41.9983770" lon="-5.6847760">
        <ele>704.7</ele>
        <time>2019-08-15T13:42:16Z</time>
      </trkpt>
      <trkpt lat="41.9983800" lon="-5.6847460">
        <ele>704.6</ele>
        <time>2019-08-15T13:42:19Z</time>
      </trkpt>
      <trkpt lat="41.9983680" lon="-5.6848110">
        <ele>704.5</ele>
        <time>2019-08-15T13:43:00Z</time>
      </trkpt>
      <trkpt lat="41.9983600" lon="-5.6848420">
        <ele>704.5</ele>
        <time>2019-08-15T13:43:02Z</time>
      </trkpt>
      <trkpt lat="41.9983600" lon="-5.6848560">
        <ele>704.4</ele>
        <time>2019-08-15T13:43:08Z</time>
      </trkpt>
      <trkpt lat="41.9982840" lon="-5.6848660">
        <ele>704.3</ele>
        <time>2019-08-15T13:43:19Z</time>
      </trkpt>
      <trkpt lat="41.9982450" lon="-5.6848930">
        <ele>704.3</ele>
        <time>2019-08-15T13:43:21Z</time>
      </trkpt>
      <trkpt lat="41.9982070" lon="-5.6849050">
        <ele>704.2</ele>
        <time>2019-08-15T13:43:23Z</time>
      </trkpt>
      <trkpt lat="41.9981660" lon="-5.6848820">
        <ele>704.3</ele>
        <time>2019-08-15T13:43:25Z</time>
      </trkpt>
      <trkpt lat="41.9981250" lon="-5.6848600">
        <ele>704.3</ele>
        <time>2019-08-15T13:43:27Z</time>
      </trkpt>
      <trkpt lat="41.9980790" lon="-5.6848500">
        <ele>704.4</ele>
        <time>2019-08-15T13:43:29Z</time>
      </trkpt>
      <trkpt lat="41.9980330" lon="-5.6848360">
        <ele>704.5</ele>
        <time>2019-08-15T13:43:31Z</time>
      </trkpt>
      <trkpt lat="41.9979870" lon="-5.6848150">
        <ele>704.6</ele>
        <time>2019-08-15T13:43:33Z</time>
      </trkpt>
      <trkpt lat="41.9979420" lon="-5.6848000">
        <ele>704.7</ele>
        <time>2019-08-15T13:43:35Z</time>
      </trkpt>
      <trkpt lat="41.9978980" lon="-5.6847860">
        <ele>704.8</ele>
        <time>2019-08-15T13:43:37Z</time>
      </trkpt>
      <trkpt lat="41.9978550" lon="-5.6847730">
        <ele>704.9</ele>
        <time>2019-08-15T13:43:39Z</time>
      </trkpt>
      <trkpt lat="41.9978090" lon="-5.6847600">
        <ele>704.9</ele>
        <time>2019-08-15T13:43:41Z</time>
      </trkpt>
      <trkpt lat="41.9977650" lon="-5.6847390">
        <ele>704.9</ele>
        <time>2019-08-15T13:43:43Z</time>
      </trkpt>
      <trkpt lat="41.9977260" lon="-5.6847160">
        <ele>704.9</ele>
        <time>2019-08-15T13:43:45Z</time>
      </trkpt>
      <trkpt lat="41.9976830" lon="-5.6847000">
        <ele>704.9</ele>
        <time>2019-08-15T13:43:47Z</time>
      </trkpt>
      <trkpt lat="41.9976270" lon="-5.6846880">
        <ele>704.9</ele>
        <time>2019-08-15T13:43:49Z</time>
      </trkpt>
      <trkpt lat="41.9975970" lon="-5.6846780">
        <ele>704.9</ele>
        <time>2019-08-15T13:43:50Z</time>
      </trkpt>
      <trkpt lat="41.9975650" lon="-5.6846660">
        <ele>704.9</ele>
        <time>2019-08-15T13:43:51Z</time>
      </trkpt>
      <trkpt lat="41.9975310" lon="-5.6846560">
        <ele>704.9</ele>
        <time>2019-08-15T13:43:52Z</time>
      </trkpt>
      <trkpt lat="41.9974940" lon="-5.6846470">
        <ele>704.9</ele>
        <time>2019-08-15T13:43:53Z</time>
      </trkpt>
      <trkpt lat="41.9974570" lon="-5.6846380">
        <ele>705.0</ele>
        <time>2019-08-15T13:43:54Z</time>
      </trkpt>
      <trkpt lat="41.9974190" lon="-5.6846250">
        <ele>705.0</ele>
        <time>2019-08-15T13:43:55Z</time>
      </trkpt>
      <trkpt lat="41.9973780" lon="-5.6846090">
        <ele>705.0</ele>
        <time>2019-08-15T13:43:56Z</time>
      </trkpt>
      <trkpt lat="41.9973380" lon="-5.6845930">
        <ele>705.1</ele>
        <time>2019-08-15T13:43:57Z</time>
      </trkpt>
      <trkpt lat="41.9972990" lon="-5.6845770">
        <ele>705.1</ele>
        <time>2019-08-15T13:43:58Z</time>
      </trkpt>
      <trkpt lat="41.9972590" lon="-5.6845600">
        <ele>705.1</ele>
        <time>2019-08-15T13:43:59Z</time>
      </trkpt>
      <trkpt lat="41.9972200" lon="-5.6845470">
        <ele>705.2</ele>
        <time>2019-08-15T13:44:00Z</time>
      </trkpt>
      <trkpt lat="41.9971790" lon="-5.6845350">
        <ele>705.2</ele>
        <time>2019-08-15T13:44:01Z</time>
      </trkpt>
      <trkpt lat="41.9971380" lon="-5.6845220">
        <ele>705.3</ele>
        <time>2019-08-15T13:44:02Z</time>
      </trkpt>
      <trkpt lat="41.9970970" lon="-5.6845070">
        <ele>705.4</ele>
        <time>2019-08-15T13:44:03Z</time>
      </trkpt>
      <trkpt lat="41.9970560" lon="-5.6844940">
        <ele>705.5</ele>
        <time>2019-08-15T13:44:04Z</time>
      </trkpt>
      <trkpt lat="41.9970170" lon="-5.6844800">
        <ele>705.7</ele>
        <time>2019-08-15T13:44:05Z</time>
      </trkpt>
      <trkpt lat="41.9969780" lon="-5.6844660">
        <ele>705.8</ele>
        <time>2019-08-15T13:44:06Z</time>
      </trkpt>
      <trkpt lat="41.9969410" lon="-5.6844510">
        <ele>706.0</ele>
        <time>2019-08-15T13:44:07Z</time>
      </trkpt>
      <trkpt lat="41.9969030" lon="-5.6844390">
        <ele>706.1</ele>
        <time>2019-08-15T13:44:08Z</time>
      </trkpt>
      <trkpt lat="41.9968670" lon="-5.6844300">
        <ele>706.3</ele>
        <time>2019-08-15T13:44:09Z</time>
      </trkpt>
      <trkpt lat="41.9968290" lon="-5.6844260">
        <ele>706.4</ele>
        <time>2019-08-15T13:44:10Z</time>
      </trkpt>
      <trkpt lat="41.9967940" lon="-5.6844360">
        <ele>706.6</ele>
        <time>2019-08-15T13:44:11Z</time>
      </trkpt>
      <trkpt lat="41.9967630" lon="-5.6844590">
        <ele>706.6</ele>
        <time>2019-08-15T13:44:12Z</time>
      </trkpt>
      <trkpt lat="41.9967400" lon="-5.6844940">
        <ele>706.6</ele>
        <time>2019-08-15T13:44:13Z</time>
      </trkpt>
      <trkpt lat="41.9967210" lon="-5.6845360">
        <ele>706.6</ele>
        <time>2019-08-15T13:44:14Z</time>
      </trkpt>
      <trkpt lat="41.9967020" lon="-5.6845820">
        <ele>706.6</ele>
        <time>2019-08-15T13:44:15Z</time>
      </trkpt>
      <trkpt lat="41.9966830" lon="-5.6846310">
        <ele>706.6</ele>
        <time>2019-08-15T13:44:16Z</time>
      </trkpt>
      <trkpt lat="41.9966630" lon="-5.6846820">
        <ele>706.6</ele>
        <time>2019-08-15T13:44:17Z</time>
      </trkpt>
      <trkpt lat="41.9966420" lon="-5.6847340">
        <ele>706.6</ele>
        <time>2019-08-15T13:44:18Z</time>
      </trkpt>
      <trkpt lat="41.9966220" lon="-5.6847880">
        <ele>706.6</ele>
        <time>2019-08-15T13:44:19Z</time>
      </trkpt>
      <trkpt lat="41.9966040" lon="-5.6848440">
        <ele>706.6</ele>
        <time>2019-08-15T13:44:20Z</time>
      </trkpt>
      <trkpt lat="41.9965850" lon="-5.6849020">
        <ele>706.6</ele>
        <time>2019-08-15T13:44:21Z</time>
      </trkpt>
      <trkpt lat="41.9965680" lon="-5.6849610">
        <ele>706.6</ele>
        <time>2019-08-15T13:44:22Z</time>
      </trkpt>
      <trkpt lat="41.9965510" lon="-5.6850210">
        <ele>706.6</ele>
        <time>2019-08-15T13:44:23Z</time>
      </trkpt>
      <trkpt lat="41.9965330" lon="-5.6850800">
        <ele>706.6</ele>
        <time>2019-08-15T13:44:24Z</time>
      </trkpt>
      <trkpt lat="41.9965170" lon="-5.6851400">
        <ele>706.6</ele>
        <time>2019-08-15T13:44:25Z</time>
      </trkpt>
      <trkpt lat="41.9965010" lon="-5.6852000">
        <ele>706.7</ele>
        <time>2019-08-15T13:44:26Z</time>
      </trkpt>
      <trkpt lat="41.9964850" lon="-5.6852600">
        <ele>706.7</ele>
        <time>2019-08-15T13:44:27Z</time>
      </trkpt>
      <trkpt lat="41.9964690" lon="-5.6853180">
        <ele>706.7</ele>
        <time>2019-08-15T13:44:28Z</time>
      </trkpt>
      <trkpt lat="41.9964530" lon="-5.6853740">
        <ele>706.7</ele>
        <time>2019-08-15T13:44:29Z</time>
      </trkpt>
      <trkpt lat="41.9964380" lon="-5.6854300">
        <ele>706.7</ele>
        <time>2019-08-15T13:44:30Z</time>
      </trkpt>
      <trkpt lat="41.9964240" lon="-5.6854860">
        <ele>706.7</ele>
        <time>2019-08-15T13:44:31Z</time>
      </trkpt>
      <trkpt lat="41.9964120" lon="-5.6855400">
        <ele>706.7</ele>
        <time>2019-08-15T13:44:32Z</time>
      </trkpt>
      <trkpt lat="41.9964000" lon="-5.6855940">
        <ele>706.8</ele>
        <time>2019-08-15T13:44:33Z</time>
      </trkpt>
      <trkpt lat="41.9963860" lon="-5.6856450">
        <ele>706.8</ele>
        <time>2019-08-15T13:44:34Z</time>
      </trkpt>
      <trkpt lat="41.9963700" lon="-5.6856940">
        <ele>706.8</ele>
        <time>2019-08-15T13:44:35Z</time>
      </trkpt>
      <trkpt lat="41.9963570" lon="-5.6857450">
        <ele>706.8</ele>
        <time>2019-08-15T13:44:36Z</time>
      </trkpt>
      <trkpt lat="41.9963450" lon="-5.6857970">
        <ele>706.8</ele>
        <time>2019-08-15T13:44:37Z</time>
      </trkpt>
      <trkpt lat="41.9963310" lon="-5.6858510">
        <ele>706.8</ele>
        <time>2019-08-15T13:44:38Z</time>
      </trkpt>
      <trkpt lat="41.9963150" lon="-5.6859030">
        <ele>706.8</ele>
        <time>2019-08-15T13:44:39Z</time>
      </trkpt>
      <trkpt lat="41.9962980" lon="-5.6859570">
        <ele>706.8</ele>
        <time>2019-08-15T13:44:40Z</time>
      </trkpt>
      <trkpt lat="41.9962820" lon="-5.6860110">
        <ele>706.8</ele>
        <time>2019-08-15T13:44:41Z</time>
      </trkpt>
      <trkpt lat="41.9962660" lon="-5.6860660">
        <ele>706.7</ele>
        <time>2019-08-15T13:44:42Z</time>
      </trkpt>
      <trkpt lat="41.9962490" lon="-5.6861220">
        <ele>706.7</ele>
        <time>2019-08-15T13:44:43Z</time>
      </trkpt>
      <trkpt lat="41.9962310" lon="-5.6861770">
        <ele>706.7</ele>
        <time>2019-08-15T13:44:44Z</time>
      </trkpt>
      <trkpt lat="41.9962120" lon="-5.6862320">
        <ele>706.7</ele>
        <time>2019-08-15T13:44:45Z</time>
      </trkpt>
      <trkpt lat="41.9961910" lon="-5.6862860">
        <ele>706.7</ele>
        <time>2019-08-15T13:44:46Z</time>
      </trkpt>
      <trkpt lat="41.9961750" lon="-5.6863390">
        <ele>706.7</ele>
        <time>2019-08-15T13:44:47Z</time>
      </trkpt>
      <trkpt lat="41.9961590" lon="-5.6863910">
        <ele>706.7</ele>
        <time>2019-08-15T13:44:48Z</time>
      </trkpt>
      <trkpt lat="41.9961440" lon="-5.6864420">
        <ele>706.7</ele>
        <time>2019-08-15T13:44:49Z</time>
      </trkpt>
      <trkpt lat="41.9961300" lon="-5.6864940">
        <ele>706.7</ele>
        <time>2019-08-15T13:44:50Z</time>
      </trkpt>
      <trkpt lat="41.9961160" lon="-5.6865440">
        <ele>706.6</ele>
        <time>2019-08-15T13:44:51Z</time>
      </trkpt>
      <trkpt lat="41.9961080" lon="-5.6865960">
        <ele>706.6</ele>
        <time>2019-08-15T13:44:52Z</time>
      </trkpt>
      <trkpt lat="41.9961020" lon="-5.6866490">
        <ele>706.6</ele>
        <time>2019-08-15T13:44:53Z</time>
      </trkpt>
      <trkpt lat="41.9961030" lon="-5.6867030">
        <ele>706.6</ele>
        <time>2019-08-15T13:44:54Z</time>
      </trkpt>
      <trkpt lat="41.9961070" lon="-5.6867580">
        <ele>706.6</ele>
        <time>2019-08-15T13:44:55Z</time>
      </trkpt>
      <trkpt lat="41.9961110" lon="-5.6868130">
        <ele>706.6</ele>
        <time>2019-08-15T13:44:56Z</time>
      </trkpt>
      <trkpt lat="41.9961170" lon="-5.6868710">
        <ele>706.5</ele>
        <time>2019-08-15T13:44:57Z</time>
      </trkpt>
      <trkpt lat="41.9961230" lon="-5.6869300">
        <ele>706.5</ele>
        <time>2019-08-15T13:44:58Z</time>
      </trkpt>
      <trkpt lat="41.9961310" lon="-5.6869920">
        <ele>706.5</ele>
        <time>2019-08-15T13:44:59Z</time>
      </trkpt>
      <trkpt lat="41.9961400" lon="-5.6870540">
        <ele>706.5</ele>
        <time>2019-08-15T13:45:00Z</time>
      </trkpt>
      <trkpt lat="41.9961490" lon="-5.6871170">
        <ele>706.5</ele>
        <time>2019-08-15T13:45:01Z</time>
      </trkpt>
      <trkpt lat="41.9961570" lon="-5.6871790">
        <ele>706.5</ele>
        <time>2019-08-15T13:45:02Z</time>
      </trkpt>
      <trkpt lat="41.9961650" lon="-5.6872420">
        <ele>706.5</ele>
        <time>2019-08-15T13:45:03Z</time>
      </trkpt>
      <trkpt lat="41.9961750" lon="-5.6873070">
        <ele>706.5</ele>
        <time>2019-08-15T13:45:04Z</time>
      </trkpt>
      <trkpt lat="41.9961830" lon="-5.6873720">
        <ele>706.4</ele>
        <time>2019-08-15T13:45:05Z</time>
      </trkpt>
      <trkpt lat="41.9961920" lon="-5.6874350">
        <ele>706.4</ele>
        <time>2019-08-15T13:45:06Z</time>
      </trkpt>
      <trkpt lat="41.9961990" lon="-5.6874990">
        <ele>706.4</ele>
        <time>2019-08-15T13:45:07Z</time>
      </trkpt>
      <trkpt lat="41.9962060" lon="-5.6875620">
        <ele>706.4</ele>
        <time>2019-08-15T13:45:08Z</time>
      </trkpt>
      <trkpt lat="41.9962150" lon="-5.6876250">
        <ele>706.4</ele>
        <time>2019-08-15T13:45:09Z</time>
      </trkpt>
      <trkpt lat="41.9962270" lon="-5.6876890">
        <ele>706.4</ele>
        <time>2019-08-15T13:45:10Z</time>
      </trkpt>
      <trkpt lat="41.9962390" lon="-5.6877540">
        <ele>706.4</ele>
        <time>2019-08-15T13:45:11Z</time>
      </trkpt>
      <trkpt lat="41.9962500" lon="-5.6878200">
        <ele>706.5</ele>
        <time>2019-08-15T13:45:12Z</time>
      </trkpt>
      <trkpt lat="41.9962590" lon="-5.6878840">
        <ele>706.5</ele>
        <time>2019-08-15T13:45:13Z</time>
      </trkpt>
      <trkpt lat="41.9962660" lon="-5.6879470">
        <ele>706.5</ele>
        <time>2019-08-15T13:45:14Z</time>
      </trkpt>
      <trkpt lat="41.9962730" lon="-5.6880080">
        <ele>706.5</ele>
        <time>2019-08-15T13:45:15Z</time>
      </trkpt>
      <trkpt lat="41.9962800" lon="-5.6880670">
        <ele>706.5</ele>
        <time>2019-08-15T13:45:16Z</time>
      </trkpt>
      <trkpt lat="41.9962870" lon="-5.6881280">
        <ele>706.6</ele>
        <time>2019-08-15T13:45:17Z</time>
      </trkpt>
      <trkpt lat="41.9962940" lon="-5.6881900">
        <ele>706.6</ele>
        <time>2019-08-15T13:45:18Z</time>
      </trkpt>
      <trkpt lat="41.9963030" lon="-5.6882520">
        <ele>706.7</ele>
        <time>2019-08-15T13:45:19Z</time>
      </trkpt>
      <trkpt lat="41.9963120" lon="-5.6883130">
        <ele>706.7</ele>
        <time>2019-08-15T13:45:20Z</time>
      </trkpt>
      <trkpt lat="41.9963180" lon="-5.6883730">
        <ele>706.8</ele>
        <time>2019-08-15T13:45:21Z</time>
      </trkpt>
      <trkpt lat="41.9963160" lon="-5.6884310">
        <ele>706.8</ele>
        <time>2019-08-15T13:45:22Z</time>
      </trkpt>
      <trkpt lat="41.9963050" lon="-5.6884830">
        <ele>706.9</ele>
        <time>2019-08-15T13:45:23Z</time>
      </trkpt>
      <trkpt lat="41.9962880" lon="-5.6885280">
        <ele>706.9</ele>
        <time>2019-08-15T13:45:24Z</time>
      </trkpt>
      <trkpt lat="41.9962680" lon="-5.6885680">
        <ele>707.0</ele>
        <time>2019-08-15T13:45:25Z</time>
      </trkpt>
      <trkpt lat="41.9962530" lon="-5.6886120">
        <ele>707.1</ele>
        <time>2019-08-15T13:45:26Z</time>
      </trkpt>
      <trkpt lat="41.9962480" lon="-5.6886570">
        <ele>707.1</ele>
        <time>2019-08-15T13:45:27Z</time>
      </trkpt>
      <trkpt lat="41.9962540" lon="-5.6887000">
        <ele>707.1</ele>
        <time>2019-08-15T13:45:28Z</time>
      </trkpt>
      <trkpt lat="41.9962670" lon="-5.6887360">
        <ele>707.1</ele>
        <time>2019-08-15T13:45:29Z</time>
      </trkpt>
      <trkpt lat="41.9962840" lon="-5.6887690">
        <ele>707.1</ele>
        <time>2019-08-15T13:45:30Z</time>
      </trkpt>
      <trkpt lat="41.9963000" lon="-5.6888020">
        <ele>707.1</ele>
        <time>2019-08-15T13:45:31Z</time>
      </trkpt>
      <trkpt lat="41.9963160" lon="-5.6888380">
        <ele>707.1</ele>
        <time>2019-08-15T13:45:32Z</time>
      </trkpt>
      <trkpt lat="41.9963340" lon="-5.6888770">
        <ele>707.1</ele>
        <time>2019-08-15T13:45:33Z</time>
      </trkpt>
      <trkpt lat="41.9963540" lon="-5.6889180">
        <ele>707.0</ele>
        <time>2019-08-15T13:45:34Z</time>
      </trkpt>
      <trkpt lat="41.9963730" lon="-5.6889610">
        <ele>707.0</ele>
        <time>2019-08-15T13:45:35Z</time>
      </trkpt>
      <trkpt lat="41.9963880" lon="-5.6890040">
        <ele>707.0</ele>
        <time>2019-08-15T13:45:36Z</time>
      </trkpt>
      <trkpt lat="41.9964000" lon="-5.6890450">
        <ele>706.9</ele>
        <time>2019-08-15T13:45:37Z</time>
      </trkpt>
      <trkpt lat="41.9964140" lon="-5.6890940">
        <ele>706.8</ele>
        <time>2019-08-15T13:45:38Z</time>
      </trkpt>
      <trkpt lat="41.9964290" lon="-5.6891380">
        <ele>706.7</ele>
        <time>2019-08-15T13:45:39Z</time>
      </trkpt>
      <trkpt lat="41.9964470" lon="-5.6891800">
        <ele>706.6</ele>
        <time>2019-08-15T13:45:40Z</time>
      </trkpt>
      <trkpt lat="41.9964610" lon="-5.6892210">
        <ele>706.5</ele>
        <time>2019-08-15T13:45:41Z</time>
      </trkpt>
      <trkpt lat="41.9964720" lon="-5.6892640">
        <ele>706.4</ele>
        <time>2019-08-15T13:45:42Z</time>
      </trkpt>
      <trkpt lat="41.9964800" lon="-5.6893110">
        <ele>706.3</ele>
        <time>2019-08-15T13:45:43Z</time>
      </trkpt>
      <trkpt lat="41.9964970" lon="-5.6893570">
        <ele>706.2</ele>
        <time>2019-08-15T13:45:44Z</time>
      </trkpt>
      <trkpt lat="41.9965140" lon="-5.6894100">
        <ele>706.0</ele>
        <time>2019-08-15T13:45:45Z</time>
      </trkpt>
      <trkpt lat="41.9965340" lon="-5.6894650">
        <ele>705.9</ele>
        <time>2019-08-15T13:45:46Z</time>
      </trkpt>
      <trkpt lat="41.9965570" lon="-5.6895230">
        <ele>705.7</ele>
        <time>2019-08-15T13:45:47Z</time>
      </trkpt>
      <trkpt lat="41.9965790" lon="-5.6895780">
        <ele>705.5</ele>
        <time>2019-08-15T13:45:48Z</time>
      </trkpt>
      <trkpt lat="41.9966010" lon="-5.6896330">
        <ele>705.3</ele>
        <time>2019-08-15T13:45:49Z</time>
      </trkpt>
      <trkpt lat="41.9966240" lon="-5.6896850">
        <ele>705.1</ele>
        <time>2019-08-15T13:45:50Z</time>
      </trkpt>
      <trkpt lat="41.9966480" lon="-5.6897360">
        <ele>705.2</ele>
        <time>2019-08-15T13:45:51Z</time>
      </trkpt>
      <trkpt lat="41.9966750" lon="-5.6897830">
        <ele>705.2</ele>
        <time>2019-08-15T13:45:52Z</time>
      </trkpt>
      <trkpt lat="41.9967030" lon="-5.6898310">
        <ele>705.2</ele>
        <time>2019-08-15T13:45:53Z</time>
      </trkpt>
      <trkpt lat="41.9967320" lon="-5.6898770">
        <ele>705.2</ele>
        <time>2019-08-15T13:45:54Z</time>
      </trkpt>
      <trkpt lat="41.9967630" lon="-5.6899240">
        <ele>705.2</ele>
        <time>2019-08-15T13:45:55Z</time>
      </trkpt>
      <trkpt lat="41.9967930" lon="-5.6899710">
        <ele>705.3</ele>
        <time>2019-08-15T13:45:56Z</time>
      </trkpt>
      <trkpt lat="41.9968210" lon="-5.6900200">
        <ele>705.3</ele>
        <time>2019-08-15T13:45:57Z</time>
      </trkpt>
      <trkpt lat="41.9968500" lon="-5.6900690">
        <ele>705.4</ele>
        <time>2019-08-15T13:45:58Z</time>
      </trkpt>
      <trkpt lat="41.9968790" lon="-5.6901160">
        <ele>705.5</ele>
        <time>2019-08-15T13:45:59Z</time>
      </trkpt>
      <trkpt lat="41.9969110" lon="-5.6901590">
        <ele>705.5</ele>
        <time>2019-08-15T13:46:00Z</time>
      </trkpt>
      <trkpt lat="41.9969440" lon="-5.6902020">
        <ele>705.6</ele>
        <time>2019-08-15T13:46:01Z</time>
      </trkpt>
      <trkpt lat="41.9969770" lon="-5.6902440">
        <ele>705.6</ele>
        <time>2019-08-15T13:46:02Z</time>
      </trkpt>
      <trkpt lat="41.9970090" lon="-5.6902870">
        <ele>705.6</ele>
        <time>2019-08-15T13:46:03Z</time>
      </trkpt>
      <trkpt lat="41.9970400" lon="-5.6903330">
        <ele>705.5</ele>
        <time>2019-08-15T13:46:04Z</time>
      </trkpt>
      <trkpt lat="41.9970690" lon="-5.6903810">
        <ele>705.5</ele>
        <time>2019-08-15T13:46:05Z</time>
      </trkpt>
      <trkpt lat="41.9970970" lon="-5.6904280">
        <ele>705.5</ele>
        <time>2019-08-15T13:46:06Z</time>
      </trkpt>
      <trkpt lat="41.9971270" lon="-5.6904750">
        <ele>705.5</ele>
        <time>2019-08-15T13:46:07Z</time>
      </trkpt>
      <trkpt lat="41.9971560" lon="-5.6905200">
        <ele>705.5</ele>
        <time>2019-08-15T13:46:08Z</time>
      </trkpt>
      <trkpt lat="41.9971830" lon="-5.6905650">
        <ele>705.5</ele>
        <time>2019-08-15T13:46:09Z</time>
      </trkpt>
      <trkpt lat="41.9972080" lon="-5.6906120">
        <ele>705.5</ele>
        <time>2019-08-15T13:46:10Z</time>
      </trkpt>
      <trkpt lat="41.9972330" lon="-5.6906580">
        <ele>705.5</ele>
        <time>2019-08-15T13:46:11Z</time>
      </trkpt>
      <trkpt lat="41.9972590" lon="-5.6907070">
        <ele>705.5</ele>
        <time>2019-08-15T13:46:12Z</time>
      </trkpt>
      <trkpt lat="41.9972840" lon="-5.6907580">
        <ele>705.5</ele>
        <time>2019-08-15T13:46:13Z</time>
      </trkpt>
      <trkpt lat="41.9973090" lon="-5.6908080">
        <ele>705.5</ele>
        <time>2019-08-15T13:46:14Z</time>
      </trkpt>
      <trkpt lat="41.9973350" lon="-5.6908590">
        <ele>705.5</ele>
        <time>2019-08-15T13:46:15Z</time>
      </trkpt>
      <trkpt lat="41.9973610" lon="-5.6909100">
        <ele>705.5</ele>
        <time>2019-08-15T13:46:16Z</time>
      </trkpt>
      <trkpt lat="41.9973850" lon="-5.6909620">
        <ele>705.5</ele>
        <time>2019-08-15T13:46:17Z</time>
      </trkpt>
      <trkpt lat="41.9974080" lon="-5.6910150">
        <ele>705.5</ele>
        <time>2019-08-15T13:46:18Z</time>
      </trkpt>
      <trkpt lat="41.9974290" lon="-5.6910680">
        <ele>705.5</ele>
        <time>2019-08-15T13:46:19Z</time>
      </trkpt>
      <trkpt lat="41.9974500" lon="-5.6911200">
        <ele>705.4</ele>
        <time>2019-08-15T13:46:20Z</time>
      </trkpt>
      <trkpt lat="41.9974710" lon="-5.6911750">
        <ele>705.4</ele>
        <time>2019-08-15T13:46:21Z</time>
      </trkpt>
      <trkpt lat="41.9974930" lon="-5.6912310">
        <ele>705.3</ele>
        <time>2019-08-15T13:46:22Z</time>
      </trkpt>
      <trkpt lat="41.9975130" lon="-5.6912880">
        <ele>705.3</ele>
        <time>2019-08-15T13:46:23Z</time>
      </trkpt>
      <trkpt lat="41.9975320" lon="-5.6913430">
        <ele>705.2</ele>
        <time>2019-08-15T13:46:24Z</time>
      </trkpt>
      <trkpt lat="41.9975500" lon="-5.6913970">
        <ele>705.2</ele>
        <time>2019-08-15T13:46:25Z</time>
      </trkpt>
      <trkpt lat="41.9975670" lon="-5.6914520">
        <ele>705.2</ele>
        <time>2019-08-15T13:46:26Z</time>
      </trkpt>
      <trkpt lat="41.9975830" lon="-5.6915080">
        <ele>705.3</ele>
        <time>2019-08-15T13:46:27Z</time>
      </trkpt>
      <trkpt lat="41.9975990" lon="-5.6915640">
        <ele>705.3</ele>
        <time>2019-08-15T13:46:28Z</time>
      </trkpt>
      <trkpt lat="41.9976170" lon="-5.6916220">
        <ele>705.3</ele>
        <time>2019-08-15T13:46:29Z</time>
      </trkpt>
      <trkpt lat="41.9976350" lon="-5.6916790">
        <ele>705.3</ele>
        <time>2019-08-15T13:46:30Z</time>
      </trkpt>
      <trkpt lat="41.9976530" lon="-5.6917370">
        <ele>705.4</ele>
        <time>2019-08-15T13:46:31Z</time>
      </trkpt>
      <trkpt lat="41.9976710" lon="-5.6917950">
        <ele>705.4</ele>
        <time>2019-08-15T13:46:32Z</time>
      </trkpt>
      <trkpt lat="41.9976890" lon="-5.6918540">
        <ele>705.4</ele>
        <time>2019-08-15T13:46:33Z</time>
      </trkpt>
      <trkpt lat="41.9977090" lon="-5.6919120">
        <ele>705.4</ele>
        <time>2019-08-15T13:46:34Z</time>
      </trkpt>
      <trkpt lat="41.9977310" lon="-5.6919710">
        <ele>705.4</ele>
        <time>2019-08-15T13:46:35Z</time>
      </trkpt>
      <trkpt lat="41.9977530" lon="-5.6920300">
        <ele>705.4</ele>
        <time>2019-08-15T13:46:36Z</time>
      </trkpt>
      <trkpt lat="41.9977740" lon="-5.6920880">
        <ele>705.4</ele>
        <time>2019-08-15T13:46:37Z</time>
      </trkpt>
      <trkpt lat="41.9977960" lon="-5.6921420">
        <ele>705.4</ele>
        <time>2019-08-15T13:46:38Z</time>
      </trkpt>
      <trkpt lat="41.9978190" lon="-5.6921930">
        <ele>705.4</ele>
        <time>2019-08-15T13:46:39Z</time>
      </trkpt>
      <trkpt lat="41.9978420" lon="-5.6922450">
        <ele>705.4</ele>
        <time>2019-08-15T13:46:40Z</time>
      </trkpt>
      <trkpt lat="41.9978670" lon="-5.6922960">
        <ele>705.5</ele>
        <time>2019-08-15T13:46:41Z</time>
      </trkpt>
      <trkpt lat="41.9978950" lon="-5.6923470">
        <ele>705.5</ele>
        <time>2019-08-15T13:46:42Z</time>
      </trkpt>
      <trkpt lat="41.9979230" lon="-5.6923960">
        <ele>705.5</ele>
        <time>2019-08-15T13:46:43Z</time>
      </trkpt>
      <trkpt lat="41.9979510" lon="-5.6924460">
        <ele>705.5</ele>
        <time>2019-08-15T13:46:44Z</time>
      </trkpt>
      <trkpt lat="41.9979780" lon="-5.6924950">
        <ele>705.6</ele>
        <time>2019-08-15T13:46:45Z</time>
      </trkpt>
      <trkpt lat="41.9980050" lon="-5.6925460">
        <ele>705.6</ele>
        <time>2019-08-15T13:46:46Z</time>
      </trkpt>
      <trkpt lat="41.9980310" lon="-5.6925960">
        <ele>705.6</ele>
        <time>2019-08-15T13:46:47Z</time>
      </trkpt>
      <trkpt lat="41.9980590" lon="-5.6926450">
        <ele>705.6</ele>
        <time>2019-08-15T13:46:48Z</time>
      </trkpt>
      <trkpt lat="41.9980880" lon="-5.6926930">
        <ele>705.6</ele>
        <time>2019-08-15T13:46:49Z</time>
      </trkpt>
      <trkpt lat="41.9981160" lon="-5.6927430">
        <ele>705.6</ele>
        <time>2019-08-15T13:46:50Z</time>
      </trkpt>
      <trkpt lat="41.9981450" lon="-5.6927920">
        <ele>705.6</ele>
        <time>2019-08-15T13:46:51Z</time>
      </trkpt>
      <trkpt lat="41.9981730" lon="-5.6928410">
        <ele>705.6</ele>
        <time>2019-08-15T13:46:52Z</time>
      </trkpt>
      <trkpt lat="41.9982000" lon="-5.6928920">
        <ele>705.6</ele>
        <time>2019-08-15T13:46:53Z</time>
      </trkpt>
      <trkpt lat="41.9982260" lon="-5.6929440">
        <ele>705.6</ele>
        <time>2019-08-15T13:46:54Z</time>
      </trkpt>
      <trkpt lat="41.9982510" lon="-5.6929980">
        <ele>705.6</ele>
        <time>2019-08-15T13:46:55Z</time>
      </trkpt>
      <trkpt lat="41.9982760" lon="-5.6930510">
        <ele>705.6</ele>
        <time>2019-08-15T13:46:56Z</time>
      </trkpt>
      <trkpt lat="41.9983010" lon="-5.6931030">
        <ele>705.6</ele>
        <time>2019-08-15T13:46:57Z</time>
      </trkpt>
      <trkpt lat="41.9983270" lon="-5.6931550">
        <ele>705.6</ele>
        <time>2019-08-15T13:46:58Z</time>
      </trkpt>
      <trkpt lat="41.9983520" lon="-5.6932060">
        <ele>705.6</ele>
        <time>2019-08-15T13:46:59Z</time>
      </trkpt>
      <trkpt lat="41.9983770" lon="-5.6932570">
        <ele>705.6</ele>
        <time>2019-08-15T13:47:00Z</time>
      </trkpt>
      <trkpt lat="41.9984010" lon="-5.6933080">
        <ele>705.6</ele>
        <time>2019-08-15T13:47:01Z</time>
      </trkpt>
      <trkpt lat="41.9984230" lon="-5.6933610">
        <ele>705.6</ele>
        <time>2019-08-15T13:47:02Z</time>
      </trkpt>
      <trkpt lat="41.9984450" lon="-5.6934150">
        <ele>705.5</ele>
        <time>2019-08-15T13:47:03Z</time>
      </trkpt>
      <trkpt lat="41.9984660" lon="-5.6934700">
        <ele>705.5</ele>
        <time>2019-08-15T13:47:04Z</time>
      </trkpt>
      <trkpt lat="41.9984880" lon="-5.6935250">
        <ele>705.5</ele>
        <time>2019-08-15T13:47:05Z</time>
      </trkpt>
      <trkpt lat="41.9985100" lon="-5.6935790">
        <ele>705.4</ele>
        <time>2019-08-15T13:47:06Z</time>
      </trkpt>
      <trkpt lat="41.9985320" lon="-5.6936330">
        <ele>705.4</ele>
        <time>2019-08-15T13:47:07Z</time>
      </trkpt>
      <trkpt lat="41.9985530" lon="-5.6936890">
        <ele>705.4</ele>
        <time>2019-08-15T13:47:08Z</time>
      </trkpt>
      <trkpt lat="41.9985720" lon="-5.6937450">
        <ele>705.4</ele>
        <time>2019-08-15T13:47:09Z</time>
      </trkpt>
      <trkpt lat="41.9985930" lon="-5.6938010">
        <ele>705.4</ele>
        <time>2019-08-15T13:47:10Z</time>
      </trkpt>
      <trkpt lat="41.9986140" lon="-5.6938570">
        <ele>705.3</ele>
        <time>2019-08-15T13:47:11Z</time>
      </trkpt>
      <trkpt lat="41.9986370" lon="-5.6939150">
        <ele>705.3</ele>
        <time>2019-08-15T13:47:12Z</time>
      </trkpt>
      <trkpt lat="41.9986600" lon="-5.6939720">
        <ele>705.3</ele>
        <time>2019-08-15T13:47:13Z</time>
      </trkpt>
      <trkpt lat="41.9986840" lon="-5.6940300">
        <ele>705.3</ele>
        <time>2019-08-15T13:47:14Z</time>
      </trkpt>
      <trkpt lat="41.9987060" lon="-5.6940880">
        <ele>705.2</ele>
        <time>2019-08-15T13:47:15Z</time>
      </trkpt>
      <trkpt lat="41.9987290" lon="-5.6941450">
        <ele>705.2</ele>
        <time>2019-08-15T13:47:16Z</time>
      </trkpt>
      <trkpt lat="41.9987520" lon="-5.6942000">
        <ele>705.2</ele>
        <time>2019-08-15T13:47:17Z</time>
      </trkpt>
      <trkpt lat="41.9987780" lon="-5.6942540">
        <ele>705.2</ele>
        <time>2019-08-15T13:47:18Z</time>
      </trkpt>
      <trkpt lat="41.9988030" lon="-5.6943090">
        <ele>705.2</ele>
        <time>2019-08-15T13:47:19Z</time>
      </trkpt>
      <trkpt lat="41.9988270" lon="-5.6943650">
        <ele>705.1</ele>
        <time>2019-08-15T13:47:20Z</time>
      </trkpt>
      <trkpt lat="41.9988520" lon="-5.6944210">
        <ele>705.1</ele>
        <time>2019-08-15T13:47:21Z</time>
      </trkpt>
      <trkpt lat="41.9988750" lon="-5.6944780">
        <ele>705.1</ele>
        <time>2019-08-15T13:47:22Z</time>
      </trkpt>
      <trkpt lat="41.9988970" lon="-5.6945360">
        <ele>705.1</ele>
        <time>2019-08-15T13:47:23Z</time>
      </trkpt>
      <trkpt lat="41.9989170" lon="-5.6945940">
        <ele>705.0</ele>
        <time>2019-08-15T13:47:24Z</time>
      </trkpt>
      <trkpt lat="41.9989340" lon="-5.6946520">
        <ele>705.0</ele>
        <time>2019-08-15T13:47:25Z</time>
      </trkpt>
      <trkpt lat="41.9989480" lon="-5.6947100">
        <ele>705.0</ele>
        <time>2019-08-15T13:47:26Z</time>
      </trkpt>
      <trkpt lat="41.9989610" lon="-5.6947680">
        <ele>705.0</ele>
        <time>2019-08-15T13:47:27Z</time>
      </trkpt>
      <trkpt lat="41.9989720" lon="-5.6948270">
        <ele>704.9</ele>
        <time>2019-08-15T13:47:28Z</time>
      </trkpt>
      <trkpt lat="41.9989790" lon="-5.6948850">
        <ele>704.9</ele>
        <time>2019-08-15T13:47:29Z</time>
      </trkpt>
      <trkpt lat="41.9989830" lon="-5.6949420">
        <ele>704.9</ele>
        <time>2019-08-15T13:47:30Z</time>
      </trkpt>
      <trkpt lat="41.9989850" lon="-5.6950000">
        <ele>704.9</ele>
        <time>2019-08-15T13:47:31Z</time>
      </trkpt>
      <trkpt lat="41.9989870" lon="-5.6950570">
        <ele>704.9</ele>
        <time>2019-08-15T13:47:32Z</time>
      </trkpt>
      <trkpt lat="41.9989870" lon="-5.6951150">
        <ele>704.8</ele>
        <time>2019-08-15T13:47:33Z</time>
      </trkpt>
      <trkpt lat="41.9989840" lon="-5.6951710">
        <ele>704.8</ele>
        <time>2019-08-15T13:47:34Z</time>
      </trkpt>
      <trkpt lat="41.9989830" lon="-5.6952290">
        <ele>704.8</ele>
        <time>2019-08-15T13:47:35Z</time>
      </trkpt>
      <trkpt lat="41.9989810" lon="-5.6952880">
        <ele>704.8</ele>
        <time>2019-08-15T13:47:36Z</time>
      </trkpt>
      <trkpt lat="41.9989790" lon="-5.6953490">
        <ele>704.8</ele>
        <time>2019-08-15T13:47:37Z</time>
      </trkpt>
      <trkpt lat="41.9989790" lon="-5.6954120">
        <ele>704.7</ele>
        <time>2019-08-15T13:47:38Z</time>
      </trkpt>
      <trkpt lat="41.9989810" lon="-5.6954770">
        <ele>704.7</ele>
        <time>2019-08-15T13:47:39Z</time>
      </trkpt>
      <trkpt lat="41.9989850" lon="-5.6955410">
        <ele>704.7</ele>
        <time>2019-08-15T13:47:40Z</time>
      </trkpt>
      <trkpt lat="41.9989930" lon="-5.6956040">
        <ele>704.7</ele>
        <time>2019-08-15T13:47:41Z</time>
      </trkpt>
      <trkpt lat="41.9990040" lon="-5.6956680">
        <ele>704.6</ele>
        <time>2019-08-15T13:47:42Z</time>
      </trkpt>
      <trkpt lat="41.9990220" lon="-5.6957270">
        <ele>704.6</ele>
        <time>2019-08-15T13:47:43Z</time>
      </trkpt>
      <trkpt lat="41.9990450" lon="-5.6957830">
        <ele>704.6</ele>
        <time>2019-08-15T13:47:44Z</time>
      </trkpt>
      <trkpt lat="41.9990700" lon="-5.6958380">
        <ele>704.6</ele>
        <time>2019-08-15T13:47:45Z</time>
      </trkpt>
      <trkpt lat="41.9990970" lon="-5.6958920">
        <ele>704.6</ele>
        <time>2019-08-15T13:47:46Z</time>
      </trkpt>
      <trkpt lat="41.9991230" lon="-5.6959440">
        <ele>704.5</ele>
        <time>2019-08-15T13:47:47Z</time>
      </trkpt>
      <trkpt lat="41.9991470" lon="-5.6959970">
        <ele>704.5</ele>
        <time>2019-08-15T13:47:48Z</time>
      </trkpt>
      <trkpt lat="41.9991700" lon="-5.6960480">
        <ele>704.5</ele>
        <time>2019-08-15T13:47:49Z</time>
      </trkpt>
      <trkpt lat="41.9991930" lon="-5.6960980">
        <ele>704.5</ele>
        <time>2019-08-15T13:47:50Z</time>
      </trkpt>
      <trkpt lat="41.9992170" lon="-5.6961480">
        <ele>704.4</ele>
        <time>2019-08-15T13:47:51Z</time>
      </trkpt>
      <trkpt lat="41.9992430" lon="-5.6961980">
        <ele>704.4</ele>
        <time>2019-08-15T13:47:52Z</time>
      </trkpt>
      <trkpt lat="41.9992670" lon="-5.6962480">
        <ele>704.4</ele>
        <time>2019-08-15T13:47:53Z</time>
      </trkpt>
      <trkpt lat="41.9992910" lon="-5.6962990">
        <ele>704.4</ele>
        <time>2019-08-15T13:47:54Z</time>
      </trkpt>
      <trkpt lat="41.9993120" lon="-5.6963510">
        <ele>704.4</ele>
        <time>2019-08-15T13:47:55Z</time>
      </trkpt>
      <trkpt lat="41.9993320" lon="-5.6964040">
        <ele>704.3</ele>
        <time>2019-08-15T13:47:56Z</time>
      </trkpt>
      <trkpt lat="41.9993500" lon="-5.6964580">
        <ele>704.3</ele>
        <time>2019-08-15T13:47:57Z</time>
      </trkpt>
      <trkpt lat="41.9993680" lon="-5.6965150">
        <ele>704.3</ele>
        <time>2019-08-15T13:47:58Z</time>
      </trkpt>
      <trkpt lat="41.9993850" lon="-5.6965710">
        <ele>704.3</ele>
        <time>2019-08-15T13:47:59Z</time>
      </trkpt>
      <trkpt lat="41.9994030" lon="-5.6966270">
        <ele>704.3</ele>
        <time>2019-08-15T13:48:00Z</time>
      </trkpt>
      <trkpt lat="41.9994200" lon="-5.6966820">
        <ele>704.3</ele>
        <time>2019-08-15T13:48:01Z</time>
      </trkpt>
      <trkpt lat="41.9994340" lon="-5.6967350">
        <ele>704.4</ele>
        <time>2019-08-15T13:48:02Z</time>
      </trkpt>
      <trkpt lat="41.9994480" lon="-5.6967890">
        <ele>704.4</ele>
        <time>2019-08-15T13:48:03Z</time>
      </trkpt>
      <trkpt lat="41.9994630" lon="-5.6968440">
        <ele>704.5</ele>
        <time>2019-08-15T13:48:04Z</time>
      </trkpt>
      <trkpt lat="41.9994810" lon="-5.6969010">
        <ele>704.6</ele>
        <time>2019-08-15T13:48:05Z</time>
      </trkpt>
      <trkpt lat="41.9995000" lon="-5.6969580">
        <ele>704.7</ele>
        <time>2019-08-15T13:48:06Z</time>
      </trkpt>
      <trkpt lat="41.9995190" lon="-5.6970150">
        <ele>704.7</ele>
        <time>2019-08-15T13:48:07Z</time>
      </trkpt>
      <trkpt lat="41.9995340" lon="-5.6970710">
        <ele>704.8</ele>
        <time>2019-08-15T13:48:08Z</time>
      </trkpt>
      <trkpt lat="41.9995490" lon="-5.6971270">
        <ele>704.8</ele>
        <time>2019-08-15T13:48:09Z</time>
      </trkpt>
      <trkpt lat="41.9995640" lon="-5.6971820">
        <ele>704.8</ele>
        <time>2019-08-15T13:48:10Z</time>
      </trkpt>
      <trkpt lat="41.9995790" lon="-5.6972320">
        <ele>704.7</ele>
        <time>2019-08-15T13:48:11Z</time>
      </trkpt>
      <trkpt lat="41.9995960" lon="-5.6972820">
        <ele>704.7</ele>
        <time>2019-08-15T13:48:12Z</time>
      </trkpt>
      <trkpt lat="41.9996130" lon="-5.6973350">
        <ele>704.6</ele>
        <time>2019-08-15T13:48:13Z</time>
      </trkpt>
      <trkpt lat="41.9996320" lon="-5.6973870">
        <ele>704.5</ele>
        <time>2019-08-15T13:48:14Z</time>
      </trkpt>
      <trkpt lat="41.9996520" lon="-5.6974400">
        <ele>704.3</ele>
        <time>2019-08-15T13:48:15Z</time>
      </trkpt>
      <trkpt lat="41.9996740" lon="-5.6974950">
        <ele>704.2</ele>
        <time>2019-08-15T13:48:16Z</time>
      </trkpt>
      <trkpt lat="41.9996930" lon="-5.6975510">
        <ele>704.1</ele>
        <time>2019-08-15T13:48:17Z</time>
      </trkpt>
      <trkpt lat="41.9997090" lon="-5.6976100">
        <ele>704.0</ele>
        <time>2019-08-15T13:48:18Z</time>
      </trkpt>
      <trkpt lat="41.9997260" lon="-5.6976710">
        <ele>703.9</ele>
        <time>2019-08-15T13:48:19Z</time>
      </trkpt>
      <trkpt lat="41.9997430" lon="-5.6977310">
        <ele>703.9</ele>
        <time>2019-08-15T13:48:20Z</time>
      </trkpt>
      <trkpt lat="41.9997590" lon="-5.6977930">
        <ele>703.8</ele>
        <time>2019-08-15T13:48:21Z</time>
      </trkpt>
      <trkpt lat="41.9997740" lon="-5.6978560">
        <ele>703.8</ele>
        <time>2019-08-15T13:48:22Z</time>
      </trkpt>
      <trkpt lat="41.9997870" lon="-5.6979180">
        <ele>703.8</ele>
        <time>2019-08-15T13:48:23Z</time>
      </trkpt>
      <trkpt lat="41.9997990" lon="-5.6979790">
        <ele>703.8</ele>
        <time>2019-08-15T13:48:24Z</time>
      </trkpt>
      <trkpt lat="41.9998080" lon="-5.6980390">
        <ele>703.8</ele>
        <time>2019-08-15T13:48:25Z</time>
      </trkpt>
      <trkpt lat="41.9998190" lon="-5.6980970">
        <ele>703.9</ele>
        <time>2019-08-15T13:48:26Z</time>
      </trkpt>
      <trkpt lat="41.9998330" lon="-5.6981530">
        <ele>703.9</ele>
        <time>2019-08-15T13:48:27Z</time>
      </trkpt>
      <trkpt lat="41.9998500" lon="-5.6982100">
        <ele>704.0</ele>
        <time>2019-08-15T13:48:28Z</time>
      </trkpt>
      <trkpt lat="41.9998670" lon="-5.6982670">
        <ele>704.1</ele>
        <time>2019-08-15T13:48:29Z</time>
      </trkpt>
      <trkpt lat="41.9998830" lon="-5.6983250">
        <ele>704.3</ele>
        <time>2019-08-15T13:48:30Z</time>
      </trkpt>
      <trkpt lat="41.9998990" lon="-5.6983820">
        <ele>704.4</ele>
        <time>2019-08-15T13:48:31Z</time>
      </trkpt>
      <trkpt lat="41.9999170" lon="-5.6984410">
        <ele>704.6</ele>
        <time>2019-08-15T13:48:32Z</time>
      </trkpt>
      <trkpt lat="41.9999350" lon="-5.6985000">
        <ele>704.7</ele>
        <time>2019-08-15T13:48:33Z</time>
      </trkpt>
      <trkpt lat="41.9999550" lon="-5.6985600">
        <ele>704.8</ele>
        <time>2019-08-15T13:48:34Z</time>
      </trkpt>
      <trkpt lat="41.9999760" lon="-5.6986200">
        <ele>704.9</ele>
        <time>2019-08-15T13:48:35Z</time>
      </trkpt>
      <trkpt lat="41.9999970" lon="-5.6986790">
        <ele>704.9</ele>
        <time>2019-08-15T13:48:36Z</time>
      </trkpt>
      <trkpt lat="42.0000180" lon="-5.6987360">
        <ele>704.9</ele>
        <time>2019-08-15T13:48:37Z</time>
      </trkpt>
      <trkpt lat="42.0000410" lon="-5.6987910">
        <ele>704.9</ele>
        <time>2019-08-15T13:48:38Z</time>
      </trkpt>
      <trkpt lat="42.0000630" lon="-5.6988450">
        <ele>704.9</ele>
        <time>2019-08-15T13:48:39Z</time>
      </trkpt>
      <trkpt lat="42.0000880" lon="-5.6988940">
        <ele>704.9</ele>
        <time>2019-08-15T13:48:40Z</time>
      </trkpt>
      <trkpt lat="42.0001180" lon="-5.6989360">
        <ele>704.9</ele>
        <time>2019-08-15T13:48:41Z</time>
      </trkpt>
      <trkpt lat="42.0001530" lon="-5.6989730">
        <ele>705.0</ele>
        <time>2019-08-15T13:48:42Z</time>
      </trkpt>
      <trkpt lat="42.0001920" lon="-5.6990070">
        <ele>705.0</ele>
        <time>2019-08-15T13:48:43Z</time>
      </trkpt>
      <trkpt lat="42.0002320" lon="-5.6990400">
        <ele>705.0</ele>
        <time>2019-08-15T13:48:44Z</time>
      </trkpt>
      <trkpt lat="42.0002730" lon="-5.6990730">
        <ele>705.1</ele>
        <time>2019-08-15T13:48:45Z</time>
      </trkpt>
      <trkpt lat="42.0003150" lon="-5.6991060">
        <ele>705.1</ele>
        <time>2019-08-15T13:48:46Z</time>
      </trkpt>
      <trkpt lat="42.0003570" lon="-5.6991430">
        <ele>705.3</ele>
        <time>2019-08-15T13:48:47Z</time>
      </trkpt>
      <trkpt lat="42.0003980" lon="-5.6991820">
        <ele>705.4</ele>
        <time>2019-08-15T13:48:48Z</time>
      </trkpt>
      <trkpt lat="42.0004360" lon="-5.6992260">
        <ele>705.5</ele>
        <time>2019-08-15T13:48:49Z</time>
      </trkpt>
      <trkpt lat="42.0004700" lon="-5.6992740">
        <ele>705.7</ele>
        <time>2019-08-15T13:48:50Z</time>
      </trkpt>
      <trkpt lat="42.0005000" lon="-5.6993240">
        <ele>705.8</ele>
        <time>2019-08-15T13:48:51Z</time>
      </trkpt>
      <trkpt lat="42.0005270" lon="-5.6993770">
        <ele>705.8</ele>
        <time>2019-08-15T13:48:52Z</time>
      </trkpt>
      <trkpt lat="42.0005500" lon="-5.6994320">
        <ele>705.8</ele>
        <time>2019-08-15T13:48:53Z</time>
      </trkpt>
      <trkpt lat="42.0005720" lon="-5.6994900">
        <ele>705.9</ele>
        <time>2019-08-15T13:48:54Z</time>
      </trkpt>
      <trkpt lat="42.0005910" lon="-5.6995500">
        <ele>705.9</ele>
        <time>2019-08-15T13:48:55Z</time>
      </trkpt>
      <trkpt lat="42.0006080" lon="-5.6996120">
        <ele>705.9</ele>
        <time>2019-08-15T13:48:56Z</time>
      </trkpt>
      <trkpt lat="42.0006250" lon="-5.6996720">
        <ele>705.9</ele>
        <time>2019-08-15T13:48:57Z</time>
      </trkpt>
      <trkpt lat="42.0006410" lon="-5.6997320">
        <ele>705.9</ele>
        <time>2019-08-15T13:48:58Z</time>
      </trkpt>
      <trkpt lat="42.0006570" lon="-5.6997890">
        <ele>705.9</ele>
        <time>2019-08-15T13:48:59Z</time>
      </trkpt>
      <trkpt lat="42.0006740" lon="-5.6998440">
        <ele>705.9</ele>
        <time>2019-08-15T13:49:00Z</time>
      </trkpt>
      <trkpt lat="42.0006940" lon="-5.6998970">
        <ele>705.9</ele>
        <time>2019-08-15T13:49:01Z</time>
      </trkpt>
      <trkpt lat="42.0007130" lon="-5.6999480">
        <ele>705.9</ele>
        <time>2019-08-15T13:49:02Z</time>
      </trkpt>
      <trkpt lat="42.0007330" lon="-5.7000010">
        <ele>705.9</ele>
        <time>2019-08-15T13:49:03Z</time>
      </trkpt>
      <trkpt lat="42.0007560" lon="-5.7000560">
        <ele>705.9</ele>
        <time>2019-08-15T13:49:04Z</time>
      </trkpt>
      <trkpt lat="42.0007780" lon="-5.7001120">
        <ele>705.9</ele>
        <time>2019-08-15T13:49:05Z</time>
      </trkpt>
      <trkpt lat="42.0007980" lon="-5.7001710">
        <ele>705.9</ele>
        <time>2019-08-15T13:49:06Z</time>
      </trkpt>
      <trkpt lat="42.0008170" lon="-5.7002300">
        <ele>705.9</ele>
        <time>2019-08-15T13:49:07Z</time>
      </trkpt>
      <trkpt lat="42.0008340" lon="-5.7002880">
        <ele>705.9</ele>
        <time>2019-08-15T13:49:08Z</time>
      </trkpt>
      <trkpt lat="42.0008470" lon="-5.7003470">
        <ele>705.9</ele>
        <time>2019-08-15T13:49:09Z</time>
      </trkpt>
      <trkpt lat="42.0008560" lon="-5.7004060">
        <ele>705.9</ele>
        <time>2019-08-15T13:49:10Z</time>
      </trkpt>
      <trkpt lat="42.0008610" lon="-5.7004670">
        <ele>706.0</ele>
        <time>2019-08-15T13:49:11Z</time>
      </trkpt>
      <trkpt lat="42.0008630" lon="-5.7005290">
        <ele>706.0</ele>
        <time>2019-08-15T13:49:12Z</time>
      </trkpt>
      <trkpt lat="42.0008600" lon="-5.7005900">
        <ele>706.0</ele>
        <time>2019-08-15T13:49:13Z</time>
      </trkpt>
      <trkpt lat="42.0008560" lon="-5.7006500">
        <ele>706.1</ele>
        <time>2019-08-15T13:49:14Z</time>
      </trkpt>
      <trkpt lat="42.0008510" lon="-5.7007100">
        <ele>706.2</ele>
        <time>2019-08-15T13:49:15Z</time>
      </trkpt>
      <trkpt lat="42.0008420" lon="-5.7007680">
        <ele>706.3</ele>
        <time>2019-08-15T13:49:16Z</time>
      </trkpt>
      <trkpt lat="42.0008300" lon="-5.7008260">
        <ele>706.5</ele>
        <time>2019-08-15T13:49:17Z</time>
      </trkpt>
      <trkpt lat="42.0008160" lon="-5.7008860">
        <ele>706.6</ele>
        <time>2019-08-15T13:49:18Z</time>
      </trkpt>
      <trkpt lat="42.0008010" lon="-5.7009440">
        <ele>706.8</ele>
        <time>2019-08-15T13:49:19Z</time>
      </trkpt>
      <trkpt lat="42.0007880" lon="-5.7010030">
        <ele>706.9</ele>
        <time>2019-08-15T13:49:20Z</time>
      </trkpt>
      <trkpt lat="42.0007780" lon="-5.7010620">
        <ele>707.0</ele>
        <time>2019-08-15T13:49:21Z</time>
      </trkpt>
      <trkpt lat="42.0007730" lon="-5.7011230">
        <ele>707.0</ele>
        <time>2019-08-15T13:49:22Z</time>
      </trkpt>
      <trkpt lat="42.0007730" lon="-5.7011850">
        <ele>707.1</ele>
        <time>2019-08-15T13:49:23Z</time>
      </trkpt>
      <trkpt lat="42.0007750" lon="-5.7012450">
        <ele>707.1</ele>
        <time>2019-08-15T13:49:24Z</time>
      </trkpt>
      <trkpt lat="42.0007750" lon="-5.7013070">
        <ele>707.1</ele>
        <time>2019-08-15T13:49:25Z</time>
      </trkpt>
      <trkpt lat="42.0007730" lon="-5.7013680">
        <ele>707.1</ele>
        <time>2019-08-15T13:49:26Z</time>
      </trkpt>
      <trkpt lat="42.0007680" lon="-5.7014280">
        <ele>707.1</ele>
        <time>2019-08-15T13:49:27Z</time>
      </trkpt>
      <trkpt lat="42.0007590" lon="-5.7014880">
        <ele>707.1</ele>
        <time>2019-08-15T13:49:28Z</time>
      </trkpt>
      <trkpt lat="42.0007470" lon="-5.7015480">
        <ele>707.1</ele>
        <time>2019-08-15T13:49:29Z</time>
      </trkpt>
      <trkpt lat="42.0007320" lon="-5.7016070">
        <ele>707.1</ele>
        <time>2019-08-15T13:49:30Z</time>
      </trkpt>
      <trkpt lat="42.0007130" lon="-5.7016640">
        <ele>707.1</ele>
        <time>2019-08-15T13:49:31Z</time>
      </trkpt>
      <trkpt lat="42.0006920" lon="-5.7017170">
        <ele>707.1</ele>
        <time>2019-08-15T13:49:32Z</time>
      </trkpt>
      <trkpt lat="42.0006690" lon="-5.7017700">
        <ele>707.1</ele>
        <time>2019-08-15T13:49:33Z</time>
      </trkpt>
      <trkpt lat="42.0006460" lon="-5.7018190">
        <ele>707.1</ele>
        <time>2019-08-15T13:49:34Z</time>
      </trkpt>
      <trkpt lat="42.0006210" lon="-5.7018640">
        <ele>707.1</ele>
        <time>2019-08-15T13:49:35Z</time>
      </trkpt>
      <trkpt lat="42.0005980" lon="-5.7019070">
        <ele>707.1</ele>
        <time>2019-08-15T13:49:36Z</time>
      </trkpt>
      <trkpt lat="42.0005780" lon="-5.7019470">
        <ele>707.1</ele>
        <time>2019-08-15T13:49:37Z</time>
      </trkpt>
      <trkpt lat="42.0005580" lon="-5.7019860">
        <ele>707.1</ele>
        <time>2019-08-15T13:49:38Z</time>
      </trkpt>
      <trkpt lat="42.0005390" lon="-5.7020250">
        <ele>707.1</ele>
        <time>2019-08-15T13:49:39Z</time>
      </trkpt>
      <trkpt lat="42.0005240" lon="-5.7020630">
        <ele>707.1</ele>
        <time>2019-08-15T13:49:40Z</time>
      </trkpt>
      <trkpt lat="42.0005130" lon="-5.7021020">
        <ele>707.1</ele>
        <time>2019-08-15T13:49:41Z</time>
      </trkpt>
      <trkpt lat="42.0005060" lon="-5.7021410">
        <ele>707.1</ele>
        <time>2019-08-15T13:49:42Z</time>
      </trkpt>
      <trkpt lat="42.0005070" lon="-5.7021760">
        <ele>707.1</ele>
        <time>2019-08-15T13:49:43Z</time>
      </trkpt>
      <trkpt lat="42.0005250" lon="-5.7022370">
        <ele>707.2</ele>
        <time>2019-08-15T13:49:45Z</time>
      </trkpt>
      <trkpt lat="42.0005360" lon="-5.7022960">
        <ele>707.2</ele>
        <time>2019-08-15T13:49:47Z</time>
      </trkpt>
      <trkpt lat="42.0005440" lon="-5.7023660">
        <ele>707.2</ele>
        <time>2019-08-15T13:49:49Z</time>
      </trkpt>
      <trkpt lat="42.0005490" lon="-5.7024070">
        <ele>707.2</ele>
        <time>2019-08-15T13:49:50Z</time>
      </trkpt>
      <trkpt lat="42.0005530" lon="-5.7024510">
        <ele>707.2</ele>
        <time>2019-08-15T13:49:51Z</time>
      </trkpt>
      <trkpt lat="42.0005570" lon="-5.7024970">
        <ele>707.1</ele>
        <time>2019-08-15T13:49:52Z</time>
      </trkpt>
      <trkpt lat="42.0005620" lon="-5.7025460">
        <ele>707.1</ele>
        <time>2019-08-15T13:49:53Z</time>
      </trkpt>
      <trkpt lat="42.0005690" lon="-5.7025950">
        <ele>707.1</ele>
        <time>2019-08-15T13:49:54Z</time>
      </trkpt>
      <trkpt lat="42.0005760" lon="-5.7026440">
        <ele>707.1</ele>
        <time>2019-08-15T13:49:55Z</time>
      </trkpt>
      <trkpt lat="42.0005820" lon="-5.7026920">
        <ele>707.1</ele>
        <time>2019-08-15T13:49:56Z</time>
      </trkpt>
      <trkpt lat="42.0005890" lon="-5.7027390">
        <ele>707.1</ele>
        <time>2019-08-15T13:49:57Z</time>
      </trkpt>
      <trkpt lat="42.0005990" lon="-5.7027890">
        <ele>707.1</ele>
        <time>2019-08-15T13:49:58Z</time>
      </trkpt>
      <trkpt lat="42.0006150" lon="-5.7028390">
        <ele>707.1</ele>
        <time>2019-08-15T13:49:59Z</time>
      </trkpt>
      <trkpt lat="42.0006350" lon="-5.7028900">
        <ele>707.1</ele>
        <time>2019-08-15T13:50:00Z</time>
      </trkpt>
      <trkpt lat="42.0006580" lon="-5.7029420">
        <ele>707.1</ele>
        <time>2019-08-15T13:50:01Z</time>
      </trkpt>
      <trkpt lat="42.0006840" lon="-5.7029930">
        <ele>707.1</ele>
        <time>2019-08-15T13:50:02Z</time>
      </trkpt>
      <trkpt lat="42.0007120" lon="-5.7030430">
        <ele>707.1</ele>
        <time>2019-08-15T13:50:03Z</time>
      </trkpt>
      <trkpt lat="42.0007430" lon="-5.7030920">
        <ele>707.1</ele>
        <time>2019-08-15T13:50:04Z</time>
      </trkpt>
      <trkpt lat="42.0007750" lon="-5.7031410">
        <ele>707.1</ele>
        <time>2019-08-15T13:50:05Z</time>
      </trkpt>
      <trkpt lat="42.0008090" lon="-5.7031910">
        <ele>707.1</ele>
        <time>2019-08-15T13:50:06Z</time>
      </trkpt>
      <trkpt lat="42.0008430" lon="-5.7032380">
        <ele>707.1</ele>
        <time>2019-08-15T13:50:07Z</time>
      </trkpt>
      <trkpt lat="42.0008780" lon="-5.7032840">
        <ele>707.1</ele>
        <time>2019-08-15T13:50:08Z</time>
      </trkpt>
      <trkpt lat="42.0009120" lon="-5.7033310">
        <ele>707.1</ele>
        <time>2019-08-15T13:50:09Z</time>
      </trkpt>
      <trkpt lat="42.0009470" lon="-5.7033790">
        <ele>707.1</ele>
        <time>2019-08-15T13:50:10Z</time>
      </trkpt>
      <trkpt lat="42.0009820" lon="-5.7034260">
        <ele>707.1</ele>
        <time>2019-08-15T13:50:11Z</time>
      </trkpt>
      <trkpt lat="42.0010140" lon="-5.7034730">
        <ele>707.0</ele>
        <time>2019-08-15T13:50:12Z</time>
      </trkpt>
      <trkpt lat="42.0010440" lon="-5.7035180">
        <ele>707.0</ele>
        <time>2019-08-15T13:50:13Z</time>
      </trkpt>
      <trkpt lat="42.0010720" lon="-5.7035620">
        <ele>707.0</ele>
        <time>2019-08-15T13:50:14Z</time>
      </trkpt>
      <trkpt lat="42.0011020" lon="-5.7036060">
        <ele>707.0</ele>
        <time>2019-08-15T13:50:15Z</time>
      </trkpt>
      <trkpt lat="42.0011330" lon="-5.7036510">
        <ele>707.0</ele>
        <time>2019-08-15T13:50:16Z</time>
      </trkpt>
      <trkpt lat="42.0011640" lon="-5.7036960">
        <ele>707.0</ele>
        <time>2019-08-15T13:50:17Z</time>
      </trkpt>
      <trkpt lat="42.0011960" lon="-5.7037430">
        <ele>707.0</ele>
        <time>2019-08-15T13:50:18Z</time>
      </trkpt>
      <trkpt lat="42.0012280" lon="-5.7037920">
        <ele>707.0</ele>
        <time>2019-08-15T13:50:19Z</time>
      </trkpt>
      <trkpt lat="42.0012580" lon="-5.7038420">
        <ele>707.0</ele>
        <time>2019-08-15T13:50:20Z</time>
      </trkpt>
      <trkpt lat="42.0012870" lon="-5.7038940">
        <ele>707.0</ele>
        <time>2019-08-15T13:50:21Z</time>
      </trkpt>
      <trkpt lat="42.0013170" lon="-5.7039470">
        <ele>707.0</ele>
        <time>2019-08-15T13:50:22Z</time>
      </trkpt>
      <trkpt lat="42.0013470" lon="-5.7039990">
        <ele>707.0</ele>
        <time>2019-08-15T13:50:23Z</time>
      </trkpt>
      <trkpt lat="42.0013770" lon="-5.7040520">
        <ele>707.0</ele>
        <time>2019-08-15T13:50:24Z</time>
      </trkpt>
      <trkpt lat="42.0014060" lon="-5.7041070">
        <ele>707.0</ele>
        <time>2019-08-15T13:50:25Z</time>
      </trkpt>
      <trkpt lat="42.0014340" lon="-5.7041640">
        <ele>707.0</ele>
        <time>2019-08-15T13:50:26Z</time>
      </trkpt>
      <trkpt lat="42.0014630" lon="-5.7042180">
        <ele>706.9</ele>
        <time>2019-08-15T13:50:27Z</time>
      </trkpt>
      <trkpt lat="42.0014920" lon="-5.7042720">
        <ele>706.9</ele>
        <time>2019-08-15T13:50:28Z</time>
      </trkpt>
      <trkpt lat="42.0015180" lon="-5.7043280">
        <ele>706.9</ele>
        <time>2019-08-15T13:50:29Z</time>
      </trkpt>
      <trkpt lat="42.0015410" lon="-5.7043850">
        <ele>706.8</ele>
        <time>2019-08-15T13:50:30Z</time>
      </trkpt>
      <trkpt lat="42.0015640" lon="-5.7044440">
        <ele>706.7</ele>
        <time>2019-08-15T13:50:31Z</time>
      </trkpt>
      <trkpt lat="42.0015860" lon="-5.7045010">
        <ele>706.6</ele>
        <time>2019-08-15T13:50:32Z</time>
      </trkpt>
      <trkpt lat="42.0016070" lon="-5.7045580">
        <ele>706.5</ele>
        <time>2019-08-15T13:50:33Z</time>
      </trkpt>
      <trkpt lat="42.0016280" lon="-5.7046150">
        <ele>706.4</ele>
        <time>2019-08-15T13:50:34Z</time>
      </trkpt>
      <trkpt lat="42.0016480" lon="-5.7046720">
        <ele>706.3</ele>
        <time>2019-08-15T13:50:35Z</time>
      </trkpt>
      <trkpt lat="42.0016670" lon="-5.7047330">
        <ele>706.2</ele>
        <time>2019-08-15T13:50:36Z</time>
      </trkpt>
      <trkpt lat="42.0016850" lon="-5.7047940">
        <ele>706.2</ele>
        <time>2019-08-15T13:50:37Z</time>
      </trkpt>
      <trkpt lat="42.0017020" lon="-5.7048590">
        <ele>706.1</ele>
        <time>2019-08-15T13:50:38Z</time>
      </trkpt>
      <trkpt lat="42.0017150" lon="-5.7049250">
        <ele>706.1</ele>
        <time>2019-08-15T13:50:39Z</time>
      </trkpt>
      <trkpt lat="42.0017240" lon="-5.7049910">
        <ele>706.0</ele>
        <time>2019-08-15T13:50:40Z</time>
      </trkpt>
      <trkpt lat="42.0017310" lon="-5.7050540">
        <ele>706.0</ele>
        <time>2019-08-15T13:50:41Z</time>
      </trkpt>
      <trkpt lat="42.0017350" lon="-5.7051150">
        <ele>706.0</ele>
        <time>2019-08-15T13:50:42Z</time>
      </trkpt>
      <trkpt lat="42.0017270" lon="-5.7051750">
        <ele>706.0</ele>
        <time>2019-08-15T13:50:43Z</time>
      </trkpt>
      <trkpt lat="42.0017070" lon="-5.7052210">
        <ele>706.0</ele>
        <time>2019-08-15T13:50:44Z</time>
      </trkpt>
      <trkpt lat="42.0016790" lon="-5.7052560">
        <ele>705.9</ele>
        <time>2019-08-15T13:50:45Z</time>
      </trkpt>
      <trkpt lat="42.0016460" lon="-5.7052780">
        <ele>705.9</ele>
        <time>2019-08-15T13:50:46Z</time>
      </trkpt>
      <trkpt lat="42.0016110" lon="-5.7052940">
        <ele>705.9</ele>
        <time>2019-08-15T13:50:47Z</time>
      </trkpt>
      <trkpt lat="42.0015780" lon="-5.7053040">
        <ele>705.9</ele>
        <time>2019-08-15T13:50:48Z</time>
      </trkpt>
      <trkpt lat="42.0015450" lon="-5.7053090">
        <ele>705.9</ele>
        <time>2019-08-15T13:50:49Z</time>
      </trkpt>
      <trkpt lat="42.0015160" lon="-5.7052990">
        <ele>705.9</ele>
        <time>2019-08-15T13:50:50Z</time>
      </trkpt>
      <trkpt lat="42.0014730" lon="-5.7052820">
        <ele>705.9</ele>
        <time>2019-08-15T13:50:51Z</time>
      </trkpt>
      <trkpt lat="42.0014340" lon="-5.7052490">
        <ele>705.9</ele>
        <time>2019-08-15T13:50:52Z</time>
      </trkpt>
      <trkpt lat="42.0014020" lon="-5.7052160">
        <ele>705.9</ele>
        <time>2019-08-15T13:50:53Z</time>
      </trkpt>
      <trkpt lat="42.0013700" lon="-5.7051780">
        <ele>706.0</ele>
        <time>2019-08-15T13:50:54Z</time>
      </trkpt>
      <trkpt lat="42.0013390" lon="-5.7051370">
        <ele>706.0</ele>
        <time>2019-08-15T13:50:55Z</time>
      </trkpt>
      <trkpt lat="42.0013120" lon="-5.7051010">
        <ele>706.0</ele>
        <time>2019-08-15T13:50:56Z</time>
      </trkpt>
      <trkpt lat="42.0012860" lon="-5.7050700">
        <ele>706.0</ele>
        <time>2019-08-15T13:50:57Z</time>
      </trkpt>
      <trkpt lat="42.0012590" lon="-5.7050460">
        <ele>706.0</ele>
        <time>2019-08-15T13:50:58Z</time>
      </trkpt>
      <trkpt lat="42.0012300" lon="-5.7050210">
        <ele>705.9</ele>
        <time>2019-08-15T13:50:59Z</time>
      </trkpt>
      <trkpt lat="42.0011980" lon="-5.7049990">
        <ele>705.9</ele>
        <time>2019-08-15T13:51:00Z</time>
      </trkpt>
      <trkpt lat="42.0011630" lon="-5.7049730">
        <ele>705.8</ele>
        <time>2019-08-15T13:51:01Z</time>
      </trkpt>
      <trkpt lat="42.0011330" lon="-5.7049480">
        <ele>705.7</ele>
        <time>2019-08-15T13:51:02Z</time>
      </trkpt>
      <trkpt lat="42.0011040" lon="-5.7049230">
        <ele>705.6</ele>
        <time>2019-08-15T13:51:03Z</time>
      </trkpt>
      <trkpt lat="42.0010730" lon="-5.7049020">
        <ele>705.5</ele>
        <time>2019-08-15T13:51:04Z</time>
      </trkpt>
      <trkpt lat="42.0010430" lon="-5.7048950">
        <ele>705.4</ele>
        <time>2019-08-15T13:51:05Z</time>
      </trkpt>
      <trkpt lat="42.0010120" lon="-5.7048890">
        <ele>705.1</ele>
        <time>2019-08-15T13:51:06Z</time>
      </trkpt>
      <trkpt lat="42.0009790" lon="-5.7048870">
        <ele>705.1</ele>
        <time>2019-08-15T13:51:07Z</time>
      </trkpt>
      <trkpt lat="42.0009510" lon="-5.7048940">
        <ele>705.1</ele>
        <time>2019-08-15T13:51:08Z</time>
      </trkpt>
      <trkpt lat="42.0009280" lon="-5.7049100">
        <ele>705.1</ele>
        <time>2019-08-15T13:51:09Z</time>
      </trkpt>
      <trkpt lat="42.0009090" lon="-5.7049560">
        <ele>705.3</ele>
        <time>2019-08-15T13:51:11Z</time>
      </trkpt>
      <trkpt lat="42.0009120" lon="-5.7049990">
        <ele>705.4</ele>
        <time>2019-08-15T13:51:13Z</time>
      </trkpt>
      <trkpt lat="42.0009220" lon="-5.7050430">
        <ele>705.4</ele>
        <time>2019-08-15T13:51:15Z</time>
      </trkpt>
      <trkpt lat="42.0009360" lon="-5.7050890">
        <ele>705.5</ele>
        <time>2019-08-15T13:51:17Z</time>
      </trkpt>
      <trkpt lat="42.0009390" lon="-5.7051250">
        <ele>705.5</ele>
        <time>2019-08-15T13:51:19Z</time>
      </trkpt>
      <trkpt lat="42.0009220" lon="-5.7051290">
        <ele>705.6</ele>
        <time>2019-08-15T13:51:24Z</time>
      </trkpt>
      <trkpt lat="42.0009920" lon="-5.7053250">
        <ele>705.9</ele>
        <time>2019-08-15T13:51:43Z</time>
      </trkpt>
      <trkpt lat="42.0010110" lon="-5.7053660">
        <ele>706.0</ele>
        <time>2019-08-15T13:51:44Z</time>
      </trkpt>
      <trkpt lat="42.0010320" lon="-5.7054050">
        <ele>706.1</ele>
        <time>2019-08-15T13:51:45Z</time>
      </trkpt>
      <trkpt lat="42.0010510" lon="-5.7054430">
        <ele>706.2</ele>
        <time>2019-08-15T13:51:46Z</time>
      </trkpt>
      <trkpt lat="42.0010680" lon="-5.7054780">
        <ele>706.3</ele>
        <time>2019-08-15T13:51:47Z</time>
      </trkpt>
      <trkpt lat="42.0010830" lon="-5.7055100">
        <ele>706.3</ele>
        <time>2019-08-15T13:51:48Z</time>
      </trkpt>
      <trkpt lat="42.0010960" lon="-5.7055410">
        <ele>706.4</ele>
        <time>2019-08-15T13:51:49Z</time>
      </trkpt>
      <trkpt lat="42.0011230" lon="-5.7056060">
        <ele>706.6</ele>
        <time>2019-08-15T13:51:51Z</time>
      </trkpt>
      <trkpt lat="42.0011400" lon="-5.7056350">
        <ele>706.6</ele>
        <time>2019-08-15T13:51:52Z</time>
      </trkpt>
      <trkpt lat="42.0011580" lon="-5.7056680">
        <ele>706.7</ele>
        <time>2019-08-15T13:51:53Z</time>
      </trkpt>
      <trkpt lat="42.0011730" lon="-5.7057050">
        <ele>706.7</ele>
        <time>2019-08-15T13:51:54Z</time>
      </trkpt>
      <trkpt lat="42.0011890" lon="-5.7057420">
        <ele>706.8</ele>
        <time>2019-08-15T13:51:55Z</time>
      </trkpt>
      <trkpt lat="42.0012060" lon="-5.7057790">
        <ele>706.9</ele>
        <time>2019-08-15T13:51:56Z</time>
      </trkpt>
      <trkpt lat="42.0012240" lon="-5.7058160">
        <ele>706.9</ele>
        <time>2019-08-15T13:51:57Z</time>
      </trkpt>
      <trkpt lat="42.0012420" lon="-5.7058530">
        <ele>707.0</ele>
        <time>2019-08-15T13:51:58Z</time>
      </trkpt>
      <trkpt lat="42.0012590" lon="-5.7058910">
        <ele>707.0</ele>
        <time>2019-08-15T13:51:59Z</time>
      </trkpt>
      <trkpt lat="42.0012750" lon="-5.7059300">
        <ele>707.1</ele>
        <time>2019-08-15T13:52:00Z</time>
      </trkpt>
      <trkpt lat="42.0012920" lon="-5.7059690">
        <ele>707.1</ele>
        <time>2019-08-15T13:52:01Z</time>
      </trkpt>
      <trkpt lat="42.0013060" lon="-5.7060090">
        <ele>707.2</ele>
        <time>2019-08-15T13:52:02Z</time>
      </trkpt>
      <trkpt lat="42.0013210" lon="-5.7060490">
        <ele>707.2</ele>
        <time>2019-08-15T13:52:03Z</time>
      </trkpt>
      <trkpt lat="42.0013350" lon="-5.7060890">
        <ele>707.2</ele>
        <time>2019-08-15T13:52:04Z</time>
      </trkpt>
      <trkpt lat="42.0013500" lon="-5.7061270">
        <ele>707.3</ele>
        <time>2019-08-15T13:52:05Z</time>
      </trkpt>
      <trkpt lat="42.0013640" lon="-5.7061640">
        <ele>707.3</ele>
        <time>2019-08-15T13:52:06Z</time>
      </trkpt>
      <trkpt lat="42.0013760" lon="-5.7062000">
        <ele>707.4</ele>
        <time>2019-08-15T13:52:07Z</time>
      </trkpt>
      <trkpt lat="42.0013890" lon="-5.7062340">
        <ele>707.4</ele>
        <time>2019-08-15T13:52:08Z</time>
      </trkpt>
      <trkpt lat="42.0014000" lon="-5.7062680">
        <ele>707.4</ele>
        <time>2019-08-15T13:52:09Z</time>
      </trkpt>
      <trkpt lat="42.0014100" lon="-5.7063020">
        <ele>707.5</ele>
        <time>2019-08-15T13:52:10Z</time>
      </trkpt>
      <trkpt lat="42.0014200" lon="-5.7063340">
        <ele>707.5</ele>
        <time>2019-08-15T13:52:11Z</time>
      </trkpt>
      <trkpt lat="42.0014360" lon="-5.7063990">
        <ele>707.6</ele>
        <time>2019-08-15T13:52:13Z</time>
      </trkpt>
      <trkpt lat="42.0014500" lon="-5.7064670">
        <ele>707.6</ele>
        <time>2019-08-15T13:52:15Z</time>
      </trkpt>
      <trkpt lat="42.0014600" lon="-5.7065360">
        <ele>707.7</ele>
        <time>2019-08-15T13:52:17Z</time>
      </trkpt>
      <trkpt lat="42.0014700" lon="-5.7066030">
        <ele>707.7</ele>
        <time>2019-08-15T13:52:19Z</time>
      </trkpt>
      <trkpt lat="42.0014770" lon="-5.7066730">
        <ele>707.8</ele>
        <time>2019-08-15T13:52:21Z</time>
      </trkpt>
      <trkpt lat="42.0014820" lon="-5.7067480">
        <ele>707.8</ele>
        <time>2019-08-15T13:52:23Z</time>
      </trkpt>
      <trkpt lat="42.0014850" lon="-5.7067870">
        <ele>707.8</ele>
        <time>2019-08-15T13:52:24Z</time>
      </trkpt>
      <trkpt lat="42.0014860" lon="-5.7068240">
        <ele>707.8</ele>
        <time>2019-08-15T13:52:25Z</time>
      </trkpt>
      <trkpt lat="42.0014870" lon="-5.7068610">
        <ele>707.9</ele>
        <time>2019-08-15T13:52:26Z</time>
      </trkpt>
      <trkpt lat="42.0014880" lon="-5.7068960">
        <ele>707.8</ele>
        <time>2019-08-15T13:52:27Z</time>
      </trkpt>
      <trkpt lat="42.0014890" lon="-5.7069610">
        <ele>707.7</ele>
        <time>2019-08-15T13:52:29Z</time>
      </trkpt>
      <trkpt lat="42.0014920" lon="-5.7070380">
        <ele>707.5</ele>
        <time>2019-08-15T13:52:31Z</time>
      </trkpt>
      <trkpt lat="42.0014960" lon="-5.7070810">
        <ele>707.5</ele>
        <time>2019-08-15T13:52:32Z</time>
      </trkpt>
      <trkpt lat="42.0014990" lon="-5.7071270">
        <ele>707.4</ele>
        <time>2019-08-15T13:52:33Z</time>
      </trkpt>
      <trkpt lat="42.0014980" lon="-5.7071750">
        <ele>707.3</ele>
        <time>2019-08-15T13:52:34Z</time>
      </trkpt>
      <trkpt lat="42.0014930" lon="-5.7072260">
        <ele>707.2</ele>
        <time>2019-08-15T13:52:35Z</time>
      </trkpt>
      <trkpt lat="42.0014830" lon="-5.7072800">
        <ele>707.2</ele>
        <time>2019-08-15T13:52:36Z</time>
      </trkpt>
      <trkpt lat="42.0014710" lon="-5.7073350">
        <ele>707.2</ele>
        <time>2019-08-15T13:52:37Z</time>
      </trkpt>
      <trkpt lat="42.0014570" lon="-5.7073910">
        <ele>707.3</ele>
        <time>2019-08-15T13:52:38Z</time>
      </trkpt>
      <trkpt lat="42.0014430" lon="-5.7074480">
        <ele>707.3</ele>
        <time>2019-08-15T13:52:39Z</time>
      </trkpt>
      <trkpt lat="42.0014280" lon="-5.7075040">
        <ele>707.3</ele>
        <time>2019-08-15T13:52:40Z</time>
      </trkpt>
      <trkpt lat="42.0014140" lon="-5.7075590">
        <ele>707.4</ele>
        <time>2019-08-15T13:52:41Z</time>
      </trkpt>
      <trkpt lat="42.0014020" lon="-5.7076140">
        <ele>707.4</ele>
        <time>2019-08-15T13:52:42Z</time>
      </trkpt>
      <trkpt lat="42.0013900" lon="-5.7076670">
        <ele>707.5</ele>
        <time>2019-08-15T13:52:43Z</time>
      </trkpt>
      <trkpt lat="42.0013770" lon="-5.7077190">
        <ele>707.5</ele>
        <time>2019-08-15T13:52:44Z</time>
      </trkpt>
      <trkpt lat="42.0013640" lon="-5.7077710">
        <ele>707.6</ele>
        <time>2019-08-15T13:52:45Z</time>
      </trkpt>
      <trkpt lat="42.0013530" lon="-5.7078250">
        <ele>707.6</ele>
        <time>2019-08-15T13:52:46Z</time>
      </trkpt>
      <trkpt lat="42.0013430" lon="-5.7078810">
        <ele>707.7</ele>
        <time>2019-08-15T13:52:47Z</time>
      </trkpt>
      <trkpt lat="42.0013300" lon="-5.7079370">
        <ele>707.7</ele>
        <time>2019-08-15T13:52:48Z</time>
      </trkpt>
      <trkpt lat="42.0013170" lon="-5.7079950">
        <ele>707.8</ele>
        <time>2019-08-15T13:52:49Z</time>
      </trkpt>
      <trkpt lat="42.0013020" lon="-5.7080520">
        <ele>707.8</ele>
        <time>2019-08-15T13:52:50Z</time>
      </trkpt>
      <trkpt lat="42.0012850" lon="-5.7081080">
        <ele>707.9</ele>
        <time>2019-08-15T13:52:51Z</time>
      </trkpt>
      <trkpt lat="42.0012730" lon="-5.7081640">
        <ele>707.9</ele>
        <time>2019-08-15T13:52:52Z</time>
      </trkpt>
      <trkpt lat="42.0012610" lon="-5.7082170">
        <ele>708.0</ele>
        <time>2019-08-15T13:52:53Z</time>
      </trkpt>
      <trkpt lat="42.0012480" lon="-5.7082700">
        <ele>708.0</ele>
        <time>2019-08-15T13:52:54Z</time>
      </trkpt>
      <trkpt lat="42.0012350" lon="-5.7083220">
        <ele>708.1</ele>
        <time>2019-08-15T13:52:55Z</time>
      </trkpt>
      <trkpt lat="42.0012230" lon="-5.7083730">
        <ele>708.1</ele>
        <time>2019-08-15T13:52:56Z</time>
      </trkpt>
      <trkpt lat="42.0012110" lon="-5.7084240">
        <ele>708.2</ele>
        <time>2019-08-15T13:52:57Z</time>
      </trkpt>
      <trkpt lat="42.0012010" lon="-5.7084740">
        <ele>708.2</ele>
        <time>2019-08-15T13:52:58Z</time>
      </trkpt>
      <trkpt lat="42.0011900" lon="-5.7085260">
        <ele>708.3</ele>
        <time>2019-08-15T13:52:59Z</time>
      </trkpt>
      <trkpt lat="42.0011800" lon="-5.7085810">
        <ele>708.3</ele>
        <time>2019-08-15T13:53:00Z</time>
      </trkpt>
      <trkpt lat="42.0011690" lon="-5.7086370">
        <ele>708.4</ele>
        <time>2019-08-15T13:53:01Z</time>
      </trkpt>
      <trkpt lat="42.0011580" lon="-5.7086930">
        <ele>708.4</ele>
        <time>2019-08-15T13:53:02Z</time>
      </trkpt>
      <trkpt lat="42.0011450" lon="-5.7087500">
        <ele>708.5</ele>
        <time>2019-08-15T13:53:03Z</time>
      </trkpt>
      <trkpt lat="42.0011310" lon="-5.7088060">
        <ele>708.5</ele>
        <time>2019-08-15T13:53:04Z</time>
      </trkpt>
      <trkpt lat="42.0011170" lon="-5.7088640">
        <ele>708.6</ele>
        <time>2019-08-15T13:53:05Z</time>
      </trkpt>
      <trkpt lat="42.0011020" lon="-5.7089210">
        <ele>708.6</ele>
        <time>2019-08-15T13:53:06Z</time>
      </trkpt>
      <trkpt lat="42.0010880" lon="-5.7089800">
        <ele>708.7</ele>
        <time>2019-08-15T13:53:07Z</time>
      </trkpt>
      <trkpt lat="42.0010730" lon="-5.7090410">
        <ele>708.7</ele>
        <time>2019-08-15T13:53:08Z</time>
      </trkpt>
      <trkpt lat="42.0010600" lon="-5.7091030">
        <ele>708.8</ele>
        <time>2019-08-15T13:53:09Z</time>
      </trkpt>
      <trkpt lat="42.0010450" lon="-5.7091650">
        <ele>708.8</ele>
        <time>2019-08-15T13:53:10Z</time>
      </trkpt>
      <trkpt lat="42.0010310" lon="-5.7092280">
        <ele>708.9</ele>
        <time>2019-08-15T13:53:11Z</time>
      </trkpt>
      <trkpt lat="42.0010150" lon="-5.7092900">
        <ele>709.0</ele>
        <time>2019-08-15T13:53:12Z</time>
      </trkpt>
      <trkpt lat="42.0009990" lon="-5.7093550">
        <ele>709.0</ele>
        <time>2019-08-15T13:53:13Z</time>
      </trkpt>
      <trkpt lat="42.0009830" lon="-5.7094180">
        <ele>709.1</ele>
        <time>2019-08-15T13:53:14Z</time>
      </trkpt>
      <trkpt lat="42.0009680" lon="-5.7094790">
        <ele>709.2</ele>
        <time>2019-08-15T13:53:15Z</time>
      </trkpt>
      <trkpt lat="42.0009520" lon="-5.7095400">
        <ele>709.2</ele>
        <time>2019-08-15T13:53:16Z</time>
      </trkpt>
      <trkpt lat="42.0009370" lon="-5.7096000">
        <ele>709.3</ele>
        <time>2019-08-15T13:53:17Z</time>
      </trkpt>
      <trkpt lat="42.0009230" lon="-5.7096580">
        <ele>709.4</ele>
        <time>2019-08-15T13:53:18Z</time>
      </trkpt>
      <trkpt lat="42.0009090" lon="-5.7097160">
        <ele>709.4</ele>
        <time>2019-08-15T13:53:19Z</time>
      </trkpt>
      <trkpt lat="42.0009000" lon="-5.7097740">
        <ele>709.5</ele>
        <time>2019-08-15T13:53:20Z</time>
      </trkpt>
      <trkpt lat="42.0008920" lon="-5.7098320">
        <ele>709.5</ele>
        <time>2019-08-15T13:53:21Z</time>
      </trkpt>
      <trkpt lat="42.0008840" lon="-5.7098900">
        <ele>709.5</ele>
        <time>2019-08-15T13:53:22Z</time>
      </trkpt>
      <trkpt lat="42.0008770" lon="-5.7099520">
        <ele>709.5</ele>
        <time>2019-08-15T13:53:23Z</time>
      </trkpt>
      <trkpt lat="42.0008720" lon="-5.7100150">
        <ele>709.5</ele>
        <time>2019-08-15T13:53:24Z</time>
      </trkpt>
      <trkpt lat="42.0008670" lon="-5.7100810">
        <ele>709.5</ele>
        <time>2019-08-15T13:53:25Z</time>
      </trkpt>
      <trkpt lat="42.0008630" lon="-5.7101500">
        <ele>709.5</ele>
        <time>2019-08-15T13:53:26Z</time>
      </trkpt>
      <trkpt lat="42.0008610" lon="-5.7102210">
        <ele>709.5</ele>
        <time>2019-08-15T13:53:27Z</time>
      </trkpt>
      <trkpt lat="42.0008590" lon="-5.7102950">
        <ele>709.5</ele>
        <time>2019-08-15T13:53:28Z</time>
      </trkpt>
      <trkpt lat="42.0008580" lon="-5.7103720">
        <ele>709.5</ele>
        <time>2019-08-15T13:53:29Z</time>
      </trkpt>
      <trkpt lat="42.0008570" lon="-5.7104510">
        <ele>709.4</ele>
        <time>2019-08-15T13:53:30Z</time>
      </trkpt>
      <trkpt lat="42.0008580" lon="-5.7105320">
        <ele>709.4</ele>
        <time>2019-08-15T13:53:31Z</time>
      </trkpt>
      <trkpt lat="42.0008610" lon="-5.7106150">
        <ele>709.4</ele>
        <time>2019-08-15T13:53:32Z</time>
      </trkpt>
      <trkpt lat="42.0008670" lon="-5.7106990">
        <ele>709.4</ele>
        <time>2019-08-15T13:53:33Z</time>
      </trkpt>
      <trkpt lat="42.0008750" lon="-5.7107840">
        <ele>709.3</ele>
        <time>2019-08-15T13:53:34Z</time>
      </trkpt>
      <trkpt lat="42.0008820" lon="-5.7108710">
        <ele>709.2</ele>
        <time>2019-08-15T13:53:35Z</time>
      </trkpt>
      <trkpt lat="42.0008890" lon="-5.7109570">
        <ele>709.2</ele>
        <time>2019-08-15T13:53:36Z</time>
      </trkpt>
      <trkpt lat="42.0008960" lon="-5.7110440">
        <ele>709.1</ele>
        <time>2019-08-15T13:53:37Z</time>
      </trkpt>
      <trkpt lat="42.0009000" lon="-5.7111340">
        <ele>709.0</ele>
        <time>2019-08-15T13:53:38Z</time>
      </trkpt>
      <trkpt lat="42.0009010" lon="-5.7112250">
        <ele>709.0</ele>
        <time>2019-08-15T13:53:39Z</time>
      </trkpt>
      <trkpt lat="42.0009030" lon="-5.7113130">
        <ele>708.9</ele>
        <time>2019-08-15T13:53:40Z</time>
      </trkpt>
      <trkpt lat="42.0009050" lon="-5.7114020">
        <ele>708.9</ele>
        <time>2019-08-15T13:53:41Z</time>
      </trkpt>
      <trkpt lat="42.0009070" lon="-5.7114910">
        <ele>708.9</ele>
        <time>2019-08-15T13:53:42Z</time>
      </trkpt>
      <trkpt lat="42.0009070" lon="-5.7115800">
        <ele>709.0</ele>
        <time>2019-08-15T13:53:43Z</time>
      </trkpt>
      <trkpt lat="42.0009050" lon="-5.7116700">
        <ele>709.0</ele>
        <time>2019-08-15T13:53:44Z</time>
      </trkpt>
      <trkpt lat="42.0009020" lon="-5.7117590">
        <ele>709.2</ele>
        <time>2019-08-15T13:53:45Z</time>
      </trkpt>
      <trkpt lat="42.0008980" lon="-5.7118490">
        <ele>709.3</ele>
        <time>2019-08-15T13:53:46Z</time>
      </trkpt>
      <trkpt lat="42.0008940" lon="-5.7119350">
        <ele>709.5</ele>
        <time>2019-08-15T13:53:47Z</time>
      </trkpt>
      <trkpt lat="42.0008920" lon="-5.7120240">
        <ele>709.6</ele>
        <time>2019-08-15T13:53:48Z</time>
      </trkpt>
      <trkpt lat="42.0008900" lon="-5.7121120">
        <ele>709.7</ele>
        <time>2019-08-15T13:53:49Z</time>
      </trkpt>
      <trkpt lat="42.0008870" lon="-5.7122000">
        <ele>709.8</ele>
        <time>2019-08-15T13:53:50Z</time>
      </trkpt>
      <trkpt lat="42.0008840" lon="-5.7122870">
        <ele>709.8</ele>
        <time>2019-08-15T13:53:51Z</time>
      </trkpt>
      <trkpt lat="42.0008820" lon="-5.7123710">
        <ele>709.9</ele>
        <time>2019-08-15T13:53:52Z</time>
      </trkpt>
      <trkpt lat="42.0008820" lon="-5.7124530">
        <ele>710.0</ele>
        <time>2019-08-15T13:53:53Z</time>
      </trkpt>
      <trkpt lat="42.0008810" lon="-5.7125330">
        <ele>710.0</ele>
        <time>2019-08-15T13:53:54Z</time>
      </trkpt>
      <trkpt lat="42.0008810" lon="-5.7126130">
        <ele>710.1</ele>
        <time>2019-08-15T13:53:55Z</time>
      </trkpt>
      <trkpt lat="42.0008800" lon="-5.7126900">
        <ele>710.1</ele>
        <time>2019-08-15T13:53:56Z</time>
      </trkpt>
      <trkpt lat="42.0008790" lon="-5.7127650">
        <ele>710.0</ele>
        <time>2019-08-15T13:53:57Z</time>
      </trkpt>
      <trkpt lat="42.0008780" lon="-5.7128390">
        <ele>709.9</ele>
        <time>2019-08-15T13:53:58Z</time>
      </trkpt>
      <trkpt lat="42.0008760" lon="-5.7129110">
        <ele>709.8</ele>
        <time>2019-08-15T13:53:59Z</time>
      </trkpt>
      <trkpt lat="42.0008740" lon="-5.7129840">
        <ele>709.7</ele>
        <time>2019-08-15T13:54:00Z</time>
      </trkpt>
      <trkpt lat="42.0008720" lon="-5.7130570">
        <ele>709.6</ele>
        <time>2019-08-15T13:54:01Z</time>
      </trkpt>
      <trkpt lat="42.0008710" lon="-5.7131310">
        <ele>709.6</ele>
        <time>2019-08-15T13:54:02Z</time>
      </trkpt>
      <trkpt lat="42.0008690" lon="-5.7132060">
        <ele>709.5</ele>
        <time>2019-08-15T13:54:03Z</time>
      </trkpt>
      <trkpt lat="42.0008690" lon="-5.7132830">
        <ele>709.5</ele>
        <time>2019-08-15T13:54:04Z</time>
      </trkpt>
      <trkpt lat="42.0008690" lon="-5.7133570">
        <ele>709.4</ele>
        <time>2019-08-15T13:54:05Z</time>
      </trkpt>
      <trkpt lat="42.0008670" lon="-5.7134330">
        <ele>709.3</ele>
        <time>2019-08-15T13:54:06Z</time>
      </trkpt>
      <trkpt lat="42.0008670" lon="-5.7135090">
        <ele>709.3</ele>
        <time>2019-08-15T13:54:07Z</time>
      </trkpt>
      <trkpt lat="42.0008670" lon="-5.7135860">
        <ele>709.3</ele>
        <time>2019-08-15T13:54:08Z</time>
      </trkpt>
      <trkpt lat="42.0008640" lon="-5.7136620">
        <ele>709.3</ele>
        <time>2019-08-15T13:54:09Z</time>
      </trkpt>
      <trkpt lat="42.0008640" lon="-5.7137380">
        <ele>709.3</ele>
        <time>2019-08-15T13:54:10Z</time>
      </trkpt>
      <trkpt lat="42.0008600" lon="-5.7138150">
        <ele>709.3</ele>
        <time>2019-08-15T13:54:11Z</time>
      </trkpt>
      <trkpt lat="42.0008590" lon="-5.7138910">
        <ele>709.3</ele>
        <time>2019-08-15T13:54:12Z</time>
      </trkpt>
      <trkpt lat="42.0008560" lon="-5.7139680">
        <ele>709.3</ele>
        <time>2019-08-15T13:54:13Z</time>
      </trkpt>
      <trkpt lat="42.0008550" lon="-5.7140430">
        <ele>709.4</ele>
        <time>2019-08-15T13:54:14Z</time>
      </trkpt>
      <trkpt lat="42.0008540" lon="-5.7141190">
        <ele>709.4</ele>
        <time>2019-08-15T13:54:15Z</time>
      </trkpt>
      <trkpt lat="42.0008520" lon="-5.7141930">
        <ele>709.4</ele>
        <time>2019-08-15T13:54:16Z</time>
      </trkpt>
      <trkpt lat="42.0008500" lon="-5.7142680">
        <ele>709.4</ele>
        <time>2019-08-15T13:54:17Z</time>
      </trkpt>
      <trkpt lat="42.0008490" lon="-5.7143430">
        <ele>709.4</ele>
        <time>2019-08-15T13:54:18Z</time>
      </trkpt>
      <trkpt lat="42.0008490" lon="-5.7144190">
        <ele>709.4</ele>
        <time>2019-08-15T13:54:19Z</time>
      </trkpt>
      <trkpt lat="42.0008480" lon="-5.7144940">
        <ele>709.4</ele>
        <time>2019-08-15T13:54:20Z</time>
      </trkpt>
      <trkpt lat="42.0008470" lon="-5.7145690">
        <ele>709.5</ele>
        <time>2019-08-15T13:54:21Z</time>
      </trkpt>
      <trkpt lat="42.0008470" lon="-5.7146430">
        <ele>709.5</ele>
        <time>2019-08-15T13:54:22Z</time>
      </trkpt>
      <trkpt lat="42.0008450" lon="-5.7147130">
        <ele>709.6</ele>
        <time>2019-08-15T13:54:23Z</time>
      </trkpt>
      <trkpt lat="42.0008430" lon="-5.7147830">
        <ele>709.6</ele>
        <time>2019-08-15T13:54:24Z</time>
      </trkpt>
      <trkpt lat="42.0008420" lon="-5.7148530">
        <ele>709.7</ele>
        <time>2019-08-15T13:54:25Z</time>
      </trkpt>
      <trkpt lat="42.0008410" lon="-5.7149230">
        <ele>709.8</ele>
        <time>2019-08-15T13:54:26Z</time>
      </trkpt>
      <trkpt lat="42.0008400" lon="-5.7149940">
        <ele>709.8</ele>
        <time>2019-08-15T13:54:27Z</time>
      </trkpt>
      <trkpt lat="42.0008360" lon="-5.7150640">
        <ele>709.9</ele>
        <time>2019-08-15T13:54:28Z</time>
      </trkpt>
      <trkpt lat="42.0008330" lon="-5.7151340">
        <ele>709.9</ele>
        <time>2019-08-15T13:54:29Z</time>
      </trkpt>
      <trkpt lat="42.0008310" lon="-5.7152010">
        <ele>710.0</ele>
        <time>2019-08-15T13:54:30Z</time>
      </trkpt>
      <trkpt lat="42.0008290" lon="-5.7152670">
        <ele>710.0</ele>
        <time>2019-08-15T13:54:31Z</time>
      </trkpt>
      <trkpt lat="42.0008270" lon="-5.7153290">
        <ele>710.1</ele>
        <time>2019-08-15T13:54:32Z</time>
      </trkpt>
      <trkpt lat="42.0008260" lon="-5.7153860">
        <ele>710.1</ele>
        <time>2019-08-15T13:54:33Z</time>
      </trkpt>
      <trkpt lat="42.0008250" lon="-5.7154290">
        <ele>710.1</ele>
        <time>2019-08-15T13:54:34Z</time>
      </trkpt>
      <trkpt lat="42.0008240" lon="-5.7154590">
        <ele>710.1</ele>
        <time>2019-08-15T13:54:35Z</time>
      </trkpt>
      <trkpt lat="42.0008280" lon="-5.7155130">
        <ele>710.2</ele>
        <time>2019-08-15T13:54:37Z</time>
      </trkpt>
      <trkpt lat="42.0008400" lon="-5.7155530">
        <ele>710.2</ele>
        <time>2019-08-15T13:54:39Z</time>
      </trkpt>
      <trkpt lat="42.0008190" lon="-5.7155030">
        <ele>710.2</ele>
        <time>2019-08-15T13:54:42Z</time>
      </trkpt>
      <trkpt lat="42.0007920" lon="-5.7154270">
        <ele>710.2</ele>
        <time>2019-08-15T13:55:07Z</time>
      </trkpt>
      <trkpt lat="42.0007640" lon="-5.7153510">
        <ele>710.1</ele>
        <time>2019-08-15T13:55:08Z</time>
      </trkpt>
      <trkpt lat="42.0007690" lon="-5.7152960">
        <ele>710.1</ele>
        <time>2019-08-15T13:55:09Z</time>
      </trkpt>
      <trkpt lat="42.0007770" lon="-5.7152400">
        <ele>710.0</ele>
        <time>2019-08-15T13:55:10Z</time>
      </trkpt>
      <trkpt lat="42.0007910" lon="-5.7151840">
        <ele>710.0</ele>
        <time>2019-08-15T13:55:11Z</time>
      </trkpt>
      <trkpt lat="42.0008130" lon="-5.7151360">
        <ele>709.9</ele>
        <time>2019-08-15T13:55:12Z</time>
      </trkpt>
      <trkpt lat="42.0008460" lon="-5.7150960">
        <ele>709.9</ele>
        <time>2019-08-15T13:55:13Z</time>
      </trkpt>
      <trkpt lat="42.0008910" lon="-5.7150720">
        <ele>709.9</ele>
        <time>2019-08-15T13:55:14Z</time>
      </trkpt>
      <trkpt lat="42.0009410" lon="-5.7150600">
        <ele>709.9</ele>
        <time>2019-08-15T13:55:15Z</time>
      </trkpt>
      <trkpt lat="42.0009890" lon="-5.7150540">
        <ele>709.9</ele>
        <time>2019-08-15T13:55:16Z</time>
      </trkpt>
      <trkpt lat="42.0010370" lon="-5.7150520">
        <ele>709.9</ele>
        <time>2019-08-15T13:55:17Z</time>
      </trkpt>
      <trkpt lat="42.0010860" lon="-5.7150520">
        <ele>709.9</ele>
        <time>2019-08-15T13:55:18Z</time>
      </trkpt>
      <trkpt lat="42.0011360" lon="-5.7150540">
        <ele>709.8</ele>
        <time>2019-08-15T13:55:19Z</time>
      </trkpt>
      <trkpt lat="42.0011860" lon="-5.7150560">
        <ele>709.8</ele>
        <time>2019-08-15T13:55:20Z</time>
      </trkpt>
      <trkpt lat="42.0012360" lon="-5.7150600">
        <ele>709.8</ele>
        <time>2019-08-15T13:55:21Z</time>
      </trkpt>
      <trkpt lat="42.0012900" lon="-5.7150640">
        <ele>709.7</ele>
        <time>2019-08-15T13:55:22Z</time>
      </trkpt>
      <trkpt lat="42.0013420" lon="-5.7150670">
        <ele>709.7</ele>
        <time>2019-08-15T13:55:23Z</time>
      </trkpt>
      <trkpt lat="42.0013950" lon="-5.7150670">
        <ele>709.7</ele>
        <time>2019-08-15T13:55:24Z</time>
      </trkpt>
      <trkpt lat="42.0014470" lon="-5.7150680">
        <ele>709.6</ele>
        <time>2019-08-15T13:55:25Z</time>
      </trkpt>
      <trkpt lat="42.0014990" lon="-5.7150680">
        <ele>709.6</ele>
        <time>2019-08-15T13:55:26Z</time>
      </trkpt>
      <trkpt lat="42.0015510" lon="-5.7150670">
        <ele>709.6</ele>
        <time>2019-08-15T13:55:27Z</time>
      </trkpt>
      <trkpt lat="42.0016030" lon="-5.7150640">
        <ele>709.6</ele>
        <time>2019-08-15T13:55:28Z</time>
      </trkpt>
      <trkpt lat="42.0016550" lon="-5.7150600">
        <ele>709.6</ele>
        <time>2019-08-15T13:55:29Z</time>
      </trkpt>
      <trkpt lat="42.0017070" lon="-5.7150560">
        <ele>709.5</ele>
        <time>2019-08-15T13:55:30Z</time>
      </trkpt>
      <trkpt lat="42.0017590" lon="-5.7150520">
        <ele>709.5</ele>
        <time>2019-08-15T13:55:31Z</time>
      </trkpt>
      <trkpt lat="42.0018110" lon="-5.7150460">
        <ele>709.5</ele>
        <time>2019-08-15T13:55:32Z</time>
      </trkpt>
      <trkpt lat="42.0018640" lon="-5.7150400">
        <ele>709.5</ele>
        <time>2019-08-15T13:55:33Z</time>
      </trkpt>
      <trkpt lat="42.0019180" lon="-5.7150340">
        <ele>709.5</ele>
        <time>2019-08-15T13:55:34Z</time>
      </trkpt>
      <trkpt lat="42.0019710" lon="-5.7150310">
        <ele>709.5</ele>
        <time>2019-08-15T13:55:35Z</time>
      </trkpt>
      <trkpt lat="42.0020240" lon="-5.7150270">
        <ele>709.5</ele>
        <time>2019-08-15T13:55:36Z</time>
      </trkpt>
      <trkpt lat="42.0020770" lon="-5.7150230">
        <ele>709.5</ele>
        <time>2019-08-15T13:55:37Z</time>
      </trkpt>
      <trkpt lat="42.0021280" lon="-5.7150140">
        <ele>709.5</ele>
        <time>2019-08-15T13:55:38Z</time>
      </trkpt>
      <trkpt lat="42.0021800" lon="-5.7150040">
        <ele>709.5</ele>
        <time>2019-08-15T13:55:39Z</time>
      </trkpt>
      <trkpt lat="42.0022290" lon="-5.7149960">
        <ele>709.4</ele>
        <time>2019-08-15T13:55:40Z</time>
      </trkpt>
      <trkpt lat="42.0022750" lon="-5.7149930">
        <ele>709.3</ele>
        <time>2019-08-15T13:55:41Z</time>
      </trkpt>
      <trkpt lat="42.0023180" lon="-5.7149880">
        <ele>709.3</ele>
        <time>2019-08-15T13:55:42Z</time>
      </trkpt>
      <trkpt lat="42.0023610" lon="-5.7149870">
        <ele>709.2</ele>
        <time>2019-08-15T13:55:43Z</time>
      </trkpt>
      <trkpt lat="42.0024010" lon="-5.7149880">
        <ele>709.2</ele>
        <time>2019-08-15T13:55:44Z</time>
      </trkpt>
      <trkpt lat="42.0024390" lon="-5.7149870">
        <ele>709.1</ele>
        <time>2019-08-15T13:55:45Z</time>
      </trkpt>
      <trkpt lat="42.0024750" lon="-5.7149870">
        <ele>709.0</ele>
        <time>2019-08-15T13:55:46Z</time>
      </trkpt>
      <trkpt lat="42.0025110" lon="-5.7149890">
        <ele>709.0</ele>
        <time>2019-08-15T13:55:47Z</time>
      </trkpt>
      <trkpt lat="42.0025460" lon="-5.7149950">
        <ele>708.9</ele>
        <time>2019-08-15T13:55:48Z</time>
      </trkpt>
      <trkpt lat="42.0025840" lon="-5.7150020">
        <ele>708.9</ele>
        <time>2019-08-15T13:55:49Z</time>
      </trkpt>
      <trkpt lat="42.0026230" lon="-5.7150140">
        <ele>708.8</ele>
        <time>2019-08-15T13:55:50Z</time>
      </trkpt>
      <trkpt lat="42.0026640" lon="-5.7150280">
        <ele>708.8</ele>
        <time>2019-08-15T13:55:51Z</time>
      </trkpt>
      <trkpt lat="42.0027060" lon="-5.7150430">
        <ele>708.7</ele>
        <time>2019-08-15T13:55:52Z</time>
      </trkpt>
      <trkpt lat="42.0027490" lon="-5.7150560">
        <ele>708.6</ele>
        <time>2019-08-15T13:55:53Z</time>
      </trkpt>
      <trkpt lat="42.0027920" lon="-5.7150730">
        <ele>708.5</ele>
        <time>2019-08-15T13:55:54Z</time>
      </trkpt>
      <trkpt lat="42.0028360" lon="-5.7150900">
        <ele>708.4</ele>
        <time>2019-08-15T13:55:55Z</time>
      </trkpt>
      <trkpt lat="42.0028790" lon="-5.7151050">
        <ele>708.3</ele>
        <time>2019-08-15T13:55:56Z</time>
      </trkpt>
      <trkpt lat="42.0029210" lon="-5.7151210">
        <ele>708.2</ele>
        <time>2019-08-15T13:55:57Z</time>
      </trkpt>
      <trkpt lat="42.0029640" lon="-5.7151370">
        <ele>708.1</ele>
        <time>2019-08-15T13:55:58Z</time>
      </trkpt>
      <trkpt lat="42.0030070" lon="-5.7151530">
        <ele>708.0</ele>
        <time>2019-08-15T13:55:59Z</time>
      </trkpt>
      <trkpt lat="42.0030490" lon="-5.7151670">
        <ele>708.0</ele>
        <time>2019-08-15T13:56:00Z</time>
      </trkpt>
      <trkpt lat="42.0030910" lon="-5.7151830">
        <ele>707.9</ele>
        <time>2019-08-15T13:56:01Z</time>
      </trkpt>
      <trkpt lat="42.0031320" lon="-5.7152020">
        <ele>707.8</ele>
        <time>2019-08-15T13:56:02Z</time>
      </trkpt>
      <trkpt lat="42.0031700" lon="-5.7152210">
        <ele>707.7</ele>
        <time>2019-08-15T13:56:03Z</time>
      </trkpt>
      <trkpt lat="42.0032070" lon="-5.7152400">
        <ele>707.6</ele>
        <time>2019-08-15T13:56:04Z</time>
      </trkpt>
      <trkpt lat="42.0032430" lon="-5.7152560">
        <ele>707.5</ele>
        <time>2019-08-15T13:56:05Z</time>
      </trkpt>
      <trkpt lat="42.0032770" lon="-5.7152750">
        <ele>707.5</ele>
        <time>2019-08-15T13:56:06Z</time>
      </trkpt>
      <trkpt lat="42.0033090" lon="-5.7152940">
        <ele>707.4</ele>
        <time>2019-08-15T13:56:07Z</time>
      </trkpt>
      <trkpt lat="42.0033400" lon="-5.7153150">
        <ele>707.3</ele>
        <time>2019-08-15T13:56:08Z</time>
      </trkpt>
      <trkpt lat="42.0033690" lon="-5.7153360">
        <ele>707.3</ele>
        <time>2019-08-15T13:56:09Z</time>
      </trkpt>
      <trkpt lat="42.0033990" lon="-5.7153590">
        <ele>707.2</ele>
        <time>2019-08-15T13:56:10Z</time>
      </trkpt>
      <trkpt lat="42.0034290" lon="-5.7153820">
        <ele>707.1</ele>
        <time>2019-08-15T13:56:11Z</time>
      </trkpt>
      <trkpt lat="42.0034580" lon="-5.7154060">
        <ele>707.1</ele>
        <time>2019-08-15T13:56:12Z</time>
      </trkpt>
      <trkpt lat="42.0034860" lon="-5.7154290">
        <ele>707.0</ele>
        <time>2019-08-15T13:56:13Z</time>
      </trkpt>
      <trkpt lat="42.0035140" lon="-5.7154520">
        <ele>706.9</ele>
        <time>2019-08-15T13:56:14Z</time>
      </trkpt>
      <trkpt lat="42.0035410" lon="-5.7154750">
        <ele>706.9</ele>
        <time>2019-08-15T13:56:15Z</time>
      </trkpt>
      <trkpt lat="42.0035650" lon="-5.7154990">
        <ele>706.8</ele>
        <time>2019-08-15T13:56:16Z</time>
      </trkpt>
      <trkpt lat="42.0035890" lon="-5.7155220">
        <ele>706.8</ele>
        <time>2019-08-15T13:56:17Z</time>
      </trkpt>
      <trkpt lat="42.0036130" lon="-5.7155440">
        <ele>706.7</ele>
        <time>2019-08-15T13:56:18Z</time>
      </trkpt>
      <trkpt lat="42.0036370" lon="-5.7155610">
        <ele>706.7</ele>
        <time>2019-08-15T13:56:19Z</time>
      </trkpt>
      <trkpt lat="42.0036610" lon="-5.7155790">
        <ele>706.6</ele>
        <time>2019-08-15T13:56:20Z</time>
      </trkpt>
      <trkpt lat="42.0037040" lon="-5.7156160">
        <ele>706.5</ele>
        <time>2019-08-15T13:56:22Z</time>
      </trkpt>
      <trkpt lat="42.0037460" lon="-5.7156490">
        <ele>706.4</ele>
        <time>2019-08-15T13:56:24Z</time>
      </trkpt>
      <trkpt lat="42.0037860" lon="-5.7156800">
        <ele>706.3</ele>
        <time>2019-08-15T13:56:26Z</time>
      </trkpt>
      <trkpt lat="42.0038260" lon="-5.7157050">
        <ele>706.3</ele>
        <time>2019-08-15T13:56:28Z</time>
      </trkpt>
      <trkpt lat="42.0038600" lon="-5.7157280">
        <ele>706.3</ele>
        <time>2019-08-15T13:56:30Z</time>
      </trkpt>
      <trkpt lat="42.0038880" lon="-5.7157580">
        <ele>706.2</ele>
        <time>2019-08-15T13:56:32Z</time>
      </trkpt>
      <trkpt lat="42.0039100" lon="-5.7157920">
        <ele>706.3</ele>
        <time>2019-08-15T13:56:34Z</time>
      </trkpt>
      <trkpt lat="42.0039180" lon="-5.7158290">
        <ele>706.3</ele>
        <time>2019-08-15T13:56:36Z</time>
      </trkpt>
      <trkpt lat="42.0039050" lon="-5.7158710">
        <ele>706.3</ele>
        <time>2019-08-15T13:56:38Z</time>
      </trkpt>
      <trkpt lat="42.0038880" lon="-5.7159160">
        <ele>706.3</ele>
        <time>2019-08-15T13:56:40Z</time>
      </trkpt>
      <trkpt lat="42.0038780" lon="-5.7159360">
        <ele>706.3</ele>
        <time>2019-08-15T13:56:42Z</time>
      </trkpt>
      <trkpt lat="42.0039380" lon="-5.7159260">
        <ele>706.3</ele>
        <time>2019-08-15T13:57:15Z</time>
      </trkpt>
      <trkpt lat="42.0039270" lon="-5.7158700">
        <ele>706.3</ele>
        <time>2019-08-15T13:57:17Z</time>
      </trkpt>
      <trkpt lat="42.0038990" lon="-5.7158240">
        <ele>706.2</ele>
        <time>2019-08-15T13:57:19Z</time>
      </trkpt>
      <trkpt lat="42.0038770" lon="-5.7157930">
        <ele>706.2</ele>
        <time>2019-08-15T13:57:21Z</time>
      </trkpt>
      <trkpt lat="42.0038620" lon="-5.7157820">
        <ele>706.2</ele>
        <time>2019-08-15T13:57:28Z</time>
      </trkpt>
      <trkpt lat="42.0037850" lon="-5.7156750">
        <ele>706.3</ele>
        <time>2019-08-15T13:58:32Z</time>
      </trkpt>
      <trkpt lat="42.0037590" lon="-5.7156570">
        <ele>706.3</ele>
        <time>2019-08-15T13:58:33Z</time>
      </trkpt>
      <trkpt lat="42.0037300" lon="-5.7156360">
        <ele>706.4</ele>
        <time>2019-08-15T13:58:34Z</time>
      </trkpt>
      <trkpt lat="42.0037010" lon="-5.7156120">
        <ele>706.5</ele>
        <time>2019-08-15T13:58:35Z</time>
      </trkpt>
      <trkpt lat="42.0036710" lon="-5.7155880">
        <ele>706.6</ele>
        <time>2019-08-15T13:58:36Z</time>
      </trkpt>
      <trkpt lat="42.0036400" lon="-5.7155640">
        <ele>706.6</ele>
        <time>2019-08-15T13:58:37Z</time>
      </trkpt>
      <trkpt lat="42.0036080" lon="-5.7155390">
        <ele>706.7</ele>
        <time>2019-08-15T13:58:38Z</time>
      </trkpt>
      <trkpt lat="42.0035760" lon="-5.7155110">
        <ele>706.8</ele>
        <time>2019-08-15T13:58:39Z</time>
      </trkpt>
      <trkpt lat="42.0035430" lon="-5.7154810">
        <ele>706.9</ele>
        <time>2019-08-15T13:58:40Z</time>
      </trkpt>
      <trkpt lat="42.0035080" lon="-5.7154520">
        <ele>706.9</ele>
        <time>2019-08-15T13:58:41Z</time>
      </trkpt>
      <trkpt lat="42.0034730" lon="-5.7154200">
        <ele>707.0</ele>
        <time>2019-08-15T13:58:42Z</time>
      </trkpt>
      <trkpt lat="42.0034380" lon="-5.7153920">
        <ele>707.1</ele>
        <time>2019-08-15T13:58:43Z</time>
      </trkpt>
      <trkpt lat="42.0034010" lon="-5.7153630">
        <ele>707.2</ele>
        <time>2019-08-15T13:58:44Z</time>
      </trkpt>
      <trkpt lat="42.0033630" lon="-5.7153360">
        <ele>707.3</ele>
        <time>2019-08-15T13:58:45Z</time>
      </trkpt>
      <trkpt lat="42.0033250" lon="-5.7153090">
        <ele>707.4</ele>
        <time>2019-08-15T13:58:46Z</time>
      </trkpt>
      <trkpt lat="42.0032850" lon="-5.7152820">
        <ele>707.4</ele>
        <time>2019-08-15T13:58:47Z</time>
      </trkpt>
      <trkpt lat="42.0032440" lon="-5.7152580">
        <ele>707.5</ele>
        <time>2019-08-15T13:58:48Z</time>
      </trkpt>
      <trkpt lat="42.0032020" lon="-5.7152350">
        <ele>707.6</ele>
        <time>2019-08-15T13:58:49Z</time>
      </trkpt>
      <trkpt lat="42.0031590" lon="-5.7152160">
        <ele>707.7</ele>
        <time>2019-08-15T13:58:50Z</time>
      </trkpt>
      <trkpt lat="42.0031140" lon="-5.7151970">
        <ele>707.8</ele>
        <time>2019-08-15T13:58:51Z</time>
      </trkpt>
      <trkpt lat="42.0030700" lon="-5.7151780">
        <ele>707.9</ele>
        <time>2019-08-15T13:58:52Z</time>
      </trkpt>
      <trkpt lat="42.0030240" lon="-5.7151610">
        <ele>708.0</ele>
        <time>2019-08-15T13:58:53Z</time>
      </trkpt>
      <trkpt lat="42.0029770" lon="-5.7151430">
        <ele>708.1</ele>
        <time>2019-08-15T13:58:54Z</time>
      </trkpt>
      <trkpt lat="42.0029310" lon="-5.7151250">
        <ele>708.2</ele>
        <time>2019-08-15T13:58:55Z</time>
      </trkpt>
      <trkpt lat="42.0028840" lon="-5.7151060">
        <ele>708.3</ele>
        <time>2019-08-15T13:58:56Z</time>
      </trkpt>
      <trkpt lat="42.0028370" lon="-5.7150870">
        <ele>708.4</ele>
        <time>2019-08-15T13:58:57Z</time>
      </trkpt>
      <trkpt lat="42.0027900" lon="-5.7150690">
        <ele>708.5</ele>
        <time>2019-08-15T13:58:58Z</time>
      </trkpt>
      <trkpt lat="42.0027420" lon="-5.7150530">
        <ele>708.6</ele>
        <time>2019-08-15T13:58:59Z</time>
      </trkpt>
      <trkpt lat="42.0026930" lon="-5.7150390">
        <ele>708.7</ele>
        <time>2019-08-15T13:59:00Z</time>
      </trkpt>
      <trkpt lat="42.0026450" lon="-5.7150290">
        <ele>708.8</ele>
        <time>2019-08-15T13:59:01Z</time>
      </trkpt>
      <trkpt lat="42.0025960" lon="-5.7150180">
        <ele>708.8</ele>
        <time>2019-08-15T13:59:02Z</time>
      </trkpt>
      <trkpt lat="42.0025480" lon="-5.7150030">
        <ele>708.9</ele>
        <time>2019-08-15T13:59:03Z</time>
      </trkpt>
      <trkpt lat="42.0025020" lon="-5.7149870">
        <ele>709.0</ele>
        <time>2019-08-15T13:59:04Z</time>
      </trkpt>
      <trkpt lat="42.0024570" lon="-5.7149730">
        <ele>709.1</ele>
        <time>2019-08-15T13:59:05Z</time>
      </trkpt>
      <trkpt lat="42.0024110" lon="-5.7149650">
        <ele>709.1</ele>
        <time>2019-08-15T13:59:06Z</time>
      </trkpt>
      <trkpt lat="42.0023660" lon="-5.7149660">
        <ele>709.2</ele>
        <time>2019-08-15T13:59:07Z</time>
      </trkpt>
      <trkpt lat="42.0023190" lon="-5.7149670">
        <ele>709.3</ele>
        <time>2019-08-15T13:59:08Z</time>
      </trkpt>
      <trkpt lat="42.0022730" lon="-5.7149670">
        <ele>709.3</ele>
        <time>2019-08-15T13:59:09Z</time>
      </trkpt>
      <trkpt lat="42.0022250" lon="-5.7149730">
        <ele>709.4</ele>
        <time>2019-08-15T13:59:10Z</time>
      </trkpt>
      <trkpt lat="42.0021750" lon="-5.7149790">
        <ele>709.5</ele>
        <time>2019-08-15T13:59:11Z</time>
      </trkpt>
      <trkpt lat="42.0021240" lon="-5.7149880">
        <ele>709.5</ele>
        <time>2019-08-15T13:59:12Z</time>
      </trkpt>
      <trkpt lat="42.0020730" lon="-5.7149960">
        <ele>709.5</ele>
        <time>2019-08-15T13:59:13Z</time>
      </trkpt>
      <trkpt lat="42.0020200" lon="-5.7150030">
        <ele>709.5</ele>
        <time>2019-08-15T13:59:14Z</time>
      </trkpt>
      <trkpt lat="42.0019670" lon="-5.7150110">
        <ele>709.5</ele>
        <time>2019-08-15T13:59:15Z</time>
      </trkpt>
      <trkpt lat="42.0019130" lon="-5.7150200">
        <ele>709.5</ele>
        <time>2019-08-15T13:59:16Z</time>
      </trkpt>
      <trkpt lat="42.0018580" lon="-5.7150330">
        <ele>709.5</ele>
        <time>2019-08-15T13:59:17Z</time>
      </trkpt>
      <trkpt lat="42.0018030" lon="-5.7150430">
        <ele>709.5</ele>
        <time>2019-08-15T13:59:18Z</time>
      </trkpt>
      <trkpt lat="42.0017500" lon="-5.7150520">
        <ele>709.5</ele>
        <time>2019-08-15T13:59:19Z</time>
      </trkpt>
      <trkpt lat="42.0016980" lon="-5.7150570">
        <ele>709.6</ele>
        <time>2019-08-15T13:59:20Z</time>
      </trkpt>
      <trkpt lat="42.0016470" lon="-5.7150610">
        <ele>709.6</ele>
        <time>2019-08-15T13:59:21Z</time>
      </trkpt>
      <trkpt lat="42.0015970" lon="-5.7150630">
        <ele>709.6</ele>
        <time>2019-08-15T13:59:22Z</time>
      </trkpt>
      <trkpt lat="42.0015470" lon="-5.7150610">
        <ele>709.6</ele>
        <time>2019-08-15T13:59:23Z</time>
      </trkpt>
      <trkpt lat="42.0014980" lon="-5.7150590">
        <ele>709.6</ele>
        <time>2019-08-15T13:59:24Z</time>
      </trkpt>
      <trkpt lat="42.0014490" lon="-5.7150570">
        <ele>709.6</ele>
        <time>2019-08-15T13:59:25Z</time>
      </trkpt>
      <trkpt lat="42.0014020" lon="-5.7150560">
        <ele>709.6</ele>
        <time>2019-08-15T13:59:26Z</time>
      </trkpt>
      <trkpt lat="42.0013550" lon="-5.7150540">
        <ele>709.7</ele>
        <time>2019-08-15T13:59:27Z</time>
      </trkpt>
      <trkpt lat="42.0013100" lon="-5.7150500">
        <ele>709.7</ele>
        <time>2019-08-15T13:59:28Z</time>
      </trkpt>
      <trkpt lat="42.0012670" lon="-5.7150440">
        <ele>709.7</ele>
        <time>2019-08-15T13:59:29Z</time>
      </trkpt>
      <trkpt lat="42.0012220" lon="-5.7150360">
        <ele>709.8</ele>
        <time>2019-08-15T13:59:30Z</time>
      </trkpt>
      <trkpt lat="42.0011790" lon="-5.7150300">
        <ele>709.8</ele>
        <time>2019-08-15T13:59:31Z</time>
      </trkpt>
      <trkpt lat="42.0011340" lon="-5.7150270">
        <ele>709.8</ele>
        <time>2019-08-15T13:59:32Z</time>
      </trkpt>
      <trkpt lat="42.0010940" lon="-5.7150310">
        <ele>709.9</ele>
        <time>2019-08-15T13:59:33Z</time>
      </trkpt>
      <trkpt lat="42.0010550" lon="-5.7150370">
        <ele>709.9</ele>
        <time>2019-08-15T13:59:34Z</time>
      </trkpt>
      <trkpt lat="42.0010170" lon="-5.7150420">
        <ele>709.9</ele>
        <time>2019-08-15T13:59:35Z</time>
      </trkpt>
      <trkpt lat="42.0009800" lon="-5.7150510">
        <ele>709.9</ele>
        <time>2019-08-15T13:59:36Z</time>
      </trkpt>
      <trkpt lat="42.0009440" lon="-5.7150630">
        <ele>709.9</ele>
        <time>2019-08-15T13:59:37Z</time>
      </trkpt>
      <trkpt lat="42.0009090" lon="-5.7150760">
        <ele>709.9</ele>
        <time>2019-08-15T13:59:38Z</time>
      </trkpt>
      <trkpt lat="42.0008800" lon="-5.7150900">
        <ele>709.9</ele>
        <time>2019-08-15T13:59:39Z</time>
      </trkpt>
      <trkpt lat="42.0008540" lon="-5.7151060">
        <ele>709.9</ele>
        <time>2019-08-15T13:59:40Z</time>
      </trkpt>
      <trkpt lat="42.0008330" lon="-5.7151280">
        <ele>709.9</ele>
        <time>2019-08-15T13:59:41Z</time>
      </trkpt>
      <trkpt lat="42.0008200" lon="-5.7151870">
        <ele>710.0</ele>
        <time>2019-08-15T13:59:43Z</time>
      </trkpt>
      <trkpt lat="42.0008250" lon="-5.7152690">
        <ele>710.0</ele>
        <time>2019-08-15T13:59:45Z</time>
      </trkpt>
      <trkpt lat="42.0008260" lon="-5.7153140">
        <ele>710.1</ele>
        <time>2019-08-15T13:59:46Z</time>
      </trkpt>
      <trkpt lat="42.0008260" lon="-5.7153620">
        <ele>710.1</ele>
        <time>2019-08-15T13:59:47Z</time>
      </trkpt>
      <trkpt lat="42.0008260" lon="-5.7154130">
        <ele>710.2</ele>
        <time>2019-08-15T13:59:48Z</time>
      </trkpt>
      <trkpt lat="42.0008250" lon="-5.7154660">
        <ele>710.2</ele>
        <time>2019-08-15T13:59:49Z</time>
      </trkpt>
      <trkpt lat="42.0008250" lon="-5.7155210">
        <ele>710.2</ele>
        <time>2019-08-15T13:59:50Z</time>
      </trkpt>
      <trkpt lat="42.0008240" lon="-5.7155770">
        <ele>710.2</ele>
        <time>2019-08-15T13:59:51Z</time>
      </trkpt>
      <trkpt lat="42.0008220" lon="-5.7156340">
        <ele>710.2</ele>
        <time>2019-08-15T13:59:52Z</time>
      </trkpt>
      <trkpt lat="42.0008200" lon="-5.7156940">
        <ele>710.2</ele>
        <time>2019-08-15T13:59:53Z</time>
      </trkpt>
      <trkpt lat="42.0008180" lon="-5.7157530">
        <ele>710.2</ele>
        <time>2019-08-15T13:59:54Z</time>
      </trkpt>
      <trkpt lat="42.0008150" lon="-5.7158140">
        <ele>710.1</ele>
        <time>2019-08-15T13:59:55Z</time>
      </trkpt>
      <trkpt lat="42.0008110" lon="-5.7158740">
        <ele>710.1</ele>
        <time>2019-08-15T13:59:56Z</time>
      </trkpt>
      <trkpt lat="42.0008040" lon="-5.7159360">
        <ele>710.1</ele>
        <time>2019-08-15T13:59:57Z</time>
      </trkpt>
      <trkpt lat="42.0007960" lon="-5.7159970">
        <ele>710.0</ele>
        <time>2019-08-15T13:59:58Z</time>
      </trkpt>
      <trkpt lat="42.0007870" lon="-5.7160590">
        <ele>710.0</ele>
        <time>2019-08-15T13:59:59Z</time>
      </trkpt>
      <trkpt lat="42.0007780" lon="-5.7161230">
        <ele>709.9</ele>
        <time>2019-08-15T14:00:00Z</time>
      </trkpt>
      <trkpt lat="42.0007710" lon="-5.7161870">
        <ele>709.9</ele>
        <time>2019-08-15T14:00:01Z</time>
      </trkpt>
      <trkpt lat="42.0007630" lon="-5.7162510">
        <ele>709.8</ele>
        <time>2019-08-15T14:00:02Z</time>
      </trkpt>
      <trkpt lat="42.0007540" lon="-5.7163160">
        <ele>709.8</ele>
        <time>2019-08-15T14:00:03Z</time>
      </trkpt>
      <trkpt lat="42.0007470" lon="-5.7163810">
        <ele>709.7</ele>
        <time>2019-08-15T14:00:04Z</time>
      </trkpt>
      <trkpt lat="42.0007410" lon="-5.7164450">
        <ele>709.7</ele>
        <time>2019-08-15T14:00:05Z</time>
      </trkpt>
      <trkpt lat="42.0007370" lon="-5.7165110">
        <ele>709.7</ele>
        <time>2019-08-15T14:00:06Z</time>
      </trkpt>
      <trkpt lat="42.0007330" lon="-5.7165760">
        <ele>709.6</ele>
        <time>2019-08-15T14:00:07Z</time>
      </trkpt>
      <trkpt lat="42.0007300" lon="-5.7166400">
        <ele>709.6</ele>
        <time>2019-08-15T14:00:08Z</time>
      </trkpt>
      <trkpt lat="42.0007270" lon="-5.7167060">
        <ele>709.6</ele>
        <time>2019-08-15T14:00:09Z</time>
      </trkpt>
      <trkpt lat="42.0007260" lon="-5.7167710">
        <ele>709.6</ele>
        <time>2019-08-15T14:00:10Z</time>
      </trkpt>
      <trkpt lat="42.0007250" lon="-5.7168370">
        <ele>709.5</ele>
        <time>2019-08-15T14:00:11Z</time>
      </trkpt>
      <trkpt lat="42.0007250" lon="-5.7169050">
        <ele>709.5</ele>
        <time>2019-08-15T14:00:12Z</time>
      </trkpt>
      <trkpt lat="42.0007240" lon="-5.7169720">
        <ele>709.5</ele>
        <time>2019-08-15T14:00:13Z</time>
      </trkpt>
      <trkpt lat="42.0007230" lon="-5.7170400">
        <ele>709.4</ele>
        <time>2019-08-15T14:00:14Z</time>
      </trkpt>
      <trkpt lat="42.0007240" lon="-5.7171100">
        <ele>709.4</ele>
        <time>2019-08-15T14:00:15Z</time>
      </trkpt>
      <trkpt lat="42.0007240" lon="-5.7171790">
        <ele>709.4</ele>
        <time>2019-08-15T14:00:16Z</time>
      </trkpt>
      <trkpt lat="42.0007240" lon="-5.7172480">
        <ele>709.4</ele>
        <time>2019-08-15T14:00:17Z</time>
      </trkpt>
      <trkpt lat="42.0007230" lon="-5.7173160">
        <ele>709.3</ele>
        <time>2019-08-15T14:00:18Z</time>
      </trkpt>
      <trkpt lat="42.0007220" lon="-5.7173860">
        <ele>709.3</ele>
        <time>2019-08-15T14:00:19Z</time>
      </trkpt>
      <trkpt lat="42.0007230" lon="-5.7174560">
        <ele>709.3</ele>
        <time>2019-08-15T14:00:20Z</time>
      </trkpt>
      <trkpt lat="42.0007240" lon="-5.7175260">
        <ele>709.3</ele>
        <time>2019-08-15T14:00:21Z</time>
      </trkpt>
      <trkpt lat="42.0007230" lon="-5.7175970">
        <ele>709.3</ele>
        <time>2019-08-15T14:00:22Z</time>
      </trkpt>
      <trkpt lat="42.0007240" lon="-5.7176670">
        <ele>709.3</ele>
        <time>2019-08-15T14:00:23Z</time>
      </trkpt>
      <trkpt lat="42.0007230" lon="-5.7177390">
        <ele>709.3</ele>
        <time>2019-08-15T14:00:24Z</time>
      </trkpt>
      <trkpt lat="42.0007210" lon="-5.7178110">
        <ele>709.2</ele>
        <time>2019-08-15T14:00:25Z</time>
      </trkpt>
      <trkpt lat="42.0007210" lon="-5.7178810">
        <ele>709.1</ele>
        <time>2019-08-15T14:00:26Z</time>
      </trkpt>
      <trkpt lat="42.0007200" lon="-5.7179520">
        <ele>708.9</ele>
        <time>2019-08-15T14:00:27Z</time>
      </trkpt>
      <trkpt lat="42.0007190" lon="-5.7180230">
        <ele>708.8</ele>
        <time>2019-08-15T14:00:28Z</time>
      </trkpt>
      <trkpt lat="42.0007180" lon="-5.7180930">
        <ele>708.6</ele>
        <time>2019-08-15T14:00:29Z</time>
      </trkpt>
      <trkpt lat="42.0007180" lon="-5.7181640">
        <ele>708.4</ele>
        <time>2019-08-15T14:00:30Z</time>
      </trkpt>
      <trkpt lat="42.0007180" lon="-5.7182340">
        <ele>708.3</ele>
        <time>2019-08-15T14:00:31Z</time>
      </trkpt>
      <trkpt lat="42.0007170" lon="-5.7183040">
        <ele>708.2</ele>
        <time>2019-08-15T14:00:32Z</time>
      </trkpt>
      <trkpt lat="42.0007170" lon="-5.7183750">
        <ele>708.1</ele>
        <time>2019-08-15T14:00:33Z</time>
      </trkpt>
      <trkpt lat="42.0007180" lon="-5.7184470">
        <ele>708.1</ele>
        <time>2019-08-15T14:00:34Z</time>
      </trkpt>
      <trkpt lat="42.0007170" lon="-5.7185180">
        <ele>708.0</ele>
        <time>2019-08-15T14:00:35Z</time>
      </trkpt>
      <trkpt lat="42.0007170" lon="-5.7185880">
        <ele>708.0</ele>
        <time>2019-08-15T14:00:36Z</time>
      </trkpt>
      <trkpt lat="42.0007180" lon="-5.7186570">
        <ele>708.0</ele>
        <time>2019-08-15T14:00:37Z</time>
      </trkpt>
      <trkpt lat="42.0007170" lon="-5.7187260">
        <ele>708.0</ele>
        <time>2019-08-15T14:00:38Z</time>
      </trkpt>
      <trkpt lat="42.0007160" lon="-5.7187940">
        <ele>708.0</ele>
        <time>2019-08-15T14:00:39Z</time>
      </trkpt>
      <trkpt lat="42.0007150" lon="-5.7188630">
        <ele>707.9</ele>
        <time>2019-08-15T14:00:40Z</time>
      </trkpt>
      <trkpt lat="42.0007150" lon="-5.7189300">
        <ele>707.9</ele>
        <time>2019-08-15T14:00:41Z</time>
      </trkpt>
      <trkpt lat="42.0007150" lon="-5.7189970">
        <ele>707.9</ele>
        <time>2019-08-15T14:00:42Z</time>
      </trkpt>
      <trkpt lat="42.0007150" lon="-5.7190630">
        <ele>707.9</ele>
        <time>2019-08-15T14:00:43Z</time>
      </trkpt>
      <trkpt lat="42.0007140" lon="-5.7191300">
        <ele>707.9</ele>
        <time>2019-08-15T14:00:44Z</time>
      </trkpt>
      <trkpt lat="42.0007130" lon="-5.7191950">
        <ele>707.9</ele>
        <time>2019-08-15T14:00:45Z</time>
      </trkpt>
      <trkpt lat="42.0007130" lon="-5.7192600">
        <ele>707.9</ele>
        <time>2019-08-15T14:00:46Z</time>
      </trkpt>
      <trkpt lat="42.0007130" lon="-5.7193250">
        <ele>707.9</ele>
        <time>2019-08-15T14:00:47Z</time>
      </trkpt>
      <trkpt lat="42.0007130" lon="-5.7193890">
        <ele>707.9</ele>
        <time>2019-08-15T14:00:48Z</time>
      </trkpt>
      <trkpt lat="42.0007140" lon="-5.7194540">
        <ele>707.8</ele>
        <time>2019-08-15T14:00:49Z</time>
      </trkpt>
      <trkpt lat="42.0007140" lon="-5.7195180">
        <ele>707.8</ele>
        <time>2019-08-15T14:00:50Z</time>
      </trkpt>
      <trkpt lat="42.0007120" lon="-5.7195830">
        <ele>707.9</ele>
        <time>2019-08-15T14:00:51Z</time>
      </trkpt>
      <trkpt lat="42.0007110" lon="-5.7196480">
        <ele>708.0</ele>
        <time>2019-08-15T14:00:52Z</time>
      </trkpt>
      <trkpt lat="42.0007100" lon="-5.7197120">
        <ele>708.0</ele>
        <time>2019-08-15T14:00:53Z</time>
      </trkpt>
      <trkpt lat="42.0007110" lon="-5.7197750">
        <ele>708.1</ele>
        <time>2019-08-15T14:00:54Z</time>
      </trkpt>
      <trkpt lat="42.0007120" lon="-5.7198410">
        <ele>708.1</ele>
        <time>2019-08-15T14:00:55Z</time>
      </trkpt>
      <trkpt lat="42.0007120" lon="-5.7199080">
        <ele>708.1</ele>
        <time>2019-08-15T14:00:56Z</time>
      </trkpt>
      <trkpt lat="42.0007120" lon="-5.7199740">
        <ele>708.1</ele>
        <time>2019-08-15T14:00:57Z</time>
      </trkpt>
      <trkpt lat="42.0007110" lon="-5.7200390">
        <ele>708.2</ele>
        <time>2019-08-15T14:00:58Z</time>
      </trkpt>
      <trkpt lat="42.0007100" lon="-5.7201060">
        <ele>708.2</ele>
        <time>2019-08-15T14:00:59Z</time>
      </trkpt>
      <trkpt lat="42.0007090" lon="-5.7201730">
        <ele>708.1</ele>
        <time>2019-08-15T14:01:00Z</time>
      </trkpt>
      <trkpt lat="42.0007090" lon="-5.7202400">
        <ele>708.1</ele>
        <time>2019-08-15T14:01:01Z</time>
      </trkpt>
      <trkpt lat="42.0007080" lon="-5.7203090">
        <ele>708.1</ele>
        <time>2019-08-15T14:01:02Z</time>
      </trkpt>
      <trkpt lat="42.0007080" lon="-5.7203770">
        <ele>708.0</ele>
        <time>2019-08-15T14:01:03Z</time>
      </trkpt>
      <trkpt lat="42.0007070" lon="-5.7204460">
        <ele>707.9</ele>
        <time>2019-08-15T14:01:04Z</time>
      </trkpt>
      <trkpt lat="42.0007070" lon="-5.7205110">
        <ele>707.9</ele>
        <time>2019-08-15T14:01:05Z</time>
      </trkpt>
      <trkpt lat="42.0007060" lon="-5.7205750">
        <ele>707.8</ele>
        <time>2019-08-15T14:01:06Z</time>
      </trkpt>
      <trkpt lat="42.0007030" lon="-5.7206370">
        <ele>707.7</ele>
        <time>2019-08-15T14:01:07Z</time>
      </trkpt>
      <trkpt lat="42.0007010" lon="-5.7207010">
        <ele>707.6</ele>
        <time>2019-08-15T14:01:08Z</time>
      </trkpt>
      <trkpt lat="42.0006990" lon="-5.7207650">
        <ele>707.6</ele>
        <time>2019-08-15T14:01:09Z</time>
      </trkpt>
      <trkpt lat="42.0006970" lon="-5.7208300">
        <ele>707.5</ele>
        <time>2019-08-15T14:01:10Z</time>
      </trkpt>
      <trkpt lat="42.0006950" lon="-5.7208970">
        <ele>707.5</ele>
        <time>2019-08-15T14:01:11Z</time>
      </trkpt>
      <trkpt lat="42.0006930" lon="-5.7209650">
        <ele>707.4</ele>
        <time>2019-08-15T14:01:12Z</time>
      </trkpt>
      <trkpt lat="42.0006920" lon="-5.7210320">
        <ele>707.4</ele>
        <time>2019-08-15T14:01:13Z</time>
      </trkpt>
      <trkpt lat="42.0006910" lon="-5.7211010">
        <ele>707.3</ele>
        <time>2019-08-15T14:01:14Z</time>
      </trkpt>
      <trkpt lat="42.0006900" lon="-5.7211690">
        <ele>707.3</ele>
        <time>2019-08-15T14:01:15Z</time>
      </trkpt>
      <trkpt lat="42.0006900" lon="-5.7212350">
        <ele>707.3</ele>
        <time>2019-08-15T14:01:16Z</time>
      </trkpt>
      <trkpt lat="42.0006890" lon="-5.7213020">
        <ele>707.3</ele>
        <time>2019-08-15T14:01:17Z</time>
      </trkpt>
      <trkpt lat="42.0006870" lon="-5.7213680">
        <ele>707.2</ele>
        <time>2019-08-15T14:01:18Z</time>
      </trkpt>
      <trkpt lat="42.0006860" lon="-5.7214370">
        <ele>707.2</ele>
        <time>2019-08-15T14:01:19Z</time>
      </trkpt>
      <trkpt lat="42.0006850" lon="-5.7215060">
        <ele>707.2</ele>
        <time>2019-08-15T14:01:20Z</time>
      </trkpt>
      <trkpt lat="42.0006850" lon="-5.7215750">
        <ele>707.2</ele>
        <time>2019-08-15T14:01:21Z</time>
      </trkpt>
      <trkpt lat="42.0006840" lon="-5.7216450">
        <ele>707.3</ele>
        <time>2019-08-15T14:01:22Z</time>
      </trkpt>
      <trkpt lat="42.0006830" lon="-5.7217160">
        <ele>707.3</ele>
        <time>2019-08-15T14:01:23Z</time>
      </trkpt>
      <trkpt lat="42.0006820" lon="-5.7217870">
        <ele>707.4</ele>
        <time>2019-08-15T14:01:24Z</time>
      </trkpt>
      <trkpt lat="42.0006820" lon="-5.7218590">
        <ele>707.4</ele>
        <time>2019-08-15T14:01:25Z</time>
      </trkpt>
      <trkpt lat="42.0006810" lon="-5.7219310">
        <ele>707.4</ele>
        <time>2019-08-15T14:01:26Z</time>
      </trkpt>
      <trkpt lat="42.0006810" lon="-5.7220010">
        <ele>707.3</ele>
        <time>2019-08-15T14:01:27Z</time>
      </trkpt>
      <trkpt lat="42.0006800" lon="-5.7220690">
        <ele>707.3</ele>
        <time>2019-08-15T14:01:28Z</time>
      </trkpt>
      <trkpt lat="42.0006790" lon="-5.7221370">
        <ele>707.3</ele>
        <time>2019-08-15T14:01:29Z</time>
      </trkpt>
      <trkpt lat="42.0006750" lon="-5.7222050">
        <ele>707.3</ele>
        <time>2019-08-15T14:01:30Z</time>
      </trkpt>
      <trkpt lat="42.0006730" lon="-5.7222730">
        <ele>707.3</ele>
        <time>2019-08-15T14:01:31Z</time>
      </trkpt>
      <trkpt lat="42.0006720" lon="-5.7223420">
        <ele>707.3</ele>
        <time>2019-08-15T14:01:32Z</time>
      </trkpt>
      <trkpt lat="42.0006740" lon="-5.7224130">
        <ele>707.3</ele>
        <time>2019-08-15T14:01:33Z</time>
      </trkpt>
      <trkpt lat="42.0006730" lon="-5.7224800">
        <ele>707.3</ele>
        <time>2019-08-15T14:01:34Z</time>
      </trkpt>
      <trkpt lat="42.0006730" lon="-5.7225480">
        <ele>707.2</ele>
        <time>2019-08-15T14:01:35Z</time>
      </trkpt>
      <trkpt lat="42.0006720" lon="-5.7226160">
        <ele>707.2</ele>
        <time>2019-08-15T14:01:36Z</time>
      </trkpt>
      <trkpt lat="42.0006710" lon="-5.7226840">
        <ele>707.2</ele>
        <time>2019-08-15T14:01:37Z</time>
      </trkpt>
      <trkpt lat="42.0006700" lon="-5.7227520">
        <ele>707.2</ele>
        <time>2019-08-15T14:01:38Z</time>
      </trkpt>
      <trkpt lat="42.0006690" lon="-5.7228200">
        <ele>707.2</ele>
        <time>2019-08-15T14:01:39Z</time>
      </trkpt>
      <trkpt lat="42.0006680" lon="-5.7228900">
        <ele>707.2</ele>
        <time>2019-08-15T14:01:40Z</time>
      </trkpt>
      <trkpt lat="42.0006670" lon="-5.7229600">
        <ele>707.2</ele>
        <time>2019-08-15T14:01:41Z</time>
      </trkpt>
      <trkpt lat="42.0006690" lon="-5.7230320">
        <ele>707.3</ele>
        <time>2019-08-15T14:01:42Z</time>
      </trkpt>
      <trkpt lat="42.0006720" lon="-5.7231050">
        <ele>707.3</ele>
        <time>2019-08-15T14:01:43Z</time>
      </trkpt>
      <trkpt lat="42.0006760" lon="-5.7231790">
        <ele>707.3</ele>
        <time>2019-08-15T14:01:44Z</time>
      </trkpt>
      <trkpt lat="42.0006810" lon="-5.7232530">
        <ele>707.2</ele>
        <time>2019-08-15T14:01:45Z</time>
      </trkpt>
      <trkpt lat="42.0006830" lon="-5.7233270">
        <ele>707.2</ele>
        <time>2019-08-15T14:01:46Z</time>
      </trkpt>
      <trkpt lat="42.0006810" lon="-5.7234030">
        <ele>707.1</ele>
        <time>2019-08-15T14:01:47Z</time>
      </trkpt>
      <trkpt lat="42.0006780" lon="-5.7234780">
        <ele>707.1</ele>
        <time>2019-08-15T14:01:48Z</time>
      </trkpt>
      <trkpt lat="42.0006740" lon="-5.7235520">
        <ele>707.0</ele>
        <time>2019-08-15T14:01:49Z</time>
      </trkpt>
      <trkpt lat="42.0006710" lon="-5.7236240">
        <ele>706.9</ele>
        <time>2019-08-15T14:01:50Z</time>
      </trkpt>
      <trkpt lat="42.0006680" lon="-5.7236950">
        <ele>706.9</ele>
        <time>2019-08-15T14:01:51Z</time>
      </trkpt>
      <trkpt lat="42.0006670" lon="-5.7237640">
        <ele>706.8</ele>
        <time>2019-08-15T14:01:52Z</time>
      </trkpt>
      <trkpt lat="42.0006670" lon="-5.7238300">
        <ele>706.8</ele>
        <time>2019-08-15T14:01:53Z</time>
      </trkpt>
      <trkpt lat="42.0006650" lon="-5.7238950">
        <ele>706.7</ele>
        <time>2019-08-15T14:01:54Z</time>
      </trkpt>
      <trkpt lat="42.0006640" lon="-5.7239590">
        <ele>706.7</ele>
        <time>2019-08-15T14:01:55Z</time>
      </trkpt>
      <trkpt lat="42.0006630" lon="-5.7240220">
        <ele>706.6</ele>
        <time>2019-08-15T14:01:56Z</time>
      </trkpt>
      <trkpt lat="42.0006630" lon="-5.7240870">
        <ele>706.6</ele>
        <time>2019-08-15T14:01:57Z</time>
      </trkpt>
      <trkpt lat="42.0006630" lon="-5.7241520">
        <ele>706.5</ele>
        <time>2019-08-15T14:01:58Z</time>
      </trkpt>
      <trkpt lat="42.0006620" lon="-5.7242180">
        <ele>706.5</ele>
        <time>2019-08-15T14:01:59Z</time>
      </trkpt>
      <trkpt lat="42.0006620" lon="-5.7242870">
        <ele>706.5</ele>
        <time>2019-08-15T14:02:00Z</time>
      </trkpt>
      <trkpt lat="42.0006610" lon="-5.7243550">
        <ele>706.5</ele>
        <time>2019-08-15T14:02:01Z</time>
      </trkpt>
      <trkpt lat="42.0006620" lon="-5.7244260">
        <ele>706.5</ele>
        <time>2019-08-15T14:02:02Z</time>
      </trkpt>
      <trkpt lat="42.0006620" lon="-5.7244970">
        <ele>706.5</ele>
        <time>2019-08-15T14:02:03Z</time>
      </trkpt>
      <trkpt lat="42.0006610" lon="-5.7245710">
        <ele>706.5</ele>
        <time>2019-08-15T14:02:04Z</time>
      </trkpt>
      <trkpt lat="42.0006590" lon="-5.7246450">
        <ele>706.5</ele>
        <time>2019-08-15T14:02:05Z</time>
      </trkpt>
      <trkpt lat="42.0006570" lon="-5.7247180">
        <ele>706.5</ele>
        <time>2019-08-15T14:02:06Z</time>
      </trkpt>
      <trkpt lat="42.0006580" lon="-5.7247930">
        <ele>706.6</ele>
        <time>2019-08-15T14:02:07Z</time>
      </trkpt>
      <trkpt lat="42.0006570" lon="-5.7248690">
        <ele>706.6</ele>
        <time>2019-08-15T14:02:08Z</time>
      </trkpt>
      <trkpt lat="42.0006550" lon="-5.7249460">
        <ele>706.6</ele>
        <time>2019-08-15T14:02:09Z</time>
      </trkpt>
      <trkpt lat="42.0006530" lon="-5.7250220">
        <ele>706.6</ele>
        <time>2019-08-15T14:02:10Z</time>
      </trkpt>
      <trkpt lat="42.0006500" lon="-5.7250960">
        <ele>706.6</ele>
        <time>2019-08-15T14:02:11Z</time>
      </trkpt>
      <trkpt lat="42.0006480" lon="-5.7251670">
        <ele>706.7</ele>
        <time>2019-08-15T14:02:12Z</time>
      </trkpt>
      <trkpt lat="42.0006450" lon="-5.7252340">
        <ele>706.7</ele>
        <time>2019-08-15T14:02:13Z</time>
      </trkpt>
      <trkpt lat="42.0006450" lon="-5.7252960">
        <ele>706.8</ele>
        <time>2019-08-15T14:02:14Z</time>
      </trkpt>
      <trkpt lat="42.0006440" lon="-5.7253510">
        <ele>706.8</ele>
        <time>2019-08-15T14:02:15Z</time>
      </trkpt>
      <trkpt lat="42.0006430" lon="-5.7253960">
        <ele>706.9</ele>
        <time>2019-08-15T14:02:16Z</time>
      </trkpt>
      <trkpt lat="42.0006430" lon="-5.7254310">
        <ele>706.9</ele>
        <time>2019-08-15T14:02:17Z</time>
      </trkpt>
      <trkpt lat="42.0006470" lon="-5.7254670">
        <ele>706.9</ele>
        <time>2019-08-15T14:02:19Z</time>
      </trkpt>
      <trkpt lat="42.0006350" lon="-5.7256260">
        <ele>706.9</ele>
        <time>2019-08-15T14:03:40Z</time>
      </trkpt>
      <trkpt lat="42.0006370" lon="-5.7257070">
        <ele>706.9</ele>
        <time>2019-08-15T14:03:42Z</time>
      </trkpt>
      <trkpt lat="42.0006360" lon="-5.7257530">
        <ele>706.8</ele>
        <time>2019-08-15T14:03:43Z</time>
      </trkpt>
      <trkpt lat="42.0006340" lon="-5.7258030">
        <ele>706.8</ele>
        <time>2019-08-15T14:03:44Z</time>
      </trkpt>
      <trkpt lat="42.0006300" lon="-5.7258560">
        <ele>706.8</ele>
        <time>2019-08-15T14:03:45Z</time>
      </trkpt>
      <trkpt lat="42.0006300" lon="-5.7259110">
        <ele>706.8</ele>
        <time>2019-08-15T14:03:46Z</time>
      </trkpt>
      <trkpt lat="42.0006290" lon="-5.7259690">
        <ele>706.8</ele>
        <time>2019-08-15T14:03:47Z</time>
      </trkpt>
      <trkpt lat="42.0006280" lon="-5.7260310">
        <ele>706.8</ele>
        <time>2019-08-15T14:03:48Z</time>
      </trkpt>
      <trkpt lat="42.0006250" lon="-5.7260930">
        <ele>706.8</ele>
        <time>2019-08-15T14:03:49Z</time>
      </trkpt>
      <trkpt lat="42.0006220" lon="-5.7261570">
        <ele>706.8</ele>
        <time>2019-08-15T14:03:50Z</time>
      </trkpt>
      <trkpt lat="42.0006190" lon="-5.7262210">
        <ele>706.8</ele>
        <time>2019-08-15T14:03:51Z</time>
      </trkpt>
      <trkpt lat="42.0006160" lon="-5.7262850">
        <ele>706.8</ele>
        <time>2019-08-15T14:03:52Z</time>
      </trkpt>
      <trkpt lat="42.0006120" lon="-5.7263480">
        <ele>706.8</ele>
        <time>2019-08-15T14:03:53Z</time>
      </trkpt>
      <trkpt lat="42.0006080" lon="-5.7264100">
        <ele>706.8</ele>
        <time>2019-08-15T14:03:54Z</time>
      </trkpt>
      <trkpt lat="42.0006050" lon="-5.7264750">
        <ele>706.8</ele>
        <time>2019-08-15T14:03:55Z</time>
      </trkpt>
      <trkpt lat="42.0006020" lon="-5.7265420">
        <ele>706.9</ele>
        <time>2019-08-15T14:03:56Z</time>
      </trkpt>
      <trkpt lat="42.0006000" lon="-5.7266110">
        <ele>706.9</ele>
        <time>2019-08-15T14:03:57Z</time>
      </trkpt>
      <trkpt lat="42.0005980" lon="-5.7266800">
        <ele>706.9</ele>
        <time>2019-08-15T14:03:58Z</time>
      </trkpt>
      <trkpt lat="42.0005980" lon="-5.7267490">
        <ele>707.0</ele>
        <time>2019-08-15T14:03:59Z</time>
      </trkpt>
      <trkpt lat="42.0005990" lon="-5.7268170">
        <ele>707.1</ele>
        <time>2019-08-15T14:04:00Z</time>
      </trkpt>
      <trkpt lat="42.0005990" lon="-5.7268860">
        <ele>707.1</ele>
        <time>2019-08-15T14:04:01Z</time>
      </trkpt>
      <trkpt lat="42.0005980" lon="-5.7269510">
        <ele>707.2</ele>
        <time>2019-08-15T14:04:02Z</time>
      </trkpt>
      <trkpt lat="42.0005970" lon="-5.7270160">
        <ele>707.3</ele>
        <time>2019-08-15T14:04:03Z</time>
      </trkpt>
      <trkpt lat="42.0005940" lon="-5.7270780">
        <ele>707.4</ele>
        <time>2019-08-15T14:04:04Z</time>
      </trkpt>
      <trkpt lat="42.0005920" lon="-5.7271400">
        <ele>707.5</ele>
        <time>2019-08-15T14:04:05Z</time>
      </trkpt>
      <trkpt lat="42.0005910" lon="-5.7271990">
        <ele>707.6</ele>
        <time>2019-08-15T14:04:06Z</time>
      </trkpt>
      <trkpt lat="42.0005910" lon="-5.7272580">
        <ele>707.7</ele>
        <time>2019-08-15T14:04:07Z</time>
      </trkpt>
      <trkpt lat="42.0005910" lon="-5.7273160">
        <ele>707.9</ele>
        <time>2019-08-15T14:04:08Z</time>
      </trkpt>
      <trkpt lat="42.0005930" lon="-5.7273780">
        <ele>708.2</ele>
        <time>2019-08-15T14:04:09Z</time>
      </trkpt>
      <trkpt lat="42.0005930" lon="-5.7274410">
        <ele>708.5</ele>
        <time>2019-08-15T14:04:10Z</time>
      </trkpt>
      <trkpt lat="42.0005910" lon="-5.7275060">
        <ele>709.0</ele>
        <time>2019-08-15T14:04:11Z</time>
      </trkpt>
      <trkpt lat="42.0005920" lon="-5.7275720">
        <ele>709.4</ele>
        <time>2019-08-15T14:04:12Z</time>
      </trkpt>
      <trkpt lat="42.0005920" lon="-5.7276400">
        <ele>710.0</ele>
        <time>2019-08-15T14:04:13Z</time>
      </trkpt>
      <trkpt lat="42.0005920" lon="-5.7277090">
        <ele>710.4</ele>
        <time>2019-08-15T14:04:14Z</time>
      </trkpt>
      <trkpt lat="42.0005930" lon="-5.7277800">
        <ele>710.9</ele>
        <time>2019-08-15T14:04:15Z</time>
      </trkpt>
      <trkpt lat="42.0005930" lon="-5.7278520">
        <ele>711.2</ele>
        <time>2019-08-15T14:04:16Z</time>
      </trkpt>
      <trkpt lat="42.0005910" lon="-5.7279240">
        <ele>711.4</ele>
        <time>2019-08-15T14:04:17Z</time>
      </trkpt>
      <trkpt lat="42.0005910" lon="-5.7279980">
        <ele>711.5</ele>
        <time>2019-08-15T14:04:18Z</time>
      </trkpt>
      <trkpt lat="42.0005910" lon="-5.7280720">
        <ele>711.6</ele>
        <time>2019-08-15T14:04:19Z</time>
      </trkpt>
      <trkpt lat="42.0005910" lon="-5.7281460">
        <ele>711.7</ele>
        <time>2019-08-15T14:04:20Z</time>
      </trkpt>
      <trkpt lat="42.0005900" lon="-5.7282210">
        <ele>711.6</ele>
        <time>2019-08-15T14:04:21Z</time>
      </trkpt>
      <trkpt lat="42.0005900" lon="-5.7282970">
        <ele>711.6</ele>
        <time>2019-08-15T14:04:22Z</time>
      </trkpt>
      <trkpt lat="42.0005910" lon="-5.7283740">
        <ele>711.5</ele>
        <time>2019-08-15T14:04:23Z</time>
      </trkpt>
      <trkpt lat="42.0005930" lon="-5.7284500">
        <ele>711.3</ele>
        <time>2019-08-15T14:04:24Z</time>
      </trkpt>
      <trkpt lat="42.0005940" lon="-5.7285260">
        <ele>711.2</ele>
        <time>2019-08-15T14:04:25Z</time>
      </trkpt>
      <trkpt lat="42.0005930" lon="-5.7286000">
        <ele>711.0</ele>
        <time>2019-08-15T14:04:26Z</time>
      </trkpt>
      <trkpt lat="42.0005910" lon="-5.7286750">
        <ele>710.9</ele>
        <time>2019-08-15T14:04:27Z</time>
      </trkpt>
      <trkpt lat="42.0005880" lon="-5.7287490">
        <ele>710.7</ele>
        <time>2019-08-15T14:04:28Z</time>
      </trkpt>
      <trkpt lat="42.0005870" lon="-5.7288250">
        <ele>710.6</ele>
        <time>2019-08-15T14:04:29Z</time>
      </trkpt>
      <trkpt lat="42.0005850" lon="-5.7289010">
        <ele>710.5</ele>
        <time>2019-08-15T14:04:30Z</time>
      </trkpt>
      <trkpt lat="42.0005850" lon="-5.7289770">
        <ele>710.3</ele>
        <time>2019-08-15T14:04:31Z</time>
      </trkpt>
      <trkpt lat="42.0005840" lon="-5.7290530">
        <ele>710.2</ele>
        <time>2019-08-15T14:04:32Z</time>
      </trkpt>
      <trkpt lat="42.0005830" lon="-5.7291290">
        <ele>710.1</ele>
        <time>2019-08-15T14:04:33Z</time>
      </trkpt>
      <trkpt lat="42.0005810" lon="-5.7292050">
        <ele>709.9</ele>
        <time>2019-08-15T14:04:34Z</time>
      </trkpt>
      <trkpt lat="42.0005810" lon="-5.7292830">
        <ele>709.8</ele>
        <time>2019-08-15T14:04:35Z</time>
      </trkpt>
      <trkpt lat="42.0005790" lon="-5.7293610">
        <ele>709.6</ele>
        <time>2019-08-15T14:04:36Z</time>
      </trkpt>
      <trkpt lat="42.0005770" lon="-5.7294390">
        <ele>709.5</ele>
        <time>2019-08-15T14:04:37Z</time>
      </trkpt>
      <trkpt lat="42.0005750" lon="-5.7295180">
        <ele>709.4</ele>
        <time>2019-08-15T14:04:38Z</time>
      </trkpt>
      <trkpt lat="42.0005740" lon="-5.7295970">
        <ele>709.2</ele>
        <time>2019-08-15T14:04:39Z</time>
      </trkpt>
      <trkpt lat="42.0005740" lon="-5.7296750">
        <ele>709.1</ele>
        <time>2019-08-15T14:04:40Z</time>
      </trkpt>
      <trkpt lat="42.0005730" lon="-5.7297540">
        <ele>708.9</ele>
        <time>2019-08-15T14:04:41Z</time>
      </trkpt>
      <trkpt lat="42.0005740" lon="-5.7298340">
        <ele>708.8</ele>
        <time>2019-08-15T14:04:42Z</time>
      </trkpt>
      <trkpt lat="42.0005720" lon="-5.7299150">
        <ele>708.7</ele>
        <time>2019-08-15T14:04:43Z</time>
      </trkpt>
      <trkpt lat="42.0005720" lon="-5.7299940">
        <ele>708.6</ele>
        <time>2019-08-15T14:04:44Z</time>
      </trkpt>
      <trkpt lat="42.0005700" lon="-5.7300740">
        <ele>708.5</ele>
        <time>2019-08-15T14:04:45Z</time>
      </trkpt>
      <trkpt lat="42.0005700" lon="-5.7301560">
        <ele>708.4</ele>
        <time>2019-08-15T14:04:46Z</time>
      </trkpt>
      <trkpt lat="42.0005680" lon="-5.7302370">
        <ele>708.3</ele>
        <time>2019-08-15T14:04:47Z</time>
      </trkpt>
      <trkpt lat="42.0005660" lon="-5.7303170">
        <ele>708.3</ele>
        <time>2019-08-15T14:04:48Z</time>
      </trkpt>
      <trkpt lat="42.0005640" lon="-5.7303960">
        <ele>708.2</ele>
        <time>2019-08-15T14:04:49Z</time>
      </trkpt>
      <trkpt lat="42.0005630" lon="-5.7304750">
        <ele>708.1</ele>
        <time>2019-08-15T14:04:50Z</time>
      </trkpt>
      <trkpt lat="42.0005610" lon="-5.7305550">
        <ele>708.1</ele>
        <time>2019-08-15T14:04:51Z</time>
      </trkpt>
      <trkpt lat="42.0005610" lon="-5.7306360">
        <ele>708.0</ele>
        <time>2019-08-15T14:04:52Z</time>
      </trkpt>
      <trkpt lat="42.0005600" lon="-5.7307180">
        <ele>707.9</ele>
        <time>2019-08-15T14:04:53Z</time>
      </trkpt>
      <trkpt lat="42.0005600" lon="-5.7308000">
        <ele>707.9</ele>
        <time>2019-08-15T14:04:54Z</time>
      </trkpt>
      <trkpt lat="42.0005570" lon="-5.7308840">
        <ele>707.8</ele>
        <time>2019-08-15T14:04:55Z</time>
      </trkpt>
      <trkpt lat="42.0005550" lon="-5.7309680">
        <ele>707.8</ele>
        <time>2019-08-15T14:04:56Z</time>
      </trkpt>
      <trkpt lat="42.0005540" lon="-5.7310530">
        <ele>707.8</ele>
        <time>2019-08-15T14:04:57Z</time>
      </trkpt>
      <trkpt lat="42.0005540" lon="-5.7311360">
        <ele>707.7</ele>
        <time>2019-08-15T14:04:58Z</time>
      </trkpt>
      <trkpt lat="42.0005520" lon="-5.7312190">
        <ele>707.7</ele>
        <time>2019-08-15T14:04:59Z</time>
      </trkpt>
      <trkpt lat="42.0005520" lon="-5.7312990">
        <ele>707.7</ele>
        <time>2019-08-15T14:05:00Z</time>
      </trkpt>
      <trkpt lat="42.0005520" lon="-5.7313790">
        <ele>707.7</ele>
        <time>2019-08-15T14:05:01Z</time>
      </trkpt>
      <trkpt lat="42.0005510" lon="-5.7314570">
        <ele>707.6</ele>
        <time>2019-08-15T14:05:02Z</time>
      </trkpt>
      <trkpt lat="42.0005490" lon="-5.7315360">
        <ele>707.6</ele>
        <time>2019-08-15T14:05:03Z</time>
      </trkpt>
      <trkpt lat="42.0005490" lon="-5.7316170">
        <ele>707.6</ele>
        <time>2019-08-15T14:05:04Z</time>
      </trkpt>
      <trkpt lat="42.0005480" lon="-5.7317000">
        <ele>707.6</ele>
        <time>2019-08-15T14:05:05Z</time>
      </trkpt>
      <trkpt lat="42.0005460" lon="-5.7317850">
        <ele>707.6</ele>
        <time>2019-08-15T14:05:06Z</time>
      </trkpt>
      <trkpt lat="42.0005450" lon="-5.7318720">
        <ele>707.6</ele>
        <time>2019-08-15T14:05:07Z</time>
      </trkpt>
      <trkpt lat="42.0005440" lon="-5.7319590">
        <ele>707.6</ele>
        <time>2019-08-15T14:05:08Z</time>
      </trkpt>
      <trkpt lat="42.0005430" lon="-5.7320470">
        <ele>707.7</ele>
        <time>2019-08-15T14:05:09Z</time>
      </trkpt>
      <trkpt lat="42.0005420" lon="-5.7321360">
        <ele>707.7</ele>
        <time>2019-08-15T14:05:10Z</time>
      </trkpt>
      <trkpt lat="42.0005420" lon="-5.7322240">
        <ele>707.7</ele>
        <time>2019-08-15T14:05:11Z</time>
      </trkpt>
      <trkpt lat="42.0005410" lon="-5.7323120">
        <ele>707.8</ele>
        <time>2019-08-15T14:05:12Z</time>
      </trkpt>
      <trkpt lat="42.0005400" lon="-5.7323980">
        <ele>708.0</ele>
        <time>2019-08-15T14:05:13Z</time>
      </trkpt>
      <trkpt lat="42.0005400" lon="-5.7324830">
        <ele>708.0</ele>
        <time>2019-08-15T14:05:14Z</time>
      </trkpt>
      <trkpt lat="42.0005390" lon="-5.7325660">
        <ele>708.0</ele>
        <time>2019-08-15T14:05:15Z</time>
      </trkpt>
      <trkpt lat="42.0005410" lon="-5.7326500">
        <ele>708.0</ele>
        <time>2019-08-15T14:05:16Z</time>
      </trkpt>
      <trkpt lat="42.0005410" lon="-5.7327340">
        <ele>708.0</ele>
        <time>2019-08-15T14:05:17Z</time>
      </trkpt>
      <trkpt lat="42.0005400" lon="-5.7328180">
        <ele>708.0</ele>
        <time>2019-08-15T14:05:18Z</time>
      </trkpt>
      <trkpt lat="42.0005400" lon="-5.7329030">
        <ele>708.0</ele>
        <time>2019-08-15T14:05:19Z</time>
      </trkpt>
      <trkpt lat="42.0005400" lon="-5.7329880">
        <ele>708.0</ele>
        <time>2019-08-15T14:05:20Z</time>
      </trkpt>
      <trkpt lat="42.0005400" lon="-5.7330740">
        <ele>708.0</ele>
        <time>2019-08-15T14:05:21Z</time>
      </trkpt>
      <trkpt lat="42.0005400" lon="-5.7331590">
        <ele>708.0</ele>
        <time>2019-08-15T14:05:22Z</time>
      </trkpt>
      <trkpt lat="42.0005390" lon="-5.7332440">
        <ele>708.0</ele>
        <time>2019-08-15T14:05:23Z</time>
      </trkpt>
      <trkpt lat="42.0005380" lon="-5.7333290">
        <ele>708.0</ele>
        <time>2019-08-15T14:05:24Z</time>
      </trkpt>
      <trkpt lat="42.0005370" lon="-5.7334140">
        <ele>708.0</ele>
        <time>2019-08-15T14:05:25Z</time>
      </trkpt>
      <trkpt lat="42.0005350" lon="-5.7334970">
        <ele>708.0</ele>
        <time>2019-08-15T14:05:26Z</time>
      </trkpt>
      <trkpt lat="42.0005330" lon="-5.7335810">
        <ele>708.0</ele>
        <time>2019-08-15T14:05:27Z</time>
      </trkpt>
      <trkpt lat="42.0005330" lon="-5.7336670">
        <ele>708.0</ele>
        <time>2019-08-15T14:05:28Z</time>
      </trkpt>
      <trkpt lat="42.0005330" lon="-5.7337510">
        <ele>708.0</ele>
        <time>2019-08-15T14:05:29Z</time>
      </trkpt>
      <trkpt lat="42.0005330" lon="-5.7338350">
        <ele>708.0</ele>
        <time>2019-08-15T14:05:30Z</time>
      </trkpt>
      <trkpt lat="42.0005320" lon="-5.7339200">
        <ele>708.0</ele>
        <time>2019-08-15T14:05:31Z</time>
      </trkpt>
      <trkpt lat="42.0005310" lon="-5.7340060">
        <ele>708.0</ele>
        <time>2019-08-15T14:05:32Z</time>
      </trkpt>
      <trkpt lat="42.0005310" lon="-5.7340910">
        <ele>708.0</ele>
        <time>2019-08-15T14:05:33Z</time>
      </trkpt>
      <trkpt lat="42.0005320" lon="-5.7341750">
        <ele>708.0</ele>
        <time>2019-08-15T14:05:34Z</time>
      </trkpt>
      <trkpt lat="42.0005320" lon="-5.7342590">
        <ele>708.0</ele>
        <time>2019-08-15T14:05:35Z</time>
      </trkpt>
      <trkpt lat="42.0005320" lon="-5.7343430">
        <ele>708.0</ele>
        <time>2019-08-15T14:05:36Z</time>
      </trkpt>
      <trkpt lat="42.0005320" lon="-5.7344280">
        <ele>708.0</ele>
        <time>2019-08-15T14:05:37Z</time>
      </trkpt>
      <trkpt lat="42.0005330" lon="-5.7345110">
        <ele>708.0</ele>
        <time>2019-08-15T14:05:38Z</time>
      </trkpt>
      <trkpt lat="42.0005330" lon="-5.7345930">
        <ele>708.0</ele>
        <time>2019-08-15T14:05:39Z</time>
      </trkpt>
      <trkpt lat="42.0005320" lon="-5.7346740">
        <ele>708.0</ele>
        <time>2019-08-15T14:05:40Z</time>
      </trkpt>
      <trkpt lat="42.0005290" lon="-5.7347580">
        <ele>708.0</ele>
        <time>2019-08-15T14:05:41Z</time>
      </trkpt>
      <trkpt lat="42.0005270" lon="-5.7348440">
        <ele>708.0</ele>
        <time>2019-08-15T14:05:42Z</time>
      </trkpt>
      <trkpt lat="42.0005260" lon="-5.7349320">
        <ele>708.0</ele>
        <time>2019-08-15T14:05:43Z</time>
      </trkpt>
      <trkpt lat="42.0005240" lon="-5.7350220">
        <ele>708.0</ele>
        <time>2019-08-15T14:05:44Z</time>
      </trkpt>
      <trkpt lat="42.0005210" lon="-5.7351140">
        <ele>708.0</ele>
        <time>2019-08-15T14:05:45Z</time>
      </trkpt>
      <trkpt lat="42.0005180" lon="-5.7352060">
        <ele>708.0</ele>
        <time>2019-08-15T14:05:46Z</time>
      </trkpt>
      <trkpt lat="42.0005160" lon="-5.7352970">
        <ele>708.0</ele>
        <time>2019-08-15T14:05:47Z</time>
      </trkpt>
      <trkpt lat="42.0005150" lon="-5.7353880">
        <ele>708.0</ele>
        <time>2019-08-15T14:05:48Z</time>
      </trkpt>
      <trkpt lat="42.0005150" lon="-5.7354800">
        <ele>708.0</ele>
        <time>2019-08-15T14:05:49Z</time>
      </trkpt>
      <trkpt lat="42.0005140" lon="-5.7355710">
        <ele>708.0</ele>
        <time>2019-08-15T14:05:50Z</time>
      </trkpt>
      <trkpt lat="42.0005120" lon="-5.7356620">
        <ele>708.0</ele>
        <time>2019-08-15T14:05:51Z</time>
      </trkpt>
      <trkpt lat="42.0005100" lon="-5.7357530">
        <ele>708.0</ele>
        <time>2019-08-15T14:05:52Z</time>
      </trkpt>
      <trkpt lat="42.0005080" lon="-5.7358440">
        <ele>708.0</ele>
        <time>2019-08-15T14:05:53Z</time>
      </trkpt>
      <trkpt lat="42.0005070" lon="-5.7359350">
        <ele>708.0</ele>
        <time>2019-08-15T14:05:54Z</time>
      </trkpt>
      <trkpt lat="42.0005080" lon="-5.7360260">
        <ele>708.0</ele>
        <time>2019-08-15T14:05:55Z</time>
      </trkpt>
      <trkpt lat="42.0005060" lon="-5.7361170">
        <ele>708.0</ele>
        <time>2019-08-15T14:05:56Z</time>
      </trkpt>
      <trkpt lat="42.0005040" lon="-5.7362070">
        <ele>708.0</ele>
        <time>2019-08-15T14:05:57Z</time>
      </trkpt>
      <trkpt lat="42.0005030" lon="-5.7362970">
        <ele>708.0</ele>
        <time>2019-08-15T14:05:58Z</time>
      </trkpt>
      <trkpt lat="42.0005020" lon="-5.7363880">
        <ele>708.0</ele>
        <time>2019-08-15T14:05:59Z</time>
      </trkpt>
      <trkpt lat="42.0005010" lon="-5.7364780">
        <ele>708.0</ele>
        <time>2019-08-15T14:06:00Z</time>
      </trkpt>
      <trkpt lat="42.0005000" lon="-5.7365690">
        <ele>708.0</ele>
        <time>2019-08-15T14:06:01Z</time>
      </trkpt>
      <trkpt lat="42.0004990" lon="-5.7366560">
        <ele>708.0</ele>
        <time>2019-08-15T14:06:02Z</time>
      </trkpt>
      <trkpt lat="42.0004990" lon="-5.7367440">
        <ele>708.0</ele>
        <time>2019-08-15T14:06:03Z</time>
      </trkpt>
      <trkpt lat="42.0005000" lon="-5.7368310">
        <ele>708.0</ele>
        <time>2019-08-15T14:06:04Z</time>
      </trkpt>
      <trkpt lat="42.0005010" lon="-5.7369180">
        <ele>708.0</ele>
        <time>2019-08-15T14:06:05Z</time>
      </trkpt>
      <trkpt lat="42.0005000" lon="-5.7370050">
        <ele>708.0</ele>
        <time>2019-08-15T14:06:06Z</time>
      </trkpt>
      <trkpt lat="42.0005000" lon="-5.7370910">
        <ele>708.0</ele>
        <time>2019-08-15T14:06:07Z</time>
      </trkpt>
      <trkpt lat="42.0005010" lon="-5.7371790">
        <ele>708.0</ele>
        <time>2019-08-15T14:06:08Z</time>
      </trkpt>
      <trkpt lat="42.0005020" lon="-5.7372650">
        <ele>708.0</ele>
        <time>2019-08-15T14:06:09Z</time>
      </trkpt>
      <trkpt lat="42.0005020" lon="-5.7373510">
        <ele>708.0</ele>
        <time>2019-08-15T14:06:10Z</time>
      </trkpt>
      <trkpt lat="42.0005020" lon="-5.7374370">
        <ele>708.0</ele>
        <time>2019-08-15T14:06:11Z</time>
      </trkpt>
      <trkpt lat="42.0005010" lon="-5.7375250">
        <ele>708.0</ele>
        <time>2019-08-15T14:06:12Z</time>
      </trkpt>
      <trkpt lat="42.0005020" lon="-5.7376120">
        <ele>708.0</ele>
        <time>2019-08-15T14:06:13Z</time>
      </trkpt>
      <trkpt lat="42.0005000" lon="-5.7376990">
        <ele>708.0</ele>
        <time>2019-08-15T14:06:14Z</time>
      </trkpt>
      <trkpt lat="42.0004980" lon="-5.7377850">
        <ele>708.0</ele>
        <time>2019-08-15T14:06:15Z</time>
      </trkpt>
      <trkpt lat="42.0004940" lon="-5.7378680">
        <ele>708.0</ele>
        <time>2019-08-15T14:06:16Z</time>
      </trkpt>
      <trkpt lat="42.0004920" lon="-5.7379500">
        <ele>708.0</ele>
        <time>2019-08-15T14:06:17Z</time>
      </trkpt>
      <trkpt lat="42.0004920" lon="-5.7380330">
        <ele>708.0</ele>
        <time>2019-08-15T14:06:18Z</time>
      </trkpt>
      <trkpt lat="42.0004920" lon="-5.7381160">
        <ele>708.0</ele>
        <time>2019-08-15T14:06:19Z</time>
      </trkpt>
      <trkpt lat="42.0004920" lon="-5.7382000">
        <ele>708.0</ele>
        <time>2019-08-15T14:06:20Z</time>
      </trkpt>
      <trkpt lat="42.0004900" lon="-5.7382850">
        <ele>708.0</ele>
        <time>2019-08-15T14:06:21Z</time>
      </trkpt>
      <trkpt lat="42.0004880" lon="-5.7383690">
        <ele>708.0</ele>
        <time>2019-08-15T14:06:22Z</time>
      </trkpt>
      <trkpt lat="42.0004860" lon="-5.7384520">
        <ele>708.0</ele>
        <time>2019-08-15T14:06:23Z</time>
      </trkpt>
      <trkpt lat="42.0004850" lon="-5.7385370">
        <ele>708.1</ele>
        <time>2019-08-15T14:06:24Z</time>
      </trkpt>
      <trkpt lat="42.0004840" lon="-5.7386180">
        <ele>708.1</ele>
        <time>2019-08-15T14:06:25Z</time>
      </trkpt>
      <trkpt lat="42.0004830" lon="-5.7386990">
        <ele>708.2</ele>
        <time>2019-08-15T14:06:26Z</time>
      </trkpt>
      <trkpt lat="42.0004820" lon="-5.7387770">
        <ele>708.3</ele>
        <time>2019-08-15T14:06:27Z</time>
      </trkpt>
      <trkpt lat="42.0004800" lon="-5.7388540">
        <ele>708.3</ele>
        <time>2019-08-15T14:06:28Z</time>
      </trkpt>
      <trkpt lat="42.0004790" lon="-5.7389310">
        <ele>708.4</ele>
        <time>2019-08-15T14:06:29Z</time>
      </trkpt>
      <trkpt lat="42.0004790" lon="-5.7390080">
        <ele>708.6</ele>
        <time>2019-08-15T14:06:30Z</time>
      </trkpt>
      <trkpt lat="42.0004790" lon="-5.7390850">
        <ele>708.7</ele>
        <time>2019-08-15T14:06:31Z</time>
      </trkpt>
      <trkpt lat="42.0004780" lon="-5.7391640">
        <ele>708.8</ele>
        <time>2019-08-15T14:06:32Z</time>
      </trkpt>
      <trkpt lat="42.0004770" lon="-5.7392430">
        <ele>708.9</ele>
        <time>2019-08-15T14:06:33Z</time>
      </trkpt>
      <trkpt lat="42.0004770" lon="-5.7393230">
        <ele>708.9</ele>
        <time>2019-08-15T14:06:34Z</time>
      </trkpt>
      <trkpt lat="42.0004760" lon="-5.7394030">
        <ele>709.0</ele>
        <time>2019-08-15T14:06:35Z</time>
      </trkpt>
      <trkpt lat="42.0004750" lon="-5.7394830">
        <ele>709.0</ele>
        <time>2019-08-15T14:06:36Z</time>
      </trkpt>
      <trkpt lat="42.0004740" lon="-5.7395650">
        <ele>709.1</ele>
        <time>2019-08-15T14:06:37Z</time>
      </trkpt>
      <trkpt lat="42.0004730" lon="-5.7396450">
        <ele>709.1</ele>
        <time>2019-08-15T14:06:38Z</time>
      </trkpt>
      <trkpt lat="42.0004700" lon="-5.7397270">
        <ele>709.1</ele>
        <time>2019-08-15T14:06:39Z</time>
      </trkpt>
      <trkpt lat="42.0004690" lon="-5.7398090">
        <ele>709.1</ele>
        <time>2019-08-15T14:06:40Z</time>
      </trkpt>
      <trkpt lat="42.0004680" lon="-5.7398900">
        <ele>709.2</ele>
        <time>2019-08-15T14:06:41Z</time>
      </trkpt>
      <trkpt lat="42.0004650" lon="-5.7399700">
        <ele>709.2</ele>
        <time>2019-08-15T14:06:42Z</time>
      </trkpt>
      <trkpt lat="42.0004630" lon="-5.7400480">
        <ele>709.2</ele>
        <time>2019-08-15T14:06:43Z</time>
      </trkpt>
      <trkpt lat="42.0004610" lon="-5.7401240">
        <ele>709.1</ele>
        <time>2019-08-15T14:06:44Z</time>
      </trkpt>
      <trkpt lat="42.0004600" lon="-5.7401980">
        <ele>709.1</ele>
        <time>2019-08-15T14:06:45Z</time>
      </trkpt>
      <trkpt lat="42.0004600" lon="-5.7402710">
        <ele>709.1</ele>
        <time>2019-08-15T14:06:46Z</time>
      </trkpt>
      <trkpt lat="42.0004600" lon="-5.7403450">
        <ele>709.1</ele>
        <time>2019-08-15T14:06:47Z</time>
      </trkpt>
      <trkpt lat="42.0004600" lon="-5.7404220">
        <ele>709.1</ele>
        <time>2019-08-15T14:06:48Z</time>
      </trkpt>
      <trkpt lat="42.0004580" lon="-5.7404990">
        <ele>709.0</ele>
        <time>2019-08-15T14:06:49Z</time>
      </trkpt>
      <trkpt lat="42.0004570" lon="-5.7405770">
        <ele>709.0</ele>
        <time>2019-08-15T14:06:50Z</time>
      </trkpt>
      <trkpt lat="42.0004560" lon="-5.7406550">
        <ele>709.0</ele>
        <time>2019-08-15T14:06:51Z</time>
      </trkpt>
      <trkpt lat="42.0004570" lon="-5.7407330">
        <ele>709.0</ele>
        <time>2019-08-15T14:06:52Z</time>
      </trkpt>
      <trkpt lat="42.0004560" lon="-5.7408110">
        <ele>709.0</ele>
        <time>2019-08-15T14:06:53Z</time>
      </trkpt>
      <trkpt lat="42.0004560" lon="-5.7408910">
        <ele>708.9</ele>
        <time>2019-08-15T14:06:54Z</time>
      </trkpt>
      <trkpt lat="42.0004550" lon="-5.7409700">
        <ele>708.9</ele>
        <time>2019-08-15T14:06:55Z</time>
      </trkpt>
      <trkpt lat="42.0004550" lon="-5.7410500">
        <ele>708.9</ele>
        <time>2019-08-15T14:06:56Z</time>
      </trkpt>
      <trkpt lat="42.0004540" lon="-5.7411300">
        <ele>708.9</ele>
        <time>2019-08-15T14:06:57Z</time>
      </trkpt>
      <trkpt lat="42.0004550" lon="-5.7412100">
        <ele>708.9</ele>
        <time>2019-08-15T14:06:58Z</time>
      </trkpt>
      <trkpt lat="42.0004550" lon="-5.7412920">
        <ele>708.8</ele>
        <time>2019-08-15T14:06:59Z</time>
      </trkpt>
      <trkpt lat="42.0004560" lon="-5.7413740">
        <ele>708.7</ele>
        <time>2019-08-15T14:07:00Z</time>
      </trkpt>
      <trkpt lat="42.0004560" lon="-5.7414570">
        <ele>708.7</ele>
        <time>2019-08-15T14:07:01Z</time>
      </trkpt>
      <trkpt lat="42.0004570" lon="-5.7415390">
        <ele>708.6</ele>
        <time>2019-08-15T14:07:02Z</time>
      </trkpt>
      <trkpt lat="42.0004590" lon="-5.7416200">
        <ele>708.6</ele>
        <time>2019-08-15T14:07:03Z</time>
      </trkpt>
      <trkpt lat="42.0004590" lon="-5.7417030">
        <ele>708.6</ele>
        <time>2019-08-15T14:07:04Z</time>
      </trkpt>
      <trkpt lat="42.0004600" lon="-5.7417850">
        <ele>708.5</ele>
        <time>2019-08-15T14:07:05Z</time>
      </trkpt>
      <trkpt lat="42.0004610" lon="-5.7418670">
        <ele>708.5</ele>
        <time>2019-08-15T14:07:06Z</time>
      </trkpt>
      <trkpt lat="42.0004620" lon="-5.7419500">
        <ele>708.5</ele>
        <time>2019-08-15T14:07:07Z</time>
      </trkpt>
      <trkpt lat="42.0004600" lon="-5.7420330">
        <ele>708.5</ele>
        <time>2019-08-15T14:07:08Z</time>
      </trkpt>
      <trkpt lat="42.0004600" lon="-5.7421160">
        <ele>708.5</ele>
        <time>2019-08-15T14:07:09Z</time>
      </trkpt>
      <trkpt lat="42.0004600" lon="-5.7421990">
        <ele>708.5</ele>
        <time>2019-08-15T14:07:10Z</time>
      </trkpt>
      <trkpt lat="42.0004590" lon="-5.7422820">
        <ele>708.5</ele>
        <time>2019-08-15T14:07:11Z</time>
      </trkpt>
      <trkpt lat="42.0004580" lon="-5.7423660">
        <ele>708.5</ele>
        <time>2019-08-15T14:07:12Z</time>
      </trkpt>
      <trkpt lat="42.0004550" lon="-5.7424490">
        <ele>708.5</ele>
        <time>2019-08-15T14:07:13Z</time>
      </trkpt>
      <trkpt lat="42.0004530" lon="-5.7425320">
        <ele>708.5</ele>
        <time>2019-08-15T14:07:14Z</time>
      </trkpt>
      <trkpt lat="42.0004530" lon="-5.7426170">
        <ele>708.5</ele>
        <time>2019-08-15T14:07:15Z</time>
      </trkpt>
      <trkpt lat="42.0004530" lon="-5.7427030">
        <ele>708.5</ele>
        <time>2019-08-15T14:07:16Z</time>
      </trkpt>
      <trkpt lat="42.0004530" lon="-5.7427880">
        <ele>708.5</ele>
        <time>2019-08-15T14:07:17Z</time>
      </trkpt>
      <trkpt lat="42.0004520" lon="-5.7428720">
        <ele>708.5</ele>
        <time>2019-08-15T14:07:18Z</time>
      </trkpt>
      <trkpt lat="42.0004510" lon="-5.7429550">
        <ele>708.5</ele>
        <time>2019-08-15T14:07:19Z</time>
      </trkpt>
      <trkpt lat="42.0004520" lon="-5.7430380">
        <ele>708.5</ele>
        <time>2019-08-15T14:07:20Z</time>
      </trkpt>
      <trkpt lat="42.0004510" lon="-5.7431210">
        <ele>708.6</ele>
        <time>2019-08-15T14:07:21Z</time>
      </trkpt>
      <trkpt lat="42.0004500" lon="-5.7432030">
        <ele>708.6</ele>
        <time>2019-08-15T14:07:22Z</time>
      </trkpt>
      <trkpt lat="42.0004510" lon="-5.7432850">
        <ele>708.7</ele>
        <time>2019-08-15T14:07:23Z</time>
      </trkpt>
      <trkpt lat="42.0004500" lon="-5.7433680">
        <ele>708.7</ele>
        <time>2019-08-15T14:07:24Z</time>
      </trkpt>
      <trkpt lat="42.0004500" lon="-5.7434490">
        <ele>708.7</ele>
        <time>2019-08-15T14:07:25Z</time>
      </trkpt>
      <trkpt lat="42.0004490" lon="-5.7435320">
        <ele>708.8</ele>
        <time>2019-08-15T14:07:26Z</time>
      </trkpt>
      <trkpt lat="42.0004480" lon="-5.7436140">
        <ele>708.8</ele>
        <time>2019-08-15T14:07:27Z</time>
      </trkpt>
      <trkpt lat="42.0004470" lon="-5.7436970">
        <ele>708.9</ele>
        <time>2019-08-15T14:07:28Z</time>
      </trkpt>
      <trkpt lat="42.0004450" lon="-5.7437800">
        <ele>708.9</ele>
        <time>2019-08-15T14:07:29Z</time>
      </trkpt>
      <trkpt lat="42.0004450" lon="-5.7438620">
        <ele>709.0</ele>
        <time>2019-08-15T14:07:30Z</time>
      </trkpt>
      <trkpt lat="42.0004440" lon="-5.7439440">
        <ele>709.0</ele>
        <time>2019-08-15T14:07:31Z</time>
      </trkpt>
      <trkpt lat="42.0004440" lon="-5.7440260">
        <ele>709.1</ele>
        <time>2019-08-15T14:07:32Z</time>
      </trkpt>
      <trkpt lat="42.0004430" lon="-5.7441060">
        <ele>709.2</ele>
        <time>2019-08-15T14:07:33Z</time>
      </trkpt>
      <trkpt lat="42.0004420" lon="-5.7441860">
        <ele>709.5</ele>
        <time>2019-08-15T14:07:34Z</time>
      </trkpt>
      <trkpt lat="42.0004420" lon="-5.7442660">
        <ele>709.8</ele>
        <time>2019-08-15T14:07:35Z</time>
      </trkpt>
      <trkpt lat="42.0004420" lon="-5.7443440">
        <ele>710.0</ele>
        <time>2019-08-15T14:07:36Z</time>
      </trkpt>
      <trkpt lat="42.0004430" lon="-5.7444210">
        <ele>710.3</ele>
        <time>2019-08-15T14:07:37Z</time>
      </trkpt>
      <trkpt lat="42.0004420" lon="-5.7444960">
        <ele>710.6</ele>
        <time>2019-08-15T14:07:38Z</time>
      </trkpt>
      <trkpt lat="42.0004410" lon="-5.7445710">
        <ele>710.9</ele>
        <time>2019-08-15T14:07:39Z</time>
      </trkpt>
      <trkpt lat="42.0004400" lon="-5.7446440">
        <ele>711.1</ele>
        <time>2019-08-15T14:07:40Z</time>
      </trkpt>
      <trkpt lat="42.0004390" lon="-5.7447160">
        <ele>711.4</ele>
        <time>2019-08-15T14:07:41Z</time>
      </trkpt>
      <trkpt lat="42.0004390" lon="-5.7447880">
        <ele>711.7</ele>
        <time>2019-08-15T14:07:42Z</time>
      </trkpt>
      <trkpt lat="42.0004410" lon="-5.7448590">
        <ele>712.0</ele>
        <time>2019-08-15T14:07:43Z</time>
      </trkpt>
      <trkpt lat="42.0004410" lon="-5.7449290">
        <ele>712.3</ele>
        <time>2019-08-15T14:07:44Z</time>
      </trkpt>
      <trkpt lat="42.0004410" lon="-5.7449970">
        <ele>712.5</ele>
        <time>2019-08-15T14:07:45Z</time>
      </trkpt>
      <trkpt lat="42.0004400" lon="-5.7450650">
        <ele>712.8</ele>
        <time>2019-08-15T14:07:46Z</time>
      </trkpt>
      <trkpt lat="42.0004390" lon="-5.7451320">
        <ele>713.1</ele>
        <time>2019-08-15T14:07:47Z</time>
      </trkpt>
      <trkpt lat="42.0004390" lon="-5.7451970">
        <ele>713.3</ele>
        <time>2019-08-15T14:07:48Z</time>
      </trkpt>
      <trkpt lat="42.0004380" lon="-5.7452620">
        <ele>713.6</ele>
        <time>2019-08-15T14:07:49Z</time>
      </trkpt>
      <trkpt lat="42.0004370" lon="-5.7453250">
        <ele>713.8</ele>
        <time>2019-08-15T14:07:50Z</time>
      </trkpt>
      <trkpt lat="42.0004360" lon="-5.7453870">
        <ele>714.0</ele>
        <time>2019-08-15T14:07:51Z</time>
      </trkpt>
      <trkpt lat="42.0004330" lon="-5.7454480">
        <ele>714.2</ele>
        <time>2019-08-15T14:07:52Z</time>
      </trkpt>
      <trkpt lat="42.0004320" lon="-5.7455070">
        <ele>714.4</ele>
        <time>2019-08-15T14:07:53Z</time>
      </trkpt>
      <trkpt lat="42.0004310" lon="-5.7455670">
        <ele>714.6</ele>
        <time>2019-08-15T14:07:54Z</time>
      </trkpt>
      <trkpt lat="42.0004300" lon="-5.7456260">
        <ele>714.8</ele>
        <time>2019-08-15T14:07:55Z</time>
      </trkpt>
      <trkpt lat="42.0004270" lon="-5.7456860">
        <ele>715.0</ele>
        <time>2019-08-15T14:07:56Z</time>
      </trkpt>
      <trkpt lat="42.0004250" lon="-5.7457440">
        <ele>715.1</ele>
        <time>2019-08-15T14:07:57Z</time>
      </trkpt>
      <trkpt lat="42.0004250" lon="-5.7458010">
        <ele>715.3</ele>
        <time>2019-08-15T14:07:58Z</time>
      </trkpt>
      <trkpt lat="42.0004240" lon="-5.7458560">
        <ele>715.5</ele>
        <time>2019-08-15T14:07:59Z</time>
      </trkpt>
      <trkpt lat="42.0004240" lon="-5.7459110">
        <ele>715.6</ele>
        <time>2019-08-15T14:08:00Z</time>
      </trkpt>
      <trkpt lat="42.0004220" lon="-5.7459660">
        <ele>715.8</ele>
        <time>2019-08-15T14:08:01Z</time>
      </trkpt>
      <trkpt lat="42.0004200" lon="-5.7460210">
        <ele>715.9</ele>
        <time>2019-08-15T14:08:02Z</time>
      </trkpt>
      <trkpt lat="42.0004180" lon="-5.7460770">
        <ele>716.1</ele>
        <time>2019-08-15T14:08:03Z</time>
      </trkpt>
      <trkpt lat="42.0004150" lon="-5.7461310">
        <ele>716.3</ele>
        <time>2019-08-15T14:08:04Z</time>
      </trkpt>
      <trkpt lat="42.0004140" lon="-5.7461850">
        <ele>716.6</ele>
        <time>2019-08-15T14:08:05Z</time>
      </trkpt>
      <trkpt lat="42.0004120" lon="-5.7462380">
        <ele>716.8</ele>
        <time>2019-08-15T14:08:06Z</time>
      </trkpt>
      <trkpt lat="42.0004100" lon="-5.7462890">
        <ele>717.0</ele>
        <time>2019-08-15T14:08:07Z</time>
      </trkpt>
      <trkpt lat="42.0004080" lon="-5.7463410">
        <ele>717.3</ele>
        <time>2019-08-15T14:08:08Z</time>
      </trkpt>
      <trkpt lat="42.0004060" lon="-5.7463930">
        <ele>717.5</ele>
        <time>2019-08-15T14:08:09Z</time>
      </trkpt>
      <trkpt lat="42.0004050" lon="-5.7464460">
        <ele>717.8</ele>
        <time>2019-08-15T14:08:10Z</time>
      </trkpt>
      <trkpt lat="42.0004050" lon="-5.7465000">
        <ele>718.0</ele>
        <time>2019-08-15T14:08:11Z</time>
      </trkpt>
      <trkpt lat="42.0004060" lon="-5.7465540">
        <ele>718.3</ele>
        <time>2019-08-15T14:08:12Z</time>
      </trkpt>
      <trkpt lat="42.0004050" lon="-5.7466090">
        <ele>718.5</ele>
        <time>2019-08-15T14:08:13Z</time>
      </trkpt>
      <trkpt lat="42.0004030" lon="-5.7466640">
        <ele>718.8</ele>
        <time>2019-08-15T14:08:14Z</time>
      </trkpt>
      <trkpt lat="42.0004020" lon="-5.7467180">
        <ele>719.0</ele>
        <time>2019-08-15T14:08:15Z</time>
      </trkpt>
      <trkpt lat="42.0004000" lon="-5.7467730">
        <ele>719.2</ele>
        <time>2019-08-15T14:08:16Z</time>
      </trkpt>
      <trkpt lat="42.0003980" lon="-5.7468270">
        <ele>719.4</ele>
        <time>2019-08-15T14:08:17Z</time>
      </trkpt>
      <trkpt lat="42.0003960" lon="-5.7468820">
        <ele>719.6</ele>
        <time>2019-08-15T14:08:18Z</time>
      </trkpt>
      <trkpt lat="42.0003930" lon="-5.7469370">
        <ele>719.7</ele>
        <time>2019-08-15T14:08:19Z</time>
      </trkpt>
      <trkpt lat="42.0003910" lon="-5.7469900">
        <ele>719.8</ele>
        <time>2019-08-15T14:08:20Z</time>
      </trkpt>
      <trkpt lat="42.0003900" lon="-5.7470440">
        <ele>719.9</ele>
        <time>2019-08-15T14:08:21Z</time>
      </trkpt>
      <trkpt lat="42.0003900" lon="-5.7470980">
        <ele>720.1</ele>
        <time>2019-08-15T14:08:22Z</time>
      </trkpt>
      <trkpt lat="42.0003890" lon="-5.7471520">
        <ele>720.2</ele>
        <time>2019-08-15T14:08:23Z</time>
      </trkpt>
      <trkpt lat="42.0003880" lon="-5.7472050">
        <ele>720.3</ele>
        <time>2019-08-15T14:08:24Z</time>
      </trkpt>
      <trkpt lat="42.0003890" lon="-5.7472590">
        <ele>720.4</ele>
        <time>2019-08-15T14:08:25Z</time>
      </trkpt>
      <trkpt lat="42.0003900" lon="-5.7473110">
        <ele>720.5</ele>
        <time>2019-08-15T14:08:26Z</time>
      </trkpt>
      <trkpt lat="42.0003900" lon="-5.7473620">
        <ele>720.6</ele>
        <time>2019-08-15T14:08:27Z</time>
      </trkpt>
      <trkpt lat="42.0003890" lon="-5.7474120">
        <ele>720.8</ele>
        <time>2019-08-15T14:08:28Z</time>
      </trkpt>
      <trkpt lat="42.0003890" lon="-5.7474620">
        <ele>720.9</ele>
        <time>2019-08-15T14:08:29Z</time>
      </trkpt>
      <trkpt lat="42.0003890" lon="-5.7475120">
        <ele>721.0</ele>
        <time>2019-08-15T14:08:30Z</time>
      </trkpt>
      <trkpt lat="42.0003880" lon="-5.7475620">
        <ele>721.1</ele>
        <time>2019-08-15T14:08:31Z</time>
      </trkpt>
      <trkpt lat="42.0003870" lon="-5.7476120">
        <ele>721.2</ele>
        <time>2019-08-15T14:08:32Z</time>
      </trkpt>
      <trkpt lat="42.0003860" lon="-5.7476610">
        <ele>721.3</ele>
        <time>2019-08-15T14:08:33Z</time>
      </trkpt>
      <trkpt lat="42.0003850" lon="-5.7477110">
        <ele>721.5</ele>
        <time>2019-08-15T14:08:34Z</time>
      </trkpt>
      <trkpt lat="42.0003830" lon="-5.7477600">
        <ele>721.7</ele>
        <time>2019-08-15T14:08:35Z</time>
      </trkpt>
      <trkpt lat="42.0003810" lon="-5.7478080">
        <ele>721.9</ele>
        <time>2019-08-15T14:08:36Z</time>
      </trkpt>
      <trkpt lat="42.0003810" lon="-5.7478570">
        <ele>722.1</ele>
        <time>2019-08-15T14:08:37Z</time>
      </trkpt>
      <trkpt lat="42.0003800" lon="-5.7479040">
        <ele>722.3</ele>
        <time>2019-08-15T14:08:38Z</time>
      </trkpt>
      <trkpt lat="42.0003790" lon="-5.7479490">
        <ele>722.5</ele>
        <time>2019-08-15T14:08:39Z</time>
      </trkpt>
      <trkpt lat="42.0003770" lon="-5.7479950">
        <ele>722.6</ele>
        <time>2019-08-15T14:08:40Z</time>
      </trkpt>
      <trkpt lat="42.0003760" lon="-5.7480400">
        <ele>722.8</ele>
        <time>2019-08-15T14:08:41Z</time>
      </trkpt>
      <trkpt lat="42.0003760" lon="-5.7480850">
        <ele>723.0</ele>
        <time>2019-08-15T14:08:42Z</time>
      </trkpt>
      <trkpt lat="42.0003780" lon="-5.7481280">
        <ele>723.1</ele>
        <time>2019-08-15T14:08:43Z</time>
      </trkpt>
      <trkpt lat="42.0003780" lon="-5.7481710">
        <ele>723.3</ele>
        <time>2019-08-15T14:08:44Z</time>
      </trkpt>
      <trkpt lat="42.0003770" lon="-5.7482150">
        <ele>723.4</ele>
        <time>2019-08-15T14:08:45Z</time>
      </trkpt>
      <trkpt lat="42.0003770" lon="-5.7482580">
        <ele>723.6</ele>
        <time>2019-08-15T14:08:46Z</time>
      </trkpt>
      <trkpt lat="42.0003760" lon="-5.7483020">
        <ele>723.8</ele>
        <time>2019-08-15T14:08:47Z</time>
      </trkpt>
      <trkpt lat="42.0003760" lon="-5.7483460">
        <ele>723.9</ele>
        <time>2019-08-15T14:08:48Z</time>
      </trkpt>
      <trkpt lat="42.0003740" lon="-5.7483890">
        <ele>724.1</ele>
        <time>2019-08-15T14:08:49Z</time>
      </trkpt>
      <trkpt lat="42.0003730" lon="-5.7484330">
        <ele>724.2</ele>
        <time>2019-08-15T14:08:50Z</time>
      </trkpt>
      <trkpt lat="42.0003720" lon="-5.7484760">
        <ele>724.4</ele>
        <time>2019-08-15T14:08:51Z</time>
      </trkpt>
      <trkpt lat="42.0003710" lon="-5.7485200">
        <ele>724.5</ele>
        <time>2019-08-15T14:08:52Z</time>
      </trkpt>
      <trkpt lat="42.0003690" lon="-5.7485650">
        <ele>724.7</ele>
        <time>2019-08-15T14:08:53Z</time>
      </trkpt>
      <trkpt lat="42.0003680" lon="-5.7486110">
        <ele>724.8</ele>
        <time>2019-08-15T14:08:54Z</time>
      </trkpt>
      <trkpt lat="42.0003660" lon="-5.7486570">
        <ele>725.0</ele>
        <time>2019-08-15T14:08:55Z</time>
      </trkpt>
      <trkpt lat="42.0003650" lon="-5.7487040">
        <ele>725.2</ele>
        <time>2019-08-15T14:08:56Z</time>
      </trkpt>
      <trkpt lat="42.0003650" lon="-5.7487510">
        <ele>725.4</ele>
        <time>2019-08-15T14:08:57Z</time>
      </trkpt>
      <trkpt lat="42.0003650" lon="-5.7487960">
        <ele>725.6</ele>
        <time>2019-08-15T14:08:58Z</time>
      </trkpt>
      <trkpt lat="42.0003640" lon="-5.7488410">
        <ele>725.8</ele>
        <time>2019-08-15T14:08:59Z</time>
      </trkpt>
      <trkpt lat="42.0003640" lon="-5.7488860">
        <ele>726.0</ele>
        <time>2019-08-15T14:09:00Z</time>
      </trkpt>
      <trkpt lat="42.0003640" lon="-5.7489310">
        <ele>726.1</ele>
        <time>2019-08-15T14:09:01Z</time>
      </trkpt>
      <trkpt lat="42.0003640" lon="-5.7489760">
        <ele>726.2</ele>
        <time>2019-08-15T14:09:02Z</time>
      </trkpt>
      <trkpt lat="42.0003630" lon="-5.7490210">
        <ele>726.3</ele>
        <time>2019-08-15T14:09:03Z</time>
      </trkpt>
      <trkpt lat="42.0003620" lon="-5.7490650">
        <ele>726.4</ele>
        <time>2019-08-15T14:09:04Z</time>
      </trkpt>
      <trkpt lat="42.0003610" lon="-5.7491090">
        <ele>726.5</ele>
        <time>2019-08-15T14:09:05Z</time>
      </trkpt>
      <trkpt lat="42.0003600" lon="-5.7491530">
        <ele>726.6</ele>
        <time>2019-08-15T14:09:06Z</time>
      </trkpt>
      <trkpt lat="42.0003600" lon="-5.7491980">
        <ele>726.8</ele>
        <time>2019-08-15T14:09:07Z</time>
      </trkpt>
      <trkpt lat="42.0003590" lon="-5.7492420">
        <ele>726.8</ele>
        <time>2019-08-15T14:09:08Z</time>
      </trkpt>
      <trkpt lat="42.0003590" lon="-5.7492850">
        <ele>726.9</ele>
        <time>2019-08-15T14:09:09Z</time>
      </trkpt>
      <trkpt lat="42.0003590" lon="-5.7493290">
        <ele>727.0</ele>
        <time>2019-08-15T14:09:10Z</time>
      </trkpt>
      <trkpt lat="42.0003580" lon="-5.7493740">
        <ele>727.1</ele>
        <time>2019-08-15T14:09:11Z</time>
      </trkpt>
      <trkpt lat="42.0003580" lon="-5.7494180">
        <ele>727.2</ele>
        <time>2019-08-15T14:09:12Z</time>
      </trkpt>
      <trkpt lat="42.0003570" lon="-5.7494620">
        <ele>727.1</ele>
        <time>2019-08-15T14:09:13Z</time>
      </trkpt>
      <trkpt lat="42.0003570" lon="-5.7495060">
        <ele>727.2</ele>
        <time>2019-08-15T14:09:14Z</time>
      </trkpt>
      <trkpt lat="42.0003570" lon="-5.7495500">
        <ele>727.3</ele>
        <time>2019-08-15T14:09:15Z</time>
      </trkpt>
      <trkpt lat="42.0003560" lon="-5.7495950">
        <ele>727.4</ele>
        <time>2019-08-15T14:09:16Z</time>
      </trkpt>
      <trkpt lat="42.0003550" lon="-5.7496390">
        <ele>727.4</ele>
        <time>2019-08-15T14:09:17Z</time>
      </trkpt>
      <trkpt lat="42.0003540" lon="-5.7496840">
        <ele>727.5</ele>
        <time>2019-08-15T14:09:18Z</time>
      </trkpt>
      <trkpt lat="42.0003530" lon="-5.7497280">
        <ele>727.5</ele>
        <time>2019-08-15T14:09:19Z</time>
      </trkpt>
      <trkpt lat="42.0003520" lon="-5.7497730">
        <ele>727.6</ele>
        <time>2019-08-15T14:09:20Z</time>
      </trkpt>
      <trkpt lat="42.0003520" lon="-5.7498170">
        <ele>727.6</ele>
        <time>2019-08-15T14:09:21Z</time>
      </trkpt>
      <trkpt lat="42.0003500" lon="-5.7498610">
        <ele>727.6</ele>
        <time>2019-08-15T14:09:22Z</time>
      </trkpt>
      <trkpt lat="42.0003490" lon="-5.7499020">
        <ele>727.6</ele>
        <time>2019-08-15T14:09:23Z</time>
      </trkpt>
      <trkpt lat="42.0003490" lon="-5.7499370">
        <ele>727.7</ele>
        <time>2019-08-15T14:09:24Z</time>
      </trkpt>
      <trkpt lat="42.0003490" lon="-5.7499980">
        <ele>727.7</ele>
        <time>2019-08-15T14:09:26Z</time>
      </trkpt>
      <trkpt lat="42.0003510" lon="-5.7500710">
        <ele>727.8</ele>
        <time>2019-08-15T14:09:28Z</time>
      </trkpt>
      <trkpt lat="42.0003510" lon="-5.7501120">
        <ele>727.8</ele>
        <time>2019-08-15T14:09:29Z</time>
      </trkpt>
      <trkpt lat="42.0003510" lon="-5.7501540">
        <ele>727.8</ele>
        <time>2019-08-15T14:09:30Z</time>
      </trkpt>
      <trkpt lat="42.0003510" lon="-5.7501970">
        <ele>727.8</ele>
        <time>2019-08-15T14:09:31Z</time>
      </trkpt>
      <trkpt lat="42.0003510" lon="-5.7502400">
        <ele>727.9</ele>
        <time>2019-08-15T14:09:32Z</time>
      </trkpt>
      <trkpt lat="42.0003500" lon="-5.7502850">
        <ele>728.0</ele>
        <time>2019-08-15T14:09:33Z</time>
      </trkpt>
      <trkpt lat="42.0003470" lon="-5.7503310">
        <ele>728.0</ele>
        <time>2019-08-15T14:09:34Z</time>
      </trkpt>
      <trkpt lat="42.0003440" lon="-5.7503770">
        <ele>728.0</ele>
        <time>2019-08-15T14:09:35Z</time>
      </trkpt>
      <trkpt lat="42.0003420" lon="-5.7504240">
        <ele>728.1</ele>
        <time>2019-08-15T14:09:36Z</time>
      </trkpt>
      <trkpt lat="42.0003420" lon="-5.7504710">
        <ele>728.1</ele>
        <time>2019-08-15T14:09:37Z</time>
      </trkpt>
      <trkpt lat="42.0003410" lon="-5.7505190">
        <ele>728.2</ele>
        <time>2019-08-15T14:09:38Z</time>
      </trkpt>
      <trkpt lat="42.0003420" lon="-5.7505680">
        <ele>728.2</ele>
        <time>2019-08-15T14:09:39Z</time>
      </trkpt>
      <trkpt lat="42.0003410" lon="-5.7506190">
        <ele>728.3</ele>
        <time>2019-08-15T14:09:40Z</time>
      </trkpt>
      <trkpt lat="42.0003400" lon="-5.7506720">
        <ele>728.3</ele>
        <time>2019-08-15T14:09:41Z</time>
      </trkpt>
      <trkpt lat="42.0003390" lon="-5.7507260">
        <ele>728.4</ele>
        <time>2019-08-15T14:09:42Z</time>
      </trkpt>
      <trkpt lat="42.0003390" lon="-5.7507820">
        <ele>728.4</ele>
        <time>2019-08-15T14:09:43Z</time>
      </trkpt>
      <trkpt lat="42.0003370" lon="-5.7508390">
        <ele>728.5</ele>
        <time>2019-08-15T14:09:44Z</time>
      </trkpt>
      <trkpt lat="42.0003360" lon="-5.7508960">
        <ele>728.5</ele>
        <time>2019-08-15T14:09:45Z</time>
      </trkpt>
      <trkpt lat="42.0003360" lon="-5.7509560">
        <ele>728.6</ele>
        <time>2019-08-15T14:09:46Z</time>
      </trkpt>
      <trkpt lat="42.0003340" lon="-5.7510180">
        <ele>728.6</ele>
        <time>2019-08-15T14:09:47Z</time>
      </trkpt>
      <trkpt lat="42.0003330" lon="-5.7510790">
        <ele>728.7</ele>
        <time>2019-08-15T14:09:48Z</time>
      </trkpt>
      <trkpt lat="42.0003320" lon="-5.7511380">
        <ele>728.8</ele>
        <time>2019-08-15T14:09:49Z</time>
      </trkpt>
      <trkpt lat="42.0003320" lon="-5.7511940">
        <ele>728.8</ele>
        <time>2019-08-15T14:09:50Z</time>
      </trkpt>
      <trkpt lat="42.0003310" lon="-5.7512460">
        <ele>728.9</ele>
        <time>2019-08-15T14:09:51Z</time>
      </trkpt>
      <trkpt lat="42.0003290" lon="-5.7512960">
        <ele>728.9</ele>
        <time>2019-08-15T14:09:52Z</time>
      </trkpt>
      <trkpt lat="42.0003270" lon="-5.7513440">
        <ele>729.0</ele>
        <time>2019-08-15T14:09:53Z</time>
      </trkpt>
      <trkpt lat="42.0003280" lon="-5.7513880">
        <ele>729.0</ele>
        <time>2019-08-15T14:09:54Z</time>
      </trkpt>
      <trkpt lat="42.0003290" lon="-5.7514320">
        <ele>729.1</ele>
        <time>2019-08-15T14:09:55Z</time>
      </trkpt>
      <trkpt lat="42.0003280" lon="-5.7514790">
        <ele>729.1</ele>
        <time>2019-08-15T14:09:56Z</time>
      </trkpt>
      <trkpt lat="42.0003270" lon="-5.7515280">
        <ele>729.2</ele>
        <time>2019-08-15T14:09:57Z</time>
      </trkpt>
      <trkpt lat="42.0003260" lon="-5.7515770">
        <ele>729.2</ele>
        <time>2019-08-15T14:09:58Z</time>
      </trkpt>
      <trkpt lat="42.0003260" lon="-5.7516270">
        <ele>729.3</ele>
        <time>2019-08-15T14:09:59Z</time>
      </trkpt>
      <trkpt lat="42.0003250" lon="-5.7516790">
        <ele>729.3</ele>
        <time>2019-08-15T14:10:00Z</time>
      </trkpt>
      <trkpt lat="42.0003250" lon="-5.7517330">
        <ele>729.3</ele>
        <time>2019-08-15T14:10:01Z</time>
      </trkpt>
      <trkpt lat="42.0003260" lon="-5.7517850">
        <ele>729.4</ele>
        <time>2019-08-15T14:10:02Z</time>
      </trkpt>
      <trkpt lat="42.0003260" lon="-5.7518330">
        <ele>729.4</ele>
        <time>2019-08-15T14:10:03Z</time>
      </trkpt>
      <trkpt lat="42.0003250" lon="-5.7518730">
        <ele>729.4</ele>
        <time>2019-08-15T14:10:04Z</time>
      </trkpt>
      <trkpt lat="42.0003250" lon="-5.7519050">
        <ele>729.5</ele>
        <time>2019-08-15T14:10:05Z</time>
      </trkpt>
      <trkpt lat="42.0003240" lon="-5.7519460">
        <ele>729.5</ele>
        <time>2019-08-15T14:10:07Z</time>
      </trkpt>
      <trkpt lat="42.0003170" lon="-5.7519630">
        <ele>729.5</ele>
        <time>2019-08-15T14:10:15Z</time>
      </trkpt>
      <trkpt lat="42.0003010" lon="-5.7521090">
        <ele>729.6</ele>
        <time>2019-08-15T14:10:38Z</time>
      </trkpt>
      <trkpt lat="42.0003020" lon="-5.7521500">
        <ele>729.6</ele>
        <time>2019-08-15T14:10:39Z</time>
      </trkpt>
      <trkpt lat="42.0003040" lon="-5.7521940">
        <ele>729.6</ele>
        <time>2019-08-15T14:10:40Z</time>
      </trkpt>
      <trkpt lat="42.0003030" lon="-5.7522390">
        <ele>729.7</ele>
        <time>2019-08-15T14:10:41Z</time>
      </trkpt>
      <trkpt lat="42.0003020" lon="-5.7522850">
        <ele>729.7</ele>
        <time>2019-08-15T14:10:42Z</time>
      </trkpt>
      <trkpt lat="42.0003010" lon="-5.7523320">
        <ele>729.7</ele>
        <time>2019-08-15T14:10:43Z</time>
      </trkpt>
      <trkpt lat="42.0002990" lon="-5.7523790">
        <ele>729.7</ele>
        <time>2019-08-15T14:10:44Z</time>
      </trkpt>
      <trkpt lat="42.0002990" lon="-5.7524270">
        <ele>729.8</ele>
        <time>2019-08-15T14:10:45Z</time>
      </trkpt>
      <trkpt lat="42.0002970" lon="-5.7524760">
        <ele>729.8</ele>
        <time>2019-08-15T14:10:46Z</time>
      </trkpt>
      <trkpt lat="42.0002960" lon="-5.7525210">
        <ele>729.8</ele>
        <time>2019-08-15T14:10:47Z</time>
      </trkpt>
      <trkpt lat="42.0002960" lon="-5.7525650">
        <ele>729.8</ele>
        <time>2019-08-15T14:10:48Z</time>
      </trkpt>
      <trkpt lat="42.0002970" lon="-5.7526120">
        <ele>729.8</ele>
        <time>2019-08-15T14:10:49Z</time>
      </trkpt>
      <trkpt lat="42.0002970" lon="-5.7526600">
        <ele>729.9</ele>
        <time>2019-08-15T14:10:50Z</time>
      </trkpt>
      <trkpt lat="42.0002970" lon="-5.7527120">
        <ele>729.9</ele>
        <time>2019-08-15T14:10:51Z</time>
      </trkpt>
      <trkpt lat="42.0002960" lon="-5.7527650">
        <ele>729.9</ele>
        <time>2019-08-15T14:10:52Z</time>
      </trkpt>
      <trkpt lat="42.0002950" lon="-5.7528180">
        <ele>730.0</ele>
        <time>2019-08-15T14:10:53Z</time>
      </trkpt>
      <trkpt lat="42.0002940" lon="-5.7528740">
        <ele>730.0</ele>
        <time>2019-08-15T14:10:54Z</time>
      </trkpt>
      <trkpt lat="42.0002930" lon="-5.7529300">
        <ele>730.0</ele>
        <time>2019-08-15T14:10:55Z</time>
      </trkpt>
      <trkpt lat="42.0002930" lon="-5.7529870">
        <ele>730.1</ele>
        <time>2019-08-15T14:10:56Z</time>
      </trkpt>
      <trkpt lat="42.0002920" lon="-5.7530450">
        <ele>730.1</ele>
        <time>2019-08-15T14:10:57Z</time>
      </trkpt>
      <trkpt lat="42.0002920" lon="-5.7531030">
        <ele>730.2</ele>
        <time>2019-08-15T14:10:58Z</time>
      </trkpt>
      <trkpt lat="42.0002920" lon="-5.7531600">
        <ele>730.2</ele>
        <time>2019-08-15T14:10:59Z</time>
      </trkpt>
      <trkpt lat="42.0002910" lon="-5.7532170">
        <ele>730.3</ele>
        <time>2019-08-15T14:11:00Z</time>
      </trkpt>
      <trkpt lat="42.0002910" lon="-5.7532720">
        <ele>730.3</ele>
        <time>2019-08-15T14:11:01Z</time>
      </trkpt>
      <trkpt lat="42.0002900" lon="-5.7533270">
        <ele>730.4</ele>
        <time>2019-08-15T14:11:02Z</time>
      </trkpt>
      <trkpt lat="42.0002890" lon="-5.7533800">
        <ele>730.4</ele>
        <time>2019-08-15T14:11:03Z</time>
      </trkpt>
      <trkpt lat="42.0002880" lon="-5.7534350">
        <ele>730.5</ele>
        <time>2019-08-15T14:11:04Z</time>
      </trkpt>
      <trkpt lat="42.0002860" lon="-5.7534910">
        <ele>730.5</ele>
        <time>2019-08-15T14:11:05Z</time>
      </trkpt>
      <trkpt lat="42.0002860" lon="-5.7535460">
        <ele>730.6</ele>
        <time>2019-08-15T14:11:06Z</time>
      </trkpt>
      <trkpt lat="42.0002860" lon="-5.7536020">
        <ele>730.6</ele>
        <time>2019-08-15T14:11:07Z</time>
      </trkpt>
      <trkpt lat="42.0002860" lon="-5.7536580">
        <ele>730.7</ele>
        <time>2019-08-15T14:11:08Z</time>
      </trkpt>
      <trkpt lat="42.0002860" lon="-5.7537140">
        <ele>730.7</ele>
        <time>2019-08-15T14:11:09Z</time>
      </trkpt>
      <trkpt lat="42.0002860" lon="-5.7537700">
        <ele>730.8</ele>
        <time>2019-08-15T14:11:10Z</time>
      </trkpt>
      <trkpt lat="42.0002870" lon="-5.7538260">
        <ele>730.9</ele>
        <time>2019-08-15T14:11:11Z</time>
      </trkpt>
      <trkpt lat="42.0002880" lon="-5.7538840">
        <ele>730.9</ele>
        <time>2019-08-15T14:11:12Z</time>
      </trkpt>
      <trkpt lat="42.0002890" lon="-5.7539430">
        <ele>731.0</ele>
        <time>2019-08-15T14:11:13Z</time>
      </trkpt>
      <trkpt lat="42.0002900" lon="-5.7540030">
        <ele>731.0</ele>
        <time>2019-08-15T14:11:14Z</time>
      </trkpt>
      <trkpt lat="42.0002930" lon="-5.7540620">
        <ele>731.1</ele>
        <time>2019-08-15T14:11:15Z</time>
      </trkpt>
      <trkpt lat="42.0002930" lon="-5.7541210">
        <ele>731.1</ele>
        <time>2019-08-15T14:11:16Z</time>
      </trkpt>
      <trkpt lat="42.0002930" lon="-5.7541790">
        <ele>731.2</ele>
        <time>2019-08-15T14:11:17Z</time>
      </trkpt>
      <trkpt lat="42.0002940" lon="-5.7542370">
        <ele>731.2</ele>
        <time>2019-08-15T14:11:18Z</time>
      </trkpt>
      <trkpt lat="42.0002940" lon="-5.7542940">
        <ele>731.3</ele>
        <time>2019-08-15T14:11:19Z</time>
      </trkpt>
      <trkpt lat="42.0002930" lon="-5.7543520">
        <ele>731.3</ele>
        <time>2019-08-15T14:11:20Z</time>
      </trkpt>
      <trkpt lat="42.0002930" lon="-5.7544100">
        <ele>731.4</ele>
        <time>2019-08-15T14:11:21Z</time>
      </trkpt>
      <trkpt lat="42.0002910" lon="-5.7544680">
        <ele>731.4</ele>
        <time>2019-08-15T14:11:22Z</time>
      </trkpt>
      <trkpt lat="42.0002920" lon="-5.7545270">
        <ele>731.5</ele>
        <time>2019-08-15T14:11:23Z</time>
      </trkpt>
      <trkpt lat="42.0002920" lon="-5.7545850">
        <ele>731.6</ele>
        <time>2019-08-15T14:11:24Z</time>
      </trkpt>
      <trkpt lat="42.0002920" lon="-5.7546430">
        <ele>731.6</ele>
        <time>2019-08-15T14:11:25Z</time>
      </trkpt>
      <trkpt lat="42.0002930" lon="-5.7547020">
        <ele>731.7</ele>
        <time>2019-08-15T14:11:26Z</time>
      </trkpt>
      <trkpt lat="42.0002930" lon="-5.7547630">
        <ele>731.8</ele>
        <time>2019-08-15T14:11:27Z</time>
      </trkpt>
      <trkpt lat="42.0002950" lon="-5.7548220">
        <ele>731.9</ele>
        <time>2019-08-15T14:11:28Z</time>
      </trkpt>
      <trkpt lat="42.0002960" lon="-5.7548810">
        <ele>732.0</ele>
        <time>2019-08-15T14:11:29Z</time>
      </trkpt>
      <trkpt lat="42.0002960" lon="-5.7549390">
        <ele>732.1</ele>
        <time>2019-08-15T14:11:30Z</time>
      </trkpt>
      <trkpt lat="42.0002950" lon="-5.7549980">
        <ele>732.2</ele>
        <time>2019-08-15T14:11:31Z</time>
      </trkpt>
      <trkpt lat="42.0002950" lon="-5.7550560">
        <ele>732.2</ele>
        <time>2019-08-15T14:11:32Z</time>
      </trkpt>
      <trkpt lat="42.0002960" lon="-5.7551160">
        <ele>732.3</ele>
        <time>2019-08-15T14:11:33Z</time>
      </trkpt>
      <trkpt lat="42.0002970" lon="-5.7551730">
        <ele>732.3</ele>
        <time>2019-08-15T14:11:34Z</time>
      </trkpt>
      <trkpt lat="42.0002980" lon="-5.7552300">
        <ele>732.4</ele>
        <time>2019-08-15T14:11:35Z</time>
      </trkpt>
      <trkpt lat="42.0002980" lon="-5.7552880">
        <ele>732.4</ele>
        <time>2019-08-15T14:11:36Z</time>
      </trkpt>
      <trkpt lat="42.0002970" lon="-5.7553450">
        <ele>732.4</ele>
        <time>2019-08-15T14:11:37Z</time>
      </trkpt>
      <trkpt lat="42.0002960" lon="-5.7554020">
        <ele>732.5</ele>
        <time>2019-08-15T14:11:38Z</time>
      </trkpt>
      <trkpt lat="42.0002960" lon="-5.7554580">
        <ele>732.5</ele>
        <time>2019-08-15T14:11:39Z</time>
      </trkpt>
      <trkpt lat="42.0002950" lon="-5.7555170">
        <ele>732.5</ele>
        <time>2019-08-15T14:11:40Z</time>
      </trkpt>
      <trkpt lat="42.0002940" lon="-5.7555740">
        <ele>732.6</ele>
        <time>2019-08-15T14:11:41Z</time>
      </trkpt>
      <trkpt lat="42.0002910" lon="-5.7556320">
        <ele>732.6</ele>
        <time>2019-08-15T14:11:42Z</time>
      </trkpt>
      <trkpt lat="42.0002930" lon="-5.7556880">
        <ele>732.7</ele>
        <time>2019-08-15T14:11:43Z</time>
      </trkpt>
      <trkpt lat="42.0002920" lon="-5.7557460">
        <ele>732.7</ele>
        <time>2019-08-15T14:11:44Z</time>
      </trkpt>
      <trkpt lat="42.0002910" lon="-5.7558050">
        <ele>732.7</ele>
        <time>2019-08-15T14:11:45Z</time>
      </trkpt>
      <trkpt lat="42.0002900" lon="-5.7558640">
        <ele>732.8</ele>
        <time>2019-08-15T14:11:46Z</time>
      </trkpt>
      <trkpt lat="42.0002880" lon="-5.7559220">
        <ele>732.8</ele>
        <time>2019-08-15T14:11:47Z</time>
      </trkpt>
      <trkpt lat="42.0002890" lon="-5.7559800">
        <ele>732.8</ele>
        <time>2019-08-15T14:11:48Z</time>
      </trkpt>
      <trkpt lat="42.0002880" lon="-5.7560380">
        <ele>732.9</ele>
        <time>2019-08-15T14:11:49Z</time>
      </trkpt>
      <trkpt lat="42.0002880" lon="-5.7560970">
        <ele>732.9</ele>
        <time>2019-08-15T14:11:50Z</time>
      </trkpt>
      <trkpt lat="42.0002880" lon="-5.7561560">
        <ele>732.9</ele>
        <time>2019-08-15T14:11:51Z</time>
      </trkpt>
      <trkpt lat="42.0002870" lon="-5.7562140">
        <ele>733.0</ele>
        <time>2019-08-15T14:11:52Z</time>
      </trkpt>
      <trkpt lat="42.0002860" lon="-5.7562740">
        <ele>733.0</ele>
        <time>2019-08-15T14:11:53Z</time>
      </trkpt>
      <trkpt lat="42.0002850" lon="-5.7563330">
        <ele>733.1</ele>
        <time>2019-08-15T14:11:54Z</time>
      </trkpt>
      <trkpt lat="42.0002820" lon="-5.7563930">
        <ele>733.1</ele>
        <time>2019-08-15T14:11:55Z</time>
      </trkpt>
      <trkpt lat="42.0002790" lon="-5.7564510">
        <ele>733.2</ele>
        <time>2019-08-15T14:11:56Z</time>
      </trkpt>
      <trkpt lat="42.0002770" lon="-5.7565110">
        <ele>733.2</ele>
        <time>2019-08-15T14:11:57Z</time>
      </trkpt>
      <trkpt lat="42.0002750" lon="-5.7565710">
        <ele>733.3</ele>
        <time>2019-08-15T14:11:58Z</time>
      </trkpt>
      <trkpt lat="42.0002730" lon="-5.7566290">
        <ele>733.4</ele>
        <time>2019-08-15T14:11:59Z</time>
      </trkpt>
      <trkpt lat="42.0002690" lon="-5.7566880">
        <ele>733.4</ele>
        <time>2019-08-15T14:12:00Z</time>
      </trkpt>
      <trkpt lat="42.0002650" lon="-5.7567470">
        <ele>733.5</ele>
        <time>2019-08-15T14:12:01Z</time>
      </trkpt>
      <trkpt lat="42.0002620" lon="-5.7568060">
        <ele>733.5</ele>
        <time>2019-08-15T14:12:02Z</time>
      </trkpt>
      <trkpt lat="42.0002580" lon="-5.7568650">
        <ele>733.6</ele>
        <time>2019-08-15T14:12:03Z</time>
      </trkpt>
      <trkpt lat="42.0002530" lon="-5.7569230">
        <ele>733.6</ele>
        <time>2019-08-15T14:12:04Z</time>
      </trkpt>
      <trkpt lat="42.0002500" lon="-5.7569820">
        <ele>733.7</ele>
        <time>2019-08-15T14:12:05Z</time>
      </trkpt>
      <trkpt lat="42.0002460" lon="-5.7570400">
        <ele>733.7</ele>
        <time>2019-08-15T14:12:06Z</time>
      </trkpt>
      <trkpt lat="42.0002420" lon="-5.7570970">
        <ele>733.7</ele>
        <time>2019-08-15T14:12:07Z</time>
      </trkpt>
      <trkpt lat="42.0002380" lon="-5.7571530">
        <ele>733.8</ele>
        <time>2019-08-15T14:12:08Z</time>
      </trkpt>
      <trkpt lat="42.0002340" lon="-5.7572100">
        <ele>733.8</ele>
        <time>2019-08-15T14:12:09Z</time>
      </trkpt>
      <trkpt lat="42.0002290" lon="-5.7572640">
        <ele>733.9</ele>
        <time>2019-08-15T14:12:10Z</time>
      </trkpt>
      <trkpt lat="42.0002240" lon="-5.7573180">
        <ele>733.9</ele>
        <time>2019-08-15T14:12:11Z</time>
      </trkpt>
      <trkpt lat="42.0002190" lon="-5.7573710">
        <ele>734.0</ele>
        <time>2019-08-15T14:12:12Z</time>
      </trkpt>
      <trkpt lat="42.0002140" lon="-5.7574250">
        <ele>734.0</ele>
        <time>2019-08-15T14:12:13Z</time>
      </trkpt>
      <trkpt lat="42.0002090" lon="-5.7574770">
        <ele>734.1</ele>
        <time>2019-08-15T14:12:14Z</time>
      </trkpt>
      <trkpt lat="42.0002040" lon="-5.7575300">
        <ele>734.2</ele>
        <time>2019-08-15T14:12:15Z</time>
      </trkpt>
      <trkpt lat="42.0001980" lon="-5.7575820">
        <ele>734.2</ele>
        <time>2019-08-15T14:12:16Z</time>
      </trkpt>
      <trkpt lat="42.0001930" lon="-5.7576330">
        <ele>734.2</ele>
        <time>2019-08-15T14:12:17Z</time>
      </trkpt>
      <trkpt lat="42.0001860" lon="-5.7576840">
        <ele>734.3</ele>
        <time>2019-08-15T14:12:18Z</time>
      </trkpt>
      <trkpt lat="42.0001800" lon="-5.7577330">
        <ele>734.3</ele>
        <time>2019-08-15T14:12:19Z</time>
      </trkpt>
      <trkpt lat="42.0001730" lon="-5.7577810">
        <ele>734.3</ele>
        <time>2019-08-15T14:12:20Z</time>
      </trkpt>
      <trkpt lat="42.0001660" lon="-5.7578290">
        <ele>734.4</ele>
        <time>2019-08-15T14:12:21Z</time>
      </trkpt>
      <trkpt lat="42.0001600" lon="-5.7578760">
        <ele>734.4</ele>
        <time>2019-08-15T14:12:22Z</time>
      </trkpt>
      <trkpt lat="42.0001560" lon="-5.7579220">
        <ele>734.5</ele>
        <time>2019-08-15T14:12:23Z</time>
      </trkpt>
      <trkpt lat="42.0001510" lon="-5.7579670">
        <ele>734.6</ele>
        <time>2019-08-15T14:12:24Z</time>
      </trkpt>
      <trkpt lat="42.0001450" lon="-5.7580120">
        <ele>734.7</ele>
        <time>2019-08-15T14:12:25Z</time>
      </trkpt>
      <trkpt lat="42.0001390" lon="-5.7580550">
        <ele>734.8</ele>
        <time>2019-08-15T14:12:26Z</time>
      </trkpt>
      <trkpt lat="42.0001340" lon="-5.7580970">
        <ele>734.9</ele>
        <time>2019-08-15T14:12:27Z</time>
      </trkpt>
      <trkpt lat="42.0001290" lon="-5.7581400">
        <ele>735.0</ele>
        <time>2019-08-15T14:12:28Z</time>
      </trkpt>
      <trkpt lat="42.0001250" lon="-5.7581820">
        <ele>735.2</ele>
        <time>2019-08-15T14:12:29Z</time>
      </trkpt>
      <trkpt lat="42.0001200" lon="-5.7582250">
        <ele>735.3</ele>
        <time>2019-08-15T14:12:30Z</time>
      </trkpt>
      <trkpt lat="42.0001150" lon="-5.7582670">
        <ele>735.5</ele>
        <time>2019-08-15T14:12:31Z</time>
      </trkpt>
      <trkpt lat="42.0001090" lon="-5.7583100">
        <ele>735.6</ele>
        <time>2019-08-15T14:12:32Z</time>
      </trkpt>
      <trkpt lat="42.0001030" lon="-5.7583520">
        <ele>735.8</ele>
        <time>2019-08-15T14:12:33Z</time>
      </trkpt>
      <trkpt lat="42.0000980" lon="-5.7583940">
        <ele>736.0</ele>
        <time>2019-08-15T14:12:34Z</time>
      </trkpt>
      <trkpt lat="42.0000930" lon="-5.7584360">
        <ele>736.1</ele>
        <time>2019-08-15T14:12:35Z</time>
      </trkpt>
      <trkpt lat="42.0000880" lon="-5.7584780">
        <ele>736.3</ele>
        <time>2019-08-15T14:12:36Z</time>
      </trkpt>
      <trkpt lat="42.0000830" lon="-5.7585200">
        <ele>736.5</ele>
        <time>2019-08-15T14:12:37Z</time>
      </trkpt>
      <trkpt lat="42.0000780" lon="-5.7585620">
        <ele>736.6</ele>
        <time>2019-08-15T14:12:38Z</time>
      </trkpt>
      <trkpt lat="42.0000730" lon="-5.7586040">
        <ele>736.8</ele>
        <time>2019-08-15T14:12:39Z</time>
      </trkpt>
      <trkpt lat="42.0000680" lon="-5.7586470">
        <ele>737.0</ele>
        <time>2019-08-15T14:12:40Z</time>
      </trkpt>
      <trkpt lat="42.0000620" lon="-5.7586880">
        <ele>737.2</ele>
        <time>2019-08-15T14:12:41Z</time>
      </trkpt>
      <trkpt lat="42.0000560" lon="-5.7587290">
        <ele>737.4</ele>
        <time>2019-08-15T14:12:42Z</time>
      </trkpt>
      <trkpt lat="42.0000510" lon="-5.7587710">
        <ele>737.5</ele>
        <time>2019-08-15T14:12:43Z</time>
      </trkpt>
      <trkpt lat="42.0000460" lon="-5.7588130">
        <ele>737.7</ele>
        <time>2019-08-15T14:12:44Z</time>
      </trkpt>
      <trkpt lat="42.0000410" lon="-5.7588550">
        <ele>737.9</ele>
        <time>2019-08-15T14:12:45Z</time>
      </trkpt>
      <trkpt lat="42.0000360" lon="-5.7588970">
        <ele>738.1</ele>
        <time>2019-08-15T14:12:46Z</time>
      </trkpt>
      <trkpt lat="42.0000310" lon="-5.7589380">
        <ele>738.3</ele>
        <time>2019-08-15T14:12:47Z</time>
      </trkpt>
      <trkpt lat="42.0000260" lon="-5.7589790">
        <ele>738.4</ele>
        <time>2019-08-15T14:12:48Z</time>
      </trkpt>
      <trkpt lat="42.0000210" lon="-5.7590210">
        <ele>738.6</ele>
        <time>2019-08-15T14:12:49Z</time>
      </trkpt>
      <trkpt lat="42.0000170" lon="-5.7590620">
        <ele>738.8</ele>
        <time>2019-08-15T14:12:50Z</time>
      </trkpt>
      <trkpt lat="42.0000120" lon="-5.7591030">
        <ele>738.9</ele>
        <time>2019-08-15T14:12:51Z</time>
      </trkpt>
      <trkpt lat="42.0000070" lon="-5.7591450">
        <ele>739.1</ele>
        <time>2019-08-15T14:12:52Z</time>
      </trkpt>
      <trkpt lat="42.0000020" lon="-5.7591870">
        <ele>739.2</ele>
        <time>2019-08-15T14:12:53Z</time>
      </trkpt>
      <trkpt lat="41.9999960" lon="-5.7592290">
        <ele>739.3</ele>
        <time>2019-08-15T14:12:54Z</time>
      </trkpt>
      <trkpt lat="41.9999910" lon="-5.7592710">
        <ele>739.4</ele>
        <time>2019-08-15T14:12:55Z</time>
      </trkpt>
      <trkpt lat="41.9999860" lon="-5.7593130">
        <ele>739.6</ele>
        <time>2019-08-15T14:12:56Z</time>
      </trkpt>
      <trkpt lat="41.9999810" lon="-5.7593550">
        <ele>739.7</ele>
        <time>2019-08-15T14:12:57Z</time>
      </trkpt>
      <trkpt lat="41.9999760" lon="-5.7593970">
        <ele>739.8</ele>
        <time>2019-08-15T14:12:58Z</time>
      </trkpt>
      <trkpt lat="41.9999710" lon="-5.7594390">
        <ele>739.9</ele>
        <time>2019-08-15T14:12:59Z</time>
      </trkpt>
      <trkpt lat="41.9999650" lon="-5.7594810">
        <ele>740.0</ele>
        <time>2019-08-15T14:13:00Z</time>
      </trkpt>
      <trkpt lat="41.9999600" lon="-5.7595220">
        <ele>740.2</ele>
        <time>2019-08-15T14:13:01Z</time>
      </trkpt>
      <trkpt lat="41.9999550" lon="-5.7595640">
        <ele>740.3</ele>
        <time>2019-08-15T14:13:02Z</time>
      </trkpt>
      <trkpt lat="41.9999500" lon="-5.7596070">
        <ele>740.4</ele>
        <time>2019-08-15T14:13:03Z</time>
      </trkpt>
      <trkpt lat="41.9999450" lon="-5.7596480">
        <ele>740.6</ele>
        <time>2019-08-15T14:13:04Z</time>
      </trkpt>
      <trkpt lat="41.9999400" lon="-5.7596890">
        <ele>740.7</ele>
        <time>2019-08-15T14:13:05Z</time>
      </trkpt>
      <trkpt lat="41.9999350" lon="-5.7597300">
        <ele>740.9</ele>
        <time>2019-08-15T14:13:06Z</time>
      </trkpt>
      <trkpt lat="41.9999300" lon="-5.7597710">
        <ele>741.0</ele>
        <time>2019-08-15T14:13:07Z</time>
      </trkpt>
      <trkpt lat="41.9999260" lon="-5.7598120">
        <ele>741.2</ele>
        <time>2019-08-15T14:13:08Z</time>
      </trkpt>
      <trkpt lat="41.9999210" lon="-5.7598530">
        <ele>741.3</ele>
        <time>2019-08-15T14:13:09Z</time>
      </trkpt>
      <trkpt lat="41.9999160" lon="-5.7598940">
        <ele>741.4</ele>
        <time>2019-08-15T14:13:10Z</time>
      </trkpt>
      <trkpt lat="41.9999100" lon="-5.7599350">
        <ele>741.6</ele>
        <time>2019-08-15T14:13:11Z</time>
      </trkpt>
      <trkpt lat="41.9999050" lon="-5.7599760">
        <ele>741.7</ele>
        <time>2019-08-15T14:13:12Z</time>
      </trkpt>
      <trkpt lat="41.9999000" lon="-5.7600170">
        <ele>741.9</ele>
        <time>2019-08-15T14:13:13Z</time>
      </trkpt>
      <trkpt lat="41.9998950" lon="-5.7600580">
        <ele>742.0</ele>
        <time>2019-08-15T14:13:14Z</time>
      </trkpt>
      <trkpt lat="41.9998900" lon="-5.7601000">
        <ele>742.2</ele>
        <time>2019-08-15T14:13:15Z</time>
      </trkpt>
      <trkpt lat="41.9998850" lon="-5.7601420">
        <ele>742.3</ele>
        <time>2019-08-15T14:13:16Z</time>
      </trkpt>
      <trkpt lat="41.9998800" lon="-5.7601840">
        <ele>742.4</ele>
        <time>2019-08-15T14:13:17Z</time>
      </trkpt>
      <trkpt lat="41.9998750" lon="-5.7602260">
        <ele>742.6</ele>
        <time>2019-08-15T14:13:18Z</time>
      </trkpt>
      <trkpt lat="41.9998700" lon="-5.7602690">
        <ele>742.7</ele>
        <time>2019-08-15T14:13:19Z</time>
      </trkpt>
      <trkpt lat="41.9998640" lon="-5.7603110">
        <ele>742.8</ele>
        <time>2019-08-15T14:13:20Z</time>
      </trkpt>
      <trkpt lat="41.9998590" lon="-5.7603540">
        <ele>742.9</ele>
        <time>2019-08-15T14:13:21Z</time>
      </trkpt>
      <trkpt lat="41.9998540" lon="-5.7603960">
        <ele>743.1</ele>
        <time>2019-08-15T14:13:22Z</time>
      </trkpt>
      <trkpt lat="41.9998480" lon="-5.7604380">
        <ele>743.2</ele>
        <time>2019-08-15T14:13:23Z</time>
      </trkpt>
      <trkpt lat="41.9998430" lon="-5.7604810">
        <ele>743.3</ele>
        <time>2019-08-15T14:13:24Z</time>
      </trkpt>
      <trkpt lat="41.9998370" lon="-5.7605240">
        <ele>743.5</ele>
        <time>2019-08-15T14:13:25Z</time>
      </trkpt>
      <trkpt lat="41.9998320" lon="-5.7605670">
        <ele>743.7</ele>
        <time>2019-08-15T14:13:26Z</time>
      </trkpt>
      <trkpt lat="41.9998260" lon="-5.7606090">
        <ele>743.8</ele>
        <time>2019-08-15T14:13:27Z</time>
      </trkpt>
      <trkpt lat="41.9998200" lon="-5.7606510">
        <ele>744.0</ele>
        <time>2019-08-15T14:13:28Z</time>
      </trkpt>
      <trkpt lat="41.9998150" lon="-5.7606930">
        <ele>744.1</ele>
        <time>2019-08-15T14:13:29Z</time>
      </trkpt>
      <trkpt lat="41.9998100" lon="-5.7607350">
        <ele>744.3</ele>
        <time>2019-08-15T14:13:30Z</time>
      </trkpt>
      <trkpt lat="41.9998050" lon="-5.7607770">
        <ele>744.4</ele>
        <time>2019-08-15T14:13:31Z</time>
      </trkpt>
      <trkpt lat="41.9997990" lon="-5.7608190">
        <ele>744.5</ele>
        <time>2019-08-15T14:13:32Z</time>
      </trkpt>
      <trkpt lat="41.9997940" lon="-5.7608610">
        <ele>744.7</ele>
        <time>2019-08-15T14:13:33Z</time>
      </trkpt>
      <trkpt lat="41.9997880" lon="-5.7609020">
        <ele>744.7</ele>
        <time>2019-08-15T14:13:34Z</time>
      </trkpt>
      <trkpt lat="41.9997830" lon="-5.7609440">
        <ele>744.8</ele>
        <time>2019-08-15T14:13:35Z</time>
      </trkpt>
      <trkpt lat="41.9997780" lon="-5.7609870">
        <ele>744.9</ele>
        <time>2019-08-15T14:13:36Z</time>
      </trkpt>
      <trkpt lat="41.9997730" lon="-5.7610290">
        <ele>745.0</ele>
        <time>2019-08-15T14:13:37Z</time>
      </trkpt>
      <trkpt lat="41.9997680" lon="-5.7610710">
        <ele>745.1</ele>
        <time>2019-08-15T14:13:38Z</time>
      </trkpt>
      <trkpt lat="41.9997620" lon="-5.7611140">
        <ele>745.2</ele>
        <time>2019-08-15T14:13:39Z</time>
      </trkpt>
      <trkpt lat="41.9997580" lon="-5.7611560">
        <ele>745.3</ele>
        <time>2019-08-15T14:13:40Z</time>
      </trkpt>
      <trkpt lat="41.9997530" lon="-5.7611980">
        <ele>745.5</ele>
        <time>2019-08-15T14:13:41Z</time>
      </trkpt>
      <trkpt lat="41.9997490" lon="-5.7612400">
        <ele>745.6</ele>
        <time>2019-08-15T14:13:42Z</time>
      </trkpt>
      <trkpt lat="41.9997430" lon="-5.7612820">
        <ele>745.8</ele>
        <time>2019-08-15T14:13:43Z</time>
      </trkpt>
      <trkpt lat="41.9997380" lon="-5.7613240">
        <ele>746.0</ele>
        <time>2019-08-15T14:13:44Z</time>
      </trkpt>
      <trkpt lat="41.9997320" lon="-5.7613660">
        <ele>746.1</ele>
        <time>2019-08-15T14:13:45Z</time>
      </trkpt>
      <trkpt lat="41.9997260" lon="-5.7614090">
        <ele>746.3</ele>
        <time>2019-08-15T14:13:46Z</time>
      </trkpt>
      <trkpt lat="41.9997200" lon="-5.7614530">
        <ele>746.5</ele>
        <time>2019-08-15T14:13:47Z</time>
      </trkpt>
      <trkpt lat="41.9997150" lon="-5.7614960">
        <ele>746.7</ele>
        <time>2019-08-15T14:13:48Z</time>
      </trkpt>
      <trkpt lat="41.9997100" lon="-5.7615400">
        <ele>746.9</ele>
        <time>2019-08-15T14:13:49Z</time>
      </trkpt>
      <trkpt lat="41.9997040" lon="-5.7615850">
        <ele>747.0</ele>
        <time>2019-08-15T14:13:50Z</time>
      </trkpt>
      <trkpt lat="41.9996990" lon="-5.7616290">
        <ele>747.2</ele>
        <time>2019-08-15T14:13:51Z</time>
      </trkpt>
      <trkpt lat="41.9996940" lon="-5.7616740">
        <ele>747.3</ele>
        <time>2019-08-15T14:13:52Z</time>
      </trkpt>
      <trkpt lat="41.9996900" lon="-5.7617180">
        <ele>747.5</ele>
        <time>2019-08-15T14:13:53Z</time>
      </trkpt>
      <trkpt lat="41.9996840" lon="-5.7617620">
        <ele>747.6</ele>
        <time>2019-08-15T14:13:54Z</time>
      </trkpt>
      <trkpt lat="41.9996790" lon="-5.7618060">
        <ele>747.7</ele>
        <time>2019-08-15T14:13:55Z</time>
      </trkpt>
      <trkpt lat="41.9996730" lon="-5.7618520">
        <ele>747.8</ele>
        <time>2019-08-15T14:13:56Z</time>
      </trkpt>
      <trkpt lat="41.9996670" lon="-5.7618980">
        <ele>747.9</ele>
        <time>2019-08-15T14:13:57Z</time>
      </trkpt>
      <trkpt lat="41.9996620" lon="-5.7619440">
        <ele>748.0</ele>
        <time>2019-08-15T14:13:58Z</time>
      </trkpt>
      <trkpt lat="41.9996560" lon="-5.7619910">
        <ele>748.0</ele>
        <time>2019-08-15T14:13:59Z</time>
      </trkpt>
      <trkpt lat="41.9996500" lon="-5.7620390">
        <ele>748.1</ele>
        <time>2019-08-15T14:14:00Z</time>
      </trkpt>
      <trkpt lat="41.9996440" lon="-5.7620870">
        <ele>748.2</ele>
        <time>2019-08-15T14:14:01Z</time>
      </trkpt>
      <trkpt lat="41.9996380" lon="-5.7621380">
        <ele>748.3</ele>
        <time>2019-08-15T14:14:02Z</time>
      </trkpt>
      <trkpt lat="41.9996330" lon="-5.7621900">
        <ele>748.3</ele>
        <time>2019-08-15T14:14:03Z</time>
      </trkpt>
      <trkpt lat="41.9996270" lon="-5.7622430">
        <ele>748.4</ele>
        <time>2019-08-15T14:14:04Z</time>
      </trkpt>
      <trkpt lat="41.9996200" lon="-5.7622970">
        <ele>748.4</ele>
        <time>2019-08-15T14:14:05Z</time>
      </trkpt>
      <trkpt lat="41.9996130" lon="-5.7623530">
        <ele>748.5</ele>
        <time>2019-08-15T14:14:06Z</time>
      </trkpt>
      <trkpt lat="41.9996060" lon="-5.7624090">
        <ele>748.5</ele>
        <time>2019-08-15T14:14:07Z</time>
      </trkpt>
      <trkpt lat="41.9996000" lon="-5.7624640">
        <ele>748.5</ele>
        <time>2019-08-15T14:14:08Z</time>
      </trkpt>
      <trkpt lat="41.9995920" lon="-5.7625190">
        <ele>748.6</ele>
        <time>2019-08-15T14:14:09Z</time>
      </trkpt>
      <trkpt lat="41.9995830" lon="-5.7625750">
        <ele>748.6</ele>
        <time>2019-08-15T14:14:10Z</time>
      </trkpt>
      <trkpt lat="41.9995760" lon="-5.7626340">
        <ele>748.7</ele>
        <time>2019-08-15T14:14:11Z</time>
      </trkpt>
      <trkpt lat="41.9995680" lon="-5.7626940">
        <ele>748.7</ele>
        <time>2019-08-15T14:14:12Z</time>
      </trkpt>
      <trkpt lat="41.9995590" lon="-5.7627550">
        <ele>748.7</ele>
        <time>2019-08-15T14:14:13Z</time>
      </trkpt>
      <trkpt lat="41.9995500" lon="-5.7628170">
        <ele>748.8</ele>
        <time>2019-08-15T14:14:14Z</time>
      </trkpt>
      <trkpt lat="41.9995420" lon="-5.7628750">
        <ele>748.8</ele>
        <time>2019-08-15T14:14:15Z</time>
      </trkpt>
      <trkpt lat="41.9995340" lon="-5.7629330">
        <ele>748.9</ele>
        <time>2019-08-15T14:14:16Z</time>
      </trkpt>
      <trkpt lat="41.9995240" lon="-5.7629940">
        <ele>749.0</ele>
        <time>2019-08-15T14:14:17Z</time>
      </trkpt>
      <trkpt lat="41.9995170" lon="-5.7630560">
        <ele>749.2</ele>
        <time>2019-08-15T14:14:18Z</time>
      </trkpt>
      <trkpt lat="41.9995100" lon="-5.7631190">
        <ele>749.4</ele>
        <time>2019-08-15T14:14:19Z</time>
      </trkpt>
      <trkpt lat="41.9995000" lon="-5.7631830">
        <ele>749.7</ele>
        <time>2019-08-15T14:14:20Z</time>
      </trkpt>
      <trkpt lat="41.9994900" lon="-5.7632470">
        <ele>750.1</ele>
        <time>2019-08-15T14:14:21Z</time>
      </trkpt>
      <trkpt lat="41.9994800" lon="-5.7633110">
        <ele>750.4</ele>
        <time>2019-08-15T14:14:22Z</time>
      </trkpt>
      <trkpt lat="41.9994710" lon="-5.7633730">
        <ele>750.8</ele>
        <time>2019-08-15T14:14:23Z</time>
      </trkpt>
      <trkpt lat="41.9994630" lon="-5.7634340">
        <ele>751.1</ele>
        <time>2019-08-15T14:14:24Z</time>
      </trkpt>
      <trkpt lat="41.9994550" lon="-5.7634930">
        <ele>751.4</ele>
        <time>2019-08-15T14:14:25Z</time>
      </trkpt>
      <trkpt lat="41.9994460" lon="-5.7635540">
        <ele>751.7</ele>
        <time>2019-08-15T14:14:26Z</time>
      </trkpt>
      <trkpt lat="41.9994380" lon="-5.7636190">
        <ele>751.9</ele>
        <time>2019-08-15T14:14:27Z</time>
      </trkpt>
      <trkpt lat="41.9994300" lon="-5.7636830">
        <ele>752.0</ele>
        <time>2019-08-15T14:14:28Z</time>
      </trkpt>
      <trkpt lat="41.9994220" lon="-5.7637480">
        <ele>752.1</ele>
        <time>2019-08-15T14:14:29Z</time>
      </trkpt>
      <trkpt lat="41.9994140" lon="-5.7638150">
        <ele>752.2</ele>
        <time>2019-08-15T14:14:30Z</time>
      </trkpt>
      <trkpt lat="41.9994050" lon="-5.7638830">
        <ele>752.3</ele>
        <time>2019-08-15T14:14:31Z</time>
      </trkpt>
      <trkpt lat="41.9993960" lon="-5.7639510">
        <ele>752.3</ele>
        <time>2019-08-15T14:14:32Z</time>
      </trkpt>
      <trkpt lat="41.9993870" lon="-5.7640190">
        <ele>752.4</ele>
        <time>2019-08-15T14:14:33Z</time>
      </trkpt>
      <trkpt lat="41.9993790" lon="-5.7640880">
        <ele>752.4</ele>
        <time>2019-08-15T14:14:34Z</time>
      </trkpt>
      <trkpt lat="41.9993700" lon="-5.7641580">
        <ele>752.4</ele>
        <time>2019-08-15T14:14:35Z</time>
      </trkpt>
      <trkpt lat="41.9993620" lon="-5.7642280">
        <ele>752.4</ele>
        <time>2019-08-15T14:14:36Z</time>
      </trkpt>
      <trkpt lat="41.9993550" lon="-5.7642980">
        <ele>752.4</ele>
        <time>2019-08-15T14:14:37Z</time>
      </trkpt>
      <trkpt lat="41.9993470" lon="-5.7643690">
        <ele>752.4</ele>
        <time>2019-08-15T14:14:38Z</time>
      </trkpt>
      <trkpt lat="41.9993380" lon="-5.7644410">
        <ele>752.4</ele>
        <time>2019-08-15T14:14:39Z</time>
      </trkpt>
      <trkpt lat="41.9993300" lon="-5.7645150">
        <ele>752.4</ele>
        <time>2019-08-15T14:14:40Z</time>
      </trkpt>
      <trkpt lat="41.9993200" lon="-5.7645900">
        <ele>752.4</ele>
        <time>2019-08-15T14:14:41Z</time>
      </trkpt>
      <trkpt lat="41.9993120" lon="-5.7646640">
        <ele>752.4</ele>
        <time>2019-08-15T14:14:42Z</time>
      </trkpt>
      <trkpt lat="41.9993040" lon="-5.7647380">
        <ele>752.4</ele>
        <time>2019-08-15T14:14:43Z</time>
      </trkpt>
      <trkpt lat="41.9992950" lon="-5.7648100">
        <ele>752.3</ele>
        <time>2019-08-15T14:14:44Z</time>
      </trkpt>
      <trkpt lat="41.9992860" lon="-5.7648800">
        <ele>752.3</ele>
        <time>2019-08-15T14:14:45Z</time>
      </trkpt>
      <trkpt lat="41.9992760" lon="-5.7649490">
        <ele>752.3</ele>
        <time>2019-08-15T14:14:46Z</time>
      </trkpt>
      <trkpt lat="41.9992660" lon="-5.7650160">
        <ele>752.3</ele>
        <time>2019-08-15T14:14:47Z</time>
      </trkpt>
      <trkpt lat="41.9992580" lon="-5.7650820">
        <ele>752.3</ele>
        <time>2019-08-15T14:14:48Z</time>
      </trkpt>
      <trkpt lat="41.9992480" lon="-5.7651460">
        <ele>752.3</ele>
        <time>2019-08-15T14:14:49Z</time>
      </trkpt>
      <trkpt lat="41.9992390" lon="-5.7652090">
        <ele>752.3</ele>
        <time>2019-08-15T14:14:50Z</time>
      </trkpt>
      <trkpt lat="41.9992320" lon="-5.7652710">
        <ele>752.3</ele>
        <time>2019-08-15T14:14:51Z</time>
      </trkpt>
      <trkpt lat="41.9992230" lon="-5.7653310">
        <ele>752.3</ele>
        <time>2019-08-15T14:14:52Z</time>
      </trkpt>
      <trkpt lat="41.9992150" lon="-5.7653890">
        <ele>752.3</ele>
        <time>2019-08-15T14:14:53Z</time>
      </trkpt>
      <trkpt lat="41.9992090" lon="-5.7654480">
        <ele>752.3</ele>
        <time>2019-08-15T14:14:54Z</time>
      </trkpt>
      <trkpt lat="41.9992030" lon="-5.7655080">
        <ele>752.3</ele>
        <time>2019-08-15T14:14:55Z</time>
      </trkpt>
      <trkpt lat="41.9991950" lon="-5.7655700">
        <ele>752.3</ele>
        <time>2019-08-15T14:14:56Z</time>
      </trkpt>
      <trkpt lat="41.9991870" lon="-5.7656320">
        <ele>752.3</ele>
        <time>2019-08-15T14:14:57Z</time>
      </trkpt>
      <trkpt lat="41.9991790" lon="-5.7656960">
        <ele>752.3</ele>
        <time>2019-08-15T14:14:58Z</time>
      </trkpt>
      <trkpt lat="41.9991700" lon="-5.7657590">
        <ele>752.4</ele>
        <time>2019-08-15T14:14:59Z</time>
      </trkpt>
      <trkpt lat="41.9991600" lon="-5.7658220">
        <ele>752.4</ele>
        <time>2019-08-15T14:15:00Z</time>
      </trkpt>
      <trkpt lat="41.9991520" lon="-5.7658860">
        <ele>752.4</ele>
        <time>2019-08-15T14:15:01Z</time>
      </trkpt>
      <trkpt lat="41.9991430" lon="-5.7659510">
        <ele>752.4</ele>
        <time>2019-08-15T14:15:02Z</time>
      </trkpt>
      <trkpt lat="41.9991350" lon="-5.7660170">
        <ele>752.5</ele>
        <time>2019-08-15T14:15:03Z</time>
      </trkpt>
      <trkpt lat="41.9991280" lon="-5.7660820">
        <ele>752.5</ele>
        <time>2019-08-15T14:15:04Z</time>
      </trkpt>
      <trkpt lat="41.9991200" lon="-5.7661470">
        <ele>752.5</ele>
        <time>2019-08-15T14:15:05Z</time>
      </trkpt>
      <trkpt lat="41.9991120" lon="-5.7662130">
        <ele>752.5</ele>
        <time>2019-08-15T14:15:06Z</time>
      </trkpt>
      <trkpt lat="41.9991030" lon="-5.7662780">
        <ele>752.6</ele>
        <time>2019-08-15T14:15:07Z</time>
      </trkpt>
      <trkpt lat="41.9990960" lon="-5.7663440">
        <ele>752.6</ele>
        <time>2019-08-15T14:15:08Z</time>
      </trkpt>
      <trkpt lat="41.9990880" lon="-5.7664100">
        <ele>752.6</ele>
        <time>2019-08-15T14:15:09Z</time>
      </trkpt>
      <trkpt lat="41.9990800" lon="-5.7664750">
        <ele>752.6</ele>
        <time>2019-08-15T14:15:10Z</time>
      </trkpt>
      <trkpt lat="41.9990710" lon="-5.7665430">
        <ele>752.6</ele>
        <time>2019-08-15T14:15:11Z</time>
      </trkpt>
      <trkpt lat="41.9990620" lon="-5.7666080">
        <ele>752.7</ele>
        <time>2019-08-15T14:15:12Z</time>
      </trkpt>
      <trkpt lat="41.9990530" lon="-5.7666750">
        <ele>752.7</ele>
        <time>2019-08-15T14:15:13Z</time>
      </trkpt>
      <trkpt lat="41.9990450" lon="-5.7667380">
        <ele>752.7</ele>
        <time>2019-08-15T14:15:14Z</time>
      </trkpt>
      <trkpt lat="41.9990370" lon="-5.7667990">
        <ele>752.7</ele>
        <time>2019-08-15T14:15:15Z</time>
      </trkpt>
      <trkpt lat="41.9990310" lon="-5.7668600">
        <ele>752.7</ele>
        <time>2019-08-15T14:15:16Z</time>
      </trkpt>
      <trkpt lat="41.9990240" lon="-5.7669220">
        <ele>752.7</ele>
        <time>2019-08-15T14:15:17Z</time>
      </trkpt>
      <trkpt lat="41.9990170" lon="-5.7669860">
        <ele>752.7</ele>
        <time>2019-08-15T14:15:18Z</time>
      </trkpt>
      <trkpt lat="41.9990090" lon="-5.7670500">
        <ele>752.7</ele>
        <time>2019-08-15T14:15:19Z</time>
      </trkpt>
      <trkpt lat="41.9990010" lon="-5.7671160">
        <ele>752.7</ele>
        <time>2019-08-15T14:15:20Z</time>
      </trkpt>
      <trkpt lat="41.9989950" lon="-5.7671830">
        <ele>752.7</ele>
        <time>2019-08-15T14:15:21Z</time>
      </trkpt>
      <trkpt lat="41.9989880" lon="-5.7672490">
        <ele>752.7</ele>
        <time>2019-08-15T14:15:22Z</time>
      </trkpt>
      <trkpt lat="41.9989800" lon="-5.7673140">
        <ele>752.7</ele>
        <time>2019-08-15T14:15:23Z</time>
      </trkpt>
      <trkpt lat="41.9989720" lon="-5.7673780">
        <ele>752.7</ele>
        <time>2019-08-15T14:15:24Z</time>
      </trkpt>
      <trkpt lat="41.9989650" lon="-5.7674430">
        <ele>752.7</ele>
        <time>2019-08-15T14:15:25Z</time>
      </trkpt>
      <trkpt lat="41.9989580" lon="-5.7675080">
        <ele>752.6</ele>
        <time>2019-08-15T14:15:26Z</time>
      </trkpt>
      <trkpt lat="41.9989510" lon="-5.7675720">
        <ele>752.6</ele>
        <time>2019-08-15T14:15:27Z</time>
      </trkpt>
      <trkpt lat="41.9989430" lon="-5.7676380">
        <ele>752.6</ele>
        <time>2019-08-15T14:15:28Z</time>
      </trkpt>
      <trkpt lat="41.9989350" lon="-5.7677020">
        <ele>752.6</ele>
        <time>2019-08-15T14:15:29Z</time>
      </trkpt>
      <trkpt lat="41.9989280" lon="-5.7677660">
        <ele>752.5</ele>
        <time>2019-08-15T14:15:30Z</time>
      </trkpt>
      <trkpt lat="41.9989210" lon="-5.7678320">
        <ele>752.5</ele>
        <time>2019-08-15T14:15:31Z</time>
      </trkpt>
      <trkpt lat="41.9989140" lon="-5.7678970">
        <ele>752.5</ele>
        <time>2019-08-15T14:15:32Z</time>
      </trkpt>
      <trkpt lat="41.9989070" lon="-5.7679620">
        <ele>752.4</ele>
        <time>2019-08-15T14:15:33Z</time>
      </trkpt>
      <trkpt lat="41.9989000" lon="-5.7680280">
        <ele>752.4</ele>
        <time>2019-08-15T14:15:34Z</time>
      </trkpt>
      <trkpt lat="41.9988940" lon="-5.7680930">
        <ele>752.4</ele>
        <time>2019-08-15T14:15:35Z</time>
      </trkpt>
      <trkpt lat="41.9988850" lon="-5.7681590">
        <ele>752.3</ele>
        <time>2019-08-15T14:15:36Z</time>
      </trkpt>
      <trkpt lat="41.9988750" lon="-5.7682250">
        <ele>752.3</ele>
        <time>2019-08-15T14:15:37Z</time>
      </trkpt>
      <trkpt lat="41.9988670" lon="-5.7682920">
        <ele>752.2</ele>
        <time>2019-08-15T14:15:38Z</time>
      </trkpt>
      <trkpt lat="41.9988590" lon="-5.7683580">
        <ele>752.2</ele>
        <time>2019-08-15T14:15:39Z</time>
      </trkpt>
      <trkpt lat="41.9988530" lon="-5.7684250">
        <ele>752.1</ele>
        <time>2019-08-15T14:15:40Z</time>
      </trkpt>
      <trkpt lat="41.9988460" lon="-5.7684890">
        <ele>752.1</ele>
        <time>2019-08-15T14:15:41Z</time>
      </trkpt>
      <trkpt lat="41.9988390" lon="-5.7685500">
        <ele>752.1</ele>
        <time>2019-08-15T14:15:42Z</time>
      </trkpt>
      <trkpt lat="41.9988310" lon="-5.7686110">
        <ele>752.1</ele>
        <time>2019-08-15T14:15:43Z</time>
      </trkpt>
      <trkpt lat="41.9988250" lon="-5.7686730">
        <ele>752.1</ele>
        <time>2019-08-15T14:15:44Z</time>
      </trkpt>
      <trkpt lat="41.9988160" lon="-5.7687370">
        <ele>752.1</ele>
        <time>2019-08-15T14:15:45Z</time>
      </trkpt>
      <trkpt lat="41.9988070" lon="-5.7688010">
        <ele>752.1</ele>
        <time>2019-08-15T14:15:46Z</time>
      </trkpt>
      <trkpt lat="41.9987970" lon="-5.7688630">
        <ele>752.2</ele>
        <time>2019-08-15T14:15:47Z</time>
      </trkpt>
      <trkpt lat="41.9987860" lon="-5.7689270">
        <ele>752.2</ele>
        <time>2019-08-15T14:15:48Z</time>
      </trkpt>
      <trkpt lat="41.9987780" lon="-5.7689920">
        <ele>752.2</ele>
        <time>2019-08-15T14:15:49Z</time>
      </trkpt>
      <trkpt lat="41.9987720" lon="-5.7690600">
        <ele>752.3</ele>
        <time>2019-08-15T14:15:50Z</time>
      </trkpt>
      <trkpt lat="41.9987640" lon="-5.7691270">
        <ele>752.3</ele>
        <time>2019-08-15T14:15:51Z</time>
      </trkpt>
      <trkpt lat="41.9987550" lon="-5.7691940">
        <ele>752.4</ele>
        <time>2019-08-15T14:15:52Z</time>
      </trkpt>
      <trkpt lat="41.9987450" lon="-5.7692620">
        <ele>752.5</ele>
        <time>2019-08-15T14:15:53Z</time>
      </trkpt>
      <trkpt lat="41.9987380" lon="-5.7693310">
        <ele>752.5</ele>
        <time>2019-08-15T14:15:54Z</time>
      </trkpt>
      <trkpt lat="41.9987290" lon="-5.7694010">
        <ele>752.6</ele>
        <time>2019-08-15T14:15:55Z</time>
      </trkpt>
      <trkpt lat="41.9987200" lon="-5.7694710">
        <ele>752.7</ele>
        <time>2019-08-15T14:15:56Z</time>
      </trkpt>
      <trkpt lat="41.9987120" lon="-5.7695420">
        <ele>752.7</ele>
        <time>2019-08-15T14:15:57Z</time>
      </trkpt>
      <trkpt lat="41.9987050" lon="-5.7696140">
        <ele>752.8</ele>
        <time>2019-08-15T14:15:58Z</time>
      </trkpt>
      <trkpt lat="41.9986960" lon="-5.7696860">
        <ele>752.8</ele>
        <time>2019-08-15T14:15:59Z</time>
      </trkpt>
      <trkpt lat="41.9986860" lon="-5.7697580">
        <ele>752.9</ele>
        <time>2019-08-15T14:16:00Z</time>
      </trkpt>
      <trkpt lat="41.9986780" lon="-5.7698280">
        <ele>752.9</ele>
        <time>2019-08-15T14:16:01Z</time>
      </trkpt>
      <trkpt lat="41.9986690" lon="-5.7698960">
        <ele>752.9</ele>
        <time>2019-08-15T14:16:02Z</time>
      </trkpt>
      <trkpt lat="41.9986610" lon="-5.7699610">
        <ele>752.9</ele>
        <time>2019-08-15T14:16:03Z</time>
      </trkpt>
      <trkpt lat="41.9986520" lon="-5.7700270">
        <ele>752.9</ele>
        <time>2019-08-15T14:16:04Z</time>
      </trkpt>
      <trkpt lat="41.9986440" lon="-5.7700950">
        <ele>752.9</ele>
        <time>2019-08-15T14:16:05Z</time>
      </trkpt>
      <trkpt lat="41.9986360" lon="-5.7701630">
        <ele>752.9</ele>
        <time>2019-08-15T14:16:06Z</time>
      </trkpt>
      <trkpt lat="41.9986260" lon="-5.7702310">
        <ele>752.9</ele>
        <time>2019-08-15T14:16:07Z</time>
      </trkpt>
      <trkpt lat="41.9986160" lon="-5.7703010">
        <ele>752.9</ele>
        <time>2019-08-15T14:16:08Z</time>
      </trkpt>
      <trkpt lat="41.9986070" lon="-5.7703690">
        <ele>752.9</ele>
        <time>2019-08-15T14:16:09Z</time>
      </trkpt>
      <trkpt lat="41.9985980" lon="-5.7704400">
        <ele>752.9</ele>
        <time>2019-08-15T14:16:10Z</time>
      </trkpt>
      <trkpt lat="41.9985890" lon="-5.7705100">
        <ele>752.9</ele>
        <time>2019-08-15T14:16:11Z</time>
      </trkpt>
      <trkpt lat="41.9985790" lon="-5.7705790">
        <ele>752.9</ele>
        <time>2019-08-15T14:16:12Z</time>
      </trkpt>
      <trkpt lat="41.9985710" lon="-5.7706470">
        <ele>752.8</ele>
        <time>2019-08-15T14:16:13Z</time>
      </trkpt>
      <trkpt lat="41.9985610" lon="-5.7707160">
        <ele>752.8</ele>
        <time>2019-08-15T14:16:14Z</time>
      </trkpt>
      <trkpt lat="41.9985520" lon="-5.7707850">
        <ele>752.8</ele>
        <time>2019-08-15T14:16:15Z</time>
      </trkpt>
      <trkpt lat="41.9985440" lon="-5.7708530">
        <ele>752.8</ele>
        <time>2019-08-15T14:16:16Z</time>
      </trkpt>
      <trkpt lat="41.9985360" lon="-5.7709210">
        <ele>752.8</ele>
        <time>2019-08-15T14:16:17Z</time>
      </trkpt>
      <trkpt lat="41.9985270" lon="-5.7709890">
        <ele>752.8</ele>
        <time>2019-08-15T14:16:18Z</time>
      </trkpt>
      <trkpt lat="41.9985180" lon="-5.7710560">
        <ele>752.8</ele>
        <time>2019-08-15T14:16:19Z</time>
      </trkpt>
      <trkpt lat="41.9985110" lon="-5.7711240">
        <ele>752.8</ele>
        <time>2019-08-15T14:16:20Z</time>
      </trkpt>
      <trkpt lat="41.9985040" lon="-5.7711910">
        <ele>752.9</ele>
        <time>2019-08-15T14:16:21Z</time>
      </trkpt>
      <trkpt lat="41.9984980" lon="-5.7712590">
        <ele>752.9</ele>
        <time>2019-08-15T14:16:22Z</time>
      </trkpt>
      <trkpt lat="41.9984910" lon="-5.7713280">
        <ele>753.0</ele>
        <time>2019-08-15T14:16:23Z</time>
      </trkpt>
      <trkpt lat="41.9984840" lon="-5.7713970">
        <ele>753.0</ele>
        <time>2019-08-15T14:16:24Z</time>
      </trkpt>
      <trkpt lat="41.9984800" lon="-5.7714670">
        <ele>753.1</ele>
        <time>2019-08-15T14:16:25Z</time>
      </trkpt>
      <trkpt lat="41.9984750" lon="-5.7715380">
        <ele>753.2</ele>
        <time>2019-08-15T14:16:26Z</time>
      </trkpt>
      <trkpt lat="41.9984690" lon="-5.7716110">
        <ele>753.3</ele>
        <time>2019-08-15T14:16:27Z</time>
      </trkpt>
      <trkpt lat="41.9984640" lon="-5.7716830">
        <ele>753.4</ele>
        <time>2019-08-15T14:16:28Z</time>
      </trkpt>
      <trkpt lat="41.9984580" lon="-5.7717560">
        <ele>753.4</ele>
        <time>2019-08-15T14:16:29Z</time>
      </trkpt>
      <trkpt lat="41.9984530" lon="-5.7718310">
        <ele>753.5</ele>
        <time>2019-08-15T14:16:30Z</time>
      </trkpt>
      <trkpt lat="41.9984480" lon="-5.7719070">
        <ele>753.6</ele>
        <time>2019-08-15T14:16:31Z</time>
      </trkpt>
      <trkpt lat="41.9984450" lon="-5.7719830">
        <ele>753.6</ele>
        <time>2019-08-15T14:16:32Z</time>
      </trkpt>
      <trkpt lat="41.9984390" lon="-5.7720600">
        <ele>753.7</ele>
        <time>2019-08-15T14:16:33Z</time>
      </trkpt>
      <trkpt lat="41.9984360" lon="-5.7721390">
        <ele>753.7</ele>
        <time>2019-08-15T14:16:34Z</time>
      </trkpt>
      <trkpt lat="41.9984330" lon="-5.7722180">
        <ele>753.8</ele>
        <time>2019-08-15T14:16:35Z</time>
      </trkpt>
      <trkpt lat="41.9984290" lon="-5.7722980">
        <ele>753.9</ele>
        <time>2019-08-15T14:16:36Z</time>
      </trkpt>
      <trkpt lat="41.9984260" lon="-5.7723760">
        <ele>754.0</ele>
        <time>2019-08-15T14:16:37Z</time>
      </trkpt>
      <trkpt lat="41.9984250" lon="-5.7724520">
        <ele>754.0</ele>
        <time>2019-08-15T14:16:38Z</time>
      </trkpt>
      <trkpt lat="41.9984230" lon="-5.7725260">
        <ele>754.1</ele>
        <time>2019-08-15T14:16:39Z</time>
      </trkpt>
      <trkpt lat="41.9984240" lon="-5.7725990">
        <ele>754.2</ele>
        <time>2019-08-15T14:16:40Z</time>
      </trkpt>
      <trkpt lat="41.9984260" lon="-5.7726680">
        <ele>754.2</ele>
        <time>2019-08-15T14:16:41Z</time>
      </trkpt>
      <trkpt lat="41.9984280" lon="-5.7727390">
        <ele>754.2</ele>
        <time>2019-08-15T14:16:42Z</time>
      </trkpt>
      <trkpt lat="41.9984300" lon="-5.7728080">
        <ele>754.2</ele>
        <time>2019-08-15T14:16:43Z</time>
      </trkpt>
      <trkpt lat="41.9984340" lon="-5.7728770">
        <ele>754.3</ele>
        <time>2019-08-15T14:16:44Z</time>
      </trkpt>
      <trkpt lat="41.9984370" lon="-5.7729450">
        <ele>754.3</ele>
        <time>2019-08-15T14:16:45Z</time>
      </trkpt>
      <trkpt lat="41.9984380" lon="-5.7730160">
        <ele>754.3</ele>
        <time>2019-08-15T14:16:46Z</time>
      </trkpt>
      <trkpt lat="41.9984400" lon="-5.7730890">
        <ele>754.3</ele>
        <time>2019-08-15T14:16:47Z</time>
      </trkpt>
      <trkpt lat="41.9984450" lon="-5.7731640">
        <ele>754.3</ele>
        <time>2019-08-15T14:16:48Z</time>
      </trkpt>
      <trkpt lat="41.9984500" lon="-5.7732400">
        <ele>754.4</ele>
        <time>2019-08-15T14:16:49Z</time>
      </trkpt>
      <trkpt lat="41.9984530" lon="-5.7733170">
        <ele>754.4</ele>
        <time>2019-08-15T14:16:50Z</time>
      </trkpt>
      <trkpt lat="41.9984590" lon="-5.7733940">
        <ele>754.4</ele>
        <time>2019-08-15T14:16:51Z</time>
      </trkpt>
      <trkpt lat="41.9984650" lon="-5.7734740">
        <ele>754.4</ele>
        <time>2019-08-15T14:16:52Z</time>
      </trkpt>
      <trkpt lat="41.9984720" lon="-5.7735540">
        <ele>754.3</ele>
        <time>2019-08-15T14:16:53Z</time>
      </trkpt>
      <trkpt lat="41.9984770" lon="-5.7736330">
        <ele>754.3</ele>
        <time>2019-08-15T14:16:54Z</time>
      </trkpt>
      <trkpt lat="41.9984820" lon="-5.7737130">
        <ele>754.3</ele>
        <time>2019-08-15T14:16:55Z</time>
      </trkpt>
      <trkpt lat="41.9984870" lon="-5.7737900">
        <ele>754.3</ele>
        <time>2019-08-15T14:16:56Z</time>
      </trkpt>
      <trkpt lat="41.9984940" lon="-5.7738640">
        <ele>754.3</ele>
        <time>2019-08-15T14:16:57Z</time>
      </trkpt>
      <trkpt lat="41.9985020" lon="-5.7739370">
        <ele>754.2</ele>
        <time>2019-08-15T14:16:58Z</time>
      </trkpt>
      <trkpt lat="41.9985100" lon="-5.7740090">
        <ele>754.2</ele>
        <time>2019-08-15T14:16:59Z</time>
      </trkpt>
      <trkpt lat="41.9985170" lon="-5.7740780">
        <ele>754.2</ele>
        <time>2019-08-15T14:17:00Z</time>
      </trkpt>
      <trkpt lat="41.9985220" lon="-5.7741460">
        <ele>754.2</ele>
        <time>2019-08-15T14:17:01Z</time>
      </trkpt>
      <trkpt lat="41.9985290" lon="-5.7742140">
        <ele>754.2</ele>
        <time>2019-08-15T14:17:02Z</time>
      </trkpt>
      <trkpt lat="41.9985370" lon="-5.7742860">
        <ele>754.3</ele>
        <time>2019-08-15T14:17:03Z</time>
      </trkpt>
      <trkpt lat="41.9985480" lon="-5.7743580">
        <ele>754.3</ele>
        <time>2019-08-15T14:17:04Z</time>
      </trkpt>
      <trkpt lat="41.9985590" lon="-5.7744310">
        <ele>754.2</ele>
        <time>2019-08-15T14:17:05Z</time>
      </trkpt>
      <trkpt lat="41.9985710" lon="-5.7745050">
        <ele>754.2</ele>
        <time>2019-08-15T14:17:06Z</time>
      </trkpt>
      <trkpt lat="41.9985820" lon="-5.7745810">
        <ele>754.2</ele>
        <time>2019-08-15T14:17:07Z</time>
      </trkpt>
      <trkpt lat="41.9985950" lon="-5.7746590">
        <ele>754.2</ele>
        <time>2019-08-15T14:17:08Z</time>
      </trkpt>
      <trkpt lat="41.9986070" lon="-5.7747360">
        <ele>754.1</ele>
        <time>2019-08-15T14:17:09Z</time>
      </trkpt>
      <trkpt lat="41.9986190" lon="-5.7748150">
        <ele>754.1</ele>
        <time>2019-08-15T14:17:10Z</time>
      </trkpt>
      <trkpt lat="41.9986330" lon="-5.7748920">
        <ele>754.0</ele>
        <time>2019-08-15T14:17:11Z</time>
      </trkpt>
      <trkpt lat="41.9986490" lon="-5.7749700">
        <ele>754.0</ele>
        <time>2019-08-15T14:17:12Z</time>
      </trkpt>
      <trkpt lat="41.9986640" lon="-5.7750450">
        <ele>753.9</ele>
        <time>2019-08-15T14:17:13Z</time>
      </trkpt>
      <trkpt lat="41.9986790" lon="-5.7751200">
        <ele>753.9</ele>
        <time>2019-08-15T14:17:14Z</time>
      </trkpt>
      <trkpt lat="41.9986950" lon="-5.7751950">
        <ele>753.8</ele>
        <time>2019-08-15T14:17:15Z</time>
      </trkpt>
      <trkpt lat="41.9987110" lon="-5.7752700">
        <ele>753.8</ele>
        <time>2019-08-15T14:17:16Z</time>
      </trkpt>
      <trkpt lat="41.9987280" lon="-5.7753450">
        <ele>753.7</ele>
        <time>2019-08-15T14:17:17Z</time>
      </trkpt>
      <trkpt lat="41.9987440" lon="-5.7754210">
        <ele>753.7</ele>
        <time>2019-08-15T14:17:18Z</time>
      </trkpt>
      <trkpt lat="41.9987600" lon="-5.7754970">
        <ele>753.6</ele>
        <time>2019-08-15T14:17:19Z</time>
      </trkpt>
      <trkpt lat="41.9987760" lon="-5.7755730">
        <ele>753.5</ele>
        <time>2019-08-15T14:17:20Z</time>
      </trkpt>
      <trkpt lat="41.9987930" lon="-5.7756490">
        <ele>753.4</ele>
        <time>2019-08-15T14:17:21Z</time>
      </trkpt>
      <trkpt lat="41.9988120" lon="-5.7757270">
        <ele>753.3</ele>
        <time>2019-08-15T14:17:22Z</time>
      </trkpt>
      <trkpt lat="41.9988300" lon="-5.7758060">
        <ele>753.2</ele>
        <time>2019-08-15T14:17:23Z</time>
      </trkpt>
      <trkpt lat="41.9988480" lon="-5.7758870">
        <ele>753.1</ele>
        <time>2019-08-15T14:17:24Z</time>
      </trkpt>
      <trkpt lat="41.9988660" lon="-5.7759670">
        <ele>753.0</ele>
        <time>2019-08-15T14:17:25Z</time>
      </trkpt>
      <trkpt lat="41.9988850" lon="-5.7760490">
        <ele>752.9</ele>
        <time>2019-08-15T14:17:26Z</time>
      </trkpt>
      <trkpt lat="41.9989050" lon="-5.7761330">
        <ele>752.7</ele>
        <time>2019-08-15T14:17:27Z</time>
      </trkpt>
      <trkpt lat="41.9989250" lon="-5.7762170">
        <ele>752.6</ele>
        <time>2019-08-15T14:17:28Z</time>
      </trkpt>
      <trkpt lat="41.9989450" lon="-5.7763020">
        <ele>752.3</ele>
        <time>2019-08-15T14:17:29Z</time>
      </trkpt>
      <trkpt lat="41.9989670" lon="-5.7763880">
        <ele>752.1</ele>
        <time>2019-08-15T14:17:30Z</time>
      </trkpt>
      <trkpt lat="41.9989870" lon="-5.7764750">
        <ele>751.8</ele>
        <time>2019-08-15T14:17:31Z</time>
      </trkpt>
      <trkpt lat="41.9990070" lon="-5.7765630">
        <ele>751.5</ele>
        <time>2019-08-15T14:17:32Z</time>
      </trkpt>
      <trkpt lat="41.9990290" lon="-5.7766550">
        <ele>751.3</ele>
        <time>2019-08-15T14:17:33Z</time>
      </trkpt>
      <trkpt lat="41.9990500" lon="-5.7767470">
        <ele>751.0</ele>
        <time>2019-08-15T14:17:34Z</time>
      </trkpt>
      <trkpt lat="41.9990720" lon="-5.7768400">
        <ele>750.7</ele>
        <time>2019-08-15T14:17:35Z</time>
      </trkpt>
      <trkpt lat="41.9990940" lon="-5.7769350">
        <ele>750.4</ele>
        <time>2019-08-15T14:17:36Z</time>
      </trkpt>
      <trkpt lat="41.9991180" lon="-5.7770320">
        <ele>750.1</ele>
        <time>2019-08-15T14:17:37Z</time>
      </trkpt>
      <trkpt lat="41.9991400" lon="-5.7771300">
        <ele>749.8</ele>
        <time>2019-08-15T14:17:38Z</time>
      </trkpt>
      <trkpt lat="41.9991620" lon="-5.7772290">
        <ele>749.4</ele>
        <time>2019-08-15T14:17:39Z</time>
      </trkpt>
      <trkpt lat="41.9991840" lon="-5.7773280">
        <ele>749.1</ele>
        <time>2019-08-15T14:17:40Z</time>
      </trkpt>
      <trkpt lat="41.9992070" lon="-5.7774290">
        <ele>748.8</ele>
        <time>2019-08-15T14:17:41Z</time>
      </trkpt>
      <trkpt lat="41.9992300" lon="-5.7775280">
        <ele>748.5</ele>
        <time>2019-08-15T14:17:42Z</time>
      </trkpt>
      <trkpt lat="41.9992530" lon="-5.7776290">
        <ele>748.2</ele>
        <time>2019-08-15T14:17:43Z</time>
      </trkpt>
      <trkpt lat="41.9992760" lon="-5.7777310">
        <ele>747.8</ele>
        <time>2019-08-15T14:17:44Z</time>
      </trkpt>
      <trkpt lat="41.9992990" lon="-5.7778310">
        <ele>747.5</ele>
        <time>2019-08-15T14:17:45Z</time>
      </trkpt>
      <trkpt lat="41.9993240" lon="-5.7779320">
        <ele>747.2</ele>
        <time>2019-08-15T14:17:46Z</time>
      </trkpt>
      <trkpt lat="41.9993480" lon="-5.7780350">
        <ele>747.0</ele>
        <time>2019-08-15T14:17:47Z</time>
      </trkpt>
      <trkpt lat="41.9993710" lon="-5.7781380">
        <ele>746.8</ele>
        <time>2019-08-15T14:17:48Z</time>
      </trkpt>
      <trkpt lat="41.9993920" lon="-5.7782430">
        <ele>746.7</ele>
        <time>2019-08-15T14:17:49Z</time>
      </trkpt>
      <trkpt lat="41.9994150" lon="-5.7783460">
        <ele>746.6</ele>
        <time>2019-08-15T14:17:50Z</time>
      </trkpt>
      <trkpt lat="41.9994390" lon="-5.7784500">
        <ele>746.5</ele>
        <time>2019-08-15T14:17:51Z</time>
      </trkpt>
      <trkpt lat="41.9994630" lon="-5.7785560">
        <ele>746.4</ele>
        <time>2019-08-15T14:17:52Z</time>
      </trkpt>
      <trkpt lat="41.9994840" lon="-5.7786610">
        <ele>746.3</ele>
        <time>2019-08-15T14:17:53Z</time>
      </trkpt>
      <trkpt lat="41.9995070" lon="-5.7787670">
        <ele>746.2</ele>
        <time>2019-08-15T14:17:54Z</time>
      </trkpt>
      <trkpt lat="41.9995280" lon="-5.7788720">
        <ele>746.1</ele>
        <time>2019-08-15T14:17:55Z</time>
      </trkpt>
      <trkpt lat="41.9995490" lon="-5.7789780">
        <ele>746.0</ele>
        <time>2019-08-15T14:17:56Z</time>
      </trkpt>
      <trkpt lat="41.9995700" lon="-5.7790830">
        <ele>745.9</ele>
        <time>2019-08-15T14:17:57Z</time>
      </trkpt>
      <trkpt lat="41.9995890" lon="-5.7791860">
        <ele>745.8</ele>
        <time>2019-08-15T14:17:58Z</time>
      </trkpt>
      <trkpt lat="41.9996080" lon="-5.7792900">
        <ele>745.8</ele>
        <time>2019-08-15T14:17:59Z</time>
      </trkpt>
      <trkpt lat="41.9996240" lon="-5.7793950">
        <ele>745.7</ele>
        <time>2019-08-15T14:18:00Z</time>
      </trkpt>
      <trkpt lat="41.9996400" lon="-5.7794980">
        <ele>745.7</ele>
        <time>2019-08-15T14:18:01Z</time>
      </trkpt>
      <trkpt lat="41.9996550" lon="-5.7796000">
        <ele>745.7</ele>
        <time>2019-08-15T14:18:02Z</time>
      </trkpt>
      <trkpt lat="41.9996700" lon="-5.7797000">
        <ele>745.7</ele>
        <time>2019-08-15T14:18:03Z</time>
      </trkpt>
      <trkpt lat="41.9996840" lon="-5.7798000">
        <ele>745.8</ele>
        <time>2019-08-15T14:18:04Z</time>
      </trkpt>
      <trkpt lat="41.9996980" lon="-5.7799000">
        <ele>745.8</ele>
        <time>2019-08-15T14:18:05Z</time>
      </trkpt>
      <trkpt lat="41.9997130" lon="-5.7800010">
        <ele>745.9</ele>
        <time>2019-08-15T14:18:06Z</time>
      </trkpt>
      <trkpt lat="41.9997260" lon="-5.7801010">
        <ele>746.0</ele>
        <time>2019-08-15T14:18:07Z</time>
      </trkpt>
      <trkpt lat="41.9997380" lon="-5.7802000">
        <ele>746.1</ele>
        <time>2019-08-15T14:18:08Z</time>
      </trkpt>
      <trkpt lat="41.9997480" lon="-5.7802970">
        <ele>746.2</ele>
        <time>2019-08-15T14:18:09Z</time>
      </trkpt>
      <trkpt lat="41.9997580" lon="-5.7803930">
        <ele>746.3</ele>
        <time>2019-08-15T14:18:10Z</time>
      </trkpt>
      <trkpt lat="41.9997690" lon="-5.7804880">
        <ele>746.3</ele>
        <time>2019-08-15T14:18:11Z</time>
      </trkpt>
      <trkpt lat="41.9997770" lon="-5.7805820">
        <ele>746.4</ele>
        <time>2019-08-15T14:18:12Z</time>
      </trkpt>
      <trkpt lat="41.9997850" lon="-5.7806740">
        <ele>746.4</ele>
        <time>2019-08-15T14:18:13Z</time>
      </trkpt>
      <trkpt lat="41.9997920" lon="-5.7807620">
        <ele>746.4</ele>
        <time>2019-08-15T14:18:14Z</time>
      </trkpt>
      <trkpt lat="41.9997980" lon="-5.7808480">
        <ele>746.5</ele>
        <time>2019-08-15T14:18:15Z</time>
      </trkpt>
      <trkpt lat="41.9998050" lon="-5.7809340">
        <ele>746.5</ele>
        <time>2019-08-15T14:18:16Z</time>
      </trkpt>
      <trkpt lat="41.9998110" lon="-5.7810210">
        <ele>746.5</ele>
        <time>2019-08-15T14:18:17Z</time>
      </trkpt>
      <trkpt lat="41.9998150" lon="-5.7811080">
        <ele>746.5</ele>
        <time>2019-08-15T14:18:18Z</time>
      </trkpt>
      <trkpt lat="41.9998180" lon="-5.7811960">
        <ele>746.5</ele>
        <time>2019-08-15T14:18:19Z</time>
      </trkpt>
      <trkpt lat="41.9998230" lon="-5.7812830">
        <ele>746.4</ele>
        <time>2019-08-15T14:18:20Z</time>
      </trkpt>
      <trkpt lat="41.9998280" lon="-5.7813690">
        <ele>746.4</ele>
        <time>2019-08-15T14:18:21Z</time>
      </trkpt>
      <trkpt lat="41.9998320" lon="-5.7814540">
        <ele>746.3</ele>
        <time>2019-08-15T14:18:22Z</time>
      </trkpt>
      <trkpt lat="41.9998370" lon="-5.7815390">
        <ele>746.1</ele>
        <time>2019-08-15T14:18:23Z</time>
      </trkpt>
      <trkpt lat="41.9998390" lon="-5.7816230">
        <ele>746.1</ele>
        <time>2019-08-15T14:18:24Z</time>
      </trkpt>
      <trkpt lat="41.9998410" lon="-5.7817060">
        <ele>746.2</ele>
        <time>2019-08-15T14:18:25Z</time>
      </trkpt>
      <trkpt lat="41.9998410" lon="-5.7817860">
        <ele>746.2</ele>
        <time>2019-08-15T14:18:26Z</time>
      </trkpt>
      <trkpt lat="41.9998410" lon="-5.7818660">
        <ele>746.3</ele>
        <time>2019-08-15T14:18:27Z</time>
      </trkpt>
      <trkpt lat="41.9998410" lon="-5.7819450">
        <ele>746.3</ele>
        <time>2019-08-15T14:18:28Z</time>
      </trkpt>
      <trkpt lat="41.9998400" lon="-5.7820240">
        <ele>746.3</ele>
        <time>2019-08-15T14:18:29Z</time>
      </trkpt>
      <trkpt lat="41.9998390" lon="-5.7821040">
        <ele>746.4</ele>
        <time>2019-08-15T14:18:30Z</time>
      </trkpt>
      <trkpt lat="41.9998370" lon="-5.7821840">
        <ele>746.4</ele>
        <time>2019-08-15T14:18:31Z</time>
      </trkpt>
      <trkpt lat="41.9998350" lon="-5.7822620">
        <ele>746.4</ele>
        <time>2019-08-15T14:18:32Z</time>
      </trkpt>
      <trkpt lat="41.9998320" lon="-5.7823410">
        <ele>746.5</ele>
        <time>2019-08-15T14:18:33Z</time>
      </trkpt>
      <trkpt lat="41.9998290" lon="-5.7824200">
        <ele>746.5</ele>
        <time>2019-08-15T14:18:34Z</time>
      </trkpt>
      <trkpt lat="41.9998280" lon="-5.7824990">
        <ele>746.6</ele>
        <time>2019-08-15T14:18:35Z</time>
      </trkpt>
      <trkpt lat="41.9998250" lon="-5.7825780">
        <ele>746.6</ele>
        <time>2019-08-15T14:18:36Z</time>
      </trkpt>
      <trkpt lat="41.9998220" lon="-5.7826550">
        <ele>746.6</ele>
        <time>2019-08-15T14:18:37Z</time>
      </trkpt>
      <trkpt lat="41.9998190" lon="-5.7827300">
        <ele>746.6</ele>
        <time>2019-08-15T14:18:38Z</time>
      </trkpt>
      <trkpt lat="41.9998150" lon="-5.7828020">
        <ele>746.7</ele>
        <time>2019-08-15T14:18:39Z</time>
      </trkpt>
      <trkpt lat="41.9998130" lon="-5.7828750">
        <ele>746.7</ele>
        <time>2019-08-15T14:18:40Z</time>
      </trkpt>
      <trkpt lat="41.9998110" lon="-5.7829480">
        <ele>746.7</ele>
        <time>2019-08-15T14:18:41Z</time>
      </trkpt>
      <trkpt lat="41.9998100" lon="-5.7830210">
        <ele>746.7</ele>
        <time>2019-08-15T14:18:42Z</time>
      </trkpt>
      <trkpt lat="41.9998070" lon="-5.7830950">
        <ele>746.7</ele>
        <time>2019-08-15T14:18:43Z</time>
      </trkpt>
      <trkpt lat="41.9998030" lon="-5.7831680">
        <ele>746.7</ele>
        <time>2019-08-15T14:18:44Z</time>
      </trkpt>
      <trkpt lat="41.9998000" lon="-5.7832420">
        <ele>746.7</ele>
        <time>2019-08-15T14:18:45Z</time>
      </trkpt>
      <trkpt lat="41.9997960" lon="-5.7833170">
        <ele>746.6</ele>
        <time>2019-08-15T14:18:46Z</time>
      </trkpt>
      <trkpt lat="41.9997910" lon="-5.7833910">
        <ele>746.6</ele>
        <time>2019-08-15T14:18:47Z</time>
      </trkpt>
      <trkpt lat="41.9997860" lon="-5.7834650">
        <ele>746.6</ele>
        <time>2019-08-15T14:18:48Z</time>
      </trkpt>
      <trkpt lat="41.9997810" lon="-5.7835400">
        <ele>746.6</ele>
        <time>2019-08-15T14:18:49Z</time>
      </trkpt>
      <trkpt lat="41.9997780" lon="-5.7836150">
        <ele>746.5</ele>
        <time>2019-08-15T14:18:50Z</time>
      </trkpt>
      <trkpt lat="41.9997740" lon="-5.7836900">
        <ele>746.5</ele>
        <time>2019-08-15T14:18:51Z</time>
      </trkpt>
      <trkpt lat="41.9997690" lon="-5.7837640">
        <ele>746.5</ele>
        <time>2019-08-15T14:18:52Z</time>
      </trkpt>
      <trkpt lat="41.9997660" lon="-5.7838370">
        <ele>746.4</ele>
        <time>2019-08-15T14:18:53Z</time>
      </trkpt>
      <trkpt lat="41.9997630" lon="-5.7839080">
        <ele>746.2</ele>
        <time>2019-08-15T14:18:54Z</time>
      </trkpt>
      <trkpt lat="41.9997570" lon="-5.7839770">
        <ele>746.0</ele>
        <time>2019-08-15T14:18:55Z</time>
      </trkpt>
      <trkpt lat="41.9997530" lon="-5.7840460">
        <ele>745.8</ele>
        <time>2019-08-15T14:18:56Z</time>
      </trkpt>
      <trkpt lat="41.9997490" lon="-5.7841140">
        <ele>745.6</ele>
        <time>2019-08-15T14:18:57Z</time>
      </trkpt>
      <trkpt lat="41.9997460" lon="-5.7841830">
        <ele>745.5</ele>
        <time>2019-08-15T14:18:58Z</time>
      </trkpt>
      <trkpt lat="41.9997420" lon="-5.7842570">
        <ele>745.4</ele>
        <time>2019-08-15T14:18:59Z</time>
      </trkpt>
      <trkpt lat="41.9997370" lon="-5.7843310">
        <ele>745.2</ele>
        <time>2019-08-15T14:19:00Z</time>
      </trkpt>
      <trkpt lat="41.9997300" lon="-5.7844060">
        <ele>745.1</ele>
        <time>2019-08-15T14:19:01Z</time>
      </trkpt>
      <trkpt lat="41.9997250" lon="-5.7844800">
        <ele>744.9</ele>
        <time>2019-08-15T14:19:02Z</time>
      </trkpt>
      <trkpt lat="41.9997200" lon="-5.7845550">
        <ele>744.7</ele>
        <time>2019-08-15T14:19:03Z</time>
      </trkpt>
      <trkpt lat="41.9997150" lon="-5.7846290">
        <ele>744.4</ele>
        <time>2019-08-15T14:19:04Z</time>
      </trkpt>
      <trkpt lat="41.9997110" lon="-5.7847030">
        <ele>744.2</ele>
        <time>2019-08-15T14:19:05Z</time>
      </trkpt>
      <trkpt lat="41.9997060" lon="-5.7847770">
        <ele>743.9</ele>
        <time>2019-08-15T14:19:06Z</time>
      </trkpt>
      <trkpt lat="41.9997010" lon="-5.7848510">
        <ele>743.6</ele>
        <time>2019-08-15T14:19:07Z</time>
      </trkpt>
      <trkpt lat="41.9996950" lon="-5.7849240">
        <ele>743.4</ele>
        <time>2019-08-15T14:19:08Z</time>
      </trkpt>
      <trkpt lat="41.9996900" lon="-5.7849950">
        <ele>743.3</ele>
        <time>2019-08-15T14:19:09Z</time>
      </trkpt>
      <trkpt lat="41.9996850" lon="-5.7850700">
        <ele>743.2</ele>
        <time>2019-08-15T14:19:10Z</time>
      </trkpt>
      <trkpt lat="41.9996800" lon="-5.7851430">
        <ele>743.2</ele>
        <time>2019-08-15T14:19:11Z</time>
      </trkpt>
      <trkpt lat="41.9996770" lon="-5.7852150">
        <ele>743.1</ele>
        <time>2019-08-15T14:19:12Z</time>
      </trkpt>
      <trkpt lat="41.9996710" lon="-5.7852890">
        <ele>743.1</ele>
        <time>2019-08-15T14:19:13Z</time>
      </trkpt>
      <trkpt lat="41.9996660" lon="-5.7853640">
        <ele>743.1</ele>
        <time>2019-08-15T14:19:14Z</time>
      </trkpt>
      <trkpt lat="41.9996600" lon="-5.7854380">
        <ele>743.1</ele>
        <time>2019-08-15T14:19:15Z</time>
      </trkpt>
      <trkpt lat="41.9996540" lon="-5.7855140">
        <ele>743.0</ele>
        <time>2019-08-15T14:19:16Z</time>
      </trkpt>
      <trkpt lat="41.9996480" lon="-5.7855880">
        <ele>743.0</ele>
        <time>2019-08-15T14:19:17Z</time>
      </trkpt>
      <trkpt lat="41.9996420" lon="-5.7856630">
        <ele>743.0</ele>
        <time>2019-08-15T14:19:18Z</time>
      </trkpt>
      <trkpt lat="41.9996370" lon="-5.7857350">
        <ele>742.9</ele>
        <time>2019-08-15T14:19:19Z</time>
      </trkpt>
      <trkpt lat="41.9996320" lon="-5.7858060">
        <ele>742.9</ele>
        <time>2019-08-15T14:19:20Z</time>
      </trkpt>
      <trkpt lat="41.9996260" lon="-5.7858790">
        <ele>742.7</ele>
        <time>2019-08-15T14:19:21Z</time>
      </trkpt>
      <trkpt lat="41.9996220" lon="-5.7859530">
        <ele>742.6</ele>
        <time>2019-08-15T14:19:22Z</time>
      </trkpt>
      <trkpt lat="41.9996170" lon="-5.7860300">
        <ele>742.4</ele>
        <time>2019-08-15T14:19:23Z</time>
      </trkpt>
      <trkpt lat="41.9996110" lon="-5.7861090">
        <ele>742.1</ele>
        <time>2019-08-15T14:19:24Z</time>
      </trkpt>
      <trkpt lat="41.9996050" lon="-5.7861890">
        <ele>741.9</ele>
        <time>2019-08-15T14:19:25Z</time>
      </trkpt>
      <trkpt lat="41.9995990" lon="-5.7862680">
        <ele>741.7</ele>
        <time>2019-08-15T14:19:26Z</time>
      </trkpt>
      <trkpt lat="41.9995930" lon="-5.7863480">
        <ele>741.5</ele>
        <time>2019-08-15T14:19:27Z</time>
      </trkpt>
      <trkpt lat="41.9995880" lon="-5.7864330">
        <ele>741.3</ele>
        <time>2019-08-15T14:19:28Z</time>
      </trkpt>
      <trkpt lat="41.9995820" lon="-5.7865190">
        <ele>741.0</ele>
        <time>2019-08-15T14:19:29Z</time>
      </trkpt>
      <trkpt lat="41.9995740" lon="-5.7866000">
        <ele>740.7</ele>
        <time>2019-08-15T14:19:30Z</time>
      </trkpt>
      <trkpt lat="41.9995680" lon="-5.7866830">
        <ele>740.5</ele>
        <time>2019-08-15T14:19:31Z</time>
      </trkpt>
      <trkpt lat="41.9995600" lon="-5.7867640">
        <ele>740.2</ele>
        <time>2019-08-15T14:19:32Z</time>
      </trkpt>
      <trkpt lat="41.9995550" lon="-5.7868460">
        <ele>740.0</ele>
        <time>2019-08-15T14:19:33Z</time>
      </trkpt>
      <trkpt lat="41.9995490" lon="-5.7869260">
        <ele>739.8</ele>
        <time>2019-08-15T14:19:34Z</time>
      </trkpt>
      <trkpt lat="41.9995420" lon="-5.7870050">
        <ele>739.6</ele>
        <time>2019-08-15T14:19:35Z</time>
      </trkpt>
      <trkpt lat="41.9995370" lon="-5.7870840">
        <ele>739.4</ele>
        <time>2019-08-15T14:19:36Z</time>
      </trkpt>
      <trkpt lat="41.9995320" lon="-5.7871610">
        <ele>739.2</ele>
        <time>2019-08-15T14:19:37Z</time>
      </trkpt>
      <trkpt lat="41.9995280" lon="-5.7872400">
        <ele>739.0</ele>
        <time>2019-08-15T14:19:38Z</time>
      </trkpt>
      <trkpt lat="41.9995240" lon="-5.7873180">
        <ele>738.8</ele>
        <time>2019-08-15T14:19:39Z</time>
      </trkpt>
      <trkpt lat="41.9995200" lon="-5.7873940">
        <ele>738.7</ele>
        <time>2019-08-15T14:19:40Z</time>
      </trkpt>
      <trkpt lat="41.9995160" lon="-5.7874720">
        <ele>738.6</ele>
        <time>2019-08-15T14:19:41Z</time>
      </trkpt>
      <trkpt lat="41.9995110" lon="-5.7875510">
        <ele>738.5</ele>
        <time>2019-08-15T14:19:42Z</time>
      </trkpt>
      <trkpt lat="41.9995030" lon="-5.7876330">
        <ele>738.5</ele>
        <time>2019-08-15T14:19:43Z</time>
      </trkpt>
      <trkpt lat="41.9994990" lon="-5.7877090">
        <ele>738.4</ele>
        <time>2019-08-15T14:19:44Z</time>
      </trkpt>
      <trkpt lat="41.9994990" lon="-5.7877830">
        <ele>738.4</ele>
        <time>2019-08-15T14:19:45Z</time>
      </trkpt>
      <trkpt lat="41.9994990" lon="-5.7878590">
        <ele>738.3</ele>
        <time>2019-08-15T14:19:46Z</time>
      </trkpt>
      <trkpt lat="41.9994960" lon="-5.7879330">
        <ele>738.2</ele>
        <time>2019-08-15T14:19:47Z</time>
      </trkpt>
      <trkpt lat="41.9994900" lon="-5.7880080">
        <ele>738.0</ele>
        <time>2019-08-15T14:19:48Z</time>
      </trkpt>
      <trkpt lat="41.9994830" lon="-5.7880930">
        <ele>737.7</ele>
        <time>2019-08-15T14:19:49Z</time>
      </trkpt>
      <trkpt lat="41.9994840" lon="-5.7881770">
        <ele>737.5</ele>
        <time>2019-08-15T14:19:50Z</time>
      </trkpt>
      <trkpt lat="41.9994820" lon="-5.7882600">
        <ele>737.3</ele>
        <time>2019-08-15T14:19:51Z</time>
      </trkpt>
      <trkpt lat="41.9994770" lon="-5.7883440">
        <ele>737.2</ele>
        <time>2019-08-15T14:19:52Z</time>
      </trkpt>
      <trkpt lat="41.9994690" lon="-5.7884280">
        <ele>737.2</ele>
        <time>2019-08-15T14:19:53Z</time>
      </trkpt>
      <trkpt lat="41.9994610" lon="-5.7885140">
        <ele>737.2</ele>
        <time>2019-08-15T14:19:54Z</time>
      </trkpt>
      <trkpt lat="41.9994570" lon="-5.7886020">
        <ele>737.4</ele>
        <time>2019-08-15T14:19:55Z</time>
      </trkpt>
      <trkpt lat="41.9994510" lon="-5.7886880">
        <ele>737.5</ele>
        <time>2019-08-15T14:19:56Z</time>
      </trkpt>
      <trkpt lat="41.9994420" lon="-5.7887730">
        <ele>737.6</ele>
        <time>2019-08-15T14:19:57Z</time>
      </trkpt>
      <trkpt lat="41.9994340" lon="-5.7888580">
        <ele>737.7</ele>
        <time>2019-08-15T14:19:58Z</time>
      </trkpt>
      <trkpt lat="41.9994280" lon="-5.7889430">
        <ele>737.7</ele>
        <time>2019-08-15T14:19:59Z</time>
      </trkpt>
      <trkpt lat="41.9994210" lon="-5.7890260">
        <ele>737.6</ele>
        <time>2019-08-15T14:20:00Z</time>
      </trkpt>
      <trkpt lat="41.9994130" lon="-5.7891080">
        <ele>737.8</ele>
        <time>2019-08-15T14:20:01Z</time>
      </trkpt>
      <trkpt lat="41.9994060" lon="-5.7891910">
        <ele>738.0</ele>
        <time>2019-08-15T14:20:02Z</time>
      </trkpt>
      <trkpt lat="41.9994000" lon="-5.7892730">
        <ele>738.1</ele>
        <time>2019-08-15T14:20:03Z</time>
      </trkpt>
      <trkpt lat="41.9993950" lon="-5.7893540">
        <ele>738.1</ele>
        <time>2019-08-15T14:20:04Z</time>
      </trkpt>
      <trkpt lat="41.9993900" lon="-5.7894370">
        <ele>738.1</ele>
        <time>2019-08-15T14:20:05Z</time>
      </trkpt>
      <trkpt lat="41.9993850" lon="-5.7895180">
        <ele>738.2</ele>
        <time>2019-08-15T14:20:06Z</time>
      </trkpt>
      <trkpt lat="41.9993800" lon="-5.7895990">
        <ele>738.2</ele>
        <time>2019-08-15T14:20:07Z</time>
      </trkpt>
      <trkpt lat="41.9993750" lon="-5.7896790">
        <ele>738.2</ele>
        <time>2019-08-15T14:20:08Z</time>
      </trkpt>
      <trkpt lat="41.9993700" lon="-5.7897600">
        <ele>738.2</ele>
        <time>2019-08-15T14:20:09Z</time>
      </trkpt>
      <trkpt lat="41.9993660" lon="-5.7898410">
        <ele>738.2</ele>
        <time>2019-08-15T14:20:10Z</time>
      </trkpt>
      <trkpt lat="41.9993620" lon="-5.7899210">
        <ele>738.1</ele>
        <time>2019-08-15T14:20:11Z</time>
      </trkpt>
      <trkpt lat="41.9993570" lon="-5.7900010">
        <ele>738.0</ele>
        <time>2019-08-15T14:20:12Z</time>
      </trkpt>
      <trkpt lat="41.9993500" lon="-5.7900810">
        <ele>738.0</ele>
        <time>2019-08-15T14:20:13Z</time>
      </trkpt>
      <trkpt lat="41.9993460" lon="-5.7901590">
        <ele>737.9</ele>
        <time>2019-08-15T14:20:14Z</time>
      </trkpt>
      <trkpt lat="41.9993430" lon="-5.7902400">
        <ele>737.8</ele>
        <time>2019-08-15T14:20:15Z</time>
      </trkpt>
      <trkpt lat="41.9993410" lon="-5.7903230">
        <ele>737.6</ele>
        <time>2019-08-15T14:20:16Z</time>
      </trkpt>
      <trkpt lat="41.9993380" lon="-5.7904090">
        <ele>737.5</ele>
        <time>2019-08-15T14:20:17Z</time>
      </trkpt>
      <trkpt lat="41.9993340" lon="-5.7904960">
        <ele>737.4</ele>
        <time>2019-08-15T14:20:18Z</time>
      </trkpt>
      <trkpt lat="41.9993310" lon="-5.7905850">
        <ele>737.3</ele>
        <time>2019-08-15T14:20:19Z</time>
      </trkpt>
      <trkpt lat="41.9993290" lon="-5.7906760">
        <ele>737.2</ele>
        <time>2019-08-15T14:20:20Z</time>
      </trkpt>
      <trkpt lat="41.9993310" lon="-5.7907670">
        <ele>737.1</ele>
        <time>2019-08-15T14:20:21Z</time>
      </trkpt>
      <trkpt lat="41.9993330" lon="-5.7908590">
        <ele>737.1</ele>
        <time>2019-08-15T14:20:22Z</time>
      </trkpt>
      <trkpt lat="41.9993370" lon="-5.7909500">
        <ele>737.0</ele>
        <time>2019-08-15T14:20:23Z</time>
      </trkpt>
      <trkpt lat="41.9993420" lon="-5.7910420">
        <ele>736.9</ele>
        <time>2019-08-15T14:20:24Z</time>
      </trkpt>
      <trkpt lat="41.9993480" lon="-5.7911340">
        <ele>736.8</ele>
        <time>2019-08-15T14:20:25Z</time>
      </trkpt>
      <trkpt lat="41.9993550" lon="-5.7912240">
        <ele>736.7</ele>
        <time>2019-08-15T14:20:26Z</time>
      </trkpt>
      <trkpt lat="41.9993630" lon="-5.7913160">
        <ele>736.6</ele>
        <time>2019-08-15T14:20:27Z</time>
      </trkpt>
      <trkpt lat="41.9993710" lon="-5.7914070">
        <ele>736.5</ele>
        <time>2019-08-15T14:20:28Z</time>
      </trkpt>
      <trkpt lat="41.9993780" lon="-5.7914970">
        <ele>736.4</ele>
        <time>2019-08-15T14:20:29Z</time>
      </trkpt>
      <trkpt lat="41.9993890" lon="-5.7915890">
        <ele>736.2</ele>
        <time>2019-08-15T14:20:30Z</time>
      </trkpt>
      <trkpt lat="41.9994010" lon="-5.7916790">
        <ele>736.0</ele>
        <time>2019-08-15T14:20:31Z</time>
      </trkpt>
      <trkpt lat="41.9994140" lon="-5.7917690">
        <ele>735.9</ele>
        <time>2019-08-15T14:20:32Z</time>
      </trkpt>
      <trkpt lat="41.9994290" lon="-5.7918590">
        <ele>735.7</ele>
        <time>2019-08-15T14:20:33Z</time>
      </trkpt>
      <trkpt lat="41.9994440" lon="-5.7919480">
        <ele>735.5</ele>
        <time>2019-08-15T14:20:34Z</time>
      </trkpt>
      <trkpt lat="41.9994600" lon="-5.7920380">
        <ele>735.3</ele>
        <time>2019-08-15T14:20:35Z</time>
      </trkpt>
      <trkpt lat="41.9994760" lon="-5.7921280">
        <ele>735.2</ele>
        <time>2019-08-15T14:20:36Z</time>
      </trkpt>
      <trkpt lat="41.9994930" lon="-5.7922190">
        <ele>735.0</ele>
        <time>2019-08-15T14:20:37Z</time>
      </trkpt>
      <trkpt lat="41.9995090" lon="-5.7923100">
        <ele>734.8</ele>
        <time>2019-08-15T14:20:38Z</time>
      </trkpt>
      <trkpt lat="41.9995270" lon="-5.7924010">
        <ele>734.7</ele>
        <time>2019-08-15T14:20:39Z</time>
      </trkpt>
      <trkpt lat="41.9995450" lon="-5.7924930">
        <ele>734.5</ele>
        <time>2019-08-15T14:20:40Z</time>
      </trkpt>
      <trkpt lat="41.9995630" lon="-5.7925840">
        <ele>734.4</ele>
        <time>2019-08-15T14:20:41Z</time>
      </trkpt>
      <trkpt lat="41.9995790" lon="-5.7926760">
        <ele>734.2</ele>
        <time>2019-08-15T14:20:42Z</time>
      </trkpt>
      <trkpt lat="41.9995970" lon="-5.7927680">
        <ele>734.1</ele>
        <time>2019-08-15T14:20:43Z</time>
      </trkpt>
      <trkpt lat="41.9996150" lon="-5.7928610">
        <ele>734.0</ele>
        <time>2019-08-15T14:20:44Z</time>
      </trkpt>
      <trkpt lat="41.9996330" lon="-5.7929540">
        <ele>733.8</ele>
        <time>2019-08-15T14:20:45Z</time>
      </trkpt>
      <trkpt lat="41.9996500" lon="-5.7930480">
        <ele>733.7</ele>
        <time>2019-08-15T14:20:46Z</time>
      </trkpt>
      <trkpt lat="41.9996680" lon="-5.7931410">
        <ele>733.5</ele>
        <time>2019-08-15T14:20:47Z</time>
      </trkpt>
      <trkpt lat="41.9996860" lon="-5.7932360">
        <ele>733.3</ele>
        <time>2019-08-15T14:20:48Z</time>
      </trkpt>
      <trkpt lat="41.9997050" lon="-5.7933300">
        <ele>733.1</ele>
        <time>2019-08-15T14:20:49Z</time>
      </trkpt>
      <trkpt lat="41.9997230" lon="-5.7934250">
        <ele>732.9</ele>
        <time>2019-08-15T14:20:50Z</time>
      </trkpt>
      <trkpt lat="41.9997400" lon="-5.7935210">
        <ele>732.7</ele>
        <time>2019-08-15T14:20:51Z</time>
      </trkpt>
      <trkpt lat="41.9997580" lon="-5.7936150">
        <ele>732.5</ele>
        <time>2019-08-15T14:20:52Z</time>
      </trkpt>
      <trkpt lat="41.9997760" lon="-5.7937100">
        <ele>732.2</ele>
        <time>2019-08-15T14:20:53Z</time>
      </trkpt>
      <trkpt lat="41.9997940" lon="-5.7938040">
        <ele>732.0</ele>
        <time>2019-08-15T14:20:54Z</time>
      </trkpt>
      <trkpt lat="41.9998110" lon="-5.7938980">
        <ele>731.7</ele>
        <time>2019-08-15T14:20:55Z</time>
      </trkpt>
      <trkpt lat="41.9998300" lon="-5.7939920">
        <ele>731.3</ele>
        <time>2019-08-15T14:20:56Z</time>
      </trkpt>
      <trkpt lat="41.9998520" lon="-5.7940830">
        <ele>731.0</ele>
        <time>2019-08-15T14:20:57Z</time>
      </trkpt>
      <trkpt lat="41.9998730" lon="-5.7941760">
        <ele>730.6</ele>
        <time>2019-08-15T14:20:58Z</time>
      </trkpt>
      <trkpt lat="41.9998920" lon="-5.7942690">
        <ele>730.3</ele>
        <time>2019-08-15T14:20:59Z</time>
      </trkpt>
      <trkpt lat="41.9999100" lon="-5.7943640">
        <ele>730.0</ele>
        <time>2019-08-15T14:21:00Z</time>
      </trkpt>
      <trkpt lat="41.9999280" lon="-5.7944580">
        <ele>729.8</ele>
        <time>2019-08-15T14:21:01Z</time>
      </trkpt>
      <trkpt lat="41.9999490" lon="-5.7945490">
        <ele>729.7</ele>
        <time>2019-08-15T14:21:02Z</time>
      </trkpt>
      <trkpt lat="41.9999680" lon="-5.7946420">
        <ele>729.5</ele>
        <time>2019-08-15T14:21:03Z</time>
      </trkpt>
      <trkpt lat="41.9999910" lon="-5.7947400">
        <ele>729.4</ele>
        <time>2019-08-15T14:21:04Z</time>
      </trkpt>
      <trkpt lat="42.0000130" lon="-5.7948370">
        <ele>729.2</ele>
        <time>2019-08-15T14:21:05Z</time>
      </trkpt>
      <trkpt lat="42.0000320" lon="-5.7949290">
        <ele>729.1</ele>
        <time>2019-08-15T14:21:06Z</time>
      </trkpt>
      <trkpt lat="42.0000510" lon="-5.7950200">
        <ele>729.1</ele>
        <time>2019-08-15T14:21:07Z</time>
      </trkpt>
      <trkpt lat="42.0000710" lon="-5.7951100">
        <ele>729.0</ele>
        <time>2019-08-15T14:21:08Z</time>
      </trkpt>
      <trkpt lat="42.0000910" lon="-5.7952020">
        <ele>729.0</ele>
        <time>2019-08-15T14:21:09Z</time>
      </trkpt>
      <trkpt lat="42.0001100" lon="-5.7952900">
        <ele>729.0</ele>
        <time>2019-08-15T14:21:10Z</time>
      </trkpt>
      <trkpt lat="42.0001260" lon="-5.7953730">
        <ele>728.9</ele>
        <time>2019-08-15T14:21:11Z</time>
      </trkpt>
      <trkpt lat="42.0001410" lon="-5.7954610">
        <ele>728.9</ele>
        <time>2019-08-15T14:21:12Z</time>
      </trkpt>
      <trkpt lat="42.0001580" lon="-5.7955530">
        <ele>728.8</ele>
        <time>2019-08-15T14:21:13Z</time>
      </trkpt>
      <trkpt lat="42.0001770" lon="-5.7956480">
        <ele>728.8</ele>
        <time>2019-08-15T14:21:14Z</time>
      </trkpt>
      <trkpt lat="42.0001940" lon="-5.7957440">
        <ele>728.7</ele>
        <time>2019-08-15T14:21:15Z</time>
      </trkpt>
      <trkpt lat="42.0002160" lon="-5.7958400">
        <ele>728.6</ele>
        <time>2019-08-15T14:21:16Z</time>
      </trkpt>
      <trkpt lat="42.0002320" lon="-5.7959360">
        <ele>728.5</ele>
        <time>2019-08-15T14:21:17Z</time>
      </trkpt>
      <trkpt lat="42.0002520" lon="-5.7960300">
        <ele>728.4</ele>
        <time>2019-08-15T14:21:18Z</time>
      </trkpt>
      <trkpt lat="42.0002720" lon="-5.7961260">
        <ele>728.2</ele>
        <time>2019-08-15T14:21:19Z</time>
      </trkpt>
      <trkpt lat="42.0002900" lon="-5.7962200">
        <ele>728.0</ele>
        <time>2019-08-15T14:21:20Z</time>
      </trkpt>
      <trkpt lat="42.0003090" lon="-5.7963130">
        <ele>727.8</ele>
        <time>2019-08-15T14:21:21Z</time>
      </trkpt>
      <trkpt lat="42.0003270" lon="-5.7964070">
        <ele>727.5</ele>
        <time>2019-08-15T14:21:22Z</time>
      </trkpt>
      <trkpt lat="42.0003450" lon="-5.7964990">
        <ele>727.2</ele>
        <time>2019-08-15T14:21:23Z</time>
      </trkpt>
      <trkpt lat="42.0003680" lon="-5.7965940">
        <ele>726.8</ele>
        <time>2019-08-15T14:21:24Z</time>
      </trkpt>
      <trkpt lat="42.0003870" lon="-5.7966910">
        <ele>726.4</ele>
        <time>2019-08-15T14:21:25Z</time>
      </trkpt>
      <trkpt lat="42.0004020" lon="-5.7967890">
        <ele>725.9</ele>
        <time>2019-08-15T14:21:26Z</time>
      </trkpt>
      <trkpt lat="42.0004180" lon="-5.7968860">
        <ele>725.5</ele>
        <time>2019-08-15T14:21:27Z</time>
      </trkpt>
      <trkpt lat="42.0004350" lon="-5.7969810">
        <ele>725.1</ele>
        <time>2019-08-15T14:21:28Z</time>
      </trkpt>
      <trkpt lat="42.0004530" lon="-5.7970720">
        <ele>724.7</ele>
        <time>2019-08-15T14:21:29Z</time>
      </trkpt>
      <trkpt lat="42.0004680" lon="-5.7971600">
        <ele>724.3</ele>
        <time>2019-08-15T14:21:30Z</time>
      </trkpt>
      <trkpt lat="42.0004840" lon="-5.7972480">
        <ele>723.9</ele>
        <time>2019-08-15T14:21:31Z</time>
      </trkpt>
      <trkpt lat="42.0005030" lon="-5.7973350">
        <ele>723.6</ele>
        <time>2019-08-15T14:21:32Z</time>
      </trkpt>
      <trkpt lat="42.0005220" lon="-5.7974220">
        <ele>723.3</ele>
        <time>2019-08-15T14:21:33Z</time>
      </trkpt>
      <trkpt lat="42.0005420" lon="-5.7975120">
        <ele>723.1</ele>
        <time>2019-08-15T14:21:34Z</time>
      </trkpt>
      <trkpt lat="42.0005620" lon="-5.7976030">
        <ele>722.8</ele>
        <time>2019-08-15T14:21:35Z</time>
      </trkpt>
      <trkpt lat="42.0005820" lon="-5.7976950">
        <ele>722.7</ele>
        <time>2019-08-15T14:21:36Z</time>
      </trkpt>
      <trkpt lat="42.0006020" lon="-5.7977880">
        <ele>722.5</ele>
        <time>2019-08-15T14:21:37Z</time>
      </trkpt>
      <trkpt lat="42.0006230" lon="-5.7978850">
        <ele>722.3</ele>
        <time>2019-08-15T14:21:38Z</time>
      </trkpt>
      <trkpt lat="42.0006420" lon="-5.7979830">
        <ele>722.0</ele>
        <time>2019-08-15T14:21:39Z</time>
      </trkpt>
      <trkpt lat="42.0006610" lon="-5.7980830">
        <ele>721.8</ele>
        <time>2019-08-15T14:21:40Z</time>
      </trkpt>
      <trkpt lat="42.0006790" lon="-5.7981820">
        <ele>721.6</ele>
        <time>2019-08-15T14:21:41Z</time>
      </trkpt>
      <trkpt lat="42.0006980" lon="-5.7982830">
        <ele>721.3</ele>
        <time>2019-08-15T14:21:42Z</time>
      </trkpt>
      <trkpt lat="42.0007170" lon="-5.7983830">
        <ele>721.0</ele>
        <time>2019-08-15T14:21:43Z</time>
      </trkpt>
      <trkpt lat="42.0007340" lon="-5.7984870">
        <ele>720.8</ele>
        <time>2019-08-15T14:21:44Z</time>
      </trkpt>
      <trkpt lat="42.0007520" lon="-5.7985900">
        <ele>720.6</ele>
        <time>2019-08-15T14:21:45Z</time>
      </trkpt>
      <trkpt lat="42.0007710" lon="-5.7986940">
        <ele>720.3</ele>
        <time>2019-08-15T14:21:46Z</time>
      </trkpt>
      <trkpt lat="42.0007880" lon="-5.7987980">
        <ele>720.1</ele>
        <time>2019-08-15T14:21:47Z</time>
      </trkpt>
      <trkpt lat="42.0008060" lon="-5.7989030">
        <ele>719.8</ele>
        <time>2019-08-15T14:21:48Z</time>
      </trkpt>
      <trkpt lat="42.0008240" lon="-5.7990090">
        <ele>719.5</ele>
        <time>2019-08-15T14:21:49Z</time>
      </trkpt>
      <trkpt lat="42.0008430" lon="-5.7991130">
        <ele>719.3</ele>
        <time>2019-08-15T14:21:50Z</time>
      </trkpt>
      <trkpt lat="42.0008630" lon="-5.7992190">
        <ele>719.0</ele>
        <time>2019-08-15T14:21:51Z</time>
      </trkpt>
      <trkpt lat="42.0008840" lon="-5.7993240">
        <ele>718.8</ele>
        <time>2019-08-15T14:21:52Z</time>
      </trkpt>
      <trkpt lat="42.0009040" lon="-5.7994290">
        <ele>718.6</ele>
        <time>2019-08-15T14:21:53Z</time>
      </trkpt>
      <trkpt lat="42.0009250" lon="-5.7995350">
        <ele>718.4</ele>
        <time>2019-08-15T14:21:54Z</time>
      </trkpt>
      <trkpt lat="42.0009450" lon="-5.7996410">
        <ele>718.3</ele>
        <time>2019-08-15T14:21:55Z</time>
      </trkpt>
      <trkpt lat="42.0009660" lon="-5.7997440">
        <ele>718.2</ele>
        <time>2019-08-15T14:21:56Z</time>
      </trkpt>
      <trkpt lat="42.0009850" lon="-5.7998470">
        <ele>718.1</ele>
        <time>2019-08-15T14:21:57Z</time>
      </trkpt>
      <trkpt lat="42.0010030" lon="-5.7999490">
        <ele>718.0</ele>
        <time>2019-08-15T14:21:58Z</time>
      </trkpt>
      <trkpt lat="42.0010240" lon="-5.8000470">
        <ele>717.9</ele>
        <time>2019-08-15T14:21:59Z</time>
      </trkpt>
      <trkpt lat="42.0010440" lon="-5.8001440">
        <ele>717.8</ele>
        <time>2019-08-15T14:22:00Z</time>
      </trkpt>
      <trkpt lat="42.0010650" lon="-5.8002410">
        <ele>717.7</ele>
        <time>2019-08-15T14:22:01Z</time>
      </trkpt>
      <trkpt lat="42.0010830" lon="-5.8003360">
        <ele>717.6</ele>
        <time>2019-08-15T14:22:02Z</time>
      </trkpt>
      <trkpt lat="42.0011030" lon="-5.8004280">
        <ele>717.4</ele>
        <time>2019-08-15T14:22:03Z</time>
      </trkpt>
      <trkpt lat="42.0011230" lon="-5.8005180">
        <ele>717.2</ele>
        <time>2019-08-15T14:22:04Z</time>
      </trkpt>
      <trkpt lat="42.0011400" lon="-5.8006090">
        <ele>717.0</ele>
        <time>2019-08-15T14:22:05Z</time>
      </trkpt>
      <trkpt lat="42.0011560" lon="-5.8007000">
        <ele>716.8</ele>
        <time>2019-08-15T14:22:06Z</time>
      </trkpt>
      <trkpt lat="42.0011710" lon="-5.8007890">
        <ele>716.7</ele>
        <time>2019-08-15T14:22:07Z</time>
      </trkpt>
      <trkpt lat="42.0011880" lon="-5.8008740">
        <ele>716.5</ele>
        <time>2019-08-15T14:22:08Z</time>
      </trkpt>
      <trkpt lat="42.0012090" lon="-5.8009580">
        <ele>716.4</ele>
        <time>2019-08-15T14:22:09Z</time>
      </trkpt>
      <trkpt lat="42.0012270" lon="-5.8010400">
        <ele>716.2</ele>
        <time>2019-08-15T14:22:10Z</time>
      </trkpt>
      <trkpt lat="42.0012430" lon="-5.8011220">
        <ele>716.1</ele>
        <time>2019-08-15T14:22:11Z</time>
      </trkpt>
      <trkpt lat="42.0012610" lon="-5.8012050">
        <ele>716.0</ele>
        <time>2019-08-15T14:22:12Z</time>
      </trkpt>
      <trkpt lat="42.0012790" lon="-5.8012870">
        <ele>715.9</ele>
        <time>2019-08-15T14:22:13Z</time>
      </trkpt>
      <trkpt lat="42.0012970" lon="-5.8013700">
        <ele>715.8</ele>
        <time>2019-08-15T14:22:14Z</time>
      </trkpt>
      <trkpt lat="42.0013130" lon="-5.8014540">
        <ele>715.7</ele>
        <time>2019-08-15T14:22:15Z</time>
      </trkpt>
      <trkpt lat="42.0013300" lon="-5.8015390">
        <ele>715.7</ele>
        <time>2019-08-15T14:22:16Z</time>
      </trkpt>
      <trkpt lat="42.0013450" lon="-5.8016230">
        <ele>715.6</ele>
        <time>2019-08-15T14:22:17Z</time>
      </trkpt>
      <trkpt lat="42.0013600" lon="-5.8017080">
        <ele>715.6</ele>
        <time>2019-08-15T14:22:18Z</time>
      </trkpt>
      <trkpt lat="42.0013760" lon="-5.8017940">
        <ele>715.6</ele>
        <time>2019-08-15T14:22:19Z</time>
      </trkpt>
      <trkpt lat="42.0013920" lon="-5.8018790">
        <ele>715.5</ele>
        <time>2019-08-15T14:22:20Z</time>
      </trkpt>
      <trkpt lat="42.0014080" lon="-5.8019610">
        <ele>715.5</ele>
        <time>2019-08-15T14:22:21Z</time>
      </trkpt>
      <trkpt lat="42.0014230" lon="-5.8020430">
        <ele>715.4</ele>
        <time>2019-08-15T14:22:22Z</time>
      </trkpt>
      <trkpt lat="42.0014380" lon="-5.8021290">
        <ele>715.3</ele>
        <time>2019-08-15T14:22:23Z</time>
      </trkpt>
      <trkpt lat="42.0014520" lon="-5.8022130">
        <ele>715.2</ele>
        <time>2019-08-15T14:22:24Z</time>
      </trkpt>
      <trkpt lat="42.0014660" lon="-5.8022960">
        <ele>715.1</ele>
        <time>2019-08-15T14:22:25Z</time>
      </trkpt>
      <trkpt lat="42.0014810" lon="-5.8023780">
        <ele>715.1</ele>
        <time>2019-08-15T14:22:26Z</time>
      </trkpt>
      <trkpt lat="42.0014960" lon="-5.8024600">
        <ele>715.0</ele>
        <time>2019-08-15T14:22:27Z</time>
      </trkpt>
      <trkpt lat="42.0015140" lon="-5.8025390">
        <ele>714.9</ele>
        <time>2019-08-15T14:22:28Z</time>
      </trkpt>
      <trkpt lat="42.0015320" lon="-5.8026180">
        <ele>714.8</ele>
        <time>2019-08-15T14:22:29Z</time>
      </trkpt>
      <trkpt lat="42.0015480" lon="-5.8026980">
        <ele>714.8</ele>
        <time>2019-08-15T14:22:30Z</time>
      </trkpt>
      <trkpt lat="42.0015650" lon="-5.8027760">
        <ele>714.7</ele>
        <time>2019-08-15T14:22:31Z</time>
      </trkpt>
      <trkpt lat="42.0015810" lon="-5.8028460">
        <ele>714.6</ele>
        <time>2019-08-15T14:22:32Z</time>
      </trkpt>
      <trkpt lat="42.0015980" lon="-5.8029200">
        <ele>714.6</ele>
        <time>2019-08-15T14:22:33Z</time>
      </trkpt>
      <trkpt lat="42.0016120" lon="-5.8029940">
        <ele>714.5</ele>
        <time>2019-08-15T14:22:34Z</time>
      </trkpt>
      <trkpt lat="42.0016260" lon="-5.8030680">
        <ele>714.5</ele>
        <time>2019-08-15T14:22:35Z</time>
      </trkpt>
      <trkpt lat="42.0016370" lon="-5.8031410">
        <ele>714.4</ele>
        <time>2019-08-15T14:22:36Z</time>
      </trkpt>
      <trkpt lat="42.0016520" lon="-5.8032150">
        <ele>714.3</ele>
        <time>2019-08-15T14:22:37Z</time>
      </trkpt>
      <trkpt lat="42.0016700" lon="-5.8032910">
        <ele>714.2</ele>
        <time>2019-08-15T14:22:38Z</time>
      </trkpt>
      <trkpt lat="42.0016870" lon="-5.8033650">
        <ele>714.1</ele>
        <time>2019-08-15T14:22:39Z</time>
      </trkpt>
      <trkpt lat="42.0017030" lon="-5.8034380">
        <ele>714.0</ele>
        <time>2019-08-15T14:22:40Z</time>
      </trkpt>
      <trkpt lat="42.0017150" lon="-5.8035160">
        <ele>713.9</ele>
        <time>2019-08-15T14:22:41Z</time>
      </trkpt>
      <trkpt lat="42.0017300" lon="-5.8035910">
        <ele>713.8</ele>
        <time>2019-08-15T14:22:42Z</time>
      </trkpt>
      <trkpt lat="42.0017450" lon="-5.8036660">
        <ele>713.7</ele>
        <time>2019-08-15T14:22:43Z</time>
      </trkpt>
      <trkpt lat="42.0017570" lon="-5.8037410">
        <ele>713.7</ele>
        <time>2019-08-15T14:22:44Z</time>
      </trkpt>
      <trkpt lat="42.0017690" lon="-5.8038150">
        <ele>713.6</ele>
        <time>2019-08-15T14:22:45Z</time>
      </trkpt>
      <trkpt lat="42.0017840" lon="-5.8038890">
        <ele>713.5</ele>
        <time>2019-08-15T14:22:46Z</time>
      </trkpt>
      <trkpt lat="42.0018000" lon="-5.8039630">
        <ele>713.4</ele>
        <time>2019-08-15T14:22:47Z</time>
      </trkpt>
      <trkpt lat="42.0018150" lon="-5.8040380">
        <ele>713.3</ele>
        <time>2019-08-15T14:22:48Z</time>
      </trkpt>
      <trkpt lat="42.0018290" lon="-5.8041120">
        <ele>713.2</ele>
        <time>2019-08-15T14:22:49Z</time>
      </trkpt>
      <trkpt lat="42.0018400" lon="-5.8041890">
        <ele>713.0</ele>
        <time>2019-08-15T14:22:50Z</time>
      </trkpt>
      <trkpt lat="42.0018510" lon="-5.8042640">
        <ele>713.0</ele>
        <time>2019-08-15T14:22:51Z</time>
      </trkpt>
      <trkpt lat="42.0018650" lon="-5.8043400">
        <ele>712.9</ele>
        <time>2019-08-15T14:22:52Z</time>
      </trkpt>
      <trkpt lat="42.0018780" lon="-5.8044150">
        <ele>712.8</ele>
        <time>2019-08-15T14:22:53Z</time>
      </trkpt>
      <trkpt lat="42.0018910" lon="-5.8044890">
        <ele>712.7</ele>
        <time>2019-08-15T14:22:54Z</time>
      </trkpt>
      <trkpt lat="42.0019090" lon="-5.8045600">
        <ele>712.7</ele>
        <time>2019-08-15T14:22:55Z</time>
      </trkpt>
      <trkpt lat="42.0019230" lon="-5.8046290">
        <ele>712.6</ele>
        <time>2019-08-15T14:22:56Z</time>
      </trkpt>
      <trkpt lat="42.0019360" lon="-5.8046970">
        <ele>712.6</ele>
        <time>2019-08-15T14:22:57Z</time>
      </trkpt>
      <trkpt lat="42.0019510" lon="-5.8047670">
        <ele>712.5</ele>
        <time>2019-08-15T14:22:58Z</time>
      </trkpt>
      <trkpt lat="42.0019670" lon="-5.8048370">
        <ele>712.5</ele>
        <time>2019-08-15T14:22:59Z</time>
      </trkpt>
      <trkpt lat="42.0019790" lon="-5.8049080">
        <ele>712.4</ele>
        <time>2019-08-15T14:23:00Z</time>
      </trkpt>
      <trkpt lat="42.0019900" lon="-5.8049760">
        <ele>712.3</ele>
        <time>2019-08-15T14:23:01Z</time>
      </trkpt>
      <trkpt lat="42.0019990" lon="-5.8050430">
        <ele>712.3</ele>
        <time>2019-08-15T14:23:02Z</time>
      </trkpt>
      <trkpt lat="42.0020150" lon="-5.8051120">
        <ele>712.2</ele>
        <time>2019-08-15T14:23:03Z</time>
      </trkpt>
      <trkpt lat="42.0020290" lon="-5.8051820">
        <ele>712.2</ele>
        <time>2019-08-15T14:23:04Z</time>
      </trkpt>
      <trkpt lat="42.0020430" lon="-5.8052540">
        <ele>712.1</ele>
        <time>2019-08-15T14:23:05Z</time>
      </trkpt>
      <trkpt lat="42.0020540" lon="-5.8053230">
        <ele>712.1</ele>
        <time>2019-08-15T14:23:06Z</time>
      </trkpt>
      <trkpt lat="42.0020640" lon="-5.8053920">
        <ele>712.1</ele>
        <time>2019-08-15T14:23:07Z</time>
      </trkpt>
      <trkpt lat="42.0020790" lon="-5.8054590">
        <ele>712.0</ele>
        <time>2019-08-15T14:23:08Z</time>
      </trkpt>
      <trkpt lat="42.0020940" lon="-5.8055260">
        <ele>712.0</ele>
        <time>2019-08-15T14:23:09Z</time>
      </trkpt>
      <trkpt lat="42.0021090" lon="-5.8055920">
        <ele>711.9</ele>
        <time>2019-08-15T14:23:10Z</time>
      </trkpt>
      <trkpt lat="42.0021250" lon="-5.8056570">
        <ele>711.9</ele>
        <time>2019-08-15T14:23:11Z</time>
      </trkpt>
      <trkpt lat="42.0021380" lon="-5.8057230">
        <ele>711.8</ele>
        <time>2019-08-15T14:23:12Z</time>
      </trkpt>
      <trkpt lat="42.0021480" lon="-5.8057870">
        <ele>711.7</ele>
        <time>2019-08-15T14:23:13Z</time>
      </trkpt>
      <trkpt lat="42.0021580" lon="-5.8058500">
        <ele>711.7</ele>
        <time>2019-08-15T14:23:14Z</time>
      </trkpt>
      <trkpt lat="42.0021680" lon="-5.8059140">
        <ele>711.6</ele>
        <time>2019-08-15T14:23:15Z</time>
      </trkpt>
      <trkpt lat="42.0021790" lon="-5.8059800">
        <ele>711.5</ele>
        <time>2019-08-15T14:23:16Z</time>
      </trkpt>
      <trkpt lat="42.0021920" lon="-5.8060470">
        <ele>711.4</ele>
        <time>2019-08-15T14:23:17Z</time>
      </trkpt>
      <trkpt lat="42.0022060" lon="-5.8061160">
        <ele>711.4</ele>
        <time>2019-08-15T14:23:18Z</time>
      </trkpt>
      <trkpt lat="42.0022190" lon="-5.8061850">
        <ele>711.3</ele>
        <time>2019-08-15T14:23:19Z</time>
      </trkpt>
      <trkpt lat="42.0022300" lon="-5.8062540">
        <ele>711.3</ele>
        <time>2019-08-15T14:23:20Z</time>
      </trkpt>
      <trkpt lat="42.0022410" lon="-5.8063250">
        <ele>711.2</ele>
        <time>2019-08-15T14:23:21Z</time>
      </trkpt>
      <trkpt lat="42.0022550" lon="-5.8063930">
        <ele>711.2</ele>
        <time>2019-08-15T14:23:22Z</time>
      </trkpt>
      <trkpt lat="42.0022700" lon="-5.8064610">
        <ele>711.1</ele>
        <time>2019-08-15T14:23:23Z</time>
      </trkpt>
      <trkpt lat="42.0022840" lon="-5.8065290">
        <ele>711.1</ele>
        <time>2019-08-15T14:23:24Z</time>
      </trkpt>
      <trkpt lat="42.0022980" lon="-5.8065970">
        <ele>711.0</ele>
        <time>2019-08-15T14:23:25Z</time>
      </trkpt>
      <trkpt lat="42.0023130" lon="-5.8066650">
        <ele>711.0</ele>
        <time>2019-08-15T14:23:26Z</time>
      </trkpt>
      <trkpt lat="42.0023300" lon="-5.8067330">
        <ele>710.9</ele>
        <time>2019-08-15T14:23:27Z</time>
      </trkpt>
      <trkpt lat="42.0023450" lon="-5.8068020">
        <ele>710.8</ele>
        <time>2019-08-15T14:23:28Z</time>
      </trkpt>
      <trkpt lat="42.0023580" lon="-5.8068720">
        <ele>710.8</ele>
        <time>2019-08-15T14:23:29Z</time>
      </trkpt>
      <trkpt lat="42.0023710" lon="-5.8069430">
        <ele>710.7</ele>
        <time>2019-08-15T14:23:30Z</time>
      </trkpt>
      <trkpt lat="42.0023840" lon="-5.8070160">
        <ele>710.6</ele>
        <time>2019-08-15T14:23:31Z</time>
      </trkpt>
      <trkpt lat="42.0023970" lon="-5.8070880">
        <ele>710.6</ele>
        <time>2019-08-15T14:23:32Z</time>
      </trkpt>
      <trkpt lat="42.0024090" lon="-5.8071600">
        <ele>710.5</ele>
        <time>2019-08-15T14:23:33Z</time>
      </trkpt>
      <trkpt lat="42.0024230" lon="-5.8072330">
        <ele>710.4</ele>
        <time>2019-08-15T14:23:34Z</time>
      </trkpt>
      <trkpt lat="42.0024370" lon="-5.8073050">
        <ele>710.3</ele>
        <time>2019-08-15T14:23:35Z</time>
      </trkpt>
      <trkpt lat="42.0024510" lon="-5.8073760">
        <ele>710.2</ele>
        <time>2019-08-15T14:23:36Z</time>
      </trkpt>
      <trkpt lat="42.0024680" lon="-5.8074450">
        <ele>710.2</ele>
        <time>2019-08-15T14:23:37Z</time>
      </trkpt>
      <trkpt lat="42.0024820" lon="-5.8075140">
        <ele>710.1</ele>
        <time>2019-08-15T14:23:38Z</time>
      </trkpt>
      <trkpt lat="42.0024960" lon="-5.8075840">
        <ele>710.1</ele>
        <time>2019-08-15T14:23:39Z</time>
      </trkpt>
      <trkpt lat="42.0025100" lon="-5.8076540">
        <ele>710.0</ele>
        <time>2019-08-15T14:23:40Z</time>
      </trkpt>
      <trkpt lat="42.0025240" lon="-5.8077260">
        <ele>710.0</ele>
        <time>2019-08-15T14:23:41Z</time>
      </trkpt>
      <trkpt lat="42.0025400" lon="-5.8077980">
        <ele>710.0</ele>
        <time>2019-08-15T14:23:42Z</time>
      </trkpt>
      <trkpt lat="42.0025550" lon="-5.8078680">
        <ele>710.0</ele>
        <time>2019-08-15T14:23:43Z</time>
      </trkpt>
      <trkpt lat="42.0025670" lon="-5.8079400">
        <ele>710.0</ele>
        <time>2019-08-15T14:23:44Z</time>
      </trkpt>
      <trkpt lat="42.0025800" lon="-5.8080090">
        <ele>710.0</ele>
        <time>2019-08-15T14:23:45Z</time>
      </trkpt>
      <trkpt lat="42.0025940" lon="-5.8080760">
        <ele>710.0</ele>
        <time>2019-08-15T14:23:46Z</time>
      </trkpt>
      <trkpt lat="42.0026080" lon="-5.8081450">
        <ele>710.0</ele>
        <time>2019-08-15T14:23:47Z</time>
      </trkpt>
      <trkpt lat="42.0026220" lon="-5.8082140">
        <ele>710.1</ele>
        <time>2019-08-15T14:23:48Z</time>
      </trkpt>
      <trkpt lat="42.0026370" lon="-5.8082830">
        <ele>710.0</ele>
        <time>2019-08-15T14:23:49Z</time>
      </trkpt>
      <trkpt lat="42.0026530" lon="-5.8083530">
        <ele>710.0</ele>
        <time>2019-08-15T14:23:50Z</time>
      </trkpt>
      <trkpt lat="42.0026690" lon="-5.8084230">
        <ele>710.0</ele>
        <time>2019-08-15T14:23:51Z</time>
      </trkpt>
      <trkpt lat="42.0026870" lon="-5.8084920">
        <ele>710.0</ele>
        <time>2019-08-15T14:23:52Z</time>
      </trkpt>
      <trkpt lat="42.0027040" lon="-5.8085630">
        <ele>710.0</ele>
        <time>2019-08-15T14:23:53Z</time>
      </trkpt>
      <trkpt lat="42.0027190" lon="-5.8086350">
        <ele>710.0</ele>
        <time>2019-08-15T14:23:54Z</time>
      </trkpt>
      <trkpt lat="42.0027330" lon="-5.8087070">
        <ele>710.0</ele>
        <time>2019-08-15T14:23:55Z</time>
      </trkpt>
      <trkpt lat="42.0027490" lon="-5.8087800">
        <ele>710.0</ele>
        <time>2019-08-15T14:23:56Z</time>
      </trkpt>
      <trkpt lat="42.0027650" lon="-5.8088530">
        <ele>710.0</ele>
        <time>2019-08-15T14:23:57Z</time>
      </trkpt>
      <trkpt lat="42.0027800" lon="-5.8089270">
        <ele>710.0</ele>
        <time>2019-08-15T14:23:58Z</time>
      </trkpt>
      <trkpt lat="42.0027960" lon="-5.8090020">
        <ele>710.0</ele>
        <time>2019-08-15T14:23:59Z</time>
      </trkpt>
      <trkpt lat="42.0028120" lon="-5.8090750">
        <ele>710.0</ele>
        <time>2019-08-15T14:24:00Z</time>
      </trkpt>
      <trkpt lat="42.0028260" lon="-5.8091500">
        <ele>710.1</ele>
        <time>2019-08-15T14:24:01Z</time>
      </trkpt>
      <trkpt lat="42.0028400" lon="-5.8092230">
        <ele>710.2</ele>
        <time>2019-08-15T14:24:02Z</time>
      </trkpt>
      <trkpt lat="42.0028530" lon="-5.8092960">
        <ele>710.3</ele>
        <time>2019-08-15T14:24:03Z</time>
      </trkpt>
      <trkpt lat="42.0028650" lon="-5.8093710">
        <ele>710.4</ele>
        <time>2019-08-15T14:24:04Z</time>
      </trkpt>
      <trkpt lat="42.0028750" lon="-5.8094390">
        <ele>710.4</ele>
        <time>2019-08-15T14:24:05Z</time>
      </trkpt>
      <trkpt lat="42.0028870" lon="-5.8095080">
        <ele>710.5</ele>
        <time>2019-08-15T14:24:06Z</time>
      </trkpt>
      <trkpt lat="42.0029000" lon="-5.8095760">
        <ele>710.5</ele>
        <time>2019-08-15T14:24:07Z</time>
      </trkpt>
      <trkpt lat="42.0029100" lon="-5.8096440">
        <ele>710.6</ele>
        <time>2019-08-15T14:24:08Z</time>
      </trkpt>
      <trkpt lat="42.0029200" lon="-5.8097110">
        <ele>710.7</ele>
        <time>2019-08-15T14:24:09Z</time>
      </trkpt>
      <trkpt lat="42.0029300" lon="-5.8097730">
        <ele>710.7</ele>
        <time>2019-08-15T14:24:10Z</time>
      </trkpt>
      <trkpt lat="42.0029360" lon="-5.8098330">
        <ele>710.8</ele>
        <time>2019-08-15T14:24:11Z</time>
      </trkpt>
      <trkpt lat="42.0029450" lon="-5.8098840">
        <ele>710.8</ele>
        <time>2019-08-15T14:24:12Z</time>
      </trkpt>
      <trkpt lat="42.0029580" lon="-5.8099400">
        <ele>710.7</ele>
        <time>2019-08-15T14:24:13Z</time>
      </trkpt>
      <trkpt lat="42.0029690" lon="-5.8099990">
        <ele>710.7</ele>
        <time>2019-08-15T14:24:14Z</time>
      </trkpt>
      <trkpt lat="42.0029910" lon="-5.8100590">
        <ele>710.6</ele>
        <time>2019-08-15T14:24:15Z</time>
      </trkpt>
      <trkpt lat="42.0030100" lon="-5.8101200">
        <ele>710.6</ele>
        <time>2019-08-15T14:24:16Z</time>
      </trkpt>
      <trkpt lat="42.0030250" lon="-5.8101810">
        <ele>710.6</ele>
        <time>2019-08-15T14:24:17Z</time>
      </trkpt>
      <trkpt lat="42.0030400" lon="-5.8102450">
        <ele>710.6</ele>
        <time>2019-08-15T14:24:18Z</time>
      </trkpt>
      <trkpt lat="42.0030520" lon="-5.8103080">
        <ele>710.6</ele>
        <time>2019-08-15T14:24:19Z</time>
      </trkpt>
      <trkpt lat="42.0030660" lon="-5.8103710">
        <ele>710.5</ele>
        <time>2019-08-15T14:24:20Z</time>
      </trkpt>
      <trkpt lat="42.0030810" lon="-5.8104350">
        <ele>710.5</ele>
        <time>2019-08-15T14:24:21Z</time>
      </trkpt>
      <trkpt lat="42.0030950" lon="-5.8105010">
        <ele>710.5</ele>
        <time>2019-08-15T14:24:22Z</time>
      </trkpt>
      <trkpt lat="42.0031100" lon="-5.8105690">
        <ele>710.5</ele>
        <time>2019-08-15T14:24:23Z</time>
      </trkpt>
      <trkpt lat="42.0031240" lon="-5.8106350">
        <ele>710.5</ele>
        <time>2019-08-15T14:24:24Z</time>
      </trkpt>
      <trkpt lat="42.0031360" lon="-5.8107010">
        <ele>710.5</ele>
        <time>2019-08-15T14:24:25Z</time>
      </trkpt>
      <trkpt lat="42.0031510" lon="-5.8107670">
        <ele>710.6</ele>
        <time>2019-08-15T14:24:26Z</time>
      </trkpt>
      <trkpt lat="42.0031650" lon="-5.8108340">
        <ele>710.6</ele>
        <time>2019-08-15T14:24:27Z</time>
      </trkpt>
      <trkpt lat="42.0031780" lon="-5.8109010">
        <ele>710.6</ele>
        <time>2019-08-15T14:24:28Z</time>
      </trkpt>
      <trkpt lat="42.0031920" lon="-5.8109720">
        <ele>710.6</ele>
        <time>2019-08-15T14:24:29Z</time>
      </trkpt>
      <trkpt lat="42.0032080" lon="-5.8110400">
        <ele>710.6</ele>
        <time>2019-08-15T14:24:30Z</time>
      </trkpt>
      <trkpt lat="42.0032230" lon="-5.8111080">
        <ele>710.6</ele>
        <time>2019-08-15T14:24:31Z</time>
      </trkpt>
      <trkpt lat="42.0032370" lon="-5.8111780">
        <ele>710.6</ele>
        <time>2019-08-15T14:24:32Z</time>
      </trkpt>
      <trkpt lat="42.0032500" lon="-5.8112500">
        <ele>710.6</ele>
        <time>2019-08-15T14:24:33Z</time>
      </trkpt>
      <trkpt lat="42.0032590" lon="-5.8113200">
        <ele>710.6</ele>
        <time>2019-08-15T14:24:34Z</time>
      </trkpt>
      <trkpt lat="42.0032700" lon="-5.8113910">
        <ele>710.6</ele>
        <time>2019-08-15T14:24:35Z</time>
      </trkpt>
      <trkpt lat="42.0032820" lon="-5.8114620">
        <ele>710.5</ele>
        <time>2019-08-15T14:24:36Z</time>
      </trkpt>
      <trkpt lat="42.0032930" lon="-5.8115320">
        <ele>710.5</ele>
        <time>2019-08-15T14:24:37Z</time>
      </trkpt>
      <trkpt lat="42.0033050" lon="-5.8116040">
        <ele>710.5</ele>
        <time>2019-08-15T14:24:38Z</time>
      </trkpt>
      <trkpt lat="42.0033170" lon="-5.8116760">
        <ele>710.5</ele>
        <time>2019-08-15T14:24:39Z</time>
      </trkpt>
      <trkpt lat="42.0033290" lon="-5.8117470">
        <ele>710.5</ele>
        <time>2019-08-15T14:24:40Z</time>
      </trkpt>
      <trkpt lat="42.0033400" lon="-5.8118170">
        <ele>710.5</ele>
        <time>2019-08-15T14:24:41Z</time>
      </trkpt>
      <trkpt lat="42.0033510" lon="-5.8118860">
        <ele>710.5</ele>
        <time>2019-08-15T14:24:42Z</time>
      </trkpt>
      <trkpt lat="42.0033640" lon="-5.8119560">
        <ele>710.4</ele>
        <time>2019-08-15T14:24:43Z</time>
      </trkpt>
      <trkpt lat="42.0033790" lon="-5.8120270">
        <ele>710.5</ele>
        <time>2019-08-15T14:24:44Z</time>
      </trkpt>
      <trkpt lat="42.0033940" lon="-5.8120980">
        <ele>710.5</ele>
        <time>2019-08-15T14:24:45Z</time>
      </trkpt>
      <trkpt lat="42.0034100" lon="-5.8121710">
        <ele>710.6</ele>
        <time>2019-08-15T14:24:46Z</time>
      </trkpt>
      <trkpt lat="42.0034250" lon="-5.8122450">
        <ele>710.6</ele>
        <time>2019-08-15T14:24:47Z</time>
      </trkpt>
      <trkpt lat="42.0034410" lon="-5.8123200">
        <ele>710.5</ele>
        <time>2019-08-15T14:24:48Z</time>
      </trkpt>
      <trkpt lat="42.0034560" lon="-5.8123940">
        <ele>710.5</ele>
        <time>2019-08-15T14:24:49Z</time>
      </trkpt>
      <trkpt lat="42.0034720" lon="-5.8124690">
        <ele>710.5</ele>
        <time>2019-08-15T14:24:50Z</time>
      </trkpt>
      <trkpt lat="42.0034850" lon="-5.8125420">
        <ele>710.4</ele>
        <time>2019-08-15T14:24:51Z</time>
      </trkpt>
      <trkpt lat="42.0035000" lon="-5.8126160">
        <ele>710.3</ele>
        <time>2019-08-15T14:24:52Z</time>
      </trkpt>
      <trkpt lat="42.0035160" lon="-5.8126890">
        <ele>710.2</ele>
        <time>2019-08-15T14:24:53Z</time>
      </trkpt>
      <trkpt lat="42.0035310" lon="-5.8127620">
        <ele>710.1</ele>
        <time>2019-08-15T14:24:54Z</time>
      </trkpt>
      <trkpt lat="42.0035460" lon="-5.8128340">
        <ele>710.0</ele>
        <time>2019-08-15T14:24:55Z</time>
      </trkpt>
      <trkpt lat="42.0035590" lon="-5.8129050">
        <ele>709.9</ele>
        <time>2019-08-15T14:24:56Z</time>
      </trkpt>
      <trkpt lat="42.0035720" lon="-5.8129770">
        <ele>709.8</ele>
        <time>2019-08-15T14:24:57Z</time>
      </trkpt>
      <trkpt lat="42.0035850" lon="-5.8130490">
        <ele>709.7</ele>
        <time>2019-08-15T14:24:58Z</time>
      </trkpt>
      <trkpt lat="42.0035980" lon="-5.8131220">
        <ele>709.5</ele>
        <time>2019-08-15T14:24:59Z</time>
      </trkpt>
      <trkpt lat="42.0036120" lon="-5.8131940">
        <ele>709.5</ele>
        <time>2019-08-15T14:25:00Z</time>
      </trkpt>
      <trkpt lat="42.0036250" lon="-5.8132650">
        <ele>709.4</ele>
        <time>2019-08-15T14:25:01Z</time>
      </trkpt>
      <trkpt lat="42.0036380" lon="-5.8133370">
        <ele>709.3</ele>
        <time>2019-08-15T14:25:02Z</time>
      </trkpt>
      <trkpt lat="42.0036510" lon="-5.8134090">
        <ele>709.2</ele>
        <time>2019-08-15T14:25:03Z</time>
      </trkpt>
      <trkpt lat="42.0036640" lon="-5.8134820">
        <ele>709.2</ele>
        <time>2019-08-15T14:25:04Z</time>
      </trkpt>
      <trkpt lat="42.0036800" lon="-5.8135550">
        <ele>709.1</ele>
        <time>2019-08-15T14:25:05Z</time>
      </trkpt>
      <trkpt lat="42.0036940" lon="-5.8136280">
        <ele>709.1</ele>
        <time>2019-08-15T14:25:06Z</time>
      </trkpt>
      <trkpt lat="42.0037110" lon="-5.8137010">
        <ele>709.0</ele>
        <time>2019-08-15T14:25:07Z</time>
      </trkpt>
      <trkpt lat="42.0037290" lon="-5.8137710">
        <ele>709.0</ele>
        <time>2019-08-15T14:25:08Z</time>
      </trkpt>
      <trkpt lat="42.0037480" lon="-5.8138360">
        <ele>708.9</ele>
        <time>2019-08-15T14:25:09Z</time>
      </trkpt>
      <trkpt lat="42.0037650" lon="-5.8139040">
        <ele>708.9</ele>
        <time>2019-08-15T14:25:10Z</time>
      </trkpt>
      <trkpt lat="42.0037790" lon="-5.8139760">
        <ele>708.8</ele>
        <time>2019-08-15T14:25:11Z</time>
      </trkpt>
      <trkpt lat="42.0037930" lon="-5.8140450">
        <ele>708.8</ele>
        <time>2019-08-15T14:25:12Z</time>
      </trkpt>
      <trkpt lat="42.0038040" lon="-5.8141150">
        <ele>708.8</ele>
        <time>2019-08-15T14:25:13Z</time>
      </trkpt>
      <trkpt lat="42.0038170" lon="-5.8141840">
        <ele>708.7</ele>
        <time>2019-08-15T14:25:14Z</time>
      </trkpt>
      <trkpt lat="42.0038310" lon="-5.8142530">
        <ele>708.7</ele>
        <time>2019-08-15T14:25:15Z</time>
      </trkpt>
      <trkpt lat="42.0038440" lon="-5.8143180">
        <ele>708.7</ele>
        <time>2019-08-15T14:25:16Z</time>
      </trkpt>
      <trkpt lat="42.0038530" lon="-5.8143910">
        <ele>708.6</ele>
        <time>2019-08-15T14:25:17Z</time>
      </trkpt>
      <trkpt lat="42.0038640" lon="-5.8144610">
        <ele>708.6</ele>
        <time>2019-08-15T14:25:18Z</time>
      </trkpt>
      <trkpt lat="42.0038740" lon="-5.8145310">
        <ele>708.5</ele>
        <time>2019-08-15T14:25:19Z</time>
      </trkpt>
      <trkpt lat="42.0038860" lon="-5.8146020">
        <ele>708.5</ele>
        <time>2019-08-15T14:25:20Z</time>
      </trkpt>
      <trkpt lat="42.0038990" lon="-5.8146710">
        <ele>708.5</ele>
        <time>2019-08-15T14:25:21Z</time>
      </trkpt>
      <trkpt lat="42.0039140" lon="-5.8147410">
        <ele>708.4</ele>
        <time>2019-08-15T14:25:22Z</time>
      </trkpt>
      <trkpt lat="42.0039260" lon="-5.8148130">
        <ele>708.4</ele>
        <time>2019-08-15T14:25:23Z</time>
      </trkpt>
      <trkpt lat="42.0039370" lon="-5.8148860">
        <ele>708.3</ele>
        <time>2019-08-15T14:25:24Z</time>
      </trkpt>
      <trkpt lat="42.0039480" lon="-5.8149600">
        <ele>708.3</ele>
        <time>2019-08-15T14:25:25Z</time>
      </trkpt>
      <trkpt lat="42.0039600" lon="-5.8150350">
        <ele>708.3</ele>
        <time>2019-08-15T14:25:26Z</time>
      </trkpt>
      <trkpt lat="42.0039730" lon="-5.8151100">
        <ele>708.3</ele>
        <time>2019-08-15T14:25:27Z</time>
      </trkpt>
      <trkpt lat="42.0039850" lon="-5.8151850">
        <ele>708.3</ele>
        <time>2019-08-15T14:25:28Z</time>
      </trkpt>
      <trkpt lat="42.0039970" lon="-5.8152610">
        <ele>708.2</ele>
        <time>2019-08-15T14:25:29Z</time>
      </trkpt>
      <trkpt lat="42.0040070" lon="-5.8153370">
        <ele>708.2</ele>
        <time>2019-08-15T14:25:30Z</time>
      </trkpt>
      <trkpt lat="42.0040170" lon="-5.8154120">
        <ele>708.3</ele>
        <time>2019-08-15T14:25:31Z</time>
      </trkpt>
      <trkpt lat="42.0040270" lon="-5.8154850">
        <ele>708.3</ele>
        <time>2019-08-15T14:25:32Z</time>
      </trkpt>
      <trkpt lat="42.0040370" lon="-5.8155550">
        <ele>708.3</ele>
        <time>2019-08-15T14:25:33Z</time>
      </trkpt>
      <trkpt lat="42.0040470" lon="-5.8156250">
        <ele>708.3</ele>
        <time>2019-08-15T14:25:34Z</time>
      </trkpt>
      <trkpt lat="42.0040560" lon="-5.8156920">
        <ele>708.4</ele>
        <time>2019-08-15T14:25:35Z</time>
      </trkpt>
      <trkpt lat="42.0040660" lon="-5.8157580">
        <ele>708.5</ele>
        <time>2019-08-15T14:25:36Z</time>
      </trkpt>
      <trkpt lat="42.0040750" lon="-5.8158240">
        <ele>708.5</ele>
        <time>2019-08-15T14:25:37Z</time>
      </trkpt>
      <trkpt lat="42.0040840" lon="-5.8158890">
        <ele>708.6</ele>
        <time>2019-08-15T14:25:38Z</time>
      </trkpt>
      <trkpt lat="42.0040900" lon="-5.8159520">
        <ele>708.6</ele>
        <time>2019-08-15T14:25:39Z</time>
      </trkpt>
      <trkpt lat="42.0040940" lon="-5.8160040">
        <ele>708.7</ele>
        <time>2019-08-15T14:25:40Z</time>
      </trkpt>
      <trkpt lat="42.0040900" lon="-5.8160430">
        <ele>708.7</ele>
        <time>2019-08-15T14:25:41Z</time>
      </trkpt>
      <trkpt lat="42.0040730" lon="-5.8160700">
        <ele>708.7</ele>
        <time>2019-08-15T14:25:42Z</time>
      </trkpt>
      <trkpt lat="42.0040200" lon="-5.8160900">
        <ele>708.8</ele>
        <time>2019-08-15T14:25:44Z</time>
      </trkpt>
      <trkpt lat="42.0039870" lon="-5.8160900">
        <ele>708.7</ele>
        <time>2019-08-15T14:25:45Z</time>
      </trkpt>
      <trkpt lat="42.0039520" lon="-5.8160900">
        <ele>708.6</ele>
        <time>2019-08-15T14:25:46Z</time>
      </trkpt>
      <trkpt lat="42.0039200" lon="-5.8160900">
        <ele>708.6</ele>
        <time>2019-08-15T14:25:47Z</time>
      </trkpt>
      <trkpt lat="42.0038950" lon="-5.8160890">
        <ele>708.6</ele>
        <time>2019-08-15T14:25:48Z</time>
      </trkpt>
      <trkpt lat="42.0038780" lon="-5.8160860">
        <ele>708.6</ele>
        <time>2019-08-15T14:25:50Z</time>
      </trkpt>
      <trkpt lat="42.0039460" lon="-5.8160260">
        <ele>708.7</ele>
        <time>2019-08-15T14:28:14Z</time>
      </trkpt>
      <trkpt lat="42.0039720" lon="-5.8160540">
        <ele>708.7</ele>
        <time>2019-08-15T14:28:16Z</time>
      </trkpt>
      <trkpt lat="42.0040040" lon="-5.8160870">
        <ele>708.8</ele>
        <time>2019-08-15T14:28:18Z</time>
      </trkpt>
      <trkpt lat="42.0040410" lon="-5.8161140">
        <ele>708.8</ele>
        <time>2019-08-15T14:28:20Z</time>
      </trkpt>
      <trkpt lat="42.0040760" lon="-5.8161370">
        <ele>708.8</ele>
        <time>2019-08-15T14:28:22Z</time>
      </trkpt>
      <trkpt lat="42.0041100" lon="-5.8161740">
        <ele>708.8</ele>
        <time>2019-08-15T14:28:24Z</time>
      </trkpt>
      <trkpt lat="42.0041400" lon="-5.8162380">
        <ele>708.7</ele>
        <time>2019-08-15T14:28:26Z</time>
      </trkpt>
      <trkpt lat="42.0041520" lon="-5.8162780">
        <ele>708.7</ele>
        <time>2019-08-15T14:28:27Z</time>
      </trkpt>
      <trkpt lat="42.0041620" lon="-5.8163200">
        <ele>708.7</ele>
        <time>2019-08-15T14:28:28Z</time>
      </trkpt>
      <trkpt lat="42.0041700" lon="-5.8163660">
        <ele>708.6</ele>
        <time>2019-08-15T14:28:29Z</time>
      </trkpt>
      <trkpt lat="42.0041760" lon="-5.8164150">
        <ele>708.6</ele>
        <time>2019-08-15T14:28:30Z</time>
      </trkpt>
      <trkpt lat="42.0041810" lon="-5.8164660">
        <ele>708.6</ele>
        <time>2019-08-15T14:28:31Z</time>
      </trkpt>
      <trkpt lat="42.0041870" lon="-5.8165180">
        <ele>708.5</ele>
        <time>2019-08-15T14:28:32Z</time>
      </trkpt>
      <trkpt lat="42.0041920" lon="-5.8165720">
        <ele>708.5</ele>
        <time>2019-08-15T14:28:33Z</time>
      </trkpt>
      <trkpt lat="42.0041970" lon="-5.8166270">
        <ele>708.4</ele>
        <time>2019-08-15T14:28:34Z</time>
      </trkpt>
      <trkpt lat="42.0042010" lon="-5.8166830">
        <ele>708.4</ele>
        <time>2019-08-15T14:28:35Z</time>
      </trkpt>
      <trkpt lat="42.0042050" lon="-5.8167410">
        <ele>708.3</ele>
        <time>2019-08-15T14:28:36Z</time>
      </trkpt>
      <trkpt lat="42.0042100" lon="-5.8168000">
        <ele>708.3</ele>
        <time>2019-08-15T14:28:37Z</time>
      </trkpt>
      <trkpt lat="42.0042160" lon="-5.8168590">
        <ele>708.2</ele>
        <time>2019-08-15T14:28:38Z</time>
      </trkpt>
      <trkpt lat="42.0042220" lon="-5.8169200">
        <ele>708.2</ele>
        <time>2019-08-15T14:28:39Z</time>
      </trkpt>
      <trkpt lat="42.0042280" lon="-5.8169830">
        <ele>708.1</ele>
        <time>2019-08-15T14:28:40Z</time>
      </trkpt>
      <trkpt lat="42.0042330" lon="-5.8170470">
        <ele>708.1</ele>
        <time>2019-08-15T14:28:41Z</time>
      </trkpt>
      <trkpt lat="42.0042370" lon="-5.8171140">
        <ele>708.1</ele>
        <time>2019-08-15T14:28:42Z</time>
      </trkpt>
      <trkpt lat="42.0042420" lon="-5.8171820">
        <ele>708.0</ele>
        <time>2019-08-15T14:28:43Z</time>
      </trkpt>
      <trkpt lat="42.0042470" lon="-5.8172500">
        <ele>708.0</ele>
        <time>2019-08-15T14:28:44Z</time>
      </trkpt>
      <trkpt lat="42.0042520" lon="-5.8173180">
        <ele>708.0</ele>
        <time>2019-08-15T14:28:45Z</time>
      </trkpt>
      <trkpt lat="42.0042560" lon="-5.8173870">
        <ele>708.0</ele>
        <time>2019-08-15T14:28:46Z</time>
      </trkpt>
      <trkpt lat="42.0042610" lon="-5.8174560">
        <ele>708.0</ele>
        <time>2019-08-15T14:28:47Z</time>
      </trkpt>
      <trkpt lat="42.0042660" lon="-5.8175260">
        <ele>708.0</ele>
        <time>2019-08-15T14:28:48Z</time>
      </trkpt>
      <trkpt lat="42.0042710" lon="-5.8175950">
        <ele>708.1</ele>
        <time>2019-08-15T14:28:49Z</time>
      </trkpt>
      <trkpt lat="42.0042730" lon="-5.8176650">
        <ele>708.1</ele>
        <time>2019-08-15T14:28:50Z</time>
      </trkpt>
      <trkpt lat="42.0042780" lon="-5.8177320">
        <ele>708.1</ele>
        <time>2019-08-15T14:28:51Z</time>
      </trkpt>
      <trkpt lat="42.0042810" lon="-5.8178000">
        <ele>708.1</ele>
        <time>2019-08-15T14:28:52Z</time>
      </trkpt>
      <trkpt lat="42.0042840" lon="-5.8178690">
        <ele>708.2</ele>
        <time>2019-08-15T14:28:53Z</time>
      </trkpt>
      <trkpt lat="42.0042870" lon="-5.8179420">
        <ele>708.2</ele>
        <time>2019-08-15T14:28:54Z</time>
      </trkpt>
      <trkpt lat="42.0042910" lon="-5.8180160">
        <ele>708.3</ele>
        <time>2019-08-15T14:28:55Z</time>
      </trkpt>
      <trkpt lat="42.0042950" lon="-5.8180910">
        <ele>708.3</ele>
        <time>2019-08-15T14:28:56Z</time>
      </trkpt>
      <trkpt lat="42.0043000" lon="-5.8181650">
        <ele>708.3</ele>
        <time>2019-08-15T14:28:57Z</time>
      </trkpt>
      <trkpt lat="42.0043030" lon="-5.8182380">
        <ele>708.3</ele>
        <time>2019-08-15T14:28:58Z</time>
      </trkpt>
      <trkpt lat="42.0043060" lon="-5.8183090">
        <ele>708.4</ele>
        <time>2019-08-15T14:28:59Z</time>
      </trkpt>
      <trkpt lat="42.0043070" lon="-5.8183820">
        <ele>708.3</ele>
        <time>2019-08-15T14:29:00Z</time>
      </trkpt>
      <trkpt lat="42.0043100" lon="-5.8184570">
        <ele>708.3</ele>
        <time>2019-08-15T14:29:01Z</time>
      </trkpt>
      <trkpt lat="42.0043120" lon="-5.8185320">
        <ele>708.3</ele>
        <time>2019-08-15T14:29:02Z</time>
      </trkpt>
      <trkpt lat="42.0043140" lon="-5.8186050">
        <ele>708.3</ele>
        <time>2019-08-15T14:29:03Z</time>
      </trkpt>
      <trkpt lat="42.0043150" lon="-5.8186750">
        <ele>708.2</ele>
        <time>2019-08-15T14:29:04Z</time>
      </trkpt>
      <trkpt lat="42.0043170" lon="-5.8187440">
        <ele>708.2</ele>
        <time>2019-08-15T14:29:05Z</time>
      </trkpt>
      <trkpt lat="42.0043190" lon="-5.8188080">
        <ele>708.2</ele>
        <time>2019-08-15T14:29:06Z</time>
      </trkpt>
      <trkpt lat="42.0043200" lon="-5.8188710">
        <ele>708.1</ele>
        <time>2019-08-15T14:29:07Z</time>
      </trkpt>
      <trkpt lat="42.0043220" lon="-5.8189320">
        <ele>708.1</ele>
        <time>2019-08-15T14:29:08Z</time>
      </trkpt>
      <trkpt lat="42.0043230" lon="-5.8189920">
        <ele>708.1</ele>
        <time>2019-08-15T14:29:09Z</time>
      </trkpt>
      <trkpt lat="42.0043250" lon="-5.8190540">
        <ele>708.1</ele>
        <time>2019-08-15T14:29:10Z</time>
      </trkpt>
      <trkpt lat="42.0043270" lon="-5.8191190">
        <ele>708.0</ele>
        <time>2019-08-15T14:29:11Z</time>
      </trkpt>
      <trkpt lat="42.0043300" lon="-5.8191880">
        <ele>708.0</ele>
        <time>2019-08-15T14:29:12Z</time>
      </trkpt>
      <trkpt lat="42.0043340" lon="-5.8192570">
        <ele>708.0</ele>
        <time>2019-08-15T14:29:13Z</time>
      </trkpt>
      <trkpt lat="42.0043370" lon="-5.8193280">
        <ele>708.0</ele>
        <time>2019-08-15T14:29:14Z</time>
      </trkpt>
      <trkpt lat="42.0043390" lon="-5.8194010">
        <ele>708.0</ele>
        <time>2019-08-15T14:29:15Z</time>
      </trkpt>
      <trkpt lat="42.0043420" lon="-5.8194730">
        <ele>707.9</ele>
        <time>2019-08-15T14:29:16Z</time>
      </trkpt>
      <trkpt lat="42.0043450" lon="-5.8195450">
        <ele>707.9</ele>
        <time>2019-08-15T14:29:17Z</time>
      </trkpt>
      <trkpt lat="42.0043480" lon="-5.8196190">
        <ele>707.9</ele>
        <time>2019-08-15T14:29:18Z</time>
      </trkpt>
      <trkpt lat="42.0043500" lon="-5.8196930">
        <ele>707.9</ele>
        <time>2019-08-15T14:29:19Z</time>
      </trkpt>
      <trkpt lat="42.0043540" lon="-5.8197670">
        <ele>707.9</ele>
        <time>2019-08-15T14:29:20Z</time>
      </trkpt>
      <trkpt lat="42.0043590" lon="-5.8198420">
        <ele>707.9</ele>
        <time>2019-08-15T14:29:21Z</time>
      </trkpt>
      <trkpt lat="42.0043620" lon="-5.8199170">
        <ele>707.9</ele>
        <time>2019-08-15T14:29:22Z</time>
      </trkpt>
      <trkpt lat="42.0043650" lon="-5.8199920">
        <ele>707.9</ele>
        <time>2019-08-15T14:29:23Z</time>
      </trkpt>
      <trkpt lat="42.0043670" lon="-5.8200650">
        <ele>707.8</ele>
        <time>2019-08-15T14:29:24Z</time>
      </trkpt>
      <trkpt lat="42.0043690" lon="-5.8201390">
        <ele>707.8</ele>
        <time>2019-08-15T14:29:25Z</time>
      </trkpt>
      <trkpt lat="42.0043710" lon="-5.8202130">
        <ele>707.7</ele>
        <time>2019-08-15T14:29:26Z</time>
      </trkpt>
      <trkpt lat="42.0043740" lon="-5.8202830">
        <ele>707.7</ele>
        <time>2019-08-15T14:29:27Z</time>
      </trkpt>
      <trkpt lat="42.0043770" lon="-5.8203520">
        <ele>707.6</ele>
        <time>2019-08-15T14:29:28Z</time>
      </trkpt>
      <trkpt lat="42.0043780" lon="-5.8204240">
        <ele>707.5</ele>
        <time>2019-08-15T14:29:29Z</time>
      </trkpt>
      <trkpt lat="42.0043800" lon="-5.8204960">
        <ele>707.3</ele>
        <time>2019-08-15T14:29:30Z</time>
      </trkpt>
      <trkpt lat="42.0043820" lon="-5.8205680">
        <ele>707.2</ele>
        <time>2019-08-15T14:29:31Z</time>
      </trkpt>
      <trkpt lat="42.0043850" lon="-5.8206400">
        <ele>707.0</ele>
        <time>2019-08-15T14:29:32Z</time>
      </trkpt>
      <trkpt lat="42.0043880" lon="-5.8207130">
        <ele>706.9</ele>
        <time>2019-08-15T14:29:33Z</time>
      </trkpt>
      <trkpt lat="42.0043920" lon="-5.8207860">
        <ele>706.7</ele>
        <time>2019-08-15T14:29:34Z</time>
      </trkpt>
      <trkpt lat="42.0043960" lon="-5.8208580">
        <ele>706.6</ele>
        <time>2019-08-15T14:29:35Z</time>
      </trkpt>
      <trkpt lat="42.0043990" lon="-5.8209310">
        <ele>706.4</ele>
        <time>2019-08-15T14:29:36Z</time>
      </trkpt>
      <trkpt lat="42.0044020" lon="-5.8210040">
        <ele>706.3</ele>
        <time>2019-08-15T14:29:37Z</time>
      </trkpt>
      <trkpt lat="42.0044070" lon="-5.8210760">
        <ele>706.2</ele>
        <time>2019-08-15T14:29:38Z</time>
      </trkpt>
      <trkpt lat="42.0044110" lon="-5.8211480">
        <ele>706.1</ele>
        <time>2019-08-15T14:29:39Z</time>
      </trkpt>
      <trkpt lat="42.0044140" lon="-5.8212210">
        <ele>706.0</ele>
        <time>2019-08-15T14:29:40Z</time>
      </trkpt>
      <trkpt lat="42.0044170" lon="-5.8212940">
        <ele>705.9</ele>
        <time>2019-08-15T14:29:41Z</time>
      </trkpt>
      <trkpt lat="42.0044200" lon="-5.8213670">
        <ele>705.9</ele>
        <time>2019-08-15T14:29:42Z</time>
      </trkpt>
      <trkpt lat="42.0044220" lon="-5.8214380">
        <ele>705.8</ele>
        <time>2019-08-15T14:29:43Z</time>
      </trkpt>
      <trkpt lat="42.0044250" lon="-5.8215080">
        <ele>705.8</ele>
        <time>2019-08-15T14:29:44Z</time>
      </trkpt>
      <trkpt lat="42.0044270" lon="-5.8215800">
        <ele>705.7</ele>
        <time>2019-08-15T14:29:45Z</time>
      </trkpt>
      <trkpt lat="42.0044300" lon="-5.8216530">
        <ele>705.7</ele>
        <time>2019-08-15T14:29:46Z</time>
      </trkpt>
      <trkpt lat="42.0044320" lon="-5.8217280">
        <ele>705.7</ele>
        <time>2019-08-15T14:29:47Z</time>
      </trkpt>
      <trkpt lat="42.0044340" lon="-5.8218020">
        <ele>705.7</ele>
        <time>2019-08-15T14:29:48Z</time>
      </trkpt>
      <trkpt lat="42.0044370" lon="-5.8218770">
        <ele>705.7</ele>
        <time>2019-08-15T14:29:49Z</time>
      </trkpt>
      <trkpt lat="42.0044400" lon="-5.8219540">
        <ele>705.8</ele>
        <time>2019-08-15T14:29:50Z</time>
      </trkpt>
      <trkpt lat="42.0044420" lon="-5.8220300">
        <ele>705.9</ele>
        <time>2019-08-15T14:29:51Z</time>
      </trkpt>
      <trkpt lat="42.0044440" lon="-5.8221060">
        <ele>706.0</ele>
        <time>2019-08-15T14:29:52Z</time>
      </trkpt>
      <trkpt lat="42.0044470" lon="-5.8221830">
        <ele>706.1</ele>
        <time>2019-08-15T14:29:53Z</time>
      </trkpt>
      <trkpt lat="42.0044520" lon="-5.8222590">
        <ele>706.3</ele>
        <time>2019-08-15T14:29:54Z</time>
      </trkpt>
      <trkpt lat="42.0044560" lon="-5.8223330">
        <ele>706.4</ele>
        <time>2019-08-15T14:29:55Z</time>
      </trkpt>
      <trkpt lat="42.0044590" lon="-5.8224100">
        <ele>706.6</ele>
        <time>2019-08-15T14:29:56Z</time>
      </trkpt>
      <trkpt lat="42.0044620" lon="-5.8224850">
        <ele>706.7</ele>
        <time>2019-08-15T14:29:57Z</time>
      </trkpt>
      <trkpt lat="42.0044660" lon="-5.8225590">
        <ele>706.8</ele>
        <time>2019-08-15T14:29:58Z</time>
      </trkpt>
      <trkpt lat="42.0044680" lon="-5.8226340">
        <ele>706.9</ele>
        <time>2019-08-15T14:29:59Z</time>
      </trkpt>
      <trkpt lat="42.0044710" lon="-5.8227070">
        <ele>706.9</ele>
        <time>2019-08-15T14:30:00Z</time>
      </trkpt>
      <trkpt lat="42.0044740" lon="-5.8227790">
        <ele>706.9</ele>
        <time>2019-08-15T14:30:01Z</time>
      </trkpt>
      <trkpt lat="42.0044760" lon="-5.8228530">
        <ele>706.9</ele>
        <time>2019-08-15T14:30:02Z</time>
      </trkpt>
      <trkpt lat="42.0044780" lon="-5.8229250">
        <ele>706.9</ele>
        <time>2019-08-15T14:30:03Z</time>
      </trkpt>
      <trkpt lat="42.0044780" lon="-5.8229980">
        <ele>706.9</ele>
        <time>2019-08-15T14:30:04Z</time>
      </trkpt>
      <trkpt lat="42.0044810" lon="-5.8230710">
        <ele>706.8</ele>
        <time>2019-08-15T14:30:05Z</time>
      </trkpt>
      <trkpt lat="42.0044850" lon="-5.8231440">
        <ele>706.8</ele>
        <time>2019-08-15T14:30:06Z</time>
      </trkpt>
      <trkpt lat="42.0044880" lon="-5.8232160">
        <ele>706.8</ele>
        <time>2019-08-15T14:30:07Z</time>
      </trkpt>
      <trkpt lat="42.0044910" lon="-5.8232900">
        <ele>706.8</ele>
        <time>2019-08-15T14:30:08Z</time>
      </trkpt>
      <trkpt lat="42.0044940" lon="-5.8233630">
        <ele>706.8</ele>
        <time>2019-08-15T14:30:09Z</time>
      </trkpt>
      <trkpt lat="42.0044980" lon="-5.8234360">
        <ele>706.8</ele>
        <time>2019-08-15T14:30:10Z</time>
      </trkpt>
      <trkpt lat="42.0045010" lon="-5.8235090">
        <ele>706.8</ele>
        <time>2019-08-15T14:30:11Z</time>
      </trkpt>
      <trkpt lat="42.0045040" lon="-5.8235830">
        <ele>706.9</ele>
        <time>2019-08-15T14:30:12Z</time>
      </trkpt>
      <trkpt lat="42.0045070" lon="-5.8236570">
        <ele>706.9</ele>
        <time>2019-08-15T14:30:13Z</time>
      </trkpt>
      <trkpt lat="42.0045080" lon="-5.8237310">
        <ele>707.0</ele>
        <time>2019-08-15T14:30:14Z</time>
      </trkpt>
      <trkpt lat="42.0045100" lon="-5.8238040">
        <ele>707.1</ele>
        <time>2019-08-15T14:30:15Z</time>
      </trkpt>
      <trkpt lat="42.0045140" lon="-5.8238780">
        <ele>707.2</ele>
        <time>2019-08-15T14:30:16Z</time>
      </trkpt>
      <trkpt lat="42.0045170" lon="-5.8239530">
        <ele>707.3</ele>
        <time>2019-08-15T14:30:17Z</time>
      </trkpt>
      <trkpt lat="42.0045190" lon="-5.8240290">
        <ele>707.4</ele>
        <time>2019-08-15T14:30:18Z</time>
      </trkpt>
      <trkpt lat="42.0045210" lon="-5.8241040">
        <ele>707.6</ele>
        <time>2019-08-15T14:30:19Z</time>
      </trkpt>
      <trkpt lat="42.0045230" lon="-5.8241790">
        <ele>707.7</ele>
        <time>2019-08-15T14:30:20Z</time>
      </trkpt>
      <trkpt lat="42.0045260" lon="-5.8242530">
        <ele>707.9</ele>
        <time>2019-08-15T14:30:21Z</time>
      </trkpt>
      <trkpt lat="42.0045300" lon="-5.8243300">
        <ele>708.0</ele>
        <time>2019-08-15T14:30:22Z</time>
      </trkpt>
      <trkpt lat="42.0045340" lon="-5.8244060">
        <ele>708.2</ele>
        <time>2019-08-15T14:30:23Z</time>
      </trkpt>
      <trkpt lat="42.0045370" lon="-5.8244840">
        <ele>708.3</ele>
        <time>2019-08-15T14:30:24Z</time>
      </trkpt>
      <trkpt lat="42.0045390" lon="-5.8245650">
        <ele>708.5</ele>
        <time>2019-08-15T14:30:25Z</time>
      </trkpt>
      <trkpt lat="42.0045410" lon="-5.8246460">
        <ele>708.7</ele>
        <time>2019-08-15T14:30:26Z</time>
      </trkpt>
      <trkpt lat="42.0045440" lon="-5.8247280">
        <ele>709.0</ele>
        <time>2019-08-15T14:30:27Z</time>
      </trkpt>
      <trkpt lat="42.0045480" lon="-5.8248100">
        <ele>709.2</ele>
        <time>2019-08-15T14:30:28Z</time>
      </trkpt>
      <trkpt lat="42.0045510" lon="-5.8248910">
        <ele>709.4</ele>
        <time>2019-08-15T14:30:29Z</time>
      </trkpt>
      <trkpt lat="42.0045550" lon="-5.8249690">
        <ele>709.6</ele>
        <time>2019-08-15T14:30:30Z</time>
      </trkpt>
      <trkpt lat="42.0045580" lon="-5.8250490">
        <ele>709.8</ele>
        <time>2019-08-15T14:30:31Z</time>
      </trkpt>
      <trkpt lat="42.0045620" lon="-5.8251310">
        <ele>709.9</ele>
        <time>2019-08-15T14:30:32Z</time>
      </trkpt>
      <trkpt lat="42.0045650" lon="-5.8252150">
        <ele>710.1</ele>
        <time>2019-08-15T14:30:33Z</time>
      </trkpt>
      <trkpt lat="42.0045690" lon="-5.8252980">
        <ele>710.2</ele>
        <time>2019-08-15T14:30:34Z</time>
      </trkpt>
      <trkpt lat="42.0045730" lon="-5.8253790">
        <ele>710.3</ele>
        <time>2019-08-15T14:30:35Z</time>
      </trkpt>
      <trkpt lat="42.0045750" lon="-5.8254600">
        <ele>710.4</ele>
        <time>2019-08-15T14:30:36Z</time>
      </trkpt>
      <trkpt lat="42.0045770" lon="-5.8255390">
        <ele>710.5</ele>
        <time>2019-08-15T14:30:37Z</time>
      </trkpt>
      <trkpt lat="42.0045820" lon="-5.8256220">
        <ele>710.6</ele>
        <time>2019-08-15T14:30:38Z</time>
      </trkpt>
      <trkpt lat="42.0045850" lon="-5.8257060">
        <ele>710.7</ele>
        <time>2019-08-15T14:30:39Z</time>
      </trkpt>
      <trkpt lat="42.0045880" lon="-5.8257900">
        <ele>710.8</ele>
        <time>2019-08-15T14:30:40Z</time>
      </trkpt>
      <trkpt lat="42.0045940" lon="-5.8258760">
        <ele>710.9</ele>
        <time>2019-08-15T14:30:41Z</time>
      </trkpt>
      <trkpt lat="42.0045970" lon="-5.8259610">
        <ele>710.9</ele>
        <time>2019-08-15T14:30:42Z</time>
      </trkpt>
      <trkpt lat="42.0046000" lon="-5.8260460">
        <ele>711.0</ele>
        <time>2019-08-15T14:30:43Z</time>
      </trkpt>
      <trkpt lat="42.0046030" lon="-5.8261300">
        <ele>711.1</ele>
        <time>2019-08-15T14:30:44Z</time>
      </trkpt>
      <trkpt lat="42.0046050" lon="-5.8262130">
        <ele>711.1</ele>
        <time>2019-08-15T14:30:45Z</time>
      </trkpt>
      <trkpt lat="42.0046060" lon="-5.8262950">
        <ele>711.2</ele>
        <time>2019-08-15T14:30:46Z</time>
      </trkpt>
      <trkpt lat="42.0046080" lon="-5.8263750">
        <ele>711.2</ele>
        <time>2019-08-15T14:30:47Z</time>
      </trkpt>
      <trkpt lat="42.0046100" lon="-5.8264530">
        <ele>711.3</ele>
        <time>2019-08-15T14:30:48Z</time>
      </trkpt>
      <trkpt lat="42.0046130" lon="-5.8265300">
        <ele>711.3</ele>
        <time>2019-08-15T14:30:49Z</time>
      </trkpt>
      <trkpt lat="42.0046170" lon="-5.8266070">
        <ele>711.3</ele>
        <time>2019-08-15T14:30:50Z</time>
      </trkpt>
      <trkpt lat="42.0046200" lon="-5.8266860">
        <ele>711.4</ele>
        <time>2019-08-15T14:30:51Z</time>
      </trkpt>
      <trkpt lat="42.0046240" lon="-5.8267640">
        <ele>711.4</ele>
        <time>2019-08-15T14:30:52Z</time>
      </trkpt>
      <trkpt lat="42.0046290" lon="-5.8268410">
        <ele>711.4</ele>
        <time>2019-08-15T14:30:53Z</time>
      </trkpt>
      <trkpt lat="42.0046330" lon="-5.8269200">
        <ele>711.4</ele>
        <time>2019-08-15T14:30:54Z</time>
      </trkpt>
      <trkpt lat="42.0046350" lon="-5.8270010">
        <ele>711.4</ele>
        <time>2019-08-15T14:30:55Z</time>
      </trkpt>
      <trkpt lat="42.0046380" lon="-5.8270800">
        <ele>711.3</ele>
        <time>2019-08-15T14:30:56Z</time>
      </trkpt>
      <trkpt lat="42.0046410" lon="-5.8271600">
        <ele>711.3</ele>
        <time>2019-08-15T14:30:57Z</time>
      </trkpt>
      <trkpt lat="42.0046420" lon="-5.8272400">
        <ele>711.3</ele>
        <time>2019-08-15T14:30:58Z</time>
      </trkpt>
      <trkpt lat="42.0046460" lon="-5.8273200">
        <ele>711.2</ele>
        <time>2019-08-15T14:30:59Z</time>
      </trkpt>
      <trkpt lat="42.0046490" lon="-5.8274020">
        <ele>711.2</ele>
        <time>2019-08-15T14:31:00Z</time>
      </trkpt>
      <trkpt lat="42.0046530" lon="-5.8274830">
        <ele>711.1</ele>
        <time>2019-08-15T14:31:01Z</time>
      </trkpt>
      <trkpt lat="42.0046560" lon="-5.8275660">
        <ele>711.1</ele>
        <time>2019-08-15T14:31:02Z</time>
      </trkpt>
      <trkpt lat="42.0046610" lon="-5.8276500">
        <ele>711.0</ele>
        <time>2019-08-15T14:31:03Z</time>
      </trkpt>
      <trkpt lat="42.0046620" lon="-5.8277340">
        <ele>711.0</ele>
        <time>2019-08-15T14:31:04Z</time>
      </trkpt>
      <trkpt lat="42.0046670" lon="-5.8278170">
        <ele>711.0</ele>
        <time>2019-08-15T14:31:05Z</time>
      </trkpt>
      <trkpt lat="42.0046710" lon="-5.8279000">
        <ele>711.1</ele>
        <time>2019-08-15T14:31:06Z</time>
      </trkpt>
      <trkpt lat="42.0046740" lon="-5.8279840">
        <ele>711.1</ele>
        <time>2019-08-15T14:31:07Z</time>
      </trkpt>
      <trkpt lat="42.0046770" lon="-5.8280660">
        <ele>711.1</ele>
        <time>2019-08-15T14:31:08Z</time>
      </trkpt>
      <trkpt lat="42.0046800" lon="-5.8281480">
        <ele>711.2</ele>
        <time>2019-08-15T14:31:09Z</time>
      </trkpt>
      <trkpt lat="42.0046840" lon="-5.8282310">
        <ele>711.2</ele>
        <time>2019-08-15T14:31:10Z</time>
      </trkpt>
      <trkpt lat="42.0046890" lon="-5.8283140">
        <ele>711.2</ele>
        <time>2019-08-15T14:31:11Z</time>
      </trkpt>
      <trkpt lat="42.0046920" lon="-5.8283980">
        <ele>711.3</ele>
        <time>2019-08-15T14:31:12Z</time>
      </trkpt>
      <trkpt lat="42.0046970" lon="-5.8284810">
        <ele>711.4</ele>
        <time>2019-08-15T14:31:13Z</time>
      </trkpt>
      <trkpt lat="42.0047020" lon="-5.8285630">
        <ele>711.4</ele>
        <time>2019-08-15T14:31:14Z</time>
      </trkpt>
      <trkpt lat="42.0047040" lon="-5.8286450">
        <ele>711.5</ele>
        <time>2019-08-15T14:31:15Z</time>
      </trkpt>
      <trkpt lat="42.0047060" lon="-5.8287290">
        <ele>711.5</ele>
        <time>2019-08-15T14:31:16Z</time>
      </trkpt>
      <trkpt lat="42.0047100" lon="-5.8288120">
        <ele>711.4</ele>
        <time>2019-08-15T14:31:17Z</time>
      </trkpt>
      <trkpt lat="42.0047160" lon="-5.8288960">
        <ele>711.4</ele>
        <time>2019-08-15T14:31:18Z</time>
      </trkpt>
      <trkpt lat="42.0047180" lon="-5.8289800">
        <ele>711.3</ele>
        <time>2019-08-15T14:31:19Z</time>
      </trkpt>
      <trkpt lat="42.0047200" lon="-5.8290630">
        <ele>711.2</ele>
        <time>2019-08-15T14:31:20Z</time>
      </trkpt>
      <trkpt lat="42.0047230" lon="-5.8291460">
        <ele>711.2</ele>
        <time>2019-08-15T14:31:21Z</time>
      </trkpt>
      <trkpt lat="42.0047280" lon="-5.8292290">
        <ele>711.1</ele>
        <time>2019-08-15T14:31:22Z</time>
      </trkpt>
      <trkpt lat="42.0047310" lon="-5.8293140">
        <ele>711.1</ele>
        <time>2019-08-15T14:31:23Z</time>
      </trkpt>
      <trkpt lat="42.0047360" lon="-5.8293980">
        <ele>711.1</ele>
        <time>2019-08-15T14:31:24Z</time>
      </trkpt>
      <trkpt lat="42.0047400" lon="-5.8294820">
        <ele>711.1</ele>
        <time>2019-08-15T14:31:25Z</time>
      </trkpt>
      <trkpt lat="42.0047430" lon="-5.8295670">
        <ele>711.1</ele>
        <time>2019-08-15T14:31:26Z</time>
      </trkpt>
      <trkpt lat="42.0047460" lon="-5.8296510">
        <ele>711.1</ele>
        <time>2019-08-15T14:31:27Z</time>
      </trkpt>
      <trkpt lat="42.0047510" lon="-5.8297370">
        <ele>711.1</ele>
        <time>2019-08-15T14:31:28Z</time>
      </trkpt>
      <trkpt lat="42.0047520" lon="-5.8298210">
        <ele>711.1</ele>
        <time>2019-08-15T14:31:29Z</time>
      </trkpt>
      <trkpt lat="42.0047540" lon="-5.8299040">
        <ele>711.1</ele>
        <time>2019-08-15T14:31:30Z</time>
      </trkpt>
      <trkpt lat="42.0047560" lon="-5.8299840">
        <ele>711.2</ele>
        <time>2019-08-15T14:31:31Z</time>
      </trkpt>
      <trkpt lat="42.0047580" lon="-5.8300640">
        <ele>711.2</ele>
        <time>2019-08-15T14:31:32Z</time>
      </trkpt>
      <trkpt lat="42.0047610" lon="-5.8301440">
        <ele>711.2</ele>
        <time>2019-08-15T14:31:33Z</time>
      </trkpt>
      <trkpt lat="42.0047630" lon="-5.8302230">
        <ele>711.2</ele>
        <time>2019-08-15T14:31:34Z</time>
      </trkpt>
      <trkpt lat="42.0047660" lon="-5.8303050">
        <ele>711.2</ele>
        <time>2019-08-15T14:31:35Z</time>
      </trkpt>
      <trkpt lat="42.0047690" lon="-5.8303870">
        <ele>711.1</ele>
        <time>2019-08-15T14:31:36Z</time>
      </trkpt>
      <trkpt lat="42.0047720" lon="-5.8304710">
        <ele>711.1</ele>
        <time>2019-08-15T14:31:37Z</time>
      </trkpt>
      <trkpt lat="42.0047750" lon="-5.8305540">
        <ele>711.0</ele>
        <time>2019-08-15T14:31:38Z</time>
      </trkpt>
      <trkpt lat="42.0047770" lon="-5.8306370">
        <ele>711.0</ele>
        <time>2019-08-15T14:31:39Z</time>
      </trkpt>
      <trkpt lat="42.0047810" lon="-5.8307210">
        <ele>710.9</ele>
        <time>2019-08-15T14:31:40Z</time>
      </trkpt>
      <trkpt lat="42.0047840" lon="-5.8308040">
        <ele>710.9</ele>
        <time>2019-08-15T14:31:41Z</time>
      </trkpt>
      <trkpt lat="42.0047860" lon="-5.8308880">
        <ele>710.8</ele>
        <time>2019-08-15T14:31:42Z</time>
      </trkpt>
      <trkpt lat="42.0047880" lon="-5.8309710">
        <ele>710.8</ele>
        <time>2019-08-15T14:31:43Z</time>
      </trkpt>
      <trkpt lat="42.0047900" lon="-5.8310520">
        <ele>710.7</ele>
        <time>2019-08-15T14:31:44Z</time>
      </trkpt>
      <trkpt lat="42.0047930" lon="-5.8311350">
        <ele>710.7</ele>
        <time>2019-08-15T14:31:45Z</time>
      </trkpt>
      <trkpt lat="42.0047960" lon="-5.8312160">
        <ele>710.7</ele>
        <time>2019-08-15T14:31:46Z</time>
      </trkpt>
      <trkpt lat="42.0047980" lon="-5.8312970">
        <ele>710.6</ele>
        <time>2019-08-15T14:31:47Z</time>
      </trkpt>
      <trkpt lat="42.0048040" lon="-5.8313780">
        <ele>710.6</ele>
        <time>2019-08-15T14:31:48Z</time>
      </trkpt>
      <trkpt lat="42.0048060" lon="-5.8314600">
        <ele>710.6</ele>
        <time>2019-08-15T14:31:49Z</time>
      </trkpt>
      <trkpt lat="42.0048090" lon="-5.8315400">
        <ele>710.6</ele>
        <time>2019-08-15T14:31:50Z</time>
      </trkpt>
      <trkpt lat="42.0048110" lon="-5.8316210">
        <ele>710.6</ele>
        <time>2019-08-15T14:31:51Z</time>
      </trkpt>
      <trkpt lat="42.0048140" lon="-5.8317030">
        <ele>710.6</ele>
        <time>2019-08-15T14:31:52Z</time>
      </trkpt>
      <trkpt lat="42.0048170" lon="-5.8317840">
        <ele>710.6</ele>
        <time>2019-08-15T14:31:53Z</time>
      </trkpt>
      <trkpt lat="42.0048200" lon="-5.8318650">
        <ele>710.5</ele>
        <time>2019-08-15T14:31:54Z</time>
      </trkpt>
      <trkpt lat="42.0048230" lon="-5.8319460">
        <ele>710.5</ele>
        <time>2019-08-15T14:31:55Z</time>
      </trkpt>
      <trkpt lat="42.0048260" lon="-5.8320290">
        <ele>710.5</ele>
        <time>2019-08-15T14:31:56Z</time>
      </trkpt>
      <trkpt lat="42.0048290" lon="-5.8321110">
        <ele>710.5</ele>
        <time>2019-08-15T14:31:57Z</time>
      </trkpt>
      <trkpt lat="42.0048310" lon="-5.8321920">
        <ele>710.5</ele>
        <time>2019-08-15T14:31:58Z</time>
      </trkpt>
      <trkpt lat="42.0048330" lon="-5.8322730">
        <ele>710.5</ele>
        <time>2019-08-15T14:31:59Z</time>
      </trkpt>
      <trkpt lat="42.0048360" lon="-5.8323530">
        <ele>710.4</ele>
        <time>2019-08-15T14:32:00Z</time>
      </trkpt>
      <trkpt lat="42.0048400" lon="-5.8324340">
        <ele>710.4</ele>
        <time>2019-08-15T14:32:01Z</time>
      </trkpt>
      <trkpt lat="42.0048440" lon="-5.8325140">
        <ele>710.4</ele>
        <time>2019-08-15T14:32:02Z</time>
      </trkpt>
      <trkpt lat="42.0048460" lon="-5.8325940">
        <ele>710.4</ele>
        <time>2019-08-15T14:32:03Z</time>
      </trkpt>
      <trkpt lat="42.0048520" lon="-5.8326720">
        <ele>710.4</ele>
        <time>2019-08-15T14:32:04Z</time>
      </trkpt>
      <trkpt lat="42.0048580" lon="-5.8327470">
        <ele>710.5</ele>
        <time>2019-08-15T14:32:05Z</time>
      </trkpt>
      <trkpt lat="42.0048590" lon="-5.8328200">
        <ele>710.5</ele>
        <time>2019-08-15T14:32:06Z</time>
      </trkpt>
      <trkpt lat="42.0048610" lon="-5.8328940">
        <ele>710.6</ele>
        <time>2019-08-15T14:32:07Z</time>
      </trkpt>
      <trkpt lat="42.0048640" lon="-5.8329680">
        <ele>710.6</ele>
        <time>2019-08-15T14:32:08Z</time>
      </trkpt>
      <trkpt lat="42.0048670" lon="-5.8330430">
        <ele>710.7</ele>
        <time>2019-08-15T14:32:09Z</time>
      </trkpt>
      <trkpt lat="42.0048700" lon="-5.8331170">
        <ele>710.8</ele>
        <time>2019-08-15T14:32:10Z</time>
      </trkpt>
      <trkpt lat="42.0048740" lon="-5.8331930">
        <ele>710.8</ele>
        <time>2019-08-15T14:32:11Z</time>
      </trkpt>
      <trkpt lat="42.0048770" lon="-5.8332710">
        <ele>710.9</ele>
        <time>2019-08-15T14:32:12Z</time>
      </trkpt>
      <trkpt lat="42.0048790" lon="-5.8333480">
        <ele>710.9</ele>
        <time>2019-08-15T14:32:13Z</time>
      </trkpt>
      <trkpt lat="42.0048820" lon="-5.8334260">
        <ele>711.0</ele>
        <time>2019-08-15T14:32:14Z</time>
      </trkpt>
      <trkpt lat="42.0048850" lon="-5.8335030">
        <ele>711.0</ele>
        <time>2019-08-15T14:32:15Z</time>
      </trkpt>
      <trkpt lat="42.0048870" lon="-5.8335820">
        <ele>711.1</ele>
        <time>2019-08-15T14:32:16Z</time>
      </trkpt>
      <trkpt lat="42.0048900" lon="-5.8336600">
        <ele>711.1</ele>
        <time>2019-08-15T14:32:17Z</time>
      </trkpt>
      <trkpt lat="42.0048910" lon="-5.8337400">
        <ele>711.1</ele>
        <time>2019-08-15T14:32:18Z</time>
      </trkpt>
      <trkpt lat="42.0048940" lon="-5.8338200">
        <ele>711.1</ele>
        <time>2019-08-15T14:32:19Z</time>
      </trkpt>
      <trkpt lat="42.0048980" lon="-5.8339000">
        <ele>711.0</ele>
        <time>2019-08-15T14:32:20Z</time>
      </trkpt>
      <trkpt lat="42.0049010" lon="-5.8339810">
        <ele>711.0</ele>
        <time>2019-08-15T14:32:21Z</time>
      </trkpt>
      <trkpt lat="42.0049040" lon="-5.8340620">
        <ele>711.0</ele>
        <time>2019-08-15T14:32:22Z</time>
      </trkpt>
      <trkpt lat="42.0049070" lon="-5.8341440">
        <ele>710.9</ele>
        <time>2019-08-15T14:32:23Z</time>
      </trkpt>
      <trkpt lat="42.0049100" lon="-5.8342260">
        <ele>710.9</ele>
        <time>2019-08-15T14:32:24Z</time>
      </trkpt>
      <trkpt lat="42.0049130" lon="-5.8343050">
        <ele>710.8</ele>
        <time>2019-08-15T14:32:25Z</time>
      </trkpt>
      <trkpt lat="42.0049150" lon="-5.8343840">
        <ele>710.8</ele>
        <time>2019-08-15T14:32:26Z</time>
      </trkpt>
      <trkpt lat="42.0049190" lon="-5.8344600">
        <ele>710.8</ele>
        <time>2019-08-15T14:32:27Z</time>
      </trkpt>
      <trkpt lat="42.0049220" lon="-5.8345360">
        <ele>710.7</ele>
        <time>2019-08-15T14:32:28Z</time>
      </trkpt>
      <trkpt lat="42.0049240" lon="-5.8346130">
        <ele>710.7</ele>
        <time>2019-08-15T14:32:29Z</time>
      </trkpt>
      <trkpt lat="42.0049290" lon="-5.8346920">
        <ele>710.7</ele>
        <time>2019-08-15T14:32:30Z</time>
      </trkpt>
      <trkpt lat="42.0049320" lon="-5.8347720">
        <ele>710.7</ele>
        <time>2019-08-15T14:32:31Z</time>
      </trkpt>
      <trkpt lat="42.0049350" lon="-5.8348530">
        <ele>710.7</ele>
        <time>2019-08-15T14:32:32Z</time>
      </trkpt>
      <trkpt lat="42.0049360" lon="-5.8349320">
        <ele>710.7</ele>
        <time>2019-08-15T14:32:33Z</time>
      </trkpt>
      <trkpt lat="42.0049390" lon="-5.8350110">
        <ele>710.7</ele>
        <time>2019-08-15T14:32:34Z</time>
      </trkpt>
      <trkpt lat="42.0049420" lon="-5.8350910">
        <ele>710.7</ele>
        <time>2019-08-15T14:32:35Z</time>
      </trkpt>
      <trkpt lat="42.0049450" lon="-5.8351700">
        <ele>710.8</ele>
        <time>2019-08-15T14:32:36Z</time>
      </trkpt>
      <trkpt lat="42.0049480" lon="-5.8352490">
        <ele>710.8</ele>
        <time>2019-08-15T14:32:37Z</time>
      </trkpt>
      <trkpt lat="42.0049510" lon="-5.8353280">
        <ele>710.8</ele>
        <time>2019-08-15T14:32:38Z</time>
      </trkpt>
      <trkpt lat="42.0049540" lon="-5.8354080">
        <ele>710.8</ele>
        <time>2019-08-15T14:32:39Z</time>
      </trkpt>
      <trkpt lat="42.0049560" lon="-5.8354850">
        <ele>710.8</ele>
        <time>2019-08-15T14:32:40Z</time>
      </trkpt>
      <trkpt lat="42.0049600" lon="-5.8355630">
        <ele>710.8</ele>
        <time>2019-08-15T14:32:41Z</time>
      </trkpt>
      <trkpt lat="42.0049630" lon="-5.8356420">
        <ele>710.8</ele>
        <time>2019-08-15T14:32:42Z</time>
      </trkpt>
      <trkpt lat="42.0049650" lon="-5.8357210">
        <ele>710.7</ele>
        <time>2019-08-15T14:32:43Z</time>
      </trkpt>
      <trkpt lat="42.0049680" lon="-5.8358020">
        <ele>710.7</ele>
        <time>2019-08-15T14:32:44Z</time>
      </trkpt>
      <trkpt lat="42.0049720" lon="-5.8358810">
        <ele>710.7</ele>
        <time>2019-08-15T14:32:45Z</time>
      </trkpt>
      <trkpt lat="42.0049760" lon="-5.8359610">
        <ele>710.7</ele>
        <time>2019-08-15T14:32:46Z</time>
      </trkpt>
      <trkpt lat="42.0049790" lon="-5.8360420">
        <ele>710.7</ele>
        <time>2019-08-15T14:32:47Z</time>
      </trkpt>
      <trkpt lat="42.0049810" lon="-5.8361220">
        <ele>710.8</ele>
        <time>2019-08-15T14:32:48Z</time>
      </trkpt>
      <trkpt lat="42.0049850" lon="-5.8362020">
        <ele>710.9</ele>
        <time>2019-08-15T14:32:49Z</time>
      </trkpt>
      <trkpt lat="42.0049870" lon="-5.8362820">
        <ele>711.0</ele>
        <time>2019-08-15T14:32:50Z</time>
      </trkpt>
      <trkpt lat="42.0049890" lon="-5.8363610">
        <ele>711.1</ele>
        <time>2019-08-15T14:32:51Z</time>
      </trkpt>
      <trkpt lat="42.0049930" lon="-5.8364390">
        <ele>711.3</ele>
        <time>2019-08-15T14:32:52Z</time>
      </trkpt>
      <trkpt lat="42.0049960" lon="-5.8365200">
        <ele>711.2</ele>
        <time>2019-08-15T14:32:53Z</time>
      </trkpt>
      <trkpt lat="42.0049990" lon="-5.8366000">
        <ele>711.2</ele>
        <time>2019-08-15T14:32:54Z</time>
      </trkpt>
      <trkpt lat="42.0050020" lon="-5.8366820">
        <ele>711.1</ele>
        <time>2019-08-15T14:32:55Z</time>
      </trkpt>
      <trkpt lat="42.0050050" lon="-5.8367630">
        <ele>711.1</ele>
        <time>2019-08-15T14:32:56Z</time>
      </trkpt>
      <trkpt lat="42.0050100" lon="-5.8368460">
        <ele>711.0</ele>
        <time>2019-08-15T14:32:57Z</time>
      </trkpt>
      <trkpt lat="42.0050160" lon="-5.8369300">
        <ele>711.0</ele>
        <time>2019-08-15T14:32:58Z</time>
      </trkpt>
      <trkpt lat="42.0050190" lon="-5.8370120">
        <ele>710.9</ele>
        <time>2019-08-15T14:32:59Z</time>
      </trkpt>
      <trkpt lat="42.0050240" lon="-5.8370930">
        <ele>710.9</ele>
        <time>2019-08-15T14:33:00Z</time>
      </trkpt>
      <trkpt lat="42.0050270" lon="-5.8371730">
        <ele>710.8</ele>
        <time>2019-08-15T14:33:01Z</time>
      </trkpt>
      <trkpt lat="42.0050300" lon="-5.8372500">
        <ele>710.8</ele>
        <time>2019-08-15T14:33:02Z</time>
      </trkpt>
      <trkpt lat="42.0050320" lon="-5.8373260">
        <ele>710.8</ele>
        <time>2019-08-15T14:33:03Z</time>
      </trkpt>
      <trkpt lat="42.0050340" lon="-5.8374030">
        <ele>710.8</ele>
        <time>2019-08-15T14:33:04Z</time>
      </trkpt>
      <trkpt lat="42.0050360" lon="-5.8374820">
        <ele>710.8</ele>
        <time>2019-08-15T14:33:05Z</time>
      </trkpt>
      <trkpt lat="42.0050400" lon="-5.8375610">
        <ele>710.8</ele>
        <time>2019-08-15T14:33:06Z</time>
      </trkpt>
      <trkpt lat="42.0050430" lon="-5.8376420">
        <ele>710.8</ele>
        <time>2019-08-15T14:33:07Z</time>
      </trkpt>
      <trkpt lat="42.0050450" lon="-5.8377240">
        <ele>710.8</ele>
        <time>2019-08-15T14:33:08Z</time>
      </trkpt>
      <trkpt lat="42.0050480" lon="-5.8378060">
        <ele>710.9</ele>
        <time>2019-08-15T14:33:09Z</time>
      </trkpt>
      <trkpt lat="42.0050500" lon="-5.8378880">
        <ele>710.9</ele>
        <time>2019-08-15T14:33:10Z</time>
      </trkpt>
      <trkpt lat="42.0050530" lon="-5.8379720">
        <ele>710.9</ele>
        <time>2019-08-15T14:33:11Z</time>
      </trkpt>
      <trkpt lat="42.0050550" lon="-5.8380550">
        <ele>710.8</ele>
        <time>2019-08-15T14:33:12Z</time>
      </trkpt>
      <trkpt lat="42.0050600" lon="-5.8381400">
        <ele>710.8</ele>
        <time>2019-08-15T14:33:13Z</time>
      </trkpt>
      <trkpt lat="42.0050650" lon="-5.8382240">
        <ele>710.7</ele>
        <time>2019-08-15T14:33:14Z</time>
      </trkpt>
      <trkpt lat="42.0050670" lon="-5.8383070">
        <ele>710.6</ele>
        <time>2019-08-15T14:33:15Z</time>
      </trkpt>
      <trkpt lat="42.0050690" lon="-5.8383890">
        <ele>710.5</ele>
        <time>2019-08-15T14:33:16Z</time>
      </trkpt>
      <trkpt lat="42.0050710" lon="-5.8384710">
        <ele>710.4</ele>
        <time>2019-08-15T14:33:17Z</time>
      </trkpt>
      <trkpt lat="42.0050740" lon="-5.8385520">
        <ele>710.2</ele>
        <time>2019-08-15T14:33:18Z</time>
      </trkpt>
      <trkpt lat="42.0050770" lon="-5.8386340">
        <ele>710.1</ele>
        <time>2019-08-15T14:33:19Z</time>
      </trkpt>
      <trkpt lat="42.0050800" lon="-5.8387180">
        <ele>710.0</ele>
        <time>2019-08-15T14:33:20Z</time>
      </trkpt>
      <trkpt lat="42.0050830" lon="-5.8388020">
        <ele>709.9</ele>
        <time>2019-08-15T14:33:21Z</time>
      </trkpt>
      <trkpt lat="42.0050850" lon="-5.8388880">
        <ele>709.9</ele>
        <time>2019-08-15T14:33:22Z</time>
      </trkpt>
      <trkpt lat="42.0050880" lon="-5.8389730">
        <ele>709.8</ele>
        <time>2019-08-15T14:33:23Z</time>
      </trkpt>
      <trkpt lat="42.0050900" lon="-5.8390540">
        <ele>709.8</ele>
        <time>2019-08-15T14:33:24Z</time>
      </trkpt>
      <trkpt lat="42.0050940" lon="-5.8391350">
        <ele>709.8</ele>
        <time>2019-08-15T14:33:25Z</time>
      </trkpt>
      <trkpt lat="42.0050980" lon="-5.8392150">
        <ele>709.8</ele>
        <time>2019-08-15T14:33:26Z</time>
      </trkpt>
      <trkpt lat="42.0051010" lon="-5.8392930">
        <ele>709.9</ele>
        <time>2019-08-15T14:33:27Z</time>
      </trkpt>
      <trkpt lat="42.0051040" lon="-5.8393700">
        <ele>709.9</ele>
        <time>2019-08-15T14:33:28Z</time>
      </trkpt>
      <trkpt lat="42.0051060" lon="-5.8394470">
        <ele>709.9</ele>
        <time>2019-08-15T14:33:29Z</time>
      </trkpt>
      <trkpt lat="42.0051070" lon="-5.8395250">
        <ele>710.0</ele>
        <time>2019-08-15T14:33:30Z</time>
      </trkpt>
      <trkpt lat="42.0051090" lon="-5.8396050">
        <ele>710.0</ele>
        <time>2019-08-15T14:33:31Z</time>
      </trkpt>
      <trkpt lat="42.0051120" lon="-5.8396860">
        <ele>710.0</ele>
        <time>2019-08-15T14:33:32Z</time>
      </trkpt>
      <trkpt lat="42.0051150" lon="-5.8397680">
        <ele>710.0</ele>
        <time>2019-08-15T14:33:33Z</time>
      </trkpt>
      <trkpt lat="42.0051170" lon="-5.8398500">
        <ele>710.0</ele>
        <time>2019-08-15T14:33:34Z</time>
      </trkpt>
      <trkpt lat="42.0051200" lon="-5.8399320">
        <ele>710.0</ele>
        <time>2019-08-15T14:33:35Z</time>
      </trkpt>
      <trkpt lat="42.0051240" lon="-5.8400140">
        <ele>709.9</ele>
        <time>2019-08-15T14:33:36Z</time>
      </trkpt>
      <trkpt lat="42.0051270" lon="-5.8400940">
        <ele>709.8</ele>
        <time>2019-08-15T14:33:37Z</time>
      </trkpt>
      <trkpt lat="42.0051290" lon="-5.8401730">
        <ele>709.7</ele>
        <time>2019-08-15T14:33:38Z</time>
      </trkpt>
      <trkpt lat="42.0051300" lon="-5.8402540">
        <ele>709.6</ele>
        <time>2019-08-15T14:33:39Z</time>
      </trkpt>
      <trkpt lat="42.0051320" lon="-5.8403360">
        <ele>709.4</ele>
        <time>2019-08-15T14:33:40Z</time>
      </trkpt>
      <trkpt lat="42.0051350" lon="-5.8404190">
        <ele>709.3</ele>
        <time>2019-08-15T14:33:41Z</time>
      </trkpt>
      <trkpt lat="42.0051380" lon="-5.8405040">
        <ele>709.2</ele>
        <time>2019-08-15T14:33:42Z</time>
      </trkpt>
      <trkpt lat="42.0051420" lon="-5.8405880">
        <ele>709.1</ele>
        <time>2019-08-15T14:33:43Z</time>
      </trkpt>
      <trkpt lat="42.0051450" lon="-5.8406700">
        <ele>709.0</ele>
        <time>2019-08-15T14:33:44Z</time>
      </trkpt>
      <trkpt lat="42.0051470" lon="-5.8407520">
        <ele>708.9</ele>
        <time>2019-08-15T14:33:45Z</time>
      </trkpt>
      <trkpt lat="42.0051490" lon="-5.8408340">
        <ele>708.9</ele>
        <time>2019-08-15T14:33:46Z</time>
      </trkpt>
      <trkpt lat="42.0051530" lon="-5.8409150">
        <ele>708.8</ele>
        <time>2019-08-15T14:33:47Z</time>
      </trkpt>
      <trkpt lat="42.0051560" lon="-5.8409980">
        <ele>708.8</ele>
        <time>2019-08-15T14:33:48Z</time>
      </trkpt>
      <trkpt lat="42.0051580" lon="-5.8410820">
        <ele>708.7</ele>
        <time>2019-08-15T14:33:49Z</time>
      </trkpt>
      <trkpt lat="42.0051590" lon="-5.8411660">
        <ele>708.6</ele>
        <time>2019-08-15T14:33:50Z</time>
      </trkpt>
      <trkpt lat="42.0051640" lon="-5.8412510">
        <ele>708.5</ele>
        <time>2019-08-15T14:33:51Z</time>
      </trkpt>
      <trkpt lat="42.0051690" lon="-5.8413330">
        <ele>708.4</ele>
        <time>2019-08-15T14:33:52Z</time>
      </trkpt>
      <trkpt lat="42.0051740" lon="-5.8414150">
        <ele>708.3</ele>
        <time>2019-08-15T14:33:53Z</time>
      </trkpt>
      <trkpt lat="42.0051780" lon="-5.8414960">
        <ele>708.2</ele>
        <time>2019-08-15T14:33:54Z</time>
      </trkpt>
      <trkpt lat="42.0051800" lon="-5.8415790">
        <ele>708.2</ele>
        <time>2019-08-15T14:33:55Z</time>
      </trkpt>
      <trkpt lat="42.0051820" lon="-5.8416620">
        <ele>708.2</ele>
        <time>2019-08-15T14:33:56Z</time>
      </trkpt>
      <trkpt lat="42.0051840" lon="-5.8417460">
        <ele>708.3</ele>
        <time>2019-08-15T14:33:57Z</time>
      </trkpt>
      <trkpt lat="42.0051860" lon="-5.8418300">
        <ele>708.3</ele>
        <time>2019-08-15T14:33:58Z</time>
      </trkpt>
      <trkpt lat="42.0051890" lon="-5.8419130">
        <ele>708.4</ele>
        <time>2019-08-15T14:33:59Z</time>
      </trkpt>
      <trkpt lat="42.0051920" lon="-5.8419980">
        <ele>708.4</ele>
        <time>2019-08-15T14:34:00Z</time>
      </trkpt>
      <trkpt lat="42.0051940" lon="-5.8420820">
        <ele>708.5</ele>
        <time>2019-08-15T14:34:01Z</time>
      </trkpt>
      <trkpt lat="42.0051970" lon="-5.8421660">
        <ele>708.6</ele>
        <time>2019-08-15T14:34:02Z</time>
      </trkpt>
      <trkpt lat="42.0052010" lon="-5.8422490">
        <ele>708.7</ele>
        <time>2019-08-15T14:34:03Z</time>
      </trkpt>
      <trkpt lat="42.0052060" lon="-5.8423340">
        <ele>708.9</ele>
        <time>2019-08-15T14:34:04Z</time>
      </trkpt>
      <trkpt lat="42.0052090" lon="-5.8424170">
        <ele>709.0</ele>
        <time>2019-08-15T14:34:05Z</time>
      </trkpt>
      <trkpt lat="42.0052140" lon="-5.8425010">
        <ele>709.1</ele>
        <time>2019-08-15T14:34:06Z</time>
      </trkpt>
      <trkpt lat="42.0052160" lon="-5.8425850">
        <ele>709.2</ele>
        <time>2019-08-15T14:34:07Z</time>
      </trkpt>
      <trkpt lat="42.0052180" lon="-5.8426670">
        <ele>709.3</ele>
        <time>2019-08-15T14:34:08Z</time>
      </trkpt>
      <trkpt lat="42.0052210" lon="-5.8427480">
        <ele>709.3</ele>
        <time>2019-08-15T14:34:09Z</time>
      </trkpt>
      <trkpt lat="42.0052230" lon="-5.8428280">
        <ele>709.3</ele>
        <time>2019-08-15T14:34:10Z</time>
      </trkpt>
      <trkpt lat="42.0052240" lon="-5.8429080">
        <ele>709.3</ele>
        <time>2019-08-15T14:34:11Z</time>
      </trkpt>
      <trkpt lat="42.0052260" lon="-5.8429870">
        <ele>709.3</ele>
        <time>2019-08-15T14:34:12Z</time>
      </trkpt>
      <trkpt lat="42.0052280" lon="-5.8430680">
        <ele>709.3</ele>
        <time>2019-08-15T14:34:13Z</time>
      </trkpt>
      <trkpt lat="42.0052320" lon="-5.8431490">
        <ele>709.3</ele>
        <time>2019-08-15T14:34:14Z</time>
      </trkpt>
      <trkpt lat="42.0052350" lon="-5.8432290">
        <ele>709.2</ele>
        <time>2019-08-15T14:34:15Z</time>
      </trkpt>
      <trkpt lat="42.0052370" lon="-5.8433060">
        <ele>709.2</ele>
        <time>2019-08-15T14:34:16Z</time>
      </trkpt>
      <trkpt lat="42.0052390" lon="-5.8433830">
        <ele>709.2</ele>
        <time>2019-08-15T14:34:17Z</time>
      </trkpt>
      <trkpt lat="42.0052420" lon="-5.8434620">
        <ele>709.2</ele>
        <time>2019-08-15T14:34:18Z</time>
      </trkpt>
      <trkpt lat="42.0052450" lon="-5.8435400">
        <ele>709.2</ele>
        <time>2019-08-15T14:34:19Z</time>
      </trkpt>
      <trkpt lat="42.0052480" lon="-5.8436180">
        <ele>709.3</ele>
        <time>2019-08-15T14:34:20Z</time>
      </trkpt>
      <trkpt lat="42.0052500" lon="-5.8436960">
        <ele>709.3</ele>
        <time>2019-08-15T14:34:21Z</time>
      </trkpt>
      <trkpt lat="42.0052520" lon="-5.8437720">
        <ele>709.4</ele>
        <time>2019-08-15T14:34:22Z</time>
      </trkpt>
      <trkpt lat="42.0052560" lon="-5.8438480">
        <ele>709.5</ele>
        <time>2019-08-15T14:34:23Z</time>
      </trkpt>
      <trkpt lat="42.0052600" lon="-5.8439200">
        <ele>709.5</ele>
        <time>2019-08-15T14:34:24Z</time>
      </trkpt>
      <trkpt lat="42.0052630" lon="-5.8439900">
        <ele>709.6</ele>
        <time>2019-08-15T14:34:25Z</time>
      </trkpt>
      <trkpt lat="42.0052680" lon="-5.8440580">
        <ele>709.6</ele>
        <time>2019-08-15T14:34:26Z</time>
      </trkpt>
      <trkpt lat="42.0052760" lon="-5.8441270">
        <ele>709.7</ele>
        <time>2019-08-15T14:34:27Z</time>
      </trkpt>
      <trkpt lat="42.0052830" lon="-5.8441990">
        <ele>709.7</ele>
        <time>2019-08-15T14:34:28Z</time>
      </trkpt>
      <trkpt lat="42.0052890" lon="-5.8442710">
        <ele>709.8</ele>
        <time>2019-08-15T14:34:29Z</time>
      </trkpt>
      <trkpt lat="42.0052960" lon="-5.8443430">
        <ele>709.8</ele>
        <time>2019-08-15T14:34:30Z</time>
      </trkpt>
      <trkpt lat="42.0053020" lon="-5.8444180">
        <ele>709.8</ele>
        <time>2019-08-15T14:34:31Z</time>
      </trkpt>
      <trkpt lat="42.0053080" lon="-5.8444930">
        <ele>709.9</ele>
        <time>2019-08-15T14:34:32Z</time>
      </trkpt>
      <trkpt lat="42.0053140" lon="-5.8445690">
        <ele>709.9</ele>
        <time>2019-08-15T14:34:33Z</time>
      </trkpt>
      <trkpt lat="42.0053200" lon="-5.8446450">
        <ele>709.9</ele>
        <time>2019-08-15T14:34:34Z</time>
      </trkpt>
      <trkpt lat="42.0053250" lon="-5.8447200">
        <ele>710.0</ele>
        <time>2019-08-15T14:34:35Z</time>
      </trkpt>
      <trkpt lat="42.0053290" lon="-5.8447970">
        <ele>710.0</ele>
        <time>2019-08-15T14:34:36Z</time>
      </trkpt>
      <trkpt lat="42.0053340" lon="-5.8448730">
        <ele>710.1</ele>
        <time>2019-08-15T14:34:37Z</time>
      </trkpt>
      <trkpt lat="42.0053380" lon="-5.8449490">
        <ele>710.1</ele>
        <time>2019-08-15T14:34:38Z</time>
      </trkpt>
      <trkpt lat="42.0053410" lon="-5.8450260">
        <ele>710.1</ele>
        <time>2019-08-15T14:34:39Z</time>
      </trkpt>
      <trkpt lat="42.0053450" lon="-5.8451010">
        <ele>710.2</ele>
        <time>2019-08-15T14:34:40Z</time>
      </trkpt>
      <trkpt lat="42.0053490" lon="-5.8451740">
        <ele>710.3</ele>
        <time>2019-08-15T14:34:41Z</time>
      </trkpt>
      <trkpt lat="42.0053520" lon="-5.8452460">
        <ele>710.4</ele>
        <time>2019-08-15T14:34:42Z</time>
      </trkpt>
      <trkpt lat="42.0053550" lon="-5.8453190">
        <ele>710.5</ele>
        <time>2019-08-15T14:34:43Z</time>
      </trkpt>
      <trkpt lat="42.0053560" lon="-5.8453920">
        <ele>710.5</ele>
        <time>2019-08-15T14:34:44Z</time>
      </trkpt>
      <trkpt lat="42.0053570" lon="-5.8454650">
        <ele>710.6</ele>
        <time>2019-08-15T14:34:45Z</time>
      </trkpt>
      <trkpt lat="42.0053580" lon="-5.8455410">
        <ele>710.7</ele>
        <time>2019-08-15T14:34:46Z</time>
      </trkpt>
      <trkpt lat="42.0053580" lon="-5.8456170">
        <ele>710.7</ele>
        <time>2019-08-15T14:34:47Z</time>
      </trkpt>
      <trkpt lat="42.0053590" lon="-5.8456940">
        <ele>710.7</ele>
        <time>2019-08-15T14:34:48Z</time>
      </trkpt>
      <trkpt lat="42.0053610" lon="-5.8457690">
        <ele>710.7</ele>
        <time>2019-08-15T14:34:49Z</time>
      </trkpt>
      <trkpt lat="42.0053630" lon="-5.8458410">
        <ele>710.8</ele>
        <time>2019-08-15T14:34:50Z</time>
      </trkpt>
      <trkpt lat="42.0053630" lon="-5.8459110">
        <ele>710.8</ele>
        <time>2019-08-15T14:34:51Z</time>
      </trkpt>
      <trkpt lat="42.0053640" lon="-5.8459800">
        <ele>710.8</ele>
        <time>2019-08-15T14:34:52Z</time>
      </trkpt>
      <trkpt lat="42.0053670" lon="-5.8460480">
        <ele>710.8</ele>
        <time>2019-08-15T14:34:53Z</time>
      </trkpt>
      <trkpt lat="42.0053690" lon="-5.8461130">
        <ele>710.8</ele>
        <time>2019-08-15T14:34:54Z</time>
      </trkpt>
      <trkpt lat="42.0053710" lon="-5.8461780">
        <ele>710.8</ele>
        <time>2019-08-15T14:34:55Z</time>
      </trkpt>
      <trkpt lat="42.0053730" lon="-5.8462410">
        <ele>710.8</ele>
        <time>2019-08-15T14:34:56Z</time>
      </trkpt>
      <trkpt lat="42.0053750" lon="-5.8463030">
        <ele>710.8</ele>
        <time>2019-08-15T14:34:57Z</time>
      </trkpt>
      <trkpt lat="42.0053790" lon="-5.8463630">
        <ele>710.8</ele>
        <time>2019-08-15T14:34:58Z</time>
      </trkpt>
      <trkpt lat="42.0053800" lon="-5.8464230">
        <ele>710.8</ele>
        <time>2019-08-15T14:34:59Z</time>
      </trkpt>
      <trkpt lat="42.0053840" lon="-5.8464810">
        <ele>710.8</ele>
        <time>2019-08-15T14:35:00Z</time>
      </trkpt>
      <trkpt lat="42.0053860" lon="-5.8465380">
        <ele>710.7</ele>
        <time>2019-08-15T14:35:01Z</time>
      </trkpt>
      <trkpt lat="42.0053860" lon="-5.8465910">
        <ele>710.7</ele>
        <time>2019-08-15T14:35:02Z</time>
      </trkpt>
      <trkpt lat="42.0053850" lon="-5.8466440">
        <ele>710.7</ele>
        <time>2019-08-15T14:35:03Z</time>
      </trkpt>
      <trkpt lat="42.0053850" lon="-5.8466960">
        <ele>710.7</ele>
        <time>2019-08-15T14:35:04Z</time>
      </trkpt>
      <trkpt lat="42.0053890" lon="-5.8467460">
        <ele>710.7</ele>
        <time>2019-08-15T14:35:05Z</time>
      </trkpt>
      <trkpt lat="42.0053940" lon="-5.8467950">
        <ele>710.7</ele>
        <time>2019-08-15T14:35:06Z</time>
      </trkpt>
      <trkpt lat="42.0053980" lon="-5.8468420">
        <ele>710.7</ele>
        <time>2019-08-15T14:35:07Z</time>
      </trkpt>
      <trkpt lat="42.0054000" lon="-5.8468860">
        <ele>710.8</ele>
        <time>2019-08-15T14:35:08Z</time>
      </trkpt>
      <trkpt lat="42.0053990" lon="-5.8469240">
        <ele>710.8</ele>
        <time>2019-08-15T14:35:09Z</time>
      </trkpt>
      <trkpt lat="42.0053970" lon="-5.8469580">
        <ele>710.9</ele>
        <time>2019-08-15T14:35:10Z</time>
      </trkpt>
      <trkpt lat="42.0053970" lon="-5.8470200">
        <ele>710.9</ele>
        <time>2019-08-15T14:35:12Z</time>
      </trkpt>
      <trkpt lat="42.0053720" lon="-5.8470590">
        <ele>711.0</ele>
        <time>2019-08-15T14:35:14Z</time>
      </trkpt>
      <trkpt lat="42.0053310" lon="-5.8470370">
        <ele>711.0</ele>
        <time>2019-08-15T14:35:16Z</time>
      </trkpt>
      <trkpt lat="42.0053020" lon="-5.8469620">
        <ele>711.1</ele>
        <time>2019-08-15T14:35:18Z</time>
      </trkpt>
      <trkpt lat="42.0052910" lon="-5.8469150">
        <ele>711.2</ele>
        <time>2019-08-15T14:35:19Z</time>
      </trkpt>
      <trkpt lat="42.0052790" lon="-5.8468680">
        <ele>711.2</ele>
        <time>2019-08-15T14:35:20Z</time>
      </trkpt>
      <trkpt lat="42.0052610" lon="-5.8468210">
        <ele>711.3</ele>
        <time>2019-08-15T14:35:21Z</time>
      </trkpt>
      <trkpt lat="42.0052390" lon="-5.8467810">
        <ele>711.4</ele>
        <time>2019-08-15T14:35:22Z</time>
      </trkpt>
      <trkpt lat="42.0052120" lon="-5.8467540">
        <ele>711.4</ele>
        <time>2019-08-15T14:35:23Z</time>
      </trkpt>
      <trkpt lat="42.0051830" lon="-5.8467410">
        <ele>711.4</ele>
        <time>2019-08-15T14:35:24Z</time>
      </trkpt>
      <trkpt lat="42.0051560" lon="-5.8467410">
        <ele>711.5</ele>
        <time>2019-08-15T14:35:25Z</time>
      </trkpt>
      <trkpt lat="42.0051120" lon="-5.8467680">
        <ele>711.5</ele>
        <time>2019-08-15T14:35:27Z</time>
      </trkpt>
      <trkpt lat="42.0050900" lon="-5.8468350">
        <ele>711.5</ele>
        <time>2019-08-15T14:35:29Z</time>
      </trkpt>
      <trkpt lat="42.0050850" lon="-5.8468770">
        <ele>711.6</ele>
        <time>2019-08-15T14:35:30Z</time>
      </trkpt>
      <trkpt lat="42.0050840" lon="-5.8469220">
        <ele>711.6</ele>
        <time>2019-08-15T14:35:31Z</time>
      </trkpt>
      <trkpt lat="42.0050860" lon="-5.8469690">
        <ele>711.6</ele>
        <time>2019-08-15T14:35:32Z</time>
      </trkpt>
      <trkpt lat="42.0050900" lon="-5.8470170">
        <ele>711.6</ele>
        <time>2019-08-15T14:35:33Z</time>
      </trkpt>
      <trkpt lat="42.0050940" lon="-5.8470650">
        <ele>711.7</ele>
        <time>2019-08-15T14:35:34Z</time>
      </trkpt>
      <trkpt lat="42.0050980" lon="-5.8471150">
        <ele>711.7</ele>
        <time>2019-08-15T14:35:35Z</time>
      </trkpt>
      <trkpt lat="42.0051060" lon="-5.8471660">
        <ele>711.7</ele>
        <time>2019-08-15T14:35:36Z</time>
      </trkpt>
      <trkpt lat="42.0051150" lon="-5.8472180">
        <ele>711.7</ele>
        <time>2019-08-15T14:35:37Z</time>
      </trkpt>
      <trkpt lat="42.0051220" lon="-5.8472700">
        <ele>711.7</ele>
        <time>2019-08-15T14:35:38Z</time>
      </trkpt>
      <trkpt lat="42.0051250" lon="-5.8473220">
        <ele>711.7</ele>
        <time>2019-08-15T14:35:39Z</time>
      </trkpt>
      <trkpt lat="42.0051260" lon="-5.8473740">
        <ele>711.7</ele>
        <time>2019-08-15T14:35:40Z</time>
      </trkpt>
      <trkpt lat="42.0051260" lon="-5.8474250">
        <ele>711.7</ele>
        <time>2019-08-15T14:35:41Z</time>
      </trkpt>
      <trkpt lat="42.0051220" lon="-5.8474720">
        <ele>711.7</ele>
        <time>2019-08-15T14:35:42Z</time>
      </trkpt>
      <trkpt lat="42.0051120" lon="-5.8475160">
        <ele>711.6</ele>
        <time>2019-08-15T14:35:43Z</time>
      </trkpt>
      <trkpt lat="42.0051040" lon="-5.8475570">
        <ele>711.6</ele>
        <time>2019-08-15T14:35:44Z</time>
      </trkpt>
      <trkpt lat="42.0050960" lon="-5.8475920">
        <ele>711.5</ele>
        <time>2019-08-15T14:35:45Z</time>
      </trkpt>
      <trkpt lat="42.0050870" lon="-5.8476300">
        <ele>711.5</ele>
        <time>2019-08-15T14:35:46Z</time>
      </trkpt>
      <trkpt lat="42.0050790" lon="-5.8476750">
        <ele>711.4</ele>
        <time>2019-08-15T14:35:47Z</time>
      </trkpt>
      <trkpt lat="42.0050750" lon="-5.8477190">
        <ele>711.3</ele>
        <time>2019-08-15T14:35:48Z</time>
      </trkpt>
      <trkpt lat="42.0050740" lon="-5.8477570">
        <ele>711.2</ele>
        <time>2019-08-15T14:35:49Z</time>
      </trkpt>
      <trkpt lat="42.0050720" lon="-5.8477970">
        <ele>711.2</ele>
        <time>2019-08-15T14:35:50Z</time>
      </trkpt>
      <trkpt lat="42.0050660" lon="-5.8478370">
        <ele>711.1</ele>
        <time>2019-08-15T14:35:51Z</time>
      </trkpt>
      <trkpt lat="42.0050590" lon="-5.8478810">
        <ele>710.9</ele>
        <time>2019-08-15T14:35:52Z</time>
      </trkpt>
      <trkpt lat="42.0050540" lon="-5.8479170">
        <ele>710.8</ele>
        <time>2019-08-15T14:35:53Z</time>
      </trkpt>
      <trkpt lat="42.0050540" lon="-5.8479590">
        <ele>710.7</ele>
        <time>2019-08-15T14:35:54Z</time>
      </trkpt>
      <trkpt lat="42.0050530" lon="-5.8480050">
        <ele>710.6</ele>
        <time>2019-08-15T14:35:55Z</time>
      </trkpt>
      <trkpt lat="42.0050530" lon="-5.8480530">
        <ele>710.5</ele>
        <time>2019-08-15T14:35:56Z</time>
      </trkpt>
      <trkpt lat="42.0050570" lon="-5.8481050">
        <ele>710.5</ele>
        <time>2019-08-15T14:35:57Z</time>
      </trkpt>
      <trkpt lat="42.0050590" lon="-5.8481640">
        <ele>710.4</ele>
        <time>2019-08-15T14:35:58Z</time>
      </trkpt>
      <trkpt lat="42.0050600" lon="-5.8482200">
        <ele>710.3</ele>
        <time>2019-08-15T14:35:59Z</time>
      </trkpt>
      <trkpt lat="42.0050580" lon="-5.8482720">
        <ele>710.2</ele>
        <time>2019-08-15T14:36:00Z</time>
      </trkpt>
      <trkpt lat="42.0050570" lon="-5.8483310">
        <ele>710.1</ele>
        <time>2019-08-15T14:36:01Z</time>
      </trkpt>
      <trkpt lat="42.0050520" lon="-5.8483870">
        <ele>710.1</ele>
        <time>2019-08-15T14:36:02Z</time>
      </trkpt>
      <trkpt lat="42.0050460" lon="-5.8484500">
        <ele>710.0</ele>
        <time>2019-08-15T14:36:03Z</time>
      </trkpt>
      <trkpt lat="42.0050410" lon="-5.8485040">
        <ele>709.9</ele>
        <time>2019-08-15T14:36:04Z</time>
      </trkpt>
      <trkpt lat="42.0050400" lon="-5.8485480">
        <ele>709.8</ele>
        <time>2019-08-15T14:36:05Z</time>
      </trkpt>
      <trkpt lat="42.0050400" lon="-5.8485860">
        <ele>709.8</ele>
        <time>2019-08-15T14:36:06Z</time>
      </trkpt>
      <trkpt lat="42.0050370" lon="-5.8486250">
        <ele>709.7</ele>
        <time>2019-08-15T14:36:07Z</time>
      </trkpt>
      <trkpt lat="42.0050340" lon="-5.8486640">
        <ele>709.6</ele>
        <time>2019-08-15T14:36:08Z</time>
      </trkpt>
      <trkpt lat="42.0050310" lon="-5.8487040">
        <ele>709.5</ele>
        <time>2019-08-15T14:36:09Z</time>
      </trkpt>
      <trkpt lat="42.0050320" lon="-5.8487430">
        <ele>709.4</ele>
        <time>2019-08-15T14:36:10Z</time>
      </trkpt>
      <trkpt lat="42.0050330" lon="-5.8487820">
        <ele>709.4</ele>
        <time>2019-08-15T14:36:11Z</time>
      </trkpt>
      <trkpt lat="42.0050320" lon="-5.8488290">
        <ele>709.2</ele>
        <time>2019-08-15T14:36:12Z</time>
      </trkpt>
      <trkpt lat="42.0050320" lon="-5.8488780">
        <ele>709.1</ele>
        <time>2019-08-15T14:36:13Z</time>
      </trkpt>
      <trkpt lat="42.0050340" lon="-5.8489230">
        <ele>708.9</ele>
        <time>2019-08-15T14:36:14Z</time>
      </trkpt>
      <trkpt lat="42.0050370" lon="-5.8489720">
        <ele>708.9</ele>
        <time>2019-08-15T14:36:15Z</time>
      </trkpt>
      <trkpt lat="42.0050380" lon="-5.8490170">
        <ele>708.9</ele>
        <time>2019-08-15T14:36:16Z</time>
      </trkpt>
      <trkpt lat="42.0050370" lon="-5.8490630">
        <ele>708.9</ele>
        <time>2019-08-15T14:36:17Z</time>
      </trkpt>
      <trkpt lat="42.0050390" lon="-5.8491060">
        <ele>708.9</ele>
        <time>2019-08-15T14:36:18Z</time>
      </trkpt>
      <trkpt lat="42.0050380" lon="-5.8491510">
        <ele>708.9</ele>
        <time>2019-08-15T14:36:19Z</time>
      </trkpt>
      <trkpt lat="42.0050350" lon="-5.8491960">
        <ele>708.9</ele>
        <time>2019-08-15T14:36:20Z</time>
      </trkpt>
      <trkpt lat="42.0050350" lon="-5.8492320">
        <ele>708.9</ele>
        <time>2019-08-15T14:36:21Z</time>
      </trkpt>
      <trkpt lat="42.0050260" lon="-5.8493020">
        <ele>708.9</ele>
        <time>2019-08-15T14:36:23Z</time>
      </trkpt>
      <trkpt lat="42.0050200" lon="-5.8493400">
        <ele>708.9</ele>
        <time>2019-08-15T14:36:24Z</time>
      </trkpt>
      <trkpt lat="42.0050180" lon="-5.8493790">
        <ele>708.9</ele>
        <time>2019-08-15T14:36:25Z</time>
      </trkpt>
      <trkpt lat="42.0050170" lon="-5.8494210">
        <ele>708.9</ele>
        <time>2019-08-15T14:36:26Z</time>
      </trkpt>
      <trkpt lat="42.0050120" lon="-5.8494580">
        <ele>709.1</ele>
        <time>2019-08-15T14:36:27Z</time>
      </trkpt>
      <trkpt lat="42.0050070" lon="-5.8494940">
        <ele>709.1</ele>
        <time>2019-08-15T14:36:28Z</time>
      </trkpt>
      <trkpt lat="42.0050040" lon="-5.8495300">
        <ele>709.1</ele>
        <time>2019-08-15T14:36:29Z</time>
      </trkpt>
      <trkpt lat="42.0050010" lon="-5.8495690">
        <ele>709.1</ele>
        <time>2019-08-15T14:36:30Z</time>
      </trkpt>
      <trkpt lat="42.0049980" lon="-5.8495950">
        <ele>709.1</ele>
        <time>2019-08-15T14:36:31Z</time>
      </trkpt>
      <trkpt lat="42.0049900" lon="-5.8496360">
        <ele>709.0</ele>
        <time>2019-08-15T14:36:33Z</time>
      </trkpt>
      <trkpt lat="42.0049880" lon="-5.8496590">
        <ele>709.0</ele>
        <time>2019-08-15T14:36:36Z</time>
      </trkpt>
      <trkpt lat="42.0049700" lon="-5.8498070">
        <ele>709.0</ele>
        <time>2019-08-15T14:38:57Z</time>
      </trkpt>
      <trkpt lat="42.0049610" lon="-5.8498730">
        <ele>708.9</ele>
        <time>2019-08-15T14:38:59Z</time>
      </trkpt>
      <trkpt lat="42.0049420" lon="-5.8499420">
        <ele>708.9</ele>
        <time>2019-08-15T14:39:01Z</time>
      </trkpt>
      <trkpt lat="42.0049360" lon="-5.8499760">
        <ele>708.8</ele>
        <time>2019-08-15T14:39:02Z</time>
      </trkpt>
      <trkpt lat="42.0049190" lon="-5.8500540">
        <ele>708.6</ele>
        <time>2019-08-15T14:39:04Z</time>
      </trkpt>
      <trkpt lat="42.0049070" lon="-5.8500980">
        <ele>708.7</ele>
        <time>2019-08-15T14:39:05Z</time>
      </trkpt>
      <trkpt lat="42.0048970" lon="-5.8501470">
        <ele>708.6</ele>
        <time>2019-08-15T14:39:06Z</time>
      </trkpt>
      <trkpt lat="42.0048850" lon="-5.8501990">
        <ele>708.7</ele>
        <time>2019-08-15T14:39:07Z</time>
      </trkpt>
      <trkpt lat="42.0048720" lon="-5.8502540">
        <ele>708.6</ele>
        <time>2019-08-15T14:39:08Z</time>
      </trkpt>
      <trkpt lat="42.0048600" lon="-5.8503100">
        <ele>708.5</ele>
        <time>2019-08-15T14:39:09Z</time>
      </trkpt>
      <trkpt lat="42.0048510" lon="-5.8503680">
        <ele>708.6</ele>
        <time>2019-08-15T14:39:10Z</time>
      </trkpt>
      <trkpt lat="42.0048420" lon="-5.8504260">
        <ele>708.5</ele>
        <time>2019-08-15T14:39:11Z</time>
      </trkpt>
      <trkpt lat="42.0048320" lon="-5.8504790">
        <ele>708.5</ele>
        <time>2019-08-15T14:39:12Z</time>
      </trkpt>
      <trkpt lat="42.0048210" lon="-5.8505360">
        <ele>708.5</ele>
        <time>2019-08-15T14:39:13Z</time>
      </trkpt>
      <trkpt lat="42.0048120" lon="-5.8505910">
        <ele>708.5</ele>
        <time>2019-08-15T14:39:14Z</time>
      </trkpt>
      <trkpt lat="42.0047990" lon="-5.8506430">
        <ele>708.5</ele>
        <time>2019-08-15T14:39:15Z</time>
      </trkpt>
      <trkpt lat="42.0047840" lon="-5.8506900">
        <ele>708.5</ele>
        <time>2019-08-15T14:39:16Z</time>
      </trkpt>
      <trkpt lat="42.0047680" lon="-5.8507350">
        <ele>708.5</ele>
        <time>2019-08-15T14:39:17Z</time>
      </trkpt>
      <trkpt lat="42.0047490" lon="-5.8507790">
        <ele>708.6</ele>
        <time>2019-08-15T14:39:18Z</time>
      </trkpt>
      <trkpt lat="42.0047280" lon="-5.8508270">
        <ele>708.6</ele>
        <time>2019-08-15T14:39:19Z</time>
      </trkpt>
      <trkpt lat="42.0047040" lon="-5.8508790">
        <ele>708.7</ele>
        <time>2019-08-15T14:39:20Z</time>
      </trkpt>
      <trkpt lat="42.0046790" lon="-5.8509350">
        <ele>708.9</ele>
        <time>2019-08-15T14:39:21Z</time>
      </trkpt>
      <trkpt lat="42.0046540" lon="-5.8509870">
        <ele>709.0</ele>
        <time>2019-08-15T14:39:22Z</time>
      </trkpt>
      <trkpt lat="42.0046330" lon="-5.8510380">
        <ele>709.1</ele>
        <time>2019-08-15T14:39:23Z</time>
      </trkpt>
      <trkpt lat="42.0046080" lon="-5.8510900">
        <ele>709.3</ele>
        <time>2019-08-15T14:39:24Z</time>
      </trkpt>
      <trkpt lat="42.0045850" lon="-5.8511390">
        <ele>709.5</ele>
        <time>2019-08-15T14:39:25Z</time>
      </trkpt>
      <trkpt lat="42.0045630" lon="-5.8511920">
        <ele>709.7</ele>
        <time>2019-08-15T14:39:26Z</time>
      </trkpt>
      <trkpt lat="42.0045400" lon="-5.8512420">
        <ele>709.7</ele>
        <time>2019-08-15T14:39:27Z</time>
      </trkpt>
      <trkpt lat="42.0045160" lon="-5.8512920">
        <ele>709.9</ele>
        <time>2019-08-15T14:39:28Z</time>
      </trkpt>
      <trkpt lat="42.0044970" lon="-5.8513430">
        <ele>710.2</ele>
        <time>2019-08-15T14:39:29Z</time>
      </trkpt>
      <trkpt lat="42.0044710" lon="-5.8513940">
        <ele>710.3</ele>
        <time>2019-08-15T14:39:30Z</time>
      </trkpt>
      <trkpt lat="42.0044470" lon="-5.8514460">
        <ele>710.5</ele>
        <time>2019-08-15T14:39:31Z</time>
      </trkpt>
      <trkpt lat="42.0044220" lon="-5.8514970">
        <ele>710.7</ele>
        <time>2019-08-15T14:39:32Z</time>
      </trkpt>
      <trkpt lat="42.0043960" lon="-5.8515490">
        <ele>710.9</ele>
        <time>2019-08-15T14:39:33Z</time>
      </trkpt>
      <trkpt lat="42.0043750" lon="-5.8516040">
        <ele>711.2</ele>
        <time>2019-08-15T14:39:34Z</time>
      </trkpt>
      <trkpt lat="42.0043580" lon="-5.8516610">
        <ele>711.2</ele>
        <time>2019-08-15T14:39:35Z</time>
      </trkpt>
      <trkpt lat="42.0043400" lon="-5.8517110">
        <ele>711.4</ele>
        <time>2019-08-15T14:39:36Z</time>
      </trkpt>
      <trkpt lat="42.0043230" lon="-5.8517530">
        <ele>711.4</ele>
        <time>2019-08-15T14:39:37Z</time>
      </trkpt>
      <trkpt lat="42.0043090" lon="-5.8517940">
        <ele>711.6</ele>
        <time>2019-08-15T14:39:38Z</time>
      </trkpt>
      <trkpt lat="42.0042930" lon="-5.8518330">
        <ele>711.6</ele>
        <time>2019-08-15T14:39:39Z</time>
      </trkpt>
      <trkpt lat="42.0042740" lon="-5.8518720">
        <ele>711.7</ele>
        <time>2019-08-15T14:39:40Z</time>
      </trkpt>
      <trkpt lat="42.0042560" lon="-5.8519100">
        <ele>711.7</ele>
        <time>2019-08-15T14:39:41Z</time>
      </trkpt>
      <trkpt lat="42.0042410" lon="-5.8519600">
        <ele>711.8</ele>
        <time>2019-08-15T14:39:42Z</time>
      </trkpt>
      <trkpt lat="42.0042240" lon="-5.8520090">
        <ele>711.8</ele>
        <time>2019-08-15T14:39:43Z</time>
      </trkpt>
      <trkpt lat="42.0042080" lon="-5.8520630">
        <ele>711.8</ele>
        <time>2019-08-15T14:39:44Z</time>
      </trkpt>
      <trkpt lat="42.0041920" lon="-5.8521170">
        <ele>711.8</ele>
        <time>2019-08-15T14:39:45Z</time>
      </trkpt>
      <trkpt lat="42.0041790" lon="-5.8521670">
        <ele>711.8</ele>
        <time>2019-08-15T14:39:46Z</time>
      </trkpt>
      <trkpt lat="42.0041700" lon="-5.8522230">
        <ele>711.8</ele>
        <time>2019-08-15T14:39:47Z</time>
      </trkpt>
      <trkpt lat="42.0041580" lon="-5.8522790">
        <ele>711.8</ele>
        <time>2019-08-15T14:39:48Z</time>
      </trkpt>
      <trkpt lat="42.0041500" lon="-5.8523370">
        <ele>711.8</ele>
        <time>2019-08-15T14:39:49Z</time>
      </trkpt>
      <trkpt lat="42.0041340" lon="-5.8523970">
        <ele>711.8</ele>
        <time>2019-08-15T14:39:50Z</time>
      </trkpt>
      <trkpt lat="42.0041180" lon="-5.8524460">
        <ele>711.8</ele>
        <time>2019-08-15T14:39:51Z</time>
      </trkpt>
      <trkpt lat="42.0041110" lon="-5.8524920">
        <ele>711.8</ele>
        <time>2019-08-15T14:39:52Z</time>
      </trkpt>
      <trkpt lat="42.0041050" lon="-5.8525500">
        <ele>711.8</ele>
        <time>2019-08-15T14:39:53Z</time>
      </trkpt>
      <trkpt lat="42.0040960" lon="-5.8526060">
        <ele>711.8</ele>
        <time>2019-08-15T14:39:54Z</time>
      </trkpt>
      <trkpt lat="42.0040870" lon="-5.8526600">
        <ele>711.8</ele>
        <time>2019-08-15T14:39:55Z</time>
      </trkpt>
      <trkpt lat="42.0040790" lon="-5.8527140">
        <ele>711.8</ele>
        <time>2019-08-15T14:39:56Z</time>
      </trkpt>
      <trkpt lat="42.0040730" lon="-5.8527690">
        <ele>711.8</ele>
        <time>2019-08-15T14:39:57Z</time>
      </trkpt>
      <trkpt lat="42.0040640" lon="-5.8528300">
        <ele>711.8</ele>
        <time>2019-08-15T14:39:58Z</time>
      </trkpt>
      <trkpt lat="42.0040550" lon="-5.8528880">
        <ele>711.9</ele>
        <time>2019-08-15T14:39:59Z</time>
      </trkpt>
      <trkpt lat="42.0040480" lon="-5.8529380">
        <ele>711.9</ele>
        <time>2019-08-15T14:40:00Z</time>
      </trkpt>
      <trkpt lat="42.0040410" lon="-5.8529830">
        <ele>711.9</ele>
        <time>2019-08-15T14:40:01Z</time>
      </trkpt>
      <trkpt lat="42.0040360" lon="-5.8530470">
        <ele>711.9</ele>
        <time>2019-08-15T14:40:02Z</time>
      </trkpt>
      <trkpt lat="42.0040260" lon="-5.8531040">
        <ele>711.9</ele>
        <time>2019-08-15T14:40:03Z</time>
      </trkpt>
      <trkpt lat="42.0040200" lon="-5.8531670">
        <ele>711.9</ele>
        <time>2019-08-15T14:40:04Z</time>
      </trkpt>
      <trkpt lat="42.0040160" lon="-5.8532330">
        <ele>711.9</ele>
        <time>2019-08-15T14:40:05Z</time>
      </trkpt>
      <trkpt lat="42.0040090" lon="-5.8532930">
        <ele>711.9</ele>
        <time>2019-08-15T14:40:06Z</time>
      </trkpt>
      <trkpt lat="42.0040010" lon="-5.8533480">
        <ele>711.9</ele>
        <time>2019-08-15T14:40:07Z</time>
      </trkpt>
      <trkpt lat="42.0039940" lon="-5.8534010">
        <ele>711.9</ele>
        <time>2019-08-15T14:40:08Z</time>
      </trkpt>
      <trkpt lat="42.0039860" lon="-5.8534470">
        <ele>711.9</ele>
        <time>2019-08-15T14:40:09Z</time>
      </trkpt>
      <trkpt lat="42.0039700" lon="-5.8534960">
        <ele>711.9</ele>
        <time>2019-08-15T14:40:10Z</time>
      </trkpt>
      <trkpt lat="42.0039530" lon="-5.8535500">
        <ele>711.9</ele>
        <time>2019-08-15T14:40:11Z</time>
      </trkpt>
      <trkpt lat="42.0039410" lon="-5.8536150">
        <ele>711.9</ele>
        <time>2019-08-15T14:40:12Z</time>
      </trkpt>
      <trkpt lat="42.0039280" lon="-5.8536840">
        <ele>711.9</ele>
        <time>2019-08-15T14:40:13Z</time>
      </trkpt>
      <trkpt lat="42.0039140" lon="-5.8537490">
        <ele>711.8</ele>
        <time>2019-08-15T14:40:14Z</time>
      </trkpt>
      <trkpt lat="42.0039010" lon="-5.8538160">
        <ele>711.8</ele>
        <time>2019-08-15T14:40:15Z</time>
      </trkpt>
      <trkpt lat="42.0038890" lon="-5.8538830">
        <ele>711.7</ele>
        <time>2019-08-15T14:40:16Z</time>
      </trkpt>
      <trkpt lat="42.0038790" lon="-5.8539470">
        <ele>711.6</ele>
        <time>2019-08-15T14:40:17Z</time>
      </trkpt>
      <trkpt lat="42.0038570" lon="-5.8540220">
        <ele>711.5</ele>
        <time>2019-08-15T14:40:18Z</time>
      </trkpt>
      <trkpt lat="42.0038410" lon="-5.8540810">
        <ele>711.4</ele>
        <time>2019-08-15T14:40:19Z</time>
      </trkpt>
      <trkpt lat="42.0038310" lon="-5.8541420">
        <ele>711.3</ele>
        <time>2019-08-15T14:40:20Z</time>
      </trkpt>
      <trkpt lat="42.0038240" lon="-5.8542060">
        <ele>711.2</ele>
        <time>2019-08-15T14:40:21Z</time>
      </trkpt>
      <trkpt lat="42.0038140" lon="-5.8542720">
        <ele>711.0</ele>
        <time>2019-08-15T14:40:22Z</time>
      </trkpt>
      <trkpt lat="42.0038040" lon="-5.8543320">
        <ele>710.9</ele>
        <time>2019-08-15T14:40:23Z</time>
      </trkpt>
      <trkpt lat="42.0037910" lon="-5.8544040">
        <ele>710.7</ele>
        <time>2019-08-15T14:40:24Z</time>
      </trkpt>
      <trkpt lat="42.0037820" lon="-5.8544810">
        <ele>710.5</ele>
        <time>2019-08-15T14:40:25Z</time>
      </trkpt>
      <trkpt lat="42.0037680" lon="-5.8545650">
        <ele>710.4</ele>
        <time>2019-08-15T14:40:26Z</time>
      </trkpt>
      <trkpt lat="42.0037550" lon="-5.8546450">
        <ele>710.2</ele>
        <time>2019-08-15T14:40:27Z</time>
      </trkpt>
      <trkpt lat="42.0037440" lon="-5.8547170">
        <ele>710.2</ele>
        <time>2019-08-15T14:40:28Z</time>
      </trkpt>
      <trkpt lat="42.0037360" lon="-5.8547960">
        <ele>710.2</ele>
        <time>2019-08-15T14:40:29Z</time>
      </trkpt>
      <trkpt lat="42.0037290" lon="-5.8548690">
        <ele>710.1</ele>
        <time>2019-08-15T14:40:30Z</time>
      </trkpt>
      <trkpt lat="42.0037260" lon="-5.8549400">
        <ele>710.1</ele>
        <time>2019-08-15T14:40:31Z</time>
      </trkpt>
      <trkpt lat="42.0037270" lon="-5.8550090">
        <ele>710.0</ele>
        <time>2019-08-15T14:40:32Z</time>
      </trkpt>
      <trkpt lat="42.0037270" lon="-5.8550810">
        <ele>709.9</ele>
        <time>2019-08-15T14:40:33Z</time>
      </trkpt>
      <trkpt lat="42.0037260" lon="-5.8551560">
        <ele>709.9</ele>
        <time>2019-08-15T14:40:34Z</time>
      </trkpt>
      <trkpt lat="42.0037270" lon="-5.8552300">
        <ele>709.8</ele>
        <time>2019-08-15T14:40:35Z</time>
      </trkpt>
      <trkpt lat="42.0037270" lon="-5.8553070">
        <ele>709.7</ele>
        <time>2019-08-15T14:40:36Z</time>
      </trkpt>
      <trkpt lat="42.0037260" lon="-5.8553810">
        <ele>709.6</ele>
        <time>2019-08-15T14:40:37Z</time>
      </trkpt>
      <trkpt lat="42.0037240" lon="-5.8554480">
        <ele>709.5</ele>
        <time>2019-08-15T14:40:38Z</time>
      </trkpt>
      <trkpt lat="42.0037210" lon="-5.8555130">
        <ele>709.4</ele>
        <time>2019-08-15T14:40:39Z</time>
      </trkpt>
      <trkpt lat="42.0037180" lon="-5.8555800">
        <ele>709.3</ele>
        <time>2019-08-15T14:40:40Z</time>
      </trkpt>
      <trkpt lat="42.0037110" lon="-5.8556470">
        <ele>709.3</ele>
        <time>2019-08-15T14:40:41Z</time>
      </trkpt>
      <trkpt lat="42.0037070" lon="-5.8557170">
        <ele>709.3</ele>
        <time>2019-08-15T14:40:42Z</time>
      </trkpt>
      <trkpt lat="42.0036990" lon="-5.8557900">
        <ele>709.4</ele>
        <time>2019-08-15T14:40:43Z</time>
      </trkpt>
      <trkpt lat="42.0036940" lon="-5.8558630">
        <ele>709.5</ele>
        <time>2019-08-15T14:40:44Z</time>
      </trkpt>
      <trkpt lat="42.0036890" lon="-5.8559300">
        <ele>709.7</ele>
        <time>2019-08-15T14:40:45Z</time>
      </trkpt>
      <trkpt lat="42.0036800" lon="-5.8559910">
        <ele>709.8</ele>
        <time>2019-08-15T14:40:46Z</time>
      </trkpt>
      <trkpt lat="42.0036670" lon="-5.8560490">
        <ele>710.0</ele>
        <time>2019-08-15T14:40:47Z</time>
      </trkpt>
      <trkpt lat="42.0036560" lon="-5.8561170">
        <ele>710.2</ele>
        <time>2019-08-15T14:40:48Z</time>
      </trkpt>
      <trkpt lat="42.0036540" lon="-5.8561840">
        <ele>710.4</ele>
        <time>2019-08-15T14:40:49Z</time>
      </trkpt>
      <trkpt lat="42.0036550" lon="-5.8562470">
        <ele>710.6</ele>
        <time>2019-08-15T14:40:50Z</time>
      </trkpt>
      <trkpt lat="42.0036540" lon="-5.8563180">
        <ele>710.7</ele>
        <time>2019-08-15T14:40:51Z</time>
      </trkpt>
      <trkpt lat="42.0036570" lon="-5.8563840">
        <ele>710.8</ele>
        <time>2019-08-15T14:40:52Z</time>
      </trkpt>
      <trkpt lat="42.0036650" lon="-5.8564440">
        <ele>711.0</ele>
        <time>2019-08-15T14:40:53Z</time>
      </trkpt>
      <trkpt lat="42.0036770" lon="-5.8565150">
        <ele>710.9</ele>
        <time>2019-08-15T14:40:54Z</time>
      </trkpt>
      <trkpt lat="42.0036880" lon="-5.8565800">
        <ele>711.0</ele>
        <time>2019-08-15T14:40:55Z</time>
      </trkpt>
      <trkpt lat="42.0036950" lon="-5.8566480">
        <ele>711.1</ele>
        <time>2019-08-15T14:40:56Z</time>
      </trkpt>
      <trkpt lat="42.0037020" lon="-5.8567150">
        <ele>711.2</ele>
        <time>2019-08-15T14:40:57Z</time>
      </trkpt>
      <trkpt lat="42.0037060" lon="-5.8567870">
        <ele>711.3</ele>
        <time>2019-08-15T14:40:58Z</time>
      </trkpt>
      <trkpt lat="42.0037070" lon="-5.8568590">
        <ele>711.3</ele>
        <time>2019-08-15T14:40:59Z</time>
      </trkpt>
      <trkpt lat="42.0037080" lon="-5.8569310">
        <ele>711.5</ele>
        <time>2019-08-15T14:41:00Z</time>
      </trkpt>
      <trkpt lat="42.0037110" lon="-5.8570010">
        <ele>711.6</ele>
        <time>2019-08-15T14:41:01Z</time>
      </trkpt>
      <trkpt lat="42.0037110" lon="-5.8570760">
        <ele>711.6</ele>
        <time>2019-08-15T14:41:02Z</time>
      </trkpt>
      <trkpt lat="42.0037140" lon="-5.8571510">
        <ele>711.7</ele>
        <time>2019-08-15T14:41:03Z</time>
      </trkpt>
      <trkpt lat="42.0037210" lon="-5.8572180">
        <ele>711.8</ele>
        <time>2019-08-15T14:41:04Z</time>
      </trkpt>
      <trkpt lat="42.0037350" lon="-5.8572740">
        <ele>711.8</ele>
        <time>2019-08-15T14:41:05Z</time>
      </trkpt>
      <trkpt lat="42.0037470" lon="-5.8573200">
        <ele>711.8</ele>
        <time>2019-08-15T14:41:06Z</time>
      </trkpt>
      <trkpt lat="42.0037570" lon="-5.8573740">
        <ele>711.8</ele>
        <time>2019-08-15T14:41:07Z</time>
      </trkpt>
      <trkpt lat="42.0037660" lon="-5.8574370">
        <ele>711.9</ele>
        <time>2019-08-15T14:41:08Z</time>
      </trkpt>
      <trkpt lat="42.0037720" lon="-5.8575070">
        <ele>711.8</ele>
        <time>2019-08-15T14:41:09Z</time>
      </trkpt>
      <trkpt lat="42.0037800" lon="-5.8575780">
        <ele>711.9</ele>
        <time>2019-08-15T14:41:10Z</time>
      </trkpt>
      <trkpt lat="42.0037820" lon="-5.8576460">
        <ele>712.0</ele>
        <time>2019-08-15T14:41:11Z</time>
      </trkpt>
      <trkpt lat="42.0037890" lon="-5.8577160">
        <ele>712.0</ele>
        <time>2019-08-15T14:41:12Z</time>
      </trkpt>
      <trkpt lat="42.0037940" lon="-5.8577840">
        <ele>712.1</ele>
        <time>2019-08-15T14:41:13Z</time>
      </trkpt>
      <trkpt lat="42.0037990" lon="-5.8578500">
        <ele>712.1</ele>
        <time>2019-08-15T14:41:14Z</time>
      </trkpt>
      <trkpt lat="42.0038050" lon="-5.8579160">
        <ele>712.1</ele>
        <time>2019-08-15T14:41:15Z</time>
      </trkpt>
      <trkpt lat="42.0038130" lon="-5.8579870">
        <ele>712.2</ele>
        <time>2019-08-15T14:41:16Z</time>
      </trkpt>
      <trkpt lat="42.0038220" lon="-5.8580560">
        <ele>712.2</ele>
        <time>2019-08-15T14:41:17Z</time>
      </trkpt>
      <trkpt lat="42.0038310" lon="-5.8581210">
        <ele>712.4</ele>
        <time>2019-08-15T14:41:18Z</time>
      </trkpt>
      <trkpt lat="42.0038440" lon="-5.8581760">
        <ele>712.4</ele>
        <time>2019-08-15T14:41:19Z</time>
      </trkpt>
      <trkpt lat="42.0038540" lon="-5.8582330">
        <ele>712.4</ele>
        <time>2019-08-15T14:41:20Z</time>
      </trkpt>
      <trkpt lat="42.0038640" lon="-5.8582950">
        <ele>712.6</ele>
        <time>2019-08-15T14:41:21Z</time>
      </trkpt>
      <trkpt lat="42.0038750" lon="-5.8583590">
        <ele>712.7</ele>
        <time>2019-08-15T14:41:22Z</time>
      </trkpt>
      <trkpt lat="42.0038900" lon="-5.8584190">
        <ele>712.9</ele>
        <time>2019-08-15T14:41:23Z</time>
      </trkpt>
      <trkpt lat="42.0038970" lon="-5.8584730">
        <ele>713.0</ele>
        <time>2019-08-15T14:41:24Z</time>
      </trkpt>
      <trkpt lat="42.0039020" lon="-5.8585300">
        <ele>713.1</ele>
        <time>2019-08-15T14:41:25Z</time>
      </trkpt>
      <trkpt lat="42.0039130" lon="-5.8585910">
        <ele>713.4</ele>
        <time>2019-08-15T14:41:26Z</time>
      </trkpt>
      <trkpt lat="42.0039250" lon="-5.8586470">
        <ele>713.5</ele>
        <time>2019-08-15T14:41:27Z</time>
      </trkpt>
      <trkpt lat="42.0039380" lon="-5.8587040">
        <ele>713.6</ele>
        <time>2019-08-15T14:41:28Z</time>
      </trkpt>
      <trkpt lat="42.0039510" lon="-5.8587660">
        <ele>713.8</ele>
        <time>2019-08-15T14:41:29Z</time>
      </trkpt>
      <trkpt lat="42.0039640" lon="-5.8588290">
        <ele>713.8</ele>
        <time>2019-08-15T14:41:30Z</time>
      </trkpt>
      <trkpt lat="42.0039750" lon="-5.8588910">
        <ele>713.9</ele>
        <time>2019-08-15T14:41:31Z</time>
      </trkpt>
      <trkpt lat="42.0039840" lon="-5.8589540">
        <ele>714.0</ele>
        <time>2019-08-15T14:41:32Z</time>
      </trkpt>
      <trkpt lat="42.0039950" lon="-5.8590190">
        <ele>713.9</ele>
        <time>2019-08-15T14:41:33Z</time>
      </trkpt>
      <trkpt lat="42.0040060" lon="-5.8590830">
        <ele>713.9</ele>
        <time>2019-08-15T14:41:34Z</time>
      </trkpt>
      <trkpt lat="42.0040160" lon="-5.8591480">
        <ele>713.8</ele>
        <time>2019-08-15T14:41:35Z</time>
      </trkpt>
      <trkpt lat="42.0040230" lon="-5.8592090">
        <ele>713.8</ele>
        <time>2019-08-15T14:41:36Z</time>
      </trkpt>
      <trkpt lat="42.0040320" lon="-5.8592680">
        <ele>713.6</ele>
        <time>2019-08-15T14:41:37Z</time>
      </trkpt>
      <trkpt lat="42.0040410" lon="-5.8593290">
        <ele>713.5</ele>
        <time>2019-08-15T14:41:38Z</time>
      </trkpt>
      <trkpt lat="42.0040510" lon="-5.8593910">
        <ele>713.4</ele>
        <time>2019-08-15T14:41:39Z</time>
      </trkpt>
      <trkpt lat="42.0040630" lon="-5.8594530">
        <ele>713.1</ele>
        <time>2019-08-15T14:41:40Z</time>
      </trkpt>
      <trkpt lat="42.0040750" lon="-5.8595180">
        <ele>713.0</ele>
        <time>2019-08-15T14:41:41Z</time>
      </trkpt>
      <trkpt lat="42.0040850" lon="-5.8595880">
        <ele>712.9</ele>
        <time>2019-08-15T14:41:42Z</time>
      </trkpt>
      <trkpt lat="42.0040950" lon="-5.8596600">
        <ele>712.7</ele>
        <time>2019-08-15T14:41:43Z</time>
      </trkpt>
      <trkpt lat="42.0041060" lon="-5.8597260">
        <ele>712.5</ele>
        <time>2019-08-15T14:41:44Z</time>
      </trkpt>
      <trkpt lat="42.0041130" lon="-5.8597900">
        <ele>712.4</ele>
        <time>2019-08-15T14:41:45Z</time>
      </trkpt>
      <trkpt lat="42.0041220" lon="-5.8598480">
        <ele>712.1</ele>
        <time>2019-08-15T14:41:46Z</time>
      </trkpt>
      <trkpt lat="42.0041320" lon="-5.8599010">
        <ele>712.1</ele>
        <time>2019-08-15T14:41:47Z</time>
      </trkpt>
      <trkpt lat="42.0041350" lon="-5.8599500">
        <ele>712.0</ele>
        <time>2019-08-15T14:41:48Z</time>
      </trkpt>
      <trkpt lat="42.0041410" lon="-5.8599970">
        <ele>711.9</ele>
        <time>2019-08-15T14:41:49Z</time>
      </trkpt>
      <trkpt lat="42.0041510" lon="-5.8600540">
        <ele>711.6</ele>
        <time>2019-08-15T14:41:50Z</time>
      </trkpt>
      <trkpt lat="42.0041590" lon="-5.8601150">
        <ele>711.2</ele>
        <time>2019-08-15T14:41:51Z</time>
      </trkpt>
      <trkpt lat="42.0041650" lon="-5.8601740">
        <ele>711.1</ele>
        <time>2019-08-15T14:41:52Z</time>
      </trkpt>
      <trkpt lat="42.0041720" lon="-5.8602350">
        <ele>710.8</ele>
        <time>2019-08-15T14:41:53Z</time>
      </trkpt>
      <trkpt lat="42.0041770" lon="-5.8602990">
        <ele>710.6</ele>
        <time>2019-08-15T14:41:54Z</time>
      </trkpt>
      <trkpt lat="42.0041830" lon="-5.8603630">
        <ele>710.1</ele>
        <time>2019-08-15T14:41:55Z</time>
      </trkpt>
      <trkpt lat="42.0041870" lon="-5.8604280">
        <ele>709.6</ele>
        <time>2019-08-15T14:41:56Z</time>
      </trkpt>
      <trkpt lat="42.0041920" lon="-5.8604960">
        <ele>709.1</ele>
        <time>2019-08-15T14:41:57Z</time>
      </trkpt>
      <trkpt lat="42.0041970" lon="-5.8605630">
        <ele>708.5</ele>
        <time>2019-08-15T14:41:58Z</time>
      </trkpt>
      <trkpt lat="42.0042040" lon="-5.8606280">
        <ele>708.3</ele>
        <time>2019-08-15T14:41:59Z</time>
      </trkpt>
      <trkpt lat="42.0042100" lon="-5.8606990">
        <ele>707.9</ele>
        <time>2019-08-15T14:42:00Z</time>
      </trkpt>
      <trkpt lat="42.0042140" lon="-5.8607670">
        <ele>707.7</ele>
        <time>2019-08-15T14:42:01Z</time>
      </trkpt>
      <trkpt lat="42.0042190" lon="-5.8608340">
        <ele>707.5</ele>
        <time>2019-08-15T14:42:02Z</time>
      </trkpt>
      <trkpt lat="42.0042250" lon="-5.8609010">
        <ele>707.5</ele>
        <time>2019-08-15T14:42:03Z</time>
      </trkpt>
      <trkpt lat="42.0042300" lon="-5.8609660">
        <ele>707.4</ele>
        <time>2019-08-15T14:42:04Z</time>
      </trkpt>
      <trkpt lat="42.0042340" lon="-5.8610290">
        <ele>707.4</ele>
        <time>2019-08-15T14:42:05Z</time>
      </trkpt>
      <trkpt lat="42.0042380" lon="-5.8610910">
        <ele>707.5</ele>
        <time>2019-08-15T14:42:06Z</time>
      </trkpt>
      <trkpt lat="42.0042440" lon="-5.8611500">
        <ele>707.5</ele>
        <time>2019-08-15T14:42:07Z</time>
      </trkpt>
      <trkpt lat="42.0042500" lon="-5.8612100">
        <ele>707.6</ele>
        <time>2019-08-15T14:42:08Z</time>
      </trkpt>
      <trkpt lat="42.0042540" lon="-5.8612740">
        <ele>707.7</ele>
        <time>2019-08-15T14:42:09Z</time>
      </trkpt>
      <trkpt lat="42.0042570" lon="-5.8613370">
        <ele>707.7</ele>
        <time>2019-08-15T14:42:10Z</time>
      </trkpt>
      <trkpt lat="42.0042610" lon="-5.8613990">
        <ele>707.7</ele>
        <time>2019-08-15T14:42:11Z</time>
      </trkpt>
      <trkpt lat="42.0042660" lon="-5.8614570">
        <ele>707.8</ele>
        <time>2019-08-15T14:42:12Z</time>
      </trkpt>
      <trkpt lat="42.0042700" lon="-5.8615150">
        <ele>707.8</ele>
        <time>2019-08-15T14:42:13Z</time>
      </trkpt>
      <trkpt lat="42.0042720" lon="-5.8615720">
        <ele>707.8</ele>
        <time>2019-08-15T14:42:14Z</time>
      </trkpt>
      <trkpt lat="42.0042770" lon="-5.8616340">
        <ele>707.9</ele>
        <time>2019-08-15T14:42:15Z</time>
      </trkpt>
      <trkpt lat="42.0042810" lon="-5.8616970">
        <ele>708.0</ele>
        <time>2019-08-15T14:42:16Z</time>
      </trkpt>
      <trkpt lat="42.0042830" lon="-5.8617600">
        <ele>708.0</ele>
        <time>2019-08-15T14:42:17Z</time>
      </trkpt>
      <trkpt lat="42.0042860" lon="-5.8618230">
        <ele>708.0</ele>
        <time>2019-08-15T14:42:18Z</time>
      </trkpt>
      <trkpt lat="42.0042880" lon="-5.8618880">
        <ele>708.1</ele>
        <time>2019-08-15T14:42:19Z</time>
      </trkpt>
      <trkpt lat="42.0042900" lon="-5.8619510">
        <ele>708.1</ele>
        <time>2019-08-15T14:42:20Z</time>
      </trkpt>
      <trkpt lat="42.0042910" lon="-5.8620160">
        <ele>708.2</ele>
        <time>2019-08-15T14:42:21Z</time>
      </trkpt>
      <trkpt lat="42.0042920" lon="-5.8620810">
        <ele>708.2</ele>
        <time>2019-08-15T14:42:22Z</time>
      </trkpt>
      <trkpt lat="42.0042940" lon="-5.8621480">
        <ele>708.3</ele>
        <time>2019-08-15T14:42:23Z</time>
      </trkpt>
      <trkpt lat="42.0042970" lon="-5.8622140">
        <ele>708.4</ele>
        <time>2019-08-15T14:42:24Z</time>
      </trkpt>
      <trkpt lat="42.0042980" lon="-5.8622780">
        <ele>708.5</ele>
        <time>2019-08-15T14:42:25Z</time>
      </trkpt>
      <trkpt lat="42.0043000" lon="-5.8623410">
        <ele>708.6</ele>
        <time>2019-08-15T14:42:26Z</time>
      </trkpt>
      <trkpt lat="42.0043000" lon="-5.8624040">
        <ele>708.7</ele>
        <time>2019-08-15T14:42:27Z</time>
      </trkpt>
      <trkpt lat="42.0042970" lon="-5.8624680">
        <ele>708.8</ele>
        <time>2019-08-15T14:42:28Z</time>
      </trkpt>
      <trkpt lat="42.0042940" lon="-5.8625330">
        <ele>708.9</ele>
        <time>2019-08-15T14:42:29Z</time>
      </trkpt>
      <trkpt lat="42.0042910" lon="-5.8625990">
        <ele>709.1</ele>
        <time>2019-08-15T14:42:30Z</time>
      </trkpt>
      <trkpt lat="42.0042880" lon="-5.8626680">
        <ele>709.3</ele>
        <time>2019-08-15T14:42:31Z</time>
      </trkpt>
      <trkpt lat="42.0042830" lon="-5.8627360">
        <ele>709.5</ele>
        <time>2019-08-15T14:42:32Z</time>
      </trkpt>
      <trkpt lat="42.0042760" lon="-5.8628050">
        <ele>709.7</ele>
        <time>2019-08-15T14:42:33Z</time>
      </trkpt>
      <trkpt lat="42.0042720" lon="-5.8628740">
        <ele>709.9</ele>
        <time>2019-08-15T14:42:34Z</time>
      </trkpt>
      <trkpt lat="42.0042700" lon="-5.8629410">
        <ele>710.2</ele>
        <time>2019-08-15T14:42:35Z</time>
      </trkpt>
      <trkpt lat="42.0042670" lon="-5.8630050">
        <ele>710.4</ele>
        <time>2019-08-15T14:42:36Z</time>
      </trkpt>
      <trkpt lat="42.0042640" lon="-5.8630670">
        <ele>710.7</ele>
        <time>2019-08-15T14:42:37Z</time>
      </trkpt>
      <trkpt lat="42.0042610" lon="-5.8631310">
        <ele>710.9</ele>
        <time>2019-08-15T14:42:38Z</time>
      </trkpt>
      <trkpt lat="42.0042590" lon="-5.8631930">
        <ele>711.1</ele>
        <time>2019-08-15T14:42:39Z</time>
      </trkpt>
      <trkpt lat="42.0042570" lon="-5.8632540">
        <ele>711.2</ele>
        <time>2019-08-15T14:42:40Z</time>
      </trkpt>
      <trkpt lat="42.0042580" lon="-5.8633150">
        <ele>711.2</ele>
        <time>2019-08-15T14:42:41Z</time>
      </trkpt>
      <trkpt lat="42.0042560" lon="-5.8633760">
        <ele>711.2</ele>
        <time>2019-08-15T14:42:42Z</time>
      </trkpt>
      <trkpt lat="42.0042530" lon="-5.8634390">
        <ele>711.1</ele>
        <time>2019-08-15T14:42:43Z</time>
      </trkpt>
      <trkpt lat="42.0042500" lon="-5.8635040">
        <ele>711.0</ele>
        <time>2019-08-15T14:42:44Z</time>
      </trkpt>
      <trkpt lat="42.0042470" lon="-5.8635680">
        <ele>710.8</ele>
        <time>2019-08-15T14:42:45Z</time>
      </trkpt>
      <trkpt lat="42.0042460" lon="-5.8636330">
        <ele>710.7</ele>
        <time>2019-08-15T14:42:46Z</time>
      </trkpt>
      <trkpt lat="42.0042450" lon="-5.8637000">
        <ele>710.6</ele>
        <time>2019-08-15T14:42:47Z</time>
      </trkpt>
      <trkpt lat="42.0042420" lon="-5.8637670">
        <ele>710.5</ele>
        <time>2019-08-15T14:42:48Z</time>
      </trkpt>
      <trkpt lat="42.0042390" lon="-5.8638380">
        <ele>710.4</ele>
        <time>2019-08-15T14:42:49Z</time>
      </trkpt>
      <trkpt lat="42.0042370" lon="-5.8639090">
        <ele>710.3</ele>
        <time>2019-08-15T14:42:50Z</time>
      </trkpt>
      <trkpt lat="42.0042360" lon="-5.8639800">
        <ele>710.2</ele>
        <time>2019-08-15T14:42:51Z</time>
      </trkpt>
      <trkpt lat="42.0042360" lon="-5.8640490">
        <ele>710.1</ele>
        <time>2019-08-15T14:42:52Z</time>
      </trkpt>
      <trkpt lat="42.0042360" lon="-5.8641200">
        <ele>710.1</ele>
        <time>2019-08-15T14:42:53Z</time>
      </trkpt>
      <trkpt lat="42.0042360" lon="-5.8641900">
        <ele>710.0</ele>
        <time>2019-08-15T14:42:54Z</time>
      </trkpt>
      <trkpt lat="42.0042360" lon="-5.8642610">
        <ele>710.0</ele>
        <time>2019-08-15T14:42:55Z</time>
      </trkpt>
      <trkpt lat="42.0042390" lon="-5.8643340">
        <ele>709.9</ele>
        <time>2019-08-15T14:42:56Z</time>
      </trkpt>
      <trkpt lat="42.0042430" lon="-5.8644060">
        <ele>709.9</ele>
        <time>2019-08-15T14:42:57Z</time>
      </trkpt>
      <trkpt lat="42.0042470" lon="-5.8644740">
        <ele>709.9</ele>
        <time>2019-08-15T14:42:58Z</time>
      </trkpt>
      <trkpt lat="42.0042500" lon="-5.8645410">
        <ele>709.9</ele>
        <time>2019-08-15T14:42:59Z</time>
      </trkpt>
      <trkpt lat="42.0042540" lon="-5.8646110">
        <ele>709.9</ele>
        <time>2019-08-15T14:43:00Z</time>
      </trkpt>
      <trkpt lat="42.0042600" lon="-5.8646810">
        <ele>709.8</ele>
        <time>2019-08-15T14:43:01Z</time>
      </trkpt>
      <trkpt lat="42.0042660" lon="-5.8647510">
        <ele>709.8</ele>
        <time>2019-08-15T14:43:02Z</time>
      </trkpt>
      <trkpt lat="42.0042720" lon="-5.8648250">
        <ele>709.8</ele>
        <time>2019-08-15T14:43:03Z</time>
      </trkpt>
      <trkpt lat="42.0042760" lon="-5.8648970">
        <ele>709.8</ele>
        <time>2019-08-15T14:43:04Z</time>
      </trkpt>
      <trkpt lat="42.0042800" lon="-5.8649660">
        <ele>709.9</ele>
        <time>2019-08-15T14:43:05Z</time>
      </trkpt>
      <trkpt lat="42.0042820" lon="-5.8650340">
        <ele>709.9</ele>
        <time>2019-08-15T14:43:06Z</time>
      </trkpt>
      <trkpt lat="42.0042840" lon="-5.8651040">
        <ele>710.0</ele>
        <time>2019-08-15T14:43:07Z</time>
      </trkpt>
      <trkpt lat="42.0042870" lon="-5.8651740">
        <ele>710.0</ele>
        <time>2019-08-15T14:43:08Z</time>
      </trkpt>
      <trkpt lat="42.0042900" lon="-5.8652440">
        <ele>710.1</ele>
        <time>2019-08-15T14:43:09Z</time>
      </trkpt>
      <trkpt lat="42.0042930" lon="-5.8653120">
        <ele>710.1</ele>
        <time>2019-08-15T14:43:10Z</time>
      </trkpt>
      <trkpt lat="42.0042950" lon="-5.8653800">
        <ele>710.2</ele>
        <time>2019-08-15T14:43:11Z</time>
      </trkpt>
      <trkpt lat="42.0042970" lon="-5.8654460">
        <ele>710.2</ele>
        <time>2019-08-15T14:43:12Z</time>
      </trkpt>
      <trkpt lat="42.0043000" lon="-5.8655140">
        <ele>710.3</ele>
        <time>2019-08-15T14:43:13Z</time>
      </trkpt>
      <trkpt lat="42.0043030" lon="-5.8655840">
        <ele>710.4</ele>
        <time>2019-08-15T14:43:14Z</time>
      </trkpt>
      <trkpt lat="42.0043080" lon="-5.8656540">
        <ele>710.4</ele>
        <time>2019-08-15T14:43:15Z</time>
      </trkpt>
      <trkpt lat="42.0043110" lon="-5.8657230">
        <ele>710.5</ele>
        <time>2019-08-15T14:43:16Z</time>
      </trkpt>
      <trkpt lat="42.0043150" lon="-5.8657900">
        <ele>710.6</ele>
        <time>2019-08-15T14:43:17Z</time>
      </trkpt>
      <trkpt lat="42.0043200" lon="-5.8658550">
        <ele>710.6</ele>
        <time>2019-08-15T14:43:18Z</time>
      </trkpt>
      <trkpt lat="42.0043230" lon="-5.8659210">
        <ele>710.7</ele>
        <time>2019-08-15T14:43:19Z</time>
      </trkpt>
      <trkpt lat="42.0043260" lon="-5.8659880">
        <ele>710.8</ele>
        <time>2019-08-15T14:43:20Z</time>
      </trkpt>
      <trkpt lat="42.0043310" lon="-5.8660560">
        <ele>710.8</ele>
        <time>2019-08-15T14:43:21Z</time>
      </trkpt>
      <trkpt lat="42.0043340" lon="-5.8661250">
        <ele>710.8</ele>
        <time>2019-08-15T14:43:22Z</time>
      </trkpt>
      <trkpt lat="42.0043370" lon="-5.8661930">
        <ele>710.9</ele>
        <time>2019-08-15T14:43:23Z</time>
      </trkpt>
      <trkpt lat="42.0043400" lon="-5.8662580">
        <ele>710.9</ele>
        <time>2019-08-15T14:43:24Z</time>
      </trkpt>
      <trkpt lat="42.0043440" lon="-5.8663200">
        <ele>711.1</ele>
        <time>2019-08-15T14:43:25Z</time>
      </trkpt>
      <trkpt lat="42.0043500" lon="-5.8663740">
        <ele>711.1</ele>
        <time>2019-08-15T14:43:26Z</time>
      </trkpt>
      <trkpt lat="42.0043540" lon="-5.8664220">
        <ele>711.1</ele>
        <time>2019-08-15T14:43:27Z</time>
      </trkpt>
      <trkpt lat="42.0043560" lon="-5.8664730">
        <ele>711.2</ele>
        <time>2019-08-15T14:43:28Z</time>
      </trkpt>
      <trkpt lat="42.0043590" lon="-5.8665260">
        <ele>711.2</ele>
        <time>2019-08-15T14:43:29Z</time>
      </trkpt>
      <trkpt lat="42.0043620" lon="-5.8665780">
        <ele>711.3</ele>
        <time>2019-08-15T14:43:30Z</time>
      </trkpt>
      <trkpt lat="42.0043650" lon="-5.8666330">
        <ele>711.3</ele>
        <time>2019-08-15T14:43:31Z</time>
      </trkpt>
      <trkpt lat="42.0043670" lon="-5.8666940">
        <ele>711.4</ele>
        <time>2019-08-15T14:43:32Z</time>
      </trkpt>
      <trkpt lat="42.0043680" lon="-5.8667560">
        <ele>711.5</ele>
        <time>2019-08-15T14:43:33Z</time>
      </trkpt>
      <trkpt lat="42.0043680" lon="-5.8668180">
        <ele>711.6</ele>
        <time>2019-08-15T14:43:34Z</time>
      </trkpt>
      <trkpt lat="42.0043700" lon="-5.8668800">
        <ele>711.7</ele>
        <time>2019-08-15T14:43:35Z</time>
      </trkpt>
      <trkpt lat="42.0043730" lon="-5.8669420">
        <ele>711.7</ele>
        <time>2019-08-15T14:43:36Z</time>
      </trkpt>
      <trkpt lat="42.0043730" lon="-5.8670020">
        <ele>711.8</ele>
        <time>2019-08-15T14:43:37Z</time>
      </trkpt>
      <trkpt lat="42.0043720" lon="-5.8670570">
        <ele>711.9</ele>
        <time>2019-08-15T14:43:38Z</time>
      </trkpt>
      <trkpt lat="42.0043670" lon="-5.8671090">
        <ele>711.9</ele>
        <time>2019-08-15T14:43:39Z</time>
      </trkpt>
      <trkpt lat="42.0043610" lon="-5.8671590">
        <ele>712.0</ele>
        <time>2019-08-15T14:43:40Z</time>
      </trkpt>
      <trkpt lat="42.0043560" lon="-5.8672050">
        <ele>712.0</ele>
        <time>2019-08-15T14:43:41Z</time>
      </trkpt>
      <trkpt lat="42.0043520" lon="-5.8672470">
        <ele>712.1</ele>
        <time>2019-08-15T14:43:42Z</time>
      </trkpt>
      <trkpt lat="42.0043510" lon="-5.8672880">
        <ele>712.1</ele>
        <time>2019-08-15T14:43:43Z</time>
      </trkpt>
      <trkpt lat="42.0043480" lon="-5.8673240">
        <ele>712.1</ele>
        <time>2019-08-15T14:43:44Z</time>
      </trkpt>
      <trkpt lat="42.0043470" lon="-5.8673850">
        <ele>712.2</ele>
        <time>2019-08-15T14:43:46Z</time>
      </trkpt>
      <trkpt lat="42.0043570" lon="-5.8674530">
        <ele>712.2</ele>
        <time>2019-08-15T14:43:48Z</time>
      </trkpt>
      <trkpt lat="42.0043690" lon="-5.8675300">
        <ele>712.3</ele>
        <time>2019-08-15T14:43:50Z</time>
      </trkpt>
      <trkpt lat="42.0043720" lon="-5.8675770">
        <ele>712.3</ele>
        <time>2019-08-15T14:43:51Z</time>
      </trkpt>
      <trkpt lat="42.0043680" lon="-5.8676230">
        <ele>712.3</ele>
        <time>2019-08-15T14:43:52Z</time>
      </trkpt>
      <trkpt lat="42.0043620" lon="-5.8676610">
        <ele>712.4</ele>
        <time>2019-08-15T14:43:53Z</time>
      </trkpt>
      <trkpt lat="42.0043570" lon="-5.8676910">
        <ele>712.4</ele>
        <time>2019-08-15T14:43:54Z</time>
      </trkpt>
      <trkpt lat="42.0043480" lon="-5.8677360">
        <ele>712.4</ele>
        <time>2019-08-15T14:43:56Z</time>
      </trkpt>
      <trkpt lat="42.0043410" lon="-5.8677790">
        <ele>712.4</ele>
        <time>2019-08-15T14:43:58Z</time>
      </trkpt>
      <trkpt lat="42.0043410" lon="-5.8677940">
        <ele>712.4</ele>
        <time>2019-08-15T14:44:01Z</time>
      </trkpt>
      <trkpt lat="42.0043110" lon="-5.8678900">
        <ele>712.4</ele>
        <time>2019-08-15T14:44:27Z</time>
      </trkpt>
      <trkpt lat="42.0042950" lon="-5.8679380">
        <ele>712.4</ele>
        <time>2019-08-15T14:44:29Z</time>
      </trkpt>
      <trkpt lat="42.0042790" lon="-5.8679990">
        <ele>712.4</ele>
        <time>2019-08-15T14:44:31Z</time>
      </trkpt>
      <trkpt lat="42.0042540" lon="-5.8680660">
        <ele>712.4</ele>
        <time>2019-08-15T14:44:33Z</time>
      </trkpt>
      <trkpt lat="42.0042400" lon="-5.8681000">
        <ele>712.5</ele>
        <time>2019-08-15T14:44:34Z</time>
      </trkpt>
      <trkpt lat="42.0042270" lon="-5.8681330">
        <ele>712.5</ele>
        <time>2019-08-15T14:44:35Z</time>
      </trkpt>
      <trkpt lat="42.0042130" lon="-5.8681670">
        <ele>712.4</ele>
        <time>2019-08-15T14:44:36Z</time>
      </trkpt>
      <trkpt lat="42.0042030" lon="-5.8682030">
        <ele>712.3</ele>
        <time>2019-08-15T14:44:37Z</time>
      </trkpt>
      <trkpt lat="42.0041960" lon="-5.8682430">
        <ele>712.3</ele>
        <time>2019-08-15T14:44:38Z</time>
      </trkpt>
      <trkpt lat="42.0041860" lon="-5.8682820">
        <ele>712.1</ele>
        <time>2019-08-15T14:44:39Z</time>
      </trkpt>
      <trkpt lat="42.0041790" lon="-5.8683160">
        <ele>711.8</ele>
        <time>2019-08-15T14:44:40Z</time>
      </trkpt>
      <trkpt lat="42.0041710" lon="-5.8683590">
        <ele>711.6</ele>
        <time>2019-08-15T14:44:41Z</time>
      </trkpt>
      <trkpt lat="42.0041670" lon="-5.8683890">
        <ele>711.4</ele>
        <time>2019-08-15T14:44:42Z</time>
      </trkpt>
      <trkpt lat="42.0041410" lon="-5.8684370">
        <ele>710.9</ele>
        <time>2019-08-15T14:44:44Z</time>
      </trkpt>
      <trkpt lat="42.0041240" lon="-5.8684860">
        <ele>710.7</ele>
        <time>2019-08-15T14:44:46Z</time>
      </trkpt>
      <trkpt lat="42.0041260" lon="-5.8685330">
        <ele>710.6</ele>
        <time>2019-08-15T14:44:48Z</time>
      </trkpt>
      <trkpt lat="42.0041150" lon="-5.8685830">
        <ele>710.3</ele>
        <time>2019-08-15T14:44:50Z</time>
      </trkpt>
      <trkpt lat="42.0041100" lon="-5.8686230">
        <ele>710.4</ele>
        <time>2019-08-15T14:44:52Z</time>
      </trkpt>
      <trkpt lat="42.0040970" lon="-5.8686750">
        <ele>710.6</ele>
        <time>2019-08-15T14:44:54Z</time>
      </trkpt>
      <trkpt lat="42.0040900" lon="-5.8687380">
        <ele>710.7</ele>
        <time>2019-08-15T14:44:56Z</time>
      </trkpt>
      <trkpt lat="42.0040940" lon="-5.8687930">
        <ele>710.8</ele>
        <time>2019-08-15T14:44:58Z</time>
      </trkpt>
      <trkpt lat="42.0040960" lon="-5.8688450">
        <ele>710.9</ele>
        <time>2019-08-15T14:45:00Z</time>
      </trkpt>
      <trkpt lat="42.0040940" lon="-5.8688820">
        <ele>710.9</ele>
        <time>2019-08-15T14:45:02Z</time>
      </trkpt>
      <trkpt lat="42.0040940" lon="-5.8689300">
        <ele>710.9</ele>
        <time>2019-08-15T14:45:05Z</time>
      </trkpt>
      <trkpt lat="42.0040960" lon="-5.8689890">
        <ele>710.8</ele>
        <time>2019-08-15T14:45:08Z</time>
      </trkpt>
      <trkpt lat="42.0041050" lon="-5.8690500">
        <ele>710.7</ele>
        <time>2019-08-15T14:45:10Z</time>
      </trkpt>
      <trkpt lat="42.0041090" lon="-5.8690960">
        <ele>710.6</ele>
        <time>2019-08-15T14:45:12Z</time>
      </trkpt>
      <trkpt lat="42.0040960" lon="-5.8691400">
        <ele>710.5</ele>
        <time>2019-08-15T14:45:15Z</time>
      </trkpt>
      <trkpt lat="42.0040840" lon="-5.8691960">
        <ele>710.3</ele>
        <time>2019-08-15T14:45:18Z</time>
      </trkpt>
      <trkpt lat="42.0040810" lon="-5.8692220">
        <ele>710.3</ele>
        <time>2019-08-15T14:45:21Z</time>
      </trkpt>
      <trkpt lat="42.0040970" lon="-5.8692630">
        <ele>710.3</ele>
        <time>2019-08-15T14:45:25Z</time>
      </trkpt>
      <trkpt lat="42.0040990" lon="-5.8693080">
        <ele>710.2</ele>
        <time>2019-08-15T14:45:28Z</time>
      </trkpt>
      <trkpt lat="42.0041000" lon="-5.8693620">
        <ele>710.2</ele>
        <time>2019-08-15T14:45:31Z</time>
      </trkpt>
      <trkpt lat="42.0040940" lon="-5.8694070">
        <ele>710.2</ele>
        <time>2019-08-15T14:45:33Z</time>
      </trkpt>
      <trkpt lat="42.0040950" lon="-5.8694510">
        <ele>710.2</ele>
        <time>2019-08-15T14:45:35Z</time>
      </trkpt>
      <trkpt lat="42.0040970" lon="-5.8694990">
        <ele>710.2</ele>
        <time>2019-08-15T14:45:37Z</time>
      </trkpt>
      <trkpt lat="42.0040980" lon="-5.8695430">
        <ele>710.2</ele>
        <time>2019-08-15T14:45:39Z</time>
      </trkpt>
      <trkpt lat="42.0041100" lon="-5.8695650">
        <ele>710.2</ele>
        <time>2019-08-15T14:45:41Z</time>
      </trkpt>
      <trkpt lat="42.0041150" lon="-5.8695720">
        <ele>710.2</ele>
        <time>2019-08-15T14:45:47Z</time>
      </trkpt>
      <trkpt lat="42.0041360" lon="-5.8696990">
        <ele>710.3</ele>
        <time>2019-08-15T14:46:41Z</time>
      </trkpt>
      <trkpt lat="42.0041410" lon="-5.8697560">
        <ele>710.3</ele>
        <time>2019-08-15T14:46:43Z</time>
      </trkpt>
      <trkpt lat="42.0041420" lon="-5.8698110">
        <ele>710.3</ele>
        <time>2019-08-15T14:46:45Z</time>
      </trkpt>
      <trkpt lat="42.0041420" lon="-5.8698700">
        <ele>710.3</ele>
        <time>2019-08-15T14:46:47Z</time>
      </trkpt>
      <trkpt lat="42.0041440" lon="-5.8699300">
        <ele>710.3</ele>
        <time>2019-08-15T14:46:49Z</time>
      </trkpt>
      <trkpt lat="42.0041460" lon="-5.8699880">
        <ele>710.4</ele>
        <time>2019-08-15T14:46:51Z</time>
      </trkpt>
      <trkpt lat="42.0041490" lon="-5.8700500">
        <ele>710.4</ele>
        <time>2019-08-15T14:46:53Z</time>
      </trkpt>
      <trkpt lat="42.0041510" lon="-5.8701100">
        <ele>710.4</ele>
        <time>2019-08-15T14:46:55Z</time>
      </trkpt>
      <trkpt lat="42.0041510" lon="-5.8701710">
        <ele>710.4</ele>
        <time>2019-08-15T14:46:57Z</time>
      </trkpt>
      <trkpt lat="42.0041490" lon="-5.8702290">
        <ele>710.4</ele>
        <time>2019-08-15T14:46:59Z</time>
      </trkpt>
      <trkpt lat="42.0041400" lon="-5.8702840">
        <ele>710.4</ele>
        <time>2019-08-15T14:47:01Z</time>
      </trkpt>
      <trkpt lat="42.0041330" lon="-5.8703400">
        <ele>710.4</ele>
        <time>2019-08-15T14:47:03Z</time>
      </trkpt>
      <trkpt lat="42.0041330" lon="-5.8704010">
        <ele>710.4</ele>
        <time>2019-08-15T14:47:05Z</time>
      </trkpt>
      <trkpt lat="42.0041330" lon="-5.8704580">
        <ele>710.4</ele>
        <time>2019-08-15T14:47:07Z</time>
      </trkpt>
      <trkpt lat="42.0041290" lon="-5.8705120">
        <ele>710.4</ele>
        <time>2019-08-15T14:47:09Z</time>
      </trkpt>
      <trkpt lat="42.0041250" lon="-5.8705670">
        <ele>710.5</ele>
        <time>2019-08-15T14:47:11Z</time>
      </trkpt>
      <trkpt lat="42.0041170" lon="-5.8706130">
        <ele>710.5</ele>
        <time>2019-08-15T14:47:13Z</time>
      </trkpt>
      <trkpt lat="42.0041100" lon="-5.8706340">
        <ele>710.5</ele>
        <time>2019-08-15T14:47:15Z</time>
      </trkpt>
      <trkpt lat="42.0041070" lon="-5.8689340">
        <ele>710.8</ele>
        <time>2019-08-15T15:31:58Z</time>
      </trkpt>
      <trkpt lat="42.0041110" lon="-5.8688760">
        <ele>710.9</ele>
        <time>2019-08-15T15:32:00Z</time>
      </trkpt>
      <trkpt lat="42.0041070" lon="-5.8688030">
        <ele>710.9</ele>
        <time>2019-08-15T15:32:02Z</time>
      </trkpt>
      <trkpt lat="42.0041010" lon="-5.8687670">
        <ele>710.8</ele>
        <time>2019-08-15T15:32:03Z</time>
      </trkpt>
      <trkpt lat="42.0041000" lon="-5.8687350">
        <ele>710.7</ele>
        <time>2019-08-15T15:32:04Z</time>
      </trkpt>
      <trkpt lat="42.0040970" lon="-5.8686770">
        <ele>710.6</ele>
        <time>2019-08-15T15:32:06Z</time>
      </trkpt>
      <trkpt lat="42.0041020" lon="-5.8686280">
        <ele>710.4</ele>
        <time>2019-08-15T15:32:08Z</time>
      </trkpt>
      <trkpt lat="42.0041150" lon="-5.8685660">
        <ele>710.3</ele>
        <time>2019-08-15T15:32:10Z</time>
      </trkpt>
      <trkpt lat="42.0041360" lon="-5.8685070">
        <ele>710.6</ele>
        <time>2019-08-15T15:32:12Z</time>
      </trkpt>
      <trkpt lat="42.0041500" lon="-5.8684760">
        <ele>710.7</ele>
        <time>2019-08-15T15:32:14Z</time>
      </trkpt>
      <trkpt lat="42.0041940" lon="-5.8683870">
        <ele>711.6</ele>
        <time>2019-08-15T15:34:45Z</time>
      </trkpt>
      <trkpt lat="42.0042040" lon="-5.8683510">
        <ele>711.8</ele>
        <time>2019-08-15T15:34:46Z</time>
      </trkpt>
      <trkpt lat="42.0042170" lon="-5.8683150">
        <ele>712.1</ele>
        <time>2019-08-15T15:34:47Z</time>
      </trkpt>
      <trkpt lat="42.0042270" lon="-5.8682780">
        <ele>712.2</ele>
        <time>2019-08-15T15:34:48Z</time>
      </trkpt>
      <trkpt lat="42.0042370" lon="-5.8682430">
        <ele>712.3</ele>
        <time>2019-08-15T15:34:49Z</time>
      </trkpt>
      <trkpt lat="42.0042510" lon="-5.8681960">
        <ele>712.4</ele>
        <time>2019-08-15T15:34:50Z</time>
      </trkpt>
      <trkpt lat="42.0042640" lon="-5.8681440">
        <ele>712.4</ele>
        <time>2019-08-15T15:34:51Z</time>
      </trkpt>
      <trkpt lat="42.0042770" lon="-5.8680960">
        <ele>712.5</ele>
        <time>2019-08-15T15:34:52Z</time>
      </trkpt>
      <trkpt lat="42.0042910" lon="-5.8680490">
        <ele>712.4</ele>
        <time>2019-08-15T15:34:53Z</time>
      </trkpt>
      <trkpt lat="42.0043050" lon="-5.8680040">
        <ele>712.4</ele>
        <time>2019-08-15T15:34:54Z</time>
      </trkpt>
      <trkpt lat="42.0043160" lon="-5.8679590">
        <ele>712.4</ele>
        <time>2019-08-15T15:34:55Z</time>
      </trkpt>
      <trkpt lat="42.0043290" lon="-5.8679180">
        <ele>712.4</ele>
        <time>2019-08-15T15:34:56Z</time>
      </trkpt>
      <trkpt lat="42.0043400" lon="-5.8678850">
        <ele>712.4</ele>
        <time>2019-08-15T15:34:57Z</time>
      </trkpt>
      <trkpt lat="42.0043480" lon="-5.8678570">
        <ele>712.4</ele>
        <time>2019-08-15T15:34:58Z</time>
      </trkpt>
      <trkpt lat="42.0043710" lon="-5.8677990">
        <ele>712.4</ele>
        <time>2019-08-15T15:35:00Z</time>
      </trkpt>
      <trkpt lat="42.0043870" lon="-5.8677430">
        <ele>712.4</ele>
        <time>2019-08-15T15:35:02Z</time>
      </trkpt>
      <trkpt lat="42.0044030" lon="-5.8676620">
        <ele>712.4</ele>
        <time>2019-08-15T15:35:04Z</time>
      </trkpt>
      <trkpt lat="42.0044070" lon="-5.8676190">
        <ele>712.4</ele>
        <time>2019-08-15T15:35:05Z</time>
      </trkpt>
      <trkpt lat="42.0044030" lon="-5.8675820">
        <ele>712.4</ele>
        <time>2019-08-15T15:35:06Z</time>
      </trkpt>
      <trkpt lat="42.0043880" lon="-5.8675510">
        <ele>712.3</ele>
        <time>2019-08-15T15:35:07Z</time>
      </trkpt>
      <trkpt lat="42.0043760" lon="-5.8675150">
        <ele>712.3</ele>
        <time>2019-08-15T15:35:08Z</time>
      </trkpt>
      <trkpt lat="42.0043710" lon="-5.8674790">
        <ele>712.3</ele>
        <time>2019-08-15T15:35:09Z</time>
      </trkpt>
      <trkpt lat="42.0043690" lon="-5.8674460">
        <ele>712.2</ele>
        <time>2019-08-15T15:35:10Z</time>
      </trkpt>
      <trkpt lat="42.0043670" lon="-5.8673780">
        <ele>712.2</ele>
        <time>2019-08-15T15:35:12Z</time>
      </trkpt>
      <trkpt lat="42.0043720" lon="-5.8673250">
        <ele>712.1</ele>
        <time>2019-08-15T15:35:14Z</time>
      </trkpt>
      <trkpt lat="42.0043710" lon="-5.8672740">
        <ele>712.1</ele>
        <time>2019-08-15T15:35:16Z</time>
      </trkpt>
      <trkpt lat="42.0043680" lon="-5.8672160">
        <ele>712.1</ele>
        <time>2019-08-15T15:35:18Z</time>
      </trkpt>
      <trkpt lat="42.0043700" lon="-5.8671640">
        <ele>712.0</ele>
        <time>2019-08-15T15:35:20Z</time>
      </trkpt>
      <trkpt lat="42.0043770" lon="-5.8670940">
        <ele>712.0</ele>
        <time>2019-08-15T15:35:22Z</time>
      </trkpt>
      <trkpt lat="42.0043800" lon="-5.8670560">
        <ele>711.9</ele>
        <time>2019-08-15T15:35:23Z</time>
      </trkpt>
      <trkpt lat="42.0043820" lon="-5.8670170">
        <ele>711.9</ele>
        <time>2019-08-15T15:35:24Z</time>
      </trkpt>
      <trkpt lat="42.0043840" lon="-5.8669790">
        <ele>711.8</ele>
        <time>2019-08-15T15:35:25Z</time>
      </trkpt>
      <trkpt lat="42.0043840" lon="-5.8669390">
        <ele>711.8</ele>
        <time>2019-08-15T15:35:26Z</time>
      </trkpt>
      <trkpt lat="42.0043840" lon="-5.8668980">
        <ele>711.7</ele>
        <time>2019-08-15T15:35:27Z</time>
      </trkpt>
      <trkpt lat="42.0043850" lon="-5.8668520">
        <ele>711.7</ele>
        <time>2019-08-15T15:35:28Z</time>
      </trkpt>
      <trkpt lat="42.0043840" lon="-5.8668030">
        <ele>711.6</ele>
        <time>2019-08-15T15:35:29Z</time>
      </trkpt>
      <trkpt lat="42.0043820" lon="-5.8667570">
        <ele>711.6</ele>
        <time>2019-08-15T15:35:30Z</time>
      </trkpt>
      <trkpt lat="42.0043810" lon="-5.8667110">
        <ele>711.5</ele>
        <time>2019-08-15T15:35:31Z</time>
      </trkpt>
      <trkpt lat="42.0043800" lon="-5.8666680">
        <ele>711.4</ele>
        <time>2019-08-15T15:35:32Z</time>
      </trkpt>
      <trkpt lat="42.0043790" lon="-5.8666270">
        <ele>711.4</ele>
        <time>2019-08-15T15:35:33Z</time>
      </trkpt>
      <trkpt lat="42.0043750" lon="-5.8665890">
        <ele>711.3</ele>
        <time>2019-08-15T15:35:34Z</time>
      </trkpt>
      <trkpt lat="42.0043720" lon="-5.8665520">
        <ele>711.2</ele>
        <time>2019-08-15T15:35:35Z</time>
      </trkpt>
      <trkpt lat="42.0043690" lon="-5.8665150">
        <ele>711.2</ele>
        <time>2019-08-15T15:35:36Z</time>
      </trkpt>
      <trkpt lat="42.0043660" lon="-5.8664790">
        <ele>711.2</ele>
        <time>2019-08-15T15:35:37Z</time>
      </trkpt>
      <trkpt lat="42.0043640" lon="-5.8664390">
        <ele>711.1</ele>
        <time>2019-08-15T15:35:38Z</time>
      </trkpt>
      <trkpt lat="42.0043630" lon="-5.8663960">
        <ele>711.1</ele>
        <time>2019-08-15T15:35:39Z</time>
      </trkpt>
      <trkpt lat="42.0043600" lon="-5.8663500">
        <ele>711.1</ele>
        <time>2019-08-15T15:35:40Z</time>
      </trkpt>
      <trkpt lat="42.0043550" lon="-5.8663050">
        <ele>711.0</ele>
        <time>2019-08-15T15:35:41Z</time>
      </trkpt>
      <trkpt lat="42.0043510" lon="-5.8662620">
        <ele>711.0</ele>
        <time>2019-08-15T15:35:42Z</time>
      </trkpt>
      <trkpt lat="42.0043460" lon="-5.8662210">
        <ele>711.0</ele>
        <time>2019-08-15T15:35:43Z</time>
      </trkpt>
      <trkpt lat="42.0043430" lon="-5.8661810">
        <ele>710.9</ele>
        <time>2019-08-15T15:35:44Z</time>
      </trkpt>
      <trkpt lat="42.0043410" lon="-5.8661420">
        <ele>710.9</ele>
        <time>2019-08-15T15:35:45Z</time>
      </trkpt>
      <trkpt lat="42.0043380" lon="-5.8661050">
        <ele>710.8</ele>
        <time>2019-08-15T15:35:46Z</time>
      </trkpt>
      <trkpt lat="42.0043340" lon="-5.8660670">
        <ele>710.8</ele>
        <time>2019-08-15T15:35:47Z</time>
      </trkpt>
      <trkpt lat="42.0043290" lon="-5.8660260">
        <ele>710.8</ele>
        <time>2019-08-15T15:35:48Z</time>
      </trkpt>
      <trkpt lat="42.0043260" lon="-5.8659820">
        <ele>710.8</ele>
        <time>2019-08-15T15:35:49Z</time>
      </trkpt>
      <trkpt lat="42.0043230" lon="-5.8659360">
        <ele>710.7</ele>
        <time>2019-08-15T15:35:50Z</time>
      </trkpt>
      <trkpt lat="42.0043210" lon="-5.8658910">
        <ele>710.7</ele>
        <time>2019-08-15T15:35:51Z</time>
      </trkpt>
      <trkpt lat="42.0043200" lon="-5.8658490">
        <ele>710.7</ele>
        <time>2019-08-15T15:35:52Z</time>
      </trkpt>
      <trkpt lat="42.0043190" lon="-5.8658080">
        <ele>710.7</ele>
        <time>2019-08-15T15:35:53Z</time>
      </trkpt>
      <trkpt lat="42.0043150" lon="-5.8657670">
        <ele>710.7</ele>
        <time>2019-08-15T15:35:54Z</time>
      </trkpt>
      <trkpt lat="42.0043120" lon="-5.8657220">
        <ele>710.6</ele>
        <time>2019-08-15T15:35:55Z</time>
      </trkpt>
      <trkpt lat="42.0043100" lon="-5.8656780">
        <ele>710.5</ele>
        <time>2019-08-15T15:35:56Z</time>
      </trkpt>
      <trkpt lat="42.0043070" lon="-5.8656330">
        <ele>710.5</ele>
        <time>2019-08-15T15:35:57Z</time>
      </trkpt>
      <trkpt lat="42.0043040" lon="-5.8655860">
        <ele>710.5</ele>
        <time>2019-08-15T15:35:58Z</time>
      </trkpt>
      <trkpt lat="42.0043020" lon="-5.8655400">
        <ele>710.4</ele>
        <time>2019-08-15T15:35:59Z</time>
      </trkpt>
      <trkpt lat="42.0043000" lon="-5.8654930">
        <ele>710.4</ele>
        <time>2019-08-15T15:36:00Z</time>
      </trkpt>
      <trkpt lat="42.0042980" lon="-5.8654460">
        <ele>710.4</ele>
        <time>2019-08-15T15:36:01Z</time>
      </trkpt>
      <trkpt lat="42.0042960" lon="-5.8653980">
        <ele>710.4</ele>
        <time>2019-08-15T15:36:02Z</time>
      </trkpt>
      <trkpt lat="42.0042940" lon="-5.8653520">
        <ele>710.4</ele>
        <time>2019-08-15T15:36:03Z</time>
      </trkpt>
      <trkpt lat="42.0042920" lon="-5.8653060">
        <ele>710.3</ele>
        <time>2019-08-15T15:36:04Z</time>
      </trkpt>
      <trkpt lat="42.0042900" lon="-5.8652590">
        <ele>710.3</ele>
        <time>2019-08-15T15:36:05Z</time>
      </trkpt>
      <trkpt lat="42.0042890" lon="-5.8652110">
        <ele>710.2</ele>
        <time>2019-08-15T15:36:06Z</time>
      </trkpt>
      <trkpt lat="42.0042870" lon="-5.8651630">
        <ele>710.2</ele>
        <time>2019-08-15T15:36:07Z</time>
      </trkpt>
      <trkpt lat="42.0042850" lon="-5.8651150">
        <ele>710.2</ele>
        <time>2019-08-15T15:36:08Z</time>
      </trkpt>
      <trkpt lat="42.0042820" lon="-5.8650680">
        <ele>710.1</ele>
        <time>2019-08-15T15:36:09Z</time>
      </trkpt>
      <trkpt lat="42.0042810" lon="-5.8650240">
        <ele>710.2</ele>
        <time>2019-08-15T15:36:10Z</time>
      </trkpt>
      <trkpt lat="42.0042790" lon="-5.8649820">
        <ele>710.1</ele>
        <time>2019-08-15T15:36:11Z</time>
      </trkpt>
      <trkpt lat="42.0042790" lon="-5.8649410">
        <ele>710.1</ele>
        <time>2019-08-15T15:36:12Z</time>
      </trkpt>
      <trkpt lat="42.0042780" lon="-5.8648980">
        <ele>710.1</ele>
        <time>2019-08-15T15:36:13Z</time>
      </trkpt>
      <trkpt lat="42.0042740" lon="-5.8648530">
        <ele>710.1</ele>
        <time>2019-08-15T15:36:14Z</time>
      </trkpt>
      <trkpt lat="42.0042700" lon="-5.8648060">
        <ele>710.1</ele>
        <time>2019-08-15T15:36:15Z</time>
      </trkpt>
      <trkpt lat="42.0042670" lon="-5.8647580">
        <ele>710.1</ele>
        <time>2019-08-15T15:36:16Z</time>
      </trkpt>
      <trkpt lat="42.0042650" lon="-5.8647080">
        <ele>710.1</ele>
        <time>2019-08-15T15:36:17Z</time>
      </trkpt>
      <trkpt lat="42.0042640" lon="-5.8646600">
        <ele>710.1</ele>
        <time>2019-08-15T15:36:18Z</time>
      </trkpt>
      <trkpt lat="42.0042620" lon="-5.8646130">
        <ele>710.2</ele>
        <time>2019-08-15T15:36:19Z</time>
      </trkpt>
      <trkpt lat="42.0042590" lon="-5.8645680">
        <ele>710.2</ele>
        <time>2019-08-15T15:36:20Z</time>
      </trkpt>
      <trkpt lat="42.0042560" lon="-5.8645250">
        <ele>710.2</ele>
        <time>2019-08-15T15:36:21Z</time>
      </trkpt>
      <trkpt lat="42.0042540" lon="-5.8644810">
        <ele>710.3</ele>
        <time>2019-08-15T15:36:22Z</time>
      </trkpt>
      <trkpt lat="42.0042530" lon="-5.8644360">
        <ele>710.3</ele>
        <time>2019-08-15T15:36:23Z</time>
      </trkpt>
      <trkpt lat="42.0042520" lon="-5.8643900">
        <ele>710.3</ele>
        <time>2019-08-15T15:36:24Z</time>
      </trkpt>
      <trkpt lat="42.0042470" lon="-5.8643430">
        <ele>710.3</ele>
        <time>2019-08-15T15:36:25Z</time>
      </trkpt>
      <trkpt lat="42.0042440" lon="-5.8642980">
        <ele>710.3</ele>
        <time>2019-08-15T15:36:26Z</time>
      </trkpt>
      <trkpt lat="42.0042410" lon="-5.8642560">
        <ele>710.4</ele>
        <time>2019-08-15T15:36:27Z</time>
      </trkpt>
      <trkpt lat="42.0042390" lon="-5.8642150">
        <ele>710.5</ele>
        <time>2019-08-15T15:36:28Z</time>
      </trkpt>
      <trkpt lat="42.0042380" lon="-5.8641760">
        <ele>710.5</ele>
        <time>2019-08-15T15:36:29Z</time>
      </trkpt>
      <trkpt lat="42.0042380" lon="-5.8641360">
        <ele>710.5</ele>
        <time>2019-08-15T15:36:30Z</time>
      </trkpt>
      <trkpt lat="42.0042380" lon="-5.8640950">
        <ele>710.6</ele>
        <time>2019-08-15T15:36:31Z</time>
      </trkpt>
      <trkpt lat="42.0042380" lon="-5.8640520">
        <ele>710.6</ele>
        <time>2019-08-15T15:36:32Z</time>
      </trkpt>
      <trkpt lat="42.0042380" lon="-5.8640070">
        <ele>710.7</ele>
        <time>2019-08-15T15:36:33Z</time>
      </trkpt>
      <trkpt lat="42.0042380" lon="-5.8639600">
        <ele>710.7</ele>
        <time>2019-08-15T15:36:34Z</time>
      </trkpt>
      <trkpt lat="42.0042390" lon="-5.8639110">
        <ele>710.8</ele>
        <time>2019-08-15T15:36:35Z</time>
      </trkpt>
      <trkpt lat="42.0042410" lon="-5.8638620">
        <ele>710.9</ele>
        <time>2019-08-15T15:36:36Z</time>
      </trkpt>
      <trkpt lat="42.0042420" lon="-5.8638160">
        <ele>711.0</ele>
        <time>2019-08-15T15:36:37Z</time>
      </trkpt>
      <trkpt lat="42.0042420" lon="-5.8637710">
        <ele>711.1</ele>
        <time>2019-08-15T15:36:38Z</time>
      </trkpt>
      <trkpt lat="42.0042420" lon="-5.8637270">
        <ele>711.2</ele>
        <time>2019-08-15T15:36:39Z</time>
      </trkpt>
      <trkpt lat="42.0042420" lon="-5.8636820">
        <ele>711.2</ele>
        <time>2019-08-15T15:36:40Z</time>
      </trkpt>
      <trkpt lat="42.0042440" lon="-5.8636350">
        <ele>711.3</ele>
        <time>2019-08-15T15:36:41Z</time>
      </trkpt>
      <trkpt lat="42.0042450" lon="-5.8635870">
        <ele>711.4</ele>
        <time>2019-08-15T15:36:42Z</time>
      </trkpt>
      <trkpt lat="42.0042460" lon="-5.8635350">
        <ele>711.5</ele>
        <time>2019-08-15T15:36:43Z</time>
      </trkpt>
      <trkpt lat="42.0042480" lon="-5.8634830">
        <ele>711.6</ele>
        <time>2019-08-15T15:36:44Z</time>
      </trkpt>
      <trkpt lat="42.0042490" lon="-5.8634310">
        <ele>711.7</ele>
        <time>2019-08-15T15:36:45Z</time>
      </trkpt>
      <trkpt lat="42.0042510" lon="-5.8633810">
        <ele>711.8</ele>
        <time>2019-08-15T15:36:46Z</time>
      </trkpt>
      <trkpt lat="42.0042530" lon="-5.8633300">
        <ele>711.9</ele>
        <time>2019-08-15T15:36:47Z</time>
      </trkpt>
      <trkpt lat="42.0042530" lon="-5.8632820">
        <ele>711.8</ele>
        <time>2019-08-15T15:36:48Z</time>
      </trkpt>
      <trkpt lat="42.0042550" lon="-5.8632330">
        <ele>711.8</ele>
        <time>2019-08-15T15:36:49Z</time>
      </trkpt>
      <trkpt lat="42.0042570" lon="-5.8631840">
        <ele>711.8</ele>
        <time>2019-08-15T15:36:50Z</time>
      </trkpt>
      <trkpt lat="42.0042590" lon="-5.8631340">
        <ele>711.5</ele>
        <time>2019-08-15T15:36:51Z</time>
      </trkpt>
      <trkpt lat="42.0042610" lon="-5.8630810">
        <ele>711.4</ele>
        <time>2019-08-15T15:36:52Z</time>
      </trkpt>
      <trkpt lat="42.0042630" lon="-5.8630290">
        <ele>711.3</ele>
        <time>2019-08-15T15:36:53Z</time>
      </trkpt>
      <trkpt lat="42.0042630" lon="-5.8629780">
        <ele>711.1</ele>
        <time>2019-08-15T15:36:54Z</time>
      </trkpt>
      <trkpt lat="42.0042640" lon="-5.8629310">
        <ele>710.9</ele>
        <time>2019-08-15T15:36:55Z</time>
      </trkpt>
      <trkpt lat="42.0042670" lon="-5.8628850">
        <ele>710.8</ele>
        <time>2019-08-15T15:36:56Z</time>
      </trkpt>
      <trkpt lat="42.0042710" lon="-5.8628370">
        <ele>710.7</ele>
        <time>2019-08-15T15:36:57Z</time>
      </trkpt>
      <trkpt lat="42.0042750" lon="-5.8627860">
        <ele>710.4</ele>
        <time>2019-08-15T15:36:58Z</time>
      </trkpt>
      <trkpt lat="42.0042810" lon="-5.8627360">
        <ele>710.2</ele>
        <time>2019-08-15T15:36:59Z</time>
      </trkpt>
      <trkpt lat="42.0042850" lon="-5.8626870">
        <ele>710.1</ele>
        <time>2019-08-15T15:37:00Z</time>
      </trkpt>
      <trkpt lat="42.0042880" lon="-5.8626380">
        <ele>710.0</ele>
        <time>2019-08-15T15:37:01Z</time>
      </trkpt>
      <trkpt lat="42.0042900" lon="-5.8625870">
        <ele>709.9</ele>
        <time>2019-08-15T15:37:02Z</time>
      </trkpt>
      <trkpt lat="42.0042930" lon="-5.8625370">
        <ele>709.8</ele>
        <time>2019-08-15T15:37:03Z</time>
      </trkpt>
      <trkpt lat="42.0042960" lon="-5.8624880">
        <ele>709.6</ele>
        <time>2019-08-15T15:37:04Z</time>
      </trkpt>
      <trkpt lat="42.0042970" lon="-5.8624400">
        <ele>709.6</ele>
        <time>2019-08-15T15:37:05Z</time>
      </trkpt>
      <trkpt lat="42.0042990" lon="-5.8623930">
        <ele>709.6</ele>
        <time>2019-08-15T15:37:06Z</time>
      </trkpt>
      <trkpt lat="42.0043000" lon="-5.8623440">
        <ele>709.5</ele>
        <time>2019-08-15T15:37:07Z</time>
      </trkpt>
      <trkpt lat="42.0043000" lon="-5.8622980">
        <ele>709.4</ele>
        <time>2019-08-15T15:37:08Z</time>
      </trkpt>
      <trkpt lat="42.0043000" lon="-5.8622500">
        <ele>709.4</ele>
        <time>2019-08-15T15:37:09Z</time>
      </trkpt>
      <trkpt lat="42.0043000" lon="-5.8622010">
        <ele>709.3</ele>
        <time>2019-08-15T15:37:10Z</time>
      </trkpt>
      <trkpt lat="42.0042990" lon="-5.8621510">
        <ele>709.2</ele>
        <time>2019-08-15T15:37:11Z</time>
      </trkpt>
      <trkpt lat="42.0042990" lon="-5.8621000">
        <ele>709.1</ele>
        <time>2019-08-15T15:37:12Z</time>
      </trkpt>
      <trkpt lat="42.0042970" lon="-5.8620510">
        <ele>709.1</ele>
        <time>2019-08-15T15:37:13Z</time>
      </trkpt>
      <trkpt lat="42.0042960" lon="-5.8620020">
        <ele>709.1</ele>
        <time>2019-08-15T15:37:14Z</time>
      </trkpt>
      <trkpt lat="42.0042940" lon="-5.8619570">
        <ele>709.1</ele>
        <time>2019-08-15T15:37:15Z</time>
      </trkpt>
      <trkpt lat="42.0042920" lon="-5.8619110">
        <ele>709.1</ele>
        <time>2019-08-15T15:37:16Z</time>
      </trkpt>
      <trkpt lat="42.0042910" lon="-5.8618640">
        <ele>709.0</ele>
        <time>2019-08-15T15:37:17Z</time>
      </trkpt>
      <trkpt lat="42.0042890" lon="-5.8618160">
        <ele>709.0</ele>
        <time>2019-08-15T15:37:18Z</time>
      </trkpt>
      <trkpt lat="42.0042860" lon="-5.8617680">
        <ele>709.0</ele>
        <time>2019-08-15T15:37:19Z</time>
      </trkpt>
      <trkpt lat="42.0042840" lon="-5.8617190">
        <ele>708.9</ele>
        <time>2019-08-15T15:37:20Z</time>
      </trkpt>
      <trkpt lat="42.0042820" lon="-5.8616700">
        <ele>708.9</ele>
        <time>2019-08-15T15:37:21Z</time>
      </trkpt>
      <trkpt lat="42.0042800" lon="-5.8616220">
        <ele>708.9</ele>
        <time>2019-08-15T15:37:22Z</time>
      </trkpt>
      <trkpt lat="42.0042780" lon="-5.8615750">
        <ele>708.9</ele>
        <time>2019-08-15T15:37:23Z</time>
      </trkpt>
      <trkpt lat="42.0042750" lon="-5.8615300">
        <ele>708.9</ele>
        <time>2019-08-15T15:37:24Z</time>
      </trkpt>
      <trkpt lat="42.0042720" lon="-5.8614860">
        <ele>708.9</ele>
        <time>2019-08-15T15:37:25Z</time>
      </trkpt>
      <trkpt lat="42.0042690" lon="-5.8614420">
        <ele>708.8</ele>
        <time>2019-08-15T15:37:26Z</time>
      </trkpt>
      <trkpt lat="42.0042670" lon="-5.8613970">
        <ele>708.8</ele>
        <time>2019-08-15T15:37:27Z</time>
      </trkpt>
      <trkpt lat="42.0042650" lon="-5.8613500">
        <ele>708.8</ele>
        <time>2019-08-15T15:37:28Z</time>
      </trkpt>
      <trkpt lat="42.0042620" lon="-5.8613020">
        <ele>708.8</ele>
        <time>2019-08-15T15:37:29Z</time>
      </trkpt>
      <trkpt lat="42.0042590" lon="-5.8612520">
        <ele>708.7</ele>
        <time>2019-08-15T15:37:30Z</time>
      </trkpt>
      <trkpt lat="42.0042560" lon="-5.8612020">
        <ele>708.7</ele>
        <time>2019-08-15T15:37:31Z</time>
      </trkpt>
      <trkpt lat="42.0042530" lon="-5.8611530">
        <ele>708.6</ele>
        <time>2019-08-15T15:37:32Z</time>
      </trkpt>
      <trkpt lat="42.0042490" lon="-5.8611060">
        <ele>708.6</ele>
        <time>2019-08-15T15:37:33Z</time>
      </trkpt>
      <trkpt lat="42.0042450" lon="-5.8610570">
        <ele>708.5</ele>
        <time>2019-08-15T15:37:34Z</time>
      </trkpt>
      <trkpt lat="42.0042410" lon="-5.8610060">
        <ele>708.5</ele>
        <time>2019-08-15T15:37:35Z</time>
      </trkpt>
      <trkpt lat="42.0042400" lon="-5.8609550">
        <ele>708.5</ele>
        <time>2019-08-15T15:37:36Z</time>
      </trkpt>
      <trkpt lat="42.0042380" lon="-5.8609040">
        <ele>708.5</ele>
        <time>2019-08-15T15:37:37Z</time>
      </trkpt>
      <trkpt lat="42.0042340" lon="-5.8608530">
        <ele>708.6</ele>
        <time>2019-08-15T15:37:38Z</time>
      </trkpt>
      <trkpt lat="42.0042300" lon="-5.8608010">
        <ele>708.7</ele>
        <time>2019-08-15T15:37:39Z</time>
      </trkpt>
      <trkpt lat="42.0042250" lon="-5.8607500">
        <ele>708.8</ele>
        <time>2019-08-15T15:37:40Z</time>
      </trkpt>
      <trkpt lat="42.0042210" lon="-5.8607000">
        <ele>708.9</ele>
        <time>2019-08-15T15:37:41Z</time>
      </trkpt>
      <trkpt lat="42.0042160" lon="-5.8606510">
        <ele>709.1</ele>
        <time>2019-08-15T15:37:42Z</time>
      </trkpt>
      <trkpt lat="42.0042120" lon="-5.8606000">
        <ele>709.6</ele>
        <time>2019-08-15T15:37:43Z</time>
      </trkpt>
      <trkpt lat="42.0042090" lon="-5.8605470">
        <ele>709.9</ele>
        <time>2019-08-15T15:37:44Z</time>
      </trkpt>
      <trkpt lat="42.0042060" lon="-5.8604950">
        <ele>710.2</ele>
        <time>2019-08-15T15:37:45Z</time>
      </trkpt>
      <trkpt lat="42.0042030" lon="-5.8604440">
        <ele>710.4</ele>
        <time>2019-08-15T15:37:46Z</time>
      </trkpt>
      <trkpt lat="42.0042000" lon="-5.8603960">
        <ele>710.7</ele>
        <time>2019-08-15T15:37:47Z</time>
      </trkpt>
      <trkpt lat="42.0041960" lon="-5.8603470">
        <ele>711.2</ele>
        <time>2019-08-15T15:37:48Z</time>
      </trkpt>
      <trkpt lat="42.0041900" lon="-5.8602970">
        <ele>711.4</ele>
        <time>2019-08-15T15:37:49Z</time>
      </trkpt>
      <trkpt lat="42.0041830" lon="-5.8602470">
        <ele>711.8</ele>
        <time>2019-08-15T15:37:50Z</time>
      </trkpt>
      <trkpt lat="42.0041750" lon="-5.8601990">
        <ele>712.0</ele>
        <time>2019-08-15T15:37:51Z</time>
      </trkpt>
      <trkpt lat="42.0041690" lon="-5.8601480">
        <ele>712.2</ele>
        <time>2019-08-15T15:37:52Z</time>
      </trkpt>
      <trkpt lat="42.0041640" lon="-5.8601000">
        <ele>712.3</ele>
        <time>2019-08-15T15:37:53Z</time>
      </trkpt>
      <trkpt lat="42.0041580" lon="-5.8600510">
        <ele>712.5</ele>
        <time>2019-08-15T15:37:54Z</time>
      </trkpt>
      <trkpt lat="42.0041520" lon="-5.8600030">
        <ele>712.9</ele>
        <time>2019-08-15T15:37:55Z</time>
      </trkpt>
      <trkpt lat="42.0041480" lon="-5.8599550">
        <ele>713.0</ele>
        <time>2019-08-15T15:37:56Z</time>
      </trkpt>
      <trkpt lat="42.0041450" lon="-5.8599100">
        <ele>713.1</ele>
        <time>2019-08-15T15:37:57Z</time>
      </trkpt>
      <trkpt lat="42.0041400" lon="-5.8598660">
        <ele>713.2</ele>
        <time>2019-08-15T15:37:58Z</time>
      </trkpt>
      <trkpt lat="42.0041370" lon="-5.8598230">
        <ele>713.3</ele>
        <time>2019-08-15T15:37:59Z</time>
      </trkpt>
      <trkpt lat="42.0041330" lon="-5.8597840">
        <ele>713.4</ele>
        <time>2019-08-15T15:38:00Z</time>
      </trkpt>
      <trkpt lat="42.0041300" lon="-5.8597400">
        <ele>713.4</ele>
        <time>2019-08-15T15:38:01Z</time>
      </trkpt>
      <trkpt lat="42.0041250" lon="-5.8596970">
        <ele>713.5</ele>
        <time>2019-08-15T15:38:02Z</time>
      </trkpt>
      <trkpt lat="42.0041150" lon="-5.8596530">
        <ele>713.7</ele>
        <time>2019-08-15T15:38:03Z</time>
      </trkpt>
      <trkpt lat="42.0041090" lon="-5.8596090">
        <ele>713.8</ele>
        <time>2019-08-15T15:38:04Z</time>
      </trkpt>
      <trkpt lat="42.0040990" lon="-5.8595690">
        <ele>713.9</ele>
        <time>2019-08-15T15:38:05Z</time>
      </trkpt>
      <trkpt lat="42.0040900" lon="-5.8595270">
        <ele>714.0</ele>
        <time>2019-08-15T15:38:06Z</time>
      </trkpt>
      <trkpt lat="42.0040800" lon="-5.8594820">
        <ele>714.2</ele>
        <time>2019-08-15T15:38:07Z</time>
      </trkpt>
      <trkpt lat="42.0040690" lon="-5.8594380">
        <ele>714.3</ele>
        <time>2019-08-15T15:38:08Z</time>
      </trkpt>
      <trkpt lat="42.0040630" lon="-5.8593910">
        <ele>714.3</ele>
        <time>2019-08-15T15:38:09Z</time>
      </trkpt>
      <trkpt lat="42.0040570" lon="-5.8593400">
        <ele>714.4</ele>
        <time>2019-08-15T15:38:10Z</time>
      </trkpt>
      <trkpt lat="42.0040490" lon="-5.8592900">
        <ele>714.6</ele>
        <time>2019-08-15T15:38:11Z</time>
      </trkpt>
      <trkpt lat="42.0040390" lon="-5.8592430">
        <ele>714.7</ele>
        <time>2019-08-15T15:38:12Z</time>
      </trkpt>
      <trkpt lat="42.0040320" lon="-5.8591980">
        <ele>714.7</ele>
        <time>2019-08-15T15:38:13Z</time>
      </trkpt>
      <trkpt lat="42.0040270" lon="-5.8591500">
        <ele>714.8</ele>
        <time>2019-08-15T15:38:14Z</time>
      </trkpt>
      <trkpt lat="42.0040240" lon="-5.8591040">
        <ele>714.9</ele>
        <time>2019-08-15T15:38:15Z</time>
      </trkpt>
      <trkpt lat="42.0040160" lon="-5.8590540">
        <ele>715.0</ele>
        <time>2019-08-15T15:38:16Z</time>
      </trkpt>
      <trkpt lat="42.0040090" lon="-5.8590040">
        <ele>714.9</ele>
        <time>2019-08-15T15:38:17Z</time>
      </trkpt>
      <trkpt lat="42.0039990" lon="-5.8589530">
        <ele>714.9</ele>
        <time>2019-08-15T15:38:18Z</time>
      </trkpt>
      <trkpt lat="42.0039920" lon="-5.8589040">
        <ele>715.0</ele>
        <time>2019-08-15T15:38:19Z</time>
      </trkpt>
      <trkpt lat="42.0039830" lon="-5.8588580">
        <ele>715.0</ele>
        <time>2019-08-15T15:38:20Z</time>
      </trkpt>
      <trkpt lat="42.0039760" lon="-5.8588140">
        <ele>714.9</ele>
        <time>2019-08-15T15:38:21Z</time>
      </trkpt>
      <trkpt lat="42.0039670" lon="-5.8587690">
        <ele>714.8</ele>
        <time>2019-08-15T15:38:22Z</time>
      </trkpt>
      <trkpt lat="42.0039570" lon="-5.8587250">
        <ele>714.8</ele>
        <time>2019-08-15T15:38:23Z</time>
      </trkpt>
      <trkpt lat="42.0039470" lon="-5.8586810">
        <ele>714.6</ele>
        <time>2019-08-15T15:38:24Z</time>
      </trkpt>
      <trkpt lat="42.0039370" lon="-5.8586310">
        <ele>714.4</ele>
        <time>2019-08-15T15:38:25Z</time>
      </trkpt>
      <trkpt lat="42.0039260" lon="-5.8585820">
        <ele>714.3</ele>
        <time>2019-08-15T15:38:26Z</time>
      </trkpt>
      <trkpt lat="42.0039170" lon="-5.8585320">
        <ele>714.2</ele>
        <time>2019-08-15T15:38:27Z</time>
      </trkpt>
      <trkpt lat="42.0039100" lon="-5.8584790">
        <ele>714.0</ele>
        <time>2019-08-15T15:38:28Z</time>
      </trkpt>
      <trkpt lat="42.0039070" lon="-5.8584220">
        <ele>713.9</ele>
        <time>2019-08-15T15:38:29Z</time>
      </trkpt>
      <trkpt lat="42.0039000" lon="-5.8583720">
        <ele>713.7</ele>
        <time>2019-08-15T15:38:30Z</time>
      </trkpt>
      <trkpt lat="42.0038920" lon="-5.8583240">
        <ele>713.6</ele>
        <time>2019-08-15T15:38:31Z</time>
      </trkpt>
      <trkpt lat="42.0038780" lon="-5.8582760">
        <ele>713.5</ele>
        <time>2019-08-15T15:38:32Z</time>
      </trkpt>
      <trkpt lat="42.0038650" lon="-5.8582270">
        <ele>713.5</ele>
        <time>2019-08-15T15:38:33Z</time>
      </trkpt>
      <trkpt lat="42.0038530" lon="-5.8581770">
        <ele>713.4</ele>
        <time>2019-08-15T15:38:34Z</time>
      </trkpt>
      <trkpt lat="42.0038430" lon="-5.8581250">
        <ele>713.3</ele>
        <time>2019-08-15T15:38:35Z</time>
      </trkpt>
      <trkpt lat="42.0038370" lon="-5.8580710">
        <ele>713.2</ele>
        <time>2019-08-15T15:38:36Z</time>
      </trkpt>
      <trkpt lat="42.0038280" lon="-5.8580220">
        <ele>713.3</ele>
        <time>2019-08-15T15:38:37Z</time>
      </trkpt>
      <trkpt lat="42.0038190" lon="-5.8579690">
        <ele>713.2</ele>
        <time>2019-08-15T15:38:38Z</time>
      </trkpt>
      <trkpt lat="42.0038100" lon="-5.8579200">
        <ele>713.2</ele>
        <time>2019-08-15T15:38:39Z</time>
      </trkpt>
      <trkpt lat="42.0038020" lon="-5.8578720">
        <ele>713.2</ele>
        <time>2019-08-15T15:38:40Z</time>
      </trkpt>
      <trkpt lat="42.0037950" lon="-5.8578220">
        <ele>713.2</ele>
        <time>2019-08-15T15:38:41Z</time>
      </trkpt>
      <trkpt lat="42.0037890" lon="-5.8577750">
        <ele>713.2</ele>
        <time>2019-08-15T15:38:42Z</time>
      </trkpt>
      <trkpt lat="42.0037840" lon="-5.8577200">
        <ele>713.1</ele>
        <time>2019-08-15T15:38:43Z</time>
      </trkpt>
      <trkpt lat="42.0037790" lon="-5.8576720">
        <ele>713.0</ele>
        <time>2019-08-15T15:38:44Z</time>
      </trkpt>
      <trkpt lat="42.0037760" lon="-5.8576290">
        <ele>713.0</ele>
        <time>2019-08-15T15:38:45Z</time>
      </trkpt>
      <trkpt lat="42.0037740" lon="-5.8575850">
        <ele>713.0</ele>
        <time>2019-08-15T15:38:46Z</time>
      </trkpt>
      <trkpt lat="42.0037710" lon="-5.8575330">
        <ele>712.9</ele>
        <time>2019-08-15T15:38:47Z</time>
      </trkpt>
      <trkpt lat="42.0037670" lon="-5.8574810">
        <ele>713.0</ele>
        <time>2019-08-15T15:38:48Z</time>
      </trkpt>
      <trkpt lat="42.0037630" lon="-5.8574290">
        <ele>712.9</ele>
        <time>2019-08-15T15:38:49Z</time>
      </trkpt>
      <trkpt lat="42.0037570" lon="-5.8573820">
        <ele>712.9</ele>
        <time>2019-08-15T15:38:50Z</time>
      </trkpt>
      <trkpt lat="42.0037500" lon="-5.8573390">
        <ele>712.8</ele>
        <time>2019-08-15T15:38:51Z</time>
      </trkpt>
      <trkpt lat="42.0037440" lon="-5.8573010">
        <ele>712.8</ele>
        <time>2019-08-15T15:38:52Z</time>
      </trkpt>
      <trkpt lat="42.0037390" lon="-5.8572550">
        <ele>712.7</ele>
        <time>2019-08-15T15:38:53Z</time>
      </trkpt>
      <trkpt lat="42.0037330" lon="-5.8572050">
        <ele>712.8</ele>
        <time>2019-08-15T15:38:54Z</time>
      </trkpt>
      <trkpt lat="42.0037200" lon="-5.8571550">
        <ele>712.8</ele>
        <time>2019-08-15T15:38:55Z</time>
      </trkpt>
      <trkpt lat="42.0037100" lon="-5.8571030">
        <ele>712.7</ele>
        <time>2019-08-15T15:38:56Z</time>
      </trkpt>
      <trkpt lat="42.0037050" lon="-5.8570490">
        <ele>712.8</ele>
        <time>2019-08-15T15:38:57Z</time>
      </trkpt>
      <trkpt lat="42.0037020" lon="-5.8570010">
        <ele>712.8</ele>
        <time>2019-08-15T15:38:58Z</time>
      </trkpt>
      <trkpt lat="42.0037000" lon="-5.8569530">
        <ele>712.6</ele>
        <time>2019-08-15T15:38:59Z</time>
      </trkpt>
      <trkpt lat="42.0037010" lon="-5.8569040">
        <ele>712.6</ele>
        <time>2019-08-15T15:39:00Z</time>
      </trkpt>
      <trkpt lat="42.0036980" lon="-5.8568610">
        <ele>712.5</ele>
        <time>2019-08-15T15:39:01Z</time>
      </trkpt>
      <trkpt lat="42.0036960" lon="-5.8568130">
        <ele>712.4</ele>
        <time>2019-08-15T15:39:02Z</time>
      </trkpt>
      <trkpt lat="42.0036920" lon="-5.8567640">
        <ele>712.4</ele>
        <time>2019-08-15T15:39:03Z</time>
      </trkpt>
      <trkpt lat="42.0036880" lon="-5.8567120">
        <ele>712.3</ele>
        <time>2019-08-15T15:39:04Z</time>
      </trkpt>
      <trkpt lat="42.0036820" lon="-5.8566600">
        <ele>712.2</ele>
        <time>2019-08-15T15:39:05Z</time>
      </trkpt>
      <trkpt lat="42.0036760" lon="-5.8566100">
        <ele>712.1</ele>
        <time>2019-08-15T15:39:06Z</time>
      </trkpt>
      <trkpt lat="42.0036720" lon="-5.8565630">
        <ele>712.2</ele>
        <time>2019-08-15T15:39:07Z</time>
      </trkpt>
      <trkpt lat="42.0036650" lon="-5.8565150">
        <ele>712.1</ele>
        <time>2019-08-15T15:39:08Z</time>
      </trkpt>
      <trkpt lat="42.0036580" lon="-5.8564690">
        <ele>712.0</ele>
        <time>2019-08-15T15:39:09Z</time>
      </trkpt>
      <trkpt lat="42.0036510" lon="-5.8564240">
        <ele>712.0</ele>
        <time>2019-08-15T15:39:10Z</time>
      </trkpt>
      <trkpt lat="42.0036460" lon="-5.8563780">
        <ele>711.9</ele>
        <time>2019-08-15T15:39:11Z</time>
      </trkpt>
      <trkpt lat="42.0036430" lon="-5.8563330">
        <ele>711.8</ele>
        <time>2019-08-15T15:39:12Z</time>
      </trkpt>
      <trkpt lat="42.0036420" lon="-5.8562860">
        <ele>711.7</ele>
        <time>2019-08-15T15:39:13Z</time>
      </trkpt>
      <trkpt lat="42.0036440" lon="-5.8562370">
        <ele>711.6</ele>
        <time>2019-08-15T15:39:14Z</time>
      </trkpt>
      <trkpt lat="42.0036440" lon="-5.8561900">
        <ele>711.5</ele>
        <time>2019-08-15T15:39:15Z</time>
      </trkpt>
      <trkpt lat="42.0036500" lon="-5.8561470">
        <ele>711.4</ele>
        <time>2019-08-15T15:39:16Z</time>
      </trkpt>
      <trkpt lat="42.0036590" lon="-5.8561140">
        <ele>711.3</ele>
        <time>2019-08-15T15:39:17Z</time>
      </trkpt>
      <trkpt lat="42.0036770" lon="-5.8560450">
        <ele>711.0</ele>
        <time>2019-08-15T15:39:19Z</time>
      </trkpt>
      <trkpt lat="42.0036860" lon="-5.8560000">
        <ele>710.9</ele>
        <time>2019-08-15T15:39:20Z</time>
      </trkpt>
      <trkpt lat="42.0036920" lon="-5.8559500">
        <ele>710.8</ele>
        <time>2019-08-15T15:39:21Z</time>
      </trkpt>
      <trkpt lat="42.0036910" lon="-5.8558990">
        <ele>710.7</ele>
        <time>2019-08-15T15:39:22Z</time>
      </trkpt>
      <trkpt lat="42.0036920" lon="-5.8558500">
        <ele>710.6</ele>
        <time>2019-08-15T15:39:23Z</time>
      </trkpt>
      <trkpt lat="42.0036930" lon="-5.8557990">
        <ele>710.5</ele>
        <time>2019-08-15T15:39:24Z</time>
      </trkpt>
      <trkpt lat="42.0036930" lon="-5.8557480">
        <ele>710.4</ele>
        <time>2019-08-15T15:39:25Z</time>
      </trkpt>
      <trkpt lat="42.0036970" lon="-5.8556970">
        <ele>710.4</ele>
        <time>2019-08-15T15:39:26Z</time>
      </trkpt>
      <trkpt lat="42.0037010" lon="-5.8556410">
        <ele>710.4</ele>
        <time>2019-08-15T15:39:27Z</time>
      </trkpt>
      <trkpt lat="42.0037050" lon="-5.8555800">
        <ele>710.5</ele>
        <time>2019-08-15T15:39:28Z</time>
      </trkpt>
      <trkpt lat="42.0037080" lon="-5.8555190">
        <ele>710.5</ele>
        <time>2019-08-15T15:39:29Z</time>
      </trkpt>
      <trkpt lat="42.0037100" lon="-5.8554610">
        <ele>710.5</ele>
        <time>2019-08-15T15:39:30Z</time>
      </trkpt>
      <trkpt lat="42.0037120" lon="-5.8554000">
        <ele>710.6</ele>
        <time>2019-08-15T15:39:31Z</time>
      </trkpt>
      <trkpt lat="42.0037120" lon="-5.8553380">
        <ele>710.7</ele>
        <time>2019-08-15T15:39:32Z</time>
      </trkpt>
      <trkpt lat="42.0037110" lon="-5.8552770">
        <ele>710.8</ele>
        <time>2019-08-15T15:39:33Z</time>
      </trkpt>
      <trkpt lat="42.0037110" lon="-5.8552160">
        <ele>710.9</ele>
        <time>2019-08-15T15:39:34Z</time>
      </trkpt>
      <trkpt lat="42.0037090" lon="-5.8551600">
        <ele>710.9</ele>
        <time>2019-08-15T15:39:35Z</time>
      </trkpt>
      <trkpt lat="42.0037090" lon="-5.8551060">
        <ele>711.0</ele>
        <time>2019-08-15T15:39:36Z</time>
      </trkpt>
      <trkpt lat="42.0037080" lon="-5.8550550">
        <ele>711.1</ele>
        <time>2019-08-15T15:39:37Z</time>
      </trkpt>
      <trkpt lat="42.0037080" lon="-5.8550010">
        <ele>711.1</ele>
        <time>2019-08-15T15:39:38Z</time>
      </trkpt>
      <trkpt lat="42.0037080" lon="-5.8549450">
        <ele>711.1</ele>
        <time>2019-08-15T15:39:39Z</time>
      </trkpt>
      <trkpt lat="42.0037090" lon="-5.8548910">
        <ele>711.2</ele>
        <time>2019-08-15T15:39:40Z</time>
      </trkpt>
      <trkpt lat="42.0037130" lon="-5.8548340">
        <ele>711.2</ele>
        <time>2019-08-15T15:39:41Z</time>
      </trkpt>
      <trkpt lat="42.0037160" lon="-5.8547780">
        <ele>711.2</ele>
        <time>2019-08-15T15:39:42Z</time>
      </trkpt>
      <trkpt lat="42.0037220" lon="-5.8547220">
        <ele>711.3</ele>
        <time>2019-08-15T15:39:43Z</time>
      </trkpt>
      <trkpt lat="42.0037300" lon="-5.8546650">
        <ele>711.4</ele>
        <time>2019-08-15T15:39:44Z</time>
      </trkpt>
      <trkpt lat="42.0037380" lon="-5.8546100">
        <ele>711.4</ele>
        <time>2019-08-15T15:39:45Z</time>
      </trkpt>
      <trkpt lat="42.0037460" lon="-5.8545500">
        <ele>711.5</ele>
        <time>2019-08-15T15:39:46Z</time>
      </trkpt>
      <trkpt lat="42.0037570" lon="-5.8544920">
        <ele>711.6</ele>
        <time>2019-08-15T15:39:47Z</time>
      </trkpt>
      <trkpt lat="42.0037630" lon="-5.8544440">
        <ele>711.7</ele>
        <time>2019-08-15T15:39:48Z</time>
      </trkpt>
      <trkpt lat="42.0037710" lon="-5.8543950">
        <ele>711.7</ele>
        <time>2019-08-15T15:39:49Z</time>
      </trkpt>
      <trkpt lat="42.0037770" lon="-5.8543460">
        <ele>711.8</ele>
        <time>2019-08-15T15:39:50Z</time>
      </trkpt>
      <trkpt lat="42.0037870" lon="-5.8543010">
        <ele>711.9</ele>
        <time>2019-08-15T15:39:51Z</time>
      </trkpt>
      <trkpt lat="42.0038040" lon="-5.8542540">
        <ele>712.0</ele>
        <time>2019-08-15T15:39:52Z</time>
      </trkpt>
      <trkpt lat="42.0038210" lon="-5.8542030">
        <ele>712.2</ele>
        <time>2019-08-15T15:39:53Z</time>
      </trkpt>
      <trkpt lat="42.0038350" lon="-5.8541500">
        <ele>712.3</ele>
        <time>2019-08-15T15:39:54Z</time>
      </trkpt>
      <trkpt lat="42.0038480" lon="-5.8540900">
        <ele>712.4</ele>
        <time>2019-08-15T15:39:55Z</time>
      </trkpt>
      <trkpt lat="42.0038620" lon="-5.8540280">
        <ele>712.6</ele>
        <time>2019-08-15T15:39:56Z</time>
      </trkpt>
      <trkpt lat="42.0038750" lon="-5.8539690">
        <ele>712.6</ele>
        <time>2019-08-15T15:39:57Z</time>
      </trkpt>
      <trkpt lat="42.0038840" lon="-5.8539070">
        <ele>712.7</ele>
        <time>2019-08-15T15:39:58Z</time>
      </trkpt>
      <trkpt lat="42.0038960" lon="-5.8538330">
        <ele>712.8</ele>
        <time>2019-08-15T15:39:59Z</time>
      </trkpt>
      <trkpt lat="42.0039070" lon="-5.8537640">
        <ele>712.9</ele>
        <time>2019-08-15T15:40:00Z</time>
      </trkpt>
      <trkpt lat="42.0039230" lon="-5.8537000">
        <ele>712.9</ele>
        <time>2019-08-15T15:40:01Z</time>
      </trkpt>
      <trkpt lat="42.0039330" lon="-5.8536500">
        <ele>712.9</ele>
        <time>2019-08-15T15:40:02Z</time>
      </trkpt>
      <trkpt lat="42.0039380" lon="-5.8536040">
        <ele>712.9</ele>
        <time>2019-08-15T15:40:03Z</time>
      </trkpt>
      <trkpt lat="42.0039420" lon="-5.8535520">
        <ele>713.0</ele>
        <time>2019-08-15T15:40:04Z</time>
      </trkpt>
      <trkpt lat="42.0039470" lon="-5.8535050">
        <ele>713.0</ele>
        <time>2019-08-15T15:40:05Z</time>
      </trkpt>
      <trkpt lat="42.0039470" lon="-5.8534520">
        <ele>713.0</ele>
        <time>2019-08-15T15:40:06Z</time>
      </trkpt>
      <trkpt lat="42.0039480" lon="-5.8533970">
        <ele>713.0</ele>
        <time>2019-08-15T15:40:07Z</time>
      </trkpt>
      <trkpt lat="42.0039580" lon="-5.8533460">
        <ele>713.0</ele>
        <time>2019-08-15T15:40:08Z</time>
      </trkpt>
      <trkpt lat="42.0039680" lon="-5.8532880">
        <ele>713.0</ele>
        <time>2019-08-15T15:40:09Z</time>
      </trkpt>
      <trkpt lat="42.0039760" lon="-5.8532370">
        <ele>713.0</ele>
        <time>2019-08-15T15:40:10Z</time>
      </trkpt>
      <trkpt lat="42.0039820" lon="-5.8531850">
        <ele>713.0</ele>
        <time>2019-08-15T15:40:11Z</time>
      </trkpt>
      <trkpt lat="42.0039890" lon="-5.8531320">
        <ele>713.0</ele>
        <time>2019-08-15T15:40:12Z</time>
      </trkpt>
      <trkpt lat="42.0039960" lon="-5.8530830">
        <ele>713.0</ele>
        <time>2019-08-15T15:40:13Z</time>
      </trkpt>
      <trkpt lat="42.0040100" lon="-5.8530390">
        <ele>713.0</ele>
        <time>2019-08-15T15:40:14Z</time>
      </trkpt>
      <trkpt lat="42.0040200" lon="-5.8530010">
        <ele>713.0</ele>
        <time>2019-08-15T15:40:15Z</time>
      </trkpt>
      <trkpt lat="42.0040270" lon="-5.8529580">
        <ele>712.9</ele>
        <time>2019-08-15T15:40:16Z</time>
      </trkpt>
      <trkpt lat="42.0040340" lon="-5.8529090">
        <ele>712.9</ele>
        <time>2019-08-15T15:40:17Z</time>
      </trkpt>
      <trkpt lat="42.0040440" lon="-5.8528570">
        <ele>712.9</ele>
        <time>2019-08-15T15:40:18Z</time>
      </trkpt>
      <trkpt lat="42.0040520" lon="-5.8528010">
        <ele>712.9</ele>
        <time>2019-08-15T15:40:19Z</time>
      </trkpt>
      <trkpt lat="42.0040620" lon="-5.8527420">
        <ele>712.9</ele>
        <time>2019-08-15T15:40:20Z</time>
      </trkpt>
      <trkpt lat="42.0040780" lon="-5.8526780">
        <ele>712.9</ele>
        <time>2019-08-15T15:40:21Z</time>
      </trkpt>
      <trkpt lat="42.0040960" lon="-5.8526110">
        <ele>712.9</ele>
        <time>2019-08-15T15:40:22Z</time>
      </trkpt>
      <trkpt lat="42.0041060" lon="-5.8525470">
        <ele>712.9</ele>
        <time>2019-08-15T15:40:23Z</time>
      </trkpt>
      <trkpt lat="42.0041180" lon="-5.8524850">
        <ele>712.9</ele>
        <time>2019-08-15T15:40:24Z</time>
      </trkpt>
      <trkpt lat="42.0041320" lon="-5.8524230">
        <ele>712.8</ele>
        <time>2019-08-15T15:40:25Z</time>
      </trkpt>
      <trkpt lat="42.0041480" lon="-5.8523730">
        <ele>712.9</ele>
        <time>2019-08-15T15:40:26Z</time>
      </trkpt>
      <trkpt lat="42.0041630" lon="-5.8523250">
        <ele>712.8</ele>
        <time>2019-08-15T15:40:27Z</time>
      </trkpt>
      <trkpt lat="42.0041760" lon="-5.8522660">
        <ele>712.9</ele>
        <time>2019-08-15T15:40:28Z</time>
      </trkpt>
      <trkpt lat="42.0041880" lon="-5.8522010">
        <ele>712.8</ele>
        <time>2019-08-15T15:40:29Z</time>
      </trkpt>
      <trkpt lat="42.0042000" lon="-5.8521500">
        <ele>712.8</ele>
        <time>2019-08-15T15:40:30Z</time>
      </trkpt>
      <trkpt lat="42.0042150" lon="-5.8520990">
        <ele>712.9</ele>
        <time>2019-08-15T15:40:31Z</time>
      </trkpt>
      <trkpt lat="42.0042270" lon="-5.8520540">
        <ele>712.8</ele>
        <time>2019-08-15T15:40:32Z</time>
      </trkpt>
      <trkpt lat="42.0042370" lon="-5.8520180">
        <ele>712.8</ele>
        <time>2019-08-15T15:40:33Z</time>
      </trkpt>
      <trkpt lat="42.0042530" lon="-5.8519730">
        <ele>712.8</ele>
        <time>2019-08-15T15:40:34Z</time>
      </trkpt>
      <trkpt lat="42.0042750" lon="-5.8519190">
        <ele>712.8</ele>
        <time>2019-08-15T15:40:35Z</time>
      </trkpt>
      <trkpt lat="42.0043010" lon="-5.8518600">
        <ele>712.7</ele>
        <time>2019-08-15T15:40:36Z</time>
      </trkpt>
      <trkpt lat="42.0043230" lon="-5.8518050">
        <ele>712.5</ele>
        <time>2019-08-15T15:40:37Z</time>
      </trkpt>
      <trkpt lat="42.0043430" lon="-5.8517480">
        <ele>712.5</ele>
        <time>2019-08-15T15:40:38Z</time>
      </trkpt>
      <trkpt lat="42.0043640" lon="-5.8516930">
        <ele>712.3</ele>
        <time>2019-08-15T15:40:39Z</time>
      </trkpt>
      <trkpt lat="42.0043840" lon="-5.8516370">
        <ele>712.2</ele>
        <time>2019-08-15T15:40:40Z</time>
      </trkpt>
      <trkpt lat="42.0044050" lon="-5.8515930">
        <ele>712.0</ele>
        <time>2019-08-15T15:40:41Z</time>
      </trkpt>
      <trkpt lat="42.0044300" lon="-5.8515510">
        <ele>711.9</ele>
        <time>2019-08-15T15:40:42Z</time>
      </trkpt>
      <trkpt lat="42.0044540" lon="-5.8514950">
        <ele>711.6</ele>
        <time>2019-08-15T15:40:43Z</time>
      </trkpt>
      <trkpt lat="42.0044760" lon="-5.8514440">
        <ele>711.4</ele>
        <time>2019-08-15T15:40:44Z</time>
      </trkpt>
      <trkpt lat="42.0045000" lon="-5.8513890">
        <ele>711.3</ele>
        <time>2019-08-15T15:40:45Z</time>
      </trkpt>
      <trkpt lat="42.0045190" lon="-5.8513290">
        <ele>711.1</ele>
        <time>2019-08-15T15:40:46Z</time>
      </trkpt>
      <trkpt lat="42.0045390" lon="-5.8512720">
        <ele>710.9</ele>
        <time>2019-08-15T15:40:47Z</time>
      </trkpt>
      <trkpt lat="42.0045580" lon="-5.8512210">
        <ele>710.8</ele>
        <time>2019-08-15T15:40:48Z</time>
      </trkpt>
      <trkpt lat="42.0045760" lon="-5.8511640">
        <ele>710.6</ele>
        <time>2019-08-15T15:40:49Z</time>
      </trkpt>
      <trkpt lat="42.0045930" lon="-5.8511120">
        <ele>710.5</ele>
        <time>2019-08-15T15:40:50Z</time>
      </trkpt>
      <trkpt lat="42.0046150" lon="-5.8510610">
        <ele>710.3</ele>
        <time>2019-08-15T15:40:51Z</time>
      </trkpt>
      <trkpt lat="42.0046380" lon="-5.8510060">
        <ele>710.1</ele>
        <time>2019-08-15T15:40:52Z</time>
      </trkpt>
      <trkpt lat="42.0046600" lon="-5.8509540">
        <ele>710.1</ele>
        <time>2019-08-15T15:40:53Z</time>
      </trkpt>
      <trkpt lat="42.0046830" lon="-5.8509020">
        <ele>709.9</ele>
        <time>2019-08-15T15:40:54Z</time>
      </trkpt>
      <trkpt lat="42.0047040" lon="-5.8508520">
        <ele>709.8</ele>
        <time>2019-08-15T15:40:55Z</time>
      </trkpt>
      <trkpt lat="42.0047210" lon="-5.8508060">
        <ele>709.8</ele>
        <time>2019-08-15T15:40:56Z</time>
      </trkpt>
      <trkpt lat="42.0047310" lon="-5.8507650">
        <ele>709.7</ele>
        <time>2019-08-15T15:40:57Z</time>
      </trkpt>
      <trkpt lat="42.0047440" lon="-5.8507150">
        <ele>709.7</ele>
        <time>2019-08-15T15:40:58Z</time>
      </trkpt>
      <trkpt lat="42.0047580" lon="-5.8506580">
        <ele>709.7</ele>
        <time>2019-08-15T15:40:59Z</time>
      </trkpt>
      <trkpt lat="42.0047700" lon="-5.8505960">
        <ele>709.7</ele>
        <time>2019-08-15T15:41:00Z</time>
      </trkpt>
      <trkpt lat="42.0047850" lon="-5.8505390">
        <ele>709.7</ele>
        <time>2019-08-15T15:41:01Z</time>
      </trkpt>
      <trkpt lat="42.0047990" lon="-5.8504860">
        <ele>709.6</ele>
        <time>2019-08-15T15:41:02Z</time>
      </trkpt>
      <trkpt lat="42.0048110" lon="-5.8504380">
        <ele>709.7</ele>
        <time>2019-08-15T15:41:03Z</time>
      </trkpt>
      <trkpt lat="42.0048230" lon="-5.8504010">
        <ele>709.6</ele>
        <time>2019-08-15T15:41:04Z</time>
      </trkpt>
      <trkpt lat="42.0048340" lon="-5.8503710">
        <ele>709.6</ele>
        <time>2019-08-15T15:41:05Z</time>
      </trkpt>
      <trkpt lat="42.0048490" lon="-5.8503070">
        <ele>709.7</ele>
        <time>2019-08-15T15:41:07Z</time>
      </trkpt>
      <trkpt lat="42.0048650" lon="-5.8502350">
        <ele>709.7</ele>
        <time>2019-08-15T15:41:09Z</time>
      </trkpt>
      <trkpt lat="42.0048720" lon="-5.8501920">
        <ele>709.7</ele>
        <time>2019-08-15T15:41:10Z</time>
      </trkpt>
      <trkpt lat="42.0048810" lon="-5.8501470">
        <ele>709.8</ele>
        <time>2019-08-15T15:41:11Z</time>
      </trkpt>
      <trkpt lat="42.0048890" lon="-5.8501000">
        <ele>709.7</ele>
        <time>2019-08-15T15:41:12Z</time>
      </trkpt>
      <trkpt lat="42.0049010" lon="-5.8500550">
        <ele>709.8</ele>
        <time>2019-08-15T15:41:13Z</time>
      </trkpt>
      <trkpt lat="42.0049110" lon="-5.8500180">
        <ele>709.9</ele>
        <time>2019-08-15T15:41:14Z</time>
      </trkpt>
      <trkpt lat="42.0049190" lon="-5.8499800">
        <ele>709.9</ele>
        <time>2019-08-15T15:41:15Z</time>
      </trkpt>
      <trkpt lat="42.0049310" lon="-5.8499430">
        <ele>709.9</ele>
        <time>2019-08-15T15:41:16Z</time>
      </trkpt>
      <trkpt lat="42.0049420" lon="-5.8499110">
        <ele>710.0</ele>
        <time>2019-08-15T15:41:17Z</time>
      </trkpt>
      <trkpt lat="42.0049640" lon="-5.8498720">
        <ele>710.0</ele>
        <time>2019-08-15T15:41:19Z</time>
      </trkpt>
      <trkpt lat="42.0049800" lon="-5.8498840">
        <ele>709.9</ele>
        <time>2019-08-15T15:41:26Z</time>
      </trkpt>
      <trkpt lat="42.0050050" lon="-5.8499720">
        <ele>709.6</ele>
        <time>2019-08-15T15:41:57Z</time>
      </trkpt>
      <trkpt lat="42.0050140" lon="-5.8500040">
        <ele>709.6</ele>
        <time>2019-08-15T15:41:58Z</time>
      </trkpt>
      <trkpt lat="42.0050220" lon="-5.8500750">
        <ele>709.5</ele>
        <time>2019-08-15T15:42:00Z</time>
      </trkpt>
      <trkpt lat="42.0050210" lon="-5.8501340">
        <ele>709.3</ele>
        <time>2019-08-15T15:42:02Z</time>
      </trkpt>
      <trkpt lat="42.0050200" lon="-5.8501850">
        <ele>709.3</ele>
        <time>2019-08-15T15:42:04Z</time>
      </trkpt>
      <trkpt lat="42.0050170" lon="-5.8502360">
        <ele>709.2</ele>
        <time>2019-08-15T15:42:06Z</time>
      </trkpt>
      <trkpt lat="42.0050150" lon="-5.8502970">
        <ele>709.2</ele>
        <time>2019-08-15T15:42:08Z</time>
      </trkpt>
      <trkpt lat="42.0050090" lon="-5.8503820">
        <ele>709.2</ele>
        <time>2019-08-15T15:42:10Z</time>
      </trkpt>
      <trkpt lat="42.0050080" lon="-5.8504350">
        <ele>709.1</ele>
        <time>2019-08-15T15:42:11Z</time>
      </trkpt>
      <trkpt lat="42.0050060" lon="-5.8504900">
        <ele>709.1</ele>
        <time>2019-08-15T15:42:12Z</time>
      </trkpt>
      <trkpt lat="42.0050040" lon="-5.8505460">
        <ele>709.1</ele>
        <time>2019-08-15T15:42:13Z</time>
      </trkpt>
      <trkpt lat="42.0050010" lon="-5.8506040">
        <ele>709.1</ele>
        <time>2019-08-15T15:42:14Z</time>
      </trkpt>
      <trkpt lat="42.0049980" lon="-5.8506640">
        <ele>709.1</ele>
        <time>2019-08-15T15:42:15Z</time>
      </trkpt>
      <trkpt lat="42.0049950" lon="-5.8507260">
        <ele>709.1</ele>
        <time>2019-08-15T15:42:16Z</time>
      </trkpt>
      <trkpt lat="42.0049920" lon="-5.8507910">
        <ele>709.1</ele>
        <time>2019-08-15T15:42:17Z</time>
      </trkpt>
      <trkpt lat="42.0049870" lon="-5.8508550">
        <ele>709.2</ele>
        <time>2019-08-15T15:42:18Z</time>
      </trkpt>
      <trkpt lat="42.0049820" lon="-5.8509190">
        <ele>709.3</ele>
        <time>2019-08-15T15:42:19Z</time>
      </trkpt>
      <trkpt lat="42.0049750" lon="-5.8509810">
        <ele>709.4</ele>
        <time>2019-08-15T15:42:20Z</time>
      </trkpt>
      <trkpt lat="42.0049680" lon="-5.8510440">
        <ele>709.5</ele>
        <time>2019-08-15T15:42:21Z</time>
      </trkpt>
      <trkpt lat="42.0049620" lon="-5.8511090">
        <ele>709.6</ele>
        <time>2019-08-15T15:42:22Z</time>
      </trkpt>
      <trkpt lat="42.0049590" lon="-5.8511740">
        <ele>709.8</ele>
        <time>2019-08-15T15:42:23Z</time>
      </trkpt>
      <trkpt lat="42.0049590" lon="-5.8512400">
        <ele>709.8</ele>
        <time>2019-08-15T15:42:24Z</time>
      </trkpt>
      <trkpt lat="42.0049570" lon="-5.8512990">
        <ele>710.0</ele>
        <time>2019-08-15T15:42:25Z</time>
      </trkpt>
      <trkpt lat="42.0049530" lon="-5.8513510">
        <ele>710.1</ele>
        <time>2019-08-15T15:42:26Z</time>
      </trkpt>
      <trkpt lat="42.0049490" lon="-5.8513970">
        <ele>710.2</ele>
        <time>2019-08-15T15:42:27Z</time>
      </trkpt>
      <trkpt lat="42.0049460" lon="-5.8514420">
        <ele>710.3</ele>
        <time>2019-08-15T15:42:28Z</time>
      </trkpt>
      <trkpt lat="42.0049420" lon="-5.8514890">
        <ele>710.4</ele>
        <time>2019-08-15T15:42:29Z</time>
      </trkpt>
      <trkpt lat="42.0049410" lon="-5.8515390">
        <ele>710.4</ele>
        <time>2019-08-15T15:42:30Z</time>
      </trkpt>
      <trkpt lat="42.0049390" lon="-5.8515890">
        <ele>710.5</ele>
        <time>2019-08-15T15:42:31Z</time>
      </trkpt>
      <trkpt lat="42.0049350" lon="-5.8516400">
        <ele>710.7</ele>
        <time>2019-08-15T15:42:32Z</time>
      </trkpt>
      <trkpt lat="42.0049310" lon="-5.8516900">
        <ele>710.8</ele>
        <time>2019-08-15T15:42:33Z</time>
      </trkpt>
      <trkpt lat="42.0049250" lon="-5.8517450">
        <ele>710.8</ele>
        <time>2019-08-15T15:42:34Z</time>
      </trkpt>
      <trkpt lat="42.0049200" lon="-5.8518080">
        <ele>711.0</ele>
        <time>2019-08-15T15:42:35Z</time>
      </trkpt>
      <trkpt lat="42.0049150" lon="-5.8518730">
        <ele>711.1</ele>
        <time>2019-08-15T15:42:36Z</time>
      </trkpt>
      <trkpt lat="42.0049120" lon="-5.8519400">
        <ele>711.3</ele>
        <time>2019-08-15T15:42:37Z</time>
      </trkpt>
      <trkpt lat="42.0049080" lon="-5.8520050">
        <ele>711.3</ele>
        <time>2019-08-15T15:42:38Z</time>
      </trkpt>
      <trkpt lat="42.0049040" lon="-5.8520670">
        <ele>711.4</ele>
        <time>2019-08-15T15:42:39Z</time>
      </trkpt>
      <trkpt lat="42.0049000" lon="-5.8521260">
        <ele>711.5</ele>
        <time>2019-08-15T15:42:40Z</time>
      </trkpt>
      <trkpt lat="42.0048960" lon="-5.8521840">
        <ele>711.5</ele>
        <time>2019-08-15T15:42:41Z</time>
      </trkpt>
      <trkpt lat="42.0048930" lon="-5.8522400">
        <ele>711.6</ele>
        <time>2019-08-15T15:42:42Z</time>
      </trkpt>
      <trkpt lat="42.0048900" lon="-5.8522920">
        <ele>711.6</ele>
        <time>2019-08-15T15:42:43Z</time>
      </trkpt>
      <trkpt lat="42.0048860" lon="-5.8523430">
        <ele>711.6</ele>
        <time>2019-08-15T15:42:44Z</time>
      </trkpt>
      <trkpt lat="42.0048840" lon="-5.8523920">
        <ele>711.7</ele>
        <time>2019-08-15T15:42:45Z</time>
      </trkpt>
      <trkpt lat="42.0048840" lon="-5.8524370">
        <ele>711.7</ele>
        <time>2019-08-15T15:42:46Z</time>
      </trkpt>
      <trkpt lat="42.0048860" lon="-5.8524790">
        <ele>711.7</ele>
        <time>2019-08-15T15:42:47Z</time>
      </trkpt>
      <trkpt lat="42.0048900" lon="-5.8525170">
        <ele>711.7</ele>
        <time>2019-08-15T15:42:48Z</time>
      </trkpt>
      <trkpt lat="42.0048950" lon="-5.8525540">
        <ele>711.7</ele>
        <time>2019-08-15T15:42:49Z</time>
      </trkpt>
      <trkpt lat="42.0048980" lon="-5.8525930">
        <ele>711.7</ele>
        <time>2019-08-15T15:42:50Z</time>
      </trkpt>
      <trkpt lat="42.0049020" lon="-5.8526280">
        <ele>711.7</ele>
        <time>2019-08-15T15:42:51Z</time>
      </trkpt>
      <trkpt lat="42.0049140" lon="-5.8526800">
        <ele>711.7</ele>
        <time>2019-08-15T15:42:53Z</time>
      </trkpt>
      <trkpt lat="42.0049200" lon="-5.8527220">
        <ele>711.7</ele>
        <time>2019-08-15T15:42:55Z</time>
      </trkpt>
      <trkpt lat="42.0049190" lon="-5.8527890">
        <ele>711.7</ele>
        <time>2019-08-15T15:42:57Z</time>
      </trkpt>
      <trkpt lat="42.0049240" lon="-5.8528400">
        <ele>711.7</ele>
        <time>2019-08-15T15:42:58Z</time>
      </trkpt>
      <trkpt lat="42.0049310" lon="-5.8528980">
        <ele>711.7</ele>
        <time>2019-08-15T15:42:59Z</time>
      </trkpt>
      <trkpt lat="42.0049380" lon="-5.8529580">
        <ele>711.7</ele>
        <time>2019-08-15T15:43:00Z</time>
      </trkpt>
      <trkpt lat="42.0049450" lon="-5.8530200">
        <ele>711.7</ele>
        <time>2019-08-15T15:43:01Z</time>
      </trkpt>
      <trkpt lat="42.0049500" lon="-5.8530820">
        <ele>711.6</ele>
        <time>2019-08-15T15:43:02Z</time>
      </trkpt>
      <trkpt lat="42.0049530" lon="-5.8531390">
        <ele>711.6</ele>
        <time>2019-08-15T15:43:03Z</time>
      </trkpt>
      <trkpt lat="42.0049590" lon="-5.8531930">
        <ele>711.6</ele>
        <time>2019-08-15T15:43:04Z</time>
      </trkpt>
      <trkpt lat="42.0049650" lon="-5.8532440">
        <ele>711.7</ele>
        <time>2019-08-15T15:43:05Z</time>
      </trkpt>
      <trkpt lat="42.0049720" lon="-5.8532920">
        <ele>711.7</ele>
        <time>2019-08-15T15:43:06Z</time>
      </trkpt>
      <trkpt lat="42.0049770" lon="-5.8533400">
        <ele>711.7</ele>
        <time>2019-08-15T15:43:07Z</time>
      </trkpt>
      <trkpt lat="42.0049800" lon="-5.8533850">
        <ele>711.7</ele>
        <time>2019-08-15T15:43:08Z</time>
      </trkpt>
      <trkpt lat="42.0049830" lon="-5.8534330">
        <ele>711.6</ele>
        <time>2019-08-15T15:43:09Z</time>
      </trkpt>
      <trkpt lat="42.0049860" lon="-5.8534840">
        <ele>711.6</ele>
        <time>2019-08-15T15:43:10Z</time>
      </trkpt>
      <trkpt lat="42.0049860" lon="-5.8535360">
        <ele>711.6</ele>
        <time>2019-08-15T15:43:11Z</time>
      </trkpt>
      <trkpt lat="42.0049810" lon="-5.8535930">
        <ele>711.7</ele>
        <time>2019-08-15T15:43:12Z</time>
      </trkpt>
      <trkpt lat="42.0049690" lon="-5.8536470">
        <ele>711.7</ele>
        <time>2019-08-15T15:43:13Z</time>
      </trkpt>
      <trkpt lat="42.0049520" lon="-5.8536970">
        <ele>711.7</ele>
        <time>2019-08-15T15:43:14Z</time>
      </trkpt>
      <trkpt lat="42.0049340" lon="-5.8537450">
        <ele>711.8</ele>
        <time>2019-08-15T15:43:15Z</time>
      </trkpt>
      <trkpt lat="42.0049150" lon="-5.8537900">
        <ele>711.9</ele>
        <time>2019-08-15T15:43:16Z</time>
      </trkpt>
      <trkpt lat="42.0048990" lon="-5.8538340">
        <ele>711.9</ele>
        <time>2019-08-15T15:43:17Z</time>
      </trkpt>
      <trkpt lat="42.0048860" lon="-5.8538790">
        <ele>711.9</ele>
        <time>2019-08-15T15:43:18Z</time>
      </trkpt>
      <trkpt lat="42.0048780" lon="-5.8539310">
        <ele>711.9</ele>
        <time>2019-08-15T15:43:19Z</time>
      </trkpt>
      <trkpt lat="42.0048730" lon="-5.8539850">
        <ele>711.9</ele>
        <time>2019-08-15T15:43:20Z</time>
      </trkpt>
      <trkpt lat="42.0048700" lon="-5.8540410">
        <ele>711.7</ele>
        <time>2019-08-15T15:43:21Z</time>
      </trkpt>
      <trkpt lat="42.0048700" lon="-5.8540920">
        <ele>711.6</ele>
        <time>2019-08-15T15:43:22Z</time>
      </trkpt>
      <trkpt lat="42.0048710" lon="-5.8541410">
        <ele>711.6</ele>
        <time>2019-08-15T15:43:23Z</time>
      </trkpt>
      <trkpt lat="42.0048690" lon="-5.8541890">
        <ele>711.4</ele>
        <time>2019-08-15T15:43:24Z</time>
      </trkpt>
      <trkpt lat="42.0048630" lon="-5.8542370">
        <ele>711.3</ele>
        <time>2019-08-15T15:43:25Z</time>
      </trkpt>
      <trkpt lat="42.0048590" lon="-5.8542860">
        <ele>711.2</ele>
        <time>2019-08-15T15:43:26Z</time>
      </trkpt>
      <trkpt lat="42.0048560" lon="-5.8543380">
        <ele>711.1</ele>
        <time>2019-08-15T15:43:27Z</time>
      </trkpt>
      <trkpt lat="42.0048530" lon="-5.8543960">
        <ele>710.9</ele>
        <time>2019-08-15T15:43:28Z</time>
      </trkpt>
      <trkpt lat="42.0048500" lon="-5.8544560">
        <ele>710.8</ele>
        <time>2019-08-15T15:43:29Z</time>
      </trkpt>
      <trkpt lat="42.0048480" lon="-5.8545170">
        <ele>710.6</ele>
        <time>2019-08-15T15:43:30Z</time>
      </trkpt>
      <trkpt lat="42.0048480" lon="-5.8545740">
        <ele>710.5</ele>
        <time>2019-08-15T15:43:31Z</time>
      </trkpt>
      <trkpt lat="42.0048480" lon="-5.8546250">
        <ele>710.4</ele>
        <time>2019-08-15T15:43:32Z</time>
      </trkpt>
      <trkpt lat="42.0048480" lon="-5.8546720">
        <ele>710.3</ele>
        <time>2019-08-15T15:43:33Z</time>
      </trkpt>
      <trkpt lat="42.0048520" lon="-5.8547160">
        <ele>710.2</ele>
        <time>2019-08-15T15:43:34Z</time>
      </trkpt>
      <trkpt lat="42.0048590" lon="-5.8547580">
        <ele>710.1</ele>
        <time>2019-08-15T15:43:35Z</time>
      </trkpt>
      <trkpt lat="42.0048620" lon="-5.8548020">
        <ele>710.0</ele>
        <time>2019-08-15T15:43:36Z</time>
      </trkpt>
      <trkpt lat="42.0048630" lon="-5.8548440">
        <ele>710.0</ele>
        <time>2019-08-15T15:43:37Z</time>
      </trkpt>
      <trkpt lat="42.0048660" lon="-5.8548810">
        <ele>709.9</ele>
        <time>2019-08-15T15:43:38Z</time>
      </trkpt>
      <trkpt lat="42.0048710" lon="-5.8549200">
        <ele>709.9</ele>
        <time>2019-08-15T15:43:39Z</time>
      </trkpt>
      <trkpt lat="42.0048760" lon="-5.8549620">
        <ele>709.8</ele>
        <time>2019-08-15T15:43:40Z</time>
      </trkpt>
      <trkpt lat="42.0048790" lon="-5.8550060">
        <ele>709.7</ele>
        <time>2019-08-15T15:43:41Z</time>
      </trkpt>
      <trkpt lat="42.0048790" lon="-5.8550510">
        <ele>709.7</ele>
        <time>2019-08-15T15:43:42Z</time>
      </trkpt>
      <trkpt lat="42.0048780" lon="-5.8550960">
        <ele>709.6</ele>
        <time>2019-08-15T15:43:43Z</time>
      </trkpt>
      <trkpt lat="42.0048770" lon="-5.8551390">
        <ele>709.5</ele>
        <time>2019-08-15T15:43:44Z</time>
      </trkpt>
      <trkpt lat="42.0048770" lon="-5.8551840">
        <ele>709.5</ele>
        <time>2019-08-15T15:43:45Z</time>
      </trkpt>
      <trkpt lat="42.0048770" lon="-5.8552280">
        <ele>709.5</ele>
        <time>2019-08-15T15:43:46Z</time>
      </trkpt>
      <trkpt lat="42.0048760" lon="-5.8552740">
        <ele>709.4</ele>
        <time>2019-08-15T15:43:47Z</time>
      </trkpt>
      <trkpt lat="42.0048740" lon="-5.8553170">
        <ele>709.4</ele>
        <time>2019-08-15T15:43:48Z</time>
      </trkpt>
      <trkpt lat="42.0048740" lon="-5.8553640">
        <ele>709.4</ele>
        <time>2019-08-15T15:43:49Z</time>
      </trkpt>
      <trkpt lat="42.0048750" lon="-5.8554120">
        <ele>709.3</ele>
        <time>2019-08-15T15:43:50Z</time>
      </trkpt>
      <trkpt lat="42.0048770" lon="-5.8554480">
        <ele>709.3</ele>
        <time>2019-08-15T15:43:51Z</time>
      </trkpt>
      <trkpt lat="42.0048800" lon="-5.8554740">
        <ele>709.3</ele>
        <time>2019-08-15T15:43:52Z</time>
      </trkpt>
      <trkpt lat="42.0048700" lon="-5.8554970">
        <ele>709.3</ele>
        <time>2019-08-15T15:43:55Z</time>
      </trkpt>
      <trkpt lat="42.0048690" lon="-5.8555380">
        <ele>709.2</ele>
        <time>2019-08-15T15:43:59Z</time>
      </trkpt>
      <trkpt lat="42.0048700" lon="-5.8555830">
        <ele>709.2</ele>
        <time>2019-08-15T15:44:02Z</time>
      </trkpt>
      <trkpt lat="42.0048730" lon="-5.8556230">
        <ele>709.1</ele>
        <time>2019-08-15T15:44:04Z</time>
      </trkpt>
      <trkpt lat="42.0048770" lon="-5.8556620">
        <ele>709.1</ele>
        <time>2019-08-15T15:44:06Z</time>
      </trkpt>
      <trkpt lat="42.0048740" lon="-5.8556800">
        <ele>709.1</ele>
        <time>2019-08-15T15:44:09Z</time>
      </trkpt>
      <trkpt lat="42.0048800" lon="-5.8557130">
        <ele>709.0</ele>
        <time>2019-08-15T15:44:16Z</time>
      </trkpt>
      <trkpt lat="42.0048850" lon="-5.8557670">
        <ele>709.0</ele>
        <time>2019-08-15T15:44:18Z</time>
      </trkpt>
      <trkpt lat="42.0048990" lon="-5.8558340">
        <ele>709.0</ele>
        <time>2019-08-15T15:44:20Z</time>
      </trkpt>
      <trkpt lat="42.0049090" lon="-5.8559110">
        <ele>708.9</ele>
        <time>2019-08-15T15:44:22Z</time>
      </trkpt>
      <trkpt lat="42.0049100" lon="-5.8559500">
        <ele>708.9</ele>
        <time>2019-08-15T15:44:23Z</time>
      </trkpt>
      <trkpt lat="42.0049110" lon="-5.8559880">
        <ele>708.8</ele>
        <time>2019-08-15T15:44:24Z</time>
      </trkpt>
      <trkpt lat="42.0049150" lon="-5.8560270">
        <ele>708.8</ele>
        <time>2019-08-15T15:44:25Z</time>
      </trkpt>
      <trkpt lat="42.0049180" lon="-5.8560650">
        <ele>708.8</ele>
        <time>2019-08-15T15:44:26Z</time>
      </trkpt>
      <trkpt lat="42.0049200" lon="-5.8561000">
        <ele>708.8</ele>
        <time>2019-08-15T15:44:27Z</time>
      </trkpt>
      <trkpt lat="42.0049280" lon="-5.8561630">
        <ele>708.7</ele>
        <time>2019-08-15T15:44:29Z</time>
      </trkpt>
      <trkpt lat="42.0049330" lon="-5.8562280">
        <ele>708.7</ele>
        <time>2019-08-15T15:44:31Z</time>
      </trkpt>
      <trkpt lat="42.0049330" lon="-5.8563030">
        <ele>708.6</ele>
        <time>2019-08-15T15:44:33Z</time>
      </trkpt>
      <trkpt lat="42.0049330" lon="-5.8563370">
        <ele>708.6</ele>
        <time>2019-08-15T15:44:34Z</time>
      </trkpt>
      <trkpt lat="42.0049320" lon="-5.8563810">
        <ele>708.6</ele>
        <time>2019-08-15T15:44:36Z</time>
      </trkpt>
      <trkpt lat="42.0049310" lon="-5.8564220">
        <ele>708.5</ele>
        <time>2019-08-15T15:44:38Z</time>
      </trkpt>
      <trkpt lat="42.0049340" lon="-5.8564600">
        <ele>708.5</ele>
        <time>2019-08-15T15:44:40Z</time>
      </trkpt>
      <trkpt lat="42.0049360" lon="-5.8565100">
        <ele>708.5</ele>
        <time>2019-08-15T15:44:42Z</time>
      </trkpt>
      <trkpt lat="42.0049360" lon="-5.8565730">
        <ele>708.4</ele>
        <time>2019-08-15T15:44:44Z</time>
      </trkpt>
      <trkpt lat="42.0049350" lon="-5.8566290">
        <ele>708.3</ele>
        <time>2019-08-15T15:44:46Z</time>
      </trkpt>
      <trkpt lat="42.0049340" lon="-5.8566700">
        <ele>708.3</ele>
        <time>2019-08-15T15:44:48Z</time>
      </trkpt>
      <trkpt lat="42.0049320" lon="-5.8567050">
        <ele>708.3</ele>
        <time>2019-08-15T15:44:50Z</time>
      </trkpt>
      <trkpt lat="42.0049340" lon="-5.8567490">
        <ele>708.2</ele>
        <time>2019-08-15T15:44:53Z</time>
      </trkpt>
      <trkpt lat="42.0049280" lon="-5.8566100">
        <ele>708.4</ele>
        <time>2019-08-15T15:45:12Z</time>
      </trkpt>
      <trkpt lat="42.0049350" lon="-5.8565460">
        <ele>708.4</ele>
        <time>2019-08-15T15:45:14Z</time>
      </trkpt>
      <trkpt lat="42.0049370" lon="-5.8564720">
        <ele>708.5</ele>
        <time>2019-08-15T15:45:16Z</time>
      </trkpt>
      <trkpt lat="42.0049340" lon="-5.8564390">
        <ele>708.5</ele>
        <time>2019-08-15T15:45:17Z</time>
      </trkpt>
      <trkpt lat="42.0049300" lon="-5.8563800">
        <ele>708.6</ele>
        <time>2019-08-15T15:45:19Z</time>
      </trkpt>
      <trkpt lat="42.0049300" lon="-5.8563240">
        <ele>708.6</ele>
        <time>2019-08-15T15:45:21Z</time>
      </trkpt>
      <trkpt lat="42.0049250" lon="-5.8562710">
        <ele>708.6</ele>
        <time>2019-08-15T15:45:23Z</time>
      </trkpt>
      <trkpt lat="42.0049190" lon="-5.8562150">
        <ele>708.7</ele>
        <time>2019-08-15T15:45:25Z</time>
      </trkpt>
      <trkpt lat="42.0049070" lon="-5.8561470">
        <ele>708.7</ele>
        <time>2019-08-15T15:45:27Z</time>
      </trkpt>
      <trkpt lat="42.0048960" lon="-5.8560760">
        <ele>708.8</ele>
        <time>2019-08-15T15:45:29Z</time>
      </trkpt>
      <trkpt lat="42.0048870" lon="-5.8560120">
        <ele>708.8</ele>
        <time>2019-08-15T15:45:31Z</time>
      </trkpt>
      <trkpt lat="42.0048790" lon="-5.8559530">
        <ele>708.8</ele>
        <time>2019-08-15T15:45:33Z</time>
      </trkpt>
      <trkpt lat="42.0048710" lon="-5.8558950">
        <ele>708.9</ele>
        <time>2019-08-15T15:45:35Z</time>
      </trkpt>
      <trkpt lat="42.0048650" lon="-5.8558400">
        <ele>709.0</ele>
        <time>2019-08-15T15:45:37Z</time>
      </trkpt>
      <trkpt lat="42.0048570" lon="-5.8557910">
        <ele>709.0</ele>
        <time>2019-08-15T15:45:39Z</time>
      </trkpt>
      <trkpt lat="42.0048540" lon="-5.8557250">
        <ele>709.0</ele>
        <time>2019-08-15T15:45:41Z</time>
      </trkpt>
      <trkpt lat="42.0048520" lon="-5.8556550">
        <ele>709.1</ele>
        <time>2019-08-15T15:45:43Z</time>
      </trkpt>
      <trkpt lat="42.0048500" lon="-5.8555940">
        <ele>709.1</ele>
        <time>2019-08-15T15:45:45Z</time>
      </trkpt>
      <trkpt lat="42.0048470" lon="-5.8555210">
        <ele>709.2</ele>
        <time>2019-08-15T15:45:47Z</time>
      </trkpt>
      <trkpt lat="42.0048430" lon="-5.8554870">
        <ele>709.3</ele>
        <time>2019-08-15T15:45:48Z</time>
      </trkpt>
      <trkpt lat="42.0048480" lon="-5.8554090">
        <ele>709.3</ele>
        <time>2019-08-15T15:45:50Z</time>
      </trkpt>
      <trkpt lat="42.0048500" lon="-5.8553810">
        <ele>709.3</ele>
        <time>2019-08-15T15:45:51Z</time>
      </trkpt>
      <trkpt lat="42.0048470" lon="-5.8553070">
        <ele>709.4</ele>
        <time>2019-08-15T15:45:53Z</time>
      </trkpt>
      <trkpt lat="42.0048420" lon="-5.8552610">
        <ele>709.4</ele>
        <time>2019-08-15T15:45:54Z</time>
      </trkpt>
      <trkpt lat="42.0048370" lon="-5.8552170">
        <ele>709.5</ele>
        <time>2019-08-15T15:45:55Z</time>
      </trkpt>
      <trkpt lat="42.0048310" lon="-5.8551750">
        <ele>709.5</ele>
        <time>2019-08-15T15:45:56Z</time>
      </trkpt>
      <trkpt lat="42.0048260" lon="-5.8551290">
        <ele>709.6</ele>
        <time>2019-08-15T15:45:57Z</time>
      </trkpt>
      <trkpt lat="42.0048220" lon="-5.8550750">
        <ele>709.6</ele>
        <time>2019-08-15T15:45:58Z</time>
      </trkpt>
      <trkpt lat="42.0048190" lon="-5.8550160">
        <ele>709.8</ele>
        <time>2019-08-15T15:45:59Z</time>
      </trkpt>
      <trkpt lat="42.0048160" lon="-5.8549590">
        <ele>709.8</ele>
        <time>2019-08-15T15:46:00Z</time>
      </trkpt>
      <trkpt lat="42.0048130" lon="-5.8549060">
        <ele>709.9</ele>
        <time>2019-08-15T15:46:01Z</time>
      </trkpt>
      <trkpt lat="42.0048090" lon="-5.8548540">
        <ele>710.0</ele>
        <time>2019-08-15T15:46:02Z</time>
      </trkpt>
      <trkpt lat="42.0048040" lon="-5.8548010">
        <ele>710.1</ele>
        <time>2019-08-15T15:46:03Z</time>
      </trkpt>
      <trkpt lat="42.0048030" lon="-5.8547470">
        <ele>710.2</ele>
        <time>2019-08-15T15:46:04Z</time>
      </trkpt>
      <trkpt lat="42.0048000" lon="-5.8546980">
        <ele>710.2</ele>
        <time>2019-08-15T15:46:05Z</time>
      </trkpt>
      <trkpt lat="42.0048000" lon="-5.8546610">
        <ele>710.3</ele>
        <time>2019-08-15T15:46:06Z</time>
      </trkpt>
      <trkpt lat="42.0047980" lon="-5.8546120">
        <ele>710.4</ele>
        <time>2019-08-15T15:46:07Z</time>
      </trkpt>
      <trkpt lat="42.0047980" lon="-5.8545650">
        <ele>710.5</ele>
        <time>2019-08-15T15:46:08Z</time>
      </trkpt>
      <trkpt lat="42.0047990" lon="-5.8545120">
        <ele>710.6</ele>
        <time>2019-08-15T15:46:09Z</time>
      </trkpt>
      <trkpt lat="42.0048000" lon="-5.8544580">
        <ele>710.9</ele>
        <time>2019-08-15T15:46:10Z</time>
      </trkpt>
      <trkpt lat="42.0048010" lon="-5.8544050">
        <ele>711.0</ele>
        <time>2019-08-15T15:46:11Z</time>
      </trkpt>
      <trkpt lat="42.0048030" lon="-5.8543550">
        <ele>711.1</ele>
        <time>2019-08-15T15:46:12Z</time>
      </trkpt>
      <trkpt lat="42.0048060" lon="-5.8543060">
        <ele>711.3</ele>
        <time>2019-08-15T15:46:13Z</time>
      </trkpt>
      <trkpt lat="42.0048080" lon="-5.8542570">
        <ele>711.4</ele>
        <time>2019-08-15T15:46:14Z</time>
      </trkpt>
      <trkpt lat="42.0048120" lon="-5.8542150">
        <ele>711.5</ele>
        <time>2019-08-15T15:46:15Z</time>
      </trkpt>
      <trkpt lat="42.0048170" lon="-5.8541740">
        <ele>711.7</ele>
        <time>2019-08-15T15:46:16Z</time>
      </trkpt>
      <trkpt lat="42.0048170" lon="-5.8541310">
        <ele>711.8</ele>
        <time>2019-08-15T15:46:17Z</time>
      </trkpt>
      <trkpt lat="42.0048170" lon="-5.8540880">
        <ele>711.9</ele>
        <time>2019-08-15T15:46:18Z</time>
      </trkpt>
      <trkpt lat="42.0048170" lon="-5.8540490">
        <ele>712.0</ele>
        <time>2019-08-15T15:46:19Z</time>
      </trkpt>
      <trkpt lat="42.0048210" lon="-5.8540070">
        <ele>712.1</ele>
        <time>2019-08-15T15:46:20Z</time>
      </trkpt>
      <trkpt lat="42.0048270" lon="-5.8539690">
        <ele>712.0</ele>
        <time>2019-08-15T15:46:21Z</time>
      </trkpt>
      <trkpt lat="42.0048320" lon="-5.8539260">
        <ele>712.1</ele>
        <time>2019-08-15T15:46:22Z</time>
      </trkpt>
      <trkpt lat="42.0048420" lon="-5.8538800">
        <ele>712.1</ele>
        <time>2019-08-15T15:46:23Z</time>
      </trkpt>
      <trkpt lat="42.0048530" lon="-5.8538350">
        <ele>712.1</ele>
        <time>2019-08-15T15:46:24Z</time>
      </trkpt>
      <trkpt lat="42.0048690" lon="-5.8537920">
        <ele>712.0</ele>
        <time>2019-08-15T15:46:25Z</time>
      </trkpt>
      <trkpt lat="42.0048850" lon="-5.8537520">
        <ele>712.0</ele>
        <time>2019-08-15T15:46:26Z</time>
      </trkpt>
      <trkpt lat="42.0049030" lon="-5.8537100">
        <ele>712.0</ele>
        <time>2019-08-15T15:46:27Z</time>
      </trkpt>
      <trkpt lat="42.0049190" lon="-5.8536680">
        <ele>711.8</ele>
        <time>2019-08-15T15:46:28Z</time>
      </trkpt>
      <trkpt lat="42.0049310" lon="-5.8536220">
        <ele>711.8</ele>
        <time>2019-08-15T15:46:29Z</time>
      </trkpt>
      <trkpt lat="42.0049410" lon="-5.8535760">
        <ele>711.8</ele>
        <time>2019-08-15T15:46:30Z</time>
      </trkpt>
      <trkpt lat="42.0049460" lon="-5.8535300">
        <ele>711.8</ele>
        <time>2019-08-15T15:46:31Z</time>
      </trkpt>
      <trkpt lat="42.0049470" lon="-5.8534820">
        <ele>711.8</ele>
        <time>2019-08-15T15:46:32Z</time>
      </trkpt>
      <trkpt lat="42.0049460" lon="-5.8534310">
        <ele>711.8</ele>
        <time>2019-08-15T15:46:33Z</time>
      </trkpt>
      <trkpt lat="42.0049430" lon="-5.8533780">
        <ele>711.8</ele>
        <time>2019-08-15T15:46:34Z</time>
      </trkpt>
      <trkpt lat="42.0049400" lon="-5.8533250">
        <ele>711.7</ele>
        <time>2019-08-15T15:46:35Z</time>
      </trkpt>
      <trkpt lat="42.0049350" lon="-5.8532680">
        <ele>711.7</ele>
        <time>2019-08-15T15:46:36Z</time>
      </trkpt>
      <trkpt lat="42.0049280" lon="-5.8532100">
        <ele>711.7</ele>
        <time>2019-08-15T15:46:37Z</time>
      </trkpt>
      <trkpt lat="42.0049210" lon="-5.8531500">
        <ele>711.7</ele>
        <time>2019-08-15T15:46:38Z</time>
      </trkpt>
      <trkpt lat="42.0049130" lon="-5.8530870">
        <ele>711.7</ele>
        <time>2019-08-15T15:46:39Z</time>
      </trkpt>
      <trkpt lat="42.0049040" lon="-5.8530250">
        <ele>711.7</ele>
        <time>2019-08-15T15:46:40Z</time>
      </trkpt>
      <trkpt lat="42.0048950" lon="-5.8529650">
        <ele>711.7</ele>
        <time>2019-08-15T15:46:41Z</time>
      </trkpt>
      <trkpt lat="42.0048870" lon="-5.8529050">
        <ele>711.7</ele>
        <time>2019-08-15T15:46:42Z</time>
      </trkpt>
      <trkpt lat="42.0048810" lon="-5.8528470">
        <ele>711.8</ele>
        <time>2019-08-15T15:46:43Z</time>
      </trkpt>
      <trkpt lat="42.0048760" lon="-5.8527970">
        <ele>711.8</ele>
        <time>2019-08-15T15:46:44Z</time>
      </trkpt>
      <trkpt lat="42.0048730" lon="-5.8527540">
        <ele>711.8</ele>
        <time>2019-08-15T15:46:45Z</time>
      </trkpt>
      <trkpt lat="42.0048740" lon="-5.8527210">
        <ele>711.8</ele>
        <time>2019-08-15T15:46:46Z</time>
      </trkpt>
      <trkpt lat="42.0048950" lon="-5.8526810">
        <ele>711.7</ele>
        <time>2019-08-15T15:46:48Z</time>
      </trkpt>
      <trkpt lat="42.0049280" lon="-5.8526640">
        <ele>711.7</ele>
        <time>2019-08-15T15:46:50Z</time>
      </trkpt>
      <trkpt lat="42.0049730" lon="-5.8526770">
        <ele>711.6</ele>
        <time>2019-08-15T15:46:52Z</time>
      </trkpt>
      <trkpt lat="42.0050200" lon="-5.8527140">
        <ele>711.5</ele>
        <time>2019-08-15T15:46:54Z</time>
      </trkpt>
      <trkpt lat="42.0050520" lon="-5.8527410">
        <ele>711.4</ele>
        <time>2019-08-15T15:46:55Z</time>
      </trkpt>
      <trkpt lat="42.0050900" lon="-5.8527660">
        <ele>711.3</ele>
        <time>2019-08-15T15:46:56Z</time>
      </trkpt>
      <trkpt lat="42.0051320" lon="-5.8527830">
        <ele>711.3</ele>
        <time>2019-08-15T15:46:57Z</time>
      </trkpt>
      <trkpt lat="42.0051730" lon="-5.8527880">
        <ele>711.1</ele>
        <time>2019-08-15T15:46:58Z</time>
      </trkpt>
      <trkpt lat="42.0052120" lon="-5.8527850">
        <ele>711.1</ele>
        <time>2019-08-15T15:46:59Z</time>
      </trkpt>
      <trkpt lat="42.0052480" lon="-5.8527840">
        <ele>711.0</ele>
        <time>2019-08-15T15:47:00Z</time>
      </trkpt>
      <trkpt lat="42.0052810" lon="-5.8527840">
        <ele>710.9</ele>
        <time>2019-08-15T15:47:01Z</time>
      </trkpt>
      <trkpt lat="42.0053100" lon="-5.8527820">
        <ele>710.8</ele>
        <time>2019-08-15T15:47:02Z</time>
      </trkpt>
      <trkpt lat="42.0053380" lon="-5.8527810">
        <ele>710.7</ele>
        <time>2019-08-15T15:47:03Z</time>
      </trkpt>
      <trkpt lat="42.0053640" lon="-5.8527840">
        <ele>710.6</ele>
        <time>2019-08-15T15:47:04Z</time>
      </trkpt>
      <trkpt lat="42.0054040" lon="-5.8528120">
        <ele>710.6</ele>
        <time>2019-08-15T15:47:06Z</time>
      </trkpt>
      <trkpt lat="42.0054210" lon="-5.8528610">
        <ele>710.6</ele>
        <time>2019-08-15T15:47:08Z</time>
      </trkpt>
      <trkpt lat="42.0054280" lon="-5.8529190">
        <ele>710.5</ele>
        <time>2019-08-15T15:47:10Z</time>
      </trkpt>
      <trkpt lat="42.0054290" lon="-5.8529730">
        <ele>710.5</ele>
        <time>2019-08-15T15:47:12Z</time>
      </trkpt>
      <trkpt lat="42.0054280" lon="-5.8530230">
        <ele>710.5</ele>
        <time>2019-08-15T15:47:14Z</time>
      </trkpt>
      <trkpt lat="42.0054320" lon="-5.8530780">
        <ele>710.5</ele>
        <time>2019-08-15T15:47:16Z</time>
      </trkpt>
      <trkpt lat="42.0054390" lon="-5.8531380">
        <ele>710.4</ele>
        <time>2019-08-15T15:47:18Z</time>
      </trkpt>
      <trkpt lat="42.0054470" lon="-5.8531970">
        <ele>710.4</ele>
        <time>2019-08-15T15:47:20Z</time>
      </trkpt>
      <trkpt lat="42.0054520" lon="-5.8532530">
        <ele>710.4</ele>
        <time>2019-08-15T15:47:22Z</time>
      </trkpt>
      <trkpt lat="42.0054580" lon="-5.8532950">
        <ele>710.3</ele>
        <time>2019-08-15T15:47:24Z</time>
      </trkpt>
      <trkpt lat="42.0054610" lon="-5.8533300">
        <ele>710.2</ele>
        <time>2019-08-15T15:47:26Z</time>
      </trkpt>
      <trkpt lat="42.0054590" lon="-5.8533600">
        <ele>710.3</ele>
        <time>2019-08-15T15:47:29Z</time>
      </trkpt>
      <trkpt lat="42.0054660" lon="-5.8533800">
        <ele>710.2</ele>
        <time>2019-08-15T15:47:40Z</time>
      </trkpt>
      <trkpt lat="42.0055100" lon="-5.8533000">
        <ele>710.2</ele>
        <time>2019-08-15T15:48:04Z</time>
      </trkpt>
      <trkpt lat="42.0055390" lon="-5.8532900">
        <ele>710.1</ele>
        <time>2019-08-15T15:48:07Z</time>
      </trkpt>
      <trkpt lat="42.0055610" lon="-5.8532890">
        <ele>710.0</ele>
        <time>2019-08-15T15:48:12Z</time>
      </trkpt>
      <trkpt lat="42.0056260" lon="-5.8534160">
        <ele>709.7</ele>
        <time>2019-08-15T15:49:08Z</time>
      </trkpt>
      <trkpt lat="42.0056340" lon="-5.8534510">
        <ele>709.7</ele>
        <time>2019-08-15T15:49:11Z</time>
      </trkpt>
      <trkpt lat="42.0056550" lon="-5.8536270">
        <ele>709.3</ele>
        <time>2019-08-15T15:49:43Z</time>
      </trkpt>
      <trkpt lat="42.0056560" lon="-5.8536740">
        <ele>709.2</ele>
        <time>2019-08-15T15:49:44Z</time>
      </trkpt>
      <trkpt lat="42.0056580" lon="-5.8537230">
        <ele>709.1</ele>
        <time>2019-08-15T15:49:45Z</time>
      </trkpt>
      <trkpt lat="42.0056600" lon="-5.8537750">
        <ele>709.0</ele>
        <time>2019-08-15T15:49:46Z</time>
      </trkpt>
      <trkpt lat="42.0056630" lon="-5.8538280">
        <ele>708.9</ele>
        <time>2019-08-15T15:49:47Z</time>
      </trkpt>
      <trkpt lat="42.0056660" lon="-5.8538810">
        <ele>708.8</ele>
        <time>2019-08-15T15:49:48Z</time>
      </trkpt>
      <trkpt lat="42.0056700" lon="-5.8539390">
        <ele>708.7</ele>
        <time>2019-08-15T15:49:49Z</time>
      </trkpt>
      <trkpt lat="42.0056730" lon="-5.8539950">
        <ele>708.7</ele>
        <time>2019-08-15T15:49:50Z</time>
      </trkpt>
      <trkpt lat="42.0056770" lon="-5.8540500">
        <ele>708.7</ele>
        <time>2019-08-15T15:49:51Z</time>
      </trkpt>
      <trkpt lat="42.0056800" lon="-5.8541060">
        <ele>708.7</ele>
        <time>2019-08-15T15:49:52Z</time>
      </trkpt>
      <trkpt lat="42.0056810" lon="-5.8541640">
        <ele>708.6</ele>
        <time>2019-08-15T15:49:53Z</time>
      </trkpt>
      <trkpt lat="42.0056810" lon="-5.8542230">
        <ele>708.6</ele>
        <time>2019-08-15T15:49:54Z</time>
      </trkpt>
      <trkpt lat="42.0056840" lon="-5.8542830">
        <ele>708.6</ele>
        <time>2019-08-15T15:49:55Z</time>
      </trkpt>
      <trkpt lat="42.0056870" lon="-5.8543440">
        <ele>708.7</ele>
        <time>2019-08-15T15:49:56Z</time>
      </trkpt>
      <trkpt lat="42.0056910" lon="-5.8544070">
        <ele>708.7</ele>
        <time>2019-08-15T15:49:57Z</time>
      </trkpt>
      <trkpt lat="42.0056930" lon="-5.8544710">
        <ele>708.8</ele>
        <time>2019-08-15T15:49:58Z</time>
      </trkpt>
      <trkpt lat="42.0056950" lon="-5.8545380">
        <ele>708.8</ele>
        <time>2019-08-15T15:49:59Z</time>
      </trkpt>
      <trkpt lat="42.0056980" lon="-5.8546020">
        <ele>708.9</ele>
        <time>2019-08-15T15:50:00Z</time>
      </trkpt>
      <trkpt lat="42.0057010" lon="-5.8546650">
        <ele>709.0</ele>
        <time>2019-08-15T15:50:01Z</time>
      </trkpt>
      <trkpt lat="42.0057040" lon="-5.8547270">
        <ele>709.0</ele>
        <time>2019-08-15T15:50:02Z</time>
      </trkpt>
      <trkpt lat="42.0057060" lon="-5.8547880">
        <ele>709.1</ele>
        <time>2019-08-15T15:50:03Z</time>
      </trkpt>
      <trkpt lat="42.0057050" lon="-5.8548490">
        <ele>709.2</ele>
        <time>2019-08-15T15:50:04Z</time>
      </trkpt>
      <trkpt lat="42.0057040" lon="-5.8549060">
        <ele>709.2</ele>
        <time>2019-08-15T15:50:05Z</time>
      </trkpt>
      <trkpt lat="42.0057040" lon="-5.8549620">
        <ele>709.3</ele>
        <time>2019-08-15T15:50:06Z</time>
      </trkpt>
      <trkpt lat="42.0057030" lon="-5.8550180">
        <ele>709.3</ele>
        <time>2019-08-15T15:50:07Z</time>
      </trkpt>
      <trkpt lat="42.0057050" lon="-5.8550750">
        <ele>709.4</ele>
        <time>2019-08-15T15:50:08Z</time>
      </trkpt>
      <trkpt lat="42.0057090" lon="-5.8551340">
        <ele>709.5</ele>
        <time>2019-08-15T15:50:09Z</time>
      </trkpt>
      <trkpt lat="42.0057120" lon="-5.8551930">
        <ele>709.5</ele>
        <time>2019-08-15T15:50:10Z</time>
      </trkpt>
      <trkpt lat="42.0057130" lon="-5.8552530">
        <ele>709.6</ele>
        <time>2019-08-15T15:50:11Z</time>
      </trkpt>
      <trkpt lat="42.0057130" lon="-5.8553110">
        <ele>709.7</ele>
        <time>2019-08-15T15:50:12Z</time>
      </trkpt>
      <trkpt lat="42.0057140" lon="-5.8553690">
        <ele>709.8</ele>
        <time>2019-08-15T15:50:13Z</time>
      </trkpt>
      <trkpt lat="42.0057160" lon="-5.8554260">
        <ele>709.9</ele>
        <time>2019-08-15T15:50:14Z</time>
      </trkpt>
      <trkpt lat="42.0057190" lon="-5.8554840">
        <ele>710.0</ele>
        <time>2019-08-15T15:50:15Z</time>
      </trkpt>
      <trkpt lat="42.0057240" lon="-5.8555450">
        <ele>710.0</ele>
        <time>2019-08-15T15:50:16Z</time>
      </trkpt>
      <trkpt lat="42.0057290" lon="-5.8556050">
        <ele>710.1</ele>
        <time>2019-08-15T15:50:17Z</time>
      </trkpt>
      <trkpt lat="42.0057310" lon="-5.8556680">
        <ele>710.2</ele>
        <time>2019-08-15T15:50:18Z</time>
      </trkpt>
      <trkpt lat="42.0057320" lon="-5.8557280">
        <ele>710.3</ele>
        <time>2019-08-15T15:50:19Z</time>
      </trkpt>
      <trkpt lat="42.0057340" lon="-5.8557860">
        <ele>710.4</ele>
        <time>2019-08-15T15:50:20Z</time>
      </trkpt>
      <trkpt lat="42.0057360" lon="-5.8558450">
        <ele>710.5</ele>
        <time>2019-08-15T15:50:21Z</time>
      </trkpt>
      <trkpt lat="42.0057400" lon="-5.8559030">
        <ele>710.6</ele>
        <time>2019-08-15T15:50:22Z</time>
      </trkpt>
      <trkpt lat="42.0057430" lon="-5.8559620">
        <ele>710.7</ele>
        <time>2019-08-15T15:50:23Z</time>
      </trkpt>
      <trkpt lat="42.0057460" lon="-5.8560220">
        <ele>710.8</ele>
        <time>2019-08-15T15:50:24Z</time>
      </trkpt>
      <trkpt lat="42.0057480" lon="-5.8560810">
        <ele>710.9</ele>
        <time>2019-08-15T15:50:25Z</time>
      </trkpt>
      <trkpt lat="42.0057500" lon="-5.8561420">
        <ele>711.0</ele>
        <time>2019-08-15T15:50:26Z</time>
      </trkpt>
      <trkpt lat="42.0057510" lon="-5.8562030">
        <ele>711.1</ele>
        <time>2019-08-15T15:50:27Z</time>
      </trkpt>
      <trkpt lat="42.0057510" lon="-5.8562640">
        <ele>711.2</ele>
        <time>2019-08-15T15:50:28Z</time>
      </trkpt>
      <trkpt lat="42.0057500" lon="-5.8563240">
        <ele>711.3</ele>
        <time>2019-08-15T15:50:29Z</time>
      </trkpt>
      <trkpt lat="42.0057500" lon="-5.8563800">
        <ele>711.4</ele>
        <time>2019-08-15T15:50:30Z</time>
      </trkpt>
      <trkpt lat="42.0057530" lon="-5.8564360">
        <ele>711.5</ele>
        <time>2019-08-15T15:50:31Z</time>
      </trkpt>
      <trkpt lat="42.0057550" lon="-5.8564900">
        <ele>711.5</ele>
        <time>2019-08-15T15:50:32Z</time>
      </trkpt>
      <trkpt lat="42.0057570" lon="-5.8565440">
        <ele>711.5</ele>
        <time>2019-08-15T15:50:33Z</time>
      </trkpt>
      <trkpt lat="42.0057600" lon="-5.8565980">
        <ele>711.5</ele>
        <time>2019-08-15T15:50:34Z</time>
      </trkpt>
      <trkpt lat="42.0057630" lon="-5.8566520">
        <ele>711.5</ele>
        <time>2019-08-15T15:50:35Z</time>
      </trkpt>
      <trkpt lat="42.0057680" lon="-5.8567030">
        <ele>711.5</ele>
        <time>2019-08-15T15:50:36Z</time>
      </trkpt>
      <trkpt lat="42.0057710" lon="-5.8567520">
        <ele>711.4</ele>
        <time>2019-08-15T15:50:37Z</time>
      </trkpt>
      <trkpt lat="42.0057740" lon="-5.8568000">
        <ele>711.4</ele>
        <time>2019-08-15T15:50:38Z</time>
      </trkpt>
      <trkpt lat="42.0057770" lon="-5.8568490">
        <ele>711.3</ele>
        <time>2019-08-15T15:50:39Z</time>
      </trkpt>
      <trkpt lat="42.0057810" lon="-5.8569040">
        <ele>711.2</ele>
        <time>2019-08-15T15:50:40Z</time>
      </trkpt>
      <trkpt lat="42.0057840" lon="-5.8569610">
        <ele>711.2</ele>
        <time>2019-08-15T15:50:41Z</time>
      </trkpt>
      <trkpt lat="42.0057890" lon="-5.8570240">
        <ele>711.1</ele>
        <time>2019-08-15T15:50:42Z</time>
      </trkpt>
      <trkpt lat="42.0057920" lon="-5.8570880">
        <ele>711.0</ele>
        <time>2019-08-15T15:50:43Z</time>
      </trkpt>
      <trkpt lat="42.0057950" lon="-5.8571530">
        <ele>711.0</ele>
        <time>2019-08-15T15:50:44Z</time>
      </trkpt>
      <trkpt lat="42.0057970" lon="-5.8572190">
        <ele>710.9</ele>
        <time>2019-08-15T15:50:45Z</time>
      </trkpt>
      <trkpt lat="42.0058000" lon="-5.8572840">
        <ele>710.8</ele>
        <time>2019-08-15T15:50:46Z</time>
      </trkpt>
      <trkpt lat="42.0058010" lon="-5.8573480">
        <ele>710.7</ele>
        <time>2019-08-15T15:50:47Z</time>
      </trkpt>
      <trkpt lat="42.0058030" lon="-5.8574120">
        <ele>710.7</ele>
        <time>2019-08-15T15:50:48Z</time>
      </trkpt>
      <trkpt lat="42.0058040" lon="-5.8574750">
        <ele>710.6</ele>
        <time>2019-08-15T15:50:49Z</time>
      </trkpt>
      <trkpt lat="42.0058070" lon="-5.8575400">
        <ele>710.6</ele>
        <time>2019-08-15T15:50:50Z</time>
      </trkpt>
      <trkpt lat="42.0058090" lon="-5.8576030">
        <ele>710.5</ele>
        <time>2019-08-15T15:50:51Z</time>
      </trkpt>
      <trkpt lat="42.0058110" lon="-5.8576660">
        <ele>710.5</ele>
        <time>2019-08-15T15:50:52Z</time>
      </trkpt>
      <trkpt lat="42.0058140" lon="-5.8577290">
        <ele>710.4</ele>
        <time>2019-08-15T15:50:53Z</time>
      </trkpt>
      <trkpt lat="42.0058170" lon="-5.8577930">
        <ele>710.4</ele>
        <time>2019-08-15T15:50:54Z</time>
      </trkpt>
      <trkpt lat="42.0058190" lon="-5.8578550">
        <ele>710.3</ele>
        <time>2019-08-15T15:50:55Z</time>
      </trkpt>
      <trkpt lat="42.0058220" lon="-5.8579170">
        <ele>710.3</ele>
        <time>2019-08-15T15:50:56Z</time>
      </trkpt>
      <trkpt lat="42.0058250" lon="-5.8579800">
        <ele>710.3</ele>
        <time>2019-08-15T15:50:57Z</time>
      </trkpt>
      <trkpt lat="42.0058280" lon="-5.8580430">
        <ele>710.3</ele>
        <time>2019-08-15T15:50:58Z</time>
      </trkpt>
      <trkpt lat="42.0058310" lon="-5.8581060">
        <ele>710.3</ele>
        <time>2019-08-15T15:50:59Z</time>
      </trkpt>
      <trkpt lat="42.0058340" lon="-5.8581680">
        <ele>710.2</ele>
        <time>2019-08-15T15:51:00Z</time>
      </trkpt>
      <trkpt lat="42.0058360" lon="-5.8582300">
        <ele>710.2</ele>
        <time>2019-08-15T15:51:01Z</time>
      </trkpt>
      <trkpt lat="42.0058380" lon="-5.8582910">
        <ele>710.2</ele>
        <time>2019-08-15T15:51:02Z</time>
      </trkpt>
      <trkpt lat="42.0058390" lon="-5.8583510">
        <ele>710.2</ele>
        <time>2019-08-15T15:51:03Z</time>
      </trkpt>
      <trkpt lat="42.0058410" lon="-5.8584090">
        <ele>710.2</ele>
        <time>2019-08-15T15:51:04Z</time>
      </trkpt>
      <trkpt lat="42.0058430" lon="-5.8584670">
        <ele>710.2</ele>
        <time>2019-08-15T15:51:05Z</time>
      </trkpt>
      <trkpt lat="42.0058450" lon="-5.8585260">
        <ele>710.3</ele>
        <time>2019-08-15T15:51:06Z</time>
      </trkpt>
      <trkpt lat="42.0058460" lon="-5.8585860">
        <ele>710.3</ele>
        <time>2019-08-15T15:51:07Z</time>
      </trkpt>
      <trkpt lat="42.0058480" lon="-5.8586480">
        <ele>710.3</ele>
        <time>2019-08-15T15:51:08Z</time>
      </trkpt>
      <trkpt lat="42.0058510" lon="-5.8587070">
        <ele>710.3</ele>
        <time>2019-08-15T15:51:09Z</time>
      </trkpt>
      <trkpt lat="42.0058520" lon="-5.8587680">
        <ele>710.3</ele>
        <time>2019-08-15T15:51:10Z</time>
      </trkpt>
      <trkpt lat="42.0058470" lon="-5.8588230">
        <ele>710.4</ele>
        <time>2019-08-15T15:51:11Z</time>
      </trkpt>
      <trkpt lat="42.0058450" lon="-5.8588830">
        <ele>710.5</ele>
        <time>2019-08-15T15:51:12Z</time>
      </trkpt>
      <trkpt lat="42.0058450" lon="-5.8589450">
        <ele>710.6</ele>
        <time>2019-08-15T15:51:13Z</time>
      </trkpt>
      <trkpt lat="42.0058440" lon="-5.8590110">
        <ele>710.6</ele>
        <time>2019-08-15T15:51:14Z</time>
      </trkpt>
      <trkpt lat="42.0058450" lon="-5.8590780">
        <ele>710.7</ele>
        <time>2019-08-15T15:51:15Z</time>
      </trkpt>
      <trkpt lat="42.0058470" lon="-5.8591460">
        <ele>710.8</ele>
        <time>2019-08-15T15:51:16Z</time>
      </trkpt>
      <trkpt lat="42.0058490" lon="-5.8592130">
        <ele>710.9</ele>
        <time>2019-08-15T15:51:17Z</time>
      </trkpt>
      <trkpt lat="42.0058530" lon="-5.8592800">
        <ele>711.0</ele>
        <time>2019-08-15T15:51:18Z</time>
      </trkpt>
      <trkpt lat="42.0058560" lon="-5.8593450">
        <ele>711.2</ele>
        <time>2019-08-15T15:51:19Z</time>
      </trkpt>
      <trkpt lat="42.0058580" lon="-5.8594080">
        <ele>711.3</ele>
        <time>2019-08-15T15:51:20Z</time>
      </trkpt>
      <trkpt lat="42.0058620" lon="-5.8594690">
        <ele>711.4</ele>
        <time>2019-08-15T15:51:21Z</time>
      </trkpt>
      <trkpt lat="42.0058650" lon="-5.8595260">
        <ele>711.5</ele>
        <time>2019-08-15T15:51:22Z</time>
      </trkpt>
      <trkpt lat="42.0058680" lon="-5.8595860">
        <ele>711.7</ele>
        <time>2019-08-15T15:51:23Z</time>
      </trkpt>
      <trkpt lat="42.0058720" lon="-5.8596500">
        <ele>711.8</ele>
        <time>2019-08-15T15:51:24Z</time>
      </trkpt>
      <trkpt lat="42.0058750" lon="-5.8597180">
        <ele>711.9</ele>
        <time>2019-08-15T15:51:25Z</time>
      </trkpt>
      <trkpt lat="42.0058790" lon="-5.8597880">
        <ele>712.0</ele>
        <time>2019-08-15T15:51:26Z</time>
      </trkpt>
      <trkpt lat="42.0058830" lon="-5.8598580">
        <ele>712.0</ele>
        <time>2019-08-15T15:51:27Z</time>
      </trkpt>
      <trkpt lat="42.0058870" lon="-5.8599290">
        <ele>712.1</ele>
        <time>2019-08-15T15:51:28Z</time>
      </trkpt>
      <trkpt lat="42.0058900" lon="-5.8600010">
        <ele>712.1</ele>
        <time>2019-08-15T15:51:29Z</time>
      </trkpt>
      <trkpt lat="42.0058930" lon="-5.8600720">
        <ele>712.1</ele>
        <time>2019-08-15T15:51:30Z</time>
      </trkpt>
      <trkpt lat="42.0058950" lon="-5.8601400">
        <ele>712.0</ele>
        <time>2019-08-15T15:51:31Z</time>
      </trkpt>
      <trkpt lat="42.0058970" lon="-5.8602060">
        <ele>711.9</ele>
        <time>2019-08-15T15:51:32Z</time>
      </trkpt>
      <trkpt lat="42.0058990" lon="-5.8602720">
        <ele>711.9</ele>
        <time>2019-08-15T15:51:33Z</time>
      </trkpt>
      <trkpt lat="42.0059000" lon="-5.8603390">
        <ele>711.8</ele>
        <time>2019-08-15T15:51:34Z</time>
      </trkpt>
      <trkpt lat="42.0059030" lon="-5.8604080">
        <ele>711.8</ele>
        <time>2019-08-15T15:51:35Z</time>
      </trkpt>
      <trkpt lat="42.0059070" lon="-5.8604760">
        <ele>711.7</ele>
        <time>2019-08-15T15:51:36Z</time>
      </trkpt>
      <trkpt lat="42.0059100" lon="-5.8605440">
        <ele>711.7</ele>
        <time>2019-08-15T15:51:37Z</time>
      </trkpt>
      <trkpt lat="42.0059140" lon="-5.8606140">
        <ele>711.7</ele>
        <time>2019-08-15T15:51:38Z</time>
      </trkpt>
      <trkpt lat="42.0059160" lon="-5.8606830">
        <ele>711.7</ele>
        <time>2019-08-15T15:51:39Z</time>
      </trkpt>
      <trkpt lat="42.0059180" lon="-5.8607510">
        <ele>711.8</ele>
        <time>2019-08-15T15:51:40Z</time>
      </trkpt>
      <trkpt lat="42.0059200" lon="-5.8608220">
        <ele>711.8</ele>
        <time>2019-08-15T15:51:41Z</time>
      </trkpt>
      <trkpt lat="42.0059220" lon="-5.8608910">
        <ele>711.8</ele>
        <time>2019-08-15T15:51:42Z</time>
      </trkpt>
      <trkpt lat="42.0059260" lon="-5.8609630">
        <ele>711.9</ele>
        <time>2019-08-15T15:51:43Z</time>
      </trkpt>
      <trkpt lat="42.0059280" lon="-5.8610350">
        <ele>712.0</ele>
        <time>2019-08-15T15:51:44Z</time>
      </trkpt>
      <trkpt lat="42.0059310" lon="-5.8611070">
        <ele>712.1</ele>
        <time>2019-08-15T15:51:45Z</time>
      </trkpt>
      <trkpt lat="42.0059340" lon="-5.8611780">
        <ele>712.2</ele>
        <time>2019-08-15T15:51:46Z</time>
      </trkpt>
      <trkpt lat="42.0059360" lon="-5.8612500">
        <ele>712.3</ele>
        <time>2019-08-15T15:51:47Z</time>
      </trkpt>
      <trkpt lat="42.0059390" lon="-5.8613190">
        <ele>712.5</ele>
        <time>2019-08-15T15:51:48Z</time>
      </trkpt>
      <trkpt lat="42.0059420" lon="-5.8613890">
        <ele>712.5</ele>
        <time>2019-08-15T15:51:49Z</time>
      </trkpt>
      <trkpt lat="42.0059440" lon="-5.8614580">
        <ele>712.6</ele>
        <time>2019-08-15T15:51:50Z</time>
      </trkpt>
      <trkpt lat="42.0059470" lon="-5.8615280">
        <ele>712.7</ele>
        <time>2019-08-15T15:51:51Z</time>
      </trkpt>
      <trkpt lat="42.0059490" lon="-5.8616000">
        <ele>712.7</ele>
        <time>2019-08-15T15:51:52Z</time>
      </trkpt>
      <trkpt lat="42.0059520" lon="-5.8616710">
        <ele>712.8</ele>
        <time>2019-08-15T15:51:53Z</time>
      </trkpt>
      <trkpt lat="42.0059540" lon="-5.8617390">
        <ele>712.9</ele>
        <time>2019-08-15T15:51:54Z</time>
      </trkpt>
      <trkpt lat="42.0059570" lon="-5.8618070">
        <ele>713.0</ele>
        <time>2019-08-15T15:51:55Z</time>
      </trkpt>
      <trkpt lat="42.0059610" lon="-5.8618750">
        <ele>713.0</ele>
        <time>2019-08-15T15:51:56Z</time>
      </trkpt>
      <trkpt lat="42.0059650" lon="-5.8619450">
        <ele>713.1</ele>
        <time>2019-08-15T15:51:57Z</time>
      </trkpt>
      <trkpt lat="42.0059680" lon="-5.8620160">
        <ele>713.2</ele>
        <time>2019-08-15T15:51:58Z</time>
      </trkpt>
      <trkpt lat="42.0059720" lon="-5.8620890">
        <ele>713.3</ele>
        <time>2019-08-15T15:51:59Z</time>
      </trkpt>
      <trkpt lat="42.0059750" lon="-5.8621620">
        <ele>713.5</ele>
        <time>2019-08-15T15:52:00Z</time>
      </trkpt>
      <trkpt lat="42.0059780" lon="-5.8622330">
        <ele>713.5</ele>
        <time>2019-08-15T15:52:01Z</time>
      </trkpt>
      <trkpt lat="42.0059810" lon="-5.8623040">
        <ele>713.6</ele>
        <time>2019-08-15T15:52:02Z</time>
      </trkpt>
      <trkpt lat="42.0059820" lon="-5.8623750">
        <ele>713.6</ele>
        <time>2019-08-15T15:52:03Z</time>
      </trkpt>
      <trkpt lat="42.0059840" lon="-5.8624470">
        <ele>713.7</ele>
        <time>2019-08-15T15:52:04Z</time>
      </trkpt>
      <trkpt lat="42.0059880" lon="-5.8625180">
        <ele>713.7</ele>
        <time>2019-08-15T15:52:05Z</time>
      </trkpt>
      <trkpt lat="42.0059910" lon="-5.8625890">
        <ele>713.7</ele>
        <time>2019-08-15T15:52:06Z</time>
      </trkpt>
      <trkpt lat="42.0059940" lon="-5.8626600">
        <ele>713.8</ele>
        <time>2019-08-15T15:52:07Z</time>
      </trkpt>
      <trkpt lat="42.0059960" lon="-5.8627290">
        <ele>713.8</ele>
        <time>2019-08-15T15:52:08Z</time>
      </trkpt>
      <trkpt lat="42.0060000" lon="-5.8627960">
        <ele>713.8</ele>
        <time>2019-08-15T15:52:09Z</time>
      </trkpt>
      <trkpt lat="42.0060030" lon="-5.8628640">
        <ele>713.9</ele>
        <time>2019-08-15T15:52:10Z</time>
      </trkpt>
      <trkpt lat="42.0060050" lon="-5.8629320">
        <ele>714.0</ele>
        <time>2019-08-15T15:52:11Z</time>
      </trkpt>
      <trkpt lat="42.0060060" lon="-5.8630000">
        <ele>714.0</ele>
        <time>2019-08-15T15:52:12Z</time>
      </trkpt>
      <trkpt lat="42.0060070" lon="-5.8630690">
        <ele>714.1</ele>
        <time>2019-08-15T15:52:13Z</time>
      </trkpt>
      <trkpt lat="42.0060090" lon="-5.8631390">
        <ele>714.1</ele>
        <time>2019-08-15T15:52:14Z</time>
      </trkpt>
      <trkpt lat="42.0060110" lon="-5.8632100">
        <ele>714.1</ele>
        <time>2019-08-15T15:52:15Z</time>
      </trkpt>
      <trkpt lat="42.0060140" lon="-5.8632800">
        <ele>714.2</ele>
        <time>2019-08-15T15:52:16Z</time>
      </trkpt>
      <trkpt lat="42.0060170" lon="-5.8633520">
        <ele>714.3</ele>
        <time>2019-08-15T15:52:17Z</time>
      </trkpt>
      <trkpt lat="42.0060190" lon="-5.8634240">
        <ele>714.3</ele>
        <time>2019-08-15T15:52:18Z</time>
      </trkpt>
      <trkpt lat="42.0060220" lon="-5.8634960">
        <ele>714.4</ele>
        <time>2019-08-15T15:52:19Z</time>
      </trkpt>
      <trkpt lat="42.0060240" lon="-5.8635670">
        <ele>714.4</ele>
        <time>2019-08-15T15:52:20Z</time>
      </trkpt>
      <trkpt lat="42.0060260" lon="-5.8636390">
        <ele>714.5</ele>
        <time>2019-08-15T15:52:21Z</time>
      </trkpt>
      <trkpt lat="42.0060270" lon="-5.8637120">
        <ele>714.6</ele>
        <time>2019-08-15T15:52:22Z</time>
      </trkpt>
      <trkpt lat="42.0060300" lon="-5.8637840">
        <ele>714.7</ele>
        <time>2019-08-15T15:52:23Z</time>
      </trkpt>
      <trkpt lat="42.0060340" lon="-5.8638570">
        <ele>714.8</ele>
        <time>2019-08-15T15:52:24Z</time>
      </trkpt>
      <trkpt lat="42.0060370" lon="-5.8639280">
        <ele>714.9</ele>
        <time>2019-08-15T15:52:25Z</time>
      </trkpt>
      <trkpt lat="42.0060380" lon="-5.8639990">
        <ele>715.0</ele>
        <time>2019-08-15T15:52:26Z</time>
      </trkpt>
      <trkpt lat="42.0060400" lon="-5.8640690">
        <ele>715.1</ele>
        <time>2019-08-15T15:52:27Z</time>
      </trkpt>
      <trkpt lat="42.0060430" lon="-5.8641340">
        <ele>715.1</ele>
        <time>2019-08-15T15:52:28Z</time>
      </trkpt>
      <trkpt lat="42.0060470" lon="-5.8641990">
        <ele>715.2</ele>
        <time>2019-08-15T15:52:29Z</time>
      </trkpt>
      <trkpt lat="42.0060500" lon="-5.8642650">
        <ele>715.3</ele>
        <time>2019-08-15T15:52:30Z</time>
      </trkpt>
      <trkpt lat="42.0060530" lon="-5.8643310">
        <ele>715.4</ele>
        <time>2019-08-15T15:52:31Z</time>
      </trkpt>
      <trkpt lat="42.0060550" lon="-5.8643980">
        <ele>715.6</ele>
        <time>2019-08-15T15:52:32Z</time>
      </trkpt>
      <trkpt lat="42.0060570" lon="-5.8644640">
        <ele>715.7</ele>
        <time>2019-08-15T15:52:33Z</time>
      </trkpt>
      <trkpt lat="42.0060580" lon="-5.8645300">
        <ele>715.8</ele>
        <time>2019-08-15T15:52:34Z</time>
      </trkpt>
      <trkpt lat="42.0060610" lon="-5.8645950">
        <ele>716.0</ele>
        <time>2019-08-15T15:52:35Z</time>
      </trkpt>
      <trkpt lat="42.0060650" lon="-5.8646620">
        <ele>716.1</ele>
        <time>2019-08-15T15:52:36Z</time>
      </trkpt>
      <trkpt lat="42.0060670" lon="-5.8647280">
        <ele>716.3</ele>
        <time>2019-08-15T15:52:37Z</time>
      </trkpt>
      <trkpt lat="42.0060690" lon="-5.8647940">
        <ele>716.4</ele>
        <time>2019-08-15T15:52:38Z</time>
      </trkpt>
      <trkpt lat="42.0060730" lon="-5.8648600">
        <ele>716.6</ele>
        <time>2019-08-15T15:52:39Z</time>
      </trkpt>
      <trkpt lat="42.0060760" lon="-5.8649260">
        <ele>716.7</ele>
        <time>2019-08-15T15:52:40Z</time>
      </trkpt>
      <trkpt lat="42.0060790" lon="-5.8649930">
        <ele>716.9</ele>
        <time>2019-08-15T15:52:41Z</time>
      </trkpt>
      <trkpt lat="42.0060810" lon="-5.8650600">
        <ele>717.0</ele>
        <time>2019-08-15T15:52:42Z</time>
      </trkpt>
      <trkpt lat="42.0060840" lon="-5.8651270">
        <ele>717.2</ele>
        <time>2019-08-15T15:52:43Z</time>
      </trkpt>
      <trkpt lat="42.0060850" lon="-5.8651950">
        <ele>717.3</ele>
        <time>2019-08-15T15:52:44Z</time>
      </trkpt>
      <trkpt lat="42.0060880" lon="-5.8652640">
        <ele>717.4</ele>
        <time>2019-08-15T15:52:45Z</time>
      </trkpt>
      <trkpt lat="42.0060910" lon="-5.8653310">
        <ele>717.5</ele>
        <time>2019-08-15T15:52:46Z</time>
      </trkpt>
      <trkpt lat="42.0060940" lon="-5.8654000">
        <ele>717.7</ele>
        <time>2019-08-15T15:52:47Z</time>
      </trkpt>
      <trkpt lat="42.0060960" lon="-5.8654680">
        <ele>717.9</ele>
        <time>2019-08-15T15:52:48Z</time>
      </trkpt>
      <trkpt lat="42.0060980" lon="-5.8655340">
        <ele>718.1</ele>
        <time>2019-08-15T15:52:49Z</time>
      </trkpt>
      <trkpt lat="42.0061010" lon="-5.8656010">
        <ele>718.2</ele>
        <time>2019-08-15T15:52:50Z</time>
      </trkpt>
      <trkpt lat="42.0061040" lon="-5.8656700">
        <ele>718.2</ele>
        <time>2019-08-15T15:52:51Z</time>
      </trkpt>
      <trkpt lat="42.0061070" lon="-5.8657390">
        <ele>718.2</ele>
        <time>2019-08-15T15:52:52Z</time>
      </trkpt>
      <trkpt lat="42.0061100" lon="-5.8658100">
        <ele>718.2</ele>
        <time>2019-08-15T15:52:53Z</time>
      </trkpt>
      <trkpt lat="42.0061120" lon="-5.8658810">
        <ele>717.9</ele>
        <time>2019-08-15T15:52:54Z</time>
      </trkpt>
      <trkpt lat="42.0061140" lon="-5.8659510">
        <ele>717.9</ele>
        <time>2019-08-15T15:52:55Z</time>
      </trkpt>
      <trkpt lat="42.0061150" lon="-5.8660200">
        <ele>717.9</ele>
        <time>2019-08-15T15:52:56Z</time>
      </trkpt>
      <trkpt lat="42.0061160" lon="-5.8660880">
        <ele>717.8</ele>
        <time>2019-08-15T15:52:57Z</time>
      </trkpt>
      <trkpt lat="42.0061180" lon="-5.8661540">
        <ele>717.8</ele>
        <time>2019-08-15T15:52:58Z</time>
      </trkpt>
      <trkpt lat="42.0061200" lon="-5.8662190">
        <ele>717.8</ele>
        <time>2019-08-15T15:52:59Z</time>
      </trkpt>
      <trkpt lat="42.0061230" lon="-5.8662880">
        <ele>717.8</ele>
        <time>2019-08-15T15:53:00Z</time>
      </trkpt>
      <trkpt lat="42.0061270" lon="-5.8663570">
        <ele>717.8</ele>
        <time>2019-08-15T15:53:01Z</time>
      </trkpt>
      <trkpt lat="42.0061300" lon="-5.8664290">
        <ele>717.8</ele>
        <time>2019-08-15T15:53:02Z</time>
      </trkpt>
      <trkpt lat="42.0061330" lon="-5.8665010">
        <ele>717.8</ele>
        <time>2019-08-15T15:53:03Z</time>
      </trkpt>
      <trkpt lat="42.0061360" lon="-5.8665740">
        <ele>717.8</ele>
        <time>2019-08-15T15:53:04Z</time>
      </trkpt>
      <trkpt lat="42.0061380" lon="-5.8666470">
        <ele>717.8</ele>
        <time>2019-08-15T15:53:05Z</time>
      </trkpt>
      <trkpt lat="42.0061410" lon="-5.8667220">
        <ele>717.8</ele>
        <time>2019-08-15T15:53:06Z</time>
      </trkpt>
      <trkpt lat="42.0061440" lon="-5.8667950">
        <ele>717.8</ele>
        <time>2019-08-15T15:53:07Z</time>
      </trkpt>
      <trkpt lat="42.0061470" lon="-5.8668680">
        <ele>717.9</ele>
        <time>2019-08-15T15:53:08Z</time>
      </trkpt>
      <trkpt lat="42.0061500" lon="-5.8669350">
        <ele>717.9</ele>
        <time>2019-08-15T15:53:09Z</time>
      </trkpt>
      <trkpt lat="42.0061510" lon="-5.8670050">
        <ele>717.9</ele>
        <time>2019-08-15T15:53:10Z</time>
      </trkpt>
      <trkpt lat="42.0061540" lon="-5.8670750">
        <ele>717.9</ele>
        <time>2019-08-15T15:53:11Z</time>
      </trkpt>
      <trkpt lat="42.0061560" lon="-5.8671440">
        <ele>717.9</ele>
        <time>2019-08-15T15:53:12Z</time>
      </trkpt>
      <trkpt lat="42.0061590" lon="-5.8672150">
        <ele>718.0</ele>
        <time>2019-08-15T15:53:13Z</time>
      </trkpt>
      <trkpt lat="42.0061620" lon="-5.8672880">
        <ele>718.0</ele>
        <time>2019-08-15T15:53:14Z</time>
      </trkpt>
      <trkpt lat="42.0061650" lon="-5.8673600">
        <ele>718.0</ele>
        <time>2019-08-15T15:53:15Z</time>
      </trkpt>
      <trkpt lat="42.0061670" lon="-5.8674300">
        <ele>718.0</ele>
        <time>2019-08-15T15:53:16Z</time>
      </trkpt>
      <trkpt lat="42.0061690" lon="-5.8674990">
        <ele>718.0</ele>
        <time>2019-08-15T15:53:17Z</time>
      </trkpt>
      <trkpt lat="42.0061710" lon="-5.8675690">
        <ele>718.1</ele>
        <time>2019-08-15T15:53:18Z</time>
      </trkpt>
      <trkpt lat="42.0061740" lon="-5.8676370">
        <ele>718.1</ele>
        <time>2019-08-15T15:53:19Z</time>
      </trkpt>
      <trkpt lat="42.0061760" lon="-5.8677080">
        <ele>718.1</ele>
        <time>2019-08-15T15:53:20Z</time>
      </trkpt>
      <trkpt lat="42.0061790" lon="-5.8677790">
        <ele>718.1</ele>
        <time>2019-08-15T15:53:21Z</time>
      </trkpt>
      <trkpt lat="42.0061820" lon="-5.8678520">
        <ele>718.2</ele>
        <time>2019-08-15T15:53:22Z</time>
      </trkpt>
      <trkpt lat="42.0061850" lon="-5.8679270">
        <ele>718.2</ele>
        <time>2019-08-15T15:53:23Z</time>
      </trkpt>
      <trkpt lat="42.0061880" lon="-5.8680020">
        <ele>718.2</ele>
        <time>2019-08-15T15:53:24Z</time>
      </trkpt>
      <trkpt lat="42.0061900" lon="-5.8680770">
        <ele>718.3</ele>
        <time>2019-08-15T15:53:25Z</time>
      </trkpt>
      <trkpt lat="42.0061930" lon="-5.8681530">
        <ele>718.3</ele>
        <time>2019-08-15T15:53:26Z</time>
      </trkpt>
      <trkpt lat="42.0061980" lon="-5.8682300">
        <ele>718.4</ele>
        <time>2019-08-15T15:53:27Z</time>
      </trkpt>
      <trkpt lat="42.0062020" lon="-5.8683080">
        <ele>718.4</ele>
        <time>2019-08-15T15:53:28Z</time>
      </trkpt>
      <trkpt lat="42.0062050" lon="-5.8683860">
        <ele>718.5</ele>
        <time>2019-08-15T15:53:29Z</time>
      </trkpt>
      <trkpt lat="42.0062090" lon="-5.8684620">
        <ele>718.5</ele>
        <time>2019-08-15T15:53:30Z</time>
      </trkpt>
      <trkpt lat="42.0062130" lon="-5.8685370">
        <ele>718.6</ele>
        <time>2019-08-15T15:53:31Z</time>
      </trkpt>
      <trkpt lat="42.0062160" lon="-5.8686120">
        <ele>718.6</ele>
        <time>2019-08-15T15:53:32Z</time>
      </trkpt>
      <trkpt lat="42.0062170" lon="-5.8686890">
        <ele>718.6</ele>
        <time>2019-08-15T15:53:33Z</time>
      </trkpt>
      <trkpt lat="42.0062180" lon="-5.8687660">
        <ele>718.6</ele>
        <time>2019-08-15T15:53:34Z</time>
      </trkpt>
      <trkpt lat="42.0062200" lon="-5.8688440">
        <ele>718.6</ele>
        <time>2019-08-15T15:53:35Z</time>
      </trkpt>
      <trkpt lat="42.0062220" lon="-5.8689200">
        <ele>718.6</ele>
        <time>2019-08-15T15:53:36Z</time>
      </trkpt>
      <trkpt lat="42.0062250" lon="-5.8689970">
        <ele>718.6</ele>
        <time>2019-08-15T15:53:37Z</time>
      </trkpt>
      <trkpt lat="42.0062270" lon="-5.8690720">
        <ele>718.7</ele>
        <time>2019-08-15T15:53:38Z</time>
      </trkpt>
      <trkpt lat="42.0062300" lon="-5.8691480">
        <ele>718.7</ele>
        <time>2019-08-15T15:53:39Z</time>
      </trkpt>
      <trkpt lat="42.0062340" lon="-5.8692230">
        <ele>718.6</ele>
        <time>2019-08-15T15:53:40Z</time>
      </trkpt>
      <trkpt lat="42.0062380" lon="-5.8692970">
        <ele>718.6</ele>
        <time>2019-08-15T15:53:41Z</time>
      </trkpt>
      <trkpt lat="42.0062410" lon="-5.8693700">
        <ele>718.6</ele>
        <time>2019-08-15T15:53:42Z</time>
      </trkpt>
      <trkpt lat="42.0062440" lon="-5.8694430">
        <ele>718.6</ele>
        <time>2019-08-15T15:53:43Z</time>
      </trkpt>
      <trkpt lat="42.0062460" lon="-5.8695160">
        <ele>718.6</ele>
        <time>2019-08-15T15:53:44Z</time>
      </trkpt>
      <trkpt lat="42.0062480" lon="-5.8695890">
        <ele>718.6</ele>
        <time>2019-08-15T15:53:45Z</time>
      </trkpt>
      <trkpt lat="42.0062500" lon="-5.8696620">
        <ele>718.5</ele>
        <time>2019-08-15T15:53:46Z</time>
      </trkpt>
      <trkpt lat="42.0062550" lon="-5.8697360">
        <ele>718.5</ele>
        <time>2019-08-15T15:53:47Z</time>
      </trkpt>
      <trkpt lat="42.0062580" lon="-5.8698120">
        <ele>718.5</ele>
        <time>2019-08-15T15:53:48Z</time>
      </trkpt>
      <trkpt lat="42.0062610" lon="-5.8698880">
        <ele>718.5</ele>
        <time>2019-08-15T15:53:49Z</time>
      </trkpt>
      <trkpt lat="42.0062640" lon="-5.8699640">
        <ele>718.5</ele>
        <time>2019-08-15T15:53:50Z</time>
      </trkpt>
      <trkpt lat="42.0062670" lon="-5.8700410">
        <ele>718.4</ele>
        <time>2019-08-15T15:53:51Z</time>
      </trkpt>
      <trkpt lat="42.0062690" lon="-5.8701160">
        <ele>718.4</ele>
        <time>2019-08-15T15:53:52Z</time>
      </trkpt>
      <trkpt lat="42.0062730" lon="-5.8701920">
        <ele>718.4</ele>
        <time>2019-08-15T15:53:53Z</time>
      </trkpt>
      <trkpt lat="42.0062750" lon="-5.8702680">
        <ele>718.4</ele>
        <time>2019-08-15T15:53:54Z</time>
      </trkpt>
      <trkpt lat="42.0062760" lon="-5.8703450">
        <ele>718.3</ele>
        <time>2019-08-15T15:53:55Z</time>
      </trkpt>
      <trkpt lat="42.0062780" lon="-5.8704220">
        <ele>718.3</ele>
        <time>2019-08-15T15:53:56Z</time>
      </trkpt>
      <trkpt lat="42.0062810" lon="-5.8704990">
        <ele>718.3</ele>
        <time>2019-08-15T15:53:57Z</time>
      </trkpt>
      <trkpt lat="42.0062830" lon="-5.8705770">
        <ele>718.3</ele>
        <time>2019-08-15T15:53:58Z</time>
      </trkpt>
      <trkpt lat="42.0062860" lon="-5.8706550">
        <ele>718.3</ele>
        <time>2019-08-15T15:53:59Z</time>
      </trkpt>
      <trkpt lat="42.0062890" lon="-5.8707340">
        <ele>718.3</ele>
        <time>2019-08-15T15:54:00Z</time>
      </trkpt>
      <trkpt lat="42.0062920" lon="-5.8708140">
        <ele>718.3</ele>
        <time>2019-08-15T15:54:01Z</time>
      </trkpt>
      <trkpt lat="42.0062950" lon="-5.8708920">
        <ele>718.3</ele>
        <time>2019-08-15T15:54:02Z</time>
      </trkpt>
      <trkpt lat="42.0062970" lon="-5.8709710">
        <ele>718.3</ele>
        <time>2019-08-15T15:54:03Z</time>
      </trkpt>
      <trkpt lat="42.0062990" lon="-5.8710500">
        <ele>718.3</ele>
        <time>2019-08-15T15:54:04Z</time>
      </trkpt>
      <trkpt lat="42.0063010" lon="-5.8711310">
        <ele>718.2</ele>
        <time>2019-08-15T15:54:05Z</time>
      </trkpt>
      <trkpt lat="42.0063040" lon="-5.8712100">
        <ele>718.2</ele>
        <time>2019-08-15T15:54:06Z</time>
      </trkpt>
      <trkpt lat="42.0063070" lon="-5.8712880">
        <ele>718.2</ele>
        <time>2019-08-15T15:54:07Z</time>
      </trkpt>
      <trkpt lat="42.0063110" lon="-5.8713670">
        <ele>718.2</ele>
        <time>2019-08-15T15:54:08Z</time>
      </trkpt>
      <trkpt lat="42.0063130" lon="-5.8714450">
        <ele>718.2</ele>
        <time>2019-08-15T15:54:09Z</time>
      </trkpt>
      <trkpt lat="42.0063140" lon="-5.8715230">
        <ele>718.2</ele>
        <time>2019-08-15T15:54:10Z</time>
      </trkpt>
      <trkpt lat="42.0063160" lon="-5.8716020">
        <ele>718.1</ele>
        <time>2019-08-15T15:54:11Z</time>
      </trkpt>
      <trkpt lat="42.0063190" lon="-5.8716800">
        <ele>718.1</ele>
        <time>2019-08-15T15:54:12Z</time>
      </trkpt>
      <trkpt lat="42.0063220" lon="-5.8717610">
        <ele>718.1</ele>
        <time>2019-08-15T15:54:13Z</time>
      </trkpt>
      <trkpt lat="42.0063230" lon="-5.8718390">
        <ele>718.1</ele>
        <time>2019-08-15T15:54:14Z</time>
      </trkpt>
      <trkpt lat="42.0063260" lon="-5.8719160">
        <ele>718.1</ele>
        <time>2019-08-15T15:54:15Z</time>
      </trkpt>
      <trkpt lat="42.0063280" lon="-5.8719930">
        <ele>718.1</ele>
        <time>2019-08-15T15:54:16Z</time>
      </trkpt>
      <trkpt lat="42.0063300" lon="-5.8720740">
        <ele>718.1</ele>
        <time>2019-08-15T15:54:17Z</time>
      </trkpt>
      <trkpt lat="42.0063330" lon="-5.8721520">
        <ele>718.1</ele>
        <time>2019-08-15T15:54:18Z</time>
      </trkpt>
      <trkpt lat="42.0063360" lon="-5.8722320">
        <ele>718.1</ele>
        <time>2019-08-15T15:54:19Z</time>
      </trkpt>
      <trkpt lat="42.0063390" lon="-5.8723140">
        <ele>718.1</ele>
        <time>2019-08-15T15:54:20Z</time>
      </trkpt>
      <trkpt lat="42.0063410" lon="-5.8723950">
        <ele>718.2</ele>
        <time>2019-08-15T15:54:21Z</time>
      </trkpt>
      <trkpt lat="42.0063430" lon="-5.8724740">
        <ele>718.2</ele>
        <time>2019-08-15T15:54:22Z</time>
      </trkpt>
      <trkpt lat="42.0063450" lon="-5.8725550">
        <ele>718.2</ele>
        <time>2019-08-15T15:54:23Z</time>
      </trkpt>
      <trkpt lat="42.0063470" lon="-5.8726360">
        <ele>718.2</ele>
        <time>2019-08-15T15:54:24Z</time>
      </trkpt>
      <trkpt lat="42.0063490" lon="-5.8727170">
        <ele>718.2</ele>
        <time>2019-08-15T15:54:25Z</time>
      </trkpt>
      <trkpt lat="42.0063520" lon="-5.8727990">
        <ele>718.3</ele>
        <time>2019-08-15T15:54:26Z</time>
      </trkpt>
      <trkpt lat="42.0063560" lon="-5.8728830">
        <ele>718.3</ele>
        <time>2019-08-15T15:54:27Z</time>
      </trkpt>
      <trkpt lat="42.0063600" lon="-5.8729640">
        <ele>718.3</ele>
        <time>2019-08-15T15:54:28Z</time>
      </trkpt>
      <trkpt lat="42.0063630" lon="-5.8730460">
        <ele>718.3</ele>
        <time>2019-08-15T15:54:29Z</time>
      </trkpt>
      <trkpt lat="42.0063670" lon="-5.8731260">
        <ele>718.3</ele>
        <time>2019-08-15T15:54:30Z</time>
      </trkpt>
      <trkpt lat="42.0063700" lon="-5.8732050">
        <ele>718.3</ele>
        <time>2019-08-15T15:54:31Z</time>
      </trkpt>
      <trkpt lat="42.0063720" lon="-5.8732860">
        <ele>718.2</ele>
        <time>2019-08-15T15:54:32Z</time>
      </trkpt>
      <trkpt lat="42.0063740" lon="-5.8733670">
        <ele>718.2</ele>
        <time>2019-08-15T15:54:33Z</time>
      </trkpt>
      <trkpt lat="42.0063770" lon="-5.8734500">
        <ele>718.2</ele>
        <time>2019-08-15T15:54:34Z</time>
      </trkpt>
      <trkpt lat="42.0063810" lon="-5.8735350">
        <ele>718.1</ele>
        <time>2019-08-15T15:54:35Z</time>
      </trkpt>
      <trkpt lat="42.0063840" lon="-5.8736180">
        <ele>718.1</ele>
        <time>2019-08-15T15:54:36Z</time>
      </trkpt>
      <trkpt lat="42.0063860" lon="-5.8737000">
        <ele>718.1</ele>
        <time>2019-08-15T15:54:37Z</time>
      </trkpt>
      <trkpt lat="42.0063890" lon="-5.8737820">
        <ele>718.1</ele>
        <time>2019-08-15T15:54:38Z</time>
      </trkpt>
      <trkpt lat="42.0063920" lon="-5.8738630">
        <ele>718.0</ele>
        <time>2019-08-15T15:54:39Z</time>
      </trkpt>
      <trkpt lat="42.0063960" lon="-5.8739450">
        <ele>718.0</ele>
        <time>2019-08-15T15:54:40Z</time>
      </trkpt>
      <trkpt lat="42.0064010" lon="-5.8740270">
        <ele>718.0</ele>
        <time>2019-08-15T15:54:41Z</time>
      </trkpt>
      <trkpt lat="42.0064040" lon="-5.8741080">
        <ele>718.0</ele>
        <time>2019-08-15T15:54:42Z</time>
      </trkpt>
      <trkpt lat="42.0064070" lon="-5.8741880">
        <ele>718.0</ele>
        <time>2019-08-15T15:54:43Z</time>
      </trkpt>
      <trkpt lat="42.0064090" lon="-5.8742670">
        <ele>717.9</ele>
        <time>2019-08-15T15:54:44Z</time>
      </trkpt>
      <trkpt lat="42.0064110" lon="-5.8743450">
        <ele>717.9</ele>
        <time>2019-08-15T15:54:45Z</time>
      </trkpt>
      <trkpt lat="42.0064130" lon="-5.8744200">
        <ele>717.9</ele>
        <time>2019-08-15T15:54:46Z</time>
      </trkpt>
      <trkpt lat="42.0064150" lon="-5.8744960">
        <ele>717.9</ele>
        <time>2019-08-15T15:54:47Z</time>
      </trkpt>
      <trkpt lat="42.0064180" lon="-5.8745730">
        <ele>717.9</ele>
        <time>2019-08-15T15:54:48Z</time>
      </trkpt>
      <trkpt lat="42.0064200" lon="-5.8746510">
        <ele>717.9</ele>
        <time>2019-08-15T15:54:49Z</time>
      </trkpt>
      <trkpt lat="42.0064220" lon="-5.8747280">
        <ele>717.9</ele>
        <time>2019-08-15T15:54:50Z</time>
      </trkpt>
      <trkpt lat="42.0064270" lon="-5.8748050">
        <ele>717.9</ele>
        <time>2019-08-15T15:54:51Z</time>
      </trkpt>
      <trkpt lat="42.0064310" lon="-5.8748820">
        <ele>717.9</ele>
        <time>2019-08-15T15:54:52Z</time>
      </trkpt>
      <trkpt lat="42.0064350" lon="-5.8749620">
        <ele>717.9</ele>
        <time>2019-08-15T15:54:53Z</time>
      </trkpt>
      <trkpt lat="42.0064380" lon="-5.8750400">
        <ele>717.9</ele>
        <time>2019-08-15T15:54:54Z</time>
      </trkpt>
      <trkpt lat="42.0064400" lon="-5.8751180">
        <ele>717.9</ele>
        <time>2019-08-15T15:54:55Z</time>
      </trkpt>
      <trkpt lat="42.0064430" lon="-5.8751940">
        <ele>717.9</ele>
        <time>2019-08-15T15:54:56Z</time>
      </trkpt>
      <trkpt lat="42.0064440" lon="-5.8752690">
        <ele>717.9</ele>
        <time>2019-08-15T15:54:57Z</time>
      </trkpt>
      <trkpt lat="42.0064470" lon="-5.8753460">
        <ele>717.9</ele>
        <time>2019-08-15T15:54:58Z</time>
      </trkpt>
      <trkpt lat="42.0064500" lon="-5.8754220">
        <ele>717.9</ele>
        <time>2019-08-15T15:54:59Z</time>
      </trkpt>
      <trkpt lat="42.0064530" lon="-5.8754970">
        <ele>717.8</ele>
        <time>2019-08-15T15:55:00Z</time>
      </trkpt>
      <trkpt lat="42.0064550" lon="-5.8755710">
        <ele>717.8</ele>
        <time>2019-08-15T15:55:01Z</time>
      </trkpt>
      <trkpt lat="42.0064580" lon="-5.8756450">
        <ele>717.8</ele>
        <time>2019-08-15T15:55:02Z</time>
      </trkpt>
      <trkpt lat="42.0064620" lon="-5.8757170">
        <ele>717.7</ele>
        <time>2019-08-15T15:55:03Z</time>
      </trkpt>
      <trkpt lat="42.0064640" lon="-5.8757890">
        <ele>717.7</ele>
        <time>2019-08-15T15:55:04Z</time>
      </trkpt>
      <trkpt lat="42.0064670" lon="-5.8758620">
        <ele>717.6</ele>
        <time>2019-08-15T15:55:05Z</time>
      </trkpt>
      <trkpt lat="42.0064700" lon="-5.8759350">
        <ele>717.6</ele>
        <time>2019-08-15T15:55:06Z</time>
      </trkpt>
      <trkpt lat="42.0064730" lon="-5.8760100">
        <ele>717.5</ele>
        <time>2019-08-15T15:55:07Z</time>
      </trkpt>
      <trkpt lat="42.0064760" lon="-5.8760840">
        <ele>717.5</ele>
        <time>2019-08-15T15:55:08Z</time>
      </trkpt>
      <trkpt lat="42.0064800" lon="-5.8761580">
        <ele>717.4</ele>
        <time>2019-08-15T15:55:09Z</time>
      </trkpt>
      <trkpt lat="42.0064820" lon="-5.8762340">
        <ele>717.4</ele>
        <time>2019-08-15T15:55:10Z</time>
      </trkpt>
      <trkpt lat="42.0064840" lon="-5.8763090">
        <ele>717.4</ele>
        <time>2019-08-15T15:55:11Z</time>
      </trkpt>
      <trkpt lat="42.0064860" lon="-5.8763840">
        <ele>717.3</ele>
        <time>2019-08-15T15:55:12Z</time>
      </trkpt>
      <trkpt lat="42.0064880" lon="-5.8764580">
        <ele>717.3</ele>
        <time>2019-08-15T15:55:13Z</time>
      </trkpt>
      <trkpt lat="42.0064900" lon="-5.8765300">
        <ele>717.3</ele>
        <time>2019-08-15T15:55:14Z</time>
      </trkpt>
      <trkpt lat="42.0064920" lon="-5.8766030">
        <ele>717.3</ele>
        <time>2019-08-15T15:55:15Z</time>
      </trkpt>
      <trkpt lat="42.0064930" lon="-5.8766760">
        <ele>717.3</ele>
        <time>2019-08-15T15:55:16Z</time>
      </trkpt>
      <trkpt lat="42.0064950" lon="-5.8767510">
        <ele>717.3</ele>
        <time>2019-08-15T15:55:17Z</time>
      </trkpt>
      <trkpt lat="42.0064970" lon="-5.8768270">
        <ele>717.2</ele>
        <time>2019-08-15T15:55:18Z</time>
      </trkpt>
      <trkpt lat="42.0065000" lon="-5.8769030">
        <ele>717.2</ele>
        <time>2019-08-15T15:55:19Z</time>
      </trkpt>
      <trkpt lat="42.0065030" lon="-5.8769800">
        <ele>717.2</ele>
        <time>2019-08-15T15:55:20Z</time>
      </trkpt>
      <trkpt lat="42.0065060" lon="-5.8770580">
        <ele>717.1</ele>
        <time>2019-08-15T15:55:21Z</time>
      </trkpt>
      <trkpt lat="42.0065090" lon="-5.8771350">
        <ele>717.1</ele>
        <time>2019-08-15T15:55:22Z</time>
      </trkpt>
      <trkpt lat="42.0065120" lon="-5.8772140">
        <ele>717.1</ele>
        <time>2019-08-15T15:55:23Z</time>
      </trkpt>
      <trkpt lat="42.0065150" lon="-5.8772890">
        <ele>717.1</ele>
        <time>2019-08-15T15:55:24Z</time>
      </trkpt>
      <trkpt lat="42.0065160" lon="-5.8773650">
        <ele>717.1</ele>
        <time>2019-08-15T15:55:25Z</time>
      </trkpt>
      <trkpt lat="42.0065200" lon="-5.8774400">
        <ele>717.2</ele>
        <time>2019-08-15T15:55:26Z</time>
      </trkpt>
      <trkpt lat="42.0065220" lon="-5.8775140">
        <ele>717.2</ele>
        <time>2019-08-15T15:55:27Z</time>
      </trkpt>
      <trkpt lat="42.0065220" lon="-5.8775860">
        <ele>717.3</ele>
        <time>2019-08-15T15:55:28Z</time>
      </trkpt>
      <trkpt lat="42.0065210" lon="-5.8776570">
        <ele>717.3</ele>
        <time>2019-08-15T15:55:29Z</time>
      </trkpt>
      <trkpt lat="42.0065240" lon="-5.8777290">
        <ele>717.3</ele>
        <time>2019-08-15T15:55:30Z</time>
      </trkpt>
      <trkpt lat="42.0065310" lon="-5.8777990">
        <ele>717.4</ele>
        <time>2019-08-15T15:55:31Z</time>
      </trkpt>
      <trkpt lat="42.0065330" lon="-5.8778700">
        <ele>717.4</ele>
        <time>2019-08-15T15:55:32Z</time>
      </trkpt>
      <trkpt lat="42.0065330" lon="-5.8779410">
        <ele>717.4</ele>
        <time>2019-08-15T15:55:33Z</time>
      </trkpt>
      <trkpt lat="42.0065350" lon="-5.8780130">
        <ele>717.4</ele>
        <time>2019-08-15T15:55:34Z</time>
      </trkpt>
      <trkpt lat="42.0065370" lon="-5.8780870">
        <ele>717.3</ele>
        <time>2019-08-15T15:55:35Z</time>
      </trkpt>
      <trkpt lat="42.0065400" lon="-5.8781640">
        <ele>717.3</ele>
        <time>2019-08-15T15:55:36Z</time>
      </trkpt>
      <trkpt lat="42.0065430" lon="-5.8782410">
        <ele>717.3</ele>
        <time>2019-08-15T15:55:37Z</time>
      </trkpt>
      <trkpt lat="42.0065450" lon="-5.8783160">
        <ele>717.3</ele>
        <time>2019-08-15T15:55:38Z</time>
      </trkpt>
      <trkpt lat="42.0065470" lon="-5.8783930">
        <ele>717.3</ele>
        <time>2019-08-15T15:55:39Z</time>
      </trkpt>
      <trkpt lat="42.0065470" lon="-5.8784660">
        <ele>717.3</ele>
        <time>2019-08-15T15:55:40Z</time>
      </trkpt>
      <trkpt lat="42.0065510" lon="-5.8785380">
        <ele>717.3</ele>
        <time>2019-08-15T15:55:41Z</time>
      </trkpt>
      <trkpt lat="42.0065530" lon="-5.8786100">
        <ele>717.3</ele>
        <time>2019-08-15T15:55:42Z</time>
      </trkpt>
      <trkpt lat="42.0065540" lon="-5.8786780">
        <ele>717.3</ele>
        <time>2019-08-15T15:55:43Z</time>
      </trkpt>
      <trkpt lat="42.0065570" lon="-5.8787470">
        <ele>717.3</ele>
        <time>2019-08-15T15:55:44Z</time>
      </trkpt>
      <trkpt lat="42.0065600" lon="-5.8788150">
        <ele>717.3</ele>
        <time>2019-08-15T15:55:45Z</time>
      </trkpt>
      <trkpt lat="42.0065630" lon="-5.8788830">
        <ele>717.2</ele>
        <time>2019-08-15T15:55:46Z</time>
      </trkpt>
      <trkpt lat="42.0065670" lon="-5.8789540">
        <ele>717.2</ele>
        <time>2019-08-15T15:55:47Z</time>
      </trkpt>
      <trkpt lat="42.0065710" lon="-5.8790250">
        <ele>717.2</ele>
        <time>2019-08-15T15:55:48Z</time>
      </trkpt>
      <trkpt lat="42.0065760" lon="-5.8790990">
        <ele>717.2</ele>
        <time>2019-08-15T15:55:49Z</time>
      </trkpt>
      <trkpt lat="42.0065800" lon="-5.8791730">
        <ele>717.2</ele>
        <time>2019-08-15T15:55:50Z</time>
      </trkpt>
      <trkpt lat="42.0065830" lon="-5.8792470">
        <ele>717.2</ele>
        <time>2019-08-15T15:55:51Z</time>
      </trkpt>
      <trkpt lat="42.0065850" lon="-5.8793220">
        <ele>717.1</ele>
        <time>2019-08-15T15:55:52Z</time>
      </trkpt>
      <trkpt lat="42.0065870" lon="-5.8793980">
        <ele>717.1</ele>
        <time>2019-08-15T15:55:53Z</time>
      </trkpt>
      <trkpt lat="42.0065900" lon="-5.8794730">
        <ele>717.1</ele>
        <time>2019-08-15T15:55:54Z</time>
      </trkpt>
      <trkpt lat="42.0065940" lon="-5.8795490">
        <ele>717.0</ele>
        <time>2019-08-15T15:55:55Z</time>
      </trkpt>
      <trkpt lat="42.0065990" lon="-5.8796260">
        <ele>717.0</ele>
        <time>2019-08-15T15:55:56Z</time>
      </trkpt>
      <trkpt lat="42.0066020" lon="-5.8797020">
        <ele>717.0</ele>
        <time>2019-08-15T15:55:57Z</time>
      </trkpt>
      <trkpt lat="42.0066040" lon="-5.8797800">
        <ele>716.9</ele>
        <time>2019-08-15T15:55:58Z</time>
      </trkpt>
      <trkpt lat="42.0066070" lon="-5.8798570">
        <ele>716.8</ele>
        <time>2019-08-15T15:55:59Z</time>
      </trkpt>
      <trkpt lat="42.0066110" lon="-5.8799350">
        <ele>716.8</ele>
        <time>2019-08-15T15:56:00Z</time>
      </trkpt>
      <trkpt lat="42.0066150" lon="-5.8800130">
        <ele>716.7</ele>
        <time>2019-08-15T15:56:01Z</time>
      </trkpt>
      <trkpt lat="42.0066180" lon="-5.8800910">
        <ele>716.6</ele>
        <time>2019-08-15T15:56:02Z</time>
      </trkpt>
      <trkpt lat="42.0066190" lon="-5.8801710">
        <ele>716.5</ele>
        <time>2019-08-15T15:56:03Z</time>
      </trkpt>
      <trkpt lat="42.0066210" lon="-5.8802490">
        <ele>716.4</ele>
        <time>2019-08-15T15:56:04Z</time>
      </trkpt>
      <trkpt lat="42.0066240" lon="-5.8803310">
        <ele>716.3</ele>
        <time>2019-08-15T15:56:05Z</time>
      </trkpt>
      <trkpt lat="42.0066270" lon="-5.8804120">
        <ele>716.2</ele>
        <time>2019-08-15T15:56:06Z</time>
      </trkpt>
      <trkpt lat="42.0066300" lon="-5.8804890">
        <ele>716.1</ele>
        <time>2019-08-15T15:56:07Z</time>
      </trkpt>
      <trkpt lat="42.0066340" lon="-5.8805660">
        <ele>716.0</ele>
        <time>2019-08-15T15:56:08Z</time>
      </trkpt>
      <trkpt lat="42.0066370" lon="-5.8806410">
        <ele>715.9</ele>
        <time>2019-08-15T15:56:09Z</time>
      </trkpt>
      <trkpt lat="42.0066390" lon="-5.8807160">
        <ele>715.8</ele>
        <time>2019-08-15T15:56:10Z</time>
      </trkpt>
      <trkpt lat="42.0066420" lon="-5.8807890">
        <ele>715.7</ele>
        <time>2019-08-15T15:56:11Z</time>
      </trkpt>
      <trkpt lat="42.0066420" lon="-5.8808610">
        <ele>715.6</ele>
        <time>2019-08-15T15:56:12Z</time>
      </trkpt>
      <trkpt lat="42.0066420" lon="-5.8809320">
        <ele>715.6</ele>
        <time>2019-08-15T15:56:13Z</time>
      </trkpt>
      <trkpt lat="42.0066430" lon="-5.8810040">
        <ele>715.5</ele>
        <time>2019-08-15T15:56:14Z</time>
      </trkpt>
      <trkpt lat="42.0066440" lon="-5.8810750">
        <ele>715.5</ele>
        <time>2019-08-15T15:56:15Z</time>
      </trkpt>
      <trkpt lat="42.0066440" lon="-5.8811450">
        <ele>715.5</ele>
        <time>2019-08-15T15:56:16Z</time>
      </trkpt>
      <trkpt lat="42.0066450" lon="-5.8812140">
        <ele>715.4</ele>
        <time>2019-08-15T15:56:17Z</time>
      </trkpt>
      <trkpt lat="42.0066480" lon="-5.8812820">
        <ele>715.4</ele>
        <time>2019-08-15T15:56:18Z</time>
      </trkpt>
      <trkpt lat="42.0066520" lon="-5.8813480">
        <ele>715.4</ele>
        <time>2019-08-15T15:56:19Z</time>
      </trkpt>
      <trkpt lat="42.0066550" lon="-5.8814130">
        <ele>715.4</ele>
        <time>2019-08-15T15:56:20Z</time>
      </trkpt>
      <trkpt lat="42.0066590" lon="-5.8814760">
        <ele>715.4</ele>
        <time>2019-08-15T15:56:21Z</time>
      </trkpt>
      <trkpt lat="42.0066630" lon="-5.8815410">
        <ele>715.4</ele>
        <time>2019-08-15T15:56:22Z</time>
      </trkpt>
      <trkpt lat="42.0066650" lon="-5.8816080">
        <ele>715.4</ele>
        <time>2019-08-15T15:56:23Z</time>
      </trkpt>
      <trkpt lat="42.0066680" lon="-5.8816790">
        <ele>715.4</ele>
        <time>2019-08-15T15:56:24Z</time>
      </trkpt>
      <trkpt lat="42.0066720" lon="-5.8817520">
        <ele>715.4</ele>
        <time>2019-08-15T15:56:25Z</time>
      </trkpt>
      <trkpt lat="42.0066740" lon="-5.8818250">
        <ele>715.4</ele>
        <time>2019-08-15T15:56:26Z</time>
      </trkpt>
      <trkpt lat="42.0066760" lon="-5.8819020">
        <ele>715.4</ele>
        <time>2019-08-15T15:56:27Z</time>
      </trkpt>
      <trkpt lat="42.0066780" lon="-5.8819790">
        <ele>715.4</ele>
        <time>2019-08-15T15:56:28Z</time>
      </trkpt>
      <trkpt lat="42.0066800" lon="-5.8820600">
        <ele>715.5</ele>
        <time>2019-08-15T15:56:29Z</time>
      </trkpt>
      <trkpt lat="42.0066820" lon="-5.8821400">
        <ele>715.5</ele>
        <time>2019-08-15T15:56:30Z</time>
      </trkpt>
      <trkpt lat="42.0066840" lon="-5.8822220">
        <ele>715.5</ele>
        <time>2019-08-15T15:56:31Z</time>
      </trkpt>
      <trkpt lat="42.0066880" lon="-5.8823020">
        <ele>715.5</ele>
        <time>2019-08-15T15:56:32Z</time>
      </trkpt>
      <trkpt lat="42.0066910" lon="-5.8823830">
        <ele>715.5</ele>
        <time>2019-08-15T15:56:33Z</time>
      </trkpt>
      <trkpt lat="42.0066930" lon="-5.8824660">
        <ele>715.5</ele>
        <time>2019-08-15T15:56:34Z</time>
      </trkpt>
      <trkpt lat="42.0066950" lon="-5.8825500">
        <ele>715.5</ele>
        <time>2019-08-15T15:56:35Z</time>
      </trkpt>
      <trkpt lat="42.0067000" lon="-5.8826340">
        <ele>715.5</ele>
        <time>2019-08-15T15:56:36Z</time>
      </trkpt>
      <trkpt lat="42.0067030" lon="-5.8827180">
        <ele>715.5</ele>
        <time>2019-08-15T15:56:37Z</time>
      </trkpt>
      <trkpt lat="42.0067030" lon="-5.8828000">
        <ele>715.5</ele>
        <time>2019-08-15T15:56:38Z</time>
      </trkpt>
      <trkpt lat="42.0067050" lon="-5.8828830">
        <ele>715.5</ele>
        <time>2019-08-15T15:56:39Z</time>
      </trkpt>
      <trkpt lat="42.0067060" lon="-5.8829650">
        <ele>715.5</ele>
        <time>2019-08-15T15:56:40Z</time>
      </trkpt>
      <trkpt lat="42.0067070" lon="-5.8830460">
        <ele>715.5</ele>
        <time>2019-08-15T15:56:41Z</time>
      </trkpt>
      <trkpt lat="42.0067090" lon="-5.8831250">
        <ele>715.5</ele>
        <time>2019-08-15T15:56:42Z</time>
      </trkpt>
      <trkpt lat="42.0067120" lon="-5.8832050">
        <ele>715.5</ele>
        <time>2019-08-15T15:56:43Z</time>
      </trkpt>
      <trkpt lat="42.0067140" lon="-5.8832860">
        <ele>715.5</ele>
        <time>2019-08-15T15:56:44Z</time>
      </trkpt>
      <trkpt lat="42.0067170" lon="-5.8833670">
        <ele>715.5</ele>
        <time>2019-08-15T15:56:45Z</time>
      </trkpt>
      <trkpt lat="42.0067200" lon="-5.8834480">
        <ele>715.6</ele>
        <time>2019-08-15T15:56:46Z</time>
      </trkpt>
      <trkpt lat="42.0067230" lon="-5.8835310">
        <ele>715.6</ele>
        <time>2019-08-15T15:56:47Z</time>
      </trkpt>
      <trkpt lat="42.0067270" lon="-5.8836140">
        <ele>715.6</ele>
        <time>2019-08-15T15:56:48Z</time>
      </trkpt>
      <trkpt lat="42.0067310" lon="-5.8836960">
        <ele>715.6</ele>
        <time>2019-08-15T15:56:49Z</time>
      </trkpt>
      <trkpt lat="42.0067330" lon="-5.8837770">
        <ele>715.6</ele>
        <time>2019-08-15T15:56:50Z</time>
      </trkpt>
      <trkpt lat="42.0067340" lon="-5.8838570">
        <ele>715.6</ele>
        <time>2019-08-15T15:56:51Z</time>
      </trkpt>
      <trkpt lat="42.0067360" lon="-5.8839370">
        <ele>715.6</ele>
        <time>2019-08-15T15:56:52Z</time>
      </trkpt>
      <trkpt lat="42.0067390" lon="-5.8840160">
        <ele>715.5</ele>
        <time>2019-08-15T15:56:53Z</time>
      </trkpt>
      <trkpt lat="42.0067430" lon="-5.8840960">
        <ele>715.5</ele>
        <time>2019-08-15T15:56:54Z</time>
      </trkpt>
      <trkpt lat="42.0067450" lon="-5.8841730">
        <ele>715.4</ele>
        <time>2019-08-15T15:56:55Z</time>
      </trkpt>
      <trkpt lat="42.0067490" lon="-5.8842530">
        <ele>715.4</ele>
        <time>2019-08-15T15:56:56Z</time>
      </trkpt>
      <trkpt lat="42.0067520" lon="-5.8843300">
        <ele>715.3</ele>
        <time>2019-08-15T15:56:57Z</time>
      </trkpt>
      <trkpt lat="42.0067550" lon="-5.8844090">
        <ele>715.3</ele>
        <time>2019-08-15T15:56:58Z</time>
      </trkpt>
      <trkpt lat="42.0067570" lon="-5.8844860">
        <ele>715.2</ele>
        <time>2019-08-15T15:56:59Z</time>
      </trkpt>
      <trkpt lat="42.0067590" lon="-5.8845630">
        <ele>715.2</ele>
        <time>2019-08-15T15:57:00Z</time>
      </trkpt>
      <trkpt lat="42.0067630" lon="-5.8846400">
        <ele>715.1</ele>
        <time>2019-08-15T15:57:01Z</time>
      </trkpt>
      <trkpt lat="42.0067680" lon="-5.8847170">
        <ele>715.0</ele>
        <time>2019-08-15T15:57:02Z</time>
      </trkpt>
      <trkpt lat="42.0067710" lon="-5.8847940">
        <ele>715.0</ele>
        <time>2019-08-15T15:57:03Z</time>
      </trkpt>
      <trkpt lat="42.0067740" lon="-5.8848710">
        <ele>714.9</ele>
        <time>2019-08-15T15:57:04Z</time>
      </trkpt>
      <trkpt lat="42.0067780" lon="-5.8849520">
        <ele>714.9</ele>
        <time>2019-08-15T15:57:05Z</time>
      </trkpt>
      <trkpt lat="42.0067820" lon="-5.8850300">
        <ele>714.8</ele>
        <time>2019-08-15T15:57:06Z</time>
      </trkpt>
      <trkpt lat="42.0067850" lon="-5.8851110">
        <ele>714.7</ele>
        <time>2019-08-15T15:57:07Z</time>
      </trkpt>
      <trkpt lat="42.0067880" lon="-5.8851890">
        <ele>714.7</ele>
        <time>2019-08-15T15:57:08Z</time>
      </trkpt>
      <trkpt lat="42.0067910" lon="-5.8852680">
        <ele>714.6</ele>
        <time>2019-08-15T15:57:09Z</time>
      </trkpt>
      <trkpt lat="42.0067950" lon="-5.8853500">
        <ele>714.5</ele>
        <time>2019-08-15T15:57:10Z</time>
      </trkpt>
      <trkpt lat="42.0067990" lon="-5.8854310">
        <ele>714.4</ele>
        <time>2019-08-15T15:57:11Z</time>
      </trkpt>
      <trkpt lat="42.0068030" lon="-5.8855120">
        <ele>714.4</ele>
        <time>2019-08-15T15:57:12Z</time>
      </trkpt>
      <trkpt lat="42.0068050" lon="-5.8855930">
        <ele>714.3</ele>
        <time>2019-08-15T15:57:13Z</time>
      </trkpt>
      <trkpt lat="42.0068070" lon="-5.8856750">
        <ele>714.2</ele>
        <time>2019-08-15T15:57:14Z</time>
      </trkpt>
      <trkpt lat="42.0068110" lon="-5.8857570">
        <ele>714.2</ele>
        <time>2019-08-15T15:57:15Z</time>
      </trkpt>
      <trkpt lat="42.0068130" lon="-5.8858380">
        <ele>714.2</ele>
        <time>2019-08-15T15:57:16Z</time>
      </trkpt>
      <trkpt lat="42.0068150" lon="-5.8859170">
        <ele>714.1</ele>
        <time>2019-08-15T15:57:17Z</time>
      </trkpt>
      <trkpt lat="42.0068180" lon="-5.8859930">
        <ele>714.1</ele>
        <time>2019-08-15T15:57:18Z</time>
      </trkpt>
      <trkpt lat="42.0068210" lon="-5.8860670">
        <ele>714.1</ele>
        <time>2019-08-15T15:57:19Z</time>
      </trkpt>
      <trkpt lat="42.0068240" lon="-5.8861400">
        <ele>714.1</ele>
        <time>2019-08-15T15:57:20Z</time>
      </trkpt>
      <trkpt lat="42.0068270" lon="-5.8862120">
        <ele>714.1</ele>
        <time>2019-08-15T15:57:21Z</time>
      </trkpt>
      <trkpt lat="42.0068300" lon="-5.8862850">
        <ele>714.1</ele>
        <time>2019-08-15T15:57:22Z</time>
      </trkpt>
      <trkpt lat="42.0068330" lon="-5.8863570">
        <ele>714.3</ele>
        <time>2019-08-15T15:57:23Z</time>
      </trkpt>
      <trkpt lat="42.0068360" lon="-5.8864310">
        <ele>714.3</ele>
        <time>2019-08-15T15:57:24Z</time>
      </trkpt>
      <trkpt lat="42.0068390" lon="-5.8865030">
        <ele>714.4</ele>
        <time>2019-08-15T15:57:25Z</time>
      </trkpt>
      <trkpt lat="42.0068420" lon="-5.8865740">
        <ele>714.4</ele>
        <time>2019-08-15T15:57:26Z</time>
      </trkpt>
      <trkpt lat="42.0068450" lon="-5.8866450">
        <ele>714.5</ele>
        <time>2019-08-15T15:57:27Z</time>
      </trkpt>
      <trkpt lat="42.0068470" lon="-5.8867140">
        <ele>714.5</ele>
        <time>2019-08-15T15:57:28Z</time>
      </trkpt>
      <trkpt lat="42.0068490" lon="-5.8867790">
        <ele>714.5</ele>
        <time>2019-08-15T15:57:29Z</time>
      </trkpt>
      <trkpt lat="42.0068520" lon="-5.8868450">
        <ele>714.5</ele>
        <time>2019-08-15T15:57:30Z</time>
      </trkpt>
      <trkpt lat="42.0068550" lon="-5.8869100">
        <ele>714.6</ele>
        <time>2019-08-15T15:57:31Z</time>
      </trkpt>
      <trkpt lat="42.0068580" lon="-5.8869760">
        <ele>714.8</ele>
        <time>2019-08-15T15:57:32Z</time>
      </trkpt>
      <trkpt lat="42.0068610" lon="-5.8870420">
        <ele>714.9</ele>
        <time>2019-08-15T15:57:33Z</time>
      </trkpt>
      <trkpt lat="42.0068640" lon="-5.8871100">
        <ele>714.9</ele>
        <time>2019-08-15T15:57:34Z</time>
      </trkpt>
      <trkpt lat="42.0068660" lon="-5.8871770">
        <ele>715.0</ele>
        <time>2019-08-15T15:57:35Z</time>
      </trkpt>
      <trkpt lat="42.0068700" lon="-5.8872460">
        <ele>715.1</ele>
        <time>2019-08-15T15:57:36Z</time>
      </trkpt>
      <trkpt lat="42.0068720" lon="-5.8873140">
        <ele>715.1</ele>
        <time>2019-08-15T15:57:37Z</time>
      </trkpt>
      <trkpt lat="42.0068740" lon="-5.8873840">
        <ele>715.2</ele>
        <time>2019-08-15T15:57:38Z</time>
      </trkpt>
      <trkpt lat="42.0068740" lon="-5.8874540">
        <ele>715.2</ele>
        <time>2019-08-15T15:57:39Z</time>
      </trkpt>
      <trkpt lat="42.0068760" lon="-5.8875250">
        <ele>715.2</ele>
        <time>2019-08-15T15:57:40Z</time>
      </trkpt>
      <trkpt lat="42.0068770" lon="-5.8875970">
        <ele>715.3</ele>
        <time>2019-08-15T15:57:41Z</time>
      </trkpt>
      <trkpt lat="42.0068800" lon="-5.8876690">
        <ele>715.3</ele>
        <time>2019-08-15T15:57:42Z</time>
      </trkpt>
      <trkpt lat="42.0068810" lon="-5.8877430">
        <ele>715.3</ele>
        <time>2019-08-15T15:57:43Z</time>
      </trkpt>
      <trkpt lat="42.0068830" lon="-5.8878170">
        <ele>715.3</ele>
        <time>2019-08-15T15:57:44Z</time>
      </trkpt>
      <trkpt lat="42.0068860" lon="-5.8878900">
        <ele>715.3</ele>
        <time>2019-08-15T15:57:45Z</time>
      </trkpt>
      <trkpt lat="42.0068890" lon="-5.8879660">
        <ele>715.3</ele>
        <time>2019-08-15T15:57:46Z</time>
      </trkpt>
      <trkpt lat="42.0068920" lon="-5.8880400">
        <ele>715.3</ele>
        <time>2019-08-15T15:57:47Z</time>
      </trkpt>
      <trkpt lat="42.0068950" lon="-5.8881120">
        <ele>715.3</ele>
        <time>2019-08-15T15:57:48Z</time>
      </trkpt>
      <trkpt lat="42.0068990" lon="-5.8881830">
        <ele>715.3</ele>
        <time>2019-08-15T15:57:49Z</time>
      </trkpt>
      <trkpt lat="42.0069020" lon="-5.8882520">
        <ele>715.3</ele>
        <time>2019-08-15T15:57:50Z</time>
      </trkpt>
      <trkpt lat="42.0069050" lon="-5.8883200">
        <ele>715.3</ele>
        <time>2019-08-15T15:57:51Z</time>
      </trkpt>
      <trkpt lat="42.0069090" lon="-5.8883880">
        <ele>715.3</ele>
        <time>2019-08-15T15:57:52Z</time>
      </trkpt>
      <trkpt lat="42.0069130" lon="-5.8884570">
        <ele>715.3</ele>
        <time>2019-08-15T15:57:53Z</time>
      </trkpt>
      <trkpt lat="42.0069160" lon="-5.8885280">
        <ele>715.2</ele>
        <time>2019-08-15T15:57:54Z</time>
      </trkpt>
      <trkpt lat="42.0069180" lon="-5.8885990">
        <ele>715.2</ele>
        <time>2019-08-15T15:57:55Z</time>
      </trkpt>
      <trkpt lat="42.0069200" lon="-5.8886720">
        <ele>715.2</ele>
        <time>2019-08-15T15:57:56Z</time>
      </trkpt>
      <trkpt lat="42.0069220" lon="-5.8887440">
        <ele>715.2</ele>
        <time>2019-08-15T15:57:57Z</time>
      </trkpt>
      <trkpt lat="42.0069240" lon="-5.8888170">
        <ele>715.2</ele>
        <time>2019-08-15T15:57:58Z</time>
      </trkpt>
      <trkpt lat="42.0069270" lon="-5.8888920">
        <ele>715.2</ele>
        <time>2019-08-15T15:57:59Z</time>
      </trkpt>
      <trkpt lat="42.0069280" lon="-5.8889640">
        <ele>715.2</ele>
        <time>2019-08-15T15:58:00Z</time>
      </trkpt>
      <trkpt lat="42.0069300" lon="-5.8890350">
        <ele>715.2</ele>
        <time>2019-08-15T15:58:01Z</time>
      </trkpt>
      <trkpt lat="42.0069310" lon="-5.8891040">
        <ele>715.2</ele>
        <time>2019-08-15T15:58:02Z</time>
      </trkpt>
      <trkpt lat="42.0069330" lon="-5.8891710">
        <ele>715.2</ele>
        <time>2019-08-15T15:58:03Z</time>
      </trkpt>
      <trkpt lat="42.0069340" lon="-5.8892370">
        <ele>715.2</ele>
        <time>2019-08-15T15:58:04Z</time>
      </trkpt>
      <trkpt lat="42.0069340" lon="-5.8893020">
        <ele>715.2</ele>
        <time>2019-08-15T15:58:05Z</time>
      </trkpt>
      <trkpt lat="42.0069360" lon="-5.8893650">
        <ele>715.2</ele>
        <time>2019-08-15T15:58:06Z</time>
      </trkpt>
      <trkpt lat="42.0069380" lon="-5.8894260">
        <ele>715.2</ele>
        <time>2019-08-15T15:58:07Z</time>
      </trkpt>
      <trkpt lat="42.0069410" lon="-5.8894860">
        <ele>715.2</ele>
        <time>2019-08-15T15:58:08Z</time>
      </trkpt>
      <trkpt lat="42.0069440" lon="-5.8895460">
        <ele>715.2</ele>
        <time>2019-08-15T15:58:09Z</time>
      </trkpt>
      <trkpt lat="42.0069460" lon="-5.8896050">
        <ele>715.2</ele>
        <time>2019-08-15T15:58:10Z</time>
      </trkpt>
      <trkpt lat="42.0069480" lon="-5.8896630">
        <ele>715.2</ele>
        <time>2019-08-15T15:58:11Z</time>
      </trkpt>
      <trkpt lat="42.0069510" lon="-5.8897200">
        <ele>715.2</ele>
        <time>2019-08-15T15:58:12Z</time>
      </trkpt>
      <trkpt lat="42.0069520" lon="-5.8897790">
        <ele>715.2</ele>
        <time>2019-08-15T15:58:13Z</time>
      </trkpt>
      <trkpt lat="42.0069560" lon="-5.8898380">
        <ele>715.2</ele>
        <time>2019-08-15T15:58:14Z</time>
      </trkpt>
      <trkpt lat="42.0069590" lon="-5.8898980">
        <ele>715.2</ele>
        <time>2019-08-15T15:58:15Z</time>
      </trkpt>
      <trkpt lat="42.0069620" lon="-5.8899610">
        <ele>715.1</ele>
        <time>2019-08-15T15:58:16Z</time>
      </trkpt>
      <trkpt lat="42.0069640" lon="-5.8900220">
        <ele>715.1</ele>
        <time>2019-08-15T15:58:17Z</time>
      </trkpt>
      <trkpt lat="42.0069670" lon="-5.8900860">
        <ele>715.1</ele>
        <time>2019-08-15T15:58:18Z</time>
      </trkpt>
      <trkpt lat="42.0069710" lon="-5.8901490">
        <ele>715.1</ele>
        <time>2019-08-15T15:58:19Z</time>
      </trkpt>
      <trkpt lat="42.0069740" lon="-5.8902130">
        <ele>715.0</ele>
        <time>2019-08-15T15:58:20Z</time>
      </trkpt>
      <trkpt lat="42.0069770" lon="-5.8902770">
        <ele>715.0</ele>
        <time>2019-08-15T15:58:21Z</time>
      </trkpt>
      <trkpt lat="42.0069790" lon="-5.8903420">
        <ele>715.0</ele>
        <time>2019-08-15T15:58:22Z</time>
      </trkpt>
      <trkpt lat="42.0069810" lon="-5.8904080">
        <ele>715.0</ele>
        <time>2019-08-15T15:58:23Z</time>
      </trkpt>
      <trkpt lat="42.0069840" lon="-5.8904750">
        <ele>714.9</ele>
        <time>2019-08-15T15:58:24Z</time>
      </trkpt>
      <trkpt lat="42.0069860" lon="-5.8905410">
        <ele>714.9</ele>
        <time>2019-08-15T15:58:25Z</time>
      </trkpt>
      <trkpt lat="42.0069880" lon="-5.8906060">
        <ele>714.9</ele>
        <time>2019-08-15T15:58:26Z</time>
      </trkpt>
      <trkpt lat="42.0069910" lon="-5.8906690">
        <ele>714.9</ele>
        <time>2019-08-15T15:58:27Z</time>
      </trkpt>
      <trkpt lat="42.0069920" lon="-5.8907310">
        <ele>714.9</ele>
        <time>2019-08-15T15:58:28Z</time>
      </trkpt>
      <trkpt lat="42.0069930" lon="-5.8907940">
        <ele>714.9</ele>
        <time>2019-08-15T15:58:29Z</time>
      </trkpt>
      <trkpt lat="42.0069940" lon="-5.8908570">
        <ele>714.9</ele>
        <time>2019-08-15T15:58:30Z</time>
      </trkpt>
      <trkpt lat="42.0069950" lon="-5.8909220">
        <ele>714.9</ele>
        <time>2019-08-15T15:58:31Z</time>
      </trkpt>
      <trkpt lat="42.0069970" lon="-5.8909890">
        <ele>714.9</ele>
        <time>2019-08-15T15:58:32Z</time>
      </trkpt>
      <trkpt lat="42.0069980" lon="-5.8910580">
        <ele>714.9</ele>
        <time>2019-08-15T15:58:33Z</time>
      </trkpt>
      <trkpt lat="42.0070000" lon="-5.8911240">
        <ele>714.9</ele>
        <time>2019-08-15T15:58:34Z</time>
      </trkpt>
      <trkpt lat="42.0070010" lon="-5.8911930">
        <ele>714.9</ele>
        <time>2019-08-15T15:58:35Z</time>
      </trkpt>
      <trkpt lat="42.0070020" lon="-5.8912610">
        <ele>715.0</ele>
        <time>2019-08-15T15:58:36Z</time>
      </trkpt>
      <trkpt lat="42.0070050" lon="-5.8913300">
        <ele>715.0</ele>
        <time>2019-08-15T15:58:37Z</time>
      </trkpt>
      <trkpt lat="42.0070080" lon="-5.8913970">
        <ele>715.0</ele>
        <time>2019-08-15T15:58:38Z</time>
      </trkpt>
      <trkpt lat="42.0070110" lon="-5.8914680">
        <ele>715.0</ele>
        <time>2019-08-15T15:58:39Z</time>
      </trkpt>
      <trkpt lat="42.0070130" lon="-5.8915370">
        <ele>715.0</ele>
        <time>2019-08-15T15:58:40Z</time>
      </trkpt>
      <trkpt lat="42.0070170" lon="-5.8916070">
        <ele>715.0</ele>
        <time>2019-08-15T15:58:41Z</time>
      </trkpt>
      <trkpt lat="42.0070180" lon="-5.8916760">
        <ele>715.0</ele>
        <time>2019-08-15T15:58:42Z</time>
      </trkpt>
      <trkpt lat="42.0070200" lon="-5.8917470">
        <ele>715.0</ele>
        <time>2019-08-15T15:58:43Z</time>
      </trkpt>
      <trkpt lat="42.0070220" lon="-5.8918180">
        <ele>715.0</ele>
        <time>2019-08-15T15:58:44Z</time>
      </trkpt>
      <trkpt lat="42.0070250" lon="-5.8918860">
        <ele>715.1</ele>
        <time>2019-08-15T15:58:45Z</time>
      </trkpt>
      <trkpt lat="42.0070270" lon="-5.8919530">
        <ele>715.1</ele>
        <time>2019-08-15T15:58:46Z</time>
      </trkpt>
      <trkpt lat="42.0070300" lon="-5.8920180">
        <ele>715.1</ele>
        <time>2019-08-15T15:58:47Z</time>
      </trkpt>
      <trkpt lat="42.0070330" lon="-5.8920830">
        <ele>715.1</ele>
        <time>2019-08-15T15:58:48Z</time>
      </trkpt>
      <trkpt lat="42.0070350" lon="-5.8921460">
        <ele>715.1</ele>
        <time>2019-08-15T15:58:49Z</time>
      </trkpt>
      <trkpt lat="42.0070390" lon="-5.8922080">
        <ele>715.2</ele>
        <time>2019-08-15T15:58:50Z</time>
      </trkpt>
      <trkpt lat="42.0070430" lon="-5.8922710">
        <ele>715.2</ele>
        <time>2019-08-15T15:58:51Z</time>
      </trkpt>
      <trkpt lat="42.0070450" lon="-5.8923330">
        <ele>715.2</ele>
        <time>2019-08-15T15:58:52Z</time>
      </trkpt>
      <trkpt lat="42.0070470" lon="-5.8923990">
        <ele>715.2</ele>
        <time>2019-08-15T15:58:53Z</time>
      </trkpt>
      <trkpt lat="42.0070490" lon="-5.8924650">
        <ele>715.2</ele>
        <time>2019-08-15T15:58:54Z</time>
      </trkpt>
      <trkpt lat="42.0070510" lon="-5.8925320">
        <ele>715.3</ele>
        <time>2019-08-15T15:58:55Z</time>
      </trkpt>
      <trkpt lat="42.0070530" lon="-5.8926000">
        <ele>715.3</ele>
        <time>2019-08-15T15:58:56Z</time>
      </trkpt>
      <trkpt lat="42.0070550" lon="-5.8926680">
        <ele>715.3</ele>
        <time>2019-08-15T15:58:57Z</time>
      </trkpt>
      <trkpt lat="42.0070570" lon="-5.8927370">
        <ele>715.3</ele>
        <time>2019-08-15T15:58:58Z</time>
      </trkpt>
      <trkpt lat="42.0070600" lon="-5.8928030">
        <ele>715.3</ele>
        <time>2019-08-15T15:58:59Z</time>
      </trkpt>
      <trkpt lat="42.0070620" lon="-5.8928680">
        <ele>715.4</ele>
        <time>2019-08-15T15:59:00Z</time>
      </trkpt>
      <trkpt lat="42.0070650" lon="-5.8929330">
        <ele>715.4</ele>
        <time>2019-08-15T15:59:01Z</time>
      </trkpt>
      <trkpt lat="42.0070690" lon="-5.8929950">
        <ele>715.4</ele>
        <time>2019-08-15T15:59:02Z</time>
      </trkpt>
      <trkpt lat="42.0070730" lon="-5.8930560">
        <ele>715.4</ele>
        <time>2019-08-15T15:59:03Z</time>
      </trkpt>
      <trkpt lat="42.0070750" lon="-5.8931180">
        <ele>715.4</ele>
        <time>2019-08-15T15:59:04Z</time>
      </trkpt>
      <trkpt lat="42.0070750" lon="-5.8931790">
        <ele>715.4</ele>
        <time>2019-08-15T15:59:05Z</time>
      </trkpt>
      <trkpt lat="42.0070760" lon="-5.8932400">
        <ele>715.4</ele>
        <time>2019-08-15T15:59:06Z</time>
      </trkpt>
      <trkpt lat="42.0070770" lon="-5.8933020">
        <ele>715.4</ele>
        <time>2019-08-15T15:59:07Z</time>
      </trkpt>
      <trkpt lat="42.0070770" lon="-5.8933650">
        <ele>715.4</ele>
        <time>2019-08-15T15:59:08Z</time>
      </trkpt>
      <trkpt lat="42.0070790" lon="-5.8934300">
        <ele>715.4</ele>
        <time>2019-08-15T15:59:09Z</time>
      </trkpt>
      <trkpt lat="42.0070810" lon="-5.8934960">
        <ele>715.4</ele>
        <time>2019-08-15T15:59:10Z</time>
      </trkpt>
      <trkpt lat="42.0070840" lon="-5.8935620">
        <ele>715.4</ele>
        <time>2019-08-15T15:59:11Z</time>
      </trkpt>
      <trkpt lat="42.0070870" lon="-5.8936270">
        <ele>715.4</ele>
        <time>2019-08-15T15:59:12Z</time>
      </trkpt>
      <trkpt lat="42.0070900" lon="-5.8936930">
        <ele>715.4</ele>
        <time>2019-08-15T15:59:13Z</time>
      </trkpt>
      <trkpt lat="42.0070930" lon="-5.8937600">
        <ele>715.4</ele>
        <time>2019-08-15T15:59:14Z</time>
      </trkpt>
      <trkpt lat="42.0070970" lon="-5.8938270">
        <ele>715.4</ele>
        <time>2019-08-15T15:59:15Z</time>
      </trkpt>
      <trkpt lat="42.0071000" lon="-5.8938950">
        <ele>715.4</ele>
        <time>2019-08-15T15:59:16Z</time>
      </trkpt>
      <trkpt lat="42.0071020" lon="-5.8939620">
        <ele>715.4</ele>
        <time>2019-08-15T15:59:17Z</time>
      </trkpt>
      <trkpt lat="42.0071040" lon="-5.8940280">
        <ele>715.4</ele>
        <time>2019-08-15T15:59:18Z</time>
      </trkpt>
      <trkpt lat="42.0071080" lon="-5.8940940">
        <ele>715.4</ele>
        <time>2019-08-15T15:59:19Z</time>
      </trkpt>
      <trkpt lat="42.0071120" lon="-5.8941580">
        <ele>715.4</ele>
        <time>2019-08-15T15:59:20Z</time>
      </trkpt>
      <trkpt lat="42.0071150" lon="-5.8942220">
        <ele>715.4</ele>
        <time>2019-08-15T15:59:21Z</time>
      </trkpt>
      <trkpt lat="42.0071180" lon="-5.8942840">
        <ele>715.4</ele>
        <time>2019-08-15T15:59:22Z</time>
      </trkpt>
      <trkpt lat="42.0071180" lon="-5.8943450">
        <ele>715.4</ele>
        <time>2019-08-15T15:59:23Z</time>
      </trkpt>
      <trkpt lat="42.0071190" lon="-5.8944040">
        <ele>715.4</ele>
        <time>2019-08-15T15:59:24Z</time>
      </trkpt>
      <trkpt lat="42.0071210" lon="-5.8944630">
        <ele>715.4</ele>
        <time>2019-08-15T15:59:25Z</time>
      </trkpt>
      <trkpt lat="42.0071240" lon="-5.8945220">
        <ele>715.4</ele>
        <time>2019-08-15T15:59:26Z</time>
      </trkpt>
      <trkpt lat="42.0071250" lon="-5.8945840">
        <ele>715.4</ele>
        <time>2019-08-15T15:59:27Z</time>
      </trkpt>
      <trkpt lat="42.0071270" lon="-5.8946480">
        <ele>715.4</ele>
        <time>2019-08-15T15:59:28Z</time>
      </trkpt>
      <trkpt lat="42.0071290" lon="-5.8947120">
        <ele>715.4</ele>
        <time>2019-08-15T15:59:29Z</time>
      </trkpt>
      <trkpt lat="42.0071290" lon="-5.8947780">
        <ele>715.4</ele>
        <time>2019-08-15T15:59:30Z</time>
      </trkpt>
      <trkpt lat="42.0071290" lon="-5.8948460">
        <ele>715.4</ele>
        <time>2019-08-15T15:59:31Z</time>
      </trkpt>
      <trkpt lat="42.0071300" lon="-5.8949140">
        <ele>715.4</ele>
        <time>2019-08-15T15:59:32Z</time>
      </trkpt>
      <trkpt lat="42.0071320" lon="-5.8949830">
        <ele>715.4</ele>
        <time>2019-08-15T15:59:33Z</time>
      </trkpt>
      <trkpt lat="42.0071340" lon="-5.8950500">
        <ele>715.4</ele>
        <time>2019-08-15T15:59:34Z</time>
      </trkpt>
      <trkpt lat="42.0071370" lon="-5.8951140">
        <ele>715.4</ele>
        <time>2019-08-15T15:59:35Z</time>
      </trkpt>
      <trkpt lat="42.0071400" lon="-5.8951760">
        <ele>715.4</ele>
        <time>2019-08-15T15:59:36Z</time>
      </trkpt>
      <trkpt lat="42.0071430" lon="-5.8952390">
        <ele>715.4</ele>
        <time>2019-08-15T15:59:37Z</time>
      </trkpt>
      <trkpt lat="42.0071440" lon="-5.8953010">
        <ele>715.4</ele>
        <time>2019-08-15T15:59:38Z</time>
      </trkpt>
      <trkpt lat="42.0071470" lon="-5.8953640">
        <ele>715.4</ele>
        <time>2019-08-15T15:59:39Z</time>
      </trkpt>
      <trkpt lat="42.0071500" lon="-5.8954280">
        <ele>715.4</ele>
        <time>2019-08-15T15:59:40Z</time>
      </trkpt>
      <trkpt lat="42.0071510" lon="-5.8954970">
        <ele>715.5</ele>
        <time>2019-08-15T15:59:41Z</time>
      </trkpt>
      <trkpt lat="42.0071530" lon="-5.8955660">
        <ele>715.5</ele>
        <time>2019-08-15T15:59:42Z</time>
      </trkpt>
      <trkpt lat="42.0071560" lon="-5.8956340">
        <ele>715.5</ele>
        <time>2019-08-15T15:59:43Z</time>
      </trkpt>
      <trkpt lat="42.0071590" lon="-5.8957030">
        <ele>715.5</ele>
        <time>2019-08-15T15:59:44Z</time>
      </trkpt>
      <trkpt lat="42.0071610" lon="-5.8957710">
        <ele>715.5</ele>
        <time>2019-08-15T15:59:45Z</time>
      </trkpt>
      <trkpt lat="42.0071660" lon="-5.8958410">
        <ele>715.6</ele>
        <time>2019-08-15T15:59:46Z</time>
      </trkpt>
      <trkpt lat="42.0071680" lon="-5.8959120">
        <ele>715.4</ele>
        <time>2019-08-15T15:59:47Z</time>
      </trkpt>
      <trkpt lat="42.0071730" lon="-5.8959830">
        <ele>715.4</ele>
        <time>2019-08-15T15:59:48Z</time>
      </trkpt>
      <trkpt lat="42.0071740" lon="-5.8960540">
        <ele>715.3</ele>
        <time>2019-08-15T15:59:49Z</time>
      </trkpt>
      <trkpt lat="42.0071760" lon="-5.8961270">
        <ele>715.4</ele>
        <time>2019-08-15T15:59:50Z</time>
      </trkpt>
      <trkpt lat="42.0071790" lon="-5.8961970">
        <ele>715.4</ele>
        <time>2019-08-15T15:59:51Z</time>
      </trkpt>
      <trkpt lat="42.0071840" lon="-5.8962680">
        <ele>715.5</ele>
        <time>2019-08-15T15:59:52Z</time>
      </trkpt>
      <trkpt lat="42.0071870" lon="-5.8963400">
        <ele>715.6</ele>
        <time>2019-08-15T15:59:53Z</time>
      </trkpt>
      <trkpt lat="42.0071890" lon="-5.8964130">
        <ele>715.8</ele>
        <time>2019-08-15T15:59:54Z</time>
      </trkpt>
      <trkpt lat="42.0071930" lon="-5.8964850">
        <ele>715.9</ele>
        <time>2019-08-15T15:59:55Z</time>
      </trkpt>
      <trkpt lat="42.0071970" lon="-5.8965580">
        <ele>716.0</ele>
        <time>2019-08-15T15:59:56Z</time>
      </trkpt>
      <trkpt lat="42.0072020" lon="-5.8966300">
        <ele>716.1</ele>
        <time>2019-08-15T15:59:57Z</time>
      </trkpt>
      <trkpt lat="42.0072050" lon="-5.8967030">
        <ele>716.1</ele>
        <time>2019-08-15T15:59:58Z</time>
      </trkpt>
      <trkpt lat="42.0072080" lon="-5.8967760">
        <ele>716.1</ele>
        <time>2019-08-15T15:59:59Z</time>
      </trkpt>
      <trkpt lat="42.0072100" lon="-5.8968500">
        <ele>716.2</ele>
        <time>2019-08-15T16:00:00Z</time>
      </trkpt>
      <trkpt lat="42.0072120" lon="-5.8969250">
        <ele>716.2</ele>
        <time>2019-08-15T16:00:01Z</time>
      </trkpt>
      <trkpt lat="42.0072130" lon="-5.8969980">
        <ele>716.3</ele>
        <time>2019-08-15T16:00:02Z</time>
      </trkpt>
      <trkpt lat="42.0072160" lon="-5.8970720">
        <ele>716.2</ele>
        <time>2019-08-15T16:00:03Z</time>
      </trkpt>
      <trkpt lat="42.0072180" lon="-5.8971470">
        <ele>716.2</ele>
        <time>2019-08-15T16:00:04Z</time>
      </trkpt>
      <trkpt lat="42.0072200" lon="-5.8972200">
        <ele>716.2</ele>
        <time>2019-08-15T16:00:05Z</time>
      </trkpt>
      <trkpt lat="42.0072230" lon="-5.8972930">
        <ele>716.2</ele>
        <time>2019-08-15T16:00:06Z</time>
      </trkpt>
      <trkpt lat="42.0072250" lon="-5.8973670">
        <ele>716.2</ele>
        <time>2019-08-15T16:00:07Z</time>
      </trkpt>
      <trkpt lat="42.0072290" lon="-5.8974420">
        <ele>716.2</ele>
        <time>2019-08-15T16:00:08Z</time>
      </trkpt>
      <trkpt lat="42.0072300" lon="-5.8975180">
        <ele>716.2</ele>
        <time>2019-08-15T16:00:09Z</time>
      </trkpt>
      <trkpt lat="42.0072320" lon="-5.8975920">
        <ele>716.2</ele>
        <time>2019-08-15T16:00:10Z</time>
      </trkpt>
      <trkpt lat="42.0072340" lon="-5.8976700">
        <ele>716.2</ele>
        <time>2019-08-15T16:00:11Z</time>
      </trkpt>
      <trkpt lat="42.0072360" lon="-5.8977470">
        <ele>716.2</ele>
        <time>2019-08-15T16:00:12Z</time>
      </trkpt>
      <trkpt lat="42.0072400" lon="-5.8978240">
        <ele>716.2</ele>
        <time>2019-08-15T16:00:13Z</time>
      </trkpt>
      <trkpt lat="42.0072410" lon="-5.8979000">
        <ele>716.2</ele>
        <time>2019-08-15T16:00:14Z</time>
      </trkpt>
      <trkpt lat="42.0072420" lon="-5.8979740">
        <ele>716.2</ele>
        <time>2019-08-15T16:00:15Z</time>
      </trkpt>
      <trkpt lat="42.0072450" lon="-5.8980470">
        <ele>716.2</ele>
        <time>2019-08-15T16:00:16Z</time>
      </trkpt>
      <trkpt lat="42.0072490" lon="-5.8981200">
        <ele>716.3</ele>
        <time>2019-08-15T16:00:17Z</time>
      </trkpt>
      <trkpt lat="42.0072520" lon="-5.8981950">
        <ele>716.3</ele>
        <time>2019-08-15T16:00:18Z</time>
      </trkpt>
      <trkpt lat="42.0072550" lon="-5.8982700">
        <ele>716.3</ele>
        <time>2019-08-15T16:00:19Z</time>
      </trkpt>
      <trkpt lat="42.0072560" lon="-5.8983470">
        <ele>716.4</ele>
        <time>2019-08-15T16:00:20Z</time>
      </trkpt>
      <trkpt lat="42.0072580" lon="-5.8984250">
        <ele>716.5</ele>
        <time>2019-08-15T16:00:21Z</time>
      </trkpt>
      <trkpt lat="42.0072590" lon="-5.8985010">
        <ele>716.5</ele>
        <time>2019-08-15T16:00:22Z</time>
      </trkpt>
      <trkpt lat="42.0072610" lon="-5.8985750">
        <ele>716.6</ele>
        <time>2019-08-15T16:00:23Z</time>
      </trkpt>
      <trkpt lat="42.0072640" lon="-5.8986470">
        <ele>716.7</ele>
        <time>2019-08-15T16:00:24Z</time>
      </trkpt>
      <trkpt lat="42.0072670" lon="-5.8987150">
        <ele>716.7</ele>
        <time>2019-08-15T16:00:25Z</time>
      </trkpt>
      <trkpt lat="42.0072700" lon="-5.8987820">
        <ele>716.8</ele>
        <time>2019-08-15T16:00:26Z</time>
      </trkpt>
      <trkpt lat="42.0072730" lon="-5.8988510">
        <ele>716.8</ele>
        <time>2019-08-15T16:00:27Z</time>
      </trkpt>
      <trkpt lat="42.0072750" lon="-5.8989170">
        <ele>716.9</ele>
        <time>2019-08-15T16:00:28Z</time>
      </trkpt>
      <trkpt lat="42.0072770" lon="-5.8989840">
        <ele>717.0</ele>
        <time>2019-08-15T16:00:29Z</time>
      </trkpt>
      <trkpt lat="42.0072800" lon="-5.8990540">
        <ele>717.0</ele>
        <time>2019-08-15T16:00:30Z</time>
      </trkpt>
      <trkpt lat="42.0072820" lon="-5.8991250">
        <ele>717.1</ele>
        <time>2019-08-15T16:00:31Z</time>
      </trkpt>
      <trkpt lat="42.0072830" lon="-5.8991950">
        <ele>717.2</ele>
        <time>2019-08-15T16:00:32Z</time>
      </trkpt>
      <trkpt lat="42.0072870" lon="-5.8992650">
        <ele>717.2</ele>
        <time>2019-08-15T16:00:33Z</time>
      </trkpt>
      <trkpt lat="42.0072910" lon="-5.8993360">
        <ele>717.3</ele>
        <time>2019-08-15T16:00:34Z</time>
      </trkpt>
      <trkpt lat="42.0072940" lon="-5.8994060">
        <ele>717.3</ele>
        <time>2019-08-15T16:00:35Z</time>
      </trkpt>
      <trkpt lat="42.0072960" lon="-5.8994780">
        <ele>717.3</ele>
        <time>2019-08-15T16:00:36Z</time>
      </trkpt>
      <trkpt lat="42.0072990" lon="-5.8995490">
        <ele>717.4</ele>
        <time>2019-08-15T16:00:37Z</time>
      </trkpt>
      <trkpt lat="42.0073010" lon="-5.8996210">
        <ele>717.4</ele>
        <time>2019-08-15T16:00:38Z</time>
      </trkpt>
      <trkpt lat="42.0073040" lon="-5.8996940">
        <ele>717.4</ele>
        <time>2019-08-15T16:00:39Z</time>
      </trkpt>
      <trkpt lat="42.0073060" lon="-5.8997670">
        <ele>717.5</ele>
        <time>2019-08-15T16:00:40Z</time>
      </trkpt>
      <trkpt lat="42.0073090" lon="-5.8998410">
        <ele>717.5</ele>
        <time>2019-08-15T16:00:41Z</time>
      </trkpt>
      <trkpt lat="42.0073110" lon="-5.8999150">
        <ele>717.5</ele>
        <time>2019-08-15T16:00:42Z</time>
      </trkpt>
      <trkpt lat="42.0073110" lon="-5.8999870">
        <ele>717.5</ele>
        <time>2019-08-15T16:00:43Z</time>
      </trkpt>
      <trkpt lat="42.0073130" lon="-5.9000590">
        <ele>717.6</ele>
        <time>2019-08-15T16:00:44Z</time>
      </trkpt>
      <trkpt lat="42.0073150" lon="-5.9001320">
        <ele>717.6</ele>
        <time>2019-08-15T16:00:45Z</time>
      </trkpt>
      <trkpt lat="42.0073180" lon="-5.9002020">
        <ele>717.6</ele>
        <time>2019-08-15T16:00:46Z</time>
      </trkpt>
      <trkpt lat="42.0073200" lon="-5.9002730">
        <ele>717.6</ele>
        <time>2019-08-15T16:00:47Z</time>
      </trkpt>
      <trkpt lat="42.0073210" lon="-5.9003460">
        <ele>717.6</ele>
        <time>2019-08-15T16:00:48Z</time>
      </trkpt>
      <trkpt lat="42.0073240" lon="-5.9004180">
        <ele>717.6</ele>
        <time>2019-08-15T16:00:49Z</time>
      </trkpt>
      <trkpt lat="42.0073260" lon="-5.9004910">
        <ele>717.7</ele>
        <time>2019-08-15T16:00:50Z</time>
      </trkpt>
      <trkpt lat="42.0073280" lon="-5.9005620">
        <ele>717.7</ele>
        <time>2019-08-15T16:00:51Z</time>
      </trkpt>
      <trkpt lat="42.0073290" lon="-5.9006340">
        <ele>717.7</ele>
        <time>2019-08-15T16:00:52Z</time>
      </trkpt>
      <trkpt lat="42.0073300" lon="-5.9007050">
        <ele>717.7</ele>
        <time>2019-08-15T16:00:53Z</time>
      </trkpt>
      <trkpt lat="42.0073310" lon="-5.9007760">
        <ele>717.8</ele>
        <time>2019-08-15T16:00:54Z</time>
      </trkpt>
      <trkpt lat="42.0073340" lon="-5.9008490">
        <ele>717.8</ele>
        <time>2019-08-15T16:00:55Z</time>
      </trkpt>
      <trkpt lat="42.0073370" lon="-5.9009220">
        <ele>717.8</ele>
        <time>2019-08-15T16:00:56Z</time>
      </trkpt>
      <trkpt lat="42.0073400" lon="-5.9009930">
        <ele>717.9</ele>
        <time>2019-08-15T16:00:57Z</time>
      </trkpt>
      <trkpt lat="42.0073420" lon="-5.9010670">
        <ele>717.9</ele>
        <time>2019-08-15T16:00:58Z</time>
      </trkpt>
      <trkpt lat="42.0073430" lon="-5.9011400">
        <ele>718.0</ele>
        <time>2019-08-15T16:00:59Z</time>
      </trkpt>
      <trkpt lat="42.0073440" lon="-5.9012120">
        <ele>718.0</ele>
        <time>2019-08-15T16:01:00Z</time>
      </trkpt>
      <trkpt lat="42.0073470" lon="-5.9012870">
        <ele>718.1</ele>
        <time>2019-08-15T16:01:01Z</time>
      </trkpt>
      <trkpt lat="42.0073510" lon="-5.9013630">
        <ele>718.1</ele>
        <time>2019-08-15T16:01:02Z</time>
      </trkpt>
      <trkpt lat="42.0073530" lon="-5.9014360">
        <ele>718.2</ele>
        <time>2019-08-15T16:01:03Z</time>
      </trkpt>
      <trkpt lat="42.0073560" lon="-5.9015100">
        <ele>718.2</ele>
        <time>2019-08-15T16:01:04Z</time>
      </trkpt>
      <trkpt lat="42.0073570" lon="-5.9015860">
        <ele>718.3</ele>
        <time>2019-08-15T16:01:05Z</time>
      </trkpt>
      <trkpt lat="42.0073580" lon="-5.9016600">
        <ele>718.4</ele>
        <time>2019-08-15T16:01:06Z</time>
      </trkpt>
      <trkpt lat="42.0073580" lon="-5.9017350">
        <ele>718.5</ele>
        <time>2019-08-15T16:01:07Z</time>
      </trkpt>
      <trkpt lat="42.0073620" lon="-5.9018080">
        <ele>718.6</ele>
        <time>2019-08-15T16:01:08Z</time>
      </trkpt>
      <trkpt lat="42.0073660" lon="-5.9018810">
        <ele>718.7</ele>
        <time>2019-08-15T16:01:09Z</time>
      </trkpt>
      <trkpt lat="42.0073710" lon="-5.9019530">
        <ele>718.8</ele>
        <time>2019-08-15T16:01:10Z</time>
      </trkpt>
      <trkpt lat="42.0073740" lon="-5.9020240">
        <ele>718.8</ele>
        <time>2019-08-15T16:01:11Z</time>
      </trkpt>
      <trkpt lat="42.0073760" lon="-5.9020960">
        <ele>718.9</ele>
        <time>2019-08-15T16:01:12Z</time>
      </trkpt>
      <trkpt lat="42.0073800" lon="-5.9021700">
        <ele>719.1</ele>
        <time>2019-08-15T16:01:13Z</time>
      </trkpt>
      <trkpt lat="42.0073820" lon="-5.9022420">
        <ele>719.2</ele>
        <time>2019-08-15T16:01:14Z</time>
      </trkpt>
      <trkpt lat="42.0073870" lon="-5.9023140">
        <ele>719.3</ele>
        <time>2019-08-15T16:01:15Z</time>
      </trkpt>
      <trkpt lat="42.0073870" lon="-5.9023840">
        <ele>719.4</ele>
        <time>2019-08-15T16:01:16Z</time>
      </trkpt>
      <trkpt lat="42.0073880" lon="-5.9024570">
        <ele>719.6</ele>
        <time>2019-08-15T16:01:17Z</time>
      </trkpt>
      <trkpt lat="42.0073890" lon="-5.9025280">
        <ele>719.7</ele>
        <time>2019-08-15T16:01:18Z</time>
      </trkpt>
      <trkpt lat="42.0073930" lon="-5.9026020">
        <ele>719.8</ele>
        <time>2019-08-15T16:01:19Z</time>
      </trkpt>
      <trkpt lat="42.0073980" lon="-5.9026780">
        <ele>719.9</ele>
        <time>2019-08-15T16:01:20Z</time>
      </trkpt>
      <trkpt lat="42.0074030" lon="-5.9027510">
        <ele>720.1</ele>
        <time>2019-08-15T16:01:21Z</time>
      </trkpt>
      <trkpt lat="42.0074060" lon="-5.9028240">
        <ele>720.2</ele>
        <time>2019-08-15T16:01:22Z</time>
      </trkpt>
      <trkpt lat="42.0074070" lon="-5.9028960">
        <ele>720.4</ele>
        <time>2019-08-15T16:01:23Z</time>
      </trkpt>
      <trkpt lat="42.0074070" lon="-5.9029680">
        <ele>720.5</ele>
        <time>2019-08-15T16:01:24Z</time>
      </trkpt>
      <trkpt lat="42.0074090" lon="-5.9030390">
        <ele>720.7</ele>
        <time>2019-08-15T16:01:25Z</time>
      </trkpt>
      <trkpt lat="42.0074110" lon="-5.9031110">
        <ele>720.9</ele>
        <time>2019-08-15T16:01:26Z</time>
      </trkpt>
      <trkpt lat="42.0074130" lon="-5.9031810">
        <ele>721.1</ele>
        <time>2019-08-15T16:01:27Z</time>
      </trkpt>
      <trkpt lat="42.0074150" lon="-5.9032520">
        <ele>721.3</ele>
        <time>2019-08-15T16:01:28Z</time>
      </trkpt>
      <trkpt lat="42.0074180" lon="-5.9033220">
        <ele>721.5</ele>
        <time>2019-08-15T16:01:29Z</time>
      </trkpt>
      <trkpt lat="42.0074220" lon="-5.9033910">
        <ele>721.7</ele>
        <time>2019-08-15T16:01:30Z</time>
      </trkpt>
      <trkpt lat="42.0074260" lon="-5.9034580">
        <ele>721.9</ele>
        <time>2019-08-15T16:01:31Z</time>
      </trkpt>
      <trkpt lat="42.0074290" lon="-5.9035260">
        <ele>722.1</ele>
        <time>2019-08-15T16:01:32Z</time>
      </trkpt>
      <trkpt lat="42.0074310" lon="-5.9035930">
        <ele>722.3</ele>
        <time>2019-08-15T16:01:33Z</time>
      </trkpt>
      <trkpt lat="42.0074310" lon="-5.9036590">
        <ele>722.5</ele>
        <time>2019-08-15T16:01:34Z</time>
      </trkpt>
      <trkpt lat="42.0074310" lon="-5.9037260">
        <ele>722.7</ele>
        <time>2019-08-15T16:01:35Z</time>
      </trkpt>
      <trkpt lat="42.0074340" lon="-5.9037920">
        <ele>722.8</ele>
        <time>2019-08-15T16:01:36Z</time>
      </trkpt>
      <trkpt lat="42.0074370" lon="-5.9038580">
        <ele>722.9</ele>
        <time>2019-08-15T16:01:37Z</time>
      </trkpt>
      <trkpt lat="42.0074410" lon="-5.9039230">
        <ele>723.0</ele>
        <time>2019-08-15T16:01:38Z</time>
      </trkpt>
      <trkpt lat="42.0074450" lon="-5.9039870">
        <ele>723.1</ele>
        <time>2019-08-15T16:01:39Z</time>
      </trkpt>
      <trkpt lat="42.0074470" lon="-5.9040520">
        <ele>723.2</ele>
        <time>2019-08-15T16:01:40Z</time>
      </trkpt>
      <trkpt lat="42.0074480" lon="-5.9041170">
        <ele>723.4</ele>
        <time>2019-08-15T16:01:41Z</time>
      </trkpt>
      <trkpt lat="42.0074500" lon="-5.9041820">
        <ele>723.5</ele>
        <time>2019-08-15T16:01:42Z</time>
      </trkpt>
      <trkpt lat="42.0074520" lon="-5.9042450">
        <ele>723.7</ele>
        <time>2019-08-15T16:01:43Z</time>
      </trkpt>
      <trkpt lat="42.0074540" lon="-5.9043090">
        <ele>723.8</ele>
        <time>2019-08-15T16:01:44Z</time>
      </trkpt>
      <trkpt lat="42.0074560" lon="-5.9043740">
        <ele>724.1</ele>
        <time>2019-08-15T16:01:45Z</time>
      </trkpt>
      <trkpt lat="42.0074580" lon="-5.9044360">
        <ele>724.2</ele>
        <time>2019-08-15T16:01:46Z</time>
      </trkpt>
      <trkpt lat="42.0074600" lon="-5.9045000">
        <ele>724.4</ele>
        <time>2019-08-15T16:01:47Z</time>
      </trkpt>
      <trkpt lat="42.0074630" lon="-5.9045620">
        <ele>724.5</ele>
        <time>2019-08-15T16:01:48Z</time>
      </trkpt>
      <trkpt lat="42.0074650" lon="-5.9046230">
        <ele>724.7</ele>
        <time>2019-08-15T16:01:49Z</time>
      </trkpt>
      <trkpt lat="42.0074660" lon="-5.9046830">
        <ele>724.8</ele>
        <time>2019-08-15T16:01:50Z</time>
      </trkpt>
      <trkpt lat="42.0074670" lon="-5.9047410">
        <ele>724.9</ele>
        <time>2019-08-15T16:01:51Z</time>
      </trkpt>
      <trkpt lat="42.0074690" lon="-5.9048000">
        <ele>725.0</ele>
        <time>2019-08-15T16:01:52Z</time>
      </trkpt>
      <trkpt lat="42.0074710" lon="-5.9048600">
        <ele>725.2</ele>
        <time>2019-08-15T16:01:53Z</time>
      </trkpt>
      <trkpt lat="42.0074720" lon="-5.9049180">
        <ele>725.3</ele>
        <time>2019-08-15T16:01:54Z</time>
      </trkpt>
      <trkpt lat="42.0074750" lon="-5.9049760">
        <ele>725.4</ele>
        <time>2019-08-15T16:01:55Z</time>
      </trkpt>
      <trkpt lat="42.0074750" lon="-5.9050330">
        <ele>725.5</ele>
        <time>2019-08-15T16:01:56Z</time>
      </trkpt>
      <trkpt lat="42.0074770" lon="-5.9050900">
        <ele>725.5</ele>
        <time>2019-08-15T16:01:57Z</time>
      </trkpt>
      <trkpt lat="42.0074810" lon="-5.9051470">
        <ele>725.6</ele>
        <time>2019-08-15T16:01:58Z</time>
      </trkpt>
      <trkpt lat="42.0074840" lon="-5.9052030">
        <ele>725.7</ele>
        <time>2019-08-15T16:01:59Z</time>
      </trkpt>
      <trkpt lat="42.0074860" lon="-5.9052590">
        <ele>725.8</ele>
        <time>2019-08-15T16:02:00Z</time>
      </trkpt>
      <trkpt lat="42.0074870" lon="-5.9053160">
        <ele>725.9</ele>
        <time>2019-08-15T16:02:01Z</time>
      </trkpt>
      <trkpt lat="42.0074880" lon="-5.9053720">
        <ele>726.0</ele>
        <time>2019-08-15T16:02:02Z</time>
      </trkpt>
      <trkpt lat="42.0074890" lon="-5.9054280">
        <ele>726.0</ele>
        <time>2019-08-15T16:02:03Z</time>
      </trkpt>
      <trkpt lat="42.0074900" lon="-5.9054840">
        <ele>726.1</ele>
        <time>2019-08-15T16:02:04Z</time>
      </trkpt>
      <trkpt lat="42.0074910" lon="-5.9055400">
        <ele>726.2</ele>
        <time>2019-08-15T16:02:05Z</time>
      </trkpt>
      <trkpt lat="42.0074940" lon="-5.9055970">
        <ele>726.3</ele>
        <time>2019-08-15T16:02:06Z</time>
      </trkpt>
      <trkpt lat="42.0074980" lon="-5.9056530">
        <ele>726.4</ele>
        <time>2019-08-15T16:02:07Z</time>
      </trkpt>
      <trkpt lat="42.0075010" lon="-5.9057090">
        <ele>726.4</ele>
        <time>2019-08-15T16:02:08Z</time>
      </trkpt>
      <trkpt lat="42.0075020" lon="-5.9057650">
        <ele>726.5</ele>
        <time>2019-08-15T16:02:09Z</time>
      </trkpt>
      <trkpt lat="42.0075030" lon="-5.9058220">
        <ele>726.5</ele>
        <time>2019-08-15T16:02:10Z</time>
      </trkpt>
      <trkpt lat="42.0075060" lon="-5.9058800">
        <ele>726.6</ele>
        <time>2019-08-15T16:02:11Z</time>
      </trkpt>
      <trkpt lat="42.0075070" lon="-5.9059340">
        <ele>726.8</ele>
        <time>2019-08-15T16:02:12Z</time>
      </trkpt>
      <trkpt lat="42.0075090" lon="-5.9059870">
        <ele>726.9</ele>
        <time>2019-08-15T16:02:13Z</time>
      </trkpt>
      <trkpt lat="42.0075100" lon="-5.9060400">
        <ele>727.1</ele>
        <time>2019-08-15T16:02:14Z</time>
      </trkpt>
      <trkpt lat="42.0075090" lon="-5.9060930">
        <ele>727.1</ele>
        <time>2019-08-15T16:02:15Z</time>
      </trkpt>
      <trkpt lat="42.0075090" lon="-5.9061460">
        <ele>727.2</ele>
        <time>2019-08-15T16:02:16Z</time>
      </trkpt>
      <trkpt lat="42.0075090" lon="-5.9062010">
        <ele>727.3</ele>
        <time>2019-08-15T16:02:17Z</time>
      </trkpt>
      <trkpt lat="42.0075120" lon="-5.9062560">
        <ele>727.4</ele>
        <time>2019-08-15T16:02:18Z</time>
      </trkpt>
      <trkpt lat="42.0075130" lon="-5.9063110">
        <ele>727.5</ele>
        <time>2019-08-15T16:02:19Z</time>
      </trkpt>
      <trkpt lat="42.0075140" lon="-5.9063660">
        <ele>727.6</ele>
        <time>2019-08-15T16:02:20Z</time>
      </trkpt>
      <trkpt lat="42.0075150" lon="-5.9064250">
        <ele>727.8</ele>
        <time>2019-08-15T16:02:21Z</time>
      </trkpt>
      <trkpt lat="42.0075160" lon="-5.9064810">
        <ele>728.0</ele>
        <time>2019-08-15T16:02:22Z</time>
      </trkpt>
      <trkpt lat="42.0075190" lon="-5.9065380">
        <ele>728.1</ele>
        <time>2019-08-15T16:02:23Z</time>
      </trkpt>
      <trkpt lat="42.0075180" lon="-5.9065930">
        <ele>728.3</ele>
        <time>2019-08-15T16:02:24Z</time>
      </trkpt>
      <trkpt lat="42.0075200" lon="-5.9066450">
        <ele>728.5</ele>
        <time>2019-08-15T16:02:25Z</time>
      </trkpt>
      <trkpt lat="42.0075190" lon="-5.9066980">
        <ele>728.7</ele>
        <time>2019-08-15T16:02:26Z</time>
      </trkpt>
      <trkpt lat="42.0075190" lon="-5.9067510">
        <ele>728.9</ele>
        <time>2019-08-15T16:02:27Z</time>
      </trkpt>
      <trkpt lat="42.0075200" lon="-5.9068020">
        <ele>729.0</ele>
        <time>2019-08-15T16:02:28Z</time>
      </trkpt>
      <trkpt lat="42.0075160" lon="-5.9068530">
        <ele>729.2</ele>
        <time>2019-08-15T16:02:29Z</time>
      </trkpt>
      <trkpt lat="42.0075110" lon="-5.9069080">
        <ele>729.4</ele>
        <time>2019-08-15T16:02:30Z</time>
      </trkpt>
      <trkpt lat="42.0075060" lon="-5.9069630">
        <ele>729.5</ele>
        <time>2019-08-15T16:02:31Z</time>
      </trkpt>
      <trkpt lat="42.0075020" lon="-5.9070190">
        <ele>729.6</ele>
        <time>2019-08-15T16:02:32Z</time>
      </trkpt>
      <trkpt lat="42.0074970" lon="-5.9070790">
        <ele>729.7</ele>
        <time>2019-08-15T16:02:33Z</time>
      </trkpt>
      <trkpt lat="42.0074930" lon="-5.9071370">
        <ele>729.8</ele>
        <time>2019-08-15T16:02:34Z</time>
      </trkpt>
      <trkpt lat="42.0074860" lon="-5.9071950">
        <ele>729.8</ele>
        <time>2019-08-15T16:02:35Z</time>
      </trkpt>
      <trkpt lat="42.0074760" lon="-5.9072510">
        <ele>729.9</ele>
        <time>2019-08-15T16:02:36Z</time>
      </trkpt>
      <trkpt lat="42.0074670" lon="-5.9073070">
        <ele>729.9</ele>
        <time>2019-08-15T16:02:37Z</time>
      </trkpt>
      <trkpt lat="42.0074570" lon="-5.9073610">
        <ele>730.0</ele>
        <time>2019-08-15T16:02:38Z</time>
      </trkpt>
      <trkpt lat="42.0074490" lon="-5.9074160">
        <ele>730.0</ele>
        <time>2019-08-15T16:02:39Z</time>
      </trkpt>
      <trkpt lat="42.0074390" lon="-5.9074700">
        <ele>730.1</ele>
        <time>2019-08-15T16:02:40Z</time>
      </trkpt>
      <trkpt lat="42.0074280" lon="-5.9075220">
        <ele>730.1</ele>
        <time>2019-08-15T16:02:41Z</time>
      </trkpt>
      <trkpt lat="42.0074160" lon="-5.9075730">
        <ele>730.1</ele>
        <time>2019-08-15T16:02:42Z</time>
      </trkpt>
      <trkpt lat="42.0074030" lon="-5.9076230">
        <ele>730.1</ele>
        <time>2019-08-15T16:02:43Z</time>
      </trkpt>
      <trkpt lat="42.0073890" lon="-5.9076720">
        <ele>730.1</ele>
        <time>2019-08-15T16:02:44Z</time>
      </trkpt>
      <trkpt lat="42.0073760" lon="-5.9077200">
        <ele>730.1</ele>
        <time>2019-08-15T16:02:45Z</time>
      </trkpt>
      <trkpt lat="42.0073630" lon="-5.9077670">
        <ele>730.1</ele>
        <time>2019-08-15T16:02:46Z</time>
      </trkpt>
      <trkpt lat="42.0073490" lon="-5.9078150">
        <ele>730.1</ele>
        <time>2019-08-15T16:02:47Z</time>
      </trkpt>
      <trkpt lat="42.0073350" lon="-5.9078600">
        <ele>730.1</ele>
        <time>2019-08-15T16:02:48Z</time>
      </trkpt>
      <trkpt lat="42.0073210" lon="-5.9079020">
        <ele>730.2</ele>
        <time>2019-08-15T16:02:49Z</time>
      </trkpt>
      <trkpt lat="42.0073070" lon="-5.9079460">
        <ele>730.2</ele>
        <time>2019-08-15T16:02:50Z</time>
      </trkpt>
      <trkpt lat="42.0072900" lon="-5.9079900">
        <ele>730.2</ele>
        <time>2019-08-15T16:02:51Z</time>
      </trkpt>
      <trkpt lat="42.0072740" lon="-5.9080390">
        <ele>730.2</ele>
        <time>2019-08-15T16:02:52Z</time>
      </trkpt>
      <trkpt lat="42.0072570" lon="-5.9080910">
        <ele>730.2</ele>
        <time>2019-08-15T16:02:53Z</time>
      </trkpt>
      <trkpt lat="42.0072380" lon="-5.9081460">
        <ele>730.2</ele>
        <time>2019-08-15T16:02:54Z</time>
      </trkpt>
      <trkpt lat="42.0072180" lon="-5.9082010">
        <ele>730.2</ele>
        <time>2019-08-15T16:02:55Z</time>
      </trkpt>
      <trkpt lat="42.0071960" lon="-5.9082560">
        <ele>730.2</ele>
        <time>2019-08-15T16:02:56Z</time>
      </trkpt>
      <trkpt lat="42.0071730" lon="-5.9083130">
        <ele>730.2</ele>
        <time>2019-08-15T16:02:57Z</time>
      </trkpt>
      <trkpt lat="42.0071500" lon="-5.9083700">
        <ele>730.1</ele>
        <time>2019-08-15T16:02:58Z</time>
      </trkpt>
      <trkpt lat="42.0071250" lon="-5.9084290">
        <ele>730.1</ele>
        <time>2019-08-15T16:02:59Z</time>
      </trkpt>
      <trkpt lat="42.0071000" lon="-5.9084870">
        <ele>730.1</ele>
        <time>2019-08-15T16:03:00Z</time>
      </trkpt>
      <trkpt lat="42.0070750" lon="-5.9085440">
        <ele>730.1</ele>
        <time>2019-08-15T16:03:01Z</time>
      </trkpt>
      <trkpt lat="42.0070500" lon="-5.9086000">
        <ele>730.1</ele>
        <time>2019-08-15T16:03:02Z</time>
      </trkpt>
      <trkpt lat="42.0070250" lon="-5.9086560">
        <ele>730.1</ele>
        <time>2019-08-15T16:03:03Z</time>
      </trkpt>
      <trkpt lat="42.0070010" lon="-5.9087120">
        <ele>730.1</ele>
        <time>2019-08-15T16:03:04Z</time>
      </trkpt>
      <trkpt lat="42.0069770" lon="-5.9087660">
        <ele>730.1</ele>
        <time>2019-08-15T16:03:05Z</time>
      </trkpt>
      <trkpt lat="42.0069540" lon="-5.9088190">
        <ele>730.1</ele>
        <time>2019-08-15T16:03:06Z</time>
      </trkpt>
      <trkpt lat="42.0069310" lon="-5.9088740">
        <ele>730.1</ele>
        <time>2019-08-15T16:03:07Z</time>
      </trkpt>
      <trkpt lat="42.0069070" lon="-5.9089280">
        <ele>730.1</ele>
        <time>2019-08-15T16:03:08Z</time>
      </trkpt>
      <trkpt lat="42.0068810" lon="-5.9089850">
        <ele>730.0</ele>
        <time>2019-08-15T16:03:09Z</time>
      </trkpt>
      <trkpt lat="42.0068550" lon="-5.9090410">
        <ele>730.0</ele>
        <time>2019-08-15T16:03:10Z</time>
      </trkpt>
      <trkpt lat="42.0068300" lon="-5.9091000">
        <ele>730.0</ele>
        <time>2019-08-15T16:03:11Z</time>
      </trkpt>
      <trkpt lat="42.0068050" lon="-5.9091580">
        <ele>729.9</ele>
        <time>2019-08-15T16:03:12Z</time>
      </trkpt>
      <trkpt lat="42.0067800" lon="-5.9092180">
        <ele>729.9</ele>
        <time>2019-08-15T16:03:13Z</time>
      </trkpt>
      <trkpt lat="42.0067550" lon="-5.9092780">
        <ele>729.9</ele>
        <time>2019-08-15T16:03:14Z</time>
      </trkpt>
      <trkpt lat="42.0067290" lon="-5.9093410">
        <ele>729.8</ele>
        <time>2019-08-15T16:03:15Z</time>
      </trkpt>
      <trkpt lat="42.0067030" lon="-5.9094020">
        <ele>729.8</ele>
        <time>2019-08-15T16:03:16Z</time>
      </trkpt>
      <trkpt lat="42.0066780" lon="-5.9094630">
        <ele>729.7</ele>
        <time>2019-08-15T16:03:17Z</time>
      </trkpt>
      <trkpt lat="42.0066530" lon="-5.9095220">
        <ele>729.6</ele>
        <time>2019-08-15T16:03:18Z</time>
      </trkpt>
      <trkpt lat="42.0066290" lon="-5.9095800">
        <ele>729.6</ele>
        <time>2019-08-15T16:03:19Z</time>
      </trkpt>
      <trkpt lat="42.0066050" lon="-5.9096360">
        <ele>729.5</ele>
        <time>2019-08-15T16:03:20Z</time>
      </trkpt>
      <trkpt lat="42.0065810" lon="-5.9096930">
        <ele>729.4</ele>
        <time>2019-08-15T16:03:21Z</time>
      </trkpt>
      <trkpt lat="42.0065580" lon="-5.9097480">
        <ele>729.3</ele>
        <time>2019-08-15T16:03:22Z</time>
      </trkpt>
      <trkpt lat="42.0065350" lon="-5.9097990">
        <ele>729.2</ele>
        <time>2019-08-15T16:03:23Z</time>
      </trkpt>
      <trkpt lat="42.0065120" lon="-5.9098550">
        <ele>729.1</ele>
        <time>2019-08-15T16:03:24Z</time>
      </trkpt>
      <trkpt lat="42.0064890" lon="-5.9099100">
        <ele>729.0</ele>
        <time>2019-08-15T16:03:25Z</time>
      </trkpt>
      <trkpt lat="42.0064620" lon="-5.9099640">
        <ele>728.9</ele>
        <time>2019-08-15T16:03:26Z</time>
      </trkpt>
      <trkpt lat="42.0064360" lon="-5.9100200">
        <ele>728.8</ele>
        <time>2019-08-15T16:03:27Z</time>
      </trkpt>
      <trkpt lat="42.0064120" lon="-5.9100780">
        <ele>728.7</ele>
        <time>2019-08-15T16:03:28Z</time>
      </trkpt>
      <trkpt lat="42.0063890" lon="-5.9101320">
        <ele>728.6</ele>
        <time>2019-08-15T16:03:29Z</time>
      </trkpt>
      <trkpt lat="42.0063640" lon="-5.9101830">
        <ele>728.5</ele>
        <time>2019-08-15T16:03:30Z</time>
      </trkpt>
      <trkpt lat="42.0063410" lon="-5.9102310">
        <ele>728.4</ele>
        <time>2019-08-15T16:03:31Z</time>
      </trkpt>
      <trkpt lat="42.0063200" lon="-5.9102780">
        <ele>728.3</ele>
        <time>2019-08-15T16:03:32Z</time>
      </trkpt>
      <trkpt lat="42.0063020" lon="-5.9103220">
        <ele>728.3</ele>
        <time>2019-08-15T16:03:33Z</time>
      </trkpt>
      <trkpt lat="42.0062850" lon="-5.9103620">
        <ele>728.2</ele>
        <time>2019-08-15T16:03:34Z</time>
      </trkpt>
      <trkpt lat="42.0062700" lon="-5.9104010">
        <ele>728.2</ele>
        <time>2019-08-15T16:03:35Z</time>
      </trkpt>
      <trkpt lat="42.0062530" lon="-5.9104400">
        <ele>728.1</ele>
        <time>2019-08-15T16:03:36Z</time>
      </trkpt>
      <trkpt lat="42.0062330" lon="-5.9104810">
        <ele>728.1</ele>
        <time>2019-08-15T16:03:37Z</time>
      </trkpt>
      <trkpt lat="42.0062130" lon="-5.9105240">
        <ele>728.0</ele>
        <time>2019-08-15T16:03:38Z</time>
      </trkpt>
      <trkpt lat="42.0061940" lon="-5.9105700">
        <ele>728.0</ele>
        <time>2019-08-15T16:03:39Z</time>
      </trkpt>
      <trkpt lat="42.0061740" lon="-5.9106180">
        <ele>728.0</ele>
        <time>2019-08-15T16:03:40Z</time>
      </trkpt>
      <trkpt lat="42.0061550" lon="-5.9106660">
        <ele>727.9</ele>
        <time>2019-08-15T16:03:41Z</time>
      </trkpt>
      <trkpt lat="42.0061340" lon="-5.9107150">
        <ele>727.9</ele>
        <time>2019-08-15T16:03:42Z</time>
      </trkpt>
      <trkpt lat="42.0061130" lon="-5.9107640">
        <ele>727.9</ele>
        <time>2019-08-15T16:03:43Z</time>
      </trkpt>
      <trkpt lat="42.0060930" lon="-5.9108140">
        <ele>727.8</ele>
        <time>2019-08-15T16:03:44Z</time>
      </trkpt>
      <trkpt lat="42.0060740" lon="-5.9108650">
        <ele>727.8</ele>
        <time>2019-08-15T16:03:45Z</time>
      </trkpt>
      <trkpt lat="42.0060540" lon="-5.9109160">
        <ele>727.8</ele>
        <time>2019-08-15T16:03:46Z</time>
      </trkpt>
      <trkpt lat="42.0060320" lon="-5.9109660">
        <ele>727.7</ele>
        <time>2019-08-15T16:03:47Z</time>
      </trkpt>
      <trkpt lat="42.0060100" lon="-5.9110170">
        <ele>727.7</ele>
        <time>2019-08-15T16:03:48Z</time>
      </trkpt>
      <trkpt lat="42.0059890" lon="-5.9110690">
        <ele>727.6</ele>
        <time>2019-08-15T16:03:49Z</time>
      </trkpt>
      <trkpt lat="42.0059660" lon="-5.9111200">
        <ele>727.6</ele>
        <time>2019-08-15T16:03:50Z</time>
      </trkpt>
      <trkpt lat="42.0059440" lon="-5.9111740">
        <ele>727.6</ele>
        <time>2019-08-15T16:03:51Z</time>
      </trkpt>
      <trkpt lat="42.0059230" lon="-5.9112260">
        <ele>727.6</ele>
        <time>2019-08-15T16:03:52Z</time>
      </trkpt>
      <trkpt lat="42.0059010" lon="-5.9112790">
        <ele>727.7</ele>
        <time>2019-08-15T16:03:53Z</time>
      </trkpt>
      <trkpt lat="42.0058800" lon="-5.9113280">
        <ele>727.6</ele>
        <time>2019-08-15T16:03:54Z</time>
      </trkpt>
      <trkpt lat="42.0058570" lon="-5.9113770">
        <ele>727.5</ele>
        <time>2019-08-15T16:03:55Z</time>
      </trkpt>
      <trkpt lat="42.0058350" lon="-5.9114250">
        <ele>727.5</ele>
        <time>2019-08-15T16:03:56Z</time>
      </trkpt>
      <trkpt lat="42.0058130" lon="-5.9114750">
        <ele>727.4</ele>
        <time>2019-08-15T16:03:57Z</time>
      </trkpt>
      <trkpt lat="42.0057900" lon="-5.9115240">
        <ele>727.2</ele>
        <time>2019-08-15T16:03:58Z</time>
      </trkpt>
      <trkpt lat="42.0057680" lon="-5.9115740">
        <ele>727.0</ele>
        <time>2019-08-15T16:03:59Z</time>
      </trkpt>
      <trkpt lat="42.0057460" lon="-5.9116250">
        <ele>727.0</ele>
        <time>2019-08-15T16:04:00Z</time>
      </trkpt>
      <trkpt lat="42.0057230" lon="-5.9116770">
        <ele>726.9</ele>
        <time>2019-08-15T16:04:01Z</time>
      </trkpt>
      <trkpt lat="42.0057010" lon="-5.9117300">
        <ele>726.9</ele>
        <time>2019-08-15T16:04:02Z</time>
      </trkpt>
      <trkpt lat="42.0056770" lon="-5.9117850">
        <ele>726.9</ele>
        <time>2019-08-15T16:04:03Z</time>
      </trkpt>
      <trkpt lat="42.0056520" lon="-5.9118380">
        <ele>727.0</ele>
        <time>2019-08-15T16:04:04Z</time>
      </trkpt>
      <trkpt lat="42.0056290" lon="-5.9118940">
        <ele>727.1</ele>
        <time>2019-08-15T16:04:05Z</time>
      </trkpt>
      <trkpt lat="42.0056040" lon="-5.9119500">
        <ele>727.2</ele>
        <time>2019-08-15T16:04:06Z</time>
      </trkpt>
      <trkpt lat="42.0055780" lon="-5.9120070">
        <ele>727.3</ele>
        <time>2019-08-15T16:04:07Z</time>
      </trkpt>
      <trkpt lat="42.0055530" lon="-5.9120630">
        <ele>727.5</ele>
        <time>2019-08-15T16:04:08Z</time>
      </trkpt>
      <trkpt lat="42.0055290" lon="-5.9121190">
        <ele>727.6</ele>
        <time>2019-08-15T16:04:09Z</time>
      </trkpt>
      <trkpt lat="42.0055050" lon="-5.9121750">
        <ele>727.8</ele>
        <time>2019-08-15T16:04:10Z</time>
      </trkpt>
      <trkpt lat="42.0054800" lon="-5.9122330">
        <ele>727.9</ele>
        <time>2019-08-15T16:04:11Z</time>
      </trkpt>
      <trkpt lat="42.0054550" lon="-5.9122900">
        <ele>728.0</ele>
        <time>2019-08-15T16:04:12Z</time>
      </trkpt>
      <trkpt lat="42.0054310" lon="-5.9123470">
        <ele>728.1</ele>
        <time>2019-08-15T16:04:13Z</time>
      </trkpt>
      <trkpt lat="42.0054070" lon="-5.9124040">
        <ele>728.2</ele>
        <time>2019-08-15T16:04:14Z</time>
      </trkpt>
      <trkpt lat="42.0053830" lon="-5.9124600">
        <ele>728.3</ele>
        <time>2019-08-15T16:04:15Z</time>
      </trkpt>
      <trkpt lat="42.0053600" lon="-5.9125170">
        <ele>728.5</ele>
        <time>2019-08-15T16:04:16Z</time>
      </trkpt>
      <trkpt lat="42.0053380" lon="-5.9125750">
        <ele>728.6</ele>
        <time>2019-08-15T16:04:17Z</time>
      </trkpt>
      <trkpt lat="42.0053180" lon="-5.9126300">
        <ele>728.8</ele>
        <time>2019-08-15T16:04:18Z</time>
      </trkpt>
      <trkpt lat="42.0052980" lon="-5.9126820">
        <ele>728.9</ele>
        <time>2019-08-15T16:04:19Z</time>
      </trkpt>
      <trkpt lat="42.0052790" lon="-5.9127300">
        <ele>729.1</ele>
        <time>2019-08-15T16:04:20Z</time>
      </trkpt>
      <trkpt lat="42.0052580" lon="-5.9127770">
        <ele>729.2</ele>
        <time>2019-08-15T16:04:21Z</time>
      </trkpt>
      <trkpt lat="42.0052360" lon="-5.9128240">
        <ele>729.3</ele>
        <time>2019-08-15T16:04:22Z</time>
      </trkpt>
      <trkpt lat="42.0052150" lon="-5.9128700">
        <ele>729.4</ele>
        <time>2019-08-15T16:04:23Z</time>
      </trkpt>
      <trkpt lat="42.0051930" lon="-5.9129190">
        <ele>729.5</ele>
        <time>2019-08-15T16:04:24Z</time>
      </trkpt>
      <trkpt lat="42.0051710" lon="-5.9129670">
        <ele>729.6</ele>
        <time>2019-08-15T16:04:25Z</time>
      </trkpt>
      <trkpt lat="42.0051470" lon="-5.9130150">
        <ele>729.7</ele>
        <time>2019-08-15T16:04:26Z</time>
      </trkpt>
      <trkpt lat="42.0051250" lon="-5.9130640">
        <ele>729.8</ele>
        <time>2019-08-15T16:04:27Z</time>
      </trkpt>
      <trkpt lat="42.0051040" lon="-5.9131130">
        <ele>729.9</ele>
        <time>2019-08-15T16:04:28Z</time>
      </trkpt>
      <trkpt lat="42.0050820" lon="-5.9131620">
        <ele>730.0</ele>
        <time>2019-08-15T16:04:29Z</time>
      </trkpt>
      <trkpt lat="42.0050600" lon="-5.9132110">
        <ele>730.2</ele>
        <time>2019-08-15T16:04:30Z</time>
      </trkpt>
      <trkpt lat="42.0050390" lon="-5.9132600">
        <ele>730.3</ele>
        <time>2019-08-15T16:04:31Z</time>
      </trkpt>
      <trkpt lat="42.0050190" lon="-5.9133120">
        <ele>730.4</ele>
        <time>2019-08-15T16:04:32Z</time>
      </trkpt>
      <trkpt lat="42.0049970" lon="-5.9133630">
        <ele>730.5</ele>
        <time>2019-08-15T16:04:33Z</time>
      </trkpt>
      <trkpt lat="42.0049750" lon="-5.9134110">
        <ele>730.6</ele>
        <time>2019-08-15T16:04:34Z</time>
      </trkpt>
      <trkpt lat="42.0049540" lon="-5.9134590">
        <ele>730.8</ele>
        <time>2019-08-15T16:04:35Z</time>
      </trkpt>
      <trkpt lat="42.0049340" lon="-5.9135040">
        <ele>730.9</ele>
        <time>2019-08-15T16:04:36Z</time>
      </trkpt>
      <trkpt lat="42.0049130" lon="-5.9135510">
        <ele>731.0</ele>
        <time>2019-08-15T16:04:37Z</time>
      </trkpt>
      <trkpt lat="42.0048940" lon="-5.9136010">
        <ele>731.2</ele>
        <time>2019-08-15T16:04:38Z</time>
      </trkpt>
      <trkpt lat="42.0048740" lon="-5.9136490">
        <ele>731.3</ele>
        <time>2019-08-15T16:04:39Z</time>
      </trkpt>
      <trkpt lat="42.0048520" lon="-5.9136970">
        <ele>731.4</ele>
        <time>2019-08-15T16:04:40Z</time>
      </trkpt>
      <trkpt lat="42.0048320" lon="-5.9137450">
        <ele>731.6</ele>
        <time>2019-08-15T16:04:41Z</time>
      </trkpt>
      <trkpt lat="42.0048120" lon="-5.9137940">
        <ele>731.7</ele>
        <time>2019-08-15T16:04:42Z</time>
      </trkpt>
      <trkpt lat="42.0047910" lon="-5.9138410">
        <ele>731.9</ele>
        <time>2019-08-15T16:04:43Z</time>
      </trkpt>
      <trkpt lat="42.0047710" lon="-5.9138880">
        <ele>732.1</ele>
        <time>2019-08-15T16:04:44Z</time>
      </trkpt>
      <trkpt lat="42.0047510" lon="-5.9139340">
        <ele>732.3</ele>
        <time>2019-08-15T16:04:45Z</time>
      </trkpt>
      <trkpt lat="42.0047320" lon="-5.9139820">
        <ele>732.5</ele>
        <time>2019-08-15T16:04:46Z</time>
      </trkpt>
      <trkpt lat="42.0047130" lon="-5.9140300">
        <ele>732.7</ele>
        <time>2019-08-15T16:04:47Z</time>
      </trkpt>
      <trkpt lat="42.0046920" lon="-5.9140770">
        <ele>732.8</ele>
        <time>2019-08-15T16:04:48Z</time>
      </trkpt>
      <trkpt lat="42.0046720" lon="-5.9141250">
        <ele>733.0</ele>
        <time>2019-08-15T16:04:49Z</time>
      </trkpt>
      <trkpt lat="42.0046510" lon="-5.9141700">
        <ele>733.1</ele>
        <time>2019-08-15T16:04:50Z</time>
      </trkpt>
      <trkpt lat="42.0046300" lon="-5.9142160">
        <ele>733.3</ele>
        <time>2019-08-15T16:04:51Z</time>
      </trkpt>
      <trkpt lat="42.0046080" lon="-5.9142620">
        <ele>733.4</ele>
        <time>2019-08-15T16:04:52Z</time>
      </trkpt>
      <trkpt lat="42.0045890" lon="-5.9143090">
        <ele>733.5</ele>
        <time>2019-08-15T16:04:53Z</time>
      </trkpt>
      <trkpt lat="42.0045700" lon="-5.9143570">
        <ele>733.6</ele>
        <time>2019-08-15T16:04:54Z</time>
      </trkpt>
      <trkpt lat="42.0045510" lon="-5.9144040">
        <ele>733.8</ele>
        <time>2019-08-15T16:04:55Z</time>
      </trkpt>
      <trkpt lat="42.0045300" lon="-5.9144510">
        <ele>733.9</ele>
        <time>2019-08-15T16:04:56Z</time>
      </trkpt>
      <trkpt lat="42.0045100" lon="-5.9144980">
        <ele>734.1</ele>
        <time>2019-08-15T16:04:57Z</time>
      </trkpt>
      <trkpt lat="42.0044910" lon="-5.9145450">
        <ele>734.3</ele>
        <time>2019-08-15T16:04:58Z</time>
      </trkpt>
      <trkpt lat="42.0044710" lon="-5.9145930">
        <ele>734.4</ele>
        <time>2019-08-15T16:04:59Z</time>
      </trkpt>
      <trkpt lat="42.0044510" lon="-5.9146410">
        <ele>734.5</ele>
        <time>2019-08-15T16:05:00Z</time>
      </trkpt>
      <trkpt lat="42.0044310" lon="-5.9146880">
        <ele>734.6</ele>
        <time>2019-08-15T16:05:01Z</time>
      </trkpt>
      <trkpt lat="42.0044090" lon="-5.9147320">
        <ele>734.8</ele>
        <time>2019-08-15T16:05:02Z</time>
      </trkpt>
      <trkpt lat="42.0043880" lon="-5.9147760">
        <ele>734.9</ele>
        <time>2019-08-15T16:05:03Z</time>
      </trkpt>
      <trkpt lat="42.0043690" lon="-5.9148230">
        <ele>735.0</ele>
        <time>2019-08-15T16:05:04Z</time>
      </trkpt>
      <trkpt lat="42.0043500" lon="-5.9148690">
        <ele>735.2</ele>
        <time>2019-08-15T16:05:05Z</time>
      </trkpt>
      <trkpt lat="42.0043310" lon="-5.9149150">
        <ele>735.3</ele>
        <time>2019-08-15T16:05:06Z</time>
      </trkpt>
      <trkpt lat="42.0043110" lon="-5.9149590">
        <ele>735.4</ele>
        <time>2019-08-15T16:05:07Z</time>
      </trkpt>
      <trkpt lat="42.0042900" lon="-5.9150020">
        <ele>735.5</ele>
        <time>2019-08-15T16:05:08Z</time>
      </trkpt>
      <trkpt lat="42.0042700" lon="-5.9150450">
        <ele>735.5</ele>
        <time>2019-08-15T16:05:09Z</time>
      </trkpt>
      <trkpt lat="42.0042500" lon="-5.9150890">
        <ele>735.6</ele>
        <time>2019-08-15T16:05:10Z</time>
      </trkpt>
      <trkpt lat="42.0042320" lon="-5.9151350">
        <ele>735.7</ele>
        <time>2019-08-15T16:05:11Z</time>
      </trkpt>
      <trkpt lat="42.0042140" lon="-5.9151810">
        <ele>735.8</ele>
        <time>2019-08-15T16:05:12Z</time>
      </trkpt>
      <trkpt lat="42.0041960" lon="-5.9152250">
        <ele>735.9</ele>
        <time>2019-08-15T16:05:13Z</time>
      </trkpt>
      <trkpt lat="42.0041780" lon="-5.9152700">
        <ele>736.0</ele>
        <time>2019-08-15T16:05:14Z</time>
      </trkpt>
      <trkpt lat="42.0041600" lon="-5.9153140">
        <ele>736.1</ele>
        <time>2019-08-15T16:05:15Z</time>
      </trkpt>
      <trkpt lat="42.0041400" lon="-5.9153580">
        <ele>736.1</ele>
        <time>2019-08-15T16:05:16Z</time>
      </trkpt>
      <trkpt lat="42.0041210" lon="-5.9154030">
        <ele>736.2</ele>
        <time>2019-08-15T16:05:17Z</time>
      </trkpt>
      <trkpt lat="42.0041030" lon="-5.9154470">
        <ele>736.4</ele>
        <time>2019-08-15T16:05:18Z</time>
      </trkpt>
      <trkpt lat="42.0040850" lon="-5.9154900">
        <ele>736.5</ele>
        <time>2019-08-15T16:05:19Z</time>
      </trkpt>
      <trkpt lat="42.0040650" lon="-5.9155310">
        <ele>736.6</ele>
        <time>2019-08-15T16:05:20Z</time>
      </trkpt>
      <trkpt lat="42.0040450" lon="-5.9155730">
        <ele>736.7</ele>
        <time>2019-08-15T16:05:21Z</time>
      </trkpt>
      <trkpt lat="42.0040260" lon="-5.9156160">
        <ele>736.8</ele>
        <time>2019-08-15T16:05:22Z</time>
      </trkpt>
      <trkpt lat="42.0040070" lon="-5.9156610">
        <ele>736.9</ele>
        <time>2019-08-15T16:05:23Z</time>
      </trkpt>
      <trkpt lat="42.0039880" lon="-5.9157060">
        <ele>737.0</ele>
        <time>2019-08-15T16:05:24Z</time>
      </trkpt>
      <trkpt lat="42.0039680" lon="-5.9157530">
        <ele>737.0</ele>
        <time>2019-08-15T16:05:25Z</time>
      </trkpt>
      <trkpt lat="42.0039490" lon="-5.9157980">
        <ele>737.1</ele>
        <time>2019-08-15T16:05:26Z</time>
      </trkpt>
      <trkpt lat="42.0039290" lon="-5.9158420">
        <ele>737.2</ele>
        <time>2019-08-15T16:05:27Z</time>
      </trkpt>
      <trkpt lat="42.0039090" lon="-5.9158870">
        <ele>737.3</ele>
        <time>2019-08-15T16:05:28Z</time>
      </trkpt>
      <trkpt lat="42.0038890" lon="-5.9159310">
        <ele>737.3</ele>
        <time>2019-08-15T16:05:29Z</time>
      </trkpt>
      <trkpt lat="42.0038700" lon="-5.9159750">
        <ele>737.4</ele>
        <time>2019-08-15T16:05:30Z</time>
      </trkpt>
      <trkpt lat="42.0038530" lon="-5.9160180">
        <ele>737.5</ele>
        <time>2019-08-15T16:05:31Z</time>
      </trkpt>
      <trkpt lat="42.0038370" lon="-5.9160620">
        <ele>737.6</ele>
        <time>2019-08-15T16:05:32Z</time>
      </trkpt>
      <trkpt lat="42.0038200" lon="-5.9161060">
        <ele>737.7</ele>
        <time>2019-08-15T16:05:33Z</time>
      </trkpt>
      <trkpt lat="42.0038010" lon="-5.9161490">
        <ele>737.8</ele>
        <time>2019-08-15T16:05:34Z</time>
      </trkpt>
      <trkpt lat="42.0037820" lon="-5.9161930">
        <ele>737.9</ele>
        <time>2019-08-15T16:05:35Z</time>
      </trkpt>
      <trkpt lat="42.0037620" lon="-5.9162380">
        <ele>738.0</ele>
        <time>2019-08-15T16:05:36Z</time>
      </trkpt>
      <trkpt lat="42.0037430" lon="-5.9162840">
        <ele>738.1</ele>
        <time>2019-08-15T16:05:37Z</time>
      </trkpt>
      <trkpt lat="42.0037240" lon="-5.9163290">
        <ele>738.2</ele>
        <time>2019-08-15T16:05:38Z</time>
      </trkpt>
      <trkpt lat="42.0037050" lon="-5.9163740">
        <ele>738.3</ele>
        <time>2019-08-15T16:05:39Z</time>
      </trkpt>
      <trkpt lat="42.0036860" lon="-5.9164190">
        <ele>738.5</ele>
        <time>2019-08-15T16:05:40Z</time>
      </trkpt>
      <trkpt lat="42.0036680" lon="-5.9164640">
        <ele>738.6</ele>
        <time>2019-08-15T16:05:41Z</time>
      </trkpt>
      <trkpt lat="42.0036490" lon="-5.9165100">
        <ele>738.7</ele>
        <time>2019-08-15T16:05:42Z</time>
      </trkpt>
      <trkpt lat="42.0036310" lon="-5.9165560">
        <ele>738.8</ele>
        <time>2019-08-15T16:05:43Z</time>
      </trkpt>
      <trkpt lat="42.0036120" lon="-5.9166020">
        <ele>738.9</ele>
        <time>2019-08-15T16:05:44Z</time>
      </trkpt>
      <trkpt lat="42.0035920" lon="-5.9166480">
        <ele>739.0</ele>
        <time>2019-08-15T16:05:45Z</time>
      </trkpt>
      <trkpt lat="42.0035720" lon="-5.9166940">
        <ele>739.1</ele>
        <time>2019-08-15T16:05:46Z</time>
      </trkpt>
      <trkpt lat="42.0035530" lon="-5.9167410">
        <ele>739.2</ele>
        <time>2019-08-15T16:05:47Z</time>
      </trkpt>
      <trkpt lat="42.0035330" lon="-5.9167900">
        <ele>739.3</ele>
        <time>2019-08-15T16:05:48Z</time>
      </trkpt>
      <trkpt lat="42.0035120" lon="-5.9168380">
        <ele>739.4</ele>
        <time>2019-08-15T16:05:49Z</time>
      </trkpt>
      <trkpt lat="42.0034920" lon="-5.9168880">
        <ele>739.5</ele>
        <time>2019-08-15T16:05:50Z</time>
      </trkpt>
      <trkpt lat="42.0034730" lon="-5.9169370">
        <ele>739.5</ele>
        <time>2019-08-15T16:05:51Z</time>
      </trkpt>
      <trkpt lat="42.0034530" lon="-5.9169880">
        <ele>739.6</ele>
        <time>2019-08-15T16:05:52Z</time>
      </trkpt>
      <trkpt lat="42.0034320" lon="-5.9170400">
        <ele>739.7</ele>
        <time>2019-08-15T16:05:53Z</time>
      </trkpt>
      <trkpt lat="42.0034110" lon="-5.9170930">
        <ele>739.7</ele>
        <time>2019-08-15T16:05:54Z</time>
      </trkpt>
      <trkpt lat="42.0033900" lon="-5.9171470">
        <ele>739.8</ele>
        <time>2019-08-15T16:05:55Z</time>
      </trkpt>
      <trkpt lat="42.0033680" lon="-5.9171980">
        <ele>739.8</ele>
        <time>2019-08-15T16:05:56Z</time>
      </trkpt>
      <trkpt lat="42.0033450" lon="-5.9172520">
        <ele>739.9</ele>
        <time>2019-08-15T16:05:57Z</time>
      </trkpt>
      <trkpt lat="42.0033240" lon="-5.9173050">
        <ele>739.9</ele>
        <time>2019-08-15T16:05:58Z</time>
      </trkpt>
      <trkpt lat="42.0033040" lon="-5.9173620">
        <ele>740.0</ele>
        <time>2019-08-15T16:05:59Z</time>
      </trkpt>
      <trkpt lat="42.0032840" lon="-5.9174200">
        <ele>740.0</ele>
        <time>2019-08-15T16:06:00Z</time>
      </trkpt>
      <trkpt lat="42.0032640" lon="-5.9174800">
        <ele>740.0</ele>
        <time>2019-08-15T16:06:01Z</time>
      </trkpt>
      <trkpt lat="42.0032430" lon="-5.9175420">
        <ele>740.0</ele>
        <time>2019-08-15T16:06:02Z</time>
      </trkpt>
      <trkpt lat="42.0032200" lon="-5.9176050">
        <ele>740.0</ele>
        <time>2019-08-15T16:06:03Z</time>
      </trkpt>
      <trkpt lat="42.0032010" lon="-5.9176680">
        <ele>739.9</ele>
        <time>2019-08-15T16:06:04Z</time>
      </trkpt>
      <trkpt lat="42.0031810" lon="-5.9177310">
        <ele>739.9</ele>
        <time>2019-08-15T16:06:05Z</time>
      </trkpt>
      <trkpt lat="42.0031610" lon="-5.9177930">
        <ele>739.9</ele>
        <time>2019-08-15T16:06:06Z</time>
      </trkpt>
      <trkpt lat="42.0031420" lon="-5.9178570">
        <ele>739.9</ele>
        <time>2019-08-15T16:06:07Z</time>
      </trkpt>
      <trkpt lat="42.0031250" lon="-5.9179200">
        <ele>739.8</ele>
        <time>2019-08-15T16:06:08Z</time>
      </trkpt>
      <trkpt lat="42.0031070" lon="-5.9179820">
        <ele>739.8</ele>
        <time>2019-08-15T16:06:09Z</time>
      </trkpt>
      <trkpt lat="42.0030900" lon="-5.9180450">
        <ele>739.7</ele>
        <time>2019-08-15T16:06:10Z</time>
      </trkpt>
      <trkpt lat="42.0030750" lon="-5.9181080">
        <ele>739.7</ele>
        <time>2019-08-15T16:06:11Z</time>
      </trkpt>
      <trkpt lat="42.0030610" lon="-5.9181730">
        <ele>739.7</ele>
        <time>2019-08-15T16:06:12Z</time>
      </trkpt>
      <trkpt lat="42.0030470" lon="-5.9182360">
        <ele>739.6</ele>
        <time>2019-08-15T16:06:13Z</time>
      </trkpt>
      <trkpt lat="42.0030330" lon="-5.9183010">
        <ele>739.6</ele>
        <time>2019-08-15T16:06:14Z</time>
      </trkpt>
      <trkpt lat="42.0030190" lon="-5.9183670">
        <ele>739.5</ele>
        <time>2019-08-15T16:06:15Z</time>
      </trkpt>
      <trkpt lat="42.0030090" lon="-5.9184330">
        <ele>739.5</ele>
        <time>2019-08-15T16:06:16Z</time>
      </trkpt>
      <trkpt lat="42.0030010" lon="-5.9185000">
        <ele>739.5</ele>
        <time>2019-08-15T16:06:17Z</time>
      </trkpt>
      <trkpt lat="42.0029940" lon="-5.9185670">
        <ele>739.4</ele>
        <time>2019-08-15T16:06:18Z</time>
      </trkpt>
      <trkpt lat="42.0029890" lon="-5.9186360">
        <ele>739.4</ele>
        <time>2019-08-15T16:06:19Z</time>
      </trkpt>
      <trkpt lat="42.0029850" lon="-5.9187040">
        <ele>739.3</ele>
        <time>2019-08-15T16:06:20Z</time>
      </trkpt>
      <trkpt lat="42.0029800" lon="-5.9187730">
        <ele>739.3</ele>
        <time>2019-08-15T16:06:21Z</time>
      </trkpt>
      <trkpt lat="42.0029750" lon="-5.9188440">
        <ele>739.2</ele>
        <time>2019-08-15T16:06:22Z</time>
      </trkpt>
      <trkpt lat="42.0029720" lon="-5.9189140">
        <ele>739.1</ele>
        <time>2019-08-15T16:06:23Z</time>
      </trkpt>
      <trkpt lat="42.0029720" lon="-5.9189860">
        <ele>739.1</ele>
        <time>2019-08-15T16:06:24Z</time>
      </trkpt>
      <trkpt lat="42.0029710" lon="-5.9190570">
        <ele>738.9</ele>
        <time>2019-08-15T16:06:25Z</time>
      </trkpt>
      <trkpt lat="42.0029690" lon="-5.9191280">
        <ele>738.7</ele>
        <time>2019-08-15T16:06:26Z</time>
      </trkpt>
      <trkpt lat="42.0029690" lon="-5.9192020">
        <ele>738.5</ele>
        <time>2019-08-15T16:06:27Z</time>
      </trkpt>
      <trkpt lat="42.0029710" lon="-5.9192750">
        <ele>738.3</ele>
        <time>2019-08-15T16:06:28Z</time>
      </trkpt>
      <trkpt lat="42.0029710" lon="-5.9193520">
        <ele>738.0</ele>
        <time>2019-08-15T16:06:29Z</time>
      </trkpt>
      <trkpt lat="42.0029700" lon="-5.9194320">
        <ele>737.6</ele>
        <time>2019-08-15T16:06:30Z</time>
      </trkpt>
      <trkpt lat="42.0029710" lon="-5.9195130">
        <ele>737.2</ele>
        <time>2019-08-15T16:06:31Z</time>
      </trkpt>
      <trkpt lat="42.0029730" lon="-5.9195970">
        <ele>736.8</ele>
        <time>2019-08-15T16:06:32Z</time>
      </trkpt>
      <trkpt lat="42.0029740" lon="-5.9196850">
        <ele>736.3</ele>
        <time>2019-08-15T16:06:33Z</time>
      </trkpt>
      <trkpt lat="42.0029770" lon="-5.9197760">
        <ele>735.5</ele>
        <time>2019-08-15T16:06:34Z</time>
      </trkpt>
      <trkpt lat="42.0029800" lon="-5.9198700">
        <ele>734.6</ele>
        <time>2019-08-15T16:06:35Z</time>
      </trkpt>
      <trkpt lat="42.0029830" lon="-5.9199660">
        <ele>733.6</ele>
        <time>2019-08-15T16:06:36Z</time>
      </trkpt>
      <trkpt lat="42.0029860" lon="-5.9200660">
        <ele>732.9</ele>
        <time>2019-08-15T16:06:37Z</time>
      </trkpt>
      <trkpt lat="42.0029880" lon="-5.9201690">
        <ele>732.0</ele>
        <time>2019-08-15T16:06:38Z</time>
      </trkpt>
      <trkpt lat="42.0029890" lon="-5.9202750">
        <ele>731.0</ele>
        <time>2019-08-15T16:06:39Z</time>
      </trkpt>
      <trkpt lat="42.0029900" lon="-5.9203850">
        <ele>730.7</ele>
        <time>2019-08-15T16:06:40Z</time>
      </trkpt>
      <trkpt lat="42.0029930" lon="-5.9204970">
        <ele>730.2</ele>
        <time>2019-08-15T16:06:41Z</time>
      </trkpt>
      <trkpt lat="42.0029950" lon="-5.9206120">
        <ele>729.5</ele>
        <time>2019-08-15T16:06:42Z</time>
      </trkpt>
      <trkpt lat="42.0029980" lon="-5.9207310">
        <ele>728.7</ele>
        <time>2019-08-15T16:06:43Z</time>
      </trkpt>
      <trkpt lat="42.0030000" lon="-5.9208510">
        <ele>727.9</ele>
        <time>2019-08-15T16:06:44Z</time>
      </trkpt>
      <trkpt lat="42.0030020" lon="-5.9209730">
        <ele>727.0</ele>
        <time>2019-08-15T16:06:45Z</time>
      </trkpt>
      <trkpt lat="42.0030030" lon="-5.9210980">
        <ele>726.1</ele>
        <time>2019-08-15T16:06:46Z</time>
      </trkpt>
      <trkpt lat="42.0030030" lon="-5.9212240">
        <ele>725.2</ele>
        <time>2019-08-15T16:06:47Z</time>
      </trkpt>
      <trkpt lat="42.0030040" lon="-5.9213520">
        <ele>724.3</ele>
        <time>2019-08-15T16:06:48Z</time>
      </trkpt>
      <trkpt lat="42.0030020" lon="-5.9214820">
        <ele>723.4</ele>
        <time>2019-08-15T16:06:49Z</time>
      </trkpt>
      <trkpt lat="42.0030000" lon="-5.9216120">
        <ele>722.9</ele>
        <time>2019-08-15T16:06:50Z</time>
      </trkpt>
      <trkpt lat="42.0029980" lon="-5.9217430">
        <ele>722.6</ele>
        <time>2019-08-15T16:06:51Z</time>
      </trkpt>
      <trkpt lat="42.0029960" lon="-5.9218740">
        <ele>722.4</ele>
        <time>2019-08-15T16:06:52Z</time>
      </trkpt>
      <trkpt lat="42.0029930" lon="-5.9220040">
        <ele>722.3</ele>
        <time>2019-08-15T16:06:53Z</time>
      </trkpt>
      <trkpt lat="42.0029890" lon="-5.9221300">
        <ele>722.3</ele>
        <time>2019-08-15T16:06:54Z</time>
      </trkpt>
      <trkpt lat="42.0029870" lon="-5.9222560">
        <ele>722.2</ele>
        <time>2019-08-15T16:06:55Z</time>
      </trkpt>
      <trkpt lat="42.0029860" lon="-5.9223820">
        <ele>722.2</ele>
        <time>2019-08-15T16:06:56Z</time>
      </trkpt>
      <trkpt lat="42.0029830" lon="-5.9225070">
        <ele>722.1</ele>
        <time>2019-08-15T16:06:57Z</time>
      </trkpt>
      <trkpt lat="42.0029790" lon="-5.9226300">
        <ele>722.0</ele>
        <time>2019-08-15T16:06:58Z</time>
      </trkpt>
      <trkpt lat="42.0029740" lon="-5.9227530">
        <ele>722.0</ele>
        <time>2019-08-15T16:06:59Z</time>
      </trkpt>
      <trkpt lat="42.0029710" lon="-5.9228760">
        <ele>721.9</ele>
        <time>2019-08-15T16:07:00Z</time>
      </trkpt>
      <trkpt lat="42.0029660" lon="-5.9229950">
        <ele>721.9</ele>
        <time>2019-08-15T16:07:01Z</time>
      </trkpt>
      <trkpt lat="42.0029600" lon="-5.9231140">
        <ele>721.8</ele>
        <time>2019-08-15T16:07:02Z</time>
      </trkpt>
      <trkpt lat="42.0029530" lon="-5.9232300">
        <ele>721.8</ele>
        <time>2019-08-15T16:07:03Z</time>
      </trkpt>
      <trkpt lat="42.0029450" lon="-5.9233460">
        <ele>721.7</ele>
        <time>2019-08-15T16:07:04Z</time>
      </trkpt>
      <trkpt lat="42.0029350" lon="-5.9234600">
        <ele>721.7</ele>
        <time>2019-08-15T16:07:05Z</time>
      </trkpt>
      <trkpt lat="42.0029250" lon="-5.9235710">
        <ele>721.7</ele>
        <time>2019-08-15T16:07:06Z</time>
      </trkpt>
      <trkpt lat="42.0029140" lon="-5.9236810">
        <ele>721.7</ele>
        <time>2019-08-15T16:07:07Z</time>
      </trkpt>
      <trkpt lat="42.0029020" lon="-5.9237890">
        <ele>721.6</ele>
        <time>2019-08-15T16:07:08Z</time>
      </trkpt>
      <trkpt lat="42.0028910" lon="-5.9238950">
        <ele>721.6</ele>
        <time>2019-08-15T16:07:09Z</time>
      </trkpt>
      <trkpt lat="42.0028790" lon="-5.9239980">
        <ele>721.6</ele>
        <time>2019-08-15T16:07:10Z</time>
      </trkpt>
      <trkpt lat="42.0028650" lon="-5.9241030">
        <ele>721.5</ele>
        <time>2019-08-15T16:07:11Z</time>
      </trkpt>
      <trkpt lat="42.0028520" lon="-5.9242040">
        <ele>721.5</ele>
        <time>2019-08-15T16:07:12Z</time>
      </trkpt>
      <trkpt lat="42.0028390" lon="-5.9243040">
        <ele>721.4</ele>
        <time>2019-08-15T16:07:13Z</time>
      </trkpt>
      <trkpt lat="42.0028260" lon="-5.9244010">
        <ele>721.4</ele>
        <time>2019-08-15T16:07:14Z</time>
      </trkpt>
      <trkpt lat="42.0028130" lon="-5.9244950">
        <ele>721.3</ele>
        <time>2019-08-15T16:07:15Z</time>
      </trkpt>
      <trkpt lat="42.0028020" lon="-5.9245890">
        <ele>721.2</ele>
        <time>2019-08-15T16:07:16Z</time>
      </trkpt>
      <trkpt lat="42.0027910" lon="-5.9246800">
        <ele>721.2</ele>
        <time>2019-08-15T16:07:17Z</time>
      </trkpt>
      <trkpt lat="42.0027790" lon="-5.9247710">
        <ele>721.1</ele>
        <time>2019-08-15T16:07:18Z</time>
      </trkpt>
      <trkpt lat="42.0027680" lon="-5.9248620">
        <ele>721.1</ele>
        <time>2019-08-15T16:07:19Z</time>
      </trkpt>
      <trkpt lat="42.0027570" lon="-5.9249510">
        <ele>721.0</ele>
        <time>2019-08-15T16:07:20Z</time>
      </trkpt>
      <trkpt lat="42.0027460" lon="-5.9250390">
        <ele>721.0</ele>
        <time>2019-08-15T16:07:21Z</time>
      </trkpt>
      <trkpt lat="42.0027350" lon="-5.9251260">
        <ele>720.9</ele>
        <time>2019-08-15T16:07:22Z</time>
      </trkpt>
      <trkpt lat="42.0027240" lon="-5.9252130">
        <ele>720.9</ele>
        <time>2019-08-15T16:07:23Z</time>
      </trkpt>
      <trkpt lat="42.0027130" lon="-5.9252990">
        <ele>720.9</ele>
        <time>2019-08-15T16:07:24Z</time>
      </trkpt>
      <trkpt lat="42.0027040" lon="-5.9253860">
        <ele>720.9</ele>
        <time>2019-08-15T16:07:25Z</time>
      </trkpt>
      <trkpt lat="42.0026950" lon="-5.9254720">
        <ele>720.9</ele>
        <time>2019-08-15T16:07:26Z</time>
      </trkpt>
      <trkpt lat="42.0026840" lon="-5.9255570">
        <ele>720.9</ele>
        <time>2019-08-15T16:07:27Z</time>
      </trkpt>
      <trkpt lat="42.0026730" lon="-5.9256400">
        <ele>720.9</ele>
        <time>2019-08-15T16:07:28Z</time>
      </trkpt>
      <trkpt lat="42.0026630" lon="-5.9257240">
        <ele>720.8</ele>
        <time>2019-08-15T16:07:29Z</time>
      </trkpt>
      <trkpt lat="42.0026540" lon="-5.9258090">
        <ele>720.8</ele>
        <time>2019-08-15T16:07:30Z</time>
      </trkpt>
      <trkpt lat="42.0026450" lon="-5.9258900">
        <ele>720.8</ele>
        <time>2019-08-15T16:07:31Z</time>
      </trkpt>
      <trkpt lat="42.0026350" lon="-5.9259710">
        <ele>720.8</ele>
        <time>2019-08-15T16:07:32Z</time>
      </trkpt>
      <trkpt lat="42.0026240" lon="-5.9260510">
        <ele>720.8</ele>
        <time>2019-08-15T16:07:33Z</time>
      </trkpt>
      <trkpt lat="42.0026130" lon="-5.9261300">
        <ele>720.8</ele>
        <time>2019-08-15T16:07:34Z</time>
      </trkpt>
      <trkpt lat="42.0026010" lon="-5.9262070">
        <ele>720.8</ele>
        <time>2019-08-15T16:07:35Z</time>
      </trkpt>
      <trkpt lat="42.0025920" lon="-5.9262840">
        <ele>720.8</ele>
        <time>2019-08-15T16:07:36Z</time>
      </trkpt>
      <trkpt lat="42.0025800" lon="-5.9263630">
        <ele>720.8</ele>
        <time>2019-08-15T16:07:37Z</time>
      </trkpt>
      <trkpt lat="42.0025680" lon="-5.9264420">
        <ele>720.8</ele>
        <time>2019-08-15T16:07:38Z</time>
      </trkpt>
      <trkpt lat="42.0025550" lon="-5.9265220">
        <ele>720.8</ele>
        <time>2019-08-15T16:07:39Z</time>
      </trkpt>
      <trkpt lat="42.0025440" lon="-5.9266000">
        <ele>720.7</ele>
        <time>2019-08-15T16:07:40Z</time>
      </trkpt>
      <trkpt lat="42.0025330" lon="-5.9266780">
        <ele>720.7</ele>
        <time>2019-08-15T16:07:41Z</time>
      </trkpt>
      <trkpt lat="42.0025230" lon="-5.9267570">
        <ele>720.7</ele>
        <time>2019-08-15T16:07:42Z</time>
      </trkpt>
      <trkpt lat="42.0025110" lon="-5.9268350">
        <ele>720.6</ele>
        <time>2019-08-15T16:07:43Z</time>
      </trkpt>
      <trkpt lat="42.0025000" lon="-5.9269120">
        <ele>720.6</ele>
        <time>2019-08-15T16:07:44Z</time>
      </trkpt>
      <trkpt lat="42.0024890" lon="-5.9269900">
        <ele>720.6</ele>
        <time>2019-08-15T16:07:45Z</time>
      </trkpt>
      <trkpt lat="42.0024760" lon="-5.9270670">
        <ele>720.6</ele>
        <time>2019-08-15T16:07:46Z</time>
      </trkpt>
      <trkpt lat="42.0024640" lon="-5.9271440">
        <ele>720.6</ele>
        <time>2019-08-15T16:07:47Z</time>
      </trkpt>
      <trkpt lat="42.0024540" lon="-5.9272240">
        <ele>720.6</ele>
        <time>2019-08-15T16:07:48Z</time>
      </trkpt>
      <trkpt lat="42.0024430" lon="-5.9273030">
        <ele>720.6</ele>
        <time>2019-08-15T16:07:49Z</time>
      </trkpt>
      <trkpt lat="42.0024320" lon="-5.9273810">
        <ele>720.6</ele>
        <time>2019-08-15T16:07:50Z</time>
      </trkpt>
      <trkpt lat="42.0024220" lon="-5.9274570">
        <ele>720.6</ele>
        <time>2019-08-15T16:07:51Z</time>
      </trkpt>
      <trkpt lat="42.0024130" lon="-5.9275290">
        <ele>720.6</ele>
        <time>2019-08-15T16:07:52Z</time>
      </trkpt>
      <trkpt lat="42.0024030" lon="-5.9275980">
        <ele>720.6</ele>
        <time>2019-08-15T16:07:53Z</time>
      </trkpt>
      <trkpt lat="42.0023950" lon="-5.9276680">
        <ele>720.6</ele>
        <time>2019-08-15T16:07:54Z</time>
      </trkpt>
      <trkpt lat="42.0023890" lon="-5.9277340">
        <ele>720.6</ele>
        <time>2019-08-15T16:07:55Z</time>
      </trkpt>
      <trkpt lat="42.0023800" lon="-5.9277990">
        <ele>720.6</ele>
        <time>2019-08-15T16:07:56Z</time>
      </trkpt>
      <trkpt lat="42.0023710" lon="-5.9278630">
        <ele>720.6</ele>
        <time>2019-08-15T16:07:57Z</time>
      </trkpt>
      <trkpt lat="42.0023640" lon="-5.9279250">
        <ele>720.6</ele>
        <time>2019-08-15T16:07:58Z</time>
      </trkpt>
      <trkpt lat="42.0023560" lon="-5.9279870">
        <ele>720.6</ele>
        <time>2019-08-15T16:07:59Z</time>
      </trkpt>
      <trkpt lat="42.0023490" lon="-5.9280490">
        <ele>720.6</ele>
        <time>2019-08-15T16:08:00Z</time>
      </trkpt>
      <trkpt lat="42.0023410" lon="-5.9281110">
        <ele>720.6</ele>
        <time>2019-08-15T16:08:01Z</time>
      </trkpt>
      <trkpt lat="42.0023330" lon="-5.9281740">
        <ele>720.6</ele>
        <time>2019-08-15T16:08:02Z</time>
      </trkpt>
      <trkpt lat="42.0023250" lon="-5.9282370">
        <ele>720.7</ele>
        <time>2019-08-15T16:08:03Z</time>
      </trkpt>
      <trkpt lat="42.0023170" lon="-5.9282990">
        <ele>720.7</ele>
        <time>2019-08-15T16:08:04Z</time>
      </trkpt>
      <trkpt lat="42.0023080" lon="-5.9283630">
        <ele>720.7</ele>
        <time>2019-08-15T16:08:05Z</time>
      </trkpt>
      <trkpt lat="42.0023000" lon="-5.9284270">
        <ele>720.7</ele>
        <time>2019-08-15T16:08:06Z</time>
      </trkpt>
      <trkpt lat="42.0022920" lon="-5.9284930">
        <ele>720.8</ele>
        <time>2019-08-15T16:08:07Z</time>
      </trkpt>
      <trkpt lat="42.0022840" lon="-5.9285580">
        <ele>720.8</ele>
        <time>2019-08-15T16:08:08Z</time>
      </trkpt>
      <trkpt lat="42.0022750" lon="-5.9286240">
        <ele>720.8</ele>
        <time>2019-08-15T16:08:09Z</time>
      </trkpt>
      <trkpt lat="42.0022660" lon="-5.9286890">
        <ele>720.9</ele>
        <time>2019-08-15T16:08:10Z</time>
      </trkpt>
      <trkpt lat="42.0022550" lon="-5.9287550">
        <ele>720.9</ele>
        <time>2019-08-15T16:08:11Z</time>
      </trkpt>
      <trkpt lat="42.0022440" lon="-5.9288210">
        <ele>720.9</ele>
        <time>2019-08-15T16:08:12Z</time>
      </trkpt>
      <trkpt lat="42.0022320" lon="-5.9288850">
        <ele>720.9</ele>
        <time>2019-08-15T16:08:13Z</time>
      </trkpt>
      <trkpt lat="42.0022220" lon="-5.9289500">
        <ele>720.9</ele>
        <time>2019-08-15T16:08:14Z</time>
      </trkpt>
      <trkpt lat="42.0022130" lon="-5.9290160">
        <ele>720.9</ele>
        <time>2019-08-15T16:08:15Z</time>
      </trkpt>
      <trkpt lat="42.0022040" lon="-5.9290820">
        <ele>720.9</ele>
        <time>2019-08-15T16:08:16Z</time>
      </trkpt>
      <trkpt lat="42.0021940" lon="-5.9291460">
        <ele>720.9</ele>
        <time>2019-08-15T16:08:17Z</time>
      </trkpt>
      <trkpt lat="42.0021860" lon="-5.9292110">
        <ele>720.9</ele>
        <time>2019-08-15T16:08:18Z</time>
      </trkpt>
      <trkpt lat="42.0021780" lon="-5.9292730">
        <ele>720.9</ele>
        <time>2019-08-15T16:08:19Z</time>
      </trkpt>
      <trkpt lat="42.0021720" lon="-5.9293340">
        <ele>720.9</ele>
        <time>2019-08-15T16:08:20Z</time>
      </trkpt>
      <trkpt lat="42.0021640" lon="-5.9293940">
        <ele>720.9</ele>
        <time>2019-08-15T16:08:21Z</time>
      </trkpt>
      <trkpt lat="42.0021570" lon="-5.9294510">
        <ele>720.9</ele>
        <time>2019-08-15T16:08:22Z</time>
      </trkpt>
      <trkpt lat="42.0021510" lon="-5.9295050">
        <ele>720.9</ele>
        <time>2019-08-15T16:08:23Z</time>
      </trkpt>
      <trkpt lat="42.0021460" lon="-5.9295600">
        <ele>720.9</ele>
        <time>2019-08-15T16:08:24Z</time>
      </trkpt>
      <trkpt lat="42.0021420" lon="-5.9296140">
        <ele>720.9</ele>
        <time>2019-08-15T16:08:25Z</time>
      </trkpt>
      <trkpt lat="42.0021350" lon="-5.9296660">
        <ele>720.9</ele>
        <time>2019-08-15T16:08:26Z</time>
      </trkpt>
      <trkpt lat="42.0021260" lon="-5.9297190">
        <ele>720.9</ele>
        <time>2019-08-15T16:08:27Z</time>
      </trkpt>
      <trkpt lat="42.0021180" lon="-5.9297750">
        <ele>720.9</ele>
        <time>2019-08-15T16:08:28Z</time>
      </trkpt>
      <trkpt lat="42.0021100" lon="-5.9298310">
        <ele>720.9</ele>
        <time>2019-08-15T16:08:29Z</time>
      </trkpt>
      <trkpt lat="42.0021020" lon="-5.9298880">
        <ele>720.9</ele>
        <time>2019-08-15T16:08:30Z</time>
      </trkpt>
      <trkpt lat="42.0020940" lon="-5.9299480">
        <ele>720.9</ele>
        <time>2019-08-15T16:08:31Z</time>
      </trkpt>
      <trkpt lat="42.0020860" lon="-5.9300070">
        <ele>720.9</ele>
        <time>2019-08-15T16:08:32Z</time>
      </trkpt>
      <trkpt lat="42.0020780" lon="-5.9300690">
        <ele>720.9</ele>
        <time>2019-08-15T16:08:33Z</time>
      </trkpt>
      <trkpt lat="42.0020710" lon="-5.9301310">
        <ele>721.0</ele>
        <time>2019-08-15T16:08:34Z</time>
      </trkpt>
      <trkpt lat="42.0020640" lon="-5.9301940">
        <ele>721.0</ele>
        <time>2019-08-15T16:08:35Z</time>
      </trkpt>
      <trkpt lat="42.0020560" lon="-5.9302580">
        <ele>721.0</ele>
        <time>2019-08-15T16:08:36Z</time>
      </trkpt>
      <trkpt lat="42.0020480" lon="-5.9303220">
        <ele>721.0</ele>
        <time>2019-08-15T16:08:37Z</time>
      </trkpt>
      <trkpt lat="42.0020400" lon="-5.9303870">
        <ele>721.0</ele>
        <time>2019-08-15T16:08:38Z</time>
      </trkpt>
      <trkpt lat="42.0020320" lon="-5.9304540">
        <ele>721.0</ele>
        <time>2019-08-15T16:08:39Z</time>
      </trkpt>
      <trkpt lat="42.0020240" lon="-5.9305200">
        <ele>721.1</ele>
        <time>2019-08-15T16:08:40Z</time>
      </trkpt>
      <trkpt lat="42.0020160" lon="-5.9305870">
        <ele>721.1</ele>
        <time>2019-08-15T16:08:41Z</time>
      </trkpt>
      <trkpt lat="42.0020080" lon="-5.9306550">
        <ele>721.1</ele>
        <time>2019-08-15T16:08:42Z</time>
      </trkpt>
      <trkpt lat="42.0020000" lon="-5.9307230">
        <ele>721.0</ele>
        <time>2019-08-15T16:08:43Z</time>
      </trkpt>
      <trkpt lat="42.0019920" lon="-5.9307910">
        <ele>721.0</ele>
        <time>2019-08-15T16:08:44Z</time>
      </trkpt>
      <trkpt lat="42.0019820" lon="-5.9308610">
        <ele>721.0</ele>
        <time>2019-08-15T16:08:45Z</time>
      </trkpt>
      <trkpt lat="42.0019720" lon="-5.9309280">
        <ele>721.0</ele>
        <time>2019-08-15T16:08:46Z</time>
      </trkpt>
      <trkpt lat="42.0019640" lon="-5.9309950">
        <ele>720.9</ele>
        <time>2019-08-15T16:08:47Z</time>
      </trkpt>
      <trkpt lat="42.0019570" lon="-5.9310610">
        <ele>720.9</ele>
        <time>2019-08-15T16:08:48Z</time>
      </trkpt>
      <trkpt lat="42.0019470" lon="-5.9311240">
        <ele>720.9</ele>
        <time>2019-08-15T16:08:49Z</time>
      </trkpt>
      <trkpt lat="42.0019380" lon="-5.9311850">
        <ele>720.9</ele>
        <time>2019-08-15T16:08:50Z</time>
      </trkpt>
      <trkpt lat="42.0019310" lon="-5.9312450">
        <ele>720.9</ele>
        <time>2019-08-15T16:08:51Z</time>
      </trkpt>
      <trkpt lat="42.0019260" lon="-5.9313050">
        <ele>720.9</ele>
        <time>2019-08-15T16:08:52Z</time>
      </trkpt>
      <trkpt lat="42.0019200" lon="-5.9313630">
        <ele>720.9</ele>
        <time>2019-08-15T16:08:53Z</time>
      </trkpt>
      <trkpt lat="42.0019130" lon="-5.9314250">
        <ele>720.9</ele>
        <time>2019-08-15T16:08:54Z</time>
      </trkpt>
      <trkpt lat="42.0019050" lon="-5.9314860">
        <ele>720.9</ele>
        <time>2019-08-15T16:08:55Z</time>
      </trkpt>
      <trkpt lat="42.0018960" lon="-5.9315480">
        <ele>720.9</ele>
        <time>2019-08-15T16:08:56Z</time>
      </trkpt>
      <trkpt lat="42.0018880" lon="-5.9316110">
        <ele>720.9</ele>
        <time>2019-08-15T16:08:57Z</time>
      </trkpt>
      <trkpt lat="42.0018800" lon="-5.9316740">
        <ele>720.9</ele>
        <time>2019-08-15T16:08:58Z</time>
      </trkpt>
      <trkpt lat="42.0018720" lon="-5.9317390">
        <ele>720.9</ele>
        <time>2019-08-15T16:08:59Z</time>
      </trkpt>
      <trkpt lat="42.0018630" lon="-5.9318050">
        <ele>720.9</ele>
        <time>2019-08-15T16:09:00Z</time>
      </trkpt>
      <trkpt lat="42.0018540" lon="-5.9318710">
        <ele>720.9</ele>
        <time>2019-08-15T16:09:01Z</time>
      </trkpt>
      <trkpt lat="42.0018490" lon="-5.9319380">
        <ele>720.9</ele>
        <time>2019-08-15T16:09:02Z</time>
      </trkpt>
      <trkpt lat="42.0018410" lon="-5.9320060">
        <ele>720.9</ele>
        <time>2019-08-15T16:09:03Z</time>
      </trkpt>
      <trkpt lat="42.0018340" lon="-5.9320750">
        <ele>720.9</ele>
        <time>2019-08-15T16:09:04Z</time>
      </trkpt>
      <trkpt lat="42.0018240" lon="-5.9321420">
        <ele>720.9</ele>
        <time>2019-08-15T16:09:05Z</time>
      </trkpt>
      <trkpt lat="42.0018160" lon="-5.9322100">
        <ele>720.9</ele>
        <time>2019-08-15T16:09:06Z</time>
      </trkpt>
      <trkpt lat="42.0018060" lon="-5.9322780">
        <ele>720.9</ele>
        <time>2019-08-15T16:09:07Z</time>
      </trkpt>
      <trkpt lat="42.0017960" lon="-5.9323440">
        <ele>720.9</ele>
        <time>2019-08-15T16:09:08Z</time>
      </trkpt>
      <trkpt lat="42.0017870" lon="-5.9324100">
        <ele>720.9</ele>
        <time>2019-08-15T16:09:09Z</time>
      </trkpt>
      <trkpt lat="42.0017790" lon="-5.9324730">
        <ele>720.9</ele>
        <time>2019-08-15T16:09:10Z</time>
      </trkpt>
      <trkpt lat="42.0017710" lon="-5.9325350">
        <ele>720.9</ele>
        <time>2019-08-15T16:09:11Z</time>
      </trkpt>
      <trkpt lat="42.0017640" lon="-5.9325960">
        <ele>720.9</ele>
        <time>2019-08-15T16:09:12Z</time>
      </trkpt>
      <trkpt lat="42.0017560" lon="-5.9326560">
        <ele>720.9</ele>
        <time>2019-08-15T16:09:13Z</time>
      </trkpt>
      <trkpt lat="42.0017480" lon="-5.9327150">
        <ele>720.9</ele>
        <time>2019-08-15T16:09:14Z</time>
      </trkpt>
      <trkpt lat="42.0017410" lon="-5.9327770">
        <ele>720.9</ele>
        <time>2019-08-15T16:09:15Z</time>
      </trkpt>
      <trkpt lat="42.0017330" lon="-5.9328400">
        <ele>720.9</ele>
        <time>2019-08-15T16:09:16Z</time>
      </trkpt>
      <trkpt lat="42.0017250" lon="-5.9329040">
        <ele>721.0</ele>
        <time>2019-08-15T16:09:17Z</time>
      </trkpt>
      <trkpt lat="42.0017170" lon="-5.9329680">
        <ele>721.0</ele>
        <time>2019-08-15T16:09:18Z</time>
      </trkpt>
      <trkpt lat="42.0017090" lon="-5.9330330">
        <ele>721.0</ele>
        <time>2019-08-15T16:09:19Z</time>
      </trkpt>
      <trkpt lat="42.0017020" lon="-5.9330980">
        <ele>721.0</ele>
        <time>2019-08-15T16:09:20Z</time>
      </trkpt>
      <trkpt lat="42.0016950" lon="-5.9331600">
        <ele>721.0</ele>
        <time>2019-08-15T16:09:21Z</time>
      </trkpt>
      <trkpt lat="42.0016860" lon="-5.9332220">
        <ele>721.0</ele>
        <time>2019-08-15T16:09:22Z</time>
      </trkpt>
      <trkpt lat="42.0016780" lon="-5.9332850">
        <ele>721.0</ele>
        <time>2019-08-15T16:09:23Z</time>
      </trkpt>
      <trkpt lat="42.0016710" lon="-5.9333450">
        <ele>721.0</ele>
        <time>2019-08-15T16:09:24Z</time>
      </trkpt>
      <trkpt lat="42.0016630" lon="-5.9334030">
        <ele>721.0</ele>
        <time>2019-08-15T16:09:25Z</time>
      </trkpt>
      <trkpt lat="42.0016550" lon="-5.9334640">
        <ele>721.0</ele>
        <time>2019-08-15T16:09:26Z</time>
      </trkpt>
      <trkpt lat="42.0016470" lon="-5.9335250">
        <ele>721.0</ele>
        <time>2019-08-15T16:09:27Z</time>
      </trkpt>
      <trkpt lat="42.0016390" lon="-5.9335880">
        <ele>721.0</ele>
        <time>2019-08-15T16:09:28Z</time>
      </trkpt>
      <trkpt lat="42.0016320" lon="-5.9336520">
        <ele>721.0</ele>
        <time>2019-08-15T16:09:29Z</time>
      </trkpt>
      <trkpt lat="42.0016230" lon="-5.9337200">
        <ele>721.0</ele>
        <time>2019-08-15T16:09:30Z</time>
      </trkpt>
      <trkpt lat="42.0016160" lon="-5.9337870">
        <ele>721.0</ele>
        <time>2019-08-15T16:09:31Z</time>
      </trkpt>
      <trkpt lat="42.0016070" lon="-5.9338540">
        <ele>721.0</ele>
        <time>2019-08-15T16:09:32Z</time>
      </trkpt>
      <trkpt lat="42.0015980" lon="-5.9339220">
        <ele>721.0</ele>
        <time>2019-08-15T16:09:33Z</time>
      </trkpt>
      <trkpt lat="42.0015880" lon="-5.9339900">
        <ele>721.0</ele>
        <time>2019-08-15T16:09:34Z</time>
      </trkpt>
      <trkpt lat="42.0015800" lon="-5.9340600">
        <ele>721.0</ele>
        <time>2019-08-15T16:09:35Z</time>
      </trkpt>
      <trkpt lat="42.0015720" lon="-5.9341280">
        <ele>721.0</ele>
        <time>2019-08-15T16:09:36Z</time>
      </trkpt>
      <trkpt lat="42.0015640" lon="-5.9341970">
        <ele>721.0</ele>
        <time>2019-08-15T16:09:37Z</time>
      </trkpt>
      <trkpt lat="42.0015540" lon="-5.9342670">
        <ele>721.0</ele>
        <time>2019-08-15T16:09:38Z</time>
      </trkpt>
      <trkpt lat="42.0015440" lon="-5.9343380">
        <ele>721.0</ele>
        <time>2019-08-15T16:09:39Z</time>
      </trkpt>
      <trkpt lat="42.0015350" lon="-5.9344090">
        <ele>721.0</ele>
        <time>2019-08-15T16:09:40Z</time>
      </trkpt>
      <trkpt lat="42.0015260" lon="-5.9344790">
        <ele>721.0</ele>
        <time>2019-08-15T16:09:41Z</time>
      </trkpt>
      <trkpt lat="42.0015180" lon="-5.9345510">
        <ele>721.0</ele>
        <time>2019-08-15T16:09:42Z</time>
      </trkpt>
      <trkpt lat="42.0015100" lon="-5.9346200">
        <ele>721.0</ele>
        <time>2019-08-15T16:09:43Z</time>
      </trkpt>
      <trkpt lat="42.0015000" lon="-5.9346890">
        <ele>721.0</ele>
        <time>2019-08-15T16:09:44Z</time>
      </trkpt>
      <trkpt lat="42.0014910" lon="-5.9347590">
        <ele>721.0</ele>
        <time>2019-08-15T16:09:45Z</time>
      </trkpt>
      <trkpt lat="42.0014830" lon="-5.9348300">
        <ele>721.0</ele>
        <time>2019-08-15T16:09:46Z</time>
      </trkpt>
      <trkpt lat="42.0014740" lon="-5.9349010">
        <ele>720.9</ele>
        <time>2019-08-15T16:09:47Z</time>
      </trkpt>
      <trkpt lat="42.0014640" lon="-5.9349730">
        <ele>720.9</ele>
        <time>2019-08-15T16:09:48Z</time>
      </trkpt>
      <trkpt lat="42.0014540" lon="-5.9350430">
        <ele>720.9</ele>
        <time>2019-08-15T16:09:49Z</time>
      </trkpt>
      <trkpt lat="42.0014430" lon="-5.9351140">
        <ele>720.9</ele>
        <time>2019-08-15T16:09:50Z</time>
      </trkpt>
      <trkpt lat="42.0014340" lon="-5.9351860">
        <ele>720.9</ele>
        <time>2019-08-15T16:09:51Z</time>
      </trkpt>
      <trkpt lat="42.0014240" lon="-5.9352560">
        <ele>720.9</ele>
        <time>2019-08-15T16:09:52Z</time>
      </trkpt>
      <trkpt lat="42.0014160" lon="-5.9353250">
        <ele>720.9</ele>
        <time>2019-08-15T16:09:53Z</time>
      </trkpt>
      <trkpt lat="42.0014080" lon="-5.9353940">
        <ele>721.0</ele>
        <time>2019-08-15T16:09:54Z</time>
      </trkpt>
      <trkpt lat="42.0013990" lon="-5.9354670">
        <ele>721.0</ele>
        <time>2019-08-15T16:09:55Z</time>
      </trkpt>
      <trkpt lat="42.0013890" lon="-5.9355410">
        <ele>721.0</ele>
        <time>2019-08-15T16:09:56Z</time>
      </trkpt>
      <trkpt lat="42.0013810" lon="-5.9356150">
        <ele>721.0</ele>
        <time>2019-08-15T16:09:57Z</time>
      </trkpt>
      <trkpt lat="42.0013710" lon="-5.9356890">
        <ele>721.1</ele>
        <time>2019-08-15T16:09:58Z</time>
      </trkpt>
      <trkpt lat="42.0013630" lon="-5.9357630">
        <ele>721.1</ele>
        <time>2019-08-15T16:09:59Z</time>
      </trkpt>
      <trkpt lat="42.0013550" lon="-5.9358340">
        <ele>721.1</ele>
        <time>2019-08-15T16:10:00Z</time>
      </trkpt>
      <trkpt lat="42.0013460" lon="-5.9359040">
        <ele>721.2</ele>
        <time>2019-08-15T16:10:01Z</time>
      </trkpt>
      <trkpt lat="42.0013380" lon="-5.9359730">
        <ele>721.2</ele>
        <time>2019-08-15T16:10:02Z</time>
      </trkpt>
      <trkpt lat="42.0013290" lon="-5.9360420">
        <ele>721.2</ele>
        <time>2019-08-15T16:10:03Z</time>
      </trkpt>
      <trkpt lat="42.0013190" lon="-5.9361120">
        <ele>721.3</ele>
        <time>2019-08-15T16:10:04Z</time>
      </trkpt>
      <trkpt lat="42.0013100" lon="-5.9361850">
        <ele>721.3</ele>
        <time>2019-08-15T16:10:05Z</time>
      </trkpt>
      <trkpt lat="42.0013000" lon="-5.9362570">
        <ele>721.3</ele>
        <time>2019-08-15T16:10:06Z</time>
      </trkpt>
      <trkpt lat="42.0012910" lon="-5.9363300">
        <ele>721.3</ele>
        <time>2019-08-15T16:10:07Z</time>
      </trkpt>
      <trkpt lat="42.0012830" lon="-5.9364010">
        <ele>721.3</ele>
        <time>2019-08-15T16:10:08Z</time>
      </trkpt>
      <trkpt lat="42.0012750" lon="-5.9364710">
        <ele>721.3</ele>
        <time>2019-08-15T16:10:09Z</time>
      </trkpt>
      <trkpt lat="42.0012660" lon="-5.9365400">
        <ele>721.3</ele>
        <time>2019-08-15T16:10:10Z</time>
      </trkpt>
      <trkpt lat="42.0012580" lon="-5.9366090">
        <ele>721.3</ele>
        <time>2019-08-15T16:10:11Z</time>
      </trkpt>
      <trkpt lat="42.0012480" lon="-5.9366780">
        <ele>721.3</ele>
        <time>2019-08-15T16:10:12Z</time>
      </trkpt>
      <trkpt lat="42.0012390" lon="-5.9367500">
        <ele>721.3</ele>
        <time>2019-08-15T16:10:13Z</time>
      </trkpt>
      <trkpt lat="42.0012300" lon="-5.9368220">
        <ele>721.3</ele>
        <time>2019-08-15T16:10:14Z</time>
      </trkpt>
      <trkpt lat="42.0012210" lon="-5.9368930">
        <ele>721.3</ele>
        <time>2019-08-15T16:10:15Z</time>
      </trkpt>
      <trkpt lat="42.0012140" lon="-5.9369670">
        <ele>721.3</ele>
        <time>2019-08-15T16:10:16Z</time>
      </trkpt>
      <trkpt lat="42.0012060" lon="-5.9370400">
        <ele>721.3</ele>
        <time>2019-08-15T16:10:17Z</time>
      </trkpt>
      <trkpt lat="42.0011970" lon="-5.9371130">
        <ele>721.3</ele>
        <time>2019-08-15T16:10:18Z</time>
      </trkpt>
      <trkpt lat="42.0011870" lon="-5.9371860">
        <ele>721.3</ele>
        <time>2019-08-15T16:10:19Z</time>
      </trkpt>
      <trkpt lat="42.0011770" lon="-5.9372580">
        <ele>721.3</ele>
        <time>2019-08-15T16:10:20Z</time>
      </trkpt>
      <trkpt lat="42.0011680" lon="-5.9373310">
        <ele>721.3</ele>
        <time>2019-08-15T16:10:21Z</time>
      </trkpt>
      <trkpt lat="42.0011590" lon="-5.9374060">
        <ele>721.3</ele>
        <time>2019-08-15T16:10:22Z</time>
      </trkpt>
      <trkpt lat="42.0011490" lon="-5.9374800">
        <ele>721.3</ele>
        <time>2019-08-15T16:10:23Z</time>
      </trkpt>
      <trkpt lat="42.0011400" lon="-5.9375550">
        <ele>721.3</ele>
        <time>2019-08-15T16:10:24Z</time>
      </trkpt>
      <trkpt lat="42.0011320" lon="-5.9376290">
        <ele>721.3</ele>
        <time>2019-08-15T16:10:25Z</time>
      </trkpt>
      <trkpt lat="42.0011230" lon="-5.9377020">
        <ele>721.3</ele>
        <time>2019-08-15T16:10:26Z</time>
      </trkpt>
      <trkpt lat="42.0011150" lon="-5.9377720">
        <ele>721.3</ele>
        <time>2019-08-15T16:10:27Z</time>
      </trkpt>
      <trkpt lat="42.0011060" lon="-5.9378400">
        <ele>721.3</ele>
        <time>2019-08-15T16:10:28Z</time>
      </trkpt>
      <trkpt lat="42.0010960" lon="-5.9379100">
        <ele>721.3</ele>
        <time>2019-08-15T16:10:29Z</time>
      </trkpt>
      <trkpt lat="42.0010870" lon="-5.9379790">
        <ele>721.3</ele>
        <time>2019-08-15T16:10:30Z</time>
      </trkpt>
      <trkpt lat="42.0010780" lon="-5.9380490">
        <ele>721.3</ele>
        <time>2019-08-15T16:10:31Z</time>
      </trkpt>
      <trkpt lat="42.0010690" lon="-5.9381190">
        <ele>721.3</ele>
        <time>2019-08-15T16:10:32Z</time>
      </trkpt>
      <trkpt lat="42.0010600" lon="-5.9381880">
        <ele>721.3</ele>
        <time>2019-08-15T16:10:33Z</time>
      </trkpt>
      <trkpt lat="42.0010510" lon="-5.9382570">
        <ele>721.3</ele>
        <time>2019-08-15T16:10:34Z</time>
      </trkpt>
      <trkpt lat="42.0010430" lon="-5.9383270">
        <ele>721.4</ele>
        <time>2019-08-15T16:10:35Z</time>
      </trkpt>
      <trkpt lat="42.0010330" lon="-5.9383960">
        <ele>721.4</ele>
        <time>2019-08-15T16:10:36Z</time>
      </trkpt>
      <trkpt lat="42.0010250" lon="-5.9384630">
        <ele>721.5</ele>
        <time>2019-08-15T16:10:37Z</time>
      </trkpt>
      <trkpt lat="42.0010170" lon="-5.9385320">
        <ele>721.5</ele>
        <time>2019-08-15T16:10:38Z</time>
      </trkpt>
      <trkpt lat="42.0010100" lon="-5.9386020">
        <ele>721.6</ele>
        <time>2019-08-15T16:10:39Z</time>
      </trkpt>
      <trkpt lat="42.0010030" lon="-5.9386710">
        <ele>721.7</ele>
        <time>2019-08-15T16:10:40Z</time>
      </trkpt>
      <trkpt lat="42.0009950" lon="-5.9387400">
        <ele>721.8</ele>
        <time>2019-08-15T16:10:41Z</time>
      </trkpt>
      <trkpt lat="42.0009840" lon="-5.9388070">
        <ele>721.9</ele>
        <time>2019-08-15T16:10:42Z</time>
      </trkpt>
      <trkpt lat="42.0009760" lon="-5.9388700">
        <ele>722.0</ele>
        <time>2019-08-15T16:10:43Z</time>
      </trkpt>
      <trkpt lat="42.0009670" lon="-5.9389300">
        <ele>722.1</ele>
        <time>2019-08-15T16:10:44Z</time>
      </trkpt>
      <trkpt lat="42.0009590" lon="-5.9389900">
        <ele>722.3</ele>
        <time>2019-08-15T16:10:45Z</time>
      </trkpt>
      <trkpt lat="42.0009520" lon="-5.9390520">
        <ele>722.4</ele>
        <time>2019-08-15T16:10:46Z</time>
      </trkpt>
      <trkpt lat="42.0009440" lon="-5.9391160">
        <ele>722.5</ele>
        <time>2019-08-15T16:10:47Z</time>
      </trkpt>
      <trkpt lat="42.0009360" lon="-5.9391810">
        <ele>722.6</ele>
        <time>2019-08-15T16:10:48Z</time>
      </trkpt>
      <trkpt lat="42.0009290" lon="-5.9392440">
        <ele>722.7</ele>
        <time>2019-08-15T16:10:49Z</time>
      </trkpt>
      <trkpt lat="42.0009210" lon="-5.9393060">
        <ele>722.8</ele>
        <time>2019-08-15T16:10:50Z</time>
      </trkpt>
      <trkpt lat="42.0009120" lon="-5.9393690">
        <ele>722.9</ele>
        <time>2019-08-15T16:10:51Z</time>
      </trkpt>
      <trkpt lat="42.0009040" lon="-5.9394310">
        <ele>722.9</ele>
        <time>2019-08-15T16:10:52Z</time>
      </trkpt>
      <trkpt lat="42.0008960" lon="-5.9394920">
        <ele>723.0</ele>
        <time>2019-08-15T16:10:53Z</time>
      </trkpt>
      <trkpt lat="42.0008890" lon="-5.9395530">
        <ele>723.0</ele>
        <time>2019-08-15T16:10:54Z</time>
      </trkpt>
      <trkpt lat="42.0008810" lon="-5.9396140">
        <ele>723.1</ele>
        <time>2019-08-15T16:10:55Z</time>
      </trkpt>
      <trkpt lat="42.0008730" lon="-5.9396740">
        <ele>723.2</ele>
        <time>2019-08-15T16:10:56Z</time>
      </trkpt>
      <trkpt lat="42.0008660" lon="-5.9397330">
        <ele>723.2</ele>
        <time>2019-08-15T16:10:57Z</time>
      </trkpt>
      <trkpt lat="42.0008580" lon="-5.9397910">
        <ele>723.3</ele>
        <time>2019-08-15T16:10:58Z</time>
      </trkpt>
      <trkpt lat="42.0008530" lon="-5.9398480">
        <ele>723.3</ele>
        <time>2019-08-15T16:10:59Z</time>
      </trkpt>
      <trkpt lat="42.0008460" lon="-5.9399050">
        <ele>723.3</ele>
        <time>2019-08-15T16:11:00Z</time>
      </trkpt>
      <trkpt lat="42.0008380" lon="-5.9399640">
        <ele>723.4</ele>
        <time>2019-08-15T16:11:01Z</time>
      </trkpt>
      <trkpt lat="42.0008300" lon="-5.9400240">
        <ele>723.4</ele>
        <time>2019-08-15T16:11:02Z</time>
      </trkpt>
      <trkpt lat="42.0008220" lon="-5.9400820">
        <ele>723.5</ele>
        <time>2019-08-15T16:11:03Z</time>
      </trkpt>
      <trkpt lat="42.0008140" lon="-5.9401410">
        <ele>723.5</ele>
        <time>2019-08-15T16:11:04Z</time>
      </trkpt>
      <trkpt lat="42.0008070" lon="-5.9401990">
        <ele>723.5</ele>
        <time>2019-08-15T16:11:05Z</time>
      </trkpt>
      <trkpt lat="42.0008000" lon="-5.9402570">
        <ele>723.6</ele>
        <time>2019-08-15T16:11:06Z</time>
      </trkpt>
      <trkpt lat="42.0007920" lon="-5.9403150">
        <ele>723.6</ele>
        <time>2019-08-15T16:11:07Z</time>
      </trkpt>
      <trkpt lat="42.0007830" lon="-5.9403730">
        <ele>723.6</ele>
        <time>2019-08-15T16:11:08Z</time>
      </trkpt>
      <trkpt lat="42.0007740" lon="-5.9404300">
        <ele>723.7</ele>
        <time>2019-08-15T16:11:09Z</time>
      </trkpt>
      <trkpt lat="42.0007660" lon="-5.9404860">
        <ele>723.7</ele>
        <time>2019-08-15T16:11:10Z</time>
      </trkpt>
      <trkpt lat="42.0007580" lon="-5.9405430">
        <ele>723.7</ele>
        <time>2019-08-15T16:11:11Z</time>
      </trkpt>
      <trkpt lat="42.0007510" lon="-5.9405990">
        <ele>723.8</ele>
        <time>2019-08-15T16:11:12Z</time>
      </trkpt>
      <trkpt lat="42.0007440" lon="-5.9406570">
        <ele>723.8</ele>
        <time>2019-08-15T16:11:13Z</time>
      </trkpt>
      <trkpt lat="42.0007390" lon="-5.9407130">
        <ele>723.8</ele>
        <time>2019-08-15T16:11:14Z</time>
      </trkpt>
      <trkpt lat="42.0007330" lon="-5.9407690">
        <ele>723.9</ele>
        <time>2019-08-15T16:11:15Z</time>
      </trkpt>
      <trkpt lat="42.0007270" lon="-5.9408240">
        <ele>723.9</ele>
        <time>2019-08-15T16:11:16Z</time>
      </trkpt>
      <trkpt lat="42.0007210" lon="-5.9408790">
        <ele>724.0</ele>
        <time>2019-08-15T16:11:17Z</time>
      </trkpt>
      <trkpt lat="42.0007140" lon="-5.9409340">
        <ele>724.0</ele>
        <time>2019-08-15T16:11:18Z</time>
      </trkpt>
      <trkpt lat="42.0007080" lon="-5.9409880">
        <ele>724.1</ele>
        <time>2019-08-15T16:11:19Z</time>
      </trkpt>
      <trkpt lat="42.0007010" lon="-5.9410430">
        <ele>724.2</ele>
        <time>2019-08-15T16:11:20Z</time>
      </trkpt>
      <trkpt lat="42.0006940" lon="-5.9410990">
        <ele>724.2</ele>
        <time>2019-08-15T16:11:21Z</time>
      </trkpt>
      <trkpt lat="42.0006870" lon="-5.9411540">
        <ele>724.3</ele>
        <time>2019-08-15T16:11:22Z</time>
      </trkpt>
      <trkpt lat="42.0006820" lon="-5.9412100">
        <ele>724.4</ele>
        <time>2019-08-15T16:11:23Z</time>
      </trkpt>
      <trkpt lat="42.0006760" lon="-5.9412640">
        <ele>724.5</ele>
        <time>2019-08-15T16:11:24Z</time>
      </trkpt>
      <trkpt lat="42.0006700" lon="-5.9413200">
        <ele>724.6</ele>
        <time>2019-08-15T16:11:25Z</time>
      </trkpt>
      <trkpt lat="42.0006630" lon="-5.9413750">
        <ele>724.7</ele>
        <time>2019-08-15T16:11:26Z</time>
      </trkpt>
      <trkpt lat="42.0006550" lon="-5.9414300">
        <ele>724.9</ele>
        <time>2019-08-15T16:11:27Z</time>
      </trkpt>
      <trkpt lat="42.0006470" lon="-5.9414870">
        <ele>725.0</ele>
        <time>2019-08-15T16:11:28Z</time>
      </trkpt>
      <trkpt lat="42.0006410" lon="-5.9415440">
        <ele>725.1</ele>
        <time>2019-08-15T16:11:29Z</time>
      </trkpt>
      <trkpt lat="42.0006340" lon="-5.9416010">
        <ele>725.2</ele>
        <time>2019-08-15T16:11:30Z</time>
      </trkpt>
      <trkpt lat="42.0006270" lon="-5.9416590">
        <ele>725.3</ele>
        <time>2019-08-15T16:11:31Z</time>
      </trkpt>
      <trkpt lat="42.0006210" lon="-5.9417180">
        <ele>725.4</ele>
        <time>2019-08-15T16:11:32Z</time>
      </trkpt>
      <trkpt lat="42.0006140" lon="-5.9417750">
        <ele>725.5</ele>
        <time>2019-08-15T16:11:33Z</time>
      </trkpt>
      <trkpt lat="42.0006060" lon="-5.9418320">
        <ele>725.6</ele>
        <time>2019-08-15T16:11:34Z</time>
      </trkpt>
      <trkpt lat="42.0005980" lon="-5.9418890">
        <ele>725.7</ele>
        <time>2019-08-15T16:11:35Z</time>
      </trkpt>
      <trkpt lat="42.0005880" lon="-5.9419470">
        <ele>725.7</ele>
        <time>2019-08-15T16:11:36Z</time>
      </trkpt>
      <trkpt lat="42.0005800" lon="-5.9420060">
        <ele>725.8</ele>
        <time>2019-08-15T16:11:37Z</time>
      </trkpt>
      <trkpt lat="42.0005740" lon="-5.9420660">
        <ele>725.8</ele>
        <time>2019-08-15T16:11:38Z</time>
      </trkpt>
      <trkpt lat="42.0005660" lon="-5.9421260">
        <ele>725.8</ele>
        <time>2019-08-15T16:11:39Z</time>
      </trkpt>
      <trkpt lat="42.0005590" lon="-5.9421840">
        <ele>725.9</ele>
        <time>2019-08-15T16:11:40Z</time>
      </trkpt>
      <trkpt lat="42.0005510" lon="-5.9422430">
        <ele>725.9</ele>
        <time>2019-08-15T16:11:41Z</time>
      </trkpt>
      <trkpt lat="42.0005430" lon="-5.9423030">
        <ele>725.9</ele>
        <time>2019-08-15T16:11:42Z</time>
      </trkpt>
      <trkpt lat="42.0005360" lon="-5.9423600">
        <ele>725.9</ele>
        <time>2019-08-15T16:11:43Z</time>
      </trkpt>
      <trkpt lat="42.0005290" lon="-5.9424170">
        <ele>725.9</ele>
        <time>2019-08-15T16:11:44Z</time>
      </trkpt>
      <trkpt lat="42.0005210" lon="-5.9424760">
        <ele>725.9</ele>
        <time>2019-08-15T16:11:45Z</time>
      </trkpt>
      <trkpt lat="42.0005140" lon="-5.9425340">
        <ele>726.0</ele>
        <time>2019-08-15T16:11:46Z</time>
      </trkpt>
      <trkpt lat="42.0005060" lon="-5.9425900">
        <ele>726.0</ele>
        <time>2019-08-15T16:11:47Z</time>
      </trkpt>
      <trkpt lat="42.0004990" lon="-5.9426470">
        <ele>726.0</ele>
        <time>2019-08-15T16:11:48Z</time>
      </trkpt>
      <trkpt lat="42.0004900" lon="-5.9427050">
        <ele>726.0</ele>
        <time>2019-08-15T16:11:49Z</time>
      </trkpt>
      <trkpt lat="42.0004830" lon="-5.9427630">
        <ele>726.1</ele>
        <time>2019-08-15T16:11:50Z</time>
      </trkpt>
      <trkpt lat="42.0004750" lon="-5.9428220">
        <ele>726.1</ele>
        <time>2019-08-15T16:11:51Z</time>
      </trkpt>
      <trkpt lat="42.0004690" lon="-5.9428810">
        <ele>726.2</ele>
        <time>2019-08-15T16:11:52Z</time>
      </trkpt>
      <trkpt lat="42.0004620" lon="-5.9429400">
        <ele>726.3</ele>
        <time>2019-08-15T16:11:53Z</time>
      </trkpt>
      <trkpt lat="42.0004560" lon="-5.9430000">
        <ele>726.4</ele>
        <time>2019-08-15T16:11:54Z</time>
      </trkpt>
      <trkpt lat="42.0004500" lon="-5.9430610">
        <ele>726.5</ele>
        <time>2019-08-15T16:11:55Z</time>
      </trkpt>
      <trkpt lat="42.0004420" lon="-5.9431230">
        <ele>726.6</ele>
        <time>2019-08-15T16:11:56Z</time>
      </trkpt>
      <trkpt lat="42.0004330" lon="-5.9431850">
        <ele>726.8</ele>
        <time>2019-08-15T16:11:57Z</time>
      </trkpt>
      <trkpt lat="42.0004260" lon="-5.9432460">
        <ele>726.9</ele>
        <time>2019-08-15T16:11:58Z</time>
      </trkpt>
      <trkpt lat="42.0004190" lon="-5.9433090">
        <ele>727.0</ele>
        <time>2019-08-15T16:11:59Z</time>
      </trkpt>
      <trkpt lat="42.0004120" lon="-5.9433700">
        <ele>727.1</ele>
        <time>2019-08-15T16:12:00Z</time>
      </trkpt>
      <trkpt lat="42.0004050" lon="-5.9434310">
        <ele>727.2</ele>
        <time>2019-08-15T16:12:01Z</time>
      </trkpt>
      <trkpt lat="42.0003970" lon="-5.9434920">
        <ele>727.2</ele>
        <time>2019-08-15T16:12:02Z</time>
      </trkpt>
      <trkpt lat="42.0003890" lon="-5.9435540">
        <ele>727.3</ele>
        <time>2019-08-15T16:12:03Z</time>
      </trkpt>
      <trkpt lat="42.0003810" lon="-5.9436130">
        <ele>727.4</ele>
        <time>2019-08-15T16:12:04Z</time>
      </trkpt>
      <trkpt lat="42.0003720" lon="-5.9436740">
        <ele>727.5</ele>
        <time>2019-08-15T16:12:05Z</time>
      </trkpt>
      <trkpt lat="42.0003650" lon="-5.9437350">
        <ele>727.6</ele>
        <time>2019-08-15T16:12:06Z</time>
      </trkpt>
      <trkpt lat="42.0003570" lon="-5.9437940">
        <ele>727.7</ele>
        <time>2019-08-15T16:12:07Z</time>
      </trkpt>
      <trkpt lat="42.0003490" lon="-5.9438540">
        <ele>727.8</ele>
        <time>2019-08-15T16:12:08Z</time>
      </trkpt>
      <trkpt lat="42.0003410" lon="-5.9439090">
        <ele>727.8</ele>
        <time>2019-08-15T16:12:09Z</time>
      </trkpt>
      <trkpt lat="42.0003340" lon="-5.9439690">
        <ele>727.9</ele>
        <time>2019-08-15T16:12:10Z</time>
      </trkpt>
      <trkpt lat="42.0003260" lon="-5.9440270">
        <ele>728.0</ele>
        <time>2019-08-15T16:12:11Z</time>
      </trkpt>
      <trkpt lat="42.0003190" lon="-5.9440860">
        <ele>728.0</ele>
        <time>2019-08-15T16:12:12Z</time>
      </trkpt>
      <trkpt lat="42.0003120" lon="-5.9441440">
        <ele>728.1</ele>
        <time>2019-08-15T16:12:13Z</time>
      </trkpt>
      <trkpt lat="42.0003040" lon="-5.9442030">
        <ele>728.2</ele>
        <time>2019-08-15T16:12:14Z</time>
      </trkpt>
      <trkpt lat="42.0002960" lon="-5.9442610">
        <ele>728.3</ele>
        <time>2019-08-15T16:12:15Z</time>
      </trkpt>
      <trkpt lat="42.0002890" lon="-5.9443190">
        <ele>728.3</ele>
        <time>2019-08-15T16:12:16Z</time>
      </trkpt>
      <trkpt lat="42.0002820" lon="-5.9443750">
        <ele>728.4</ele>
        <time>2019-08-15T16:12:17Z</time>
      </trkpt>
      <trkpt lat="42.0002750" lon="-5.9444320">
        <ele>728.5</ele>
        <time>2019-08-15T16:12:18Z</time>
      </trkpt>
      <trkpt lat="42.0002690" lon="-5.9444880">
        <ele>728.5</ele>
        <time>2019-08-15T16:12:19Z</time>
      </trkpt>
      <trkpt lat="42.0002610" lon="-5.9445450">
        <ele>728.6</ele>
        <time>2019-08-15T16:12:20Z</time>
      </trkpt>
      <trkpt lat="42.0002530" lon="-5.9446020">
        <ele>728.7</ele>
        <time>2019-08-15T16:12:21Z</time>
      </trkpt>
      <trkpt lat="42.0002470" lon="-5.9446610">
        <ele>728.8</ele>
        <time>2019-08-15T16:12:22Z</time>
      </trkpt>
      <trkpt lat="42.0002400" lon="-5.9447180">
        <ele>728.8</ele>
        <time>2019-08-15T16:12:23Z</time>
      </trkpt>
      <trkpt lat="42.0002340" lon="-5.9447760">
        <ele>728.9</ele>
        <time>2019-08-15T16:12:24Z</time>
      </trkpt>
      <trkpt lat="42.0002280" lon="-5.9448340">
        <ele>729.0</ele>
        <time>2019-08-15T16:12:25Z</time>
      </trkpt>
      <trkpt lat="42.0002210" lon="-5.9448940">
        <ele>729.1</ele>
        <time>2019-08-15T16:12:26Z</time>
      </trkpt>
      <trkpt lat="42.0002140" lon="-5.9449520">
        <ele>729.2</ele>
        <time>2019-08-15T16:12:27Z</time>
      </trkpt>
      <trkpt lat="42.0002070" lon="-5.9450120">
        <ele>729.3</ele>
        <time>2019-08-15T16:12:28Z</time>
      </trkpt>
      <trkpt lat="42.0002010" lon="-5.9450720">
        <ele>729.4</ele>
        <time>2019-08-15T16:12:29Z</time>
      </trkpt>
      <trkpt lat="42.0001940" lon="-5.9451320">
        <ele>729.5</ele>
        <time>2019-08-15T16:12:30Z</time>
      </trkpt>
      <trkpt lat="42.0001870" lon="-5.9451900">
        <ele>729.5</ele>
        <time>2019-08-15T16:12:31Z</time>
      </trkpt>
      <trkpt lat="42.0001820" lon="-5.9452510">
        <ele>729.6</ele>
        <time>2019-08-15T16:12:32Z</time>
      </trkpt>
      <trkpt lat="42.0001760" lon="-5.9453100">
        <ele>729.7</ele>
        <time>2019-08-15T16:12:33Z</time>
      </trkpt>
      <trkpt lat="42.0001680" lon="-5.9453710">
        <ele>729.7</ele>
        <time>2019-08-15T16:12:34Z</time>
      </trkpt>
      <trkpt lat="42.0001610" lon="-5.9454320">
        <ele>729.8</ele>
        <time>2019-08-15T16:12:35Z</time>
      </trkpt>
      <trkpt lat="42.0001540" lon="-5.9454950">
        <ele>729.9</ele>
        <time>2019-08-15T16:12:36Z</time>
      </trkpt>
      <trkpt lat="42.0001470" lon="-5.9455570">
        <ele>729.9</ele>
        <time>2019-08-15T16:12:37Z</time>
      </trkpt>
      <trkpt lat="42.0001400" lon="-5.9456190">
        <ele>730.0</ele>
        <time>2019-08-15T16:12:38Z</time>
      </trkpt>
      <trkpt lat="42.0001320" lon="-5.9456810">
        <ele>730.0</ele>
        <time>2019-08-15T16:12:39Z</time>
      </trkpt>
      <trkpt lat="42.0001250" lon="-5.9457430">
        <ele>730.1</ele>
        <time>2019-08-15T16:12:40Z</time>
      </trkpt>
      <trkpt lat="42.0001180" lon="-5.9458050">
        <ele>730.2</ele>
        <time>2019-08-15T16:12:41Z</time>
      </trkpt>
      <trkpt lat="42.0001100" lon="-5.9458670">
        <ele>730.2</ele>
        <time>2019-08-15T16:12:42Z</time>
      </trkpt>
      <trkpt lat="42.0001030" lon="-5.9459300">
        <ele>730.3</ele>
        <time>2019-08-15T16:12:43Z</time>
      </trkpt>
      <trkpt lat="42.0000960" lon="-5.9459950">
        <ele>730.3</ele>
        <time>2019-08-15T16:12:44Z</time>
      </trkpt>
      <trkpt lat="42.0000880" lon="-5.9460560">
        <ele>730.4</ele>
        <time>2019-08-15T16:12:45Z</time>
      </trkpt>
      <trkpt lat="42.0000810" lon="-5.9461200">
        <ele>730.4</ele>
        <time>2019-08-15T16:12:46Z</time>
      </trkpt>
      <trkpt lat="42.0000730" lon="-5.9461820">
        <ele>730.5</ele>
        <time>2019-08-15T16:12:47Z</time>
      </trkpt>
      <trkpt lat="42.0000660" lon="-5.9462480">
        <ele>730.5</ele>
        <time>2019-08-15T16:12:48Z</time>
      </trkpt>
      <trkpt lat="42.0000570" lon="-5.9463150">
        <ele>730.6</ele>
        <time>2019-08-15T16:12:49Z</time>
      </trkpt>
      <trkpt lat="42.0000500" lon="-5.9463810">
        <ele>730.6</ele>
        <time>2019-08-15T16:12:50Z</time>
      </trkpt>
      <trkpt lat="42.0000410" lon="-5.9464420">
        <ele>730.7</ele>
        <time>2019-08-15T16:12:51Z</time>
      </trkpt>
      <trkpt lat="42.0000320" lon="-5.9465020">
        <ele>730.7</ele>
        <time>2019-08-15T16:12:52Z</time>
      </trkpt>
      <trkpt lat="42.0000270" lon="-5.9465660">
        <ele>730.7</ele>
        <time>2019-08-15T16:12:53Z</time>
      </trkpt>
      <trkpt lat="42.0000200" lon="-5.9466330">
        <ele>730.8</ele>
        <time>2019-08-15T16:12:54Z</time>
      </trkpt>
      <trkpt lat="42.0000110" lon="-5.9467010">
        <ele>730.8</ele>
        <time>2019-08-15T16:12:55Z</time>
      </trkpt>
      <trkpt lat="42.0000040" lon="-5.9467690">
        <ele>730.9</ele>
        <time>2019-08-15T16:12:56Z</time>
      </trkpt>
      <trkpt lat="41.9999960" lon="-5.9468340">
        <ele>730.9</ele>
        <time>2019-08-15T16:12:57Z</time>
      </trkpt>
      <trkpt lat="41.9999880" lon="-5.9469000">
        <ele>730.9</ele>
        <time>2019-08-15T16:12:58Z</time>
      </trkpt>
      <trkpt lat="41.9999820" lon="-5.9469650">
        <ele>731.0</ele>
        <time>2019-08-15T16:12:59Z</time>
      </trkpt>
      <trkpt lat="41.9999750" lon="-5.9470320">
        <ele>731.0</ele>
        <time>2019-08-15T16:13:00Z</time>
      </trkpt>
      <trkpt lat="41.9999690" lon="-5.9470990">
        <ele>731.1</ele>
        <time>2019-08-15T16:13:01Z</time>
      </trkpt>
      <trkpt lat="41.9999610" lon="-5.9471680">
        <ele>731.1</ele>
        <time>2019-08-15T16:13:02Z</time>
      </trkpt>
      <trkpt lat="41.9999540" lon="-5.9472370">
        <ele>731.1</ele>
        <time>2019-08-15T16:13:03Z</time>
      </trkpt>
      <trkpt lat="41.9999460" lon="-5.9473080">
        <ele>731.2</ele>
        <time>2019-08-15T16:13:04Z</time>
      </trkpt>
      <trkpt lat="41.9999390" lon="-5.9473770">
        <ele>731.2</ele>
        <time>2019-08-15T16:13:05Z</time>
      </trkpt>
      <trkpt lat="41.9999310" lon="-5.9474450">
        <ele>731.2</ele>
        <time>2019-08-15T16:13:06Z</time>
      </trkpt>
      <trkpt lat="41.9999240" lon="-5.9475100">
        <ele>731.3</ele>
        <time>2019-08-15T16:13:07Z</time>
      </trkpt>
      <trkpt lat="41.9999160" lon="-5.9475740">
        <ele>731.3</ele>
        <time>2019-08-15T16:13:08Z</time>
      </trkpt>
      <trkpt lat="41.9999080" lon="-5.9476380">
        <ele>731.3</ele>
        <time>2019-08-15T16:13:09Z</time>
      </trkpt>
      <trkpt lat="41.9999020" lon="-5.9477010">
        <ele>731.3</ele>
        <time>2019-08-15T16:13:10Z</time>
      </trkpt>
      <trkpt lat="41.9998960" lon="-5.9477660">
        <ele>731.3</ele>
        <time>2019-08-15T16:13:11Z</time>
      </trkpt>
      <trkpt lat="41.9998880" lon="-5.9478340">
        <ele>731.4</ele>
        <time>2019-08-15T16:13:12Z</time>
      </trkpt>
      <trkpt lat="41.9998810" lon="-5.9479030">
        <ele>731.4</ele>
        <time>2019-08-15T16:13:13Z</time>
      </trkpt>
      <trkpt lat="41.9998750" lon="-5.9479740">
        <ele>731.4</ele>
        <time>2019-08-15T16:13:14Z</time>
      </trkpt>
      <trkpt lat="41.9998670" lon="-5.9480430">
        <ele>731.4</ele>
        <time>2019-08-15T16:13:15Z</time>
      </trkpt>
      <trkpt lat="41.9998590" lon="-5.9481140">
        <ele>731.4</ele>
        <time>2019-08-15T16:13:16Z</time>
      </trkpt>
      <trkpt lat="41.9998520" lon="-5.9481850">
        <ele>731.4</ele>
        <time>2019-08-15T16:13:17Z</time>
      </trkpt>
      <trkpt lat="41.9998460" lon="-5.9482560">
        <ele>731.4</ele>
        <time>2019-08-15T16:13:18Z</time>
      </trkpt>
      <trkpt lat="41.9998400" lon="-5.9483270">
        <ele>731.4</ele>
        <time>2019-08-15T16:13:19Z</time>
      </trkpt>
      <trkpt lat="41.9998360" lon="-5.9483950">
        <ele>731.4</ele>
        <time>2019-08-15T16:13:20Z</time>
      </trkpt>
      <trkpt lat="41.9998310" lon="-5.9484630">
        <ele>731.4</ele>
        <time>2019-08-15T16:13:21Z</time>
      </trkpt>
      <trkpt lat="41.9998250" lon="-5.9485290">
        <ele>731.3</ele>
        <time>2019-08-15T16:13:22Z</time>
      </trkpt>
      <trkpt lat="41.9998190" lon="-5.9485950">
        <ele>731.3</ele>
        <time>2019-08-15T16:13:23Z</time>
      </trkpt>
      <trkpt lat="41.9998110" lon="-5.9486600">
        <ele>731.3</ele>
        <time>2019-08-15T16:13:24Z</time>
      </trkpt>
      <trkpt lat="41.9998040" lon="-5.9487240">
        <ele>731.3</ele>
        <time>2019-08-15T16:13:25Z</time>
      </trkpt>
      <trkpt lat="41.9997970" lon="-5.9487880">
        <ele>731.2</ele>
        <time>2019-08-15T16:13:26Z</time>
      </trkpt>
      <trkpt lat="41.9997900" lon="-5.9488540">
        <ele>731.2</ele>
        <time>2019-08-15T16:13:27Z</time>
      </trkpt>
      <trkpt lat="41.9997830" lon="-5.9489200">
        <ele>731.2</ele>
        <time>2019-08-15T16:13:28Z</time>
      </trkpt>
      <trkpt lat="41.9997790" lon="-5.9489850">
        <ele>731.2</ele>
        <time>2019-08-15T16:13:29Z</time>
      </trkpt>
      <trkpt lat="41.9997710" lon="-5.9490490">
        <ele>731.1</ele>
        <time>2019-08-15T16:13:30Z</time>
      </trkpt>
      <trkpt lat="41.9997640" lon="-5.9491150">
        <ele>731.1</ele>
        <time>2019-08-15T16:13:31Z</time>
      </trkpt>
      <trkpt lat="41.9997580" lon="-5.9491780">
        <ele>731.1</ele>
        <time>2019-08-15T16:13:32Z</time>
      </trkpt>
      <trkpt lat="41.9997530" lon="-5.9492430">
        <ele>731.1</ele>
        <time>2019-08-15T16:13:33Z</time>
      </trkpt>
      <trkpt lat="41.9997480" lon="-5.9493090">
        <ele>731.1</ele>
        <time>2019-08-15T16:13:34Z</time>
      </trkpt>
      <trkpt lat="41.9997420" lon="-5.9493740">
        <ele>731.1</ele>
        <time>2019-08-15T16:13:35Z</time>
      </trkpt>
      <trkpt lat="41.9997350" lon="-5.9494410">
        <ele>731.0</ele>
        <time>2019-08-15T16:13:36Z</time>
      </trkpt>
      <trkpt lat="41.9997290" lon="-5.9495070">
        <ele>731.0</ele>
        <time>2019-08-15T16:13:37Z</time>
      </trkpt>
      <trkpt lat="41.9997220" lon="-5.9495720">
        <ele>731.0</ele>
        <time>2019-08-15T16:13:38Z</time>
      </trkpt>
      <trkpt lat="41.9997150" lon="-5.9496370">
        <ele>731.0</ele>
        <time>2019-08-15T16:13:39Z</time>
      </trkpt>
      <trkpt lat="41.9997080" lon="-5.9497020">
        <ele>731.0</ele>
        <time>2019-08-15T16:13:40Z</time>
      </trkpt>
      <trkpt lat="41.9997020" lon="-5.9497680">
        <ele>731.0</ele>
        <time>2019-08-15T16:13:41Z</time>
      </trkpt>
      <trkpt lat="41.9996960" lon="-5.9498330">
        <ele>731.0</ele>
        <time>2019-08-15T16:13:42Z</time>
      </trkpt>
      <trkpt lat="41.9996910" lon="-5.9499000">
        <ele>731.0</ele>
        <time>2019-08-15T16:13:43Z</time>
      </trkpt>
      <trkpt lat="41.9996860" lon="-5.9499660">
        <ele>731.0</ele>
        <time>2019-08-15T16:13:44Z</time>
      </trkpt>
      <trkpt lat="41.9996800" lon="-5.9500320">
        <ele>731.0</ele>
        <time>2019-08-15T16:13:45Z</time>
      </trkpt>
      <trkpt lat="41.9996720" lon="-5.9500980">
        <ele>731.0</ele>
        <time>2019-08-15T16:13:46Z</time>
      </trkpt>
      <trkpt lat="41.9996650" lon="-5.9501640">
        <ele>731.1</ele>
        <time>2019-08-15T16:13:47Z</time>
      </trkpt>
      <trkpt lat="41.9996580" lon="-5.9502300">
        <ele>731.1</ele>
        <time>2019-08-15T16:13:48Z</time>
      </trkpt>
      <trkpt lat="41.9996510" lon="-5.9502970">
        <ele>731.1</ele>
        <time>2019-08-15T16:13:49Z</time>
      </trkpt>
      <trkpt lat="41.9996450" lon="-5.9503640">
        <ele>731.1</ele>
        <time>2019-08-15T16:13:50Z</time>
      </trkpt>
      <trkpt lat="41.9996400" lon="-5.9504280">
        <ele>731.1</ele>
        <time>2019-08-15T16:13:51Z</time>
      </trkpt>
      <trkpt lat="41.9996350" lon="-5.9504920">
        <ele>731.1</ele>
        <time>2019-08-15T16:13:52Z</time>
      </trkpt>
      <trkpt lat="41.9996290" lon="-5.9505560">
        <ele>731.1</ele>
        <time>2019-08-15T16:13:53Z</time>
      </trkpt>
      <trkpt lat="41.9996210" lon="-5.9506210">
        <ele>731.2</ele>
        <time>2019-08-15T16:13:54Z</time>
      </trkpt>
      <trkpt lat="41.9996150" lon="-5.9506880">
        <ele>731.2</ele>
        <time>2019-08-15T16:13:55Z</time>
      </trkpt>
      <trkpt lat="41.9996090" lon="-5.9507560">
        <ele>731.2</ele>
        <time>2019-08-15T16:13:56Z</time>
      </trkpt>
      <trkpt lat="41.9996030" lon="-5.9508270">
        <ele>731.2</ele>
        <time>2019-08-15T16:13:57Z</time>
      </trkpt>
      <trkpt lat="41.9995970" lon="-5.9508990">
        <ele>731.2</ele>
        <time>2019-08-15T16:13:58Z</time>
      </trkpt>
      <trkpt lat="41.9995890" lon="-5.9509700">
        <ele>731.3</ele>
        <time>2019-08-15T16:13:59Z</time>
      </trkpt>
      <trkpt lat="41.9995820" lon="-5.9510370">
        <ele>731.3</ele>
        <time>2019-08-15T16:14:00Z</time>
      </trkpt>
      <trkpt lat="41.9995750" lon="-5.9511040">
        <ele>731.4</ele>
        <time>2019-08-15T16:14:01Z</time>
      </trkpt>
      <trkpt lat="41.9995680" lon="-5.9511690">
        <ele>731.4</ele>
        <time>2019-08-15T16:14:02Z</time>
      </trkpt>
      <trkpt lat="41.9995610" lon="-5.9512320">
        <ele>731.5</ele>
        <time>2019-08-15T16:14:03Z</time>
      </trkpt>
      <trkpt lat="41.9995540" lon="-5.9512950">
        <ele>731.6</ele>
        <time>2019-08-15T16:14:04Z</time>
      </trkpt>
      <trkpt lat="41.9995480" lon="-5.9513610">
        <ele>731.6</ele>
        <time>2019-08-15T16:14:05Z</time>
      </trkpt>
      <trkpt lat="41.9995410" lon="-5.9514250">
        <ele>731.7</ele>
        <time>2019-08-15T16:14:06Z</time>
      </trkpt>
      <trkpt lat="41.9995340" lon="-5.9514910">
        <ele>731.7</ele>
        <time>2019-08-15T16:14:07Z</time>
      </trkpt>
      <trkpt lat="41.9995270" lon="-5.9515580">
        <ele>731.8</ele>
        <time>2019-08-15T16:14:08Z</time>
      </trkpt>
      <trkpt lat="41.9995210" lon="-5.9516270">
        <ele>731.9</ele>
        <time>2019-08-15T16:14:09Z</time>
      </trkpt>
      <trkpt lat="41.9995150" lon="-5.9516980">
        <ele>731.9</ele>
        <time>2019-08-15T16:14:10Z</time>
      </trkpt>
      <trkpt lat="41.9995070" lon="-5.9517690">
        <ele>731.9</ele>
        <time>2019-08-15T16:14:11Z</time>
      </trkpt>
      <trkpt lat="41.9995010" lon="-5.9518400">
        <ele>732.0</ele>
        <time>2019-08-15T16:14:12Z</time>
      </trkpt>
      <trkpt lat="41.9994940" lon="-5.9519110">
        <ele>732.0</ele>
        <time>2019-08-15T16:14:13Z</time>
      </trkpt>
      <trkpt lat="41.9994860" lon="-5.9519830">
        <ele>732.0</ele>
        <time>2019-08-15T16:14:14Z</time>
      </trkpt>
      <trkpt lat="41.9994780" lon="-5.9520540">
        <ele>732.0</ele>
        <time>2019-08-15T16:14:15Z</time>
      </trkpt>
      <trkpt lat="41.9994710" lon="-5.9521250">
        <ele>732.1</ele>
        <time>2019-08-15T16:14:16Z</time>
      </trkpt>
      <trkpt lat="41.9994650" lon="-5.9521920">
        <ele>732.1</ele>
        <time>2019-08-15T16:14:17Z</time>
      </trkpt>
      <trkpt lat="41.9994580" lon="-5.9522590">
        <ele>732.1</ele>
        <time>2019-08-15T16:14:18Z</time>
      </trkpt>
      <trkpt lat="41.9994500" lon="-5.9523280">
        <ele>732.1</ele>
        <time>2019-08-15T16:14:19Z</time>
      </trkpt>
      <trkpt lat="41.9994430" lon="-5.9523970">
        <ele>732.1</ele>
        <time>2019-08-15T16:14:20Z</time>
      </trkpt>
      <trkpt lat="41.9994370" lon="-5.9524640">
        <ele>732.2</ele>
        <time>2019-08-15T16:14:21Z</time>
      </trkpt>
      <trkpt lat="41.9994310" lon="-5.9525290">
        <ele>732.2</ele>
        <time>2019-08-15T16:14:22Z</time>
      </trkpt>
      <trkpt lat="41.9994250" lon="-5.9525950">
        <ele>732.2</ele>
        <time>2019-08-15T16:14:23Z</time>
      </trkpt>
      <trkpt lat="41.9994180" lon="-5.9526620">
        <ele>732.2</ele>
        <time>2019-08-15T16:14:24Z</time>
      </trkpt>
      <trkpt lat="41.9994120" lon="-5.9527280">
        <ele>732.3</ele>
        <time>2019-08-15T16:14:25Z</time>
      </trkpt>
      <trkpt lat="41.9994050" lon="-5.9527930">
        <ele>732.3</ele>
        <time>2019-08-15T16:14:26Z</time>
      </trkpt>
      <trkpt lat="41.9993980" lon="-5.9528580">
        <ele>732.3</ele>
        <time>2019-08-15T16:14:27Z</time>
      </trkpt>
      <trkpt lat="41.9993930" lon="-5.9529230">
        <ele>732.4</ele>
        <time>2019-08-15T16:14:28Z</time>
      </trkpt>
      <trkpt lat="41.9993850" lon="-5.9529870">
        <ele>732.4</ele>
        <time>2019-08-15T16:14:29Z</time>
      </trkpt>
      <trkpt lat="41.9993780" lon="-5.9530530">
        <ele>732.4</ele>
        <time>2019-08-15T16:14:30Z</time>
      </trkpt>
      <trkpt lat="41.9993710" lon="-5.9531190">
        <ele>732.5</ele>
        <time>2019-08-15T16:14:31Z</time>
      </trkpt>
      <trkpt lat="41.9993650" lon="-5.9531840">
        <ele>732.6</ele>
        <time>2019-08-15T16:14:32Z</time>
      </trkpt>
      <trkpt lat="41.9993560" lon="-5.9532470">
        <ele>732.6</ele>
        <time>2019-08-15T16:14:33Z</time>
      </trkpt>
      <trkpt lat="41.9993470" lon="-5.9533100">
        <ele>732.7</ele>
        <time>2019-08-15T16:14:34Z</time>
      </trkpt>
      <trkpt lat="41.9993390" lon="-5.9533710">
        <ele>732.7</ele>
        <time>2019-08-15T16:14:35Z</time>
      </trkpt>
      <trkpt lat="41.9993300" lon="-5.9534330">
        <ele>732.8</ele>
        <time>2019-08-15T16:14:36Z</time>
      </trkpt>
      <trkpt lat="41.9993200" lon="-5.9534950">
        <ele>732.8</ele>
        <time>2019-08-15T16:14:37Z</time>
      </trkpt>
      <trkpt lat="41.9993090" lon="-5.9535550">
        <ele>732.9</ele>
        <time>2019-08-15T16:14:38Z</time>
      </trkpt>
      <trkpt lat="41.9992980" lon="-5.9536160">
        <ele>732.9</ele>
        <time>2019-08-15T16:14:39Z</time>
      </trkpt>
      <trkpt lat="41.9992880" lon="-5.9536780">
        <ele>733.0</ele>
        <time>2019-08-15T16:14:40Z</time>
      </trkpt>
      <trkpt lat="41.9992770" lon="-5.9537400">
        <ele>733.0</ele>
        <time>2019-08-15T16:14:41Z</time>
      </trkpt>
      <trkpt lat="41.9992650" lon="-5.9538020">
        <ele>733.1</ele>
        <time>2019-08-15T16:14:42Z</time>
      </trkpt>
      <trkpt lat="41.9992530" lon="-5.9538640">
        <ele>733.1</ele>
        <time>2019-08-15T16:14:43Z</time>
      </trkpt>
      <trkpt lat="41.9992400" lon="-5.9539280">
        <ele>733.1</ele>
        <time>2019-08-15T16:14:44Z</time>
      </trkpt>
      <trkpt lat="41.9992260" lon="-5.9539900">
        <ele>733.2</ele>
        <time>2019-08-15T16:14:45Z</time>
      </trkpt>
      <trkpt lat="41.9992100" lon="-5.9540540">
        <ele>733.2</ele>
        <time>2019-08-15T16:14:46Z</time>
      </trkpt>
      <trkpt lat="41.9991940" lon="-5.9541210">
        <ele>733.3</ele>
        <time>2019-08-15T16:14:47Z</time>
      </trkpt>
      <trkpt lat="41.9991770" lon="-5.9541870">
        <ele>733.3</ele>
        <time>2019-08-15T16:14:48Z</time>
      </trkpt>
      <trkpt lat="41.9991610" lon="-5.9542540">
        <ele>733.3</ele>
        <time>2019-08-15T16:14:49Z</time>
      </trkpt>
      <trkpt lat="41.9991430" lon="-5.9543210">
        <ele>733.4</ele>
        <time>2019-08-15T16:14:50Z</time>
      </trkpt>
      <trkpt lat="41.9991250" lon="-5.9543880">
        <ele>733.4</ele>
        <time>2019-08-15T16:14:51Z</time>
      </trkpt>
      <trkpt lat="41.9991070" lon="-5.9544540">
        <ele>733.3</ele>
        <time>2019-08-15T16:14:52Z</time>
      </trkpt>
      <trkpt lat="41.9990880" lon="-5.9545220">
        <ele>733.3</ele>
        <time>2019-08-15T16:14:53Z</time>
      </trkpt>
      <trkpt lat="41.9990700" lon="-5.9545870">
        <ele>733.3</ele>
        <time>2019-08-15T16:14:54Z</time>
      </trkpt>
      <trkpt lat="41.9990520" lon="-5.9546540">
        <ele>733.3</ele>
        <time>2019-08-15T16:14:55Z</time>
      </trkpt>
      <trkpt lat="41.9990340" lon="-5.9547190">
        <ele>733.3</ele>
        <time>2019-08-15T16:14:56Z</time>
      </trkpt>
      <trkpt lat="41.9990170" lon="-5.9547830">
        <ele>733.2</ele>
        <time>2019-08-15T16:14:57Z</time>
      </trkpt>
      <trkpt lat="41.9990000" lon="-5.9548470">
        <ele>733.2</ele>
        <time>2019-08-15T16:14:58Z</time>
      </trkpt>
      <trkpt lat="41.9989820" lon="-5.9549110">
        <ele>733.2</ele>
        <time>2019-08-15T16:14:59Z</time>
      </trkpt>
      <trkpt lat="41.9989650" lon="-5.9549770">
        <ele>733.2</ele>
        <time>2019-08-15T16:15:00Z</time>
      </trkpt>
      <trkpt lat="41.9989480" lon="-5.9550440">
        <ele>733.2</ele>
        <time>2019-08-15T16:15:01Z</time>
      </trkpt>
      <trkpt lat="41.9989310" lon="-5.9551130">
        <ele>733.2</ele>
        <time>2019-08-15T16:15:02Z</time>
      </trkpt>
      <trkpt lat="41.9989120" lon="-5.9551790">
        <ele>733.2</ele>
        <time>2019-08-15T16:15:03Z</time>
      </trkpt>
      <trkpt lat="41.9988930" lon="-5.9552450">
        <ele>733.2</ele>
        <time>2019-08-15T16:15:04Z</time>
      </trkpt>
      <trkpt lat="41.9988750" lon="-5.9553130">
        <ele>733.2</ele>
        <time>2019-08-15T16:15:05Z</time>
      </trkpt>
      <trkpt lat="41.9988560" lon="-5.9553810">
        <ele>733.2</ele>
        <time>2019-08-15T16:15:06Z</time>
      </trkpt>
      <trkpt lat="41.9988380" lon="-5.9554500">
        <ele>733.3</ele>
        <time>2019-08-15T16:15:07Z</time>
      </trkpt>
      <trkpt lat="41.9988190" lon="-5.9555170">
        <ele>733.3</ele>
        <time>2019-08-15T16:15:08Z</time>
      </trkpt>
      <trkpt lat="41.9988000" lon="-5.9555830">
        <ele>733.3</ele>
        <time>2019-08-15T16:15:09Z</time>
      </trkpt>
      <trkpt lat="41.9987820" lon="-5.9556480">
        <ele>733.3</ele>
        <time>2019-08-15T16:15:10Z</time>
      </trkpt>
      <trkpt lat="41.9987650" lon="-5.9557130">
        <ele>733.3</ele>
        <time>2019-08-15T16:15:11Z</time>
      </trkpt>
      <trkpt lat="41.9987470" lon="-5.9557810">
        <ele>733.4</ele>
        <time>2019-08-15T16:15:12Z</time>
      </trkpt>
      <trkpt lat="41.9987290" lon="-5.9558480">
        <ele>733.4</ele>
        <time>2019-08-15T16:15:13Z</time>
      </trkpt>
      <trkpt lat="41.9987110" lon="-5.9559170">
        <ele>733.4</ele>
        <time>2019-08-15T16:15:14Z</time>
      </trkpt>
      <trkpt lat="41.9986930" lon="-5.9559850">
        <ele>733.4</ele>
        <time>2019-08-15T16:15:15Z</time>
      </trkpt>
      <trkpt lat="41.9986760" lon="-5.9560550">
        <ele>733.4</ele>
        <time>2019-08-15T16:15:16Z</time>
      </trkpt>
      <trkpt lat="41.9986560" lon="-5.9561260">
        <ele>733.4</ele>
        <time>2019-08-15T16:15:17Z</time>
      </trkpt>
      <trkpt lat="41.9986370" lon="-5.9561970">
        <ele>733.4</ele>
        <time>2019-08-15T16:15:18Z</time>
      </trkpt>
      <trkpt lat="41.9986180" lon="-5.9562700">
        <ele>733.4</ele>
        <time>2019-08-15T16:15:19Z</time>
      </trkpt>
      <trkpt lat="41.9985990" lon="-5.9563410">
        <ele>733.4</ele>
        <time>2019-08-15T16:15:20Z</time>
      </trkpt>
      <trkpt lat="41.9985820" lon="-5.9564110">
        <ele>733.4</ele>
        <time>2019-08-15T16:15:21Z</time>
      </trkpt>
      <trkpt lat="41.9985630" lon="-5.9564790">
        <ele>733.4</ele>
        <time>2019-08-15T16:15:22Z</time>
      </trkpt>
      <trkpt lat="41.9985450" lon="-5.9565480">
        <ele>733.4</ele>
        <time>2019-08-15T16:15:23Z</time>
      </trkpt>
      <trkpt lat="41.9985260" lon="-5.9566170">
        <ele>733.4</ele>
        <time>2019-08-15T16:15:24Z</time>
      </trkpt>
      <trkpt lat="41.9985070" lon="-5.9566850">
        <ele>733.4</ele>
        <time>2019-08-15T16:15:25Z</time>
      </trkpt>
      <trkpt lat="41.9984880" lon="-5.9567540">
        <ele>733.4</ele>
        <time>2019-08-15T16:15:26Z</time>
      </trkpt>
      <trkpt lat="41.9984680" lon="-5.9568210">
        <ele>733.4</ele>
        <time>2019-08-15T16:15:27Z</time>
      </trkpt>
      <trkpt lat="41.9984490" lon="-5.9568880">
        <ele>733.4</ele>
        <time>2019-08-15T16:15:28Z</time>
      </trkpt>
      <trkpt lat="41.9984300" lon="-5.9569570">
        <ele>733.4</ele>
        <time>2019-08-15T16:15:29Z</time>
      </trkpt>
      <trkpt lat="41.9984120" lon="-5.9570260">
        <ele>733.4</ele>
        <time>2019-08-15T16:15:30Z</time>
      </trkpt>
      <trkpt lat="41.9983930" lon="-5.9570960">
        <ele>733.4</ele>
        <time>2019-08-15T16:15:31Z</time>
      </trkpt>
      <trkpt lat="41.9983740" lon="-5.9571640">
        <ele>733.4</ele>
        <time>2019-08-15T16:15:32Z</time>
      </trkpt>
      <trkpt lat="41.9983550" lon="-5.9572340">
        <ele>733.4</ele>
        <time>2019-08-15T16:15:33Z</time>
      </trkpt>
      <trkpt lat="41.9983360" lon="-5.9573030">
        <ele>733.4</ele>
        <time>2019-08-15T16:15:34Z</time>
      </trkpt>
      <trkpt lat="41.9983170" lon="-5.9573700">
        <ele>733.4</ele>
        <time>2019-08-15T16:15:35Z</time>
      </trkpt>
      <trkpt lat="41.9982970" lon="-5.9574400">
        <ele>733.4</ele>
        <time>2019-08-15T16:15:36Z</time>
      </trkpt>
      <trkpt lat="41.9982790" lon="-5.9575110">
        <ele>733.4</ele>
        <time>2019-08-15T16:15:37Z</time>
      </trkpt>
      <trkpt lat="41.9982610" lon="-5.9575820">
        <ele>733.3</ele>
        <time>2019-08-15T16:15:38Z</time>
      </trkpt>
      <trkpt lat="41.9982430" lon="-5.9576530">
        <ele>733.3</ele>
        <time>2019-08-15T16:15:39Z</time>
      </trkpt>
      <trkpt lat="41.9982220" lon="-5.9577230">
        <ele>733.3</ele>
        <time>2019-08-15T16:15:40Z</time>
      </trkpt>
      <trkpt lat="41.9982030" lon="-5.9577920">
        <ele>733.3</ele>
        <time>2019-08-15T16:15:41Z</time>
      </trkpt>
      <trkpt lat="41.9981850" lon="-5.9578580">
        <ele>733.3</ele>
        <time>2019-08-15T16:15:42Z</time>
      </trkpt>
      <trkpt lat="41.9981680" lon="-5.9579230">
        <ele>733.2</ele>
        <time>2019-08-15T16:15:43Z</time>
      </trkpt>
      <trkpt lat="41.9981510" lon="-5.9579870">
        <ele>733.2</ele>
        <time>2019-08-15T16:15:44Z</time>
      </trkpt>
      <trkpt lat="41.9981330" lon="-5.9580510">
        <ele>733.2</ele>
        <time>2019-08-15T16:15:45Z</time>
      </trkpt>
      <trkpt lat="41.9981150" lon="-5.9581160">
        <ele>733.2</ele>
        <time>2019-08-15T16:15:46Z</time>
      </trkpt>
      <trkpt lat="41.9980970" lon="-5.9581820">
        <ele>733.2</ele>
        <time>2019-08-15T16:15:47Z</time>
      </trkpt>
      <trkpt lat="41.9980810" lon="-5.9582470">
        <ele>733.2</ele>
        <time>2019-08-15T16:15:48Z</time>
      </trkpt>
      <trkpt lat="41.9980640" lon="-5.9583090">
        <ele>733.2</ele>
        <time>2019-08-15T16:15:49Z</time>
      </trkpt>
      <trkpt lat="41.9980480" lon="-5.9583700">
        <ele>733.2</ele>
        <time>2019-08-15T16:15:50Z</time>
      </trkpt>
      <trkpt lat="41.9980310" lon="-5.9584300">
        <ele>733.2</ele>
        <time>2019-08-15T16:15:51Z</time>
      </trkpt>
      <trkpt lat="41.9980150" lon="-5.9584900">
        <ele>733.2</ele>
        <time>2019-08-15T16:15:52Z</time>
      </trkpt>
      <trkpt lat="41.9980000" lon="-5.9585520">
        <ele>733.2</ele>
        <time>2019-08-15T16:15:53Z</time>
      </trkpt>
      <trkpt lat="41.9979840" lon="-5.9586160">
        <ele>733.2</ele>
        <time>2019-08-15T16:15:54Z</time>
      </trkpt>
      <trkpt lat="41.9979680" lon="-5.9586820">
        <ele>733.2</ele>
        <time>2019-08-15T16:15:55Z</time>
      </trkpt>
      <trkpt lat="41.9979500" lon="-5.9587450">
        <ele>733.2</ele>
        <time>2019-08-15T16:15:56Z</time>
      </trkpt>
      <trkpt lat="41.9979320" lon="-5.9588080">
        <ele>733.2</ele>
        <time>2019-08-15T16:15:57Z</time>
      </trkpt>
      <trkpt lat="41.9979140" lon="-5.9588720">
        <ele>733.2</ele>
        <time>2019-08-15T16:15:58Z</time>
      </trkpt>
      <trkpt lat="41.9978960" lon="-5.9589370">
        <ele>733.2</ele>
        <time>2019-08-15T16:15:59Z</time>
      </trkpt>
      <trkpt lat="41.9978770" lon="-5.9590020">
        <ele>733.2</ele>
        <time>2019-08-15T16:16:00Z</time>
      </trkpt>
      <trkpt lat="41.9978590" lon="-5.9590650">
        <ele>733.2</ele>
        <time>2019-08-15T16:16:01Z</time>
      </trkpt>
      <trkpt lat="41.9978410" lon="-5.9591290">
        <ele>733.2</ele>
        <time>2019-08-15T16:16:02Z</time>
      </trkpt>
      <trkpt lat="41.9978230" lon="-5.9591950">
        <ele>733.1</ele>
        <time>2019-08-15T16:16:03Z</time>
      </trkpt>
      <trkpt lat="41.9978050" lon="-5.9592610">
        <ele>733.1</ele>
        <time>2019-08-15T16:16:04Z</time>
      </trkpt>
      <trkpt lat="41.9977860" lon="-5.9593280">
        <ele>733.1</ele>
        <time>2019-08-15T16:16:05Z</time>
      </trkpt>
      <trkpt lat="41.9977700" lon="-5.9593930">
        <ele>733.1</ele>
        <time>2019-08-15T16:16:06Z</time>
      </trkpt>
      <trkpt lat="41.9977510" lon="-5.9594580">
        <ele>733.1</ele>
        <time>2019-08-15T16:16:07Z</time>
      </trkpt>
      <trkpt lat="41.9977330" lon="-5.9595210">
        <ele>733.1</ele>
        <time>2019-08-15T16:16:08Z</time>
      </trkpt>
      <trkpt lat="41.9977150" lon="-5.9595830">
        <ele>733.1</ele>
        <time>2019-08-15T16:16:09Z</time>
      </trkpt>
      <trkpt lat="41.9976990" lon="-5.9596400">
        <ele>733.1</ele>
        <time>2019-08-15T16:16:10Z</time>
      </trkpt>
      <trkpt lat="41.9976820" lon="-5.9597000">
        <ele>733.1</ele>
        <time>2019-08-15T16:16:11Z</time>
      </trkpt>
      <trkpt lat="41.9976650" lon="-5.9597600">
        <ele>733.2</ele>
        <time>2019-08-15T16:16:12Z</time>
      </trkpt>
      <trkpt lat="41.9976480" lon="-5.9598240">
        <ele>733.2</ele>
        <time>2019-08-15T16:16:13Z</time>
      </trkpt>
      <trkpt lat="41.9976310" lon="-5.9598890">
        <ele>733.2</ele>
        <time>2019-08-15T16:16:14Z</time>
      </trkpt>
      <trkpt lat="41.9976150" lon="-5.9599540">
        <ele>733.2</ele>
        <time>2019-08-15T16:16:15Z</time>
      </trkpt>
      <trkpt lat="41.9975970" lon="-5.9600210">
        <ele>733.2</ele>
        <time>2019-08-15T16:16:16Z</time>
      </trkpt>
      <trkpt lat="41.9975780" lon="-5.9600880">
        <ele>733.2</ele>
        <time>2019-08-15T16:16:17Z</time>
      </trkpt>
      <trkpt lat="41.9975590" lon="-5.9601550">
        <ele>733.2</ele>
        <time>2019-08-15T16:16:18Z</time>
      </trkpt>
      <trkpt lat="41.9975400" lon="-5.9602190">
        <ele>733.2</ele>
        <time>2019-08-15T16:16:19Z</time>
      </trkpt>
      <trkpt lat="41.9975230" lon="-5.9602830">
        <ele>733.2</ele>
        <time>2019-08-15T16:16:20Z</time>
      </trkpt>
      <trkpt lat="41.9975070" lon="-5.9603450">
        <ele>733.2</ele>
        <time>2019-08-15T16:16:21Z</time>
      </trkpt>
      <trkpt lat="41.9974900" lon="-5.9604080">
        <ele>733.2</ele>
        <time>2019-08-15T16:16:22Z</time>
      </trkpt>
      <trkpt lat="41.9974720" lon="-5.9604720">
        <ele>733.2</ele>
        <time>2019-08-15T16:16:23Z</time>
      </trkpt>
      <trkpt lat="41.9974530" lon="-5.9605360">
        <ele>733.2</ele>
        <time>2019-08-15T16:16:24Z</time>
      </trkpt>
      <trkpt lat="41.9974350" lon="-5.9606010">
        <ele>733.2</ele>
        <time>2019-08-15T16:16:25Z</time>
      </trkpt>
      <trkpt lat="41.9974180" lon="-5.9606660">
        <ele>733.2</ele>
        <time>2019-08-15T16:16:26Z</time>
      </trkpt>
      <trkpt lat="41.9974010" lon="-5.9607350">
        <ele>733.2</ele>
        <time>2019-08-15T16:16:27Z</time>
      </trkpt>
      <trkpt lat="41.9973830" lon="-5.9608030">
        <ele>733.2</ele>
        <time>2019-08-15T16:16:28Z</time>
      </trkpt>
      <trkpt lat="41.9973660" lon="-5.9608700">
        <ele>733.2</ele>
        <time>2019-08-15T16:16:29Z</time>
      </trkpt>
      <trkpt lat="41.9973500" lon="-5.9609360">
        <ele>733.2</ele>
        <time>2019-08-15T16:16:30Z</time>
      </trkpt>
      <trkpt lat="41.9973340" lon="-5.9610010">
        <ele>733.2</ele>
        <time>2019-08-15T16:16:31Z</time>
      </trkpt>
      <trkpt lat="41.9973160" lon="-5.9610650">
        <ele>733.2</ele>
        <time>2019-08-15T16:16:32Z</time>
      </trkpt>
      <trkpt lat="41.9972980" lon="-5.9611320">
        <ele>733.2</ele>
        <time>2019-08-15T16:16:33Z</time>
      </trkpt>
      <trkpt lat="41.9972800" lon="-5.9611980">
        <ele>733.2</ele>
        <time>2019-08-15T16:16:34Z</time>
      </trkpt>
      <trkpt lat="41.9972630" lon="-5.9612650">
        <ele>733.1</ele>
        <time>2019-08-15T16:16:35Z</time>
      </trkpt>
      <trkpt lat="41.9972450" lon="-5.9613310">
        <ele>733.1</ele>
        <time>2019-08-15T16:16:36Z</time>
      </trkpt>
      <trkpt lat="41.9972270" lon="-5.9613960">
        <ele>733.1</ele>
        <time>2019-08-15T16:16:37Z</time>
      </trkpt>
      <trkpt lat="41.9972090" lon="-5.9614620">
        <ele>733.0</ele>
        <time>2019-08-15T16:16:38Z</time>
      </trkpt>
      <trkpt lat="41.9971910" lon="-5.9615280">
        <ele>733.0</ele>
        <time>2019-08-15T16:16:39Z</time>
      </trkpt>
      <trkpt lat="41.9971740" lon="-5.9615920">
        <ele>732.9</ele>
        <time>2019-08-15T16:16:40Z</time>
      </trkpt>
      <trkpt lat="41.9971560" lon="-5.9616560">
        <ele>732.9</ele>
        <time>2019-08-15T16:16:41Z</time>
      </trkpt>
      <trkpt lat="41.9971380" lon="-5.9617220">
        <ele>732.9</ele>
        <time>2019-08-15T16:16:42Z</time>
      </trkpt>
      <trkpt lat="41.9971190" lon="-5.9617880">
        <ele>732.8</ele>
        <time>2019-08-15T16:16:43Z</time>
      </trkpt>
      <trkpt lat="41.9971010" lon="-5.9618530">
        <ele>732.8</ele>
        <time>2019-08-15T16:16:44Z</time>
      </trkpt>
      <trkpt lat="41.9970830" lon="-5.9619170">
        <ele>732.8</ele>
        <time>2019-08-15T16:16:45Z</time>
      </trkpt>
      <trkpt lat="41.9970650" lon="-5.9619840">
        <ele>732.7</ele>
        <time>2019-08-15T16:16:46Z</time>
      </trkpt>
      <trkpt lat="41.9970470" lon="-5.9620520">
        <ele>732.7</ele>
        <time>2019-08-15T16:16:47Z</time>
      </trkpt>
      <trkpt lat="41.9970290" lon="-5.9621200">
        <ele>732.7</ele>
        <time>2019-08-15T16:16:48Z</time>
      </trkpt>
      <trkpt lat="41.9970100" lon="-5.9621880">
        <ele>732.7</ele>
        <time>2019-08-15T16:16:49Z</time>
      </trkpt>
      <trkpt lat="41.9969910" lon="-5.9622540">
        <ele>732.6</ele>
        <time>2019-08-15T16:16:50Z</time>
      </trkpt>
      <trkpt lat="41.9969720" lon="-5.9623200">
        <ele>732.6</ele>
        <time>2019-08-15T16:16:51Z</time>
      </trkpt>
      <trkpt lat="41.9969530" lon="-5.9623830">
        <ele>732.6</ele>
        <time>2019-08-15T16:16:52Z</time>
      </trkpt>
      <trkpt lat="41.9969370" lon="-5.9624470">
        <ele>732.6</ele>
        <time>2019-08-15T16:16:53Z</time>
      </trkpt>
      <trkpt lat="41.9969200" lon="-5.9625100">
        <ele>732.6</ele>
        <time>2019-08-15T16:16:54Z</time>
      </trkpt>
      <trkpt lat="41.9969040" lon="-5.9625750">
        <ele>732.6</ele>
        <time>2019-08-15T16:16:55Z</time>
      </trkpt>
      <trkpt lat="41.9968860" lon="-5.9626400">
        <ele>732.6</ele>
        <time>2019-08-15T16:16:56Z</time>
      </trkpt>
      <trkpt lat="41.9968690" lon="-5.9627060">
        <ele>732.6</ele>
        <time>2019-08-15T16:16:57Z</time>
      </trkpt>
      <trkpt lat="41.9968510" lon="-5.9627740">
        <ele>732.6</ele>
        <time>2019-08-15T16:16:58Z</time>
      </trkpt>
      <trkpt lat="41.9968340" lon="-5.9628420">
        <ele>732.6</ele>
        <time>2019-08-15T16:16:59Z</time>
      </trkpt>
      <trkpt lat="41.9968180" lon="-5.9629100">
        <ele>732.6</ele>
        <time>2019-08-15T16:17:00Z</time>
      </trkpt>
      <trkpt lat="41.9968000" lon="-5.9629760">
        <ele>732.6</ele>
        <time>2019-08-15T16:17:01Z</time>
      </trkpt>
      <trkpt lat="41.9967800" lon="-5.9630390">
        <ele>732.6</ele>
        <time>2019-08-15T16:17:02Z</time>
      </trkpt>
      <trkpt lat="41.9967620" lon="-5.9631010">
        <ele>732.6</ele>
        <time>2019-08-15T16:17:03Z</time>
      </trkpt>
      <trkpt lat="41.9967460" lon="-5.9631640">
        <ele>732.6</ele>
        <time>2019-08-15T16:17:04Z</time>
      </trkpt>
      <trkpt lat="41.9967290" lon="-5.9632270">
        <ele>732.6</ele>
        <time>2019-08-15T16:17:05Z</time>
      </trkpt>
      <trkpt lat="41.9967100" lon="-5.9632920">
        <ele>732.6</ele>
        <time>2019-08-15T16:17:06Z</time>
      </trkpt>
      <trkpt lat="41.9966920" lon="-5.9633580">
        <ele>732.6</ele>
        <time>2019-08-15T16:17:07Z</time>
      </trkpt>
      <trkpt lat="41.9966740" lon="-5.9634230">
        <ele>732.6</ele>
        <time>2019-08-15T16:17:08Z</time>
      </trkpt>
      <trkpt lat="41.9966560" lon="-5.9634870">
        <ele>732.6</ele>
        <time>2019-08-15T16:17:09Z</time>
      </trkpt>
      <trkpt lat="41.9966390" lon="-5.9635500">
        <ele>732.6</ele>
        <time>2019-08-15T16:17:10Z</time>
      </trkpt>
      <trkpt lat="41.9966210" lon="-5.9636120">
        <ele>732.6</ele>
        <time>2019-08-15T16:17:11Z</time>
      </trkpt>
      <trkpt lat="41.9966040" lon="-5.9636710">
        <ele>732.6</ele>
        <time>2019-08-15T16:17:12Z</time>
      </trkpt>
      <trkpt lat="41.9965900" lon="-5.9637300">
        <ele>732.6</ele>
        <time>2019-08-15T16:17:13Z</time>
      </trkpt>
      <trkpt lat="41.9965750" lon="-5.9637870">
        <ele>732.6</ele>
        <time>2019-08-15T16:17:14Z</time>
      </trkpt>
      <trkpt lat="41.9965570" lon="-5.9638430">
        <ele>732.6</ele>
        <time>2019-08-15T16:17:15Z</time>
      </trkpt>
      <trkpt lat="41.9965410" lon="-5.9638940">
        <ele>732.7</ele>
        <time>2019-08-15T16:17:16Z</time>
      </trkpt>
      <trkpt lat="41.9965260" lon="-5.9639450">
        <ele>732.7</ele>
        <time>2019-08-15T16:17:17Z</time>
      </trkpt>
      <trkpt lat="41.9965120" lon="-5.9639980">
        <ele>732.7</ele>
        <time>2019-08-15T16:17:18Z</time>
      </trkpt>
      <trkpt lat="41.9964980" lon="-5.9640520">
        <ele>732.7</ele>
        <time>2019-08-15T16:17:19Z</time>
      </trkpt>
      <trkpt lat="41.9964850" lon="-5.9641100">
        <ele>732.7</ele>
        <time>2019-08-15T16:17:20Z</time>
      </trkpt>
      <trkpt lat="41.9964700" lon="-5.9641700">
        <ele>732.7</ele>
        <time>2019-08-15T16:17:21Z</time>
      </trkpt>
      <trkpt lat="41.9964550" lon="-5.9642280">
        <ele>732.8</ele>
        <time>2019-08-15T16:17:22Z</time>
      </trkpt>
      <trkpt lat="41.9964410" lon="-5.9642870">
        <ele>732.8</ele>
        <time>2019-08-15T16:17:23Z</time>
      </trkpt>
      <trkpt lat="41.9964250" lon="-5.9643460">
        <ele>732.8</ele>
        <time>2019-08-15T16:17:24Z</time>
      </trkpt>
      <trkpt lat="41.9964100" lon="-5.9644050">
        <ele>732.8</ele>
        <time>2019-08-15T16:17:25Z</time>
      </trkpt>
      <trkpt lat="41.9963930" lon="-5.9644650">
        <ele>732.8</ele>
        <time>2019-08-15T16:17:26Z</time>
      </trkpt>
      <trkpt lat="41.9963760" lon="-5.9645220">
        <ele>732.8</ele>
        <time>2019-08-15T16:17:27Z</time>
      </trkpt>
      <trkpt lat="41.9963600" lon="-5.9645810">
        <ele>732.8</ele>
        <time>2019-08-15T16:17:28Z</time>
      </trkpt>
      <trkpt lat="41.9963430" lon="-5.9646380">
        <ele>732.9</ele>
        <time>2019-08-15T16:17:29Z</time>
      </trkpt>
      <trkpt lat="41.9963280" lon="-5.9646970">
        <ele>732.9</ele>
        <time>2019-08-15T16:17:30Z</time>
      </trkpt>
      <trkpt lat="41.9963130" lon="-5.9647560">
        <ele>732.9</ele>
        <time>2019-08-15T16:17:31Z</time>
      </trkpt>
      <trkpt lat="41.9962970" lon="-5.9648140">
        <ele>732.9</ele>
        <time>2019-08-15T16:17:32Z</time>
      </trkpt>
      <trkpt lat="41.9962810" lon="-5.9648710">
        <ele>733.0</ele>
        <time>2019-08-15T16:17:33Z</time>
      </trkpt>
      <trkpt lat="41.9962660" lon="-5.9649290">
        <ele>733.0</ele>
        <time>2019-08-15T16:17:34Z</time>
      </trkpt>
      <trkpt lat="41.9962500" lon="-5.9649850">
        <ele>733.0</ele>
        <time>2019-08-15T16:17:35Z</time>
      </trkpt>
      <trkpt lat="41.9962340" lon="-5.9650420">
        <ele>733.1</ele>
        <time>2019-08-15T16:17:36Z</time>
      </trkpt>
      <trkpt lat="41.9962190" lon="-5.9650970">
        <ele>733.1</ele>
        <time>2019-08-15T16:17:37Z</time>
      </trkpt>
      <trkpt lat="41.9962040" lon="-5.9651520">
        <ele>733.1</ele>
        <time>2019-08-15T16:17:38Z</time>
      </trkpt>
      <trkpt lat="41.9961900" lon="-5.9652060">
        <ele>733.2</ele>
        <time>2019-08-15T16:17:39Z</time>
      </trkpt>
      <trkpt lat="41.9961750" lon="-5.9652610">
        <ele>733.2</ele>
        <time>2019-08-15T16:17:40Z</time>
      </trkpt>
      <trkpt lat="41.9961600" lon="-5.9653160">
        <ele>733.3</ele>
        <time>2019-08-15T16:17:41Z</time>
      </trkpt>
      <trkpt lat="41.9961450" lon="-5.9653710">
        <ele>733.3</ele>
        <time>2019-08-15T16:17:42Z</time>
      </trkpt>
      <trkpt lat="41.9961300" lon="-5.9654280">
        <ele>733.3</ele>
        <time>2019-08-15T16:17:43Z</time>
      </trkpt>
      <trkpt lat="41.9961150" lon="-5.9654850">
        <ele>733.4</ele>
        <time>2019-08-15T16:17:44Z</time>
      </trkpt>
      <trkpt lat="41.9961000" lon="-5.9655410">
        <ele>733.5</ele>
        <time>2019-08-15T16:17:45Z</time>
      </trkpt>
      <trkpt lat="41.9960840" lon="-5.9655990">
        <ele>733.5</ele>
        <time>2019-08-15T16:17:46Z</time>
      </trkpt>
      <trkpt lat="41.9960690" lon="-5.9656570">
        <ele>733.6</ele>
        <time>2019-08-15T16:17:47Z</time>
      </trkpt>
      <trkpt lat="41.9960550" lon="-5.9657150">
        <ele>733.7</ele>
        <time>2019-08-15T16:17:48Z</time>
      </trkpt>
      <trkpt lat="41.9960390" lon="-5.9657720">
        <ele>733.8</ele>
        <time>2019-08-15T16:17:49Z</time>
      </trkpt>
      <trkpt lat="41.9960230" lon="-5.9658270">
        <ele>733.8</ele>
        <time>2019-08-15T16:17:50Z</time>
      </trkpt>
      <trkpt lat="41.9960070" lon="-5.9658850">
        <ele>733.9</ele>
        <time>2019-08-15T16:17:51Z</time>
      </trkpt>
      <trkpt lat="41.9959930" lon="-5.9659410">
        <ele>734.0</ele>
        <time>2019-08-15T16:17:52Z</time>
      </trkpt>
      <trkpt lat="41.9959790" lon="-5.9659970">
        <ele>734.0</ele>
        <time>2019-08-15T16:17:53Z</time>
      </trkpt>
      <trkpt lat="41.9959630" lon="-5.9660520">
        <ele>734.1</ele>
        <time>2019-08-15T16:17:54Z</time>
      </trkpt>
      <trkpt lat="41.9959470" lon="-5.9661110">
        <ele>734.2</ele>
        <time>2019-08-15T16:17:55Z</time>
      </trkpt>
      <trkpt lat="41.9959320" lon="-5.9661680">
        <ele>734.3</ele>
        <time>2019-08-15T16:17:56Z</time>
      </trkpt>
      <trkpt lat="41.9959160" lon="-5.9662250">
        <ele>734.4</ele>
        <time>2019-08-15T16:17:57Z</time>
      </trkpt>
      <trkpt lat="41.9959000" lon="-5.9662830">
        <ele>734.5</ele>
        <time>2019-08-15T16:17:58Z</time>
      </trkpt>
      <trkpt lat="41.9958850" lon="-5.9663410">
        <ele>734.6</ele>
        <time>2019-08-15T16:17:59Z</time>
      </trkpt>
      <trkpt lat="41.9958700" lon="-5.9664000">
        <ele>734.7</ele>
        <time>2019-08-15T16:18:00Z</time>
      </trkpt>
      <trkpt lat="41.9958560" lon="-5.9664600">
        <ele>734.8</ele>
        <time>2019-08-15T16:18:01Z</time>
      </trkpt>
      <trkpt lat="41.9958420" lon="-5.9665210">
        <ele>734.9</ele>
        <time>2019-08-15T16:18:02Z</time>
      </trkpt>
      <trkpt lat="41.9958270" lon="-5.9665830">
        <ele>735.0</ele>
        <time>2019-08-15T16:18:03Z</time>
      </trkpt>
      <trkpt lat="41.9958110" lon="-5.9666460">
        <ele>735.1</ele>
        <time>2019-08-15T16:18:04Z</time>
      </trkpt>
      <trkpt lat="41.9957970" lon="-5.9667100">
        <ele>735.2</ele>
        <time>2019-08-15T16:18:05Z</time>
      </trkpt>
      <trkpt lat="41.9957840" lon="-5.9667730">
        <ele>735.2</ele>
        <time>2019-08-15T16:18:06Z</time>
      </trkpt>
      <trkpt lat="41.9957700" lon="-5.9668350">
        <ele>735.3</ele>
        <time>2019-08-15T16:18:07Z</time>
      </trkpt>
      <trkpt lat="41.9957560" lon="-5.9668950">
        <ele>735.4</ele>
        <time>2019-08-15T16:18:08Z</time>
      </trkpt>
      <trkpt lat="41.9957460" lon="-5.9669520">
        <ele>735.5</ele>
        <time>2019-08-15T16:18:09Z</time>
      </trkpt>
      <trkpt lat="41.9957360" lon="-5.9670060">
        <ele>735.5</ele>
        <time>2019-08-15T16:18:10Z</time>
      </trkpt>
      <trkpt lat="41.9957260" lon="-5.9670600">
        <ele>735.6</ele>
        <time>2019-08-15T16:18:11Z</time>
      </trkpt>
      <trkpt lat="41.9957160" lon="-5.9671140">
        <ele>735.7</ele>
        <time>2019-08-15T16:18:12Z</time>
      </trkpt>
      <trkpt lat="41.9957050" lon="-5.9671710">
        <ele>735.7</ele>
        <time>2019-08-15T16:18:13Z</time>
      </trkpt>
      <trkpt lat="41.9956950" lon="-5.9672300">
        <ele>735.8</ele>
        <time>2019-08-15T16:18:14Z</time>
      </trkpt>
      <trkpt lat="41.9956850" lon="-5.9672890">
        <ele>735.9</ele>
        <time>2019-08-15T16:18:15Z</time>
      </trkpt>
      <trkpt lat="41.9956740" lon="-5.9673500">
        <ele>735.9</ele>
        <time>2019-08-15T16:18:16Z</time>
      </trkpt>
      <trkpt lat="41.9956650" lon="-5.9674140">
        <ele>735.9</ele>
        <time>2019-08-15T16:18:17Z</time>
      </trkpt>
      <trkpt lat="41.9956550" lon="-5.9674790">
        <ele>736.0</ele>
        <time>2019-08-15T16:18:18Z</time>
      </trkpt>
      <trkpt lat="41.9956440" lon="-5.9675430">
        <ele>736.0</ele>
        <time>2019-08-15T16:18:19Z</time>
      </trkpt>
      <trkpt lat="41.9956330" lon="-5.9676050">
        <ele>736.0</ele>
        <time>2019-08-15T16:18:20Z</time>
      </trkpt>
      <trkpt lat="41.9956230" lon="-5.9676660">
        <ele>736.1</ele>
        <time>2019-08-15T16:18:21Z</time>
      </trkpt>
      <trkpt lat="41.9956120" lon="-5.9677240">
        <ele>736.1</ele>
        <time>2019-08-15T16:18:22Z</time>
      </trkpt>
      <trkpt lat="41.9956020" lon="-5.9677810">
        <ele>736.1</ele>
        <time>2019-08-15T16:18:23Z</time>
      </trkpt>
      <trkpt lat="41.9955930" lon="-5.9678370">
        <ele>736.1</ele>
        <time>2019-08-15T16:18:24Z</time>
      </trkpt>
      <trkpt lat="41.9955830" lon="-5.9678900">
        <ele>736.1</ele>
        <time>2019-08-15T16:18:25Z</time>
      </trkpt>
      <trkpt lat="41.9955730" lon="-5.9679390">
        <ele>736.1</ele>
        <time>2019-08-15T16:18:26Z</time>
      </trkpt>
      <trkpt lat="41.9955630" lon="-5.9679890">
        <ele>736.1</ele>
        <time>2019-08-15T16:18:27Z</time>
      </trkpt>
      <trkpt lat="41.9955530" lon="-5.9680440">
        <ele>736.1</ele>
        <time>2019-08-15T16:18:28Z</time>
      </trkpt>
      <trkpt lat="41.9955450" lon="-5.9681000">
        <ele>736.0</ele>
        <time>2019-08-15T16:18:29Z</time>
      </trkpt>
      <trkpt lat="41.9955350" lon="-5.9681570">
        <ele>736.0</ele>
        <time>2019-08-15T16:18:30Z</time>
      </trkpt>
      <trkpt lat="41.9955240" lon="-5.9682140">
        <ele>736.0</ele>
        <time>2019-08-15T16:18:31Z</time>
      </trkpt>
      <trkpt lat="41.9955140" lon="-5.9682710">
        <ele>735.9</ele>
        <time>2019-08-15T16:18:32Z</time>
      </trkpt>
      <trkpt lat="41.9955030" lon="-5.9683290">
        <ele>735.9</ele>
        <time>2019-08-15T16:18:33Z</time>
      </trkpt>
      <trkpt lat="41.9954940" lon="-5.9683890">
        <ele>735.9</ele>
        <time>2019-08-15T16:18:34Z</time>
      </trkpt>
      <trkpt lat="41.9954850" lon="-5.9684510">
        <ele>735.8</ele>
        <time>2019-08-15T16:18:35Z</time>
      </trkpt>
      <trkpt lat="41.9954750" lon="-5.9685160">
        <ele>735.8</ele>
        <time>2019-08-15T16:18:36Z</time>
      </trkpt>
      <trkpt lat="41.9954660" lon="-5.9685830">
        <ele>735.8</ele>
        <time>2019-08-15T16:18:37Z</time>
      </trkpt>
      <trkpt lat="41.9954560" lon="-5.9686520">
        <ele>735.8</ele>
        <time>2019-08-15T16:18:38Z</time>
      </trkpt>
      <trkpt lat="41.9954470" lon="-5.9687200">
        <ele>735.8</ele>
        <time>2019-08-15T16:18:39Z</time>
      </trkpt>
      <trkpt lat="41.9954380" lon="-5.9687870">
        <ele>735.8</ele>
        <time>2019-08-15T16:18:40Z</time>
      </trkpt>
      <trkpt lat="41.9954270" lon="-5.9688540">
        <ele>735.8</ele>
        <time>2019-08-15T16:18:41Z</time>
      </trkpt>
      <trkpt lat="41.9954150" lon="-5.9689190">
        <ele>735.8</ele>
        <time>2019-08-15T16:18:42Z</time>
      </trkpt>
      <trkpt lat="41.9954040" lon="-5.9689840">
        <ele>735.7</ele>
        <time>2019-08-15T16:18:43Z</time>
      </trkpt>
      <trkpt lat="41.9953930" lon="-5.9690470">
        <ele>735.7</ele>
        <time>2019-08-15T16:18:44Z</time>
      </trkpt>
      <trkpt lat="41.9953820" lon="-5.9691100">
        <ele>735.7</ele>
        <time>2019-08-15T16:18:45Z</time>
      </trkpt>
      <trkpt lat="41.9953710" lon="-5.9691690">
        <ele>735.7</ele>
        <time>2019-08-15T16:18:46Z</time>
      </trkpt>
      <trkpt lat="41.9953610" lon="-5.9692290">
        <ele>735.7</ele>
        <time>2019-08-15T16:18:47Z</time>
      </trkpt>
      <trkpt lat="41.9953550" lon="-5.9692900">
        <ele>735.6</ele>
        <time>2019-08-15T16:18:48Z</time>
      </trkpt>
      <trkpt lat="41.9953460" lon="-5.9693520">
        <ele>735.6</ele>
        <time>2019-08-15T16:18:49Z</time>
      </trkpt>
      <trkpt lat="41.9953360" lon="-5.9694120">
        <ele>735.6</ele>
        <time>2019-08-15T16:18:50Z</time>
      </trkpt>
      <trkpt lat="41.9953290" lon="-5.9694690">
        <ele>735.6</ele>
        <time>2019-08-15T16:18:51Z</time>
      </trkpt>
      <trkpt lat="41.9953230" lon="-5.9695260">
        <ele>735.6</ele>
        <time>2019-08-15T16:18:52Z</time>
      </trkpt>
      <trkpt lat="41.9953130" lon="-5.9695830">
        <ele>735.6</ele>
        <time>2019-08-15T16:18:53Z</time>
      </trkpt>
      <trkpt lat="41.9953040" lon="-5.9696410">
        <ele>735.6</ele>
        <time>2019-08-15T16:18:54Z</time>
      </trkpt>
      <trkpt lat="41.9952970" lon="-5.9696940">
        <ele>735.6</ele>
        <time>2019-08-15T16:18:55Z</time>
      </trkpt>
      <trkpt lat="41.9952890" lon="-5.9697480">
        <ele>735.6</ele>
        <time>2019-08-15T16:18:56Z</time>
      </trkpt>
      <trkpt lat="41.9952780" lon="-5.9698050">
        <ele>735.6</ele>
        <time>2019-08-15T16:18:57Z</time>
      </trkpt>
      <trkpt lat="41.9952670" lon="-5.9698630">
        <ele>735.6</ele>
        <time>2019-08-15T16:18:58Z</time>
      </trkpt>
      <trkpt lat="41.9952590" lon="-5.9699250">
        <ele>735.7</ele>
        <time>2019-08-15T16:18:59Z</time>
      </trkpt>
      <trkpt lat="41.9952480" lon="-5.9699880">
        <ele>735.7</ele>
        <time>2019-08-15T16:19:00Z</time>
      </trkpt>
      <trkpt lat="41.9952370" lon="-5.9700520">
        <ele>735.7</ele>
        <time>2019-08-15T16:19:01Z</time>
      </trkpt>
      <trkpt lat="41.9952250" lon="-5.9701190">
        <ele>735.7</ele>
        <time>2019-08-15T16:19:02Z</time>
      </trkpt>
      <trkpt lat="41.9952130" lon="-5.9701850">
        <ele>735.8</ele>
        <time>2019-08-15T16:19:03Z</time>
      </trkpt>
      <trkpt lat="41.9952020" lon="-5.9702530">
        <ele>735.8</ele>
        <time>2019-08-15T16:19:04Z</time>
      </trkpt>
      <trkpt lat="41.9951940" lon="-5.9703200">
        <ele>735.9</ele>
        <time>2019-08-15T16:19:05Z</time>
      </trkpt>
      <trkpt lat="41.9951840" lon="-5.9703870">
        <ele>736.0</ele>
        <time>2019-08-15T16:19:06Z</time>
      </trkpt>
      <trkpt lat="41.9951750" lon="-5.9704540">
        <ele>736.1</ele>
        <time>2019-08-15T16:19:07Z</time>
      </trkpt>
      <trkpt lat="41.9951670" lon="-5.9705210">
        <ele>736.2</ele>
        <time>2019-08-15T16:19:08Z</time>
      </trkpt>
      <trkpt lat="41.9951570" lon="-5.9705840">
        <ele>736.2</ele>
        <time>2019-08-15T16:19:09Z</time>
      </trkpt>
      <trkpt lat="41.9951460" lon="-5.9706440">
        <ele>736.3</ele>
        <time>2019-08-15T16:19:10Z</time>
      </trkpt>
      <trkpt lat="41.9951380" lon="-5.9707040">
        <ele>736.4</ele>
        <time>2019-08-15T16:19:11Z</time>
      </trkpt>
      <trkpt lat="41.9951290" lon="-5.9707610">
        <ele>736.5</ele>
        <time>2019-08-15T16:19:12Z</time>
      </trkpt>
      <trkpt lat="41.9951210" lon="-5.9708150">
        <ele>736.6</ele>
        <time>2019-08-15T16:19:13Z</time>
      </trkpt>
      <trkpt lat="41.9951120" lon="-5.9708640">
        <ele>736.7</ele>
        <time>2019-08-15T16:19:14Z</time>
      </trkpt>
      <trkpt lat="41.9951040" lon="-5.9709130">
        <ele>736.8</ele>
        <time>2019-08-15T16:19:15Z</time>
      </trkpt>
      <trkpt lat="41.9950930" lon="-5.9709580">
        <ele>736.9</ele>
        <time>2019-08-15T16:19:16Z</time>
      </trkpt>
      <trkpt lat="41.9950810" lon="-5.9710010">
        <ele>737.0</ele>
        <time>2019-08-15T16:19:17Z</time>
      </trkpt>
      <trkpt lat="41.9950670" lon="-5.9710400">
        <ele>737.1</ele>
        <time>2019-08-15T16:19:18Z</time>
      </trkpt>
      <trkpt lat="41.9950500" lon="-5.9710750">
        <ele>737.2</ele>
        <time>2019-08-15T16:19:19Z</time>
      </trkpt>
      <trkpt lat="41.9950330" lon="-5.9711060">
        <ele>737.2</ele>
        <time>2019-08-15T16:19:20Z</time>
      </trkpt>
      <trkpt lat="41.9950170" lon="-5.9711290">
        <ele>737.3</ele>
        <time>2019-08-15T16:19:21Z</time>
      </trkpt>
      <trkpt lat="41.9949840" lon="-5.9711650">
        <ele>737.1</ele>
        <time>2019-08-15T16:19:23Z</time>
      </trkpt>
      <trkpt lat="41.9949620" lon="-5.9711770">
        <ele>736.9</ele>
        <time>2019-08-15T16:19:25Z</time>
      </trkpt>
      <trkpt lat="41.9949120" lon="-5.9711800">
        <ele>736.6</ele>
        <time>2019-08-15T16:20:12Z</time>
      </trkpt>
      <trkpt lat="41.9948700" lon="-5.9711680">
        <ele>736.3</ele>
        <time>2019-08-15T16:20:14Z</time>
      </trkpt>
      <trkpt lat="41.9948250" lon="-5.9711420">
        <ele>736.0</ele>
        <time>2019-08-15T16:20:16Z</time>
      </trkpt>
      <trkpt lat="41.9947960" lon="-5.9710930">
        <ele>735.7</ele>
        <time>2019-08-15T16:20:18Z</time>
      </trkpt>
      <trkpt lat="41.9947780" lon="-5.9710370">
        <ele>735.6</ele>
        <time>2019-08-15T16:20:20Z</time>
      </trkpt>
      <trkpt lat="41.9947610" lon="-5.9709740">
        <ele>735.5</ele>
        <time>2019-08-15T16:20:22Z</time>
      </trkpt>
      <trkpt lat="41.9947270" lon="-5.9709090">
        <ele>735.3</ele>
        <time>2019-08-15T16:20:24Z</time>
      </trkpt>
      <trkpt lat="41.9947030" lon="-5.9708760">
        <ele>735.1</ele>
        <time>2019-08-15T16:20:25Z</time>
      </trkpt>
      <trkpt lat="41.9946790" lon="-5.9708390">
        <ele>735.0</ele>
        <time>2019-08-15T16:20:26Z</time>
      </trkpt>
      <trkpt lat="41.9946580" lon="-5.9707970">
        <ele>734.9</ele>
        <time>2019-08-15T16:20:27Z</time>
      </trkpt>
      <trkpt lat="41.9946410" lon="-5.9707520">
        <ele>734.7</ele>
        <time>2019-08-15T16:20:28Z</time>
      </trkpt>
      <trkpt lat="41.9946310" lon="-5.9707080">
        <ele>734.6</ele>
        <time>2019-08-15T16:20:29Z</time>
      </trkpt>
      <trkpt lat="41.9946230" lon="-5.9706650">
        <ele>734.4</ele>
        <time>2019-08-15T16:20:30Z</time>
      </trkpt>
      <trkpt lat="41.9946170" lon="-5.9706220">
        <ele>734.3</ele>
        <time>2019-08-15T16:20:31Z</time>
      </trkpt>
      <trkpt lat="41.9946130" lon="-5.9705810">
        <ele>734.1</ele>
        <time>2019-08-15T16:20:32Z</time>
      </trkpt>
      <trkpt lat="41.9946110" lon="-5.9705420">
        <ele>734.0</ele>
        <time>2019-08-15T16:20:33Z</time>
      </trkpt>
      <trkpt lat="41.9946100" lon="-5.9705060">
        <ele>733.9</ele>
        <time>2019-08-15T16:20:34Z</time>
      </trkpt>
      <trkpt lat="41.9946070" lon="-5.9704490">
        <ele>733.7</ele>
        <time>2019-08-15T16:20:36Z</time>
      </trkpt>
      <trkpt lat="41.9946050" lon="-5.9703950">
        <ele>733.5</ele>
        <time>2019-08-15T16:20:38Z</time>
      </trkpt>
      <trkpt lat="41.9946040" lon="-5.9703510">
        <ele>733.3</ele>
        <time>2019-08-15T16:20:40Z</time>
      </trkpt>
      <trkpt lat="41.9946060" lon="-5.9703310">
        <ele>733.2</ele>
        <time>2019-08-15T16:20:43Z</time>
      </trkpt>
      <trkpt lat="41.9944440" lon="-5.9702680">
        <ele>732.0</ele>
        <time>2019-08-15T16:21:47Z</time>
      </trkpt>
      <trkpt lat="41.9944070" lon="-5.9703040">
        <ele>732.1</ele>
        <time>2019-08-15T16:21:49Z</time>
      </trkpt>
      <trkpt lat="41.9943850" lon="-5.9703210">
        <ele>732.2</ele>
        <time>2019-08-15T16:21:52Z</time>
      </trkpt>
      <trkpt lat="41.9944050" lon="-5.9703100">
        <ele>732.3</ele>
        <time>2019-08-15T16:21:55Z</time>
      </trkpt>
      <trkpt lat="41.9944270" lon="-5.9703020">
        <ele>732.4</ele>
        <time>2019-08-15T16:21:58Z</time>
      </trkpt>
      <trkpt lat="41.9944560" lon="-5.9703000">
        <ele>732.4</ele>
        <time>2019-08-15T16:22:01Z</time>
      </trkpt>
      <trkpt lat="41.9944930" lon="-5.9703140">
        <ele>732.6</ele>
        <time>2019-08-15T16:22:04Z</time>
      </trkpt>
      <trkpt lat="41.9945190" lon="-5.9703220">
        <ele>732.7</ele>
        <time>2019-08-15T16:22:07Z</time>
      </trkpt>
      <trkpt lat="41.9945480" lon="-5.9703460">
        <ele>732.8</ele>
        <time>2019-08-15T16:22:11Z</time>
      </trkpt>
      <trkpt lat="41.9945610" lon="-5.9703680">
        <ele>732.8</ele>
        <time>2019-08-15T16:22:15Z</time>
      </trkpt>
      <trkpt lat="41.9945590" lon="-5.9703890">
        <ele>732.9</ele>
        <time>2019-08-15T16:22:20Z</time>
      </trkpt>
      <trkpt lat="41.9866960" lon="-6.0182830">
        <ele>732.2</ele>
        <time>2019-08-16T06:05:33Z</time>
      </trkpt>
      <trkpt lat="41.9861160" lon="-6.0181480">
        <ele>730.6</ele>
        <time>2019-08-16T06:05:36Z</time>
      </trkpt>
      <trkpt lat="41.9860990" lon="-6.0182030">
        <ele>730.6</ele>
        <time>2019-08-16T06:05:37Z</time>
      </trkpt>
      <trkpt lat="41.9860540" lon="-6.0183060">
        <ele>730.6</ele>
        <time>2019-08-16T06:05:38Z</time>
      </trkpt>
      <trkpt lat="41.9860360" lon="-6.0183490">
        <ele>730.7</ele>
        <time>2019-08-16T06:05:39Z</time>
      </trkpt>
      <trkpt lat="41.9860220" lon="-6.0183880">
        <ele>730.7</ele>
        <time>2019-08-16T06:05:40Z</time>
      </trkpt>
      <trkpt lat="41.9860040" lon="-6.0184390">
        <ele>730.7</ele>
        <time>2019-08-16T06:05:41Z</time>
      </trkpt>
      <trkpt lat="41.9859860" lon="-6.0184870">
        <ele>730.7</ele>
        <time>2019-08-16T06:05:42Z</time>
      </trkpt>
      <trkpt lat="41.9859660" lon="-6.0185350">
        <ele>730.7</ele>
        <time>2019-08-16T06:05:43Z</time>
      </trkpt>
      <trkpt lat="41.9859420" lon="-6.0185840">
        <ele>730.7</ele>
        <time>2019-08-16T06:05:44Z</time>
      </trkpt>
      <trkpt lat="41.9858990" lon="-6.0186780">
        <ele>730.7</ele>
        <time>2019-08-16T06:05:45Z</time>
      </trkpt>
      <trkpt lat="41.9858810" lon="-6.0187300">
        <ele>730.7</ele>
        <time>2019-08-16T06:05:46Z</time>
      </trkpt>
      <trkpt lat="41.9858580" lon="-6.0187820">
        <ele>730.7</ele>
        <time>2019-08-16T06:05:47Z</time>
      </trkpt>
      <trkpt lat="41.9858390" lon="-6.0188330">
        <ele>730.7</ele>
        <time>2019-08-16T06:05:48Z</time>
      </trkpt>
      <trkpt lat="41.9858200" lon="-6.0188860">
        <ele>730.7</ele>
        <time>2019-08-16T06:05:49Z</time>
      </trkpt>
      <trkpt lat="41.9857990" lon="-6.0189360">
        <ele>730.7</ele>
        <time>2019-08-16T06:05:50Z</time>
      </trkpt>
      <trkpt lat="41.9857760" lon="-6.0189880">
        <ele>730.7</ele>
        <time>2019-08-16T06:05:51Z</time>
      </trkpt>
      <trkpt lat="41.9857520" lon="-6.0190370">
        <ele>730.7</ele>
        <time>2019-08-16T06:05:52Z</time>
      </trkpt>
      <trkpt lat="41.9857290" lon="-6.0190870">
        <ele>730.8</ele>
        <time>2019-08-16T06:05:53Z</time>
      </trkpt>
      <trkpt lat="41.9857030" lon="-6.0191390">
        <ele>730.8</ele>
        <time>2019-08-16T06:05:54Z</time>
      </trkpt>
      <trkpt lat="41.9856770" lon="-6.0191930">
        <ele>730.8</ele>
        <time>2019-08-16T06:05:55Z</time>
      </trkpt>
      <trkpt lat="41.9856520" lon="-6.0192440">
        <ele>730.8</ele>
        <time>2019-08-16T06:05:56Z</time>
      </trkpt>
      <trkpt lat="41.9856280" lon="-6.0192910">
        <ele>730.8</ele>
        <time>2019-08-16T06:05:57Z</time>
      </trkpt>
      <trkpt lat="41.9856020" lon="-6.0193400">
        <ele>730.8</ele>
        <time>2019-08-16T06:05:58Z</time>
      </trkpt>
      <trkpt lat="41.9855750" lon="-6.0193920">
        <ele>730.8</ele>
        <time>2019-08-16T06:05:59Z</time>
      </trkpt>
      <trkpt lat="41.9855500" lon="-6.0194450">
        <ele>730.8</ele>
        <time>2019-08-16T06:06:00Z</time>
      </trkpt>
      <trkpt lat="41.9855260" lon="-6.0195000">
        <ele>730.8</ele>
        <time>2019-08-16T06:06:01Z</time>
      </trkpt>
      <trkpt lat="41.9855030" lon="-6.0195550">
        <ele>730.8</ele>
        <time>2019-08-16T06:06:02Z</time>
      </trkpt>
      <trkpt lat="41.9854820" lon="-6.0196080">
        <ele>730.8</ele>
        <time>2019-08-16T06:06:03Z</time>
      </trkpt>
      <trkpt lat="41.9854570" lon="-6.0196590">
        <ele>730.8</ele>
        <time>2019-08-16T06:06:04Z</time>
      </trkpt>
      <trkpt lat="41.9854320" lon="-6.0197100">
        <ele>730.8</ele>
        <time>2019-08-16T06:06:05Z</time>
      </trkpt>
      <trkpt lat="41.9854070" lon="-6.0197600">
        <ele>730.8</ele>
        <time>2019-08-16T06:06:06Z</time>
      </trkpt>
      <trkpt lat="41.9853820" lon="-6.0198090">
        <ele>730.9</ele>
        <time>2019-08-16T06:06:07Z</time>
      </trkpt>
      <trkpt lat="41.9853560" lon="-6.0198570">
        <ele>730.9</ele>
        <time>2019-08-16T06:06:08Z</time>
      </trkpt>
      <trkpt lat="41.9853300" lon="-6.0199060">
        <ele>730.9</ele>
        <time>2019-08-16T06:06:09Z</time>
      </trkpt>
      <trkpt lat="41.9853050" lon="-6.0199530">
        <ele>730.9</ele>
        <time>2019-08-16T06:06:10Z</time>
      </trkpt>
      <trkpt lat="41.9852790" lon="-6.0200010">
        <ele>730.9</ele>
        <time>2019-08-16T06:06:11Z</time>
      </trkpt>
      <trkpt lat="41.9852530" lon="-6.0200470">
        <ele>730.9</ele>
        <time>2019-08-16T06:06:12Z</time>
      </trkpt>
      <trkpt lat="41.9852280" lon="-6.0200930">
        <ele>730.9</ele>
        <time>2019-08-16T06:06:13Z</time>
      </trkpt>
      <trkpt lat="41.9852020" lon="-6.0201390">
        <ele>730.9</ele>
        <time>2019-08-16T06:06:14Z</time>
      </trkpt>
      <trkpt lat="41.9851770" lon="-6.0201860">
        <ele>730.9</ele>
        <time>2019-08-16T06:06:15Z</time>
      </trkpt>
      <trkpt lat="41.9851530" lon="-6.0202340">
        <ele>730.9</ele>
        <time>2019-08-16T06:06:16Z</time>
      </trkpt>
      <trkpt lat="41.9851270" lon="-6.0202830">
        <ele>730.9</ele>
        <time>2019-08-16T06:06:17Z</time>
      </trkpt>
      <trkpt lat="41.9851010" lon="-6.0203320">
        <ele>730.9</ele>
        <time>2019-08-16T06:06:18Z</time>
      </trkpt>
      <trkpt lat="41.9850730" lon="-6.0203800">
        <ele>731.0</ele>
        <time>2019-08-16T06:06:19Z</time>
      </trkpt>
      <trkpt lat="41.9850460" lon="-6.0204280">
        <ele>731.0</ele>
        <time>2019-08-16T06:06:20Z</time>
      </trkpt>
      <trkpt lat="41.9850190" lon="-6.0204760">
        <ele>731.0</ele>
        <time>2019-08-16T06:06:21Z</time>
      </trkpt>
      <trkpt lat="41.9849930" lon="-6.0205230">
        <ele>731.1</ele>
        <time>2019-08-16T06:06:22Z</time>
      </trkpt>
      <trkpt lat="41.9849650" lon="-6.0205690">
        <ele>731.2</ele>
        <time>2019-08-16T06:06:23Z</time>
      </trkpt>
      <trkpt lat="41.9849380" lon="-6.0206140">
        <ele>731.3</ele>
        <time>2019-08-16T06:06:24Z</time>
      </trkpt>
      <trkpt lat="41.9849090" lon="-6.0206570">
        <ele>731.4</ele>
        <time>2019-08-16T06:06:25Z</time>
      </trkpt>
      <trkpt lat="41.9848820" lon="-6.0206990">
        <ele>731.5</ele>
        <time>2019-08-16T06:06:26Z</time>
      </trkpt>
      <trkpt lat="41.9848530" lon="-6.0207390">
        <ele>731.6</ele>
        <time>2019-08-16T06:06:27Z</time>
      </trkpt>
      <trkpt lat="41.9848240" lon="-6.0207820">
        <ele>731.7</ele>
        <time>2019-08-16T06:06:28Z</time>
      </trkpt>
      <trkpt lat="41.9847950" lon="-6.0208290">
        <ele>731.8</ele>
        <time>2019-08-16T06:06:29Z</time>
      </trkpt>
      <trkpt lat="41.9847650" lon="-6.0208730">
        <ele>732.0</ele>
        <time>2019-08-16T06:06:30Z</time>
      </trkpt>
      <trkpt lat="41.9847340" lon="-6.0209160">
        <ele>732.1</ele>
        <time>2019-08-16T06:06:31Z</time>
      </trkpt>
      <trkpt lat="41.9847030" lon="-6.0209570">
        <ele>732.1</ele>
        <time>2019-08-16T06:06:32Z</time>
      </trkpt>
      <trkpt lat="41.9846740" lon="-6.0210000">
        <ele>732.2</ele>
        <time>2019-08-16T06:06:33Z</time>
      </trkpt>
      <trkpt lat="41.9846460" lon="-6.0210450">
        <ele>732.3</ele>
        <time>2019-08-16T06:06:34Z</time>
      </trkpt>
      <trkpt lat="41.9846170" lon="-6.0210910">
        <ele>732.3</ele>
        <time>2019-08-16T06:06:35Z</time>
      </trkpt>
      <trkpt lat="41.9845890" lon="-6.0211370">
        <ele>732.4</ele>
        <time>2019-08-16T06:06:36Z</time>
      </trkpt>
      <trkpt lat="41.9845640" lon="-6.0211790">
        <ele>732.5</ele>
        <time>2019-08-16T06:06:37Z</time>
      </trkpt>
      <trkpt lat="41.9845400" lon="-6.0212220">
        <ele>732.6</ele>
        <time>2019-08-16T06:06:38Z</time>
      </trkpt>
      <trkpt lat="41.9845160" lon="-6.0212640">
        <ele>732.7</ele>
        <time>2019-08-16T06:06:39Z</time>
      </trkpt>
      <trkpt lat="41.9844890" lon="-6.0213060">
        <ele>732.8</ele>
        <time>2019-08-16T06:06:40Z</time>
      </trkpt>
      <trkpt lat="41.9844620" lon="-6.0213490">
        <ele>732.9</ele>
        <time>2019-08-16T06:06:41Z</time>
      </trkpt>
      <trkpt lat="41.9844350" lon="-6.0213900">
        <ele>733.0</ele>
        <time>2019-08-16T06:06:42Z</time>
      </trkpt>
      <trkpt lat="41.9844070" lon="-6.0214320">
        <ele>733.2</ele>
        <time>2019-08-16T06:06:43Z</time>
      </trkpt>
      <trkpt lat="41.9843800" lon="-6.0214750">
        <ele>733.2</ele>
        <time>2019-08-16T06:06:44Z</time>
      </trkpt>
      <trkpt lat="41.9843500" lon="-6.0215160">
        <ele>733.3</ele>
        <time>2019-08-16T06:06:45Z</time>
      </trkpt>
      <trkpt lat="41.9843210" lon="-6.0215580">
        <ele>733.4</ele>
        <time>2019-08-16T06:06:46Z</time>
      </trkpt>
      <trkpt lat="41.9842920" lon="-6.0216030">
        <ele>733.4</ele>
        <time>2019-08-16T06:06:47Z</time>
      </trkpt>
      <trkpt lat="41.9842660" lon="-6.0216480">
        <ele>733.5</ele>
        <time>2019-08-16T06:06:48Z</time>
      </trkpt>
      <trkpt lat="41.9842390" lon="-6.0216920">
        <ele>733.5</ele>
        <time>2019-08-16T06:06:49Z</time>
      </trkpt>
      <trkpt lat="41.9842130" lon="-6.0217380">
        <ele>733.6</ele>
        <time>2019-08-16T06:06:50Z</time>
      </trkpt>
      <trkpt lat="41.9841870" lon="-6.0217850">
        <ele>733.6</ele>
        <time>2019-08-16T06:06:51Z</time>
      </trkpt>
      <trkpt lat="41.9841620" lon="-6.0218330">
        <ele>733.6</ele>
        <time>2019-08-16T06:06:52Z</time>
      </trkpt>
      <trkpt lat="41.9841370" lon="-6.0218850">
        <ele>733.7</ele>
        <time>2019-08-16T06:06:53Z</time>
      </trkpt>
      <trkpt lat="41.9841110" lon="-6.0219340">
        <ele>733.7</ele>
        <time>2019-08-16T06:06:54Z</time>
      </trkpt>
      <trkpt lat="41.9840870" lon="-6.0219840">
        <ele>733.7</ele>
        <time>2019-08-16T06:06:55Z</time>
      </trkpt>
      <trkpt lat="41.9840620" lon="-6.0220320">
        <ele>733.7</ele>
        <time>2019-08-16T06:06:56Z</time>
      </trkpt>
      <trkpt lat="41.9840370" lon="-6.0220810">
        <ele>733.8</ele>
        <time>2019-08-16T06:06:57Z</time>
      </trkpt>
      <trkpt lat="41.9840120" lon="-6.0221300">
        <ele>733.8</ele>
        <time>2019-08-16T06:06:58Z</time>
      </trkpt>
      <trkpt lat="41.9839870" lon="-6.0221790">
        <ele>733.8</ele>
        <time>2019-08-16T06:06:59Z</time>
      </trkpt>
      <trkpt lat="41.9839670" lon="-6.0222280">
        <ele>733.9</ele>
        <time>2019-08-16T06:07:00Z</time>
      </trkpt>
      <trkpt lat="41.9839470" lon="-6.0222760">
        <ele>733.9</ele>
        <time>2019-08-16T06:07:01Z</time>
      </trkpt>
      <trkpt lat="41.9839280" lon="-6.0223260">
        <ele>733.9</ele>
        <time>2019-08-16T06:07:02Z</time>
      </trkpt>
      <trkpt lat="41.9839080" lon="-6.0223780">
        <ele>733.9</ele>
        <time>2019-08-16T06:07:03Z</time>
      </trkpt>
      <trkpt lat="41.9838890" lon="-6.0224300">
        <ele>734.0</ele>
        <time>2019-08-16T06:07:04Z</time>
      </trkpt>
      <trkpt lat="41.9838710" lon="-6.0224830">
        <ele>734.0</ele>
        <time>2019-08-16T06:07:05Z</time>
      </trkpt>
      <trkpt lat="41.9838510" lon="-6.0225380">
        <ele>734.0</ele>
        <time>2019-08-16T06:07:06Z</time>
      </trkpt>
      <trkpt lat="41.9838330" lon="-6.0225930">
        <ele>734.1</ele>
        <time>2019-08-16T06:07:07Z</time>
      </trkpt>
      <trkpt lat="41.9838130" lon="-6.0226480">
        <ele>734.1</ele>
        <time>2019-08-16T06:07:08Z</time>
      </trkpt>
      <trkpt lat="41.9837970" lon="-6.0227000">
        <ele>734.1</ele>
        <time>2019-08-16T06:07:09Z</time>
      </trkpt>
      <trkpt lat="41.9837800" lon="-6.0227530">
        <ele>734.1</ele>
        <time>2019-08-16T06:07:10Z</time>
      </trkpt>
      <trkpt lat="41.9837620" lon="-6.0228070">
        <ele>734.2</ele>
        <time>2019-08-16T06:07:11Z</time>
      </trkpt>
      <trkpt lat="41.9837440" lon="-6.0228610">
        <ele>734.2</ele>
        <time>2019-08-16T06:07:12Z</time>
      </trkpt>
      <trkpt lat="41.9837260" lon="-6.0229120">
        <ele>734.2</ele>
        <time>2019-08-16T06:07:13Z</time>
      </trkpt>
      <trkpt lat="41.9837100" lon="-6.0229640">
        <ele>734.3</ele>
        <time>2019-08-16T06:07:14Z</time>
      </trkpt>
      <trkpt lat="41.9836940" lon="-6.0230150">
        <ele>734.3</ele>
        <time>2019-08-16T06:07:15Z</time>
      </trkpt>
      <trkpt lat="41.9836770" lon="-6.0230650">
        <ele>734.3</ele>
        <time>2019-08-16T06:07:16Z</time>
      </trkpt>
      <trkpt lat="41.9836630" lon="-6.0231140">
        <ele>734.3</ele>
        <time>2019-08-16T06:07:17Z</time>
      </trkpt>
      <trkpt lat="41.9836480" lon="-6.0231630">
        <ele>734.4</ele>
        <time>2019-08-16T06:07:18Z</time>
      </trkpt>
      <trkpt lat="41.9836330" lon="-6.0232100">
        <ele>734.4</ele>
        <time>2019-08-16T06:07:19Z</time>
      </trkpt>
      <trkpt lat="41.9836190" lon="-6.0232570">
        <ele>734.3</ele>
        <time>2019-08-16T06:07:20Z</time>
      </trkpt>
      <trkpt lat="41.9836020" lon="-6.0233060">
        <ele>734.2</ele>
        <time>2019-08-16T06:07:21Z</time>
      </trkpt>
      <trkpt lat="41.9835850" lon="-6.0233570">
        <ele>734.1</ele>
        <time>2019-08-16T06:07:22Z</time>
      </trkpt>
      <trkpt lat="41.9835680" lon="-6.0234120">
        <ele>734.0</ele>
        <time>2019-08-16T06:07:23Z</time>
      </trkpt>
      <trkpt lat="41.9835510" lon="-6.0234680">
        <ele>733.9</ele>
        <time>2019-08-16T06:07:24Z</time>
      </trkpt>
      <trkpt lat="41.9835350" lon="-6.0235230">
        <ele>733.8</ele>
        <time>2019-08-16T06:07:25Z</time>
      </trkpt>
      <trkpt lat="41.9835200" lon="-6.0235760">
        <ele>733.8</ele>
        <time>2019-08-16T06:07:26Z</time>
      </trkpt>
      <trkpt lat="41.9835050" lon="-6.0236290">
        <ele>733.7</ele>
        <time>2019-08-16T06:07:27Z</time>
      </trkpt>
      <trkpt lat="41.9834880" lon="-6.0236840">
        <ele>733.6</ele>
        <time>2019-08-16T06:07:28Z</time>
      </trkpt>
      <trkpt lat="41.9834740" lon="-6.0237410">
        <ele>733.6</ele>
        <time>2019-08-16T06:07:29Z</time>
      </trkpt>
      <trkpt lat="41.9834600" lon="-6.0237990">
        <ele>733.6</ele>
        <time>2019-08-16T06:07:30Z</time>
      </trkpt>
      <trkpt lat="41.9834460" lon="-6.0238580">
        <ele>733.5</ele>
        <time>2019-08-16T06:07:31Z</time>
      </trkpt>
      <trkpt lat="41.9834310" lon="-6.0239160">
        <ele>733.5</ele>
        <time>2019-08-16T06:07:32Z</time>
      </trkpt>
      <trkpt lat="41.9834190" lon="-6.0239750">
        <ele>733.5</ele>
        <time>2019-08-16T06:07:33Z</time>
      </trkpt>
      <trkpt lat="41.9834080" lon="-6.0240360">
        <ele>733.5</ele>
        <time>2019-08-16T06:07:34Z</time>
      </trkpt>
      <trkpt lat="41.9833970" lon="-6.0240970">
        <ele>733.5</ele>
        <time>2019-08-16T06:07:35Z</time>
      </trkpt>
      <trkpt lat="41.9833870" lon="-6.0241590">
        <ele>733.5</ele>
        <time>2019-08-16T06:07:36Z</time>
      </trkpt>
      <trkpt lat="41.9833790" lon="-6.0242220">
        <ele>733.5</ele>
        <time>2019-08-16T06:07:37Z</time>
      </trkpt>
      <trkpt lat="41.9833720" lon="-6.0242830">
        <ele>733.5</ele>
        <time>2019-08-16T06:07:38Z</time>
      </trkpt>
      <trkpt lat="41.9833650" lon="-6.0243450">
        <ele>733.5</ele>
        <time>2019-08-16T06:07:39Z</time>
      </trkpt>
      <trkpt lat="41.9833580" lon="-6.0244070">
        <ele>733.5</ele>
        <time>2019-08-16T06:07:40Z</time>
      </trkpt>
      <trkpt lat="41.9833510" lon="-6.0244680">
        <ele>733.5</ele>
        <time>2019-08-16T06:07:41Z</time>
      </trkpt>
      <trkpt lat="41.9833450" lon="-6.0245280">
        <ele>733.5</ele>
        <time>2019-08-16T06:07:42Z</time>
      </trkpt>
      <trkpt lat="41.9833370" lon="-6.0245880">
        <ele>733.5</ele>
        <time>2019-08-16T06:07:43Z</time>
      </trkpt>
      <trkpt lat="41.9833270" lon="-6.0246490">
        <ele>733.5</ele>
        <time>2019-08-16T06:07:44Z</time>
      </trkpt>
      <trkpt lat="41.9833180" lon="-6.0247080">
        <ele>733.5</ele>
        <time>2019-08-16T06:07:45Z</time>
      </trkpt>
      <trkpt lat="41.9833100" lon="-6.0247670">
        <ele>733.5</ele>
        <time>2019-08-16T06:07:46Z</time>
      </trkpt>
      <trkpt lat="41.9833010" lon="-6.0248270">
        <ele>733.5</ele>
        <time>2019-08-16T06:07:47Z</time>
      </trkpt>
      <trkpt lat="41.9832940" lon="-6.0248870">
        <ele>733.5</ele>
        <time>2019-08-16T06:07:48Z</time>
      </trkpt>
      <trkpt lat="41.9832870" lon="-6.0249470">
        <ele>733.5</ele>
        <time>2019-08-16T06:07:49Z</time>
      </trkpt>
      <trkpt lat="41.9832820" lon="-6.0250050">
        <ele>733.5</ele>
        <time>2019-08-16T06:07:50Z</time>
      </trkpt>
      <trkpt lat="41.9832770" lon="-6.0250640">
        <ele>733.5</ele>
        <time>2019-08-16T06:07:51Z</time>
      </trkpt>
      <trkpt lat="41.9832730" lon="-6.0251240">
        <ele>733.5</ele>
        <time>2019-08-16T06:07:52Z</time>
      </trkpt>
      <trkpt lat="41.9832700" lon="-6.0251840">
        <ele>733.5</ele>
        <time>2019-08-16T06:07:53Z</time>
      </trkpt>
      <trkpt lat="41.9832680" lon="-6.0252430">
        <ele>733.5</ele>
        <time>2019-08-16T06:07:54Z</time>
      </trkpt>
      <trkpt lat="41.9832670" lon="-6.0253020">
        <ele>733.5</ele>
        <time>2019-08-16T06:07:55Z</time>
      </trkpt>
      <trkpt lat="41.9832660" lon="-6.0253590">
        <ele>733.5</ele>
        <time>2019-08-16T06:07:56Z</time>
      </trkpt>
      <trkpt lat="41.9832650" lon="-6.0254160">
        <ele>733.5</ele>
        <time>2019-08-16T06:07:57Z</time>
      </trkpt>
      <trkpt lat="41.9832640" lon="-6.0254750">
        <ele>733.5</ele>
        <time>2019-08-16T06:07:58Z</time>
      </trkpt>
      <trkpt lat="41.9832630" lon="-6.0255360">
        <ele>733.5</ele>
        <time>2019-08-16T06:07:59Z</time>
      </trkpt>
      <trkpt lat="41.9832630" lon="-6.0255970">
        <ele>733.5</ele>
        <time>2019-08-16T06:08:00Z</time>
      </trkpt>
      <trkpt lat="41.9832630" lon="-6.0256590">
        <ele>733.5</ele>
        <time>2019-08-16T06:08:01Z</time>
      </trkpt>
      <trkpt lat="41.9832630" lon="-6.0257210">
        <ele>733.5</ele>
        <time>2019-08-16T06:08:02Z</time>
      </trkpt>
      <trkpt lat="41.9832600" lon="-6.0257840">
        <ele>733.5</ele>
        <time>2019-08-16T06:08:03Z</time>
      </trkpt>
      <trkpt lat="41.9832560" lon="-6.0258460">
        <ele>733.5</ele>
        <time>2019-08-16T06:08:04Z</time>
      </trkpt>
      <trkpt lat="41.9832530" lon="-6.0259080">
        <ele>733.5</ele>
        <time>2019-08-16T06:08:05Z</time>
      </trkpt>
      <trkpt lat="41.9832480" lon="-6.0259690">
        <ele>733.5</ele>
        <time>2019-08-16T06:08:06Z</time>
      </trkpt>
      <trkpt lat="41.9832430" lon="-6.0260290">
        <ele>733.4</ele>
        <time>2019-08-16T06:08:07Z</time>
      </trkpt>
      <trkpt lat="41.9832420" lon="-6.0260870">
        <ele>733.3</ele>
        <time>2019-08-16T06:08:08Z</time>
      </trkpt>
      <trkpt lat="41.9832390" lon="-6.0261450">
        <ele>733.3</ele>
        <time>2019-08-16T06:08:09Z</time>
      </trkpt>
      <trkpt lat="41.9832360" lon="-6.0262030">
        <ele>733.2</ele>
        <time>2019-08-16T06:08:10Z</time>
      </trkpt>
      <trkpt lat="41.9832300" lon="-6.0262610">
        <ele>733.1</ele>
        <time>2019-08-16T06:08:11Z</time>
      </trkpt>
      <trkpt lat="41.9832260" lon="-6.0263200">
        <ele>733.1</ele>
        <time>2019-08-16T06:08:12Z</time>
      </trkpt>
      <trkpt lat="41.9832220" lon="-6.0263790">
        <ele>733.1</ele>
        <time>2019-08-16T06:08:13Z</time>
      </trkpt>
      <trkpt lat="41.9832200" lon="-6.0264370">
        <ele>733.1</ele>
        <time>2019-08-16T06:08:14Z</time>
      </trkpt>
      <trkpt lat="41.9832160" lon="-6.0264960">
        <ele>733.0</ele>
        <time>2019-08-16T06:08:15Z</time>
      </trkpt>
      <trkpt lat="41.9832130" lon="-6.0265540">
        <ele>733.1</ele>
        <time>2019-08-16T06:08:16Z</time>
      </trkpt>
      <trkpt lat="41.9832090" lon="-6.0266140">
        <ele>733.1</ele>
        <time>2019-08-16T06:08:17Z</time>
      </trkpt>
      <trkpt lat="41.9832060" lon="-6.0266760">
        <ele>733.1</ele>
        <time>2019-08-16T06:08:18Z</time>
      </trkpt>
      <trkpt lat="41.9832020" lon="-6.0267360">
        <ele>733.2</ele>
        <time>2019-08-16T06:08:19Z</time>
      </trkpt>
      <trkpt lat="41.9832000" lon="-6.0267950">
        <ele>733.3</ele>
        <time>2019-08-16T06:08:20Z</time>
      </trkpt>
      <trkpt lat="41.9831970" lon="-6.0268540">
        <ele>733.3</ele>
        <time>2019-08-16T06:08:21Z</time>
      </trkpt>
      <trkpt lat="41.9831930" lon="-6.0269140">
        <ele>733.4</ele>
        <time>2019-08-16T06:08:22Z</time>
      </trkpt>
      <trkpt lat="41.9831890" lon="-6.0269710">
        <ele>733.5</ele>
        <time>2019-08-16T06:08:23Z</time>
      </trkpt>
      <trkpt lat="41.9831850" lon="-6.0270290">
        <ele>733.6</ele>
        <time>2019-08-16T06:08:24Z</time>
      </trkpt>
      <trkpt lat="41.9831820" lon="-6.0270880">
        <ele>733.6</ele>
        <time>2019-08-16T06:08:25Z</time>
      </trkpt>
      <trkpt lat="41.9831790" lon="-6.0271470">
        <ele>733.7</ele>
        <time>2019-08-16T06:08:26Z</time>
      </trkpt>
      <trkpt lat="41.9831730" lon="-6.0272050">
        <ele>733.7</ele>
        <time>2019-08-16T06:08:27Z</time>
      </trkpt>
      <trkpt lat="41.9831670" lon="-6.0272610">
        <ele>733.8</ele>
        <time>2019-08-16T06:08:28Z</time>
      </trkpt>
      <trkpt lat="41.9831610" lon="-6.0273180">
        <ele>733.8</ele>
        <time>2019-08-16T06:08:29Z</time>
      </trkpt>
      <trkpt lat="41.9831550" lon="-6.0273740">
        <ele>733.8</ele>
        <time>2019-08-16T06:08:30Z</time>
      </trkpt>
      <trkpt lat="41.9831490" lon="-6.0274300">
        <ele>733.8</ele>
        <time>2019-08-16T06:08:31Z</time>
      </trkpt>
      <trkpt lat="41.9831460" lon="-6.0274850">
        <ele>733.8</ele>
        <time>2019-08-16T06:08:32Z</time>
      </trkpt>
      <trkpt lat="41.9831440" lon="-6.0275380">
        <ele>733.8</ele>
        <time>2019-08-16T06:08:33Z</time>
      </trkpt>
      <trkpt lat="41.9831440" lon="-6.0275890">
        <ele>733.8</ele>
        <time>2019-08-16T06:08:34Z</time>
      </trkpt>
      <trkpt lat="41.9831430" lon="-6.0276400">
        <ele>733.7</ele>
        <time>2019-08-16T06:08:35Z</time>
      </trkpt>
      <trkpt lat="41.9831420" lon="-6.0276900">
        <ele>733.7</ele>
        <time>2019-08-16T06:08:36Z</time>
      </trkpt>
      <trkpt lat="41.9831430" lon="-6.0277380">
        <ele>733.6</ele>
        <time>2019-08-16T06:08:37Z</time>
      </trkpt>
      <trkpt lat="41.9831420" lon="-6.0277880">
        <ele>733.6</ele>
        <time>2019-08-16T06:08:38Z</time>
      </trkpt>
      <trkpt lat="41.9831410" lon="-6.0278380">
        <ele>733.5</ele>
        <time>2019-08-16T06:08:39Z</time>
      </trkpt>
      <trkpt lat="41.9831370" lon="-6.0278890">
        <ele>733.5</ele>
        <time>2019-08-16T06:08:40Z</time>
      </trkpt>
      <trkpt lat="41.9831350" lon="-6.0279410">
        <ele>733.4</ele>
        <time>2019-08-16T06:08:41Z</time>
      </trkpt>
      <trkpt lat="41.9831360" lon="-6.0279940">
        <ele>733.4</ele>
        <time>2019-08-16T06:08:42Z</time>
      </trkpt>
      <trkpt lat="41.9831340" lon="-6.0280460">
        <ele>733.3</ele>
        <time>2019-08-16T06:08:43Z</time>
      </trkpt>
      <trkpt lat="41.9831310" lon="-6.0280970">
        <ele>733.3</ele>
        <time>2019-08-16T06:08:44Z</time>
      </trkpt>
      <trkpt lat="41.9831340" lon="-6.0281490">
        <ele>733.2</ele>
        <time>2019-08-16T06:08:45Z</time>
      </trkpt>
      <trkpt lat="41.9831460" lon="-6.0281970">
        <ele>733.1</ele>
        <time>2019-08-16T06:08:46Z</time>
      </trkpt>
      <trkpt lat="41.9831620" lon="-6.0282420">
        <ele>733.1</ele>
        <time>2019-08-16T06:08:47Z</time>
      </trkpt>
      <trkpt lat="41.9831790" lon="-6.0282790">
        <ele>733.1</ele>
        <time>2019-08-16T06:08:48Z</time>
      </trkpt>
      <trkpt lat="41.9832060" lon="-6.0283040">
        <ele>733.1</ele>
        <time>2019-08-16T06:08:49Z</time>
      </trkpt>
      <trkpt lat="41.9832390" lon="-6.0283210">
        <ele>733.0</ele>
        <time>2019-08-16T06:08:50Z</time>
      </trkpt>
      <trkpt lat="41.9832750" lon="-6.0283290">
        <ele>733.0</ele>
        <time>2019-08-16T06:08:51Z</time>
      </trkpt>
      <trkpt lat="41.9833120" lon="-6.0283290">
        <ele>733.0</ele>
        <time>2019-08-16T06:08:52Z</time>
      </trkpt>
      <trkpt lat="41.9833520" lon="-6.0283250">
        <ele>733.0</ele>
        <time>2019-08-16T06:08:53Z</time>
      </trkpt>
      <trkpt lat="41.9833910" lon="-6.0283210">
        <ele>733.0</ele>
        <time>2019-08-16T06:08:54Z</time>
      </trkpt>
      <trkpt lat="41.9834320" lon="-6.0283170">
        <ele>733.0</ele>
        <time>2019-08-16T06:08:55Z</time>
      </trkpt>
      <trkpt lat="41.9834730" lon="-6.0283130">
        <ele>733.0</ele>
        <time>2019-08-16T06:08:56Z</time>
      </trkpt>
      <trkpt lat="41.9835160" lon="-6.0283100">
        <ele>733.0</ele>
        <time>2019-08-16T06:08:57Z</time>
      </trkpt>
      <trkpt lat="41.9835610" lon="-6.0283110">
        <ele>733.0</ele>
        <time>2019-08-16T06:08:58Z</time>
      </trkpt>
      <trkpt lat="41.9836060" lon="-6.0283140">
        <ele>733.0</ele>
        <time>2019-08-16T06:08:59Z</time>
      </trkpt>
      <trkpt lat="41.9836490" lon="-6.0283220">
        <ele>733.0</ele>
        <time>2019-08-16T06:09:00Z</time>
      </trkpt>
      <trkpt lat="41.9836860" lon="-6.0283410">
        <ele>733.0</ele>
        <time>2019-08-16T06:09:01Z</time>
      </trkpt>
      <trkpt lat="41.9837160" lon="-6.0283700">
        <ele>733.0</ele>
        <time>2019-08-16T06:09:02Z</time>
      </trkpt>
      <trkpt lat="41.9837370" lon="-6.0284090">
        <ele>733.0</ele>
        <time>2019-08-16T06:09:03Z</time>
      </trkpt>
      <trkpt lat="41.9837440" lon="-6.0284510">
        <ele>733.0</ele>
        <time>2019-08-16T06:09:04Z</time>
      </trkpt>
      <trkpt lat="41.9837380" lon="-6.0284900">
        <ele>733.0</ele>
        <time>2019-08-16T06:09:05Z</time>
      </trkpt>
      <trkpt lat="41.9837100" lon="-6.0285470">
        <ele>733.0</ele>
        <time>2019-08-16T06:09:07Z</time>
      </trkpt>
      <trkpt lat="41.9836880" lon="-6.0285720">
        <ele>732.9</ele>
        <time>2019-08-16T06:09:08Z</time>
      </trkpt>
      <trkpt lat="41.9836640" lon="-6.0285970">
        <ele>732.9</ele>
        <time>2019-08-16T06:09:09Z</time>
      </trkpt>
      <trkpt lat="41.9836370" lon="-6.0286210">
        <ele>732.9</ele>
        <time>2019-08-16T06:09:10Z</time>
      </trkpt>
      <trkpt lat="41.9836070" lon="-6.0286420">
        <ele>732.8</ele>
        <time>2019-08-16T06:09:11Z</time>
      </trkpt>
      <trkpt lat="41.9835740" lon="-6.0286610">
        <ele>732.8</ele>
        <time>2019-08-16T06:09:12Z</time>
      </trkpt>
      <trkpt lat="41.9835400" lon="-6.0286770">
        <ele>732.8</ele>
        <time>2019-08-16T06:09:13Z</time>
      </trkpt>
      <trkpt lat="41.9835070" lon="-6.0286930">
        <ele>732.8</ele>
        <time>2019-08-16T06:09:14Z</time>
      </trkpt>
      <trkpt lat="41.9834750" lon="-6.0287080">
        <ele>732.8</ele>
        <time>2019-08-16T06:09:15Z</time>
      </trkpt>
      <trkpt lat="41.9834440" lon="-6.0287210">
        <ele>732.7</ele>
        <time>2019-08-16T06:09:16Z</time>
      </trkpt>
      <trkpt lat="41.9834160" lon="-6.0287340">
        <ele>732.7</ele>
        <time>2019-08-16T06:09:17Z</time>
      </trkpt>
      <trkpt lat="41.9833890" lon="-6.0287470">
        <ele>732.7</ele>
        <time>2019-08-16T06:09:18Z</time>
      </trkpt>
      <trkpt lat="41.9833630" lon="-6.0287610">
        <ele>732.7</ele>
        <time>2019-08-16T06:09:19Z</time>
      </trkpt>
      <trkpt lat="41.9833350" lon="-6.0287750">
        <ele>732.6</ele>
        <time>2019-08-16T06:09:20Z</time>
      </trkpt>
      <trkpt lat="41.9833060" lon="-6.0287910">
        <ele>732.6</ele>
        <time>2019-08-16T06:09:21Z</time>
      </trkpt>
      <trkpt lat="41.9832760" lon="-6.0288070">
        <ele>732.6</ele>
        <time>2019-08-16T06:09:22Z</time>
      </trkpt>
      <trkpt lat="41.9832440" lon="-6.0288230">
        <ele>732.5</ele>
        <time>2019-08-16T06:09:23Z</time>
      </trkpt>
      <trkpt lat="41.9832110" lon="-6.0288400">
        <ele>732.5</ele>
        <time>2019-08-16T06:09:24Z</time>
      </trkpt>
      <trkpt lat="41.9831770" lon="-6.0288570">
        <ele>732.5</ele>
        <time>2019-08-16T06:09:25Z</time>
      </trkpt>
      <trkpt lat="41.9831430" lon="-6.0288740">
        <ele>732.4</ele>
        <time>2019-08-16T06:09:26Z</time>
      </trkpt>
      <trkpt lat="41.9831100" lon="-6.0288910">
        <ele>732.4</ele>
        <time>2019-08-16T06:09:27Z</time>
      </trkpt>
      <trkpt lat="41.9830760" lon="-6.0289080">
        <ele>732.3</ele>
        <time>2019-08-16T06:09:28Z</time>
      </trkpt>
      <trkpt lat="41.9830430" lon="-6.0289240">
        <ele>732.3</ele>
        <time>2019-08-16T06:09:29Z</time>
      </trkpt>
      <trkpt lat="41.9830090" lon="-6.0289400">
        <ele>732.2</ele>
        <time>2019-08-16T06:09:30Z</time>
      </trkpt>
      <trkpt lat="41.9829750" lon="-6.0289560">
        <ele>732.2</ele>
        <time>2019-08-16T06:09:31Z</time>
      </trkpt>
      <trkpt lat="41.9829420" lon="-6.0289730">
        <ele>732.2</ele>
        <time>2019-08-16T06:09:32Z</time>
      </trkpt>
      <trkpt lat="41.9829090" lon="-6.0289890">
        <ele>732.1</ele>
        <time>2019-08-16T06:09:33Z</time>
      </trkpt>
      <trkpt lat="41.9828780" lon="-6.0290040">
        <ele>732.1</ele>
        <time>2019-08-16T06:09:34Z</time>
      </trkpt>
      <trkpt lat="41.9828490" lon="-6.0290180">
        <ele>732.0</ele>
        <time>2019-08-16T06:09:35Z</time>
      </trkpt>
      <trkpt lat="41.9828220" lon="-6.0290300">
        <ele>732.0</ele>
        <time>2019-08-16T06:09:36Z</time>
      </trkpt>
      <trkpt lat="41.9827960" lon="-6.0290420">
        <ele>732.0</ele>
        <time>2019-08-16T06:09:37Z</time>
      </trkpt>
      <trkpt lat="41.9827690" lon="-6.0290550">
        <ele>731.9</ele>
        <time>2019-08-16T06:09:38Z</time>
      </trkpt>
      <trkpt lat="41.9827410" lon="-6.0290690">
        <ele>731.9</ele>
        <time>2019-08-16T06:09:39Z</time>
      </trkpt>
      <trkpt lat="41.9827120" lon="-6.0290830">
        <ele>731.8</ele>
        <time>2019-08-16T06:09:40Z</time>
      </trkpt>
      <trkpt lat="41.9826810" lon="-6.0290980">
        <ele>731.8</ele>
        <time>2019-08-16T06:09:41Z</time>
      </trkpt>
      <trkpt lat="41.9826500" lon="-6.0291120">
        <ele>731.8</ele>
        <time>2019-08-16T06:09:42Z</time>
      </trkpt>
      <trkpt lat="41.9826170" lon="-6.0291260">
        <ele>731.7</ele>
        <time>2019-08-16T06:09:43Z</time>
      </trkpt>
      <trkpt lat="41.9825840" lon="-6.0291400">
        <ele>731.7</ele>
        <time>2019-08-16T06:09:44Z</time>
      </trkpt>
      <trkpt lat="41.9825480" lon="-6.0291560">
        <ele>731.6</ele>
        <time>2019-08-16T06:09:45Z</time>
      </trkpt>
      <trkpt lat="41.9825120" lon="-6.0291740">
        <ele>731.6</ele>
        <time>2019-08-16T06:09:46Z</time>
      </trkpt>
      <trkpt lat="41.9824750" lon="-6.0291930">
        <ele>731.5</ele>
        <time>2019-08-16T06:09:47Z</time>
      </trkpt>
      <trkpt lat="41.9824380" lon="-6.0292110">
        <ele>731.4</ele>
        <time>2019-08-16T06:09:48Z</time>
      </trkpt>
      <trkpt lat="41.9824000" lon="-6.0292300">
        <ele>731.4</ele>
        <time>2019-08-16T06:09:49Z</time>
      </trkpt>
      <trkpt lat="41.9823620" lon="-6.0292490">
        <ele>731.3</ele>
        <time>2019-08-16T06:09:50Z</time>
      </trkpt>
      <trkpt lat="41.9823230" lon="-6.0292670">
        <ele>731.2</ele>
        <time>2019-08-16T06:09:51Z</time>
      </trkpt>
      <trkpt lat="41.9822840" lon="-6.0292840">
        <ele>731.1</ele>
        <time>2019-08-16T06:09:52Z</time>
      </trkpt>
      <trkpt lat="41.9822440" lon="-6.0293000">
        <ele>731.1</ele>
        <time>2019-08-16T06:09:53Z</time>
      </trkpt>
      <trkpt lat="41.9822050" lon="-6.0293160">
        <ele>731.0</ele>
        <time>2019-08-16T06:09:54Z</time>
      </trkpt>
      <trkpt lat="41.9821660" lon="-6.0293350">
        <ele>731.1</ele>
        <time>2019-08-16T06:09:55Z</time>
      </trkpt>
      <trkpt lat="41.9821270" lon="-6.0293540">
        <ele>731.2</ele>
        <time>2019-08-16T06:09:56Z</time>
      </trkpt>
      <trkpt lat="41.9820860" lon="-6.0293760">
        <ele>731.2</ele>
        <time>2019-08-16T06:09:57Z</time>
      </trkpt>
      <trkpt lat="41.9820440" lon="-6.0293970">
        <ele>731.3</ele>
        <time>2019-08-16T06:09:58Z</time>
      </trkpt>
      <trkpt lat="41.9820010" lon="-6.0294170">
        <ele>731.4</ele>
        <time>2019-08-16T06:09:59Z</time>
      </trkpt>
      <trkpt lat="41.9819590" lon="-6.0294390">
        <ele>731.5</ele>
        <time>2019-08-16T06:10:00Z</time>
      </trkpt>
      <trkpt lat="41.9819170" lon="-6.0294620">
        <ele>731.6</ele>
        <time>2019-08-16T06:10:01Z</time>
      </trkpt>
      <trkpt lat="41.9818760" lon="-6.0294830">
        <ele>731.6</ele>
        <time>2019-08-16T06:10:02Z</time>
      </trkpt>
      <trkpt lat="41.9818350" lon="-6.0295030">
        <ele>731.7</ele>
        <time>2019-08-16T06:10:03Z</time>
      </trkpt>
      <trkpt lat="41.9817930" lon="-6.0295230">
        <ele>731.8</ele>
        <time>2019-08-16T06:10:04Z</time>
      </trkpt>
      <trkpt lat="41.9817520" lon="-6.0295440">
        <ele>731.8</ele>
        <time>2019-08-16T06:10:05Z</time>
      </trkpt>
      <trkpt lat="41.9817140" lon="-6.0295630">
        <ele>731.9</ele>
        <time>2019-08-16T06:10:06Z</time>
      </trkpt>
      <trkpt lat="41.9816760" lon="-6.0295820">
        <ele>731.9</ele>
        <time>2019-08-16T06:10:07Z</time>
      </trkpt>
      <trkpt lat="41.9816390" lon="-6.0296000">
        <ele>732.0</ele>
        <time>2019-08-16T06:10:08Z</time>
      </trkpt>
      <trkpt lat="41.9816020" lon="-6.0296180">
        <ele>732.1</ele>
        <time>2019-08-16T06:10:09Z</time>
      </trkpt>
      <trkpt lat="41.9815640" lon="-6.0296360">
        <ele>732.1</ele>
        <time>2019-08-16T06:10:10Z</time>
      </trkpt>
      <trkpt lat="41.9815240" lon="-6.0296540">
        <ele>732.2</ele>
        <time>2019-08-16T06:10:11Z</time>
      </trkpt>
      <trkpt lat="41.9814820" lon="-6.0296730">
        <ele>732.2</ele>
        <time>2019-08-16T06:10:12Z</time>
      </trkpt>
      <trkpt lat="41.9814410" lon="-6.0296940">
        <ele>732.3</ele>
        <time>2019-08-16T06:10:13Z</time>
      </trkpt>
      <trkpt lat="41.9813970" lon="-6.0297140">
        <ele>732.4</ele>
        <time>2019-08-16T06:10:14Z</time>
      </trkpt>
      <trkpt lat="41.9813540" lon="-6.0297340">
        <ele>732.5</ele>
        <time>2019-08-16T06:10:15Z</time>
      </trkpt>
      <trkpt lat="41.9813090" lon="-6.0297550">
        <ele>732.5</ele>
        <time>2019-08-16T06:10:16Z</time>
      </trkpt>
      <trkpt lat="41.9812650" lon="-6.0297780">
        <ele>732.6</ele>
        <time>2019-08-16T06:10:17Z</time>
      </trkpt>
      <trkpt lat="41.9812210" lon="-6.0297990">
        <ele>732.7</ele>
        <time>2019-08-16T06:10:18Z</time>
      </trkpt>
      <trkpt lat="41.9811760" lon="-6.0298200">
        <ele>732.8</ele>
        <time>2019-08-16T06:10:19Z</time>
      </trkpt>
      <trkpt lat="41.9811310" lon="-6.0298440">
        <ele>732.8</ele>
        <time>2019-08-16T06:10:20Z</time>
      </trkpt>
      <trkpt lat="41.9810880" lon="-6.0298650">
        <ele>732.9</ele>
        <time>2019-08-16T06:10:21Z</time>
      </trkpt>
      <trkpt lat="41.9810470" lon="-6.0298870">
        <ele>732.9</ele>
        <time>2019-08-16T06:10:22Z</time>
      </trkpt>
      <trkpt lat="41.9810070" lon="-6.0299070">
        <ele>732.9</ele>
        <time>2019-08-16T06:10:23Z</time>
      </trkpt>
      <trkpt lat="41.9809680" lon="-6.0299280">
        <ele>732.9</ele>
        <time>2019-08-16T06:10:24Z</time>
      </trkpt>
      <trkpt lat="41.9809300" lon="-6.0299470">
        <ele>732.9</ele>
        <time>2019-08-16T06:10:25Z</time>
      </trkpt>
      <trkpt lat="41.9808920" lon="-6.0299640">
        <ele>732.9</ele>
        <time>2019-08-16T06:10:26Z</time>
      </trkpt>
      <trkpt lat="41.9808550" lon="-6.0299790">
        <ele>732.9</ele>
        <time>2019-08-16T06:10:27Z</time>
      </trkpt>
      <trkpt lat="41.9808160" lon="-6.0299970">
        <ele>732.9</ele>
        <time>2019-08-16T06:10:28Z</time>
      </trkpt>
      <trkpt lat="41.9807760" lon="-6.0300160">
        <ele>732.9</ele>
        <time>2019-08-16T06:10:29Z</time>
      </trkpt>
      <trkpt lat="41.9807340" lon="-6.0300380">
        <ele>732.9</ele>
        <time>2019-08-16T06:10:30Z</time>
      </trkpt>
      <trkpt lat="41.9806900" lon="-6.0300600">
        <ele>733.0</ele>
        <time>2019-08-16T06:10:31Z</time>
      </trkpt>
      <trkpt lat="41.9806440" lon="-6.0300820">
        <ele>733.0</ele>
        <time>2019-08-16T06:10:32Z</time>
      </trkpt>
      <trkpt lat="41.9805980" lon="-6.0301040">
        <ele>733.0</ele>
        <time>2019-08-16T06:10:33Z</time>
      </trkpt>
      <trkpt lat="41.9805520" lon="-6.0301270">
        <ele>733.0</ele>
        <time>2019-08-16T06:10:34Z</time>
      </trkpt>
      <trkpt lat="41.9805070" lon="-6.0301490">
        <ele>733.0</ele>
        <time>2019-08-16T06:10:35Z</time>
      </trkpt>
      <trkpt lat="41.9804610" lon="-6.0301710">
        <ele>733.0</ele>
        <time>2019-08-16T06:10:36Z</time>
      </trkpt>
      <trkpt lat="41.9804160" lon="-6.0301930">
        <ele>733.0</ele>
        <time>2019-08-16T06:10:37Z</time>
      </trkpt>
      <trkpt lat="41.9803720" lon="-6.0302170">
        <ele>732.9</ele>
        <time>2019-08-16T06:10:38Z</time>
      </trkpt>
      <trkpt lat="41.9803300" lon="-6.0302420">
        <ele>732.9</ele>
        <time>2019-08-16T06:10:39Z</time>
      </trkpt>
      <trkpt lat="41.9802890" lon="-6.0302680">
        <ele>732.9</ele>
        <time>2019-08-16T06:10:40Z</time>
      </trkpt>
      <trkpt lat="41.9802500" lon="-6.0302920">
        <ele>732.9</ele>
        <time>2019-08-16T06:10:41Z</time>
      </trkpt>
      <trkpt lat="41.9802120" lon="-6.0303170">
        <ele>732.9</ele>
        <time>2019-08-16T06:10:42Z</time>
      </trkpt>
      <trkpt lat="41.9801760" lon="-6.0303430">
        <ele>732.9</ele>
        <time>2019-08-16T06:10:43Z</time>
      </trkpt>
      <trkpt lat="41.9801410" lon="-6.0303680">
        <ele>732.9</ele>
        <time>2019-08-16T06:10:44Z</time>
      </trkpt>
      <trkpt lat="41.9801080" lon="-6.0303940">
        <ele>732.9</ele>
        <time>2019-08-16T06:10:45Z</time>
      </trkpt>
      <trkpt lat="41.9800760" lon="-6.0304180">
        <ele>732.9</ele>
        <time>2019-08-16T06:10:46Z</time>
      </trkpt>
      <trkpt lat="41.9800440" lon="-6.0304390">
        <ele>732.9</ele>
        <time>2019-08-16T06:10:47Z</time>
      </trkpt>
      <trkpt lat="41.9800160" lon="-6.0304610">
        <ele>732.8</ele>
        <time>2019-08-16T06:10:48Z</time>
      </trkpt>
      <trkpt lat="41.9799930" lon="-6.0304860">
        <ele>732.8</ele>
        <time>2019-08-16T06:10:49Z</time>
      </trkpt>
      <trkpt lat="41.9799810" lon="-6.0305180">
        <ele>732.8</ele>
        <time>2019-08-16T06:10:50Z</time>
      </trkpt>
      <trkpt lat="41.9799850" lon="-6.0305560">
        <ele>733.0</ele>
        <time>2019-08-16T06:10:51Z</time>
      </trkpt>
      <trkpt lat="41.9800040" lon="-6.0305900">
        <ele>733.1</ele>
        <time>2019-08-16T06:10:52Z</time>
      </trkpt>
      <trkpt lat="41.9800320" lon="-6.0306140">
        <ele>733.3</ele>
        <time>2019-08-16T06:10:53Z</time>
      </trkpt>
      <trkpt lat="41.9800670" lon="-6.0306320">
        <ele>733.4</ele>
        <time>2019-08-16T06:10:54Z</time>
      </trkpt>
      <trkpt lat="41.9801050" lon="-6.0306430">
        <ele>733.6</ele>
        <time>2019-08-16T06:10:55Z</time>
      </trkpt>
      <trkpt lat="41.9801480" lon="-6.0306490">
        <ele>733.7</ele>
        <time>2019-08-16T06:10:56Z</time>
      </trkpt>
      <trkpt lat="41.9801920" lon="-6.0306510">
        <ele>733.9</ele>
        <time>2019-08-16T06:10:57Z</time>
      </trkpt>
      <trkpt lat="41.9802370" lon="-6.0306520">
        <ele>734.1</ele>
        <time>2019-08-16T06:10:58Z</time>
      </trkpt>
      <trkpt lat="41.9802840" lon="-6.0306540">
        <ele>734.2</ele>
        <time>2019-08-16T06:10:59Z</time>
      </trkpt>
      <trkpt lat="41.9803310" lon="-6.0306550">
        <ele>734.3</ele>
        <time>2019-08-16T06:11:00Z</time>
      </trkpt>
      <trkpt lat="41.9803800" lon="-6.0306590">
        <ele>734.4</ele>
        <time>2019-08-16T06:11:01Z</time>
      </trkpt>
      <trkpt lat="41.9804290" lon="-6.0306630">
        <ele>734.5</ele>
        <time>2019-08-16T06:11:02Z</time>
      </trkpt>
      <trkpt lat="41.9804810" lon="-6.0306700">
        <ele>734.6</ele>
        <time>2019-08-16T06:11:03Z</time>
      </trkpt>
      <trkpt lat="41.9805330" lon="-6.0306820">
        <ele>734.6</ele>
        <time>2019-08-16T06:11:04Z</time>
      </trkpt>
      <trkpt lat="41.9805850" lon="-6.0306970">
        <ele>734.7</ele>
        <time>2019-08-16T06:11:05Z</time>
      </trkpt>
      <trkpt lat="41.9806370" lon="-6.0307100">
        <ele>734.7</ele>
        <time>2019-08-16T06:11:06Z</time>
      </trkpt>
      <trkpt lat="41.9806900" lon="-6.0307250">
        <ele>734.7</ele>
        <time>2019-08-16T06:11:07Z</time>
      </trkpt>
      <trkpt lat="41.9807430" lon="-6.0307420">
        <ele>734.7</ele>
        <time>2019-08-16T06:11:08Z</time>
      </trkpt>
      <trkpt lat="41.9807970" lon="-6.0307600">
        <ele>734.6</ele>
        <time>2019-08-16T06:11:09Z</time>
      </trkpt>
      <trkpt lat="41.9808500" lon="-6.0307780">
        <ele>734.5</ele>
        <time>2019-08-16T06:11:10Z</time>
      </trkpt>
      <trkpt lat="41.9809050" lon="-6.0307970">
        <ele>734.4</ele>
        <time>2019-08-16T06:11:11Z</time>
      </trkpt>
      <trkpt lat="41.9809600" lon="-6.0308160">
        <ele>734.2</ele>
        <time>2019-08-16T06:11:12Z</time>
      </trkpt>
      <trkpt lat="41.9810160" lon="-6.0308350">
        <ele>734.1</ele>
        <time>2019-08-16T06:11:13Z</time>
      </trkpt>
      <trkpt lat="41.9810720" lon="-6.0308490">
        <ele>733.9</ele>
        <time>2019-08-16T06:11:14Z</time>
      </trkpt>
      <trkpt lat="41.9811270" lon="-6.0308660">
        <ele>733.7</ele>
        <time>2019-08-16T06:11:15Z</time>
      </trkpt>
      <trkpt lat="41.9811760" lon="-6.0308920">
        <ele>733.5</ele>
        <time>2019-08-16T06:11:16Z</time>
      </trkpt>
      <trkpt lat="41.9812190" lon="-6.0309230">
        <ele>733.4</ele>
        <time>2019-08-16T06:11:17Z</time>
      </trkpt>
      <trkpt lat="41.9812570" lon="-6.0309630">
        <ele>733.2</ele>
        <time>2019-08-16T06:11:18Z</time>
      </trkpt>
      <trkpt lat="41.9812920" lon="-6.0310140">
        <ele>733.0</ele>
        <time>2019-08-16T06:11:19Z</time>
      </trkpt>
      <trkpt lat="41.9813200" lon="-6.0310720">
        <ele>732.8</ele>
        <time>2019-08-16T06:11:20Z</time>
      </trkpt>
      <trkpt lat="41.9813470" lon="-6.0311370">
        <ele>732.7</ele>
        <time>2019-08-16T06:11:21Z</time>
      </trkpt>
      <trkpt lat="41.9813720" lon="-6.0311980">
        <ele>732.6</ele>
        <time>2019-08-16T06:11:22Z</time>
      </trkpt>
      <trkpt lat="41.9813910" lon="-6.0312560">
        <ele>732.6</ele>
        <time>2019-08-16T06:11:23Z</time>
      </trkpt>
      <trkpt lat="41.9814090" lon="-6.0313150">
        <ele>732.6</ele>
        <time>2019-08-16T06:11:24Z</time>
      </trkpt>
      <trkpt lat="41.9814240" lon="-6.0313700">
        <ele>732.6</ele>
        <time>2019-08-16T06:11:25Z</time>
      </trkpt>
      <trkpt lat="41.9814380" lon="-6.0314270">
        <ele>732.6</ele>
        <time>2019-08-16T06:11:26Z</time>
      </trkpt>
      <trkpt lat="41.9814540" lon="-6.0314840">
        <ele>732.6</ele>
        <time>2019-08-16T06:11:27Z</time>
      </trkpt>
      <trkpt lat="41.9814640" lon="-6.0315390">
        <ele>732.7</ele>
        <time>2019-08-16T06:11:28Z</time>
      </trkpt>
      <trkpt lat="41.9814650" lon="-6.0315870">
        <ele>732.7</ele>
        <time>2019-08-16T06:11:29Z</time>
      </trkpt>
      <trkpt lat="41.9814600" lon="-6.0316300">
        <ele>732.8</ele>
        <time>2019-08-16T06:11:30Z</time>
      </trkpt>
      <trkpt lat="41.9814550" lon="-6.0316740">
        <ele>732.8</ele>
        <time>2019-08-16T06:11:31Z</time>
      </trkpt>
      <trkpt lat="41.9814460" lon="-6.0317210">
        <ele>732.9</ele>
        <time>2019-08-16T06:11:32Z</time>
      </trkpt>
      <trkpt lat="41.9814360" lon="-6.0317680">
        <ele>733.0</ele>
        <time>2019-08-16T06:11:33Z</time>
      </trkpt>
      <trkpt lat="41.9814220" lon="-6.0318180">
        <ele>733.1</ele>
        <time>2019-08-16T06:11:34Z</time>
      </trkpt>
      <trkpt lat="41.9814070" lon="-6.0318680">
        <ele>733.2</ele>
        <time>2019-08-16T06:11:35Z</time>
      </trkpt>
      <trkpt lat="41.9813950" lon="-6.0319200">
        <ele>733.3</ele>
        <time>2019-08-16T06:11:36Z</time>
      </trkpt>
      <trkpt lat="41.9813850" lon="-6.0319730">
        <ele>733.4</ele>
        <time>2019-08-16T06:11:37Z</time>
      </trkpt>
      <trkpt lat="41.9813760" lon="-6.0320260">
        <ele>733.5</ele>
        <time>2019-08-16T06:11:38Z</time>
      </trkpt>
      <trkpt lat="41.9813700" lon="-6.0320770">
        <ele>733.6</ele>
        <time>2019-08-16T06:11:39Z</time>
      </trkpt>
      <trkpt lat="41.9813630" lon="-6.0321270">
        <ele>733.7</ele>
        <time>2019-08-16T06:11:40Z</time>
      </trkpt>
      <trkpt lat="41.9813520" lon="-6.0321770">
        <ele>733.9</ele>
        <time>2019-08-16T06:11:41Z</time>
      </trkpt>
      <trkpt lat="41.9813440" lon="-6.0322310">
        <ele>734.0</ele>
        <time>2019-08-16T06:11:42Z</time>
      </trkpt>
      <trkpt lat="41.9813320" lon="-6.0322870">
        <ele>734.1</ele>
        <time>2019-08-16T06:11:43Z</time>
      </trkpt>
      <trkpt lat="41.9813240" lon="-6.0323430">
        <ele>734.2</ele>
        <time>2019-08-16T06:11:44Z</time>
      </trkpt>
      <trkpt lat="41.9813180" lon="-6.0324010">
        <ele>734.3</ele>
        <time>2019-08-16T06:11:45Z</time>
      </trkpt>
      <trkpt lat="41.9813110" lon="-6.0324590">
        <ele>734.4</ele>
        <time>2019-08-16T06:11:46Z</time>
      </trkpt>
      <trkpt lat="41.9813050" lon="-6.0325190">
        <ele>734.5</ele>
        <time>2019-08-16T06:11:47Z</time>
      </trkpt>
      <trkpt lat="41.9813010" lon="-6.0325780">
        <ele>734.6</ele>
        <time>2019-08-16T06:11:48Z</time>
      </trkpt>
      <trkpt lat="41.9812940" lon="-6.0326350">
        <ele>734.7</ele>
        <time>2019-08-16T06:11:49Z</time>
      </trkpt>
      <trkpt lat="41.9812880" lon="-6.0326890">
        <ele>734.7</ele>
        <time>2019-08-16T06:11:50Z</time>
      </trkpt>
      <trkpt lat="41.9812840" lon="-6.0327380">
        <ele>734.8</ele>
        <time>2019-08-16T06:11:51Z</time>
      </trkpt>
      <trkpt lat="41.9812840" lon="-6.0327850">
        <ele>734.8</ele>
        <time>2019-08-16T06:11:52Z</time>
      </trkpt>
      <trkpt lat="41.9812810" lon="-6.0328280">
        <ele>734.9</ele>
        <time>2019-08-16T06:11:53Z</time>
      </trkpt>
      <trkpt lat="41.9812810" lon="-6.0328710">
        <ele>734.9</ele>
        <time>2019-08-16T06:11:54Z</time>
      </trkpt>
      <trkpt lat="41.9812790" lon="-6.0329370">
        <ele>735.0</ele>
        <time>2019-08-16T06:11:56Z</time>
      </trkpt>
      <trkpt lat="41.9812780" lon="-6.0329930">
        <ele>735.0</ele>
        <time>2019-08-16T06:11:58Z</time>
      </trkpt>
      <trkpt lat="41.9812740" lon="-6.0330490">
        <ele>735.0</ele>
        <time>2019-08-16T06:12:00Z</time>
      </trkpt>
      <trkpt lat="41.9812710" lon="-6.0331050">
        <ele>735.1</ele>
        <time>2019-08-16T06:12:02Z</time>
      </trkpt>
      <trkpt lat="41.9812630" lon="-6.0331700">
        <ele>735.1</ele>
        <time>2019-08-16T06:12:04Z</time>
      </trkpt>
      <trkpt lat="41.9812570" lon="-6.0332080">
        <ele>735.2</ele>
        <time>2019-08-16T06:12:05Z</time>
      </trkpt>
      <trkpt lat="41.9812490" lon="-6.0332480">
        <ele>735.2</ele>
        <time>2019-08-16T06:12:06Z</time>
      </trkpt>
      <trkpt lat="41.9812440" lon="-6.0332900">
        <ele>735.2</ele>
        <time>2019-08-16T06:12:07Z</time>
      </trkpt>
      <trkpt lat="41.9812400" lon="-6.0333330">
        <ele>735.3</ele>
        <time>2019-08-16T06:12:08Z</time>
      </trkpt>
      <trkpt lat="41.9812380" lon="-6.0333790">
        <ele>735.3</ele>
        <time>2019-08-16T06:12:09Z</time>
      </trkpt>
      <trkpt lat="41.9812390" lon="-6.0334270">
        <ele>735.3</ele>
        <time>2019-08-16T06:12:10Z</time>
      </trkpt>
      <trkpt lat="41.9812410" lon="-6.0334750">
        <ele>735.4</ele>
        <time>2019-08-16T06:12:11Z</time>
      </trkpt>
      <trkpt lat="41.9812480" lon="-6.0335250">
        <ele>735.4</ele>
        <time>2019-08-16T06:12:12Z</time>
      </trkpt>
      <trkpt lat="41.9812530" lon="-6.0335740">
        <ele>735.5</ele>
        <time>2019-08-16T06:12:13Z</time>
      </trkpt>
      <trkpt lat="41.9812570" lon="-6.0336170">
        <ele>735.5</ele>
        <time>2019-08-16T06:12:14Z</time>
      </trkpt>
      <trkpt lat="41.9812640" lon="-6.0336570">
        <ele>735.5</ele>
        <time>2019-08-16T06:12:15Z</time>
      </trkpt>
      <trkpt lat="41.9812730" lon="-6.0336930">
        <ele>735.6</ele>
        <time>2019-08-16T06:12:16Z</time>
      </trkpt>
      <trkpt lat="41.9812820" lon="-6.0337280">
        <ele>735.6</ele>
        <time>2019-08-16T06:12:17Z</time>
      </trkpt>
      <trkpt lat="41.9812860" lon="-6.0337650">
        <ele>735.7</ele>
        <time>2019-08-16T06:12:18Z</time>
      </trkpt>
      <trkpt lat="41.9812910" lon="-6.0338080">
        <ele>735.7</ele>
        <time>2019-08-16T06:12:19Z</time>
      </trkpt>
      <trkpt lat="41.9812990" lon="-6.0338520">
        <ele>735.8</ele>
        <time>2019-08-16T06:12:20Z</time>
      </trkpt>
      <trkpt lat="41.9813090" lon="-6.0338960">
        <ele>735.8</ele>
        <time>2019-08-16T06:12:21Z</time>
      </trkpt>
      <trkpt lat="41.9813200" lon="-6.0339430">
        <ele>735.9</ele>
        <time>2019-08-16T06:12:22Z</time>
      </trkpt>
      <trkpt lat="41.9813320" lon="-6.0339950">
        <ele>736.0</ele>
        <time>2019-08-16T06:12:23Z</time>
      </trkpt>
      <trkpt lat="41.9813470" lon="-6.0340460">
        <ele>736.0</ele>
        <time>2019-08-16T06:12:24Z</time>
      </trkpt>
      <trkpt lat="41.9813630" lon="-6.0340970">
        <ele>736.1</ele>
        <time>2019-08-16T06:12:25Z</time>
      </trkpt>
      <trkpt lat="41.9813780" lon="-6.0341500">
        <ele>736.2</ele>
        <time>2019-08-16T06:12:26Z</time>
      </trkpt>
      <trkpt lat="41.9813900" lon="-6.0342080">
        <ele>736.2</ele>
        <time>2019-08-16T06:12:27Z</time>
      </trkpt>
      <trkpt lat="41.9814040" lon="-6.0342630">
        <ele>736.2</ele>
        <time>2019-08-16T06:12:28Z</time>
      </trkpt>
      <trkpt lat="41.9814190" lon="-6.0343190">
        <ele>736.3</ele>
        <time>2019-08-16T06:12:29Z</time>
      </trkpt>
      <trkpt lat="41.9814380" lon="-6.0343760">
        <ele>736.3</ele>
        <time>2019-08-16T06:12:30Z</time>
      </trkpt>
      <trkpt lat="41.9814550" lon="-6.0344300">
        <ele>736.4</ele>
        <time>2019-08-16T06:12:31Z</time>
      </trkpt>
      <trkpt lat="41.9814680" lon="-6.0344870">
        <ele>736.4</ele>
        <time>2019-08-16T06:12:32Z</time>
      </trkpt>
      <trkpt lat="41.9814800" lon="-6.0345440">
        <ele>736.4</ele>
        <time>2019-08-16T06:12:33Z</time>
      </trkpt>
      <trkpt lat="41.9814910" lon="-6.0345990">
        <ele>736.5</ele>
        <time>2019-08-16T06:12:34Z</time>
      </trkpt>
      <trkpt lat="41.9815010" lon="-6.0346530">
        <ele>736.5</ele>
        <time>2019-08-16T06:12:35Z</time>
      </trkpt>
      <trkpt lat="41.9815160" lon="-6.0347060">
        <ele>736.6</ele>
        <time>2019-08-16T06:12:36Z</time>
      </trkpt>
      <trkpt lat="41.9815320" lon="-6.0347630">
        <ele>736.6</ele>
        <time>2019-08-16T06:12:37Z</time>
      </trkpt>
      <trkpt lat="41.9815480" lon="-6.0348180">
        <ele>736.7</ele>
        <time>2019-08-16T06:12:38Z</time>
      </trkpt>
      <trkpt lat="41.9815640" lon="-6.0348740">
        <ele>736.8</ele>
        <time>2019-08-16T06:12:39Z</time>
      </trkpt>
      <trkpt lat="41.9815800" lon="-6.0349290">
        <ele>736.8</ele>
        <time>2019-08-16T06:12:40Z</time>
      </trkpt>
      <trkpt lat="41.9815950" lon="-6.0349830">
        <ele>736.9</ele>
        <time>2019-08-16T06:12:41Z</time>
      </trkpt>
      <trkpt lat="41.9816070" lon="-6.0350330">
        <ele>737.0</ele>
        <time>2019-08-16T06:12:42Z</time>
      </trkpt>
      <trkpt lat="41.9816200" lon="-6.0350800">
        <ele>737.1</ele>
        <time>2019-08-16T06:12:43Z</time>
      </trkpt>
      <trkpt lat="41.9816310" lon="-6.0351260">
        <ele>737.1</ele>
        <time>2019-08-16T06:12:44Z</time>
      </trkpt>
      <trkpt lat="41.9816450" lon="-6.0351760">
        <ele>737.2</ele>
        <time>2019-08-16T06:12:45Z</time>
      </trkpt>
      <trkpt lat="41.9816550" lon="-6.0352270">
        <ele>737.2</ele>
        <time>2019-08-16T06:12:46Z</time>
      </trkpt>
      <trkpt lat="41.9816680" lon="-6.0352780">
        <ele>737.3</ele>
        <time>2019-08-16T06:12:47Z</time>
      </trkpt>
      <trkpt lat="41.9816820" lon="-6.0353290">
        <ele>737.4</ele>
        <time>2019-08-16T06:12:48Z</time>
      </trkpt>
      <trkpt lat="41.9816950" lon="-6.0353810">
        <ele>737.4</ele>
        <time>2019-08-16T06:12:49Z</time>
      </trkpt>
      <trkpt lat="41.9817070" lon="-6.0354380">
        <ele>737.5</ele>
        <time>2019-08-16T06:12:50Z</time>
      </trkpt>
      <trkpt lat="41.9817150" lon="-6.0354970">
        <ele>737.5</ele>
        <time>2019-08-16T06:12:51Z</time>
      </trkpt>
      <trkpt lat="41.9817250" lon="-6.0355530">
        <ele>737.6</ele>
        <time>2019-08-16T06:12:52Z</time>
      </trkpt>
      <trkpt lat="41.9817380" lon="-6.0356080">
        <ele>737.6</ele>
        <time>2019-08-16T06:12:53Z</time>
      </trkpt>
      <trkpt lat="41.9817480" lon="-6.0356620">
        <ele>737.7</ele>
        <time>2019-08-16T06:12:54Z</time>
      </trkpt>
      <trkpt lat="41.9817570" lon="-6.0357170">
        <ele>737.7</ele>
        <time>2019-08-16T06:12:55Z</time>
      </trkpt>
      <trkpt lat="41.9817680" lon="-6.0357720">
        <ele>737.8</ele>
        <time>2019-08-16T06:12:56Z</time>
      </trkpt>
      <trkpt lat="41.9817750" lon="-6.0358290">
        <ele>737.8</ele>
        <time>2019-08-16T06:12:57Z</time>
      </trkpt>
      <trkpt lat="41.9817860" lon="-6.0358820">
        <ele>737.9</ele>
        <time>2019-08-16T06:12:58Z</time>
      </trkpt>
      <trkpt lat="41.9817940" lon="-6.0359380">
        <ele>737.9</ele>
        <time>2019-08-16T06:12:59Z</time>
      </trkpt>
      <trkpt lat="41.9818010" lon="-6.0359930">
        <ele>737.9</ele>
        <time>2019-08-16T06:13:00Z</time>
      </trkpt>
      <trkpt lat="41.9818090" lon="-6.0360470">
        <ele>738.0</ele>
        <time>2019-08-16T06:13:01Z</time>
      </trkpt>
      <trkpt lat="41.9818170" lon="-6.0361060">
        <ele>738.0</ele>
        <time>2019-08-16T06:13:02Z</time>
      </trkpt>
      <trkpt lat="41.9818240" lon="-6.0361650">
        <ele>738.1</ele>
        <time>2019-08-16T06:13:03Z</time>
      </trkpt>
      <trkpt lat="41.9818320" lon="-6.0362250">
        <ele>738.1</ele>
        <time>2019-08-16T06:13:04Z</time>
      </trkpt>
      <trkpt lat="41.9818450" lon="-6.0362830">
        <ele>738.1</ele>
        <time>2019-08-16T06:13:05Z</time>
      </trkpt>
      <trkpt lat="41.9818550" lon="-6.0363390">
        <ele>738.2</ele>
        <time>2019-08-16T06:13:06Z</time>
      </trkpt>
      <trkpt lat="41.9818580" lon="-6.0363960">
        <ele>738.2</ele>
        <time>2019-08-16T06:13:07Z</time>
      </trkpt>
      <trkpt lat="41.9818640" lon="-6.0364510">
        <ele>738.3</ele>
        <time>2019-08-16T06:13:08Z</time>
      </trkpt>
      <trkpt lat="41.9818710" lon="-6.0365060">
        <ele>738.3</ele>
        <time>2019-08-16T06:13:09Z</time>
      </trkpt>
      <trkpt lat="41.9818740" lon="-6.0365680">
        <ele>738.3</ele>
        <time>2019-08-16T06:13:10Z</time>
      </trkpt>
      <trkpt lat="41.9818770" lon="-6.0366250">
        <ele>738.4</ele>
        <time>2019-08-16T06:13:11Z</time>
      </trkpt>
      <trkpt lat="41.9818800" lon="-6.0366800">
        <ele>738.4</ele>
        <time>2019-08-16T06:13:12Z</time>
      </trkpt>
      <trkpt lat="41.9818830" lon="-6.0367330">
        <ele>738.4</ele>
        <time>2019-08-16T06:13:13Z</time>
      </trkpt>
      <trkpt lat="41.9818860" lon="-6.0367860">
        <ele>738.5</ele>
        <time>2019-08-16T06:13:14Z</time>
      </trkpt>
      <trkpt lat="41.9818910" lon="-6.0368410">
        <ele>738.5</ele>
        <time>2019-08-16T06:13:15Z</time>
      </trkpt>
      <trkpt lat="41.9818920" lon="-6.0368970">
        <ele>738.6</ele>
        <time>2019-08-16T06:13:16Z</time>
      </trkpt>
      <trkpt lat="41.9818910" lon="-6.0369530">
        <ele>738.6</ele>
        <time>2019-08-16T06:13:17Z</time>
      </trkpt>
      <trkpt lat="41.9818870" lon="-6.0370070">
        <ele>738.7</ele>
        <time>2019-08-16T06:13:18Z</time>
      </trkpt>
      <trkpt lat="41.9818780" lon="-6.0370610">
        <ele>738.7</ele>
        <time>2019-08-16T06:13:19Z</time>
      </trkpt>
      <trkpt lat="41.9818620" lon="-6.0371120">
        <ele>738.8</ele>
        <time>2019-08-16T06:13:20Z</time>
      </trkpt>
      <trkpt lat="41.9818430" lon="-6.0371620">
        <ele>738.7</ele>
        <time>2019-08-16T06:13:21Z</time>
      </trkpt>
      <trkpt lat="41.9818200" lon="-6.0372090">
        <ele>738.7</ele>
        <time>2019-08-16T06:13:22Z</time>
      </trkpt>
      <trkpt lat="41.9817980" lon="-6.0372530">
        <ele>738.7</ele>
        <time>2019-08-16T06:13:23Z</time>
      </trkpt>
      <trkpt lat="41.9817750" lon="-6.0372960">
        <ele>738.7</ele>
        <time>2019-08-16T06:13:24Z</time>
      </trkpt>
      <trkpt lat="41.9817520" lon="-6.0373380">
        <ele>738.7</ele>
        <time>2019-08-16T06:13:25Z</time>
      </trkpt>
      <trkpt lat="41.9817280" lon="-6.0373790">
        <ele>738.6</ele>
        <time>2019-08-16T06:13:26Z</time>
      </trkpt>
      <trkpt lat="41.9817040" lon="-6.0374220">
        <ele>738.6</ele>
        <time>2019-08-16T06:13:27Z</time>
      </trkpt>
      <trkpt lat="41.9816820" lon="-6.0374680">
        <ele>738.6</ele>
        <time>2019-08-16T06:13:28Z</time>
      </trkpt>
      <trkpt lat="41.9816580" lon="-6.0375150">
        <ele>738.6</ele>
        <time>2019-08-16T06:13:29Z</time>
      </trkpt>
      <trkpt lat="41.9816290" lon="-6.0375600">
        <ele>738.5</ele>
        <time>2019-08-16T06:13:30Z</time>
      </trkpt>
      <trkpt lat="41.9816050" lon="-6.0376090">
        <ele>738.5</ele>
        <time>2019-08-16T06:13:31Z</time>
      </trkpt>
      <trkpt lat="41.9815860" lon="-6.0376610">
        <ele>738.4</ele>
        <time>2019-08-16T06:13:32Z</time>
      </trkpt>
      <trkpt lat="41.9815680" lon="-6.0377150">
        <ele>738.3</ele>
        <time>2019-08-16T06:13:33Z</time>
      </trkpt>
      <trkpt lat="41.9815550" lon="-6.0377710">
        <ele>738.3</ele>
        <time>2019-08-16T06:13:34Z</time>
      </trkpt>
      <trkpt lat="41.9815460" lon="-6.0378280">
        <ele>738.2</ele>
        <time>2019-08-16T06:13:35Z</time>
      </trkpt>
      <trkpt lat="41.9815380" lon="-6.0378850">
        <ele>738.2</ele>
        <time>2019-08-16T06:13:36Z</time>
      </trkpt>
      <trkpt lat="41.9815310" lon="-6.0379420">
        <ele>738.1</ele>
        <time>2019-08-16T06:13:37Z</time>
      </trkpt>
      <trkpt lat="41.9815280" lon="-6.0380010">
        <ele>738.0</ele>
        <time>2019-08-16T06:13:38Z</time>
      </trkpt>
      <trkpt lat="41.9815310" lon="-6.0380570">
        <ele>738.0</ele>
        <time>2019-08-16T06:13:39Z</time>
      </trkpt>
      <trkpt lat="41.9815340" lon="-6.0381150">
        <ele>737.9</ele>
        <time>2019-08-16T06:13:40Z</time>
      </trkpt>
      <trkpt lat="41.9815340" lon="-6.0381710">
        <ele>737.9</ele>
        <time>2019-08-16T06:13:41Z</time>
      </trkpt>
      <trkpt lat="41.9815360" lon="-6.0382220">
        <ele>737.8</ele>
        <time>2019-08-16T06:13:42Z</time>
      </trkpt>
      <trkpt lat="41.9815360" lon="-6.0382770">
        <ele>737.8</ele>
        <time>2019-08-16T06:13:43Z</time>
      </trkpt>
      <trkpt lat="41.9815330" lon="-6.0383340">
        <ele>737.8</ele>
        <time>2019-08-16T06:13:44Z</time>
      </trkpt>
      <trkpt lat="41.9815330" lon="-6.0383960">
        <ele>737.7</ele>
        <time>2019-08-16T06:13:45Z</time>
      </trkpt>
      <trkpt lat="41.9815350" lon="-6.0384580">
        <ele>737.7</ele>
        <time>2019-08-16T06:13:46Z</time>
      </trkpt>
      <trkpt lat="41.9815350" lon="-6.0385220">
        <ele>737.7</ele>
        <time>2019-08-16T06:13:47Z</time>
      </trkpt>
      <trkpt lat="41.9815320" lon="-6.0385820">
        <ele>737.6</ele>
        <time>2019-08-16T06:13:48Z</time>
      </trkpt>
      <trkpt lat="41.9815270" lon="-6.0386380">
        <ele>737.6</ele>
        <time>2019-08-16T06:13:49Z</time>
      </trkpt>
      <trkpt lat="41.9815210" lon="-6.0386880">
        <ele>737.6</ele>
        <time>2019-08-16T06:13:50Z</time>
      </trkpt>
      <trkpt lat="41.9815140" lon="-6.0387360">
        <ele>737.5</ele>
        <time>2019-08-16T06:13:51Z</time>
      </trkpt>
      <trkpt lat="41.9815120" lon="-6.0387840">
        <ele>737.5</ele>
        <time>2019-08-16T06:13:52Z</time>
      </trkpt>
      <trkpt lat="41.9815090" lon="-6.0388340">
        <ele>737.5</ele>
        <time>2019-08-16T06:13:53Z</time>
      </trkpt>
      <trkpt lat="41.9815130" lon="-6.0388850">
        <ele>737.4</ele>
        <time>2019-08-16T06:13:54Z</time>
      </trkpt>
      <trkpt lat="41.9815160" lon="-6.0389410">
        <ele>737.4</ele>
        <time>2019-08-16T06:13:55Z</time>
      </trkpt>
      <trkpt lat="41.9815140" lon="-6.0389900">
        <ele>737.3</ele>
        <time>2019-08-16T06:13:56Z</time>
      </trkpt>
      <trkpt lat="41.9815100" lon="-6.0390350">
        <ele>737.3</ele>
        <time>2019-08-16T06:13:57Z</time>
      </trkpt>
      <trkpt lat="41.9815100" lon="-6.0390860">
        <ele>737.3</ele>
        <time>2019-08-16T06:13:58Z</time>
      </trkpt>
      <trkpt lat="41.9815110" lon="-6.0391420">
        <ele>737.3</ele>
        <time>2019-08-16T06:13:59Z</time>
      </trkpt>
      <trkpt lat="41.9815130" lon="-6.0392000">
        <ele>737.2</ele>
        <time>2019-08-16T06:14:00Z</time>
      </trkpt>
      <trkpt lat="41.9815150" lon="-6.0392590">
        <ele>737.2</ele>
        <time>2019-08-16T06:14:01Z</time>
      </trkpt>
      <trkpt lat="41.9815170" lon="-6.0393250">
        <ele>737.2</ele>
        <time>2019-08-16T06:14:02Z</time>
      </trkpt>
      <trkpt lat="41.9815180" lon="-6.0393890">
        <ele>737.2</ele>
        <time>2019-08-16T06:14:03Z</time>
      </trkpt>
      <trkpt lat="41.9815160" lon="-6.0394550">
        <ele>737.2</ele>
        <time>2019-08-16T06:14:04Z</time>
      </trkpt>
      <trkpt lat="41.9815120" lon="-6.0395230">
        <ele>737.1</ele>
        <time>2019-08-16T06:14:05Z</time>
      </trkpt>
      <trkpt lat="41.9815060" lon="-6.0395860">
        <ele>737.1</ele>
        <time>2019-08-16T06:14:06Z</time>
      </trkpt>
      <trkpt lat="41.9815010" lon="-6.0396530">
        <ele>737.1</ele>
        <time>2019-08-16T06:14:07Z</time>
      </trkpt>
      <trkpt lat="41.9814970" lon="-6.0397210">
        <ele>737.1</ele>
        <time>2019-08-16T06:14:08Z</time>
      </trkpt>
      <trkpt lat="41.9814980" lon="-6.0397850">
        <ele>737.1</ele>
        <time>2019-08-16T06:14:09Z</time>
      </trkpt>
      <trkpt lat="41.9814960" lon="-6.0398510">
        <ele>737.1</ele>
        <time>2019-08-16T06:14:10Z</time>
      </trkpt>
      <trkpt lat="41.9814900" lon="-6.0399230">
        <ele>737.1</ele>
        <time>2019-08-16T06:14:11Z</time>
      </trkpt>
      <trkpt lat="41.9814830" lon="-6.0399840">
        <ele>737.1</ele>
        <time>2019-08-16T06:14:12Z</time>
      </trkpt>
      <trkpt lat="41.9814780" lon="-6.0400430">
        <ele>737.1</ele>
        <time>2019-08-16T06:14:13Z</time>
      </trkpt>
      <trkpt lat="41.9814750" lon="-6.0400980">
        <ele>737.0</ele>
        <time>2019-08-16T06:14:14Z</time>
      </trkpt>
      <trkpt lat="41.9814760" lon="-6.0401520">
        <ele>737.0</ele>
        <time>2019-08-16T06:14:15Z</time>
      </trkpt>
      <trkpt lat="41.9814710" lon="-6.0402040">
        <ele>737.0</ele>
        <time>2019-08-16T06:14:16Z</time>
      </trkpt>
      <trkpt lat="41.9814730" lon="-6.0402550">
        <ele>737.0</ele>
        <time>2019-08-16T06:14:17Z</time>
      </trkpt>
      <trkpt lat="41.9814760" lon="-6.0403030">
        <ele>737.0</ele>
        <time>2019-08-16T06:14:18Z</time>
      </trkpt>
      <trkpt lat="41.9814800" lon="-6.0403590">
        <ele>737.0</ele>
        <time>2019-08-16T06:14:19Z</time>
      </trkpt>
      <trkpt lat="41.9814900" lon="-6.0404190">
        <ele>737.0</ele>
        <time>2019-08-16T06:14:20Z</time>
      </trkpt>
      <trkpt lat="41.9814960" lon="-6.0404880">
        <ele>737.0</ele>
        <time>2019-08-16T06:14:21Z</time>
      </trkpt>
      <trkpt lat="41.9814980" lon="-6.0405540">
        <ele>737.0</ele>
        <time>2019-08-16T06:14:22Z</time>
      </trkpt>
      <trkpt lat="41.9815010" lon="-6.0406210">
        <ele>737.0</ele>
        <time>2019-08-16T06:14:23Z</time>
      </trkpt>
      <trkpt lat="41.9815030" lon="-6.0406910">
        <ele>737.0</ele>
        <time>2019-08-16T06:14:24Z</time>
      </trkpt>
      <trkpt lat="41.9815020" lon="-6.0407570">
        <ele>737.0</ele>
        <time>2019-08-16T06:14:25Z</time>
      </trkpt>
      <trkpt lat="41.9815040" lon="-6.0408220">
        <ele>736.9</ele>
        <time>2019-08-16T06:14:26Z</time>
      </trkpt>
      <trkpt lat="41.9815040" lon="-6.0408880">
        <ele>736.9</ele>
        <time>2019-08-16T06:14:27Z</time>
      </trkpt>
      <trkpt lat="41.9815070" lon="-6.0409490">
        <ele>736.8</ele>
        <time>2019-08-16T06:14:28Z</time>
      </trkpt>
      <trkpt lat="41.9815110" lon="-6.0410060">
        <ele>736.7</ele>
        <time>2019-08-16T06:14:29Z</time>
      </trkpt>
      <trkpt lat="41.9815240" lon="-6.0410660">
        <ele>736.7</ele>
        <time>2019-08-16T06:14:30Z</time>
      </trkpt>
      <trkpt lat="41.9815470" lon="-6.0411290">
        <ele>736.6</ele>
        <time>2019-08-16T06:14:31Z</time>
      </trkpt>
      <trkpt lat="41.9815740" lon="-6.0411920">
        <ele>736.5</ele>
        <time>2019-08-16T06:14:32Z</time>
      </trkpt>
      <trkpt lat="41.9816080" lon="-6.0412460">
        <ele>736.4</ele>
        <time>2019-08-16T06:14:33Z</time>
      </trkpt>
      <trkpt lat="41.9816420" lon="-6.0412970">
        <ele>736.4</ele>
        <time>2019-08-16T06:14:34Z</time>
      </trkpt>
      <trkpt lat="41.9816800" lon="-6.0413440">
        <ele>736.2</ele>
        <time>2019-08-16T06:14:35Z</time>
      </trkpt>
      <trkpt lat="41.9817150" lon="-6.0413880">
        <ele>736.1</ele>
        <time>2019-08-16T06:14:36Z</time>
      </trkpt>
      <trkpt lat="41.9817440" lon="-6.0414370">
        <ele>736.1</ele>
        <time>2019-08-16T06:14:37Z</time>
      </trkpt>
      <trkpt lat="41.9817670" lon="-6.0414900">
        <ele>736.0</ele>
        <time>2019-08-16T06:14:38Z</time>
      </trkpt>
      <trkpt lat="41.9817860" lon="-6.0415450">
        <ele>736.0</ele>
        <time>2019-08-16T06:14:39Z</time>
      </trkpt>
      <trkpt lat="41.9818010" lon="-6.0415990">
        <ele>736.0</ele>
        <time>2019-08-16T06:14:40Z</time>
      </trkpt>
      <trkpt lat="41.9818160" lon="-6.0416570">
        <ele>736.0</ele>
        <time>2019-08-16T06:14:41Z</time>
      </trkpt>
      <trkpt lat="41.9818280" lon="-6.0417160">
        <ele>736.0</ele>
        <time>2019-08-16T06:14:42Z</time>
      </trkpt>
      <trkpt lat="41.9818410" lon="-6.0417760">
        <ele>736.1</ele>
        <time>2019-08-16T06:14:43Z</time>
      </trkpt>
      <trkpt lat="41.9818540" lon="-6.0418370">
        <ele>736.1</ele>
        <time>2019-08-16T06:14:44Z</time>
      </trkpt>
      <trkpt lat="41.9818670" lon="-6.0418950">
        <ele>736.1</ele>
        <time>2019-08-16T06:14:45Z</time>
      </trkpt>
      <trkpt lat="41.9818810" lon="-6.0419510">
        <ele>736.1</ele>
        <time>2019-08-16T06:14:46Z</time>
      </trkpt>
      <trkpt lat="41.9818950" lon="-6.0420080">
        <ele>736.2</ele>
        <time>2019-08-16T06:14:47Z</time>
      </trkpt>
      <trkpt lat="41.9819090" lon="-6.0420620">
        <ele>736.2</ele>
        <time>2019-08-16T06:14:48Z</time>
      </trkpt>
      <trkpt lat="41.9819230" lon="-6.0421170">
        <ele>736.2</ele>
        <time>2019-08-16T06:14:49Z</time>
      </trkpt>
      <trkpt lat="41.9819400" lon="-6.0421710">
        <ele>736.2</ele>
        <time>2019-08-16T06:14:50Z</time>
      </trkpt>
      <trkpt lat="41.9819580" lon="-6.0422250">
        <ele>736.3</ele>
        <time>2019-08-16T06:14:51Z</time>
      </trkpt>
      <trkpt lat="41.9819770" lon="-6.0422790">
        <ele>736.3</ele>
        <time>2019-08-16T06:14:52Z</time>
      </trkpt>
      <trkpt lat="41.9819950" lon="-6.0423320">
        <ele>736.3</ele>
        <time>2019-08-16T06:14:53Z</time>
      </trkpt>
      <trkpt lat="41.9820160" lon="-6.0423840">
        <ele>736.4</ele>
        <time>2019-08-16T06:14:54Z</time>
      </trkpt>
      <trkpt lat="41.9820350" lon="-6.0424370">
        <ele>736.4</ele>
        <time>2019-08-16T06:14:55Z</time>
      </trkpt>
      <trkpt lat="41.9820530" lon="-6.0424920">
        <ele>736.4</ele>
        <time>2019-08-16T06:14:56Z</time>
      </trkpt>
      <trkpt lat="41.9820660" lon="-6.0425500">
        <ele>736.4</ele>
        <time>2019-08-16T06:14:57Z</time>
      </trkpt>
      <trkpt lat="41.9820760" lon="-6.0426080">
        <ele>736.4</ele>
        <time>2019-08-16T06:14:58Z</time>
      </trkpt>
      <trkpt lat="41.9820800" lon="-6.0426700">
        <ele>736.4</ele>
        <time>2019-08-16T06:14:59Z</time>
      </trkpt>
      <trkpt lat="41.9820820" lon="-6.0427320">
        <ele>736.4</ele>
        <time>2019-08-16T06:15:00Z</time>
      </trkpt>
      <trkpt lat="41.9820850" lon="-6.0427950">
        <ele>736.4</ele>
        <time>2019-08-16T06:15:01Z</time>
      </trkpt>
      <trkpt lat="41.9820900" lon="-6.0428540">
        <ele>736.3</ele>
        <time>2019-08-16T06:15:02Z</time>
      </trkpt>
      <trkpt lat="41.9820930" lon="-6.0429140">
        <ele>736.3</ele>
        <time>2019-08-16T06:15:03Z</time>
      </trkpt>
      <trkpt lat="41.9820960" lon="-6.0429690">
        <ele>736.3</ele>
        <time>2019-08-16T06:15:04Z</time>
      </trkpt>
      <trkpt lat="41.9821000" lon="-6.0430220">
        <ele>736.3</ele>
        <time>2019-08-16T06:15:05Z</time>
      </trkpt>
      <trkpt lat="41.9821070" lon="-6.0430760">
        <ele>736.2</ele>
        <time>2019-08-16T06:15:06Z</time>
      </trkpt>
      <trkpt lat="41.9821120" lon="-6.0431290">
        <ele>736.2</ele>
        <time>2019-08-16T06:15:07Z</time>
      </trkpt>
      <trkpt lat="41.9821160" lon="-6.0431840">
        <ele>736.2</ele>
        <time>2019-08-16T06:15:08Z</time>
      </trkpt>
      <trkpt lat="41.9821200" lon="-6.0432400">
        <ele>736.1</ele>
        <time>2019-08-16T06:15:09Z</time>
      </trkpt>
      <trkpt lat="41.9821220" lon="-6.0432980">
        <ele>736.1</ele>
        <time>2019-08-16T06:15:10Z</time>
      </trkpt>
      <trkpt lat="41.9821240" lon="-6.0433550">
        <ele>736.1</ele>
        <time>2019-08-16T06:15:11Z</time>
      </trkpt>
      <trkpt lat="41.9821270" lon="-6.0434120">
        <ele>736.0</ele>
        <time>2019-08-16T06:15:12Z</time>
      </trkpt>
      <trkpt lat="41.9821300" lon="-6.0434720">
        <ele>736.0</ele>
        <time>2019-08-16T06:15:13Z</time>
      </trkpt>
      <trkpt lat="41.9821310" lon="-6.0435300">
        <ele>736.0</ele>
        <time>2019-08-16T06:15:14Z</time>
      </trkpt>
      <trkpt lat="41.9821290" lon="-6.0435850">
        <ele>736.0</ele>
        <time>2019-08-16T06:15:15Z</time>
      </trkpt>
      <trkpt lat="41.9821270" lon="-6.0436410">
        <ele>735.9</ele>
        <time>2019-08-16T06:15:16Z</time>
      </trkpt>
      <trkpt lat="41.9821240" lon="-6.0436980">
        <ele>735.9</ele>
        <time>2019-08-16T06:15:17Z</time>
      </trkpt>
      <trkpt lat="41.9821190" lon="-6.0437570">
        <ele>735.9</ele>
        <time>2019-08-16T06:15:18Z</time>
      </trkpt>
      <trkpt lat="41.9821140" lon="-6.0438150">
        <ele>735.8</ele>
        <time>2019-08-16T06:15:19Z</time>
      </trkpt>
      <trkpt lat="41.9821060" lon="-6.0438700">
        <ele>735.8</ele>
        <time>2019-08-16T06:15:20Z</time>
      </trkpt>
      <trkpt lat="41.9820970" lon="-6.0439280">
        <ele>735.8</ele>
        <time>2019-08-16T06:15:21Z</time>
      </trkpt>
      <trkpt lat="41.9820840" lon="-6.0439840">
        <ele>735.7</ele>
        <time>2019-08-16T06:15:22Z</time>
      </trkpt>
      <trkpt lat="41.9820660" lon="-6.0440370">
        <ele>735.7</ele>
        <time>2019-08-16T06:15:23Z</time>
      </trkpt>
      <trkpt lat="41.9820420" lon="-6.0440870">
        <ele>735.6</ele>
        <time>2019-08-16T06:15:24Z</time>
      </trkpt>
      <trkpt lat="41.9820150" lon="-6.0441370">
        <ele>735.5</ele>
        <time>2019-08-16T06:15:25Z</time>
      </trkpt>
      <trkpt lat="41.9819850" lon="-6.0441830">
        <ele>735.5</ele>
        <time>2019-08-16T06:15:26Z</time>
      </trkpt>
      <trkpt lat="41.9819560" lon="-6.0442290">
        <ele>735.4</ele>
        <time>2019-08-16T06:15:27Z</time>
      </trkpt>
      <trkpt lat="41.9819280" lon="-6.0442750">
        <ele>735.3</ele>
        <time>2019-08-16T06:15:28Z</time>
      </trkpt>
      <trkpt lat="41.9819040" lon="-6.0443250">
        <ele>735.2</ele>
        <time>2019-08-16T06:15:29Z</time>
      </trkpt>
      <trkpt lat="41.9818840" lon="-6.0443790">
        <ele>735.2</ele>
        <time>2019-08-16T06:15:30Z</time>
      </trkpt>
      <trkpt lat="41.9818670" lon="-6.0444360">
        <ele>735.1</ele>
        <time>2019-08-16T06:15:31Z</time>
      </trkpt>
      <trkpt lat="41.9818520" lon="-6.0444920">
        <ele>735.0</ele>
        <time>2019-08-16T06:15:32Z</time>
      </trkpt>
      <trkpt lat="41.9818380" lon="-6.0445490">
        <ele>735.0</ele>
        <time>2019-08-16T06:15:33Z</time>
      </trkpt>
      <trkpt lat="41.9818250" lon="-6.0446050">
        <ele>735.0</ele>
        <time>2019-08-16T06:15:34Z</time>
      </trkpt>
      <trkpt lat="41.9818130" lon="-6.0446560">
        <ele>734.9</ele>
        <time>2019-08-16T06:15:35Z</time>
      </trkpt>
      <trkpt lat="41.9818000" lon="-6.0447070">
        <ele>735.0</ele>
        <time>2019-08-16T06:15:36Z</time>
      </trkpt>
      <trkpt lat="41.9817870" lon="-6.0447570">
        <ele>735.0</ele>
        <time>2019-08-16T06:15:37Z</time>
      </trkpt>
      <trkpt lat="41.9817730" lon="-6.0448080">
        <ele>735.0</ele>
        <time>2019-08-16T06:15:38Z</time>
      </trkpt>
      <trkpt lat="41.9817570" lon="-6.0448560">
        <ele>735.0</ele>
        <time>2019-08-16T06:15:39Z</time>
      </trkpt>
      <trkpt lat="41.9817400" lon="-6.0449040">
        <ele>735.0</ele>
        <time>2019-08-16T06:15:40Z</time>
      </trkpt>
      <trkpt lat="41.9817220" lon="-6.0449460">
        <ele>735.0</ele>
        <time>2019-08-16T06:15:41Z</time>
      </trkpt>
      <trkpt lat="41.9817050" lon="-6.0449810">
        <ele>735.1</ele>
        <time>2019-08-16T06:15:42Z</time>
      </trkpt>
      <trkpt lat="41.9816860" lon="-6.0450180">
        <ele>735.1</ele>
        <time>2019-08-16T06:15:43Z</time>
      </trkpt>
      <trkpt lat="41.9816670" lon="-6.0450620">
        <ele>735.2</ele>
        <time>2019-08-16T06:15:44Z</time>
      </trkpt>
      <trkpt lat="41.9816460" lon="-6.0451020">
        <ele>735.3</ele>
        <time>2019-08-16T06:15:45Z</time>
      </trkpt>
      <trkpt lat="41.9816240" lon="-6.0451420">
        <ele>735.3</ele>
        <time>2019-08-16T06:15:46Z</time>
      </trkpt>
      <trkpt lat="41.9816000" lon="-6.0451830">
        <ele>735.4</ele>
        <time>2019-08-16T06:15:47Z</time>
      </trkpt>
      <trkpt lat="41.9815760" lon="-6.0452260">
        <ele>735.4</ele>
        <time>2019-08-16T06:15:48Z</time>
      </trkpt>
      <trkpt lat="41.9815540" lon="-6.0452690">
        <ele>735.5</ele>
        <time>2019-08-16T06:15:49Z</time>
      </trkpt>
      <trkpt lat="41.9815310" lon="-6.0453140">
        <ele>735.5</ele>
        <time>2019-08-16T06:15:50Z</time>
      </trkpt>
      <trkpt lat="41.9815080" lon="-6.0453590">
        <ele>735.6</ele>
        <time>2019-08-16T06:15:51Z</time>
      </trkpt>
      <trkpt lat="41.9814840" lon="-6.0454020">
        <ele>735.6</ele>
        <time>2019-08-16T06:15:52Z</time>
      </trkpt>
      <trkpt lat="41.9814610" lon="-6.0454460">
        <ele>735.7</ele>
        <time>2019-08-16T06:15:53Z</time>
      </trkpt>
      <trkpt lat="41.9814370" lon="-6.0454900">
        <ele>735.7</ele>
        <time>2019-08-16T06:15:54Z</time>
      </trkpt>
      <trkpt lat="41.9814150" lon="-6.0455310">
        <ele>735.7</ele>
        <time>2019-08-16T06:15:55Z</time>
      </trkpt>
      <trkpt lat="41.9813910" lon="-6.0455720">
        <ele>735.8</ele>
        <time>2019-08-16T06:15:56Z</time>
      </trkpt>
      <trkpt lat="41.9813650" lon="-6.0456140">
        <ele>735.8</ele>
        <time>2019-08-16T06:15:57Z</time>
      </trkpt>
      <trkpt lat="41.9813400" lon="-6.0456580">
        <ele>735.8</ele>
        <time>2019-08-16T06:15:58Z</time>
      </trkpt>
      <trkpt lat="41.9813160" lon="-6.0457010">
        <ele>735.8</ele>
        <time>2019-08-16T06:15:59Z</time>
      </trkpt>
      <trkpt lat="41.9812920" lon="-6.0457440">
        <ele>735.9</ele>
        <time>2019-08-16T06:16:00Z</time>
      </trkpt>
      <trkpt lat="41.9812700" lon="-6.0457840">
        <ele>735.9</ele>
        <time>2019-08-16T06:16:01Z</time>
      </trkpt>
      <trkpt lat="41.9812470" lon="-6.0458240">
        <ele>735.9</ele>
        <time>2019-08-16T06:16:02Z</time>
      </trkpt>
      <trkpt lat="41.9812240" lon="-6.0458650">
        <ele>735.9</ele>
        <time>2019-08-16T06:16:03Z</time>
      </trkpt>
      <trkpt lat="41.9812020" lon="-6.0459080">
        <ele>735.8</ele>
        <time>2019-08-16T06:16:04Z</time>
      </trkpt>
      <trkpt lat="41.9811800" lon="-6.0459510">
        <ele>735.8</ele>
        <time>2019-08-16T06:16:05Z</time>
      </trkpt>
      <trkpt lat="41.9811600" lon="-6.0459930">
        <ele>735.8</ele>
        <time>2019-08-16T06:16:06Z</time>
      </trkpt>
      <trkpt lat="41.9811410" lon="-6.0460350">
        <ele>735.8</ele>
        <time>2019-08-16T06:16:07Z</time>
      </trkpt>
      <trkpt lat="41.9811240" lon="-6.0460760">
        <ele>735.8</ele>
        <time>2019-08-16T06:16:08Z</time>
      </trkpt>
      <trkpt lat="41.9811070" lon="-6.0461150">
        <ele>735.8</ele>
        <time>2019-08-16T06:16:09Z</time>
      </trkpt>
      <trkpt lat="41.9810880" lon="-6.0461510">
        <ele>735.7</ele>
        <time>2019-08-16T06:16:10Z</time>
      </trkpt>
      <trkpt lat="41.9810670" lon="-6.0461850">
        <ele>735.7</ele>
        <time>2019-08-16T06:16:11Z</time>
      </trkpt>
      <trkpt lat="41.9810420" lon="-6.0462180">
        <ele>735.6</ele>
        <time>2019-08-16T06:16:12Z</time>
      </trkpt>
      <trkpt lat="41.9810170" lon="-6.0462520">
        <ele>735.6</ele>
        <time>2019-08-16T06:16:13Z</time>
      </trkpt>
      <trkpt lat="41.9809940" lon="-6.0462880">
        <ele>735.5</ele>
        <time>2019-08-16T06:16:14Z</time>
      </trkpt>
      <trkpt lat="41.9809760" lon="-6.0463220">
        <ele>735.5</ele>
        <time>2019-08-16T06:16:15Z</time>
      </trkpt>
      <trkpt lat="41.9809590" lon="-6.0463500">
        <ele>735.4</ele>
        <time>2019-08-16T06:16:16Z</time>
      </trkpt>
      <trkpt lat="41.9809410" lon="-6.0463790">
        <ele>735.3</ele>
        <time>2019-08-16T06:16:17Z</time>
      </trkpt>
      <trkpt lat="41.9809250" lon="-6.0464130">
        <ele>735.3</ele>
        <time>2019-08-16T06:16:18Z</time>
      </trkpt>
      <trkpt lat="41.9809130" lon="-6.0464540">
        <ele>735.3</ele>
        <time>2019-08-16T06:16:19Z</time>
      </trkpt>
      <trkpt lat="41.9809080" lon="-6.0464980">
        <ele>735.3</ele>
        <time>2019-08-16T06:16:20Z</time>
      </trkpt>
      <trkpt lat="41.9809070" lon="-6.0465420">
        <ele>735.3</ele>
        <time>2019-08-16T06:16:21Z</time>
      </trkpt>
      <trkpt lat="41.9809070" lon="-6.0465810">
        <ele>735.3</ele>
        <time>2019-08-16T06:16:22Z</time>
      </trkpt>
      <trkpt lat="41.9809060" lon="-6.0466180">
        <ele>735.3</ele>
        <time>2019-08-16T06:16:23Z</time>
      </trkpt>
      <trkpt lat="41.9809030" lon="-6.0466860">
        <ele>735.3</ele>
        <time>2019-08-16T06:16:25Z</time>
      </trkpt>
      <trkpt lat="41.9809030" lon="-6.0467570">
        <ele>735.3</ele>
        <time>2019-08-16T06:16:27Z</time>
      </trkpt>
      <trkpt lat="41.9809070" lon="-6.0467960">
        <ele>735.3</ele>
        <time>2019-08-16T06:16:28Z</time>
      </trkpt>
      <trkpt lat="41.9809090" lon="-6.0468320">
        <ele>735.3</ele>
        <time>2019-08-16T06:16:29Z</time>
      </trkpt>
      <trkpt lat="41.9809170" lon="-6.0468930">
        <ele>735.3</ele>
        <time>2019-08-16T06:16:31Z</time>
      </trkpt>
      <trkpt lat="41.9809380" lon="-6.0469360">
        <ele>735.3</ele>
        <time>2019-08-16T06:16:34Z</time>
      </trkpt>
      <trkpt lat="41.9809640" lon="-6.0469650">
        <ele>735.3</ele>
        <time>2019-08-16T06:16:36Z</time>
      </trkpt>
      <trkpt lat="41.9809910" lon="-6.0469980">
        <ele>735.3</ele>
        <time>2019-08-16T06:16:38Z</time>
      </trkpt>
      <trkpt lat="41.9810120" lon="-6.0470460">
        <ele>735.3</ele>
        <time>2019-08-16T06:16:40Z</time>
      </trkpt>
      <trkpt lat="41.9810160" lon="-6.0471200">
        <ele>735.3</ele>
        <time>2019-08-16T06:16:42Z</time>
      </trkpt>
      <trkpt lat="41.9810110" lon="-6.0471630">
        <ele>735.3</ele>
        <time>2019-08-16T06:16:43Z</time>
      </trkpt>
      <trkpt lat="41.9810020" lon="-6.0472070">
        <ele>735.3</ele>
        <time>2019-08-16T06:16:44Z</time>
      </trkpt>
      <trkpt lat="41.9809890" lon="-6.0472530">
        <ele>735.3</ele>
        <time>2019-08-16T06:16:45Z</time>
      </trkpt>
      <trkpt lat="41.9809740" lon="-6.0472990">
        <ele>735.3</ele>
        <time>2019-08-16T06:16:46Z</time>
      </trkpt>
      <trkpt lat="41.9809560" lon="-6.0473460">
        <ele>735.3</ele>
        <time>2019-08-16T06:16:47Z</time>
      </trkpt>
      <trkpt lat="41.9809400" lon="-6.0473970">
        <ele>735.3</ele>
        <time>2019-08-16T06:16:48Z</time>
      </trkpt>
      <trkpt lat="41.9809260" lon="-6.0474510">
        <ele>735.3</ele>
        <time>2019-08-16T06:16:49Z</time>
      </trkpt>
      <trkpt lat="41.9809120" lon="-6.0475040">
        <ele>735.3</ele>
        <time>2019-08-16T06:16:50Z</time>
      </trkpt>
      <trkpt lat="41.9808970" lon="-6.0475560">
        <ele>735.3</ele>
        <time>2019-08-16T06:16:51Z</time>
      </trkpt>
      <trkpt lat="41.9808840" lon="-6.0476060">
        <ele>735.3</ele>
        <time>2019-08-16T06:16:52Z</time>
      </trkpt>
      <trkpt lat="41.9808720" lon="-6.0476540">
        <ele>735.3</ele>
        <time>2019-08-16T06:16:53Z</time>
      </trkpt>
      <trkpt lat="41.9808590" lon="-6.0476990">
        <ele>735.3</ele>
        <time>2019-08-16T06:16:54Z</time>
      </trkpt>
      <trkpt lat="41.9808480" lon="-6.0477430">
        <ele>735.3</ele>
        <time>2019-08-16T06:16:55Z</time>
      </trkpt>
      <trkpt lat="41.9808370" lon="-6.0477860">
        <ele>735.3</ele>
        <time>2019-08-16T06:16:56Z</time>
      </trkpt>
      <trkpt lat="41.9808250" lon="-6.0478300">
        <ele>735.3</ele>
        <time>2019-08-16T06:16:57Z</time>
      </trkpt>
      <trkpt lat="41.9808130" lon="-6.0478750">
        <ele>735.3</ele>
        <time>2019-08-16T06:16:58Z</time>
      </trkpt>
      <trkpt lat="41.9808010" lon="-6.0479220">
        <ele>735.3</ele>
        <time>2019-08-16T06:16:59Z</time>
      </trkpt>
      <trkpt lat="41.9807900" lon="-6.0479680">
        <ele>735.3</ele>
        <time>2019-08-16T06:17:00Z</time>
      </trkpt>
      <trkpt lat="41.9807780" lon="-6.0480150">
        <ele>735.3</ele>
        <time>2019-08-16T06:17:01Z</time>
      </trkpt>
      <trkpt lat="41.9807650" lon="-6.0480610">
        <ele>735.3</ele>
        <time>2019-08-16T06:17:02Z</time>
      </trkpt>
      <trkpt lat="41.9807510" lon="-6.0481060">
        <ele>735.3</ele>
        <time>2019-08-16T06:17:03Z</time>
      </trkpt>
      <trkpt lat="41.9807370" lon="-6.0481510">
        <ele>735.3</ele>
        <time>2019-08-16T06:17:04Z</time>
      </trkpt>
      <trkpt lat="41.9807240" lon="-6.0481940">
        <ele>735.3</ele>
        <time>2019-08-16T06:17:05Z</time>
      </trkpt>
      <trkpt lat="41.9807110" lon="-6.0482340">
        <ele>735.3</ele>
        <time>2019-08-16T06:17:06Z</time>
      </trkpt>
      <trkpt lat="41.9806980" lon="-6.0482730">
        <ele>735.3</ele>
        <time>2019-08-16T06:17:07Z</time>
      </trkpt>
      <trkpt lat="41.9806870" lon="-6.0483110">
        <ele>735.3</ele>
        <time>2019-08-16T06:17:08Z</time>
      </trkpt>
      <trkpt lat="41.9806780" lon="-6.0483500">
        <ele>735.3</ele>
        <time>2019-08-16T06:17:09Z</time>
      </trkpt>
      <trkpt lat="41.9806700" lon="-6.0483920">
        <ele>735.3</ele>
        <time>2019-08-16T06:17:10Z</time>
      </trkpt>
      <trkpt lat="41.9806620" lon="-6.0484350">
        <ele>735.3</ele>
        <time>2019-08-16T06:17:11Z</time>
      </trkpt>
      <trkpt lat="41.9806560" lon="-6.0484780">
        <ele>735.3</ele>
        <time>2019-08-16T06:17:12Z</time>
      </trkpt>
      <trkpt lat="41.9806510" lon="-6.0485240">
        <ele>735.3</ele>
        <time>2019-08-16T06:17:13Z</time>
      </trkpt>
      <trkpt lat="41.9806470" lon="-6.0485700">
        <ele>735.3</ele>
        <time>2019-08-16T06:17:14Z</time>
      </trkpt>
      <trkpt lat="41.9806450" lon="-6.0486170">
        <ele>735.3</ele>
        <time>2019-08-16T06:17:15Z</time>
      </trkpt>
      <trkpt lat="41.9806430" lon="-6.0486630">
        <ele>735.3</ele>
        <time>2019-08-16T06:17:16Z</time>
      </trkpt>
      <trkpt lat="41.9806420" lon="-6.0487060">
        <ele>735.3</ele>
        <time>2019-08-16T06:17:17Z</time>
      </trkpt>
      <trkpt lat="41.9806410" lon="-6.0487450">
        <ele>735.3</ele>
        <time>2019-08-16T06:17:18Z</time>
      </trkpt>
      <trkpt lat="41.9806350" lon="-6.0488100">
        <ele>735.3</ele>
        <time>2019-08-16T06:17:20Z</time>
      </trkpt>
      <trkpt lat="41.9806320" lon="-6.0488700">
        <ele>735.3</ele>
        <time>2019-08-16T06:17:22Z</time>
      </trkpt>
      <trkpt lat="41.9806330" lon="-6.0489290">
        <ele>735.3</ele>
        <time>2019-08-16T06:17:24Z</time>
      </trkpt>
      <trkpt lat="41.9806380" lon="-6.0489970">
        <ele>735.3</ele>
        <time>2019-08-16T06:17:26Z</time>
      </trkpt>
      <trkpt lat="41.9806420" lon="-6.0490360">
        <ele>735.3</ele>
        <time>2019-08-16T06:17:27Z</time>
      </trkpt>
      <trkpt lat="41.9806450" lon="-6.0490760">
        <ele>735.3</ele>
        <time>2019-08-16T06:17:28Z</time>
      </trkpt>
      <trkpt lat="41.9806490" lon="-6.0491170">
        <ele>735.3</ele>
        <time>2019-08-16T06:17:29Z</time>
      </trkpt>
      <trkpt lat="41.9806530" lon="-6.0491600">
        <ele>735.3</ele>
        <time>2019-08-16T06:17:30Z</time>
      </trkpt>
      <trkpt lat="41.9806560" lon="-6.0492030">
        <ele>735.3</ele>
        <time>2019-08-16T06:17:31Z</time>
      </trkpt>
      <trkpt lat="41.9806610" lon="-6.0492480">
        <ele>735.3</ele>
        <time>2019-08-16T06:17:32Z</time>
      </trkpt>
      <trkpt lat="41.9806650" lon="-6.0492930">
        <ele>735.3</ele>
        <time>2019-08-16T06:17:33Z</time>
      </trkpt>
      <trkpt lat="41.9806700" lon="-6.0493380">
        <ele>735.3</ele>
        <time>2019-08-16T06:17:34Z</time>
      </trkpt>
      <trkpt lat="41.9806730" lon="-6.0493840">
        <ele>735.3</ele>
        <time>2019-08-16T06:17:35Z</time>
      </trkpt>
      <trkpt lat="41.9806760" lon="-6.0494300">
        <ele>735.3</ele>
        <time>2019-08-16T06:17:36Z</time>
      </trkpt>
      <trkpt lat="41.9806790" lon="-6.0494750">
        <ele>735.3</ele>
        <time>2019-08-16T06:17:37Z</time>
      </trkpt>
      <trkpt lat="41.9806810" lon="-6.0495180">
        <ele>735.3</ele>
        <time>2019-08-16T06:17:38Z</time>
      </trkpt>
      <trkpt lat="41.9806840" lon="-6.0495590">
        <ele>735.3</ele>
        <time>2019-08-16T06:17:39Z</time>
      </trkpt>
      <trkpt lat="41.9806860" lon="-6.0495990">
        <ele>735.3</ele>
        <time>2019-08-16T06:17:40Z</time>
      </trkpt>
      <trkpt lat="41.9806860" lon="-6.0496410">
        <ele>735.3</ele>
        <time>2019-08-16T06:17:41Z</time>
      </trkpt>
      <trkpt lat="41.9806860" lon="-6.0496860">
        <ele>735.3</ele>
        <time>2019-08-16T06:17:42Z</time>
      </trkpt>
      <trkpt lat="41.9806840" lon="-6.0497340">
        <ele>735.3</ele>
        <time>2019-08-16T06:17:43Z</time>
      </trkpt>
      <trkpt lat="41.9806820" lon="-6.0497840">
        <ele>735.3</ele>
        <time>2019-08-16T06:17:44Z</time>
      </trkpt>
      <trkpt lat="41.9806800" lon="-6.0498350">
        <ele>735.3</ele>
        <time>2019-08-16T06:17:45Z</time>
      </trkpt>
      <trkpt lat="41.9806760" lon="-6.0498880">
        <ele>735.3</ele>
        <time>2019-08-16T06:17:46Z</time>
      </trkpt>
      <trkpt lat="41.9806720" lon="-6.0499400">
        <ele>735.3</ele>
        <time>2019-08-16T06:17:47Z</time>
      </trkpt>
      <trkpt lat="41.9806670" lon="-6.0499940">
        <ele>735.3</ele>
        <time>2019-08-16T06:17:48Z</time>
      </trkpt>
      <trkpt lat="41.9806630" lon="-6.0500470">
        <ele>735.3</ele>
        <time>2019-08-16T06:17:49Z</time>
      </trkpt>
      <trkpt lat="41.9806610" lon="-6.0500960">
        <ele>735.3</ele>
        <time>2019-08-16T06:17:50Z</time>
      </trkpt>
      <trkpt lat="41.9806600" lon="-6.0501420">
        <ele>735.3</ele>
        <time>2019-08-16T06:17:51Z</time>
      </trkpt>
      <trkpt lat="41.9806590" lon="-6.0501890">
        <ele>735.3</ele>
        <time>2019-08-16T06:17:52Z</time>
      </trkpt>
      <trkpt lat="41.9806590" lon="-6.0502370">
        <ele>735.3</ele>
        <time>2019-08-16T06:17:53Z</time>
      </trkpt>
      <trkpt lat="41.9806610" lon="-6.0502880">
        <ele>735.3</ele>
        <time>2019-08-16T06:17:54Z</time>
      </trkpt>
      <trkpt lat="41.9806620" lon="-6.0503400">
        <ele>735.3</ele>
        <time>2019-08-16T06:17:55Z</time>
      </trkpt>
      <trkpt lat="41.9806650" lon="-6.0503920">
        <ele>735.3</ele>
        <time>2019-08-16T06:17:56Z</time>
      </trkpt>
      <trkpt lat="41.9806680" lon="-6.0504450">
        <ele>735.3</ele>
        <time>2019-08-16T06:17:57Z</time>
      </trkpt>
      <trkpt lat="41.9806720" lon="-6.0505010">
        <ele>735.3</ele>
        <time>2019-08-16T06:17:58Z</time>
      </trkpt>
      <trkpt lat="41.9806770" lon="-6.0505560">
        <ele>735.3</ele>
        <time>2019-08-16T06:17:59Z</time>
      </trkpt>
      <trkpt lat="41.9806820" lon="-6.0506090">
        <ele>735.3</ele>
        <time>2019-08-16T06:18:00Z</time>
      </trkpt>
      <trkpt lat="41.9806870" lon="-6.0506600">
        <ele>735.3</ele>
        <time>2019-08-16T06:18:01Z</time>
      </trkpt>
      <trkpt lat="41.9806930" lon="-6.0507090">
        <ele>735.3</ele>
        <time>2019-08-16T06:18:02Z</time>
      </trkpt>
      <trkpt lat="41.9806980" lon="-6.0507580">
        <ele>735.3</ele>
        <time>2019-08-16T06:18:03Z</time>
      </trkpt>
      <trkpt lat="41.9807050" lon="-6.0508080">
        <ele>735.3</ele>
        <time>2019-08-16T06:18:04Z</time>
      </trkpt>
      <trkpt lat="41.9807120" lon="-6.0508560">
        <ele>735.3</ele>
        <time>2019-08-16T06:18:05Z</time>
      </trkpt>
      <trkpt lat="41.9807200" lon="-6.0509020">
        <ele>735.3</ele>
        <time>2019-08-16T06:18:06Z</time>
      </trkpt>
      <trkpt lat="41.9807280" lon="-6.0509480">
        <ele>735.3</ele>
        <time>2019-08-16T06:18:07Z</time>
      </trkpt>
      <trkpt lat="41.9807360" lon="-6.0509950">
        <ele>735.3</ele>
        <time>2019-08-16T06:18:08Z</time>
      </trkpt>
      <trkpt lat="41.9807430" lon="-6.0510420">
        <ele>735.3</ele>
        <time>2019-08-16T06:18:09Z</time>
      </trkpt>
      <trkpt lat="41.9807510" lon="-6.0510910">
        <ele>735.3</ele>
        <time>2019-08-16T06:18:10Z</time>
      </trkpt>
      <trkpt lat="41.9807600" lon="-6.0511400">
        <ele>735.3</ele>
        <time>2019-08-16T06:18:11Z</time>
      </trkpt>
      <trkpt lat="41.9807700" lon="-6.0511920">
        <ele>735.3</ele>
        <time>2019-08-16T06:18:12Z</time>
      </trkpt>
      <trkpt lat="41.9807810" lon="-6.0512400">
        <ele>735.3</ele>
        <time>2019-08-16T06:18:13Z</time>
      </trkpt>
      <trkpt lat="41.9807930" lon="-6.0512820">
        <ele>735.3</ele>
        <time>2019-08-16T06:18:14Z</time>
      </trkpt>
      <trkpt lat="41.9808010" lon="-6.0513230">
        <ele>735.3</ele>
        <time>2019-08-16T06:18:15Z</time>
      </trkpt>
      <trkpt lat="41.9808110" lon="-6.0513640">
        <ele>735.3</ele>
        <time>2019-08-16T06:18:16Z</time>
      </trkpt>
      <trkpt lat="41.9808210" lon="-6.0514060">
        <ele>735.3</ele>
        <time>2019-08-16T06:18:17Z</time>
      </trkpt>
      <trkpt lat="41.9808340" lon="-6.0514500">
        <ele>735.3</ele>
        <time>2019-08-16T06:18:18Z</time>
      </trkpt>
      <trkpt lat="41.9808460" lon="-6.0514950">
        <ele>735.3</ele>
        <time>2019-08-16T06:18:19Z</time>
      </trkpt>
      <trkpt lat="41.9808610" lon="-6.0515390">
        <ele>735.3</ele>
        <time>2019-08-16T06:18:20Z</time>
      </trkpt>
      <trkpt lat="41.9808720" lon="-6.0515820">
        <ele>735.3</ele>
        <time>2019-08-16T06:18:21Z</time>
      </trkpt>
      <trkpt lat="41.9808810" lon="-6.0516280">
        <ele>735.3</ele>
        <time>2019-08-16T06:18:22Z</time>
      </trkpt>
      <trkpt lat="41.9808920" lon="-6.0516710">
        <ele>735.3</ele>
        <time>2019-08-16T06:18:23Z</time>
      </trkpt>
      <trkpt lat="41.9809020" lon="-6.0517110">
        <ele>735.3</ele>
        <time>2019-08-16T06:18:24Z</time>
      </trkpt>
      <trkpt lat="41.9809140" lon="-6.0517540">
        <ele>735.3</ele>
        <time>2019-08-16T06:18:25Z</time>
      </trkpt>
      <trkpt lat="41.9809280" lon="-6.0517950">
        <ele>735.3</ele>
        <time>2019-08-16T06:18:26Z</time>
      </trkpt>
      <trkpt lat="41.9809410" lon="-6.0518340">
        <ele>735.3</ele>
        <time>2019-08-16T06:18:27Z</time>
      </trkpt>
      <trkpt lat="41.9809520" lon="-6.0518680">
        <ele>735.3</ele>
        <time>2019-08-16T06:18:28Z</time>
      </trkpt>
      <trkpt lat="41.9809650" lon="-6.0519040">
        <ele>735.3</ele>
        <time>2019-08-16T06:18:29Z</time>
      </trkpt>
      <trkpt lat="41.9809740" lon="-6.0519420">
        <ele>735.3</ele>
        <time>2019-08-16T06:18:30Z</time>
      </trkpt>
      <trkpt lat="41.9809790" lon="-6.0519830">
        <ele>735.3</ele>
        <time>2019-08-16T06:18:31Z</time>
      </trkpt>
      <trkpt lat="41.9809820" lon="-6.0520240">
        <ele>735.3</ele>
        <time>2019-08-16T06:18:32Z</time>
      </trkpt>
      <trkpt lat="41.9809720" lon="-6.0520620">
        <ele>735.3</ele>
        <time>2019-08-16T06:18:33Z</time>
      </trkpt>
      <trkpt lat="41.9809550" lon="-6.0520970">
        <ele>735.3</ele>
        <time>2019-08-16T06:18:34Z</time>
      </trkpt>
      <trkpt lat="41.9809340" lon="-6.0521260">
        <ele>735.3</ele>
        <time>2019-08-16T06:18:35Z</time>
      </trkpt>
      <trkpt lat="41.9809100" lon="-6.0521460">
        <ele>735.3</ele>
        <time>2019-08-16T06:18:36Z</time>
      </trkpt>
      <trkpt lat="41.9808750" lon="-6.0521840">
        <ele>735.3</ele>
        <time>2019-08-16T06:18:38Z</time>
      </trkpt>
      <trkpt lat="41.9808490" lon="-6.0522010">
        <ele>735.3</ele>
        <time>2019-08-16T06:18:39Z</time>
      </trkpt>
      <trkpt lat="41.9808170" lon="-6.0522170">
        <ele>735.4</ele>
        <time>2019-08-16T06:18:40Z</time>
      </trkpt>
      <trkpt lat="41.9807880" lon="-6.0522370">
        <ele>735.4</ele>
        <time>2019-08-16T06:18:41Z</time>
      </trkpt>
      <trkpt lat="41.9807580" lon="-6.0522580">
        <ele>735.4</ele>
        <time>2019-08-16T06:18:42Z</time>
      </trkpt>
      <trkpt lat="41.9807330" lon="-6.0522860">
        <ele>735.5</ele>
        <time>2019-08-16T06:18:43Z</time>
      </trkpt>
      <trkpt lat="41.9807050" lon="-6.0523020">
        <ele>735.5</ele>
        <time>2019-08-16T06:18:44Z</time>
      </trkpt>
      <trkpt lat="41.9806600" lon="-6.0523470">
        <ele>735.7</ele>
        <time>2019-08-16T06:18:46Z</time>
      </trkpt>
      <trkpt lat="41.9806400" lon="-6.0523910">
        <ele>735.8</ele>
        <time>2019-08-16T06:18:47Z</time>
      </trkpt>
      <trkpt lat="41.9806280" lon="-6.0524430">
        <ele>735.9</ele>
        <time>2019-08-16T06:18:48Z</time>
      </trkpt>
      <trkpt lat="41.9806240" lon="-6.0524990">
        <ele>736.0</ele>
        <time>2019-08-16T06:18:49Z</time>
      </trkpt>
      <trkpt lat="41.9806160" lon="-6.0525480">
        <ele>736.1</ele>
        <time>2019-08-16T06:18:50Z</time>
      </trkpt>
      <trkpt lat="41.9806060" lon="-6.0525970">
        <ele>736.2</ele>
        <time>2019-08-16T06:18:51Z</time>
      </trkpt>
      <trkpt lat="41.9805870" lon="-6.0526400">
        <ele>736.3</ele>
        <time>2019-08-16T06:18:52Z</time>
      </trkpt>
      <trkpt lat="41.9805690" lon="-6.0526770">
        <ele>736.3</ele>
        <time>2019-08-16T06:18:53Z</time>
      </trkpt>
      <trkpt lat="41.9805410" lon="-6.0527120">
        <ele>736.4</ele>
        <time>2019-08-16T06:18:54Z</time>
      </trkpt>
      <trkpt lat="41.9805160" lon="-6.0527450">
        <ele>736.5</ele>
        <time>2019-08-16T06:18:55Z</time>
      </trkpt>
      <trkpt lat="41.9804930" lon="-6.0527810">
        <ele>736.5</ele>
        <time>2019-08-16T06:18:56Z</time>
      </trkpt>
      <trkpt lat="41.9804700" lon="-6.0528180">
        <ele>736.6</ele>
        <time>2019-08-16T06:18:57Z</time>
      </trkpt>
      <trkpt lat="41.9804460" lon="-6.0528540">
        <ele>736.7</ele>
        <time>2019-08-16T06:18:58Z</time>
      </trkpt>
      <trkpt lat="41.9804220" lon="-6.0528950">
        <ele>736.8</ele>
        <time>2019-08-16T06:18:59Z</time>
      </trkpt>
      <trkpt lat="41.9803950" lon="-6.0529380">
        <ele>736.9</ele>
        <time>2019-08-16T06:19:00Z</time>
      </trkpt>
      <trkpt lat="41.9803710" lon="-6.0529830">
        <ele>736.9</ele>
        <time>2019-08-16T06:19:01Z</time>
      </trkpt>
      <trkpt lat="41.9803450" lon="-6.0530250">
        <ele>737.0</ele>
        <time>2019-08-16T06:19:02Z</time>
      </trkpt>
      <trkpt lat="41.9803100" lon="-6.0530650">
        <ele>737.1</ele>
        <time>2019-08-16T06:19:03Z</time>
      </trkpt>
      <trkpt lat="41.9802820" lon="-6.0531090">
        <ele>737.1</ele>
        <time>2019-08-16T06:19:04Z</time>
      </trkpt>
      <trkpt lat="41.9802540" lon="-6.0531530">
        <ele>737.2</ele>
        <time>2019-08-16T06:19:05Z</time>
      </trkpt>
      <trkpt lat="41.9802280" lon="-6.0531960">
        <ele>737.2</ele>
        <time>2019-08-16T06:19:06Z</time>
      </trkpt>
      <trkpt lat="41.9802060" lon="-6.0532400">
        <ele>737.2</ele>
        <time>2019-08-16T06:19:07Z</time>
      </trkpt>
      <trkpt lat="41.9801830" lon="-6.0532830">
        <ele>737.2</ele>
        <time>2019-08-16T06:19:08Z</time>
      </trkpt>
      <trkpt lat="41.9801610" lon="-6.0533250">
        <ele>737.2</ele>
        <time>2019-08-16T06:19:09Z</time>
      </trkpt>
      <trkpt lat="41.9801360" lon="-6.0533630">
        <ele>737.2</ele>
        <time>2019-08-16T06:19:10Z</time>
      </trkpt>
      <trkpt lat="41.9801130" lon="-6.0534020">
        <ele>737.3</ele>
        <time>2019-08-16T06:19:11Z</time>
      </trkpt>
      <trkpt lat="41.9800900" lon="-6.0534410">
        <ele>737.3</ele>
        <time>2019-08-16T06:19:12Z</time>
      </trkpt>
      <trkpt lat="41.9800670" lon="-6.0534830">
        <ele>737.3</ele>
        <time>2019-08-16T06:19:13Z</time>
      </trkpt>
      <trkpt lat="41.9800420" lon="-6.0535260">
        <ele>737.3</ele>
        <time>2019-08-16T06:19:14Z</time>
      </trkpt>
      <trkpt lat="41.9800180" lon="-6.0535680">
        <ele>737.3</ele>
        <time>2019-08-16T06:19:15Z</time>
      </trkpt>
      <trkpt lat="41.9799920" lon="-6.0536100">
        <ele>737.3</ele>
        <time>2019-08-16T06:19:16Z</time>
      </trkpt>
      <trkpt lat="41.9799670" lon="-6.0536550">
        <ele>737.3</ele>
        <time>2019-08-16T06:19:17Z</time>
      </trkpt>
      <trkpt lat="41.9799450" lon="-6.0537000">
        <ele>737.3</ele>
        <time>2019-08-16T06:19:18Z</time>
      </trkpt>
      <trkpt lat="41.9799230" lon="-6.0537450">
        <ele>737.3</ele>
        <time>2019-08-16T06:19:19Z</time>
      </trkpt>
      <trkpt lat="41.9799010" lon="-6.0537910">
        <ele>737.3</ele>
        <time>2019-08-16T06:19:20Z</time>
      </trkpt>
      <trkpt lat="41.9798800" lon="-6.0538390">
        <ele>737.3</ele>
        <time>2019-08-16T06:19:21Z</time>
      </trkpt>
      <trkpt lat="41.9798610" lon="-6.0538860">
        <ele>737.3</ele>
        <time>2019-08-16T06:19:22Z</time>
      </trkpt>
      <trkpt lat="41.9798400" lon="-6.0539340">
        <ele>737.3</ele>
        <time>2019-08-16T06:19:23Z</time>
      </trkpt>
      <trkpt lat="41.9798160" lon="-6.0539810">
        <ele>737.3</ele>
        <time>2019-08-16T06:19:24Z</time>
      </trkpt>
      <trkpt lat="41.9797910" lon="-6.0540270">
        <ele>737.3</ele>
        <time>2019-08-16T06:19:25Z</time>
      </trkpt>
      <trkpt lat="41.9797660" lon="-6.0540720">
        <ele>737.3</ele>
        <time>2019-08-16T06:19:26Z</time>
      </trkpt>
      <trkpt lat="41.9797450" lon="-6.0541150">
        <ele>737.3</ele>
        <time>2019-08-16T06:19:27Z</time>
      </trkpt>
      <trkpt lat="41.9797290" lon="-6.0541530">
        <ele>737.3</ele>
        <time>2019-08-16T06:19:28Z</time>
      </trkpt>
      <trkpt lat="41.9797190" lon="-6.0541940">
        <ele>737.3</ele>
        <time>2019-08-16T06:19:29Z</time>
      </trkpt>
      <trkpt lat="41.9797110" lon="-6.0542360">
        <ele>737.3</ele>
        <time>2019-08-16T06:19:30Z</time>
      </trkpt>
      <trkpt lat="41.9797040" lon="-6.0542810">
        <ele>737.3</ele>
        <time>2019-08-16T06:19:31Z</time>
      </trkpt>
      <trkpt lat="41.9796970" lon="-6.0543300">
        <ele>737.3</ele>
        <time>2019-08-16T06:19:32Z</time>
      </trkpt>
      <trkpt lat="41.9796860" lon="-6.0543780">
        <ele>737.3</ele>
        <time>2019-08-16T06:19:33Z</time>
      </trkpt>
      <trkpt lat="41.9796740" lon="-6.0544290">
        <ele>737.3</ele>
        <time>2019-08-16T06:19:34Z</time>
      </trkpt>
      <trkpt lat="41.9796640" lon="-6.0544810">
        <ele>737.3</ele>
        <time>2019-08-16T06:19:35Z</time>
      </trkpt>
      <trkpt lat="41.9796530" lon="-6.0545310">
        <ele>737.3</ele>
        <time>2019-08-16T06:19:36Z</time>
      </trkpt>
      <trkpt lat="41.9796410" lon="-6.0545800">
        <ele>737.3</ele>
        <time>2019-08-16T06:19:37Z</time>
      </trkpt>
      <trkpt lat="41.9796320" lon="-6.0546240">
        <ele>737.3</ele>
        <time>2019-08-16T06:19:38Z</time>
      </trkpt>
      <trkpt lat="41.9796250" lon="-6.0546620">
        <ele>737.3</ele>
        <time>2019-08-16T06:19:39Z</time>
      </trkpt>
      <trkpt lat="41.9796190" lon="-6.0546980">
        <ele>737.3</ele>
        <time>2019-08-16T06:19:40Z</time>
      </trkpt>
      <trkpt lat="41.9796090" lon="-6.0547610">
        <ele>737.2</ele>
        <time>2019-08-16T06:19:42Z</time>
      </trkpt>
      <trkpt lat="41.9795940" lon="-6.0548320">
        <ele>737.2</ele>
        <time>2019-08-16T06:19:44Z</time>
      </trkpt>
      <trkpt lat="41.9795880" lon="-6.0548730">
        <ele>737.2</ele>
        <time>2019-08-16T06:19:45Z</time>
      </trkpt>
      <trkpt lat="41.9795830" lon="-6.0549140">
        <ele>737.2</ele>
        <time>2019-08-16T06:19:46Z</time>
      </trkpt>
      <trkpt lat="41.9795770" lon="-6.0549600">
        <ele>737.2</ele>
        <time>2019-08-16T06:19:47Z</time>
      </trkpt>
      <trkpt lat="41.9795710" lon="-6.0550070">
        <ele>737.2</ele>
        <time>2019-08-16T06:19:48Z</time>
      </trkpt>
      <trkpt lat="41.9795640" lon="-6.0550570">
        <ele>737.2</ele>
        <time>2019-08-16T06:19:49Z</time>
      </trkpt>
      <trkpt lat="41.9795570" lon="-6.0551070">
        <ele>737.2</ele>
        <time>2019-08-16T06:19:50Z</time>
      </trkpt>
      <trkpt lat="41.9795510" lon="-6.0551590">
        <ele>737.2</ele>
        <time>2019-08-16T06:19:51Z</time>
      </trkpt>
      <trkpt lat="41.9795430" lon="-6.0552130">
        <ele>737.2</ele>
        <time>2019-08-16T06:19:52Z</time>
      </trkpt>
      <trkpt lat="41.9795370" lon="-6.0552670">
        <ele>737.2</ele>
        <time>2019-08-16T06:19:53Z</time>
      </trkpt>
      <trkpt lat="41.9795300" lon="-6.0553210">
        <ele>737.2</ele>
        <time>2019-08-16T06:19:54Z</time>
      </trkpt>
      <trkpt lat="41.9795240" lon="-6.0553770">
        <ele>737.2</ele>
        <time>2019-08-16T06:19:55Z</time>
      </trkpt>
      <trkpt lat="41.9795170" lon="-6.0554330">
        <ele>737.2</ele>
        <time>2019-08-16T06:19:56Z</time>
      </trkpt>
      <trkpt lat="41.9795120" lon="-6.0554920">
        <ele>737.2</ele>
        <time>2019-08-16T06:19:57Z</time>
      </trkpt>
      <trkpt lat="41.9795060" lon="-6.0555500">
        <ele>737.2</ele>
        <time>2019-08-16T06:19:58Z</time>
      </trkpt>
      <trkpt lat="41.9795020" lon="-6.0556080">
        <ele>737.2</ele>
        <time>2019-08-16T06:19:59Z</time>
      </trkpt>
      <trkpt lat="41.9794970" lon="-6.0556680">
        <ele>737.2</ele>
        <time>2019-08-16T06:20:00Z</time>
      </trkpt>
      <trkpt lat="41.9794920" lon="-6.0557280">
        <ele>737.2</ele>
        <time>2019-08-16T06:20:01Z</time>
      </trkpt>
      <trkpt lat="41.9794880" lon="-6.0557870">
        <ele>737.2</ele>
        <time>2019-08-16T06:20:02Z</time>
      </trkpt>
      <trkpt lat="41.9794840" lon="-6.0558430">
        <ele>737.2</ele>
        <time>2019-08-16T06:20:03Z</time>
      </trkpt>
      <trkpt lat="41.9794820" lon="-6.0558990">
        <ele>737.2</ele>
        <time>2019-08-16T06:20:04Z</time>
      </trkpt>
      <trkpt lat="41.9794810" lon="-6.0559540">
        <ele>737.2</ele>
        <time>2019-08-16T06:20:05Z</time>
      </trkpt>
      <trkpt lat="41.9794800" lon="-6.0560120">
        <ele>737.2</ele>
        <time>2019-08-16T06:20:06Z</time>
      </trkpt>
      <trkpt lat="41.9794780" lon="-6.0560720">
        <ele>737.2</ele>
        <time>2019-08-16T06:20:07Z</time>
      </trkpt>
      <trkpt lat="41.9794760" lon="-6.0561330">
        <ele>737.2</ele>
        <time>2019-08-16T06:20:08Z</time>
      </trkpt>
      <trkpt lat="41.9794740" lon="-6.0561950">
        <ele>737.2</ele>
        <time>2019-08-16T06:20:09Z</time>
      </trkpt>
      <trkpt lat="41.9794710" lon="-6.0562560">
        <ele>737.2</ele>
        <time>2019-08-16T06:20:10Z</time>
      </trkpt>
      <trkpt lat="41.9794690" lon="-6.0563170">
        <ele>737.2</ele>
        <time>2019-08-16T06:20:11Z</time>
      </trkpt>
      <trkpt lat="41.9794660" lon="-6.0563740">
        <ele>737.2</ele>
        <time>2019-08-16T06:20:12Z</time>
      </trkpt>
      <trkpt lat="41.9794620" lon="-6.0564300">
        <ele>737.3</ele>
        <time>2019-08-16T06:20:13Z</time>
      </trkpt>
      <trkpt lat="41.9794560" lon="-6.0564840">
        <ele>737.3</ele>
        <time>2019-08-16T06:20:14Z</time>
      </trkpt>
      <trkpt lat="41.9794480" lon="-6.0565380">
        <ele>737.3</ele>
        <time>2019-08-16T06:20:15Z</time>
      </trkpt>
      <trkpt lat="41.9794390" lon="-6.0565930">
        <ele>737.3</ele>
        <time>2019-08-16T06:20:16Z</time>
      </trkpt>
      <trkpt lat="41.9794300" lon="-6.0566470">
        <ele>737.4</ele>
        <time>2019-08-16T06:20:17Z</time>
      </trkpt>
      <trkpt lat="41.9794190" lon="-6.0567020">
        <ele>737.5</ele>
        <time>2019-08-16T06:20:18Z</time>
      </trkpt>
      <trkpt lat="41.9794060" lon="-6.0567540">
        <ele>737.6</ele>
        <time>2019-08-16T06:20:19Z</time>
      </trkpt>
      <trkpt lat="41.9793930" lon="-6.0568050">
        <ele>737.7</ele>
        <time>2019-08-16T06:20:20Z</time>
      </trkpt>
      <trkpt lat="41.9793800" lon="-6.0568540">
        <ele>737.9</ele>
        <time>2019-08-16T06:20:21Z</time>
      </trkpt>
      <trkpt lat="41.9793630" lon="-6.0569010">
        <ele>738.2</ele>
        <time>2019-08-16T06:20:22Z</time>
      </trkpt>
      <trkpt lat="41.9793450" lon="-6.0569490">
        <ele>738.2</ele>
        <time>2019-08-16T06:20:23Z</time>
      </trkpt>
      <trkpt lat="41.9793290" lon="-6.0570000">
        <ele>738.1</ele>
        <time>2019-08-16T06:20:24Z</time>
      </trkpt>
      <trkpt lat="41.9793160" lon="-6.0570510">
        <ele>738.0</ele>
        <time>2019-08-16T06:20:25Z</time>
      </trkpt>
      <trkpt lat="41.9793080" lon="-6.0570980">
        <ele>738.0</ele>
        <time>2019-08-16T06:20:26Z</time>
      </trkpt>
      <trkpt lat="41.9792980" lon="-6.0571430">
        <ele>737.9</ele>
        <time>2019-08-16T06:20:27Z</time>
      </trkpt>
      <trkpt lat="41.9792850" lon="-6.0571950">
        <ele>737.9</ele>
        <time>2019-08-16T06:20:28Z</time>
      </trkpt>
      <trkpt lat="41.9792730" lon="-6.0572500">
        <ele>737.8</ele>
        <time>2019-08-16T06:20:29Z</time>
      </trkpt>
      <trkpt lat="41.9792580" lon="-6.0573070">
        <ele>737.7</ele>
        <time>2019-08-16T06:20:30Z</time>
      </trkpt>
      <trkpt lat="41.9792470" lon="-6.0573700">
        <ele>737.6</ele>
        <time>2019-08-16T06:20:31Z</time>
      </trkpt>
      <trkpt lat="41.9792330" lon="-6.0574280">
        <ele>737.6</ele>
        <time>2019-08-16T06:20:32Z</time>
      </trkpt>
      <trkpt lat="41.9792160" lon="-6.0574840">
        <ele>737.5</ele>
        <time>2019-08-16T06:20:33Z</time>
      </trkpt>
      <trkpt lat="41.9791990" lon="-6.0575400">
        <ele>737.5</ele>
        <time>2019-08-16T06:20:34Z</time>
      </trkpt>
      <trkpt lat="41.9791850" lon="-6.0575990">
        <ele>737.5</ele>
        <time>2019-08-16T06:20:35Z</time>
      </trkpt>
      <trkpt lat="41.9791720" lon="-6.0576620">
        <ele>737.4</ele>
        <time>2019-08-16T06:20:36Z</time>
      </trkpt>
      <trkpt lat="41.9791560" lon="-6.0577200">
        <ele>737.4</ele>
        <time>2019-08-16T06:20:37Z</time>
      </trkpt>
      <trkpt lat="41.9791420" lon="-6.0577770">
        <ele>737.4</ele>
        <time>2019-08-16T06:20:38Z</time>
      </trkpt>
      <trkpt lat="41.9791280" lon="-6.0578370">
        <ele>737.3</ele>
        <time>2019-08-16T06:20:39Z</time>
      </trkpt>
      <trkpt lat="41.9791170" lon="-6.0578950">
        <ele>737.3</ele>
        <time>2019-08-16T06:20:40Z</time>
      </trkpt>
      <trkpt lat="41.9791050" lon="-6.0579550">
        <ele>737.2</ele>
        <time>2019-08-16T06:20:41Z</time>
      </trkpt>
      <trkpt lat="41.9790940" lon="-6.0580170">
        <ele>737.2</ele>
        <time>2019-08-16T06:20:42Z</time>
      </trkpt>
      <trkpt lat="41.9790800" lon="-6.0580770">
        <ele>737.2</ele>
        <time>2019-08-16T06:20:43Z</time>
      </trkpt>
      <trkpt lat="41.9790650" lon="-6.0581370">
        <ele>737.1</ele>
        <time>2019-08-16T06:20:44Z</time>
      </trkpt>
      <trkpt lat="41.9790490" lon="-6.0581990">
        <ele>737.1</ele>
        <time>2019-08-16T06:20:45Z</time>
      </trkpt>
      <trkpt lat="41.9790330" lon="-6.0582580">
        <ele>737.0</ele>
        <time>2019-08-16T06:20:46Z</time>
      </trkpt>
      <trkpt lat="41.9790170" lon="-6.0583180">
        <ele>737.0</ele>
        <time>2019-08-16T06:20:47Z</time>
      </trkpt>
      <trkpt lat="41.9790010" lon="-6.0583790">
        <ele>737.0</ele>
        <time>2019-08-16T06:20:48Z</time>
      </trkpt>
      <trkpt lat="41.9789820" lon="-6.0584400">
        <ele>737.0</ele>
        <time>2019-08-16T06:20:49Z</time>
      </trkpt>
      <trkpt lat="41.9789680" lon="-6.0584970">
        <ele>736.9</ele>
        <time>2019-08-16T06:20:50Z</time>
      </trkpt>
      <trkpt lat="41.9789530" lon="-6.0585530">
        <ele>736.9</ele>
        <time>2019-08-16T06:20:51Z</time>
      </trkpt>
      <trkpt lat="41.9789400" lon="-6.0586080">
        <ele>736.9</ele>
        <time>2019-08-16T06:20:52Z</time>
      </trkpt>
      <trkpt lat="41.9789280" lon="-6.0586670">
        <ele>736.9</ele>
        <time>2019-08-16T06:20:53Z</time>
      </trkpt>
      <trkpt lat="41.9789150" lon="-6.0587260">
        <ele>736.9</ele>
        <time>2019-08-16T06:20:54Z</time>
      </trkpt>
      <trkpt lat="41.9789030" lon="-6.0587850">
        <ele>736.9</ele>
        <time>2019-08-16T06:20:55Z</time>
      </trkpt>
      <trkpt lat="41.9788920" lon="-6.0588450">
        <ele>736.8</ele>
        <time>2019-08-16T06:20:56Z</time>
      </trkpt>
      <trkpt lat="41.9788820" lon="-6.0589040">
        <ele>736.8</ele>
        <time>2019-08-16T06:20:57Z</time>
      </trkpt>
      <trkpt lat="41.9788750" lon="-6.0589630">
        <ele>736.8</ele>
        <time>2019-08-16T06:20:58Z</time>
      </trkpt>
      <trkpt lat="41.9788680" lon="-6.0590230">
        <ele>736.8</ele>
        <time>2019-08-16T06:20:59Z</time>
      </trkpt>
      <trkpt lat="41.9788610" lon="-6.0590840">
        <ele>736.8</ele>
        <time>2019-08-16T06:21:00Z</time>
      </trkpt>
      <trkpt lat="41.9788560" lon="-6.0591440">
        <ele>736.8</ele>
        <time>2019-08-16T06:21:01Z</time>
      </trkpt>
      <trkpt lat="41.9788490" lon="-6.0592040">
        <ele>736.8</ele>
        <time>2019-08-16T06:21:02Z</time>
      </trkpt>
      <trkpt lat="41.9788440" lon="-6.0592610">
        <ele>736.8</ele>
        <time>2019-08-16T06:21:03Z</time>
      </trkpt>
      <trkpt lat="41.9788400" lon="-6.0593220">
        <ele>736.8</ele>
        <time>2019-08-16T06:21:04Z</time>
      </trkpt>
      <trkpt lat="41.9788310" lon="-6.0593820">
        <ele>736.9</ele>
        <time>2019-08-16T06:21:05Z</time>
      </trkpt>
      <trkpt lat="41.9788240" lon="-6.0594390">
        <ele>736.9</ele>
        <time>2019-08-16T06:21:06Z</time>
      </trkpt>
      <trkpt lat="41.9788200" lon="-6.0594990">
        <ele>736.9</ele>
        <time>2019-08-16T06:21:07Z</time>
      </trkpt>
      <trkpt lat="41.9788130" lon="-6.0595600">
        <ele>736.9</ele>
        <time>2019-08-16T06:21:08Z</time>
      </trkpt>
      <trkpt lat="41.9788080" lon="-6.0596210">
        <ele>736.9</ele>
        <time>2019-08-16T06:21:09Z</time>
      </trkpt>
      <trkpt lat="41.9788030" lon="-6.0596790">
        <ele>736.9</ele>
        <time>2019-08-16T06:21:10Z</time>
      </trkpt>
      <trkpt lat="41.9787970" lon="-6.0597350">
        <ele>736.9</ele>
        <time>2019-08-16T06:21:11Z</time>
      </trkpt>
      <trkpt lat="41.9787920" lon="-6.0597880">
        <ele>736.9</ele>
        <time>2019-08-16T06:21:12Z</time>
      </trkpt>
      <trkpt lat="41.9787880" lon="-6.0598410">
        <ele>736.9</ele>
        <time>2019-08-16T06:21:13Z</time>
      </trkpt>
      <trkpt lat="41.9787830" lon="-6.0598920">
        <ele>736.9</ele>
        <time>2019-08-16T06:21:14Z</time>
      </trkpt>
      <trkpt lat="41.9787780" lon="-6.0599470">
        <ele>736.9</ele>
        <time>2019-08-16T06:21:15Z</time>
      </trkpt>
      <trkpt lat="41.9787720" lon="-6.0600020">
        <ele>736.9</ele>
        <time>2019-08-16T06:21:16Z</time>
      </trkpt>
      <trkpt lat="41.9787620" lon="-6.0600590">
        <ele>737.0</ele>
        <time>2019-08-16T06:21:17Z</time>
      </trkpt>
      <trkpt lat="41.9787560" lon="-6.0601170">
        <ele>737.0</ele>
        <time>2019-08-16T06:21:18Z</time>
      </trkpt>
      <trkpt lat="41.9787490" lon="-6.0601750">
        <ele>737.0</ele>
        <time>2019-08-16T06:21:19Z</time>
      </trkpt>
      <trkpt lat="41.9787420" lon="-6.0602340">
        <ele>737.0</ele>
        <time>2019-08-16T06:21:20Z</time>
      </trkpt>
      <trkpt lat="41.9787340" lon="-6.0602930">
        <ele>737.0</ele>
        <time>2019-08-16T06:21:21Z</time>
      </trkpt>
      <trkpt lat="41.9787290" lon="-6.0603520">
        <ele>737.0</ele>
        <time>2019-08-16T06:21:22Z</time>
      </trkpt>
      <trkpt lat="41.9787230" lon="-6.0604110">
        <ele>737.0</ele>
        <time>2019-08-16T06:21:23Z</time>
      </trkpt>
      <trkpt lat="41.9787170" lon="-6.0604710">
        <ele>737.0</ele>
        <time>2019-08-16T06:21:24Z</time>
      </trkpt>
      <trkpt lat="41.9787110" lon="-6.0605340">
        <ele>737.1</ele>
        <time>2019-08-16T06:21:25Z</time>
      </trkpt>
      <trkpt lat="41.9787060" lon="-6.0605940">
        <ele>737.1</ele>
        <time>2019-08-16T06:21:26Z</time>
      </trkpt>
      <trkpt lat="41.9787010" lon="-6.0606520">
        <ele>737.1</ele>
        <time>2019-08-16T06:21:27Z</time>
      </trkpt>
      <trkpt lat="41.9786980" lon="-6.0607100">
        <ele>737.1</ele>
        <time>2019-08-16T06:21:28Z</time>
      </trkpt>
      <trkpt lat="41.9786950" lon="-6.0607690">
        <ele>737.1</ele>
        <time>2019-08-16T06:21:29Z</time>
      </trkpt>
      <trkpt lat="41.9786860" lon="-6.0608270">
        <ele>737.1</ele>
        <time>2019-08-16T06:21:30Z</time>
      </trkpt>
      <trkpt lat="41.9786790" lon="-6.0608840">
        <ele>737.1</ele>
        <time>2019-08-16T06:21:31Z</time>
      </trkpt>
      <trkpt lat="41.9786700" lon="-6.0609430">
        <ele>737.1</ele>
        <time>2019-08-16T06:21:32Z</time>
      </trkpt>
      <trkpt lat="41.9786610" lon="-6.0609990">
        <ele>737.1</ele>
        <time>2019-08-16T06:21:33Z</time>
      </trkpt>
      <trkpt lat="41.9786560" lon="-6.0610540">
        <ele>737.1</ele>
        <time>2019-08-16T06:21:34Z</time>
      </trkpt>
      <trkpt lat="41.9786480" lon="-6.0611170">
        <ele>737.1</ele>
        <time>2019-08-16T06:21:35Z</time>
      </trkpt>
      <trkpt lat="41.9786400" lon="-6.0611780">
        <ele>737.1</ele>
        <time>2019-08-16T06:21:36Z</time>
      </trkpt>
      <trkpt lat="41.9786260" lon="-6.0612380">
        <ele>737.1</ele>
        <time>2019-08-16T06:21:37Z</time>
      </trkpt>
      <trkpt lat="41.9786120" lon="-6.0612970">
        <ele>737.1</ele>
        <time>2019-08-16T06:21:38Z</time>
      </trkpt>
      <trkpt lat="41.9785950" lon="-6.0613550">
        <ele>737.1</ele>
        <time>2019-08-16T06:21:39Z</time>
      </trkpt>
      <trkpt lat="41.9785800" lon="-6.0614090">
        <ele>737.1</ele>
        <time>2019-08-16T06:21:40Z</time>
      </trkpt>
      <trkpt lat="41.9785590" lon="-6.0614580">
        <ele>737.0</ele>
        <time>2019-08-16T06:21:41Z</time>
      </trkpt>
      <trkpt lat="41.9785380" lon="-6.0615020">
        <ele>737.0</ele>
        <time>2019-08-16T06:21:42Z</time>
      </trkpt>
      <trkpt lat="41.9785170" lon="-6.0615450">
        <ele>737.0</ele>
        <time>2019-08-16T06:21:43Z</time>
      </trkpt>
      <trkpt lat="41.9784980" lon="-6.0615950">
        <ele>737.0</ele>
        <time>2019-08-16T06:21:44Z</time>
      </trkpt>
      <trkpt lat="41.9784900" lon="-6.0616480">
        <ele>737.0</ele>
        <time>2019-08-16T06:21:45Z</time>
      </trkpt>
      <trkpt lat="41.9784830" lon="-6.0617020">
        <ele>737.0</ele>
        <time>2019-08-16T06:21:46Z</time>
      </trkpt>
      <trkpt lat="41.9784860" lon="-6.0617600">
        <ele>737.0</ele>
        <time>2019-08-16T06:21:47Z</time>
      </trkpt>
      <trkpt lat="41.9784930" lon="-6.0618190">
        <ele>737.0</ele>
        <time>2019-08-16T06:21:48Z</time>
      </trkpt>
      <trkpt lat="41.9785030" lon="-6.0618770">
        <ele>737.0</ele>
        <time>2019-08-16T06:21:49Z</time>
      </trkpt>
      <trkpt lat="41.9785110" lon="-6.0619370">
        <ele>737.0</ele>
        <time>2019-08-16T06:21:50Z</time>
      </trkpt>
      <trkpt lat="41.9785200" lon="-6.0619980">
        <ele>737.0</ele>
        <time>2019-08-16T06:21:51Z</time>
      </trkpt>
      <trkpt lat="41.9785280" lon="-6.0620580">
        <ele>737.0</ele>
        <time>2019-08-16T06:21:52Z</time>
      </trkpt>
      <trkpt lat="41.9785370" lon="-6.0621190">
        <ele>737.1</ele>
        <time>2019-08-16T06:21:53Z</time>
      </trkpt>
      <trkpt lat="41.9785440" lon="-6.0621790">
        <ele>737.1</ele>
        <time>2019-08-16T06:21:54Z</time>
      </trkpt>
      <trkpt lat="41.9785490" lon="-6.0622400">
        <ele>737.1</ele>
        <time>2019-08-16T06:21:55Z</time>
      </trkpt>
      <trkpt lat="41.9785560" lon="-6.0623030">
        <ele>737.1</ele>
        <time>2019-08-16T06:21:56Z</time>
      </trkpt>
      <trkpt lat="41.9785620" lon="-6.0623660">
        <ele>737.1</ele>
        <time>2019-08-16T06:21:57Z</time>
      </trkpt>
      <trkpt lat="41.9785680" lon="-6.0624290">
        <ele>737.2</ele>
        <time>2019-08-16T06:21:58Z</time>
      </trkpt>
      <trkpt lat="41.9785730" lon="-6.0624930">
        <ele>737.2</ele>
        <time>2019-08-16T06:21:59Z</time>
      </trkpt>
      <trkpt lat="41.9785770" lon="-6.0625560">
        <ele>737.2</ele>
        <time>2019-08-16T06:22:00Z</time>
      </trkpt>
      <trkpt lat="41.9785780" lon="-6.0626200">
        <ele>737.3</ele>
        <time>2019-08-16T06:22:01Z</time>
      </trkpt>
      <trkpt lat="41.9785790" lon="-6.0626830">
        <ele>737.3</ele>
        <time>2019-08-16T06:22:02Z</time>
      </trkpt>
      <trkpt lat="41.9785780" lon="-6.0627470">
        <ele>737.4</ele>
        <time>2019-08-16T06:22:03Z</time>
      </trkpt>
      <trkpt lat="41.9785750" lon="-6.0628110">
        <ele>737.4</ele>
        <time>2019-08-16T06:22:04Z</time>
      </trkpt>
      <trkpt lat="41.9785680" lon="-6.0628760">
        <ele>737.5</ele>
        <time>2019-08-16T06:22:05Z</time>
      </trkpt>
      <trkpt lat="41.9785600" lon="-6.0629410">
        <ele>737.5</ele>
        <time>2019-08-16T06:22:06Z</time>
      </trkpt>
      <trkpt lat="41.9785490" lon="-6.0630040">
        <ele>737.6</ele>
        <time>2019-08-16T06:22:07Z</time>
      </trkpt>
      <trkpt lat="41.9785330" lon="-6.0630630">
        <ele>737.7</ele>
        <time>2019-08-16T06:22:08Z</time>
      </trkpt>
      <trkpt lat="41.9785170" lon="-6.0631160">
        <ele>737.8</ele>
        <time>2019-08-16T06:22:09Z</time>
      </trkpt>
      <trkpt lat="41.9784990" lon="-6.0631700">
        <ele>737.9</ele>
        <time>2019-08-16T06:22:10Z</time>
      </trkpt>
      <trkpt lat="41.9784800" lon="-6.0632240">
        <ele>738.0</ele>
        <time>2019-08-16T06:22:11Z</time>
      </trkpt>
      <trkpt lat="41.9784590" lon="-6.0632770">
        <ele>738.0</ele>
        <time>2019-08-16T06:22:12Z</time>
      </trkpt>
      <trkpt lat="41.9784380" lon="-6.0633300">
        <ele>738.0</ele>
        <time>2019-08-16T06:22:13Z</time>
      </trkpt>
      <trkpt lat="41.9784140" lon="-6.0633830">
        <ele>738.1</ele>
        <time>2019-08-16T06:22:14Z</time>
      </trkpt>
      <trkpt lat="41.9783900" lon="-6.0634360">
        <ele>738.0</ele>
        <time>2019-08-16T06:22:15Z</time>
      </trkpt>
      <trkpt lat="41.9783670" lon="-6.0634880">
        <ele>738.0</ele>
        <time>2019-08-16T06:22:16Z</time>
      </trkpt>
      <trkpt lat="41.9783420" lon="-6.0635400">
        <ele>738.0</ele>
        <time>2019-08-16T06:22:17Z</time>
      </trkpt>
      <trkpt lat="41.9783200" lon="-6.0635910">
        <ele>738.0</ele>
        <time>2019-08-16T06:22:18Z</time>
      </trkpt>
      <trkpt lat="41.9782970" lon="-6.0636410">
        <ele>738.0</ele>
        <time>2019-08-16T06:22:19Z</time>
      </trkpt>
      <trkpt lat="41.9782740" lon="-6.0636910">
        <ele>738.0</ele>
        <time>2019-08-16T06:22:20Z</time>
      </trkpt>
      <trkpt lat="41.9782520" lon="-6.0637430">
        <ele>737.9</ele>
        <time>2019-08-16T06:22:21Z</time>
      </trkpt>
      <trkpt lat="41.9782300" lon="-6.0637950">
        <ele>737.9</ele>
        <time>2019-08-16T06:22:22Z</time>
      </trkpt>
      <trkpt lat="41.9782070" lon="-6.0638480">
        <ele>737.9</ele>
        <time>2019-08-16T06:22:23Z</time>
      </trkpt>
      <trkpt lat="41.9781850" lon="-6.0638990">
        <ele>737.9</ele>
        <time>2019-08-16T06:22:24Z</time>
      </trkpt>
      <trkpt lat="41.9781650" lon="-6.0639520">
        <ele>737.9</ele>
        <time>2019-08-16T06:22:25Z</time>
      </trkpt>
      <trkpt lat="41.9781450" lon="-6.0640070">
        <ele>737.9</ele>
        <time>2019-08-16T06:22:26Z</time>
      </trkpt>
      <trkpt lat="41.9781280" lon="-6.0640620">
        <ele>737.9</ele>
        <time>2019-08-16T06:22:27Z</time>
      </trkpt>
      <trkpt lat="41.9781150" lon="-6.0641180">
        <ele>737.9</ele>
        <time>2019-08-16T06:22:28Z</time>
      </trkpt>
      <trkpt lat="41.9781030" lon="-6.0641760">
        <ele>737.9</ele>
        <time>2019-08-16T06:22:29Z</time>
      </trkpt>
      <trkpt lat="41.9780940" lon="-6.0642330">
        <ele>737.9</ele>
        <time>2019-08-16T06:22:30Z</time>
      </trkpt>
      <trkpt lat="41.9780860" lon="-6.0642910">
        <ele>737.9</ele>
        <time>2019-08-16T06:22:31Z</time>
      </trkpt>
      <trkpt lat="41.9780790" lon="-6.0643490">
        <ele>738.0</ele>
        <time>2019-08-16T06:22:32Z</time>
      </trkpt>
      <trkpt lat="41.9780740" lon="-6.0644090">
        <ele>738.0</ele>
        <time>2019-08-16T06:22:33Z</time>
      </trkpt>
      <trkpt lat="41.9780680" lon="-6.0644680">
        <ele>738.0</ele>
        <time>2019-08-16T06:22:34Z</time>
      </trkpt>
      <trkpt lat="41.9780600" lon="-6.0645230">
        <ele>738.0</ele>
        <time>2019-08-16T06:22:35Z</time>
      </trkpt>
      <trkpt lat="41.9780520" lon="-6.0645740">
        <ele>738.1</ele>
        <time>2019-08-16T06:22:36Z</time>
      </trkpt>
      <trkpt lat="41.9780440" lon="-6.0646200">
        <ele>738.1</ele>
        <time>2019-08-16T06:22:37Z</time>
      </trkpt>
      <trkpt lat="41.9780350" lon="-6.0646600">
        <ele>738.1</ele>
        <time>2019-08-16T06:22:38Z</time>
      </trkpt>
      <trkpt lat="41.9780270" lon="-6.0646980">
        <ele>738.1</ele>
        <time>2019-08-16T06:22:39Z</time>
      </trkpt>
      <trkpt lat="41.9780200" lon="-6.0647380">
        <ele>738.2</ele>
        <time>2019-08-16T06:22:40Z</time>
      </trkpt>
      <trkpt lat="41.9780140" lon="-6.0647810">
        <ele>738.2</ele>
        <time>2019-08-16T06:22:41Z</time>
      </trkpt>
      <trkpt lat="41.9780080" lon="-6.0648260">
        <ele>738.2</ele>
        <time>2019-08-16T06:22:42Z</time>
      </trkpt>
      <trkpt lat="41.9780020" lon="-6.0648730">
        <ele>738.3</ele>
        <time>2019-08-16T06:22:43Z</time>
      </trkpt>
      <trkpt lat="41.9779980" lon="-6.0649230">
        <ele>738.3</ele>
        <time>2019-08-16T06:22:44Z</time>
      </trkpt>
      <trkpt lat="41.9779950" lon="-6.0649760">
        <ele>738.3</ele>
        <time>2019-08-16T06:22:45Z</time>
      </trkpt>
      <trkpt lat="41.9779940" lon="-6.0650320">
        <ele>738.3</ele>
        <time>2019-08-16T06:22:46Z</time>
      </trkpt>
      <trkpt lat="41.9779930" lon="-6.0650880">
        <ele>738.3</ele>
        <time>2019-08-16T06:22:47Z</time>
      </trkpt>
      <trkpt lat="41.9779920" lon="-6.0651450">
        <ele>738.3</ele>
        <time>2019-08-16T06:22:48Z</time>
      </trkpt>
      <trkpt lat="41.9779900" lon="-6.0652010">
        <ele>738.3</ele>
        <time>2019-08-16T06:22:49Z</time>
      </trkpt>
      <trkpt lat="41.9779880" lon="-6.0652570">
        <ele>738.3</ele>
        <time>2019-08-16T06:22:50Z</time>
      </trkpt>
      <trkpt lat="41.9779870" lon="-6.0653120">
        <ele>738.3</ele>
        <time>2019-08-16T06:22:51Z</time>
      </trkpt>
      <trkpt lat="41.9779850" lon="-6.0653640">
        <ele>738.3</ele>
        <time>2019-08-16T06:22:52Z</time>
      </trkpt>
      <trkpt lat="41.9779840" lon="-6.0654180">
        <ele>738.3</ele>
        <time>2019-08-16T06:22:53Z</time>
      </trkpt>
      <trkpt lat="41.9779820" lon="-6.0654730">
        <ele>738.3</ele>
        <time>2019-08-16T06:22:54Z</time>
      </trkpt>
      <trkpt lat="41.9779800" lon="-6.0655290">
        <ele>738.3</ele>
        <time>2019-08-16T06:22:55Z</time>
      </trkpt>
      <trkpt lat="41.9779780" lon="-6.0655850">
        <ele>738.4</ele>
        <time>2019-08-16T06:22:56Z</time>
      </trkpt>
      <trkpt lat="41.9779740" lon="-6.0656420">
        <ele>738.4</ele>
        <time>2019-08-16T06:22:57Z</time>
      </trkpt>
      <trkpt lat="41.9779710" lon="-6.0657010">
        <ele>738.4</ele>
        <time>2019-08-16T06:22:58Z</time>
      </trkpt>
      <trkpt lat="41.9779710" lon="-6.0657600">
        <ele>738.4</ele>
        <time>2019-08-16T06:22:59Z</time>
      </trkpt>
      <trkpt lat="41.9779720" lon="-6.0658190">
        <ele>738.4</ele>
        <time>2019-08-16T06:23:00Z</time>
      </trkpt>
      <trkpt lat="41.9779710" lon="-6.0658800">
        <ele>738.4</ele>
        <time>2019-08-16T06:23:01Z</time>
      </trkpt>
      <trkpt lat="41.9779700" lon="-6.0659410">
        <ele>738.4</ele>
        <time>2019-08-16T06:23:02Z</time>
      </trkpt>
      <trkpt lat="41.9779680" lon="-6.0660020">
        <ele>738.4</ele>
        <time>2019-08-16T06:23:03Z</time>
      </trkpt>
      <trkpt lat="41.9779650" lon="-6.0660610">
        <ele>738.4</ele>
        <time>2019-08-16T06:23:04Z</time>
      </trkpt>
      <trkpt lat="41.9779630" lon="-6.0661200">
        <ele>738.4</ele>
        <time>2019-08-16T06:23:05Z</time>
      </trkpt>
      <trkpt lat="41.9779620" lon="-6.0661790">
        <ele>738.4</ele>
        <time>2019-08-16T06:23:06Z</time>
      </trkpt>
      <trkpt lat="41.9779620" lon="-6.0662390">
        <ele>738.4</ele>
        <time>2019-08-16T06:23:07Z</time>
      </trkpt>
      <trkpt lat="41.9779610" lon="-6.0663000">
        <ele>738.4</ele>
        <time>2019-08-16T06:23:08Z</time>
      </trkpt>
      <trkpt lat="41.9779600" lon="-6.0663600">
        <ele>738.4</ele>
        <time>2019-08-16T06:23:09Z</time>
      </trkpt>
      <trkpt lat="41.9779580" lon="-6.0664210">
        <ele>738.4</ele>
        <time>2019-08-16T06:23:10Z</time>
      </trkpt>
      <trkpt lat="41.9779570" lon="-6.0664830">
        <ele>738.4</ele>
        <time>2019-08-16T06:23:11Z</time>
      </trkpt>
      <trkpt lat="41.9779560" lon="-6.0665450">
        <ele>738.4</ele>
        <time>2019-08-16T06:23:12Z</time>
      </trkpt>
      <trkpt lat="41.9779540" lon="-6.0666080">
        <ele>738.4</ele>
        <time>2019-08-16T06:23:13Z</time>
      </trkpt>
      <trkpt lat="41.9779530" lon="-6.0666700">
        <ele>738.4</ele>
        <time>2019-08-16T06:23:14Z</time>
      </trkpt>
      <trkpt lat="41.9779530" lon="-6.0667300">
        <ele>738.3</ele>
        <time>2019-08-16T06:23:15Z</time>
      </trkpt>
      <trkpt lat="41.9779520" lon="-6.0667870">
        <ele>738.3</ele>
        <time>2019-08-16T06:23:16Z</time>
      </trkpt>
      <trkpt lat="41.9779520" lon="-6.0668420">
        <ele>738.2</ele>
        <time>2019-08-16T06:23:17Z</time>
      </trkpt>
      <trkpt lat="41.9779520" lon="-6.0668950">
        <ele>738.1</ele>
        <time>2019-08-16T06:23:18Z</time>
      </trkpt>
      <trkpt lat="41.9779520" lon="-6.0669500">
        <ele>738.0</ele>
        <time>2019-08-16T06:23:19Z</time>
      </trkpt>
      <trkpt lat="41.9779510" lon="-6.0670080">
        <ele>737.8</ele>
        <time>2019-08-16T06:23:20Z</time>
      </trkpt>
      <trkpt lat="41.9779500" lon="-6.0670680">
        <ele>737.6</ele>
        <time>2019-08-16T06:23:21Z</time>
      </trkpt>
      <trkpt lat="41.9779490" lon="-6.0671290">
        <ele>737.3</ele>
        <time>2019-08-16T06:23:22Z</time>
      </trkpt>
      <trkpt lat="41.9779460" lon="-6.0671900">
        <ele>737.0</ele>
        <time>2019-08-16T06:23:23Z</time>
      </trkpt>
      <trkpt lat="41.9779440" lon="-6.0672520">
        <ele>736.6</ele>
        <time>2019-08-16T06:23:24Z</time>
      </trkpt>
      <trkpt lat="41.9779420" lon="-6.0673140">
        <ele>736.3</ele>
        <time>2019-08-16T06:23:25Z</time>
      </trkpt>
      <trkpt lat="41.9779400" lon="-6.0673770">
        <ele>736.0</ele>
        <time>2019-08-16T06:23:26Z</time>
      </trkpt>
      <trkpt lat="41.9779390" lon="-6.0674390">
        <ele>735.8</ele>
        <time>2019-08-16T06:23:27Z</time>
      </trkpt>
      <trkpt lat="41.9779400" lon="-6.0675030">
        <ele>735.6</ele>
        <time>2019-08-16T06:23:28Z</time>
      </trkpt>
      <trkpt lat="41.9779400" lon="-6.0675650">
        <ele>735.6</ele>
        <time>2019-08-16T06:23:29Z</time>
      </trkpt>
      <trkpt lat="41.9779370" lon="-6.0676280">
        <ele>735.5</ele>
        <time>2019-08-16T06:23:30Z</time>
      </trkpt>
      <trkpt lat="41.9779360" lon="-6.0676910">
        <ele>735.5</ele>
        <time>2019-08-16T06:23:31Z</time>
      </trkpt>
      <trkpt lat="41.9779350" lon="-6.0677540">
        <ele>735.4</ele>
        <time>2019-08-16T06:23:32Z</time>
      </trkpt>
      <trkpt lat="41.9779350" lon="-6.0678160">
        <ele>735.4</ele>
        <time>2019-08-16T06:23:33Z</time>
      </trkpt>
      <trkpt lat="41.9779340" lon="-6.0678770">
        <ele>735.4</ele>
        <time>2019-08-16T06:23:34Z</time>
      </trkpt>
      <trkpt lat="41.9779330" lon="-6.0679370">
        <ele>735.4</ele>
        <time>2019-08-16T06:23:35Z</time>
      </trkpt>
      <trkpt lat="41.9779310" lon="-6.0679970">
        <ele>735.4</ele>
        <time>2019-08-16T06:23:36Z</time>
      </trkpt>
      <trkpt lat="41.9779300" lon="-6.0680590">
        <ele>735.4</ele>
        <time>2019-08-16T06:23:37Z</time>
      </trkpt>
      <trkpt lat="41.9779270" lon="-6.0681210">
        <ele>735.4</ele>
        <time>2019-08-16T06:23:38Z</time>
      </trkpt>
      <trkpt lat="41.9779250" lon="-6.0681840">
        <ele>735.4</ele>
        <time>2019-08-16T06:23:39Z</time>
      </trkpt>
      <trkpt lat="41.9779230" lon="-6.0682470">
        <ele>735.4</ele>
        <time>2019-08-16T06:23:40Z</time>
      </trkpt>
      <trkpt lat="41.9779220" lon="-6.0683090">
        <ele>735.4</ele>
        <time>2019-08-16T06:23:41Z</time>
      </trkpt>
      <trkpt lat="41.9779230" lon="-6.0683720">
        <ele>735.5</ele>
        <time>2019-08-16T06:23:42Z</time>
      </trkpt>
      <trkpt lat="41.9779220" lon="-6.0684350">
        <ele>735.5</ele>
        <time>2019-08-16T06:23:43Z</time>
      </trkpt>
      <trkpt lat="41.9779220" lon="-6.0684990">
        <ele>735.5</ele>
        <time>2019-08-16T06:23:44Z</time>
      </trkpt>
      <trkpt lat="41.9779210" lon="-6.0685640">
        <ele>735.5</ele>
        <time>2019-08-16T06:23:45Z</time>
      </trkpt>
      <trkpt lat="41.9779210" lon="-6.0686270">
        <ele>735.5</ele>
        <time>2019-08-16T06:23:46Z</time>
      </trkpt>
      <trkpt lat="41.9779210" lon="-6.0686880">
        <ele>735.5</ele>
        <time>2019-08-16T06:23:47Z</time>
      </trkpt>
      <trkpt lat="41.9779190" lon="-6.0687470">
        <ele>735.5</ele>
        <time>2019-08-16T06:23:48Z</time>
      </trkpt>
      <trkpt lat="41.9779180" lon="-6.0688050">
        <ele>735.5</ele>
        <time>2019-08-16T06:23:49Z</time>
      </trkpt>
      <trkpt lat="41.9779170" lon="-6.0688590">
        <ele>735.5</ele>
        <time>2019-08-16T06:23:50Z</time>
      </trkpt>
      <trkpt lat="41.9779130" lon="-6.0689130">
        <ele>735.5</ele>
        <time>2019-08-16T06:23:51Z</time>
      </trkpt>
      <trkpt lat="41.9779090" lon="-6.0689680">
        <ele>735.5</ele>
        <time>2019-08-16T06:23:52Z</time>
      </trkpt>
      <trkpt lat="41.9779060" lon="-6.0690240">
        <ele>735.5</ele>
        <time>2019-08-16T06:23:53Z</time>
      </trkpt>
      <trkpt lat="41.9779060" lon="-6.0690830">
        <ele>735.5</ele>
        <time>2019-08-16T06:23:54Z</time>
      </trkpt>
      <trkpt lat="41.9779070" lon="-6.0691430">
        <ele>735.5</ele>
        <time>2019-08-16T06:23:55Z</time>
      </trkpt>
      <trkpt lat="41.9779070" lon="-6.0692040">
        <ele>735.5</ele>
        <time>2019-08-16T06:23:56Z</time>
      </trkpt>
      <trkpt lat="41.9779060" lon="-6.0692650">
        <ele>735.5</ele>
        <time>2019-08-16T06:23:57Z</time>
      </trkpt>
      <trkpt lat="41.9779050" lon="-6.0693280">
        <ele>735.5</ele>
        <time>2019-08-16T06:23:58Z</time>
      </trkpt>
      <trkpt lat="41.9779030" lon="-6.0693900">
        <ele>735.5</ele>
        <time>2019-08-16T06:23:59Z</time>
      </trkpt>
      <trkpt lat="41.9779010" lon="-6.0694520">
        <ele>735.5</ele>
        <time>2019-08-16T06:24:00Z</time>
      </trkpt>
      <trkpt lat="41.9778970" lon="-6.0695130">
        <ele>735.6</ele>
        <time>2019-08-16T06:24:01Z</time>
      </trkpt>
      <trkpt lat="41.9778940" lon="-6.0695730">
        <ele>735.6</ele>
        <time>2019-08-16T06:24:02Z</time>
      </trkpt>
      <trkpt lat="41.9778920" lon="-6.0696310">
        <ele>735.7</ele>
        <time>2019-08-16T06:24:03Z</time>
      </trkpt>
      <trkpt lat="41.9778890" lon="-6.0696880">
        <ele>735.9</ele>
        <time>2019-08-16T06:24:04Z</time>
      </trkpt>
      <trkpt lat="41.9778870" lon="-6.0697460">
        <ele>736.1</ele>
        <time>2019-08-16T06:24:05Z</time>
      </trkpt>
      <trkpt lat="41.9778850" lon="-6.0698040">
        <ele>736.3</ele>
        <time>2019-08-16T06:24:06Z</time>
      </trkpt>
      <trkpt lat="41.9778820" lon="-6.0698620">
        <ele>736.7</ele>
        <time>2019-08-16T06:24:07Z</time>
      </trkpt>
      <trkpt lat="41.9778770" lon="-6.0699220">
        <ele>737.1</ele>
        <time>2019-08-16T06:24:08Z</time>
      </trkpt>
      <trkpt lat="41.9778710" lon="-6.0699810">
        <ele>737.6</ele>
        <time>2019-08-16T06:24:09Z</time>
      </trkpt>
      <trkpt lat="41.9778630" lon="-6.0700410">
        <ele>737.7</ele>
        <time>2019-08-16T06:24:10Z</time>
      </trkpt>
      <trkpt lat="41.9778550" lon="-6.0701010">
        <ele>737.7</ele>
        <time>2019-08-16T06:24:11Z</time>
      </trkpt>
      <trkpt lat="41.9778450" lon="-6.0701590">
        <ele>737.8</ele>
        <time>2019-08-16T06:24:12Z</time>
      </trkpt>
      <trkpt lat="41.9778340" lon="-6.0702170">
        <ele>737.8</ele>
        <time>2019-08-16T06:24:13Z</time>
      </trkpt>
      <trkpt lat="41.9778210" lon="-6.0702760">
        <ele>737.9</ele>
        <time>2019-08-16T06:24:14Z</time>
      </trkpt>
      <trkpt lat="41.9778100" lon="-6.0703350">
        <ele>737.9</ele>
        <time>2019-08-16T06:24:15Z</time>
      </trkpt>
      <trkpt lat="41.9777970" lon="-6.0703920">
        <ele>738.0</ele>
        <time>2019-08-16T06:24:16Z</time>
      </trkpt>
      <trkpt lat="41.9777830" lon="-6.0704450">
        <ele>738.1</ele>
        <time>2019-08-16T06:24:17Z</time>
      </trkpt>
      <trkpt lat="41.9777660" lon="-6.0704950">
        <ele>738.1</ele>
        <time>2019-08-16T06:24:18Z</time>
      </trkpt>
      <trkpt lat="41.9777480" lon="-6.0705440">
        <ele>738.2</ele>
        <time>2019-08-16T06:24:19Z</time>
      </trkpt>
      <trkpt lat="41.9777320" lon="-6.0705970">
        <ele>738.4</ele>
        <time>2019-08-16T06:24:20Z</time>
      </trkpt>
      <trkpt lat="41.9777160" lon="-6.0706510">
        <ele>738.5</ele>
        <time>2019-08-16T06:24:21Z</time>
      </trkpt>
      <trkpt lat="41.9776990" lon="-6.0707060">
        <ele>738.7</ele>
        <time>2019-08-16T06:24:22Z</time>
      </trkpt>
      <trkpt lat="41.9776810" lon="-6.0707610">
        <ele>738.9</ele>
        <time>2019-08-16T06:24:23Z</time>
      </trkpt>
      <trkpt lat="41.9776620" lon="-6.0708160">
        <ele>739.1</ele>
        <time>2019-08-16T06:24:24Z</time>
      </trkpt>
      <trkpt lat="41.9776430" lon="-6.0708710">
        <ele>739.3</ele>
        <time>2019-08-16T06:24:25Z</time>
      </trkpt>
      <trkpt lat="41.9776240" lon="-6.0709260">
        <ele>739.6</ele>
        <time>2019-08-16T06:24:26Z</time>
      </trkpt>
      <trkpt lat="41.9776030" lon="-6.0709830">
        <ele>739.7</ele>
        <time>2019-08-16T06:24:27Z</time>
      </trkpt>
      <trkpt lat="41.9775810" lon="-6.0710390">
        <ele>739.9</ele>
        <time>2019-08-16T06:24:28Z</time>
      </trkpt>
      <trkpt lat="41.9775570" lon="-6.0710940">
        <ele>740.0</ele>
        <time>2019-08-16T06:24:29Z</time>
      </trkpt>
      <trkpt lat="41.9775330" lon="-6.0711480">
        <ele>740.2</ele>
        <time>2019-08-16T06:24:30Z</time>
      </trkpt>
      <trkpt lat="41.9775090" lon="-6.0712010">
        <ele>740.2</ele>
        <time>2019-08-16T06:24:31Z</time>
      </trkpt>
      <trkpt lat="41.9774870" lon="-6.0712510">
        <ele>740.3</ele>
        <time>2019-08-16T06:24:32Z</time>
      </trkpt>
      <trkpt lat="41.9774680" lon="-6.0712990">
        <ele>740.4</ele>
        <time>2019-08-16T06:24:33Z</time>
      </trkpt>
      <trkpt lat="41.9774500" lon="-6.0713450">
        <ele>740.4</ele>
        <time>2019-08-16T06:24:34Z</time>
      </trkpt>
      <trkpt lat="41.9774320" lon="-6.0713930">
        <ele>740.4</ele>
        <time>2019-08-16T06:24:35Z</time>
      </trkpt>
      <trkpt lat="41.9774130" lon="-6.0714410">
        <ele>740.5</ele>
        <time>2019-08-16T06:24:36Z</time>
      </trkpt>
      <trkpt lat="41.9773920" lon="-6.0714900">
        <ele>740.5</ele>
        <time>2019-08-16T06:24:37Z</time>
      </trkpt>
      <trkpt lat="41.9773710" lon="-6.0715400">
        <ele>740.6</ele>
        <time>2019-08-16T06:24:38Z</time>
      </trkpt>
      <trkpt lat="41.9773500" lon="-6.0715910">
        <ele>740.6</ele>
        <time>2019-08-16T06:24:39Z</time>
      </trkpt>
      <trkpt lat="41.9773280" lon="-6.0716420">
        <ele>740.7</ele>
        <time>2019-08-16T06:24:40Z</time>
      </trkpt>
      <trkpt lat="41.9773070" lon="-6.0716940">
        <ele>740.7</ele>
        <time>2019-08-16T06:24:41Z</time>
      </trkpt>
      <trkpt lat="41.9772860" lon="-6.0717470">
        <ele>740.8</ele>
        <time>2019-08-16T06:24:42Z</time>
      </trkpt>
      <trkpt lat="41.9772640" lon="-6.0718010">
        <ele>740.8</ele>
        <time>2019-08-16T06:24:43Z</time>
      </trkpt>
      <trkpt lat="41.9772430" lon="-6.0718560">
        <ele>740.9</ele>
        <time>2019-08-16T06:24:44Z</time>
      </trkpt>
      <trkpt lat="41.9772220" lon="-6.0719090">
        <ele>740.9</ele>
        <time>2019-08-16T06:24:45Z</time>
      </trkpt>
      <trkpt lat="41.9772020" lon="-6.0719590">
        <ele>741.0</ele>
        <time>2019-08-16T06:24:46Z</time>
      </trkpt>
      <trkpt lat="41.9771830" lon="-6.0720080">
        <ele>741.0</ele>
        <time>2019-08-16T06:24:47Z</time>
      </trkpt>
      <trkpt lat="41.9771650" lon="-6.0720540">
        <ele>741.1</ele>
        <time>2019-08-16T06:24:48Z</time>
      </trkpt>
      <trkpt lat="41.9771470" lon="-6.0721010">
        <ele>741.2</ele>
        <time>2019-08-16T06:24:49Z</time>
      </trkpt>
      <trkpt lat="41.9771290" lon="-6.0721500">
        <ele>741.3</ele>
        <time>2019-08-16T06:24:50Z</time>
      </trkpt>
      <trkpt lat="41.9771100" lon="-6.0722010">
        <ele>741.4</ele>
        <time>2019-08-16T06:24:51Z</time>
      </trkpt>
      <trkpt lat="41.9770890" lon="-6.0722530">
        <ele>741.6</ele>
        <time>2019-08-16T06:24:52Z</time>
      </trkpt>
      <trkpt lat="41.9770690" lon="-6.0723040">
        <ele>741.7</ele>
        <time>2019-08-16T06:24:53Z</time>
      </trkpt>
      <trkpt lat="41.9770470" lon="-6.0723560">
        <ele>741.9</ele>
        <time>2019-08-16T06:24:54Z</time>
      </trkpt>
      <trkpt lat="41.9770260" lon="-6.0724070">
        <ele>742.2</ele>
        <time>2019-08-16T06:24:55Z</time>
      </trkpt>
      <trkpt lat="41.9770060" lon="-6.0724580">
        <ele>742.4</ele>
        <time>2019-08-16T06:24:56Z</time>
      </trkpt>
      <trkpt lat="41.9769890" lon="-6.0725110">
        <ele>742.7</ele>
        <time>2019-08-16T06:24:57Z</time>
      </trkpt>
      <trkpt lat="41.9769800" lon="-6.0725620">
        <ele>742.9</ele>
        <time>2019-08-16T06:24:58Z</time>
      </trkpt>
      <trkpt lat="41.9769810" lon="-6.0726130">
        <ele>743.1</ele>
        <time>2019-08-16T06:24:59Z</time>
      </trkpt>
      <trkpt lat="41.9769890" lon="-6.0726600">
        <ele>743.2</ele>
        <time>2019-08-16T06:25:00Z</time>
      </trkpt>
      <trkpt lat="41.9770010" lon="-6.0727040">
        <ele>743.3</ele>
        <time>2019-08-16T06:25:01Z</time>
      </trkpt>
      <trkpt lat="41.9770160" lon="-6.0727450">
        <ele>743.4</ele>
        <time>2019-08-16T06:25:02Z</time>
      </trkpt>
      <trkpt lat="41.9770330" lon="-6.0727830">
        <ele>743.5</ele>
        <time>2019-08-16T06:25:03Z</time>
      </trkpt>
      <trkpt lat="41.9770510" lon="-6.0728220">
        <ele>743.6</ele>
        <time>2019-08-16T06:25:04Z</time>
      </trkpt>
      <trkpt lat="41.9770680" lon="-6.0728610">
        <ele>743.7</ele>
        <time>2019-08-16T06:25:05Z</time>
      </trkpt>
      <trkpt lat="41.9770840" lon="-6.0729020">
        <ele>743.8</ele>
        <time>2019-08-16T06:25:06Z</time>
      </trkpt>
      <trkpt lat="41.9770980" lon="-6.0729450">
        <ele>743.9</ele>
        <time>2019-08-16T06:25:07Z</time>
      </trkpt>
      <trkpt lat="41.9771110" lon="-6.0729900">
        <ele>744.0</ele>
        <time>2019-08-16T06:25:08Z</time>
      </trkpt>
      <trkpt lat="41.9771230" lon="-6.0730370">
        <ele>744.2</ele>
        <time>2019-08-16T06:25:09Z</time>
      </trkpt>
      <trkpt lat="41.9771350" lon="-6.0730840">
        <ele>744.3</ele>
        <time>2019-08-16T06:25:10Z</time>
      </trkpt>
      <trkpt lat="41.9771440" lon="-6.0731320">
        <ele>744.4</ele>
        <time>2019-08-16T06:25:11Z</time>
      </trkpt>
      <trkpt lat="41.9771560" lon="-6.0731790">
        <ele>744.5</ele>
        <time>2019-08-16T06:25:12Z</time>
      </trkpt>
      <trkpt lat="41.9771710" lon="-6.0732230">
        <ele>744.6</ele>
        <time>2019-08-16T06:25:13Z</time>
      </trkpt>
      <trkpt lat="41.9771930" lon="-6.0732630">
        <ele>744.7</ele>
        <time>2019-08-16T06:25:14Z</time>
      </trkpt>
      <trkpt lat="41.9772230" lon="-6.0732940">
        <ele>744.8</ele>
        <time>2019-08-16T06:25:15Z</time>
      </trkpt>
      <trkpt lat="41.9772600" lon="-6.0733100">
        <ele>744.9</ele>
        <time>2019-08-16T06:25:16Z</time>
      </trkpt>
      <trkpt lat="41.9773000" lon="-6.0733120">
        <ele>745.0</ele>
        <time>2019-08-16T06:25:17Z</time>
      </trkpt>
      <trkpt lat="41.9773410" lon="-6.0733040">
        <ele>745.1</ele>
        <time>2019-08-16T06:25:18Z</time>
      </trkpt>
      <trkpt lat="41.9773840" lon="-6.0732950">
        <ele>745.2</ele>
        <time>2019-08-16T06:25:19Z</time>
      </trkpt>
      <trkpt lat="41.9774280" lon="-6.0732860">
        <ele>745.3</ele>
        <time>2019-08-16T06:25:20Z</time>
      </trkpt>
      <trkpt lat="41.9774740" lon="-6.0732820">
        <ele>745.4</ele>
        <time>2019-08-16T06:25:21Z</time>
      </trkpt>
      <trkpt lat="41.9775210" lon="-6.0732820">
        <ele>745.5</ele>
        <time>2019-08-16T06:25:22Z</time>
      </trkpt>
      <trkpt lat="41.9775680" lon="-6.0732860">
        <ele>745.6</ele>
        <time>2019-08-16T06:25:23Z</time>
      </trkpt>
      <trkpt lat="41.9776150" lon="-6.0732950">
        <ele>745.7</ele>
        <time>2019-08-16T06:25:24Z</time>
      </trkpt>
      <trkpt lat="41.9776590" lon="-6.0733080">
        <ele>745.8</ele>
        <time>2019-08-16T06:25:25Z</time>
      </trkpt>
      <trkpt lat="41.9777020" lon="-6.0733290">
        <ele>745.8</ele>
        <time>2019-08-16T06:25:26Z</time>
      </trkpt>
      <trkpt lat="41.9777440" lon="-6.0733590">
        <ele>745.8</ele>
        <time>2019-08-16T06:25:27Z</time>
      </trkpt>
      <trkpt lat="41.9777840" lon="-6.0733920">
        <ele>745.9</ele>
        <time>2019-08-16T06:25:28Z</time>
      </trkpt>
      <trkpt lat="41.9778230" lon="-6.0734280">
        <ele>745.9</ele>
        <time>2019-08-16T06:25:29Z</time>
      </trkpt>
      <trkpt lat="41.9778600" lon="-6.0734650">
        <ele>745.9</ele>
        <time>2019-08-16T06:25:30Z</time>
      </trkpt>
      <trkpt lat="41.9778960" lon="-6.0735020">
        <ele>746.0</ele>
        <time>2019-08-16T06:25:31Z</time>
      </trkpt>
      <trkpt lat="41.9779320" lon="-6.0735420">
        <ele>746.0</ele>
        <time>2019-08-16T06:25:32Z</time>
      </trkpt>
      <trkpt lat="41.9779700" lon="-6.0735820">
        <ele>746.0</ele>
        <time>2019-08-16T06:25:33Z</time>
      </trkpt>
      <trkpt lat="41.9780090" lon="-6.0736240">
        <ele>746.0</ele>
        <time>2019-08-16T06:25:34Z</time>
      </trkpt>
      <trkpt lat="41.9780480" lon="-6.0736650">
        <ele>746.0</ele>
        <time>2019-08-16T06:25:35Z</time>
      </trkpt>
      <trkpt lat="41.9780870" lon="-6.0737020">
        <ele>746.1</ele>
        <time>2019-08-16T06:25:36Z</time>
      </trkpt>
      <trkpt lat="41.9781260" lon="-6.0737390">
        <ele>746.1</ele>
        <time>2019-08-16T06:25:37Z</time>
      </trkpt>
      <trkpt lat="41.9781640" lon="-6.0737780">
        <ele>746.1</ele>
        <time>2019-08-16T06:25:38Z</time>
      </trkpt>
      <trkpt lat="41.9782020" lon="-6.0738170">
        <ele>746.1</ele>
        <time>2019-08-16T06:25:39Z</time>
      </trkpt>
      <trkpt lat="41.9782410" lon="-6.0738580">
        <ele>746.2</ele>
        <time>2019-08-16T06:25:40Z</time>
      </trkpt>
      <trkpt lat="41.9782820" lon="-6.0738990">
        <ele>746.2</ele>
        <time>2019-08-16T06:25:41Z</time>
      </trkpt>
      <trkpt lat="41.9783220" lon="-6.0739380">
        <ele>746.2</ele>
        <time>2019-08-16T06:25:42Z</time>
      </trkpt>
      <trkpt lat="41.9783630" lon="-6.0739790">
        <ele>746.2</ele>
        <time>2019-08-16T06:25:43Z</time>
      </trkpt>
      <trkpt lat="41.9784040" lon="-6.0740190">
        <ele>746.3</ele>
        <time>2019-08-16T06:25:44Z</time>
      </trkpt>
      <trkpt lat="41.9784440" lon="-6.0740590">
        <ele>746.3</ele>
        <time>2019-08-16T06:25:45Z</time>
      </trkpt>
      <trkpt lat="41.9784820" lon="-6.0740970">
        <ele>746.3</ele>
        <time>2019-08-16T06:25:46Z</time>
      </trkpt>
      <trkpt lat="41.9785210" lon="-6.0741350">
        <ele>746.3</ele>
        <time>2019-08-16T06:25:47Z</time>
      </trkpt>
      <trkpt lat="41.9785600" lon="-6.0741720">
        <ele>746.3</ele>
        <time>2019-08-16T06:25:48Z</time>
      </trkpt>
      <trkpt lat="41.9785990" lon="-6.0742090">
        <ele>746.3</ele>
        <time>2019-08-16T06:25:49Z</time>
      </trkpt>
      <trkpt lat="41.9786390" lon="-6.0742480">
        <ele>746.4</ele>
        <time>2019-08-16T06:25:50Z</time>
      </trkpt>
      <trkpt lat="41.9786790" lon="-6.0742880">
        <ele>746.4</ele>
        <time>2019-08-16T06:25:51Z</time>
      </trkpt>
      <trkpt lat="41.9787200" lon="-6.0743280">
        <ele>746.4</ele>
        <time>2019-08-16T06:25:52Z</time>
      </trkpt>
      <trkpt lat="41.9787620" lon="-6.0743690">
        <ele>746.4</ele>
        <time>2019-08-16T06:25:53Z</time>
      </trkpt>
      <trkpt lat="41.9788020" lon="-6.0744060">
        <ele>746.4</ele>
        <time>2019-08-16T06:25:54Z</time>
      </trkpt>
      <trkpt lat="41.9788420" lon="-6.0744420">
        <ele>746.5</ele>
        <time>2019-08-16T06:25:55Z</time>
      </trkpt>
      <trkpt lat="41.9788830" lon="-6.0744800">
        <ele>746.5</ele>
        <time>2019-08-16T06:25:56Z</time>
      </trkpt>
      <trkpt lat="41.9789240" lon="-6.0745180">
        <ele>746.5</ele>
        <time>2019-08-16T06:25:57Z</time>
      </trkpt>
      <trkpt lat="41.9789650" lon="-6.0745540">
        <ele>746.6</ele>
        <time>2019-08-16T06:25:58Z</time>
      </trkpt>
      <trkpt lat="41.9790060" lon="-6.0745910">
        <ele>746.6</ele>
        <time>2019-08-16T06:25:59Z</time>
      </trkpt>
      <trkpt lat="41.9790450" lon="-6.0746250">
        <ele>746.5</ele>
        <time>2019-08-16T06:26:00Z</time>
      </trkpt>
      <trkpt lat="41.9790840" lon="-6.0746580">
        <ele>746.5</ele>
        <time>2019-08-16T06:26:01Z</time>
      </trkpt>
      <trkpt lat="41.9791250" lon="-6.0746880">
        <ele>746.5</ele>
        <time>2019-08-16T06:26:02Z</time>
      </trkpt>
      <trkpt lat="41.9791660" lon="-6.0747220">
        <ele>746.5</ele>
        <time>2019-08-16T06:26:03Z</time>
      </trkpt>
      <trkpt lat="41.9792070" lon="-6.0747610">
        <ele>746.5</ele>
        <time>2019-08-16T06:26:04Z</time>
      </trkpt>
      <trkpt lat="41.9792490" lon="-6.0748010">
        <ele>746.5</ele>
        <time>2019-08-16T06:26:05Z</time>
      </trkpt>
      <trkpt lat="41.9792910" lon="-6.0748410">
        <ele>746.5</ele>
        <time>2019-08-16T06:26:06Z</time>
      </trkpt>
      <trkpt lat="41.9793320" lon="-6.0748800">
        <ele>746.5</ele>
        <time>2019-08-16T06:26:07Z</time>
      </trkpt>
      <trkpt lat="41.9793720" lon="-6.0749180">
        <ele>746.5</ele>
        <time>2019-08-16T06:26:08Z</time>
      </trkpt>
      <trkpt lat="41.9794120" lon="-6.0749510">
        <ele>746.5</ele>
        <time>2019-08-16T06:26:09Z</time>
      </trkpt>
      <trkpt lat="41.9794520" lon="-6.0749840">
        <ele>746.5</ele>
        <time>2019-08-16T06:26:10Z</time>
      </trkpt>
      <trkpt lat="41.9794910" lon="-6.0750190">
        <ele>746.5</ele>
        <time>2019-08-16T06:26:11Z</time>
      </trkpt>
      <trkpt lat="41.9795290" lon="-6.0750550">
        <ele>746.5</ele>
        <time>2019-08-16T06:26:12Z</time>
      </trkpt>
      <trkpt lat="41.9795650" lon="-6.0750890">
        <ele>746.5</ele>
        <time>2019-08-16T06:26:13Z</time>
      </trkpt>
      <trkpt lat="41.9796020" lon="-6.0751240">
        <ele>746.5</ele>
        <time>2019-08-16T06:26:14Z</time>
      </trkpt>
      <trkpt lat="41.9796420" lon="-6.0751590">
        <ele>746.4</ele>
        <time>2019-08-16T06:26:15Z</time>
      </trkpt>
      <trkpt lat="41.9796800" lon="-6.0751920">
        <ele>746.4</ele>
        <time>2019-08-16T06:26:16Z</time>
      </trkpt>
      <trkpt lat="41.9797170" lon="-6.0752240">
        <ele>746.4</ele>
        <time>2019-08-16T06:26:17Z</time>
      </trkpt>
      <trkpt lat="41.9797560" lon="-6.0752580">
        <ele>746.3</ele>
        <time>2019-08-16T06:26:18Z</time>
      </trkpt>
      <trkpt lat="41.9797940" lon="-6.0752920">
        <ele>746.3</ele>
        <time>2019-08-16T06:26:19Z</time>
      </trkpt>
      <trkpt lat="41.9798320" lon="-6.0753260">
        <ele>746.3</ele>
        <time>2019-08-16T06:26:20Z</time>
      </trkpt>
      <trkpt lat="41.9798700" lon="-6.0753620">
        <ele>746.2</ele>
        <time>2019-08-16T06:26:21Z</time>
      </trkpt>
      <trkpt lat="41.9799080" lon="-6.0754000">
        <ele>746.2</ele>
        <time>2019-08-16T06:26:22Z</time>
      </trkpt>
      <trkpt lat="41.9799450" lon="-6.0754360">
        <ele>746.2</ele>
        <time>2019-08-16T06:26:23Z</time>
      </trkpt>
      <trkpt lat="41.9799810" lon="-6.0754760">
        <ele>746.1</ele>
        <time>2019-08-16T06:26:24Z</time>
      </trkpt>
      <trkpt lat="41.9800130" lon="-6.0755210">
        <ele>746.1</ele>
        <time>2019-08-16T06:26:25Z</time>
      </trkpt>
      <trkpt lat="41.9800440" lon="-6.0755720">
        <ele>746.1</ele>
        <time>2019-08-16T06:26:26Z</time>
      </trkpt>
      <trkpt lat="41.9800700" lon="-6.0756300">
        <ele>746.1</ele>
        <time>2019-08-16T06:26:27Z</time>
      </trkpt>
      <trkpt lat="41.9800890" lon="-6.0756880">
        <ele>746.1</ele>
        <time>2019-08-16T06:26:28Z</time>
      </trkpt>
      <trkpt lat="41.9801030" lon="-6.0757510">
        <ele>746.1</ele>
        <time>2019-08-16T06:26:29Z</time>
      </trkpt>
      <trkpt lat="41.9801120" lon="-6.0758130">
        <ele>746.1</ele>
        <time>2019-08-16T06:26:30Z</time>
      </trkpt>
      <trkpt lat="41.9801170" lon="-6.0758730">
        <ele>746.1</ele>
        <time>2019-08-16T06:26:31Z</time>
      </trkpt>
      <trkpt lat="41.9801170" lon="-6.0759320">
        <ele>746.1</ele>
        <time>2019-08-16T06:26:32Z</time>
      </trkpt>
      <trkpt lat="41.9801160" lon="-6.0759860">
        <ele>746.1</ele>
        <time>2019-08-16T06:26:33Z</time>
      </trkpt>
      <trkpt lat="41.9801100" lon="-6.0760340">
        <ele>746.1</ele>
        <time>2019-08-16T06:26:34Z</time>
      </trkpt>
      <trkpt lat="41.9801020" lon="-6.0760810">
        <ele>746.1</ele>
        <time>2019-08-16T06:26:35Z</time>
      </trkpt>
      <trkpt lat="41.9800950" lon="-6.0761290">
        <ele>746.1</ele>
        <time>2019-08-16T06:26:36Z</time>
      </trkpt>
      <trkpt lat="41.9800890" lon="-6.0761730">
        <ele>746.2</ele>
        <time>2019-08-16T06:26:37Z</time>
      </trkpt>
      <trkpt lat="41.9800850" lon="-6.0762150">
        <ele>746.2</ele>
        <time>2019-08-16T06:26:38Z</time>
      </trkpt>
      <trkpt lat="41.9800810" lon="-6.0762530">
        <ele>746.2</ele>
        <time>2019-08-16T06:26:39Z</time>
      </trkpt>
      <trkpt lat="41.9800710" lon="-6.0763160">
        <ele>746.3</ele>
        <time>2019-08-16T06:26:41Z</time>
      </trkpt>
      <trkpt lat="41.9800580" lon="-6.0763690">
        <ele>746.4</ele>
        <time>2019-08-16T06:26:43Z</time>
      </trkpt>
      <trkpt lat="41.9800430" lon="-6.0764160">
        <ele>746.5</ele>
        <time>2019-08-16T06:26:45Z</time>
      </trkpt>
      <trkpt lat="41.9800300" lon="-6.0764560">
        <ele>746.6</ele>
        <time>2019-08-16T06:26:47Z</time>
      </trkpt>
      <trkpt lat="41.9800250" lon="-6.0765000">
        <ele>746.7</ele>
        <time>2019-08-16T06:26:49Z</time>
      </trkpt>
      <trkpt lat="41.9800340" lon="-6.0765410">
        <ele>746.8</ele>
        <time>2019-08-16T06:26:51Z</time>
      </trkpt>
      <trkpt lat="41.9800620" lon="-6.0765720">
        <ele>746.9</ele>
        <time>2019-08-16T06:26:53Z</time>
      </trkpt>
      <trkpt lat="41.9801090" lon="-6.0765850">
        <ele>747.1</ele>
        <time>2019-08-16T06:26:55Z</time>
      </trkpt>
      <trkpt lat="41.9801640" lon="-6.0765930">
        <ele>747.1</ele>
        <time>2019-08-16T06:26:57Z</time>
      </trkpt>
      <trkpt lat="41.9801950" lon="-6.0765970">
        <ele>747.1</ele>
        <time>2019-08-16T06:26:58Z</time>
      </trkpt>
      <trkpt lat="41.9802280" lon="-6.0766000">
        <ele>747.1</ele>
        <time>2019-08-16T06:26:59Z</time>
      </trkpt>
      <trkpt lat="41.9802630" lon="-6.0766030">
        <ele>747.2</ele>
        <time>2019-08-16T06:27:00Z</time>
      </trkpt>
      <trkpt lat="41.9803000" lon="-6.0766050">
        <ele>747.2</ele>
        <time>2019-08-16T06:27:01Z</time>
      </trkpt>
      <trkpt lat="41.9803390" lon="-6.0766070">
        <ele>747.2</ele>
        <time>2019-08-16T06:27:02Z</time>
      </trkpt>
      <trkpt lat="41.9803780" lon="-6.0766100">
        <ele>747.2</ele>
        <time>2019-08-16T06:27:03Z</time>
      </trkpt>
      <trkpt lat="41.9804170" lon="-6.0766120">
        <ele>747.3</ele>
        <time>2019-08-16T06:27:04Z</time>
      </trkpt>
      <trkpt lat="41.9804570" lon="-6.0766110">
        <ele>747.3</ele>
        <time>2019-08-16T06:27:05Z</time>
      </trkpt>
      <trkpt lat="41.9804980" lon="-6.0766100">
        <ele>747.3</ele>
        <time>2019-08-16T06:27:06Z</time>
      </trkpt>
      <trkpt lat="41.9805400" lon="-6.0766140">
        <ele>747.3</ele>
        <time>2019-08-16T06:27:07Z</time>
      </trkpt>
      <trkpt lat="41.9805830" lon="-6.0766250">
        <ele>747.4</ele>
        <time>2019-08-16T06:27:08Z</time>
      </trkpt>
      <trkpt lat="41.9806260" lon="-6.0766390">
        <ele>747.4</ele>
        <time>2019-08-16T06:27:09Z</time>
      </trkpt>
      <trkpt lat="41.9806690" lon="-6.0766560">
        <ele>747.4</ele>
        <time>2019-08-16T06:27:10Z</time>
      </trkpt>
      <trkpt lat="41.9807100" lon="-6.0766770">
        <ele>747.4</ele>
        <time>2019-08-16T06:27:11Z</time>
      </trkpt>
      <trkpt lat="41.9807480" lon="-6.0767020">
        <ele>747.4</ele>
        <time>2019-08-16T06:27:12Z</time>
      </trkpt>
      <trkpt lat="41.9807830" lon="-6.0767290">
        <ele>747.4</ele>
        <time>2019-08-16T06:27:13Z</time>
      </trkpt>
      <trkpt lat="41.9808150" lon="-6.0767570">
        <ele>747.4</ele>
        <time>2019-08-16T06:27:14Z</time>
      </trkpt>
      <trkpt lat="41.9808460" lon="-6.0767890">
        <ele>747.5</ele>
        <time>2019-08-16T06:27:15Z</time>
      </trkpt>
      <trkpt lat="41.9808750" lon="-6.0768260">
        <ele>747.5</ele>
        <time>2019-08-16T06:27:16Z</time>
      </trkpt>
      <trkpt lat="41.9809050" lon="-6.0768680">
        <ele>747.5</ele>
        <time>2019-08-16T06:27:17Z</time>
      </trkpt>
      <trkpt lat="41.9809320" lon="-6.0769130">
        <ele>747.5</ele>
        <time>2019-08-16T06:27:18Z</time>
      </trkpt>
      <trkpt lat="41.9809590" lon="-6.0769610">
        <ele>747.5</ele>
        <time>2019-08-16T06:27:19Z</time>
      </trkpt>
      <trkpt lat="41.9809840" lon="-6.0770090">
        <ele>747.5</ele>
        <time>2019-08-16T06:27:20Z</time>
      </trkpt>
      <trkpt lat="41.9810090" lon="-6.0770580">
        <ele>747.5</ele>
        <time>2019-08-16T06:27:21Z</time>
      </trkpt>
      <trkpt lat="41.9810370" lon="-6.0771020">
        <ele>747.5</ele>
        <time>2019-08-16T06:27:22Z</time>
      </trkpt>
      <trkpt lat="41.9810670" lon="-6.0771450">
        <ele>747.6</ele>
        <time>2019-08-16T06:27:23Z</time>
      </trkpt>
      <trkpt lat="41.9810950" lon="-6.0771910">
        <ele>747.6</ele>
        <time>2019-08-16T06:27:24Z</time>
      </trkpt>
      <trkpt lat="41.9811230" lon="-6.0772410">
        <ele>747.6</ele>
        <time>2019-08-16T06:27:25Z</time>
      </trkpt>
      <trkpt lat="41.9811520" lon="-6.0772900">
        <ele>747.6</ele>
        <time>2019-08-16T06:27:26Z</time>
      </trkpt>
      <trkpt lat="41.9811810" lon="-6.0773370">
        <ele>747.6</ele>
        <time>2019-08-16T06:27:27Z</time>
      </trkpt>
      <trkpt lat="41.9812110" lon="-6.0773820">
        <ele>747.6</ele>
        <time>2019-08-16T06:27:28Z</time>
      </trkpt>
      <trkpt lat="41.9812420" lon="-6.0774260">
        <ele>747.6</ele>
        <time>2019-08-16T06:27:29Z</time>
      </trkpt>
      <trkpt lat="41.9812740" lon="-6.0774700">
        <ele>747.6</ele>
        <time>2019-08-16T06:27:30Z</time>
      </trkpt>
      <trkpt lat="41.9813070" lon="-6.0775130">
        <ele>747.6</ele>
        <time>2019-08-16T06:27:31Z</time>
      </trkpt>
      <trkpt lat="41.9813420" lon="-6.0775550">
        <ele>747.6</ele>
        <time>2019-08-16T06:27:32Z</time>
      </trkpt>
      <trkpt lat="41.9813770" lon="-6.0775960">
        <ele>747.6</ele>
        <time>2019-08-16T06:27:33Z</time>
      </trkpt>
      <trkpt lat="41.9814140" lon="-6.0776360">
        <ele>747.6</ele>
        <time>2019-08-16T06:27:34Z</time>
      </trkpt>
      <trkpt lat="41.9814510" lon="-6.0776770">
        <ele>747.6</ele>
        <time>2019-08-16T06:27:35Z</time>
      </trkpt>
      <trkpt lat="41.9814890" lon="-6.0777170">
        <ele>747.6</ele>
        <time>2019-08-16T06:27:36Z</time>
      </trkpt>
      <trkpt lat="41.9815260" lon="-6.0777590">
        <ele>747.6</ele>
        <time>2019-08-16T06:27:37Z</time>
      </trkpt>
      <trkpt lat="41.9815630" lon="-6.0777990">
        <ele>747.6</ele>
        <time>2019-08-16T06:27:38Z</time>
      </trkpt>
      <trkpt lat="41.9815990" lon="-6.0778370">
        <ele>747.6</ele>
        <time>2019-08-16T06:27:39Z</time>
      </trkpt>
      <trkpt lat="41.9816350" lon="-6.0778740">
        <ele>747.6</ele>
        <time>2019-08-16T06:27:40Z</time>
      </trkpt>
      <trkpt lat="41.9816720" lon="-6.0779140">
        <ele>747.6</ele>
        <time>2019-08-16T06:27:41Z</time>
      </trkpt>
      <trkpt lat="41.9817100" lon="-6.0779560">
        <ele>747.6</ele>
        <time>2019-08-16T06:27:42Z</time>
      </trkpt>
      <trkpt lat="41.9817470" lon="-6.0779980">
        <ele>747.6</ele>
        <time>2019-08-16T06:27:43Z</time>
      </trkpt>
      <trkpt lat="41.9817840" lon="-6.0780400">
        <ele>747.6</ele>
        <time>2019-08-16T06:27:44Z</time>
      </trkpt>
      <trkpt lat="41.9818210" lon="-6.0780820">
        <ele>747.6</ele>
        <time>2019-08-16T06:27:45Z</time>
      </trkpt>
      <trkpt lat="41.9818580" lon="-6.0781240">
        <ele>747.6</ele>
        <time>2019-08-16T06:27:46Z</time>
      </trkpt>
      <trkpt lat="41.9818960" lon="-6.0781650">
        <ele>747.5</ele>
        <time>2019-08-16T06:27:47Z</time>
      </trkpt>
      <trkpt lat="41.9819320" lon="-6.0782060">
        <ele>747.5</ele>
        <time>2019-08-16T06:27:48Z</time>
      </trkpt>
      <trkpt lat="41.9819670" lon="-6.0782480">
        <ele>747.5</ele>
        <time>2019-08-16T06:27:49Z</time>
      </trkpt>
      <trkpt lat="41.9819990" lon="-6.0782900">
        <ele>747.5</ele>
        <time>2019-08-16T06:27:50Z</time>
      </trkpt>
      <trkpt lat="41.9820280" lon="-6.0783380">
        <ele>747.5</ele>
        <time>2019-08-16T06:27:51Z</time>
      </trkpt>
      <trkpt lat="41.9820550" lon="-6.0783910">
        <ele>747.5</ele>
        <time>2019-08-16T06:27:52Z</time>
      </trkpt>
      <trkpt lat="41.9820750" lon="-6.0784500">
        <ele>747.5</ele>
        <time>2019-08-16T06:27:53Z</time>
      </trkpt>
      <trkpt lat="41.9820870" lon="-6.0785130">
        <ele>747.6</ele>
        <time>2019-08-16T06:27:54Z</time>
      </trkpt>
      <trkpt lat="41.9820910" lon="-6.0785790">
        <ele>747.6</ele>
        <time>2019-08-16T06:27:55Z</time>
      </trkpt>
      <trkpt lat="41.9820880" lon="-6.0786460">
        <ele>747.6</ele>
        <time>2019-08-16T06:27:56Z</time>
      </trkpt>
      <trkpt lat="41.9820780" lon="-6.0787110">
        <ele>747.7</ele>
        <time>2019-08-16T06:27:57Z</time>
      </trkpt>
      <trkpt lat="41.9820660" lon="-6.0787750">
        <ele>747.7</ele>
        <time>2019-08-16T06:27:58Z</time>
      </trkpt>
      <trkpt lat="41.9820530" lon="-6.0788380">
        <ele>747.8</ele>
        <time>2019-08-16T06:27:59Z</time>
      </trkpt>
      <trkpt lat="41.9820410" lon="-6.0789010">
        <ele>747.8</ele>
        <time>2019-08-16T06:28:00Z</time>
      </trkpt>
      <trkpt lat="41.9820300" lon="-6.0789670">
        <ele>747.9</ele>
        <time>2019-08-16T06:28:01Z</time>
      </trkpt>
      <trkpt lat="41.9820230" lon="-6.0790340">
        <ele>747.9</ele>
        <time>2019-08-16T06:28:02Z</time>
      </trkpt>
      <trkpt lat="41.9820240" lon="-6.0791010">
        <ele>748.0</ele>
        <time>2019-08-16T06:28:03Z</time>
      </trkpt>
      <trkpt lat="41.9820360" lon="-6.0791650">
        <ele>748.0</ele>
        <time>2019-08-16T06:28:04Z</time>
      </trkpt>
      <trkpt lat="41.9820590" lon="-6.0792230">
        <ele>748.0</ele>
        <time>2019-08-16T06:28:05Z</time>
      </trkpt>
      <trkpt lat="41.9820910" lon="-6.0792720">
        <ele>748.0</ele>
        <time>2019-08-16T06:28:06Z</time>
      </trkpt>
      <trkpt lat="41.9821280" lon="-6.0793130">
        <ele>748.0</ele>
        <time>2019-08-16T06:28:07Z</time>
      </trkpt>
      <trkpt lat="41.9821660" lon="-6.0793520">
        <ele>748.0</ele>
        <time>2019-08-16T06:28:08Z</time>
      </trkpt>
      <trkpt lat="41.9822050" lon="-6.0793900">
        <ele>748.0</ele>
        <time>2019-08-16T06:28:09Z</time>
      </trkpt>
      <trkpt lat="41.9822430" lon="-6.0794270">
        <ele>748.0</ele>
        <time>2019-08-16T06:28:10Z</time>
      </trkpt>
      <trkpt lat="41.9822810" lon="-6.0794630">
        <ele>748.0</ele>
        <time>2019-08-16T06:28:11Z</time>
      </trkpt>
      <trkpt lat="41.9823190" lon="-6.0794990">
        <ele>748.0</ele>
        <time>2019-08-16T06:28:12Z</time>
      </trkpt>
      <trkpt lat="41.9823580" lon="-6.0795380">
        <ele>748.0</ele>
        <time>2019-08-16T06:28:13Z</time>
      </trkpt>
      <trkpt lat="41.9823980" lon="-6.0795770">
        <ele>748.0</ele>
        <time>2019-08-16T06:28:14Z</time>
      </trkpt>
      <trkpt lat="41.9824370" lon="-6.0796160">
        <ele>748.0</ele>
        <time>2019-08-16T06:28:15Z</time>
      </trkpt>
      <trkpt lat="41.9824750" lon="-6.0796550">
        <ele>748.0</ele>
        <time>2019-08-16T06:28:16Z</time>
      </trkpt>
      <trkpt lat="41.9825130" lon="-6.0796940">
        <ele>748.0</ele>
        <time>2019-08-16T06:28:17Z</time>
      </trkpt>
      <trkpt lat="41.9825480" lon="-6.0797330">
        <ele>748.0</ele>
        <time>2019-08-16T06:28:18Z</time>
      </trkpt>
      <trkpt lat="41.9825830" lon="-6.0797750">
        <ele>747.9</ele>
        <time>2019-08-16T06:28:19Z</time>
      </trkpt>
      <trkpt lat="41.9826130" lon="-6.0798240">
        <ele>747.9</ele>
        <time>2019-08-16T06:28:20Z</time>
      </trkpt>
      <trkpt lat="41.9826370" lon="-6.0798790">
        <ele>747.9</ele>
        <time>2019-08-16T06:28:21Z</time>
      </trkpt>
      <trkpt lat="41.9826510" lon="-6.0799400">
        <ele>747.9</ele>
        <time>2019-08-16T06:28:22Z</time>
      </trkpt>
      <trkpt lat="41.9826560" lon="-6.0800020">
        <ele>747.9</ele>
        <time>2019-08-16T06:28:23Z</time>
      </trkpt>
      <trkpt lat="41.9826540" lon="-6.0800660">
        <ele>747.9</ele>
        <time>2019-08-16T06:28:24Z</time>
      </trkpt>
      <trkpt lat="41.9826460" lon="-6.0801250">
        <ele>747.9</ele>
        <time>2019-08-16T06:28:25Z</time>
      </trkpt>
      <trkpt lat="41.9826340" lon="-6.0801830">
        <ele>747.9</ele>
        <time>2019-08-16T06:28:26Z</time>
      </trkpt>
      <trkpt lat="41.9826220" lon="-6.0802380">
        <ele>747.9</ele>
        <time>2019-08-16T06:28:27Z</time>
      </trkpt>
      <trkpt lat="41.9826090" lon="-6.0802900">
        <ele>747.9</ele>
        <time>2019-08-16T06:28:28Z</time>
      </trkpt>
      <trkpt lat="41.9825960" lon="-6.0803420">
        <ele>747.9</ele>
        <time>2019-08-16T06:28:29Z</time>
      </trkpt>
      <trkpt lat="41.9825820" lon="-6.0803940">
        <ele>747.9</ele>
        <time>2019-08-16T06:28:30Z</time>
      </trkpt>
      <trkpt lat="41.9825670" lon="-6.0804490">
        <ele>747.9</ele>
        <time>2019-08-16T06:28:31Z</time>
      </trkpt>
      <trkpt lat="41.9825530" lon="-6.0805030">
        <ele>747.9</ele>
        <time>2019-08-16T06:28:32Z</time>
      </trkpt>
      <trkpt lat="41.9825400" lon="-6.0805560">
        <ele>748.0</ele>
        <time>2019-08-16T06:28:33Z</time>
      </trkpt>
      <trkpt lat="41.9825270" lon="-6.0806090">
        <ele>748.0</ele>
        <time>2019-08-16T06:28:34Z</time>
      </trkpt>
      <trkpt lat="41.9825150" lon="-6.0806610">
        <ele>748.0</ele>
        <time>2019-08-16T06:28:35Z</time>
      </trkpt>
      <trkpt lat="41.9825020" lon="-6.0807110">
        <ele>748.0</ele>
        <time>2019-08-16T06:28:36Z</time>
      </trkpt>
      <trkpt lat="41.9824870" lon="-6.0807600">
        <ele>748.0</ele>
        <time>2019-08-16T06:28:37Z</time>
      </trkpt>
      <trkpt lat="41.9824700" lon="-6.0808080">
        <ele>748.0</ele>
        <time>2019-08-16T06:28:38Z</time>
      </trkpt>
      <trkpt lat="41.9824510" lon="-6.0808550">
        <ele>748.0</ele>
        <time>2019-08-16T06:28:39Z</time>
      </trkpt>
      <trkpt lat="41.9824300" lon="-6.0809010">
        <ele>748.0</ele>
        <time>2019-08-16T06:28:40Z</time>
      </trkpt>
      <trkpt lat="41.9824070" lon="-6.0809440">
        <ele>748.0</ele>
        <time>2019-08-16T06:28:41Z</time>
      </trkpt>
      <trkpt lat="41.9823800" lon="-6.0809850">
        <ele>748.0</ele>
        <time>2019-08-16T06:28:42Z</time>
      </trkpt>
      <trkpt lat="41.9823500" lon="-6.0810240">
        <ele>748.0</ele>
        <time>2019-08-16T06:28:43Z</time>
      </trkpt>
      <trkpt lat="41.9823170" lon="-6.0810590">
        <ele>748.0</ele>
        <time>2019-08-16T06:28:44Z</time>
      </trkpt>
      <trkpt lat="41.9822820" lon="-6.0810890">
        <ele>748.0</ele>
        <time>2019-08-16T06:28:45Z</time>
      </trkpt>
      <trkpt lat="41.9822470" lon="-6.0811160">
        <ele>748.0</ele>
        <time>2019-08-16T06:28:46Z</time>
      </trkpt>
      <trkpt lat="41.9822110" lon="-6.0811420">
        <ele>748.0</ele>
        <time>2019-08-16T06:28:47Z</time>
      </trkpt>
      <trkpt lat="41.9821760" lon="-6.0811650">
        <ele>748.0</ele>
        <time>2019-08-16T06:28:48Z</time>
      </trkpt>
      <trkpt lat="41.9821420" lon="-6.0811840">
        <ele>748.0</ele>
        <time>2019-08-16T06:28:49Z</time>
      </trkpt>
      <trkpt lat="41.9821080" lon="-6.0812040">
        <ele>748.0</ele>
        <time>2019-08-16T06:28:50Z</time>
      </trkpt>
      <trkpt lat="41.9820740" lon="-6.0812250">
        <ele>748.0</ele>
        <time>2019-08-16T06:28:51Z</time>
      </trkpt>
      <trkpt lat="41.9820390" lon="-6.0812430">
        <ele>748.0</ele>
        <time>2019-08-16T06:28:52Z</time>
      </trkpt>
      <trkpt lat="41.9820040" lon="-6.0812600">
        <ele>748.0</ele>
        <time>2019-08-16T06:28:53Z</time>
      </trkpt>
      <trkpt lat="41.9819680" lon="-6.0812760">
        <ele>748.0</ele>
        <time>2019-08-16T06:28:54Z</time>
      </trkpt>
      <trkpt lat="41.9819320" lon="-6.0812900">
        <ele>748.0</ele>
        <time>2019-08-16T06:28:55Z</time>
      </trkpt>
      <trkpt lat="41.9818960" lon="-6.0813050">
        <ele>748.1</ele>
        <time>2019-08-16T06:28:56Z</time>
      </trkpt>
      <trkpt lat="41.9818600" lon="-6.0813210">
        <ele>748.1</ele>
        <time>2019-08-16T06:28:57Z</time>
      </trkpt>
      <trkpt lat="41.9818240" lon="-6.0813400">
        <ele>748.1</ele>
        <time>2019-08-16T06:28:58Z</time>
      </trkpt>
      <trkpt lat="41.9817860" lon="-6.0813580">
        <ele>748.1</ele>
        <time>2019-08-16T06:28:59Z</time>
      </trkpt>
      <trkpt lat="41.9817460" lon="-6.0813730">
        <ele>748.2</ele>
        <time>2019-08-16T06:29:00Z</time>
      </trkpt>
      <trkpt lat="41.9817070" lon="-6.0813840">
        <ele>748.2</ele>
        <time>2019-08-16T06:29:01Z</time>
      </trkpt>
      <trkpt lat="41.9816660" lon="-6.0813930">
        <ele>748.2</ele>
        <time>2019-08-16T06:29:02Z</time>
      </trkpt>
      <trkpt lat="41.9816260" lon="-6.0814040">
        <ele>748.3</ele>
        <time>2019-08-16T06:29:03Z</time>
      </trkpt>
      <trkpt lat="41.9815870" lon="-6.0814150">
        <ele>748.3</ele>
        <time>2019-08-16T06:29:04Z</time>
      </trkpt>
      <trkpt lat="41.9815520" lon="-6.0814310">
        <ele>748.3</ele>
        <time>2019-08-16T06:29:05Z</time>
      </trkpt>
      <trkpt lat="41.9815240" lon="-6.0814510">
        <ele>748.4</ele>
        <time>2019-08-16T06:29:06Z</time>
      </trkpt>
      <trkpt lat="41.9814990" lon="-6.0814690">
        <ele>748.4</ele>
        <time>2019-08-16T06:29:07Z</time>
      </trkpt>
      <trkpt lat="41.9814560" lon="-6.0815010">
        <ele>748.5</ele>
        <time>2019-08-16T06:29:09Z</time>
      </trkpt>
      <trkpt lat="41.9814160" lon="-6.0815200">
        <ele>748.5</ele>
        <time>2019-08-16T06:29:11Z</time>
      </trkpt>
      <trkpt lat="41.9813600" lon="-6.0815360">
        <ele>748.7</ele>
        <time>2019-08-16T06:29:13Z</time>
      </trkpt>
      <trkpt lat="41.9813270" lon="-6.0815440">
        <ele>748.7</ele>
        <time>2019-08-16T06:29:14Z</time>
      </trkpt>
      <trkpt lat="41.9812930" lon="-6.0815520">
        <ele>748.8</ele>
        <time>2019-08-16T06:29:15Z</time>
      </trkpt>
      <trkpt lat="41.9812580" lon="-6.0815610">
        <ele>748.9</ele>
        <time>2019-08-16T06:29:16Z</time>
      </trkpt>
      <trkpt lat="41.9812210" lon="-6.0815730">
        <ele>749.0</ele>
        <time>2019-08-16T06:29:17Z</time>
      </trkpt>
      <trkpt lat="41.9811840" lon="-6.0815850">
        <ele>749.1</ele>
        <time>2019-08-16T06:29:18Z</time>
      </trkpt>
      <trkpt lat="41.9811470" lon="-6.0815950">
        <ele>749.3</ele>
        <time>2019-08-16T06:29:19Z</time>
      </trkpt>
      <trkpt lat="41.9811100" lon="-6.0816050">
        <ele>749.4</ele>
        <time>2019-08-16T06:29:20Z</time>
      </trkpt>
      <trkpt lat="41.9810750" lon="-6.0816150">
        <ele>749.5</ele>
        <time>2019-08-16T06:29:21Z</time>
      </trkpt>
      <trkpt lat="41.9810400" lon="-6.0816250">
        <ele>749.6</ele>
        <time>2019-08-16T06:29:22Z</time>
      </trkpt>
      <trkpt lat="41.9810050" lon="-6.0816350">
        <ele>749.7</ele>
        <time>2019-08-16T06:29:23Z</time>
      </trkpt>
      <trkpt lat="41.9809710" lon="-6.0816420">
        <ele>749.8</ele>
        <time>2019-08-16T06:29:24Z</time>
      </trkpt>
      <trkpt lat="41.9809340" lon="-6.0816520">
        <ele>749.9</ele>
        <time>2019-08-16T06:29:25Z</time>
      </trkpt>
      <trkpt lat="41.9808950" lon="-6.0816640">
        <ele>750.0</ele>
        <time>2019-08-16T06:29:26Z</time>
      </trkpt>
      <trkpt lat="41.9808560" lon="-6.0816760">
        <ele>750.1</ele>
        <time>2019-08-16T06:29:27Z</time>
      </trkpt>
      <trkpt lat="41.9808170" lon="-6.0816880">
        <ele>750.1</ele>
        <time>2019-08-16T06:29:28Z</time>
      </trkpt>
      <trkpt lat="41.9807770" lon="-6.0817010">
        <ele>750.2</ele>
        <time>2019-08-16T06:29:29Z</time>
      </trkpt>
      <trkpt lat="41.9807360" lon="-6.0817120">
        <ele>750.3</ele>
        <time>2019-08-16T06:29:30Z</time>
      </trkpt>
      <trkpt lat="41.9806970" lon="-6.0817220">
        <ele>750.4</ele>
        <time>2019-08-16T06:29:31Z</time>
      </trkpt>
      <trkpt lat="41.9806580" lon="-6.0817330">
        <ele>750.5</ele>
        <time>2019-08-16T06:29:32Z</time>
      </trkpt>
      <trkpt lat="41.9806200" lon="-6.0817430">
        <ele>750.6</ele>
        <time>2019-08-16T06:29:33Z</time>
      </trkpt>
      <trkpt lat="41.9805820" lon="-6.0817540">
        <ele>750.7</ele>
        <time>2019-08-16T06:29:34Z</time>
      </trkpt>
      <trkpt lat="41.9805440" lon="-6.0817660">
        <ele>750.8</ele>
        <time>2019-08-16T06:29:35Z</time>
      </trkpt>
      <trkpt lat="41.9805070" lon="-6.0817760">
        <ele>750.9</ele>
        <time>2019-08-16T06:29:36Z</time>
      </trkpt>
      <trkpt lat="41.9804700" lon="-6.0817850">
        <ele>751.1</ele>
        <time>2019-08-16T06:29:37Z</time>
      </trkpt>
      <trkpt lat="41.9804320" lon="-6.0817920">
        <ele>751.3</ele>
        <time>2019-08-16T06:29:38Z</time>
      </trkpt>
      <trkpt lat="41.9803960" lon="-6.0818010">
        <ele>751.4</ele>
        <time>2019-08-16T06:29:39Z</time>
      </trkpt>
      <trkpt lat="41.9803610" lon="-6.0818110">
        <ele>751.5</ele>
        <time>2019-08-16T06:29:40Z</time>
      </trkpt>
      <trkpt lat="41.9803250" lon="-6.0818210">
        <ele>751.7</ele>
        <time>2019-08-16T06:29:41Z</time>
      </trkpt>
      <trkpt lat="41.9802900" lon="-6.0818320">
        <ele>751.8</ele>
        <time>2019-08-16T06:29:42Z</time>
      </trkpt>
      <trkpt lat="41.9802560" lon="-6.0818430">
        <ele>751.9</ele>
        <time>2019-08-16T06:29:43Z</time>
      </trkpt>
      <trkpt lat="41.9802220" lon="-6.0818520">
        <ele>752.0</ele>
        <time>2019-08-16T06:29:44Z</time>
      </trkpt>
      <trkpt lat="41.9801870" lon="-6.0818610">
        <ele>752.2</ele>
        <time>2019-08-16T06:29:45Z</time>
      </trkpt>
      <trkpt lat="41.9801540" lon="-6.0818700">
        <ele>752.4</ele>
        <time>2019-08-16T06:29:46Z</time>
      </trkpt>
      <trkpt lat="41.9801200" lon="-6.0818800">
        <ele>752.6</ele>
        <time>2019-08-16T06:29:47Z</time>
      </trkpt>
      <trkpt lat="41.9800850" lon="-6.0818890">
        <ele>752.7</ele>
        <time>2019-08-16T06:29:48Z</time>
      </trkpt>
      <trkpt lat="41.9800510" lon="-6.0818980">
        <ele>752.8</ele>
        <time>2019-08-16T06:29:49Z</time>
      </trkpt>
      <trkpt lat="41.9800170" lon="-6.0819050">
        <ele>752.9</ele>
        <time>2019-08-16T06:29:50Z</time>
      </trkpt>
      <trkpt lat="41.9799830" lon="-6.0819120">
        <ele>753.1</ele>
        <time>2019-08-16T06:29:51Z</time>
      </trkpt>
      <trkpt lat="41.9799500" lon="-6.0819200">
        <ele>753.2</ele>
        <time>2019-08-16T06:29:52Z</time>
      </trkpt>
      <trkpt lat="41.9799180" lon="-6.0819300">
        <ele>753.3</ele>
        <time>2019-08-16T06:29:53Z</time>
      </trkpt>
      <trkpt lat="41.9798890" lon="-6.0819380">
        <ele>753.5</ele>
        <time>2019-08-16T06:29:54Z</time>
      </trkpt>
      <trkpt lat="41.9798630" lon="-6.0819480">
        <ele>753.7</ele>
        <time>2019-08-16T06:29:55Z</time>
      </trkpt>
      <trkpt lat="41.9798190" lon="-6.0819750">
        <ele>753.9</ele>
        <time>2019-08-16T06:29:57Z</time>
      </trkpt>
      <trkpt lat="41.9797820" lon="-6.0819990">
        <ele>754.1</ele>
        <time>2019-08-16T06:29:59Z</time>
      </trkpt>
      <trkpt lat="41.9797390" lon="-6.0820120">
        <ele>754.3</ele>
        <time>2019-08-16T06:30:01Z</time>
      </trkpt>
      <trkpt lat="41.9796890" lon="-6.0820160">
        <ele>754.5</ele>
        <time>2019-08-16T06:30:03Z</time>
      </trkpt>
      <trkpt lat="41.9796340" lon="-6.0820120">
        <ele>754.7</ele>
        <time>2019-08-16T06:30:05Z</time>
      </trkpt>
      <trkpt lat="41.9796050" lon="-6.0820080">
        <ele>754.9</ele>
        <time>2019-08-16T06:30:06Z</time>
      </trkpt>
      <trkpt lat="41.9795760" lon="-6.0820060">
        <ele>755.0</ele>
        <time>2019-08-16T06:30:07Z</time>
      </trkpt>
      <trkpt lat="41.9795460" lon="-6.0820070">
        <ele>755.1</ele>
        <time>2019-08-16T06:30:08Z</time>
      </trkpt>
      <trkpt lat="41.9795170" lon="-6.0820110">
        <ele>755.2</ele>
        <time>2019-08-16T06:30:09Z</time>
      </trkpt>
      <trkpt lat="41.9794880" lon="-6.0820100">
        <ele>755.5</ele>
        <time>2019-08-16T06:30:10Z</time>
      </trkpt>
      <trkpt lat="41.9794590" lon="-6.0820070">
        <ele>755.6</ele>
        <time>2019-08-16T06:30:11Z</time>
      </trkpt>
      <trkpt lat="41.9794290" lon="-6.0820020">
        <ele>755.7</ele>
        <time>2019-08-16T06:30:12Z</time>
      </trkpt>
      <trkpt lat="41.9793990" lon="-6.0819980">
        <ele>755.8</ele>
        <time>2019-08-16T06:30:13Z</time>
      </trkpt>
      <trkpt lat="41.9793690" lon="-6.0819960">
        <ele>755.9</ele>
        <time>2019-08-16T06:30:14Z</time>
      </trkpt>
      <trkpt lat="41.9793390" lon="-6.0819950">
        <ele>756.0</ele>
        <time>2019-08-16T06:30:15Z</time>
      </trkpt>
      <trkpt lat="41.9793070" lon="-6.0819960">
        <ele>756.1</ele>
        <time>2019-08-16T06:30:16Z</time>
      </trkpt>
      <trkpt lat="41.9792770" lon="-6.0819980">
        <ele>756.2</ele>
        <time>2019-08-16T06:30:17Z</time>
      </trkpt>
      <trkpt lat="41.9792470" lon="-6.0820020">
        <ele>756.3</ele>
        <time>2019-08-16T06:30:18Z</time>
      </trkpt>
      <trkpt lat="41.9792170" lon="-6.0820070">
        <ele>756.4</ele>
        <time>2019-08-16T06:30:19Z</time>
      </trkpt>
      <trkpt lat="41.9791870" lon="-6.0820130">
        <ele>756.5</ele>
        <time>2019-08-16T06:30:20Z</time>
      </trkpt>
      <trkpt lat="41.9791570" lon="-6.0820190">
        <ele>756.6</ele>
        <time>2019-08-16T06:30:21Z</time>
      </trkpt>
      <trkpt lat="41.9791280" lon="-6.0820250">
        <ele>756.7</ele>
        <time>2019-08-16T06:30:22Z</time>
      </trkpt>
      <trkpt lat="41.9791000" lon="-6.0820290">
        <ele>757.0</ele>
        <time>2019-08-16T06:30:23Z</time>
      </trkpt>
      <trkpt lat="41.9790510" lon="-6.0820400">
        <ele>757.0</ele>
        <time>2019-08-16T06:30:25Z</time>
      </trkpt>
      <trkpt lat="41.9790130" lon="-6.0820500">
        <ele>757.1</ele>
        <time>2019-08-16T06:30:27Z</time>
      </trkpt>
      <trkpt lat="41.9789700" lon="-6.0820510">
        <ele>757.1</ele>
        <time>2019-08-16T06:30:29Z</time>
      </trkpt>
      <trkpt lat="41.9789210" lon="-6.0820430">
        <ele>757.2</ele>
        <time>2019-08-16T06:30:31Z</time>
      </trkpt>
      <trkpt lat="41.9788690" lon="-6.0820280">
        <ele>757.3</ele>
        <time>2019-08-16T06:30:33Z</time>
      </trkpt>
      <trkpt lat="41.9788200" lon="-6.0820170">
        <ele>757.4</ele>
        <time>2019-08-16T06:30:35Z</time>
      </trkpt>
      <trkpt lat="41.9787730" lon="-6.0820080">
        <ele>757.4</ele>
        <time>2019-08-16T06:30:37Z</time>
      </trkpt>
      <trkpt lat="41.9787240" lon="-6.0819880">
        <ele>757.5</ele>
        <time>2019-08-16T06:30:39Z</time>
      </trkpt>
      <trkpt lat="41.9786970" lon="-6.0819790">
        <ele>757.5</ele>
        <time>2019-08-16T06:30:40Z</time>
      </trkpt>
      <trkpt lat="41.9786460" lon="-6.0819600">
        <ele>757.6</ele>
        <time>2019-08-16T06:30:42Z</time>
      </trkpt>
      <trkpt lat="41.9786180" lon="-6.0819520">
        <ele>757.6</ele>
        <time>2019-08-16T06:30:43Z</time>
      </trkpt>
      <trkpt lat="41.9785900" lon="-6.0819460">
        <ele>757.6</ele>
        <time>2019-08-16T06:30:44Z</time>
      </trkpt>
      <trkpt lat="41.9785600" lon="-6.0819410">
        <ele>757.6</ele>
        <time>2019-08-16T06:30:45Z</time>
      </trkpt>
      <trkpt lat="41.9785310" lon="-6.0819340">
        <ele>757.7</ele>
        <time>2019-08-16T06:30:46Z</time>
      </trkpt>
      <trkpt lat="41.9785010" lon="-6.0819270">
        <ele>757.7</ele>
        <time>2019-08-16T06:30:47Z</time>
      </trkpt>
      <trkpt lat="41.9784700" lon="-6.0819200">
        <ele>757.7</ele>
        <time>2019-08-16T06:30:48Z</time>
      </trkpt>
      <trkpt lat="41.9784380" lon="-6.0819130">
        <ele>757.8</ele>
        <time>2019-08-16T06:30:49Z</time>
      </trkpt>
      <trkpt lat="41.9784060" lon="-6.0819070">
        <ele>757.8</ele>
        <time>2019-08-16T06:30:50Z</time>
      </trkpt>
      <trkpt lat="41.9783730" lon="-6.0819030">
        <ele>757.8</ele>
        <time>2019-08-16T06:30:51Z</time>
      </trkpt>
      <trkpt lat="41.9783430" lon="-6.0819000">
        <ele>757.9</ele>
        <time>2019-08-16T06:30:52Z</time>
      </trkpt>
      <trkpt lat="41.9783150" lon="-6.0819060">
        <ele>757.9</ele>
        <time>2019-08-16T06:30:53Z</time>
      </trkpt>
      <trkpt lat="41.9782750" lon="-6.0819490">
        <ele>757.9</ele>
        <time>2019-08-16T06:30:55Z</time>
      </trkpt>
      <trkpt lat="41.9782440" lon="-6.0820060">
        <ele>757.9</ele>
        <time>2019-08-16T06:30:57Z</time>
      </trkpt>
      <trkpt lat="41.9782250" lon="-6.0820560">
        <ele>758.0</ele>
        <time>2019-08-16T06:30:59Z</time>
      </trkpt>
      <trkpt lat="41.9782020" lon="-6.0820860">
        <ele>758.0</ele>
        <time>2019-08-16T06:31:01Z</time>
      </trkpt>
      <trkpt lat="41.9781670" lon="-6.0820920">
        <ele>758.0</ele>
        <time>2019-08-16T06:31:04Z</time>
      </trkpt>
      <trkpt lat="41.9781840" lon="-6.0820510">
        <ele>758.0</ele>
        <time>2019-08-16T06:31:07Z</time>
      </trkpt>
      <trkpt lat="41.9782120" lon="-6.0820570">
        <ele>757.9</ele>
        <time>2019-08-16T06:31:09Z</time>
      </trkpt>
      <trkpt lat="41.9782460" lon="-6.0820790">
        <ele>757.8</ele>
        <time>2019-08-16T06:31:11Z</time>
      </trkpt>
      <trkpt lat="41.9782860" lon="-6.0820970">
        <ele>757.8</ele>
        <time>2019-08-16T06:31:13Z</time>
      </trkpt>
      <trkpt lat="41.9783240" lon="-6.0821270">
        <ele>757.7</ele>
        <time>2019-08-16T06:31:15Z</time>
      </trkpt>
      <trkpt lat="41.9783610" lon="-6.0821740">
        <ele>757.7</ele>
        <time>2019-08-16T06:31:17Z</time>
      </trkpt>
      <trkpt lat="41.9783810" lon="-6.0822020">
        <ele>757.6</ele>
        <time>2019-08-16T06:31:18Z</time>
      </trkpt>
      <trkpt lat="41.9784020" lon="-6.0822310">
        <ele>757.6</ele>
        <time>2019-08-16T06:31:19Z</time>
      </trkpt>
      <trkpt lat="41.9784230" lon="-6.0822610">
        <ele>757.6</ele>
        <time>2019-08-16T06:31:20Z</time>
      </trkpt>
      <trkpt lat="41.9784440" lon="-6.0822920">
        <ele>757.5</ele>
        <time>2019-08-16T06:31:21Z</time>
      </trkpt>
      <trkpt lat="41.9784650" lon="-6.0823200">
        <ele>757.5</ele>
        <time>2019-08-16T06:31:22Z</time>
      </trkpt>
      <trkpt lat="41.9784840" lon="-6.0823460">
        <ele>757.5</ele>
        <time>2019-08-16T06:31:23Z</time>
      </trkpt>
      <trkpt lat="41.9785170" lon="-6.0823930">
        <ele>757.5</ele>
        <time>2019-08-16T06:31:25Z</time>
      </trkpt>
      <trkpt lat="41.9785540" lon="-6.0824430">
        <ele>757.4</ele>
        <time>2019-08-16T06:31:27Z</time>
      </trkpt>
      <trkpt lat="41.9785800" lon="-6.0824700">
        <ele>757.4</ele>
        <time>2019-08-16T06:31:28Z</time>
      </trkpt>
      <trkpt lat="41.9786080" lon="-6.0824960">
        <ele>757.3</ele>
        <time>2019-08-16T06:31:29Z</time>
      </trkpt>
      <trkpt lat="41.9786380" lon="-6.0825230">
        <ele>757.3</ele>
        <time>2019-08-16T06:31:30Z</time>
      </trkpt>
      <trkpt lat="41.9786700" lon="-6.0825510">
        <ele>757.2</ele>
        <time>2019-08-16T06:31:31Z</time>
      </trkpt>
      <trkpt lat="41.9787030" lon="-6.0825800">
        <ele>757.2</ele>
        <time>2019-08-16T06:31:32Z</time>
      </trkpt>
      <trkpt lat="41.9787350" lon="-6.0826100">
        <ele>757.2</ele>
        <time>2019-08-16T06:31:33Z</time>
      </trkpt>
      <trkpt lat="41.9787670" lon="-6.0826400">
        <ele>757.1</ele>
        <time>2019-08-16T06:31:34Z</time>
      </trkpt>
      <trkpt lat="41.9787970" lon="-6.0826660">
        <ele>757.0</ele>
        <time>2019-08-16T06:31:35Z</time>
      </trkpt>
      <trkpt lat="41.9788250" lon="-6.0826930">
        <ele>757.0</ele>
        <time>2019-08-16T06:31:36Z</time>
      </trkpt>
      <trkpt lat="41.9788480" lon="-6.0827240">
        <ele>756.9</ele>
        <time>2019-08-16T06:31:37Z</time>
      </trkpt>
      <trkpt lat="41.9788700" lon="-6.0827580">
        <ele>756.7</ele>
        <time>2019-08-16T06:31:38Z</time>
      </trkpt>
      <trkpt lat="41.9788930" lon="-6.0827920">
        <ele>756.6</ele>
        <time>2019-08-16T06:31:39Z</time>
      </trkpt>
      <trkpt lat="41.9789190" lon="-6.0828230">
        <ele>756.3</ele>
        <time>2019-08-16T06:31:40Z</time>
      </trkpt>
      <trkpt lat="41.9789470" lon="-6.0828500">
        <ele>756.1</ele>
        <time>2019-08-16T06:31:41Z</time>
      </trkpt>
      <trkpt lat="41.9789780" lon="-6.0828750">
        <ele>756.1</ele>
        <time>2019-08-16T06:31:42Z</time>
      </trkpt>
      <trkpt lat="41.9790100" lon="-6.0828990">
        <ele>756.1</ele>
        <time>2019-08-16T06:31:43Z</time>
      </trkpt>
      <trkpt lat="41.9790430" lon="-6.0829250">
        <ele>755.7</ele>
        <time>2019-08-16T06:31:44Z</time>
      </trkpt>
      <trkpt lat="41.9790790" lon="-6.0829470">
        <ele>755.4</ele>
        <time>2019-08-16T06:31:45Z</time>
      </trkpt>
      <trkpt lat="41.9791160" lon="-6.0829630">
        <ele>754.9</ele>
        <time>2019-08-16T06:31:46Z</time>
      </trkpt>
      <trkpt lat="41.9791540" lon="-6.0829720">
        <ele>754.6</ele>
        <time>2019-08-16T06:31:47Z</time>
      </trkpt>
      <trkpt lat="41.9791920" lon="-6.0829790">
        <ele>754.3</ele>
        <time>2019-08-16T06:31:48Z</time>
      </trkpt>
      <trkpt lat="41.9792300" lon="-6.0829850">
        <ele>753.9</ele>
        <time>2019-08-16T06:31:49Z</time>
      </trkpt>
      <trkpt lat="41.9792690" lon="-6.0829890">
        <ele>753.6</ele>
        <time>2019-08-16T06:31:50Z</time>
      </trkpt>
      <trkpt lat="41.9793080" lon="-6.0829960">
        <ele>753.3</ele>
        <time>2019-08-16T06:31:51Z</time>
      </trkpt>
      <trkpt lat="41.9793480" lon="-6.0830030">
        <ele>753.1</ele>
        <time>2019-08-16T06:31:52Z</time>
      </trkpt>
      <trkpt lat="41.9793880" lon="-6.0830080">
        <ele>752.8</ele>
        <time>2019-08-16T06:31:53Z</time>
      </trkpt>
      <trkpt lat="41.9794290" lon="-6.0830100">
        <ele>752.6</ele>
        <time>2019-08-16T06:31:54Z</time>
      </trkpt>
      <trkpt lat="41.9794700" lon="-6.0830110">
        <ele>752.4</ele>
        <time>2019-08-16T06:31:55Z</time>
      </trkpt>
      <trkpt lat="41.9795110" lon="-6.0830060">
        <ele>752.2</ele>
        <time>2019-08-16T06:31:56Z</time>
      </trkpt>
      <trkpt lat="41.9795530" lon="-6.0829950">
        <ele>752.1</ele>
        <time>2019-08-16T06:31:57Z</time>
      </trkpt>
      <trkpt lat="41.9795950" lon="-6.0829840">
        <ele>751.9</ele>
        <time>2019-08-16T06:31:58Z</time>
      </trkpt>
      <trkpt lat="41.9796360" lon="-6.0829740">
        <ele>751.7</ele>
        <time>2019-08-16T06:31:59Z</time>
      </trkpt>
      <trkpt lat="41.9796780" lon="-6.0829660">
        <ele>751.6</ele>
        <time>2019-08-16T06:32:00Z</time>
      </trkpt>
      <trkpt lat="41.9797200" lon="-6.0829550">
        <ele>751.4</ele>
        <time>2019-08-16T06:32:01Z</time>
      </trkpt>
      <trkpt lat="41.9797630" lon="-6.0829390">
        <ele>751.2</ele>
        <time>2019-08-16T06:32:02Z</time>
      </trkpt>
      <trkpt lat="41.9798060" lon="-6.0829210">
        <ele>751.1</ele>
        <time>2019-08-16T06:32:03Z</time>
      </trkpt>
      <trkpt lat="41.9798470" lon="-6.0829020">
        <ele>751.2</ele>
        <time>2019-08-16T06:32:04Z</time>
      </trkpt>
      <trkpt lat="41.9798870" lon="-6.0828840">
        <ele>751.2</ele>
        <time>2019-08-16T06:32:05Z</time>
      </trkpt>
      <trkpt lat="41.9799240" lon="-6.0828700">
        <ele>751.1</ele>
        <time>2019-08-16T06:32:06Z</time>
      </trkpt>
      <trkpt lat="41.9799610" lon="-6.0828590">
        <ele>751.0</ele>
        <time>2019-08-16T06:32:07Z</time>
      </trkpt>
      <trkpt lat="41.9799960" lon="-6.0828530">
        <ele>751.0</ele>
        <time>2019-08-16T06:32:08Z</time>
      </trkpt>
      <trkpt lat="41.9800330" lon="-6.0828490">
        <ele>750.9</ele>
        <time>2019-08-16T06:32:09Z</time>
      </trkpt>
      <trkpt lat="41.9800700" lon="-6.0828420">
        <ele>750.8</ele>
        <time>2019-08-16T06:32:10Z</time>
      </trkpt>
      <trkpt lat="41.9801070" lon="-6.0828400">
        <ele>750.8</ele>
        <time>2019-08-16T06:32:11Z</time>
      </trkpt>
      <trkpt lat="41.9801410" lon="-6.0828420">
        <ele>750.7</ele>
        <time>2019-08-16T06:32:12Z</time>
      </trkpt>
      <trkpt lat="41.9801740" lon="-6.0828440">
        <ele>750.6</ele>
        <time>2019-08-16T06:32:13Z</time>
      </trkpt>
      <trkpt lat="41.9802070" lon="-6.0828460">
        <ele>750.6</ele>
        <time>2019-08-16T06:32:14Z</time>
      </trkpt>
      <trkpt lat="41.9802400" lon="-6.0828490">
        <ele>750.6</ele>
        <time>2019-08-16T06:32:15Z</time>
      </trkpt>
      <trkpt lat="41.9802730" lon="-6.0828510">
        <ele>750.6</ele>
        <time>2019-08-16T06:32:16Z</time>
      </trkpt>
      <trkpt lat="41.9803050" lon="-6.0828520">
        <ele>750.6</ele>
        <time>2019-08-16T06:32:17Z</time>
      </trkpt>
      <trkpt lat="41.9803360" lon="-6.0828490">
        <ele>750.6</ele>
        <time>2019-08-16T06:32:18Z</time>
      </trkpt>
      <trkpt lat="41.9803640" lon="-6.0828410">
        <ele>750.6</ele>
        <time>2019-08-16T06:32:19Z</time>
      </trkpt>
      <trkpt lat="41.9803920" lon="-6.0828290">
        <ele>750.6</ele>
        <time>2019-08-16T06:32:20Z</time>
      </trkpt>
      <trkpt lat="41.9804170" lon="-6.0828120">
        <ele>750.6</ele>
        <time>2019-08-16T06:32:21Z</time>
      </trkpt>
      <trkpt lat="41.9804410" lon="-6.0827870">
        <ele>750.6</ele>
        <time>2019-08-16T06:32:22Z</time>
      </trkpt>
      <trkpt lat="41.9804650" lon="-6.0827570">
        <ele>750.6</ele>
        <time>2019-08-16T06:32:23Z</time>
      </trkpt>
      <trkpt lat="41.9804920" lon="-6.0827260">
        <ele>750.5</ele>
        <time>2019-08-16T06:32:24Z</time>
      </trkpt>
      <trkpt lat="41.9805210" lon="-6.0826940">
        <ele>750.5</ele>
        <time>2019-08-16T06:32:25Z</time>
      </trkpt>
      <trkpt lat="41.9805510" lon="-6.0826630">
        <ele>750.5</ele>
        <time>2019-08-16T06:32:26Z</time>
      </trkpt>
      <trkpt lat="41.9805830" lon="-6.0826320">
        <ele>750.5</ele>
        <time>2019-08-16T06:32:27Z</time>
      </trkpt>
      <trkpt lat="41.9806160" lon="-6.0825990">
        <ele>750.5</ele>
        <time>2019-08-16T06:32:28Z</time>
      </trkpt>
      <trkpt lat="41.9806490" lon="-6.0825640">
        <ele>750.5</ele>
        <time>2019-08-16T06:32:29Z</time>
      </trkpt>
      <trkpt lat="41.9806820" lon="-6.0825310">
        <ele>750.4</ele>
        <time>2019-08-16T06:32:30Z</time>
      </trkpt>
      <trkpt lat="41.9807140" lon="-6.0824990">
        <ele>750.4</ele>
        <time>2019-08-16T06:32:31Z</time>
      </trkpt>
      <trkpt lat="41.9807480" lon="-6.0824690">
        <ele>750.3</ele>
        <time>2019-08-16T06:32:32Z</time>
      </trkpt>
      <trkpt lat="41.9807810" lon="-6.0824430">
        <ele>750.3</ele>
        <time>2019-08-16T06:32:33Z</time>
      </trkpt>
      <trkpt lat="41.9808130" lon="-6.0824190">
        <ele>750.2</ele>
        <time>2019-08-16T06:32:34Z</time>
      </trkpt>
      <trkpt lat="41.9808440" lon="-6.0823980">
        <ele>750.1</ele>
        <time>2019-08-16T06:32:35Z</time>
      </trkpt>
      <trkpt lat="41.9808720" lon="-6.0823780">
        <ele>750.1</ele>
        <time>2019-08-16T06:32:36Z</time>
      </trkpt>
      <trkpt lat="41.9808960" lon="-6.0823610">
        <ele>750.0</ele>
        <time>2019-08-16T06:32:37Z</time>
      </trkpt>
      <trkpt lat="41.9809350" lon="-6.0823300">
        <ele>749.9</ele>
        <time>2019-08-16T06:32:39Z</time>
      </trkpt>
      <trkpt lat="41.9809760" lon="-6.0822920">
        <ele>749.9</ele>
        <time>2019-08-16T06:32:41Z</time>
      </trkpt>
      <trkpt lat="41.9810090" lon="-6.0822580">
        <ele>749.9</ele>
        <time>2019-08-16T06:32:43Z</time>
      </trkpt>
      <trkpt lat="41.9810290" lon="-6.0822230">
        <ele>749.9</ele>
        <time>2019-08-16T06:32:45Z</time>
      </trkpt>
      <trkpt lat="41.9810360" lon="-6.0821800">
        <ele>749.9</ele>
        <time>2019-08-16T06:32:47Z</time>
      </trkpt>
      <trkpt lat="41.9810670" lon="-6.0821870">
        <ele>749.9</ele>
        <time>2019-08-16T06:32:50Z</time>
      </trkpt>
      <trkpt lat="41.9810680" lon="-6.0822320">
        <ele>749.9</ele>
        <time>2019-08-16T06:32:53Z</time>
      </trkpt>
      <trkpt lat="41.9810410" lon="-6.0822620">
        <ele>749.9</ele>
        <time>2019-08-16T06:32:56Z</time>
      </trkpt>
      <trkpt lat="41.9810040" lon="-6.0822440">
        <ele>750.0</ele>
        <time>2019-08-16T06:32:59Z</time>
      </trkpt>
      <trkpt lat="41.9809730" lon="-6.0822300">
        <ele>750.0</ele>
        <time>2019-08-16T06:33:01Z</time>
      </trkpt>
      <trkpt lat="41.9809400" lon="-6.0822300">
        <ele>750.0</ele>
        <time>2019-08-16T06:33:03Z</time>
      </trkpt>
      <trkpt lat="41.9809090" lon="-6.0822370">
        <ele>750.1</ele>
        <time>2019-08-16T06:33:05Z</time>
      </trkpt>
      <trkpt lat="41.9808810" lon="-6.0822530">
        <ele>750.1</ele>
        <time>2019-08-16T06:33:07Z</time>
      </trkpt>
      <trkpt lat="41.9808480" lon="-6.0822640">
        <ele>750.1</ele>
        <time>2019-08-16T06:33:09Z</time>
      </trkpt>
      <trkpt lat="41.9808120" lon="-6.0822710">
        <ele>750.1</ele>
        <time>2019-08-16T06:33:11Z</time>
      </trkpt>
      <trkpt lat="41.9807820" lon="-6.0822690">
        <ele>750.1</ele>
        <time>2019-08-16T06:33:13Z</time>
      </trkpt>
      <trkpt lat="41.9807840" lon="-6.0823220">
        <ele>750.1</ele>
        <time>2019-08-16T06:33:31Z</time>
      </trkpt>
      <trkpt lat="41.9808200" lon="-6.0823150">
        <ele>750.1</ele>
        <time>2019-08-16T06:33:33Z</time>
      </trkpt>
      <trkpt lat="41.9808720" lon="-6.0822930">
        <ele>750.2</ele>
        <time>2019-08-16T06:33:35Z</time>
      </trkpt>
      <trkpt lat="41.9809000" lon="-6.0822980">
        <ele>750.0</ele>
        <time>2019-08-16T06:33:36Z</time>
      </trkpt>
      <trkpt lat="41.9809260" lon="-6.0823480">
        <ele>750.0</ele>
        <time>2019-08-16T06:33:38Z</time>
      </trkpt>
      <trkpt lat="41.9809060" lon="-6.0824010">
        <ele>750.1</ele>
        <time>2019-08-16T06:33:40Z</time>
      </trkpt>
      <trkpt lat="41.9808670" lon="-6.0824270">
        <ele>750.2</ele>
        <time>2019-08-16T06:33:42Z</time>
      </trkpt>
      <trkpt lat="41.9808210" lon="-6.0824450">
        <ele>750.3</ele>
        <time>2019-08-16T06:33:44Z</time>
      </trkpt>
      <trkpt lat="41.9807950" lon="-6.0824610">
        <ele>750.3</ele>
        <time>2019-08-16T06:33:45Z</time>
      </trkpt>
      <trkpt lat="41.9807700" lon="-6.0824820">
        <ele>750.3</ele>
        <time>2019-08-16T06:33:46Z</time>
      </trkpt>
      <trkpt lat="41.9807440" lon="-6.0825050">
        <ele>750.4</ele>
        <time>2019-08-16T06:33:47Z</time>
      </trkpt>
      <trkpt lat="41.9807160" lon="-6.0825280">
        <ele>750.4</ele>
        <time>2019-08-16T06:33:48Z</time>
      </trkpt>
      <trkpt lat="41.9806880" lon="-6.0825530">
        <ele>750.4</ele>
        <time>2019-08-16T06:33:49Z</time>
      </trkpt>
      <trkpt lat="41.9806600" lon="-6.0825810">
        <ele>750.5</ele>
        <time>2019-08-16T06:33:50Z</time>
      </trkpt>
      <trkpt lat="41.9806310" lon="-6.0826090">
        <ele>750.5</ele>
        <time>2019-08-16T06:33:51Z</time>
      </trkpt>
      <trkpt lat="41.9806020" lon="-6.0826410">
        <ele>750.5</ele>
        <time>2019-08-16T06:33:52Z</time>
      </trkpt>
      <trkpt lat="41.9805720" lon="-6.0826740">
        <ele>750.5</ele>
        <time>2019-08-16T06:33:53Z</time>
      </trkpt>
      <trkpt lat="41.9805420" lon="-6.0827070">
        <ele>750.5</ele>
        <time>2019-08-16T06:33:54Z</time>
      </trkpt>
      <trkpt lat="41.9805120" lon="-6.0827410">
        <ele>750.5</ele>
        <time>2019-08-16T06:33:55Z</time>
      </trkpt>
      <trkpt lat="41.9804810" lon="-6.0827770">
        <ele>750.6</ele>
        <time>2019-08-16T06:33:56Z</time>
      </trkpt>
      <trkpt lat="41.9804510" lon="-6.0828110">
        <ele>750.6</ele>
        <time>2019-08-16T06:33:57Z</time>
      </trkpt>
      <trkpt lat="41.9804200" lon="-6.0828460">
        <ele>750.6</ele>
        <time>2019-08-16T06:33:58Z</time>
      </trkpt>
      <trkpt lat="41.9803870" lon="-6.0828760">
        <ele>750.6</ele>
        <time>2019-08-16T06:33:59Z</time>
      </trkpt>
      <trkpt lat="41.9803510" lon="-6.0828970">
        <ele>750.6</ele>
        <time>2019-08-16T06:34:00Z</time>
      </trkpt>
      <trkpt lat="41.9803110" lon="-6.0829050">
        <ele>750.6</ele>
        <time>2019-08-16T06:34:01Z</time>
      </trkpt>
      <trkpt lat="41.9802710" lon="-6.0829060">
        <ele>750.6</ele>
        <time>2019-08-16T06:34:02Z</time>
      </trkpt>
      <trkpt lat="41.9802330" lon="-6.0829040">
        <ele>750.6</ele>
        <time>2019-08-16T06:34:03Z</time>
      </trkpt>
      <trkpt lat="41.9801990" lon="-6.0829090">
        <ele>750.3</ele>
        <time>2019-08-16T06:34:04Z</time>
      </trkpt>
      <trkpt lat="41.9801730" lon="-6.0829240">
        <ele>750.0</ele>
        <time>2019-08-16T06:34:05Z</time>
      </trkpt>
      <trkpt lat="41.9801550" lon="-6.0829830">
        <ele>749.6</ele>
        <time>2019-08-16T06:34:07Z</time>
      </trkpt>
      <trkpt lat="41.9801720" lon="-6.0830540">
        <ele>749.1</ele>
        <time>2019-08-16T06:34:09Z</time>
      </trkpt>
      <trkpt lat="41.9801830" lon="-6.0830970">
        <ele>748.8</ele>
        <time>2019-08-16T06:34:10Z</time>
      </trkpt>
      <trkpt lat="41.9801910" lon="-6.0831440">
        <ele>748.5</ele>
        <time>2019-08-16T06:34:11Z</time>
      </trkpt>
      <trkpt lat="41.9801960" lon="-6.0831930">
        <ele>748.1</ele>
        <time>2019-08-16T06:34:12Z</time>
      </trkpt>
      <trkpt lat="41.9801960" lon="-6.0832470">
        <ele>747.8</ele>
        <time>2019-08-16T06:34:13Z</time>
      </trkpt>
      <trkpt lat="41.9801950" lon="-6.0833050">
        <ele>747.4</ele>
        <time>2019-08-16T06:34:14Z</time>
      </trkpt>
      <trkpt lat="41.9801940" lon="-6.0833610">
        <ele>747.0</ele>
        <time>2019-08-16T06:34:15Z</time>
      </trkpt>
      <trkpt lat="41.9801940" lon="-6.0834160">
        <ele>746.5</ele>
        <time>2019-08-16T06:34:16Z</time>
      </trkpt>
      <trkpt lat="41.9801930" lon="-6.0834700">
        <ele>746.3</ele>
        <time>2019-08-16T06:34:17Z</time>
      </trkpt>
      <trkpt lat="41.9801960" lon="-6.0835250">
        <ele>746.0</ele>
        <time>2019-08-16T06:34:18Z</time>
      </trkpt>
      <trkpt lat="41.9802030" lon="-6.0835780">
        <ele>746.0</ele>
        <time>2019-08-16T06:34:19Z</time>
      </trkpt>
      <trkpt lat="41.9802140" lon="-6.0836270">
        <ele>745.8</ele>
        <time>2019-08-16T06:34:20Z</time>
      </trkpt>
      <trkpt lat="41.9802290" lon="-6.0836710">
        <ele>745.7</ele>
        <time>2019-08-16T06:34:21Z</time>
      </trkpt>
      <trkpt lat="41.9802420" lon="-6.0837090">
        <ele>745.4</ele>
        <time>2019-08-16T06:34:22Z</time>
      </trkpt>
      <trkpt lat="41.9802500" lon="-6.0837710">
        <ele>745.4</ele>
        <time>2019-08-16T06:34:24Z</time>
      </trkpt>
      <trkpt lat="41.9802210" lon="-6.0838180">
        <ele>745.5</ele>
        <time>2019-08-16T06:34:26Z</time>
      </trkpt>
      <trkpt lat="41.9801940" lon="-6.0838300">
        <ele>745.5</ele>
        <time>2019-08-16T06:34:27Z</time>
      </trkpt>
      <trkpt lat="41.9801630" lon="-6.0838390">
        <ele>745.5</ele>
        <time>2019-08-16T06:34:28Z</time>
      </trkpt>
      <trkpt lat="41.9801280" lon="-6.0838510">
        <ele>745.5</ele>
        <time>2019-08-16T06:34:29Z</time>
      </trkpt>
      <trkpt lat="41.9800910" lon="-6.0838670">
        <ele>745.6</ele>
        <time>2019-08-16T06:34:30Z</time>
      </trkpt>
      <trkpt lat="41.9800510" lon="-6.0838860">
        <ele>745.6</ele>
        <time>2019-08-16T06:34:31Z</time>
      </trkpt>
      <trkpt lat="41.9800100" lon="-6.0839070">
        <ele>745.6</ele>
        <time>2019-08-16T06:34:32Z</time>
      </trkpt>
      <trkpt lat="41.9799700" lon="-6.0839270">
        <ele>745.6</ele>
        <time>2019-08-16T06:34:33Z</time>
      </trkpt>
      <trkpt lat="41.9799310" lon="-6.0839480">
        <ele>745.7</ele>
        <time>2019-08-16T06:34:34Z</time>
      </trkpt>
      <trkpt lat="41.9798950" lon="-6.0839680">
        <ele>745.7</ele>
        <time>2019-08-16T06:34:35Z</time>
      </trkpt>
      <trkpt lat="41.9798590" lon="-6.0839880">
        <ele>745.7</ele>
        <time>2019-08-16T06:34:36Z</time>
      </trkpt>
      <trkpt lat="41.9798240" lon="-6.0840070">
        <ele>745.7</ele>
        <time>2019-08-16T06:34:37Z</time>
      </trkpt>
      <trkpt lat="41.9797890" lon="-6.0840310">
        <ele>745.8</ele>
        <time>2019-08-16T06:34:38Z</time>
      </trkpt>
      <trkpt lat="41.9797550" lon="-6.0840580">
        <ele>745.8</ele>
        <time>2019-08-16T06:34:39Z</time>
      </trkpt>
      <trkpt lat="41.9797200" lon="-6.0840880">
        <ele>745.8</ele>
        <time>2019-08-16T06:34:40Z</time>
      </trkpt>
      <trkpt lat="41.9796840" lon="-6.0841210">
        <ele>745.9</ele>
        <time>2019-08-16T06:34:41Z</time>
      </trkpt>
      <trkpt lat="41.9796500" lon="-6.0841550">
        <ele>745.9</ele>
        <time>2019-08-16T06:34:42Z</time>
      </trkpt>
      <trkpt lat="41.9796200" lon="-6.0841920">
        <ele>745.9</ele>
        <time>2019-08-16T06:34:43Z</time>
      </trkpt>
      <trkpt lat="41.9795940" lon="-6.0842320">
        <ele>745.9</ele>
        <time>2019-08-16T06:34:44Z</time>
      </trkpt>
      <trkpt lat="41.9795720" lon="-6.0842760">
        <ele>745.9</ele>
        <time>2019-08-16T06:34:45Z</time>
      </trkpt>
      <trkpt lat="41.9795510" lon="-6.0843240">
        <ele>745.9</ele>
        <time>2019-08-16T06:34:46Z</time>
      </trkpt>
      <trkpt lat="41.9795320" lon="-6.0843740">
        <ele>746.0</ele>
        <time>2019-08-16T06:34:47Z</time>
      </trkpt>
      <trkpt lat="41.9795130" lon="-6.0844250">
        <ele>746.0</ele>
        <time>2019-08-16T06:34:48Z</time>
      </trkpt>
      <trkpt lat="41.9794950" lon="-6.0844770">
        <ele>746.0</ele>
        <time>2019-08-16T06:34:49Z</time>
      </trkpt>
      <trkpt lat="41.9794750" lon="-6.0845300">
        <ele>746.0</ele>
        <time>2019-08-16T06:34:50Z</time>
      </trkpt>
      <trkpt lat="41.9794570" lon="-6.0845850">
        <ele>746.0</ele>
        <time>2019-08-16T06:34:51Z</time>
      </trkpt>
      <trkpt lat="41.9794380" lon="-6.0846400">
        <ele>746.0</ele>
        <time>2019-08-16T06:34:52Z</time>
      </trkpt>
      <trkpt lat="41.9794210" lon="-6.0846950">
        <ele>746.0</ele>
        <time>2019-08-16T06:34:53Z</time>
      </trkpt>
      <trkpt lat="41.9794040" lon="-6.0847500">
        <ele>746.0</ele>
        <time>2019-08-16T06:34:54Z</time>
      </trkpt>
      <trkpt lat="41.9793860" lon="-6.0848040">
        <ele>746.0</ele>
        <time>2019-08-16T06:34:55Z</time>
      </trkpt>
      <trkpt lat="41.9793680" lon="-6.0848590">
        <ele>746.1</ele>
        <time>2019-08-16T06:34:56Z</time>
      </trkpt>
      <trkpt lat="41.9793500" lon="-6.0849130">
        <ele>746.1</ele>
        <time>2019-08-16T06:34:57Z</time>
      </trkpt>
      <trkpt lat="41.9793320" lon="-6.0849680">
        <ele>746.1</ele>
        <time>2019-08-16T06:34:58Z</time>
      </trkpt>
      <trkpt lat="41.9793150" lon="-6.0850210">
        <ele>746.1</ele>
        <time>2019-08-16T06:34:59Z</time>
      </trkpt>
      <trkpt lat="41.9792970" lon="-6.0850710">
        <ele>746.1</ele>
        <time>2019-08-16T06:35:00Z</time>
      </trkpt>
      <trkpt lat="41.9792800" lon="-6.0851180">
        <ele>746.1</ele>
        <time>2019-08-16T06:35:01Z</time>
      </trkpt>
      <trkpt lat="41.9792620" lon="-6.0851620">
        <ele>746.1</ele>
        <time>2019-08-16T06:35:02Z</time>
      </trkpt>
      <trkpt lat="41.9792460" lon="-6.0852040">
        <ele>746.1</ele>
        <time>2019-08-16T06:35:03Z</time>
      </trkpt>
      <trkpt lat="41.9792300" lon="-6.0852470">
        <ele>746.1</ele>
        <time>2019-08-16T06:35:04Z</time>
      </trkpt>
      <trkpt lat="41.9792140" lon="-6.0852910">
        <ele>746.1</ele>
        <time>2019-08-16T06:35:05Z</time>
      </trkpt>
      <trkpt lat="41.9791950" lon="-6.0853350">
        <ele>746.2</ele>
        <time>2019-08-16T06:35:06Z</time>
      </trkpt>
      <trkpt lat="41.9791750" lon="-6.0853790">
        <ele>746.2</ele>
        <time>2019-08-16T06:35:07Z</time>
      </trkpt>
      <trkpt lat="41.9791560" lon="-6.0854230">
        <ele>746.2</ele>
        <time>2019-08-16T06:35:08Z</time>
      </trkpt>
      <trkpt lat="41.9791370" lon="-6.0854690">
        <ele>746.2</ele>
        <time>2019-08-16T06:35:09Z</time>
      </trkpt>
      <trkpt lat="41.9791170" lon="-6.0855140">
        <ele>746.2</ele>
        <time>2019-08-16T06:35:10Z</time>
      </trkpt>
      <trkpt lat="41.9790960" lon="-6.0855610">
        <ele>746.2</ele>
        <time>2019-08-16T06:35:11Z</time>
      </trkpt>
      <trkpt lat="41.9790750" lon="-6.0856090">
        <ele>746.2</ele>
        <time>2019-08-16T06:35:12Z</time>
      </trkpt>
      <trkpt lat="41.9790540" lon="-6.0856580">
        <ele>746.2</ele>
        <time>2019-08-16T06:35:13Z</time>
      </trkpt>
      <trkpt lat="41.9790340" lon="-6.0857050">
        <ele>746.2</ele>
        <time>2019-08-16T06:35:14Z</time>
      </trkpt>
      <trkpt lat="41.9790160" lon="-6.0857520">
        <ele>746.2</ele>
        <time>2019-08-16T06:35:15Z</time>
      </trkpt>
      <trkpt lat="41.9789980" lon="-6.0857990">
        <ele>746.3</ele>
        <time>2019-08-16T06:35:16Z</time>
      </trkpt>
      <trkpt lat="41.9789840" lon="-6.0858450">
        <ele>746.3</ele>
        <time>2019-08-16T06:35:17Z</time>
      </trkpt>
      <trkpt lat="41.9789730" lon="-6.0858910">
        <ele>746.3</ele>
        <time>2019-08-16T06:35:18Z</time>
      </trkpt>
      <trkpt lat="41.9789630" lon="-6.0859370">
        <ele>746.3</ele>
        <time>2019-08-16T06:35:19Z</time>
      </trkpt>
      <trkpt lat="41.9789540" lon="-6.0859840">
        <ele>746.3</ele>
        <time>2019-08-16T06:35:20Z</time>
      </trkpt>
      <trkpt lat="41.9789480" lon="-6.0860340">
        <ele>746.4</ele>
        <time>2019-08-16T06:35:21Z</time>
      </trkpt>
      <trkpt lat="41.9789460" lon="-6.0860840">
        <ele>746.4</ele>
        <time>2019-08-16T06:35:22Z</time>
      </trkpt>
      <trkpt lat="41.9789470" lon="-6.0861370">
        <ele>746.4</ele>
        <time>2019-08-16T06:35:23Z</time>
      </trkpt>
      <trkpt lat="41.9789500" lon="-6.0861890">
        <ele>746.5</ele>
        <time>2019-08-16T06:35:24Z</time>
      </trkpt>
      <trkpt lat="41.9789540" lon="-6.0862400">
        <ele>746.5</ele>
        <time>2019-08-16T06:35:25Z</time>
      </trkpt>
      <trkpt lat="41.9789590" lon="-6.0862890">
        <ele>746.5</ele>
        <time>2019-08-16T06:35:26Z</time>
      </trkpt>
      <trkpt lat="41.9789640" lon="-6.0863350">
        <ele>746.5</ele>
        <time>2019-08-16T06:35:27Z</time>
      </trkpt>
      <trkpt lat="41.9789710" lon="-6.0863810">
        <ele>746.5</ele>
        <time>2019-08-16T06:35:28Z</time>
      </trkpt>
      <trkpt lat="41.9789760" lon="-6.0864280">
        <ele>746.5</ele>
        <time>2019-08-16T06:35:29Z</time>
      </trkpt>
      <trkpt lat="41.9789820" lon="-6.0864780">
        <ele>746.5</ele>
        <time>2019-08-16T06:35:30Z</time>
      </trkpt>
      <trkpt lat="41.9789880" lon="-6.0865310">
        <ele>746.5</ele>
        <time>2019-08-16T06:35:31Z</time>
      </trkpt>
      <trkpt lat="41.9789950" lon="-6.0865860">
        <ele>746.5</ele>
        <time>2019-08-16T06:35:32Z</time>
      </trkpt>
      <trkpt lat="41.9790010" lon="-6.0866400">
        <ele>746.5</ele>
        <time>2019-08-16T06:35:33Z</time>
      </trkpt>
      <trkpt lat="41.9790080" lon="-6.0866950">
        <ele>746.5</ele>
        <time>2019-08-16T06:35:34Z</time>
      </trkpt>
      <trkpt lat="41.9790150" lon="-6.0867500">
        <ele>746.5</ele>
        <time>2019-08-16T06:35:35Z</time>
      </trkpt>
      <trkpt lat="41.9790210" lon="-6.0868060">
        <ele>746.5</ele>
        <time>2019-08-16T06:35:36Z</time>
      </trkpt>
      <trkpt lat="41.9790280" lon="-6.0868620">
        <ele>746.5</ele>
        <time>2019-08-16T06:35:37Z</time>
      </trkpt>
      <trkpt lat="41.9790340" lon="-6.0869180">
        <ele>746.5</ele>
        <time>2019-08-16T06:35:38Z</time>
      </trkpt>
      <trkpt lat="41.9790380" lon="-6.0869730">
        <ele>746.5</ele>
        <time>2019-08-16T06:35:39Z</time>
      </trkpt>
      <trkpt lat="41.9790440" lon="-6.0870260">
        <ele>746.5</ele>
        <time>2019-08-16T06:35:40Z</time>
      </trkpt>
      <trkpt lat="41.9790510" lon="-6.0870770">
        <ele>746.5</ele>
        <time>2019-08-16T06:35:41Z</time>
      </trkpt>
      <trkpt lat="41.9790580" lon="-6.0871300">
        <ele>746.5</ele>
        <time>2019-08-16T06:35:42Z</time>
      </trkpt>
      <trkpt lat="41.9790640" lon="-6.0871840">
        <ele>746.5</ele>
        <time>2019-08-16T06:35:43Z</time>
      </trkpt>
      <trkpt lat="41.9790710" lon="-6.0872390">
        <ele>746.5</ele>
        <time>2019-08-16T06:35:44Z</time>
      </trkpt>
      <trkpt lat="41.9790780" lon="-6.0872940">
        <ele>746.5</ele>
        <time>2019-08-16T06:35:45Z</time>
      </trkpt>
      <trkpt lat="41.9790860" lon="-6.0873510">
        <ele>746.5</ele>
        <time>2019-08-16T06:35:46Z</time>
      </trkpt>
      <trkpt lat="41.9790970" lon="-6.0874080">
        <ele>746.6</ele>
        <time>2019-08-16T06:35:47Z</time>
      </trkpt>
      <trkpt lat="41.9791090" lon="-6.0874650">
        <ele>746.6</ele>
        <time>2019-08-16T06:35:48Z</time>
      </trkpt>
      <trkpt lat="41.9791220" lon="-6.0875220">
        <ele>746.6</ele>
        <time>2019-08-16T06:35:49Z</time>
      </trkpt>
      <trkpt lat="41.9791370" lon="-6.0875780">
        <ele>746.6</ele>
        <time>2019-08-16T06:35:50Z</time>
      </trkpt>
      <trkpt lat="41.9791540" lon="-6.0876350">
        <ele>746.6</ele>
        <time>2019-08-16T06:35:51Z</time>
      </trkpt>
      <trkpt lat="41.9791720" lon="-6.0876910">
        <ele>746.6</ele>
        <time>2019-08-16T06:35:52Z</time>
      </trkpt>
      <trkpt lat="41.9791910" lon="-6.0877470">
        <ele>746.6</ele>
        <time>2019-08-16T06:35:53Z</time>
      </trkpt>
      <trkpt lat="41.9792110" lon="-6.0878010">
        <ele>746.6</ele>
        <time>2019-08-16T06:35:54Z</time>
      </trkpt>
      <trkpt lat="41.9792310" lon="-6.0878570">
        <ele>746.6</ele>
        <time>2019-08-16T06:35:55Z</time>
      </trkpt>
      <trkpt lat="41.9792530" lon="-6.0879120">
        <ele>746.7</ele>
        <time>2019-08-16T06:35:56Z</time>
      </trkpt>
      <trkpt lat="41.9792740" lon="-6.0879680">
        <ele>746.7</ele>
        <time>2019-08-16T06:35:57Z</time>
      </trkpt>
      <trkpt lat="41.9792960" lon="-6.0880240">
        <ele>746.7</ele>
        <time>2019-08-16T06:35:58Z</time>
      </trkpt>
      <trkpt lat="41.9793170" lon="-6.0880800">
        <ele>746.7</ele>
        <time>2019-08-16T06:35:59Z</time>
      </trkpt>
      <trkpt lat="41.9793360" lon="-6.0881360">
        <ele>746.7</ele>
        <time>2019-08-16T06:36:00Z</time>
      </trkpt>
      <trkpt lat="41.9793550" lon="-6.0881880">
        <ele>746.7</ele>
        <time>2019-08-16T06:36:01Z</time>
      </trkpt>
      <trkpt lat="41.9793730" lon="-6.0882400">
        <ele>746.7</ele>
        <time>2019-08-16T06:36:02Z</time>
      </trkpt>
      <trkpt lat="41.9793920" lon="-6.0882910">
        <ele>746.7</ele>
        <time>2019-08-16T06:36:03Z</time>
      </trkpt>
      <trkpt lat="41.9794110" lon="-6.0883430">
        <ele>746.7</ele>
        <time>2019-08-16T06:36:04Z</time>
      </trkpt>
      <trkpt lat="41.9794320" lon="-6.0883940">
        <ele>746.7</ele>
        <time>2019-08-16T06:36:05Z</time>
      </trkpt>
      <trkpt lat="41.9794530" lon="-6.0884470">
        <ele>746.8</ele>
        <time>2019-08-16T06:36:06Z</time>
      </trkpt>
      <trkpt lat="41.9794730" lon="-6.0884990">
        <ele>746.8</ele>
        <time>2019-08-16T06:36:07Z</time>
      </trkpt>
      <trkpt lat="41.9794920" lon="-6.0885480">
        <ele>746.8</ele>
        <time>2019-08-16T06:36:08Z</time>
      </trkpt>
      <trkpt lat="41.9795110" lon="-6.0885970">
        <ele>746.8</ele>
        <time>2019-08-16T06:36:09Z</time>
      </trkpt>
      <trkpt lat="41.9795310" lon="-6.0886450">
        <ele>746.8</ele>
        <time>2019-08-16T06:36:10Z</time>
      </trkpt>
      <trkpt lat="41.9795520" lon="-6.0886930">
        <ele>746.8</ele>
        <time>2019-08-16T06:36:11Z</time>
      </trkpt>
      <trkpt lat="41.9795740" lon="-6.0887410">
        <ele>746.9</ele>
        <time>2019-08-16T06:36:12Z</time>
      </trkpt>
      <trkpt lat="41.9795970" lon="-6.0887890">
        <ele>746.9</ele>
        <time>2019-08-16T06:36:13Z</time>
      </trkpt>
      <trkpt lat="41.9796200" lon="-6.0888330">
        <ele>746.9</ele>
        <time>2019-08-16T06:36:14Z</time>
      </trkpt>
      <trkpt lat="41.9796440" lon="-6.0888720">
        <ele>747.0</ele>
        <time>2019-08-16T06:36:15Z</time>
      </trkpt>
      <trkpt lat="41.9796650" lon="-6.0889080">
        <ele>747.0</ele>
        <time>2019-08-16T06:36:16Z</time>
      </trkpt>
      <trkpt lat="41.9796830" lon="-6.0889390">
        <ele>747.0</ele>
        <time>2019-08-16T06:36:17Z</time>
      </trkpt>
      <trkpt lat="41.9797130" lon="-6.0889880">
        <ele>747.1</ele>
        <time>2019-08-16T06:36:19Z</time>
      </trkpt>
      <trkpt lat="41.9797230" lon="-6.0890240">
        <ele>747.1</ele>
        <time>2019-08-16T06:36:21Z</time>
      </trkpt>
      <trkpt lat="41.9797840" lon="-6.0890700">
        <ele>747.1</ele>
        <time>2019-08-16T06:37:49Z</time>
      </trkpt>
      <trkpt lat="41.9798060" lon="-6.0890990">
        <ele>747.1</ele>
        <time>2019-08-16T06:37:50Z</time>
      </trkpt>
      <trkpt lat="41.9798280" lon="-6.0891380">
        <ele>747.1</ele>
        <time>2019-08-16T06:37:51Z</time>
      </trkpt>
      <trkpt lat="41.9798540" lon="-6.0891840">
        <ele>747.1</ele>
        <time>2019-08-16T06:37:52Z</time>
      </trkpt>
      <trkpt lat="41.9798850" lon="-6.0892340">
        <ele>747.1</ele>
        <time>2019-08-16T06:37:53Z</time>
      </trkpt>
      <trkpt lat="41.9799140" lon="-6.0892840">
        <ele>747.1</ele>
        <time>2019-08-16T06:37:54Z</time>
      </trkpt>
      <trkpt lat="41.9799420" lon="-6.0893330">
        <ele>747.1</ele>
        <time>2019-08-16T06:37:55Z</time>
      </trkpt>
      <trkpt lat="41.9799690" lon="-6.0893800">
        <ele>747.1</ele>
        <time>2019-08-16T06:37:56Z</time>
      </trkpt>
      <trkpt lat="41.9799980" lon="-6.0894270">
        <ele>747.0</ele>
        <time>2019-08-16T06:37:57Z</time>
      </trkpt>
      <trkpt lat="41.9800240" lon="-6.0894750">
        <ele>747.0</ele>
        <time>2019-08-16T06:37:58Z</time>
      </trkpt>
      <trkpt lat="41.9800500" lon="-6.0895260">
        <ele>747.0</ele>
        <time>2019-08-16T06:37:59Z</time>
      </trkpt>
      <trkpt lat="41.9800740" lon="-6.0895740">
        <ele>746.9</ele>
        <time>2019-08-16T06:38:00Z</time>
      </trkpt>
      <trkpt lat="41.9801000" lon="-6.0896210">
        <ele>746.9</ele>
        <time>2019-08-16T06:38:01Z</time>
      </trkpt>
      <trkpt lat="41.9801270" lon="-6.0896660">
        <ele>746.9</ele>
        <time>2019-08-16T06:38:02Z</time>
      </trkpt>
      <trkpt lat="41.9801530" lon="-6.0897100">
        <ele>746.9</ele>
        <time>2019-08-16T06:38:03Z</time>
      </trkpt>
      <trkpt lat="41.9801790" lon="-6.0897510">
        <ele>746.9</ele>
        <time>2019-08-16T06:38:04Z</time>
      </trkpt>
      <trkpt lat="41.9802030" lon="-6.0897920">
        <ele>746.8</ele>
        <time>2019-08-16T06:38:05Z</time>
      </trkpt>
      <trkpt lat="41.9802290" lon="-6.0898320">
        <ele>746.8</ele>
        <time>2019-08-16T06:38:06Z</time>
      </trkpt>
      <trkpt lat="41.9802550" lon="-6.0898750">
        <ele>746.8</ele>
        <time>2019-08-16T06:38:07Z</time>
      </trkpt>
      <trkpt lat="41.9802800" lon="-6.0899190">
        <ele>746.8</ele>
        <time>2019-08-16T06:38:08Z</time>
      </trkpt>
      <trkpt lat="41.9803070" lon="-6.0899630">
        <ele>746.8</ele>
        <time>2019-08-16T06:38:09Z</time>
      </trkpt>
      <trkpt lat="41.9803350" lon="-6.0900060">
        <ele>746.8</ele>
        <time>2019-08-16T06:38:10Z</time>
      </trkpt>
      <trkpt lat="41.9803620" lon="-6.0900490">
        <ele>746.8</ele>
        <time>2019-08-16T06:38:11Z</time>
      </trkpt>
      <trkpt lat="41.9803910" lon="-6.0900940">
        <ele>746.8</ele>
        <time>2019-08-16T06:38:12Z</time>
      </trkpt>
      <trkpt lat="41.9804190" lon="-6.0901380">
        <ele>746.8</ele>
        <time>2019-08-16T06:38:13Z</time>
      </trkpt>
      <trkpt lat="41.9804450" lon="-6.0901810">
        <ele>746.8</ele>
        <time>2019-08-16T06:38:14Z</time>
      </trkpt>
      <trkpt lat="41.9804700" lon="-6.0902200">
        <ele>746.8</ele>
        <time>2019-08-16T06:38:15Z</time>
      </trkpt>
      <trkpt lat="41.9804970" lon="-6.0902610">
        <ele>746.8</ele>
        <time>2019-08-16T06:38:16Z</time>
      </trkpt>
      <trkpt lat="41.9805210" lon="-6.0903010">
        <ele>746.7</ele>
        <time>2019-08-16T06:38:17Z</time>
      </trkpt>
      <trkpt lat="41.9805460" lon="-6.0903450">
        <ele>746.7</ele>
        <time>2019-08-16T06:38:18Z</time>
      </trkpt>
      <trkpt lat="41.9805720" lon="-6.0903910">
        <ele>746.7</ele>
        <time>2019-08-16T06:38:19Z</time>
      </trkpt>
      <trkpt lat="41.9805980" lon="-6.0904350">
        <ele>746.7</ele>
        <time>2019-08-16T06:38:20Z</time>
      </trkpt>
      <trkpt lat="41.9806260" lon="-6.0904800">
        <ele>746.7</ele>
        <time>2019-08-16T06:38:21Z</time>
      </trkpt>
      <trkpt lat="41.9806520" lon="-6.0905260">
        <ele>746.7</ele>
        <time>2019-08-16T06:38:22Z</time>
      </trkpt>
      <trkpt lat="41.9806770" lon="-6.0905730">
        <ele>746.7</ele>
        <time>2019-08-16T06:38:23Z</time>
      </trkpt>
      <trkpt lat="41.9807040" lon="-6.0906200">
        <ele>746.7</ele>
        <time>2019-08-16T06:38:24Z</time>
      </trkpt>
      <trkpt lat="41.9807300" lon="-6.0906670">
        <ele>746.7</ele>
        <time>2019-08-16T06:38:25Z</time>
      </trkpt>
      <trkpt lat="41.9807570" lon="-6.0907130">
        <ele>746.7</ele>
        <time>2019-08-16T06:38:26Z</time>
      </trkpt>
      <trkpt lat="41.9807830" lon="-6.0907590">
        <ele>746.7</ele>
        <time>2019-08-16T06:38:27Z</time>
      </trkpt>
      <trkpt lat="41.9808090" lon="-6.0908050">
        <ele>746.7</ele>
        <time>2019-08-16T06:38:28Z</time>
      </trkpt>
      <trkpt lat="41.9808330" lon="-6.0908490">
        <ele>746.7</ele>
        <time>2019-08-16T06:38:29Z</time>
      </trkpt>
      <trkpt lat="41.9808580" lon="-6.0908900">
        <ele>746.7</ele>
        <time>2019-08-16T06:38:30Z</time>
      </trkpt>
      <trkpt lat="41.9808830" lon="-6.0909300">
        <ele>746.7</ele>
        <time>2019-08-16T06:38:31Z</time>
      </trkpt>
      <trkpt lat="41.9809060" lon="-6.0909690">
        <ele>746.7</ele>
        <time>2019-08-16T06:38:32Z</time>
      </trkpt>
      <trkpt lat="41.9809290" lon="-6.0910110">
        <ele>746.7</ele>
        <time>2019-08-16T06:38:33Z</time>
      </trkpt>
      <trkpt lat="41.9809550" lon="-6.0910540">
        <ele>746.7</ele>
        <time>2019-08-16T06:38:34Z</time>
      </trkpt>
      <trkpt lat="41.9809820" lon="-6.0910960">
        <ele>746.7</ele>
        <time>2019-08-16T06:38:35Z</time>
      </trkpt>
      <trkpt lat="41.9810070" lon="-6.0911400">
        <ele>746.7</ele>
        <time>2019-08-16T06:38:36Z</time>
      </trkpt>
      <trkpt lat="41.9810340" lon="-6.0911860">
        <ele>746.7</ele>
        <time>2019-08-16T06:38:37Z</time>
      </trkpt>
      <trkpt lat="41.9810610" lon="-6.0912320">
        <ele>746.7</ele>
        <time>2019-08-16T06:38:38Z</time>
      </trkpt>
      <trkpt lat="41.9810880" lon="-6.0912790">
        <ele>746.7</ele>
        <time>2019-08-16T06:38:39Z</time>
      </trkpt>
      <trkpt lat="41.9811130" lon="-6.0913260">
        <ele>746.7</ele>
        <time>2019-08-16T06:38:40Z</time>
      </trkpt>
      <trkpt lat="41.9811410" lon="-6.0913740">
        <ele>746.7</ele>
        <time>2019-08-16T06:38:41Z</time>
      </trkpt>
      <trkpt lat="41.9811680" lon="-6.0914220">
        <ele>746.7</ele>
        <time>2019-08-16T06:38:42Z</time>
      </trkpt>
      <trkpt lat="41.9811950" lon="-6.0914680">
        <ele>746.7</ele>
        <time>2019-08-16T06:38:43Z</time>
      </trkpt>
      <trkpt lat="41.9812230" lon="-6.0915140">
        <ele>746.7</ele>
        <time>2019-08-16T06:38:44Z</time>
      </trkpt>
      <trkpt lat="41.9812490" lon="-6.0915610">
        <ele>746.7</ele>
        <time>2019-08-16T06:38:45Z</time>
      </trkpt>
      <trkpt lat="41.9812760" lon="-6.0916080">
        <ele>746.7</ele>
        <time>2019-08-16T06:38:46Z</time>
      </trkpt>
      <trkpt lat="41.9813020" lon="-6.0916550">
        <ele>746.7</ele>
        <time>2019-08-16T06:38:47Z</time>
      </trkpt>
      <trkpt lat="41.9813290" lon="-6.0917010">
        <ele>746.7</ele>
        <time>2019-08-16T06:38:48Z</time>
      </trkpt>
      <trkpt lat="41.9813560" lon="-6.0917450">
        <ele>746.7</ele>
        <time>2019-08-16T06:38:49Z</time>
      </trkpt>
      <trkpt lat="41.9813840" lon="-6.0917910">
        <ele>746.7</ele>
        <time>2019-08-16T06:38:50Z</time>
      </trkpt>
      <trkpt lat="41.9814070" lon="-6.0918360">
        <ele>746.7</ele>
        <time>2019-08-16T06:38:51Z</time>
      </trkpt>
      <trkpt lat="41.9814310" lon="-6.0918780">
        <ele>746.7</ele>
        <time>2019-08-16T06:38:52Z</time>
      </trkpt>
      <trkpt lat="41.9814560" lon="-6.0919190">
        <ele>746.7</ele>
        <time>2019-08-16T06:38:53Z</time>
      </trkpt>
      <trkpt lat="41.9814810" lon="-6.0919620">
        <ele>746.7</ele>
        <time>2019-08-16T06:38:54Z</time>
      </trkpt>
      <trkpt lat="41.9815080" lon="-6.0920060">
        <ele>746.7</ele>
        <time>2019-08-16T06:38:55Z</time>
      </trkpt>
      <trkpt lat="41.9815350" lon="-6.0920520">
        <ele>746.7</ele>
        <time>2019-08-16T06:38:56Z</time>
      </trkpt>
      <trkpt lat="41.9815630" lon="-6.0920980">
        <ele>746.7</ele>
        <time>2019-08-16T06:38:57Z</time>
      </trkpt>
      <trkpt lat="41.9815910" lon="-6.0921460">
        <ele>746.7</ele>
        <time>2019-08-16T06:38:58Z</time>
      </trkpt>
      <trkpt lat="41.9816180" lon="-6.0921940">
        <ele>746.6</ele>
        <time>2019-08-16T06:38:59Z</time>
      </trkpt>
      <trkpt lat="41.9816430" lon="-6.0922440">
        <ele>746.6</ele>
        <time>2019-08-16T06:39:00Z</time>
      </trkpt>
      <trkpt lat="41.9816660" lon="-6.0922940">
        <ele>746.6</ele>
        <time>2019-08-16T06:39:01Z</time>
      </trkpt>
      <trkpt lat="41.9816870" lon="-6.0923480">
        <ele>746.6</ele>
        <time>2019-08-16T06:39:02Z</time>
      </trkpt>
      <trkpt lat="41.9817070" lon="-6.0924010">
        <ele>746.6</ele>
        <time>2019-08-16T06:39:03Z</time>
      </trkpt>
      <trkpt lat="41.9817250" lon="-6.0924540">
        <ele>746.6</ele>
        <time>2019-08-16T06:39:04Z</time>
      </trkpt>
      <trkpt lat="41.9817430" lon="-6.0925080">
        <ele>746.6</ele>
        <time>2019-08-16T06:39:05Z</time>
      </trkpt>
      <trkpt lat="41.9817610" lon="-6.0925620">
        <ele>746.5</ele>
        <time>2019-08-16T06:39:06Z</time>
      </trkpt>
      <trkpt lat="41.9817780" lon="-6.0926170">
        <ele>746.5</ele>
        <time>2019-08-16T06:39:07Z</time>
      </trkpt>
      <trkpt lat="41.9817960" lon="-6.0926700">
        <ele>746.5</ele>
        <time>2019-08-16T06:39:08Z</time>
      </trkpt>
      <trkpt lat="41.9818140" lon="-6.0927250">
        <ele>746.5</ele>
        <time>2019-08-16T06:39:09Z</time>
      </trkpt>
      <trkpt lat="41.9818330" lon="-6.0927810">
        <ele>746.5</ele>
        <time>2019-08-16T06:39:10Z</time>
      </trkpt>
      <trkpt lat="41.9818470" lon="-6.0928340">
        <ele>746.5</ele>
        <time>2019-08-16T06:39:11Z</time>
      </trkpt>
      <trkpt lat="41.9818640" lon="-6.0928820">
        <ele>746.5</ele>
        <time>2019-08-16T06:39:12Z</time>
      </trkpt>
      <trkpt lat="41.9818820" lon="-6.0929240">
        <ele>746.5</ele>
        <time>2019-08-16T06:39:13Z</time>
      </trkpt>
      <trkpt lat="41.9819000" lon="-6.0929690">
        <ele>746.5</ele>
        <time>2019-08-16T06:39:14Z</time>
      </trkpt>
      <trkpt lat="41.9819170" lon="-6.0930180">
        <ele>746.5</ele>
        <time>2019-08-16T06:39:15Z</time>
      </trkpt>
      <trkpt lat="41.9819370" lon="-6.0930680">
        <ele>746.5</ele>
        <time>2019-08-16T06:39:16Z</time>
      </trkpt>
      <trkpt lat="41.9819570" lon="-6.0931150">
        <ele>746.5</ele>
        <time>2019-08-16T06:39:17Z</time>
      </trkpt>
      <trkpt lat="41.9819730" lon="-6.0931630">
        <ele>746.5</ele>
        <time>2019-08-16T06:39:18Z</time>
      </trkpt>
      <trkpt lat="41.9819890" lon="-6.0932130">
        <ele>746.5</ele>
        <time>2019-08-16T06:39:19Z</time>
      </trkpt>
      <trkpt lat="41.9820070" lon="-6.0932640">
        <ele>746.5</ele>
        <time>2019-08-16T06:39:20Z</time>
      </trkpt>
      <trkpt lat="41.9820260" lon="-6.0933150">
        <ele>746.5</ele>
        <time>2019-08-16T06:39:21Z</time>
      </trkpt>
      <trkpt lat="41.9820460" lon="-6.0933680">
        <ele>746.5</ele>
        <time>2019-08-16T06:39:22Z</time>
      </trkpt>
      <trkpt lat="41.9820660" lon="-6.0934220">
        <ele>746.5</ele>
        <time>2019-08-16T06:39:23Z</time>
      </trkpt>
      <trkpt lat="41.9820830" lon="-6.0934780">
        <ele>746.5</ele>
        <time>2019-08-16T06:39:24Z</time>
      </trkpt>
      <trkpt lat="41.9820990" lon="-6.0935350">
        <ele>746.5</ele>
        <time>2019-08-16T06:39:25Z</time>
      </trkpt>
      <trkpt lat="41.9821170" lon="-6.0935920">
        <ele>746.5</ele>
        <time>2019-08-16T06:39:26Z</time>
      </trkpt>
      <trkpt lat="41.9821350" lon="-6.0936470">
        <ele>746.5</ele>
        <time>2019-08-16T06:39:27Z</time>
      </trkpt>
      <trkpt lat="41.9821540" lon="-6.0937000">
        <ele>746.5</ele>
        <time>2019-08-16T06:39:28Z</time>
      </trkpt>
      <trkpt lat="41.9821730" lon="-6.0937560">
        <ele>746.5</ele>
        <time>2019-08-16T06:39:29Z</time>
      </trkpt>
      <trkpt lat="41.9821920" lon="-6.0938100">
        <ele>746.5</ele>
        <time>2019-08-16T06:39:30Z</time>
      </trkpt>
      <trkpt lat="41.9822130" lon="-6.0938650">
        <ele>746.4</ele>
        <time>2019-08-16T06:39:31Z</time>
      </trkpt>
      <trkpt lat="41.9822340" lon="-6.0939200">
        <ele>746.4</ele>
        <time>2019-08-16T06:39:32Z</time>
      </trkpt>
      <trkpt lat="41.9822520" lon="-6.0939660">
        <ele>746.4</ele>
        <time>2019-08-16T06:39:33Z</time>
      </trkpt>
      <trkpt lat="41.9822690" lon="-6.0940130">
        <ele>746.4</ele>
        <time>2019-08-16T06:39:34Z</time>
      </trkpt>
      <trkpt lat="41.9822870" lon="-6.0940670">
        <ele>746.3</ele>
        <time>2019-08-16T06:39:35Z</time>
      </trkpt>
      <trkpt lat="41.9823030" lon="-6.0941220">
        <ele>746.3</ele>
        <time>2019-08-16T06:39:36Z</time>
      </trkpt>
      <trkpt lat="41.9823190" lon="-6.0941790">
        <ele>746.3</ele>
        <time>2019-08-16T06:39:37Z</time>
      </trkpt>
      <trkpt lat="41.9823380" lon="-6.0942350">
        <ele>746.2</ele>
        <time>2019-08-16T06:39:38Z</time>
      </trkpt>
      <trkpt lat="41.9823560" lon="-6.0942900">
        <ele>746.2</ele>
        <time>2019-08-16T06:39:39Z</time>
      </trkpt>
      <trkpt lat="41.9823750" lon="-6.0943440">
        <ele>746.2</ele>
        <time>2019-08-16T06:39:40Z</time>
      </trkpt>
      <trkpt lat="41.9823930" lon="-6.0943950">
        <ele>746.2</ele>
        <time>2019-08-16T06:39:41Z</time>
      </trkpt>
      <trkpt lat="41.9824090" lon="-6.0944430">
        <ele>746.1</ele>
        <time>2019-08-16T06:39:42Z</time>
      </trkpt>
      <trkpt lat="41.9824240" lon="-6.0944920">
        <ele>746.1</ele>
        <time>2019-08-16T06:39:43Z</time>
      </trkpt>
      <trkpt lat="41.9824380" lon="-6.0945420">
        <ele>746.1</ele>
        <time>2019-08-16T06:39:44Z</time>
      </trkpt>
      <trkpt lat="41.9824550" lon="-6.0945930">
        <ele>746.1</ele>
        <time>2019-08-16T06:39:45Z</time>
      </trkpt>
      <trkpt lat="41.9824740" lon="-6.0946440">
        <ele>746.1</ele>
        <time>2019-08-16T06:39:46Z</time>
      </trkpt>
      <trkpt lat="41.9824920" lon="-6.0946970">
        <ele>746.1</ele>
        <time>2019-08-16T06:39:47Z</time>
      </trkpt>
      <trkpt lat="41.9825090" lon="-6.0947490">
        <ele>746.0</ele>
        <time>2019-08-16T06:39:48Z</time>
      </trkpt>
      <trkpt lat="41.9825270" lon="-6.0948010">
        <ele>746.0</ele>
        <time>2019-08-16T06:39:49Z</time>
      </trkpt>
      <trkpt lat="41.9825440" lon="-6.0948550">
        <ele>746.0</ele>
        <time>2019-08-16T06:39:50Z</time>
      </trkpt>
      <trkpt lat="41.9825630" lon="-6.0949090">
        <ele>746.0</ele>
        <time>2019-08-16T06:39:51Z</time>
      </trkpt>
      <trkpt lat="41.9825810" lon="-6.0949610">
        <ele>746.0</ele>
        <time>2019-08-16T06:39:52Z</time>
      </trkpt>
      <trkpt lat="41.9825990" lon="-6.0950140">
        <ele>746.0</ele>
        <time>2019-08-16T06:39:53Z</time>
      </trkpt>
      <trkpt lat="41.9826190" lon="-6.0950670">
        <ele>746.0</ele>
        <time>2019-08-16T06:39:54Z</time>
      </trkpt>
      <trkpt lat="41.9826370" lon="-6.0951200">
        <ele>746.0</ele>
        <time>2019-08-16T06:39:55Z</time>
      </trkpt>
      <trkpt lat="41.9826550" lon="-6.0951680">
        <ele>746.0</ele>
        <time>2019-08-16T06:39:56Z</time>
      </trkpt>
      <trkpt lat="41.9826760" lon="-6.0952130">
        <ele>746.0</ele>
        <time>2019-08-16T06:39:57Z</time>
      </trkpt>
      <trkpt lat="41.9826970" lon="-6.0952570">
        <ele>746.0</ele>
        <time>2019-08-16T06:39:58Z</time>
      </trkpt>
      <trkpt lat="41.9827200" lon="-6.0953010">
        <ele>745.9</ele>
        <time>2019-08-16T06:39:59Z</time>
      </trkpt>
      <trkpt lat="41.9827460" lon="-6.0953420">
        <ele>745.9</ele>
        <time>2019-08-16T06:40:00Z</time>
      </trkpt>
      <trkpt lat="41.9827730" lon="-6.0953840">
        <ele>745.9</ele>
        <time>2019-08-16T06:40:01Z</time>
      </trkpt>
      <trkpt lat="41.9828010" lon="-6.0954270">
        <ele>745.9</ele>
        <time>2019-08-16T06:40:02Z</time>
      </trkpt>
      <trkpt lat="41.9828290" lon="-6.0954700">
        <ele>745.9</ele>
        <time>2019-08-16T06:40:03Z</time>
      </trkpt>
      <trkpt lat="41.9828580" lon="-6.0955130">
        <ele>745.9</ele>
        <time>2019-08-16T06:40:04Z</time>
      </trkpt>
      <trkpt lat="41.9828880" lon="-6.0955570">
        <ele>745.9</ele>
        <time>2019-08-16T06:40:05Z</time>
      </trkpt>
      <trkpt lat="41.9829180" lon="-6.0956000">
        <ele>745.9</ele>
        <time>2019-08-16T06:40:06Z</time>
      </trkpt>
      <trkpt lat="41.9829480" lon="-6.0956420">
        <ele>745.9</ele>
        <time>2019-08-16T06:40:07Z</time>
      </trkpt>
      <trkpt lat="41.9829770" lon="-6.0956870">
        <ele>745.8</ele>
        <time>2019-08-16T06:40:08Z</time>
      </trkpt>
      <trkpt lat="41.9830070" lon="-6.0957310">
        <ele>745.8</ele>
        <time>2019-08-16T06:40:09Z</time>
      </trkpt>
      <trkpt lat="41.9830370" lon="-6.0957760">
        <ele>745.8</ele>
        <time>2019-08-16T06:40:10Z</time>
      </trkpt>
      <trkpt lat="41.9830660" lon="-6.0958230">
        <ele>745.8</ele>
        <time>2019-08-16T06:40:11Z</time>
      </trkpt>
      <trkpt lat="41.9830960" lon="-6.0958700">
        <ele>745.7</ele>
        <time>2019-08-16T06:40:12Z</time>
      </trkpt>
      <trkpt lat="41.9831260" lon="-6.0959190">
        <ele>745.7</ele>
        <time>2019-08-16T06:40:13Z</time>
      </trkpt>
      <trkpt lat="41.9831570" lon="-6.0959680">
        <ele>745.7</ele>
        <time>2019-08-16T06:40:14Z</time>
      </trkpt>
      <trkpt lat="41.9831890" lon="-6.0960170">
        <ele>745.6</ele>
        <time>2019-08-16T06:40:15Z</time>
      </trkpt>
      <trkpt lat="41.9832220" lon="-6.0960640">
        <ele>745.6</ele>
        <time>2019-08-16T06:40:16Z</time>
      </trkpt>
      <trkpt lat="41.9832530" lon="-6.0961120">
        <ele>745.6</ele>
        <time>2019-08-16T06:40:17Z</time>
      </trkpt>
      <trkpt lat="41.9832820" lon="-6.0961580">
        <ele>745.5</ele>
        <time>2019-08-16T06:40:18Z</time>
      </trkpt>
      <trkpt lat="41.9833110" lon="-6.0962030">
        <ele>745.5</ele>
        <time>2019-08-16T06:40:19Z</time>
      </trkpt>
      <trkpt lat="41.9833390" lon="-6.0962470">
        <ele>745.4</ele>
        <time>2019-08-16T06:40:20Z</time>
      </trkpt>
      <trkpt lat="41.9833700" lon="-6.0962920">
        <ele>745.4</ele>
        <time>2019-08-16T06:40:21Z</time>
      </trkpt>
      <trkpt lat="41.9834010" lon="-6.0963360">
        <ele>745.4</ele>
        <time>2019-08-16T06:40:22Z</time>
      </trkpt>
      <trkpt lat="41.9834320" lon="-6.0963820">
        <ele>745.3</ele>
        <time>2019-08-16T06:40:23Z</time>
      </trkpt>
      <trkpt lat="41.9834640" lon="-6.0964280">
        <ele>745.3</ele>
        <time>2019-08-16T06:40:24Z</time>
      </trkpt>
      <trkpt lat="41.9834960" lon="-6.0964750">
        <ele>745.3</ele>
        <time>2019-08-16T06:40:25Z</time>
      </trkpt>
      <trkpt lat="41.9835290" lon="-6.0965240">
        <ele>745.3</ele>
        <time>2019-08-16T06:40:26Z</time>
      </trkpt>
      <trkpt lat="41.9835600" lon="-6.0965750">
        <ele>745.3</ele>
        <time>2019-08-16T06:40:27Z</time>
      </trkpt>
      <trkpt lat="41.9835890" lon="-6.0966240">
        <ele>745.3</ele>
        <time>2019-08-16T06:40:28Z</time>
      </trkpt>
      <trkpt lat="41.9836200" lon="-6.0966710">
        <ele>745.3</ele>
        <time>2019-08-16T06:40:29Z</time>
      </trkpt>
      <trkpt lat="41.9836520" lon="-6.0967180">
        <ele>745.3</ele>
        <time>2019-08-16T06:40:30Z</time>
      </trkpt>
      <trkpt lat="41.9836830" lon="-6.0967670">
        <ele>745.3</ele>
        <time>2019-08-16T06:40:31Z</time>
      </trkpt>
      <trkpt lat="41.9837140" lon="-6.0968160">
        <ele>745.3</ele>
        <time>2019-08-16T06:40:32Z</time>
      </trkpt>
      <trkpt lat="41.9837450" lon="-6.0968660">
        <ele>745.3</ele>
        <time>2019-08-16T06:40:33Z</time>
      </trkpt>
      <trkpt lat="41.9837750" lon="-6.0969150">
        <ele>745.3</ele>
        <time>2019-08-16T06:40:34Z</time>
      </trkpt>
      <trkpt lat="41.9838050" lon="-6.0969620">
        <ele>745.3</ele>
        <time>2019-08-16T06:40:35Z</time>
      </trkpt>
      <trkpt lat="41.9838340" lon="-6.0970070">
        <ele>745.4</ele>
        <time>2019-08-16T06:40:36Z</time>
      </trkpt>
      <trkpt lat="41.9838630" lon="-6.0970510">
        <ele>745.4</ele>
        <time>2019-08-16T06:40:37Z</time>
      </trkpt>
      <trkpt lat="41.9838920" lon="-6.0970940">
        <ele>745.4</ele>
        <time>2019-08-16T06:40:38Z</time>
      </trkpt>
      <trkpt lat="41.9839200" lon="-6.0971370">
        <ele>745.4</ele>
        <time>2019-08-16T06:40:39Z</time>
      </trkpt>
      <trkpt lat="41.9839490" lon="-6.0971810">
        <ele>745.4</ele>
        <time>2019-08-16T06:40:40Z</time>
      </trkpt>
      <trkpt lat="41.9839790" lon="-6.0972260">
        <ele>745.4</ele>
        <time>2019-08-16T06:40:41Z</time>
      </trkpt>
      <trkpt lat="41.9840080" lon="-6.0972710">
        <ele>745.4</ele>
        <time>2019-08-16T06:40:42Z</time>
      </trkpt>
      <trkpt lat="41.9840370" lon="-6.0973150">
        <ele>745.4</ele>
        <time>2019-08-16T06:40:43Z</time>
      </trkpt>
      <trkpt lat="41.9840670" lon="-6.0973600">
        <ele>745.4</ele>
        <time>2019-08-16T06:40:44Z</time>
      </trkpt>
      <trkpt lat="41.9840960" lon="-6.0974040">
        <ele>745.4</ele>
        <time>2019-08-16T06:40:45Z</time>
      </trkpt>
      <trkpt lat="41.9841240" lon="-6.0974500">
        <ele>745.4</ele>
        <time>2019-08-16T06:40:46Z</time>
      </trkpt>
      <trkpt lat="41.9841510" lon="-6.0974960">
        <ele>745.4</ele>
        <time>2019-08-16T06:40:47Z</time>
      </trkpt>
      <trkpt lat="41.9841750" lon="-6.0975450">
        <ele>745.4</ele>
        <time>2019-08-16T06:40:48Z</time>
      </trkpt>
      <trkpt lat="41.9841970" lon="-6.0975950">
        <ele>745.4</ele>
        <time>2019-08-16T06:40:49Z</time>
      </trkpt>
      <trkpt lat="41.9842160" lon="-6.0976490">
        <ele>745.4</ele>
        <time>2019-08-16T06:40:50Z</time>
      </trkpt>
      <trkpt lat="41.9842340" lon="-6.0977040">
        <ele>745.4</ele>
        <time>2019-08-16T06:40:51Z</time>
      </trkpt>
      <trkpt lat="41.9842490" lon="-6.0977600">
        <ele>745.4</ele>
        <time>2019-08-16T06:40:52Z</time>
      </trkpt>
      <trkpt lat="41.9842600" lon="-6.0978190">
        <ele>745.4</ele>
        <time>2019-08-16T06:40:53Z</time>
      </trkpt>
      <trkpt lat="41.9842690" lon="-6.0978790">
        <ele>745.4</ele>
        <time>2019-08-16T06:40:54Z</time>
      </trkpt>
      <trkpt lat="41.9842740" lon="-6.0979420">
        <ele>745.4</ele>
        <time>2019-08-16T06:40:55Z</time>
      </trkpt>
      <trkpt lat="41.9842780" lon="-6.0980070">
        <ele>745.4</ele>
        <time>2019-08-16T06:40:56Z</time>
      </trkpt>
      <trkpt lat="41.9842790" lon="-6.0980700">
        <ele>745.4</ele>
        <time>2019-08-16T06:40:57Z</time>
      </trkpt>
      <trkpt lat="41.9842790" lon="-6.0981320">
        <ele>745.4</ele>
        <time>2019-08-16T06:40:58Z</time>
      </trkpt>
      <trkpt lat="41.9842770" lon="-6.0981910">
        <ele>745.4</ele>
        <time>2019-08-16T06:40:59Z</time>
      </trkpt>
      <trkpt lat="41.9842710" lon="-6.0982480">
        <ele>745.4</ele>
        <time>2019-08-16T06:41:00Z</time>
      </trkpt>
      <trkpt lat="41.9842670" lon="-6.0983070">
        <ele>745.4</ele>
        <time>2019-08-16T06:41:01Z</time>
      </trkpt>
      <trkpt lat="41.9842620" lon="-6.0983650">
        <ele>745.4</ele>
        <time>2019-08-16T06:41:02Z</time>
      </trkpt>
      <trkpt lat="41.9842570" lon="-6.0984240">
        <ele>745.4</ele>
        <time>2019-08-16T06:41:03Z</time>
      </trkpt>
      <trkpt lat="41.9842540" lon="-6.0984830">
        <ele>745.4</ele>
        <time>2019-08-16T06:41:04Z</time>
      </trkpt>
      <trkpt lat="41.9842530" lon="-6.0985410">
        <ele>745.4</ele>
        <time>2019-08-16T06:41:05Z</time>
      </trkpt>
      <trkpt lat="41.9842530" lon="-6.0985990">
        <ele>745.4</ele>
        <time>2019-08-16T06:41:06Z</time>
      </trkpt>
      <trkpt lat="41.9842570" lon="-6.0986590">
        <ele>745.4</ele>
        <time>2019-08-16T06:41:07Z</time>
      </trkpt>
      <trkpt lat="41.9842650" lon="-6.0987190">
        <ele>745.4</ele>
        <time>2019-08-16T06:41:08Z</time>
      </trkpt>
      <trkpt lat="41.9842770" lon="-6.0987790">
        <ele>745.4</ele>
        <time>2019-08-16T06:41:09Z</time>
      </trkpt>
      <trkpt lat="41.9842920" lon="-6.0988380">
        <ele>745.4</ele>
        <time>2019-08-16T06:41:10Z</time>
      </trkpt>
      <trkpt lat="41.9843060" lon="-6.0988960">
        <ele>745.4</ele>
        <time>2019-08-16T06:41:11Z</time>
      </trkpt>
      <trkpt lat="41.9843210" lon="-6.0989520">
        <ele>745.4</ele>
        <time>2019-08-16T06:41:12Z</time>
      </trkpt>
      <trkpt lat="41.9843370" lon="-6.0990090">
        <ele>745.4</ele>
        <time>2019-08-16T06:41:13Z</time>
      </trkpt>
      <trkpt lat="41.9843530" lon="-6.0990650">
        <ele>745.4</ele>
        <time>2019-08-16T06:41:14Z</time>
      </trkpt>
      <trkpt lat="41.9843700" lon="-6.0991200">
        <ele>745.4</ele>
        <time>2019-08-16T06:41:15Z</time>
      </trkpt>
      <trkpt lat="41.9843860" lon="-6.0991720">
        <ele>745.3</ele>
        <time>2019-08-16T06:41:16Z</time>
      </trkpt>
      <trkpt lat="41.9844030" lon="-6.0992220">
        <ele>745.3</ele>
        <time>2019-08-16T06:41:17Z</time>
      </trkpt>
      <trkpt lat="41.9844170" lon="-6.0992720">
        <ele>745.3</ele>
        <time>2019-08-16T06:41:18Z</time>
      </trkpt>
      <trkpt lat="41.9844290" lon="-6.0993210">
        <ele>745.3</ele>
        <time>2019-08-16T06:41:19Z</time>
      </trkpt>
      <trkpt lat="41.9844430" lon="-6.0993670">
        <ele>745.3</ele>
        <time>2019-08-16T06:41:20Z</time>
      </trkpt>
      <trkpt lat="41.9844580" lon="-6.0994110">
        <ele>745.2</ele>
        <time>2019-08-16T06:41:21Z</time>
      </trkpt>
      <trkpt lat="41.9844720" lon="-6.0994530">
        <ele>745.1</ele>
        <time>2019-08-16T06:41:22Z</time>
      </trkpt>
      <trkpt lat="41.9844850" lon="-6.0994890">
        <ele>745.1</ele>
        <time>2019-08-16T06:41:23Z</time>
      </trkpt>
      <trkpt lat="41.9845010" lon="-6.0995500">
        <ele>745.0</ele>
        <time>2019-08-16T06:41:25Z</time>
      </trkpt>
      <trkpt lat="41.9845070" lon="-6.0995960">
        <ele>745.0</ele>
        <time>2019-08-16T06:41:27Z</time>
      </trkpt>
      <trkpt lat="41.9844910" lon="-6.0996440">
        <ele>745.1</ele>
        <time>2019-08-16T06:41:30Z</time>
      </trkpt>
      <trkpt lat="41.9844720" lon="-6.0996760">
        <ele>745.1</ele>
        <time>2019-08-16T06:41:32Z</time>
      </trkpt>
      <trkpt lat="41.9844500" lon="-6.0997160">
        <ele>745.2</ele>
        <time>2019-08-16T06:41:34Z</time>
      </trkpt>
      <trkpt lat="41.9844260" lon="-6.0997680">
        <ele>745.2</ele>
        <time>2019-08-16T06:41:36Z</time>
      </trkpt>
      <trkpt lat="41.9843980" lon="-6.0998290">
        <ele>745.3</ele>
        <time>2019-08-16T06:41:38Z</time>
      </trkpt>
      <trkpt lat="41.9843690" lon="-6.0998900">
        <ele>745.4</ele>
        <time>2019-08-16T06:41:40Z</time>
      </trkpt>
      <trkpt lat="41.9843520" lon="-6.0999240">
        <ele>745.5</ele>
        <time>2019-08-16T06:41:41Z</time>
      </trkpt>
      <trkpt lat="41.9843330" lon="-6.0999600">
        <ele>745.6</ele>
        <time>2019-08-16T06:41:42Z</time>
      </trkpt>
      <trkpt lat="41.9843150" lon="-6.0999970">
        <ele>745.7</ele>
        <time>2019-08-16T06:41:43Z</time>
      </trkpt>
      <trkpt lat="41.9842970" lon="-6.1000370">
        <ele>745.8</ele>
        <time>2019-08-16T06:41:44Z</time>
      </trkpt>
      <trkpt lat="41.9842790" lon="-6.1000770">
        <ele>745.9</ele>
        <time>2019-08-16T06:41:45Z</time>
      </trkpt>
      <trkpt lat="41.9842620" lon="-6.1001190">
        <ele>746.1</ele>
        <time>2019-08-16T06:41:46Z</time>
      </trkpt>
      <trkpt lat="41.9842450" lon="-6.1001630">
        <ele>746.2</ele>
        <time>2019-08-16T06:41:47Z</time>
      </trkpt>
      <trkpt lat="41.9842280" lon="-6.1002050">
        <ele>746.4</ele>
        <time>2019-08-16T06:41:48Z</time>
      </trkpt>
      <trkpt lat="41.9842100" lon="-6.1002450">
        <ele>746.5</ele>
        <time>2019-08-16T06:41:49Z</time>
      </trkpt>
      <trkpt lat="41.9841920" lon="-6.1002810">
        <ele>746.7</ele>
        <time>2019-08-16T06:41:50Z</time>
      </trkpt>
      <trkpt lat="41.9841710" lon="-6.1003130">
        <ele>746.8</ele>
        <time>2019-08-16T06:41:51Z</time>
      </trkpt>
      <trkpt lat="41.9841510" lon="-6.1003410">
        <ele>746.9</ele>
        <time>2019-08-16T06:41:52Z</time>
      </trkpt>
      <trkpt lat="41.9841290" lon="-6.1003690">
        <ele>747.1</ele>
        <time>2019-08-16T06:41:53Z</time>
      </trkpt>
      <trkpt lat="41.9841070" lon="-6.1003960">
        <ele>747.2</ele>
        <time>2019-08-16T06:41:54Z</time>
      </trkpt>
      <trkpt lat="41.9840860" lon="-6.1004240">
        <ele>747.3</ele>
        <time>2019-08-16T06:41:55Z</time>
      </trkpt>
      <trkpt lat="41.9840620" lon="-6.1004510">
        <ele>747.5</ele>
        <time>2019-08-16T06:41:56Z</time>
      </trkpt>
      <trkpt lat="41.9840370" lon="-6.1004800">
        <ele>747.6</ele>
        <time>2019-08-16T06:41:57Z</time>
      </trkpt>
      <trkpt lat="41.9840130" lon="-6.1005120">
        <ele>747.7</ele>
        <time>2019-08-16T06:41:58Z</time>
      </trkpt>
      <trkpt lat="41.9839890" lon="-6.1005490">
        <ele>747.8</ele>
        <time>2019-08-16T06:41:59Z</time>
      </trkpt>
      <trkpt lat="41.9839660" lon="-6.1005910">
        <ele>747.9</ele>
        <time>2019-08-16T06:42:00Z</time>
      </trkpt>
      <trkpt lat="41.9839480" lon="-6.1006370">
        <ele>748.0</ele>
        <time>2019-08-16T06:42:01Z</time>
      </trkpt>
      <trkpt lat="41.9839360" lon="-6.1006800">
        <ele>748.1</ele>
        <time>2019-08-16T06:42:02Z</time>
      </trkpt>
      <trkpt lat="41.9839290" lon="-6.1007180">
        <ele>748.2</ele>
        <time>2019-08-16T06:42:03Z</time>
      </trkpt>
      <trkpt lat="41.9839180" lon="-6.1007830">
        <ele>748.3</ele>
        <time>2019-08-16T06:42:05Z</time>
      </trkpt>
      <trkpt lat="41.9839140" lon="-6.1008490">
        <ele>748.4</ele>
        <time>2019-08-16T06:42:07Z</time>
      </trkpt>
      <trkpt lat="41.9839330" lon="-6.1009060">
        <ele>748.5</ele>
        <time>2019-08-16T06:42:09Z</time>
      </trkpt>
      <trkpt lat="41.9839620" lon="-6.1009570">
        <ele>748.6</ele>
        <time>2019-08-16T06:42:11Z</time>
      </trkpt>
      <trkpt lat="41.9839970" lon="-6.1010170">
        <ele>748.7</ele>
        <time>2019-08-16T06:42:13Z</time>
      </trkpt>
      <trkpt lat="41.9840170" lon="-6.1010510">
        <ele>748.8</ele>
        <time>2019-08-16T06:42:14Z</time>
      </trkpt>
      <trkpt lat="41.9840380" lon="-6.1010850">
        <ele>748.9</ele>
        <time>2019-08-16T06:42:15Z</time>
      </trkpt>
      <trkpt lat="41.9840600" lon="-6.1011190">
        <ele>748.9</ele>
        <time>2019-08-16T06:42:16Z</time>
      </trkpt>
      <trkpt lat="41.9840830" lon="-6.1011520">
        <ele>749.0</ele>
        <time>2019-08-16T06:42:17Z</time>
      </trkpt>
      <trkpt lat="41.9841090" lon="-6.1011820">
        <ele>749.0</ele>
        <time>2019-08-16T06:42:18Z</time>
      </trkpt>
      <trkpt lat="41.9841380" lon="-6.1012080">
        <ele>749.1</ele>
        <time>2019-08-16T06:42:19Z</time>
      </trkpt>
      <trkpt lat="41.9841680" lon="-6.1012340">
        <ele>749.1</ele>
        <time>2019-08-16T06:42:20Z</time>
      </trkpt>
      <trkpt lat="41.9841990" lon="-6.1012600">
        <ele>749.1</ele>
        <time>2019-08-16T06:42:21Z</time>
      </trkpt>
      <trkpt lat="41.9842320" lon="-6.1012890">
        <ele>749.2</ele>
        <time>2019-08-16T06:42:22Z</time>
      </trkpt>
      <trkpt lat="41.9842650" lon="-6.1013210">
        <ele>749.2</ele>
        <time>2019-08-16T06:42:23Z</time>
      </trkpt>
      <trkpt lat="41.9842990" lon="-6.1013560">
        <ele>749.3</ele>
        <time>2019-08-16T06:42:24Z</time>
      </trkpt>
      <trkpt lat="41.9843350" lon="-6.1013920">
        <ele>749.3</ele>
        <time>2019-08-16T06:42:25Z</time>
      </trkpt>
      <trkpt lat="41.9843730" lon="-6.1014200">
        <ele>749.3</ele>
        <time>2019-08-16T06:42:26Z</time>
      </trkpt>
      <trkpt lat="41.9844110" lon="-6.1014520">
        <ele>749.3</ele>
        <time>2019-08-16T06:42:27Z</time>
      </trkpt>
      <trkpt lat="41.9844500" lon="-6.1014850">
        <ele>749.2</ele>
        <time>2019-08-16T06:42:28Z</time>
      </trkpt>
      <trkpt lat="41.9844870" lon="-6.1015220">
        <ele>749.2</ele>
        <time>2019-08-16T06:42:29Z</time>
      </trkpt>
      <trkpt lat="41.9845250" lon="-6.1015550">
        <ele>749.1</ele>
        <time>2019-08-16T06:42:30Z</time>
      </trkpt>
      <trkpt lat="41.9845630" lon="-6.1015850">
        <ele>749.0</ele>
        <time>2019-08-16T06:42:31Z</time>
      </trkpt>
      <trkpt lat="41.9846000" lon="-6.1016120">
        <ele>748.8</ele>
        <time>2019-08-16T06:42:32Z</time>
      </trkpt>
      <trkpt lat="41.9846340" lon="-6.1016360">
        <ele>748.8</ele>
        <time>2019-08-16T06:42:33Z</time>
      </trkpt>
      <trkpt lat="41.9846670" lon="-6.1016530">
        <ele>748.6</ele>
        <time>2019-08-16T06:42:34Z</time>
      </trkpt>
      <trkpt lat="41.9846990" lon="-6.1016660">
        <ele>748.6</ele>
        <time>2019-08-16T06:42:35Z</time>
      </trkpt>
      <trkpt lat="41.9847300" lon="-6.1016820">
        <ele>748.5</ele>
        <time>2019-08-16T06:42:36Z</time>
      </trkpt>
      <trkpt lat="41.9847590" lon="-6.1017020">
        <ele>748.5</ele>
        <time>2019-08-16T06:42:37Z</time>
      </trkpt>
      <trkpt lat="41.9847880" lon="-6.1017240">
        <ele>748.5</ele>
        <time>2019-08-16T06:42:38Z</time>
      </trkpt>
      <trkpt lat="41.9848170" lon="-6.1017490">
        <ele>748.4</ele>
        <time>2019-08-16T06:42:39Z</time>
      </trkpt>
      <trkpt lat="41.9848430" lon="-6.1017770">
        <ele>748.4</ele>
        <time>2019-08-16T06:42:40Z</time>
      </trkpt>
      <trkpt lat="41.9848690" lon="-6.1018060">
        <ele>748.4</ele>
        <time>2019-08-16T06:42:41Z</time>
      </trkpt>
      <trkpt lat="41.9848940" lon="-6.1018380">
        <ele>748.4</ele>
        <time>2019-08-16T06:42:42Z</time>
      </trkpt>
      <trkpt lat="41.9849180" lon="-6.1018720">
        <ele>748.5</ele>
        <time>2019-08-16T06:42:43Z</time>
      </trkpt>
      <trkpt lat="41.9849420" lon="-6.1019060">
        <ele>748.5</ele>
        <time>2019-08-16T06:42:44Z</time>
      </trkpt>
      <trkpt lat="41.9849650" lon="-6.1019400">
        <ele>748.5</ele>
        <time>2019-08-16T06:42:45Z</time>
      </trkpt>
      <trkpt lat="41.9849870" lon="-6.1019750">
        <ele>748.4</ele>
        <time>2019-08-16T06:42:46Z</time>
      </trkpt>
      <trkpt lat="41.9850070" lon="-6.1020090">
        <ele>748.4</ele>
        <time>2019-08-16T06:42:47Z</time>
      </trkpt>
      <trkpt lat="41.9850250" lon="-6.1020480">
        <ele>748.4</ele>
        <time>2019-08-16T06:42:48Z</time>
      </trkpt>
      <trkpt lat="41.9850430" lon="-6.1020860">
        <ele>748.4</ele>
        <time>2019-08-16T06:42:49Z</time>
      </trkpt>
      <trkpt lat="41.9850600" lon="-6.1021250">
        <ele>748.5</ele>
        <time>2019-08-16T06:42:50Z</time>
      </trkpt>
      <trkpt lat="41.9850750" lon="-6.1021630">
        <ele>748.5</ele>
        <time>2019-08-16T06:42:51Z</time>
      </trkpt>
      <trkpt lat="41.9850900" lon="-6.1022000">
        <ele>748.6</ele>
        <time>2019-08-16T06:42:52Z</time>
      </trkpt>
      <trkpt lat="41.9851010" lon="-6.1022340">
        <ele>748.6</ele>
        <time>2019-08-16T06:42:53Z</time>
      </trkpt>
      <trkpt lat="41.9851220" lon="-6.1022800">
        <ele>748.7</ele>
        <time>2019-08-16T06:42:55Z</time>
      </trkpt>
      <trkpt lat="41.9851370" lon="-6.1023120">
        <ele>748.8</ele>
        <time>2019-08-16T06:42:59Z</time>
      </trkpt>
      <trkpt lat="41.9851470" lon="-6.1023180">
        <ele>748.8</ele>
        <time>2019-08-16T06:43:08Z</time>
      </trkpt>
      <trkpt lat="41.9851030" lon="-6.1024200">
        <ele>749.2</ele>
        <time>2019-08-16T06:43:30Z</time>
      </trkpt>
      <trkpt lat="41.9850840" lon="-6.1024560">
        <ele>749.3</ele>
        <time>2019-08-16T06:43:32Z</time>
      </trkpt>
      <trkpt lat="41.9850480" lon="-6.1024850">
        <ele>749.4</ele>
        <time>2019-08-16T06:43:34Z</time>
      </trkpt>
      <trkpt lat="41.9850030" lon="-6.1025090">
        <ele>749.6</ele>
        <time>2019-08-16T06:43:36Z</time>
      </trkpt>
      <trkpt lat="41.9849560" lon="-6.1025280">
        <ele>749.7</ele>
        <time>2019-08-16T06:43:38Z</time>
      </trkpt>
      <trkpt lat="41.9849030" lon="-6.1025470">
        <ele>749.9</ele>
        <time>2019-08-16T06:43:40Z</time>
      </trkpt>
      <trkpt lat="41.9848760" lon="-6.1025570">
        <ele>749.9</ele>
        <time>2019-08-16T06:43:41Z</time>
      </trkpt>
      <trkpt lat="41.9848490" lon="-6.1025670">
        <ele>749.9</ele>
        <time>2019-08-16T06:43:42Z</time>
      </trkpt>
      <trkpt lat="41.9848220" lon="-6.1025780">
        <ele>750.0</ele>
        <time>2019-08-16T06:43:43Z</time>
      </trkpt>
      <trkpt lat="41.9847940" lon="-6.1025900">
        <ele>750.0</ele>
        <time>2019-08-16T06:43:44Z</time>
      </trkpt>
      <trkpt lat="41.9847690" lon="-6.1026090">
        <ele>750.0</ele>
        <time>2019-08-16T06:43:45Z</time>
      </trkpt>
      <trkpt lat="41.9847500" lon="-6.1026370">
        <ele>750.0</ele>
        <time>2019-08-16T06:43:46Z</time>
      </trkpt>
      <trkpt lat="41.9847390" lon="-6.1026720">
        <ele>750.0</ele>
        <time>2019-08-16T06:43:47Z</time>
      </trkpt>
      <trkpt lat="41.9847350" lon="-6.1027100">
        <ele>750.0</ele>
        <time>2019-08-16T06:43:48Z</time>
      </trkpt>
      <trkpt lat="41.9847390" lon="-6.1027510">
        <ele>750.0</ele>
        <time>2019-08-16T06:43:49Z</time>
      </trkpt>
      <trkpt lat="41.9847500" lon="-6.1027940">
        <ele>750.1</ele>
        <time>2019-08-16T06:43:50Z</time>
      </trkpt>
      <trkpt lat="41.9847620" lon="-6.1028380">
        <ele>750.1</ele>
        <time>2019-08-16T06:43:51Z</time>
      </trkpt>
      <trkpt lat="41.9847750" lon="-6.1028820">
        <ele>750.1</ele>
        <time>2019-08-16T06:43:52Z</time>
      </trkpt>
      <trkpt lat="41.9847880" lon="-6.1029290">
        <ele>750.1</ele>
        <time>2019-08-16T06:43:53Z</time>
      </trkpt>
      <trkpt lat="41.9848020" lon="-6.1029760">
        <ele>750.2</ele>
        <time>2019-08-16T06:43:54Z</time>
      </trkpt>
      <trkpt lat="41.9848160" lon="-6.1030250">
        <ele>750.2</ele>
        <time>2019-08-16T06:43:55Z</time>
      </trkpt>
      <trkpt lat="41.9848310" lon="-6.1030740">
        <ele>750.2</ele>
        <time>2019-08-16T06:43:56Z</time>
      </trkpt>
      <trkpt lat="41.9848460" lon="-6.1031230">
        <ele>750.2</ele>
        <time>2019-08-16T06:43:57Z</time>
      </trkpt>
      <trkpt lat="41.9848620" lon="-6.1031740">
        <ele>750.3</ele>
        <time>2019-08-16T06:43:58Z</time>
      </trkpt>
      <trkpt lat="41.9848810" lon="-6.1032250">
        <ele>750.3</ele>
        <time>2019-08-16T06:43:59Z</time>
      </trkpt>
      <trkpt lat="41.9849000" lon="-6.1032760">
        <ele>750.3</ele>
        <time>2019-08-16T06:44:00Z</time>
      </trkpt>
      <trkpt lat="41.9849180" lon="-6.1033270">
        <ele>750.4</ele>
        <time>2019-08-16T06:44:01Z</time>
      </trkpt>
      <trkpt lat="41.9849380" lon="-6.1033790">
        <ele>750.4</ele>
        <time>2019-08-16T06:44:02Z</time>
      </trkpt>
      <trkpt lat="41.9849560" lon="-6.1034320">
        <ele>750.4</ele>
        <time>2019-08-16T06:44:03Z</time>
      </trkpt>
      <trkpt lat="41.9849720" lon="-6.1034860">
        <ele>750.5</ele>
        <time>2019-08-16T06:44:04Z</time>
      </trkpt>
      <trkpt lat="41.9849870" lon="-6.1035420">
        <ele>750.5</ele>
        <time>2019-08-16T06:44:05Z</time>
      </trkpt>
      <trkpt lat="41.9849980" lon="-6.1035980">
        <ele>750.5</ele>
        <time>2019-08-16T06:44:06Z</time>
      </trkpt>
      <trkpt lat="41.9850080" lon="-6.1036550">
        <ele>750.6</ele>
        <time>2019-08-16T06:44:07Z</time>
      </trkpt>
      <trkpt lat="41.9850180" lon="-6.1037130">
        <ele>750.6</ele>
        <time>2019-08-16T06:44:08Z</time>
      </trkpt>
      <trkpt lat="41.9850320" lon="-6.1037720">
        <ele>750.6</ele>
        <time>2019-08-16T06:44:09Z</time>
      </trkpt>
      <trkpt lat="41.9850470" lon="-6.1038290">
        <ele>750.6</ele>
        <time>2019-08-16T06:44:10Z</time>
      </trkpt>
      <trkpt lat="41.9850620" lon="-6.1038870">
        <ele>750.6</ele>
        <time>2019-08-16T06:44:11Z</time>
      </trkpt>
      <trkpt lat="41.9850770" lon="-6.1039450">
        <ele>750.6</ele>
        <time>2019-08-16T06:44:12Z</time>
      </trkpt>
      <trkpt lat="41.9850910" lon="-6.1040010">
        <ele>750.6</ele>
        <time>2019-08-16T06:44:13Z</time>
      </trkpt>
      <trkpt lat="41.9851070" lon="-6.1040560">
        <ele>750.6</ele>
        <time>2019-08-16T06:44:14Z</time>
      </trkpt>
      <trkpt lat="41.9851210" lon="-6.1041100">
        <ele>750.6</ele>
        <time>2019-08-16T06:44:15Z</time>
      </trkpt>
      <trkpt lat="41.9851340" lon="-6.1041650">
        <ele>750.5</ele>
        <time>2019-08-16T06:44:16Z</time>
      </trkpt>
      <trkpt lat="41.9851450" lon="-6.1042190">
        <ele>750.5</ele>
        <time>2019-08-16T06:44:17Z</time>
      </trkpt>
      <trkpt lat="41.9851580" lon="-6.1042730">
        <ele>750.5</ele>
        <time>2019-08-16T06:44:18Z</time>
      </trkpt>
      <trkpt lat="41.9851710" lon="-6.1043290">
        <ele>750.5</ele>
        <time>2019-08-16T06:44:19Z</time>
      </trkpt>
      <trkpt lat="41.9851830" lon="-6.1043890">
        <ele>750.5</ele>
        <time>2019-08-16T06:44:20Z</time>
      </trkpt>
      <trkpt lat="41.9851970" lon="-6.1044510">
        <ele>750.4</ele>
        <time>2019-08-16T06:44:21Z</time>
      </trkpt>
      <trkpt lat="41.9852110" lon="-6.1045140">
        <ele>750.4</ele>
        <time>2019-08-16T06:44:22Z</time>
      </trkpt>
      <trkpt lat="41.9852240" lon="-6.1045770">
        <ele>750.4</ele>
        <time>2019-08-16T06:44:23Z</time>
      </trkpt>
      <trkpt lat="41.9852390" lon="-6.1046420">
        <ele>750.4</ele>
        <time>2019-08-16T06:44:24Z</time>
      </trkpt>
      <trkpt lat="41.9852510" lon="-6.1047070">
        <ele>750.4</ele>
        <time>2019-08-16T06:44:25Z</time>
      </trkpt>
      <trkpt lat="41.9852620" lon="-6.1047700">
        <ele>750.3</ele>
        <time>2019-08-16T06:44:26Z</time>
      </trkpt>
      <trkpt lat="41.9852720" lon="-6.1048310">
        <ele>750.3</ele>
        <time>2019-08-16T06:44:27Z</time>
      </trkpt>
      <trkpt lat="41.9852810" lon="-6.1048910">
        <ele>750.3</ele>
        <time>2019-08-16T06:44:28Z</time>
      </trkpt>
      <trkpt lat="41.9852910" lon="-6.1049500">
        <ele>750.3</ele>
        <time>2019-08-16T06:44:29Z</time>
      </trkpt>
      <trkpt lat="41.9853030" lon="-6.1050070">
        <ele>750.2</ele>
        <time>2019-08-16T06:44:30Z</time>
      </trkpt>
      <trkpt lat="41.9853140" lon="-6.1050640">
        <ele>750.2</ele>
        <time>2019-08-16T06:44:31Z</time>
      </trkpt>
      <trkpt lat="41.9853290" lon="-6.1051190">
        <ele>750.2</ele>
        <time>2019-08-16T06:44:32Z</time>
      </trkpt>
      <trkpt lat="41.9853420" lon="-6.1051730">
        <ele>750.1</ele>
        <time>2019-08-16T06:44:33Z</time>
      </trkpt>
      <trkpt lat="41.9853570" lon="-6.1052240">
        <ele>750.1</ele>
        <time>2019-08-16T06:44:34Z</time>
      </trkpt>
      <trkpt lat="41.9853730" lon="-6.1052740">
        <ele>750.1</ele>
        <time>2019-08-16T06:44:35Z</time>
      </trkpt>
      <trkpt lat="41.9853890" lon="-6.1053230">
        <ele>750.0</ele>
        <time>2019-08-16T06:44:36Z</time>
      </trkpt>
      <trkpt lat="41.9854020" lon="-6.1053750">
        <ele>750.0</ele>
        <time>2019-08-16T06:44:37Z</time>
      </trkpt>
      <trkpt lat="41.9854170" lon="-6.1054290">
        <ele>749.9</ele>
        <time>2019-08-16T06:44:38Z</time>
      </trkpt>
      <trkpt lat="41.9854320" lon="-6.1054850">
        <ele>749.8</ele>
        <time>2019-08-16T06:44:39Z</time>
      </trkpt>
      <trkpt lat="41.9854490" lon="-6.1055410">
        <ele>749.8</ele>
        <time>2019-08-16T06:44:40Z</time>
      </trkpt>
      <trkpt lat="41.9854680" lon="-6.1055970">
        <ele>749.7</ele>
        <time>2019-08-16T06:44:41Z</time>
      </trkpt>
      <trkpt lat="41.9854880" lon="-6.1056510">
        <ele>749.6</ele>
        <time>2019-08-16T06:44:42Z</time>
      </trkpt>
      <trkpt lat="41.9855090" lon="-6.1057030">
        <ele>749.5</ele>
        <time>2019-08-16T06:44:43Z</time>
      </trkpt>
      <trkpt lat="41.9855320" lon="-6.1057510">
        <ele>749.5</ele>
        <time>2019-08-16T06:44:44Z</time>
      </trkpt>
      <trkpt lat="41.9855590" lon="-6.1057930">
        <ele>749.4</ele>
        <time>2019-08-16T06:44:45Z</time>
      </trkpt>
      <trkpt lat="41.9855870" lon="-6.1058320">
        <ele>749.4</ele>
        <time>2019-08-16T06:44:46Z</time>
      </trkpt>
      <trkpt lat="41.9856170" lon="-6.1058680">
        <ele>749.4</ele>
        <time>2019-08-16T06:44:47Z</time>
      </trkpt>
      <trkpt lat="41.9856470" lon="-6.1059070">
        <ele>749.4</ele>
        <time>2019-08-16T06:44:48Z</time>
      </trkpt>
      <trkpt lat="41.9856780" lon="-6.1059490">
        <ele>749.3</ele>
        <time>2019-08-16T06:44:49Z</time>
      </trkpt>
      <trkpt lat="41.9857040" lon="-6.1059960">
        <ele>749.3</ele>
        <time>2019-08-16T06:44:50Z</time>
      </trkpt>
      <trkpt lat="41.9857240" lon="-6.1060500">
        <ele>749.3</ele>
        <time>2019-08-16T06:44:51Z</time>
      </trkpt>
      <trkpt lat="41.9857340" lon="-6.1061100">
        <ele>749.2</ele>
        <time>2019-08-16T06:44:52Z</time>
      </trkpt>
      <trkpt lat="41.9857350" lon="-6.1061720">
        <ele>749.2</ele>
        <time>2019-08-16T06:44:53Z</time>
      </trkpt>
      <trkpt lat="41.9857300" lon="-6.1062360">
        <ele>749.3</ele>
        <time>2019-08-16T06:44:54Z</time>
      </trkpt>
      <trkpt lat="41.9857240" lon="-6.1062990">
        <ele>749.3</ele>
        <time>2019-08-16T06:44:55Z</time>
      </trkpt>
      <trkpt lat="41.9857170" lon="-6.1063640">
        <ele>749.4</ele>
        <time>2019-08-16T06:44:56Z</time>
      </trkpt>
      <trkpt lat="41.9857100" lon="-6.1064300">
        <ele>749.4</ele>
        <time>2019-08-16T06:44:57Z</time>
      </trkpt>
      <trkpt lat="41.9857040" lon="-6.1064970">
        <ele>749.5</ele>
        <time>2019-08-16T06:44:58Z</time>
      </trkpt>
      <trkpt lat="41.9856960" lon="-6.1065650">
        <ele>749.5</ele>
        <time>2019-08-16T06:44:59Z</time>
      </trkpt>
      <trkpt lat="41.9856870" lon="-6.1066320">
        <ele>749.5</ele>
        <time>2019-08-16T06:45:00Z</time>
      </trkpt>
      <trkpt lat="41.9856760" lon="-6.1067010">
        <ele>749.6</ele>
        <time>2019-08-16T06:45:01Z</time>
      </trkpt>
      <trkpt lat="41.9856650" lon="-6.1067690">
        <ele>749.6</ele>
        <time>2019-08-16T06:45:02Z</time>
      </trkpt>
      <trkpt lat="41.9856540" lon="-6.1068360">
        <ele>749.7</ele>
        <time>2019-08-16T06:45:03Z</time>
      </trkpt>
      <trkpt lat="41.9856430" lon="-6.1069020">
        <ele>749.7</ele>
        <time>2019-08-16T06:45:04Z</time>
      </trkpt>
      <trkpt lat="41.9856300" lon="-6.1069670">
        <ele>749.7</ele>
        <time>2019-08-16T06:45:05Z</time>
      </trkpt>
      <trkpt lat="41.9856160" lon="-6.1070300">
        <ele>749.8</ele>
        <time>2019-08-16T06:45:06Z</time>
      </trkpt>
      <trkpt lat="41.9856050" lon="-6.1070920">
        <ele>749.8</ele>
        <time>2019-08-16T06:45:07Z</time>
      </trkpt>
      <trkpt lat="41.9855960" lon="-6.1071540">
        <ele>749.8</ele>
        <time>2019-08-16T06:45:08Z</time>
      </trkpt>
      <trkpt lat="41.9855880" lon="-6.1072180">
        <ele>749.8</ele>
        <time>2019-08-16T06:45:09Z</time>
      </trkpt>
      <trkpt lat="41.9855790" lon="-6.1072820">
        <ele>749.8</ele>
        <time>2019-08-16T06:45:10Z</time>
      </trkpt>
      <trkpt lat="41.9855690" lon="-6.1073470">
        <ele>749.8</ele>
        <time>2019-08-16T06:45:11Z</time>
      </trkpt>
      <trkpt lat="41.9855600" lon="-6.1074140">
        <ele>749.9</ele>
        <time>2019-08-16T06:45:12Z</time>
      </trkpt>
      <trkpt lat="41.9855520" lon="-6.1074830">
        <ele>749.9</ele>
        <time>2019-08-16T06:45:13Z</time>
      </trkpt>
      <trkpt lat="41.9855440" lon="-6.1075530">
        <ele>749.9</ele>
        <time>2019-08-16T06:45:14Z</time>
      </trkpt>
      <trkpt lat="41.9855380" lon="-6.1076240">
        <ele>750.0</ele>
        <time>2019-08-16T06:45:15Z</time>
      </trkpt>
      <trkpt lat="41.9855300" lon="-6.1076960">
        <ele>750.0</ele>
        <time>2019-08-16T06:45:16Z</time>
      </trkpt>
      <trkpt lat="41.9855220" lon="-6.1077680">
        <ele>750.1</ele>
        <time>2019-08-16T06:45:17Z</time>
      </trkpt>
      <trkpt lat="41.9855130" lon="-6.1078390">
        <ele>750.1</ele>
        <time>2019-08-16T06:45:18Z</time>
      </trkpt>
      <trkpt lat="41.9855050" lon="-6.1079100">
        <ele>750.1</ele>
        <time>2019-08-16T06:45:19Z</time>
      </trkpt>
      <trkpt lat="41.9854950" lon="-6.1079810">
        <ele>750.2</ele>
        <time>2019-08-16T06:45:20Z</time>
      </trkpt>
      <trkpt lat="41.9854850" lon="-6.1080500">
        <ele>750.2</ele>
        <time>2019-08-16T06:45:21Z</time>
      </trkpt>
      <trkpt lat="41.9854780" lon="-6.1081190">
        <ele>750.2</ele>
        <time>2019-08-16T06:45:22Z</time>
      </trkpt>
      <trkpt lat="41.9854690" lon="-6.1081870">
        <ele>750.3</ele>
        <time>2019-08-16T06:45:23Z</time>
      </trkpt>
      <trkpt lat="41.9854600" lon="-6.1082550">
        <ele>750.3</ele>
        <time>2019-08-16T06:45:24Z</time>
      </trkpt>
      <trkpt lat="41.9854510" lon="-6.1083230">
        <ele>750.3</ele>
        <time>2019-08-16T06:45:25Z</time>
      </trkpt>
      <trkpt lat="41.9854410" lon="-6.1083900">
        <ele>750.3</ele>
        <time>2019-08-16T06:45:26Z</time>
      </trkpt>
      <trkpt lat="41.9854310" lon="-6.1084580">
        <ele>750.4</ele>
        <time>2019-08-16T06:45:27Z</time>
      </trkpt>
      <trkpt lat="41.9854220" lon="-6.1085280">
        <ele>750.4</ele>
        <time>2019-08-16T06:45:28Z</time>
      </trkpt>
      <trkpt lat="41.9854140" lon="-6.1085970">
        <ele>750.4</ele>
        <time>2019-08-16T06:45:29Z</time>
      </trkpt>
      <trkpt lat="41.9854070" lon="-6.1086650">
        <ele>750.4</ele>
        <time>2019-08-16T06:45:30Z</time>
      </trkpt>
      <trkpt lat="41.9853980" lon="-6.1087340">
        <ele>750.4</ele>
        <time>2019-08-16T06:45:31Z</time>
      </trkpt>
      <trkpt lat="41.9853890" lon="-6.1088010">
        <ele>750.4</ele>
        <time>2019-08-16T06:45:32Z</time>
      </trkpt>
      <trkpt lat="41.9853790" lon="-6.1088690">
        <ele>750.5</ele>
        <time>2019-08-16T06:45:33Z</time>
      </trkpt>
      <trkpt lat="41.9853700" lon="-6.1089350">
        <ele>750.5</ele>
        <time>2019-08-16T06:45:34Z</time>
      </trkpt>
      <trkpt lat="41.9853620" lon="-6.1090020">
        <ele>750.5</ele>
        <time>2019-08-16T06:45:35Z</time>
      </trkpt>
      <trkpt lat="41.9853530" lon="-6.1090680">
        <ele>750.5</ele>
        <time>2019-08-16T06:45:36Z</time>
      </trkpt>
      <trkpt lat="41.9853430" lon="-6.1091360">
        <ele>750.5</ele>
        <time>2019-08-16T06:45:37Z</time>
      </trkpt>
      <trkpt lat="41.9853330" lon="-6.1092040">
        <ele>750.5</ele>
        <time>2019-08-16T06:45:38Z</time>
      </trkpt>
      <trkpt lat="41.9853240" lon="-6.1092680">
        <ele>750.5</ele>
        <time>2019-08-16T06:45:39Z</time>
      </trkpt>
      <trkpt lat="41.9853140" lon="-6.1093290">
        <ele>750.5</ele>
        <time>2019-08-16T06:45:40Z</time>
      </trkpt>
      <trkpt lat="41.9853060" lon="-6.1093880">
        <ele>750.5</ele>
        <time>2019-08-16T06:45:41Z</time>
      </trkpt>
      <trkpt lat="41.9852990" lon="-6.1094500">
        <ele>750.5</ele>
        <time>2019-08-16T06:45:42Z</time>
      </trkpt>
      <trkpt lat="41.9852920" lon="-6.1095140">
        <ele>750.5</ele>
        <time>2019-08-16T06:45:43Z</time>
      </trkpt>
      <trkpt lat="41.9852840" lon="-6.1095770">
        <ele>750.5</ele>
        <time>2019-08-16T06:45:44Z</time>
      </trkpt>
      <trkpt lat="41.9852750" lon="-6.1096400">
        <ele>750.5</ele>
        <time>2019-08-16T06:45:45Z</time>
      </trkpt>
      <trkpt lat="41.9852630" lon="-6.1097040">
        <ele>750.5</ele>
        <time>2019-08-16T06:45:46Z</time>
      </trkpt>
      <trkpt lat="41.9852530" lon="-6.1097680">
        <ele>750.5</ele>
        <time>2019-08-16T06:45:47Z</time>
      </trkpt>
      <trkpt lat="41.9852450" lon="-6.1098330">
        <ele>750.6</ele>
        <time>2019-08-16T06:45:48Z</time>
      </trkpt>
      <trkpt lat="41.9852380" lon="-6.1098970">
        <ele>750.7</ele>
        <time>2019-08-16T06:45:49Z</time>
      </trkpt>
      <trkpt lat="41.9852330" lon="-6.1099600">
        <ele>750.7</ele>
        <time>2019-08-16T06:45:50Z</time>
      </trkpt>
      <trkpt lat="41.9852290" lon="-6.1100240">
        <ele>750.8</ele>
        <time>2019-08-16T06:45:51Z</time>
      </trkpt>
      <trkpt lat="41.9852270" lon="-6.1100870">
        <ele>750.9</ele>
        <time>2019-08-16T06:45:52Z</time>
      </trkpt>
      <trkpt lat="41.9852270" lon="-6.1101510">
        <ele>750.9</ele>
        <time>2019-08-16T06:45:53Z</time>
      </trkpt>
      <trkpt lat="41.9852290" lon="-6.1102150">
        <ele>751.0</ele>
        <time>2019-08-16T06:45:54Z</time>
      </trkpt>
      <trkpt lat="41.9852340" lon="-6.1102790">
        <ele>751.1</ele>
        <time>2019-08-16T06:45:55Z</time>
      </trkpt>
      <trkpt lat="41.9852400" lon="-6.1103430">
        <ele>751.2</ele>
        <time>2019-08-16T06:45:56Z</time>
      </trkpt>
      <trkpt lat="41.9852500" lon="-6.1104060">
        <ele>751.3</ele>
        <time>2019-08-16T06:45:57Z</time>
      </trkpt>
      <trkpt lat="41.9852610" lon="-6.1104700">
        <ele>751.3</ele>
        <time>2019-08-16T06:45:58Z</time>
      </trkpt>
      <trkpt lat="41.9852720" lon="-6.1105330">
        <ele>751.4</ele>
        <time>2019-08-16T06:45:59Z</time>
      </trkpt>
      <trkpt lat="41.9852840" lon="-6.1105960">
        <ele>751.4</ele>
        <time>2019-08-16T06:46:00Z</time>
      </trkpt>
      <trkpt lat="41.9852950" lon="-6.1106560">
        <ele>751.5</ele>
        <time>2019-08-16T06:46:01Z</time>
      </trkpt>
      <trkpt lat="41.9853070" lon="-6.1107170">
        <ele>751.5</ele>
        <time>2019-08-16T06:46:02Z</time>
      </trkpt>
      <trkpt lat="41.9853210" lon="-6.1107780">
        <ele>751.6</ele>
        <time>2019-08-16T06:46:03Z</time>
      </trkpt>
      <trkpt lat="41.9853360" lon="-6.1108400">
        <ele>751.6</ele>
        <time>2019-08-16T06:46:04Z</time>
      </trkpt>
      <trkpt lat="41.9853550" lon="-6.1109010">
        <ele>751.7</ele>
        <time>2019-08-16T06:46:05Z</time>
      </trkpt>
      <trkpt lat="41.9853770" lon="-6.1109600">
        <ele>751.7</ele>
        <time>2019-08-16T06:46:06Z</time>
      </trkpt>
      <trkpt lat="41.9854020" lon="-6.1110180">
        <ele>751.8</ele>
        <time>2019-08-16T06:46:07Z</time>
      </trkpt>
      <trkpt lat="41.9854290" lon="-6.1110760">
        <ele>751.8</ele>
        <time>2019-08-16T06:46:08Z</time>
      </trkpt>
      <trkpt lat="41.9854580" lon="-6.1111330">
        <ele>751.8</ele>
        <time>2019-08-16T06:46:09Z</time>
      </trkpt>
      <trkpt lat="41.9854870" lon="-6.1111880">
        <ele>751.9</ele>
        <time>2019-08-16T06:46:10Z</time>
      </trkpt>
      <trkpt lat="41.9855150" lon="-6.1112450">
        <ele>751.9</ele>
        <time>2019-08-16T06:46:11Z</time>
      </trkpt>
      <trkpt lat="41.9855450" lon="-6.1113010">
        <ele>751.9</ele>
        <time>2019-08-16T06:46:12Z</time>
      </trkpt>
      <trkpt lat="41.9855760" lon="-6.1113560">
        <ele>751.8</ele>
        <time>2019-08-16T06:46:13Z</time>
      </trkpt>
      <trkpt lat="41.9856050" lon="-6.1114100">
        <ele>751.8</ele>
        <time>2019-08-16T06:46:14Z</time>
      </trkpt>
      <trkpt lat="41.9856330" lon="-6.1114630">
        <ele>751.8</ele>
        <time>2019-08-16T06:46:15Z</time>
      </trkpt>
      <trkpt lat="41.9856620" lon="-6.1115170">
        <ele>751.8</ele>
        <time>2019-08-16T06:46:16Z</time>
      </trkpt>
      <trkpt lat="41.9856910" lon="-6.1115710">
        <ele>751.8</ele>
        <time>2019-08-16T06:46:17Z</time>
      </trkpt>
      <trkpt lat="41.9857180" lon="-6.1116280">
        <ele>751.7</ele>
        <time>2019-08-16T06:46:18Z</time>
      </trkpt>
      <trkpt lat="41.9857460" lon="-6.1116850">
        <ele>751.7</ele>
        <time>2019-08-16T06:46:19Z</time>
      </trkpt>
      <trkpt lat="41.9857750" lon="-6.1117420">
        <ele>751.7</ele>
        <time>2019-08-16T06:46:20Z</time>
      </trkpt>
      <trkpt lat="41.9858060" lon="-6.1117970">
        <ele>751.7</ele>
        <time>2019-08-16T06:46:21Z</time>
      </trkpt>
      <trkpt lat="41.9858370" lon="-6.1118530">
        <ele>751.7</ele>
        <time>2019-08-16T06:46:22Z</time>
      </trkpt>
      <trkpt lat="41.9858680" lon="-6.1119100">
        <ele>751.6</ele>
        <time>2019-08-16T06:46:23Z</time>
      </trkpt>
      <trkpt lat="41.9858960" lon="-6.1119680">
        <ele>751.6</ele>
        <time>2019-08-16T06:46:24Z</time>
      </trkpt>
      <trkpt lat="41.9859240" lon="-6.1120240">
        <ele>751.6</ele>
        <time>2019-08-16T06:46:25Z</time>
      </trkpt>
      <trkpt lat="41.9859510" lon="-6.1120790">
        <ele>751.5</ele>
        <time>2019-08-16T06:46:26Z</time>
      </trkpt>
      <trkpt lat="41.9859770" lon="-6.1121350">
        <ele>751.5</ele>
        <time>2019-08-16T06:46:27Z</time>
      </trkpt>
      <trkpt lat="41.9860020" lon="-6.1121910">
        <ele>751.5</ele>
        <time>2019-08-16T06:46:28Z</time>
      </trkpt>
      <trkpt lat="41.9860250" lon="-6.1122500">
        <ele>751.4</ele>
        <time>2019-08-16T06:46:29Z</time>
      </trkpt>
      <trkpt lat="41.9860470" lon="-6.1123100">
        <ele>751.4</ele>
        <time>2019-08-16T06:46:30Z</time>
      </trkpt>
      <trkpt lat="41.9860650" lon="-6.1123710">
        <ele>751.3</ele>
        <time>2019-08-16T06:46:31Z</time>
      </trkpt>
      <trkpt lat="41.9860790" lon="-6.1124330">
        <ele>751.3</ele>
        <time>2019-08-16T06:46:32Z</time>
      </trkpt>
      <trkpt lat="41.9860930" lon="-6.1124990">
        <ele>751.2</ele>
        <time>2019-08-16T06:46:33Z</time>
      </trkpt>
      <trkpt lat="41.9861060" lon="-6.1125660">
        <ele>751.2</ele>
        <time>2019-08-16T06:46:34Z</time>
      </trkpt>
      <trkpt lat="41.9861190" lon="-6.1126340">
        <ele>751.2</ele>
        <time>2019-08-16T06:46:35Z</time>
      </trkpt>
      <trkpt lat="41.9861310" lon="-6.1127020">
        <ele>751.1</ele>
        <time>2019-08-16T06:46:36Z</time>
      </trkpt>
      <trkpt lat="41.9861430" lon="-6.1127690">
        <ele>751.1</ele>
        <time>2019-08-16T06:46:37Z</time>
      </trkpt>
      <trkpt lat="41.9861550" lon="-6.1128330">
        <ele>751.0</ele>
        <time>2019-08-16T06:46:38Z</time>
      </trkpt>
      <trkpt lat="41.9861660" lon="-6.1128990">
        <ele>751.0</ele>
        <time>2019-08-16T06:46:39Z</time>
      </trkpt>
      <trkpt lat="41.9861760" lon="-6.1129660">
        <ele>751.0</ele>
        <time>2019-08-16T06:46:40Z</time>
      </trkpt>
      <trkpt lat="41.9861870" lon="-6.1130350">
        <ele>750.9</ele>
        <time>2019-08-16T06:46:41Z</time>
      </trkpt>
      <trkpt lat="41.9861990" lon="-6.1131030">
        <ele>750.9</ele>
        <time>2019-08-16T06:46:42Z</time>
      </trkpt>
      <trkpt lat="41.9862120" lon="-6.1131700">
        <ele>750.9</ele>
        <time>2019-08-16T06:46:43Z</time>
      </trkpt>
      <trkpt lat="41.9862250" lon="-6.1132390">
        <ele>750.8</ele>
        <time>2019-08-16T06:46:44Z</time>
      </trkpt>
      <trkpt lat="41.9862380" lon="-6.1133080">
        <ele>750.8</ele>
        <time>2019-08-16T06:46:45Z</time>
      </trkpt>
      <trkpt lat="41.9862520" lon="-6.1133780">
        <ele>750.8</ele>
        <time>2019-08-16T06:46:46Z</time>
      </trkpt>
      <trkpt lat="41.9862660" lon="-6.1134480">
        <ele>750.9</ele>
        <time>2019-08-16T06:46:47Z</time>
      </trkpt>
      <trkpt lat="41.9862800" lon="-6.1135170">
        <ele>750.9</ele>
        <time>2019-08-16T06:46:48Z</time>
      </trkpt>
      <trkpt lat="41.9862930" lon="-6.1135880">
        <ele>751.0</ele>
        <time>2019-08-16T06:46:49Z</time>
      </trkpt>
      <trkpt lat="41.9863050" lon="-6.1136600">
        <ele>751.0</ele>
        <time>2019-08-16T06:46:50Z</time>
      </trkpt>
      <trkpt lat="41.9863180" lon="-6.1137300">
        <ele>751.0</ele>
        <time>2019-08-16T06:46:51Z</time>
      </trkpt>
      <trkpt lat="41.9863300" lon="-6.1137980">
        <ele>751.1</ele>
        <time>2019-08-16T06:46:52Z</time>
      </trkpt>
      <trkpt lat="41.9863430" lon="-6.1138630">
        <ele>751.1</ele>
        <time>2019-08-16T06:46:53Z</time>
      </trkpt>
      <trkpt lat="41.9863560" lon="-6.1139290">
        <ele>751.2</ele>
        <time>2019-08-16T06:46:54Z</time>
      </trkpt>
      <trkpt lat="41.9863690" lon="-6.1139970">
        <ele>751.2</ele>
        <time>2019-08-16T06:46:55Z</time>
      </trkpt>
      <trkpt lat="41.9863810" lon="-6.1140660">
        <ele>751.2</ele>
        <time>2019-08-16T06:46:56Z</time>
      </trkpt>
      <trkpt lat="41.9863950" lon="-6.1141360">
        <ele>751.2</ele>
        <time>2019-08-16T06:46:57Z</time>
      </trkpt>
      <trkpt lat="41.9864070" lon="-6.1142050">
        <ele>751.2</ele>
        <time>2019-08-16T06:46:58Z</time>
      </trkpt>
      <trkpt lat="41.9864160" lon="-6.1142680">
        <ele>751.2</ele>
        <time>2019-08-16T06:46:59Z</time>
      </trkpt>
      <trkpt lat="41.9864260" lon="-6.1143290">
        <ele>751.2</ele>
        <time>2019-08-16T06:47:00Z</time>
      </trkpt>
      <trkpt lat="41.9864340" lon="-6.1143920">
        <ele>751.2</ele>
        <time>2019-08-16T06:47:01Z</time>
      </trkpt>
      <trkpt lat="41.9864430" lon="-6.1144550">
        <ele>751.3</ele>
        <time>2019-08-16T06:47:02Z</time>
      </trkpt>
      <trkpt lat="41.9864520" lon="-6.1145190">
        <ele>751.3</ele>
        <time>2019-08-16T06:47:03Z</time>
      </trkpt>
      <trkpt lat="41.9864610" lon="-6.1145810">
        <ele>751.4</ele>
        <time>2019-08-16T06:47:04Z</time>
      </trkpt>
      <trkpt lat="41.9864700" lon="-6.1146420">
        <ele>751.5</ele>
        <time>2019-08-16T06:47:05Z</time>
      </trkpt>
      <trkpt lat="41.9864790" lon="-6.1147020">
        <ele>751.6</ele>
        <time>2019-08-16T06:47:06Z</time>
      </trkpt>
      <trkpt lat="41.9864840" lon="-6.1147610">
        <ele>751.7</ele>
        <time>2019-08-16T06:47:07Z</time>
      </trkpt>
      <trkpt lat="41.9864900" lon="-6.1148190">
        <ele>751.8</ele>
        <time>2019-08-16T06:47:08Z</time>
      </trkpt>
      <trkpt lat="41.9864960" lon="-6.1148760">
        <ele>752.0</ele>
        <time>2019-08-16T06:47:09Z</time>
      </trkpt>
      <trkpt lat="41.9865010" lon="-6.1149330">
        <ele>752.1</ele>
        <time>2019-08-16T06:47:10Z</time>
      </trkpt>
      <trkpt lat="41.9865060" lon="-6.1149890">
        <ele>752.3</ele>
        <time>2019-08-16T06:47:11Z</time>
      </trkpt>
      <trkpt lat="41.9865110" lon="-6.1150440">
        <ele>752.4</ele>
        <time>2019-08-16T06:47:12Z</time>
      </trkpt>
      <trkpt lat="41.9865180" lon="-6.1151000">
        <ele>752.5</ele>
        <time>2019-08-16T06:47:13Z</time>
      </trkpt>
      <trkpt lat="41.9865250" lon="-6.1151580">
        <ele>752.6</ele>
        <time>2019-08-16T06:47:14Z</time>
      </trkpt>
      <trkpt lat="41.9865310" lon="-6.1152160">
        <ele>752.8</ele>
        <time>2019-08-16T06:47:15Z</time>
      </trkpt>
      <trkpt lat="41.9865370" lon="-6.1152750">
        <ele>752.9</ele>
        <time>2019-08-16T06:47:16Z</time>
      </trkpt>
      <trkpt lat="41.9865440" lon="-6.1153360">
        <ele>753.0</ele>
        <time>2019-08-16T06:47:17Z</time>
      </trkpt>
      <trkpt lat="41.9865510" lon="-6.1153970">
        <ele>753.1</ele>
        <time>2019-08-16T06:47:18Z</time>
      </trkpt>
      <trkpt lat="41.9865580" lon="-6.1154570">
        <ele>753.1</ele>
        <time>2019-08-16T06:47:19Z</time>
      </trkpt>
      <trkpt lat="41.9865620" lon="-6.1155170">
        <ele>753.1</ele>
        <time>2019-08-16T06:47:20Z</time>
      </trkpt>
      <trkpt lat="41.9865680" lon="-6.1155780">
        <ele>753.2</ele>
        <time>2019-08-16T06:47:21Z</time>
      </trkpt>
      <trkpt lat="41.9865730" lon="-6.1156390">
        <ele>753.2</ele>
        <time>2019-08-16T06:47:22Z</time>
      </trkpt>
      <trkpt lat="41.9865750" lon="-6.1157000">
        <ele>753.2</ele>
        <time>2019-08-16T06:47:23Z</time>
      </trkpt>
      <trkpt lat="41.9865770" lon="-6.1157620">
        <ele>753.2</ele>
        <time>2019-08-16T06:47:24Z</time>
      </trkpt>
      <trkpt lat="41.9865780" lon="-6.1158250">
        <ele>753.2</ele>
        <time>2019-08-16T06:47:25Z</time>
      </trkpt>
      <trkpt lat="41.9865780" lon="-6.1158880">
        <ele>753.3</ele>
        <time>2019-08-16T06:47:26Z</time>
      </trkpt>
      <trkpt lat="41.9865790" lon="-6.1159510">
        <ele>753.3</ele>
        <time>2019-08-16T06:47:27Z</time>
      </trkpt>
      <trkpt lat="41.9865810" lon="-6.1160150">
        <ele>753.3</ele>
        <time>2019-08-16T06:47:28Z</time>
      </trkpt>
      <trkpt lat="41.9865840" lon="-6.1160780">
        <ele>753.3</ele>
        <time>2019-08-16T06:47:29Z</time>
      </trkpt>
      <trkpt lat="41.9865860" lon="-6.1161420">
        <ele>753.3</ele>
        <time>2019-08-16T06:47:30Z</time>
      </trkpt>
      <trkpt lat="41.9865880" lon="-6.1162060">
        <ele>753.3</ele>
        <time>2019-08-16T06:47:31Z</time>
      </trkpt>
      <trkpt lat="41.9865890" lon="-6.1162700">
        <ele>753.3</ele>
        <time>2019-08-16T06:47:32Z</time>
      </trkpt>
      <trkpt lat="41.9865890" lon="-6.1163340">
        <ele>753.3</ele>
        <time>2019-08-16T06:47:33Z</time>
      </trkpt>
      <trkpt lat="41.9865900" lon="-6.1163980">
        <ele>753.3</ele>
        <time>2019-08-16T06:47:34Z</time>
      </trkpt>
      <trkpt lat="41.9865910" lon="-6.1164630">
        <ele>753.3</ele>
        <time>2019-08-16T06:47:35Z</time>
      </trkpt>
      <trkpt lat="41.9865910" lon="-6.1165290">
        <ele>753.3</ele>
        <time>2019-08-16T06:47:36Z</time>
      </trkpt>
      <trkpt lat="41.9865900" lon="-6.1165950">
        <ele>753.3</ele>
        <time>2019-08-16T06:47:37Z</time>
      </trkpt>
      <trkpt lat="41.9865890" lon="-6.1166620">
        <ele>753.3</ele>
        <time>2019-08-16T06:47:38Z</time>
      </trkpt>
      <trkpt lat="41.9865900" lon="-6.1167290">
        <ele>753.3</ele>
        <time>2019-08-16T06:47:39Z</time>
      </trkpt>
      <trkpt lat="41.9865910" lon="-6.1167960">
        <ele>753.3</ele>
        <time>2019-08-16T06:47:40Z</time>
      </trkpt>
      <trkpt lat="41.9865920" lon="-6.1168630">
        <ele>753.3</ele>
        <time>2019-08-16T06:47:41Z</time>
      </trkpt>
      <trkpt lat="41.9865920" lon="-6.1169300">
        <ele>753.3</ele>
        <time>2019-08-16T06:47:42Z</time>
      </trkpt>
      <trkpt lat="41.9865920" lon="-6.1169970">
        <ele>753.3</ele>
        <time>2019-08-16T06:47:43Z</time>
      </trkpt>
      <trkpt lat="41.9865920" lon="-6.1170640">
        <ele>753.3</ele>
        <time>2019-08-16T06:47:44Z</time>
      </trkpt>
      <trkpt lat="41.9865920" lon="-6.1171310">
        <ele>753.3</ele>
        <time>2019-08-16T06:47:45Z</time>
      </trkpt>
      <trkpt lat="41.9865920" lon="-6.1171990">
        <ele>753.3</ele>
        <time>2019-08-16T06:47:46Z</time>
      </trkpt>
      <trkpt lat="41.9865920" lon="-6.1172660">
        <ele>753.3</ele>
        <time>2019-08-16T06:47:47Z</time>
      </trkpt>
      <trkpt lat="41.9865920" lon="-6.1173330">
        <ele>753.4</ele>
        <time>2019-08-16T06:47:48Z</time>
      </trkpt>
      <trkpt lat="41.9865920" lon="-6.1174000">
        <ele>753.4</ele>
        <time>2019-08-16T06:47:49Z</time>
      </trkpt>
      <trkpt lat="41.9865930" lon="-6.1174660">
        <ele>753.4</ele>
        <time>2019-08-16T06:47:50Z</time>
      </trkpt>
      <trkpt lat="41.9865930" lon="-6.1175330">
        <ele>753.4</ele>
        <time>2019-08-16T06:47:51Z</time>
      </trkpt>
      <trkpt lat="41.9865940" lon="-6.1175970">
        <ele>753.4</ele>
        <time>2019-08-16T06:47:52Z</time>
      </trkpt>
      <trkpt lat="41.9865950" lon="-6.1176630">
        <ele>753.4</ele>
        <time>2019-08-16T06:47:53Z</time>
      </trkpt>
      <trkpt lat="41.9865960" lon="-6.1177310">
        <ele>753.4</ele>
        <time>2019-08-16T06:47:54Z</time>
      </trkpt>
      <trkpt lat="41.9865970" lon="-6.1178000">
        <ele>753.4</ele>
        <time>2019-08-16T06:47:55Z</time>
      </trkpt>
      <trkpt lat="41.9866000" lon="-6.1178680">
        <ele>753.4</ele>
        <time>2019-08-16T06:47:56Z</time>
      </trkpt>
      <trkpt lat="41.9866020" lon="-6.1179360">
        <ele>753.4</ele>
        <time>2019-08-16T06:47:57Z</time>
      </trkpt>
      <trkpt lat="41.9866030" lon="-6.1180040">
        <ele>753.4</ele>
        <time>2019-08-16T06:47:58Z</time>
      </trkpt>
      <trkpt lat="41.9866030" lon="-6.1180720">
        <ele>753.4</ele>
        <time>2019-08-16T06:47:59Z</time>
      </trkpt>
      <trkpt lat="41.9866030" lon="-6.1181410">
        <ele>753.4</ele>
        <time>2019-08-16T06:48:00Z</time>
      </trkpt>
      <trkpt lat="41.9866040" lon="-6.1182090">
        <ele>753.4</ele>
        <time>2019-08-16T06:48:01Z</time>
      </trkpt>
      <trkpt lat="41.9866050" lon="-6.1182730">
        <ele>753.4</ele>
        <time>2019-08-16T06:48:02Z</time>
      </trkpt>
      <trkpt lat="41.9866050" lon="-6.1183370">
        <ele>753.4</ele>
        <time>2019-08-16T06:48:03Z</time>
      </trkpt>
      <trkpt lat="41.9866050" lon="-6.1184020">
        <ele>753.4</ele>
        <time>2019-08-16T06:48:04Z</time>
      </trkpt>
      <trkpt lat="41.9866050" lon="-6.1184690">
        <ele>753.4</ele>
        <time>2019-08-16T06:48:05Z</time>
      </trkpt>
      <trkpt lat="41.9866060" lon="-6.1185380">
        <ele>753.4</ele>
        <time>2019-08-16T06:48:06Z</time>
      </trkpt>
      <trkpt lat="41.9866080" lon="-6.1186060">
        <ele>753.4</ele>
        <time>2019-08-16T06:48:07Z</time>
      </trkpt>
      <trkpt lat="41.9866090" lon="-6.1186760">
        <ele>753.4</ele>
        <time>2019-08-16T06:48:08Z</time>
      </trkpt>
      <trkpt lat="41.9866110" lon="-6.1187450">
        <ele>753.4</ele>
        <time>2019-08-16T06:48:09Z</time>
      </trkpt>
      <trkpt lat="41.9866130" lon="-6.1188150">
        <ele>753.4</ele>
        <time>2019-08-16T06:48:10Z</time>
      </trkpt>
      <trkpt lat="41.9866150" lon="-6.1188840">
        <ele>753.5</ele>
        <time>2019-08-16T06:48:11Z</time>
      </trkpt>
      <trkpt lat="41.9866160" lon="-6.1189530">
        <ele>753.5</ele>
        <time>2019-08-16T06:48:12Z</time>
      </trkpt>
      <trkpt lat="41.9866150" lon="-6.1190210">
        <ele>753.5</ele>
        <time>2019-08-16T06:48:13Z</time>
      </trkpt>
      <trkpt lat="41.9866150" lon="-6.1190900">
        <ele>753.5</ele>
        <time>2019-08-16T06:48:14Z</time>
      </trkpt>
      <trkpt lat="41.9866140" lon="-6.1191570">
        <ele>753.5</ele>
        <time>2019-08-16T06:48:15Z</time>
      </trkpt>
      <trkpt lat="41.9866140" lon="-6.1192220">
        <ele>753.5</ele>
        <time>2019-08-16T06:48:16Z</time>
      </trkpt>
      <trkpt lat="41.9866130" lon="-6.1192850">
        <ele>753.6</ele>
        <time>2019-08-16T06:48:17Z</time>
      </trkpt>
      <trkpt lat="41.9866120" lon="-6.1193480">
        <ele>753.7</ele>
        <time>2019-08-16T06:48:18Z</time>
      </trkpt>
      <trkpt lat="41.9866120" lon="-6.1194130">
        <ele>753.8</ele>
        <time>2019-08-16T06:48:19Z</time>
      </trkpt>
      <trkpt lat="41.9866140" lon="-6.1194790">
        <ele>753.8</ele>
        <time>2019-08-16T06:48:20Z</time>
      </trkpt>
      <trkpt lat="41.9866170" lon="-6.1195470">
        <ele>754.0</ele>
        <time>2019-08-16T06:48:21Z</time>
      </trkpt>
      <trkpt lat="41.9866200" lon="-6.1196150">
        <ele>754.1</ele>
        <time>2019-08-16T06:48:22Z</time>
      </trkpt>
      <trkpt lat="41.9866220" lon="-6.1196850">
        <ele>754.2</ele>
        <time>2019-08-16T06:48:23Z</time>
      </trkpt>
      <trkpt lat="41.9866220" lon="-6.1197550">
        <ele>754.3</ele>
        <time>2019-08-16T06:48:24Z</time>
      </trkpt>
      <trkpt lat="41.9866220" lon="-6.1198260">
        <ele>754.4</ele>
        <time>2019-08-16T06:48:25Z</time>
      </trkpt>
      <trkpt lat="41.9866230" lon="-6.1198960">
        <ele>754.4</ele>
        <time>2019-08-16T06:48:26Z</time>
      </trkpt>
      <trkpt lat="41.9866230" lon="-6.1199640">
        <ele>754.5</ele>
        <time>2019-08-16T06:48:27Z</time>
      </trkpt>
      <trkpt lat="41.9866250" lon="-6.1200290">
        <ele>754.5</ele>
        <time>2019-08-16T06:48:28Z</time>
      </trkpt>
      <trkpt lat="41.9866280" lon="-6.1200930">
        <ele>754.5</ele>
        <time>2019-08-16T06:48:29Z</time>
      </trkpt>
      <trkpt lat="41.9866310" lon="-6.1201580">
        <ele>754.5</ele>
        <time>2019-08-16T06:48:30Z</time>
      </trkpt>
      <trkpt lat="41.9866380" lon="-6.1202220">
        <ele>754.5</ele>
        <time>2019-08-16T06:48:31Z</time>
      </trkpt>
      <trkpt lat="41.9866470" lon="-6.1202880">
        <ele>754.5</ele>
        <time>2019-08-16T06:48:32Z</time>
      </trkpt>
      <trkpt lat="41.9866550" lon="-6.1203520">
        <ele>754.5</ele>
        <time>2019-08-16T06:48:33Z</time>
      </trkpt>
      <trkpt lat="41.9866630" lon="-6.1204170">
        <ele>754.5</ele>
        <time>2019-08-16T06:48:34Z</time>
      </trkpt>
      <trkpt lat="41.9866710" lon="-6.1204820">
        <ele>754.5</ele>
        <time>2019-08-16T06:48:35Z</time>
      </trkpt>
      <trkpt lat="41.9866790" lon="-6.1205480">
        <ele>754.6</ele>
        <time>2019-08-16T06:48:36Z</time>
      </trkpt>
      <trkpt lat="41.9866870" lon="-6.1206130">
        <ele>754.6</ele>
        <time>2019-08-16T06:48:37Z</time>
      </trkpt>
      <trkpt lat="41.9866950" lon="-6.1206780">
        <ele>754.6</ele>
        <time>2019-08-16T06:48:38Z</time>
      </trkpt>
      <trkpt lat="41.9867050" lon="-6.1207440">
        <ele>754.6</ele>
        <time>2019-08-16T06:48:39Z</time>
      </trkpt>
      <trkpt lat="41.9867140" lon="-6.1208090">
        <ele>754.6</ele>
        <time>2019-08-16T06:48:40Z</time>
      </trkpt>
      <trkpt lat="41.9867230" lon="-6.1208750">
        <ele>754.6</ele>
        <time>2019-08-16T06:48:41Z</time>
      </trkpt>
      <trkpt lat="41.9867320" lon="-6.1209410">
        <ele>754.6</ele>
        <time>2019-08-16T06:48:42Z</time>
      </trkpt>
      <trkpt lat="41.9867410" lon="-6.1210060">
        <ele>754.6</ele>
        <time>2019-08-16T06:48:43Z</time>
      </trkpt>
      <trkpt lat="41.9867500" lon="-6.1210700">
        <ele>754.6</ele>
        <time>2019-08-16T06:48:44Z</time>
      </trkpt>
      <trkpt lat="41.9867590" lon="-6.1211320">
        <ele>754.6</ele>
        <time>2019-08-16T06:48:45Z</time>
      </trkpt>
      <trkpt lat="41.9867680" lon="-6.1211920">
        <ele>754.6</ele>
        <time>2019-08-16T06:48:46Z</time>
      </trkpt>
      <trkpt lat="41.9867780" lon="-6.1212510">
        <ele>754.6</ele>
        <time>2019-08-16T06:48:47Z</time>
      </trkpt>
      <trkpt lat="41.9867860" lon="-6.1213110">
        <ele>754.6</ele>
        <time>2019-08-16T06:48:48Z</time>
      </trkpt>
      <trkpt lat="41.9867930" lon="-6.1213720">
        <ele>754.6</ele>
        <time>2019-08-16T06:48:49Z</time>
      </trkpt>
      <trkpt lat="41.9868020" lon="-6.1214350">
        <ele>754.6</ele>
        <time>2019-08-16T06:48:50Z</time>
      </trkpt>
      <trkpt lat="41.9868130" lon="-6.1214980">
        <ele>754.6</ele>
        <time>2019-08-16T06:48:51Z</time>
      </trkpt>
      <trkpt lat="41.9868250" lon="-6.1215610">
        <ele>754.6</ele>
        <time>2019-08-16T06:48:52Z</time>
      </trkpt>
      <trkpt lat="41.9868350" lon="-6.1216270">
        <ele>754.6</ele>
        <time>2019-08-16T06:48:53Z</time>
      </trkpt>
      <trkpt lat="41.9868450" lon="-6.1216930">
        <ele>754.6</ele>
        <time>2019-08-16T06:48:54Z</time>
      </trkpt>
      <trkpt lat="41.9868550" lon="-6.1217560">
        <ele>754.6</ele>
        <time>2019-08-16T06:48:55Z</time>
      </trkpt>
      <trkpt lat="41.9868650" lon="-6.1218180">
        <ele>754.6</ele>
        <time>2019-08-16T06:48:56Z</time>
      </trkpt>
      <trkpt lat="41.9868740" lon="-6.1218790">
        <ele>754.6</ele>
        <time>2019-08-16T06:48:57Z</time>
      </trkpt>
      <trkpt lat="41.9868830" lon="-6.1219380">
        <ele>754.6</ele>
        <time>2019-08-16T06:48:58Z</time>
      </trkpt>
      <trkpt lat="41.9868920" lon="-6.1219970">
        <ele>754.6</ele>
        <time>2019-08-16T06:48:59Z</time>
      </trkpt>
      <trkpt lat="41.9869010" lon="-6.1220580">
        <ele>754.6</ele>
        <time>2019-08-16T06:49:00Z</time>
      </trkpt>
      <trkpt lat="41.9869110" lon="-6.1221200">
        <ele>754.6</ele>
        <time>2019-08-16T06:49:01Z</time>
      </trkpt>
      <trkpt lat="41.9869210" lon="-6.1221830">
        <ele>754.7</ele>
        <time>2019-08-16T06:49:02Z</time>
      </trkpt>
      <trkpt lat="41.9869310" lon="-6.1222480">
        <ele>754.7</ele>
        <time>2019-08-16T06:49:03Z</time>
      </trkpt>
      <trkpt lat="41.9869410" lon="-6.1223120">
        <ele>754.7</ele>
        <time>2019-08-16T06:49:04Z</time>
      </trkpt>
      <trkpt lat="41.9869510" lon="-6.1223740">
        <ele>754.7</ele>
        <time>2019-08-16T06:49:05Z</time>
      </trkpt>
      <trkpt lat="41.9869620" lon="-6.1224360">
        <ele>754.7</ele>
        <time>2019-08-16T06:49:06Z</time>
      </trkpt>
      <trkpt lat="41.9869710" lon="-6.1224940">
        <ele>754.7</ele>
        <time>2019-08-16T06:49:07Z</time>
      </trkpt>
      <trkpt lat="41.9869790" lon="-6.1225480">
        <ele>754.7</ele>
        <time>2019-08-16T06:49:08Z</time>
      </trkpt>
      <trkpt lat="41.9869880" lon="-6.1226000">
        <ele>754.7</ele>
        <time>2019-08-16T06:49:09Z</time>
      </trkpt>
      <trkpt lat="41.9869950" lon="-6.1226490">
        <ele>754.7</ele>
        <time>2019-08-16T06:49:10Z</time>
      </trkpt>
      <trkpt lat="41.9870020" lon="-6.1226980">
        <ele>754.7</ele>
        <time>2019-08-16T06:49:11Z</time>
      </trkpt>
      <trkpt lat="41.9870080" lon="-6.1227480">
        <ele>754.7</ele>
        <time>2019-08-16T06:49:12Z</time>
      </trkpt>
      <trkpt lat="41.9870130" lon="-6.1227980">
        <ele>754.7</ele>
        <time>2019-08-16T06:49:13Z</time>
      </trkpt>
      <trkpt lat="41.9870170" lon="-6.1228480">
        <ele>754.7</ele>
        <time>2019-08-16T06:49:14Z</time>
      </trkpt>
      <trkpt lat="41.9870230" lon="-6.1228980">
        <ele>754.7</ele>
        <time>2019-08-16T06:49:15Z</time>
      </trkpt>
      <trkpt lat="41.9870250" lon="-6.1229470">
        <ele>754.7</ele>
        <time>2019-08-16T06:49:16Z</time>
      </trkpt>
      <trkpt lat="41.9870190" lon="-6.1229940">
        <ele>754.7</ele>
        <time>2019-08-16T06:49:17Z</time>
      </trkpt>
      <trkpt lat="41.9870070" lon="-6.1230360">
        <ele>754.7</ele>
        <time>2019-08-16T06:49:18Z</time>
      </trkpt>
      <trkpt lat="41.9869910" lon="-6.1230720">
        <ele>754.7</ele>
        <time>2019-08-16T06:49:19Z</time>
      </trkpt>
      <trkpt lat="41.9869750" lon="-6.1231020">
        <ele>754.7</ele>
        <time>2019-08-16T06:49:20Z</time>
      </trkpt>
      <trkpt lat="41.9869580" lon="-6.1231480">
        <ele>754.7</ele>
        <time>2019-08-16T06:49:22Z</time>
      </trkpt>
      <trkpt lat="41.9869590" lon="-6.1231870">
        <ele>754.7</ele>
        <time>2019-08-16T06:49:25Z</time>
      </trkpt>
      <trkpt lat="41.9869760" lon="-6.1231390">
        <ele>754.7</ele>
        <time>2019-08-16T06:49:46Z</time>
      </trkpt>
      <trkpt lat="41.9869780" lon="-6.1230990">
        <ele>754.7</ele>
        <time>2019-08-16T06:49:49Z</time>
      </trkpt>
      <trkpt lat="41.9869450" lon="-6.1231280">
        <ele>754.7</ele>
        <time>2019-08-16T06:53:41Z</time>
      </trkpt>
      <trkpt lat="41.9869120" lon="-6.1231460">
        <ele>754.7</ele>
        <time>2019-08-16T06:53:43Z</time>
      </trkpt>
      <trkpt lat="41.9868920" lon="-6.1231900">
        <ele>754.7</ele>
        <time>2019-08-16T06:53:45Z</time>
      </trkpt>
      <trkpt lat="41.9868880" lon="-6.1232300">
        <ele>754.7</ele>
        <time>2019-08-16T06:53:46Z</time>
      </trkpt>
      <trkpt lat="41.9868840" lon="-6.1232690">
        <ele>754.7</ele>
        <time>2019-08-16T06:53:47Z</time>
      </trkpt>
      <trkpt lat="41.9868780" lon="-6.1233120">
        <ele>754.6</ele>
        <time>2019-08-16T06:53:48Z</time>
      </trkpt>
      <trkpt lat="41.9868720" lon="-6.1233540">
        <ele>754.6</ele>
        <time>2019-08-16T06:53:49Z</time>
      </trkpt>
      <trkpt lat="41.9868640" lon="-6.1233990">
        <ele>754.6</ele>
        <time>2019-08-16T06:53:50Z</time>
      </trkpt>
      <trkpt lat="41.9868570" lon="-6.1234470">
        <ele>754.6</ele>
        <time>2019-08-16T06:53:51Z</time>
      </trkpt>
      <trkpt lat="41.9868510" lon="-6.1234960">
        <ele>754.6</ele>
        <time>2019-08-16T06:53:52Z</time>
      </trkpt>
      <trkpt lat="41.9868460" lon="-6.1235480">
        <ele>754.6</ele>
        <time>2019-08-16T06:53:53Z</time>
      </trkpt>
      <trkpt lat="41.9868390" lon="-6.1236010">
        <ele>754.5</ele>
        <time>2019-08-16T06:53:54Z</time>
      </trkpt>
      <trkpt lat="41.9868280" lon="-6.1236540">
        <ele>754.5</ele>
        <time>2019-08-16T06:53:55Z</time>
      </trkpt>
      <trkpt lat="41.9868170" lon="-6.1237040">
        <ele>754.5</ele>
        <time>2019-08-16T06:53:56Z</time>
      </trkpt>
      <trkpt lat="41.9868060" lon="-6.1237540">
        <ele>754.5</ele>
        <time>2019-08-16T06:53:57Z</time>
      </trkpt>
      <trkpt lat="41.9867960" lon="-6.1238020">
        <ele>754.4</ele>
        <time>2019-08-16T06:53:58Z</time>
      </trkpt>
      <trkpt lat="41.9867830" lon="-6.1238500">
        <ele>754.4</ele>
        <time>2019-08-16T06:53:59Z</time>
      </trkpt>
      <trkpt lat="41.9867650" lon="-6.1238990">
        <ele>754.4</ele>
        <time>2019-08-16T06:54:00Z</time>
      </trkpt>
      <trkpt lat="41.9867410" lon="-6.1239490">
        <ele>754.3</ele>
        <time>2019-08-16T06:54:01Z</time>
      </trkpt>
      <trkpt lat="41.9867110" lon="-6.1239930">
        <ele>754.3</ele>
        <time>2019-08-16T06:54:02Z</time>
      </trkpt>
      <trkpt lat="41.9866760" lon="-6.1240350">
        <ele>754.2</ele>
        <time>2019-08-16T06:54:03Z</time>
      </trkpt>
      <trkpt lat="41.9866380" lon="-6.1240740">
        <ele>754.2</ele>
        <time>2019-08-16T06:54:04Z</time>
      </trkpt>
      <trkpt lat="41.9865980" lon="-6.1241120">
        <ele>754.1</ele>
        <time>2019-08-16T06:54:05Z</time>
      </trkpt>
      <trkpt lat="41.9865570" lon="-6.1241500">
        <ele>754.0</ele>
        <time>2019-08-16T06:54:06Z</time>
      </trkpt>
      <trkpt lat="41.9865150" lon="-6.1241890">
        <ele>753.9</ele>
        <time>2019-08-16T06:54:07Z</time>
      </trkpt>
      <trkpt lat="41.9864730" lon="-6.1242310">
        <ele>753.8</ele>
        <time>2019-08-16T06:54:08Z</time>
      </trkpt>
      <trkpt lat="41.9864320" lon="-6.1242750">
        <ele>753.6</ele>
        <time>2019-08-16T06:54:09Z</time>
      </trkpt>
      <trkpt lat="41.9863930" lon="-6.1243200">
        <ele>753.5</ele>
        <time>2019-08-16T06:54:10Z</time>
      </trkpt>
      <trkpt lat="41.9863550" lon="-6.1243660">
        <ele>753.3</ele>
        <time>2019-08-16T06:54:11Z</time>
      </trkpt>
      <trkpt lat="41.9863160" lon="-6.1244130">
        <ele>753.1</ele>
        <time>2019-08-16T06:54:12Z</time>
      </trkpt>
      <trkpt lat="41.9862810" lon="-6.1244590">
        <ele>753.0</ele>
        <time>2019-08-16T06:54:13Z</time>
      </trkpt>
      <trkpt lat="41.9862470" lon="-6.1245070">
        <ele>752.8</ele>
        <time>2019-08-16T06:54:14Z</time>
      </trkpt>
      <trkpt lat="41.9862150" lon="-6.1245560">
        <ele>752.7</ele>
        <time>2019-08-16T06:54:15Z</time>
      </trkpt>
      <trkpt lat="41.9861850" lon="-6.1246040">
        <ele>752.6</ele>
        <time>2019-08-16T06:54:16Z</time>
      </trkpt>
      <trkpt lat="41.9861560" lon="-6.1246500">
        <ele>752.5</ele>
        <time>2019-08-16T06:54:17Z</time>
      </trkpt>
      <trkpt lat="41.9861280" lon="-6.1246980">
        <ele>752.4</ele>
        <time>2019-08-16T06:54:18Z</time>
      </trkpt>
      <trkpt lat="41.9861000" lon="-6.1247470">
        <ele>752.3</ele>
        <time>2019-08-16T06:54:19Z</time>
      </trkpt>
      <trkpt lat="41.9860730" lon="-6.1247930">
        <ele>752.2</ele>
        <time>2019-08-16T06:54:20Z</time>
      </trkpt>
      <trkpt lat="41.9860450" lon="-6.1248390">
        <ele>752.2</ele>
        <time>2019-08-16T06:54:21Z</time>
      </trkpt>
      <trkpt lat="41.9860180" lon="-6.1248850">
        <ele>752.1</ele>
        <time>2019-08-16T06:54:22Z</time>
      </trkpt>
      <trkpt lat="41.9859910" lon="-6.1249330">
        <ele>752.1</ele>
        <time>2019-08-16T06:54:23Z</time>
      </trkpt>
      <trkpt lat="41.9859630" lon="-6.1249790">
        <ele>752.0</ele>
        <time>2019-08-16T06:54:24Z</time>
      </trkpt>
      <trkpt lat="41.9859370" lon="-6.1250250">
        <ele>752.0</ele>
        <time>2019-08-16T06:54:25Z</time>
      </trkpt>
      <trkpt lat="41.9859120" lon="-6.1250690">
        <ele>752.0</ele>
        <time>2019-08-16T06:54:26Z</time>
      </trkpt>
      <trkpt lat="41.9858870" lon="-6.1251130">
        <ele>752.0</ele>
        <time>2019-08-16T06:54:27Z</time>
      </trkpt>
      <trkpt lat="41.9858620" lon="-6.1251560">
        <ele>752.0</ele>
        <time>2019-08-16T06:54:28Z</time>
      </trkpt>
      <trkpt lat="41.9858370" lon="-6.1252000">
        <ele>752.0</ele>
        <time>2019-08-16T06:54:29Z</time>
      </trkpt>
      <trkpt lat="41.9858110" lon="-6.1252440">
        <ele>752.0</ele>
        <time>2019-08-16T06:54:30Z</time>
      </trkpt>
      <trkpt lat="41.9857860" lon="-6.1252870">
        <ele>752.1</ele>
        <time>2019-08-16T06:54:31Z</time>
      </trkpt>
      <trkpt lat="41.9857610" lon="-6.1253300">
        <ele>752.1</ele>
        <time>2019-08-16T06:54:32Z</time>
      </trkpt>
      <trkpt lat="41.9857360" lon="-6.1253730">
        <ele>752.2</ele>
        <time>2019-08-16T06:54:33Z</time>
      </trkpt>
      <trkpt lat="41.9857120" lon="-6.1254140">
        <ele>752.3</ele>
        <time>2019-08-16T06:54:34Z</time>
      </trkpt>
      <trkpt lat="41.9856880" lon="-6.1254550">
        <ele>752.5</ele>
        <time>2019-08-16T06:54:35Z</time>
      </trkpt>
      <trkpt lat="41.9856660" lon="-6.1254940">
        <ele>752.6</ele>
        <time>2019-08-16T06:54:36Z</time>
      </trkpt>
      <trkpt lat="41.9856430" lon="-6.1255310">
        <ele>752.7</ele>
        <time>2019-08-16T06:54:37Z</time>
      </trkpt>
      <trkpt lat="41.9856200" lon="-6.1255670">
        <ele>752.9</ele>
        <time>2019-08-16T06:54:38Z</time>
      </trkpt>
      <trkpt lat="41.9855970" lon="-6.1256020">
        <ele>753.0</ele>
        <time>2019-08-16T06:54:39Z</time>
      </trkpt>
      <trkpt lat="41.9855730" lon="-6.1256370">
        <ele>753.1</ele>
        <time>2019-08-16T06:54:40Z</time>
      </trkpt>
      <trkpt lat="41.9855500" lon="-6.1256740">
        <ele>753.2</ele>
        <time>2019-08-16T06:54:41Z</time>
      </trkpt>
      <trkpt lat="41.9855270" lon="-6.1257090">
        <ele>753.3</ele>
        <time>2019-08-16T06:54:42Z</time>
      </trkpt>
      <trkpt lat="41.9855050" lon="-6.1257450">
        <ele>753.4</ele>
        <time>2019-08-16T06:54:43Z</time>
      </trkpt>
      <trkpt lat="41.9854840" lon="-6.1257800">
        <ele>753.5</ele>
        <time>2019-08-16T06:54:44Z</time>
      </trkpt>
      <trkpt lat="41.9854630" lon="-6.1258150">
        <ele>753.6</ele>
        <time>2019-08-16T06:54:45Z</time>
      </trkpt>
      <trkpt lat="41.9854410" lon="-6.1258490">
        <ele>753.7</ele>
        <time>2019-08-16T06:54:46Z</time>
      </trkpt>
      <trkpt lat="41.9854200" lon="-6.1258850">
        <ele>753.8</ele>
        <time>2019-08-16T06:54:47Z</time>
      </trkpt>
      <trkpt lat="41.9854010" lon="-6.1259210">
        <ele>753.8</ele>
        <time>2019-08-16T06:54:48Z</time>
      </trkpt>
      <trkpt lat="41.9853820" lon="-6.1259570">
        <ele>753.8</ele>
        <time>2019-08-16T06:54:49Z</time>
      </trkpt>
      <trkpt lat="41.9853650" lon="-6.1259930">
        <ele>753.9</ele>
        <time>2019-08-16T06:54:50Z</time>
      </trkpt>
      <trkpt lat="41.9853470" lon="-6.1260270">
        <ele>753.9</ele>
        <time>2019-08-16T06:54:51Z</time>
      </trkpt>
      <trkpt lat="41.9853310" lon="-6.1260650">
        <ele>753.9</ele>
        <time>2019-08-16T06:54:52Z</time>
      </trkpt>
      <trkpt lat="41.9853140" lon="-6.1261030">
        <ele>753.9</ele>
        <time>2019-08-16T06:54:53Z</time>
      </trkpt>
      <trkpt lat="41.9852990" lon="-6.1261420">
        <ele>754.0</ele>
        <time>2019-08-16T06:54:54Z</time>
      </trkpt>
      <trkpt lat="41.9852820" lon="-6.1261830">
        <ele>754.0</ele>
        <time>2019-08-16T06:54:55Z</time>
      </trkpt>
      <trkpt lat="41.9852640" lon="-6.1262210">
        <ele>754.0</ele>
        <time>2019-08-16T06:54:56Z</time>
      </trkpt>
      <trkpt lat="41.9852430" lon="-6.1262590">
        <ele>754.1</ele>
        <time>2019-08-16T06:54:57Z</time>
      </trkpt>
      <trkpt lat="41.9852220" lon="-6.1262980">
        <ele>754.2</ele>
        <time>2019-08-16T06:54:58Z</time>
      </trkpt>
      <trkpt lat="41.9852020" lon="-6.1263360">
        <ele>754.2</ele>
        <time>2019-08-16T06:54:59Z</time>
      </trkpt>
      <trkpt lat="41.9851810" lon="-6.1263740">
        <ele>754.3</ele>
        <time>2019-08-16T06:55:00Z</time>
      </trkpt>
      <trkpt lat="41.9851590" lon="-6.1264110">
        <ele>754.3</ele>
        <time>2019-08-16T06:55:01Z</time>
      </trkpt>
      <trkpt lat="41.9851370" lon="-6.1264480">
        <ele>754.4</ele>
        <time>2019-08-16T06:55:02Z</time>
      </trkpt>
      <trkpt lat="41.9851160" lon="-6.1264850">
        <ele>754.4</ele>
        <time>2019-08-16T06:55:03Z</time>
      </trkpt>
      <trkpt lat="41.9850960" lon="-6.1265230">
        <ele>754.5</ele>
        <time>2019-08-16T06:55:04Z</time>
      </trkpt>
      <trkpt lat="41.9850750" lon="-6.1265610">
        <ele>754.5</ele>
        <time>2019-08-16T06:55:05Z</time>
      </trkpt>
      <trkpt lat="41.9850570" lon="-6.1266010">
        <ele>754.6</ele>
        <time>2019-08-16T06:55:06Z</time>
      </trkpt>
      <trkpt lat="41.9850390" lon="-6.1266400">
        <ele>754.6</ele>
        <time>2019-08-16T06:55:07Z</time>
      </trkpt>
      <trkpt lat="41.9850210" lon="-6.1266810">
        <ele>754.7</ele>
        <time>2019-08-16T06:55:08Z</time>
      </trkpt>
      <trkpt lat="41.9850040" lon="-6.1267230">
        <ele>754.7</ele>
        <time>2019-08-16T06:55:09Z</time>
      </trkpt>
      <trkpt lat="41.9849870" lon="-6.1267660">
        <ele>754.7</ele>
        <time>2019-08-16T06:55:10Z</time>
      </trkpt>
      <trkpt lat="41.9849700" lon="-6.1268090">
        <ele>754.7</ele>
        <time>2019-08-16T06:55:11Z</time>
      </trkpt>
      <trkpt lat="41.9849540" lon="-6.1268530">
        <ele>754.7</ele>
        <time>2019-08-16T06:55:12Z</time>
      </trkpt>
      <trkpt lat="41.9849380" lon="-6.1268980">
        <ele>754.7</ele>
        <time>2019-08-16T06:55:13Z</time>
      </trkpt>
      <trkpt lat="41.9849230" lon="-6.1269420">
        <ele>754.7</ele>
        <time>2019-08-16T06:55:14Z</time>
      </trkpt>
      <trkpt lat="41.9849060" lon="-6.1269880">
        <ele>754.7</ele>
        <time>2019-08-16T06:55:15Z</time>
      </trkpt>
      <trkpt lat="41.9848900" lon="-6.1270340">
        <ele>754.7</ele>
        <time>2019-08-16T06:55:16Z</time>
      </trkpt>
      <trkpt lat="41.9848740" lon="-6.1270820">
        <ele>754.6</ele>
        <time>2019-08-16T06:55:17Z</time>
      </trkpt>
      <trkpt lat="41.9848570" lon="-6.1271300">
        <ele>754.6</ele>
        <time>2019-08-16T06:55:18Z</time>
      </trkpt>
      <trkpt lat="41.9848360" lon="-6.1271760">
        <ele>754.6</ele>
        <time>2019-08-16T06:55:19Z</time>
      </trkpt>
      <trkpt lat="41.9848130" lon="-6.1272210">
        <ele>754.6</ele>
        <time>2019-08-16T06:55:20Z</time>
      </trkpt>
      <trkpt lat="41.9847880" lon="-6.1272650">
        <ele>754.6</ele>
        <time>2019-08-16T06:55:21Z</time>
      </trkpt>
      <trkpt lat="41.9847600" lon="-6.1273070">
        <ele>754.6</ele>
        <time>2019-08-16T06:55:22Z</time>
      </trkpt>
      <trkpt lat="41.9847290" lon="-6.1273450">
        <ele>754.6</ele>
        <time>2019-08-16T06:55:23Z</time>
      </trkpt>
      <trkpt lat="41.9846980" lon="-6.1273820">
        <ele>754.6</ele>
        <time>2019-08-16T06:55:24Z</time>
      </trkpt>
      <trkpt lat="41.9846700" lon="-6.1274220">
        <ele>754.5</ele>
        <time>2019-08-16T06:55:25Z</time>
      </trkpt>
      <trkpt lat="41.9846450" lon="-6.1274670">
        <ele>754.5</ele>
        <time>2019-08-16T06:55:26Z</time>
      </trkpt>
      <trkpt lat="41.9846210" lon="-6.1275140">
        <ele>754.5</ele>
        <time>2019-08-16T06:55:27Z</time>
      </trkpt>
      <trkpt lat="41.9845960" lon="-6.1275630">
        <ele>754.5</ele>
        <time>2019-08-16T06:55:28Z</time>
      </trkpt>
      <trkpt lat="41.9845720" lon="-6.1276120">
        <ele>754.5</ele>
        <time>2019-08-16T06:55:29Z</time>
      </trkpt>
      <trkpt lat="41.9845470" lon="-6.1276600">
        <ele>754.5</ele>
        <time>2019-08-16T06:55:30Z</time>
      </trkpt>
      <trkpt lat="41.9845230" lon="-6.1277080">
        <ele>754.4</ele>
        <time>2019-08-16T06:55:31Z</time>
      </trkpt>
      <trkpt lat="41.9844960" lon="-6.1277570">
        <ele>754.4</ele>
        <time>2019-08-16T06:55:32Z</time>
      </trkpt>
      <trkpt lat="41.9844680" lon="-6.1278050">
        <ele>754.4</ele>
        <time>2019-08-16T06:55:33Z</time>
      </trkpt>
      <trkpt lat="41.9844380" lon="-6.1278510">
        <ele>754.4</ele>
        <time>2019-08-16T06:55:34Z</time>
      </trkpt>
      <trkpt lat="41.9844060" lon="-6.1278960">
        <ele>754.4</ele>
        <time>2019-08-16T06:55:35Z</time>
      </trkpt>
      <trkpt lat="41.9843750" lon="-6.1279400">
        <ele>754.4</ele>
        <time>2019-08-16T06:55:36Z</time>
      </trkpt>
      <trkpt lat="41.9843440" lon="-6.1279820">
        <ele>754.4</ele>
        <time>2019-08-16T06:55:37Z</time>
      </trkpt>
      <trkpt lat="41.9843120" lon="-6.1280250">
        <ele>754.3</ele>
        <time>2019-08-16T06:55:38Z</time>
      </trkpt>
      <trkpt lat="41.9842810" lon="-6.1280700">
        <ele>754.3</ele>
        <time>2019-08-16T06:55:39Z</time>
      </trkpt>
      <trkpt lat="41.9842480" lon="-6.1281140">
        <ele>754.3</ele>
        <time>2019-08-16T06:55:40Z</time>
      </trkpt>
      <trkpt lat="41.9842150" lon="-6.1281590">
        <ele>754.3</ele>
        <time>2019-08-16T06:55:41Z</time>
      </trkpt>
      <trkpt lat="41.9841810" lon="-6.1282040">
        <ele>754.2</ele>
        <time>2019-08-16T06:55:42Z</time>
      </trkpt>
      <trkpt lat="41.9841480" lon="-6.1282480">
        <ele>754.2</ele>
        <time>2019-08-16T06:55:43Z</time>
      </trkpt>
      <trkpt lat="41.9841140" lon="-6.1282930">
        <ele>754.1</ele>
        <time>2019-08-16T06:55:44Z</time>
      </trkpt>
      <trkpt lat="41.9840810" lon="-6.1283370">
        <ele>754.1</ele>
        <time>2019-08-16T06:55:45Z</time>
      </trkpt>
      <trkpt lat="41.9840490" lon="-6.1283800">
        <ele>754.0</ele>
        <time>2019-08-16T06:55:46Z</time>
      </trkpt>
      <trkpt lat="41.9840170" lon="-6.1284240">
        <ele>753.9</ele>
        <time>2019-08-16T06:55:47Z</time>
      </trkpt>
      <trkpt lat="41.9839850" lon="-6.1284700">
        <ele>753.8</ele>
        <time>2019-08-16T06:55:48Z</time>
      </trkpt>
      <trkpt lat="41.9839550" lon="-6.1285160">
        <ele>753.7</ele>
        <time>2019-08-16T06:55:49Z</time>
      </trkpt>
      <trkpt lat="41.9839260" lon="-6.1285630">
        <ele>753.6</ele>
        <time>2019-08-16T06:55:50Z</time>
      </trkpt>
      <trkpt lat="41.9838960" lon="-6.1286080">
        <ele>753.5</ele>
        <time>2019-08-16T06:55:51Z</time>
      </trkpt>
      <trkpt lat="41.9838690" lon="-6.1286530">
        <ele>753.4</ele>
        <time>2019-08-16T06:55:52Z</time>
      </trkpt>
      <trkpt lat="41.9838410" lon="-6.1286970">
        <ele>753.4</ele>
        <time>2019-08-16T06:55:53Z</time>
      </trkpt>
      <trkpt lat="41.9838160" lon="-6.1287400">
        <ele>753.4</ele>
        <time>2019-08-16T06:55:54Z</time>
      </trkpt>
      <trkpt lat="41.9837890" lon="-6.1287850">
        <ele>753.5</ele>
        <time>2019-08-16T06:55:55Z</time>
      </trkpt>
      <trkpt lat="41.9837630" lon="-6.1288280">
        <ele>753.5</ele>
        <time>2019-08-16T06:55:56Z</time>
      </trkpt>
      <trkpt lat="41.9837360" lon="-6.1288700">
        <ele>753.5</ele>
        <time>2019-08-16T06:55:57Z</time>
      </trkpt>
      <trkpt lat="41.9837100" lon="-6.1289100">
        <ele>753.6</ele>
        <time>2019-08-16T06:55:58Z</time>
      </trkpt>
      <trkpt lat="41.9836840" lon="-6.1289500">
        <ele>753.7</ele>
        <time>2019-08-16T06:55:59Z</time>
      </trkpt>
      <trkpt lat="41.9836580" lon="-6.1289890">
        <ele>753.7</ele>
        <time>2019-08-16T06:56:00Z</time>
      </trkpt>
      <trkpt lat="41.9836290" lon="-6.1290270">
        <ele>753.8</ele>
        <time>2019-08-16T06:56:01Z</time>
      </trkpt>
      <trkpt lat="41.9835970" lon="-6.1290620">
        <ele>753.8</ele>
        <time>2019-08-16T06:56:02Z</time>
      </trkpt>
      <trkpt lat="41.9835630" lon="-6.1290960">
        <ele>753.9</ele>
        <time>2019-08-16T06:56:03Z</time>
      </trkpt>
      <trkpt lat="41.9835260" lon="-6.1291240">
        <ele>753.9</ele>
        <time>2019-08-16T06:56:04Z</time>
      </trkpt>
      <trkpt lat="41.9834880" lon="-6.1291490">
        <ele>753.9</ele>
        <time>2019-08-16T06:56:05Z</time>
      </trkpt>
      <trkpt lat="41.9834490" lon="-6.1291720">
        <ele>753.9</ele>
        <time>2019-08-16T06:56:06Z</time>
      </trkpt>
      <trkpt lat="41.9834100" lon="-6.1291960">
        <ele>753.9</ele>
        <time>2019-08-16T06:56:07Z</time>
      </trkpt>
      <trkpt lat="41.9833710" lon="-6.1292240">
        <ele>753.9</ele>
        <time>2019-08-16T06:56:08Z</time>
      </trkpt>
      <trkpt lat="41.9833320" lon="-6.1292550">
        <ele>753.9</ele>
        <time>2019-08-16T06:56:09Z</time>
      </trkpt>
      <trkpt lat="41.9832940" lon="-6.1292870">
        <ele>753.9</ele>
        <time>2019-08-16T06:56:10Z</time>
      </trkpt>
      <trkpt lat="41.9832550" lon="-6.1293200">
        <ele>753.9</ele>
        <time>2019-08-16T06:56:11Z</time>
      </trkpt>
      <trkpt lat="41.9832170" lon="-6.1293540">
        <ele>753.9</ele>
        <time>2019-08-16T06:56:12Z</time>
      </trkpt>
      <trkpt lat="41.9831800" lon="-6.1293870">
        <ele>753.9</ele>
        <time>2019-08-16T06:56:13Z</time>
      </trkpt>
      <trkpt lat="41.9831450" lon="-6.1294190">
        <ele>753.9</ele>
        <time>2019-08-16T06:56:14Z</time>
      </trkpt>
      <trkpt lat="41.9831130" lon="-6.1294500">
        <ele>753.9</ele>
        <time>2019-08-16T06:56:15Z</time>
      </trkpt>
      <trkpt lat="41.9830820" lon="-6.1294790">
        <ele>754.0</ele>
        <time>2019-08-16T06:56:16Z</time>
      </trkpt>
      <trkpt lat="41.9830530" lon="-6.1295050">
        <ele>754.0</ele>
        <time>2019-08-16T06:56:17Z</time>
      </trkpt>
      <trkpt lat="41.9830250" lon="-6.1295290">
        <ele>754.1</ele>
        <time>2019-08-16T06:56:18Z</time>
      </trkpt>
      <trkpt lat="41.9830010" lon="-6.1295520">
        <ele>754.1</ele>
        <time>2019-08-16T06:56:19Z</time>
      </trkpt>
      <trkpt lat="41.9829600" lon="-6.1295900">
        <ele>754.2</ele>
        <time>2019-08-16T06:56:21Z</time>
      </trkpt>
      <trkpt lat="41.9829230" lon="-6.1296250">
        <ele>754.4</ele>
        <time>2019-08-16T06:56:23Z</time>
      </trkpt>
      <trkpt lat="41.9828860" lon="-6.1296630">
        <ele>754.6</ele>
        <time>2019-08-16T06:56:25Z</time>
      </trkpt>
      <trkpt lat="41.9828490" lon="-6.1296980">
        <ele>754.8</ele>
        <time>2019-08-16T06:56:27Z</time>
      </trkpt>
      <trkpt lat="41.9828180" lon="-6.1297310">
        <ele>755.0</ele>
        <time>2019-08-16T06:56:29Z</time>
      </trkpt>
      <trkpt lat="41.9827840" lon="-6.1297660">
        <ele>755.1</ele>
        <time>2019-08-16T06:56:31Z</time>
      </trkpt>
      <trkpt lat="41.9827490" lon="-6.1298020">
        <ele>755.3</ele>
        <time>2019-08-16T06:56:33Z</time>
      </trkpt>
      <trkpt lat="41.9827120" lon="-6.1298390">
        <ele>755.5</ele>
        <time>2019-08-16T06:56:35Z</time>
      </trkpt>
      <trkpt lat="41.9826770" lon="-6.1298820">
        <ele>755.8</ele>
        <time>2019-08-16T06:56:37Z</time>
      </trkpt>
      <trkpt lat="41.9826410" lon="-6.1299210">
        <ele>756.0</ele>
        <time>2019-08-16T06:56:39Z</time>
      </trkpt>
      <trkpt lat="41.9826050" lon="-6.1299600">
        <ele>756.2</ele>
        <time>2019-08-16T06:56:41Z</time>
      </trkpt>
      <trkpt lat="41.9825700" lon="-6.1300030">
        <ele>756.5</ele>
        <time>2019-08-16T06:56:43Z</time>
      </trkpt>
      <trkpt lat="41.9825350" lon="-6.1300440">
        <ele>756.7</ele>
        <time>2019-08-16T06:56:45Z</time>
      </trkpt>
      <trkpt lat="41.9824980" lon="-6.1300810">
        <ele>756.9</ele>
        <time>2019-08-16T06:56:47Z</time>
      </trkpt>
      <trkpt lat="41.9824600" lon="-6.1301180">
        <ele>757.1</ele>
        <time>2019-08-16T06:56:49Z</time>
      </trkpt>
      <trkpt lat="41.9824240" lon="-6.1301590">
        <ele>757.3</ele>
        <time>2019-08-16T06:56:51Z</time>
      </trkpt>
      <trkpt lat="41.9823880" lon="-6.1301980">
        <ele>757.4</ele>
        <time>2019-08-16T06:56:53Z</time>
      </trkpt>
      <trkpt lat="41.9823450" lon="-6.1302320">
        <ele>757.6</ele>
        <time>2019-08-16T06:56:55Z</time>
      </trkpt>
      <trkpt lat="41.9822990" lon="-6.1302610">
        <ele>757.6</ele>
        <time>2019-08-16T06:56:57Z</time>
      </trkpt>
      <trkpt lat="41.9822500" lon="-6.1302800">
        <ele>757.7</ele>
        <time>2019-08-16T06:56:59Z</time>
      </trkpt>
      <trkpt lat="41.9822000" lon="-6.1302770">
        <ele>757.7</ele>
        <time>2019-08-16T06:57:01Z</time>
      </trkpt>
      <trkpt lat="41.9821540" lon="-6.1302560">
        <ele>757.7</ele>
        <time>2019-08-16T06:57:03Z</time>
      </trkpt>
      <trkpt lat="41.9821150" lon="-6.1302160">
        <ele>757.8</ele>
        <time>2019-08-16T06:57:05Z</time>
      </trkpt>
      <trkpt lat="41.9820840" lon="-6.1301670">
        <ele>757.8</ele>
        <time>2019-08-16T06:57:07Z</time>
      </trkpt>
      <trkpt lat="41.9820550" lon="-6.1301200">
        <ele>758.3</ele>
        <time>2019-08-16T06:57:09Z</time>
      </trkpt>
      <trkpt lat="41.9820260" lon="-6.1300730">
        <ele>758.6</ele>
        <time>2019-08-16T06:57:11Z</time>
      </trkpt>
      <trkpt lat="41.9819980" lon="-6.1300230">
        <ele>758.9</ele>
        <time>2019-08-16T06:57:13Z</time>
      </trkpt>
      <trkpt lat="41.9819680" lon="-6.1299760">
        <ele>759.2</ele>
        <time>2019-08-16T06:57:15Z</time>
      </trkpt>
      <trkpt lat="41.9819390" lon="-6.1299260">
        <ele>759.6</ele>
        <time>2019-08-16T06:57:17Z</time>
      </trkpt>
      <trkpt lat="41.9819100" lon="-6.1298750">
        <ele>759.9</ele>
        <time>2019-08-16T06:57:19Z</time>
      </trkpt>
      <trkpt lat="41.9818790" lon="-6.1298260">
        <ele>760.2</ele>
        <time>2019-08-16T06:57:21Z</time>
      </trkpt>
      <trkpt lat="41.9818460" lon="-6.1297780">
        <ele>760.6</ele>
        <time>2019-08-16T06:57:23Z</time>
      </trkpt>
      <trkpt lat="41.9818140" lon="-6.1297290">
        <ele>760.9</ele>
        <time>2019-08-16T06:57:25Z</time>
      </trkpt>
      <trkpt lat="41.9817830" lon="-6.1296770">
        <ele>761.3</ele>
        <time>2019-08-16T06:57:27Z</time>
      </trkpt>
      <trkpt lat="41.9817480" lon="-6.1296290">
        <ele>761.6</ele>
        <time>2019-08-16T06:57:29Z</time>
      </trkpt>
      <trkpt lat="41.9817160" lon="-6.1295810">
        <ele>762.0</ele>
        <time>2019-08-16T06:57:31Z</time>
      </trkpt>
      <trkpt lat="41.9816840" lon="-6.1295340">
        <ele>762.3</ele>
        <time>2019-08-16T06:57:33Z</time>
      </trkpt>
      <trkpt lat="41.9816530" lon="-6.1294870">
        <ele>762.6</ele>
        <time>2019-08-16T06:57:35Z</time>
      </trkpt>
      <trkpt lat="41.9816210" lon="-6.1294400">
        <ele>763.0</ele>
        <time>2019-08-16T06:57:37Z</time>
      </trkpt>
      <trkpt lat="41.9815860" lon="-6.1293940">
        <ele>763.3</ele>
        <time>2019-08-16T06:57:39Z</time>
      </trkpt>
      <trkpt lat="41.9815520" lon="-6.1293490">
        <ele>763.6</ele>
        <time>2019-08-16T06:57:41Z</time>
      </trkpt>
      <trkpt lat="41.9815190" lon="-6.1293040">
        <ele>764.0</ele>
        <time>2019-08-16T06:57:43Z</time>
      </trkpt>
      <trkpt lat="41.9814880" lon="-6.1292610">
        <ele>764.3</ele>
        <time>2019-08-16T06:57:45Z</time>
      </trkpt>
      <trkpt lat="41.9814570" lon="-6.1292150">
        <ele>764.6</ele>
        <time>2019-08-16T06:57:47Z</time>
      </trkpt>
      <trkpt lat="41.9814220" lon="-6.1291700">
        <ele>764.9</ele>
        <time>2019-08-16T06:57:49Z</time>
      </trkpt>
      <trkpt lat="41.9813890" lon="-6.1291240">
        <ele>765.3</ele>
        <time>2019-08-16T06:57:51Z</time>
      </trkpt>
      <trkpt lat="41.9813560" lon="-6.1290790">
        <ele>765.6</ele>
        <time>2019-08-16T06:57:53Z</time>
      </trkpt>
      <trkpt lat="41.9813230" lon="-6.1290330">
        <ele>765.9</ele>
        <time>2019-08-16T06:57:55Z</time>
      </trkpt>
      <trkpt lat="41.9812900" lon="-6.1289890">
        <ele>766.2</ele>
        <time>2019-08-16T06:57:57Z</time>
      </trkpt>
      <trkpt lat="41.9812570" lon="-6.1289470">
        <ele>766.6</ele>
        <time>2019-08-16T06:57:59Z</time>
      </trkpt>
      <trkpt lat="41.9812250" lon="-6.1289010">
        <ele>766.9</ele>
        <time>2019-08-16T06:58:01Z</time>
      </trkpt>
      <trkpt lat="41.9811930" lon="-6.1288530">
        <ele>767.2</ele>
        <time>2019-08-16T06:58:03Z</time>
      </trkpt>
      <trkpt lat="41.9811580" lon="-6.1288060">
        <ele>767.5</ele>
        <time>2019-08-16T06:58:05Z</time>
      </trkpt>
      <trkpt lat="41.9811200" lon="-6.1287590">
        <ele>767.8</ele>
        <time>2019-08-16T06:58:07Z</time>
      </trkpt>
      <trkpt lat="41.9810830" lon="-6.1287070">
        <ele>768.1</ele>
        <time>2019-08-16T06:58:09Z</time>
      </trkpt>
      <trkpt lat="41.9810630" lon="-6.1286810">
        <ele>768.3</ele>
        <time>2019-08-16T06:58:10Z</time>
      </trkpt>
      <trkpt lat="41.9810420" lon="-6.1286540">
        <ele>768.5</ele>
        <time>2019-08-16T06:58:11Z</time>
      </trkpt>
      <trkpt lat="41.9810220" lon="-6.1286270">
        <ele>768.6</ele>
        <time>2019-08-16T06:58:12Z</time>
      </trkpt>
      <trkpt lat="41.9810000" lon="-6.1285980">
        <ele>768.8</ele>
        <time>2019-08-16T06:58:13Z</time>
      </trkpt>
      <trkpt lat="41.9809790" lon="-6.1285690">
        <ele>769.0</ele>
        <time>2019-08-16T06:58:14Z</time>
      </trkpt>
      <trkpt lat="41.9809550" lon="-6.1285400">
        <ele>769.2</ele>
        <time>2019-08-16T06:58:15Z</time>
      </trkpt>
      <trkpt lat="41.9809320" lon="-6.1285110">
        <ele>769.4</ele>
        <time>2019-08-16T06:58:16Z</time>
      </trkpt>
      <trkpt lat="41.9809070" lon="-6.1284820">
        <ele>769.6</ele>
        <time>2019-08-16T06:58:17Z</time>
      </trkpt>
      <trkpt lat="41.9808830" lon="-6.1284520">
        <ele>769.8</ele>
        <time>2019-08-16T06:58:18Z</time>
      </trkpt>
      <trkpt lat="41.9808580" lon="-6.1284230">
        <ele>769.9</ele>
        <time>2019-08-16T06:58:19Z</time>
      </trkpt>
      <trkpt lat="41.9808320" lon="-6.1283960">
        <ele>770.1</ele>
        <time>2019-08-16T06:58:20Z</time>
      </trkpt>
      <trkpt lat="41.9808060" lon="-6.1283680">
        <ele>770.3</ele>
        <time>2019-08-16T06:58:21Z</time>
      </trkpt>
      <trkpt lat="41.9807780" lon="-6.1283400">
        <ele>770.4</ele>
        <time>2019-08-16T06:58:22Z</time>
      </trkpt>
      <trkpt lat="41.9807490" lon="-6.1283140">
        <ele>770.6</ele>
        <time>2019-08-16T06:58:23Z</time>
      </trkpt>
      <trkpt lat="41.9807170" lon="-6.1282910">
        <ele>770.8</ele>
        <time>2019-08-16T06:58:24Z</time>
      </trkpt>
      <trkpt lat="41.9806830" lon="-6.1282720">
        <ele>770.9</ele>
        <time>2019-08-16T06:58:25Z</time>
      </trkpt>
      <trkpt lat="41.9806470" lon="-6.1282550">
        <ele>771.1</ele>
        <time>2019-08-16T06:58:26Z</time>
      </trkpt>
      <trkpt lat="41.9806120" lon="-6.1282430">
        <ele>771.2</ele>
        <time>2019-08-16T06:58:27Z</time>
      </trkpt>
      <trkpt lat="41.9805790" lon="-6.1282340">
        <ele>771.3</ele>
        <time>2019-08-16T06:58:28Z</time>
      </trkpt>
      <trkpt lat="41.9805470" lon="-6.1282270">
        <ele>771.5</ele>
        <time>2019-08-16T06:58:29Z</time>
      </trkpt>
      <trkpt lat="41.9805130" lon="-6.1282210">
        <ele>771.6</ele>
        <time>2019-08-16T06:58:30Z</time>
      </trkpt>
      <trkpt lat="41.9804790" lon="-6.1282180">
        <ele>771.7</ele>
        <time>2019-08-16T06:58:31Z</time>
      </trkpt>
      <trkpt lat="41.9804440" lon="-6.1282190">
        <ele>771.8</ele>
        <time>2019-08-16T06:58:32Z</time>
      </trkpt>
      <trkpt lat="41.9804080" lon="-6.1282210">
        <ele>771.9</ele>
        <time>2019-08-16T06:58:33Z</time>
      </trkpt>
      <trkpt lat="41.9803710" lon="-6.1282250">
        <ele>771.9</ele>
        <time>2019-08-16T06:58:34Z</time>
      </trkpt>
      <trkpt lat="41.9803330" lon="-6.1282290">
        <ele>772.0</ele>
        <time>2019-08-16T06:58:35Z</time>
      </trkpt>
      <trkpt lat="41.9802950" lon="-6.1282330">
        <ele>772.1</ele>
        <time>2019-08-16T06:58:36Z</time>
      </trkpt>
      <trkpt lat="41.9802570" lon="-6.1282380">
        <ele>772.2</ele>
        <time>2019-08-16T06:58:37Z</time>
      </trkpt>
      <trkpt lat="41.9802210" lon="-6.1282430">
        <ele>772.3</ele>
        <time>2019-08-16T06:58:38Z</time>
      </trkpt>
      <trkpt lat="41.9801840" lon="-6.1282490">
        <ele>772.4</ele>
        <time>2019-08-16T06:58:39Z</time>
      </trkpt>
      <trkpt lat="41.9801470" lon="-6.1282530">
        <ele>772.5</ele>
        <time>2019-08-16T06:58:40Z</time>
      </trkpt>
      <trkpt lat="41.9801100" lon="-6.1282570">
        <ele>772.6</ele>
        <time>2019-08-16T06:58:41Z</time>
      </trkpt>
      <trkpt lat="41.9800720" lon="-6.1282620">
        <ele>772.7</ele>
        <time>2019-08-16T06:58:42Z</time>
      </trkpt>
      <trkpt lat="41.9800360" lon="-6.1282670">
        <ele>772.7</ele>
        <time>2019-08-16T06:58:43Z</time>
      </trkpt>
      <trkpt lat="41.9800000" lon="-6.1282720">
        <ele>772.8</ele>
        <time>2019-08-16T06:58:44Z</time>
      </trkpt>
      <trkpt lat="41.9799630" lon="-6.1282760">
        <ele>772.9</ele>
        <time>2019-08-16T06:58:45Z</time>
      </trkpt>
      <trkpt lat="41.9799280" lon="-6.1282810">
        <ele>773.0</ele>
        <time>2019-08-16T06:58:46Z</time>
      </trkpt>
      <trkpt lat="41.9798920" lon="-6.1282850">
        <ele>773.1</ele>
        <time>2019-08-16T06:58:47Z</time>
      </trkpt>
      <trkpt lat="41.9798560" lon="-6.1282880">
        <ele>773.1</ele>
        <time>2019-08-16T06:58:48Z</time>
      </trkpt>
      <trkpt lat="41.9798210" lon="-6.1282930">
        <ele>773.2</ele>
        <time>2019-08-16T06:58:49Z</time>
      </trkpt>
      <trkpt lat="41.9797860" lon="-6.1282970">
        <ele>773.3</ele>
        <time>2019-08-16T06:58:50Z</time>
      </trkpt>
      <trkpt lat="41.9797510" lon="-6.1283010">
        <ele>773.4</ele>
        <time>2019-08-16T06:58:51Z</time>
      </trkpt>
      <trkpt lat="41.9797170" lon="-6.1283050">
        <ele>773.5</ele>
        <time>2019-08-16T06:58:52Z</time>
      </trkpt>
      <trkpt lat="41.9796830" lon="-6.1283090">
        <ele>773.6</ele>
        <time>2019-08-16T06:58:53Z</time>
      </trkpt>
      <trkpt lat="41.9796500" lon="-6.1283140">
        <ele>773.7</ele>
        <time>2019-08-16T06:58:54Z</time>
      </trkpt>
      <trkpt lat="41.9796170" lon="-6.1283180">
        <ele>773.8</ele>
        <time>2019-08-16T06:58:55Z</time>
      </trkpt>
      <trkpt lat="41.9795840" lon="-6.1283220">
        <ele>773.9</ele>
        <time>2019-08-16T06:58:56Z</time>
      </trkpt>
      <trkpt lat="41.9795520" lon="-6.1283260">
        <ele>774.0</ele>
        <time>2019-08-16T06:58:57Z</time>
      </trkpt>
      <trkpt lat="41.9795190" lon="-6.1283300">
        <ele>774.1</ele>
        <time>2019-08-16T06:58:58Z</time>
      </trkpt>
      <trkpt lat="41.9794870" lon="-6.1283330">
        <ele>774.3</ele>
        <time>2019-08-16T06:58:59Z</time>
      </trkpt>
      <trkpt lat="41.9794550" lon="-6.1283360">
        <ele>774.4</ele>
        <time>2019-08-16T06:59:00Z</time>
      </trkpt>
      <trkpt lat="41.9794250" lon="-6.1283400">
        <ele>774.5</ele>
        <time>2019-08-16T06:59:01Z</time>
      </trkpt>
      <trkpt lat="41.9793940" lon="-6.1283440">
        <ele>774.7</ele>
        <time>2019-08-16T06:59:02Z</time>
      </trkpt>
      <trkpt lat="41.9793640" lon="-6.1283470">
        <ele>774.8</ele>
        <time>2019-08-16T06:59:03Z</time>
      </trkpt>
      <trkpt lat="41.9793340" lon="-6.1283490">
        <ele>774.9</ele>
        <time>2019-08-16T06:59:04Z</time>
      </trkpt>
      <trkpt lat="41.9793050" lon="-6.1283520">
        <ele>775.1</ele>
        <time>2019-08-16T06:59:05Z</time>
      </trkpt>
      <trkpt lat="41.9792760" lon="-6.1283560">
        <ele>775.3</ele>
        <time>2019-08-16T06:59:06Z</time>
      </trkpt>
      <trkpt lat="41.9792470" lon="-6.1283600">
        <ele>775.4</ele>
        <time>2019-08-16T06:59:07Z</time>
      </trkpt>
      <trkpt lat="41.9792180" lon="-6.1283630">
        <ele>775.6</ele>
        <time>2019-08-16T06:59:08Z</time>
      </trkpt>
      <trkpt lat="41.9791890" lon="-6.1283660">
        <ele>775.7</ele>
        <time>2019-08-16T06:59:09Z</time>
      </trkpt>
      <trkpt lat="41.9791610" lon="-6.1283690">
        <ele>775.9</ele>
        <time>2019-08-16T06:59:10Z</time>
      </trkpt>
      <trkpt lat="41.9791320" lon="-6.1283720">
        <ele>776.0</ele>
        <time>2019-08-16T06:59:11Z</time>
      </trkpt>
      <trkpt lat="41.9791040" lon="-6.1283770">
        <ele>776.2</ele>
        <time>2019-08-16T06:59:12Z</time>
      </trkpt>
      <trkpt lat="41.9790750" lon="-6.1283810">
        <ele>776.4</ele>
        <time>2019-08-16T06:59:13Z</time>
      </trkpt>
      <trkpt lat="41.9790470" lon="-6.1283840">
        <ele>776.7</ele>
        <time>2019-08-16T06:59:14Z</time>
      </trkpt>
      <trkpt lat="41.9790190" lon="-6.1283880">
        <ele>776.7</ele>
        <time>2019-08-16T06:59:15Z</time>
      </trkpt>
      <trkpt lat="41.9789910" lon="-6.1283910">
        <ele>776.8</ele>
        <time>2019-08-16T06:59:16Z</time>
      </trkpt>
      <trkpt lat="41.9789630" lon="-6.1283950">
        <ele>776.9</ele>
        <time>2019-08-16T06:59:17Z</time>
      </trkpt>
      <trkpt lat="41.9789360" lon="-6.1283990">
        <ele>776.9</ele>
        <time>2019-08-16T06:59:18Z</time>
      </trkpt>
      <trkpt lat="41.9788830" lon="-6.1284050">
        <ele>777.0</ele>
        <time>2019-08-16T06:59:20Z</time>
      </trkpt>
      <trkpt lat="41.9788300" lon="-6.1284110">
        <ele>777.1</ele>
        <time>2019-08-16T06:59:22Z</time>
      </trkpt>
      <trkpt lat="41.9787770" lon="-6.1284160">
        <ele>777.2</ele>
        <time>2019-08-16T06:59:24Z</time>
      </trkpt>
      <trkpt lat="41.9787250" lon="-6.1284240">
        <ele>777.3</ele>
        <time>2019-08-16T06:59:26Z</time>
      </trkpt>
      <trkpt lat="41.9786730" lon="-6.1284340">
        <ele>777.4</ele>
        <time>2019-08-16T06:59:28Z</time>
      </trkpt>
      <trkpt lat="41.9786210" lon="-6.1284400">
        <ele>777.4</ele>
        <time>2019-08-16T06:59:30Z</time>
      </trkpt>
      <trkpt lat="41.9785690" lon="-6.1284460">
        <ele>777.5</ele>
        <time>2019-08-16T06:59:32Z</time>
      </trkpt>
      <trkpt lat="41.9785200" lon="-6.1284540">
        <ele>777.6</ele>
        <time>2019-08-16T06:59:34Z</time>
      </trkpt>
      <trkpt lat="41.9784700" lon="-6.1284610">
        <ele>777.7</ele>
        <time>2019-08-16T06:59:36Z</time>
      </trkpt>
      <trkpt lat="41.9784200" lon="-6.1284660">
        <ele>777.7</ele>
        <time>2019-08-16T06:59:38Z</time>
      </trkpt>
      <trkpt lat="41.9783690" lon="-6.1284710">
        <ele>777.8</ele>
        <time>2019-08-16T06:59:40Z</time>
      </trkpt>
      <trkpt lat="41.9783170" lon="-6.1284750">
        <ele>777.9</ele>
        <time>2019-08-16T06:59:42Z</time>
      </trkpt>
      <trkpt lat="41.9782660" lon="-6.1284740">
        <ele>778.0</ele>
        <time>2019-08-16T06:59:44Z</time>
      </trkpt>
      <trkpt lat="41.9782170" lon="-6.1284620">
        <ele>778.1</ele>
        <time>2019-08-16T06:59:46Z</time>
      </trkpt>
      <trkpt lat="41.9781710" lon="-6.1284370">
        <ele>778.2</ele>
        <time>2019-08-16T06:59:48Z</time>
      </trkpt>
      <trkpt lat="41.9781290" lon="-6.1284010">
        <ele>778.3</ele>
        <time>2019-08-16T06:59:50Z</time>
      </trkpt>
      <trkpt lat="41.9780890" lon="-6.1283600">
        <ele>778.4</ele>
        <time>2019-08-16T06:59:52Z</time>
      </trkpt>
      <trkpt lat="41.9780520" lon="-6.1283110">
        <ele>778.5</ele>
        <time>2019-08-16T06:59:54Z</time>
      </trkpt>
      <trkpt lat="41.9780180" lon="-6.1282560">
        <ele>778.7</ele>
        <time>2019-08-16T06:59:56Z</time>
      </trkpt>
      <trkpt lat="41.9780010" lon="-6.1282280">
        <ele>778.8</ele>
        <time>2019-08-16T06:59:57Z</time>
      </trkpt>
      <trkpt lat="41.9779850" lon="-6.1281980">
        <ele>778.8</ele>
        <time>2019-08-16T06:59:58Z</time>
      </trkpt>
      <trkpt lat="41.9779710" lon="-6.1281640">
        <ele>778.9</ele>
        <time>2019-08-16T06:59:59Z</time>
      </trkpt>
      <trkpt lat="41.9779600" lon="-6.1281270">
        <ele>779.0</ele>
        <time>2019-08-16T07:00:00Z</time>
      </trkpt>
      <trkpt lat="41.9779510" lon="-6.1280890">
        <ele>779.1</ele>
        <time>2019-08-16T07:00:01Z</time>
      </trkpt>
      <trkpt lat="41.9779440" lon="-6.1280510">
        <ele>779.2</ele>
        <time>2019-08-16T07:00:02Z</time>
      </trkpt>
      <trkpt lat="41.9779380" lon="-6.1280120">
        <ele>779.3</ele>
        <time>2019-08-16T07:00:03Z</time>
      </trkpt>
      <trkpt lat="41.9779340" lon="-6.1279700">
        <ele>779.4</ele>
        <time>2019-08-16T07:00:04Z</time>
      </trkpt>
      <trkpt lat="41.9779300" lon="-6.1279250">
        <ele>779.5</ele>
        <time>2019-08-16T07:00:05Z</time>
      </trkpt>
      <trkpt lat="41.9779230" lon="-6.1278810">
        <ele>779.6</ele>
        <time>2019-08-16T07:00:06Z</time>
      </trkpt>
      <trkpt lat="41.9779100" lon="-6.1278390">
        <ele>779.7</ele>
        <time>2019-08-16T07:00:07Z</time>
      </trkpt>
      <trkpt lat="41.9778900" lon="-6.1278080">
        <ele>779.7</ele>
        <time>2019-08-16T07:00:08Z</time>
      </trkpt>
      <trkpt lat="41.9778440" lon="-6.1277880">
        <ele>781.5</ele>
        <time>2019-08-16T07:00:10Z</time>
      </trkpt>
      <trkpt lat="41.9778040" lon="-6.1278100">
        <ele>781.8</ele>
        <time>2019-08-16T07:00:12Z</time>
      </trkpt>
      <trkpt lat="41.9777720" lon="-6.1278590">
        <ele>782.0</ele>
        <time>2019-08-16T07:00:14Z</time>
      </trkpt>
      <trkpt lat="41.9777390" lon="-6.1279170">
        <ele>782.3</ele>
        <time>2019-08-16T07:00:16Z</time>
      </trkpt>
      <trkpt lat="41.9777210" lon="-6.1279490">
        <ele>782.4</ele>
        <time>2019-08-16T07:00:17Z</time>
      </trkpt>
      <trkpt lat="41.9777020" lon="-6.1279810">
        <ele>782.5</ele>
        <time>2019-08-16T07:00:18Z</time>
      </trkpt>
      <trkpt lat="41.9776820" lon="-6.1280120">
        <ele>782.6</ele>
        <time>2019-08-16T07:00:19Z</time>
      </trkpt>
      <trkpt lat="41.9776610" lon="-6.1280430">
        <ele>782.7</ele>
        <time>2019-08-16T07:00:20Z</time>
      </trkpt>
      <trkpt lat="41.9776400" lon="-6.1280740">
        <ele>782.8</ele>
        <time>2019-08-16T07:00:21Z</time>
      </trkpt>
      <trkpt lat="41.9776200" lon="-6.1281070">
        <ele>782.9</ele>
        <time>2019-08-16T07:00:22Z</time>
      </trkpt>
      <trkpt lat="41.9775980" lon="-6.1281390">
        <ele>783.0</ele>
        <time>2019-08-16T07:00:23Z</time>
      </trkpt>
      <trkpt lat="41.9775760" lon="-6.1281710">
        <ele>783.1</ele>
        <time>2019-08-16T07:00:24Z</time>
      </trkpt>
      <trkpt lat="41.9775540" lon="-6.1282030">
        <ele>783.2</ele>
        <time>2019-08-16T07:00:25Z</time>
      </trkpt>
      <trkpt lat="41.9775310" lon="-6.1282350">
        <ele>783.2</ele>
        <time>2019-08-16T07:00:26Z</time>
      </trkpt>
      <trkpt lat="41.9775070" lon="-6.1282660">
        <ele>783.3</ele>
        <time>2019-08-16T07:00:27Z</time>
      </trkpt>
      <trkpt lat="41.9774840" lon="-6.1282970">
        <ele>783.4</ele>
        <time>2019-08-16T07:00:28Z</time>
      </trkpt>
      <trkpt lat="41.9774600" lon="-6.1283270">
        <ele>783.5</ele>
        <time>2019-08-16T07:00:29Z</time>
      </trkpt>
      <trkpt lat="41.9774370" lon="-6.1283570">
        <ele>783.6</ele>
        <time>2019-08-16T07:00:30Z</time>
      </trkpt>
      <trkpt lat="41.9774120" lon="-6.1283860">
        <ele>783.6</ele>
        <time>2019-08-16T07:00:31Z</time>
      </trkpt>
      <trkpt lat="41.9773870" lon="-6.1284130">
        <ele>783.7</ele>
        <time>2019-08-16T07:00:32Z</time>
      </trkpt>
      <trkpt lat="41.9773620" lon="-6.1284400">
        <ele>783.8</ele>
        <time>2019-08-16T07:00:33Z</time>
      </trkpt>
      <trkpt lat="41.9773370" lon="-6.1284650">
        <ele>783.8</ele>
        <time>2019-08-16T07:00:34Z</time>
      </trkpt>
      <trkpt lat="41.9773120" lon="-6.1284880">
        <ele>783.9</ele>
        <time>2019-08-16T07:00:35Z</time>
      </trkpt>
      <trkpt lat="41.9772860" lon="-6.1285090">
        <ele>783.9</ele>
        <time>2019-08-16T07:00:36Z</time>
      </trkpt>
      <trkpt lat="41.9772600" lon="-6.1285300">
        <ele>784.0</ele>
        <time>2019-08-16T07:00:37Z</time>
      </trkpt>
      <trkpt lat="41.9772330" lon="-6.1285510">
        <ele>784.1</ele>
        <time>2019-08-16T07:00:38Z</time>
      </trkpt>
      <trkpt lat="41.9772070" lon="-6.1285710">
        <ele>784.1</ele>
        <time>2019-08-16T07:00:39Z</time>
      </trkpt>
      <trkpt lat="41.9771790" lon="-6.1285920">
        <ele>784.1</ele>
        <time>2019-08-16T07:00:40Z</time>
      </trkpt>
      <trkpt lat="41.9771500" lon="-6.1286150">
        <ele>784.2</ele>
        <time>2019-08-16T07:00:41Z</time>
      </trkpt>
      <trkpt lat="41.9771220" lon="-6.1286440">
        <ele>784.2</ele>
        <time>2019-08-16T07:00:42Z</time>
      </trkpt>
      <trkpt lat="41.9770950" lon="-6.1286790">
        <ele>784.2</ele>
        <time>2019-08-16T07:00:43Z</time>
      </trkpt>
      <trkpt lat="41.9770710" lon="-6.1287200">
        <ele>784.2</ele>
        <time>2019-08-16T07:00:44Z</time>
      </trkpt>
      <trkpt lat="41.9770510" lon="-6.1287650">
        <ele>784.2</ele>
        <time>2019-08-16T07:00:45Z</time>
      </trkpt>
      <trkpt lat="41.9770330" lon="-6.1288140">
        <ele>784.2</ele>
        <time>2019-08-16T07:00:46Z</time>
      </trkpt>
      <trkpt lat="41.9770170" lon="-6.1288650">
        <ele>784.2</ele>
        <time>2019-08-16T07:00:47Z</time>
      </trkpt>
      <trkpt lat="41.9770010" lon="-6.1289150">
        <ele>784.2</ele>
        <time>2019-08-16T07:00:48Z</time>
      </trkpt>
      <trkpt lat="41.9769870" lon="-6.1289660">
        <ele>784.2</ele>
        <time>2019-08-16T07:00:49Z</time>
      </trkpt>
      <trkpt lat="41.9769750" lon="-6.1290190">
        <ele>784.1</ele>
        <time>2019-08-16T07:00:50Z</time>
      </trkpt>
      <trkpt lat="41.9769650" lon="-6.1290720">
        <ele>784.1</ele>
        <time>2019-08-16T07:00:51Z</time>
      </trkpt>
      <trkpt lat="41.9769560" lon="-6.1291260">
        <ele>784.0</ele>
        <time>2019-08-16T07:00:52Z</time>
      </trkpt>
      <trkpt lat="41.9769480" lon="-6.1291790">
        <ele>784.0</ele>
        <time>2019-08-16T07:00:53Z</time>
      </trkpt>
      <trkpt lat="41.9769420" lon="-6.1292320">
        <ele>783.9</ele>
        <time>2019-08-16T07:00:54Z</time>
      </trkpt>
      <trkpt lat="41.9769370" lon="-6.1292840">
        <ele>783.9</ele>
        <time>2019-08-16T07:00:55Z</time>
      </trkpt>
      <trkpt lat="41.9769320" lon="-6.1293340">
        <ele>783.8</ele>
        <time>2019-08-16T07:00:56Z</time>
      </trkpt>
      <trkpt lat="41.9769260" lon="-6.1293840">
        <ele>783.8</ele>
        <time>2019-08-16T07:00:57Z</time>
      </trkpt>
      <trkpt lat="41.9769150" lon="-6.1294370">
        <ele>783.8</ele>
        <time>2019-08-16T07:00:58Z</time>
      </trkpt>
      <trkpt lat="41.9769000" lon="-6.1294920">
        <ele>783.7</ele>
        <time>2019-08-16T07:00:59Z</time>
      </trkpt>
      <trkpt lat="41.9768790" lon="-6.1295430">
        <ele>783.7</ele>
        <time>2019-08-16T07:01:00Z</time>
      </trkpt>
      <trkpt lat="41.9768580" lon="-6.1295920">
        <ele>783.6</ele>
        <time>2019-08-16T07:01:01Z</time>
      </trkpt>
      <trkpt lat="41.9768390" lon="-6.1296410">
        <ele>783.6</ele>
        <time>2019-08-16T07:01:02Z</time>
      </trkpt>
      <trkpt lat="41.9768190" lon="-6.1296860">
        <ele>783.6</ele>
        <time>2019-08-16T07:01:03Z</time>
      </trkpt>
      <trkpt lat="41.9767960" lon="-6.1297280">
        <ele>783.6</ele>
        <time>2019-08-16T07:01:04Z</time>
      </trkpt>
      <trkpt lat="41.9767740" lon="-6.1297650">
        <ele>783.6</ele>
        <time>2019-08-16T07:01:05Z</time>
      </trkpt>
      <trkpt lat="41.9767510" lon="-6.1297990">
        <ele>783.6</ele>
        <time>2019-08-16T07:01:06Z</time>
      </trkpt>
      <trkpt lat="41.9767270" lon="-6.1298320">
        <ele>783.6</ele>
        <time>2019-08-16T07:01:07Z</time>
      </trkpt>
      <trkpt lat="41.9767030" lon="-6.1298620">
        <ele>783.6</ele>
        <time>2019-08-16T07:01:08Z</time>
      </trkpt>
      <trkpt lat="41.9766810" lon="-6.1298900">
        <ele>783.7</ele>
        <time>2019-08-16T07:01:09Z</time>
      </trkpt>
      <trkpt lat="41.9766580" lon="-6.1299160">
        <ele>783.7</ele>
        <time>2019-08-16T07:01:10Z</time>
      </trkpt>
      <trkpt lat="41.9766350" lon="-6.1299390">
        <ele>783.8</ele>
        <time>2019-08-16T07:01:11Z</time>
      </trkpt>
      <trkpt lat="41.9766120" lon="-6.1299610">
        <ele>783.9</ele>
        <time>2019-08-16T07:01:12Z</time>
      </trkpt>
      <trkpt lat="41.9765900" lon="-6.1299830">
        <ele>784.0</ele>
        <time>2019-08-16T07:01:13Z</time>
      </trkpt>
      <trkpt lat="41.9765680" lon="-6.1300050">
        <ele>784.1</ele>
        <time>2019-08-16T07:01:14Z</time>
      </trkpt>
      <trkpt lat="41.9765250" lon="-6.1300390">
        <ele>784.3</ele>
        <time>2019-08-16T07:01:16Z</time>
      </trkpt>
      <trkpt lat="41.9764840" lon="-6.1300700">
        <ele>784.5</ele>
        <time>2019-08-16T07:01:18Z</time>
      </trkpt>
      <trkpt lat="41.9764460" lon="-6.1301030">
        <ele>784.7</ele>
        <time>2019-08-16T07:01:20Z</time>
      </trkpt>
      <trkpt lat="41.9764070" lon="-6.1301320">
        <ele>785.0</ele>
        <time>2019-08-16T07:01:22Z</time>
      </trkpt>
      <trkpt lat="41.9763670" lon="-6.1301620">
        <ele>785.2</ele>
        <time>2019-08-16T07:01:24Z</time>
      </trkpt>
      <trkpt lat="41.9763280" lon="-6.1301940">
        <ele>785.4</ele>
        <time>2019-08-16T07:01:26Z</time>
      </trkpt>
      <trkpt lat="41.9762880" lon="-6.1302280">
        <ele>785.6</ele>
        <time>2019-08-16T07:01:28Z</time>
      </trkpt>
      <trkpt lat="41.9762480" lon="-6.1302600">
        <ele>785.9</ele>
        <time>2019-08-16T07:01:30Z</time>
      </trkpt>
      <trkpt lat="41.9762080" lon="-6.1302890">
        <ele>786.1</ele>
        <time>2019-08-16T07:01:32Z</time>
      </trkpt>
      <trkpt lat="41.9761710" lon="-6.1303200">
        <ele>786.3</ele>
        <time>2019-08-16T07:01:34Z</time>
      </trkpt>
      <trkpt lat="41.9761320" lon="-6.1303540">
        <ele>786.6</ele>
        <time>2019-08-16T07:01:36Z</time>
      </trkpt>
      <trkpt lat="41.9760920" lon="-6.1303880">
        <ele>786.9</ele>
        <time>2019-08-16T07:01:38Z</time>
      </trkpt>
      <trkpt lat="41.9760530" lon="-6.1304220">
        <ele>787.2</ele>
        <time>2019-08-16T07:01:40Z</time>
      </trkpt>
      <trkpt lat="41.9760130" lon="-6.1304570">
        <ele>787.6</ele>
        <time>2019-08-16T07:01:42Z</time>
      </trkpt>
      <trkpt lat="41.9759730" lon="-6.1304940">
        <ele>787.9</ele>
        <time>2019-08-16T07:01:44Z</time>
      </trkpt>
      <trkpt lat="41.9759320" lon="-6.1305340">
        <ele>788.2</ele>
        <time>2019-08-16T07:01:46Z</time>
      </trkpt>
      <trkpt lat="41.9758930" lon="-6.1305760">
        <ele>788.5</ele>
        <time>2019-08-16T07:01:48Z</time>
      </trkpt>
      <trkpt lat="41.9758560" lon="-6.1306190">
        <ele>788.8</ele>
        <time>2019-08-16T07:01:50Z</time>
      </trkpt>
      <trkpt lat="41.9758190" lon="-6.1306620">
        <ele>789.1</ele>
        <time>2019-08-16T07:01:52Z</time>
      </trkpt>
      <trkpt lat="41.9757850" lon="-6.1307080">
        <ele>789.5</ele>
        <time>2019-08-16T07:01:54Z</time>
      </trkpt>
      <trkpt lat="41.9757520" lon="-6.1307550">
        <ele>789.8</ele>
        <time>2019-08-16T07:01:56Z</time>
      </trkpt>
      <trkpt lat="41.9757200" lon="-6.1308020">
        <ele>790.0</ele>
        <time>2019-08-16T07:01:58Z</time>
      </trkpt>
      <trkpt lat="41.9756890" lon="-6.1308490">
        <ele>790.3</ele>
        <time>2019-08-16T07:02:00Z</time>
      </trkpt>
      <trkpt lat="41.9756580" lon="-6.1308940">
        <ele>790.5</ele>
        <time>2019-08-16T07:02:02Z</time>
      </trkpt>
      <trkpt lat="41.9756280" lon="-6.1309430">
        <ele>790.8</ele>
        <time>2019-08-16T07:02:04Z</time>
      </trkpt>
      <trkpt lat="41.9755960" lon="-6.1309910">
        <ele>791.0</ele>
        <time>2019-08-16T07:02:06Z</time>
      </trkpt>
      <trkpt lat="41.9755650" lon="-6.1310400">
        <ele>791.3</ele>
        <time>2019-08-16T07:02:08Z</time>
      </trkpt>
      <trkpt lat="41.9755330" lon="-6.1310880">
        <ele>791.5</ele>
        <time>2019-08-16T07:02:10Z</time>
      </trkpt>
      <trkpt lat="41.9755010" lon="-6.1311370">
        <ele>791.7</ele>
        <time>2019-08-16T07:02:12Z</time>
      </trkpt>
      <trkpt lat="41.9754680" lon="-6.1311880">
        <ele>792.0</ele>
        <time>2019-08-16T07:02:14Z</time>
      </trkpt>
      <trkpt lat="41.9754340" lon="-6.1312370">
        <ele>792.2</ele>
        <time>2019-08-16T07:02:16Z</time>
      </trkpt>
      <trkpt lat="41.9754010" lon="-6.1312880">
        <ele>792.4</ele>
        <time>2019-08-16T07:02:18Z</time>
      </trkpt>
      <trkpt lat="41.9753680" lon="-6.1313400">
        <ele>792.7</ele>
        <time>2019-08-16T07:02:20Z</time>
      </trkpt>
      <trkpt lat="41.9753350" lon="-6.1313900">
        <ele>792.9</ele>
        <time>2019-08-16T07:02:22Z</time>
      </trkpt>
      <trkpt lat="41.9753020" lon="-6.1314390">
        <ele>793.2</ele>
        <time>2019-08-16T07:02:24Z</time>
      </trkpt>
      <trkpt lat="41.9752700" lon="-6.1314880">
        <ele>793.4</ele>
        <time>2019-08-16T07:02:26Z</time>
      </trkpt>
      <trkpt lat="41.9752370" lon="-6.1315350">
        <ele>793.7</ele>
        <time>2019-08-16T07:02:28Z</time>
      </trkpt>
      <trkpt lat="41.9752050" lon="-6.1315850">
        <ele>794.0</ele>
        <time>2019-08-16T07:02:30Z</time>
      </trkpt>
      <trkpt lat="41.9751730" lon="-6.1316330">
        <ele>794.2</ele>
        <time>2019-08-16T07:02:32Z</time>
      </trkpt>
      <trkpt lat="41.9751400" lon="-6.1316840">
        <ele>794.5</ele>
        <time>2019-08-16T07:02:34Z</time>
      </trkpt>
      <trkpt lat="41.9751060" lon="-6.1317340">
        <ele>794.8</ele>
        <time>2019-08-16T07:02:36Z</time>
      </trkpt>
      <trkpt lat="41.9750740" lon="-6.1317860">
        <ele>795.1</ele>
        <time>2019-08-16T07:02:38Z</time>
      </trkpt>
      <trkpt lat="41.9750420" lon="-6.1318360">
        <ele>795.3</ele>
        <time>2019-08-16T07:02:40Z</time>
      </trkpt>
      <trkpt lat="41.9750080" lon="-6.1318870">
        <ele>795.6</ele>
        <time>2019-08-16T07:02:42Z</time>
      </trkpt>
      <trkpt lat="41.9749750" lon="-6.1319380">
        <ele>795.8</ele>
        <time>2019-08-16T07:02:44Z</time>
      </trkpt>
      <trkpt lat="41.9749420" lon="-6.1319870">
        <ele>796.1</ele>
        <time>2019-08-16T07:02:46Z</time>
      </trkpt>
      <trkpt lat="41.9749100" lon="-6.1320380">
        <ele>796.3</ele>
        <time>2019-08-16T07:02:48Z</time>
      </trkpt>
      <trkpt lat="41.9748770" lon="-6.1320870">
        <ele>796.5</ele>
        <time>2019-08-16T07:02:50Z</time>
      </trkpt>
      <trkpt lat="41.9748470" lon="-6.1321350">
        <ele>796.7</ele>
        <time>2019-08-16T07:02:52Z</time>
      </trkpt>
      <trkpt lat="41.9748150" lon="-6.1321810">
        <ele>796.9</ele>
        <time>2019-08-16T07:02:54Z</time>
      </trkpt>
      <trkpt lat="41.9747850" lon="-6.1322280">
        <ele>797.1</ele>
        <time>2019-08-16T07:02:56Z</time>
      </trkpt>
      <trkpt lat="41.9747530" lon="-6.1322760">
        <ele>797.4</ele>
        <time>2019-08-16T07:02:58Z</time>
      </trkpt>
      <trkpt lat="41.9747220" lon="-6.1323240">
        <ele>797.6</ele>
        <time>2019-08-16T07:03:00Z</time>
      </trkpt>
      <trkpt lat="41.9746900" lon="-6.1323740">
        <ele>797.9</ele>
        <time>2019-08-16T07:03:02Z</time>
      </trkpt>
      <trkpt lat="41.9746590" lon="-6.1324240">
        <ele>798.1</ele>
        <time>2019-08-16T07:03:04Z</time>
      </trkpt>
      <trkpt lat="41.9746270" lon="-6.1324720">
        <ele>798.4</ele>
        <time>2019-08-16T07:03:06Z</time>
      </trkpt>
      <trkpt lat="41.9745970" lon="-6.1325210">
        <ele>798.7</ele>
        <time>2019-08-16T07:03:08Z</time>
      </trkpt>
      <trkpt lat="41.9745650" lon="-6.1325700">
        <ele>799.0</ele>
        <time>2019-08-16T07:03:10Z</time>
      </trkpt>
      <trkpt lat="41.9745320" lon="-6.1326190">
        <ele>799.2</ele>
        <time>2019-08-16T07:03:12Z</time>
      </trkpt>
      <trkpt lat="41.9745000" lon="-6.1326680">
        <ele>799.5</ele>
        <time>2019-08-16T07:03:14Z</time>
      </trkpt>
      <trkpt lat="41.9744700" lon="-6.1327180">
        <ele>799.7</ele>
        <time>2019-08-16T07:03:16Z</time>
      </trkpt>
      <trkpt lat="41.9744390" lon="-6.1327680">
        <ele>799.8</ele>
        <time>2019-08-16T07:03:18Z</time>
      </trkpt>
      <trkpt lat="41.9744100" lon="-6.1328230">
        <ele>800.0</ele>
        <time>2019-08-16T07:03:20Z</time>
      </trkpt>
      <trkpt lat="41.9743830" lon="-6.1328830">
        <ele>800.2</ele>
        <time>2019-08-16T07:03:22Z</time>
      </trkpt>
      <trkpt lat="41.9743590" lon="-6.1329460">
        <ele>800.4</ele>
        <time>2019-08-16T07:03:24Z</time>
      </trkpt>
      <trkpt lat="41.9743390" lon="-6.1330130">
        <ele>800.6</ele>
        <time>2019-08-16T07:03:26Z</time>
      </trkpt>
      <trkpt lat="41.9743300" lon="-6.1330470">
        <ele>800.7</ele>
        <time>2019-08-16T07:03:27Z</time>
      </trkpt>
      <trkpt lat="41.9743200" lon="-6.1330820">
        <ele>800.9</ele>
        <time>2019-08-16T07:03:28Z</time>
      </trkpt>
      <trkpt lat="41.9743110" lon="-6.1331170">
        <ele>801.0</ele>
        <time>2019-08-16T07:03:29Z</time>
      </trkpt>
      <trkpt lat="41.9743030" lon="-6.1331530">
        <ele>801.1</ele>
        <time>2019-08-16T07:03:30Z</time>
      </trkpt>
      <trkpt lat="41.9742960" lon="-6.1331900">
        <ele>801.1</ele>
        <time>2019-08-16T07:03:31Z</time>
      </trkpt>
      <trkpt lat="41.9742890" lon="-6.1332260">
        <ele>801.2</ele>
        <time>2019-08-16T07:03:32Z</time>
      </trkpt>
      <trkpt lat="41.9742810" lon="-6.1332630">
        <ele>801.3</ele>
        <time>2019-08-16T07:03:33Z</time>
      </trkpt>
      <trkpt lat="41.9742730" lon="-6.1333010">
        <ele>801.4</ele>
        <time>2019-08-16T07:03:34Z</time>
      </trkpt>
      <trkpt lat="41.9742650" lon="-6.1333400">
        <ele>801.5</ele>
        <time>2019-08-16T07:03:35Z</time>
      </trkpt>
      <trkpt lat="41.9742580" lon="-6.1333790">
        <ele>801.5</ele>
        <time>2019-08-16T07:03:36Z</time>
      </trkpt>
      <trkpt lat="41.9742520" lon="-6.1334190">
        <ele>801.6</ele>
        <time>2019-08-16T07:03:37Z</time>
      </trkpt>
      <trkpt lat="41.9742450" lon="-6.1334590">
        <ele>801.7</ele>
        <time>2019-08-16T07:03:38Z</time>
      </trkpt>
      <trkpt lat="41.9742390" lon="-6.1334990">
        <ele>801.8</ele>
        <time>2019-08-16T07:03:39Z</time>
      </trkpt>
      <trkpt lat="41.9742330" lon="-6.1335390">
        <ele>801.8</ele>
        <time>2019-08-16T07:03:40Z</time>
      </trkpt>
      <trkpt lat="41.9742270" lon="-6.1335800">
        <ele>801.9</ele>
        <time>2019-08-16T07:03:41Z</time>
      </trkpt>
      <trkpt lat="41.9742200" lon="-6.1336210">
        <ele>802.0</ele>
        <time>2019-08-16T07:03:42Z</time>
      </trkpt>
      <trkpt lat="41.9742130" lon="-6.1336620">
        <ele>802.0</ele>
        <time>2019-08-16T07:03:43Z</time>
      </trkpt>
      <trkpt lat="41.9742070" lon="-6.1337050">
        <ele>802.1</ele>
        <time>2019-08-16T07:03:44Z</time>
      </trkpt>
      <trkpt lat="41.9742010" lon="-6.1337470">
        <ele>802.2</ele>
        <time>2019-08-16T07:03:45Z</time>
      </trkpt>
      <trkpt lat="41.9741940" lon="-6.1337900">
        <ele>802.3</ele>
        <time>2019-08-16T07:03:46Z</time>
      </trkpt>
      <trkpt lat="41.9741880" lon="-6.1338320">
        <ele>802.4</ele>
        <time>2019-08-16T07:03:47Z</time>
      </trkpt>
      <trkpt lat="41.9741810" lon="-6.1338750">
        <ele>802.5</ele>
        <time>2019-08-16T07:03:48Z</time>
      </trkpt>
      <trkpt lat="41.9741740" lon="-6.1339180">
        <ele>802.5</ele>
        <time>2019-08-16T07:03:49Z</time>
      </trkpt>
      <trkpt lat="41.9741670" lon="-6.1339620">
        <ele>802.6</ele>
        <time>2019-08-16T07:03:50Z</time>
      </trkpt>
      <trkpt lat="41.9741610" lon="-6.1340050">
        <ele>802.7</ele>
        <time>2019-08-16T07:03:51Z</time>
      </trkpt>
      <trkpt lat="41.9741540" lon="-6.1340480">
        <ele>802.7</ele>
        <time>2019-08-16T07:03:52Z</time>
      </trkpt>
      <trkpt lat="41.9741460" lon="-6.1340920">
        <ele>802.8</ele>
        <time>2019-08-16T07:03:53Z</time>
      </trkpt>
      <trkpt lat="41.9741390" lon="-6.1341360">
        <ele>802.9</ele>
        <time>2019-08-16T07:03:54Z</time>
      </trkpt>
      <trkpt lat="41.9741310" lon="-6.1341800">
        <ele>802.9</ele>
        <time>2019-08-16T07:03:55Z</time>
      </trkpt>
      <trkpt lat="41.9741250" lon="-6.1342240">
        <ele>803.0</ele>
        <time>2019-08-16T07:03:56Z</time>
      </trkpt>
      <trkpt lat="41.9741180" lon="-6.1342700">
        <ele>803.0</ele>
        <time>2019-08-16T07:03:57Z</time>
      </trkpt>
      <trkpt lat="41.9741100" lon="-6.1343160">
        <ele>803.1</ele>
        <time>2019-08-16T07:03:58Z</time>
      </trkpt>
      <trkpt lat="41.9741030" lon="-6.1343640">
        <ele>803.1</ele>
        <time>2019-08-16T07:03:59Z</time>
      </trkpt>
      <trkpt lat="41.9740960" lon="-6.1344120">
        <ele>803.2</ele>
        <time>2019-08-16T07:04:00Z</time>
      </trkpt>
      <trkpt lat="41.9740880" lon="-6.1344610">
        <ele>803.2</ele>
        <time>2019-08-16T07:04:01Z</time>
      </trkpt>
      <trkpt lat="41.9740800" lon="-6.1345110">
        <ele>803.3</ele>
        <time>2019-08-16T07:04:02Z</time>
      </trkpt>
      <trkpt lat="41.9740730" lon="-6.1345600">
        <ele>803.3</ele>
        <time>2019-08-16T07:04:03Z</time>
      </trkpt>
      <trkpt lat="41.9740670" lon="-6.1346050">
        <ele>803.4</ele>
        <time>2019-08-16T07:04:04Z</time>
      </trkpt>
      <trkpt lat="41.9740610" lon="-6.1346500">
        <ele>803.4</ele>
        <time>2019-08-16T07:04:05Z</time>
      </trkpt>
      <trkpt lat="41.9740560" lon="-6.1346950">
        <ele>803.5</ele>
        <time>2019-08-16T07:04:06Z</time>
      </trkpt>
      <trkpt lat="41.9740500" lon="-6.1347420">
        <ele>803.5</ele>
        <time>2019-08-16T07:04:07Z</time>
      </trkpt>
      <trkpt lat="41.9740440" lon="-6.1347900">
        <ele>803.6</ele>
        <time>2019-08-16T07:04:08Z</time>
      </trkpt>
      <trkpt lat="41.9740390" lon="-6.1348380">
        <ele>803.6</ele>
        <time>2019-08-16T07:04:09Z</time>
      </trkpt>
      <trkpt lat="41.9740350" lon="-6.1348840">
        <ele>803.7</ele>
        <time>2019-08-16T07:04:10Z</time>
      </trkpt>
      <trkpt lat="41.9740300" lon="-6.1349280">
        <ele>803.7</ele>
        <time>2019-08-16T07:04:11Z</time>
      </trkpt>
      <trkpt lat="41.9740250" lon="-6.1349700">
        <ele>803.7</ele>
        <time>2019-08-16T07:04:12Z</time>
      </trkpt>
      <trkpt lat="41.9740200" lon="-6.1350100">
        <ele>803.7</ele>
        <time>2019-08-16T07:04:13Z</time>
      </trkpt>
      <trkpt lat="41.9740150" lon="-6.1350550">
        <ele>803.8</ele>
        <time>2019-08-16T07:04:14Z</time>
      </trkpt>
      <trkpt lat="41.9740090" lon="-6.1351020">
        <ele>803.8</ele>
        <time>2019-08-16T07:04:15Z</time>
      </trkpt>
      <trkpt lat="41.9740030" lon="-6.1351510">
        <ele>803.8</ele>
        <time>2019-08-16T07:04:16Z</time>
      </trkpt>
      <trkpt lat="41.9739960" lon="-6.1352030">
        <ele>803.9</ele>
        <time>2019-08-16T07:04:17Z</time>
      </trkpt>
      <trkpt lat="41.9739890" lon="-6.1352560">
        <ele>803.9</ele>
        <time>2019-08-16T07:04:18Z</time>
      </trkpt>
      <trkpt lat="41.9739840" lon="-6.1353060">
        <ele>803.9</ele>
        <time>2019-08-16T07:04:19Z</time>
      </trkpt>
      <trkpt lat="41.9739780" lon="-6.1353530">
        <ele>804.0</ele>
        <time>2019-08-16T07:04:20Z</time>
      </trkpt>
      <trkpt lat="41.9739720" lon="-6.1354010">
        <ele>804.0</ele>
        <time>2019-08-16T07:04:21Z</time>
      </trkpt>
      <trkpt lat="41.9739650" lon="-6.1354490">
        <ele>804.0</ele>
        <time>2019-08-16T07:04:22Z</time>
      </trkpt>
      <trkpt lat="41.9739580" lon="-6.1354990">
        <ele>804.1</ele>
        <time>2019-08-16T07:04:23Z</time>
      </trkpt>
      <trkpt lat="41.9739510" lon="-6.1355480">
        <ele>804.1</ele>
        <time>2019-08-16T07:04:24Z</time>
      </trkpt>
      <trkpt lat="41.9739460" lon="-6.1355970">
        <ele>804.1</ele>
        <time>2019-08-16T07:04:25Z</time>
      </trkpt>
      <trkpt lat="41.9739400" lon="-6.1356480">
        <ele>804.1</ele>
        <time>2019-08-16T07:04:26Z</time>
      </trkpt>
      <trkpt lat="41.9739320" lon="-6.1357000">
        <ele>804.2</ele>
        <time>2019-08-16T07:04:27Z</time>
      </trkpt>
      <trkpt lat="41.9739250" lon="-6.1357520">
        <ele>804.2</ele>
        <time>2019-08-16T07:04:28Z</time>
      </trkpt>
      <trkpt lat="41.9739180" lon="-6.1358030">
        <ele>804.2</ele>
        <time>2019-08-16T07:04:29Z</time>
      </trkpt>
      <trkpt lat="41.9739110" lon="-6.1358530">
        <ele>804.3</ele>
        <time>2019-08-16T07:04:30Z</time>
      </trkpt>
      <trkpt lat="41.9739060" lon="-6.1359050">
        <ele>804.3</ele>
        <time>2019-08-16T07:04:31Z</time>
      </trkpt>
      <trkpt lat="41.9739020" lon="-6.1359560">
        <ele>804.3</ele>
        <time>2019-08-16T07:04:32Z</time>
      </trkpt>
      <trkpt lat="41.9738960" lon="-6.1360070">
        <ele>804.4</ele>
        <time>2019-08-16T07:04:33Z</time>
      </trkpt>
      <trkpt lat="41.9738900" lon="-6.1360580">
        <ele>804.4</ele>
        <time>2019-08-16T07:04:34Z</time>
      </trkpt>
      <trkpt lat="41.9738830" lon="-6.1361090">
        <ele>804.5</ele>
        <time>2019-08-16T07:04:35Z</time>
      </trkpt>
      <trkpt lat="41.9738770" lon="-6.1361590">
        <ele>804.5</ele>
        <time>2019-08-16T07:04:36Z</time>
      </trkpt>
      <trkpt lat="41.9738700" lon="-6.1362090">
        <ele>804.6</ele>
        <time>2019-08-16T07:04:37Z</time>
      </trkpt>
      <trkpt lat="41.9738650" lon="-6.1362590">
        <ele>804.6</ele>
        <time>2019-08-16T07:04:38Z</time>
      </trkpt>
      <trkpt lat="41.9738590" lon="-6.1363100">
        <ele>804.7</ele>
        <time>2019-08-16T07:04:39Z</time>
      </trkpt>
      <trkpt lat="41.9738520" lon="-6.1363630">
        <ele>804.7</ele>
        <time>2019-08-16T07:04:40Z</time>
      </trkpt>
      <trkpt lat="41.9738460" lon="-6.1364150">
        <ele>804.8</ele>
        <time>2019-08-16T07:04:41Z</time>
      </trkpt>
      <trkpt lat="41.9738380" lon="-6.1364680">
        <ele>804.8</ele>
        <time>2019-08-16T07:04:42Z</time>
      </trkpt>
      <trkpt lat="41.9738310" lon="-6.1365230">
        <ele>804.8</ele>
        <time>2019-08-16T07:04:43Z</time>
      </trkpt>
      <trkpt lat="41.9738240" lon="-6.1365780">
        <ele>804.8</ele>
        <time>2019-08-16T07:04:44Z</time>
      </trkpt>
      <trkpt lat="41.9738190" lon="-6.1366330">
        <ele>804.8</ele>
        <time>2019-08-16T07:04:45Z</time>
      </trkpt>
      <trkpt lat="41.9738120" lon="-6.1366880">
        <ele>804.9</ele>
        <time>2019-08-16T07:04:46Z</time>
      </trkpt>
      <trkpt lat="41.9738060" lon="-6.1367410">
        <ele>804.9</ele>
        <time>2019-08-16T07:04:47Z</time>
      </trkpt>
      <trkpt lat="41.9738000" lon="-6.1367960">
        <ele>804.9</ele>
        <time>2019-08-16T07:04:48Z</time>
      </trkpt>
      <trkpt lat="41.9737940" lon="-6.1368520">
        <ele>804.9</ele>
        <time>2019-08-16T07:04:49Z</time>
      </trkpt>
      <trkpt lat="41.9737860" lon="-6.1369070">
        <ele>805.0</ele>
        <time>2019-08-16T07:04:50Z</time>
      </trkpt>
      <trkpt lat="41.9737780" lon="-6.1369590">
        <ele>805.0</ele>
        <time>2019-08-16T07:04:51Z</time>
      </trkpt>
      <trkpt lat="41.9737690" lon="-6.1370120">
        <ele>805.0</ele>
        <time>2019-08-16T07:04:52Z</time>
      </trkpt>
      <trkpt lat="41.9737620" lon="-6.1370650">
        <ele>805.1</ele>
        <time>2019-08-16T07:04:53Z</time>
      </trkpt>
      <trkpt lat="41.9737530" lon="-6.1371200">
        <ele>805.1</ele>
        <time>2019-08-16T07:04:54Z</time>
      </trkpt>
      <trkpt lat="41.9737420" lon="-6.1371760">
        <ele>805.2</ele>
        <time>2019-08-16T07:04:55Z</time>
      </trkpt>
      <trkpt lat="41.9737310" lon="-6.1372330">
        <ele>805.2</ele>
        <time>2019-08-16T07:04:56Z</time>
      </trkpt>
      <trkpt lat="41.9737190" lon="-6.1372900">
        <ele>805.2</ele>
        <time>2019-08-16T07:04:57Z</time>
      </trkpt>
      <trkpt lat="41.9737060" lon="-6.1373470">
        <ele>805.3</ele>
        <time>2019-08-16T07:04:58Z</time>
      </trkpt>
      <trkpt lat="41.9736910" lon="-6.1374040">
        <ele>805.3</ele>
        <time>2019-08-16T07:04:59Z</time>
      </trkpt>
      <trkpt lat="41.9736760" lon="-6.1374600">
        <ele>805.3</ele>
        <time>2019-08-16T07:05:00Z</time>
      </trkpt>
      <trkpt lat="41.9736600" lon="-6.1375120">
        <ele>805.3</ele>
        <time>2019-08-16T07:05:01Z</time>
      </trkpt>
      <trkpt lat="41.9736450" lon="-6.1375610">
        <ele>805.3</ele>
        <time>2019-08-16T07:05:02Z</time>
      </trkpt>
      <trkpt lat="41.9736280" lon="-6.1376100">
        <ele>805.3</ele>
        <time>2019-08-16T07:05:03Z</time>
      </trkpt>
      <trkpt lat="41.9736120" lon="-6.1376570">
        <ele>805.3</ele>
        <time>2019-08-16T07:05:04Z</time>
      </trkpt>
      <trkpt lat="41.9735960" lon="-6.1377020">
        <ele>805.3</ele>
        <time>2019-08-16T07:05:05Z</time>
      </trkpt>
      <trkpt lat="41.9735790" lon="-6.1377520">
        <ele>805.3</ele>
        <time>2019-08-16T07:05:06Z</time>
      </trkpt>
      <trkpt lat="41.9735600" lon="-6.1378040">
        <ele>805.3</ele>
        <time>2019-08-16T07:05:07Z</time>
      </trkpt>
      <trkpt lat="41.9735400" lon="-6.1378570">
        <ele>805.3</ele>
        <time>2019-08-16T07:05:08Z</time>
      </trkpt>
      <trkpt lat="41.9735220" lon="-6.1379130">
        <ele>805.3</ele>
        <time>2019-08-16T07:05:09Z</time>
      </trkpt>
      <trkpt lat="41.9735030" lon="-6.1379710">
        <ele>805.2</ele>
        <time>2019-08-16T07:05:10Z</time>
      </trkpt>
      <trkpt lat="41.9734860" lon="-6.1380310">
        <ele>805.2</ele>
        <time>2019-08-16T07:05:11Z</time>
      </trkpt>
      <trkpt lat="41.9734690" lon="-6.1380890">
        <ele>805.1</ele>
        <time>2019-08-16T07:05:12Z</time>
      </trkpt>
      <trkpt lat="41.9734540" lon="-6.1381470">
        <ele>805.0</ele>
        <time>2019-08-16T07:05:13Z</time>
      </trkpt>
      <trkpt lat="41.9734390" lon="-6.1382040">
        <ele>804.9</ele>
        <time>2019-08-16T07:05:14Z</time>
      </trkpt>
      <trkpt lat="41.9734280" lon="-6.1382590">
        <ele>804.9</ele>
        <time>2019-08-16T07:05:15Z</time>
      </trkpt>
      <trkpt lat="41.9734200" lon="-6.1383180">
        <ele>804.8</ele>
        <time>2019-08-16T07:05:16Z</time>
      </trkpt>
      <trkpt lat="41.9734100" lon="-6.1383770">
        <ele>804.7</ele>
        <time>2019-08-16T07:05:17Z</time>
      </trkpt>
      <trkpt lat="41.9734000" lon="-6.1384350">
        <ele>804.6</ele>
        <time>2019-08-16T07:05:18Z</time>
      </trkpt>
      <trkpt lat="41.9733940" lon="-6.1384980">
        <ele>804.5</ele>
        <time>2019-08-16T07:05:19Z</time>
      </trkpt>
      <trkpt lat="41.9733900" lon="-6.1385620">
        <ele>804.5</ele>
        <time>2019-08-16T07:05:20Z</time>
      </trkpt>
      <trkpt lat="41.9733880" lon="-6.1386260">
        <ele>804.4</ele>
        <time>2019-08-16T07:05:21Z</time>
      </trkpt>
      <trkpt lat="41.9733870" lon="-6.1386860">
        <ele>804.3</ele>
        <time>2019-08-16T07:05:22Z</time>
      </trkpt>
      <trkpt lat="41.9733850" lon="-6.1387420">
        <ele>804.3</ele>
        <time>2019-08-16T07:05:23Z</time>
      </trkpt>
      <trkpt lat="41.9733830" lon="-6.1387990">
        <ele>804.3</ele>
        <time>2019-08-16T07:05:24Z</time>
      </trkpt>
      <trkpt lat="41.9733790" lon="-6.1388570">
        <ele>804.2</ele>
        <time>2019-08-16T07:05:25Z</time>
      </trkpt>
      <trkpt lat="41.9733740" lon="-6.1389150">
        <ele>804.2</ele>
        <time>2019-08-16T07:05:26Z</time>
      </trkpt>
      <trkpt lat="41.9733680" lon="-6.1389740">
        <ele>804.2</ele>
        <time>2019-08-16T07:05:27Z</time>
      </trkpt>
      <trkpt lat="41.9733630" lon="-6.1390330">
        <ele>804.2</ele>
        <time>2019-08-16T07:05:28Z</time>
      </trkpt>
      <trkpt lat="41.9733570" lon="-6.1390950">
        <ele>804.2</ele>
        <time>2019-08-16T07:05:29Z</time>
      </trkpt>
      <trkpt lat="41.9733500" lon="-6.1391560">
        <ele>804.2</ele>
        <time>2019-08-16T07:05:30Z</time>
      </trkpt>
      <trkpt lat="41.9733410" lon="-6.1392160">
        <ele>804.2</ele>
        <time>2019-08-16T07:05:31Z</time>
      </trkpt>
      <trkpt lat="41.9733350" lon="-6.1392780">
        <ele>804.2</ele>
        <time>2019-08-16T07:05:32Z</time>
      </trkpt>
      <trkpt lat="41.9733290" lon="-6.1393410">
        <ele>804.2</ele>
        <time>2019-08-16T07:05:33Z</time>
      </trkpt>
      <trkpt lat="41.9733220" lon="-6.1394020">
        <ele>804.2</ele>
        <time>2019-08-16T07:05:34Z</time>
      </trkpt>
      <trkpt lat="41.9733150" lon="-6.1394620">
        <ele>804.2</ele>
        <time>2019-08-16T07:05:35Z</time>
      </trkpt>
      <trkpt lat="41.9733070" lon="-6.1395220">
        <ele>804.2</ele>
        <time>2019-08-16T07:05:36Z</time>
      </trkpt>
      <trkpt lat="41.9733000" lon="-6.1395820">
        <ele>804.3</ele>
        <time>2019-08-16T07:05:37Z</time>
      </trkpt>
      <trkpt lat="41.9732930" lon="-6.1396420">
        <ele>804.3</ele>
        <time>2019-08-16T07:05:38Z</time>
      </trkpt>
      <trkpt lat="41.9732870" lon="-6.1397000">
        <ele>804.3</ele>
        <time>2019-08-16T07:05:39Z</time>
      </trkpt>
      <trkpt lat="41.9732800" lon="-6.1397590">
        <ele>804.4</ele>
        <time>2019-08-16T07:05:40Z</time>
      </trkpt>
      <trkpt lat="41.9732720" lon="-6.1398210">
        <ele>804.4</ele>
        <time>2019-08-16T07:05:41Z</time>
      </trkpt>
      <trkpt lat="41.9732650" lon="-6.1398830">
        <ele>804.5</ele>
        <time>2019-08-16T07:05:42Z</time>
      </trkpt>
      <trkpt lat="41.9732580" lon="-6.1399460">
        <ele>804.6</ele>
        <time>2019-08-16T07:05:43Z</time>
      </trkpt>
      <trkpt lat="41.9732500" lon="-6.1400070">
        <ele>804.6</ele>
        <time>2019-08-16T07:05:44Z</time>
      </trkpt>
      <trkpt lat="41.9732410" lon="-6.1400680">
        <ele>804.7</ele>
        <time>2019-08-16T07:05:45Z</time>
      </trkpt>
      <trkpt lat="41.9732310" lon="-6.1401300">
        <ele>804.7</ele>
        <time>2019-08-16T07:05:46Z</time>
      </trkpt>
      <trkpt lat="41.9732240" lon="-6.1401910">
        <ele>804.8</ele>
        <time>2019-08-16T07:05:47Z</time>
      </trkpt>
      <trkpt lat="41.9732160" lon="-6.1402530">
        <ele>804.9</ele>
        <time>2019-08-16T07:05:48Z</time>
      </trkpt>
      <trkpt lat="41.9732070" lon="-6.1403150">
        <ele>805.0</ele>
        <time>2019-08-16T07:05:49Z</time>
      </trkpt>
      <trkpt lat="41.9731980" lon="-6.1403780">
        <ele>805.1</ele>
        <time>2019-08-16T07:05:50Z</time>
      </trkpt>
      <trkpt lat="41.9731870" lon="-6.1404430">
        <ele>805.1</ele>
        <time>2019-08-16T07:05:51Z</time>
      </trkpt>
      <trkpt lat="41.9731770" lon="-6.1405070">
        <ele>805.2</ele>
        <time>2019-08-16T07:05:52Z</time>
      </trkpt>
      <trkpt lat="41.9731670" lon="-6.1405730">
        <ele>805.3</ele>
        <time>2019-08-16T07:05:53Z</time>
      </trkpt>
      <trkpt lat="41.9731580" lon="-6.1406350">
        <ele>805.4</ele>
        <time>2019-08-16T07:05:54Z</time>
      </trkpt>
      <trkpt lat="41.9731500" lon="-6.1406950">
        <ele>805.4</ele>
        <time>2019-08-16T07:05:55Z</time>
      </trkpt>
      <trkpt lat="41.9731400" lon="-6.1407560">
        <ele>805.4</ele>
        <time>2019-08-16T07:05:56Z</time>
      </trkpt>
      <trkpt lat="41.9731290" lon="-6.1408190">
        <ele>805.4</ele>
        <time>2019-08-16T07:05:57Z</time>
      </trkpt>
      <trkpt lat="41.9731200" lon="-6.1408850">
        <ele>805.5</ele>
        <time>2019-08-16T07:05:58Z</time>
      </trkpt>
      <trkpt lat="41.9731100" lon="-6.1409510">
        <ele>805.5</ele>
        <time>2019-08-16T07:05:59Z</time>
      </trkpt>
      <trkpt lat="41.9731010" lon="-6.1410170">
        <ele>805.4</ele>
        <time>2019-08-16T07:06:00Z</time>
      </trkpt>
      <trkpt lat="41.9730920" lon="-6.1410830">
        <ele>805.3</ele>
        <time>2019-08-16T07:06:01Z</time>
      </trkpt>
      <trkpt lat="41.9730830" lon="-6.1411510">
        <ele>805.2</ele>
        <time>2019-08-16T07:06:02Z</time>
      </trkpt>
      <trkpt lat="41.9730710" lon="-6.1412180">
        <ele>805.2</ele>
        <time>2019-08-16T07:06:03Z</time>
      </trkpt>
      <trkpt lat="41.9730580" lon="-6.1412850">
        <ele>805.1</ele>
        <time>2019-08-16T07:06:04Z</time>
      </trkpt>
      <trkpt lat="41.9730460" lon="-6.1413510">
        <ele>804.9</ele>
        <time>2019-08-16T07:06:05Z</time>
      </trkpt>
      <trkpt lat="41.9730340" lon="-6.1414190">
        <ele>804.8</ele>
        <time>2019-08-16T07:06:06Z</time>
      </trkpt>
      <trkpt lat="41.9730250" lon="-6.1414860">
        <ele>804.6</ele>
        <time>2019-08-16T07:06:07Z</time>
      </trkpt>
      <trkpt lat="41.9730160" lon="-6.1415530">
        <ele>804.4</ele>
        <time>2019-08-16T07:06:08Z</time>
      </trkpt>
      <trkpt lat="41.9730070" lon="-6.1416180">
        <ele>804.3</ele>
        <time>2019-08-16T07:06:09Z</time>
      </trkpt>
      <trkpt lat="41.9729990" lon="-6.1416850">
        <ele>804.1</ele>
        <time>2019-08-16T07:06:10Z</time>
      </trkpt>
      <trkpt lat="41.9729930" lon="-6.1417540">
        <ele>803.9</ele>
        <time>2019-08-16T07:06:11Z</time>
      </trkpt>
      <trkpt lat="41.9729870" lon="-6.1418240">
        <ele>803.7</ele>
        <time>2019-08-16T07:06:12Z</time>
      </trkpt>
      <trkpt lat="41.9729800" lon="-6.1418950">
        <ele>803.5</ele>
        <time>2019-08-16T07:06:13Z</time>
      </trkpt>
      <trkpt lat="41.9729740" lon="-6.1419680">
        <ele>803.3</ele>
        <time>2019-08-16T07:06:14Z</time>
      </trkpt>
      <trkpt lat="41.9729670" lon="-6.1420420">
        <ele>803.2</ele>
        <time>2019-08-16T07:06:15Z</time>
      </trkpt>
      <trkpt lat="41.9729600" lon="-6.1421160">
        <ele>803.1</ele>
        <time>2019-08-16T07:06:16Z</time>
      </trkpt>
      <trkpt lat="41.9729540" lon="-6.1421850">
        <ele>803.0</ele>
        <time>2019-08-16T07:06:17Z</time>
      </trkpt>
      <trkpt lat="41.9729470" lon="-6.1422530">
        <ele>802.9</ele>
        <time>2019-08-16T07:06:18Z</time>
      </trkpt>
      <trkpt lat="41.9729380" lon="-6.1423190">
        <ele>802.8</ele>
        <time>2019-08-16T07:06:19Z</time>
      </trkpt>
      <trkpt lat="41.9729310" lon="-6.1423880">
        <ele>802.7</ele>
        <time>2019-08-16T07:06:20Z</time>
      </trkpt>
      <trkpt lat="41.9729260" lon="-6.1424550">
        <ele>802.6</ele>
        <time>2019-08-16T07:06:21Z</time>
      </trkpt>
      <trkpt lat="41.9729200" lon="-6.1425220">
        <ele>802.5</ele>
        <time>2019-08-16T07:06:22Z</time>
      </trkpt>
      <trkpt lat="41.9729170" lon="-6.1425880">
        <ele>802.3</ele>
        <time>2019-08-16T07:06:23Z</time>
      </trkpt>
      <trkpt lat="41.9729150" lon="-6.1426530">
        <ele>802.2</ele>
        <time>2019-08-16T07:06:24Z</time>
      </trkpt>
      <trkpt lat="41.9729130" lon="-6.1427180">
        <ele>802.1</ele>
        <time>2019-08-16T07:06:25Z</time>
      </trkpt>
      <trkpt lat="41.9729120" lon="-6.1427840">
        <ele>802.0</ele>
        <time>2019-08-16T07:06:26Z</time>
      </trkpt>
      <trkpt lat="41.9729120" lon="-6.1428490">
        <ele>801.9</ele>
        <time>2019-08-16T07:06:27Z</time>
      </trkpt>
      <trkpt lat="41.9729130" lon="-6.1429140">
        <ele>801.8</ele>
        <time>2019-08-16T07:06:28Z</time>
      </trkpt>
      <trkpt lat="41.9729140" lon="-6.1429790">
        <ele>801.5</ele>
        <time>2019-08-16T07:06:29Z</time>
      </trkpt>
      <trkpt lat="41.9729150" lon="-6.1430430">
        <ele>801.3</ele>
        <time>2019-08-16T07:06:30Z</time>
      </trkpt>
      <trkpt lat="41.9729160" lon="-6.1431080">
        <ele>801.0</ele>
        <time>2019-08-16T07:06:31Z</time>
      </trkpt>
      <trkpt lat="41.9729170" lon="-6.1431730">
        <ele>800.7</ele>
        <time>2019-08-16T07:06:32Z</time>
      </trkpt>
      <trkpt lat="41.9729200" lon="-6.1432360">
        <ele>800.5</ele>
        <time>2019-08-16T07:06:33Z</time>
      </trkpt>
      <trkpt lat="41.9729220" lon="-6.1432990">
        <ele>800.4</ele>
        <time>2019-08-16T07:06:34Z</time>
      </trkpt>
      <trkpt lat="41.9729250" lon="-6.1433610">
        <ele>800.2</ele>
        <time>2019-08-16T07:06:35Z</time>
      </trkpt>
      <trkpt lat="41.9729270" lon="-6.1434190">
        <ele>800.1</ele>
        <time>2019-08-16T07:06:36Z</time>
      </trkpt>
      <trkpt lat="41.9729290" lon="-6.1434710">
        <ele>799.9</ele>
        <time>2019-08-16T07:06:37Z</time>
      </trkpt>
      <trkpt lat="41.9729330" lon="-6.1435150">
        <ele>799.8</ele>
        <time>2019-08-16T07:06:38Z</time>
      </trkpt>
      <trkpt lat="41.9729400" lon="-6.1435540">
        <ele>799.6</ele>
        <time>2019-08-16T07:06:39Z</time>
      </trkpt>
      <trkpt lat="41.9729540" lon="-6.1435900">
        <ele>799.4</ele>
        <time>2019-08-16T07:06:40Z</time>
      </trkpt>
      <trkpt lat="41.9729750" lon="-6.1436190">
        <ele>799.2</ele>
        <time>2019-08-16T07:06:41Z</time>
      </trkpt>
      <trkpt lat="41.9730060" lon="-6.1436330">
        <ele>798.7</ele>
        <time>2019-08-16T07:06:42Z</time>
      </trkpt>
      <trkpt lat="41.9730420" lon="-6.1436240">
        <ele>798.6</ele>
        <time>2019-08-16T07:06:43Z</time>
      </trkpt>
      <trkpt lat="41.9730770" lon="-6.1436020">
        <ele>798.5</ele>
        <time>2019-08-16T07:06:44Z</time>
      </trkpt>
      <trkpt lat="41.9731100" lon="-6.1435700">
        <ele>798.4</ele>
        <time>2019-08-16T07:06:45Z</time>
      </trkpt>
      <trkpt lat="41.9731440" lon="-6.1435350">
        <ele>798.3</ele>
        <time>2019-08-16T07:06:46Z</time>
      </trkpt>
      <trkpt lat="41.9731790" lon="-6.1434950">
        <ele>798.2</ele>
        <time>2019-08-16T07:06:47Z</time>
      </trkpt>
      <trkpt lat="41.9732160" lon="-6.1434540">
        <ele>798.1</ele>
        <time>2019-08-16T07:06:48Z</time>
      </trkpt>
      <trkpt lat="41.9732530" lon="-6.1434090">
        <ele>798.0</ele>
        <time>2019-08-16T07:06:49Z</time>
      </trkpt>
      <trkpt lat="41.9732910" lon="-6.1433630">
        <ele>797.9</ele>
        <time>2019-08-16T07:06:50Z</time>
      </trkpt>
      <trkpt lat="41.9733310" lon="-6.1433160">
        <ele>797.9</ele>
        <time>2019-08-16T07:06:51Z</time>
      </trkpt>
      <trkpt lat="41.9733720" lon="-6.1432680">
        <ele>797.8</ele>
        <time>2019-08-16T07:06:52Z</time>
      </trkpt>
      <trkpt lat="41.9734120" lon="-6.1432200">
        <ele>797.8</ele>
        <time>2019-08-16T07:06:53Z</time>
      </trkpt>
      <trkpt lat="41.9734510" lon="-6.1431730">
        <ele>797.7</ele>
        <time>2019-08-16T07:06:54Z</time>
      </trkpt>
      <trkpt lat="41.9734910" lon="-6.1431270">
        <ele>797.7</ele>
        <time>2019-08-16T07:06:55Z</time>
      </trkpt>
      <trkpt lat="41.9735300" lon="-6.1430820">
        <ele>797.6</ele>
        <time>2019-08-16T07:06:56Z</time>
      </trkpt>
      <trkpt lat="41.9735720" lon="-6.1430380">
        <ele>797.6</ele>
        <time>2019-08-16T07:06:57Z</time>
      </trkpt>
      <trkpt lat="41.9736150" lon="-6.1429910">
        <ele>797.6</ele>
        <time>2019-08-16T07:06:58Z</time>
      </trkpt>
      <trkpt lat="41.9736590" lon="-6.1429430">
        <ele>797.5</ele>
        <time>2019-08-16T07:06:59Z</time>
      </trkpt>
      <trkpt lat="41.9737040" lon="-6.1428940">
        <ele>797.5</ele>
        <time>2019-08-16T07:07:00Z</time>
      </trkpt>
      <trkpt lat="41.9737480" lon="-6.1428470">
        <ele>797.5</ele>
        <time>2019-08-16T07:07:01Z</time>
      </trkpt>
      <trkpt lat="41.9737920" lon="-6.1428010">
        <ele>797.4</ele>
        <time>2019-08-16T07:07:02Z</time>
      </trkpt>
      <trkpt lat="41.9738340" lon="-6.1427520">
        <ele>797.4</ele>
        <time>2019-08-16T07:07:03Z</time>
      </trkpt>
      <trkpt lat="41.9738750" lon="-6.1427020">
        <ele>797.4</ele>
        <time>2019-08-16T07:07:04Z</time>
      </trkpt>
      <trkpt lat="41.9739140" lon="-6.1426520">
        <ele>797.3</ele>
        <time>2019-08-16T07:07:05Z</time>
      </trkpt>
      <trkpt lat="41.9739520" lon="-6.1426020">
        <ele>797.3</ele>
        <time>2019-08-16T07:07:06Z</time>
      </trkpt>
      <trkpt lat="41.9739890" lon="-6.1425490">
        <ele>797.3</ele>
        <time>2019-08-16T07:07:07Z</time>
      </trkpt>
      <trkpt lat="41.9740230" lon="-6.1424940">
        <ele>797.3</ele>
        <time>2019-08-16T07:07:08Z</time>
      </trkpt>
      <trkpt lat="41.9740570" lon="-6.1424380">
        <ele>797.2</ele>
        <time>2019-08-16T07:07:09Z</time>
      </trkpt>
      <trkpt lat="41.9740900" lon="-6.1423800">
        <ele>797.2</ele>
        <time>2019-08-16T07:07:10Z</time>
      </trkpt>
      <trkpt lat="41.9741230" lon="-6.1423210">
        <ele>797.1</ele>
        <time>2019-08-16T07:07:11Z</time>
      </trkpt>
      <trkpt lat="41.9741550" lon="-6.1422590">
        <ele>797.0</ele>
        <time>2019-08-16T07:07:12Z</time>
      </trkpt>
      <trkpt lat="41.9741880" lon="-6.1421960">
        <ele>796.9</ele>
        <time>2019-08-16T07:07:13Z</time>
      </trkpt>
      <trkpt lat="41.9742200" lon="-6.1421310">
        <ele>796.8</ele>
        <time>2019-08-16T07:07:14Z</time>
      </trkpt>
      <trkpt lat="41.9742530" lon="-6.1420640">
        <ele>796.7</ele>
        <time>2019-08-16T07:07:15Z</time>
      </trkpt>
      <trkpt lat="41.9742860" lon="-6.1419960">
        <ele>796.6</ele>
        <time>2019-08-16T07:07:16Z</time>
      </trkpt>
      <trkpt lat="41.9743170" lon="-6.1419270">
        <ele>796.5</ele>
        <time>2019-08-16T07:07:17Z</time>
      </trkpt>
      <trkpt lat="41.9743490" lon="-6.1418570">
        <ele>796.3</ele>
        <time>2019-08-16T07:07:18Z</time>
      </trkpt>
      <trkpt lat="41.9743810" lon="-6.1417860">
        <ele>796.1</ele>
        <time>2019-08-16T07:07:19Z</time>
      </trkpt>
      <trkpt lat="41.9744120" lon="-6.1417120">
        <ele>795.9</ele>
        <time>2019-08-16T07:07:20Z</time>
      </trkpt>
      <trkpt lat="41.9744440" lon="-6.1416380">
        <ele>795.7</ele>
        <time>2019-08-16T07:07:21Z</time>
      </trkpt>
      <trkpt lat="41.9744740" lon="-6.1415650">
        <ele>795.5</ele>
        <time>2019-08-16T07:07:22Z</time>
      </trkpt>
      <trkpt lat="41.9745050" lon="-6.1414920">
        <ele>795.3</ele>
        <time>2019-08-16T07:07:23Z</time>
      </trkpt>
      <trkpt lat="41.9745390" lon="-6.1414190">
        <ele>795.1</ele>
        <time>2019-08-16T07:07:24Z</time>
      </trkpt>
      <trkpt lat="41.9745730" lon="-6.1413450">
        <ele>795.0</ele>
        <time>2019-08-16T07:07:25Z</time>
      </trkpt>
      <trkpt lat="41.9746060" lon="-6.1412670">
        <ele>794.9</ele>
        <time>2019-08-16T07:07:26Z</time>
      </trkpt>
      <trkpt lat="41.9746410" lon="-6.1411890">
        <ele>794.7</ele>
        <time>2019-08-16T07:07:27Z</time>
      </trkpt>
      <trkpt lat="41.9746800" lon="-6.1411110">
        <ele>794.6</ele>
        <time>2019-08-16T07:07:28Z</time>
      </trkpt>
      <trkpt lat="41.9747250" lon="-6.1410370">
        <ele>794.3</ele>
        <time>2019-08-16T07:07:29Z</time>
      </trkpt>
      <trkpt lat="41.9747750" lon="-6.1409670">
        <ele>793.9</ele>
        <time>2019-08-16T07:07:30Z</time>
      </trkpt>
      <trkpt lat="41.9748310" lon="-6.1409050">
        <ele>793.6</ele>
        <time>2019-08-16T07:07:31Z</time>
      </trkpt>
      <trkpt lat="41.9748920" lon="-6.1408550">
        <ele>793.3</ele>
        <time>2019-08-16T07:07:32Z</time>
      </trkpt>
      <trkpt lat="41.9749550" lon="-6.1408160">
        <ele>793.0</ele>
        <time>2019-08-16T07:07:33Z</time>
      </trkpt>
      <trkpt lat="41.9750230" lon="-6.1407830">
        <ele>792.6</ele>
        <time>2019-08-16T07:07:34Z</time>
      </trkpt>
      <trkpt lat="41.9750930" lon="-6.1407530">
        <ele>792.3</ele>
        <time>2019-08-16T07:07:35Z</time>
      </trkpt>
      <trkpt lat="41.9751610" lon="-6.1407280">
        <ele>791.9</ele>
        <time>2019-08-16T07:07:36Z</time>
      </trkpt>
      <trkpt lat="41.9752270" lon="-6.1407050">
        <ele>791.5</ele>
        <time>2019-08-16T07:07:37Z</time>
      </trkpt>
      <trkpt lat="41.9752930" lon="-6.1406810">
        <ele>791.1</ele>
        <time>2019-08-16T07:07:38Z</time>
      </trkpt>
      <trkpt lat="41.9753590" lon="-6.1406550">
        <ele>790.6</ele>
        <time>2019-08-16T07:07:39Z</time>
      </trkpt>
      <trkpt lat="41.9754230" lon="-6.1406320">
        <ele>790.0</ele>
        <time>2019-08-16T07:07:40Z</time>
      </trkpt>
      <trkpt lat="41.9754840" lon="-6.1406110">
        <ele>789.5</ele>
        <time>2019-08-16T07:07:41Z</time>
      </trkpt>
      <trkpt lat="41.9755430" lon="-6.1405900">
        <ele>789.1</ele>
        <time>2019-08-16T07:07:42Z</time>
      </trkpt>
      <trkpt lat="41.9756020" lon="-6.1405670">
        <ele>788.7</ele>
        <time>2019-08-16T07:07:43Z</time>
      </trkpt>
      <trkpt lat="41.9756630" lon="-6.1405430">
        <ele>788.3</ele>
        <time>2019-08-16T07:07:44Z</time>
      </trkpt>
      <trkpt lat="41.9757230" lon="-6.1405190">
        <ele>788.0</ele>
        <time>2019-08-16T07:07:45Z</time>
      </trkpt>
      <trkpt lat="41.9757840" lon="-6.1404970">
        <ele>787.6</ele>
        <time>2019-08-16T07:07:46Z</time>
      </trkpt>
      <trkpt lat="41.9758440" lon="-6.1404780">
        <ele>787.3</ele>
        <time>2019-08-16T07:07:47Z</time>
      </trkpt>
      <trkpt lat="41.9759060" lon="-6.1404610">
        <ele>786.9</ele>
        <time>2019-08-16T07:07:48Z</time>
      </trkpt>
      <trkpt lat="41.9759670" lon="-6.1404450">
        <ele>786.6</ele>
        <time>2019-08-16T07:07:49Z</time>
      </trkpt>
      <trkpt lat="41.9760280" lon="-6.1404320">
        <ele>786.6</ele>
        <time>2019-08-16T07:07:50Z</time>
      </trkpt>
      <trkpt lat="41.9760900" lon="-6.1404180">
        <ele>786.6</ele>
        <time>2019-08-16T07:07:51Z</time>
      </trkpt>
      <trkpt lat="41.9761520" lon="-6.1404100">
        <ele>786.6</ele>
        <time>2019-08-16T07:07:52Z</time>
      </trkpt>
      <trkpt lat="41.9762150" lon="-6.1404130">
        <ele>786.5</ele>
        <time>2019-08-16T07:07:53Z</time>
      </trkpt>
      <trkpt lat="41.9762770" lon="-6.1404270">
        <ele>786.5</ele>
        <time>2019-08-16T07:07:54Z</time>
      </trkpt>
      <trkpt lat="41.9763350" lon="-6.1404490">
        <ele>786.4</ele>
        <time>2019-08-16T07:07:55Z</time>
      </trkpt>
      <trkpt lat="41.9763890" lon="-6.1404770">
        <ele>786.4</ele>
        <time>2019-08-16T07:07:56Z</time>
      </trkpt>
      <trkpt lat="41.9764440" lon="-6.1405080">
        <ele>786.4</ele>
        <time>2019-08-16T07:07:57Z</time>
      </trkpt>
      <trkpt lat="41.9764950" lon="-6.1405390">
        <ele>786.3</ele>
        <time>2019-08-16T07:07:58Z</time>
      </trkpt>
      <trkpt lat="41.9765470" lon="-6.1405670">
        <ele>786.3</ele>
        <time>2019-08-16T07:07:59Z</time>
      </trkpt>
      <trkpt lat="41.9765990" lon="-6.1405980">
        <ele>786.2</ele>
        <time>2019-08-16T07:08:00Z</time>
      </trkpt>
      <trkpt lat="41.9766500" lon="-6.1406260">
        <ele>786.2</ele>
        <time>2019-08-16T07:08:01Z</time>
      </trkpt>
      <trkpt lat="41.9766990" lon="-6.1406500">
        <ele>786.1</ele>
        <time>2019-08-16T07:08:02Z</time>
      </trkpt>
      <trkpt lat="41.9767450" lon="-6.1406740">
        <ele>786.1</ele>
        <time>2019-08-16T07:08:03Z</time>
      </trkpt>
      <trkpt lat="41.9767880" lon="-6.1406970">
        <ele>786.1</ele>
        <time>2019-08-16T07:08:04Z</time>
      </trkpt>
      <trkpt lat="41.9768290" lon="-6.1407200">
        <ele>786.0</ele>
        <time>2019-08-16T07:08:05Z</time>
      </trkpt>
      <trkpt lat="41.9768690" lon="-6.1407420">
        <ele>786.0</ele>
        <time>2019-08-16T07:08:06Z</time>
      </trkpt>
      <trkpt lat="41.9769070" lon="-6.1407650">
        <ele>786.0</ele>
        <time>2019-08-16T07:08:07Z</time>
      </trkpt>
      <trkpt lat="41.9769450" lon="-6.1407840">
        <ele>785.9</ele>
        <time>2019-08-16T07:08:08Z</time>
      </trkpt>
      <trkpt lat="41.9769840" lon="-6.1407980">
        <ele>785.9</ele>
        <time>2019-08-16T07:08:09Z</time>
      </trkpt>
      <trkpt lat="41.9770240" lon="-6.1408130">
        <ele>785.9</ele>
        <time>2019-08-16T07:08:10Z</time>
      </trkpt>
      <trkpt lat="41.9770650" lon="-6.1408310">
        <ele>785.9</ele>
        <time>2019-08-16T07:08:11Z</time>
      </trkpt>
      <trkpt lat="41.9771020" lon="-6.1408530">
        <ele>785.9</ele>
        <time>2019-08-16T07:08:12Z</time>
      </trkpt>
      <trkpt lat="41.9771380" lon="-6.1408770">
        <ele>785.9</ele>
        <time>2019-08-16T07:08:13Z</time>
      </trkpt>
      <trkpt lat="41.9771720" lon="-6.1409070">
        <ele>785.9</ele>
        <time>2019-08-16T07:08:14Z</time>
      </trkpt>
      <trkpt lat="41.9772050" lon="-6.1409300">
        <ele>785.9</ele>
        <time>2019-08-16T07:08:15Z</time>
      </trkpt>
      <trkpt lat="41.9772390" lon="-6.1409480">
        <ele>785.8</ele>
        <time>2019-08-16T07:08:16Z</time>
      </trkpt>
      <trkpt lat="41.9772740" lon="-6.1409630">
        <ele>785.8</ele>
        <time>2019-08-16T07:08:17Z</time>
      </trkpt>
      <trkpt lat="41.9773070" lon="-6.1409820">
        <ele>785.8</ele>
        <time>2019-08-16T07:08:18Z</time>
      </trkpt>
      <trkpt lat="41.9773360" lon="-6.1410000">
        <ele>785.8</ele>
        <time>2019-08-16T07:08:19Z</time>
      </trkpt>
      <trkpt lat="41.9773620" lon="-6.1410130">
        <ele>785.8</ele>
        <time>2019-08-16T07:08:20Z</time>
      </trkpt>
      <trkpt lat="41.9774160" lon="-6.1410380">
        <ele>785.8</ele>
        <time>2019-08-16T07:08:22Z</time>
      </trkpt>
      <trkpt lat="41.9774470" lon="-6.1410480">
        <ele>785.9</ele>
        <time>2019-08-16T07:08:23Z</time>
      </trkpt>
      <trkpt lat="41.9774770" lon="-6.1410610">
        <ele>785.9</ele>
        <time>2019-08-16T07:08:24Z</time>
      </trkpt>
      <trkpt lat="41.9775040" lon="-6.1410740">
        <ele>785.9</ele>
        <time>2019-08-16T07:08:25Z</time>
      </trkpt>
      <trkpt lat="41.9775320" lon="-6.1410910">
        <ele>785.9</ele>
        <time>2019-08-16T07:08:26Z</time>
      </trkpt>
      <trkpt lat="41.9775630" lon="-6.1411060">
        <ele>785.9</ele>
        <time>2019-08-16T07:08:27Z</time>
      </trkpt>
      <trkpt lat="41.9775920" lon="-6.1411160">
        <ele>785.9</ele>
        <time>2019-08-16T07:08:28Z</time>
      </trkpt>
      <trkpt lat="41.9776200" lon="-6.1411260">
        <ele>785.9</ele>
        <time>2019-08-16T07:08:29Z</time>
      </trkpt>
      <trkpt lat="41.9776690" lon="-6.1411500">
        <ele>785.9</ele>
        <time>2019-08-16T07:08:31Z</time>
      </trkpt>
      <trkpt lat="41.9776960" lon="-6.1411690">
        <ele>785.9</ele>
        <time>2019-08-16T07:08:32Z</time>
      </trkpt>
      <trkpt lat="41.9777230" lon="-6.1411910">
        <ele>785.9</ele>
        <time>2019-08-16T07:08:33Z</time>
      </trkpt>
      <trkpt lat="41.9777530" lon="-6.1412120">
        <ele>785.9</ele>
        <time>2019-08-16T07:08:34Z</time>
      </trkpt>
      <trkpt lat="41.9777870" lon="-6.1412310">
        <ele>785.9</ele>
        <time>2019-08-16T07:08:35Z</time>
      </trkpt>
      <trkpt lat="41.9778240" lon="-6.1412500">
        <ele>785.9</ele>
        <time>2019-08-16T07:08:36Z</time>
      </trkpt>
      <trkpt lat="41.9778640" lon="-6.1412700">
        <ele>785.9</ele>
        <time>2019-08-16T07:08:37Z</time>
      </trkpt>
      <trkpt lat="41.9779070" lon="-6.1412920">
        <ele>786.0</ele>
        <time>2019-08-16T07:08:38Z</time>
      </trkpt>
      <trkpt lat="41.9779510" lon="-6.1413110">
        <ele>786.0</ele>
        <time>2019-08-16T07:08:39Z</time>
      </trkpt>
      <trkpt lat="41.9779940" lon="-6.1413340">
        <ele>786.0</ele>
        <time>2019-08-16T07:08:40Z</time>
      </trkpt>
      <trkpt lat="41.9780340" lon="-6.1413600">
        <ele>786.0</ele>
        <time>2019-08-16T07:08:41Z</time>
      </trkpt>
      <trkpt lat="41.9780730" lon="-6.1413750">
        <ele>786.0</ele>
        <time>2019-08-16T07:08:42Z</time>
      </trkpt>
      <trkpt lat="41.9781090" lon="-6.1413930">
        <ele>786.0</ele>
        <time>2019-08-16T07:08:43Z</time>
      </trkpt>
      <trkpt lat="41.9781480" lon="-6.1414100">
        <ele>786.0</ele>
        <time>2019-08-16T07:08:44Z</time>
      </trkpt>
      <trkpt lat="41.9781820" lon="-6.1414290">
        <ele>786.0</ele>
        <time>2019-08-16T07:08:45Z</time>
      </trkpt>
      <trkpt lat="41.9782190" lon="-6.1414520">
        <ele>786.0</ele>
        <time>2019-08-16T07:08:46Z</time>
      </trkpt>
      <trkpt lat="41.9782540" lon="-6.1414710">
        <ele>786.0</ele>
        <time>2019-08-16T07:08:47Z</time>
      </trkpt>
      <trkpt lat="41.9782870" lon="-6.1414890">
        <ele>786.0</ele>
        <time>2019-08-16T07:08:48Z</time>
      </trkpt>
      <trkpt lat="41.9783240" lon="-6.1415090">
        <ele>786.0</ele>
        <time>2019-08-16T07:08:49Z</time>
      </trkpt>
      <trkpt lat="41.9783610" lon="-6.1415320">
        <ele>786.0</ele>
        <time>2019-08-16T07:08:50Z</time>
      </trkpt>
      <trkpt lat="41.9784000" lon="-6.1415540">
        <ele>786.0</ele>
        <time>2019-08-16T07:08:51Z</time>
      </trkpt>
      <trkpt lat="41.9784400" lon="-6.1415750">
        <ele>786.0</ele>
        <time>2019-08-16T07:08:52Z</time>
      </trkpt>
      <trkpt lat="41.9784810" lon="-6.1415930">
        <ele>786.0</ele>
        <time>2019-08-16T07:08:53Z</time>
      </trkpt>
      <trkpt lat="41.9785260" lon="-6.1416180">
        <ele>786.0</ele>
        <time>2019-08-16T07:08:54Z</time>
      </trkpt>
      <trkpt lat="41.9785700" lon="-6.1416410">
        <ele>786.0</ele>
        <time>2019-08-16T07:08:55Z</time>
      </trkpt>
      <trkpt lat="41.9786120" lon="-6.1416640">
        <ele>786.0</ele>
        <time>2019-08-16T07:08:56Z</time>
      </trkpt>
      <trkpt lat="41.9786520" lon="-6.1416880">
        <ele>786.0</ele>
        <time>2019-08-16T07:08:57Z</time>
      </trkpt>
      <trkpt lat="41.9786950" lon="-6.1417090">
        <ele>786.0</ele>
        <time>2019-08-16T07:08:58Z</time>
      </trkpt>
      <trkpt lat="41.9787360" lon="-6.1417320">
        <ele>786.0</ele>
        <time>2019-08-16T07:08:59Z</time>
      </trkpt>
      <trkpt lat="41.9787760" lon="-6.1417560">
        <ele>786.0</ele>
        <time>2019-08-16T07:09:00Z</time>
      </trkpt>
      <trkpt lat="41.9788160" lon="-6.1417770">
        <ele>786.0</ele>
        <time>2019-08-16T07:09:01Z</time>
      </trkpt>
      <trkpt lat="41.9788560" lon="-6.1417960">
        <ele>786.0</ele>
        <time>2019-08-16T07:09:02Z</time>
      </trkpt>
      <trkpt lat="41.9788950" lon="-6.1418120">
        <ele>786.0</ele>
        <time>2019-08-16T07:09:03Z</time>
      </trkpt>
      <trkpt lat="41.9789270" lon="-6.1418280">
        <ele>786.0</ele>
        <time>2019-08-16T07:09:04Z</time>
      </trkpt>
      <trkpt lat="41.9789650" lon="-6.1418480">
        <ele>786.0</ele>
        <time>2019-08-16T07:09:05Z</time>
      </trkpt>
      <trkpt lat="41.9790040" lon="-6.1418700">
        <ele>786.0</ele>
        <time>2019-08-16T07:09:06Z</time>
      </trkpt>
      <trkpt lat="41.9790450" lon="-6.1418900">
        <ele>786.0</ele>
        <time>2019-08-16T07:09:07Z</time>
      </trkpt>
      <trkpt lat="41.9790860" lon="-6.1419110">
        <ele>786.0</ele>
        <time>2019-08-16T07:09:08Z</time>
      </trkpt>
      <trkpt lat="41.9791240" lon="-6.1419320">
        <ele>786.0</ele>
        <time>2019-08-16T07:09:09Z</time>
      </trkpt>
      <trkpt lat="41.9791600" lon="-6.1419470">
        <ele>786.0</ele>
        <time>2019-08-16T07:09:10Z</time>
      </trkpt>
      <trkpt lat="41.9791960" lon="-6.1419630">
        <ele>786.0</ele>
        <time>2019-08-16T07:09:11Z</time>
      </trkpt>
      <trkpt lat="41.9792310" lon="-6.1419780">
        <ele>786.0</ele>
        <time>2019-08-16T07:09:12Z</time>
      </trkpt>
      <trkpt lat="41.9792720" lon="-6.1419980">
        <ele>786.0</ele>
        <time>2019-08-16T07:09:13Z</time>
      </trkpt>
      <trkpt lat="41.9793120" lon="-6.1420200">
        <ele>786.0</ele>
        <time>2019-08-16T07:09:14Z</time>
      </trkpt>
      <trkpt lat="41.9793540" lon="-6.1420430">
        <ele>786.0</ele>
        <time>2019-08-16T07:09:15Z</time>
      </trkpt>
      <trkpt lat="41.9793950" lon="-6.1420660">
        <ele>785.9</ele>
        <time>2019-08-16T07:09:16Z</time>
      </trkpt>
      <trkpt lat="41.9794340" lon="-6.1420870">
        <ele>785.9</ele>
        <time>2019-08-16T07:09:17Z</time>
      </trkpt>
      <trkpt lat="41.9794710" lon="-6.1421070">
        <ele>785.9</ele>
        <time>2019-08-16T07:09:18Z</time>
      </trkpt>
      <trkpt lat="41.9795060" lon="-6.1421280">
        <ele>785.9</ele>
        <time>2019-08-16T07:09:19Z</time>
      </trkpt>
      <trkpt lat="41.9795430" lon="-6.1421510">
        <ele>785.9</ele>
        <time>2019-08-16T07:09:20Z</time>
      </trkpt>
      <trkpt lat="41.9795790" lon="-6.1421750">
        <ele>785.9</ele>
        <time>2019-08-16T07:09:21Z</time>
      </trkpt>
      <trkpt lat="41.9796160" lon="-6.1422000">
        <ele>785.9</ele>
        <time>2019-08-16T07:09:22Z</time>
      </trkpt>
      <trkpt lat="41.9796520" lon="-6.1422200">
        <ele>785.9</ele>
        <time>2019-08-16T07:09:23Z</time>
      </trkpt>
      <trkpt lat="41.9796880" lon="-6.1422410">
        <ele>785.9</ele>
        <time>2019-08-16T07:09:24Z</time>
      </trkpt>
      <trkpt lat="41.9797240" lon="-6.1422610">
        <ele>785.9</ele>
        <time>2019-08-16T07:09:25Z</time>
      </trkpt>
      <trkpt lat="41.9797590" lon="-6.1422780">
        <ele>785.9</ele>
        <time>2019-08-16T07:09:26Z</time>
      </trkpt>
      <trkpt lat="41.9797950" lon="-6.1422940">
        <ele>785.9</ele>
        <time>2019-08-16T07:09:27Z</time>
      </trkpt>
      <trkpt lat="41.9798300" lon="-6.1423100">
        <ele>785.9</ele>
        <time>2019-08-16T07:09:28Z</time>
      </trkpt>
      <trkpt lat="41.9798660" lon="-6.1423310">
        <ele>785.9</ele>
        <time>2019-08-16T07:09:29Z</time>
      </trkpt>
      <trkpt lat="41.9798940" lon="-6.1423430">
        <ele>785.9</ele>
        <time>2019-08-16T07:09:30Z</time>
      </trkpt>
      <trkpt lat="41.9799480" lon="-6.1423780">
        <ele>785.9</ele>
        <time>2019-08-16T07:09:32Z</time>
      </trkpt>
      <trkpt lat="41.9799840" lon="-6.1423980">
        <ele>785.9</ele>
        <time>2019-08-16T07:09:33Z</time>
      </trkpt>
      <trkpt lat="41.9800230" lon="-6.1424210">
        <ele>785.9</ele>
        <time>2019-08-16T07:09:34Z</time>
      </trkpt>
      <trkpt lat="41.9800630" lon="-6.1424420">
        <ele>785.9</ele>
        <time>2019-08-16T07:09:35Z</time>
      </trkpt>
      <trkpt lat="41.9801040" lon="-6.1424600">
        <ele>786.0</ele>
        <time>2019-08-16T07:09:36Z</time>
      </trkpt>
      <trkpt lat="41.9801420" lon="-6.1424810">
        <ele>786.0</ele>
        <time>2019-08-16T07:09:37Z</time>
      </trkpt>
      <trkpt lat="41.9801810" lon="-6.1424990">
        <ele>786.0</ele>
        <time>2019-08-16T07:09:38Z</time>
      </trkpt>
      <trkpt lat="41.9802170" lon="-6.1425200">
        <ele>786.1</ele>
        <time>2019-08-16T07:09:39Z</time>
      </trkpt>
      <trkpt lat="41.9802520" lon="-6.1425420">
        <ele>786.1</ele>
        <time>2019-08-16T07:09:40Z</time>
      </trkpt>
      <trkpt lat="41.9802880" lon="-6.1425610">
        <ele>786.1</ele>
        <time>2019-08-16T07:09:41Z</time>
      </trkpt>
      <trkpt lat="41.9803220" lon="-6.1425820">
        <ele>786.2</ele>
        <time>2019-08-16T07:09:42Z</time>
      </trkpt>
      <trkpt lat="41.9803560" lon="-6.1426030">
        <ele>786.2</ele>
        <time>2019-08-16T07:09:43Z</time>
      </trkpt>
      <trkpt lat="41.9803900" lon="-6.1426310">
        <ele>786.3</ele>
        <time>2019-08-16T07:09:44Z</time>
      </trkpt>
      <trkpt lat="41.9804260" lon="-6.1426610">
        <ele>786.4</ele>
        <time>2019-08-16T07:09:45Z</time>
      </trkpt>
      <trkpt lat="41.9804620" lon="-6.1426930">
        <ele>786.8</ele>
        <time>2019-08-16T07:09:46Z</time>
      </trkpt>
      <trkpt lat="41.9804970" lon="-6.1427270">
        <ele>787.0</ele>
        <time>2019-08-16T07:09:47Z</time>
      </trkpt>
      <trkpt lat="41.9805310" lon="-6.1427660">
        <ele>787.2</ele>
        <time>2019-08-16T07:09:48Z</time>
      </trkpt>
      <trkpt lat="41.9805610" lon="-6.1428110">
        <ele>787.3</ele>
        <time>2019-08-16T07:09:49Z</time>
      </trkpt>
      <trkpt lat="41.9805890" lon="-6.1428600">
        <ele>787.5</ele>
        <time>2019-08-16T07:09:50Z</time>
      </trkpt>
      <trkpt lat="41.9806140" lon="-6.1429110">
        <ele>787.7</ele>
        <time>2019-08-16T07:09:51Z</time>
      </trkpt>
      <trkpt lat="41.9806370" lon="-6.1429650">
        <ele>787.8</ele>
        <time>2019-08-16T07:09:52Z</time>
      </trkpt>
      <trkpt lat="41.9806560" lon="-6.1430220">
        <ele>788.0</ele>
        <time>2019-08-16T07:09:53Z</time>
      </trkpt>
      <trkpt lat="41.9806700" lon="-6.1430800">
        <ele>788.2</ele>
        <time>2019-08-16T07:09:54Z</time>
      </trkpt>
      <trkpt lat="41.9806780" lon="-6.1431410">
        <ele>788.3</ele>
        <time>2019-08-16T07:09:55Z</time>
      </trkpt>
      <trkpt lat="41.9806850" lon="-6.1432010">
        <ele>788.4</ele>
        <time>2019-08-16T07:09:56Z</time>
      </trkpt>
      <trkpt lat="41.9806900" lon="-6.1432580">
        <ele>788.5</ele>
        <time>2019-08-16T07:09:57Z</time>
      </trkpt>
      <trkpt lat="41.9806930" lon="-6.1433130">
        <ele>788.6</ele>
        <time>2019-08-16T07:09:58Z</time>
      </trkpt>
      <trkpt lat="41.9806960" lon="-6.1433680">
        <ele>788.7</ele>
        <time>2019-08-16T07:09:59Z</time>
      </trkpt>
      <trkpt lat="41.9806960" lon="-6.1434220">
        <ele>788.8</ele>
        <time>2019-08-16T07:10:00Z</time>
      </trkpt>
      <trkpt lat="41.9806930" lon="-6.1434750">
        <ele>788.8</ele>
        <time>2019-08-16T07:10:01Z</time>
      </trkpt>
      <trkpt lat="41.9806860" lon="-6.1435270">
        <ele>788.9</ele>
        <time>2019-08-16T07:10:02Z</time>
      </trkpt>
      <trkpt lat="41.9806760" lon="-6.1435760">
        <ele>789.0</ele>
        <time>2019-08-16T07:10:03Z</time>
      </trkpt>
      <trkpt lat="41.9806630" lon="-6.1436230">
        <ele>788.8</ele>
        <time>2019-08-16T07:10:04Z</time>
      </trkpt>
      <trkpt lat="41.9806480" lon="-6.1436650">
        <ele>788.7</ele>
        <time>2019-08-16T07:10:05Z</time>
      </trkpt>
      <trkpt lat="41.9806310" lon="-6.1437050">
        <ele>788.5</ele>
        <time>2019-08-16T07:10:06Z</time>
      </trkpt>
      <trkpt lat="41.9806130" lon="-6.1437510">
        <ele>788.5</ele>
        <time>2019-08-16T07:10:07Z</time>
      </trkpt>
      <trkpt lat="41.9806000" lon="-6.1438040">
        <ele>788.5</ele>
        <time>2019-08-16T07:10:08Z</time>
      </trkpt>
      <trkpt lat="41.9805990" lon="-6.1438640">
        <ele>788.5</ele>
        <time>2019-08-16T07:10:09Z</time>
      </trkpt>
      <trkpt lat="41.9806080" lon="-6.1439250">
        <ele>788.5</ele>
        <time>2019-08-16T07:10:10Z</time>
      </trkpt>
      <trkpt lat="41.9806230" lon="-6.1439850">
        <ele>788.5</ele>
        <time>2019-08-16T07:10:11Z</time>
      </trkpt>
      <trkpt lat="41.9806340" lon="-6.1440450">
        <ele>788.5</ele>
        <time>2019-08-16T07:10:12Z</time>
      </trkpt>
      <trkpt lat="41.9806340" lon="-6.1441070">
        <ele>788.6</ele>
        <time>2019-08-16T07:10:13Z</time>
      </trkpt>
      <trkpt lat="41.9806240" lon="-6.1441700">
        <ele>788.6</ele>
        <time>2019-08-16T07:10:14Z</time>
      </trkpt>
      <trkpt lat="41.9806060" lon="-6.1442340">
        <ele>788.6</ele>
        <time>2019-08-16T07:10:15Z</time>
      </trkpt>
      <trkpt lat="41.9805880" lon="-6.1443030">
        <ele>788.6</ele>
        <time>2019-08-16T07:10:16Z</time>
      </trkpt>
      <trkpt lat="41.9805740" lon="-6.1443770">
        <ele>788.5</ele>
        <time>2019-08-16T07:10:17Z</time>
      </trkpt>
      <trkpt lat="41.9805710" lon="-6.1444550">
        <ele>788.5</ele>
        <time>2019-08-16T07:10:18Z</time>
      </trkpt>
      <trkpt lat="41.9805740" lon="-6.1445330">
        <ele>788.5</ele>
        <time>2019-08-16T07:10:19Z</time>
      </trkpt>
      <trkpt lat="41.9805840" lon="-6.1446100">
        <ele>788.4</ele>
        <time>2019-08-16T07:10:20Z</time>
      </trkpt>
      <trkpt lat="41.9805960" lon="-6.1446810">
        <ele>788.3</ele>
        <time>2019-08-16T07:10:21Z</time>
      </trkpt>
      <trkpt lat="41.9806100" lon="-6.1447490">
        <ele>788.3</ele>
        <time>2019-08-16T07:10:22Z</time>
      </trkpt>
      <trkpt lat="41.9806230" lon="-6.1448130">
        <ele>788.2</ele>
        <time>2019-08-16T07:10:23Z</time>
      </trkpt>
      <trkpt lat="41.9806340" lon="-6.1448770">
        <ele>788.1</ele>
        <time>2019-08-16T07:10:24Z</time>
      </trkpt>
      <trkpt lat="41.9806430" lon="-6.1449390">
        <ele>788.0</ele>
        <time>2019-08-16T07:10:25Z</time>
      </trkpt>
      <trkpt lat="41.9806510" lon="-6.1450010">
        <ele>787.9</ele>
        <time>2019-08-16T07:10:26Z</time>
      </trkpt>
      <trkpt lat="41.9806590" lon="-6.1450630">
        <ele>787.9</ele>
        <time>2019-08-16T07:10:27Z</time>
      </trkpt>
      <trkpt lat="41.9806660" lon="-6.1451250">
        <ele>787.9</ele>
        <time>2019-08-16T07:10:28Z</time>
      </trkpt>
      <trkpt lat="41.9806720" lon="-6.1451870">
        <ele>788.0</ele>
        <time>2019-08-16T07:10:29Z</time>
      </trkpt>
      <trkpt lat="41.9806770" lon="-6.1452500">
        <ele>788.0</ele>
        <time>2019-08-16T07:10:30Z</time>
      </trkpt>
      <trkpt lat="41.9806790" lon="-6.1453130">
        <ele>788.0</ele>
        <time>2019-08-16T07:10:31Z</time>
      </trkpt>
      <trkpt lat="41.9806800" lon="-6.1453750">
        <ele>788.0</ele>
        <time>2019-08-16T07:10:32Z</time>
      </trkpt>
      <trkpt lat="41.9806840" lon="-6.1454370">
        <ele>788.1</ele>
        <time>2019-08-16T07:10:33Z</time>
      </trkpt>
      <trkpt lat="41.9806940" lon="-6.1454990">
        <ele>788.1</ele>
        <time>2019-08-16T07:10:34Z</time>
      </trkpt>
      <trkpt lat="41.9807080" lon="-6.1455600">
        <ele>788.1</ele>
        <time>2019-08-16T07:10:35Z</time>
      </trkpt>
      <trkpt lat="41.9807250" lon="-6.1456220">
        <ele>788.0</ele>
        <time>2019-08-16T07:10:36Z</time>
      </trkpt>
      <trkpt lat="41.9807450" lon="-6.1456820">
        <ele>788.0</ele>
        <time>2019-08-16T07:10:37Z</time>
      </trkpt>
      <trkpt lat="41.9807700" lon="-6.1457430">
        <ele>787.9</ele>
        <time>2019-08-16T07:10:38Z</time>
      </trkpt>
      <trkpt lat="41.9807980" lon="-6.1458020">
        <ele>787.9</ele>
        <time>2019-08-16T07:10:39Z</time>
      </trkpt>
      <trkpt lat="41.9808280" lon="-6.1458620">
        <ele>787.8</ele>
        <time>2019-08-16T07:10:40Z</time>
      </trkpt>
      <trkpt lat="41.9808600" lon="-6.1459250">
        <ele>787.7</ele>
        <time>2019-08-16T07:10:41Z</time>
      </trkpt>
      <trkpt lat="41.9808920" lon="-6.1459940">
        <ele>787.6</ele>
        <time>2019-08-16T07:10:42Z</time>
      </trkpt>
      <trkpt lat="41.9809270" lon="-6.1460660">
        <ele>787.6</ele>
        <time>2019-08-16T07:10:43Z</time>
      </trkpt>
      <trkpt lat="41.9809680" lon="-6.1461370">
        <ele>787.4</ele>
        <time>2019-08-16T07:10:44Z</time>
      </trkpt>
      <trkpt lat="41.9810130" lon="-6.1462030">
        <ele>787.2</ele>
        <time>2019-08-16T07:10:45Z</time>
      </trkpt>
      <trkpt lat="41.9810580" lon="-6.1462650">
        <ele>787.1</ele>
        <time>2019-08-16T07:10:46Z</time>
      </trkpt>
      <trkpt lat="41.9811000" lon="-6.1463260">
        <ele>787.0</ele>
        <time>2019-08-16T07:10:47Z</time>
      </trkpt>
      <trkpt lat="41.9811340" lon="-6.1463910">
        <ele>787.0</ele>
        <time>2019-08-16T07:10:48Z</time>
      </trkpt>
      <trkpt lat="41.9811570" lon="-6.1464590">
        <ele>786.9</ele>
        <time>2019-08-16T07:10:49Z</time>
      </trkpt>
      <trkpt lat="41.9811640" lon="-6.1465270">
        <ele>786.9</ele>
        <time>2019-08-16T07:10:50Z</time>
      </trkpt>
      <trkpt lat="41.9811530" lon="-6.1465860">
        <ele>786.9</ele>
        <time>2019-08-16T07:10:51Z</time>
      </trkpt>
      <trkpt lat="41.9811280" lon="-6.1466330">
        <ele>787.0</ele>
        <time>2019-08-16T07:10:52Z</time>
      </trkpt>
      <trkpt lat="41.9810900" lon="-6.1466660">
        <ele>787.0</ele>
        <time>2019-08-16T07:10:53Z</time>
      </trkpt>
      <trkpt lat="41.9810430" lon="-6.1466820">
        <ele>787.0</ele>
        <time>2019-08-16T07:10:54Z</time>
      </trkpt>
      <trkpt lat="41.9809940" lon="-6.1466900">
        <ele>787.0</ele>
        <time>2019-08-16T07:10:55Z</time>
      </trkpt>
      <trkpt lat="41.9809430" lon="-6.1466910">
        <ele>787.0</ele>
        <time>2019-08-16T07:10:56Z</time>
      </trkpt>
      <trkpt lat="41.9808910" lon="-6.1466930">
        <ele>787.0</ele>
        <time>2019-08-16T07:10:57Z</time>
      </trkpt>
      <trkpt lat="41.9808370" lon="-6.1466960">
        <ele>787.0</ele>
        <time>2019-08-16T07:10:58Z</time>
      </trkpt>
      <trkpt lat="41.9807840" lon="-6.1467010">
        <ele>787.0</ele>
        <time>2019-08-16T07:10:59Z</time>
      </trkpt>
      <trkpt lat="41.9807320" lon="-6.1467150">
        <ele>787.1</ele>
        <time>2019-08-16T07:11:00Z</time>
      </trkpt>
      <trkpt lat="41.9806880" lon="-6.1467460">
        <ele>787.1</ele>
        <time>2019-08-16T07:11:01Z</time>
      </trkpt>
      <trkpt lat="41.9806590" lon="-6.1467910">
        <ele>787.1</ele>
        <time>2019-08-16T07:11:02Z</time>
      </trkpt>
      <trkpt lat="41.9806420" lon="-6.1468440">
        <ele>787.1</ele>
        <time>2019-08-16T07:11:03Z</time>
      </trkpt>
      <trkpt lat="41.9806310" lon="-6.1468990">
        <ele>787.2</ele>
        <time>2019-08-16T07:11:04Z</time>
      </trkpt>
      <trkpt lat="41.9806210" lon="-6.1469540">
        <ele>787.2</ele>
        <time>2019-08-16T07:11:05Z</time>
      </trkpt>
      <trkpt lat="41.9806080" lon="-6.1470050">
        <ele>787.2</ele>
        <time>2019-08-16T07:11:06Z</time>
      </trkpt>
      <trkpt lat="41.9805930" lon="-6.1470540">
        <ele>787.2</ele>
        <time>2019-08-16T07:11:07Z</time>
      </trkpt>
      <trkpt lat="41.9805740" lon="-6.1471000">
        <ele>787.3</ele>
        <time>2019-08-16T07:11:08Z</time>
      </trkpt>
      <trkpt lat="41.9805460" lon="-6.1471390">
        <ele>787.3</ele>
        <time>2019-08-16T07:11:09Z</time>
      </trkpt>
      <trkpt lat="41.9805140" lon="-6.1471710">
        <ele>787.3</ele>
        <time>2019-08-16T07:11:10Z</time>
      </trkpt>
      <trkpt lat="41.9804770" lon="-6.1471920">
        <ele>787.3</ele>
        <time>2019-08-16T07:11:11Z</time>
      </trkpt>
      <trkpt lat="41.9804370" lon="-6.1471970">
        <ele>787.3</ele>
        <time>2019-08-16T07:11:12Z</time>
      </trkpt>
      <trkpt lat="41.9803970" lon="-6.1471840">
        <ele>787.3</ele>
        <time>2019-08-16T07:11:13Z</time>
      </trkpt>
      <trkpt lat="41.9803580" lon="-6.1471600">
        <ele>787.4</ele>
        <time>2019-08-16T07:11:14Z</time>
      </trkpt>
      <trkpt lat="41.9803220" lon="-6.1471330">
        <ele>787.4</ele>
        <time>2019-08-16T07:11:15Z</time>
      </trkpt>
      <trkpt lat="41.9802860" lon="-6.1471070">
        <ele>787.5</ele>
        <time>2019-08-16T07:11:16Z</time>
      </trkpt>
      <trkpt lat="41.9802490" lon="-6.1470820">
        <ele>787.6</ele>
        <time>2019-08-16T07:11:17Z</time>
      </trkpt>
      <trkpt lat="41.9802120" lon="-6.1470560">
        <ele>787.8</ele>
        <time>2019-08-16T07:11:18Z</time>
      </trkpt>
      <trkpt lat="41.9801770" lon="-6.1470360">
        <ele>787.9</ele>
        <time>2019-08-16T07:11:19Z</time>
      </trkpt>
      <trkpt lat="41.9801420" lon="-6.1470170">
        <ele>788.1</ele>
        <time>2019-08-16T07:11:20Z</time>
      </trkpt>
      <trkpt lat="41.9801070" lon="-6.1470030">
        <ele>788.2</ele>
        <time>2019-08-16T07:11:21Z</time>
      </trkpt>
      <trkpt lat="41.9800740" lon="-6.1469950">
        <ele>788.4</ele>
        <time>2019-08-16T07:11:22Z</time>
      </trkpt>
      <trkpt lat="41.9800400" lon="-6.1469870">
        <ele>788.5</ele>
        <time>2019-08-16T07:11:23Z</time>
      </trkpt>
      <trkpt lat="41.9800080" lon="-6.1469820">
        <ele>788.6</ele>
        <time>2019-08-16T07:11:24Z</time>
      </trkpt>
      <trkpt lat="41.9799780" lon="-6.1469810">
        <ele>788.7</ele>
        <time>2019-08-16T07:11:25Z</time>
      </trkpt>
      <trkpt lat="41.9799490" lon="-6.1469810">
        <ele>788.9</ele>
        <time>2019-08-16T07:11:26Z</time>
      </trkpt>
      <trkpt lat="41.9799180" lon="-6.1469840">
        <ele>789.0</ele>
        <time>2019-08-16T07:11:27Z</time>
      </trkpt>
      <trkpt lat="41.9798860" lon="-6.1469870">
        <ele>789.1</ele>
        <time>2019-08-16T07:11:28Z</time>
      </trkpt>
      <trkpt lat="41.9798530" lon="-6.1469940">
        <ele>789.3</ele>
        <time>2019-08-16T07:11:29Z</time>
      </trkpt>
      <trkpt lat="41.9798200" lon="-6.1470050">
        <ele>789.4</ele>
        <time>2019-08-16T07:11:30Z</time>
      </trkpt>
      <trkpt lat="41.9797870" lon="-6.1470160">
        <ele>789.5</ele>
        <time>2019-08-16T07:11:31Z</time>
      </trkpt>
      <trkpt lat="41.9797540" lon="-6.1470270">
        <ele>789.6</ele>
        <time>2019-08-16T07:11:32Z</time>
      </trkpt>
      <trkpt lat="41.9797210" lon="-6.1470380">
        <ele>789.7</ele>
        <time>2019-08-16T07:11:33Z</time>
      </trkpt>
      <trkpt lat="41.9796880" lon="-6.1470480">
        <ele>789.8</ele>
        <time>2019-08-16T07:11:34Z</time>
      </trkpt>
      <trkpt lat="41.9796570" lon="-6.1470560">
        <ele>789.9</ele>
        <time>2019-08-16T07:11:35Z</time>
      </trkpt>
      <trkpt lat="41.9796260" lon="-6.1470630">
        <ele>790.0</ele>
        <time>2019-08-16T07:11:36Z</time>
      </trkpt>
      <trkpt lat="41.9795960" lon="-6.1470690">
        <ele>790.1</ele>
        <time>2019-08-16T07:11:37Z</time>
      </trkpt>
      <trkpt lat="41.9795670" lon="-6.1470740">
        <ele>790.2</ele>
        <time>2019-08-16T07:11:38Z</time>
      </trkpt>
      <trkpt lat="41.9795390" lon="-6.1470780">
        <ele>790.3</ele>
        <time>2019-08-16T07:11:39Z</time>
      </trkpt>
      <trkpt lat="41.9795110" lon="-6.1470810">
        <ele>790.4</ele>
        <time>2019-08-16T07:11:40Z</time>
      </trkpt>
      <trkpt lat="41.9794830" lon="-6.1470810">
        <ele>790.5</ele>
        <time>2019-08-16T07:11:41Z</time>
      </trkpt>
      <trkpt lat="41.9794560" lon="-6.1470780">
        <ele>790.6</ele>
        <time>2019-08-16T07:11:42Z</time>
      </trkpt>
      <trkpt lat="41.9794270" lon="-6.1470740">
        <ele>790.6</ele>
        <time>2019-08-16T07:11:43Z</time>
      </trkpt>
      <trkpt lat="41.9793980" lon="-6.1470690">
        <ele>790.7</ele>
        <time>2019-08-16T07:11:44Z</time>
      </trkpt>
      <trkpt lat="41.9793670" lon="-6.1470630">
        <ele>790.7</ele>
        <time>2019-08-16T07:11:45Z</time>
      </trkpt>
      <trkpt lat="41.9793370" lon="-6.1470560">
        <ele>790.7</ele>
        <time>2019-08-16T07:11:46Z</time>
      </trkpt>
      <trkpt lat="41.9793060" lon="-6.1470490">
        <ele>790.8</ele>
        <time>2019-08-16T07:11:47Z</time>
      </trkpt>
      <trkpt lat="41.9792760" lon="-6.1470410">
        <ele>790.8</ele>
        <time>2019-08-16T07:11:48Z</time>
      </trkpt>
      <trkpt lat="41.9792450" lon="-6.1470310">
        <ele>790.8</ele>
        <time>2019-08-16T07:11:49Z</time>
      </trkpt>
      <trkpt lat="41.9792130" lon="-6.1470210">
        <ele>790.8</ele>
        <time>2019-08-16T07:11:50Z</time>
      </trkpt>
      <trkpt lat="41.9791790" lon="-6.1470130">
        <ele>790.7</ele>
        <time>2019-08-16T07:11:51Z</time>
      </trkpt>
      <trkpt lat="41.9791420" lon="-6.1470060">
        <ele>790.7</ele>
        <time>2019-08-16T07:11:52Z</time>
      </trkpt>
      <trkpt lat="41.9791020" lon="-6.1469990">
        <ele>790.7</ele>
        <time>2019-08-16T07:11:53Z</time>
      </trkpt>
      <trkpt lat="41.9790590" lon="-6.1469900">
        <ele>790.6</ele>
        <time>2019-08-16T07:11:54Z</time>
      </trkpt>
      <trkpt lat="41.9790140" lon="-6.1469820">
        <ele>790.5</ele>
        <time>2019-08-16T07:11:55Z</time>
      </trkpt>
      <trkpt lat="41.9789650" lon="-6.1469780">
        <ele>790.4</ele>
        <time>2019-08-16T07:11:56Z</time>
      </trkpt>
      <trkpt lat="41.9789150" lon="-6.1469740">
        <ele>790.3</ele>
        <time>2019-08-16T07:11:57Z</time>
      </trkpt>
      <trkpt lat="41.9788620" lon="-6.1469670">
        <ele>790.1</ele>
        <time>2019-08-16T07:11:58Z</time>
      </trkpt>
      <trkpt lat="41.9788080" lon="-6.1469560">
        <ele>790.0</ele>
        <time>2019-08-16T07:11:59Z</time>
      </trkpt>
      <trkpt lat="41.9787530" lon="-6.1469430">
        <ele>789.7</ele>
        <time>2019-08-16T07:12:00Z</time>
      </trkpt>
      <trkpt lat="41.9786950" lon="-6.1469330">
        <ele>789.4</ele>
        <time>2019-08-16T07:12:01Z</time>
      </trkpt>
      <trkpt lat="41.9786380" lon="-6.1469270">
        <ele>789.2</ele>
        <time>2019-08-16T07:12:02Z</time>
      </trkpt>
      <trkpt lat="41.9785800" lon="-6.1469290">
        <ele>788.9</ele>
        <time>2019-08-16T07:12:03Z</time>
      </trkpt>
      <trkpt lat="41.9785220" lon="-6.1469360">
        <ele>788.6</ele>
        <time>2019-08-16T07:12:04Z</time>
      </trkpt>
      <trkpt lat="41.9784640" lon="-6.1469450">
        <ele>788.3</ele>
        <time>2019-08-16T07:12:05Z</time>
      </trkpt>
      <trkpt lat="41.9784040" lon="-6.1469530">
        <ele>787.9</ele>
        <time>2019-08-16T07:12:06Z</time>
      </trkpt>
      <trkpt lat="41.9783430" lon="-6.1469630">
        <ele>787.5</ele>
        <time>2019-08-16T07:12:07Z</time>
      </trkpt>
      <trkpt lat="41.9782830" lon="-6.1469740">
        <ele>787.1</ele>
        <time>2019-08-16T07:12:08Z</time>
      </trkpt>
      <trkpt lat="41.9782220" lon="-6.1469870">
        <ele>786.8</ele>
        <time>2019-08-16T07:12:09Z</time>
      </trkpt>
      <trkpt lat="41.9781640" lon="-6.1470010">
        <ele>786.6</ele>
        <time>2019-08-16T07:12:10Z</time>
      </trkpt>
      <trkpt lat="41.9781110" lon="-6.1470160">
        <ele>786.4</ele>
        <time>2019-08-16T07:12:11Z</time>
      </trkpt>
      <trkpt lat="41.9780620" lon="-6.1470270">
        <ele>786.2</ele>
        <time>2019-08-16T07:12:12Z</time>
      </trkpt>
      <trkpt lat="41.9780160" lon="-6.1470400">
        <ele>786.0</ele>
        <time>2019-08-16T07:12:13Z</time>
      </trkpt>
      <trkpt lat="41.9779740" lon="-6.1470600">
        <ele>785.8</ele>
        <time>2019-08-16T07:12:14Z</time>
      </trkpt>
      <trkpt lat="41.9779380" lon="-6.1470960">
        <ele>785.6</ele>
        <time>2019-08-16T07:12:15Z</time>
      </trkpt>
      <trkpt lat="41.9779160" lon="-6.1471510">
        <ele>785.4</ele>
        <time>2019-08-16T07:12:16Z</time>
      </trkpt>
      <trkpt lat="41.9779070" lon="-6.1472150">
        <ele>785.1</ele>
        <time>2019-08-16T07:12:17Z</time>
      </trkpt>
      <trkpt lat="41.9779050" lon="-6.1472780">
        <ele>784.9</ele>
        <time>2019-08-16T07:12:18Z</time>
      </trkpt>
      <trkpt lat="41.9779020" lon="-6.1473390">
        <ele>784.6</ele>
        <time>2019-08-16T07:12:19Z</time>
      </trkpt>
      <trkpt lat="41.9779000" lon="-6.1474030">
        <ele>784.3</ele>
        <time>2019-08-16T07:12:20Z</time>
      </trkpt>
      <trkpt lat="41.9779020" lon="-6.1474680">
        <ele>784.1</ele>
        <time>2019-08-16T07:12:21Z</time>
      </trkpt>
      <trkpt lat="41.9779030" lon="-6.1475360">
        <ele>783.9</ele>
        <time>2019-08-16T07:12:22Z</time>
      </trkpt>
      <trkpt lat="41.9779040" lon="-6.1476060">
        <ele>783.7</ele>
        <time>2019-08-16T07:12:23Z</time>
      </trkpt>
      <trkpt lat="41.9779030" lon="-6.1476760">
        <ele>783.4</ele>
        <time>2019-08-16T07:12:24Z</time>
      </trkpt>
      <trkpt lat="41.9779020" lon="-6.1477460">
        <ele>783.1</ele>
        <time>2019-08-16T07:12:25Z</time>
      </trkpt>
      <trkpt lat="41.9778990" lon="-6.1478130">
        <ele>782.9</ele>
        <time>2019-08-16T07:12:26Z</time>
      </trkpt>
      <trkpt lat="41.9778950" lon="-6.1478760">
        <ele>782.7</ele>
        <time>2019-08-16T07:12:27Z</time>
      </trkpt>
      <trkpt lat="41.9778900" lon="-6.1479350">
        <ele>782.5</ele>
        <time>2019-08-16T07:12:28Z</time>
      </trkpt>
      <trkpt lat="41.9778830" lon="-6.1479890">
        <ele>782.5</ele>
        <time>2019-08-16T07:12:29Z</time>
      </trkpt>
      <trkpt lat="41.9778760" lon="-6.1480400">
        <ele>782.4</ele>
        <time>2019-08-16T07:12:30Z</time>
      </trkpt>
      <trkpt lat="41.9778680" lon="-6.1480890">
        <ele>782.4</ele>
        <time>2019-08-16T07:12:31Z</time>
      </trkpt>
      <trkpt lat="41.9778590" lon="-6.1481350">
        <ele>782.4</ele>
        <time>2019-08-16T07:12:32Z</time>
      </trkpt>
      <trkpt lat="41.9778500" lon="-6.1481780">
        <ele>782.4</ele>
        <time>2019-08-16T07:12:33Z</time>
      </trkpt>
      <trkpt lat="41.9778440" lon="-6.1482150">
        <ele>782.5</ele>
        <time>2019-08-16T07:12:34Z</time>
      </trkpt>
      <trkpt lat="41.9778370" lon="-6.1482830">
        <ele>782.5</ele>
        <time>2019-08-16T07:12:36Z</time>
      </trkpt>
      <trkpt lat="41.9778280" lon="-6.1483520">
        <ele>782.7</ele>
        <time>2019-08-16T07:12:38Z</time>
      </trkpt>
      <trkpt lat="41.9778200" lon="-6.1484210">
        <ele>783.0</ele>
        <time>2019-08-16T07:12:40Z</time>
      </trkpt>
      <trkpt lat="41.9778100" lon="-6.1484890">
        <ele>783.4</ele>
        <time>2019-08-16T07:12:42Z</time>
      </trkpt>
      <trkpt lat="41.9777980" lon="-6.1485560">
        <ele>783.9</ele>
        <time>2019-08-16T07:12:44Z</time>
      </trkpt>
      <trkpt lat="41.9777760" lon="-6.1486230">
        <ele>784.4</ele>
        <time>2019-08-16T07:12:46Z</time>
      </trkpt>
      <trkpt lat="41.9777630" lon="-6.1486570">
        <ele>784.8</ele>
        <time>2019-08-16T07:12:47Z</time>
      </trkpt>
      <trkpt lat="41.9777490" lon="-6.1486890">
        <ele>785.1</ele>
        <time>2019-08-16T07:12:48Z</time>
      </trkpt>
      <trkpt lat="41.9777330" lon="-6.1487210">
        <ele>785.4</ele>
        <time>2019-08-16T07:12:49Z</time>
      </trkpt>
      <trkpt lat="41.9777170" lon="-6.1487520">
        <ele>785.7</ele>
        <time>2019-08-16T07:12:50Z</time>
      </trkpt>
      <trkpt lat="41.9777000" lon="-6.1487840">
        <ele>786.0</ele>
        <time>2019-08-16T07:12:51Z</time>
      </trkpt>
      <trkpt lat="41.9776820" lon="-6.1488170">
        <ele>786.2</ele>
        <time>2019-08-16T07:12:52Z</time>
      </trkpt>
      <trkpt lat="41.9776650" lon="-6.1488520">
        <ele>786.5</ele>
        <time>2019-08-16T07:12:53Z</time>
      </trkpt>
      <trkpt lat="41.9776480" lon="-6.1488880">
        <ele>786.6</ele>
        <time>2019-08-16T07:12:54Z</time>
      </trkpt>
      <trkpt lat="41.9776330" lon="-6.1489250">
        <ele>786.8</ele>
        <time>2019-08-16T07:12:55Z</time>
      </trkpt>
      <trkpt lat="41.9776190" lon="-6.1489650">
        <ele>787.0</ele>
        <time>2019-08-16T07:12:56Z</time>
      </trkpt>
      <trkpt lat="41.9776070" lon="-6.1490070">
        <ele>787.1</ele>
        <time>2019-08-16T07:12:57Z</time>
      </trkpt>
      <trkpt lat="41.9775970" lon="-6.1490520">
        <ele>787.3</ele>
        <time>2019-08-16T07:12:58Z</time>
      </trkpt>
      <trkpt lat="41.9775890" lon="-6.1490980">
        <ele>787.4</ele>
        <time>2019-08-16T07:12:59Z</time>
      </trkpt>
      <trkpt lat="41.9775820" lon="-6.1491450">
        <ele>787.5</ele>
        <time>2019-08-16T07:13:00Z</time>
      </trkpt>
      <trkpt lat="41.9775770" lon="-6.1491950">
        <ele>787.5</ele>
        <time>2019-08-16T07:13:01Z</time>
      </trkpt>
      <trkpt lat="41.9775750" lon="-6.1492470">
        <ele>787.6</ele>
        <time>2019-08-16T07:13:02Z</time>
      </trkpt>
      <trkpt lat="41.9775750" lon="-6.1492990">
        <ele>787.7</ele>
        <time>2019-08-16T07:13:03Z</time>
      </trkpt>
      <trkpt lat="41.9775770" lon="-6.1493520">
        <ele>787.7</ele>
        <time>2019-08-16T07:13:04Z</time>
      </trkpt>
      <trkpt lat="41.9775830" lon="-6.1494030">
        <ele>787.8</ele>
        <time>2019-08-16T07:13:05Z</time>
      </trkpt>
      <trkpt lat="41.9775880" lon="-6.1494530">
        <ele>787.8</ele>
        <time>2019-08-16T07:13:06Z</time>
      </trkpt>
      <trkpt lat="41.9775910" lon="-6.1495000">
        <ele>787.8</ele>
        <time>2019-08-16T07:13:07Z</time>
      </trkpt>
      <trkpt lat="41.9775930" lon="-6.1495480">
        <ele>787.9</ele>
        <time>2019-08-16T07:13:08Z</time>
      </trkpt>
      <trkpt lat="41.9775950" lon="-6.1495970">
        <ele>787.9</ele>
        <time>2019-08-16T07:13:09Z</time>
      </trkpt>
      <trkpt lat="41.9775950" lon="-6.1496490">
        <ele>787.9</ele>
        <time>2019-08-16T07:13:10Z</time>
      </trkpt>
      <trkpt lat="41.9775960" lon="-6.1497010">
        <ele>788.0</ele>
        <time>2019-08-16T07:13:11Z</time>
      </trkpt>
      <trkpt lat="41.9775970" lon="-6.1497540">
        <ele>788.0</ele>
        <time>2019-08-16T07:13:12Z</time>
      </trkpt>
      <trkpt lat="41.9775970" lon="-6.1498060">
        <ele>788.0</ele>
        <time>2019-08-16T07:13:13Z</time>
      </trkpt>
      <trkpt lat="41.9775950" lon="-6.1498580">
        <ele>788.0</ele>
        <time>2019-08-16T07:13:14Z</time>
      </trkpt>
      <trkpt lat="41.9775940" lon="-6.1499090">
        <ele>788.1</ele>
        <time>2019-08-16T07:13:15Z</time>
      </trkpt>
      <trkpt lat="41.9775940" lon="-6.1499600">
        <ele>788.1</ele>
        <time>2019-08-16T07:13:16Z</time>
      </trkpt>
      <trkpt lat="41.9775930" lon="-6.1500100">
        <ele>788.1</ele>
        <time>2019-08-16T07:13:17Z</time>
      </trkpt>
      <trkpt lat="41.9775920" lon="-6.1500600">
        <ele>788.2</ele>
        <time>2019-08-16T07:13:18Z</time>
      </trkpt>
      <trkpt lat="41.9775910" lon="-6.1501080">
        <ele>788.2</ele>
        <time>2019-08-16T07:13:19Z</time>
      </trkpt>
      <trkpt lat="41.9775900" lon="-6.1501530">
        <ele>788.2</ele>
        <time>2019-08-16T07:13:20Z</time>
      </trkpt>
      <trkpt lat="41.9775910" lon="-6.1501970">
        <ele>788.3</ele>
        <time>2019-08-16T07:13:21Z</time>
      </trkpt>
      <trkpt lat="41.9775950" lon="-6.1502430">
        <ele>788.3</ele>
        <time>2019-08-16T07:13:22Z</time>
      </trkpt>
      <trkpt lat="41.9776010" lon="-6.1502930">
        <ele>788.3</ele>
        <time>2019-08-16T07:13:23Z</time>
      </trkpt>
      <trkpt lat="41.9776070" lon="-6.1503480">
        <ele>788.3</ele>
        <time>2019-08-16T07:13:24Z</time>
      </trkpt>
      <trkpt lat="41.9776140" lon="-6.1504090">
        <ele>788.3</ele>
        <time>2019-08-16T07:13:25Z</time>
      </trkpt>
      <trkpt lat="41.9776210" lon="-6.1504730">
        <ele>788.3</ele>
        <time>2019-08-16T07:13:26Z</time>
      </trkpt>
      <trkpt lat="41.9776260" lon="-6.1505380">
        <ele>788.3</ele>
        <time>2019-08-16T07:13:27Z</time>
      </trkpt>
      <trkpt lat="41.9776300" lon="-6.1506020">
        <ele>788.3</ele>
        <time>2019-08-16T07:13:28Z</time>
      </trkpt>
      <trkpt lat="41.9776330" lon="-6.1506660">
        <ele>788.3</ele>
        <time>2019-08-16T07:13:29Z</time>
      </trkpt>
      <trkpt lat="41.9776350" lon="-6.1507300">
        <ele>788.3</ele>
        <time>2019-08-16T07:13:30Z</time>
      </trkpt>
      <trkpt lat="41.9776370" lon="-6.1507930">
        <ele>788.2</ele>
        <time>2019-08-16T07:13:31Z</time>
      </trkpt>
      <trkpt lat="41.9776370" lon="-6.1508570">
        <ele>788.2</ele>
        <time>2019-08-16T07:13:32Z</time>
      </trkpt>
      <trkpt lat="41.9776370" lon="-6.1509210">
        <ele>788.1</ele>
        <time>2019-08-16T07:13:33Z</time>
      </trkpt>
      <trkpt lat="41.9776390" lon="-6.1509870">
        <ele>788.1</ele>
        <time>2019-08-16T07:13:34Z</time>
      </trkpt>
      <trkpt lat="41.9776410" lon="-6.1510530">
        <ele>788.0</ele>
        <time>2019-08-16T07:13:35Z</time>
      </trkpt>
      <trkpt lat="41.9776440" lon="-6.1511190">
        <ele>788.0</ele>
        <time>2019-08-16T07:13:36Z</time>
      </trkpt>
      <trkpt lat="41.9776500" lon="-6.1511830">
        <ele>787.9</ele>
        <time>2019-08-16T07:13:37Z</time>
      </trkpt>
      <trkpt lat="41.9776590" lon="-6.1512420">
        <ele>787.7</ele>
        <time>2019-08-16T07:13:38Z</time>
      </trkpt>
      <trkpt lat="41.9776660" lon="-6.1512980">
        <ele>787.5</ele>
        <time>2019-08-16T07:13:39Z</time>
      </trkpt>
      <trkpt lat="41.9776740" lon="-6.1513500">
        <ele>787.4</ele>
        <time>2019-08-16T07:13:40Z</time>
      </trkpt>
      <trkpt lat="41.9776830" lon="-6.1514020">
        <ele>787.2</ele>
        <time>2019-08-16T07:13:41Z</time>
      </trkpt>
      <trkpt lat="41.9776910" lon="-6.1514600">
        <ele>787.0</ele>
        <time>2019-08-16T07:13:42Z</time>
      </trkpt>
      <trkpt lat="41.9777000" lon="-6.1515290">
        <ele>786.8</ele>
        <time>2019-08-16T07:13:43Z</time>
      </trkpt>
      <trkpt lat="41.9777110" lon="-6.1516060">
        <ele>786.5</ele>
        <time>2019-08-16T07:13:44Z</time>
      </trkpt>
      <trkpt lat="41.9777250" lon="-6.1516890">
        <ele>786.1</ele>
        <time>2019-08-16T07:13:45Z</time>
      </trkpt>
      <trkpt lat="41.9777390" lon="-6.1517770">
        <ele>785.8</ele>
        <time>2019-08-16T07:13:46Z</time>
      </trkpt>
      <trkpt lat="41.9777550" lon="-6.1518680">
        <ele>785.4</ele>
        <time>2019-08-16T07:13:47Z</time>
      </trkpt>
      <trkpt lat="41.9777720" lon="-6.1519610">
        <ele>784.9</ele>
        <time>2019-08-16T07:13:48Z</time>
      </trkpt>
      <trkpt lat="41.9777920" lon="-6.1520530">
        <ele>784.5</ele>
        <time>2019-08-16T07:13:49Z</time>
      </trkpt>
      <trkpt lat="41.9778130" lon="-6.1521420">
        <ele>784.2</ele>
        <time>2019-08-16T07:13:50Z</time>
      </trkpt>
      <trkpt lat="41.9778320" lon="-6.1522250">
        <ele>783.9</ele>
        <time>2019-08-16T07:13:51Z</time>
      </trkpt>
      <trkpt lat="41.9778510" lon="-6.1523040">
        <ele>783.7</ele>
        <time>2019-08-16T07:13:52Z</time>
      </trkpt>
      <trkpt lat="41.9778700" lon="-6.1523770">
        <ele>783.4</ele>
        <time>2019-08-16T07:13:53Z</time>
      </trkpt>
      <trkpt lat="41.9778880" lon="-6.1524440">
        <ele>783.2</ele>
        <time>2019-08-16T07:13:54Z</time>
      </trkpt>
      <trkpt lat="41.9779060" lon="-6.1525050">
        <ele>783.1</ele>
        <time>2019-08-16T07:13:55Z</time>
      </trkpt>
      <trkpt lat="41.9779230" lon="-6.1525620">
        <ele>783.0</ele>
        <time>2019-08-16T07:13:56Z</time>
      </trkpt>
      <trkpt lat="41.9779390" lon="-6.1526140">
        <ele>783.0</ele>
        <time>2019-08-16T07:13:57Z</time>
      </trkpt>
      <trkpt lat="41.9779550" lon="-6.1526630">
        <ele>782.9</ele>
        <time>2019-08-16T07:13:58Z</time>
      </trkpt>
      <trkpt lat="41.9779710" lon="-6.1527060">
        <ele>782.9</ele>
        <time>2019-08-16T07:13:59Z</time>
      </trkpt>
      <trkpt lat="41.9779840" lon="-6.1527460">
        <ele>782.9</ele>
        <time>2019-08-16T07:14:00Z</time>
      </trkpt>
      <trkpt lat="41.9779970" lon="-6.1527880">
        <ele>782.9</ele>
        <time>2019-08-16T07:14:01Z</time>
      </trkpt>
      <trkpt lat="41.9780100" lon="-6.1528360">
        <ele>782.8</ele>
        <time>2019-08-16T07:14:02Z</time>
      </trkpt>
      <trkpt lat="41.9780220" lon="-6.1528900">
        <ele>782.8</ele>
        <time>2019-08-16T07:14:03Z</time>
      </trkpt>
      <trkpt lat="41.9780300" lon="-6.1529480">
        <ele>782.9</ele>
        <time>2019-08-16T07:14:04Z</time>
      </trkpt>
      <trkpt lat="41.9780370" lon="-6.1530070">
        <ele>782.9</ele>
        <time>2019-08-16T07:14:05Z</time>
      </trkpt>
      <trkpt lat="41.9780440" lon="-6.1530680">
        <ele>782.9</ele>
        <time>2019-08-16T07:14:06Z</time>
      </trkpt>
      <trkpt lat="41.9780510" lon="-6.1531300">
        <ele>782.9</ele>
        <time>2019-08-16T07:14:07Z</time>
      </trkpt>
      <trkpt lat="41.9780580" lon="-6.1531930">
        <ele>782.9</ele>
        <time>2019-08-16T07:14:08Z</time>
      </trkpt>
      <trkpt lat="41.9780690" lon="-6.1532570">
        <ele>783.0</ele>
        <time>2019-08-16T07:14:09Z</time>
      </trkpt>
      <trkpt lat="41.9780860" lon="-6.1533190">
        <ele>783.0</ele>
        <time>2019-08-16T07:14:10Z</time>
      </trkpt>
      <trkpt lat="41.9781120" lon="-6.1533730">
        <ele>783.2</ele>
        <time>2019-08-16T07:14:11Z</time>
      </trkpt>
      <trkpt lat="41.9781470" lon="-6.1534140">
        <ele>783.3</ele>
        <time>2019-08-16T07:14:12Z</time>
      </trkpt>
      <trkpt lat="41.9781880" lon="-6.1534420">
        <ele>783.4</ele>
        <time>2019-08-16T07:14:13Z</time>
      </trkpt>
      <trkpt lat="41.9782290" lon="-6.1534650">
        <ele>783.5</ele>
        <time>2019-08-16T07:14:14Z</time>
      </trkpt>
      <trkpt lat="41.9782680" lon="-6.1534900">
        <ele>783.5</ele>
        <time>2019-08-16T07:14:15Z</time>
      </trkpt>
      <trkpt lat="41.9783040" lon="-6.1535200">
        <ele>783.5</ele>
        <time>2019-08-16T07:14:16Z</time>
      </trkpt>
      <trkpt lat="41.9783370" lon="-6.1535560">
        <ele>783.5</ele>
        <time>2019-08-16T07:14:17Z</time>
      </trkpt>
      <trkpt lat="41.9783660" lon="-6.1536020">
        <ele>783.5</ele>
        <time>2019-08-16T07:14:18Z</time>
      </trkpt>
      <trkpt lat="41.9783940" lon="-6.1536550">
        <ele>783.5</ele>
        <time>2019-08-16T07:14:19Z</time>
      </trkpt>
      <trkpt lat="41.9784210" lon="-6.1537110">
        <ele>783.5</ele>
        <time>2019-08-16T07:14:20Z</time>
      </trkpt>
      <trkpt lat="41.9784480" lon="-6.1537650">
        <ele>783.4</ele>
        <time>2019-08-16T07:14:21Z</time>
      </trkpt>
      <trkpt lat="41.9784740" lon="-6.1538190">
        <ele>783.4</ele>
        <time>2019-08-16T07:14:22Z</time>
      </trkpt>
      <trkpt lat="41.9785030" lon="-6.1538710">
        <ele>783.4</ele>
        <time>2019-08-16T07:14:23Z</time>
      </trkpt>
      <trkpt lat="41.9785330" lon="-6.1539210">
        <ele>783.4</ele>
        <time>2019-08-16T07:14:24Z</time>
      </trkpt>
      <trkpt lat="41.9785640" lon="-6.1539690">
        <ele>783.4</ele>
        <time>2019-08-16T07:14:25Z</time>
      </trkpt>
      <trkpt lat="41.9785950" lon="-6.1540160">
        <ele>783.4</ele>
        <time>2019-08-16T07:14:26Z</time>
      </trkpt>
      <trkpt lat="41.9786290" lon="-6.1540550">
        <ele>783.4</ele>
        <time>2019-08-16T07:14:27Z</time>
      </trkpt>
      <trkpt lat="41.9786620" lon="-6.1540910">
        <ele>783.4</ele>
        <time>2019-08-16T07:14:28Z</time>
      </trkpt>
      <trkpt lat="41.9786970" lon="-6.1541230">
        <ele>783.4</ele>
        <time>2019-08-16T07:14:29Z</time>
      </trkpt>
      <trkpt lat="41.9787350" lon="-6.1541570">
        <ele>783.5</ele>
        <time>2019-08-16T07:14:30Z</time>
      </trkpt>
      <trkpt lat="41.9787760" lon="-6.1541920">
        <ele>783.5</ele>
        <time>2019-08-16T07:14:31Z</time>
      </trkpt>
      <trkpt lat="41.9788190" lon="-6.1542300">
        <ele>783.6</ele>
        <time>2019-08-16T07:14:32Z</time>
      </trkpt>
      <trkpt lat="41.9788600" lon="-6.1542700">
        <ele>783.6</ele>
        <time>2019-08-16T07:14:33Z</time>
      </trkpt>
      <trkpt lat="41.9789000" lon="-6.1543120">
        <ele>783.7</ele>
        <time>2019-08-16T07:14:34Z</time>
      </trkpt>
      <trkpt lat="41.9789400" lon="-6.1543540">
        <ele>783.7</ele>
        <time>2019-08-16T07:14:35Z</time>
      </trkpt>
      <trkpt lat="41.9789800" lon="-6.1543940">
        <ele>783.8</ele>
        <time>2019-08-16T07:14:36Z</time>
      </trkpt>
      <trkpt lat="41.9790220" lon="-6.1544280">
        <ele>783.9</ele>
        <time>2019-08-16T07:14:37Z</time>
      </trkpt>
      <trkpt lat="41.9790650" lon="-6.1544530">
        <ele>784.0</ele>
        <time>2019-08-16T07:14:38Z</time>
      </trkpt>
      <trkpt lat="41.9791070" lon="-6.1544670">
        <ele>784.0</ele>
        <time>2019-08-16T07:14:39Z</time>
      </trkpt>
      <trkpt lat="41.9791470" lon="-6.1544750">
        <ele>784.1</ele>
        <time>2019-08-16T07:14:40Z</time>
      </trkpt>
      <trkpt lat="41.9791860" lon="-6.1544810">
        <ele>784.1</ele>
        <time>2019-08-16T07:14:41Z</time>
      </trkpt>
      <trkpt lat="41.9792250" lon="-6.1544880">
        <ele>784.1</ele>
        <time>2019-08-16T07:14:42Z</time>
      </trkpt>
      <trkpt lat="41.9792680" lon="-6.1544940">
        <ele>784.1</ele>
        <time>2019-08-16T07:14:43Z</time>
      </trkpt>
      <trkpt lat="41.9793130" lon="-6.1545050">
        <ele>784.1</ele>
        <time>2019-08-16T07:14:44Z</time>
      </trkpt>
      <trkpt lat="41.9793600" lon="-6.1545190">
        <ele>784.2</ele>
        <time>2019-08-16T07:14:45Z</time>
      </trkpt>
      <trkpt lat="41.9794090" lon="-6.1545330">
        <ele>784.2</ele>
        <time>2019-08-16T07:14:46Z</time>
      </trkpt>
      <trkpt lat="41.9794610" lon="-6.1545470">
        <ele>784.1</ele>
        <time>2019-08-16T07:14:47Z</time>
      </trkpt>
      <trkpt lat="41.9795150" lon="-6.1545640">
        <ele>784.1</ele>
        <time>2019-08-16T07:14:48Z</time>
      </trkpt>
      <trkpt lat="41.9795660" lon="-6.1545900">
        <ele>784.1</ele>
        <time>2019-08-16T07:14:49Z</time>
      </trkpt>
      <trkpt lat="41.9796150" lon="-6.1546220">
        <ele>784.1</ele>
        <time>2019-08-16T07:14:50Z</time>
      </trkpt>
      <trkpt lat="41.9796630" lon="-6.1546580">
        <ele>784.0</ele>
        <time>2019-08-16T07:14:51Z</time>
      </trkpt>
      <trkpt lat="41.9797100" lon="-6.1546940">
        <ele>784.0</ele>
        <time>2019-08-16T07:14:52Z</time>
      </trkpt>
      <trkpt lat="41.9797570" lon="-6.1547320">
        <ele>784.0</ele>
        <time>2019-08-16T07:14:53Z</time>
      </trkpt>
      <trkpt lat="41.9798020" lon="-6.1547670">
        <ele>784.0</ele>
        <time>2019-08-16T07:14:54Z</time>
      </trkpt>
      <trkpt lat="41.9798440" lon="-6.1548020">
        <ele>784.1</ele>
        <time>2019-08-16T07:14:55Z</time>
      </trkpt>
      <trkpt lat="41.9798820" lon="-6.1548340">
        <ele>784.1</ele>
        <time>2019-08-16T07:14:56Z</time>
      </trkpt>
      <trkpt lat="41.9799160" lon="-6.1548640">
        <ele>784.1</ele>
        <time>2019-08-16T07:14:57Z</time>
      </trkpt>
      <trkpt lat="41.9799490" lon="-6.1548890">
        <ele>784.1</ele>
        <time>2019-08-16T07:14:58Z</time>
      </trkpt>
      <trkpt lat="41.9799840" lon="-6.1549120">
        <ele>784.2</ele>
        <time>2019-08-16T07:14:59Z</time>
      </trkpt>
      <trkpt lat="41.9800230" lon="-6.1549360">
        <ele>784.2</ele>
        <time>2019-08-16T07:15:00Z</time>
      </trkpt>
      <trkpt lat="41.9800650" lon="-6.1549570">
        <ele>784.2</ele>
        <time>2019-08-16T07:15:01Z</time>
      </trkpt>
      <trkpt lat="41.9801090" lon="-6.1549750">
        <ele>784.2</ele>
        <time>2019-08-16T07:15:02Z</time>
      </trkpt>
      <trkpt lat="41.9801550" lon="-6.1549910">
        <ele>784.3</ele>
        <time>2019-08-16T07:15:03Z</time>
      </trkpt>
      <trkpt lat="41.9802000" lon="-6.1550050">
        <ele>784.3</ele>
        <time>2019-08-16T07:15:04Z</time>
      </trkpt>
      <trkpt lat="41.9802440" lon="-6.1550180">
        <ele>784.3</ele>
        <time>2019-08-16T07:15:05Z</time>
      </trkpt>
      <trkpt lat="41.9802890" lon="-6.1550300">
        <ele>784.3</ele>
        <time>2019-08-16T07:15:06Z</time>
      </trkpt>
      <trkpt lat="41.9803330" lon="-6.1550440">
        <ele>784.3</ele>
        <time>2019-08-16T07:15:07Z</time>
      </trkpt>
      <trkpt lat="41.9803790" lon="-6.1550590">
        <ele>784.3</ele>
        <time>2019-08-16T07:15:08Z</time>
      </trkpt>
      <trkpt lat="41.9804250" lon="-6.1550740">
        <ele>784.3</ele>
        <time>2019-08-16T07:15:09Z</time>
      </trkpt>
      <trkpt lat="41.9804720" lon="-6.1550880">
        <ele>784.3</ele>
        <time>2019-08-16T07:15:10Z</time>
      </trkpt>
      <trkpt lat="41.9805170" lon="-6.1551020">
        <ele>784.3</ele>
        <time>2019-08-16T07:15:11Z</time>
      </trkpt>
      <trkpt lat="41.9805630" lon="-6.1551170">
        <ele>784.3</ele>
        <time>2019-08-16T07:15:12Z</time>
      </trkpt>
      <trkpt lat="41.9806080" lon="-6.1551320">
        <ele>784.3</ele>
        <time>2019-08-16T07:15:13Z</time>
      </trkpt>
      <trkpt lat="41.9806540" lon="-6.1551470">
        <ele>784.3</ele>
        <time>2019-08-16T07:15:14Z</time>
      </trkpt>
      <trkpt lat="41.9806990" lon="-6.1551630">
        <ele>784.3</ele>
        <time>2019-08-16T07:15:15Z</time>
      </trkpt>
      <trkpt lat="41.9807430" lon="-6.1551800">
        <ele>784.3</ele>
        <time>2019-08-16T07:15:16Z</time>
      </trkpt>
      <trkpt lat="41.9807860" lon="-6.1551970">
        <ele>784.4</ele>
        <time>2019-08-16T07:15:17Z</time>
      </trkpt>
      <trkpt lat="41.9808280" lon="-6.1552160">
        <ele>784.4</ele>
        <time>2019-08-16T07:15:18Z</time>
      </trkpt>
      <trkpt lat="41.9808680" lon="-6.1552370">
        <ele>784.4</ele>
        <time>2019-08-16T07:15:19Z</time>
      </trkpt>
      <trkpt lat="41.9809100" lon="-6.1552590">
        <ele>784.4</ele>
        <time>2019-08-16T07:15:20Z</time>
      </trkpt>
      <trkpt lat="41.9809520" lon="-6.1552810">
        <ele>784.4</ele>
        <time>2019-08-16T07:15:21Z</time>
      </trkpt>
      <trkpt lat="41.9809950" lon="-6.1553060">
        <ele>784.4</ele>
        <time>2019-08-16T07:15:22Z</time>
      </trkpt>
      <trkpt lat="41.9810380" lon="-6.1553320">
        <ele>784.4</ele>
        <time>2019-08-16T07:15:23Z</time>
      </trkpt>
      <trkpt lat="41.9810790" lon="-6.1553630">
        <ele>784.4</ele>
        <time>2019-08-16T07:15:24Z</time>
      </trkpt>
      <trkpt lat="41.9811160" lon="-6.1554010">
        <ele>784.3</ele>
        <time>2019-08-16T07:15:25Z</time>
      </trkpt>
      <trkpt lat="41.9811490" lon="-6.1554450">
        <ele>784.3</ele>
        <time>2019-08-16T07:15:26Z</time>
      </trkpt>
      <trkpt lat="41.9811740" lon="-6.1555000">
        <ele>784.3</ele>
        <time>2019-08-16T07:15:27Z</time>
      </trkpt>
      <trkpt lat="41.9811890" lon="-6.1555650">
        <ele>784.3</ele>
        <time>2019-08-16T07:15:28Z</time>
      </trkpt>
      <trkpt lat="41.9811920" lon="-6.1556310">
        <ele>784.3</ele>
        <time>2019-08-16T07:15:29Z</time>
      </trkpt>
      <trkpt lat="41.9811860" lon="-6.1557000">
        <ele>784.3</ele>
        <time>2019-08-16T07:15:30Z</time>
      </trkpt>
      <trkpt lat="41.9811740" lon="-6.1557640">
        <ele>784.2</ele>
        <time>2019-08-16T07:15:31Z</time>
      </trkpt>
      <trkpt lat="41.9811530" lon="-6.1558190">
        <ele>784.2</ele>
        <time>2019-08-16T07:15:32Z</time>
      </trkpt>
      <trkpt lat="41.9811240" lon="-6.1558620">
        <ele>784.2</ele>
        <time>2019-08-16T07:15:33Z</time>
      </trkpt>
      <trkpt lat="41.9810880" lon="-6.1558940">
        <ele>784.2</ele>
        <time>2019-08-16T07:15:34Z</time>
      </trkpt>
      <trkpt lat="41.9810460" lon="-6.1559150">
        <ele>784.2</ele>
        <time>2019-08-16T07:15:35Z</time>
      </trkpt>
      <trkpt lat="41.9810000" lon="-6.1559250">
        <ele>784.1</ele>
        <time>2019-08-16T07:15:36Z</time>
      </trkpt>
      <trkpt lat="41.9809500" lon="-6.1559320">
        <ele>784.1</ele>
        <time>2019-08-16T07:15:37Z</time>
      </trkpt>
      <trkpt lat="41.9808980" lon="-6.1559400">
        <ele>784.1</ele>
        <time>2019-08-16T07:15:38Z</time>
      </trkpt>
      <trkpt lat="41.9808450" lon="-6.1559490">
        <ele>784.0</ele>
        <time>2019-08-16T07:15:39Z</time>
      </trkpt>
      <trkpt lat="41.9807930" lon="-6.1559600">
        <ele>783.9</ele>
        <time>2019-08-16T07:15:40Z</time>
      </trkpt>
      <trkpt lat="41.9807400" lon="-6.1559730">
        <ele>783.9</ele>
        <time>2019-08-16T07:15:41Z</time>
      </trkpt>
      <trkpt lat="41.9806900" lon="-6.1559910">
        <ele>783.8</ele>
        <time>2019-08-16T07:15:42Z</time>
      </trkpt>
      <trkpt lat="41.9806410" lon="-6.1560160">
        <ele>783.8</ele>
        <time>2019-08-16T07:15:43Z</time>
      </trkpt>
      <trkpt lat="41.9805940" lon="-6.1560470">
        <ele>783.8</ele>
        <time>2019-08-16T07:15:44Z</time>
      </trkpt>
      <trkpt lat="41.9805480" lon="-6.1560790">
        <ele>783.7</ele>
        <time>2019-08-16T07:15:45Z</time>
      </trkpt>
      <trkpt lat="41.9805020" lon="-6.1561130">
        <ele>783.7</ele>
        <time>2019-08-16T07:15:46Z</time>
      </trkpt>
      <trkpt lat="41.9804550" lon="-6.1561470">
        <ele>783.7</ele>
        <time>2019-08-16T07:15:47Z</time>
      </trkpt>
      <trkpt lat="41.9804080" lon="-6.1561810">
        <ele>783.7</ele>
        <time>2019-08-16T07:15:48Z</time>
      </trkpt>
      <trkpt lat="41.9803620" lon="-6.1562140">
        <ele>783.6</ele>
        <time>2019-08-16T07:15:49Z</time>
      </trkpt>
      <trkpt lat="41.9803170" lon="-6.1562480">
        <ele>783.6</ele>
        <time>2019-08-16T07:15:50Z</time>
      </trkpt>
      <trkpt lat="41.9802720" lon="-6.1562830">
        <ele>783.6</ele>
        <time>2019-08-16T07:15:51Z</time>
      </trkpt>
      <trkpt lat="41.9802270" lon="-6.1563150">
        <ele>783.6</ele>
        <time>2019-08-16T07:15:52Z</time>
      </trkpt>
      <trkpt lat="41.9801820" lon="-6.1563390">
        <ele>783.6</ele>
        <time>2019-08-16T07:15:53Z</time>
      </trkpt>
      <trkpt lat="41.9801350" lon="-6.1563540">
        <ele>783.6</ele>
        <time>2019-08-16T07:15:54Z</time>
      </trkpt>
      <trkpt lat="41.9800870" lon="-6.1563610">
        <ele>783.6</ele>
        <time>2019-08-16T07:15:55Z</time>
      </trkpt>
      <trkpt lat="41.9800380" lon="-6.1563570">
        <ele>783.6</ele>
        <time>2019-08-16T07:15:56Z</time>
      </trkpt>
      <trkpt lat="41.9799880" lon="-6.1563450">
        <ele>783.6</ele>
        <time>2019-08-16T07:15:57Z</time>
      </trkpt>
      <trkpt lat="41.9799360" lon="-6.1563290">
        <ele>783.5</ele>
        <time>2019-08-16T07:15:58Z</time>
      </trkpt>
      <trkpt lat="41.9798830" lon="-6.1563130">
        <ele>783.5</ele>
        <time>2019-08-16T07:15:59Z</time>
      </trkpt>
      <trkpt lat="41.9798310" lon="-6.1562970">
        <ele>783.5</ele>
        <time>2019-08-16T07:16:00Z</time>
      </trkpt>
      <trkpt lat="41.9797800" lon="-6.1562830">
        <ele>783.5</ele>
        <time>2019-08-16T07:16:01Z</time>
      </trkpt>
      <trkpt lat="41.9797300" lon="-6.1562720">
        <ele>783.5</ele>
        <time>2019-08-16T07:16:02Z</time>
      </trkpt>
      <trkpt lat="41.9796790" lon="-6.1562660">
        <ele>783.5</ele>
        <time>2019-08-16T07:16:03Z</time>
      </trkpt>
      <trkpt lat="41.9796290" lon="-6.1562690">
        <ele>783.5</ele>
        <time>2019-08-16T07:16:04Z</time>
      </trkpt>
      <trkpt lat="41.9795790" lon="-6.1562860">
        <ele>783.5</ele>
        <time>2019-08-16T07:16:05Z</time>
      </trkpt>
      <trkpt lat="41.9795320" lon="-6.1563160">
        <ele>783.5</ele>
        <time>2019-08-16T07:16:06Z</time>
      </trkpt>
      <trkpt lat="41.9794870" lon="-6.1563520">
        <ele>783.5</ele>
        <time>2019-08-16T07:16:07Z</time>
      </trkpt>
      <trkpt lat="41.9794460" lon="-6.1563920">
        <ele>783.6</ele>
        <time>2019-08-16T07:16:08Z</time>
      </trkpt>
      <trkpt lat="41.9794040" lon="-6.1564310">
        <ele>783.6</ele>
        <time>2019-08-16T07:16:09Z</time>
      </trkpt>
      <trkpt lat="41.9793630" lon="-6.1564690">
        <ele>783.6</ele>
        <time>2019-08-16T07:16:10Z</time>
      </trkpt>
      <trkpt lat="41.9793230" lon="-6.1565100">
        <ele>783.7</ele>
        <time>2019-08-16T07:16:11Z</time>
      </trkpt>
      <trkpt lat="41.9792860" lon="-6.1565530">
        <ele>783.8</ele>
        <time>2019-08-16T07:16:12Z</time>
      </trkpt>
      <trkpt lat="41.9792530" lon="-6.1565990">
        <ele>783.9</ele>
        <time>2019-08-16T07:16:13Z</time>
      </trkpt>
      <trkpt lat="41.9792240" lon="-6.1566480">
        <ele>784.0</ele>
        <time>2019-08-16T07:16:14Z</time>
      </trkpt>
      <trkpt lat="41.9792020" lon="-6.1567030">
        <ele>784.1</ele>
        <time>2019-08-16T07:16:15Z</time>
      </trkpt>
      <trkpt lat="41.9791810" lon="-6.1567600">
        <ele>784.2</ele>
        <time>2019-08-16T07:16:16Z</time>
      </trkpt>
      <trkpt lat="41.9791610" lon="-6.1568150">
        <ele>784.3</ele>
        <time>2019-08-16T07:16:17Z</time>
      </trkpt>
      <trkpt lat="41.9791420" lon="-6.1568700">
        <ele>784.4</ele>
        <time>2019-08-16T07:16:18Z</time>
      </trkpt>
      <trkpt lat="41.9791260" lon="-6.1569240">
        <ele>784.5</ele>
        <time>2019-08-16T07:16:19Z</time>
      </trkpt>
      <trkpt lat="41.9791110" lon="-6.1569790">
        <ele>784.7</ele>
        <time>2019-08-16T07:16:20Z</time>
      </trkpt>
      <trkpt lat="41.9790990" lon="-6.1570340">
        <ele>784.8</ele>
        <time>2019-08-16T07:16:21Z</time>
      </trkpt>
      <trkpt lat="41.9790890" lon="-6.1570880">
        <ele>785.0</ele>
        <time>2019-08-16T07:16:22Z</time>
      </trkpt>
      <trkpt lat="41.9790820" lon="-6.1571410">
        <ele>785.1</ele>
        <time>2019-08-16T07:16:23Z</time>
      </trkpt>
      <trkpt lat="41.9790740" lon="-6.1571940">
        <ele>785.3</ele>
        <time>2019-08-16T07:16:24Z</time>
      </trkpt>
      <trkpt lat="41.9790680" lon="-6.1572450">
        <ele>785.5</ele>
        <time>2019-08-16T07:16:25Z</time>
      </trkpt>
      <trkpt lat="41.9790610" lon="-6.1572950">
        <ele>785.7</ele>
        <time>2019-08-16T07:16:26Z</time>
      </trkpt>
      <trkpt lat="41.9790540" lon="-6.1573440">
        <ele>785.8</ele>
        <time>2019-08-16T07:16:27Z</time>
      </trkpt>
      <trkpt lat="41.9790480" lon="-6.1573920">
        <ele>786.0</ele>
        <time>2019-08-16T07:16:28Z</time>
      </trkpt>
      <trkpt lat="41.9790420" lon="-6.1574380">
        <ele>786.1</ele>
        <time>2019-08-16T07:16:29Z</time>
      </trkpt>
      <trkpt lat="41.9790350" lon="-6.1574840">
        <ele>786.3</ele>
        <time>2019-08-16T07:16:30Z</time>
      </trkpt>
      <trkpt lat="41.9790270" lon="-6.1575310">
        <ele>786.3</ele>
        <time>2019-08-16T07:16:31Z</time>
      </trkpt>
      <trkpt lat="41.9790180" lon="-6.1575800">
        <ele>786.4</ele>
        <time>2019-08-16T07:16:32Z</time>
      </trkpt>
      <trkpt lat="41.9790080" lon="-6.1576290">
        <ele>786.5</ele>
        <time>2019-08-16T07:16:33Z</time>
      </trkpt>
      <trkpt lat="41.9789960" lon="-6.1576770">
        <ele>786.5</ele>
        <time>2019-08-16T07:16:34Z</time>
      </trkpt>
      <trkpt lat="41.9789810" lon="-6.1577240">
        <ele>786.6</ele>
        <time>2019-08-16T07:16:35Z</time>
      </trkpt>
      <trkpt lat="41.9789640" lon="-6.1577700">
        <ele>786.7</ele>
        <time>2019-08-16T07:16:36Z</time>
      </trkpt>
      <trkpt lat="41.9789460" lon="-6.1578190">
        <ele>786.7</ele>
        <time>2019-08-16T07:16:37Z</time>
      </trkpt>
      <trkpt lat="41.9789280" lon="-6.1578660">
        <ele>786.8</ele>
        <time>2019-08-16T07:16:38Z</time>
      </trkpt>
      <trkpt lat="41.9789080" lon="-6.1579140">
        <ele>786.8</ele>
        <time>2019-08-16T07:16:39Z</time>
      </trkpt>
      <trkpt lat="41.9788900" lon="-6.1579630">
        <ele>786.9</ele>
        <time>2019-08-16T07:16:40Z</time>
      </trkpt>
      <trkpt lat="41.9788740" lon="-6.1580130">
        <ele>786.9</ele>
        <time>2019-08-16T07:16:41Z</time>
      </trkpt>
      <trkpt lat="41.9788620" lon="-6.1580670">
        <ele>786.9</ele>
        <time>2019-08-16T07:16:42Z</time>
      </trkpt>
      <trkpt lat="41.9788540" lon="-6.1581230">
        <ele>787.0</ele>
        <time>2019-08-16T07:16:43Z</time>
      </trkpt>
      <trkpt lat="41.9788500" lon="-6.1581820">
        <ele>787.0</ele>
        <time>2019-08-16T07:16:44Z</time>
      </trkpt>
      <trkpt lat="41.9788520" lon="-6.1582410">
        <ele>787.1</ele>
        <time>2019-08-16T07:16:45Z</time>
      </trkpt>
      <trkpt lat="41.9788570" lon="-6.1582990">
        <ele>787.1</ele>
        <time>2019-08-16T07:16:46Z</time>
      </trkpt>
      <trkpt lat="41.9788650" lon="-6.1583580">
        <ele>787.1</ele>
        <time>2019-08-16T07:16:47Z</time>
      </trkpt>
      <trkpt lat="41.9788750" lon="-6.1584160">
        <ele>787.2</ele>
        <time>2019-08-16T07:16:48Z</time>
      </trkpt>
      <trkpt lat="41.9788870" lon="-6.1584730">
        <ele>787.2</ele>
        <time>2019-08-16T07:16:49Z</time>
      </trkpt>
      <trkpt lat="41.9789000" lon="-6.1585290">
        <ele>787.2</ele>
        <time>2019-08-16T07:16:50Z</time>
      </trkpt>
      <trkpt lat="41.9789150" lon="-6.1585810">
        <ele>787.2</ele>
        <time>2019-08-16T07:16:51Z</time>
      </trkpt>
      <trkpt lat="41.9789320" lon="-6.1586320">
        <ele>787.2</ele>
        <time>2019-08-16T07:16:52Z</time>
      </trkpt>
      <trkpt lat="41.9789510" lon="-6.1586830">
        <ele>787.2</ele>
        <time>2019-08-16T07:16:53Z</time>
      </trkpt>
      <trkpt lat="41.9789690" lon="-6.1587350">
        <ele>787.2</ele>
        <time>2019-08-16T07:16:54Z</time>
      </trkpt>
      <trkpt lat="41.9789870" lon="-6.1587880">
        <ele>787.2</ele>
        <time>2019-08-16T07:16:55Z</time>
      </trkpt>
      <trkpt lat="41.9790040" lon="-6.1588430">
        <ele>787.2</ele>
        <time>2019-08-16T07:16:56Z</time>
      </trkpt>
      <trkpt lat="41.9790170" lon="-6.1589010">
        <ele>787.2</ele>
        <time>2019-08-16T07:16:57Z</time>
      </trkpt>
      <trkpt lat="41.9790240" lon="-6.1589660">
        <ele>787.1</ele>
        <time>2019-08-16T07:16:58Z</time>
      </trkpt>
      <trkpt lat="41.9790250" lon="-6.1590400">
        <ele>787.1</ele>
        <time>2019-08-16T07:16:59Z</time>
      </trkpt>
      <trkpt lat="41.9790230" lon="-6.1591200">
        <ele>787.0</ele>
        <time>2019-08-16T07:17:00Z</time>
      </trkpt>
      <trkpt lat="41.9790230" lon="-6.1592060">
        <ele>786.8</ele>
        <time>2019-08-16T07:17:01Z</time>
      </trkpt>
      <trkpt lat="41.9790260" lon="-6.1592930">
        <ele>786.6</ele>
        <time>2019-08-16T07:17:02Z</time>
      </trkpt>
      <trkpt lat="41.9790320" lon="-6.1593810">
        <ele>786.4</ele>
        <time>2019-08-16T07:17:03Z</time>
      </trkpt>
      <trkpt lat="41.9790390" lon="-6.1594670">
        <ele>786.2</ele>
        <time>2019-08-16T07:17:04Z</time>
      </trkpt>
      <trkpt lat="41.9790440" lon="-6.1595530">
        <ele>786.1</ele>
        <time>2019-08-16T07:17:05Z</time>
      </trkpt>
      <trkpt lat="41.9790510" lon="-6.1596370">
        <ele>785.9</ele>
        <time>2019-08-16T07:17:06Z</time>
      </trkpt>
      <trkpt lat="41.9790580" lon="-6.1597190">
        <ele>785.8</ele>
        <time>2019-08-16T07:17:07Z</time>
      </trkpt>
      <trkpt lat="41.9790660" lon="-6.1597990">
        <ele>785.6</ele>
        <time>2019-08-16T07:17:08Z</time>
      </trkpt>
      <trkpt lat="41.9790750" lon="-6.1598760">
        <ele>785.5</ele>
        <time>2019-08-16T07:17:09Z</time>
      </trkpt>
      <trkpt lat="41.9790860" lon="-6.1599540">
        <ele>785.4</ele>
        <time>2019-08-16T07:17:10Z</time>
      </trkpt>
      <trkpt lat="41.9790970" lon="-6.1600290">
        <ele>785.3</ele>
        <time>2019-08-16T07:17:11Z</time>
      </trkpt>
      <trkpt lat="41.9791080" lon="-6.1600990">
        <ele>785.2</ele>
        <time>2019-08-16T07:17:12Z</time>
      </trkpt>
      <trkpt lat="41.9791160" lon="-6.1601640">
        <ele>785.1</ele>
        <time>2019-08-16T07:17:13Z</time>
      </trkpt>
      <trkpt lat="41.9791180" lon="-6.1602250">
        <ele>785.0</ele>
        <time>2019-08-16T07:17:14Z</time>
      </trkpt>
      <trkpt lat="41.9791180" lon="-6.1602850">
        <ele>785.0</ele>
        <time>2019-08-16T07:17:15Z</time>
      </trkpt>
      <trkpt lat="41.9791150" lon="-6.1603450">
        <ele>785.0</ele>
        <time>2019-08-16T07:17:16Z</time>
      </trkpt>
      <trkpt lat="41.9791070" lon="-6.1604080">
        <ele>784.9</ele>
        <time>2019-08-16T07:17:17Z</time>
      </trkpt>
      <trkpt lat="41.9790970" lon="-6.1604730">
        <ele>784.9</ele>
        <time>2019-08-16T07:17:18Z</time>
      </trkpt>
      <trkpt lat="41.9790880" lon="-6.1605380">
        <ele>784.9</ele>
        <time>2019-08-16T07:17:19Z</time>
      </trkpt>
      <trkpt lat="41.9790800" lon="-6.1606020">
        <ele>784.9</ele>
        <time>2019-08-16T07:17:20Z</time>
      </trkpt>
      <trkpt lat="41.9790720" lon="-6.1606660">
        <ele>784.9</ele>
        <time>2019-08-16T07:17:21Z</time>
      </trkpt>
      <trkpt lat="41.9790650" lon="-6.1607270">
        <ele>785.0</ele>
        <time>2019-08-16T07:17:22Z</time>
      </trkpt>
      <trkpt lat="41.9790570" lon="-6.1607880">
        <ele>785.0</ele>
        <time>2019-08-16T07:17:23Z</time>
      </trkpt>
      <trkpt lat="41.9790500" lon="-6.1608500">
        <ele>785.0</ele>
        <time>2019-08-16T07:17:24Z</time>
      </trkpt>
      <trkpt lat="41.9790450" lon="-6.1609170">
        <ele>785.0</ele>
        <time>2019-08-16T07:17:25Z</time>
      </trkpt>
      <trkpt lat="41.9790400" lon="-6.1609860">
        <ele>785.0</ele>
        <time>2019-08-16T07:17:26Z</time>
      </trkpt>
      <trkpt lat="41.9790370" lon="-6.1610560">
        <ele>785.1</ele>
        <time>2019-08-16T07:17:27Z</time>
      </trkpt>
      <trkpt lat="41.9790370" lon="-6.1611240">
        <ele>785.1</ele>
        <time>2019-08-16T07:17:28Z</time>
      </trkpt>
      <trkpt lat="41.9790350" lon="-6.1611900">
        <ele>785.1</ele>
        <time>2019-08-16T07:17:29Z</time>
      </trkpt>
      <trkpt lat="41.9790330" lon="-6.1612560">
        <ele>785.1</ele>
        <time>2019-08-16T07:17:30Z</time>
      </trkpt>
      <trkpt lat="41.9790290" lon="-6.1613230">
        <ele>785.2</ele>
        <time>2019-08-16T07:17:31Z</time>
      </trkpt>
      <trkpt lat="41.9790230" lon="-6.1613920">
        <ele>785.2</ele>
        <time>2019-08-16T07:17:32Z</time>
      </trkpt>
      <trkpt lat="41.9790130" lon="-6.1614610">
        <ele>785.2</ele>
        <time>2019-08-16T07:17:33Z</time>
      </trkpt>
      <trkpt lat="41.9789990" lon="-6.1615270">
        <ele>785.2</ele>
        <time>2019-08-16T07:17:34Z</time>
      </trkpt>
      <trkpt lat="41.9789820" lon="-6.1615870">
        <ele>785.2</ele>
        <time>2019-08-16T07:17:35Z</time>
      </trkpt>
      <trkpt lat="41.9789660" lon="-6.1616450">
        <ele>785.3</ele>
        <time>2019-08-16T07:17:36Z</time>
      </trkpt>
      <trkpt lat="41.9789520" lon="-6.1617020">
        <ele>785.3</ele>
        <time>2019-08-16T07:17:37Z</time>
      </trkpt>
      <trkpt lat="41.9789410" lon="-6.1617610">
        <ele>785.3</ele>
        <time>2019-08-16T07:17:38Z</time>
      </trkpt>
      <trkpt lat="41.9789310" lon="-6.1618210">
        <ele>785.3</ele>
        <time>2019-08-16T07:17:39Z</time>
      </trkpt>
      <trkpt lat="41.9789250" lon="-6.1618830">
        <ele>785.3</ele>
        <time>2019-08-16T07:17:40Z</time>
      </trkpt>
      <trkpt lat="41.9789220" lon="-6.1619460">
        <ele>785.4</ele>
        <time>2019-08-16T07:17:41Z</time>
      </trkpt>
      <trkpt lat="41.9789210" lon="-6.1620110">
        <ele>785.4</ele>
        <time>2019-08-16T07:17:42Z</time>
      </trkpt>
      <trkpt lat="41.9789240" lon="-6.1620760">
        <ele>785.4</ele>
        <time>2019-08-16T07:17:43Z</time>
      </trkpt>
      <trkpt lat="41.9789310" lon="-6.1621410">
        <ele>785.4</ele>
        <time>2019-08-16T07:17:44Z</time>
      </trkpt>
      <trkpt lat="41.9789410" lon="-6.1622030">
        <ele>785.4</ele>
        <time>2019-08-16T07:17:45Z</time>
      </trkpt>
      <trkpt lat="41.9789580" lon="-6.1622610">
        <ele>785.5</ele>
        <time>2019-08-16T07:17:46Z</time>
      </trkpt>
      <trkpt lat="41.9789800" lon="-6.1623180">
        <ele>785.5</ele>
        <time>2019-08-16T07:17:47Z</time>
      </trkpt>
      <trkpt lat="41.9790030" lon="-6.1623740">
        <ele>785.5</ele>
        <time>2019-08-16T07:17:48Z</time>
      </trkpt>
      <trkpt lat="41.9790280" lon="-6.1624310">
        <ele>785.5</ele>
        <time>2019-08-16T07:17:49Z</time>
      </trkpt>
      <trkpt lat="41.9790520" lon="-6.1624890">
        <ele>785.6</ele>
        <time>2019-08-16T07:17:50Z</time>
      </trkpt>
      <trkpt lat="41.9790720" lon="-6.1625530">
        <ele>785.6</ele>
        <time>2019-08-16T07:17:51Z</time>
      </trkpt>
      <trkpt lat="41.9790850" lon="-6.1626210">
        <ele>785.6</ele>
        <time>2019-08-16T07:17:52Z</time>
      </trkpt>
      <trkpt lat="41.9790920" lon="-6.1626950">
        <ele>785.6</ele>
        <time>2019-08-16T07:17:53Z</time>
      </trkpt>
      <trkpt lat="41.9790980" lon="-6.1627680">
        <ele>785.6</ele>
        <time>2019-08-16T07:17:54Z</time>
      </trkpt>
      <trkpt lat="41.9791040" lon="-6.1628420">
        <ele>785.7</ele>
        <time>2019-08-16T07:17:55Z</time>
      </trkpt>
      <trkpt lat="41.9791120" lon="-6.1629180">
        <ele>785.7</ele>
        <time>2019-08-16T07:17:56Z</time>
      </trkpt>
      <trkpt lat="41.9791190" lon="-6.1629970">
        <ele>785.7</ele>
        <time>2019-08-16T07:17:57Z</time>
      </trkpt>
      <trkpt lat="41.9791260" lon="-6.1630730">
        <ele>785.7</ele>
        <time>2019-08-16T07:17:58Z</time>
      </trkpt>
      <trkpt lat="41.9791330" lon="-6.1631450">
        <ele>785.8</ele>
        <time>2019-08-16T07:17:59Z</time>
      </trkpt>
      <trkpt lat="41.9791440" lon="-6.1632140">
        <ele>785.8</ele>
        <time>2019-08-16T07:18:00Z</time>
      </trkpt>
      <trkpt lat="41.9791570" lon="-6.1632800">
        <ele>785.8</ele>
        <time>2019-08-16T07:18:01Z</time>
      </trkpt>
      <trkpt lat="41.9791720" lon="-6.1633460">
        <ele>785.8</ele>
        <time>2019-08-16T07:18:02Z</time>
      </trkpt>
      <trkpt lat="41.9791920" lon="-6.1634110">
        <ele>785.9</ele>
        <time>2019-08-16T07:18:03Z</time>
      </trkpt>
      <trkpt lat="41.9792150" lon="-6.1634750">
        <ele>785.9</ele>
        <time>2019-08-16T07:18:04Z</time>
      </trkpt>
      <trkpt lat="41.9792380" lon="-6.1635400">
        <ele>785.9</ele>
        <time>2019-08-16T07:18:05Z</time>
      </trkpt>
      <trkpt lat="41.9792610" lon="-6.1636020">
        <ele>785.9</ele>
        <time>2019-08-16T07:18:06Z</time>
      </trkpt>
      <trkpt lat="41.9792840" lon="-6.1636620">
        <ele>786.0</ele>
        <time>2019-08-16T07:18:07Z</time>
      </trkpt>
      <trkpt lat="41.9793060" lon="-6.1637190">
        <ele>786.0</ele>
        <time>2019-08-16T07:18:08Z</time>
      </trkpt>
      <trkpt lat="41.9793270" lon="-6.1637720">
        <ele>786.0</ele>
        <time>2019-08-16T07:18:09Z</time>
      </trkpt>
      <trkpt lat="41.9793430" lon="-6.1638220">
        <ele>786.0</ele>
        <time>2019-08-16T07:18:10Z</time>
      </trkpt>
      <trkpt lat="41.9793500" lon="-6.1638690">
        <ele>786.0</ele>
        <time>2019-08-16T07:18:11Z</time>
      </trkpt>
      <trkpt lat="41.9793460" lon="-6.1639100">
        <ele>786.0</ele>
        <time>2019-08-16T07:18:12Z</time>
      </trkpt>
      <trkpt lat="41.9793320" lon="-6.1639450">
        <ele>786.1</ele>
        <time>2019-08-16T07:18:13Z</time>
      </trkpt>
      <trkpt lat="41.9793130" lon="-6.1639760">
        <ele>786.1</ele>
        <time>2019-08-16T07:18:14Z</time>
      </trkpt>
      <trkpt lat="41.9792960" lon="-6.1640130">
        <ele>786.1</ele>
        <time>2019-08-16T07:18:15Z</time>
      </trkpt>
      <trkpt lat="41.9792920" lon="-6.1640570">
        <ele>786.1</ele>
        <time>2019-08-16T07:18:16Z</time>
      </trkpt>
      <trkpt lat="41.9793010" lon="-6.1641050">
        <ele>786.2</ele>
        <time>2019-08-16T07:18:17Z</time>
      </trkpt>
      <trkpt lat="41.9793190" lon="-6.1641510">
        <ele>786.2</ele>
        <time>2019-08-16T07:18:18Z</time>
      </trkpt>
      <trkpt lat="41.9793420" lon="-6.1642000">
        <ele>786.2</ele>
        <time>2019-08-16T07:18:19Z</time>
      </trkpt>
      <trkpt lat="41.9793660" lon="-6.1642480">
        <ele>786.3</ele>
        <time>2019-08-16T07:18:20Z</time>
      </trkpt>
      <trkpt lat="41.9793900" lon="-6.1642970">
        <ele>786.4</ele>
        <time>2019-08-16T07:18:21Z</time>
      </trkpt>
      <trkpt lat="41.9794140" lon="-6.1643460">
        <ele>786.5</ele>
        <time>2019-08-16T07:18:22Z</time>
      </trkpt>
      <trkpt lat="41.9794380" lon="-6.1643930">
        <ele>786.6</ele>
        <time>2019-08-16T07:18:23Z</time>
      </trkpt>
      <trkpt lat="41.9794620" lon="-6.1644400">
        <ele>786.7</ele>
        <time>2019-08-16T07:18:24Z</time>
      </trkpt>
      <trkpt lat="41.9794850" lon="-6.1644870">
        <ele>786.8</ele>
        <time>2019-08-16T07:18:25Z</time>
      </trkpt>
      <trkpt lat="41.9795070" lon="-6.1645350">
        <ele>786.9</ele>
        <time>2019-08-16T07:18:26Z</time>
      </trkpt>
      <trkpt lat="41.9795300" lon="-6.1645850">
        <ele>787.0</ele>
        <time>2019-08-16T07:18:27Z</time>
      </trkpt>
      <trkpt lat="41.9795530" lon="-6.1646350">
        <ele>787.1</ele>
        <time>2019-08-16T07:18:28Z</time>
      </trkpt>
      <trkpt lat="41.9795760" lon="-6.1646850">
        <ele>787.1</ele>
        <time>2019-08-16T07:18:29Z</time>
      </trkpt>
      <trkpt lat="41.9795990" lon="-6.1647350">
        <ele>787.2</ele>
        <time>2019-08-16T07:18:30Z</time>
      </trkpt>
      <trkpt lat="41.9796220" lon="-6.1647840">
        <ele>787.3</ele>
        <time>2019-08-16T07:18:31Z</time>
      </trkpt>
      <trkpt lat="41.9796440" lon="-6.1648360">
        <ele>787.3</ele>
        <time>2019-08-16T07:18:32Z</time>
      </trkpt>
      <trkpt lat="41.9796650" lon="-6.1648850">
        <ele>787.4</ele>
        <time>2019-08-16T07:18:33Z</time>
      </trkpt>
      <trkpt lat="41.9796860" lon="-6.1649340">
        <ele>787.5</ele>
        <time>2019-08-16T07:18:34Z</time>
      </trkpt>
      <trkpt lat="41.9797050" lon="-6.1649800">
        <ele>787.5</ele>
        <time>2019-08-16T07:18:35Z</time>
      </trkpt>
      <trkpt lat="41.9797240" lon="-6.1650240">
        <ele>787.6</ele>
        <time>2019-08-16T07:18:36Z</time>
      </trkpt>
      <trkpt lat="41.9797430" lon="-6.1650670">
        <ele>787.7</ele>
        <time>2019-08-16T07:18:37Z</time>
      </trkpt>
      <trkpt lat="41.9797620" lon="-6.1651140">
        <ele>787.8</ele>
        <time>2019-08-16T07:18:38Z</time>
      </trkpt>
      <trkpt lat="41.9797800" lon="-6.1651600">
        <ele>787.9</ele>
        <time>2019-08-16T07:18:39Z</time>
      </trkpt>
      <trkpt lat="41.9797990" lon="-6.1652090">
        <ele>788.0</ele>
        <time>2019-08-16T07:18:40Z</time>
      </trkpt>
      <trkpt lat="41.9798180" lon="-6.1652580">
        <ele>788.2</ele>
        <time>2019-08-16T07:18:41Z</time>
      </trkpt>
      <trkpt lat="41.9798390" lon="-6.1653070">
        <ele>788.3</ele>
        <time>2019-08-16T07:18:42Z</time>
      </trkpt>
      <trkpt lat="41.9798600" lon="-6.1653550">
        <ele>788.5</ele>
        <time>2019-08-16T07:18:43Z</time>
      </trkpt>
      <trkpt lat="41.9798790" lon="-6.1654020">
        <ele>788.7</ele>
        <time>2019-08-16T07:18:44Z</time>
      </trkpt>
      <trkpt lat="41.9798980" lon="-6.1654490">
        <ele>788.8</ele>
        <time>2019-08-16T07:18:45Z</time>
      </trkpt>
      <trkpt lat="41.9799160" lon="-6.1654980">
        <ele>789.0</ele>
        <time>2019-08-16T07:18:46Z</time>
      </trkpt>
      <trkpt lat="41.9799350" lon="-6.1655480">
        <ele>789.2</ele>
        <time>2019-08-16T07:18:47Z</time>
      </trkpt>
      <trkpt lat="41.9799530" lon="-6.1655980">
        <ele>789.3</ele>
        <time>2019-08-16T07:18:48Z</time>
      </trkpt>
      <trkpt lat="41.9799720" lon="-6.1656480">
        <ele>789.5</ele>
        <time>2019-08-16T07:18:49Z</time>
      </trkpt>
      <trkpt lat="41.9799910" lon="-6.1656970">
        <ele>789.6</ele>
        <time>2019-08-16T07:18:50Z</time>
      </trkpt>
      <trkpt lat="41.9800110" lon="-6.1657440">
        <ele>789.7</ele>
        <time>2019-08-16T07:18:51Z</time>
      </trkpt>
      <trkpt lat="41.9800300" lon="-6.1657900">
        <ele>789.8</ele>
        <time>2019-08-16T07:18:52Z</time>
      </trkpt>
      <trkpt lat="41.9800480" lon="-6.1658350">
        <ele>789.9</ele>
        <time>2019-08-16T07:18:53Z</time>
      </trkpt>
      <trkpt lat="41.9800650" lon="-6.1658800">
        <ele>790.0</ele>
        <time>2019-08-16T07:18:54Z</time>
      </trkpt>
      <trkpt lat="41.9800830" lon="-6.1659220">
        <ele>790.1</ele>
        <time>2019-08-16T07:18:55Z</time>
      </trkpt>
      <trkpt lat="41.9800990" lon="-6.1659650">
        <ele>790.2</ele>
        <time>2019-08-16T07:18:56Z</time>
      </trkpt>
      <trkpt lat="41.9801170" lon="-6.1660070">
        <ele>790.3</ele>
        <time>2019-08-16T07:18:57Z</time>
      </trkpt>
      <trkpt lat="41.9801400" lon="-6.1660450">
        <ele>790.4</ele>
        <time>2019-08-16T07:18:58Z</time>
      </trkpt>
      <trkpt lat="41.9801660" lon="-6.1660780">
        <ele>790.6</ele>
        <time>2019-08-16T07:18:59Z</time>
      </trkpt>
      <trkpt lat="41.9801910" lon="-6.1661100">
        <ele>790.7</ele>
        <time>2019-08-16T07:19:00Z</time>
      </trkpt>
      <trkpt lat="41.9802160" lon="-6.1661470">
        <ele>791.0</ele>
        <time>2019-08-16T07:19:01Z</time>
      </trkpt>
      <trkpt lat="41.9802370" lon="-6.1661870">
        <ele>791.1</ele>
        <time>2019-08-16T07:19:02Z</time>
      </trkpt>
      <trkpt lat="41.9802530" lon="-6.1662280">
        <ele>791.1</ele>
        <time>2019-08-16T07:19:03Z</time>
      </trkpt>
      <trkpt lat="41.9802610" lon="-6.1662680">
        <ele>791.1</ele>
        <time>2019-08-16T07:19:04Z</time>
      </trkpt>
      <trkpt lat="41.9802630" lon="-6.1663080">
        <ele>791.2</ele>
        <time>2019-08-16T07:19:05Z</time>
      </trkpt>
      <trkpt lat="41.9802630" lon="-6.1663470">
        <ele>791.3</ele>
        <time>2019-08-16T07:19:06Z</time>
      </trkpt>
      <trkpt lat="41.9802650" lon="-6.1663870">
        <ele>791.4</ele>
        <time>2019-08-16T07:19:07Z</time>
      </trkpt>
      <trkpt lat="41.9802670" lon="-6.1664300">
        <ele>791.5</ele>
        <time>2019-08-16T07:19:08Z</time>
      </trkpt>
      <trkpt lat="41.9802690" lon="-6.1664750">
        <ele>791.5</ele>
        <time>2019-08-16T07:19:09Z</time>
      </trkpt>
      <trkpt lat="41.9802710" lon="-6.1665230">
        <ele>791.6</ele>
        <time>2019-08-16T07:19:10Z</time>
      </trkpt>
      <trkpt lat="41.9802730" lon="-6.1665730">
        <ele>791.7</ele>
        <time>2019-08-16T07:19:11Z</time>
      </trkpt>
      <trkpt lat="41.9802750" lon="-6.1666220">
        <ele>791.8</ele>
        <time>2019-08-16T07:19:12Z</time>
      </trkpt>
      <trkpt lat="41.9802790" lon="-6.1666720">
        <ele>791.9</ele>
        <time>2019-08-16T07:19:13Z</time>
      </trkpt>
      <trkpt lat="41.9802840" lon="-6.1667220">
        <ele>791.9</ele>
        <time>2019-08-16T07:19:14Z</time>
      </trkpt>
      <trkpt lat="41.9802870" lon="-6.1667710">
        <ele>792.0</ele>
        <time>2019-08-16T07:19:15Z</time>
      </trkpt>
      <trkpt lat="41.9802900" lon="-6.1668210">
        <ele>792.1</ele>
        <time>2019-08-16T07:19:16Z</time>
      </trkpt>
      <trkpt lat="41.9802930" lon="-6.1668690">
        <ele>792.2</ele>
        <time>2019-08-16T07:19:17Z</time>
      </trkpt>
      <trkpt lat="41.9802960" lon="-6.1669160">
        <ele>792.2</ele>
        <time>2019-08-16T07:19:18Z</time>
      </trkpt>
      <trkpt lat="41.9803000" lon="-6.1669620">
        <ele>792.3</ele>
        <time>2019-08-16T07:19:19Z</time>
      </trkpt>
      <trkpt lat="41.9803050" lon="-6.1670080">
        <ele>792.4</ele>
        <time>2019-08-16T07:19:20Z</time>
      </trkpt>
      <trkpt lat="41.9803090" lon="-6.1670530">
        <ele>792.4</ele>
        <time>2019-08-16T07:19:21Z</time>
      </trkpt>
      <trkpt lat="41.9803130" lon="-6.1670980">
        <ele>792.5</ele>
        <time>2019-08-16T07:19:22Z</time>
      </trkpt>
      <trkpt lat="41.9803170" lon="-6.1671420">
        <ele>792.5</ele>
        <time>2019-08-16T07:19:23Z</time>
      </trkpt>
      <trkpt lat="41.9803200" lon="-6.1671860">
        <ele>792.6</ele>
        <time>2019-08-16T07:19:24Z</time>
      </trkpt>
      <trkpt lat="41.9803220" lon="-6.1672310">
        <ele>792.6</ele>
        <time>2019-08-16T07:19:25Z</time>
      </trkpt>
      <trkpt lat="41.9803220" lon="-6.1672770">
        <ele>792.7</ele>
        <time>2019-08-16T07:19:26Z</time>
      </trkpt>
      <trkpt lat="41.9803220" lon="-6.1673220">
        <ele>792.7</ele>
        <time>2019-08-16T07:19:27Z</time>
      </trkpt>
      <trkpt lat="41.9803200" lon="-6.1673670">
        <ele>792.9</ele>
        <time>2019-08-16T07:19:28Z</time>
      </trkpt>
      <trkpt lat="41.9803170" lon="-6.1674100">
        <ele>793.0</ele>
        <time>2019-08-16T07:19:29Z</time>
      </trkpt>
      <trkpt lat="41.9803120" lon="-6.1674550">
        <ele>793.1</ele>
        <time>2019-08-16T07:19:30Z</time>
      </trkpt>
      <trkpt lat="41.9803060" lon="-6.1674990">
        <ele>793.2</ele>
        <time>2019-08-16T07:19:31Z</time>
      </trkpt>
      <trkpt lat="41.9802960" lon="-6.1675430">
        <ele>793.2</ele>
        <time>2019-08-16T07:19:32Z</time>
      </trkpt>
      <trkpt lat="41.9802820" lon="-6.1675840">
        <ele>793.3</ele>
        <time>2019-08-16T07:19:33Z</time>
      </trkpt>
      <trkpt lat="41.9802670" lon="-6.1676230">
        <ele>793.4</ele>
        <time>2019-08-16T07:19:34Z</time>
      </trkpt>
      <trkpt lat="41.9802520" lon="-6.1676610">
        <ele>793.5</ele>
        <time>2019-08-16T07:19:35Z</time>
      </trkpt>
      <trkpt lat="41.9802380" lon="-6.1676970">
        <ele>793.7</ele>
        <time>2019-08-16T07:19:36Z</time>
      </trkpt>
      <trkpt lat="41.9802240" lon="-6.1677320">
        <ele>793.8</ele>
        <time>2019-08-16T07:19:37Z</time>
      </trkpt>
      <trkpt lat="41.9802090" lon="-6.1677650">
        <ele>793.9</ele>
        <time>2019-08-16T07:19:38Z</time>
      </trkpt>
      <trkpt lat="41.9801930" lon="-6.1677940">
        <ele>794.0</ele>
        <time>2019-08-16T07:19:39Z</time>
      </trkpt>
      <trkpt lat="41.9801760" lon="-6.1678230">
        <ele>794.1</ele>
        <time>2019-08-16T07:19:40Z</time>
      </trkpt>
      <trkpt lat="41.9801470" lon="-6.1678790">
        <ele>794.3</ele>
        <time>2019-08-16T07:19:42Z</time>
      </trkpt>
      <trkpt lat="41.9801240" lon="-6.1679340">
        <ele>794.5</ele>
        <time>2019-08-16T07:19:44Z</time>
      </trkpt>
      <trkpt lat="41.9800990" lon="-6.1679870">
        <ele>794.7</ele>
        <time>2019-08-16T07:19:46Z</time>
      </trkpt>
      <trkpt lat="41.9800720" lon="-6.1680340">
        <ele>794.8</ele>
        <time>2019-08-16T07:19:48Z</time>
      </trkpt>
      <trkpt lat="41.9800460" lon="-6.1680830">
        <ele>795.0</ele>
        <time>2019-08-16T07:19:50Z</time>
      </trkpt>
      <trkpt lat="41.9800190" lon="-6.1681350">
        <ele>795.2</ele>
        <time>2019-08-16T07:19:52Z</time>
      </trkpt>
      <trkpt lat="41.9799920" lon="-6.1681860">
        <ele>795.4</ele>
        <time>2019-08-16T07:19:54Z</time>
      </trkpt>
      <trkpt lat="41.9799640" lon="-6.1682370">
        <ele>795.6</ele>
        <time>2019-08-16T07:19:56Z</time>
      </trkpt>
      <trkpt lat="41.9799360" lon="-6.1682830">
        <ele>795.9</ele>
        <time>2019-08-16T07:19:58Z</time>
      </trkpt>
      <trkpt lat="41.9799060" lon="-6.1683290">
        <ele>796.2</ele>
        <time>2019-08-16T07:20:00Z</time>
      </trkpt>
      <trkpt lat="41.9798770" lon="-6.1683740">
        <ele>796.4</ele>
        <time>2019-08-16T07:20:02Z</time>
      </trkpt>
      <trkpt lat="41.9798510" lon="-6.1684210">
        <ele>796.7</ele>
        <time>2019-08-16T07:20:04Z</time>
      </trkpt>
      <trkpt lat="41.9798240" lon="-6.1684660">
        <ele>797.0</ele>
        <time>2019-08-16T07:20:06Z</time>
      </trkpt>
      <trkpt lat="41.9797990" lon="-6.1685120">
        <ele>797.3</ele>
        <time>2019-08-16T07:20:08Z</time>
      </trkpt>
      <trkpt lat="41.9797730" lon="-6.1685590">
        <ele>797.6</ele>
        <time>2019-08-16T07:20:10Z</time>
      </trkpt>
      <trkpt lat="41.9797450" lon="-6.1686040">
        <ele>797.9</ele>
        <time>2019-08-16T07:20:12Z</time>
      </trkpt>
      <trkpt lat="41.9797190" lon="-6.1686500">
        <ele>798.1</ele>
        <time>2019-08-16T07:20:14Z</time>
      </trkpt>
      <trkpt lat="41.9796900" lon="-6.1686940">
        <ele>798.3</ele>
        <time>2019-08-16T07:20:16Z</time>
      </trkpt>
      <trkpt lat="41.9796600" lon="-6.1687370">
        <ele>798.6</ele>
        <time>2019-08-16T07:20:18Z</time>
      </trkpt>
      <trkpt lat="41.9796320" lon="-6.1687800">
        <ele>798.9</ele>
        <time>2019-08-16T07:20:20Z</time>
      </trkpt>
      <trkpt lat="41.9796050" lon="-6.1688230">
        <ele>799.2</ele>
        <time>2019-08-16T07:20:22Z</time>
      </trkpt>
      <trkpt lat="41.9795760" lon="-6.1688660">
        <ele>799.5</ele>
        <time>2019-08-16T07:20:24Z</time>
      </trkpt>
      <trkpt lat="41.9795460" lon="-6.1689070">
        <ele>799.7</ele>
        <time>2019-08-16T07:20:26Z</time>
      </trkpt>
      <trkpt lat="41.9795170" lon="-6.1689490">
        <ele>800.0</ele>
        <time>2019-08-16T07:20:28Z</time>
      </trkpt>
      <trkpt lat="41.9794870" lon="-6.1689890">
        <ele>800.3</ele>
        <time>2019-08-16T07:20:30Z</time>
      </trkpt>
      <trkpt lat="41.9794590" lon="-6.1690330">
        <ele>800.5</ele>
        <time>2019-08-16T07:20:32Z</time>
      </trkpt>
      <trkpt lat="41.9794320" lon="-6.1690750">
        <ele>800.7</ele>
        <time>2019-08-16T07:20:34Z</time>
      </trkpt>
      <trkpt lat="41.9794040" lon="-6.1691150">
        <ele>801.0</ele>
        <time>2019-08-16T07:20:36Z</time>
      </trkpt>
      <trkpt lat="41.9793790" lon="-6.1691580">
        <ele>801.2</ele>
        <time>2019-08-16T07:20:38Z</time>
      </trkpt>
      <trkpt lat="41.9793550" lon="-6.1692010">
        <ele>801.5</ele>
        <time>2019-08-16T07:20:40Z</time>
      </trkpt>
      <trkpt lat="41.9793350" lon="-6.1692460">
        <ele>801.7</ele>
        <time>2019-08-16T07:20:42Z</time>
      </trkpt>
      <trkpt lat="41.9793160" lon="-6.1692940">
        <ele>802.0</ele>
        <time>2019-08-16T07:20:44Z</time>
      </trkpt>
      <trkpt lat="41.9792970" lon="-6.1693410">
        <ele>802.3</ele>
        <time>2019-08-16T07:20:46Z</time>
      </trkpt>
      <trkpt lat="41.9792780" lon="-6.1693900">
        <ele>802.5</ele>
        <time>2019-08-16T07:20:48Z</time>
      </trkpt>
      <trkpt lat="41.9792600" lon="-6.1694410">
        <ele>802.7</ele>
        <time>2019-08-16T07:20:50Z</time>
      </trkpt>
      <trkpt lat="41.9792410" lon="-6.1694920">
        <ele>803.0</ele>
        <time>2019-08-16T07:20:52Z</time>
      </trkpt>
      <trkpt lat="41.9792180" lon="-6.1695370">
        <ele>803.3</ele>
        <time>2019-08-16T07:20:54Z</time>
      </trkpt>
      <trkpt lat="41.9791880" lon="-6.1695720">
        <ele>803.5</ele>
        <time>2019-08-16T07:20:56Z</time>
      </trkpt>
      <trkpt lat="41.9791550" lon="-6.1695930">
        <ele>803.6</ele>
        <time>2019-08-16T07:20:58Z</time>
      </trkpt>
      <trkpt lat="41.9791160" lon="-6.1695990">
        <ele>803.8</ele>
        <time>2019-08-16T07:21:00Z</time>
      </trkpt>
      <trkpt lat="41.9790760" lon="-6.1695990">
        <ele>804.0</ele>
        <time>2019-08-16T07:21:02Z</time>
      </trkpt>
      <trkpt lat="41.9790360" lon="-6.1695970">
        <ele>804.2</ele>
        <time>2019-08-16T07:21:04Z</time>
      </trkpt>
      <trkpt lat="41.9789940" lon="-6.1695940">
        <ele>804.4</ele>
        <time>2019-08-16T07:21:06Z</time>
      </trkpt>
      <trkpt lat="41.9789490" lon="-6.1695980">
        <ele>804.6</ele>
        <time>2019-08-16T07:21:08Z</time>
      </trkpt>
      <trkpt lat="41.9789100" lon="-6.1696130">
        <ele>804.8</ele>
        <time>2019-08-16T07:21:10Z</time>
      </trkpt>
      <trkpt lat="41.9788790" lon="-6.1696490">
        <ele>805.1</ele>
        <time>2019-08-16T07:21:12Z</time>
      </trkpt>
      <trkpt lat="41.9788590" lon="-6.1697020">
        <ele>804.9</ele>
        <time>2019-08-16T07:21:14Z</time>
      </trkpt>
      <trkpt lat="41.9788470" lon="-6.1697750">
        <ele>804.8</ele>
        <time>2019-08-16T07:21:16Z</time>
      </trkpt>
      <trkpt lat="41.9788430" lon="-6.1698180">
        <ele>804.7</ele>
        <time>2019-08-16T07:21:17Z</time>
      </trkpt>
      <trkpt lat="41.9788420" lon="-6.1698630">
        <ele>804.6</ele>
        <time>2019-08-16T07:21:18Z</time>
      </trkpt>
      <trkpt lat="41.9788410" lon="-6.1699110">
        <ele>804.5</ele>
        <time>2019-08-16T07:21:19Z</time>
      </trkpt>
      <trkpt lat="41.9788410" lon="-6.1699600">
        <ele>804.5</ele>
        <time>2019-08-16T07:21:20Z</time>
      </trkpt>
      <trkpt lat="41.9788410" lon="-6.1700090">
        <ele>804.4</ele>
        <time>2019-08-16T07:21:21Z</time>
      </trkpt>
      <trkpt lat="41.9788420" lon="-6.1700600">
        <ele>804.3</ele>
        <time>2019-08-16T07:21:22Z</time>
      </trkpt>
      <trkpt lat="41.9788420" lon="-6.1701110">
        <ele>804.1</ele>
        <time>2019-08-16T07:21:23Z</time>
      </trkpt>
      <trkpt lat="41.9788420" lon="-6.1701620">
        <ele>804.0</ele>
        <time>2019-08-16T07:21:24Z</time>
      </trkpt>
      <trkpt lat="41.9788420" lon="-6.1702150">
        <ele>804.0</ele>
        <time>2019-08-16T07:21:25Z</time>
      </trkpt>
      <trkpt lat="41.9788430" lon="-6.1702690">
        <ele>803.8</ele>
        <time>2019-08-16T07:21:26Z</time>
      </trkpt>
      <trkpt lat="41.9788450" lon="-6.1703250">
        <ele>803.7</ele>
        <time>2019-08-16T07:21:27Z</time>
      </trkpt>
      <trkpt lat="41.9788470" lon="-6.1703830">
        <ele>803.6</ele>
        <time>2019-08-16T07:21:28Z</time>
      </trkpt>
      <trkpt lat="41.9788480" lon="-6.1704430">
        <ele>803.5</ele>
        <time>2019-08-16T07:21:29Z</time>
      </trkpt>
      <trkpt lat="41.9788490" lon="-6.1705040">
        <ele>803.4</ele>
        <time>2019-08-16T07:21:30Z</time>
      </trkpt>
      <trkpt lat="41.9788530" lon="-6.1705610">
        <ele>803.2</ele>
        <time>2019-08-16T07:21:31Z</time>
      </trkpt>
      <trkpt lat="41.9788610" lon="-6.1706100">
        <ele>803.1</ele>
        <time>2019-08-16T07:21:32Z</time>
      </trkpt>
      <trkpt lat="41.9788790" lon="-6.1706460">
        <ele>803.0</ele>
        <time>2019-08-16T07:21:33Z</time>
      </trkpt>
      <trkpt lat="41.9789080" lon="-6.1706660">
        <ele>802.9</ele>
        <time>2019-08-16T07:21:34Z</time>
      </trkpt>
      <trkpt lat="41.9789410" lon="-6.1706800">
        <ele>802.8</ele>
        <time>2019-08-16T07:21:35Z</time>
      </trkpt>
      <trkpt lat="41.9789730" lon="-6.1706990">
        <ele>802.7</ele>
        <time>2019-08-16T07:21:36Z</time>
      </trkpt>
      <trkpt lat="41.9790000" lon="-6.1707280">
        <ele>802.6</ele>
        <time>2019-08-16T07:21:37Z</time>
      </trkpt>
      <trkpt lat="41.9790230" lon="-6.1707650">
        <ele>802.4</ele>
        <time>2019-08-16T07:21:38Z</time>
      </trkpt>
      <trkpt lat="41.9790470" lon="-6.1708020">
        <ele>802.3</ele>
        <time>2019-08-16T07:21:39Z</time>
      </trkpt>
      <trkpt lat="41.9790750" lon="-6.1708350">
        <ele>802.2</ele>
        <time>2019-08-16T07:21:40Z</time>
      </trkpt>
      <trkpt lat="41.9791060" lon="-6.1708630">
        <ele>802.1</ele>
        <time>2019-08-16T07:21:41Z</time>
      </trkpt>
      <trkpt lat="41.9791410" lon="-6.1708900">
        <ele>802.0</ele>
        <time>2019-08-16T07:21:42Z</time>
      </trkpt>
      <trkpt lat="41.9791780" lon="-6.1709180">
        <ele>801.9</ele>
        <time>2019-08-16T07:21:43Z</time>
      </trkpt>
      <trkpt lat="41.9792180" lon="-6.1709440">
        <ele>801.8</ele>
        <time>2019-08-16T07:21:44Z</time>
      </trkpt>
      <trkpt lat="41.9792600" lon="-6.1709690">
        <ele>801.7</ele>
        <time>2019-08-16T07:21:45Z</time>
      </trkpt>
      <trkpt lat="41.9793030" lon="-6.1709950">
        <ele>801.6</ele>
        <time>2019-08-16T07:21:46Z</time>
      </trkpt>
      <trkpt lat="41.9793470" lon="-6.1710240">
        <ele>801.4</ele>
        <time>2019-08-16T07:21:47Z</time>
      </trkpt>
      <trkpt lat="41.9793930" lon="-6.1710540">
        <ele>801.3</ele>
        <time>2019-08-16T07:21:48Z</time>
      </trkpt>
      <trkpt lat="41.9794410" lon="-6.1710800">
        <ele>801.1</ele>
        <time>2019-08-16T07:21:49Z</time>
      </trkpt>
      <trkpt lat="41.9794870" lon="-6.1711060">
        <ele>801.0</ele>
        <time>2019-08-16T07:21:50Z</time>
      </trkpt>
      <trkpt lat="41.9795330" lon="-6.1711330">
        <ele>800.8</ele>
        <time>2019-08-16T07:21:51Z</time>
      </trkpt>
      <trkpt lat="41.9795750" lon="-6.1711610">
        <ele>800.6</ele>
        <time>2019-08-16T07:21:52Z</time>
      </trkpt>
      <trkpt lat="41.9796120" lon="-6.1711890">
        <ele>800.2</ele>
        <time>2019-08-16T07:21:53Z</time>
      </trkpt>
      <trkpt lat="41.9796440" lon="-6.1712220">
        <ele>800.0</ele>
        <time>2019-08-16T07:21:54Z</time>
      </trkpt>
      <trkpt lat="41.9796670" lon="-6.1712540">
        <ele>800.0</ele>
        <time>2019-08-16T07:21:55Z</time>
      </trkpt>
      <trkpt lat="41.9796700" lon="-6.1712690">
        <ele>799.9</ele>
        <time>2019-08-16T07:22:00Z</time>
      </trkpt>
      <trkpt lat="41.9796780" lon="-6.1712340">
        <ele>799.9</ele>
        <time>2019-08-16T07:22:03Z</time>
      </trkpt>
      <trkpt lat="41.9796870" lon="-6.1712970">
        <ele>799.8</ele>
        <time>2019-08-16T07:22:38Z</time>
      </trkpt>
      <trkpt lat="41.9797060" lon="-6.1713520">
        <ele>799.8</ele>
        <time>2019-08-16T07:22:40Z</time>
      </trkpt>
      <trkpt lat="41.9797260" lon="-6.1714170">
        <ele>799.7</ele>
        <time>2019-08-16T07:22:42Z</time>
      </trkpt>
      <trkpt lat="41.9797360" lon="-6.1714520">
        <ele>799.7</ele>
        <time>2019-08-16T07:22:43Z</time>
      </trkpt>
      <trkpt lat="41.9797490" lon="-6.1714900">
        <ele>799.7</ele>
        <time>2019-08-16T07:22:44Z</time>
      </trkpt>
      <trkpt lat="41.9797600" lon="-6.1715270">
        <ele>799.7</ele>
        <time>2019-08-16T07:22:45Z</time>
      </trkpt>
      <trkpt lat="41.9797710" lon="-6.1715610">
        <ele>799.7</ele>
        <time>2019-08-16T07:22:46Z</time>
      </trkpt>
      <trkpt lat="41.9797830" lon="-6.1715950">
        <ele>799.7</ele>
        <time>2019-08-16T07:22:47Z</time>
      </trkpt>
      <trkpt lat="41.9798010" lon="-6.1716260">
        <ele>799.7</ele>
        <time>2019-08-16T07:22:48Z</time>
      </trkpt>
      <trkpt lat="41.9798240" lon="-6.1716540">
        <ele>799.8</ele>
        <time>2019-08-16T07:22:49Z</time>
      </trkpt>
      <trkpt lat="41.9798500" lon="-6.1716780">
        <ele>799.8</ele>
        <time>2019-08-16T07:22:50Z</time>
      </trkpt>
      <trkpt lat="41.9798770" lon="-6.1717010">
        <ele>799.9</ele>
        <time>2019-08-16T07:22:51Z</time>
      </trkpt>
      <trkpt lat="41.9799030" lon="-6.1717240">
        <ele>799.9</ele>
        <time>2019-08-16T07:22:52Z</time>
      </trkpt>
      <trkpt lat="41.9799290" lon="-6.1717460">
        <ele>800.0</ele>
        <time>2019-08-16T07:22:53Z</time>
      </trkpt>
      <trkpt lat="41.9799510" lon="-6.1717700">
        <ele>800.0</ele>
        <time>2019-08-16T07:22:54Z</time>
      </trkpt>
      <trkpt lat="41.9799820" lon="-6.1718150">
        <ele>800.2</ele>
        <time>2019-08-16T07:22:56Z</time>
      </trkpt>
      <trkpt lat="41.9800040" lon="-6.1718480">
        <ele>800.3</ele>
        <time>2019-08-16T07:22:58Z</time>
      </trkpt>
      <trkpt lat="41.9800200" lon="-6.1718790">
        <ele>800.4</ele>
        <time>2019-08-16T07:23:00Z</time>
      </trkpt>
      <trkpt lat="41.9800260" lon="-6.1719190">
        <ele>800.5</ele>
        <time>2019-08-16T07:23:02Z</time>
      </trkpt>
      <trkpt lat="41.9800190" lon="-6.1719550">
        <ele>800.6</ele>
        <time>2019-08-16T07:23:04Z</time>
      </trkpt>
      <trkpt lat="41.9800020" lon="-6.1719870">
        <ele>800.7</ele>
        <time>2019-08-16T07:23:06Z</time>
      </trkpt>
      <trkpt lat="41.9799900" lon="-6.1720200">
        <ele>800.8</ele>
        <time>2019-08-16T07:23:08Z</time>
      </trkpt>
      <trkpt lat="41.9799890" lon="-6.1719870">
        <ele>800.9</ele>
        <time>2019-08-16T07:23:59Z</time>
      </trkpt>
      <trkpt lat="41.9800200" lon="-6.1719590">
        <ele>801.1</ele>
        <time>2019-08-16T07:24:02Z</time>
      </trkpt>
      <trkpt lat="41.9800610" lon="-6.1719690">
        <ele>801.3</ele>
        <time>2019-08-16T07:24:05Z</time>
      </trkpt>
      <trkpt lat="41.9800910" lon="-6.1720000">
        <ele>801.5</ele>
        <time>2019-08-16T07:24:07Z</time>
      </trkpt>
      <trkpt lat="41.9801220" lon="-6.1720330">
        <ele>801.6</ele>
        <time>2019-08-16T07:24:09Z</time>
      </trkpt>
      <trkpt lat="41.9801510" lon="-6.1720740">
        <ele>801.8</ele>
        <time>2019-08-16T07:24:11Z</time>
      </trkpt>
      <trkpt lat="41.9801810" lon="-6.1721200">
        <ele>801.9</ele>
        <time>2019-08-16T07:24:13Z</time>
      </trkpt>
      <trkpt lat="41.9802060" lon="-6.1721710">
        <ele>802.0</ele>
        <time>2019-08-16T07:24:15Z</time>
      </trkpt>
      <trkpt lat="41.9802280" lon="-6.1722250">
        <ele>802.1</ele>
        <time>2019-08-16T07:24:17Z</time>
      </trkpt>
      <trkpt lat="41.9802540" lon="-6.1722810">
        <ele>802.2</ele>
        <time>2019-08-16T07:24:19Z</time>
      </trkpt>
      <trkpt lat="41.9802830" lon="-6.1723320">
        <ele>802.4</ele>
        <time>2019-08-16T07:24:21Z</time>
      </trkpt>
      <trkpt lat="41.9803110" lon="-6.1723760">
        <ele>802.6</ele>
        <time>2019-08-16T07:24:23Z</time>
      </trkpt>
      <trkpt lat="41.9803420" lon="-6.1724200">
        <ele>802.7</ele>
        <time>2019-08-16T07:24:25Z</time>
      </trkpt>
      <trkpt lat="41.9803730" lon="-6.1724810">
        <ele>802.9</ele>
        <time>2019-08-16T07:24:27Z</time>
      </trkpt>
      <trkpt lat="41.9804060" lon="-6.1725360">
        <ele>803.1</ele>
        <time>2019-08-16T07:24:29Z</time>
      </trkpt>
      <trkpt lat="41.9804240" lon="-6.1725640">
        <ele>803.1</ele>
        <time>2019-08-16T07:24:30Z</time>
      </trkpt>
      <trkpt lat="41.9804420" lon="-6.1725940">
        <ele>803.2</ele>
        <time>2019-08-16T07:24:31Z</time>
      </trkpt>
      <trkpt lat="41.9804600" lon="-6.1726250">
        <ele>803.3</ele>
        <time>2019-08-16T07:24:32Z</time>
      </trkpt>
      <trkpt lat="41.9804780" lon="-6.1726570">
        <ele>803.4</ele>
        <time>2019-08-16T07:24:33Z</time>
      </trkpt>
      <trkpt lat="41.9804960" lon="-6.1726890">
        <ele>803.5</ele>
        <time>2019-08-16T07:24:34Z</time>
      </trkpt>
      <trkpt lat="41.9805140" lon="-6.1727220">
        <ele>803.6</ele>
        <time>2019-08-16T07:24:35Z</time>
      </trkpt>
      <trkpt lat="41.9805300" lon="-6.1727560">
        <ele>803.7</ele>
        <time>2019-08-16T07:24:36Z</time>
      </trkpt>
      <trkpt lat="41.9805480" lon="-6.1727870">
        <ele>803.8</ele>
        <time>2019-08-16T07:24:37Z</time>
      </trkpt>
      <trkpt lat="41.9805680" lon="-6.1728170">
        <ele>803.9</ele>
        <time>2019-08-16T07:24:38Z</time>
      </trkpt>
      <trkpt lat="41.9805870" lon="-6.1728480">
        <ele>804.0</ele>
        <time>2019-08-16T07:24:39Z</time>
      </trkpt>
      <trkpt lat="41.9806050" lon="-6.1728820">
        <ele>804.1</ele>
        <time>2019-08-16T07:24:40Z</time>
      </trkpt>
      <trkpt lat="41.9806210" lon="-6.1729180">
        <ele>804.2</ele>
        <time>2019-08-16T07:24:41Z</time>
      </trkpt>
      <trkpt lat="41.9806380" lon="-6.1729530">
        <ele>804.3</ele>
        <time>2019-08-16T07:24:42Z</time>
      </trkpt>
      <trkpt lat="41.9806550" lon="-6.1729900">
        <ele>804.4</ele>
        <time>2019-08-16T07:24:43Z</time>
      </trkpt>
      <trkpt lat="41.9806720" lon="-6.1730270">
        <ele>804.5</ele>
        <time>2019-08-16T07:24:44Z</time>
      </trkpt>
      <trkpt lat="41.9806890" lon="-6.1730650">
        <ele>804.6</ele>
        <time>2019-08-16T07:24:45Z</time>
      </trkpt>
      <trkpt lat="41.9807060" lon="-6.1731040">
        <ele>804.6</ele>
        <time>2019-08-16T07:24:46Z</time>
      </trkpt>
      <trkpt lat="41.9807230" lon="-6.1731450">
        <ele>804.7</ele>
        <time>2019-08-16T07:24:47Z</time>
      </trkpt>
      <trkpt lat="41.9807390" lon="-6.1731850">
        <ele>804.7</ele>
        <time>2019-08-16T07:24:48Z</time>
      </trkpt>
      <trkpt lat="41.9807560" lon="-6.1732260">
        <ele>804.8</ele>
        <time>2019-08-16T07:24:49Z</time>
      </trkpt>
      <trkpt lat="41.9807720" lon="-6.1732690">
        <ele>804.8</ele>
        <time>2019-08-16T07:24:50Z</time>
      </trkpt>
      <trkpt lat="41.9807850" lon="-6.1733100">
        <ele>804.8</ele>
        <time>2019-08-16T07:24:51Z</time>
      </trkpt>
      <trkpt lat="41.9807960" lon="-6.1733460">
        <ele>804.8</ele>
        <time>2019-08-16T07:24:52Z</time>
      </trkpt>
      <trkpt lat="41.9808090" lon="-6.1733790">
        <ele>804.8</ele>
        <time>2019-08-16T07:24:53Z</time>
      </trkpt>
      <trkpt lat="41.9808220" lon="-6.1734110">
        <ele>804.8</ele>
        <time>2019-08-16T07:24:54Z</time>
      </trkpt>
      <trkpt lat="41.9808370" lon="-6.1734450">
        <ele>804.8</ele>
        <time>2019-08-16T07:24:55Z</time>
      </trkpt>
      <trkpt lat="41.9808530" lon="-6.1734810">
        <ele>804.8</ele>
        <time>2019-08-16T07:24:56Z</time>
      </trkpt>
      <trkpt lat="41.9808680" lon="-6.1735190">
        <ele>804.8</ele>
        <time>2019-08-16T07:24:57Z</time>
      </trkpt>
      <trkpt lat="41.9808840" lon="-6.1735580">
        <ele>804.9</ele>
        <time>2019-08-16T07:24:58Z</time>
      </trkpt>
      <trkpt lat="41.9808980" lon="-6.1735980">
        <ele>804.9</ele>
        <time>2019-08-16T07:24:59Z</time>
      </trkpt>
      <trkpt lat="41.9809130" lon="-6.1736370">
        <ele>804.9</ele>
        <time>2019-08-16T07:25:00Z</time>
      </trkpt>
      <trkpt lat="41.9809260" lon="-6.1736740">
        <ele>804.9</ele>
        <time>2019-08-16T07:25:01Z</time>
      </trkpt>
      <trkpt lat="41.9809400" lon="-6.1737090">
        <ele>804.9</ele>
        <time>2019-08-16T07:25:02Z</time>
      </trkpt>
      <trkpt lat="41.9809550" lon="-6.1737450">
        <ele>804.9</ele>
        <time>2019-08-16T07:25:03Z</time>
      </trkpt>
      <trkpt lat="41.9809720" lon="-6.1737810">
        <ele>804.9</ele>
        <time>2019-08-16T07:25:04Z</time>
      </trkpt>
      <trkpt lat="41.9809900" lon="-6.1738180">
        <ele>804.9</ele>
        <time>2019-08-16T07:25:05Z</time>
      </trkpt>
      <trkpt lat="41.9810090" lon="-6.1738550">
        <ele>804.9</ele>
        <time>2019-08-16T07:25:06Z</time>
      </trkpt>
      <trkpt lat="41.9810280" lon="-6.1738930">
        <ele>804.9</ele>
        <time>2019-08-16T07:25:07Z</time>
      </trkpt>
      <trkpt lat="41.9810480" lon="-6.1739320">
        <ele>804.9</ele>
        <time>2019-08-16T07:25:08Z</time>
      </trkpt>
      <trkpt lat="41.9810670" lon="-6.1739720">
        <ele>804.9</ele>
        <time>2019-08-16T07:25:09Z</time>
      </trkpt>
      <trkpt lat="41.9810870" lon="-6.1740140">
        <ele>804.9</ele>
        <time>2019-08-16T07:25:10Z</time>
      </trkpt>
      <trkpt lat="41.9811070" lon="-6.1740560">
        <ele>804.9</ele>
        <time>2019-08-16T07:25:11Z</time>
      </trkpt>
      <trkpt lat="41.9811280" lon="-6.1740960">
        <ele>804.9</ele>
        <time>2019-08-16T07:25:12Z</time>
      </trkpt>
      <trkpt lat="41.9811480" lon="-6.1741330">
        <ele>804.9</ele>
        <time>2019-08-16T07:25:13Z</time>
      </trkpt>
      <trkpt lat="41.9811700" lon="-6.1741700">
        <ele>804.9</ele>
        <time>2019-08-16T07:25:14Z</time>
      </trkpt>
      <trkpt lat="41.9811940" lon="-6.1742050">
        <ele>804.9</ele>
        <time>2019-08-16T07:25:15Z</time>
      </trkpt>
      <trkpt lat="41.9812190" lon="-6.1742410">
        <ele>804.9</ele>
        <time>2019-08-16T07:25:16Z</time>
      </trkpt>
      <trkpt lat="41.9812430" lon="-6.1742790">
        <ele>804.9</ele>
        <time>2019-08-16T07:25:17Z</time>
      </trkpt>
      <trkpt lat="41.9812660" lon="-6.1743180">
        <ele>804.9</ele>
        <time>2019-08-16T07:25:18Z</time>
      </trkpt>
      <trkpt lat="41.9812890" lon="-6.1743600">
        <ele>804.9</ele>
        <time>2019-08-16T07:25:19Z</time>
      </trkpt>
      <trkpt lat="41.9813120" lon="-6.1744030">
        <ele>804.9</ele>
        <time>2019-08-16T07:25:20Z</time>
      </trkpt>
      <trkpt lat="41.9813360" lon="-6.1744480">
        <ele>804.9</ele>
        <time>2019-08-16T07:25:21Z</time>
      </trkpt>
      <trkpt lat="41.9813600" lon="-6.1744950">
        <ele>804.9</ele>
        <time>2019-08-16T07:25:22Z</time>
      </trkpt>
      <trkpt lat="41.9813850" lon="-6.1745420">
        <ele>804.9</ele>
        <time>2019-08-16T07:25:23Z</time>
      </trkpt>
      <trkpt lat="41.9814090" lon="-6.1745900">
        <ele>804.9</ele>
        <time>2019-08-16T07:25:24Z</time>
      </trkpt>
      <trkpt lat="41.9814330" lon="-6.1746380">
        <ele>804.8</ele>
        <time>2019-08-16T07:25:25Z</time>
      </trkpt>
      <trkpt lat="41.9814580" lon="-6.1746850">
        <ele>804.8</ele>
        <time>2019-08-16T07:25:26Z</time>
      </trkpt>
      <trkpt lat="41.9814820" lon="-6.1747300">
        <ele>804.8</ele>
        <time>2019-08-16T07:25:27Z</time>
      </trkpt>
      <trkpt lat="41.9815070" lon="-6.1747750">
        <ele>804.7</ele>
        <time>2019-08-16T07:25:28Z</time>
      </trkpt>
      <trkpt lat="41.9815300" lon="-6.1748200">
        <ele>804.7</ele>
        <time>2019-08-16T07:25:29Z</time>
      </trkpt>
      <trkpt lat="41.9815530" lon="-6.1748650">
        <ele>804.5</ele>
        <time>2019-08-16T07:25:30Z</time>
      </trkpt>
      <trkpt lat="41.9815740" lon="-6.1749120">
        <ele>804.4</ele>
        <time>2019-08-16T07:25:31Z</time>
      </trkpt>
      <trkpt lat="41.9815950" lon="-6.1749580">
        <ele>804.2</ele>
        <time>2019-08-16T07:25:32Z</time>
      </trkpt>
      <trkpt lat="41.9816150" lon="-6.1750030">
        <ele>804.0</ele>
        <time>2019-08-16T07:25:33Z</time>
      </trkpt>
      <trkpt lat="41.9816350" lon="-6.1750480">
        <ele>803.8</ele>
        <time>2019-08-16T07:25:34Z</time>
      </trkpt>
      <trkpt lat="41.9816570" lon="-6.1750890">
        <ele>803.6</ele>
        <time>2019-08-16T07:25:35Z</time>
      </trkpt>
      <trkpt lat="41.9816790" lon="-6.1751240">
        <ele>803.5</ele>
        <time>2019-08-16T07:25:36Z</time>
      </trkpt>
      <trkpt lat="41.9817030" lon="-6.1751530">
        <ele>803.4</ele>
        <time>2019-08-16T07:25:37Z</time>
      </trkpt>
      <trkpt lat="41.9817270" lon="-6.1751800">
        <ele>803.4</ele>
        <time>2019-08-16T07:25:38Z</time>
      </trkpt>
      <trkpt lat="41.9817540" lon="-6.1752110">
        <ele>803.3</ele>
        <time>2019-08-16T07:25:39Z</time>
      </trkpt>
      <trkpt lat="41.9817840" lon="-6.1752460">
        <ele>803.3</ele>
        <time>2019-08-16T07:25:40Z</time>
      </trkpt>
      <trkpt lat="41.9818160" lon="-6.1752840">
        <ele>803.3</ele>
        <time>2019-08-16T07:25:41Z</time>
      </trkpt>
      <trkpt lat="41.9818500" lon="-6.1753240">
        <ele>803.3</ele>
        <time>2019-08-16T07:25:42Z</time>
      </trkpt>
      <trkpt lat="41.9818840" lon="-6.1753630">
        <ele>803.3</ele>
        <time>2019-08-16T07:25:43Z</time>
      </trkpt>
      <trkpt lat="41.9819150" lon="-6.1754060">
        <ele>803.3</ele>
        <time>2019-08-16T07:25:44Z</time>
      </trkpt>
      <trkpt lat="41.9819450" lon="-6.1754480">
        <ele>803.3</ele>
        <time>2019-08-16T07:25:45Z</time>
      </trkpt>
      <trkpt lat="41.9819760" lon="-6.1754900">
        <ele>803.3</ele>
        <time>2019-08-16T07:25:46Z</time>
      </trkpt>
      <trkpt lat="41.9820040" lon="-6.1755310">
        <ele>803.3</ele>
        <time>2019-08-16T07:25:47Z</time>
      </trkpt>
      <trkpt lat="41.9820310" lon="-6.1755730">
        <ele>803.3</ele>
        <time>2019-08-16T07:25:48Z</time>
      </trkpt>
      <trkpt lat="41.9820570" lon="-6.1756130">
        <ele>803.3</ele>
        <time>2019-08-16T07:25:49Z</time>
      </trkpt>
      <trkpt lat="41.9820850" lon="-6.1756520">
        <ele>803.3</ele>
        <time>2019-08-16T07:25:50Z</time>
      </trkpt>
      <trkpt lat="41.9821130" lon="-6.1756900">
        <ele>803.3</ele>
        <time>2019-08-16T07:25:51Z</time>
      </trkpt>
      <trkpt lat="41.9821400" lon="-6.1757260">
        <ele>803.3</ele>
        <time>2019-08-16T07:25:52Z</time>
      </trkpt>
      <trkpt lat="41.9821680" lon="-6.1757600">
        <ele>803.3</ele>
        <time>2019-08-16T07:25:53Z</time>
      </trkpt>
      <trkpt lat="41.9821940" lon="-6.1757920">
        <ele>803.3</ele>
        <time>2019-08-16T07:25:54Z</time>
      </trkpt>
      <trkpt lat="41.9822220" lon="-6.1758200">
        <ele>803.3</ele>
        <time>2019-08-16T07:25:55Z</time>
      </trkpt>
      <trkpt lat="41.9822510" lon="-6.1758460">
        <ele>803.3</ele>
        <time>2019-08-16T07:25:56Z</time>
      </trkpt>
      <trkpt lat="41.9822850" lon="-6.1758710">
        <ele>803.3</ele>
        <time>2019-08-16T07:25:57Z</time>
      </trkpt>
      <trkpt lat="41.9823220" lon="-6.1758970">
        <ele>803.3</ele>
        <time>2019-08-16T07:25:58Z</time>
      </trkpt>
      <trkpt lat="41.9823590" lon="-6.1759220">
        <ele>803.3</ele>
        <time>2019-08-16T07:25:59Z</time>
      </trkpt>
      <trkpt lat="41.9823950" lon="-6.1759470">
        <ele>803.3</ele>
        <time>2019-08-16T07:26:00Z</time>
      </trkpt>
      <trkpt lat="41.9824300" lon="-6.1759750">
        <ele>803.3</ele>
        <time>2019-08-16T07:26:01Z</time>
      </trkpt>
      <trkpt lat="41.9824580" lon="-6.1760040">
        <ele>803.3</ele>
        <time>2019-08-16T07:26:02Z</time>
      </trkpt>
      <trkpt lat="41.9824860" lon="-6.1760310">
        <ele>803.3</ele>
        <time>2019-08-16T07:26:03Z</time>
      </trkpt>
      <trkpt lat="41.9825130" lon="-6.1760610">
        <ele>803.3</ele>
        <time>2019-08-16T07:26:04Z</time>
      </trkpt>
      <trkpt lat="41.9825400" lon="-6.1760920">
        <ele>803.3</ele>
        <time>2019-08-16T07:26:05Z</time>
      </trkpt>
      <trkpt lat="41.9825680" lon="-6.1761250">
        <ele>803.3</ele>
        <time>2019-08-16T07:26:06Z</time>
      </trkpt>
      <trkpt lat="41.9825970" lon="-6.1761580">
        <ele>803.3</ele>
        <time>2019-08-16T07:26:07Z</time>
      </trkpt>
      <trkpt lat="41.9826270" lon="-6.1761870">
        <ele>803.3</ele>
        <time>2019-08-16T07:26:08Z</time>
      </trkpt>
      <trkpt lat="41.9826560" lon="-6.1762150">
        <ele>803.3</ele>
        <time>2019-08-16T07:26:09Z</time>
      </trkpt>
      <trkpt lat="41.9826850" lon="-6.1762430">
        <ele>803.3</ele>
        <time>2019-08-16T07:26:10Z</time>
      </trkpt>
      <trkpt lat="41.9827130" lon="-6.1762750">
        <ele>803.3</ele>
        <time>2019-08-16T07:26:11Z</time>
      </trkpt>
      <trkpt lat="41.9827400" lon="-6.1763100">
        <ele>803.3</ele>
        <time>2019-08-16T07:26:12Z</time>
      </trkpt>
      <trkpt lat="41.9827680" lon="-6.1763480">
        <ele>803.3</ele>
        <time>2019-08-16T07:26:13Z</time>
      </trkpt>
      <trkpt lat="41.9827980" lon="-6.1763860">
        <ele>803.3</ele>
        <time>2019-08-16T07:26:14Z</time>
      </trkpt>
      <trkpt lat="41.9828280" lon="-6.1764270">
        <ele>803.3</ele>
        <time>2019-08-16T07:26:15Z</time>
      </trkpt>
      <trkpt lat="41.9828590" lon="-6.1764690">
        <ele>803.3</ele>
        <time>2019-08-16T07:26:16Z</time>
      </trkpt>
      <trkpt lat="41.9828890" lon="-6.1765140">
        <ele>803.3</ele>
        <time>2019-08-16T07:26:17Z</time>
      </trkpt>
      <trkpt lat="41.9829180" lon="-6.1765600">
        <ele>803.3</ele>
        <time>2019-08-16T07:26:18Z</time>
      </trkpt>
      <trkpt lat="41.9829430" lon="-6.1766060">
        <ele>803.3</ele>
        <time>2019-08-16T07:26:19Z</time>
      </trkpt>
      <trkpt lat="41.9829680" lon="-6.1766530">
        <ele>803.3</ele>
        <time>2019-08-16T07:26:20Z</time>
      </trkpt>
      <trkpt lat="41.9829940" lon="-6.1766970">
        <ele>803.3</ele>
        <time>2019-08-16T07:26:21Z</time>
      </trkpt>
      <trkpt lat="41.9830190" lon="-6.1767380">
        <ele>803.3</ele>
        <time>2019-08-16T07:26:22Z</time>
      </trkpt>
      <trkpt lat="41.9830450" lon="-6.1767780">
        <ele>803.3</ele>
        <time>2019-08-16T07:26:23Z</time>
      </trkpt>
      <trkpt lat="41.9830710" lon="-6.1768180">
        <ele>803.3</ele>
        <time>2019-08-16T07:26:24Z</time>
      </trkpt>
      <trkpt lat="41.9830980" lon="-6.1768590">
        <ele>803.3</ele>
        <time>2019-08-16T07:26:25Z</time>
      </trkpt>
      <trkpt lat="41.9831240" lon="-6.1769000">
        <ele>803.3</ele>
        <time>2019-08-16T07:26:26Z</time>
      </trkpt>
      <trkpt lat="41.9831490" lon="-6.1769390">
        <ele>803.3</ele>
        <time>2019-08-16T07:26:27Z</time>
      </trkpt>
      <trkpt lat="41.9831720" lon="-6.1769770">
        <ele>803.3</ele>
        <time>2019-08-16T07:26:28Z</time>
      </trkpt>
      <trkpt lat="41.9831930" lon="-6.1770140">
        <ele>803.3</ele>
        <time>2019-08-16T07:26:29Z</time>
      </trkpt>
      <trkpt lat="41.9832170" lon="-6.1770510">
        <ele>803.3</ele>
        <time>2019-08-16T07:26:30Z</time>
      </trkpt>
      <trkpt lat="41.9832450" lon="-6.1770880">
        <ele>803.3</ele>
        <time>2019-08-16T07:26:31Z</time>
      </trkpt>
      <trkpt lat="41.9832740" lon="-6.1771260">
        <ele>803.3</ele>
        <time>2019-08-16T07:26:32Z</time>
      </trkpt>
      <trkpt lat="41.9833040" lon="-6.1771670">
        <ele>803.3</ele>
        <time>2019-08-16T07:26:33Z</time>
      </trkpt>
      <trkpt lat="41.9833330" lon="-6.1772070">
        <ele>803.3</ele>
        <time>2019-08-16T07:26:34Z</time>
      </trkpt>
      <trkpt lat="41.9833630" lon="-6.1772450">
        <ele>803.3</ele>
        <time>2019-08-16T07:26:35Z</time>
      </trkpt>
      <trkpt lat="41.9833910" lon="-6.1772840">
        <ele>803.3</ele>
        <time>2019-08-16T07:26:36Z</time>
      </trkpt>
      <trkpt lat="41.9834170" lon="-6.1773240">
        <ele>803.3</ele>
        <time>2019-08-16T07:26:37Z</time>
      </trkpt>
      <trkpt lat="41.9834430" lon="-6.1773620">
        <ele>803.3</ele>
        <time>2019-08-16T07:26:38Z</time>
      </trkpt>
      <trkpt lat="41.9834680" lon="-6.1773970">
        <ele>803.3</ele>
        <time>2019-08-16T07:26:39Z</time>
      </trkpt>
      <trkpt lat="41.9834930" lon="-6.1774330">
        <ele>803.3</ele>
        <time>2019-08-16T07:26:40Z</time>
      </trkpt>
      <trkpt lat="41.9835170" lon="-6.1774730">
        <ele>803.3</ele>
        <time>2019-08-16T07:26:41Z</time>
      </trkpt>
      <trkpt lat="41.9835430" lon="-6.1775130">
        <ele>803.3</ele>
        <time>2019-08-16T07:26:42Z</time>
      </trkpt>
      <trkpt lat="41.9835720" lon="-6.1775550">
        <ele>803.3</ele>
        <time>2019-08-16T07:26:43Z</time>
      </trkpt>
      <trkpt lat="41.9836010" lon="-6.1775970">
        <ele>803.3</ele>
        <time>2019-08-16T07:26:44Z</time>
      </trkpt>
      <trkpt lat="41.9836330" lon="-6.1776360">
        <ele>803.3</ele>
        <time>2019-08-16T07:26:45Z</time>
      </trkpt>
      <trkpt lat="41.9836660" lon="-6.1776750">
        <ele>803.3</ele>
        <time>2019-08-16T07:26:46Z</time>
      </trkpt>
      <trkpt lat="41.9836990" lon="-6.1777190">
        <ele>803.3</ele>
        <time>2019-08-16T07:26:47Z</time>
      </trkpt>
      <trkpt lat="41.9837320" lon="-6.1777670">
        <ele>803.3</ele>
        <time>2019-08-16T07:26:48Z</time>
      </trkpt>
      <trkpt lat="41.9837610" lon="-6.1778140">
        <ele>803.3</ele>
        <time>2019-08-16T07:26:49Z</time>
      </trkpt>
      <trkpt lat="41.9837920" lon="-6.1778580">
        <ele>803.3</ele>
        <time>2019-08-16T07:26:50Z</time>
      </trkpt>
      <trkpt lat="41.9838190" lon="-6.1779000">
        <ele>803.3</ele>
        <time>2019-08-16T07:26:51Z</time>
      </trkpt>
      <trkpt lat="41.9838430" lon="-6.1779430">
        <ele>803.3</ele>
        <time>2019-08-16T07:26:52Z</time>
      </trkpt>
      <trkpt lat="41.9838670" lon="-6.1779840">
        <ele>803.3</ele>
        <time>2019-08-16T07:26:53Z</time>
      </trkpt>
      <trkpt lat="41.9838910" lon="-6.1780240">
        <ele>803.3</ele>
        <time>2019-08-16T07:26:54Z</time>
      </trkpt>
      <trkpt lat="41.9839150" lon="-6.1780640">
        <ele>803.3</ele>
        <time>2019-08-16T07:26:55Z</time>
      </trkpt>
      <trkpt lat="41.9839420" lon="-6.1781040">
        <ele>803.3</ele>
        <time>2019-08-16T07:26:56Z</time>
      </trkpt>
      <trkpt lat="41.9839690" lon="-6.1781440">
        <ele>803.3</ele>
        <time>2019-08-16T07:26:57Z</time>
      </trkpt>
      <trkpt lat="41.9839950" lon="-6.1781830">
        <ele>803.3</ele>
        <time>2019-08-16T07:26:58Z</time>
      </trkpt>
      <trkpt lat="41.9840200" lon="-6.1782190">
        <ele>803.3</ele>
        <time>2019-08-16T07:26:59Z</time>
      </trkpt>
      <trkpt lat="41.9840430" lon="-6.1782540">
        <ele>803.3</ele>
        <time>2019-08-16T07:27:00Z</time>
      </trkpt>
      <trkpt lat="41.9840670" lon="-6.1782890">
        <ele>803.3</ele>
        <time>2019-08-16T07:27:01Z</time>
      </trkpt>
      <trkpt lat="41.9840910" lon="-6.1783260">
        <ele>803.3</ele>
        <time>2019-08-16T07:27:02Z</time>
      </trkpt>
      <trkpt lat="41.9841160" lon="-6.1783620">
        <ele>803.3</ele>
        <time>2019-08-16T07:27:03Z</time>
      </trkpt>
      <trkpt lat="41.9841410" lon="-6.1783980">
        <ele>803.3</ele>
        <time>2019-08-16T07:27:04Z</time>
      </trkpt>
      <trkpt lat="41.9841650" lon="-6.1784310">
        <ele>803.3</ele>
        <time>2019-08-16T07:27:05Z</time>
      </trkpt>
      <trkpt lat="41.9841880" lon="-6.1784640">
        <ele>803.3</ele>
        <time>2019-08-16T07:27:06Z</time>
      </trkpt>
      <trkpt lat="41.9842120" lon="-6.1784990">
        <ele>803.3</ele>
        <time>2019-08-16T07:27:07Z</time>
      </trkpt>
      <trkpt lat="41.9842360" lon="-6.1785350">
        <ele>803.3</ele>
        <time>2019-08-16T07:27:08Z</time>
      </trkpt>
      <trkpt lat="41.9842610" lon="-6.1785720">
        <ele>803.3</ele>
        <time>2019-08-16T07:27:09Z</time>
      </trkpt>
      <trkpt lat="41.9842880" lon="-6.1786070">
        <ele>803.3</ele>
        <time>2019-08-16T07:27:10Z</time>
      </trkpt>
      <trkpt lat="41.9843150" lon="-6.1786410">
        <ele>803.3</ele>
        <time>2019-08-16T07:27:11Z</time>
      </trkpt>
      <trkpt lat="41.9843420" lon="-6.1786760">
        <ele>803.3</ele>
        <time>2019-08-16T07:27:12Z</time>
      </trkpt>
      <trkpt lat="41.9843680" lon="-6.1787080">
        <ele>803.3</ele>
        <time>2019-08-16T07:27:13Z</time>
      </trkpt>
      <trkpt lat="41.9843920" lon="-6.1787370">
        <ele>803.4</ele>
        <time>2019-08-16T07:27:14Z</time>
      </trkpt>
      <trkpt lat="41.9844150" lon="-6.1787660">
        <ele>803.4</ele>
        <time>2019-08-16T07:27:15Z</time>
      </trkpt>
      <trkpt lat="41.9844380" lon="-6.1787940">
        <ele>803.4</ele>
        <time>2019-08-16T07:27:16Z</time>
      </trkpt>
      <trkpt lat="41.9844610" lon="-6.1788220">
        <ele>803.5</ele>
        <time>2019-08-16T07:27:17Z</time>
      </trkpt>
      <trkpt lat="41.9844820" lon="-6.1788490">
        <ele>803.5</ele>
        <time>2019-08-16T07:27:18Z</time>
      </trkpt>
      <trkpt lat="41.9845040" lon="-6.1788760">
        <ele>803.6</ele>
        <time>2019-08-16T07:27:19Z</time>
      </trkpt>
      <trkpt lat="41.9845260" lon="-6.1789040">
        <ele>803.7</ele>
        <time>2019-08-16T07:27:20Z</time>
      </trkpt>
      <trkpt lat="41.9845480" lon="-6.1789340">
        <ele>803.8</ele>
        <time>2019-08-16T07:27:21Z</time>
      </trkpt>
      <trkpt lat="41.9845690" lon="-6.1789660">
        <ele>804.0</ele>
        <time>2019-08-16T07:27:22Z</time>
      </trkpt>
      <trkpt lat="41.9845880" lon="-6.1789990">
        <ele>804.1</ele>
        <time>2019-08-16T07:27:23Z</time>
      </trkpt>
      <trkpt lat="41.9846080" lon="-6.1790330">
        <ele>804.3</ele>
        <time>2019-08-16T07:27:24Z</time>
      </trkpt>
      <trkpt lat="41.9846280" lon="-6.1790650">
        <ele>804.4</ele>
        <time>2019-08-16T07:27:25Z</time>
      </trkpt>
      <trkpt lat="41.9846480" lon="-6.1790990">
        <ele>804.5</ele>
        <time>2019-08-16T07:27:26Z</time>
      </trkpt>
      <trkpt lat="41.9846680" lon="-6.1791350">
        <ele>804.6</ele>
        <time>2019-08-16T07:27:27Z</time>
      </trkpt>
      <trkpt lat="41.9846870" lon="-6.1791720">
        <ele>804.7</ele>
        <time>2019-08-16T07:27:28Z</time>
      </trkpt>
      <trkpt lat="41.9847070" lon="-6.1792080">
        <ele>804.8</ele>
        <time>2019-08-16T07:27:29Z</time>
      </trkpt>
      <trkpt lat="41.9847270" lon="-6.1792400">
        <ele>804.9</ele>
        <time>2019-08-16T07:27:30Z</time>
      </trkpt>
      <trkpt lat="41.9847460" lon="-6.1792740">
        <ele>804.9</ele>
        <time>2019-08-16T07:27:31Z</time>
      </trkpt>
      <trkpt lat="41.9847680" lon="-6.1793090">
        <ele>805.0</ele>
        <time>2019-08-16T07:27:32Z</time>
      </trkpt>
      <trkpt lat="41.9847890" lon="-6.1793440">
        <ele>805.0</ele>
        <time>2019-08-16T07:27:33Z</time>
      </trkpt>
      <trkpt lat="41.9848130" lon="-6.1793790">
        <ele>805.1</ele>
        <time>2019-08-16T07:27:34Z</time>
      </trkpt>
      <trkpt lat="41.9848370" lon="-6.1794150">
        <ele>805.1</ele>
        <time>2019-08-16T07:27:35Z</time>
      </trkpt>
      <trkpt lat="41.9848600" lon="-6.1794520">
        <ele>805.1</ele>
        <time>2019-08-16T07:27:36Z</time>
      </trkpt>
      <trkpt lat="41.9848830" lon="-6.1794920">
        <ele>805.1</ele>
        <time>2019-08-16T07:27:37Z</time>
      </trkpt>
      <trkpt lat="41.9849050" lon="-6.1795350">
        <ele>805.1</ele>
        <time>2019-08-16T07:27:38Z</time>
      </trkpt>
      <trkpt lat="41.9849240" lon="-6.1795800">
        <ele>805.1</ele>
        <time>2019-08-16T07:27:39Z</time>
      </trkpt>
      <trkpt lat="41.9849420" lon="-6.1796230">
        <ele>805.1</ele>
        <time>2019-08-16T07:27:40Z</time>
      </trkpt>
      <trkpt lat="41.9849590" lon="-6.1796640">
        <ele>805.1</ele>
        <time>2019-08-16T07:27:41Z</time>
      </trkpt>
      <trkpt lat="41.9849760" lon="-6.1797010">
        <ele>805.1</ele>
        <time>2019-08-16T07:27:42Z</time>
      </trkpt>
      <trkpt lat="41.9849940" lon="-6.1797370">
        <ele>805.1</ele>
        <time>2019-08-16T07:27:43Z</time>
      </trkpt>
      <trkpt lat="41.9850130" lon="-6.1797720">
        <ele>805.1</ele>
        <time>2019-08-16T07:27:44Z</time>
      </trkpt>
      <trkpt lat="41.9850330" lon="-6.1798090">
        <ele>805.1</ele>
        <time>2019-08-16T07:27:45Z</time>
      </trkpt>
      <trkpt lat="41.9850520" lon="-6.1798470">
        <ele>805.1</ele>
        <time>2019-08-16T07:27:46Z</time>
      </trkpt>
      <trkpt lat="41.9850730" lon="-6.1798870">
        <ele>805.1</ele>
        <time>2019-08-16T07:27:47Z</time>
      </trkpt>
      <trkpt lat="41.9850920" lon="-6.1799270">
        <ele>805.1</ele>
        <time>2019-08-16T07:27:48Z</time>
      </trkpt>
      <trkpt lat="41.9851110" lon="-6.1799680">
        <ele>805.1</ele>
        <time>2019-08-16T07:27:49Z</time>
      </trkpt>
      <trkpt lat="41.9851270" lon="-6.1800110">
        <ele>805.1</ele>
        <time>2019-08-16T07:27:50Z</time>
      </trkpt>
      <trkpt lat="41.9851440" lon="-6.1800560">
        <ele>805.2</ele>
        <time>2019-08-16T07:27:51Z</time>
      </trkpt>
      <trkpt lat="41.9851600" lon="-6.1801000">
        <ele>805.2</ele>
        <time>2019-08-16T07:27:52Z</time>
      </trkpt>
      <trkpt lat="41.9851760" lon="-6.1801450">
        <ele>805.2</ele>
        <time>2019-08-16T07:27:53Z</time>
      </trkpt>
      <trkpt lat="41.9851890" lon="-6.1801880">
        <ele>805.2</ele>
        <time>2019-08-16T07:27:54Z</time>
      </trkpt>
      <trkpt lat="41.9852010" lon="-6.1802310">
        <ele>805.2</ele>
        <time>2019-08-16T07:27:55Z</time>
      </trkpt>
      <trkpt lat="41.9852120" lon="-6.1802750">
        <ele>805.2</ele>
        <time>2019-08-16T07:27:56Z</time>
      </trkpt>
      <trkpt lat="41.9852240" lon="-6.1803220">
        <ele>805.2</ele>
        <time>2019-08-16T07:27:57Z</time>
      </trkpt>
      <trkpt lat="41.9852360" lon="-6.1803710">
        <ele>805.3</ele>
        <time>2019-08-16T07:27:58Z</time>
      </trkpt>
      <trkpt lat="41.9852480" lon="-6.1804170">
        <ele>805.3</ele>
        <time>2019-08-16T07:27:59Z</time>
      </trkpt>
      <trkpt lat="41.9852570" lon="-6.1804540">
        <ele>805.4</ele>
        <time>2019-08-16T07:28:00Z</time>
      </trkpt>
      <trkpt lat="41.9852750" lon="-6.1805130">
        <ele>805.5</ele>
        <time>2019-08-16T07:28:02Z</time>
      </trkpt>
      <trkpt lat="41.9852870" lon="-6.1805490">
        <ele>805.6</ele>
        <time>2019-08-16T07:28:03Z</time>
      </trkpt>
      <trkpt lat="41.9853000" lon="-6.1805870">
        <ele>805.7</ele>
        <time>2019-08-16T07:28:04Z</time>
      </trkpt>
      <trkpt lat="41.9853140" lon="-6.1806290">
        <ele>805.8</ele>
        <time>2019-08-16T07:28:05Z</time>
      </trkpt>
      <trkpt lat="41.9853270" lon="-6.1806740">
        <ele>805.9</ele>
        <time>2019-08-16T07:28:06Z</time>
      </trkpt>
      <trkpt lat="41.9853390" lon="-6.1807200">
        <ele>806.1</ele>
        <time>2019-08-16T07:28:07Z</time>
      </trkpt>
      <trkpt lat="41.9853510" lon="-6.1807660">
        <ele>806.2</ele>
        <time>2019-08-16T07:28:08Z</time>
      </trkpt>
      <trkpt lat="41.9853650" lon="-6.1808120">
        <ele>806.3</ele>
        <time>2019-08-16T07:28:09Z</time>
      </trkpt>
      <trkpt lat="41.9853810" lon="-6.1808560">
        <ele>806.4</ele>
        <time>2019-08-16T07:28:10Z</time>
      </trkpt>
      <trkpt lat="41.9853980" lon="-6.1808950">
        <ele>806.5</ele>
        <time>2019-08-16T07:28:11Z</time>
      </trkpt>
      <trkpt lat="41.9854140" lon="-6.1809350">
        <ele>806.6</ele>
        <time>2019-08-16T07:28:12Z</time>
      </trkpt>
      <trkpt lat="41.9854330" lon="-6.1809760">
        <ele>806.6</ele>
        <time>2019-08-16T07:28:13Z</time>
      </trkpt>
      <trkpt lat="41.9854550" lon="-6.1810140">
        <ele>806.7</ele>
        <time>2019-08-16T07:28:14Z</time>
      </trkpt>
      <trkpt lat="41.9854760" lon="-6.1810560">
        <ele>806.7</ele>
        <time>2019-08-16T07:28:15Z</time>
      </trkpt>
      <trkpt lat="41.9854980" lon="-6.1810980">
        <ele>806.8</ele>
        <time>2019-08-16T07:28:16Z</time>
      </trkpt>
      <trkpt lat="41.9855190" lon="-6.1811390">
        <ele>806.9</ele>
        <time>2019-08-16T07:28:17Z</time>
      </trkpt>
      <trkpt lat="41.9855400" lon="-6.1811800">
        <ele>807.0</ele>
        <time>2019-08-16T07:28:18Z</time>
      </trkpt>
      <trkpt lat="41.9855590" lon="-6.1812210">
        <ele>807.1</ele>
        <time>2019-08-16T07:28:19Z</time>
      </trkpt>
      <trkpt lat="41.9855790" lon="-6.1812600">
        <ele>807.2</ele>
        <time>2019-08-16T07:28:20Z</time>
      </trkpt>
      <trkpt lat="41.9855990" lon="-6.1813000">
        <ele>807.4</ele>
        <time>2019-08-16T07:28:21Z</time>
      </trkpt>
      <trkpt lat="41.9856200" lon="-6.1813410">
        <ele>807.5</ele>
        <time>2019-08-16T07:28:22Z</time>
      </trkpt>
      <trkpt lat="41.9856410" lon="-6.1813840">
        <ele>807.6</ele>
        <time>2019-08-16T07:28:23Z</time>
      </trkpt>
      <trkpt lat="41.9856610" lon="-6.1814270">
        <ele>807.8</ele>
        <time>2019-08-16T07:28:24Z</time>
      </trkpt>
      <trkpt lat="41.9856830" lon="-6.1814680">
        <ele>807.9</ele>
        <time>2019-08-16T07:28:25Z</time>
      </trkpt>
      <trkpt lat="41.9857060" lon="-6.1815100">
        <ele>808.0</ele>
        <time>2019-08-16T07:28:26Z</time>
      </trkpt>
      <trkpt lat="41.9857280" lon="-6.1815540">
        <ele>808.1</ele>
        <time>2019-08-16T07:28:27Z</time>
      </trkpt>
      <trkpt lat="41.9857490" lon="-6.1815970">
        <ele>808.2</ele>
        <time>2019-08-16T07:28:28Z</time>
      </trkpt>
      <trkpt lat="41.9857730" lon="-6.1816410">
        <ele>808.2</ele>
        <time>2019-08-16T07:28:29Z</time>
      </trkpt>
      <trkpt lat="41.9857960" lon="-6.1816850">
        <ele>808.2</ele>
        <time>2019-08-16T07:28:30Z</time>
      </trkpt>
      <trkpt lat="41.9858190" lon="-6.1817310">
        <ele>808.3</ele>
        <time>2019-08-16T07:28:31Z</time>
      </trkpt>
      <trkpt lat="41.9858400" lon="-6.1817790">
        <ele>808.3</ele>
        <time>2019-08-16T07:28:32Z</time>
      </trkpt>
      <trkpt lat="41.9858600" lon="-6.1818270">
        <ele>808.3</ele>
        <time>2019-08-16T07:28:33Z</time>
      </trkpt>
      <trkpt lat="41.9858770" lon="-6.1818720">
        <ele>808.3</ele>
        <time>2019-08-16T07:28:34Z</time>
      </trkpt>
      <trkpt lat="41.9858940" lon="-6.1819170">
        <ele>808.3</ele>
        <time>2019-08-16T07:28:35Z</time>
      </trkpt>
      <trkpt lat="41.9859100" lon="-6.1819640">
        <ele>808.3</ele>
        <time>2019-08-16T07:28:36Z</time>
      </trkpt>
      <trkpt lat="41.9859260" lon="-6.1820110">
        <ele>808.3</ele>
        <time>2019-08-16T07:28:37Z</time>
      </trkpt>
      <trkpt lat="41.9859450" lon="-6.1820560">
        <ele>808.3</ele>
        <time>2019-08-16T07:28:38Z</time>
      </trkpt>
      <trkpt lat="41.9859650" lon="-6.1821000">
        <ele>808.3</ele>
        <time>2019-08-16T07:28:39Z</time>
      </trkpt>
      <trkpt lat="41.9859860" lon="-6.1821430">
        <ele>808.3</ele>
        <time>2019-08-16T07:28:40Z</time>
      </trkpt>
      <trkpt lat="41.9860100" lon="-6.1821860">
        <ele>808.3</ele>
        <time>2019-08-16T07:28:41Z</time>
      </trkpt>
      <trkpt lat="41.9860340" lon="-6.1822290">
        <ele>808.3</ele>
        <time>2019-08-16T07:28:42Z</time>
      </trkpt>
      <trkpt lat="41.9860560" lon="-6.1822740">
        <ele>808.3</ele>
        <time>2019-08-16T07:28:43Z</time>
      </trkpt>
      <trkpt lat="41.9860780" lon="-6.1823180">
        <ele>808.3</ele>
        <time>2019-08-16T07:28:44Z</time>
      </trkpt>
      <trkpt lat="41.9861010" lon="-6.1823630">
        <ele>808.3</ele>
        <time>2019-08-16T07:28:45Z</time>
      </trkpt>
      <trkpt lat="41.9861220" lon="-6.1824070">
        <ele>808.3</ele>
        <time>2019-08-16T07:28:46Z</time>
      </trkpt>
      <trkpt lat="41.9861430" lon="-6.1824500">
        <ele>808.4</ele>
        <time>2019-08-16T07:28:47Z</time>
      </trkpt>
      <trkpt lat="41.9861630" lon="-6.1824920">
        <ele>808.4</ele>
        <time>2019-08-16T07:28:48Z</time>
      </trkpt>
      <trkpt lat="41.9861840" lon="-6.1825350">
        <ele>808.4</ele>
        <time>2019-08-16T07:28:49Z</time>
      </trkpt>
      <trkpt lat="41.9862050" lon="-6.1825770">
        <ele>808.5</ele>
        <time>2019-08-16T07:28:50Z</time>
      </trkpt>
      <trkpt lat="41.9862250" lon="-6.1826190">
        <ele>808.5</ele>
        <time>2019-08-16T07:28:51Z</time>
      </trkpt>
      <trkpt lat="41.9862450" lon="-6.1826630">
        <ele>808.6</ele>
        <time>2019-08-16T07:28:52Z</time>
      </trkpt>
      <trkpt lat="41.9862630" lon="-6.1827100">
        <ele>808.7</ele>
        <time>2019-08-16T07:28:53Z</time>
      </trkpt>
      <trkpt lat="41.9862810" lon="-6.1827560">
        <ele>808.9</ele>
        <time>2019-08-16T07:28:54Z</time>
      </trkpt>
      <trkpt lat="41.9863000" lon="-6.1828010">
        <ele>809.0</ele>
        <time>2019-08-16T07:28:55Z</time>
      </trkpt>
      <trkpt lat="41.9863190" lon="-6.1828460">
        <ele>809.2</ele>
        <time>2019-08-16T07:28:56Z</time>
      </trkpt>
      <trkpt lat="41.9863360" lon="-6.1828900">
        <ele>809.4</ele>
        <time>2019-08-16T07:28:57Z</time>
      </trkpt>
      <trkpt lat="41.9863500" lon="-6.1829370">
        <ele>809.5</ele>
        <time>2019-08-16T07:28:58Z</time>
      </trkpt>
      <trkpt lat="41.9863630" lon="-6.1829820">
        <ele>809.7</ele>
        <time>2019-08-16T07:28:59Z</time>
      </trkpt>
      <trkpt lat="41.9863770" lon="-6.1830230">
        <ele>809.8</ele>
        <time>2019-08-16T07:29:00Z</time>
      </trkpt>
      <trkpt lat="41.9863910" lon="-6.1830610">
        <ele>809.8</ele>
        <time>2019-08-16T07:29:01Z</time>
      </trkpt>
      <trkpt lat="41.9864040" lon="-6.1830990">
        <ele>809.9</ele>
        <time>2019-08-16T07:29:02Z</time>
      </trkpt>
      <trkpt lat="41.9864190" lon="-6.1831360">
        <ele>810.0</ele>
        <time>2019-08-16T07:29:03Z</time>
      </trkpt>
      <trkpt lat="41.9864330" lon="-6.1831740">
        <ele>810.0</ele>
        <time>2019-08-16T07:29:04Z</time>
      </trkpt>
      <trkpt lat="41.9864480" lon="-6.1832140">
        <ele>810.1</ele>
        <time>2019-08-16T07:29:05Z</time>
      </trkpt>
      <trkpt lat="41.9864630" lon="-6.1832540">
        <ele>810.1</ele>
        <time>2019-08-16T07:29:06Z</time>
      </trkpt>
      <trkpt lat="41.9864770" lon="-6.1832940">
        <ele>810.1</ele>
        <time>2019-08-16T07:29:07Z</time>
      </trkpt>
      <trkpt lat="41.9864910" lon="-6.1833320">
        <ele>810.1</ele>
        <time>2019-08-16T07:29:08Z</time>
      </trkpt>
      <trkpt lat="41.9865050" lon="-6.1833670">
        <ele>810.1</ele>
        <time>2019-08-16T07:29:09Z</time>
      </trkpt>
      <trkpt lat="41.9865190" lon="-6.1834030">
        <ele>810.1</ele>
        <time>2019-08-16T07:29:10Z</time>
      </trkpt>
      <trkpt lat="41.9865300" lon="-6.1834420">
        <ele>810.1</ele>
        <time>2019-08-16T07:29:11Z</time>
      </trkpt>
      <trkpt lat="41.9865400" lon="-6.1834850">
        <ele>810.1</ele>
        <time>2019-08-16T07:29:12Z</time>
      </trkpt>
      <trkpt lat="41.9865500" lon="-6.1835290">
        <ele>810.1</ele>
        <time>2019-08-16T07:29:13Z</time>
      </trkpt>
      <trkpt lat="41.9865620" lon="-6.1835750">
        <ele>810.1</ele>
        <time>2019-08-16T07:29:14Z</time>
      </trkpt>
      <trkpt lat="41.9865750" lon="-6.1836200">
        <ele>810.1</ele>
        <time>2019-08-16T07:29:15Z</time>
      </trkpt>
      <trkpt lat="41.9865870" lon="-6.1836640">
        <ele>810.1</ele>
        <time>2019-08-16T07:29:16Z</time>
      </trkpt>
      <trkpt lat="41.9866000" lon="-6.1837050">
        <ele>810.1</ele>
        <time>2019-08-16T07:29:17Z</time>
      </trkpt>
      <trkpt lat="41.9866130" lon="-6.1837450">
        <ele>810.1</ele>
        <time>2019-08-16T07:29:18Z</time>
      </trkpt>
      <trkpt lat="41.9866250" lon="-6.1837880">
        <ele>810.1</ele>
        <time>2019-08-16T07:29:19Z</time>
      </trkpt>
      <trkpt lat="41.9866360" lon="-6.1838290">
        <ele>810.1</ele>
        <time>2019-08-16T07:29:20Z</time>
      </trkpt>
      <trkpt lat="41.9866460" lon="-6.1838690">
        <ele>810.1</ele>
        <time>2019-08-16T07:29:21Z</time>
      </trkpt>
      <trkpt lat="41.9866570" lon="-6.1839100">
        <ele>810.1</ele>
        <time>2019-08-16T07:29:22Z</time>
      </trkpt>
      <trkpt lat="41.9866700" lon="-6.1839520">
        <ele>810.1</ele>
        <time>2019-08-16T07:29:23Z</time>
      </trkpt>
      <trkpt lat="41.9866840" lon="-6.1839950">
        <ele>810.1</ele>
        <time>2019-08-16T07:29:24Z</time>
      </trkpt>
      <trkpt lat="41.9867010" lon="-6.1840390">
        <ele>810.1</ele>
        <time>2019-08-16T07:29:25Z</time>
      </trkpt>
      <trkpt lat="41.9867190" lon="-6.1840830">
        <ele>810.1</ele>
        <time>2019-08-16T07:29:26Z</time>
      </trkpt>
      <trkpt lat="41.9867370" lon="-6.1841290">
        <ele>810.1</ele>
        <time>2019-08-16T07:29:27Z</time>
      </trkpt>
      <trkpt lat="41.9867540" lon="-6.1841770">
        <ele>810.1</ele>
        <time>2019-08-16T07:29:28Z</time>
      </trkpt>
      <trkpt lat="41.9867690" lon="-6.1842250">
        <ele>810.1</ele>
        <time>2019-08-16T07:29:29Z</time>
      </trkpt>
      <trkpt lat="41.9867840" lon="-6.1842700">
        <ele>810.1</ele>
        <time>2019-08-16T07:29:30Z</time>
      </trkpt>
      <trkpt lat="41.9867970" lon="-6.1843150">
        <ele>810.1</ele>
        <time>2019-08-16T07:29:31Z</time>
      </trkpt>
      <trkpt lat="41.9868100" lon="-6.1843600">
        <ele>810.1</ele>
        <time>2019-08-16T07:29:32Z</time>
      </trkpt>
      <trkpt lat="41.9868240" lon="-6.1844070">
        <ele>810.1</ele>
        <time>2019-08-16T07:29:33Z</time>
      </trkpt>
      <trkpt lat="41.9868390" lon="-6.1844520">
        <ele>810.1</ele>
        <time>2019-08-16T07:29:34Z</time>
      </trkpt>
      <trkpt lat="41.9868560" lon="-6.1844940">
        <ele>810.1</ele>
        <time>2019-08-16T07:29:35Z</time>
      </trkpt>
      <trkpt lat="41.9868760" lon="-6.1845370">
        <ele>810.1</ele>
        <time>2019-08-16T07:29:36Z</time>
      </trkpt>
      <trkpt lat="41.9868940" lon="-6.1845810">
        <ele>810.1</ele>
        <time>2019-08-16T07:29:37Z</time>
      </trkpt>
      <trkpt lat="41.9869080" lon="-6.1846250">
        <ele>810.1</ele>
        <time>2019-08-16T07:29:38Z</time>
      </trkpt>
      <trkpt lat="41.9869200" lon="-6.1846680">
        <ele>810.2</ele>
        <time>2019-08-16T07:29:39Z</time>
      </trkpt>
      <trkpt lat="41.9869290" lon="-6.1847100">
        <ele>810.2</ele>
        <time>2019-08-16T07:29:40Z</time>
      </trkpt>
      <trkpt lat="41.9869370" lon="-6.1847530">
        <ele>810.2</ele>
        <time>2019-08-16T07:29:41Z</time>
      </trkpt>
      <trkpt lat="41.9869430" lon="-6.1847960">
        <ele>810.2</ele>
        <time>2019-08-16T07:29:42Z</time>
      </trkpt>
      <trkpt lat="41.9869490" lon="-6.1848390">
        <ele>810.2</ele>
        <time>2019-08-16T07:29:43Z</time>
      </trkpt>
      <trkpt lat="41.9869540" lon="-6.1848830">
        <ele>810.2</ele>
        <time>2019-08-16T07:29:44Z</time>
      </trkpt>
      <trkpt lat="41.9869570" lon="-6.1849250">
        <ele>810.3</ele>
        <time>2019-08-16T07:29:45Z</time>
      </trkpt>
      <trkpt lat="41.9869610" lon="-6.1849620">
        <ele>810.3</ele>
        <time>2019-08-16T07:29:46Z</time>
      </trkpt>
      <trkpt lat="41.9869730" lon="-6.1850250">
        <ele>810.4</ele>
        <time>2019-08-16T07:29:48Z</time>
      </trkpt>
      <trkpt lat="41.9869920" lon="-6.1850990">
        <ele>810.5</ele>
        <time>2019-08-16T07:29:50Z</time>
      </trkpt>
      <trkpt lat="41.9870040" lon="-6.1851430">
        <ele>810.6</ele>
        <time>2019-08-16T07:29:51Z</time>
      </trkpt>
      <trkpt lat="41.9870160" lon="-6.1851890">
        <ele>810.8</ele>
        <time>2019-08-16T07:29:52Z</time>
      </trkpt>
      <trkpt lat="41.9870290" lon="-6.1852370">
        <ele>810.9</ele>
        <time>2019-08-16T07:29:53Z</time>
      </trkpt>
      <trkpt lat="41.9870420" lon="-6.1852860">
        <ele>811.0</ele>
        <time>2019-08-16T07:29:54Z</time>
      </trkpt>
      <trkpt lat="41.9870550" lon="-6.1853350">
        <ele>811.1</ele>
        <time>2019-08-16T07:29:55Z</time>
      </trkpt>
      <trkpt lat="41.9870650" lon="-6.1853830">
        <ele>811.3</ele>
        <time>2019-08-16T07:29:56Z</time>
      </trkpt>
      <trkpt lat="41.9870740" lon="-6.1854270">
        <ele>811.3</ele>
        <time>2019-08-16T07:29:57Z</time>
      </trkpt>
      <trkpt lat="41.9870830" lon="-6.1854610">
        <ele>811.4</ele>
        <time>2019-08-16T07:29:58Z</time>
      </trkpt>
      <trkpt lat="41.9870910" lon="-6.1855220">
        <ele>811.5</ele>
        <time>2019-08-16T07:30:00Z</time>
      </trkpt>
      <trkpt lat="41.9871100" lon="-6.1855830">
        <ele>811.5</ele>
        <time>2019-08-16T07:30:02Z</time>
      </trkpt>
      <trkpt lat="41.9871230" lon="-6.1856200">
        <ele>811.6</ele>
        <time>2019-08-16T07:30:03Z</time>
      </trkpt>
      <trkpt lat="41.9871360" lon="-6.1856630">
        <ele>811.6</ele>
        <time>2019-08-16T07:30:04Z</time>
      </trkpt>
      <trkpt lat="41.9871470" lon="-6.1857080">
        <ele>811.6</ele>
        <time>2019-08-16T07:30:05Z</time>
      </trkpt>
      <trkpt lat="41.9871590" lon="-6.1857540">
        <ele>811.6</ele>
        <time>2019-08-16T07:30:06Z</time>
      </trkpt>
      <trkpt lat="41.9871690" lon="-6.1857990">
        <ele>811.7</ele>
        <time>2019-08-16T07:30:07Z</time>
      </trkpt>
      <trkpt lat="41.9871800" lon="-6.1858430">
        <ele>811.7</ele>
        <time>2019-08-16T07:30:08Z</time>
      </trkpt>
      <trkpt lat="41.9871900" lon="-6.1858870">
        <ele>811.7</ele>
        <time>2019-08-16T07:30:09Z</time>
      </trkpt>
      <trkpt lat="41.9872020" lon="-6.1859320">
        <ele>811.7</ele>
        <time>2019-08-16T07:30:10Z</time>
      </trkpt>
      <trkpt lat="41.9872130" lon="-6.1859750">
        <ele>811.8</ele>
        <time>2019-08-16T07:30:11Z</time>
      </trkpt>
      <trkpt lat="41.9872250" lon="-6.1860180">
        <ele>811.8</ele>
        <time>2019-08-16T07:30:12Z</time>
      </trkpt>
      <trkpt lat="41.9872380" lon="-6.1860610">
        <ele>811.9</ele>
        <time>2019-08-16T07:30:13Z</time>
      </trkpt>
      <trkpt lat="41.9872520" lon="-6.1861050">
        <ele>812.0</ele>
        <time>2019-08-16T07:30:14Z</time>
      </trkpt>
      <trkpt lat="41.9872650" lon="-6.1861450">
        <ele>812.1</ele>
        <time>2019-08-16T07:30:15Z</time>
      </trkpt>
      <trkpt lat="41.9872760" lon="-6.1861830">
        <ele>812.3</ele>
        <time>2019-08-16T07:30:16Z</time>
      </trkpt>
      <trkpt lat="41.9872860" lon="-6.1862200">
        <ele>812.4</ele>
        <time>2019-08-16T07:30:17Z</time>
      </trkpt>
      <trkpt lat="41.9872980" lon="-6.1862580">
        <ele>812.5</ele>
        <time>2019-08-16T07:30:18Z</time>
      </trkpt>
      <trkpt lat="41.9873110" lon="-6.1862980">
        <ele>812.7</ele>
        <time>2019-08-16T07:30:19Z</time>
      </trkpt>
      <trkpt lat="41.9873250" lon="-6.1863370">
        <ele>812.8</ele>
        <time>2019-08-16T07:30:20Z</time>
      </trkpt>
      <trkpt lat="41.9873380" lon="-6.1863780">
        <ele>813.0</ele>
        <time>2019-08-16T07:30:21Z</time>
      </trkpt>
      <trkpt lat="41.9873510" lon="-6.1864180">
        <ele>813.2</ele>
        <time>2019-08-16T07:30:22Z</time>
      </trkpt>
      <trkpt lat="41.9873640" lon="-6.1864580">
        <ele>813.4</ele>
        <time>2019-08-16T07:30:23Z</time>
      </trkpt>
      <trkpt lat="41.9873750" lon="-6.1864970">
        <ele>813.6</ele>
        <time>2019-08-16T07:30:24Z</time>
      </trkpt>
      <trkpt lat="41.9873840" lon="-6.1865330">
        <ele>813.7</ele>
        <time>2019-08-16T07:30:25Z</time>
      </trkpt>
      <trkpt lat="41.9873960" lon="-6.1865990">
        <ele>814.0</ele>
        <time>2019-08-16T07:30:27Z</time>
      </trkpt>
      <trkpt lat="41.9874180" lon="-6.1866620">
        <ele>814.3</ele>
        <time>2019-08-16T07:30:29Z</time>
      </trkpt>
      <trkpt lat="41.9874400" lon="-6.1867220">
        <ele>814.6</ele>
        <time>2019-08-16T07:30:31Z</time>
      </trkpt>
      <trkpt lat="41.9874560" lon="-6.1867810">
        <ele>814.7</ele>
        <time>2019-08-16T07:30:33Z</time>
      </trkpt>
      <trkpt lat="41.9874680" lon="-6.1868400">
        <ele>814.9</ele>
        <time>2019-08-16T07:30:35Z</time>
      </trkpt>
      <trkpt lat="41.9874790" lon="-6.1869030">
        <ele>815.0</ele>
        <time>2019-08-16T07:30:37Z</time>
      </trkpt>
      <trkpt lat="41.9875020" lon="-6.1869660">
        <ele>815.1</ele>
        <time>2019-08-16T07:30:39Z</time>
      </trkpt>
      <trkpt lat="41.9875160" lon="-6.1869980">
        <ele>815.1</ele>
        <time>2019-08-16T07:30:40Z</time>
      </trkpt>
      <trkpt lat="41.9875320" lon="-6.1870310">
        <ele>815.2</ele>
        <time>2019-08-16T07:30:41Z</time>
      </trkpt>
      <trkpt lat="41.9875490" lon="-6.1870650">
        <ele>815.2</ele>
        <time>2019-08-16T07:30:42Z</time>
      </trkpt>
      <trkpt lat="41.9875690" lon="-6.1871010">
        <ele>815.3</ele>
        <time>2019-08-16T07:30:43Z</time>
      </trkpt>
      <trkpt lat="41.9875910" lon="-6.1871380">
        <ele>815.4</ele>
        <time>2019-08-16T07:30:44Z</time>
      </trkpt>
      <trkpt lat="41.9876150" lon="-6.1871760">
        <ele>815.5</ele>
        <time>2019-08-16T07:30:45Z</time>
      </trkpt>
      <trkpt lat="41.9876400" lon="-6.1872150">
        <ele>815.6</ele>
        <time>2019-08-16T07:30:46Z</time>
      </trkpt>
      <trkpt lat="41.9876650" lon="-6.1872530">
        <ele>815.7</ele>
        <time>2019-08-16T07:30:47Z</time>
      </trkpt>
      <trkpt lat="41.9876920" lon="-6.1872910">
        <ele>815.9</ele>
        <time>2019-08-16T07:30:48Z</time>
      </trkpt>
      <trkpt lat="41.9877170" lon="-6.1873290">
        <ele>816.0</ele>
        <time>2019-08-16T07:30:49Z</time>
      </trkpt>
      <trkpt lat="41.9877420" lon="-6.1873630">
        <ele>816.1</ele>
        <time>2019-08-16T07:30:50Z</time>
      </trkpt>
      <trkpt lat="41.9877660" lon="-6.1873930">
        <ele>816.2</ele>
        <time>2019-08-16T07:30:51Z</time>
      </trkpt>
      <trkpt lat="41.9877920" lon="-6.1874230">
        <ele>816.3</ele>
        <time>2019-08-16T07:30:52Z</time>
      </trkpt>
      <trkpt lat="41.9878200" lon="-6.1874530">
        <ele>816.4</ele>
        <time>2019-08-16T07:30:53Z</time>
      </trkpt>
      <trkpt lat="41.9878460" lon="-6.1874840">
        <ele>816.4</ele>
        <time>2019-08-16T07:30:54Z</time>
      </trkpt>
      <trkpt lat="41.9878700" lon="-6.1875160">
        <ele>816.5</ele>
        <time>2019-08-16T07:30:55Z</time>
      </trkpt>
      <trkpt lat="41.9878940" lon="-6.1875490">
        <ele>816.5</ele>
        <time>2019-08-16T07:30:56Z</time>
      </trkpt>
      <trkpt lat="41.9879180" lon="-6.1875810">
        <ele>816.6</ele>
        <time>2019-08-16T07:30:57Z</time>
      </trkpt>
      <trkpt lat="41.9879420" lon="-6.1876150">
        <ele>816.6</ele>
        <time>2019-08-16T07:30:58Z</time>
      </trkpt>
      <trkpt lat="41.9879670" lon="-6.1876480">
        <ele>816.7</ele>
        <time>2019-08-16T07:30:59Z</time>
      </trkpt>
      <trkpt lat="41.9879930" lon="-6.1876820">
        <ele>816.7</ele>
        <time>2019-08-16T07:31:00Z</time>
      </trkpt>
      <trkpt lat="41.9880170" lon="-6.1877180">
        <ele>816.8</ele>
        <time>2019-08-16T07:31:01Z</time>
      </trkpt>
      <trkpt lat="41.9880400" lon="-6.1877550">
        <ele>816.8</ele>
        <time>2019-08-16T07:31:02Z</time>
      </trkpt>
      <trkpt lat="41.9880620" lon="-6.1877920">
        <ele>816.9</ele>
        <time>2019-08-16T07:31:03Z</time>
      </trkpt>
      <trkpt lat="41.9880860" lon="-6.1878280">
        <ele>816.9</ele>
        <time>2019-08-16T07:31:04Z</time>
      </trkpt>
      <trkpt lat="41.9881090" lon="-6.1878640">
        <ele>817.0</ele>
        <time>2019-08-16T07:31:05Z</time>
      </trkpt>
      <trkpt lat="41.9881300" lon="-6.1879000">
        <ele>817.0</ele>
        <time>2019-08-16T07:31:06Z</time>
      </trkpt>
      <trkpt lat="41.9881490" lon="-6.1879370">
        <ele>817.1</ele>
        <time>2019-08-16T07:31:07Z</time>
      </trkpt>
      <trkpt lat="41.9881690" lon="-6.1879740">
        <ele>817.1</ele>
        <time>2019-08-16T07:31:08Z</time>
      </trkpt>
      <trkpt lat="41.9881900" lon="-6.1880150">
        <ele>817.1</ele>
        <time>2019-08-16T07:31:09Z</time>
      </trkpt>
      <trkpt lat="41.9882110" lon="-6.1880610">
        <ele>817.1</ele>
        <time>2019-08-16T07:31:10Z</time>
      </trkpt>
      <trkpt lat="41.9882330" lon="-6.1881080">
        <ele>817.1</ele>
        <time>2019-08-16T07:31:11Z</time>
      </trkpt>
      <trkpt lat="41.9882560" lon="-6.1881540">
        <ele>817.2</ele>
        <time>2019-08-16T07:31:12Z</time>
      </trkpt>
      <trkpt lat="41.9882770" lon="-6.1881960">
        <ele>817.2</ele>
        <time>2019-08-16T07:31:13Z</time>
      </trkpt>
      <trkpt lat="41.9882960" lon="-6.1882380">
        <ele>817.2</ele>
        <time>2019-08-16T07:31:14Z</time>
      </trkpt>
      <trkpt lat="41.9883170" lon="-6.1882800">
        <ele>817.2</ele>
        <time>2019-08-16T07:31:15Z</time>
      </trkpt>
      <trkpt lat="41.9883400" lon="-6.1883210">
        <ele>817.2</ele>
        <time>2019-08-16T07:31:16Z</time>
      </trkpt>
      <trkpt lat="41.9883620" lon="-6.1883630">
        <ele>817.2</ele>
        <time>2019-08-16T07:31:17Z</time>
      </trkpt>
      <trkpt lat="41.9883850" lon="-6.1884070">
        <ele>817.2</ele>
        <time>2019-08-16T07:31:18Z</time>
      </trkpt>
      <trkpt lat="41.9884100" lon="-6.1884520">
        <ele>817.2</ele>
        <time>2019-08-16T07:31:19Z</time>
      </trkpt>
      <trkpt lat="41.9884360" lon="-6.1884970">
        <ele>817.2</ele>
        <time>2019-08-16T07:31:20Z</time>
      </trkpt>
      <trkpt lat="41.9884600" lon="-6.1885370">
        <ele>817.2</ele>
        <time>2019-08-16T07:31:21Z</time>
      </trkpt>
      <trkpt lat="41.9884840" lon="-6.1885740">
        <ele>817.2</ele>
        <time>2019-08-16T07:31:22Z</time>
      </trkpt>
      <trkpt lat="41.9885090" lon="-6.1886100">
        <ele>817.2</ele>
        <time>2019-08-16T07:31:23Z</time>
      </trkpt>
      <trkpt lat="41.9885350" lon="-6.1886470">
        <ele>817.2</ele>
        <time>2019-08-16T07:31:24Z</time>
      </trkpt>
      <trkpt lat="41.9885630" lon="-6.1886870">
        <ele>817.2</ele>
        <time>2019-08-16T07:31:25Z</time>
      </trkpt>
      <trkpt lat="41.9885890" lon="-6.1887280">
        <ele>817.2</ele>
        <time>2019-08-16T07:31:26Z</time>
      </trkpt>
      <trkpt lat="41.9886130" lon="-6.1887690">
        <ele>817.3</ele>
        <time>2019-08-16T07:31:27Z</time>
      </trkpt>
      <trkpt lat="41.9886360" lon="-6.1888100">
        <ele>817.3</ele>
        <time>2019-08-16T07:31:28Z</time>
      </trkpt>
      <trkpt lat="41.9886600" lon="-6.1888490">
        <ele>817.4</ele>
        <time>2019-08-16T07:31:29Z</time>
      </trkpt>
      <trkpt lat="41.9886830" lon="-6.1888860">
        <ele>817.5</ele>
        <time>2019-08-16T07:31:30Z</time>
      </trkpt>
      <trkpt lat="41.9887040" lon="-6.1889230">
        <ele>817.6</ele>
        <time>2019-08-16T07:31:31Z</time>
      </trkpt>
      <trkpt lat="41.9887240" lon="-6.1889610">
        <ele>817.7</ele>
        <time>2019-08-16T07:31:32Z</time>
      </trkpt>
      <trkpt lat="41.9887420" lon="-6.1889990">
        <ele>817.9</ele>
        <time>2019-08-16T07:31:33Z</time>
      </trkpt>
      <trkpt lat="41.9887590" lon="-6.1890350">
        <ele>818.1</ele>
        <time>2019-08-16T07:31:34Z</time>
      </trkpt>
      <trkpt lat="41.9887750" lon="-6.1890700">
        <ele>818.2</ele>
        <time>2019-08-16T07:31:35Z</time>
      </trkpt>
      <trkpt lat="41.9887920" lon="-6.1891000">
        <ele>818.4</ele>
        <time>2019-08-16T07:31:36Z</time>
      </trkpt>
      <trkpt lat="41.9888090" lon="-6.1891310">
        <ele>818.5</ele>
        <time>2019-08-16T07:31:37Z</time>
      </trkpt>
      <trkpt lat="41.9888280" lon="-6.1891630">
        <ele>818.7</ele>
        <time>2019-08-16T07:31:38Z</time>
      </trkpt>
      <trkpt lat="41.9888470" lon="-6.1891950">
        <ele>818.8</ele>
        <time>2019-08-16T07:31:39Z</time>
      </trkpt>
      <trkpt lat="41.9888650" lon="-6.1892250">
        <ele>818.9</ele>
        <time>2019-08-16T07:31:40Z</time>
      </trkpt>
      <trkpt lat="41.9888830" lon="-6.1892560">
        <ele>819.0</ele>
        <time>2019-08-16T07:31:41Z</time>
      </trkpt>
      <trkpt lat="41.9889010" lon="-6.1892880">
        <ele>819.2</ele>
        <time>2019-08-16T07:31:42Z</time>
      </trkpt>
      <trkpt lat="41.9889180" lon="-6.1893210">
        <ele>819.3</ele>
        <time>2019-08-16T07:31:43Z</time>
      </trkpt>
      <trkpt lat="41.9889350" lon="-6.1893560">
        <ele>819.4</ele>
        <time>2019-08-16T07:31:44Z</time>
      </trkpt>
      <trkpt lat="41.9889490" lon="-6.1893880">
        <ele>819.5</ele>
        <time>2019-08-16T07:31:45Z</time>
      </trkpt>
      <trkpt lat="41.9889640" lon="-6.1894210">
        <ele>819.5</ele>
        <time>2019-08-16T07:31:46Z</time>
      </trkpt>
      <trkpt lat="41.9889790" lon="-6.1894510">
        <ele>819.6</ele>
        <time>2019-08-16T07:31:47Z</time>
      </trkpt>
      <trkpt lat="41.9890100" lon="-6.1895020">
        <ele>819.8</ele>
        <time>2019-08-16T07:31:49Z</time>
      </trkpt>
      <trkpt lat="41.9890450" lon="-6.1895560">
        <ele>820.0</ele>
        <time>2019-08-16T07:31:51Z</time>
      </trkpt>
      <trkpt lat="41.9890790" lon="-6.1896100">
        <ele>820.2</ele>
        <time>2019-08-16T07:31:53Z</time>
      </trkpt>
      <trkpt lat="41.9890960" lon="-6.1896490">
        <ele>820.3</ele>
        <time>2019-08-16T07:31:54Z</time>
      </trkpt>
      <trkpt lat="41.9891110" lon="-6.1896830">
        <ele>820.4</ele>
        <time>2019-08-16T07:31:55Z</time>
      </trkpt>
      <trkpt lat="41.9891310" lon="-6.1897140">
        <ele>820.5</ele>
        <time>2019-08-16T07:31:56Z</time>
      </trkpt>
      <trkpt lat="41.9891520" lon="-6.1897440">
        <ele>820.6</ele>
        <time>2019-08-16T07:31:57Z</time>
      </trkpt>
      <trkpt lat="41.9891720" lon="-6.1897750">
        <ele>820.7</ele>
        <time>2019-08-16T07:31:58Z</time>
      </trkpt>
      <trkpt lat="41.9891920" lon="-6.1898080">
        <ele>820.8</ele>
        <time>2019-08-16T07:31:59Z</time>
      </trkpt>
      <trkpt lat="41.9892120" lon="-6.1898430">
        <ele>820.8</ele>
        <time>2019-08-16T07:32:00Z</time>
      </trkpt>
      <trkpt lat="41.9892310" lon="-6.1898780">
        <ele>820.9</ele>
        <time>2019-08-16T07:32:01Z</time>
      </trkpt>
      <trkpt lat="41.9892510" lon="-6.1899090">
        <ele>821.0</ele>
        <time>2019-08-16T07:32:02Z</time>
      </trkpt>
      <trkpt lat="41.9892700" lon="-6.1899410">
        <ele>821.1</ele>
        <time>2019-08-16T07:32:03Z</time>
      </trkpt>
      <trkpt lat="41.9892880" lon="-6.1899740">
        <ele>821.2</ele>
        <time>2019-08-16T07:32:04Z</time>
      </trkpt>
      <trkpt lat="41.9893070" lon="-6.1900090">
        <ele>821.2</ele>
        <time>2019-08-16T07:32:05Z</time>
      </trkpt>
      <trkpt lat="41.9893250" lon="-6.1900420">
        <ele>821.4</ele>
        <time>2019-08-16T07:32:06Z</time>
      </trkpt>
      <trkpt lat="41.9893420" lon="-6.1900750">
        <ele>821.5</ele>
        <time>2019-08-16T07:32:07Z</time>
      </trkpt>
      <trkpt lat="41.9893590" lon="-6.1901090">
        <ele>821.6</ele>
        <time>2019-08-16T07:32:08Z</time>
      </trkpt>
      <trkpt lat="41.9893740" lon="-6.1901390">
        <ele>821.7</ele>
        <time>2019-08-16T07:32:09Z</time>
      </trkpt>
      <trkpt lat="41.9894020" lon="-6.1901930">
        <ele>822.0</ele>
        <time>2019-08-16T07:32:11Z</time>
      </trkpt>
      <trkpt lat="41.9894310" lon="-6.1902390">
        <ele>822.2</ele>
        <time>2019-08-16T07:32:13Z</time>
      </trkpt>
      <trkpt lat="41.9894620" lon="-6.1902890">
        <ele>822.5</ele>
        <time>2019-08-16T07:32:15Z</time>
      </trkpt>
      <trkpt lat="41.9894960" lon="-6.1903400">
        <ele>822.9</ele>
        <time>2019-08-16T07:32:17Z</time>
      </trkpt>
      <trkpt lat="41.9895220" lon="-6.1903870">
        <ele>823.1</ele>
        <time>2019-08-16T07:32:19Z</time>
      </trkpt>
      <trkpt lat="41.9895460" lon="-6.1904330">
        <ele>823.4</ele>
        <time>2019-08-16T07:32:21Z</time>
      </trkpt>
      <trkpt lat="41.9895680" lon="-6.1904810">
        <ele>823.7</ele>
        <time>2019-08-16T07:32:23Z</time>
      </trkpt>
      <trkpt lat="41.9895930" lon="-6.1905290">
        <ele>823.9</ele>
        <time>2019-08-16T07:32:25Z</time>
      </trkpt>
      <trkpt lat="41.9896180" lon="-6.1905740">
        <ele>824.1</ele>
        <time>2019-08-16T07:32:27Z</time>
      </trkpt>
      <trkpt lat="41.9896370" lon="-6.1906240">
        <ele>824.2</ele>
        <time>2019-08-16T07:32:29Z</time>
      </trkpt>
      <trkpt lat="41.9896600" lon="-6.1906770">
        <ele>824.4</ele>
        <time>2019-08-16T07:32:31Z</time>
      </trkpt>
      <trkpt lat="41.9896860" lon="-6.1907330">
        <ele>824.5</ele>
        <time>2019-08-16T07:32:33Z</time>
      </trkpt>
      <trkpt lat="41.9897100" lon="-6.1907900">
        <ele>824.7</ele>
        <time>2019-08-16T07:32:35Z</time>
      </trkpt>
      <trkpt lat="41.9897350" lon="-6.1908450">
        <ele>824.9</ele>
        <time>2019-08-16T07:32:37Z</time>
      </trkpt>
      <trkpt lat="41.9897570" lon="-6.1908950">
        <ele>825.2</ele>
        <time>2019-08-16T07:32:39Z</time>
      </trkpt>
      <trkpt lat="41.9897780" lon="-6.1909480">
        <ele>825.5</ele>
        <time>2019-08-16T07:32:41Z</time>
      </trkpt>
      <trkpt lat="41.9898020" lon="-6.1910000">
        <ele>825.7</ele>
        <time>2019-08-16T07:32:43Z</time>
      </trkpt>
      <trkpt lat="41.9898290" lon="-6.1910600">
        <ele>826.0</ele>
        <time>2019-08-16T07:32:45Z</time>
      </trkpt>
      <trkpt lat="41.9898600" lon="-6.1911200">
        <ele>826.3</ele>
        <time>2019-08-16T07:32:47Z</time>
      </trkpt>
      <trkpt lat="41.9898760" lon="-6.1911510">
        <ele>826.5</ele>
        <time>2019-08-16T07:32:48Z</time>
      </trkpt>
      <trkpt lat="41.9898910" lon="-6.1911830">
        <ele>826.6</ele>
        <time>2019-08-16T07:32:49Z</time>
      </trkpt>
      <trkpt lat="41.9899060" lon="-6.1912160">
        <ele>826.8</ele>
        <time>2019-08-16T07:32:50Z</time>
      </trkpt>
      <trkpt lat="41.9899200" lon="-6.1912500">
        <ele>827.0</ele>
        <time>2019-08-16T07:32:51Z</time>
      </trkpt>
      <trkpt lat="41.9899320" lon="-6.1912830">
        <ele>827.1</ele>
        <time>2019-08-16T07:32:52Z</time>
      </trkpt>
      <trkpt lat="41.9899560" lon="-6.1913450">
        <ele>827.4</ele>
        <time>2019-08-16T07:32:54Z</time>
      </trkpt>
      <trkpt lat="41.9899700" lon="-6.1913780">
        <ele>827.5</ele>
        <time>2019-08-16T07:32:55Z</time>
      </trkpt>
      <trkpt lat="41.9899840" lon="-6.1914120">
        <ele>827.6</ele>
        <time>2019-08-16T07:32:56Z</time>
      </trkpt>
      <trkpt lat="41.9899990" lon="-6.1914460">
        <ele>827.7</ele>
        <time>2019-08-16T07:32:57Z</time>
      </trkpt>
      <trkpt lat="41.9900150" lon="-6.1914790">
        <ele>827.8</ele>
        <time>2019-08-16T07:32:58Z</time>
      </trkpt>
      <trkpt lat="41.9900310" lon="-6.1915130">
        <ele>827.9</ele>
        <time>2019-08-16T07:32:59Z</time>
      </trkpt>
      <trkpt lat="41.9900470" lon="-6.1915480">
        <ele>827.9</ele>
        <time>2019-08-16T07:33:00Z</time>
      </trkpt>
      <trkpt lat="41.9900640" lon="-6.1915830">
        <ele>828.0</ele>
        <time>2019-08-16T07:33:01Z</time>
      </trkpt>
      <trkpt lat="41.9900800" lon="-6.1916180">
        <ele>828.0</ele>
        <time>2019-08-16T07:33:02Z</time>
      </trkpt>
      <trkpt lat="41.9900970" lon="-6.1916540">
        <ele>828.0</ele>
        <time>2019-08-16T07:33:03Z</time>
      </trkpt>
      <trkpt lat="41.9901130" lon="-6.1916890">
        <ele>828.1</ele>
        <time>2019-08-16T07:33:04Z</time>
      </trkpt>
      <trkpt lat="41.9901290" lon="-6.1917240">
        <ele>828.1</ele>
        <time>2019-08-16T07:33:05Z</time>
      </trkpt>
      <trkpt lat="41.9901460" lon="-6.1917590">
        <ele>828.1</ele>
        <time>2019-08-16T07:33:06Z</time>
      </trkpt>
      <trkpt lat="41.9901620" lon="-6.1917950">
        <ele>828.1</ele>
        <time>2019-08-16T07:33:07Z</time>
      </trkpt>
      <trkpt lat="41.9901770" lon="-6.1918340">
        <ele>828.1</ele>
        <time>2019-08-16T07:33:08Z</time>
      </trkpt>
      <trkpt lat="41.9901930" lon="-6.1918740">
        <ele>828.1</ele>
        <time>2019-08-16T07:33:09Z</time>
      </trkpt>
      <trkpt lat="41.9902080" lon="-6.1919150">
        <ele>828.1</ele>
        <time>2019-08-16T07:33:10Z</time>
      </trkpt>
      <trkpt lat="41.9902240" lon="-6.1919560">
        <ele>828.1</ele>
        <time>2019-08-16T07:33:11Z</time>
      </trkpt>
      <trkpt lat="41.9902410" lon="-6.1919980">
        <ele>828.1</ele>
        <time>2019-08-16T07:33:12Z</time>
      </trkpt>
      <trkpt lat="41.9902590" lon="-6.1920420">
        <ele>828.1</ele>
        <time>2019-08-16T07:33:13Z</time>
      </trkpt>
      <trkpt lat="41.9902780" lon="-6.1920830">
        <ele>828.1</ele>
        <time>2019-08-16T07:33:14Z</time>
      </trkpt>
      <trkpt lat="41.9902970" lon="-6.1921220">
        <ele>828.1</ele>
        <time>2019-08-16T07:33:15Z</time>
      </trkpt>
      <trkpt lat="41.9903180" lon="-6.1921580">
        <ele>828.1</ele>
        <time>2019-08-16T07:33:16Z</time>
      </trkpt>
      <trkpt lat="41.9903390" lon="-6.1921970">
        <ele>828.1</ele>
        <time>2019-08-16T07:33:17Z</time>
      </trkpt>
      <trkpt lat="41.9903630" lon="-6.1922400">
        <ele>828.1</ele>
        <time>2019-08-16T07:33:18Z</time>
      </trkpt>
      <trkpt lat="41.9903880" lon="-6.1922860">
        <ele>828.1</ele>
        <time>2019-08-16T07:33:19Z</time>
      </trkpt>
      <trkpt lat="41.9904150" lon="-6.1923330">
        <ele>828.1</ele>
        <time>2019-08-16T07:33:20Z</time>
      </trkpt>
      <trkpt lat="41.9904420" lon="-6.1923810">
        <ele>828.1</ele>
        <time>2019-08-16T07:33:21Z</time>
      </trkpt>
      <trkpt lat="41.9904700" lon="-6.1924310">
        <ele>828.1</ele>
        <time>2019-08-16T07:33:22Z</time>
      </trkpt>
      <trkpt lat="41.9904970" lon="-6.1924820">
        <ele>828.1</ele>
        <time>2019-08-16T07:33:23Z</time>
      </trkpt>
      <trkpt lat="41.9905210" lon="-6.1925350">
        <ele>828.1</ele>
        <time>2019-08-16T07:33:24Z</time>
      </trkpt>
      <trkpt lat="41.9905450" lon="-6.1925890">
        <ele>828.1</ele>
        <time>2019-08-16T07:33:25Z</time>
      </trkpt>
      <trkpt lat="41.9905680" lon="-6.1926450">
        <ele>828.0</ele>
        <time>2019-08-16T07:33:26Z</time>
      </trkpt>
      <trkpt lat="41.9905920" lon="-6.1927010">
        <ele>828.0</ele>
        <time>2019-08-16T07:33:27Z</time>
      </trkpt>
      <trkpt lat="41.9906180" lon="-6.1927590">
        <ele>827.8</ele>
        <time>2019-08-16T07:33:28Z</time>
      </trkpt>
      <trkpt lat="41.9906430" lon="-6.1928150">
        <ele>827.7</ele>
        <time>2019-08-16T07:33:29Z</time>
      </trkpt>
      <trkpt lat="41.9906680" lon="-6.1928720">
        <ele>827.4</ele>
        <time>2019-08-16T07:33:30Z</time>
      </trkpt>
      <trkpt lat="41.9906930" lon="-6.1929280">
        <ele>827.2</ele>
        <time>2019-08-16T07:33:31Z</time>
      </trkpt>
      <trkpt lat="41.9907160" lon="-6.1929840">
        <ele>826.9</ele>
        <time>2019-08-16T07:33:32Z</time>
      </trkpt>
      <trkpt lat="41.9907390" lon="-6.1930430">
        <ele>826.7</ele>
        <time>2019-08-16T07:33:33Z</time>
      </trkpt>
      <trkpt lat="41.9907630" lon="-6.1931010">
        <ele>826.6</ele>
        <time>2019-08-16T07:33:34Z</time>
      </trkpt>
      <trkpt lat="41.9907850" lon="-6.1931610">
        <ele>826.5</ele>
        <time>2019-08-16T07:33:35Z</time>
      </trkpt>
      <trkpt lat="41.9908060" lon="-6.1932220">
        <ele>826.4</ele>
        <time>2019-08-16T07:33:36Z</time>
      </trkpt>
      <trkpt lat="41.9908250" lon="-6.1932810">
        <ele>826.4</ele>
        <time>2019-08-16T07:33:37Z</time>
      </trkpt>
      <trkpt lat="41.9908440" lon="-6.1933400">
        <ele>826.4</ele>
        <time>2019-08-16T07:33:38Z</time>
      </trkpt>
      <trkpt lat="41.9908640" lon="-6.1933980">
        <ele>826.4</ele>
        <time>2019-08-16T07:33:39Z</time>
      </trkpt>
      <trkpt lat="41.9908850" lon="-6.1934550">
        <ele>826.4</ele>
        <time>2019-08-16T07:33:40Z</time>
      </trkpt>
      <trkpt lat="41.9909070" lon="-6.1935110">
        <ele>826.4</ele>
        <time>2019-08-16T07:33:41Z</time>
      </trkpt>
      <trkpt lat="41.9909300" lon="-6.1935660">
        <ele>826.4</ele>
        <time>2019-08-16T07:33:42Z</time>
      </trkpt>
      <trkpt lat="41.9909530" lon="-6.1936200">
        <ele>826.4</ele>
        <time>2019-08-16T07:33:43Z</time>
      </trkpt>
      <trkpt lat="41.9909750" lon="-6.1936730">
        <ele>826.4</ele>
        <time>2019-08-16T07:33:44Z</time>
      </trkpt>
      <trkpt lat="41.9909980" lon="-6.1937230">
        <ele>826.4</ele>
        <time>2019-08-16T07:33:45Z</time>
      </trkpt>
      <trkpt lat="41.9910180" lon="-6.1937700">
        <ele>826.4</ele>
        <time>2019-08-16T07:33:46Z</time>
      </trkpt>
      <trkpt lat="41.9910370" lon="-6.1938140">
        <ele>826.4</ele>
        <time>2019-08-16T07:33:47Z</time>
      </trkpt>
      <trkpt lat="41.9910550" lon="-6.1938510">
        <ele>826.4</ele>
        <time>2019-08-16T07:33:48Z</time>
      </trkpt>
      <trkpt lat="41.9910720" lon="-6.1938890">
        <ele>826.4</ele>
        <time>2019-08-16T07:33:49Z</time>
      </trkpt>
      <trkpt lat="41.9910900" lon="-6.1939270">
        <ele>826.4</ele>
        <time>2019-08-16T07:33:50Z</time>
      </trkpt>
      <trkpt lat="41.9911100" lon="-6.1939680">
        <ele>826.4</ele>
        <time>2019-08-16T07:33:51Z</time>
      </trkpt>
      <trkpt lat="41.9911290" lon="-6.1940090">
        <ele>826.4</ele>
        <time>2019-08-16T07:33:52Z</time>
      </trkpt>
      <trkpt lat="41.9911460" lon="-6.1940490">
        <ele>826.4</ele>
        <time>2019-08-16T07:33:53Z</time>
      </trkpt>
      <trkpt lat="41.9911650" lon="-6.1940920">
        <ele>826.4</ele>
        <time>2019-08-16T07:33:54Z</time>
      </trkpt>
      <trkpt lat="41.9911850" lon="-6.1941370">
        <ele>826.4</ele>
        <time>2019-08-16T07:33:55Z</time>
      </trkpt>
      <trkpt lat="41.9912040" lon="-6.1941830">
        <ele>826.4</ele>
        <time>2019-08-16T07:33:56Z</time>
      </trkpt>
      <trkpt lat="41.9912220" lon="-6.1942300">
        <ele>826.4</ele>
        <time>2019-08-16T07:33:57Z</time>
      </trkpt>
      <trkpt lat="41.9912400" lon="-6.1942780">
        <ele>826.4</ele>
        <time>2019-08-16T07:33:58Z</time>
      </trkpt>
      <trkpt lat="41.9912560" lon="-6.1943260">
        <ele>826.4</ele>
        <time>2019-08-16T07:33:59Z</time>
      </trkpt>
      <trkpt lat="41.9912720" lon="-6.1943740">
        <ele>826.4</ele>
        <time>2019-08-16T07:34:00Z</time>
      </trkpt>
      <trkpt lat="41.9912900" lon="-6.1944210">
        <ele>826.4</ele>
        <time>2019-08-16T07:34:01Z</time>
      </trkpt>
      <trkpt lat="41.9913070" lon="-6.1944680">
        <ele>826.4</ele>
        <time>2019-08-16T07:34:02Z</time>
      </trkpt>
      <trkpt lat="41.9913240" lon="-6.1945160">
        <ele>826.4</ele>
        <time>2019-08-16T07:34:03Z</time>
      </trkpt>
      <trkpt lat="41.9913400" lon="-6.1945620">
        <ele>826.4</ele>
        <time>2019-08-16T07:34:04Z</time>
      </trkpt>
      <trkpt lat="41.9913570" lon="-6.1946080">
        <ele>826.4</ele>
        <time>2019-08-16T07:34:05Z</time>
      </trkpt>
      <trkpt lat="41.9913740" lon="-6.1946540">
        <ele>826.4</ele>
        <time>2019-08-16T07:34:06Z</time>
      </trkpt>
      <trkpt lat="41.9913920" lon="-6.1946990">
        <ele>826.4</ele>
        <time>2019-08-16T07:34:07Z</time>
      </trkpt>
      <trkpt lat="41.9914070" lon="-6.1947450">
        <ele>826.4</ele>
        <time>2019-08-16T07:34:08Z</time>
      </trkpt>
      <trkpt lat="41.9914210" lon="-6.1947920">
        <ele>826.4</ele>
        <time>2019-08-16T07:34:09Z</time>
      </trkpt>
      <trkpt lat="41.9914370" lon="-6.1948380">
        <ele>826.4</ele>
        <time>2019-08-16T07:34:10Z</time>
      </trkpt>
      <trkpt lat="41.9914540" lon="-6.1948830">
        <ele>826.4</ele>
        <time>2019-08-16T07:34:11Z</time>
      </trkpt>
      <trkpt lat="41.9914710" lon="-6.1949280">
        <ele>826.4</ele>
        <time>2019-08-16T07:34:12Z</time>
      </trkpt>
      <trkpt lat="41.9914860" lon="-6.1949740">
        <ele>826.4</ele>
        <time>2019-08-16T07:34:13Z</time>
      </trkpt>
      <trkpt lat="41.9915000" lon="-6.1950190">
        <ele>826.4</ele>
        <time>2019-08-16T07:34:14Z</time>
      </trkpt>
      <trkpt lat="41.9915140" lon="-6.1950620">
        <ele>826.5</ele>
        <time>2019-08-16T07:34:15Z</time>
      </trkpt>
      <trkpt lat="41.9915290" lon="-6.1951050">
        <ele>826.5</ele>
        <time>2019-08-16T07:34:16Z</time>
      </trkpt>
      <trkpt lat="41.9915450" lon="-6.1951480">
        <ele>826.6</ele>
        <time>2019-08-16T07:34:17Z</time>
      </trkpt>
      <trkpt lat="41.9915590" lon="-6.1951930">
        <ele>826.7</ele>
        <time>2019-08-16T07:34:18Z</time>
      </trkpt>
      <trkpt lat="41.9915740" lon="-6.1952380">
        <ele>826.8</ele>
        <time>2019-08-16T07:34:19Z</time>
      </trkpt>
      <trkpt lat="41.9915870" lon="-6.1952830">
        <ele>827.0</ele>
        <time>2019-08-16T07:34:20Z</time>
      </trkpt>
      <trkpt lat="41.9916000" lon="-6.1953290">
        <ele>827.1</ele>
        <time>2019-08-16T07:34:21Z</time>
      </trkpt>
      <trkpt lat="41.9916140" lon="-6.1953730">
        <ele>827.3</ele>
        <time>2019-08-16T07:34:22Z</time>
      </trkpt>
      <trkpt lat="41.9916270" lon="-6.1954170">
        <ele>827.4</ele>
        <time>2019-08-16T07:34:23Z</time>
      </trkpt>
      <trkpt lat="41.9916400" lon="-6.1954620">
        <ele>827.6</ele>
        <time>2019-08-16T07:34:24Z</time>
      </trkpt>
      <trkpt lat="41.9916520" lon="-6.1955050">
        <ele>827.7</ele>
        <time>2019-08-16T07:34:25Z</time>
      </trkpt>
      <trkpt lat="41.9916640" lon="-6.1955470">
        <ele>827.8</ele>
        <time>2019-08-16T07:34:26Z</time>
      </trkpt>
      <trkpt lat="41.9916760" lon="-6.1955890">
        <ele>827.9</ele>
        <time>2019-08-16T07:34:27Z</time>
      </trkpt>
      <trkpt lat="41.9916870" lon="-6.1956330">
        <ele>828.0</ele>
        <time>2019-08-16T07:34:28Z</time>
      </trkpt>
      <trkpt lat="41.9916980" lon="-6.1956790">
        <ele>828.1</ele>
        <time>2019-08-16T07:34:29Z</time>
      </trkpt>
      <trkpt lat="41.9917090" lon="-6.1957240">
        <ele>828.1</ele>
        <time>2019-08-16T07:34:30Z</time>
      </trkpt>
      <trkpt lat="41.9917220" lon="-6.1957680">
        <ele>828.1</ele>
        <time>2019-08-16T07:34:31Z</time>
      </trkpt>
      <trkpt lat="41.9917340" lon="-6.1958140">
        <ele>828.2</ele>
        <time>2019-08-16T07:34:32Z</time>
      </trkpt>
      <trkpt lat="41.9917460" lon="-6.1958600">
        <ele>828.2</ele>
        <time>2019-08-16T07:34:33Z</time>
      </trkpt>
      <trkpt lat="41.9917560" lon="-6.1959030">
        <ele>828.2</ele>
        <time>2019-08-16T07:34:34Z</time>
      </trkpt>
      <trkpt lat="41.9917680" lon="-6.1959450">
        <ele>828.2</ele>
        <time>2019-08-16T07:34:35Z</time>
      </trkpt>
      <trkpt lat="41.9917800" lon="-6.1959870">
        <ele>828.2</ele>
        <time>2019-08-16T07:34:36Z</time>
      </trkpt>
      <trkpt lat="41.9917920" lon="-6.1960300">
        <ele>828.2</ele>
        <time>2019-08-16T07:34:37Z</time>
      </trkpt>
      <trkpt lat="41.9918030" lon="-6.1960740">
        <ele>828.2</ele>
        <time>2019-08-16T07:34:38Z</time>
      </trkpt>
      <trkpt lat="41.9918160" lon="-6.1961170">
        <ele>828.2</ele>
        <time>2019-08-16T07:34:39Z</time>
      </trkpt>
      <trkpt lat="41.9918290" lon="-6.1961630">
        <ele>828.2</ele>
        <time>2019-08-16T07:34:40Z</time>
      </trkpt>
      <trkpt lat="41.9918410" lon="-6.1962100">
        <ele>828.2</ele>
        <time>2019-08-16T07:34:41Z</time>
      </trkpt>
      <trkpt lat="41.9918530" lon="-6.1962580">
        <ele>828.2</ele>
        <time>2019-08-16T07:34:42Z</time>
      </trkpt>
      <trkpt lat="41.9918660" lon="-6.1963060">
        <ele>828.2</ele>
        <time>2019-08-16T07:34:43Z</time>
      </trkpt>
      <trkpt lat="41.9918820" lon="-6.1963510">
        <ele>828.2</ele>
        <time>2019-08-16T07:34:44Z</time>
      </trkpt>
      <trkpt lat="41.9918980" lon="-6.1963950">
        <ele>828.2</ele>
        <time>2019-08-16T07:34:45Z</time>
      </trkpt>
      <trkpt lat="41.9919130" lon="-6.1964400">
        <ele>828.2</ele>
        <time>2019-08-16T07:34:46Z</time>
      </trkpt>
      <trkpt lat="41.9919240" lon="-6.1964900">
        <ele>828.2</ele>
        <time>2019-08-16T07:34:47Z</time>
      </trkpt>
      <trkpt lat="41.9919300" lon="-6.1965420">
        <ele>828.2</ele>
        <time>2019-08-16T07:34:48Z</time>
      </trkpt>
      <trkpt lat="41.9919370" lon="-6.1965960">
        <ele>828.2</ele>
        <time>2019-08-16T07:34:49Z</time>
      </trkpt>
      <trkpt lat="41.9919450" lon="-6.1966470">
        <ele>828.2</ele>
        <time>2019-08-16T07:34:50Z</time>
      </trkpt>
      <trkpt lat="41.9919500" lon="-6.1966960">
        <ele>828.3</ele>
        <time>2019-08-16T07:34:51Z</time>
      </trkpt>
      <trkpt lat="41.9919570" lon="-6.1967450">
        <ele>828.3</ele>
        <time>2019-08-16T07:34:52Z</time>
      </trkpt>
      <trkpt lat="41.9919640" lon="-6.1967930">
        <ele>828.4</ele>
        <time>2019-08-16T07:34:53Z</time>
      </trkpt>
      <trkpt lat="41.9919730" lon="-6.1968400">
        <ele>828.5</ele>
        <time>2019-08-16T07:34:54Z</time>
      </trkpt>
      <trkpt lat="41.9919830" lon="-6.1968880">
        <ele>828.5</ele>
        <time>2019-08-16T07:34:55Z</time>
      </trkpt>
      <trkpt lat="41.9919950" lon="-6.1969330">
        <ele>828.7</ele>
        <time>2019-08-16T07:34:56Z</time>
      </trkpt>
      <trkpt lat="41.9920080" lon="-6.1969760">
        <ele>828.8</ele>
        <time>2019-08-16T07:34:57Z</time>
      </trkpt>
      <trkpt lat="41.9920200" lon="-6.1970180">
        <ele>829.0</ele>
        <time>2019-08-16T07:34:58Z</time>
      </trkpt>
      <trkpt lat="41.9920300" lon="-6.1970600">
        <ele>829.1</ele>
        <time>2019-08-16T07:34:59Z</time>
      </trkpt>
      <trkpt lat="41.9920390" lon="-6.1971010">
        <ele>829.2</ele>
        <time>2019-08-16T07:35:00Z</time>
      </trkpt>
      <trkpt lat="41.9920470" lon="-6.1971390">
        <ele>829.3</ele>
        <time>2019-08-16T07:35:01Z</time>
      </trkpt>
      <trkpt lat="41.9920560" lon="-6.1971740">
        <ele>829.4</ele>
        <time>2019-08-16T07:35:02Z</time>
      </trkpt>
      <trkpt lat="41.9920680" lon="-6.1972060">
        <ele>829.6</ele>
        <time>2019-08-16T07:35:03Z</time>
      </trkpt>
      <trkpt lat="41.9920880" lon="-6.1972700">
        <ele>829.8</ele>
        <time>2019-08-16T07:35:05Z</time>
      </trkpt>
      <trkpt lat="41.9921040" lon="-6.1973280">
        <ele>830.0</ele>
        <time>2019-08-16T07:35:07Z</time>
      </trkpt>
      <trkpt lat="41.9921190" lon="-6.1973850">
        <ele>830.2</ele>
        <time>2019-08-16T07:35:09Z</time>
      </trkpt>
      <trkpt lat="41.9921380" lon="-6.1974460">
        <ele>830.5</ele>
        <time>2019-08-16T07:35:11Z</time>
      </trkpt>
      <trkpt lat="41.9921520" lon="-6.1975010">
        <ele>830.8</ele>
        <time>2019-08-16T07:35:13Z</time>
      </trkpt>
      <trkpt lat="41.9921700" lon="-6.1975470">
        <ele>831.1</ele>
        <time>2019-08-16T07:35:15Z</time>
      </trkpt>
      <trkpt lat="41.9921870" lon="-6.1975850">
        <ele>831.4</ele>
        <time>2019-08-16T07:35:17Z</time>
      </trkpt>
      <trkpt lat="41.9922060" lon="-6.1976210">
        <ele>831.7</ele>
        <time>2019-08-16T07:35:19Z</time>
      </trkpt>
      <trkpt lat="41.9922240" lon="-6.1976680">
        <ele>832.2</ele>
        <time>2019-08-16T07:35:21Z</time>
      </trkpt>
      <trkpt lat="41.9922450" lon="-6.1977160">
        <ele>832.6</ele>
        <time>2019-08-16T07:35:23Z</time>
      </trkpt>
      <trkpt lat="41.9922690" lon="-6.1977620">
        <ele>833.0</ele>
        <time>2019-08-16T07:35:25Z</time>
      </trkpt>
      <trkpt lat="41.9922860" lon="-6.1978100">
        <ele>833.5</ele>
        <time>2019-08-16T07:35:27Z</time>
      </trkpt>
      <trkpt lat="41.9923040" lon="-6.1978550">
        <ele>833.9</ele>
        <time>2019-08-16T07:35:29Z</time>
      </trkpt>
      <trkpt lat="41.9923250" lon="-6.1978990">
        <ele>834.3</ele>
        <time>2019-08-16T07:35:31Z</time>
      </trkpt>
      <trkpt lat="41.9923480" lon="-6.1979400">
        <ele>834.7</ele>
        <time>2019-08-16T07:35:33Z</time>
      </trkpt>
      <trkpt lat="41.9923680" lon="-6.1979850">
        <ele>835.0</ele>
        <time>2019-08-16T07:35:35Z</time>
      </trkpt>
      <trkpt lat="41.9923870" lon="-6.1980350">
        <ele>835.3</ele>
        <time>2019-08-16T07:35:37Z</time>
      </trkpt>
      <trkpt lat="41.9924060" lon="-6.1980790">
        <ele>835.6</ele>
        <time>2019-08-16T07:35:39Z</time>
      </trkpt>
      <trkpt lat="41.9924260" lon="-6.1981220">
        <ele>835.8</ele>
        <time>2019-08-16T07:35:41Z</time>
      </trkpt>
      <trkpt lat="41.9924400" lon="-6.1981810">
        <ele>836.0</ele>
        <time>2019-08-16T07:35:43Z</time>
      </trkpt>
      <trkpt lat="41.9924520" lon="-6.1982410">
        <ele>836.1</ele>
        <time>2019-08-16T07:35:45Z</time>
      </trkpt>
      <trkpt lat="41.9924650" lon="-6.1983000">
        <ele>836.2</ele>
        <time>2019-08-16T07:35:47Z</time>
      </trkpt>
      <trkpt lat="41.9924800" lon="-6.1983610">
        <ele>836.3</ele>
        <time>2019-08-16T07:35:49Z</time>
      </trkpt>
      <trkpt lat="41.9924980" lon="-6.1984180">
        <ele>836.3</ele>
        <time>2019-08-16T07:35:51Z</time>
      </trkpt>
      <trkpt lat="41.9925190" lon="-6.1984710">
        <ele>836.4</ele>
        <time>2019-08-16T07:35:53Z</time>
      </trkpt>
      <trkpt lat="41.9925400" lon="-6.1985220">
        <ele>836.4</ele>
        <time>2019-08-16T07:35:55Z</time>
      </trkpt>
      <trkpt lat="41.9925620" lon="-6.1985670">
        <ele>836.6</ele>
        <time>2019-08-16T07:35:57Z</time>
      </trkpt>
      <trkpt lat="41.9925870" lon="-6.1986140">
        <ele>836.7</ele>
        <time>2019-08-16T07:35:59Z</time>
      </trkpt>
      <trkpt lat="41.9926120" lon="-6.1986630">
        <ele>836.9</ele>
        <time>2019-08-16T07:36:01Z</time>
      </trkpt>
      <trkpt lat="41.9926310" lon="-6.1987240">
        <ele>837.2</ele>
        <time>2019-08-16T07:36:03Z</time>
      </trkpt>
      <trkpt lat="41.9926490" lon="-6.1987880">
        <ele>837.4</ele>
        <time>2019-08-16T07:36:05Z</time>
      </trkpt>
      <trkpt lat="41.9926640" lon="-6.1988560">
        <ele>837.6</ele>
        <time>2019-08-16T07:36:07Z</time>
      </trkpt>
      <trkpt lat="41.9926780" lon="-6.1989260">
        <ele>837.8</ele>
        <time>2019-08-16T07:36:09Z</time>
      </trkpt>
      <trkpt lat="41.9926860" lon="-6.1989630">
        <ele>837.8</ele>
        <time>2019-08-16T07:36:10Z</time>
      </trkpt>
      <trkpt lat="41.9926940" lon="-6.1990000">
        <ele>837.9</ele>
        <time>2019-08-16T07:36:11Z</time>
      </trkpt>
      <trkpt lat="41.9927020" lon="-6.1990370">
        <ele>837.9</ele>
        <time>2019-08-16T07:36:12Z</time>
      </trkpt>
      <trkpt lat="41.9927100" lon="-6.1990730">
        <ele>838.0</ele>
        <time>2019-08-16T07:36:13Z</time>
      </trkpt>
      <trkpt lat="41.9927180" lon="-6.1991100">
        <ele>838.0</ele>
        <time>2019-08-16T07:36:14Z</time>
      </trkpt>
      <trkpt lat="41.9927260" lon="-6.1991470">
        <ele>838.1</ele>
        <time>2019-08-16T07:36:15Z</time>
      </trkpt>
      <trkpt lat="41.9927360" lon="-6.1991810">
        <ele>838.1</ele>
        <time>2019-08-16T07:36:16Z</time>
      </trkpt>
      <trkpt lat="41.9927550" lon="-6.1992480">
        <ele>838.2</ele>
        <time>2019-08-16T07:36:18Z</time>
      </trkpt>
      <trkpt lat="41.9927650" lon="-6.1992840">
        <ele>838.2</ele>
        <time>2019-08-16T07:36:19Z</time>
      </trkpt>
      <trkpt lat="41.9927750" lon="-6.1993200">
        <ele>838.2</ele>
        <time>2019-08-16T07:36:20Z</time>
      </trkpt>
      <trkpt lat="41.9927840" lon="-6.1993560">
        <ele>838.3</ele>
        <time>2019-08-16T07:36:21Z</time>
      </trkpt>
      <trkpt lat="41.9927910" lon="-6.1993920">
        <ele>838.3</ele>
        <time>2019-08-16T07:36:22Z</time>
      </trkpt>
      <trkpt lat="41.9927980" lon="-6.1994280">
        <ele>838.4</ele>
        <time>2019-08-16T07:36:23Z</time>
      </trkpt>
      <trkpt lat="41.9928040" lon="-6.1994650">
        <ele>838.5</ele>
        <time>2019-08-16T07:36:24Z</time>
      </trkpt>
      <trkpt lat="41.9928090" lon="-6.1995030">
        <ele>838.6</ele>
        <time>2019-08-16T07:36:25Z</time>
      </trkpt>
      <trkpt lat="41.9928130" lon="-6.1995410">
        <ele>838.7</ele>
        <time>2019-08-16T07:36:26Z</time>
      </trkpt>
      <trkpt lat="41.9928160" lon="-6.1995790">
        <ele>838.8</ele>
        <time>2019-08-16T07:36:27Z</time>
      </trkpt>
      <trkpt lat="41.9928190" lon="-6.1996170">
        <ele>839.0</ele>
        <time>2019-08-16T07:36:28Z</time>
      </trkpt>
      <trkpt lat="41.9928210" lon="-6.1996550">
        <ele>839.1</ele>
        <time>2019-08-16T07:36:29Z</time>
      </trkpt>
      <trkpt lat="41.9928240" lon="-6.1996910">
        <ele>839.2</ele>
        <time>2019-08-16T07:36:30Z</time>
      </trkpt>
      <trkpt lat="41.9928310" lon="-6.1997590">
        <ele>839.4</ele>
        <time>2019-08-16T07:36:32Z</time>
      </trkpt>
      <trkpt lat="41.9928350" lon="-6.1998250">
        <ele>839.6</ele>
        <time>2019-08-16T07:36:34Z</time>
      </trkpt>
      <trkpt lat="41.9928420" lon="-6.1998930">
        <ele>839.8</ele>
        <time>2019-08-16T07:36:36Z</time>
      </trkpt>
      <trkpt lat="41.9928500" lon="-6.1999620">
        <ele>839.9</ele>
        <time>2019-08-16T07:36:38Z</time>
      </trkpt>
      <trkpt lat="41.9928620" lon="-6.2000260">
        <ele>840.1</ele>
        <time>2019-08-16T07:36:40Z</time>
      </trkpt>
      <trkpt lat="41.9928730" lon="-6.2000910">
        <ele>840.2</ele>
        <time>2019-08-16T07:36:42Z</time>
      </trkpt>
      <trkpt lat="41.9928840" lon="-6.2001560">
        <ele>840.5</ele>
        <time>2019-08-16T07:36:44Z</time>
      </trkpt>
      <trkpt lat="41.9928980" lon="-6.2002170">
        <ele>840.8</ele>
        <time>2019-08-16T07:36:46Z</time>
      </trkpt>
      <trkpt lat="41.9929100" lon="-6.2002760">
        <ele>841.1</ele>
        <time>2019-08-16T07:36:48Z</time>
      </trkpt>
      <trkpt lat="41.9929210" lon="-6.2003310">
        <ele>841.5</ele>
        <time>2019-08-16T07:36:50Z</time>
      </trkpt>
      <trkpt lat="41.9929320" lon="-6.2003820">
        <ele>841.8</ele>
        <time>2019-08-16T07:36:52Z</time>
      </trkpt>
      <trkpt lat="41.9929430" lon="-6.2004330">
        <ele>842.2</ele>
        <time>2019-08-16T07:36:54Z</time>
      </trkpt>
      <trkpt lat="41.9929550" lon="-6.2004820">
        <ele>842.5</ele>
        <time>2019-08-16T07:36:56Z</time>
      </trkpt>
      <trkpt lat="41.9929660" lon="-6.2005300">
        <ele>842.8</ele>
        <time>2019-08-16T07:36:58Z</time>
      </trkpt>
      <trkpt lat="41.9929790" lon="-6.2005780">
        <ele>843.1</ele>
        <time>2019-08-16T07:37:00Z</time>
      </trkpt>
      <trkpt lat="41.9929940" lon="-6.2006280">
        <ele>843.4</ele>
        <time>2019-08-16T07:37:02Z</time>
      </trkpt>
      <trkpt lat="41.9930100" lon="-6.2006790">
        <ele>843.8</ele>
        <time>2019-08-16T07:37:04Z</time>
      </trkpt>
      <trkpt lat="41.9930230" lon="-6.2007320">
        <ele>844.1</ele>
        <time>2019-08-16T07:37:06Z</time>
      </trkpt>
      <trkpt lat="41.9930340" lon="-6.2007860">
        <ele>844.4</ele>
        <time>2019-08-16T07:37:08Z</time>
      </trkpt>
      <trkpt lat="41.9930460" lon="-6.2008410">
        <ele>844.8</ele>
        <time>2019-08-16T07:37:10Z</time>
      </trkpt>
      <trkpt lat="41.9930560" lon="-6.2008920">
        <ele>845.0</ele>
        <time>2019-08-16T07:37:12Z</time>
      </trkpt>
      <trkpt lat="41.9930650" lon="-6.2009410">
        <ele>845.3</ele>
        <time>2019-08-16T07:37:14Z</time>
      </trkpt>
      <trkpt lat="41.9930740" lon="-6.2009870">
        <ele>845.5</ele>
        <time>2019-08-16T07:37:16Z</time>
      </trkpt>
      <trkpt lat="41.9930850" lon="-6.2010330">
        <ele>845.6</ele>
        <time>2019-08-16T07:37:18Z</time>
      </trkpt>
      <trkpt lat="41.9930960" lon="-6.2010780">
        <ele>845.7</ele>
        <time>2019-08-16T07:37:20Z</time>
      </trkpt>
      <trkpt lat="41.9931120" lon="-6.2011360">
        <ele>845.8</ele>
        <time>2019-08-16T07:37:22Z</time>
      </trkpt>
      <trkpt lat="41.9931380" lon="-6.2011960">
        <ele>845.8</ele>
        <time>2019-08-16T07:37:24Z</time>
      </trkpt>
      <trkpt lat="41.9931540" lon="-6.2012270">
        <ele>845.8</ele>
        <time>2019-08-16T07:37:25Z</time>
      </trkpt>
      <trkpt lat="41.9931710" lon="-6.2012620">
        <ele>845.8</ele>
        <time>2019-08-16T07:37:26Z</time>
      </trkpt>
      <trkpt lat="41.9931870" lon="-6.2013020">
        <ele>845.8</ele>
        <time>2019-08-16T07:37:27Z</time>
      </trkpt>
      <trkpt lat="41.9932030" lon="-6.2013440">
        <ele>845.8</ele>
        <time>2019-08-16T07:37:28Z</time>
      </trkpt>
      <trkpt lat="41.9932160" lon="-6.2013900">
        <ele>845.8</ele>
        <time>2019-08-16T07:37:29Z</time>
      </trkpt>
      <trkpt lat="41.9932260" lon="-6.2014370">
        <ele>845.7</ele>
        <time>2019-08-16T07:37:30Z</time>
      </trkpt>
      <trkpt lat="41.9932350" lon="-6.2014880">
        <ele>845.6</ele>
        <time>2019-08-16T07:37:31Z</time>
      </trkpt>
      <trkpt lat="41.9932440" lon="-6.2015400">
        <ele>845.5</ele>
        <time>2019-08-16T07:37:32Z</time>
      </trkpt>
      <trkpt lat="41.9932560" lon="-6.2015890">
        <ele>845.3</ele>
        <time>2019-08-16T07:37:33Z</time>
      </trkpt>
      <trkpt lat="41.9932700" lon="-6.2016360">
        <ele>845.1</ele>
        <time>2019-08-16T07:37:34Z</time>
      </trkpt>
      <trkpt lat="41.9932850" lon="-6.2016810">
        <ele>844.9</ele>
        <time>2019-08-16T07:37:35Z</time>
      </trkpt>
      <trkpt lat="41.9932960" lon="-6.2017270">
        <ele>844.6</ele>
        <time>2019-08-16T07:37:36Z</time>
      </trkpt>
      <trkpt lat="41.9933030" lon="-6.2017740">
        <ele>844.4</ele>
        <time>2019-08-16T07:37:37Z</time>
      </trkpt>
      <trkpt lat="41.9933110" lon="-6.2018210">
        <ele>844.0</ele>
        <time>2019-08-16T07:37:38Z</time>
      </trkpt>
      <trkpt lat="41.9933180" lon="-6.2018690">
        <ele>843.7</ele>
        <time>2019-08-16T07:37:39Z</time>
      </trkpt>
      <trkpt lat="41.9933270" lon="-6.2019150">
        <ele>843.3</ele>
        <time>2019-08-16T07:37:40Z</time>
      </trkpt>
      <trkpt lat="41.9933390" lon="-6.2019580">
        <ele>842.9</ele>
        <time>2019-08-16T07:37:41Z</time>
      </trkpt>
      <trkpt lat="41.9933540" lon="-6.2019980">
        <ele>842.6</ele>
        <time>2019-08-16T07:37:42Z</time>
      </trkpt>
      <trkpt lat="41.9933710" lon="-6.2020360">
        <ele>842.3</ele>
        <time>2019-08-16T07:37:43Z</time>
      </trkpt>
      <trkpt lat="41.9933890" lon="-6.2020740">
        <ele>841.9</ele>
        <time>2019-08-16T07:37:44Z</time>
      </trkpt>
      <trkpt lat="41.9934080" lon="-6.2021100">
        <ele>841.6</ele>
        <time>2019-08-16T07:37:45Z</time>
      </trkpt>
      <trkpt lat="41.9934260" lon="-6.2021450">
        <ele>841.3</ele>
        <time>2019-08-16T07:37:46Z</time>
      </trkpt>
      <trkpt lat="41.9934440" lon="-6.2021800">
        <ele>841.0</ele>
        <time>2019-08-16T07:37:47Z</time>
      </trkpt>
      <trkpt lat="41.9934630" lon="-6.2022150">
        <ele>840.7</ele>
        <time>2019-08-16T07:37:48Z</time>
      </trkpt>
      <trkpt lat="41.9934830" lon="-6.2022480">
        <ele>840.4</ele>
        <time>2019-08-16T07:37:49Z</time>
      </trkpt>
      <trkpt lat="41.9935040" lon="-6.2022790">
        <ele>840.0</ele>
        <time>2019-08-16T07:37:50Z</time>
      </trkpt>
      <trkpt lat="41.9935260" lon="-6.2023080">
        <ele>839.7</ele>
        <time>2019-08-16T07:37:51Z</time>
      </trkpt>
      <trkpt lat="41.9935500" lon="-6.2023360">
        <ele>839.4</ele>
        <time>2019-08-16T07:37:52Z</time>
      </trkpt>
      <trkpt lat="41.9935780" lon="-6.2023640">
        <ele>839.0</ele>
        <time>2019-08-16T07:37:53Z</time>
      </trkpt>
      <trkpt lat="41.9936080" lon="-6.2023950">
        <ele>838.6</ele>
        <time>2019-08-16T07:37:54Z</time>
      </trkpt>
      <trkpt lat="41.9936380" lon="-6.2024260">
        <ele>838.2</ele>
        <time>2019-08-16T07:37:55Z</time>
      </trkpt>
      <trkpt lat="41.9936670" lon="-6.2024560">
        <ele>837.7</ele>
        <time>2019-08-16T07:37:56Z</time>
      </trkpt>
      <trkpt lat="41.9936960" lon="-6.2024840">
        <ele>837.3</ele>
        <time>2019-08-16T07:37:57Z</time>
      </trkpt>
      <trkpt lat="41.9937270" lon="-6.2025130">
        <ele>836.9</ele>
        <time>2019-08-16T07:37:58Z</time>
      </trkpt>
      <trkpt lat="41.9937580" lon="-6.2025490">
        <ele>836.4</ele>
        <time>2019-08-16T07:37:59Z</time>
      </trkpt>
      <trkpt lat="41.9937870" lon="-6.2025930">
        <ele>835.9</ele>
        <time>2019-08-16T07:38:00Z</time>
      </trkpt>
      <trkpt lat="41.9938160" lon="-6.2026370">
        <ele>835.4</ele>
        <time>2019-08-16T07:38:01Z</time>
      </trkpt>
      <trkpt lat="41.9938480" lon="-6.2026800">
        <ele>834.9</ele>
        <time>2019-08-16T07:38:02Z</time>
      </trkpt>
      <trkpt lat="41.9938800" lon="-6.2027230">
        <ele>834.4</ele>
        <time>2019-08-16T07:38:03Z</time>
      </trkpt>
      <trkpt lat="41.9939110" lon="-6.2027660">
        <ele>833.9</ele>
        <time>2019-08-16T07:38:04Z</time>
      </trkpt>
      <trkpt lat="41.9939380" lon="-6.2028090">
        <ele>833.5</ele>
        <time>2019-08-16T07:38:05Z</time>
      </trkpt>
      <trkpt lat="41.9939620" lon="-6.2028550">
        <ele>833.0</ele>
        <time>2019-08-16T07:38:06Z</time>
      </trkpt>
      <trkpt lat="41.9939830" lon="-6.2029060">
        <ele>832.5</ele>
        <time>2019-08-16T07:38:07Z</time>
      </trkpt>
      <trkpt lat="41.9940040" lon="-6.2029570">
        <ele>832.0</ele>
        <time>2019-08-16T07:38:08Z</time>
      </trkpt>
      <trkpt lat="41.9940280" lon="-6.2030090">
        <ele>831.4</ele>
        <time>2019-08-16T07:38:09Z</time>
      </trkpt>
      <trkpt lat="41.9940590" lon="-6.2030600">
        <ele>830.9</ele>
        <time>2019-08-16T07:38:10Z</time>
      </trkpt>
      <trkpt lat="41.9940950" lon="-6.2031100">
        <ele>830.3</ele>
        <time>2019-08-16T07:38:11Z</time>
      </trkpt>
      <trkpt lat="41.9941300" lon="-6.2031580">
        <ele>829.8</ele>
        <time>2019-08-16T07:38:12Z</time>
      </trkpt>
      <trkpt lat="41.9941620" lon="-6.2032010">
        <ele>829.3</ele>
        <time>2019-08-16T07:38:13Z</time>
      </trkpt>
      <trkpt lat="41.9941960" lon="-6.2032370">
        <ele>828.9</ele>
        <time>2019-08-16T07:38:14Z</time>
      </trkpt>
      <trkpt lat="41.9942350" lon="-6.2032710">
        <ele>828.6</ele>
        <time>2019-08-16T07:38:15Z</time>
      </trkpt>
      <trkpt lat="41.9942740" lon="-6.2032970">
        <ele>828.2</ele>
        <time>2019-08-16T07:38:16Z</time>
      </trkpt>
      <trkpt lat="41.9943100" lon="-6.2033160">
        <ele>827.9</ele>
        <time>2019-08-16T07:38:17Z</time>
      </trkpt>
      <trkpt lat="41.9943390" lon="-6.2033420">
        <ele>827.7</ele>
        <time>2019-08-16T07:38:18Z</time>
      </trkpt>
      <trkpt lat="41.9943630" lon="-6.2033770">
        <ele>827.4</ele>
        <time>2019-08-16T07:38:19Z</time>
      </trkpt>
      <trkpt lat="41.9943830" lon="-6.2034190">
        <ele>827.2</ele>
        <time>2019-08-16T07:38:20Z</time>
      </trkpt>
      <trkpt lat="41.9944020" lon="-6.2034660">
        <ele>826.9</ele>
        <time>2019-08-16T07:38:21Z</time>
      </trkpt>
      <trkpt lat="41.9944220" lon="-6.2035150">
        <ele>826.6</ele>
        <time>2019-08-16T07:38:22Z</time>
      </trkpt>
      <trkpt lat="41.9944450" lon="-6.2035620">
        <ele>826.3</ele>
        <time>2019-08-16T07:38:23Z</time>
      </trkpt>
      <trkpt lat="41.9944700" lon="-6.2036060">
        <ele>826.0</ele>
        <time>2019-08-16T07:38:24Z</time>
      </trkpt>
      <trkpt lat="41.9944980" lon="-6.2036470">
        <ele>825.7</ele>
        <time>2019-08-16T07:38:25Z</time>
      </trkpt>
      <trkpt lat="41.9945300" lon="-6.2036890">
        <ele>825.4</ele>
        <time>2019-08-16T07:38:26Z</time>
      </trkpt>
      <trkpt lat="41.9945630" lon="-6.2037290">
        <ele>825.1</ele>
        <time>2019-08-16T07:38:27Z</time>
      </trkpt>
      <trkpt lat="41.9945980" lon="-6.2037700">
        <ele>824.7</ele>
        <time>2019-08-16T07:38:28Z</time>
      </trkpt>
      <trkpt lat="41.9946310" lon="-6.2038110">
        <ele>824.3</ele>
        <time>2019-08-16T07:38:29Z</time>
      </trkpt>
      <trkpt lat="41.9946580" lon="-6.2038570">
        <ele>823.9</ele>
        <time>2019-08-16T07:38:30Z</time>
      </trkpt>
      <trkpt lat="41.9946840" lon="-6.2039060">
        <ele>823.5</ele>
        <time>2019-08-16T07:38:31Z</time>
      </trkpt>
      <trkpt lat="41.9947100" lon="-6.2039580">
        <ele>823.0</ele>
        <time>2019-08-16T07:38:32Z</time>
      </trkpt>
      <trkpt lat="41.9947390" lon="-6.2040120">
        <ele>822.5</ele>
        <time>2019-08-16T07:38:33Z</time>
      </trkpt>
      <trkpt lat="41.9947670" lon="-6.2040640">
        <ele>821.9</ele>
        <time>2019-08-16T07:38:34Z</time>
      </trkpt>
      <trkpt lat="41.9947960" lon="-6.2041180">
        <ele>821.3</ele>
        <time>2019-08-16T07:38:35Z</time>
      </trkpt>
      <trkpt lat="41.9948230" lon="-6.2041670">
        <ele>820.8</ele>
        <time>2019-08-16T07:38:36Z</time>
      </trkpt>
      <trkpt lat="41.9948480" lon="-6.2042130">
        <ele>820.3</ele>
        <time>2019-08-16T07:38:37Z</time>
      </trkpt>
      <trkpt lat="41.9948720" lon="-6.2042550">
        <ele>819.9</ele>
        <time>2019-08-16T07:38:38Z</time>
      </trkpt>
      <trkpt lat="41.9948990" lon="-6.2042950">
        <ele>819.5</ele>
        <time>2019-08-16T07:38:39Z</time>
      </trkpt>
      <trkpt lat="41.9949260" lon="-6.2043340">
        <ele>819.1</ele>
        <time>2019-08-16T07:38:40Z</time>
      </trkpt>
      <trkpt lat="41.9949500" lon="-6.2043740">
        <ele>818.7</ele>
        <time>2019-08-16T07:38:41Z</time>
      </trkpt>
      <trkpt lat="41.9949730" lon="-6.2044160">
        <ele>818.4</ele>
        <time>2019-08-16T07:38:42Z</time>
      </trkpt>
      <trkpt lat="41.9949990" lon="-6.2044580">
        <ele>818.0</ele>
        <time>2019-08-16T07:38:43Z</time>
      </trkpt>
      <trkpt lat="41.9950280" lon="-6.2045020">
        <ele>817.7</ele>
        <time>2019-08-16T07:38:44Z</time>
      </trkpt>
      <trkpt lat="41.9950570" lon="-6.2045490">
        <ele>817.3</ele>
        <time>2019-08-16T07:38:45Z</time>
      </trkpt>
      <trkpt lat="41.9950830" lon="-6.2046010">
        <ele>817.0</ele>
        <time>2019-08-16T07:38:46Z</time>
      </trkpt>
      <trkpt lat="41.9951030" lon="-6.2046600">
        <ele>816.7</ele>
        <time>2019-08-16T07:38:47Z</time>
      </trkpt>
      <trkpt lat="41.9951240" lon="-6.2047220">
        <ele>816.3</ele>
        <time>2019-08-16T07:38:48Z</time>
      </trkpt>
      <trkpt lat="41.9951500" lon="-6.2047850">
        <ele>815.9</ele>
        <time>2019-08-16T07:38:49Z</time>
      </trkpt>
      <trkpt lat="41.9951760" lon="-6.2048540">
        <ele>815.4</ele>
        <time>2019-08-16T07:38:50Z</time>
      </trkpt>
      <trkpt lat="41.9952050" lon="-6.2049260">
        <ele>814.9</ele>
        <time>2019-08-16T07:38:51Z</time>
      </trkpt>
      <trkpt lat="41.9952360" lon="-6.2050020">
        <ele>814.4</ele>
        <time>2019-08-16T07:38:52Z</time>
      </trkpt>
      <trkpt lat="41.9952680" lon="-6.2050810">
        <ele>813.9</ele>
        <time>2019-08-16T07:38:53Z</time>
      </trkpt>
      <trkpt lat="41.9953030" lon="-6.2051610">
        <ele>813.5</ele>
        <time>2019-08-16T07:38:54Z</time>
      </trkpt>
      <trkpt lat="41.9953360" lon="-6.2052380">
        <ele>813.1</ele>
        <time>2019-08-16T07:38:55Z</time>
      </trkpt>
      <trkpt lat="41.9953710" lon="-6.2053110">
        <ele>812.7</ele>
        <time>2019-08-16T07:38:56Z</time>
      </trkpt>
      <trkpt lat="41.9954050" lon="-6.2053800">
        <ele>812.3</ele>
        <time>2019-08-16T07:38:57Z</time>
      </trkpt>
      <trkpt lat="41.9954350" lon="-6.2054490">
        <ele>811.9</ele>
        <time>2019-08-16T07:38:58Z</time>
      </trkpt>
      <trkpt lat="41.9954620" lon="-6.2055180">
        <ele>811.5</ele>
        <time>2019-08-16T07:38:59Z</time>
      </trkpt>
      <trkpt lat="41.9954900" lon="-6.2055900">
        <ele>811.1</ele>
        <time>2019-08-16T07:39:00Z</time>
      </trkpt>
      <trkpt lat="41.9955140" lon="-6.2056660">
        <ele>810.6</ele>
        <time>2019-08-16T07:39:01Z</time>
      </trkpt>
      <trkpt lat="41.9955360" lon="-6.2057460">
        <ele>810.2</ele>
        <time>2019-08-16T07:39:02Z</time>
      </trkpt>
      <trkpt lat="41.9955540" lon="-6.2058310">
        <ele>809.6</ele>
        <time>2019-08-16T07:39:03Z</time>
      </trkpt>
      <trkpt lat="41.9955690" lon="-6.2059200">
        <ele>809.0</ele>
        <time>2019-08-16T07:39:04Z</time>
      </trkpt>
      <trkpt lat="41.9955880" lon="-6.2060080">
        <ele>808.3</ele>
        <time>2019-08-16T07:39:05Z</time>
      </trkpt>
      <trkpt lat="41.9956090" lon="-6.2060980">
        <ele>807.6</ele>
        <time>2019-08-16T07:39:06Z</time>
      </trkpt>
      <trkpt lat="41.9956360" lon="-6.2061850">
        <ele>807.0</ele>
        <time>2019-08-16T07:39:07Z</time>
      </trkpt>
      <trkpt lat="41.9956670" lon="-6.2062720">
        <ele>806.6</ele>
        <time>2019-08-16T07:39:08Z</time>
      </trkpt>
      <trkpt lat="41.9956990" lon="-6.2063600">
        <ele>806.2</ele>
        <time>2019-08-16T07:39:09Z</time>
      </trkpt>
      <trkpt lat="41.9957310" lon="-6.2064490">
        <ele>806.0</ele>
        <time>2019-08-16T07:39:10Z</time>
      </trkpt>
      <trkpt lat="41.9957650" lon="-6.2065370">
        <ele>805.9</ele>
        <time>2019-08-16T07:39:11Z</time>
      </trkpt>
      <trkpt lat="41.9958020" lon="-6.2066250">
        <ele>805.9</ele>
        <time>2019-08-16T07:39:12Z</time>
      </trkpt>
      <trkpt lat="41.9958390" lon="-6.2067130">
        <ele>805.9</ele>
        <time>2019-08-16T07:39:13Z</time>
      </trkpt>
      <trkpt lat="41.9958720" lon="-6.2068000">
        <ele>805.9</ele>
        <time>2019-08-16T07:39:14Z</time>
      </trkpt>
      <trkpt lat="41.9959040" lon="-6.2068890">
        <ele>805.8</ele>
        <time>2019-08-16T07:39:15Z</time>
      </trkpt>
      <trkpt lat="41.9959360" lon="-6.2069750">
        <ele>805.8</ele>
        <time>2019-08-16T07:39:16Z</time>
      </trkpt>
      <trkpt lat="41.9959730" lon="-6.2070570">
        <ele>805.8</ele>
        <time>2019-08-16T07:39:17Z</time>
      </trkpt>
      <trkpt lat="41.9960150" lon="-6.2071320">
        <ele>805.7</ele>
        <time>2019-08-16T07:39:18Z</time>
      </trkpt>
      <trkpt lat="41.9960620" lon="-6.2071960">
        <ele>805.6</ele>
        <time>2019-08-16T07:39:19Z</time>
      </trkpt>
      <trkpt lat="41.9961070" lon="-6.2072570">
        <ele>805.4</ele>
        <time>2019-08-16T07:39:20Z</time>
      </trkpt>
      <trkpt lat="41.9961530" lon="-6.2073140">
        <ele>805.2</ele>
        <time>2019-08-16T07:39:21Z</time>
      </trkpt>
      <trkpt lat="41.9962010" lon="-6.2073690">
        <ele>804.9</ele>
        <time>2019-08-16T07:39:22Z</time>
      </trkpt>
      <trkpt lat="41.9962470" lon="-6.2074190">
        <ele>804.7</ele>
        <time>2019-08-16T07:39:23Z</time>
      </trkpt>
      <trkpt lat="41.9962900" lon="-6.2074700">
        <ele>804.5</ele>
        <time>2019-08-16T07:39:24Z</time>
      </trkpt>
      <trkpt lat="41.9963290" lon="-6.2075210">
        <ele>804.4</ele>
        <time>2019-08-16T07:39:25Z</time>
      </trkpt>
      <trkpt lat="41.9963670" lon="-6.2075750">
        <ele>804.3</ele>
        <time>2019-08-16T07:39:26Z</time>
      </trkpt>
      <trkpt lat="41.9964030" lon="-6.2076300">
        <ele>804.2</ele>
        <time>2019-08-16T07:39:27Z</time>
      </trkpt>
      <trkpt lat="41.9964390" lon="-6.2076830">
        <ele>804.2</ele>
        <time>2019-08-16T07:39:28Z</time>
      </trkpt>
      <trkpt lat="41.9964760" lon="-6.2077350">
        <ele>804.2</ele>
        <time>2019-08-16T07:39:29Z</time>
      </trkpt>
      <trkpt lat="41.9965130" lon="-6.2077860">
        <ele>804.2</ele>
        <time>2019-08-16T07:39:30Z</time>
      </trkpt>
      <trkpt lat="41.9965490" lon="-6.2078390">
        <ele>804.1</ele>
        <time>2019-08-16T07:39:31Z</time>
      </trkpt>
      <trkpt lat="41.9965810" lon="-6.2078940">
        <ele>804.1</ele>
        <time>2019-08-16T07:39:32Z</time>
      </trkpt>
      <trkpt lat="41.9966130" lon="-6.2079520">
        <ele>804.0</ele>
        <time>2019-08-16T07:39:33Z</time>
      </trkpt>
      <trkpt lat="41.9966440" lon="-6.2080090">
        <ele>803.8</ele>
        <time>2019-08-16T07:39:34Z</time>
      </trkpt>
      <trkpt lat="41.9966760" lon="-6.2080690">
        <ele>803.6</ele>
        <time>2019-08-16T07:39:35Z</time>
      </trkpt>
      <trkpt lat="41.9967060" lon="-6.2081370">
        <ele>803.4</ele>
        <time>2019-08-16T07:39:36Z</time>
      </trkpt>
      <trkpt lat="41.9967360" lon="-6.2082140">
        <ele>803.0</ele>
        <time>2019-08-16T07:39:37Z</time>
      </trkpt>
      <trkpt lat="41.9967620" lon="-6.2082980">
        <ele>802.7</ele>
        <time>2019-08-16T07:39:38Z</time>
      </trkpt>
      <trkpt lat="41.9967910" lon="-6.2083850">
        <ele>802.2</ele>
        <time>2019-08-16T07:39:39Z</time>
      </trkpt>
      <trkpt lat="41.9968290" lon="-6.2084690">
        <ele>801.7</ele>
        <time>2019-08-16T07:39:40Z</time>
      </trkpt>
      <trkpt lat="41.9968670" lon="-6.2085540">
        <ele>801.1</ele>
        <time>2019-08-16T07:39:41Z</time>
      </trkpt>
      <trkpt lat="41.9969010" lon="-6.2086420">
        <ele>800.6</ele>
        <time>2019-08-16T07:39:42Z</time>
      </trkpt>
      <trkpt lat="41.9969280" lon="-6.2087300">
        <ele>800.2</ele>
        <time>2019-08-16T07:39:43Z</time>
      </trkpt>
      <trkpt lat="41.9969520" lon="-6.2088170">
        <ele>800.0</ele>
        <time>2019-08-16T07:39:44Z</time>
      </trkpt>
      <trkpt lat="41.9969740" lon="-6.2088970">
        <ele>799.8</ele>
        <time>2019-08-16T07:39:45Z</time>
      </trkpt>
      <trkpt lat="41.9970000" lon="-6.2089700">
        <ele>799.8</ele>
        <time>2019-08-16T07:39:46Z</time>
      </trkpt>
      <trkpt lat="41.9970260" lon="-6.2090390">
        <ele>799.7</ele>
        <time>2019-08-16T07:39:47Z</time>
      </trkpt>
      <trkpt lat="41.9970520" lon="-6.2091020">
        <ele>799.7</ele>
        <time>2019-08-16T07:39:48Z</time>
      </trkpt>
      <trkpt lat="41.9970770" lon="-6.2091610">
        <ele>799.7</ele>
        <time>2019-08-16T07:39:49Z</time>
      </trkpt>
      <trkpt lat="41.9970990" lon="-6.2092150">
        <ele>799.7</ele>
        <time>2019-08-16T07:39:50Z</time>
      </trkpt>
      <trkpt lat="41.9971190" lon="-6.2092680">
        <ele>799.7</ele>
        <time>2019-08-16T07:39:51Z</time>
      </trkpt>
      <trkpt lat="41.9971390" lon="-6.2093160">
        <ele>799.7</ele>
        <time>2019-08-16T07:39:52Z</time>
      </trkpt>
      <trkpt lat="41.9971580" lon="-6.2093560">
        <ele>799.7</ele>
        <time>2019-08-16T07:39:53Z</time>
      </trkpt>
      <trkpt lat="41.9971750" lon="-6.2093920">
        <ele>799.7</ele>
        <time>2019-08-16T07:39:54Z</time>
      </trkpt>
      <trkpt lat="41.9971910" lon="-6.2094260">
        <ele>799.7</ele>
        <time>2019-08-16T07:39:55Z</time>
      </trkpt>
      <trkpt lat="41.9972060" lon="-6.2094580">
        <ele>799.7</ele>
        <time>2019-08-16T07:39:56Z</time>
      </trkpt>
      <trkpt lat="41.9972190" lon="-6.2094900">
        <ele>799.7</ele>
        <time>2019-08-16T07:39:57Z</time>
      </trkpt>
      <trkpt lat="41.9972310" lon="-6.2095230">
        <ele>799.7</ele>
        <time>2019-08-16T07:39:58Z</time>
      </trkpt>
      <trkpt lat="41.9972530" lon="-6.2095890">
        <ele>799.7</ele>
        <time>2019-08-16T07:40:00Z</time>
      </trkpt>
      <trkpt lat="41.9972640" lon="-6.2096220">
        <ele>799.7</ele>
        <time>2019-08-16T07:40:01Z</time>
      </trkpt>
      <trkpt lat="41.9972760" lon="-6.2096550">
        <ele>799.7</ele>
        <time>2019-08-16T07:40:02Z</time>
      </trkpt>
      <trkpt lat="41.9973020" lon="-6.2097090">
        <ele>799.7</ele>
        <time>2019-08-16T07:40:04Z</time>
      </trkpt>
      <trkpt lat="41.9973230" lon="-6.2097430">
        <ele>799.7</ele>
        <time>2019-08-16T07:40:09Z</time>
      </trkpt>
      <trkpt lat="41.9973420" lon="-6.2097770">
        <ele>799.7</ele>
        <time>2019-08-16T07:40:11Z</time>
      </trkpt>
      <trkpt lat="41.9973700" lon="-6.2098220">
        <ele>799.7</ele>
        <time>2019-08-16T07:40:13Z</time>
      </trkpt>
      <trkpt lat="41.9974000" lon="-6.2098770">
        <ele>799.7</ele>
        <time>2019-08-16T07:40:15Z</time>
      </trkpt>
      <trkpt lat="41.9974180" lon="-6.2099040">
        <ele>799.7</ele>
        <time>2019-08-16T07:40:16Z</time>
      </trkpt>
      <trkpt lat="41.9974510" lon="-6.2099580">
        <ele>799.7</ele>
        <time>2019-08-16T07:40:18Z</time>
      </trkpt>
      <trkpt lat="41.9974840" lon="-6.2100130">
        <ele>799.7</ele>
        <time>2019-08-16T07:40:20Z</time>
      </trkpt>
      <trkpt lat="41.9975030" lon="-6.2100400">
        <ele>799.7</ele>
        <time>2019-08-16T07:40:21Z</time>
      </trkpt>
      <trkpt lat="41.9975230" lon="-6.2100690">
        <ele>799.7</ele>
        <time>2019-08-16T07:40:22Z</time>
      </trkpt>
      <trkpt lat="41.9975440" lon="-6.2100980">
        <ele>799.7</ele>
        <time>2019-08-16T07:40:23Z</time>
      </trkpt>
      <trkpt lat="41.9975650" lon="-6.2101280">
        <ele>799.7</ele>
        <time>2019-08-16T07:40:24Z</time>
      </trkpt>
      <trkpt lat="41.9975860" lon="-6.2101580">
        <ele>799.7</ele>
        <time>2019-08-16T07:40:25Z</time>
      </trkpt>
      <trkpt lat="41.9976070" lon="-6.2101860">
        <ele>799.7</ele>
        <time>2019-08-16T07:40:26Z</time>
      </trkpt>
      <trkpt lat="41.9976260" lon="-6.2102130">
        <ele>799.7</ele>
        <time>2019-08-16T07:40:27Z</time>
      </trkpt>
      <trkpt lat="41.9976640" lon="-6.2102660">
        <ele>799.7</ele>
        <time>2019-08-16T07:40:29Z</time>
      </trkpt>
      <trkpt lat="41.9976830" lon="-6.2102940">
        <ele>799.7</ele>
        <time>2019-08-16T07:40:30Z</time>
      </trkpt>
      <trkpt lat="41.9977040" lon="-6.2103230">
        <ele>799.7</ele>
        <time>2019-08-16T07:40:31Z</time>
      </trkpt>
      <trkpt lat="41.9977240" lon="-6.2103510">
        <ele>799.7</ele>
        <time>2019-08-16T07:40:32Z</time>
      </trkpt>
      <trkpt lat="41.9977450" lon="-6.2103800">
        <ele>799.7</ele>
        <time>2019-08-16T07:40:33Z</time>
      </trkpt>
      <trkpt lat="41.9977670" lon="-6.2104080">
        <ele>799.7</ele>
        <time>2019-08-16T07:40:34Z</time>
      </trkpt>
      <trkpt lat="41.9977900" lon="-6.2104330">
        <ele>799.7</ele>
        <time>2019-08-16T07:40:35Z</time>
      </trkpt>
      <trkpt lat="41.9978130" lon="-6.2104580">
        <ele>799.7</ele>
        <time>2019-08-16T07:40:36Z</time>
      </trkpt>
      <trkpt lat="41.9978360" lon="-6.2104810">
        <ele>799.7</ele>
        <time>2019-08-16T07:40:37Z</time>
      </trkpt>
      <trkpt lat="41.9978570" lon="-6.2105040">
        <ele>799.7</ele>
        <time>2019-08-16T07:40:38Z</time>
      </trkpt>
      <trkpt lat="41.9979000" lon="-6.2105480">
        <ele>799.8</ele>
        <time>2019-08-16T07:40:40Z</time>
      </trkpt>
      <trkpt lat="41.9979410" lon="-6.2105880">
        <ele>800.0</ele>
        <time>2019-08-16T07:40:42Z</time>
      </trkpt>
      <trkpt lat="41.9979810" lon="-6.2106210">
        <ele>800.2</ele>
        <time>2019-08-16T07:40:44Z</time>
      </trkpt>
      <trkpt lat="41.9980180" lon="-6.2106470">
        <ele>800.4</ele>
        <time>2019-08-16T07:40:46Z</time>
      </trkpt>
      <trkpt lat="41.9980540" lon="-6.2106730">
        <ele>800.6</ele>
        <time>2019-08-16T07:40:48Z</time>
      </trkpt>
      <trkpt lat="41.9980920" lon="-6.2106980">
        <ele>800.8</ele>
        <time>2019-08-16T07:40:50Z</time>
      </trkpt>
      <trkpt lat="41.9981320" lon="-6.2107210">
        <ele>801.1</ele>
        <time>2019-08-16T07:40:52Z</time>
      </trkpt>
      <trkpt lat="41.9981740" lon="-6.2107450">
        <ele>801.3</ele>
        <time>2019-08-16T07:40:54Z</time>
      </trkpt>
      <trkpt lat="41.9982160" lon="-6.2107630">
        <ele>801.6</ele>
        <time>2019-08-16T07:40:56Z</time>
      </trkpt>
      <trkpt lat="41.9982560" lon="-6.2107780">
        <ele>801.8</ele>
        <time>2019-08-16T07:40:58Z</time>
      </trkpt>
      <trkpt lat="41.9982900" lon="-6.2107900">
        <ele>802.0</ele>
        <time>2019-08-16T07:41:00Z</time>
      </trkpt>
      <trkpt lat="41.9983250" lon="-6.2107940">
        <ele>802.2</ele>
        <time>2019-08-16T07:41:02Z</time>
      </trkpt>
      <trkpt lat="41.9983590" lon="-6.2107970">
        <ele>802.4</ele>
        <time>2019-08-16T07:41:04Z</time>
      </trkpt>
      <trkpt lat="41.9983910" lon="-6.2107930">
        <ele>802.5</ele>
        <time>2019-08-16T07:41:06Z</time>
      </trkpt>
      <trkpt lat="41.9984190" lon="-6.2107990">
        <ele>802.7</ele>
        <time>2019-08-16T07:41:14Z</time>
      </trkpt>
      <trkpt lat="41.9984530" lon="-6.2108300">
        <ele>802.9</ele>
        <time>2019-08-16T07:41:17Z</time>
      </trkpt>
      <trkpt lat="41.9984800" lon="-6.2108550">
        <ele>803.1</ele>
        <time>2019-08-16T07:41:19Z</time>
      </trkpt>
      <trkpt lat="41.9985110" lon="-6.2108810">
        <ele>803.4</ele>
        <time>2019-08-16T07:41:21Z</time>
      </trkpt>
      <trkpt lat="41.9985420" lon="-6.2109100">
        <ele>803.6</ele>
        <time>2019-08-16T07:41:23Z</time>
      </trkpt>
      <trkpt lat="41.9985730" lon="-6.2109400">
        <ele>803.8</ele>
        <time>2019-08-16T07:41:25Z</time>
      </trkpt>
      <trkpt lat="41.9986000" lon="-6.2109740">
        <ele>804.0</ele>
        <time>2019-08-16T07:41:27Z</time>
      </trkpt>
      <trkpt lat="41.9986270" lon="-6.2110160">
        <ele>804.2</ele>
        <time>2019-08-16T07:41:29Z</time>
      </trkpt>
      <trkpt lat="41.9986560" lon="-6.2110610">
        <ele>804.4</ele>
        <time>2019-08-16T07:41:31Z</time>
      </trkpt>
      <trkpt lat="41.9986880" lon="-6.2111110">
        <ele>804.6</ele>
        <time>2019-08-16T07:41:33Z</time>
      </trkpt>
      <trkpt lat="41.9987210" lon="-6.2111670">
        <ele>804.9</ele>
        <time>2019-08-16T07:41:35Z</time>
      </trkpt>
      <trkpt lat="41.9987390" lon="-6.2111960">
        <ele>805.0</ele>
        <time>2019-08-16T07:41:36Z</time>
      </trkpt>
      <trkpt lat="41.9987570" lon="-6.2112270">
        <ele>805.1</ele>
        <time>2019-08-16T07:41:37Z</time>
      </trkpt>
      <trkpt lat="41.9987760" lon="-6.2112590">
        <ele>805.2</ele>
        <time>2019-08-16T07:41:38Z</time>
      </trkpt>
      <trkpt lat="41.9987960" lon="-6.2112940">
        <ele>805.3</ele>
        <time>2019-08-16T07:41:39Z</time>
      </trkpt>
      <trkpt lat="41.9988170" lon="-6.2113290">
        <ele>805.4</ele>
        <time>2019-08-16T07:41:40Z</time>
      </trkpt>
      <trkpt lat="41.9988400" lon="-6.2113670">
        <ele>805.4</ele>
        <time>2019-08-16T07:41:41Z</time>
      </trkpt>
      <trkpt lat="41.9988640" lon="-6.2114040">
        <ele>805.5</ele>
        <time>2019-08-16T07:41:42Z</time>
      </trkpt>
      <trkpt lat="41.9988870" lon="-6.2114400">
        <ele>805.6</ele>
        <time>2019-08-16T07:41:43Z</time>
      </trkpt>
      <trkpt lat="41.9989090" lon="-6.2114740">
        <ele>805.6</ele>
        <time>2019-08-16T07:41:44Z</time>
      </trkpt>
      <trkpt lat="41.9989320" lon="-6.2115060">
        <ele>805.6</ele>
        <time>2019-08-16T07:41:45Z</time>
      </trkpt>
      <trkpt lat="41.9989540" lon="-6.2115360">
        <ele>805.7</ele>
        <time>2019-08-16T07:41:46Z</time>
      </trkpt>
      <trkpt lat="41.9989760" lon="-6.2115660">
        <ele>805.7</ele>
        <time>2019-08-16T07:41:47Z</time>
      </trkpt>
      <trkpt lat="41.9989990" lon="-6.2115950">
        <ele>805.7</ele>
        <time>2019-08-16T07:41:48Z</time>
      </trkpt>
      <trkpt lat="41.9990230" lon="-6.2116240">
        <ele>805.7</ele>
        <time>2019-08-16T07:41:49Z</time>
      </trkpt>
      <trkpt lat="41.9990510" lon="-6.2116550">
        <ele>805.7</ele>
        <time>2019-08-16T07:41:50Z</time>
      </trkpt>
      <trkpt lat="41.9990800" lon="-6.2116900">
        <ele>805.7</ele>
        <time>2019-08-16T07:41:51Z</time>
      </trkpt>
      <trkpt lat="41.9991120" lon="-6.2117250">
        <ele>805.7</ele>
        <time>2019-08-16T07:41:52Z</time>
      </trkpt>
      <trkpt lat="41.9991460" lon="-6.2117620">
        <ele>805.7</ele>
        <time>2019-08-16T07:41:53Z</time>
      </trkpt>
      <trkpt lat="41.9991810" lon="-6.2117990">
        <ele>805.7</ele>
        <time>2019-08-16T07:41:54Z</time>
      </trkpt>
      <trkpt lat="41.9992180" lon="-6.2118350">
        <ele>805.7</ele>
        <time>2019-08-16T07:41:55Z</time>
      </trkpt>
      <trkpt lat="41.9992550" lon="-6.2118670">
        <ele>805.7</ele>
        <time>2019-08-16T07:41:56Z</time>
      </trkpt>
      <trkpt lat="41.9992920" lon="-6.2118950">
        <ele>805.7</ele>
        <time>2019-08-16T07:41:57Z</time>
      </trkpt>
      <trkpt lat="41.9993280" lon="-6.2119220">
        <ele>805.7</ele>
        <time>2019-08-16T07:41:58Z</time>
      </trkpt>
      <trkpt lat="41.9993630" lon="-6.2119470">
        <ele>805.7</ele>
        <time>2019-08-16T07:41:59Z</time>
      </trkpt>
      <trkpt lat="41.9993960" lon="-6.2119680">
        <ele>805.7</ele>
        <time>2019-08-16T07:42:00Z</time>
      </trkpt>
      <trkpt lat="41.9994260" lon="-6.2119850">
        <ele>805.7</ele>
        <time>2019-08-16T07:42:01Z</time>
      </trkpt>
      <trkpt lat="41.9994540" lon="-6.2119990">
        <ele>805.7</ele>
        <time>2019-08-16T07:42:02Z</time>
      </trkpt>
      <trkpt lat="41.9994990" lon="-6.2120220">
        <ele>805.7</ele>
        <time>2019-08-16T07:42:04Z</time>
      </trkpt>
      <trkpt lat="41.9995470" lon="-6.2120410">
        <ele>805.7</ele>
        <time>2019-08-16T07:42:06Z</time>
      </trkpt>
      <trkpt lat="41.9995800" lon="-6.2120450">
        <ele>805.7</ele>
        <time>2019-08-16T07:42:07Z</time>
      </trkpt>
      <trkpt lat="41.9996180" lon="-6.2120410">
        <ele>805.6</ele>
        <time>2019-08-16T07:42:08Z</time>
      </trkpt>
      <trkpt lat="41.9996610" lon="-6.2120320">
        <ele>805.5</ele>
        <time>2019-08-16T07:42:09Z</time>
      </trkpt>
      <trkpt lat="41.9997050" lon="-6.2120190">
        <ele>805.3</ele>
        <time>2019-08-16T07:42:10Z</time>
      </trkpt>
      <trkpt lat="41.9997520" lon="-6.2120020">
        <ele>805.2</ele>
        <time>2019-08-16T07:42:11Z</time>
      </trkpt>
      <trkpt lat="41.9997990" lon="-6.2119830">
        <ele>805.0</ele>
        <time>2019-08-16T07:42:12Z</time>
      </trkpt>
      <trkpt lat="41.9998440" lon="-6.2119640">
        <ele>804.9</ele>
        <time>2019-08-16T07:42:13Z</time>
      </trkpt>
      <trkpt lat="41.9998890" lon="-6.2119400">
        <ele>804.8</ele>
        <time>2019-08-16T07:42:14Z</time>
      </trkpt>
      <trkpt lat="41.9999340" lon="-6.2119160">
        <ele>804.7</ele>
        <time>2019-08-16T07:42:15Z</time>
      </trkpt>
      <trkpt lat="41.9999800" lon="-6.2118920">
        <ele>804.5</ele>
        <time>2019-08-16T07:42:16Z</time>
      </trkpt>
      <trkpt lat="42.0000270" lon="-6.2118680">
        <ele>804.4</ele>
        <time>2019-08-16T07:42:17Z</time>
      </trkpt>
      <trkpt lat="42.0000740" lon="-6.2118460">
        <ele>804.2</ele>
        <time>2019-08-16T07:42:18Z</time>
      </trkpt>
      <trkpt lat="42.0001220" lon="-6.2118230">
        <ele>804.1</ele>
        <time>2019-08-16T07:42:19Z</time>
      </trkpt>
      <trkpt lat="42.0001700" lon="-6.2118030">
        <ele>803.9</ele>
        <time>2019-08-16T07:42:20Z</time>
      </trkpt>
      <trkpt lat="42.0002210" lon="-6.2117870">
        <ele>803.8</ele>
        <time>2019-08-16T07:42:21Z</time>
      </trkpt>
      <trkpt lat="42.0002730" lon="-6.2117770">
        <ele>803.6</ele>
        <time>2019-08-16T07:42:22Z</time>
      </trkpt>
      <trkpt lat="42.0003250" lon="-6.2117730">
        <ele>803.4</ele>
        <time>2019-08-16T07:42:23Z</time>
      </trkpt>
      <trkpt lat="42.0003790" lon="-6.2117760">
        <ele>803.2</ele>
        <time>2019-08-16T07:42:24Z</time>
      </trkpt>
      <trkpt lat="42.0004340" lon="-6.2117810">
        <ele>803.0</ele>
        <time>2019-08-16T07:42:25Z</time>
      </trkpt>
      <trkpt lat="42.0004880" lon="-6.2117940">
        <ele>802.7</ele>
        <time>2019-08-16T07:42:26Z</time>
      </trkpt>
      <trkpt lat="42.0005420" lon="-6.2118140">
        <ele>802.5</ele>
        <time>2019-08-16T07:42:27Z</time>
      </trkpt>
      <trkpt lat="42.0005920" lon="-6.2118430">
        <ele>802.3</ele>
        <time>2019-08-16T07:42:28Z</time>
      </trkpt>
      <trkpt lat="42.0006390" lon="-6.2118780">
        <ele>802.0</ele>
        <time>2019-08-16T07:42:29Z</time>
      </trkpt>
      <trkpt lat="42.0006840" lon="-6.2119210">
        <ele>801.8</ele>
        <time>2019-08-16T07:42:30Z</time>
      </trkpt>
      <trkpt lat="42.0007280" lon="-6.2119710">
        <ele>801.5</ele>
        <time>2019-08-16T07:42:31Z</time>
      </trkpt>
      <trkpt lat="42.0007700" lon="-6.2120250">
        <ele>801.3</ele>
        <time>2019-08-16T07:42:32Z</time>
      </trkpt>
      <trkpt lat="42.0008160" lon="-6.2120810">
        <ele>801.1</ele>
        <time>2019-08-16T07:42:33Z</time>
      </trkpt>
      <trkpt lat="42.0008640" lon="-6.2121340">
        <ele>800.9</ele>
        <time>2019-08-16T07:42:34Z</time>
      </trkpt>
      <trkpt lat="42.0009140" lon="-6.2121860">
        <ele>800.6</ele>
        <time>2019-08-16T07:42:35Z</time>
      </trkpt>
      <trkpt lat="42.0009630" lon="-6.2122410">
        <ele>800.4</ele>
        <time>2019-08-16T07:42:36Z</time>
      </trkpt>
      <trkpt lat="42.0010120" lon="-6.2122950">
        <ele>800.1</ele>
        <time>2019-08-16T07:42:37Z</time>
      </trkpt>
      <trkpt lat="42.0010610" lon="-6.2123430">
        <ele>799.9</ele>
        <time>2019-08-16T07:42:38Z</time>
      </trkpt>
      <trkpt lat="42.0011120" lon="-6.2123820">
        <ele>799.6</ele>
        <time>2019-08-16T07:42:39Z</time>
      </trkpt>
      <trkpt lat="42.0011660" lon="-6.2124220">
        <ele>799.4</ele>
        <time>2019-08-16T07:42:40Z</time>
      </trkpt>
      <trkpt lat="42.0012210" lon="-6.2124680">
        <ele>799.2</ele>
        <time>2019-08-16T07:42:41Z</time>
      </trkpt>
      <trkpt lat="42.0012740" lon="-6.2125110">
        <ele>799.1</ele>
        <time>2019-08-16T07:42:42Z</time>
      </trkpt>
      <trkpt lat="42.0013280" lon="-6.2125560">
        <ele>798.9</ele>
        <time>2019-08-16T07:42:43Z</time>
      </trkpt>
      <trkpt lat="42.0013840" lon="-6.2125950">
        <ele>798.7</ele>
        <time>2019-08-16T07:42:44Z</time>
      </trkpt>
      <trkpt lat="42.0014390" lon="-6.2126340">
        <ele>798.4</ele>
        <time>2019-08-16T07:42:45Z</time>
      </trkpt>
      <trkpt lat="42.0014950" lon="-6.2126710">
        <ele>798.1</ele>
        <time>2019-08-16T07:42:46Z</time>
      </trkpt>
      <trkpt lat="42.0015510" lon="-6.2127070">
        <ele>797.9</ele>
        <time>2019-08-16T07:42:47Z</time>
      </trkpt>
      <trkpt lat="42.0016060" lon="-6.2127440">
        <ele>797.7</ele>
        <time>2019-08-16T07:42:48Z</time>
      </trkpt>
      <trkpt lat="42.0016630" lon="-6.2127820">
        <ele>797.5</ele>
        <time>2019-08-16T07:42:49Z</time>
      </trkpt>
      <trkpt lat="42.0017200" lon="-6.2128200">
        <ele>797.3</ele>
        <time>2019-08-16T07:42:50Z</time>
      </trkpt>
      <trkpt lat="42.0017760" lon="-6.2128590">
        <ele>797.1</ele>
        <time>2019-08-16T07:42:51Z</time>
      </trkpt>
      <trkpt lat="42.0018320" lon="-6.2129010">
        <ele>796.9</ele>
        <time>2019-08-16T07:42:52Z</time>
      </trkpt>
      <trkpt lat="42.0018870" lon="-6.2129450">
        <ele>796.7</ele>
        <time>2019-08-16T07:42:53Z</time>
      </trkpt>
      <trkpt lat="42.0019430" lon="-6.2129910">
        <ele>796.4</ele>
        <time>2019-08-16T07:42:54Z</time>
      </trkpt>
      <trkpt lat="42.0019980" lon="-6.2130400">
        <ele>796.2</ele>
        <time>2019-08-16T07:42:55Z</time>
      </trkpt>
      <trkpt lat="42.0020530" lon="-6.2130920">
        <ele>796.0</ele>
        <time>2019-08-16T07:42:56Z</time>
      </trkpt>
      <trkpt lat="42.0021070" lon="-6.2131510">
        <ele>795.8</ele>
        <time>2019-08-16T07:42:57Z</time>
      </trkpt>
      <trkpt lat="42.0021590" lon="-6.2132130">
        <ele>795.5</ele>
        <time>2019-08-16T07:42:58Z</time>
      </trkpt>
      <trkpt lat="42.0022110" lon="-6.2132750">
        <ele>795.3</ele>
        <time>2019-08-16T07:42:59Z</time>
      </trkpt>
      <trkpt lat="42.0022620" lon="-6.2133380">
        <ele>795.0</ele>
        <time>2019-08-16T07:43:00Z</time>
      </trkpt>
      <trkpt lat="42.0023130" lon="-6.2133990">
        <ele>794.7</ele>
        <time>2019-08-16T07:43:01Z</time>
      </trkpt>
      <trkpt lat="42.0023650" lon="-6.2134570">
        <ele>794.4</ele>
        <time>2019-08-16T07:43:02Z</time>
      </trkpt>
      <trkpt lat="42.0024210" lon="-6.2135080">
        <ele>794.2</ele>
        <time>2019-08-16T07:43:03Z</time>
      </trkpt>
      <trkpt lat="42.0024800" lon="-6.2135530">
        <ele>794.0</ele>
        <time>2019-08-16T07:43:04Z</time>
      </trkpt>
      <trkpt lat="42.0025420" lon="-6.2135910">
        <ele>793.8</ele>
        <time>2019-08-16T07:43:05Z</time>
      </trkpt>
      <trkpt lat="42.0026090" lon="-6.2136180">
        <ele>793.6</ele>
        <time>2019-08-16T07:43:06Z</time>
      </trkpt>
      <trkpt lat="42.0026770" lon="-6.2136370">
        <ele>793.3</ele>
        <time>2019-08-16T07:43:07Z</time>
      </trkpt>
      <trkpt lat="42.0027460" lon="-6.2136520">
        <ele>793.1</ele>
        <time>2019-08-16T07:43:08Z</time>
      </trkpt>
      <trkpt lat="42.0028140" lon="-6.2136610">
        <ele>792.8</ele>
        <time>2019-08-16T07:43:09Z</time>
      </trkpt>
      <trkpt lat="42.0028820" lon="-6.2136640">
        <ele>792.4</ele>
        <time>2019-08-16T07:43:10Z</time>
      </trkpt>
      <trkpt lat="42.0029510" lon="-6.2136610">
        <ele>792.1</ele>
        <time>2019-08-16T07:43:11Z</time>
      </trkpt>
      <trkpt lat="42.0030160" lon="-6.2136630">
        <ele>791.9</ele>
        <time>2019-08-16T07:43:12Z</time>
      </trkpt>
      <trkpt lat="42.0030810" lon="-6.2136700">
        <ele>791.7</ele>
        <time>2019-08-16T07:43:13Z</time>
      </trkpt>
      <trkpt lat="42.0031440" lon="-6.2136830">
        <ele>791.5</ele>
        <time>2019-08-16T07:43:14Z</time>
      </trkpt>
      <trkpt lat="42.0032070" lon="-6.2136970">
        <ele>791.4</ele>
        <time>2019-08-16T07:43:15Z</time>
      </trkpt>
      <trkpt lat="42.0032670" lon="-6.2137140">
        <ele>791.2</ele>
        <time>2019-08-16T07:43:16Z</time>
      </trkpt>
      <trkpt lat="42.0033230" lon="-6.2137360">
        <ele>791.1</ele>
        <time>2019-08-16T07:43:17Z</time>
      </trkpt>
      <trkpt lat="42.0033780" lon="-6.2137590">
        <ele>790.9</ele>
        <time>2019-08-16T07:43:18Z</time>
      </trkpt>
      <trkpt lat="42.0034300" lon="-6.2137840">
        <ele>790.8</ele>
        <time>2019-08-16T07:43:19Z</time>
      </trkpt>
      <trkpt lat="42.0034800" lon="-6.2138120">
        <ele>790.6</ele>
        <time>2019-08-16T07:43:20Z</time>
      </trkpt>
      <trkpt lat="42.0035300" lon="-6.2138430">
        <ele>790.5</ele>
        <time>2019-08-16T07:43:21Z</time>
      </trkpt>
      <trkpt lat="42.0035760" lon="-6.2138810">
        <ele>790.4</ele>
        <time>2019-08-16T07:43:22Z</time>
      </trkpt>
      <trkpt lat="42.0036210" lon="-6.2139270">
        <ele>790.3</ele>
        <time>2019-08-16T07:43:23Z</time>
      </trkpt>
      <trkpt lat="42.0036590" lon="-6.2139810">
        <ele>790.0</ele>
        <time>2019-08-16T07:43:24Z</time>
      </trkpt>
      <trkpt lat="42.0036920" lon="-6.2140380">
        <ele>790.0</ele>
        <time>2019-08-16T07:43:25Z</time>
      </trkpt>
      <trkpt lat="42.0037200" lon="-6.2140920">
        <ele>790.1</ele>
        <time>2019-08-16T07:43:26Z</time>
      </trkpt>
      <trkpt lat="42.0037480" lon="-6.2141440">
        <ele>790.1</ele>
        <time>2019-08-16T07:43:27Z</time>
      </trkpt>
      <trkpt lat="42.0037770" lon="-6.2141940">
        <ele>790.1</ele>
        <time>2019-08-16T07:43:28Z</time>
      </trkpt>
      <trkpt lat="42.0038050" lon="-6.2142420">
        <ele>790.1</ele>
        <time>2019-08-16T07:43:29Z</time>
      </trkpt>
      <trkpt lat="42.0038330" lon="-6.2142910">
        <ele>790.1</ele>
        <time>2019-08-16T07:43:30Z</time>
      </trkpt>
      <trkpt lat="42.0038620" lon="-6.2143360">
        <ele>790.1</ele>
        <time>2019-08-16T07:43:31Z</time>
      </trkpt>
      <trkpt lat="42.0038910" lon="-6.2143800">
        <ele>790.1</ele>
        <time>2019-08-16T07:43:32Z</time>
      </trkpt>
      <trkpt lat="42.0039170" lon="-6.2144260">
        <ele>790.2</ele>
        <time>2019-08-16T07:43:33Z</time>
      </trkpt>
      <trkpt lat="42.0039390" lon="-6.2144750">
        <ele>790.2</ele>
        <time>2019-08-16T07:43:34Z</time>
      </trkpt>
      <trkpt lat="42.0039560" lon="-6.2145260">
        <ele>790.3</ele>
        <time>2019-08-16T07:43:35Z</time>
      </trkpt>
      <trkpt lat="42.0039710" lon="-6.2145750">
        <ele>790.3</ele>
        <time>2019-08-16T07:43:36Z</time>
      </trkpt>
      <trkpt lat="42.0039820" lon="-6.2146210">
        <ele>790.4</ele>
        <time>2019-08-16T07:43:37Z</time>
      </trkpt>
      <trkpt lat="42.0039930" lon="-6.2146620">
        <ele>790.4</ele>
        <time>2019-08-16T07:43:38Z</time>
      </trkpt>
      <trkpt lat="42.0040040" lon="-6.2146980">
        <ele>790.4</ele>
        <time>2019-08-16T07:43:39Z</time>
      </trkpt>
      <trkpt lat="42.0040130" lon="-6.2147320">
        <ele>790.5</ele>
        <time>2019-08-16T07:43:40Z</time>
      </trkpt>
      <trkpt lat="42.0040220" lon="-6.2147680">
        <ele>790.5</ele>
        <time>2019-08-16T07:43:41Z</time>
      </trkpt>
      <trkpt lat="42.0040320" lon="-6.2148030">
        <ele>790.6</ele>
        <time>2019-08-16T07:43:42Z</time>
      </trkpt>
      <trkpt lat="42.0040410" lon="-6.2148390">
        <ele>790.6</ele>
        <time>2019-08-16T07:43:43Z</time>
      </trkpt>
      <trkpt lat="42.0040500" lon="-6.2148760">
        <ele>790.7</ele>
        <time>2019-08-16T07:43:44Z</time>
      </trkpt>
      <trkpt lat="42.0040580" lon="-6.2149150">
        <ele>790.7</ele>
        <time>2019-08-16T07:43:45Z</time>
      </trkpt>
      <trkpt lat="42.0040660" lon="-6.2149540">
        <ele>790.8</ele>
        <time>2019-08-16T07:43:46Z</time>
      </trkpt>
      <trkpt lat="42.0040750" lon="-6.2149930">
        <ele>790.8</ele>
        <time>2019-08-16T07:43:47Z</time>
      </trkpt>
      <trkpt lat="42.0040850" lon="-6.2150320">
        <ele>790.9</ele>
        <time>2019-08-16T07:43:48Z</time>
      </trkpt>
      <trkpt lat="42.0040920" lon="-6.2150710">
        <ele>790.9</ele>
        <time>2019-08-16T07:43:49Z</time>
      </trkpt>
      <trkpt lat="42.0041000" lon="-6.2151110">
        <ele>791.0</ele>
        <time>2019-08-16T07:43:50Z</time>
      </trkpt>
      <trkpt lat="42.0041070" lon="-6.2151520">
        <ele>791.0</ele>
        <time>2019-08-16T07:43:51Z</time>
      </trkpt>
      <trkpt lat="42.0041160" lon="-6.2151940">
        <ele>791.0</ele>
        <time>2019-08-16T07:43:52Z</time>
      </trkpt>
      <trkpt lat="42.0041240" lon="-6.2152370">
        <ele>791.1</ele>
        <time>2019-08-16T07:43:53Z</time>
      </trkpt>
      <trkpt lat="42.0041320" lon="-6.2152800">
        <ele>791.1</ele>
        <time>2019-08-16T07:43:54Z</time>
      </trkpt>
      <trkpt lat="42.0041400" lon="-6.2153220">
        <ele>791.2</ele>
        <time>2019-08-16T07:43:55Z</time>
      </trkpt>
      <trkpt lat="42.0041490" lon="-6.2153650">
        <ele>791.2</ele>
        <time>2019-08-16T07:43:56Z</time>
      </trkpt>
      <trkpt lat="42.0041570" lon="-6.2154100">
        <ele>791.2</ele>
        <time>2019-08-16T07:43:57Z</time>
      </trkpt>
      <trkpt lat="42.0041650" lon="-6.2154560">
        <ele>791.3</ele>
        <time>2019-08-16T07:43:58Z</time>
      </trkpt>
      <trkpt lat="42.0041740" lon="-6.2155030">
        <ele>791.3</ele>
        <time>2019-08-16T07:43:59Z</time>
      </trkpt>
      <trkpt lat="42.0041820" lon="-6.2155510">
        <ele>791.3</ele>
        <time>2019-08-16T07:44:00Z</time>
      </trkpt>
      <trkpt lat="42.0041900" lon="-6.2155990">
        <ele>791.3</ele>
        <time>2019-08-16T07:44:01Z</time>
      </trkpt>
      <trkpt lat="42.0041990" lon="-6.2156480">
        <ele>791.4</ele>
        <time>2019-08-16T07:44:02Z</time>
      </trkpt>
      <trkpt lat="42.0042100" lon="-6.2156970">
        <ele>791.4</ele>
        <time>2019-08-16T07:44:03Z</time>
      </trkpt>
      <trkpt lat="42.0042190" lon="-6.2157450">
        <ele>791.4</ele>
        <time>2019-08-16T07:44:04Z</time>
      </trkpt>
      <trkpt lat="42.0042280" lon="-6.2157910">
        <ele>791.4</ele>
        <time>2019-08-16T07:44:05Z</time>
      </trkpt>
      <trkpt lat="42.0042370" lon="-6.2158330">
        <ele>791.4</ele>
        <time>2019-08-16T07:44:06Z</time>
      </trkpt>
      <trkpt lat="42.0042440" lon="-6.2158730">
        <ele>791.5</ele>
        <time>2019-08-16T07:44:07Z</time>
      </trkpt>
      <trkpt lat="42.0042510" lon="-6.2159120">
        <ele>791.5</ele>
        <time>2019-08-16T07:44:08Z</time>
      </trkpt>
      <trkpt lat="42.0042590" lon="-6.2159490">
        <ele>791.5</ele>
        <time>2019-08-16T07:44:09Z</time>
      </trkpt>
      <trkpt lat="42.0042670" lon="-6.2159850">
        <ele>791.5</ele>
        <time>2019-08-16T07:44:10Z</time>
      </trkpt>
      <trkpt lat="42.0042760" lon="-6.2160210">
        <ele>791.5</ele>
        <time>2019-08-16T07:44:11Z</time>
      </trkpt>
      <trkpt lat="42.0042840" lon="-6.2160550">
        <ele>791.5</ele>
        <time>2019-08-16T07:44:12Z</time>
      </trkpt>
      <trkpt lat="42.0042980" lon="-6.2161220">
        <ele>791.5</ele>
        <time>2019-08-16T07:44:14Z</time>
      </trkpt>
      <trkpt lat="42.0043120" lon="-6.2161860">
        <ele>791.5</ele>
        <time>2019-08-16T07:44:16Z</time>
      </trkpt>
      <trkpt lat="42.0043260" lon="-6.2162500">
        <ele>791.5</ele>
        <time>2019-08-16T07:44:18Z</time>
      </trkpt>
      <trkpt lat="42.0043390" lon="-6.2163070">
        <ele>791.5</ele>
        <time>2019-08-16T07:44:20Z</time>
      </trkpt>
      <trkpt lat="42.0043500" lon="-6.2163570">
        <ele>791.5</ele>
        <time>2019-08-16T07:44:22Z</time>
      </trkpt>
      <trkpt lat="42.0043600" lon="-6.2164020">
        <ele>791.5</ele>
        <time>2019-08-16T07:44:24Z</time>
      </trkpt>
      <trkpt lat="42.0043750" lon="-6.2164550">
        <ele>791.5</ele>
        <time>2019-08-16T07:44:26Z</time>
      </trkpt>
      <trkpt lat="42.0043910" lon="-6.2165170">
        <ele>791.5</ele>
        <time>2019-08-16T07:44:28Z</time>
      </trkpt>
      <trkpt lat="42.0044090" lon="-6.2165870">
        <ele>791.5</ele>
        <time>2019-08-16T07:44:30Z</time>
      </trkpt>
      <trkpt lat="42.0044180" lon="-6.2166260">
        <ele>791.5</ele>
        <time>2019-08-16T07:44:31Z</time>
      </trkpt>
      <trkpt lat="42.0044280" lon="-6.2166630">
        <ele>791.5</ele>
        <time>2019-08-16T07:44:32Z</time>
      </trkpt>
      <trkpt lat="42.0044360" lon="-6.2166990">
        <ele>791.5</ele>
        <time>2019-08-16T07:44:33Z</time>
      </trkpt>
      <trkpt lat="42.0044540" lon="-6.2167640">
        <ele>791.5</ele>
        <time>2019-08-16T07:44:35Z</time>
      </trkpt>
      <trkpt lat="42.0044680" lon="-6.2168250">
        <ele>791.5</ele>
        <time>2019-08-16T07:44:37Z</time>
      </trkpt>
      <trkpt lat="42.0044810" lon="-6.2168520">
        <ele>791.5</ele>
        <time>2019-08-16T07:44:47Z</time>
      </trkpt>
      <trkpt lat="42.0045110" lon="-6.2169730">
        <ele>791.5</ele>
        <time>2019-08-16T07:44:57Z</time>
      </trkpt>
      <trkpt lat="42.0045220" lon="-6.2170070">
        <ele>791.5</ele>
        <time>2019-08-16T07:44:58Z</time>
      </trkpt>
      <trkpt lat="42.0045340" lon="-6.2170430">
        <ele>791.5</ele>
        <time>2019-08-16T07:44:59Z</time>
      </trkpt>
      <trkpt lat="42.0045470" lon="-6.2170840">
        <ele>791.5</ele>
        <time>2019-08-16T07:45:00Z</time>
      </trkpt>
      <trkpt lat="42.0045590" lon="-6.2171280">
        <ele>791.5</ele>
        <time>2019-08-16T07:45:01Z</time>
      </trkpt>
      <trkpt lat="42.0045700" lon="-6.2171760">
        <ele>791.5</ele>
        <time>2019-08-16T07:45:02Z</time>
      </trkpt>
      <trkpt lat="42.0045830" lon="-6.2172270">
        <ele>791.6</ele>
        <time>2019-08-16T07:45:03Z</time>
      </trkpt>
      <trkpt lat="42.0045980" lon="-6.2172760">
        <ele>791.6</ele>
        <time>2019-08-16T07:45:04Z</time>
      </trkpt>
      <trkpt lat="42.0046130" lon="-6.2173280">
        <ele>791.6</ele>
        <time>2019-08-16T07:45:05Z</time>
      </trkpt>
      <trkpt lat="42.0046290" lon="-6.2173800">
        <ele>791.6</ele>
        <time>2019-08-16T07:45:06Z</time>
      </trkpt>
      <trkpt lat="42.0046450" lon="-6.2174340">
        <ele>791.6</ele>
        <time>2019-08-16T07:45:07Z</time>
      </trkpt>
      <trkpt lat="42.0046610" lon="-6.2174890">
        <ele>791.6</ele>
        <time>2019-08-16T07:45:08Z</time>
      </trkpt>
      <trkpt lat="42.0046770" lon="-6.2175460">
        <ele>791.6</ele>
        <time>2019-08-16T07:45:09Z</time>
      </trkpt>
      <trkpt lat="42.0046930" lon="-6.2176050">
        <ele>791.6</ele>
        <time>2019-08-16T07:45:10Z</time>
      </trkpt>
      <trkpt lat="42.0047090" lon="-6.2176660">
        <ele>791.6</ele>
        <time>2019-08-16T07:45:11Z</time>
      </trkpt>
      <trkpt lat="42.0047260" lon="-6.2177280">
        <ele>791.6</ele>
        <time>2019-08-16T07:45:12Z</time>
      </trkpt>
      <trkpt lat="42.0047440" lon="-6.2177930">
        <ele>791.5</ele>
        <time>2019-08-16T07:45:13Z</time>
      </trkpt>
      <trkpt lat="42.0047620" lon="-6.2178570">
        <ele>791.5</ele>
        <time>2019-08-16T07:45:14Z</time>
      </trkpt>
      <trkpt lat="42.0047800" lon="-6.2179210">
        <ele>791.5</ele>
        <time>2019-08-16T07:45:15Z</time>
      </trkpt>
      <trkpt lat="42.0047980" lon="-6.2179840">
        <ele>791.5</ele>
        <time>2019-08-16T07:45:16Z</time>
      </trkpt>
      <trkpt lat="42.0048140" lon="-6.2180480">
        <ele>791.5</ele>
        <time>2019-08-16T07:45:17Z</time>
      </trkpt>
      <trkpt lat="42.0048300" lon="-6.2181110">
        <ele>791.5</ele>
        <time>2019-08-16T07:45:18Z</time>
      </trkpt>
      <trkpt lat="42.0048460" lon="-6.2181760">
        <ele>791.5</ele>
        <time>2019-08-16T07:45:19Z</time>
      </trkpt>
      <trkpt lat="42.0048610" lon="-6.2182380">
        <ele>791.5</ele>
        <time>2019-08-16T07:45:20Z</time>
      </trkpt>
      <trkpt lat="42.0048760" lon="-6.2182970">
        <ele>791.5</ele>
        <time>2019-08-16T07:45:21Z</time>
      </trkpt>
      <trkpt lat="42.0048930" lon="-6.2183550">
        <ele>791.5</ele>
        <time>2019-08-16T07:45:22Z</time>
      </trkpt>
      <trkpt lat="42.0049110" lon="-6.2184110">
        <ele>791.5</ele>
        <time>2019-08-16T07:45:23Z</time>
      </trkpt>
      <trkpt lat="42.0049330" lon="-6.2184610">
        <ele>791.5</ele>
        <time>2019-08-16T07:45:24Z</time>
      </trkpt>
      <trkpt lat="42.0049580" lon="-6.2185080">
        <ele>791.5</ele>
        <time>2019-08-16T07:45:25Z</time>
      </trkpt>
      <trkpt lat="42.0049850" lon="-6.2185500">
        <ele>791.5</ele>
        <time>2019-08-16T07:45:26Z</time>
      </trkpt>
      <trkpt lat="42.0050160" lon="-6.2185820">
        <ele>791.5</ele>
        <time>2019-08-16T07:45:27Z</time>
      </trkpt>
      <trkpt lat="42.0050510" lon="-6.2186030">
        <ele>791.9</ele>
        <time>2019-08-16T07:45:28Z</time>
      </trkpt>
      <trkpt lat="42.0050850" lon="-6.2186130">
        <ele>792.0</ele>
        <time>2019-08-16T07:45:29Z</time>
      </trkpt>
      <trkpt lat="42.0051150" lon="-6.2186160">
        <ele>792.1</ele>
        <time>2019-08-16T07:45:30Z</time>
      </trkpt>
      <trkpt lat="42.0051430" lon="-6.2186140">
        <ele>792.2</ele>
        <time>2019-08-16T07:45:31Z</time>
      </trkpt>
      <trkpt lat="42.0051980" lon="-6.2186040">
        <ele>792.3</ele>
        <time>2019-08-16T07:45:33Z</time>
      </trkpt>
      <trkpt lat="42.0052260" lon="-6.2185950">
        <ele>792.4</ele>
        <time>2019-08-16T07:45:34Z</time>
      </trkpt>
      <trkpt lat="42.0052530" lon="-6.2185840">
        <ele>792.6</ele>
        <time>2019-08-16T07:45:35Z</time>
      </trkpt>
      <trkpt lat="42.0052820" lon="-6.2185750">
        <ele>792.7</ele>
        <time>2019-08-16T07:45:36Z</time>
      </trkpt>
      <trkpt lat="42.0053100" lon="-6.2185670">
        <ele>792.7</ele>
        <time>2019-08-16T07:45:37Z</time>
      </trkpt>
      <trkpt lat="42.0053370" lon="-6.2185610">
        <ele>792.8</ele>
        <time>2019-08-16T07:45:38Z</time>
      </trkpt>
      <trkpt lat="42.0053830" lon="-6.2185540">
        <ele>793.1</ele>
        <time>2019-08-16T07:45:40Z</time>
      </trkpt>
      <trkpt lat="42.0054220" lon="-6.2185660">
        <ele>793.1</ele>
        <time>2019-08-16T07:45:42Z</time>
      </trkpt>
      <trkpt lat="42.0054480" lon="-6.2186110">
        <ele>793.0</ele>
        <time>2019-08-16T07:45:44Z</time>
      </trkpt>
      <trkpt lat="42.0054680" lon="-6.2186850">
        <ele>792.9</ele>
        <time>2019-08-16T07:45:46Z</time>
      </trkpt>
      <trkpt lat="42.0054830" lon="-6.2187280">
        <ele>792.8</ele>
        <time>2019-08-16T07:45:47Z</time>
      </trkpt>
      <trkpt lat="42.0055000" lon="-6.2187730">
        <ele>792.8</ele>
        <time>2019-08-16T07:45:48Z</time>
      </trkpt>
      <trkpt lat="42.0055170" lon="-6.2188240">
        <ele>792.7</ele>
        <time>2019-08-16T07:45:49Z</time>
      </trkpt>
      <trkpt lat="42.0055310" lon="-6.2188800">
        <ele>792.7</ele>
        <time>2019-08-16T07:45:50Z</time>
      </trkpt>
      <trkpt lat="42.0055420" lon="-6.2189410">
        <ele>792.6</ele>
        <time>2019-08-16T07:45:51Z</time>
      </trkpt>
      <trkpt lat="42.0055510" lon="-6.2190080">
        <ele>792.5</ele>
        <time>2019-08-16T07:45:52Z</time>
      </trkpt>
      <trkpt lat="42.0055590" lon="-6.2190770">
        <ele>792.4</ele>
        <time>2019-08-16T07:45:53Z</time>
      </trkpt>
      <trkpt lat="42.0055650" lon="-6.2191450">
        <ele>792.4</ele>
        <time>2019-08-16T07:45:54Z</time>
      </trkpt>
      <trkpt lat="42.0055690" lon="-6.2192150">
        <ele>792.3</ele>
        <time>2019-08-16T07:45:55Z</time>
      </trkpt>
      <trkpt lat="42.0055720" lon="-6.2192850">
        <ele>792.2</ele>
        <time>2019-08-16T07:45:56Z</time>
      </trkpt>
      <trkpt lat="42.0055750" lon="-6.2193550">
        <ele>792.2</ele>
        <time>2019-08-16T07:45:57Z</time>
      </trkpt>
      <trkpt lat="42.0055780" lon="-6.2194250">
        <ele>792.1</ele>
        <time>2019-08-16T07:45:58Z</time>
      </trkpt>
      <trkpt lat="42.0055820" lon="-6.2194940">
        <ele>792.1</ele>
        <time>2019-08-16T07:45:59Z</time>
      </trkpt>
      <trkpt lat="42.0055870" lon="-6.2195640">
        <ele>792.0</ele>
        <time>2019-08-16T07:46:00Z</time>
      </trkpt>
      <trkpt lat="42.0055900" lon="-6.2196320">
        <ele>791.9</ele>
        <time>2019-08-16T07:46:01Z</time>
      </trkpt>
      <trkpt lat="42.0055940" lon="-6.2197000">
        <ele>791.9</ele>
        <time>2019-08-16T07:46:02Z</time>
      </trkpt>
      <trkpt lat="42.0055970" lon="-6.2197660">
        <ele>791.8</ele>
        <time>2019-08-16T07:46:03Z</time>
      </trkpt>
      <trkpt lat="42.0056000" lon="-6.2198320">
        <ele>791.8</ele>
        <time>2019-08-16T07:46:04Z</time>
      </trkpt>
      <trkpt lat="42.0056030" lon="-6.2198990">
        <ele>791.7</ele>
        <time>2019-08-16T07:46:05Z</time>
      </trkpt>
      <trkpt lat="42.0056060" lon="-6.2199660">
        <ele>791.7</ele>
        <time>2019-08-16T07:46:06Z</time>
      </trkpt>
      <trkpt lat="42.0056100" lon="-6.2200300">
        <ele>791.6</ele>
        <time>2019-08-16T07:46:07Z</time>
      </trkpt>
      <trkpt lat="42.0056130" lon="-6.2200970">
        <ele>791.6</ele>
        <time>2019-08-16T07:46:08Z</time>
      </trkpt>
      <trkpt lat="42.0056160" lon="-6.2201660">
        <ele>791.5</ele>
        <time>2019-08-16T07:46:09Z</time>
      </trkpt>
      <trkpt lat="42.0056160" lon="-6.2202350">
        <ele>791.5</ele>
        <time>2019-08-16T07:46:10Z</time>
      </trkpt>
      <trkpt lat="42.0056170" lon="-6.2203070">
        <ele>791.4</ele>
        <time>2019-08-16T07:46:11Z</time>
      </trkpt>
      <trkpt lat="42.0056180" lon="-6.2203800">
        <ele>791.4</ele>
        <time>2019-08-16T07:46:12Z</time>
      </trkpt>
      <trkpt lat="42.0056200" lon="-6.2204530">
        <ele>791.3</ele>
        <time>2019-08-16T07:46:13Z</time>
      </trkpt>
      <trkpt lat="42.0056220" lon="-6.2205260">
        <ele>791.2</ele>
        <time>2019-08-16T07:46:14Z</time>
      </trkpt>
      <trkpt lat="42.0056260" lon="-6.2206010">
        <ele>791.2</ele>
        <time>2019-08-16T07:46:15Z</time>
      </trkpt>
      <trkpt lat="42.0056300" lon="-6.2206760">
        <ele>791.2</ele>
        <time>2019-08-16T07:46:16Z</time>
      </trkpt>
      <trkpt lat="42.0056330" lon="-6.2207520">
        <ele>791.1</ele>
        <time>2019-08-16T07:46:17Z</time>
      </trkpt>
      <trkpt lat="42.0056370" lon="-6.2208290">
        <ele>791.0</ele>
        <time>2019-08-16T07:46:18Z</time>
      </trkpt>
      <trkpt lat="42.0056410" lon="-6.2209060">
        <ele>791.0</ele>
        <time>2019-08-16T07:46:19Z</time>
      </trkpt>
      <trkpt lat="42.0056430" lon="-6.2209830">
        <ele>791.0</ele>
        <time>2019-08-16T07:46:20Z</time>
      </trkpt>
      <trkpt lat="42.0056470" lon="-6.2210590">
        <ele>790.9</ele>
        <time>2019-08-16T07:46:21Z</time>
      </trkpt>
      <trkpt lat="42.0056520" lon="-6.2211360">
        <ele>790.9</ele>
        <time>2019-08-16T07:46:22Z</time>
      </trkpt>
      <trkpt lat="42.0056560" lon="-6.2212100">
        <ele>790.8</ele>
        <time>2019-08-16T07:46:23Z</time>
      </trkpt>
      <trkpt lat="42.0056610" lon="-6.2212800">
        <ele>790.7</ele>
        <time>2019-08-16T07:46:24Z</time>
      </trkpt>
      <trkpt lat="42.0056660" lon="-6.2213470">
        <ele>790.6</ele>
        <time>2019-08-16T07:46:25Z</time>
      </trkpt>
      <trkpt lat="42.0056720" lon="-6.2214150">
        <ele>790.5</ele>
        <time>2019-08-16T07:46:26Z</time>
      </trkpt>
      <trkpt lat="42.0056760" lon="-6.2214820">
        <ele>790.3</ele>
        <time>2019-08-16T07:46:27Z</time>
      </trkpt>
      <trkpt lat="42.0056810" lon="-6.2215510">
        <ele>790.2</ele>
        <time>2019-08-16T07:46:28Z</time>
      </trkpt>
      <trkpt lat="42.0056860" lon="-6.2216190">
        <ele>790.0</ele>
        <time>2019-08-16T07:46:29Z</time>
      </trkpt>
      <trkpt lat="42.0056900" lon="-6.2216900">
        <ele>789.9</ele>
        <time>2019-08-16T07:46:30Z</time>
      </trkpt>
      <trkpt lat="42.0056930" lon="-6.2217590">
        <ele>789.7</ele>
        <time>2019-08-16T07:46:31Z</time>
      </trkpt>
      <trkpt lat="42.0056970" lon="-6.2218290">
        <ele>789.5</ele>
        <time>2019-08-16T07:46:32Z</time>
      </trkpt>
      <trkpt lat="42.0057010" lon="-6.2219000">
        <ele>789.3</ele>
        <time>2019-08-16T07:46:33Z</time>
      </trkpt>
      <trkpt lat="42.0057050" lon="-6.2219710">
        <ele>789.1</ele>
        <time>2019-08-16T07:46:34Z</time>
      </trkpt>
      <trkpt lat="42.0057090" lon="-6.2220420">
        <ele>789.0</ele>
        <time>2019-08-16T07:46:35Z</time>
      </trkpt>
      <trkpt lat="42.0057120" lon="-6.2221110">
        <ele>788.8</ele>
        <time>2019-08-16T07:46:36Z</time>
      </trkpt>
      <trkpt lat="42.0057150" lon="-6.2221770">
        <ele>788.7</ele>
        <time>2019-08-16T07:46:37Z</time>
      </trkpt>
      <trkpt lat="42.0057190" lon="-6.2222410">
        <ele>788.6</ele>
        <time>2019-08-16T07:46:38Z</time>
      </trkpt>
      <trkpt lat="42.0057230" lon="-6.2223050">
        <ele>788.6</ele>
        <time>2019-08-16T07:46:39Z</time>
      </trkpt>
      <trkpt lat="42.0057270" lon="-6.2223700">
        <ele>788.6</ele>
        <time>2019-08-16T07:46:40Z</time>
      </trkpt>
      <trkpt lat="42.0057290" lon="-6.2224400">
        <ele>788.6</ele>
        <time>2019-08-16T07:46:41Z</time>
      </trkpt>
      <trkpt lat="42.0057310" lon="-6.2225100">
        <ele>788.5</ele>
        <time>2019-08-16T07:46:42Z</time>
      </trkpt>
      <trkpt lat="42.0057330" lon="-6.2225830">
        <ele>788.5</ele>
        <time>2019-08-16T07:46:43Z</time>
      </trkpt>
      <trkpt lat="42.0057370" lon="-6.2226560">
        <ele>788.5</ele>
        <time>2019-08-16T07:46:44Z</time>
      </trkpt>
      <trkpt lat="42.0057400" lon="-6.2227300">
        <ele>788.5</ele>
        <time>2019-08-16T07:46:45Z</time>
      </trkpt>
      <trkpt lat="42.0057430" lon="-6.2228060">
        <ele>788.4</ele>
        <time>2019-08-16T07:46:46Z</time>
      </trkpt>
      <trkpt lat="42.0057470" lon="-6.2228790">
        <ele>788.4</ele>
        <time>2019-08-16T07:46:47Z</time>
      </trkpt>
      <trkpt lat="42.0057500" lon="-6.2229500">
        <ele>788.4</ele>
        <time>2019-08-16T07:46:48Z</time>
      </trkpt>
      <trkpt lat="42.0057540" lon="-6.2230200">
        <ele>788.3</ele>
        <time>2019-08-16T07:46:49Z</time>
      </trkpt>
      <trkpt lat="42.0057570" lon="-6.2230880">
        <ele>788.3</ele>
        <time>2019-08-16T07:46:50Z</time>
      </trkpt>
      <trkpt lat="42.0057620" lon="-6.2231580">
        <ele>788.3</ele>
        <time>2019-08-16T07:46:51Z</time>
      </trkpt>
      <trkpt lat="42.0057670" lon="-6.2232310">
        <ele>788.3</ele>
        <time>2019-08-16T07:46:52Z</time>
      </trkpt>
      <trkpt lat="42.0057710" lon="-6.2233040">
        <ele>788.3</ele>
        <time>2019-08-16T07:46:53Z</time>
      </trkpt>
      <trkpt lat="42.0057730" lon="-6.2233780">
        <ele>788.3</ele>
        <time>2019-08-16T07:46:54Z</time>
      </trkpt>
      <trkpt lat="42.0057770" lon="-6.2234510">
        <ele>788.3</ele>
        <time>2019-08-16T07:46:55Z</time>
      </trkpt>
      <trkpt lat="42.0057800" lon="-6.2235250">
        <ele>788.2</ele>
        <time>2019-08-16T07:46:56Z</time>
      </trkpt>
      <trkpt lat="42.0057830" lon="-6.2235980">
        <ele>788.2</ele>
        <time>2019-08-16T07:46:57Z</time>
      </trkpt>
      <trkpt lat="42.0057830" lon="-6.2236690">
        <ele>788.2</ele>
        <time>2019-08-16T07:46:58Z</time>
      </trkpt>
      <trkpt lat="42.0057850" lon="-6.2237390">
        <ele>788.2</ele>
        <time>2019-08-16T07:46:59Z</time>
      </trkpt>
      <trkpt lat="42.0057880" lon="-6.2238070">
        <ele>788.2</ele>
        <time>2019-08-16T07:47:00Z</time>
      </trkpt>
      <trkpt lat="42.0057910" lon="-6.2238750">
        <ele>788.2</ele>
        <time>2019-08-16T07:47:01Z</time>
      </trkpt>
      <trkpt lat="42.0057950" lon="-6.2239450">
        <ele>788.2</ele>
        <time>2019-08-16T07:47:02Z</time>
      </trkpt>
      <trkpt lat="42.0058000" lon="-6.2240140">
        <ele>788.2</ele>
        <time>2019-08-16T07:47:03Z</time>
      </trkpt>
      <trkpt lat="42.0058030" lon="-6.2240850">
        <ele>788.2</ele>
        <time>2019-08-16T07:47:04Z</time>
      </trkpt>
      <trkpt lat="42.0058070" lon="-6.2241550">
        <ele>788.2</ele>
        <time>2019-08-16T07:47:05Z</time>
      </trkpt>
      <trkpt lat="42.0058110" lon="-6.2242280">
        <ele>788.3</ele>
        <time>2019-08-16T07:47:06Z</time>
      </trkpt>
      <trkpt lat="42.0058140" lon="-6.2242990">
        <ele>788.3</ele>
        <time>2019-08-16T07:47:07Z</time>
      </trkpt>
      <trkpt lat="42.0058160" lon="-6.2243670">
        <ele>788.4</ele>
        <time>2019-08-16T07:47:08Z</time>
      </trkpt>
      <trkpt lat="42.0058200" lon="-6.2244340">
        <ele>788.4</ele>
        <time>2019-08-16T07:47:09Z</time>
      </trkpt>
      <trkpt lat="42.0058240" lon="-6.2244990">
        <ele>788.5</ele>
        <time>2019-08-16T07:47:10Z</time>
      </trkpt>
      <trkpt lat="42.0058300" lon="-6.2245630">
        <ele>788.6</ele>
        <time>2019-08-16T07:47:11Z</time>
      </trkpt>
      <trkpt lat="42.0058350" lon="-6.2246280">
        <ele>788.6</ele>
        <time>2019-08-16T07:47:12Z</time>
      </trkpt>
      <trkpt lat="42.0058400" lon="-6.2246940">
        <ele>788.7</ele>
        <time>2019-08-16T07:47:13Z</time>
      </trkpt>
      <trkpt lat="42.0058450" lon="-6.2247610">
        <ele>788.9</ele>
        <time>2019-08-16T07:47:14Z</time>
      </trkpt>
      <trkpt lat="42.0058480" lon="-6.2248310">
        <ele>789.0</ele>
        <time>2019-08-16T07:47:15Z</time>
      </trkpt>
      <trkpt lat="42.0058520" lon="-6.2249010">
        <ele>789.1</ele>
        <time>2019-08-16T07:47:16Z</time>
      </trkpt>
      <trkpt lat="42.0058550" lon="-6.2249720">
        <ele>789.3</ele>
        <time>2019-08-16T07:47:17Z</time>
      </trkpt>
      <trkpt lat="42.0058570" lon="-6.2250420">
        <ele>789.4</ele>
        <time>2019-08-16T07:47:18Z</time>
      </trkpt>
      <trkpt lat="42.0058600" lon="-6.2251120">
        <ele>789.6</ele>
        <time>2019-08-16T07:47:19Z</time>
      </trkpt>
      <trkpt lat="42.0058630" lon="-6.2251850">
        <ele>789.7</ele>
        <time>2019-08-16T07:47:20Z</time>
      </trkpt>
      <trkpt lat="42.0058660" lon="-6.2252570">
        <ele>789.9</ele>
        <time>2019-08-16T07:47:21Z</time>
      </trkpt>
      <trkpt lat="42.0058690" lon="-6.2253290">
        <ele>790.1</ele>
        <time>2019-08-16T07:47:22Z</time>
      </trkpt>
      <trkpt lat="42.0058730" lon="-6.2254010">
        <ele>790.3</ele>
        <time>2019-08-16T07:47:23Z</time>
      </trkpt>
      <trkpt lat="42.0058750" lon="-6.2254720">
        <ele>790.4</ele>
        <time>2019-08-16T07:47:24Z</time>
      </trkpt>
      <trkpt lat="42.0058780" lon="-6.2255420">
        <ele>790.6</ele>
        <time>2019-08-16T07:47:25Z</time>
      </trkpt>
      <trkpt lat="42.0058810" lon="-6.2256110">
        <ele>790.8</ele>
        <time>2019-08-16T07:47:26Z</time>
      </trkpt>
      <trkpt lat="42.0058850" lon="-6.2256790">
        <ele>791.0</ele>
        <time>2019-08-16T07:47:27Z</time>
      </trkpt>
      <trkpt lat="42.0058900" lon="-6.2257450">
        <ele>791.3</ele>
        <time>2019-08-16T07:47:28Z</time>
      </trkpt>
      <trkpt lat="42.0058980" lon="-6.2258080">
        <ele>791.5</ele>
        <time>2019-08-16T07:47:29Z</time>
      </trkpt>
      <trkpt lat="42.0059060" lon="-6.2258690">
        <ele>791.8</ele>
        <time>2019-08-16T07:47:30Z</time>
      </trkpt>
      <trkpt lat="42.0059150" lon="-6.2259290">
        <ele>792.0</ele>
        <time>2019-08-16T07:47:31Z</time>
      </trkpt>
      <trkpt lat="42.0059240" lon="-6.2259870">
        <ele>792.3</ele>
        <time>2019-08-16T07:47:32Z</time>
      </trkpt>
      <trkpt lat="42.0059320" lon="-6.2260430">
        <ele>792.5</ele>
        <time>2019-08-16T07:47:33Z</time>
      </trkpt>
      <trkpt lat="42.0059400" lon="-6.2260970">
        <ele>792.7</ele>
        <time>2019-08-16T07:47:34Z</time>
      </trkpt>
      <trkpt lat="42.0059510" lon="-6.2261500">
        <ele>792.9</ele>
        <time>2019-08-16T07:47:35Z</time>
      </trkpt>
      <trkpt lat="42.0059620" lon="-6.2262000">
        <ele>793.6</ele>
        <time>2019-08-16T07:47:36Z</time>
      </trkpt>
      <trkpt lat="42.0059740" lon="-6.2262480">
        <ele>793.9</ele>
        <time>2019-08-16T07:47:37Z</time>
      </trkpt>
      <trkpt lat="42.0059850" lon="-6.2262950">
        <ele>794.2</ele>
        <time>2019-08-16T07:47:38Z</time>
      </trkpt>
      <trkpt lat="42.0059950" lon="-6.2263440">
        <ele>794.7</ele>
        <time>2019-08-16T07:47:39Z</time>
      </trkpt>
      <trkpt lat="42.0060060" lon="-6.2263900">
        <ele>794.9</ele>
        <time>2019-08-16T07:47:40Z</time>
      </trkpt>
      <trkpt lat="42.0060160" lon="-6.2264360">
        <ele>795.1</ele>
        <time>2019-08-16T07:47:41Z</time>
      </trkpt>
      <trkpt lat="42.0060260" lon="-6.2264820">
        <ele>795.3</ele>
        <time>2019-08-16T07:47:42Z</time>
      </trkpt>
      <trkpt lat="42.0060360" lon="-6.2265260">
        <ele>795.5</ele>
        <time>2019-08-16T07:47:43Z</time>
      </trkpt>
      <trkpt lat="42.0060450" lon="-6.2265710">
        <ele>795.8</ele>
        <time>2019-08-16T07:47:44Z</time>
      </trkpt>
      <trkpt lat="42.0060550" lon="-6.2266150">
        <ele>796.1</ele>
        <time>2019-08-16T07:47:45Z</time>
      </trkpt>
      <trkpt lat="42.0060640" lon="-6.2266570">
        <ele>796.4</ele>
        <time>2019-08-16T07:47:46Z</time>
      </trkpt>
      <trkpt lat="42.0060710" lon="-6.2267000">
        <ele>796.7</ele>
        <time>2019-08-16T07:47:47Z</time>
      </trkpt>
      <trkpt lat="42.0060720" lon="-6.2267440">
        <ele>796.9</ele>
        <time>2019-08-16T07:47:48Z</time>
      </trkpt>
      <trkpt lat="42.0060650" lon="-6.2267860">
        <ele>797.1</ele>
        <time>2019-08-16T07:47:49Z</time>
      </trkpt>
      <trkpt lat="42.0060530" lon="-6.2268260">
        <ele>797.3</ele>
        <time>2019-08-16T07:47:50Z</time>
      </trkpt>
      <trkpt lat="42.0060380" lon="-6.2268670">
        <ele>797.6</ele>
        <time>2019-08-16T07:47:51Z</time>
      </trkpt>
      <trkpt lat="42.0060260" lon="-6.2269060">
        <ele>797.9</ele>
        <time>2019-08-16T07:47:52Z</time>
      </trkpt>
      <trkpt lat="42.0060190" lon="-6.2269420">
        <ele>798.1</ele>
        <time>2019-08-16T07:47:53Z</time>
      </trkpt>
      <trkpt lat="42.0060210" lon="-6.2270070">
        <ele>798.4</ele>
        <time>2019-08-16T07:47:55Z</time>
      </trkpt>
      <trkpt lat="42.0060390" lon="-6.2270690">
        <ele>798.7</ele>
        <time>2019-08-16T07:47:57Z</time>
      </trkpt>
      <trkpt lat="42.0060600" lon="-6.2271360">
        <ele>799.1</ele>
        <time>2019-08-16T07:47:59Z</time>
      </trkpt>
      <trkpt lat="42.0060710" lon="-6.2271720">
        <ele>799.3</ele>
        <time>2019-08-16T07:48:00Z</time>
      </trkpt>
      <trkpt lat="42.0060820" lon="-6.2272080">
        <ele>799.4</ele>
        <time>2019-08-16T07:48:01Z</time>
      </trkpt>
      <trkpt lat="42.0060920" lon="-6.2272430">
        <ele>799.6</ele>
        <time>2019-08-16T07:48:02Z</time>
      </trkpt>
      <trkpt lat="42.0061080" lon="-6.2273010">
        <ele>799.8</ele>
        <time>2019-08-16T07:48:04Z</time>
      </trkpt>
      <trkpt lat="42.0061230" lon="-6.2273570">
        <ele>800.0</ele>
        <time>2019-08-16T07:48:06Z</time>
      </trkpt>
      <trkpt lat="42.0061370" lon="-6.2274100">
        <ele>800.2</ele>
        <time>2019-08-16T07:48:08Z</time>
      </trkpt>
      <trkpt lat="42.0061490" lon="-6.2274570">
        <ele>800.3</ele>
        <time>2019-08-16T07:48:10Z</time>
      </trkpt>
      <trkpt lat="42.0061590" lon="-6.2274980">
        <ele>800.3</ele>
        <time>2019-08-16T07:48:12Z</time>
      </trkpt>
      <trkpt lat="42.0061680" lon="-6.2275160">
        <ele>800.3</ele>
        <time>2019-08-16T07:48:18Z</time>
      </trkpt>
      <trkpt lat="42.0061510" lon="-6.2275420">
        <ele>800.2</ele>
        <time>2019-08-16T07:48:27Z</time>
      </trkpt>
      <trkpt lat="42.0061290" lon="-6.2275630">
        <ele>800.2</ele>
        <time>2019-08-16T07:48:31Z</time>
      </trkpt>
      <trkpt lat="42.0061420" lon="-6.2274340">
        <ele>800.1</ele>
        <time>2019-08-16T07:49:02Z</time>
      </trkpt>
      <trkpt lat="42.0061330" lon="-6.2273800">
        <ele>800.0</ele>
        <time>2019-08-16T07:49:04Z</time>
      </trkpt>
      <trkpt lat="42.0061190" lon="-6.2273440">
        <ele>800.0</ele>
        <time>2019-08-16T07:49:05Z</time>
      </trkpt>
      <trkpt lat="42.0061030" lon="-6.2273100">
        <ele>799.8</ele>
        <time>2019-08-16T07:49:06Z</time>
      </trkpt>
      <trkpt lat="42.0060870" lon="-6.2272760">
        <ele>799.8</ele>
        <time>2019-08-16T07:49:07Z</time>
      </trkpt>
      <trkpt lat="42.0060770" lon="-6.2272410">
        <ele>799.9</ele>
        <time>2019-08-16T07:49:08Z</time>
      </trkpt>
      <trkpt lat="42.0060850" lon="-6.2271740">
        <ele>799.9</ele>
        <time>2019-08-16T07:49:10Z</time>
      </trkpt>
      <trkpt lat="42.0061100" lon="-6.2271480">
        <ele>800.0</ele>
        <time>2019-08-16T07:49:11Z</time>
      </trkpt>
      <trkpt lat="42.0061410" lon="-6.2271390">
        <ele>800.0</ele>
        <time>2019-08-16T07:49:12Z</time>
      </trkpt>
      <trkpt lat="42.0061740" lon="-6.2271450">
        <ele>800.1</ele>
        <time>2019-08-16T07:49:13Z</time>
      </trkpt>
      <trkpt lat="42.0062030" lon="-6.2271610">
        <ele>800.1</ele>
        <time>2019-08-16T07:49:14Z</time>
      </trkpt>
      <trkpt lat="42.0062290" lon="-6.2271820">
        <ele>800.1</ele>
        <time>2019-08-16T07:49:15Z</time>
      </trkpt>
      <trkpt lat="42.0062520" lon="-6.2272030">
        <ele>800.2</ele>
        <time>2019-08-16T07:49:16Z</time>
      </trkpt>
      <trkpt lat="42.0062940" lon="-6.2272490">
        <ele>800.2</ele>
        <time>2019-08-16T07:49:18Z</time>
      </trkpt>
      <trkpt lat="42.0063140" lon="-6.2272750">
        <ele>800.3</ele>
        <time>2019-08-16T07:49:19Z</time>
      </trkpt>
      <trkpt lat="42.0063510" lon="-6.2273220">
        <ele>801.1</ele>
        <time>2019-08-16T07:49:21Z</time>
      </trkpt>
      <trkpt lat="42.0064010" lon="-6.2273320">
        <ele>801.2</ele>
        <time>2019-08-16T07:49:23Z</time>
      </trkpt>
      <trkpt lat="42.0064310" lon="-6.2273250">
        <ele>801.2</ele>
        <time>2019-08-16T07:49:24Z</time>
      </trkpt>
      <trkpt lat="42.0064620" lon="-6.2273090">
        <ele>801.2</ele>
        <time>2019-08-16T07:49:25Z</time>
      </trkpt>
      <trkpt lat="42.0064900" lon="-6.2272870">
        <ele>801.4</ele>
        <time>2019-08-16T07:49:26Z</time>
      </trkpt>
      <trkpt lat="42.0065150" lon="-6.2272610">
        <ele>801.5</ele>
        <time>2019-08-16T07:49:27Z</time>
      </trkpt>
      <trkpt lat="42.0065360" lon="-6.2272300">
        <ele>801.6</ele>
        <time>2019-08-16T07:49:28Z</time>
      </trkpt>
      <trkpt lat="42.0065550" lon="-6.2272000">
        <ele>801.7</ele>
        <time>2019-08-16T07:49:29Z</time>
      </trkpt>
      <trkpt lat="42.0065720" lon="-6.2271700">
        <ele>801.8</ele>
        <time>2019-08-16T07:49:30Z</time>
      </trkpt>
      <trkpt lat="42.0065970" lon="-6.2271100">
        <ele>801.6</ele>
        <time>2019-08-16T07:49:32Z</time>
      </trkpt>
      <trkpt lat="42.0066240" lon="-6.2270550">
        <ele>801.6</ele>
        <time>2019-08-16T07:49:34Z</time>
      </trkpt>
      <trkpt lat="42.0066470" lon="-6.2269900">
        <ele>801.1</ele>
        <time>2019-08-16T07:49:36Z</time>
      </trkpt>
      <trkpt lat="42.0066600" lon="-6.2269550">
        <ele>801.1</ele>
        <time>2019-08-16T07:49:37Z</time>
      </trkpt>
      <trkpt lat="42.0066760" lon="-6.2269240">
        <ele>801.2</ele>
        <time>2019-08-16T07:49:38Z</time>
      </trkpt>
      <trkpt lat="42.0067070" lon="-6.2268960">
        <ele>801.2</ele>
        <time>2019-08-16T07:49:40Z</time>
      </trkpt>
      <trkpt lat="42.0067260" lon="-6.2269150">
        <ele>801.2</ele>
        <time>2019-08-16T07:49:43Z</time>
      </trkpt>
      <trkpt lat="42.0067300" lon="-6.2269300">
        <ele>801.2</ele>
        <time>2019-08-16T07:49:50Z</time>
      </trkpt>
      <trkpt lat="42.0067490" lon="-6.2269380">
        <ele>801.2</ele>
        <time>2019-08-16T07:50:00Z</time>
      </trkpt>
      <trkpt lat="42.0067840" lon="-6.2269790">
        <ele>801.3</ele>
        <time>2019-08-16T07:50:13Z</time>
      </trkpt>
      <trkpt lat="42.0068000" lon="-6.2269770">
        <ele>801.7</ele>
        <time>2019-08-16T07:50:21Z</time>
      </trkpt>
      <trkpt lat="42.0068100" lon="-6.2268650">
        <ele>801.6</ele>
        <time>2019-08-16T07:50:50Z</time>
      </trkpt>
      <trkpt lat="42.0069190" lon="-6.2268560">
        <ele>801.4</ele>
        <time>2019-08-16T07:51:33Z</time>
      </trkpt>
      <trkpt lat="42.0068640" lon="-6.2268240">
        <ele>801.4</ele>
        <time>2019-08-16T07:51:36Z</time>
      </trkpt>
      <trkpt lat="42.0068610" lon="-6.2268610">
        <ele>801.3</ele>
        <time>2019-08-16T07:51:38Z</time>
      </trkpt>
      <trkpt lat="42.0067860" lon="-6.2269040">
        <ele>800.9</ele>
        <time>2019-08-16T07:53:03Z</time>
      </trkpt>
      <trkpt lat="42.0068160" lon="-6.2268830">
        <ele>800.9</ele>
        <time>2019-08-16T07:53:09Z</time>
      </trkpt>
      <trkpt lat="42.0068400" lon="-6.2268640">
        <ele>800.9</ele>
        <time>2019-08-16T07:53:15Z</time>
      </trkpt>
      <trkpt lat="42.0068030" lon="-6.2268890">
        <ele>800.8</ele>
        <time>2019-08-16T07:53:46Z</time>
      </trkpt>
      <trkpt lat="42.0068210" lon="-6.2268560">
        <ele>800.8</ele>
        <time>2019-08-16T07:53:51Z</time>
      </trkpt>
      <trkpt lat="42.0067960" lon="-6.2268440">
        <ele>800.8</ele>
        <time>2019-08-16T07:53:54Z</time>
      </trkpt>
      <trkpt lat="42.0066440" lon="-6.2267560">
        <ele>800.6</ele>
        <time>2019-08-16T07:54:26Z</time>
      </trkpt>
      <trkpt lat="42.0066450" lon="-6.2267680">
        <ele>800.7</ele>
        <time>2019-08-16T07:54:28Z</time>
      </trkpt>
      <trkpt lat="42.0066930" lon="-6.2267930">
        <ele>800.7</ele>
        <time>2019-08-16T07:54:30Z</time>
      </trkpt>
      <trkpt lat="42.0066550" lon="-6.2268650">
        <ele>800.8</ele>
        <time>2019-08-16T07:54:32Z</time>
      </trkpt>
      <trkpt lat="42.0066670" lon="-6.2268890">
        <ele>800.8</ele>
        <time>2019-08-16T07:54:34Z</time>
      </trkpt>
      <trkpt lat="42.0066860" lon="-6.2269270">
        <ele>800.8</ele>
        <time>2019-08-16T07:54:37Z</time>
      </trkpt>
      <trkpt lat="42.0067140" lon="-6.2269260">
        <ele>800.9</ele>
        <time>2019-08-16T07:54:41Z</time>
      </trkpt>
      <trkpt lat="42.0067550" lon="-6.2267830">
        <ele>800.9</ele>
        <time>2019-08-16T07:59:48Z</time>
      </trkpt>
      <trkpt lat="42.0067330" lon="-6.2267560">
        <ele>801.0</ele>
        <time>2019-08-16T07:59:52Z</time>
      </trkpt>
      <trkpt lat="42.0067520" lon="-6.2267530">
        <ele>801.0</ele>
        <time>2019-08-16T07:59:56Z</time>
      </trkpt>
      <trkpt lat="42.0067510" lon="-6.2267860">
        <ele>801.0</ele>
        <time>2019-08-16T08:00:00Z</time>
      </trkpt>
      <trkpt lat="42.0067880" lon="-6.2268670">
        <ele>801.2</ele>
        <time>2019-08-16T08:00:02Z</time>
      </trkpt>
      <trkpt lat="42.0067820" lon="-6.2268970">
        <ele>801.2</ele>
        <time>2019-08-16T08:00:04Z</time>
      </trkpt>
      <trkpt lat="42.0068040" lon="-6.2268470">
        <ele>801.3</ele>
        <time>2019-08-16T08:08:51Z</time>
      </trkpt>
      <trkpt lat="42.0067570" lon="-6.2268780">
        <ele>801.3</ele>
        <time>2019-08-16T08:09:13Z</time>
      </trkpt>
      <trkpt lat="42.0067780" lon="-6.2269010">
        <ele>801.4</ele>
        <time>2019-08-16T08:09:14Z</time>
      </trkpt>
      <trkpt lat="42.0067840" lon="-6.2269020">
        <ele>801.4</ele>
        <time>2019-08-16T08:09:17Z</time>
      </trkpt>
      <trkpt lat="42.0067870" lon="-6.2270100">
        <ele>801.9</ele>
        <time>2019-08-16T08:10:47Z</time>
      </trkpt>
      <trkpt lat="42.0068010" lon="-6.2270490">
        <ele>802.1</ele>
        <time>2019-08-16T08:10:49Z</time>
      </trkpt>
      <trkpt lat="42.0068170" lon="-6.2271000">
        <ele>802.3</ele>
        <time>2019-08-16T08:10:51Z</time>
      </trkpt>
      <trkpt lat="42.0068290" lon="-6.2271510">
        <ele>802.6</ele>
        <time>2019-08-16T08:10:53Z</time>
      </trkpt>
      <trkpt lat="42.0068380" lon="-6.2272080">
        <ele>802.8</ele>
        <time>2019-08-16T08:10:55Z</time>
      </trkpt>
      <trkpt lat="42.0068290" lon="-6.2272630">
        <ele>803.1</ele>
        <time>2019-08-16T08:10:57Z</time>
      </trkpt>
      <trkpt lat="42.0068040" lon="-6.2273000">
        <ele>803.0</ele>
        <time>2019-08-16T08:10:59Z</time>
      </trkpt>
      <trkpt lat="42.0067640" lon="-6.2273320">
        <ele>802.8</ele>
        <time>2019-08-16T08:11:01Z</time>
      </trkpt>
      <trkpt lat="42.0067400" lon="-6.2273480">
        <ele>802.7</ele>
        <time>2019-08-16T08:11:02Z</time>
      </trkpt>
      <trkpt lat="42.0067090" lon="-6.2273670">
        <ele>802.5</ele>
        <time>2019-08-16T08:11:03Z</time>
      </trkpt>
      <trkpt lat="42.0066710" lon="-6.2273870">
        <ele>802.4</ele>
        <time>2019-08-16T08:11:04Z</time>
      </trkpt>
      <trkpt lat="42.0066290" lon="-6.2274020">
        <ele>802.2</ele>
        <time>2019-08-16T08:11:05Z</time>
      </trkpt>
      <trkpt lat="42.0065850" lon="-6.2274150">
        <ele>802.0</ele>
        <time>2019-08-16T08:11:06Z</time>
      </trkpt>
      <trkpt lat="42.0065420" lon="-6.2274280">
        <ele>801.8</ele>
        <time>2019-08-16T08:11:07Z</time>
      </trkpt>
      <trkpt lat="42.0064950" lon="-6.2274360">
        <ele>801.7</ele>
        <time>2019-08-16T08:11:08Z</time>
      </trkpt>
      <trkpt lat="42.0064440" lon="-6.2274340">
        <ele>801.3</ele>
        <time>2019-08-16T08:11:09Z</time>
      </trkpt>
      <trkpt lat="42.0063960" lon="-6.2274240">
        <ele>801.3</ele>
        <time>2019-08-16T08:11:10Z</time>
      </trkpt>
      <trkpt lat="42.0063520" lon="-6.2274070">
        <ele>800.3</ele>
        <time>2019-08-16T08:11:11Z</time>
      </trkpt>
      <trkpt lat="42.0063160" lon="-6.2273930">
        <ele>800.2</ele>
        <time>2019-08-16T08:11:12Z</time>
      </trkpt>
      <trkpt lat="42.0062850" lon="-6.2273860">
        <ele>800.1</ele>
        <time>2019-08-16T08:11:13Z</time>
      </trkpt>
      <trkpt lat="42.0062390" lon="-6.2274110">
        <ele>799.9</ele>
        <time>2019-08-16T08:11:15Z</time>
      </trkpt>
      <trkpt lat="42.0062290" lon="-6.2274720">
        <ele>800.5</ele>
        <time>2019-08-16T08:11:17Z</time>
      </trkpt>
      <trkpt lat="42.0062380" lon="-6.2275080">
        <ele>800.5</ele>
        <time>2019-08-16T08:11:18Z</time>
      </trkpt>
      <trkpt lat="42.0062500" lon="-6.2275460">
        <ele>800.5</ele>
        <time>2019-08-16T08:11:19Z</time>
      </trkpt>
      <trkpt lat="42.0062620" lon="-6.2275860">
        <ele>800.7</ele>
        <time>2019-08-16T08:11:20Z</time>
      </trkpt>
      <trkpt lat="42.0062740" lon="-6.2276260">
        <ele>800.8</ele>
        <time>2019-08-16T08:11:21Z</time>
      </trkpt>
      <trkpt lat="42.0062860" lon="-6.2276660">
        <ele>800.8</ele>
        <time>2019-08-16T08:11:22Z</time>
      </trkpt>
      <trkpt lat="42.0062970" lon="-6.2277080">
        <ele>800.9</ele>
        <time>2019-08-16T08:11:23Z</time>
      </trkpt>
      <trkpt lat="42.0063080" lon="-6.2277510">
        <ele>801.0</ele>
        <time>2019-08-16T08:11:24Z</time>
      </trkpt>
      <trkpt lat="42.0063180" lon="-6.2277960">
        <ele>801.1</ele>
        <time>2019-08-16T08:11:25Z</time>
      </trkpt>
      <trkpt lat="42.0063280" lon="-6.2278420">
        <ele>801.1</ele>
        <time>2019-08-16T08:11:26Z</time>
      </trkpt>
      <trkpt lat="42.0063390" lon="-6.2278870">
        <ele>801.2</ele>
        <time>2019-08-16T08:11:27Z</time>
      </trkpt>
      <trkpt lat="42.0063490" lon="-6.2279330">
        <ele>801.3</ele>
        <time>2019-08-16T08:11:28Z</time>
      </trkpt>
      <trkpt lat="42.0063600" lon="-6.2279790">
        <ele>801.3</ele>
        <time>2019-08-16T08:11:29Z</time>
      </trkpt>
      <trkpt lat="42.0063710" lon="-6.2280250">
        <ele>801.5</ele>
        <time>2019-08-16T08:11:30Z</time>
      </trkpt>
      <trkpt lat="42.0063810" lon="-6.2280710">
        <ele>801.6</ele>
        <time>2019-08-16T08:11:31Z</time>
      </trkpt>
      <trkpt lat="42.0063920" lon="-6.2281180">
        <ele>801.7</ele>
        <time>2019-08-16T08:11:32Z</time>
      </trkpt>
      <trkpt lat="42.0064030" lon="-6.2281630">
        <ele>801.7</ele>
        <time>2019-08-16T08:11:33Z</time>
      </trkpt>
      <trkpt lat="42.0064140" lon="-6.2282080">
        <ele>801.8</ele>
        <time>2019-08-16T08:11:34Z</time>
      </trkpt>
      <trkpt lat="42.0064240" lon="-6.2282530">
        <ele>801.9</ele>
        <time>2019-08-16T08:11:35Z</time>
      </trkpt>
      <trkpt lat="42.0064350" lon="-6.2282970">
        <ele>802.0</ele>
        <time>2019-08-16T08:11:36Z</time>
      </trkpt>
      <trkpt lat="42.0064470" lon="-6.2283410">
        <ele>802.0</ele>
        <time>2019-08-16T08:11:37Z</time>
      </trkpt>
      <trkpt lat="42.0064580" lon="-6.2283860">
        <ele>802.1</ele>
        <time>2019-08-16T08:11:38Z</time>
      </trkpt>
      <trkpt lat="42.0064690" lon="-6.2284300">
        <ele>802.1</ele>
        <time>2019-08-16T08:11:39Z</time>
      </trkpt>
      <trkpt lat="42.0064790" lon="-6.2284760">
        <ele>802.2</ele>
        <time>2019-08-16T08:11:40Z</time>
      </trkpt>
      <trkpt lat="42.0064890" lon="-6.2285210">
        <ele>802.2</ele>
        <time>2019-08-16T08:11:41Z</time>
      </trkpt>
      <trkpt lat="42.0064990" lon="-6.2285640">
        <ele>802.2</ele>
        <time>2019-08-16T08:11:42Z</time>
      </trkpt>
      <trkpt lat="42.0065080" lon="-6.2286070">
        <ele>802.3</ele>
        <time>2019-08-16T08:11:43Z</time>
      </trkpt>
      <trkpt lat="42.0065160" lon="-6.2286500">
        <ele>802.3</ele>
        <time>2019-08-16T08:11:44Z</time>
      </trkpt>
      <trkpt lat="42.0065250" lon="-6.2286920">
        <ele>802.5</ele>
        <time>2019-08-16T08:11:45Z</time>
      </trkpt>
      <trkpt lat="42.0065340" lon="-6.2287340">
        <ele>802.6</ele>
        <time>2019-08-16T08:11:46Z</time>
      </trkpt>
      <trkpt lat="42.0065440" lon="-6.2287760">
        <ele>802.8</ele>
        <time>2019-08-16T08:11:47Z</time>
      </trkpt>
      <trkpt lat="42.0065540" lon="-6.2288170">
        <ele>802.9</ele>
        <time>2019-08-16T08:11:48Z</time>
      </trkpt>
      <trkpt lat="42.0065630" lon="-6.2288570">
        <ele>803.0</ele>
        <time>2019-08-16T08:11:49Z</time>
      </trkpt>
      <trkpt lat="42.0065730" lon="-6.2288970">
        <ele>803.2</ele>
        <time>2019-08-16T08:11:50Z</time>
      </trkpt>
      <trkpt lat="42.0065820" lon="-6.2289370">
        <ele>803.3</ele>
        <time>2019-08-16T08:11:51Z</time>
      </trkpt>
      <trkpt lat="42.0065900" lon="-6.2289760">
        <ele>803.4</ele>
        <time>2019-08-16T08:11:52Z</time>
      </trkpt>
      <trkpt lat="42.0065980" lon="-6.2290150">
        <ele>803.5</ele>
        <time>2019-08-16T08:11:53Z</time>
      </trkpt>
      <trkpt lat="42.0066070" lon="-6.2290540">
        <ele>803.7</ele>
        <time>2019-08-16T08:11:54Z</time>
      </trkpt>
      <trkpt lat="42.0066160" lon="-6.2290930">
        <ele>803.8</ele>
        <time>2019-08-16T08:11:55Z</time>
      </trkpt>
      <trkpt lat="42.0066240" lon="-6.2291300">
        <ele>804.0</ele>
        <time>2019-08-16T08:11:56Z</time>
      </trkpt>
      <trkpt lat="42.0066330" lon="-6.2291680">
        <ele>804.1</ele>
        <time>2019-08-16T08:11:57Z</time>
      </trkpt>
      <trkpt lat="42.0066420" lon="-6.2292040">
        <ele>804.3</ele>
        <time>2019-08-16T08:11:58Z</time>
      </trkpt>
      <trkpt lat="42.0066520" lon="-6.2292400">
        <ele>804.5</ele>
        <time>2019-08-16T08:11:59Z</time>
      </trkpt>
      <trkpt lat="42.0066610" lon="-6.2292780">
        <ele>804.7</ele>
        <time>2019-08-16T08:12:00Z</time>
      </trkpt>
      <trkpt lat="42.0066700" lon="-6.2293150">
        <ele>804.8</ele>
        <time>2019-08-16T08:12:01Z</time>
      </trkpt>
      <trkpt lat="42.0066790" lon="-6.2293550">
        <ele>804.9</ele>
        <time>2019-08-16T08:12:02Z</time>
      </trkpt>
      <trkpt lat="42.0066880" lon="-6.2293960">
        <ele>805.0</ele>
        <time>2019-08-16T08:12:03Z</time>
      </trkpt>
      <trkpt lat="42.0066980" lon="-6.2294380">
        <ele>805.1</ele>
        <time>2019-08-16T08:12:04Z</time>
      </trkpt>
      <trkpt lat="42.0067070" lon="-6.2294810">
        <ele>805.2</ele>
        <time>2019-08-16T08:12:05Z</time>
      </trkpt>
      <trkpt lat="42.0067160" lon="-6.2295250">
        <ele>805.3</ele>
        <time>2019-08-16T08:12:06Z</time>
      </trkpt>
      <trkpt lat="42.0067260" lon="-6.2295700">
        <ele>805.4</ele>
        <time>2019-08-16T08:12:07Z</time>
      </trkpt>
      <trkpt lat="42.0067350" lon="-6.2296140">
        <ele>805.5</ele>
        <time>2019-08-16T08:12:08Z</time>
      </trkpt>
      <trkpt lat="42.0067440" lon="-6.2296580">
        <ele>805.5</ele>
        <time>2019-08-16T08:12:09Z</time>
      </trkpt>
      <trkpt lat="42.0067540" lon="-6.2297010">
        <ele>805.6</ele>
        <time>2019-08-16T08:12:10Z</time>
      </trkpt>
      <trkpt lat="42.0067630" lon="-6.2297440">
        <ele>805.8</ele>
        <time>2019-08-16T08:12:11Z</time>
      </trkpt>
      <trkpt lat="42.0067720" lon="-6.2297880">
        <ele>805.9</ele>
        <time>2019-08-16T08:12:12Z</time>
      </trkpt>
      <trkpt lat="42.0067820" lon="-6.2298320">
        <ele>806.0</ele>
        <time>2019-08-16T08:12:13Z</time>
      </trkpt>
      <trkpt lat="42.0067920" lon="-6.2298760">
        <ele>806.1</ele>
        <time>2019-08-16T08:12:14Z</time>
      </trkpt>
      <trkpt lat="42.0068020" lon="-6.2299200">
        <ele>806.2</ele>
        <time>2019-08-16T08:12:15Z</time>
      </trkpt>
      <trkpt lat="42.0068120" lon="-6.2299650">
        <ele>806.3</ele>
        <time>2019-08-16T08:12:16Z</time>
      </trkpt>
      <trkpt lat="42.0068210" lon="-6.2300110">
        <ele>806.4</ele>
        <time>2019-08-16T08:12:17Z</time>
      </trkpt>
      <trkpt lat="42.0068300" lon="-6.2300570">
        <ele>806.5</ele>
        <time>2019-08-16T08:12:18Z</time>
      </trkpt>
      <trkpt lat="42.0068380" lon="-6.2301040">
        <ele>806.6</ele>
        <time>2019-08-16T08:12:19Z</time>
      </trkpt>
      <trkpt lat="42.0068470" lon="-6.2301510">
        <ele>806.9</ele>
        <time>2019-08-16T08:12:20Z</time>
      </trkpt>
      <trkpt lat="42.0068560" lon="-6.2301980">
        <ele>807.0</ele>
        <time>2019-08-16T08:12:21Z</time>
      </trkpt>
      <trkpt lat="42.0068640" lon="-6.2302460">
        <ele>807.0</ele>
        <time>2019-08-16T08:12:22Z</time>
      </trkpt>
      <trkpt lat="42.0068720" lon="-6.2302940">
        <ele>807.1</ele>
        <time>2019-08-16T08:12:23Z</time>
      </trkpt>
      <trkpt lat="42.0068790" lon="-6.2303430">
        <ele>807.2</ele>
        <time>2019-08-16T08:12:24Z</time>
      </trkpt>
      <trkpt lat="42.0068860" lon="-6.2303910">
        <ele>807.2</ele>
        <time>2019-08-16T08:12:25Z</time>
      </trkpt>
      <trkpt lat="42.0068940" lon="-6.2304390">
        <ele>807.3</ele>
        <time>2019-08-16T08:12:26Z</time>
      </trkpt>
      <trkpt lat="42.0069010" lon="-6.2304860">
        <ele>807.4</ele>
        <time>2019-08-16T08:12:27Z</time>
      </trkpt>
      <trkpt lat="42.0069080" lon="-6.2305330">
        <ele>807.4</ele>
        <time>2019-08-16T08:12:28Z</time>
      </trkpt>
      <trkpt lat="42.0069150" lon="-6.2305800">
        <ele>807.5</ele>
        <time>2019-08-16T08:12:29Z</time>
      </trkpt>
      <trkpt lat="42.0069210" lon="-6.2306280">
        <ele>807.6</ele>
        <time>2019-08-16T08:12:30Z</time>
      </trkpt>
      <trkpt lat="42.0069280" lon="-6.2306760">
        <ele>807.7</ele>
        <time>2019-08-16T08:12:31Z</time>
      </trkpt>
      <trkpt lat="42.0069330" lon="-6.2307250">
        <ele>807.8</ele>
        <time>2019-08-16T08:12:32Z</time>
      </trkpt>
      <trkpt lat="42.0069380" lon="-6.2307730">
        <ele>807.9</ele>
        <time>2019-08-16T08:12:33Z</time>
      </trkpt>
      <trkpt lat="42.0069420" lon="-6.2308210">
        <ele>808.0</ele>
        <time>2019-08-16T08:12:34Z</time>
      </trkpt>
      <trkpt lat="42.0069480" lon="-6.2308670">
        <ele>808.1</ele>
        <time>2019-08-16T08:12:35Z</time>
      </trkpt>
      <trkpt lat="42.0069540" lon="-6.2309130">
        <ele>808.2</ele>
        <time>2019-08-16T08:12:36Z</time>
      </trkpt>
      <trkpt lat="42.0069600" lon="-6.2309580">
        <ele>808.3</ele>
        <time>2019-08-16T08:12:37Z</time>
      </trkpt>
      <trkpt lat="42.0069660" lon="-6.2310020">
        <ele>808.3</ele>
        <time>2019-08-16T08:12:38Z</time>
      </trkpt>
      <trkpt lat="42.0069720" lon="-6.2310460">
        <ele>808.4</ele>
        <time>2019-08-16T08:12:39Z</time>
      </trkpt>
      <trkpt lat="42.0069780" lon="-6.2310900">
        <ele>808.5</ele>
        <time>2019-08-16T08:12:40Z</time>
      </trkpt>
      <trkpt lat="42.0069830" lon="-6.2311320">
        <ele>808.5</ele>
        <time>2019-08-16T08:12:41Z</time>
      </trkpt>
      <trkpt lat="42.0069890" lon="-6.2311720">
        <ele>808.6</ele>
        <time>2019-08-16T08:12:42Z</time>
      </trkpt>
      <trkpt lat="42.0069930" lon="-6.2312130">
        <ele>808.6</ele>
        <time>2019-08-16T08:12:43Z</time>
      </trkpt>
      <trkpt lat="42.0069980" lon="-6.2312540">
        <ele>808.7</ele>
        <time>2019-08-16T08:12:44Z</time>
      </trkpt>
      <trkpt lat="42.0070030" lon="-6.2312950">
        <ele>808.7</ele>
        <time>2019-08-16T08:12:45Z</time>
      </trkpt>
      <trkpt lat="42.0070080" lon="-6.2313370">
        <ele>808.8</ele>
        <time>2019-08-16T08:12:46Z</time>
      </trkpt>
      <trkpt lat="42.0070140" lon="-6.2313780">
        <ele>808.8</ele>
        <time>2019-08-16T08:12:47Z</time>
      </trkpt>
      <trkpt lat="42.0070190" lon="-6.2314210">
        <ele>808.9</ele>
        <time>2019-08-16T08:12:48Z</time>
      </trkpt>
      <trkpt lat="42.0070250" lon="-6.2314630">
        <ele>808.9</ele>
        <time>2019-08-16T08:12:49Z</time>
      </trkpt>
      <trkpt lat="42.0070300" lon="-6.2315050">
        <ele>809.0</ele>
        <time>2019-08-16T08:12:50Z</time>
      </trkpt>
      <trkpt lat="42.0070350" lon="-6.2315480">
        <ele>809.0</ele>
        <time>2019-08-16T08:12:51Z</time>
      </trkpt>
      <trkpt lat="42.0070400" lon="-6.2315910">
        <ele>809.1</ele>
        <time>2019-08-16T08:12:52Z</time>
      </trkpt>
      <trkpt lat="42.0070450" lon="-6.2316330">
        <ele>809.1</ele>
        <time>2019-08-16T08:12:53Z</time>
      </trkpt>
      <trkpt lat="42.0070500" lon="-6.2316750">
        <ele>809.2</ele>
        <time>2019-08-16T08:12:54Z</time>
      </trkpt>
      <trkpt lat="42.0070540" lon="-6.2317170">
        <ele>809.2</ele>
        <time>2019-08-16T08:12:55Z</time>
      </trkpt>
      <trkpt lat="42.0070590" lon="-6.2317580">
        <ele>809.3</ele>
        <time>2019-08-16T08:12:56Z</time>
      </trkpt>
      <trkpt lat="42.0070640" lon="-6.2317980">
        <ele>809.3</ele>
        <time>2019-08-16T08:12:57Z</time>
      </trkpt>
      <trkpt lat="42.0070690" lon="-6.2318380">
        <ele>809.4</ele>
        <time>2019-08-16T08:12:58Z</time>
      </trkpt>
      <trkpt lat="42.0070730" lon="-6.2318770">
        <ele>809.4</ele>
        <time>2019-08-16T08:12:59Z</time>
      </trkpt>
      <trkpt lat="42.0070780" lon="-6.2319170">
        <ele>809.4</ele>
        <time>2019-08-16T08:13:00Z</time>
      </trkpt>
      <trkpt lat="42.0070840" lon="-6.2319560">
        <ele>809.5</ele>
        <time>2019-08-16T08:13:01Z</time>
      </trkpt>
      <trkpt lat="42.0070890" lon="-6.2319950">
        <ele>809.5</ele>
        <time>2019-08-16T08:13:02Z</time>
      </trkpt>
      <trkpt lat="42.0070940" lon="-6.2320340">
        <ele>809.6</ele>
        <time>2019-08-16T08:13:03Z</time>
      </trkpt>
      <trkpt lat="42.0070980" lon="-6.2320730">
        <ele>809.6</ele>
        <time>2019-08-16T08:13:04Z</time>
      </trkpt>
      <trkpt lat="42.0071030" lon="-6.2321100">
        <ele>809.7</ele>
        <time>2019-08-16T08:13:05Z</time>
      </trkpt>
      <trkpt lat="42.0071080" lon="-6.2321470">
        <ele>809.7</ele>
        <time>2019-08-16T08:13:06Z</time>
      </trkpt>
      <trkpt lat="42.0071120" lon="-6.2321850">
        <ele>809.7</ele>
        <time>2019-08-16T08:13:07Z</time>
      </trkpt>
      <trkpt lat="42.0071170" lon="-6.2322210">
        <ele>809.8</ele>
        <time>2019-08-16T08:13:08Z</time>
      </trkpt>
      <trkpt lat="42.0071220" lon="-6.2322580">
        <ele>809.8</ele>
        <time>2019-08-16T08:13:09Z</time>
      </trkpt>
      <trkpt lat="42.0071280" lon="-6.2322960">
        <ele>809.9</ele>
        <time>2019-08-16T08:13:10Z</time>
      </trkpt>
      <trkpt lat="42.0071320" lon="-6.2323330">
        <ele>809.9</ele>
        <time>2019-08-16T08:13:11Z</time>
      </trkpt>
      <trkpt lat="42.0071380" lon="-6.2323710">
        <ele>810.0</ele>
        <time>2019-08-16T08:13:12Z</time>
      </trkpt>
      <trkpt lat="42.0071430" lon="-6.2324090">
        <ele>810.0</ele>
        <time>2019-08-16T08:13:13Z</time>
      </trkpt>
      <trkpt lat="42.0071470" lon="-6.2324480">
        <ele>810.1</ele>
        <time>2019-08-16T08:13:14Z</time>
      </trkpt>
      <trkpt lat="42.0071510" lon="-6.2324870">
        <ele>810.1</ele>
        <time>2019-08-16T08:13:15Z</time>
      </trkpt>
      <trkpt lat="42.0071560" lon="-6.2325250">
        <ele>810.2</ele>
        <time>2019-08-16T08:13:16Z</time>
      </trkpt>
      <trkpt lat="42.0071610" lon="-6.2325630">
        <ele>810.2</ele>
        <time>2019-08-16T08:13:17Z</time>
      </trkpt>
      <trkpt lat="42.0071650" lon="-6.2326010">
        <ele>810.3</ele>
        <time>2019-08-16T08:13:18Z</time>
      </trkpt>
      <trkpt lat="42.0071690" lon="-6.2326390">
        <ele>810.3</ele>
        <time>2019-08-16T08:13:19Z</time>
      </trkpt>
      <trkpt lat="42.0071750" lon="-6.2326780">
        <ele>810.4</ele>
        <time>2019-08-16T08:13:20Z</time>
      </trkpt>
      <trkpt lat="42.0071810" lon="-6.2327180">
        <ele>810.4</ele>
        <time>2019-08-16T08:13:21Z</time>
      </trkpt>
      <trkpt lat="42.0071860" lon="-6.2327570">
        <ele>810.5</ele>
        <time>2019-08-16T08:13:22Z</time>
      </trkpt>
      <trkpt lat="42.0071900" lon="-6.2327950">
        <ele>810.5</ele>
        <time>2019-08-16T08:13:23Z</time>
      </trkpt>
      <trkpt lat="42.0071980" lon="-6.2328620">
        <ele>810.6</ele>
        <time>2019-08-16T08:13:25Z</time>
      </trkpt>
      <trkpt lat="42.0072030" lon="-6.2328980">
        <ele>810.7</ele>
        <time>2019-08-16T08:13:26Z</time>
      </trkpt>
      <trkpt lat="42.0072070" lon="-6.2329360">
        <ele>810.7</ele>
        <time>2019-08-16T08:13:27Z</time>
      </trkpt>
      <trkpt lat="42.0072120" lon="-6.2329760">
        <ele>810.8</ele>
        <time>2019-08-16T08:13:28Z</time>
      </trkpt>
      <trkpt lat="42.0072160" lon="-6.2330150">
        <ele>810.8</ele>
        <time>2019-08-16T08:13:29Z</time>
      </trkpt>
      <trkpt lat="42.0072210" lon="-6.2330530">
        <ele>810.9</ele>
        <time>2019-08-16T08:13:30Z</time>
      </trkpt>
      <trkpt lat="42.0072260" lon="-6.2330920">
        <ele>810.9</ele>
        <time>2019-08-16T08:13:31Z</time>
      </trkpt>
      <trkpt lat="42.0072310" lon="-6.2331300">
        <ele>811.0</ele>
        <time>2019-08-16T08:13:32Z</time>
      </trkpt>
      <trkpt lat="42.0072370" lon="-6.2331690">
        <ele>811.1</ele>
        <time>2019-08-16T08:13:33Z</time>
      </trkpt>
      <trkpt lat="42.0072410" lon="-6.2332080">
        <ele>811.1</ele>
        <time>2019-08-16T08:13:34Z</time>
      </trkpt>
      <trkpt lat="42.0072460" lon="-6.2332470">
        <ele>811.2</ele>
        <time>2019-08-16T08:13:35Z</time>
      </trkpt>
      <trkpt lat="42.0072520" lon="-6.2332860">
        <ele>811.3</ele>
        <time>2019-08-16T08:13:36Z</time>
      </trkpt>
      <trkpt lat="42.0072560" lon="-6.2333260">
        <ele>811.4</ele>
        <time>2019-08-16T08:13:37Z</time>
      </trkpt>
      <trkpt lat="42.0072610" lon="-6.2333670">
        <ele>811.5</ele>
        <time>2019-08-16T08:13:38Z</time>
      </trkpt>
      <trkpt lat="42.0072650" lon="-6.2334090">
        <ele>811.6</ele>
        <time>2019-08-16T08:13:39Z</time>
      </trkpt>
      <trkpt lat="42.0072710" lon="-6.2334520">
        <ele>811.7</ele>
        <time>2019-08-16T08:13:40Z</time>
      </trkpt>
      <trkpt lat="42.0072760" lon="-6.2334950">
        <ele>811.8</ele>
        <time>2019-08-16T08:13:41Z</time>
      </trkpt>
      <trkpt lat="42.0072820" lon="-6.2335370">
        <ele>811.9</ele>
        <time>2019-08-16T08:13:42Z</time>
      </trkpt>
      <trkpt lat="42.0072870" lon="-6.2335770">
        <ele>812.0</ele>
        <time>2019-08-16T08:13:43Z</time>
      </trkpt>
      <trkpt lat="42.0072910" lon="-6.2336160">
        <ele>812.1</ele>
        <time>2019-08-16T08:13:44Z</time>
      </trkpt>
      <trkpt lat="42.0072960" lon="-6.2336570">
        <ele>812.2</ele>
        <time>2019-08-16T08:13:45Z</time>
      </trkpt>
      <trkpt lat="42.0073020" lon="-6.2337010">
        <ele>812.3</ele>
        <time>2019-08-16T08:13:46Z</time>
      </trkpt>
      <trkpt lat="42.0073080" lon="-6.2337460">
        <ele>812.4</ele>
        <time>2019-08-16T08:13:47Z</time>
      </trkpt>
      <trkpt lat="42.0073140" lon="-6.2337920">
        <ele>812.5</ele>
        <time>2019-08-16T08:13:48Z</time>
      </trkpt>
      <trkpt lat="42.0073200" lon="-6.2338370">
        <ele>812.5</ele>
        <time>2019-08-16T08:13:49Z</time>
      </trkpt>
      <trkpt lat="42.0073250" lon="-6.2338800">
        <ele>812.6</ele>
        <time>2019-08-16T08:13:50Z</time>
      </trkpt>
      <trkpt lat="42.0073310" lon="-6.2339220">
        <ele>812.6</ele>
        <time>2019-08-16T08:13:51Z</time>
      </trkpt>
      <trkpt lat="42.0073360" lon="-6.2339640">
        <ele>812.7</ele>
        <time>2019-08-16T08:13:52Z</time>
      </trkpt>
      <trkpt lat="42.0073410" lon="-6.2340080">
        <ele>812.7</ele>
        <time>2019-08-16T08:13:53Z</time>
      </trkpt>
      <trkpt lat="42.0073460" lon="-6.2340520">
        <ele>812.7</ele>
        <time>2019-08-16T08:13:54Z</time>
      </trkpt>
      <trkpt lat="42.0073510" lon="-6.2340970">
        <ele>812.7</ele>
        <time>2019-08-16T08:13:55Z</time>
      </trkpt>
      <trkpt lat="42.0073560" lon="-6.2341390">
        <ele>812.8</ele>
        <time>2019-08-16T08:13:56Z</time>
      </trkpt>
      <trkpt lat="42.0073610" lon="-6.2341800">
        <ele>812.8</ele>
        <time>2019-08-16T08:13:57Z</time>
      </trkpt>
      <trkpt lat="42.0073660" lon="-6.2342210">
        <ele>812.8</ele>
        <time>2019-08-16T08:13:58Z</time>
      </trkpt>
      <trkpt lat="42.0073720" lon="-6.2342640">
        <ele>812.8</ele>
        <time>2019-08-16T08:13:59Z</time>
      </trkpt>
      <trkpt lat="42.0073780" lon="-6.2343100">
        <ele>812.8</ele>
        <time>2019-08-16T08:14:00Z</time>
      </trkpt>
      <trkpt lat="42.0073830" lon="-6.2343580">
        <ele>812.8</ele>
        <time>2019-08-16T08:14:01Z</time>
      </trkpt>
      <trkpt lat="42.0073900" lon="-6.2344070">
        <ele>812.9</ele>
        <time>2019-08-16T08:14:02Z</time>
      </trkpt>
      <trkpt lat="42.0073960" lon="-6.2344570">
        <ele>812.9</ele>
        <time>2019-08-16T08:14:03Z</time>
      </trkpt>
      <trkpt lat="42.0074020" lon="-6.2345060">
        <ele>812.9</ele>
        <time>2019-08-16T08:14:04Z</time>
      </trkpt>
      <trkpt lat="42.0074070" lon="-6.2345530">
        <ele>812.9</ele>
        <time>2019-08-16T08:14:05Z</time>
      </trkpt>
      <trkpt lat="42.0074120" lon="-6.2345990">
        <ele>812.9</ele>
        <time>2019-08-16T08:14:06Z</time>
      </trkpt>
      <trkpt lat="42.0074180" lon="-6.2346450">
        <ele>813.0</ele>
        <time>2019-08-16T08:14:07Z</time>
      </trkpt>
      <trkpt lat="42.0074250" lon="-6.2346890">
        <ele>813.0</ele>
        <time>2019-08-16T08:14:08Z</time>
      </trkpt>
      <trkpt lat="42.0074310" lon="-6.2347360">
        <ele>813.0</ele>
        <time>2019-08-16T08:14:09Z</time>
      </trkpt>
      <trkpt lat="42.0074370" lon="-6.2347860">
        <ele>813.1</ele>
        <time>2019-08-16T08:14:10Z</time>
      </trkpt>
      <trkpt lat="42.0074430" lon="-6.2348370">
        <ele>813.1</ele>
        <time>2019-08-16T08:14:11Z</time>
      </trkpt>
      <trkpt lat="42.0074500" lon="-6.2348920">
        <ele>813.2</ele>
        <time>2019-08-16T08:14:12Z</time>
      </trkpt>
      <trkpt lat="42.0074570" lon="-6.2349470">
        <ele>813.2</ele>
        <time>2019-08-16T08:14:13Z</time>
      </trkpt>
      <trkpt lat="42.0074640" lon="-6.2350010">
        <ele>813.3</ele>
        <time>2019-08-16T08:14:14Z</time>
      </trkpt>
      <trkpt lat="42.0074710" lon="-6.2350540">
        <ele>813.3</ele>
        <time>2019-08-16T08:14:15Z</time>
      </trkpt>
      <trkpt lat="42.0074770" lon="-6.2351070">
        <ele>813.4</ele>
        <time>2019-08-16T08:14:16Z</time>
      </trkpt>
      <trkpt lat="42.0074830" lon="-6.2351580">
        <ele>813.4</ele>
        <time>2019-08-16T08:14:17Z</time>
      </trkpt>
      <trkpt lat="42.0074890" lon="-6.2352110">
        <ele>813.5</ele>
        <time>2019-08-16T08:14:18Z</time>
      </trkpt>
      <trkpt lat="42.0074960" lon="-6.2352660">
        <ele>813.7</ele>
        <time>2019-08-16T08:14:19Z</time>
      </trkpt>
      <trkpt lat="42.0075020" lon="-6.2353190">
        <ele>813.8</ele>
        <time>2019-08-16T08:14:20Z</time>
      </trkpt>
      <trkpt lat="42.0075080" lon="-6.2353730">
        <ele>813.9</ele>
        <time>2019-08-16T08:14:21Z</time>
      </trkpt>
      <trkpt lat="42.0075140" lon="-6.2354280">
        <ele>814.1</ele>
        <time>2019-08-16T08:14:22Z</time>
      </trkpt>
      <trkpt lat="42.0075200" lon="-6.2354800">
        <ele>814.2</ele>
        <time>2019-08-16T08:14:23Z</time>
      </trkpt>
      <trkpt lat="42.0075270" lon="-6.2355320">
        <ele>814.3</ele>
        <time>2019-08-16T08:14:24Z</time>
      </trkpt>
      <trkpt lat="42.0075330" lon="-6.2355850">
        <ele>814.4</ele>
        <time>2019-08-16T08:14:25Z</time>
      </trkpt>
      <trkpt lat="42.0075400" lon="-6.2356400">
        <ele>814.4</ele>
        <time>2019-08-16T08:14:26Z</time>
      </trkpt>
      <trkpt lat="42.0075470" lon="-6.2356950">
        <ele>814.4</ele>
        <time>2019-08-16T08:14:27Z</time>
      </trkpt>
      <trkpt lat="42.0075540" lon="-6.2357520">
        <ele>814.5</ele>
        <time>2019-08-16T08:14:28Z</time>
      </trkpt>
      <trkpt lat="42.0075620" lon="-6.2358080">
        <ele>814.5</ele>
        <time>2019-08-16T08:14:29Z</time>
      </trkpt>
      <trkpt lat="42.0075690" lon="-6.2358640">
        <ele>814.5</ele>
        <time>2019-08-16T08:14:30Z</time>
      </trkpt>
      <trkpt lat="42.0075770" lon="-6.2359190">
        <ele>814.5</ele>
        <time>2019-08-16T08:14:31Z</time>
      </trkpt>
      <trkpt lat="42.0075840" lon="-6.2359770">
        <ele>814.5</ele>
        <time>2019-08-16T08:14:32Z</time>
      </trkpt>
      <trkpt lat="42.0075910" lon="-6.2360350">
        <ele>814.5</ele>
        <time>2019-08-16T08:14:33Z</time>
      </trkpt>
      <trkpt lat="42.0075970" lon="-6.2360890">
        <ele>814.5</ele>
        <time>2019-08-16T08:14:34Z</time>
      </trkpt>
      <trkpt lat="42.0076030" lon="-6.2361430">
        <ele>814.5</ele>
        <time>2019-08-16T08:14:35Z</time>
      </trkpt>
      <trkpt lat="42.0076100" lon="-6.2361990">
        <ele>814.5</ele>
        <time>2019-08-16T08:14:36Z</time>
      </trkpt>
      <trkpt lat="42.0076190" lon="-6.2362600">
        <ele>814.6</ele>
        <time>2019-08-16T08:14:37Z</time>
      </trkpt>
      <trkpt lat="42.0076260" lon="-6.2363210">
        <ele>814.6</ele>
        <time>2019-08-16T08:14:38Z</time>
      </trkpt>
      <trkpt lat="42.0076330" lon="-6.2363830">
        <ele>814.6</ele>
        <time>2019-08-16T08:14:39Z</time>
      </trkpt>
      <trkpt lat="42.0076400" lon="-6.2364450">
        <ele>814.6</ele>
        <time>2019-08-16T08:14:40Z</time>
      </trkpt>
      <trkpt lat="42.0076470" lon="-6.2365070">
        <ele>814.6</ele>
        <time>2019-08-16T08:14:41Z</time>
      </trkpt>
      <trkpt lat="42.0076540" lon="-6.2365690">
        <ele>814.6</ele>
        <time>2019-08-16T08:14:42Z</time>
      </trkpt>
      <trkpt lat="42.0076620" lon="-6.2366300">
        <ele>814.6</ele>
        <time>2019-08-16T08:14:43Z</time>
      </trkpt>
      <trkpt lat="42.0076700" lon="-6.2366910">
        <ele>814.6</ele>
        <time>2019-08-16T08:14:44Z</time>
      </trkpt>
      <trkpt lat="42.0076790" lon="-6.2367520">
        <ele>814.6</ele>
        <time>2019-08-16T08:14:45Z</time>
      </trkpt>
      <trkpt lat="42.0076870" lon="-6.2368130">
        <ele>814.6</ele>
        <time>2019-08-16T08:14:46Z</time>
      </trkpt>
      <trkpt lat="42.0076940" lon="-6.2368760">
        <ele>814.6</ele>
        <time>2019-08-16T08:14:47Z</time>
      </trkpt>
      <trkpt lat="42.0077000" lon="-6.2369380">
        <ele>814.6</ele>
        <time>2019-08-16T08:14:48Z</time>
      </trkpt>
      <trkpt lat="42.0077080" lon="-6.2369990">
        <ele>814.6</ele>
        <time>2019-08-16T08:14:49Z</time>
      </trkpt>
      <trkpt lat="42.0077150" lon="-6.2370600">
        <ele>814.6</ele>
        <time>2019-08-16T08:14:50Z</time>
      </trkpt>
      <trkpt lat="42.0077220" lon="-6.2371210">
        <ele>814.7</ele>
        <time>2019-08-16T08:14:51Z</time>
      </trkpt>
      <trkpt lat="42.0077290" lon="-6.2371800">
        <ele>814.7</ele>
        <time>2019-08-16T08:14:52Z</time>
      </trkpt>
      <trkpt lat="42.0077360" lon="-6.2372380">
        <ele>814.7</ele>
        <time>2019-08-16T08:14:53Z</time>
      </trkpt>
      <trkpt lat="42.0077440" lon="-6.2372950">
        <ele>814.7</ele>
        <time>2019-08-16T08:14:54Z</time>
      </trkpt>
      <trkpt lat="42.0077520" lon="-6.2373530">
        <ele>814.8</ele>
        <time>2019-08-16T08:14:55Z</time>
      </trkpt>
      <trkpt lat="42.0077600" lon="-6.2374100">
        <ele>814.8</ele>
        <time>2019-08-16T08:14:56Z</time>
      </trkpt>
      <trkpt lat="42.0077680" lon="-6.2374660">
        <ele>814.9</ele>
        <time>2019-08-16T08:14:57Z</time>
      </trkpt>
      <trkpt lat="42.0077750" lon="-6.2375220">
        <ele>815.0</ele>
        <time>2019-08-16T08:14:58Z</time>
      </trkpt>
      <trkpt lat="42.0077830" lon="-6.2375770">
        <ele>815.1</ele>
        <time>2019-08-16T08:14:59Z</time>
      </trkpt>
      <trkpt lat="42.0077890" lon="-6.2376310">
        <ele>815.1</ele>
        <time>2019-08-16T08:15:00Z</time>
      </trkpt>
      <trkpt lat="42.0077960" lon="-6.2376850">
        <ele>815.2</ele>
        <time>2019-08-16T08:15:01Z</time>
      </trkpt>
      <trkpt lat="42.0078030" lon="-6.2377390">
        <ele>815.3</ele>
        <time>2019-08-16T08:15:02Z</time>
      </trkpt>
      <trkpt lat="42.0078090" lon="-6.2377900">
        <ele>815.4</ele>
        <time>2019-08-16T08:15:03Z</time>
      </trkpt>
      <trkpt lat="42.0078150" lon="-6.2378430">
        <ele>815.6</ele>
        <time>2019-08-16T08:15:04Z</time>
      </trkpt>
      <trkpt lat="42.0078210" lon="-6.2378940">
        <ele>815.7</ele>
        <time>2019-08-16T08:15:05Z</time>
      </trkpt>
      <trkpt lat="42.0078270" lon="-6.2379440">
        <ele>815.9</ele>
        <time>2019-08-16T08:15:06Z</time>
      </trkpt>
      <trkpt lat="42.0078330" lon="-6.2379920">
        <ele>816.0</ele>
        <time>2019-08-16T08:15:07Z</time>
      </trkpt>
      <trkpt lat="42.0078390" lon="-6.2380410">
        <ele>816.1</ele>
        <time>2019-08-16T08:15:08Z</time>
      </trkpt>
      <trkpt lat="42.0078440" lon="-6.2380900">
        <ele>816.3</ele>
        <time>2019-08-16T08:15:09Z</time>
      </trkpt>
      <trkpt lat="42.0078520" lon="-6.2381390">
        <ele>816.4</ele>
        <time>2019-08-16T08:15:10Z</time>
      </trkpt>
      <trkpt lat="42.0078590" lon="-6.2381900">
        <ele>816.5</ele>
        <time>2019-08-16T08:15:11Z</time>
      </trkpt>
      <trkpt lat="42.0078660" lon="-6.2382400">
        <ele>816.6</ele>
        <time>2019-08-16T08:15:12Z</time>
      </trkpt>
      <trkpt lat="42.0078720" lon="-6.2382890">
        <ele>816.6</ele>
        <time>2019-08-16T08:15:13Z</time>
      </trkpt>
      <trkpt lat="42.0078780" lon="-6.2383380">
        <ele>816.7</ele>
        <time>2019-08-16T08:15:14Z</time>
      </trkpt>
      <trkpt lat="42.0078840" lon="-6.2383880">
        <ele>816.7</ele>
        <time>2019-08-16T08:15:15Z</time>
      </trkpt>
      <trkpt lat="42.0078900" lon="-6.2384380">
        <ele>816.8</ele>
        <time>2019-08-16T08:15:16Z</time>
      </trkpt>
      <trkpt lat="42.0078980" lon="-6.2384890">
        <ele>816.9</ele>
        <time>2019-08-16T08:15:17Z</time>
      </trkpt>
      <trkpt lat="42.0079040" lon="-6.2385380">
        <ele>816.9</ele>
        <time>2019-08-16T08:15:18Z</time>
      </trkpt>
      <trkpt lat="42.0079100" lon="-6.2385850">
        <ele>817.0</ele>
        <time>2019-08-16T08:15:19Z</time>
      </trkpt>
      <trkpt lat="42.0079150" lon="-6.2386310">
        <ele>817.1</ele>
        <time>2019-08-16T08:15:20Z</time>
      </trkpt>
      <trkpt lat="42.0079210" lon="-6.2386760">
        <ele>817.2</ele>
        <time>2019-08-16T08:15:21Z</time>
      </trkpt>
      <trkpt lat="42.0079270" lon="-6.2387220">
        <ele>817.3</ele>
        <time>2019-08-16T08:15:22Z</time>
      </trkpt>
      <trkpt lat="42.0079330" lon="-6.2387670">
        <ele>817.4</ele>
        <time>2019-08-16T08:15:23Z</time>
      </trkpt>
      <trkpt lat="42.0079380" lon="-6.2388110">
        <ele>817.5</ele>
        <time>2019-08-16T08:15:24Z</time>
      </trkpt>
      <trkpt lat="42.0079430" lon="-6.2388550">
        <ele>817.7</ele>
        <time>2019-08-16T08:15:25Z</time>
      </trkpt>
      <trkpt lat="42.0079480" lon="-6.2388970">
        <ele>817.8</ele>
        <time>2019-08-16T08:15:26Z</time>
      </trkpt>
      <trkpt lat="42.0079530" lon="-6.2389380">
        <ele>818.0</ele>
        <time>2019-08-16T08:15:27Z</time>
      </trkpt>
      <trkpt lat="42.0079580" lon="-6.2389790">
        <ele>818.1</ele>
        <time>2019-08-16T08:15:28Z</time>
      </trkpt>
      <trkpt lat="42.0079630" lon="-6.2390200">
        <ele>818.3</ele>
        <time>2019-08-16T08:15:29Z</time>
      </trkpt>
      <trkpt lat="42.0079680" lon="-6.2390600">
        <ele>818.5</ele>
        <time>2019-08-16T08:15:30Z</time>
      </trkpt>
      <trkpt lat="42.0079730" lon="-6.2391000">
        <ele>818.6</ele>
        <time>2019-08-16T08:15:31Z</time>
      </trkpt>
      <trkpt lat="42.0079780" lon="-6.2391420">
        <ele>818.8</ele>
        <time>2019-08-16T08:15:32Z</time>
      </trkpt>
      <trkpt lat="42.0079830" lon="-6.2391820">
        <ele>818.9</ele>
        <time>2019-08-16T08:15:33Z</time>
      </trkpt>
      <trkpt lat="42.0079880" lon="-6.2392230">
        <ele>819.1</ele>
        <time>2019-08-16T08:15:34Z</time>
      </trkpt>
      <trkpt lat="42.0079940" lon="-6.2392630">
        <ele>819.2</ele>
        <time>2019-08-16T08:15:35Z</time>
      </trkpt>
      <trkpt lat="42.0079990" lon="-6.2393030">
        <ele>819.4</ele>
        <time>2019-08-16T08:15:36Z</time>
      </trkpt>
      <trkpt lat="42.0080030" lon="-6.2393440">
        <ele>819.5</ele>
        <time>2019-08-16T08:15:37Z</time>
      </trkpt>
      <trkpt lat="42.0080080" lon="-6.2393830">
        <ele>819.7</ele>
        <time>2019-08-16T08:15:38Z</time>
      </trkpt>
      <trkpt lat="42.0080130" lon="-6.2394220">
        <ele>819.8</ele>
        <time>2019-08-16T08:15:39Z</time>
      </trkpt>
      <trkpt lat="42.0080180" lon="-6.2394610">
        <ele>820.0</ele>
        <time>2019-08-16T08:15:40Z</time>
      </trkpt>
      <trkpt lat="42.0080240" lon="-6.2394990">
        <ele>820.1</ele>
        <time>2019-08-16T08:15:41Z</time>
      </trkpt>
      <trkpt lat="42.0080280" lon="-6.2395370">
        <ele>820.3</ele>
        <time>2019-08-16T08:15:42Z</time>
      </trkpt>
      <trkpt lat="42.0080330" lon="-6.2395740">
        <ele>820.4</ele>
        <time>2019-08-16T08:15:43Z</time>
      </trkpt>
      <trkpt lat="42.0080370" lon="-6.2396110">
        <ele>820.6</ele>
        <time>2019-08-16T08:15:44Z</time>
      </trkpt>
      <trkpt lat="42.0080420" lon="-6.2396490">
        <ele>820.8</ele>
        <time>2019-08-16T08:15:45Z</time>
      </trkpt>
      <trkpt lat="42.0080470" lon="-6.2396860">
        <ele>820.9</ele>
        <time>2019-08-16T08:15:46Z</time>
      </trkpt>
      <trkpt lat="42.0080520" lon="-6.2397230">
        <ele>821.1</ele>
        <time>2019-08-16T08:15:47Z</time>
      </trkpt>
      <trkpt lat="42.0080570" lon="-6.2397610">
        <ele>821.3</ele>
        <time>2019-08-16T08:15:48Z</time>
      </trkpt>
      <trkpt lat="42.0080620" lon="-6.2397990">
        <ele>821.4</ele>
        <time>2019-08-16T08:15:49Z</time>
      </trkpt>
      <trkpt lat="42.0080660" lon="-6.2398360">
        <ele>821.6</ele>
        <time>2019-08-16T08:15:50Z</time>
      </trkpt>
      <trkpt lat="42.0080710" lon="-6.2398740">
        <ele>821.7</ele>
        <time>2019-08-16T08:15:51Z</time>
      </trkpt>
      <trkpt lat="42.0080760" lon="-6.2399120">
        <ele>821.9</ele>
        <time>2019-08-16T08:15:52Z</time>
      </trkpt>
      <trkpt lat="42.0080810" lon="-6.2399490">
        <ele>822.1</ele>
        <time>2019-08-16T08:15:53Z</time>
      </trkpt>
      <trkpt lat="42.0080860" lon="-6.2399860">
        <ele>822.2</ele>
        <time>2019-08-16T08:15:54Z</time>
      </trkpt>
      <trkpt lat="42.0080910" lon="-6.2400230">
        <ele>822.4</ele>
        <time>2019-08-16T08:15:55Z</time>
      </trkpt>
      <trkpt lat="42.0080950" lon="-6.2400600">
        <ele>822.6</ele>
        <time>2019-08-16T08:15:56Z</time>
      </trkpt>
      <trkpt lat="42.0081010" lon="-6.2400980">
        <ele>822.9</ele>
        <time>2019-08-16T08:15:57Z</time>
      </trkpt>
      <trkpt lat="42.0081060" lon="-6.2401360">
        <ele>823.1</ele>
        <time>2019-08-16T08:15:58Z</time>
      </trkpt>
      <trkpt lat="42.0081110" lon="-6.2401740">
        <ele>823.4</ele>
        <time>2019-08-16T08:15:59Z</time>
      </trkpt>
      <trkpt lat="42.0081170" lon="-6.2402110">
        <ele>823.6</ele>
        <time>2019-08-16T08:16:00Z</time>
      </trkpt>
      <trkpt lat="42.0081210" lon="-6.2402490">
        <ele>823.8</ele>
        <time>2019-08-16T08:16:01Z</time>
      </trkpt>
      <trkpt lat="42.0081260" lon="-6.2402870">
        <ele>824.0</ele>
        <time>2019-08-16T08:16:02Z</time>
      </trkpt>
      <trkpt lat="42.0081300" lon="-6.2403260">
        <ele>824.3</ele>
        <time>2019-08-16T08:16:03Z</time>
      </trkpt>
      <trkpt lat="42.0081350" lon="-6.2403640">
        <ele>824.5</ele>
        <time>2019-08-16T08:16:04Z</time>
      </trkpt>
      <trkpt lat="42.0081410" lon="-6.2404030">
        <ele>824.7</ele>
        <time>2019-08-16T08:16:05Z</time>
      </trkpt>
      <trkpt lat="42.0081450" lon="-6.2404430">
        <ele>824.9</ele>
        <time>2019-08-16T08:16:06Z</time>
      </trkpt>
      <trkpt lat="42.0081500" lon="-6.2404820">
        <ele>825.1</ele>
        <time>2019-08-16T08:16:07Z</time>
      </trkpt>
      <trkpt lat="42.0081550" lon="-6.2405220">
        <ele>825.3</ele>
        <time>2019-08-16T08:16:08Z</time>
      </trkpt>
      <trkpt lat="42.0081600" lon="-6.2405600">
        <ele>825.5</ele>
        <time>2019-08-16T08:16:09Z</time>
      </trkpt>
      <trkpt lat="42.0081640" lon="-6.2405990">
        <ele>825.7</ele>
        <time>2019-08-16T08:16:10Z</time>
      </trkpt>
      <trkpt lat="42.0081680" lon="-6.2406370">
        <ele>825.9</ele>
        <time>2019-08-16T08:16:11Z</time>
      </trkpt>
      <trkpt lat="42.0081730" lon="-6.2406750">
        <ele>826.0</ele>
        <time>2019-08-16T08:16:12Z</time>
      </trkpt>
      <trkpt lat="42.0081780" lon="-6.2407140">
        <ele>826.2</ele>
        <time>2019-08-16T08:16:13Z</time>
      </trkpt>
      <trkpt lat="42.0081840" lon="-6.2407520">
        <ele>826.3</ele>
        <time>2019-08-16T08:16:14Z</time>
      </trkpt>
      <trkpt lat="42.0081890" lon="-6.2407910">
        <ele>826.5</ele>
        <time>2019-08-16T08:16:15Z</time>
      </trkpt>
      <trkpt lat="42.0081940" lon="-6.2408290">
        <ele>826.7</ele>
        <time>2019-08-16T08:16:16Z</time>
      </trkpt>
      <trkpt lat="42.0081990" lon="-6.2408670">
        <ele>826.8</ele>
        <time>2019-08-16T08:16:17Z</time>
      </trkpt>
      <trkpt lat="42.0082040" lon="-6.2409050">
        <ele>827.0</ele>
        <time>2019-08-16T08:16:18Z</time>
      </trkpt>
      <trkpt lat="42.0082080" lon="-6.2409430">
        <ele>827.1</ele>
        <time>2019-08-16T08:16:19Z</time>
      </trkpt>
      <trkpt lat="42.0082120" lon="-6.2409810">
        <ele>827.3</ele>
        <time>2019-08-16T08:16:20Z</time>
      </trkpt>
      <trkpt lat="42.0082160" lon="-6.2410180">
        <ele>827.5</ele>
        <time>2019-08-16T08:16:21Z</time>
      </trkpt>
      <trkpt lat="42.0082200" lon="-6.2410560">
        <ele>827.6</ele>
        <time>2019-08-16T08:16:22Z</time>
      </trkpt>
      <trkpt lat="42.0082240" lon="-6.2410940">
        <ele>827.8</ele>
        <time>2019-08-16T08:16:23Z</time>
      </trkpt>
      <trkpt lat="42.0082280" lon="-6.2411320">
        <ele>827.9</ele>
        <time>2019-08-16T08:16:24Z</time>
      </trkpt>
      <trkpt lat="42.0082340" lon="-6.2411700">
        <ele>828.0</ele>
        <time>2019-08-16T08:16:25Z</time>
      </trkpt>
      <trkpt lat="42.0082390" lon="-6.2412080">
        <ele>828.2</ele>
        <time>2019-08-16T08:16:26Z</time>
      </trkpt>
      <trkpt lat="42.0082440" lon="-6.2412450">
        <ele>828.4</ele>
        <time>2019-08-16T08:16:27Z</time>
      </trkpt>
      <trkpt lat="42.0082490" lon="-6.2412830">
        <ele>828.5</ele>
        <time>2019-08-16T08:16:28Z</time>
      </trkpt>
      <trkpt lat="42.0082540" lon="-6.2413200">
        <ele>828.7</ele>
        <time>2019-08-16T08:16:29Z</time>
      </trkpt>
      <trkpt lat="42.0082590" lon="-6.2413580">
        <ele>828.8</ele>
        <time>2019-08-16T08:16:30Z</time>
      </trkpt>
      <trkpt lat="42.0082640" lon="-6.2413950">
        <ele>829.0</ele>
        <time>2019-08-16T08:16:31Z</time>
      </trkpt>
      <trkpt lat="42.0082690" lon="-6.2414320">
        <ele>829.1</ele>
        <time>2019-08-16T08:16:32Z</time>
      </trkpt>
      <trkpt lat="42.0082740" lon="-6.2414690">
        <ele>829.2</ele>
        <time>2019-08-16T08:16:33Z</time>
      </trkpt>
      <trkpt lat="42.0082780" lon="-6.2415060">
        <ele>829.3</ele>
        <time>2019-08-16T08:16:34Z</time>
      </trkpt>
      <trkpt lat="42.0082830" lon="-6.2415420">
        <ele>829.5</ele>
        <time>2019-08-16T08:16:35Z</time>
      </trkpt>
      <trkpt lat="42.0082870" lon="-6.2415780">
        <ele>829.6</ele>
        <time>2019-08-16T08:16:36Z</time>
      </trkpt>
      <trkpt lat="42.0082920" lon="-6.2416140">
        <ele>829.7</ele>
        <time>2019-08-16T08:16:37Z</time>
      </trkpt>
      <trkpt lat="42.0082970" lon="-6.2416510">
        <ele>829.9</ele>
        <time>2019-08-16T08:16:38Z</time>
      </trkpt>
      <trkpt lat="42.0083020" lon="-6.2416870">
        <ele>830.0</ele>
        <time>2019-08-16T08:16:39Z</time>
      </trkpt>
      <trkpt lat="42.0083060" lon="-6.2417230">
        <ele>830.2</ele>
        <time>2019-08-16T08:16:40Z</time>
      </trkpt>
      <trkpt lat="42.0083100" lon="-6.2417590">
        <ele>830.3</ele>
        <time>2019-08-16T08:16:41Z</time>
      </trkpt>
      <trkpt lat="42.0083150" lon="-6.2417960">
        <ele>830.4</ele>
        <time>2019-08-16T08:16:42Z</time>
      </trkpt>
      <trkpt lat="42.0083190" lon="-6.2418320">
        <ele>830.5</ele>
        <time>2019-08-16T08:16:43Z</time>
      </trkpt>
      <trkpt lat="42.0083240" lon="-6.2418690">
        <ele>830.6</ele>
        <time>2019-08-16T08:16:44Z</time>
      </trkpt>
      <trkpt lat="42.0083290" lon="-6.2419050">
        <ele>830.8</ele>
        <time>2019-08-16T08:16:45Z</time>
      </trkpt>
      <trkpt lat="42.0083340" lon="-6.2419420">
        <ele>830.9</ele>
        <time>2019-08-16T08:16:46Z</time>
      </trkpt>
      <trkpt lat="42.0083390" lon="-6.2419800">
        <ele>831.0</ele>
        <time>2019-08-16T08:16:47Z</time>
      </trkpt>
      <trkpt lat="42.0083430" lon="-6.2420180">
        <ele>831.1</ele>
        <time>2019-08-16T08:16:48Z</time>
      </trkpt>
      <trkpt lat="42.0083470" lon="-6.2420560">
        <ele>831.2</ele>
        <time>2019-08-16T08:16:49Z</time>
      </trkpt>
      <trkpt lat="42.0083520" lon="-6.2420950">
        <ele>831.3</ele>
        <time>2019-08-16T08:16:50Z</time>
      </trkpt>
      <trkpt lat="42.0083580" lon="-6.2421340">
        <ele>831.4</ele>
        <time>2019-08-16T08:16:51Z</time>
      </trkpt>
      <trkpt lat="42.0083630" lon="-6.2421720">
        <ele>831.5</ele>
        <time>2019-08-16T08:16:52Z</time>
      </trkpt>
      <trkpt lat="42.0083680" lon="-6.2422100">
        <ele>831.6</ele>
        <time>2019-08-16T08:16:53Z</time>
      </trkpt>
      <trkpt lat="42.0083720" lon="-6.2422470">
        <ele>831.7</ele>
        <time>2019-08-16T08:16:54Z</time>
      </trkpt>
      <trkpt lat="42.0083760" lon="-6.2422850">
        <ele>831.8</ele>
        <time>2019-08-16T08:16:55Z</time>
      </trkpt>
      <trkpt lat="42.0083810" lon="-6.2423230">
        <ele>831.9</ele>
        <time>2019-08-16T08:16:56Z</time>
      </trkpt>
      <trkpt lat="42.0083860" lon="-6.2423600">
        <ele>832.0</ele>
        <time>2019-08-16T08:16:57Z</time>
      </trkpt>
      <trkpt lat="42.0083910" lon="-6.2423970">
        <ele>832.2</ele>
        <time>2019-08-16T08:16:58Z</time>
      </trkpt>
      <trkpt lat="42.0083960" lon="-6.2424340">
        <ele>832.3</ele>
        <time>2019-08-16T08:16:59Z</time>
      </trkpt>
      <trkpt lat="42.0084000" lon="-6.2424720">
        <ele>832.3</ele>
        <time>2019-08-16T08:17:00Z</time>
      </trkpt>
      <trkpt lat="42.0084050" lon="-6.2425090">
        <ele>832.4</ele>
        <time>2019-08-16T08:17:01Z</time>
      </trkpt>
      <trkpt lat="42.0084100" lon="-6.2425460">
        <ele>832.4</ele>
        <time>2019-08-16T08:17:02Z</time>
      </trkpt>
      <trkpt lat="42.0084140" lon="-6.2425830">
        <ele>832.4</ele>
        <time>2019-08-16T08:17:03Z</time>
      </trkpt>
      <trkpt lat="42.0084180" lon="-6.2426200">
        <ele>832.5</ele>
        <time>2019-08-16T08:17:04Z</time>
      </trkpt>
      <trkpt lat="42.0084230" lon="-6.2426560">
        <ele>832.5</ele>
        <time>2019-08-16T08:17:05Z</time>
      </trkpt>
      <trkpt lat="42.0084270" lon="-6.2426920">
        <ele>832.6</ele>
        <time>2019-08-16T08:17:06Z</time>
      </trkpt>
      <trkpt lat="42.0084320" lon="-6.2427280">
        <ele>832.6</ele>
        <time>2019-08-16T08:17:07Z</time>
      </trkpt>
      <trkpt lat="42.0084360" lon="-6.2427640">
        <ele>832.7</ele>
        <time>2019-08-16T08:17:08Z</time>
      </trkpt>
      <trkpt lat="42.0084400" lon="-6.2428000">
        <ele>832.7</ele>
        <time>2019-08-16T08:17:09Z</time>
      </trkpt>
      <trkpt lat="42.0084450" lon="-6.2428370">
        <ele>832.8</ele>
        <time>2019-08-16T08:17:10Z</time>
      </trkpt>
      <trkpt lat="42.0084500" lon="-6.2428740">
        <ele>832.8</ele>
        <time>2019-08-16T08:17:11Z</time>
      </trkpt>
      <trkpt lat="42.0084560" lon="-6.2429130">
        <ele>832.9</ele>
        <time>2019-08-16T08:17:12Z</time>
      </trkpt>
      <trkpt lat="42.0084610" lon="-6.2429500">
        <ele>832.9</ele>
        <time>2019-08-16T08:17:13Z</time>
      </trkpt>
      <trkpt lat="42.0084660" lon="-6.2429880">
        <ele>833.0</ele>
        <time>2019-08-16T08:17:14Z</time>
      </trkpt>
      <trkpt lat="42.0084700" lon="-6.2430250">
        <ele>833.0</ele>
        <time>2019-08-16T08:17:15Z</time>
      </trkpt>
      <trkpt lat="42.0084740" lon="-6.2430620">
        <ele>833.1</ele>
        <time>2019-08-16T08:17:16Z</time>
      </trkpt>
      <trkpt lat="42.0084780" lon="-6.2431000">
        <ele>833.2</ele>
        <time>2019-08-16T08:17:17Z</time>
      </trkpt>
      <trkpt lat="42.0084820" lon="-6.2431380">
        <ele>833.3</ele>
        <time>2019-08-16T08:17:18Z</time>
      </trkpt>
      <trkpt lat="42.0084870" lon="-6.2431770">
        <ele>833.3</ele>
        <time>2019-08-16T08:17:19Z</time>
      </trkpt>
      <trkpt lat="42.0084920" lon="-6.2432150">
        <ele>833.4</ele>
        <time>2019-08-16T08:17:20Z</time>
      </trkpt>
      <trkpt lat="42.0084960" lon="-6.2432530">
        <ele>833.5</ele>
        <time>2019-08-16T08:17:21Z</time>
      </trkpt>
      <trkpt lat="42.0085020" lon="-6.2432910">
        <ele>833.6</ele>
        <time>2019-08-16T08:17:22Z</time>
      </trkpt>
      <trkpt lat="42.0085060" lon="-6.2433280">
        <ele>833.7</ele>
        <time>2019-08-16T08:17:23Z</time>
      </trkpt>
      <trkpt lat="42.0085100" lon="-6.2433650">
        <ele>833.8</ele>
        <time>2019-08-16T08:17:24Z</time>
      </trkpt>
      <trkpt lat="42.0085150" lon="-6.2434020">
        <ele>833.9</ele>
        <time>2019-08-16T08:17:25Z</time>
      </trkpt>
      <trkpt lat="42.0085200" lon="-6.2434390">
        <ele>834.0</ele>
        <time>2019-08-16T08:17:26Z</time>
      </trkpt>
      <trkpt lat="42.0085250" lon="-6.2434780">
        <ele>834.2</ele>
        <time>2019-08-16T08:17:27Z</time>
      </trkpt>
      <trkpt lat="42.0085300" lon="-6.2435170">
        <ele>834.3</ele>
        <time>2019-08-16T08:17:28Z</time>
      </trkpt>
      <trkpt lat="42.0085350" lon="-6.2435570">
        <ele>834.4</ele>
        <time>2019-08-16T08:17:29Z</time>
      </trkpt>
      <trkpt lat="42.0085400" lon="-6.2435960">
        <ele>834.5</ele>
        <time>2019-08-16T08:17:30Z</time>
      </trkpt>
      <trkpt lat="42.0085450" lon="-6.2436350">
        <ele>834.7</ele>
        <time>2019-08-16T08:17:31Z</time>
      </trkpt>
      <trkpt lat="42.0085500" lon="-6.2436740">
        <ele>834.8</ele>
        <time>2019-08-16T08:17:32Z</time>
      </trkpt>
      <trkpt lat="42.0085550" lon="-6.2437120">
        <ele>834.9</ele>
        <time>2019-08-16T08:17:33Z</time>
      </trkpt>
      <trkpt lat="42.0085590" lon="-6.2437510">
        <ele>835.0</ele>
        <time>2019-08-16T08:17:34Z</time>
      </trkpt>
      <trkpt lat="42.0085640" lon="-6.2437890">
        <ele>835.2</ele>
        <time>2019-08-16T08:17:35Z</time>
      </trkpt>
      <trkpt lat="42.0085690" lon="-6.2438280">
        <ele>835.3</ele>
        <time>2019-08-16T08:17:36Z</time>
      </trkpt>
      <trkpt lat="42.0085740" lon="-6.2438660">
        <ele>835.4</ele>
        <time>2019-08-16T08:17:37Z</time>
      </trkpt>
      <trkpt lat="42.0085790" lon="-6.2439040">
        <ele>835.6</ele>
        <time>2019-08-16T08:17:38Z</time>
      </trkpt>
      <trkpt lat="42.0085830" lon="-6.2439430">
        <ele>835.7</ele>
        <time>2019-08-16T08:17:39Z</time>
      </trkpt>
      <trkpt lat="42.0085880" lon="-6.2439800">
        <ele>835.8</ele>
        <time>2019-08-16T08:17:40Z</time>
      </trkpt>
      <trkpt lat="42.0085920" lon="-6.2440180">
        <ele>835.9</ele>
        <time>2019-08-16T08:17:41Z</time>
      </trkpt>
      <trkpt lat="42.0085970" lon="-6.2440550">
        <ele>836.1</ele>
        <time>2019-08-16T08:17:42Z</time>
      </trkpt>
      <trkpt lat="42.0086020" lon="-6.2440910">
        <ele>836.2</ele>
        <time>2019-08-16T08:17:43Z</time>
      </trkpt>
      <trkpt lat="42.0086080" lon="-6.2441280">
        <ele>836.3</ele>
        <time>2019-08-16T08:17:44Z</time>
      </trkpt>
      <trkpt lat="42.0086130" lon="-6.2441650">
        <ele>836.5</ele>
        <time>2019-08-16T08:17:45Z</time>
      </trkpt>
      <trkpt lat="42.0086180" lon="-6.2442030">
        <ele>836.6</ele>
        <time>2019-08-16T08:17:46Z</time>
      </trkpt>
      <trkpt lat="42.0086230" lon="-6.2442400">
        <ele>836.7</ele>
        <time>2019-08-16T08:17:47Z</time>
      </trkpt>
      <trkpt lat="42.0086270" lon="-6.2442770">
        <ele>836.9</ele>
        <time>2019-08-16T08:17:48Z</time>
      </trkpt>
      <trkpt lat="42.0086320" lon="-6.2443140">
        <ele>837.0</ele>
        <time>2019-08-16T08:17:49Z</time>
      </trkpt>
      <trkpt lat="42.0086360" lon="-6.2443510">
        <ele>837.1</ele>
        <time>2019-08-16T08:17:50Z</time>
      </trkpt>
      <trkpt lat="42.0086400" lon="-6.2443880">
        <ele>837.3</ele>
        <time>2019-08-16T08:17:51Z</time>
      </trkpt>
      <trkpt lat="42.0086430" lon="-6.2444260">
        <ele>837.4</ele>
        <time>2019-08-16T08:17:52Z</time>
      </trkpt>
      <trkpt lat="42.0086470" lon="-6.2444640">
        <ele>837.5</ele>
        <time>2019-08-16T08:17:53Z</time>
      </trkpt>
      <trkpt lat="42.0086520" lon="-6.2445040">
        <ele>837.6</ele>
        <time>2019-08-16T08:17:54Z</time>
      </trkpt>
      <trkpt lat="42.0086570" lon="-6.2445430">
        <ele>837.8</ele>
        <time>2019-08-16T08:17:55Z</time>
      </trkpt>
      <trkpt lat="42.0086620" lon="-6.2445820">
        <ele>837.9</ele>
        <time>2019-08-16T08:17:56Z</time>
      </trkpt>
      <trkpt lat="42.0086670" lon="-6.2446200">
        <ele>838.0</ele>
        <time>2019-08-16T08:17:57Z</time>
      </trkpt>
      <trkpt lat="42.0086720" lon="-6.2446590">
        <ele>838.2</ele>
        <time>2019-08-16T08:17:58Z</time>
      </trkpt>
      <trkpt lat="42.0086770" lon="-6.2446970">
        <ele>838.3</ele>
        <time>2019-08-16T08:17:59Z</time>
      </trkpt>
      <trkpt lat="42.0086820" lon="-6.2447360">
        <ele>838.4</ele>
        <time>2019-08-16T08:18:00Z</time>
      </trkpt>
      <trkpt lat="42.0086870" lon="-6.2447740">
        <ele>838.6</ele>
        <time>2019-08-16T08:18:01Z</time>
      </trkpt>
      <trkpt lat="42.0086930" lon="-6.2448120">
        <ele>838.7</ele>
        <time>2019-08-16T08:18:02Z</time>
      </trkpt>
      <trkpt lat="42.0086970" lon="-6.2448500">
        <ele>838.8</ele>
        <time>2019-08-16T08:18:03Z</time>
      </trkpt>
      <trkpt lat="42.0087010" lon="-6.2448890">
        <ele>839.0</ele>
        <time>2019-08-16T08:18:04Z</time>
      </trkpt>
      <trkpt lat="42.0087060" lon="-6.2449270">
        <ele>839.1</ele>
        <time>2019-08-16T08:18:05Z</time>
      </trkpt>
      <trkpt lat="42.0087100" lon="-6.2449660">
        <ele>839.2</ele>
        <time>2019-08-16T08:18:06Z</time>
      </trkpt>
      <trkpt lat="42.0087150" lon="-6.2450040">
        <ele>839.4</ele>
        <time>2019-08-16T08:18:07Z</time>
      </trkpt>
      <trkpt lat="42.0087200" lon="-6.2450420">
        <ele>839.5</ele>
        <time>2019-08-16T08:18:08Z</time>
      </trkpt>
      <trkpt lat="42.0087260" lon="-6.2450810">
        <ele>839.7</ele>
        <time>2019-08-16T08:18:09Z</time>
      </trkpt>
      <trkpt lat="42.0087310" lon="-6.2451200">
        <ele>839.8</ele>
        <time>2019-08-16T08:18:10Z</time>
      </trkpt>
      <trkpt lat="42.0087360" lon="-6.2451600">
        <ele>840.0</ele>
        <time>2019-08-16T08:18:11Z</time>
      </trkpt>
      <trkpt lat="42.0087410" lon="-6.2451990">
        <ele>840.1</ele>
        <time>2019-08-16T08:18:12Z</time>
      </trkpt>
      <trkpt lat="42.0087460" lon="-6.2452380">
        <ele>840.3</ele>
        <time>2019-08-16T08:18:13Z</time>
      </trkpt>
      <trkpt lat="42.0087510" lon="-6.2452770">
        <ele>840.4</ele>
        <time>2019-08-16T08:18:14Z</time>
      </trkpt>
      <trkpt lat="42.0087550" lon="-6.2453160">
        <ele>840.6</ele>
        <time>2019-08-16T08:18:15Z</time>
      </trkpt>
      <trkpt lat="42.0087590" lon="-6.2453550">
        <ele>840.7</ele>
        <time>2019-08-16T08:18:16Z</time>
      </trkpt>
      <trkpt lat="42.0087640" lon="-6.2453930">
        <ele>840.9</ele>
        <time>2019-08-16T08:18:17Z</time>
      </trkpt>
      <trkpt lat="42.0087690" lon="-6.2454310">
        <ele>841.0</ele>
        <time>2019-08-16T08:18:18Z</time>
      </trkpt>
      <trkpt lat="42.0087740" lon="-6.2454700">
        <ele>841.2</ele>
        <time>2019-08-16T08:18:19Z</time>
      </trkpt>
      <trkpt lat="42.0087790" lon="-6.2455080">
        <ele>841.3</ele>
        <time>2019-08-16T08:18:20Z</time>
      </trkpt>
      <trkpt lat="42.0087830" lon="-6.2455470">
        <ele>841.4</ele>
        <time>2019-08-16T08:18:21Z</time>
      </trkpt>
      <trkpt lat="42.0087880" lon="-6.2455860">
        <ele>841.5</ele>
        <time>2019-08-16T08:18:22Z</time>
      </trkpt>
      <trkpt lat="42.0087930" lon="-6.2456260">
        <ele>841.6</ele>
        <time>2019-08-16T08:18:23Z</time>
      </trkpt>
      <trkpt lat="42.0087990" lon="-6.2456660">
        <ele>841.7</ele>
        <time>2019-08-16T08:18:24Z</time>
      </trkpt>
      <trkpt lat="42.0088040" lon="-6.2457070">
        <ele>841.8</ele>
        <time>2019-08-16T08:18:25Z</time>
      </trkpt>
      <trkpt lat="42.0088090" lon="-6.2457470">
        <ele>841.9</ele>
        <time>2019-08-16T08:18:26Z</time>
      </trkpt>
      <trkpt lat="42.0088140" lon="-6.2457870">
        <ele>842.0</ele>
        <time>2019-08-16T08:18:27Z</time>
      </trkpt>
      <trkpt lat="42.0088180" lon="-6.2458260">
        <ele>842.1</ele>
        <time>2019-08-16T08:18:28Z</time>
      </trkpt>
      <trkpt lat="42.0088230" lon="-6.2458650">
        <ele>842.1</ele>
        <time>2019-08-16T08:18:29Z</time>
      </trkpt>
      <trkpt lat="42.0088280" lon="-6.2459050">
        <ele>842.2</ele>
        <time>2019-08-16T08:18:30Z</time>
      </trkpt>
      <trkpt lat="42.0088330" lon="-6.2459440">
        <ele>842.2</ele>
        <time>2019-08-16T08:18:31Z</time>
      </trkpt>
      <trkpt lat="42.0088380" lon="-6.2459820">
        <ele>842.3</ele>
        <time>2019-08-16T08:18:32Z</time>
      </trkpt>
      <trkpt lat="42.0088430" lon="-6.2460210">
        <ele>842.3</ele>
        <time>2019-08-16T08:18:33Z</time>
      </trkpt>
      <trkpt lat="42.0088480" lon="-6.2460590">
        <ele>842.4</ele>
        <time>2019-08-16T08:18:34Z</time>
      </trkpt>
      <trkpt lat="42.0088530" lon="-6.2460980">
        <ele>842.4</ele>
        <time>2019-08-16T08:18:35Z</time>
      </trkpt>
      <trkpt lat="42.0088590" lon="-6.2461360">
        <ele>842.5</ele>
        <time>2019-08-16T08:18:36Z</time>
      </trkpt>
      <trkpt lat="42.0088640" lon="-6.2461750">
        <ele>842.5</ele>
        <time>2019-08-16T08:18:37Z</time>
      </trkpt>
      <trkpt lat="42.0088700" lon="-6.2462130">
        <ele>842.6</ele>
        <time>2019-08-16T08:18:38Z</time>
      </trkpt>
      <trkpt lat="42.0088750" lon="-6.2462520">
        <ele>842.6</ele>
        <time>2019-08-16T08:18:39Z</time>
      </trkpt>
      <trkpt lat="42.0088810" lon="-6.2462900">
        <ele>842.7</ele>
        <time>2019-08-16T08:18:40Z</time>
      </trkpt>
      <trkpt lat="42.0088860" lon="-6.2463280">
        <ele>842.8</ele>
        <time>2019-08-16T08:18:41Z</time>
      </trkpt>
      <trkpt lat="42.0088910" lon="-6.2463660">
        <ele>843.1</ele>
        <time>2019-08-16T08:18:42Z</time>
      </trkpt>
      <trkpt lat="42.0088960" lon="-6.2464030">
        <ele>843.3</ele>
        <time>2019-08-16T08:18:43Z</time>
      </trkpt>
      <trkpt lat="42.0089010" lon="-6.2464410">
        <ele>843.5</ele>
        <time>2019-08-16T08:18:44Z</time>
      </trkpt>
      <trkpt lat="42.0089050" lon="-6.2464790">
        <ele>843.8</ele>
        <time>2019-08-16T08:18:45Z</time>
      </trkpt>
      <trkpt lat="42.0089100" lon="-6.2465170">
        <ele>844.0</ele>
        <time>2019-08-16T08:18:46Z</time>
      </trkpt>
      <trkpt lat="42.0089150" lon="-6.2465560">
        <ele>844.3</ele>
        <time>2019-08-16T08:18:47Z</time>
      </trkpt>
      <trkpt lat="42.0089210" lon="-6.2465940">
        <ele>844.5</ele>
        <time>2019-08-16T08:18:48Z</time>
      </trkpt>
      <trkpt lat="42.0089260" lon="-6.2466330">
        <ele>844.7</ele>
        <time>2019-08-16T08:18:49Z</time>
      </trkpt>
      <trkpt lat="42.0089310" lon="-6.2466720">
        <ele>845.0</ele>
        <time>2019-08-16T08:18:50Z</time>
      </trkpt>
      <trkpt lat="42.0089350" lon="-6.2467110">
        <ele>845.2</ele>
        <time>2019-08-16T08:18:51Z</time>
      </trkpt>
      <trkpt lat="42.0089400" lon="-6.2467490">
        <ele>845.4</ele>
        <time>2019-08-16T08:18:52Z</time>
      </trkpt>
      <trkpt lat="42.0089440" lon="-6.2467870">
        <ele>845.6</ele>
        <time>2019-08-16T08:18:53Z</time>
      </trkpt>
      <trkpt lat="42.0089480" lon="-6.2468250">
        <ele>845.8</ele>
        <time>2019-08-16T08:18:54Z</time>
      </trkpt>
      <trkpt lat="42.0089510" lon="-6.2468640">
        <ele>846.0</ele>
        <time>2019-08-16T08:18:55Z</time>
      </trkpt>
      <trkpt lat="42.0089560" lon="-6.2469030">
        <ele>846.1</ele>
        <time>2019-08-16T08:18:56Z</time>
      </trkpt>
      <trkpt lat="42.0089620" lon="-6.2469420">
        <ele>846.3</ele>
        <time>2019-08-16T08:18:57Z</time>
      </trkpt>
      <trkpt lat="42.0089680" lon="-6.2469810">
        <ele>846.4</ele>
        <time>2019-08-16T08:18:58Z</time>
      </trkpt>
      <trkpt lat="42.0089730" lon="-6.2470210">
        <ele>846.5</ele>
        <time>2019-08-16T08:18:59Z</time>
      </trkpt>
      <trkpt lat="42.0089780" lon="-6.2470610">
        <ele>846.6</ele>
        <time>2019-08-16T08:19:00Z</time>
      </trkpt>
      <trkpt lat="42.0089820" lon="-6.2471000">
        <ele>846.7</ele>
        <time>2019-08-16T08:19:01Z</time>
      </trkpt>
      <trkpt lat="42.0089860" lon="-6.2471410">
        <ele>846.8</ele>
        <time>2019-08-16T08:19:02Z</time>
      </trkpt>
      <trkpt lat="42.0089910" lon="-6.2471810">
        <ele>846.8</ele>
        <time>2019-08-16T08:19:03Z</time>
      </trkpt>
      <trkpt lat="42.0089970" lon="-6.2472210">
        <ele>846.9</ele>
        <time>2019-08-16T08:19:04Z</time>
      </trkpt>
      <trkpt lat="42.0090020" lon="-6.2472620">
        <ele>847.0</ele>
        <time>2019-08-16T08:19:05Z</time>
      </trkpt>
      <trkpt lat="42.0090070" lon="-6.2473020">
        <ele>847.0</ele>
        <time>2019-08-16T08:19:06Z</time>
      </trkpt>
      <trkpt lat="42.0090120" lon="-6.2473430">
        <ele>847.1</ele>
        <time>2019-08-16T08:19:07Z</time>
      </trkpt>
      <trkpt lat="42.0090170" lon="-6.2473840">
        <ele>847.2</ele>
        <time>2019-08-16T08:19:08Z</time>
      </trkpt>
      <trkpt lat="42.0090220" lon="-6.2474250">
        <ele>847.2</ele>
        <time>2019-08-16T08:19:09Z</time>
      </trkpt>
      <trkpt lat="42.0090280" lon="-6.2474670">
        <ele>847.3</ele>
        <time>2019-08-16T08:19:10Z</time>
      </trkpt>
      <trkpt lat="42.0090320" lon="-6.2475080">
        <ele>847.3</ele>
        <time>2019-08-16T08:19:11Z</time>
      </trkpt>
      <trkpt lat="42.0090370" lon="-6.2475490">
        <ele>847.4</ele>
        <time>2019-08-16T08:19:12Z</time>
      </trkpt>
      <trkpt lat="42.0090420" lon="-6.2475870">
        <ele>847.5</ele>
        <time>2019-08-16T08:19:13Z</time>
      </trkpt>
      <trkpt lat="42.0090460" lon="-6.2476240">
        <ele>847.6</ele>
        <time>2019-08-16T08:19:14Z</time>
      </trkpt>
      <trkpt lat="42.0090510" lon="-6.2476610">
        <ele>847.6</ele>
        <time>2019-08-16T08:19:15Z</time>
      </trkpt>
      <trkpt lat="42.0090550" lon="-6.2477000">
        <ele>847.7</ele>
        <time>2019-08-16T08:19:16Z</time>
      </trkpt>
      <trkpt lat="42.0090600" lon="-6.2477400">
        <ele>847.7</ele>
        <time>2019-08-16T08:19:17Z</time>
      </trkpt>
      <trkpt lat="42.0090650" lon="-6.2477810">
        <ele>847.8</ele>
        <time>2019-08-16T08:19:18Z</time>
      </trkpt>
      <trkpt lat="42.0090690" lon="-6.2478220">
        <ele>847.9</ele>
        <time>2019-08-16T08:19:19Z</time>
      </trkpt>
      <trkpt lat="42.0090730" lon="-6.2478640">
        <ele>847.9</ele>
        <time>2019-08-16T08:19:20Z</time>
      </trkpt>
      <trkpt lat="42.0090770" lon="-6.2479060">
        <ele>848.0</ele>
        <time>2019-08-16T08:19:21Z</time>
      </trkpt>
      <trkpt lat="42.0090820" lon="-6.2479490">
        <ele>848.0</ele>
        <time>2019-08-16T08:19:22Z</time>
      </trkpt>
      <trkpt lat="42.0090870" lon="-6.2479930">
        <ele>848.0</ele>
        <time>2019-08-16T08:19:23Z</time>
      </trkpt>
      <trkpt lat="42.0090920" lon="-6.2480380">
        <ele>848.1</ele>
        <time>2019-08-16T08:19:24Z</time>
      </trkpt>
      <trkpt lat="42.0090980" lon="-6.2480840">
        <ele>848.1</ele>
        <time>2019-08-16T08:19:25Z</time>
      </trkpt>
      <trkpt lat="42.0091040" lon="-6.2481300">
        <ele>848.3</ele>
        <time>2019-08-16T08:19:26Z</time>
      </trkpt>
      <trkpt lat="42.0091100" lon="-6.2481770">
        <ele>848.4</ele>
        <time>2019-08-16T08:19:27Z</time>
      </trkpt>
      <trkpt lat="42.0091170" lon="-6.2482250">
        <ele>848.5</ele>
        <time>2019-08-16T08:19:28Z</time>
      </trkpt>
      <trkpt lat="42.0091240" lon="-6.2482740">
        <ele>848.6</ele>
        <time>2019-08-16T08:19:29Z</time>
      </trkpt>
      <trkpt lat="42.0091300" lon="-6.2483240">
        <ele>848.7</ele>
        <time>2019-08-16T08:19:30Z</time>
      </trkpt>
      <trkpt lat="42.0091360" lon="-6.2483740">
        <ele>848.8</ele>
        <time>2019-08-16T08:19:31Z</time>
      </trkpt>
      <trkpt lat="42.0091430" lon="-6.2484260">
        <ele>849.0</ele>
        <time>2019-08-16T08:19:32Z</time>
      </trkpt>
      <trkpt lat="42.0091490" lon="-6.2484790">
        <ele>849.1</ele>
        <time>2019-08-16T08:19:33Z</time>
      </trkpt>
      <trkpt lat="42.0091550" lon="-6.2485320">
        <ele>849.2</ele>
        <time>2019-08-16T08:19:34Z</time>
      </trkpt>
      <trkpt lat="42.0091620" lon="-6.2485860">
        <ele>849.3</ele>
        <time>2019-08-16T08:19:35Z</time>
      </trkpt>
      <trkpt lat="42.0091680" lon="-6.2486390">
        <ele>849.5</ele>
        <time>2019-08-16T08:19:36Z</time>
      </trkpt>
      <trkpt lat="42.0091750" lon="-6.2486920">
        <ele>849.6</ele>
        <time>2019-08-16T08:19:37Z</time>
      </trkpt>
      <trkpt lat="42.0091820" lon="-6.2487420">
        <ele>849.7</ele>
        <time>2019-08-16T08:19:38Z</time>
      </trkpt>
      <trkpt lat="42.0091880" lon="-6.2487900">
        <ele>849.8</ele>
        <time>2019-08-16T08:19:39Z</time>
      </trkpt>
      <trkpt lat="42.0091940" lon="-6.2488390">
        <ele>850.0</ele>
        <time>2019-08-16T08:19:40Z</time>
      </trkpt>
      <trkpt lat="42.0092000" lon="-6.2488900">
        <ele>850.1</ele>
        <time>2019-08-16T08:19:41Z</time>
      </trkpt>
      <trkpt lat="42.0092070" lon="-6.2489440">
        <ele>850.2</ele>
        <time>2019-08-16T08:19:42Z</time>
      </trkpt>
      <trkpt lat="42.0092150" lon="-6.2489990">
        <ele>850.3</ele>
        <time>2019-08-16T08:19:43Z</time>
      </trkpt>
      <trkpt lat="42.0092220" lon="-6.2490550">
        <ele>850.5</ele>
        <time>2019-08-16T08:19:44Z</time>
      </trkpt>
      <trkpt lat="42.0092290" lon="-6.2491130">
        <ele>850.6</ele>
        <time>2019-08-16T08:19:45Z</time>
      </trkpt>
      <trkpt lat="42.0092360" lon="-6.2491690">
        <ele>850.7</ele>
        <time>2019-08-16T08:19:46Z</time>
      </trkpt>
      <trkpt lat="42.0092430" lon="-6.2492250">
        <ele>850.8</ele>
        <time>2019-08-16T08:19:47Z</time>
      </trkpt>
      <trkpt lat="42.0092490" lon="-6.2492760">
        <ele>850.9</ele>
        <time>2019-08-16T08:19:48Z</time>
      </trkpt>
      <trkpt lat="42.0092550" lon="-6.2493260">
        <ele>851.0</ele>
        <time>2019-08-16T08:19:49Z</time>
      </trkpt>
      <trkpt lat="42.0092610" lon="-6.2493780">
        <ele>851.1</ele>
        <time>2019-08-16T08:19:50Z</time>
      </trkpt>
      <trkpt lat="42.0092670" lon="-6.2494320">
        <ele>851.3</ele>
        <time>2019-08-16T08:19:51Z</time>
      </trkpt>
      <trkpt lat="42.0092750" lon="-6.2494890">
        <ele>851.4</ele>
        <time>2019-08-16T08:19:52Z</time>
      </trkpt>
      <trkpt lat="42.0092820" lon="-6.2495440">
        <ele>851.5</ele>
        <time>2019-08-16T08:19:53Z</time>
      </trkpt>
      <trkpt lat="42.0092880" lon="-6.2496010">
        <ele>851.6</ele>
        <time>2019-08-16T08:19:54Z</time>
      </trkpt>
      <trkpt lat="42.0092970" lon="-6.2496560">
        <ele>851.8</ele>
        <time>2019-08-16T08:19:55Z</time>
      </trkpt>
      <trkpt lat="42.0093040" lon="-6.2497130">
        <ele>851.9</ele>
        <time>2019-08-16T08:19:56Z</time>
      </trkpt>
      <trkpt lat="42.0093120" lon="-6.2497670">
        <ele>852.0</ele>
        <time>2019-08-16T08:19:57Z</time>
      </trkpt>
      <trkpt lat="42.0093180" lon="-6.2498210">
        <ele>852.1</ele>
        <time>2019-08-16T08:19:58Z</time>
      </trkpt>
      <trkpt lat="42.0093240" lon="-6.2498740">
        <ele>852.2</ele>
        <time>2019-08-16T08:19:59Z</time>
      </trkpt>
      <trkpt lat="42.0093310" lon="-6.2499280">
        <ele>852.4</ele>
        <time>2019-08-16T08:20:00Z</time>
      </trkpt>
      <trkpt lat="42.0093380" lon="-6.2499820">
        <ele>852.5</ele>
        <time>2019-08-16T08:20:01Z</time>
      </trkpt>
      <trkpt lat="42.0093450" lon="-6.2500370">
        <ele>852.6</ele>
        <time>2019-08-16T08:20:02Z</time>
      </trkpt>
      <trkpt lat="42.0093510" lon="-6.2500890">
        <ele>852.7</ele>
        <time>2019-08-16T08:20:03Z</time>
      </trkpt>
      <trkpt lat="42.0093570" lon="-6.2501380">
        <ele>852.8</ele>
        <time>2019-08-16T08:20:04Z</time>
      </trkpt>
      <trkpt lat="42.0093620" lon="-6.2501840">
        <ele>852.9</ele>
        <time>2019-08-16T08:20:05Z</time>
      </trkpt>
      <trkpt lat="42.0093680" lon="-6.2502270">
        <ele>853.0</ele>
        <time>2019-08-16T08:20:06Z</time>
      </trkpt>
      <trkpt lat="42.0093740" lon="-6.2502730">
        <ele>853.2</ele>
        <time>2019-08-16T08:20:07Z</time>
      </trkpt>
      <trkpt lat="42.0093790" lon="-6.2503230">
        <ele>853.3</ele>
        <time>2019-08-16T08:20:08Z</time>
      </trkpt>
      <trkpt lat="42.0093860" lon="-6.2503770">
        <ele>853.4</ele>
        <time>2019-08-16T08:20:09Z</time>
      </trkpt>
      <trkpt lat="42.0093930" lon="-6.2504330">
        <ele>853.5</ele>
        <time>2019-08-16T08:20:10Z</time>
      </trkpt>
      <trkpt lat="42.0094020" lon="-6.2504880">
        <ele>853.7</ele>
        <time>2019-08-16T08:20:11Z</time>
      </trkpt>
      <trkpt lat="42.0094090" lon="-6.2505440">
        <ele>853.8</ele>
        <time>2019-08-16T08:20:12Z</time>
      </trkpt>
      <trkpt lat="42.0094170" lon="-6.2506010">
        <ele>853.8</ele>
        <time>2019-08-16T08:20:13Z</time>
      </trkpt>
      <trkpt lat="42.0094240" lon="-6.2506580">
        <ele>853.9</ele>
        <time>2019-08-16T08:20:14Z</time>
      </trkpt>
      <trkpt lat="42.0094310" lon="-6.2507130">
        <ele>853.9</ele>
        <time>2019-08-16T08:20:15Z</time>
      </trkpt>
      <trkpt lat="42.0094380" lon="-6.2507660">
        <ele>854.0</ele>
        <time>2019-08-16T08:20:16Z</time>
      </trkpt>
      <trkpt lat="42.0094450" lon="-6.2508200">
        <ele>854.1</ele>
        <time>2019-08-16T08:20:17Z</time>
      </trkpt>
      <trkpt lat="42.0094510" lon="-6.2508750">
        <ele>854.1</ele>
        <time>2019-08-16T08:20:18Z</time>
      </trkpt>
      <trkpt lat="42.0094580" lon="-6.2509310">
        <ele>854.2</ele>
        <time>2019-08-16T08:20:19Z</time>
      </trkpt>
      <trkpt lat="42.0094670" lon="-6.2509880">
        <ele>854.2</ele>
        <time>2019-08-16T08:20:20Z</time>
      </trkpt>
      <trkpt lat="42.0094730" lon="-6.2510440">
        <ele>854.3</ele>
        <time>2019-08-16T08:20:21Z</time>
      </trkpt>
      <trkpt lat="42.0094800" lon="-6.2511000">
        <ele>854.4</ele>
        <time>2019-08-16T08:20:22Z</time>
      </trkpt>
      <trkpt lat="42.0094870" lon="-6.2511560">
        <ele>854.4</ele>
        <time>2019-08-16T08:20:23Z</time>
      </trkpt>
      <trkpt lat="42.0094940" lon="-6.2512100">
        <ele>854.5</ele>
        <time>2019-08-16T08:20:24Z</time>
      </trkpt>
      <trkpt lat="42.0095000" lon="-6.2512650">
        <ele>854.5</ele>
        <time>2019-08-16T08:20:25Z</time>
      </trkpt>
      <trkpt lat="42.0095070" lon="-6.2513190">
        <ele>854.6</ele>
        <time>2019-08-16T08:20:26Z</time>
      </trkpt>
      <trkpt lat="42.0095150" lon="-6.2513720">
        <ele>854.6</ele>
        <time>2019-08-16T08:20:27Z</time>
      </trkpt>
      <trkpt lat="42.0095220" lon="-6.2514270">
        <ele>854.7</ele>
        <time>2019-08-16T08:20:28Z</time>
      </trkpt>
      <trkpt lat="42.0095300" lon="-6.2514820">
        <ele>854.8</ele>
        <time>2019-08-16T08:20:29Z</time>
      </trkpt>
      <trkpt lat="42.0095370" lon="-6.2515370">
        <ele>854.8</ele>
        <time>2019-08-16T08:20:30Z</time>
      </trkpt>
      <trkpt lat="42.0095440" lon="-6.2515920">
        <ele>854.9</ele>
        <time>2019-08-16T08:20:31Z</time>
      </trkpt>
      <trkpt lat="42.0095520" lon="-6.2516480">
        <ele>855.0</ele>
        <time>2019-08-16T08:20:32Z</time>
      </trkpt>
      <trkpt lat="42.0095590" lon="-6.2517030">
        <ele>855.1</ele>
        <time>2019-08-16T08:20:33Z</time>
      </trkpt>
      <trkpt lat="42.0095650" lon="-6.2517580">
        <ele>855.1</ele>
        <time>2019-08-16T08:20:34Z</time>
      </trkpt>
      <trkpt lat="42.0095710" lon="-6.2518140">
        <ele>855.2</ele>
        <time>2019-08-16T08:20:35Z</time>
      </trkpt>
      <trkpt lat="42.0095770" lon="-6.2518690">
        <ele>855.3</ele>
        <time>2019-08-16T08:20:36Z</time>
      </trkpt>
      <trkpt lat="42.0095840" lon="-6.2519270">
        <ele>855.4</ele>
        <time>2019-08-16T08:20:37Z</time>
      </trkpt>
      <trkpt lat="42.0095910" lon="-6.2519850">
        <ele>855.5</ele>
        <time>2019-08-16T08:20:38Z</time>
      </trkpt>
      <trkpt lat="42.0095990" lon="-6.2520440">
        <ele>855.5</ele>
        <time>2019-08-16T08:20:39Z</time>
      </trkpt>
      <trkpt lat="42.0096070" lon="-6.2521030">
        <ele>855.6</ele>
        <time>2019-08-16T08:20:40Z</time>
      </trkpt>
      <trkpt lat="42.0096160" lon="-6.2521620">
        <ele>855.7</ele>
        <time>2019-08-16T08:20:41Z</time>
      </trkpt>
      <trkpt lat="42.0096230" lon="-6.2522190">
        <ele>855.8</ele>
        <time>2019-08-16T08:20:42Z</time>
      </trkpt>
      <trkpt lat="42.0096290" lon="-6.2522760">
        <ele>855.8</ele>
        <time>2019-08-16T08:20:43Z</time>
      </trkpt>
      <trkpt lat="42.0096350" lon="-6.2523310">
        <ele>855.9</ele>
        <time>2019-08-16T08:20:44Z</time>
      </trkpt>
      <trkpt lat="42.0096420" lon="-6.2523880">
        <ele>856.0</ele>
        <time>2019-08-16T08:20:45Z</time>
      </trkpt>
      <trkpt lat="42.0096490" lon="-6.2524500">
        <ele>856.0</ele>
        <time>2019-08-16T08:20:46Z</time>
      </trkpt>
      <trkpt lat="42.0096560" lon="-6.2525120">
        <ele>856.1</ele>
        <time>2019-08-16T08:20:47Z</time>
      </trkpt>
      <trkpt lat="42.0096650" lon="-6.2525750">
        <ele>856.2</ele>
        <time>2019-08-16T08:20:48Z</time>
      </trkpt>
      <trkpt lat="42.0096720" lon="-6.2526390">
        <ele>856.2</ele>
        <time>2019-08-16T08:20:49Z</time>
      </trkpt>
      <trkpt lat="42.0096800" lon="-6.2527000">
        <ele>856.2</ele>
        <time>2019-08-16T08:20:50Z</time>
      </trkpt>
      <trkpt lat="42.0096870" lon="-6.2527610">
        <ele>856.3</ele>
        <time>2019-08-16T08:20:51Z</time>
      </trkpt>
      <trkpt lat="42.0096930" lon="-6.2528210">
        <ele>856.3</ele>
        <time>2019-08-16T08:20:52Z</time>
      </trkpt>
      <trkpt lat="42.0097000" lon="-6.2528820">
        <ele>856.3</ele>
        <time>2019-08-16T08:20:53Z</time>
      </trkpt>
      <trkpt lat="42.0097080" lon="-6.2529470">
        <ele>856.3</ele>
        <time>2019-08-16T08:20:54Z</time>
      </trkpt>
      <trkpt lat="42.0097170" lon="-6.2530130">
        <ele>856.3</ele>
        <time>2019-08-16T08:20:55Z</time>
      </trkpt>
      <trkpt lat="42.0097250" lon="-6.2530810">
        <ele>856.3</ele>
        <time>2019-08-16T08:20:56Z</time>
      </trkpt>
      <trkpt lat="42.0097330" lon="-6.2531480">
        <ele>856.3</ele>
        <time>2019-08-16T08:20:57Z</time>
      </trkpt>
      <trkpt lat="42.0097410" lon="-6.2532170">
        <ele>856.3</ele>
        <time>2019-08-16T08:20:58Z</time>
      </trkpt>
      <trkpt lat="42.0097490" lon="-6.2532850">
        <ele>856.3</ele>
        <time>2019-08-16T08:20:59Z</time>
      </trkpt>
      <trkpt lat="42.0097570" lon="-6.2533520">
        <ele>856.3</ele>
        <time>2019-08-16T08:21:00Z</time>
      </trkpt>
      <trkpt lat="42.0097640" lon="-6.2534190">
        <ele>856.3</ele>
        <time>2019-08-16T08:21:01Z</time>
      </trkpt>
      <trkpt lat="42.0097730" lon="-6.2534860">
        <ele>856.3</ele>
        <time>2019-08-16T08:21:02Z</time>
      </trkpt>
      <trkpt lat="42.0097820" lon="-6.2535540">
        <ele>856.3</ele>
        <time>2019-08-16T08:21:03Z</time>
      </trkpt>
      <trkpt lat="42.0097910" lon="-6.2536230">
        <ele>856.3</ele>
        <time>2019-08-16T08:21:04Z</time>
      </trkpt>
      <trkpt lat="42.0097990" lon="-6.2536920">
        <ele>856.3</ele>
        <time>2019-08-16T08:21:05Z</time>
      </trkpt>
      <trkpt lat="42.0098080" lon="-6.2537590">
        <ele>856.2</ele>
        <time>2019-08-16T08:21:06Z</time>
      </trkpt>
      <trkpt lat="42.0098180" lon="-6.2538280">
        <ele>856.2</ele>
        <time>2019-08-16T08:21:07Z</time>
      </trkpt>
      <trkpt lat="42.0098260" lon="-6.2538940">
        <ele>856.2</ele>
        <time>2019-08-16T08:21:08Z</time>
      </trkpt>
      <trkpt lat="42.0098320" lon="-6.2539600">
        <ele>856.1</ele>
        <time>2019-08-16T08:21:09Z</time>
      </trkpt>
      <trkpt lat="42.0098400" lon="-6.2540250">
        <ele>856.1</ele>
        <time>2019-08-16T08:21:10Z</time>
      </trkpt>
      <trkpt lat="42.0098480" lon="-6.2540910">
        <ele>856.1</ele>
        <time>2019-08-16T08:21:11Z</time>
      </trkpt>
      <trkpt lat="42.0098570" lon="-6.2541570">
        <ele>856.0</ele>
        <time>2019-08-16T08:21:12Z</time>
      </trkpt>
      <trkpt lat="42.0098640" lon="-6.2542240">
        <ele>856.0</ele>
        <time>2019-08-16T08:21:13Z</time>
      </trkpt>
      <trkpt lat="42.0098720" lon="-6.2542920">
        <ele>856.0</ele>
        <time>2019-08-16T08:21:14Z</time>
      </trkpt>
      <trkpt lat="42.0098810" lon="-6.2543600">
        <ele>855.9</ele>
        <time>2019-08-16T08:21:15Z</time>
      </trkpt>
      <trkpt lat="42.0098910" lon="-6.2544290">
        <ele>855.9</ele>
        <time>2019-08-16T08:21:16Z</time>
      </trkpt>
      <trkpt lat="42.0099000" lon="-6.2544980">
        <ele>855.9</ele>
        <time>2019-08-16T08:21:17Z</time>
      </trkpt>
      <trkpt lat="42.0099090" lon="-6.2545700">
        <ele>855.9</ele>
        <time>2019-08-16T08:21:18Z</time>
      </trkpt>
      <trkpt lat="42.0099170" lon="-6.2546400">
        <ele>855.8</ele>
        <time>2019-08-16T08:21:19Z</time>
      </trkpt>
      <trkpt lat="42.0099260" lon="-6.2547090">
        <ele>855.8</ele>
        <time>2019-08-16T08:21:20Z</time>
      </trkpt>
      <trkpt lat="42.0099340" lon="-6.2547750">
        <ele>855.8</ele>
        <time>2019-08-16T08:21:21Z</time>
      </trkpt>
      <trkpt lat="42.0099430" lon="-6.2548400">
        <ele>855.8</ele>
        <time>2019-08-16T08:21:22Z</time>
      </trkpt>
      <trkpt lat="42.0099510" lon="-6.2549050">
        <ele>855.8</ele>
        <time>2019-08-16T08:21:23Z</time>
      </trkpt>
      <trkpt lat="42.0099590" lon="-6.2549720">
        <ele>855.7</ele>
        <time>2019-08-16T08:21:24Z</time>
      </trkpt>
      <trkpt lat="42.0099680" lon="-6.2550380">
        <ele>855.7</ele>
        <time>2019-08-16T08:21:25Z</time>
      </trkpt>
      <trkpt lat="42.0099760" lon="-6.2551030">
        <ele>855.7</ele>
        <time>2019-08-16T08:21:26Z</time>
      </trkpt>
      <trkpt lat="42.0099840" lon="-6.2551690">
        <ele>855.7</ele>
        <time>2019-08-16T08:21:27Z</time>
      </trkpt>
      <trkpt lat="42.0099920" lon="-6.2552340">
        <ele>855.7</ele>
        <time>2019-08-16T08:21:28Z</time>
      </trkpt>
      <trkpt lat="42.0100000" lon="-6.2553000">
        <ele>855.7</ele>
        <time>2019-08-16T08:21:29Z</time>
      </trkpt>
      <trkpt lat="42.0100080" lon="-6.2553670">
        <ele>855.7</ele>
        <time>2019-08-16T08:21:30Z</time>
      </trkpt>
      <trkpt lat="42.0100160" lon="-6.2554340">
        <ele>855.7</ele>
        <time>2019-08-16T08:21:31Z</time>
      </trkpt>
      <trkpt lat="42.0100230" lon="-6.2554990">
        <ele>855.7</ele>
        <time>2019-08-16T08:21:32Z</time>
      </trkpt>
      <trkpt lat="42.0100310" lon="-6.2555650">
        <ele>855.7</ele>
        <time>2019-08-16T08:21:33Z</time>
      </trkpt>
      <trkpt lat="42.0100390" lon="-6.2556320">
        <ele>855.7</ele>
        <time>2019-08-16T08:21:34Z</time>
      </trkpt>
      <trkpt lat="42.0100480" lon="-6.2556990">
        <ele>855.7</ele>
        <time>2019-08-16T08:21:35Z</time>
      </trkpt>
      <trkpt lat="42.0100560" lon="-6.2557650">
        <ele>855.7</ele>
        <time>2019-08-16T08:21:36Z</time>
      </trkpt>
      <trkpt lat="42.0100650" lon="-6.2558310">
        <ele>855.8</ele>
        <time>2019-08-16T08:21:37Z</time>
      </trkpt>
      <trkpt lat="42.0100740" lon="-6.2558960">
        <ele>855.8</ele>
        <time>2019-08-16T08:21:38Z</time>
      </trkpt>
      <trkpt lat="42.0100830" lon="-6.2559620">
        <ele>855.8</ele>
        <time>2019-08-16T08:21:39Z</time>
      </trkpt>
      <trkpt lat="42.0100900" lon="-6.2560270">
        <ele>855.8</ele>
        <time>2019-08-16T08:21:40Z</time>
      </trkpt>
      <trkpt lat="42.0100990" lon="-6.2560930">
        <ele>855.8</ele>
        <time>2019-08-16T08:21:41Z</time>
      </trkpt>
      <trkpt lat="42.0101090" lon="-6.2561590">
        <ele>855.9</ele>
        <time>2019-08-16T08:21:42Z</time>
      </trkpt>
      <trkpt lat="42.0101170" lon="-6.2562240">
        <ele>855.9</ele>
        <time>2019-08-16T08:21:43Z</time>
      </trkpt>
      <trkpt lat="42.0101260" lon="-6.2562900">
        <ele>855.9</ele>
        <time>2019-08-16T08:21:44Z</time>
      </trkpt>
      <trkpt lat="42.0101330" lon="-6.2563540">
        <ele>856.0</ele>
        <time>2019-08-16T08:21:45Z</time>
      </trkpt>
      <trkpt lat="42.0101410" lon="-6.2564180">
        <ele>856.0</ele>
        <time>2019-08-16T08:21:46Z</time>
      </trkpt>
      <trkpt lat="42.0101490" lon="-6.2564830">
        <ele>856.1</ele>
        <time>2019-08-16T08:21:47Z</time>
      </trkpt>
      <trkpt lat="42.0101560" lon="-6.2565460">
        <ele>856.1</ele>
        <time>2019-08-16T08:21:48Z</time>
      </trkpt>
      <trkpt lat="42.0101620" lon="-6.2566110">
        <ele>856.1</ele>
        <time>2019-08-16T08:21:49Z</time>
      </trkpt>
      <trkpt lat="42.0101710" lon="-6.2566750">
        <ele>856.2</ele>
        <time>2019-08-16T08:21:50Z</time>
      </trkpt>
      <trkpt lat="42.0101780" lon="-6.2567380">
        <ele>856.3</ele>
        <time>2019-08-16T08:21:51Z</time>
      </trkpt>
      <trkpt lat="42.0101870" lon="-6.2568020">
        <ele>856.3</ele>
        <time>2019-08-16T08:21:52Z</time>
      </trkpt>
      <trkpt lat="42.0101950" lon="-6.2568680">
        <ele>856.4</ele>
        <time>2019-08-16T08:21:53Z</time>
      </trkpt>
      <trkpt lat="42.0102020" lon="-6.2569320">
        <ele>856.5</ele>
        <time>2019-08-16T08:21:54Z</time>
      </trkpt>
      <trkpt lat="42.0102110" lon="-6.2569950">
        <ele>856.6</ele>
        <time>2019-08-16T08:21:55Z</time>
      </trkpt>
      <trkpt lat="42.0102190" lon="-6.2570580">
        <ele>856.7</ele>
        <time>2019-08-16T08:21:56Z</time>
      </trkpt>
      <trkpt lat="42.0102270" lon="-6.2571210">
        <ele>856.8</ele>
        <time>2019-08-16T08:21:57Z</time>
      </trkpt>
      <trkpt lat="42.0102340" lon="-6.2571840">
        <ele>856.9</ele>
        <time>2019-08-16T08:21:58Z</time>
      </trkpt>
      <trkpt lat="42.0102410" lon="-6.2572490">
        <ele>857.1</ele>
        <time>2019-08-16T08:21:59Z</time>
      </trkpt>
      <trkpt lat="42.0102490" lon="-6.2573120">
        <ele>857.2</ele>
        <time>2019-08-16T08:22:00Z</time>
      </trkpt>
      <trkpt lat="42.0102560" lon="-6.2573720">
        <ele>857.4</ele>
        <time>2019-08-16T08:22:01Z</time>
      </trkpt>
      <trkpt lat="42.0102630" lon="-6.2574310">
        <ele>857.5</ele>
        <time>2019-08-16T08:22:02Z</time>
      </trkpt>
      <trkpt lat="42.0102710" lon="-6.2574880">
        <ele>857.6</ele>
        <time>2019-08-16T08:22:03Z</time>
      </trkpt>
      <trkpt lat="42.0102790" lon="-6.2575470">
        <ele>857.8</ele>
        <time>2019-08-16T08:22:04Z</time>
      </trkpt>
      <trkpt lat="42.0102850" lon="-6.2576080">
        <ele>857.9</ele>
        <time>2019-08-16T08:22:05Z</time>
      </trkpt>
      <trkpt lat="42.0102930" lon="-6.2576710">
        <ele>858.1</ele>
        <time>2019-08-16T08:22:06Z</time>
      </trkpt>
      <trkpt lat="42.0103010" lon="-6.2577370">
        <ele>858.2</ele>
        <time>2019-08-16T08:22:07Z</time>
      </trkpt>
      <trkpt lat="42.0103090" lon="-6.2578060">
        <ele>858.3</ele>
        <time>2019-08-16T08:22:08Z</time>
      </trkpt>
      <trkpt lat="42.0103170" lon="-6.2578740">
        <ele>858.5</ele>
        <time>2019-08-16T08:22:09Z</time>
      </trkpt>
      <trkpt lat="42.0103250" lon="-6.2579410">
        <ele>858.6</ele>
        <time>2019-08-16T08:22:10Z</time>
      </trkpt>
      <trkpt lat="42.0103340" lon="-6.2580090">
        <ele>858.7</ele>
        <time>2019-08-16T08:22:11Z</time>
      </trkpt>
      <trkpt lat="42.0103430" lon="-6.2580760">
        <ele>858.8</ele>
        <time>2019-08-16T08:22:12Z</time>
      </trkpt>
      <trkpt lat="42.0103530" lon="-6.2581440">
        <ele>858.9</ele>
        <time>2019-08-16T08:22:13Z</time>
      </trkpt>
      <trkpt lat="42.0103620" lon="-6.2582120">
        <ele>859.0</ele>
        <time>2019-08-16T08:22:14Z</time>
      </trkpt>
      <trkpt lat="42.0103700" lon="-6.2582790">
        <ele>859.1</ele>
        <time>2019-08-16T08:22:15Z</time>
      </trkpt>
      <trkpt lat="42.0103790" lon="-6.2583460">
        <ele>859.2</ele>
        <time>2019-08-16T08:22:16Z</time>
      </trkpt>
      <trkpt lat="42.0103870" lon="-6.2584130">
        <ele>859.2</ele>
        <time>2019-08-16T08:22:17Z</time>
      </trkpt>
      <trkpt lat="42.0103960" lon="-6.2584790">
        <ele>859.3</ele>
        <time>2019-08-16T08:22:18Z</time>
      </trkpt>
      <trkpt lat="42.0104040" lon="-6.2585470">
        <ele>859.4</ele>
        <time>2019-08-16T08:22:19Z</time>
      </trkpt>
      <trkpt lat="42.0104120" lon="-6.2586130">
        <ele>859.4</ele>
        <time>2019-08-16T08:22:20Z</time>
      </trkpt>
      <trkpt lat="42.0104200" lon="-6.2586810">
        <ele>859.5</ele>
        <time>2019-08-16T08:22:21Z</time>
      </trkpt>
      <trkpt lat="42.0104280" lon="-6.2587490">
        <ele>859.5</ele>
        <time>2019-08-16T08:22:22Z</time>
      </trkpt>
      <trkpt lat="42.0104370" lon="-6.2588160">
        <ele>859.6</ele>
        <time>2019-08-16T08:22:23Z</time>
      </trkpt>
      <trkpt lat="42.0104460" lon="-6.2588830">
        <ele>859.6</ele>
        <time>2019-08-16T08:22:24Z</time>
      </trkpt>
      <trkpt lat="42.0104540" lon="-6.2589520">
        <ele>859.7</ele>
        <time>2019-08-16T08:22:25Z</time>
      </trkpt>
      <trkpt lat="42.0104620" lon="-6.2590200">
        <ele>859.7</ele>
        <time>2019-08-16T08:22:26Z</time>
      </trkpt>
      <trkpt lat="42.0104720" lon="-6.2590900">
        <ele>859.7</ele>
        <time>2019-08-16T08:22:27Z</time>
      </trkpt>
      <trkpt lat="42.0104800" lon="-6.2591600">
        <ele>859.7</ele>
        <time>2019-08-16T08:22:28Z</time>
      </trkpt>
      <trkpt lat="42.0104900" lon="-6.2592310">
        <ele>859.7</ele>
        <time>2019-08-16T08:22:29Z</time>
      </trkpt>
      <trkpt lat="42.0105010" lon="-6.2593050">
        <ele>859.7</ele>
        <time>2019-08-16T08:22:30Z</time>
      </trkpt>
      <trkpt lat="42.0105100" lon="-6.2593790">
        <ele>859.7</ele>
        <time>2019-08-16T08:22:31Z</time>
      </trkpt>
      <trkpt lat="42.0105180" lon="-6.2594510">
        <ele>859.7</ele>
        <time>2019-08-16T08:22:32Z</time>
      </trkpt>
      <trkpt lat="42.0105270" lon="-6.2595210">
        <ele>859.7</ele>
        <time>2019-08-16T08:22:33Z</time>
      </trkpt>
      <trkpt lat="42.0105350" lon="-6.2595890">
        <ele>859.7</ele>
        <time>2019-08-16T08:22:34Z</time>
      </trkpt>
      <trkpt lat="42.0105430" lon="-6.2596560">
        <ele>859.7</ele>
        <time>2019-08-16T08:22:35Z</time>
      </trkpt>
      <trkpt lat="42.0105510" lon="-6.2597250">
        <ele>859.7</ele>
        <time>2019-08-16T08:22:36Z</time>
      </trkpt>
      <trkpt lat="42.0105600" lon="-6.2597950">
        <ele>859.7</ele>
        <time>2019-08-16T08:22:37Z</time>
      </trkpt>
      <trkpt lat="42.0105690" lon="-6.2598660">
        <ele>859.7</ele>
        <time>2019-08-16T08:22:38Z</time>
      </trkpt>
      <trkpt lat="42.0105790" lon="-6.2599370">
        <ele>859.7</ele>
        <time>2019-08-16T08:22:39Z</time>
      </trkpt>
      <trkpt lat="42.0105880" lon="-6.2600090">
        <ele>859.7</ele>
        <time>2019-08-16T08:22:40Z</time>
      </trkpt>
      <trkpt lat="42.0105970" lon="-6.2600810">
        <ele>859.7</ele>
        <time>2019-08-16T08:22:41Z</time>
      </trkpt>
      <trkpt lat="42.0106050" lon="-6.2601530">
        <ele>859.7</ele>
        <time>2019-08-16T08:22:42Z</time>
      </trkpt>
      <trkpt lat="42.0106140" lon="-6.2602250">
        <ele>859.7</ele>
        <time>2019-08-16T08:22:43Z</time>
      </trkpt>
      <trkpt lat="42.0106210" lon="-6.2602960">
        <ele>859.7</ele>
        <time>2019-08-16T08:22:44Z</time>
      </trkpt>
      <trkpt lat="42.0106300" lon="-6.2603640">
        <ele>859.7</ele>
        <time>2019-08-16T08:22:45Z</time>
      </trkpt>
      <trkpt lat="42.0106390" lon="-6.2604290">
        <ele>859.7</ele>
        <time>2019-08-16T08:22:46Z</time>
      </trkpt>
      <trkpt lat="42.0106470" lon="-6.2604930">
        <ele>859.7</ele>
        <time>2019-08-16T08:22:47Z</time>
      </trkpt>
      <trkpt lat="42.0106570" lon="-6.2605590">
        <ele>859.7</ele>
        <time>2019-08-16T08:22:48Z</time>
      </trkpt>
      <trkpt lat="42.0106650" lon="-6.2606260">
        <ele>859.6</ele>
        <time>2019-08-16T08:22:49Z</time>
      </trkpt>
      <trkpt lat="42.0106750" lon="-6.2606960">
        <ele>859.6</ele>
        <time>2019-08-16T08:22:50Z</time>
      </trkpt>
      <trkpt lat="42.0106830" lon="-6.2607670">
        <ele>859.6</ele>
        <time>2019-08-16T08:22:51Z</time>
      </trkpt>
      <trkpt lat="42.0106920" lon="-6.2608380">
        <ele>859.6</ele>
        <time>2019-08-16T08:22:52Z</time>
      </trkpt>
      <trkpt lat="42.0107000" lon="-6.2609100">
        <ele>859.6</ele>
        <time>2019-08-16T08:22:53Z</time>
      </trkpt>
      <trkpt lat="42.0107070" lon="-6.2609830">
        <ele>859.6</ele>
        <time>2019-08-16T08:22:54Z</time>
      </trkpt>
      <trkpt lat="42.0107150" lon="-6.2610550">
        <ele>859.5</ele>
        <time>2019-08-16T08:22:55Z</time>
      </trkpt>
      <trkpt lat="42.0107240" lon="-6.2611270">
        <ele>859.5</ele>
        <time>2019-08-16T08:22:56Z</time>
      </trkpt>
      <trkpt lat="42.0107340" lon="-6.2611990">
        <ele>859.5</ele>
        <time>2019-08-16T08:22:57Z</time>
      </trkpt>
      <trkpt lat="42.0107430" lon="-6.2612700">
        <ele>859.5</ele>
        <time>2019-08-16T08:22:58Z</time>
      </trkpt>
      <trkpt lat="42.0107530" lon="-6.2613430">
        <ele>859.5</ele>
        <time>2019-08-16T08:22:59Z</time>
      </trkpt>
      <trkpt lat="42.0107620" lon="-6.2614180">
        <ele>859.5</ele>
        <time>2019-08-16T08:23:00Z</time>
      </trkpt>
      <trkpt lat="42.0107720" lon="-6.2614920">
        <ele>859.5</ele>
        <time>2019-08-16T08:23:01Z</time>
      </trkpt>
      <trkpt lat="42.0107800" lon="-6.2615640">
        <ele>859.5</ele>
        <time>2019-08-16T08:23:02Z</time>
      </trkpt>
      <trkpt lat="42.0107890" lon="-6.2616340">
        <ele>859.5</ele>
        <time>2019-08-16T08:23:03Z</time>
      </trkpt>
      <trkpt lat="42.0107990" lon="-6.2617040">
        <ele>859.5</ele>
        <time>2019-08-16T08:23:04Z</time>
      </trkpt>
      <trkpt lat="42.0108080" lon="-6.2617730">
        <ele>859.5</ele>
        <time>2019-08-16T08:23:05Z</time>
      </trkpt>
      <trkpt lat="42.0108170" lon="-6.2618440">
        <ele>859.5</ele>
        <time>2019-08-16T08:23:06Z</time>
      </trkpt>
      <trkpt lat="42.0108270" lon="-6.2619150">
        <ele>859.5</ele>
        <time>2019-08-16T08:23:07Z</time>
      </trkpt>
      <trkpt lat="42.0108360" lon="-6.2619870">
        <ele>859.5</ele>
        <time>2019-08-16T08:23:08Z</time>
      </trkpt>
      <trkpt lat="42.0108470" lon="-6.2620590">
        <ele>859.5</ele>
        <time>2019-08-16T08:23:09Z</time>
      </trkpt>
      <trkpt lat="42.0108560" lon="-6.2621310">
        <ele>859.5</ele>
        <time>2019-08-16T08:23:10Z</time>
      </trkpt>
      <trkpt lat="42.0108640" lon="-6.2622050">
        <ele>859.5</ele>
        <time>2019-08-16T08:23:11Z</time>
      </trkpt>
      <trkpt lat="42.0108710" lon="-6.2622780">
        <ele>859.5</ele>
        <time>2019-08-16T08:23:12Z</time>
      </trkpt>
      <trkpt lat="42.0108770" lon="-6.2623510">
        <ele>859.5</ele>
        <time>2019-08-16T08:23:13Z</time>
      </trkpt>
      <trkpt lat="42.0108860" lon="-6.2624240">
        <ele>859.5</ele>
        <time>2019-08-16T08:23:14Z</time>
      </trkpt>
      <trkpt lat="42.0108940" lon="-6.2624970">
        <ele>859.5</ele>
        <time>2019-08-16T08:23:15Z</time>
      </trkpt>
      <trkpt lat="42.0109040" lon="-6.2625710">
        <ele>859.5</ele>
        <time>2019-08-16T08:23:16Z</time>
      </trkpt>
      <trkpt lat="42.0109140" lon="-6.2626430">
        <ele>859.5</ele>
        <time>2019-08-16T08:23:17Z</time>
      </trkpt>
      <trkpt lat="42.0109240" lon="-6.2627140">
        <ele>859.5</ele>
        <time>2019-08-16T08:23:18Z</time>
      </trkpt>
      <trkpt lat="42.0109330" lon="-6.2627820">
        <ele>859.5</ele>
        <time>2019-08-16T08:23:19Z</time>
      </trkpt>
      <trkpt lat="42.0109430" lon="-6.2628520">
        <ele>859.7</ele>
        <time>2019-08-16T08:23:20Z</time>
      </trkpt>
      <trkpt lat="42.0109520" lon="-6.2629210">
        <ele>859.7</ele>
        <time>2019-08-16T08:23:21Z</time>
      </trkpt>
      <trkpt lat="42.0109610" lon="-6.2629910">
        <ele>859.8</ele>
        <time>2019-08-16T08:23:22Z</time>
      </trkpt>
      <trkpt lat="42.0109710" lon="-6.2630630">
        <ele>859.9</ele>
        <time>2019-08-16T08:23:23Z</time>
      </trkpt>
      <trkpt lat="42.0109830" lon="-6.2631350">
        <ele>859.9</ele>
        <time>2019-08-16T08:23:24Z</time>
      </trkpt>
      <trkpt lat="42.0109960" lon="-6.2632100">
        <ele>859.9</ele>
        <time>2019-08-16T08:23:25Z</time>
      </trkpt>
      <trkpt lat="42.0110080" lon="-6.2632830">
        <ele>859.9</ele>
        <time>2019-08-16T08:23:26Z</time>
      </trkpt>
      <trkpt lat="42.0110200" lon="-6.2633530">
        <ele>859.9</ele>
        <time>2019-08-16T08:23:27Z</time>
      </trkpt>
      <trkpt lat="42.0110310" lon="-6.2634210">
        <ele>859.9</ele>
        <time>2019-08-16T08:23:28Z</time>
      </trkpt>
      <trkpt lat="42.0110450" lon="-6.2634860">
        <ele>859.9</ele>
        <time>2019-08-16T08:23:29Z</time>
      </trkpt>
      <trkpt lat="42.0110560" lon="-6.2635520">
        <ele>859.9</ele>
        <time>2019-08-16T08:23:30Z</time>
      </trkpt>
      <trkpt lat="42.0110700" lon="-6.2636190">
        <ele>859.9</ele>
        <time>2019-08-16T08:23:31Z</time>
      </trkpt>
      <trkpt lat="42.0110850" lon="-6.2636880">
        <ele>859.9</ele>
        <time>2019-08-16T08:23:32Z</time>
      </trkpt>
      <trkpt lat="42.0111000" lon="-6.2637580">
        <ele>859.9</ele>
        <time>2019-08-16T08:23:33Z</time>
      </trkpt>
      <trkpt lat="42.0111150" lon="-6.2638290">
        <ele>859.8</ele>
        <time>2019-08-16T08:23:34Z</time>
      </trkpt>
      <trkpt lat="42.0111270" lon="-6.2639000">
        <ele>859.8</ele>
        <time>2019-08-16T08:23:35Z</time>
      </trkpt>
      <trkpt lat="42.0111370" lon="-6.2639720">
        <ele>859.7</ele>
        <time>2019-08-16T08:23:36Z</time>
      </trkpt>
      <trkpt lat="42.0111430" lon="-6.2640430">
        <ele>859.6</ele>
        <time>2019-08-16T08:23:37Z</time>
      </trkpt>
      <trkpt lat="42.0111460" lon="-6.2641110">
        <ele>859.6</ele>
        <time>2019-08-16T08:23:38Z</time>
      </trkpt>
      <trkpt lat="42.0111480" lon="-6.2641750">
        <ele>859.6</ele>
        <time>2019-08-16T08:23:39Z</time>
      </trkpt>
      <trkpt lat="42.0111490" lon="-6.2642380">
        <ele>859.6</ele>
        <time>2019-08-16T08:23:40Z</time>
      </trkpt>
      <trkpt lat="42.0111500" lon="-6.2643000">
        <ele>859.6</ele>
        <time>2019-08-16T08:23:41Z</time>
      </trkpt>
      <trkpt lat="42.0111520" lon="-6.2643660">
        <ele>859.5</ele>
        <time>2019-08-16T08:23:42Z</time>
      </trkpt>
      <trkpt lat="42.0111540" lon="-6.2644370">
        <ele>859.5</ele>
        <time>2019-08-16T08:23:43Z</time>
      </trkpt>
      <trkpt lat="42.0111590" lon="-6.2645060">
        <ele>859.5</ele>
        <time>2019-08-16T08:23:44Z</time>
      </trkpt>
      <trkpt lat="42.0111660" lon="-6.2645770">
        <ele>859.5</ele>
        <time>2019-08-16T08:23:45Z</time>
      </trkpt>
      <trkpt lat="42.0111720" lon="-6.2646470">
        <ele>859.5</ele>
        <time>2019-08-16T08:23:46Z</time>
      </trkpt>
      <trkpt lat="42.0111810" lon="-6.2647170">
        <ele>859.5</ele>
        <time>2019-08-16T08:23:47Z</time>
      </trkpt>
      <trkpt lat="42.0111890" lon="-6.2647870">
        <ele>859.5</ele>
        <time>2019-08-16T08:23:48Z</time>
      </trkpt>
      <trkpt lat="42.0111980" lon="-6.2648580">
        <ele>859.5</ele>
        <time>2019-08-16T08:23:49Z</time>
      </trkpt>
      <trkpt lat="42.0112070" lon="-6.2649310">
        <ele>859.5</ele>
        <time>2019-08-16T08:23:50Z</time>
      </trkpt>
      <trkpt lat="42.0112170" lon="-6.2650030">
        <ele>859.4</ele>
        <time>2019-08-16T08:23:51Z</time>
      </trkpt>
      <trkpt lat="42.0112260" lon="-6.2650770">
        <ele>859.4</ele>
        <time>2019-08-16T08:23:52Z</time>
      </trkpt>
      <trkpt lat="42.0112350" lon="-6.2651510">
        <ele>859.4</ele>
        <time>2019-08-16T08:23:53Z</time>
      </trkpt>
      <trkpt lat="42.0112450" lon="-6.2652240">
        <ele>859.4</ele>
        <time>2019-08-16T08:23:54Z</time>
      </trkpt>
      <trkpt lat="42.0112550" lon="-6.2652960">
        <ele>859.4</ele>
        <time>2019-08-16T08:23:55Z</time>
      </trkpt>
      <trkpt lat="42.0112640" lon="-6.2653680">
        <ele>859.4</ele>
        <time>2019-08-16T08:23:56Z</time>
      </trkpt>
      <trkpt lat="42.0112720" lon="-6.2654410">
        <ele>859.4</ele>
        <time>2019-08-16T08:23:57Z</time>
      </trkpt>
      <trkpt lat="42.0112820" lon="-6.2655130">
        <ele>859.4</ele>
        <time>2019-08-16T08:23:58Z</time>
      </trkpt>
      <trkpt lat="42.0112900" lon="-6.2655860">
        <ele>859.4</ele>
        <time>2019-08-16T08:23:59Z</time>
      </trkpt>
      <trkpt lat="42.0112990" lon="-6.2656600">
        <ele>859.3</ele>
        <time>2019-08-16T08:24:00Z</time>
      </trkpt>
      <trkpt lat="42.0113090" lon="-6.2657350">
        <ele>859.3</ele>
        <time>2019-08-16T08:24:01Z</time>
      </trkpt>
      <trkpt lat="42.0113180" lon="-6.2658100">
        <ele>859.3</ele>
        <time>2019-08-16T08:24:02Z</time>
      </trkpt>
      <trkpt lat="42.0113270" lon="-6.2658830">
        <ele>859.3</ele>
        <time>2019-08-16T08:24:03Z</time>
      </trkpt>
      <trkpt lat="42.0113360" lon="-6.2659530">
        <ele>859.2</ele>
        <time>2019-08-16T08:24:04Z</time>
      </trkpt>
      <trkpt lat="42.0113450" lon="-6.2660240">
        <ele>859.2</ele>
        <time>2019-08-16T08:24:05Z</time>
      </trkpt>
      <trkpt lat="42.0113540" lon="-6.2660980">
        <ele>859.1</ele>
        <time>2019-08-16T08:24:06Z</time>
      </trkpt>
      <trkpt lat="42.0113650" lon="-6.2661740">
        <ele>859.0</ele>
        <time>2019-08-16T08:24:07Z</time>
      </trkpt>
      <trkpt lat="42.0113740" lon="-6.2662500">
        <ele>858.9</ele>
        <time>2019-08-16T08:24:08Z</time>
      </trkpt>
      <trkpt lat="42.0113840" lon="-6.2663280">
        <ele>858.7</ele>
        <time>2019-08-16T08:24:09Z</time>
      </trkpt>
      <trkpt lat="42.0113930" lon="-6.2664030">
        <ele>858.5</ele>
        <time>2019-08-16T08:24:10Z</time>
      </trkpt>
      <trkpt lat="42.0114020" lon="-6.2664770">
        <ele>858.4</ele>
        <time>2019-08-16T08:24:11Z</time>
      </trkpt>
      <trkpt lat="42.0114120" lon="-6.2665530">
        <ele>858.2</ele>
        <time>2019-08-16T08:24:12Z</time>
      </trkpt>
      <trkpt lat="42.0114210" lon="-6.2666280">
        <ele>858.1</ele>
        <time>2019-08-16T08:24:13Z</time>
      </trkpt>
      <trkpt lat="42.0114300" lon="-6.2667070">
        <ele>858.1</ele>
        <time>2019-08-16T08:24:14Z</time>
      </trkpt>
      <trkpt lat="42.0114400" lon="-6.2667850">
        <ele>858.1</ele>
        <time>2019-08-16T08:24:15Z</time>
      </trkpt>
      <trkpt lat="42.0114500" lon="-6.2668620">
        <ele>858.1</ele>
        <time>2019-08-16T08:24:16Z</time>
      </trkpt>
      <trkpt lat="42.0114580" lon="-6.2669400">
        <ele>858.1</ele>
        <time>2019-08-16T08:24:17Z</time>
      </trkpt>
      <trkpt lat="42.0114650" lon="-6.2670160">
        <ele>858.1</ele>
        <time>2019-08-16T08:24:18Z</time>
      </trkpt>
      <trkpt lat="42.0114730" lon="-6.2670900">
        <ele>858.1</ele>
        <time>2019-08-16T08:24:19Z</time>
      </trkpt>
      <trkpt lat="42.0114830" lon="-6.2671620">
        <ele>858.2</ele>
        <time>2019-08-16T08:24:20Z</time>
      </trkpt>
      <trkpt lat="42.0114940" lon="-6.2672340">
        <ele>858.2</ele>
        <time>2019-08-16T08:24:21Z</time>
      </trkpt>
      <trkpt lat="42.0115050" lon="-6.2673090">
        <ele>858.2</ele>
        <time>2019-08-16T08:24:22Z</time>
      </trkpt>
      <trkpt lat="42.0115150" lon="-6.2673850">
        <ele>858.2</ele>
        <time>2019-08-16T08:24:23Z</time>
      </trkpt>
      <trkpt lat="42.0115240" lon="-6.2674620">
        <ele>858.2</ele>
        <time>2019-08-16T08:24:24Z</time>
      </trkpt>
      <trkpt lat="42.0115320" lon="-6.2675390">
        <ele>858.2</ele>
        <time>2019-08-16T08:24:25Z</time>
      </trkpt>
      <trkpt lat="42.0115400" lon="-6.2676170">
        <ele>858.2</ele>
        <time>2019-08-16T08:24:26Z</time>
      </trkpt>
      <trkpt lat="42.0115480" lon="-6.2676940">
        <ele>858.2</ele>
        <time>2019-08-16T08:24:27Z</time>
      </trkpt>
      <trkpt lat="42.0115560" lon="-6.2677700">
        <ele>858.1</ele>
        <time>2019-08-16T08:24:28Z</time>
      </trkpt>
      <trkpt lat="42.0115660" lon="-6.2678470">
        <ele>858.1</ele>
        <time>2019-08-16T08:24:29Z</time>
      </trkpt>
      <trkpt lat="42.0115750" lon="-6.2679240">
        <ele>858.0</ele>
        <time>2019-08-16T08:24:30Z</time>
      </trkpt>
      <trkpt lat="42.0115840" lon="-6.2679980">
        <ele>858.0</ele>
        <time>2019-08-16T08:24:31Z</time>
      </trkpt>
      <trkpt lat="42.0115950" lon="-6.2680700">
        <ele>858.0</ele>
        <time>2019-08-16T08:24:32Z</time>
      </trkpt>
      <trkpt lat="42.0116030" lon="-6.2681400">
        <ele>857.9</ele>
        <time>2019-08-16T08:24:33Z</time>
      </trkpt>
      <trkpt lat="42.0116130" lon="-6.2682130">
        <ele>857.9</ele>
        <time>2019-08-16T08:24:34Z</time>
      </trkpt>
      <trkpt lat="42.0116220" lon="-6.2682860">
        <ele>857.9</ele>
        <time>2019-08-16T08:24:35Z</time>
      </trkpt>
      <trkpt lat="42.0116320" lon="-6.2683610">
        <ele>857.9</ele>
        <time>2019-08-16T08:24:36Z</time>
      </trkpt>
      <trkpt lat="42.0116410" lon="-6.2684360">
        <ele>857.9</ele>
        <time>2019-08-16T08:24:37Z</time>
      </trkpt>
      <trkpt lat="42.0116500" lon="-6.2685120">
        <ele>857.9</ele>
        <time>2019-08-16T08:24:38Z</time>
      </trkpt>
      <trkpt lat="42.0116590" lon="-6.2685880">
        <ele>857.9</ele>
        <time>2019-08-16T08:24:39Z</time>
      </trkpt>
      <trkpt lat="42.0116690" lon="-6.2686620">
        <ele>858.0</ele>
        <time>2019-08-16T08:24:40Z</time>
      </trkpt>
      <trkpt lat="42.0116790" lon="-6.2687380">
        <ele>858.0</ele>
        <time>2019-08-16T08:24:41Z</time>
      </trkpt>
      <trkpt lat="42.0116880" lon="-6.2688140">
        <ele>858.0</ele>
        <time>2019-08-16T08:24:42Z</time>
      </trkpt>
      <trkpt lat="42.0116970" lon="-6.2688910">
        <ele>858.1</ele>
        <time>2019-08-16T08:24:43Z</time>
      </trkpt>
      <trkpt lat="42.0117040" lon="-6.2689660">
        <ele>858.1</ele>
        <time>2019-08-16T08:24:44Z</time>
      </trkpt>
      <trkpt lat="42.0117140" lon="-6.2690420">
        <ele>858.2</ele>
        <time>2019-08-16T08:24:45Z</time>
      </trkpt>
      <trkpt lat="42.0117230" lon="-6.2691170">
        <ele>858.2</ele>
        <time>2019-08-16T08:24:46Z</time>
      </trkpt>
      <trkpt lat="42.0117330" lon="-6.2691910">
        <ele>858.3</ele>
        <time>2019-08-16T08:24:47Z</time>
      </trkpt>
      <trkpt lat="42.0117410" lon="-6.2692640">
        <ele>858.4</ele>
        <time>2019-08-16T08:24:48Z</time>
      </trkpt>
      <trkpt lat="42.0117490" lon="-6.2693360">
        <ele>858.4</ele>
        <time>2019-08-16T08:24:49Z</time>
      </trkpt>
      <trkpt lat="42.0117600" lon="-6.2694090">
        <ele>858.5</ele>
        <time>2019-08-16T08:24:50Z</time>
      </trkpt>
      <trkpt lat="42.0117700" lon="-6.2694850">
        <ele>858.5</ele>
        <time>2019-08-16T08:24:51Z</time>
      </trkpt>
      <trkpt lat="42.0117780" lon="-6.2695620">
        <ele>858.6</ele>
        <time>2019-08-16T08:24:52Z</time>
      </trkpt>
      <trkpt lat="42.0117860" lon="-6.2696380">
        <ele>858.7</ele>
        <time>2019-08-16T08:24:53Z</time>
      </trkpt>
      <trkpt lat="42.0117960" lon="-6.2697140">
        <ele>858.7</ele>
        <time>2019-08-16T08:24:54Z</time>
      </trkpt>
      <trkpt lat="42.0118070" lon="-6.2697910">
        <ele>858.8</ele>
        <time>2019-08-16T08:24:55Z</time>
      </trkpt>
      <trkpt lat="42.0118160" lon="-6.2698660">
        <ele>858.8</ele>
        <time>2019-08-16T08:24:56Z</time>
      </trkpt>
      <trkpt lat="42.0118250" lon="-6.2699400">
        <ele>858.8</ele>
        <time>2019-08-16T08:24:57Z</time>
      </trkpt>
      <trkpt lat="42.0118340" lon="-6.2700140">
        <ele>858.8</ele>
        <time>2019-08-16T08:24:58Z</time>
      </trkpt>
      <trkpt lat="42.0118430" lon="-6.2700900">
        <ele>858.8</ele>
        <time>2019-08-16T08:24:59Z</time>
      </trkpt>
      <trkpt lat="42.0118520" lon="-6.2701650">
        <ele>858.9</ele>
        <time>2019-08-16T08:25:00Z</time>
      </trkpt>
      <trkpt lat="42.0118610" lon="-6.2702410">
        <ele>858.9</ele>
        <time>2019-08-16T08:25:01Z</time>
      </trkpt>
      <trkpt lat="42.0118720" lon="-6.2703160">
        <ele>858.9</ele>
        <time>2019-08-16T08:25:02Z</time>
      </trkpt>
      <trkpt lat="42.0118810" lon="-6.2703940">
        <ele>858.9</ele>
        <time>2019-08-16T08:25:03Z</time>
      </trkpt>
      <trkpt lat="42.0118900" lon="-6.2704710">
        <ele>858.9</ele>
        <time>2019-08-16T08:25:04Z</time>
      </trkpt>
      <trkpt lat="42.0118990" lon="-6.2705490">
        <ele>859.0</ele>
        <time>2019-08-16T08:25:05Z</time>
      </trkpt>
      <trkpt lat="42.0119090" lon="-6.2706230">
        <ele>859.0</ele>
        <time>2019-08-16T08:25:06Z</time>
      </trkpt>
      <trkpt lat="42.0119170" lon="-6.2706970">
        <ele>859.1</ele>
        <time>2019-08-16T08:25:07Z</time>
      </trkpt>
      <trkpt lat="42.0119270" lon="-6.2707690">
        <ele>859.1</ele>
        <time>2019-08-16T08:25:08Z</time>
      </trkpt>
      <trkpt lat="42.0119360" lon="-6.2708430">
        <ele>859.2</ele>
        <time>2019-08-16T08:25:09Z</time>
      </trkpt>
      <trkpt lat="42.0119460" lon="-6.2709190">
        <ele>859.3</ele>
        <time>2019-08-16T08:25:10Z</time>
      </trkpt>
      <trkpt lat="42.0119550" lon="-6.2709920">
        <ele>859.3</ele>
        <time>2019-08-16T08:25:11Z</time>
      </trkpt>
      <trkpt lat="42.0119640" lon="-6.2710630">
        <ele>859.3</ele>
        <time>2019-08-16T08:25:12Z</time>
      </trkpt>
      <trkpt lat="42.0119750" lon="-6.2711370">
        <ele>859.4</ele>
        <time>2019-08-16T08:25:13Z</time>
      </trkpt>
      <trkpt lat="42.0119840" lon="-6.2712100">
        <ele>859.4</ele>
        <time>2019-08-16T08:25:14Z</time>
      </trkpt>
      <trkpt lat="42.0119930" lon="-6.2712830">
        <ele>859.5</ele>
        <time>2019-08-16T08:25:15Z</time>
      </trkpt>
      <trkpt lat="42.0120020" lon="-6.2713550">
        <ele>859.5</ele>
        <time>2019-08-16T08:25:16Z</time>
      </trkpt>
      <trkpt lat="42.0120110" lon="-6.2714260">
        <ele>859.6</ele>
        <time>2019-08-16T08:25:17Z</time>
      </trkpt>
      <trkpt lat="42.0120180" lon="-6.2714970">
        <ele>859.6</ele>
        <time>2019-08-16T08:25:18Z</time>
      </trkpt>
      <trkpt lat="42.0120270" lon="-6.2715680">
        <ele>859.7</ele>
        <time>2019-08-16T08:25:19Z</time>
      </trkpt>
      <trkpt lat="42.0120360" lon="-6.2716410">
        <ele>859.7</ele>
        <time>2019-08-16T08:25:20Z</time>
      </trkpt>
      <trkpt lat="42.0120450" lon="-6.2717140">
        <ele>859.7</ele>
        <time>2019-08-16T08:25:21Z</time>
      </trkpt>
      <trkpt lat="42.0120530" lon="-6.2717860">
        <ele>859.8</ele>
        <time>2019-08-16T08:25:22Z</time>
      </trkpt>
      <trkpt lat="42.0120620" lon="-6.2718580">
        <ele>859.8</ele>
        <time>2019-08-16T08:25:23Z</time>
      </trkpt>
      <trkpt lat="42.0120710" lon="-6.2719290">
        <ele>859.8</ele>
        <time>2019-08-16T08:25:24Z</time>
      </trkpt>
      <trkpt lat="42.0120800" lon="-6.2719990">
        <ele>859.8</ele>
        <time>2019-08-16T08:25:25Z</time>
      </trkpt>
      <trkpt lat="42.0120890" lon="-6.2720660">
        <ele>859.8</ele>
        <time>2019-08-16T08:25:26Z</time>
      </trkpt>
      <trkpt lat="42.0120980" lon="-6.2721360">
        <ele>859.9</ele>
        <time>2019-08-16T08:25:27Z</time>
      </trkpt>
      <trkpt lat="42.0121060" lon="-6.2722070">
        <ele>859.9</ele>
        <time>2019-08-16T08:25:28Z</time>
      </trkpt>
      <trkpt lat="42.0121150" lon="-6.2722800">
        <ele>859.9</ele>
        <time>2019-08-16T08:25:29Z</time>
      </trkpt>
      <trkpt lat="42.0121250" lon="-6.2723540">
        <ele>859.9</ele>
        <time>2019-08-16T08:25:30Z</time>
      </trkpt>
      <trkpt lat="42.0121340" lon="-6.2724290">
        <ele>859.9</ele>
        <time>2019-08-16T08:25:31Z</time>
      </trkpt>
      <trkpt lat="42.0121430" lon="-6.2725040">
        <ele>859.9</ele>
        <time>2019-08-16T08:25:32Z</time>
      </trkpt>
      <trkpt lat="42.0121540" lon="-6.2725790">
        <ele>859.9</ele>
        <time>2019-08-16T08:25:33Z</time>
      </trkpt>
      <trkpt lat="42.0121630" lon="-6.2726550">
        <ele>859.9</ele>
        <time>2019-08-16T08:25:34Z</time>
      </trkpt>
      <trkpt lat="42.0121710" lon="-6.2727290">
        <ele>859.9</ele>
        <time>2019-08-16T08:25:35Z</time>
      </trkpt>
      <trkpt lat="42.0121800" lon="-6.2728040">
        <ele>859.9</ele>
        <time>2019-08-16T08:25:36Z</time>
      </trkpt>
      <trkpt lat="42.0121890" lon="-6.2728760">
        <ele>859.9</ele>
        <time>2019-08-16T08:25:37Z</time>
      </trkpt>
      <trkpt lat="42.0121990" lon="-6.2729480">
        <ele>859.9</ele>
        <time>2019-08-16T08:25:38Z</time>
      </trkpt>
      <trkpt lat="42.0122100" lon="-6.2730210">
        <ele>859.9</ele>
        <time>2019-08-16T08:25:39Z</time>
      </trkpt>
      <trkpt lat="42.0122190" lon="-6.2730960">
        <ele>859.9</ele>
        <time>2019-08-16T08:25:40Z</time>
      </trkpt>
      <trkpt lat="42.0122280" lon="-6.2731700">
        <ele>859.9</ele>
        <time>2019-08-16T08:25:41Z</time>
      </trkpt>
      <trkpt lat="42.0122370" lon="-6.2732450">
        <ele>859.9</ele>
        <time>2019-08-16T08:25:42Z</time>
      </trkpt>
      <trkpt lat="42.0122460" lon="-6.2733200">
        <ele>859.9</ele>
        <time>2019-08-16T08:25:43Z</time>
      </trkpt>
      <trkpt lat="42.0122550" lon="-6.2733950">
        <ele>859.9</ele>
        <time>2019-08-16T08:25:44Z</time>
      </trkpt>
      <trkpt lat="42.0122640" lon="-6.2734690">
        <ele>859.9</ele>
        <time>2019-08-16T08:25:45Z</time>
      </trkpt>
      <trkpt lat="42.0122720" lon="-6.2735420">
        <ele>860.0</ele>
        <time>2019-08-16T08:25:46Z</time>
      </trkpt>
      <trkpt lat="42.0122810" lon="-6.2736110">
        <ele>860.0</ele>
        <time>2019-08-16T08:25:47Z</time>
      </trkpt>
      <trkpt lat="42.0122900" lon="-6.2736800">
        <ele>860.1</ele>
        <time>2019-08-16T08:25:48Z</time>
      </trkpt>
      <trkpt lat="42.0122990" lon="-6.2737500">
        <ele>860.1</ele>
        <time>2019-08-16T08:25:49Z</time>
      </trkpt>
      <trkpt lat="42.0123070" lon="-6.2738190">
        <ele>860.2</ele>
        <time>2019-08-16T08:25:50Z</time>
      </trkpt>
      <trkpt lat="42.0123160" lon="-6.2738880">
        <ele>860.3</ele>
        <time>2019-08-16T08:25:51Z</time>
      </trkpt>
      <trkpt lat="42.0123250" lon="-6.2739580">
        <ele>860.4</ele>
        <time>2019-08-16T08:25:52Z</time>
      </trkpt>
      <trkpt lat="42.0123330" lon="-6.2740280">
        <ele>860.4</ele>
        <time>2019-08-16T08:25:53Z</time>
      </trkpt>
      <trkpt lat="42.0123420" lon="-6.2740950">
        <ele>860.5</ele>
        <time>2019-08-16T08:25:54Z</time>
      </trkpt>
      <trkpt lat="42.0123500" lon="-6.2741610">
        <ele>860.6</ele>
        <time>2019-08-16T08:25:55Z</time>
      </trkpt>
      <trkpt lat="42.0123580" lon="-6.2742260">
        <ele>860.6</ele>
        <time>2019-08-16T08:25:56Z</time>
      </trkpt>
      <trkpt lat="42.0123670" lon="-6.2742930">
        <ele>860.7</ele>
        <time>2019-08-16T08:25:57Z</time>
      </trkpt>
      <trkpt lat="42.0123750" lon="-6.2743620">
        <ele>860.7</ele>
        <time>2019-08-16T08:25:58Z</time>
      </trkpt>
      <trkpt lat="42.0123830" lon="-6.2744300">
        <ele>860.7</ele>
        <time>2019-08-16T08:25:59Z</time>
      </trkpt>
      <trkpt lat="42.0123910" lon="-6.2744980">
        <ele>860.7</ele>
        <time>2019-08-16T08:26:00Z</time>
      </trkpt>
      <trkpt lat="42.0123990" lon="-6.2745650">
        <ele>860.7</ele>
        <time>2019-08-16T08:26:01Z</time>
      </trkpt>
      <trkpt lat="42.0124070" lon="-6.2746320">
        <ele>860.8</ele>
        <time>2019-08-16T08:26:02Z</time>
      </trkpt>
      <trkpt lat="42.0124160" lon="-6.2746980">
        <ele>860.8</ele>
        <time>2019-08-16T08:26:03Z</time>
      </trkpt>
      <trkpt lat="42.0124240" lon="-6.2747620">
        <ele>860.9</ele>
        <time>2019-08-16T08:26:04Z</time>
      </trkpt>
      <trkpt lat="42.0124320" lon="-6.2748260">
        <ele>860.9</ele>
        <time>2019-08-16T08:26:05Z</time>
      </trkpt>
      <trkpt lat="42.0124400" lon="-6.2748920">
        <ele>861.0</ele>
        <time>2019-08-16T08:26:06Z</time>
      </trkpt>
      <trkpt lat="42.0124480" lon="-6.2749560">
        <ele>861.1</ele>
        <time>2019-08-16T08:26:07Z</time>
      </trkpt>
      <trkpt lat="42.0124560" lon="-6.2750200">
        <ele>861.3</ele>
        <time>2019-08-16T08:26:08Z</time>
      </trkpt>
      <trkpt lat="42.0124630" lon="-6.2750860">
        <ele>861.4</ele>
        <time>2019-08-16T08:26:09Z</time>
      </trkpt>
      <trkpt lat="42.0124710" lon="-6.2751520">
        <ele>861.5</ele>
        <time>2019-08-16T08:26:10Z</time>
      </trkpt>
      <trkpt lat="42.0124800" lon="-6.2752180">
        <ele>861.7</ele>
        <time>2019-08-16T08:26:11Z</time>
      </trkpt>
      <trkpt lat="42.0124890" lon="-6.2752840">
        <ele>861.8</ele>
        <time>2019-08-16T08:26:12Z</time>
      </trkpt>
      <trkpt lat="42.0124980" lon="-6.2753480">
        <ele>861.9</ele>
        <time>2019-08-16T08:26:13Z</time>
      </trkpt>
      <trkpt lat="42.0125060" lon="-6.2754130">
        <ele>862.0</ele>
        <time>2019-08-16T08:26:14Z</time>
      </trkpt>
      <trkpt lat="42.0125130" lon="-6.2754780">
        <ele>862.1</ele>
        <time>2019-08-16T08:26:15Z</time>
      </trkpt>
      <trkpt lat="42.0125210" lon="-6.2755430">
        <ele>862.1</ele>
        <time>2019-08-16T08:26:16Z</time>
      </trkpt>
      <trkpt lat="42.0125280" lon="-6.2756080">
        <ele>862.2</ele>
        <time>2019-08-16T08:26:17Z</time>
      </trkpt>
      <trkpt lat="42.0125360" lon="-6.2756750">
        <ele>862.2</ele>
        <time>2019-08-16T08:26:18Z</time>
      </trkpt>
      <trkpt lat="42.0125430" lon="-6.2757420">
        <ele>862.3</ele>
        <time>2019-08-16T08:26:19Z</time>
      </trkpt>
      <trkpt lat="42.0125520" lon="-6.2758090">
        <ele>862.3</ele>
        <time>2019-08-16T08:26:20Z</time>
      </trkpt>
      <trkpt lat="42.0125590" lon="-6.2758740">
        <ele>862.4</ele>
        <time>2019-08-16T08:26:21Z</time>
      </trkpt>
      <trkpt lat="42.0125680" lon="-6.2759410">
        <ele>862.4</ele>
        <time>2019-08-16T08:26:22Z</time>
      </trkpt>
      <trkpt lat="42.0125770" lon="-6.2760090">
        <ele>862.5</ele>
        <time>2019-08-16T08:26:23Z</time>
      </trkpt>
      <trkpt lat="42.0125860" lon="-6.2760780">
        <ele>862.6</ele>
        <time>2019-08-16T08:26:24Z</time>
      </trkpt>
      <trkpt lat="42.0125950" lon="-6.2761460">
        <ele>862.7</ele>
        <time>2019-08-16T08:26:25Z</time>
      </trkpt>
      <trkpt lat="42.0126030" lon="-6.2762150">
        <ele>862.8</ele>
        <time>2019-08-16T08:26:26Z</time>
      </trkpt>
      <trkpt lat="42.0126100" lon="-6.2762820">
        <ele>862.8</ele>
        <time>2019-08-16T08:26:27Z</time>
      </trkpt>
      <trkpt lat="42.0126190" lon="-6.2763500">
        <ele>862.9</ele>
        <time>2019-08-16T08:26:28Z</time>
      </trkpt>
      <trkpt lat="42.0126260" lon="-6.2764180">
        <ele>862.9</ele>
        <time>2019-08-16T08:26:29Z</time>
      </trkpt>
      <trkpt lat="42.0126340" lon="-6.2764860">
        <ele>862.9</ele>
        <time>2019-08-16T08:26:30Z</time>
      </trkpt>
      <trkpt lat="42.0126420" lon="-6.2765530">
        <ele>862.9</ele>
        <time>2019-08-16T08:26:31Z</time>
      </trkpt>
      <trkpt lat="42.0126520" lon="-6.2766200">
        <ele>863.0</ele>
        <time>2019-08-16T08:26:32Z</time>
      </trkpt>
      <trkpt lat="42.0126610" lon="-6.2766860">
        <ele>863.0</ele>
        <time>2019-08-16T08:26:33Z</time>
      </trkpt>
      <trkpt lat="42.0126700" lon="-6.2767510">
        <ele>863.1</ele>
        <time>2019-08-16T08:26:34Z</time>
      </trkpt>
      <trkpt lat="42.0126790" lon="-6.2768170">
        <ele>863.1</ele>
        <time>2019-08-16T08:26:35Z</time>
      </trkpt>
      <trkpt lat="42.0126870" lon="-6.2768850">
        <ele>863.1</ele>
        <time>2019-08-16T08:26:36Z</time>
      </trkpt>
      <trkpt lat="42.0126940" lon="-6.2769550">
        <ele>863.2</ele>
        <time>2019-08-16T08:26:37Z</time>
      </trkpt>
      <trkpt lat="42.0127010" lon="-6.2770210">
        <ele>863.3</ele>
        <time>2019-08-16T08:26:38Z</time>
      </trkpt>
      <trkpt lat="42.0127100" lon="-6.2770870">
        <ele>863.4</ele>
        <time>2019-08-16T08:26:39Z</time>
      </trkpt>
      <trkpt lat="42.0127170" lon="-6.2771520">
        <ele>863.5</ele>
        <time>2019-08-16T08:26:40Z</time>
      </trkpt>
      <trkpt lat="42.0127240" lon="-6.2772180">
        <ele>863.6</ele>
        <time>2019-08-16T08:26:41Z</time>
      </trkpt>
      <trkpt lat="42.0127320" lon="-6.2772820">
        <ele>863.7</ele>
        <time>2019-08-16T08:26:42Z</time>
      </trkpt>
      <trkpt lat="42.0127400" lon="-6.2773450">
        <ele>863.8</ele>
        <time>2019-08-16T08:26:43Z</time>
      </trkpt>
      <trkpt lat="42.0127480" lon="-6.2774100">
        <ele>863.9</ele>
        <time>2019-08-16T08:26:44Z</time>
      </trkpt>
      <trkpt lat="42.0127560" lon="-6.2774740">
        <ele>864.0</ele>
        <time>2019-08-16T08:26:45Z</time>
      </trkpt>
      <trkpt lat="42.0127640" lon="-6.2775370">
        <ele>864.1</ele>
        <time>2019-08-16T08:26:46Z</time>
      </trkpt>
      <trkpt lat="42.0127710" lon="-6.2776020">
        <ele>864.3</ele>
        <time>2019-08-16T08:26:47Z</time>
      </trkpt>
      <trkpt lat="42.0127790" lon="-6.2776650">
        <ele>864.4</ele>
        <time>2019-08-16T08:26:48Z</time>
      </trkpt>
      <trkpt lat="42.0127860" lon="-6.2777290">
        <ele>864.5</ele>
        <time>2019-08-16T08:26:49Z</time>
      </trkpt>
      <trkpt lat="42.0127940" lon="-6.2777920">
        <ele>864.6</ele>
        <time>2019-08-16T08:26:50Z</time>
      </trkpt>
      <trkpt lat="42.0128020" lon="-6.2778560">
        <ele>864.7</ele>
        <time>2019-08-16T08:26:51Z</time>
      </trkpt>
      <trkpt lat="42.0128110" lon="-6.2779190">
        <ele>864.8</ele>
        <time>2019-08-16T08:26:52Z</time>
      </trkpt>
      <trkpt lat="42.0128190" lon="-6.2779830">
        <ele>864.8</ele>
        <time>2019-08-16T08:26:53Z</time>
      </trkpt>
      <trkpt lat="42.0128260" lon="-6.2780450">
        <ele>864.9</ele>
        <time>2019-08-16T08:26:54Z</time>
      </trkpt>
      <trkpt lat="42.0128330" lon="-6.2781070">
        <ele>865.0</ele>
        <time>2019-08-16T08:26:55Z</time>
      </trkpt>
      <trkpt lat="42.0128410" lon="-6.2781690">
        <ele>865.1</ele>
        <time>2019-08-16T08:26:56Z</time>
      </trkpt>
      <trkpt lat="42.0128480" lon="-6.2782290">
        <ele>865.2</ele>
        <time>2019-08-16T08:26:57Z</time>
      </trkpt>
      <trkpt lat="42.0128560" lon="-6.2782910">
        <ele>865.2</ele>
        <time>2019-08-16T08:26:58Z</time>
      </trkpt>
      <trkpt lat="42.0128640" lon="-6.2783520">
        <ele>865.3</ele>
        <time>2019-08-16T08:26:59Z</time>
      </trkpt>
      <trkpt lat="42.0128730" lon="-6.2784150">
        <ele>865.4</ele>
        <time>2019-08-16T08:27:00Z</time>
      </trkpt>
      <trkpt lat="42.0128810" lon="-6.2784790">
        <ele>865.5</ele>
        <time>2019-08-16T08:27:01Z</time>
      </trkpt>
      <trkpt lat="42.0128900" lon="-6.2785430">
        <ele>865.6</ele>
        <time>2019-08-16T08:27:02Z</time>
      </trkpt>
      <trkpt lat="42.0128990" lon="-6.2786070">
        <ele>865.7</ele>
        <time>2019-08-16T08:27:03Z</time>
      </trkpt>
      <trkpt lat="42.0129060" lon="-6.2786700">
        <ele>865.8</ele>
        <time>2019-08-16T08:27:04Z</time>
      </trkpt>
      <trkpt lat="42.0129140" lon="-6.2787350">
        <ele>865.9</ele>
        <time>2019-08-16T08:27:05Z</time>
      </trkpt>
      <trkpt lat="42.0129210" lon="-6.2787990">
        <ele>866.0</ele>
        <time>2019-08-16T08:27:06Z</time>
      </trkpt>
      <trkpt lat="42.0129300" lon="-6.2788640">
        <ele>866.1</ele>
        <time>2019-08-16T08:27:07Z</time>
      </trkpt>
      <trkpt lat="42.0129370" lon="-6.2789280">
        <ele>866.1</ele>
        <time>2019-08-16T08:27:08Z</time>
      </trkpt>
      <trkpt lat="42.0129440" lon="-6.2789950">
        <ele>866.2</ele>
        <time>2019-08-16T08:27:09Z</time>
      </trkpt>
      <trkpt lat="42.0129520" lon="-6.2790610">
        <ele>866.3</ele>
        <time>2019-08-16T08:27:10Z</time>
      </trkpt>
      <trkpt lat="42.0129600" lon="-6.2791250">
        <ele>866.3</ele>
        <time>2019-08-16T08:27:11Z</time>
      </trkpt>
      <trkpt lat="42.0129690" lon="-6.2791890">
        <ele>866.4</ele>
        <time>2019-08-16T08:27:12Z</time>
      </trkpt>
      <trkpt lat="42.0129780" lon="-6.2792520">
        <ele>866.5</ele>
        <time>2019-08-16T08:27:13Z</time>
      </trkpt>
      <trkpt lat="42.0129870" lon="-6.2793190">
        <ele>866.5</ele>
        <time>2019-08-16T08:27:14Z</time>
      </trkpt>
      <trkpt lat="42.0129950" lon="-6.2793840">
        <ele>866.6</ele>
        <time>2019-08-16T08:27:15Z</time>
      </trkpt>
      <trkpt lat="42.0130020" lon="-6.2794490">
        <ele>866.7</ele>
        <time>2019-08-16T08:27:16Z</time>
      </trkpt>
      <trkpt lat="42.0130100" lon="-6.2795140">
        <ele>866.7</ele>
        <time>2019-08-16T08:27:17Z</time>
      </trkpt>
      <trkpt lat="42.0130180" lon="-6.2795790">
        <ele>866.8</ele>
        <time>2019-08-16T08:27:18Z</time>
      </trkpt>
      <trkpt lat="42.0130250" lon="-6.2796440">
        <ele>866.9</ele>
        <time>2019-08-16T08:27:19Z</time>
      </trkpt>
      <trkpt lat="42.0130320" lon="-6.2797070">
        <ele>867.0</ele>
        <time>2019-08-16T08:27:20Z</time>
      </trkpt>
      <trkpt lat="42.0130390" lon="-6.2797700">
        <ele>867.1</ele>
        <time>2019-08-16T08:27:21Z</time>
      </trkpt>
      <trkpt lat="42.0130480" lon="-6.2798340">
        <ele>867.2</ele>
        <time>2019-08-16T08:27:22Z</time>
      </trkpt>
      <trkpt lat="42.0130560" lon="-6.2798960">
        <ele>867.3</ele>
        <time>2019-08-16T08:27:23Z</time>
      </trkpt>
      <trkpt lat="42.0130640" lon="-6.2799580">
        <ele>867.4</ele>
        <time>2019-08-16T08:27:24Z</time>
      </trkpt>
      <trkpt lat="42.0130730" lon="-6.2800210">
        <ele>867.4</ele>
        <time>2019-08-16T08:27:25Z</time>
      </trkpt>
      <trkpt lat="42.0130810" lon="-6.2800840">
        <ele>867.5</ele>
        <time>2019-08-16T08:27:26Z</time>
      </trkpt>
      <trkpt lat="42.0130880" lon="-6.2801470">
        <ele>867.6</ele>
        <time>2019-08-16T08:27:27Z</time>
      </trkpt>
      <trkpt lat="42.0130950" lon="-6.2802110">
        <ele>867.7</ele>
        <time>2019-08-16T08:27:28Z</time>
      </trkpt>
      <trkpt lat="42.0131030" lon="-6.2802730">
        <ele>867.8</ele>
        <time>2019-08-16T08:27:29Z</time>
      </trkpt>
      <trkpt lat="42.0131120" lon="-6.2803340">
        <ele>867.9</ele>
        <time>2019-08-16T08:27:30Z</time>
      </trkpt>
      <trkpt lat="42.0131190" lon="-6.2803940">
        <ele>868.0</ele>
        <time>2019-08-16T08:27:31Z</time>
      </trkpt>
      <trkpt lat="42.0131260" lon="-6.2804510">
        <ele>868.1</ele>
        <time>2019-08-16T08:27:32Z</time>
      </trkpt>
      <trkpt lat="42.0131310" lon="-6.2805090">
        <ele>868.2</ele>
        <time>2019-08-16T08:27:33Z</time>
      </trkpt>
      <trkpt lat="42.0131380" lon="-6.2805690">
        <ele>868.3</ele>
        <time>2019-08-16T08:27:34Z</time>
      </trkpt>
      <trkpt lat="42.0131470" lon="-6.2806290">
        <ele>868.4</ele>
        <time>2019-08-16T08:27:35Z</time>
      </trkpt>
      <trkpt lat="42.0131560" lon="-6.2806900">
        <ele>868.5</ele>
        <time>2019-08-16T08:27:36Z</time>
      </trkpt>
      <trkpt lat="42.0131650" lon="-6.2807510">
        <ele>868.6</ele>
        <time>2019-08-16T08:27:37Z</time>
      </trkpt>
      <trkpt lat="42.0131730" lon="-6.2808120">
        <ele>868.6</ele>
        <time>2019-08-16T08:27:38Z</time>
      </trkpt>
      <trkpt lat="42.0131810" lon="-6.2808730">
        <ele>868.7</ele>
        <time>2019-08-16T08:27:39Z</time>
      </trkpt>
      <trkpt lat="42.0131890" lon="-6.2809350">
        <ele>868.8</ele>
        <time>2019-08-16T08:27:40Z</time>
      </trkpt>
      <trkpt lat="42.0131960" lon="-6.2809980">
        <ele>868.9</ele>
        <time>2019-08-16T08:27:41Z</time>
      </trkpt>
      <trkpt lat="42.0132030" lon="-6.2810600">
        <ele>869.0</ele>
        <time>2019-08-16T08:27:42Z</time>
      </trkpt>
      <trkpt lat="42.0132110" lon="-6.2811210">
        <ele>869.1</ele>
        <time>2019-08-16T08:27:43Z</time>
      </trkpt>
      <trkpt lat="42.0132180" lon="-6.2811820">
        <ele>869.1</ele>
        <time>2019-08-16T08:27:44Z</time>
      </trkpt>
      <trkpt lat="42.0132260" lon="-6.2812430">
        <ele>869.2</ele>
        <time>2019-08-16T08:27:45Z</time>
      </trkpt>
      <trkpt lat="42.0132330" lon="-6.2813050">
        <ele>869.3</ele>
        <time>2019-08-16T08:27:46Z</time>
      </trkpt>
      <trkpt lat="42.0132410" lon="-6.2813690">
        <ele>869.4</ele>
        <time>2019-08-16T08:27:47Z</time>
      </trkpt>
      <trkpt lat="42.0132480" lon="-6.2814310">
        <ele>869.4</ele>
        <time>2019-08-16T08:27:48Z</time>
      </trkpt>
      <trkpt lat="42.0132560" lon="-6.2814960">
        <ele>869.5</ele>
        <time>2019-08-16T08:27:49Z</time>
      </trkpt>
      <trkpt lat="42.0132640" lon="-6.2815600">
        <ele>869.6</ele>
        <time>2019-08-16T08:27:50Z</time>
      </trkpt>
      <trkpt lat="42.0132720" lon="-6.2816250">
        <ele>869.7</ele>
        <time>2019-08-16T08:27:51Z</time>
      </trkpt>
      <trkpt lat="42.0132800" lon="-6.2816900">
        <ele>869.8</ele>
        <time>2019-08-16T08:27:52Z</time>
      </trkpt>
      <trkpt lat="42.0132880" lon="-6.2817550">
        <ele>869.9</ele>
        <time>2019-08-16T08:27:53Z</time>
      </trkpt>
      <trkpt lat="42.0132950" lon="-6.2818170">
        <ele>870.0</ele>
        <time>2019-08-16T08:27:54Z</time>
      </trkpt>
      <trkpt lat="42.0133010" lon="-6.2818780">
        <ele>870.1</ele>
        <time>2019-08-16T08:27:55Z</time>
      </trkpt>
      <trkpt lat="42.0133080" lon="-6.2819400">
        <ele>870.2</ele>
        <time>2019-08-16T08:27:56Z</time>
      </trkpt>
      <trkpt lat="42.0133150" lon="-6.2820020">
        <ele>870.3</ele>
        <time>2019-08-16T08:27:57Z</time>
      </trkpt>
      <trkpt lat="42.0133230" lon="-6.2820660">
        <ele>870.4</ele>
        <time>2019-08-16T08:27:58Z</time>
      </trkpt>
      <trkpt lat="42.0133320" lon="-6.2821290">
        <ele>870.5</ele>
        <time>2019-08-16T08:27:59Z</time>
      </trkpt>
      <trkpt lat="42.0133400" lon="-6.2821920">
        <ele>870.6</ele>
        <time>2019-08-16T08:28:00Z</time>
      </trkpt>
      <trkpt lat="42.0133490" lon="-6.2822540">
        <ele>870.7</ele>
        <time>2019-08-16T08:28:01Z</time>
      </trkpt>
      <trkpt lat="42.0133550" lon="-6.2823150">
        <ele>870.8</ele>
        <time>2019-08-16T08:28:02Z</time>
      </trkpt>
      <trkpt lat="42.0133630" lon="-6.2823720">
        <ele>870.9</ele>
        <time>2019-08-16T08:28:03Z</time>
      </trkpt>
      <trkpt lat="42.0133710" lon="-6.2824280">
        <ele>871.0</ele>
        <time>2019-08-16T08:28:04Z</time>
      </trkpt>
      <trkpt lat="42.0133780" lon="-6.2824850">
        <ele>871.1</ele>
        <time>2019-08-16T08:28:05Z</time>
      </trkpt>
      <trkpt lat="42.0133850" lon="-6.2825420">
        <ele>871.3</ele>
        <time>2019-08-16T08:28:06Z</time>
      </trkpt>
      <trkpt lat="42.0133910" lon="-6.2825980">
        <ele>871.4</ele>
        <time>2019-08-16T08:28:07Z</time>
      </trkpt>
      <trkpt lat="42.0133970" lon="-6.2826550">
        <ele>871.5</ele>
        <time>2019-08-16T08:28:08Z</time>
      </trkpt>
      <trkpt lat="42.0134030" lon="-6.2827100">
        <ele>871.6</ele>
        <time>2019-08-16T08:28:09Z</time>
      </trkpt>
      <trkpt lat="42.0134100" lon="-6.2827660">
        <ele>871.8</ele>
        <time>2019-08-16T08:28:10Z</time>
      </trkpt>
      <trkpt lat="42.0134170" lon="-6.2828200">
        <ele>871.9</ele>
        <time>2019-08-16T08:28:11Z</time>
      </trkpt>
      <trkpt lat="42.0134240" lon="-6.2828740">
        <ele>872.0</ele>
        <time>2019-08-16T08:28:12Z</time>
      </trkpt>
      <trkpt lat="42.0134330" lon="-6.2829290">
        <ele>872.1</ele>
        <time>2019-08-16T08:28:13Z</time>
      </trkpt>
      <trkpt lat="42.0134410" lon="-6.2829860">
        <ele>872.3</ele>
        <time>2019-08-16T08:28:14Z</time>
      </trkpt>
      <trkpt lat="42.0134470" lon="-6.2830420">
        <ele>872.4</ele>
        <time>2019-08-16T08:28:15Z</time>
      </trkpt>
      <trkpt lat="42.0134530" lon="-6.2830980">
        <ele>872.5</ele>
        <time>2019-08-16T08:28:16Z</time>
      </trkpt>
      <trkpt lat="42.0134610" lon="-6.2831530">
        <ele>872.6</ele>
        <time>2019-08-16T08:28:17Z</time>
      </trkpt>
      <trkpt lat="42.0134670" lon="-6.2832080">
        <ele>872.8</ele>
        <time>2019-08-16T08:28:18Z</time>
      </trkpt>
      <trkpt lat="42.0134740" lon="-6.2832610">
        <ele>872.9</ele>
        <time>2019-08-16T08:28:19Z</time>
      </trkpt>
      <trkpt lat="42.0134810" lon="-6.2833170">
        <ele>873.0</ele>
        <time>2019-08-16T08:28:20Z</time>
      </trkpt>
      <trkpt lat="42.0134870" lon="-6.2833730">
        <ele>873.1</ele>
        <time>2019-08-16T08:28:21Z</time>
      </trkpt>
      <trkpt lat="42.0134950" lon="-6.2834290">
        <ele>873.3</ele>
        <time>2019-08-16T08:28:22Z</time>
      </trkpt>
      <trkpt lat="42.0135020" lon="-6.2834840">
        <ele>873.4</ele>
        <time>2019-08-16T08:28:23Z</time>
      </trkpt>
      <trkpt lat="42.0135100" lon="-6.2835390">
        <ele>873.5</ele>
        <time>2019-08-16T08:28:24Z</time>
      </trkpt>
      <trkpt lat="42.0135170" lon="-6.2835930">
        <ele>873.7</ele>
        <time>2019-08-16T08:28:25Z</time>
      </trkpt>
      <trkpt lat="42.0135250" lon="-6.2836480">
        <ele>873.8</ele>
        <time>2019-08-16T08:28:26Z</time>
      </trkpt>
      <trkpt lat="42.0135310" lon="-6.2837030">
        <ele>873.9</ele>
        <time>2019-08-16T08:28:27Z</time>
      </trkpt>
      <trkpt lat="42.0135380" lon="-6.2837570">
        <ele>874.1</ele>
        <time>2019-08-16T08:28:28Z</time>
      </trkpt>
      <trkpt lat="42.0135450" lon="-6.2838120">
        <ele>874.2</ele>
        <time>2019-08-16T08:28:29Z</time>
      </trkpt>
      <trkpt lat="42.0135510" lon="-6.2838660">
        <ele>874.3</ele>
        <time>2019-08-16T08:28:30Z</time>
      </trkpt>
      <trkpt lat="42.0135580" lon="-6.2839190">
        <ele>874.4</ele>
        <time>2019-08-16T08:28:31Z</time>
      </trkpt>
      <trkpt lat="42.0135650" lon="-6.2839720">
        <ele>874.6</ele>
        <time>2019-08-16T08:28:32Z</time>
      </trkpt>
      <trkpt lat="42.0135720" lon="-6.2840240">
        <ele>874.7</ele>
        <time>2019-08-16T08:28:33Z</time>
      </trkpt>
      <trkpt lat="42.0135800" lon="-6.2840780">
        <ele>874.8</ele>
        <time>2019-08-16T08:28:34Z</time>
      </trkpt>
      <trkpt lat="42.0135880" lon="-6.2841320">
        <ele>875.0</ele>
        <time>2019-08-16T08:28:35Z</time>
      </trkpt>
      <trkpt lat="42.0135950" lon="-6.2841840">
        <ele>875.1</ele>
        <time>2019-08-16T08:28:36Z</time>
      </trkpt>
      <trkpt lat="42.0136010" lon="-6.2842360">
        <ele>875.2</ele>
        <time>2019-08-16T08:28:37Z</time>
      </trkpt>
      <trkpt lat="42.0136070" lon="-6.2842890">
        <ele>875.4</ele>
        <time>2019-08-16T08:28:38Z</time>
      </trkpt>
      <trkpt lat="42.0136130" lon="-6.2843420">
        <ele>875.5</ele>
        <time>2019-08-16T08:28:39Z</time>
      </trkpt>
      <trkpt lat="42.0136200" lon="-6.2843930">
        <ele>875.6</ele>
        <time>2019-08-16T08:28:40Z</time>
      </trkpt>
      <trkpt lat="42.0136260" lon="-6.2844450">
        <ele>875.8</ele>
        <time>2019-08-16T08:28:41Z</time>
      </trkpt>
      <trkpt lat="42.0136330" lon="-6.2844960">
        <ele>875.9</ele>
        <time>2019-08-16T08:28:42Z</time>
      </trkpt>
      <trkpt lat="42.0136380" lon="-6.2845480">
        <ele>876.0</ele>
        <time>2019-08-16T08:28:43Z</time>
      </trkpt>
      <trkpt lat="42.0136440" lon="-6.2845990">
        <ele>876.1</ele>
        <time>2019-08-16T08:28:44Z</time>
      </trkpt>
      <trkpt lat="42.0136500" lon="-6.2846500">
        <ele>876.3</ele>
        <time>2019-08-16T08:28:45Z</time>
      </trkpt>
      <trkpt lat="42.0136560" lon="-6.2847020">
        <ele>876.4</ele>
        <time>2019-08-16T08:28:46Z</time>
      </trkpt>
      <trkpt lat="42.0136620" lon="-6.2847540">
        <ele>876.5</ele>
        <time>2019-08-16T08:28:47Z</time>
      </trkpt>
      <trkpt lat="42.0136670" lon="-6.2848060">
        <ele>876.6</ele>
        <time>2019-08-16T08:28:48Z</time>
      </trkpt>
      <trkpt lat="42.0136720" lon="-6.2848570">
        <ele>876.7</ele>
        <time>2019-08-16T08:28:49Z</time>
      </trkpt>
      <trkpt lat="42.0136780" lon="-6.2849080">
        <ele>876.8</ele>
        <time>2019-08-16T08:28:50Z</time>
      </trkpt>
      <trkpt lat="42.0136840" lon="-6.2849600">
        <ele>876.9</ele>
        <time>2019-08-16T08:28:51Z</time>
      </trkpt>
      <trkpt lat="42.0136910" lon="-6.2850130">
        <ele>877.1</ele>
        <time>2019-08-16T08:28:52Z</time>
      </trkpt>
      <trkpt lat="42.0136980" lon="-6.2850650">
        <ele>877.2</ele>
        <time>2019-08-16T08:28:53Z</time>
      </trkpt>
      <trkpt lat="42.0137050" lon="-6.2851180">
        <ele>877.3</ele>
        <time>2019-08-16T08:28:54Z</time>
      </trkpt>
      <trkpt lat="42.0137130" lon="-6.2851690">
        <ele>877.4</ele>
        <time>2019-08-16T08:28:55Z</time>
      </trkpt>
      <trkpt lat="42.0137190" lon="-6.2852190">
        <ele>877.4</ele>
        <time>2019-08-16T08:28:56Z</time>
      </trkpt>
      <trkpt lat="42.0137240" lon="-6.2852710">
        <ele>877.5</ele>
        <time>2019-08-16T08:28:57Z</time>
      </trkpt>
      <trkpt lat="42.0137300" lon="-6.2853210">
        <ele>877.6</ele>
        <time>2019-08-16T08:28:58Z</time>
      </trkpt>
      <trkpt lat="42.0137370" lon="-6.2853730">
        <ele>877.7</ele>
        <time>2019-08-16T08:28:59Z</time>
      </trkpt>
      <trkpt lat="42.0137430" lon="-6.2854250">
        <ele>877.8</ele>
        <time>2019-08-16T08:29:00Z</time>
      </trkpt>
      <trkpt lat="42.0137490" lon="-6.2854770">
        <ele>877.9</ele>
        <time>2019-08-16T08:29:01Z</time>
      </trkpt>
      <trkpt lat="42.0137560" lon="-6.2855300">
        <ele>878.0</ele>
        <time>2019-08-16T08:29:02Z</time>
      </trkpt>
      <trkpt lat="42.0137620" lon="-6.2855830">
        <ele>878.1</ele>
        <time>2019-08-16T08:29:03Z</time>
      </trkpt>
      <trkpt lat="42.0137680" lon="-6.2856350">
        <ele>878.2</ele>
        <time>2019-08-16T08:29:04Z</time>
      </trkpt>
      <trkpt lat="42.0137750" lon="-6.2856880">
        <ele>878.3</ele>
        <time>2019-08-16T08:29:05Z</time>
      </trkpt>
      <trkpt lat="42.0137810" lon="-6.2857410">
        <ele>878.4</ele>
        <time>2019-08-16T08:29:06Z</time>
      </trkpt>
      <trkpt lat="42.0137880" lon="-6.2857940">
        <ele>878.5</ele>
        <time>2019-08-16T08:29:07Z</time>
      </trkpt>
      <trkpt lat="42.0137940" lon="-6.2858470">
        <ele>878.6</ele>
        <time>2019-08-16T08:29:08Z</time>
      </trkpt>
      <trkpt lat="42.0137990" lon="-6.2858980">
        <ele>878.7</ele>
        <time>2019-08-16T08:29:09Z</time>
      </trkpt>
      <trkpt lat="42.0138040" lon="-6.2859500">
        <ele>878.8</ele>
        <time>2019-08-16T08:29:10Z</time>
      </trkpt>
      <trkpt lat="42.0138110" lon="-6.2860020">
        <ele>878.9</ele>
        <time>2019-08-16T08:29:11Z</time>
      </trkpt>
      <trkpt lat="42.0138180" lon="-6.2860520">
        <ele>879.0</ele>
        <time>2019-08-16T08:29:12Z</time>
      </trkpt>
      <trkpt lat="42.0138250" lon="-6.2861030">
        <ele>879.1</ele>
        <time>2019-08-16T08:29:13Z</time>
      </trkpt>
      <trkpt lat="42.0138320" lon="-6.2861540">
        <ele>879.2</ele>
        <time>2019-08-16T08:29:14Z</time>
      </trkpt>
      <trkpt lat="42.0138370" lon="-6.2862060">
        <ele>879.3</ele>
        <time>2019-08-16T08:29:15Z</time>
      </trkpt>
      <trkpt lat="42.0138430" lon="-6.2862560">
        <ele>879.5</ele>
        <time>2019-08-16T08:29:16Z</time>
      </trkpt>
      <trkpt lat="42.0138500" lon="-6.2863070">
        <ele>879.6</ele>
        <time>2019-08-16T08:29:17Z</time>
      </trkpt>
      <trkpt lat="42.0138560" lon="-6.2863570">
        <ele>879.7</ele>
        <time>2019-08-16T08:29:18Z</time>
      </trkpt>
      <trkpt lat="42.0138610" lon="-6.2864010">
        <ele>879.8</ele>
        <time>2019-08-16T08:29:19Z</time>
      </trkpt>
      <trkpt lat="42.0138660" lon="-6.2864460">
        <ele>879.8</ele>
        <time>2019-08-16T08:29:20Z</time>
      </trkpt>
      <trkpt lat="42.0138740" lon="-6.2864950">
        <ele>879.9</ele>
        <time>2019-08-16T08:29:21Z</time>
      </trkpt>
      <trkpt lat="42.0138810" lon="-6.2865450">
        <ele>880.0</ele>
        <time>2019-08-16T08:29:22Z</time>
      </trkpt>
      <trkpt lat="42.0138880" lon="-6.2865950">
        <ele>880.1</ele>
        <time>2019-08-16T08:29:23Z</time>
      </trkpt>
      <trkpt lat="42.0138940" lon="-6.2866440">
        <ele>880.2</ele>
        <time>2019-08-16T08:29:24Z</time>
      </trkpt>
      <trkpt lat="42.0139020" lon="-6.2866930">
        <ele>880.3</ele>
        <time>2019-08-16T08:29:25Z</time>
      </trkpt>
      <trkpt lat="42.0139120" lon="-6.2867420">
        <ele>880.4</ele>
        <time>2019-08-16T08:29:26Z</time>
      </trkpt>
      <trkpt lat="42.0139230" lon="-6.2867900">
        <ele>880.4</ele>
        <time>2019-08-16T08:29:27Z</time>
      </trkpt>
      <trkpt lat="42.0139330" lon="-6.2868390">
        <ele>880.5</ele>
        <time>2019-08-16T08:29:28Z</time>
      </trkpt>
      <trkpt lat="42.0139430" lon="-6.2868870">
        <ele>880.6</ele>
        <time>2019-08-16T08:29:29Z</time>
      </trkpt>
      <trkpt lat="42.0139520" lon="-6.2869370">
        <ele>880.7</ele>
        <time>2019-08-16T08:29:30Z</time>
      </trkpt>
      <trkpt lat="42.0139610" lon="-6.2869860">
        <ele>880.7</ele>
        <time>2019-08-16T08:29:31Z</time>
      </trkpt>
      <trkpt lat="42.0139680" lon="-6.2870350">
        <ele>880.8</ele>
        <time>2019-08-16T08:29:32Z</time>
      </trkpt>
      <trkpt lat="42.0139750" lon="-6.2870850">
        <ele>880.9</ele>
        <time>2019-08-16T08:29:33Z</time>
      </trkpt>
      <trkpt lat="42.0139810" lon="-6.2871370">
        <ele>881.0</ele>
        <time>2019-08-16T08:29:34Z</time>
      </trkpt>
      <trkpt lat="42.0139880" lon="-6.2871880">
        <ele>881.0</ele>
        <time>2019-08-16T08:29:35Z</time>
      </trkpt>
      <trkpt lat="42.0139930" lon="-6.2872390">
        <ele>881.1</ele>
        <time>2019-08-16T08:29:36Z</time>
      </trkpt>
      <trkpt lat="42.0139970" lon="-6.2872890">
        <ele>881.2</ele>
        <time>2019-08-16T08:29:37Z</time>
      </trkpt>
      <trkpt lat="42.0140010" lon="-6.2873380">
        <ele>881.3</ele>
        <time>2019-08-16T08:29:38Z</time>
      </trkpt>
      <trkpt lat="42.0140050" lon="-6.2873870">
        <ele>881.4</ele>
        <time>2019-08-16T08:29:39Z</time>
      </trkpt>
      <trkpt lat="42.0140080" lon="-6.2874350">
        <ele>881.4</ele>
        <time>2019-08-16T08:29:40Z</time>
      </trkpt>
      <trkpt lat="42.0140110" lon="-6.2874840">
        <ele>881.5</ele>
        <time>2019-08-16T08:29:41Z</time>
      </trkpt>
      <trkpt lat="42.0140130" lon="-6.2875340">
        <ele>881.6</ele>
        <time>2019-08-16T08:29:42Z</time>
      </trkpt>
      <trkpt lat="42.0140140" lon="-6.2875820">
        <ele>881.8</ele>
        <time>2019-08-16T08:29:43Z</time>
      </trkpt>
      <trkpt lat="42.0140160" lon="-6.2876290">
        <ele>882.0</ele>
        <time>2019-08-16T08:29:44Z</time>
      </trkpt>
      <trkpt lat="42.0140210" lon="-6.2876780">
        <ele>882.1</ele>
        <time>2019-08-16T08:29:45Z</time>
      </trkpt>
      <trkpt lat="42.0140250" lon="-6.2877260">
        <ele>882.3</ele>
        <time>2019-08-16T08:29:46Z</time>
      </trkpt>
      <trkpt lat="42.0140320" lon="-6.2877740">
        <ele>882.4</ele>
        <time>2019-08-16T08:29:47Z</time>
      </trkpt>
      <trkpt lat="42.0140380" lon="-6.2878230">
        <ele>882.6</ele>
        <time>2019-08-16T08:29:48Z</time>
      </trkpt>
      <trkpt lat="42.0140440" lon="-6.2878720">
        <ele>882.7</ele>
        <time>2019-08-16T08:29:49Z</time>
      </trkpt>
      <trkpt lat="42.0140500" lon="-6.2879210">
        <ele>882.8</ele>
        <time>2019-08-16T08:29:50Z</time>
      </trkpt>
      <trkpt lat="42.0140550" lon="-6.2879690">
        <ele>883.0</ele>
        <time>2019-08-16T08:29:51Z</time>
      </trkpt>
      <trkpt lat="42.0140620" lon="-6.2880190">
        <ele>883.1</ele>
        <time>2019-08-16T08:29:52Z</time>
      </trkpt>
      <trkpt lat="42.0140690" lon="-6.2880680">
        <ele>883.2</ele>
        <time>2019-08-16T08:29:53Z</time>
      </trkpt>
      <trkpt lat="42.0140750" lon="-6.2881180">
        <ele>883.3</ele>
        <time>2019-08-16T08:29:54Z</time>
      </trkpt>
      <trkpt lat="42.0140810" lon="-6.2881690">
        <ele>883.4</ele>
        <time>2019-08-16T08:29:55Z</time>
      </trkpt>
      <trkpt lat="42.0140870" lon="-6.2882190">
        <ele>883.5</ele>
        <time>2019-08-16T08:29:56Z</time>
      </trkpt>
      <trkpt lat="42.0140920" lon="-6.2882690">
        <ele>883.6</ele>
        <time>2019-08-16T08:29:57Z</time>
      </trkpt>
      <trkpt lat="42.0140970" lon="-6.2883190">
        <ele>883.8</ele>
        <time>2019-08-16T08:29:58Z</time>
      </trkpt>
      <trkpt lat="42.0141030" lon="-6.2883690">
        <ele>883.9</ele>
        <time>2019-08-16T08:29:59Z</time>
      </trkpt>
      <trkpt lat="42.0141090" lon="-6.2884170">
        <ele>884.0</ele>
        <time>2019-08-16T08:30:00Z</time>
      </trkpt>
      <trkpt lat="42.0141140" lon="-6.2884660">
        <ele>884.1</ele>
        <time>2019-08-16T08:30:01Z</time>
      </trkpt>
      <trkpt lat="42.0141220" lon="-6.2885150">
        <ele>884.2</ele>
        <time>2019-08-16T08:30:02Z</time>
      </trkpt>
      <trkpt lat="42.0141280" lon="-6.2885640">
        <ele>884.3</ele>
        <time>2019-08-16T08:30:03Z</time>
      </trkpt>
      <trkpt lat="42.0141330" lon="-6.2886120">
        <ele>884.4</ele>
        <time>2019-08-16T08:30:04Z</time>
      </trkpt>
      <trkpt lat="42.0141380" lon="-6.2886600">
        <ele>884.5</ele>
        <time>2019-08-16T08:30:05Z</time>
      </trkpt>
      <trkpt lat="42.0141440" lon="-6.2887070">
        <ele>884.6</ele>
        <time>2019-08-16T08:30:06Z</time>
      </trkpt>
      <trkpt lat="42.0141510" lon="-6.2887540">
        <ele>884.7</ele>
        <time>2019-08-16T08:30:07Z</time>
      </trkpt>
      <trkpt lat="42.0141570" lon="-6.2888000">
        <ele>884.8</ele>
        <time>2019-08-16T08:30:08Z</time>
      </trkpt>
      <trkpt lat="42.0141630" lon="-6.2888470">
        <ele>884.9</ele>
        <time>2019-08-16T08:30:09Z</time>
      </trkpt>
      <trkpt lat="42.0141690" lon="-6.2888940">
        <ele>884.9</ele>
        <time>2019-08-16T08:30:10Z</time>
      </trkpt>
      <trkpt lat="42.0141760" lon="-6.2889420">
        <ele>885.0</ele>
        <time>2019-08-16T08:30:11Z</time>
      </trkpt>
      <trkpt lat="42.0141820" lon="-6.2889890">
        <ele>885.1</ele>
        <time>2019-08-16T08:30:12Z</time>
      </trkpt>
      <trkpt lat="42.0141890" lon="-6.2890370">
        <ele>885.2</ele>
        <time>2019-08-16T08:30:13Z</time>
      </trkpt>
      <trkpt lat="42.0141940" lon="-6.2890850">
        <ele>885.3</ele>
        <time>2019-08-16T08:30:14Z</time>
      </trkpt>
      <trkpt lat="42.0141990" lon="-6.2891320">
        <ele>885.4</ele>
        <time>2019-08-16T08:30:15Z</time>
      </trkpt>
      <trkpt lat="42.0142050" lon="-6.2891800">
        <ele>885.5</ele>
        <time>2019-08-16T08:30:16Z</time>
      </trkpt>
      <trkpt lat="42.0142100" lon="-6.2892290">
        <ele>885.6</ele>
        <time>2019-08-16T08:30:17Z</time>
      </trkpt>
      <trkpt lat="42.0142160" lon="-6.2892760">
        <ele>885.7</ele>
        <time>2019-08-16T08:30:18Z</time>
      </trkpt>
      <trkpt lat="42.0142220" lon="-6.2893230">
        <ele>885.8</ele>
        <time>2019-08-16T08:30:19Z</time>
      </trkpt>
      <trkpt lat="42.0142290" lon="-6.2893700">
        <ele>885.9</ele>
        <time>2019-08-16T08:30:20Z</time>
      </trkpt>
      <trkpt lat="42.0142360" lon="-6.2894180">
        <ele>886.0</ele>
        <time>2019-08-16T08:30:21Z</time>
      </trkpt>
      <trkpt lat="42.0142420" lon="-6.2894670">
        <ele>886.1</ele>
        <time>2019-08-16T08:30:22Z</time>
      </trkpt>
      <trkpt lat="42.0142490" lon="-6.2895150">
        <ele>886.3</ele>
        <time>2019-08-16T08:30:23Z</time>
      </trkpt>
      <trkpt lat="42.0142560" lon="-6.2895650">
        <ele>886.4</ele>
        <time>2019-08-16T08:30:24Z</time>
      </trkpt>
      <trkpt lat="42.0142620" lon="-6.2896140">
        <ele>886.5</ele>
        <time>2019-08-16T08:30:25Z</time>
      </trkpt>
      <trkpt lat="42.0142670" lon="-6.2896620">
        <ele>886.7</ele>
        <time>2019-08-16T08:30:26Z</time>
      </trkpt>
      <trkpt lat="42.0142740" lon="-6.2897120">
        <ele>886.8</ele>
        <time>2019-08-16T08:30:27Z</time>
      </trkpt>
      <trkpt lat="42.0142790" lon="-6.2897620">
        <ele>886.9</ele>
        <time>2019-08-16T08:30:28Z</time>
      </trkpt>
      <trkpt lat="42.0142850" lon="-6.2898110">
        <ele>887.1</ele>
        <time>2019-08-16T08:30:29Z</time>
      </trkpt>
      <trkpt lat="42.0142910" lon="-6.2898600">
        <ele>887.2</ele>
        <time>2019-08-16T08:30:30Z</time>
      </trkpt>
      <trkpt lat="42.0142970" lon="-6.2899080">
        <ele>887.4</ele>
        <time>2019-08-16T08:30:31Z</time>
      </trkpt>
      <trkpt lat="42.0143040" lon="-6.2899560">
        <ele>887.5</ele>
        <time>2019-08-16T08:30:32Z</time>
      </trkpt>
      <trkpt lat="42.0143100" lon="-6.2900050">
        <ele>887.6</ele>
        <time>2019-08-16T08:30:33Z</time>
      </trkpt>
      <trkpt lat="42.0143160" lon="-6.2900530">
        <ele>887.8</ele>
        <time>2019-08-16T08:30:34Z</time>
      </trkpt>
      <trkpt lat="42.0143230" lon="-6.2901000">
        <ele>887.9</ele>
        <time>2019-08-16T08:30:35Z</time>
      </trkpt>
      <trkpt lat="42.0143290" lon="-6.2901490">
        <ele>888.0</ele>
        <time>2019-08-16T08:30:36Z</time>
      </trkpt>
      <trkpt lat="42.0143350" lon="-6.2901980">
        <ele>888.2</ele>
        <time>2019-08-16T08:30:37Z</time>
      </trkpt>
      <trkpt lat="42.0143400" lon="-6.2902470">
        <ele>888.3</ele>
        <time>2019-08-16T08:30:38Z</time>
      </trkpt>
      <trkpt lat="42.0143470" lon="-6.2902960">
        <ele>888.5</ele>
        <time>2019-08-16T08:30:39Z</time>
      </trkpt>
      <trkpt lat="42.0143530" lon="-6.2903450">
        <ele>888.6</ele>
        <time>2019-08-16T08:30:40Z</time>
      </trkpt>
      <trkpt lat="42.0143600" lon="-6.2903940">
        <ele>888.8</ele>
        <time>2019-08-16T08:30:41Z</time>
      </trkpt>
      <trkpt lat="42.0143670" lon="-6.2904440">
        <ele>888.9</ele>
        <time>2019-08-16T08:30:42Z</time>
      </trkpt>
      <trkpt lat="42.0143750" lon="-6.2904950">
        <ele>889.1</ele>
        <time>2019-08-16T08:30:43Z</time>
      </trkpt>
      <trkpt lat="42.0143820" lon="-6.2905450">
        <ele>889.2</ele>
        <time>2019-08-16T08:30:44Z</time>
      </trkpt>
      <trkpt lat="42.0143890" lon="-6.2905940">
        <ele>889.3</ele>
        <time>2019-08-16T08:30:45Z</time>
      </trkpt>
      <trkpt lat="42.0143960" lon="-6.2906440">
        <ele>889.4</ele>
        <time>2019-08-16T08:30:46Z</time>
      </trkpt>
      <trkpt lat="42.0144000" lon="-6.2906940">
        <ele>889.6</ele>
        <time>2019-08-16T08:30:47Z</time>
      </trkpt>
      <trkpt lat="42.0144050" lon="-6.2907440">
        <ele>889.7</ele>
        <time>2019-08-16T08:30:48Z</time>
      </trkpt>
      <trkpt lat="42.0144110" lon="-6.2907950">
        <ele>889.7</ele>
        <time>2019-08-16T08:30:49Z</time>
      </trkpt>
      <trkpt lat="42.0144180" lon="-6.2908460">
        <ele>889.8</ele>
        <time>2019-08-16T08:30:50Z</time>
      </trkpt>
      <trkpt lat="42.0144250" lon="-6.2908930">
        <ele>889.9</ele>
        <time>2019-08-16T08:30:51Z</time>
      </trkpt>
      <trkpt lat="42.0144310" lon="-6.2909330">
        <ele>890.0</ele>
        <time>2019-08-16T08:30:52Z</time>
      </trkpt>
      <trkpt lat="42.0144360" lon="-6.2909740">
        <ele>890.0</ele>
        <time>2019-08-16T08:30:53Z</time>
      </trkpt>
      <trkpt lat="42.0144410" lon="-6.2910170">
        <ele>890.1</ele>
        <time>2019-08-16T08:30:54Z</time>
      </trkpt>
      <trkpt lat="42.0144450" lon="-6.2910650">
        <ele>890.1</ele>
        <time>2019-08-16T08:30:55Z</time>
      </trkpt>
      <trkpt lat="42.0144510" lon="-6.2911130">
        <ele>890.2</ele>
        <time>2019-08-16T08:30:56Z</time>
      </trkpt>
      <trkpt lat="42.0144570" lon="-6.2911630">
        <ele>890.3</ele>
        <time>2019-08-16T08:30:57Z</time>
      </trkpt>
      <trkpt lat="42.0144630" lon="-6.2912130">
        <ele>890.4</ele>
        <time>2019-08-16T08:30:58Z</time>
      </trkpt>
      <trkpt lat="42.0144700" lon="-6.2912650">
        <ele>890.4</ele>
        <time>2019-08-16T08:30:59Z</time>
      </trkpt>
      <trkpt lat="42.0144770" lon="-6.2913170">
        <ele>890.5</ele>
        <time>2019-08-16T08:31:00Z</time>
      </trkpt>
      <trkpt lat="42.0144840" lon="-6.2913720">
        <ele>890.6</ele>
        <time>2019-08-16T08:31:01Z</time>
      </trkpt>
      <trkpt lat="42.0144900" lon="-6.2914260">
        <ele>890.7</ele>
        <time>2019-08-16T08:31:02Z</time>
      </trkpt>
      <trkpt lat="42.0144970" lon="-6.2914810">
        <ele>890.9</ele>
        <time>2019-08-16T08:31:03Z</time>
      </trkpt>
      <trkpt lat="42.0145050" lon="-6.2915370">
        <ele>891.0</ele>
        <time>2019-08-16T08:31:04Z</time>
      </trkpt>
      <trkpt lat="42.0145120" lon="-6.2915950">
        <ele>891.1</ele>
        <time>2019-08-16T08:31:05Z</time>
      </trkpt>
      <trkpt lat="42.0145190" lon="-6.2916550">
        <ele>891.2</ele>
        <time>2019-08-16T08:31:06Z</time>
      </trkpt>
      <trkpt lat="42.0145250" lon="-6.2917170">
        <ele>891.3</ele>
        <time>2019-08-16T08:31:07Z</time>
      </trkpt>
      <trkpt lat="42.0145310" lon="-6.2917750">
        <ele>891.4</ele>
        <time>2019-08-16T08:31:08Z</time>
      </trkpt>
      <trkpt lat="42.0145370" lon="-6.2918330">
        <ele>891.5</ele>
        <time>2019-08-16T08:31:09Z</time>
      </trkpt>
      <trkpt lat="42.0145410" lon="-6.2918890">
        <ele>891.5</ele>
        <time>2019-08-16T08:31:10Z</time>
      </trkpt>
      <trkpt lat="42.0145490" lon="-6.2919450">
        <ele>891.6</ele>
        <time>2019-08-16T08:31:11Z</time>
      </trkpt>
      <trkpt lat="42.0145580" lon="-6.2920020">
        <ele>891.6</ele>
        <time>2019-08-16T08:31:12Z</time>
      </trkpt>
      <trkpt lat="42.0145660" lon="-6.2920620">
        <ele>891.7</ele>
        <time>2019-08-16T08:31:13Z</time>
      </trkpt>
      <trkpt lat="42.0145730" lon="-6.2921220">
        <ele>891.7</ele>
        <time>2019-08-16T08:31:14Z</time>
      </trkpt>
      <trkpt lat="42.0145790" lon="-6.2921810">
        <ele>891.8</ele>
        <time>2019-08-16T08:31:15Z</time>
      </trkpt>
      <trkpt lat="42.0145850" lon="-6.2922390">
        <ele>891.8</ele>
        <time>2019-08-16T08:31:16Z</time>
      </trkpt>
      <trkpt lat="42.0145920" lon="-6.2922960">
        <ele>891.9</ele>
        <time>2019-08-16T08:31:17Z</time>
      </trkpt>
      <trkpt lat="42.0145980" lon="-6.2923510">
        <ele>891.9</ele>
        <time>2019-08-16T08:31:18Z</time>
      </trkpt>
      <trkpt lat="42.0146060" lon="-6.2924040">
        <ele>891.9</ele>
        <time>2019-08-16T08:31:19Z</time>
      </trkpt>
      <trkpt lat="42.0146120" lon="-6.2924540">
        <ele>892.0</ele>
        <time>2019-08-16T08:31:20Z</time>
      </trkpt>
      <trkpt lat="42.0146180" lon="-6.2925050">
        <ele>892.0</ele>
        <time>2019-08-16T08:31:21Z</time>
      </trkpt>
      <trkpt lat="42.0146240" lon="-6.2925590">
        <ele>892.1</ele>
        <time>2019-08-16T08:31:22Z</time>
      </trkpt>
      <trkpt lat="42.0146310" lon="-6.2926180">
        <ele>892.1</ele>
        <time>2019-08-16T08:31:23Z</time>
      </trkpt>
      <trkpt lat="42.0146390" lon="-6.2926770">
        <ele>892.2</ele>
        <time>2019-08-16T08:31:24Z</time>
      </trkpt>
      <trkpt lat="42.0146490" lon="-6.2927390">
        <ele>892.3</ele>
        <time>2019-08-16T08:31:25Z</time>
      </trkpt>
      <trkpt lat="42.0146560" lon="-6.2928020">
        <ele>892.3</ele>
        <time>2019-08-16T08:31:26Z</time>
      </trkpt>
      <trkpt lat="42.0146640" lon="-6.2928660">
        <ele>892.4</ele>
        <time>2019-08-16T08:31:27Z</time>
      </trkpt>
      <trkpt lat="42.0146730" lon="-6.2929330">
        <ele>892.4</ele>
        <time>2019-08-16T08:31:28Z</time>
      </trkpt>
      <trkpt lat="42.0146810" lon="-6.2930020">
        <ele>892.5</ele>
        <time>2019-08-16T08:31:29Z</time>
      </trkpt>
      <trkpt lat="42.0146900" lon="-6.2930710">
        <ele>892.5</ele>
        <time>2019-08-16T08:31:30Z</time>
      </trkpt>
      <trkpt lat="42.0146980" lon="-6.2931430">
        <ele>892.6</ele>
        <time>2019-08-16T08:31:31Z</time>
      </trkpt>
      <trkpt lat="42.0147070" lon="-6.2932160">
        <ele>892.6</ele>
        <time>2019-08-16T08:31:32Z</time>
      </trkpt>
      <trkpt lat="42.0147170" lon="-6.2932910">
        <ele>892.6</ele>
        <time>2019-08-16T08:31:33Z</time>
      </trkpt>
      <trkpt lat="42.0147260" lon="-6.2933660">
        <ele>892.6</ele>
        <time>2019-08-16T08:31:34Z</time>
      </trkpt>
      <trkpt lat="42.0147370" lon="-6.2934410">
        <ele>892.6</ele>
        <time>2019-08-16T08:31:35Z</time>
      </trkpt>
      <trkpt lat="42.0147470" lon="-6.2935180">
        <ele>892.6</ele>
        <time>2019-08-16T08:31:36Z</time>
      </trkpt>
      <trkpt lat="42.0147570" lon="-6.2935930">
        <ele>892.6</ele>
        <time>2019-08-16T08:31:37Z</time>
      </trkpt>
      <trkpt lat="42.0147650" lon="-6.2936660">
        <ele>892.6</ele>
        <time>2019-08-16T08:31:38Z</time>
      </trkpt>
      <trkpt lat="42.0147740" lon="-6.2937400">
        <ele>892.6</ele>
        <time>2019-08-16T08:31:39Z</time>
      </trkpt>
      <trkpt lat="42.0147830" lon="-6.2938120">
        <ele>892.6</ele>
        <time>2019-08-16T08:31:40Z</time>
      </trkpt>
      <trkpt lat="42.0147920" lon="-6.2938830">
        <ele>892.6</ele>
        <time>2019-08-16T08:31:41Z</time>
      </trkpt>
      <trkpt lat="42.0148010" lon="-6.2939550">
        <ele>892.6</ele>
        <time>2019-08-16T08:31:42Z</time>
      </trkpt>
      <trkpt lat="42.0148090" lon="-6.2940250">
        <ele>892.6</ele>
        <time>2019-08-16T08:31:43Z</time>
      </trkpt>
      <trkpt lat="42.0148180" lon="-6.2940940">
        <ele>892.6</ele>
        <time>2019-08-16T08:31:44Z</time>
      </trkpt>
      <trkpt lat="42.0148270" lon="-6.2941630">
        <ele>892.5</ele>
        <time>2019-08-16T08:31:45Z</time>
      </trkpt>
      <trkpt lat="42.0148370" lon="-6.2942300">
        <ele>892.5</ele>
        <time>2019-08-16T08:31:46Z</time>
      </trkpt>
      <trkpt lat="42.0148470" lon="-6.2942980">
        <ele>892.5</ele>
        <time>2019-08-16T08:31:47Z</time>
      </trkpt>
      <trkpt lat="42.0148580" lon="-6.2943680">
        <ele>892.4</ele>
        <time>2019-08-16T08:31:48Z</time>
      </trkpt>
      <trkpt lat="42.0148690" lon="-6.2944390">
        <ele>892.4</ele>
        <time>2019-08-16T08:31:49Z</time>
      </trkpt>
      <trkpt lat="42.0148800" lon="-6.2945120">
        <ele>892.4</ele>
        <time>2019-08-16T08:31:50Z</time>
      </trkpt>
      <trkpt lat="42.0148910" lon="-6.2945860">
        <ele>892.3</ele>
        <time>2019-08-16T08:31:51Z</time>
      </trkpt>
      <trkpt lat="42.0149030" lon="-6.2946610">
        <ele>892.3</ele>
        <time>2019-08-16T08:31:52Z</time>
      </trkpt>
      <trkpt lat="42.0149160" lon="-6.2947340">
        <ele>892.2</ele>
        <time>2019-08-16T08:31:53Z</time>
      </trkpt>
      <trkpt lat="42.0149300" lon="-6.2948070">
        <ele>892.2</ele>
        <time>2019-08-16T08:31:54Z</time>
      </trkpt>
      <trkpt lat="42.0149430" lon="-6.2948800">
        <ele>892.1</ele>
        <time>2019-08-16T08:31:55Z</time>
      </trkpt>
      <trkpt lat="42.0149570" lon="-6.2949520">
        <ele>892.1</ele>
        <time>2019-08-16T08:31:56Z</time>
      </trkpt>
      <trkpt lat="42.0149700" lon="-6.2950230">
        <ele>892.0</ele>
        <time>2019-08-16T08:31:57Z</time>
      </trkpt>
      <trkpt lat="42.0149840" lon="-6.2950930">
        <ele>892.0</ele>
        <time>2019-08-16T08:31:58Z</time>
      </trkpt>
      <trkpt lat="42.0149980" lon="-6.2951620">
        <ele>891.9</ele>
        <time>2019-08-16T08:31:59Z</time>
      </trkpt>
      <trkpt lat="42.0150140" lon="-6.2952330">
        <ele>891.8</ele>
        <time>2019-08-16T08:32:00Z</time>
      </trkpt>
      <trkpt lat="42.0150290" lon="-6.2953050">
        <ele>891.7</ele>
        <time>2019-08-16T08:32:01Z</time>
      </trkpt>
      <trkpt lat="42.0150460" lon="-6.2953770">
        <ele>891.7</ele>
        <time>2019-08-16T08:32:02Z</time>
      </trkpt>
      <trkpt lat="42.0150630" lon="-6.2954520">
        <ele>891.6</ele>
        <time>2019-08-16T08:32:03Z</time>
      </trkpt>
      <trkpt lat="42.0150810" lon="-6.2955280">
        <ele>891.5</ele>
        <time>2019-08-16T08:32:04Z</time>
      </trkpt>
      <trkpt lat="42.0151000" lon="-6.2956060">
        <ele>891.4</ele>
        <time>2019-08-16T08:32:05Z</time>
      </trkpt>
      <trkpt lat="42.0151190" lon="-6.2956840">
        <ele>891.4</ele>
        <time>2019-08-16T08:32:06Z</time>
      </trkpt>
      <trkpt lat="42.0151370" lon="-6.2957640">
        <ele>891.3</ele>
        <time>2019-08-16T08:32:07Z</time>
      </trkpt>
      <trkpt lat="42.0151560" lon="-6.2958420">
        <ele>891.2</ele>
        <time>2019-08-16T08:32:08Z</time>
      </trkpt>
      <trkpt lat="42.0151750" lon="-6.2959180">
        <ele>891.2</ele>
        <time>2019-08-16T08:32:09Z</time>
      </trkpt>
      <trkpt lat="42.0151930" lon="-6.2959930">
        <ele>891.1</ele>
        <time>2019-08-16T08:32:10Z</time>
      </trkpt>
      <trkpt lat="42.0152110" lon="-6.2960680">
        <ele>891.1</ele>
        <time>2019-08-16T08:32:11Z</time>
      </trkpt>
      <trkpt lat="42.0152270" lon="-6.2961410">
        <ele>891.0</ele>
        <time>2019-08-16T08:32:12Z</time>
      </trkpt>
      <trkpt lat="42.0152450" lon="-6.2962140">
        <ele>891.0</ele>
        <time>2019-08-16T08:32:13Z</time>
      </trkpt>
      <trkpt lat="42.0152620" lon="-6.2962840">
        <ele>890.9</ele>
        <time>2019-08-16T08:32:14Z</time>
      </trkpt>
      <trkpt lat="42.0152810" lon="-6.2963530">
        <ele>890.9</ele>
        <time>2019-08-16T08:32:15Z</time>
      </trkpt>
      <trkpt lat="42.0152990" lon="-6.2964230">
        <ele>890.9</ele>
        <time>2019-08-16T08:32:16Z</time>
      </trkpt>
      <trkpt lat="42.0153180" lon="-6.2964930">
        <ele>890.8</ele>
        <time>2019-08-16T08:32:17Z</time>
      </trkpt>
      <trkpt lat="42.0153360" lon="-6.2965650">
        <ele>890.8</ele>
        <time>2019-08-16T08:32:18Z</time>
      </trkpt>
      <trkpt lat="42.0153560" lon="-6.2966370">
        <ele>890.8</ele>
        <time>2019-08-16T08:32:19Z</time>
      </trkpt>
      <trkpt lat="42.0153740" lon="-6.2967100">
        <ele>890.7</ele>
        <time>2019-08-16T08:32:20Z</time>
      </trkpt>
      <trkpt lat="42.0153920" lon="-6.2967830">
        <ele>890.7</ele>
        <time>2019-08-16T08:32:21Z</time>
      </trkpt>
      <trkpt lat="42.0154090" lon="-6.2968580">
        <ele>890.6</ele>
        <time>2019-08-16T08:32:22Z</time>
      </trkpt>
      <trkpt lat="42.0154260" lon="-6.2969320">
        <ele>890.6</ele>
        <time>2019-08-16T08:32:23Z</time>
      </trkpt>
      <trkpt lat="42.0154450" lon="-6.2970050">
        <ele>890.5</ele>
        <time>2019-08-16T08:32:24Z</time>
      </trkpt>
      <trkpt lat="42.0154640" lon="-6.2970760">
        <ele>890.5</ele>
        <time>2019-08-16T08:32:25Z</time>
      </trkpt>
      <trkpt lat="42.0154830" lon="-6.2971470">
        <ele>890.4</ele>
        <time>2019-08-16T08:32:26Z</time>
      </trkpt>
      <trkpt lat="42.0155020" lon="-6.2972190">
        <ele>890.4</ele>
        <time>2019-08-16T08:32:27Z</time>
      </trkpt>
      <trkpt lat="42.0155210" lon="-6.2972930">
        <ele>890.3</ele>
        <time>2019-08-16T08:32:28Z</time>
      </trkpt>
      <trkpt lat="42.0155400" lon="-6.2973700">
        <ele>890.3</ele>
        <time>2019-08-16T08:32:29Z</time>
      </trkpt>
      <trkpt lat="42.0155590" lon="-6.2974490">
        <ele>890.2</ele>
        <time>2019-08-16T08:32:30Z</time>
      </trkpt>
      <trkpt lat="42.0155790" lon="-6.2975280">
        <ele>890.1</ele>
        <time>2019-08-16T08:32:31Z</time>
      </trkpt>
      <trkpt lat="42.0155990" lon="-6.2976090">
        <ele>890.1</ele>
        <time>2019-08-16T08:32:32Z</time>
      </trkpt>
      <trkpt lat="42.0156190" lon="-6.2976890">
        <ele>890.0</ele>
        <time>2019-08-16T08:32:33Z</time>
      </trkpt>
      <trkpt lat="42.0156390" lon="-6.2977670">
        <ele>889.9</ele>
        <time>2019-08-16T08:32:34Z</time>
      </trkpt>
      <trkpt lat="42.0156580" lon="-6.2978460">
        <ele>889.9</ele>
        <time>2019-08-16T08:32:35Z</time>
      </trkpt>
      <trkpt lat="42.0156770" lon="-6.2979250">
        <ele>889.8</ele>
        <time>2019-08-16T08:32:36Z</time>
      </trkpt>
      <trkpt lat="42.0156960" lon="-6.2980020">
        <ele>889.8</ele>
        <time>2019-08-16T08:32:37Z</time>
      </trkpt>
      <trkpt lat="42.0157160" lon="-6.2980790">
        <ele>889.8</ele>
        <time>2019-08-16T08:32:38Z</time>
      </trkpt>
      <trkpt lat="42.0157370" lon="-6.2981570">
        <ele>889.7</ele>
        <time>2019-08-16T08:32:39Z</time>
      </trkpt>
      <trkpt lat="42.0157570" lon="-6.2982380">
        <ele>889.7</ele>
        <time>2019-08-16T08:32:40Z</time>
      </trkpt>
      <trkpt lat="42.0157760" lon="-6.2983190">
        <ele>889.7</ele>
        <time>2019-08-16T08:32:41Z</time>
      </trkpt>
      <trkpt lat="42.0157940" lon="-6.2984000">
        <ele>889.7</ele>
        <time>2019-08-16T08:32:42Z</time>
      </trkpt>
      <trkpt lat="42.0158130" lon="-6.2984780">
        <ele>889.6</ele>
        <time>2019-08-16T08:32:43Z</time>
      </trkpt>
      <trkpt lat="42.0158330" lon="-6.2985550">
        <ele>889.6</ele>
        <time>2019-08-16T08:32:44Z</time>
      </trkpt>
      <trkpt lat="42.0158530" lon="-6.2986310">
        <ele>889.6</ele>
        <time>2019-08-16T08:32:45Z</time>
      </trkpt>
      <trkpt lat="42.0158720" lon="-6.2987070">
        <ele>889.6</ele>
        <time>2019-08-16T08:32:46Z</time>
      </trkpt>
      <trkpt lat="42.0158920" lon="-6.2987850">
        <ele>889.6</ele>
        <time>2019-08-16T08:32:47Z</time>
      </trkpt>
      <trkpt lat="42.0159130" lon="-6.2988630">
        <ele>889.5</ele>
        <time>2019-08-16T08:32:48Z</time>
      </trkpt>
      <trkpt lat="42.0159340" lon="-6.2989420">
        <ele>889.5</ele>
        <time>2019-08-16T08:32:49Z</time>
      </trkpt>
      <trkpt lat="42.0159550" lon="-6.2990210">
        <ele>889.5</ele>
        <time>2019-08-16T08:32:50Z</time>
      </trkpt>
      <trkpt lat="42.0159750" lon="-6.2991010">
        <ele>889.4</ele>
        <time>2019-08-16T08:32:51Z</time>
      </trkpt>
      <trkpt lat="42.0159950" lon="-6.2991800">
        <ele>889.4</ele>
        <time>2019-08-16T08:32:52Z</time>
      </trkpt>
      <trkpt lat="42.0160140" lon="-6.2992570">
        <ele>889.4</ele>
        <time>2019-08-16T08:32:53Z</time>
      </trkpt>
      <trkpt lat="42.0160330" lon="-6.2993300">
        <ele>889.3</ele>
        <time>2019-08-16T08:32:54Z</time>
      </trkpt>
      <trkpt lat="42.0160510" lon="-6.2994020">
        <ele>889.3</ele>
        <time>2019-08-16T08:32:55Z</time>
      </trkpt>
      <trkpt lat="42.0160690" lon="-6.2994750">
        <ele>889.3</ele>
        <time>2019-08-16T08:32:56Z</time>
      </trkpt>
      <trkpt lat="42.0160860" lon="-6.2995460">
        <ele>889.3</ele>
        <time>2019-08-16T08:32:57Z</time>
      </trkpt>
      <trkpt lat="42.0161030" lon="-6.2996150">
        <ele>889.2</ele>
        <time>2019-08-16T08:32:58Z</time>
      </trkpt>
      <trkpt lat="42.0161200" lon="-6.2996840">
        <ele>889.2</ele>
        <time>2019-08-16T08:32:59Z</time>
      </trkpt>
      <trkpt lat="42.0161380" lon="-6.2997530">
        <ele>889.2</ele>
        <time>2019-08-16T08:33:00Z</time>
      </trkpt>
      <trkpt lat="42.0161560" lon="-6.2998220">
        <ele>889.2</ele>
        <time>2019-08-16T08:33:01Z</time>
      </trkpt>
      <trkpt lat="42.0161730" lon="-6.2998900">
        <ele>889.2</ele>
        <time>2019-08-16T08:33:02Z</time>
      </trkpt>
      <trkpt lat="42.0161900" lon="-6.2999590">
        <ele>889.2</ele>
        <time>2019-08-16T08:33:03Z</time>
      </trkpt>
      <trkpt lat="42.0162060" lon="-6.3000250">
        <ele>889.2</ele>
        <time>2019-08-16T08:33:04Z</time>
      </trkpt>
      <trkpt lat="42.0162220" lon="-6.3000900">
        <ele>889.2</ele>
        <time>2019-08-16T08:33:05Z</time>
      </trkpt>
      <trkpt lat="42.0162390" lon="-6.3001520">
        <ele>889.2</ele>
        <time>2019-08-16T08:33:06Z</time>
      </trkpt>
      <trkpt lat="42.0162560" lon="-6.3002140">
        <ele>889.2</ele>
        <time>2019-08-16T08:33:07Z</time>
      </trkpt>
      <trkpt lat="42.0162740" lon="-6.3002780">
        <ele>889.2</ele>
        <time>2019-08-16T08:33:08Z</time>
      </trkpt>
      <trkpt lat="42.0162920" lon="-6.3003440">
        <ele>889.2</ele>
        <time>2019-08-16T08:33:09Z</time>
      </trkpt>
      <trkpt lat="42.0163090" lon="-6.3004090">
        <ele>889.2</ele>
        <time>2019-08-16T08:33:10Z</time>
      </trkpt>
      <trkpt lat="42.0163260" lon="-6.3004740">
        <ele>889.2</ele>
        <time>2019-08-16T08:33:11Z</time>
      </trkpt>
      <trkpt lat="42.0163430" lon="-6.3005390">
        <ele>889.2</ele>
        <time>2019-08-16T08:33:12Z</time>
      </trkpt>
      <trkpt lat="42.0163590" lon="-6.3006020">
        <ele>889.2</ele>
        <time>2019-08-16T08:33:13Z</time>
      </trkpt>
      <trkpt lat="42.0163740" lon="-6.3006690">
        <ele>889.2</ele>
        <time>2019-08-16T08:33:14Z</time>
      </trkpt>
      <trkpt lat="42.0163890" lon="-6.3007360">
        <ele>889.2</ele>
        <time>2019-08-16T08:33:15Z</time>
      </trkpt>
      <trkpt lat="42.0164050" lon="-6.3008000">
        <ele>889.1</ele>
        <time>2019-08-16T08:33:16Z</time>
      </trkpt>
      <trkpt lat="42.0164210" lon="-6.3008640">
        <ele>889.1</ele>
        <time>2019-08-16T08:33:17Z</time>
      </trkpt>
      <trkpt lat="42.0164360" lon="-6.3009270">
        <ele>889.1</ele>
        <time>2019-08-16T08:33:18Z</time>
      </trkpt>
      <trkpt lat="42.0164520" lon="-6.3009880">
        <ele>889.1</ele>
        <time>2019-08-16T08:33:19Z</time>
      </trkpt>
      <trkpt lat="42.0164660" lon="-6.3010490">
        <ele>889.1</ele>
        <time>2019-08-16T08:33:20Z</time>
      </trkpt>
      <trkpt lat="42.0164800" lon="-6.3011120">
        <ele>889.0</ele>
        <time>2019-08-16T08:33:21Z</time>
      </trkpt>
      <trkpt lat="42.0164960" lon="-6.3011720">
        <ele>889.0</ele>
        <time>2019-08-16T08:33:22Z</time>
      </trkpt>
      <trkpt lat="42.0165120" lon="-6.3012330">
        <ele>889.0</ele>
        <time>2019-08-16T08:33:23Z</time>
      </trkpt>
      <trkpt lat="42.0165280" lon="-6.3012930">
        <ele>889.0</ele>
        <time>2019-08-16T08:33:24Z</time>
      </trkpt>
      <trkpt lat="42.0165440" lon="-6.3013510">
        <ele>889.0</ele>
        <time>2019-08-16T08:33:25Z</time>
      </trkpt>
      <trkpt lat="42.0165580" lon="-6.3014100">
        <ele>889.0</ele>
        <time>2019-08-16T08:33:26Z</time>
      </trkpt>
      <trkpt lat="42.0165740" lon="-6.3014680">
        <ele>889.0</ele>
        <time>2019-08-16T08:33:27Z</time>
      </trkpt>
      <trkpt lat="42.0165890" lon="-6.3015250">
        <ele>889.1</ele>
        <time>2019-08-16T08:33:28Z</time>
      </trkpt>
      <trkpt lat="42.0166040" lon="-6.3015840">
        <ele>889.1</ele>
        <time>2019-08-16T08:33:29Z</time>
      </trkpt>
      <trkpt lat="42.0166180" lon="-6.3016430">
        <ele>889.1</ele>
        <time>2019-08-16T08:33:30Z</time>
      </trkpt>
      <trkpt lat="42.0166330" lon="-6.3017020">
        <ele>889.1</ele>
        <time>2019-08-16T08:33:31Z</time>
      </trkpt>
      <trkpt lat="42.0166480" lon="-6.3017630">
        <ele>889.2</ele>
        <time>2019-08-16T08:33:32Z</time>
      </trkpt>
      <trkpt lat="42.0166620" lon="-6.3018250">
        <ele>889.2</ele>
        <time>2019-08-16T08:33:33Z</time>
      </trkpt>
      <trkpt lat="42.0166760" lon="-6.3018880">
        <ele>889.2</ele>
        <time>2019-08-16T08:33:34Z</time>
      </trkpt>
      <trkpt lat="42.0166920" lon="-6.3019500">
        <ele>889.2</ele>
        <time>2019-08-16T08:33:35Z</time>
      </trkpt>
      <trkpt lat="42.0167080" lon="-6.3020130">
        <ele>889.3</ele>
        <time>2019-08-16T08:33:36Z</time>
      </trkpt>
      <trkpt lat="42.0167240" lon="-6.3020760">
        <ele>889.3</ele>
        <time>2019-08-16T08:33:37Z</time>
      </trkpt>
      <trkpt lat="42.0167400" lon="-6.3021370">
        <ele>889.4</ele>
        <time>2019-08-16T08:33:38Z</time>
      </trkpt>
      <trkpt lat="42.0167560" lon="-6.3021970">
        <ele>889.4</ele>
        <time>2019-08-16T08:33:39Z</time>
      </trkpt>
      <trkpt lat="42.0167710" lon="-6.3022570">
        <ele>889.4</ele>
        <time>2019-08-16T08:33:40Z</time>
      </trkpt>
      <trkpt lat="42.0167840" lon="-6.3023170">
        <ele>889.5</ele>
        <time>2019-08-16T08:33:41Z</time>
      </trkpt>
      <trkpt lat="42.0167980" lon="-6.3023780">
        <ele>889.6</ele>
        <time>2019-08-16T08:33:42Z</time>
      </trkpt>
      <trkpt lat="42.0168120" lon="-6.3024380">
        <ele>889.6</ele>
        <time>2019-08-16T08:33:43Z</time>
      </trkpt>
      <trkpt lat="42.0168270" lon="-6.3024980">
        <ele>889.7</ele>
        <time>2019-08-16T08:33:44Z</time>
      </trkpt>
      <trkpt lat="42.0168420" lon="-6.3025570">
        <ele>889.8</ele>
        <time>2019-08-16T08:33:45Z</time>
      </trkpt>
      <trkpt lat="42.0168570" lon="-6.3026160">
        <ele>889.8</ele>
        <time>2019-08-16T08:33:46Z</time>
      </trkpt>
      <trkpt lat="42.0168730" lon="-6.3026760">
        <ele>889.9</ele>
        <time>2019-08-16T08:33:47Z</time>
      </trkpt>
      <trkpt lat="42.0168880" lon="-6.3027350">
        <ele>890.0</ele>
        <time>2019-08-16T08:33:48Z</time>
      </trkpt>
      <trkpt lat="42.0169020" lon="-6.3027940">
        <ele>890.1</ele>
        <time>2019-08-16T08:33:49Z</time>
      </trkpt>
      <trkpt lat="42.0169170" lon="-6.3028520">
        <ele>890.1</ele>
        <time>2019-08-16T08:33:50Z</time>
      </trkpt>
      <trkpt lat="42.0169330" lon="-6.3029110">
        <ele>890.2</ele>
        <time>2019-08-16T08:33:51Z</time>
      </trkpt>
      <trkpt lat="42.0169500" lon="-6.3029690">
        <ele>890.3</ele>
        <time>2019-08-16T08:33:52Z</time>
      </trkpt>
      <trkpt lat="42.0169650" lon="-6.3030270">
        <ele>890.4</ele>
        <time>2019-08-16T08:33:53Z</time>
      </trkpt>
      <trkpt lat="42.0169790" lon="-6.3030850">
        <ele>890.4</ele>
        <time>2019-08-16T08:33:54Z</time>
      </trkpt>
      <trkpt lat="42.0169940" lon="-6.3031410">
        <ele>890.5</ele>
        <time>2019-08-16T08:33:55Z</time>
      </trkpt>
      <trkpt lat="42.0170080" lon="-6.3031960">
        <ele>890.6</ele>
        <time>2019-08-16T08:33:56Z</time>
      </trkpt>
      <trkpt lat="42.0170200" lon="-6.3032490">
        <ele>890.6</ele>
        <time>2019-08-16T08:33:57Z</time>
      </trkpt>
      <trkpt lat="42.0170320" lon="-6.3033040">
        <ele>890.7</ele>
        <time>2019-08-16T08:33:58Z</time>
      </trkpt>
      <trkpt lat="42.0170460" lon="-6.3033620">
        <ele>890.8</ele>
        <time>2019-08-16T08:33:59Z</time>
      </trkpt>
      <trkpt lat="42.0170610" lon="-6.3034200">
        <ele>890.9</ele>
        <time>2019-08-16T08:34:00Z</time>
      </trkpt>
      <trkpt lat="42.0170760" lon="-6.3034780">
        <ele>891.1</ele>
        <time>2019-08-16T08:34:01Z</time>
      </trkpt>
      <trkpt lat="42.0170900" lon="-6.3035350">
        <ele>891.2</ele>
        <time>2019-08-16T08:34:02Z</time>
      </trkpt>
      <trkpt lat="42.0171040" lon="-6.3035910">
        <ele>891.3</ele>
        <time>2019-08-16T08:34:03Z</time>
      </trkpt>
      <trkpt lat="42.0171190" lon="-6.3036480">
        <ele>891.4</ele>
        <time>2019-08-16T08:34:04Z</time>
      </trkpt>
      <trkpt lat="42.0171340" lon="-6.3037050">
        <ele>891.5</ele>
        <time>2019-08-16T08:34:05Z</time>
      </trkpt>
      <trkpt lat="42.0171480" lon="-6.3037650">
        <ele>891.6</ele>
        <time>2019-08-16T08:34:06Z</time>
      </trkpt>
      <trkpt lat="42.0171630" lon="-6.3038250">
        <ele>891.8</ele>
        <time>2019-08-16T08:34:07Z</time>
      </trkpt>
      <trkpt lat="42.0171780" lon="-6.3038840">
        <ele>891.9</ele>
        <time>2019-08-16T08:34:08Z</time>
      </trkpt>
      <trkpt lat="42.0171910" lon="-6.3039430">
        <ele>892.0</ele>
        <time>2019-08-16T08:34:09Z</time>
      </trkpt>
      <trkpt lat="42.0172060" lon="-6.3040010">
        <ele>892.0</ele>
        <time>2019-08-16T08:34:10Z</time>
      </trkpt>
      <trkpt lat="42.0172180" lon="-6.3040610">
        <ele>892.1</ele>
        <time>2019-08-16T08:34:11Z</time>
      </trkpt>
      <trkpt lat="42.0172310" lon="-6.3041190">
        <ele>892.2</ele>
        <time>2019-08-16T08:34:12Z</time>
      </trkpt>
      <trkpt lat="42.0172440" lon="-6.3041750">
        <ele>892.3</ele>
        <time>2019-08-16T08:34:13Z</time>
      </trkpt>
      <trkpt lat="42.0172580" lon="-6.3042320">
        <ele>892.3</ele>
        <time>2019-08-16T08:34:14Z</time>
      </trkpt>
      <trkpt lat="42.0172730" lon="-6.3042890">
        <ele>892.4</ele>
        <time>2019-08-16T08:34:15Z</time>
      </trkpt>
      <trkpt lat="42.0172880" lon="-6.3043470">
        <ele>892.5</ele>
        <time>2019-08-16T08:34:16Z</time>
      </trkpt>
      <trkpt lat="42.0173030" lon="-6.3044030">
        <ele>892.5</ele>
        <time>2019-08-16T08:34:17Z</time>
      </trkpt>
      <trkpt lat="42.0173190" lon="-6.3044590">
        <ele>892.6</ele>
        <time>2019-08-16T08:34:18Z</time>
      </trkpt>
      <trkpt lat="42.0173340" lon="-6.3045160">
        <ele>892.7</ele>
        <time>2019-08-16T08:34:19Z</time>
      </trkpt>
      <trkpt lat="42.0173480" lon="-6.3045730">
        <ele>892.7</ele>
        <time>2019-08-16T08:34:20Z</time>
      </trkpt>
      <trkpt lat="42.0173620" lon="-6.3046280">
        <ele>892.8</ele>
        <time>2019-08-16T08:34:21Z</time>
      </trkpt>
      <trkpt lat="42.0173770" lon="-6.3046840">
        <ele>892.9</ele>
        <time>2019-08-16T08:34:22Z</time>
      </trkpt>
      <trkpt lat="42.0173910" lon="-6.3047390">
        <ele>893.0</ele>
        <time>2019-08-16T08:34:23Z</time>
      </trkpt>
      <trkpt lat="42.0174060" lon="-6.3047950">
        <ele>893.0</ele>
        <time>2019-08-16T08:34:24Z</time>
      </trkpt>
      <trkpt lat="42.0174200" lon="-6.3048500">
        <ele>893.1</ele>
        <time>2019-08-16T08:34:25Z</time>
      </trkpt>
      <trkpt lat="42.0174340" lon="-6.3049060">
        <ele>893.2</ele>
        <time>2019-08-16T08:34:26Z</time>
      </trkpt>
      <trkpt lat="42.0174480" lon="-6.3049610">
        <ele>893.3</ele>
        <time>2019-08-16T08:34:27Z</time>
      </trkpt>
      <trkpt lat="42.0174620" lon="-6.3050180">
        <ele>893.4</ele>
        <time>2019-08-16T08:34:28Z</time>
      </trkpt>
      <trkpt lat="42.0174770" lon="-6.3050750">
        <ele>893.5</ele>
        <time>2019-08-16T08:34:29Z</time>
      </trkpt>
      <trkpt lat="42.0174900" lon="-6.3051310">
        <ele>893.6</ele>
        <time>2019-08-16T08:34:30Z</time>
      </trkpt>
      <trkpt lat="42.0175030" lon="-6.3051860">
        <ele>893.7</ele>
        <time>2019-08-16T08:34:31Z</time>
      </trkpt>
      <trkpt lat="42.0175170" lon="-6.3052420">
        <ele>893.8</ele>
        <time>2019-08-16T08:34:32Z</time>
      </trkpt>
      <trkpt lat="42.0175300" lon="-6.3052960">
        <ele>893.9</ele>
        <time>2019-08-16T08:34:33Z</time>
      </trkpt>
      <trkpt lat="42.0175450" lon="-6.3053530">
        <ele>894.0</ele>
        <time>2019-08-16T08:34:34Z</time>
      </trkpt>
      <trkpt lat="42.0175590" lon="-6.3054090">
        <ele>894.1</ele>
        <time>2019-08-16T08:34:35Z</time>
      </trkpt>
      <trkpt lat="42.0175720" lon="-6.3054660">
        <ele>894.2</ele>
        <time>2019-08-16T08:34:36Z</time>
      </trkpt>
      <trkpt lat="42.0175860" lon="-6.3055220">
        <ele>894.2</ele>
        <time>2019-08-16T08:34:37Z</time>
      </trkpt>
      <trkpt lat="42.0176010" lon="-6.3055790">
        <ele>894.3</ele>
        <time>2019-08-16T08:34:38Z</time>
      </trkpt>
      <trkpt lat="42.0176160" lon="-6.3056380">
        <ele>894.4</ele>
        <time>2019-08-16T08:34:39Z</time>
      </trkpt>
      <trkpt lat="42.0176300" lon="-6.3056960">
        <ele>894.4</ele>
        <time>2019-08-16T08:34:40Z</time>
      </trkpt>
      <trkpt lat="42.0176450" lon="-6.3057540">
        <ele>894.5</ele>
        <time>2019-08-16T08:34:41Z</time>
      </trkpt>
      <trkpt lat="42.0176590" lon="-6.3058120">
        <ele>894.6</ele>
        <time>2019-08-16T08:34:42Z</time>
      </trkpt>
      <trkpt lat="42.0176740" lon="-6.3058700">
        <ele>894.6</ele>
        <time>2019-08-16T08:34:43Z</time>
      </trkpt>
      <trkpt lat="42.0176890" lon="-6.3059260">
        <ele>894.7</ele>
        <time>2019-08-16T08:34:44Z</time>
      </trkpt>
      <trkpt lat="42.0177030" lon="-6.3059840">
        <ele>894.7</ele>
        <time>2019-08-16T08:34:45Z</time>
      </trkpt>
      <trkpt lat="42.0177180" lon="-6.3060410">
        <ele>894.8</ele>
        <time>2019-08-16T08:34:46Z</time>
      </trkpt>
      <trkpt lat="42.0177320" lon="-6.3060980">
        <ele>894.9</ele>
        <time>2019-08-16T08:34:47Z</time>
      </trkpt>
      <trkpt lat="42.0177470" lon="-6.3061540">
        <ele>894.9</ele>
        <time>2019-08-16T08:34:48Z</time>
      </trkpt>
      <trkpt lat="42.0177610" lon="-6.3062120">
        <ele>895.0</ele>
        <time>2019-08-16T08:34:49Z</time>
      </trkpt>
      <trkpt lat="42.0177750" lon="-6.3062700">
        <ele>895.1</ele>
        <time>2019-08-16T08:34:50Z</time>
      </trkpt>
      <trkpt lat="42.0177900" lon="-6.3063270">
        <ele>895.2</ele>
        <time>2019-08-16T08:34:51Z</time>
      </trkpt>
      <trkpt lat="42.0178040" lon="-6.3063830">
        <ele>895.3</ele>
        <time>2019-08-16T08:34:52Z</time>
      </trkpt>
      <trkpt lat="42.0178180" lon="-6.3064390">
        <ele>895.4</ele>
        <time>2019-08-16T08:34:53Z</time>
      </trkpt>
      <trkpt lat="42.0178310" lon="-6.3064940">
        <ele>895.4</ele>
        <time>2019-08-16T08:34:54Z</time>
      </trkpt>
      <trkpt lat="42.0178450" lon="-6.3065500">
        <ele>895.5</ele>
        <time>2019-08-16T08:34:55Z</time>
      </trkpt>
      <trkpt lat="42.0178590" lon="-6.3066090">
        <ele>895.6</ele>
        <time>2019-08-16T08:34:56Z</time>
      </trkpt>
      <trkpt lat="42.0178740" lon="-6.3066680">
        <ele>895.7</ele>
        <time>2019-08-16T08:34:57Z</time>
      </trkpt>
      <trkpt lat="42.0178880" lon="-6.3067280">
        <ele>895.8</ele>
        <time>2019-08-16T08:34:58Z</time>
      </trkpt>
      <trkpt lat="42.0179020" lon="-6.3067860">
        <ele>895.9</ele>
        <time>2019-08-16T08:34:59Z</time>
      </trkpt>
      <trkpt lat="42.0179140" lon="-6.3068390">
        <ele>895.9</ele>
        <time>2019-08-16T08:35:00Z</time>
      </trkpt>
      <trkpt lat="42.0179270" lon="-6.3068890">
        <ele>896.0</ele>
        <time>2019-08-16T08:35:01Z</time>
      </trkpt>
      <trkpt lat="42.0179400" lon="-6.3069410">
        <ele>896.0</ele>
        <time>2019-08-16T08:35:02Z</time>
      </trkpt>
      <trkpt lat="42.0179540" lon="-6.3069960">
        <ele>896.1</ele>
        <time>2019-08-16T08:35:03Z</time>
      </trkpt>
      <trkpt lat="42.0179690" lon="-6.3070530">
        <ele>896.1</ele>
        <time>2019-08-16T08:35:04Z</time>
      </trkpt>
      <trkpt lat="42.0179840" lon="-6.3071110">
        <ele>896.2</ele>
        <time>2019-08-16T08:35:05Z</time>
      </trkpt>
      <trkpt lat="42.0179990" lon="-6.3071690">
        <ele>896.2</ele>
        <time>2019-08-16T08:35:06Z</time>
      </trkpt>
      <trkpt lat="42.0180130" lon="-6.3072290">
        <ele>896.2</ele>
        <time>2019-08-16T08:35:07Z</time>
      </trkpt>
      <trkpt lat="42.0180280" lon="-6.3072900">
        <ele>896.3</ele>
        <time>2019-08-16T08:35:08Z</time>
      </trkpt>
      <trkpt lat="42.0180430" lon="-6.3073510">
        <ele>896.4</ele>
        <time>2019-08-16T08:35:09Z</time>
      </trkpt>
      <trkpt lat="42.0180580" lon="-6.3074130">
        <ele>896.4</ele>
        <time>2019-08-16T08:35:10Z</time>
      </trkpt>
      <trkpt lat="42.0180740" lon="-6.3074740">
        <ele>896.4</ele>
        <time>2019-08-16T08:35:11Z</time>
      </trkpt>
      <trkpt lat="42.0180910" lon="-6.3075370">
        <ele>896.5</ele>
        <time>2019-08-16T08:35:12Z</time>
      </trkpt>
      <trkpt lat="42.0181070" lon="-6.3076000">
        <ele>896.6</ele>
        <time>2019-08-16T08:35:13Z</time>
      </trkpt>
      <trkpt lat="42.0181230" lon="-6.3076640">
        <ele>896.6</ele>
        <time>2019-08-16T08:35:14Z</time>
      </trkpt>
      <trkpt lat="42.0181390" lon="-6.3077290">
        <ele>896.6</ele>
        <time>2019-08-16T08:35:15Z</time>
      </trkpt>
      <trkpt lat="42.0181560" lon="-6.3077940">
        <ele>896.7</ele>
        <time>2019-08-16T08:35:16Z</time>
      </trkpt>
      <trkpt lat="42.0181710" lon="-6.3078570">
        <ele>896.7</ele>
        <time>2019-08-16T08:35:17Z</time>
      </trkpt>
      <trkpt lat="42.0181890" lon="-6.3079220">
        <ele>896.7</ele>
        <time>2019-08-16T08:35:18Z</time>
      </trkpt>
      <trkpt lat="42.0182060" lon="-6.3079870">
        <ele>896.8</ele>
        <time>2019-08-16T08:35:19Z</time>
      </trkpt>
      <trkpt lat="42.0182220" lon="-6.3080510">
        <ele>896.8</ele>
        <time>2019-08-16T08:35:20Z</time>
      </trkpt>
      <trkpt lat="42.0182380" lon="-6.3081150">
        <ele>896.9</ele>
        <time>2019-08-16T08:35:21Z</time>
      </trkpt>
      <trkpt lat="42.0182540" lon="-6.3081800">
        <ele>896.9</ele>
        <time>2019-08-16T08:35:22Z</time>
      </trkpt>
      <trkpt lat="42.0182700" lon="-6.3082460">
        <ele>897.0</ele>
        <time>2019-08-16T08:35:23Z</time>
      </trkpt>
      <trkpt lat="42.0182870" lon="-6.3083130">
        <ele>897.0</ele>
        <time>2019-08-16T08:35:24Z</time>
      </trkpt>
      <trkpt lat="42.0183050" lon="-6.3083810">
        <ele>897.0</ele>
        <time>2019-08-16T08:35:25Z</time>
      </trkpt>
      <trkpt lat="42.0183220" lon="-6.3084490">
        <ele>897.1</ele>
        <time>2019-08-16T08:35:26Z</time>
      </trkpt>
      <trkpt lat="42.0183390" lon="-6.3085160">
        <ele>897.1</ele>
        <time>2019-08-16T08:35:27Z</time>
      </trkpt>
      <trkpt lat="42.0183560" lon="-6.3085840">
        <ele>897.1</ele>
        <time>2019-08-16T08:35:28Z</time>
      </trkpt>
      <trkpt lat="42.0183730" lon="-6.3086520">
        <ele>897.1</ele>
        <time>2019-08-16T08:35:29Z</time>
      </trkpt>
      <trkpt lat="42.0183910" lon="-6.3087210">
        <ele>897.2</ele>
        <time>2019-08-16T08:35:30Z</time>
      </trkpt>
      <trkpt lat="42.0184080" lon="-6.3087900">
        <ele>897.2</ele>
        <time>2019-08-16T08:35:31Z</time>
      </trkpt>
      <trkpt lat="42.0184240" lon="-6.3088570">
        <ele>897.2</ele>
        <time>2019-08-16T08:35:32Z</time>
      </trkpt>
      <trkpt lat="42.0184400" lon="-6.3089200">
        <ele>897.2</ele>
        <time>2019-08-16T08:35:33Z</time>
      </trkpt>
      <trkpt lat="42.0184560" lon="-6.3089820">
        <ele>897.2</ele>
        <time>2019-08-16T08:35:34Z</time>
      </trkpt>
      <trkpt lat="42.0184720" lon="-6.3090460">
        <ele>897.3</ele>
        <time>2019-08-16T08:35:35Z</time>
      </trkpt>
      <trkpt lat="42.0184870" lon="-6.3091100">
        <ele>897.3</ele>
        <time>2019-08-16T08:35:36Z</time>
      </trkpt>
      <trkpt lat="42.0185040" lon="-6.3091740">
        <ele>897.3</ele>
        <time>2019-08-16T08:35:37Z</time>
      </trkpt>
      <trkpt lat="42.0185210" lon="-6.3092400">
        <ele>897.3</ele>
        <time>2019-08-16T08:35:38Z</time>
      </trkpt>
      <trkpt lat="42.0185370" lon="-6.3093070">
        <ele>897.3</ele>
        <time>2019-08-16T08:35:39Z</time>
      </trkpt>
      <trkpt lat="42.0185530" lon="-6.3093750">
        <ele>897.3</ele>
        <time>2019-08-16T08:35:40Z</time>
      </trkpt>
      <trkpt lat="42.0185700" lon="-6.3094430">
        <ele>897.3</ele>
        <time>2019-08-16T08:35:41Z</time>
      </trkpt>
      <trkpt lat="42.0185870" lon="-6.3095110">
        <ele>897.3</ele>
        <time>2019-08-16T08:35:42Z</time>
      </trkpt>
      <trkpt lat="42.0186040" lon="-6.3095790">
        <ele>897.3</ele>
        <time>2019-08-16T08:35:43Z</time>
      </trkpt>
      <trkpt lat="42.0186220" lon="-6.3096480">
        <ele>897.4</ele>
        <time>2019-08-16T08:35:44Z</time>
      </trkpt>
      <trkpt lat="42.0186380" lon="-6.3097170">
        <ele>897.5</ele>
        <time>2019-08-16T08:35:45Z</time>
      </trkpt>
      <trkpt lat="42.0186560" lon="-6.3097850">
        <ele>897.6</ele>
        <time>2019-08-16T08:35:46Z</time>
      </trkpt>
      <trkpt lat="42.0186730" lon="-6.3098500">
        <ele>897.7</ele>
        <time>2019-08-16T08:35:47Z</time>
      </trkpt>
      <trkpt lat="42.0186890" lon="-6.3099110">
        <ele>897.7</ele>
        <time>2019-08-16T08:35:48Z</time>
      </trkpt>
      <trkpt lat="42.0187040" lon="-6.3099730">
        <ele>897.8</ele>
        <time>2019-08-16T08:35:49Z</time>
      </trkpt>
      <trkpt lat="42.0187200" lon="-6.3100350">
        <ele>897.9</ele>
        <time>2019-08-16T08:35:50Z</time>
      </trkpt>
      <trkpt lat="42.0187360" lon="-6.3100980">
        <ele>898.0</ele>
        <time>2019-08-16T08:35:51Z</time>
      </trkpt>
      <trkpt lat="42.0187520" lon="-6.3101630">
        <ele>898.1</ele>
        <time>2019-08-16T08:35:52Z</time>
      </trkpt>
      <trkpt lat="42.0187690" lon="-6.3102280">
        <ele>898.2</ele>
        <time>2019-08-16T08:35:53Z</time>
      </trkpt>
      <trkpt lat="42.0187860" lon="-6.3102940">
        <ele>898.2</ele>
        <time>2019-08-16T08:35:54Z</time>
      </trkpt>
      <trkpt lat="42.0188020" lon="-6.3103610">
        <ele>898.3</ele>
        <time>2019-08-16T08:35:55Z</time>
      </trkpt>
      <trkpt lat="42.0188190" lon="-6.3104280">
        <ele>898.4</ele>
        <time>2019-08-16T08:35:56Z</time>
      </trkpt>
      <trkpt lat="42.0188350" lon="-6.3104950">
        <ele>898.5</ele>
        <time>2019-08-16T08:35:57Z</time>
      </trkpt>
      <trkpt lat="42.0188510" lon="-6.3105610">
        <ele>898.6</ele>
        <time>2019-08-16T08:35:58Z</time>
      </trkpt>
      <trkpt lat="42.0188670" lon="-6.3106260">
        <ele>898.6</ele>
        <time>2019-08-16T08:35:59Z</time>
      </trkpt>
      <trkpt lat="42.0188830" lon="-6.3106920">
        <ele>898.7</ele>
        <time>2019-08-16T08:36:00Z</time>
      </trkpt>
      <trkpt lat="42.0188990" lon="-6.3107560">
        <ele>898.8</ele>
        <time>2019-08-16T08:36:01Z</time>
      </trkpt>
      <trkpt lat="42.0189150" lon="-6.3108150">
        <ele>898.9</ele>
        <time>2019-08-16T08:36:02Z</time>
      </trkpt>
      <trkpt lat="42.0189290" lon="-6.3108740">
        <ele>898.9</ele>
        <time>2019-08-16T08:36:03Z</time>
      </trkpt>
      <trkpt lat="42.0189440" lon="-6.3109340">
        <ele>899.0</ele>
        <time>2019-08-16T08:36:04Z</time>
      </trkpt>
      <trkpt lat="42.0189600" lon="-6.3109960">
        <ele>899.1</ele>
        <time>2019-08-16T08:36:05Z</time>
      </trkpt>
      <trkpt lat="42.0189760" lon="-6.3110620">
        <ele>899.2</ele>
        <time>2019-08-16T08:36:06Z</time>
      </trkpt>
      <trkpt lat="42.0189920" lon="-6.3111280">
        <ele>899.4</ele>
        <time>2019-08-16T08:36:07Z</time>
      </trkpt>
      <trkpt lat="42.0190090" lon="-6.3111950">
        <ele>899.5</ele>
        <time>2019-08-16T08:36:08Z</time>
      </trkpt>
      <trkpt lat="42.0190250" lon="-6.3112610">
        <ele>899.6</ele>
        <time>2019-08-16T08:36:09Z</time>
      </trkpt>
      <trkpt lat="42.0190420" lon="-6.3113280">
        <ele>899.8</ele>
        <time>2019-08-16T08:36:10Z</time>
      </trkpt>
      <trkpt lat="42.0190580" lon="-6.3113930">
        <ele>899.9</ele>
        <time>2019-08-16T08:36:11Z</time>
      </trkpt>
      <trkpt lat="42.0190740" lon="-6.3114570">
        <ele>900.1</ele>
        <time>2019-08-16T08:36:12Z</time>
      </trkpt>
      <trkpt lat="42.0190890" lon="-6.3115200">
        <ele>900.2</ele>
        <time>2019-08-16T08:36:13Z</time>
      </trkpt>
      <trkpt lat="42.0191040" lon="-6.3115830">
        <ele>900.2</ele>
        <time>2019-08-16T08:36:14Z</time>
      </trkpt>
      <trkpt lat="42.0191200" lon="-6.3116460">
        <ele>900.3</ele>
        <time>2019-08-16T08:36:15Z</time>
      </trkpt>
      <trkpt lat="42.0191360" lon="-6.3117110">
        <ele>900.4</ele>
        <time>2019-08-16T08:36:16Z</time>
      </trkpt>
      <trkpt lat="42.0191520" lon="-6.3117750">
        <ele>900.4</ele>
        <time>2019-08-16T08:36:17Z</time>
      </trkpt>
      <trkpt lat="42.0191680" lon="-6.3118390">
        <ele>900.4</ele>
        <time>2019-08-16T08:36:18Z</time>
      </trkpt>
      <trkpt lat="42.0191840" lon="-6.3119020">
        <ele>900.5</ele>
        <time>2019-08-16T08:36:19Z</time>
      </trkpt>
      <trkpt lat="42.0191990" lon="-6.3119620">
        <ele>900.5</ele>
        <time>2019-08-16T08:36:20Z</time>
      </trkpt>
      <trkpt lat="42.0192160" lon="-6.3120230">
        <ele>900.5</ele>
        <time>2019-08-16T08:36:21Z</time>
      </trkpt>
      <trkpt lat="42.0192330" lon="-6.3120860">
        <ele>900.6</ele>
        <time>2019-08-16T08:36:22Z</time>
      </trkpt>
      <trkpt lat="42.0192500" lon="-6.3121500">
        <ele>900.6</ele>
        <time>2019-08-16T08:36:23Z</time>
      </trkpt>
      <trkpt lat="42.0192660" lon="-6.3122150">
        <ele>900.7</ele>
        <time>2019-08-16T08:36:24Z</time>
      </trkpt>
      <trkpt lat="42.0192820" lon="-6.3122800">
        <ele>900.7</ele>
        <time>2019-08-16T08:36:25Z</time>
      </trkpt>
      <trkpt lat="42.0192990" lon="-6.3123460">
        <ele>900.8</ele>
        <time>2019-08-16T08:36:26Z</time>
      </trkpt>
      <trkpt lat="42.0193160" lon="-6.3124130">
        <ele>900.8</ele>
        <time>2019-08-16T08:36:27Z</time>
      </trkpt>
      <trkpt lat="42.0193310" lon="-6.3124790">
        <ele>900.8</ele>
        <time>2019-08-16T08:36:28Z</time>
      </trkpt>
      <trkpt lat="42.0193470" lon="-6.3125440">
        <ele>900.9</ele>
        <time>2019-08-16T08:36:29Z</time>
      </trkpt>
      <trkpt lat="42.0193620" lon="-6.3126090">
        <ele>900.9</ele>
        <time>2019-08-16T08:36:30Z</time>
      </trkpt>
      <trkpt lat="42.0193780" lon="-6.3126750">
        <ele>901.0</ele>
        <time>2019-08-16T08:36:31Z</time>
      </trkpt>
      <trkpt lat="42.0193940" lon="-6.3127410">
        <ele>901.0</ele>
        <time>2019-08-16T08:36:32Z</time>
      </trkpt>
      <trkpt lat="42.0194110" lon="-6.3128080">
        <ele>901.0</ele>
        <time>2019-08-16T08:36:33Z</time>
      </trkpt>
      <trkpt lat="42.0194280" lon="-6.3128750">
        <ele>901.1</ele>
        <time>2019-08-16T08:36:34Z</time>
      </trkpt>
      <trkpt lat="42.0194440" lon="-6.3129410">
        <ele>901.1</ele>
        <time>2019-08-16T08:36:35Z</time>
      </trkpt>
      <trkpt lat="42.0194600" lon="-6.3130050">
        <ele>901.2</ele>
        <time>2019-08-16T08:36:36Z</time>
      </trkpt>
      <trkpt lat="42.0194760" lon="-6.3130670">
        <ele>901.2</ele>
        <time>2019-08-16T08:36:37Z</time>
      </trkpt>
      <trkpt lat="42.0194930" lon="-6.3131320">
        <ele>901.2</ele>
        <time>2019-08-16T08:36:38Z</time>
      </trkpt>
      <trkpt lat="42.0195090" lon="-6.3131990">
        <ele>901.3</ele>
        <time>2019-08-16T08:36:39Z</time>
      </trkpt>
      <trkpt lat="42.0195260" lon="-6.3132660">
        <ele>901.3</ele>
        <time>2019-08-16T08:36:40Z</time>
      </trkpt>
      <trkpt lat="42.0195420" lon="-6.3133340">
        <ele>901.4</ele>
        <time>2019-08-16T08:36:41Z</time>
      </trkpt>
      <trkpt lat="42.0195590" lon="-6.3134030">
        <ele>901.4</ele>
        <time>2019-08-16T08:36:42Z</time>
      </trkpt>
      <trkpt lat="42.0195760" lon="-6.3134700">
        <ele>901.5</ele>
        <time>2019-08-16T08:36:43Z</time>
      </trkpt>
      <trkpt lat="42.0195920" lon="-6.3135380">
        <ele>901.5</ele>
        <time>2019-08-16T08:36:44Z</time>
      </trkpt>
      <trkpt lat="42.0196090" lon="-6.3136040">
        <ele>901.6</ele>
        <time>2019-08-16T08:36:45Z</time>
      </trkpt>
      <trkpt lat="42.0196250" lon="-6.3136700">
        <ele>901.6</ele>
        <time>2019-08-16T08:36:46Z</time>
      </trkpt>
      <trkpt lat="42.0196410" lon="-6.3137350">
        <ele>901.7</ele>
        <time>2019-08-16T08:36:47Z</time>
      </trkpt>
      <trkpt lat="42.0196550" lon="-6.3137970">
        <ele>901.7</ele>
        <time>2019-08-16T08:36:48Z</time>
      </trkpt>
      <trkpt lat="42.0196720" lon="-6.3138610">
        <ele>901.8</ele>
        <time>2019-08-16T08:36:49Z</time>
      </trkpt>
      <trkpt lat="42.0196880" lon="-6.3139250">
        <ele>901.8</ele>
        <time>2019-08-16T08:36:50Z</time>
      </trkpt>
      <trkpt lat="42.0197060" lon="-6.3139890">
        <ele>901.9</ele>
        <time>2019-08-16T08:36:51Z</time>
      </trkpt>
      <trkpt lat="42.0197230" lon="-6.3140540">
        <ele>901.9</ele>
        <time>2019-08-16T08:36:52Z</time>
      </trkpt>
      <trkpt lat="42.0197400" lon="-6.3141200">
        <ele>902.0</ele>
        <time>2019-08-16T08:36:53Z</time>
      </trkpt>
      <trkpt lat="42.0197560" lon="-6.3141860">
        <ele>902.1</ele>
        <time>2019-08-16T08:36:54Z</time>
      </trkpt>
      <trkpt lat="42.0197710" lon="-6.3142510">
        <ele>902.1</ele>
        <time>2019-08-16T08:36:55Z</time>
      </trkpt>
      <trkpt lat="42.0197870" lon="-6.3143140">
        <ele>902.2</ele>
        <time>2019-08-16T08:36:56Z</time>
      </trkpt>
      <trkpt lat="42.0198020" lon="-6.3143780">
        <ele>902.2</ele>
        <time>2019-08-16T08:36:57Z</time>
      </trkpt>
      <trkpt lat="42.0198190" lon="-6.3144430">
        <ele>902.3</ele>
        <time>2019-08-16T08:36:58Z</time>
      </trkpt>
      <trkpt lat="42.0198350" lon="-6.3145110">
        <ele>902.3</ele>
        <time>2019-08-16T08:36:59Z</time>
      </trkpt>
      <trkpt lat="42.0198510" lon="-6.3145770">
        <ele>902.4</ele>
        <time>2019-08-16T08:37:00Z</time>
      </trkpt>
      <trkpt lat="42.0198680" lon="-6.3146440">
        <ele>902.5</ele>
        <time>2019-08-16T08:37:01Z</time>
      </trkpt>
      <trkpt lat="42.0198840" lon="-6.3147100">
        <ele>902.5</ele>
        <time>2019-08-16T08:37:02Z</time>
      </trkpt>
      <trkpt lat="42.0199000" lon="-6.3147750">
        <ele>902.5</ele>
        <time>2019-08-16T08:37:03Z</time>
      </trkpt>
      <trkpt lat="42.0199170" lon="-6.3148410">
        <ele>902.6</ele>
        <time>2019-08-16T08:37:04Z</time>
      </trkpt>
      <trkpt lat="42.0199340" lon="-6.3149060">
        <ele>902.6</ele>
        <time>2019-08-16T08:37:05Z</time>
      </trkpt>
      <trkpt lat="42.0199520" lon="-6.3149720">
        <ele>902.6</ele>
        <time>2019-08-16T08:37:06Z</time>
      </trkpt>
      <trkpt lat="42.0199680" lon="-6.3150380">
        <ele>902.7</ele>
        <time>2019-08-16T08:37:07Z</time>
      </trkpt>
      <trkpt lat="42.0199850" lon="-6.3151030">
        <ele>902.7</ele>
        <time>2019-08-16T08:37:08Z</time>
      </trkpt>
      <trkpt lat="42.0200030" lon="-6.3151690">
        <ele>902.7</ele>
        <time>2019-08-16T08:37:09Z</time>
      </trkpt>
      <trkpt lat="42.0200200" lon="-6.3152320">
        <ele>902.8</ele>
        <time>2019-08-16T08:37:10Z</time>
      </trkpt>
      <trkpt lat="42.0200350" lon="-6.3152950">
        <ele>902.8</ele>
        <time>2019-08-16T08:37:11Z</time>
      </trkpt>
      <trkpt lat="42.0200520" lon="-6.3153600">
        <ele>902.9</ele>
        <time>2019-08-16T08:37:12Z</time>
      </trkpt>
      <trkpt lat="42.0200690" lon="-6.3154240">
        <ele>902.9</ele>
        <time>2019-08-16T08:37:13Z</time>
      </trkpt>
      <trkpt lat="42.0200860" lon="-6.3154900">
        <ele>903.0</ele>
        <time>2019-08-16T08:37:14Z</time>
      </trkpt>
      <trkpt lat="42.0201020" lon="-6.3155570">
        <ele>903.0</ele>
        <time>2019-08-16T08:37:15Z</time>
      </trkpt>
      <trkpt lat="42.0201180" lon="-6.3156230">
        <ele>903.1</ele>
        <time>2019-08-16T08:37:16Z</time>
      </trkpt>
      <trkpt lat="42.0201340" lon="-6.3156880">
        <ele>903.1</ele>
        <time>2019-08-16T08:37:17Z</time>
      </trkpt>
      <trkpt lat="42.0201520" lon="-6.3157510">
        <ele>903.1</ele>
        <time>2019-08-16T08:37:18Z</time>
      </trkpt>
      <trkpt lat="42.0201690" lon="-6.3158150">
        <ele>903.2</ele>
        <time>2019-08-16T08:37:19Z</time>
      </trkpt>
      <trkpt lat="42.0201850" lon="-6.3158790">
        <ele>903.2</ele>
        <time>2019-08-16T08:37:20Z</time>
      </trkpt>
      <trkpt lat="42.0202010" lon="-6.3159430">
        <ele>903.3</ele>
        <time>2019-08-16T08:37:21Z</time>
      </trkpt>
      <trkpt lat="42.0202190" lon="-6.3160070">
        <ele>903.3</ele>
        <time>2019-08-16T08:37:22Z</time>
      </trkpt>
      <trkpt lat="42.0202380" lon="-6.3160730">
        <ele>903.4</ele>
        <time>2019-08-16T08:37:23Z</time>
      </trkpt>
      <trkpt lat="42.0202550" lon="-6.3161370">
        <ele>903.5</ele>
        <time>2019-08-16T08:37:24Z</time>
      </trkpt>
      <trkpt lat="42.0202720" lon="-6.3162010">
        <ele>903.5</ele>
        <time>2019-08-16T08:37:25Z</time>
      </trkpt>
      <trkpt lat="42.0202890" lon="-6.3162630">
        <ele>903.6</ele>
        <time>2019-08-16T08:37:26Z</time>
      </trkpt>
      <trkpt lat="42.0203050" lon="-6.3163230">
        <ele>903.7</ele>
        <time>2019-08-16T08:37:27Z</time>
      </trkpt>
      <trkpt lat="42.0203200" lon="-6.3163840">
        <ele>903.8</ele>
        <time>2019-08-16T08:37:28Z</time>
      </trkpt>
      <trkpt lat="42.0203330" lon="-6.3164470">
        <ele>903.9</ele>
        <time>2019-08-16T08:37:29Z</time>
      </trkpt>
      <trkpt lat="42.0203470" lon="-6.3165090">
        <ele>904.0</ele>
        <time>2019-08-16T08:37:30Z</time>
      </trkpt>
      <trkpt lat="42.0203630" lon="-6.3165720">
        <ele>904.1</ele>
        <time>2019-08-16T08:37:31Z</time>
      </trkpt>
      <trkpt lat="42.0203800" lon="-6.3166340">
        <ele>904.2</ele>
        <time>2019-08-16T08:37:32Z</time>
      </trkpt>
      <trkpt lat="42.0203960" lon="-6.3166930">
        <ele>904.2</ele>
        <time>2019-08-16T08:37:33Z</time>
      </trkpt>
      <trkpt lat="42.0204110" lon="-6.3167530">
        <ele>904.3</ele>
        <time>2019-08-16T08:37:34Z</time>
      </trkpt>
      <trkpt lat="42.0204260" lon="-6.3168100">
        <ele>904.4</ele>
        <time>2019-08-16T08:37:35Z</time>
      </trkpt>
      <trkpt lat="42.0204400" lon="-6.3168640">
        <ele>904.5</ele>
        <time>2019-08-16T08:37:36Z</time>
      </trkpt>
      <trkpt lat="42.0204540" lon="-6.3169170">
        <ele>904.6</ele>
        <time>2019-08-16T08:37:37Z</time>
      </trkpt>
      <trkpt lat="42.0204650" lon="-6.3169700">
        <ele>904.7</ele>
        <time>2019-08-16T08:37:38Z</time>
      </trkpt>
      <trkpt lat="42.0204770" lon="-6.3170250">
        <ele>904.8</ele>
        <time>2019-08-16T08:37:39Z</time>
      </trkpt>
      <trkpt lat="42.0204900" lon="-6.3170800">
        <ele>904.9</ele>
        <time>2019-08-16T08:37:40Z</time>
      </trkpt>
      <trkpt lat="42.0205040" lon="-6.3171340">
        <ele>905.0</ele>
        <time>2019-08-16T08:37:41Z</time>
      </trkpt>
      <trkpt lat="42.0205200" lon="-6.3171890">
        <ele>905.2</ele>
        <time>2019-08-16T08:37:42Z</time>
      </trkpt>
      <trkpt lat="42.0205340" lon="-6.3172440">
        <ele>905.2</ele>
        <time>2019-08-16T08:37:43Z</time>
      </trkpt>
      <trkpt lat="42.0205470" lon="-6.3172990">
        <ele>905.2</ele>
        <time>2019-08-16T08:37:44Z</time>
      </trkpt>
      <trkpt lat="42.0205600" lon="-6.3173540">
        <ele>905.3</ele>
        <time>2019-08-16T08:37:45Z</time>
      </trkpt>
      <trkpt lat="42.0205730" lon="-6.3174070">
        <ele>905.3</ele>
        <time>2019-08-16T08:37:46Z</time>
      </trkpt>
      <trkpt lat="42.0205850" lon="-6.3174610">
        <ele>905.4</ele>
        <time>2019-08-16T08:37:47Z</time>
      </trkpt>
      <trkpt lat="42.0205980" lon="-6.3175120">
        <ele>905.4</ele>
        <time>2019-08-16T08:37:48Z</time>
      </trkpt>
      <trkpt lat="42.0206090" lon="-6.3175590">
        <ele>905.4</ele>
        <time>2019-08-16T08:37:49Z</time>
      </trkpt>
      <trkpt lat="42.0206210" lon="-6.3176060">
        <ele>905.4</ele>
        <time>2019-08-16T08:37:50Z</time>
      </trkpt>
      <trkpt lat="42.0206320" lon="-6.3176560">
        <ele>905.4</ele>
        <time>2019-08-16T08:37:51Z</time>
      </trkpt>
      <trkpt lat="42.0206450" lon="-6.3177070">
        <ele>905.5</ele>
        <time>2019-08-16T08:37:52Z</time>
      </trkpt>
      <trkpt lat="42.0206580" lon="-6.3177590">
        <ele>905.5</ele>
        <time>2019-08-16T08:37:53Z</time>
      </trkpt>
      <trkpt lat="42.0206700" lon="-6.3178130">
        <ele>905.5</ele>
        <time>2019-08-16T08:37:54Z</time>
      </trkpt>
      <trkpt lat="42.0206830" lon="-6.3178680">
        <ele>905.6</ele>
        <time>2019-08-16T08:37:55Z</time>
      </trkpt>
      <trkpt lat="42.0206980" lon="-6.3179210">
        <ele>905.6</ele>
        <time>2019-08-16T08:37:56Z</time>
      </trkpt>
      <trkpt lat="42.0207120" lon="-6.3179770">
        <ele>905.6</ele>
        <time>2019-08-16T08:37:57Z</time>
      </trkpt>
      <trkpt lat="42.0207270" lon="-6.3180310">
        <ele>905.7</ele>
        <time>2019-08-16T08:37:58Z</time>
      </trkpt>
      <trkpt lat="42.0207400" lon="-6.3180850">
        <ele>905.7</ele>
        <time>2019-08-16T08:37:59Z</time>
      </trkpt>
      <trkpt lat="42.0207540" lon="-6.3181390">
        <ele>905.8</ele>
        <time>2019-08-16T08:38:00Z</time>
      </trkpt>
      <trkpt lat="42.0207680" lon="-6.3181930">
        <ele>905.9</ele>
        <time>2019-08-16T08:38:01Z</time>
      </trkpt>
      <trkpt lat="42.0207820" lon="-6.3182480">
        <ele>905.9</ele>
        <time>2019-08-16T08:38:02Z</time>
      </trkpt>
      <trkpt lat="42.0207950" lon="-6.3183020">
        <ele>906.0</ele>
        <time>2019-08-16T08:38:03Z</time>
      </trkpt>
      <trkpt lat="42.0208080" lon="-6.3183560">
        <ele>906.1</ele>
        <time>2019-08-16T08:38:04Z</time>
      </trkpt>
      <trkpt lat="42.0208210" lon="-6.3184090">
        <ele>906.2</ele>
        <time>2019-08-16T08:38:05Z</time>
      </trkpt>
      <trkpt lat="42.0208340" lon="-6.3184640">
        <ele>906.2</ele>
        <time>2019-08-16T08:38:06Z</time>
      </trkpt>
      <trkpt lat="42.0208460" lon="-6.3185190">
        <ele>906.3</ele>
        <time>2019-08-16T08:38:07Z</time>
      </trkpt>
      <trkpt lat="42.0208610" lon="-6.3185730">
        <ele>906.4</ele>
        <time>2019-08-16T08:38:08Z</time>
      </trkpt>
      <trkpt lat="42.0208750" lon="-6.3186270">
        <ele>906.4</ele>
        <time>2019-08-16T08:38:09Z</time>
      </trkpt>
      <trkpt lat="42.0208870" lon="-6.3186820">
        <ele>906.5</ele>
        <time>2019-08-16T08:38:10Z</time>
      </trkpt>
      <trkpt lat="42.0209010" lon="-6.3187370">
        <ele>906.5</ele>
        <time>2019-08-16T08:38:11Z</time>
      </trkpt>
      <trkpt lat="42.0209140" lon="-6.3187920">
        <ele>906.5</ele>
        <time>2019-08-16T08:38:12Z</time>
      </trkpt>
      <trkpt lat="42.0209280" lon="-6.3188470">
        <ele>906.5</ele>
        <time>2019-08-16T08:38:13Z</time>
      </trkpt>
      <trkpt lat="42.0209420" lon="-6.3189020">
        <ele>906.6</ele>
        <time>2019-08-16T08:38:14Z</time>
      </trkpt>
      <trkpt lat="42.0209560" lon="-6.3189570">
        <ele>906.6</ele>
        <time>2019-08-16T08:38:15Z</time>
      </trkpt>
      <trkpt lat="42.0209710" lon="-6.3190110">
        <ele>906.6</ele>
        <time>2019-08-16T08:38:16Z</time>
      </trkpt>
      <trkpt lat="42.0209850" lon="-6.3190660">
        <ele>906.7</ele>
        <time>2019-08-16T08:38:17Z</time>
      </trkpt>
      <trkpt lat="42.0210010" lon="-6.3191220">
        <ele>906.7</ele>
        <time>2019-08-16T08:38:18Z</time>
      </trkpt>
      <trkpt lat="42.0210160" lon="-6.3191780">
        <ele>906.8</ele>
        <time>2019-08-16T08:38:19Z</time>
      </trkpt>
      <trkpt lat="42.0210300" lon="-6.3192350">
        <ele>906.9</ele>
        <time>2019-08-16T08:38:20Z</time>
      </trkpt>
      <trkpt lat="42.0210450" lon="-6.3192940">
        <ele>906.9</ele>
        <time>2019-08-16T08:38:21Z</time>
      </trkpt>
      <trkpt lat="42.0210580" lon="-6.3193530">
        <ele>907.0</ele>
        <time>2019-08-16T08:38:22Z</time>
      </trkpt>
      <trkpt lat="42.0210720" lon="-6.3194130">
        <ele>907.1</ele>
        <time>2019-08-16T08:38:23Z</time>
      </trkpt>
      <trkpt lat="42.0210860" lon="-6.3194720">
        <ele>907.2</ele>
        <time>2019-08-16T08:38:24Z</time>
      </trkpt>
      <trkpt lat="42.0211010" lon="-6.3195320">
        <ele>907.3</ele>
        <time>2019-08-16T08:38:25Z</time>
      </trkpt>
      <trkpt lat="42.0211150" lon="-6.3195940">
        <ele>907.5</ele>
        <time>2019-08-16T08:38:26Z</time>
      </trkpt>
      <trkpt lat="42.0211290" lon="-6.3196550">
        <ele>907.6</ele>
        <time>2019-08-16T08:38:27Z</time>
      </trkpt>
      <trkpt lat="42.0211440" lon="-6.3197140">
        <ele>907.8</ele>
        <time>2019-08-16T08:38:28Z</time>
      </trkpt>
      <trkpt lat="42.0211600" lon="-6.3197710">
        <ele>907.9</ele>
        <time>2019-08-16T08:38:29Z</time>
      </trkpt>
      <trkpt lat="42.0211750" lon="-6.3198320">
        <ele>908.0</ele>
        <time>2019-08-16T08:38:30Z</time>
      </trkpt>
      <trkpt lat="42.0211900" lon="-6.3198950">
        <ele>908.2</ele>
        <time>2019-08-16T08:38:31Z</time>
      </trkpt>
      <trkpt lat="42.0212070" lon="-6.3199590">
        <ele>908.3</ele>
        <time>2019-08-16T08:38:32Z</time>
      </trkpt>
      <trkpt lat="42.0212230" lon="-6.3200220">
        <ele>908.4</ele>
        <time>2019-08-16T08:38:33Z</time>
      </trkpt>
      <trkpt lat="42.0212400" lon="-6.3200840">
        <ele>908.4</ele>
        <time>2019-08-16T08:38:34Z</time>
      </trkpt>
      <trkpt lat="42.0212550" lon="-6.3201450">
        <ele>908.5</ele>
        <time>2019-08-16T08:38:35Z</time>
      </trkpt>
      <trkpt lat="42.0212700" lon="-6.3202080">
        <ele>908.5</ele>
        <time>2019-08-16T08:38:36Z</time>
      </trkpt>
      <trkpt lat="42.0212860" lon="-6.3202730">
        <ele>908.6</ele>
        <time>2019-08-16T08:38:37Z</time>
      </trkpt>
      <trkpt lat="42.0213030" lon="-6.3203400">
        <ele>908.6</ele>
        <time>2019-08-16T08:38:38Z</time>
      </trkpt>
      <trkpt lat="42.0213190" lon="-6.3204080">
        <ele>908.7</ele>
        <time>2019-08-16T08:38:39Z</time>
      </trkpt>
      <trkpt lat="42.0213360" lon="-6.3204760">
        <ele>908.7</ele>
        <time>2019-08-16T08:38:40Z</time>
      </trkpt>
      <trkpt lat="42.0213520" lon="-6.3205430">
        <ele>908.7</ele>
        <time>2019-08-16T08:38:41Z</time>
      </trkpt>
      <trkpt lat="42.0213670" lon="-6.3206070">
        <ele>908.7</ele>
        <time>2019-08-16T08:38:42Z</time>
      </trkpt>
      <trkpt lat="42.0213830" lon="-6.3206710">
        <ele>908.6</ele>
        <time>2019-08-16T08:38:43Z</time>
      </trkpt>
      <trkpt lat="42.0213980" lon="-6.3207330">
        <ele>908.6</ele>
        <time>2019-08-16T08:38:44Z</time>
      </trkpt>
      <trkpt lat="42.0214120" lon="-6.3207940">
        <ele>908.6</ele>
        <time>2019-08-16T08:38:45Z</time>
      </trkpt>
      <trkpt lat="42.0214290" lon="-6.3208560">
        <ele>908.5</ele>
        <time>2019-08-16T08:38:46Z</time>
      </trkpt>
      <trkpt lat="42.0214460" lon="-6.3209210">
        <ele>908.5</ele>
        <time>2019-08-16T08:38:47Z</time>
      </trkpt>
      <trkpt lat="42.0214630" lon="-6.3209890">
        <ele>908.4</ele>
        <time>2019-08-16T08:38:48Z</time>
      </trkpt>
      <trkpt lat="42.0214820" lon="-6.3210610">
        <ele>908.3</ele>
        <time>2019-08-16T08:38:49Z</time>
      </trkpt>
      <trkpt lat="42.0215010" lon="-6.3211350">
        <ele>908.2</ele>
        <time>2019-08-16T08:38:50Z</time>
      </trkpt>
      <trkpt lat="42.0215180" lon="-6.3212090">
        <ele>908.1</ele>
        <time>2019-08-16T08:38:51Z</time>
      </trkpt>
      <trkpt lat="42.0215350" lon="-6.3212840">
        <ele>908.0</ele>
        <time>2019-08-16T08:38:52Z</time>
      </trkpt>
      <trkpt lat="42.0215540" lon="-6.3213570">
        <ele>907.9</ele>
        <time>2019-08-16T08:38:53Z</time>
      </trkpt>
      <trkpt lat="42.0215720" lon="-6.3214310">
        <ele>907.8</ele>
        <time>2019-08-16T08:38:54Z</time>
      </trkpt>
      <trkpt lat="42.0215900" lon="-6.3215030">
        <ele>907.7</ele>
        <time>2019-08-16T08:38:55Z</time>
      </trkpt>
      <trkpt lat="42.0216070" lon="-6.3215750">
        <ele>907.5</ele>
        <time>2019-08-16T08:38:56Z</time>
      </trkpt>
      <trkpt lat="42.0216260" lon="-6.3216470">
        <ele>907.4</ele>
        <time>2019-08-16T08:38:57Z</time>
      </trkpt>
      <trkpt lat="42.0216440" lon="-6.3217180">
        <ele>907.3</ele>
        <time>2019-08-16T08:38:58Z</time>
      </trkpt>
      <trkpt lat="42.0216630" lon="-6.3217880">
        <ele>907.2</ele>
        <time>2019-08-16T08:38:59Z</time>
      </trkpt>
      <trkpt lat="42.0216810" lon="-6.3218570">
        <ele>907.1</ele>
        <time>2019-08-16T08:39:00Z</time>
      </trkpt>
      <trkpt lat="42.0216990" lon="-6.3219270">
        <ele>907.0</ele>
        <time>2019-08-16T08:39:01Z</time>
      </trkpt>
      <trkpt lat="42.0217190" lon="-6.3220000">
        <ele>907.0</ele>
        <time>2019-08-16T08:39:02Z</time>
      </trkpt>
      <trkpt lat="42.0217370" lon="-6.3220730">
        <ele>906.9</ele>
        <time>2019-08-16T08:39:03Z</time>
      </trkpt>
      <trkpt lat="42.0217560" lon="-6.3221460">
        <ele>906.8</ele>
        <time>2019-08-16T08:39:04Z</time>
      </trkpt>
      <trkpt lat="42.0217730" lon="-6.3222180">
        <ele>906.8</ele>
        <time>2019-08-16T08:39:05Z</time>
      </trkpt>
      <trkpt lat="42.0217900" lon="-6.3222910">
        <ele>906.7</ele>
        <time>2019-08-16T08:39:06Z</time>
      </trkpt>
      <trkpt lat="42.0218080" lon="-6.3223630">
        <ele>906.6</ele>
        <time>2019-08-16T08:39:07Z</time>
      </trkpt>
      <trkpt lat="42.0218260" lon="-6.3224330">
        <ele>906.6</ele>
        <time>2019-08-16T08:39:08Z</time>
      </trkpt>
      <trkpt lat="42.0218430" lon="-6.3225040">
        <ele>906.5</ele>
        <time>2019-08-16T08:39:09Z</time>
      </trkpt>
      <trkpt lat="42.0218610" lon="-6.3225750">
        <ele>906.5</ele>
        <time>2019-08-16T08:39:10Z</time>
      </trkpt>
      <trkpt lat="42.0218800" lon="-6.3226450">
        <ele>906.5</ele>
        <time>2019-08-16T08:39:11Z</time>
      </trkpt>
      <trkpt lat="42.0218980" lon="-6.3227140">
        <ele>906.4</ele>
        <time>2019-08-16T08:39:12Z</time>
      </trkpt>
      <trkpt lat="42.0219150" lon="-6.3227850">
        <ele>906.4</ele>
        <time>2019-08-16T08:39:13Z</time>
      </trkpt>
      <trkpt lat="42.0219330" lon="-6.3228590">
        <ele>906.3</ele>
        <time>2019-08-16T08:39:14Z</time>
      </trkpt>
      <trkpt lat="42.0219510" lon="-6.3229340">
        <ele>906.3</ele>
        <time>2019-08-16T08:39:15Z</time>
      </trkpt>
      <trkpt lat="42.0219690" lon="-6.3230100">
        <ele>906.2</ele>
        <time>2019-08-16T08:39:16Z</time>
      </trkpt>
      <trkpt lat="42.0219870" lon="-6.3230820">
        <ele>906.1</ele>
        <time>2019-08-16T08:39:17Z</time>
      </trkpt>
      <trkpt lat="42.0220060" lon="-6.3231530">
        <ele>906.0</ele>
        <time>2019-08-16T08:39:18Z</time>
      </trkpt>
      <trkpt lat="42.0220230" lon="-6.3232260">
        <ele>905.9</ele>
        <time>2019-08-16T08:39:19Z</time>
      </trkpt>
      <trkpt lat="42.0220420" lon="-6.3233000">
        <ele>905.8</ele>
        <time>2019-08-16T08:39:20Z</time>
      </trkpt>
      <trkpt lat="42.0220620" lon="-6.3233720">
        <ele>905.7</ele>
        <time>2019-08-16T08:39:21Z</time>
      </trkpt>
      <trkpt lat="42.0220810" lon="-6.3234450">
        <ele>905.7</ele>
        <time>2019-08-16T08:39:22Z</time>
      </trkpt>
      <trkpt lat="42.0221000" lon="-6.3235150">
        <ele>905.6</ele>
        <time>2019-08-16T08:39:23Z</time>
      </trkpt>
      <trkpt lat="42.0221200" lon="-6.3235870">
        <ele>905.6</ele>
        <time>2019-08-16T08:39:24Z</time>
      </trkpt>
      <trkpt lat="42.0221390" lon="-6.3236580">
        <ele>905.6</ele>
        <time>2019-08-16T08:39:25Z</time>
      </trkpt>
      <trkpt lat="42.0221570" lon="-6.3237300">
        <ele>905.5</ele>
        <time>2019-08-16T08:39:26Z</time>
      </trkpt>
      <trkpt lat="42.0221750" lon="-6.3238010">
        <ele>905.5</ele>
        <time>2019-08-16T08:39:27Z</time>
      </trkpt>
      <trkpt lat="42.0221950" lon="-6.3238720">
        <ele>905.5</ele>
        <time>2019-08-16T08:39:28Z</time>
      </trkpt>
      <trkpt lat="42.0222130" lon="-6.3239450">
        <ele>905.5</ele>
        <time>2019-08-16T08:39:29Z</time>
      </trkpt>
      <trkpt lat="42.0222300" lon="-6.3240180">
        <ele>905.4</ele>
        <time>2019-08-16T08:39:30Z</time>
      </trkpt>
      <trkpt lat="42.0222470" lon="-6.3240900">
        <ele>905.4</ele>
        <time>2019-08-16T08:39:31Z</time>
      </trkpt>
      <trkpt lat="42.0222650" lon="-6.3241630">
        <ele>905.4</ele>
        <time>2019-08-16T08:39:32Z</time>
      </trkpt>
      <trkpt lat="42.0222830" lon="-6.3242360">
        <ele>905.4</ele>
        <time>2019-08-16T08:39:33Z</time>
      </trkpt>
      <trkpt lat="42.0223020" lon="-6.3243100">
        <ele>905.4</ele>
        <time>2019-08-16T08:39:34Z</time>
      </trkpt>
      <trkpt lat="42.0223210" lon="-6.3243820">
        <ele>905.3</ele>
        <time>2019-08-16T08:39:35Z</time>
      </trkpt>
      <trkpt lat="42.0223380" lon="-6.3244540">
        <ele>905.3</ele>
        <time>2019-08-16T08:39:36Z</time>
      </trkpt>
      <trkpt lat="42.0223540" lon="-6.3245280">
        <ele>905.3</ele>
        <time>2019-08-16T08:39:37Z</time>
      </trkpt>
      <trkpt lat="42.0223710" lon="-6.3246010">
        <ele>905.2</ele>
        <time>2019-08-16T08:39:38Z</time>
      </trkpt>
      <trkpt lat="42.0223900" lon="-6.3246740">
        <ele>905.2</ele>
        <time>2019-08-16T08:39:39Z</time>
      </trkpt>
      <trkpt lat="42.0224080" lon="-6.3247470">
        <ele>905.1</ele>
        <time>2019-08-16T08:39:40Z</time>
      </trkpt>
      <trkpt lat="42.0224270" lon="-6.3248180">
        <ele>905.0</ele>
        <time>2019-08-16T08:39:41Z</time>
      </trkpt>
      <trkpt lat="42.0224460" lon="-6.3248890">
        <ele>904.9</ele>
        <time>2019-08-16T08:39:42Z</time>
      </trkpt>
      <trkpt lat="42.0224660" lon="-6.3249570">
        <ele>904.9</ele>
        <time>2019-08-16T08:39:43Z</time>
      </trkpt>
      <trkpt lat="42.0224850" lon="-6.3250250">
        <ele>904.8</ele>
        <time>2019-08-16T08:39:44Z</time>
      </trkpt>
      <trkpt lat="42.0225020" lon="-6.3250960">
        <ele>904.7</ele>
        <time>2019-08-16T08:39:45Z</time>
      </trkpt>
      <trkpt lat="42.0225200" lon="-6.3251650">
        <ele>904.6</ele>
        <time>2019-08-16T08:39:46Z</time>
      </trkpt>
      <trkpt lat="42.0225400" lon="-6.3252360">
        <ele>904.6</ele>
        <time>2019-08-16T08:39:47Z</time>
      </trkpt>
      <trkpt lat="42.0225590" lon="-6.3253060">
        <ele>904.5</ele>
        <time>2019-08-16T08:39:48Z</time>
      </trkpt>
      <trkpt lat="42.0225770" lon="-6.3253770">
        <ele>904.4</ele>
        <time>2019-08-16T08:39:49Z</time>
      </trkpt>
      <trkpt lat="42.0225950" lon="-6.3254470">
        <ele>904.3</ele>
        <time>2019-08-16T08:39:50Z</time>
      </trkpt>
      <trkpt lat="42.0226150" lon="-6.3255170">
        <ele>904.3</ele>
        <time>2019-08-16T08:39:51Z</time>
      </trkpt>
      <trkpt lat="42.0226350" lon="-6.3255900">
        <ele>904.2</ele>
        <time>2019-08-16T08:39:52Z</time>
      </trkpt>
      <trkpt lat="42.0226520" lon="-6.3256630">
        <ele>904.1</ele>
        <time>2019-08-16T08:39:53Z</time>
      </trkpt>
      <trkpt lat="42.0226680" lon="-6.3257360">
        <ele>904.0</ele>
        <time>2019-08-16T08:39:54Z</time>
      </trkpt>
      <trkpt lat="42.0226850" lon="-6.3258100">
        <ele>903.9</ele>
        <time>2019-08-16T08:39:55Z</time>
      </trkpt>
      <trkpt lat="42.0227030" lon="-6.3258820">
        <ele>903.8</ele>
        <time>2019-08-16T08:39:56Z</time>
      </trkpt>
      <trkpt lat="42.0227220" lon="-6.3259540">
        <ele>903.7</ele>
        <time>2019-08-16T08:39:57Z</time>
      </trkpt>
      <trkpt lat="42.0227400" lon="-6.3260260">
        <ele>903.6</ele>
        <time>2019-08-16T08:39:58Z</time>
      </trkpt>
      <trkpt lat="42.0227590" lon="-6.3260990">
        <ele>903.4</ele>
        <time>2019-08-16T08:39:59Z</time>
      </trkpt>
      <trkpt lat="42.0227770" lon="-6.3261730">
        <ele>903.3</ele>
        <time>2019-08-16T08:40:00Z</time>
      </trkpt>
      <trkpt lat="42.0227960" lon="-6.3262460">
        <ele>903.1</ele>
        <time>2019-08-16T08:40:01Z</time>
      </trkpt>
      <trkpt lat="42.0228150" lon="-6.3263190">
        <ele>903.0</ele>
        <time>2019-08-16T08:40:02Z</time>
      </trkpt>
      <trkpt lat="42.0228340" lon="-6.3263930">
        <ele>902.7</ele>
        <time>2019-08-16T08:40:03Z</time>
      </trkpt>
      <trkpt lat="42.0228520" lon="-6.3264700">
        <ele>902.6</ele>
        <time>2019-08-16T08:40:04Z</time>
      </trkpt>
      <trkpt lat="42.0228680" lon="-6.3265480">
        <ele>902.4</ele>
        <time>2019-08-16T08:40:05Z</time>
      </trkpt>
      <trkpt lat="42.0228840" lon="-6.3266270">
        <ele>902.3</ele>
        <time>2019-08-16T08:40:06Z</time>
      </trkpt>
      <trkpt lat="42.0229000" lon="-6.3267040">
        <ele>902.1</ele>
        <time>2019-08-16T08:40:07Z</time>
      </trkpt>
      <trkpt lat="42.0229160" lon="-6.3267800">
        <ele>902.0</ele>
        <time>2019-08-16T08:40:08Z</time>
      </trkpt>
      <trkpt lat="42.0229300" lon="-6.3268510">
        <ele>901.8</ele>
        <time>2019-08-16T08:40:09Z</time>
      </trkpt>
      <trkpt lat="42.0229400" lon="-6.3269090">
        <ele>901.7</ele>
        <time>2019-08-16T08:40:10Z</time>
      </trkpt>
      <trkpt lat="42.0229470" lon="-6.3269560">
        <ele>901.7</ele>
        <time>2019-08-16T08:40:11Z</time>
      </trkpt>
      <trkpt lat="42.0229540" lon="-6.3269950">
        <ele>901.6</ele>
        <time>2019-08-16T08:40:12Z</time>
      </trkpt>
      <trkpt lat="42.0229610" lon="-6.3270340">
        <ele>901.5</ele>
        <time>2019-08-16T08:40:13Z</time>
      </trkpt>
      <trkpt lat="42.0229720" lon="-6.3270740">
        <ele>901.5</ele>
        <time>2019-08-16T08:40:14Z</time>
      </trkpt>
      <trkpt lat="42.0229820" lon="-6.3271150">
        <ele>901.4</ele>
        <time>2019-08-16T08:40:15Z</time>
      </trkpt>
      <trkpt lat="42.0229900" lon="-6.3271590">
        <ele>901.3</ele>
        <time>2019-08-16T08:40:16Z</time>
      </trkpt>
      <trkpt lat="42.0229970" lon="-6.3272040">
        <ele>901.2</ele>
        <time>2019-08-16T08:40:17Z</time>
      </trkpt>
      <trkpt lat="42.0230040" lon="-6.3272500">
        <ele>901.1</ele>
        <time>2019-08-16T08:40:18Z</time>
      </trkpt>
      <trkpt lat="42.0230120" lon="-6.3272960">
        <ele>901.1</ele>
        <time>2019-08-16T08:40:19Z</time>
      </trkpt>
      <trkpt lat="42.0230210" lon="-6.3273440">
        <ele>901.0</ele>
        <time>2019-08-16T08:40:20Z</time>
      </trkpt>
      <trkpt lat="42.0230300" lon="-6.3273930">
        <ele>900.9</ele>
        <time>2019-08-16T08:40:21Z</time>
      </trkpt>
      <trkpt lat="42.0230360" lon="-6.3274440">
        <ele>900.8</ele>
        <time>2019-08-16T08:40:22Z</time>
      </trkpt>
      <trkpt lat="42.0230410" lon="-6.3274970">
        <ele>900.8</ele>
        <time>2019-08-16T08:40:23Z</time>
      </trkpt>
      <trkpt lat="42.0230460" lon="-6.3275530">
        <ele>900.7</ele>
        <time>2019-08-16T08:40:24Z</time>
      </trkpt>
      <trkpt lat="42.0230510" lon="-6.3276090">
        <ele>900.6</ele>
        <time>2019-08-16T08:40:25Z</time>
      </trkpt>
      <trkpt lat="42.0230550" lon="-6.3276660">
        <ele>900.5</ele>
        <time>2019-08-16T08:40:26Z</time>
      </trkpt>
      <trkpt lat="42.0230580" lon="-6.3277240">
        <ele>900.5</ele>
        <time>2019-08-16T08:40:27Z</time>
      </trkpt>
      <trkpt lat="42.0230590" lon="-6.3277880">
        <ele>900.4</ele>
        <time>2019-08-16T08:40:28Z</time>
      </trkpt>
      <trkpt lat="42.0230560" lon="-6.3278530">
        <ele>900.1</ele>
        <time>2019-08-16T08:40:29Z</time>
      </trkpt>
      <trkpt lat="42.0230540" lon="-6.3279180">
        <ele>899.8</ele>
        <time>2019-08-16T08:40:30Z</time>
      </trkpt>
      <trkpt lat="42.0230520" lon="-6.3279850">
        <ele>899.6</ele>
        <time>2019-08-16T08:40:31Z</time>
      </trkpt>
      <trkpt lat="42.0230520" lon="-6.3280540">
        <ele>899.4</ele>
        <time>2019-08-16T08:40:32Z</time>
      </trkpt>
      <trkpt lat="42.0230510" lon="-6.3281250">
        <ele>899.1</ele>
        <time>2019-08-16T08:40:33Z</time>
      </trkpt>
      <trkpt lat="42.0230510" lon="-6.3281990">
        <ele>898.8</ele>
        <time>2019-08-16T08:40:34Z</time>
      </trkpt>
      <trkpt lat="42.0230500" lon="-6.3282740">
        <ele>898.5</ele>
        <time>2019-08-16T08:40:35Z</time>
      </trkpt>
      <trkpt lat="42.0230480" lon="-6.3283480">
        <ele>898.2</ele>
        <time>2019-08-16T08:40:36Z</time>
      </trkpt>
      <trkpt lat="42.0230470" lon="-6.3284220">
        <ele>897.9</ele>
        <time>2019-08-16T08:40:37Z</time>
      </trkpt>
      <trkpt lat="42.0230470" lon="-6.3284960">
        <ele>897.6</ele>
        <time>2019-08-16T08:40:38Z</time>
      </trkpt>
      <trkpt lat="42.0230470" lon="-6.3285720">
        <ele>897.4</ele>
        <time>2019-08-16T08:40:39Z</time>
      </trkpt>
      <trkpt lat="42.0230490" lon="-6.3286480">
        <ele>897.1</ele>
        <time>2019-08-16T08:40:40Z</time>
      </trkpt>
      <trkpt lat="42.0230510" lon="-6.3287220">
        <ele>896.8</ele>
        <time>2019-08-16T08:40:41Z</time>
      </trkpt>
      <trkpt lat="42.0230540" lon="-6.3287930">
        <ele>896.5</ele>
        <time>2019-08-16T08:40:42Z</time>
      </trkpt>
      <trkpt lat="42.0230570" lon="-6.3288590">
        <ele>896.2</ele>
        <time>2019-08-16T08:40:43Z</time>
      </trkpt>
      <trkpt lat="42.0230620" lon="-6.3289270">
        <ele>895.9</ele>
        <time>2019-08-16T08:40:44Z</time>
      </trkpt>
      <trkpt lat="42.0230680" lon="-6.3289960">
        <ele>895.6</ele>
        <time>2019-08-16T08:40:45Z</time>
      </trkpt>
      <trkpt lat="42.0230750" lon="-6.3290640">
        <ele>895.3</ele>
        <time>2019-08-16T08:40:46Z</time>
      </trkpt>
      <trkpt lat="42.0230850" lon="-6.3291310">
        <ele>895.0</ele>
        <time>2019-08-16T08:40:47Z</time>
      </trkpt>
      <trkpt lat="42.0230960" lon="-6.3291990">
        <ele>894.7</ele>
        <time>2019-08-16T08:40:48Z</time>
      </trkpt>
      <trkpt lat="42.0231090" lon="-6.3292700">
        <ele>894.4</ele>
        <time>2019-08-16T08:40:49Z</time>
      </trkpt>
      <trkpt lat="42.0231240" lon="-6.3293420">
        <ele>894.1</ele>
        <time>2019-08-16T08:40:50Z</time>
      </trkpt>
      <trkpt lat="42.0231400" lon="-6.3294130">
        <ele>893.8</ele>
        <time>2019-08-16T08:40:51Z</time>
      </trkpt>
      <trkpt lat="42.0231560" lon="-6.3294820">
        <ele>893.6</ele>
        <time>2019-08-16T08:40:52Z</time>
      </trkpt>
      <trkpt lat="42.0231740" lon="-6.3295510">
        <ele>893.3</ele>
        <time>2019-08-16T08:40:53Z</time>
      </trkpt>
      <trkpt lat="42.0231940" lon="-6.3296200">
        <ele>893.1</ele>
        <time>2019-08-16T08:40:54Z</time>
      </trkpt>
      <trkpt lat="42.0232140" lon="-6.3296920">
        <ele>893.0</ele>
        <time>2019-08-16T08:40:55Z</time>
      </trkpt>
      <trkpt lat="42.0232350" lon="-6.3297650">
        <ele>892.9</ele>
        <time>2019-08-16T08:40:56Z</time>
      </trkpt>
      <trkpt lat="42.0232580" lon="-6.3298400">
        <ele>892.7</ele>
        <time>2019-08-16T08:40:57Z</time>
      </trkpt>
      <trkpt lat="42.0232810" lon="-6.3299140">
        <ele>892.6</ele>
        <time>2019-08-16T08:40:58Z</time>
      </trkpt>
      <trkpt lat="42.0233030" lon="-6.3299910">
        <ele>892.5</ele>
        <time>2019-08-16T08:40:59Z</time>
      </trkpt>
      <trkpt lat="42.0233240" lon="-6.3300680">
        <ele>892.4</ele>
        <time>2019-08-16T08:41:00Z</time>
      </trkpt>
      <trkpt lat="42.0233430" lon="-6.3301450">
        <ele>892.3</ele>
        <time>2019-08-16T08:41:01Z</time>
      </trkpt>
      <trkpt lat="42.0233600" lon="-6.3302200">
        <ele>892.2</ele>
        <time>2019-08-16T08:41:02Z</time>
      </trkpt>
      <trkpt lat="42.0233740" lon="-6.3302960">
        <ele>892.2</ele>
        <time>2019-08-16T08:41:03Z</time>
      </trkpt>
      <trkpt lat="42.0233860" lon="-6.3303710">
        <ele>892.1</ele>
        <time>2019-08-16T08:41:04Z</time>
      </trkpt>
      <trkpt lat="42.0233990" lon="-6.3304460">
        <ele>892.0</ele>
        <time>2019-08-16T08:41:05Z</time>
      </trkpt>
      <trkpt lat="42.0234110" lon="-6.3305200">
        <ele>892.0</ele>
        <time>2019-08-16T08:41:06Z</time>
      </trkpt>
      <trkpt lat="42.0234220" lon="-6.3305930">
        <ele>892.0</ele>
        <time>2019-08-16T08:41:07Z</time>
      </trkpt>
      <trkpt lat="42.0234310" lon="-6.3306650">
        <ele>892.0</ele>
        <time>2019-08-16T08:41:08Z</time>
      </trkpt>
      <trkpt lat="42.0234370" lon="-6.3307360">
        <ele>892.1</ele>
        <time>2019-08-16T08:41:09Z</time>
      </trkpt>
      <trkpt lat="42.0234450" lon="-6.3308040">
        <ele>892.1</ele>
        <time>2019-08-16T08:41:10Z</time>
      </trkpt>
      <trkpt lat="42.0234510" lon="-6.3308700">
        <ele>892.2</ele>
        <time>2019-08-16T08:41:11Z</time>
      </trkpt>
      <trkpt lat="42.0234560" lon="-6.3309310">
        <ele>892.3</ele>
        <time>2019-08-16T08:41:12Z</time>
      </trkpt>
      <trkpt lat="42.0234580" lon="-6.3309900">
        <ele>892.3</ele>
        <time>2019-08-16T08:41:13Z</time>
      </trkpt>
      <trkpt lat="42.0234590" lon="-6.3310470">
        <ele>892.4</ele>
        <time>2019-08-16T08:41:14Z</time>
      </trkpt>
      <trkpt lat="42.0234620" lon="-6.3311030">
        <ele>892.4</ele>
        <time>2019-08-16T08:41:15Z</time>
      </trkpt>
      <trkpt lat="42.0234660" lon="-6.3311570">
        <ele>892.5</ele>
        <time>2019-08-16T08:41:16Z</time>
      </trkpt>
      <trkpt lat="42.0234710" lon="-6.3312090">
        <ele>892.5</ele>
        <time>2019-08-16T08:41:17Z</time>
      </trkpt>
      <trkpt lat="42.0234750" lon="-6.3312590">
        <ele>892.5</ele>
        <time>2019-08-16T08:41:18Z</time>
      </trkpt>
      <trkpt lat="42.0234760" lon="-6.3313040">
        <ele>892.6</ele>
        <time>2019-08-16T08:41:19Z</time>
      </trkpt>
      <trkpt lat="42.0234780" lon="-6.3313420">
        <ele>892.6</ele>
        <time>2019-08-16T08:41:20Z</time>
      </trkpt>
      <trkpt lat="42.0234890" lon="-6.3314020">
        <ele>892.6</ele>
        <time>2019-08-16T08:41:22Z</time>
      </trkpt>
      <trkpt lat="42.0234890" lon="-6.3314450">
        <ele>892.7</ele>
        <time>2019-08-16T08:41:24Z</time>
      </trkpt>
      <trkpt lat="42.0234540" lon="-6.3314510">
        <ele>892.7</ele>
        <time>2019-08-16T08:41:26Z</time>
      </trkpt>
      <trkpt lat="42.0234250" lon="-6.3314020">
        <ele>892.7</ele>
        <time>2019-08-16T08:41:28Z</time>
      </trkpt>
      <trkpt lat="42.0233900" lon="-6.3313570">
        <ele>892.4</ele>
        <time>2019-08-16T08:41:30Z</time>
      </trkpt>
      <trkpt lat="42.0233640" lon="-6.3313490">
        <ele>892.3</ele>
        <time>2019-08-16T08:41:31Z</time>
      </trkpt>
      <trkpt lat="42.0233360" lon="-6.3313500">
        <ele>892.2</ele>
        <time>2019-08-16T08:41:32Z</time>
      </trkpt>
      <trkpt lat="42.0233080" lon="-6.3313590">
        <ele>892.1</ele>
        <time>2019-08-16T08:41:33Z</time>
      </trkpt>
      <trkpt lat="42.0232790" lon="-6.3313710">
        <ele>891.8</ele>
        <time>2019-08-16T08:41:34Z</time>
      </trkpt>
      <trkpt lat="42.0232490" lon="-6.3313860">
        <ele>891.6</ele>
        <time>2019-08-16T08:41:35Z</time>
      </trkpt>
      <trkpt lat="42.0232190" lon="-6.3314030">
        <ele>891.4</ele>
        <time>2019-08-16T08:41:36Z</time>
      </trkpt>
      <trkpt lat="42.0231890" lon="-6.3314200">
        <ele>891.2</ele>
        <time>2019-08-16T08:41:37Z</time>
      </trkpt>
      <trkpt lat="42.0231580" lon="-6.3314380">
        <ele>891.0</ele>
        <time>2019-08-16T08:41:38Z</time>
      </trkpt>
      <trkpt lat="42.0231280" lon="-6.3314570">
        <ele>890.8</ele>
        <time>2019-08-16T08:41:39Z</time>
      </trkpt>
      <trkpt lat="42.0230970" lon="-6.3314780">
        <ele>890.6</ele>
        <time>2019-08-16T08:41:40Z</time>
      </trkpt>
      <trkpt lat="42.0230700" lon="-6.3315080">
        <ele>890.4</ele>
        <time>2019-08-16T08:41:41Z</time>
      </trkpt>
      <trkpt lat="42.0230450" lon="-6.3315420">
        <ele>890.2</ele>
        <time>2019-08-16T08:41:42Z</time>
      </trkpt>
      <trkpt lat="42.0230230" lon="-6.3315800">
        <ele>890.0</ele>
        <time>2019-08-16T08:41:43Z</time>
      </trkpt>
      <trkpt lat="42.0230010" lon="-6.3316200">
        <ele>889.9</ele>
        <time>2019-08-16T08:41:44Z</time>
      </trkpt>
      <trkpt lat="42.0229790" lon="-6.3316610">
        <ele>889.8</ele>
        <time>2019-08-16T08:41:45Z</time>
      </trkpt>
      <trkpt lat="42.0229530" lon="-6.3316990">
        <ele>889.7</ele>
        <time>2019-08-16T08:41:46Z</time>
      </trkpt>
      <trkpt lat="42.0229230" lon="-6.3317330">
        <ele>889.6</ele>
        <time>2019-08-16T08:41:47Z</time>
      </trkpt>
      <trkpt lat="42.0228870" lon="-6.3317620">
        <ele>889.5</ele>
        <time>2019-08-16T08:41:48Z</time>
      </trkpt>
      <trkpt lat="42.0228510" lon="-6.3317880">
        <ele>889.3</ele>
        <time>2019-08-16T08:41:49Z</time>
      </trkpt>
      <trkpt lat="42.0228140" lon="-6.3318090">
        <ele>889.1</ele>
        <time>2019-08-16T08:41:50Z</time>
      </trkpt>
      <trkpt lat="42.0227780" lon="-6.3318250">
        <ele>889.0</ele>
        <time>2019-08-16T08:41:51Z</time>
      </trkpt>
      <trkpt lat="42.0227400" lon="-6.3318320">
        <ele>888.8</ele>
        <time>2019-08-16T08:41:52Z</time>
      </trkpt>
      <trkpt lat="42.0227010" lon="-6.3318350">
        <ele>888.6</ele>
        <time>2019-08-16T08:41:53Z</time>
      </trkpt>
      <trkpt lat="42.0226560" lon="-6.3318300">
        <ele>888.3</ele>
        <time>2019-08-16T08:41:54Z</time>
      </trkpt>
      <trkpt lat="42.0226150" lon="-6.3318260">
        <ele>888.1</ele>
        <time>2019-08-16T08:41:55Z</time>
      </trkpt>
      <trkpt lat="42.0225780" lon="-6.3318230">
        <ele>888.0</ele>
        <time>2019-08-16T08:41:56Z</time>
      </trkpt>
      <trkpt lat="42.0225430" lon="-6.3318210">
        <ele>887.9</ele>
        <time>2019-08-16T08:41:57Z</time>
      </trkpt>
      <trkpt lat="42.0225120" lon="-6.3318230">
        <ele>887.8</ele>
        <time>2019-08-16T08:41:58Z</time>
      </trkpt>
      <trkpt lat="42.0224690" lon="-6.3318380">
        <ele>887.7</ele>
        <time>2019-08-16T08:42:00Z</time>
      </trkpt>
      <trkpt lat="42.0224490" lon="-6.3318560">
        <ele>887.7</ele>
        <time>2019-08-16T08:42:07Z</time>
      </trkpt>
      <trkpt lat="42.0224110" lon="-6.3317840">
        <ele>887.6</ele>
        <time>2019-08-16T08:42:59Z</time>
      </trkpt>
      <trkpt lat="42.0224220" lon="-6.3317420">
        <ele>887.5</ele>
        <time>2019-08-16T08:43:01Z</time>
      </trkpt>
      <trkpt lat="42.0224380" lon="-6.3317000">
        <ele>887.5</ele>
        <time>2019-08-16T08:43:03Z</time>
      </trkpt>
      <trkpt lat="42.0224560" lon="-6.3316420">
        <ele>887.4</ele>
        <time>2019-08-16T08:43:05Z</time>
      </trkpt>
      <trkpt lat="42.0224690" lon="-6.3315920">
        <ele>887.3</ele>
        <time>2019-08-16T08:43:07Z</time>
      </trkpt>
      <trkpt lat="42.0224930" lon="-6.3315750">
        <ele>887.3</ele>
        <time>2019-08-16T08:43:09Z</time>
      </trkpt>
      <trkpt lat="42.0225110" lon="-6.3316040">
        <ele>887.2</ele>
        <time>2019-08-16T08:43:12Z</time>
      </trkpt>
      <trkpt lat="42.0225140" lon="-6.3316410">
        <ele>887.2</ele>
        <time>2019-08-16T08:43:21Z</time>
      </trkpt>
      <trkpt lat="42.0225010" lon="-6.3316770">
        <ele>887.2</ele>
        <time>2019-08-16T08:43:23Z</time>
      </trkpt>
      <trkpt lat="42.0224740" lon="-6.3317020">
        <ele>887.2</ele>
        <time>2019-08-16T08:43:25Z</time>
      </trkpt>
      <trkpt lat="42.0224480" lon="-6.3317290">
        <ele>887.3</ele>
        <time>2019-08-16T08:43:27Z</time>
      </trkpt>
      <trkpt lat="42.0224260" lon="-6.3317620">
        <ele>887.3</ele>
        <time>2019-08-16T08:43:29Z</time>
      </trkpt>
      <trkpt lat="42.0224140" lon="-6.3317960">
        <ele>887.3</ele>
        <time>2019-08-16T08:43:31Z</time>
      </trkpt>
      <trkpt lat="42.0224200" lon="-6.3318250">
        <ele>887.3</ele>
        <time>2019-08-16T08:43:37Z</time>
      </trkpt>
      <trkpt lat="42.0224480" lon="-6.3318490">
        <ele>887.3</ele>
        <time>2019-08-16T08:43:41Z</time>
      </trkpt>
      <trkpt lat="42.0223900" lon="-6.3319150">
        <ele>887.3</ele>
        <time>2019-08-16T08:45:17Z</time>
      </trkpt>
      <trkpt lat="42.0223770" lon="-6.3319480">
        <ele>887.3</ele>
        <time>2019-08-16T08:45:18Z</time>
      </trkpt>
      <trkpt lat="42.0223720" lon="-6.3319870">
        <ele>887.3</ele>
        <time>2019-08-16T08:45:19Z</time>
      </trkpt>
      <trkpt lat="42.0223740" lon="-6.3320280">
        <ele>887.3</ele>
        <time>2019-08-16T08:45:20Z</time>
      </trkpt>
      <trkpt lat="42.0223820" lon="-6.3320740">
        <ele>887.4</ele>
        <time>2019-08-16T08:45:21Z</time>
      </trkpt>
      <trkpt lat="42.0223940" lon="-6.3321190">
        <ele>887.5</ele>
        <time>2019-08-16T08:45:22Z</time>
      </trkpt>
      <trkpt lat="42.0224040" lon="-6.3321630">
        <ele>887.7</ele>
        <time>2019-08-16T08:45:23Z</time>
      </trkpt>
      <trkpt lat="42.0224110" lon="-6.3322140">
        <ele>887.7</ele>
        <time>2019-08-16T08:45:24Z</time>
      </trkpt>
      <trkpt lat="42.0224150" lon="-6.3322710">
        <ele>887.7</ele>
        <time>2019-08-16T08:45:25Z</time>
      </trkpt>
      <trkpt lat="42.0224140" lon="-6.3323320">
        <ele>887.7</ele>
        <time>2019-08-16T08:45:26Z</time>
      </trkpt>
      <trkpt lat="42.0224100" lon="-6.3323960">
        <ele>887.6</ele>
        <time>2019-08-16T08:45:27Z</time>
      </trkpt>
      <trkpt lat="42.0224040" lon="-6.3324590">
        <ele>887.6</ele>
        <time>2019-08-16T08:45:28Z</time>
      </trkpt>
      <trkpt lat="42.0223940" lon="-6.3325240">
        <ele>887.5</ele>
        <time>2019-08-16T08:45:29Z</time>
      </trkpt>
      <trkpt lat="42.0223830" lon="-6.3325880">
        <ele>887.5</ele>
        <time>2019-08-16T08:45:30Z</time>
      </trkpt>
      <trkpt lat="42.0223680" lon="-6.3326530">
        <ele>887.4</ele>
        <time>2019-08-16T08:45:31Z</time>
      </trkpt>
      <trkpt lat="42.0223530" lon="-6.3327190">
        <ele>887.2</ele>
        <time>2019-08-16T08:45:32Z</time>
      </trkpt>
      <trkpt lat="42.0223350" lon="-6.3327820">
        <ele>887.1</ele>
        <time>2019-08-16T08:45:33Z</time>
      </trkpt>
      <trkpt lat="42.0223160" lon="-6.3328460">
        <ele>887.0</ele>
        <time>2019-08-16T08:45:34Z</time>
      </trkpt>
      <trkpt lat="42.0222970" lon="-6.3329110">
        <ele>886.8</ele>
        <time>2019-08-16T08:45:35Z</time>
      </trkpt>
      <trkpt lat="42.0222850" lon="-6.3329750">
        <ele>886.8</ele>
        <time>2019-08-16T08:45:36Z</time>
      </trkpt>
      <trkpt lat="42.0222760" lon="-6.3330330">
        <ele>886.8</ele>
        <time>2019-08-16T08:45:37Z</time>
      </trkpt>
      <trkpt lat="42.0222750" lon="-6.3330850">
        <ele>886.8</ele>
        <time>2019-08-16T08:45:38Z</time>
      </trkpt>
      <trkpt lat="42.0222750" lon="-6.3331350">
        <ele>886.7</ele>
        <time>2019-08-16T08:45:39Z</time>
      </trkpt>
      <trkpt lat="42.0222770" lon="-6.3331850">
        <ele>886.7</ele>
        <time>2019-08-16T08:45:40Z</time>
      </trkpt>
      <trkpt lat="42.0222810" lon="-6.3332360">
        <ele>886.7</ele>
        <time>2019-08-16T08:45:41Z</time>
      </trkpt>
      <trkpt lat="42.0222830" lon="-6.3332870">
        <ele>886.7</ele>
        <time>2019-08-16T08:45:42Z</time>
      </trkpt>
      <trkpt lat="42.0222830" lon="-6.3333390">
        <ele>886.6</ele>
        <time>2019-08-16T08:45:43Z</time>
      </trkpt>
      <trkpt lat="42.0222850" lon="-6.3333920">
        <ele>886.6</ele>
        <time>2019-08-16T08:45:44Z</time>
      </trkpt>
      <trkpt lat="42.0222900" lon="-6.3334430">
        <ele>886.7</ele>
        <time>2019-08-16T08:45:45Z</time>
      </trkpt>
      <trkpt lat="42.0222970" lon="-6.3334960">
        <ele>886.9</ele>
        <time>2019-08-16T08:45:46Z</time>
      </trkpt>
      <trkpt lat="42.0223060" lon="-6.3335500">
        <ele>887.0</ele>
        <time>2019-08-16T08:45:47Z</time>
      </trkpt>
      <trkpt lat="42.0223180" lon="-6.3335990">
        <ele>887.1</ele>
        <time>2019-08-16T08:45:48Z</time>
      </trkpt>
      <trkpt lat="42.0223320" lon="-6.3336480">
        <ele>887.3</ele>
        <time>2019-08-16T08:45:49Z</time>
      </trkpt>
      <trkpt lat="42.0223470" lon="-6.3336960">
        <ele>887.4</ele>
        <time>2019-08-16T08:45:50Z</time>
      </trkpt>
      <trkpt lat="42.0223660" lon="-6.3337400">
        <ele>887.5</ele>
        <time>2019-08-16T08:45:51Z</time>
      </trkpt>
      <trkpt lat="42.0223880" lon="-6.3337830">
        <ele>887.6</ele>
        <time>2019-08-16T08:45:52Z</time>
      </trkpt>
      <trkpt lat="42.0224110" lon="-6.3338240">
        <ele>887.7</ele>
        <time>2019-08-16T08:45:53Z</time>
      </trkpt>
      <trkpt lat="42.0224350" lon="-6.3338640">
        <ele>887.8</ele>
        <time>2019-08-16T08:45:54Z</time>
      </trkpt>
      <trkpt lat="42.0224560" lon="-6.3339060">
        <ele>887.8</ele>
        <time>2019-08-16T08:45:55Z</time>
      </trkpt>
      <trkpt lat="42.0224740" lon="-6.3339480">
        <ele>887.9</ele>
        <time>2019-08-16T08:45:56Z</time>
      </trkpt>
      <trkpt lat="42.0224890" lon="-6.3339900">
        <ele>887.9</ele>
        <time>2019-08-16T08:45:57Z</time>
      </trkpt>
      <trkpt lat="42.0225030" lon="-6.3340340">
        <ele>888.0</ele>
        <time>2019-08-16T08:45:58Z</time>
      </trkpt>
      <trkpt lat="42.0225140" lon="-6.3340800">
        <ele>888.0</ele>
        <time>2019-08-16T08:45:59Z</time>
      </trkpt>
      <trkpt lat="42.0225230" lon="-6.3341300">
        <ele>888.1</ele>
        <time>2019-08-16T08:46:00Z</time>
      </trkpt>
      <trkpt lat="42.0225300" lon="-6.3341820">
        <ele>888.2</ele>
        <time>2019-08-16T08:46:01Z</time>
      </trkpt>
      <trkpt lat="42.0225400" lon="-6.3342350">
        <ele>888.2</ele>
        <time>2019-08-16T08:46:02Z</time>
      </trkpt>
      <trkpt lat="42.0225540" lon="-6.3342870">
        <ele>888.3</ele>
        <time>2019-08-16T08:46:03Z</time>
      </trkpt>
      <trkpt lat="42.0225740" lon="-6.3343380">
        <ele>888.4</ele>
        <time>2019-08-16T08:46:04Z</time>
      </trkpt>
      <trkpt lat="42.0225960" lon="-6.3343910">
        <ele>888.4</ele>
        <time>2019-08-16T08:46:05Z</time>
      </trkpt>
      <trkpt lat="42.0226200" lon="-6.3344420">
        <ele>888.5</ele>
        <time>2019-08-16T08:46:06Z</time>
      </trkpt>
      <trkpt lat="42.0226450" lon="-6.3344920">
        <ele>888.6</ele>
        <time>2019-08-16T08:46:07Z</time>
      </trkpt>
      <trkpt lat="42.0226690" lon="-6.3345410">
        <ele>888.6</ele>
        <time>2019-08-16T08:46:08Z</time>
      </trkpt>
      <trkpt lat="42.0226930" lon="-6.3345870">
        <ele>888.7</ele>
        <time>2019-08-16T08:46:09Z</time>
      </trkpt>
      <trkpt lat="42.0227160" lon="-6.3346310">
        <ele>888.7</ele>
        <time>2019-08-16T08:46:10Z</time>
      </trkpt>
      <trkpt lat="42.0227360" lon="-6.3346730">
        <ele>888.8</ele>
        <time>2019-08-16T08:46:11Z</time>
      </trkpt>
      <trkpt lat="42.0227580" lon="-6.3347110">
        <ele>888.9</ele>
        <time>2019-08-16T08:46:12Z</time>
      </trkpt>
      <trkpt lat="42.0227830" lon="-6.3347490">
        <ele>889.0</ele>
        <time>2019-08-16T08:46:13Z</time>
      </trkpt>
      <trkpt lat="42.0228110" lon="-6.3347860">
        <ele>889.1</ele>
        <time>2019-08-16T08:46:14Z</time>
      </trkpt>
      <trkpt lat="42.0228400" lon="-6.3348250">
        <ele>889.2</ele>
        <time>2019-08-16T08:46:15Z</time>
      </trkpt>
      <trkpt lat="42.0228690" lon="-6.3348630">
        <ele>889.3</ele>
        <time>2019-08-16T08:46:16Z</time>
      </trkpt>
      <trkpt lat="42.0228990" lon="-6.3349000">
        <ele>889.4</ele>
        <time>2019-08-16T08:46:17Z</time>
      </trkpt>
      <trkpt lat="42.0229290" lon="-6.3349370">
        <ele>889.5</ele>
        <time>2019-08-16T08:46:18Z</time>
      </trkpt>
      <trkpt lat="42.0229580" lon="-6.3349740">
        <ele>889.6</ele>
        <time>2019-08-16T08:46:19Z</time>
      </trkpt>
      <trkpt lat="42.0229860" lon="-6.3350100">
        <ele>889.8</ele>
        <time>2019-08-16T08:46:20Z</time>
      </trkpt>
      <trkpt lat="42.0230120" lon="-6.3350460">
        <ele>889.9</ele>
        <time>2019-08-16T08:46:21Z</time>
      </trkpt>
      <trkpt lat="42.0230360" lon="-6.3350820">
        <ele>890.1</ele>
        <time>2019-08-16T08:46:22Z</time>
      </trkpt>
      <trkpt lat="42.0230590" lon="-6.3351170">
        <ele>890.3</ele>
        <time>2019-08-16T08:46:23Z</time>
      </trkpt>
      <trkpt lat="42.0230850" lon="-6.3351490">
        <ele>890.5</ele>
        <time>2019-08-16T08:46:24Z</time>
      </trkpt>
      <trkpt lat="42.0231130" lon="-6.3351790">
        <ele>890.7</ele>
        <time>2019-08-16T08:46:25Z</time>
      </trkpt>
      <trkpt lat="42.0231420" lon="-6.3352040">
        <ele>890.8</ele>
        <time>2019-08-16T08:46:26Z</time>
      </trkpt>
      <trkpt lat="42.0231690" lon="-6.3352300">
        <ele>891.0</ele>
        <time>2019-08-16T08:46:27Z</time>
      </trkpt>
      <trkpt lat="42.0231940" lon="-6.3352540">
        <ele>891.1</ele>
        <time>2019-08-16T08:46:28Z</time>
      </trkpt>
      <trkpt lat="42.0232160" lon="-6.3352810">
        <ele>891.2</ele>
        <time>2019-08-16T08:46:29Z</time>
      </trkpt>
      <trkpt lat="42.0232350" lon="-6.3353110">
        <ele>891.2</ele>
        <time>2019-08-16T08:46:30Z</time>
      </trkpt>
      <trkpt lat="42.0232510" lon="-6.3353450">
        <ele>891.1</ele>
        <time>2019-08-16T08:46:31Z</time>
      </trkpt>
      <trkpt lat="42.0232650" lon="-6.3353830">
        <ele>891.1</ele>
        <time>2019-08-16T08:46:32Z</time>
      </trkpt>
      <trkpt lat="42.0232780" lon="-6.3354260">
        <ele>891.0</ele>
        <time>2019-08-16T08:46:33Z</time>
      </trkpt>
      <trkpt lat="42.0232900" lon="-6.3354720">
        <ele>891.0</ele>
        <time>2019-08-16T08:46:34Z</time>
      </trkpt>
      <trkpt lat="42.0233020" lon="-6.3355220">
        <ele>891.0</ele>
        <time>2019-08-16T08:46:35Z</time>
      </trkpt>
      <trkpt lat="42.0233150" lon="-6.3355750">
        <ele>891.0</ele>
        <time>2019-08-16T08:46:36Z</time>
      </trkpt>
      <trkpt lat="42.0233310" lon="-6.3356290">
        <ele>891.1</ele>
        <time>2019-08-16T08:46:37Z</time>
      </trkpt>
      <trkpt lat="42.0233500" lon="-6.3356860">
        <ele>891.1</ele>
        <time>2019-08-16T08:46:38Z</time>
      </trkpt>
      <trkpt lat="42.0233720" lon="-6.3357420">
        <ele>891.2</ele>
        <time>2019-08-16T08:46:39Z</time>
      </trkpt>
      <trkpt lat="42.0233960" lon="-6.3357990">
        <ele>891.3</ele>
        <time>2019-08-16T08:46:40Z</time>
      </trkpt>
      <trkpt lat="42.0234220" lon="-6.3358540">
        <ele>891.4</ele>
        <time>2019-08-16T08:46:41Z</time>
      </trkpt>
      <trkpt lat="42.0234490" lon="-6.3359070">
        <ele>891.5</ele>
        <time>2019-08-16T08:46:42Z</time>
      </trkpt>
      <trkpt lat="42.0234710" lon="-6.3359610">
        <ele>891.5</ele>
        <time>2019-08-16T08:46:43Z</time>
      </trkpt>
      <trkpt lat="42.0234850" lon="-6.3360190">
        <ele>891.3</ele>
        <time>2019-08-16T08:46:44Z</time>
      </trkpt>
      <trkpt lat="42.0234940" lon="-6.3360780">
        <ele>891.0</ele>
        <time>2019-08-16T08:46:45Z</time>
      </trkpt>
      <trkpt lat="42.0235010" lon="-6.3361370">
        <ele>890.7</ele>
        <time>2019-08-16T08:46:46Z</time>
      </trkpt>
      <trkpt lat="42.0235060" lon="-6.3361930">
        <ele>890.3</ele>
        <time>2019-08-16T08:46:47Z</time>
      </trkpt>
      <trkpt lat="42.0235130" lon="-6.3362500">
        <ele>890.1</ele>
        <time>2019-08-16T08:46:48Z</time>
      </trkpt>
      <trkpt lat="42.0235180" lon="-6.3363080">
        <ele>889.9</ele>
        <time>2019-08-16T08:46:49Z</time>
      </trkpt>
      <trkpt lat="42.0235210" lon="-6.3363650">
        <ele>889.6</ele>
        <time>2019-08-16T08:46:50Z</time>
      </trkpt>
      <trkpt lat="42.0235240" lon="-6.3364220">
        <ele>889.4</ele>
        <time>2019-08-16T08:46:51Z</time>
      </trkpt>
      <trkpt lat="42.0235280" lon="-6.3364790">
        <ele>889.2</ele>
        <time>2019-08-16T08:46:52Z</time>
      </trkpt>
      <trkpt lat="42.0235330" lon="-6.3365370">
        <ele>889.1</ele>
        <time>2019-08-16T08:46:53Z</time>
      </trkpt>
      <trkpt lat="42.0235360" lon="-6.3365920">
        <ele>888.9</ele>
        <time>2019-08-16T08:46:54Z</time>
      </trkpt>
      <trkpt lat="42.0235380" lon="-6.3366480">
        <ele>888.8</ele>
        <time>2019-08-16T08:46:55Z</time>
      </trkpt>
      <trkpt lat="42.0235400" lon="-6.3367020">
        <ele>888.7</ele>
        <time>2019-08-16T08:46:56Z</time>
      </trkpt>
      <trkpt lat="42.0235420" lon="-6.3367580">
        <ele>888.6</ele>
        <time>2019-08-16T08:46:57Z</time>
      </trkpt>
      <trkpt lat="42.0235430" lon="-6.3368130">
        <ele>888.6</ele>
        <time>2019-08-16T08:46:58Z</time>
      </trkpt>
      <trkpt lat="42.0235450" lon="-6.3368650">
        <ele>888.5</ele>
        <time>2019-08-16T08:46:59Z</time>
      </trkpt>
      <trkpt lat="42.0235480" lon="-6.3369150">
        <ele>888.5</ele>
        <time>2019-08-16T08:47:00Z</time>
      </trkpt>
      <trkpt lat="42.0235510" lon="-6.3369640">
        <ele>888.5</ele>
        <time>2019-08-16T08:47:01Z</time>
      </trkpt>
      <trkpt lat="42.0235550" lon="-6.3370130">
        <ele>888.5</ele>
        <time>2019-08-16T08:47:02Z</time>
      </trkpt>
      <trkpt lat="42.0235580" lon="-6.3370590">
        <ele>888.6</ele>
        <time>2019-08-16T08:47:03Z</time>
      </trkpt>
      <trkpt lat="42.0235580" lon="-6.3371040">
        <ele>888.6</ele>
        <time>2019-08-16T08:47:04Z</time>
      </trkpt>
      <trkpt lat="42.0235580" lon="-6.3371490">
        <ele>888.7</ele>
        <time>2019-08-16T08:47:05Z</time>
      </trkpt>
      <trkpt lat="42.0235590" lon="-6.3371920">
        <ele>888.8</ele>
        <time>2019-08-16T08:47:06Z</time>
      </trkpt>
      <trkpt lat="42.0235590" lon="-6.3372340">
        <ele>888.9</ele>
        <time>2019-08-16T08:47:07Z</time>
      </trkpt>
      <trkpt lat="42.0235590" lon="-6.3372770">
        <ele>889.0</ele>
        <time>2019-08-16T08:47:08Z</time>
      </trkpt>
      <trkpt lat="42.0235590" lon="-6.3373200">
        <ele>889.1</ele>
        <time>2019-08-16T08:47:09Z</time>
      </trkpt>
      <trkpt lat="42.0235600" lon="-6.3373640">
        <ele>889.3</ele>
        <time>2019-08-16T08:47:10Z</time>
      </trkpt>
      <trkpt lat="42.0235610" lon="-6.3374090">
        <ele>889.4</ele>
        <time>2019-08-16T08:47:11Z</time>
      </trkpt>
      <trkpt lat="42.0235610" lon="-6.3374560">
        <ele>889.6</ele>
        <time>2019-08-16T08:47:12Z</time>
      </trkpt>
      <trkpt lat="42.0235620" lon="-6.3375040">
        <ele>889.7</ele>
        <time>2019-08-16T08:47:13Z</time>
      </trkpt>
      <trkpt lat="42.0235630" lon="-6.3375520">
        <ele>889.9</ele>
        <time>2019-08-16T08:47:14Z</time>
      </trkpt>
      <trkpt lat="42.0235640" lon="-6.3375990">
        <ele>890.0</ele>
        <time>2019-08-16T08:47:15Z</time>
      </trkpt>
      <trkpt lat="42.0235640" lon="-6.3376440">
        <ele>890.1</ele>
        <time>2019-08-16T08:47:16Z</time>
      </trkpt>
      <trkpt lat="42.0235640" lon="-6.3376900">
        <ele>890.3</ele>
        <time>2019-08-16T08:47:17Z</time>
      </trkpt>
      <trkpt lat="42.0235640" lon="-6.3377340">
        <ele>890.4</ele>
        <time>2019-08-16T08:47:18Z</time>
      </trkpt>
      <trkpt lat="42.0235650" lon="-6.3377770">
        <ele>890.5</ele>
        <time>2019-08-16T08:47:19Z</time>
      </trkpt>
      <trkpt lat="42.0235660" lon="-6.3378210">
        <ele>890.5</ele>
        <time>2019-08-16T08:47:20Z</time>
      </trkpt>
      <trkpt lat="42.0235680" lon="-6.3378650">
        <ele>890.6</ele>
        <time>2019-08-16T08:47:21Z</time>
      </trkpt>
      <trkpt lat="42.0235680" lon="-6.3379090">
        <ele>890.7</ele>
        <time>2019-08-16T08:47:22Z</time>
      </trkpt>
      <trkpt lat="42.0235690" lon="-6.3379540">
        <ele>890.8</ele>
        <time>2019-08-16T08:47:23Z</time>
      </trkpt>
      <trkpt lat="42.0235710" lon="-6.3379990">
        <ele>890.9</ele>
        <time>2019-08-16T08:47:24Z</time>
      </trkpt>
      <trkpt lat="42.0235720" lon="-6.3380450">
        <ele>891.0</ele>
        <time>2019-08-16T08:47:25Z</time>
      </trkpt>
      <trkpt lat="42.0235730" lon="-6.3380900">
        <ele>891.1</ele>
        <time>2019-08-16T08:47:26Z</time>
      </trkpt>
      <trkpt lat="42.0235720" lon="-6.3381350">
        <ele>891.2</ele>
        <time>2019-08-16T08:47:27Z</time>
      </trkpt>
      <trkpt lat="42.0235690" lon="-6.3381800">
        <ele>891.3</ele>
        <time>2019-08-16T08:47:28Z</time>
      </trkpt>
      <trkpt lat="42.0235630" lon="-6.3382260">
        <ele>891.5</ele>
        <time>2019-08-16T08:47:29Z</time>
      </trkpt>
      <trkpt lat="42.0235570" lon="-6.3382710">
        <ele>891.6</ele>
        <time>2019-08-16T08:47:30Z</time>
      </trkpt>
      <trkpt lat="42.0235500" lon="-6.3383150">
        <ele>891.7</ele>
        <time>2019-08-16T08:47:31Z</time>
      </trkpt>
      <trkpt lat="42.0235420" lon="-6.3383580">
        <ele>891.8</ele>
        <time>2019-08-16T08:47:32Z</time>
      </trkpt>
      <trkpt lat="42.0235320" lon="-6.3384000">
        <ele>891.9</ele>
        <time>2019-08-16T08:47:33Z</time>
      </trkpt>
      <trkpt lat="42.0235210" lon="-6.3384380">
        <ele>892.0</ele>
        <time>2019-08-16T08:47:34Z</time>
      </trkpt>
      <trkpt lat="42.0235090" lon="-6.3384740">
        <ele>892.1</ele>
        <time>2019-08-16T08:47:35Z</time>
      </trkpt>
      <trkpt lat="42.0234980" lon="-6.3385130">
        <ele>892.2</ele>
        <time>2019-08-16T08:47:36Z</time>
      </trkpt>
      <trkpt lat="42.0234880" lon="-6.3385550">
        <ele>892.3</ele>
        <time>2019-08-16T08:47:37Z</time>
      </trkpt>
      <trkpt lat="42.0234790" lon="-6.3385990">
        <ele>892.5</ele>
        <time>2019-08-16T08:47:38Z</time>
      </trkpt>
      <trkpt lat="42.0234670" lon="-6.3386430">
        <ele>892.6</ele>
        <time>2019-08-16T08:47:39Z</time>
      </trkpt>
      <trkpt lat="42.0234540" lon="-6.3386850">
        <ele>892.7</ele>
        <time>2019-08-16T08:47:40Z</time>
      </trkpt>
      <trkpt lat="42.0234420" lon="-6.3387260">
        <ele>892.8</ele>
        <time>2019-08-16T08:47:41Z</time>
      </trkpt>
      <trkpt lat="42.0234300" lon="-6.3387670">
        <ele>892.9</ele>
        <time>2019-08-16T08:47:42Z</time>
      </trkpt>
      <trkpt lat="42.0234200" lon="-6.3388080">
        <ele>893.0</ele>
        <time>2019-08-16T08:47:43Z</time>
      </trkpt>
      <trkpt lat="42.0234090" lon="-6.3388490">
        <ele>893.1</ele>
        <time>2019-08-16T08:47:44Z</time>
      </trkpt>
      <trkpt lat="42.0234000" lon="-6.3388900">
        <ele>893.2</ele>
        <time>2019-08-16T08:47:45Z</time>
      </trkpt>
      <trkpt lat="42.0233900" lon="-6.3389310">
        <ele>893.3</ele>
        <time>2019-08-16T08:47:46Z</time>
      </trkpt>
      <trkpt lat="42.0233810" lon="-6.3389730">
        <ele>893.4</ele>
        <time>2019-08-16T08:47:47Z</time>
      </trkpt>
      <trkpt lat="42.0233740" lon="-6.3390150">
        <ele>893.4</ele>
        <time>2019-08-16T08:47:48Z</time>
      </trkpt>
      <trkpt lat="42.0233640" lon="-6.3390560">
        <ele>893.5</ele>
        <time>2019-08-16T08:47:49Z</time>
      </trkpt>
      <trkpt lat="42.0233560" lon="-6.3390960">
        <ele>893.6</ele>
        <time>2019-08-16T08:47:50Z</time>
      </trkpt>
      <trkpt lat="42.0233490" lon="-6.3391360">
        <ele>893.7</ele>
        <time>2019-08-16T08:47:51Z</time>
      </trkpt>
      <trkpt lat="42.0233430" lon="-6.3391760">
        <ele>893.8</ele>
        <time>2019-08-16T08:47:52Z</time>
      </trkpt>
      <trkpt lat="42.0233360" lon="-6.3392150">
        <ele>893.9</ele>
        <time>2019-08-16T08:47:53Z</time>
      </trkpt>
      <trkpt lat="42.0233280" lon="-6.3392540">
        <ele>894.0</ele>
        <time>2019-08-16T08:47:54Z</time>
      </trkpt>
      <trkpt lat="42.0233200" lon="-6.3392930">
        <ele>894.2</ele>
        <time>2019-08-16T08:47:55Z</time>
      </trkpt>
      <trkpt lat="42.0233130" lon="-6.3393320">
        <ele>894.3</ele>
        <time>2019-08-16T08:47:56Z</time>
      </trkpt>
      <trkpt lat="42.0233050" lon="-6.3393710">
        <ele>894.4</ele>
        <time>2019-08-16T08:47:57Z</time>
      </trkpt>
      <trkpt lat="42.0232980" lon="-6.3394100">
        <ele>894.5</ele>
        <time>2019-08-16T08:47:58Z</time>
      </trkpt>
      <trkpt lat="42.0232900" lon="-6.3394480">
        <ele>894.6</ele>
        <time>2019-08-16T08:47:59Z</time>
      </trkpt>
      <trkpt lat="42.0232820" lon="-6.3394850">
        <ele>894.7</ele>
        <time>2019-08-16T08:48:00Z</time>
      </trkpt>
      <trkpt lat="42.0232740" lon="-6.3395220">
        <ele>894.9</ele>
        <time>2019-08-16T08:48:01Z</time>
      </trkpt>
      <trkpt lat="42.0232680" lon="-6.3395590">
        <ele>895.0</ele>
        <time>2019-08-16T08:48:02Z</time>
      </trkpt>
      <trkpt lat="42.0232610" lon="-6.3395960">
        <ele>895.1</ele>
        <time>2019-08-16T08:48:03Z</time>
      </trkpt>
      <trkpt lat="42.0232530" lon="-6.3396330">
        <ele>895.3</ele>
        <time>2019-08-16T08:48:04Z</time>
      </trkpt>
      <trkpt lat="42.0232450" lon="-6.3396710">
        <ele>895.4</ele>
        <time>2019-08-16T08:48:05Z</time>
      </trkpt>
      <trkpt lat="42.0232360" lon="-6.3397100">
        <ele>895.5</ele>
        <time>2019-08-16T08:48:06Z</time>
      </trkpt>
      <trkpt lat="42.0232270" lon="-6.3397490">
        <ele>895.6</ele>
        <time>2019-08-16T08:48:07Z</time>
      </trkpt>
      <trkpt lat="42.0232190" lon="-6.3397890">
        <ele>895.7</ele>
        <time>2019-08-16T08:48:08Z</time>
      </trkpt>
      <trkpt lat="42.0232110" lon="-6.3398310">
        <ele>895.8</ele>
        <time>2019-08-16T08:48:09Z</time>
      </trkpt>
      <trkpt lat="42.0232040" lon="-6.3398720">
        <ele>896.0</ele>
        <time>2019-08-16T08:48:10Z</time>
      </trkpt>
      <trkpt lat="42.0231970" lon="-6.3399150">
        <ele>896.1</ele>
        <time>2019-08-16T08:48:11Z</time>
      </trkpt>
      <trkpt lat="42.0231900" lon="-6.3399590">
        <ele>896.2</ele>
        <time>2019-08-16T08:48:12Z</time>
      </trkpt>
      <trkpt lat="42.0231820" lon="-6.3400030">
        <ele>896.4</ele>
        <time>2019-08-16T08:48:13Z</time>
      </trkpt>
      <trkpt lat="42.0231760" lon="-6.3400470">
        <ele>896.5</ele>
        <time>2019-08-16T08:48:14Z</time>
      </trkpt>
      <trkpt lat="42.0231710" lon="-6.3400900">
        <ele>896.6</ele>
        <time>2019-08-16T08:48:15Z</time>
      </trkpt>
      <trkpt lat="42.0231700" lon="-6.3401300">
        <ele>896.7</ele>
        <time>2019-08-16T08:48:16Z</time>
      </trkpt>
      <trkpt lat="42.0231730" lon="-6.3401680">
        <ele>896.8</ele>
        <time>2019-08-16T08:48:17Z</time>
      </trkpt>
      <trkpt lat="42.0231860" lon="-6.3402330">
        <ele>897.0</ele>
        <time>2019-08-16T08:48:19Z</time>
      </trkpt>
      <trkpt lat="42.0232040" lon="-6.3402750">
        <ele>897.1</ele>
        <time>2019-08-16T08:48:21Z</time>
      </trkpt>
      <trkpt lat="42.0232400" lon="-6.3403180">
        <ele>897.2</ele>
        <time>2019-08-16T08:48:53Z</time>
      </trkpt>
      <trkpt lat="42.0232640" lon="-6.3403810">
        <ele>897.2</ele>
        <time>2019-08-16T08:48:55Z</time>
      </trkpt>
      <trkpt lat="42.0232880" lon="-6.3404450">
        <ele>897.3</ele>
        <time>2019-08-16T08:48:57Z</time>
      </trkpt>
      <trkpt lat="42.0233030" lon="-6.3404800">
        <ele>897.4</ele>
        <time>2019-08-16T08:48:58Z</time>
      </trkpt>
      <trkpt lat="42.0233210" lon="-6.3405150">
        <ele>897.4</ele>
        <time>2019-08-16T08:48:59Z</time>
      </trkpt>
      <trkpt lat="42.0233390" lon="-6.3405500">
        <ele>897.4</ele>
        <time>2019-08-16T08:49:00Z</time>
      </trkpt>
      <trkpt lat="42.0233590" lon="-6.3405810">
        <ele>897.5</ele>
        <time>2019-08-16T08:49:01Z</time>
      </trkpt>
      <trkpt lat="42.0233790" lon="-6.3406110">
        <ele>897.6</ele>
        <time>2019-08-16T08:49:02Z</time>
      </trkpt>
      <trkpt lat="42.0234010" lon="-6.3406420">
        <ele>897.7</ele>
        <time>2019-08-16T08:49:03Z</time>
      </trkpt>
      <trkpt lat="42.0234220" lon="-6.3406740">
        <ele>897.8</ele>
        <time>2019-08-16T08:49:04Z</time>
      </trkpt>
      <trkpt lat="42.0234430" lon="-6.3407050">
        <ele>897.9</ele>
        <time>2019-08-16T08:49:05Z</time>
      </trkpt>
      <trkpt lat="42.0234650" lon="-6.3407370">
        <ele>898.0</ele>
        <time>2019-08-16T08:49:06Z</time>
      </trkpt>
      <trkpt lat="42.0234880" lon="-6.3407700">
        <ele>898.1</ele>
        <time>2019-08-16T08:49:07Z</time>
      </trkpt>
      <trkpt lat="42.0235100" lon="-6.3408020">
        <ele>898.2</ele>
        <time>2019-08-16T08:49:08Z</time>
      </trkpt>
      <trkpt lat="42.0235300" lon="-6.3408340">
        <ele>898.2</ele>
        <time>2019-08-16T08:49:09Z</time>
      </trkpt>
      <trkpt lat="42.0235490" lon="-6.3408660">
        <ele>898.3</ele>
        <time>2019-08-16T08:49:10Z</time>
      </trkpt>
      <trkpt lat="42.0235660" lon="-6.3408990">
        <ele>898.4</ele>
        <time>2019-08-16T08:49:11Z</time>
      </trkpt>
      <trkpt lat="42.0235810" lon="-6.3409330">
        <ele>898.5</ele>
        <time>2019-08-16T08:49:12Z</time>
      </trkpt>
      <trkpt lat="42.0235940" lon="-6.3409680">
        <ele>898.6</ele>
        <time>2019-08-16T08:49:13Z</time>
      </trkpt>
      <trkpt lat="42.0236050" lon="-6.3410050">
        <ele>898.7</ele>
        <time>2019-08-16T08:49:14Z</time>
      </trkpt>
      <trkpt lat="42.0236120" lon="-6.3410430">
        <ele>898.8</ele>
        <time>2019-08-16T08:49:15Z</time>
      </trkpt>
      <trkpt lat="42.0236080" lon="-6.3410830">
        <ele>898.9</ele>
        <time>2019-08-16T08:49:16Z</time>
      </trkpt>
      <trkpt lat="42.0235970" lon="-6.3411220">
        <ele>899.0</ele>
        <time>2019-08-16T08:49:17Z</time>
      </trkpt>
      <trkpt lat="42.0235840" lon="-6.3411600">
        <ele>899.0</ele>
        <time>2019-08-16T08:49:18Z</time>
      </trkpt>
      <trkpt lat="42.0235730" lon="-6.3411990">
        <ele>899.1</ele>
        <time>2019-08-16T08:49:19Z</time>
      </trkpt>
      <trkpt lat="42.0235650" lon="-6.3412370">
        <ele>899.2</ele>
        <time>2019-08-16T08:49:20Z</time>
      </trkpt>
      <trkpt lat="42.0235610" lon="-6.3412740">
        <ele>899.3</ele>
        <time>2019-08-16T08:49:21Z</time>
      </trkpt>
      <trkpt lat="42.0235600" lon="-6.3413100">
        <ele>899.4</ele>
        <time>2019-08-16T08:49:22Z</time>
      </trkpt>
      <trkpt lat="42.0235590" lon="-6.3413490">
        <ele>899.4</ele>
        <time>2019-08-16T08:49:23Z</time>
      </trkpt>
      <trkpt lat="42.0235580" lon="-6.3413890">
        <ele>899.5</ele>
        <time>2019-08-16T08:49:24Z</time>
      </trkpt>
      <trkpt lat="42.0235590" lon="-6.3414300">
        <ele>899.6</ele>
        <time>2019-08-16T08:49:25Z</time>
      </trkpt>
      <trkpt lat="42.0235620" lon="-6.3414700">
        <ele>899.7</ele>
        <time>2019-08-16T08:49:26Z</time>
      </trkpt>
      <trkpt lat="42.0235650" lon="-6.3415100">
        <ele>899.8</ele>
        <time>2019-08-16T08:49:27Z</time>
      </trkpt>
      <trkpt lat="42.0235670" lon="-6.3415490">
        <ele>899.8</ele>
        <time>2019-08-16T08:49:28Z</time>
      </trkpt>
      <trkpt lat="42.0235700" lon="-6.3415890">
        <ele>899.9</ele>
        <time>2019-08-16T08:49:29Z</time>
      </trkpt>
      <trkpt lat="42.0235720" lon="-6.3416290">
        <ele>900.0</ele>
        <time>2019-08-16T08:49:30Z</time>
      </trkpt>
      <trkpt lat="42.0235730" lon="-6.3416670">
        <ele>900.1</ele>
        <time>2019-08-16T08:49:31Z</time>
      </trkpt>
      <trkpt lat="42.0235740" lon="-6.3417050">
        <ele>900.2</ele>
        <time>2019-08-16T08:49:32Z</time>
      </trkpt>
      <trkpt lat="42.0235750" lon="-6.3417440">
        <ele>900.3</ele>
        <time>2019-08-16T08:49:33Z</time>
      </trkpt>
      <trkpt lat="42.0235770" lon="-6.3417840">
        <ele>900.4</ele>
        <time>2019-08-16T08:49:34Z</time>
      </trkpt>
      <trkpt lat="42.0235800" lon="-6.3418250">
        <ele>900.5</ele>
        <time>2019-08-16T08:49:35Z</time>
      </trkpt>
      <trkpt lat="42.0235820" lon="-6.3418660">
        <ele>900.6</ele>
        <time>2019-08-16T08:49:36Z</time>
      </trkpt>
      <trkpt lat="42.0235840" lon="-6.3419070">
        <ele>900.7</ele>
        <time>2019-08-16T08:49:37Z</time>
      </trkpt>
      <trkpt lat="42.0235870" lon="-6.3419490">
        <ele>900.8</ele>
        <time>2019-08-16T08:49:38Z</time>
      </trkpt>
      <trkpt lat="42.0235900" lon="-6.3419890">
        <ele>900.9</ele>
        <time>2019-08-16T08:49:39Z</time>
      </trkpt>
      <trkpt lat="42.0235930" lon="-6.3420280">
        <ele>901.1</ele>
        <time>2019-08-16T08:49:40Z</time>
      </trkpt>
      <trkpt lat="42.0235960" lon="-6.3420650">
        <ele>901.2</ele>
        <time>2019-08-16T08:49:41Z</time>
      </trkpt>
      <trkpt lat="42.0235990" lon="-6.3421350">
        <ele>901.4</ele>
        <time>2019-08-16T08:49:43Z</time>
      </trkpt>
      <trkpt lat="42.0235980" lon="-6.3421740">
        <ele>901.6</ele>
        <time>2019-08-16T08:49:44Z</time>
      </trkpt>
      <trkpt lat="42.0235980" lon="-6.3422170">
        <ele>901.8</ele>
        <time>2019-08-16T08:49:45Z</time>
      </trkpt>
      <trkpt lat="42.0235990" lon="-6.3422600">
        <ele>902.0</ele>
        <time>2019-08-16T08:49:46Z</time>
      </trkpt>
      <trkpt lat="42.0235990" lon="-6.3423030">
        <ele>902.2</ele>
        <time>2019-08-16T08:49:47Z</time>
      </trkpt>
      <trkpt lat="42.0235990" lon="-6.3423440">
        <ele>902.3</ele>
        <time>2019-08-16T08:49:48Z</time>
      </trkpt>
      <trkpt lat="42.0235990" lon="-6.3423820">
        <ele>902.5</ele>
        <time>2019-08-16T08:49:49Z</time>
      </trkpt>
      <trkpt lat="42.0235990" lon="-6.3424190">
        <ele>902.6</ele>
        <time>2019-08-16T08:49:50Z</time>
      </trkpt>
      <trkpt lat="42.0235980" lon="-6.3424900">
        <ele>902.9</ele>
        <time>2019-08-16T08:49:52Z</time>
      </trkpt>
      <trkpt lat="42.0235970" lon="-6.3425610">
        <ele>903.2</ele>
        <time>2019-08-16T08:49:54Z</time>
      </trkpt>
      <trkpt lat="42.0235950" lon="-6.3425970">
        <ele>903.3</ele>
        <time>2019-08-16T08:49:55Z</time>
      </trkpt>
      <trkpt lat="42.0235930" lon="-6.3426350">
        <ele>903.5</ele>
        <time>2019-08-16T08:49:56Z</time>
      </trkpt>
      <trkpt lat="42.0235910" lon="-6.3426720">
        <ele>903.6</ele>
        <time>2019-08-16T08:49:57Z</time>
      </trkpt>
      <trkpt lat="42.0235890" lon="-6.3427100">
        <ele>903.8</ele>
        <time>2019-08-16T08:49:58Z</time>
      </trkpt>
      <trkpt lat="42.0235870" lon="-6.3427480">
        <ele>904.0</ele>
        <time>2019-08-16T08:49:59Z</time>
      </trkpt>
      <trkpt lat="42.0235850" lon="-6.3427860">
        <ele>904.1</ele>
        <time>2019-08-16T08:50:00Z</time>
      </trkpt>
      <trkpt lat="42.0235820" lon="-6.3428220">
        <ele>904.3</ele>
        <time>2019-08-16T08:50:01Z</time>
      </trkpt>
      <trkpt lat="42.0235740" lon="-6.3428890">
        <ele>904.5</ele>
        <time>2019-08-16T08:50:03Z</time>
      </trkpt>
      <trkpt lat="42.0235650" lon="-6.3429500">
        <ele>904.8</ele>
        <time>2019-08-16T08:50:05Z</time>
      </trkpt>
      <trkpt lat="42.0235560" lon="-6.3430070">
        <ele>905.0</ele>
        <time>2019-08-16T08:50:07Z</time>
      </trkpt>
      <trkpt lat="42.0235430" lon="-6.3430640">
        <ele>905.2</ele>
        <time>2019-08-16T08:50:09Z</time>
      </trkpt>
      <trkpt lat="42.0235310" lon="-6.3431260">
        <ele>905.5</ele>
        <time>2019-08-16T08:50:11Z</time>
      </trkpt>
      <trkpt lat="42.0235180" lon="-6.3431920">
        <ele>905.7</ele>
        <time>2019-08-16T08:50:13Z</time>
      </trkpt>
      <trkpt lat="42.0235040" lon="-6.3432570">
        <ele>906.0</ele>
        <time>2019-08-16T08:50:15Z</time>
      </trkpt>
      <trkpt lat="42.0234880" lon="-6.3433170">
        <ele>906.4</ele>
        <time>2019-08-16T08:50:17Z</time>
      </trkpt>
      <trkpt lat="42.0234730" lon="-6.3433720">
        <ele>906.7</ele>
        <time>2019-08-16T08:50:19Z</time>
      </trkpt>
      <trkpt lat="42.0234620" lon="-6.3434240">
        <ele>907.1</ele>
        <time>2019-08-16T08:50:21Z</time>
      </trkpt>
      <trkpt lat="42.0234520" lon="-6.3434720">
        <ele>907.4</ele>
        <time>2019-08-16T08:50:23Z</time>
      </trkpt>
      <trkpt lat="42.0234410" lon="-6.3435190">
        <ele>907.7</ele>
        <time>2019-08-16T08:50:25Z</time>
      </trkpt>
      <trkpt lat="42.0234330" lon="-6.3435670">
        <ele>908.2</ele>
        <time>2019-08-16T08:50:27Z</time>
      </trkpt>
      <trkpt lat="42.0234270" lon="-6.3436170">
        <ele>908.7</ele>
        <time>2019-08-16T08:50:29Z</time>
      </trkpt>
      <trkpt lat="42.0234240" lon="-6.3436690">
        <ele>909.1</ele>
        <time>2019-08-16T08:50:31Z</time>
      </trkpt>
      <trkpt lat="42.0234230" lon="-6.3437220">
        <ele>909.6</ele>
        <time>2019-08-16T08:50:33Z</time>
      </trkpt>
      <trkpt lat="42.0234280" lon="-6.3437830">
        <ele>910.0</ele>
        <time>2019-08-16T08:50:35Z</time>
      </trkpt>
      <trkpt lat="42.0234330" lon="-6.3438530">
        <ele>910.5</ele>
        <time>2019-08-16T08:50:37Z</time>
      </trkpt>
      <trkpt lat="42.0234380" lon="-6.3439240">
        <ele>910.9</ele>
        <time>2019-08-16T08:50:39Z</time>
      </trkpt>
      <trkpt lat="42.0234400" lon="-6.3439620">
        <ele>911.1</ele>
        <time>2019-08-16T08:50:40Z</time>
      </trkpt>
      <trkpt lat="42.0234430" lon="-6.3440000">
        <ele>911.2</ele>
        <time>2019-08-16T08:50:41Z</time>
      </trkpt>
      <trkpt lat="42.0234460" lon="-6.3440390">
        <ele>911.4</ele>
        <time>2019-08-16T08:50:42Z</time>
      </trkpt>
      <trkpt lat="42.0234490" lon="-6.3440780">
        <ele>911.5</ele>
        <time>2019-08-16T08:50:43Z</time>
      </trkpt>
      <trkpt lat="42.0234520" lon="-6.3441170">
        <ele>911.6</ele>
        <time>2019-08-16T08:50:44Z</time>
      </trkpt>
      <trkpt lat="42.0234530" lon="-6.3441590">
        <ele>911.7</ele>
        <time>2019-08-16T08:50:45Z</time>
      </trkpt>
      <trkpt lat="42.0234560" lon="-6.3442030">
        <ele>911.8</ele>
        <time>2019-08-16T08:50:46Z</time>
      </trkpt>
      <trkpt lat="42.0234610" lon="-6.3442470">
        <ele>911.9</ele>
        <time>2019-08-16T08:50:47Z</time>
      </trkpt>
      <trkpt lat="42.0234650" lon="-6.3442920">
        <ele>912.0</ele>
        <time>2019-08-16T08:50:48Z</time>
      </trkpt>
      <trkpt lat="42.0234670" lon="-6.3443370">
        <ele>912.1</ele>
        <time>2019-08-16T08:50:49Z</time>
      </trkpt>
      <trkpt lat="42.0234690" lon="-6.3443830">
        <ele>912.2</ele>
        <time>2019-08-16T08:50:50Z</time>
      </trkpt>
      <trkpt lat="42.0234720" lon="-6.3444280">
        <ele>912.3</ele>
        <time>2019-08-16T08:50:51Z</time>
      </trkpt>
      <trkpt lat="42.0234770" lon="-6.3444730">
        <ele>912.4</ele>
        <time>2019-08-16T08:50:52Z</time>
      </trkpt>
      <trkpt lat="42.0234820" lon="-6.3445190">
        <ele>912.5</ele>
        <time>2019-08-16T08:50:53Z</time>
      </trkpt>
      <trkpt lat="42.0234880" lon="-6.3445650">
        <ele>912.6</ele>
        <time>2019-08-16T08:50:54Z</time>
      </trkpt>
      <trkpt lat="42.0234940" lon="-6.3446110">
        <ele>912.6</ele>
        <time>2019-08-16T08:50:55Z</time>
      </trkpt>
      <trkpt lat="42.0234990" lon="-6.3446580">
        <ele>912.7</ele>
        <time>2019-08-16T08:50:56Z</time>
      </trkpt>
      <trkpt lat="42.0235050" lon="-6.3447040">
        <ele>912.8</ele>
        <time>2019-08-16T08:50:57Z</time>
      </trkpt>
      <trkpt lat="42.0235110" lon="-6.3447510">
        <ele>912.8</ele>
        <time>2019-08-16T08:50:58Z</time>
      </trkpt>
      <trkpt lat="42.0235160" lon="-6.3448000">
        <ele>912.9</ele>
        <time>2019-08-16T08:50:59Z</time>
      </trkpt>
      <trkpt lat="42.0235210" lon="-6.3448510">
        <ele>913.0</ele>
        <time>2019-08-16T08:51:00Z</time>
      </trkpt>
      <trkpt lat="42.0235260" lon="-6.3449040">
        <ele>913.1</ele>
        <time>2019-08-16T08:51:01Z</time>
      </trkpt>
      <trkpt lat="42.0235300" lon="-6.3449560">
        <ele>913.2</ele>
        <time>2019-08-16T08:51:02Z</time>
      </trkpt>
      <trkpt lat="42.0235310" lon="-6.3450100">
        <ele>913.2</ele>
        <time>2019-08-16T08:51:03Z</time>
      </trkpt>
      <trkpt lat="42.0235300" lon="-6.3450660">
        <ele>913.3</ele>
        <time>2019-08-16T08:51:04Z</time>
      </trkpt>
      <trkpt lat="42.0235290" lon="-6.3451210">
        <ele>913.3</ele>
        <time>2019-08-16T08:51:05Z</time>
      </trkpt>
      <trkpt lat="42.0235280" lon="-6.3451750">
        <ele>913.3</ele>
        <time>2019-08-16T08:51:06Z</time>
      </trkpt>
      <trkpt lat="42.0235250" lon="-6.3452280">
        <ele>913.3</ele>
        <time>2019-08-16T08:51:07Z</time>
      </trkpt>
      <trkpt lat="42.0235190" lon="-6.3452810">
        <ele>913.3</ele>
        <time>2019-08-16T08:51:08Z</time>
      </trkpt>
      <trkpt lat="42.0235120" lon="-6.3453370">
        <ele>913.3</ele>
        <time>2019-08-16T08:51:09Z</time>
      </trkpt>
      <trkpt lat="42.0235030" lon="-6.3453950">
        <ele>913.3</ele>
        <time>2019-08-16T08:51:10Z</time>
      </trkpt>
      <trkpt lat="42.0234910" lon="-6.3454530">
        <ele>913.3</ele>
        <time>2019-08-16T08:51:11Z</time>
      </trkpt>
      <trkpt lat="42.0234780" lon="-6.3455130">
        <ele>913.4</ele>
        <time>2019-08-16T08:51:12Z</time>
      </trkpt>
      <trkpt lat="42.0234650" lon="-6.3455730">
        <ele>913.4</ele>
        <time>2019-08-16T08:51:13Z</time>
      </trkpt>
      <trkpt lat="42.0234530" lon="-6.3456300">
        <ele>913.4</ele>
        <time>2019-08-16T08:51:14Z</time>
      </trkpt>
      <trkpt lat="42.0234420" lon="-6.3456890">
        <ele>913.4</ele>
        <time>2019-08-16T08:51:15Z</time>
      </trkpt>
      <trkpt lat="42.0234310" lon="-6.3457500">
        <ele>913.4</ele>
        <time>2019-08-16T08:51:16Z</time>
      </trkpt>
      <trkpt lat="42.0234210" lon="-6.3458150">
        <ele>913.4</ele>
        <time>2019-08-16T08:51:17Z</time>
      </trkpt>
      <trkpt lat="42.0234130" lon="-6.3458800">
        <ele>913.4</ele>
        <time>2019-08-16T08:51:18Z</time>
      </trkpt>
      <trkpt lat="42.0234070" lon="-6.3459470">
        <ele>913.4</ele>
        <time>2019-08-16T08:51:19Z</time>
      </trkpt>
      <trkpt lat="42.0234030" lon="-6.3460140">
        <ele>913.4</ele>
        <time>2019-08-16T08:51:20Z</time>
      </trkpt>
      <trkpt lat="42.0233980" lon="-6.3460790">
        <ele>913.4</ele>
        <time>2019-08-16T08:51:21Z</time>
      </trkpt>
      <trkpt lat="42.0233960" lon="-6.3461430">
        <ele>913.4</ele>
        <time>2019-08-16T08:51:22Z</time>
      </trkpt>
      <trkpt lat="42.0233950" lon="-6.3462070">
        <ele>913.4</ele>
        <time>2019-08-16T08:51:23Z</time>
      </trkpt>
      <trkpt lat="42.0233930" lon="-6.3462720">
        <ele>913.4</ele>
        <time>2019-08-16T08:51:24Z</time>
      </trkpt>
      <trkpt lat="42.0233920" lon="-6.3463390">
        <ele>913.4</ele>
        <time>2019-08-16T08:51:25Z</time>
      </trkpt>
      <trkpt lat="42.0233900" lon="-6.3464040">
        <ele>913.4</ele>
        <time>2019-08-16T08:51:26Z</time>
      </trkpt>
      <trkpt lat="42.0233870" lon="-6.3464710">
        <ele>913.4</ele>
        <time>2019-08-16T08:51:27Z</time>
      </trkpt>
      <trkpt lat="42.0233860" lon="-6.3465370">
        <ele>913.3</ele>
        <time>2019-08-16T08:51:28Z</time>
      </trkpt>
      <trkpt lat="42.0233830" lon="-6.3466020">
        <ele>913.3</ele>
        <time>2019-08-16T08:51:29Z</time>
      </trkpt>
      <trkpt lat="42.0233810" lon="-6.3466670">
        <ele>913.3</ele>
        <time>2019-08-16T08:51:30Z</time>
      </trkpt>
      <trkpt lat="42.0233780" lon="-6.3467310">
        <ele>913.3</ele>
        <time>2019-08-16T08:51:31Z</time>
      </trkpt>
      <trkpt lat="42.0233760" lon="-6.3467970">
        <ele>913.3</ele>
        <time>2019-08-16T08:51:32Z</time>
      </trkpt>
      <trkpt lat="42.0233750" lon="-6.3468650">
        <ele>913.3</ele>
        <time>2019-08-16T08:51:33Z</time>
      </trkpt>
      <trkpt lat="42.0233740" lon="-6.3469330">
        <ele>913.3</ele>
        <time>2019-08-16T08:51:34Z</time>
      </trkpt>
      <trkpt lat="42.0233730" lon="-6.3470020">
        <ele>913.3</ele>
        <time>2019-08-16T08:51:35Z</time>
      </trkpt>
      <trkpt lat="42.0233710" lon="-6.3470710">
        <ele>913.2</ele>
        <time>2019-08-16T08:51:36Z</time>
      </trkpt>
      <trkpt lat="42.0233680" lon="-6.3471420">
        <ele>913.2</ele>
        <time>2019-08-16T08:51:37Z</time>
      </trkpt>
      <trkpt lat="42.0233660" lon="-6.3472120">
        <ele>913.2</ele>
        <time>2019-08-16T08:51:38Z</time>
      </trkpt>
      <trkpt lat="42.0233620" lon="-6.3472820">
        <ele>913.2</ele>
        <time>2019-08-16T08:51:39Z</time>
      </trkpt>
      <trkpt lat="42.0233580" lon="-6.3473500">
        <ele>913.1</ele>
        <time>2019-08-16T08:51:40Z</time>
      </trkpt>
      <trkpt lat="42.0233560" lon="-6.3474180">
        <ele>913.1</ele>
        <time>2019-08-16T08:51:41Z</time>
      </trkpt>
      <trkpt lat="42.0233550" lon="-6.3474870">
        <ele>913.1</ele>
        <time>2019-08-16T08:51:42Z</time>
      </trkpt>
      <trkpt lat="42.0233530" lon="-6.3475520">
        <ele>913.1</ele>
        <time>2019-08-16T08:51:43Z</time>
      </trkpt>
      <trkpt lat="42.0233530" lon="-6.3476150">
        <ele>913.2</ele>
        <time>2019-08-16T08:51:44Z</time>
      </trkpt>
      <trkpt lat="42.0233530" lon="-6.3476810">
        <ele>913.2</ele>
        <time>2019-08-16T08:51:45Z</time>
      </trkpt>
      <trkpt lat="42.0233540" lon="-6.3477490">
        <ele>913.2</ele>
        <time>2019-08-16T08:51:46Z</time>
      </trkpt>
      <trkpt lat="42.0233550" lon="-6.3478180">
        <ele>913.3</ele>
        <time>2019-08-16T08:51:47Z</time>
      </trkpt>
      <trkpt lat="42.0233560" lon="-6.3478870">
        <ele>913.3</ele>
        <time>2019-08-16T08:51:48Z</time>
      </trkpt>
      <trkpt lat="42.0233570" lon="-6.3479570">
        <ele>913.4</ele>
        <time>2019-08-16T08:51:49Z</time>
      </trkpt>
      <trkpt lat="42.0233590" lon="-6.3480270">
        <ele>913.4</ele>
        <time>2019-08-16T08:51:50Z</time>
      </trkpt>
      <trkpt lat="42.0233620" lon="-6.3480960">
        <ele>913.4</ele>
        <time>2019-08-16T08:51:51Z</time>
      </trkpt>
      <trkpt lat="42.0233650" lon="-6.3481630">
        <ele>913.5</ele>
        <time>2019-08-16T08:51:52Z</time>
      </trkpt>
      <trkpt lat="42.0233670" lon="-6.3482320">
        <ele>913.5</ele>
        <time>2019-08-16T08:51:53Z</time>
      </trkpt>
      <trkpt lat="42.0233680" lon="-6.3483020">
        <ele>913.5</ele>
        <time>2019-08-16T08:51:54Z</time>
      </trkpt>
      <trkpt lat="42.0233710" lon="-6.3483720">
        <ele>913.6</ele>
        <time>2019-08-16T08:51:55Z</time>
      </trkpt>
      <trkpt lat="42.0233760" lon="-6.3484430">
        <ele>913.6</ele>
        <time>2019-08-16T08:51:56Z</time>
      </trkpt>
      <trkpt lat="42.0233790" lon="-6.3485140">
        <ele>913.6</ele>
        <time>2019-08-16T08:51:57Z</time>
      </trkpt>
      <trkpt lat="42.0233840" lon="-6.3485840">
        <ele>913.6</ele>
        <time>2019-08-16T08:51:58Z</time>
      </trkpt>
      <trkpt lat="42.0233900" lon="-6.3486530">
        <ele>913.7</ele>
        <time>2019-08-16T08:51:59Z</time>
      </trkpt>
      <trkpt lat="42.0233960" lon="-6.3487220">
        <ele>913.7</ele>
        <time>2019-08-16T08:52:00Z</time>
      </trkpt>
      <trkpt lat="42.0234030" lon="-6.3487940">
        <ele>913.7</ele>
        <time>2019-08-16T08:52:01Z</time>
      </trkpt>
      <trkpt lat="42.0234100" lon="-6.3488650">
        <ele>913.7</ele>
        <time>2019-08-16T08:52:02Z</time>
      </trkpt>
      <trkpt lat="42.0234180" lon="-6.3489370">
        <ele>913.7</ele>
        <time>2019-08-16T08:52:03Z</time>
      </trkpt>
      <trkpt lat="42.0234250" lon="-6.3490110">
        <ele>913.7</ele>
        <time>2019-08-16T08:52:04Z</time>
      </trkpt>
      <trkpt lat="42.0234310" lon="-6.3490820">
        <ele>913.8</ele>
        <time>2019-08-16T08:52:05Z</time>
      </trkpt>
      <trkpt lat="42.0234410" lon="-6.3491540">
        <ele>913.8</ele>
        <time>2019-08-16T08:52:06Z</time>
      </trkpt>
      <trkpt lat="42.0234510" lon="-6.3492260">
        <ele>913.8</ele>
        <time>2019-08-16T08:52:07Z</time>
      </trkpt>
      <trkpt lat="42.0234610" lon="-6.3492990">
        <ele>913.8</ele>
        <time>2019-08-16T08:52:08Z</time>
      </trkpt>
      <trkpt lat="42.0234740" lon="-6.3493710">
        <ele>913.8</ele>
        <time>2019-08-16T08:52:09Z</time>
      </trkpt>
      <trkpt lat="42.0234880" lon="-6.3494420">
        <ele>913.8</ele>
        <time>2019-08-16T08:52:10Z</time>
      </trkpt>
      <trkpt lat="42.0235020" lon="-6.3495130">
        <ele>913.8</ele>
        <time>2019-08-16T08:52:11Z</time>
      </trkpt>
      <trkpt lat="42.0235170" lon="-6.3495840">
        <ele>913.8</ele>
        <time>2019-08-16T08:52:12Z</time>
      </trkpt>
      <trkpt lat="42.0235320" lon="-6.3496540">
        <ele>913.8</ele>
        <time>2019-08-16T08:52:13Z</time>
      </trkpt>
      <trkpt lat="42.0235470" lon="-6.3497240">
        <ele>913.7</ele>
        <time>2019-08-16T08:52:14Z</time>
      </trkpt>
      <trkpt lat="42.0235600" lon="-6.3497950">
        <ele>913.7</ele>
        <time>2019-08-16T08:52:15Z</time>
      </trkpt>
      <trkpt lat="42.0235710" lon="-6.3498670">
        <ele>913.7</ele>
        <time>2019-08-16T08:52:16Z</time>
      </trkpt>
      <trkpt lat="42.0235770" lon="-6.3499390">
        <ele>913.7</ele>
        <time>2019-08-16T08:52:17Z</time>
      </trkpt>
      <trkpt lat="42.0235820" lon="-6.3500120">
        <ele>913.7</ele>
        <time>2019-08-16T08:52:18Z</time>
      </trkpt>
      <trkpt lat="42.0235850" lon="-6.3500850">
        <ele>913.7</ele>
        <time>2019-08-16T08:52:19Z</time>
      </trkpt>
      <trkpt lat="42.0235860" lon="-6.3501580">
        <ele>913.6</ele>
        <time>2019-08-16T08:52:20Z</time>
      </trkpt>
      <trkpt lat="42.0235840" lon="-6.3502290">
        <ele>913.6</ele>
        <time>2019-08-16T08:52:21Z</time>
      </trkpt>
      <trkpt lat="42.0235810" lon="-6.3503000">
        <ele>913.6</ele>
        <time>2019-08-16T08:52:22Z</time>
      </trkpt>
      <trkpt lat="42.0235760" lon="-6.3503730">
        <ele>913.7</ele>
        <time>2019-08-16T08:52:23Z</time>
      </trkpt>
      <trkpt lat="42.0235720" lon="-6.3504480">
        <ele>913.7</ele>
        <time>2019-08-16T08:52:24Z</time>
      </trkpt>
      <trkpt lat="42.0235670" lon="-6.3505240">
        <ele>913.7</ele>
        <time>2019-08-16T08:52:25Z</time>
      </trkpt>
      <trkpt lat="42.0235600" lon="-6.3506000">
        <ele>913.7</ele>
        <time>2019-08-16T08:52:26Z</time>
      </trkpt>
      <trkpt lat="42.0235540" lon="-6.3506770">
        <ele>913.7</ele>
        <time>2019-08-16T08:52:27Z</time>
      </trkpt>
      <trkpt lat="42.0235480" lon="-6.3507510">
        <ele>913.7</ele>
        <time>2019-08-16T08:52:28Z</time>
      </trkpt>
      <trkpt lat="42.0235440" lon="-6.3508230">
        <ele>913.8</ele>
        <time>2019-08-16T08:52:29Z</time>
      </trkpt>
      <trkpt lat="42.0235390" lon="-6.3508950">
        <ele>913.8</ele>
        <time>2019-08-16T08:52:30Z</time>
      </trkpt>
      <trkpt lat="42.0235340" lon="-6.3509670">
        <ele>913.8</ele>
        <time>2019-08-16T08:52:31Z</time>
      </trkpt>
      <trkpt lat="42.0235300" lon="-6.3510400">
        <ele>913.8</ele>
        <time>2019-08-16T08:52:32Z</time>
      </trkpt>
      <trkpt lat="42.0235270" lon="-6.3511130">
        <ele>913.8</ele>
        <time>2019-08-16T08:52:33Z</time>
      </trkpt>
      <trkpt lat="42.0235240" lon="-6.3511820">
        <ele>913.8</ele>
        <time>2019-08-16T08:52:34Z</time>
      </trkpt>
      <trkpt lat="42.0235210" lon="-6.3512520">
        <ele>913.8</ele>
        <time>2019-08-16T08:52:35Z</time>
      </trkpt>
      <trkpt lat="42.0235200" lon="-6.3513220">
        <ele>913.8</ele>
        <time>2019-08-16T08:52:36Z</time>
      </trkpt>
      <trkpt lat="42.0235210" lon="-6.3513930">
        <ele>913.8</ele>
        <time>2019-08-16T08:52:37Z</time>
      </trkpt>
      <trkpt lat="42.0235230" lon="-6.3514630">
        <ele>913.8</ele>
        <time>2019-08-16T08:52:38Z</time>
      </trkpt>
      <trkpt lat="42.0235260" lon="-6.3515350">
        <ele>913.8</ele>
        <time>2019-08-16T08:52:39Z</time>
      </trkpt>
      <trkpt lat="42.0235290" lon="-6.3516070">
        <ele>913.8</ele>
        <time>2019-08-16T08:52:40Z</time>
      </trkpt>
      <trkpt lat="42.0235290" lon="-6.3516780">
        <ele>913.9</ele>
        <time>2019-08-16T08:52:41Z</time>
      </trkpt>
      <trkpt lat="42.0235280" lon="-6.3517490">
        <ele>913.9</ele>
        <time>2019-08-16T08:52:42Z</time>
      </trkpt>
      <trkpt lat="42.0235270" lon="-6.3518200">
        <ele>913.9</ele>
        <time>2019-08-16T08:52:43Z</time>
      </trkpt>
      <trkpt lat="42.0235240" lon="-6.3518910">
        <ele>913.9</ele>
        <time>2019-08-16T08:52:44Z</time>
      </trkpt>
      <trkpt lat="42.0235210" lon="-6.3519610">
        <ele>914.0</ele>
        <time>2019-08-16T08:52:45Z</time>
      </trkpt>
      <trkpt lat="42.0235170" lon="-6.3520310">
        <ele>914.0</ele>
        <time>2019-08-16T08:52:46Z</time>
      </trkpt>
      <trkpt lat="42.0235160" lon="-6.3521010">
        <ele>914.0</ele>
        <time>2019-08-16T08:52:47Z</time>
      </trkpt>
      <trkpt lat="42.0235170" lon="-6.3521700">
        <ele>914.1</ele>
        <time>2019-08-16T08:52:48Z</time>
      </trkpt>
      <trkpt lat="42.0235180" lon="-6.3522390">
        <ele>914.2</ele>
        <time>2019-08-16T08:52:49Z</time>
      </trkpt>
      <trkpt lat="42.0235200" lon="-6.3523040">
        <ele>914.2</ele>
        <time>2019-08-16T08:52:50Z</time>
      </trkpt>
      <trkpt lat="42.0235210" lon="-6.3523540">
        <ele>914.3</ele>
        <time>2019-08-16T08:52:51Z</time>
      </trkpt>
      <trkpt lat="42.0235210" lon="-6.3524020">
        <ele>914.3</ele>
        <time>2019-08-16T08:52:53Z</time>
      </trkpt>
      <trkpt lat="42.0235140" lon="-6.3524930">
        <ele>914.3</ele>
        <time>2019-08-16T08:53:25Z</time>
      </trkpt>
      <trkpt lat="42.0235100" lon="-6.3525720">
        <ele>914.3</ele>
        <time>2019-08-16T08:53:27Z</time>
      </trkpt>
      <trkpt lat="42.0235090" lon="-6.3526170">
        <ele>914.4</ele>
        <time>2019-08-16T08:53:28Z</time>
      </trkpt>
      <trkpt lat="42.0235130" lon="-6.3526650">
        <ele>914.4</ele>
        <time>2019-08-16T08:53:29Z</time>
      </trkpt>
      <trkpt lat="42.0235220" lon="-6.3527120">
        <ele>914.4</ele>
        <time>2019-08-16T08:53:30Z</time>
      </trkpt>
      <trkpt lat="42.0235290" lon="-6.3527610">
        <ele>914.5</ele>
        <time>2019-08-16T08:53:31Z</time>
      </trkpt>
      <trkpt lat="42.0235340" lon="-6.3528110">
        <ele>914.5</ele>
        <time>2019-08-16T08:53:32Z</time>
      </trkpt>
      <trkpt lat="42.0235370" lon="-6.3528610">
        <ele>914.6</ele>
        <time>2019-08-16T08:53:33Z</time>
      </trkpt>
      <trkpt lat="42.0235440" lon="-6.3529090">
        <ele>914.6</ele>
        <time>2019-08-16T08:53:34Z</time>
      </trkpt>
      <trkpt lat="42.0235500" lon="-6.3529580">
        <ele>914.7</ele>
        <time>2019-08-16T08:53:35Z</time>
      </trkpt>
      <trkpt lat="42.0235550" lon="-6.3530070">
        <ele>914.8</ele>
        <time>2019-08-16T08:53:36Z</time>
      </trkpt>
      <trkpt lat="42.0235580" lon="-6.3530560">
        <ele>914.9</ele>
        <time>2019-08-16T08:53:37Z</time>
      </trkpt>
      <trkpt lat="42.0235600" lon="-6.3531060">
        <ele>915.0</ele>
        <time>2019-08-16T08:53:38Z</time>
      </trkpt>
      <trkpt lat="42.0235620" lon="-6.3531540">
        <ele>915.1</ele>
        <time>2019-08-16T08:53:39Z</time>
      </trkpt>
      <trkpt lat="42.0235640" lon="-6.3532020">
        <ele>915.2</ele>
        <time>2019-08-16T08:53:40Z</time>
      </trkpt>
      <trkpt lat="42.0235670" lon="-6.3532490">
        <ele>915.3</ele>
        <time>2019-08-16T08:53:41Z</time>
      </trkpt>
      <trkpt lat="42.0235680" lon="-6.3532940">
        <ele>915.4</ele>
        <time>2019-08-16T08:53:42Z</time>
      </trkpt>
      <trkpt lat="42.0235690" lon="-6.3533370">
        <ele>915.5</ele>
        <time>2019-08-16T08:53:43Z</time>
      </trkpt>
      <trkpt lat="42.0235690" lon="-6.3533790">
        <ele>915.6</ele>
        <time>2019-08-16T08:53:44Z</time>
      </trkpt>
      <trkpt lat="42.0235690" lon="-6.3534200">
        <ele>915.6</ele>
        <time>2019-08-16T08:53:45Z</time>
      </trkpt>
      <trkpt lat="42.0235680" lon="-6.3534630">
        <ele>915.7</ele>
        <time>2019-08-16T08:53:46Z</time>
      </trkpt>
      <trkpt lat="42.0235650" lon="-6.3535050">
        <ele>915.9</ele>
        <time>2019-08-16T08:53:47Z</time>
      </trkpt>
      <trkpt lat="42.0235600" lon="-6.3535460">
        <ele>916.0</ele>
        <time>2019-08-16T08:53:48Z</time>
      </trkpt>
      <trkpt lat="42.0235550" lon="-6.3535860">
        <ele>916.1</ele>
        <time>2019-08-16T08:53:49Z</time>
      </trkpt>
      <trkpt lat="42.0235530" lon="-6.3536270">
        <ele>916.2</ele>
        <time>2019-08-16T08:53:50Z</time>
      </trkpt>
      <trkpt lat="42.0235530" lon="-6.3536690">
        <ele>916.5</ele>
        <time>2019-08-16T08:53:51Z</time>
      </trkpt>
      <trkpt lat="42.0235560" lon="-6.3537110">
        <ele>916.6</ele>
        <time>2019-08-16T08:53:52Z</time>
      </trkpt>
      <trkpt lat="42.0235630" lon="-6.3537530">
        <ele>916.7</ele>
        <time>2019-08-16T08:53:53Z</time>
      </trkpt>
      <trkpt lat="42.0235730" lon="-6.3537960">
        <ele>916.9</ele>
        <time>2019-08-16T08:53:54Z</time>
      </trkpt>
      <trkpt lat="42.0235860" lon="-6.3538370">
        <ele>917.0</ele>
        <time>2019-08-16T08:53:55Z</time>
      </trkpt>
      <trkpt lat="42.0235970" lon="-6.3538790">
        <ele>917.1</ele>
        <time>2019-08-16T08:53:56Z</time>
      </trkpt>
      <trkpt lat="42.0236050" lon="-6.3539210">
        <ele>917.2</ele>
        <time>2019-08-16T08:53:57Z</time>
      </trkpt>
      <trkpt lat="42.0236110" lon="-6.3539630">
        <ele>917.3</ele>
        <time>2019-08-16T08:53:58Z</time>
      </trkpt>
      <trkpt lat="42.0236130" lon="-6.3540040">
        <ele>917.4</ele>
        <time>2019-08-16T08:53:59Z</time>
      </trkpt>
      <trkpt lat="42.0236080" lon="-6.3540440">
        <ele>917.5</ele>
        <time>2019-08-16T08:54:00Z</time>
      </trkpt>
      <trkpt lat="42.0236010" lon="-6.3540830">
        <ele>917.6</ele>
        <time>2019-08-16T08:54:01Z</time>
      </trkpt>
      <trkpt lat="42.0235960" lon="-6.3541210">
        <ele>917.7</ele>
        <time>2019-08-16T08:54:02Z</time>
      </trkpt>
      <trkpt lat="42.0235890" lon="-6.3541580">
        <ele>917.7</ele>
        <time>2019-08-16T08:54:03Z</time>
      </trkpt>
      <trkpt lat="42.0235820" lon="-6.3541950">
        <ele>917.8</ele>
        <time>2019-08-16T08:54:04Z</time>
      </trkpt>
      <trkpt lat="42.0235750" lon="-6.3542320">
        <ele>917.9</ele>
        <time>2019-08-16T08:54:05Z</time>
      </trkpt>
      <trkpt lat="42.0235680" lon="-6.3542700">
        <ele>917.9</ele>
        <time>2019-08-16T08:54:06Z</time>
      </trkpt>
      <trkpt lat="42.0235630" lon="-6.3543090">
        <ele>918.0</ele>
        <time>2019-08-16T08:54:07Z</time>
      </trkpt>
      <trkpt lat="42.0235590" lon="-6.3543480">
        <ele>918.1</ele>
        <time>2019-08-16T08:54:08Z</time>
      </trkpt>
      <trkpt lat="42.0235560" lon="-6.3543870">
        <ele>918.2</ele>
        <time>2019-08-16T08:54:09Z</time>
      </trkpt>
      <trkpt lat="42.0235550" lon="-6.3544260">
        <ele>918.2</ele>
        <time>2019-08-16T08:54:10Z</time>
      </trkpt>
      <trkpt lat="42.0235550" lon="-6.3544640">
        <ele>918.3</ele>
        <time>2019-08-16T08:54:11Z</time>
      </trkpt>
      <trkpt lat="42.0235550" lon="-6.3545020">
        <ele>918.4</ele>
        <time>2019-08-16T08:54:12Z</time>
      </trkpt>
      <trkpt lat="42.0235550" lon="-6.3545410">
        <ele>918.4</ele>
        <time>2019-08-16T08:54:13Z</time>
      </trkpt>
      <trkpt lat="42.0235560" lon="-6.3545790">
        <ele>918.5</ele>
        <time>2019-08-16T08:54:14Z</time>
      </trkpt>
      <trkpt lat="42.0235570" lon="-6.3546180">
        <ele>918.5</ele>
        <time>2019-08-16T08:54:15Z</time>
      </trkpt>
      <trkpt lat="42.0235580" lon="-6.3546580">
        <ele>918.6</ele>
        <time>2019-08-16T08:54:16Z</time>
      </trkpt>
      <trkpt lat="42.0235610" lon="-6.3546980">
        <ele>918.6</ele>
        <time>2019-08-16T08:54:17Z</time>
      </trkpt>
      <trkpt lat="42.0235620" lon="-6.3547400">
        <ele>918.7</ele>
        <time>2019-08-16T08:54:18Z</time>
      </trkpt>
      <trkpt lat="42.0235580" lon="-6.3547820">
        <ele>918.8</ele>
        <time>2019-08-16T08:54:19Z</time>
      </trkpt>
      <trkpt lat="42.0235530" lon="-6.3548250">
        <ele>918.8</ele>
        <time>2019-08-16T08:54:20Z</time>
      </trkpt>
      <trkpt lat="42.0235510" lon="-6.3548700">
        <ele>918.9</ele>
        <time>2019-08-16T08:54:21Z</time>
      </trkpt>
      <trkpt lat="42.0235540" lon="-6.3549160">
        <ele>918.9</ele>
        <time>2019-08-16T08:54:22Z</time>
      </trkpt>
      <trkpt lat="42.0235610" lon="-6.3549610">
        <ele>919.0</ele>
        <time>2019-08-16T08:54:23Z</time>
      </trkpt>
      <trkpt lat="42.0235750" lon="-6.3550040">
        <ele>919.1</ele>
        <time>2019-08-16T08:54:24Z</time>
      </trkpt>
      <trkpt lat="42.0235920" lon="-6.3550440">
        <ele>919.1</ele>
        <time>2019-08-16T08:54:25Z</time>
      </trkpt>
      <trkpt lat="42.0236100" lon="-6.3550800">
        <ele>919.2</ele>
        <time>2019-08-16T08:54:26Z</time>
      </trkpt>
      <trkpt lat="42.0236270" lon="-6.3551130">
        <ele>919.3</ele>
        <time>2019-08-16T08:54:27Z</time>
      </trkpt>
      <trkpt lat="42.0236420" lon="-6.3551430">
        <ele>919.3</ele>
        <time>2019-08-16T08:54:28Z</time>
      </trkpt>
      <trkpt lat="42.0236550" lon="-6.3551760">
        <ele>919.4</ele>
        <time>2019-08-16T08:54:29Z</time>
      </trkpt>
      <trkpt lat="42.0236640" lon="-6.3552140">
        <ele>919.4</ele>
        <time>2019-08-16T08:54:30Z</time>
      </trkpt>
      <trkpt lat="42.0236710" lon="-6.3552560">
        <ele>919.5</ele>
        <time>2019-08-16T08:54:31Z</time>
      </trkpt>
      <trkpt lat="42.0236750" lon="-6.3553000">
        <ele>919.5</ele>
        <time>2019-08-16T08:54:32Z</time>
      </trkpt>
      <trkpt lat="42.0236750" lon="-6.3553440">
        <ele>919.6</ele>
        <time>2019-08-16T08:54:33Z</time>
      </trkpt>
      <trkpt lat="42.0236720" lon="-6.3553910">
        <ele>919.6</ele>
        <time>2019-08-16T08:54:34Z</time>
      </trkpt>
      <trkpt lat="42.0236660" lon="-6.3554370">
        <ele>919.7</ele>
        <time>2019-08-16T08:54:35Z</time>
      </trkpt>
      <trkpt lat="42.0236600" lon="-6.3554830">
        <ele>919.8</ele>
        <time>2019-08-16T08:54:36Z</time>
      </trkpt>
      <trkpt lat="42.0236530" lon="-6.3555320">
        <ele>919.8</ele>
        <time>2019-08-16T08:54:37Z</time>
      </trkpt>
      <trkpt lat="42.0236440" lon="-6.3555820">
        <ele>919.9</ele>
        <time>2019-08-16T08:54:38Z</time>
      </trkpt>
      <trkpt lat="42.0236380" lon="-6.3556300">
        <ele>920.0</ele>
        <time>2019-08-16T08:54:39Z</time>
      </trkpt>
      <trkpt lat="42.0236300" lon="-6.3556770">
        <ele>920.0</ele>
        <time>2019-08-16T08:54:40Z</time>
      </trkpt>
      <trkpt lat="42.0236230" lon="-6.3557240">
        <ele>920.1</ele>
        <time>2019-08-16T08:54:41Z</time>
      </trkpt>
      <trkpt lat="42.0236160" lon="-6.3557690">
        <ele>920.2</ele>
        <time>2019-08-16T08:54:42Z</time>
      </trkpt>
      <trkpt lat="42.0236100" lon="-6.3558140">
        <ele>920.2</ele>
        <time>2019-08-16T08:54:43Z</time>
      </trkpt>
      <trkpt lat="42.0236050" lon="-6.3558580">
        <ele>920.3</ele>
        <time>2019-08-16T08:54:44Z</time>
      </trkpt>
      <trkpt lat="42.0236010" lon="-6.3559010">
        <ele>920.4</ele>
        <time>2019-08-16T08:54:45Z</time>
      </trkpt>
      <trkpt lat="42.0236000" lon="-6.3559440">
        <ele>920.4</ele>
        <time>2019-08-16T08:54:46Z</time>
      </trkpt>
      <trkpt lat="42.0235990" lon="-6.3559900">
        <ele>920.5</ele>
        <time>2019-08-16T08:54:47Z</time>
      </trkpt>
      <trkpt lat="42.0236010" lon="-6.3560350">
        <ele>920.5</ele>
        <time>2019-08-16T08:54:48Z</time>
      </trkpt>
      <trkpt lat="42.0236030" lon="-6.3560790">
        <ele>920.6</ele>
        <time>2019-08-16T08:54:49Z</time>
      </trkpt>
      <trkpt lat="42.0236030" lon="-6.3561210">
        <ele>920.7</ele>
        <time>2019-08-16T08:54:50Z</time>
      </trkpt>
      <trkpt lat="42.0236030" lon="-6.3561680">
        <ele>920.7</ele>
        <time>2019-08-16T08:54:51Z</time>
      </trkpt>
      <trkpt lat="42.0236000" lon="-6.3562120">
        <ele>920.8</ele>
        <time>2019-08-16T08:54:52Z</time>
      </trkpt>
      <trkpt lat="42.0235970" lon="-6.3562590">
        <ele>920.8</ele>
        <time>2019-08-16T08:54:53Z</time>
      </trkpt>
      <trkpt lat="42.0235920" lon="-6.3563070">
        <ele>920.9</ele>
        <time>2019-08-16T08:54:54Z</time>
      </trkpt>
      <trkpt lat="42.0235860" lon="-6.3563570">
        <ele>921.0</ele>
        <time>2019-08-16T08:54:55Z</time>
      </trkpt>
      <trkpt lat="42.0235830" lon="-6.3564060">
        <ele>921.0</ele>
        <time>2019-08-16T08:54:56Z</time>
      </trkpt>
      <trkpt lat="42.0235790" lon="-6.3564560">
        <ele>921.1</ele>
        <time>2019-08-16T08:54:57Z</time>
      </trkpt>
      <trkpt lat="42.0235800" lon="-6.3565040">
        <ele>921.2</ele>
        <time>2019-08-16T08:54:58Z</time>
      </trkpt>
      <trkpt lat="42.0235820" lon="-6.3565510">
        <ele>921.2</ele>
        <time>2019-08-16T08:54:59Z</time>
      </trkpt>
      <trkpt lat="42.0235850" lon="-6.3566000">
        <ele>921.3</ele>
        <time>2019-08-16T08:55:00Z</time>
      </trkpt>
      <trkpt lat="42.0235920" lon="-6.3566490">
        <ele>921.3</ele>
        <time>2019-08-16T08:55:01Z</time>
      </trkpt>
      <trkpt lat="42.0236000" lon="-6.3566980">
        <ele>921.4</ele>
        <time>2019-08-16T08:55:02Z</time>
      </trkpt>
      <trkpt lat="42.0236120" lon="-6.3567450">
        <ele>921.4</ele>
        <time>2019-08-16T08:55:03Z</time>
      </trkpt>
      <trkpt lat="42.0236250" lon="-6.3567910">
        <ele>921.5</ele>
        <time>2019-08-16T08:55:04Z</time>
      </trkpt>
      <trkpt lat="42.0236390" lon="-6.3568350">
        <ele>921.6</ele>
        <time>2019-08-16T08:55:05Z</time>
      </trkpt>
      <trkpt lat="42.0236540" lon="-6.3568770">
        <ele>921.6</ele>
        <time>2019-08-16T08:55:06Z</time>
      </trkpt>
      <trkpt lat="42.0236690" lon="-6.3569180">
        <ele>921.7</ele>
        <time>2019-08-16T08:55:07Z</time>
      </trkpt>
      <trkpt lat="42.0236820" lon="-6.3569560">
        <ele>921.7</ele>
        <time>2019-08-16T08:55:08Z</time>
      </trkpt>
      <trkpt lat="42.0236930" lon="-6.3569970">
        <ele>921.8</ele>
        <time>2019-08-16T08:55:09Z</time>
      </trkpt>
      <trkpt lat="42.0236990" lon="-6.3570410">
        <ele>921.8</ele>
        <time>2019-08-16T08:55:10Z</time>
      </trkpt>
      <trkpt lat="42.0236980" lon="-6.3570890">
        <ele>921.8</ele>
        <time>2019-08-16T08:55:11Z</time>
      </trkpt>
      <trkpt lat="42.0236930" lon="-6.3571360">
        <ele>921.9</ele>
        <time>2019-08-16T08:55:12Z</time>
      </trkpt>
      <trkpt lat="42.0236880" lon="-6.3571810">
        <ele>921.9</ele>
        <time>2019-08-16T08:55:13Z</time>
      </trkpt>
      <trkpt lat="42.0236830" lon="-6.3572290">
        <ele>922.0</ele>
        <time>2019-08-16T08:55:14Z</time>
      </trkpt>
      <trkpt lat="42.0236760" lon="-6.3572810">
        <ele>922.0</ele>
        <time>2019-08-16T08:55:15Z</time>
      </trkpt>
      <trkpt lat="42.0236670" lon="-6.3573340">
        <ele>922.1</ele>
        <time>2019-08-16T08:55:16Z</time>
      </trkpt>
      <trkpt lat="42.0236600" lon="-6.3573900">
        <ele>922.2</ele>
        <time>2019-08-16T08:55:17Z</time>
      </trkpt>
      <trkpt lat="42.0236520" lon="-6.3574480">
        <ele>922.2</ele>
        <time>2019-08-16T08:55:18Z</time>
      </trkpt>
      <trkpt lat="42.0236430" lon="-6.3575040">
        <ele>922.3</ele>
        <time>2019-08-16T08:55:19Z</time>
      </trkpt>
      <trkpt lat="42.0236350" lon="-6.3575560">
        <ele>922.3</ele>
        <time>2019-08-16T08:55:20Z</time>
      </trkpt>
      <trkpt lat="42.0236280" lon="-6.3576090">
        <ele>922.4</ele>
        <time>2019-08-16T08:55:21Z</time>
      </trkpt>
      <trkpt lat="42.0236230" lon="-6.3576620">
        <ele>922.4</ele>
        <time>2019-08-16T08:55:22Z</time>
      </trkpt>
      <trkpt lat="42.0236210" lon="-6.3577150">
        <ele>922.5</ele>
        <time>2019-08-16T08:55:23Z</time>
      </trkpt>
      <trkpt lat="42.0236210" lon="-6.3577710">
        <ele>922.5</ele>
        <time>2019-08-16T08:55:24Z</time>
      </trkpt>
      <trkpt lat="42.0236190" lon="-6.3578290">
        <ele>922.6</ele>
        <time>2019-08-16T08:55:25Z</time>
      </trkpt>
      <trkpt lat="42.0236170" lon="-6.3578880">
        <ele>922.7</ele>
        <time>2019-08-16T08:55:26Z</time>
      </trkpt>
      <trkpt lat="42.0236130" lon="-6.3579470">
        <ele>922.7</ele>
        <time>2019-08-16T08:55:27Z</time>
      </trkpt>
      <trkpt lat="42.0236120" lon="-6.3580010">
        <ele>922.8</ele>
        <time>2019-08-16T08:55:28Z</time>
      </trkpt>
      <trkpt lat="42.0236100" lon="-6.3580510">
        <ele>922.9</ele>
        <time>2019-08-16T08:55:29Z</time>
      </trkpt>
      <trkpt lat="42.0236050" lon="-6.3581040">
        <ele>922.9</ele>
        <time>2019-08-16T08:55:30Z</time>
      </trkpt>
      <trkpt lat="42.0235960" lon="-6.3581570">
        <ele>923.0</ele>
        <time>2019-08-16T08:55:31Z</time>
      </trkpt>
      <trkpt lat="42.0235890" lon="-6.3582120">
        <ele>923.0</ele>
        <time>2019-08-16T08:55:32Z</time>
      </trkpt>
      <trkpt lat="42.0235800" lon="-6.3582620">
        <ele>923.1</ele>
        <time>2019-08-16T08:55:33Z</time>
      </trkpt>
      <trkpt lat="42.0235680" lon="-6.3583090">
        <ele>923.2</ele>
        <time>2019-08-16T08:55:34Z</time>
      </trkpt>
      <trkpt lat="42.0235560" lon="-6.3583530">
        <ele>923.2</ele>
        <time>2019-08-16T08:55:35Z</time>
      </trkpt>
      <trkpt lat="42.0235460" lon="-6.3583930">
        <ele>923.3</ele>
        <time>2019-08-16T08:55:36Z</time>
      </trkpt>
      <trkpt lat="42.0235360" lon="-6.3584320">
        <ele>923.3</ele>
        <time>2019-08-16T08:55:37Z</time>
      </trkpt>
      <trkpt lat="42.0235280" lon="-6.3584710">
        <ele>923.4</ele>
        <time>2019-08-16T08:55:38Z</time>
      </trkpt>
      <trkpt lat="42.0235210" lon="-6.3585110">
        <ele>923.4</ele>
        <time>2019-08-16T08:55:39Z</time>
      </trkpt>
      <trkpt lat="42.0235150" lon="-6.3585540">
        <ele>923.5</ele>
        <time>2019-08-16T08:55:40Z</time>
      </trkpt>
      <trkpt lat="42.0235090" lon="-6.3585970">
        <ele>923.5</ele>
        <time>2019-08-16T08:55:41Z</time>
      </trkpt>
      <trkpt lat="42.0235050" lon="-6.3586420">
        <ele>923.5</ele>
        <time>2019-08-16T08:55:42Z</time>
      </trkpt>
      <trkpt lat="42.0235010" lon="-6.3586870">
        <ele>923.6</ele>
        <time>2019-08-16T08:55:43Z</time>
      </trkpt>
      <trkpt lat="42.0234950" lon="-6.3587330">
        <ele>923.6</ele>
        <time>2019-08-16T08:55:44Z</time>
      </trkpt>
      <trkpt lat="42.0234890" lon="-6.3587790">
        <ele>923.7</ele>
        <time>2019-08-16T08:55:45Z</time>
      </trkpt>
      <trkpt lat="42.0234830" lon="-6.3588280">
        <ele>923.7</ele>
        <time>2019-08-16T08:55:46Z</time>
      </trkpt>
      <trkpt lat="42.0234790" lon="-6.3588780">
        <ele>923.8</ele>
        <time>2019-08-16T08:55:47Z</time>
      </trkpt>
      <trkpt lat="42.0234730" lon="-6.3589280">
        <ele>923.8</ele>
        <time>2019-08-16T08:55:48Z</time>
      </trkpt>
      <trkpt lat="42.0234650" lon="-6.3589770">
        <ele>923.9</ele>
        <time>2019-08-16T08:55:49Z</time>
      </trkpt>
      <trkpt lat="42.0234580" lon="-6.3590270">
        <ele>923.9</ele>
        <time>2019-08-16T08:55:50Z</time>
      </trkpt>
      <trkpt lat="42.0234540" lon="-6.3590770">
        <ele>923.9</ele>
        <time>2019-08-16T08:55:51Z</time>
      </trkpt>
      <trkpt lat="42.0234500" lon="-6.3591280">
        <ele>924.0</ele>
        <time>2019-08-16T08:55:52Z</time>
      </trkpt>
      <trkpt lat="42.0234460" lon="-6.3591800">
        <ele>924.0</ele>
        <time>2019-08-16T08:55:53Z</time>
      </trkpt>
      <trkpt lat="42.0234430" lon="-6.3592330">
        <ele>924.0</ele>
        <time>2019-08-16T08:55:54Z</time>
      </trkpt>
      <trkpt lat="42.0234400" lon="-6.3592870">
        <ele>924.1</ele>
        <time>2019-08-16T08:55:55Z</time>
      </trkpt>
      <trkpt lat="42.0234360" lon="-6.3593390">
        <ele>924.1</ele>
        <time>2019-08-16T08:55:56Z</time>
      </trkpt>
      <trkpt lat="42.0234310" lon="-6.3593910">
        <ele>924.1</ele>
        <time>2019-08-16T08:55:57Z</time>
      </trkpt>
      <trkpt lat="42.0234260" lon="-6.3594450">
        <ele>924.2</ele>
        <time>2019-08-16T08:55:58Z</time>
      </trkpt>
      <trkpt lat="42.0234210" lon="-6.3594960">
        <ele>924.2</ele>
        <time>2019-08-16T08:55:59Z</time>
      </trkpt>
      <trkpt lat="42.0234170" lon="-6.3595490">
        <ele>924.2</ele>
        <time>2019-08-16T08:56:00Z</time>
      </trkpt>
      <trkpt lat="42.0234140" lon="-6.3596030">
        <ele>924.3</ele>
        <time>2019-08-16T08:56:01Z</time>
      </trkpt>
      <trkpt lat="42.0234150" lon="-6.3596530">
        <ele>924.3</ele>
        <time>2019-08-16T08:56:02Z</time>
      </trkpt>
      <trkpt lat="42.0234170" lon="-6.3597030">
        <ele>924.3</ele>
        <time>2019-08-16T08:56:03Z</time>
      </trkpt>
      <trkpt lat="42.0234220" lon="-6.3597500">
        <ele>924.4</ele>
        <time>2019-08-16T08:56:04Z</time>
      </trkpt>
      <trkpt lat="42.0234310" lon="-6.3597960">
        <ele>924.4</ele>
        <time>2019-08-16T08:56:05Z</time>
      </trkpt>
      <trkpt lat="42.0234450" lon="-6.3598430">
        <ele>924.4</ele>
        <time>2019-08-16T08:56:06Z</time>
      </trkpt>
      <trkpt lat="42.0234610" lon="-6.3598880">
        <ele>924.4</ele>
        <time>2019-08-16T08:56:07Z</time>
      </trkpt>
      <trkpt lat="42.0234780" lon="-6.3599350">
        <ele>924.4</ele>
        <time>2019-08-16T08:56:08Z</time>
      </trkpt>
      <trkpt lat="42.0234930" lon="-6.3599850">
        <ele>924.5</ele>
        <time>2019-08-16T08:56:09Z</time>
      </trkpt>
      <trkpt lat="42.0235080" lon="-6.3600360">
        <ele>924.5</ele>
        <time>2019-08-16T08:56:10Z</time>
      </trkpt>
      <trkpt lat="42.0235260" lon="-6.3600880">
        <ele>924.5</ele>
        <time>2019-08-16T08:56:11Z</time>
      </trkpt>
      <trkpt lat="42.0235470" lon="-6.3601380">
        <ele>924.5</ele>
        <time>2019-08-16T08:56:12Z</time>
      </trkpt>
      <trkpt lat="42.0235680" lon="-6.3601850">
        <ele>924.5</ele>
        <time>2019-08-16T08:56:13Z</time>
      </trkpt>
      <trkpt lat="42.0235890" lon="-6.3602270">
        <ele>924.5</ele>
        <time>2019-08-16T08:56:14Z</time>
      </trkpt>
      <trkpt lat="42.0236090" lon="-6.3602660">
        <ele>924.5</ele>
        <time>2019-08-16T08:56:15Z</time>
      </trkpt>
      <trkpt lat="42.0236270" lon="-6.3603030">
        <ele>924.5</ele>
        <time>2019-08-16T08:56:16Z</time>
      </trkpt>
      <trkpt lat="42.0236410" lon="-6.3603420">
        <ele>924.5</ele>
        <time>2019-08-16T08:56:17Z</time>
      </trkpt>
      <trkpt lat="42.0236500" lon="-6.3603860">
        <ele>924.5</ele>
        <time>2019-08-16T08:56:18Z</time>
      </trkpt>
      <trkpt lat="42.0236510" lon="-6.3604340">
        <ele>924.5</ele>
        <time>2019-08-16T08:56:19Z</time>
      </trkpt>
      <trkpt lat="42.0236470" lon="-6.3604840">
        <ele>924.5</ele>
        <time>2019-08-16T08:56:20Z</time>
      </trkpt>
      <trkpt lat="42.0236380" lon="-6.3605370">
        <ele>924.5</ele>
        <time>2019-08-16T08:56:21Z</time>
      </trkpt>
      <trkpt lat="42.0236280" lon="-6.3605960">
        <ele>924.5</ele>
        <time>2019-08-16T08:56:22Z</time>
      </trkpt>
      <trkpt lat="42.0236180" lon="-6.3606550">
        <ele>924.5</ele>
        <time>2019-08-16T08:56:23Z</time>
      </trkpt>
      <trkpt lat="42.0236080" lon="-6.3607130">
        <ele>924.5</ele>
        <time>2019-08-16T08:56:24Z</time>
      </trkpt>
      <trkpt lat="42.0235990" lon="-6.3607680">
        <ele>924.5</ele>
        <time>2019-08-16T08:56:25Z</time>
      </trkpt>
      <trkpt lat="42.0235880" lon="-6.3608230">
        <ele>924.5</ele>
        <time>2019-08-16T08:56:26Z</time>
      </trkpt>
      <trkpt lat="42.0235790" lon="-6.3608810">
        <ele>924.5</ele>
        <time>2019-08-16T08:56:27Z</time>
      </trkpt>
      <trkpt lat="42.0235700" lon="-6.3609380">
        <ele>924.5</ele>
        <time>2019-08-16T08:56:28Z</time>
      </trkpt>
      <trkpt lat="42.0235620" lon="-6.3609970">
        <ele>924.5</ele>
        <time>2019-08-16T08:56:29Z</time>
      </trkpt>
      <trkpt lat="42.0235530" lon="-6.3610560">
        <ele>924.5</ele>
        <time>2019-08-16T08:56:30Z</time>
      </trkpt>
      <trkpt lat="42.0235440" lon="-6.3611180">
        <ele>924.5</ele>
        <time>2019-08-16T08:56:31Z</time>
      </trkpt>
      <trkpt lat="42.0235340" lon="-6.3611740">
        <ele>924.5</ele>
        <time>2019-08-16T08:56:32Z</time>
      </trkpt>
      <trkpt lat="42.0235230" lon="-6.3612290">
        <ele>924.6</ele>
        <time>2019-08-16T08:56:33Z</time>
      </trkpt>
      <trkpt lat="42.0235100" lon="-6.3612830">
        <ele>924.6</ele>
        <time>2019-08-16T08:56:34Z</time>
      </trkpt>
      <trkpt lat="42.0235000" lon="-6.3613400">
        <ele>924.6</ele>
        <time>2019-08-16T08:56:35Z</time>
      </trkpt>
      <trkpt lat="42.0234890" lon="-6.3614000">
        <ele>924.6</ele>
        <time>2019-08-16T08:56:36Z</time>
      </trkpt>
      <trkpt lat="42.0234770" lon="-6.3614590">
        <ele>924.7</ele>
        <time>2019-08-16T08:56:37Z</time>
      </trkpt>
      <trkpt lat="42.0234630" lon="-6.3615170">
        <ele>924.8</ele>
        <time>2019-08-16T08:56:38Z</time>
      </trkpt>
      <trkpt lat="42.0234480" lon="-6.3615750">
        <ele>924.9</ele>
        <time>2019-08-16T08:56:39Z</time>
      </trkpt>
      <trkpt lat="42.0234290" lon="-6.3616290">
        <ele>925.0</ele>
        <time>2019-08-16T08:56:40Z</time>
      </trkpt>
      <trkpt lat="42.0234090" lon="-6.3616810">
        <ele>925.1</ele>
        <time>2019-08-16T08:56:41Z</time>
      </trkpt>
      <trkpt lat="42.0233880" lon="-6.3617290">
        <ele>925.2</ele>
        <time>2019-08-16T08:56:42Z</time>
      </trkpt>
      <trkpt lat="42.0233680" lon="-6.3617730">
        <ele>925.2</ele>
        <time>2019-08-16T08:56:43Z</time>
      </trkpt>
      <trkpt lat="42.0233470" lon="-6.3618120">
        <ele>925.3</ele>
        <time>2019-08-16T08:56:44Z</time>
      </trkpt>
      <trkpt lat="42.0233240" lon="-6.3618480">
        <ele>925.4</ele>
        <time>2019-08-16T08:56:45Z</time>
      </trkpt>
      <trkpt lat="42.0233010" lon="-6.3618810">
        <ele>925.5</ele>
        <time>2019-08-16T08:56:46Z</time>
      </trkpt>
      <trkpt lat="42.0232780" lon="-6.3619130">
        <ele>925.6</ele>
        <time>2019-08-16T08:56:47Z</time>
      </trkpt>
      <trkpt lat="42.0232560" lon="-6.3619430">
        <ele>925.8</ele>
        <time>2019-08-16T08:56:48Z</time>
      </trkpt>
      <trkpt lat="42.0232340" lon="-6.3619700">
        <ele>925.9</ele>
        <time>2019-08-16T08:56:49Z</time>
      </trkpt>
      <trkpt lat="42.0232130" lon="-6.3619970">
        <ele>926.0</ele>
        <time>2019-08-16T08:56:50Z</time>
      </trkpt>
      <trkpt lat="42.0231760" lon="-6.3620430">
        <ele>926.1</ele>
        <time>2019-08-16T08:56:52Z</time>
      </trkpt>
      <trkpt lat="42.0231360" lon="-6.3620780">
        <ele>926.3</ele>
        <time>2019-08-16T08:56:54Z</time>
      </trkpt>
      <trkpt lat="42.0230940" lon="-6.3621100">
        <ele>926.5</ele>
        <time>2019-08-16T08:56:56Z</time>
      </trkpt>
      <trkpt lat="42.0230510" lon="-6.3621390">
        <ele>926.7</ele>
        <time>2019-08-16T08:56:58Z</time>
      </trkpt>
      <trkpt lat="42.0230090" lon="-6.3621640">
        <ele>926.9</ele>
        <time>2019-08-16T08:57:00Z</time>
      </trkpt>
      <trkpt lat="42.0229650" lon="-6.3621850">
        <ele>927.1</ele>
        <time>2019-08-16T08:57:02Z</time>
      </trkpt>
      <trkpt lat="42.0229220" lon="-6.3622030">
        <ele>927.3</ele>
        <time>2019-08-16T08:57:04Z</time>
      </trkpt>
      <trkpt lat="42.0228780" lon="-6.3622220">
        <ele>927.5</ele>
        <time>2019-08-16T08:57:06Z</time>
      </trkpt>
      <trkpt lat="42.0228320" lon="-6.3622380">
        <ele>927.8</ele>
        <time>2019-08-16T08:57:08Z</time>
      </trkpt>
      <trkpt lat="42.0227850" lon="-6.3622490">
        <ele>928.0</ele>
        <time>2019-08-16T08:57:10Z</time>
      </trkpt>
      <trkpt lat="42.0227370" lon="-6.3622600">
        <ele>928.3</ele>
        <time>2019-08-16T08:57:12Z</time>
      </trkpt>
      <trkpt lat="42.0226860" lon="-6.3622740">
        <ele>928.5</ele>
        <time>2019-08-16T08:57:14Z</time>
      </trkpt>
      <trkpt lat="42.0226360" lon="-6.3622870">
        <ele>928.8</ele>
        <time>2019-08-16T08:57:16Z</time>
      </trkpt>
      <trkpt lat="42.0225850" lon="-6.3623010">
        <ele>929.1</ele>
        <time>2019-08-16T08:57:18Z</time>
      </trkpt>
      <trkpt lat="42.0225340" lon="-6.3623130">
        <ele>929.4</ele>
        <time>2019-08-16T08:57:20Z</time>
      </trkpt>
      <trkpt lat="42.0224830" lon="-6.3623260">
        <ele>929.7</ele>
        <time>2019-08-16T08:57:22Z</time>
      </trkpt>
      <trkpt lat="42.0224330" lon="-6.3623410">
        <ele>930.0</ele>
        <time>2019-08-16T08:57:24Z</time>
      </trkpt>
      <trkpt lat="42.0223830" lon="-6.3623530">
        <ele>930.3</ele>
        <time>2019-08-16T08:57:26Z</time>
      </trkpt>
      <trkpt lat="42.0223310" lon="-6.3623630">
        <ele>930.6</ele>
        <time>2019-08-16T08:57:28Z</time>
      </trkpt>
      <trkpt lat="42.0222810" lon="-6.3623790">
        <ele>930.9</ele>
        <time>2019-08-16T08:57:30Z</time>
      </trkpt>
      <trkpt lat="42.0222300" lon="-6.3623910">
        <ele>931.1</ele>
        <time>2019-08-16T08:57:32Z</time>
      </trkpt>
      <trkpt lat="42.0221780" lon="-6.3624030">
        <ele>931.5</ele>
        <time>2019-08-16T08:57:34Z</time>
      </trkpt>
      <trkpt lat="42.0221280" lon="-6.3624180">
        <ele>931.7</ele>
        <time>2019-08-16T08:57:36Z</time>
      </trkpt>
      <trkpt lat="42.0220780" lon="-6.3624290">
        <ele>932.2</ele>
        <time>2019-08-16T08:57:38Z</time>
      </trkpt>
      <trkpt lat="42.0220320" lon="-6.3624380">
        <ele>932.6</ele>
        <time>2019-08-16T08:57:40Z</time>
      </trkpt>
      <trkpt lat="42.0219790" lon="-6.3624530">
        <ele>933.0</ele>
        <time>2019-08-16T08:57:42Z</time>
      </trkpt>
      <trkpt lat="42.0219280" lon="-6.3624660">
        <ele>933.3</ele>
        <time>2019-08-16T08:57:44Z</time>
      </trkpt>
      <trkpt lat="42.0218790" lon="-6.3624750">
        <ele>933.6</ele>
        <time>2019-08-16T08:57:46Z</time>
      </trkpt>
      <trkpt lat="42.0218520" lon="-6.3624810">
        <ele>933.7</ele>
        <time>2019-08-16T08:57:47Z</time>
      </trkpt>
      <trkpt lat="42.0218220" lon="-6.3624900">
        <ele>933.8</ele>
        <time>2019-08-16T08:57:48Z</time>
      </trkpt>
      <trkpt lat="42.0217880" lon="-6.3625000">
        <ele>933.9</ele>
        <time>2019-08-16T08:57:49Z</time>
      </trkpt>
      <trkpt lat="42.0217530" lon="-6.3625100">
        <ele>934.0</ele>
        <time>2019-08-16T08:57:50Z</time>
      </trkpt>
      <trkpt lat="42.0217160" lon="-6.3625190">
        <ele>934.1</ele>
        <time>2019-08-16T08:57:51Z</time>
      </trkpt>
      <trkpt lat="42.0216790" lon="-6.3625290">
        <ele>934.2</ele>
        <time>2019-08-16T08:57:52Z</time>
      </trkpt>
      <trkpt lat="42.0216420" lon="-6.3625390">
        <ele>934.3</ele>
        <time>2019-08-16T08:57:53Z</time>
      </trkpt>
      <trkpt lat="42.0216060" lon="-6.3625470">
        <ele>934.6</ele>
        <time>2019-08-16T08:57:54Z</time>
      </trkpt>
      <trkpt lat="42.0215710" lon="-6.3625540">
        <ele>935.0</ele>
        <time>2019-08-16T08:57:55Z</time>
      </trkpt>
      <trkpt lat="42.0215380" lon="-6.3625600">
        <ele>935.2</ele>
        <time>2019-08-16T08:57:56Z</time>
      </trkpt>
      <trkpt lat="42.0215040" lon="-6.3625670">
        <ele>935.3</ele>
        <time>2019-08-16T08:57:57Z</time>
      </trkpt>
      <trkpt lat="42.0214680" lon="-6.3625710">
        <ele>935.5</ele>
        <time>2019-08-16T08:57:58Z</time>
      </trkpt>
      <trkpt lat="42.0214300" lon="-6.3625780">
        <ele>935.6</ele>
        <time>2019-08-16T08:57:59Z</time>
      </trkpt>
      <trkpt lat="42.0213910" lon="-6.3625880">
        <ele>935.8</ele>
        <time>2019-08-16T08:58:00Z</time>
      </trkpt>
      <trkpt lat="42.0213530" lon="-6.3626000">
        <ele>936.0</ele>
        <time>2019-08-16T08:58:01Z</time>
      </trkpt>
      <trkpt lat="42.0213130" lon="-6.3626120">
        <ele>936.1</ele>
        <time>2019-08-16T08:58:02Z</time>
      </trkpt>
      <trkpt lat="42.0212740" lon="-6.3626240">
        <ele>936.3</ele>
        <time>2019-08-16T08:58:03Z</time>
      </trkpt>
      <trkpt lat="42.0212350" lon="-6.3626340">
        <ele>936.5</ele>
        <time>2019-08-16T08:58:04Z</time>
      </trkpt>
      <trkpt lat="42.0211960" lon="-6.3626410">
        <ele>936.7</ele>
        <time>2019-08-16T08:58:05Z</time>
      </trkpt>
      <trkpt lat="42.0211580" lon="-6.3626490">
        <ele>936.9</ele>
        <time>2019-08-16T08:58:06Z</time>
      </trkpt>
      <trkpt lat="42.0211190" lon="-6.3626580">
        <ele>937.1</ele>
        <time>2019-08-16T08:58:07Z</time>
      </trkpt>
      <trkpt lat="42.0210790" lon="-6.3626660">
        <ele>937.3</ele>
        <time>2019-08-16T08:58:08Z</time>
      </trkpt>
      <trkpt lat="42.0210390" lon="-6.3626750">
        <ele>937.6</ele>
        <time>2019-08-16T08:58:09Z</time>
      </trkpt>
      <trkpt lat="42.0209990" lon="-6.3626850">
        <ele>937.8</ele>
        <time>2019-08-16T08:58:10Z</time>
      </trkpt>
      <trkpt lat="42.0209590" lon="-6.3626950">
        <ele>938.0</ele>
        <time>2019-08-16T08:58:11Z</time>
      </trkpt>
      <trkpt lat="42.0209210" lon="-6.3627040">
        <ele>938.3</ele>
        <time>2019-08-16T08:58:12Z</time>
      </trkpt>
      <trkpt lat="42.0208810" lon="-6.3627150">
        <ele>938.5</ele>
        <time>2019-08-16T08:58:13Z</time>
      </trkpt>
      <trkpt lat="42.0208420" lon="-6.3627240">
        <ele>938.7</ele>
        <time>2019-08-16T08:58:14Z</time>
      </trkpt>
      <trkpt lat="42.0208020" lon="-6.3627340">
        <ele>938.9</ele>
        <time>2019-08-16T08:58:15Z</time>
      </trkpt>
      <trkpt lat="42.0207600" lon="-6.3627430">
        <ele>939.1</ele>
        <time>2019-08-16T08:58:16Z</time>
      </trkpt>
      <trkpt lat="42.0207190" lon="-6.3627540">
        <ele>939.3</ele>
        <time>2019-08-16T08:58:17Z</time>
      </trkpt>
      <trkpt lat="42.0206780" lon="-6.3627650">
        <ele>939.5</ele>
        <time>2019-08-16T08:58:18Z</time>
      </trkpt>
      <trkpt lat="42.0206400" lon="-6.3627760">
        <ele>939.7</ele>
        <time>2019-08-16T08:58:19Z</time>
      </trkpt>
      <trkpt lat="42.0206030" lon="-6.3627870">
        <ele>939.9</ele>
        <time>2019-08-16T08:58:20Z</time>
      </trkpt>
      <trkpt lat="42.0205680" lon="-6.3627980">
        <ele>940.1</ele>
        <time>2019-08-16T08:58:21Z</time>
      </trkpt>
      <trkpt lat="42.0205360" lon="-6.3628090">
        <ele>940.2</ele>
        <time>2019-08-16T08:58:22Z</time>
      </trkpt>
      <trkpt lat="42.0205050" lon="-6.3628220">
        <ele>940.4</ele>
        <time>2019-08-16T08:58:23Z</time>
      </trkpt>
      <trkpt lat="42.0204770" lon="-6.3628350">
        <ele>940.5</ele>
        <time>2019-08-16T08:58:24Z</time>
      </trkpt>
      <trkpt lat="42.0204500" lon="-6.3628450">
        <ele>940.6</ele>
        <time>2019-08-16T08:58:25Z</time>
      </trkpt>
      <trkpt lat="42.0204210" lon="-6.3628510">
        <ele>940.8</ele>
        <time>2019-08-16T08:58:26Z</time>
      </trkpt>
      <trkpt lat="42.0203920" lon="-6.3628520">
        <ele>941.1</ele>
        <time>2019-08-16T08:58:27Z</time>
      </trkpt>
      <trkpt lat="42.0203620" lon="-6.3628530">
        <ele>941.2</ele>
        <time>2019-08-16T08:58:28Z</time>
      </trkpt>
      <trkpt lat="42.0203350" lon="-6.3628570">
        <ele>941.3</ele>
        <time>2019-08-16T08:58:29Z</time>
      </trkpt>
      <trkpt lat="42.0202920" lon="-6.3628620">
        <ele>941.5</ele>
        <time>2019-08-16T08:58:31Z</time>
      </trkpt>
      <trkpt lat="42.0202450" lon="-6.3628580">
        <ele>941.6</ele>
        <time>2019-08-16T08:58:33Z</time>
      </trkpt>
      <trkpt lat="42.0201920" lon="-6.3628460">
        <ele>941.8</ele>
        <time>2019-08-16T08:58:35Z</time>
      </trkpt>
      <trkpt lat="42.0201620" lon="-6.3628360">
        <ele>941.8</ele>
        <time>2019-08-16T08:58:36Z</time>
      </trkpt>
      <trkpt lat="42.0201290" lon="-6.3628210">
        <ele>941.8</ele>
        <time>2019-08-16T08:58:37Z</time>
      </trkpt>
      <trkpt lat="42.0200950" lon="-6.3628010">
        <ele>941.8</ele>
        <time>2019-08-16T08:58:38Z</time>
      </trkpt>
      <trkpt lat="42.0200620" lon="-6.3627780">
        <ele>941.8</ele>
        <time>2019-08-16T08:58:39Z</time>
      </trkpt>
      <trkpt lat="42.0200320" lon="-6.3627520">
        <ele>941.7</ele>
        <time>2019-08-16T08:58:40Z</time>
      </trkpt>
      <trkpt lat="42.0200050" lon="-6.3627240">
        <ele>941.6</ele>
        <time>2019-08-16T08:58:41Z</time>
      </trkpt>
      <trkpt lat="42.0199790" lon="-6.3626940">
        <ele>941.6</ele>
        <time>2019-08-16T08:58:42Z</time>
      </trkpt>
      <trkpt lat="42.0199550" lon="-6.3626650">
        <ele>941.6</ele>
        <time>2019-08-16T08:58:43Z</time>
      </trkpt>
      <trkpt lat="42.0199350" lon="-6.3626350">
        <ele>941.6</ele>
        <time>2019-08-16T08:58:44Z</time>
      </trkpt>
      <trkpt lat="42.0199170" lon="-6.3626040">
        <ele>941.5</ele>
        <time>2019-08-16T08:58:45Z</time>
      </trkpt>
      <trkpt lat="42.0198860" lon="-6.3625550">
        <ele>941.4</ele>
        <time>2019-08-16T08:58:47Z</time>
      </trkpt>
      <trkpt lat="42.0198570" lon="-6.3625560">
        <ele>941.4</ele>
        <time>2019-08-16T08:58:49Z</time>
      </trkpt>
      <trkpt lat="42.0198280" lon="-6.3626100">
        <ele>941.3</ele>
        <time>2019-08-16T08:58:51Z</time>
      </trkpt>
      <trkpt lat="42.0198130" lon="-6.3626470">
        <ele>941.3</ele>
        <time>2019-08-16T08:58:52Z</time>
      </trkpt>
      <trkpt lat="42.0197930" lon="-6.3626860">
        <ele>941.2</ele>
        <time>2019-08-16T08:58:53Z</time>
      </trkpt>
      <trkpt lat="42.0197670" lon="-6.3627270">
        <ele>941.2</ele>
        <time>2019-08-16T08:58:54Z</time>
      </trkpt>
      <trkpt lat="42.0197390" lon="-6.3627710">
        <ele>941.1</ele>
        <time>2019-08-16T08:58:55Z</time>
      </trkpt>
      <trkpt lat="42.0197080" lon="-6.3628180">
        <ele>941.0</ele>
        <time>2019-08-16T08:58:56Z</time>
      </trkpt>
      <trkpt lat="42.0196780" lon="-6.3628660">
        <ele>941.0</ele>
        <time>2019-08-16T08:58:57Z</time>
      </trkpt>
      <trkpt lat="42.0196490" lon="-6.3629160">
        <ele>940.9</ele>
        <time>2019-08-16T08:58:58Z</time>
      </trkpt>
      <trkpt lat="42.0196200" lon="-6.3629690">
        <ele>940.8</ele>
        <time>2019-08-16T08:58:59Z</time>
      </trkpt>
      <trkpt lat="42.0195910" lon="-6.3630210">
        <ele>940.7</ele>
        <time>2019-08-16T08:59:00Z</time>
      </trkpt>
      <trkpt lat="42.0195620" lon="-6.3630720">
        <ele>940.6</ele>
        <time>2019-08-16T08:59:01Z</time>
      </trkpt>
      <trkpt lat="42.0195340" lon="-6.3631230">
        <ele>940.5</ele>
        <time>2019-08-16T08:59:02Z</time>
      </trkpt>
      <trkpt lat="42.0195050" lon="-6.3631740">
        <ele>940.4</ele>
        <time>2019-08-16T08:59:03Z</time>
      </trkpt>
      <trkpt lat="42.0194760" lon="-6.3632230">
        <ele>940.3</ele>
        <time>2019-08-16T08:59:04Z</time>
      </trkpt>
      <trkpt lat="42.0194460" lon="-6.3632730">
        <ele>940.3</ele>
        <time>2019-08-16T08:59:05Z</time>
      </trkpt>
      <trkpt lat="42.0194170" lon="-6.3633240">
        <ele>940.2</ele>
        <time>2019-08-16T08:59:06Z</time>
      </trkpt>
      <trkpt lat="42.0193880" lon="-6.3633760">
        <ele>940.0</ele>
        <time>2019-08-16T08:59:07Z</time>
      </trkpt>
      <trkpt lat="42.0193590" lon="-6.3634260">
        <ele>939.8</ele>
        <time>2019-08-16T08:59:08Z</time>
      </trkpt>
      <trkpt lat="42.0193290" lon="-6.3634750">
        <ele>939.6</ele>
        <time>2019-08-16T08:59:09Z</time>
      </trkpt>
      <trkpt lat="42.0192990" lon="-6.3635260">
        <ele>939.5</ele>
        <time>2019-08-16T08:59:10Z</time>
      </trkpt>
      <trkpt lat="42.0192710" lon="-6.3635770">
        <ele>939.4</ele>
        <time>2019-08-16T08:59:11Z</time>
      </trkpt>
      <trkpt lat="42.0192420" lon="-6.3636290">
        <ele>939.3</ele>
        <time>2019-08-16T08:59:12Z</time>
      </trkpt>
      <trkpt lat="42.0192120" lon="-6.3636810">
        <ele>939.2</ele>
        <time>2019-08-16T08:59:13Z</time>
      </trkpt>
      <trkpt lat="42.0191810" lon="-6.3637330">
        <ele>939.1</ele>
        <time>2019-08-16T08:59:14Z</time>
      </trkpt>
      <trkpt lat="42.0191530" lon="-6.3637840">
        <ele>939.0</ele>
        <time>2019-08-16T08:59:15Z</time>
      </trkpt>
      <trkpt lat="42.0191250" lon="-6.3638350">
        <ele>938.9</ele>
        <time>2019-08-16T08:59:16Z</time>
      </trkpt>
      <trkpt lat="42.0190960" lon="-6.3638860">
        <ele>938.8</ele>
        <time>2019-08-16T08:59:17Z</time>
      </trkpt>
      <trkpt lat="42.0190660" lon="-6.3639380">
        <ele>938.7</ele>
        <time>2019-08-16T08:59:18Z</time>
      </trkpt>
      <trkpt lat="42.0190370" lon="-6.3639910">
        <ele>938.6</ele>
        <time>2019-08-16T08:59:19Z</time>
      </trkpt>
      <trkpt lat="42.0190080" lon="-6.3640460">
        <ele>938.5</ele>
        <time>2019-08-16T08:59:20Z</time>
      </trkpt>
      <trkpt lat="42.0189770" lon="-6.3641010">
        <ele>938.4</ele>
        <time>2019-08-16T08:59:21Z</time>
      </trkpt>
      <trkpt lat="42.0189470" lon="-6.3641570">
        <ele>938.3</ele>
        <time>2019-08-16T08:59:22Z</time>
      </trkpt>
      <trkpt lat="42.0189170" lon="-6.3642120">
        <ele>938.2</ele>
        <time>2019-08-16T08:59:23Z</time>
      </trkpt>
      <trkpt lat="42.0188840" lon="-6.3642680">
        <ele>938.1</ele>
        <time>2019-08-16T08:59:24Z</time>
      </trkpt>
      <trkpt lat="42.0188500" lon="-6.3643210">
        <ele>938.0</ele>
        <time>2019-08-16T08:59:25Z</time>
      </trkpt>
      <trkpt lat="42.0188160" lon="-6.3643740">
        <ele>937.9</ele>
        <time>2019-08-16T08:59:26Z</time>
      </trkpt>
      <trkpt lat="42.0187830" lon="-6.3644280">
        <ele>937.8</ele>
        <time>2019-08-16T08:59:27Z</time>
      </trkpt>
      <trkpt lat="42.0187490" lon="-6.3644810">
        <ele>937.5</ele>
        <time>2019-08-16T08:59:28Z</time>
      </trkpt>
      <trkpt lat="42.0187160" lon="-6.3645350">
        <ele>937.4</ele>
        <time>2019-08-16T08:59:29Z</time>
      </trkpt>
      <trkpt lat="42.0186850" lon="-6.3645890">
        <ele>937.3</ele>
        <time>2019-08-16T08:59:30Z</time>
      </trkpt>
      <trkpt lat="42.0186560" lon="-6.3646410">
        <ele>937.1</ele>
        <time>2019-08-16T08:59:31Z</time>
      </trkpt>
      <trkpt lat="42.0186270" lon="-6.3646920">
        <ele>937.0</ele>
        <time>2019-08-16T08:59:32Z</time>
      </trkpt>
      <trkpt lat="42.0186000" lon="-6.3647430">
        <ele>936.9</ele>
        <time>2019-08-16T08:59:33Z</time>
      </trkpt>
      <trkpt lat="42.0185710" lon="-6.3647940">
        <ele>936.8</ele>
        <time>2019-08-16T08:59:34Z</time>
      </trkpt>
      <trkpt lat="42.0185410" lon="-6.3648460">
        <ele>936.6</ele>
        <time>2019-08-16T08:59:35Z</time>
      </trkpt>
      <trkpt lat="42.0185090" lon="-6.3648990">
        <ele>936.5</ele>
        <time>2019-08-16T08:59:36Z</time>
      </trkpt>
      <trkpt lat="42.0184780" lon="-6.3649530">
        <ele>936.2</ele>
        <time>2019-08-16T08:59:37Z</time>
      </trkpt>
      <trkpt lat="42.0184490" lon="-6.3650110">
        <ele>936.1</ele>
        <time>2019-08-16T08:59:38Z</time>
      </trkpt>
      <trkpt lat="42.0184200" lon="-6.3650700">
        <ele>935.9</ele>
        <time>2019-08-16T08:59:39Z</time>
      </trkpt>
      <trkpt lat="42.0183920" lon="-6.3651300">
        <ele>935.8</ele>
        <time>2019-08-16T08:59:40Z</time>
      </trkpt>
      <trkpt lat="42.0183620" lon="-6.3651900">
        <ele>935.7</ele>
        <time>2019-08-16T08:59:41Z</time>
      </trkpt>
      <trkpt lat="42.0183300" lon="-6.3652490">
        <ele>935.6</ele>
        <time>2019-08-16T08:59:42Z</time>
      </trkpt>
      <trkpt lat="42.0182960" lon="-6.3653070">
        <ele>935.4</ele>
        <time>2019-08-16T08:59:43Z</time>
      </trkpt>
      <trkpt lat="42.0182620" lon="-6.3653610">
        <ele>935.3</ele>
        <time>2019-08-16T08:59:44Z</time>
      </trkpt>
      <trkpt lat="42.0182280" lon="-6.3654110">
        <ele>935.2</ele>
        <time>2019-08-16T08:59:45Z</time>
      </trkpt>
      <trkpt lat="42.0181880" lon="-6.3654560">
        <ele>935.0</ele>
        <time>2019-08-16T08:59:46Z</time>
      </trkpt>
      <trkpt lat="42.0181450" lon="-6.3654970">
        <ele>934.9</ele>
        <time>2019-08-16T08:59:47Z</time>
      </trkpt>
      <trkpt lat="42.0180960" lon="-6.3655340">
        <ele>934.7</ele>
        <time>2019-08-16T08:59:48Z</time>
      </trkpt>
      <trkpt lat="42.0180440" lon="-6.3655660">
        <ele>933.9</ele>
        <time>2019-08-16T08:59:49Z</time>
      </trkpt>
      <trkpt lat="42.0179900" lon="-6.3655910">
        <ele>933.6</ele>
        <time>2019-08-16T08:59:50Z</time>
      </trkpt>
      <trkpt lat="42.0179340" lon="-6.3656110">
        <ele>933.1</ele>
        <time>2019-08-16T08:59:51Z</time>
      </trkpt>
      <trkpt lat="42.0178750" lon="-6.3656280">
        <ele>932.7</ele>
        <time>2019-08-16T08:59:52Z</time>
      </trkpt>
      <trkpt lat="42.0178160" lon="-6.3656420">
        <ele>932.4</ele>
        <time>2019-08-16T08:59:53Z</time>
      </trkpt>
      <trkpt lat="42.0177570" lon="-6.3656570">
        <ele>931.9</ele>
        <time>2019-08-16T08:59:54Z</time>
      </trkpt>
      <trkpt lat="42.0176950" lon="-6.3656690">
        <ele>931.9</ele>
        <time>2019-08-16T08:59:55Z</time>
      </trkpt>
      <trkpt lat="42.0176310" lon="-6.3656770">
        <ele>931.6</ele>
        <time>2019-08-16T08:59:56Z</time>
      </trkpt>
      <trkpt lat="42.0175670" lon="-6.3656850">
        <ele>931.1</ele>
        <time>2019-08-16T08:59:57Z</time>
      </trkpt>
      <trkpt lat="42.0175030" lon="-6.3656970">
        <ele>930.5</ele>
        <time>2019-08-16T08:59:58Z</time>
      </trkpt>
      <trkpt lat="42.0174390" lon="-6.3657100">
        <ele>929.9</ele>
        <time>2019-08-16T08:59:59Z</time>
      </trkpt>
      <trkpt lat="42.0173770" lon="-6.3657250">
        <ele>929.4</ele>
        <time>2019-08-16T09:00:00Z</time>
      </trkpt>
      <trkpt lat="42.0173150" lon="-6.3657360">
        <ele>928.9</ele>
        <time>2019-08-16T09:00:01Z</time>
      </trkpt>
      <trkpt lat="42.0172530" lon="-6.3657480">
        <ele>928.8</ele>
        <time>2019-08-16T09:00:02Z</time>
      </trkpt>
      <trkpt lat="42.0171890" lon="-6.3657620">
        <ele>928.5</ele>
        <time>2019-08-16T09:00:03Z</time>
      </trkpt>
      <trkpt lat="42.0171260" lon="-6.3657810">
        <ele>928.0</ele>
        <time>2019-08-16T09:00:04Z</time>
      </trkpt>
      <trkpt lat="42.0170650" lon="-6.3658090">
        <ele>927.5</ele>
        <time>2019-08-16T09:00:05Z</time>
      </trkpt>
      <trkpt lat="42.0170090" lon="-6.3658450">
        <ele>927.1</ele>
        <time>2019-08-16T09:00:06Z</time>
      </trkpt>
      <trkpt lat="42.0169560" lon="-6.3658900">
        <ele>926.8</ele>
        <time>2019-08-16T09:00:07Z</time>
      </trkpt>
      <trkpt lat="42.0169070" lon="-6.3659440">
        <ele>926.6</ele>
        <time>2019-08-16T09:00:08Z</time>
      </trkpt>
      <trkpt lat="42.0168640" lon="-6.3660080">
        <ele>926.5</ele>
        <time>2019-08-16T09:00:09Z</time>
      </trkpt>
      <trkpt lat="42.0168270" lon="-6.3660790">
        <ele>926.4</ele>
        <time>2019-08-16T09:00:10Z</time>
      </trkpt>
      <trkpt lat="42.0167980" lon="-6.3661590">
        <ele>926.2</ele>
        <time>2019-08-16T09:00:11Z</time>
      </trkpt>
      <trkpt lat="42.0167770" lon="-6.3662460">
        <ele>926.1</ele>
        <time>2019-08-16T09:00:12Z</time>
      </trkpt>
      <trkpt lat="42.0167640" lon="-6.3663370">
        <ele>925.9</ele>
        <time>2019-08-16T09:00:13Z</time>
      </trkpt>
      <trkpt lat="42.0167590" lon="-6.3664310">
        <ele>925.7</ele>
        <time>2019-08-16T09:00:14Z</time>
      </trkpt>
      <trkpt lat="42.0167640" lon="-6.3665240">
        <ele>925.4</ele>
        <time>2019-08-16T09:00:15Z</time>
      </trkpt>
      <trkpt lat="42.0167770" lon="-6.3666140">
        <ele>925.1</ele>
        <time>2019-08-16T09:00:16Z</time>
      </trkpt>
      <trkpt lat="42.0167980" lon="-6.3667030">
        <ele>924.7</ele>
        <time>2019-08-16T09:00:17Z</time>
      </trkpt>
      <trkpt lat="42.0168210" lon="-6.3667910">
        <ele>924.5</ele>
        <time>2019-08-16T09:00:18Z</time>
      </trkpt>
      <trkpt lat="42.0168440" lon="-6.3668780">
        <ele>924.4</ele>
        <time>2019-08-16T09:00:19Z</time>
      </trkpt>
      <trkpt lat="42.0168640" lon="-6.3669680">
        <ele>924.3</ele>
        <time>2019-08-16T09:00:20Z</time>
      </trkpt>
      <trkpt lat="42.0168820" lon="-6.3670590">
        <ele>924.2</ele>
        <time>2019-08-16T09:00:21Z</time>
      </trkpt>
      <trkpt lat="42.0168920" lon="-6.3671510">
        <ele>924.1</ele>
        <time>2019-08-16T09:00:22Z</time>
      </trkpt>
      <trkpt lat="42.0168980" lon="-6.3672440">
        <ele>924.0</ele>
        <time>2019-08-16T09:00:23Z</time>
      </trkpt>
      <trkpt lat="42.0168990" lon="-6.3673380">
        <ele>923.9</ele>
        <time>2019-08-16T09:00:24Z</time>
      </trkpt>
      <trkpt lat="42.0168910" lon="-6.3674340">
        <ele>923.8</ele>
        <time>2019-08-16T09:00:25Z</time>
      </trkpt>
      <trkpt lat="42.0168760" lon="-6.3675290">
        <ele>923.6</ele>
        <time>2019-08-16T09:00:26Z</time>
      </trkpt>
      <trkpt lat="42.0168550" lon="-6.3676240">
        <ele>923.3</ele>
        <time>2019-08-16T09:00:27Z</time>
      </trkpt>
      <trkpt lat="42.0168310" lon="-6.3677190">
        <ele>922.9</ele>
        <time>2019-08-16T09:00:28Z</time>
      </trkpt>
      <trkpt lat="42.0168080" lon="-6.3678180">
        <ele>922.5</ele>
        <time>2019-08-16T09:00:29Z</time>
      </trkpt>
      <trkpt lat="42.0167860" lon="-6.3679190">
        <ele>922.1</ele>
        <time>2019-08-16T09:00:30Z</time>
      </trkpt>
      <trkpt lat="42.0167620" lon="-6.3680200">
        <ele>921.6</ele>
        <time>2019-08-16T09:00:31Z</time>
      </trkpt>
      <trkpt lat="42.0167380" lon="-6.3681210">
        <ele>921.2</ele>
        <time>2019-08-16T09:00:32Z</time>
      </trkpt>
      <trkpt lat="42.0167140" lon="-6.3682230">
        <ele>920.8</ele>
        <time>2019-08-16T09:00:33Z</time>
      </trkpt>
      <trkpt lat="42.0166900" lon="-6.3683260">
        <ele>920.3</ele>
        <time>2019-08-16T09:00:34Z</time>
      </trkpt>
      <trkpt lat="42.0166650" lon="-6.3684300">
        <ele>919.9</ele>
        <time>2019-08-16T09:00:35Z</time>
      </trkpt>
      <trkpt lat="42.0166420" lon="-6.3685330">
        <ele>919.7</ele>
        <time>2019-08-16T09:00:36Z</time>
      </trkpt>
      <trkpt lat="42.0166170" lon="-6.3686360">
        <ele>919.4</ele>
        <time>2019-08-16T09:00:37Z</time>
      </trkpt>
      <trkpt lat="42.0165930" lon="-6.3687380">
        <ele>919.0</ele>
        <time>2019-08-16T09:00:38Z</time>
      </trkpt>
      <trkpt lat="42.0165680" lon="-6.3688410">
        <ele>918.6</ele>
        <time>2019-08-16T09:00:39Z</time>
      </trkpt>
      <trkpt lat="42.0165420" lon="-6.3689430">
        <ele>918.2</ele>
        <time>2019-08-16T09:00:40Z</time>
      </trkpt>
      <trkpt lat="42.0165180" lon="-6.3690480">
        <ele>917.8</ele>
        <time>2019-08-16T09:00:41Z</time>
      </trkpt>
      <trkpt lat="42.0164950" lon="-6.3691520">
        <ele>917.6</ele>
        <time>2019-08-16T09:00:42Z</time>
      </trkpt>
      <trkpt lat="42.0164710" lon="-6.3692570">
        <ele>917.3</ele>
        <time>2019-08-16T09:00:43Z</time>
      </trkpt>
      <trkpt lat="42.0164490" lon="-6.3693600">
        <ele>917.1</ele>
        <time>2019-08-16T09:00:44Z</time>
      </trkpt>
      <trkpt lat="42.0164290" lon="-6.3694610">
        <ele>916.8</ele>
        <time>2019-08-16T09:00:45Z</time>
      </trkpt>
      <trkpt lat="42.0164070" lon="-6.3695580">
        <ele>916.4</ele>
        <time>2019-08-16T09:00:46Z</time>
      </trkpt>
      <trkpt lat="42.0163860" lon="-6.3696550">
        <ele>916.1</ele>
        <time>2019-08-16T09:00:47Z</time>
      </trkpt>
      <trkpt lat="42.0163650" lon="-6.3697500">
        <ele>915.8</ele>
        <time>2019-08-16T09:00:48Z</time>
      </trkpt>
      <trkpt lat="42.0163410" lon="-6.3698400">
        <ele>915.7</ele>
        <time>2019-08-16T09:00:49Z</time>
      </trkpt>
      <trkpt lat="42.0163080" lon="-6.3699190">
        <ele>915.6</ele>
        <time>2019-08-16T09:00:50Z</time>
      </trkpt>
      <trkpt lat="42.0162660" lon="-6.3699830">
        <ele>915.4</ele>
        <time>2019-08-16T09:00:51Z</time>
      </trkpt>
      <trkpt lat="42.0162150" lon="-6.3700310">
        <ele>915.1</ele>
        <time>2019-08-16T09:00:52Z</time>
      </trkpt>
      <trkpt lat="42.0161570" lon="-6.3700620">
        <ele>914.8</ele>
        <time>2019-08-16T09:00:53Z</time>
      </trkpt>
      <trkpt lat="42.0160970" lon="-6.3700790">
        <ele>914.5</ele>
        <time>2019-08-16T09:00:54Z</time>
      </trkpt>
      <trkpt lat="42.0160390" lon="-6.3700880">
        <ele>914.3</ele>
        <time>2019-08-16T09:00:55Z</time>
      </trkpt>
      <trkpt lat="42.0159830" lon="-6.3700950">
        <ele>914.1</ele>
        <time>2019-08-16T09:00:56Z</time>
      </trkpt>
      <trkpt lat="42.0159310" lon="-6.3701060">
        <ele>914.0</ele>
        <time>2019-08-16T09:00:57Z</time>
      </trkpt>
      <trkpt lat="42.0158790" lon="-6.3701180">
        <ele>913.9</ele>
        <time>2019-08-16T09:00:58Z</time>
      </trkpt>
      <trkpt lat="42.0158300" lon="-6.3701270">
        <ele>913.8</ele>
        <time>2019-08-16T09:00:59Z</time>
      </trkpt>
      <trkpt lat="42.0157850" lon="-6.3701400">
        <ele>913.8</ele>
        <time>2019-08-16T09:01:00Z</time>
      </trkpt>
      <trkpt lat="42.0157430" lon="-6.3701590">
        <ele>913.7</ele>
        <time>2019-08-16T09:01:01Z</time>
      </trkpt>
      <trkpt lat="42.0157070" lon="-6.3701860">
        <ele>913.6</ele>
        <time>2019-08-16T09:01:02Z</time>
      </trkpt>
      <trkpt lat="42.0156810" lon="-6.3702250">
        <ele>913.3</ele>
        <time>2019-08-16T09:01:03Z</time>
      </trkpt>
      <trkpt lat="42.0156660" lon="-6.3702740">
        <ele>913.1</ele>
        <time>2019-08-16T09:01:04Z</time>
      </trkpt>
      <trkpt lat="42.0156630" lon="-6.3703310">
        <ele>912.9</ele>
        <time>2019-08-16T09:01:05Z</time>
      </trkpt>
      <trkpt lat="42.0156650" lon="-6.3703890">
        <ele>912.7</ele>
        <time>2019-08-16T09:01:06Z</time>
      </trkpt>
      <trkpt lat="42.0156690" lon="-6.3704480">
        <ele>912.6</ele>
        <time>2019-08-16T09:01:07Z</time>
      </trkpt>
      <trkpt lat="42.0156740" lon="-6.3705100">
        <ele>912.4</ele>
        <time>2019-08-16T09:01:08Z</time>
      </trkpt>
      <trkpt lat="42.0156790" lon="-6.3705750">
        <ele>912.1</ele>
        <time>2019-08-16T09:01:09Z</time>
      </trkpt>
      <trkpt lat="42.0156830" lon="-6.3706410">
        <ele>911.9</ele>
        <time>2019-08-16T09:01:10Z</time>
      </trkpt>
      <trkpt lat="42.0156870" lon="-6.3707040">
        <ele>911.7</ele>
        <time>2019-08-16T09:01:11Z</time>
      </trkpt>
      <trkpt lat="42.0156900" lon="-6.3707640">
        <ele>911.5</ele>
        <time>2019-08-16T09:01:12Z</time>
      </trkpt>
      <trkpt lat="42.0156940" lon="-6.3708220">
        <ele>911.3</ele>
        <time>2019-08-16T09:01:13Z</time>
      </trkpt>
      <trkpt lat="42.0157000" lon="-6.3708800">
        <ele>911.0</ele>
        <time>2019-08-16T09:01:14Z</time>
      </trkpt>
      <trkpt lat="42.0157060" lon="-6.3709390">
        <ele>910.7</ele>
        <time>2019-08-16T09:01:15Z</time>
      </trkpt>
      <trkpt lat="42.0157130" lon="-6.3710010">
        <ele>910.5</ele>
        <time>2019-08-16T09:01:16Z</time>
      </trkpt>
      <trkpt lat="42.0157190" lon="-6.3710670">
        <ele>910.3</ele>
        <time>2019-08-16T09:01:17Z</time>
      </trkpt>
      <trkpt lat="42.0157260" lon="-6.3711340">
        <ele>910.1</ele>
        <time>2019-08-16T09:01:18Z</time>
      </trkpt>
      <trkpt lat="42.0157310" lon="-6.3712030">
        <ele>909.8</ele>
        <time>2019-08-16T09:01:19Z</time>
      </trkpt>
      <trkpt lat="42.0157370" lon="-6.3712750">
        <ele>909.6</ele>
        <time>2019-08-16T09:01:20Z</time>
      </trkpt>
      <trkpt lat="42.0157440" lon="-6.3713510">
        <ele>909.3</ele>
        <time>2019-08-16T09:01:21Z</time>
      </trkpt>
      <trkpt lat="42.0157500" lon="-6.3714350">
        <ele>909.1</ele>
        <time>2019-08-16T09:01:22Z</time>
      </trkpt>
      <trkpt lat="42.0157560" lon="-6.3715220">
        <ele>908.9</ele>
        <time>2019-08-16T09:01:23Z</time>
      </trkpt>
      <trkpt lat="42.0157610" lon="-6.3716120">
        <ele>908.6</ele>
        <time>2019-08-16T09:01:24Z</time>
      </trkpt>
      <trkpt lat="42.0157670" lon="-6.3717030">
        <ele>908.5</ele>
        <time>2019-08-16T09:01:25Z</time>
      </trkpt>
      <trkpt lat="42.0157730" lon="-6.3717950">
        <ele>908.3</ele>
        <time>2019-08-16T09:01:26Z</time>
      </trkpt>
      <trkpt lat="42.0157800" lon="-6.3718870">
        <ele>908.2</ele>
        <time>2019-08-16T09:01:27Z</time>
      </trkpt>
      <trkpt lat="42.0157870" lon="-6.3719790">
        <ele>908.1</ele>
        <time>2019-08-16T09:01:28Z</time>
      </trkpt>
      <trkpt lat="42.0157950" lon="-6.3720690">
        <ele>908.0</ele>
        <time>2019-08-16T09:01:29Z</time>
      </trkpt>
      <trkpt lat="42.0158040" lon="-6.3721600">
        <ele>908.0</ele>
        <time>2019-08-16T09:01:30Z</time>
      </trkpt>
      <trkpt lat="42.0158110" lon="-6.3722490">
        <ele>907.9</ele>
        <time>2019-08-16T09:01:31Z</time>
      </trkpt>
      <trkpt lat="42.0158180" lon="-6.3723360">
        <ele>907.9</ele>
        <time>2019-08-16T09:01:32Z</time>
      </trkpt>
      <trkpt lat="42.0158250" lon="-6.3724210">
        <ele>907.8</ele>
        <time>2019-08-16T09:01:33Z</time>
      </trkpt>
      <trkpt lat="42.0158280" lon="-6.3725070">
        <ele>907.7</ele>
        <time>2019-08-16T09:01:34Z</time>
      </trkpt>
      <trkpt lat="42.0158330" lon="-6.3725910">
        <ele>907.6</ele>
        <time>2019-08-16T09:01:35Z</time>
      </trkpt>
      <trkpt lat="42.0158400" lon="-6.3726750">
        <ele>907.4</ele>
        <time>2019-08-16T09:01:36Z</time>
      </trkpt>
      <trkpt lat="42.0158460" lon="-6.3727590">
        <ele>907.2</ele>
        <time>2019-08-16T09:01:37Z</time>
      </trkpt>
      <trkpt lat="42.0158530" lon="-6.3728430">
        <ele>907.0</ele>
        <time>2019-08-16T09:01:38Z</time>
      </trkpt>
      <trkpt lat="42.0158590" lon="-6.3729230">
        <ele>907.1</ele>
        <time>2019-08-16T09:01:39Z</time>
      </trkpt>
      <trkpt lat="42.0158650" lon="-6.3730040">
        <ele>906.9</ele>
        <time>2019-08-16T09:01:40Z</time>
      </trkpt>
      <trkpt lat="42.0158710" lon="-6.3730850">
        <ele>906.8</ele>
        <time>2019-08-16T09:01:41Z</time>
      </trkpt>
      <trkpt lat="42.0158770" lon="-6.3731680">
        <ele>906.8</ele>
        <time>2019-08-16T09:01:42Z</time>
      </trkpt>
      <trkpt lat="42.0158830" lon="-6.3732520">
        <ele>906.7</ele>
        <time>2019-08-16T09:01:43Z</time>
      </trkpt>
      <trkpt lat="42.0158910" lon="-6.3733360">
        <ele>906.6</ele>
        <time>2019-08-16T09:01:44Z</time>
      </trkpt>
      <trkpt lat="42.0158990" lon="-6.3734190">
        <ele>906.6</ele>
        <time>2019-08-16T09:01:45Z</time>
      </trkpt>
      <trkpt lat="42.0159070" lon="-6.3735000">
        <ele>906.6</ele>
        <time>2019-08-16T09:01:46Z</time>
      </trkpt>
      <trkpt lat="42.0159160" lon="-6.3735800">
        <ele>906.5</ele>
        <time>2019-08-16T09:01:47Z</time>
      </trkpt>
      <trkpt lat="42.0159240" lon="-6.3736580">
        <ele>906.5</ele>
        <time>2019-08-16T09:01:48Z</time>
      </trkpt>
      <trkpt lat="42.0159310" lon="-6.3737350">
        <ele>906.5</ele>
        <time>2019-08-16T09:01:49Z</time>
      </trkpt>
      <trkpt lat="42.0159400" lon="-6.3738140">
        <ele>906.4</ele>
        <time>2019-08-16T09:01:50Z</time>
      </trkpt>
      <trkpt lat="42.0159480" lon="-6.3738950">
        <ele>906.3</ele>
        <time>2019-08-16T09:01:51Z</time>
      </trkpt>
      <trkpt lat="42.0159570" lon="-6.3739770">
        <ele>906.2</ele>
        <time>2019-08-16T09:01:52Z</time>
      </trkpt>
      <trkpt lat="42.0159660" lon="-6.3740610">
        <ele>906.1</ele>
        <time>2019-08-16T09:01:53Z</time>
      </trkpt>
      <trkpt lat="42.0159740" lon="-6.3741440">
        <ele>906.0</ele>
        <time>2019-08-16T09:01:54Z</time>
      </trkpt>
      <trkpt lat="42.0159830" lon="-6.3742290">
        <ele>905.9</ele>
        <time>2019-08-16T09:01:55Z</time>
      </trkpt>
      <trkpt lat="42.0159910" lon="-6.3743130">
        <ele>905.8</ele>
        <time>2019-08-16T09:01:56Z</time>
      </trkpt>
      <trkpt lat="42.0159980" lon="-6.3743960">
        <ele>905.7</ele>
        <time>2019-08-16T09:01:57Z</time>
      </trkpt>
      <trkpt lat="42.0160050" lon="-6.3744810">
        <ele>905.6</ele>
        <time>2019-08-16T09:01:58Z</time>
      </trkpt>
      <trkpt lat="42.0160100" lon="-6.3745670">
        <ele>905.5</ele>
        <time>2019-08-16T09:01:59Z</time>
      </trkpt>
      <trkpt lat="42.0160160" lon="-6.3746550">
        <ele>905.4</ele>
        <time>2019-08-16T09:02:00Z</time>
      </trkpt>
      <trkpt lat="42.0160240" lon="-6.3747440">
        <ele>905.2</ele>
        <time>2019-08-16T09:02:01Z</time>
      </trkpt>
      <trkpt lat="42.0160320" lon="-6.3748340">
        <ele>905.1</ele>
        <time>2019-08-16T09:02:02Z</time>
      </trkpt>
      <trkpt lat="42.0160410" lon="-6.3749230">
        <ele>904.9</ele>
        <time>2019-08-16T09:02:03Z</time>
      </trkpt>
      <trkpt lat="42.0160490" lon="-6.3750140">
        <ele>904.8</ele>
        <time>2019-08-16T09:02:04Z</time>
      </trkpt>
      <trkpt lat="42.0160570" lon="-6.3751070">
        <ele>904.6</ele>
        <time>2019-08-16T09:02:05Z</time>
      </trkpt>
      <trkpt lat="42.0160660" lon="-6.3752010">
        <ele>904.4</ele>
        <time>2019-08-16T09:02:06Z</time>
      </trkpt>
      <trkpt lat="42.0160750" lon="-6.3752960">
        <ele>904.2</ele>
        <time>2019-08-16T09:02:07Z</time>
      </trkpt>
      <trkpt lat="42.0160830" lon="-6.3753920">
        <ele>903.8</ele>
        <time>2019-08-16T09:02:08Z</time>
      </trkpt>
      <trkpt lat="42.0160860" lon="-6.3754910">
        <ele>903.6</ele>
        <time>2019-08-16T09:02:09Z</time>
      </trkpt>
      <trkpt lat="42.0160820" lon="-6.3755900">
        <ele>903.3</ele>
        <time>2019-08-16T09:02:10Z</time>
      </trkpt>
      <trkpt lat="42.0160710" lon="-6.3756920">
        <ele>903.0</ele>
        <time>2019-08-16T09:02:11Z</time>
      </trkpt>
      <trkpt lat="42.0160540" lon="-6.3757940">
        <ele>902.7</ele>
        <time>2019-08-16T09:02:12Z</time>
      </trkpt>
      <trkpt lat="42.0160350" lon="-6.3758940">
        <ele>902.4</ele>
        <time>2019-08-16T09:02:13Z</time>
      </trkpt>
      <trkpt lat="42.0160150" lon="-6.3759980">
        <ele>902.2</ele>
        <time>2019-08-16T09:02:14Z</time>
      </trkpt>
      <trkpt lat="42.0159980" lon="-6.3761030">
        <ele>901.9</ele>
        <time>2019-08-16T09:02:15Z</time>
      </trkpt>
      <trkpt lat="42.0159870" lon="-6.3762100">
        <ele>901.5</ele>
        <time>2019-08-16T09:02:16Z</time>
      </trkpt>
      <trkpt lat="42.0159780" lon="-6.3763170">
        <ele>901.0</ele>
        <time>2019-08-16T09:02:17Z</time>
      </trkpt>
      <trkpt lat="42.0159650" lon="-6.3764230">
        <ele>900.7</ele>
        <time>2019-08-16T09:02:18Z</time>
      </trkpt>
      <trkpt lat="42.0159440" lon="-6.3765230">
        <ele>900.4</ele>
        <time>2019-08-16T09:02:19Z</time>
      </trkpt>
      <trkpt lat="42.0159140" lon="-6.3766160">
        <ele>900.1</ele>
        <time>2019-08-16T09:02:20Z</time>
      </trkpt>
      <trkpt lat="42.0158770" lon="-6.3767000">
        <ele>899.9</ele>
        <time>2019-08-16T09:02:21Z</time>
      </trkpt>
      <trkpt lat="42.0158370" lon="-6.3767700">
        <ele>899.7</ele>
        <time>2019-08-16T09:02:22Z</time>
      </trkpt>
      <trkpt lat="42.0157960" lon="-6.3768360">
        <ele>899.5</ele>
        <time>2019-08-16T09:02:23Z</time>
      </trkpt>
      <trkpt lat="42.0157570" lon="-6.3768980">
        <ele>899.4</ele>
        <time>2019-08-16T09:02:24Z</time>
      </trkpt>
      <trkpt lat="42.0157180" lon="-6.3769550">
        <ele>899.3</ele>
        <time>2019-08-16T09:02:25Z</time>
      </trkpt>
      <trkpt lat="42.0156770" lon="-6.3770080">
        <ele>899.3</ele>
        <time>2019-08-16T09:02:26Z</time>
      </trkpt>
      <trkpt lat="42.0156320" lon="-6.3770540">
        <ele>899.1</ele>
        <time>2019-08-16T09:02:27Z</time>
      </trkpt>
      <trkpt lat="42.0155830" lon="-6.3770890">
        <ele>899.1</ele>
        <time>2019-08-16T09:02:28Z</time>
      </trkpt>
      <trkpt lat="42.0155310" lon="-6.3771150">
        <ele>899.1</ele>
        <time>2019-08-16T09:02:29Z</time>
      </trkpt>
      <trkpt lat="42.0154790" lon="-6.3771350">
        <ele>899.1</ele>
        <time>2019-08-16T09:02:30Z</time>
      </trkpt>
      <trkpt lat="42.0154280" lon="-6.3771500">
        <ele>899.0</ele>
        <time>2019-08-16T09:02:31Z</time>
      </trkpt>
      <trkpt lat="42.0153780" lon="-6.3771600">
        <ele>899.0</ele>
        <time>2019-08-16T09:02:32Z</time>
      </trkpt>
      <trkpt lat="42.0153290" lon="-6.3771690">
        <ele>899.0</ele>
        <time>2019-08-16T09:02:33Z</time>
      </trkpt>
      <trkpt lat="42.0152810" lon="-6.3771830">
        <ele>899.0</ele>
        <time>2019-08-16T09:02:34Z</time>
      </trkpt>
      <trkpt lat="42.0152360" lon="-6.3772000">
        <ele>899.0</ele>
        <time>2019-08-16T09:02:35Z</time>
      </trkpt>
      <trkpt lat="42.0151930" lon="-6.3772190">
        <ele>898.9</ele>
        <time>2019-08-16T09:02:36Z</time>
      </trkpt>
      <trkpt lat="42.0151530" lon="-6.3772430">
        <ele>898.8</ele>
        <time>2019-08-16T09:02:37Z</time>
      </trkpt>
      <trkpt lat="42.0151170" lon="-6.3772700">
        <ele>898.7</ele>
        <time>2019-08-16T09:02:38Z</time>
      </trkpt>
      <trkpt lat="42.0150820" lon="-6.3772990">
        <ele>898.7</ele>
        <time>2019-08-16T09:02:39Z</time>
      </trkpt>
      <trkpt lat="42.0150510" lon="-6.3773310">
        <ele>898.6</ele>
        <time>2019-08-16T09:02:40Z</time>
      </trkpt>
      <trkpt lat="42.0150220" lon="-6.3773620">
        <ele>898.5</ele>
        <time>2019-08-16T09:02:41Z</time>
      </trkpt>
      <trkpt lat="42.0149950" lon="-6.3773930">
        <ele>898.4</ele>
        <time>2019-08-16T09:02:42Z</time>
      </trkpt>
      <trkpt lat="42.0149690" lon="-6.3774240">
        <ele>898.3</ele>
        <time>2019-08-16T09:02:43Z</time>
      </trkpt>
      <trkpt lat="42.0149420" lon="-6.3774570">
        <ele>898.3</ele>
        <time>2019-08-16T09:02:44Z</time>
      </trkpt>
      <trkpt lat="42.0149160" lon="-6.3774920">
        <ele>898.2</ele>
        <time>2019-08-16T09:02:45Z</time>
      </trkpt>
      <trkpt lat="42.0148910" lon="-6.3775240">
        <ele>898.1</ele>
        <time>2019-08-16T09:02:46Z</time>
      </trkpt>
      <trkpt lat="42.0148720" lon="-6.3775520">
        <ele>897.9</ele>
        <time>2019-08-16T09:02:47Z</time>
      </trkpt>
      <trkpt lat="42.0148620" lon="-6.3776060">
        <ele>898.0</ele>
        <time>2019-08-16T09:02:49Z</time>
      </trkpt>
      <trkpt lat="42.0148710" lon="-6.3776400">
        <ele>898.1</ele>
        <time>2019-08-16T09:02:50Z</time>
      </trkpt>
      <trkpt lat="42.0148860" lon="-6.3776810">
        <ele>898.1</ele>
        <time>2019-08-16T09:02:51Z</time>
      </trkpt>
      <trkpt lat="42.0149020" lon="-6.3777280">
        <ele>898.2</ele>
        <time>2019-08-16T09:02:52Z</time>
      </trkpt>
      <trkpt lat="42.0149200" lon="-6.3777800">
        <ele>898.2</ele>
        <time>2019-08-16T09:02:53Z</time>
      </trkpt>
      <trkpt lat="42.0149380" lon="-6.3778350">
        <ele>898.1</ele>
        <time>2019-08-16T09:02:54Z</time>
      </trkpt>
      <trkpt lat="42.0149530" lon="-6.3778930">
        <ele>898.1</ele>
        <time>2019-08-16T09:02:55Z</time>
      </trkpt>
      <trkpt lat="42.0149630" lon="-6.3779520">
        <ele>898.0</ele>
        <time>2019-08-16T09:02:56Z</time>
      </trkpt>
      <trkpt lat="42.0149650" lon="-6.3780120">
        <ele>897.9</ele>
        <time>2019-08-16T09:02:57Z</time>
      </trkpt>
      <trkpt lat="42.0149630" lon="-6.3780720">
        <ele>897.6</ele>
        <time>2019-08-16T09:02:58Z</time>
      </trkpt>
      <trkpt lat="42.0149600" lon="-6.3781300">
        <ele>897.4</ele>
        <time>2019-08-16T09:02:59Z</time>
      </trkpt>
      <trkpt lat="42.0149570" lon="-6.3781840">
        <ele>897.1</ele>
        <time>2019-08-16T09:03:00Z</time>
      </trkpt>
      <trkpt lat="42.0149550" lon="-6.3782360">
        <ele>896.7</ele>
        <time>2019-08-16T09:03:01Z</time>
      </trkpt>
      <trkpt lat="42.0149600" lon="-6.3782840">
        <ele>896.4</ele>
        <time>2019-08-16T09:03:02Z</time>
      </trkpt>
      <trkpt lat="42.0149780" lon="-6.3783330">
        <ele>896.0</ele>
        <time>2019-08-16T09:03:03Z</time>
      </trkpt>
      <trkpt lat="42.0150050" lon="-6.3783860">
        <ele>896.0</ele>
        <time>2019-08-16T09:03:04Z</time>
      </trkpt>
      <trkpt lat="42.0150370" lon="-6.3784460">
        <ele>896.1</ele>
        <time>2019-08-16T09:03:05Z</time>
      </trkpt>
      <trkpt lat="42.0150670" lon="-6.3785140">
        <ele>896.2</ele>
        <time>2019-08-16T09:03:06Z</time>
      </trkpt>
      <trkpt lat="42.0150890" lon="-6.3785900">
        <ele>896.2</ele>
        <time>2019-08-16T09:03:07Z</time>
      </trkpt>
      <trkpt lat="42.0151000" lon="-6.3786680">
        <ele>896.3</ele>
        <time>2019-08-16T09:03:08Z</time>
      </trkpt>
      <trkpt lat="42.0151010" lon="-6.3787450">
        <ele>896.3</ele>
        <time>2019-08-16T09:03:09Z</time>
      </trkpt>
      <trkpt lat="42.0150970" lon="-6.3788170">
        <ele>896.4</ele>
        <time>2019-08-16T09:03:10Z</time>
      </trkpt>
      <trkpt lat="42.0150920" lon="-6.3788850">
        <ele>896.4</ele>
        <time>2019-08-16T09:03:11Z</time>
      </trkpt>
      <trkpt lat="42.0150840" lon="-6.3789480">
        <ele>896.4</ele>
        <time>2019-08-16T09:03:12Z</time>
      </trkpt>
      <trkpt lat="42.0150730" lon="-6.3790040">
        <ele>896.4</ele>
        <time>2019-08-16T09:03:13Z</time>
      </trkpt>
      <trkpt lat="42.0150600" lon="-6.3790580">
        <ele>896.5</ele>
        <time>2019-08-16T09:03:14Z</time>
      </trkpt>
      <trkpt lat="42.0150480" lon="-6.3791110">
        <ele>896.5</ele>
        <time>2019-08-16T09:03:15Z</time>
      </trkpt>
      <trkpt lat="42.0150370" lon="-6.3791620">
        <ele>896.6</ele>
        <time>2019-08-16T09:03:16Z</time>
      </trkpt>
      <trkpt lat="42.0150260" lon="-6.3792080">
        <ele>896.6</ele>
        <time>2019-08-16T09:03:17Z</time>
      </trkpt>
      <trkpt lat="42.0150150" lon="-6.3792480">
        <ele>896.6</ele>
        <time>2019-08-16T09:03:18Z</time>
      </trkpt>
      <trkpt lat="42.0150030" lon="-6.3792850">
        <ele>896.6</ele>
        <time>2019-08-16T09:03:19Z</time>
      </trkpt>
      <trkpt lat="42.0149820" lon="-6.3793170">
        <ele>896.7</ele>
        <time>2019-08-16T09:03:20Z</time>
      </trkpt>
      <trkpt lat="42.0149560" lon="-6.3793420">
        <ele>896.6</ele>
        <time>2019-08-16T09:03:21Z</time>
      </trkpt>
      <trkpt lat="42.0149240" lon="-6.3793640">
        <ele>896.5</ele>
        <time>2019-08-16T09:03:22Z</time>
      </trkpt>
      <trkpt lat="42.0148880" lon="-6.3793830">
        <ele>896.4</ele>
        <time>2019-08-16T09:03:23Z</time>
      </trkpt>
      <trkpt lat="42.0148490" lon="-6.3794020">
        <ele>896.4</ele>
        <time>2019-08-16T09:03:24Z</time>
      </trkpt>
      <trkpt lat="42.0148090" lon="-6.3794230">
        <ele>896.3</ele>
        <time>2019-08-16T09:03:25Z</time>
      </trkpt>
      <trkpt lat="42.0147690" lon="-6.3794450">
        <ele>896.2</ele>
        <time>2019-08-16T09:03:26Z</time>
      </trkpt>
      <trkpt lat="42.0147240" lon="-6.3794650">
        <ele>896.1</ele>
        <time>2019-08-16T09:03:27Z</time>
      </trkpt>
      <trkpt lat="42.0146770" lon="-6.3794830">
        <ele>896.0</ele>
        <time>2019-08-16T09:03:28Z</time>
      </trkpt>
      <trkpt lat="42.0146270" lon="-6.3795020">
        <ele>895.8</ele>
        <time>2019-08-16T09:03:29Z</time>
      </trkpt>
      <trkpt lat="42.0145740" lon="-6.3795170">
        <ele>895.6</ele>
        <time>2019-08-16T09:03:30Z</time>
      </trkpt>
      <trkpt lat="42.0145190" lon="-6.3795280">
        <ele>895.4</ele>
        <time>2019-08-16T09:03:31Z</time>
      </trkpt>
      <trkpt lat="42.0144620" lon="-6.3795380">
        <ele>895.1</ele>
        <time>2019-08-16T09:03:32Z</time>
      </trkpt>
      <trkpt lat="42.0144040" lon="-6.3795520">
        <ele>894.7</ele>
        <time>2019-08-16T09:03:33Z</time>
      </trkpt>
      <trkpt lat="42.0143460" lon="-6.3795720">
        <ele>894.2</ele>
        <time>2019-08-16T09:03:34Z</time>
      </trkpt>
      <trkpt lat="42.0142890" lon="-6.3796000">
        <ele>894.0</ele>
        <time>2019-08-16T09:03:35Z</time>
      </trkpt>
      <trkpt lat="42.0142340" lon="-6.3796350">
        <ele>893.6</ele>
        <time>2019-08-16T09:03:36Z</time>
      </trkpt>
      <trkpt lat="42.0141810" lon="-6.3796730">
        <ele>893.4</ele>
        <time>2019-08-16T09:03:37Z</time>
      </trkpt>
      <trkpt lat="42.0141300" lon="-6.3797130">
        <ele>893.2</ele>
        <time>2019-08-16T09:03:38Z</time>
      </trkpt>
      <trkpt lat="42.0140830" lon="-6.3797540">
        <ele>893.0</ele>
        <time>2019-08-16T09:03:39Z</time>
      </trkpt>
      <trkpt lat="42.0140390" lon="-6.3797960">
        <ele>892.7</ele>
        <time>2019-08-16T09:03:40Z</time>
      </trkpt>
      <trkpt lat="42.0139960" lon="-6.3798390">
        <ele>892.5</ele>
        <time>2019-08-16T09:03:41Z</time>
      </trkpt>
      <trkpt lat="42.0139520" lon="-6.3798910">
        <ele>892.2</ele>
        <time>2019-08-16T09:03:42Z</time>
      </trkpt>
      <trkpt lat="42.0139070" lon="-6.3799580">
        <ele>892.0</ele>
        <time>2019-08-16T09:03:43Z</time>
      </trkpt>
      <trkpt lat="42.0138630" lon="-6.3800260">
        <ele>891.6</ele>
        <time>2019-08-16T09:03:44Z</time>
      </trkpt>
      <trkpt lat="42.0138160" lon="-6.3800900">
        <ele>891.2</ele>
        <time>2019-08-16T09:03:45Z</time>
      </trkpt>
      <trkpt lat="42.0137640" lon="-6.3801490">
        <ele>890.9</ele>
        <time>2019-08-16T09:03:46Z</time>
      </trkpt>
      <trkpt lat="42.0137170" lon="-6.3802080">
        <ele>890.8</ele>
        <time>2019-08-16T09:03:47Z</time>
      </trkpt>
      <trkpt lat="42.0136760" lon="-6.3802670">
        <ele>890.7</ele>
        <time>2019-08-16T09:03:48Z</time>
      </trkpt>
      <trkpt lat="42.0136420" lon="-6.3803210">
        <ele>890.6</ele>
        <time>2019-08-16T09:03:49Z</time>
      </trkpt>
      <trkpt lat="42.0136140" lon="-6.3803710">
        <ele>890.6</ele>
        <time>2019-08-16T09:03:50Z</time>
      </trkpt>
      <trkpt lat="42.0135910" lon="-6.3804160">
        <ele>890.6</ele>
        <time>2019-08-16T09:03:51Z</time>
      </trkpt>
      <trkpt lat="42.0135700" lon="-6.3804540">
        <ele>890.6</ele>
        <time>2019-08-16T09:03:52Z</time>
      </trkpt>
      <trkpt lat="42.0135540" lon="-6.3804870">
        <ele>890.6</ele>
        <time>2019-08-16T09:03:53Z</time>
      </trkpt>
      <trkpt lat="42.0135250" lon="-6.3805450">
        <ele>890.7</ele>
        <time>2019-08-16T09:03:55Z</time>
      </trkpt>
      <trkpt lat="42.0134970" lon="-6.3806050">
        <ele>890.7</ele>
        <time>2019-08-16T09:03:57Z</time>
      </trkpt>
      <trkpt lat="42.0134820" lon="-6.3806360">
        <ele>890.8</ele>
        <time>2019-08-16T09:03:58Z</time>
      </trkpt>
      <trkpt lat="42.0134670" lon="-6.3806660">
        <ele>890.8</ele>
        <time>2019-08-16T09:03:59Z</time>
      </trkpt>
      <trkpt lat="42.0134400" lon="-6.3807270">
        <ele>890.9</ele>
        <time>2019-08-16T09:04:01Z</time>
      </trkpt>
      <trkpt lat="42.0134270" lon="-6.3807590">
        <ele>890.9</ele>
        <time>2019-08-16T09:04:02Z</time>
      </trkpt>
      <trkpt lat="42.0134140" lon="-6.3807910">
        <ele>891.0</ele>
        <time>2019-08-16T09:04:03Z</time>
      </trkpt>
      <trkpt lat="42.0133870" lon="-6.3808520">
        <ele>891.2</ele>
        <time>2019-08-16T09:04:05Z</time>
      </trkpt>
      <trkpt lat="42.0133630" lon="-6.3809130">
        <ele>891.5</ele>
        <time>2019-08-16T09:04:07Z</time>
      </trkpt>
      <trkpt lat="42.0133410" lon="-6.3809760">
        <ele>891.9</ele>
        <time>2019-08-16T09:04:09Z</time>
      </trkpt>
      <trkpt lat="42.0133310" lon="-6.3810090">
        <ele>892.0</ele>
        <time>2019-08-16T09:04:10Z</time>
      </trkpt>
      <trkpt lat="42.0133140" lon="-6.3810780">
        <ele>892.3</ele>
        <time>2019-08-16T09:04:12Z</time>
      </trkpt>
      <trkpt lat="42.0133050" lon="-6.3811120">
        <ele>892.5</ele>
        <time>2019-08-16T09:04:13Z</time>
      </trkpt>
      <trkpt lat="42.0132930" lon="-6.3811820">
        <ele>892.8</ele>
        <time>2019-08-16T09:04:15Z</time>
      </trkpt>
      <trkpt lat="42.0132840" lon="-6.3812520">
        <ele>893.1</ele>
        <time>2019-08-16T09:04:17Z</time>
      </trkpt>
      <trkpt lat="42.0132810" lon="-6.3813200">
        <ele>893.4</ele>
        <time>2019-08-16T09:04:19Z</time>
      </trkpt>
      <trkpt lat="42.0132860" lon="-6.3813870">
        <ele>893.6</ele>
        <time>2019-08-16T09:04:21Z</time>
      </trkpt>
      <trkpt lat="42.0132930" lon="-6.3814540">
        <ele>893.7</ele>
        <time>2019-08-16T09:04:23Z</time>
      </trkpt>
      <trkpt lat="42.0133030" lon="-6.3815200">
        <ele>893.9</ele>
        <time>2019-08-16T09:04:25Z</time>
      </trkpt>
      <trkpt lat="42.0133150" lon="-6.3815860">
        <ele>894.0</ele>
        <time>2019-08-16T09:04:27Z</time>
      </trkpt>
      <trkpt lat="42.0133280" lon="-6.3816530">
        <ele>894.1</ele>
        <time>2019-08-16T09:04:29Z</time>
      </trkpt>
      <trkpt lat="42.0133440" lon="-6.3817200">
        <ele>894.3</ele>
        <time>2019-08-16T09:04:31Z</time>
      </trkpt>
      <trkpt lat="42.0133580" lon="-6.3817870">
        <ele>894.6</ele>
        <time>2019-08-16T09:04:33Z</time>
      </trkpt>
      <trkpt lat="42.0133710" lon="-6.3818540">
        <ele>894.8</ele>
        <time>2019-08-16T09:04:35Z</time>
      </trkpt>
      <trkpt lat="42.0133830" lon="-6.3819200">
        <ele>895.1</ele>
        <time>2019-08-16T09:04:37Z</time>
      </trkpt>
      <trkpt lat="42.0133970" lon="-6.3819860">
        <ele>895.5</ele>
        <time>2019-08-16T09:04:39Z</time>
      </trkpt>
      <trkpt lat="42.0134080" lon="-6.3820530">
        <ele>895.8</ele>
        <time>2019-08-16T09:04:41Z</time>
      </trkpt>
      <trkpt lat="42.0134190" lon="-6.3821200">
        <ele>895.9</ele>
        <time>2019-08-16T09:04:43Z</time>
      </trkpt>
      <trkpt lat="42.0134310" lon="-6.3821890">
        <ele>896.1</ele>
        <time>2019-08-16T09:04:45Z</time>
      </trkpt>
      <trkpt lat="42.0134430" lon="-6.3822580">
        <ele>896.3</ele>
        <time>2019-08-16T09:04:47Z</time>
      </trkpt>
      <trkpt lat="42.0134540" lon="-6.3823240">
        <ele>896.5</ele>
        <time>2019-08-16T09:04:49Z</time>
      </trkpt>
      <trkpt lat="42.0134670" lon="-6.3823880">
        <ele>896.9</ele>
        <time>2019-08-16T09:04:51Z</time>
      </trkpt>
      <trkpt lat="42.0134780" lon="-6.3824520">
        <ele>897.3</ele>
        <time>2019-08-16T09:04:53Z</time>
      </trkpt>
      <trkpt lat="42.0134900" lon="-6.3825160">
        <ele>897.7</ele>
        <time>2019-08-16T09:04:55Z</time>
      </trkpt>
      <trkpt lat="42.0135020" lon="-6.3825800">
        <ele>897.9</ele>
        <time>2019-08-16T09:04:57Z</time>
      </trkpt>
      <trkpt lat="42.0135140" lon="-6.3826430">
        <ele>898.0</ele>
        <time>2019-08-16T09:04:59Z</time>
      </trkpt>
      <trkpt lat="42.0135270" lon="-6.3827070">
        <ele>898.2</ele>
        <time>2019-08-16T09:05:01Z</time>
      </trkpt>
      <trkpt lat="42.0135390" lon="-6.3827720">
        <ele>898.4</ele>
        <time>2019-08-16T09:05:03Z</time>
      </trkpt>
      <trkpt lat="42.0135510" lon="-6.3828410">
        <ele>898.6</ele>
        <time>2019-08-16T09:05:05Z</time>
      </trkpt>
      <trkpt lat="42.0135630" lon="-6.3829090">
        <ele>898.8</ele>
        <time>2019-08-16T09:05:07Z</time>
      </trkpt>
      <trkpt lat="42.0135770" lon="-6.3829750">
        <ele>899.0</ele>
        <time>2019-08-16T09:05:09Z</time>
      </trkpt>
      <trkpt lat="42.0135890" lon="-6.3830450">
        <ele>899.2</ele>
        <time>2019-08-16T09:05:11Z</time>
      </trkpt>
      <trkpt lat="42.0135950" lon="-6.3830800">
        <ele>899.4</ele>
        <time>2019-08-16T09:05:12Z</time>
      </trkpt>
      <trkpt lat="42.0136080" lon="-6.3831500">
        <ele>899.8</ele>
        <time>2019-08-16T09:05:14Z</time>
      </trkpt>
      <trkpt lat="42.0136140" lon="-6.3831850">
        <ele>900.0</ele>
        <time>2019-08-16T09:05:15Z</time>
      </trkpt>
      <trkpt lat="42.0136210" lon="-6.3832210">
        <ele>900.1</ele>
        <time>2019-08-16T09:05:16Z</time>
      </trkpt>
      <trkpt lat="42.0136270" lon="-6.3832560">
        <ele>900.1</ele>
        <time>2019-08-16T09:05:17Z</time>
      </trkpt>
      <trkpt lat="42.0136340" lon="-6.3832920">
        <ele>900.2</ele>
        <time>2019-08-16T09:05:18Z</time>
      </trkpt>
      <trkpt lat="42.0136410" lon="-6.3833290">
        <ele>900.3</ele>
        <time>2019-08-16T09:05:19Z</time>
      </trkpt>
      <trkpt lat="42.0136470" lon="-6.3833660">
        <ele>900.4</ele>
        <time>2019-08-16T09:05:20Z</time>
      </trkpt>
      <trkpt lat="42.0136540" lon="-6.3834030">
        <ele>900.4</ele>
        <time>2019-08-16T09:05:21Z</time>
      </trkpt>
      <trkpt lat="42.0136610" lon="-6.3834400">
        <ele>900.5</ele>
        <time>2019-08-16T09:05:22Z</time>
      </trkpt>
      <trkpt lat="42.0136680" lon="-6.3834780">
        <ele>900.6</ele>
        <time>2019-08-16T09:05:23Z</time>
      </trkpt>
      <trkpt lat="42.0136750" lon="-6.3835160">
        <ele>900.6</ele>
        <time>2019-08-16T09:05:24Z</time>
      </trkpt>
      <trkpt lat="42.0136820" lon="-6.3835550">
        <ele>900.7</ele>
        <time>2019-08-16T09:05:25Z</time>
      </trkpt>
      <trkpt lat="42.0136890" lon="-6.3835930">
        <ele>900.7</ele>
        <time>2019-08-16T09:05:26Z</time>
      </trkpt>
      <trkpt lat="42.0136950" lon="-6.3836300">
        <ele>900.8</ele>
        <time>2019-08-16T09:05:27Z</time>
      </trkpt>
      <trkpt lat="42.0137010" lon="-6.3836680">
        <ele>900.8</ele>
        <time>2019-08-16T09:05:28Z</time>
      </trkpt>
      <trkpt lat="42.0137070" lon="-6.3837070">
        <ele>900.9</ele>
        <time>2019-08-16T09:05:29Z</time>
      </trkpt>
      <trkpt lat="42.0137120" lon="-6.3837450">
        <ele>901.0</ele>
        <time>2019-08-16T09:05:30Z</time>
      </trkpt>
      <trkpt lat="42.0137190" lon="-6.3837850">
        <ele>901.1</ele>
        <time>2019-08-16T09:05:31Z</time>
      </trkpt>
      <trkpt lat="42.0137250" lon="-6.3838260">
        <ele>901.2</ele>
        <time>2019-08-16T09:05:32Z</time>
      </trkpt>
      <trkpt lat="42.0137320" lon="-6.3838680">
        <ele>901.3</ele>
        <time>2019-08-16T09:05:33Z</time>
      </trkpt>
      <trkpt lat="42.0137400" lon="-6.3839090">
        <ele>901.5</ele>
        <time>2019-08-16T09:05:34Z</time>
      </trkpt>
      <trkpt lat="42.0137480" lon="-6.3839510">
        <ele>901.6</ele>
        <time>2019-08-16T09:05:35Z</time>
      </trkpt>
      <trkpt lat="42.0137570" lon="-6.3839930">
        <ele>901.8</ele>
        <time>2019-08-16T09:05:36Z</time>
      </trkpt>
      <trkpt lat="42.0137640" lon="-6.3840350">
        <ele>902.0</ele>
        <time>2019-08-16T09:05:37Z</time>
      </trkpt>
      <trkpt lat="42.0137710" lon="-6.3840780">
        <ele>902.2</ele>
        <time>2019-08-16T09:05:38Z</time>
      </trkpt>
      <trkpt lat="42.0137780" lon="-6.3841200">
        <ele>902.3</ele>
        <time>2019-08-16T09:05:39Z</time>
      </trkpt>
      <trkpt lat="42.0137860" lon="-6.3841630">
        <ele>902.4</ele>
        <time>2019-08-16T09:05:40Z</time>
      </trkpt>
      <trkpt lat="42.0137950" lon="-6.3842050">
        <ele>902.5</ele>
        <time>2019-08-16T09:05:41Z</time>
      </trkpt>
      <trkpt lat="42.0138020" lon="-6.3842480">
        <ele>902.6</ele>
        <time>2019-08-16T09:05:42Z</time>
      </trkpt>
      <trkpt lat="42.0138100" lon="-6.3842930">
        <ele>902.7</ele>
        <time>2019-08-16T09:05:43Z</time>
      </trkpt>
      <trkpt lat="42.0138180" lon="-6.3843370">
        <ele>902.8</ele>
        <time>2019-08-16T09:05:44Z</time>
      </trkpt>
      <trkpt lat="42.0138260" lon="-6.3843820">
        <ele>902.8</ele>
        <time>2019-08-16T09:05:45Z</time>
      </trkpt>
      <trkpt lat="42.0138320" lon="-6.3844260">
        <ele>902.9</ele>
        <time>2019-08-16T09:05:46Z</time>
      </trkpt>
      <trkpt lat="42.0138400" lon="-6.3844710">
        <ele>903.0</ele>
        <time>2019-08-16T09:05:47Z</time>
      </trkpt>
      <trkpt lat="42.0138470" lon="-6.3845150">
        <ele>903.1</ele>
        <time>2019-08-16T09:05:48Z</time>
      </trkpt>
      <trkpt lat="42.0138550" lon="-6.3845600">
        <ele>903.2</ele>
        <time>2019-08-16T09:05:49Z</time>
      </trkpt>
      <trkpt lat="42.0138640" lon="-6.3846040">
        <ele>903.2</ele>
        <time>2019-08-16T09:05:50Z</time>
      </trkpt>
      <trkpt lat="42.0138720" lon="-6.3846470">
        <ele>903.3</ele>
        <time>2019-08-16T09:05:51Z</time>
      </trkpt>
      <trkpt lat="42.0138810" lon="-6.3846910">
        <ele>903.4</ele>
        <time>2019-08-16T09:05:52Z</time>
      </trkpt>
      <trkpt lat="42.0138880" lon="-6.3847350">
        <ele>903.5</ele>
        <time>2019-08-16T09:05:53Z</time>
      </trkpt>
      <trkpt lat="42.0138960" lon="-6.3847790">
        <ele>903.5</ele>
        <time>2019-08-16T09:05:54Z</time>
      </trkpt>
      <trkpt lat="42.0139040" lon="-6.3848240">
        <ele>903.7</ele>
        <time>2019-08-16T09:05:55Z</time>
      </trkpt>
      <trkpt lat="42.0139110" lon="-6.3848700">
        <ele>903.9</ele>
        <time>2019-08-16T09:05:56Z</time>
      </trkpt>
      <trkpt lat="42.0139190" lon="-6.3849160">
        <ele>904.1</ele>
        <time>2019-08-16T09:05:57Z</time>
      </trkpt>
      <trkpt lat="42.0139270" lon="-6.3849630">
        <ele>904.2</ele>
        <time>2019-08-16T09:05:58Z</time>
      </trkpt>
      <trkpt lat="42.0139350" lon="-6.3850110">
        <ele>904.3</ele>
        <time>2019-08-16T09:05:59Z</time>
      </trkpt>
      <trkpt lat="42.0139440" lon="-6.3850580">
        <ele>904.4</ele>
        <time>2019-08-16T09:06:00Z</time>
      </trkpt>
      <trkpt lat="42.0139530" lon="-6.3851060">
        <ele>904.5</ele>
        <time>2019-08-16T09:06:01Z</time>
      </trkpt>
      <trkpt lat="42.0139620" lon="-6.3851550">
        <ele>904.7</ele>
        <time>2019-08-16T09:06:02Z</time>
      </trkpt>
      <trkpt lat="42.0139710" lon="-6.3852040">
        <ele>904.7</ele>
        <time>2019-08-16T09:06:03Z</time>
      </trkpt>
      <trkpt lat="42.0139800" lon="-6.3852530">
        <ele>904.7</ele>
        <time>2019-08-16T09:06:04Z</time>
      </trkpt>
      <trkpt lat="42.0139900" lon="-6.3853030">
        <ele>904.7</ele>
        <time>2019-08-16T09:06:05Z</time>
      </trkpt>
      <trkpt lat="42.0140000" lon="-6.3853550">
        <ele>904.7</ele>
        <time>2019-08-16T09:06:06Z</time>
      </trkpt>
      <trkpt lat="42.0140110" lon="-6.3854060">
        <ele>904.7</ele>
        <time>2019-08-16T09:06:07Z</time>
      </trkpt>
      <trkpt lat="42.0140220" lon="-6.3854600">
        <ele>904.7</ele>
        <time>2019-08-16T09:06:08Z</time>
      </trkpt>
      <trkpt lat="42.0140320" lon="-6.3855130">
        <ele>904.7</ele>
        <time>2019-08-16T09:06:09Z</time>
      </trkpt>
      <trkpt lat="42.0140400" lon="-6.3855680">
        <ele>904.7</ele>
        <time>2019-08-16T09:06:10Z</time>
      </trkpt>
      <trkpt lat="42.0140510" lon="-6.3856220">
        <ele>904.7</ele>
        <time>2019-08-16T09:06:11Z</time>
      </trkpt>
      <trkpt lat="42.0140610" lon="-6.3856780">
        <ele>904.7</ele>
        <time>2019-08-16T09:06:12Z</time>
      </trkpt>
      <trkpt lat="42.0140710" lon="-6.3857350">
        <ele>904.7</ele>
        <time>2019-08-16T09:06:13Z</time>
      </trkpt>
      <trkpt lat="42.0140800" lon="-6.3857950">
        <ele>904.7</ele>
        <time>2019-08-16T09:06:14Z</time>
      </trkpt>
      <trkpt lat="42.0140890" lon="-6.3858550">
        <ele>904.7</ele>
        <time>2019-08-16T09:06:15Z</time>
      </trkpt>
      <trkpt lat="42.0140970" lon="-6.3859180">
        <ele>904.7</ele>
        <time>2019-08-16T09:06:16Z</time>
      </trkpt>
      <trkpt lat="42.0141070" lon="-6.3859810">
        <ele>904.7</ele>
        <time>2019-08-16T09:06:17Z</time>
      </trkpt>
      <trkpt lat="42.0141180" lon="-6.3860420">
        <ele>904.7</ele>
        <time>2019-08-16T09:06:18Z</time>
      </trkpt>
      <trkpt lat="42.0141300" lon="-6.3861020">
        <ele>904.7</ele>
        <time>2019-08-16T09:06:19Z</time>
      </trkpt>
      <trkpt lat="42.0141400" lon="-6.3861610">
        <ele>904.7</ele>
        <time>2019-08-16T09:06:20Z</time>
      </trkpt>
      <trkpt lat="42.0141500" lon="-6.3862230">
        <ele>904.7</ele>
        <time>2019-08-16T09:06:21Z</time>
      </trkpt>
      <trkpt lat="42.0141610" lon="-6.3862880">
        <ele>904.7</ele>
        <time>2019-08-16T09:06:22Z</time>
      </trkpt>
      <trkpt lat="42.0141740" lon="-6.3863540">
        <ele>904.7</ele>
        <time>2019-08-16T09:06:23Z</time>
      </trkpt>
      <trkpt lat="42.0141860" lon="-6.3864210">
        <ele>904.6</ele>
        <time>2019-08-16T09:06:24Z</time>
      </trkpt>
      <trkpt lat="42.0141970" lon="-6.3864880">
        <ele>904.6</ele>
        <time>2019-08-16T09:06:25Z</time>
      </trkpt>
      <trkpt lat="42.0142090" lon="-6.3865550">
        <ele>904.5</ele>
        <time>2019-08-16T09:06:26Z</time>
      </trkpt>
      <trkpt lat="42.0142210" lon="-6.3866240">
        <ele>904.4</ele>
        <time>2019-08-16T09:06:27Z</time>
      </trkpt>
      <trkpt lat="42.0142340" lon="-6.3866950">
        <ele>904.3</ele>
        <time>2019-08-16T09:06:28Z</time>
      </trkpt>
      <trkpt lat="42.0142460" lon="-6.3867660">
        <ele>904.2</ele>
        <time>2019-08-16T09:06:29Z</time>
      </trkpt>
      <trkpt lat="42.0142600" lon="-6.3868390">
        <ele>904.0</ele>
        <time>2019-08-16T09:06:30Z</time>
      </trkpt>
      <trkpt lat="42.0142740" lon="-6.3869100">
        <ele>903.9</ele>
        <time>2019-08-16T09:06:31Z</time>
      </trkpt>
      <trkpt lat="42.0142860" lon="-6.3869820">
        <ele>903.7</ele>
        <time>2019-08-16T09:06:32Z</time>
      </trkpt>
      <trkpt lat="42.0142980" lon="-6.3870560">
        <ele>903.6</ele>
        <time>2019-08-16T09:06:33Z</time>
      </trkpt>
      <trkpt lat="42.0143100" lon="-6.3871310">
        <ele>903.4</ele>
        <time>2019-08-16T09:06:34Z</time>
      </trkpt>
      <trkpt lat="42.0143220" lon="-6.3872080">
        <ele>903.3</ele>
        <time>2019-08-16T09:06:35Z</time>
      </trkpt>
      <trkpt lat="42.0143350" lon="-6.3872850">
        <ele>903.1</ele>
        <time>2019-08-16T09:06:36Z</time>
      </trkpt>
      <trkpt lat="42.0143490" lon="-6.3873640">
        <ele>902.9</ele>
        <time>2019-08-16T09:06:37Z</time>
      </trkpt>
      <trkpt lat="42.0143640" lon="-6.3874430">
        <ele>902.8</ele>
        <time>2019-08-16T09:06:38Z</time>
      </trkpt>
      <trkpt lat="42.0143780" lon="-6.3875240">
        <ele>902.6</ele>
        <time>2019-08-16T09:06:39Z</time>
      </trkpt>
      <trkpt lat="42.0143940" lon="-6.3876070">
        <ele>902.4</ele>
        <time>2019-08-16T09:06:40Z</time>
      </trkpt>
      <trkpt lat="42.0144090" lon="-6.3876900">
        <ele>902.2</ele>
        <time>2019-08-16T09:06:41Z</time>
      </trkpt>
      <trkpt lat="42.0144250" lon="-6.3877730">
        <ele>902.0</ele>
        <time>2019-08-16T09:06:42Z</time>
      </trkpt>
      <trkpt lat="42.0144380" lon="-6.3878590">
        <ele>901.7</ele>
        <time>2019-08-16T09:06:43Z</time>
      </trkpt>
      <trkpt lat="42.0144510" lon="-6.3879440">
        <ele>901.4</ele>
        <time>2019-08-16T09:06:44Z</time>
      </trkpt>
      <trkpt lat="42.0144660" lon="-6.3880290">
        <ele>901.2</ele>
        <time>2019-08-16T09:06:45Z</time>
      </trkpt>
      <trkpt lat="42.0144810" lon="-6.3881160">
        <ele>901.1</ele>
        <time>2019-08-16T09:06:46Z</time>
      </trkpt>
      <trkpt lat="42.0144950" lon="-6.3882050">
        <ele>900.9</ele>
        <time>2019-08-16T09:06:47Z</time>
      </trkpt>
      <trkpt lat="42.0145090" lon="-6.3882930">
        <ele>900.7</ele>
        <time>2019-08-16T09:06:48Z</time>
      </trkpt>
      <trkpt lat="42.0145240" lon="-6.3883840">
        <ele>900.6</ele>
        <time>2019-08-16T09:06:49Z</time>
      </trkpt>
      <trkpt lat="42.0145380" lon="-6.3884720">
        <ele>900.3</ele>
        <time>2019-08-16T09:06:50Z</time>
      </trkpt>
      <trkpt lat="42.0145510" lon="-6.3885620">
        <ele>900.2</ele>
        <time>2019-08-16T09:06:51Z</time>
      </trkpt>
      <trkpt lat="42.0145660" lon="-6.3886530">
        <ele>900.0</ele>
        <time>2019-08-16T09:06:52Z</time>
      </trkpt>
      <trkpt lat="42.0145830" lon="-6.3887430">
        <ele>899.8</ele>
        <time>2019-08-16T09:06:53Z</time>
      </trkpt>
      <trkpt lat="42.0145990" lon="-6.3888320">
        <ele>899.6</ele>
        <time>2019-08-16T09:06:54Z</time>
      </trkpt>
      <trkpt lat="42.0146150" lon="-6.3889210">
        <ele>899.3</ele>
        <time>2019-08-16T09:06:55Z</time>
      </trkpt>
      <trkpt lat="42.0146300" lon="-6.3890070">
        <ele>899.2</ele>
        <time>2019-08-16T09:06:56Z</time>
      </trkpt>
      <trkpt lat="42.0146440" lon="-6.3890900">
        <ele>899.0</ele>
        <time>2019-08-16T09:06:57Z</time>
      </trkpt>
      <trkpt lat="42.0146570" lon="-6.3891720">
        <ele>898.9</ele>
        <time>2019-08-16T09:06:58Z</time>
      </trkpt>
      <trkpt lat="42.0146690" lon="-6.3892530">
        <ele>898.8</ele>
        <time>2019-08-16T09:06:59Z</time>
      </trkpt>
      <trkpt lat="42.0146840" lon="-6.3893360">
        <ele>898.7</ele>
        <time>2019-08-16T09:07:00Z</time>
      </trkpt>
      <trkpt lat="42.0146990" lon="-6.3894190">
        <ele>898.6</ele>
        <time>2019-08-16T09:07:01Z</time>
      </trkpt>
      <trkpt lat="42.0147140" lon="-6.3895040">
        <ele>898.5</ele>
        <time>2019-08-16T09:07:02Z</time>
      </trkpt>
      <trkpt lat="42.0147280" lon="-6.3895890">
        <ele>898.3</ele>
        <time>2019-08-16T09:07:03Z</time>
      </trkpt>
      <trkpt lat="42.0147420" lon="-6.3896740">
        <ele>898.2</ele>
        <time>2019-08-16T09:07:04Z</time>
      </trkpt>
      <trkpt lat="42.0147560" lon="-6.3897570">
        <ele>898.1</ele>
        <time>2019-08-16T09:07:05Z</time>
      </trkpt>
      <trkpt lat="42.0147710" lon="-6.3898380">
        <ele>898.0</ele>
        <time>2019-08-16T09:07:06Z</time>
      </trkpt>
      <trkpt lat="42.0147840" lon="-6.3899180">
        <ele>898.0</ele>
        <time>2019-08-16T09:07:07Z</time>
      </trkpt>
      <trkpt lat="42.0147970" lon="-6.3899950">
        <ele>897.9</ele>
        <time>2019-08-16T09:07:08Z</time>
      </trkpt>
      <trkpt lat="42.0148090" lon="-6.3900700">
        <ele>897.9</ele>
        <time>2019-08-16T09:07:09Z</time>
      </trkpt>
      <trkpt lat="42.0148220" lon="-6.3901410">
        <ele>898.0</ele>
        <time>2019-08-16T09:07:10Z</time>
      </trkpt>
      <trkpt lat="42.0148340" lon="-6.3902140">
        <ele>898.1</ele>
        <time>2019-08-16T09:07:11Z</time>
      </trkpt>
      <trkpt lat="42.0148460" lon="-6.3902850">
        <ele>898.2</ele>
        <time>2019-08-16T09:07:12Z</time>
      </trkpt>
      <trkpt lat="42.0148580" lon="-6.3903540">
        <ele>898.4</ele>
        <time>2019-08-16T09:07:13Z</time>
      </trkpt>
      <trkpt lat="42.0148690" lon="-6.3904210">
        <ele>898.6</ele>
        <time>2019-08-16T09:07:14Z</time>
      </trkpt>
      <trkpt lat="42.0148830" lon="-6.3904890">
        <ele>898.9</ele>
        <time>2019-08-16T09:07:15Z</time>
      </trkpt>
      <trkpt lat="42.0148950" lon="-6.3905560">
        <ele>899.1</ele>
        <time>2019-08-16T09:07:16Z</time>
      </trkpt>
      <trkpt lat="42.0149050" lon="-6.3906240">
        <ele>899.3</ele>
        <time>2019-08-16T09:07:17Z</time>
      </trkpt>
      <trkpt lat="42.0149160" lon="-6.3906910">
        <ele>899.5</ele>
        <time>2019-08-16T09:07:18Z</time>
      </trkpt>
      <trkpt lat="42.0149280" lon="-6.3907570">
        <ele>899.7</ele>
        <time>2019-08-16T09:07:19Z</time>
      </trkpt>
      <trkpt lat="42.0149400" lon="-6.3908220">
        <ele>899.8</ele>
        <time>2019-08-16T09:07:20Z</time>
      </trkpt>
      <trkpt lat="42.0149500" lon="-6.3908870">
        <ele>900.0</ele>
        <time>2019-08-16T09:07:21Z</time>
      </trkpt>
      <trkpt lat="42.0149610" lon="-6.3909520">
        <ele>900.1</ele>
        <time>2019-08-16T09:07:22Z</time>
      </trkpt>
      <trkpt lat="42.0149700" lon="-6.3910140">
        <ele>900.2</ele>
        <time>2019-08-16T09:07:23Z</time>
      </trkpt>
      <trkpt lat="42.0149780" lon="-6.3910760">
        <ele>900.3</ele>
        <time>2019-08-16T09:07:24Z</time>
      </trkpt>
      <trkpt lat="42.0149880" lon="-6.3911400">
        <ele>900.4</ele>
        <time>2019-08-16T09:07:25Z</time>
      </trkpt>
      <trkpt lat="42.0149990" lon="-6.3912050">
        <ele>900.5</ele>
        <time>2019-08-16T09:07:26Z</time>
      </trkpt>
      <trkpt lat="42.0150100" lon="-6.3912730">
        <ele>900.6</ele>
        <time>2019-08-16T09:07:27Z</time>
      </trkpt>
      <trkpt lat="42.0150210" lon="-6.3913410">
        <ele>900.7</ele>
        <time>2019-08-16T09:07:28Z</time>
      </trkpt>
      <trkpt lat="42.0150320" lon="-6.3914080">
        <ele>900.8</ele>
        <time>2019-08-16T09:07:29Z</time>
      </trkpt>
      <trkpt lat="42.0150430" lon="-6.3914750">
        <ele>900.8</ele>
        <time>2019-08-16T09:07:30Z</time>
      </trkpt>
      <trkpt lat="42.0150550" lon="-6.3915440">
        <ele>900.8</ele>
        <time>2019-08-16T09:07:31Z</time>
      </trkpt>
      <trkpt lat="42.0150670" lon="-6.3916140">
        <ele>900.8</ele>
        <time>2019-08-16T09:07:32Z</time>
      </trkpt>
      <trkpt lat="42.0150790" lon="-6.3916820">
        <ele>900.9</ele>
        <time>2019-08-16T09:07:33Z</time>
      </trkpt>
      <trkpt lat="42.0150900" lon="-6.3917510">
        <ele>900.9</ele>
        <time>2019-08-16T09:07:34Z</time>
      </trkpt>
      <trkpt lat="42.0151030" lon="-6.3918190">
        <ele>900.9</ele>
        <time>2019-08-16T09:07:35Z</time>
      </trkpt>
      <trkpt lat="42.0151160" lon="-6.3918890">
        <ele>900.9</ele>
        <time>2019-08-16T09:07:36Z</time>
      </trkpt>
      <trkpt lat="42.0151300" lon="-6.3919590">
        <ele>900.9</ele>
        <time>2019-08-16T09:07:37Z</time>
      </trkpt>
      <trkpt lat="42.0151420" lon="-6.3920260">
        <ele>900.9</ele>
        <time>2019-08-16T09:07:38Z</time>
      </trkpt>
      <trkpt lat="42.0151540" lon="-6.3920920">
        <ele>900.9</ele>
        <time>2019-08-16T09:07:39Z</time>
      </trkpt>
      <trkpt lat="42.0151660" lon="-6.3921590">
        <ele>900.9</ele>
        <time>2019-08-16T09:07:40Z</time>
      </trkpt>
      <trkpt lat="42.0151790" lon="-6.3922320">
        <ele>900.9</ele>
        <time>2019-08-16T09:07:41Z</time>
      </trkpt>
      <trkpt lat="42.0151910" lon="-6.3923070">
        <ele>900.9</ele>
        <time>2019-08-16T09:07:42Z</time>
      </trkpt>
      <trkpt lat="42.0152050" lon="-6.3923830">
        <ele>900.8</ele>
        <time>2019-08-16T09:07:43Z</time>
      </trkpt>
      <trkpt lat="42.0152200" lon="-6.3924570">
        <ele>900.8</ele>
        <time>2019-08-16T09:07:44Z</time>
      </trkpt>
      <trkpt lat="42.0152360" lon="-6.3925320">
        <ele>900.8</ele>
        <time>2019-08-16T09:07:45Z</time>
      </trkpt>
      <trkpt lat="42.0152530" lon="-6.3926090">
        <ele>900.8</ele>
        <time>2019-08-16T09:07:46Z</time>
      </trkpt>
      <trkpt lat="42.0152710" lon="-6.3926880">
        <ele>900.7</ele>
        <time>2019-08-16T09:07:47Z</time>
      </trkpt>
      <trkpt lat="42.0152890" lon="-6.3927660">
        <ele>900.6</ele>
        <time>2019-08-16T09:07:48Z</time>
      </trkpt>
      <trkpt lat="42.0153090" lon="-6.3928430">
        <ele>900.5</ele>
        <time>2019-08-16T09:07:49Z</time>
      </trkpt>
      <trkpt lat="42.0153260" lon="-6.3929210">
        <ele>900.3</ele>
        <time>2019-08-16T09:07:50Z</time>
      </trkpt>
      <trkpt lat="42.0153440" lon="-6.3929980">
        <ele>900.2</ele>
        <time>2019-08-16T09:07:51Z</time>
      </trkpt>
      <trkpt lat="42.0153600" lon="-6.3930730">
        <ele>900.0</ele>
        <time>2019-08-16T09:07:52Z</time>
      </trkpt>
      <trkpt lat="42.0153790" lon="-6.3931490">
        <ele>899.9</ele>
        <time>2019-08-16T09:07:53Z</time>
      </trkpt>
      <trkpt lat="42.0153980" lon="-6.3932240">
        <ele>899.7</ele>
        <time>2019-08-16T09:07:54Z</time>
      </trkpt>
      <trkpt lat="42.0154170" lon="-6.3933010">
        <ele>899.6</ele>
        <time>2019-08-16T09:07:55Z</time>
      </trkpt>
      <trkpt lat="42.0154330" lon="-6.3933800">
        <ele>899.4</ele>
        <time>2019-08-16T09:07:56Z</time>
      </trkpt>
      <trkpt lat="42.0154460" lon="-6.3934630">
        <ele>899.2</ele>
        <time>2019-08-16T09:07:57Z</time>
      </trkpt>
      <trkpt lat="42.0154570" lon="-6.3935500">
        <ele>899.0</ele>
        <time>2019-08-16T09:07:58Z</time>
      </trkpt>
      <trkpt lat="42.0154640" lon="-6.3936410">
        <ele>898.8</ele>
        <time>2019-08-16T09:07:59Z</time>
      </trkpt>
      <trkpt lat="42.0154710" lon="-6.3937330">
        <ele>898.7</ele>
        <time>2019-08-16T09:08:00Z</time>
      </trkpt>
      <trkpt lat="42.0154760" lon="-6.3938240">
        <ele>898.5</ele>
        <time>2019-08-16T09:08:01Z</time>
      </trkpt>
      <trkpt lat="42.0154810" lon="-6.3939130">
        <ele>898.3</ele>
        <time>2019-08-16T09:08:02Z</time>
      </trkpt>
      <trkpt lat="42.0154850" lon="-6.3939990">
        <ele>898.1</ele>
        <time>2019-08-16T09:08:03Z</time>
      </trkpt>
      <trkpt lat="42.0154910" lon="-6.3940830">
        <ele>898.0</ele>
        <time>2019-08-16T09:08:04Z</time>
      </trkpt>
      <trkpt lat="42.0154970" lon="-6.3941630">
        <ele>897.8</ele>
        <time>2019-08-16T09:08:05Z</time>
      </trkpt>
      <trkpt lat="42.0155010" lon="-6.3942400">
        <ele>897.8</ele>
        <time>2019-08-16T09:08:06Z</time>
      </trkpt>
      <trkpt lat="42.0155040" lon="-6.3943150">
        <ele>897.7</ele>
        <time>2019-08-16T09:08:07Z</time>
      </trkpt>
      <trkpt lat="42.0155080" lon="-6.3943900">
        <ele>897.7</ele>
        <time>2019-08-16T09:08:08Z</time>
      </trkpt>
      <trkpt lat="42.0155110" lon="-6.3944640">
        <ele>897.6</ele>
        <time>2019-08-16T09:08:09Z</time>
      </trkpt>
      <trkpt lat="42.0155140" lon="-6.3945400">
        <ele>897.6</ele>
        <time>2019-08-16T09:08:10Z</time>
      </trkpt>
      <trkpt lat="42.0155180" lon="-6.3946160">
        <ele>897.6</ele>
        <time>2019-08-16T09:08:11Z</time>
      </trkpt>
      <trkpt lat="42.0155230" lon="-6.3946930">
        <ele>897.6</ele>
        <time>2019-08-16T09:08:12Z</time>
      </trkpt>
      <trkpt lat="42.0155270" lon="-6.3947700">
        <ele>897.6</ele>
        <time>2019-08-16T09:08:13Z</time>
      </trkpt>
      <trkpt lat="42.0155310" lon="-6.3948460">
        <ele>897.6</ele>
        <time>2019-08-16T09:08:14Z</time>
      </trkpt>
      <trkpt lat="42.0155350" lon="-6.3949220">
        <ele>897.6</ele>
        <time>2019-08-16T09:08:15Z</time>
      </trkpt>
      <trkpt lat="42.0155400" lon="-6.3949980">
        <ele>897.5</ele>
        <time>2019-08-16T09:08:16Z</time>
      </trkpt>
      <trkpt lat="42.0155450" lon="-6.3950760">
        <ele>897.5</ele>
        <time>2019-08-16T09:08:17Z</time>
      </trkpt>
      <trkpt lat="42.0155490" lon="-6.3951550">
        <ele>897.5</ele>
        <time>2019-08-16T09:08:18Z</time>
      </trkpt>
      <trkpt lat="42.0155530" lon="-6.3952340">
        <ele>897.5</ele>
        <time>2019-08-16T09:08:19Z</time>
      </trkpt>
      <trkpt lat="42.0155570" lon="-6.3953130">
        <ele>897.5</ele>
        <time>2019-08-16T09:08:20Z</time>
      </trkpt>
      <trkpt lat="42.0155600" lon="-6.3953940">
        <ele>897.5</ele>
        <time>2019-08-16T09:08:21Z</time>
      </trkpt>
      <trkpt lat="42.0155630" lon="-6.3954770">
        <ele>897.5</ele>
        <time>2019-08-16T09:08:22Z</time>
      </trkpt>
      <trkpt lat="42.0155660" lon="-6.3955590">
        <ele>897.5</ele>
        <time>2019-08-16T09:08:23Z</time>
      </trkpt>
      <trkpt lat="42.0155690" lon="-6.3956390">
        <ele>897.4</ele>
        <time>2019-08-16T09:08:24Z</time>
      </trkpt>
      <trkpt lat="42.0155730" lon="-6.3957190">
        <ele>897.4</ele>
        <time>2019-08-16T09:08:25Z</time>
      </trkpt>
      <trkpt lat="42.0155780" lon="-6.3958010">
        <ele>897.3</ele>
        <time>2019-08-16T09:08:26Z</time>
      </trkpt>
      <trkpt lat="42.0155830" lon="-6.3958870">
        <ele>897.2</ele>
        <time>2019-08-16T09:08:27Z</time>
      </trkpt>
      <trkpt lat="42.0155870" lon="-6.3959720">
        <ele>897.1</ele>
        <time>2019-08-16T09:08:28Z</time>
      </trkpt>
      <trkpt lat="42.0155900" lon="-6.3960580">
        <ele>897.0</ele>
        <time>2019-08-16T09:08:29Z</time>
      </trkpt>
      <trkpt lat="42.0155940" lon="-6.3961430">
        <ele>896.8</ele>
        <time>2019-08-16T09:08:30Z</time>
      </trkpt>
      <trkpt lat="42.0155970" lon="-6.3962260">
        <ele>896.7</ele>
        <time>2019-08-16T09:08:31Z</time>
      </trkpt>
      <trkpt lat="42.0155980" lon="-6.3963100">
        <ele>896.6</ele>
        <time>2019-08-16T09:08:32Z</time>
      </trkpt>
      <trkpt lat="42.0155950" lon="-6.3963930">
        <ele>896.5</ele>
        <time>2019-08-16T09:08:33Z</time>
      </trkpt>
      <trkpt lat="42.0155880" lon="-6.3964750">
        <ele>896.3</ele>
        <time>2019-08-16T09:08:34Z</time>
      </trkpt>
      <trkpt lat="42.0155760" lon="-6.3965560">
        <ele>896.2</ele>
        <time>2019-08-16T09:08:35Z</time>
      </trkpt>
      <trkpt lat="42.0155600" lon="-6.3966370">
        <ele>896.0</ele>
        <time>2019-08-16T09:08:36Z</time>
      </trkpt>
      <trkpt lat="42.0155400" lon="-6.3967190">
        <ele>895.8</ele>
        <time>2019-08-16T09:08:37Z</time>
      </trkpt>
      <trkpt lat="42.0155160" lon="-6.3968010">
        <ele>895.5</ele>
        <time>2019-08-16T09:08:38Z</time>
      </trkpt>
      <trkpt lat="42.0154920" lon="-6.3968880">
        <ele>895.3</ele>
        <time>2019-08-16T09:08:39Z</time>
      </trkpt>
      <trkpt lat="42.0154700" lon="-6.3969820">
        <ele>895.0</ele>
        <time>2019-08-16T09:08:40Z</time>
      </trkpt>
      <trkpt lat="42.0154550" lon="-6.3970800">
        <ele>894.9</ele>
        <time>2019-08-16T09:08:41Z</time>
      </trkpt>
      <trkpt lat="42.0154500" lon="-6.3971810">
        <ele>894.7</ele>
        <time>2019-08-16T09:08:42Z</time>
      </trkpt>
      <trkpt lat="42.0154570" lon="-6.3972800">
        <ele>894.5</ele>
        <time>2019-08-16T09:08:43Z</time>
      </trkpt>
      <trkpt lat="42.0154710" lon="-6.3973750">
        <ele>894.2</ele>
        <time>2019-08-16T09:08:44Z</time>
      </trkpt>
      <trkpt lat="42.0154890" lon="-6.3974630">
        <ele>894.1</ele>
        <time>2019-08-16T09:08:45Z</time>
      </trkpt>
      <trkpt lat="42.0155100" lon="-6.3975460">
        <ele>893.9</ele>
        <time>2019-08-16T09:08:46Z</time>
      </trkpt>
      <trkpt lat="42.0155330" lon="-6.3976230">
        <ele>893.9</ele>
        <time>2019-08-16T09:08:47Z</time>
      </trkpt>
      <trkpt lat="42.0155570" lon="-6.3976950">
        <ele>893.8</ele>
        <time>2019-08-16T09:08:48Z</time>
      </trkpt>
      <trkpt lat="42.0155810" lon="-6.3977660">
        <ele>893.8</ele>
        <time>2019-08-16T09:08:49Z</time>
      </trkpt>
      <trkpt lat="42.0156050" lon="-6.3978340">
        <ele>893.7</ele>
        <time>2019-08-16T09:08:50Z</time>
      </trkpt>
      <trkpt lat="42.0156280" lon="-6.3978990">
        <ele>893.7</ele>
        <time>2019-08-16T09:08:51Z</time>
      </trkpt>
      <trkpt lat="42.0156500" lon="-6.3979640">
        <ele>893.7</ele>
        <time>2019-08-16T09:08:52Z</time>
      </trkpt>
      <trkpt lat="42.0156720" lon="-6.3980260">
        <ele>893.7</ele>
        <time>2019-08-16T09:08:53Z</time>
      </trkpt>
      <trkpt lat="42.0156950" lon="-6.3980870">
        <ele>893.8</ele>
        <time>2019-08-16T09:08:54Z</time>
      </trkpt>
      <trkpt lat="42.0157160" lon="-6.3981460">
        <ele>893.8</ele>
        <time>2019-08-16T09:08:55Z</time>
      </trkpt>
      <trkpt lat="42.0157380" lon="-6.3982010">
        <ele>893.8</ele>
        <time>2019-08-16T09:08:56Z</time>
      </trkpt>
      <trkpt lat="42.0157580" lon="-6.3982560">
        <ele>893.9</ele>
        <time>2019-08-16T09:08:57Z</time>
      </trkpt>
      <trkpt lat="42.0157760" lon="-6.3983080">
        <ele>893.9</ele>
        <time>2019-08-16T09:08:58Z</time>
      </trkpt>
      <trkpt lat="42.0157950" lon="-6.3983600">
        <ele>894.0</ele>
        <time>2019-08-16T09:08:59Z</time>
      </trkpt>
      <trkpt lat="42.0158140" lon="-6.3984110">
        <ele>894.1</ele>
        <time>2019-08-16T09:09:00Z</time>
      </trkpt>
      <trkpt lat="42.0158320" lon="-6.3984610">
        <ele>894.2</ele>
        <time>2019-08-16T09:09:01Z</time>
      </trkpt>
      <trkpt lat="42.0158500" lon="-6.3985100">
        <ele>894.3</ele>
        <time>2019-08-16T09:09:02Z</time>
      </trkpt>
      <trkpt lat="42.0158680" lon="-6.3985600">
        <ele>894.4</ele>
        <time>2019-08-16T09:09:03Z</time>
      </trkpt>
      <trkpt lat="42.0158850" lon="-6.3986090">
        <ele>894.6</ele>
        <time>2019-08-16T09:09:04Z</time>
      </trkpt>
      <trkpt lat="42.0159030" lon="-6.3986590">
        <ele>894.7</ele>
        <time>2019-08-16T09:09:05Z</time>
      </trkpt>
      <trkpt lat="42.0159200" lon="-6.3987080">
        <ele>894.8</ele>
        <time>2019-08-16T09:09:06Z</time>
      </trkpt>
      <trkpt lat="42.0159370" lon="-6.3987570">
        <ele>895.0</ele>
        <time>2019-08-16T09:09:07Z</time>
      </trkpt>
      <trkpt lat="42.0159540" lon="-6.3988050">
        <ele>895.1</ele>
        <time>2019-08-16T09:09:08Z</time>
      </trkpt>
      <trkpt lat="42.0159770" lon="-6.3988520">
        <ele>895.2</ele>
        <time>2019-08-16T09:09:09Z</time>
      </trkpt>
      <trkpt lat="42.0159990" lon="-6.3989000">
        <ele>895.4</ele>
        <time>2019-08-16T09:09:10Z</time>
      </trkpt>
      <trkpt lat="42.0160180" lon="-6.3989510">
        <ele>895.5</ele>
        <time>2019-08-16T09:09:11Z</time>
      </trkpt>
      <trkpt lat="42.0160350" lon="-6.3990010">
        <ele>895.6</ele>
        <time>2019-08-16T09:09:12Z</time>
      </trkpt>
      <trkpt lat="42.0160520" lon="-6.3990520">
        <ele>895.8</ele>
        <time>2019-08-16T09:09:13Z</time>
      </trkpt>
      <trkpt lat="42.0160690" lon="-6.3991010">
        <ele>895.9</ele>
        <time>2019-08-16T09:09:14Z</time>
      </trkpt>
      <trkpt lat="42.0160860" lon="-6.3991500">
        <ele>896.1</ele>
        <time>2019-08-16T09:09:15Z</time>
      </trkpt>
      <trkpt lat="42.0161050" lon="-6.3992000">
        <ele>896.2</ele>
        <time>2019-08-16T09:09:16Z</time>
      </trkpt>
      <trkpt lat="42.0161220" lon="-6.3992500">
        <ele>896.3</ele>
        <time>2019-08-16T09:09:17Z</time>
      </trkpt>
      <trkpt lat="42.0161400" lon="-6.3993000">
        <ele>896.4</ele>
        <time>2019-08-16T09:09:18Z</time>
      </trkpt>
      <trkpt lat="42.0161570" lon="-6.3993520">
        <ele>896.6</ele>
        <time>2019-08-16T09:09:19Z</time>
      </trkpt>
      <trkpt lat="42.0161750" lon="-6.3994030">
        <ele>896.7</ele>
        <time>2019-08-16T09:09:20Z</time>
      </trkpt>
      <trkpt lat="42.0161930" lon="-6.3994530">
        <ele>896.8</ele>
        <time>2019-08-16T09:09:21Z</time>
      </trkpt>
      <trkpt lat="42.0162110" lon="-6.3995030">
        <ele>896.9</ele>
        <time>2019-08-16T09:09:22Z</time>
      </trkpt>
      <trkpt lat="42.0162290" lon="-6.3995530">
        <ele>897.0</ele>
        <time>2019-08-16T09:09:23Z</time>
      </trkpt>
      <trkpt lat="42.0162480" lon="-6.3996050">
        <ele>897.1</ele>
        <time>2019-08-16T09:09:24Z</time>
      </trkpt>
      <trkpt lat="42.0162660" lon="-6.3996570">
        <ele>897.2</ele>
        <time>2019-08-16T09:09:25Z</time>
      </trkpt>
      <trkpt lat="42.0162830" lon="-6.3997090">
        <ele>897.3</ele>
        <time>2019-08-16T09:09:26Z</time>
      </trkpt>
      <trkpt lat="42.0163010" lon="-6.3997590">
        <ele>897.4</ele>
        <time>2019-08-16T09:09:27Z</time>
      </trkpt>
      <trkpt lat="42.0163180" lon="-6.3998100">
        <ele>897.5</ele>
        <time>2019-08-16T09:09:28Z</time>
      </trkpt>
      <trkpt lat="42.0163350" lon="-6.3998600">
        <ele>897.6</ele>
        <time>2019-08-16T09:09:29Z</time>
      </trkpt>
      <trkpt lat="42.0163530" lon="-6.3999110">
        <ele>897.7</ele>
        <time>2019-08-16T09:09:30Z</time>
      </trkpt>
      <trkpt lat="42.0163730" lon="-6.3999620">
        <ele>897.8</ele>
        <time>2019-08-16T09:09:31Z</time>
      </trkpt>
      <trkpt lat="42.0163910" lon="-6.4000140">
        <ele>897.9</ele>
        <time>2019-08-16T09:09:32Z</time>
      </trkpt>
      <trkpt lat="42.0164080" lon="-6.4000660">
        <ele>898.0</ele>
        <time>2019-08-16T09:09:33Z</time>
      </trkpt>
      <trkpt lat="42.0164280" lon="-6.4001180">
        <ele>898.1</ele>
        <time>2019-08-16T09:09:34Z</time>
      </trkpt>
      <trkpt lat="42.0164470" lon="-6.4001700">
        <ele>898.2</ele>
        <time>2019-08-16T09:09:35Z</time>
      </trkpt>
      <trkpt lat="42.0164670" lon="-6.4002220">
        <ele>898.3</ele>
        <time>2019-08-16T09:09:36Z</time>
      </trkpt>
      <trkpt lat="42.0164870" lon="-6.4002770">
        <ele>898.4</ele>
        <time>2019-08-16T09:09:37Z</time>
      </trkpt>
      <trkpt lat="42.0165050" lon="-6.4003330">
        <ele>898.5</ele>
        <time>2019-08-16T09:09:38Z</time>
      </trkpt>
      <trkpt lat="42.0165240" lon="-6.4003880">
        <ele>898.5</ele>
        <time>2019-08-16T09:09:39Z</time>
      </trkpt>
      <trkpt lat="42.0165430" lon="-6.4004420">
        <ele>898.6</ele>
        <time>2019-08-16T09:09:40Z</time>
      </trkpt>
      <trkpt lat="42.0165640" lon="-6.4004960">
        <ele>898.7</ele>
        <time>2019-08-16T09:09:41Z</time>
      </trkpt>
      <trkpt lat="42.0165850" lon="-6.4005510">
        <ele>898.8</ele>
        <time>2019-08-16T09:09:42Z</time>
      </trkpt>
      <trkpt lat="42.0166060" lon="-6.4006050">
        <ele>898.9</ele>
        <time>2019-08-16T09:09:43Z</time>
      </trkpt>
      <trkpt lat="42.0166250" lon="-6.4006590">
        <ele>898.9</ele>
        <time>2019-08-16T09:09:44Z</time>
      </trkpt>
      <trkpt lat="42.0166420" lon="-6.4007150">
        <ele>899.0</ele>
        <time>2019-08-16T09:09:45Z</time>
      </trkpt>
      <trkpt lat="42.0166600" lon="-6.4007690">
        <ele>899.1</ele>
        <time>2019-08-16T09:09:46Z</time>
      </trkpt>
      <trkpt lat="42.0166790" lon="-6.4008230">
        <ele>899.2</ele>
        <time>2019-08-16T09:09:47Z</time>
      </trkpt>
      <trkpt lat="42.0166970" lon="-6.4008780">
        <ele>899.2</ele>
        <time>2019-08-16T09:09:48Z</time>
      </trkpt>
      <trkpt lat="42.0167170" lon="-6.4009330">
        <ele>899.3</ele>
        <time>2019-08-16T09:09:49Z</time>
      </trkpt>
      <trkpt lat="42.0167360" lon="-6.4009880">
        <ele>899.4</ele>
        <time>2019-08-16T09:09:50Z</time>
      </trkpt>
      <trkpt lat="42.0167540" lon="-6.4010430">
        <ele>899.4</ele>
        <time>2019-08-16T09:09:51Z</time>
      </trkpt>
      <trkpt lat="42.0167720" lon="-6.4010980">
        <ele>899.5</ele>
        <time>2019-08-16T09:09:52Z</time>
      </trkpt>
      <trkpt lat="42.0167900" lon="-6.4011510">
        <ele>899.5</ele>
        <time>2019-08-16T09:09:53Z</time>
      </trkpt>
      <trkpt lat="42.0168080" lon="-6.4012050">
        <ele>899.6</ele>
        <time>2019-08-16T09:09:54Z</time>
      </trkpt>
      <trkpt lat="42.0168270" lon="-6.4012580">
        <ele>899.7</ele>
        <time>2019-08-16T09:09:55Z</time>
      </trkpt>
      <trkpt lat="42.0168440" lon="-6.4013110">
        <ele>899.8</ele>
        <time>2019-08-16T09:09:56Z</time>
      </trkpt>
      <trkpt lat="42.0168620" lon="-6.4013630">
        <ele>899.9</ele>
        <time>2019-08-16T09:09:57Z</time>
      </trkpt>
      <trkpt lat="42.0168810" lon="-6.4014160">
        <ele>900.0</ele>
        <time>2019-08-16T09:09:58Z</time>
      </trkpt>
      <trkpt lat="42.0168990" lon="-6.4014680">
        <ele>900.1</ele>
        <time>2019-08-16T09:09:59Z</time>
      </trkpt>
      <trkpt lat="42.0169170" lon="-6.4015200">
        <ele>900.2</ele>
        <time>2019-08-16T09:10:00Z</time>
      </trkpt>
      <trkpt lat="42.0169370" lon="-6.4015720">
        <ele>900.3</ele>
        <time>2019-08-16T09:10:01Z</time>
      </trkpt>
      <trkpt lat="42.0169570" lon="-6.4016240">
        <ele>900.4</ele>
        <time>2019-08-16T09:10:02Z</time>
      </trkpt>
      <trkpt lat="42.0169770" lon="-6.4016790">
        <ele>900.5</ele>
        <time>2019-08-16T09:10:03Z</time>
      </trkpt>
      <trkpt lat="42.0169960" lon="-6.4017330">
        <ele>900.6</ele>
        <time>2019-08-16T09:10:04Z</time>
      </trkpt>
      <trkpt lat="42.0170150" lon="-6.4017870">
        <ele>900.7</ele>
        <time>2019-08-16T09:10:05Z</time>
      </trkpt>
      <trkpt lat="42.0170330" lon="-6.4018390">
        <ele>900.8</ele>
        <time>2019-08-16T09:10:06Z</time>
      </trkpt>
      <trkpt lat="42.0170520" lon="-6.4018930">
        <ele>900.9</ele>
        <time>2019-08-16T09:10:07Z</time>
      </trkpt>
      <trkpt lat="42.0170700" lon="-6.4019460">
        <ele>901.0</ele>
        <time>2019-08-16T09:10:08Z</time>
      </trkpt>
      <trkpt lat="42.0170890" lon="-6.4019980">
        <ele>901.1</ele>
        <time>2019-08-16T09:10:09Z</time>
      </trkpt>
      <trkpt lat="42.0171090" lon="-6.4020510">
        <ele>901.2</ele>
        <time>2019-08-16T09:10:10Z</time>
      </trkpt>
      <trkpt lat="42.0171270" lon="-6.4021030">
        <ele>901.3</ele>
        <time>2019-08-16T09:10:11Z</time>
      </trkpt>
      <trkpt lat="42.0171440" lon="-6.4021560">
        <ele>901.3</ele>
        <time>2019-08-16T09:10:12Z</time>
      </trkpt>
      <trkpt lat="42.0171620" lon="-6.4022090">
        <ele>901.4</ele>
        <time>2019-08-16T09:10:13Z</time>
      </trkpt>
      <trkpt lat="42.0171790" lon="-6.4022640">
        <ele>901.5</ele>
        <time>2019-08-16T09:10:14Z</time>
      </trkpt>
      <trkpt lat="42.0171980" lon="-6.4023160">
        <ele>901.6</ele>
        <time>2019-08-16T09:10:15Z</time>
      </trkpt>
      <trkpt lat="42.0172170" lon="-6.4023680">
        <ele>901.7</ele>
        <time>2019-08-16T09:10:16Z</time>
      </trkpt>
      <trkpt lat="42.0172350" lon="-6.4024220">
        <ele>901.8</ele>
        <time>2019-08-16T09:10:17Z</time>
      </trkpt>
      <trkpt lat="42.0172520" lon="-6.4024750">
        <ele>901.8</ele>
        <time>2019-08-16T09:10:18Z</time>
      </trkpt>
      <trkpt lat="42.0172690" lon="-6.4025300">
        <ele>901.9</ele>
        <time>2019-08-16T09:10:19Z</time>
      </trkpt>
      <trkpt lat="42.0172860" lon="-6.4025840">
        <ele>902.0</ele>
        <time>2019-08-16T09:10:20Z</time>
      </trkpt>
      <trkpt lat="42.0173040" lon="-6.4026390">
        <ele>902.1</ele>
        <time>2019-08-16T09:10:21Z</time>
      </trkpt>
      <trkpt lat="42.0173230" lon="-6.4026940">
        <ele>902.2</ele>
        <time>2019-08-16T09:10:22Z</time>
      </trkpt>
      <trkpt lat="42.0173430" lon="-6.4027500">
        <ele>902.3</ele>
        <time>2019-08-16T09:10:23Z</time>
      </trkpt>
      <trkpt lat="42.0173630" lon="-6.4028040">
        <ele>902.4</ele>
        <time>2019-08-16T09:10:24Z</time>
      </trkpt>
      <trkpt lat="42.0173810" lon="-6.4028590">
        <ele>902.4</ele>
        <time>2019-08-16T09:10:25Z</time>
      </trkpt>
      <trkpt lat="42.0174010" lon="-6.4029140">
        <ele>902.5</ele>
        <time>2019-08-16T09:10:26Z</time>
      </trkpt>
      <trkpt lat="42.0174180" lon="-6.4029680">
        <ele>902.6</ele>
        <time>2019-08-16T09:10:27Z</time>
      </trkpt>
      <trkpt lat="42.0174350" lon="-6.4030240">
        <ele>902.6</ele>
        <time>2019-08-16T09:10:28Z</time>
      </trkpt>
      <trkpt lat="42.0174520" lon="-6.4030790">
        <ele>902.7</ele>
        <time>2019-08-16T09:10:29Z</time>
      </trkpt>
      <trkpt lat="42.0174690" lon="-6.4031340">
        <ele>902.8</ele>
        <time>2019-08-16T09:10:30Z</time>
      </trkpt>
      <trkpt lat="42.0174860" lon="-6.4031880">
        <ele>902.8</ele>
        <time>2019-08-16T09:10:31Z</time>
      </trkpt>
      <trkpt lat="42.0175010" lon="-6.4032430">
        <ele>902.9</ele>
        <time>2019-08-16T09:10:32Z</time>
      </trkpt>
      <trkpt lat="42.0175160" lon="-6.4032990">
        <ele>903.0</ele>
        <time>2019-08-16T09:10:33Z</time>
      </trkpt>
      <trkpt lat="42.0175300" lon="-6.4033560">
        <ele>903.0</ele>
        <time>2019-08-16T09:10:34Z</time>
      </trkpt>
      <trkpt lat="42.0175440" lon="-6.4034120">
        <ele>903.1</ele>
        <time>2019-08-16T09:10:35Z</time>
      </trkpt>
      <trkpt lat="42.0175570" lon="-6.4034660">
        <ele>903.1</ele>
        <time>2019-08-16T09:10:36Z</time>
      </trkpt>
      <trkpt lat="42.0175710" lon="-6.4035230">
        <ele>903.2</ele>
        <time>2019-08-16T09:10:37Z</time>
      </trkpt>
      <trkpt lat="42.0175830" lon="-6.4035780">
        <ele>903.2</ele>
        <time>2019-08-16T09:10:38Z</time>
      </trkpt>
      <trkpt lat="42.0175940" lon="-6.4036340">
        <ele>903.3</ele>
        <time>2019-08-16T09:10:39Z</time>
      </trkpt>
      <trkpt lat="42.0176040" lon="-6.4036900">
        <ele>903.3</ele>
        <time>2019-08-16T09:10:40Z</time>
      </trkpt>
      <trkpt lat="42.0176140" lon="-6.4037470">
        <ele>903.4</ele>
        <time>2019-08-16T09:10:41Z</time>
      </trkpt>
      <trkpt lat="42.0176250" lon="-6.4038030">
        <ele>903.4</ele>
        <time>2019-08-16T09:10:42Z</time>
      </trkpt>
      <trkpt lat="42.0176360" lon="-6.4038590">
        <ele>903.5</ele>
        <time>2019-08-16T09:10:43Z</time>
      </trkpt>
      <trkpt lat="42.0176460" lon="-6.4039130">
        <ele>903.6</ele>
        <time>2019-08-16T09:10:44Z</time>
      </trkpt>
      <trkpt lat="42.0176560" lon="-6.4039660">
        <ele>903.6</ele>
        <time>2019-08-16T09:10:45Z</time>
      </trkpt>
      <trkpt lat="42.0176650" lon="-6.4040170">
        <ele>903.7</ele>
        <time>2019-08-16T09:10:46Z</time>
      </trkpt>
      <trkpt lat="42.0176740" lon="-6.4040720">
        <ele>903.7</ele>
        <time>2019-08-16T09:10:47Z</time>
      </trkpt>
      <trkpt lat="42.0176840" lon="-6.4041250">
        <ele>903.8</ele>
        <time>2019-08-16T09:10:48Z</time>
      </trkpt>
      <trkpt lat="42.0176950" lon="-6.4041790">
        <ele>903.9</ele>
        <time>2019-08-16T09:10:49Z</time>
      </trkpt>
      <trkpt lat="42.0177040" lon="-6.4042320">
        <ele>904.0</ele>
        <time>2019-08-16T09:10:50Z</time>
      </trkpt>
      <trkpt lat="42.0177150" lon="-6.4042860">
        <ele>904.1</ele>
        <time>2019-08-16T09:10:51Z</time>
      </trkpt>
      <trkpt lat="42.0177260" lon="-6.4043400">
        <ele>904.2</ele>
        <time>2019-08-16T09:10:52Z</time>
      </trkpt>
      <trkpt lat="42.0177360" lon="-6.4043970">
        <ele>904.3</ele>
        <time>2019-08-16T09:10:53Z</time>
      </trkpt>
      <trkpt lat="42.0177450" lon="-6.4044530">
        <ele>904.4</ele>
        <time>2019-08-16T09:10:54Z</time>
      </trkpt>
      <trkpt lat="42.0177550" lon="-6.4045090">
        <ele>904.5</ele>
        <time>2019-08-16T09:10:55Z</time>
      </trkpt>
      <trkpt lat="42.0177670" lon="-6.4045660">
        <ele>904.6</ele>
        <time>2019-08-16T09:10:56Z</time>
      </trkpt>
      <trkpt lat="42.0177780" lon="-6.4046230">
        <ele>904.7</ele>
        <time>2019-08-16T09:10:57Z</time>
      </trkpt>
      <trkpt lat="42.0177890" lon="-6.4046770">
        <ele>904.8</ele>
        <time>2019-08-16T09:10:58Z</time>
      </trkpt>
      <trkpt lat="42.0177980" lon="-6.4047290">
        <ele>904.9</ele>
        <time>2019-08-16T09:10:59Z</time>
      </trkpt>
      <trkpt lat="42.0178080" lon="-6.4047800">
        <ele>904.9</ele>
        <time>2019-08-16T09:11:00Z</time>
      </trkpt>
      <trkpt lat="42.0178200" lon="-6.4048330">
        <ele>905.0</ele>
        <time>2019-08-16T09:11:01Z</time>
      </trkpt>
      <trkpt lat="42.0178330" lon="-6.4048860">
        <ele>905.0</ele>
        <time>2019-08-16T09:11:02Z</time>
      </trkpt>
      <trkpt lat="42.0178450" lon="-6.4049410">
        <ele>905.1</ele>
        <time>2019-08-16T09:11:03Z</time>
      </trkpt>
      <trkpt lat="42.0178580" lon="-6.4049960">
        <ele>905.1</ele>
        <time>2019-08-16T09:11:04Z</time>
      </trkpt>
      <trkpt lat="42.0178700" lon="-6.4050490">
        <ele>905.2</ele>
        <time>2019-08-16T09:11:05Z</time>
      </trkpt>
      <trkpt lat="42.0178840" lon="-6.4051020">
        <ele>905.2</ele>
        <time>2019-08-16T09:11:06Z</time>
      </trkpt>
      <trkpt lat="42.0178970" lon="-6.4051550">
        <ele>905.3</ele>
        <time>2019-08-16T09:11:07Z</time>
      </trkpt>
      <trkpt lat="42.0179100" lon="-6.4052060">
        <ele>905.3</ele>
        <time>2019-08-16T09:11:08Z</time>
      </trkpt>
      <trkpt lat="42.0179230" lon="-6.4052530">
        <ele>905.4</ele>
        <time>2019-08-16T09:11:09Z</time>
      </trkpt>
      <trkpt lat="42.0179350" lon="-6.4052980">
        <ele>905.4</ele>
        <time>2019-08-16T09:11:10Z</time>
      </trkpt>
      <trkpt lat="42.0179460" lon="-6.4053410">
        <ele>905.5</ele>
        <time>2019-08-16T09:11:11Z</time>
      </trkpt>
      <trkpt lat="42.0179560" lon="-6.4053800">
        <ele>905.5</ele>
        <time>2019-08-16T09:11:12Z</time>
      </trkpt>
      <trkpt lat="42.0179680" lon="-6.4054190">
        <ele>905.6</ele>
        <time>2019-08-16T09:11:13Z</time>
      </trkpt>
      <trkpt lat="42.0179810" lon="-6.4054610">
        <ele>905.6</ele>
        <time>2019-08-16T09:11:14Z</time>
      </trkpt>
      <trkpt lat="42.0179940" lon="-6.4055070">
        <ele>905.7</ele>
        <time>2019-08-16T09:11:15Z</time>
      </trkpt>
      <trkpt lat="42.0180070" lon="-6.4055540">
        <ele>905.7</ele>
        <time>2019-08-16T09:11:16Z</time>
      </trkpt>
      <trkpt lat="42.0180200" lon="-6.4056040">
        <ele>905.8</ele>
        <time>2019-08-16T09:11:17Z</time>
      </trkpt>
      <trkpt lat="42.0180330" lon="-6.4056530">
        <ele>905.8</ele>
        <time>2019-08-16T09:11:18Z</time>
      </trkpt>
      <trkpt lat="42.0180470" lon="-6.4057030">
        <ele>905.9</ele>
        <time>2019-08-16T09:11:19Z</time>
      </trkpt>
      <trkpt lat="42.0180610" lon="-6.4057530">
        <ele>905.9</ele>
        <time>2019-08-16T09:11:20Z</time>
      </trkpt>
      <trkpt lat="42.0180750" lon="-6.4058050">
        <ele>906.0</ele>
        <time>2019-08-16T09:11:21Z</time>
      </trkpt>
      <trkpt lat="42.0180910" lon="-6.4058590">
        <ele>906.0</ele>
        <time>2019-08-16T09:11:22Z</time>
      </trkpt>
      <trkpt lat="42.0181060" lon="-6.4059120">
        <ele>906.1</ele>
        <time>2019-08-16T09:11:23Z</time>
      </trkpt>
      <trkpt lat="42.0181220" lon="-6.4059680">
        <ele>906.1</ele>
        <time>2019-08-16T09:11:24Z</time>
      </trkpt>
      <trkpt lat="42.0181370" lon="-6.4060230">
        <ele>906.2</ele>
        <time>2019-08-16T09:11:25Z</time>
      </trkpt>
      <trkpt lat="42.0181530" lon="-6.4060750">
        <ele>906.2</ele>
        <time>2019-08-16T09:11:26Z</time>
      </trkpt>
      <trkpt lat="42.0181680" lon="-6.4061250">
        <ele>906.3</ele>
        <time>2019-08-16T09:11:27Z</time>
      </trkpt>
      <trkpt lat="42.0181830" lon="-6.4061730">
        <ele>906.3</ele>
        <time>2019-08-16T09:11:28Z</time>
      </trkpt>
      <trkpt lat="42.0181970" lon="-6.4062200">
        <ele>906.3</ele>
        <time>2019-08-16T09:11:29Z</time>
      </trkpt>
      <trkpt lat="42.0182120" lon="-6.4062700">
        <ele>906.4</ele>
        <time>2019-08-16T09:11:30Z</time>
      </trkpt>
      <trkpt lat="42.0182260" lon="-6.4063240">
        <ele>906.4</ele>
        <time>2019-08-16T09:11:31Z</time>
      </trkpt>
      <trkpt lat="42.0182420" lon="-6.4063800">
        <ele>906.4</ele>
        <time>2019-08-16T09:11:32Z</time>
      </trkpt>
      <trkpt lat="42.0182590" lon="-6.4064380">
        <ele>906.5</ele>
        <time>2019-08-16T09:11:33Z</time>
      </trkpt>
      <trkpt lat="42.0182750" lon="-6.4064960">
        <ele>906.5</ele>
        <time>2019-08-16T09:11:34Z</time>
      </trkpt>
      <trkpt lat="42.0182920" lon="-6.4065590">
        <ele>906.5</ele>
        <time>2019-08-16T09:11:35Z</time>
      </trkpt>
      <trkpt lat="42.0183090" lon="-6.4066220">
        <ele>906.5</ele>
        <time>2019-08-16T09:11:36Z</time>
      </trkpt>
      <trkpt lat="42.0183270" lon="-6.4066850">
        <ele>906.6</ele>
        <time>2019-08-16T09:11:37Z</time>
      </trkpt>
      <trkpt lat="42.0183460" lon="-6.4067500">
        <ele>906.6</ele>
        <time>2019-08-16T09:11:38Z</time>
      </trkpt>
      <trkpt lat="42.0183640" lon="-6.4068160">
        <ele>906.6</ele>
        <time>2019-08-16T09:11:39Z</time>
      </trkpt>
      <trkpt lat="42.0183810" lon="-6.4068820">
        <ele>906.6</ele>
        <time>2019-08-16T09:11:40Z</time>
      </trkpt>
      <trkpt lat="42.0183990" lon="-6.4069450">
        <ele>906.6</ele>
        <time>2019-08-16T09:11:41Z</time>
      </trkpt>
      <trkpt lat="42.0184170" lon="-6.4070080">
        <ele>906.6</ele>
        <time>2019-08-16T09:11:42Z</time>
      </trkpt>
      <trkpt lat="42.0184340" lon="-6.4070700">
        <ele>906.6</ele>
        <time>2019-08-16T09:11:43Z</time>
      </trkpt>
      <trkpt lat="42.0184510" lon="-6.4071320">
        <ele>906.6</ele>
        <time>2019-08-16T09:11:44Z</time>
      </trkpt>
      <trkpt lat="42.0184690" lon="-6.4071940">
        <ele>906.6</ele>
        <time>2019-08-16T09:11:45Z</time>
      </trkpt>
      <trkpt lat="42.0184870" lon="-6.4072550">
        <ele>906.6</ele>
        <time>2019-08-16T09:11:46Z</time>
      </trkpt>
      <trkpt lat="42.0185060" lon="-6.4073170">
        <ele>906.6</ele>
        <time>2019-08-16T09:11:47Z</time>
      </trkpt>
      <trkpt lat="42.0185230" lon="-6.4073780">
        <ele>906.6</ele>
        <time>2019-08-16T09:11:48Z</time>
      </trkpt>
      <trkpt lat="42.0185420" lon="-6.4074390">
        <ele>906.6</ele>
        <time>2019-08-16T09:11:49Z</time>
      </trkpt>
      <trkpt lat="42.0185610" lon="-6.4075000">
        <ele>906.6</ele>
        <time>2019-08-16T09:11:50Z</time>
      </trkpt>
      <trkpt lat="42.0185800" lon="-6.4075660">
        <ele>906.6</ele>
        <time>2019-08-16T09:11:51Z</time>
      </trkpt>
      <trkpt lat="42.0185970" lon="-6.4076330">
        <ele>906.6</ele>
        <time>2019-08-16T09:11:52Z</time>
      </trkpt>
      <trkpt lat="42.0186150" lon="-6.4076990">
        <ele>906.5</ele>
        <time>2019-08-16T09:11:53Z</time>
      </trkpt>
      <trkpt lat="42.0186330" lon="-6.4077650">
        <ele>906.5</ele>
        <time>2019-08-16T09:11:54Z</time>
      </trkpt>
      <trkpt lat="42.0186530" lon="-6.4078310">
        <ele>906.4</ele>
        <time>2019-08-16T09:11:55Z</time>
      </trkpt>
      <trkpt lat="42.0186730" lon="-6.4078960">
        <ele>906.4</ele>
        <time>2019-08-16T09:11:56Z</time>
      </trkpt>
      <trkpt lat="42.0186910" lon="-6.4079600">
        <ele>906.3</ele>
        <time>2019-08-16T09:11:57Z</time>
      </trkpt>
      <trkpt lat="42.0187100" lon="-6.4080240">
        <ele>906.2</ele>
        <time>2019-08-16T09:11:58Z</time>
      </trkpt>
      <trkpt lat="42.0187300" lon="-6.4080860">
        <ele>906.2</ele>
        <time>2019-08-16T09:11:59Z</time>
      </trkpt>
      <trkpt lat="42.0187520" lon="-6.4081470">
        <ele>906.1</ele>
        <time>2019-08-16T09:12:00Z</time>
      </trkpt>
      <trkpt lat="42.0187730" lon="-6.4082040">
        <ele>906.1</ele>
        <time>2019-08-16T09:12:01Z</time>
      </trkpt>
      <trkpt lat="42.0187940" lon="-6.4082610">
        <ele>906.0</ele>
        <time>2019-08-16T09:12:02Z</time>
      </trkpt>
      <trkpt lat="42.0188200" lon="-6.4083180">
        <ele>906.0</ele>
        <time>2019-08-16T09:12:03Z</time>
      </trkpt>
      <trkpt lat="42.0188490" lon="-6.4083760">
        <ele>905.9</ele>
        <time>2019-08-16T09:12:04Z</time>
      </trkpt>
      <trkpt lat="42.0188790" lon="-6.4084320">
        <ele>905.9</ele>
        <time>2019-08-16T09:12:05Z</time>
      </trkpt>
      <trkpt lat="42.0189090" lon="-6.4084890">
        <ele>905.9</ele>
        <time>2019-08-16T09:12:06Z</time>
      </trkpt>
      <trkpt lat="42.0189370" lon="-6.4085480">
        <ele>905.8</ele>
        <time>2019-08-16T09:12:07Z</time>
      </trkpt>
      <trkpt lat="42.0189610" lon="-6.4086080">
        <ele>905.8</ele>
        <time>2019-08-16T09:12:08Z</time>
      </trkpt>
      <trkpt lat="42.0189880" lon="-6.4086660">
        <ele>905.7</ele>
        <time>2019-08-16T09:12:09Z</time>
      </trkpt>
      <trkpt lat="42.0190140" lon="-6.4087220">
        <ele>905.7</ele>
        <time>2019-08-16T09:12:10Z</time>
      </trkpt>
      <trkpt lat="42.0190400" lon="-6.4087790">
        <ele>905.7</ele>
        <time>2019-08-16T09:12:11Z</time>
      </trkpt>
      <trkpt lat="42.0190620" lon="-6.4088380">
        <ele>905.7</ele>
        <time>2019-08-16T09:12:12Z</time>
      </trkpt>
      <trkpt lat="42.0190830" lon="-6.4088990">
        <ele>905.7</ele>
        <time>2019-08-16T09:12:13Z</time>
      </trkpt>
      <trkpt lat="42.0191030" lon="-6.4089600">
        <ele>905.7</ele>
        <time>2019-08-16T09:12:14Z</time>
      </trkpt>
      <trkpt lat="42.0191230" lon="-6.4090210">
        <ele>905.7</ele>
        <time>2019-08-16T09:12:15Z</time>
      </trkpt>
      <trkpt lat="42.0191400" lon="-6.4090840">
        <ele>905.7</ele>
        <time>2019-08-16T09:12:16Z</time>
      </trkpt>
      <trkpt lat="42.0191550" lon="-6.4091470">
        <ele>905.7</ele>
        <time>2019-08-16T09:12:17Z</time>
      </trkpt>
      <trkpt lat="42.0191690" lon="-6.4092110">
        <ele>905.8</ele>
        <time>2019-08-16T09:12:18Z</time>
      </trkpt>
      <trkpt lat="42.0191820" lon="-6.4092770">
        <ele>905.8</ele>
        <time>2019-08-16T09:12:19Z</time>
      </trkpt>
      <trkpt lat="42.0191960" lon="-6.4093420">
        <ele>905.8</ele>
        <time>2019-08-16T09:12:20Z</time>
      </trkpt>
      <trkpt lat="42.0192090" lon="-6.4094060">
        <ele>905.9</ele>
        <time>2019-08-16T09:12:21Z</time>
      </trkpt>
      <trkpt lat="42.0192220" lon="-6.4094710">
        <ele>905.9</ele>
        <time>2019-08-16T09:12:22Z</time>
      </trkpt>
      <trkpt lat="42.0192350" lon="-6.4095360">
        <ele>906.0</ele>
        <time>2019-08-16T09:12:23Z</time>
      </trkpt>
      <trkpt lat="42.0192460" lon="-6.4096020">
        <ele>906.0</ele>
        <time>2019-08-16T09:12:24Z</time>
      </trkpt>
      <trkpt lat="42.0192580" lon="-6.4096680">
        <ele>906.1</ele>
        <time>2019-08-16T09:12:25Z</time>
      </trkpt>
      <trkpt lat="42.0192700" lon="-6.4097340">
        <ele>906.1</ele>
        <time>2019-08-16T09:12:26Z</time>
      </trkpt>
      <trkpt lat="42.0192810" lon="-6.4098000">
        <ele>906.1</ele>
        <time>2019-08-16T09:12:27Z</time>
      </trkpt>
      <trkpt lat="42.0192930" lon="-6.4098650">
        <ele>906.2</ele>
        <time>2019-08-16T09:12:28Z</time>
      </trkpt>
      <trkpt lat="42.0193040" lon="-6.4099310">
        <ele>906.2</ele>
        <time>2019-08-16T09:12:29Z</time>
      </trkpt>
      <trkpt lat="42.0193140" lon="-6.4099950">
        <ele>906.2</ele>
        <time>2019-08-16T09:12:30Z</time>
      </trkpt>
      <trkpt lat="42.0193240" lon="-6.4100600">
        <ele>906.2</ele>
        <time>2019-08-16T09:12:31Z</time>
      </trkpt>
      <trkpt lat="42.0193340" lon="-6.4101240">
        <ele>906.2</ele>
        <time>2019-08-16T09:12:32Z</time>
      </trkpt>
      <trkpt lat="42.0193430" lon="-6.4101880">
        <ele>906.2</ele>
        <time>2019-08-16T09:12:33Z</time>
      </trkpt>
      <trkpt lat="42.0193520" lon="-6.4102500">
        <ele>906.3</ele>
        <time>2019-08-16T09:12:34Z</time>
      </trkpt>
      <trkpt lat="42.0193610" lon="-6.4103100">
        <ele>906.3</ele>
        <time>2019-08-16T09:12:35Z</time>
      </trkpt>
      <trkpt lat="42.0193710" lon="-6.4103730">
        <ele>906.3</ele>
        <time>2019-08-16T09:12:36Z</time>
      </trkpt>
      <trkpt lat="42.0193800" lon="-6.4104390">
        <ele>906.3</ele>
        <time>2019-08-16T09:12:37Z</time>
      </trkpt>
      <trkpt lat="42.0193900" lon="-6.4105050">
        <ele>906.3</ele>
        <time>2019-08-16T09:12:38Z</time>
      </trkpt>
      <trkpt lat="42.0194000" lon="-6.4105720">
        <ele>906.4</ele>
        <time>2019-08-16T09:12:39Z</time>
      </trkpt>
      <trkpt lat="42.0194100" lon="-6.4106400">
        <ele>906.4</ele>
        <time>2019-08-16T09:12:40Z</time>
      </trkpt>
      <trkpt lat="42.0194200" lon="-6.4107080">
        <ele>906.4</ele>
        <time>2019-08-16T09:12:41Z</time>
      </trkpt>
      <trkpt lat="42.0194290" lon="-6.4107770">
        <ele>906.4</ele>
        <time>2019-08-16T09:12:42Z</time>
      </trkpt>
      <trkpt lat="42.0194380" lon="-6.4108440">
        <ele>906.4</ele>
        <time>2019-08-16T09:12:43Z</time>
      </trkpt>
      <trkpt lat="42.0194480" lon="-6.4109100">
        <ele>906.5</ele>
        <time>2019-08-16T09:12:44Z</time>
      </trkpt>
      <trkpt lat="42.0194590" lon="-6.4109720">
        <ele>906.5</ele>
        <time>2019-08-16T09:12:45Z</time>
      </trkpt>
      <trkpt lat="42.0194710" lon="-6.4110330">
        <ele>906.6</ele>
        <time>2019-08-16T09:12:46Z</time>
      </trkpt>
      <trkpt lat="42.0194830" lon="-6.4110940">
        <ele>906.7</ele>
        <time>2019-08-16T09:12:47Z</time>
      </trkpt>
      <trkpt lat="42.0194950" lon="-6.4111560">
        <ele>906.8</ele>
        <time>2019-08-16T09:12:48Z</time>
      </trkpt>
      <trkpt lat="42.0195060" lon="-6.4112190">
        <ele>906.8</ele>
        <time>2019-08-16T09:12:49Z</time>
      </trkpt>
      <trkpt lat="42.0195180" lon="-6.4112820">
        <ele>906.9</ele>
        <time>2019-08-16T09:12:50Z</time>
      </trkpt>
      <trkpt lat="42.0195290" lon="-6.4113450">
        <ele>907.0</ele>
        <time>2019-08-16T09:12:51Z</time>
      </trkpt>
      <trkpt lat="42.0195390" lon="-6.4114100">
        <ele>907.1</ele>
        <time>2019-08-16T09:12:52Z</time>
      </trkpt>
      <trkpt lat="42.0195500" lon="-6.4114740">
        <ele>907.2</ele>
        <time>2019-08-16T09:12:53Z</time>
      </trkpt>
      <trkpt lat="42.0195620" lon="-6.4115370">
        <ele>907.3</ele>
        <time>2019-08-16T09:12:54Z</time>
      </trkpt>
      <trkpt lat="42.0195740" lon="-6.4115990">
        <ele>907.4</ele>
        <time>2019-08-16T09:12:55Z</time>
      </trkpt>
      <trkpt lat="42.0195850" lon="-6.4116620">
        <ele>907.5</ele>
        <time>2019-08-16T09:12:56Z</time>
      </trkpt>
      <trkpt lat="42.0195960" lon="-6.4117240">
        <ele>907.6</ele>
        <time>2019-08-16T09:12:57Z</time>
      </trkpt>
      <trkpt lat="42.0196090" lon="-6.4117840">
        <ele>907.7</ele>
        <time>2019-08-16T09:12:58Z</time>
      </trkpt>
      <trkpt lat="42.0196220" lon="-6.4118450">
        <ele>907.8</ele>
        <time>2019-08-16T09:12:59Z</time>
      </trkpt>
      <trkpt lat="42.0196370" lon="-6.4119050">
        <ele>907.9</ele>
        <time>2019-08-16T09:13:00Z</time>
      </trkpt>
      <trkpt lat="42.0196530" lon="-6.4119630">
        <ele>908.0</ele>
        <time>2019-08-16T09:13:01Z</time>
      </trkpt>
      <trkpt lat="42.0196670" lon="-6.4120210">
        <ele>908.1</ele>
        <time>2019-08-16T09:13:02Z</time>
      </trkpt>
      <trkpt lat="42.0196830" lon="-6.4120790">
        <ele>908.1</ele>
        <time>2019-08-16T09:13:03Z</time>
      </trkpt>
      <trkpt lat="42.0197000" lon="-6.4121350">
        <ele>908.2</ele>
        <time>2019-08-16T09:13:04Z</time>
      </trkpt>
      <trkpt lat="42.0197170" lon="-6.4121930">
        <ele>908.3</ele>
        <time>2019-08-16T09:13:05Z</time>
      </trkpt>
      <trkpt lat="42.0197360" lon="-6.4122490">
        <ele>908.4</ele>
        <time>2019-08-16T09:13:06Z</time>
      </trkpt>
      <trkpt lat="42.0197540" lon="-6.4123060">
        <ele>908.4</ele>
        <time>2019-08-16T09:13:07Z</time>
      </trkpt>
      <trkpt lat="42.0197710" lon="-6.4123630">
        <ele>908.5</ele>
        <time>2019-08-16T09:13:08Z</time>
      </trkpt>
      <trkpt lat="42.0197900" lon="-6.4124240">
        <ele>908.5</ele>
        <time>2019-08-16T09:13:09Z</time>
      </trkpt>
      <trkpt lat="42.0198110" lon="-6.4124850">
        <ele>908.6</ele>
        <time>2019-08-16T09:13:10Z</time>
      </trkpt>
      <trkpt lat="42.0198310" lon="-6.4125450">
        <ele>908.6</ele>
        <time>2019-08-16T09:13:11Z</time>
      </trkpt>
      <trkpt lat="42.0198510" lon="-6.4126070">
        <ele>908.6</ele>
        <time>2019-08-16T09:13:12Z</time>
      </trkpt>
      <trkpt lat="42.0198720" lon="-6.4126720">
        <ele>908.6</ele>
        <time>2019-08-16T09:13:13Z</time>
      </trkpt>
      <trkpt lat="42.0198940" lon="-6.4127380">
        <ele>908.6</ele>
        <time>2019-08-16T09:13:14Z</time>
      </trkpt>
      <trkpt lat="42.0199160" lon="-6.4128060">
        <ele>908.7</ele>
        <time>2019-08-16T09:13:15Z</time>
      </trkpt>
      <trkpt lat="42.0199400" lon="-6.4128750">
        <ele>908.7</ele>
        <time>2019-08-16T09:13:16Z</time>
      </trkpt>
      <trkpt lat="42.0199620" lon="-6.4129420">
        <ele>908.7</ele>
        <time>2019-08-16T09:13:17Z</time>
      </trkpt>
      <trkpt lat="42.0199860" lon="-6.4130090">
        <ele>908.8</ele>
        <time>2019-08-16T09:13:18Z</time>
      </trkpt>
      <trkpt lat="42.0200110" lon="-6.4130790">
        <ele>908.8</ele>
        <time>2019-08-16T09:13:19Z</time>
      </trkpt>
      <trkpt lat="42.0200340" lon="-6.4131520">
        <ele>908.9</ele>
        <time>2019-08-16T09:13:20Z</time>
      </trkpt>
      <trkpt lat="42.0200540" lon="-6.4132270">
        <ele>909.0</ele>
        <time>2019-08-16T09:13:21Z</time>
      </trkpt>
      <trkpt lat="42.0200710" lon="-6.4133010">
        <ele>909.1</ele>
        <time>2019-08-16T09:13:22Z</time>
      </trkpt>
      <trkpt lat="42.0200830" lon="-6.4133780">
        <ele>909.1</ele>
        <time>2019-08-16T09:13:23Z</time>
      </trkpt>
      <trkpt lat="42.0200920" lon="-6.4134540">
        <ele>909.2</ele>
        <time>2019-08-16T09:13:24Z</time>
      </trkpt>
      <trkpt lat="42.0200960" lon="-6.4135310">
        <ele>909.3</ele>
        <time>2019-08-16T09:13:25Z</time>
      </trkpt>
      <trkpt lat="42.0200980" lon="-6.4136070">
        <ele>909.3</ele>
        <time>2019-08-16T09:13:26Z</time>
      </trkpt>
      <trkpt lat="42.0201000" lon="-6.4136800">
        <ele>909.4</ele>
        <time>2019-08-16T09:13:27Z</time>
      </trkpt>
      <trkpt lat="42.0201050" lon="-6.4137550">
        <ele>909.4</ele>
        <time>2019-08-16T09:13:28Z</time>
      </trkpt>
      <trkpt lat="42.0201120" lon="-6.4138300">
        <ele>909.5</ele>
        <time>2019-08-16T09:13:29Z</time>
      </trkpt>
      <trkpt lat="42.0201240" lon="-6.4139050">
        <ele>909.5</ele>
        <time>2019-08-16T09:13:30Z</time>
      </trkpt>
      <trkpt lat="42.0201380" lon="-6.4139770">
        <ele>909.6</ele>
        <time>2019-08-16T09:13:31Z</time>
      </trkpt>
      <trkpt lat="42.0201550" lon="-6.4140480">
        <ele>909.6</ele>
        <time>2019-08-16T09:13:32Z</time>
      </trkpt>
      <trkpt lat="42.0201730" lon="-6.4141170">
        <ele>909.6</ele>
        <time>2019-08-16T09:13:33Z</time>
      </trkpt>
      <trkpt lat="42.0201940" lon="-6.4141850">
        <ele>909.7</ele>
        <time>2019-08-16T09:13:34Z</time>
      </trkpt>
      <trkpt lat="42.0202160" lon="-6.4142530">
        <ele>909.7</ele>
        <time>2019-08-16T09:13:35Z</time>
      </trkpt>
      <trkpt lat="42.0202400" lon="-6.4143180">
        <ele>909.7</ele>
        <time>2019-08-16T09:13:36Z</time>
      </trkpt>
      <trkpt lat="42.0202660" lon="-6.4143830">
        <ele>909.8</ele>
        <time>2019-08-16T09:13:37Z</time>
      </trkpt>
      <trkpt lat="42.0202950" lon="-6.4144450">
        <ele>909.8</ele>
        <time>2019-08-16T09:13:38Z</time>
      </trkpt>
      <trkpt lat="42.0203260" lon="-6.4145050">
        <ele>909.9</ele>
        <time>2019-08-16T09:13:39Z</time>
      </trkpt>
      <trkpt lat="42.0203550" lon="-6.4145610">
        <ele>909.9</ele>
        <time>2019-08-16T09:13:40Z</time>
      </trkpt>
      <trkpt lat="42.0203890" lon="-6.4146180">
        <ele>910.0</ele>
        <time>2019-08-16T09:13:41Z</time>
      </trkpt>
      <trkpt lat="42.0204200" lon="-6.4146750">
        <ele>910.1</ele>
        <time>2019-08-16T09:13:42Z</time>
      </trkpt>
      <trkpt lat="42.0204450" lon="-6.4147300">
        <ele>910.1</ele>
        <time>2019-08-16T09:13:43Z</time>
      </trkpt>
      <trkpt lat="42.0204680" lon="-6.4147790">
        <ele>910.1</ele>
        <time>2019-08-16T09:13:44Z</time>
      </trkpt>
      <trkpt lat="42.0204900" lon="-6.4148280">
        <ele>910.2</ele>
        <time>2019-08-16T09:13:45Z</time>
      </trkpt>
      <trkpt lat="42.0205110" lon="-6.4148770">
        <ele>910.2</ele>
        <time>2019-08-16T09:13:46Z</time>
      </trkpt>
      <trkpt lat="42.0205320" lon="-6.4149260">
        <ele>910.2</ele>
        <time>2019-08-16T09:13:47Z</time>
      </trkpt>
      <trkpt lat="42.0205520" lon="-6.4149750">
        <ele>910.3</ele>
        <time>2019-08-16T09:13:48Z</time>
      </trkpt>
      <trkpt lat="42.0205680" lon="-6.4150290">
        <ele>910.3</ele>
        <time>2019-08-16T09:13:49Z</time>
      </trkpt>
      <trkpt lat="42.0205790" lon="-6.4150890">
        <ele>910.2</ele>
        <time>2019-08-16T09:13:50Z</time>
      </trkpt>
      <trkpt lat="42.0205830" lon="-6.4151560">
        <ele>910.1</ele>
        <time>2019-08-16T09:13:51Z</time>
      </trkpt>
      <trkpt lat="42.0205790" lon="-6.4152250">
        <ele>910.0</ele>
        <time>2019-08-16T09:13:52Z</time>
      </trkpt>
      <trkpt lat="42.0205690" lon="-6.4152930">
        <ele>909.8</ele>
        <time>2019-08-16T09:13:53Z</time>
      </trkpt>
      <trkpt lat="42.0205560" lon="-6.4153590">
        <ele>909.7</ele>
        <time>2019-08-16T09:13:54Z</time>
      </trkpt>
      <trkpt lat="42.0205430" lon="-6.4154250">
        <ele>909.6</ele>
        <time>2019-08-16T09:13:55Z</time>
      </trkpt>
      <trkpt lat="42.0205290" lon="-6.4154910">
        <ele>909.5</ele>
        <time>2019-08-16T09:13:56Z</time>
      </trkpt>
      <trkpt lat="42.0205160" lon="-6.4155560">
        <ele>909.4</ele>
        <time>2019-08-16T09:13:57Z</time>
      </trkpt>
      <trkpt lat="42.0205030" lon="-6.4156220">
        <ele>909.3</ele>
        <time>2019-08-16T09:13:58Z</time>
      </trkpt>
      <trkpt lat="42.0204900" lon="-6.4156870">
        <ele>909.2</ele>
        <time>2019-08-16T09:13:59Z</time>
      </trkpt>
      <trkpt lat="42.0204770" lon="-6.4157510">
        <ele>909.1</ele>
        <time>2019-08-16T09:14:00Z</time>
      </trkpt>
      <trkpt lat="42.0204640" lon="-6.4158130">
        <ele>909.0</ele>
        <time>2019-08-16T09:14:01Z</time>
      </trkpt>
      <trkpt lat="42.0204520" lon="-6.4158740">
        <ele>908.9</ele>
        <time>2019-08-16T09:14:02Z</time>
      </trkpt>
      <trkpt lat="42.0204430" lon="-6.4159360">
        <ele>908.8</ele>
        <time>2019-08-16T09:14:03Z</time>
      </trkpt>
      <trkpt lat="42.0204340" lon="-6.4159960">
        <ele>908.5</ele>
        <time>2019-08-16T09:14:04Z</time>
      </trkpt>
      <trkpt lat="42.0204270" lon="-6.4160560">
        <ele>908.3</ele>
        <time>2019-08-16T09:14:05Z</time>
      </trkpt>
      <trkpt lat="42.0204230" lon="-6.4161160">
        <ele>908.1</ele>
        <time>2019-08-16T09:14:06Z</time>
      </trkpt>
      <trkpt lat="42.0204200" lon="-6.4161770">
        <ele>907.9</ele>
        <time>2019-08-16T09:14:07Z</time>
      </trkpt>
      <trkpt lat="42.0204200" lon="-6.4162360">
        <ele>907.7</ele>
        <time>2019-08-16T09:14:08Z</time>
      </trkpt>
      <trkpt lat="42.0204210" lon="-6.4162970">
        <ele>907.5</ele>
        <time>2019-08-16T09:14:09Z</time>
      </trkpt>
      <trkpt lat="42.0204230" lon="-6.4163590">
        <ele>907.3</ele>
        <time>2019-08-16T09:14:10Z</time>
      </trkpt>
      <trkpt lat="42.0204250" lon="-6.4164220">
        <ele>907.1</ele>
        <time>2019-08-16T09:14:11Z</time>
      </trkpt>
      <trkpt lat="42.0204290" lon="-6.4164850">
        <ele>906.9</ele>
        <time>2019-08-16T09:14:12Z</time>
      </trkpt>
      <trkpt lat="42.0204330" lon="-6.4165470">
        <ele>906.7</ele>
        <time>2019-08-16T09:14:13Z</time>
      </trkpt>
      <trkpt lat="42.0204370" lon="-6.4166080">
        <ele>906.5</ele>
        <time>2019-08-16T09:14:14Z</time>
      </trkpt>
      <trkpt lat="42.0204420" lon="-6.4166700">
        <ele>906.4</ele>
        <time>2019-08-16T09:14:15Z</time>
      </trkpt>
      <trkpt lat="42.0204480" lon="-6.4167370">
        <ele>906.2</ele>
        <time>2019-08-16T09:14:16Z</time>
      </trkpt>
      <trkpt lat="42.0204560" lon="-6.4168080">
        <ele>905.9</ele>
        <time>2019-08-16T09:14:17Z</time>
      </trkpt>
      <trkpt lat="42.0204660" lon="-6.4168860">
        <ele>905.6</ele>
        <time>2019-08-16T09:14:18Z</time>
      </trkpt>
      <trkpt lat="42.0204780" lon="-6.4169700">
        <ele>905.2</ele>
        <time>2019-08-16T09:14:19Z</time>
      </trkpt>
      <trkpt lat="42.0204900" lon="-6.4170570">
        <ele>904.8</ele>
        <time>2019-08-16T09:14:20Z</time>
      </trkpt>
      <trkpt lat="42.0205020" lon="-6.4171450">
        <ele>904.4</ele>
        <time>2019-08-16T09:14:21Z</time>
      </trkpt>
      <trkpt lat="42.0205170" lon="-6.4172330">
        <ele>904.0</ele>
        <time>2019-08-16T09:14:22Z</time>
      </trkpt>
      <trkpt lat="42.0205380" lon="-6.4173230">
        <ele>903.6</ele>
        <time>2019-08-16T09:14:23Z</time>
      </trkpt>
      <trkpt lat="42.0205610" lon="-6.4174130">
        <ele>903.1</ele>
        <time>2019-08-16T09:14:24Z</time>
      </trkpt>
      <trkpt lat="42.0205880" lon="-6.4175010">
        <ele>902.9</ele>
        <time>2019-08-16T09:14:25Z</time>
      </trkpt>
      <trkpt lat="42.0206160" lon="-6.4175890">
        <ele>902.6</ele>
        <time>2019-08-16T09:14:26Z</time>
      </trkpt>
      <trkpt lat="42.0206440" lon="-6.4176770">
        <ele>902.4</ele>
        <time>2019-08-16T09:14:27Z</time>
      </trkpt>
      <trkpt lat="42.0206720" lon="-6.4177650">
        <ele>902.2</ele>
        <time>2019-08-16T09:14:28Z</time>
      </trkpt>
      <trkpt lat="42.0207010" lon="-6.4178520">
        <ele>902.1</ele>
        <time>2019-08-16T09:14:29Z</time>
      </trkpt>
      <trkpt lat="42.0207300" lon="-6.4179390">
        <ele>902.0</ele>
        <time>2019-08-16T09:14:30Z</time>
      </trkpt>
      <trkpt lat="42.0207590" lon="-6.4180210">
        <ele>902.0</ele>
        <time>2019-08-16T09:14:31Z</time>
      </trkpt>
      <trkpt lat="42.0207840" lon="-6.4180940">
        <ele>902.0</ele>
        <time>2019-08-16T09:14:32Z</time>
      </trkpt>
      <trkpt lat="42.0208110" lon="-6.4181580">
        <ele>902.0</ele>
        <time>2019-08-16T09:14:33Z</time>
      </trkpt>
      <trkpt lat="42.0208350" lon="-6.4182180">
        <ele>902.0</ele>
        <time>2019-08-16T09:14:34Z</time>
      </trkpt>
      <trkpt lat="42.0208510" lon="-6.4182770">
        <ele>902.0</ele>
        <time>2019-08-16T09:14:35Z</time>
      </trkpt>
      <trkpt lat="42.0208510" lon="-6.4183350">
        <ele>902.0</ele>
        <time>2019-08-16T09:14:36Z</time>
      </trkpt>
      <trkpt lat="42.0208390" lon="-6.4183910">
        <ele>902.1</ele>
        <time>2019-08-16T09:14:37Z</time>
      </trkpt>
      <trkpt lat="42.0208210" lon="-6.4184410">
        <ele>902.1</ele>
        <time>2019-08-16T09:14:38Z</time>
      </trkpt>
      <trkpt lat="42.0208000" lon="-6.4184900">
        <ele>902.1</ele>
        <time>2019-08-16T09:14:39Z</time>
      </trkpt>
      <trkpt lat="42.0207820" lon="-6.4185380">
        <ele>902.1</ele>
        <time>2019-08-16T09:14:40Z</time>
      </trkpt>
      <trkpt lat="42.0207690" lon="-6.4185840">
        <ele>902.2</ele>
        <time>2019-08-16T09:14:41Z</time>
      </trkpt>
      <trkpt lat="42.0207560" lon="-6.4186250">
        <ele>902.2</ele>
        <time>2019-08-16T09:14:42Z</time>
      </trkpt>
      <trkpt lat="42.0207420" lon="-6.4186590">
        <ele>902.2</ele>
        <time>2019-08-16T09:14:43Z</time>
      </trkpt>
      <trkpt lat="42.0207130" lon="-6.4187150">
        <ele>902.2</ele>
        <time>2019-08-16T09:14:45Z</time>
      </trkpt>
      <trkpt lat="42.0206920" lon="-6.4187600">
        <ele>902.3</ele>
        <time>2019-08-16T09:14:47Z</time>
      </trkpt>
      <trkpt lat="42.0207020" lon="-6.4187810">
        <ele>902.3</ele>
        <time>2019-08-16T09:14:51Z</time>
      </trkpt>
      <trkpt lat="42.0207150" lon="-6.4187370">
        <ele>902.3</ele>
        <time>2019-08-16T09:14:53Z</time>
      </trkpt>
      <trkpt lat="42.0207300" lon="-6.4186680">
        <ele>902.4</ele>
        <time>2019-08-16T09:14:55Z</time>
      </trkpt>
      <trkpt lat="42.0207410" lon="-6.4186270">
        <ele>902.4</ele>
        <time>2019-08-16T09:14:56Z</time>
      </trkpt>
      <trkpt lat="42.0207540" lon="-6.4185840">
        <ele>902.5</ele>
        <time>2019-08-16T09:14:57Z</time>
      </trkpt>
      <trkpt lat="42.0207690" lon="-6.4185390">
        <ele>902.5</ele>
        <time>2019-08-16T09:14:58Z</time>
      </trkpt>
      <trkpt lat="42.0207840" lon="-6.4184930">
        <ele>902.6</ele>
        <time>2019-08-16T09:14:59Z</time>
      </trkpt>
      <trkpt lat="42.0208000" lon="-6.4184460">
        <ele>902.6</ele>
        <time>2019-08-16T09:15:00Z</time>
      </trkpt>
      <trkpt lat="42.0208180" lon="-6.4184040">
        <ele>902.6</ele>
        <time>2019-08-16T09:15:01Z</time>
      </trkpt>
      <trkpt lat="42.0208410" lon="-6.4183710">
        <ele>902.7</ele>
        <time>2019-08-16T09:15:02Z</time>
      </trkpt>
      <trkpt lat="42.0208690" lon="-6.4183490">
        <ele>902.7</ele>
        <time>2019-08-16T09:15:03Z</time>
      </trkpt>
      <trkpt lat="42.0208990" lon="-6.4183430">
        <ele>902.8</ele>
        <time>2019-08-16T09:15:04Z</time>
      </trkpt>
      <trkpt lat="42.0209420" lon="-6.4183700">
        <ele>902.8</ele>
        <time>2019-08-16T09:15:06Z</time>
      </trkpt>
      <trkpt lat="42.0209450" lon="-6.4184030">
        <ele>902.9</ele>
        <time>2019-08-16T09:15:11Z</time>
      </trkpt>
      <trkpt lat="42.0208780" lon="-6.4183260">
        <ele>903.0</ele>
        <time>2019-08-16T09:17:13Z</time>
      </trkpt>
      <trkpt lat="42.0208290" lon="-6.4183390">
        <ele>903.1</ele>
        <time>2019-08-16T09:17:15Z</time>
      </trkpt>
      <trkpt lat="42.0208010" lon="-6.4183940">
        <ele>903.2</ele>
        <time>2019-08-16T09:17:17Z</time>
      </trkpt>
      <trkpt lat="42.0207930" lon="-6.4184290">
        <ele>903.2</ele>
        <time>2019-08-16T09:17:18Z</time>
      </trkpt>
      <trkpt lat="42.0207830" lon="-6.4184650">
        <ele>903.3</ele>
        <time>2019-08-16T09:17:19Z</time>
      </trkpt>
      <trkpt lat="42.0207740" lon="-6.4185020">
        <ele>903.3</ele>
        <time>2019-08-16T09:17:20Z</time>
      </trkpt>
      <trkpt lat="42.0207650" lon="-6.4185390">
        <ele>903.4</ele>
        <time>2019-08-16T09:17:21Z</time>
      </trkpt>
      <trkpt lat="42.0207560" lon="-6.4185760">
        <ele>903.4</ele>
        <time>2019-08-16T09:17:22Z</time>
      </trkpt>
      <trkpt lat="42.0207480" lon="-6.4186150">
        <ele>903.5</ele>
        <time>2019-08-16T09:17:23Z</time>
      </trkpt>
      <trkpt lat="42.0207360" lon="-6.4186510">
        <ele>903.5</ele>
        <time>2019-08-16T09:17:24Z</time>
      </trkpt>
      <trkpt lat="42.0207220" lon="-6.4186870">
        <ele>903.5</ele>
        <time>2019-08-16T09:17:25Z</time>
      </trkpt>
      <trkpt lat="42.0207080" lon="-6.4187210">
        <ele>903.6</ele>
        <time>2019-08-16T09:17:26Z</time>
      </trkpt>
      <trkpt lat="42.0206950" lon="-6.4187550">
        <ele>903.6</ele>
        <time>2019-08-16T09:17:27Z</time>
      </trkpt>
      <trkpt lat="42.0206650" lon="-6.4188180">
        <ele>903.7</ele>
        <time>2019-08-16T09:17:29Z</time>
      </trkpt>
      <trkpt lat="42.0206490" lon="-6.4188500">
        <ele>903.7</ele>
        <time>2019-08-16T09:17:30Z</time>
      </trkpt>
      <trkpt lat="42.0206310" lon="-6.4188810">
        <ele>903.8</ele>
        <time>2019-08-16T09:17:31Z</time>
      </trkpt>
      <trkpt lat="42.0206160" lon="-6.4189140">
        <ele>904.1</ele>
        <time>2019-08-16T09:17:32Z</time>
      </trkpt>
      <trkpt lat="42.0206010" lon="-6.4189470">
        <ele>904.0</ele>
        <time>2019-08-16T09:17:33Z</time>
      </trkpt>
      <trkpt lat="42.0205900" lon="-6.4189810">
        <ele>904.0</ele>
        <time>2019-08-16T09:17:34Z</time>
      </trkpt>
      <trkpt lat="42.0205810" lon="-6.4190160">
        <ele>904.0</ele>
        <time>2019-08-16T09:17:35Z</time>
      </trkpt>
      <trkpt lat="42.0205670" lon="-6.4190830">
        <ele>904.0</ele>
        <time>2019-08-16T09:17:37Z</time>
      </trkpt>
      <trkpt lat="42.0205530" lon="-6.4191500">
        <ele>904.0</ele>
        <time>2019-08-16T09:17:39Z</time>
      </trkpt>
      <trkpt lat="42.0205420" lon="-6.4192110">
        <ele>904.0</ele>
        <time>2019-08-16T09:17:41Z</time>
      </trkpt>
      <trkpt lat="42.0205260" lon="-6.4192670">
        <ele>904.0</ele>
        <time>2019-08-16T09:17:43Z</time>
      </trkpt>
      <trkpt lat="42.0205030" lon="-6.4193200">
        <ele>903.9</ele>
        <time>2019-08-16T09:17:45Z</time>
      </trkpt>
      <trkpt lat="42.0204790" lon="-6.4193780">
        <ele>903.9</ele>
        <time>2019-08-16T09:17:47Z</time>
      </trkpt>
      <trkpt lat="42.0204630" lon="-6.4194420">
        <ele>903.9</ele>
        <time>2019-08-16T09:17:49Z</time>
      </trkpt>
      <trkpt lat="42.0204520" lon="-6.4195080">
        <ele>903.9</ele>
        <time>2019-08-16T09:17:51Z</time>
      </trkpt>
      <trkpt lat="42.0204430" lon="-6.4195800">
        <ele>903.8</ele>
        <time>2019-08-16T09:17:53Z</time>
      </trkpt>
      <trkpt lat="42.0204400" lon="-6.4196180">
        <ele>903.8</ele>
        <time>2019-08-16T09:17:54Z</time>
      </trkpt>
      <trkpt lat="42.0204370" lon="-6.4196560">
        <ele>903.8</ele>
        <time>2019-08-16T09:17:55Z</time>
      </trkpt>
      <trkpt lat="42.0204350" lon="-6.4196930">
        <ele>903.8</ele>
        <time>2019-08-16T09:17:56Z</time>
      </trkpt>
      <trkpt lat="42.0204330" lon="-6.4197310">
        <ele>903.8</ele>
        <time>2019-08-16T09:17:57Z</time>
      </trkpt>
      <trkpt lat="42.0204310" lon="-6.4197690">
        <ele>903.7</ele>
        <time>2019-08-16T09:17:58Z</time>
      </trkpt>
      <trkpt lat="42.0204320" lon="-6.4198090">
        <ele>903.7</ele>
        <time>2019-08-16T09:17:59Z</time>
      </trkpt>
      <trkpt lat="42.0204360" lon="-6.4198500">
        <ele>903.7</ele>
        <time>2019-08-16T09:18:00Z</time>
      </trkpt>
      <trkpt lat="42.0204410" lon="-6.4198920">
        <ele>903.7</ele>
        <time>2019-08-16T09:18:01Z</time>
      </trkpt>
      <trkpt lat="42.0204460" lon="-6.4199360">
        <ele>903.7</ele>
        <time>2019-08-16T09:18:02Z</time>
      </trkpt>
      <trkpt lat="42.0204500" lon="-6.4199800">
        <ele>903.8</ele>
        <time>2019-08-16T09:18:03Z</time>
      </trkpt>
      <trkpt lat="42.0204560" lon="-6.4200260">
        <ele>903.8</ele>
        <time>2019-08-16T09:18:04Z</time>
      </trkpt>
      <trkpt lat="42.0204620" lon="-6.4200710">
        <ele>903.8</ele>
        <time>2019-08-16T09:18:05Z</time>
      </trkpt>
      <trkpt lat="42.0204700" lon="-6.4201170">
        <ele>903.8</ele>
        <time>2019-08-16T09:18:06Z</time>
      </trkpt>
      <trkpt lat="42.0204790" lon="-6.4201630">
        <ele>903.8</ele>
        <time>2019-08-16T09:18:07Z</time>
      </trkpt>
      <trkpt lat="42.0204900" lon="-6.4202080">
        <ele>903.9</ele>
        <time>2019-08-16T09:18:08Z</time>
      </trkpt>
      <trkpt lat="42.0205010" lon="-6.4202520">
        <ele>903.9</ele>
        <time>2019-08-16T09:18:09Z</time>
      </trkpt>
      <trkpt lat="42.0205130" lon="-6.4202940">
        <ele>903.9</ele>
        <time>2019-08-16T09:18:10Z</time>
      </trkpt>
      <trkpt lat="42.0205250" lon="-6.4203350">
        <ele>904.0</ele>
        <time>2019-08-16T09:18:11Z</time>
      </trkpt>
      <trkpt lat="42.0205330" lon="-6.4203780">
        <ele>904.0</ele>
        <time>2019-08-16T09:18:12Z</time>
      </trkpt>
      <trkpt lat="42.0205400" lon="-6.4204200">
        <ele>904.0</ele>
        <time>2019-08-16T09:18:13Z</time>
      </trkpt>
      <trkpt lat="42.0205490" lon="-6.4204610">
        <ele>904.0</ele>
        <time>2019-08-16T09:18:14Z</time>
      </trkpt>
      <trkpt lat="42.0205590" lon="-6.4205030">
        <ele>904.1</ele>
        <time>2019-08-16T09:18:15Z</time>
      </trkpt>
      <trkpt lat="42.0205670" lon="-6.4205470">
        <ele>904.1</ele>
        <time>2019-08-16T09:18:16Z</time>
      </trkpt>
      <trkpt lat="42.0205740" lon="-6.4205960">
        <ele>904.1</ele>
        <time>2019-08-16T09:18:17Z</time>
      </trkpt>
      <trkpt lat="42.0205780" lon="-6.4206510">
        <ele>904.1</ele>
        <time>2019-08-16T09:18:18Z</time>
      </trkpt>
      <trkpt lat="42.0205820" lon="-6.4207110">
        <ele>904.1</ele>
        <time>2019-08-16T09:18:19Z</time>
      </trkpt>
      <trkpt lat="42.0205870" lon="-6.4207760">
        <ele>904.1</ele>
        <time>2019-08-16T09:18:20Z</time>
      </trkpt>
      <trkpt lat="42.0205940" lon="-6.4208430">
        <ele>904.1</ele>
        <time>2019-08-16T09:18:21Z</time>
      </trkpt>
      <trkpt lat="42.0206030" lon="-6.4209100">
        <ele>904.2</ele>
        <time>2019-08-16T09:18:22Z</time>
      </trkpt>
      <trkpt lat="42.0206150" lon="-6.4209760">
        <ele>904.2</ele>
        <time>2019-08-16T09:18:23Z</time>
      </trkpt>
      <trkpt lat="42.0206310" lon="-6.4210440">
        <ele>904.2</ele>
        <time>2019-08-16T09:18:24Z</time>
      </trkpt>
      <trkpt lat="42.0206530" lon="-6.4211140">
        <ele>904.2</ele>
        <time>2019-08-16T09:18:25Z</time>
      </trkpt>
      <trkpt lat="42.0206760" lon="-6.4211820">
        <ele>904.2</ele>
        <time>2019-08-16T09:18:26Z</time>
      </trkpt>
      <trkpt lat="42.0207030" lon="-6.4212430">
        <ele>904.2</ele>
        <time>2019-08-16T09:18:27Z</time>
      </trkpt>
      <trkpt lat="42.0207330" lon="-6.4212930">
        <ele>904.2</ele>
        <time>2019-08-16T09:18:28Z</time>
      </trkpt>
      <trkpt lat="42.0207690" lon="-6.4213490">
        <ele>904.3</ele>
        <time>2019-08-16T09:18:29Z</time>
      </trkpt>
      <trkpt lat="42.0208030" lon="-6.4214020">
        <ele>904.3</ele>
        <time>2019-08-16T09:18:30Z</time>
      </trkpt>
      <trkpt lat="42.0208310" lon="-6.4214470">
        <ele>904.3</ele>
        <time>2019-08-16T09:18:31Z</time>
      </trkpt>
      <trkpt lat="42.0208610" lon="-6.4214940">
        <ele>904.3</ele>
        <time>2019-08-16T09:18:32Z</time>
      </trkpt>
      <trkpt lat="42.0208920" lon="-6.4215320">
        <ele>904.3</ele>
        <time>2019-08-16T09:18:33Z</time>
      </trkpt>
      <trkpt lat="42.0209260" lon="-6.4215740">
        <ele>904.3</ele>
        <time>2019-08-16T09:18:34Z</time>
      </trkpt>
      <trkpt lat="42.0209500" lon="-6.4216200">
        <ele>904.3</ele>
        <time>2019-08-16T09:18:35Z</time>
      </trkpt>
      <trkpt lat="42.0209630" lon="-6.4216670">
        <ele>904.3</ele>
        <time>2019-08-16T09:18:36Z</time>
      </trkpt>
      <trkpt lat="42.0209750" lon="-6.4217200">
        <ele>904.4</ele>
        <time>2019-08-16T09:18:37Z</time>
      </trkpt>
      <trkpt lat="42.0209890" lon="-6.4217820">
        <ele>904.4</ele>
        <time>2019-08-16T09:18:38Z</time>
      </trkpt>
      <trkpt lat="42.0210080" lon="-6.4218410">
        <ele>904.4</ele>
        <time>2019-08-16T09:18:39Z</time>
      </trkpt>
      <trkpt lat="42.0210230" lon="-6.4218950">
        <ele>904.4</ele>
        <time>2019-08-16T09:18:40Z</time>
      </trkpt>
      <trkpt lat="42.0210300" lon="-6.4219510">
        <ele>904.4</ele>
        <time>2019-08-16T09:18:41Z</time>
      </trkpt>
      <trkpt lat="42.0210380" lon="-6.4220100">
        <ele>904.4</ele>
        <time>2019-08-16T09:18:42Z</time>
      </trkpt>
      <trkpt lat="42.0210410" lon="-6.4220640">
        <ele>904.5</ele>
        <time>2019-08-16T09:18:43Z</time>
      </trkpt>
      <trkpt lat="42.0210420" lon="-6.4221140">
        <ele>904.5</ele>
        <time>2019-08-16T09:18:44Z</time>
      </trkpt>
      <trkpt lat="42.0210390" lon="-6.4221740">
        <ele>904.5</ele>
        <time>2019-08-16T09:18:45Z</time>
      </trkpt>
      <trkpt lat="42.0210280" lon="-6.4222340">
        <ele>904.5</ele>
        <time>2019-08-16T09:18:46Z</time>
      </trkpt>
      <trkpt lat="42.0210190" lon="-6.4222920">
        <ele>904.6</ele>
        <time>2019-08-16T09:18:47Z</time>
      </trkpt>
      <trkpt lat="42.0210130" lon="-6.4223500">
        <ele>904.6</ele>
        <time>2019-08-16T09:18:48Z</time>
      </trkpt>
      <trkpt lat="42.0210070" lon="-6.4224120">
        <ele>904.6</ele>
        <time>2019-08-16T09:18:49Z</time>
      </trkpt>
      <trkpt lat="42.0210160" lon="-6.4224690">
        <ele>904.7</ele>
        <time>2019-08-16T09:18:50Z</time>
      </trkpt>
      <trkpt lat="42.0210260" lon="-6.4225340">
        <ele>904.7</ele>
        <time>2019-08-16T09:18:51Z</time>
      </trkpt>
      <trkpt lat="42.0210430" lon="-6.4225970">
        <ele>904.8</ele>
        <time>2019-08-16T09:18:52Z</time>
      </trkpt>
      <trkpt lat="42.0210660" lon="-6.4226510">
        <ele>904.9</ele>
        <time>2019-08-16T09:18:53Z</time>
      </trkpt>
      <trkpt lat="42.0210870" lon="-6.4227060">
        <ele>905.0</ele>
        <time>2019-08-16T09:18:54Z</time>
      </trkpt>
      <trkpt lat="42.0211100" lon="-6.4227600">
        <ele>905.1</ele>
        <time>2019-08-16T09:18:55Z</time>
      </trkpt>
      <trkpt lat="42.0211360" lon="-6.4228180">
        <ele>905.2</ele>
        <time>2019-08-16T09:18:56Z</time>
      </trkpt>
      <trkpt lat="42.0211600" lon="-6.4228720">
        <ele>905.3</ele>
        <time>2019-08-16T09:18:57Z</time>
      </trkpt>
      <trkpt lat="42.0211840" lon="-6.4229180">
        <ele>905.5</ele>
        <time>2019-08-16T09:18:58Z</time>
      </trkpt>
      <trkpt lat="42.0212050" lon="-6.4229610">
        <ele>905.6</ele>
        <time>2019-08-16T09:18:59Z</time>
      </trkpt>
      <trkpt lat="42.0212210" lon="-6.4230070">
        <ele>905.8</ele>
        <time>2019-08-16T09:19:00Z</time>
      </trkpt>
      <trkpt lat="42.0212300" lon="-6.4230500">
        <ele>906.0</ele>
        <time>2019-08-16T09:19:01Z</time>
      </trkpt>
      <trkpt lat="42.0212360" lon="-6.4231050">
        <ele>906.3</ele>
        <time>2019-08-16T09:19:03Z</time>
      </trkpt>
      <trkpt lat="42.0212540" lon="-6.4231720">
        <ele>906.6</ele>
        <time>2019-08-16T09:19:05Z</time>
      </trkpt>
      <trkpt lat="42.0212720" lon="-6.4232420">
        <ele>906.8</ele>
        <time>2019-08-16T09:19:07Z</time>
      </trkpt>
      <trkpt lat="42.0212820" lon="-6.4232770">
        <ele>906.9</ele>
        <time>2019-08-16T09:19:08Z</time>
      </trkpt>
      <trkpt lat="42.0212980" lon="-6.4233470">
        <ele>907.2</ele>
        <time>2019-08-16T09:19:10Z</time>
      </trkpt>
      <trkpt lat="42.0213090" lon="-6.4233850">
        <ele>907.3</ele>
        <time>2019-08-16T09:19:11Z</time>
      </trkpt>
      <trkpt lat="42.0213190" lon="-6.4234590">
        <ele>907.6</ele>
        <time>2019-08-16T09:19:13Z</time>
      </trkpt>
      <trkpt lat="42.0213250" lon="-6.4234970">
        <ele>907.8</ele>
        <time>2019-08-16T09:19:14Z</time>
      </trkpt>
      <trkpt lat="42.0213280" lon="-6.4235360">
        <ele>908.0</ele>
        <time>2019-08-16T09:19:15Z</time>
      </trkpt>
      <trkpt lat="42.0213380" lon="-6.4235760">
        <ele>908.2</ele>
        <time>2019-08-16T09:19:16Z</time>
      </trkpt>
      <trkpt lat="42.0213470" lon="-6.4236140">
        <ele>908.4</ele>
        <time>2019-08-16T09:19:17Z</time>
      </trkpt>
      <trkpt lat="42.0213550" lon="-6.4236510">
        <ele>908.5</ele>
        <time>2019-08-16T09:19:18Z</time>
      </trkpt>
      <trkpt lat="42.0213640" lon="-6.4236920">
        <ele>908.7</ele>
        <time>2019-08-16T09:19:19Z</time>
      </trkpt>
      <trkpt lat="42.0213700" lon="-6.4237360">
        <ele>908.8</ele>
        <time>2019-08-16T09:19:20Z</time>
      </trkpt>
      <trkpt lat="42.0213800" lon="-6.4237740">
        <ele>909.0</ele>
        <time>2019-08-16T09:19:21Z</time>
      </trkpt>
      <trkpt lat="42.0213860" lon="-6.4238220">
        <ele>909.2</ele>
        <time>2019-08-16T09:19:22Z</time>
      </trkpt>
      <trkpt lat="42.0213950" lon="-6.4238690">
        <ele>909.3</ele>
        <time>2019-08-16T09:19:23Z</time>
      </trkpt>
      <trkpt lat="42.0214030" lon="-6.4239160">
        <ele>909.5</ele>
        <time>2019-08-16T09:19:24Z</time>
      </trkpt>
      <trkpt lat="42.0214200" lon="-6.4239720">
        <ele>909.7</ele>
        <time>2019-08-16T09:19:25Z</time>
      </trkpt>
      <trkpt lat="42.0214270" lon="-6.4240250">
        <ele>910.0</ele>
        <time>2019-08-16T09:19:26Z</time>
      </trkpt>
      <trkpt lat="42.0214350" lon="-6.4240710">
        <ele>910.3</ele>
        <time>2019-08-16T09:19:27Z</time>
      </trkpt>
      <trkpt lat="42.0214330" lon="-6.4241200">
        <ele>910.5</ele>
        <time>2019-08-16T09:19:28Z</time>
      </trkpt>
      <trkpt lat="42.0214360" lon="-6.4241620">
        <ele>910.6</ele>
        <time>2019-08-16T09:19:29Z</time>
      </trkpt>
      <trkpt lat="42.0214420" lon="-6.4242010">
        <ele>910.7</ele>
        <time>2019-08-16T09:19:30Z</time>
      </trkpt>
      <trkpt lat="42.0214390" lon="-6.4242410">
        <ele>910.8</ele>
        <time>2019-08-16T09:19:31Z</time>
      </trkpt>
      <trkpt lat="42.0214370" lon="-6.4242830">
        <ele>910.9</ele>
        <time>2019-08-16T09:19:32Z</time>
      </trkpt>
      <trkpt lat="42.0214380" lon="-6.4243270">
        <ele>911.0</ele>
        <time>2019-08-16T09:19:33Z</time>
      </trkpt>
      <trkpt lat="42.0214410" lon="-6.4243690">
        <ele>911.1</ele>
        <time>2019-08-16T09:19:34Z</time>
      </trkpt>
      <trkpt lat="42.0214440" lon="-6.4244130">
        <ele>911.1</ele>
        <time>2019-08-16T09:19:35Z</time>
      </trkpt>
      <trkpt lat="42.0214450" lon="-6.4244580">
        <ele>911.2</ele>
        <time>2019-08-16T09:19:36Z</time>
      </trkpt>
      <trkpt lat="42.0214470" lon="-6.4245060">
        <ele>911.3</ele>
        <time>2019-08-16T09:19:37Z</time>
      </trkpt>
      <trkpt lat="42.0214530" lon="-6.4245540">
        <ele>911.4</ele>
        <time>2019-08-16T09:19:38Z</time>
      </trkpt>
      <trkpt lat="42.0214560" lon="-6.4245960">
        <ele>911.4</ele>
        <time>2019-08-16T09:19:39Z</time>
      </trkpt>
      <trkpt lat="42.0214590" lon="-6.4246440">
        <ele>911.5</ele>
        <time>2019-08-16T09:19:40Z</time>
      </trkpt>
      <trkpt lat="42.0214590" lon="-6.4246900">
        <ele>911.6</ele>
        <time>2019-08-16T09:19:41Z</time>
      </trkpt>
      <trkpt lat="42.0214580" lon="-6.4247350">
        <ele>911.6</ele>
        <time>2019-08-16T09:19:42Z</time>
      </trkpt>
      <trkpt lat="42.0214560" lon="-6.4247810">
        <ele>911.7</ele>
        <time>2019-08-16T09:19:43Z</time>
      </trkpt>
      <trkpt lat="42.0214570" lon="-6.4248240">
        <ele>911.8</ele>
        <time>2019-08-16T09:19:44Z</time>
      </trkpt>
      <trkpt lat="42.0214570" lon="-6.4248680">
        <ele>911.9</ele>
        <time>2019-08-16T09:19:45Z</time>
      </trkpt>
      <trkpt lat="42.0214600" lon="-6.4249140">
        <ele>912.0</ele>
        <time>2019-08-16T09:19:46Z</time>
      </trkpt>
      <trkpt lat="42.0214630" lon="-6.4249560">
        <ele>912.1</ele>
        <time>2019-08-16T09:19:47Z</time>
      </trkpt>
      <trkpt lat="42.0214610" lon="-6.4250000">
        <ele>912.2</ele>
        <time>2019-08-16T09:19:48Z</time>
      </trkpt>
      <trkpt lat="42.0214600" lon="-6.4250430">
        <ele>912.4</ele>
        <time>2019-08-16T09:19:49Z</time>
      </trkpt>
      <trkpt lat="42.0214620" lon="-6.4250900">
        <ele>912.6</ele>
        <time>2019-08-16T09:19:50Z</time>
      </trkpt>
      <trkpt lat="42.0214680" lon="-6.4251360">
        <ele>912.8</ele>
        <time>2019-08-16T09:19:51Z</time>
      </trkpt>
      <trkpt lat="42.0214720" lon="-6.4251790">
        <ele>913.0</ele>
        <time>2019-08-16T09:19:52Z</time>
      </trkpt>
      <trkpt lat="42.0214740" lon="-6.4252180">
        <ele>913.1</ele>
        <time>2019-08-16T09:19:53Z</time>
      </trkpt>
      <trkpt lat="42.0214770" lon="-6.4252570">
        <ele>913.2</ele>
        <time>2019-08-16T09:19:54Z</time>
      </trkpt>
      <trkpt lat="42.0214810" lon="-6.4252970">
        <ele>913.3</ele>
        <time>2019-08-16T09:19:55Z</time>
      </trkpt>
      <trkpt lat="42.0214870" lon="-6.4253380">
        <ele>913.4</ele>
        <time>2019-08-16T09:19:56Z</time>
      </trkpt>
      <trkpt lat="42.0214880" lon="-6.4253780">
        <ele>913.5</ele>
        <time>2019-08-16T09:19:57Z</time>
      </trkpt>
      <trkpt lat="42.0214880" lon="-6.4254210">
        <ele>913.5</ele>
        <time>2019-08-16T09:19:58Z</time>
      </trkpt>
      <trkpt lat="42.0214910" lon="-6.4254670">
        <ele>913.6</ele>
        <time>2019-08-16T09:19:59Z</time>
      </trkpt>
      <trkpt lat="42.0214940" lon="-6.4255120">
        <ele>913.7</ele>
        <time>2019-08-16T09:20:00Z</time>
      </trkpt>
      <trkpt lat="42.0215000" lon="-6.4255590">
        <ele>913.9</ele>
        <time>2019-08-16T09:20:01Z</time>
      </trkpt>
      <trkpt lat="42.0215050" lon="-6.4256060">
        <ele>914.0</ele>
        <time>2019-08-16T09:20:02Z</time>
      </trkpt>
      <trkpt lat="42.0215070" lon="-6.4256480">
        <ele>914.2</ele>
        <time>2019-08-16T09:20:03Z</time>
      </trkpt>
      <trkpt lat="42.0215120" lon="-6.4256930">
        <ele>914.4</ele>
        <time>2019-08-16T09:20:04Z</time>
      </trkpt>
      <trkpt lat="42.0215170" lon="-6.4257370">
        <ele>914.6</ele>
        <time>2019-08-16T09:20:05Z</time>
      </trkpt>
      <trkpt lat="42.0215170" lon="-6.4257810">
        <ele>914.8</ele>
        <time>2019-08-16T09:20:06Z</time>
      </trkpt>
      <trkpt lat="42.0215180" lon="-6.4258250">
        <ele>915.0</ele>
        <time>2019-08-16T09:20:07Z</time>
      </trkpt>
      <trkpt lat="42.0215210" lon="-6.4258650">
        <ele>915.2</ele>
        <time>2019-08-16T09:20:08Z</time>
      </trkpt>
      <trkpt lat="42.0215240" lon="-6.4259070">
        <ele>915.4</ele>
        <time>2019-08-16T09:20:09Z</time>
      </trkpt>
      <trkpt lat="42.0215300" lon="-6.4259480">
        <ele>915.6</ele>
        <time>2019-08-16T09:20:10Z</time>
      </trkpt>
      <trkpt lat="42.0215400" lon="-6.4259860">
        <ele>915.7</ele>
        <time>2019-08-16T09:20:11Z</time>
      </trkpt>
      <trkpt lat="42.0215520" lon="-6.4260270">
        <ele>915.8</ele>
        <time>2019-08-16T09:20:12Z</time>
      </trkpt>
      <trkpt lat="42.0215620" lon="-6.4260690">
        <ele>915.9</ele>
        <time>2019-08-16T09:20:13Z</time>
      </trkpt>
      <trkpt lat="42.0215710" lon="-6.4261120">
        <ele>916.0</ele>
        <time>2019-08-16T09:20:14Z</time>
      </trkpt>
      <trkpt lat="42.0215790" lon="-6.4261540">
        <ele>916.1</ele>
        <time>2019-08-16T09:20:15Z</time>
      </trkpt>
      <trkpt lat="42.0215860" lon="-6.4261950">
        <ele>916.2</ele>
        <time>2019-08-16T09:20:16Z</time>
      </trkpt>
      <trkpt lat="42.0215910" lon="-6.4262340">
        <ele>916.3</ele>
        <time>2019-08-16T09:20:17Z</time>
      </trkpt>
      <trkpt lat="42.0215960" lon="-6.4262790">
        <ele>916.4</ele>
        <time>2019-08-16T09:20:18Z</time>
      </trkpt>
      <trkpt lat="42.0216020" lon="-6.4263240">
        <ele>916.6</ele>
        <time>2019-08-16T09:20:19Z</time>
      </trkpt>
      <trkpt lat="42.0216070" lon="-6.4263690">
        <ele>916.8</ele>
        <time>2019-08-16T09:20:20Z</time>
      </trkpt>
      <trkpt lat="42.0216050" lon="-6.4264150">
        <ele>916.9</ele>
        <time>2019-08-16T09:20:21Z</time>
      </trkpt>
      <trkpt lat="42.0216060" lon="-6.4264550">
        <ele>917.1</ele>
        <time>2019-08-16T09:20:22Z</time>
      </trkpt>
      <trkpt lat="42.0216120" lon="-6.4264930">
        <ele>917.4</ele>
        <time>2019-08-16T09:20:23Z</time>
      </trkpt>
      <trkpt lat="42.0216130" lon="-6.4265380">
        <ele>917.7</ele>
        <time>2019-08-16T09:20:24Z</time>
      </trkpt>
      <trkpt lat="42.0216120" lon="-6.4265860">
        <ele>918.1</ele>
        <time>2019-08-16T09:20:25Z</time>
      </trkpt>
      <trkpt lat="42.0216150" lon="-6.4266330">
        <ele>918.4</ele>
        <time>2019-08-16T09:20:26Z</time>
      </trkpt>
      <trkpt lat="42.0216180" lon="-6.4266800">
        <ele>918.4</ele>
        <time>2019-08-16T09:20:27Z</time>
      </trkpt>
      <trkpt lat="42.0216220" lon="-6.4267330">
        <ele>918.5</ele>
        <time>2019-08-16T09:20:28Z</time>
      </trkpt>
      <trkpt lat="42.0216330" lon="-6.4267810">
        <ele>918.6</ele>
        <time>2019-08-16T09:20:29Z</time>
      </trkpt>
      <trkpt lat="42.0216410" lon="-6.4268240">
        <ele>918.7</ele>
        <time>2019-08-16T09:20:30Z</time>
      </trkpt>
      <trkpt lat="42.0216520" lon="-6.4268650">
        <ele>918.7</ele>
        <time>2019-08-16T09:20:31Z</time>
      </trkpt>
      <trkpt lat="42.0216630" lon="-6.4269100">
        <ele>918.8</ele>
        <time>2019-08-16T09:20:32Z</time>
      </trkpt>
      <trkpt lat="42.0216700" lon="-6.4269540">
        <ele>918.9</ele>
        <time>2019-08-16T09:20:33Z</time>
      </trkpt>
      <trkpt lat="42.0216760" lon="-6.4269980">
        <ele>919.0</ele>
        <time>2019-08-16T09:20:34Z</time>
      </trkpt>
      <trkpt lat="42.0216820" lon="-6.4270480">
        <ele>919.1</ele>
        <time>2019-08-16T09:20:35Z</time>
      </trkpt>
      <trkpt lat="42.0216900" lon="-6.4270950">
        <ele>919.3</ele>
        <time>2019-08-16T09:20:36Z</time>
      </trkpt>
      <trkpt lat="42.0216940" lon="-6.4271420">
        <ele>919.4</ele>
        <time>2019-08-16T09:20:37Z</time>
      </trkpt>
      <trkpt lat="42.0216980" lon="-6.4271890">
        <ele>919.6</ele>
        <time>2019-08-16T09:20:38Z</time>
      </trkpt>
      <trkpt lat="42.0217010" lon="-6.4272350">
        <ele>919.7</ele>
        <time>2019-08-16T09:20:39Z</time>
      </trkpt>
      <trkpt lat="42.0217060" lon="-6.4272800">
        <ele>919.8</ele>
        <time>2019-08-16T09:20:40Z</time>
      </trkpt>
      <trkpt lat="42.0217110" lon="-6.4273270">
        <ele>920.0</ele>
        <time>2019-08-16T09:20:41Z</time>
      </trkpt>
      <trkpt lat="42.0217150" lon="-6.4273740">
        <ele>920.1</ele>
        <time>2019-08-16T09:20:42Z</time>
      </trkpt>
      <trkpt lat="42.0217200" lon="-6.4274210">
        <ele>920.2</ele>
        <time>2019-08-16T09:20:43Z</time>
      </trkpt>
      <trkpt lat="42.0217250" lon="-6.4274670">
        <ele>920.4</ele>
        <time>2019-08-16T09:20:44Z</time>
      </trkpt>
      <trkpt lat="42.0217290" lon="-6.4275120">
        <ele>920.5</ele>
        <time>2019-08-16T09:20:45Z</time>
      </trkpt>
      <trkpt lat="42.0217330" lon="-6.4275570">
        <ele>920.7</ele>
        <time>2019-08-16T09:20:46Z</time>
      </trkpt>
      <trkpt lat="42.0217370" lon="-6.4276030">
        <ele>920.8</ele>
        <time>2019-08-16T09:20:47Z</time>
      </trkpt>
      <trkpt lat="42.0217420" lon="-6.4276490">
        <ele>921.0</ele>
        <time>2019-08-16T09:20:48Z</time>
      </trkpt>
      <trkpt lat="42.0217470" lon="-6.4276950">
        <ele>921.1</ele>
        <time>2019-08-16T09:20:49Z</time>
      </trkpt>
      <trkpt lat="42.0217510" lon="-6.4277400">
        <ele>921.2</ele>
        <time>2019-08-16T09:20:50Z</time>
      </trkpt>
      <trkpt lat="42.0217570" lon="-6.4277860">
        <ele>921.4</ele>
        <time>2019-08-16T09:20:51Z</time>
      </trkpt>
      <trkpt lat="42.0217610" lon="-6.4278320">
        <ele>921.5</ele>
        <time>2019-08-16T09:20:52Z</time>
      </trkpt>
      <trkpt lat="42.0217640" lon="-6.4278790">
        <ele>921.6</ele>
        <time>2019-08-16T09:20:53Z</time>
      </trkpt>
      <trkpt lat="42.0217690" lon="-6.4279250">
        <ele>921.7</ele>
        <time>2019-08-16T09:20:54Z</time>
      </trkpt>
      <trkpt lat="42.0217760" lon="-6.4279720">
        <ele>921.8</ele>
        <time>2019-08-16T09:20:55Z</time>
      </trkpt>
      <trkpt lat="42.0217810" lon="-6.4280190">
        <ele>921.9</ele>
        <time>2019-08-16T09:20:56Z</time>
      </trkpt>
      <trkpt lat="42.0217870" lon="-6.4280650">
        <ele>922.0</ele>
        <time>2019-08-16T09:20:57Z</time>
      </trkpt>
      <trkpt lat="42.0217920" lon="-6.4281110">
        <ele>922.1</ele>
        <time>2019-08-16T09:20:58Z</time>
      </trkpt>
      <trkpt lat="42.0217970" lon="-6.4281580">
        <ele>922.2</ele>
        <time>2019-08-16T09:20:59Z</time>
      </trkpt>
      <trkpt lat="42.0218010" lon="-6.4282050">
        <ele>922.3</ele>
        <time>2019-08-16T09:21:00Z</time>
      </trkpt>
      <trkpt lat="42.0218070" lon="-6.4282530">
        <ele>922.5</ele>
        <time>2019-08-16T09:21:01Z</time>
      </trkpt>
      <trkpt lat="42.0218130" lon="-6.4283010">
        <ele>922.6</ele>
        <time>2019-08-16T09:21:02Z</time>
      </trkpt>
      <trkpt lat="42.0218190" lon="-6.4283480">
        <ele>922.7</ele>
        <time>2019-08-16T09:21:03Z</time>
      </trkpt>
      <trkpt lat="42.0218240" lon="-6.4283950">
        <ele>922.8</ele>
        <time>2019-08-16T09:21:04Z</time>
      </trkpt>
      <trkpt lat="42.0218300" lon="-6.4284420">
        <ele>922.9</ele>
        <time>2019-08-16T09:21:05Z</time>
      </trkpt>
      <trkpt lat="42.0218350" lon="-6.4284890">
        <ele>923.1</ele>
        <time>2019-08-16T09:21:06Z</time>
      </trkpt>
      <trkpt lat="42.0218410" lon="-6.4285370">
        <ele>923.2</ele>
        <time>2019-08-16T09:21:07Z</time>
      </trkpt>
      <trkpt lat="42.0218430" lon="-6.4285840">
        <ele>923.3</ele>
        <time>2019-08-16T09:21:08Z</time>
      </trkpt>
      <trkpt lat="42.0218470" lon="-6.4286320">
        <ele>923.4</ele>
        <time>2019-08-16T09:21:09Z</time>
      </trkpt>
      <trkpt lat="42.0218530" lon="-6.4286790">
        <ele>923.5</ele>
        <time>2019-08-16T09:21:10Z</time>
      </trkpt>
      <trkpt lat="42.0218600" lon="-6.4287270">
        <ele>923.6</ele>
        <time>2019-08-16T09:21:11Z</time>
      </trkpt>
      <trkpt lat="42.0218660" lon="-6.4287750">
        <ele>923.6</ele>
        <time>2019-08-16T09:21:12Z</time>
      </trkpt>
      <trkpt lat="42.0218730" lon="-6.4288230">
        <ele>923.7</ele>
        <time>2019-08-16T09:21:13Z</time>
      </trkpt>
      <trkpt lat="42.0218790" lon="-6.4288720">
        <ele>923.8</ele>
        <time>2019-08-16T09:21:14Z</time>
      </trkpt>
      <trkpt lat="42.0218860" lon="-6.4289210">
        <ele>923.9</ele>
        <time>2019-08-16T09:21:15Z</time>
      </trkpt>
      <trkpt lat="42.0218930" lon="-6.4289710">
        <ele>924.0</ele>
        <time>2019-08-16T09:21:16Z</time>
      </trkpt>
      <trkpt lat="42.0218990" lon="-6.4290210">
        <ele>924.1</ele>
        <time>2019-08-16T09:21:17Z</time>
      </trkpt>
      <trkpt lat="42.0219050" lon="-6.4290720">
        <ele>924.1</ele>
        <time>2019-08-16T09:21:18Z</time>
      </trkpt>
      <trkpt lat="42.0219100" lon="-6.4291220">
        <ele>924.2</ele>
        <time>2019-08-16T09:21:19Z</time>
      </trkpt>
      <trkpt lat="42.0219150" lon="-6.4291730">
        <ele>924.3</ele>
        <time>2019-08-16T09:21:20Z</time>
      </trkpt>
      <trkpt lat="42.0219210" lon="-6.4292240">
        <ele>924.5</ele>
        <time>2019-08-16T09:21:21Z</time>
      </trkpt>
      <trkpt lat="42.0219270" lon="-6.4292750">
        <ele>924.6</ele>
        <time>2019-08-16T09:21:22Z</time>
      </trkpt>
      <trkpt lat="42.0219340" lon="-6.4293260">
        <ele>924.7</ele>
        <time>2019-08-16T09:21:23Z</time>
      </trkpt>
      <trkpt lat="42.0219390" lon="-6.4293800">
        <ele>924.8</ele>
        <time>2019-08-16T09:21:24Z</time>
      </trkpt>
      <trkpt lat="42.0219450" lon="-6.4294330">
        <ele>924.9</ele>
        <time>2019-08-16T09:21:25Z</time>
      </trkpt>
      <trkpt lat="42.0219510" lon="-6.4294860">
        <ele>925.0</ele>
        <time>2019-08-16T09:21:26Z</time>
      </trkpt>
      <trkpt lat="42.0219560" lon="-6.4295410">
        <ele>925.1</ele>
        <time>2019-08-16T09:21:27Z</time>
      </trkpt>
      <trkpt lat="42.0219620" lon="-6.4295970">
        <ele>925.2</ele>
        <time>2019-08-16T09:21:28Z</time>
      </trkpt>
      <trkpt lat="42.0219680" lon="-6.4296530">
        <ele>925.2</ele>
        <time>2019-08-16T09:21:29Z</time>
      </trkpt>
      <trkpt lat="42.0219750" lon="-6.4297070">
        <ele>925.3</ele>
        <time>2019-08-16T09:21:30Z</time>
      </trkpt>
      <trkpt lat="42.0219810" lon="-6.4297630">
        <ele>925.3</ele>
        <time>2019-08-16T09:21:31Z</time>
      </trkpt>
      <trkpt lat="42.0219870" lon="-6.4298230">
        <ele>925.3</ele>
        <time>2019-08-16T09:21:32Z</time>
      </trkpt>
      <trkpt lat="42.0219940" lon="-6.4298830">
        <ele>925.4</ele>
        <time>2019-08-16T09:21:33Z</time>
      </trkpt>
      <trkpt lat="42.0220010" lon="-6.4299430">
        <ele>925.4</ele>
        <time>2019-08-16T09:21:34Z</time>
      </trkpt>
      <trkpt lat="42.0220080" lon="-6.4300010">
        <ele>925.4</ele>
        <time>2019-08-16T09:21:35Z</time>
      </trkpt>
      <trkpt lat="42.0220140" lon="-6.4300590">
        <ele>925.5</ele>
        <time>2019-08-16T09:21:36Z</time>
      </trkpt>
      <trkpt lat="42.0220210" lon="-6.4301170">
        <ele>925.5</ele>
        <time>2019-08-16T09:21:37Z</time>
      </trkpt>
      <trkpt lat="42.0220270" lon="-6.4301780">
        <ele>925.5</ele>
        <time>2019-08-16T09:21:38Z</time>
      </trkpt>
      <trkpt lat="42.0220340" lon="-6.4302380">
        <ele>925.5</ele>
        <time>2019-08-16T09:21:39Z</time>
      </trkpt>
      <trkpt lat="42.0220410" lon="-6.4302990">
        <ele>925.6</ele>
        <time>2019-08-16T09:21:40Z</time>
      </trkpt>
      <trkpt lat="42.0220480" lon="-6.4303630">
        <ele>925.6</ele>
        <time>2019-08-16T09:21:41Z</time>
      </trkpt>
      <trkpt lat="42.0220540" lon="-6.4304260">
        <ele>925.6</ele>
        <time>2019-08-16T09:21:42Z</time>
      </trkpt>
      <trkpt lat="42.0220600" lon="-6.4304870">
        <ele>925.5</ele>
        <time>2019-08-16T09:21:43Z</time>
      </trkpt>
      <trkpt lat="42.0220660" lon="-6.4305480">
        <ele>925.5</ele>
        <time>2019-08-16T09:21:44Z</time>
      </trkpt>
      <trkpt lat="42.0220710" lon="-6.4306100">
        <ele>925.5</ele>
        <time>2019-08-16T09:21:45Z</time>
      </trkpt>
      <trkpt lat="42.0220760" lon="-6.4306730">
        <ele>925.5</ele>
        <time>2019-08-16T09:21:46Z</time>
      </trkpt>
      <trkpt lat="42.0220820" lon="-6.4307380">
        <ele>925.4</ele>
        <time>2019-08-16T09:21:47Z</time>
      </trkpt>
      <trkpt lat="42.0220860" lon="-6.4308040">
        <ele>925.4</ele>
        <time>2019-08-16T09:21:48Z</time>
      </trkpt>
      <trkpt lat="42.0220900" lon="-6.4308720">
        <ele>925.4</ele>
        <time>2019-08-16T09:21:49Z</time>
      </trkpt>
      <trkpt lat="42.0220940" lon="-6.4309400">
        <ele>925.3</ele>
        <time>2019-08-16T09:21:50Z</time>
      </trkpt>
      <trkpt lat="42.0220980" lon="-6.4310090">
        <ele>925.3</ele>
        <time>2019-08-16T09:21:51Z</time>
      </trkpt>
      <trkpt lat="42.0221040" lon="-6.4310800">
        <ele>925.2</ele>
        <time>2019-08-16T09:21:52Z</time>
      </trkpt>
      <trkpt lat="42.0221090" lon="-6.4311510">
        <ele>925.2</ele>
        <time>2019-08-16T09:21:53Z</time>
      </trkpt>
      <trkpt lat="42.0221120" lon="-6.4312190">
        <ele>925.1</ele>
        <time>2019-08-16T09:21:54Z</time>
      </trkpt>
      <trkpt lat="42.0221160" lon="-6.4312870">
        <ele>925.1</ele>
        <time>2019-08-16T09:21:55Z</time>
      </trkpt>
      <trkpt lat="42.0221200" lon="-6.4313560">
        <ele>925.0</ele>
        <time>2019-08-16T09:21:56Z</time>
      </trkpt>
      <trkpt lat="42.0221270" lon="-6.4314270">
        <ele>925.0</ele>
        <time>2019-08-16T09:21:57Z</time>
      </trkpt>
      <trkpt lat="42.0221320" lon="-6.4315000">
        <ele>925.0</ele>
        <time>2019-08-16T09:21:58Z</time>
      </trkpt>
      <trkpt lat="42.0221380" lon="-6.4315750">
        <ele>925.0</ele>
        <time>2019-08-16T09:21:59Z</time>
      </trkpt>
      <trkpt lat="42.0221440" lon="-6.4316500">
        <ele>924.9</ele>
        <time>2019-08-16T09:22:00Z</time>
      </trkpt>
      <trkpt lat="42.0221480" lon="-6.4317260">
        <ele>924.9</ele>
        <time>2019-08-16T09:22:01Z</time>
      </trkpt>
      <trkpt lat="42.0221530" lon="-6.4318020">
        <ele>924.8</ele>
        <time>2019-08-16T09:22:02Z</time>
      </trkpt>
      <trkpt lat="42.0221570" lon="-6.4318810">
        <ele>924.8</ele>
        <time>2019-08-16T09:22:03Z</time>
      </trkpt>
      <trkpt lat="42.0221610" lon="-6.4319620">
        <ele>924.7</ele>
        <time>2019-08-16T09:22:04Z</time>
      </trkpt>
      <trkpt lat="42.0221650" lon="-6.4320460">
        <ele>924.6</ele>
        <time>2019-08-16T09:22:05Z</time>
      </trkpt>
      <trkpt lat="42.0221700" lon="-6.4321300">
        <ele>924.5</ele>
        <time>2019-08-16T09:22:06Z</time>
      </trkpt>
      <trkpt lat="42.0221750" lon="-6.4322150">
        <ele>924.4</ele>
        <time>2019-08-16T09:22:07Z</time>
      </trkpt>
      <trkpt lat="42.0221800" lon="-6.4322990">
        <ele>924.2</ele>
        <time>2019-08-16T09:22:08Z</time>
      </trkpt>
      <trkpt lat="42.0221850" lon="-6.4323820">
        <ele>924.2</ele>
        <time>2019-08-16T09:22:09Z</time>
      </trkpt>
      <trkpt lat="42.0221910" lon="-6.4324640">
        <ele>924.1</ele>
        <time>2019-08-16T09:22:10Z</time>
      </trkpt>
      <trkpt lat="42.0221960" lon="-6.4325450">
        <ele>924.0</ele>
        <time>2019-08-16T09:22:11Z</time>
      </trkpt>
      <trkpt lat="42.0222020" lon="-6.4326270">
        <ele>923.9</ele>
        <time>2019-08-16T09:22:12Z</time>
      </trkpt>
      <trkpt lat="42.0222080" lon="-6.4327120">
        <ele>923.9</ele>
        <time>2019-08-16T09:22:13Z</time>
      </trkpt>
      <trkpt lat="42.0222140" lon="-6.4327990">
        <ele>923.8</ele>
        <time>2019-08-16T09:22:14Z</time>
      </trkpt>
      <trkpt lat="42.0222200" lon="-6.4328860">
        <ele>923.8</ele>
        <time>2019-08-16T09:22:15Z</time>
      </trkpt>
      <trkpt lat="42.0222260" lon="-6.4329720">
        <ele>923.7</ele>
        <time>2019-08-16T09:22:16Z</time>
      </trkpt>
      <trkpt lat="42.0222310" lon="-6.4330560">
        <ele>923.6</ele>
        <time>2019-08-16T09:22:17Z</time>
      </trkpt>
      <trkpt lat="42.0222350" lon="-6.4331390">
        <ele>923.6</ele>
        <time>2019-08-16T09:22:18Z</time>
      </trkpt>
      <trkpt lat="42.0222380" lon="-6.4332210">
        <ele>923.5</ele>
        <time>2019-08-16T09:22:19Z</time>
      </trkpt>
      <trkpt lat="42.0222420" lon="-6.4333040">
        <ele>923.4</ele>
        <time>2019-08-16T09:22:20Z</time>
      </trkpt>
      <trkpt lat="42.0222470" lon="-6.4333900">
        <ele>923.4</ele>
        <time>2019-08-16T09:22:21Z</time>
      </trkpt>
      <trkpt lat="42.0222540" lon="-6.4334760">
        <ele>923.3</ele>
        <time>2019-08-16T09:22:22Z</time>
      </trkpt>
      <trkpt lat="42.0222610" lon="-6.4335650">
        <ele>923.3</ele>
        <time>2019-08-16T09:22:23Z</time>
      </trkpt>
      <trkpt lat="42.0222660" lon="-6.4336530">
        <ele>923.2</ele>
        <time>2019-08-16T09:22:24Z</time>
      </trkpt>
      <trkpt lat="42.0222710" lon="-6.4337390">
        <ele>923.2</ele>
        <time>2019-08-16T09:22:25Z</time>
      </trkpt>
      <trkpt lat="42.0222760" lon="-6.4338250">
        <ele>923.1</ele>
        <time>2019-08-16T09:22:26Z</time>
      </trkpt>
      <trkpt lat="42.0222820" lon="-6.4339090">
        <ele>923.1</ele>
        <time>2019-08-16T09:22:27Z</time>
      </trkpt>
      <trkpt lat="42.0222880" lon="-6.4339920">
        <ele>923.0</ele>
        <time>2019-08-16T09:22:28Z</time>
      </trkpt>
      <trkpt lat="42.0222950" lon="-6.4340720">
        <ele>923.0</ele>
        <time>2019-08-16T09:22:29Z</time>
      </trkpt>
      <trkpt lat="42.0223000" lon="-6.4341540">
        <ele>923.0</ele>
        <time>2019-08-16T09:22:30Z</time>
      </trkpt>
      <trkpt lat="42.0223040" lon="-6.4342320">
        <ele>922.9</ele>
        <time>2019-08-16T09:22:31Z</time>
      </trkpt>
      <trkpt lat="42.0223090" lon="-6.4343090">
        <ele>922.9</ele>
        <time>2019-08-16T09:22:32Z</time>
      </trkpt>
      <trkpt lat="42.0223130" lon="-6.4343850">
        <ele>922.9</ele>
        <time>2019-08-16T09:22:33Z</time>
      </trkpt>
      <trkpt lat="42.0223180" lon="-6.4344610">
        <ele>922.8</ele>
        <time>2019-08-16T09:22:34Z</time>
      </trkpt>
      <trkpt lat="42.0223220" lon="-6.4345350">
        <ele>922.8</ele>
        <time>2019-08-16T09:22:35Z</time>
      </trkpt>
      <trkpt lat="42.0223260" lon="-6.4346080">
        <ele>922.8</ele>
        <time>2019-08-16T09:22:36Z</time>
      </trkpt>
      <trkpt lat="42.0223300" lon="-6.4346800">
        <ele>922.8</ele>
        <time>2019-08-16T09:22:37Z</time>
      </trkpt>
      <trkpt lat="42.0223350" lon="-6.4347500">
        <ele>922.8</ele>
        <time>2019-08-16T09:22:38Z</time>
      </trkpt>
      <trkpt lat="42.0223400" lon="-6.4348160">
        <ele>922.8</ele>
        <time>2019-08-16T09:22:39Z</time>
      </trkpt>
      <trkpt lat="42.0223450" lon="-6.4348780">
        <ele>922.7</ele>
        <time>2019-08-16T09:22:40Z</time>
      </trkpt>
      <trkpt lat="42.0223500" lon="-6.4349350">
        <ele>922.7</ele>
        <time>2019-08-16T09:22:41Z</time>
      </trkpt>
      <trkpt lat="42.0223550" lon="-6.4349910">
        <ele>922.8</ele>
        <time>2019-08-16T09:22:42Z</time>
      </trkpt>
      <trkpt lat="42.0223580" lon="-6.4350460">
        <ele>922.8</ele>
        <time>2019-08-16T09:22:43Z</time>
      </trkpt>
      <trkpt lat="42.0223560" lon="-6.4351000">
        <ele>922.9</ele>
        <time>2019-08-16T09:22:44Z</time>
      </trkpt>
      <trkpt lat="42.0223500" lon="-6.4351560">
        <ele>922.9</ele>
        <time>2019-08-16T09:22:45Z</time>
      </trkpt>
      <trkpt lat="42.0223360" lon="-6.4352100">
        <ele>923.0</ele>
        <time>2019-08-16T09:22:46Z</time>
      </trkpt>
      <trkpt lat="42.0223180" lon="-6.4352620">
        <ele>923.0</ele>
        <time>2019-08-16T09:22:47Z</time>
      </trkpt>
      <trkpt lat="42.0222980" lon="-6.4353130">
        <ele>923.0</ele>
        <time>2019-08-16T09:22:48Z</time>
      </trkpt>
      <trkpt lat="42.0222760" lon="-6.4353660">
        <ele>923.0</ele>
        <time>2019-08-16T09:22:49Z</time>
      </trkpt>
      <trkpt lat="42.0222540" lon="-6.4354240">
        <ele>923.0</ele>
        <time>2019-08-16T09:22:50Z</time>
      </trkpt>
      <trkpt lat="42.0222340" lon="-6.4354860">
        <ele>923.0</ele>
        <time>2019-08-16T09:22:51Z</time>
      </trkpt>
      <trkpt lat="42.0222160" lon="-6.4355530">
        <ele>923.0</ele>
        <time>2019-08-16T09:22:52Z</time>
      </trkpt>
      <trkpt lat="42.0222000" lon="-6.4356240">
        <ele>923.0</ele>
        <time>2019-08-16T09:22:53Z</time>
      </trkpt>
      <trkpt lat="42.0221870" lon="-6.4356970">
        <ele>923.0</ele>
        <time>2019-08-16T09:22:54Z</time>
      </trkpt>
      <trkpt lat="42.0221750" lon="-6.4357720">
        <ele>923.0</ele>
        <time>2019-08-16T09:22:55Z</time>
      </trkpt>
      <trkpt lat="42.0221650" lon="-6.4358480">
        <ele>922.9</ele>
        <time>2019-08-16T09:22:56Z</time>
      </trkpt>
      <trkpt lat="42.0221560" lon="-6.4359230">
        <ele>922.9</ele>
        <time>2019-08-16T09:22:57Z</time>
      </trkpt>
      <trkpt lat="42.0221470" lon="-6.4359990">
        <ele>922.7</ele>
        <time>2019-08-16T09:22:58Z</time>
      </trkpt>
      <trkpt lat="42.0221390" lon="-6.4360770">
        <ele>922.5</ele>
        <time>2019-08-16T09:22:59Z</time>
      </trkpt>
      <trkpt lat="42.0221330" lon="-6.4361580">
        <ele>922.3</ele>
        <time>2019-08-16T09:23:00Z</time>
      </trkpt>
      <trkpt lat="42.0221270" lon="-6.4362370">
        <ele>922.2</ele>
        <time>2019-08-16T09:23:01Z</time>
      </trkpt>
      <trkpt lat="42.0221210" lon="-6.4363170">
        <ele>922.0</ele>
        <time>2019-08-16T09:23:02Z</time>
      </trkpt>
      <trkpt lat="42.0221150" lon="-6.4363960">
        <ele>921.9</ele>
        <time>2019-08-16T09:23:03Z</time>
      </trkpt>
      <trkpt lat="42.0221070" lon="-6.4364760">
        <ele>921.7</ele>
        <time>2019-08-16T09:23:04Z</time>
      </trkpt>
      <trkpt lat="42.0221000" lon="-6.4365560">
        <ele>921.6</ele>
        <time>2019-08-16T09:23:05Z</time>
      </trkpt>
      <trkpt lat="42.0220930" lon="-6.4366360">
        <ele>921.3</ele>
        <time>2019-08-16T09:23:06Z</time>
      </trkpt>
      <trkpt lat="42.0220860" lon="-6.4367170">
        <ele>921.1</ele>
        <time>2019-08-16T09:23:07Z</time>
      </trkpt>
      <trkpt lat="42.0220790" lon="-6.4367960">
        <ele>920.9</ele>
        <time>2019-08-16T09:23:08Z</time>
      </trkpt>
      <trkpt lat="42.0220720" lon="-6.4368740">
        <ele>920.7</ele>
        <time>2019-08-16T09:23:09Z</time>
      </trkpt>
      <trkpt lat="42.0220640" lon="-6.4369520">
        <ele>920.5</ele>
        <time>2019-08-16T09:23:10Z</time>
      </trkpt>
      <trkpt lat="42.0220600" lon="-6.4370290">
        <ele>920.3</ele>
        <time>2019-08-16T09:23:11Z</time>
      </trkpt>
      <trkpt lat="42.0220570" lon="-6.4371050">
        <ele>920.1</ele>
        <time>2019-08-16T09:23:12Z</time>
      </trkpt>
      <trkpt lat="42.0220570" lon="-6.4371790">
        <ele>919.9</ele>
        <time>2019-08-16T09:23:13Z</time>
      </trkpt>
      <trkpt lat="42.0220580" lon="-6.4372530">
        <ele>919.8</ele>
        <time>2019-08-16T09:23:14Z</time>
      </trkpt>
      <trkpt lat="42.0220590" lon="-6.4373280">
        <ele>919.6</ele>
        <time>2019-08-16T09:23:15Z</time>
      </trkpt>
      <trkpt lat="42.0220580" lon="-6.4374030">
        <ele>919.4</ele>
        <time>2019-08-16T09:23:16Z</time>
      </trkpt>
      <trkpt lat="42.0220590" lon="-6.4374780">
        <ele>919.2</ele>
        <time>2019-08-16T09:23:17Z</time>
      </trkpt>
      <trkpt lat="42.0220580" lon="-6.4375560">
        <ele>919.0</ele>
        <time>2019-08-16T09:23:18Z</time>
      </trkpt>
      <trkpt lat="42.0220560" lon="-6.4376330">
        <ele>918.8</ele>
        <time>2019-08-16T09:23:19Z</time>
      </trkpt>
      <trkpt lat="42.0220520" lon="-6.4377070">
        <ele>918.6</ele>
        <time>2019-08-16T09:23:20Z</time>
      </trkpt>
      <trkpt lat="42.0220460" lon="-6.4377790">
        <ele>918.4</ele>
        <time>2019-08-16T09:23:21Z</time>
      </trkpt>
      <trkpt lat="42.0220360" lon="-6.4378530">
        <ele>918.2</ele>
        <time>2019-08-16T09:23:22Z</time>
      </trkpt>
      <trkpt lat="42.0220210" lon="-6.4379270">
        <ele>918.1</ele>
        <time>2019-08-16T09:23:23Z</time>
      </trkpt>
      <trkpt lat="42.0219990" lon="-6.4380000">
        <ele>917.9</ele>
        <time>2019-08-16T09:23:24Z</time>
      </trkpt>
      <trkpt lat="42.0219680" lon="-6.4380660">
        <ele>917.8</ele>
        <time>2019-08-16T09:23:25Z</time>
      </trkpt>
      <trkpt lat="42.0219330" lon="-6.4381260">
        <ele>917.5</ele>
        <time>2019-08-16T09:23:26Z</time>
      </trkpt>
      <trkpt lat="42.0219060" lon="-6.4381760">
        <ele>917.3</ele>
        <time>2019-08-16T09:23:27Z</time>
      </trkpt>
      <trkpt lat="42.0218900" lon="-6.4382170">
        <ele>917.2</ele>
        <time>2019-08-16T09:23:28Z</time>
      </trkpt>
      <trkpt lat="42.0218810" lon="-6.4382690">
        <ele>917.1</ele>
        <time>2019-08-16T09:23:30Z</time>
      </trkpt>
      <trkpt lat="42.0218780" lon="-6.4383070">
        <ele>917.1</ele>
        <time>2019-08-16T09:23:33Z</time>
      </trkpt>
      <trkpt lat="42.0218850" lon="-6.4382810">
        <ele>917.0</ele>
        <time>2019-08-16T09:23:40Z</time>
      </trkpt>
      <trkpt lat="42.0218880" lon="-6.4382590">
        <ele>917.0</ele>
        <time>2019-08-16T09:23:48Z</time>
      </trkpt>
      <trkpt lat="42.0218670" lon="-6.4382070">
        <ele>917.0</ele>
        <time>2019-08-16T09:24:22Z</time>
      </trkpt>
      <trkpt lat="42.0218830" lon="-6.4382290">
        <ele>916.9</ele>
        <time>2019-08-16T09:24:29Z</time>
      </trkpt>
      <trkpt lat="42.0218900" lon="-6.4382720">
        <ele>916.9</ele>
        <time>2019-08-16T09:24:33Z</time>
      </trkpt>
      <trkpt lat="42.0218960" lon="-6.4382870">
        <ele>916.9</ele>
        <time>2019-08-16T09:24:41Z</time>
      </trkpt>
      <trkpt lat="42.0219100" lon="-6.4382940">
        <ele>916.8</ele>
        <time>2019-08-16T09:24:48Z</time>
      </trkpt>
      <trkpt lat="42.0219060" lon="-6.4383400">
        <ele>916.8</ele>
        <time>2019-08-16T09:24:50Z</time>
      </trkpt>
      <trkpt lat="42.0219010" lon="-6.4383770">
        <ele>916.8</ele>
        <time>2019-08-16T09:24:51Z</time>
      </trkpt>
      <trkpt lat="42.0218970" lon="-6.4384210">
        <ele>916.7</ele>
        <time>2019-08-16T09:24:52Z</time>
      </trkpt>
      <trkpt lat="42.0218950" lon="-6.4384710">
        <ele>916.7</ele>
        <time>2019-08-16T09:24:53Z</time>
      </trkpt>
      <trkpt lat="42.0218940" lon="-6.4385300">
        <ele>916.6</ele>
        <time>2019-08-16T09:24:54Z</time>
      </trkpt>
      <trkpt lat="42.0218890" lon="-6.4385890">
        <ele>916.4</ele>
        <time>2019-08-16T09:24:55Z</time>
      </trkpt>
      <trkpt lat="42.0218820" lon="-6.4386520">
        <ele>916.1</ele>
        <time>2019-08-16T09:24:56Z</time>
      </trkpt>
      <trkpt lat="42.0218730" lon="-6.4387180">
        <ele>915.9</ele>
        <time>2019-08-16T09:24:57Z</time>
      </trkpt>
      <trkpt lat="42.0218620" lon="-6.4387870">
        <ele>915.7</ele>
        <time>2019-08-16T09:24:58Z</time>
      </trkpt>
      <trkpt lat="42.0218490" lon="-6.4388600">
        <ele>915.4</ele>
        <time>2019-08-16T09:24:59Z</time>
      </trkpt>
      <trkpt lat="42.0218370" lon="-6.4389290">
        <ele>915.1</ele>
        <time>2019-08-16T09:25:00Z</time>
      </trkpt>
      <trkpt lat="42.0218280" lon="-6.4389920">
        <ele>914.9</ele>
        <time>2019-08-16T09:25:01Z</time>
      </trkpt>
      <trkpt lat="42.0218200" lon="-6.4390510">
        <ele>914.7</ele>
        <time>2019-08-16T09:25:02Z</time>
      </trkpt>
      <trkpt lat="42.0218100" lon="-6.4391050">
        <ele>914.5</ele>
        <time>2019-08-16T09:25:03Z</time>
      </trkpt>
      <trkpt lat="42.0217940" lon="-6.4391590">
        <ele>914.3</ele>
        <time>2019-08-16T09:25:04Z</time>
      </trkpt>
      <trkpt lat="42.0217740" lon="-6.4392150">
        <ele>914.1</ele>
        <time>2019-08-16T09:25:05Z</time>
      </trkpt>
      <trkpt lat="42.0217570" lon="-6.4392780">
        <ele>913.7</ele>
        <time>2019-08-16T09:25:06Z</time>
      </trkpt>
      <trkpt lat="42.0217470" lon="-6.4393480">
        <ele>913.3</ele>
        <time>2019-08-16T09:25:07Z</time>
      </trkpt>
      <trkpt lat="42.0217360" lon="-6.4394210">
        <ele>913.0</ele>
        <time>2019-08-16T09:25:08Z</time>
      </trkpt>
      <trkpt lat="42.0217200" lon="-6.4394910">
        <ele>912.6</ele>
        <time>2019-08-16T09:25:09Z</time>
      </trkpt>
      <trkpt lat="42.0216920" lon="-6.4395530">
        <ele>912.3</ele>
        <time>2019-08-16T09:25:10Z</time>
      </trkpt>
      <trkpt lat="42.0216560" lon="-6.4396120">
        <ele>911.9</ele>
        <time>2019-08-16T09:25:11Z</time>
      </trkpt>
      <trkpt lat="42.0216150" lon="-6.4396730">
        <ele>911.5</ele>
        <time>2019-08-16T09:25:12Z</time>
      </trkpt>
      <trkpt lat="42.0215780" lon="-6.4397430">
        <ele>910.9</ele>
        <time>2019-08-16T09:25:13Z</time>
      </trkpt>
      <trkpt lat="42.0215500" lon="-6.4398210">
        <ele>910.4</ele>
        <time>2019-08-16T09:25:14Z</time>
      </trkpt>
      <trkpt lat="42.0215340" lon="-6.4398970">
        <ele>909.9</ele>
        <time>2019-08-16T09:25:15Z</time>
      </trkpt>
      <trkpt lat="42.0215230" lon="-6.4399730">
        <ele>909.5</ele>
        <time>2019-08-16T09:25:16Z</time>
      </trkpt>
      <trkpt lat="42.0215090" lon="-6.4400500">
        <ele>909.1</ele>
        <time>2019-08-16T09:25:17Z</time>
      </trkpt>
      <trkpt lat="42.0214840" lon="-6.4401310">
        <ele>907.8</ele>
        <time>2019-08-16T09:25:18Z</time>
      </trkpt>
      <trkpt lat="42.0214490" lon="-6.4402130">
        <ele>907.0</ele>
        <time>2019-08-16T09:25:19Z</time>
      </trkpt>
      <trkpt lat="42.0214140" lon="-6.4402920">
        <ele>906.2</ele>
        <time>2019-08-16T09:25:20Z</time>
      </trkpt>
      <trkpt lat="42.0213890" lon="-6.4403670">
        <ele>906.0</ele>
        <time>2019-08-16T09:25:21Z</time>
      </trkpt>
      <trkpt lat="42.0213760" lon="-6.4404460">
        <ele>905.8</ele>
        <time>2019-08-16T09:25:22Z</time>
      </trkpt>
      <trkpt lat="42.0213740" lon="-6.4405250">
        <ele>905.6</ele>
        <time>2019-08-16T09:25:23Z</time>
      </trkpt>
      <trkpt lat="42.0213780" lon="-6.4406000">
        <ele>905.5</ele>
        <time>2019-08-16T09:25:24Z</time>
      </trkpt>
      <trkpt lat="42.0213820" lon="-6.4406720">
        <ele>905.3</ele>
        <time>2019-08-16T09:25:25Z</time>
      </trkpt>
      <trkpt lat="42.0213900" lon="-6.4407410">
        <ele>905.2</ele>
        <time>2019-08-16T09:25:26Z</time>
      </trkpt>
      <trkpt lat="42.0214020" lon="-6.4408120">
        <ele>905.0</ele>
        <time>2019-08-16T09:25:27Z</time>
      </trkpt>
      <trkpt lat="42.0214180" lon="-6.4408850">
        <ele>904.7</ele>
        <time>2019-08-16T09:25:28Z</time>
      </trkpt>
      <trkpt lat="42.0214370" lon="-6.4409570">
        <ele>904.6</ele>
        <time>2019-08-16T09:25:29Z</time>
      </trkpt>
      <trkpt lat="42.0214580" lon="-6.4410310">
        <ele>904.4</ele>
        <time>2019-08-16T09:25:30Z</time>
      </trkpt>
      <trkpt lat="42.0214850" lon="-6.4411080">
        <ele>904.1</ele>
        <time>2019-08-16T09:25:31Z</time>
      </trkpt>
      <trkpt lat="42.0215250" lon="-6.4411880">
        <ele>903.9</ele>
        <time>2019-08-16T09:25:32Z</time>
      </trkpt>
      <trkpt lat="42.0215730" lon="-6.4412660">
        <ele>903.7</ele>
        <time>2019-08-16T09:25:33Z</time>
      </trkpt>
      <trkpt lat="42.0216210" lon="-6.4413480">
        <ele>903.4</ele>
        <time>2019-08-16T09:25:34Z</time>
      </trkpt>
      <trkpt lat="42.0216540" lon="-6.4414300">
        <ele>902.8</ele>
        <time>2019-08-16T09:25:35Z</time>
      </trkpt>
      <trkpt lat="42.0216700" lon="-6.4415090">
        <ele>902.4</ele>
        <time>2019-08-16T09:25:36Z</time>
      </trkpt>
      <trkpt lat="42.0216670" lon="-6.4415760">
        <ele>901.8</ele>
        <time>2019-08-16T09:25:37Z</time>
      </trkpt>
      <trkpt lat="42.0216470" lon="-6.4416310">
        <ele>901.4</ele>
        <time>2019-08-16T09:25:38Z</time>
      </trkpt>
      <trkpt lat="42.0216180" lon="-6.4416760">
        <ele>901.0</ele>
        <time>2019-08-16T09:25:39Z</time>
      </trkpt>
      <trkpt lat="42.0215850" lon="-6.4417180">
        <ele>900.7</ele>
        <time>2019-08-16T09:25:40Z</time>
      </trkpt>
      <trkpt lat="42.0215530" lon="-6.4417610">
        <ele>900.4</ele>
        <time>2019-08-16T09:25:41Z</time>
      </trkpt>
      <trkpt lat="42.0215280" lon="-6.4418090">
        <ele>900.2</ele>
        <time>2019-08-16T09:25:42Z</time>
      </trkpt>
      <trkpt lat="42.0215050" lon="-6.4418640">
        <ele>900.0</ele>
        <time>2019-08-16T09:25:43Z</time>
      </trkpt>
      <trkpt lat="42.0214880" lon="-6.4419240">
        <ele>899.8</ele>
        <time>2019-08-16T09:25:44Z</time>
      </trkpt>
      <trkpt lat="42.0214770" lon="-6.4419880">
        <ele>899.6</ele>
        <time>2019-08-16T09:25:45Z</time>
      </trkpt>
      <trkpt lat="42.0214710" lon="-6.4420570">
        <ele>899.4</ele>
        <time>2019-08-16T09:25:46Z</time>
      </trkpt>
      <trkpt lat="42.0214650" lon="-6.4421270">
        <ele>899.1</ele>
        <time>2019-08-16T09:25:47Z</time>
      </trkpt>
      <trkpt lat="42.0214570" lon="-6.4421980">
        <ele>898.6</ele>
        <time>2019-08-16T09:25:48Z</time>
      </trkpt>
      <trkpt lat="42.0214470" lon="-6.4422700">
        <ele>898.2</ele>
        <time>2019-08-16T09:25:49Z</time>
      </trkpt>
      <trkpt lat="42.0214360" lon="-6.4423420">
        <ele>897.9</ele>
        <time>2019-08-16T09:25:50Z</time>
      </trkpt>
      <trkpt lat="42.0214270" lon="-6.4424160">
        <ele>897.5</ele>
        <time>2019-08-16T09:25:51Z</time>
      </trkpt>
      <trkpt lat="42.0214150" lon="-6.4424980">
        <ele>896.9</ele>
        <time>2019-08-16T09:25:52Z</time>
      </trkpt>
      <trkpt lat="42.0214030" lon="-6.4425880">
        <ele>896.2</ele>
        <time>2019-08-16T09:25:53Z</time>
      </trkpt>
      <trkpt lat="42.0213880" lon="-6.4426890">
        <ele>895.2</ele>
        <time>2019-08-16T09:25:54Z</time>
      </trkpt>
      <trkpt lat="42.0213690" lon="-6.4427970">
        <ele>894.1</ele>
        <time>2019-08-16T09:25:55Z</time>
      </trkpt>
      <trkpt lat="42.0213490" lon="-6.4429090">
        <ele>892.9</ele>
        <time>2019-08-16T09:25:56Z</time>
      </trkpt>
      <trkpt lat="42.0213340" lon="-6.4430240">
        <ele>891.7</ele>
        <time>2019-08-16T09:25:57Z</time>
      </trkpt>
      <trkpt lat="42.0213270" lon="-6.4431400">
        <ele>890.6</ele>
        <time>2019-08-16T09:25:58Z</time>
      </trkpt>
      <trkpt lat="42.0213230" lon="-6.4432550">
        <ele>889.5</ele>
        <time>2019-08-16T09:25:59Z</time>
      </trkpt>
      <trkpt lat="42.0213150" lon="-6.4433670">
        <ele>888.5</ele>
        <time>2019-08-16T09:26:00Z</time>
      </trkpt>
      <trkpt lat="42.0213070" lon="-6.4434780">
        <ele>887.5</ele>
        <time>2019-08-16T09:26:01Z</time>
      </trkpt>
      <trkpt lat="42.0213010" lon="-6.4435830">
        <ele>886.9</ele>
        <time>2019-08-16T09:26:02Z</time>
      </trkpt>
      <trkpt lat="42.0213020" lon="-6.4436820">
        <ele>886.3</ele>
        <time>2019-08-16T09:26:03Z</time>
      </trkpt>
      <trkpt lat="42.0213110" lon="-6.4437770">
        <ele>885.7</ele>
        <time>2019-08-16T09:26:04Z</time>
      </trkpt>
      <trkpt lat="42.0213280" lon="-6.4438660">
        <ele>884.9</ele>
        <time>2019-08-16T09:26:05Z</time>
      </trkpt>
      <trkpt lat="42.0213560" lon="-6.4439500">
        <ele>884.1</ele>
        <time>2019-08-16T09:26:06Z</time>
      </trkpt>
      <trkpt lat="42.0213900" lon="-6.4440290">
        <ele>883.4</ele>
        <time>2019-08-16T09:26:07Z</time>
      </trkpt>
      <trkpt lat="42.0214320" lon="-6.4441070">
        <ele>882.8</ele>
        <time>2019-08-16T09:26:08Z</time>
      </trkpt>
      <trkpt lat="42.0214800" lon="-6.4441850">
        <ele>882.2</ele>
        <time>2019-08-16T09:26:09Z</time>
      </trkpt>
      <trkpt lat="42.0215300" lon="-6.4442660">
        <ele>881.6</ele>
        <time>2019-08-16T09:26:10Z</time>
      </trkpt>
      <trkpt lat="42.0215790" lon="-6.4443520">
        <ele>880.9</ele>
        <time>2019-08-16T09:26:11Z</time>
      </trkpt>
      <trkpt lat="42.0216300" lon="-6.4444460">
        <ele>880.0</ele>
        <time>2019-08-16T09:26:12Z</time>
      </trkpt>
      <trkpt lat="42.0216810" lon="-6.4445490">
        <ele>878.8</ele>
        <time>2019-08-16T09:26:13Z</time>
      </trkpt>
      <trkpt lat="42.0217290" lon="-6.4446620">
        <ele>877.4</ele>
        <time>2019-08-16T09:26:14Z</time>
      </trkpt>
      <trkpt lat="42.0217730" lon="-6.4447810">
        <ele>875.8</ele>
        <time>2019-08-16T09:26:15Z</time>
      </trkpt>
      <trkpt lat="42.0218150" lon="-6.4449070">
        <ele>874.1</ele>
        <time>2019-08-16T09:26:16Z</time>
      </trkpt>
      <trkpt lat="42.0218570" lon="-6.4450350">
        <ele>872.4</ele>
        <time>2019-08-16T09:26:17Z</time>
      </trkpt>
      <trkpt lat="42.0218990" lon="-6.4451650">
        <ele>870.9</ele>
        <time>2019-08-16T09:26:18Z</time>
      </trkpt>
      <trkpt lat="42.0219370" lon="-6.4452940">
        <ele>869.7</ele>
        <time>2019-08-16T09:26:19Z</time>
      </trkpt>
      <trkpt lat="42.0219700" lon="-6.4454150">
        <ele>868.8</ele>
        <time>2019-08-16T09:26:20Z</time>
      </trkpt>
      <trkpt lat="42.0219970" lon="-6.4455310">
        <ele>867.9</ele>
        <time>2019-08-16T09:26:21Z</time>
      </trkpt>
      <trkpt lat="42.0220200" lon="-6.4456430">
        <ele>866.7</ele>
        <time>2019-08-16T09:26:22Z</time>
      </trkpt>
      <trkpt lat="42.0220400" lon="-6.4457510">
        <ele>865.7</ele>
        <time>2019-08-16T09:26:23Z</time>
      </trkpt>
      <trkpt lat="42.0220560" lon="-6.4458550">
        <ele>864.8</ele>
        <time>2019-08-16T09:26:24Z</time>
      </trkpt>
      <trkpt lat="42.0220750" lon="-6.4459580">
        <ele>863.8</ele>
        <time>2019-08-16T09:26:25Z</time>
      </trkpt>
      <trkpt lat="42.0220990" lon="-6.4460540">
        <ele>863.0</ele>
        <time>2019-08-16T09:26:26Z</time>
      </trkpt>
      <trkpt lat="42.0221310" lon="-6.4461450">
        <ele>862.2</ele>
        <time>2019-08-16T09:26:27Z</time>
      </trkpt>
      <trkpt lat="42.0221700" lon="-6.4462320">
        <ele>861.6</ele>
        <time>2019-08-16T09:26:28Z</time>
      </trkpt>
      <trkpt lat="42.0222120" lon="-6.4463180">
        <ele>861.2</ele>
        <time>2019-08-16T09:26:29Z</time>
      </trkpt>
      <trkpt lat="42.0222550" lon="-6.4464050">
        <ele>860.7</ele>
        <time>2019-08-16T09:26:30Z</time>
      </trkpt>
      <trkpt lat="42.0223010" lon="-6.4464920">
        <ele>860.2</ele>
        <time>2019-08-16T09:26:31Z</time>
      </trkpt>
      <trkpt lat="42.0223470" lon="-6.4465790">
        <ele>859.4</ele>
        <time>2019-08-16T09:26:32Z</time>
      </trkpt>
      <trkpt lat="42.0223870" lon="-6.4466680">
        <ele>858.9</ele>
        <time>2019-08-16T09:26:33Z</time>
      </trkpt>
      <trkpt lat="42.0224200" lon="-6.4467580">
        <ele>858.6</ele>
        <time>2019-08-16T09:26:34Z</time>
      </trkpt>
      <trkpt lat="42.0224460" lon="-6.4468480">
        <ele>858.4</ele>
        <time>2019-08-16T09:26:35Z</time>
      </trkpt>
      <trkpt lat="42.0224610" lon="-6.4469390">
        <ele>858.2</ele>
        <time>2019-08-16T09:26:36Z</time>
      </trkpt>
      <trkpt lat="42.0224610" lon="-6.4470340">
        <ele>858.0</ele>
        <time>2019-08-16T09:26:37Z</time>
      </trkpt>
      <trkpt lat="42.0224460" lon="-6.4471310">
        <ele>857.8</ele>
        <time>2019-08-16T09:26:38Z</time>
      </trkpt>
      <trkpt lat="42.0224200" lon="-6.4472240">
        <ele>857.7</ele>
        <time>2019-08-16T09:26:39Z</time>
      </trkpt>
      <trkpt lat="42.0223920" lon="-6.4473140">
        <ele>857.6</ele>
        <time>2019-08-16T09:26:40Z</time>
      </trkpt>
      <trkpt lat="42.0223660" lon="-6.4474050">
        <ele>857.5</ele>
        <time>2019-08-16T09:26:41Z</time>
      </trkpt>
      <trkpt lat="42.0223450" lon="-6.4474960">
        <ele>857.4</ele>
        <time>2019-08-16T09:26:42Z</time>
      </trkpt>
      <trkpt lat="42.0223240" lon="-6.4475860">
        <ele>857.3</ele>
        <time>2019-08-16T09:26:43Z</time>
      </trkpt>
      <trkpt lat="42.0223060" lon="-6.4476720">
        <ele>857.2</ele>
        <time>2019-08-16T09:26:44Z</time>
      </trkpt>
      <trkpt lat="42.0222910" lon="-6.4477540">
        <ele>857.1</ele>
        <time>2019-08-16T09:26:45Z</time>
      </trkpt>
      <trkpt lat="42.0222770" lon="-6.4478340">
        <ele>856.9</ele>
        <time>2019-08-16T09:26:46Z</time>
      </trkpt>
      <trkpt lat="42.0222650" lon="-6.4479120">
        <ele>856.7</ele>
        <time>2019-08-16T09:26:47Z</time>
      </trkpt>
      <trkpt lat="42.0222540" lon="-6.4479880">
        <ele>856.5</ele>
        <time>2019-08-16T09:26:48Z</time>
      </trkpt>
      <trkpt lat="42.0222410" lon="-6.4480600">
        <ele>856.4</ele>
        <time>2019-08-16T09:26:49Z</time>
      </trkpt>
      <trkpt lat="42.0222240" lon="-6.4481300">
        <ele>856.4</ele>
        <time>2019-08-16T09:26:50Z</time>
      </trkpt>
      <trkpt lat="42.0222100" lon="-6.4482050">
        <ele>856.3</ele>
        <time>2019-08-16T09:26:51Z</time>
      </trkpt>
      <trkpt lat="42.0222010" lon="-6.4482800">
        <ele>856.3</ele>
        <time>2019-08-16T09:26:52Z</time>
      </trkpt>
      <trkpt lat="42.0221910" lon="-6.4483470">
        <ele>856.3</ele>
        <time>2019-08-16T09:26:53Z</time>
      </trkpt>
      <trkpt lat="42.0221820" lon="-6.4484100">
        <ele>856.2</ele>
        <time>2019-08-16T09:26:54Z</time>
      </trkpt>
      <trkpt lat="42.0221730" lon="-6.4484640">
        <ele>856.2</ele>
        <time>2019-08-16T09:26:55Z</time>
      </trkpt>
      <trkpt lat="42.0221680" lon="-6.4485050">
        <ele>856.2</ele>
        <time>2019-08-16T09:26:56Z</time>
      </trkpt>
      <trkpt lat="42.0221640" lon="-6.4485170">
        <ele>856.2</ele>
        <time>2019-08-16T09:26:59Z</time>
      </trkpt>
      <trkpt lat="42.0221530" lon="-6.4486190">
        <ele>856.3</ele>
        <time>2019-08-16T09:27:12Z</time>
      </trkpt>
      <trkpt lat="42.0221450" lon="-6.4486600">
        <ele>856.3</ele>
        <time>2019-08-16T09:27:13Z</time>
      </trkpt>
      <trkpt lat="42.0221370" lon="-6.4487040">
        <ele>856.3</ele>
        <time>2019-08-16T09:27:14Z</time>
      </trkpt>
      <trkpt lat="42.0221280" lon="-6.4487520">
        <ele>856.3</ele>
        <time>2019-08-16T09:27:15Z</time>
      </trkpt>
      <trkpt lat="42.0221210" lon="-6.4488030">
        <ele>856.3</ele>
        <time>2019-08-16T09:27:16Z</time>
      </trkpt>
      <trkpt lat="42.0221140" lon="-6.4488600">
        <ele>856.3</ele>
        <time>2019-08-16T09:27:17Z</time>
      </trkpt>
      <trkpt lat="42.0221080" lon="-6.4489180">
        <ele>856.4</ele>
        <time>2019-08-16T09:27:18Z</time>
      </trkpt>
      <trkpt lat="42.0221010" lon="-6.4489770">
        <ele>856.4</ele>
        <time>2019-08-16T09:27:19Z</time>
      </trkpt>
      <trkpt lat="42.0220930" lon="-6.4490370">
        <ele>856.4</ele>
        <time>2019-08-16T09:27:20Z</time>
      </trkpt>
      <trkpt lat="42.0220860" lon="-6.4490980">
        <ele>856.4</ele>
        <time>2019-08-16T09:27:21Z</time>
      </trkpt>
      <trkpt lat="42.0220820" lon="-6.4491550">
        <ele>856.5</ele>
        <time>2019-08-16T09:27:22Z</time>
      </trkpt>
      <trkpt lat="42.0220780" lon="-6.4492090">
        <ele>856.5</ele>
        <time>2019-08-16T09:27:23Z</time>
      </trkpt>
      <trkpt lat="42.0220730" lon="-6.4492590">
        <ele>856.5</ele>
        <time>2019-08-16T09:27:24Z</time>
      </trkpt>
      <trkpt lat="42.0220700" lon="-6.4493070">
        <ele>856.5</ele>
        <time>2019-08-16T09:27:25Z</time>
      </trkpt>
      <trkpt lat="42.0220700" lon="-6.4493600">
        <ele>856.6</ele>
        <time>2019-08-16T09:27:26Z</time>
      </trkpt>
      <trkpt lat="42.0220710" lon="-6.4494150">
        <ele>856.6</ele>
        <time>2019-08-16T09:27:27Z</time>
      </trkpt>
      <trkpt lat="42.0220740" lon="-6.4494750">
        <ele>856.6</ele>
        <time>2019-08-16T09:27:28Z</time>
      </trkpt>
      <trkpt lat="42.0220770" lon="-6.4495380">
        <ele>856.6</ele>
        <time>2019-08-16T09:27:29Z</time>
      </trkpt>
      <trkpt lat="42.0220820" lon="-6.4495960">
        <ele>856.6</ele>
        <time>2019-08-16T09:27:30Z</time>
      </trkpt>
      <trkpt lat="42.0220900" lon="-6.4496560">
        <ele>856.7</ele>
        <time>2019-08-16T09:27:31Z</time>
      </trkpt>
      <trkpt lat="42.0220990" lon="-6.4497150">
        <ele>856.7</ele>
        <time>2019-08-16T09:27:32Z</time>
      </trkpt>
      <trkpt lat="42.0221110" lon="-6.4497760">
        <ele>856.7</ele>
        <time>2019-08-16T09:27:33Z</time>
      </trkpt>
      <trkpt lat="42.0221260" lon="-6.4498390">
        <ele>856.7</ele>
        <time>2019-08-16T09:27:34Z</time>
      </trkpt>
      <trkpt lat="42.0221430" lon="-6.4499050">
        <ele>856.7</ele>
        <time>2019-08-16T09:27:35Z</time>
      </trkpt>
      <trkpt lat="42.0221610" lon="-6.4499720">
        <ele>856.6</ele>
        <time>2019-08-16T09:27:36Z</time>
      </trkpt>
      <trkpt lat="42.0221780" lon="-6.4500360">
        <ele>856.6</ele>
        <time>2019-08-16T09:27:37Z</time>
      </trkpt>
      <trkpt lat="42.0221900" lon="-6.4500940">
        <ele>856.6</ele>
        <time>2019-08-16T09:27:38Z</time>
      </trkpt>
      <trkpt lat="42.0222070" lon="-6.4501520">
        <ele>856.6</ele>
        <time>2019-08-16T09:27:39Z</time>
      </trkpt>
      <trkpt lat="42.0222250" lon="-6.4502140">
        <ele>856.6</ele>
        <time>2019-08-16T09:27:40Z</time>
      </trkpt>
      <trkpt lat="42.0222430" lon="-6.4502760">
        <ele>856.6</ele>
        <time>2019-08-16T09:27:41Z</time>
      </trkpt>
      <trkpt lat="42.0222630" lon="-6.4503340">
        <ele>856.6</ele>
        <time>2019-08-16T09:27:42Z</time>
      </trkpt>
      <trkpt lat="42.0222800" lon="-6.4503920">
        <ele>856.6</ele>
        <time>2019-08-16T09:27:43Z</time>
      </trkpt>
      <trkpt lat="42.0222960" lon="-6.4504500">
        <ele>856.6</ele>
        <time>2019-08-16T09:27:44Z</time>
      </trkpt>
      <trkpt lat="42.0223100" lon="-6.4505050">
        <ele>856.6</ele>
        <time>2019-08-16T09:27:45Z</time>
      </trkpt>
      <trkpt lat="42.0223230" lon="-6.4505580">
        <ele>856.6</ele>
        <time>2019-08-16T09:27:46Z</time>
      </trkpt>
      <trkpt lat="42.0223350" lon="-6.4506080">
        <ele>856.6</ele>
        <time>2019-08-16T09:27:47Z</time>
      </trkpt>
      <trkpt lat="42.0223460" lon="-6.4506550">
        <ele>856.7</ele>
        <time>2019-08-16T09:27:48Z</time>
      </trkpt>
      <trkpt lat="42.0223540" lon="-6.4507020">
        <ele>856.7</ele>
        <time>2019-08-16T09:27:49Z</time>
      </trkpt>
      <trkpt lat="42.0223600" lon="-6.4507470">
        <ele>856.8</ele>
        <time>2019-08-16T09:27:50Z</time>
      </trkpt>
      <trkpt lat="42.0223670" lon="-6.4507890">
        <ele>856.9</ele>
        <time>2019-08-16T09:27:51Z</time>
      </trkpt>
      <trkpt lat="42.0223740" lon="-6.4508300">
        <ele>857.1</ele>
        <time>2019-08-16T09:27:52Z</time>
      </trkpt>
      <trkpt lat="42.0223800" lon="-6.4508680">
        <ele>857.3</ele>
        <time>2019-08-16T09:27:53Z</time>
      </trkpt>
      <trkpt lat="42.0223850" lon="-6.4509050">
        <ele>857.5</ele>
        <time>2019-08-16T09:27:54Z</time>
      </trkpt>
      <trkpt lat="42.0223990" lon="-6.4509710">
        <ele>857.9</ele>
        <time>2019-08-16T09:27:56Z</time>
      </trkpt>
      <trkpt lat="42.0224120" lon="-6.4510320">
        <ele>858.4</ele>
        <time>2019-08-16T09:27:58Z</time>
      </trkpt>
      <trkpt lat="42.0224240" lon="-6.4510910">
        <ele>859.1</ele>
        <time>2019-08-16T09:28:00Z</time>
      </trkpt>
      <trkpt lat="42.0224330" lon="-6.4511390">
        <ele>859.6</ele>
        <time>2019-08-16T09:28:02Z</time>
      </trkpt>
      <trkpt lat="42.0224440" lon="-6.4511860">
        <ele>860.0</ele>
        <time>2019-08-16T09:28:04Z</time>
      </trkpt>
      <trkpt lat="42.0224550" lon="-6.4512320">
        <ele>860.4</ele>
        <time>2019-08-16T09:28:06Z</time>
      </trkpt>
      <trkpt lat="42.0224650" lon="-6.4512790">
        <ele>860.9</ele>
        <time>2019-08-16T09:28:08Z</time>
      </trkpt>
      <trkpt lat="42.0224740" lon="-6.4513250">
        <ele>861.3</ele>
        <time>2019-08-16T09:28:10Z</time>
      </trkpt>
      <trkpt lat="42.0224810" lon="-6.4513720">
        <ele>861.7</ele>
        <time>2019-08-16T09:28:12Z</time>
      </trkpt>
      <trkpt lat="42.0224930" lon="-6.4514160">
        <ele>862.1</ele>
        <time>2019-08-16T09:28:14Z</time>
      </trkpt>
      <trkpt lat="42.0225050" lon="-6.4514620">
        <ele>862.6</ele>
        <time>2019-08-16T09:28:16Z</time>
      </trkpt>
      <trkpt lat="42.0225190" lon="-6.4515070">
        <ele>863.1</ele>
        <time>2019-08-16T09:28:18Z</time>
      </trkpt>
      <trkpt lat="42.0225320" lon="-6.4515490">
        <ele>863.6</ele>
        <time>2019-08-16T09:28:20Z</time>
      </trkpt>
      <trkpt lat="42.0225510" lon="-6.4515900">
        <ele>864.1</ele>
        <time>2019-08-16T09:28:22Z</time>
      </trkpt>
      <trkpt lat="42.0225700" lon="-6.4516370">
        <ele>864.7</ele>
        <time>2019-08-16T09:28:24Z</time>
      </trkpt>
      <trkpt lat="42.0225870" lon="-6.4516840">
        <ele>865.3</ele>
        <time>2019-08-16T09:28:26Z</time>
      </trkpt>
      <trkpt lat="42.0226100" lon="-6.4517290">
        <ele>865.9</ele>
        <time>2019-08-16T09:28:28Z</time>
      </trkpt>
      <trkpt lat="42.0226320" lon="-6.4517720">
        <ele>866.5</ele>
        <time>2019-08-16T09:28:30Z</time>
      </trkpt>
      <trkpt lat="42.0226540" lon="-6.4518130">
        <ele>866.9</ele>
        <time>2019-08-16T09:28:32Z</time>
      </trkpt>
      <trkpt lat="42.0226770" lon="-6.4518530">
        <ele>867.4</ele>
        <time>2019-08-16T09:28:34Z</time>
      </trkpt>
      <trkpt lat="42.0227030" lon="-6.4518900">
        <ele>867.8</ele>
        <time>2019-08-16T09:28:36Z</time>
      </trkpt>
      <trkpt lat="42.0227300" lon="-6.4519230">
        <ele>868.3</ele>
        <time>2019-08-16T09:28:38Z</time>
      </trkpt>
      <trkpt lat="42.0227550" lon="-6.4519580">
        <ele>868.7</ele>
        <time>2019-08-16T09:28:40Z</time>
      </trkpt>
      <trkpt lat="42.0227780" lon="-6.4519940">
        <ele>869.1</ele>
        <time>2019-08-16T09:28:42Z</time>
      </trkpt>
      <trkpt lat="42.0228010" lon="-6.4520290">
        <ele>869.5</ele>
        <time>2019-08-16T09:28:44Z</time>
      </trkpt>
      <trkpt lat="42.0228230" lon="-6.4520670">
        <ele>869.9</ele>
        <time>2019-08-16T09:28:46Z</time>
      </trkpt>
      <trkpt lat="42.0228460" lon="-6.4521080">
        <ele>870.3</ele>
        <time>2019-08-16T09:28:48Z</time>
      </trkpt>
      <trkpt lat="42.0228700" lon="-6.4521500">
        <ele>870.7</ele>
        <time>2019-08-16T09:28:50Z</time>
      </trkpt>
      <trkpt lat="42.0228970" lon="-6.4521930">
        <ele>871.2</ele>
        <time>2019-08-16T09:28:52Z</time>
      </trkpt>
      <trkpt lat="42.0229220" lon="-6.4522370">
        <ele>871.6</ele>
        <time>2019-08-16T09:28:54Z</time>
      </trkpt>
      <trkpt lat="42.0229470" lon="-6.4522850">
        <ele>871.9</ele>
        <time>2019-08-16T09:28:56Z</time>
      </trkpt>
      <trkpt lat="42.0229700" lon="-6.4523380">
        <ele>872.3</ele>
        <time>2019-08-16T09:28:58Z</time>
      </trkpt>
      <trkpt lat="42.0229880" lon="-6.4523960">
        <ele>872.6</ele>
        <time>2019-08-16T09:29:00Z</time>
      </trkpt>
      <trkpt lat="42.0230040" lon="-6.4524580">
        <ele>873.0</ele>
        <time>2019-08-16T09:29:02Z</time>
      </trkpt>
      <trkpt lat="42.0230200" lon="-6.4525170">
        <ele>873.3</ele>
        <time>2019-08-16T09:29:04Z</time>
      </trkpt>
      <trkpt lat="42.0230340" lon="-6.4525760">
        <ele>873.6</ele>
        <time>2019-08-16T09:29:06Z</time>
      </trkpt>
      <trkpt lat="42.0230450" lon="-6.4526380">
        <ele>874.0</ele>
        <time>2019-08-16T09:29:08Z</time>
      </trkpt>
      <trkpt lat="42.0230570" lon="-6.4527040">
        <ele>874.2</ele>
        <time>2019-08-16T09:29:10Z</time>
      </trkpt>
      <trkpt lat="42.0230660" lon="-6.4527720">
        <ele>874.4</ele>
        <time>2019-08-16T09:29:12Z</time>
      </trkpt>
      <trkpt lat="42.0230780" lon="-6.4528400">
        <ele>874.6</ele>
        <time>2019-08-16T09:29:14Z</time>
      </trkpt>
      <trkpt lat="42.0230900" lon="-6.4529090">
        <ele>874.8</ele>
        <time>2019-08-16T09:29:16Z</time>
      </trkpt>
      <trkpt lat="42.0231010" lon="-6.4529790">
        <ele>875.0</ele>
        <time>2019-08-16T09:29:18Z</time>
      </trkpt>
      <trkpt lat="42.0231130" lon="-6.4530460">
        <ele>875.3</ele>
        <time>2019-08-16T09:29:20Z</time>
      </trkpt>
      <trkpt lat="42.0231260" lon="-6.4531110">
        <ele>875.6</ele>
        <time>2019-08-16T09:29:22Z</time>
      </trkpt>
      <trkpt lat="42.0231410" lon="-6.4531740">
        <ele>875.9</ele>
        <time>2019-08-16T09:29:24Z</time>
      </trkpt>
      <trkpt lat="42.0231580" lon="-6.4532350">
        <ele>876.2</ele>
        <time>2019-08-16T09:29:26Z</time>
      </trkpt>
      <trkpt lat="42.0231780" lon="-6.4532940">
        <ele>876.5</ele>
        <time>2019-08-16T09:29:28Z</time>
      </trkpt>
      <trkpt lat="42.0232000" lon="-6.4533500">
        <ele>876.8</ele>
        <time>2019-08-16T09:29:30Z</time>
      </trkpt>
      <trkpt lat="42.0232230" lon="-6.4533980">
        <ele>877.0</ele>
        <time>2019-08-16T09:29:32Z</time>
      </trkpt>
      <trkpt lat="42.0232470" lon="-6.4534450">
        <ele>877.2</ele>
        <time>2019-08-16T09:29:34Z</time>
      </trkpt>
      <trkpt lat="42.0232730" lon="-6.4534900">
        <ele>877.5</ele>
        <time>2019-08-16T09:29:36Z</time>
      </trkpt>
      <trkpt lat="42.0233010" lon="-6.4535350">
        <ele>877.8</ele>
        <time>2019-08-16T09:29:38Z</time>
      </trkpt>
      <trkpt lat="42.0233270" lon="-6.4535820">
        <ele>878.1</ele>
        <time>2019-08-16T09:29:40Z</time>
      </trkpt>
      <trkpt lat="42.0233510" lon="-6.4536280">
        <ele>878.4</ele>
        <time>2019-08-16T09:29:42Z</time>
      </trkpt>
      <trkpt lat="42.0233730" lon="-6.4536730">
        <ele>878.6</ele>
        <time>2019-08-16T09:29:44Z</time>
      </trkpt>
      <trkpt lat="42.0233930" lon="-6.4537170">
        <ele>878.9</ele>
        <time>2019-08-16T09:29:46Z</time>
      </trkpt>
      <trkpt lat="42.0234100" lon="-6.4537610">
        <ele>879.1</ele>
        <time>2019-08-16T09:29:48Z</time>
      </trkpt>
      <trkpt lat="42.0234250" lon="-6.4538040">
        <ele>879.3</ele>
        <time>2019-08-16T09:29:50Z</time>
      </trkpt>
      <trkpt lat="42.0234400" lon="-6.4538500">
        <ele>879.5</ele>
        <time>2019-08-16T09:29:52Z</time>
      </trkpt>
      <trkpt lat="42.0234540" lon="-6.4538970">
        <ele>879.7</ele>
        <time>2019-08-16T09:29:54Z</time>
      </trkpt>
      <trkpt lat="42.0234680" lon="-6.4539440">
        <ele>880.1</ele>
        <time>2019-08-16T09:29:56Z</time>
      </trkpt>
      <trkpt lat="42.0234800" lon="-6.4539920">
        <ele>880.5</ele>
        <time>2019-08-16T09:29:58Z</time>
      </trkpt>
      <trkpt lat="42.0234920" lon="-6.4540400">
        <ele>880.9</ele>
        <time>2019-08-16T09:30:00Z</time>
      </trkpt>
      <trkpt lat="42.0235050" lon="-6.4540870">
        <ele>881.2</ele>
        <time>2019-08-16T09:30:02Z</time>
      </trkpt>
      <trkpt lat="42.0235180" lon="-6.4541350">
        <ele>881.5</ele>
        <time>2019-08-16T09:30:04Z</time>
      </trkpt>
      <trkpt lat="42.0235310" lon="-6.4541810">
        <ele>881.8</ele>
        <time>2019-08-16T09:30:06Z</time>
      </trkpt>
      <trkpt lat="42.0235400" lon="-6.4542270">
        <ele>882.1</ele>
        <time>2019-08-16T09:30:08Z</time>
      </trkpt>
      <trkpt lat="42.0235500" lon="-6.4542730">
        <ele>882.4</ele>
        <time>2019-08-16T09:30:10Z</time>
      </trkpt>
      <trkpt lat="42.0235610" lon="-6.4543180">
        <ele>882.7</ele>
        <time>2019-08-16T09:30:12Z</time>
      </trkpt>
      <trkpt lat="42.0235740" lon="-6.4543640">
        <ele>882.9</ele>
        <time>2019-08-16T09:30:14Z</time>
      </trkpt>
      <trkpt lat="42.0235880" lon="-6.4544100">
        <ele>883.2</ele>
        <time>2019-08-16T09:30:16Z</time>
      </trkpt>
      <trkpt lat="42.0236010" lon="-6.4544570">
        <ele>883.5</ele>
        <time>2019-08-16T09:30:18Z</time>
      </trkpt>
      <trkpt lat="42.0236120" lon="-6.4545060">
        <ele>883.7</ele>
        <time>2019-08-16T09:30:20Z</time>
      </trkpt>
      <trkpt lat="42.0236230" lon="-6.4545510">
        <ele>884.0</ele>
        <time>2019-08-16T09:30:22Z</time>
      </trkpt>
      <trkpt lat="42.0236370" lon="-6.4545950">
        <ele>884.2</ele>
        <time>2019-08-16T09:30:24Z</time>
      </trkpt>
      <trkpt lat="42.0236460" lon="-6.4546420">
        <ele>884.5</ele>
        <time>2019-08-16T09:30:26Z</time>
      </trkpt>
      <trkpt lat="42.0236560" lon="-6.4546890">
        <ele>884.8</ele>
        <time>2019-08-16T09:30:28Z</time>
      </trkpt>
      <trkpt lat="42.0236680" lon="-6.4547360">
        <ele>885.1</ele>
        <time>2019-08-16T09:30:30Z</time>
      </trkpt>
      <trkpt lat="42.0236770" lon="-6.4547810">
        <ele>885.4</ele>
        <time>2019-08-16T09:30:32Z</time>
      </trkpt>
      <trkpt lat="42.0236870" lon="-6.4548260">
        <ele>885.7</ele>
        <time>2019-08-16T09:30:34Z</time>
      </trkpt>
      <trkpt lat="42.0236970" lon="-6.4548710">
        <ele>886.0</ele>
        <time>2019-08-16T09:30:36Z</time>
      </trkpt>
      <trkpt lat="42.0237090" lon="-6.4549150">
        <ele>886.2</ele>
        <time>2019-08-16T09:30:38Z</time>
      </trkpt>
      <trkpt lat="42.0237200" lon="-6.4549600">
        <ele>886.5</ele>
        <time>2019-08-16T09:30:40Z</time>
      </trkpt>
      <trkpt lat="42.0237320" lon="-6.4550050">
        <ele>886.8</ele>
        <time>2019-08-16T09:30:42Z</time>
      </trkpt>
      <trkpt lat="42.0237430" lon="-6.4550490">
        <ele>887.1</ele>
        <time>2019-08-16T09:30:44Z</time>
      </trkpt>
      <trkpt lat="42.0237570" lon="-6.4550940">
        <ele>887.4</ele>
        <time>2019-08-16T09:30:46Z</time>
      </trkpt>
      <trkpt lat="42.0237680" lon="-6.4551400">
        <ele>887.8</ele>
        <time>2019-08-16T09:30:48Z</time>
      </trkpt>
      <trkpt lat="42.0237790" lon="-6.4551860">
        <ele>888.3</ele>
        <time>2019-08-16T09:30:50Z</time>
      </trkpt>
      <trkpt lat="42.0237910" lon="-6.4552340">
        <ele>888.6</ele>
        <time>2019-08-16T09:30:52Z</time>
      </trkpt>
      <trkpt lat="42.0238040" lon="-6.4552810">
        <ele>888.9</ele>
        <time>2019-08-16T09:30:54Z</time>
      </trkpt>
      <trkpt lat="42.0238150" lon="-6.4553280">
        <ele>889.2</ele>
        <time>2019-08-16T09:30:56Z</time>
      </trkpt>
      <trkpt lat="42.0238260" lon="-6.4553750">
        <ele>889.5</ele>
        <time>2019-08-16T09:30:58Z</time>
      </trkpt>
      <trkpt lat="42.0238380" lon="-6.4554190">
        <ele>889.7</ele>
        <time>2019-08-16T09:31:00Z</time>
      </trkpt>
      <trkpt lat="42.0238520" lon="-6.4554650">
        <ele>890.0</ele>
        <time>2019-08-16T09:31:02Z</time>
      </trkpt>
      <trkpt lat="42.0238610" lon="-6.4555110">
        <ele>890.3</ele>
        <time>2019-08-16T09:31:04Z</time>
      </trkpt>
      <trkpt lat="42.0238730" lon="-6.4555580">
        <ele>890.6</ele>
        <time>2019-08-16T09:31:06Z</time>
      </trkpt>
      <trkpt lat="42.0238860" lon="-6.4556030">
        <ele>890.9</ele>
        <time>2019-08-16T09:31:08Z</time>
      </trkpt>
      <trkpt lat="42.0238990" lon="-6.4556490">
        <ele>891.3</ele>
        <time>2019-08-16T09:31:10Z</time>
      </trkpt>
      <trkpt lat="42.0239120" lon="-6.4556950">
        <ele>891.7</ele>
        <time>2019-08-16T09:31:12Z</time>
      </trkpt>
      <trkpt lat="42.0239240" lon="-6.4557390">
        <ele>892.0</ele>
        <time>2019-08-16T09:31:14Z</time>
      </trkpt>
      <trkpt lat="42.0239350" lon="-6.4557770">
        <ele>892.3</ele>
        <time>2019-08-16T09:31:16Z</time>
      </trkpt>
      <trkpt lat="42.0239470" lon="-6.4558200">
        <ele>892.7</ele>
        <time>2019-08-16T09:31:18Z</time>
      </trkpt>
      <trkpt lat="42.0239580" lon="-6.4558610">
        <ele>893.0</ele>
        <time>2019-08-16T09:31:20Z</time>
      </trkpt>
      <trkpt lat="42.0239710" lon="-6.4559040">
        <ele>893.3</ele>
        <time>2019-08-16T09:31:22Z</time>
      </trkpt>
      <trkpt lat="42.0239840" lon="-6.4559470">
        <ele>893.6</ele>
        <time>2019-08-16T09:31:24Z</time>
      </trkpt>
      <trkpt lat="42.0239990" lon="-6.4559900">
        <ele>894.0</ele>
        <time>2019-08-16T09:31:26Z</time>
      </trkpt>
      <trkpt lat="42.0240140" lon="-6.4560300">
        <ele>894.3</ele>
        <time>2019-08-16T09:31:28Z</time>
      </trkpt>
      <trkpt lat="42.0240280" lon="-6.4560740">
        <ele>894.7</ele>
        <time>2019-08-16T09:31:30Z</time>
      </trkpt>
      <trkpt lat="42.0240460" lon="-6.4561130">
        <ele>895.0</ele>
        <time>2019-08-16T09:31:32Z</time>
      </trkpt>
      <trkpt lat="42.0240640" lon="-6.4561510">
        <ele>895.3</ele>
        <time>2019-08-16T09:31:34Z</time>
      </trkpt>
      <trkpt lat="42.0240800" lon="-6.4561880">
        <ele>895.5</ele>
        <time>2019-08-16T09:31:36Z</time>
      </trkpt>
      <trkpt lat="42.0240940" lon="-6.4562240">
        <ele>895.8</ele>
        <time>2019-08-16T09:31:38Z</time>
      </trkpt>
      <trkpt lat="42.0241130" lon="-6.4562630">
        <ele>896.0</ele>
        <time>2019-08-16T09:31:40Z</time>
      </trkpt>
      <trkpt lat="42.0241340" lon="-6.4563020">
        <ele>896.3</ele>
        <time>2019-08-16T09:31:42Z</time>
      </trkpt>
      <trkpt lat="42.0241560" lon="-6.4563430">
        <ele>896.7</ele>
        <time>2019-08-16T09:31:44Z</time>
      </trkpt>
      <trkpt lat="42.0241800" lon="-6.4563860">
        <ele>897.0</ele>
        <time>2019-08-16T09:31:46Z</time>
      </trkpt>
      <trkpt lat="42.0242030" lon="-6.4564290">
        <ele>897.3</ele>
        <time>2019-08-16T09:31:48Z</time>
      </trkpt>
      <trkpt lat="42.0242260" lon="-6.4564740">
        <ele>897.6</ele>
        <time>2019-08-16T09:31:50Z</time>
      </trkpt>
      <trkpt lat="42.0242520" lon="-6.4565160">
        <ele>897.9</ele>
        <time>2019-08-16T09:31:52Z</time>
      </trkpt>
      <trkpt lat="42.0242800" lon="-6.4565560">
        <ele>898.1</ele>
        <time>2019-08-16T09:31:54Z</time>
      </trkpt>
      <trkpt lat="42.0243070" lon="-6.4565960">
        <ele>898.3</ele>
        <time>2019-08-16T09:31:56Z</time>
      </trkpt>
      <trkpt lat="42.0243350" lon="-6.4566370">
        <ele>898.6</ele>
        <time>2019-08-16T09:31:58Z</time>
      </trkpt>
      <trkpt lat="42.0243670" lon="-6.4566730">
        <ele>898.8</ele>
        <time>2019-08-16T09:32:00Z</time>
      </trkpt>
      <trkpt lat="42.0244000" lon="-6.4567080">
        <ele>899.1</ele>
        <time>2019-08-16T09:32:02Z</time>
      </trkpt>
      <trkpt lat="42.0244330" lon="-6.4567430">
        <ele>899.4</ele>
        <time>2019-08-16T09:32:04Z</time>
      </trkpt>
      <trkpt lat="42.0244670" lon="-6.4567770">
        <ele>899.7</ele>
        <time>2019-08-16T09:32:06Z</time>
      </trkpt>
      <trkpt lat="42.0245020" lon="-6.4568110">
        <ele>900.1</ele>
        <time>2019-08-16T09:32:08Z</time>
      </trkpt>
      <trkpt lat="42.0245410" lon="-6.4568430">
        <ele>900.3</ele>
        <time>2019-08-16T09:32:10Z</time>
      </trkpt>
      <trkpt lat="42.0245820" lon="-6.4568740">
        <ele>900.6</ele>
        <time>2019-08-16T09:32:12Z</time>
      </trkpt>
      <trkpt lat="42.0246240" lon="-6.4569070">
        <ele>900.9</ele>
        <time>2019-08-16T09:32:14Z</time>
      </trkpt>
      <trkpt lat="42.0246670" lon="-6.4569390">
        <ele>901.2</ele>
        <time>2019-08-16T09:32:16Z</time>
      </trkpt>
      <trkpt lat="42.0247080" lon="-6.4569680">
        <ele>901.5</ele>
        <time>2019-08-16T09:32:18Z</time>
      </trkpt>
      <trkpt lat="42.0247490" lon="-6.4570000">
        <ele>901.8</ele>
        <time>2019-08-16T09:32:20Z</time>
      </trkpt>
      <trkpt lat="42.0247910" lon="-6.4570300">
        <ele>902.1</ele>
        <time>2019-08-16T09:32:22Z</time>
      </trkpt>
      <trkpt lat="42.0248340" lon="-6.4570590">
        <ele>902.4</ele>
        <time>2019-08-16T09:32:24Z</time>
      </trkpt>
      <trkpt lat="42.0248770" lon="-6.4570880">
        <ele>902.6</ele>
        <time>2019-08-16T09:32:26Z</time>
      </trkpt>
      <trkpt lat="42.0249170" lon="-6.4571230">
        <ele>902.9</ele>
        <time>2019-08-16T09:32:28Z</time>
      </trkpt>
      <trkpt lat="42.0249590" lon="-6.4571570">
        <ele>903.2</ele>
        <time>2019-08-16T09:32:30Z</time>
      </trkpt>
      <trkpt lat="42.0250010" lon="-6.4571910">
        <ele>903.4</ele>
        <time>2019-08-16T09:32:32Z</time>
      </trkpt>
      <trkpt lat="42.0250410" lon="-6.4572250">
        <ele>903.6</ele>
        <time>2019-08-16T09:32:34Z</time>
      </trkpt>
      <trkpt lat="42.0250810" lon="-6.4572600">
        <ele>903.8</ele>
        <time>2019-08-16T09:32:36Z</time>
      </trkpt>
      <trkpt lat="42.0251210" lon="-6.4572970">
        <ele>904.1</ele>
        <time>2019-08-16T09:32:38Z</time>
      </trkpt>
      <trkpt lat="42.0251610" lon="-6.4573370">
        <ele>904.3</ele>
        <time>2019-08-16T09:32:40Z</time>
      </trkpt>
      <trkpt lat="42.0252020" lon="-6.4573830">
        <ele>904.5</ele>
        <time>2019-08-16T09:32:42Z</time>
      </trkpt>
      <trkpt lat="42.0252240" lon="-6.4574070">
        <ele>904.6</ele>
        <time>2019-08-16T09:32:43Z</time>
      </trkpt>
      <trkpt lat="42.0252450" lon="-6.4574320">
        <ele>904.7</ele>
        <time>2019-08-16T09:32:44Z</time>
      </trkpt>
      <trkpt lat="42.0252670" lon="-6.4574580">
        <ele>904.8</ele>
        <time>2019-08-16T09:32:45Z</time>
      </trkpt>
      <trkpt lat="42.0252870" lon="-6.4574860">
        <ele>905.0</ele>
        <time>2019-08-16T09:32:46Z</time>
      </trkpt>
      <trkpt lat="42.0253070" lon="-6.4575150">
        <ele>905.1</ele>
        <time>2019-08-16T09:32:47Z</time>
      </trkpt>
      <trkpt lat="42.0253280" lon="-6.4575440">
        <ele>905.2</ele>
        <time>2019-08-16T09:32:48Z</time>
      </trkpt>
      <trkpt lat="42.0253490" lon="-6.4575740">
        <ele>905.3</ele>
        <time>2019-08-16T09:32:49Z</time>
      </trkpt>
      <trkpt lat="42.0253710" lon="-6.4576060">
        <ele>905.5</ele>
        <time>2019-08-16T09:32:50Z</time>
      </trkpt>
      <trkpt lat="42.0253930" lon="-6.4576420">
        <ele>905.6</ele>
        <time>2019-08-16T09:32:51Z</time>
      </trkpt>
      <trkpt lat="42.0254140" lon="-6.4576800">
        <ele>905.7</ele>
        <time>2019-08-16T09:32:52Z</time>
      </trkpt>
      <trkpt lat="42.0254330" lon="-6.4577180">
        <ele>905.9</ele>
        <time>2019-08-16T09:32:53Z</time>
      </trkpt>
      <trkpt lat="42.0254510" lon="-6.4577570">
        <ele>905.9</ele>
        <time>2019-08-16T09:32:54Z</time>
      </trkpt>
      <trkpt lat="42.0254670" lon="-6.4577980">
        <ele>905.9</ele>
        <time>2019-08-16T09:32:55Z</time>
      </trkpt>
      <trkpt lat="42.0254840" lon="-6.4578420">
        <ele>905.9</ele>
        <time>2019-08-16T09:32:56Z</time>
      </trkpt>
      <trkpt lat="42.0255020" lon="-6.4578880">
        <ele>905.9</ele>
        <time>2019-08-16T09:32:57Z</time>
      </trkpt>
      <trkpt lat="42.0255200" lon="-6.4579380">
        <ele>905.9</ele>
        <time>2019-08-16T09:32:58Z</time>
      </trkpt>
      <trkpt lat="42.0255390" lon="-6.4579910">
        <ele>905.9</ele>
        <time>2019-08-16T09:32:59Z</time>
      </trkpt>
      <trkpt lat="42.0255610" lon="-6.4580490">
        <ele>905.9</ele>
        <time>2019-08-16T09:33:00Z</time>
      </trkpt>
      <trkpt lat="42.0255840" lon="-6.4581090">
        <ele>906.0</ele>
        <time>2019-08-16T09:33:01Z</time>
      </trkpt>
      <trkpt lat="42.0256080" lon="-6.4581730">
        <ele>906.0</ele>
        <time>2019-08-16T09:33:02Z</time>
      </trkpt>
      <trkpt lat="42.0256320" lon="-6.4582400">
        <ele>906.1</ele>
        <time>2019-08-16T09:33:03Z</time>
      </trkpt>
      <trkpt lat="42.0256580" lon="-6.4583100">
        <ele>906.2</ele>
        <time>2019-08-16T09:33:04Z</time>
      </trkpt>
      <trkpt lat="42.0256850" lon="-6.4583810">
        <ele>906.3</ele>
        <time>2019-08-16T09:33:05Z</time>
      </trkpt>
      <trkpt lat="42.0257120" lon="-6.4584530">
        <ele>906.5</ele>
        <time>2019-08-16T09:33:06Z</time>
      </trkpt>
      <trkpt lat="42.0257400" lon="-6.4585260">
        <ele>906.6</ele>
        <time>2019-08-16T09:33:07Z</time>
      </trkpt>
      <trkpt lat="42.0257670" lon="-6.4585990">
        <ele>906.8</ele>
        <time>2019-08-16T09:33:08Z</time>
      </trkpt>
      <trkpt lat="42.0257920" lon="-6.4586720">
        <ele>907.0</ele>
        <time>2019-08-16T09:33:09Z</time>
      </trkpt>
      <trkpt lat="42.0258150" lon="-6.4587420">
        <ele>907.2</ele>
        <time>2019-08-16T09:33:10Z</time>
      </trkpt>
      <trkpt lat="42.0258370" lon="-6.4588060">
        <ele>907.3</ele>
        <time>2019-08-16T09:33:11Z</time>
      </trkpt>
      <trkpt lat="42.0258580" lon="-6.4588670">
        <ele>907.5</ele>
        <time>2019-08-16T09:33:12Z</time>
      </trkpt>
      <trkpt lat="42.0258770" lon="-6.4589240">
        <ele>907.6</ele>
        <time>2019-08-16T09:33:13Z</time>
      </trkpt>
      <trkpt lat="42.0258950" lon="-6.4589770">
        <ele>907.7</ele>
        <time>2019-08-16T09:33:14Z</time>
      </trkpt>
      <trkpt lat="42.0259130" lon="-6.4590260">
        <ele>907.8</ele>
        <time>2019-08-16T09:33:15Z</time>
      </trkpt>
      <trkpt lat="42.0259300" lon="-6.4590740">
        <ele>908.0</ele>
        <time>2019-08-16T09:33:16Z</time>
      </trkpt>
      <trkpt lat="42.0259460" lon="-6.4591250">
        <ele>908.1</ele>
        <time>2019-08-16T09:33:17Z</time>
      </trkpt>
      <trkpt lat="42.0259640" lon="-6.4591760">
        <ele>908.2</ele>
        <time>2019-08-16T09:33:18Z</time>
      </trkpt>
      <trkpt lat="42.0259840" lon="-6.4592280">
        <ele>908.2</ele>
        <time>2019-08-16T09:33:19Z</time>
      </trkpt>
      <trkpt lat="42.0260010" lon="-6.4592780">
        <ele>908.3</ele>
        <time>2019-08-16T09:33:20Z</time>
      </trkpt>
      <trkpt lat="42.0260200" lon="-6.4593280">
        <ele>908.4</ele>
        <time>2019-08-16T09:33:21Z</time>
      </trkpt>
      <trkpt lat="42.0260380" lon="-6.4593750">
        <ele>908.5</ele>
        <time>2019-08-16T09:33:22Z</time>
      </trkpt>
      <trkpt lat="42.0260560" lon="-6.4594220">
        <ele>908.6</ele>
        <time>2019-08-16T09:33:23Z</time>
      </trkpt>
      <trkpt lat="42.0260730" lon="-6.4594700">
        <ele>908.6</ele>
        <time>2019-08-16T09:33:24Z</time>
      </trkpt>
      <trkpt lat="42.0260910" lon="-6.4595180">
        <ele>908.7</ele>
        <time>2019-08-16T09:33:25Z</time>
      </trkpt>
      <trkpt lat="42.0261090" lon="-6.4595670">
        <ele>908.8</ele>
        <time>2019-08-16T09:33:26Z</time>
      </trkpt>
      <trkpt lat="42.0261260" lon="-6.4596150">
        <ele>908.8</ele>
        <time>2019-08-16T09:33:27Z</time>
      </trkpt>
      <trkpt lat="42.0261430" lon="-6.4596630">
        <ele>908.9</ele>
        <time>2019-08-16T09:33:28Z</time>
      </trkpt>
      <trkpt lat="42.0261610" lon="-6.4597130">
        <ele>909.0</ele>
        <time>2019-08-16T09:33:29Z</time>
      </trkpt>
      <trkpt lat="42.0261790" lon="-6.4597620">
        <ele>909.0</ele>
        <time>2019-08-16T09:33:30Z</time>
      </trkpt>
      <trkpt lat="42.0261960" lon="-6.4598120">
        <ele>909.1</ele>
        <time>2019-08-16T09:33:31Z</time>
      </trkpt>
      <trkpt lat="42.0262130" lon="-6.4598620">
        <ele>909.2</ele>
        <time>2019-08-16T09:33:32Z</time>
      </trkpt>
      <trkpt lat="42.0262300" lon="-6.4599100">
        <ele>909.3</ele>
        <time>2019-08-16T09:33:33Z</time>
      </trkpt>
      <trkpt lat="42.0262460" lon="-6.4599580">
        <ele>909.3</ele>
        <time>2019-08-16T09:33:34Z</time>
      </trkpt>
      <trkpt lat="42.0262590" lon="-6.4600070">
        <ele>909.4</ele>
        <time>2019-08-16T09:33:35Z</time>
      </trkpt>
      <trkpt lat="42.0262640" lon="-6.4600590">
        <ele>909.5</ele>
        <time>2019-08-16T09:33:36Z</time>
      </trkpt>
      <trkpt lat="42.0262620" lon="-6.4601110">
        <ele>909.5</ele>
        <time>2019-08-16T09:33:37Z</time>
      </trkpt>
      <trkpt lat="42.0262580" lon="-6.4601650">
        <ele>909.7</ele>
        <time>2019-08-16T09:33:38Z</time>
      </trkpt>
      <trkpt lat="42.0262560" lon="-6.4602190">
        <ele>909.8</ele>
        <time>2019-08-16T09:33:39Z</time>
      </trkpt>
      <trkpt lat="42.0262590" lon="-6.4602740">
        <ele>909.9</ele>
        <time>2019-08-16T09:33:40Z</time>
      </trkpt>
      <trkpt lat="42.0262660" lon="-6.4603270">
        <ele>909.9</ele>
        <time>2019-08-16T09:33:41Z</time>
      </trkpt>
      <trkpt lat="42.0262770" lon="-6.4603790">
        <ele>910.0</ele>
        <time>2019-08-16T09:33:42Z</time>
      </trkpt>
      <trkpt lat="42.0262890" lon="-6.4604300">
        <ele>910.1</ele>
        <time>2019-08-16T09:33:43Z</time>
      </trkpt>
      <trkpt lat="42.0263010" lon="-6.4604800">
        <ele>910.2</ele>
        <time>2019-08-16T09:33:44Z</time>
      </trkpt>
      <trkpt lat="42.0263140" lon="-6.4605310">
        <ele>910.3</ele>
        <time>2019-08-16T09:33:45Z</time>
      </trkpt>
      <trkpt lat="42.0263270" lon="-6.4605820">
        <ele>910.4</ele>
        <time>2019-08-16T09:33:46Z</time>
      </trkpt>
      <trkpt lat="42.0263390" lon="-6.4606310">
        <ele>910.5</ele>
        <time>2019-08-16T09:33:47Z</time>
      </trkpt>
      <trkpt lat="42.0263500" lon="-6.4606780">
        <ele>910.6</ele>
        <time>2019-08-16T09:33:48Z</time>
      </trkpt>
      <trkpt lat="42.0263600" lon="-6.4607230">
        <ele>910.7</ele>
        <time>2019-08-16T09:33:49Z</time>
      </trkpt>
      <trkpt lat="42.0263690" lon="-6.4607610">
        <ele>910.7</ele>
        <time>2019-08-16T09:33:50Z</time>
      </trkpt>
      <trkpt lat="42.0263800" lon="-6.4608190">
        <ele>910.9</ele>
        <time>2019-08-16T09:33:52Z</time>
      </trkpt>
      <trkpt lat="42.0263830" lon="-6.4608580">
        <ele>911.0</ele>
        <time>2019-08-16T09:33:54Z</time>
      </trkpt>
      <trkpt lat="42.0263920" lon="-6.4609000">
        <ele>911.1</ele>
        <time>2019-08-16T09:33:56Z</time>
      </trkpt>
      <trkpt lat="42.0264070" lon="-6.4609490">
        <ele>911.2</ele>
        <time>2019-08-16T09:33:58Z</time>
      </trkpt>
      <trkpt lat="42.0264280" lon="-6.4610080">
        <ele>911.3</ele>
        <time>2019-08-16T09:34:00Z</time>
      </trkpt>
      <trkpt lat="42.0264540" lon="-6.4610680">
        <ele>911.4</ele>
        <time>2019-08-16T09:34:02Z</time>
      </trkpt>
      <trkpt lat="42.0264930" lon="-6.4611210">
        <ele>911.5</ele>
        <time>2019-08-16T09:34:04Z</time>
      </trkpt>
      <trkpt lat="42.0265160" lon="-6.4611490">
        <ele>911.6</ele>
        <time>2019-08-16T09:34:05Z</time>
      </trkpt>
      <trkpt lat="42.0265400" lon="-6.4611770">
        <ele>911.6</ele>
        <time>2019-08-16T09:34:06Z</time>
      </trkpt>
      <trkpt lat="42.0265670" lon="-6.4612060">
        <ele>911.7</ele>
        <time>2019-08-16T09:34:07Z</time>
      </trkpt>
      <trkpt lat="42.0265950" lon="-6.4612350">
        <ele>911.7</ele>
        <time>2019-08-16T09:34:08Z</time>
      </trkpt>
      <trkpt lat="42.0266250" lon="-6.4612630">
        <ele>911.8</ele>
        <time>2019-08-16T09:34:09Z</time>
      </trkpt>
      <trkpt lat="42.0266560" lon="-6.4612890">
        <ele>911.8</ele>
        <time>2019-08-16T09:34:10Z</time>
      </trkpt>
      <trkpt lat="42.0266860" lon="-6.4613130">
        <ele>911.9</ele>
        <time>2019-08-16T09:34:11Z</time>
      </trkpt>
      <trkpt lat="42.0267170" lon="-6.4613330">
        <ele>911.9</ele>
        <time>2019-08-16T09:34:12Z</time>
      </trkpt>
      <trkpt lat="42.0267460" lon="-6.4613530">
        <ele>912.0</ele>
        <time>2019-08-16T09:34:13Z</time>
      </trkpt>
      <trkpt lat="42.0267790" lon="-6.4613760">
        <ele>912.1</ele>
        <time>2019-08-16T09:34:14Z</time>
      </trkpt>
      <trkpt lat="42.0268130" lon="-6.4614030">
        <ele>912.1</ele>
        <time>2019-08-16T09:34:15Z</time>
      </trkpt>
      <trkpt lat="42.0268470" lon="-6.4614310">
        <ele>912.2</ele>
        <time>2019-08-16T09:34:16Z</time>
      </trkpt>
      <trkpt lat="42.0268810" lon="-6.4614620">
        <ele>912.3</ele>
        <time>2019-08-16T09:34:17Z</time>
      </trkpt>
      <trkpt lat="42.0269150" lon="-6.4614940">
        <ele>912.3</ele>
        <time>2019-08-16T09:34:18Z</time>
      </trkpt>
      <trkpt lat="42.0269490" lon="-6.4615290">
        <ele>912.4</ele>
        <time>2019-08-16T09:34:19Z</time>
      </trkpt>
      <trkpt lat="42.0269800" lon="-6.4615650">
        <ele>912.5</ele>
        <time>2019-08-16T09:34:20Z</time>
      </trkpt>
      <trkpt lat="42.0270100" lon="-6.4616050">
        <ele>912.5</ele>
        <time>2019-08-16T09:34:21Z</time>
      </trkpt>
      <trkpt lat="42.0270370" lon="-6.4616440">
        <ele>912.6</ele>
        <time>2019-08-16T09:34:22Z</time>
      </trkpt>
      <trkpt lat="42.0270630" lon="-6.4616800">
        <ele>912.6</ele>
        <time>2019-08-16T09:34:23Z</time>
      </trkpt>
      <trkpt lat="42.0270860" lon="-6.4617170">
        <ele>912.7</ele>
        <time>2019-08-16T09:34:24Z</time>
      </trkpt>
      <trkpt lat="42.0271100" lon="-6.4617520">
        <ele>912.7</ele>
        <time>2019-08-16T09:34:25Z</time>
      </trkpt>
      <trkpt lat="42.0271350" lon="-6.4617870">
        <ele>912.7</ele>
        <time>2019-08-16T09:34:26Z</time>
      </trkpt>
      <trkpt lat="42.0271600" lon="-6.4618230">
        <ele>912.7</ele>
        <time>2019-08-16T09:34:27Z</time>
      </trkpt>
      <trkpt lat="42.0271850" lon="-6.4618640">
        <ele>912.8</ele>
        <time>2019-08-16T09:34:28Z</time>
      </trkpt>
      <trkpt lat="42.0272120" lon="-6.4619070">
        <ele>912.8</ele>
        <time>2019-08-16T09:34:29Z</time>
      </trkpt>
      <trkpt lat="42.0272410" lon="-6.4619500">
        <ele>912.8</ele>
        <time>2019-08-16T09:34:30Z</time>
      </trkpt>
      <trkpt lat="42.0272700" lon="-6.4619960">
        <ele>912.8</ele>
        <time>2019-08-16T09:34:31Z</time>
      </trkpt>
      <trkpt lat="42.0273000" lon="-6.4620420">
        <ele>912.9</ele>
        <time>2019-08-16T09:34:32Z</time>
      </trkpt>
      <trkpt lat="42.0273320" lon="-6.4620860">
        <ele>912.9</ele>
        <time>2019-08-16T09:34:33Z</time>
      </trkpt>
      <trkpt lat="42.0273670" lon="-6.4621300">
        <ele>912.9</ele>
        <time>2019-08-16T09:34:34Z</time>
      </trkpt>
      <trkpt lat="42.0274010" lon="-6.4621760">
        <ele>912.9</ele>
        <time>2019-08-16T09:34:35Z</time>
      </trkpt>
      <trkpt lat="42.0274350" lon="-6.4622210">
        <ele>913.0</ele>
        <time>2019-08-16T09:34:36Z</time>
      </trkpt>
      <trkpt lat="42.0274700" lon="-6.4622630">
        <ele>913.0</ele>
        <time>2019-08-16T09:34:37Z</time>
      </trkpt>
      <trkpt lat="42.0275050" lon="-6.4623000">
        <ele>913.0</ele>
        <time>2019-08-16T09:34:38Z</time>
      </trkpt>
      <trkpt lat="42.0275430" lon="-6.4623310">
        <ele>913.1</ele>
        <time>2019-08-16T09:34:39Z</time>
      </trkpt>
      <trkpt lat="42.0275840" lon="-6.4623580">
        <ele>913.1</ele>
        <time>2019-08-16T09:34:40Z</time>
      </trkpt>
      <trkpt lat="42.0276260" lon="-6.4623820">
        <ele>913.2</ele>
        <time>2019-08-16T09:34:41Z</time>
      </trkpt>
      <trkpt lat="42.0276690" lon="-6.4624050">
        <ele>913.3</ele>
        <time>2019-08-16T09:34:42Z</time>
      </trkpt>
      <trkpt lat="42.0277120" lon="-6.4624290">
        <ele>913.3</ele>
        <time>2019-08-16T09:34:43Z</time>
      </trkpt>
      <trkpt lat="42.0277510" lon="-6.4624590">
        <ele>913.4</ele>
        <time>2019-08-16T09:34:44Z</time>
      </trkpt>
      <trkpt lat="42.0277860" lon="-6.4624920">
        <ele>913.5</ele>
        <time>2019-08-16T09:34:45Z</time>
      </trkpt>
      <trkpt lat="42.0278200" lon="-6.4625280">
        <ele>913.5</ele>
        <time>2019-08-16T09:34:46Z</time>
      </trkpt>
      <trkpt lat="42.0278520" lon="-6.4625600">
        <ele>913.6</ele>
        <time>2019-08-16T09:34:47Z</time>
      </trkpt>
      <trkpt lat="42.0278850" lon="-6.4625900">
        <ele>913.6</ele>
        <time>2019-08-16T09:34:48Z</time>
      </trkpt>
      <trkpt lat="42.0279170" lon="-6.4626200">
        <ele>913.7</ele>
        <time>2019-08-16T09:34:49Z</time>
      </trkpt>
      <trkpt lat="42.0279500" lon="-6.4626510">
        <ele>913.8</ele>
        <time>2019-08-16T09:34:50Z</time>
      </trkpt>
      <trkpt lat="42.0279820" lon="-6.4626870">
        <ele>913.9</ele>
        <time>2019-08-16T09:34:51Z</time>
      </trkpt>
      <trkpt lat="42.0280100" lon="-6.4627250">
        <ele>913.9</ele>
        <time>2019-08-16T09:34:52Z</time>
      </trkpt>
      <trkpt lat="42.0280390" lon="-6.4627630">
        <ele>914.0</ele>
        <time>2019-08-16T09:34:53Z</time>
      </trkpt>
      <trkpt lat="42.0280650" lon="-6.4628020">
        <ele>914.1</ele>
        <time>2019-08-16T09:34:54Z</time>
      </trkpt>
      <trkpt lat="42.0280930" lon="-6.4628390">
        <ele>914.1</ele>
        <time>2019-08-16T09:34:55Z</time>
      </trkpt>
      <trkpt lat="42.0281210" lon="-6.4628770">
        <ele>914.2</ele>
        <time>2019-08-16T09:34:56Z</time>
      </trkpt>
      <trkpt lat="42.0281520" lon="-6.4629140">
        <ele>914.2</ele>
        <time>2019-08-16T09:34:57Z</time>
      </trkpt>
      <trkpt lat="42.0281860" lon="-6.4629440">
        <ele>914.3</ele>
        <time>2019-08-16T09:34:58Z</time>
      </trkpt>
      <trkpt lat="42.0282190" lon="-6.4629760">
        <ele>914.4</ele>
        <time>2019-08-16T09:34:59Z</time>
      </trkpt>
      <trkpt lat="42.0282520" lon="-6.4630060">
        <ele>914.4</ele>
        <time>2019-08-16T09:35:00Z</time>
      </trkpt>
      <trkpt lat="42.0282890" lon="-6.4630200">
        <ele>914.5</ele>
        <time>2019-08-16T09:35:01Z</time>
      </trkpt>
      <trkpt lat="42.0283300" lon="-6.4630360">
        <ele>914.5</ele>
        <time>2019-08-16T09:35:02Z</time>
      </trkpt>
      <trkpt lat="42.0283750" lon="-6.4630540">
        <ele>914.6</ele>
        <time>2019-08-16T09:35:03Z</time>
      </trkpt>
      <trkpt lat="42.0284100" lon="-6.4630760">
        <ele>914.6</ele>
        <time>2019-08-16T09:35:04Z</time>
      </trkpt>
      <trkpt lat="42.0284470" lon="-6.4630920">
        <ele>914.6</ele>
        <time>2019-08-16T09:35:05Z</time>
      </trkpt>
      <trkpt lat="42.0284880" lon="-6.4631030">
        <ele>914.7</ele>
        <time>2019-08-16T09:35:06Z</time>
      </trkpt>
      <trkpt lat="42.0285270" lon="-6.4631110">
        <ele>914.7</ele>
        <time>2019-08-16T09:35:07Z</time>
      </trkpt>
      <trkpt lat="42.0285620" lon="-6.4631140">
        <ele>914.8</ele>
        <time>2019-08-16T09:35:08Z</time>
      </trkpt>
      <trkpt lat="42.0285930" lon="-6.4631250">
        <ele>914.8</ele>
        <time>2019-08-16T09:35:09Z</time>
      </trkpt>
      <trkpt lat="42.0286230" lon="-6.4631320">
        <ele>914.8</ele>
        <time>2019-08-16T09:35:10Z</time>
      </trkpt>
      <trkpt lat="42.0286560" lon="-6.4631410">
        <ele>914.8</ele>
        <time>2019-08-16T09:35:11Z</time>
      </trkpt>
      <trkpt lat="42.0286980" lon="-6.4631450">
        <ele>914.9</ele>
        <time>2019-08-16T09:35:12Z</time>
      </trkpt>
      <trkpt lat="42.0287470" lon="-6.4631500">
        <ele>914.9</ele>
        <time>2019-08-16T09:35:13Z</time>
      </trkpt>
      <trkpt lat="42.0287900" lon="-6.4631620">
        <ele>914.9</ele>
        <time>2019-08-16T09:35:14Z</time>
      </trkpt>
      <trkpt lat="42.0288280" lon="-6.4631760">
        <ele>914.9</ele>
        <time>2019-08-16T09:35:15Z</time>
      </trkpt>
      <trkpt lat="42.0288740" lon="-6.4631910">
        <ele>915.0</ele>
        <time>2019-08-16T09:35:16Z</time>
      </trkpt>
      <trkpt lat="42.0289200" lon="-6.4632020">
        <ele>915.0</ele>
        <time>2019-08-16T09:35:17Z</time>
      </trkpt>
      <trkpt lat="42.0289620" lon="-6.4632100">
        <ele>915.0</ele>
        <time>2019-08-16T09:35:18Z</time>
      </trkpt>
      <trkpt lat="42.0290120" lon="-6.4632170">
        <ele>914.9</ele>
        <time>2019-08-16T09:35:19Z</time>
      </trkpt>
      <trkpt lat="42.0290620" lon="-6.4632250">
        <ele>914.9</ele>
        <time>2019-08-16T09:35:20Z</time>
      </trkpt>
      <trkpt lat="42.0291180" lon="-6.4632380">
        <ele>914.9</ele>
        <time>2019-08-16T09:35:21Z</time>
      </trkpt>
      <trkpt lat="42.0291710" lon="-6.4632650">
        <ele>914.8</ele>
        <time>2019-08-16T09:35:22Z</time>
      </trkpt>
      <trkpt lat="42.0292230" lon="-6.4632900">
        <ele>914.8</ele>
        <time>2019-08-16T09:35:23Z</time>
      </trkpt>
      <trkpt lat="42.0292720" lon="-6.4633240">
        <ele>914.7</ele>
        <time>2019-08-16T09:35:24Z</time>
      </trkpt>
      <trkpt lat="42.0293160" lon="-6.4633670">
        <ele>914.6</ele>
        <time>2019-08-16T09:35:25Z</time>
      </trkpt>
      <trkpt lat="42.0293590" lon="-6.4634160">
        <ele>914.5</ele>
        <time>2019-08-16T09:35:26Z</time>
      </trkpt>
      <trkpt lat="42.0294020" lon="-6.4634670">
        <ele>914.4</ele>
        <time>2019-08-16T09:35:27Z</time>
      </trkpt>
      <trkpt lat="42.0294380" lon="-6.4635250">
        <ele>914.2</ele>
        <time>2019-08-16T09:35:28Z</time>
      </trkpt>
      <trkpt lat="42.0294710" lon="-6.4635870">
        <ele>913.9</ele>
        <time>2019-08-16T09:35:29Z</time>
      </trkpt>
      <trkpt lat="42.0295050" lon="-6.4636530">
        <ele>913.7</ele>
        <time>2019-08-16T09:35:30Z</time>
      </trkpt>
      <trkpt lat="42.0295410" lon="-6.4637200">
        <ele>913.5</ele>
        <time>2019-08-16T09:35:31Z</time>
      </trkpt>
      <trkpt lat="42.0295780" lon="-6.4637910">
        <ele>913.3</ele>
        <time>2019-08-16T09:35:32Z</time>
      </trkpt>
      <trkpt lat="42.0296110" lon="-6.4638680">
        <ele>913.0</ele>
        <time>2019-08-16T09:35:33Z</time>
      </trkpt>
      <trkpt lat="42.0296390" lon="-6.4639510">
        <ele>912.6</ele>
        <time>2019-08-16T09:35:34Z</time>
      </trkpt>
      <trkpt lat="42.0296630" lon="-6.4640420">
        <ele>912.2</ele>
        <time>2019-08-16T09:35:35Z</time>
      </trkpt>
      <trkpt lat="42.0296850" lon="-6.4641370">
        <ele>911.8</ele>
        <time>2019-08-16T09:35:36Z</time>
      </trkpt>
      <trkpt lat="42.0297080" lon="-6.4642320">
        <ele>911.1</ele>
        <time>2019-08-16T09:35:37Z</time>
      </trkpt>
      <trkpt lat="42.0297370" lon="-6.4643210">
        <ele>910.6</ele>
        <time>2019-08-16T09:35:38Z</time>
      </trkpt>
      <trkpt lat="42.0297720" lon="-6.4644020">
        <ele>910.1</ele>
        <time>2019-08-16T09:35:39Z</time>
      </trkpt>
      <trkpt lat="42.0298150" lon="-6.4644750">
        <ele>909.7</ele>
        <time>2019-08-16T09:35:40Z</time>
      </trkpt>
      <trkpt lat="42.0298580" lon="-6.4645460">
        <ele>909.4</ele>
        <time>2019-08-16T09:35:41Z</time>
      </trkpt>
      <trkpt lat="42.0298970" lon="-6.4646190">
        <ele>909.1</ele>
        <time>2019-08-16T09:35:42Z</time>
      </trkpt>
      <trkpt lat="42.0299270" lon="-6.4646940">
        <ele>908.9</ele>
        <time>2019-08-16T09:35:43Z</time>
      </trkpt>
      <trkpt lat="42.0299440" lon="-6.4647710">
        <ele>908.8</ele>
        <time>2019-08-16T09:35:44Z</time>
      </trkpt>
      <trkpt lat="42.0299520" lon="-6.4648500">
        <ele>908.8</ele>
        <time>2019-08-16T09:35:45Z</time>
      </trkpt>
      <trkpt lat="42.0299570" lon="-6.4649280">
        <ele>908.8</ele>
        <time>2019-08-16T09:35:46Z</time>
      </trkpt>
      <trkpt lat="42.0299630" lon="-6.4650030">
        <ele>908.8</ele>
        <time>2019-08-16T09:35:47Z</time>
      </trkpt>
      <trkpt lat="42.0299680" lon="-6.4650720">
        <ele>908.9</ele>
        <time>2019-08-16T09:35:48Z</time>
      </trkpt>
      <trkpt lat="42.0299720" lon="-6.4651370">
        <ele>908.9</ele>
        <time>2019-08-16T09:35:49Z</time>
      </trkpt>
      <trkpt lat="42.0299770" lon="-6.4651970">
        <ele>908.9</ele>
        <time>2019-08-16T09:35:50Z</time>
      </trkpt>
      <trkpt lat="42.0299840" lon="-6.4652530">
        <ele>908.9</ele>
        <time>2019-08-16T09:35:51Z</time>
      </trkpt>
      <trkpt lat="42.0299940" lon="-6.4653060">
        <ele>908.9</ele>
        <time>2019-08-16T09:35:52Z</time>
      </trkpt>
      <trkpt lat="42.0300070" lon="-6.4653510">
        <ele>909.0</ele>
        <time>2019-08-16T09:35:53Z</time>
      </trkpt>
      <trkpt lat="42.0300210" lon="-6.4653870">
        <ele>909.0</ele>
        <time>2019-08-16T09:35:54Z</time>
      </trkpt>
      <trkpt lat="42.0300360" lon="-6.4654200">
        <ele>909.0</ele>
        <time>2019-08-16T09:35:55Z</time>
      </trkpt>
      <trkpt lat="42.0300530" lon="-6.4654500">
        <ele>909.0</ele>
        <time>2019-08-16T09:35:56Z</time>
      </trkpt>
      <trkpt lat="42.0300940" lon="-6.4655020">
        <ele>909.1</ele>
        <time>2019-08-16T09:35:58Z</time>
      </trkpt>
      <trkpt lat="42.0301190" lon="-6.4655340">
        <ele>909.1</ele>
        <time>2019-08-16T09:35:59Z</time>
      </trkpt>
      <trkpt lat="42.0301420" lon="-6.4655760">
        <ele>909.1</ele>
        <time>2019-08-16T09:36:00Z</time>
      </trkpt>
      <trkpt lat="42.0301630" lon="-6.4656250">
        <ele>909.1</ele>
        <time>2019-08-16T09:36:01Z</time>
      </trkpt>
      <trkpt lat="42.0301820" lon="-6.4656770">
        <ele>909.1</ele>
        <time>2019-08-16T09:36:02Z</time>
      </trkpt>
      <trkpt lat="42.0301990" lon="-6.4657310">
        <ele>909.1</ele>
        <time>2019-08-16T09:36:03Z</time>
      </trkpt>
      <trkpt lat="42.0302160" lon="-6.4657860">
        <ele>909.1</ele>
        <time>2019-08-16T09:36:04Z</time>
      </trkpt>
      <trkpt lat="42.0302320" lon="-6.4658410">
        <ele>909.1</ele>
        <time>2019-08-16T09:36:05Z</time>
      </trkpt>
      <trkpt lat="42.0302480" lon="-6.4658950">
        <ele>909.0</ele>
        <time>2019-08-16T09:36:06Z</time>
      </trkpt>
      <trkpt lat="42.0302640" lon="-6.4659510">
        <ele>909.0</ele>
        <time>2019-08-16T09:36:07Z</time>
      </trkpt>
      <trkpt lat="42.0302790" lon="-6.4660100">
        <ele>909.0</ele>
        <time>2019-08-16T09:36:08Z</time>
      </trkpt>
      <trkpt lat="42.0302970" lon="-6.4660700">
        <ele>909.0</ele>
        <time>2019-08-16T09:36:09Z</time>
      </trkpt>
      <trkpt lat="42.0303140" lon="-6.4661330">
        <ele>909.0</ele>
        <time>2019-08-16T09:36:10Z</time>
      </trkpt>
      <trkpt lat="42.0303330" lon="-6.4661960">
        <ele>909.0</ele>
        <time>2019-08-16T09:36:11Z</time>
      </trkpt>
      <trkpt lat="42.0303530" lon="-6.4662610">
        <ele>909.0</ele>
        <time>2019-08-16T09:36:12Z</time>
      </trkpt>
      <trkpt lat="42.0303730" lon="-6.4663250">
        <ele>909.0</ele>
        <time>2019-08-16T09:36:13Z</time>
      </trkpt>
      <trkpt lat="42.0303910" lon="-6.4663900">
        <ele>909.0</ele>
        <time>2019-08-16T09:36:14Z</time>
      </trkpt>
      <trkpt lat="42.0304100" lon="-6.4664530">
        <ele>909.0</ele>
        <time>2019-08-16T09:36:15Z</time>
      </trkpt>
      <trkpt lat="42.0304280" lon="-6.4665150">
        <ele>909.0</ele>
        <time>2019-08-16T09:36:16Z</time>
      </trkpt>
      <trkpt lat="42.0304450" lon="-6.4665760">
        <ele>909.0</ele>
        <time>2019-08-16T09:36:17Z</time>
      </trkpt>
      <trkpt lat="42.0304630" lon="-6.4666360">
        <ele>909.0</ele>
        <time>2019-08-16T09:36:18Z</time>
      </trkpt>
      <trkpt lat="42.0304790" lon="-6.4666970">
        <ele>909.0</ele>
        <time>2019-08-16T09:36:19Z</time>
      </trkpt>
      <trkpt lat="42.0304970" lon="-6.4667590">
        <ele>909.0</ele>
        <time>2019-08-16T09:36:20Z</time>
      </trkpt>
      <trkpt lat="42.0305150" lon="-6.4668210">
        <ele>909.0</ele>
        <time>2019-08-16T09:36:21Z</time>
      </trkpt>
      <trkpt lat="42.0305340" lon="-6.4668820">
        <ele>909.0</ele>
        <time>2019-08-16T09:36:22Z</time>
      </trkpt>
      <trkpt lat="42.0305540" lon="-6.4669430">
        <ele>909.0</ele>
        <time>2019-08-16T09:36:23Z</time>
      </trkpt>
      <trkpt lat="42.0305720" lon="-6.4670040">
        <ele>909.0</ele>
        <time>2019-08-16T09:36:24Z</time>
      </trkpt>
      <trkpt lat="42.0305910" lon="-6.4670620">
        <ele>909.1</ele>
        <time>2019-08-16T09:36:25Z</time>
      </trkpt>
      <trkpt lat="42.0306080" lon="-6.4671190">
        <ele>909.2</ele>
        <time>2019-08-16T09:36:26Z</time>
      </trkpt>
      <trkpt lat="42.0306250" lon="-6.4671740">
        <ele>909.4</ele>
        <time>2019-08-16T09:36:27Z</time>
      </trkpt>
      <trkpt lat="42.0306390" lon="-6.4672270">
        <ele>909.5</ele>
        <time>2019-08-16T09:36:28Z</time>
      </trkpt>
      <trkpt lat="42.0306510" lon="-6.4672770">
        <ele>909.6</ele>
        <time>2019-08-16T09:36:29Z</time>
      </trkpt>
      <trkpt lat="42.0306650" lon="-6.4673280">
        <ele>909.7</ele>
        <time>2019-08-16T09:36:30Z</time>
      </trkpt>
      <trkpt lat="42.0306800" lon="-6.4673760">
        <ele>909.9</ele>
        <time>2019-08-16T09:36:31Z</time>
      </trkpt>
      <trkpt lat="42.0306930" lon="-6.4674240">
        <ele>910.1</ele>
        <time>2019-08-16T09:36:32Z</time>
      </trkpt>
      <trkpt lat="42.0307060" lon="-6.4674700">
        <ele>910.2</ele>
        <time>2019-08-16T09:36:33Z</time>
      </trkpt>
      <trkpt lat="42.0307190" lon="-6.4675150">
        <ele>910.4</ele>
        <time>2019-08-16T09:36:34Z</time>
      </trkpt>
      <trkpt lat="42.0307320" lon="-6.4675610">
        <ele>910.5</ele>
        <time>2019-08-16T09:36:35Z</time>
      </trkpt>
      <trkpt lat="42.0307420" lon="-6.4676070">
        <ele>910.7</ele>
        <time>2019-08-16T09:36:36Z</time>
      </trkpt>
      <trkpt lat="42.0307530" lon="-6.4676530">
        <ele>910.9</ele>
        <time>2019-08-16T09:36:37Z</time>
      </trkpt>
      <trkpt lat="42.0307630" lon="-6.4676990">
        <ele>911.1</ele>
        <time>2019-08-16T09:36:38Z</time>
      </trkpt>
      <trkpt lat="42.0307720" lon="-6.4677460">
        <ele>911.3</ele>
        <time>2019-08-16T09:36:39Z</time>
      </trkpt>
      <trkpt lat="42.0307790" lon="-6.4677930">
        <ele>911.5</ele>
        <time>2019-08-16T09:36:40Z</time>
      </trkpt>
      <trkpt lat="42.0307860" lon="-6.4678400">
        <ele>911.7</ele>
        <time>2019-08-16T09:36:41Z</time>
      </trkpt>
      <trkpt lat="42.0307920" lon="-6.4678880">
        <ele>911.9</ele>
        <time>2019-08-16T09:36:42Z</time>
      </trkpt>
      <trkpt lat="42.0307970" lon="-6.4679370">
        <ele>912.1</ele>
        <time>2019-08-16T09:36:43Z</time>
      </trkpt>
      <trkpt lat="42.0308020" lon="-6.4679860">
        <ele>912.3</ele>
        <time>2019-08-16T09:36:44Z</time>
      </trkpt>
      <trkpt lat="42.0308070" lon="-6.4680350">
        <ele>912.5</ele>
        <time>2019-08-16T09:36:45Z</time>
      </trkpt>
      <trkpt lat="42.0308100" lon="-6.4680850">
        <ele>912.8</ele>
        <time>2019-08-16T09:36:46Z</time>
      </trkpt>
      <trkpt lat="42.0308120" lon="-6.4681340">
        <ele>913.0</ele>
        <time>2019-08-16T09:36:47Z</time>
      </trkpt>
      <trkpt lat="42.0308120" lon="-6.4681840">
        <ele>913.1</ele>
        <time>2019-08-16T09:36:48Z</time>
      </trkpt>
      <trkpt lat="42.0308120" lon="-6.4682350">
        <ele>913.3</ele>
        <time>2019-08-16T09:36:49Z</time>
      </trkpt>
      <trkpt lat="42.0308110" lon="-6.4682870">
        <ele>913.5</ele>
        <time>2019-08-16T09:36:50Z</time>
      </trkpt>
      <trkpt lat="42.0308120" lon="-6.4683380">
        <ele>913.7</ele>
        <time>2019-08-16T09:36:51Z</time>
      </trkpt>
      <trkpt lat="42.0308160" lon="-6.4683890">
        <ele>913.9</ele>
        <time>2019-08-16T09:36:52Z</time>
      </trkpt>
      <trkpt lat="42.0308190" lon="-6.4684390">
        <ele>914.0</ele>
        <time>2019-08-16T09:36:53Z</time>
      </trkpt>
      <trkpt lat="42.0308190" lon="-6.4684890">
        <ele>914.2</ele>
        <time>2019-08-16T09:36:54Z</time>
      </trkpt>
      <trkpt lat="42.0308180" lon="-6.4685390">
        <ele>914.4</ele>
        <time>2019-08-16T09:36:55Z</time>
      </trkpt>
      <trkpt lat="42.0308180" lon="-6.4685890">
        <ele>914.5</ele>
        <time>2019-08-16T09:36:56Z</time>
      </trkpt>
      <trkpt lat="42.0308200" lon="-6.4686390">
        <ele>914.7</ele>
        <time>2019-08-16T09:36:57Z</time>
      </trkpt>
      <trkpt lat="42.0308220" lon="-6.4686880">
        <ele>914.9</ele>
        <time>2019-08-16T09:36:58Z</time>
      </trkpt>
      <trkpt lat="42.0308230" lon="-6.4687370">
        <ele>915.0</ele>
        <time>2019-08-16T09:36:59Z</time>
      </trkpt>
      <trkpt lat="42.0308240" lon="-6.4687870">
        <ele>915.2</ele>
        <time>2019-08-16T09:37:00Z</time>
      </trkpt>
      <trkpt lat="42.0308240" lon="-6.4688370">
        <ele>915.4</ele>
        <time>2019-08-16T09:37:01Z</time>
      </trkpt>
      <trkpt lat="42.0308240" lon="-6.4688880">
        <ele>915.5</ele>
        <time>2019-08-16T09:37:02Z</time>
      </trkpt>
      <trkpt lat="42.0308250" lon="-6.4689380">
        <ele>915.6</ele>
        <time>2019-08-16T09:37:03Z</time>
      </trkpt>
      <trkpt lat="42.0308290" lon="-6.4689900">
        <ele>915.8</ele>
        <time>2019-08-16T09:37:04Z</time>
      </trkpt>
      <trkpt lat="42.0308320" lon="-6.4690410">
        <ele>915.9</ele>
        <time>2019-08-16T09:37:05Z</time>
      </trkpt>
      <trkpt lat="42.0308330" lon="-6.4690920">
        <ele>916.0</ele>
        <time>2019-08-16T09:37:06Z</time>
      </trkpt>
      <trkpt lat="42.0308330" lon="-6.4691410">
        <ele>916.1</ele>
        <time>2019-08-16T09:37:07Z</time>
      </trkpt>
      <trkpt lat="42.0308320" lon="-6.4691870">
        <ele>916.2</ele>
        <time>2019-08-16T09:37:08Z</time>
      </trkpt>
      <trkpt lat="42.0308330" lon="-6.4692350">
        <ele>916.3</ele>
        <time>2019-08-16T09:37:09Z</time>
      </trkpt>
      <trkpt lat="42.0308340" lon="-6.4692830">
        <ele>916.4</ele>
        <time>2019-08-16T09:37:10Z</time>
      </trkpt>
      <trkpt lat="42.0308360" lon="-6.4693330">
        <ele>916.5</ele>
        <time>2019-08-16T09:37:11Z</time>
      </trkpt>
      <trkpt lat="42.0308370" lon="-6.4693850">
        <ele>916.5</ele>
        <time>2019-08-16T09:37:12Z</time>
      </trkpt>
      <trkpt lat="42.0308400" lon="-6.4694370">
        <ele>916.5</ele>
        <time>2019-08-16T09:37:13Z</time>
      </trkpt>
      <trkpt lat="42.0308420" lon="-6.4694910">
        <ele>916.6</ele>
        <time>2019-08-16T09:37:14Z</time>
      </trkpt>
      <trkpt lat="42.0308430" lon="-6.4695450">
        <ele>916.6</ele>
        <time>2019-08-16T09:37:15Z</time>
      </trkpt>
      <trkpt lat="42.0308450" lon="-6.4696000">
        <ele>916.6</ele>
        <time>2019-08-16T09:37:16Z</time>
      </trkpt>
      <trkpt lat="42.0308470" lon="-6.4696540">
        <ele>916.7</ele>
        <time>2019-08-16T09:37:17Z</time>
      </trkpt>
      <trkpt lat="42.0308480" lon="-6.4697100">
        <ele>916.7</ele>
        <time>2019-08-16T09:37:18Z</time>
      </trkpt>
      <trkpt lat="42.0308490" lon="-6.4697640">
        <ele>916.8</ele>
        <time>2019-08-16T09:37:19Z</time>
      </trkpt>
      <trkpt lat="42.0308490" lon="-6.4698200">
        <ele>916.9</ele>
        <time>2019-08-16T09:37:20Z</time>
      </trkpt>
      <trkpt lat="42.0308500" lon="-6.4698750">
        <ele>916.9</ele>
        <time>2019-08-16T09:37:21Z</time>
      </trkpt>
      <trkpt lat="42.0308520" lon="-6.4699300">
        <ele>917.0</ele>
        <time>2019-08-16T09:37:22Z</time>
      </trkpt>
      <trkpt lat="42.0308530" lon="-6.4699840">
        <ele>917.1</ele>
        <time>2019-08-16T09:37:23Z</time>
      </trkpt>
      <trkpt lat="42.0308550" lon="-6.4700400">
        <ele>917.2</ele>
        <time>2019-08-16T09:37:24Z</time>
      </trkpt>
      <trkpt lat="42.0308560" lon="-6.4700950">
        <ele>917.3</ele>
        <time>2019-08-16T09:37:25Z</time>
      </trkpt>
      <trkpt lat="42.0308570" lon="-6.4701490">
        <ele>917.3</ele>
        <time>2019-08-16T09:37:26Z</time>
      </trkpt>
      <trkpt lat="42.0308590" lon="-6.4702020">
        <ele>917.4</ele>
        <time>2019-08-16T09:37:27Z</time>
      </trkpt>
      <trkpt lat="42.0308610" lon="-6.4702520">
        <ele>917.4</ele>
        <time>2019-08-16T09:37:28Z</time>
      </trkpt>
      <trkpt lat="42.0308620" lon="-6.4703020">
        <ele>917.4</ele>
        <time>2019-08-16T09:37:29Z</time>
      </trkpt>
      <trkpt lat="42.0308630" lon="-6.4703510">
        <ele>917.4</ele>
        <time>2019-08-16T09:37:30Z</time>
      </trkpt>
      <trkpt lat="42.0308660" lon="-6.4704010">
        <ele>917.5</ele>
        <time>2019-08-16T09:37:31Z</time>
      </trkpt>
      <trkpt lat="42.0308670" lon="-6.4704530">
        <ele>917.5</ele>
        <time>2019-08-16T09:37:32Z</time>
      </trkpt>
      <trkpt lat="42.0308670" lon="-6.4705060">
        <ele>917.5</ele>
        <time>2019-08-16T09:37:33Z</time>
      </trkpt>
      <trkpt lat="42.0308660" lon="-6.4705590">
        <ele>917.5</ele>
        <time>2019-08-16T09:37:34Z</time>
      </trkpt>
      <trkpt lat="42.0308670" lon="-6.4706130">
        <ele>917.5</ele>
        <time>2019-08-16T09:37:35Z</time>
      </trkpt>
      <trkpt lat="42.0308700" lon="-6.4706670">
        <ele>917.5</ele>
        <time>2019-08-16T09:37:36Z</time>
      </trkpt>
      <trkpt lat="42.0308720" lon="-6.4707220">
        <ele>917.5</ele>
        <time>2019-08-16T09:37:37Z</time>
      </trkpt>
      <trkpt lat="42.0308730" lon="-6.4707780">
        <ele>917.5</ele>
        <time>2019-08-16T09:37:38Z</time>
      </trkpt>
      <trkpt lat="42.0308730" lon="-6.4708360">
        <ele>917.5</ele>
        <time>2019-08-16T09:37:39Z</time>
      </trkpt>
      <trkpt lat="42.0308740" lon="-6.4708950">
        <ele>917.5</ele>
        <time>2019-08-16T09:37:40Z</time>
      </trkpt>
      <trkpt lat="42.0308760" lon="-6.4709540">
        <ele>917.4</ele>
        <time>2019-08-16T09:37:41Z</time>
      </trkpt>
      <trkpt lat="42.0308790" lon="-6.4710150">
        <ele>917.4</ele>
        <time>2019-08-16T09:37:42Z</time>
      </trkpt>
      <trkpt lat="42.0308820" lon="-6.4710760">
        <ele>917.4</ele>
        <time>2019-08-16T09:37:43Z</time>
      </trkpt>
      <trkpt lat="42.0308850" lon="-6.4711360">
        <ele>917.4</ele>
        <time>2019-08-16T09:37:44Z</time>
      </trkpt>
      <trkpt lat="42.0308900" lon="-6.4711950">
        <ele>917.3</ele>
        <time>2019-08-16T09:37:45Z</time>
      </trkpt>
      <trkpt lat="42.0308980" lon="-6.4712570">
        <ele>917.3</ele>
        <time>2019-08-16T09:37:46Z</time>
      </trkpt>
      <trkpt lat="42.0309110" lon="-6.4713190">
        <ele>917.2</ele>
        <time>2019-08-16T09:37:47Z</time>
      </trkpt>
      <trkpt lat="42.0309230" lon="-6.4713840">
        <ele>917.1</ele>
        <time>2019-08-16T09:37:48Z</time>
      </trkpt>
      <trkpt lat="42.0309360" lon="-6.4714530">
        <ele>916.9</ele>
        <time>2019-08-16T09:37:49Z</time>
      </trkpt>
      <trkpt lat="42.0309500" lon="-6.4715240">
        <ele>916.8</ele>
        <time>2019-08-16T09:37:50Z</time>
      </trkpt>
      <trkpt lat="42.0309640" lon="-6.4715990">
        <ele>916.6</ele>
        <time>2019-08-16T09:37:51Z</time>
      </trkpt>
      <trkpt lat="42.0309770" lon="-6.4716780">
        <ele>916.3</ele>
        <time>2019-08-16T09:37:52Z</time>
      </trkpt>
      <trkpt lat="42.0309890" lon="-6.4717610">
        <ele>916.0</ele>
        <time>2019-08-16T09:37:53Z</time>
      </trkpt>
      <trkpt lat="42.0309990" lon="-6.4718500">
        <ele>915.8</ele>
        <time>2019-08-16T09:37:54Z</time>
      </trkpt>
      <trkpt lat="42.0310080" lon="-6.4719430">
        <ele>915.5</ele>
        <time>2019-08-16T09:37:55Z</time>
      </trkpt>
      <trkpt lat="42.0310180" lon="-6.4720400">
        <ele>915.1</ele>
        <time>2019-08-16T09:37:56Z</time>
      </trkpt>
      <trkpt lat="42.0310310" lon="-6.4721410">
        <ele>914.7</ele>
        <time>2019-08-16T09:37:57Z</time>
      </trkpt>
      <trkpt lat="42.0310480" lon="-6.4722430">
        <ele>914.3</ele>
        <time>2019-08-16T09:37:58Z</time>
      </trkpt>
      <trkpt lat="42.0310700" lon="-6.4723500">
        <ele>913.7</ele>
        <time>2019-08-16T09:37:59Z</time>
      </trkpt>
      <trkpt lat="42.0310960" lon="-6.4724550">
        <ele>913.1</ele>
        <time>2019-08-16T09:38:00Z</time>
      </trkpt>
      <trkpt lat="42.0311230" lon="-6.4725600">
        <ele>912.5</ele>
        <time>2019-08-16T09:38:01Z</time>
      </trkpt>
      <trkpt lat="42.0311510" lon="-6.4726660">
        <ele>911.7</ele>
        <time>2019-08-16T09:38:02Z</time>
      </trkpt>
      <trkpt lat="42.0311820" lon="-6.4727690">
        <ele>911.2</ele>
        <time>2019-08-16T09:38:03Z</time>
      </trkpt>
      <trkpt lat="42.0312130" lon="-6.4728660">
        <ele>910.7</ele>
        <time>2019-08-16T09:38:04Z</time>
      </trkpt>
      <trkpt lat="42.0312470" lon="-6.4729530">
        <ele>910.4</ele>
        <time>2019-08-16T09:38:05Z</time>
      </trkpt>
      <trkpt lat="42.0312850" lon="-6.4730310">
        <ele>910.1</ele>
        <time>2019-08-16T09:38:06Z</time>
      </trkpt>
      <trkpt lat="42.0313300" lon="-6.4731040">
        <ele>909.9</ele>
        <time>2019-08-16T09:38:07Z</time>
      </trkpt>
      <trkpt lat="42.0313840" lon="-6.4731650">
        <ele>909.7</ele>
        <time>2019-08-16T09:38:08Z</time>
      </trkpt>
      <trkpt lat="42.0314440" lon="-6.4732130">
        <ele>909.5</ele>
        <time>2019-08-16T09:38:09Z</time>
      </trkpt>
      <trkpt lat="42.0315070" lon="-6.4732480">
        <ele>909.4</ele>
        <time>2019-08-16T09:38:10Z</time>
      </trkpt>
      <trkpt lat="42.0315690" lon="-6.4732770">
        <ele>909.3</ele>
        <time>2019-08-16T09:38:11Z</time>
      </trkpt>
      <trkpt lat="42.0316290" lon="-6.4733040">
        <ele>909.2</ele>
        <time>2019-08-16T09:38:12Z</time>
      </trkpt>
      <trkpt lat="42.0316860" lon="-6.4733310">
        <ele>909.2</ele>
        <time>2019-08-16T09:38:13Z</time>
      </trkpt>
      <trkpt lat="42.0317390" lon="-6.4733610">
        <ele>909.2</ele>
        <time>2019-08-16T09:38:14Z</time>
      </trkpt>
      <trkpt lat="42.0317900" lon="-6.4733900">
        <ele>909.1</ele>
        <time>2019-08-16T09:38:15Z</time>
      </trkpt>
      <trkpt lat="42.0318380" lon="-6.4734170">
        <ele>909.1</ele>
        <time>2019-08-16T09:38:16Z</time>
      </trkpt>
      <trkpt lat="42.0318810" lon="-6.4734440">
        <ele>909.1</ele>
        <time>2019-08-16T09:38:17Z</time>
      </trkpt>
      <trkpt lat="42.0319220" lon="-6.4734690">
        <ele>909.1</ele>
        <time>2019-08-16T09:38:18Z</time>
      </trkpt>
      <trkpt lat="42.0319610" lon="-6.4734950">
        <ele>909.1</ele>
        <time>2019-08-16T09:38:19Z</time>
      </trkpt>
      <trkpt lat="42.0319950" lon="-6.4735230">
        <ele>909.0</ele>
        <time>2019-08-16T09:38:20Z</time>
      </trkpt>
      <trkpt lat="42.0320270" lon="-6.4735520">
        <ele>909.0</ele>
        <time>2019-08-16T09:38:21Z</time>
      </trkpt>
      <trkpt lat="42.0320580" lon="-6.4735790">
        <ele>909.0</ele>
        <time>2019-08-16T09:38:22Z</time>
      </trkpt>
      <trkpt lat="42.0320870" lon="-6.4736070">
        <ele>909.0</ele>
        <time>2019-08-16T09:38:23Z</time>
      </trkpt>
      <trkpt lat="42.0321140" lon="-6.4736350">
        <ele>909.0</ele>
        <time>2019-08-16T09:38:24Z</time>
      </trkpt>
      <trkpt lat="42.0321400" lon="-6.4736630">
        <ele>909.0</ele>
        <time>2019-08-16T09:38:25Z</time>
      </trkpt>
      <trkpt lat="42.0321650" lon="-6.4736930">
        <ele>909.0</ele>
        <time>2019-08-16T09:38:26Z</time>
      </trkpt>
      <trkpt lat="42.0321870" lon="-6.4737200">
        <ele>909.0</ele>
        <time>2019-08-16T09:38:27Z</time>
      </trkpt>
      <trkpt lat="42.0322090" lon="-6.4737480">
        <ele>909.0</ele>
        <time>2019-08-16T09:38:28Z</time>
      </trkpt>
      <trkpt lat="42.0322260" lon="-6.4737760">
        <ele>909.0</ele>
        <time>2019-08-16T09:38:29Z</time>
      </trkpt>
      <trkpt lat="42.0322520" lon="-6.4738390">
        <ele>909.0</ele>
        <time>2019-08-16T09:38:31Z</time>
      </trkpt>
      <trkpt lat="42.0322650" lon="-6.4739080">
        <ele>909.1</ele>
        <time>2019-08-16T09:38:33Z</time>
      </trkpt>
      <trkpt lat="42.0322670" lon="-6.4739460">
        <ele>909.1</ele>
        <time>2019-08-16T09:38:34Z</time>
      </trkpt>
      <trkpt lat="42.0322680" lon="-6.4739860">
        <ele>909.2</ele>
        <time>2019-08-16T09:38:35Z</time>
      </trkpt>
      <trkpt lat="42.0322690" lon="-6.4740290">
        <ele>909.2</ele>
        <time>2019-08-16T09:38:36Z</time>
      </trkpt>
      <trkpt lat="42.0322730" lon="-6.4740740">
        <ele>909.3</ele>
        <time>2019-08-16T09:38:37Z</time>
      </trkpt>
      <trkpt lat="42.0322790" lon="-6.4741150">
        <ele>909.3</ele>
        <time>2019-08-16T09:38:38Z</time>
      </trkpt>
      <trkpt lat="42.0322890" lon="-6.4741780">
        <ele>909.4</ele>
        <time>2019-08-16T09:38:40Z</time>
      </trkpt>
      <trkpt lat="42.0322950" lon="-6.4742270">
        <ele>909.5</ele>
        <time>2019-08-16T09:38:42Z</time>
      </trkpt>
      <trkpt lat="42.0322800" lon="-6.4742580">
        <ele>909.6</ele>
        <time>2019-08-16T09:38:44Z</time>
      </trkpt>
      <trkpt lat="42.0322530" lon="-6.4742380">
        <ele>909.6</ele>
        <time>2019-08-16T09:38:46Z</time>
      </trkpt>
      <trkpt lat="42.0322560" lon="-6.4741880">
        <ele>909.7</ele>
        <time>2019-08-16T09:38:48Z</time>
      </trkpt>
      <trkpt lat="42.0322620" lon="-6.4741360">
        <ele>909.8</ele>
        <time>2019-08-16T09:38:50Z</time>
      </trkpt>
      <trkpt lat="42.0322410" lon="-6.4740860">
        <ele>909.9</ele>
        <time>2019-08-16T09:38:52Z</time>
      </trkpt>
      <trkpt lat="42.0322090" lon="-6.4740550">
        <ele>910.0</ele>
        <time>2019-08-16T09:38:54Z</time>
      </trkpt>
      <trkpt lat="42.0321900" lon="-6.4740520">
        <ele>910.1</ele>
        <time>2019-08-16T09:39:01Z</time>
      </trkpt>
      <trkpt lat="42.0322480" lon="-6.4741300">
        <ele>910.3</ele>
        <time>2019-08-16T09:39:55Z</time>
      </trkpt>
      <trkpt lat="42.0322670" lon="-6.4741630">
        <ele>910.4</ele>
        <time>2019-08-16T09:39:57Z</time>
      </trkpt>
      <trkpt lat="42.0322880" lon="-6.4742220">
        <ele>910.6</ele>
        <time>2019-08-16T09:39:59Z</time>
      </trkpt>
      <trkpt lat="42.0323020" lon="-6.4742590">
        <ele>910.5</ele>
        <time>2019-08-16T09:40:00Z</time>
      </trkpt>
      <trkpt lat="42.0323110" lon="-6.4743030">
        <ele>910.4</ele>
        <time>2019-08-16T09:40:01Z</time>
      </trkpt>
      <trkpt lat="42.0323230" lon="-6.4743440">
        <ele>910.3</ele>
        <time>2019-08-16T09:40:02Z</time>
      </trkpt>
      <trkpt lat="42.0323360" lon="-6.4743840">
        <ele>910.2</ele>
        <time>2019-08-16T09:40:03Z</time>
      </trkpt>
      <trkpt lat="42.0323480" lon="-6.4744230">
        <ele>910.1</ele>
        <time>2019-08-16T09:40:04Z</time>
      </trkpt>
      <trkpt lat="42.0323610" lon="-6.4744580">
        <ele>910.0</ele>
        <time>2019-08-16T09:40:05Z</time>
      </trkpt>
      <trkpt lat="42.0323810" lon="-6.4744920">
        <ele>910.0</ele>
        <time>2019-08-16T09:40:06Z</time>
      </trkpt>
      <trkpt lat="42.0324010" lon="-6.4745240">
        <ele>910.0</ele>
        <time>2019-08-16T09:40:07Z</time>
      </trkpt>
      <trkpt lat="42.0324220" lon="-6.4745500">
        <ele>910.0</ele>
        <time>2019-08-16T09:40:08Z</time>
      </trkpt>
      <trkpt lat="42.0324430" lon="-6.4745750">
        <ele>910.0</ele>
        <time>2019-08-16T09:40:09Z</time>
      </trkpt>
      <trkpt lat="42.0324830" lon="-6.4746230">
        <ele>910.0</ele>
        <time>2019-08-16T09:40:11Z</time>
      </trkpt>
      <trkpt lat="42.0325070" lon="-6.4746420">
        <ele>910.1</ele>
        <time>2019-08-16T09:40:12Z</time>
      </trkpt>
      <trkpt lat="42.0325340" lon="-6.4746620">
        <ele>910.1</ele>
        <time>2019-08-16T09:40:13Z</time>
      </trkpt>
      <trkpt lat="42.0325600" lon="-6.4746820">
        <ele>910.1</ele>
        <time>2019-08-16T09:40:14Z</time>
      </trkpt>
      <trkpt lat="42.0325840" lon="-6.4747040">
        <ele>910.1</ele>
        <time>2019-08-16T09:40:15Z</time>
      </trkpt>
      <trkpt lat="42.0326080" lon="-6.4747280">
        <ele>910.1</ele>
        <time>2019-08-16T09:40:16Z</time>
      </trkpt>
      <trkpt lat="42.0326310" lon="-6.4747520">
        <ele>910.1</ele>
        <time>2019-08-16T09:40:17Z</time>
      </trkpt>
      <trkpt lat="42.0326560" lon="-6.4747760">
        <ele>910.2</ele>
        <time>2019-08-16T09:40:18Z</time>
      </trkpt>
      <trkpt lat="42.0326770" lon="-6.4748060">
        <ele>910.2</ele>
        <time>2019-08-16T09:40:19Z</time>
      </trkpt>
      <trkpt lat="42.0326990" lon="-6.4748340">
        <ele>910.1</ele>
        <time>2019-08-16T09:40:20Z</time>
      </trkpt>
      <trkpt lat="42.0327220" lon="-6.4748590">
        <ele>910.1</ele>
        <time>2019-08-16T09:40:21Z</time>
      </trkpt>
      <trkpt lat="42.0327430" lon="-6.4748830">
        <ele>910.2</ele>
        <time>2019-08-16T09:40:22Z</time>
      </trkpt>
      <trkpt lat="42.0327680" lon="-6.4749040">
        <ele>910.3</ele>
        <time>2019-08-16T09:40:23Z</time>
      </trkpt>
      <trkpt lat="42.0327970" lon="-6.4749190">
        <ele>910.4</ele>
        <time>2019-08-16T09:40:24Z</time>
      </trkpt>
      <trkpt lat="42.0328290" lon="-6.4749280">
        <ele>910.6</ele>
        <time>2019-08-16T09:40:25Z</time>
      </trkpt>
      <trkpt lat="42.0328610" lon="-6.4749330">
        <ele>910.7</ele>
        <time>2019-08-16T09:40:26Z</time>
      </trkpt>
      <trkpt lat="42.0328940" lon="-6.4749350">
        <ele>910.8</ele>
        <time>2019-08-16T09:40:27Z</time>
      </trkpt>
      <trkpt lat="42.0329250" lon="-6.4749340">
        <ele>911.0</ele>
        <time>2019-08-16T09:40:28Z</time>
      </trkpt>
      <trkpt lat="42.0329560" lon="-6.4749300">
        <ele>911.1</ele>
        <time>2019-08-16T09:40:29Z</time>
      </trkpt>
      <trkpt lat="42.0329850" lon="-6.4749230">
        <ele>911.3</ele>
        <time>2019-08-16T09:40:30Z</time>
      </trkpt>
      <trkpt lat="42.0330360" lon="-6.4749130">
        <ele>911.6</ele>
        <time>2019-08-16T09:40:32Z</time>
      </trkpt>
      <trkpt lat="42.0330840" lon="-6.4749020">
        <ele>911.8</ele>
        <time>2019-08-16T09:40:34Z</time>
      </trkpt>
      <trkpt lat="42.0331330" lon="-6.4748900">
        <ele>912.1</ele>
        <time>2019-08-16T09:40:36Z</time>
      </trkpt>
      <trkpt lat="42.0331810" lon="-6.4748760">
        <ele>912.4</ele>
        <time>2019-08-16T09:40:38Z</time>
      </trkpt>
      <trkpt lat="42.0332250" lon="-6.4748610">
        <ele>912.8</ele>
        <time>2019-08-16T09:40:40Z</time>
      </trkpt>
      <trkpt lat="42.0332680" lon="-6.4748450">
        <ele>913.1</ele>
        <time>2019-08-16T09:40:42Z</time>
      </trkpt>
      <trkpt lat="42.0333100" lon="-6.4748310">
        <ele>913.4</ele>
        <time>2019-08-16T09:40:44Z</time>
      </trkpt>
      <trkpt lat="42.0333500" lon="-6.4748160">
        <ele>913.6</ele>
        <time>2019-08-16T09:40:46Z</time>
      </trkpt>
      <trkpt lat="42.0333890" lon="-6.4747940">
        <ele>914.0</ele>
        <time>2019-08-16T09:40:48Z</time>
      </trkpt>
      <trkpt lat="42.0334290" lon="-6.4747710">
        <ele>914.3</ele>
        <time>2019-08-16T09:40:50Z</time>
      </trkpt>
      <trkpt lat="42.0334690" lon="-6.4747490">
        <ele>914.6</ele>
        <time>2019-08-16T09:40:52Z</time>
      </trkpt>
      <trkpt lat="42.0335090" lon="-6.4747240">
        <ele>914.9</ele>
        <time>2019-08-16T09:40:54Z</time>
      </trkpt>
      <trkpt lat="42.0335480" lon="-6.4747000">
        <ele>915.2</ele>
        <time>2019-08-16T09:40:56Z</time>
      </trkpt>
      <trkpt lat="42.0335850" lon="-6.4746720">
        <ele>915.6</ele>
        <time>2019-08-16T09:40:58Z</time>
      </trkpt>
      <trkpt lat="42.0336200" lon="-6.4746440">
        <ele>915.9</ele>
        <time>2019-08-16T09:41:00Z</time>
      </trkpt>
      <trkpt lat="42.0336560" lon="-6.4746170">
        <ele>916.3</ele>
        <time>2019-08-16T09:41:02Z</time>
      </trkpt>
      <trkpt lat="42.0336950" lon="-6.4745920">
        <ele>916.6</ele>
        <time>2019-08-16T09:41:04Z</time>
      </trkpt>
      <trkpt lat="42.0337330" lon="-6.4745680">
        <ele>916.9</ele>
        <time>2019-08-16T09:41:06Z</time>
      </trkpt>
      <trkpt lat="42.0337740" lon="-6.4745450">
        <ele>917.2</ele>
        <time>2019-08-16T09:41:08Z</time>
      </trkpt>
      <trkpt lat="42.0338220" lon="-6.4745130">
        <ele>917.5</ele>
        <time>2019-08-16T09:41:10Z</time>
      </trkpt>
      <trkpt lat="42.0338480" lon="-6.4744960">
        <ele>917.7</ele>
        <time>2019-08-16T09:41:11Z</time>
      </trkpt>
      <trkpt lat="42.0338760" lon="-6.4744790">
        <ele>917.8</ele>
        <time>2019-08-16T09:41:12Z</time>
      </trkpt>
      <trkpt lat="42.0339040" lon="-6.4744600">
        <ele>917.9</ele>
        <time>2019-08-16T09:41:13Z</time>
      </trkpt>
      <trkpt lat="42.0339320" lon="-6.4744400">
        <ele>918.1</ele>
        <time>2019-08-16T09:41:14Z</time>
      </trkpt>
      <trkpt lat="42.0339600" lon="-6.4744190">
        <ele>918.2</ele>
        <time>2019-08-16T09:41:15Z</time>
      </trkpt>
      <trkpt lat="42.0339860" lon="-6.4744000">
        <ele>918.2</ele>
        <time>2019-08-16T09:41:16Z</time>
      </trkpt>
      <trkpt lat="42.0340130" lon="-6.4743830">
        <ele>918.3</ele>
        <time>2019-08-16T09:41:17Z</time>
      </trkpt>
      <trkpt lat="42.0340390" lon="-6.4743670">
        <ele>918.4</ele>
        <time>2019-08-16T09:41:18Z</time>
      </trkpt>
      <trkpt lat="42.0340660" lon="-6.4743510">
        <ele>918.5</ele>
        <time>2019-08-16T09:41:19Z</time>
      </trkpt>
      <trkpt lat="42.0340940" lon="-6.4743360">
        <ele>918.5</ele>
        <time>2019-08-16T09:41:20Z</time>
      </trkpt>
      <trkpt lat="42.0341230" lon="-6.4743210">
        <ele>918.6</ele>
        <time>2019-08-16T09:41:21Z</time>
      </trkpt>
      <trkpt lat="42.0341520" lon="-6.4743050">
        <ele>918.7</ele>
        <time>2019-08-16T09:41:22Z</time>
      </trkpt>
      <trkpt lat="42.0341820" lon="-6.4742880">
        <ele>918.7</ele>
        <time>2019-08-16T09:41:23Z</time>
      </trkpt>
      <trkpt lat="42.0342140" lon="-6.4742700">
        <ele>918.8</ele>
        <time>2019-08-16T09:41:24Z</time>
      </trkpt>
      <trkpt lat="42.0342480" lon="-6.4742490">
        <ele>918.9</ele>
        <time>2019-08-16T09:41:25Z</time>
      </trkpt>
      <trkpt lat="42.0342820" lon="-6.4742260">
        <ele>919.0</ele>
        <time>2019-08-16T09:41:26Z</time>
      </trkpt>
      <trkpt lat="42.0343170" lon="-6.4742020">
        <ele>919.1</ele>
        <time>2019-08-16T09:41:27Z</time>
      </trkpt>
      <trkpt lat="42.0343530" lon="-6.4741790">
        <ele>919.2</ele>
        <time>2019-08-16T09:41:28Z</time>
      </trkpt>
      <trkpt lat="42.0343900" lon="-6.4741580">
        <ele>919.2</ele>
        <time>2019-08-16T09:41:29Z</time>
      </trkpt>
      <trkpt lat="42.0344280" lon="-6.4741360">
        <ele>919.3</ele>
        <time>2019-08-16T09:41:30Z</time>
      </trkpt>
      <trkpt lat="42.0344660" lon="-6.4741110">
        <ele>919.3</ele>
        <time>2019-08-16T09:41:31Z</time>
      </trkpt>
      <trkpt lat="42.0345030" lon="-6.4740870">
        <ele>919.4</ele>
        <time>2019-08-16T09:41:32Z</time>
      </trkpt>
      <trkpt lat="42.0345400" lon="-6.4740640">
        <ele>919.4</ele>
        <time>2019-08-16T09:41:33Z</time>
      </trkpt>
      <trkpt lat="42.0345750" lon="-6.4740420">
        <ele>919.5</ele>
        <time>2019-08-16T09:41:34Z</time>
      </trkpt>
      <trkpt lat="42.0346110" lon="-6.4740210">
        <ele>919.5</ele>
        <time>2019-08-16T09:41:35Z</time>
      </trkpt>
      <trkpt lat="42.0346440" lon="-6.4740030">
        <ele>919.6</ele>
        <time>2019-08-16T09:41:36Z</time>
      </trkpt>
      <trkpt lat="42.0346710" lon="-6.4739920">
        <ele>919.7</ele>
        <time>2019-08-16T09:41:37Z</time>
      </trkpt>
      <trkpt lat="42.0347020" lon="-6.4739930">
        <ele>919.7</ele>
        <time>2019-08-16T09:41:39Z</time>
      </trkpt>
      <trkpt lat="42.0347210" lon="-6.4740280">
        <ele>919.7</ele>
        <time>2019-08-16T09:41:42Z</time>
      </trkpt>
      <trkpt lat="42.0347200" lon="-6.4740740">
        <ele>919.7</ele>
        <time>2019-08-16T09:41:45Z</time>
      </trkpt>
      <trkpt lat="42.0346840" lon="-6.4740780">
        <ele>919.7</ele>
        <time>2019-08-16T09:41:48Z</time>
      </trkpt>
      <trkpt lat="42.0347060" lon="-6.4740880">
        <ele>919.7</ele>
        <time>2019-08-16T09:42:17Z</time>
      </trkpt>
      <trkpt lat="42.0347290" lon="-6.4741200">
        <ele>920.1</ele>
        <time>2019-08-16T09:42:19Z</time>
      </trkpt>
      <trkpt lat="42.0347360" lon="-6.4741450">
        <ele>920.2</ele>
        <time>2019-08-16T09:42:25Z</time>
      </trkpt>
      <trkpt lat="42.0347940" lon="-6.4741690">
        <ele>920.4</ele>
        <time>2019-08-16T09:43:14Z</time>
      </trkpt>
      <trkpt lat="42.0348220" lon="-6.4741700">
        <ele>920.5</ele>
        <time>2019-08-16T09:43:15Z</time>
      </trkpt>
      <trkpt lat="42.0348550" lon="-6.4741720">
        <ele>920.6</ele>
        <time>2019-08-16T09:43:16Z</time>
      </trkpt>
      <trkpt lat="42.0348900" lon="-6.4741750">
        <ele>920.7</ele>
        <time>2019-08-16T09:43:17Z</time>
      </trkpt>
      <trkpt lat="42.0349260" lon="-6.4741760">
        <ele>920.9</ele>
        <time>2019-08-16T09:43:18Z</time>
      </trkpt>
      <trkpt lat="42.0349650" lon="-6.4741770">
        <ele>921.0</ele>
        <time>2019-08-16T09:43:19Z</time>
      </trkpt>
      <trkpt lat="42.0350030" lon="-6.4741780">
        <ele>921.1</ele>
        <time>2019-08-16T09:43:20Z</time>
      </trkpt>
      <trkpt lat="42.0350430" lon="-6.4741810">
        <ele>921.2</ele>
        <time>2019-08-16T09:43:21Z</time>
      </trkpt>
      <trkpt lat="42.0350820" lon="-6.4741820">
        <ele>921.4</ele>
        <time>2019-08-16T09:43:22Z</time>
      </trkpt>
      <trkpt lat="42.0351200" lon="-6.4741790">
        <ele>921.5</ele>
        <time>2019-08-16T09:43:23Z</time>
      </trkpt>
      <trkpt lat="42.0351570" lon="-6.4741730">
        <ele>921.7</ele>
        <time>2019-08-16T09:43:24Z</time>
      </trkpt>
      <trkpt lat="42.0351930" lon="-6.4741650">
        <ele>921.8</ele>
        <time>2019-08-16T09:43:25Z</time>
      </trkpt>
      <trkpt lat="42.0352290" lon="-6.4741560">
        <ele>921.9</ele>
        <time>2019-08-16T09:43:26Z</time>
      </trkpt>
      <trkpt lat="42.0352660" lon="-6.4741490">
        <ele>922.1</ele>
        <time>2019-08-16T09:43:27Z</time>
      </trkpt>
      <trkpt lat="42.0353020" lon="-6.4741420">
        <ele>922.2</ele>
        <time>2019-08-16T09:43:28Z</time>
      </trkpt>
      <trkpt lat="42.0353390" lon="-6.4741350">
        <ele>922.3</ele>
        <time>2019-08-16T09:43:29Z</time>
      </trkpt>
      <trkpt lat="42.0353750" lon="-6.4741290">
        <ele>922.4</ele>
        <time>2019-08-16T09:43:30Z</time>
      </trkpt>
      <trkpt lat="42.0354090" lon="-6.4741320">
        <ele>922.5</ele>
        <time>2019-08-16T09:43:31Z</time>
      </trkpt>
      <trkpt lat="42.0354410" lon="-6.4741380">
        <ele>922.6</ele>
        <time>2019-08-16T09:43:32Z</time>
      </trkpt>
      <trkpt lat="42.0354720" lon="-6.4741430">
        <ele>922.7</ele>
        <time>2019-08-16T09:43:33Z</time>
      </trkpt>
      <trkpt lat="42.0355030" lon="-6.4741470">
        <ele>922.7</ele>
        <time>2019-08-16T09:43:34Z</time>
      </trkpt>
      <trkpt lat="42.0355350" lon="-6.4741500">
        <ele>922.8</ele>
        <time>2019-08-16T09:43:35Z</time>
      </trkpt>
      <trkpt lat="42.0355670" lon="-6.4741550">
        <ele>922.8</ele>
        <time>2019-08-16T09:43:36Z</time>
      </trkpt>
      <trkpt lat="42.0355980" lon="-6.4741620">
        <ele>922.8</ele>
        <time>2019-08-16T09:43:37Z</time>
      </trkpt>
      <trkpt lat="42.0356290" lon="-6.4741690">
        <ele>922.8</ele>
        <time>2019-08-16T09:43:38Z</time>
      </trkpt>
      <trkpt lat="42.0356590" lon="-6.4741770">
        <ele>922.8</ele>
        <time>2019-08-16T09:43:39Z</time>
      </trkpt>
      <trkpt lat="42.0356860" lon="-6.4741860">
        <ele>922.8</ele>
        <time>2019-08-16T09:43:40Z</time>
      </trkpt>
      <trkpt lat="42.0357120" lon="-6.4741960">
        <ele>922.8</ele>
        <time>2019-08-16T09:43:41Z</time>
      </trkpt>
      <trkpt lat="42.0357390" lon="-6.4742060">
        <ele>922.8</ele>
        <time>2019-08-16T09:43:42Z</time>
      </trkpt>
      <trkpt lat="42.0357680" lon="-6.4742160">
        <ele>922.8</ele>
        <time>2019-08-16T09:43:43Z</time>
      </trkpt>
      <trkpt lat="42.0357970" lon="-6.4742240">
        <ele>922.7</ele>
        <time>2019-08-16T09:43:44Z</time>
      </trkpt>
      <trkpt lat="42.0358280" lon="-6.4742330">
        <ele>922.7</ele>
        <time>2019-08-16T09:43:45Z</time>
      </trkpt>
      <trkpt lat="42.0358580" lon="-6.4742410">
        <ele>922.6</ele>
        <time>2019-08-16T09:43:46Z</time>
      </trkpt>
      <trkpt lat="42.0358860" lon="-6.4742510">
        <ele>922.6</ele>
        <time>2019-08-16T09:43:47Z</time>
      </trkpt>
      <trkpt lat="42.0359130" lon="-6.4742620">
        <ele>922.5</ele>
        <time>2019-08-16T09:43:48Z</time>
      </trkpt>
      <trkpt lat="42.0359390" lon="-6.4742710">
        <ele>922.4</ele>
        <time>2019-08-16T09:43:49Z</time>
      </trkpt>
      <trkpt lat="42.0359660" lon="-6.4742780">
        <ele>922.4</ele>
        <time>2019-08-16T09:43:50Z</time>
      </trkpt>
      <trkpt lat="42.0359940" lon="-6.4742850">
        <ele>922.3</ele>
        <time>2019-08-16T09:43:51Z</time>
      </trkpt>
      <trkpt lat="42.0360220" lon="-6.4742930">
        <ele>922.2</ele>
        <time>2019-08-16T09:43:52Z</time>
      </trkpt>
      <trkpt lat="42.0360500" lon="-6.4743020">
        <ele>922.0</ele>
        <time>2019-08-16T09:43:53Z</time>
      </trkpt>
      <trkpt lat="42.0360770" lon="-6.4743100">
        <ele>921.9</ele>
        <time>2019-08-16T09:43:54Z</time>
      </trkpt>
      <trkpt lat="42.0361280" lon="-6.4743220">
        <ele>921.6</ele>
        <time>2019-08-16T09:43:56Z</time>
      </trkpt>
      <trkpt lat="42.0361790" lon="-6.4743340">
        <ele>921.3</ele>
        <time>2019-08-16T09:43:58Z</time>
      </trkpt>
      <trkpt lat="42.0362060" lon="-6.4743420">
        <ele>921.1</ele>
        <time>2019-08-16T09:43:59Z</time>
      </trkpt>
      <trkpt lat="42.0362350" lon="-6.4743490">
        <ele>920.8</ele>
        <time>2019-08-16T09:44:00Z</time>
      </trkpt>
      <trkpt lat="42.0362660" lon="-6.4743580">
        <ele>920.6</ele>
        <time>2019-08-16T09:44:01Z</time>
      </trkpt>
      <trkpt lat="42.0362990" lon="-6.4743660">
        <ele>920.3</ele>
        <time>2019-08-16T09:44:02Z</time>
      </trkpt>
      <trkpt lat="42.0363320" lon="-6.4743740">
        <ele>920.1</ele>
        <time>2019-08-16T09:44:03Z</time>
      </trkpt>
      <trkpt lat="42.0363660" lon="-6.4743840">
        <ele>919.8</ele>
        <time>2019-08-16T09:44:04Z</time>
      </trkpt>
      <trkpt lat="42.0364010" lon="-6.4743960">
        <ele>919.5</ele>
        <time>2019-08-16T09:44:05Z</time>
      </trkpt>
      <trkpt lat="42.0364370" lon="-6.4744080">
        <ele>919.3</ele>
        <time>2019-08-16T09:44:06Z</time>
      </trkpt>
      <trkpt lat="42.0364750" lon="-6.4744180">
        <ele>919.0</ele>
        <time>2019-08-16T09:44:07Z</time>
      </trkpt>
      <trkpt lat="42.0365140" lon="-6.4744280">
        <ele>918.7</ele>
        <time>2019-08-16T09:44:08Z</time>
      </trkpt>
      <trkpt lat="42.0365550" lon="-6.4744360">
        <ele>918.4</ele>
        <time>2019-08-16T09:44:09Z</time>
      </trkpt>
      <trkpt lat="42.0365970" lon="-6.4744430">
        <ele>918.1</ele>
        <time>2019-08-16T09:44:10Z</time>
      </trkpt>
      <trkpt lat="42.0366400" lon="-6.4744520">
        <ele>917.7</ele>
        <time>2019-08-16T09:44:11Z</time>
      </trkpt>
      <trkpt lat="42.0366810" lon="-6.4744630">
        <ele>917.4</ele>
        <time>2019-08-16T09:44:12Z</time>
      </trkpt>
      <trkpt lat="42.0367230" lon="-6.4744760">
        <ele>917.0</ele>
        <time>2019-08-16T09:44:13Z</time>
      </trkpt>
      <trkpt lat="42.0367640" lon="-6.4744900">
        <ele>916.7</ele>
        <time>2019-08-16T09:44:14Z</time>
      </trkpt>
      <trkpt lat="42.0368020" lon="-6.4745050">
        <ele>916.4</ele>
        <time>2019-08-16T09:44:15Z</time>
      </trkpt>
      <trkpt lat="42.0368330" lon="-6.4745240">
        <ele>916.1</ele>
        <time>2019-08-16T09:44:16Z</time>
      </trkpt>
      <trkpt lat="42.0368580" lon="-6.4745560">
        <ele>915.8</ele>
        <time>2019-08-16T09:44:17Z</time>
      </trkpt>
      <trkpt lat="42.0368750" lon="-6.4745990">
        <ele>915.6</ele>
        <time>2019-08-16T09:44:18Z</time>
      </trkpt>
      <trkpt lat="42.0368860" lon="-6.4746460">
        <ele>915.3</ele>
        <time>2019-08-16T09:44:19Z</time>
      </trkpt>
      <trkpt lat="42.0368960" lon="-6.4746960">
        <ele>915.1</ele>
        <time>2019-08-16T09:44:20Z</time>
      </trkpt>
      <trkpt lat="42.0369060" lon="-6.4747510">
        <ele>914.9</ele>
        <time>2019-08-16T09:44:21Z</time>
      </trkpt>
      <trkpt lat="42.0369160" lon="-6.4748110">
        <ele>914.6</ele>
        <time>2019-08-16T09:44:22Z</time>
      </trkpt>
      <trkpt lat="42.0369280" lon="-6.4748760">
        <ele>914.4</ele>
        <time>2019-08-16T09:44:23Z</time>
      </trkpt>
      <trkpt lat="42.0369490" lon="-6.4749440">
        <ele>914.2</ele>
        <time>2019-08-16T09:44:24Z</time>
      </trkpt>
      <trkpt lat="42.0369690" lon="-6.4750130">
        <ele>914.0</ele>
        <time>2019-08-16T09:44:25Z</time>
      </trkpt>
      <trkpt lat="42.0369860" lon="-6.4750880">
        <ele>913.9</ele>
        <time>2019-08-16T09:44:26Z</time>
      </trkpt>
      <trkpt lat="42.0370010" lon="-6.4751640">
        <ele>913.8</ele>
        <time>2019-08-16T09:44:27Z</time>
      </trkpt>
      <trkpt lat="42.0370140" lon="-6.4752390">
        <ele>913.8</ele>
        <time>2019-08-16T09:44:28Z</time>
      </trkpt>
      <trkpt lat="42.0370220" lon="-6.4753120">
        <ele>913.8</ele>
        <time>2019-08-16T09:44:29Z</time>
      </trkpt>
      <trkpt lat="42.0370350" lon="-6.4753780">
        <ele>913.9</ele>
        <time>2019-08-16T09:44:30Z</time>
      </trkpt>
      <trkpt lat="42.0370560" lon="-6.4754380">
        <ele>914.0</ele>
        <time>2019-08-16T09:44:31Z</time>
      </trkpt>
      <trkpt lat="42.0370890" lon="-6.4754970">
        <ele>914.2</ele>
        <time>2019-08-16T09:44:32Z</time>
      </trkpt>
      <trkpt lat="42.0371310" lon="-6.4755560">
        <ele>914.5</ele>
        <time>2019-08-16T09:44:33Z</time>
      </trkpt>
      <trkpt lat="42.0371810" lon="-6.4756110">
        <ele>914.9</ele>
        <time>2019-08-16T09:44:34Z</time>
      </trkpt>
      <trkpt lat="42.0372270" lon="-6.4756740">
        <ele>915.4</ele>
        <time>2019-08-16T09:44:35Z</time>
      </trkpt>
      <trkpt lat="42.0372670" lon="-6.4757460">
        <ele>915.8</ele>
        <time>2019-08-16T09:44:36Z</time>
      </trkpt>
      <trkpt lat="42.0372990" lon="-6.4758250">
        <ele>916.2</ele>
        <time>2019-08-16T09:44:37Z</time>
      </trkpt>
      <trkpt lat="42.0373300" lon="-6.4759020">
        <ele>916.5</ele>
        <time>2019-08-16T09:44:38Z</time>
      </trkpt>
      <trkpt lat="42.0373640" lon="-6.4759750">
        <ele>916.9</ele>
        <time>2019-08-16T09:44:39Z</time>
      </trkpt>
      <trkpt lat="42.0374030" lon="-6.4760360">
        <ele>917.3</ele>
        <time>2019-08-16T09:44:40Z</time>
      </trkpt>
      <trkpt lat="42.0374420" lon="-6.4760880">
        <ele>917.7</ele>
        <time>2019-08-16T09:44:41Z</time>
      </trkpt>
      <trkpt lat="42.0374790" lon="-6.4761350">
        <ele>918.0</ele>
        <time>2019-08-16T09:44:42Z</time>
      </trkpt>
      <trkpt lat="42.0375110" lon="-6.4761770">
        <ele>918.4</ele>
        <time>2019-08-16T09:44:43Z</time>
      </trkpt>
      <trkpt lat="42.0375390" lon="-6.4762120">
        <ele>918.7</ele>
        <time>2019-08-16T09:44:44Z</time>
      </trkpt>
      <trkpt lat="42.0375640" lon="-6.4762400">
        <ele>919.0</ele>
        <time>2019-08-16T09:44:45Z</time>
      </trkpt>
      <trkpt lat="42.0375850" lon="-6.4762660">
        <ele>919.2</ele>
        <time>2019-08-16T09:44:46Z</time>
      </trkpt>
      <trkpt lat="42.0376210" lon="-6.4763120">
        <ele>919.5</ele>
        <time>2019-08-16T09:44:48Z</time>
      </trkpt>
      <trkpt lat="42.0376530" lon="-6.4763550">
        <ele>919.8</ele>
        <time>2019-08-16T09:44:50Z</time>
      </trkpt>
      <trkpt lat="42.0376870" lon="-6.4764010">
        <ele>920.1</ele>
        <time>2019-08-16T09:44:52Z</time>
      </trkpt>
      <trkpt lat="42.0377200" lon="-6.4764450">
        <ele>920.4</ele>
        <time>2019-08-16T09:44:54Z</time>
      </trkpt>
      <trkpt lat="42.0377560" lon="-6.4764840">
        <ele>920.6</ele>
        <time>2019-08-16T09:44:56Z</time>
      </trkpt>
      <trkpt lat="42.0377960" lon="-6.4765190">
        <ele>920.9</ele>
        <time>2019-08-16T09:44:58Z</time>
      </trkpt>
      <trkpt lat="42.0378380" lon="-6.4765510">
        <ele>921.2</ele>
        <time>2019-08-16T09:45:00Z</time>
      </trkpt>
      <trkpt lat="42.0378880" lon="-6.4765720">
        <ele>921.5</ele>
        <time>2019-08-16T09:45:02Z</time>
      </trkpt>
      <trkpt lat="42.0379360" lon="-6.4765870">
        <ele>921.9</ele>
        <time>2019-08-16T09:45:04Z</time>
      </trkpt>
      <trkpt lat="42.0379810" lon="-6.4765970">
        <ele>922.3</ele>
        <time>2019-08-16T09:45:06Z</time>
      </trkpt>
      <trkpt lat="42.0380310" lon="-6.4765950">
        <ele>922.7</ele>
        <time>2019-08-16T09:45:08Z</time>
      </trkpt>
      <trkpt lat="42.0380830" lon="-6.4765880">
        <ele>923.2</ele>
        <time>2019-08-16T09:45:10Z</time>
      </trkpt>
      <trkpt lat="42.0381350" lon="-6.4765810">
        <ele>923.5</ele>
        <time>2019-08-16T09:45:12Z</time>
      </trkpt>
      <trkpt lat="42.0381630" lon="-6.4765770">
        <ele>923.7</ele>
        <time>2019-08-16T09:45:13Z</time>
      </trkpt>
      <trkpt lat="42.0382140" lon="-6.4765790">
        <ele>924.0</ele>
        <time>2019-08-16T09:45:15Z</time>
      </trkpt>
      <trkpt lat="42.0382620" lon="-6.4765830">
        <ele>924.3</ele>
        <time>2019-08-16T09:45:17Z</time>
      </trkpt>
      <trkpt lat="42.0383100" lon="-6.4765870">
        <ele>924.6</ele>
        <time>2019-08-16T09:45:19Z</time>
      </trkpt>
      <trkpt lat="42.0383340" lon="-6.4765570">
        <ele>924.8</ele>
        <time>2019-08-16T09:45:20Z</time>
      </trkpt>
      <trkpt lat="42.0383730" lon="-6.4765100">
        <ele>925.0</ele>
        <time>2019-08-16T09:45:22Z</time>
      </trkpt>
      <trkpt lat="42.0384110" lon="-6.4765030">
        <ele>925.2</ele>
        <time>2019-08-16T09:45:23Z</time>
      </trkpt>
      <trkpt lat="42.0384670" lon="-6.4765050">
        <ele>925.6</ele>
        <time>2019-08-16T09:45:25Z</time>
      </trkpt>
      <trkpt lat="42.0385140" lon="-6.4765200">
        <ele>925.6</ele>
        <time>2019-08-16T09:45:27Z</time>
      </trkpt>
      <trkpt lat="42.0385630" lon="-6.4765430">
        <ele>925.7</ele>
        <time>2019-08-16T09:45:29Z</time>
      </trkpt>
      <trkpt lat="42.0386120" lon="-6.4765520">
        <ele>925.7</ele>
        <time>2019-08-16T09:45:31Z</time>
      </trkpt>
      <trkpt lat="42.0386590" lon="-6.4765790">
        <ele>925.9</ele>
        <time>2019-08-16T09:45:33Z</time>
      </trkpt>
      <trkpt lat="42.0386940" lon="-6.4766170">
        <ele>926.1</ele>
        <time>2019-08-16T09:45:35Z</time>
      </trkpt>
      <trkpt lat="42.0387270" lon="-6.4766600">
        <ele>926.3</ele>
        <time>2019-08-16T09:45:37Z</time>
      </trkpt>
      <trkpt lat="42.0387530" lon="-6.4767050">
        <ele>926.6</ele>
        <time>2019-08-16T09:45:39Z</time>
      </trkpt>
      <trkpt lat="42.0387760" lon="-6.4767490">
        <ele>926.8</ele>
        <time>2019-08-16T09:45:41Z</time>
      </trkpt>
      <trkpt lat="42.0387970" lon="-6.4767940">
        <ele>927.2</ele>
        <time>2019-08-16T09:45:43Z</time>
      </trkpt>
      <trkpt lat="42.0388140" lon="-6.4768420">
        <ele>927.5</ele>
        <time>2019-08-16T09:45:45Z</time>
      </trkpt>
      <trkpt lat="42.0388300" lon="-6.4768920">
        <ele>927.9</ele>
        <time>2019-08-16T09:45:47Z</time>
      </trkpt>
      <trkpt lat="42.0388440" lon="-6.4769430">
        <ele>928.2</ele>
        <time>2019-08-16T09:45:49Z</time>
      </trkpt>
      <trkpt lat="42.0388560" lon="-6.4769950">
        <ele>928.5</ele>
        <time>2019-08-16T09:45:51Z</time>
      </trkpt>
      <trkpt lat="42.0388680" lon="-6.4770460">
        <ele>928.8</ele>
        <time>2019-08-16T09:45:53Z</time>
      </trkpt>
      <trkpt lat="42.0388830" lon="-6.4770970">
        <ele>929.1</ele>
        <time>2019-08-16T09:45:55Z</time>
      </trkpt>
      <trkpt lat="42.0388990" lon="-6.4771470">
        <ele>929.3</ele>
        <time>2019-08-16T09:45:57Z</time>
      </trkpt>
      <trkpt lat="42.0389180" lon="-6.4771950">
        <ele>929.5</ele>
        <time>2019-08-16T09:45:59Z</time>
      </trkpt>
      <trkpt lat="42.0389410" lon="-6.4772420">
        <ele>929.8</ele>
        <time>2019-08-16T09:46:01Z</time>
      </trkpt>
      <trkpt lat="42.0389650" lon="-6.4772860">
        <ele>930.1</ele>
        <time>2019-08-16T09:46:03Z</time>
      </trkpt>
      <trkpt lat="42.0389910" lon="-6.4773280">
        <ele>930.4</ele>
        <time>2019-08-16T09:46:05Z</time>
      </trkpt>
      <trkpt lat="42.0390200" lon="-6.4773670">
        <ele>930.8</ele>
        <time>2019-08-16T09:46:07Z</time>
      </trkpt>
      <trkpt lat="42.0390500" lon="-6.4774040">
        <ele>931.2</ele>
        <time>2019-08-16T09:46:09Z</time>
      </trkpt>
      <trkpt lat="42.0390810" lon="-6.4774360">
        <ele>931.6</ele>
        <time>2019-08-16T09:46:11Z</time>
      </trkpt>
      <trkpt lat="42.0391110" lon="-6.4774690">
        <ele>931.9</ele>
        <time>2019-08-16T09:46:13Z</time>
      </trkpt>
      <trkpt lat="42.0391390" lon="-6.4774960">
        <ele>932.2</ele>
        <time>2019-08-16T09:46:15Z</time>
      </trkpt>
      <trkpt lat="42.0391700" lon="-6.4775240">
        <ele>932.5</ele>
        <time>2019-08-16T09:46:17Z</time>
      </trkpt>
      <trkpt lat="42.0392010" lon="-6.4775600">
        <ele>932.7</ele>
        <time>2019-08-16T09:46:19Z</time>
      </trkpt>
      <trkpt lat="42.0392310" lon="-6.4776040">
        <ele>932.9</ele>
        <time>2019-08-16T09:46:21Z</time>
      </trkpt>
      <trkpt lat="42.0392540" lon="-6.4776550">
        <ele>933.1</ele>
        <time>2019-08-16T09:46:23Z</time>
      </trkpt>
      <trkpt lat="42.0392710" lon="-6.4777170">
        <ele>933.2</ele>
        <time>2019-08-16T09:46:25Z</time>
      </trkpt>
      <trkpt lat="42.0392770" lon="-6.4777530">
        <ele>933.3</ele>
        <time>2019-08-16T09:46:26Z</time>
      </trkpt>
      <trkpt lat="42.0392830" lon="-6.4777920">
        <ele>933.4</ele>
        <time>2019-08-16T09:46:27Z</time>
      </trkpt>
      <trkpt lat="42.0392890" lon="-6.4778320">
        <ele>933.4</ele>
        <time>2019-08-16T09:46:28Z</time>
      </trkpt>
      <trkpt lat="42.0392950" lon="-6.4778700">
        <ele>933.5</ele>
        <time>2019-08-16T09:46:29Z</time>
      </trkpt>
      <trkpt lat="42.0393100" lon="-6.4779410">
        <ele>933.7</ele>
        <time>2019-08-16T09:46:31Z</time>
      </trkpt>
      <trkpt lat="42.0393160" lon="-6.4779800">
        <ele>933.8</ele>
        <time>2019-08-16T09:46:32Z</time>
      </trkpt>
      <trkpt lat="42.0393220" lon="-6.4780220">
        <ele>933.9</ele>
        <time>2019-08-16T09:46:33Z</time>
      </trkpt>
      <trkpt lat="42.0393290" lon="-6.4780650">
        <ele>934.1</ele>
        <time>2019-08-16T09:46:34Z</time>
      </trkpt>
      <trkpt lat="42.0393370" lon="-6.4781070">
        <ele>934.2</ele>
        <time>2019-08-16T09:46:35Z</time>
      </trkpt>
      <trkpt lat="42.0393450" lon="-6.4781500">
        <ele>934.4</ele>
        <time>2019-08-16T09:46:36Z</time>
      </trkpt>
      <trkpt lat="42.0393560" lon="-6.4781900">
        <ele>934.6</ele>
        <time>2019-08-16T09:46:37Z</time>
      </trkpt>
      <trkpt lat="42.0393660" lon="-6.4782290">
        <ele>934.7</ele>
        <time>2019-08-16T09:46:38Z</time>
      </trkpt>
      <trkpt lat="42.0393770" lon="-6.4782660">
        <ele>934.9</ele>
        <time>2019-08-16T09:46:39Z</time>
      </trkpt>
      <trkpt lat="42.0393910" lon="-6.4783020">
        <ele>935.0</ele>
        <time>2019-08-16T09:46:40Z</time>
      </trkpt>
      <trkpt lat="42.0394060" lon="-6.4783410">
        <ele>935.2</ele>
        <time>2019-08-16T09:46:41Z</time>
      </trkpt>
      <trkpt lat="42.0394220" lon="-6.4783810">
        <ele>935.3</ele>
        <time>2019-08-16T09:46:42Z</time>
      </trkpt>
      <trkpt lat="42.0394360" lon="-6.4784210">
        <ele>935.5</ele>
        <time>2019-08-16T09:46:43Z</time>
      </trkpt>
      <trkpt lat="42.0394500" lon="-6.4784610">
        <ele>935.6</ele>
        <time>2019-08-16T09:46:44Z</time>
      </trkpt>
      <trkpt lat="42.0394650" lon="-6.4785000">
        <ele>935.7</ele>
        <time>2019-08-16T09:46:45Z</time>
      </trkpt>
      <trkpt lat="42.0394800" lon="-6.4785350">
        <ele>935.8</ele>
        <time>2019-08-16T09:46:46Z</time>
      </trkpt>
      <trkpt lat="42.0394940" lon="-6.4785720">
        <ele>935.9</ele>
        <time>2019-08-16T09:46:47Z</time>
      </trkpt>
      <trkpt lat="42.0395090" lon="-6.4786070">
        <ele>936.0</ele>
        <time>2019-08-16T09:46:48Z</time>
      </trkpt>
      <trkpt lat="42.0395250" lon="-6.4786430">
        <ele>936.0</ele>
        <time>2019-08-16T09:46:49Z</time>
      </trkpt>
      <trkpt lat="42.0395420" lon="-6.4786800">
        <ele>936.1</ele>
        <time>2019-08-16T09:46:50Z</time>
      </trkpt>
      <trkpt lat="42.0395590" lon="-6.4787180">
        <ele>936.1</ele>
        <time>2019-08-16T09:46:51Z</time>
      </trkpt>
      <trkpt lat="42.0395760" lon="-6.4787560">
        <ele>936.1</ele>
        <time>2019-08-16T09:46:52Z</time>
      </trkpt>
      <trkpt lat="42.0395940" lon="-6.4787940">
        <ele>936.1</ele>
        <time>2019-08-16T09:46:53Z</time>
      </trkpt>
      <trkpt lat="42.0396140" lon="-6.4788310">
        <ele>936.1</ele>
        <time>2019-08-16T09:46:54Z</time>
      </trkpt>
      <trkpt lat="42.0396340" lon="-6.4788690">
        <ele>936.1</ele>
        <time>2019-08-16T09:46:55Z</time>
      </trkpt>
      <trkpt lat="42.0396520" lon="-6.4789070">
        <ele>936.1</ele>
        <time>2019-08-16T09:46:56Z</time>
      </trkpt>
      <trkpt lat="42.0396670" lon="-6.4789440">
        <ele>936.1</ele>
        <time>2019-08-16T09:46:57Z</time>
      </trkpt>
      <trkpt lat="42.0396820" lon="-6.4789840">
        <ele>936.1</ele>
        <time>2019-08-16T09:46:58Z</time>
      </trkpt>
      <trkpt lat="42.0396970" lon="-6.4790250">
        <ele>936.1</ele>
        <time>2019-08-16T09:46:59Z</time>
      </trkpt>
      <trkpt lat="42.0397140" lon="-6.4790680">
        <ele>936.1</ele>
        <time>2019-08-16T09:47:00Z</time>
      </trkpt>
      <trkpt lat="42.0397330" lon="-6.4791110">
        <ele>936.1</ele>
        <time>2019-08-16T09:47:01Z</time>
      </trkpt>
      <trkpt lat="42.0397560" lon="-6.4791530">
        <ele>936.1</ele>
        <time>2019-08-16T09:47:02Z</time>
      </trkpt>
      <trkpt lat="42.0397790" lon="-6.4791940">
        <ele>936.1</ele>
        <time>2019-08-16T09:47:03Z</time>
      </trkpt>
      <trkpt lat="42.0398020" lon="-6.4792360">
        <ele>936.1</ele>
        <time>2019-08-16T09:47:04Z</time>
      </trkpt>
      <trkpt lat="42.0398230" lon="-6.4792750">
        <ele>936.1</ele>
        <time>2019-08-16T09:47:05Z</time>
      </trkpt>
      <trkpt lat="42.0398460" lon="-6.4793150">
        <ele>936.1</ele>
        <time>2019-08-16T09:47:06Z</time>
      </trkpt>
      <trkpt lat="42.0398660" lon="-6.4793540">
        <ele>936.2</ele>
        <time>2019-08-16T09:47:07Z</time>
      </trkpt>
      <trkpt lat="42.0398840" lon="-6.4793930">
        <ele>936.2</ele>
        <time>2019-08-16T09:47:08Z</time>
      </trkpt>
      <trkpt lat="42.0398970" lon="-6.4794360">
        <ele>936.3</ele>
        <time>2019-08-16T09:47:09Z</time>
      </trkpt>
      <trkpt lat="42.0399070" lon="-6.4794850">
        <ele>936.4</ele>
        <time>2019-08-16T09:47:10Z</time>
      </trkpt>
      <trkpt lat="42.0399140" lon="-6.4795370">
        <ele>936.5</ele>
        <time>2019-08-16T09:47:11Z</time>
      </trkpt>
      <trkpt lat="42.0399170" lon="-6.4795910">
        <ele>936.6</ele>
        <time>2019-08-16T09:47:12Z</time>
      </trkpt>
      <trkpt lat="42.0399200" lon="-6.4796460">
        <ele>936.7</ele>
        <time>2019-08-16T09:47:13Z</time>
      </trkpt>
      <trkpt lat="42.0399220" lon="-6.4797030">
        <ele>936.8</ele>
        <time>2019-08-16T09:47:14Z</time>
      </trkpt>
      <trkpt lat="42.0399250" lon="-6.4797620">
        <ele>936.8</ele>
        <time>2019-08-16T09:47:15Z</time>
      </trkpt>
      <trkpt lat="42.0399290" lon="-6.4798190">
        <ele>936.8</ele>
        <time>2019-08-16T09:47:16Z</time>
      </trkpt>
      <trkpt lat="42.0399360" lon="-6.4798730">
        <ele>936.8</ele>
        <time>2019-08-16T09:47:17Z</time>
      </trkpt>
      <trkpt lat="42.0399480" lon="-6.4799260">
        <ele>936.7</ele>
        <time>2019-08-16T09:47:18Z</time>
      </trkpt>
      <trkpt lat="42.0399660" lon="-6.4799770">
        <ele>936.7</ele>
        <time>2019-08-16T09:47:19Z</time>
      </trkpt>
      <trkpt lat="42.0399900" lon="-6.4800250">
        <ele>936.6</ele>
        <time>2019-08-16T09:47:20Z</time>
      </trkpt>
      <trkpt lat="42.0400170" lon="-6.4800700">
        <ele>936.4</ele>
        <time>2019-08-16T09:47:21Z</time>
      </trkpt>
      <trkpt lat="42.0400440" lon="-6.4801170">
        <ele>936.3</ele>
        <time>2019-08-16T09:47:22Z</time>
      </trkpt>
      <trkpt lat="42.0400710" lon="-6.4801660">
        <ele>936.1</ele>
        <time>2019-08-16T09:47:23Z</time>
      </trkpt>
      <trkpt lat="42.0400980" lon="-6.4802200">
        <ele>936.0</ele>
        <time>2019-08-16T09:47:24Z</time>
      </trkpt>
      <trkpt lat="42.0401270" lon="-6.4802750">
        <ele>935.8</ele>
        <time>2019-08-16T09:47:25Z</time>
      </trkpt>
      <trkpt lat="42.0401620" lon="-6.4803260">
        <ele>935.7</ele>
        <time>2019-08-16T09:47:26Z</time>
      </trkpt>
      <trkpt lat="42.0402040" lon="-6.4803680">
        <ele>935.6</ele>
        <time>2019-08-16T09:47:27Z</time>
      </trkpt>
      <trkpt lat="42.0402520" lon="-6.4804020">
        <ele>935.4</ele>
        <time>2019-08-16T09:47:28Z</time>
      </trkpt>
      <trkpt lat="42.0403040" lon="-6.4804300">
        <ele>935.2</ele>
        <time>2019-08-16T09:47:29Z</time>
      </trkpt>
      <trkpt lat="42.0403570" lon="-6.4804520">
        <ele>935.1</ele>
        <time>2019-08-16T09:47:30Z</time>
      </trkpt>
      <trkpt lat="42.0404100" lon="-6.4804720">
        <ele>935.0</ele>
        <time>2019-08-16T09:47:31Z</time>
      </trkpt>
      <trkpt lat="42.0404610" lon="-6.4804940">
        <ele>934.9</ele>
        <time>2019-08-16T09:47:32Z</time>
      </trkpt>
      <trkpt lat="42.0405100" lon="-6.4805220">
        <ele>934.9</ele>
        <time>2019-08-16T09:47:33Z</time>
      </trkpt>
      <trkpt lat="42.0405560" lon="-6.4805530">
        <ele>934.9</ele>
        <time>2019-08-16T09:47:34Z</time>
      </trkpt>
      <trkpt lat="42.0405990" lon="-6.4805860">
        <ele>934.8</ele>
        <time>2019-08-16T09:47:35Z</time>
      </trkpt>
      <trkpt lat="42.0406390" lon="-6.4806190">
        <ele>934.8</ele>
        <time>2019-08-16T09:47:36Z</time>
      </trkpt>
      <trkpt lat="42.0406750" lon="-6.4806550">
        <ele>934.8</ele>
        <time>2019-08-16T09:47:37Z</time>
      </trkpt>
      <trkpt lat="42.0407090" lon="-6.4806910">
        <ele>934.8</ele>
        <time>2019-08-16T09:47:38Z</time>
      </trkpt>
      <trkpt lat="42.0407430" lon="-6.4807270">
        <ele>934.8</ele>
        <time>2019-08-16T09:47:39Z</time>
      </trkpt>
      <trkpt lat="42.0407780" lon="-6.4807620">
        <ele>934.8</ele>
        <time>2019-08-16T09:47:40Z</time>
      </trkpt>
      <trkpt lat="42.0408150" lon="-6.4807960">
        <ele>934.8</ele>
        <time>2019-08-16T09:47:41Z</time>
      </trkpt>
      <trkpt lat="42.0408510" lon="-6.4808280">
        <ele>934.8</ele>
        <time>2019-08-16T09:47:42Z</time>
      </trkpt>
      <trkpt lat="42.0408880" lon="-6.4808580">
        <ele>934.8</ele>
        <time>2019-08-16T09:47:43Z</time>
      </trkpt>
      <trkpt lat="42.0409230" lon="-6.4808870">
        <ele>934.9</ele>
        <time>2019-08-16T09:47:44Z</time>
      </trkpt>
      <trkpt lat="42.0409570" lon="-6.4809150">
        <ele>935.0</ele>
        <time>2019-08-16T09:47:45Z</time>
      </trkpt>
      <trkpt lat="42.0409910" lon="-6.4809420">
        <ele>935.1</ele>
        <time>2019-08-16T09:47:46Z</time>
      </trkpt>
      <trkpt lat="42.0410230" lon="-6.4809690">
        <ele>935.2</ele>
        <time>2019-08-16T09:47:47Z</time>
      </trkpt>
      <trkpt lat="42.0410550" lon="-6.4809970">
        <ele>935.3</ele>
        <time>2019-08-16T09:47:48Z</time>
      </trkpt>
      <trkpt lat="42.0410870" lon="-6.4810260">
        <ele>935.4</ele>
        <time>2019-08-16T09:47:49Z</time>
      </trkpt>
      <trkpt lat="42.0411170" lon="-6.4810540">
        <ele>935.5</ele>
        <time>2019-08-16T09:47:50Z</time>
      </trkpt>
      <trkpt lat="42.0411470" lon="-6.4810810">
        <ele>935.7</ele>
        <time>2019-08-16T09:47:51Z</time>
      </trkpt>
      <trkpt lat="42.0411760" lon="-6.4811090">
        <ele>935.8</ele>
        <time>2019-08-16T09:47:52Z</time>
      </trkpt>
      <trkpt lat="42.0412060" lon="-6.4811360">
        <ele>935.9</ele>
        <time>2019-08-16T09:47:53Z</time>
      </trkpt>
      <trkpt lat="42.0412360" lon="-6.4811630">
        <ele>936.1</ele>
        <time>2019-08-16T09:47:54Z</time>
      </trkpt>
      <trkpt lat="42.0412660" lon="-6.4811930">
        <ele>936.2</ele>
        <time>2019-08-16T09:47:55Z</time>
      </trkpt>
      <trkpt lat="42.0412950" lon="-6.4812230">
        <ele>936.3</ele>
        <time>2019-08-16T09:47:56Z</time>
      </trkpt>
      <trkpt lat="42.0413240" lon="-6.4812530">
        <ele>936.4</ele>
        <time>2019-08-16T09:47:57Z</time>
      </trkpt>
      <trkpt lat="42.0413530" lon="-6.4812840">
        <ele>936.5</ele>
        <time>2019-08-16T09:47:58Z</time>
      </trkpt>
      <trkpt lat="42.0413820" lon="-6.4813150">
        <ele>936.6</ele>
        <time>2019-08-16T09:47:59Z</time>
      </trkpt>
      <trkpt lat="42.0414120" lon="-6.4813410">
        <ele>936.6</ele>
        <time>2019-08-16T09:48:00Z</time>
      </trkpt>
      <trkpt lat="42.0414430" lon="-6.4813670">
        <ele>936.7</ele>
        <time>2019-08-16T09:48:01Z</time>
      </trkpt>
      <trkpt lat="42.0414710" lon="-6.4813880">
        <ele>936.7</ele>
        <time>2019-08-16T09:48:02Z</time>
      </trkpt>
      <trkpt lat="42.0415130" lon="-6.4814180">
        <ele>936.8</ele>
        <time>2019-08-16T09:48:04Z</time>
      </trkpt>
      <trkpt lat="42.0415480" lon="-6.4814430">
        <ele>936.9</ele>
        <time>2019-08-16T09:48:06Z</time>
      </trkpt>
      <trkpt lat="42.0415720" lon="-6.4814600">
        <ele>937.0</ele>
        <time>2019-08-16T09:48:07Z</time>
      </trkpt>
      <trkpt lat="42.0416010" lon="-6.4814810">
        <ele>937.1</ele>
        <time>2019-08-16T09:48:08Z</time>
      </trkpt>
      <trkpt lat="42.0416310" lon="-6.4815020">
        <ele>937.1</ele>
        <time>2019-08-16T09:48:09Z</time>
      </trkpt>
      <trkpt lat="42.0416620" lon="-6.4815230">
        <ele>937.2</ele>
        <time>2019-08-16T09:48:10Z</time>
      </trkpt>
      <trkpt lat="42.0416930" lon="-6.4815490">
        <ele>937.2</ele>
        <time>2019-08-16T09:48:11Z</time>
      </trkpt>
      <trkpt lat="42.0417240" lon="-6.4815820">
        <ele>937.2</ele>
        <time>2019-08-16T09:48:12Z</time>
      </trkpt>
      <trkpt lat="42.0417480" lon="-6.4816260">
        <ele>937.1</ele>
        <time>2019-08-16T09:48:13Z</time>
      </trkpt>
      <trkpt lat="42.0417660" lon="-6.4816780">
        <ele>937.1</ele>
        <time>2019-08-16T09:48:14Z</time>
      </trkpt>
      <trkpt lat="42.0417820" lon="-6.4817320">
        <ele>937.0</ele>
        <time>2019-08-16T09:48:15Z</time>
      </trkpt>
      <trkpt lat="42.0417960" lon="-6.4817870">
        <ele>936.9</ele>
        <time>2019-08-16T09:48:16Z</time>
      </trkpt>
      <trkpt lat="42.0418100" lon="-6.4818390">
        <ele>936.9</ele>
        <time>2019-08-16T09:48:17Z</time>
      </trkpt>
      <trkpt lat="42.0418190" lon="-6.4818910">
        <ele>936.8</ele>
        <time>2019-08-16T09:48:18Z</time>
      </trkpt>
      <trkpt lat="42.0418270" lon="-6.4819420">
        <ele>936.7</ele>
        <time>2019-08-16T09:48:19Z</time>
      </trkpt>
      <trkpt lat="42.0418310" lon="-6.4819890">
        <ele>936.6</ele>
        <time>2019-08-16T09:48:20Z</time>
      </trkpt>
      <trkpt lat="42.0418340" lon="-6.4820300">
        <ele>936.6</ele>
        <time>2019-08-16T09:48:21Z</time>
      </trkpt>
      <trkpt lat="42.0418390" lon="-6.4820670">
        <ele>936.6</ele>
        <time>2019-08-16T09:48:22Z</time>
      </trkpt>
      <trkpt lat="42.0418470" lon="-6.4821060">
        <ele>936.6</ele>
        <time>2019-08-16T09:48:23Z</time>
      </trkpt>
      <trkpt lat="42.0418600" lon="-6.4821460">
        <ele>936.6</ele>
        <time>2019-08-16T09:48:24Z</time>
      </trkpt>
      <trkpt lat="42.0418760" lon="-6.4821840">
        <ele>936.7</ele>
        <time>2019-08-16T09:48:25Z</time>
      </trkpt>
      <trkpt lat="42.0418930" lon="-6.4822230">
        <ele>936.7</ele>
        <time>2019-08-16T09:48:26Z</time>
      </trkpt>
      <trkpt lat="42.0419090" lon="-6.4822640">
        <ele>936.8</ele>
        <time>2019-08-16T09:48:27Z</time>
      </trkpt>
      <trkpt lat="42.0419220" lon="-6.4823060">
        <ele>936.9</ele>
        <time>2019-08-16T09:48:28Z</time>
      </trkpt>
      <trkpt lat="42.0419340" lon="-6.4823460">
        <ele>937.0</ele>
        <time>2019-08-16T09:48:29Z</time>
      </trkpt>
      <trkpt lat="42.0419510" lon="-6.4823830">
        <ele>937.1</ele>
        <time>2019-08-16T09:48:30Z</time>
      </trkpt>
      <trkpt lat="42.0419690" lon="-6.4824150">
        <ele>937.2</ele>
        <time>2019-08-16T09:48:31Z</time>
      </trkpt>
      <trkpt lat="42.0419880" lon="-6.4824460">
        <ele>937.3</ele>
        <time>2019-08-16T09:48:32Z</time>
      </trkpt>
      <trkpt lat="42.0420080" lon="-6.4824800">
        <ele>937.4</ele>
        <time>2019-08-16T09:48:33Z</time>
      </trkpt>
      <trkpt lat="42.0420270" lon="-6.4825110">
        <ele>937.6</ele>
        <time>2019-08-16T09:48:34Z</time>
      </trkpt>
      <trkpt lat="42.0420460" lon="-6.4825420">
        <ele>937.7</ele>
        <time>2019-08-16T09:48:35Z</time>
      </trkpt>
      <trkpt lat="42.0420650" lon="-6.4825720">
        <ele>937.8</ele>
        <time>2019-08-16T09:48:36Z</time>
      </trkpt>
      <trkpt lat="42.0420840" lon="-6.4826010">
        <ele>937.9</ele>
        <time>2019-08-16T09:48:37Z</time>
      </trkpt>
      <trkpt lat="42.0421010" lon="-6.4826310">
        <ele>938.0</ele>
        <time>2019-08-16T09:48:38Z</time>
      </trkpt>
      <trkpt lat="42.0421340" lon="-6.4826850">
        <ele>938.3</ele>
        <time>2019-08-16T09:48:40Z</time>
      </trkpt>
      <trkpt lat="42.0421670" lon="-6.4827370">
        <ele>938.5</ele>
        <time>2019-08-16T09:48:42Z</time>
      </trkpt>
      <trkpt lat="42.0421980" lon="-6.4827900">
        <ele>938.8</ele>
        <time>2019-08-16T09:48:44Z</time>
      </trkpt>
      <trkpt lat="42.0422270" lon="-6.4828420">
        <ele>939.0</ele>
        <time>2019-08-16T09:48:46Z</time>
      </trkpt>
      <trkpt lat="42.0422510" lon="-6.4828950">
        <ele>939.3</ele>
        <time>2019-08-16T09:48:48Z</time>
      </trkpt>
      <trkpt lat="42.0422730" lon="-6.4829430">
        <ele>939.5</ele>
        <time>2019-08-16T09:48:50Z</time>
      </trkpt>
      <trkpt lat="42.0422930" lon="-6.4829890">
        <ele>939.6</ele>
        <time>2019-08-16T09:48:52Z</time>
      </trkpt>
      <trkpt lat="42.0423150" lon="-6.4830360">
        <ele>939.7</ele>
        <time>2019-08-16T09:48:54Z</time>
      </trkpt>
      <trkpt lat="42.0423380" lon="-6.4830830">
        <ele>939.8</ele>
        <time>2019-08-16T09:48:56Z</time>
      </trkpt>
      <trkpt lat="42.0423600" lon="-6.4831320">
        <ele>939.9</ele>
        <time>2019-08-16T09:48:58Z</time>
      </trkpt>
      <trkpt lat="42.0423840" lon="-6.4831790">
        <ele>940.0</ele>
        <time>2019-08-16T09:49:00Z</time>
      </trkpt>
      <trkpt lat="42.0424090" lon="-6.4832260">
        <ele>940.1</ele>
        <time>2019-08-16T09:49:02Z</time>
      </trkpt>
      <trkpt lat="42.0424330" lon="-6.4832740">
        <ele>940.2</ele>
        <time>2019-08-16T09:49:04Z</time>
      </trkpt>
      <trkpt lat="42.0424550" lon="-6.4833220">
        <ele>940.4</ele>
        <time>2019-08-16T09:49:06Z</time>
      </trkpt>
      <trkpt lat="42.0424770" lon="-6.4833680">
        <ele>940.5</ele>
        <time>2019-08-16T09:49:08Z</time>
      </trkpt>
      <trkpt lat="42.0424980" lon="-6.4834140">
        <ele>940.6</ele>
        <time>2019-08-16T09:49:10Z</time>
      </trkpt>
      <trkpt lat="42.0425210" lon="-6.4834620">
        <ele>940.8</ele>
        <time>2019-08-16T09:49:12Z</time>
      </trkpt>
      <trkpt lat="42.0425430" lon="-6.4835080">
        <ele>941.1</ele>
        <time>2019-08-16T09:49:14Z</time>
      </trkpt>
      <trkpt lat="42.0425650" lon="-6.4835510">
        <ele>941.2</ele>
        <time>2019-08-16T09:49:16Z</time>
      </trkpt>
      <trkpt lat="42.0425910" lon="-6.4835900">
        <ele>941.4</ele>
        <time>2019-08-16T09:49:18Z</time>
      </trkpt>
      <trkpt lat="42.0426170" lon="-6.4836270">
        <ele>941.5</ele>
        <time>2019-08-16T09:49:20Z</time>
      </trkpt>
      <trkpt lat="42.0426440" lon="-6.4836620">
        <ele>941.6</ele>
        <time>2019-08-16T09:49:22Z</time>
      </trkpt>
      <trkpt lat="42.0426720" lon="-6.4836960">
        <ele>941.8</ele>
        <time>2019-08-16T09:49:24Z</time>
      </trkpt>
      <trkpt lat="42.0427010" lon="-6.4837290">
        <ele>941.9</ele>
        <time>2019-08-16T09:49:26Z</time>
      </trkpt>
      <trkpt lat="42.0427320" lon="-6.4837570">
        <ele>942.1</ele>
        <time>2019-08-16T09:49:28Z</time>
      </trkpt>
      <trkpt lat="42.0427660" lon="-6.4837830">
        <ele>942.2</ele>
        <time>2019-08-16T09:49:30Z</time>
      </trkpt>
      <trkpt lat="42.0428020" lon="-6.4838050">
        <ele>942.4</ele>
        <time>2019-08-16T09:49:32Z</time>
      </trkpt>
      <trkpt lat="42.0428420" lon="-6.4838220">
        <ele>942.5</ele>
        <time>2019-08-16T09:49:34Z</time>
      </trkpt>
      <trkpt lat="42.0428830" lon="-6.4838340">
        <ele>942.7</ele>
        <time>2019-08-16T09:49:36Z</time>
      </trkpt>
      <trkpt lat="42.0429250" lon="-6.4838390">
        <ele>942.8</ele>
        <time>2019-08-16T09:49:38Z</time>
      </trkpt>
      <trkpt lat="42.0429680" lon="-6.4838400">
        <ele>943.0</ele>
        <time>2019-08-16T09:49:40Z</time>
      </trkpt>
      <trkpt lat="42.0430130" lon="-6.4838370">
        <ele>943.1</ele>
        <time>2019-08-16T09:49:42Z</time>
      </trkpt>
      <trkpt lat="42.0430620" lon="-6.4838300">
        <ele>943.3</ele>
        <time>2019-08-16T09:49:44Z</time>
      </trkpt>
      <trkpt lat="42.0431160" lon="-6.4838200">
        <ele>943.4</ele>
        <time>2019-08-16T09:49:46Z</time>
      </trkpt>
      <trkpt lat="42.0431450" lon="-6.4838150">
        <ele>943.5</ele>
        <time>2019-08-16T09:49:47Z</time>
      </trkpt>
      <trkpt lat="42.0431740" lon="-6.4838100">
        <ele>943.6</ele>
        <time>2019-08-16T09:49:48Z</time>
      </trkpt>
      <trkpt lat="42.0432030" lon="-6.4838050">
        <ele>943.6</ele>
        <time>2019-08-16T09:49:49Z</time>
      </trkpt>
      <trkpt lat="42.0432330" lon="-6.4838000">
        <ele>943.7</ele>
        <time>2019-08-16T09:49:50Z</time>
      </trkpt>
      <trkpt lat="42.0432620" lon="-6.4837940">
        <ele>943.8</ele>
        <time>2019-08-16T09:49:51Z</time>
      </trkpt>
      <trkpt lat="42.0432910" lon="-6.4837880">
        <ele>943.8</ele>
        <time>2019-08-16T09:49:52Z</time>
      </trkpt>
      <trkpt lat="42.0433210" lon="-6.4837830">
        <ele>943.9</ele>
        <time>2019-08-16T09:49:53Z</time>
      </trkpt>
      <trkpt lat="42.0433520" lon="-6.4837770">
        <ele>944.0</ele>
        <time>2019-08-16T09:49:54Z</time>
      </trkpt>
      <trkpt lat="42.0433830" lon="-6.4837700">
        <ele>944.0</ele>
        <time>2019-08-16T09:49:55Z</time>
      </trkpt>
      <trkpt lat="42.0434140" lon="-6.4837620">
        <ele>944.1</ele>
        <time>2019-08-16T09:49:56Z</time>
      </trkpt>
      <trkpt lat="42.0434440" lon="-6.4837540">
        <ele>944.2</ele>
        <time>2019-08-16T09:49:57Z</time>
      </trkpt>
      <trkpt lat="42.0434880" lon="-6.4837410">
        <ele>944.4</ele>
        <time>2019-08-16T09:49:59Z</time>
      </trkpt>
      <trkpt lat="42.0435220" lon="-6.4837330">
        <ele>944.5</ele>
        <time>2019-08-16T09:50:01Z</time>
      </trkpt>
      <trkpt lat="42.0435520" lon="-6.4837290">
        <ele>944.6</ele>
        <time>2019-08-16T09:50:03Z</time>
      </trkpt>
      <trkpt lat="42.0435860" lon="-6.4837220">
        <ele>944.8</ele>
        <time>2019-08-16T09:50:05Z</time>
      </trkpt>
      <trkpt lat="42.0436300" lon="-6.4837050">
        <ele>944.9</ele>
        <time>2019-08-16T09:50:07Z</time>
      </trkpt>
      <trkpt lat="42.0436820" lon="-6.4836960">
        <ele>945.0</ele>
        <time>2019-08-16T09:50:09Z</time>
      </trkpt>
      <trkpt lat="42.0437340" lon="-6.4836910">
        <ele>945.2</ele>
        <time>2019-08-16T09:50:11Z</time>
      </trkpt>
      <trkpt lat="42.0437820" lon="-6.4836800">
        <ele>945.3</ele>
        <time>2019-08-16T09:50:13Z</time>
      </trkpt>
      <trkpt lat="42.0438300" lon="-6.4836760">
        <ele>945.4</ele>
        <time>2019-08-16T09:50:15Z</time>
      </trkpt>
      <trkpt lat="42.0438770" lon="-6.4836710">
        <ele>945.4</ele>
        <time>2019-08-16T09:50:17Z</time>
      </trkpt>
      <trkpt lat="42.0439280" lon="-6.4836630">
        <ele>945.5</ele>
        <time>2019-08-16T09:50:19Z</time>
      </trkpt>
      <trkpt lat="42.0439590" lon="-6.4836600">
        <ele>945.5</ele>
        <time>2019-08-16T09:50:20Z</time>
      </trkpt>
      <trkpt lat="42.0439930" lon="-6.4836580">
        <ele>945.6</ele>
        <time>2019-08-16T09:50:21Z</time>
      </trkpt>
      <trkpt lat="42.0440290" lon="-6.4836560">
        <ele>945.6</ele>
        <time>2019-08-16T09:50:22Z</time>
      </trkpt>
      <trkpt lat="42.0440660" lon="-6.4836550">
        <ele>945.6</ele>
        <time>2019-08-16T09:50:23Z</time>
      </trkpt>
      <trkpt lat="42.0441050" lon="-6.4836550">
        <ele>945.7</ele>
        <time>2019-08-16T09:50:24Z</time>
      </trkpt>
      <trkpt lat="42.0441450" lon="-6.4836570">
        <ele>945.7</ele>
        <time>2019-08-16T09:50:25Z</time>
      </trkpt>
      <trkpt lat="42.0441850" lon="-6.4836630">
        <ele>945.7</ele>
        <time>2019-08-16T09:50:26Z</time>
      </trkpt>
      <trkpt lat="42.0442240" lon="-6.4836740">
        <ele>945.7</ele>
        <time>2019-08-16T09:50:27Z</time>
      </trkpt>
      <trkpt lat="42.0442660" lon="-6.4836920">
        <ele>945.7</ele>
        <time>2019-08-16T09:50:28Z</time>
      </trkpt>
      <trkpt lat="42.0443070" lon="-6.4837170">
        <ele>945.7</ele>
        <time>2019-08-16T09:50:29Z</time>
      </trkpt>
      <trkpt lat="42.0443480" lon="-6.4837500">
        <ele>945.8</ele>
        <time>2019-08-16T09:50:30Z</time>
      </trkpt>
      <trkpt lat="42.0443870" lon="-6.4837920">
        <ele>945.8</ele>
        <time>2019-08-16T09:50:31Z</time>
      </trkpt>
      <trkpt lat="42.0444210" lon="-6.4838420">
        <ele>945.8</ele>
        <time>2019-08-16T09:50:32Z</time>
      </trkpt>
      <trkpt lat="42.0444500" lon="-6.4838990">
        <ele>945.8</ele>
        <time>2019-08-16T09:50:33Z</time>
      </trkpt>
      <trkpt lat="42.0444750" lon="-6.4839600">
        <ele>945.9</ele>
        <time>2019-08-16T09:50:34Z</time>
      </trkpt>
      <trkpt lat="42.0444940" lon="-6.4840240">
        <ele>945.9</ele>
        <time>2019-08-16T09:50:35Z</time>
      </trkpt>
      <trkpt lat="42.0445090" lon="-6.4840900">
        <ele>946.0</ele>
        <time>2019-08-16T09:50:36Z</time>
      </trkpt>
      <trkpt lat="42.0445220" lon="-6.4841570">
        <ele>946.0</ele>
        <time>2019-08-16T09:50:37Z</time>
      </trkpt>
      <trkpt lat="42.0445350" lon="-6.4842250">
        <ele>946.1</ele>
        <time>2019-08-16T09:50:38Z</time>
      </trkpt>
      <trkpt lat="42.0445460" lon="-6.4842960">
        <ele>946.2</ele>
        <time>2019-08-16T09:50:39Z</time>
      </trkpt>
      <trkpt lat="42.0445550" lon="-6.4843690">
        <ele>946.2</ele>
        <time>2019-08-16T09:50:40Z</time>
      </trkpt>
      <trkpt lat="42.0445630" lon="-6.4844440">
        <ele>946.3</ele>
        <time>2019-08-16T09:50:41Z</time>
      </trkpt>
      <trkpt lat="42.0445710" lon="-6.4845200">
        <ele>946.4</ele>
        <time>2019-08-16T09:50:42Z</time>
      </trkpt>
      <trkpt lat="42.0445780" lon="-6.4845950">
        <ele>946.6</ele>
        <time>2019-08-16T09:50:43Z</time>
      </trkpt>
      <trkpt lat="42.0445840" lon="-6.4846670">
        <ele>946.5</ele>
        <time>2019-08-16T09:50:44Z</time>
      </trkpt>
      <trkpt lat="42.0445890" lon="-6.4847350">
        <ele>946.3</ele>
        <time>2019-08-16T09:50:45Z</time>
      </trkpt>
      <trkpt lat="42.0445940" lon="-6.4847980">
        <ele>946.2</ele>
        <time>2019-08-16T09:50:46Z</time>
      </trkpt>
      <trkpt lat="42.0446000" lon="-6.4848600">
        <ele>946.1</ele>
        <time>2019-08-16T09:50:47Z</time>
      </trkpt>
      <trkpt lat="42.0446080" lon="-6.4849200">
        <ele>946.0</ele>
        <time>2019-08-16T09:50:48Z</time>
      </trkpt>
      <trkpt lat="42.0446170" lon="-6.4849820">
        <ele>945.9</ele>
        <time>2019-08-16T09:50:49Z</time>
      </trkpt>
      <trkpt lat="42.0446260" lon="-6.4850440">
        <ele>945.8</ele>
        <time>2019-08-16T09:50:50Z</time>
      </trkpt>
      <trkpt lat="42.0446370" lon="-6.4851060">
        <ele>945.7</ele>
        <time>2019-08-16T09:50:51Z</time>
      </trkpt>
      <trkpt lat="42.0446470" lon="-6.4851680">
        <ele>945.6</ele>
        <time>2019-08-16T09:50:52Z</time>
      </trkpt>
      <trkpt lat="42.0446570" lon="-6.4852320">
        <ele>945.6</ele>
        <time>2019-08-16T09:50:53Z</time>
      </trkpt>
      <trkpt lat="42.0446660" lon="-6.4852940">
        <ele>945.5</ele>
        <time>2019-08-16T09:50:54Z</time>
      </trkpt>
      <trkpt lat="42.0446740" lon="-6.4853580">
        <ele>945.4</ele>
        <time>2019-08-16T09:50:55Z</time>
      </trkpt>
      <trkpt lat="42.0446810" lon="-6.4854220">
        <ele>945.4</ele>
        <time>2019-08-16T09:50:56Z</time>
      </trkpt>
      <trkpt lat="42.0446880" lon="-6.4854860">
        <ele>945.3</ele>
        <time>2019-08-16T09:50:57Z</time>
      </trkpt>
      <trkpt lat="42.0446970" lon="-6.4855510">
        <ele>945.2</ele>
        <time>2019-08-16T09:50:58Z</time>
      </trkpt>
      <trkpt lat="42.0447050" lon="-6.4856170">
        <ele>945.1</ele>
        <time>2019-08-16T09:50:59Z</time>
      </trkpt>
      <trkpt lat="42.0447140" lon="-6.4856820">
        <ele>945.1</ele>
        <time>2019-08-16T09:51:00Z</time>
      </trkpt>
      <trkpt lat="42.0447230" lon="-6.4857460">
        <ele>945.0</ele>
        <time>2019-08-16T09:51:01Z</time>
      </trkpt>
      <trkpt lat="42.0447320" lon="-6.4858120">
        <ele>944.9</ele>
        <time>2019-08-16T09:51:02Z</time>
      </trkpt>
      <trkpt lat="42.0447410" lon="-6.4858800">
        <ele>944.8</ele>
        <time>2019-08-16T09:51:03Z</time>
      </trkpt>
      <trkpt lat="42.0447500" lon="-6.4859500">
        <ele>944.7</ele>
        <time>2019-08-16T09:51:04Z</time>
      </trkpt>
      <trkpt lat="42.0447590" lon="-6.4860220">
        <ele>944.6</ele>
        <time>2019-08-16T09:51:05Z</time>
      </trkpt>
      <trkpt lat="42.0447690" lon="-6.4860940">
        <ele>944.5</ele>
        <time>2019-08-16T09:51:06Z</time>
      </trkpt>
      <trkpt lat="42.0447800" lon="-6.4861690">
        <ele>944.3</ele>
        <time>2019-08-16T09:51:07Z</time>
      </trkpt>
      <trkpt lat="42.0447900" lon="-6.4862460">
        <ele>944.2</ele>
        <time>2019-08-16T09:51:08Z</time>
      </trkpt>
      <trkpt lat="42.0448020" lon="-6.4863260">
        <ele>944.0</ele>
        <time>2019-08-16T09:51:09Z</time>
      </trkpt>
      <trkpt lat="42.0448150" lon="-6.4864060">
        <ele>943.9</ele>
        <time>2019-08-16T09:51:10Z</time>
      </trkpt>
      <trkpt lat="42.0448280" lon="-6.4864850">
        <ele>943.7</ele>
        <time>2019-08-16T09:51:11Z</time>
      </trkpt>
      <trkpt lat="42.0448470" lon="-6.4865610">
        <ele>943.5</ele>
        <time>2019-08-16T09:51:12Z</time>
      </trkpt>
      <trkpt lat="42.0448710" lon="-6.4866300">
        <ele>943.3</ele>
        <time>2019-08-16T09:51:13Z</time>
      </trkpt>
      <trkpt lat="42.0449060" lon="-6.4866890">
        <ele>943.1</ele>
        <time>2019-08-16T09:51:14Z</time>
      </trkpt>
      <trkpt lat="42.0449490" lon="-6.4867360">
        <ele>942.8</ele>
        <time>2019-08-16T09:51:15Z</time>
      </trkpt>
      <trkpt lat="42.0449970" lon="-6.4867720">
        <ele>942.6</ele>
        <time>2019-08-16T09:51:16Z</time>
      </trkpt>
      <trkpt lat="42.0450460" lon="-6.4868030">
        <ele>942.3</ele>
        <time>2019-08-16T09:51:17Z</time>
      </trkpt>
      <trkpt lat="42.0450910" lon="-6.4868360">
        <ele>942.2</ele>
        <time>2019-08-16T09:51:18Z</time>
      </trkpt>
      <trkpt lat="42.0451330" lon="-6.4868730">
        <ele>942.0</ele>
        <time>2019-08-16T09:51:19Z</time>
      </trkpt>
      <trkpt lat="42.0451730" lon="-6.4869130">
        <ele>942.0</ele>
        <time>2019-08-16T09:51:20Z</time>
      </trkpt>
      <trkpt lat="42.0452100" lon="-6.4869510">
        <ele>941.9</ele>
        <time>2019-08-16T09:51:21Z</time>
      </trkpt>
      <trkpt lat="42.0452470" lon="-6.4869840">
        <ele>941.8</ele>
        <time>2019-08-16T09:51:22Z</time>
      </trkpt>
      <trkpt lat="42.0452790" lon="-6.4870140">
        <ele>941.8</ele>
        <time>2019-08-16T09:51:23Z</time>
      </trkpt>
      <trkpt lat="42.0453070" lon="-6.4870440">
        <ele>941.8</ele>
        <time>2019-08-16T09:51:24Z</time>
      </trkpt>
      <trkpt lat="42.0453330" lon="-6.4870720">
        <ele>941.9</ele>
        <time>2019-08-16T09:51:25Z</time>
      </trkpt>
      <trkpt lat="42.0453580" lon="-6.4870990">
        <ele>941.9</ele>
        <time>2019-08-16T09:51:26Z</time>
      </trkpt>
      <trkpt lat="42.0453830" lon="-6.4871250">
        <ele>942.0</ele>
        <time>2019-08-16T09:51:27Z</time>
      </trkpt>
      <trkpt lat="42.0454070" lon="-6.4871520">
        <ele>942.0</ele>
        <time>2019-08-16T09:51:28Z</time>
      </trkpt>
      <trkpt lat="42.0454300" lon="-6.4871800">
        <ele>942.1</ele>
        <time>2019-08-16T09:51:29Z</time>
      </trkpt>
      <trkpt lat="42.0454530" lon="-6.4872060">
        <ele>942.2</ele>
        <time>2019-08-16T09:51:30Z</time>
      </trkpt>
      <trkpt lat="42.0454770" lon="-6.4872310">
        <ele>942.3</ele>
        <time>2019-08-16T09:51:31Z</time>
      </trkpt>
      <trkpt lat="42.0454980" lon="-6.4872560">
        <ele>942.4</ele>
        <time>2019-08-16T09:51:32Z</time>
      </trkpt>
      <trkpt lat="42.0455390" lon="-6.4873020">
        <ele>942.7</ele>
        <time>2019-08-16T09:51:34Z</time>
      </trkpt>
      <trkpt lat="42.0455610" lon="-6.4873230">
        <ele>942.8</ele>
        <time>2019-08-16T09:51:35Z</time>
      </trkpt>
      <trkpt lat="42.0455840" lon="-6.4873450">
        <ele>943.0</ele>
        <time>2019-08-16T09:51:36Z</time>
      </trkpt>
      <trkpt lat="42.0456070" lon="-6.4873660">
        <ele>943.1</ele>
        <time>2019-08-16T09:51:37Z</time>
      </trkpt>
      <trkpt lat="42.0456500" lon="-6.4874090">
        <ele>943.4</ele>
        <time>2019-08-16T09:51:39Z</time>
      </trkpt>
      <trkpt lat="42.0456910" lon="-6.4874530">
        <ele>943.6</ele>
        <time>2019-08-16T09:51:41Z</time>
      </trkpt>
      <trkpt lat="42.0457350" lon="-6.4875000">
        <ele>943.9</ele>
        <time>2019-08-16T09:51:43Z</time>
      </trkpt>
      <trkpt lat="42.0457570" lon="-6.4875240">
        <ele>944.0</ele>
        <time>2019-08-16T09:51:44Z</time>
      </trkpt>
      <trkpt lat="42.0457790" lon="-6.4875490">
        <ele>944.2</ele>
        <time>2019-08-16T09:51:45Z</time>
      </trkpt>
      <trkpt lat="42.0458010" lon="-6.4875750">
        <ele>944.3</ele>
        <time>2019-08-16T09:51:46Z</time>
      </trkpt>
      <trkpt lat="42.0458240" lon="-6.4876020">
        <ele>944.4</ele>
        <time>2019-08-16T09:51:47Z</time>
      </trkpt>
      <trkpt lat="42.0458470" lon="-6.4876280">
        <ele>944.5</ele>
        <time>2019-08-16T09:51:48Z</time>
      </trkpt>
      <trkpt lat="42.0458710" lon="-6.4876530">
        <ele>944.6</ele>
        <time>2019-08-16T09:51:49Z</time>
      </trkpt>
      <trkpt lat="42.0458940" lon="-6.4876780">
        <ele>944.7</ele>
        <time>2019-08-16T09:51:50Z</time>
      </trkpt>
      <trkpt lat="42.0459190" lon="-6.4877040">
        <ele>944.8</ele>
        <time>2019-08-16T09:51:51Z</time>
      </trkpt>
      <trkpt lat="42.0459460" lon="-6.4877330">
        <ele>944.9</ele>
        <time>2019-08-16T09:51:52Z</time>
      </trkpt>
      <trkpt lat="42.0459720" lon="-6.4877640">
        <ele>944.9</ele>
        <time>2019-08-16T09:51:53Z</time>
      </trkpt>
      <trkpt lat="42.0460010" lon="-6.4877970">
        <ele>945.0</ele>
        <time>2019-08-16T09:51:54Z</time>
      </trkpt>
      <trkpt lat="42.0460300" lon="-6.4878340">
        <ele>945.0</ele>
        <time>2019-08-16T09:51:55Z</time>
      </trkpt>
      <trkpt lat="42.0460600" lon="-6.4878770">
        <ele>945.1</ele>
        <time>2019-08-16T09:51:56Z</time>
      </trkpt>
      <trkpt lat="42.0460950" lon="-6.4879240">
        <ele>945.0</ele>
        <time>2019-08-16T09:51:57Z</time>
      </trkpt>
      <trkpt lat="42.0461320" lon="-6.4879750">
        <ele>945.0</ele>
        <time>2019-08-16T09:51:58Z</time>
      </trkpt>
      <trkpt lat="42.0461710" lon="-6.4880250">
        <ele>944.9</ele>
        <time>2019-08-16T09:51:59Z</time>
      </trkpt>
      <trkpt lat="42.0462070" lon="-6.4880790">
        <ele>944.8</ele>
        <time>2019-08-16T09:52:00Z</time>
      </trkpt>
      <trkpt lat="42.0462450" lon="-6.4881330">
        <ele>944.7</ele>
        <time>2019-08-16T09:52:01Z</time>
      </trkpt>
      <trkpt lat="42.0462860" lon="-6.4881840">
        <ele>944.6</ele>
        <time>2019-08-16T09:52:02Z</time>
      </trkpt>
      <trkpt lat="42.0463270" lon="-6.4882340">
        <ele>944.4</ele>
        <time>2019-08-16T09:52:03Z</time>
      </trkpt>
      <trkpt lat="42.0463690" lon="-6.4882850">
        <ele>944.3</ele>
        <time>2019-08-16T09:52:04Z</time>
      </trkpt>
      <trkpt lat="42.0464090" lon="-6.4883350">
        <ele>944.2</ele>
        <time>2019-08-16T09:52:05Z</time>
      </trkpt>
      <trkpt lat="42.0464510" lon="-6.4883830">
        <ele>944.0</ele>
        <time>2019-08-16T09:52:06Z</time>
      </trkpt>
      <trkpt lat="42.0464940" lon="-6.4884270">
        <ele>943.9</ele>
        <time>2019-08-16T09:52:07Z</time>
      </trkpt>
      <trkpt lat="42.0465390" lon="-6.4884680">
        <ele>943.8</ele>
        <time>2019-08-16T09:52:08Z</time>
      </trkpt>
      <trkpt lat="42.0465840" lon="-6.4885040">
        <ele>943.7</ele>
        <time>2019-08-16T09:52:09Z</time>
      </trkpt>
      <trkpt lat="42.0466290" lon="-6.4885360">
        <ele>943.6</ele>
        <time>2019-08-16T09:52:10Z</time>
      </trkpt>
      <trkpt lat="42.0466740" lon="-6.4885650">
        <ele>943.5</ele>
        <time>2019-08-16T09:52:11Z</time>
      </trkpt>
      <trkpt lat="42.0467160" lon="-6.4885870">
        <ele>943.4</ele>
        <time>2019-08-16T09:52:12Z</time>
      </trkpt>
      <trkpt lat="42.0467580" lon="-6.4886040">
        <ele>943.3</ele>
        <time>2019-08-16T09:52:13Z</time>
      </trkpt>
      <trkpt lat="42.0467980" lon="-6.4886180">
        <ele>943.3</ele>
        <time>2019-08-16T09:52:14Z</time>
      </trkpt>
      <trkpt lat="42.0468360" lon="-6.4886310">
        <ele>943.2</ele>
        <time>2019-08-16T09:52:15Z</time>
      </trkpt>
      <trkpt lat="42.0468760" lon="-6.4886400">
        <ele>943.2</ele>
        <time>2019-08-16T09:52:16Z</time>
      </trkpt>
      <trkpt lat="42.0469180" lon="-6.4886510">
        <ele>943.2</ele>
        <time>2019-08-16T09:52:17Z</time>
      </trkpt>
      <trkpt lat="42.0469610" lon="-6.4886610">
        <ele>943.1</ele>
        <time>2019-08-16T09:52:18Z</time>
      </trkpt>
      <trkpt lat="42.0470040" lon="-6.4886700">
        <ele>943.1</ele>
        <time>2019-08-16T09:52:19Z</time>
      </trkpt>
      <trkpt lat="42.0470480" lon="-6.4886780">
        <ele>943.1</ele>
        <time>2019-08-16T09:52:20Z</time>
      </trkpt>
      <trkpt lat="42.0470910" lon="-6.4886870">
        <ele>943.1</ele>
        <time>2019-08-16T09:52:21Z</time>
      </trkpt>
      <trkpt lat="42.0471330" lon="-6.4886960">
        <ele>943.1</ele>
        <time>2019-08-16T09:52:22Z</time>
      </trkpt>
      <trkpt lat="42.0471730" lon="-6.4887060">
        <ele>943.1</ele>
        <time>2019-08-16T09:52:23Z</time>
      </trkpt>
      <trkpt lat="42.0472120" lon="-6.4887190">
        <ele>943.1</ele>
        <time>2019-08-16T09:52:24Z</time>
      </trkpt>
      <trkpt lat="42.0472470" lon="-6.4887360">
        <ele>943.2</ele>
        <time>2019-08-16T09:52:25Z</time>
      </trkpt>
      <trkpt lat="42.0472780" lon="-6.4887570">
        <ele>943.3</ele>
        <time>2019-08-16T09:52:26Z</time>
      </trkpt>
      <trkpt lat="42.0472990" lon="-6.4887860">
        <ele>943.4</ele>
        <time>2019-08-16T09:52:27Z</time>
      </trkpt>
      <trkpt lat="42.0473210" lon="-6.4888440">
        <ele>943.6</ele>
        <time>2019-08-16T09:52:29Z</time>
      </trkpt>
      <trkpt lat="42.0473370" lon="-6.4888980">
        <ele>943.8</ele>
        <time>2019-08-16T09:52:31Z</time>
      </trkpt>
      <trkpt lat="42.0473510" lon="-6.4889570">
        <ele>944.0</ele>
        <time>2019-08-16T09:52:33Z</time>
      </trkpt>
      <trkpt lat="42.0473680" lon="-6.4890180">
        <ele>944.4</ele>
        <time>2019-08-16T09:52:35Z</time>
      </trkpt>
      <trkpt lat="42.0473860" lon="-6.4890720">
        <ele>944.8</ele>
        <time>2019-08-16T09:52:37Z</time>
      </trkpt>
      <trkpt lat="42.0474040" lon="-6.4891120">
        <ele>945.1</ele>
        <time>2019-08-16T09:52:39Z</time>
      </trkpt>
      <trkpt lat="42.0474250" lon="-6.4891420">
        <ele>945.4</ele>
        <time>2019-08-16T09:52:41Z</time>
      </trkpt>
      <trkpt lat="42.0474500" lon="-6.4891680">
        <ele>945.7</ele>
        <time>2019-08-16T09:52:43Z</time>
      </trkpt>
      <trkpt lat="42.0474780" lon="-6.4891890">
        <ele>946.1</ele>
        <time>2019-08-16T09:52:45Z</time>
      </trkpt>
      <trkpt lat="42.0475090" lon="-6.4892080">
        <ele>946.4</ele>
        <time>2019-08-16T09:52:47Z</time>
      </trkpt>
      <trkpt lat="42.0475430" lon="-6.4892250">
        <ele>946.7</ele>
        <time>2019-08-16T09:52:49Z</time>
      </trkpt>
      <trkpt lat="42.0475760" lon="-6.4892370">
        <ele>947.0</ele>
        <time>2019-08-16T09:52:51Z</time>
      </trkpt>
      <trkpt lat="42.0476100" lon="-6.4892510">
        <ele>947.2</ele>
        <time>2019-08-16T09:52:53Z</time>
      </trkpt>
      <trkpt lat="42.0476440" lon="-6.4892640">
        <ele>947.5</ele>
        <time>2019-08-16T09:52:55Z</time>
      </trkpt>
      <trkpt lat="42.0476750" lon="-6.4892810">
        <ele>947.8</ele>
        <time>2019-08-16T09:52:57Z</time>
      </trkpt>
      <trkpt lat="42.0477060" lon="-6.4893000">
        <ele>948.0</ele>
        <time>2019-08-16T09:52:59Z</time>
      </trkpt>
      <trkpt lat="42.0477370" lon="-6.4893180">
        <ele>948.3</ele>
        <time>2019-08-16T09:53:01Z</time>
      </trkpt>
      <trkpt lat="42.0477660" lon="-6.4893390">
        <ele>948.6</ele>
        <time>2019-08-16T09:53:03Z</time>
      </trkpt>
      <trkpt lat="42.0477950" lon="-6.4893600">
        <ele>948.9</ele>
        <time>2019-08-16T09:53:05Z</time>
      </trkpt>
      <trkpt lat="42.0478210" lon="-6.4893800">
        <ele>949.2</ele>
        <time>2019-08-16T09:53:07Z</time>
      </trkpt>
      <trkpt lat="42.0478480" lon="-6.4894050">
        <ele>949.5</ele>
        <time>2019-08-16T09:53:09Z</time>
      </trkpt>
      <trkpt lat="42.0478780" lon="-6.4894290">
        <ele>949.8</ele>
        <time>2019-08-16T09:53:11Z</time>
      </trkpt>
      <trkpt lat="42.0479070" lon="-6.4894550">
        <ele>950.2</ele>
        <time>2019-08-16T09:53:13Z</time>
      </trkpt>
      <trkpt lat="42.0479360" lon="-6.4894830">
        <ele>950.6</ele>
        <time>2019-08-16T09:53:15Z</time>
      </trkpt>
      <trkpt lat="42.0479630" lon="-6.4895110">
        <ele>950.9</ele>
        <time>2019-08-16T09:53:17Z</time>
      </trkpt>
      <trkpt lat="42.0479900" lon="-6.4895440">
        <ele>951.3</ele>
        <time>2019-08-16T09:53:19Z</time>
      </trkpt>
      <trkpt lat="42.0480140" lon="-6.4895900">
        <ele>951.5</ele>
        <time>2019-08-16T09:53:21Z</time>
      </trkpt>
      <trkpt lat="42.0480320" lon="-6.4896450">
        <ele>951.6</ele>
        <time>2019-08-16T09:53:23Z</time>
      </trkpt>
      <trkpt lat="42.0480410" lon="-6.4897110">
        <ele>951.7</ele>
        <time>2019-08-16T09:53:25Z</time>
      </trkpt>
      <trkpt lat="42.0480430" lon="-6.4897500">
        <ele>951.8</ele>
        <time>2019-08-16T09:53:26Z</time>
      </trkpt>
      <trkpt lat="42.0480470" lon="-6.4897920">
        <ele>951.9</ele>
        <time>2019-08-16T09:53:27Z</time>
      </trkpt>
      <trkpt lat="42.0480530" lon="-6.4898320">
        <ele>952.0</ele>
        <time>2019-08-16T09:53:28Z</time>
      </trkpt>
      <trkpt lat="42.0480600" lon="-6.4898700">
        <ele>952.1</ele>
        <time>2019-08-16T09:53:29Z</time>
      </trkpt>
      <trkpt lat="42.0480750" lon="-6.4899350">
        <ele>952.2</ele>
        <time>2019-08-16T09:53:31Z</time>
      </trkpt>
      <trkpt lat="42.0480960" lon="-6.4900010">
        <ele>952.3</ele>
        <time>2019-08-16T09:53:33Z</time>
      </trkpt>
      <trkpt lat="42.0481090" lon="-6.4900360">
        <ele>952.3</ele>
        <time>2019-08-16T09:53:34Z</time>
      </trkpt>
      <trkpt lat="42.0481220" lon="-6.4900690">
        <ele>952.3</ele>
        <time>2019-08-16T09:53:35Z</time>
      </trkpt>
      <trkpt lat="42.0481340" lon="-6.4901040">
        <ele>952.4</ele>
        <time>2019-08-16T09:53:36Z</time>
      </trkpt>
      <trkpt lat="42.0481480" lon="-6.4901370">
        <ele>952.4</ele>
        <time>2019-08-16T09:53:37Z</time>
      </trkpt>
      <trkpt lat="42.0481620" lon="-6.4901720">
        <ele>952.5</ele>
        <time>2019-08-16T09:53:38Z</time>
      </trkpt>
      <trkpt lat="42.0481750" lon="-6.4902090">
        <ele>952.5</ele>
        <time>2019-08-16T09:53:39Z</time>
      </trkpt>
      <trkpt lat="42.0481890" lon="-6.4902450">
        <ele>952.6</ele>
        <time>2019-08-16T09:53:40Z</time>
      </trkpt>
      <trkpt lat="42.0482030" lon="-6.4902810">
        <ele>952.6</ele>
        <time>2019-08-16T09:53:41Z</time>
      </trkpt>
      <trkpt lat="42.0482170" lon="-6.4903190">
        <ele>952.7</ele>
        <time>2019-08-16T09:53:42Z</time>
      </trkpt>
      <trkpt lat="42.0482310" lon="-6.4903580">
        <ele>952.7</ele>
        <time>2019-08-16T09:53:43Z</time>
      </trkpt>
      <trkpt lat="42.0482470" lon="-6.4903960">
        <ele>952.8</ele>
        <time>2019-08-16T09:53:44Z</time>
      </trkpt>
      <trkpt lat="42.0482650" lon="-6.4904330">
        <ele>952.8</ele>
        <time>2019-08-16T09:53:45Z</time>
      </trkpt>
      <trkpt lat="42.0482860" lon="-6.4904660">
        <ele>952.9</ele>
        <time>2019-08-16T09:53:46Z</time>
      </trkpt>
      <trkpt lat="42.0483110" lon="-6.4904940">
        <ele>953.1</ele>
        <time>2019-08-16T09:53:47Z</time>
      </trkpt>
      <trkpt lat="42.0483390" lon="-6.4905140">
        <ele>953.3</ele>
        <time>2019-08-16T09:53:48Z</time>
      </trkpt>
      <trkpt lat="42.0483690" lon="-6.4905260">
        <ele>953.5</ele>
        <time>2019-08-16T09:53:49Z</time>
      </trkpt>
      <trkpt lat="42.0483990" lon="-6.4905320">
        <ele>953.6</ele>
        <time>2019-08-16T09:53:50Z</time>
      </trkpt>
      <trkpt lat="42.0484300" lon="-6.4905340">
        <ele>953.8</ele>
        <time>2019-08-16T09:53:51Z</time>
      </trkpt>
      <trkpt lat="42.0484620" lon="-6.4905360">
        <ele>954.0</ele>
        <time>2019-08-16T09:53:52Z</time>
      </trkpt>
      <trkpt lat="42.0484930" lon="-6.4905400">
        <ele>954.2</ele>
        <time>2019-08-16T09:53:53Z</time>
      </trkpt>
      <trkpt lat="42.0485240" lon="-6.4905460">
        <ele>954.4</ele>
        <time>2019-08-16T09:53:54Z</time>
      </trkpt>
      <trkpt lat="42.0485540" lon="-6.4905520">
        <ele>954.6</ele>
        <time>2019-08-16T09:53:55Z</time>
      </trkpt>
      <trkpt lat="42.0485830" lon="-6.4905580">
        <ele>954.8</ele>
        <time>2019-08-16T09:53:56Z</time>
      </trkpt>
      <trkpt lat="42.0486110" lon="-6.4905650">
        <ele>955.0</ele>
        <time>2019-08-16T09:53:57Z</time>
      </trkpt>
      <trkpt lat="42.0486380" lon="-6.4905710">
        <ele>955.2</ele>
        <time>2019-08-16T09:53:58Z</time>
      </trkpt>
      <trkpt lat="42.0486650" lon="-6.4905780">
        <ele>955.5</ele>
        <time>2019-08-16T09:53:59Z</time>
      </trkpt>
      <trkpt lat="42.0486920" lon="-6.4905860">
        <ele>955.7</ele>
        <time>2019-08-16T09:54:00Z</time>
      </trkpt>
      <trkpt lat="42.0487190" lon="-6.4905950">
        <ele>955.9</ele>
        <time>2019-08-16T09:54:01Z</time>
      </trkpt>
      <trkpt lat="42.0487470" lon="-6.4906040">
        <ele>956.2</ele>
        <time>2019-08-16T09:54:02Z</time>
      </trkpt>
      <trkpt lat="42.0487750" lon="-6.4906120">
        <ele>956.4</ele>
        <time>2019-08-16T09:54:03Z</time>
      </trkpt>
      <trkpt lat="42.0488020" lon="-6.4906210">
        <ele>956.6</ele>
        <time>2019-08-16T09:54:04Z</time>
      </trkpt>
      <trkpt lat="42.0488530" lon="-6.4906400">
        <ele>957.0</ele>
        <time>2019-08-16T09:54:06Z</time>
      </trkpt>
      <trkpt lat="42.0489030" lon="-6.4906570">
        <ele>957.5</ele>
        <time>2019-08-16T09:54:08Z</time>
      </trkpt>
      <trkpt lat="42.0489530" lon="-6.4906650">
        <ele>957.9</ele>
        <time>2019-08-16T09:54:10Z</time>
      </trkpt>
      <trkpt lat="42.0490060" lon="-6.4906650">
        <ele>958.6</ele>
        <time>2019-08-16T09:54:12Z</time>
      </trkpt>
      <trkpt lat="42.0490570" lon="-6.4906570">
        <ele>958.8</ele>
        <time>2019-08-16T09:54:14Z</time>
      </trkpt>
      <trkpt lat="42.0491040" lon="-6.4906440">
        <ele>959.1</ele>
        <time>2019-08-16T09:54:16Z</time>
      </trkpt>
      <trkpt lat="42.0491500" lon="-6.4906280">
        <ele>959.3</ele>
        <time>2019-08-16T09:54:18Z</time>
      </trkpt>
      <trkpt lat="42.0492020" lon="-6.4906140">
        <ele>959.6</ele>
        <time>2019-08-16T09:54:20Z</time>
      </trkpt>
      <trkpt lat="42.0492470" lon="-6.4906010">
        <ele>959.8</ele>
        <time>2019-08-16T09:54:22Z</time>
      </trkpt>
      <trkpt lat="42.0492930" lon="-6.4905870">
        <ele>960.0</ele>
        <time>2019-08-16T09:54:24Z</time>
      </trkpt>
      <trkpt lat="42.0493200" lon="-6.4905810">
        <ele>960.1</ele>
        <time>2019-08-16T09:54:25Z</time>
      </trkpt>
      <trkpt lat="42.0493490" lon="-6.4905740">
        <ele>960.2</ele>
        <time>2019-08-16T09:54:26Z</time>
      </trkpt>
      <trkpt lat="42.0493780" lon="-6.4905650">
        <ele>960.3</ele>
        <time>2019-08-16T09:54:27Z</time>
      </trkpt>
      <trkpt lat="42.0494080" lon="-6.4905570">
        <ele>960.4</ele>
        <time>2019-08-16T09:54:28Z</time>
      </trkpt>
      <trkpt lat="42.0494360" lon="-6.4905500">
        <ele>960.5</ele>
        <time>2019-08-16T09:54:29Z</time>
      </trkpt>
      <trkpt lat="42.0494860" lon="-6.4905440">
        <ele>960.6</ele>
        <time>2019-08-16T09:54:31Z</time>
      </trkpt>
      <trkpt lat="42.0495280" lon="-6.4905460">
        <ele>960.6</ele>
        <time>2019-08-16T09:54:33Z</time>
      </trkpt>
      <trkpt lat="42.0495610" lon="-6.4905510">
        <ele>960.7</ele>
        <time>2019-08-16T09:54:35Z</time>
      </trkpt>
      <trkpt lat="42.0496000" lon="-6.4905500">
        <ele>960.8</ele>
        <time>2019-08-16T09:54:37Z</time>
      </trkpt>
      <trkpt lat="42.0496470" lon="-6.4905690">
        <ele>960.9</ele>
        <time>2019-08-16T09:54:39Z</time>
      </trkpt>
      <trkpt lat="42.0496890" lon="-6.4906100">
        <ele>961.0</ele>
        <time>2019-08-16T09:54:41Z</time>
      </trkpt>
      <trkpt lat="42.0497300" lon="-6.4906390">
        <ele>961.1</ele>
        <time>2019-08-16T09:54:43Z</time>
      </trkpt>
      <trkpt lat="42.0497560" lon="-6.4906510">
        <ele>961.2</ele>
        <time>2019-08-16T09:54:44Z</time>
      </trkpt>
      <trkpt lat="42.0497850" lon="-6.4906600">
        <ele>961.3</ele>
        <time>2019-08-16T09:54:45Z</time>
      </trkpt>
      <trkpt lat="42.0498160" lon="-6.4906650">
        <ele>961.3</ele>
        <time>2019-08-16T09:54:46Z</time>
      </trkpt>
      <trkpt lat="42.0498500" lon="-6.4906640">
        <ele>961.4</ele>
        <time>2019-08-16T09:54:47Z</time>
      </trkpt>
      <trkpt lat="42.0498840" lon="-6.4906590">
        <ele>961.4</ele>
        <time>2019-08-16T09:54:48Z</time>
      </trkpt>
      <trkpt lat="42.0499200" lon="-6.4906520">
        <ele>961.5</ele>
        <time>2019-08-16T09:54:49Z</time>
      </trkpt>
      <trkpt lat="42.0499570" lon="-6.4906430">
        <ele>961.6</ele>
        <time>2019-08-16T09:54:50Z</time>
      </trkpt>
      <trkpt lat="42.0499950" lon="-6.4906310">
        <ele>961.7</ele>
        <time>2019-08-16T09:54:51Z</time>
      </trkpt>
      <trkpt lat="42.0500350" lon="-6.4906180">
        <ele>961.8</ele>
        <time>2019-08-16T09:54:52Z</time>
      </trkpt>
      <trkpt lat="42.0500750" lon="-6.4906040">
        <ele>961.9</ele>
        <time>2019-08-16T09:54:53Z</time>
      </trkpt>
      <trkpt lat="42.0501150" lon="-6.4905890">
        <ele>962.0</ele>
        <time>2019-08-16T09:54:54Z</time>
      </trkpt>
      <trkpt lat="42.0501550" lon="-6.4905740">
        <ele>962.1</ele>
        <time>2019-08-16T09:54:55Z</time>
      </trkpt>
      <trkpt lat="42.0501960" lon="-6.4905600">
        <ele>962.2</ele>
        <time>2019-08-16T09:54:56Z</time>
      </trkpt>
      <trkpt lat="42.0502380" lon="-6.4905440">
        <ele>962.3</ele>
        <time>2019-08-16T09:54:57Z</time>
      </trkpt>
      <trkpt lat="42.0502780" lon="-6.4905280">
        <ele>962.4</ele>
        <time>2019-08-16T09:54:58Z</time>
      </trkpt>
      <trkpt lat="42.0503160" lon="-6.4905140">
        <ele>962.5</ele>
        <time>2019-08-16T09:54:59Z</time>
      </trkpt>
      <trkpt lat="42.0503510" lon="-6.4905040">
        <ele>962.6</ele>
        <time>2019-08-16T09:55:00Z</time>
      </trkpt>
      <trkpt lat="42.0503850" lon="-6.4904950">
        <ele>962.8</ele>
        <time>2019-08-16T09:55:01Z</time>
      </trkpt>
      <trkpt lat="42.0504220" lon="-6.4904870">
        <ele>962.9</ele>
        <time>2019-08-16T09:55:02Z</time>
      </trkpt>
      <trkpt lat="42.0504600" lon="-6.4904770">
        <ele>963.1</ele>
        <time>2019-08-16T09:55:03Z</time>
      </trkpt>
      <trkpt lat="42.0504970" lon="-6.4904740">
        <ele>963.3</ele>
        <time>2019-08-16T09:55:04Z</time>
      </trkpt>
      <trkpt lat="42.0505330" lon="-6.4904740">
        <ele>963.5</ele>
        <time>2019-08-16T09:55:05Z</time>
      </trkpt>
      <trkpt lat="42.0505680" lon="-6.4904740">
        <ele>963.8</ele>
        <time>2019-08-16T09:55:06Z</time>
      </trkpt>
      <trkpt lat="42.0506010" lon="-6.4904780">
        <ele>964.1</ele>
        <time>2019-08-16T09:55:07Z</time>
      </trkpt>
      <trkpt lat="42.0506320" lon="-6.4904870">
        <ele>964.4</ele>
        <time>2019-08-16T09:55:08Z</time>
      </trkpt>
      <trkpt lat="42.0506600" lon="-6.4904970">
        <ele>964.7</ele>
        <time>2019-08-16T09:55:09Z</time>
      </trkpt>
      <trkpt lat="42.0507060" lon="-6.4905240">
        <ele>965.2</ele>
        <time>2019-08-16T09:55:11Z</time>
      </trkpt>
      <trkpt lat="42.0507480" lon="-6.4905560">
        <ele>965.7</ele>
        <time>2019-08-16T09:55:13Z</time>
      </trkpt>
      <trkpt lat="42.0507790" lon="-6.4905930">
        <ele>966.2</ele>
        <time>2019-08-16T09:55:15Z</time>
      </trkpt>
      <trkpt lat="42.0508120" lon="-6.4906160">
        <ele>966.5</ele>
        <time>2019-08-16T09:55:17Z</time>
      </trkpt>
      <trkpt lat="42.0508460" lon="-6.4905800">
        <ele>966.7</ele>
        <time>2019-08-16T09:55:19Z</time>
      </trkpt>
      <trkpt lat="42.0508720" lon="-6.4905230">
        <ele>967.0</ele>
        <time>2019-08-16T09:55:21Z</time>
      </trkpt>
      <trkpt lat="42.0509060" lon="-6.4904750">
        <ele>967.3</ele>
        <time>2019-08-16T09:55:23Z</time>
      </trkpt>
      <trkpt lat="42.0509500" lon="-6.4904350">
        <ele>967.5</ele>
        <time>2019-08-16T09:55:25Z</time>
      </trkpt>
      <trkpt lat="42.0509740" lon="-6.4904160">
        <ele>967.7</ele>
        <time>2019-08-16T09:55:26Z</time>
      </trkpt>
      <trkpt lat="42.0509990" lon="-6.4903990">
        <ele>967.8</ele>
        <time>2019-08-16T09:55:27Z</time>
      </trkpt>
      <trkpt lat="42.0510250" lon="-6.4903840">
        <ele>967.9</ele>
        <time>2019-08-16T09:55:28Z</time>
      </trkpt>
      <trkpt lat="42.0510510" lon="-6.4903710">
        <ele>968.0</ele>
        <time>2019-08-16T09:55:29Z</time>
      </trkpt>
      <trkpt lat="42.0510780" lon="-6.4903580">
        <ele>968.1</ele>
        <time>2019-08-16T09:55:30Z</time>
      </trkpt>
      <trkpt lat="42.0511050" lon="-6.4903460">
        <ele>968.2</ele>
        <time>2019-08-16T09:55:31Z</time>
      </trkpt>
      <trkpt lat="42.0511330" lon="-6.4903320">
        <ele>968.3</ele>
        <time>2019-08-16T09:55:32Z</time>
      </trkpt>
      <trkpt lat="42.0511610" lon="-6.4903140">
        <ele>968.4</ele>
        <time>2019-08-16T09:55:33Z</time>
      </trkpt>
      <trkpt lat="42.0511900" lon="-6.4902970">
        <ele>968.5</ele>
        <time>2019-08-16T09:55:34Z</time>
      </trkpt>
      <trkpt lat="42.0512200" lon="-6.4902810">
        <ele>968.6</ele>
        <time>2019-08-16T09:55:35Z</time>
      </trkpt>
      <trkpt lat="42.0512490" lon="-6.4902650">
        <ele>968.7</ele>
        <time>2019-08-16T09:55:36Z</time>
      </trkpt>
      <trkpt lat="42.0512760" lon="-6.4902530">
        <ele>968.8</ele>
        <time>2019-08-16T09:55:37Z</time>
      </trkpt>
      <trkpt lat="42.0513210" lon="-6.4902440">
        <ele>968.9</ele>
        <time>2019-08-16T09:55:39Z</time>
      </trkpt>
      <trkpt lat="42.0513550" lon="-6.4902530">
        <ele>969.0</ele>
        <time>2019-08-16T09:55:41Z</time>
      </trkpt>
      <trkpt lat="42.0513920" lon="-6.4902780">
        <ele>969.2</ele>
        <time>2019-08-16T09:55:43Z</time>
      </trkpt>
      <trkpt lat="42.0514200" lon="-6.4902930">
        <ele>969.4</ele>
        <time>2019-08-16T09:55:44Z</time>
      </trkpt>
      <trkpt lat="42.0514550" lon="-6.4903030">
        <ele>969.6</ele>
        <time>2019-08-16T09:55:45Z</time>
      </trkpt>
      <trkpt lat="42.0514950" lon="-6.4903070">
        <ele>969.8</ele>
        <time>2019-08-16T09:55:46Z</time>
      </trkpt>
      <trkpt lat="42.0515330" lon="-6.4903050">
        <ele>970.1</ele>
        <time>2019-08-16T09:55:47Z</time>
      </trkpt>
      <trkpt lat="42.0515690" lon="-6.4903010">
        <ele>970.3</ele>
        <time>2019-08-16T09:55:48Z</time>
      </trkpt>
      <trkpt lat="42.0516030" lon="-6.4902980">
        <ele>970.5</ele>
        <time>2019-08-16T09:55:49Z</time>
      </trkpt>
      <trkpt lat="42.0516370" lon="-6.4902960">
        <ele>970.7</ele>
        <time>2019-08-16T09:55:50Z</time>
      </trkpt>
      <trkpt lat="42.0516730" lon="-6.4902940">
        <ele>970.9</ele>
        <time>2019-08-16T09:55:51Z</time>
      </trkpt>
      <trkpt lat="42.0517080" lon="-6.4902890">
        <ele>971.1</ele>
        <time>2019-08-16T09:55:52Z</time>
      </trkpt>
      <trkpt lat="42.0517410" lon="-6.4902810">
        <ele>971.2</ele>
        <time>2019-08-16T09:55:53Z</time>
      </trkpt>
      <trkpt lat="42.0517730" lon="-6.4902730">
        <ele>971.3</ele>
        <time>2019-08-16T09:55:54Z</time>
      </trkpt>
      <trkpt lat="42.0518040" lon="-6.4902660">
        <ele>971.4</ele>
        <time>2019-08-16T09:55:55Z</time>
      </trkpt>
      <trkpt lat="42.0518330" lon="-6.4902590">
        <ele>971.6</ele>
        <time>2019-08-16T09:55:56Z</time>
      </trkpt>
      <trkpt lat="42.0518610" lon="-6.4902500">
        <ele>971.7</ele>
        <time>2019-08-16T09:55:57Z</time>
      </trkpt>
      <trkpt lat="42.0518880" lon="-6.4902400">
        <ele>972.3</ele>
        <time>2019-08-16T09:55:58Z</time>
      </trkpt>
      <trkpt lat="42.0519370" lon="-6.4902270">
        <ele>972.7</ele>
        <time>2019-08-16T09:56:00Z</time>
      </trkpt>
      <trkpt lat="42.0519810" lon="-6.4902130">
        <ele>973.0</ele>
        <time>2019-08-16T09:56:02Z</time>
      </trkpt>
      <trkpt lat="42.0520260" lon="-6.4902010">
        <ele>973.2</ele>
        <time>2019-08-16T09:56:04Z</time>
      </trkpt>
      <trkpt lat="42.0520740" lon="-6.4901860">
        <ele>973.4</ele>
        <time>2019-08-16T09:56:06Z</time>
      </trkpt>
      <trkpt lat="42.0521210" lon="-6.4901680">
        <ele>973.6</ele>
        <time>2019-08-16T09:56:08Z</time>
      </trkpt>
      <trkpt lat="42.0521690" lon="-6.4901550">
        <ele>973.8</ele>
        <time>2019-08-16T09:56:10Z</time>
      </trkpt>
      <trkpt lat="42.0522190" lon="-6.4901400">
        <ele>974.1</ele>
        <time>2019-08-16T09:56:12Z</time>
      </trkpt>
      <trkpt lat="42.0522710" lon="-6.4901260">
        <ele>974.4</ele>
        <time>2019-08-16T09:56:14Z</time>
      </trkpt>
      <trkpt lat="42.0523230" lon="-6.4901180">
        <ele>974.5</ele>
        <time>2019-08-16T09:56:16Z</time>
      </trkpt>
      <trkpt lat="42.0523770" lon="-6.4901080">
        <ele>974.7</ele>
        <time>2019-08-16T09:56:18Z</time>
      </trkpt>
      <trkpt lat="42.0524050" lon="-6.4901030">
        <ele>974.7</ele>
        <time>2019-08-16T09:56:19Z</time>
      </trkpt>
      <trkpt lat="42.0524350" lon="-6.4900990">
        <ele>974.8</ele>
        <time>2019-08-16T09:56:20Z</time>
      </trkpt>
      <trkpt lat="42.0524660" lon="-6.4900950">
        <ele>974.9</ele>
        <time>2019-08-16T09:56:21Z</time>
      </trkpt>
      <trkpt lat="42.0524970" lon="-6.4900920">
        <ele>975.0</ele>
        <time>2019-08-16T09:56:22Z</time>
      </trkpt>
      <trkpt lat="42.0525280" lon="-6.4900870">
        <ele>975.1</ele>
        <time>2019-08-16T09:56:23Z</time>
      </trkpt>
      <trkpt lat="42.0525600" lon="-6.4900800">
        <ele>975.1</ele>
        <time>2019-08-16T09:56:24Z</time>
      </trkpt>
      <trkpt lat="42.0525910" lon="-6.4900720">
        <ele>975.2</ele>
        <time>2019-08-16T09:56:25Z</time>
      </trkpt>
      <trkpt lat="42.0526210" lon="-6.4900610">
        <ele>975.2</ele>
        <time>2019-08-16T09:56:26Z</time>
      </trkpt>
      <trkpt lat="42.0526510" lon="-6.4900460">
        <ele>975.3</ele>
        <time>2019-08-16T09:56:27Z</time>
      </trkpt>
      <trkpt lat="42.0526810" lon="-6.4900300">
        <ele>975.4</ele>
        <time>2019-08-16T09:56:28Z</time>
      </trkpt>
      <trkpt lat="42.0527120" lon="-6.4900170">
        <ele>975.4</ele>
        <time>2019-08-16T09:56:29Z</time>
      </trkpt>
      <trkpt lat="42.0527410" lon="-6.4900050">
        <ele>975.5</ele>
        <time>2019-08-16T09:56:30Z</time>
      </trkpt>
      <trkpt lat="42.0527690" lon="-6.4899930">
        <ele>975.6</ele>
        <time>2019-08-16T09:56:31Z</time>
      </trkpt>
      <trkpt lat="42.0528090" lon="-6.4899710">
        <ele>975.7</ele>
        <time>2019-08-16T09:56:33Z</time>
      </trkpt>
      <trkpt lat="42.0528360" lon="-6.4899600">
        <ele>975.7</ele>
        <time>2019-08-16T09:56:35Z</time>
      </trkpt>
      <trkpt lat="42.0528640" lon="-6.4900040">
        <ele>975.7</ele>
        <time>2019-08-16T09:56:37Z</time>
      </trkpt>
      <trkpt lat="42.0528690" lon="-6.4900420">
        <ele>975.7</ele>
        <time>2019-08-16T09:56:38Z</time>
      </trkpt>
      <trkpt lat="42.0528710" lon="-6.4900840">
        <ele>975.7</ele>
        <time>2019-08-16T09:56:39Z</time>
      </trkpt>
      <trkpt lat="42.0528740" lon="-6.4901290">
        <ele>975.8</ele>
        <time>2019-08-16T09:56:40Z</time>
      </trkpt>
      <trkpt lat="42.0528760" lon="-6.4901770">
        <ele>975.8</ele>
        <time>2019-08-16T09:56:41Z</time>
      </trkpt>
      <trkpt lat="42.0528790" lon="-6.4902290">
        <ele>975.9</ele>
        <time>2019-08-16T09:56:42Z</time>
      </trkpt>
      <trkpt lat="42.0528780" lon="-6.4902820">
        <ele>975.9</ele>
        <time>2019-08-16T09:56:43Z</time>
      </trkpt>
      <trkpt lat="42.0528760" lon="-6.4903370">
        <ele>976.0</ele>
        <time>2019-08-16T09:56:44Z</time>
      </trkpt>
      <trkpt lat="42.0528710" lon="-6.4903930">
        <ele>976.0</ele>
        <time>2019-08-16T09:56:45Z</time>
      </trkpt>
      <trkpt lat="42.0528630" lon="-6.4904480">
        <ele>976.1</ele>
        <time>2019-08-16T09:56:46Z</time>
      </trkpt>
      <trkpt lat="42.0528510" lon="-6.4905020">
        <ele>976.1</ele>
        <time>2019-08-16T09:56:47Z</time>
      </trkpt>
      <trkpt lat="42.0528360" lon="-6.4905560">
        <ele>976.2</ele>
        <time>2019-08-16T09:56:48Z</time>
      </trkpt>
      <trkpt lat="42.0528170" lon="-6.4906110">
        <ele>976.2</ele>
        <time>2019-08-16T09:56:49Z</time>
      </trkpt>
      <trkpt lat="42.0527960" lon="-6.4906650">
        <ele>976.3</ele>
        <time>2019-08-16T09:56:50Z</time>
      </trkpt>
      <trkpt lat="42.0527730" lon="-6.4907210">
        <ele>976.3</ele>
        <time>2019-08-16T09:56:51Z</time>
      </trkpt>
      <trkpt lat="42.0527480" lon="-6.4907780">
        <ele>976.3</ele>
        <time>2019-08-16T09:56:52Z</time>
      </trkpt>
      <trkpt lat="42.0527240" lon="-6.4908360">
        <ele>976.4</ele>
        <time>2019-08-16T09:56:53Z</time>
      </trkpt>
      <trkpt lat="42.0527020" lon="-6.4908950">
        <ele>976.5</ele>
        <time>2019-08-16T09:56:54Z</time>
      </trkpt>
      <trkpt lat="42.0526830" lon="-6.4909540">
        <ele>976.7</ele>
        <time>2019-08-16T09:56:55Z</time>
      </trkpt>
      <trkpt lat="42.0526670" lon="-6.4910100">
        <ele>976.8</ele>
        <time>2019-08-16T09:56:56Z</time>
      </trkpt>
      <trkpt lat="42.0526560" lon="-6.4910670">
        <ele>977.0</ele>
        <time>2019-08-16T09:56:57Z</time>
      </trkpt>
      <trkpt lat="42.0526470" lon="-6.4911250">
        <ele>977.0</ele>
        <time>2019-08-16T09:56:58Z</time>
      </trkpt>
      <trkpt lat="42.0526390" lon="-6.4911850">
        <ele>977.1</ele>
        <time>2019-08-16T09:56:59Z</time>
      </trkpt>
      <trkpt lat="42.0526330" lon="-6.4912440">
        <ele>977.2</ele>
        <time>2019-08-16T09:57:00Z</time>
      </trkpt>
      <trkpt lat="42.0526270" lon="-6.4913040">
        <ele>977.2</ele>
        <time>2019-08-16T09:57:01Z</time>
      </trkpt>
      <trkpt lat="42.0526200" lon="-6.4913650">
        <ele>977.2</ele>
        <time>2019-08-16T09:57:02Z</time>
      </trkpt>
      <trkpt lat="42.0526130" lon="-6.4914270">
        <ele>977.2</ele>
        <time>2019-08-16T09:57:03Z</time>
      </trkpt>
      <trkpt lat="42.0526050" lon="-6.4914870">
        <ele>977.2</ele>
        <time>2019-08-16T09:57:04Z</time>
      </trkpt>
      <trkpt lat="42.0525960" lon="-6.4915460">
        <ele>977.2</ele>
        <time>2019-08-16T09:57:05Z</time>
      </trkpt>
      <trkpt lat="42.0525860" lon="-6.4916040">
        <ele>977.2</ele>
        <time>2019-08-16T09:57:06Z</time>
      </trkpt>
      <trkpt lat="42.0525730" lon="-6.4916610">
        <ele>977.2</ele>
        <time>2019-08-16T09:57:07Z</time>
      </trkpt>
      <trkpt lat="42.0525600" lon="-6.4917180">
        <ele>977.2</ele>
        <time>2019-08-16T09:57:08Z</time>
      </trkpt>
      <trkpt lat="42.0525460" lon="-6.4917740">
        <ele>977.1</ele>
        <time>2019-08-16T09:57:09Z</time>
      </trkpt>
      <trkpt lat="42.0525280" lon="-6.4918300">
        <ele>977.1</ele>
        <time>2019-08-16T09:57:10Z</time>
      </trkpt>
      <trkpt lat="42.0525100" lon="-6.4918840">
        <ele>977.1</ele>
        <time>2019-08-16T09:57:11Z</time>
      </trkpt>
      <trkpt lat="42.0524890" lon="-6.4919400">
        <ele>977.1</ele>
        <time>2019-08-16T09:57:12Z</time>
      </trkpt>
      <trkpt lat="42.0524680" lon="-6.4919960">
        <ele>977.1</ele>
        <time>2019-08-16T09:57:13Z</time>
      </trkpt>
      <trkpt lat="42.0524460" lon="-6.4920520">
        <ele>977.1</ele>
        <time>2019-08-16T09:57:14Z</time>
      </trkpt>
      <trkpt lat="42.0524260" lon="-6.4921090">
        <ele>977.0</ele>
        <time>2019-08-16T09:57:15Z</time>
      </trkpt>
      <trkpt lat="42.0524080" lon="-6.4921680">
        <ele>977.0</ele>
        <time>2019-08-16T09:57:16Z</time>
      </trkpt>
      <trkpt lat="42.0523910" lon="-6.4922260">
        <ele>977.0</ele>
        <time>2019-08-16T09:57:17Z</time>
      </trkpt>
      <trkpt lat="42.0523750" lon="-6.4922860">
        <ele>977.0</ele>
        <time>2019-08-16T09:57:18Z</time>
      </trkpt>
      <trkpt lat="42.0523600" lon="-6.4923470">
        <ele>977.0</ele>
        <time>2019-08-16T09:57:19Z</time>
      </trkpt>
      <trkpt lat="42.0523460" lon="-6.4924080">
        <ele>977.0</ele>
        <time>2019-08-16T09:57:20Z</time>
      </trkpt>
      <trkpt lat="42.0523310" lon="-6.4924690">
        <ele>976.9</ele>
        <time>2019-08-16T09:57:21Z</time>
      </trkpt>
      <trkpt lat="42.0523190" lon="-6.4925290">
        <ele>976.9</ele>
        <time>2019-08-16T09:57:22Z</time>
      </trkpt>
      <trkpt lat="42.0523080" lon="-6.4925880">
        <ele>976.9</ele>
        <time>2019-08-16T09:57:23Z</time>
      </trkpt>
      <trkpt lat="42.0522960" lon="-6.4926450">
        <ele>976.9</ele>
        <time>2019-08-16T09:57:24Z</time>
      </trkpt>
      <trkpt lat="42.0522840" lon="-6.4927070">
        <ele>976.9</ele>
        <time>2019-08-16T09:57:25Z</time>
      </trkpt>
      <trkpt lat="42.0522720" lon="-6.4927690">
        <ele>976.9</ele>
        <time>2019-08-16T09:57:26Z</time>
      </trkpt>
      <trkpt lat="42.0522590" lon="-6.4928320">
        <ele>976.9</ele>
        <time>2019-08-16T09:57:27Z</time>
      </trkpt>
      <trkpt lat="42.0522460" lon="-6.4928970">
        <ele>976.9</ele>
        <time>2019-08-16T09:57:28Z</time>
      </trkpt>
      <trkpt lat="42.0522350" lon="-6.4929620">
        <ele>976.9</ele>
        <time>2019-08-16T09:57:29Z</time>
      </trkpt>
      <trkpt lat="42.0522240" lon="-6.4930270">
        <ele>977.0</ele>
        <time>2019-08-16T09:57:30Z</time>
      </trkpt>
      <trkpt lat="42.0522140" lon="-6.4930930">
        <ele>977.0</ele>
        <time>2019-08-16T09:57:31Z</time>
      </trkpt>
      <trkpt lat="42.0522050" lon="-6.4931600">
        <ele>977.1</ele>
        <time>2019-08-16T09:57:32Z</time>
      </trkpt>
      <trkpt lat="42.0522010" lon="-6.4932270">
        <ele>977.1</ele>
        <time>2019-08-16T09:57:33Z</time>
      </trkpt>
      <trkpt lat="42.0521980" lon="-6.4932910">
        <ele>977.2</ele>
        <time>2019-08-16T09:57:34Z</time>
      </trkpt>
      <trkpt lat="42.0521970" lon="-6.4933530">
        <ele>977.3</ele>
        <time>2019-08-16T09:57:35Z</time>
      </trkpt>
      <trkpt lat="42.0521950" lon="-6.4934120">
        <ele>977.4</ele>
        <time>2019-08-16T09:57:36Z</time>
      </trkpt>
      <trkpt lat="42.0521940" lon="-6.4934690">
        <ele>977.6</ele>
        <time>2019-08-16T09:57:37Z</time>
      </trkpt>
      <trkpt lat="42.0521930" lon="-6.4935240">
        <ele>977.7</ele>
        <time>2019-08-16T09:57:38Z</time>
      </trkpt>
      <trkpt lat="42.0521910" lon="-6.4935800">
        <ele>977.8</ele>
        <time>2019-08-16T09:57:39Z</time>
      </trkpt>
      <trkpt lat="42.0521900" lon="-6.4936360">
        <ele>978.0</ele>
        <time>2019-08-16T09:57:40Z</time>
      </trkpt>
      <trkpt lat="42.0521880" lon="-6.4936930">
        <ele>978.1</ele>
        <time>2019-08-16T09:57:41Z</time>
      </trkpt>
      <trkpt lat="42.0521870" lon="-6.4937480">
        <ele>978.3</ele>
        <time>2019-08-16T09:57:42Z</time>
      </trkpt>
      <trkpt lat="42.0521870" lon="-6.4938040">
        <ele>978.4</ele>
        <time>2019-08-16T09:57:43Z</time>
      </trkpt>
      <trkpt lat="42.0521870" lon="-6.4938590">
        <ele>978.5</ele>
        <time>2019-08-16T09:57:44Z</time>
      </trkpt>
      <trkpt lat="42.0521890" lon="-6.4939130">
        <ele>978.7</ele>
        <time>2019-08-16T09:57:45Z</time>
      </trkpt>
      <trkpt lat="42.0521940" lon="-6.4939650">
        <ele>978.8</ele>
        <time>2019-08-16T09:57:46Z</time>
      </trkpt>
      <trkpt lat="42.0522030" lon="-6.4940160">
        <ele>978.8</ele>
        <time>2019-08-16T09:57:47Z</time>
      </trkpt>
      <trkpt lat="42.0522120" lon="-6.4940680">
        <ele>978.8</ele>
        <time>2019-08-16T09:57:48Z</time>
      </trkpt>
      <trkpt lat="42.0522230" lon="-6.4941200">
        <ele>978.9</ele>
        <time>2019-08-16T09:57:49Z</time>
      </trkpt>
      <trkpt lat="42.0522350" lon="-6.4941750">
        <ele>978.9</ele>
        <time>2019-08-16T09:57:50Z</time>
      </trkpt>
      <trkpt lat="42.0522460" lon="-6.4942290">
        <ele>978.9</ele>
        <time>2019-08-16T09:57:51Z</time>
      </trkpt>
      <trkpt lat="42.0522590" lon="-6.4942840">
        <ele>978.9</ele>
        <time>2019-08-16T09:57:52Z</time>
      </trkpt>
      <trkpt lat="42.0522730" lon="-6.4943410">
        <ele>978.9</ele>
        <time>2019-08-16T09:57:53Z</time>
      </trkpt>
      <trkpt lat="42.0522860" lon="-6.4943970">
        <ele>978.9</ele>
        <time>2019-08-16T09:57:54Z</time>
      </trkpt>
      <trkpt lat="42.0522990" lon="-6.4944530">
        <ele>978.9</ele>
        <time>2019-08-16T09:57:55Z</time>
      </trkpt>
      <trkpt lat="42.0523130" lon="-6.4945100">
        <ele>979.0</ele>
        <time>2019-08-16T09:57:56Z</time>
      </trkpt>
      <trkpt lat="42.0523270" lon="-6.4945680">
        <ele>979.0</ele>
        <time>2019-08-16T09:57:57Z</time>
      </trkpt>
      <trkpt lat="42.0523400" lon="-6.4946250">
        <ele>979.1</ele>
        <time>2019-08-16T09:57:58Z</time>
      </trkpt>
      <trkpt lat="42.0523530" lon="-6.4946840">
        <ele>979.2</ele>
        <time>2019-08-16T09:57:59Z</time>
      </trkpt>
      <trkpt lat="42.0523660" lon="-6.4947430">
        <ele>979.4</ele>
        <time>2019-08-16T09:58:00Z</time>
      </trkpt>
      <trkpt lat="42.0523800" lon="-6.4948010">
        <ele>979.5</ele>
        <time>2019-08-16T09:58:01Z</time>
      </trkpt>
      <trkpt lat="42.0523930" lon="-6.4948590">
        <ele>979.7</ele>
        <time>2019-08-16T09:58:02Z</time>
      </trkpt>
      <trkpt lat="42.0524060" lon="-6.4949180">
        <ele>979.9</ele>
        <time>2019-08-16T09:58:03Z</time>
      </trkpt>
      <trkpt lat="42.0524190" lon="-6.4949760">
        <ele>980.1</ele>
        <time>2019-08-16T09:58:04Z</time>
      </trkpt>
      <trkpt lat="42.0524320" lon="-6.4950330">
        <ele>980.3</ele>
        <time>2019-08-16T09:58:05Z</time>
      </trkpt>
      <trkpt lat="42.0524450" lon="-6.4950890">
        <ele>980.5</ele>
        <time>2019-08-16T09:58:06Z</time>
      </trkpt>
      <trkpt lat="42.0524590" lon="-6.4951450">
        <ele>980.6</ele>
        <time>2019-08-16T09:58:07Z</time>
      </trkpt>
      <trkpt lat="42.0524710" lon="-6.4952010">
        <ele>980.7</ele>
        <time>2019-08-16T09:58:08Z</time>
      </trkpt>
      <trkpt lat="42.0524840" lon="-6.4952570">
        <ele>980.9</ele>
        <time>2019-08-16T09:58:09Z</time>
      </trkpt>
      <trkpt lat="42.0524970" lon="-6.4953130">
        <ele>981.0</ele>
        <time>2019-08-16T09:58:10Z</time>
      </trkpt>
      <trkpt lat="42.0525100" lon="-6.4953700">
        <ele>981.2</ele>
        <time>2019-08-16T09:58:11Z</time>
      </trkpt>
      <trkpt lat="42.0525210" lon="-6.4954260">
        <ele>981.4</ele>
        <time>2019-08-16T09:58:12Z</time>
      </trkpt>
      <trkpt lat="42.0525330" lon="-6.4954810">
        <ele>981.5</ele>
        <time>2019-08-16T09:58:13Z</time>
      </trkpt>
      <trkpt lat="42.0525440" lon="-6.4955370">
        <ele>981.7</ele>
        <time>2019-08-16T09:58:14Z</time>
      </trkpt>
      <trkpt lat="42.0525570" lon="-6.4955920">
        <ele>981.8</ele>
        <time>2019-08-16T09:58:15Z</time>
      </trkpt>
      <trkpt lat="42.0525690" lon="-6.4956480">
        <ele>981.9</ele>
        <time>2019-08-16T09:58:16Z</time>
      </trkpt>
      <trkpt lat="42.0525820" lon="-6.4957020">
        <ele>982.4</ele>
        <time>2019-08-16T09:58:17Z</time>
      </trkpt>
      <trkpt lat="42.0525960" lon="-6.4957540">
        <ele>982.7</ele>
        <time>2019-08-16T09:58:18Z</time>
      </trkpt>
      <trkpt lat="42.0526090" lon="-6.4958040">
        <ele>982.9</ele>
        <time>2019-08-16T09:58:19Z</time>
      </trkpt>
      <trkpt lat="42.0526220" lon="-6.4958550">
        <ele>983.1</ele>
        <time>2019-08-16T09:58:20Z</time>
      </trkpt>
      <trkpt lat="42.0526350" lon="-6.4959060">
        <ele>983.2</ele>
        <time>2019-08-16T09:58:21Z</time>
      </trkpt>
      <trkpt lat="42.0526490" lon="-6.4959580">
        <ele>983.4</ele>
        <time>2019-08-16T09:58:22Z</time>
      </trkpt>
      <trkpt lat="42.0526630" lon="-6.4960100">
        <ele>983.5</ele>
        <time>2019-08-16T09:58:23Z</time>
      </trkpt>
      <trkpt lat="42.0526780" lon="-6.4960630">
        <ele>983.6</ele>
        <time>2019-08-16T09:58:24Z</time>
      </trkpt>
      <trkpt lat="42.0526950" lon="-6.4961170">
        <ele>983.7</ele>
        <time>2019-08-16T09:58:25Z</time>
      </trkpt>
      <trkpt lat="42.0527130" lon="-6.4961700">
        <ele>983.8</ele>
        <time>2019-08-16T09:58:26Z</time>
      </trkpt>
      <trkpt lat="42.0527320" lon="-6.4962250">
        <ele>983.9</ele>
        <time>2019-08-16T09:58:27Z</time>
      </trkpt>
      <trkpt lat="42.0527530" lon="-6.4962790">
        <ele>984.1</ele>
        <time>2019-08-16T09:58:28Z</time>
      </trkpt>
      <trkpt lat="42.0527770" lon="-6.4963310">
        <ele>984.2</ele>
        <time>2019-08-16T09:58:29Z</time>
      </trkpt>
      <trkpt lat="42.0528030" lon="-6.4963820">
        <ele>984.3</ele>
        <time>2019-08-16T09:58:30Z</time>
      </trkpt>
      <trkpt lat="42.0528290" lon="-6.4964320">
        <ele>984.4</ele>
        <time>2019-08-16T09:58:31Z</time>
      </trkpt>
      <trkpt lat="42.0528560" lon="-6.4964800">
        <ele>984.5</ele>
        <time>2019-08-16T09:58:32Z</time>
      </trkpt>
      <trkpt lat="42.0528830" lon="-6.4965290">
        <ele>984.6</ele>
        <time>2019-08-16T09:58:33Z</time>
      </trkpt>
      <trkpt lat="42.0529110" lon="-6.4965780">
        <ele>984.7</ele>
        <time>2019-08-16T09:58:34Z</time>
      </trkpt>
      <trkpt lat="42.0529390" lon="-6.4966250">
        <ele>984.8</ele>
        <time>2019-08-16T09:58:35Z</time>
      </trkpt>
      <trkpt lat="42.0529660" lon="-6.4966710">
        <ele>984.9</ele>
        <time>2019-08-16T09:58:36Z</time>
      </trkpt>
      <trkpt lat="42.0529930" lon="-6.4967170">
        <ele>985.1</ele>
        <time>2019-08-16T09:58:37Z</time>
      </trkpt>
      <trkpt lat="42.0530220" lon="-6.4967630">
        <ele>985.0</ele>
        <time>2019-08-16T09:58:38Z</time>
      </trkpt>
      <trkpt lat="42.0530510" lon="-6.4968090">
        <ele>984.9</ele>
        <time>2019-08-16T09:58:39Z</time>
      </trkpt>
      <trkpt lat="42.0530790" lon="-6.4968550">
        <ele>984.9</ele>
        <time>2019-08-16T09:58:40Z</time>
      </trkpt>
      <trkpt lat="42.0531060" lon="-6.4969010">
        <ele>984.8</ele>
        <time>2019-08-16T09:58:41Z</time>
      </trkpt>
      <trkpt lat="42.0531340" lon="-6.4969470">
        <ele>984.7</ele>
        <time>2019-08-16T09:58:42Z</time>
      </trkpt>
      <trkpt lat="42.0531620" lon="-6.4969920">
        <ele>984.6</ele>
        <time>2019-08-16T09:58:43Z</time>
      </trkpt>
      <trkpt lat="42.0531910" lon="-6.4970360">
        <ele>984.5</ele>
        <time>2019-08-16T09:58:44Z</time>
      </trkpt>
      <trkpt lat="42.0532200" lon="-6.4970800">
        <ele>984.4</ele>
        <time>2019-08-16T09:58:45Z</time>
      </trkpt>
      <trkpt lat="42.0532500" lon="-6.4971240">
        <ele>984.3</ele>
        <time>2019-08-16T09:58:46Z</time>
      </trkpt>
      <trkpt lat="42.0532780" lon="-6.4971680">
        <ele>984.2</ele>
        <time>2019-08-16T09:58:47Z</time>
      </trkpt>
      <trkpt lat="42.0533070" lon="-6.4972100">
        <ele>984.2</ele>
        <time>2019-08-16T09:58:48Z</time>
      </trkpt>
      <trkpt lat="42.0533350" lon="-6.4972530">
        <ele>984.1</ele>
        <time>2019-08-16T09:58:49Z</time>
      </trkpt>
      <trkpt lat="42.0533630" lon="-6.4972960">
        <ele>984.0</ele>
        <time>2019-08-16T09:58:50Z</time>
      </trkpt>
      <trkpt lat="42.0533910" lon="-6.4973390">
        <ele>983.9</ele>
        <time>2019-08-16T09:58:51Z</time>
      </trkpt>
      <trkpt lat="42.0534180" lon="-6.4973810">
        <ele>983.8</ele>
        <time>2019-08-16T09:58:52Z</time>
      </trkpt>
      <trkpt lat="42.0534450" lon="-6.4974230">
        <ele>983.8</ele>
        <time>2019-08-16T09:58:53Z</time>
      </trkpt>
      <trkpt lat="42.0534720" lon="-6.4974650">
        <ele>983.7</ele>
        <time>2019-08-16T09:58:54Z</time>
      </trkpt>
      <trkpt lat="42.0535000" lon="-6.4975080">
        <ele>983.6</ele>
        <time>2019-08-16T09:58:55Z</time>
      </trkpt>
      <trkpt lat="42.0535270" lon="-6.4975500">
        <ele>983.6</ele>
        <time>2019-08-16T09:58:56Z</time>
      </trkpt>
      <trkpt lat="42.0535540" lon="-6.4975930">
        <ele>983.6</ele>
        <time>2019-08-16T09:58:57Z</time>
      </trkpt>
      <trkpt lat="42.0535830" lon="-6.4976360">
        <ele>983.5</ele>
        <time>2019-08-16T09:58:58Z</time>
      </trkpt>
      <trkpt lat="42.0536110" lon="-6.4976780">
        <ele>983.5</ele>
        <time>2019-08-16T09:58:59Z</time>
      </trkpt>
      <trkpt lat="42.0536390" lon="-6.4977210">
        <ele>983.4</ele>
        <time>2019-08-16T09:59:00Z</time>
      </trkpt>
      <trkpt lat="42.0536670" lon="-6.4977640">
        <ele>983.4</ele>
        <time>2019-08-16T09:59:01Z</time>
      </trkpt>
      <trkpt lat="42.0536950" lon="-6.4978060">
        <ele>983.4</ele>
        <time>2019-08-16T09:59:02Z</time>
      </trkpt>
      <trkpt lat="42.0537230" lon="-6.4978480">
        <ele>983.3</ele>
        <time>2019-08-16T09:59:03Z</time>
      </trkpt>
      <trkpt lat="42.0537520" lon="-6.4978900">
        <ele>983.3</ele>
        <time>2019-08-16T09:59:04Z</time>
      </trkpt>
      <trkpt lat="42.0537820" lon="-6.4979320">
        <ele>983.2</ele>
        <time>2019-08-16T09:59:05Z</time>
      </trkpt>
      <trkpt lat="42.0538110" lon="-6.4979740">
        <ele>983.2</ele>
        <time>2019-08-16T09:59:06Z</time>
      </trkpt>
      <trkpt lat="42.0538410" lon="-6.4980170">
        <ele>983.1</ele>
        <time>2019-08-16T09:59:07Z</time>
      </trkpt>
      <trkpt lat="42.0538720" lon="-6.4980590">
        <ele>983.0</ele>
        <time>2019-08-16T09:59:08Z</time>
      </trkpt>
      <trkpt lat="42.0539040" lon="-6.4981020">
        <ele>982.9</ele>
        <time>2019-08-16T09:59:09Z</time>
      </trkpt>
      <trkpt lat="42.0539360" lon="-6.4981430">
        <ele>982.8</ele>
        <time>2019-08-16T09:59:10Z</time>
      </trkpt>
      <trkpt lat="42.0539680" lon="-6.4981830">
        <ele>982.7</ele>
        <time>2019-08-16T09:59:11Z</time>
      </trkpt>
      <trkpt lat="42.0540010" lon="-6.4982220">
        <ele>982.7</ele>
        <time>2019-08-16T09:59:12Z</time>
      </trkpt>
      <trkpt lat="42.0540360" lon="-6.4982600">
        <ele>982.6</ele>
        <time>2019-08-16T09:59:13Z</time>
      </trkpt>
      <trkpt lat="42.0540720" lon="-6.4982970">
        <ele>982.4</ele>
        <time>2019-08-16T09:59:14Z</time>
      </trkpt>
      <trkpt lat="42.0541060" lon="-6.4983320">
        <ele>982.3</ele>
        <time>2019-08-16T09:59:15Z</time>
      </trkpt>
      <trkpt lat="42.0541390" lon="-6.4983650">
        <ele>982.2</ele>
        <time>2019-08-16T09:59:16Z</time>
      </trkpt>
      <trkpt lat="42.0541730" lon="-6.4983970">
        <ele>982.1</ele>
        <time>2019-08-16T09:59:17Z</time>
      </trkpt>
      <trkpt lat="42.0542100" lon="-6.4984290">
        <ele>982.0</ele>
        <time>2019-08-16T09:59:18Z</time>
      </trkpt>
      <trkpt lat="42.0542480" lon="-6.4984600">
        <ele>981.9</ele>
        <time>2019-08-16T09:59:19Z</time>
      </trkpt>
      <trkpt lat="42.0542860" lon="-6.4984910">
        <ele>981.7</ele>
        <time>2019-08-16T09:59:20Z</time>
      </trkpt>
      <trkpt lat="42.0543270" lon="-6.4985220">
        <ele>981.6</ele>
        <time>2019-08-16T09:59:21Z</time>
      </trkpt>
      <trkpt lat="42.0543660" lon="-6.4985530">
        <ele>981.5</ele>
        <time>2019-08-16T09:59:22Z</time>
      </trkpt>
      <trkpt lat="42.0544060" lon="-6.4985820">
        <ele>981.4</ele>
        <time>2019-08-16T09:59:23Z</time>
      </trkpt>
      <trkpt lat="42.0544470" lon="-6.4986100">
        <ele>981.5</ele>
        <time>2019-08-16T09:59:24Z</time>
      </trkpt>
      <trkpt lat="42.0544880" lon="-6.4986360">
        <ele>981.7</ele>
        <time>2019-08-16T09:59:25Z</time>
      </trkpt>
      <trkpt lat="42.0545230" lon="-6.4986610">
        <ele>981.8</ele>
        <time>2019-08-16T09:59:26Z</time>
      </trkpt>
      <trkpt lat="42.0545500" lon="-6.4986900">
        <ele>981.8</ele>
        <time>2019-08-16T09:59:27Z</time>
      </trkpt>
      <trkpt lat="42.0545660" lon="-6.4987260">
        <ele>981.9</ele>
        <time>2019-08-16T09:59:28Z</time>
      </trkpt>
      <trkpt lat="42.0545710" lon="-6.4987630">
        <ele>981.9</ele>
        <time>2019-08-16T09:59:29Z</time>
      </trkpt>
      <trkpt lat="42.0545730" lon="-6.4988040">
        <ele>981.9</ele>
        <time>2019-08-16T09:59:30Z</time>
      </trkpt>
      <trkpt lat="42.0545830" lon="-6.4988480">
        <ele>982.0</ele>
        <time>2019-08-16T09:59:31Z</time>
      </trkpt>
      <trkpt lat="42.0546030" lon="-6.4988910">
        <ele>982.0</ele>
        <time>2019-08-16T09:59:32Z</time>
      </trkpt>
      <trkpt lat="42.0546310" lon="-6.4989350">
        <ele>982.0</ele>
        <time>2019-08-16T09:59:33Z</time>
      </trkpt>
      <trkpt lat="42.0546620" lon="-6.4989800">
        <ele>982.0</ele>
        <time>2019-08-16T09:59:34Z</time>
      </trkpt>
      <trkpt lat="42.0546940" lon="-6.4990250">
        <ele>982.0</ele>
        <time>2019-08-16T09:59:35Z</time>
      </trkpt>
      <trkpt lat="42.0547270" lon="-6.4990690">
        <ele>982.0</ele>
        <time>2019-08-16T09:59:36Z</time>
      </trkpt>
      <trkpt lat="42.0547610" lon="-6.4991140">
        <ele>982.0</ele>
        <time>2019-08-16T09:59:37Z</time>
      </trkpt>
      <trkpt lat="42.0547940" lon="-6.4991610">
        <ele>981.9</ele>
        <time>2019-08-16T09:59:38Z</time>
      </trkpt>
      <trkpt lat="42.0548290" lon="-6.4992090">
        <ele>981.9</ele>
        <time>2019-08-16T09:59:39Z</time>
      </trkpt>
      <trkpt lat="42.0548640" lon="-6.4992580">
        <ele>981.8</ele>
        <time>2019-08-16T09:59:40Z</time>
      </trkpt>
      <trkpt lat="42.0549010" lon="-6.4993100">
        <ele>981.7</ele>
        <time>2019-08-16T09:59:41Z</time>
      </trkpt>
      <trkpt lat="42.0549410" lon="-6.4993640">
        <ele>981.6</ele>
        <time>2019-08-16T09:59:42Z</time>
      </trkpt>
      <trkpt lat="42.0549820" lon="-6.4994200">
        <ele>981.5</ele>
        <time>2019-08-16T09:59:43Z</time>
      </trkpt>
      <trkpt lat="42.0550240" lon="-6.4994770">
        <ele>981.3</ele>
        <time>2019-08-16T09:59:44Z</time>
      </trkpt>
      <trkpt lat="42.0550690" lon="-6.4995370">
        <ele>981.1</ele>
        <time>2019-08-16T09:59:45Z</time>
      </trkpt>
      <trkpt lat="42.0551140" lon="-6.4995990">
        <ele>980.9</ele>
        <time>2019-08-16T09:59:46Z</time>
      </trkpt>
      <trkpt lat="42.0551570" lon="-6.4996600">
        <ele>980.6</ele>
        <time>2019-08-16T09:59:47Z</time>
      </trkpt>
      <trkpt lat="42.0552020" lon="-6.4997190">
        <ele>980.2</ele>
        <time>2019-08-16T09:59:48Z</time>
      </trkpt>
      <trkpt lat="42.0552470" lon="-6.4997730">
        <ele>979.9</ele>
        <time>2019-08-16T09:59:49Z</time>
      </trkpt>
      <trkpt lat="42.0552940" lon="-6.4998260">
        <ele>979.5</ele>
        <time>2019-08-16T09:59:50Z</time>
      </trkpt>
      <trkpt lat="42.0553440" lon="-6.4998770">
        <ele>979.2</ele>
        <time>2019-08-16T09:59:51Z</time>
      </trkpt>
      <trkpt lat="42.0553930" lon="-6.4999300">
        <ele>978.8</ele>
        <time>2019-08-16T09:59:52Z</time>
      </trkpt>
      <trkpt lat="42.0554390" lon="-6.4999870">
        <ele>978.5</ele>
        <time>2019-08-16T09:59:53Z</time>
      </trkpt>
      <trkpt lat="42.0554820" lon="-6.5000480">
        <ele>978.2</ele>
        <time>2019-08-16T09:59:54Z</time>
      </trkpt>
      <trkpt lat="42.0555240" lon="-6.5001090">
        <ele>977.9</ele>
        <time>2019-08-16T09:59:55Z</time>
      </trkpt>
      <trkpt lat="42.0555670" lon="-6.5001690">
        <ele>977.6</ele>
        <time>2019-08-16T09:59:56Z</time>
      </trkpt>
      <trkpt lat="42.0556090" lon="-6.5002270">
        <ele>977.4</ele>
        <time>2019-08-16T09:59:57Z</time>
      </trkpt>
      <trkpt lat="42.0556550" lon="-6.5002870">
        <ele>977.2</ele>
        <time>2019-08-16T09:59:58Z</time>
      </trkpt>
      <trkpt lat="42.0557020" lon="-6.5003490">
        <ele>976.9</ele>
        <time>2019-08-16T09:59:59Z</time>
      </trkpt>
      <trkpt lat="42.0557480" lon="-6.5004140">
        <ele>976.7</ele>
        <time>2019-08-16T10:00:00Z</time>
      </trkpt>
      <trkpt lat="42.0557940" lon="-6.5004780">
        <ele>976.6</ele>
        <time>2019-08-16T10:00:01Z</time>
      </trkpt>
      <trkpt lat="42.0558410" lon="-6.5005420">
        <ele>976.4</ele>
        <time>2019-08-16T10:00:02Z</time>
      </trkpt>
      <trkpt lat="42.0558880" lon="-6.5006050">
        <ele>976.2</ele>
        <time>2019-08-16T10:00:03Z</time>
      </trkpt>
      <trkpt lat="42.0559360" lon="-6.5006670">
        <ele>976.1</ele>
        <time>2019-08-16T10:00:04Z</time>
      </trkpt>
      <trkpt lat="42.0559820" lon="-6.5007300">
        <ele>975.9</ele>
        <time>2019-08-16T10:00:05Z</time>
      </trkpt>
      <trkpt lat="42.0560280" lon="-6.5007920">
        <ele>975.7</ele>
        <time>2019-08-16T10:00:06Z</time>
      </trkpt>
      <trkpt lat="42.0560770" lon="-6.5008540">
        <ele>975.5</ele>
        <time>2019-08-16T10:00:07Z</time>
      </trkpt>
      <trkpt lat="42.0561280" lon="-6.5009150">
        <ele>975.3</ele>
        <time>2019-08-16T10:00:08Z</time>
      </trkpt>
      <trkpt lat="42.0561790" lon="-6.5009770">
        <ele>975.1</ele>
        <time>2019-08-16T10:00:09Z</time>
      </trkpt>
      <trkpt lat="42.0562280" lon="-6.5010430">
        <ele>974.7</ele>
        <time>2019-08-16T10:00:10Z</time>
      </trkpt>
      <trkpt lat="42.0562750" lon="-6.5011110">
        <ele>974.5</ele>
        <time>2019-08-16T10:00:11Z</time>
      </trkpt>
      <trkpt lat="42.0563120" lon="-6.5011840">
        <ele>974.3</ele>
        <time>2019-08-16T10:00:12Z</time>
      </trkpt>
      <trkpt lat="42.0563390" lon="-6.5012630">
        <ele>974.0</ele>
        <time>2019-08-16T10:00:13Z</time>
      </trkpt>
      <trkpt lat="42.0563610" lon="-6.5013420">
        <ele>973.7</ele>
        <time>2019-08-16T10:00:14Z</time>
      </trkpt>
      <trkpt lat="42.0563860" lon="-6.5014090">
        <ele>973.4</ele>
        <time>2019-08-16T10:00:15Z</time>
      </trkpt>
      <trkpt lat="42.0564150" lon="-6.5014600">
        <ele>973.2</ele>
        <time>2019-08-16T10:00:16Z</time>
      </trkpt>
      <trkpt lat="42.0564520" lon="-6.5014920">
        <ele>972.9</ele>
        <time>2019-08-16T10:00:17Z</time>
      </trkpt>
      <trkpt lat="42.0564930" lon="-6.5015040">
        <ele>972.7</ele>
        <time>2019-08-16T10:00:18Z</time>
      </trkpt>
      <trkpt lat="42.0565380" lon="-6.5015110">
        <ele>972.5</ele>
        <time>2019-08-16T10:00:19Z</time>
      </trkpt>
      <trkpt lat="42.0565830" lon="-6.5015310">
        <ele>972.2</ele>
        <time>2019-08-16T10:00:20Z</time>
      </trkpt>
      <trkpt lat="42.0566220" lon="-6.5015730">
        <ele>971.9</ele>
        <time>2019-08-16T10:00:21Z</time>
      </trkpt>
      <trkpt lat="42.0566540" lon="-6.5016310">
        <ele>971.5</ele>
        <time>2019-08-16T10:00:22Z</time>
      </trkpt>
      <trkpt lat="42.0566810" lon="-6.5016960">
        <ele>971.2</ele>
        <time>2019-08-16T10:00:23Z</time>
      </trkpt>
      <trkpt lat="42.0567090" lon="-6.5017680">
        <ele>970.9</ele>
        <time>2019-08-16T10:00:24Z</time>
      </trkpt>
      <trkpt lat="42.0567370" lon="-6.5018450">
        <ele>970.6</ele>
        <time>2019-08-16T10:00:25Z</time>
      </trkpt>
      <trkpt lat="42.0567690" lon="-6.5019240">
        <ele>970.2</ele>
        <time>2019-08-16T10:00:26Z</time>
      </trkpt>
      <trkpt lat="42.0568030" lon="-6.5019990">
        <ele>969.8</ele>
        <time>2019-08-16T10:00:27Z</time>
      </trkpt>
      <trkpt lat="42.0568420" lon="-6.5020680">
        <ele>969.5</ele>
        <time>2019-08-16T10:00:28Z</time>
      </trkpt>
      <trkpt lat="42.0568860" lon="-6.5021290">
        <ele>969.1</ele>
        <time>2019-08-16T10:00:29Z</time>
      </trkpt>
      <trkpt lat="42.0569370" lon="-6.5021790">
        <ele>968.7</ele>
        <time>2019-08-16T10:00:30Z</time>
      </trkpt>
      <trkpt lat="42.0569870" lon="-6.5022280">
        <ele>968.4</ele>
        <time>2019-08-16T10:00:31Z</time>
      </trkpt>
      <trkpt lat="42.0570340" lon="-6.5022810">
        <ele>968.1</ele>
        <time>2019-08-16T10:00:32Z</time>
      </trkpt>
      <trkpt lat="42.0570780" lon="-6.5023340">
        <ele>968.0</ele>
        <time>2019-08-16T10:00:33Z</time>
      </trkpt>
      <trkpt lat="42.0571180" lon="-6.5023830">
        <ele>967.8</ele>
        <time>2019-08-16T10:00:34Z</time>
      </trkpt>
      <trkpt lat="42.0571520" lon="-6.5024330">
        <ele>967.7</ele>
        <time>2019-08-16T10:00:35Z</time>
      </trkpt>
      <trkpt lat="42.0571810" lon="-6.5024850">
        <ele>967.6</ele>
        <time>2019-08-16T10:00:36Z</time>
      </trkpt>
      <trkpt lat="42.0572100" lon="-6.5025360">
        <ele>967.4</ele>
        <time>2019-08-16T10:00:37Z</time>
      </trkpt>
      <trkpt lat="42.0572350" lon="-6.5025870">
        <ele>967.2</ele>
        <time>2019-08-16T10:00:38Z</time>
      </trkpt>
      <trkpt lat="42.0572540" lon="-6.5026440">
        <ele>967.0</ele>
        <time>2019-08-16T10:00:39Z</time>
      </trkpt>
      <trkpt lat="42.0572690" lon="-6.5027030">
        <ele>966.7</ele>
        <time>2019-08-16T10:00:40Z</time>
      </trkpt>
      <trkpt lat="42.0572840" lon="-6.5027590">
        <ele>966.4</ele>
        <time>2019-08-16T10:00:41Z</time>
      </trkpt>
      <trkpt lat="42.0573020" lon="-6.5028080">
        <ele>966.2</ele>
        <time>2019-08-16T10:00:42Z</time>
      </trkpt>
      <trkpt lat="42.0573220" lon="-6.5028530">
        <ele>966.0</ele>
        <time>2019-08-16T10:00:43Z</time>
      </trkpt>
      <trkpt lat="42.0573440" lon="-6.5028950">
        <ele>965.9</ele>
        <time>2019-08-16T10:00:44Z</time>
      </trkpt>
      <trkpt lat="42.0573710" lon="-6.5029400">
        <ele>965.7</ele>
        <time>2019-08-16T10:00:45Z</time>
      </trkpt>
      <trkpt lat="42.0573960" lon="-6.5029880">
        <ele>965.5</ele>
        <time>2019-08-16T10:00:46Z</time>
      </trkpt>
      <trkpt lat="42.0574200" lon="-6.5030370">
        <ele>965.4</ele>
        <time>2019-08-16T10:00:47Z</time>
      </trkpt>
      <trkpt lat="42.0574410" lon="-6.5030880">
        <ele>965.2</ele>
        <time>2019-08-16T10:00:48Z</time>
      </trkpt>
      <trkpt lat="42.0574600" lon="-6.5031370">
        <ele>964.9</ele>
        <time>2019-08-16T10:00:49Z</time>
      </trkpt>
      <trkpt lat="42.0574810" lon="-6.5031870">
        <ele>964.7</ele>
        <time>2019-08-16T10:00:50Z</time>
      </trkpt>
      <trkpt lat="42.0575020" lon="-6.5032370">
        <ele>964.5</ele>
        <time>2019-08-16T10:00:51Z</time>
      </trkpt>
      <trkpt lat="42.0575230" lon="-6.5032890">
        <ele>964.1</ele>
        <time>2019-08-16T10:00:52Z</time>
      </trkpt>
      <trkpt lat="42.0575390" lon="-6.5033410">
        <ele>963.8</ele>
        <time>2019-08-16T10:00:53Z</time>
      </trkpt>
      <trkpt lat="42.0575570" lon="-6.5033940">
        <ele>963.5</ele>
        <time>2019-08-16T10:00:54Z</time>
      </trkpt>
      <trkpt lat="42.0575720" lon="-6.5034410">
        <ele>963.2</ele>
        <time>2019-08-16T10:00:55Z</time>
      </trkpt>
      <trkpt lat="42.0575840" lon="-6.5034840">
        <ele>962.8</ele>
        <time>2019-08-16T10:00:56Z</time>
      </trkpt>
      <trkpt lat="42.0575960" lon="-6.5035280">
        <ele>962.5</ele>
        <time>2019-08-16T10:00:58Z</time>
      </trkpt>
      <trkpt lat="42.0576010" lon="-6.5035440">
        <ele>962.3</ele>
        <time>2019-08-16T10:01:08Z</time>
      </trkpt>
      <trkpt lat="42.0576120" lon="-6.5035690">
        <ele>962.0</ele>
        <time>2019-08-16T10:01:14Z</time>
      </trkpt>
      <trkpt lat="42.0576290" lon="-6.5036060">
        <ele>961.6</ele>
        <time>2019-08-16T10:01:18Z</time>
      </trkpt>
      <trkpt lat="42.0576350" lon="-6.5036430">
        <ele>961.2</ele>
        <time>2019-08-16T10:01:21Z</time>
      </trkpt>
      <trkpt lat="42.0576450" lon="-6.5036950">
        <ele>960.7</ele>
        <time>2019-08-16T10:01:24Z</time>
      </trkpt>
      <trkpt lat="42.0576550" lon="-6.5037420">
        <ele>960.2</ele>
        <time>2019-08-16T10:01:27Z</time>
      </trkpt>
      <trkpt lat="42.0576580" lon="-6.5037790">
        <ele>959.9</ele>
        <time>2019-08-16T10:01:30Z</time>
      </trkpt>
      <trkpt lat="42.0576570" lon="-6.5038230">
        <ele>959.6</ele>
        <time>2019-08-16T10:01:33Z</time>
      </trkpt>
      <trkpt lat="42.0576550" lon="-6.5038610">
        <ele>959.3</ele>
        <time>2019-08-16T10:01:36Z</time>
      </trkpt>
      <trkpt lat="42.0576520" lon="-6.5039080">
        <ele>958.9</ele>
        <time>2019-08-16T10:01:40Z</time>
      </trkpt>
      <trkpt lat="42.0576470" lon="-6.5039540">
        <ele>958.6</ele>
        <time>2019-08-16T10:01:43Z</time>
      </trkpt>
      <trkpt lat="42.0576500" lon="-6.5039990">
        <ele>958.4</ele>
        <time>2019-08-16T10:01:46Z</time>
      </trkpt>
      <trkpt lat="42.0576470" lon="-6.5040360">
        <ele>958.2</ele>
        <time>2019-08-16T10:01:49Z</time>
      </trkpt>
      <trkpt lat="42.0576450" lon="-6.5040780">
        <ele>957.9</ele>
        <time>2019-08-16T10:01:52Z</time>
      </trkpt>
      <trkpt lat="42.0576480" lon="-6.5041150">
        <ele>957.7</ele>
        <time>2019-08-16T10:01:54Z</time>
      </trkpt>
      <trkpt lat="42.0576390" lon="-6.5041540">
        <ele>957.5</ele>
        <time>2019-08-16T10:01:57Z</time>
      </trkpt>
      <trkpt lat="42.0576340" lon="-6.5042230">
        <ele>957.2</ele>
        <time>2019-08-16T10:03:19Z</time>
      </trkpt>
      <trkpt lat="42.0576380" lon="-6.5042640">
        <ele>957.1</ele>
        <time>2019-08-16T10:03:21Z</time>
      </trkpt>
      <trkpt lat="42.0576440" lon="-6.5043280">
        <ele>956.9</ele>
        <time>2019-08-16T10:03:23Z</time>
      </trkpt>
      <trkpt lat="42.0576480" lon="-6.5043740">
        <ele>956.8</ele>
        <time>2019-08-16T10:03:24Z</time>
      </trkpt>
      <trkpt lat="42.0576510" lon="-6.5044240">
        <ele>956.7</ele>
        <time>2019-08-16T10:03:25Z</time>
      </trkpt>
      <trkpt lat="42.0576550" lon="-6.5044810">
        <ele>956.6</ele>
        <time>2019-08-16T10:03:26Z</time>
      </trkpt>
      <trkpt lat="42.0576590" lon="-6.5045390">
        <ele>956.5</ele>
        <time>2019-08-16T10:03:27Z</time>
      </trkpt>
      <trkpt lat="42.0576640" lon="-6.5045940">
        <ele>956.4</ele>
        <time>2019-08-16T10:03:28Z</time>
      </trkpt>
      <trkpt lat="42.0576660" lon="-6.5046500">
        <ele>956.3</ele>
        <time>2019-08-16T10:03:29Z</time>
      </trkpt>
      <trkpt lat="42.0576680" lon="-6.5047040">
        <ele>956.2</ele>
        <time>2019-08-16T10:03:30Z</time>
      </trkpt>
      <trkpt lat="42.0576710" lon="-6.5047550">
        <ele>956.1</ele>
        <time>2019-08-16T10:03:31Z</time>
      </trkpt>
      <trkpt lat="42.0576710" lon="-6.5048100">
        <ele>956.0</ele>
        <time>2019-08-16T10:03:32Z</time>
      </trkpt>
      <trkpt lat="42.0576670" lon="-6.5048660">
        <ele>955.9</ele>
        <time>2019-08-16T10:03:33Z</time>
      </trkpt>
      <trkpt lat="42.0576630" lon="-6.5049220">
        <ele>955.8</ele>
        <time>2019-08-16T10:03:34Z</time>
      </trkpt>
      <trkpt lat="42.0576640" lon="-6.5049780">
        <ele>955.7</ele>
        <time>2019-08-16T10:03:35Z</time>
      </trkpt>
      <trkpt lat="42.0576680" lon="-6.5050350">
        <ele>955.6</ele>
        <time>2019-08-16T10:03:36Z</time>
      </trkpt>
      <trkpt lat="42.0576650" lon="-6.5050890">
        <ele>955.5</ele>
        <time>2019-08-16T10:03:37Z</time>
      </trkpt>
      <trkpt lat="42.0576620" lon="-6.5051410">
        <ele>955.4</ele>
        <time>2019-08-16T10:03:38Z</time>
      </trkpt>
      <trkpt lat="42.0576610" lon="-6.5051950">
        <ele>955.3</ele>
        <time>2019-08-16T10:03:39Z</time>
      </trkpt>
      <trkpt lat="42.0576610" lon="-6.5052490">
        <ele>955.3</ele>
        <time>2019-08-16T10:03:40Z</time>
      </trkpt>
      <trkpt lat="42.0576620" lon="-6.5053040">
        <ele>955.2</ele>
        <time>2019-08-16T10:03:41Z</time>
      </trkpt>
      <trkpt lat="42.0576590" lon="-6.5053550">
        <ele>955.1</ele>
        <time>2019-08-16T10:03:42Z</time>
      </trkpt>
      <trkpt lat="42.0576540" lon="-6.5054050">
        <ele>955.1</ele>
        <time>2019-08-16T10:03:43Z</time>
      </trkpt>
      <trkpt lat="42.0576470" lon="-6.5054520">
        <ele>955.0</ele>
        <time>2019-08-16T10:03:44Z</time>
      </trkpt>
      <trkpt lat="42.0576410" lon="-6.5054970">
        <ele>955.0</ele>
        <time>2019-08-16T10:03:45Z</time>
      </trkpt>
      <trkpt lat="42.0576350" lon="-6.5055400">
        <ele>954.9</ele>
        <time>2019-08-16T10:03:46Z</time>
      </trkpt>
      <trkpt lat="42.0576330" lon="-6.5055780">
        <ele>954.9</ele>
        <time>2019-08-16T10:03:47Z</time>
      </trkpt>
      <trkpt lat="42.0576480" lon="-6.5056390">
        <ele>954.8</ele>
        <time>2019-08-16T10:03:49Z</time>
      </trkpt>
      <trkpt lat="42.0576640" lon="-6.5056900">
        <ele>954.8</ele>
        <time>2019-08-16T10:03:51Z</time>
      </trkpt>
      <trkpt lat="42.0576830" lon="-6.5057380">
        <ele>954.8</ele>
        <time>2019-08-16T10:03:53Z</time>
      </trkpt>
      <trkpt lat="42.0576840" lon="-6.5057920">
        <ele>954.8</ele>
        <time>2019-08-16T10:03:55Z</time>
      </trkpt>
      <trkpt lat="42.0576720" lon="-6.5058440">
        <ele>954.8</ele>
        <time>2019-08-16T10:03:57Z</time>
      </trkpt>
      <trkpt lat="42.0576460" lon="-6.5058990">
        <ele>954.9</ele>
        <time>2019-08-16T10:03:59Z</time>
      </trkpt>
      <trkpt lat="42.0576130" lon="-6.5059490">
        <ele>954.9</ele>
        <time>2019-08-16T10:04:01Z</time>
      </trkpt>
      <trkpt lat="42.0575950" lon="-6.5059790">
        <ele>955.0</ele>
        <time>2019-08-16T10:04:02Z</time>
      </trkpt>
      <trkpt lat="42.0575770" lon="-6.5060120">
        <ele>955.0</ele>
        <time>2019-08-16T10:04:03Z</time>
      </trkpt>
      <trkpt lat="42.0575570" lon="-6.5060490">
        <ele>955.0</ele>
        <time>2019-08-16T10:04:04Z</time>
      </trkpt>
      <trkpt lat="42.0575330" lon="-6.5060820">
        <ele>955.1</ele>
        <time>2019-08-16T10:04:05Z</time>
      </trkpt>
      <trkpt lat="42.0575040" lon="-6.5061090">
        <ele>955.1</ele>
        <time>2019-08-16T10:04:06Z</time>
      </trkpt>
      <trkpt lat="42.0574690" lon="-6.5061390">
        <ele>955.1</ele>
        <time>2019-08-16T10:04:07Z</time>
      </trkpt>
      <trkpt lat="42.0574350" lon="-6.5061720">
        <ele>955.1</ele>
        <time>2019-08-16T10:04:08Z</time>
      </trkpt>
      <trkpt lat="42.0574070" lon="-6.5062110">
        <ele>955.0</ele>
        <time>2019-08-16T10:04:09Z</time>
      </trkpt>
      <trkpt lat="42.0573870" lon="-6.5062560">
        <ele>955.0</ele>
        <time>2019-08-16T10:04:10Z</time>
      </trkpt>
      <trkpt lat="42.0573730" lon="-6.5062960">
        <ele>954.9</ele>
        <time>2019-08-16T10:04:11Z</time>
      </trkpt>
      <trkpt lat="42.0573600" lon="-6.5063600">
        <ele>954.8</ele>
        <time>2019-08-16T10:04:13Z</time>
      </trkpt>
      <trkpt lat="42.0573530" lon="-6.5064270">
        <ele>954.8</ele>
        <time>2019-08-16T10:04:15Z</time>
      </trkpt>
      <trkpt lat="42.0573530" lon="-6.5064660">
        <ele>954.8</ele>
        <time>2019-08-16T10:04:16Z</time>
      </trkpt>
      <trkpt lat="42.0573520" lon="-6.5065040">
        <ele>954.7</ele>
        <time>2019-08-16T10:04:17Z</time>
      </trkpt>
      <trkpt lat="42.0573550" lon="-6.5065590">
        <ele>954.8</ele>
        <time>2019-08-16T10:04:19Z</time>
      </trkpt>
      <trkpt lat="42.0573640" lon="-6.5066070">
        <ele>954.8</ele>
        <time>2019-08-16T10:04:21Z</time>
      </trkpt>
      <trkpt lat="42.0573850" lon="-6.5066630">
        <ele>954.9</ele>
        <time>2019-08-16T10:04:23Z</time>
      </trkpt>
      <trkpt lat="42.0574110" lon="-6.5067160">
        <ele>955.1</ele>
        <time>2019-08-16T10:04:25Z</time>
      </trkpt>
      <trkpt lat="42.0574320" lon="-6.5067640">
        <ele>955.2</ele>
        <time>2019-08-16T10:04:27Z</time>
      </trkpt>
      <trkpt lat="42.0574490" lon="-6.5068020">
        <ele>955.4</ele>
        <time>2019-08-16T10:04:29Z</time>
      </trkpt>
      <trkpt lat="42.0574640" lon="-6.5068170">
        <ele>955.5</ele>
        <time>2019-08-16T10:04:39Z</time>
      </trkpt>
      <trkpt lat="42.0574150" lon="-6.5067510">
        <ele>955.8</ele>
        <time>2019-08-16T10:04:47Z</time>
      </trkpt>
      <trkpt lat="42.0573940" lon="-6.5067060">
        <ele>956.1</ele>
        <time>2019-08-16T10:04:48Z</time>
      </trkpt>
      <trkpt lat="42.0573740" lon="-6.5066590">
        <ele>956.4</ele>
        <time>2019-08-16T10:04:49Z</time>
      </trkpt>
      <trkpt lat="42.0573550" lon="-6.5066190">
        <ele>956.6</ele>
        <time>2019-08-16T10:04:50Z</time>
      </trkpt>
      <trkpt lat="42.0573410" lon="-6.5065990">
        <ele>956.8</ele>
        <time>2019-08-16T10:04:55Z</time>
      </trkpt>
      <trkpt lat="42.0573420" lon="-6.5066190">
        <ele>956.9</ele>
        <time>2019-08-16T10:05:05Z</time>
      </trkpt>
      <trkpt lat="42.0573670" lon="-6.5066430">
        <ele>957.2</ele>
        <time>2019-08-16T10:05:08Z</time>
      </trkpt>
      <trkpt lat="42.0573850" lon="-6.5066820">
        <ele>957.6</ele>
        <time>2019-08-16T10:05:10Z</time>
      </trkpt>
      <trkpt lat="42.0574020" lon="-6.5067200">
        <ele>958.0</ele>
        <time>2019-08-16T10:05:12Z</time>
      </trkpt>
      <trkpt lat="42.0574210" lon="-6.5067620">
        <ele>958.4</ele>
        <time>2019-08-16T10:05:14Z</time>
      </trkpt>
      <trkpt lat="42.0574420" lon="-6.5068040">
        <ele>958.7</ele>
        <time>2019-08-16T10:05:16Z</time>
      </trkpt>
      <trkpt lat="42.0574620" lon="-6.5068460">
        <ele>959.0</ele>
        <time>2019-08-16T10:05:18Z</time>
      </trkpt>
      <trkpt lat="42.0574840" lon="-6.5068850">
        <ele>959.5</ele>
        <time>2019-08-16T10:05:20Z</time>
      </trkpt>
      <trkpt lat="42.0575070" lon="-6.5069210">
        <ele>960.0</ele>
        <time>2019-08-16T10:05:22Z</time>
      </trkpt>
      <trkpt lat="42.0575290" lon="-6.5069560">
        <ele>960.5</ele>
        <time>2019-08-16T10:05:24Z</time>
      </trkpt>
      <trkpt lat="42.0575460" lon="-6.5069950">
        <ele>960.9</ele>
        <time>2019-08-16T10:05:26Z</time>
      </trkpt>
      <trkpt lat="42.0575580" lon="-6.5070350">
        <ele>961.2</ele>
        <time>2019-08-16T10:05:28Z</time>
      </trkpt>
      <trkpt lat="42.0575860" lon="-6.5070600">
        <ele>961.5</ele>
        <time>2019-08-16T10:05:30Z</time>
      </trkpt>
      <trkpt lat="42.0576210" lon="-6.5070590">
        <ele>961.8</ele>
        <time>2019-08-16T10:05:32Z</time>
      </trkpt>
      <trkpt lat="42.0576530" lon="-6.5070360">
        <ele>962.1</ele>
        <time>2019-08-16T10:05:34Z</time>
      </trkpt>
      <trkpt lat="42.0576790" lon="-6.5070040">
        <ele>962.3</ele>
        <time>2019-08-16T10:05:36Z</time>
      </trkpt>
      <trkpt lat="42.0577040" lon="-6.5069610">
        <ele>962.6</ele>
        <time>2019-08-16T10:05:38Z</time>
      </trkpt>
      <trkpt lat="42.0577280" lon="-6.5069190">
        <ele>962.9</ele>
        <time>2019-08-16T10:05:40Z</time>
      </trkpt>
      <trkpt lat="42.0577600" lon="-6.5068910">
        <ele>963.2</ele>
        <time>2019-08-16T10:05:42Z</time>
      </trkpt>
      <trkpt lat="42.0578000" lon="-6.5068830">
        <ele>963.5</ele>
        <time>2019-08-16T10:05:44Z</time>
      </trkpt>
      <trkpt lat="42.0578390" lon="-6.5068750">
        <ele>963.9</ele>
        <time>2019-08-16T10:05:46Z</time>
      </trkpt>
      <trkpt lat="42.0578830" lon="-6.5068590">
        <ele>964.3</ele>
        <time>2019-08-16T10:05:48Z</time>
      </trkpt>
      <trkpt lat="42.0579240" lon="-6.5068360">
        <ele>964.7</ele>
        <time>2019-08-16T10:05:50Z</time>
      </trkpt>
      <trkpt lat="42.0579610" lon="-6.5068230">
        <ele>965.1</ele>
        <time>2019-08-16T10:05:52Z</time>
      </trkpt>
      <trkpt lat="42.0579990" lon="-6.5068290">
        <ele>965.5</ele>
        <time>2019-08-16T10:05:54Z</time>
      </trkpt>
      <trkpt lat="42.0580300" lon="-6.5068300">
        <ele>965.8</ele>
        <time>2019-08-16T10:05:56Z</time>
      </trkpt>
      <trkpt lat="42.0580670" lon="-6.5068250">
        <ele>966.3</ele>
        <time>2019-08-16T10:05:58Z</time>
      </trkpt>
      <trkpt lat="42.0581030" lon="-6.5068180">
        <ele>966.7</ele>
        <time>2019-08-16T10:06:00Z</time>
      </trkpt>
      <trkpt lat="42.0581440" lon="-6.5068080">
        <ele>967.1</ele>
        <time>2019-08-16T10:06:02Z</time>
      </trkpt>
      <trkpt lat="42.0581840" lon="-6.5068060">
        <ele>967.5</ele>
        <time>2019-08-16T10:06:04Z</time>
      </trkpt>
      <trkpt lat="42.0582230" lon="-6.5068080">
        <ele>967.8</ele>
        <time>2019-08-16T10:06:06Z</time>
      </trkpt>
      <trkpt lat="42.0582630" lon="-6.5068210">
        <ele>968.1</ele>
        <time>2019-08-16T10:06:08Z</time>
      </trkpt>
      <trkpt lat="42.0583010" lon="-6.5068320">
        <ele>968.3</ele>
        <time>2019-08-16T10:06:10Z</time>
      </trkpt>
      <trkpt lat="42.0583430" lon="-6.5068380">
        <ele>968.6</ele>
        <time>2019-08-16T10:06:12Z</time>
      </trkpt>
      <trkpt lat="42.0583880" lon="-6.5068590">
        <ele>968.9</ele>
        <time>2019-08-16T10:06:14Z</time>
      </trkpt>
      <trkpt lat="42.0584270" lon="-6.5068950">
        <ele>969.1</ele>
        <time>2019-08-16T10:06:16Z</time>
      </trkpt>
      <trkpt lat="42.0584600" lon="-6.5069370">
        <ele>969.3</ele>
        <time>2019-08-16T10:06:18Z</time>
      </trkpt>
      <trkpt lat="42.0584910" lon="-6.5069800">
        <ele>969.5</ele>
        <time>2019-08-16T10:06:20Z</time>
      </trkpt>
      <trkpt lat="42.0585220" lon="-6.5070290">
        <ele>969.6</ele>
        <time>2019-08-16T10:06:22Z</time>
      </trkpt>
      <trkpt lat="42.0585500" lon="-6.5070890">
        <ele>969.8</ele>
        <time>2019-08-16T10:06:24Z</time>
      </trkpt>
      <trkpt lat="42.0585650" lon="-6.5071230">
        <ele>969.9</ele>
        <time>2019-08-16T10:06:25Z</time>
      </trkpt>
      <trkpt lat="42.0585810" lon="-6.5071530">
        <ele>970.0</ele>
        <time>2019-08-16T10:06:26Z</time>
      </trkpt>
      <trkpt lat="42.0586140" lon="-6.5072050">
        <ele>970.2</ele>
        <time>2019-08-16T10:06:28Z</time>
      </trkpt>
      <trkpt lat="42.0586500" lon="-6.5072590">
        <ele>970.4</ele>
        <time>2019-08-16T10:06:30Z</time>
      </trkpt>
      <trkpt lat="42.0586650" lon="-6.5072940">
        <ele>970.5</ele>
        <time>2019-08-16T10:06:31Z</time>
      </trkpt>
      <trkpt lat="42.0586780" lon="-6.5073310">
        <ele>970.6</ele>
        <time>2019-08-16T10:06:32Z</time>
      </trkpt>
      <trkpt lat="42.0586900" lon="-6.5073660">
        <ele>970.7</ele>
        <time>2019-08-16T10:06:33Z</time>
      </trkpt>
      <trkpt lat="42.0587000" lon="-6.5074010">
        <ele>970.8</ele>
        <time>2019-08-16T10:06:34Z</time>
      </trkpt>
      <trkpt lat="42.0587100" lon="-6.5074370">
        <ele>970.9</ele>
        <time>2019-08-16T10:06:35Z</time>
      </trkpt>
      <trkpt lat="42.0587230" lon="-6.5074700">
        <ele>970.9</ele>
        <time>2019-08-16T10:06:36Z</time>
      </trkpt>
      <trkpt lat="42.0587350" lon="-6.5075030">
        <ele>971.0</ele>
        <time>2019-08-16T10:06:37Z</time>
      </trkpt>
      <trkpt lat="42.0587500" lon="-6.5075370">
        <ele>971.1</ele>
        <time>2019-08-16T10:06:38Z</time>
      </trkpt>
      <trkpt lat="42.0587700" lon="-6.5075670">
        <ele>971.2</ele>
        <time>2019-08-16T10:06:39Z</time>
      </trkpt>
      <trkpt lat="42.0587890" lon="-6.5075980">
        <ele>971.3</ele>
        <time>2019-08-16T10:06:40Z</time>
      </trkpt>
      <trkpt lat="42.0588080" lon="-6.5076260">
        <ele>971.4</ele>
        <time>2019-08-16T10:06:41Z</time>
      </trkpt>
      <trkpt lat="42.0588390" lon="-6.5076870">
        <ele>971.5</ele>
        <time>2019-08-16T10:06:43Z</time>
      </trkpt>
      <trkpt lat="42.0588580" lon="-6.5077160">
        <ele>971.6</ele>
        <time>2019-08-16T10:06:44Z</time>
      </trkpt>
      <trkpt lat="42.0588770" lon="-6.5077430">
        <ele>971.7</ele>
        <time>2019-08-16T10:06:45Z</time>
      </trkpt>
      <trkpt lat="42.0589090" lon="-6.5078030">
        <ele>971.9</ele>
        <time>2019-08-16T10:06:47Z</time>
      </trkpt>
      <trkpt lat="42.0589270" lon="-6.5078320">
        <ele>971.9</ele>
        <time>2019-08-16T10:06:48Z</time>
      </trkpt>
      <trkpt lat="42.0589540" lon="-6.5078960">
        <ele>972.1</ele>
        <time>2019-08-16T10:06:50Z</time>
      </trkpt>
      <trkpt lat="42.0589760" lon="-6.5079580">
        <ele>972.2</ele>
        <time>2019-08-16T10:06:52Z</time>
      </trkpt>
      <trkpt lat="42.0590020" lon="-6.5080190">
        <ele>972.4</ele>
        <time>2019-08-16T10:06:54Z</time>
      </trkpt>
      <trkpt lat="42.0590200" lon="-6.5080490">
        <ele>972.5</ele>
        <time>2019-08-16T10:06:55Z</time>
      </trkpt>
      <trkpt lat="42.0590420" lon="-6.5080800">
        <ele>972.6</ele>
        <time>2019-08-16T10:06:56Z</time>
      </trkpt>
      <trkpt lat="42.0590630" lon="-6.5081140">
        <ele>972.6</ele>
        <time>2019-08-16T10:06:57Z</time>
      </trkpt>
      <trkpt lat="42.0590830" lon="-6.5081510">
        <ele>972.7</ele>
        <time>2019-08-16T10:06:58Z</time>
      </trkpt>
      <trkpt lat="42.0591040" lon="-6.5081870">
        <ele>972.8</ele>
        <time>2019-08-16T10:06:59Z</time>
      </trkpt>
      <trkpt lat="42.0591250" lon="-6.5082220">
        <ele>972.9</ele>
        <time>2019-08-16T10:07:00Z</time>
      </trkpt>
      <trkpt lat="42.0591450" lon="-6.5082580">
        <ele>973.0</ele>
        <time>2019-08-16T10:07:01Z</time>
      </trkpt>
      <trkpt lat="42.0591620" lon="-6.5082960">
        <ele>973.1</ele>
        <time>2019-08-16T10:07:02Z</time>
      </trkpt>
      <trkpt lat="42.0591750" lon="-6.5083330">
        <ele>973.2</ele>
        <time>2019-08-16T10:07:03Z</time>
      </trkpt>
      <trkpt lat="42.0591920" lon="-6.5083670">
        <ele>973.3</ele>
        <time>2019-08-16T10:07:04Z</time>
      </trkpt>
      <trkpt lat="42.0592110" lon="-6.5083930">
        <ele>973.3</ele>
        <time>2019-08-16T10:07:05Z</time>
      </trkpt>
      <trkpt lat="42.0592290" lon="-6.5084230">
        <ele>973.4</ele>
        <time>2019-08-16T10:07:06Z</time>
      </trkpt>
      <trkpt lat="42.0592460" lon="-6.5084560">
        <ele>973.5</ele>
        <time>2019-08-16T10:07:07Z</time>
      </trkpt>
      <trkpt lat="42.0592660" lon="-6.5084900">
        <ele>973.6</ele>
        <time>2019-08-16T10:07:08Z</time>
      </trkpt>
      <trkpt lat="42.0592820" lon="-6.5085280">
        <ele>973.7</ele>
        <time>2019-08-16T10:07:09Z</time>
      </trkpt>
      <trkpt lat="42.0592980" lon="-6.5085640">
        <ele>973.8</ele>
        <time>2019-08-16T10:07:10Z</time>
      </trkpt>
      <trkpt lat="42.0593150" lon="-6.5085960">
        <ele>973.9</ele>
        <time>2019-08-16T10:07:11Z</time>
      </trkpt>
      <trkpt lat="42.0593340" lon="-6.5086240">
        <ele>974.0</ele>
        <time>2019-08-16T10:07:12Z</time>
      </trkpt>
      <trkpt lat="42.0593540" lon="-6.5086490">
        <ele>974.1</ele>
        <time>2019-08-16T10:07:13Z</time>
      </trkpt>
      <trkpt lat="42.0593750" lon="-6.5086730">
        <ele>974.3</ele>
        <time>2019-08-16T10:07:14Z</time>
      </trkpt>
      <trkpt lat="42.0593990" lon="-6.5086960">
        <ele>974.4</ele>
        <time>2019-08-16T10:07:15Z</time>
      </trkpt>
      <trkpt lat="42.0594240" lon="-6.5087200">
        <ele>974.5</ele>
        <time>2019-08-16T10:07:16Z</time>
      </trkpt>
      <trkpt lat="42.0594490" lon="-6.5087470">
        <ele>974.6</ele>
        <time>2019-08-16T10:07:17Z</time>
      </trkpt>
      <trkpt lat="42.0594760" lon="-6.5087770">
        <ele>974.7</ele>
        <time>2019-08-16T10:07:18Z</time>
      </trkpt>
      <trkpt lat="42.0595010" lon="-6.5088100">
        <ele>974.8</ele>
        <time>2019-08-16T10:07:19Z</time>
      </trkpt>
      <trkpt lat="42.0595270" lon="-6.5088460">
        <ele>974.9</ele>
        <time>2019-08-16T10:07:20Z</time>
      </trkpt>
      <trkpt lat="42.0595510" lon="-6.5088830">
        <ele>975.0</ele>
        <time>2019-08-16T10:07:21Z</time>
      </trkpt>
      <trkpt lat="42.0595730" lon="-6.5089230">
        <ele>975.1</ele>
        <time>2019-08-16T10:07:22Z</time>
      </trkpt>
      <trkpt lat="42.0595940" lon="-6.5089670">
        <ele>975.1</ele>
        <time>2019-08-16T10:07:23Z</time>
      </trkpt>
      <trkpt lat="42.0596150" lon="-6.5090110">
        <ele>975.2</ele>
        <time>2019-08-16T10:07:24Z</time>
      </trkpt>
      <trkpt lat="42.0596340" lon="-6.5090570">
        <ele>975.3</ele>
        <time>2019-08-16T10:07:25Z</time>
      </trkpt>
      <trkpt lat="42.0596500" lon="-6.5090970">
        <ele>975.3</ele>
        <time>2019-08-16T10:07:26Z</time>
      </trkpt>
      <trkpt lat="42.0596660" lon="-6.5091330">
        <ele>975.4</ele>
        <time>2019-08-16T10:07:27Z</time>
      </trkpt>
      <trkpt lat="42.0596860" lon="-6.5091700">
        <ele>975.4</ele>
        <time>2019-08-16T10:07:28Z</time>
      </trkpt>
      <trkpt lat="42.0597100" lon="-6.5092060">
        <ele>975.5</ele>
        <time>2019-08-16T10:07:29Z</time>
      </trkpt>
      <trkpt lat="42.0597360" lon="-6.5092420">
        <ele>975.5</ele>
        <time>2019-08-16T10:07:30Z</time>
      </trkpt>
      <trkpt lat="42.0597640" lon="-6.5092820">
        <ele>975.6</ele>
        <time>2019-08-16T10:07:31Z</time>
      </trkpt>
      <trkpt lat="42.0597930" lon="-6.5093230">
        <ele>975.7</ele>
        <time>2019-08-16T10:07:32Z</time>
      </trkpt>
      <trkpt lat="42.0598210" lon="-6.5093690">
        <ele>975.8</ele>
        <time>2019-08-16T10:07:33Z</time>
      </trkpt>
      <trkpt lat="42.0598480" lon="-6.5094170">
        <ele>975.8</ele>
        <time>2019-08-16T10:07:34Z</time>
      </trkpt>
      <trkpt lat="42.0598720" lon="-6.5094670">
        <ele>975.9</ele>
        <time>2019-08-16T10:07:35Z</time>
      </trkpt>
      <trkpt lat="42.0598960" lon="-6.5095160">
        <ele>976.0</ele>
        <time>2019-08-16T10:07:36Z</time>
      </trkpt>
      <trkpt lat="42.0599180" lon="-6.5095670">
        <ele>976.1</ele>
        <time>2019-08-16T10:07:37Z</time>
      </trkpt>
      <trkpt lat="42.0599390" lon="-6.5096190">
        <ele>976.2</ele>
        <time>2019-08-16T10:07:38Z</time>
      </trkpt>
      <trkpt lat="42.0599620" lon="-6.5096700">
        <ele>976.3</ele>
        <time>2019-08-16T10:07:39Z</time>
      </trkpt>
      <trkpt lat="42.0599880" lon="-6.5097170">
        <ele>976.4</ele>
        <time>2019-08-16T10:07:40Z</time>
      </trkpt>
      <trkpt lat="42.0600150" lon="-6.5097650">
        <ele>976.5</ele>
        <time>2019-08-16T10:07:41Z</time>
      </trkpt>
      <trkpt lat="42.0600400" lon="-6.5098140">
        <ele>976.6</ele>
        <time>2019-08-16T10:07:42Z</time>
      </trkpt>
      <trkpt lat="42.0600650" lon="-6.5098610">
        <ele>976.6</ele>
        <time>2019-08-16T10:07:43Z</time>
      </trkpt>
      <trkpt lat="42.0600900" lon="-6.5099090">
        <ele>976.7</ele>
        <time>2019-08-16T10:07:44Z</time>
      </trkpt>
      <trkpt lat="42.0601140" lon="-6.5099570">
        <ele>976.8</ele>
        <time>2019-08-16T10:07:45Z</time>
      </trkpt>
      <trkpt lat="42.0601380" lon="-6.5100040">
        <ele>976.9</ele>
        <time>2019-08-16T10:07:46Z</time>
      </trkpt>
      <trkpt lat="42.0601600" lon="-6.5100530">
        <ele>976.9</ele>
        <time>2019-08-16T10:07:47Z</time>
      </trkpt>
      <trkpt lat="42.0601830" lon="-6.5101020">
        <ele>977.0</ele>
        <time>2019-08-16T10:07:48Z</time>
      </trkpt>
      <trkpt lat="42.0602050" lon="-6.5101510">
        <ele>977.1</ele>
        <time>2019-08-16T10:07:49Z</time>
      </trkpt>
      <trkpt lat="42.0602280" lon="-6.5102000">
        <ele>977.1</ele>
        <time>2019-08-16T10:07:50Z</time>
      </trkpt>
      <trkpt lat="42.0602510" lon="-6.5102500">
        <ele>977.2</ele>
        <time>2019-08-16T10:07:51Z</time>
      </trkpt>
      <trkpt lat="42.0602730" lon="-6.5103000">
        <ele>977.3</ele>
        <time>2019-08-16T10:07:52Z</time>
      </trkpt>
      <trkpt lat="42.0602950" lon="-6.5103510">
        <ele>977.4</ele>
        <time>2019-08-16T10:07:53Z</time>
      </trkpt>
      <trkpt lat="42.0603160" lon="-6.5104030">
        <ele>977.4</ele>
        <time>2019-08-16T10:07:54Z</time>
      </trkpt>
      <trkpt lat="42.0603380" lon="-6.5104560">
        <ele>977.5</ele>
        <time>2019-08-16T10:07:55Z</time>
      </trkpt>
      <trkpt lat="42.0603580" lon="-6.5105090">
        <ele>977.6</ele>
        <time>2019-08-16T10:07:56Z</time>
      </trkpt>
      <trkpt lat="42.0603780" lon="-6.5105620">
        <ele>977.6</ele>
        <time>2019-08-16T10:07:57Z</time>
      </trkpt>
      <trkpt lat="42.0603970" lon="-6.5106140">
        <ele>977.7</ele>
        <time>2019-08-16T10:07:58Z</time>
      </trkpt>
      <trkpt lat="42.0604150" lon="-6.5106670">
        <ele>977.8</ele>
        <time>2019-08-16T10:07:59Z</time>
      </trkpt>
      <trkpt lat="42.0604320" lon="-6.5107220">
        <ele>977.8</ele>
        <time>2019-08-16T10:08:00Z</time>
      </trkpt>
      <trkpt lat="42.0604480" lon="-6.5107750">
        <ele>977.9</ele>
        <time>2019-08-16T10:08:01Z</time>
      </trkpt>
      <trkpt lat="42.0604640" lon="-6.5108310">
        <ele>978.0</ele>
        <time>2019-08-16T10:08:02Z</time>
      </trkpt>
      <trkpt lat="42.0604780" lon="-6.5108870">
        <ele>978.1</ele>
        <time>2019-08-16T10:08:03Z</time>
      </trkpt>
      <trkpt lat="42.0604920" lon="-6.5109380">
        <ele>978.2</ele>
        <time>2019-08-16T10:08:04Z</time>
      </trkpt>
      <trkpt lat="42.0605120" lon="-6.5109810">
        <ele>978.2</ele>
        <time>2019-08-16T10:08:05Z</time>
      </trkpt>
      <trkpt lat="42.0605380" lon="-6.5110220">
        <ele>978.3</ele>
        <time>2019-08-16T10:08:06Z</time>
      </trkpt>
      <trkpt lat="42.0605670" lon="-6.5110670">
        <ele>978.4</ele>
        <time>2019-08-16T10:08:07Z</time>
      </trkpt>
      <trkpt lat="42.0605900" lon="-6.5111130">
        <ele>978.4</ele>
        <time>2019-08-16T10:08:08Z</time>
      </trkpt>
      <trkpt lat="42.0606110" lon="-6.5111640">
        <ele>978.4</ele>
        <time>2019-08-16T10:08:09Z</time>
      </trkpt>
      <trkpt lat="42.0606290" lon="-6.5112230">
        <ele>978.5</ele>
        <time>2019-08-16T10:08:10Z</time>
      </trkpt>
      <trkpt lat="42.0606440" lon="-6.5112850">
        <ele>978.5</ele>
        <time>2019-08-16T10:08:11Z</time>
      </trkpt>
      <trkpt lat="42.0606560" lon="-6.5113470">
        <ele>978.6</ele>
        <time>2019-08-16T10:08:12Z</time>
      </trkpt>
      <trkpt lat="42.0606670" lon="-6.5114100">
        <ele>978.6</ele>
        <time>2019-08-16T10:08:13Z</time>
      </trkpt>
      <trkpt lat="42.0606800" lon="-6.5114770">
        <ele>978.6</ele>
        <time>2019-08-16T10:08:14Z</time>
      </trkpt>
      <trkpt lat="42.0606950" lon="-6.5115480">
        <ele>978.7</ele>
        <time>2019-08-16T10:08:15Z</time>
      </trkpt>
      <trkpt lat="42.0607100" lon="-6.5116210">
        <ele>978.7</ele>
        <time>2019-08-16T10:08:16Z</time>
      </trkpt>
      <trkpt lat="42.0607250" lon="-6.5116940">
        <ele>978.8</ele>
        <time>2019-08-16T10:08:17Z</time>
      </trkpt>
      <trkpt lat="42.0607390" lon="-6.5117690">
        <ele>978.8</ele>
        <time>2019-08-16T10:08:18Z</time>
      </trkpt>
      <trkpt lat="42.0607560" lon="-6.5118420">
        <ele>978.8</ele>
        <time>2019-08-16T10:08:19Z</time>
      </trkpt>
      <trkpt lat="42.0607730" lon="-6.5119130">
        <ele>978.9</ele>
        <time>2019-08-16T10:08:20Z</time>
      </trkpt>
      <trkpt lat="42.0607880" lon="-6.5119840">
        <ele>978.9</ele>
        <time>2019-08-16T10:08:21Z</time>
      </trkpt>
      <trkpt lat="42.0608030" lon="-6.5120550">
        <ele>979.0</ele>
        <time>2019-08-16T10:08:22Z</time>
      </trkpt>
      <trkpt lat="42.0608170" lon="-6.5121250">
        <ele>979.0</ele>
        <time>2019-08-16T10:08:23Z</time>
      </trkpt>
      <trkpt lat="42.0608290" lon="-6.5121950">
        <ele>979.1</ele>
        <time>2019-08-16T10:08:24Z</time>
      </trkpt>
      <trkpt lat="42.0608390" lon="-6.5122610">
        <ele>979.1</ele>
        <time>2019-08-16T10:08:25Z</time>
      </trkpt>
      <trkpt lat="42.0608480" lon="-6.5123240">
        <ele>979.2</ele>
        <time>2019-08-16T10:08:26Z</time>
      </trkpt>
      <trkpt lat="42.0608590" lon="-6.5123910">
        <ele>979.2</ele>
        <time>2019-08-16T10:08:27Z</time>
      </trkpt>
      <trkpt lat="42.0608710" lon="-6.5124550">
        <ele>979.3</ele>
        <time>2019-08-16T10:08:28Z</time>
      </trkpt>
      <trkpt lat="42.0608850" lon="-6.5125180">
        <ele>979.3</ele>
        <time>2019-08-16T10:08:29Z</time>
      </trkpt>
      <trkpt lat="42.0609010" lon="-6.5125790">
        <ele>979.4</ele>
        <time>2019-08-16T10:08:30Z</time>
      </trkpt>
      <trkpt lat="42.0609120" lon="-6.5126380">
        <ele>979.5</ele>
        <time>2019-08-16T10:08:31Z</time>
      </trkpt>
      <trkpt lat="42.0609230" lon="-6.5126980">
        <ele>979.6</ele>
        <time>2019-08-16T10:08:32Z</time>
      </trkpt>
      <trkpt lat="42.0609310" lon="-6.5127570">
        <ele>979.6</ele>
        <time>2019-08-16T10:08:33Z</time>
      </trkpt>
      <trkpt lat="42.0609400" lon="-6.5128130">
        <ele>979.7</ele>
        <time>2019-08-16T10:08:34Z</time>
      </trkpt>
      <trkpt lat="42.0609520" lon="-6.5128740">
        <ele>979.8</ele>
        <time>2019-08-16T10:08:35Z</time>
      </trkpt>
      <trkpt lat="42.0609700" lon="-6.5129370">
        <ele>979.8</ele>
        <time>2019-08-16T10:08:36Z</time>
      </trkpt>
      <trkpt lat="42.0609870" lon="-6.5130050">
        <ele>979.9</ele>
        <time>2019-08-16T10:08:37Z</time>
      </trkpt>
      <trkpt lat="42.0610060" lon="-6.5130770">
        <ele>979.9</ele>
        <time>2019-08-16T10:08:38Z</time>
      </trkpt>
      <trkpt lat="42.0610280" lon="-6.5131510">
        <ele>980.0</ele>
        <time>2019-08-16T10:08:39Z</time>
      </trkpt>
      <trkpt lat="42.0610540" lon="-6.5132240">
        <ele>980.0</ele>
        <time>2019-08-16T10:08:40Z</time>
      </trkpt>
      <trkpt lat="42.0610840" lon="-6.5132980">
        <ele>980.0</ele>
        <time>2019-08-16T10:08:41Z</time>
      </trkpt>
      <trkpt lat="42.0611140" lon="-6.5133700">
        <ele>980.0</ele>
        <time>2019-08-16T10:08:42Z</time>
      </trkpt>
      <trkpt lat="42.0611440" lon="-6.5134420">
        <ele>980.0</ele>
        <time>2019-08-16T10:08:43Z</time>
      </trkpt>
      <trkpt lat="42.0611700" lon="-6.5135110">
        <ele>980.0</ele>
        <time>2019-08-16T10:08:44Z</time>
      </trkpt>
      <trkpt lat="42.0611990" lon="-6.5135810">
        <ele>980.0</ele>
        <time>2019-08-16T10:08:45Z</time>
      </trkpt>
      <trkpt lat="42.0612280" lon="-6.5136530">
        <ele>979.9</ele>
        <time>2019-08-16T10:08:46Z</time>
      </trkpt>
      <trkpt lat="42.0612600" lon="-6.5137250">
        <ele>979.9</ele>
        <time>2019-08-16T10:08:47Z</time>
      </trkpt>
      <trkpt lat="42.0612920" lon="-6.5137940">
        <ele>979.8</ele>
        <time>2019-08-16T10:08:48Z</time>
      </trkpt>
      <trkpt lat="42.0613210" lon="-6.5138600">
        <ele>979.8</ele>
        <time>2019-08-16T10:08:49Z</time>
      </trkpt>
      <trkpt lat="42.0613450" lon="-6.5139250">
        <ele>979.8</ele>
        <time>2019-08-16T10:08:50Z</time>
      </trkpt>
      <trkpt lat="42.0613690" lon="-6.5139860">
        <ele>979.7</ele>
        <time>2019-08-16T10:08:51Z</time>
      </trkpt>
      <trkpt lat="42.0613950" lon="-6.5140450">
        <ele>979.7</ele>
        <time>2019-08-16T10:08:52Z</time>
      </trkpt>
      <trkpt lat="42.0614240" lon="-6.5141020">
        <ele>979.7</ele>
        <time>2019-08-16T10:08:53Z</time>
      </trkpt>
      <trkpt lat="42.0614590" lon="-6.5141600">
        <ele>979.6</ele>
        <time>2019-08-16T10:08:54Z</time>
      </trkpt>
      <trkpt lat="42.0614900" lon="-6.5142190">
        <ele>979.6</ele>
        <time>2019-08-16T10:08:55Z</time>
      </trkpt>
      <trkpt lat="42.0615160" lon="-6.5142770">
        <ele>979.6</ele>
        <time>2019-08-16T10:08:56Z</time>
      </trkpt>
      <trkpt lat="42.0615290" lon="-6.5143360">
        <ele>979.5</ele>
        <time>2019-08-16T10:08:57Z</time>
      </trkpt>
      <trkpt lat="42.0615260" lon="-6.5143930">
        <ele>979.5</ele>
        <time>2019-08-16T10:08:58Z</time>
      </trkpt>
      <trkpt lat="42.0615120" lon="-6.5144430">
        <ele>979.5</ele>
        <time>2019-08-16T10:08:59Z</time>
      </trkpt>
      <trkpt lat="42.0614930" lon="-6.5144850">
        <ele>979.5</ele>
        <time>2019-08-16T10:09:00Z</time>
      </trkpt>
      <trkpt lat="42.0614720" lon="-6.5145230">
        <ele>979.6</ele>
        <time>2019-08-16T10:09:01Z</time>
      </trkpt>
      <trkpt lat="42.0614490" lon="-6.5145660">
        <ele>979.6</ele>
        <time>2019-08-16T10:09:02Z</time>
      </trkpt>
      <trkpt lat="42.0614320" lon="-6.5146120">
        <ele>979.6</ele>
        <time>2019-08-16T10:09:03Z</time>
      </trkpt>
      <trkpt lat="42.0614150" lon="-6.5146620">
        <ele>979.7</ele>
        <time>2019-08-16T10:09:04Z</time>
      </trkpt>
      <trkpt lat="42.0614010" lon="-6.5147140">
        <ele>979.8</ele>
        <time>2019-08-16T10:09:05Z</time>
      </trkpt>
      <trkpt lat="42.0613900" lon="-6.5147600">
        <ele>979.9</ele>
        <time>2019-08-16T10:09:06Z</time>
      </trkpt>
      <trkpt lat="42.0613800" lon="-6.5148090">
        <ele>980.0</ele>
        <time>2019-08-16T10:09:07Z</time>
      </trkpt>
      <trkpt lat="42.0613700" lon="-6.5148600">
        <ele>980.2</ele>
        <time>2019-08-16T10:09:08Z</time>
      </trkpt>
      <trkpt lat="42.0613610" lon="-6.5149070">
        <ele>980.3</ele>
        <time>2019-08-16T10:09:09Z</time>
      </trkpt>
      <trkpt lat="42.0613480" lon="-6.5149510">
        <ele>980.4</ele>
        <time>2019-08-16T10:09:10Z</time>
      </trkpt>
      <trkpt lat="42.0613430" lon="-6.5149870">
        <ele>980.5</ele>
        <time>2019-08-16T10:09:11Z</time>
      </trkpt>
      <trkpt lat="42.0613390" lon="-6.5150490">
        <ele>980.7</ele>
        <time>2019-08-16T10:09:13Z</time>
      </trkpt>
      <trkpt lat="42.0613480" lon="-6.5151030">
        <ele>980.8</ele>
        <time>2019-08-16T10:09:15Z</time>
      </trkpt>
      <trkpt lat="42.0613730" lon="-6.5151670">
        <ele>981.0</ele>
        <time>2019-08-16T10:09:17Z</time>
      </trkpt>
      <trkpt lat="42.0613800" lon="-6.5152120">
        <ele>981.1</ele>
        <time>2019-08-16T10:09:18Z</time>
      </trkpt>
      <trkpt lat="42.0613790" lon="-6.5152630">
        <ele>981.2</ele>
        <time>2019-08-16T10:09:19Z</time>
      </trkpt>
      <trkpt lat="42.0613670" lon="-6.5153150">
        <ele>981.3</ele>
        <time>2019-08-16T10:09:20Z</time>
      </trkpt>
      <trkpt lat="42.0613500" lon="-6.5153650">
        <ele>981.4</ele>
        <time>2019-08-16T10:09:21Z</time>
      </trkpt>
      <trkpt lat="42.0613310" lon="-6.5154090">
        <ele>981.5</ele>
        <time>2019-08-16T10:09:22Z</time>
      </trkpt>
      <trkpt lat="42.0613100" lon="-6.5154490">
        <ele>981.5</ele>
        <time>2019-08-16T10:09:23Z</time>
      </trkpt>
      <trkpt lat="42.0612860" lon="-6.5154880">
        <ele>981.6</ele>
        <time>2019-08-16T10:09:24Z</time>
      </trkpt>
      <trkpt lat="42.0612580" lon="-6.5155190">
        <ele>981.6</ele>
        <time>2019-08-16T10:09:25Z</time>
      </trkpt>
      <trkpt lat="42.0612270" lon="-6.5155430">
        <ele>981.7</ele>
        <time>2019-08-16T10:09:26Z</time>
      </trkpt>
      <trkpt lat="42.0611950" lon="-6.5155590">
        <ele>981.7</ele>
        <time>2019-08-16T10:09:27Z</time>
      </trkpt>
      <trkpt lat="42.0611600" lon="-6.5155710">
        <ele>981.8</ele>
        <time>2019-08-16T10:09:28Z</time>
      </trkpt>
      <trkpt lat="42.0611230" lon="-6.5155790">
        <ele>981.9</ele>
        <time>2019-08-16T10:09:29Z</time>
      </trkpt>
      <trkpt lat="42.0610850" lon="-6.5155860">
        <ele>982.0</ele>
        <time>2019-08-16T10:09:30Z</time>
      </trkpt>
      <trkpt lat="42.0610490" lon="-6.5155940">
        <ele>982.1</ele>
        <time>2019-08-16T10:09:31Z</time>
      </trkpt>
      <trkpt lat="42.0610120" lon="-6.5156010">
        <ele>982.2</ele>
        <time>2019-08-16T10:09:32Z</time>
      </trkpt>
      <trkpt lat="42.0609770" lon="-6.5156100">
        <ele>982.4</ele>
        <time>2019-08-16T10:09:33Z</time>
      </trkpt>
      <trkpt lat="42.0609440" lon="-6.5156240">
        <ele>982.5</ele>
        <time>2019-08-16T10:09:34Z</time>
      </trkpt>
      <trkpt lat="42.0609140" lon="-6.5156410">
        <ele>982.6</ele>
        <time>2019-08-16T10:09:35Z</time>
      </trkpt>
      <trkpt lat="42.0608860" lon="-6.5156620">
        <ele>982.7</ele>
        <time>2019-08-16T10:09:36Z</time>
      </trkpt>
      <trkpt lat="42.0608600" lon="-6.5156860">
        <ele>982.9</ele>
        <time>2019-08-16T10:09:37Z</time>
      </trkpt>
      <trkpt lat="42.0608360" lon="-6.5157110">
        <ele>983.0</ele>
        <time>2019-08-16T10:09:38Z</time>
      </trkpt>
      <trkpt lat="42.0608140" lon="-6.5157360">
        <ele>983.1</ele>
        <time>2019-08-16T10:09:39Z</time>
      </trkpt>
      <trkpt lat="42.0607930" lon="-6.5157630">
        <ele>983.2</ele>
        <time>2019-08-16T10:09:40Z</time>
      </trkpt>
      <trkpt lat="42.0607710" lon="-6.5157900">
        <ele>983.3</ele>
        <time>2019-08-16T10:09:41Z</time>
      </trkpt>
      <trkpt lat="42.0607490" lon="-6.5158170">
        <ele>983.5</ele>
        <time>2019-08-16T10:09:42Z</time>
      </trkpt>
      <trkpt lat="42.0607260" lon="-6.5158440">
        <ele>983.6</ele>
        <time>2019-08-16T10:09:43Z</time>
      </trkpt>
      <trkpt lat="42.0607050" lon="-6.5158700">
        <ele>983.7</ele>
        <time>2019-08-16T10:09:44Z</time>
      </trkpt>
      <trkpt lat="42.0606830" lon="-6.5158980">
        <ele>983.8</ele>
        <time>2019-08-16T10:09:45Z</time>
      </trkpt>
      <trkpt lat="42.0606630" lon="-6.5159240">
        <ele>983.8</ele>
        <time>2019-08-16T10:09:46Z</time>
      </trkpt>
      <trkpt lat="42.0606470" lon="-6.5159510">
        <ele>983.9</ele>
        <time>2019-08-16T10:09:50Z</time>
      </trkpt>
      <trkpt lat="42.0605890" lon="-6.5160280">
        <ele>984.0</ele>
        <time>2019-08-16T10:10:21Z</time>
      </trkpt>
      <trkpt lat="42.0605620" lon="-6.5160610">
        <ele>984.0</ele>
        <time>2019-08-16T10:10:22Z</time>
      </trkpt>
      <trkpt lat="42.0605320" lon="-6.5160950">
        <ele>984.0</ele>
        <time>2019-08-16T10:10:23Z</time>
      </trkpt>
      <trkpt lat="42.0605020" lon="-6.5161350">
        <ele>984.0</ele>
        <time>2019-08-16T10:10:24Z</time>
      </trkpt>
      <trkpt lat="42.0604720" lon="-6.5161780">
        <ele>984.0</ele>
        <time>2019-08-16T10:10:25Z</time>
      </trkpt>
      <trkpt lat="42.0604450" lon="-6.5162260">
        <ele>983.9</ele>
        <time>2019-08-16T10:10:26Z</time>
      </trkpt>
      <trkpt lat="42.0604180" lon="-6.5162800">
        <ele>983.9</ele>
        <time>2019-08-16T10:10:27Z</time>
      </trkpt>
      <trkpt lat="42.0603940" lon="-6.5163370">
        <ele>983.8</ele>
        <time>2019-08-16T10:10:28Z</time>
      </trkpt>
      <trkpt lat="42.0603730" lon="-6.5164010">
        <ele>983.7</ele>
        <time>2019-08-16T10:10:29Z</time>
      </trkpt>
      <trkpt lat="42.0603560" lon="-6.5164670">
        <ele>983.6</ele>
        <time>2019-08-16T10:10:30Z</time>
      </trkpt>
      <trkpt lat="42.0603460" lon="-6.5165350">
        <ele>983.5</ele>
        <time>2019-08-16T10:10:31Z</time>
      </trkpt>
      <trkpt lat="42.0603420" lon="-6.5166040">
        <ele>983.4</ele>
        <time>2019-08-16T10:10:32Z</time>
      </trkpt>
      <trkpt lat="42.0603430" lon="-6.5166720">
        <ele>983.3</ele>
        <time>2019-08-16T10:10:33Z</time>
      </trkpt>
      <trkpt lat="42.0603440" lon="-6.5167360">
        <ele>983.3</ele>
        <time>2019-08-16T10:10:34Z</time>
      </trkpt>
      <trkpt lat="42.0603450" lon="-6.5168010">
        <ele>983.2</ele>
        <time>2019-08-16T10:10:35Z</time>
      </trkpt>
      <trkpt lat="42.0603450" lon="-6.5168680">
        <ele>983.2</ele>
        <time>2019-08-16T10:10:36Z</time>
      </trkpt>
      <trkpt lat="42.0603460" lon="-6.5169360">
        <ele>983.1</ele>
        <time>2019-08-16T10:10:37Z</time>
      </trkpt>
      <trkpt lat="42.0603480" lon="-6.5170050">
        <ele>983.1</ele>
        <time>2019-08-16T10:10:38Z</time>
      </trkpt>
      <trkpt lat="42.0603470" lon="-6.5170720">
        <ele>983.1</ele>
        <time>2019-08-16T10:10:39Z</time>
      </trkpt>
      <trkpt lat="42.0603440" lon="-6.5171370">
        <ele>983.1</ele>
        <time>2019-08-16T10:10:40Z</time>
      </trkpt>
      <trkpt lat="42.0603400" lon="-6.5171980">
        <ele>983.2</ele>
        <time>2019-08-16T10:10:41Z</time>
      </trkpt>
      <trkpt lat="42.0603370" lon="-6.5172580">
        <ele>983.2</ele>
        <time>2019-08-16T10:10:42Z</time>
      </trkpt>
      <trkpt lat="42.0603350" lon="-6.5173240">
        <ele>983.3</ele>
        <time>2019-08-16T10:10:43Z</time>
      </trkpt>
      <trkpt lat="42.0603340" lon="-6.5173850">
        <ele>983.3</ele>
        <time>2019-08-16T10:10:44Z</time>
      </trkpt>
      <trkpt lat="42.0603340" lon="-6.5174450">
        <ele>983.4</ele>
        <time>2019-08-16T10:10:45Z</time>
      </trkpt>
      <trkpt lat="42.0603300" lon="-6.5175100">
        <ele>983.5</ele>
        <time>2019-08-16T10:10:46Z</time>
      </trkpt>
      <trkpt lat="42.0603160" lon="-6.5175740">
        <ele>983.5</ele>
        <time>2019-08-16T10:10:47Z</time>
      </trkpt>
      <trkpt lat="42.0602960" lon="-6.5176320">
        <ele>983.6</ele>
        <time>2019-08-16T10:10:48Z</time>
      </trkpt>
      <trkpt lat="42.0602740" lon="-6.5176880">
        <ele>983.7</ele>
        <time>2019-08-16T10:10:49Z</time>
      </trkpt>
      <trkpt lat="42.0602510" lon="-6.5177460">
        <ele>983.7</ele>
        <time>2019-08-16T10:10:50Z</time>
      </trkpt>
      <trkpt lat="42.0602320" lon="-6.5178030">
        <ele>983.8</ele>
        <time>2019-08-16T10:10:51Z</time>
      </trkpt>
      <trkpt lat="42.0602180" lon="-6.5178610">
        <ele>983.9</ele>
        <time>2019-08-16T10:10:52Z</time>
      </trkpt>
      <trkpt lat="42.0602070" lon="-6.5179190">
        <ele>983.9</ele>
        <time>2019-08-16T10:10:53Z</time>
      </trkpt>
      <trkpt lat="42.0602060" lon="-6.5179750">
        <ele>984.0</ele>
        <time>2019-08-16T10:10:54Z</time>
      </trkpt>
      <trkpt lat="42.0602090" lon="-6.5180300">
        <ele>984.0</ele>
        <time>2019-08-16T10:10:55Z</time>
      </trkpt>
      <trkpt lat="42.0602100" lon="-6.5180910">
        <ele>984.1</ele>
        <time>2019-08-16T10:10:56Z</time>
      </trkpt>
      <trkpt lat="42.0602070" lon="-6.5181520">
        <ele>984.1</ele>
        <time>2019-08-16T10:10:57Z</time>
      </trkpt>
      <trkpt lat="42.0602020" lon="-6.5182130">
        <ele>984.2</ele>
        <time>2019-08-16T10:10:58Z</time>
      </trkpt>
      <trkpt lat="42.0601970" lon="-6.5182740">
        <ele>984.2</ele>
        <time>2019-08-16T10:10:59Z</time>
      </trkpt>
      <trkpt lat="42.0601930" lon="-6.5183330">
        <ele>984.3</ele>
        <time>2019-08-16T10:11:00Z</time>
      </trkpt>
      <trkpt lat="42.0601890" lon="-6.5183920">
        <ele>984.3</ele>
        <time>2019-08-16T10:11:01Z</time>
      </trkpt>
      <trkpt lat="42.0601850" lon="-6.5184490">
        <ele>984.4</ele>
        <time>2019-08-16T10:11:02Z</time>
      </trkpt>
      <trkpt lat="42.0601820" lon="-6.5185070">
        <ele>984.5</ele>
        <time>2019-08-16T10:11:03Z</time>
      </trkpt>
      <trkpt lat="42.0601800" lon="-6.5185640">
        <ele>984.5</ele>
        <time>2019-08-16T10:11:04Z</time>
      </trkpt>
      <trkpt lat="42.0601820" lon="-6.5186200">
        <ele>984.7</ele>
        <time>2019-08-16T10:11:05Z</time>
      </trkpt>
      <trkpt lat="42.0601800" lon="-6.5186760">
        <ele>984.8</ele>
        <time>2019-08-16T10:11:06Z</time>
      </trkpt>
      <trkpt lat="42.0601800" lon="-6.5187310">
        <ele>984.9</ele>
        <time>2019-08-16T10:11:07Z</time>
      </trkpt>
      <trkpt lat="42.0601830" lon="-6.5187880">
        <ele>985.1</ele>
        <time>2019-08-16T10:11:08Z</time>
      </trkpt>
      <trkpt lat="42.0601860" lon="-6.5188470">
        <ele>985.2</ele>
        <time>2019-08-16T10:11:09Z</time>
      </trkpt>
      <trkpt lat="42.0601900" lon="-6.5189100">
        <ele>985.3</ele>
        <time>2019-08-16T10:11:10Z</time>
      </trkpt>
      <trkpt lat="42.0601930" lon="-6.5189730">
        <ele>985.5</ele>
        <time>2019-08-16T10:11:11Z</time>
      </trkpt>
      <trkpt lat="42.0601970" lon="-6.5190360">
        <ele>985.6</ele>
        <time>2019-08-16T10:11:12Z</time>
      </trkpt>
      <trkpt lat="42.0602020" lon="-6.5190970">
        <ele>985.6</ele>
        <time>2019-08-16T10:11:13Z</time>
      </trkpt>
      <trkpt lat="42.0602080" lon="-6.5191620">
        <ele>985.7</ele>
        <time>2019-08-16T10:11:14Z</time>
      </trkpt>
      <trkpt lat="42.0602130" lon="-6.5192260">
        <ele>985.7</ele>
        <time>2019-08-16T10:11:15Z</time>
      </trkpt>
      <trkpt lat="42.0602140" lon="-6.5192870">
        <ele>985.8</ele>
        <time>2019-08-16T10:11:16Z</time>
      </trkpt>
      <trkpt lat="42.0602160" lon="-6.5193450">
        <ele>985.8</ele>
        <time>2019-08-16T10:11:17Z</time>
      </trkpt>
      <trkpt lat="42.0602170" lon="-6.5194010">
        <ele>985.8</ele>
        <time>2019-08-16T10:11:18Z</time>
      </trkpt>
      <trkpt lat="42.0602200" lon="-6.5194580">
        <ele>985.8</ele>
        <time>2019-08-16T10:11:19Z</time>
      </trkpt>
      <trkpt lat="42.0602230" lon="-6.5195150">
        <ele>985.8</ele>
        <time>2019-08-16T10:11:20Z</time>
      </trkpt>
      <trkpt lat="42.0602260" lon="-6.5195700">
        <ele>985.8</ele>
        <time>2019-08-16T10:11:21Z</time>
      </trkpt>
      <trkpt lat="42.0602290" lon="-6.5196260">
        <ele>985.9</ele>
        <time>2019-08-16T10:11:22Z</time>
      </trkpt>
      <trkpt lat="42.0602340" lon="-6.5196850">
        <ele>985.9</ele>
        <time>2019-08-16T10:11:23Z</time>
      </trkpt>
      <trkpt lat="42.0602400" lon="-6.5197430">
        <ele>985.9</ele>
        <time>2019-08-16T10:11:24Z</time>
      </trkpt>
      <trkpt lat="42.0602480" lon="-6.5198030">
        <ele>985.9</ele>
        <time>2019-08-16T10:11:25Z</time>
      </trkpt>
      <trkpt lat="42.0602590" lon="-6.5198660">
        <ele>985.9</ele>
        <time>2019-08-16T10:11:26Z</time>
      </trkpt>
      <trkpt lat="42.0602750" lon="-6.5199280">
        <ele>985.9</ele>
        <time>2019-08-16T10:11:27Z</time>
      </trkpt>
      <trkpt lat="42.0602950" lon="-6.5199890">
        <ele>985.8</ele>
        <time>2019-08-16T10:11:28Z</time>
      </trkpt>
      <trkpt lat="42.0603160" lon="-6.5200490">
        <ele>985.8</ele>
        <time>2019-08-16T10:11:29Z</time>
      </trkpt>
      <trkpt lat="42.0603380" lon="-6.5201080">
        <ele>985.7</ele>
        <time>2019-08-16T10:11:30Z</time>
      </trkpt>
      <trkpt lat="42.0603560" lon="-6.5201630">
        <ele>985.6</ele>
        <time>2019-08-16T10:11:31Z</time>
      </trkpt>
      <trkpt lat="42.0603680" lon="-6.5202140">
        <ele>985.5</ele>
        <time>2019-08-16T10:11:32Z</time>
      </trkpt>
      <trkpt lat="42.0603690" lon="-6.5202600">
        <ele>985.4</ele>
        <time>2019-08-16T10:11:33Z</time>
      </trkpt>
      <trkpt lat="42.0603610" lon="-6.5202960">
        <ele>985.2</ele>
        <time>2019-08-16T10:11:34Z</time>
      </trkpt>
      <trkpt lat="42.0603440" lon="-6.5203280">
        <ele>985.1</ele>
        <time>2019-08-16T10:11:35Z</time>
      </trkpt>
      <trkpt lat="42.0603180" lon="-6.5203600">
        <ele>984.9</ele>
        <time>2019-08-16T10:11:36Z</time>
      </trkpt>
      <trkpt lat="42.0602930" lon="-6.5203990">
        <ele>984.6</ele>
        <time>2019-08-16T10:11:37Z</time>
      </trkpt>
      <trkpt lat="42.0602760" lon="-6.5204510">
        <ele>984.8</ele>
        <time>2019-08-16T10:11:38Z</time>
      </trkpt>
      <trkpt lat="42.0602700" lon="-6.5205100">
        <ele>984.9</ele>
        <time>2019-08-16T10:11:39Z</time>
      </trkpt>
      <trkpt lat="42.0602730" lon="-6.5205670">
        <ele>985.1</ele>
        <time>2019-08-16T10:11:40Z</time>
      </trkpt>
      <trkpt lat="42.0602780" lon="-6.5206220">
        <ele>985.2</ele>
        <time>2019-08-16T10:11:41Z</time>
      </trkpt>
      <trkpt lat="42.0602820" lon="-6.5206770">
        <ele>985.4</ele>
        <time>2019-08-16T10:11:42Z</time>
      </trkpt>
      <trkpt lat="42.0602830" lon="-6.5207290">
        <ele>985.5</ele>
        <time>2019-08-16T10:11:43Z</time>
      </trkpt>
      <trkpt lat="42.0602820" lon="-6.5207770">
        <ele>985.7</ele>
        <time>2019-08-16T10:11:44Z</time>
      </trkpt>
      <trkpt lat="42.0602790" lon="-6.5208220">
        <ele>985.8</ele>
        <time>2019-08-16T10:11:45Z</time>
      </trkpt>
      <trkpt lat="42.0602730" lon="-6.5208670">
        <ele>986.0</ele>
        <time>2019-08-16T10:11:46Z</time>
      </trkpt>
      <trkpt lat="42.0602670" lon="-6.5209120">
        <ele>986.2</ele>
        <time>2019-08-16T10:11:47Z</time>
      </trkpt>
      <trkpt lat="42.0602600" lon="-6.5209570">
        <ele>986.3</ele>
        <time>2019-08-16T10:11:48Z</time>
      </trkpt>
      <trkpt lat="42.0602560" lon="-6.5210010">
        <ele>986.5</ele>
        <time>2019-08-16T10:11:49Z</time>
      </trkpt>
      <trkpt lat="42.0602530" lon="-6.5210460">
        <ele>986.6</ele>
        <time>2019-08-16T10:11:50Z</time>
      </trkpt>
      <trkpt lat="42.0602510" lon="-6.5210880">
        <ele>986.8</ele>
        <time>2019-08-16T10:11:51Z</time>
      </trkpt>
      <trkpt lat="42.0602470" lon="-6.5211290">
        <ele>986.9</ele>
        <time>2019-08-16T10:11:52Z</time>
      </trkpt>
      <trkpt lat="42.0602420" lon="-6.5211680">
        <ele>987.1</ele>
        <time>2019-08-16T10:11:53Z</time>
      </trkpt>
      <trkpt lat="42.0602380" lon="-6.5212080">
        <ele>987.2</ele>
        <time>2019-08-16T10:11:54Z</time>
      </trkpt>
      <trkpt lat="42.0602340" lon="-6.5212480">
        <ele>987.3</ele>
        <time>2019-08-16T10:11:55Z</time>
      </trkpt>
      <trkpt lat="42.0602300" lon="-6.5212880">
        <ele>987.4</ele>
        <time>2019-08-16T10:11:56Z</time>
      </trkpt>
      <trkpt lat="42.0602250" lon="-6.5213280">
        <ele>987.5</ele>
        <time>2019-08-16T10:11:57Z</time>
      </trkpt>
      <trkpt lat="42.0602190" lon="-6.5213690">
        <ele>987.6</ele>
        <time>2019-08-16T10:11:58Z</time>
      </trkpt>
      <trkpt lat="42.0602140" lon="-6.5214120">
        <ele>987.6</ele>
        <time>2019-08-16T10:11:59Z</time>
      </trkpt>
      <trkpt lat="42.0602100" lon="-6.5214570">
        <ele>987.7</ele>
        <time>2019-08-16T10:12:00Z</time>
      </trkpt>
      <trkpt lat="42.0602090" lon="-6.5215030">
        <ele>987.8</ele>
        <time>2019-08-16T10:12:01Z</time>
      </trkpt>
      <trkpt lat="42.0602060" lon="-6.5215510">
        <ele>987.9</ele>
        <time>2019-08-16T10:12:02Z</time>
      </trkpt>
      <trkpt lat="42.0602030" lon="-6.5215990">
        <ele>988.1</ele>
        <time>2019-08-16T10:12:03Z</time>
      </trkpt>
      <trkpt lat="42.0602010" lon="-6.5216450">
        <ele>988.2</ele>
        <time>2019-08-16T10:12:04Z</time>
      </trkpt>
      <trkpt lat="42.0601980" lon="-6.5216890">
        <ele>988.3</ele>
        <time>2019-08-16T10:12:05Z</time>
      </trkpt>
      <trkpt lat="42.0601950" lon="-6.5217310">
        <ele>988.4</ele>
        <time>2019-08-16T10:12:06Z</time>
      </trkpt>
      <trkpt lat="42.0601910" lon="-6.5217760">
        <ele>988.4</ele>
        <time>2019-08-16T10:12:07Z</time>
      </trkpt>
      <trkpt lat="42.0601870" lon="-6.5218240">
        <ele>988.5</ele>
        <time>2019-08-16T10:12:08Z</time>
      </trkpt>
      <trkpt lat="42.0601830" lon="-6.5218740">
        <ele>988.6</ele>
        <time>2019-08-16T10:12:09Z</time>
      </trkpt>
      <trkpt lat="42.0601770" lon="-6.5219250">
        <ele>988.6</ele>
        <time>2019-08-16T10:12:10Z</time>
      </trkpt>
      <trkpt lat="42.0601690" lon="-6.5219780">
        <ele>988.7</ele>
        <time>2019-08-16T10:12:11Z</time>
      </trkpt>
      <trkpt lat="42.0601580" lon="-6.5220280">
        <ele>988.8</ele>
        <time>2019-08-16T10:12:12Z</time>
      </trkpt>
      <trkpt lat="42.0601430" lon="-6.5220750">
        <ele>988.6</ele>
        <time>2019-08-16T10:12:13Z</time>
      </trkpt>
      <trkpt lat="42.0601220" lon="-6.5221130">
        <ele>988.5</ele>
        <time>2019-08-16T10:12:14Z</time>
      </trkpt>
      <trkpt lat="42.0600930" lon="-6.5221390">
        <ele>988.3</ele>
        <time>2019-08-16T10:12:15Z</time>
      </trkpt>
      <trkpt lat="42.0600590" lon="-6.5221580">
        <ele>988.1</ele>
        <time>2019-08-16T10:12:16Z</time>
      </trkpt>
      <trkpt lat="42.0600250" lon="-6.5221720">
        <ele>987.9</ele>
        <time>2019-08-16T10:12:17Z</time>
      </trkpt>
      <trkpt lat="42.0599900" lon="-6.5221800">
        <ele>987.8</ele>
        <time>2019-08-16T10:12:18Z</time>
      </trkpt>
      <trkpt lat="42.0599550" lon="-6.5221860">
        <ele>987.7</ele>
        <time>2019-08-16T10:12:19Z</time>
      </trkpt>
      <trkpt lat="42.0599200" lon="-6.5221930">
        <ele>987.5</ele>
        <time>2019-08-16T10:12:20Z</time>
      </trkpt>
      <trkpt lat="42.0598860" lon="-6.5222020">
        <ele>987.4</ele>
        <time>2019-08-16T10:12:21Z</time>
      </trkpt>
      <trkpt lat="42.0598560" lon="-6.5222140">
        <ele>987.3</ele>
        <time>2019-08-16T10:12:22Z</time>
      </trkpt>
      <trkpt lat="42.0598280" lon="-6.5222270">
        <ele>987.0</ele>
        <time>2019-08-16T10:12:23Z</time>
      </trkpt>
      <trkpt lat="42.0598000" lon="-6.5222430">
        <ele>986.8</ele>
        <time>2019-08-16T10:12:24Z</time>
      </trkpt>
      <trkpt lat="42.0597720" lon="-6.5222610">
        <ele>986.5</ele>
        <time>2019-08-16T10:12:25Z</time>
      </trkpt>
      <trkpt lat="42.0597450" lon="-6.5222820">
        <ele>986.3</ele>
        <time>2019-08-16T10:12:26Z</time>
      </trkpt>
      <trkpt lat="42.0597170" lon="-6.5223050">
        <ele>986.1</ele>
        <time>2019-08-16T10:12:27Z</time>
      </trkpt>
      <trkpt lat="42.0596890" lon="-6.5223310">
        <ele>985.7</ele>
        <time>2019-08-16T10:12:28Z</time>
      </trkpt>
      <trkpt lat="42.0596630" lon="-6.5223650">
        <ele>985.6</ele>
        <time>2019-08-16T10:12:29Z</time>
      </trkpt>
      <trkpt lat="42.0596440" lon="-6.5224090">
        <ele>985.5</ele>
        <time>2019-08-16T10:12:30Z</time>
      </trkpt>
      <trkpt lat="42.0596310" lon="-6.5224600">
        <ele>985.5</ele>
        <time>2019-08-16T10:12:31Z</time>
      </trkpt>
      <trkpt lat="42.0596230" lon="-6.5225180">
        <ele>985.4</ele>
        <time>2019-08-16T10:12:32Z</time>
      </trkpt>
      <trkpt lat="42.0596180" lon="-6.5225820">
        <ele>985.3</ele>
        <time>2019-08-16T10:12:33Z</time>
      </trkpt>
      <trkpt lat="42.0596120" lon="-6.5226470">
        <ele>985.2</ele>
        <time>2019-08-16T10:12:34Z</time>
      </trkpt>
      <trkpt lat="42.0596050" lon="-6.5227120">
        <ele>985.0</ele>
        <time>2019-08-16T10:12:35Z</time>
      </trkpt>
      <trkpt lat="42.0595980" lon="-6.5227710">
        <ele>984.9</ele>
        <time>2019-08-16T10:12:36Z</time>
      </trkpt>
      <trkpt lat="42.0595930" lon="-6.5228220">
        <ele>984.8</ele>
        <time>2019-08-16T10:12:37Z</time>
      </trkpt>
      <trkpt lat="42.0595880" lon="-6.5228610">
        <ele>984.8</ele>
        <time>2019-08-16T10:12:38Z</time>
      </trkpt>
      <trkpt lat="42.0595660" lon="-6.5229080">
        <ele>984.7</ele>
        <time>2019-08-16T10:12:40Z</time>
      </trkpt>
      <trkpt lat="42.0595290" lon="-6.5229220">
        <ele>984.6</ele>
        <time>2019-08-16T10:12:42Z</time>
      </trkpt>
      <trkpt lat="42.0594830" lon="-6.5229170">
        <ele>984.5</ele>
        <time>2019-08-16T10:12:44Z</time>
      </trkpt>
      <trkpt lat="42.0594420" lon="-6.5229190">
        <ele>984.4</ele>
        <time>2019-08-16T10:12:46Z</time>
      </trkpt>
      <trkpt lat="42.0594080" lon="-6.5229190">
        <ele>984.3</ele>
        <time>2019-08-16T10:12:48Z</time>
      </trkpt>
      <trkpt lat="42.0593740" lon="-6.5229410">
        <ele>984.2</ele>
        <time>2019-08-16T10:12:51Z</time>
      </trkpt>
      <trkpt lat="42.0593440" lon="-6.5229710">
        <ele>984.1</ele>
        <time>2019-08-16T10:12:54Z</time>
      </trkpt>
      <trkpt lat="42.0593520" lon="-6.5230080">
        <ele>984.0</ele>
        <time>2019-08-16T10:12:56Z</time>
      </trkpt>
      <trkpt lat="42.0593780" lon="-6.5230080">
        <ele>984.0</ele>
        <time>2019-08-16T10:12:58Z</time>
      </trkpt>
      <trkpt lat="42.0594000" lon="-6.5229600">
        <ele>983.9</ele>
        <time>2019-08-16T10:13:00Z</time>
      </trkpt>
      <trkpt lat="42.0594340" lon="-6.5229170">
        <ele>983.8</ele>
        <time>2019-08-16T10:13:02Z</time>
      </trkpt>
      <trkpt lat="42.0594700" lon="-6.5229130">
        <ele>983.7</ele>
        <time>2019-08-16T10:13:04Z</time>
      </trkpt>
      <trkpt lat="42.0594980" lon="-6.5229320">
        <ele>983.6</ele>
        <time>2019-08-16T10:13:06Z</time>
      </trkpt>
      <trkpt lat="42.0595250" lon="-6.5229570">
        <ele>983.6</ele>
        <time>2019-08-16T10:13:08Z</time>
      </trkpt>
      <trkpt lat="42.0595510" lon="-6.5229760">
        <ele>983.5</ele>
        <time>2019-08-16T10:13:10Z</time>
      </trkpt>
      <trkpt lat="42.0595870" lon="-6.5230250">
        <ele>983.6</ele>
        <time>2019-08-16T10:13:24Z</time>
      </trkpt>
      <trkpt lat="42.0596100" lon="-6.5230520">
        <ele>983.6</ele>
        <time>2019-08-16T10:13:25Z</time>
      </trkpt>
      <trkpt lat="42.0596330" lon="-6.5230780">
        <ele>983.7</ele>
        <time>2019-08-16T10:13:26Z</time>
      </trkpt>
      <trkpt lat="42.0596600" lon="-6.5231050">
        <ele>983.7</ele>
        <time>2019-08-16T10:13:27Z</time>
      </trkpt>
      <trkpt lat="42.0596850" lon="-6.5231360">
        <ele>983.7</ele>
        <time>2019-08-16T10:13:28Z</time>
      </trkpt>
      <trkpt lat="42.0597030" lon="-6.5231740">
        <ele>983.7</ele>
        <time>2019-08-16T10:13:29Z</time>
      </trkpt>
      <trkpt lat="42.0597150" lon="-6.5232220">
        <ele>983.7</ele>
        <time>2019-08-16T10:13:30Z</time>
      </trkpt>
      <trkpt lat="42.0597230" lon="-6.5232760">
        <ele>983.6</ele>
        <time>2019-08-16T10:13:31Z</time>
      </trkpt>
      <trkpt lat="42.0597320" lon="-6.5233340">
        <ele>983.6</ele>
        <time>2019-08-16T10:13:32Z</time>
      </trkpt>
      <trkpt lat="42.0597430" lon="-6.5233960">
        <ele>983.5</ele>
        <time>2019-08-16T10:13:33Z</time>
      </trkpt>
      <trkpt lat="42.0597530" lon="-6.5234570">
        <ele>983.5</ele>
        <time>2019-08-16T10:13:34Z</time>
      </trkpt>
      <trkpt lat="42.0597630" lon="-6.5235170">
        <ele>983.4</ele>
        <time>2019-08-16T10:13:35Z</time>
      </trkpt>
      <trkpt lat="42.0597750" lon="-6.5235710">
        <ele>983.4</ele>
        <time>2019-08-16T10:13:36Z</time>
      </trkpt>
      <trkpt lat="42.0597860" lon="-6.5236200">
        <ele>983.4</ele>
        <time>2019-08-16T10:13:37Z</time>
      </trkpt>
      <trkpt lat="42.0597980" lon="-6.5236660">
        <ele>983.4</ele>
        <time>2019-08-16T10:13:38Z</time>
      </trkpt>
      <trkpt lat="42.0598120" lon="-6.5237150">
        <ele>983.3</ele>
        <time>2019-08-16T10:13:39Z</time>
      </trkpt>
      <trkpt lat="42.0598300" lon="-6.5237650">
        <ele>983.3</ele>
        <time>2019-08-16T10:13:40Z</time>
      </trkpt>
      <trkpt lat="42.0598440" lon="-6.5238170">
        <ele>983.4</ele>
        <time>2019-08-16T10:13:41Z</time>
      </trkpt>
      <trkpt lat="42.0598580" lon="-6.5238700">
        <ele>983.4</ele>
        <time>2019-08-16T10:13:42Z</time>
      </trkpt>
      <trkpt lat="42.0598730" lon="-6.5239200">
        <ele>983.4</ele>
        <time>2019-08-16T10:13:43Z</time>
      </trkpt>
      <trkpt lat="42.0598880" lon="-6.5239680">
        <ele>983.4</ele>
        <time>2019-08-16T10:13:44Z</time>
      </trkpt>
      <trkpt lat="42.0599020" lon="-6.5240120">
        <ele>983.4</ele>
        <time>2019-08-16T10:13:45Z</time>
      </trkpt>
      <trkpt lat="42.0599180" lon="-6.5240610">
        <ele>983.5</ele>
        <time>2019-08-16T10:13:46Z</time>
      </trkpt>
      <trkpt lat="42.0599350" lon="-6.5241150">
        <ele>983.5</ele>
        <time>2019-08-16T10:13:47Z</time>
      </trkpt>
      <trkpt lat="42.0599510" lon="-6.5241680">
        <ele>983.5</ele>
        <time>2019-08-16T10:13:48Z</time>
      </trkpt>
      <trkpt lat="42.0599710" lon="-6.5242190">
        <ele>983.6</ele>
        <time>2019-08-16T10:13:49Z</time>
      </trkpt>
      <trkpt lat="42.0599950" lon="-6.5242680">
        <ele>983.6</ele>
        <time>2019-08-16T10:13:50Z</time>
      </trkpt>
      <trkpt lat="42.0600230" lon="-6.5243090">
        <ele>983.6</ele>
        <time>2019-08-16T10:13:51Z</time>
      </trkpt>
      <trkpt lat="42.0600530" lon="-6.5243510">
        <ele>983.7</ele>
        <time>2019-08-16T10:13:52Z</time>
      </trkpt>
      <trkpt lat="42.0600790" lon="-6.5243980">
        <ele>983.7</ele>
        <time>2019-08-16T10:13:53Z</time>
      </trkpt>
      <trkpt lat="42.0600980" lon="-6.5244480">
        <ele>983.8</ele>
        <time>2019-08-16T10:13:54Z</time>
      </trkpt>
      <trkpt lat="42.0601160" lon="-6.5244990">
        <ele>983.9</ele>
        <time>2019-08-16T10:13:55Z</time>
      </trkpt>
      <trkpt lat="42.0601340" lon="-6.5245490">
        <ele>983.9</ele>
        <time>2019-08-16T10:13:56Z</time>
      </trkpt>
      <trkpt lat="42.0601510" lon="-6.5245990">
        <ele>984.0</ele>
        <time>2019-08-16T10:13:57Z</time>
      </trkpt>
      <trkpt lat="42.0601670" lon="-6.5246480">
        <ele>984.1</ele>
        <time>2019-08-16T10:13:58Z</time>
      </trkpt>
      <trkpt lat="42.0601850" lon="-6.5246980">
        <ele>984.2</ele>
        <time>2019-08-16T10:13:59Z</time>
      </trkpt>
      <trkpt lat="42.0602020" lon="-6.5247460">
        <ele>984.2</ele>
        <time>2019-08-16T10:14:00Z</time>
      </trkpt>
      <trkpt lat="42.0602190" lon="-6.5247950">
        <ele>984.3</ele>
        <time>2019-08-16T10:14:01Z</time>
      </trkpt>
      <trkpt lat="42.0602350" lon="-6.5248450">
        <ele>984.4</ele>
        <time>2019-08-16T10:14:02Z</time>
      </trkpt>
      <trkpt lat="42.0602490" lon="-6.5248970">
        <ele>984.4</ele>
        <time>2019-08-16T10:14:03Z</time>
      </trkpt>
      <trkpt lat="42.0602620" lon="-6.5249500">
        <ele>984.5</ele>
        <time>2019-08-16T10:14:04Z</time>
      </trkpt>
      <trkpt lat="42.0602730" lon="-6.5250050">
        <ele>984.6</ele>
        <time>2019-08-16T10:14:05Z</time>
      </trkpt>
      <trkpt lat="42.0602820" lon="-6.5250610">
        <ele>984.7</ele>
        <time>2019-08-16T10:14:06Z</time>
      </trkpt>
      <trkpt lat="42.0602890" lon="-6.5251140">
        <ele>984.8</ele>
        <time>2019-08-16T10:14:07Z</time>
      </trkpt>
      <trkpt lat="42.0602920" lon="-6.5251610">
        <ele>984.9</ele>
        <time>2019-08-16T10:14:08Z</time>
      </trkpt>
      <trkpt lat="42.0602920" lon="-6.5252080">
        <ele>985.0</ele>
        <time>2019-08-16T10:14:09Z</time>
      </trkpt>
      <trkpt lat="42.0602930" lon="-6.5252560">
        <ele>985.2</ele>
        <time>2019-08-16T10:14:10Z</time>
      </trkpt>
      <trkpt lat="42.0602940" lon="-6.5253050">
        <ele>985.4</ele>
        <time>2019-08-16T10:14:11Z</time>
      </trkpt>
      <trkpt lat="42.0602950" lon="-6.5253550">
        <ele>985.6</ele>
        <time>2019-08-16T10:14:12Z</time>
      </trkpt>
      <trkpt lat="42.0602960" lon="-6.5254030">
        <ele>985.8</ele>
        <time>2019-08-16T10:14:13Z</time>
      </trkpt>
      <trkpt lat="42.0602950" lon="-6.5254490">
        <ele>986.0</ele>
        <time>2019-08-16T10:14:14Z</time>
      </trkpt>
      <trkpt lat="42.0602960" lon="-6.5254950">
        <ele>986.2</ele>
        <time>2019-08-16T10:14:15Z</time>
      </trkpt>
      <trkpt lat="42.0602940" lon="-6.5255410">
        <ele>986.4</ele>
        <time>2019-08-16T10:14:16Z</time>
      </trkpt>
      <trkpt lat="42.0602920" lon="-6.5255870">
        <ele>986.6</ele>
        <time>2019-08-16T10:14:17Z</time>
      </trkpt>
      <trkpt lat="42.0602890" lon="-6.5256320">
        <ele>986.8</ele>
        <time>2019-08-16T10:14:18Z</time>
      </trkpt>
      <trkpt lat="42.0602860" lon="-6.5256770">
        <ele>987.0</ele>
        <time>2019-08-16T10:14:19Z</time>
      </trkpt>
      <trkpt lat="42.0602840" lon="-6.5257220">
        <ele>987.2</ele>
        <time>2019-08-16T10:14:20Z</time>
      </trkpt>
      <trkpt lat="42.0602810" lon="-6.5257650">
        <ele>987.4</ele>
        <time>2019-08-16T10:14:21Z</time>
      </trkpt>
      <trkpt lat="42.0602780" lon="-6.5258090">
        <ele>987.6</ele>
        <time>2019-08-16T10:14:22Z</time>
      </trkpt>
      <trkpt lat="42.0602730" lon="-6.5258540">
        <ele>987.7</ele>
        <time>2019-08-16T10:14:23Z</time>
      </trkpt>
      <trkpt lat="42.0602690" lon="-6.5259000">
        <ele>987.9</ele>
        <time>2019-08-16T10:14:24Z</time>
      </trkpt>
      <trkpt lat="42.0602620" lon="-6.5259450">
        <ele>988.0</ele>
        <time>2019-08-16T10:14:25Z</time>
      </trkpt>
      <trkpt lat="42.0602550" lon="-6.5259900">
        <ele>988.1</ele>
        <time>2019-08-16T10:14:26Z</time>
      </trkpt>
      <trkpt lat="42.0602480" lon="-6.5260370">
        <ele>988.3</ele>
        <time>2019-08-16T10:14:27Z</time>
      </trkpt>
      <trkpt lat="42.0602440" lon="-6.5260850">
        <ele>988.4</ele>
        <time>2019-08-16T10:14:28Z</time>
      </trkpt>
      <trkpt lat="42.0602390" lon="-6.5261370">
        <ele>988.5</ele>
        <time>2019-08-16T10:14:29Z</time>
      </trkpt>
      <trkpt lat="42.0602360" lon="-6.5261910">
        <ele>988.6</ele>
        <time>2019-08-16T10:14:30Z</time>
      </trkpt>
      <trkpt lat="42.0602340" lon="-6.5262450">
        <ele>988.8</ele>
        <time>2019-08-16T10:14:31Z</time>
      </trkpt>
      <trkpt lat="42.0602290" lon="-6.5263010">
        <ele>988.9</ele>
        <time>2019-08-16T10:14:32Z</time>
      </trkpt>
      <trkpt lat="42.0602240" lon="-6.5263540">
        <ele>989.0</ele>
        <time>2019-08-16T10:14:33Z</time>
      </trkpt>
      <trkpt lat="42.0602180" lon="-6.5264050">
        <ele>989.0</ele>
        <time>2019-08-16T10:14:34Z</time>
      </trkpt>
      <trkpt lat="42.0602100" lon="-6.5264550">
        <ele>989.1</ele>
        <time>2019-08-16T10:14:35Z</time>
      </trkpt>
      <trkpt lat="42.0602000" lon="-6.5265050">
        <ele>989.2</ele>
        <time>2019-08-16T10:14:36Z</time>
      </trkpt>
      <trkpt lat="42.0601870" lon="-6.5265540">
        <ele>989.2</ele>
        <time>2019-08-16T10:14:37Z</time>
      </trkpt>
      <trkpt lat="42.0601720" lon="-6.5265980">
        <ele>989.3</ele>
        <time>2019-08-16T10:14:38Z</time>
      </trkpt>
      <trkpt lat="42.0601540" lon="-6.5266370">
        <ele>989.4</ele>
        <time>2019-08-16T10:14:39Z</time>
      </trkpt>
      <trkpt lat="42.0601350" lon="-6.5266700">
        <ele>989.4</ele>
        <time>2019-08-16T10:14:40Z</time>
      </trkpt>
      <trkpt lat="42.0601140" lon="-6.5267030">
        <ele>989.5</ele>
        <time>2019-08-16T10:14:41Z</time>
      </trkpt>
      <trkpt lat="42.0600930" lon="-6.5267390">
        <ele>989.5</ele>
        <time>2019-08-16T10:14:42Z</time>
      </trkpt>
      <trkpt lat="42.0600740" lon="-6.5267750">
        <ele>989.6</ele>
        <time>2019-08-16T10:14:43Z</time>
      </trkpt>
      <trkpt lat="42.0600580" lon="-6.5268110">
        <ele>989.7</ele>
        <time>2019-08-16T10:14:44Z</time>
      </trkpt>
      <trkpt lat="42.0600450" lon="-6.5268470">
        <ele>989.7</ele>
        <time>2019-08-16T10:14:45Z</time>
      </trkpt>
      <trkpt lat="42.0600360" lon="-6.5268830">
        <ele>989.8</ele>
        <time>2019-08-16T10:14:46Z</time>
      </trkpt>
      <trkpt lat="42.0600320" lon="-6.5269460">
        <ele>989.9</ele>
        <time>2019-08-16T10:14:48Z</time>
      </trkpt>
      <trkpt lat="42.0600330" lon="-6.5270140">
        <ele>990.1</ele>
        <time>2019-08-16T10:14:50Z</time>
      </trkpt>
      <trkpt lat="42.0600320" lon="-6.5270500">
        <ele>990.1</ele>
        <time>2019-08-16T10:14:51Z</time>
      </trkpt>
      <trkpt lat="42.0600320" lon="-6.5270870">
        <ele>990.2</ele>
        <time>2019-08-16T10:14:52Z</time>
      </trkpt>
      <trkpt lat="42.0600320" lon="-6.5271250">
        <ele>990.3</ele>
        <time>2019-08-16T10:14:53Z</time>
      </trkpt>
      <trkpt lat="42.0600320" lon="-6.5271620">
        <ele>990.4</ele>
        <time>2019-08-16T10:14:54Z</time>
      </trkpt>
      <trkpt lat="42.0600310" lon="-6.5271990">
        <ele>990.5</ele>
        <time>2019-08-16T10:14:55Z</time>
      </trkpt>
      <trkpt lat="42.0600300" lon="-6.5272360">
        <ele>990.6</ele>
        <time>2019-08-16T10:14:56Z</time>
      </trkpt>
      <trkpt lat="42.0600290" lon="-6.5272750">
        <ele>990.6</ele>
        <time>2019-08-16T10:14:57Z</time>
      </trkpt>
      <trkpt lat="42.0600250" lon="-6.5273150">
        <ele>990.7</ele>
        <time>2019-08-16T10:14:58Z</time>
      </trkpt>
      <trkpt lat="42.0600120" lon="-6.5273560">
        <ele>990.8</ele>
        <time>2019-08-16T10:14:59Z</time>
      </trkpt>
      <trkpt lat="42.0599980" lon="-6.5273920">
        <ele>990.9</ele>
        <time>2019-08-16T10:15:00Z</time>
      </trkpt>
      <trkpt lat="42.0599860" lon="-6.5274530">
        <ele>991.0</ele>
        <time>2019-08-16T10:15:02Z</time>
      </trkpt>
      <trkpt lat="42.0599800" lon="-6.5274890">
        <ele>991.0</ele>
        <time>2019-08-16T10:15:03Z</time>
      </trkpt>
      <trkpt lat="42.0599730" lon="-6.5275320">
        <ele>991.1</ele>
        <time>2019-08-16T10:15:04Z</time>
      </trkpt>
      <trkpt lat="42.0599680" lon="-6.5275780">
        <ele>991.2</ele>
        <time>2019-08-16T10:15:05Z</time>
      </trkpt>
      <trkpt lat="42.0599630" lon="-6.5276290">
        <ele>991.2</ele>
        <time>2019-08-16T10:15:06Z</time>
      </trkpt>
      <trkpt lat="42.0599560" lon="-6.5276770">
        <ele>991.3</ele>
        <time>2019-08-16T10:15:07Z</time>
      </trkpt>
      <trkpt lat="42.0599480" lon="-6.5277230">
        <ele>991.3</ele>
        <time>2019-08-16T10:15:08Z</time>
      </trkpt>
      <trkpt lat="42.0599400" lon="-6.5277730">
        <ele>991.4</ele>
        <time>2019-08-16T10:15:09Z</time>
      </trkpt>
      <trkpt lat="42.0599340" lon="-6.5278230">
        <ele>991.4</ele>
        <time>2019-08-16T10:15:10Z</time>
      </trkpt>
      <trkpt lat="42.0599300" lon="-6.5278730">
        <ele>991.5</ele>
        <time>2019-08-16T10:15:11Z</time>
      </trkpt>
      <trkpt lat="42.0599240" lon="-6.5279250">
        <ele>991.5</ele>
        <time>2019-08-16T10:15:12Z</time>
      </trkpt>
      <trkpt lat="42.0599200" lon="-6.5279740">
        <ele>991.6</ele>
        <time>2019-08-16T10:15:13Z</time>
      </trkpt>
      <trkpt lat="42.0599200" lon="-6.5280170">
        <ele>991.6</ele>
        <time>2019-08-16T10:15:14Z</time>
      </trkpt>
      <trkpt lat="42.0599180" lon="-6.5280590">
        <ele>991.6</ele>
        <time>2019-08-16T10:15:15Z</time>
      </trkpt>
      <trkpt lat="42.0599170" lon="-6.5281010">
        <ele>991.6</ele>
        <time>2019-08-16T10:15:16Z</time>
      </trkpt>
      <trkpt lat="42.0599190" lon="-6.5281400">
        <ele>991.6</ele>
        <time>2019-08-16T10:15:17Z</time>
      </trkpt>
      <trkpt lat="42.0599170" lon="-6.5281810">
        <ele>991.7</ele>
        <time>2019-08-16T10:15:18Z</time>
      </trkpt>
      <trkpt lat="42.0599150" lon="-6.5282200">
        <ele>991.7</ele>
        <time>2019-08-16T10:15:19Z</time>
      </trkpt>
      <trkpt lat="42.0599190" lon="-6.5282590">
        <ele>991.7</ele>
        <time>2019-08-16T10:15:20Z</time>
      </trkpt>
      <trkpt lat="42.0599230" lon="-6.5283030">
        <ele>991.7</ele>
        <time>2019-08-16T10:15:21Z</time>
      </trkpt>
      <trkpt lat="42.0599270" lon="-6.5283530">
        <ele>991.7</ele>
        <time>2019-08-16T10:15:22Z</time>
      </trkpt>
      <trkpt lat="42.0599260" lon="-6.5284040">
        <ele>991.7</ele>
        <time>2019-08-16T10:15:23Z</time>
      </trkpt>
      <trkpt lat="42.0599220" lon="-6.5284560">
        <ele>991.7</ele>
        <time>2019-08-16T10:15:24Z</time>
      </trkpt>
      <trkpt lat="42.0599220" lon="-6.5285090">
        <ele>991.6</ele>
        <time>2019-08-16T10:15:25Z</time>
      </trkpt>
      <trkpt lat="42.0599220" lon="-6.5285650">
        <ele>991.5</ele>
        <time>2019-08-16T10:15:26Z</time>
      </trkpt>
      <trkpt lat="42.0599220" lon="-6.5286210">
        <ele>991.4</ele>
        <time>2019-08-16T10:15:27Z</time>
      </trkpt>
      <trkpt lat="42.0599230" lon="-6.5286760">
        <ele>991.4</ele>
        <time>2019-08-16T10:15:28Z</time>
      </trkpt>
      <trkpt lat="42.0599230" lon="-6.5287360">
        <ele>991.3</ele>
        <time>2019-08-16T10:15:29Z</time>
      </trkpt>
      <trkpt lat="42.0599260" lon="-6.5287990">
        <ele>991.2</ele>
        <time>2019-08-16T10:15:30Z</time>
      </trkpt>
      <trkpt lat="42.0599330" lon="-6.5288660">
        <ele>991.0</ele>
        <time>2019-08-16T10:15:31Z</time>
      </trkpt>
      <trkpt lat="42.0599400" lon="-6.5289380">
        <ele>990.8</ele>
        <time>2019-08-16T10:15:32Z</time>
      </trkpt>
      <trkpt lat="42.0599440" lon="-6.5290130">
        <ele>990.5</ele>
        <time>2019-08-16T10:15:33Z</time>
      </trkpt>
      <trkpt lat="42.0599440" lon="-6.5290910">
        <ele>990.1</ele>
        <time>2019-08-16T10:15:34Z</time>
      </trkpt>
      <trkpt lat="42.0599420" lon="-6.5291740">
        <ele>989.7</ele>
        <time>2019-08-16T10:15:35Z</time>
      </trkpt>
      <trkpt lat="42.0599370" lon="-6.5292560">
        <ele>989.4</ele>
        <time>2019-08-16T10:15:36Z</time>
      </trkpt>
      <trkpt lat="42.0599350" lon="-6.5293370">
        <ele>989.1</ele>
        <time>2019-08-16T10:15:37Z</time>
      </trkpt>
      <trkpt lat="42.0599300" lon="-6.5294170">
        <ele>988.9</ele>
        <time>2019-08-16T10:15:38Z</time>
      </trkpt>
      <trkpt lat="42.0599220" lon="-6.5294920">
        <ele>988.6</ele>
        <time>2019-08-16T10:15:39Z</time>
      </trkpt>
      <trkpt lat="42.0599140" lon="-6.5295640">
        <ele>988.4</ele>
        <time>2019-08-16T10:15:40Z</time>
      </trkpt>
      <trkpt lat="42.0599080" lon="-6.5296340">
        <ele>988.1</ele>
        <time>2019-08-16T10:15:41Z</time>
      </trkpt>
      <trkpt lat="42.0599010" lon="-6.5297020">
        <ele>987.9</ele>
        <time>2019-08-16T10:15:42Z</time>
      </trkpt>
      <trkpt lat="42.0598890" lon="-6.5297700">
        <ele>987.8</ele>
        <time>2019-08-16T10:15:43Z</time>
      </trkpt>
      <trkpt lat="42.0598690" lon="-6.5298460">
        <ele>987.7</ele>
        <time>2019-08-16T10:15:44Z</time>
      </trkpt>
      <trkpt lat="42.0598510" lon="-6.5299240">
        <ele>987.5</ele>
        <time>2019-08-16T10:15:45Z</time>
      </trkpt>
      <trkpt lat="42.0598350" lon="-6.5300030">
        <ele>987.4</ele>
        <time>2019-08-16T10:15:46Z</time>
      </trkpt>
      <trkpt lat="42.0598150" lon="-6.5300750">
        <ele>987.3</ele>
        <time>2019-08-16T10:15:47Z</time>
      </trkpt>
      <trkpt lat="42.0597960" lon="-6.5301490">
        <ele>987.2</ele>
        <time>2019-08-16T10:15:48Z</time>
      </trkpt>
      <trkpt lat="42.0597780" lon="-6.5302220">
        <ele>987.1</ele>
        <time>2019-08-16T10:15:49Z</time>
      </trkpt>
      <trkpt lat="42.0597610" lon="-6.5302970">
        <ele>987.0</ele>
        <time>2019-08-16T10:15:50Z</time>
      </trkpt>
      <trkpt lat="42.0597440" lon="-6.5303680">
        <ele>986.9</ele>
        <time>2019-08-16T10:15:51Z</time>
      </trkpt>
      <trkpt lat="42.0597300" lon="-6.5304340">
        <ele>986.7</ele>
        <time>2019-08-16T10:15:52Z</time>
      </trkpt>
      <trkpt lat="42.0597160" lon="-6.5305020">
        <ele>986.6</ele>
        <time>2019-08-16T10:15:53Z</time>
      </trkpt>
      <trkpt lat="42.0597000" lon="-6.5305700">
        <ele>986.5</ele>
        <time>2019-08-16T10:15:54Z</time>
      </trkpt>
      <trkpt lat="42.0596840" lon="-6.5306400">
        <ele>986.4</ele>
        <time>2019-08-16T10:15:55Z</time>
      </trkpt>
      <trkpt lat="42.0596700" lon="-6.5307090">
        <ele>986.2</ele>
        <time>2019-08-16T10:15:56Z</time>
      </trkpt>
      <trkpt lat="42.0596580" lon="-6.5307790">
        <ele>986.0</ele>
        <time>2019-08-16T10:15:57Z</time>
      </trkpt>
      <trkpt lat="42.0596480" lon="-6.5308450">
        <ele>985.8</ele>
        <time>2019-08-16T10:15:58Z</time>
      </trkpt>
      <trkpt lat="42.0596430" lon="-6.5309100">
        <ele>985.7</ele>
        <time>2019-08-16T10:15:59Z</time>
      </trkpt>
      <trkpt lat="42.0596510" lon="-6.5309780">
        <ele>985.5</ele>
        <time>2019-08-16T10:16:00Z</time>
      </trkpt>
      <trkpt lat="42.0596680" lon="-6.5310460">
        <ele>985.3</ele>
        <time>2019-08-16T10:16:01Z</time>
      </trkpt>
      <trkpt lat="42.0596900" lon="-6.5311170">
        <ele>985.1</ele>
        <time>2019-08-16T10:16:02Z</time>
      </trkpt>
      <trkpt lat="42.0597080" lon="-6.5311900">
        <ele>985.0</ele>
        <time>2019-08-16T10:16:03Z</time>
      </trkpt>
      <trkpt lat="42.0597230" lon="-6.5312650">
        <ele>984.9</ele>
        <time>2019-08-16T10:16:04Z</time>
      </trkpt>
      <trkpt lat="42.0597340" lon="-6.5313400">
        <ele>984.8</ele>
        <time>2019-08-16T10:16:05Z</time>
      </trkpt>
      <trkpt lat="42.0597400" lon="-6.5314150">
        <ele>984.7</ele>
        <time>2019-08-16T10:16:06Z</time>
      </trkpt>
      <trkpt lat="42.0597460" lon="-6.5314880">
        <ele>984.6</ele>
        <time>2019-08-16T10:16:07Z</time>
      </trkpt>
      <trkpt lat="42.0597510" lon="-6.5315600">
        <ele>984.6</ele>
        <time>2019-08-16T10:16:08Z</time>
      </trkpt>
      <trkpt lat="42.0597520" lon="-6.5316310">
        <ele>984.6</ele>
        <time>2019-08-16T10:16:09Z</time>
      </trkpt>
      <trkpt lat="42.0597540" lon="-6.5317010">
        <ele>984.5</ele>
        <time>2019-08-16T10:16:10Z</time>
      </trkpt>
      <trkpt lat="42.0597560" lon="-6.5317690">
        <ele>984.5</ele>
        <time>2019-08-16T10:16:11Z</time>
      </trkpt>
      <trkpt lat="42.0597580" lon="-6.5318360">
        <ele>984.6</ele>
        <time>2019-08-16T10:16:12Z</time>
      </trkpt>
      <trkpt lat="42.0597640" lon="-6.5319020">
        <ele>984.6</ele>
        <time>2019-08-16T10:16:13Z</time>
      </trkpt>
      <trkpt lat="42.0597730" lon="-6.5319670">
        <ele>984.6</ele>
        <time>2019-08-16T10:16:14Z</time>
      </trkpt>
      <trkpt lat="42.0597790" lon="-6.5320290">
        <ele>984.6</ele>
        <time>2019-08-16T10:16:15Z</time>
      </trkpt>
      <trkpt lat="42.0597810" lon="-6.5320860">
        <ele>984.6</ele>
        <time>2019-08-16T10:16:16Z</time>
      </trkpt>
      <trkpt lat="42.0597820" lon="-6.5321410">
        <ele>984.7</ele>
        <time>2019-08-16T10:16:17Z</time>
      </trkpt>
      <trkpt lat="42.0597800" lon="-6.5321930">
        <ele>984.7</ele>
        <time>2019-08-16T10:16:18Z</time>
      </trkpt>
      <trkpt lat="42.0597770" lon="-6.5322450">
        <ele>984.7</ele>
        <time>2019-08-16T10:16:19Z</time>
      </trkpt>
      <trkpt lat="42.0597720" lon="-6.5322980">
        <ele>984.7</ele>
        <time>2019-08-16T10:16:20Z</time>
      </trkpt>
      <trkpt lat="42.0597680" lon="-6.5323530">
        <ele>984.6</ele>
        <time>2019-08-16T10:16:21Z</time>
      </trkpt>
      <trkpt lat="42.0597640" lon="-6.5324120">
        <ele>984.6</ele>
        <time>2019-08-16T10:16:22Z</time>
      </trkpt>
      <trkpt lat="42.0597660" lon="-6.5324700">
        <ele>984.6</ele>
        <time>2019-08-16T10:16:23Z</time>
      </trkpt>
      <trkpt lat="42.0597720" lon="-6.5325210">
        <ele>984.5</ele>
        <time>2019-08-16T10:16:24Z</time>
      </trkpt>
      <trkpt lat="42.0597740" lon="-6.5325770">
        <ele>984.5</ele>
        <time>2019-08-16T10:16:25Z</time>
      </trkpt>
      <trkpt lat="42.0597780" lon="-6.5326390">
        <ele>984.4</ele>
        <time>2019-08-16T10:16:26Z</time>
      </trkpt>
      <trkpt lat="42.0597790" lon="-6.5327030">
        <ele>984.4</ele>
        <time>2019-08-16T10:16:27Z</time>
      </trkpt>
      <trkpt lat="42.0597860" lon="-6.5327660">
        <ele>984.4</ele>
        <time>2019-08-16T10:16:28Z</time>
      </trkpt>
      <trkpt lat="42.0597900" lon="-6.5328290">
        <ele>984.3</ele>
        <time>2019-08-16T10:16:29Z</time>
      </trkpt>
      <trkpt lat="42.0597960" lon="-6.5328870">
        <ele>984.3</ele>
        <time>2019-08-16T10:16:30Z</time>
      </trkpt>
      <trkpt lat="42.0598000" lon="-6.5329480">
        <ele>984.2</ele>
        <time>2019-08-16T10:16:31Z</time>
      </trkpt>
      <trkpt lat="42.0598040" lon="-6.5330120">
        <ele>984.2</ele>
        <time>2019-08-16T10:16:32Z</time>
      </trkpt>
      <trkpt lat="42.0598100" lon="-6.5330750">
        <ele>984.1</ele>
        <time>2019-08-16T10:16:33Z</time>
      </trkpt>
      <trkpt lat="42.0598180" lon="-6.5331360">
        <ele>984.1</ele>
        <time>2019-08-16T10:16:34Z</time>
      </trkpt>
      <trkpt lat="42.0598270" lon="-6.5331930">
        <ele>984.1</ele>
        <time>2019-08-16T10:16:35Z</time>
      </trkpt>
      <trkpt lat="42.0598370" lon="-6.5332480">
        <ele>984.0</ele>
        <time>2019-08-16T10:16:36Z</time>
      </trkpt>
      <trkpt lat="42.0598480" lon="-6.5333050">
        <ele>984.0</ele>
        <time>2019-08-16T10:16:37Z</time>
      </trkpt>
      <trkpt lat="42.0598590" lon="-6.5333700">
        <ele>984.0</ele>
        <time>2019-08-16T10:16:38Z</time>
      </trkpt>
      <trkpt lat="42.0598730" lon="-6.5334370">
        <ele>984.0</ele>
        <time>2019-08-16T10:16:39Z</time>
      </trkpt>
      <trkpt lat="42.0598870" lon="-6.5335040">
        <ele>983.9</ele>
        <time>2019-08-16T10:16:40Z</time>
      </trkpt>
      <trkpt lat="42.0599010" lon="-6.5335710">
        <ele>983.9</ele>
        <time>2019-08-16T10:16:41Z</time>
      </trkpt>
      <trkpt lat="42.0599170" lon="-6.5336360">
        <ele>983.8</ele>
        <time>2019-08-16T10:16:42Z</time>
      </trkpt>
      <trkpt lat="42.0599390" lon="-6.5337030">
        <ele>983.8</ele>
        <time>2019-08-16T10:16:43Z</time>
      </trkpt>
      <trkpt lat="42.0599650" lon="-6.5337660">
        <ele>983.7</ele>
        <time>2019-08-16T10:16:44Z</time>
      </trkpt>
      <trkpt lat="42.0599910" lon="-6.5338260">
        <ele>983.5</ele>
        <time>2019-08-16T10:16:45Z</time>
      </trkpt>
      <trkpt lat="42.0600200" lon="-6.5338860">
        <ele>983.3</ele>
        <time>2019-08-16T10:16:46Z</time>
      </trkpt>
      <trkpt lat="42.0600460" lon="-6.5339490">
        <ele>983.1</ele>
        <time>2019-08-16T10:16:47Z</time>
      </trkpt>
      <trkpt lat="42.0600670" lon="-6.5340120">
        <ele>982.9</ele>
        <time>2019-08-16T10:16:48Z</time>
      </trkpt>
      <trkpt lat="42.0600860" lon="-6.5340780">
        <ele>982.7</ele>
        <time>2019-08-16T10:16:49Z</time>
      </trkpt>
      <trkpt lat="42.0601020" lon="-6.5341450">
        <ele>982.5</ele>
        <time>2019-08-16T10:16:50Z</time>
      </trkpt>
      <trkpt lat="42.0601150" lon="-6.5342160">
        <ele>982.2</ele>
        <time>2019-08-16T10:16:51Z</time>
      </trkpt>
      <trkpt lat="42.0601290" lon="-6.5342890">
        <ele>981.8</ele>
        <time>2019-08-16T10:16:52Z</time>
      </trkpt>
      <trkpt lat="42.0601440" lon="-6.5343620">
        <ele>981.5</ele>
        <time>2019-08-16T10:16:53Z</time>
      </trkpt>
      <trkpt lat="42.0601650" lon="-6.5344340">
        <ele>981.2</ele>
        <time>2019-08-16T10:16:54Z</time>
      </trkpt>
      <trkpt lat="42.0601860" lon="-6.5345060">
        <ele>981.0</ele>
        <time>2019-08-16T10:16:55Z</time>
      </trkpt>
      <trkpt lat="42.0602030" lon="-6.5345840">
        <ele>980.7</ele>
        <time>2019-08-16T10:16:56Z</time>
      </trkpt>
      <trkpt lat="42.0602280" lon="-6.5346620">
        <ele>980.4</ele>
        <time>2019-08-16T10:16:57Z</time>
      </trkpt>
      <trkpt lat="42.0602450" lon="-6.5347430">
        <ele>980.1</ele>
        <time>2019-08-16T10:16:58Z</time>
      </trkpt>
      <trkpt lat="42.0602630" lon="-6.5348290">
        <ele>979.9</ele>
        <time>2019-08-16T10:16:59Z</time>
      </trkpt>
      <trkpt lat="42.0602770" lon="-6.5349190">
        <ele>979.6</ele>
        <time>2019-08-16T10:17:00Z</time>
      </trkpt>
      <trkpt lat="42.0602870" lon="-6.5350020">
        <ele>979.3</ele>
        <time>2019-08-16T10:17:01Z</time>
      </trkpt>
      <trkpt lat="42.0603020" lon="-6.5350860">
        <ele>979.1</ele>
        <time>2019-08-16T10:17:02Z</time>
      </trkpt>
      <trkpt lat="42.0603200" lon="-6.5351740">
        <ele>978.9</ele>
        <time>2019-08-16T10:17:03Z</time>
      </trkpt>
      <trkpt lat="42.0603400" lon="-6.5352620">
        <ele>978.6</ele>
        <time>2019-08-16T10:17:04Z</time>
      </trkpt>
      <trkpt lat="42.0603570" lon="-6.5353490">
        <ele>978.4</ele>
        <time>2019-08-16T10:17:05Z</time>
      </trkpt>
      <trkpt lat="42.0603790" lon="-6.5354410">
        <ele>978.2</ele>
        <time>2019-08-16T10:17:06Z</time>
      </trkpt>
      <trkpt lat="42.0604030" lon="-6.5355370">
        <ele>978.0</ele>
        <time>2019-08-16T10:17:07Z</time>
      </trkpt>
      <trkpt lat="42.0604270" lon="-6.5356300">
        <ele>977.8</ele>
        <time>2019-08-16T10:17:08Z</time>
      </trkpt>
      <trkpt lat="42.0604480" lon="-6.5357180">
        <ele>977.7</ele>
        <time>2019-08-16T10:17:09Z</time>
      </trkpt>
      <trkpt lat="42.0604650" lon="-6.5358030">
        <ele>977.7</ele>
        <time>2019-08-16T10:17:10Z</time>
      </trkpt>
      <trkpt lat="42.0604810" lon="-6.5358860">
        <ele>977.6</ele>
        <time>2019-08-16T10:17:11Z</time>
      </trkpt>
      <trkpt lat="42.0604960" lon="-6.5359660">
        <ele>977.6</ele>
        <time>2019-08-16T10:17:12Z</time>
      </trkpt>
      <trkpt lat="42.0605120" lon="-6.5360430">
        <ele>977.6</ele>
        <time>2019-08-16T10:17:13Z</time>
      </trkpt>
      <trkpt lat="42.0605250" lon="-6.5361180">
        <ele>977.5</ele>
        <time>2019-08-16T10:17:14Z</time>
      </trkpt>
      <trkpt lat="42.0605440" lon="-6.5361880">
        <ele>977.5</ele>
        <time>2019-08-16T10:17:15Z</time>
      </trkpt>
      <trkpt lat="42.0605640" lon="-6.5362580">
        <ele>977.5</ele>
        <time>2019-08-16T10:17:16Z</time>
      </trkpt>
      <trkpt lat="42.0605850" lon="-6.5363340">
        <ele>977.4</ele>
        <time>2019-08-16T10:17:17Z</time>
      </trkpt>
      <trkpt lat="42.0606030" lon="-6.5364060">
        <ele>977.4</ele>
        <time>2019-08-16T10:17:18Z</time>
      </trkpt>
      <trkpt lat="42.0606230" lon="-6.5364790">
        <ele>977.3</ele>
        <time>2019-08-16T10:17:19Z</time>
      </trkpt>
      <trkpt lat="42.0606410" lon="-6.5365580">
        <ele>977.3</ele>
        <time>2019-08-16T10:17:20Z</time>
      </trkpt>
      <trkpt lat="42.0606590" lon="-6.5366230">
        <ele>977.2</ele>
        <time>2019-08-16T10:17:21Z</time>
      </trkpt>
      <trkpt lat="42.0606760" lon="-6.5366910">
        <ele>977.1</ele>
        <time>2019-08-16T10:17:22Z</time>
      </trkpt>
      <trkpt lat="42.0606880" lon="-6.5367560">
        <ele>977.1</ele>
        <time>2019-08-16T10:17:23Z</time>
      </trkpt>
      <trkpt lat="42.0607060" lon="-6.5368170">
        <ele>977.0</ele>
        <time>2019-08-16T10:17:24Z</time>
      </trkpt>
      <trkpt lat="42.0607250" lon="-6.5368820">
        <ele>977.0</ele>
        <time>2019-08-16T10:17:25Z</time>
      </trkpt>
      <trkpt lat="42.0607360" lon="-6.5369450">
        <ele>977.0</ele>
        <time>2019-08-16T10:17:26Z</time>
      </trkpt>
      <trkpt lat="42.0607330" lon="-6.5370060">
        <ele>977.0</ele>
        <time>2019-08-16T10:17:27Z</time>
      </trkpt>
      <trkpt lat="42.0607200" lon="-6.5370580">
        <ele>977.0</ele>
        <time>2019-08-16T10:17:28Z</time>
      </trkpt>
      <trkpt lat="42.0606990" lon="-6.5371080">
        <ele>977.0</ele>
        <time>2019-08-16T10:17:29Z</time>
      </trkpt>
      <trkpt lat="42.0606760" lon="-6.5371550">
        <ele>977.1</ele>
        <time>2019-08-16T10:17:30Z</time>
      </trkpt>
      <trkpt lat="42.0606510" lon="-6.5372000">
        <ele>977.1</ele>
        <time>2019-08-16T10:17:31Z</time>
      </trkpt>
      <trkpt lat="42.0606270" lon="-6.5372420">
        <ele>977.2</ele>
        <time>2019-08-16T10:17:32Z</time>
      </trkpt>
      <trkpt lat="42.0606100" lon="-6.5372770">
        <ele>977.3</ele>
        <time>2019-08-16T10:17:33Z</time>
      </trkpt>
      <trkpt lat="42.0605850" lon="-6.5373250">
        <ele>977.4</ele>
        <time>2019-08-16T10:17:35Z</time>
      </trkpt>
      <trkpt lat="42.0605620" lon="-6.5373650">
        <ele>977.6</ele>
        <time>2019-08-16T10:17:37Z</time>
      </trkpt>
      <trkpt lat="42.0605400" lon="-6.5374050">
        <ele>977.7</ele>
        <time>2019-08-16T10:17:39Z</time>
      </trkpt>
      <trkpt lat="42.0605090" lon="-6.5374430">
        <ele>977.9</ele>
        <time>2019-08-16T10:17:41Z</time>
      </trkpt>
      <trkpt lat="42.0604830" lon="-6.5374740">
        <ele>978.2</ele>
        <time>2019-08-16T10:17:43Z</time>
      </trkpt>
      <trkpt lat="42.0604460" lon="-6.5375020">
        <ele>978.6</ele>
        <time>2019-08-16T10:17:45Z</time>
      </trkpt>
      <trkpt lat="42.0604080" lon="-6.5375380">
        <ele>979.0</ele>
        <time>2019-08-16T10:17:47Z</time>
      </trkpt>
      <trkpt lat="42.0603860" lon="-6.5375610">
        <ele>979.3</ele>
        <time>2019-08-16T10:17:48Z</time>
      </trkpt>
      <trkpt lat="42.0603620" lon="-6.5375790">
        <ele>979.5</ele>
        <time>2019-08-16T10:17:49Z</time>
      </trkpt>
      <trkpt lat="42.0603270" lon="-6.5376250">
        <ele>979.9</ele>
        <time>2019-08-16T10:17:51Z</time>
      </trkpt>
      <trkpt lat="42.0602940" lon="-6.5376800">
        <ele>980.2</ele>
        <time>2019-08-16T10:17:53Z</time>
      </trkpt>
      <trkpt lat="42.0602660" lon="-6.5377320">
        <ele>980.5</ele>
        <time>2019-08-16T10:17:55Z</time>
      </trkpt>
      <trkpt lat="42.0602410" lon="-6.5377910">
        <ele>980.8</ele>
        <time>2019-08-16T10:17:57Z</time>
      </trkpt>
      <trkpt lat="42.0602230" lon="-6.5378590">
        <ele>981.1</ele>
        <time>2019-08-16T10:17:59Z</time>
      </trkpt>
      <trkpt lat="42.0602120" lon="-6.5379220">
        <ele>981.3</ele>
        <time>2019-08-16T10:18:01Z</time>
      </trkpt>
      <trkpt lat="42.0602080" lon="-6.5379900">
        <ele>981.6</ele>
        <time>2019-08-16T10:18:03Z</time>
      </trkpt>
      <trkpt lat="42.0602010" lon="-6.5380480">
        <ele>981.8</ele>
        <time>2019-08-16T10:18:05Z</time>
      </trkpt>
      <trkpt lat="42.0602010" lon="-6.5381030">
        <ele>982.0</ele>
        <time>2019-08-16T10:18:07Z</time>
      </trkpt>
      <trkpt lat="42.0602040" lon="-6.5381690">
        <ele>982.3</ele>
        <time>2019-08-16T10:18:09Z</time>
      </trkpt>
      <trkpt lat="42.0602010" lon="-6.5382380">
        <ele>982.6</ele>
        <time>2019-08-16T10:18:11Z</time>
      </trkpt>
      <trkpt lat="42.0601940" lon="-6.5383050">
        <ele>982.9</ele>
        <time>2019-08-16T10:18:13Z</time>
      </trkpt>
      <trkpt lat="42.0601920" lon="-6.5383670">
        <ele>983.1</ele>
        <time>2019-08-16T10:18:15Z</time>
      </trkpt>
      <trkpt lat="42.0601920" lon="-6.5384230">
        <ele>983.3</ele>
        <time>2019-08-16T10:18:17Z</time>
      </trkpt>
      <trkpt lat="42.0601880" lon="-6.5384920">
        <ele>983.6</ele>
        <time>2019-08-16T10:18:19Z</time>
      </trkpt>
      <trkpt lat="42.0601820" lon="-6.5385540">
        <ele>983.9</ele>
        <time>2019-08-16T10:18:21Z</time>
      </trkpt>
      <trkpt lat="42.0601820" lon="-6.5386070">
        <ele>984.1</ele>
        <time>2019-08-16T10:18:23Z</time>
      </trkpt>
      <trkpt lat="42.0601780" lon="-6.5386640">
        <ele>984.3</ele>
        <time>2019-08-16T10:18:25Z</time>
      </trkpt>
      <trkpt lat="42.0601670" lon="-6.5387240">
        <ele>984.6</ele>
        <time>2019-08-16T10:18:27Z</time>
      </trkpt>
      <trkpt lat="42.0601640" lon="-6.5387840">
        <ele>984.9</ele>
        <time>2019-08-16T10:18:29Z</time>
      </trkpt>
      <trkpt lat="42.0601480" lon="-6.5388470">
        <ele>985.2</ele>
        <time>2019-08-16T10:18:31Z</time>
      </trkpt>
      <trkpt lat="42.0601290" lon="-6.5389130">
        <ele>985.5</ele>
        <time>2019-08-16T10:18:33Z</time>
      </trkpt>
      <trkpt lat="42.0601200" lon="-6.5389690">
        <ele>985.8</ele>
        <time>2019-08-16T10:18:35Z</time>
      </trkpt>
      <trkpt lat="42.0601080" lon="-6.5390280">
        <ele>986.0</ele>
        <time>2019-08-16T10:18:37Z</time>
      </trkpt>
      <trkpt lat="42.0600940" lon="-6.5390840">
        <ele>986.3</ele>
        <time>2019-08-16T10:18:39Z</time>
      </trkpt>
      <trkpt lat="42.0600730" lon="-6.5391380">
        <ele>986.6</ele>
        <time>2019-08-16T10:18:41Z</time>
      </trkpt>
      <trkpt lat="42.0600480" lon="-6.5391890">
        <ele>987.0</ele>
        <time>2019-08-16T10:18:43Z</time>
      </trkpt>
      <trkpt lat="42.0600260" lon="-6.5392400">
        <ele>987.2</ele>
        <time>2019-08-16T10:18:45Z</time>
      </trkpt>
      <trkpt lat="42.0600130" lon="-6.5392940">
        <ele>987.5</ele>
        <time>2019-08-16T10:18:47Z</time>
      </trkpt>
      <trkpt lat="42.0599910" lon="-6.5393580">
        <ele>987.8</ele>
        <time>2019-08-16T10:18:49Z</time>
      </trkpt>
      <trkpt lat="42.0599820" lon="-6.5393960">
        <ele>987.9</ele>
        <time>2019-08-16T10:18:50Z</time>
      </trkpt>
      <trkpt lat="42.0599690" lon="-6.5394350">
        <ele>988.1</ele>
        <time>2019-08-16T10:18:51Z</time>
      </trkpt>
      <trkpt lat="42.0599570" lon="-6.5394740">
        <ele>988.3</ele>
        <time>2019-08-16T10:18:52Z</time>
      </trkpt>
      <trkpt lat="42.0599430" lon="-6.5395090">
        <ele>988.4</ele>
        <time>2019-08-16T10:18:53Z</time>
      </trkpt>
      <trkpt lat="42.0599250" lon="-6.5395720">
        <ele>988.6</ele>
        <time>2019-08-16T10:18:55Z</time>
      </trkpt>
      <trkpt lat="42.0599120" lon="-6.5396090">
        <ele>988.7</ele>
        <time>2019-08-16T10:18:56Z</time>
      </trkpt>
      <trkpt lat="42.0599020" lon="-6.5396480">
        <ele>988.8</ele>
        <time>2019-08-16T10:18:57Z</time>
      </trkpt>
      <trkpt lat="42.0598880" lon="-6.5396900">
        <ele>988.9</ele>
        <time>2019-08-16T10:18:58Z</time>
      </trkpt>
      <trkpt lat="42.0598740" lon="-6.5397380">
        <ele>989.1</ele>
        <time>2019-08-16T10:18:59Z</time>
      </trkpt>
      <trkpt lat="42.0598630" lon="-6.5397850">
        <ele>989.2</ele>
        <time>2019-08-16T10:19:00Z</time>
      </trkpt>
      <trkpt lat="42.0598470" lon="-6.5398400">
        <ele>989.4</ele>
        <time>2019-08-16T10:19:01Z</time>
      </trkpt>
      <trkpt lat="42.0598320" lon="-6.5398940">
        <ele>989.5</ele>
        <time>2019-08-16T10:19:02Z</time>
      </trkpt>
      <trkpt lat="42.0598150" lon="-6.5399410">
        <ele>989.6</ele>
        <time>2019-08-16T10:19:03Z</time>
      </trkpt>
      <trkpt lat="42.0597940" lon="-6.5399830">
        <ele>989.7</ele>
        <time>2019-08-16T10:19:04Z</time>
      </trkpt>
      <trkpt lat="42.0597670" lon="-6.5400210">
        <ele>989.8</ele>
        <time>2019-08-16T10:19:05Z</time>
      </trkpt>
      <trkpt lat="42.0597480" lon="-6.5400570">
        <ele>989.9</ele>
        <time>2019-08-16T10:19:06Z</time>
      </trkpt>
      <trkpt lat="42.0597280" lon="-6.5400920">
        <ele>989.9</ele>
        <time>2019-08-16T10:19:07Z</time>
      </trkpt>
      <trkpt lat="42.0597060" lon="-6.5401310">
        <ele>990.0</ele>
        <time>2019-08-16T10:19:08Z</time>
      </trkpt>
      <trkpt lat="42.0596850" lon="-6.5401670">
        <ele>990.1</ele>
        <time>2019-08-16T10:19:09Z</time>
      </trkpt>
      <trkpt lat="42.0596640" lon="-6.5402020">
        <ele>990.2</ele>
        <time>2019-08-16T10:19:10Z</time>
      </trkpt>
      <trkpt lat="42.0596400" lon="-6.5402380">
        <ele>990.3</ele>
        <time>2019-08-16T10:19:11Z</time>
      </trkpt>
      <trkpt lat="42.0596140" lon="-6.5402790">
        <ele>990.5</ele>
        <time>2019-08-16T10:19:12Z</time>
      </trkpt>
      <trkpt lat="42.0595910" lon="-6.5403200">
        <ele>990.6</ele>
        <time>2019-08-16T10:19:13Z</time>
      </trkpt>
      <trkpt lat="42.0595690" lon="-6.5403610">
        <ele>990.7</ele>
        <time>2019-08-16T10:19:14Z</time>
      </trkpt>
      <trkpt lat="42.0595470" lon="-6.5404000">
        <ele>990.8</ele>
        <time>2019-08-16T10:19:15Z</time>
      </trkpt>
      <trkpt lat="42.0595230" lon="-6.5404390">
        <ele>990.9</ele>
        <time>2019-08-16T10:19:16Z</time>
      </trkpt>
      <trkpt lat="42.0594990" lon="-6.5404780">
        <ele>991.0</ele>
        <time>2019-08-16T10:19:17Z</time>
      </trkpt>
      <trkpt lat="42.0594760" lon="-6.5405140">
        <ele>991.1</ele>
        <time>2019-08-16T10:19:18Z</time>
      </trkpt>
      <trkpt lat="42.0594510" lon="-6.5405510">
        <ele>991.2</ele>
        <time>2019-08-16T10:19:19Z</time>
      </trkpt>
      <trkpt lat="42.0594280" lon="-6.5405870">
        <ele>991.3</ele>
        <time>2019-08-16T10:19:20Z</time>
      </trkpt>
      <trkpt lat="42.0594030" lon="-6.5406230">
        <ele>991.4</ele>
        <time>2019-08-16T10:19:21Z</time>
      </trkpt>
      <trkpt lat="42.0593810" lon="-6.5406580">
        <ele>991.5</ele>
        <time>2019-08-16T10:19:22Z</time>
      </trkpt>
      <trkpt lat="42.0593610" lon="-6.5406900">
        <ele>991.7</ele>
        <time>2019-08-16T10:19:23Z</time>
      </trkpt>
      <trkpt lat="42.0593430" lon="-6.5407220">
        <ele>991.8</ele>
        <time>2019-08-16T10:19:24Z</time>
      </trkpt>
      <trkpt lat="42.0593270" lon="-6.5407560">
        <ele>991.9</ele>
        <time>2019-08-16T10:19:25Z</time>
      </trkpt>
      <trkpt lat="42.0592910" lon="-6.5408100">
        <ele>992.1</ele>
        <time>2019-08-16T10:19:27Z</time>
      </trkpt>
      <trkpt lat="42.0592710" lon="-6.5408370">
        <ele>992.2</ele>
        <time>2019-08-16T10:19:28Z</time>
      </trkpt>
      <trkpt lat="42.0592320" lon="-6.5408870">
        <ele>992.4</ele>
        <time>2019-08-16T10:19:30Z</time>
      </trkpt>
      <trkpt lat="42.0592020" lon="-6.5409090">
        <ele>992.6</ele>
        <time>2019-08-16T10:19:31Z</time>
      </trkpt>
      <trkpt lat="42.0591640" lon="-6.5409590">
        <ele>992.8</ele>
        <time>2019-08-16T10:19:33Z</time>
      </trkpt>
      <trkpt lat="42.0591430" lon="-6.5409880">
        <ele>993.0</ele>
        <time>2019-08-16T10:19:34Z</time>
      </trkpt>
      <trkpt lat="42.0591170" lon="-6.5410100">
        <ele>993.1</ele>
        <time>2019-08-16T10:19:35Z</time>
      </trkpt>
      <trkpt lat="42.0590920" lon="-6.5410320">
        <ele>993.3</ele>
        <time>2019-08-16T10:19:36Z</time>
      </trkpt>
      <trkpt lat="42.0590580" lon="-6.5410830">
        <ele>993.7</ele>
        <time>2019-08-16T10:19:38Z</time>
      </trkpt>
      <trkpt lat="42.0590300" lon="-6.5411390">
        <ele>994.1</ele>
        <time>2019-08-16T10:19:40Z</time>
      </trkpt>
      <trkpt lat="42.0590030" lon="-6.5411980">
        <ele>994.4</ele>
        <time>2019-08-16T10:19:42Z</time>
      </trkpt>
      <trkpt lat="42.0589710" lon="-6.5412520">
        <ele>994.6</ele>
        <time>2019-08-16T10:19:44Z</time>
      </trkpt>
      <trkpt lat="42.0589320" lon="-6.5413020">
        <ele>994.9</ele>
        <time>2019-08-16T10:19:46Z</time>
      </trkpt>
      <trkpt lat="42.0589130" lon="-6.5413290">
        <ele>995.0</ele>
        <time>2019-08-16T10:19:47Z</time>
      </trkpt>
      <trkpt lat="42.0588920" lon="-6.5413570">
        <ele>995.2</ele>
        <time>2019-08-16T10:19:48Z</time>
      </trkpt>
      <trkpt lat="42.0588730" lon="-6.5413870">
        <ele>995.3</ele>
        <time>2019-08-16T10:19:49Z</time>
      </trkpt>
      <trkpt lat="42.0588560" lon="-6.5414180">
        <ele>995.5</ele>
        <time>2019-08-16T10:19:50Z</time>
      </trkpt>
      <trkpt lat="42.0588270" lon="-6.5414730">
        <ele>995.8</ele>
        <time>2019-08-16T10:19:52Z</time>
      </trkpt>
      <trkpt lat="42.0587980" lon="-6.5415250">
        <ele>996.0</ele>
        <time>2019-08-16T10:19:54Z</time>
      </trkpt>
      <trkpt lat="42.0587750" lon="-6.5415780">
        <ele>996.3</ele>
        <time>2019-08-16T10:19:56Z</time>
      </trkpt>
      <trkpt lat="42.0587550" lon="-6.5416340">
        <ele>996.6</ele>
        <time>2019-08-16T10:19:58Z</time>
      </trkpt>
      <trkpt lat="42.0587310" lon="-6.5416860">
        <ele>996.8</ele>
        <time>2019-08-16T10:20:00Z</time>
      </trkpt>
      <trkpt lat="42.0587110" lon="-6.5417330">
        <ele>997.1</ele>
        <time>2019-08-16T10:20:02Z</time>
      </trkpt>
      <trkpt lat="42.0586760" lon="-6.5417830">
        <ele>997.4</ele>
        <time>2019-08-16T10:20:04Z</time>
      </trkpt>
      <trkpt lat="42.0586540" lon="-6.5418060">
        <ele>997.6</ele>
        <time>2019-08-16T10:20:05Z</time>
      </trkpt>
      <trkpt lat="42.0586310" lon="-6.5418270">
        <ele>997.8</ele>
        <time>2019-08-16T10:20:06Z</time>
      </trkpt>
      <trkpt lat="42.0585890" lon="-6.5418700">
        <ele>998.1</ele>
        <time>2019-08-16T10:20:08Z</time>
      </trkpt>
      <trkpt lat="42.0585490" lon="-6.5419180">
        <ele>998.5</ele>
        <time>2019-08-16T10:20:10Z</time>
      </trkpt>
      <trkpt lat="42.0585280" lon="-6.5419430">
        <ele>998.6</ele>
        <time>2019-08-16T10:20:11Z</time>
      </trkpt>
      <trkpt lat="42.0585060" lon="-6.5419690">
        <ele>998.8</ele>
        <time>2019-08-16T10:20:12Z</time>
      </trkpt>
      <trkpt lat="42.0584860" lon="-6.5419990">
        <ele>999.0</ele>
        <time>2019-08-16T10:20:13Z</time>
      </trkpt>
      <trkpt lat="42.0584690" lon="-6.5420320">
        <ele>999.1</ele>
        <time>2019-08-16T10:20:14Z</time>
      </trkpt>
      <trkpt lat="42.0584430" lon="-6.5420900">
        <ele>999.4</ele>
        <time>2019-08-16T10:20:16Z</time>
      </trkpt>
      <trkpt lat="42.0584290" lon="-6.5421230">
        <ele>999.6</ele>
        <time>2019-08-16T10:20:17Z</time>
      </trkpt>
      <trkpt lat="42.0584170" lon="-6.5421590">
        <ele>999.7</ele>
        <time>2019-08-16T10:20:18Z</time>
      </trkpt>
      <trkpt lat="42.0584070" lon="-6.5422000">
        <ele>999.8</ele>
        <time>2019-08-16T10:20:19Z</time>
      </trkpt>
      <trkpt lat="42.0583980" lon="-6.5422440">
        <ele>999.8</ele>
        <time>2019-08-16T10:20:20Z</time>
      </trkpt>
      <trkpt lat="42.0583930" lon="-6.5422900">
        <ele>999.8</ele>
        <time>2019-08-16T10:20:21Z</time>
      </trkpt>
      <trkpt lat="42.0583890" lon="-6.5423380">
        <ele>999.8</ele>
        <time>2019-08-16T10:20:22Z</time>
      </trkpt>
      <trkpt lat="42.0583840" lon="-6.5423900">
        <ele>999.8</ele>
        <time>2019-08-16T10:20:23Z</time>
      </trkpt>
      <trkpt lat="42.0583770" lon="-6.5424420">
        <ele>999.8</ele>
        <time>2019-08-16T10:20:24Z</time>
      </trkpt>
      <trkpt lat="42.0583690" lon="-6.5424920">
        <ele>999.8</ele>
        <time>2019-08-16T10:20:25Z</time>
      </trkpt>
      <trkpt lat="42.0583620" lon="-6.5425420">
        <ele>999.9</ele>
        <time>2019-08-16T10:20:26Z</time>
      </trkpt>
      <trkpt lat="42.0583530" lon="-6.5425870">
        <ele>999.9</ele>
        <time>2019-08-16T10:20:27Z</time>
      </trkpt>
      <trkpt lat="42.0583450" lon="-6.5426300">
        <ele>999.9</ele>
        <time>2019-08-16T10:20:28Z</time>
      </trkpt>
      <trkpt lat="42.0583370" lon="-6.5426760">
        <ele>999.9</ele>
        <time>2019-08-16T10:20:29Z</time>
      </trkpt>
      <trkpt lat="42.0583250" lon="-6.5427220">
        <ele>1000.0</ele>
        <time>2019-08-16T10:20:30Z</time>
      </trkpt>
      <trkpt lat="42.0583130" lon="-6.5427680">
        <ele>1000.1</ele>
        <time>2019-08-16T10:20:31Z</time>
      </trkpt>
      <trkpt lat="42.0583030" lon="-6.5428120">
        <ele>1000.3</ele>
        <time>2019-08-16T10:20:32Z</time>
      </trkpt>
      <trkpt lat="42.0582940" lon="-6.5428560">
        <ele>1000.4</ele>
        <time>2019-08-16T10:20:33Z</time>
      </trkpt>
      <trkpt lat="42.0582840" lon="-6.5428960">
        <ele>1000.6</ele>
        <time>2019-08-16T10:20:34Z</time>
      </trkpt>
      <trkpt lat="42.0582740" lon="-6.5429350">
        <ele>1000.7</ele>
        <time>2019-08-16T10:20:35Z</time>
      </trkpt>
      <trkpt lat="42.0582610" lon="-6.5429730">
        <ele>1000.9</ele>
        <time>2019-08-16T10:20:36Z</time>
      </trkpt>
      <trkpt lat="42.0582500" lon="-6.5430110">
        <ele>1001.1</ele>
        <time>2019-08-16T10:20:37Z</time>
      </trkpt>
      <trkpt lat="42.0582390" lon="-6.5430470">
        <ele>1001.2</ele>
        <time>2019-08-16T10:20:38Z</time>
      </trkpt>
      <trkpt lat="42.0582320" lon="-6.5430810">
        <ele>1001.4</ele>
        <time>2019-08-16T10:20:39Z</time>
      </trkpt>
      <trkpt lat="42.0582080" lon="-6.5431440">
        <ele>1001.7</ele>
        <time>2019-08-16T10:20:41Z</time>
      </trkpt>
      <trkpt lat="42.0581820" lon="-6.5432010">
        <ele>1001.9</ele>
        <time>2019-08-16T10:20:43Z</time>
      </trkpt>
      <trkpt lat="42.0581620" lon="-6.5432520">
        <ele>1002.2</ele>
        <time>2019-08-16T10:20:45Z</time>
      </trkpt>
      <trkpt lat="42.0581400" lon="-6.5432970">
        <ele>1002.5</ele>
        <time>2019-08-16T10:20:47Z</time>
      </trkpt>
      <trkpt lat="42.0581200" lon="-6.5433420">
        <ele>1002.8</ele>
        <time>2019-08-16T10:20:49Z</time>
      </trkpt>
      <trkpt lat="42.0581080" lon="-6.5434020">
        <ele>1003.1</ele>
        <time>2019-08-16T10:20:51Z</time>
      </trkpt>
      <trkpt lat="42.0580970" lon="-6.5434610">
        <ele>1003.4</ele>
        <time>2019-08-16T10:20:53Z</time>
      </trkpt>
      <trkpt lat="42.0580810" lon="-6.5435190">
        <ele>1003.7</ele>
        <time>2019-08-16T10:20:55Z</time>
      </trkpt>
      <trkpt lat="42.0580580" lon="-6.5435740">
        <ele>1004.1</ele>
        <time>2019-08-16T10:20:57Z</time>
      </trkpt>
      <trkpt lat="42.0580320" lon="-6.5436290">
        <ele>1004.4</ele>
        <time>2019-08-16T10:20:59Z</time>
      </trkpt>
      <trkpt lat="42.0580050" lon="-6.5436810">
        <ele>1004.7</ele>
        <time>2019-08-16T10:21:01Z</time>
      </trkpt>
      <trkpt lat="42.0579730" lon="-6.5437290">
        <ele>1004.9</ele>
        <time>2019-08-16T10:21:03Z</time>
      </trkpt>
      <trkpt lat="42.0579370" lon="-6.5437730">
        <ele>1005.2</ele>
        <time>2019-08-16T10:21:05Z</time>
      </trkpt>
      <trkpt lat="42.0578960" lon="-6.5438170">
        <ele>1005.6</ele>
        <time>2019-08-16T10:21:07Z</time>
      </trkpt>
      <trkpt lat="42.0578620" lon="-6.5438570">
        <ele>1005.9</ele>
        <time>2019-08-16T10:21:09Z</time>
      </trkpt>
      <trkpt lat="42.0578290" lon="-6.5439000">
        <ele>1006.1</ele>
        <time>2019-08-16T10:21:11Z</time>
      </trkpt>
      <trkpt lat="42.0577960" lon="-6.5439330">
        <ele>1006.4</ele>
        <time>2019-08-16T10:21:13Z</time>
      </trkpt>
      <trkpt lat="42.0577590" lon="-6.5439800">
        <ele>1006.6</ele>
        <time>2019-08-16T10:21:15Z</time>
      </trkpt>
      <trkpt lat="42.0577230" lon="-6.5440200">
        <ele>1006.9</ele>
        <time>2019-08-16T10:21:17Z</time>
      </trkpt>
      <trkpt lat="42.0576780" lon="-6.5440620">
        <ele>1007.2</ele>
        <time>2019-08-16T10:21:19Z</time>
      </trkpt>
      <trkpt lat="42.0576520" lon="-6.5440800">
        <ele>1007.4</ele>
        <time>2019-08-16T10:21:20Z</time>
      </trkpt>
      <trkpt lat="42.0576270" lon="-6.5440990">
        <ele>1007.6</ele>
        <time>2019-08-16T10:21:21Z</time>
      </trkpt>
      <trkpt lat="42.0575820" lon="-6.5441340">
        <ele>1007.9</ele>
        <time>2019-08-16T10:21:23Z</time>
      </trkpt>
      <trkpt lat="42.0575490" lon="-6.5441780">
        <ele>1008.2</ele>
        <time>2019-08-16T10:21:25Z</time>
      </trkpt>
      <trkpt lat="42.0575180" lon="-6.5442230">
        <ele>1008.4</ele>
        <time>2019-08-16T10:21:27Z</time>
      </trkpt>
      <trkpt lat="42.0574820" lon="-6.5442620">
        <ele>1008.7</ele>
        <time>2019-08-16T10:21:29Z</time>
      </trkpt>
      <trkpt lat="42.0574480" lon="-6.5443040">
        <ele>1008.9</ele>
        <time>2019-08-16T10:21:31Z</time>
      </trkpt>
      <trkpt lat="42.0574120" lon="-6.5443450">
        <ele>1009.1</ele>
        <time>2019-08-16T10:21:33Z</time>
      </trkpt>
      <trkpt lat="42.0573830" lon="-6.5443970">
        <ele>1009.3</ele>
        <time>2019-08-16T10:21:35Z</time>
      </trkpt>
      <trkpt lat="42.0573620" lon="-6.5444280">
        <ele>1009.4</ele>
        <time>2019-08-16T10:21:36Z</time>
      </trkpt>
      <trkpt lat="42.0573330" lon="-6.5444870">
        <ele>1009.6</ele>
        <time>2019-08-16T10:21:38Z</time>
      </trkpt>
      <trkpt lat="42.0573150" lon="-6.5445210">
        <ele>1009.7</ele>
        <time>2019-08-16T10:21:39Z</time>
      </trkpt>
      <trkpt lat="42.0572960" lon="-6.5445530">
        <ele>1009.8</ele>
        <time>2019-08-16T10:21:40Z</time>
      </trkpt>
      <trkpt lat="42.0572830" lon="-6.5445880">
        <ele>1009.9</ele>
        <time>2019-08-16T10:21:41Z</time>
      </trkpt>
      <trkpt lat="42.0572730" lon="-6.5446250">
        <ele>1009.9</ele>
        <time>2019-08-16T10:21:42Z</time>
      </trkpt>
      <trkpt lat="42.0572640" lon="-6.5446640">
        <ele>1010.1</ele>
        <time>2019-08-16T10:21:43Z</time>
      </trkpt>
      <trkpt lat="42.0572580" lon="-6.5447030">
        <ele>1010.2</ele>
        <time>2019-08-16T10:21:44Z</time>
      </trkpt>
      <trkpt lat="42.0572540" lon="-6.5447430">
        <ele>1010.3</ele>
        <time>2019-08-16T10:21:45Z</time>
      </trkpt>
      <trkpt lat="42.0572500" lon="-6.5447800">
        <ele>1010.4</ele>
        <time>2019-08-16T10:21:46Z</time>
      </trkpt>
      <trkpt lat="42.0572460" lon="-6.5448160">
        <ele>1010.6</ele>
        <time>2019-08-16T10:21:47Z</time>
      </trkpt>
      <trkpt lat="42.0572430" lon="-6.5448880">
        <ele>1010.9</ele>
        <time>2019-08-16T10:21:49Z</time>
      </trkpt>
      <trkpt lat="42.0572410" lon="-6.5449550">
        <ele>1011.3</ele>
        <time>2019-08-16T10:21:51Z</time>
      </trkpt>
      <trkpt lat="42.0572490" lon="-6.5450190">
        <ele>1011.6</ele>
        <time>2019-08-16T10:21:53Z</time>
      </trkpt>
      <trkpt lat="42.0572590" lon="-6.5450750">
        <ele>1011.9</ele>
        <time>2019-08-16T10:21:55Z</time>
      </trkpt>
      <trkpt lat="42.0572740" lon="-6.5451390">
        <ele>1012.3</ele>
        <time>2019-08-16T10:21:57Z</time>
      </trkpt>
      <trkpt lat="42.0572860" lon="-6.5451720">
        <ele>1012.4</ele>
        <time>2019-08-16T10:21:58Z</time>
      </trkpt>
      <trkpt lat="42.0573030" lon="-6.5452370">
        <ele>1012.6</ele>
        <time>2019-08-16T10:22:00Z</time>
      </trkpt>
      <trkpt lat="42.0573100" lon="-6.5452750">
        <ele>1012.7</ele>
        <time>2019-08-16T10:22:01Z</time>
      </trkpt>
      <trkpt lat="42.0573210" lon="-6.5453200">
        <ele>1012.8</ele>
        <time>2019-08-16T10:22:02Z</time>
      </trkpt>
      <trkpt lat="42.0573330" lon="-6.5453670">
        <ele>1013.0</ele>
        <time>2019-08-16T10:22:03Z</time>
      </trkpt>
      <trkpt lat="42.0573450" lon="-6.5454130">
        <ele>1013.0</ele>
        <time>2019-08-16T10:22:04Z</time>
      </trkpt>
      <trkpt lat="42.0573590" lon="-6.5454600">
        <ele>1013.1</ele>
        <time>2019-08-16T10:22:05Z</time>
      </trkpt>
      <trkpt lat="42.0573740" lon="-6.5455050">
        <ele>1013.1</ele>
        <time>2019-08-16T10:22:06Z</time>
      </trkpt>
      <trkpt lat="42.0573910" lon="-6.5455490">
        <ele>1013.1</ele>
        <time>2019-08-16T10:22:07Z</time>
      </trkpt>
      <trkpt lat="42.0574070" lon="-6.5455940">
        <ele>1013.1</ele>
        <time>2019-08-16T10:22:08Z</time>
      </trkpt>
      <trkpt lat="42.0574200" lon="-6.5456390">
        <ele>1013.1</ele>
        <time>2019-08-16T10:22:09Z</time>
      </trkpt>
      <trkpt lat="42.0574330" lon="-6.5456840">
        <ele>1013.0</ele>
        <time>2019-08-16T10:22:10Z</time>
      </trkpt>
      <trkpt lat="42.0574480" lon="-6.5457280">
        <ele>1013.0</ele>
        <time>2019-08-16T10:22:11Z</time>
      </trkpt>
      <trkpt lat="42.0574610" lon="-6.5457740">
        <ele>1012.9</ele>
        <time>2019-08-16T10:22:12Z</time>
      </trkpt>
      <trkpt lat="42.0574710" lon="-6.5458200">
        <ele>1012.8</ele>
        <time>2019-08-16T10:22:13Z</time>
      </trkpt>
      <trkpt lat="42.0574800" lon="-6.5458700">
        <ele>1012.7</ele>
        <time>2019-08-16T10:22:14Z</time>
      </trkpt>
      <trkpt lat="42.0574870" lon="-6.5459250">
        <ele>1012.5</ele>
        <time>2019-08-16T10:22:15Z</time>
      </trkpt>
      <trkpt lat="42.0574970" lon="-6.5459810">
        <ele>1012.3</ele>
        <time>2019-08-16T10:22:16Z</time>
      </trkpt>
      <trkpt lat="42.0575100" lon="-6.5460360">
        <ele>1012.2</ele>
        <time>2019-08-16T10:22:17Z</time>
      </trkpt>
      <trkpt lat="42.0575210" lon="-6.5460920">
        <ele>1012.1</ele>
        <time>2019-08-16T10:22:18Z</time>
      </trkpt>
      <trkpt lat="42.0575310" lon="-6.5461470">
        <ele>1011.9</ele>
        <time>2019-08-16T10:22:19Z</time>
      </trkpt>
      <trkpt lat="42.0575410" lon="-6.5462010">
        <ele>1011.8</ele>
        <time>2019-08-16T10:22:20Z</time>
      </trkpt>
      <trkpt lat="42.0575550" lon="-6.5462530">
        <ele>1011.7</ele>
        <time>2019-08-16T10:22:21Z</time>
      </trkpt>
      <trkpt lat="42.0575690" lon="-6.5463090">
        <ele>1011.6</ele>
        <time>2019-08-16T10:22:22Z</time>
      </trkpt>
      <trkpt lat="42.0575830" lon="-6.5463650">
        <ele>1011.5</ele>
        <time>2019-08-16T10:22:23Z</time>
      </trkpt>
      <trkpt lat="42.0575970" lon="-6.5464150">
        <ele>1011.4</ele>
        <time>2019-08-16T10:22:24Z</time>
      </trkpt>
      <trkpt lat="42.0576070" lon="-6.5464630">
        <ele>1011.4</ele>
        <time>2019-08-16T10:22:25Z</time>
      </trkpt>
      <trkpt lat="42.0576180" lon="-6.5465140">
        <ele>1011.3</ele>
        <time>2019-08-16T10:22:26Z</time>
      </trkpt>
      <trkpt lat="42.0576280" lon="-6.5465680">
        <ele>1011.3</ele>
        <time>2019-08-16T10:22:27Z</time>
      </trkpt>
      <trkpt lat="42.0576300" lon="-6.5466290">
        <ele>1011.3</ele>
        <time>2019-08-16T10:22:28Z</time>
      </trkpt>
      <trkpt lat="42.0576340" lon="-6.5466940">
        <ele>1011.3</ele>
        <time>2019-08-16T10:22:29Z</time>
      </trkpt>
      <trkpt lat="42.0576360" lon="-6.5467530">
        <ele>1011.2</ele>
        <time>2019-08-16T10:22:30Z</time>
      </trkpt>
      <trkpt lat="42.0576300" lon="-6.5468100">
        <ele>1011.2</ele>
        <time>2019-08-16T10:22:31Z</time>
      </trkpt>
      <trkpt lat="42.0576120" lon="-6.5468660">
        <ele>1011.1</ele>
        <time>2019-08-16T10:22:32Z</time>
      </trkpt>
      <trkpt lat="42.0575910" lon="-6.5469200">
        <ele>1011.0</ele>
        <time>2019-08-16T10:22:33Z</time>
      </trkpt>
      <trkpt lat="42.0575710" lon="-6.5469740">
        <ele>1010.9</ele>
        <time>2019-08-16T10:22:34Z</time>
      </trkpt>
      <trkpt lat="42.0575550" lon="-6.5470320">
        <ele>1010.8</ele>
        <time>2019-08-16T10:22:35Z</time>
      </trkpt>
      <trkpt lat="42.0575420" lon="-6.5470970">
        <ele>1010.6</ele>
        <time>2019-08-16T10:22:36Z</time>
      </trkpt>
      <trkpt lat="42.0575320" lon="-6.5471670">
        <ele>1010.4</ele>
        <time>2019-08-16T10:22:37Z</time>
      </trkpt>
      <trkpt lat="42.0575320" lon="-6.5472370">
        <ele>1010.1</ele>
        <time>2019-08-16T10:22:38Z</time>
      </trkpt>
      <trkpt lat="42.0575430" lon="-6.5473110">
        <ele>1010.0</ele>
        <time>2019-08-16T10:22:39Z</time>
      </trkpt>
      <trkpt lat="42.0575530" lon="-6.5473840">
        <ele>1009.8</ele>
        <time>2019-08-16T10:22:40Z</time>
      </trkpt>
      <trkpt lat="42.0575610" lon="-6.5474550">
        <ele>1009.6</ele>
        <time>2019-08-16T10:22:41Z</time>
      </trkpt>
      <trkpt lat="42.0575750" lon="-6.5475210">
        <ele>1009.5</ele>
        <time>2019-08-16T10:22:42Z</time>
      </trkpt>
      <trkpt lat="42.0575940" lon="-6.5475770">
        <ele>1009.4</ele>
        <time>2019-08-16T10:22:43Z</time>
      </trkpt>
      <trkpt lat="42.0576160" lon="-6.5476270">
        <ele>1009.7</ele>
        <time>2019-08-16T10:22:44Z</time>
      </trkpt>
      <trkpt lat="42.0576390" lon="-6.5476670">
        <ele>1009.8</ele>
        <time>2019-08-16T10:22:45Z</time>
      </trkpt>
      <trkpt lat="42.0576610" lon="-6.5477000">
        <ele>1009.9</ele>
        <time>2019-08-16T10:22:46Z</time>
      </trkpt>
      <trkpt lat="42.0576820" lon="-6.5477360">
        <ele>1010.0</ele>
        <time>2019-08-16T10:22:47Z</time>
      </trkpt>
      <trkpt lat="42.0576960" lon="-6.5477820">
        <ele>1010.0</ele>
        <time>2019-08-16T10:22:48Z</time>
      </trkpt>
      <trkpt lat="42.0577070" lon="-6.5478350">
        <ele>1009.9</ele>
        <time>2019-08-16T10:22:49Z</time>
      </trkpt>
      <trkpt lat="42.0577150" lon="-6.5478930">
        <ele>1009.6</ele>
        <time>2019-08-16T10:22:50Z</time>
      </trkpt>
      <trkpt lat="42.0577200" lon="-6.5479540">
        <ele>1009.3</ele>
        <time>2019-08-16T10:22:51Z</time>
      </trkpt>
      <trkpt lat="42.0577240" lon="-6.5480180">
        <ele>1009.0</ele>
        <time>2019-08-16T10:22:52Z</time>
      </trkpt>
      <trkpt lat="42.0577260" lon="-6.5480830">
        <ele>1008.8</ele>
        <time>2019-08-16T10:22:53Z</time>
      </trkpt>
      <trkpt lat="42.0577280" lon="-6.5481490">
        <ele>1008.6</ele>
        <time>2019-08-16T10:22:54Z</time>
      </trkpt>
      <trkpt lat="42.0577310" lon="-6.5482120">
        <ele>1008.4</ele>
        <time>2019-08-16T10:22:55Z</time>
      </trkpt>
      <trkpt lat="42.0577350" lon="-6.5482730">
        <ele>1008.3</ele>
        <time>2019-08-16T10:22:56Z</time>
      </trkpt>
      <trkpt lat="42.0577380" lon="-6.5483340">
        <ele>1008.2</ele>
        <time>2019-08-16T10:22:57Z</time>
      </trkpt>
      <trkpt lat="42.0577390" lon="-6.5483950">
        <ele>1008.0</ele>
        <time>2019-08-16T10:22:58Z</time>
      </trkpt>
      <trkpt lat="42.0577400" lon="-6.5484560">
        <ele>1008.1</ele>
        <time>2019-08-16T10:22:59Z</time>
      </trkpt>
      <trkpt lat="42.0577410" lon="-6.5485190">
        <ele>1008.1</ele>
        <time>2019-08-16T10:23:00Z</time>
      </trkpt>
      <trkpt lat="42.0577410" lon="-6.5485840">
        <ele>1008.1</ele>
        <time>2019-08-16T10:23:01Z</time>
      </trkpt>
      <trkpt lat="42.0577400" lon="-6.5486490">
        <ele>1008.1</ele>
        <time>2019-08-16T10:23:02Z</time>
      </trkpt>
      <trkpt lat="42.0577380" lon="-6.5487150">
        <ele>1008.2</ele>
        <time>2019-08-16T10:23:03Z</time>
      </trkpt>
      <trkpt lat="42.0577360" lon="-6.5487820">
        <ele>1008.2</ele>
        <time>2019-08-16T10:23:04Z</time>
      </trkpt>
      <trkpt lat="42.0577320" lon="-6.5488450">
        <ele>1008.2</ele>
        <time>2019-08-16T10:23:05Z</time>
      </trkpt>
      <trkpt lat="42.0577260" lon="-6.5488940">
        <ele>1008.2</ele>
        <time>2019-08-16T10:23:06Z</time>
      </trkpt>
      <trkpt lat="42.0576950" lon="-6.5489480">
        <ele>1008.3</ele>
        <time>2019-08-16T10:23:08Z</time>
      </trkpt>
      <trkpt lat="42.0576580" lon="-6.5489890">
        <ele>1007.9</ele>
        <time>2019-08-16T10:23:10Z</time>
      </trkpt>
      <trkpt lat="42.0576360" lon="-6.5490230">
        <ele>1007.6</ele>
        <time>2019-08-16T10:23:11Z</time>
      </trkpt>
      <trkpt lat="42.0576110" lon="-6.5490640">
        <ele>1007.3</ele>
        <time>2019-08-16T10:23:12Z</time>
      </trkpt>
      <trkpt lat="42.0575840" lon="-6.5491130">
        <ele>1007.0</ele>
        <time>2019-08-16T10:23:13Z</time>
      </trkpt>
      <trkpt lat="42.0575560" lon="-6.5491680">
        <ele>1006.6</ele>
        <time>2019-08-16T10:23:14Z</time>
      </trkpt>
      <trkpt lat="42.0575260" lon="-6.5492240">
        <ele>1006.3</ele>
        <time>2019-08-16T10:23:15Z</time>
      </trkpt>
      <trkpt lat="42.0574890" lon="-6.5492780">
        <ele>1005.8</ele>
        <time>2019-08-16T10:23:16Z</time>
      </trkpt>
      <trkpt lat="42.0574460" lon="-6.5493290">
        <ele>1005.4</ele>
        <time>2019-08-16T10:23:17Z</time>
      </trkpt>
      <trkpt lat="42.0574020" lon="-6.5493800">
        <ele>1004.9</ele>
        <time>2019-08-16T10:23:18Z</time>
      </trkpt>
      <trkpt lat="42.0573570" lon="-6.5494310">
        <ele>1004.5</ele>
        <time>2019-08-16T10:23:19Z</time>
      </trkpt>
      <trkpt lat="42.0573100" lon="-6.5494810">
        <ele>1004.1</ele>
        <time>2019-08-16T10:23:20Z</time>
      </trkpt>
      <trkpt lat="42.0572640" lon="-6.5495310">
        <ele>1003.8</ele>
        <time>2019-08-16T10:23:21Z</time>
      </trkpt>
      <trkpt lat="42.0572230" lon="-6.5495810">
        <ele>1003.5</ele>
        <time>2019-08-16T10:23:22Z</time>
      </trkpt>
      <trkpt lat="42.0571870" lon="-6.5496280">
        <ele>1003.3</ele>
        <time>2019-08-16T10:23:23Z</time>
      </trkpt>
      <trkpt lat="42.0571540" lon="-6.5496780">
        <ele>1003.0</ele>
        <time>2019-08-16T10:23:24Z</time>
      </trkpt>
      <trkpt lat="42.0571220" lon="-6.5497250">
        <ele>1002.7</ele>
        <time>2019-08-16T10:23:25Z</time>
      </trkpt>
      <trkpt lat="42.0570910" lon="-6.5497730">
        <ele>1002.3</ele>
        <time>2019-08-16T10:23:26Z</time>
      </trkpt>
      <trkpt lat="42.0570650" lon="-6.5498160">
        <ele>1001.8</ele>
        <time>2019-08-16T10:23:27Z</time>
      </trkpt>
      <trkpt lat="42.0570390" lon="-6.5498510">
        <ele>1001.4</ele>
        <time>2019-08-16T10:23:28Z</time>
      </trkpt>
      <trkpt lat="42.0570130" lon="-6.5498850">
        <ele>1001.0</ele>
        <time>2019-08-16T10:23:29Z</time>
      </trkpt>
      <trkpt lat="42.0569840" lon="-6.5499180">
        <ele>1000.4</ele>
        <time>2019-08-16T10:23:30Z</time>
      </trkpt>
      <trkpt lat="42.0569570" lon="-6.5499570">
        <ele>1000.0</ele>
        <time>2019-08-16T10:23:31Z</time>
      </trkpt>
      <trkpt lat="42.0569300" lon="-6.5500000">
        <ele>999.5</ele>
        <time>2019-08-16T10:23:32Z</time>
      </trkpt>
      <trkpt lat="42.0569080" lon="-6.5500480">
        <ele>999.0</ele>
        <time>2019-08-16T10:23:33Z</time>
      </trkpt>
      <trkpt lat="42.0568860" lon="-6.5501000">
        <ele>998.5</ele>
        <time>2019-08-16T10:23:34Z</time>
      </trkpt>
      <trkpt lat="42.0568660" lon="-6.5501610">
        <ele>998.0</ele>
        <time>2019-08-16T10:23:35Z</time>
      </trkpt>
      <trkpt lat="42.0568500" lon="-6.5502310">
        <ele>997.6</ele>
        <time>2019-08-16T10:23:36Z</time>
      </trkpt>
      <trkpt lat="42.0568350" lon="-6.5503040">
        <ele>997.1</ele>
        <time>2019-08-16T10:23:37Z</time>
      </trkpt>
      <trkpt lat="42.0568200" lon="-6.5503750">
        <ele>996.4</ele>
        <time>2019-08-16T10:23:38Z</time>
      </trkpt>
      <trkpt lat="42.0568060" lon="-6.5504440">
        <ele>995.7</ele>
        <time>2019-08-16T10:23:39Z</time>
      </trkpt>
      <trkpt lat="42.0567980" lon="-6.5505130">
        <ele>995.2</ele>
        <time>2019-08-16T10:23:40Z</time>
      </trkpt>
      <trkpt lat="42.0567890" lon="-6.5505800">
        <ele>994.6</ele>
        <time>2019-08-16T10:23:41Z</time>
      </trkpt>
      <trkpt lat="42.0567830" lon="-6.5506470">
        <ele>994.2</ele>
        <time>2019-08-16T10:23:42Z</time>
      </trkpt>
      <trkpt lat="42.0567790" lon="-6.5507110">
        <ele>993.7</ele>
        <time>2019-08-16T10:23:43Z</time>
      </trkpt>
      <trkpt lat="42.0567780" lon="-6.5507720">
        <ele>993.2</ele>
        <time>2019-08-16T10:23:44Z</time>
      </trkpt>
      <trkpt lat="42.0567740" lon="-6.5508410">
        <ele>992.8</ele>
        <time>2019-08-16T10:23:45Z</time>
      </trkpt>
      <trkpt lat="42.0567710" lon="-6.5509170">
        <ele>992.4</ele>
        <time>2019-08-16T10:23:46Z</time>
      </trkpt>
      <trkpt lat="42.0567620" lon="-6.5509980">
        <ele>992.0</ele>
        <time>2019-08-16T10:23:47Z</time>
      </trkpt>
      <trkpt lat="42.0567410" lon="-6.5510790">
        <ele>991.6</ele>
        <time>2019-08-16T10:23:48Z</time>
      </trkpt>
      <trkpt lat="42.0567140" lon="-6.5511630">
        <ele>991.3</ele>
        <time>2019-08-16T10:23:49Z</time>
      </trkpt>
      <trkpt lat="42.0566890" lon="-6.5512480">
        <ele>991.0</ele>
        <time>2019-08-16T10:23:50Z</time>
      </trkpt>
      <trkpt lat="42.0566710" lon="-6.5513290">
        <ele>990.8</ele>
        <time>2019-08-16T10:23:51Z</time>
      </trkpt>
      <trkpt lat="42.0566540" lon="-6.5514070">
        <ele>990.6</ele>
        <time>2019-08-16T10:23:52Z</time>
      </trkpt>
      <trkpt lat="42.0566360" lon="-6.5514830">
        <ele>990.4</ele>
        <time>2019-08-16T10:23:53Z</time>
      </trkpt>
      <trkpt lat="42.0566210" lon="-6.5515530">
        <ele>990.2</ele>
        <time>2019-08-16T10:23:54Z</time>
      </trkpt>
      <trkpt lat="42.0566050" lon="-6.5516230">
        <ele>990.1</ele>
        <time>2019-08-16T10:23:55Z</time>
      </trkpt>
      <trkpt lat="42.0565850" lon="-6.5516950">
        <ele>989.9</ele>
        <time>2019-08-16T10:23:56Z</time>
      </trkpt>
      <trkpt lat="42.0565640" lon="-6.5517650">
        <ele>989.8</ele>
        <time>2019-08-16T10:23:57Z</time>
      </trkpt>
      <trkpt lat="42.0565440" lon="-6.5518410">
        <ele>989.6</ele>
        <time>2019-08-16T10:23:58Z</time>
      </trkpt>
      <trkpt lat="42.0565230" lon="-6.5519090">
        <ele>989.5</ele>
        <time>2019-08-16T10:23:59Z</time>
      </trkpt>
      <trkpt lat="42.0565060" lon="-6.5519820">
        <ele>989.4</ele>
        <time>2019-08-16T10:24:00Z</time>
      </trkpt>
      <trkpt lat="42.0564790" lon="-6.5520570">
        <ele>989.3</ele>
        <time>2019-08-16T10:24:01Z</time>
      </trkpt>
      <trkpt lat="42.0564480" lon="-6.5521210">
        <ele>989.1</ele>
        <time>2019-08-16T10:24:02Z</time>
      </trkpt>
      <trkpt lat="42.0564200" lon="-6.5521770">
        <ele>989.0</ele>
        <time>2019-08-16T10:24:03Z</time>
      </trkpt>
      <trkpt lat="42.0563960" lon="-6.5522350">
        <ele>988.8</ele>
        <time>2019-08-16T10:24:04Z</time>
      </trkpt>
      <trkpt lat="42.0563750" lon="-6.5522930">
        <ele>988.7</ele>
        <time>2019-08-16T10:24:05Z</time>
      </trkpt>
      <trkpt lat="42.0563530" lon="-6.5523470">
        <ele>988.6</ele>
        <time>2019-08-16T10:24:06Z</time>
      </trkpt>
      <trkpt lat="42.0563240" lon="-6.5523970">
        <ele>988.5</ele>
        <time>2019-08-16T10:24:07Z</time>
      </trkpt>
      <trkpt lat="42.0563000" lon="-6.5524470">
        <ele>988.3</ele>
        <time>2019-08-16T10:24:08Z</time>
      </trkpt>
      <trkpt lat="42.0562720" lon="-6.5525040">
        <ele>988.2</ele>
        <time>2019-08-16T10:24:09Z</time>
      </trkpt>
      <trkpt lat="42.0562390" lon="-6.5525670">
        <ele>988.0</ele>
        <time>2019-08-16T10:24:10Z</time>
      </trkpt>
      <trkpt lat="42.0562050" lon="-6.5526250">
        <ele>987.9</ele>
        <time>2019-08-16T10:24:11Z</time>
      </trkpt>
      <trkpt lat="42.0561760" lon="-6.5526840">
        <ele>987.7</ele>
        <time>2019-08-16T10:24:12Z</time>
      </trkpt>
      <trkpt lat="42.0561510" lon="-6.5527350">
        <ele>987.6</ele>
        <time>2019-08-16T10:24:13Z</time>
      </trkpt>
      <trkpt lat="42.0561270" lon="-6.5527910">
        <ele>987.4</ele>
        <time>2019-08-16T10:24:14Z</time>
      </trkpt>
      <trkpt lat="42.0561160" lon="-6.5528540">
        <ele>987.1</ele>
        <time>2019-08-16T10:24:15Z</time>
      </trkpt>
      <trkpt lat="42.0561030" lon="-6.5529180">
        <ele>986.9</ele>
        <time>2019-08-16T10:24:16Z</time>
      </trkpt>
      <trkpt lat="42.0560930" lon="-6.5529900">
        <ele>986.7</ele>
        <time>2019-08-16T10:24:17Z</time>
      </trkpt>
      <trkpt lat="42.0560870" lon="-6.5530630">
        <ele>986.5</ele>
        <time>2019-08-16T10:24:18Z</time>
      </trkpt>
      <trkpt lat="42.0560880" lon="-6.5531360">
        <ele>986.1</ele>
        <time>2019-08-16T10:24:19Z</time>
      </trkpt>
      <trkpt lat="42.0560920" lon="-6.5532080">
        <ele>985.8</ele>
        <time>2019-08-16T10:24:20Z</time>
      </trkpt>
      <trkpt lat="42.0561030" lon="-6.5532820">
        <ele>985.4</ele>
        <time>2019-08-16T10:24:21Z</time>
      </trkpt>
      <trkpt lat="42.0561180" lon="-6.5533540">
        <ele>985.1</ele>
        <time>2019-08-16T10:24:22Z</time>
      </trkpt>
      <trkpt lat="42.0561310" lon="-6.5534150">
        <ele>984.8</ele>
        <time>2019-08-16T10:24:23Z</time>
      </trkpt>
      <trkpt lat="42.0561490" lon="-6.5534690">
        <ele>984.6</ele>
        <time>2019-08-16T10:24:24Z</time>
      </trkpt>
      <trkpt lat="42.0561800" lon="-6.5535130">
        <ele>984.4</ele>
        <time>2019-08-16T10:24:25Z</time>
      </trkpt>
      <trkpt lat="42.0562190" lon="-6.5535520">
        <ele>984.2</ele>
        <time>2019-08-16T10:24:26Z</time>
      </trkpt>
      <trkpt lat="42.0562620" lon="-6.5536010">
        <ele>983.9</ele>
        <time>2019-08-16T10:24:27Z</time>
      </trkpt>
      <trkpt lat="42.0563020" lon="-6.5536530">
        <ele>983.6</ele>
        <time>2019-08-16T10:24:28Z</time>
      </trkpt>
      <trkpt lat="42.0563390" lon="-6.5537080">
        <ele>983.5</ele>
        <time>2019-08-16T10:24:29Z</time>
      </trkpt>
      <trkpt lat="42.0563770" lon="-6.5537670">
        <ele>983.3</ele>
        <time>2019-08-16T10:24:30Z</time>
      </trkpt>
      <trkpt lat="42.0564120" lon="-6.5538300">
        <ele>983.1</ele>
        <time>2019-08-16T10:24:31Z</time>
      </trkpt>
      <trkpt lat="42.0564430" lon="-6.5538960">
        <ele>982.9</ele>
        <time>2019-08-16T10:24:32Z</time>
      </trkpt>
      <trkpt lat="42.0564680" lon="-6.5539640">
        <ele>982.8</ele>
        <time>2019-08-16T10:24:33Z</time>
      </trkpt>
      <trkpt lat="42.0564940" lon="-6.5540220">
        <ele>982.6</ele>
        <time>2019-08-16T10:24:34Z</time>
      </trkpt>
      <trkpt lat="42.0565170" lon="-6.5540670">
        <ele>982.6</ele>
        <time>2019-08-16T10:24:35Z</time>
      </trkpt>
      <trkpt lat="42.0565340" lon="-6.5541110">
        <ele>982.5</ele>
        <time>2019-08-16T10:24:36Z</time>
      </trkpt>
      <trkpt lat="42.0565440" lon="-6.5541550">
        <ele>982.5</ele>
        <time>2019-08-16T10:24:37Z</time>
      </trkpt>
      <trkpt lat="42.0565450" lon="-6.5541990">
        <ele>982.5</ele>
        <time>2019-08-16T10:24:38Z</time>
      </trkpt>
      <trkpt lat="42.0565360" lon="-6.5542470">
        <ele>982.5</ele>
        <time>2019-08-16T10:24:39Z</time>
      </trkpt>
      <trkpt lat="42.0565290" lon="-6.5542960">
        <ele>982.5</ele>
        <time>2019-08-16T10:24:40Z</time>
      </trkpt>
      <trkpt lat="42.0565100" lon="-6.5543340">
        <ele>982.6</ele>
        <time>2019-08-16T10:24:41Z</time>
      </trkpt>
      <trkpt lat="42.0564820" lon="-6.5543870">
        <ele>982.7</ele>
        <time>2019-08-16T10:24:43Z</time>
      </trkpt>
      <trkpt lat="42.0564730" lon="-6.5544390">
        <ele>982.8</ele>
        <time>2019-08-16T10:24:45Z</time>
      </trkpt>
      <trkpt lat="42.0564770" lon="-6.5544970">
        <ele>982.9</ele>
        <time>2019-08-16T10:24:47Z</time>
      </trkpt>
      <trkpt lat="42.0565040" lon="-6.5545500">
        <ele>983.1</ele>
        <time>2019-08-16T10:24:49Z</time>
      </trkpt>
      <trkpt lat="42.0565240" lon="-6.5545850">
        <ele>983.2</ele>
        <time>2019-08-16T10:24:50Z</time>
      </trkpt>
      <trkpt lat="42.0565410" lon="-6.5546290">
        <ele>983.3</ele>
        <time>2019-08-16T10:24:51Z</time>
      </trkpt>
      <trkpt lat="42.0565470" lon="-6.5546810">
        <ele>983.4</ele>
        <time>2019-08-16T10:24:52Z</time>
      </trkpt>
      <trkpt lat="42.0565420" lon="-6.5547340">
        <ele>983.4</ele>
        <time>2019-08-16T10:24:53Z</time>
      </trkpt>
      <trkpt lat="42.0565330" lon="-6.5547840">
        <ele>983.5</ele>
        <time>2019-08-16T10:24:54Z</time>
      </trkpt>
      <trkpt lat="42.0565250" lon="-6.5548320">
        <ele>983.6</ele>
        <time>2019-08-16T10:24:55Z</time>
      </trkpt>
      <trkpt lat="42.0565150" lon="-6.5548750">
        <ele>983.6</ele>
        <time>2019-08-16T10:24:56Z</time>
      </trkpt>
      <trkpt lat="42.0565070" lon="-6.5549160">
        <ele>983.7</ele>
        <time>2019-08-16T10:24:57Z</time>
      </trkpt>
      <trkpt lat="42.0565020" lon="-6.5549570">
        <ele>983.7</ele>
        <time>2019-08-16T10:24:58Z</time>
      </trkpt>
      <trkpt lat="42.0564950" lon="-6.5550010">
        <ele>983.8</ele>
        <time>2019-08-16T10:24:59Z</time>
      </trkpt>
      <trkpt lat="42.0564890" lon="-6.5550470">
        <ele>983.8</ele>
        <time>2019-08-16T10:25:00Z</time>
      </trkpt>
      <trkpt lat="42.0564810" lon="-6.5550930">
        <ele>983.9</ele>
        <time>2019-08-16T10:25:01Z</time>
      </trkpt>
      <trkpt lat="42.0564690" lon="-6.5551340">
        <ele>984.0</ele>
        <time>2019-08-16T10:25:02Z</time>
      </trkpt>
      <trkpt lat="42.0564530" lon="-6.5551710">
        <ele>984.1</ele>
        <time>2019-08-16T10:25:03Z</time>
      </trkpt>
      <trkpt lat="42.0564330" lon="-6.5552050">
        <ele>984.2</ele>
        <time>2019-08-16T10:25:04Z</time>
      </trkpt>
      <trkpt lat="42.0564130" lon="-6.5552310">
        <ele>984.3</ele>
        <time>2019-08-16T10:25:05Z</time>
      </trkpt>
      <trkpt lat="42.0563770" lon="-6.5552740">
        <ele>984.5</ele>
        <time>2019-08-16T10:25:07Z</time>
      </trkpt>
      <trkpt lat="42.0563550" lon="-6.5553000">
        <ele>984.7</ele>
        <time>2019-08-16T10:25:08Z</time>
      </trkpt>
      <trkpt lat="42.0563320" lon="-6.5553300">
        <ele>984.9</ele>
        <time>2019-08-16T10:25:09Z</time>
      </trkpt>
      <trkpt lat="42.0563110" lon="-6.5553620">
        <ele>985.0</ele>
        <time>2019-08-16T10:25:10Z</time>
      </trkpt>
      <trkpt lat="42.0562930" lon="-6.5553920">
        <ele>985.2</ele>
        <time>2019-08-16T10:25:11Z</time>
      </trkpt>
      <trkpt lat="42.0562760" lon="-6.5554220">
        <ele>985.3</ele>
        <time>2019-08-16T10:25:12Z</time>
      </trkpt>
      <trkpt lat="42.0562430" lon="-6.5554830">
        <ele>985.7</ele>
        <time>2019-08-16T10:25:14Z</time>
      </trkpt>
      <trkpt lat="42.0562260" lon="-6.5555160">
        <ele>985.8</ele>
        <time>2019-08-16T10:25:15Z</time>
      </trkpt>
      <trkpt lat="42.0562090" lon="-6.5555500">
        <ele>986.0</ele>
        <time>2019-08-16T10:25:16Z</time>
      </trkpt>
      <trkpt lat="42.0561950" lon="-6.5555840">
        <ele>986.1</ele>
        <time>2019-08-16T10:25:17Z</time>
      </trkpt>
      <trkpt lat="42.0561810" lon="-6.5556190">
        <ele>986.3</ele>
        <time>2019-08-16T10:25:18Z</time>
      </trkpt>
      <trkpt lat="42.0561690" lon="-6.5556540">
        <ele>986.5</ele>
        <time>2019-08-16T10:25:19Z</time>
      </trkpt>
      <trkpt lat="42.0561560" lon="-6.5556880">
        <ele>986.7</ele>
        <time>2019-08-16T10:25:20Z</time>
      </trkpt>
      <trkpt lat="42.0561460" lon="-6.5557230">
        <ele>986.8</ele>
        <time>2019-08-16T10:25:21Z</time>
      </trkpt>
      <trkpt lat="42.0561350" lon="-6.5557600">
        <ele>987.0</ele>
        <time>2019-08-16T10:25:22Z</time>
      </trkpt>
      <trkpt lat="42.0561250" lon="-6.5557980">
        <ele>987.2</ele>
        <time>2019-08-16T10:25:23Z</time>
      </trkpt>
      <trkpt lat="42.0561160" lon="-6.5558380">
        <ele>987.3</ele>
        <time>2019-08-16T10:25:24Z</time>
      </trkpt>
      <trkpt lat="42.0561090" lon="-6.5558800">
        <ele>987.4</ele>
        <time>2019-08-16T10:25:25Z</time>
      </trkpt>
      <trkpt lat="42.0561000" lon="-6.5559200">
        <ele>987.5</ele>
        <time>2019-08-16T10:25:26Z</time>
      </trkpt>
      <trkpt lat="42.0560860" lon="-6.5559610">
        <ele>987.7</ele>
        <time>2019-08-16T10:25:27Z</time>
      </trkpt>
      <trkpt lat="42.0560690" lon="-6.5560020">
        <ele>987.8</ele>
        <time>2019-08-16T10:25:28Z</time>
      </trkpt>
      <trkpt lat="42.0560520" lon="-6.5560440">
        <ele>987.9</ele>
        <time>2019-08-16T10:25:29Z</time>
      </trkpt>
      <trkpt lat="42.0560360" lon="-6.5560850">
        <ele>988.0</ele>
        <time>2019-08-16T10:25:30Z</time>
      </trkpt>
      <trkpt lat="42.0560190" lon="-6.5561260">
        <ele>988.1</ele>
        <time>2019-08-16T10:25:31Z</time>
      </trkpt>
      <trkpt lat="42.0560030" lon="-6.5561700">
        <ele>988.3</ele>
        <time>2019-08-16T10:25:32Z</time>
      </trkpt>
      <trkpt lat="42.0559900" lon="-6.5562160">
        <ele>988.4</ele>
        <time>2019-08-16T10:25:33Z</time>
      </trkpt>
      <trkpt lat="42.0559810" lon="-6.5562600">
        <ele>988.5</ele>
        <time>2019-08-16T10:25:34Z</time>
      </trkpt>
      <trkpt lat="42.0559740" lon="-6.5563050">
        <ele>988.5</ele>
        <time>2019-08-16T10:25:35Z</time>
      </trkpt>
      <trkpt lat="42.0559660" lon="-6.5563450">
        <ele>988.6</ele>
        <time>2019-08-16T10:25:36Z</time>
      </trkpt>
      <trkpt lat="42.0559590" lon="-6.5563850">
        <ele>988.6</ele>
        <time>2019-08-16T10:25:37Z</time>
      </trkpt>
      <trkpt lat="42.0559530" lon="-6.5564290">
        <ele>988.6</ele>
        <time>2019-08-16T10:25:38Z</time>
      </trkpt>
      <trkpt lat="42.0559450" lon="-6.5564720">
        <ele>988.6</ele>
        <time>2019-08-16T10:25:39Z</time>
      </trkpt>
      <trkpt lat="42.0559350" lon="-6.5565190">
        <ele>988.7</ele>
        <time>2019-08-16T10:25:40Z</time>
      </trkpt>
      <trkpt lat="42.0559260" lon="-6.5565710">
        <ele>988.7</ele>
        <time>2019-08-16T10:25:41Z</time>
      </trkpt>
      <trkpt lat="42.0559200" lon="-6.5566190">
        <ele>988.7</ele>
        <time>2019-08-16T10:25:42Z</time>
      </trkpt>
      <trkpt lat="42.0559150" lon="-6.5566610">
        <ele>988.7</ele>
        <time>2019-08-16T10:25:43Z</time>
      </trkpt>
      <trkpt lat="42.0559100" lon="-6.5567040">
        <ele>988.7</ele>
        <time>2019-08-16T10:25:44Z</time>
      </trkpt>
      <trkpt lat="42.0558980" lon="-6.5567460">
        <ele>988.7</ele>
        <time>2019-08-16T10:25:45Z</time>
      </trkpt>
      <trkpt lat="42.0558870" lon="-6.5567880">
        <ele>988.7</ele>
        <time>2019-08-16T10:25:46Z</time>
      </trkpt>
      <trkpt lat="42.0558820" lon="-6.5568280">
        <ele>988.7</ele>
        <time>2019-08-16T10:25:47Z</time>
      </trkpt>
      <trkpt lat="42.0558780" lon="-6.5568710">
        <ele>988.6</ele>
        <time>2019-08-16T10:25:48Z</time>
      </trkpt>
      <trkpt lat="42.0558760" lon="-6.5569140">
        <ele>988.6</ele>
        <time>2019-08-16T10:25:49Z</time>
      </trkpt>
      <trkpt lat="42.0558790" lon="-6.5569580">
        <ele>988.6</ele>
        <time>2019-08-16T10:25:50Z</time>
      </trkpt>
      <trkpt lat="42.0558840" lon="-6.5570050">
        <ele>988.5</ele>
        <time>2019-08-16T10:25:51Z</time>
      </trkpt>
      <trkpt lat="42.0558880" lon="-6.5570500">
        <ele>988.5</ele>
        <time>2019-08-16T10:25:52Z</time>
      </trkpt>
      <trkpt lat="42.0558920" lon="-6.5570950">
        <ele>988.4</ele>
        <time>2019-08-16T10:25:53Z</time>
      </trkpt>
      <trkpt lat="42.0558900" lon="-6.5571440">
        <ele>988.3</ele>
        <time>2019-08-16T10:25:54Z</time>
      </trkpt>
      <trkpt lat="42.0558900" lon="-6.5572010">
        <ele>988.2</ele>
        <time>2019-08-16T10:25:55Z</time>
      </trkpt>
      <trkpt lat="42.0558930" lon="-6.5572580">
        <ele>988.2</ele>
        <time>2019-08-16T10:25:56Z</time>
      </trkpt>
      <trkpt lat="42.0559000" lon="-6.5573170">
        <ele>988.1</ele>
        <time>2019-08-16T10:25:57Z</time>
      </trkpt>
      <trkpt lat="42.0559080" lon="-6.5573810">
        <ele>988.0</ele>
        <time>2019-08-16T10:25:58Z</time>
      </trkpt>
      <trkpt lat="42.0559200" lon="-6.5574460">
        <ele>987.9</ele>
        <time>2019-08-16T10:25:59Z</time>
      </trkpt>
      <trkpt lat="42.0559290" lon="-6.5575110">
        <ele>987.8</ele>
        <time>2019-08-16T10:26:00Z</time>
      </trkpt>
      <trkpt lat="42.0559380" lon="-6.5575760">
        <ele>987.8</ele>
        <time>2019-08-16T10:26:01Z</time>
      </trkpt>
      <trkpt lat="42.0559480" lon="-6.5576370">
        <ele>987.8</ele>
        <time>2019-08-16T10:26:02Z</time>
      </trkpt>
      <trkpt lat="42.0559600" lon="-6.5576990">
        <ele>987.8</ele>
        <time>2019-08-16T10:26:03Z</time>
      </trkpt>
      <trkpt lat="42.0559650" lon="-6.5577610">
        <ele>987.8</ele>
        <time>2019-08-16T10:26:04Z</time>
      </trkpt>
      <trkpt lat="42.0559740" lon="-6.5578220">
        <ele>987.8</ele>
        <time>2019-08-16T10:26:05Z</time>
      </trkpt>
      <trkpt lat="42.0559800" lon="-6.5578790">
        <ele>987.8</ele>
        <time>2019-08-16T10:26:06Z</time>
      </trkpt>
      <trkpt lat="42.0559870" lon="-6.5579350">
        <ele>987.8</ele>
        <time>2019-08-16T10:26:07Z</time>
      </trkpt>
      <trkpt lat="42.0559910" lon="-6.5579890">
        <ele>987.8</ele>
        <time>2019-08-16T10:26:08Z</time>
      </trkpt>
      <trkpt lat="42.0559950" lon="-6.5580380">
        <ele>987.8</ele>
        <time>2019-08-16T10:26:09Z</time>
      </trkpt>
      <trkpt lat="42.0560020" lon="-6.5580870">
        <ele>987.8</ele>
        <time>2019-08-16T10:26:10Z</time>
      </trkpt>
      <trkpt lat="42.0560080" lon="-6.5581360">
        <ele>987.8</ele>
        <time>2019-08-16T10:26:11Z</time>
      </trkpt>
      <trkpt lat="42.0560110" lon="-6.5581830">
        <ele>987.8</ele>
        <time>2019-08-16T10:26:12Z</time>
      </trkpt>
      <trkpt lat="42.0560140" lon="-6.5582290">
        <ele>987.8</ele>
        <time>2019-08-16T10:26:13Z</time>
      </trkpt>
      <trkpt lat="42.0560150" lon="-6.5582710">
        <ele>987.8</ele>
        <time>2019-08-16T10:26:14Z</time>
      </trkpt>
      <trkpt lat="42.0560140" lon="-6.5583110">
        <ele>987.8</ele>
        <time>2019-08-16T10:26:15Z</time>
      </trkpt>
      <trkpt lat="42.0560100" lon="-6.5583540">
        <ele>987.8</ele>
        <time>2019-08-16T10:26:16Z</time>
      </trkpt>
      <trkpt lat="42.0560090" lon="-6.5584060">
        <ele>987.8</ele>
        <time>2019-08-16T10:26:17Z</time>
      </trkpt>
      <trkpt lat="42.0560090" lon="-6.5584560">
        <ele>987.8</ele>
        <time>2019-08-16T10:26:18Z</time>
      </trkpt>
      <trkpt lat="42.0560100" lon="-6.5585120">
        <ele>987.8</ele>
        <time>2019-08-16T10:26:19Z</time>
      </trkpt>
      <trkpt lat="42.0560090" lon="-6.5585690">
        <ele>987.8</ele>
        <time>2019-08-16T10:26:20Z</time>
      </trkpt>
      <trkpt lat="42.0560050" lon="-6.5586190">
        <ele>987.8</ele>
        <time>2019-08-16T10:26:21Z</time>
      </trkpt>
      <trkpt lat="42.0559990" lon="-6.5586620">
        <ele>987.7</ele>
        <time>2019-08-16T10:26:22Z</time>
      </trkpt>
      <trkpt lat="42.0559970" lon="-6.5587040">
        <ele>987.7</ele>
        <time>2019-08-16T10:26:23Z</time>
      </trkpt>
      <trkpt lat="42.0559950" lon="-6.5587500">
        <ele>987.7</ele>
        <time>2019-08-16T10:26:24Z</time>
      </trkpt>
      <trkpt lat="42.0559890" lon="-6.5588000">
        <ele>987.7</ele>
        <time>2019-08-16T10:26:25Z</time>
      </trkpt>
      <trkpt lat="42.0559810" lon="-6.5588530">
        <ele>987.6</ele>
        <time>2019-08-16T10:26:26Z</time>
      </trkpt>
      <trkpt lat="42.0559760" lon="-6.5589070">
        <ele>987.5</ele>
        <time>2019-08-16T10:26:27Z</time>
      </trkpt>
      <trkpt lat="42.0559760" lon="-6.5589660">
        <ele>987.4</ele>
        <time>2019-08-16T10:26:28Z</time>
      </trkpt>
      <trkpt lat="42.0559660" lon="-6.5590290">
        <ele>987.3</ele>
        <time>2019-08-16T10:26:29Z</time>
      </trkpt>
      <trkpt lat="42.0559560" lon="-6.5590990">
        <ele>987.2</ele>
        <time>2019-08-16T10:26:30Z</time>
      </trkpt>
      <trkpt lat="42.0559470" lon="-6.5591720">
        <ele>987.1</ele>
        <time>2019-08-16T10:26:31Z</time>
      </trkpt>
      <trkpt lat="42.0559360" lon="-6.5592460">
        <ele>987.0</ele>
        <time>2019-08-16T10:26:32Z</time>
      </trkpt>
      <trkpt lat="42.0559230" lon="-6.5593190">
        <ele>986.9</ele>
        <time>2019-08-16T10:26:33Z</time>
      </trkpt>
      <trkpt lat="42.0559100" lon="-6.5593860">
        <ele>986.9</ele>
        <time>2019-08-16T10:26:34Z</time>
      </trkpt>
      <trkpt lat="42.0558990" lon="-6.5594490">
        <ele>986.8</ele>
        <time>2019-08-16T10:26:35Z</time>
      </trkpt>
      <trkpt lat="42.0558970" lon="-6.5595100">
        <ele>986.7</ele>
        <time>2019-08-16T10:26:36Z</time>
      </trkpt>
      <trkpt lat="42.0558950" lon="-6.5595710">
        <ele>986.7</ele>
        <time>2019-08-16T10:26:37Z</time>
      </trkpt>
      <trkpt lat="42.0558930" lon="-6.5596350">
        <ele>986.6</ele>
        <time>2019-08-16T10:26:38Z</time>
      </trkpt>
      <trkpt lat="42.0558870" lon="-6.5596960">
        <ele>986.4</ele>
        <time>2019-08-16T10:26:39Z</time>
      </trkpt>
      <trkpt lat="42.0558770" lon="-6.5597570">
        <ele>986.3</ele>
        <time>2019-08-16T10:26:40Z</time>
      </trkpt>
      <trkpt lat="42.0558630" lon="-6.5598190">
        <ele>986.2</ele>
        <time>2019-08-16T10:26:41Z</time>
      </trkpt>
      <trkpt lat="42.0558470" lon="-6.5598830">
        <ele>986.0</ele>
        <time>2019-08-16T10:26:42Z</time>
      </trkpt>
      <trkpt lat="42.0558300" lon="-6.5599470">
        <ele>985.9</ele>
        <time>2019-08-16T10:26:43Z</time>
      </trkpt>
      <trkpt lat="42.0558120" lon="-6.5600090">
        <ele>985.7</ele>
        <time>2019-08-16T10:26:44Z</time>
      </trkpt>
      <trkpt lat="42.0557900" lon="-6.5600690">
        <ele>985.5</ele>
        <time>2019-08-16T10:26:45Z</time>
      </trkpt>
      <trkpt lat="42.0557670" lon="-6.5601220">
        <ele>985.3</ele>
        <time>2019-08-16T10:26:46Z</time>
      </trkpt>
      <trkpt lat="42.0557450" lon="-6.5601690">
        <ele>985.2</ele>
        <time>2019-08-16T10:26:47Z</time>
      </trkpt>
      <trkpt lat="42.0557240" lon="-6.5602090">
        <ele>985.1</ele>
        <time>2019-08-16T10:26:48Z</time>
      </trkpt>
      <trkpt lat="42.0557040" lon="-6.5602490">
        <ele>985.1</ele>
        <time>2019-08-16T10:26:49Z</time>
      </trkpt>
      <trkpt lat="42.0556830" lon="-6.5602890">
        <ele>985.1</ele>
        <time>2019-08-16T10:26:50Z</time>
      </trkpt>
      <trkpt lat="42.0556590" lon="-6.5603260">
        <ele>985.0</ele>
        <time>2019-08-16T10:26:51Z</time>
      </trkpt>
      <trkpt lat="42.0556290" lon="-6.5603640">
        <ele>985.0</ele>
        <time>2019-08-16T10:26:52Z</time>
      </trkpt>
      <trkpt lat="42.0555980" lon="-6.5604080">
        <ele>985.0</ele>
        <time>2019-08-16T10:26:53Z</time>
      </trkpt>
      <trkpt lat="42.0555750" lon="-6.5604540">
        <ele>985.1</ele>
        <time>2019-08-16T10:26:54Z</time>
      </trkpt>
      <trkpt lat="42.0555520" lon="-6.5604960">
        <ele>985.2</ele>
        <time>2019-08-16T10:26:55Z</time>
      </trkpt>
      <trkpt lat="42.0555280" lon="-6.5605410">
        <ele>985.3</ele>
        <time>2019-08-16T10:26:56Z</time>
      </trkpt>
      <trkpt lat="42.0555070" lon="-6.5605870">
        <ele>985.4</ele>
        <time>2019-08-16T10:26:57Z</time>
      </trkpt>
      <trkpt lat="42.0554860" lon="-6.5606310">
        <ele>985.6</ele>
        <time>2019-08-16T10:26:58Z</time>
      </trkpt>
      <trkpt lat="42.0554620" lon="-6.5606730">
        <ele>985.7</ele>
        <time>2019-08-16T10:26:59Z</time>
      </trkpt>
      <trkpt lat="42.0554390" lon="-6.5607120">
        <ele>985.9</ele>
        <time>2019-08-16T10:27:00Z</time>
      </trkpt>
      <trkpt lat="42.0554210" lon="-6.5607430">
        <ele>986.0</ele>
        <time>2019-08-16T10:27:01Z</time>
      </trkpt>
      <trkpt lat="42.0553920" lon="-6.5607920">
        <ele>986.2</ele>
        <time>2019-08-16T10:27:03Z</time>
      </trkpt>
      <trkpt lat="42.0553750" lon="-6.5608210">
        <ele>986.3</ele>
        <time>2019-08-16T10:27:04Z</time>
      </trkpt>
      <trkpt lat="42.0553550" lon="-6.5608510">
        <ele>986.5</ele>
        <time>2019-08-16T10:27:05Z</time>
      </trkpt>
      <trkpt lat="42.0553340" lon="-6.5608800">
        <ele>986.6</ele>
        <time>2019-08-16T10:27:06Z</time>
      </trkpt>
      <trkpt lat="42.0553160" lon="-6.5609080">
        <ele>986.8</ele>
        <time>2019-08-16T10:27:07Z</time>
      </trkpt>
      <trkpt lat="42.0552790" lon="-6.5609580">
        <ele>987.1</ele>
        <time>2019-08-16T10:27:09Z</time>
      </trkpt>
      <trkpt lat="42.0552580" lon="-6.5609820">
        <ele>987.3</ele>
        <time>2019-08-16T10:27:10Z</time>
      </trkpt>
      <trkpt lat="42.0552230" lon="-6.5610290">
        <ele>987.6</ele>
        <time>2019-08-16T10:27:12Z</time>
      </trkpt>
      <trkpt lat="42.0552100" lon="-6.5610610">
        <ele>987.8</ele>
        <time>2019-08-16T10:27:13Z</time>
      </trkpt>
      <trkpt lat="42.0551970" lon="-6.5611190">
        <ele>988.1</ele>
        <time>2019-08-16T10:27:15Z</time>
      </trkpt>
      <trkpt lat="42.0552090" lon="-6.5611650">
        <ele>988.2</ele>
        <time>2019-08-16T10:27:17Z</time>
      </trkpt>
      <trkpt lat="42.0552260" lon="-6.5612310">
        <ele>988.5</ele>
        <time>2019-08-16T10:27:19Z</time>
      </trkpt>
      <trkpt lat="42.0552380" lon="-6.5612670">
        <ele>988.7</ele>
        <time>2019-08-16T10:27:20Z</time>
      </trkpt>
      <trkpt lat="42.0552490" lon="-6.5613030">
        <ele>988.8</ele>
        <time>2019-08-16T10:27:21Z</time>
      </trkpt>
      <trkpt lat="42.0552600" lon="-6.5613400">
        <ele>989.0</ele>
        <time>2019-08-16T10:27:22Z</time>
      </trkpt>
      <trkpt lat="42.0552680" lon="-6.5613760">
        <ele>989.1</ele>
        <time>2019-08-16T10:27:23Z</time>
      </trkpt>
      <trkpt lat="42.0552770" lon="-6.5614110">
        <ele>989.2</ele>
        <time>2019-08-16T10:27:24Z</time>
      </trkpt>
      <trkpt lat="42.0552960" lon="-6.5614720">
        <ele>989.4</ele>
        <time>2019-08-16T10:27:26Z</time>
      </trkpt>
      <trkpt lat="42.0553070" lon="-6.5615060">
        <ele>989.5</ele>
        <time>2019-08-16T10:27:27Z</time>
      </trkpt>
      <trkpt lat="42.0553190" lon="-6.5615440">
        <ele>989.6</ele>
        <time>2019-08-16T10:27:28Z</time>
      </trkpt>
      <trkpt lat="42.0553310" lon="-6.5615830">
        <ele>989.7</ele>
        <time>2019-08-16T10:27:29Z</time>
      </trkpt>
      <trkpt lat="42.0553420" lon="-6.5616210">
        <ele>989.8</ele>
        <time>2019-08-16T10:27:30Z</time>
      </trkpt>
      <trkpt lat="42.0553530" lon="-6.5616610">
        <ele>989.8</ele>
        <time>2019-08-16T10:27:31Z</time>
      </trkpt>
      <trkpt lat="42.0553630" lon="-6.5616980">
        <ele>989.9</ele>
        <time>2019-08-16T10:27:32Z</time>
      </trkpt>
      <trkpt lat="42.0553730" lon="-6.5617360">
        <ele>989.9</ele>
        <time>2019-08-16T10:27:33Z</time>
      </trkpt>
      <trkpt lat="42.0553840" lon="-6.5617750">
        <ele>989.9</ele>
        <time>2019-08-16T10:27:34Z</time>
      </trkpt>
      <trkpt lat="42.0553950" lon="-6.5618150">
        <ele>989.9</ele>
        <time>2019-08-16T10:27:35Z</time>
      </trkpt>
      <trkpt lat="42.0554060" lon="-6.5618560">
        <ele>990.0</ele>
        <time>2019-08-16T10:27:36Z</time>
      </trkpt>
      <trkpt lat="42.0554170" lon="-6.5618980">
        <ele>990.0</ele>
        <time>2019-08-16T10:27:37Z</time>
      </trkpt>
      <trkpt lat="42.0554270" lon="-6.5619400">
        <ele>990.1</ele>
        <time>2019-08-16T10:27:38Z</time>
      </trkpt>
      <trkpt lat="42.0554370" lon="-6.5619800">
        <ele>990.1</ele>
        <time>2019-08-16T10:27:39Z</time>
      </trkpt>
      <trkpt lat="42.0554480" lon="-6.5620200">
        <ele>990.2</ele>
        <time>2019-08-16T10:27:40Z</time>
      </trkpt>
      <trkpt lat="42.0554590" lon="-6.5620600">
        <ele>990.3</ele>
        <time>2019-08-16T10:27:41Z</time>
      </trkpt>
      <trkpt lat="42.0554710" lon="-6.5621020">
        <ele>990.4</ele>
        <time>2019-08-16T10:27:42Z</time>
      </trkpt>
      <trkpt lat="42.0554820" lon="-6.5621440">
        <ele>990.4</ele>
        <time>2019-08-16T10:27:43Z</time>
      </trkpt>
      <trkpt lat="42.0554950" lon="-6.5621890">
        <ele>990.5</ele>
        <time>2019-08-16T10:27:44Z</time>
      </trkpt>
      <trkpt lat="42.0555130" lon="-6.5622360">
        <ele>990.6</ele>
        <time>2019-08-16T10:27:45Z</time>
      </trkpt>
      <trkpt lat="42.0555330" lon="-6.5622860">
        <ele>990.7</ele>
        <time>2019-08-16T10:27:46Z</time>
      </trkpt>
      <trkpt lat="42.0555510" lon="-6.5623370">
        <ele>990.8</ele>
        <time>2019-08-16T10:27:47Z</time>
      </trkpt>
      <trkpt lat="42.0555680" lon="-6.5623870">
        <ele>990.9</ele>
        <time>2019-08-16T10:27:48Z</time>
      </trkpt>
      <trkpt lat="42.0555830" lon="-6.5624340">
        <ele>991.0</ele>
        <time>2019-08-16T10:27:49Z</time>
      </trkpt>
      <trkpt lat="42.0555980" lon="-6.5624790">
        <ele>991.1</ele>
        <time>2019-08-16T10:27:50Z</time>
      </trkpt>
      <trkpt lat="42.0556100" lon="-6.5625170">
        <ele>991.2</ele>
        <time>2019-08-16T10:27:51Z</time>
      </trkpt>
      <trkpt lat="42.0556220" lon="-6.5625510">
        <ele>991.3</ele>
        <time>2019-08-16T10:27:52Z</time>
      </trkpt>
      <trkpt lat="42.0556340" lon="-6.5625850">
        <ele>991.5</ele>
        <time>2019-08-16T10:27:53Z</time>
      </trkpt>
      <trkpt lat="42.0556460" lon="-6.5626200">
        <ele>991.6</ele>
        <time>2019-08-16T10:27:54Z</time>
      </trkpt>
      <trkpt lat="42.0556580" lon="-6.5626540">
        <ele>991.8</ele>
        <time>2019-08-16T10:27:55Z</time>
      </trkpt>
      <trkpt lat="42.0556700" lon="-6.5626880">
        <ele>992.0</ele>
        <time>2019-08-16T10:27:56Z</time>
      </trkpt>
      <trkpt lat="42.0556920" lon="-6.5627480">
        <ele>992.5</ele>
        <time>2019-08-16T10:27:58Z</time>
      </trkpt>
      <trkpt lat="42.0557140" lon="-6.5628050">
        <ele>992.9</ele>
        <time>2019-08-16T10:28:00Z</time>
      </trkpt>
      <trkpt lat="42.0557330" lon="-6.5628640">
        <ele>993.4</ele>
        <time>2019-08-16T10:28:02Z</time>
      </trkpt>
      <trkpt lat="42.0557510" lon="-6.5629300">
        <ele>994.0</ele>
        <time>2019-08-16T10:28:04Z</time>
      </trkpt>
      <trkpt lat="42.0557580" lon="-6.5629650">
        <ele>994.3</ele>
        <time>2019-08-16T10:28:05Z</time>
      </trkpt>
      <trkpt lat="42.0557650" lon="-6.5630010">
        <ele>994.5</ele>
        <time>2019-08-16T10:28:06Z</time>
      </trkpt>
      <trkpt lat="42.0557730" lon="-6.5630370">
        <ele>994.7</ele>
        <time>2019-08-16T10:28:07Z</time>
      </trkpt>
      <trkpt lat="42.0557830" lon="-6.5630750">
        <ele>994.9</ele>
        <time>2019-08-16T10:28:08Z</time>
      </trkpt>
      <trkpt lat="42.0557940" lon="-6.5631160">
        <ele>995.1</ele>
        <time>2019-08-16T10:28:09Z</time>
      </trkpt>
      <trkpt lat="42.0558040" lon="-6.5631610">
        <ele>995.3</ele>
        <time>2019-08-16T10:28:10Z</time>
      </trkpt>
      <trkpt lat="42.0558140" lon="-6.5632060">
        <ele>995.5</ele>
        <time>2019-08-16T10:28:11Z</time>
      </trkpt>
      <trkpt lat="42.0558250" lon="-6.5632520">
        <ele>995.6</ele>
        <time>2019-08-16T10:28:12Z</time>
      </trkpt>
      <trkpt lat="42.0558350" lon="-6.5632980">
        <ele>995.7</ele>
        <time>2019-08-16T10:28:13Z</time>
      </trkpt>
      <trkpt lat="42.0558460" lon="-6.5633430">
        <ele>995.8</ele>
        <time>2019-08-16T10:28:14Z</time>
      </trkpt>
      <trkpt lat="42.0558550" lon="-6.5633860">
        <ele>995.9</ele>
        <time>2019-08-16T10:28:15Z</time>
      </trkpt>
      <trkpt lat="42.0558620" lon="-6.5634260">
        <ele>995.9</ele>
        <time>2019-08-16T10:28:16Z</time>
      </trkpt>
      <trkpt lat="42.0558700" lon="-6.5634660">
        <ele>995.9</ele>
        <time>2019-08-16T10:28:17Z</time>
      </trkpt>
      <trkpt lat="42.0558780" lon="-6.5635080">
        <ele>995.9</ele>
        <time>2019-08-16T10:28:18Z</time>
      </trkpt>
      <trkpt lat="42.0558850" lon="-6.5635530">
        <ele>996.0</ele>
        <time>2019-08-16T10:28:19Z</time>
      </trkpt>
      <trkpt lat="42.0558920" lon="-6.5636010">
        <ele>996.0</ele>
        <time>2019-08-16T10:28:20Z</time>
      </trkpt>
      <trkpt lat="42.0558960" lon="-6.5636510">
        <ele>996.0</ele>
        <time>2019-08-16T10:28:21Z</time>
      </trkpt>
      <trkpt lat="42.0559030" lon="-6.5636990">
        <ele>996.0</ele>
        <time>2019-08-16T10:28:22Z</time>
      </trkpt>
      <trkpt lat="42.0559080" lon="-6.5637460">
        <ele>996.0</ele>
        <time>2019-08-16T10:28:23Z</time>
      </trkpt>
      <trkpt lat="42.0559150" lon="-6.5637960">
        <ele>996.0</ele>
        <time>2019-08-16T10:28:24Z</time>
      </trkpt>
      <trkpt lat="42.0559250" lon="-6.5638450">
        <ele>996.0</ele>
        <time>2019-08-16T10:28:25Z</time>
      </trkpt>
      <trkpt lat="42.0559340" lon="-6.5638930">
        <ele>996.0</ele>
        <time>2019-08-16T10:28:26Z</time>
      </trkpt>
      <trkpt lat="42.0559410" lon="-6.5639410">
        <ele>996.0</ele>
        <time>2019-08-16T10:28:27Z</time>
      </trkpt>
      <trkpt lat="42.0559500" lon="-6.5639930">
        <ele>996.0</ele>
        <time>2019-08-16T10:28:28Z</time>
      </trkpt>
      <trkpt lat="42.0559600" lon="-6.5640460">
        <ele>996.0</ele>
        <time>2019-08-16T10:28:29Z</time>
      </trkpt>
      <trkpt lat="42.0559700" lon="-6.5641010">
        <ele>996.0</ele>
        <time>2019-08-16T10:28:30Z</time>
      </trkpt>
      <trkpt lat="42.0559800" lon="-6.5641550">
        <ele>996.0</ele>
        <time>2019-08-16T10:28:31Z</time>
      </trkpt>
      <trkpt lat="42.0559910" lon="-6.5642100">
        <ele>996.0</ele>
        <time>2019-08-16T10:28:32Z</time>
      </trkpt>
      <trkpt lat="42.0559990" lon="-6.5642600">
        <ele>996.1</ele>
        <time>2019-08-16T10:28:33Z</time>
      </trkpt>
      <trkpt lat="42.0560060" lon="-6.5643040">
        <ele>996.1</ele>
        <time>2019-08-16T10:28:34Z</time>
      </trkpt>
      <trkpt lat="42.0560110" lon="-6.5643410">
        <ele>996.1</ele>
        <time>2019-08-16T10:28:35Z</time>
      </trkpt>
      <trkpt lat="42.0560190" lon="-6.5643770">
        <ele>996.2</ele>
        <time>2019-08-16T10:28:36Z</time>
      </trkpt>
      <trkpt lat="42.0560290" lon="-6.5644490">
        <ele>996.3</ele>
        <time>2019-08-16T10:28:38Z</time>
      </trkpt>
      <trkpt lat="42.0560340" lon="-6.5644850">
        <ele>996.4</ele>
        <time>2019-08-16T10:28:39Z</time>
      </trkpt>
      <trkpt lat="42.0560480" lon="-6.5645530">
        <ele>996.7</ele>
        <time>2019-08-16T10:28:41Z</time>
      </trkpt>
      <trkpt lat="42.0560600" lon="-6.5646180">
        <ele>997.0</ele>
        <time>2019-08-16T10:28:43Z</time>
      </trkpt>
      <trkpt lat="42.0560700" lon="-6.5646800">
        <ele>997.3</ele>
        <time>2019-08-16T10:28:45Z</time>
      </trkpt>
      <trkpt lat="42.0560830" lon="-6.5647430">
        <ele>997.7</ele>
        <time>2019-08-16T10:28:47Z</time>
      </trkpt>
      <trkpt lat="42.0560950" lon="-6.5648020">
        <ele>998.2</ele>
        <time>2019-08-16T10:28:49Z</time>
      </trkpt>
      <trkpt lat="42.0561100" lon="-6.5648610">
        <ele>998.7</ele>
        <time>2019-08-16T10:28:51Z</time>
      </trkpt>
      <trkpt lat="42.0561230" lon="-6.5649220">
        <ele>999.3</ele>
        <time>2019-08-16T10:28:53Z</time>
      </trkpt>
      <trkpt lat="42.0561370" lon="-6.5649770">
        <ele>999.8</ele>
        <time>2019-08-16T10:28:55Z</time>
      </trkpt>
      <trkpt lat="42.0561570" lon="-6.5650300">
        <ele>1000.2</ele>
        <time>2019-08-16T10:28:57Z</time>
      </trkpt>
      <trkpt lat="42.0561780" lon="-6.5650810">
        <ele>1001.1</ele>
        <time>2019-08-16T10:28:59Z</time>
      </trkpt>
      <trkpt lat="42.0562020" lon="-6.5651260">
        <ele>1001.2</ele>
        <time>2019-08-16T10:29:01Z</time>
      </trkpt>
      <trkpt lat="42.0562320" lon="-6.5651670">
        <ele>1001.6</ele>
        <time>2019-08-16T10:29:03Z</time>
      </trkpt>
      <trkpt lat="42.0562640" lon="-6.5651980">
        <ele>1001.8</ele>
        <time>2019-08-16T10:29:05Z</time>
      </trkpt>
      <trkpt lat="42.0563000" lon="-6.5652240">
        <ele>1002.1</ele>
        <time>2019-08-16T10:29:07Z</time>
      </trkpt>
      <trkpt lat="42.0563380" lon="-6.5652510">
        <ele>1002.3</ele>
        <time>2019-08-16T10:29:09Z</time>
      </trkpt>
      <trkpt lat="42.0563780" lon="-6.5652740">
        <ele>1002.6</ele>
        <time>2019-08-16T10:29:11Z</time>
      </trkpt>
      <trkpt lat="42.0564180" lon="-6.5652920">
        <ele>1003.0</ele>
        <time>2019-08-16T10:29:13Z</time>
      </trkpt>
      <trkpt lat="42.0564580" lon="-6.5653110">
        <ele>1003.2</ele>
        <time>2019-08-16T10:29:15Z</time>
      </trkpt>
      <trkpt lat="42.0564940" lon="-6.5653360">
        <ele>1003.4</ele>
        <time>2019-08-16T10:29:17Z</time>
      </trkpt>
      <trkpt lat="42.0565290" lon="-6.5653620">
        <ele>1003.6</ele>
        <time>2019-08-16T10:29:19Z</time>
      </trkpt>
      <trkpt lat="42.0565610" lon="-6.5653980">
        <ele>1003.9</ele>
        <time>2019-08-16T10:29:21Z</time>
      </trkpt>
      <trkpt lat="42.0565920" lon="-6.5654370">
        <ele>1004.0</ele>
        <time>2019-08-16T10:29:23Z</time>
      </trkpt>
      <trkpt lat="42.0566250" lon="-6.5654750">
        <ele>1004.0</ele>
        <time>2019-08-16T10:29:25Z</time>
      </trkpt>
      <trkpt lat="42.0566570" lon="-6.5655180">
        <ele>1004.1</ele>
        <time>2019-08-16T10:29:27Z</time>
      </trkpt>
      <trkpt lat="42.0566850" lon="-6.5655690">
        <ele>1004.2</ele>
        <time>2019-08-16T10:29:29Z</time>
      </trkpt>
      <trkpt lat="42.0567110" lon="-6.5656230">
        <ele>1004.5</ele>
        <time>2019-08-16T10:29:31Z</time>
      </trkpt>
      <trkpt lat="42.0567350" lon="-6.5656880">
        <ele>1004.4</ele>
        <time>2019-08-16T10:29:33Z</time>
      </trkpt>
      <trkpt lat="42.0567440" lon="-6.5657260">
        <ele>1004.3</ele>
        <time>2019-08-16T10:29:34Z</time>
      </trkpt>
      <trkpt lat="42.0567500" lon="-6.5657660">
        <ele>1004.3</ele>
        <time>2019-08-16T10:29:35Z</time>
      </trkpt>
      <trkpt lat="42.0567560" lon="-6.5658080">
        <ele>1004.3</ele>
        <time>2019-08-16T10:29:36Z</time>
      </trkpt>
      <trkpt lat="42.0567630" lon="-6.5658490">
        <ele>1004.2</ele>
        <time>2019-08-16T10:29:37Z</time>
      </trkpt>
      <trkpt lat="42.0567680" lon="-6.5658900">
        <ele>1004.2</ele>
        <time>2019-08-16T10:29:38Z</time>
      </trkpt>
      <trkpt lat="42.0567720" lon="-6.5659320">
        <ele>1004.1</ele>
        <time>2019-08-16T10:29:39Z</time>
      </trkpt>
      <trkpt lat="42.0567770" lon="-6.5659740">
        <ele>1004.0</ele>
        <time>2019-08-16T10:29:40Z</time>
      </trkpt>
      <trkpt lat="42.0567830" lon="-6.5660180">
        <ele>1003.9</ele>
        <time>2019-08-16T10:29:41Z</time>
      </trkpt>
      <trkpt lat="42.0567890" lon="-6.5660670">
        <ele>1003.8</ele>
        <time>2019-08-16T10:29:42Z</time>
      </trkpt>
      <trkpt lat="42.0567950" lon="-6.5661230">
        <ele>1003.6</ele>
        <time>2019-08-16T10:29:43Z</time>
      </trkpt>
      <trkpt lat="42.0568010" lon="-6.5661850">
        <ele>1003.4</ele>
        <time>2019-08-16T10:29:44Z</time>
      </trkpt>
      <trkpt lat="42.0568050" lon="-6.5662520">
        <ele>1003.1</ele>
        <time>2019-08-16T10:29:45Z</time>
      </trkpt>
      <trkpt lat="42.0568090" lon="-6.5663210">
        <ele>1002.8</ele>
        <time>2019-08-16T10:29:46Z</time>
      </trkpt>
      <trkpt lat="42.0568130" lon="-6.5663900">
        <ele>1002.6</ele>
        <time>2019-08-16T10:29:47Z</time>
      </trkpt>
      <trkpt lat="42.0568170" lon="-6.5664520">
        <ele>1002.4</ele>
        <time>2019-08-16T10:29:48Z</time>
      </trkpt>
      <trkpt lat="42.0568190" lon="-6.5665080">
        <ele>1002.1</ele>
        <time>2019-08-16T10:29:49Z</time>
      </trkpt>
      <trkpt lat="42.0568190" lon="-6.5665560">
        <ele>1001.9</ele>
        <time>2019-08-16T10:29:50Z</time>
      </trkpt>
      <trkpt lat="42.0568130" lon="-6.5665970">
        <ele>1001.8</ele>
        <time>2019-08-16T10:29:51Z</time>
      </trkpt>
      <trkpt lat="42.0567950" lon="-6.5666250">
        <ele>1001.7</ele>
        <time>2019-08-16T10:29:52Z</time>
      </trkpt>
      <trkpt lat="42.0567660" lon="-6.5666350">
        <ele>1001.6</ele>
        <time>2019-08-16T10:29:53Z</time>
      </trkpt>
      <trkpt lat="42.0567340" lon="-6.5666200">
        <ele>1001.2</ele>
        <time>2019-08-16T10:29:54Z</time>
      </trkpt>
      <trkpt lat="42.0567090" lon="-6.5665860">
        <ele>1001.2</ele>
        <time>2019-08-16T10:29:55Z</time>
      </trkpt>
      <trkpt lat="42.0566940" lon="-6.5665410">
        <ele>1001.2</ele>
        <time>2019-08-16T10:29:56Z</time>
      </trkpt>
      <trkpt lat="42.0566860" lon="-6.5664890">
        <ele>1001.3</ele>
        <time>2019-08-16T10:29:57Z</time>
      </trkpt>
      <trkpt lat="42.0566800" lon="-6.5664350">
        <ele>1001.5</ele>
        <time>2019-08-16T10:29:58Z</time>
      </trkpt>
      <trkpt lat="42.0566730" lon="-6.5663790">
        <ele>1001.8</ele>
        <time>2019-08-16T10:29:59Z</time>
      </trkpt>
      <trkpt lat="42.0566660" lon="-6.5663220">
        <ele>1001.9</ele>
        <time>2019-08-16T10:30:00Z</time>
      </trkpt>
      <trkpt lat="42.0566570" lon="-6.5662630">
        <ele>1002.1</ele>
        <time>2019-08-16T10:30:01Z</time>
      </trkpt>
      <trkpt lat="42.0566440" lon="-6.5662040">
        <ele>1002.3</ele>
        <time>2019-08-16T10:30:02Z</time>
      </trkpt>
      <trkpt lat="42.0566310" lon="-6.5661410">
        <ele>1002.5</ele>
        <time>2019-08-16T10:30:03Z</time>
      </trkpt>
      <trkpt lat="42.0566180" lon="-6.5660750">
        <ele>1002.7</ele>
        <time>2019-08-16T10:30:04Z</time>
      </trkpt>
      <trkpt lat="42.0566050" lon="-6.5660050">
        <ele>1002.8</ele>
        <time>2019-08-16T10:30:05Z</time>
      </trkpt>
      <trkpt lat="42.0565900" lon="-6.5659340">
        <ele>1003.0</ele>
        <time>2019-08-16T10:30:06Z</time>
      </trkpt>
      <trkpt lat="42.0565740" lon="-6.5658600">
        <ele>1003.1</ele>
        <time>2019-08-16T10:30:07Z</time>
      </trkpt>
      <trkpt lat="42.0565540" lon="-6.5657860">
        <ele>1003.1</ele>
        <time>2019-08-16T10:30:08Z</time>
      </trkpt>
      <trkpt lat="42.0565310" lon="-6.5657130">
        <ele>1003.1</ele>
        <time>2019-08-16T10:30:09Z</time>
      </trkpt>
      <trkpt lat="42.0565030" lon="-6.5656440">
        <ele>1003.0</ele>
        <time>2019-08-16T10:30:10Z</time>
      </trkpt>
      <trkpt lat="42.0564690" lon="-6.5655800">
        <ele>1003.1</ele>
        <time>2019-08-16T10:30:11Z</time>
      </trkpt>
      <trkpt lat="42.0564300" lon="-6.5655260">
        <ele>1003.0</ele>
        <time>2019-08-16T10:30:12Z</time>
      </trkpt>
      <trkpt lat="42.0563860" lon="-6.5654820">
        <ele>1002.8</ele>
        <time>2019-08-16T10:30:13Z</time>
      </trkpt>
      <trkpt lat="42.0563360" lon="-6.5654450">
        <ele>1002.6</ele>
        <time>2019-08-16T10:30:14Z</time>
      </trkpt>
      <trkpt lat="42.0562820" lon="-6.5654200">
        <ele>1002.2</ele>
        <time>2019-08-16T10:30:15Z</time>
      </trkpt>
      <trkpt lat="42.0562230" lon="-6.5654120">
        <ele>1001.8</ele>
        <time>2019-08-16T10:30:16Z</time>
      </trkpt>
      <trkpt lat="42.0561600" lon="-6.5654190">
        <ele>1001.4</ele>
        <time>2019-08-16T10:30:17Z</time>
      </trkpt>
      <trkpt lat="42.0560940" lon="-6.5654310">
        <ele>1000.4</ele>
        <time>2019-08-16T10:30:18Z</time>
      </trkpt>
      <trkpt lat="42.0560260" lon="-6.5654460">
        <ele>999.9</ele>
        <time>2019-08-16T10:30:19Z</time>
      </trkpt>
      <trkpt lat="42.0559570" lon="-6.5654640">
        <ele>999.3</ele>
        <time>2019-08-16T10:30:20Z</time>
      </trkpt>
      <trkpt lat="42.0558900" lon="-6.5654810">
        <ele>998.8</ele>
        <time>2019-08-16T10:30:21Z</time>
      </trkpt>
      <trkpt lat="42.0558250" lon="-6.5654970">
        <ele>998.3</ele>
        <time>2019-08-16T10:30:22Z</time>
      </trkpt>
      <trkpt lat="42.0557600" lon="-6.5655140">
        <ele>997.8</ele>
        <time>2019-08-16T10:30:23Z</time>
      </trkpt>
      <trkpt lat="42.0556950" lon="-6.5655280">
        <ele>997.3</ele>
        <time>2019-08-16T10:30:24Z</time>
      </trkpt>
      <trkpt lat="42.0556360" lon="-6.5655390">
        <ele>996.8</ele>
        <time>2019-08-16T10:30:25Z</time>
      </trkpt>
      <trkpt lat="42.0555890" lon="-6.5655480">
        <ele>996.4</ele>
        <time>2019-08-16T10:30:26Z</time>
      </trkpt>
      <trkpt lat="42.0555500" lon="-6.5655560">
        <ele>995.9</ele>
        <time>2019-08-16T10:30:27Z</time>
      </trkpt>
      <trkpt lat="42.0555100" lon="-6.5655610">
        <ele>995.6</ele>
        <time>2019-08-16T10:30:28Z</time>
      </trkpt>
      <trkpt lat="42.0554670" lon="-6.5655620">
        <ele>995.4</ele>
        <time>2019-08-16T10:30:29Z</time>
      </trkpt>
      <trkpt lat="42.0554220" lon="-6.5655640">
        <ele>995.2</ele>
        <time>2019-08-16T10:30:30Z</time>
      </trkpt>
      <trkpt lat="42.0553730" lon="-6.5655690">
        <ele>995.0</ele>
        <time>2019-08-16T10:30:31Z</time>
      </trkpt>
      <trkpt lat="42.0553220" lon="-6.5655770">
        <ele>994.8</ele>
        <time>2019-08-16T10:30:32Z</time>
      </trkpt>
      <trkpt lat="42.0552690" lon="-6.5655870">
        <ele>994.6</ele>
        <time>2019-08-16T10:30:33Z</time>
      </trkpt>
      <trkpt lat="42.0552210" lon="-6.5655990">
        <ele>994.5</ele>
        <time>2019-08-16T10:30:34Z</time>
      </trkpt>
      <trkpt lat="42.0551720" lon="-6.5656130">
        <ele>994.3</ele>
        <time>2019-08-16T10:30:35Z</time>
      </trkpt>
      <trkpt lat="42.0551190" lon="-6.5656290">
        <ele>994.1</ele>
        <time>2019-08-16T10:30:36Z</time>
      </trkpt>
      <trkpt lat="42.0550640" lon="-6.5656450">
        <ele>993.9</ele>
        <time>2019-08-16T10:30:37Z</time>
      </trkpt>
      <trkpt lat="42.0550070" lon="-6.5656640">
        <ele>993.7</ele>
        <time>2019-08-16T10:30:38Z</time>
      </trkpt>
      <trkpt lat="42.0549500" lon="-6.5656840">
        <ele>993.4</ele>
        <time>2019-08-16T10:30:39Z</time>
      </trkpt>
      <trkpt lat="42.0548960" lon="-6.5657060">
        <ele>993.2</ele>
        <time>2019-08-16T10:30:40Z</time>
      </trkpt>
      <trkpt lat="42.0548450" lon="-6.5657320">
        <ele>993.0</ele>
        <time>2019-08-16T10:30:41Z</time>
      </trkpt>
      <trkpt lat="42.0547980" lon="-6.5657570">
        <ele>992.8</ele>
        <time>2019-08-16T10:30:42Z</time>
      </trkpt>
      <trkpt lat="42.0547550" lon="-6.5657840">
        <ele>992.6</ele>
        <time>2019-08-16T10:30:43Z</time>
      </trkpt>
      <trkpt lat="42.0547160" lon="-6.5658140">
        <ele>992.2</ele>
        <time>2019-08-16T10:30:44Z</time>
      </trkpt>
      <trkpt lat="42.0546790" lon="-6.5658410">
        <ele>991.8</ele>
        <time>2019-08-16T10:30:45Z</time>
      </trkpt>
      <trkpt lat="42.0546420" lon="-6.5658640">
        <ele>991.5</ele>
        <time>2019-08-16T10:30:46Z</time>
      </trkpt>
      <trkpt lat="42.0546000" lon="-6.5658820">
        <ele>991.1</ele>
        <time>2019-08-16T10:30:47Z</time>
      </trkpt>
      <trkpt lat="42.0545510" lon="-6.5658880">
        <ele>990.6</ele>
        <time>2019-08-16T10:30:48Z</time>
      </trkpt>
      <trkpt lat="42.0544990" lon="-6.5658770">
        <ele>990.2</ele>
        <time>2019-08-16T10:30:49Z</time>
      </trkpt>
      <trkpt lat="42.0544470" lon="-6.5658530">
        <ele>989.8</ele>
        <time>2019-08-16T10:30:50Z</time>
      </trkpt>
      <trkpt lat="42.0543960" lon="-6.5658260">
        <ele>989.4</ele>
        <time>2019-08-16T10:30:51Z</time>
      </trkpt>
      <trkpt lat="42.0543470" lon="-6.5657940">
        <ele>988.9</ele>
        <time>2019-08-16T10:30:52Z</time>
      </trkpt>
      <trkpt lat="42.0542960" lon="-6.5657630">
        <ele>988.5</ele>
        <time>2019-08-16T10:30:53Z</time>
      </trkpt>
      <trkpt lat="42.0542440" lon="-6.5657440">
        <ele>988.2</ele>
        <time>2019-08-16T10:30:54Z</time>
      </trkpt>
      <trkpt lat="42.0541880" lon="-6.5657370">
        <ele>988.0</ele>
        <time>2019-08-16T10:30:55Z</time>
      </trkpt>
      <trkpt lat="42.0541300" lon="-6.5657450">
        <ele>987.8</ele>
        <time>2019-08-16T10:30:56Z</time>
      </trkpt>
      <trkpt lat="42.0540730" lon="-6.5657670">
        <ele>987.6</ele>
        <time>2019-08-16T10:30:57Z</time>
      </trkpt>
      <trkpt lat="42.0540180" lon="-6.5657980">
        <ele>987.4</ele>
        <time>2019-08-16T10:30:58Z</time>
      </trkpt>
      <trkpt lat="42.0539620" lon="-6.5658240">
        <ele>987.2</ele>
        <time>2019-08-16T10:30:59Z</time>
      </trkpt>
      <trkpt lat="42.0539080" lon="-6.5658320">
        <ele>987.0</ele>
        <time>2019-08-16T10:31:00Z</time>
      </trkpt>
      <trkpt lat="42.0538520" lon="-6.5658220">
        <ele>986.8</ele>
        <time>2019-08-16T10:31:01Z</time>
      </trkpt>
      <trkpt lat="42.0538030" lon="-6.5657930">
        <ele>986.7</ele>
        <time>2019-08-16T10:31:02Z</time>
      </trkpt>
      <trkpt lat="42.0537650" lon="-6.5657480">
        <ele>986.6</ele>
        <time>2019-08-16T10:31:03Z</time>
      </trkpt>
      <trkpt lat="42.0537290" lon="-6.5656970">
        <ele>986.4</ele>
        <time>2019-08-16T10:31:04Z</time>
      </trkpt>
      <trkpt lat="42.0536910" lon="-6.5656490">
        <ele>986.2</ele>
        <time>2019-08-16T10:31:05Z</time>
      </trkpt>
      <trkpt lat="42.0536540" lon="-6.5655960">
        <ele>986.0</ele>
        <time>2019-08-16T10:31:06Z</time>
      </trkpt>
      <trkpt lat="42.0536110" lon="-6.5655480">
        <ele>985.8</ele>
        <time>2019-08-16T10:31:07Z</time>
      </trkpt>
      <trkpt lat="42.0535680" lon="-6.5654910">
        <ele>985.7</ele>
        <time>2019-08-16T10:31:08Z</time>
      </trkpt>
      <trkpt lat="42.0535330" lon="-6.5654270">
        <ele>985.6</ele>
        <time>2019-08-16T10:31:09Z</time>
      </trkpt>
      <trkpt lat="42.0535020" lon="-6.5653500">
        <ele>985.5</ele>
        <time>2019-08-16T10:31:10Z</time>
      </trkpt>
      <trkpt lat="42.0534710" lon="-6.5652700">
        <ele>985.5</ele>
        <time>2019-08-16T10:31:11Z</time>
      </trkpt>
      <trkpt lat="42.0534370" lon="-6.5651900">
        <ele>985.4</ele>
        <time>2019-08-16T10:31:12Z</time>
      </trkpt>
      <trkpt lat="42.0534100" lon="-6.5651150">
        <ele>985.3</ele>
        <time>2019-08-16T10:31:13Z</time>
      </trkpt>
      <trkpt lat="42.0533950" lon="-6.5650430">
        <ele>985.3</ele>
        <time>2019-08-16T10:31:14Z</time>
      </trkpt>
      <trkpt lat="42.0533920" lon="-6.5649700">
        <ele>985.2</ele>
        <time>2019-08-16T10:31:15Z</time>
      </trkpt>
      <trkpt lat="42.0533910" lon="-6.5649090">
        <ele>985.0</ele>
        <time>2019-08-16T10:31:16Z</time>
      </trkpt>
      <trkpt lat="42.0533880" lon="-6.5648710">
        <ele>984.9</ele>
        <time>2019-08-16T10:31:17Z</time>
      </trkpt>
      <trkpt lat="42.0533850" lon="-6.5648780">
        <ele>984.9</ele>
        <time>2019-08-16T10:31:23Z</time>
      </trkpt>
      <trkpt lat="42.0533750" lon="-6.5649220">
        <ele>984.8</ele>
        <time>2019-08-16T10:31:26Z</time>
      </trkpt>
      <trkpt lat="42.0533460" lon="-6.5649650">
        <ele>984.5</ele>
        <time>2019-08-16T10:31:28Z</time>
      </trkpt>
      <trkpt lat="42.0533230" lon="-6.5649890">
        <ele>984.5</ele>
        <time>2019-08-16T10:31:29Z</time>
      </trkpt>
      <trkpt lat="42.0532980" lon="-6.5650170">
        <ele>984.4</ele>
        <time>2019-08-16T10:31:30Z</time>
      </trkpt>
      <trkpt lat="42.0532730" lon="-6.5650490">
        <ele>984.3</ele>
        <time>2019-08-16T10:31:31Z</time>
      </trkpt>
      <trkpt lat="42.0532490" lon="-6.5650850">
        <ele>984.2</ele>
        <time>2019-08-16T10:31:32Z</time>
      </trkpt>
      <trkpt lat="42.0532230" lon="-6.5651190">
        <ele>984.2</ele>
        <time>2019-08-16T10:31:33Z</time>
      </trkpt>
      <trkpt lat="42.0531960" lon="-6.5651500">
        <ele>984.1</ele>
        <time>2019-08-16T10:31:34Z</time>
      </trkpt>
      <trkpt lat="42.0531720" lon="-6.5651780">
        <ele>984.0</ele>
        <time>2019-08-16T10:31:35Z</time>
      </trkpt>
      <trkpt lat="42.0531490" lon="-6.5652050">
        <ele>984.0</ele>
        <time>2019-08-16T10:31:36Z</time>
      </trkpt>
      <trkpt lat="42.0531250" lon="-6.5652330">
        <ele>983.9</ele>
        <time>2019-08-16T10:31:37Z</time>
      </trkpt>
      <trkpt lat="42.0531010" lon="-6.5652640">
        <ele>983.8</ele>
        <time>2019-08-16T10:31:38Z</time>
      </trkpt>
      <trkpt lat="42.0530730" lon="-6.5652980">
        <ele>983.7</ele>
        <time>2019-08-16T10:31:39Z</time>
      </trkpt>
      <trkpt lat="42.0530430" lon="-6.5653340">
        <ele>983.6</ele>
        <time>2019-08-16T10:31:40Z</time>
      </trkpt>
      <trkpt lat="42.0530100" lon="-6.5653730">
        <ele>983.5</ele>
        <time>2019-08-16T10:31:41Z</time>
      </trkpt>
      <trkpt lat="42.0529730" lon="-6.5654140">
        <ele>983.4</ele>
        <time>2019-08-16T10:31:42Z</time>
      </trkpt>
      <trkpt lat="42.0529340" lon="-6.5654550">
        <ele>983.2</ele>
        <time>2019-08-16T10:31:43Z</time>
      </trkpt>
      <trkpt lat="42.0528950" lon="-6.5654940">
        <ele>983.1</ele>
        <time>2019-08-16T10:31:44Z</time>
      </trkpt>
      <trkpt lat="42.0528560" lon="-6.5655360">
        <ele>982.9</ele>
        <time>2019-08-16T10:31:45Z</time>
      </trkpt>
      <trkpt lat="42.0528180" lon="-6.5655790">
        <ele>982.6</ele>
        <time>2019-08-16T10:31:46Z</time>
      </trkpt>
      <trkpt lat="42.0527830" lon="-6.5656250">
        <ele>982.5</ele>
        <time>2019-08-16T10:31:47Z</time>
      </trkpt>
      <trkpt lat="42.0527480" lon="-6.5656780">
        <ele>982.3</ele>
        <time>2019-08-16T10:31:48Z</time>
      </trkpt>
      <trkpt lat="42.0527130" lon="-6.5657350">
        <ele>982.1</ele>
        <time>2019-08-16T10:31:49Z</time>
      </trkpt>
      <trkpt lat="42.0526780" lon="-6.5657930">
        <ele>981.9</ele>
        <time>2019-08-16T10:31:50Z</time>
      </trkpt>
      <trkpt lat="42.0526420" lon="-6.5658490">
        <ele>981.7</ele>
        <time>2019-08-16T10:31:51Z</time>
      </trkpt>
      <trkpt lat="42.0526040" lon="-6.5659060">
        <ele>981.5</ele>
        <time>2019-08-16T10:31:52Z</time>
      </trkpt>
      <trkpt lat="42.0525660" lon="-6.5659680">
        <ele>981.3</ele>
        <time>2019-08-16T10:31:53Z</time>
      </trkpt>
      <trkpt lat="42.0525270" lon="-6.5660370">
        <ele>981.2</ele>
        <time>2019-08-16T10:31:54Z</time>
      </trkpt>
      <trkpt lat="42.0524900" lon="-6.5661040">
        <ele>981.1</ele>
        <time>2019-08-16T10:31:55Z</time>
      </trkpt>
      <trkpt lat="42.0524540" lon="-6.5661670">
        <ele>981.0</ele>
        <time>2019-08-16T10:31:56Z</time>
      </trkpt>
      <trkpt lat="42.0524240" lon="-6.5662270">
        <ele>980.9</ele>
        <time>2019-08-16T10:31:57Z</time>
      </trkpt>
      <trkpt lat="42.0523930" lon="-6.5662850">
        <ele>980.8</ele>
        <time>2019-08-16T10:31:58Z</time>
      </trkpt>
      <trkpt lat="42.0523640" lon="-6.5663430">
        <ele>980.7</ele>
        <time>2019-08-16T10:31:59Z</time>
      </trkpt>
      <trkpt lat="42.0523370" lon="-6.5664000">
        <ele>980.6</ele>
        <time>2019-08-16T10:32:00Z</time>
      </trkpt>
      <trkpt lat="42.0523100" lon="-6.5664600">
        <ele>980.4</ele>
        <time>2019-08-16T10:32:01Z</time>
      </trkpt>
      <trkpt lat="42.0522810" lon="-6.5665210">
        <ele>980.3</ele>
        <time>2019-08-16T10:32:02Z</time>
      </trkpt>
      <trkpt lat="42.0522530" lon="-6.5665800">
        <ele>980.2</ele>
        <time>2019-08-16T10:32:03Z</time>
      </trkpt>
      <trkpt lat="42.0522280" lon="-6.5666410">
        <ele>980.0</ele>
        <time>2019-08-16T10:32:04Z</time>
      </trkpt>
      <trkpt lat="42.0522000" lon="-6.5667050">
        <ele>979.9</ele>
        <time>2019-08-16T10:32:05Z</time>
      </trkpt>
      <trkpt lat="42.0521700" lon="-6.5667730">
        <ele>979.7</ele>
        <time>2019-08-16T10:32:06Z</time>
      </trkpt>
      <trkpt lat="42.0521350" lon="-6.5668370">
        <ele>979.4</ele>
        <time>2019-08-16T10:32:07Z</time>
      </trkpt>
      <trkpt lat="42.0521020" lon="-6.5669050">
        <ele>979.2</ele>
        <time>2019-08-16T10:32:08Z</time>
      </trkpt>
      <trkpt lat="42.0520700" lon="-6.5669760">
        <ele>978.9</ele>
        <time>2019-08-16T10:32:09Z</time>
      </trkpt>
      <trkpt lat="42.0520400" lon="-6.5670490">
        <ele>978.7</ele>
        <time>2019-08-16T10:32:10Z</time>
      </trkpt>
      <trkpt lat="42.0520100" lon="-6.5671240">
        <ele>978.4</ele>
        <time>2019-08-16T10:32:11Z</time>
      </trkpt>
      <trkpt lat="42.0519770" lon="-6.5671960">
        <ele>978.1</ele>
        <time>2019-08-16T10:32:12Z</time>
      </trkpt>
      <trkpt lat="42.0519450" lon="-6.5672710">
        <ele>977.8</ele>
        <time>2019-08-16T10:32:13Z</time>
      </trkpt>
      <trkpt lat="42.0519110" lon="-6.5673480">
        <ele>977.4</ele>
        <time>2019-08-16T10:32:14Z</time>
      </trkpt>
      <trkpt lat="42.0518720" lon="-6.5674180">
        <ele>977.1</ele>
        <time>2019-08-16T10:32:15Z</time>
      </trkpt>
      <trkpt lat="42.0518240" lon="-6.5674820">
        <ele>976.7</ele>
        <time>2019-08-16T10:32:16Z</time>
      </trkpt>
      <trkpt lat="42.0517740" lon="-6.5675400">
        <ele>976.4</ele>
        <time>2019-08-16T10:32:17Z</time>
      </trkpt>
      <trkpt lat="42.0517210" lon="-6.5675950">
        <ele>976.0</ele>
        <time>2019-08-16T10:32:18Z</time>
      </trkpt>
      <trkpt lat="42.0516760" lon="-6.5676540">
        <ele>975.7</ele>
        <time>2019-08-16T10:32:19Z</time>
      </trkpt>
      <trkpt lat="42.0516400" lon="-6.5677150">
        <ele>975.5</ele>
        <time>2019-08-16T10:32:20Z</time>
      </trkpt>
      <trkpt lat="42.0516080" lon="-6.5677720">
        <ele>975.4</ele>
        <time>2019-08-16T10:32:21Z</time>
      </trkpt>
      <trkpt lat="42.0515720" lon="-6.5678200">
        <ele>975.2</ele>
        <time>2019-08-16T10:32:22Z</time>
      </trkpt>
      <trkpt lat="42.0515260" lon="-6.5678630">
        <ele>975.0</ele>
        <time>2019-08-16T10:32:23Z</time>
      </trkpt>
      <trkpt lat="42.0514730" lon="-6.5678960">
        <ele>974.9</ele>
        <time>2019-08-16T10:32:24Z</time>
      </trkpt>
      <trkpt lat="42.0514120" lon="-6.5679220">
        <ele>974.4</ele>
        <time>2019-08-16T10:32:25Z</time>
      </trkpt>
      <trkpt lat="42.0513460" lon="-6.5679440">
        <ele>973.9</ele>
        <time>2019-08-16T10:32:26Z</time>
      </trkpt>
      <trkpt lat="42.0512800" lon="-6.5679690">
        <ele>973.4</ele>
        <time>2019-08-16T10:32:27Z</time>
      </trkpt>
      <trkpt lat="42.0512130" lon="-6.5679960">
        <ele>973.0</ele>
        <time>2019-08-16T10:32:28Z</time>
      </trkpt>
      <trkpt lat="42.0511440" lon="-6.5680210">
        <ele>972.7</ele>
        <time>2019-08-16T10:32:29Z</time>
      </trkpt>
      <trkpt lat="42.0510740" lon="-6.5680450">
        <ele>972.4</ele>
        <time>2019-08-16T10:32:30Z</time>
      </trkpt>
      <trkpt lat="42.0510000" lon="-6.5680700">
        <ele>972.0</ele>
        <time>2019-08-16T10:32:31Z</time>
      </trkpt>
      <trkpt lat="42.0509290" lon="-6.5680910">
        <ele>971.5</ele>
        <time>2019-08-16T10:32:32Z</time>
      </trkpt>
      <trkpt lat="42.0508650" lon="-6.5681110">
        <ele>971.1</ele>
        <time>2019-08-16T10:32:33Z</time>
      </trkpt>
      <trkpt lat="42.0508110" lon="-6.5681280">
        <ele>970.8</ele>
        <time>2019-08-16T10:32:34Z</time>
      </trkpt>
      <trkpt lat="42.0507590" lon="-6.5681400">
        <ele>970.5</ele>
        <time>2019-08-16T10:32:35Z</time>
      </trkpt>
      <trkpt lat="42.0507070" lon="-6.5681440">
        <ele>970.2</ele>
        <time>2019-08-16T10:32:36Z</time>
      </trkpt>
      <trkpt lat="42.0506620" lon="-6.5681430">
        <ele>969.9</ele>
        <time>2019-08-16T10:32:37Z</time>
      </trkpt>
      <trkpt lat="42.0506180" lon="-6.5681390">
        <ele>969.7</ele>
        <time>2019-08-16T10:32:38Z</time>
      </trkpt>
      <trkpt lat="42.0505690" lon="-6.5681500">
        <ele>969.4</ele>
        <time>2019-08-16T10:32:39Z</time>
      </trkpt>
      <trkpt lat="42.0505230" lon="-6.5681770">
        <ele>969.2</ele>
        <time>2019-08-16T10:32:40Z</time>
      </trkpt>
      <trkpt lat="42.0504780" lon="-6.5682140">
        <ele>968.8</ele>
        <time>2019-08-16T10:32:41Z</time>
      </trkpt>
      <trkpt lat="42.0504400" lon="-6.5682600">
        <ele>968.5</ele>
        <time>2019-08-16T10:32:42Z</time>
      </trkpt>
      <trkpt lat="42.0504020" lon="-6.5683090">
        <ele>968.2</ele>
        <time>2019-08-16T10:32:43Z</time>
      </trkpt>
      <trkpt lat="42.0503660" lon="-6.5683580">
        <ele>967.9</ele>
        <time>2019-08-16T10:32:44Z</time>
      </trkpt>
      <trkpt lat="42.0503300" lon="-6.5684090">
        <ele>967.7</ele>
        <time>2019-08-16T10:32:45Z</time>
      </trkpt>
      <trkpt lat="42.0502980" lon="-6.5684630">
        <ele>967.5</ele>
        <time>2019-08-16T10:32:46Z</time>
      </trkpt>
      <trkpt lat="42.0502750" lon="-6.5685200">
        <ele>967.2</ele>
        <time>2019-08-16T10:32:47Z</time>
      </trkpt>
      <trkpt lat="42.0502590" lon="-6.5685820">
        <ele>967.0</ele>
        <time>2019-08-16T10:32:48Z</time>
      </trkpt>
      <trkpt lat="42.0502440" lon="-6.5686460">
        <ele>966.7</ele>
        <time>2019-08-16T10:32:49Z</time>
      </trkpt>
      <trkpt lat="42.0502270" lon="-6.5687130">
        <ele>966.4</ele>
        <time>2019-08-16T10:32:50Z</time>
      </trkpt>
      <trkpt lat="42.0502150" lon="-6.5687830">
        <ele>966.2</ele>
        <time>2019-08-16T10:32:51Z</time>
      </trkpt>
      <trkpt lat="42.0502000" lon="-6.5688550">
        <ele>965.9</ele>
        <time>2019-08-16T10:32:52Z</time>
      </trkpt>
      <trkpt lat="42.0501780" lon="-6.5689290">
        <ele>965.7</ele>
        <time>2019-08-16T10:32:53Z</time>
      </trkpt>
      <trkpt lat="42.0501490" lon="-6.5689950">
        <ele>965.5</ele>
        <time>2019-08-16T10:32:54Z</time>
      </trkpt>
      <trkpt lat="42.0501160" lon="-6.5690520">
        <ele>965.3</ele>
        <time>2019-08-16T10:32:55Z</time>
      </trkpt>
      <trkpt lat="42.0500870" lon="-6.5691040">
        <ele>965.2</ele>
        <time>2019-08-16T10:32:56Z</time>
      </trkpt>
      <trkpt lat="42.0500560" lon="-6.5691490">
        <ele>965.1</ele>
        <time>2019-08-16T10:32:57Z</time>
      </trkpt>
      <trkpt lat="42.0500240" lon="-6.5691950">
        <ele>965.0</ele>
        <time>2019-08-16T10:32:58Z</time>
      </trkpt>
      <trkpt lat="42.0499880" lon="-6.5692370">
        <ele>964.9</ele>
        <time>2019-08-16T10:32:59Z</time>
      </trkpt>
      <trkpt lat="42.0499460" lon="-6.5692820">
        <ele>964.8</ele>
        <time>2019-08-16T10:33:00Z</time>
      </trkpt>
      <trkpt lat="42.0499010" lon="-6.5693230">
        <ele>964.4</ele>
        <time>2019-08-16T10:33:01Z</time>
      </trkpt>
      <trkpt lat="42.0498580" lon="-6.5693560">
        <ele>964.1</ele>
        <time>2019-08-16T10:33:02Z</time>
      </trkpt>
      <trkpt lat="42.0498190" lon="-6.5693830">
        <ele>963.9</ele>
        <time>2019-08-16T10:33:03Z</time>
      </trkpt>
      <trkpt lat="42.0497840" lon="-6.5694040">
        <ele>963.7</ele>
        <time>2019-08-16T10:33:04Z</time>
      </trkpt>
      <trkpt lat="42.0497520" lon="-6.5694130">
        <ele>963.6</ele>
        <time>2019-08-16T10:33:05Z</time>
      </trkpt>
      <trkpt lat="42.0497190" lon="-6.5694150">
        <ele>963.5</ele>
        <time>2019-08-16T10:33:06Z</time>
      </trkpt>
      <trkpt lat="42.0496840" lon="-6.5694200">
        <ele>963.4</ele>
        <time>2019-08-16T10:33:07Z</time>
      </trkpt>
      <trkpt lat="42.0496490" lon="-6.5694300">
        <ele>962.7</ele>
        <time>2019-08-16T10:33:08Z</time>
      </trkpt>
      <trkpt lat="42.0496120" lon="-6.5694410">
        <ele>962.4</ele>
        <time>2019-08-16T10:33:09Z</time>
      </trkpt>
      <trkpt lat="42.0495730" lon="-6.5694530">
        <ele>962.1</ele>
        <time>2019-08-16T10:33:10Z</time>
      </trkpt>
      <trkpt lat="42.0495320" lon="-6.5694690">
        <ele>961.8</ele>
        <time>2019-08-16T10:33:11Z</time>
      </trkpt>
      <trkpt lat="42.0494920" lon="-6.5694820">
        <ele>961.5</ele>
        <time>2019-08-16T10:33:12Z</time>
      </trkpt>
      <trkpt lat="42.0494550" lon="-6.5694970">
        <ele>961.2</ele>
        <time>2019-08-16T10:33:13Z</time>
      </trkpt>
      <trkpt lat="42.0494230" lon="-6.5695090">
        <ele>961.0</ele>
        <time>2019-08-16T10:33:14Z</time>
      </trkpt>
      <trkpt lat="42.0493800" lon="-6.5695380">
        <ele>961.2</ele>
        <time>2019-08-16T10:33:16Z</time>
      </trkpt>
      <trkpt lat="42.0493580" lon="-6.5695760">
        <ele>961.3</ele>
        <time>2019-08-16T10:33:18Z</time>
      </trkpt>
      <trkpt lat="42.0493510" lon="-6.5695270">
        <ele>961.5</ele>
        <time>2019-08-16T10:33:34Z</time>
      </trkpt>
      <trkpt lat="42.0493960" lon="-6.5694970">
        <ele>961.7</ele>
        <time>2019-08-16T10:33:36Z</time>
      </trkpt>
      <trkpt lat="42.0494310" lon="-6.5694840">
        <ele>961.9</ele>
        <time>2019-08-16T10:33:37Z</time>
      </trkpt>
      <trkpt lat="42.0494720" lon="-6.5694680">
        <ele>962.0</ele>
        <time>2019-08-16T10:33:38Z</time>
      </trkpt>
      <trkpt lat="42.0495160" lon="-6.5694490">
        <ele>962.2</ele>
        <time>2019-08-16T10:33:39Z</time>
      </trkpt>
      <trkpt lat="42.0495590" lon="-6.5694290">
        <ele>962.4</ele>
        <time>2019-08-16T10:33:40Z</time>
      </trkpt>
      <trkpt lat="42.0496000" lon="-6.5694130">
        <ele>962.6</ele>
        <time>2019-08-16T10:33:41Z</time>
      </trkpt>
      <trkpt lat="42.0496400" lon="-6.5694000">
        <ele>962.8</ele>
        <time>2019-08-16T10:33:42Z</time>
      </trkpt>
      <trkpt lat="42.0496750" lon="-6.5693940">
        <ele>962.9</ele>
        <time>2019-08-16T10:33:43Z</time>
      </trkpt>
      <trkpt lat="42.0497070" lon="-6.5693910">
        <ele>963.0</ele>
        <time>2019-08-16T10:33:44Z</time>
      </trkpt>
      <trkpt lat="42.0497340" lon="-6.5693890">
        <ele>963.2</ele>
        <time>2019-08-16T10:33:45Z</time>
      </trkpt>
      <trkpt lat="42.0497780" lon="-6.5693870">
        <ele>963.3</ele>
        <time>2019-08-16T10:33:47Z</time>
      </trkpt>
      <trkpt lat="42.0498060" lon="-6.5694080">
        <ele>963.6</ele>
        <time>2019-08-16T10:33:49Z</time>
      </trkpt>
      <trkpt lat="42.0498180" lon="-6.5694410">
        <ele>963.6</ele>
        <time>2019-08-16T10:33:51Z</time>
      </trkpt>
      <trkpt lat="42.0498320" lon="-6.5694840">
        <ele>963.6</ele>
        <time>2019-08-16T10:33:53Z</time>
      </trkpt>
      <trkpt lat="42.0498340" lon="-6.5695270">
        <ele>963.6</ele>
        <time>2019-08-16T10:33:55Z</time>
      </trkpt>
      <trkpt lat="42.0498090" lon="-6.5695200">
        <ele>963.6</ele>
        <time>2019-08-16T10:33:57Z</time>
      </trkpt>
      <trkpt lat="42.0497950" lon="-6.5694650">
        <ele>963.6</ele>
        <time>2019-08-16T10:33:59Z</time>
      </trkpt>
      <trkpt lat="42.0497700" lon="-6.5694060">
        <ele>963.6</ele>
        <time>2019-08-16T10:34:01Z</time>
      </trkpt>
      <trkpt lat="42.0497460" lon="-6.5693850">
        <ele>963.6</ele>
        <time>2019-08-16T10:34:02Z</time>
      </trkpt>
      <trkpt lat="42.0497210" lon="-6.5693730">
        <ele>963.6</ele>
        <time>2019-08-16T10:34:03Z</time>
      </trkpt>
      <trkpt lat="42.0496800" lon="-6.5693670">
        <ele>963.6</ele>
        <time>2019-08-16T10:34:05Z</time>
      </trkpt>
      <trkpt lat="42.0496670" lon="-6.5693830">
        <ele>963.6</ele>
        <time>2019-08-16T10:34:11Z</time>
      </trkpt>
      <trkpt lat="42.0496900" lon="-6.5694210">
        <ele>963.6</ele>
        <time>2019-08-16T10:34:14Z</time>
      </trkpt>
      <trkpt lat="42.0497300" lon="-6.5694160">
        <ele>963.6</ele>
        <time>2019-08-16T10:34:16Z</time>
      </trkpt>
      <trkpt lat="42.0497740" lon="-6.5694130">
        <ele>963.6</ele>
        <time>2019-08-16T10:34:18Z</time>
      </trkpt>
      <trkpt lat="42.0498150" lon="-6.5694530">
        <ele>963.7</ele>
        <time>2019-08-16T10:34:20Z</time>
      </trkpt>
      <trkpt lat="42.0498150" lon="-6.5695240">
        <ele>963.7</ele>
        <time>2019-08-16T10:34:22Z</time>
      </trkpt>
      <trkpt lat="42.0498300" lon="-6.5695810">
        <ele>963.8</ele>
        <time>2019-08-16T10:34:24Z</time>
      </trkpt>
      <trkpt lat="42.0498440" lon="-6.5696330">
        <ele>963.9</ele>
        <time>2019-08-16T10:34:26Z</time>
      </trkpt>
      <trkpt lat="42.0498440" lon="-6.5696840">
        <ele>963.9</ele>
        <time>2019-08-16T10:34:28Z</time>
      </trkpt>
      <trkpt lat="42.0498440" lon="-6.5697430">
        <ele>963.9</ele>
        <time>2019-08-16T10:34:30Z</time>
      </trkpt>
      <trkpt lat="42.0498370" lon="-6.5697990">
        <ele>963.9</ele>
        <time>2019-08-16T10:34:32Z</time>
      </trkpt>
      <trkpt lat="42.0498270" lon="-6.5698530">
        <ele>964.0</ele>
        <time>2019-08-16T10:34:34Z</time>
      </trkpt>
      <trkpt lat="42.0498160" lon="-6.5699100">
        <ele>964.0</ele>
        <time>2019-08-16T10:34:36Z</time>
      </trkpt>
      <trkpt lat="42.0497980" lon="-6.5699760">
        <ele>964.0</ele>
        <time>2019-08-16T10:34:38Z</time>
      </trkpt>
      <trkpt lat="42.0497890" lon="-6.5700140">
        <ele>963.9</ele>
        <time>2019-08-16T10:34:39Z</time>
      </trkpt>
      <trkpt lat="42.0497820" lon="-6.5700570">
        <ele>963.9</ele>
        <time>2019-08-16T10:34:40Z</time>
      </trkpt>
      <trkpt lat="42.0497850" lon="-6.5701030">
        <ele>963.9</ele>
        <time>2019-08-16T10:34:41Z</time>
      </trkpt>
      <trkpt lat="42.0497930" lon="-6.5701470">
        <ele>963.8</ele>
        <time>2019-08-16T10:34:42Z</time>
      </trkpt>
      <trkpt lat="42.0498000" lon="-6.5701910">
        <ele>963.7</ele>
        <time>2019-08-16T10:34:43Z</time>
      </trkpt>
      <trkpt lat="42.0498080" lon="-6.5702350">
        <ele>963.6</ele>
        <time>2019-08-16T10:34:44Z</time>
      </trkpt>
      <trkpt lat="42.0498180" lon="-6.5702810">
        <ele>963.5</ele>
        <time>2019-08-16T10:34:45Z</time>
      </trkpt>
      <trkpt lat="42.0498290" lon="-6.5703280">
        <ele>963.4</ele>
        <time>2019-08-16T10:34:46Z</time>
      </trkpt>
      <trkpt lat="42.0498410" lon="-6.5703750">
        <ele>963.3</ele>
        <time>2019-08-16T10:34:47Z</time>
      </trkpt>
      <trkpt lat="42.0498530" lon="-6.5704230">
        <ele>963.1</ele>
        <time>2019-08-16T10:34:48Z</time>
      </trkpt>
      <trkpt lat="42.0498670" lon="-6.5704680">
        <ele>963.0</ele>
        <time>2019-08-16T10:34:49Z</time>
      </trkpt>
      <trkpt lat="42.0498800" lon="-6.5705160">
        <ele>962.9</ele>
        <time>2019-08-16T10:34:50Z</time>
      </trkpt>
      <trkpt lat="42.0498930" lon="-6.5705640">
        <ele>962.8</ele>
        <time>2019-08-16T10:34:51Z</time>
      </trkpt>
      <trkpt lat="42.0499060" lon="-6.5706140">
        <ele>962.6</ele>
        <time>2019-08-16T10:34:52Z</time>
      </trkpt>
      <trkpt lat="42.0499190" lon="-6.5706670">
        <ele>962.4</ele>
        <time>2019-08-16T10:34:53Z</time>
      </trkpt>
      <trkpt lat="42.0499270" lon="-6.5707240">
        <ele>962.3</ele>
        <time>2019-08-16T10:34:54Z</time>
      </trkpt>
      <trkpt lat="42.0499300" lon="-6.5707820">
        <ele>962.1</ele>
        <time>2019-08-16T10:34:55Z</time>
      </trkpt>
      <trkpt lat="42.0499280" lon="-6.5708410">
        <ele>962.0</ele>
        <time>2019-08-16T10:34:56Z</time>
      </trkpt>
      <trkpt lat="42.0499200" lon="-6.5708980">
        <ele>961.8</ele>
        <time>2019-08-16T10:34:57Z</time>
      </trkpt>
      <trkpt lat="42.0499020" lon="-6.5709500">
        <ele>961.7</ele>
        <time>2019-08-16T10:34:58Z</time>
      </trkpt>
      <trkpt lat="42.0498780" lon="-6.5709930">
        <ele>961.6</ele>
        <time>2019-08-16T10:34:59Z</time>
      </trkpt>
      <trkpt lat="42.0498480" lon="-6.5710310">
        <ele>961.5</ele>
        <time>2019-08-16T10:35:00Z</time>
      </trkpt>
      <trkpt lat="42.0498170" lon="-6.5710650">
        <ele>961.3</ele>
        <time>2019-08-16T10:35:01Z</time>
      </trkpt>
      <trkpt lat="42.0497850" lon="-6.5710970">
        <ele>961.2</ele>
        <time>2019-08-16T10:35:02Z</time>
      </trkpt>
      <trkpt lat="42.0497550" lon="-6.5711270">
        <ele>961.0</ele>
        <time>2019-08-16T10:35:03Z</time>
      </trkpt>
      <trkpt lat="42.0497220" lon="-6.5711550">
        <ele>960.8</ele>
        <time>2019-08-16T10:35:04Z</time>
      </trkpt>
      <trkpt lat="42.0496920" lon="-6.5711820">
        <ele>960.7</ele>
        <time>2019-08-16T10:35:05Z</time>
      </trkpt>
      <trkpt lat="42.0496630" lon="-6.5712120">
        <ele>960.5</ele>
        <time>2019-08-16T10:35:06Z</time>
      </trkpt>
      <trkpt lat="42.0496340" lon="-6.5712480">
        <ele>960.4</ele>
        <time>2019-08-16T10:35:07Z</time>
      </trkpt>
      <trkpt lat="42.0496110" lon="-6.5712880">
        <ele>960.2</ele>
        <time>2019-08-16T10:35:08Z</time>
      </trkpt>
      <trkpt lat="42.0495960" lon="-6.5713320">
        <ele>960.1</ele>
        <time>2019-08-16T10:35:09Z</time>
      </trkpt>
      <trkpt lat="42.0495890" lon="-6.5713780">
        <ele>960.2</ele>
        <time>2019-08-16T10:35:10Z</time>
      </trkpt>
      <trkpt lat="42.0495880" lon="-6.5714220">
        <ele>960.3</ele>
        <time>2019-08-16T10:35:11Z</time>
      </trkpt>
      <trkpt lat="42.0495930" lon="-6.5714670">
        <ele>960.4</ele>
        <time>2019-08-16T10:35:12Z</time>
      </trkpt>
      <trkpt lat="42.0496010" lon="-6.5715110">
        <ele>960.5</ele>
        <time>2019-08-16T10:35:13Z</time>
      </trkpt>
      <trkpt lat="42.0496060" lon="-6.5715560">
        <ele>960.5</ele>
        <time>2019-08-16T10:35:14Z</time>
      </trkpt>
      <trkpt lat="42.0496110" lon="-6.5716050">
        <ele>960.6</ele>
        <time>2019-08-16T10:35:15Z</time>
      </trkpt>
      <trkpt lat="42.0496160" lon="-6.5716550">
        <ele>960.7</ele>
        <time>2019-08-16T10:35:16Z</time>
      </trkpt>
      <trkpt lat="42.0496230" lon="-6.5717080">
        <ele>960.7</ele>
        <time>2019-08-16T10:35:17Z</time>
      </trkpt>
      <trkpt lat="42.0496280" lon="-6.5717630">
        <ele>960.7</ele>
        <time>2019-08-16T10:35:18Z</time>
      </trkpt>
      <trkpt lat="42.0496340" lon="-6.5718180">
        <ele>960.7</ele>
        <time>2019-08-16T10:35:19Z</time>
      </trkpt>
      <trkpt lat="42.0496440" lon="-6.5718720">
        <ele>960.7</ele>
        <time>2019-08-16T10:35:20Z</time>
      </trkpt>
      <trkpt lat="42.0496530" lon="-6.5719260">
        <ele>960.6</ele>
        <time>2019-08-16T10:35:21Z</time>
      </trkpt>
      <trkpt lat="42.0496610" lon="-6.5719800">
        <ele>960.6</ele>
        <time>2019-08-16T10:35:22Z</time>
      </trkpt>
      <trkpt lat="42.0496690" lon="-6.5720320">
        <ele>960.5</ele>
        <time>2019-08-16T10:35:23Z</time>
      </trkpt>
      <trkpt lat="42.0496780" lon="-6.5720850">
        <ele>960.4</ele>
        <time>2019-08-16T10:35:24Z</time>
      </trkpt>
      <trkpt lat="42.0496870" lon="-6.5721360">
        <ele>960.4</ele>
        <time>2019-08-16T10:35:25Z</time>
      </trkpt>
      <trkpt lat="42.0496970" lon="-6.5721860">
        <ele>960.3</ele>
        <time>2019-08-16T10:35:26Z</time>
      </trkpt>
      <trkpt lat="42.0497060" lon="-6.5722320">
        <ele>960.3</ele>
        <time>2019-08-16T10:35:27Z</time>
      </trkpt>
      <trkpt lat="42.0497180" lon="-6.5722770">
        <ele>960.3</ele>
        <time>2019-08-16T10:35:28Z</time>
      </trkpt>
      <trkpt lat="42.0497300" lon="-6.5723230">
        <ele>960.3</ele>
        <time>2019-08-16T10:35:29Z</time>
      </trkpt>
      <trkpt lat="42.0497420" lon="-6.5723690">
        <ele>960.3</ele>
        <time>2019-08-16T10:35:30Z</time>
      </trkpt>
      <trkpt lat="42.0497530" lon="-6.5724160">
        <ele>960.3</ele>
        <time>2019-08-16T10:35:31Z</time>
      </trkpt>
      <trkpt lat="42.0497620" lon="-6.5724650">
        <ele>960.3</ele>
        <time>2019-08-16T10:35:32Z</time>
      </trkpt>
      <trkpt lat="42.0497730" lon="-6.5725140">
        <ele>960.2</ele>
        <time>2019-08-16T10:35:33Z</time>
      </trkpt>
      <trkpt lat="42.0497850" lon="-6.5725640">
        <ele>960.2</ele>
        <time>2019-08-16T10:35:34Z</time>
      </trkpt>
      <trkpt lat="42.0497960" lon="-6.5726150">
        <ele>960.2</ele>
        <time>2019-08-16T10:35:35Z</time>
      </trkpt>
      <trkpt lat="42.0498070" lon="-6.5726690">
        <ele>960.1</ele>
        <time>2019-08-16T10:35:36Z</time>
      </trkpt>
      <trkpt lat="42.0498170" lon="-6.5727230">
        <ele>960.1</ele>
        <time>2019-08-16T10:35:37Z</time>
      </trkpt>
      <trkpt lat="42.0498260" lon="-6.5727760">
        <ele>960.0</ele>
        <time>2019-08-16T10:35:38Z</time>
      </trkpt>
      <trkpt lat="42.0498350" lon="-6.5728280">
        <ele>960.0</ele>
        <time>2019-08-16T10:35:39Z</time>
      </trkpt>
      <trkpt lat="42.0498410" lon="-6.5728800">
        <ele>959.9</ele>
        <time>2019-08-16T10:35:40Z</time>
      </trkpt>
      <trkpt lat="42.0498430" lon="-6.5729270">
        <ele>959.9</ele>
        <time>2019-08-16T10:35:41Z</time>
      </trkpt>
      <trkpt lat="42.0498450" lon="-6.5729700">
        <ele>959.8</ele>
        <time>2019-08-16T10:35:42Z</time>
      </trkpt>
      <trkpt lat="42.0498450" lon="-6.5730090">
        <ele>959.8</ele>
        <time>2019-08-16T10:35:43Z</time>
      </trkpt>
      <trkpt lat="42.0498410" lon="-6.5730450">
        <ele>959.7</ele>
        <time>2019-08-16T10:35:44Z</time>
      </trkpt>
      <trkpt lat="42.0498210" lon="-6.5731150">
        <ele>959.4</ele>
        <time>2019-08-16T10:35:46Z</time>
      </trkpt>
      <trkpt lat="42.0498080" lon="-6.5731490">
        <ele>959.3</ele>
        <time>2019-08-16T10:35:47Z</time>
      </trkpt>
      <trkpt lat="42.0497960" lon="-6.5731820">
        <ele>959.2</ele>
        <time>2019-08-16T10:35:48Z</time>
      </trkpt>
      <trkpt lat="42.0497860" lon="-6.5732170">
        <ele>959.1</ele>
        <time>2019-08-16T10:35:49Z</time>
      </trkpt>
      <trkpt lat="42.0497750" lon="-6.5732520">
        <ele>959.0</ele>
        <time>2019-08-16T10:35:50Z</time>
      </trkpt>
      <trkpt lat="42.0497610" lon="-6.5732860">
        <ele>958.9</ele>
        <time>2019-08-16T10:35:51Z</time>
      </trkpt>
      <trkpt lat="42.0497410" lon="-6.5733170">
        <ele>958.7</ele>
        <time>2019-08-16T10:35:52Z</time>
      </trkpt>
      <trkpt lat="42.0497190" lon="-6.5733430">
        <ele>958.6</ele>
        <time>2019-08-16T10:35:53Z</time>
      </trkpt>
      <trkpt lat="42.0496970" lon="-6.5733650">
        <ele>958.5</ele>
        <time>2019-08-16T10:35:54Z</time>
      </trkpt>
      <trkpt lat="42.0496630" lon="-6.5734170">
        <ele>958.3</ele>
        <time>2019-08-16T10:35:56Z</time>
      </trkpt>
      <trkpt lat="42.0496400" lon="-6.5734780">
        <ele>958.1</ele>
        <time>2019-08-16T10:35:58Z</time>
      </trkpt>
      <trkpt lat="42.0496330" lon="-6.5735140">
        <ele>958.0</ele>
        <time>2019-08-16T10:35:59Z</time>
      </trkpt>
      <trkpt lat="42.0496330" lon="-6.5735530">
        <ele>957.8</ele>
        <time>2019-08-16T10:36:00Z</time>
      </trkpt>
      <trkpt lat="42.0496380" lon="-6.5735950">
        <ele>958.1</ele>
        <time>2019-08-16T10:36:01Z</time>
      </trkpt>
      <trkpt lat="42.0496470" lon="-6.5736340">
        <ele>958.1</ele>
        <time>2019-08-16T10:36:02Z</time>
      </trkpt>
      <trkpt lat="42.0496580" lon="-6.5736690">
        <ele>958.2</ele>
        <time>2019-08-16T10:36:03Z</time>
      </trkpt>
      <trkpt lat="42.0496900" lon="-6.5737220">
        <ele>958.4</ele>
        <time>2019-08-16T10:36:05Z</time>
      </trkpt>
      <trkpt lat="42.0497260" lon="-6.5737610">
        <ele>958.5</ele>
        <time>2019-08-16T10:36:07Z</time>
      </trkpt>
      <trkpt lat="42.0497610" lon="-6.5738040">
        <ele>958.7</ele>
        <time>2019-08-16T10:36:09Z</time>
      </trkpt>
      <trkpt lat="42.0497980" lon="-6.5738610">
        <ele>958.8</ele>
        <time>2019-08-16T10:36:11Z</time>
      </trkpt>
      <trkpt lat="42.0498180" lon="-6.5738900">
        <ele>958.9</ele>
        <time>2019-08-16T10:36:12Z</time>
      </trkpt>
      <trkpt lat="42.0498390" lon="-6.5739190">
        <ele>959.1</ele>
        <time>2019-08-16T10:36:13Z</time>
      </trkpt>
      <trkpt lat="42.0498610" lon="-6.5739490">
        <ele>959.2</ele>
        <time>2019-08-16T10:36:14Z</time>
      </trkpt>
      <trkpt lat="42.0498820" lon="-6.5739830">
        <ele>959.2</ele>
        <time>2019-08-16T10:36:15Z</time>
      </trkpt>
      <trkpt lat="42.0499030" lon="-6.5740210">
        <ele>959.2</ele>
        <time>2019-08-16T10:36:16Z</time>
      </trkpt>
      <trkpt lat="42.0499250" lon="-6.5740610">
        <ele>959.2</ele>
        <time>2019-08-16T10:36:17Z</time>
      </trkpt>
      <trkpt lat="42.0499480" lon="-6.5741020">
        <ele>959.3</ele>
        <time>2019-08-16T10:36:18Z</time>
      </trkpt>
      <trkpt lat="42.0499720" lon="-6.5741450">
        <ele>959.4</ele>
        <time>2019-08-16T10:36:19Z</time>
      </trkpt>
      <trkpt lat="42.0499980" lon="-6.5741880">
        <ele>959.5</ele>
        <time>2019-08-16T10:36:20Z</time>
      </trkpt>
      <trkpt lat="42.0500240" lon="-6.5742320">
        <ele>959.5</ele>
        <time>2019-08-16T10:36:21Z</time>
      </trkpt>
      <trkpt lat="42.0500520" lon="-6.5742760">
        <ele>959.5</ele>
        <time>2019-08-16T10:36:22Z</time>
      </trkpt>
      <trkpt lat="42.0500810" lon="-6.5743200">
        <ele>959.4</ele>
        <time>2019-08-16T10:36:23Z</time>
      </trkpt>
      <trkpt lat="42.0501120" lon="-6.5743630">
        <ele>959.4</ele>
        <time>2019-08-16T10:36:24Z</time>
      </trkpt>
      <trkpt lat="42.0501440" lon="-6.5744050">
        <ele>959.5</ele>
        <time>2019-08-16T10:36:25Z</time>
      </trkpt>
      <trkpt lat="42.0501770" lon="-6.5744420">
        <ele>959.5</ele>
        <time>2019-08-16T10:36:26Z</time>
      </trkpt>
      <trkpt lat="42.0502140" lon="-6.5744730">
        <ele>959.6</ele>
        <time>2019-08-16T10:36:27Z</time>
      </trkpt>
      <trkpt lat="42.0502520" lon="-6.5745010">
        <ele>959.6</ele>
        <time>2019-08-16T10:36:28Z</time>
      </trkpt>
      <trkpt lat="42.0502890" lon="-6.5745320">
        <ele>959.7</ele>
        <time>2019-08-16T10:36:29Z</time>
      </trkpt>
      <trkpt lat="42.0503240" lon="-6.5745710">
        <ele>959.7</ele>
        <time>2019-08-16T10:36:30Z</time>
      </trkpt>
      <trkpt lat="42.0503550" lon="-6.5746170">
        <ele>959.8</ele>
        <time>2019-08-16T10:36:31Z</time>
      </trkpt>
      <trkpt lat="42.0503830" lon="-6.5746700">
        <ele>959.8</ele>
        <time>2019-08-16T10:36:32Z</time>
      </trkpt>
      <trkpt lat="42.0504080" lon="-6.5747260">
        <ele>959.8</ele>
        <time>2019-08-16T10:36:33Z</time>
      </trkpt>
      <trkpt lat="42.0504310" lon="-6.5747830">
        <ele>959.8</ele>
        <time>2019-08-16T10:36:34Z</time>
      </trkpt>
      <trkpt lat="42.0504530" lon="-6.5748460">
        <ele>959.8</ele>
        <time>2019-08-16T10:36:35Z</time>
      </trkpt>
      <trkpt lat="42.0504730" lon="-6.5749130">
        <ele>959.8</ele>
        <time>2019-08-16T10:36:36Z</time>
      </trkpt>
      <trkpt lat="42.0504910" lon="-6.5749820">
        <ele>959.8</ele>
        <time>2019-08-16T10:36:37Z</time>
      </trkpt>
      <trkpt lat="42.0505100" lon="-6.5750540">
        <ele>959.8</ele>
        <time>2019-08-16T10:36:38Z</time>
      </trkpt>
      <trkpt lat="42.0505250" lon="-6.5751290">
        <ele>959.8</ele>
        <time>2019-08-16T10:36:39Z</time>
      </trkpt>
      <trkpt lat="42.0505360" lon="-6.5752070">
        <ele>959.7</ele>
        <time>2019-08-16T10:36:40Z</time>
      </trkpt>
      <trkpt lat="42.0505420" lon="-6.5752850">
        <ele>959.7</ele>
        <time>2019-08-16T10:36:41Z</time>
      </trkpt>
      <trkpt lat="42.0505420" lon="-6.5753620">
        <ele>959.7</ele>
        <time>2019-08-16T10:36:42Z</time>
      </trkpt>
      <trkpt lat="42.0505390" lon="-6.5754360">
        <ele>959.6</ele>
        <time>2019-08-16T10:36:43Z</time>
      </trkpt>
      <trkpt lat="42.0505360" lon="-6.5755070">
        <ele>959.6</ele>
        <time>2019-08-16T10:36:44Z</time>
      </trkpt>
      <trkpt lat="42.0505370" lon="-6.5755750">
        <ele>959.6</ele>
        <time>2019-08-16T10:36:45Z</time>
      </trkpt>
      <trkpt lat="42.0505420" lon="-6.5756410">
        <ele>959.6</ele>
        <time>2019-08-16T10:36:46Z</time>
      </trkpt>
      <trkpt lat="42.0505530" lon="-6.5757050">
        <ele>959.6</ele>
        <time>2019-08-16T10:36:47Z</time>
      </trkpt>
      <trkpt lat="42.0505670" lon="-6.5757710">
        <ele>959.6</ele>
        <time>2019-08-16T10:36:48Z</time>
      </trkpt>
      <trkpt lat="42.0505840" lon="-6.5758350">
        <ele>959.6</ele>
        <time>2019-08-16T10:36:49Z</time>
      </trkpt>
      <trkpt lat="42.0505990" lon="-6.5759020">
        <ele>959.6</ele>
        <time>2019-08-16T10:36:50Z</time>
      </trkpt>
      <trkpt lat="42.0506090" lon="-6.5759680">
        <ele>959.6</ele>
        <time>2019-08-16T10:36:51Z</time>
      </trkpt>
      <trkpt lat="42.0506090" lon="-6.5760320">
        <ele>959.5</ele>
        <time>2019-08-16T10:36:52Z</time>
      </trkpt>
      <trkpt lat="42.0505980" lon="-6.5761010">
        <ele>959.5</ele>
        <time>2019-08-16T10:36:53Z</time>
      </trkpt>
      <trkpt lat="42.0505800" lon="-6.5761720">
        <ele>959.5</ele>
        <time>2019-08-16T10:36:54Z</time>
      </trkpt>
      <trkpt lat="42.0505540" lon="-6.5762410">
        <ele>959.4</ele>
        <time>2019-08-16T10:36:55Z</time>
      </trkpt>
      <trkpt lat="42.0505170" lon="-6.5763040">
        <ele>959.3</ele>
        <time>2019-08-16T10:36:56Z</time>
      </trkpt>
      <trkpt lat="42.0504800" lon="-6.5763550">
        <ele>959.3</ele>
        <time>2019-08-16T10:36:57Z</time>
      </trkpt>
      <trkpt lat="42.0504490" lon="-6.5764000">
        <ele>959.2</ele>
        <time>2019-08-16T10:36:58Z</time>
      </trkpt>
      <trkpt lat="42.0504330" lon="-6.5764490">
        <ele>959.1</ele>
        <time>2019-08-16T10:36:59Z</time>
      </trkpt>
      <trkpt lat="42.0504340" lon="-6.5765000">
        <ele>959.1</ele>
        <time>2019-08-16T10:37:00Z</time>
      </trkpt>
      <trkpt lat="42.0504390" lon="-6.5765450">
        <ele>959.1</ele>
        <time>2019-08-16T10:37:01Z</time>
      </trkpt>
      <trkpt lat="42.0504510" lon="-6.5765830">
        <ele>959.1</ele>
        <time>2019-08-16T10:37:02Z</time>
      </trkpt>
      <trkpt lat="42.0504790" lon="-6.5766380">
        <ele>959.2</ele>
        <time>2019-08-16T10:37:04Z</time>
      </trkpt>
      <trkpt lat="42.0504950" lon="-6.5766700">
        <ele>959.2</ele>
        <time>2019-08-16T10:37:05Z</time>
      </trkpt>
      <trkpt lat="42.0505140" lon="-6.5767110">
        <ele>959.3</ele>
        <time>2019-08-16T10:37:06Z</time>
      </trkpt>
      <trkpt lat="42.0505320" lon="-6.5767560">
        <ele>959.4</ele>
        <time>2019-08-16T10:37:07Z</time>
      </trkpt>
      <trkpt lat="42.0505490" lon="-6.5768030">
        <ele>959.4</ele>
        <time>2019-08-16T10:37:08Z</time>
      </trkpt>
      <trkpt lat="42.0505670" lon="-6.5768510">
        <ele>959.5</ele>
        <time>2019-08-16T10:37:09Z</time>
      </trkpt>
      <trkpt lat="42.0505830" lon="-6.5768960">
        <ele>959.6</ele>
        <time>2019-08-16T10:37:10Z</time>
      </trkpt>
      <trkpt lat="42.0505990" lon="-6.5769400">
        <ele>959.7</ele>
        <time>2019-08-16T10:37:11Z</time>
      </trkpt>
      <trkpt lat="42.0506140" lon="-6.5769820">
        <ele>959.8</ele>
        <time>2019-08-16T10:37:12Z</time>
      </trkpt>
      <trkpt lat="42.0506270" lon="-6.5770230">
        <ele>959.9</ele>
        <time>2019-08-16T10:37:13Z</time>
      </trkpt>
      <trkpt lat="42.0506410" lon="-6.5770640">
        <ele>960.1</ele>
        <time>2019-08-16T10:37:14Z</time>
      </trkpt>
      <trkpt lat="42.0506530" lon="-6.5771060">
        <ele>960.2</ele>
        <time>2019-08-16T10:37:15Z</time>
      </trkpt>
      <trkpt lat="42.0506620" lon="-6.5771450">
        <ele>960.4</ele>
        <time>2019-08-16T10:37:16Z</time>
      </trkpt>
      <trkpt lat="42.0506690" lon="-6.5771840">
        <ele>960.5</ele>
        <time>2019-08-16T10:37:17Z</time>
      </trkpt>
      <trkpt lat="42.0506760" lon="-6.5772220">
        <ele>960.6</ele>
        <time>2019-08-16T10:37:18Z</time>
      </trkpt>
      <trkpt lat="42.0506820" lon="-6.5772600">
        <ele>960.7</ele>
        <time>2019-08-16T10:37:19Z</time>
      </trkpt>
      <trkpt lat="42.0506890" lon="-6.5772980">
        <ele>960.9</ele>
        <time>2019-08-16T10:37:20Z</time>
      </trkpt>
      <trkpt lat="42.0506970" lon="-6.5773370">
        <ele>961.0</ele>
        <time>2019-08-16T10:37:21Z</time>
      </trkpt>
      <trkpt lat="42.0507060" lon="-6.5773790">
        <ele>961.1</ele>
        <time>2019-08-16T10:37:22Z</time>
      </trkpt>
      <trkpt lat="42.0507140" lon="-6.5774220">
        <ele>961.2</ele>
        <time>2019-08-16T10:37:23Z</time>
      </trkpt>
      <trkpt lat="42.0507240" lon="-6.5774660">
        <ele>961.3</ele>
        <time>2019-08-16T10:37:24Z</time>
      </trkpt>
      <trkpt lat="42.0507350" lon="-6.5775110">
        <ele>961.2</ele>
        <time>2019-08-16T10:37:25Z</time>
      </trkpt>
      <trkpt lat="42.0507480" lon="-6.5775560">
        <ele>961.2</ele>
        <time>2019-08-16T10:37:26Z</time>
      </trkpt>
      <trkpt lat="42.0507600" lon="-6.5775990">
        <ele>961.2</ele>
        <time>2019-08-16T10:37:27Z</time>
      </trkpt>
      <trkpt lat="42.0507730" lon="-6.5776400">
        <ele>961.2</ele>
        <time>2019-08-16T10:37:28Z</time>
      </trkpt>
      <trkpt lat="42.0507870" lon="-6.5776810">
        <ele>961.1</ele>
        <time>2019-08-16T10:37:29Z</time>
      </trkpt>
      <trkpt lat="42.0508010" lon="-6.5777190">
        <ele>961.1</ele>
        <time>2019-08-16T10:37:30Z</time>
      </trkpt>
      <trkpt lat="42.0508160" lon="-6.5777560">
        <ele>961.1</ele>
        <time>2019-08-16T10:37:31Z</time>
      </trkpt>
      <trkpt lat="42.0508330" lon="-6.5777860">
        <ele>961.1</ele>
        <time>2019-08-16T10:37:32Z</time>
      </trkpt>
      <trkpt lat="42.0508500" lon="-6.5778150">
        <ele>961.1</ele>
        <time>2019-08-16T10:37:33Z</time>
      </trkpt>
      <trkpt lat="42.0508710" lon="-6.5778430">
        <ele>961.0</ele>
        <time>2019-08-16T10:37:34Z</time>
      </trkpt>
      <trkpt lat="42.0508970" lon="-6.5778700">
        <ele>961.0</ele>
        <time>2019-08-16T10:37:35Z</time>
      </trkpt>
      <trkpt lat="42.0509290" lon="-6.5778960">
        <ele>961.0</ele>
        <time>2019-08-16T10:37:36Z</time>
      </trkpt>
      <trkpt lat="42.0509640" lon="-6.5779230">
        <ele>961.1</ele>
        <time>2019-08-16T10:37:37Z</time>
      </trkpt>
      <trkpt lat="42.0510000" lon="-6.5779500">
        <ele>961.1</ele>
        <time>2019-08-16T10:37:38Z</time>
      </trkpt>
      <trkpt lat="42.0510370" lon="-6.5779730">
        <ele>961.1</ele>
        <time>2019-08-16T10:37:39Z</time>
      </trkpt>
      <trkpt lat="42.0510740" lon="-6.5779910">
        <ele>961.1</ele>
        <time>2019-08-16T10:37:40Z</time>
      </trkpt>
      <trkpt lat="42.0511120" lon="-6.5780050">
        <ele>961.2</ele>
        <time>2019-08-16T10:37:41Z</time>
      </trkpt>
      <trkpt lat="42.0511490" lon="-6.5780210">
        <ele>961.2</ele>
        <time>2019-08-16T10:37:42Z</time>
      </trkpt>
      <trkpt lat="42.0511880" lon="-6.5780360">
        <ele>961.2</ele>
        <time>2019-08-16T10:37:43Z</time>
      </trkpt>
      <trkpt lat="42.0512300" lon="-6.5780500">
        <ele>961.2</ele>
        <time>2019-08-16T10:37:44Z</time>
      </trkpt>
      <trkpt lat="42.0512720" lon="-6.5780640">
        <ele>961.3</ele>
        <time>2019-08-16T10:37:45Z</time>
      </trkpt>
      <trkpt lat="42.0513130" lon="-6.5780780">
        <ele>961.3</ele>
        <time>2019-08-16T10:37:46Z</time>
      </trkpt>
      <trkpt lat="42.0513520" lon="-6.5780920">
        <ele>961.3</ele>
        <time>2019-08-16T10:37:47Z</time>
      </trkpt>
      <trkpt lat="42.0513920" lon="-6.5781100">
        <ele>961.3</ele>
        <time>2019-08-16T10:37:48Z</time>
      </trkpt>
      <trkpt lat="42.0514330" lon="-6.5781330">
        <ele>961.4</ele>
        <time>2019-08-16T10:37:49Z</time>
      </trkpt>
      <trkpt lat="42.0514750" lon="-6.5781620">
        <ele>961.4</ele>
        <time>2019-08-16T10:37:50Z</time>
      </trkpt>
      <trkpt lat="42.0515160" lon="-6.5782000">
        <ele>961.4</ele>
        <time>2019-08-16T10:37:51Z</time>
      </trkpt>
      <trkpt lat="42.0515560" lon="-6.5782450">
        <ele>961.4</ele>
        <time>2019-08-16T10:37:52Z</time>
      </trkpt>
      <trkpt lat="42.0515930" lon="-6.5782960">
        <ele>961.4</ele>
        <time>2019-08-16T10:37:53Z</time>
      </trkpt>
      <trkpt lat="42.0516280" lon="-6.5783490">
        <ele>961.4</ele>
        <time>2019-08-16T10:37:54Z</time>
      </trkpt>
      <trkpt lat="42.0516620" lon="-6.5784020">
        <ele>961.4</ele>
        <time>2019-08-16T10:37:55Z</time>
      </trkpt>
      <trkpt lat="42.0516940" lon="-6.5784530">
        <ele>961.4</ele>
        <time>2019-08-16T10:37:56Z</time>
      </trkpt>
      <trkpt lat="42.0517270" lon="-6.5785020">
        <ele>961.3</ele>
        <time>2019-08-16T10:37:57Z</time>
      </trkpt>
      <trkpt lat="42.0517590" lon="-6.5785500">
        <ele>961.3</ele>
        <time>2019-08-16T10:37:58Z</time>
      </trkpt>
      <trkpt lat="42.0517870" lon="-6.5785980">
        <ele>961.2</ele>
        <time>2019-08-16T10:37:59Z</time>
      </trkpt>
      <trkpt lat="42.0518080" lon="-6.5786490">
        <ele>961.2</ele>
        <time>2019-08-16T10:38:00Z</time>
      </trkpt>
      <trkpt lat="42.0518190" lon="-6.5787030">
        <ele>961.1</ele>
        <time>2019-08-16T10:38:01Z</time>
      </trkpt>
      <trkpt lat="42.0518230" lon="-6.5787590">
        <ele>961.1</ele>
        <time>2019-08-16T10:38:02Z</time>
      </trkpt>
      <trkpt lat="42.0518230" lon="-6.5788110">
        <ele>961.1</ele>
        <time>2019-08-16T10:38:03Z</time>
      </trkpt>
      <trkpt lat="42.0518220" lon="-6.5788610">
        <ele>961.0</ele>
        <time>2019-08-16T10:38:04Z</time>
      </trkpt>
      <trkpt lat="42.0518200" lon="-6.5789090">
        <ele>961.0</ele>
        <time>2019-08-16T10:38:05Z</time>
      </trkpt>
      <trkpt lat="42.0518200" lon="-6.5789590">
        <ele>960.9</ele>
        <time>2019-08-16T10:38:06Z</time>
      </trkpt>
      <trkpt lat="42.0518250" lon="-6.5790100">
        <ele>961.1</ele>
        <time>2019-08-16T10:38:07Z</time>
      </trkpt>
      <trkpt lat="42.0518360" lon="-6.5790580">
        <ele>961.2</ele>
        <time>2019-08-16T10:38:08Z</time>
      </trkpt>
      <trkpt lat="42.0518560" lon="-6.5791010">
        <ele>961.4</ele>
        <time>2019-08-16T10:38:09Z</time>
      </trkpt>
      <trkpt lat="42.0518780" lon="-6.5791410">
        <ele>961.5</ele>
        <time>2019-08-16T10:38:10Z</time>
      </trkpt>
      <trkpt lat="42.0519010" lon="-6.5791790">
        <ele>961.7</ele>
        <time>2019-08-16T10:38:11Z</time>
      </trkpt>
      <trkpt lat="42.0519260" lon="-6.5792160">
        <ele>961.9</ele>
        <time>2019-08-16T10:38:12Z</time>
      </trkpt>
      <trkpt lat="42.0519520" lon="-6.5792530">
        <ele>962.0</ele>
        <time>2019-08-16T10:38:13Z</time>
      </trkpt>
      <trkpt lat="42.0519790" lon="-6.5792870">
        <ele>962.2</ele>
        <time>2019-08-16T10:38:14Z</time>
      </trkpt>
      <trkpt lat="42.0520040" lon="-6.5793210">
        <ele>962.4</ele>
        <time>2019-08-16T10:38:15Z</time>
      </trkpt>
      <trkpt lat="42.0520290" lon="-6.5793550">
        <ele>962.5</ele>
        <time>2019-08-16T10:38:16Z</time>
      </trkpt>
      <trkpt lat="42.0520530" lon="-6.5793900">
        <ele>962.7</ele>
        <time>2019-08-16T10:38:17Z</time>
      </trkpt>
      <trkpt lat="42.0520770" lon="-6.5794250">
        <ele>962.9</ele>
        <time>2019-08-16T10:38:18Z</time>
      </trkpt>
      <trkpt lat="42.0520990" lon="-6.5794590">
        <ele>963.1</ele>
        <time>2019-08-16T10:38:19Z</time>
      </trkpt>
      <trkpt lat="42.0521230" lon="-6.5794920">
        <ele>963.3</ele>
        <time>2019-08-16T10:38:20Z</time>
      </trkpt>
      <trkpt lat="42.0521450" lon="-6.5795270">
        <ele>963.4</ele>
        <time>2019-08-16T10:38:21Z</time>
      </trkpt>
      <trkpt lat="42.0521650" lon="-6.5795620">
        <ele>963.6</ele>
        <time>2019-08-16T10:38:22Z</time>
      </trkpt>
      <trkpt lat="42.0521840" lon="-6.5795970">
        <ele>963.8</ele>
        <time>2019-08-16T10:38:23Z</time>
      </trkpt>
      <trkpt lat="42.0522030" lon="-6.5796330">
        <ele>964.1</ele>
        <time>2019-08-16T10:38:24Z</time>
      </trkpt>
      <trkpt lat="42.0522200" lon="-6.5796660">
        <ele>964.1</ele>
        <time>2019-08-16T10:38:25Z</time>
      </trkpt>
      <trkpt lat="42.0522350" lon="-6.5796970">
        <ele>964.1</ele>
        <time>2019-08-16T10:38:26Z</time>
      </trkpt>
      <trkpt lat="42.0522520" lon="-6.5797290">
        <ele>964.2</ele>
        <time>2019-08-16T10:38:27Z</time>
      </trkpt>
      <trkpt lat="42.0522690" lon="-6.5797650">
        <ele>964.2</ele>
        <time>2019-08-16T10:38:28Z</time>
      </trkpt>
      <trkpt lat="42.0522880" lon="-6.5798010">
        <ele>964.3</ele>
        <time>2019-08-16T10:38:29Z</time>
      </trkpt>
      <trkpt lat="42.0523060" lon="-6.5798380">
        <ele>964.4</ele>
        <time>2019-08-16T10:38:30Z</time>
      </trkpt>
      <trkpt lat="42.0523240" lon="-6.5798760">
        <ele>964.4</ele>
        <time>2019-08-16T10:38:31Z</time>
      </trkpt>
      <trkpt lat="42.0523420" lon="-6.5799150">
        <ele>964.5</ele>
        <time>2019-08-16T10:38:32Z</time>
      </trkpt>
      <trkpt lat="42.0523600" lon="-6.5799540">
        <ele>964.6</ele>
        <time>2019-08-16T10:38:33Z</time>
      </trkpt>
      <trkpt lat="42.0523780" lon="-6.5799930">
        <ele>964.6</ele>
        <time>2019-08-16T10:38:34Z</time>
      </trkpt>
      <trkpt lat="42.0523970" lon="-6.5800330">
        <ele>964.7</ele>
        <time>2019-08-16T10:38:35Z</time>
      </trkpt>
      <trkpt lat="42.0524150" lon="-6.5800730">
        <ele>964.8</ele>
        <time>2019-08-16T10:38:36Z</time>
      </trkpt>
      <trkpt lat="42.0524340" lon="-6.5801130">
        <ele>964.9</ele>
        <time>2019-08-16T10:38:37Z</time>
      </trkpt>
      <trkpt lat="42.0524520" lon="-6.5801520">
        <ele>965.0</ele>
        <time>2019-08-16T10:38:38Z</time>
      </trkpt>
      <trkpt lat="42.0524700" lon="-6.5801920">
        <ele>965.0</ele>
        <time>2019-08-16T10:38:39Z</time>
      </trkpt>
      <trkpt lat="42.0524880" lon="-6.5802310">
        <ele>965.1</ele>
        <time>2019-08-16T10:38:40Z</time>
      </trkpt>
      <trkpt lat="42.0525060" lon="-6.5802700">
        <ele>965.2</ele>
        <time>2019-08-16T10:38:41Z</time>
      </trkpt>
      <trkpt lat="42.0525240" lon="-6.5803080">
        <ele>965.3</ele>
        <time>2019-08-16T10:38:42Z</time>
      </trkpt>
      <trkpt lat="42.0525410" lon="-6.5803460">
        <ele>965.3</ele>
        <time>2019-08-16T10:38:43Z</time>
      </trkpt>
      <trkpt lat="42.0525580" lon="-6.5803840">
        <ele>965.4</ele>
        <time>2019-08-16T10:38:44Z</time>
      </trkpt>
      <trkpt lat="42.0525740" lon="-6.5804220">
        <ele>965.5</ele>
        <time>2019-08-16T10:38:45Z</time>
      </trkpt>
      <trkpt lat="42.0525910" lon="-6.5804590">
        <ele>965.5</ele>
        <time>2019-08-16T10:38:46Z</time>
      </trkpt>
      <trkpt lat="42.0526070" lon="-6.5804960">
        <ele>965.6</ele>
        <time>2019-08-16T10:38:47Z</time>
      </trkpt>
      <trkpt lat="42.0526250" lon="-6.5805320">
        <ele>965.6</ele>
        <time>2019-08-16T10:38:48Z</time>
      </trkpt>
      <trkpt lat="42.0526420" lon="-6.5805690">
        <ele>965.7</ele>
        <time>2019-08-16T10:38:49Z</time>
      </trkpt>
      <trkpt lat="42.0526600" lon="-6.5806070">
        <ele>965.8</ele>
        <time>2019-08-16T10:38:50Z</time>
      </trkpt>
      <trkpt lat="42.0526790" lon="-6.5806460">
        <ele>965.8</ele>
        <time>2019-08-16T10:38:51Z</time>
      </trkpt>
      <trkpt lat="42.0526990" lon="-6.5806870">
        <ele>965.8</ele>
        <time>2019-08-16T10:38:52Z</time>
      </trkpt>
      <trkpt lat="42.0527210" lon="-6.5807320">
        <ele>965.8</ele>
        <time>2019-08-16T10:38:53Z</time>
      </trkpt>
      <trkpt lat="42.0527440" lon="-6.5807790">
        <ele>965.7</ele>
        <time>2019-08-16T10:38:54Z</time>
      </trkpt>
      <trkpt lat="42.0527670" lon="-6.5808290">
        <ele>965.6</ele>
        <time>2019-08-16T10:38:55Z</time>
      </trkpt>
      <trkpt lat="42.0527920" lon="-6.5808810">
        <ele>965.5</ele>
        <time>2019-08-16T10:38:56Z</time>
      </trkpt>
      <trkpt lat="42.0528170" lon="-6.5809340">
        <ele>965.4</ele>
        <time>2019-08-16T10:38:57Z</time>
      </trkpt>
      <trkpt lat="42.0528410" lon="-6.5809870">
        <ele>965.3</ele>
        <time>2019-08-16T10:38:58Z</time>
      </trkpt>
      <trkpt lat="42.0528660" lon="-6.5810430">
        <ele>965.2</ele>
        <time>2019-08-16T10:38:59Z</time>
      </trkpt>
      <trkpt lat="42.0528910" lon="-6.5810990">
        <ele>965.0</ele>
        <time>2019-08-16T10:39:00Z</time>
      </trkpt>
      <trkpt lat="42.0529180" lon="-6.5811540">
        <ele>964.9</ele>
        <time>2019-08-16T10:39:01Z</time>
      </trkpt>
      <trkpt lat="42.0529460" lon="-6.5812110">
        <ele>964.7</ele>
        <time>2019-08-16T10:39:02Z</time>
      </trkpt>
      <trkpt lat="42.0529730" lon="-6.5812690">
        <ele>964.6</ele>
        <time>2019-08-16T10:39:03Z</time>
      </trkpt>
      <trkpt lat="42.0529980" lon="-6.5813280">
        <ele>964.4</ele>
        <time>2019-08-16T10:39:04Z</time>
      </trkpt>
      <trkpt lat="42.0530240" lon="-6.5813870">
        <ele>964.3</ele>
        <time>2019-08-16T10:39:05Z</time>
      </trkpt>
      <trkpt lat="42.0530510" lon="-6.5814450">
        <ele>964.1</ele>
        <time>2019-08-16T10:39:06Z</time>
      </trkpt>
      <trkpt lat="42.0530780" lon="-6.5815030">
        <ele>964.0</ele>
        <time>2019-08-16T10:39:07Z</time>
      </trkpt>
      <trkpt lat="42.0531030" lon="-6.5815610">
        <ele>963.9</ele>
        <time>2019-08-16T10:39:08Z</time>
      </trkpt>
      <trkpt lat="42.0531270" lon="-6.5816200">
        <ele>963.8</ele>
        <time>2019-08-16T10:39:09Z</time>
      </trkpt>
      <trkpt lat="42.0531500" lon="-6.5816790">
        <ele>963.7</ele>
        <time>2019-08-16T10:39:10Z</time>
      </trkpt>
      <trkpt lat="42.0531720" lon="-6.5817390">
        <ele>963.6</ele>
        <time>2019-08-16T10:39:11Z</time>
      </trkpt>
      <trkpt lat="42.0531950" lon="-6.5818010">
        <ele>963.6</ele>
        <time>2019-08-16T10:39:12Z</time>
      </trkpt>
      <trkpt lat="42.0532160" lon="-6.5818660">
        <ele>963.6</ele>
        <time>2019-08-16T10:39:13Z</time>
      </trkpt>
      <trkpt lat="42.0532380" lon="-6.5819330">
        <ele>963.6</ele>
        <time>2019-08-16T10:39:14Z</time>
      </trkpt>
      <trkpt lat="42.0532600" lon="-6.5820020">
        <ele>963.6</ele>
        <time>2019-08-16T10:39:15Z</time>
      </trkpt>
      <trkpt lat="42.0532800" lon="-6.5820720">
        <ele>963.6</ele>
        <time>2019-08-16T10:39:16Z</time>
      </trkpt>
      <trkpt lat="42.0532970" lon="-6.5821440">
        <ele>963.6</ele>
        <time>2019-08-16T10:39:17Z</time>
      </trkpt>
      <trkpt lat="42.0533110" lon="-6.5822170">
        <ele>963.6</ele>
        <time>2019-08-16T10:39:18Z</time>
      </trkpt>
      <trkpt lat="42.0533230" lon="-6.5822920">
        <ele>963.6</ele>
        <time>2019-08-16T10:39:19Z</time>
      </trkpt>
      <trkpt lat="42.0533300" lon="-6.5823680">
        <ele>963.6</ele>
        <time>2019-08-16T10:39:20Z</time>
      </trkpt>
      <trkpt lat="42.0533330" lon="-6.5824470">
        <ele>963.6</ele>
        <time>2019-08-16T10:39:21Z</time>
      </trkpt>
      <trkpt lat="42.0533300" lon="-6.5825260">
        <ele>963.6</ele>
        <time>2019-08-16T10:39:22Z</time>
      </trkpt>
      <trkpt lat="42.0533210" lon="-6.5826040">
        <ele>963.6</ele>
        <time>2019-08-16T10:39:23Z</time>
      </trkpt>
      <trkpt lat="42.0533080" lon="-6.5826800">
        <ele>963.7</ele>
        <time>2019-08-16T10:39:24Z</time>
      </trkpt>
      <trkpt lat="42.0532920" lon="-6.5827540">
        <ele>963.7</ele>
        <time>2019-08-16T10:39:25Z</time>
      </trkpt>
      <trkpt lat="42.0532770" lon="-6.5828240">
        <ele>963.7</ele>
        <time>2019-08-16T10:39:26Z</time>
      </trkpt>
      <trkpt lat="42.0532610" lon="-6.5828910">
        <ele>963.7</ele>
        <time>2019-08-16T10:39:27Z</time>
      </trkpt>
      <trkpt lat="42.0532460" lon="-6.5829580">
        <ele>963.7</ele>
        <time>2019-08-16T10:39:28Z</time>
      </trkpt>
      <trkpt lat="42.0532310" lon="-6.5830250">
        <ele>963.7</ele>
        <time>2019-08-16T10:39:29Z</time>
      </trkpt>
      <trkpt lat="42.0532160" lon="-6.5830920">
        <ele>963.7</ele>
        <time>2019-08-16T10:39:30Z</time>
      </trkpt>
      <trkpt lat="42.0532000" lon="-6.5831600">
        <ele>963.6</ele>
        <time>2019-08-16T10:39:31Z</time>
      </trkpt>
      <trkpt lat="42.0531820" lon="-6.5832290">
        <ele>963.6</ele>
        <time>2019-08-16T10:39:32Z</time>
      </trkpt>
      <trkpt lat="42.0531660" lon="-6.5832990">
        <ele>963.6</ele>
        <time>2019-08-16T10:39:33Z</time>
      </trkpt>
      <trkpt lat="42.0531500" lon="-6.5833670">
        <ele>963.5</ele>
        <time>2019-08-16T10:39:34Z</time>
      </trkpt>
      <trkpt lat="42.0531350" lon="-6.5834330">
        <ele>963.4</ele>
        <time>2019-08-16T10:39:35Z</time>
      </trkpt>
      <trkpt lat="42.0531210" lon="-6.5834980">
        <ele>963.3</ele>
        <time>2019-08-16T10:39:36Z</time>
      </trkpt>
      <trkpt lat="42.0531070" lon="-6.5835620">
        <ele>963.1</ele>
        <time>2019-08-16T10:39:37Z</time>
      </trkpt>
      <trkpt lat="42.0530920" lon="-6.5836280">
        <ele>962.8</ele>
        <time>2019-08-16T10:39:38Z</time>
      </trkpt>
      <trkpt lat="42.0530760" lon="-6.5836970">
        <ele>962.5</ele>
        <time>2019-08-16T10:39:39Z</time>
      </trkpt>
      <trkpt lat="42.0530580" lon="-6.5837690">
        <ele>962.2</ele>
        <time>2019-08-16T10:39:40Z</time>
      </trkpt>
      <trkpt lat="42.0530390" lon="-6.5838430">
        <ele>961.9</ele>
        <time>2019-08-16T10:39:41Z</time>
      </trkpt>
      <trkpt lat="42.0530180" lon="-6.5839220">
        <ele>961.6</ele>
        <time>2019-08-16T10:39:42Z</time>
      </trkpt>
      <trkpt lat="42.0529950" lon="-6.5840030">
        <ele>961.1</ele>
        <time>2019-08-16T10:39:43Z</time>
      </trkpt>
      <trkpt lat="42.0529720" lon="-6.5840880">
        <ele>960.6</ele>
        <time>2019-08-16T10:39:44Z</time>
      </trkpt>
      <trkpt lat="42.0529520" lon="-6.5841810">
        <ele>960.0</ele>
        <time>2019-08-16T10:39:45Z</time>
      </trkpt>
      <trkpt lat="42.0529350" lon="-6.5842740">
        <ele>959.6</ele>
        <time>2019-08-16T10:39:46Z</time>
      </trkpt>
      <trkpt lat="42.0529250" lon="-6.5843710">
        <ele>959.1</ele>
        <time>2019-08-16T10:39:47Z</time>
      </trkpt>
      <trkpt lat="42.0529210" lon="-6.5844700">
        <ele>958.4</ele>
        <time>2019-08-16T10:39:48Z</time>
      </trkpt>
      <trkpt lat="42.0529270" lon="-6.5845690">
        <ele>957.8</ele>
        <time>2019-08-16T10:39:49Z</time>
      </trkpt>
      <trkpt lat="42.0529460" lon="-6.5846650">
        <ele>957.3</ele>
        <time>2019-08-16T10:39:50Z</time>
      </trkpt>
      <trkpt lat="42.0529840" lon="-6.5847530">
        <ele>956.7</ele>
        <time>2019-08-16T10:39:51Z</time>
      </trkpt>
      <trkpt lat="42.0530390" lon="-6.5848270">
        <ele>956.1</ele>
        <time>2019-08-16T10:39:52Z</time>
      </trkpt>
      <trkpt lat="42.0531080" lon="-6.5848830">
        <ele>955.7</ele>
        <time>2019-08-16T10:39:53Z</time>
      </trkpt>
      <trkpt lat="42.0531870" lon="-6.5849220">
        <ele>955.2</ele>
        <time>2019-08-16T10:39:54Z</time>
      </trkpt>
      <trkpt lat="42.0532690" lon="-6.5849540">
        <ele>954.6</ele>
        <time>2019-08-16T10:39:55Z</time>
      </trkpt>
      <trkpt lat="42.0533520" lon="-6.5849860">
        <ele>954.0</ele>
        <time>2019-08-16T10:39:56Z</time>
      </trkpt>
      <trkpt lat="42.0534330" lon="-6.5850230">
        <ele>953.6</ele>
        <time>2019-08-16T10:39:57Z</time>
      </trkpt>
      <trkpt lat="42.0535110" lon="-6.5850660">
        <ele>953.1</ele>
        <time>2019-08-16T10:39:58Z</time>
      </trkpt>
      <trkpt lat="42.0535830" lon="-6.5851170">
        <ele>952.4</ele>
        <time>2019-08-16T10:39:59Z</time>
      </trkpt>
      <trkpt lat="42.0536470" lon="-6.5851780">
        <ele>951.9</ele>
        <time>2019-08-16T10:40:00Z</time>
      </trkpt>
      <trkpt lat="42.0537010" lon="-6.5852560">
        <ele>951.3</ele>
        <time>2019-08-16T10:40:01Z</time>
      </trkpt>
      <trkpt lat="42.0537410" lon="-6.5853550">
        <ele>950.6</ele>
        <time>2019-08-16T10:40:02Z</time>
      </trkpt>
      <trkpt lat="42.0537680" lon="-6.5854680">
        <ele>950.0</ele>
        <time>2019-08-16T10:40:03Z</time>
      </trkpt>
      <trkpt lat="42.0537870" lon="-6.5855820">
        <ele>949.5</ele>
        <time>2019-08-16T10:40:04Z</time>
      </trkpt>
      <trkpt lat="42.0538110" lon="-6.5856970">
        <ele>948.9</ele>
        <time>2019-08-16T10:40:05Z</time>
      </trkpt>
      <trkpt lat="42.0538470" lon="-6.5858100">
        <ele>948.2</ele>
        <time>2019-08-16T10:40:06Z</time>
      </trkpt>
      <trkpt lat="42.0538900" lon="-6.5859230">
        <ele>947.5</ele>
        <time>2019-08-16T10:40:07Z</time>
      </trkpt>
      <trkpt lat="42.0539410" lon="-6.5860360">
        <ele>946.8</ele>
        <time>2019-08-16T10:40:08Z</time>
      </trkpt>
      <trkpt lat="42.0539990" lon="-6.5861480">
        <ele>945.9</ele>
        <time>2019-08-16T10:40:09Z</time>
      </trkpt>
      <trkpt lat="42.0540570" lon="-6.5862620">
        <ele>945.2</ele>
        <time>2019-08-16T10:40:10Z</time>
      </trkpt>
      <trkpt lat="42.0541100" lon="-6.5863800">
        <ele>944.4</ele>
        <time>2019-08-16T10:40:11Z</time>
      </trkpt>
      <trkpt lat="42.0541590" lon="-6.5865000">
        <ele>943.6</ele>
        <time>2019-08-16T10:40:12Z</time>
      </trkpt>
      <trkpt lat="42.0542070" lon="-6.5866140">
        <ele>942.9</ele>
        <time>2019-08-16T10:40:13Z</time>
      </trkpt>
      <trkpt lat="42.0542530" lon="-6.5867190">
        <ele>942.4</ele>
        <time>2019-08-16T10:40:14Z</time>
      </trkpt>
      <trkpt lat="42.0542980" lon="-6.5868150">
        <ele>941.8</ele>
        <time>2019-08-16T10:40:15Z</time>
      </trkpt>
      <trkpt lat="42.0543490" lon="-6.5868950">
        <ele>941.2</ele>
        <time>2019-08-16T10:40:16Z</time>
      </trkpt>
      <trkpt lat="42.0544100" lon="-6.5869570">
        <ele>940.6</ele>
        <time>2019-08-16T10:40:17Z</time>
      </trkpt>
      <trkpt lat="42.0544800" lon="-6.5870000">
        <ele>940.2</ele>
        <time>2019-08-16T10:40:18Z</time>
      </trkpt>
      <trkpt lat="42.0545540" lon="-6.5870240">
        <ele>939.8</ele>
        <time>2019-08-16T10:40:19Z</time>
      </trkpt>
      <trkpt lat="42.0546280" lon="-6.5870320">
        <ele>939.2</ele>
        <time>2019-08-16T10:40:20Z</time>
      </trkpt>
      <trkpt lat="42.0547020" lon="-6.5870290">
        <ele>938.8</ele>
        <time>2019-08-16T10:40:21Z</time>
      </trkpt>
      <trkpt lat="42.0547740" lon="-6.5870240">
        <ele>938.3</ele>
        <time>2019-08-16T10:40:22Z</time>
      </trkpt>
      <trkpt lat="42.0548430" lon="-6.5870140">
        <ele>937.8</ele>
        <time>2019-08-16T10:40:23Z</time>
      </trkpt>
      <trkpt lat="42.0549070" lon="-6.5870000">
        <ele>937.3</ele>
        <time>2019-08-16T10:40:24Z</time>
      </trkpt>
      <trkpt lat="42.0549680" lon="-6.5869910">
        <ele>936.9</ele>
        <time>2019-08-16T10:40:25Z</time>
      </trkpt>
      <trkpt lat="42.0550250" lon="-6.5869830">
        <ele>936.5</ele>
        <time>2019-08-16T10:40:26Z</time>
      </trkpt>
      <trkpt lat="42.0550790" lon="-6.5869710">
        <ele>936.1</ele>
        <time>2019-08-16T10:40:27Z</time>
      </trkpt>
      <trkpt lat="42.0551270" lon="-6.5869560">
        <ele>935.7</ele>
        <time>2019-08-16T10:40:28Z</time>
      </trkpt>
      <trkpt lat="42.0551730" lon="-6.5869430">
        <ele>935.4</ele>
        <time>2019-08-16T10:40:29Z</time>
      </trkpt>
      <trkpt lat="42.0552190" lon="-6.5869330">
        <ele>935.0</ele>
        <time>2019-08-16T10:40:30Z</time>
      </trkpt>
      <trkpt lat="42.0552620" lon="-6.5869210">
        <ele>934.8</ele>
        <time>2019-08-16T10:40:31Z</time>
      </trkpt>
      <trkpt lat="42.0553010" lon="-6.5869070">
        <ele>934.6</ele>
        <time>2019-08-16T10:40:32Z</time>
      </trkpt>
      <trkpt lat="42.0553400" lon="-6.5868990">
        <ele>934.4</ele>
        <time>2019-08-16T10:40:33Z</time>
      </trkpt>
      <trkpt lat="42.0553760" lon="-6.5868900">
        <ele>934.2</ele>
        <time>2019-08-16T10:40:34Z</time>
      </trkpt>
      <trkpt lat="42.0554100" lon="-6.5868880">
        <ele>934.0</ele>
        <time>2019-08-16T10:40:35Z</time>
      </trkpt>
      <trkpt lat="42.0554440" lon="-6.5868780">
        <ele>933.7</ele>
        <time>2019-08-16T10:40:36Z</time>
      </trkpt>
      <trkpt lat="42.0554790" lon="-6.5868640">
        <ele>933.4</ele>
        <time>2019-08-16T10:40:37Z</time>
      </trkpt>
      <trkpt lat="42.0555250" lon="-6.5868490">
        <ele>933.0</ele>
        <time>2019-08-16T10:40:38Z</time>
      </trkpt>
      <trkpt lat="42.0555710" lon="-6.5868410">
        <ele>932.7</ele>
        <time>2019-08-16T10:40:39Z</time>
      </trkpt>
      <trkpt lat="42.0556210" lon="-6.5868320">
        <ele>932.5</ele>
        <time>2019-08-16T10:40:40Z</time>
      </trkpt>
      <trkpt lat="42.0556710" lon="-6.5868200">
        <ele>932.3</ele>
        <time>2019-08-16T10:40:41Z</time>
      </trkpt>
      <trkpt lat="42.0557300" lon="-6.5868030">
        <ele>931.9</ele>
        <time>2019-08-16T10:40:42Z</time>
      </trkpt>
      <trkpt lat="42.0557890" lon="-6.5867880">
        <ele>931.4</ele>
        <time>2019-08-16T10:40:43Z</time>
      </trkpt>
      <trkpt lat="42.0558520" lon="-6.5867710">
        <ele>931.0</ele>
        <time>2019-08-16T10:40:44Z</time>
      </trkpt>
      <trkpt lat="42.0559160" lon="-6.5867520">
        <ele>930.6</ele>
        <time>2019-08-16T10:40:45Z</time>
      </trkpt>
      <trkpt lat="42.0559810" lon="-6.5867320">
        <ele>930.2</ele>
        <time>2019-08-16T10:40:46Z</time>
      </trkpt>
      <trkpt lat="42.0560490" lon="-6.5867080">
        <ele>930.0</ele>
        <time>2019-08-16T10:40:47Z</time>
      </trkpt>
      <trkpt lat="42.0561190" lon="-6.5866870">
        <ele>929.7</ele>
        <time>2019-08-16T10:40:48Z</time>
      </trkpt>
      <trkpt lat="42.0561880" lon="-6.5866680">
        <ele>929.3</ele>
        <time>2019-08-16T10:40:49Z</time>
      </trkpt>
      <trkpt lat="42.0562560" lon="-6.5866430">
        <ele>929.0</ele>
        <time>2019-08-16T10:40:50Z</time>
      </trkpt>
      <trkpt lat="42.0563200" lon="-6.5866110">
        <ele>928.7</ele>
        <time>2019-08-16T10:40:51Z</time>
      </trkpt>
      <trkpt lat="42.0563840" lon="-6.5865750">
        <ele>928.5</ele>
        <time>2019-08-16T10:40:52Z</time>
      </trkpt>
      <trkpt lat="42.0564450" lon="-6.5865360">
        <ele>928.3</ele>
        <time>2019-08-16T10:40:53Z</time>
      </trkpt>
      <trkpt lat="42.0565010" lon="-6.5864930">
        <ele>928.3</ele>
        <time>2019-08-16T10:40:54Z</time>
      </trkpt>
      <trkpt lat="42.0565560" lon="-6.5864480">
        <ele>928.2</ele>
        <time>2019-08-16T10:40:55Z</time>
      </trkpt>
      <trkpt lat="42.0566100" lon="-6.5864050">
        <ele>928.2</ele>
        <time>2019-08-16T10:40:56Z</time>
      </trkpt>
      <trkpt lat="42.0566670" lon="-6.5863690">
        <ele>928.2</ele>
        <time>2019-08-16T10:40:57Z</time>
      </trkpt>
      <trkpt lat="42.0567260" lon="-6.5863430">
        <ele>928.3</ele>
        <time>2019-08-16T10:40:58Z</time>
      </trkpt>
      <trkpt lat="42.0567900" lon="-6.5863330">
        <ele>928.3</ele>
        <time>2019-08-16T10:40:59Z</time>
      </trkpt>
      <trkpt lat="42.0568550" lon="-6.5863450">
        <ele>928.4</ele>
        <time>2019-08-16T10:41:00Z</time>
      </trkpt>
      <trkpt lat="42.0569180" lon="-6.5863780">
        <ele>928.4</ele>
        <time>2019-08-16T10:41:01Z</time>
      </trkpt>
      <trkpt lat="42.0569730" lon="-6.5864270">
        <ele>928.5</ele>
        <time>2019-08-16T10:41:02Z</time>
      </trkpt>
      <trkpt lat="42.0570190" lon="-6.5864880">
        <ele>928.7</ele>
        <time>2019-08-16T10:41:03Z</time>
      </trkpt>
      <trkpt lat="42.0570520" lon="-6.5865620">
        <ele>928.9</ele>
        <time>2019-08-16T10:41:04Z</time>
      </trkpt>
      <trkpt lat="42.0570680" lon="-6.5866400">
        <ele>929.2</ele>
        <time>2019-08-16T10:41:05Z</time>
      </trkpt>
      <trkpt lat="42.0570700" lon="-6.5867130">
        <ele>929.4</ele>
        <time>2019-08-16T10:41:06Z</time>
      </trkpt>
      <trkpt lat="42.0570600" lon="-6.5867810">
        <ele>929.7</ele>
        <time>2019-08-16T10:41:07Z</time>
      </trkpt>
      <trkpt lat="42.0570420" lon="-6.5868410">
        <ele>929.9</ele>
        <time>2019-08-16T10:41:08Z</time>
      </trkpt>
      <trkpt lat="42.0570220" lon="-6.5868960">
        <ele>930.2</ele>
        <time>2019-08-16T10:41:09Z</time>
      </trkpt>
      <trkpt lat="42.0570000" lon="-6.5869470">
        <ele>930.4</ele>
        <time>2019-08-16T10:41:10Z</time>
      </trkpt>
      <trkpt lat="42.0569750" lon="-6.5869950">
        <ele>930.6</ele>
        <time>2019-08-16T10:41:11Z</time>
      </trkpt>
      <trkpt lat="42.0569480" lon="-6.5870400">
        <ele>930.9</ele>
        <time>2019-08-16T10:41:12Z</time>
      </trkpt>
      <trkpt lat="42.0569170" lon="-6.5870790">
        <ele>931.1</ele>
        <time>2019-08-16T10:41:13Z</time>
      </trkpt>
      <trkpt lat="42.0568820" lon="-6.5871130">
        <ele>931.4</ele>
        <time>2019-08-16T10:41:14Z</time>
      </trkpt>
      <trkpt lat="42.0568480" lon="-6.5871420">
        <ele>931.6</ele>
        <time>2019-08-16T10:41:15Z</time>
      </trkpt>
      <trkpt lat="42.0568130" lon="-6.5871670">
        <ele>931.8</ele>
        <time>2019-08-16T10:41:16Z</time>
      </trkpt>
      <trkpt lat="42.0567800" lon="-6.5871920">
        <ele>932.0</ele>
        <time>2019-08-16T10:41:17Z</time>
      </trkpt>
      <trkpt lat="42.0567460" lon="-6.5872180">
        <ele>932.2</ele>
        <time>2019-08-16T10:41:18Z</time>
      </trkpt>
      <trkpt lat="42.0567130" lon="-6.5872450">
        <ele>932.3</ele>
        <time>2019-08-16T10:41:19Z</time>
      </trkpt>
      <trkpt lat="42.0566800" lon="-6.5872720">
        <ele>932.5</ele>
        <time>2019-08-16T10:41:20Z</time>
      </trkpt>
      <trkpt lat="42.0566470" lon="-6.5873000">
        <ele>932.7</ele>
        <time>2019-08-16T10:41:21Z</time>
      </trkpt>
      <trkpt lat="42.0566150" lon="-6.5873280">
        <ele>932.8</ele>
        <time>2019-08-16T10:41:22Z</time>
      </trkpt>
      <trkpt lat="42.0565850" lon="-6.5873560">
        <ele>933.0</ele>
        <time>2019-08-16T10:41:23Z</time>
      </trkpt>
      <trkpt lat="42.0565550" lon="-6.5873830">
        <ele>933.2</ele>
        <time>2019-08-16T10:41:24Z</time>
      </trkpt>
      <trkpt lat="42.0565260" lon="-6.5874100">
        <ele>933.4</ele>
        <time>2019-08-16T10:41:25Z</time>
      </trkpt>
      <trkpt lat="42.0564990" lon="-6.5874370">
        <ele>933.6</ele>
        <time>2019-08-16T10:41:26Z</time>
      </trkpt>
      <trkpt lat="42.0564740" lon="-6.5874660">
        <ele>933.8</ele>
        <time>2019-08-16T10:41:27Z</time>
      </trkpt>
      <trkpt lat="42.0564510" lon="-6.5874960">
        <ele>934.1</ele>
        <time>2019-08-16T10:41:28Z</time>
      </trkpt>
      <trkpt lat="42.0564300" lon="-6.5875280">
        <ele>934.3</ele>
        <time>2019-08-16T10:41:29Z</time>
      </trkpt>
      <trkpt lat="42.0564130" lon="-6.5875640">
        <ele>934.5</ele>
        <time>2019-08-16T10:41:30Z</time>
      </trkpt>
      <trkpt lat="42.0564040" lon="-6.5876040">
        <ele>934.7</ele>
        <time>2019-08-16T10:41:31Z</time>
      </trkpt>
      <trkpt lat="42.0563990" lon="-6.5876470">
        <ele>935.0</ele>
        <time>2019-08-16T10:41:32Z</time>
      </trkpt>
      <trkpt lat="42.0564010" lon="-6.5876910">
        <ele>935.2</ele>
        <time>2019-08-16T10:41:33Z</time>
      </trkpt>
      <trkpt lat="42.0564070" lon="-6.5877350">
        <ele>935.5</ele>
        <time>2019-08-16T10:41:34Z</time>
      </trkpt>
      <trkpt lat="42.0564160" lon="-6.5877770">
        <ele>935.7</ele>
        <time>2019-08-16T10:41:35Z</time>
      </trkpt>
      <trkpt lat="42.0564260" lon="-6.5878190">
        <ele>936.0</ele>
        <time>2019-08-16T10:41:36Z</time>
      </trkpt>
      <trkpt lat="42.0564390" lon="-6.5878590">
        <ele>936.2</ele>
        <time>2019-08-16T10:41:37Z</time>
      </trkpt>
      <trkpt lat="42.0564550" lon="-6.5878970">
        <ele>936.5</ele>
        <time>2019-08-16T10:41:38Z</time>
      </trkpt>
      <trkpt lat="42.0564710" lon="-6.5879340">
        <ele>936.7</ele>
        <time>2019-08-16T10:41:39Z</time>
      </trkpt>
      <trkpt lat="42.0564880" lon="-6.5879680">
        <ele>936.9</ele>
        <time>2019-08-16T10:41:40Z</time>
      </trkpt>
      <trkpt lat="42.0565060" lon="-6.5880000">
        <ele>937.1</ele>
        <time>2019-08-16T10:41:41Z</time>
      </trkpt>
      <trkpt lat="42.0565220" lon="-6.5880330">
        <ele>937.3</ele>
        <time>2019-08-16T10:41:42Z</time>
      </trkpt>
      <trkpt lat="42.0565370" lon="-6.5880680">
        <ele>937.4</ele>
        <time>2019-08-16T10:41:43Z</time>
      </trkpt>
      <trkpt lat="42.0565510" lon="-6.5881010">
        <ele>937.6</ele>
        <time>2019-08-16T10:41:44Z</time>
      </trkpt>
      <trkpt lat="42.0565630" lon="-6.5881340">
        <ele>937.8</ele>
        <time>2019-08-16T10:41:45Z</time>
      </trkpt>
      <trkpt lat="42.0565760" lon="-6.5881680">
        <ele>937.9</ele>
        <time>2019-08-16T10:41:46Z</time>
      </trkpt>
      <trkpt lat="42.0565890" lon="-6.5882010">
        <ele>938.1</ele>
        <time>2019-08-16T10:41:47Z</time>
      </trkpt>
      <trkpt lat="42.0566030" lon="-6.5882340">
        <ele>938.2</ele>
        <time>2019-08-16T10:41:48Z</time>
      </trkpt>
      <trkpt lat="42.0566180" lon="-6.5882660">
        <ele>938.4</ele>
        <time>2019-08-16T10:41:49Z</time>
      </trkpt>
      <trkpt lat="42.0566340" lon="-6.5882980">
        <ele>938.5</ele>
        <time>2019-08-16T10:41:50Z</time>
      </trkpt>
      <trkpt lat="42.0566500" lon="-6.5883310">
        <ele>938.7</ele>
        <time>2019-08-16T10:41:51Z</time>
      </trkpt>
      <trkpt lat="42.0566650" lon="-6.5883630">
        <ele>938.8</ele>
        <time>2019-08-16T10:41:52Z</time>
      </trkpt>
      <trkpt lat="42.0566800" lon="-6.5883950">
        <ele>939.0</ele>
        <time>2019-08-16T10:41:53Z</time>
      </trkpt>
      <trkpt lat="42.0567080" lon="-6.5884560">
        <ele>939.2</ele>
        <time>2019-08-16T10:41:55Z</time>
      </trkpt>
      <trkpt lat="42.0567350" lon="-6.5885170">
        <ele>939.5</ele>
        <time>2019-08-16T10:41:57Z</time>
      </trkpt>
      <trkpt lat="42.0567490" lon="-6.5885480">
        <ele>939.6</ele>
        <time>2019-08-16T10:41:58Z</time>
      </trkpt>
      <trkpt lat="42.0567640" lon="-6.5885780">
        <ele>939.7</ele>
        <time>2019-08-16T10:41:59Z</time>
      </trkpt>
      <trkpt lat="42.0567780" lon="-6.5886090">
        <ele>939.9</ele>
        <time>2019-08-16T10:42:00Z</time>
      </trkpt>
      <trkpt lat="42.0567920" lon="-6.5886410">
        <ele>940.0</ele>
        <time>2019-08-16T10:42:01Z</time>
      </trkpt>
      <trkpt lat="42.0568060" lon="-6.5886730">
        <ele>940.1</ele>
        <time>2019-08-16T10:42:02Z</time>
      </trkpt>
      <trkpt lat="42.0568210" lon="-6.5887040">
        <ele>940.3</ele>
        <time>2019-08-16T10:42:03Z</time>
      </trkpt>
      <trkpt lat="42.0568370" lon="-6.5887340">
        <ele>940.4</ele>
        <time>2019-08-16T10:42:04Z</time>
      </trkpt>
      <trkpt lat="42.0568530" lon="-6.5887650">
        <ele>940.5</ele>
        <time>2019-08-16T10:42:05Z</time>
      </trkpt>
      <trkpt lat="42.0568680" lon="-6.5887970">
        <ele>940.6</ele>
        <time>2019-08-16T10:42:06Z</time>
      </trkpt>
      <trkpt lat="42.0568820" lon="-6.5888300">
        <ele>940.7</ele>
        <time>2019-08-16T10:42:07Z</time>
      </trkpt>
      <trkpt lat="42.0568980" lon="-6.5888630">
        <ele>940.9</ele>
        <time>2019-08-16T10:42:08Z</time>
      </trkpt>
      <trkpt lat="42.0569150" lon="-6.5888940">
        <ele>941.0</ele>
        <time>2019-08-16T10:42:09Z</time>
      </trkpt>
      <trkpt lat="42.0569320" lon="-6.5889250">
        <ele>941.1</ele>
        <time>2019-08-16T10:42:10Z</time>
      </trkpt>
      <trkpt lat="42.0569480" lon="-6.5889550">
        <ele>941.2</ele>
        <time>2019-08-16T10:42:11Z</time>
      </trkpt>
      <trkpt lat="42.0569640" lon="-6.5889860">
        <ele>941.3</ele>
        <time>2019-08-16T10:42:12Z</time>
      </trkpt>
      <trkpt lat="42.0569790" lon="-6.5890180">
        <ele>941.4</ele>
        <time>2019-08-16T10:42:13Z</time>
      </trkpt>
      <trkpt lat="42.0569930" lon="-6.5890500">
        <ele>941.6</ele>
        <time>2019-08-16T10:42:14Z</time>
      </trkpt>
      <trkpt lat="42.0570070" lon="-6.5890820">
        <ele>941.7</ele>
        <time>2019-08-16T10:42:15Z</time>
      </trkpt>
      <trkpt lat="42.0570230" lon="-6.5891130">
        <ele>941.8</ele>
        <time>2019-08-16T10:42:16Z</time>
      </trkpt>
      <trkpt lat="42.0570390" lon="-6.5891440">
        <ele>941.9</ele>
        <time>2019-08-16T10:42:17Z</time>
      </trkpt>
      <trkpt lat="42.0570550" lon="-6.5891730">
        <ele>942.0</ele>
        <time>2019-08-16T10:42:18Z</time>
      </trkpt>
      <trkpt lat="42.0570720" lon="-6.5892020">
        <ele>942.2</ele>
        <time>2019-08-16T10:42:19Z</time>
      </trkpt>
      <trkpt lat="42.0570910" lon="-6.5892300">
        <ele>942.3</ele>
        <time>2019-08-16T10:42:20Z</time>
      </trkpt>
      <trkpt lat="42.0571110" lon="-6.5892580">
        <ele>942.4</ele>
        <time>2019-08-16T10:42:21Z</time>
      </trkpt>
      <trkpt lat="42.0571320" lon="-6.5892840">
        <ele>942.6</ele>
        <time>2019-08-16T10:42:22Z</time>
      </trkpt>
      <trkpt lat="42.0571550" lon="-6.5893090">
        <ele>942.7</ele>
        <time>2019-08-16T10:42:23Z</time>
      </trkpt>
      <trkpt lat="42.0571790" lon="-6.5893330">
        <ele>942.8</ele>
        <time>2019-08-16T10:42:24Z</time>
      </trkpt>
      <trkpt lat="42.0572030" lon="-6.5893560">
        <ele>943.0</ele>
        <time>2019-08-16T10:42:25Z</time>
      </trkpt>
      <trkpt lat="42.0572290" lon="-6.5893770">
        <ele>943.2</ele>
        <time>2019-08-16T10:42:26Z</time>
      </trkpt>
      <trkpt lat="42.0572550" lon="-6.5893970">
        <ele>943.3</ele>
        <time>2019-08-16T10:42:27Z</time>
      </trkpt>
      <trkpt lat="42.0572830" lon="-6.5894150">
        <ele>943.5</ele>
        <time>2019-08-16T10:42:28Z</time>
      </trkpt>
      <trkpt lat="42.0573090" lon="-6.5894330">
        <ele>943.7</ele>
        <time>2019-08-16T10:42:29Z</time>
      </trkpt>
      <trkpt lat="42.0573350" lon="-6.5894510">
        <ele>943.8</ele>
        <time>2019-08-16T10:42:30Z</time>
      </trkpt>
      <trkpt lat="42.0573600" lon="-6.5894700">
        <ele>944.0</ele>
        <time>2019-08-16T10:42:31Z</time>
      </trkpt>
      <trkpt lat="42.0573860" lon="-6.5894890">
        <ele>944.2</ele>
        <time>2019-08-16T10:42:32Z</time>
      </trkpt>
      <trkpt lat="42.0574100" lon="-6.5895090">
        <ele>944.4</ele>
        <time>2019-08-16T10:42:33Z</time>
      </trkpt>
      <trkpt lat="42.0574340" lon="-6.5895290">
        <ele>944.6</ele>
        <time>2019-08-16T10:42:34Z</time>
      </trkpt>
      <trkpt lat="42.0574590" lon="-6.5895500">
        <ele>944.8</ele>
        <time>2019-08-16T10:42:35Z</time>
      </trkpt>
      <trkpt lat="42.0574850" lon="-6.5895710">
        <ele>945.0</ele>
        <time>2019-08-16T10:42:36Z</time>
      </trkpt>
      <trkpt lat="42.0575100" lon="-6.5895930">
        <ele>945.2</ele>
        <time>2019-08-16T10:42:37Z</time>
      </trkpt>
      <trkpt lat="42.0575340" lon="-6.5896170">
        <ele>945.4</ele>
        <time>2019-08-16T10:42:38Z</time>
      </trkpt>
      <trkpt lat="42.0575580" lon="-6.5896420">
        <ele>945.6</ele>
        <time>2019-08-16T10:42:39Z</time>
      </trkpt>
      <trkpt lat="42.0575810" lon="-6.5896660">
        <ele>945.8</ele>
        <time>2019-08-16T10:42:40Z</time>
      </trkpt>
      <trkpt lat="42.0576040" lon="-6.5896910">
        <ele>946.0</ele>
        <time>2019-08-16T10:42:41Z</time>
      </trkpt>
      <trkpt lat="42.0576260" lon="-6.5897180">
        <ele>946.2</ele>
        <time>2019-08-16T10:42:42Z</time>
      </trkpt>
      <trkpt lat="42.0576470" lon="-6.5897450">
        <ele>946.4</ele>
        <time>2019-08-16T10:42:43Z</time>
      </trkpt>
      <trkpt lat="42.0576690" lon="-6.5897710">
        <ele>946.6</ele>
        <time>2019-08-16T10:42:44Z</time>
      </trkpt>
      <trkpt lat="42.0576910" lon="-6.5897970">
        <ele>946.8</ele>
        <time>2019-08-16T10:42:45Z</time>
      </trkpt>
      <trkpt lat="42.0577140" lon="-6.5898220">
        <ele>947.0</ele>
        <time>2019-08-16T10:42:46Z</time>
      </trkpt>
      <trkpt lat="42.0577350" lon="-6.5898490">
        <ele>947.3</ele>
        <time>2019-08-16T10:42:47Z</time>
      </trkpt>
      <trkpt lat="42.0577560" lon="-6.5898760">
        <ele>947.5</ele>
        <time>2019-08-16T10:42:48Z</time>
      </trkpt>
      <trkpt lat="42.0577770" lon="-6.5899030">
        <ele>947.8</ele>
        <time>2019-08-16T10:42:49Z</time>
      </trkpt>
      <trkpt lat="42.0577980" lon="-6.5899310">
        <ele>947.9</ele>
        <time>2019-08-16T10:42:50Z</time>
      </trkpt>
      <trkpt lat="42.0578190" lon="-6.5899590">
        <ele>948.0</ele>
        <time>2019-08-16T10:42:51Z</time>
      </trkpt>
      <trkpt lat="42.0578400" lon="-6.5899860">
        <ele>948.1</ele>
        <time>2019-08-16T10:42:52Z</time>
      </trkpt>
      <trkpt lat="42.0578600" lon="-6.5900140">
        <ele>948.2</ele>
        <time>2019-08-16T10:42:53Z</time>
      </trkpt>
      <trkpt lat="42.0578800" lon="-6.5900410">
        <ele>948.2</ele>
        <time>2019-08-16T10:42:54Z</time>
      </trkpt>
      <trkpt lat="42.0579010" lon="-6.5900680">
        <ele>948.3</ele>
        <time>2019-08-16T10:42:55Z</time>
      </trkpt>
      <trkpt lat="42.0579210" lon="-6.5900960">
        <ele>948.4</ele>
        <time>2019-08-16T10:42:56Z</time>
      </trkpt>
      <trkpt lat="42.0579420" lon="-6.5901240">
        <ele>948.5</ele>
        <time>2019-08-16T10:42:57Z</time>
      </trkpt>
      <trkpt lat="42.0579620" lon="-6.5901510">
        <ele>948.6</ele>
        <time>2019-08-16T10:42:58Z</time>
      </trkpt>
      <trkpt lat="42.0579830" lon="-6.5901790">
        <ele>948.6</ele>
        <time>2019-08-16T10:42:59Z</time>
      </trkpt>
      <trkpt lat="42.0580030" lon="-6.5902070">
        <ele>948.7</ele>
        <time>2019-08-16T10:43:00Z</time>
      </trkpt>
      <trkpt lat="42.0580240" lon="-6.5902350">
        <ele>948.8</ele>
        <time>2019-08-16T10:43:01Z</time>
      </trkpt>
      <trkpt lat="42.0580450" lon="-6.5902620">
        <ele>948.9</ele>
        <time>2019-08-16T10:43:02Z</time>
      </trkpt>
      <trkpt lat="42.0580650" lon="-6.5902880">
        <ele>948.9</ele>
        <time>2019-08-16T10:43:03Z</time>
      </trkpt>
      <trkpt lat="42.0580860" lon="-6.5903130">
        <ele>949.0</ele>
        <time>2019-08-16T10:43:04Z</time>
      </trkpt>
      <trkpt lat="42.0581070" lon="-6.5903370">
        <ele>949.1</ele>
        <time>2019-08-16T10:43:05Z</time>
      </trkpt>
      <trkpt lat="42.0581280" lon="-6.5903620">
        <ele>949.2</ele>
        <time>2019-08-16T10:43:06Z</time>
      </trkpt>
      <trkpt lat="42.0581490" lon="-6.5903880">
        <ele>949.2</ele>
        <time>2019-08-16T10:43:07Z</time>
      </trkpt>
      <trkpt lat="42.0581690" lon="-6.5904150">
        <ele>949.3</ele>
        <time>2019-08-16T10:43:08Z</time>
      </trkpt>
      <trkpt lat="42.0581900" lon="-6.5904410">
        <ele>949.4</ele>
        <time>2019-08-16T10:43:09Z</time>
      </trkpt>
      <trkpt lat="42.0582100" lon="-6.5904680">
        <ele>949.5</ele>
        <time>2019-08-16T10:43:10Z</time>
      </trkpt>
      <trkpt lat="42.0582300" lon="-6.5904940">
        <ele>949.6</ele>
        <time>2019-08-16T10:43:11Z</time>
      </trkpt>
      <trkpt lat="42.0582510" lon="-6.5905180">
        <ele>949.7</ele>
        <time>2019-08-16T10:43:12Z</time>
      </trkpt>
      <trkpt lat="42.0582810" lon="-6.5905730">
        <ele>949.8</ele>
        <time>2019-08-16T10:43:14Z</time>
      </trkpt>
      <trkpt lat="42.0583120" lon="-6.5906160">
        <ele>950.0</ele>
        <time>2019-08-16T10:43:16Z</time>
      </trkpt>
      <trkpt lat="42.0583440" lon="-6.5906560">
        <ele>950.2</ele>
        <time>2019-08-16T10:43:18Z</time>
      </trkpt>
      <trkpt lat="42.0583800" lon="-6.5906970">
        <ele>950.4</ele>
        <time>2019-08-16T10:43:20Z</time>
      </trkpt>
      <trkpt lat="42.0584160" lon="-6.5907390">
        <ele>950.5</ele>
        <time>2019-08-16T10:43:22Z</time>
      </trkpt>
      <trkpt lat="42.0584530" lon="-6.5907850">
        <ele>950.7</ele>
        <time>2019-08-16T10:43:24Z</time>
      </trkpt>
      <trkpt lat="42.0584890" lon="-6.5908300">
        <ele>950.8</ele>
        <time>2019-08-16T10:43:26Z</time>
      </trkpt>
      <trkpt lat="42.0585230" lon="-6.5908790">
        <ele>951.0</ele>
        <time>2019-08-16T10:43:28Z</time>
      </trkpt>
      <trkpt lat="42.0585590" lon="-6.5909230">
        <ele>951.1</ele>
        <time>2019-08-16T10:43:30Z</time>
      </trkpt>
      <trkpt lat="42.0585980" lon="-6.5909640">
        <ele>951.3</ele>
        <time>2019-08-16T10:43:32Z</time>
      </trkpt>
      <trkpt lat="42.0586350" lon="-6.5910100">
        <ele>951.4</ele>
        <time>2019-08-16T10:43:34Z</time>
      </trkpt>
      <trkpt lat="42.0586700" lon="-6.5910580">
        <ele>951.6</ele>
        <time>2019-08-16T10:43:36Z</time>
      </trkpt>
      <trkpt lat="42.0587070" lon="-6.5911060">
        <ele>951.9</ele>
        <time>2019-08-16T10:43:38Z</time>
      </trkpt>
      <trkpt lat="42.0587460" lon="-6.5911530">
        <ele>952.1</ele>
        <time>2019-08-16T10:43:40Z</time>
      </trkpt>
      <trkpt lat="42.0587830" lon="-6.5912020">
        <ele>952.4</ele>
        <time>2019-08-16T10:43:42Z</time>
      </trkpt>
      <trkpt lat="42.0588210" lon="-6.5912500">
        <ele>952.6</ele>
        <time>2019-08-16T10:43:44Z</time>
      </trkpt>
      <trkpt lat="42.0588590" lon="-6.5912960">
        <ele>952.9</ele>
        <time>2019-08-16T10:43:46Z</time>
      </trkpt>
      <trkpt lat="42.0588930" lon="-6.5913450">
        <ele>953.2</ele>
        <time>2019-08-16T10:43:48Z</time>
      </trkpt>
      <trkpt lat="42.0589280" lon="-6.5913910">
        <ele>953.4</ele>
        <time>2019-08-16T10:43:50Z</time>
      </trkpt>
      <trkpt lat="42.0589630" lon="-6.5914380">
        <ele>953.7</ele>
        <time>2019-08-16T10:43:52Z</time>
      </trkpt>
      <trkpt lat="42.0590010" lon="-6.5914840">
        <ele>953.9</ele>
        <time>2019-08-16T10:43:54Z</time>
      </trkpt>
      <trkpt lat="42.0590390" lon="-6.5915280">
        <ele>954.2</ele>
        <time>2019-08-16T10:43:56Z</time>
      </trkpt>
      <trkpt lat="42.0590750" lon="-6.5915760">
        <ele>954.4</ele>
        <time>2019-08-16T10:43:58Z</time>
      </trkpt>
      <trkpt lat="42.0591110" lon="-6.5916240">
        <ele>954.7</ele>
        <time>2019-08-16T10:44:00Z</time>
      </trkpt>
      <trkpt lat="42.0591500" lon="-6.5916700">
        <ele>954.9</ele>
        <time>2019-08-16T10:44:02Z</time>
      </trkpt>
      <trkpt lat="42.0591880" lon="-6.5917160">
        <ele>955.1</ele>
        <time>2019-08-16T10:44:04Z</time>
      </trkpt>
      <trkpt lat="42.0592280" lon="-6.5917630">
        <ele>955.3</ele>
        <time>2019-08-16T10:44:06Z</time>
      </trkpt>
      <trkpt lat="42.0592650" lon="-6.5918120">
        <ele>955.4</ele>
        <time>2019-08-16T10:44:08Z</time>
      </trkpt>
      <trkpt lat="42.0593000" lon="-6.5918600">
        <ele>955.6</ele>
        <time>2019-08-16T10:44:10Z</time>
      </trkpt>
      <trkpt lat="42.0593210" lon="-6.5918840">
        <ele>955.6</ele>
        <time>2019-08-16T10:44:11Z</time>
      </trkpt>
      <trkpt lat="42.0593410" lon="-6.5919090">
        <ele>955.7</ele>
        <time>2019-08-16T10:44:12Z</time>
      </trkpt>
      <trkpt lat="42.0593610" lon="-6.5919340">
        <ele>955.8</ele>
        <time>2019-08-16T10:44:13Z</time>
      </trkpt>
      <trkpt lat="42.0593830" lon="-6.5919600">
        <ele>955.8</ele>
        <time>2019-08-16T10:44:14Z</time>
      </trkpt>
      <trkpt lat="42.0594050" lon="-6.5919890">
        <ele>955.9</ele>
        <time>2019-08-16T10:44:15Z</time>
      </trkpt>
      <trkpt lat="42.0594270" lon="-6.5920170">
        <ele>956.0</ele>
        <time>2019-08-16T10:44:16Z</time>
      </trkpt>
      <trkpt lat="42.0594500" lon="-6.5920450">
        <ele>956.1</ele>
        <time>2019-08-16T10:44:17Z</time>
      </trkpt>
      <trkpt lat="42.0594730" lon="-6.5920760">
        <ele>956.1</ele>
        <time>2019-08-16T10:44:18Z</time>
      </trkpt>
      <trkpt lat="42.0594980" lon="-6.5921090">
        <ele>956.2</ele>
        <time>2019-08-16T10:44:19Z</time>
      </trkpt>
      <trkpt lat="42.0595240" lon="-6.5921420">
        <ele>956.3</ele>
        <time>2019-08-16T10:44:20Z</time>
      </trkpt>
      <trkpt lat="42.0595520" lon="-6.5921760">
        <ele>956.4</ele>
        <time>2019-08-16T10:44:21Z</time>
      </trkpt>
      <trkpt lat="42.0595790" lon="-6.5922100">
        <ele>956.4</ele>
        <time>2019-08-16T10:44:22Z</time>
      </trkpt>
      <trkpt lat="42.0596070" lon="-6.5922440">
        <ele>956.4</ele>
        <time>2019-08-16T10:44:23Z</time>
      </trkpt>
      <trkpt lat="42.0596380" lon="-6.5922800">
        <ele>956.3</ele>
        <time>2019-08-16T10:44:24Z</time>
      </trkpt>
      <trkpt lat="42.0596690" lon="-6.5923190">
        <ele>956.3</ele>
        <time>2019-08-16T10:44:25Z</time>
      </trkpt>
      <trkpt lat="42.0596990" lon="-6.5923580">
        <ele>956.3</ele>
        <time>2019-08-16T10:44:26Z</time>
      </trkpt>
      <trkpt lat="42.0597310" lon="-6.5923970">
        <ele>956.3</ele>
        <time>2019-08-16T10:44:27Z</time>
      </trkpt>
      <trkpt lat="42.0597630" lon="-6.5924360">
        <ele>956.2</ele>
        <time>2019-08-16T10:44:28Z</time>
      </trkpt>
      <trkpt lat="42.0597950" lon="-6.5924750">
        <ele>956.2</ele>
        <time>2019-08-16T10:44:29Z</time>
      </trkpt>
      <trkpt lat="42.0598260" lon="-6.5925130">
        <ele>956.2</ele>
        <time>2019-08-16T10:44:30Z</time>
      </trkpt>
      <trkpt lat="42.0598590" lon="-6.5925490">
        <ele>956.1</ele>
        <time>2019-08-16T10:44:31Z</time>
      </trkpt>
      <trkpt lat="42.0598920" lon="-6.5925850">
        <ele>956.0</ele>
        <time>2019-08-16T10:44:32Z</time>
      </trkpt>
      <trkpt lat="42.0599260" lon="-6.5926200">
        <ele>956.1</ele>
        <time>2019-08-16T10:44:33Z</time>
      </trkpt>
      <trkpt lat="42.0599580" lon="-6.5926550">
        <ele>956.1</ele>
        <time>2019-08-16T10:44:34Z</time>
      </trkpt>
      <trkpt lat="42.0599910" lon="-6.5926890">
        <ele>956.1</ele>
        <time>2019-08-16T10:44:35Z</time>
      </trkpt>
      <trkpt lat="42.0600220" lon="-6.5927240">
        <ele>956.1</ele>
        <time>2019-08-16T10:44:36Z</time>
      </trkpt>
      <trkpt lat="42.0600530" lon="-6.5927580">
        <ele>956.1</ele>
        <time>2019-08-16T10:44:37Z</time>
      </trkpt>
      <trkpt lat="42.0600840" lon="-6.5927920">
        <ele>956.2</ele>
        <time>2019-08-16T10:44:38Z</time>
      </trkpt>
      <trkpt lat="42.0601170" lon="-6.5928230">
        <ele>956.3</ele>
        <time>2019-08-16T10:44:39Z</time>
      </trkpt>
      <trkpt lat="42.0601510" lon="-6.5928550">
        <ele>956.3</ele>
        <time>2019-08-16T10:44:40Z</time>
      </trkpt>
      <trkpt lat="42.0601820" lon="-6.5928880">
        <ele>956.3</ele>
        <time>2019-08-16T10:44:41Z</time>
      </trkpt>
      <trkpt lat="42.0602120" lon="-6.5929190">
        <ele>956.3</ele>
        <time>2019-08-16T10:44:42Z</time>
      </trkpt>
      <trkpt lat="42.0602400" lon="-6.5929470">
        <ele>956.4</ele>
        <time>2019-08-16T10:44:43Z</time>
      </trkpt>
      <trkpt lat="42.0602660" lon="-6.5929740">
        <ele>956.4</ele>
        <time>2019-08-16T10:44:44Z</time>
      </trkpt>
      <trkpt lat="42.0602920" lon="-6.5929990">
        <ele>956.4</ele>
        <time>2019-08-16T10:44:45Z</time>
      </trkpt>
      <trkpt lat="42.0603170" lon="-6.5930240">
        <ele>956.5</ele>
        <time>2019-08-16T10:44:46Z</time>
      </trkpt>
      <trkpt lat="42.0603410" lon="-6.5930470">
        <ele>956.5</ele>
        <time>2019-08-16T10:44:47Z</time>
      </trkpt>
      <trkpt lat="42.0603610" lon="-6.5930740">
        <ele>956.6</ele>
        <time>2019-08-16T10:44:48Z</time>
      </trkpt>
      <trkpt lat="42.0603590" lon="-6.5931470">
        <ele>956.5</ele>
        <time>2019-08-16T10:44:50Z</time>
      </trkpt>
      <trkpt lat="42.0603340" lon="-6.5931790">
        <ele>956.4</ele>
        <time>2019-08-16T10:44:51Z</time>
      </trkpt>
      <trkpt lat="42.0603000" lon="-6.5932000">
        <ele>956.3</ele>
        <time>2019-08-16T10:44:52Z</time>
      </trkpt>
      <trkpt lat="42.0602610" lon="-6.5932190">
        <ele>956.2</ele>
        <time>2019-08-16T10:44:53Z</time>
      </trkpt>
      <trkpt lat="42.0602190" lon="-6.5932400">
        <ele>956.1</ele>
        <time>2019-08-16T10:44:54Z</time>
      </trkpt>
      <trkpt lat="42.0601770" lon="-6.5932740">
        <ele>956.1</ele>
        <time>2019-08-16T10:44:55Z</time>
      </trkpt>
      <trkpt lat="42.0601390" lon="-6.5933210">
        <ele>956.0</ele>
        <time>2019-08-16T10:44:56Z</time>
      </trkpt>
      <trkpt lat="42.0601090" lon="-6.5933770">
        <ele>955.9</ele>
        <time>2019-08-16T10:44:57Z</time>
      </trkpt>
      <trkpt lat="42.0600900" lon="-6.5934430">
        <ele>955.9</ele>
        <time>2019-08-16T10:44:58Z</time>
      </trkpt>
      <trkpt lat="42.0600790" lon="-6.5935140">
        <ele>955.8</ele>
        <time>2019-08-16T10:44:59Z</time>
      </trkpt>
      <trkpt lat="42.0600740" lon="-6.5935860">
        <ele>955.7</ele>
        <time>2019-08-16T10:45:00Z</time>
      </trkpt>
      <trkpt lat="42.0600720" lon="-6.5936610">
        <ele>955.7</ele>
        <time>2019-08-16T10:45:01Z</time>
      </trkpt>
      <trkpt lat="42.0600730" lon="-6.5937340">
        <ele>955.6</ele>
        <time>2019-08-16T10:45:02Z</time>
      </trkpt>
      <trkpt lat="42.0600790" lon="-6.5938070">
        <ele>955.5</ele>
        <time>2019-08-16T10:45:03Z</time>
      </trkpt>
      <trkpt lat="42.0600880" lon="-6.5938800">
        <ele>955.4</ele>
        <time>2019-08-16T10:45:04Z</time>
      </trkpt>
      <trkpt lat="42.0600990" lon="-6.5939520">
        <ele>955.4</ele>
        <time>2019-08-16T10:45:05Z</time>
      </trkpt>
      <trkpt lat="42.0601120" lon="-6.5940220">
        <ele>955.3</ele>
        <time>2019-08-16T10:45:06Z</time>
      </trkpt>
      <trkpt lat="42.0601290" lon="-6.5940910">
        <ele>955.3</ele>
        <time>2019-08-16T10:45:07Z</time>
      </trkpt>
      <trkpt lat="42.0601530" lon="-6.5941560">
        <ele>955.2</ele>
        <time>2019-08-16T10:45:08Z</time>
      </trkpt>
      <trkpt lat="42.0601830" lon="-6.5942180">
        <ele>955.2</ele>
        <time>2019-08-16T10:45:09Z</time>
      </trkpt>
      <trkpt lat="42.0602180" lon="-6.5942740">
        <ele>955.1</ele>
        <time>2019-08-16T10:45:10Z</time>
      </trkpt>
      <trkpt lat="42.0602550" lon="-6.5943250">
        <ele>955.1</ele>
        <time>2019-08-16T10:45:11Z</time>
      </trkpt>
      <trkpt lat="42.0602930" lon="-6.5943740">
        <ele>955.1</ele>
        <time>2019-08-16T10:45:12Z</time>
      </trkpt>
      <trkpt lat="42.0603310" lon="-6.5944220">
        <ele>955.0</ele>
        <time>2019-08-16T10:45:13Z</time>
      </trkpt>
      <trkpt lat="42.0603690" lon="-6.5944690">
        <ele>955.0</ele>
        <time>2019-08-16T10:45:14Z</time>
      </trkpt>
      <trkpt lat="42.0604060" lon="-6.5945130">
        <ele>954.9</ele>
        <time>2019-08-16T10:45:15Z</time>
      </trkpt>
      <trkpt lat="42.0604370" lon="-6.5945580">
        <ele>954.9</ele>
        <time>2019-08-16T10:45:16Z</time>
      </trkpt>
      <trkpt lat="42.0604620" lon="-6.5946100">
        <ele>954.9</ele>
        <time>2019-08-16T10:45:17Z</time>
      </trkpt>
      <trkpt lat="42.0604790" lon="-6.5946710">
        <ele>954.7</ele>
        <time>2019-08-16T10:45:18Z</time>
      </trkpt>
      <trkpt lat="42.0604880" lon="-6.5947360">
        <ele>954.6</ele>
        <time>2019-08-16T10:45:19Z</time>
      </trkpt>
      <trkpt lat="42.0604880" lon="-6.5948070">
        <ele>954.4</ele>
        <time>2019-08-16T10:45:20Z</time>
      </trkpt>
      <trkpt lat="42.0604810" lon="-6.5948810">
        <ele>954.2</ele>
        <time>2019-08-16T10:45:21Z</time>
      </trkpt>
      <trkpt lat="42.0604680" lon="-6.5949580">
        <ele>954.0</ele>
        <time>2019-08-16T10:45:22Z</time>
      </trkpt>
      <trkpt lat="42.0604490" lon="-6.5950350">
        <ele>953.7</ele>
        <time>2019-08-16T10:45:23Z</time>
      </trkpt>
      <trkpt lat="42.0604220" lon="-6.5951100">
        <ele>953.4</ele>
        <time>2019-08-16T10:45:24Z</time>
      </trkpt>
      <trkpt lat="42.0603960" lon="-6.5951860">
        <ele>953.1</ele>
        <time>2019-08-16T10:45:25Z</time>
      </trkpt>
      <trkpt lat="42.0603690" lon="-6.5952560">
        <ele>952.8</ele>
        <time>2019-08-16T10:45:26Z</time>
      </trkpt>
      <trkpt lat="42.0603410" lon="-6.5953180">
        <ele>952.4</ele>
        <time>2019-08-16T10:45:27Z</time>
      </trkpt>
      <trkpt lat="42.0603110" lon="-6.5953730">
        <ele>952.1</ele>
        <time>2019-08-16T10:45:28Z</time>
      </trkpt>
      <trkpt lat="42.0602750" lon="-6.5954140">
        <ele>951.8</ele>
        <time>2019-08-16T10:45:29Z</time>
      </trkpt>
      <trkpt lat="42.0602290" lon="-6.5954400">
        <ele>951.5</ele>
        <time>2019-08-16T10:45:30Z</time>
      </trkpt>
      <trkpt lat="42.0601750" lon="-6.5954470">
        <ele>951.1</ele>
        <time>2019-08-16T10:45:31Z</time>
      </trkpt>
      <trkpt lat="42.0601200" lon="-6.5954480">
        <ele>950.9</ele>
        <time>2019-08-16T10:45:32Z</time>
      </trkpt>
      <trkpt lat="42.0600660" lon="-6.5954580">
        <ele>950.7</ele>
        <time>2019-08-16T10:45:33Z</time>
      </trkpt>
      <trkpt lat="42.0600120" lon="-6.5954920">
        <ele>950.5</ele>
        <time>2019-08-16T10:45:34Z</time>
      </trkpt>
      <trkpt lat="42.0599640" lon="-6.5955390">
        <ele>950.3</ele>
        <time>2019-08-16T10:45:35Z</time>
      </trkpt>
      <trkpt lat="42.0599210" lon="-6.5955980">
        <ele>950.1</ele>
        <time>2019-08-16T10:45:36Z</time>
      </trkpt>
      <trkpt lat="42.0598800" lon="-6.5956590">
        <ele>949.9</ele>
        <time>2019-08-16T10:45:37Z</time>
      </trkpt>
      <trkpt lat="42.0598490" lon="-6.5957230">
        <ele>949.8</ele>
        <time>2019-08-16T10:45:38Z</time>
      </trkpt>
      <trkpt lat="42.0598320" lon="-6.5957910">
        <ele>949.7</ele>
        <time>2019-08-16T10:45:39Z</time>
      </trkpt>
      <trkpt lat="42.0598340" lon="-6.5958570">
        <ele>949.6</ele>
        <time>2019-08-16T10:45:40Z</time>
      </trkpt>
      <trkpt lat="42.0598460" lon="-6.5959120">
        <ele>949.6</ele>
        <time>2019-08-16T10:45:41Z</time>
      </trkpt>
      <trkpt lat="42.0598620" lon="-6.5959550">
        <ele>949.6</ele>
        <time>2019-08-16T10:45:42Z</time>
      </trkpt>
      <trkpt lat="42.0598840" lon="-6.5959950">
        <ele>949.5</ele>
        <time>2019-08-16T10:45:43Z</time>
      </trkpt>
      <trkpt lat="42.0599090" lon="-6.5960360">
        <ele>949.5</ele>
        <time>2019-08-16T10:45:44Z</time>
      </trkpt>
      <trkpt lat="42.0599320" lon="-6.5960810">
        <ele>949.5</ele>
        <time>2019-08-16T10:45:45Z</time>
      </trkpt>
      <trkpt lat="42.0599520" lon="-6.5961270">
        <ele>949.5</ele>
        <time>2019-08-16T10:45:46Z</time>
      </trkpt>
      <trkpt lat="42.0599680" lon="-6.5961740">
        <ele>949.5</ele>
        <time>2019-08-16T10:45:47Z</time>
      </trkpt>
      <trkpt lat="42.0599800" lon="-6.5962180">
        <ele>949.5</ele>
        <time>2019-08-16T10:45:48Z</time>
      </trkpt>
      <trkpt lat="42.0599910" lon="-6.5962560">
        <ele>949.5</ele>
        <time>2019-08-16T10:45:49Z</time>
      </trkpt>
      <trkpt lat="42.0600110" lon="-6.5962890">
        <ele>949.6</ele>
        <time>2019-08-16T10:45:50Z</time>
      </trkpt>
      <trkpt lat="42.0600320" lon="-6.5963170">
        <ele>949.6</ele>
        <time>2019-08-16T10:45:51Z</time>
      </trkpt>
      <trkpt lat="42.0600560" lon="-6.5963510">
        <ele>949.7</ele>
        <time>2019-08-16T10:45:53Z</time>
      </trkpt>
      <trkpt lat="42.0600350" lon="-6.5963600">
        <ele>949.8</ele>
        <time>2019-08-16T10:45:58Z</time>
      </trkpt>
      <trkpt lat="42.0600040" lon="-6.5963410">
        <ele>949.8</ele>
        <time>2019-08-16T10:46:02Z</time>
      </trkpt>
      <trkpt lat="42.0599930" lon="-6.5963090">
        <ele>949.9</ele>
        <time>2019-08-16T10:46:08Z</time>
      </trkpt>
      <trkpt lat="42.0600440" lon="-6.5963340">
        <ele>950.0</ele>
        <time>2019-08-16T10:46:52Z</time>
      </trkpt>
      <trkpt lat="42.0600750" lon="-6.5963660">
        <ele>950.0</ele>
        <time>2019-08-16T10:46:57Z</time>
      </trkpt>
      <trkpt lat="42.0601070" lon="-6.5964150">
        <ele>950.1</ele>
        <time>2019-08-16T10:46:59Z</time>
      </trkpt>
      <trkpt lat="42.0601240" lon="-6.5964480">
        <ele>950.1</ele>
        <time>2019-08-16T10:47:00Z</time>
      </trkpt>
      <trkpt lat="42.0601390" lon="-6.5964880">
        <ele>950.2</ele>
        <time>2019-08-16T10:47:01Z</time>
      </trkpt>
      <trkpt lat="42.0601510" lon="-6.5965350">
        <ele>950.2</ele>
        <time>2019-08-16T10:47:02Z</time>
      </trkpt>
      <trkpt lat="42.0601610" lon="-6.5965830">
        <ele>950.2</ele>
        <time>2019-08-16T10:47:03Z</time>
      </trkpt>
      <trkpt lat="42.0601720" lon="-6.5966330">
        <ele>950.3</ele>
        <time>2019-08-16T10:47:04Z</time>
      </trkpt>
      <trkpt lat="42.0601870" lon="-6.5966820">
        <ele>950.3</ele>
        <time>2019-08-16T10:47:05Z</time>
      </trkpt>
      <trkpt lat="42.0602040" lon="-6.5967340">
        <ele>950.3</ele>
        <time>2019-08-16T10:47:06Z</time>
      </trkpt>
      <trkpt lat="42.0602170" lon="-6.5967870">
        <ele>950.3</ele>
        <time>2019-08-16T10:47:07Z</time>
      </trkpt>
      <trkpt lat="42.0602310" lon="-6.5968380">
        <ele>950.4</ele>
        <time>2019-08-16T10:47:08Z</time>
      </trkpt>
      <trkpt lat="42.0602440" lon="-6.5968890">
        <ele>950.4</ele>
        <time>2019-08-16T10:47:09Z</time>
      </trkpt>
      <trkpt lat="42.0602580" lon="-6.5969390">
        <ele>950.4</ele>
        <time>2019-08-16T10:47:10Z</time>
      </trkpt>
      <trkpt lat="42.0602730" lon="-6.5969910">
        <ele>950.4</ele>
        <time>2019-08-16T10:47:11Z</time>
      </trkpt>
      <trkpt lat="42.0602870" lon="-6.5970440">
        <ele>950.4</ele>
        <time>2019-08-16T10:47:12Z</time>
      </trkpt>
      <trkpt lat="42.0603000" lon="-6.5970990">
        <ele>950.4</ele>
        <time>2019-08-16T10:47:13Z</time>
      </trkpt>
      <trkpt lat="42.0603130" lon="-6.5971480">
        <ele>950.4</ele>
        <time>2019-08-16T10:47:14Z</time>
      </trkpt>
      <trkpt lat="42.0603270" lon="-6.5971930">
        <ele>950.4</ele>
        <time>2019-08-16T10:47:15Z</time>
      </trkpt>
      <trkpt lat="42.0603440" lon="-6.5972360">
        <ele>950.4</ele>
        <time>2019-08-16T10:47:16Z</time>
      </trkpt>
      <trkpt lat="42.0603630" lon="-6.5972750">
        <ele>950.4</ele>
        <time>2019-08-16T10:47:17Z</time>
      </trkpt>
      <trkpt lat="42.0603740" lon="-6.5973100">
        <ele>950.4</ele>
        <time>2019-08-16T10:47:18Z</time>
      </trkpt>
      <trkpt lat="42.0604020" lon="-6.5973640">
        <ele>950.4</ele>
        <time>2019-08-16T10:47:20Z</time>
      </trkpt>
      <trkpt lat="42.0604180" lon="-6.5974060">
        <ele>950.4</ele>
        <time>2019-08-16T10:47:21Z</time>
      </trkpt>
      <trkpt lat="42.0604250" lon="-6.5974620">
        <ele>950.5</ele>
        <time>2019-08-16T10:47:22Z</time>
      </trkpt>
      <trkpt lat="42.0604300" lon="-6.5975180">
        <ele>950.5</ele>
        <time>2019-08-16T10:47:23Z</time>
      </trkpt>
      <trkpt lat="42.0604310" lon="-6.5975760">
        <ele>950.5</ele>
        <time>2019-08-16T10:47:24Z</time>
      </trkpt>
      <trkpt lat="42.0604260" lon="-6.5976360">
        <ele>950.5</ele>
        <time>2019-08-16T10:47:25Z</time>
      </trkpt>
      <trkpt lat="42.0604190" lon="-6.5976950">
        <ele>950.5</ele>
        <time>2019-08-16T10:47:26Z</time>
      </trkpt>
      <trkpt lat="42.0604110" lon="-6.5977580">
        <ele>950.5</ele>
        <time>2019-08-16T10:47:27Z</time>
      </trkpt>
      <trkpt lat="42.0604050" lon="-6.5978180">
        <ele>950.5</ele>
        <time>2019-08-16T10:47:28Z</time>
      </trkpt>
      <trkpt lat="42.0604000" lon="-6.5978810">
        <ele>950.6</ele>
        <time>2019-08-16T10:47:29Z</time>
      </trkpt>
      <trkpt lat="42.0603970" lon="-6.5979440">
        <ele>950.6</ele>
        <time>2019-08-16T10:47:30Z</time>
      </trkpt>
      <trkpt lat="42.0603970" lon="-6.5980040">
        <ele>950.6</ele>
        <time>2019-08-16T10:47:31Z</time>
      </trkpt>
      <trkpt lat="42.0604040" lon="-6.5980650">
        <ele>950.6</ele>
        <time>2019-08-16T10:47:32Z</time>
      </trkpt>
      <trkpt lat="42.0604140" lon="-6.5981270">
        <ele>950.7</ele>
        <time>2019-08-16T10:47:33Z</time>
      </trkpt>
      <trkpt lat="42.0604270" lon="-6.5981850">
        <ele>950.8</ele>
        <time>2019-08-16T10:47:34Z</time>
      </trkpt>
      <trkpt lat="42.0604430" lon="-6.5982420">
        <ele>950.9</ele>
        <time>2019-08-16T10:47:35Z</time>
      </trkpt>
      <trkpt lat="42.0604650" lon="-6.5982930">
        <ele>950.9</ele>
        <time>2019-08-16T10:47:36Z</time>
      </trkpt>
      <trkpt lat="42.0604890" lon="-6.5983420">
        <ele>951.0</ele>
        <time>2019-08-16T10:47:37Z</time>
      </trkpt>
      <trkpt lat="42.0605150" lon="-6.5983890">
        <ele>951.1</ele>
        <time>2019-08-16T10:47:38Z</time>
      </trkpt>
      <trkpt lat="42.0605400" lon="-6.5984370">
        <ele>951.2</ele>
        <time>2019-08-16T10:47:39Z</time>
      </trkpt>
      <trkpt lat="42.0605660" lon="-6.5984820">
        <ele>951.3</ele>
        <time>2019-08-16T10:47:40Z</time>
      </trkpt>
      <trkpt lat="42.0605930" lon="-6.5985280">
        <ele>951.4</ele>
        <time>2019-08-16T10:47:41Z</time>
      </trkpt>
      <trkpt lat="42.0606190" lon="-6.5985740">
        <ele>951.5</ele>
        <time>2019-08-16T10:47:42Z</time>
      </trkpt>
      <trkpt lat="42.0606400" lon="-6.5986240">
        <ele>951.6</ele>
        <time>2019-08-16T10:47:43Z</time>
      </trkpt>
      <trkpt lat="42.0606600" lon="-6.5986750">
        <ele>951.7</ele>
        <time>2019-08-16T10:47:44Z</time>
      </trkpt>
      <trkpt lat="42.0606780" lon="-6.5987250">
        <ele>951.8</ele>
        <time>2019-08-16T10:47:45Z</time>
      </trkpt>
      <trkpt lat="42.0606990" lon="-6.5987730">
        <ele>952.0</ele>
        <time>2019-08-16T10:47:46Z</time>
      </trkpt>
      <trkpt lat="42.0607220" lon="-6.5988210">
        <ele>952.1</ele>
        <time>2019-08-16T10:47:47Z</time>
      </trkpt>
      <trkpt lat="42.0607450" lon="-6.5988690">
        <ele>952.3</ele>
        <time>2019-08-16T10:47:48Z</time>
      </trkpt>
      <trkpt lat="42.0607710" lon="-6.5989150">
        <ele>952.4</ele>
        <time>2019-08-16T10:47:49Z</time>
      </trkpt>
      <trkpt lat="42.0607960" lon="-6.5989630">
        <ele>952.6</ele>
        <time>2019-08-16T10:47:50Z</time>
      </trkpt>
      <trkpt lat="42.0608250" lon="-6.5990080">
        <ele>952.7</ele>
        <time>2019-08-16T10:47:51Z</time>
      </trkpt>
      <trkpt lat="42.0608530" lon="-6.5990500">
        <ele>952.9</ele>
        <time>2019-08-16T10:47:52Z</time>
      </trkpt>
      <trkpt lat="42.0608780" lon="-6.5990910">
        <ele>953.0</ele>
        <time>2019-08-16T10:47:53Z</time>
      </trkpt>
      <trkpt lat="42.0609060" lon="-6.5991300">
        <ele>953.1</ele>
        <time>2019-08-16T10:47:54Z</time>
      </trkpt>
      <trkpt lat="42.0609360" lon="-6.5991680">
        <ele>953.3</ele>
        <time>2019-08-16T10:47:55Z</time>
      </trkpt>
      <trkpt lat="42.0609670" lon="-6.5992040">
        <ele>953.4</ele>
        <time>2019-08-16T10:47:56Z</time>
      </trkpt>
      <trkpt lat="42.0609990" lon="-6.5992370">
        <ele>953.6</ele>
        <time>2019-08-16T10:47:57Z</time>
      </trkpt>
      <trkpt lat="42.0610320" lon="-6.5992670">
        <ele>953.7</ele>
        <time>2019-08-16T10:47:58Z</time>
      </trkpt>
      <trkpt lat="42.0610660" lon="-6.5992950">
        <ele>953.8</ele>
        <time>2019-08-16T10:47:59Z</time>
      </trkpt>
      <trkpt lat="42.0611010" lon="-6.5993240">
        <ele>953.9</ele>
        <time>2019-08-16T10:48:00Z</time>
      </trkpt>
      <trkpt lat="42.0611330" lon="-6.5993540">
        <ele>954.0</ele>
        <time>2019-08-16T10:48:01Z</time>
      </trkpt>
      <trkpt lat="42.0611640" lon="-6.5993880">
        <ele>954.1</ele>
        <time>2019-08-16T10:48:02Z</time>
      </trkpt>
      <trkpt lat="42.0611910" lon="-6.5994260">
        <ele>954.2</ele>
        <time>2019-08-16T10:48:03Z</time>
      </trkpt>
      <trkpt lat="42.0612180" lon="-6.5994700">
        <ele>954.3</ele>
        <time>2019-08-16T10:48:04Z</time>
      </trkpt>
      <trkpt lat="42.0612400" lon="-6.5995220">
        <ele>954.2</ele>
        <time>2019-08-16T10:48:05Z</time>
      </trkpt>
      <trkpt lat="42.0612550" lon="-6.5995850">
        <ele>954.1</ele>
        <time>2019-08-16T10:48:06Z</time>
      </trkpt>
      <trkpt lat="42.0612630" lon="-6.5996500">
        <ele>953.9</ele>
        <time>2019-08-16T10:48:07Z</time>
      </trkpt>
      <trkpt lat="42.0612670" lon="-6.5997160">
        <ele>953.8</ele>
        <time>2019-08-16T10:48:08Z</time>
      </trkpt>
      <trkpt lat="42.0612680" lon="-6.5997820">
        <ele>953.8</ele>
        <time>2019-08-16T10:48:09Z</time>
      </trkpt>
      <trkpt lat="42.0612690" lon="-6.5998480">
        <ele>953.7</ele>
        <time>2019-08-16T10:48:10Z</time>
      </trkpt>
      <trkpt lat="42.0612680" lon="-6.5999130">
        <ele>953.7</ele>
        <time>2019-08-16T10:48:11Z</time>
      </trkpt>
      <trkpt lat="42.0612670" lon="-6.5999810">
        <ele>953.6</ele>
        <time>2019-08-16T10:48:12Z</time>
      </trkpt>
      <trkpt lat="42.0612650" lon="-6.6000490">
        <ele>953.5</ele>
        <time>2019-08-16T10:48:13Z</time>
      </trkpt>
      <trkpt lat="42.0612600" lon="-6.6001170">
        <ele>953.5</ele>
        <time>2019-08-16T10:48:14Z</time>
      </trkpt>
      <trkpt lat="42.0612530" lon="-6.6001850">
        <ele>953.5</ele>
        <time>2019-08-16T10:48:15Z</time>
      </trkpt>
      <trkpt lat="42.0612460" lon="-6.6002540">
        <ele>953.5</ele>
        <time>2019-08-16T10:48:16Z</time>
      </trkpt>
      <trkpt lat="42.0612390" lon="-6.6003230">
        <ele>953.5</ele>
        <time>2019-08-16T10:48:17Z</time>
      </trkpt>
      <trkpt lat="42.0612330" lon="-6.6003930">
        <ele>953.5</ele>
        <time>2019-08-16T10:48:18Z</time>
      </trkpt>
      <trkpt lat="42.0612270" lon="-6.6004620">
        <ele>953.4</ele>
        <time>2019-08-16T10:48:19Z</time>
      </trkpt>
      <trkpt lat="42.0612210" lon="-6.6005320">
        <ele>953.5</ele>
        <time>2019-08-16T10:48:20Z</time>
      </trkpt>
      <trkpt lat="42.0612140" lon="-6.6005990">
        <ele>953.5</ele>
        <time>2019-08-16T10:48:21Z</time>
      </trkpt>
      <trkpt lat="42.0612070" lon="-6.6006660">
        <ele>953.6</ele>
        <time>2019-08-16T10:48:22Z</time>
      </trkpt>
      <trkpt lat="42.0611980" lon="-6.6007340">
        <ele>953.6</ele>
        <time>2019-08-16T10:48:23Z</time>
      </trkpt>
      <trkpt lat="42.0611880" lon="-6.6008040">
        <ele>953.7</ele>
        <time>2019-08-16T10:48:24Z</time>
      </trkpt>
      <trkpt lat="42.0611790" lon="-6.6008730">
        <ele>953.7</ele>
        <time>2019-08-16T10:48:25Z</time>
      </trkpt>
      <trkpt lat="42.0611690" lon="-6.6009420">
        <ele>953.8</ele>
        <time>2019-08-16T10:48:26Z</time>
      </trkpt>
      <trkpt lat="42.0611590" lon="-6.6010120">
        <ele>953.9</ele>
        <time>2019-08-16T10:48:27Z</time>
      </trkpt>
      <trkpt lat="42.0611480" lon="-6.6010830">
        <ele>954.0</ele>
        <time>2019-08-16T10:48:28Z</time>
      </trkpt>
      <trkpt lat="42.0611380" lon="-6.6011530">
        <ele>954.0</ele>
        <time>2019-08-16T10:48:29Z</time>
      </trkpt>
      <trkpt lat="42.0611250" lon="-6.6012220">
        <ele>954.0</ele>
        <time>2019-08-16T10:48:30Z</time>
      </trkpt>
      <trkpt lat="42.0611110" lon="-6.6012910">
        <ele>954.1</ele>
        <time>2019-08-16T10:48:31Z</time>
      </trkpt>
      <trkpt lat="42.0610950" lon="-6.6013610">
        <ele>954.1</ele>
        <time>2019-08-16T10:48:32Z</time>
      </trkpt>
      <trkpt lat="42.0610800" lon="-6.6014330">
        <ele>954.2</ele>
        <time>2019-08-16T10:48:33Z</time>
      </trkpt>
      <trkpt lat="42.0610640" lon="-6.6015060">
        <ele>954.2</ele>
        <time>2019-08-16T10:48:34Z</time>
      </trkpt>
      <trkpt lat="42.0610470" lon="-6.6015770">
        <ele>954.2</ele>
        <time>2019-08-16T10:48:35Z</time>
      </trkpt>
      <trkpt lat="42.0610280" lon="-6.6016490">
        <ele>954.3</ele>
        <time>2019-08-16T10:48:36Z</time>
      </trkpt>
      <trkpt lat="42.0610090" lon="-6.6017200">
        <ele>954.3</ele>
        <time>2019-08-16T10:48:37Z</time>
      </trkpt>
      <trkpt lat="42.0609900" lon="-6.6017910">
        <ele>954.3</ele>
        <time>2019-08-16T10:48:38Z</time>
      </trkpt>
      <trkpt lat="42.0609700" lon="-6.6018620">
        <ele>954.3</ele>
        <time>2019-08-16T10:48:39Z</time>
      </trkpt>
      <trkpt lat="42.0609500" lon="-6.6019350">
        <ele>954.3</ele>
        <time>2019-08-16T10:48:40Z</time>
      </trkpt>
      <trkpt lat="42.0609270" lon="-6.6020050">
        <ele>954.3</ele>
        <time>2019-08-16T10:48:41Z</time>
      </trkpt>
      <trkpt lat="42.0609040" lon="-6.6020750">
        <ele>954.3</ele>
        <time>2019-08-16T10:48:42Z</time>
      </trkpt>
      <trkpt lat="42.0608780" lon="-6.6021470">
        <ele>954.3</ele>
        <time>2019-08-16T10:48:43Z</time>
      </trkpt>
      <trkpt lat="42.0608520" lon="-6.6022170">
        <ele>954.3</ele>
        <time>2019-08-16T10:48:44Z</time>
      </trkpt>
      <trkpt lat="42.0608240" lon="-6.6022890">
        <ele>954.4</ele>
        <time>2019-08-16T10:48:45Z</time>
      </trkpt>
      <trkpt lat="42.0607970" lon="-6.6023580">
        <ele>954.4</ele>
        <time>2019-08-16T10:48:46Z</time>
      </trkpt>
      <trkpt lat="42.0607670" lon="-6.6024260">
        <ele>954.4</ele>
        <time>2019-08-16T10:48:47Z</time>
      </trkpt>
      <trkpt lat="42.0607380" lon="-6.6024940">
        <ele>954.4</ele>
        <time>2019-08-16T10:48:48Z</time>
      </trkpt>
      <trkpt lat="42.0607080" lon="-6.6025620">
        <ele>954.4</ele>
        <time>2019-08-16T10:48:49Z</time>
      </trkpt>
      <trkpt lat="42.0606790" lon="-6.6026300">
        <ele>954.5</ele>
        <time>2019-08-16T10:48:50Z</time>
      </trkpt>
      <trkpt lat="42.0606510" lon="-6.6027000">
        <ele>954.5</ele>
        <time>2019-08-16T10:48:51Z</time>
      </trkpt>
      <trkpt lat="42.0606230" lon="-6.6027690">
        <ele>954.6</ele>
        <time>2019-08-16T10:48:52Z</time>
      </trkpt>
      <trkpt lat="42.0605950" lon="-6.6028380">
        <ele>954.6</ele>
        <time>2019-08-16T10:48:53Z</time>
      </trkpt>
      <trkpt lat="42.0605670" lon="-6.6029040">
        <ele>954.7</ele>
        <time>2019-08-16T10:48:54Z</time>
      </trkpt>
      <trkpt lat="42.0605400" lon="-6.6029710">
        <ele>954.7</ele>
        <time>2019-08-16T10:48:55Z</time>
      </trkpt>
      <trkpt lat="42.0605120" lon="-6.6030390">
        <ele>954.8</ele>
        <time>2019-08-16T10:48:56Z</time>
      </trkpt>
      <trkpt lat="42.0604840" lon="-6.6031060">
        <ele>954.9</ele>
        <time>2019-08-16T10:48:57Z</time>
      </trkpt>
      <trkpt lat="42.0604570" lon="-6.6031720">
        <ele>954.9</ele>
        <time>2019-08-16T10:48:58Z</time>
      </trkpt>
      <trkpt lat="42.0604300" lon="-6.6032380">
        <ele>955.0</ele>
        <time>2019-08-16T10:48:59Z</time>
      </trkpt>
      <trkpt lat="42.0604020" lon="-6.6033040">
        <ele>955.1</ele>
        <time>2019-08-16T10:49:00Z</time>
      </trkpt>
      <trkpt lat="42.0603740" lon="-6.6033660">
        <ele>955.2</ele>
        <time>2019-08-16T10:49:01Z</time>
      </trkpt>
      <trkpt lat="42.0603460" lon="-6.6034270">
        <ele>955.3</ele>
        <time>2019-08-16T10:49:02Z</time>
      </trkpt>
      <trkpt lat="42.0603170" lon="-6.6034860">
        <ele>955.3</ele>
        <time>2019-08-16T10:49:03Z</time>
      </trkpt>
      <trkpt lat="42.0602870" lon="-6.6035410">
        <ele>955.5</ele>
        <time>2019-08-16T10:49:04Z</time>
      </trkpt>
      <trkpt lat="42.0602510" lon="-6.6035940">
        <ele>955.6</ele>
        <time>2019-08-16T10:49:05Z</time>
      </trkpt>
      <trkpt lat="42.0602140" lon="-6.6036450">
        <ele>955.6</ele>
        <time>2019-08-16T10:49:06Z</time>
      </trkpt>
      <trkpt lat="42.0601730" lon="-6.6036940">
        <ele>955.7</ele>
        <time>2019-08-16T10:49:07Z</time>
      </trkpt>
      <trkpt lat="42.0601300" lon="-6.6037420">
        <ele>955.7</ele>
        <time>2019-08-16T10:49:08Z</time>
      </trkpt>
      <trkpt lat="42.0600870" lon="-6.6037890">
        <ele>955.8</ele>
        <time>2019-08-16T10:49:09Z</time>
      </trkpt>
      <trkpt lat="42.0600430" lon="-6.6038360">
        <ele>955.8</ele>
        <time>2019-08-16T10:49:10Z</time>
      </trkpt>
      <trkpt lat="42.0599990" lon="-6.6038830">
        <ele>955.9</ele>
        <time>2019-08-16T10:49:11Z</time>
      </trkpt>
      <trkpt lat="42.0599550" lon="-6.6039280">
        <ele>955.9</ele>
        <time>2019-08-16T10:49:12Z</time>
      </trkpt>
      <trkpt lat="42.0599120" lon="-6.6039730">
        <ele>956.0</ele>
        <time>2019-08-16T10:49:13Z</time>
      </trkpt>
      <trkpt lat="42.0598690" lon="-6.6040170">
        <ele>956.0</ele>
        <time>2019-08-16T10:49:14Z</time>
      </trkpt>
      <trkpt lat="42.0598280" lon="-6.6040600">
        <ele>956.0</ele>
        <time>2019-08-16T10:49:15Z</time>
      </trkpt>
      <trkpt lat="42.0597850" lon="-6.6041040">
        <ele>956.1</ele>
        <time>2019-08-16T10:49:16Z</time>
      </trkpt>
      <trkpt lat="42.0597420" lon="-6.6041480">
        <ele>956.1</ele>
        <time>2019-08-16T10:49:17Z</time>
      </trkpt>
      <trkpt lat="42.0596980" lon="-6.6041940">
        <ele>956.1</ele>
        <time>2019-08-16T10:49:18Z</time>
      </trkpt>
      <trkpt lat="42.0596550" lon="-6.6042420">
        <ele>956.1</ele>
        <time>2019-08-16T10:49:19Z</time>
      </trkpt>
      <trkpt lat="42.0596110" lon="-6.6042910">
        <ele>956.1</ele>
        <time>2019-08-16T10:49:20Z</time>
      </trkpt>
      <trkpt lat="42.0595670" lon="-6.6043400">
        <ele>956.0</ele>
        <time>2019-08-16T10:49:21Z</time>
      </trkpt>
      <trkpt lat="42.0595230" lon="-6.6043900">
        <ele>956.0</ele>
        <time>2019-08-16T10:49:22Z</time>
      </trkpt>
      <trkpt lat="42.0594800" lon="-6.6044420">
        <ele>956.0</ele>
        <time>2019-08-16T10:49:23Z</time>
      </trkpt>
      <trkpt lat="42.0594380" lon="-6.6044950">
        <ele>956.0</ele>
        <time>2019-08-16T10:49:24Z</time>
      </trkpt>
      <trkpt lat="42.0593950" lon="-6.6045450">
        <ele>956.1</ele>
        <time>2019-08-16T10:49:25Z</time>
      </trkpt>
      <trkpt lat="42.0593530" lon="-6.6045960">
        <ele>956.1</ele>
        <time>2019-08-16T10:49:26Z</time>
      </trkpt>
      <trkpt lat="42.0593100" lon="-6.6046480">
        <ele>956.2</ele>
        <time>2019-08-16T10:49:27Z</time>
      </trkpt>
      <trkpt lat="42.0592680" lon="-6.6047010">
        <ele>956.2</ele>
        <time>2019-08-16T10:49:28Z</time>
      </trkpt>
      <trkpt lat="42.0592270" lon="-6.6047530">
        <ele>956.3</ele>
        <time>2019-08-16T10:49:29Z</time>
      </trkpt>
      <trkpt lat="42.0591860" lon="-6.6048030">
        <ele>956.3</ele>
        <time>2019-08-16T10:49:30Z</time>
      </trkpt>
      <trkpt lat="42.0591470" lon="-6.6048510">
        <ele>956.4</ele>
        <time>2019-08-16T10:49:31Z</time>
      </trkpt>
      <trkpt lat="42.0591100" lon="-6.6049040">
        <ele>956.5</ele>
        <time>2019-08-16T10:49:32Z</time>
      </trkpt>
      <trkpt lat="42.0590760" lon="-6.6049570">
        <ele>956.7</ele>
        <time>2019-08-16T10:49:33Z</time>
      </trkpt>
      <trkpt lat="42.0590440" lon="-6.6050090">
        <ele>956.8</ele>
        <time>2019-08-16T10:49:34Z</time>
      </trkpt>
      <trkpt lat="42.0590140" lon="-6.6050600">
        <ele>956.9</ele>
        <time>2019-08-16T10:49:35Z</time>
      </trkpt>
      <trkpt lat="42.0589860" lon="-6.6051100">
        <ele>957.1</ele>
        <time>2019-08-16T10:49:36Z</time>
      </trkpt>
      <trkpt lat="42.0589600" lon="-6.6051590">
        <ele>957.3</ele>
        <time>2019-08-16T10:49:37Z</time>
      </trkpt>
      <trkpt lat="42.0589360" lon="-6.6052080">
        <ele>957.5</ele>
        <time>2019-08-16T10:49:38Z</time>
      </trkpt>
      <trkpt lat="42.0589130" lon="-6.6052530">
        <ele>957.7</ele>
        <time>2019-08-16T10:49:39Z</time>
      </trkpt>
      <trkpt lat="42.0588900" lon="-6.6052980">
        <ele>957.9</ele>
        <time>2019-08-16T10:49:40Z</time>
      </trkpt>
      <trkpt lat="42.0588690" lon="-6.6053430">
        <ele>958.1</ele>
        <time>2019-08-16T10:49:41Z</time>
      </trkpt>
      <trkpt lat="42.0588500" lon="-6.6053870">
        <ele>958.3</ele>
        <time>2019-08-16T10:49:42Z</time>
      </trkpt>
      <trkpt lat="42.0588310" lon="-6.6054300">
        <ele>958.5</ele>
        <time>2019-08-16T10:49:43Z</time>
      </trkpt>
      <trkpt lat="42.0588120" lon="-6.6054720">
        <ele>958.7</ele>
        <time>2019-08-16T10:49:44Z</time>
      </trkpt>
      <trkpt lat="42.0587920" lon="-6.6055140">
        <ele>958.9</ele>
        <time>2019-08-16T10:49:45Z</time>
      </trkpt>
      <trkpt lat="42.0587720" lon="-6.6055530">
        <ele>959.1</ele>
        <time>2019-08-16T10:49:46Z</time>
      </trkpt>
      <trkpt lat="42.0587530" lon="-6.6055920">
        <ele>959.3</ele>
        <time>2019-08-16T10:49:47Z</time>
      </trkpt>
      <trkpt lat="42.0587350" lon="-6.6056320">
        <ele>959.4</ele>
        <time>2019-08-16T10:49:48Z</time>
      </trkpt>
      <trkpt lat="42.0587170" lon="-6.6056720">
        <ele>959.6</ele>
        <time>2019-08-16T10:49:49Z</time>
      </trkpt>
      <trkpt lat="42.0586990" lon="-6.6057130">
        <ele>959.8</ele>
        <time>2019-08-16T10:49:50Z</time>
      </trkpt>
      <trkpt lat="42.0586790" lon="-6.6057530">
        <ele>959.9</ele>
        <time>2019-08-16T10:49:51Z</time>
      </trkpt>
      <trkpt lat="42.0586590" lon="-6.6057920">
        <ele>960.1</ele>
        <time>2019-08-16T10:49:52Z</time>
      </trkpt>
      <trkpt lat="42.0586390" lon="-6.6058310">
        <ele>960.3</ele>
        <time>2019-08-16T10:49:53Z</time>
      </trkpt>
      <trkpt lat="42.0586180" lon="-6.6058710">
        <ele>960.4</ele>
        <time>2019-08-16T10:49:54Z</time>
      </trkpt>
      <trkpt lat="42.0585970" lon="-6.6059120">
        <ele>960.7</ele>
        <time>2019-08-16T10:49:55Z</time>
      </trkpt>
      <trkpt lat="42.0585750" lon="-6.6059510">
        <ele>960.9</ele>
        <time>2019-08-16T10:49:56Z</time>
      </trkpt>
      <trkpt lat="42.0585510" lon="-6.6059900">
        <ele>961.1</ele>
        <time>2019-08-16T10:49:57Z</time>
      </trkpt>
      <trkpt lat="42.0585260" lon="-6.6060280">
        <ele>961.3</ele>
        <time>2019-08-16T10:49:58Z</time>
      </trkpt>
      <trkpt lat="42.0585020" lon="-6.6060670">
        <ele>961.6</ele>
        <time>2019-08-16T10:49:59Z</time>
      </trkpt>
      <trkpt lat="42.0584780" lon="-6.6061080">
        <ele>961.8</ele>
        <time>2019-08-16T10:50:00Z</time>
      </trkpt>
      <trkpt lat="42.0584530" lon="-6.6061490">
        <ele>962.0</ele>
        <time>2019-08-16T10:50:01Z</time>
      </trkpt>
      <trkpt lat="42.0584280" lon="-6.6061900">
        <ele>962.1</ele>
        <time>2019-08-16T10:50:02Z</time>
      </trkpt>
      <trkpt lat="42.0584040" lon="-6.6062300">
        <ele>962.2</ele>
        <time>2019-08-16T10:50:03Z</time>
      </trkpt>
      <trkpt lat="42.0583790" lon="-6.6062720">
        <ele>962.3</ele>
        <time>2019-08-16T10:50:04Z</time>
      </trkpt>
      <trkpt lat="42.0583550" lon="-6.6063120">
        <ele>962.4</ele>
        <time>2019-08-16T10:50:05Z</time>
      </trkpt>
      <trkpt lat="42.0583310" lon="-6.6063510">
        <ele>962.5</ele>
        <time>2019-08-16T10:50:06Z</time>
      </trkpt>
      <trkpt lat="42.0583070" lon="-6.6063900">
        <ele>962.5</ele>
        <time>2019-08-16T10:50:07Z</time>
      </trkpt>
      <trkpt lat="42.0582830" lon="-6.6064290">
        <ele>962.6</ele>
        <time>2019-08-16T10:50:08Z</time>
      </trkpt>
      <trkpt lat="42.0582600" lon="-6.6064680">
        <ele>962.7</ele>
        <time>2019-08-16T10:50:09Z</time>
      </trkpt>
      <trkpt lat="42.0582350" lon="-6.6065080">
        <ele>962.7</ele>
        <time>2019-08-16T10:50:10Z</time>
      </trkpt>
      <trkpt lat="42.0582120" lon="-6.6065480">
        <ele>962.8</ele>
        <time>2019-08-16T10:50:11Z</time>
      </trkpt>
      <trkpt lat="42.0581860" lon="-6.6065860">
        <ele>962.8</ele>
        <time>2019-08-16T10:50:12Z</time>
      </trkpt>
      <trkpt lat="42.0581610" lon="-6.6066250">
        <ele>962.9</ele>
        <time>2019-08-16T10:50:13Z</time>
      </trkpt>
      <trkpt lat="42.0581370" lon="-6.6066640">
        <ele>963.0</ele>
        <time>2019-08-16T10:50:14Z</time>
      </trkpt>
      <trkpt lat="42.0581130" lon="-6.6067030">
        <ele>963.0</ele>
        <time>2019-08-16T10:50:15Z</time>
      </trkpt>
      <trkpt lat="42.0580880" lon="-6.6067440">
        <ele>963.1</ele>
        <time>2019-08-16T10:50:16Z</time>
      </trkpt>
      <trkpt lat="42.0580610" lon="-6.6067820">
        <ele>963.2</ele>
        <time>2019-08-16T10:50:17Z</time>
      </trkpt>
      <trkpt lat="42.0580360" lon="-6.6068210">
        <ele>963.2</ele>
        <time>2019-08-16T10:50:18Z</time>
      </trkpt>
      <trkpt lat="42.0580130" lon="-6.6068640">
        <ele>963.4</ele>
        <time>2019-08-16T10:50:19Z</time>
      </trkpt>
      <trkpt lat="42.0579890" lon="-6.6069060">
        <ele>963.5</ele>
        <time>2019-08-16T10:50:20Z</time>
      </trkpt>
      <trkpt lat="42.0579660" lon="-6.6069470">
        <ele>963.6</ele>
        <time>2019-08-16T10:50:21Z</time>
      </trkpt>
      <trkpt lat="42.0579440" lon="-6.6069890">
        <ele>963.7</ele>
        <time>2019-08-16T10:50:22Z</time>
      </trkpt>
      <trkpt lat="42.0579220" lon="-6.6070320">
        <ele>963.8</ele>
        <time>2019-08-16T10:50:23Z</time>
      </trkpt>
      <trkpt lat="42.0578980" lon="-6.6070750">
        <ele>963.9</ele>
        <time>2019-08-16T10:50:24Z</time>
      </trkpt>
      <trkpt lat="42.0578760" lon="-6.6071200">
        <ele>964.0</ele>
        <time>2019-08-16T10:50:25Z</time>
      </trkpt>
      <trkpt lat="42.0578540" lon="-6.6071660">
        <ele>964.1</ele>
        <time>2019-08-16T10:50:26Z</time>
      </trkpt>
      <trkpt lat="42.0578330" lon="-6.6072110">
        <ele>964.2</ele>
        <time>2019-08-16T10:50:27Z</time>
      </trkpt>
      <trkpt lat="42.0578130" lon="-6.6072550">
        <ele>964.2</ele>
        <time>2019-08-16T10:50:28Z</time>
      </trkpt>
      <trkpt lat="42.0577950" lon="-6.6072980">
        <ele>964.3</ele>
        <time>2019-08-16T10:50:29Z</time>
      </trkpt>
      <trkpt lat="42.0577770" lon="-6.6073400">
        <ele>964.4</ele>
        <time>2019-08-16T10:50:30Z</time>
      </trkpt>
      <trkpt lat="42.0577600" lon="-6.6073820">
        <ele>964.4</ele>
        <time>2019-08-16T10:50:31Z</time>
      </trkpt>
      <trkpt lat="42.0577430" lon="-6.6074250">
        <ele>964.5</ele>
        <time>2019-08-16T10:50:32Z</time>
      </trkpt>
      <trkpt lat="42.0577260" lon="-6.6074670">
        <ele>964.6</ele>
        <time>2019-08-16T10:50:33Z</time>
      </trkpt>
      <trkpt lat="42.0577120" lon="-6.6075120">
        <ele>964.6</ele>
        <time>2019-08-16T10:50:34Z</time>
      </trkpt>
      <trkpt lat="42.0576980" lon="-6.6075590">
        <ele>964.7</ele>
        <time>2019-08-16T10:50:35Z</time>
      </trkpt>
      <trkpt lat="42.0576870" lon="-6.6076110">
        <ele>964.7</ele>
        <time>2019-08-16T10:50:36Z</time>
      </trkpt>
      <trkpt lat="42.0576750" lon="-6.6076650">
        <ele>964.8</ele>
        <time>2019-08-16T10:50:37Z</time>
      </trkpt>
      <trkpt lat="42.0576640" lon="-6.6077230">
        <ele>964.8</ele>
        <time>2019-08-16T10:50:38Z</time>
      </trkpt>
      <trkpt lat="42.0576540" lon="-6.6077820">
        <ele>964.8</ele>
        <time>2019-08-16T10:50:39Z</time>
      </trkpt>
      <trkpt lat="42.0576440" lon="-6.6078420">
        <ele>964.8</ele>
        <time>2019-08-16T10:50:40Z</time>
      </trkpt>
      <trkpt lat="42.0576340" lon="-6.6079030">
        <ele>964.8</ele>
        <time>2019-08-16T10:50:41Z</time>
      </trkpt>
      <trkpt lat="42.0576200" lon="-6.6079630">
        <ele>964.8</ele>
        <time>2019-08-16T10:50:42Z</time>
      </trkpt>
      <trkpt lat="42.0576060" lon="-6.6080250">
        <ele>964.8</ele>
        <time>2019-08-16T10:50:43Z</time>
      </trkpt>
      <trkpt lat="42.0575930" lon="-6.6080890">
        <ele>964.7</ele>
        <time>2019-08-16T10:50:44Z</time>
      </trkpt>
      <trkpt lat="42.0575790" lon="-6.6081550">
        <ele>964.5</ele>
        <time>2019-08-16T10:50:45Z</time>
      </trkpt>
      <trkpt lat="42.0575650" lon="-6.6082200">
        <ele>964.4</ele>
        <time>2019-08-16T10:50:46Z</time>
      </trkpt>
      <trkpt lat="42.0575500" lon="-6.6082870">
        <ele>964.3</ele>
        <time>2019-08-16T10:50:47Z</time>
      </trkpt>
      <trkpt lat="42.0575320" lon="-6.6083550">
        <ele>964.1</ele>
        <time>2019-08-16T10:50:48Z</time>
      </trkpt>
      <trkpt lat="42.0575110" lon="-6.6084200">
        <ele>963.8</ele>
        <time>2019-08-16T10:50:49Z</time>
      </trkpt>
      <trkpt lat="42.0574880" lon="-6.6084870">
        <ele>963.6</ele>
        <time>2019-08-16T10:50:50Z</time>
      </trkpt>
      <trkpt lat="42.0574600" lon="-6.6085510">
        <ele>963.4</ele>
        <time>2019-08-16T10:50:51Z</time>
      </trkpt>
      <trkpt lat="42.0574270" lon="-6.6086130">
        <ele>963.1</ele>
        <time>2019-08-16T10:50:52Z</time>
      </trkpt>
      <trkpt lat="42.0573890" lon="-6.6086730">
        <ele>962.8</ele>
        <time>2019-08-16T10:50:53Z</time>
      </trkpt>
      <trkpt lat="42.0573440" lon="-6.6087270">
        <ele>962.5</ele>
        <time>2019-08-16T10:50:54Z</time>
      </trkpt>
      <trkpt lat="42.0572940" lon="-6.6087760">
        <ele>961.9</ele>
        <time>2019-08-16T10:50:55Z</time>
      </trkpt>
      <trkpt lat="42.0572380" lon="-6.6088190">
        <ele>961.3</ele>
        <time>2019-08-16T10:50:56Z</time>
      </trkpt>
      <trkpt lat="42.0571770" lon="-6.6088560">
        <ele>960.8</ele>
        <time>2019-08-16T10:50:57Z</time>
      </trkpt>
      <trkpt lat="42.0571160" lon="-6.6088890">
        <ele>960.4</ele>
        <time>2019-08-16T10:50:58Z</time>
      </trkpt>
      <trkpt lat="42.0570560" lon="-6.6089200">
        <ele>959.9</ele>
        <time>2019-08-16T10:50:59Z</time>
      </trkpt>
      <trkpt lat="42.0569970" lon="-6.6089480">
        <ele>959.5</ele>
        <time>2019-08-16T10:51:00Z</time>
      </trkpt>
      <trkpt lat="42.0569390" lon="-6.6089770">
        <ele>959.2</ele>
        <time>2019-08-16T10:51:01Z</time>
      </trkpt>
      <trkpt lat="42.0568800" lon="-6.6090070">
        <ele>958.8</ele>
        <time>2019-08-16T10:51:02Z</time>
      </trkpt>
      <trkpt lat="42.0568210" lon="-6.6090350">
        <ele>958.4</ele>
        <time>2019-08-16T10:51:03Z</time>
      </trkpt>
      <trkpt lat="42.0567630" lon="-6.6090640">
        <ele>958.0</ele>
        <time>2019-08-16T10:51:04Z</time>
      </trkpt>
      <trkpt lat="42.0567050" lon="-6.6090950">
        <ele>957.6</ele>
        <time>2019-08-16T10:51:05Z</time>
      </trkpt>
      <trkpt lat="42.0566490" lon="-6.6091340">
        <ele>957.4</ele>
        <time>2019-08-16T10:51:06Z</time>
      </trkpt>
      <trkpt lat="42.0565960" lon="-6.6091830">
        <ele>957.2</ele>
        <time>2019-08-16T10:51:07Z</time>
      </trkpt>
      <trkpt lat="42.0565490" lon="-6.6092450">
        <ele>957.0</ele>
        <time>2019-08-16T10:51:08Z</time>
      </trkpt>
      <trkpt lat="42.0565140" lon="-6.6093230">
        <ele>956.8</ele>
        <time>2019-08-16T10:51:09Z</time>
      </trkpt>
      <trkpt lat="42.0564930" lon="-6.6094100">
        <ele>956.6</ele>
        <time>2019-08-16T10:51:10Z</time>
      </trkpt>
      <trkpt lat="42.0564870" lon="-6.6095030">
        <ele>956.3</ele>
        <time>2019-08-16T10:51:11Z</time>
      </trkpt>
      <trkpt lat="42.0564970" lon="-6.6095960">
        <ele>956.1</ele>
        <time>2019-08-16T10:51:12Z</time>
      </trkpt>
      <trkpt lat="42.0565210" lon="-6.6096870">
        <ele>955.8</ele>
        <time>2019-08-16T10:51:13Z</time>
      </trkpt>
      <trkpt lat="42.0565610" lon="-6.6097710">
        <ele>955.5</ele>
        <time>2019-08-16T10:51:14Z</time>
      </trkpt>
      <trkpt lat="42.0566120" lon="-6.6098480">
        <ele>955.2</ele>
        <time>2019-08-16T10:51:15Z</time>
      </trkpt>
      <trkpt lat="42.0566710" lon="-6.6099170">
        <ele>955.0</ele>
        <time>2019-08-16T10:51:16Z</time>
      </trkpt>
      <trkpt lat="42.0567300" lon="-6.6099870">
        <ele>954.7</ele>
        <time>2019-08-16T10:51:17Z</time>
      </trkpt>
      <trkpt lat="42.0567860" lon="-6.6100600">
        <ele>954.4</ele>
        <time>2019-08-16T10:51:18Z</time>
      </trkpt>
      <trkpt lat="42.0568400" lon="-6.6101380">
        <ele>954.0</ele>
        <time>2019-08-16T10:51:19Z</time>
      </trkpt>
      <trkpt lat="42.0568910" lon="-6.6102180">
        <ele>953.7</ele>
        <time>2019-08-16T10:51:20Z</time>
      </trkpt>
      <trkpt lat="42.0569380" lon="-6.6103030">
        <ele>953.4</ele>
        <time>2019-08-16T10:51:21Z</time>
      </trkpt>
      <trkpt lat="42.0569790" lon="-6.6103920">
        <ele>953.1</ele>
        <time>2019-08-16T10:51:22Z</time>
      </trkpt>
      <trkpt lat="42.0570170" lon="-6.6104830">
        <ele>952.8</ele>
        <time>2019-08-16T10:51:23Z</time>
      </trkpt>
      <trkpt lat="42.0570510" lon="-6.6105770">
        <ele>952.5</ele>
        <time>2019-08-16T10:51:24Z</time>
      </trkpt>
      <trkpt lat="42.0570820" lon="-6.6106720">
        <ele>952.2</ele>
        <time>2019-08-16T10:51:25Z</time>
      </trkpt>
      <trkpt lat="42.0571100" lon="-6.6107710">
        <ele>952.0</ele>
        <time>2019-08-16T10:51:26Z</time>
      </trkpt>
      <trkpt lat="42.0571320" lon="-6.6108740">
        <ele>951.5</ele>
        <time>2019-08-16T10:51:27Z</time>
      </trkpt>
      <trkpt lat="42.0571500" lon="-6.6109800">
        <ele>950.9</ele>
        <time>2019-08-16T10:51:28Z</time>
      </trkpt>
      <trkpt lat="42.0571620" lon="-6.6110860">
        <ele>950.4</ele>
        <time>2019-08-16T10:51:29Z</time>
      </trkpt>
      <trkpt lat="42.0571670" lon="-6.6111890">
        <ele>949.9</ele>
        <time>2019-08-16T10:51:30Z</time>
      </trkpt>
      <trkpt lat="42.0571630" lon="-6.6112910">
        <ele>949.2</ele>
        <time>2019-08-16T10:51:31Z</time>
      </trkpt>
      <trkpt lat="42.0571500" lon="-6.6113880">
        <ele>948.7</ele>
        <time>2019-08-16T10:51:32Z</time>
      </trkpt>
      <trkpt lat="42.0571300" lon="-6.6114800">
        <ele>948.1</ele>
        <time>2019-08-16T10:51:33Z</time>
      </trkpt>
      <trkpt lat="42.0571060" lon="-6.6115710">
        <ele>947.5</ele>
        <time>2019-08-16T10:51:34Z</time>
      </trkpt>
      <trkpt lat="42.0570830" lon="-6.6116590">
        <ele>947.0</ele>
        <time>2019-08-16T10:51:35Z</time>
      </trkpt>
      <trkpt lat="42.0570580" lon="-6.6117480">
        <ele>946.4</ele>
        <time>2019-08-16T10:51:36Z</time>
      </trkpt>
      <trkpt lat="42.0570340" lon="-6.6118350">
        <ele>945.8</ele>
        <time>2019-08-16T10:51:37Z</time>
      </trkpt>
      <trkpt lat="42.0570100" lon="-6.6119210">
        <ele>945.2</ele>
        <time>2019-08-16T10:51:38Z</time>
      </trkpt>
      <trkpt lat="42.0569850" lon="-6.6120030">
        <ele>944.5</ele>
        <time>2019-08-16T10:51:39Z</time>
      </trkpt>
      <trkpt lat="42.0569610" lon="-6.6120830">
        <ele>943.9</ele>
        <time>2019-08-16T10:51:40Z</time>
      </trkpt>
      <trkpt lat="42.0569370" lon="-6.6121570">
        <ele>943.3</ele>
        <time>2019-08-16T10:51:41Z</time>
      </trkpt>
      <trkpt lat="42.0569130" lon="-6.6122230">
        <ele>942.5</ele>
        <time>2019-08-16T10:51:42Z</time>
      </trkpt>
      <trkpt lat="42.0568900" lon="-6.6122810">
        <ele>941.7</ele>
        <time>2019-08-16T10:51:43Z</time>
      </trkpt>
      <trkpt lat="42.0568710" lon="-6.6123310">
        <ele>941.0</ele>
        <time>2019-08-16T10:51:44Z</time>
      </trkpt>
      <trkpt lat="42.0568560" lon="-6.6123730">
        <ele>940.3</ele>
        <time>2019-08-16T10:51:45Z</time>
      </trkpt>
      <trkpt lat="42.0568440" lon="-6.6124080">
        <ele>939.6</ele>
        <time>2019-08-16T10:51:46Z</time>
      </trkpt>
      <trkpt lat="42.0568330" lon="-6.6124550">
        <ele>939.1</ele>
        <time>2019-08-16T10:51:48Z</time>
      </trkpt>
      <trkpt lat="42.0568260" lon="-6.6124910">
        <ele>938.8</ele>
        <time>2019-08-16T10:51:51Z</time>
      </trkpt>
      <trkpt lat="42.0568280" lon="-6.6125280">
        <ele>937.9</ele>
        <time>2019-08-16T10:52:01Z</time>
      </trkpt>
      <trkpt lat="42.0568450" lon="-6.6125850">
        <ele>937.6</ele>
        <time>2019-08-16T10:52:03Z</time>
      </trkpt>
      <trkpt lat="42.0568560" lon="-6.6126240">
        <ele>937.5</ele>
        <time>2019-08-16T10:52:04Z</time>
      </trkpt>
      <trkpt lat="42.0568690" lon="-6.6126700">
        <ele>937.2</ele>
        <time>2019-08-16T10:52:05Z</time>
      </trkpt>
      <trkpt lat="42.0568850" lon="-6.6127220">
        <ele>936.9</ele>
        <time>2019-08-16T10:52:06Z</time>
      </trkpt>
      <trkpt lat="42.0569020" lon="-6.6127780">
        <ele>936.7</ele>
        <time>2019-08-16T10:52:07Z</time>
      </trkpt>
      <trkpt lat="42.0569190" lon="-6.6128360">
        <ele>936.5</ele>
        <time>2019-08-16T10:52:08Z</time>
      </trkpt>
      <trkpt lat="42.0569360" lon="-6.6128960">
        <ele>936.2</ele>
        <time>2019-08-16T10:52:09Z</time>
      </trkpt>
      <trkpt lat="42.0569520" lon="-6.6129570">
        <ele>935.9</ele>
        <time>2019-08-16T10:52:10Z</time>
      </trkpt>
      <trkpt lat="42.0569680" lon="-6.6130190">
        <ele>935.7</ele>
        <time>2019-08-16T10:52:11Z</time>
      </trkpt>
      <trkpt lat="42.0569860" lon="-6.6130830">
        <ele>935.3</ele>
        <time>2019-08-16T10:52:12Z</time>
      </trkpt>
      <trkpt lat="42.0570030" lon="-6.6131480">
        <ele>935.0</ele>
        <time>2019-08-16T10:52:13Z</time>
      </trkpt>
      <trkpt lat="42.0570200" lon="-6.6132160">
        <ele>934.5</ele>
        <time>2019-08-16T10:52:14Z</time>
      </trkpt>
      <trkpt lat="42.0570350" lon="-6.6132860">
        <ele>933.8</ele>
        <time>2019-08-16T10:52:15Z</time>
      </trkpt>
      <trkpt lat="42.0570500" lon="-6.6133580">
        <ele>933.6</ele>
        <time>2019-08-16T10:52:16Z</time>
      </trkpt>
      <trkpt lat="42.0570640" lon="-6.6134320">
        <ele>933.5</ele>
        <time>2019-08-16T10:52:17Z</time>
      </trkpt>
      <trkpt lat="42.0570800" lon="-6.6135090">
        <ele>933.3</ele>
        <time>2019-08-16T10:52:18Z</time>
      </trkpt>
      <trkpt lat="42.0570960" lon="-6.6135880">
        <ele>933.2</ele>
        <time>2019-08-16T10:52:19Z</time>
      </trkpt>
      <trkpt lat="42.0571110" lon="-6.6136700">
        <ele>932.8</ele>
        <time>2019-08-16T10:52:20Z</time>
      </trkpt>
      <trkpt lat="42.0571250" lon="-6.6137550">
        <ele>932.5</ele>
        <time>2019-08-16T10:52:21Z</time>
      </trkpt>
      <trkpt lat="42.0571390" lon="-6.6138410">
        <ele>932.1</ele>
        <time>2019-08-16T10:52:22Z</time>
      </trkpt>
      <trkpt lat="42.0571510" lon="-6.6139290">
        <ele>931.7</ele>
        <time>2019-08-16T10:52:23Z</time>
      </trkpt>
      <trkpt lat="42.0571650" lon="-6.6140180">
        <ele>931.5</ele>
        <time>2019-08-16T10:52:24Z</time>
      </trkpt>
      <trkpt lat="42.0571770" lon="-6.6141070">
        <ele>931.3</ele>
        <time>2019-08-16T10:52:25Z</time>
      </trkpt>
      <trkpt lat="42.0571900" lon="-6.6142000">
        <ele>931.0</ele>
        <time>2019-08-16T10:52:26Z</time>
      </trkpt>
      <trkpt lat="42.0572030" lon="-6.6142950">
        <ele>930.7</ele>
        <time>2019-08-16T10:52:27Z</time>
      </trkpt>
      <trkpt lat="42.0572180" lon="-6.6143920">
        <ele>930.5</ele>
        <time>2019-08-16T10:52:28Z</time>
      </trkpt>
      <trkpt lat="42.0572320" lon="-6.6144900">
        <ele>930.3</ele>
        <time>2019-08-16T10:52:29Z</time>
      </trkpt>
      <trkpt lat="42.0572450" lon="-6.6145890">
        <ele>930.2</ele>
        <time>2019-08-16T10:52:30Z</time>
      </trkpt>
      <trkpt lat="42.0572570" lon="-6.6146890">
        <ele>930.1</ele>
        <time>2019-08-16T10:52:31Z</time>
      </trkpt>
      <trkpt lat="42.0572680" lon="-6.6147890">
        <ele>930.0</ele>
        <time>2019-08-16T10:52:32Z</time>
      </trkpt>
      <trkpt lat="42.0572800" lon="-6.6148890">
        <ele>929.9</ele>
        <time>2019-08-16T10:52:33Z</time>
      </trkpt>
      <trkpt lat="42.0572910" lon="-6.6149900">
        <ele>929.9</ele>
        <time>2019-08-16T10:52:34Z</time>
      </trkpt>
      <trkpt lat="42.0573020" lon="-6.6150910">
        <ele>929.8</ele>
        <time>2019-08-16T10:52:35Z</time>
      </trkpt>
      <trkpt lat="42.0573120" lon="-6.6151950">
        <ele>929.7</ele>
        <time>2019-08-16T10:52:36Z</time>
      </trkpt>
      <trkpt lat="42.0573220" lon="-6.6153000">
        <ele>929.6</ele>
        <time>2019-08-16T10:52:37Z</time>
      </trkpt>
      <trkpt lat="42.0573320" lon="-6.6154060">
        <ele>929.6</ele>
        <time>2019-08-16T10:52:38Z</time>
      </trkpt>
      <trkpt lat="42.0573410" lon="-6.6155140">
        <ele>929.4</ele>
        <time>2019-08-16T10:52:39Z</time>
      </trkpt>
      <trkpt lat="42.0573510" lon="-6.6156200">
        <ele>929.2</ele>
        <time>2019-08-16T10:52:40Z</time>
      </trkpt>
      <trkpt lat="42.0573630" lon="-6.6157270">
        <ele>929.0</ele>
        <time>2019-08-16T10:52:41Z</time>
      </trkpt>
      <trkpt lat="42.0573760" lon="-6.6158350">
        <ele>928.7</ele>
        <time>2019-08-16T10:52:42Z</time>
      </trkpt>
      <trkpt lat="42.0573870" lon="-6.6159460">
        <ele>928.3</ele>
        <time>2019-08-16T10:52:43Z</time>
      </trkpt>
      <trkpt lat="42.0574000" lon="-6.6160580">
        <ele>927.8</ele>
        <time>2019-08-16T10:52:44Z</time>
      </trkpt>
      <trkpt lat="42.0574110" lon="-6.6161720">
        <ele>927.3</ele>
        <time>2019-08-16T10:52:45Z</time>
      </trkpt>
      <trkpt lat="42.0574210" lon="-6.6162870">
        <ele>926.8</ele>
        <time>2019-08-16T10:52:46Z</time>
      </trkpt>
      <trkpt lat="42.0574320" lon="-6.6164050">
        <ele>925.6</ele>
        <time>2019-08-16T10:52:47Z</time>
      </trkpt>
      <trkpt lat="42.0574440" lon="-6.6165240">
        <ele>925.1</ele>
        <time>2019-08-16T10:52:48Z</time>
      </trkpt>
      <trkpt lat="42.0574550" lon="-6.6166450">
        <ele>924.6</ele>
        <time>2019-08-16T10:52:49Z</time>
      </trkpt>
      <trkpt lat="42.0574670" lon="-6.6167670">
        <ele>924.1</ele>
        <time>2019-08-16T10:52:50Z</time>
      </trkpt>
      <trkpt lat="42.0574790" lon="-6.6168940">
        <ele>923.4</ele>
        <time>2019-08-16T10:52:51Z</time>
      </trkpt>
      <trkpt lat="42.0574920" lon="-6.6170190">
        <ele>922.8</ele>
        <time>2019-08-16T10:52:52Z</time>
      </trkpt>
      <trkpt lat="42.0575050" lon="-6.6171460">
        <ele>922.1</ele>
        <time>2019-08-16T10:52:53Z</time>
      </trkpt>
      <trkpt lat="42.0575180" lon="-6.6172710">
        <ele>921.3</ele>
        <time>2019-08-16T10:52:54Z</time>
      </trkpt>
      <trkpt lat="42.0575290" lon="-6.6173960">
        <ele>920.6</ele>
        <time>2019-08-16T10:52:55Z</time>
      </trkpt>
      <trkpt lat="42.0575410" lon="-6.6175210">
        <ele>920.1</ele>
        <time>2019-08-16T10:52:56Z</time>
      </trkpt>
      <trkpt lat="42.0575540" lon="-6.6176450">
        <ele>919.6</ele>
        <time>2019-08-16T10:52:57Z</time>
      </trkpt>
      <trkpt lat="42.0575670" lon="-6.6177670">
        <ele>919.3</ele>
        <time>2019-08-16T10:52:58Z</time>
      </trkpt>
      <trkpt lat="42.0575790" lon="-6.6178880">
        <ele>919.0</ele>
        <time>2019-08-16T10:52:59Z</time>
      </trkpt>
      <trkpt lat="42.0575920" lon="-6.6180080">
        <ele>918.7</ele>
        <time>2019-08-16T10:53:00Z</time>
      </trkpt>
      <trkpt lat="42.0576050" lon="-6.6181250">
        <ele>918.3</ele>
        <time>2019-08-16T10:53:01Z</time>
      </trkpt>
      <trkpt lat="42.0576210" lon="-6.6182440">
        <ele>917.9</ele>
        <time>2019-08-16T10:53:02Z</time>
      </trkpt>
      <trkpt lat="42.0576380" lon="-6.6183620">
        <ele>917.3</ele>
        <time>2019-08-16T10:53:03Z</time>
      </trkpt>
      <trkpt lat="42.0576540" lon="-6.6184780">
        <ele>916.8</ele>
        <time>2019-08-16T10:53:04Z</time>
      </trkpt>
      <trkpt lat="42.0576710" lon="-6.6185930">
        <ele>916.4</ele>
        <time>2019-08-16T10:53:05Z</time>
      </trkpt>
      <trkpt lat="42.0576880" lon="-6.6187060">
        <ele>916.0</ele>
        <time>2019-08-16T10:53:06Z</time>
      </trkpt>
      <trkpt lat="42.0577050" lon="-6.6188170">
        <ele>915.6</ele>
        <time>2019-08-16T10:53:07Z</time>
      </trkpt>
      <trkpt lat="42.0577230" lon="-6.6189200">
        <ele>915.2</ele>
        <time>2019-08-16T10:53:08Z</time>
      </trkpt>
      <trkpt lat="42.0577400" lon="-6.6190100">
        <ele>914.7</ele>
        <time>2019-08-16T10:53:09Z</time>
      </trkpt>
      <trkpt lat="42.0577560" lon="-6.6190920">
        <ele>914.3</ele>
        <time>2019-08-16T10:53:10Z</time>
      </trkpt>
      <trkpt lat="42.0577730" lon="-6.6191690">
        <ele>914.0</ele>
        <time>2019-08-16T10:53:11Z</time>
      </trkpt>
      <trkpt lat="42.0577890" lon="-6.6192450">
        <ele>913.8</ele>
        <time>2019-08-16T10:53:12Z</time>
      </trkpt>
      <trkpt lat="42.0578060" lon="-6.6193230">
        <ele>913.5</ele>
        <time>2019-08-16T10:53:13Z</time>
      </trkpt>
      <trkpt lat="42.0578290" lon="-6.6194000">
        <ele>913.2</ele>
        <time>2019-08-16T10:53:14Z</time>
      </trkpt>
      <trkpt lat="42.0578550" lon="-6.6194780">
        <ele>913.0</ele>
        <time>2019-08-16T10:53:15Z</time>
      </trkpt>
      <trkpt lat="42.0578820" lon="-6.6195480">
        <ele>912.7</ele>
        <time>2019-08-16T10:53:16Z</time>
      </trkpt>
      <trkpt lat="42.0579130" lon="-6.6196060">
        <ele>912.5</ele>
        <time>2019-08-16T10:53:17Z</time>
      </trkpt>
      <trkpt lat="42.0579470" lon="-6.6196530">
        <ele>912.3</ele>
        <time>2019-08-16T10:53:18Z</time>
      </trkpt>
      <trkpt lat="42.0579820" lon="-6.6196960">
        <ele>912.1</ele>
        <time>2019-08-16T10:53:19Z</time>
      </trkpt>
      <trkpt lat="42.0580190" lon="-6.6197360">
        <ele>911.9</ele>
        <time>2019-08-16T10:53:20Z</time>
      </trkpt>
      <trkpt lat="42.0580570" lon="-6.6197750">
        <ele>911.6</ele>
        <time>2019-08-16T10:53:21Z</time>
      </trkpt>
      <trkpt lat="42.0580980" lon="-6.6198100">
        <ele>911.4</ele>
        <time>2019-08-16T10:53:22Z</time>
      </trkpt>
      <trkpt lat="42.0581400" lon="-6.6198440">
        <ele>911.2</ele>
        <time>2019-08-16T10:53:23Z</time>
      </trkpt>
      <trkpt lat="42.0581810" lon="-6.6198810">
        <ele>911.0</ele>
        <time>2019-08-16T10:53:24Z</time>
      </trkpt>
      <trkpt lat="42.0582210" lon="-6.6199200">
        <ele>910.8</ele>
        <time>2019-08-16T10:53:25Z</time>
      </trkpt>
      <trkpt lat="42.0582600" lon="-6.6199640">
        <ele>910.6</ele>
        <time>2019-08-16T10:53:26Z</time>
      </trkpt>
      <trkpt lat="42.0582960" lon="-6.6200170">
        <ele>910.4</ele>
        <time>2019-08-16T10:53:27Z</time>
      </trkpt>
      <trkpt lat="42.0583280" lon="-6.6200780">
        <ele>909.8</ele>
        <time>2019-08-16T10:53:28Z</time>
      </trkpt>
      <trkpt lat="42.0583530" lon="-6.6201460">
        <ele>909.4</ele>
        <time>2019-08-16T10:53:29Z</time>
      </trkpt>
      <trkpt lat="42.0583690" lon="-6.6202180">
        <ele>909.1</ele>
        <time>2019-08-16T10:53:30Z</time>
      </trkpt>
      <trkpt lat="42.0583780" lon="-6.6202930">
        <ele>908.8</ele>
        <time>2019-08-16T10:53:31Z</time>
      </trkpt>
      <trkpt lat="42.0583790" lon="-6.6203670">
        <ele>908.4</ele>
        <time>2019-08-16T10:53:32Z</time>
      </trkpt>
      <trkpt lat="42.0583730" lon="-6.6204420">
        <ele>908.1</ele>
        <time>2019-08-16T10:53:33Z</time>
      </trkpt>
      <trkpt lat="42.0583600" lon="-6.6205160">
        <ele>907.9</ele>
        <time>2019-08-16T10:53:34Z</time>
      </trkpt>
      <trkpt lat="42.0583400" lon="-6.6205870">
        <ele>907.8</ele>
        <time>2019-08-16T10:53:35Z</time>
      </trkpt>
      <trkpt lat="42.0583130" lon="-6.6206550">
        <ele>907.6</ele>
        <time>2019-08-16T10:53:36Z</time>
      </trkpt>
      <trkpt lat="42.0582790" lon="-6.6207160">
        <ele>907.4</ele>
        <time>2019-08-16T10:53:37Z</time>
      </trkpt>
      <trkpt lat="42.0582390" lon="-6.6207700">
        <ele>907.2</ele>
        <time>2019-08-16T10:53:38Z</time>
      </trkpt>
      <trkpt lat="42.0581930" lon="-6.6208180">
        <ele>907.3</ele>
        <time>2019-08-16T10:53:39Z</time>
      </trkpt>
      <trkpt lat="42.0581420" lon="-6.6208580">
        <ele>907.4</ele>
        <time>2019-08-16T10:53:40Z</time>
      </trkpt>
      <trkpt lat="42.0580880" lon="-6.6208870">
        <ele>907.5</ele>
        <time>2019-08-16T10:53:41Z</time>
      </trkpt>
      <trkpt lat="42.0580330" lon="-6.6209030">
        <ele>907.6</ele>
        <time>2019-08-16T10:53:42Z</time>
      </trkpt>
      <trkpt lat="42.0579780" lon="-6.6209100">
        <ele>907.7</ele>
        <time>2019-08-16T10:53:43Z</time>
      </trkpt>
      <trkpt lat="42.0579220" lon="-6.6209100">
        <ele>907.7</ele>
        <time>2019-08-16T10:53:44Z</time>
      </trkpt>
      <trkpt lat="42.0578660" lon="-6.6208970">
        <ele>907.8</ele>
        <time>2019-08-16T10:53:45Z</time>
      </trkpt>
      <trkpt lat="42.0578100" lon="-6.6208740">
        <ele>907.9</ele>
        <time>2019-08-16T10:53:46Z</time>
      </trkpt>
      <trkpt lat="42.0577580" lon="-6.6208430">
        <ele>908.0</ele>
        <time>2019-08-16T10:53:47Z</time>
      </trkpt>
      <trkpt lat="42.0577080" lon="-6.6208070">
        <ele>908.3</ele>
        <time>2019-08-16T10:53:48Z</time>
      </trkpt>
      <trkpt lat="42.0576610" lon="-6.6207660">
        <ele>908.6</ele>
        <time>2019-08-16T10:53:49Z</time>
      </trkpt>
      <trkpt lat="42.0576160" lon="-6.6207230">
        <ele>908.8</ele>
        <time>2019-08-16T10:53:50Z</time>
      </trkpt>
      <trkpt lat="42.0575700" lon="-6.6206830">
        <ele>908.9</ele>
        <time>2019-08-16T10:53:51Z</time>
      </trkpt>
      <trkpt lat="42.0575240" lon="-6.6206480">
        <ele>908.8</ele>
        <time>2019-08-16T10:53:52Z</time>
      </trkpt>
      <trkpt lat="42.0574760" lon="-6.6206220">
        <ele>908.6</ele>
        <time>2019-08-16T10:53:53Z</time>
      </trkpt>
      <trkpt lat="42.0574260" lon="-6.6206080">
        <ele>908.5</ele>
        <time>2019-08-16T10:53:54Z</time>
      </trkpt>
      <trkpt lat="42.0573730" lon="-6.6206030">
        <ele>908.4</ele>
        <time>2019-08-16T10:53:55Z</time>
      </trkpt>
      <trkpt lat="42.0573170" lon="-6.6206100">
        <ele>908.2</ele>
        <time>2019-08-16T10:53:56Z</time>
      </trkpt>
      <trkpt lat="42.0572590" lon="-6.6206290">
        <ele>908.1</ele>
        <time>2019-08-16T10:53:57Z</time>
      </trkpt>
      <trkpt lat="42.0572010" lon="-6.6206630">
        <ele>907.8</ele>
        <time>2019-08-16T10:53:58Z</time>
      </trkpt>
      <trkpt lat="42.0571450" lon="-6.6207090">
        <ele>907.4</ele>
        <time>2019-08-16T10:53:59Z</time>
      </trkpt>
      <trkpt lat="42.0570900" lon="-6.6207620">
        <ele>907.1</ele>
        <time>2019-08-16T10:54:00Z</time>
      </trkpt>
      <trkpt lat="42.0570380" lon="-6.6208230">
        <ele>906.7</ele>
        <time>2019-08-16T10:54:01Z</time>
      </trkpt>
      <trkpt lat="42.0569870" lon="-6.6208910">
        <ele>906.3</ele>
        <time>2019-08-16T10:54:02Z</time>
      </trkpt>
      <trkpt lat="42.0569380" lon="-6.6209610">
        <ele>905.8</ele>
        <time>2019-08-16T10:54:03Z</time>
      </trkpt>
      <trkpt lat="42.0568890" lon="-6.6210350">
        <ele>905.5</ele>
        <time>2019-08-16T10:54:04Z</time>
      </trkpt>
      <trkpt lat="42.0568400" lon="-6.6211100">
        <ele>905.1</ele>
        <time>2019-08-16T10:54:05Z</time>
      </trkpt>
      <trkpt lat="42.0567900" lon="-6.6211870">
        <ele>904.8</ele>
        <time>2019-08-16T10:54:06Z</time>
      </trkpt>
      <trkpt lat="42.0567400" lon="-6.6212660">
        <ele>904.4</ele>
        <time>2019-08-16T10:54:07Z</time>
      </trkpt>
      <trkpt lat="42.0566900" lon="-6.6213450">
        <ele>904.1</ele>
        <time>2019-08-16T10:54:08Z</time>
      </trkpt>
      <trkpt lat="42.0566380" lon="-6.6214230">
        <ele>903.6</ele>
        <time>2019-08-16T10:54:09Z</time>
      </trkpt>
      <trkpt lat="42.0565840" lon="-6.6215020">
        <ele>903.2</ele>
        <time>2019-08-16T10:54:10Z</time>
      </trkpt>
      <trkpt lat="42.0565310" lon="-6.6215830">
        <ele>902.7</ele>
        <time>2019-08-16T10:54:11Z</time>
      </trkpt>
      <trkpt lat="42.0564780" lon="-6.6216660">
        <ele>902.0</ele>
        <time>2019-08-16T10:54:12Z</time>
      </trkpt>
      <trkpt lat="42.0564240" lon="-6.6217480">
        <ele>901.5</ele>
        <time>2019-08-16T10:54:13Z</time>
      </trkpt>
      <trkpt lat="42.0563700" lon="-6.6218310">
        <ele>901.0</ele>
        <time>2019-08-16T10:54:14Z</time>
      </trkpt>
      <trkpt lat="42.0563150" lon="-6.6219150">
        <ele>900.6</ele>
        <time>2019-08-16T10:54:15Z</time>
      </trkpt>
      <trkpt lat="42.0562600" lon="-6.6219980">
        <ele>900.3</ele>
        <time>2019-08-16T10:54:16Z</time>
      </trkpt>
      <trkpt lat="42.0562050" lon="-6.6220810">
        <ele>900.0</ele>
        <time>2019-08-16T10:54:17Z</time>
      </trkpt>
      <trkpt lat="42.0561490" lon="-6.6221650">
        <ele>899.8</ele>
        <time>2019-08-16T10:54:18Z</time>
      </trkpt>
      <trkpt lat="42.0560930" lon="-6.6222500">
        <ele>899.7</ele>
        <time>2019-08-16T10:54:19Z</time>
      </trkpt>
      <trkpt lat="42.0560370" lon="-6.6223340">
        <ele>899.7</ele>
        <time>2019-08-16T10:54:20Z</time>
      </trkpt>
      <trkpt lat="42.0559800" lon="-6.6224170">
        <ele>899.6</ele>
        <time>2019-08-16T10:54:21Z</time>
      </trkpt>
      <trkpt lat="42.0559230" lon="-6.6225020">
        <ele>899.7</ele>
        <time>2019-08-16T10:54:22Z</time>
      </trkpt>
      <trkpt lat="42.0558660" lon="-6.6225870">
        <ele>899.7</ele>
        <time>2019-08-16T10:54:23Z</time>
      </trkpt>
      <trkpt lat="42.0558090" lon="-6.6226710">
        <ele>899.8</ele>
        <time>2019-08-16T10:54:24Z</time>
      </trkpt>
      <trkpt lat="42.0557530" lon="-6.6227530">
        <ele>899.9</ele>
        <time>2019-08-16T10:54:25Z</time>
      </trkpt>
      <trkpt lat="42.0557000" lon="-6.6228340">
        <ele>900.2</ele>
        <time>2019-08-16T10:54:26Z</time>
      </trkpt>
      <trkpt lat="42.0556480" lon="-6.6229140">
        <ele>900.4</ele>
        <time>2019-08-16T10:54:27Z</time>
      </trkpt>
      <trkpt lat="42.0555980" lon="-6.6229920">
        <ele>900.7</ele>
        <time>2019-08-16T10:54:28Z</time>
      </trkpt>
      <trkpt lat="42.0555510" lon="-6.6230690">
        <ele>901.0</ele>
        <time>2019-08-16T10:54:29Z</time>
      </trkpt>
      <trkpt lat="42.0555080" lon="-6.6231460">
        <ele>901.3</ele>
        <time>2019-08-16T10:54:30Z</time>
      </trkpt>
      <trkpt lat="42.0554680" lon="-6.6232210">
        <ele>901.5</ele>
        <time>2019-08-16T10:54:31Z</time>
      </trkpt>
      <trkpt lat="42.0554300" lon="-6.6232960">
        <ele>901.8</ele>
        <time>2019-08-16T10:54:32Z</time>
      </trkpt>
      <trkpt lat="42.0553950" lon="-6.6233690">
        <ele>902.1</ele>
        <time>2019-08-16T10:54:33Z</time>
      </trkpt>
      <trkpt lat="42.0553610" lon="-6.6234390">
        <ele>902.3</ele>
        <time>2019-08-16T10:54:34Z</time>
      </trkpt>
      <trkpt lat="42.0553290" lon="-6.6235070">
        <ele>902.6</ele>
        <time>2019-08-16T10:54:35Z</time>
      </trkpt>
      <trkpt lat="42.0552990" lon="-6.6235740">
        <ele>902.8</ele>
        <time>2019-08-16T10:54:36Z</time>
      </trkpt>
      <trkpt lat="42.0552690" lon="-6.6236390">
        <ele>903.1</ele>
        <time>2019-08-16T10:54:37Z</time>
      </trkpt>
      <trkpt lat="42.0552400" lon="-6.6237000">
        <ele>903.3</ele>
        <time>2019-08-16T10:54:38Z</time>
      </trkpt>
      <trkpt lat="42.0552130" lon="-6.6237590">
        <ele>903.5</ele>
        <time>2019-08-16T10:54:39Z</time>
      </trkpt>
      <trkpt lat="42.0551870" lon="-6.6238160">
        <ele>903.7</ele>
        <time>2019-08-16T10:54:40Z</time>
      </trkpt>
      <trkpt lat="42.0551630" lon="-6.6238710">
        <ele>903.9</ele>
        <time>2019-08-16T10:54:41Z</time>
      </trkpt>
      <trkpt lat="42.0551400" lon="-6.6239240">
        <ele>904.0</ele>
        <time>2019-08-16T10:54:42Z</time>
      </trkpt>
      <trkpt lat="42.0551170" lon="-6.6239760">
        <ele>904.2</ele>
        <time>2019-08-16T10:54:43Z</time>
      </trkpt>
      <trkpt lat="42.0550940" lon="-6.6240250">
        <ele>904.4</ele>
        <time>2019-08-16T10:54:44Z</time>
      </trkpt>
      <trkpt lat="42.0550720" lon="-6.6240730">
        <ele>904.5</ele>
        <time>2019-08-16T10:54:45Z</time>
      </trkpt>
      <trkpt lat="42.0550500" lon="-6.6241180">
        <ele>904.7</ele>
        <time>2019-08-16T10:54:46Z</time>
      </trkpt>
      <trkpt lat="42.0550300" lon="-6.6241630">
        <ele>904.9</ele>
        <time>2019-08-16T10:54:47Z</time>
      </trkpt>
      <trkpt lat="42.0550100" lon="-6.6242060">
        <ele>905.0</ele>
        <time>2019-08-16T10:54:48Z</time>
      </trkpt>
      <trkpt lat="42.0549900" lon="-6.6242480">
        <ele>905.2</ele>
        <time>2019-08-16T10:54:49Z</time>
      </trkpt>
      <trkpt lat="42.0549700" lon="-6.6242900">
        <ele>905.4</ele>
        <time>2019-08-16T10:54:50Z</time>
      </trkpt>
      <trkpt lat="42.0549500" lon="-6.6243290">
        <ele>905.8</ele>
        <time>2019-08-16T10:54:51Z</time>
      </trkpt>
      <trkpt lat="42.0549300" lon="-6.6243670">
        <ele>906.2</ele>
        <time>2019-08-16T10:54:52Z</time>
      </trkpt>
      <trkpt lat="42.0549130" lon="-6.6244070">
        <ele>906.6</ele>
        <time>2019-08-16T10:54:53Z</time>
      </trkpt>
      <trkpt lat="42.0548960" lon="-6.6244460">
        <ele>907.0</ele>
        <time>2019-08-16T10:54:54Z</time>
      </trkpt>
      <trkpt lat="42.0548780" lon="-6.6244850">
        <ele>907.3</ele>
        <time>2019-08-16T10:54:55Z</time>
      </trkpt>
      <trkpt lat="42.0548600" lon="-6.6245230">
        <ele>907.8</ele>
        <time>2019-08-16T10:54:56Z</time>
      </trkpt>
      <trkpt lat="42.0548420" lon="-6.6245600">
        <ele>908.3</ele>
        <time>2019-08-16T10:54:57Z</time>
      </trkpt>
      <trkpt lat="42.0548260" lon="-6.6245980">
        <ele>908.7</ele>
        <time>2019-08-16T10:54:58Z</time>
      </trkpt>
      <trkpt lat="42.0548100" lon="-6.6246360">
        <ele>909.1</ele>
        <time>2019-08-16T10:54:59Z</time>
      </trkpt>
      <trkpt lat="42.0547940" lon="-6.6246750">
        <ele>909.5</ele>
        <time>2019-08-16T10:55:00Z</time>
      </trkpt>
      <trkpt lat="42.0547770" lon="-6.6247140">
        <ele>909.9</ele>
        <time>2019-08-16T10:55:01Z</time>
      </trkpt>
      <trkpt lat="42.0547590" lon="-6.6247530">
        <ele>910.2</ele>
        <time>2019-08-16T10:55:02Z</time>
      </trkpt>
      <trkpt lat="42.0547400" lon="-6.6247900">
        <ele>910.6</ele>
        <time>2019-08-16T10:55:03Z</time>
      </trkpt>
      <trkpt lat="42.0547220" lon="-6.6248260">
        <ele>910.9</ele>
        <time>2019-08-16T10:55:04Z</time>
      </trkpt>
      <trkpt lat="42.0547040" lon="-6.6248630">
        <ele>911.2</ele>
        <time>2019-08-16T10:55:05Z</time>
      </trkpt>
      <trkpt lat="42.0546870" lon="-6.6249010">
        <ele>911.6</ele>
        <time>2019-08-16T10:55:06Z</time>
      </trkpt>
      <trkpt lat="42.0546700" lon="-6.6249390">
        <ele>911.9</ele>
        <time>2019-08-16T10:55:07Z</time>
      </trkpt>
      <trkpt lat="42.0546530" lon="-6.6249760">
        <ele>912.2</ele>
        <time>2019-08-16T10:55:08Z</time>
      </trkpt>
      <trkpt lat="42.0546360" lon="-6.6250120">
        <ele>912.5</ele>
        <time>2019-08-16T10:55:09Z</time>
      </trkpt>
      <trkpt lat="42.0546190" lon="-6.6250480">
        <ele>912.8</ele>
        <time>2019-08-16T10:55:10Z</time>
      </trkpt>
      <trkpt lat="42.0546030" lon="-6.6250820">
        <ele>913.2</ele>
        <time>2019-08-16T10:55:11Z</time>
      </trkpt>
      <trkpt lat="42.0545880" lon="-6.6251160">
        <ele>913.6</ele>
        <time>2019-08-16T10:55:12Z</time>
      </trkpt>
      <trkpt lat="42.0545740" lon="-6.6251480">
        <ele>914.0</ele>
        <time>2019-08-16T10:55:13Z</time>
      </trkpt>
      <trkpt lat="42.0545610" lon="-6.6251800">
        <ele>914.3</ele>
        <time>2019-08-16T10:55:14Z</time>
      </trkpt>
      <trkpt lat="42.0545420" lon="-6.6252430">
        <ele>914.9</ele>
        <time>2019-08-16T10:55:16Z</time>
      </trkpt>
      <trkpt lat="42.0545340" lon="-6.6253060">
        <ele>915.5</ele>
        <time>2019-08-16T10:55:18Z</time>
      </trkpt>
      <trkpt lat="42.0545310" lon="-6.6253720">
        <ele>916.4</ele>
        <time>2019-08-16T10:55:20Z</time>
      </trkpt>
      <trkpt lat="42.0545190" lon="-6.6254380">
        <ele>916.6</ele>
        <time>2019-08-16T10:55:22Z</time>
      </trkpt>
      <trkpt lat="42.0544860" lon="-6.6254950">
        <ele>916.7</ele>
        <time>2019-08-16T10:55:24Z</time>
      </trkpt>
      <trkpt lat="42.0544620" lon="-6.6255190">
        <ele>916.7</ele>
        <time>2019-08-16T10:55:25Z</time>
      </trkpt>
      <trkpt lat="42.0544350" lon="-6.6255410">
        <ele>916.7</ele>
        <time>2019-08-16T10:55:26Z</time>
      </trkpt>
      <trkpt lat="42.0544080" lon="-6.6255670">
        <ele>916.7</ele>
        <time>2019-08-16T10:55:27Z</time>
      </trkpt>
      <trkpt lat="42.0543820" lon="-6.6256010">
        <ele>916.8</ele>
        <time>2019-08-16T10:55:28Z</time>
      </trkpt>
      <trkpt lat="42.0543580" lon="-6.6256430">
        <ele>917.0</ele>
        <time>2019-08-16T10:55:29Z</time>
      </trkpt>
      <trkpt lat="42.0543340" lon="-6.6256880">
        <ele>917.1</ele>
        <time>2019-08-16T10:55:30Z</time>
      </trkpt>
      <trkpt lat="42.0543120" lon="-6.6257330">
        <ele>917.3</ele>
        <time>2019-08-16T10:55:31Z</time>
      </trkpt>
      <trkpt lat="42.0542900" lon="-6.6257780">
        <ele>917.4</ele>
        <time>2019-08-16T10:55:32Z</time>
      </trkpt>
      <trkpt lat="42.0542700" lon="-6.6258220">
        <ele>917.4</ele>
        <time>2019-08-16T10:55:33Z</time>
      </trkpt>
      <trkpt lat="42.0542510" lon="-6.6258660">
        <ele>917.5</ele>
        <time>2019-08-16T10:55:34Z</time>
      </trkpt>
      <trkpt lat="42.0542330" lon="-6.6259100">
        <ele>917.5</ele>
        <time>2019-08-16T10:55:35Z</time>
      </trkpt>
      <trkpt lat="42.0542150" lon="-6.6259530">
        <ele>917.5</ele>
        <time>2019-08-16T10:55:36Z</time>
      </trkpt>
      <trkpt lat="42.0541950" lon="-6.6259940">
        <ele>917.5</ele>
        <time>2019-08-16T10:55:37Z</time>
      </trkpt>
      <trkpt lat="42.0541760" lon="-6.6260340">
        <ele>917.5</ele>
        <time>2019-08-16T10:55:38Z</time>
      </trkpt>
      <trkpt lat="42.0541570" lon="-6.6260750">
        <ele>917.5</ele>
        <time>2019-08-16T10:55:39Z</time>
      </trkpt>
      <trkpt lat="42.0541390" lon="-6.6261180">
        <ele>917.5</ele>
        <time>2019-08-16T10:55:40Z</time>
      </trkpt>
      <trkpt lat="42.0541210" lon="-6.6261620">
        <ele>917.4</ele>
        <time>2019-08-16T10:55:41Z</time>
      </trkpt>
      <trkpt lat="42.0541020" lon="-6.6262060">
        <ele>917.4</ele>
        <time>2019-08-16T10:55:42Z</time>
      </trkpt>
      <trkpt lat="42.0540850" lon="-6.6262510">
        <ele>917.4</ele>
        <time>2019-08-16T10:55:43Z</time>
      </trkpt>
      <trkpt lat="42.0540670" lon="-6.6262960">
        <ele>917.4</ele>
        <time>2019-08-16T10:55:44Z</time>
      </trkpt>
      <trkpt lat="42.0540480" lon="-6.6263410">
        <ele>917.4</ele>
        <time>2019-08-16T10:55:45Z</time>
      </trkpt>
      <trkpt lat="42.0540280" lon="-6.6263860">
        <ele>917.4</ele>
        <time>2019-08-16T10:55:46Z</time>
      </trkpt>
      <trkpt lat="42.0540080" lon="-6.6264310">
        <ele>917.3</ele>
        <time>2019-08-16T10:55:47Z</time>
      </trkpt>
      <trkpt lat="42.0539890" lon="-6.6264760">
        <ele>917.3</ele>
        <time>2019-08-16T10:55:48Z</time>
      </trkpt>
      <trkpt lat="42.0539700" lon="-6.6265220">
        <ele>917.3</ele>
        <time>2019-08-16T10:55:49Z</time>
      </trkpt>
      <trkpt lat="42.0539510" lon="-6.6265680">
        <ele>917.3</ele>
        <time>2019-08-16T10:55:50Z</time>
      </trkpt>
      <trkpt lat="42.0539300" lon="-6.6266130">
        <ele>917.2</ele>
        <time>2019-08-16T10:55:51Z</time>
      </trkpt>
      <trkpt lat="42.0539110" lon="-6.6266580">
        <ele>917.2</ele>
        <time>2019-08-16T10:55:52Z</time>
      </trkpt>
      <trkpt lat="42.0538900" lon="-6.6267050">
        <ele>917.1</ele>
        <time>2019-08-16T10:55:53Z</time>
      </trkpt>
      <trkpt lat="42.0538710" lon="-6.6267520">
        <ele>917.0</ele>
        <time>2019-08-16T10:55:54Z</time>
      </trkpt>
      <trkpt lat="42.0538540" lon="-6.6268000">
        <ele>917.0</ele>
        <time>2019-08-16T10:55:55Z</time>
      </trkpt>
      <trkpt lat="42.0538360" lon="-6.6268470">
        <ele>916.9</ele>
        <time>2019-08-16T10:55:56Z</time>
      </trkpt>
      <trkpt lat="42.0538180" lon="-6.6268920">
        <ele>916.8</ele>
        <time>2019-08-16T10:55:57Z</time>
      </trkpt>
      <trkpt lat="42.0538030" lon="-6.6269320">
        <ele>916.8</ele>
        <time>2019-08-16T10:55:58Z</time>
      </trkpt>
      <trkpt lat="42.0537910" lon="-6.6269700">
        <ele>916.7</ele>
        <time>2019-08-16T10:55:59Z</time>
      </trkpt>
      <trkpt lat="42.0537810" lon="-6.6270090">
        <ele>916.6</ele>
        <time>2019-08-16T10:56:00Z</time>
      </trkpt>
      <trkpt lat="42.0537680" lon="-6.6270470">
        <ele>916.5</ele>
        <time>2019-08-16T10:56:01Z</time>
      </trkpt>
      <trkpt lat="42.0537540" lon="-6.6270870">
        <ele>916.4</ele>
        <time>2019-08-16T10:56:02Z</time>
      </trkpt>
      <trkpt lat="42.0537440" lon="-6.6271300">
        <ele>916.2</ele>
        <time>2019-08-16T10:56:03Z</time>
      </trkpt>
      <trkpt lat="42.0537310" lon="-6.6271770">
        <ele>916.0</ele>
        <time>2019-08-16T10:56:04Z</time>
      </trkpt>
      <trkpt lat="42.0537200" lon="-6.6272250">
        <ele>915.8</ele>
        <time>2019-08-16T10:56:05Z</time>
      </trkpt>
      <trkpt lat="42.0537150" lon="-6.6272700">
        <ele>915.7</ele>
        <time>2019-08-16T10:56:06Z</time>
      </trkpt>
      <trkpt lat="42.0537100" lon="-6.6273180">
        <ele>915.5</ele>
        <time>2019-08-16T10:56:07Z</time>
      </trkpt>
      <trkpt lat="42.0537090" lon="-6.6273860">
        <ele>915.2</ele>
        <time>2019-08-16T10:56:08Z</time>
      </trkpt>
      <trkpt lat="42.0537140" lon="-6.6274460">
        <ele>915.0</ele>
        <time>2019-08-16T10:56:09Z</time>
      </trkpt>
      <trkpt lat="42.0537220" lon="-6.6274990">
        <ele>914.8</ele>
        <time>2019-08-16T10:56:10Z</time>
      </trkpt>
      <trkpt lat="42.0537390" lon="-6.6275490">
        <ele>914.6</ele>
        <time>2019-08-16T10:56:11Z</time>
      </trkpt>
      <trkpt lat="42.0537460" lon="-6.6276090">
        <ele>914.3</ele>
        <time>2019-08-16T10:56:12Z</time>
      </trkpt>
      <trkpt lat="42.0537510" lon="-6.6276700">
        <ele>914.0</ele>
        <time>2019-08-16T10:56:13Z</time>
      </trkpt>
      <trkpt lat="42.0537580" lon="-6.6277270">
        <ele>913.8</ele>
        <time>2019-08-16T10:56:14Z</time>
      </trkpt>
      <trkpt lat="42.0537700" lon="-6.6277860">
        <ele>913.5</ele>
        <time>2019-08-16T10:56:15Z</time>
      </trkpt>
      <trkpt lat="42.0537800" lon="-6.6278470">
        <ele>913.2</ele>
        <time>2019-08-16T10:56:16Z</time>
      </trkpt>
      <trkpt lat="42.0537930" lon="-6.6279090">
        <ele>912.9</ele>
        <time>2019-08-16T10:56:17Z</time>
      </trkpt>
      <trkpt lat="42.0538100" lon="-6.6279700">
        <ele>912.7</ele>
        <time>2019-08-16T10:56:18Z</time>
      </trkpt>
      <trkpt lat="42.0538280" lon="-6.6280270">
        <ele>912.4</ele>
        <time>2019-08-16T10:56:19Z</time>
      </trkpt>
      <trkpt lat="42.0538450" lon="-6.6280830">
        <ele>912.1</ele>
        <time>2019-08-16T10:56:20Z</time>
      </trkpt>
      <trkpt lat="42.0538650" lon="-6.6281370">
        <ele>911.8</ele>
        <time>2019-08-16T10:56:21Z</time>
      </trkpt>
      <trkpt lat="42.0538850" lon="-6.6281890">
        <ele>911.5</ele>
        <time>2019-08-16T10:56:22Z</time>
      </trkpt>
      <trkpt lat="42.0539050" lon="-6.6282410">
        <ele>911.2</ele>
        <time>2019-08-16T10:56:23Z</time>
      </trkpt>
      <trkpt lat="42.0539240" lon="-6.6282920">
        <ele>910.9</ele>
        <time>2019-08-16T10:56:24Z</time>
      </trkpt>
      <trkpt lat="42.0539430" lon="-6.6283450">
        <ele>910.6</ele>
        <time>2019-08-16T10:56:25Z</time>
      </trkpt>
      <trkpt lat="42.0539640" lon="-6.6283980">
        <ele>910.3</ele>
        <time>2019-08-16T10:56:26Z</time>
      </trkpt>
      <trkpt lat="42.0539840" lon="-6.6284500">
        <ele>910.1</ele>
        <time>2019-08-16T10:56:27Z</time>
      </trkpt>
      <trkpt lat="42.0540060" lon="-6.6285050">
        <ele>909.8</ele>
        <time>2019-08-16T10:56:28Z</time>
      </trkpt>
      <trkpt lat="42.0540300" lon="-6.6285640">
        <ele>909.6</ele>
        <time>2019-08-16T10:56:29Z</time>
      </trkpt>
      <trkpt lat="42.0540540" lon="-6.6286210">
        <ele>909.3</ele>
        <time>2019-08-16T10:56:30Z</time>
      </trkpt>
      <trkpt lat="42.0540740" lon="-6.6286730">
        <ele>909.1</ele>
        <time>2019-08-16T10:56:31Z</time>
      </trkpt>
      <trkpt lat="42.0540940" lon="-6.6287180">
        <ele>908.9</ele>
        <time>2019-08-16T10:56:32Z</time>
      </trkpt>
      <trkpt lat="42.0541120" lon="-6.6287560">
        <ele>908.7</ele>
        <time>2019-08-16T10:56:33Z</time>
      </trkpt>
      <trkpt lat="42.0541270" lon="-6.6287870">
        <ele>908.6</ele>
        <time>2019-08-16T10:56:34Z</time>
      </trkpt>
      <trkpt lat="42.0541570" lon="-6.6288430">
        <ele>908.3</ele>
        <time>2019-08-16T10:56:36Z</time>
      </trkpt>
      <trkpt lat="42.0541840" lon="-6.6288990">
        <ele>908.0</ele>
        <time>2019-08-16T10:56:38Z</time>
      </trkpt>
      <trkpt lat="42.0542100" lon="-6.6289540">
        <ele>907.7</ele>
        <time>2019-08-16T10:56:40Z</time>
      </trkpt>
      <trkpt lat="42.0542360" lon="-6.6290060">
        <ele>907.5</ele>
        <time>2019-08-16T10:56:42Z</time>
      </trkpt>
      <trkpt lat="42.0542530" lon="-6.6290460">
        <ele>907.3</ele>
        <time>2019-08-16T10:56:44Z</time>
      </trkpt>
      <trkpt lat="42.0542420" lon="-6.6290990">
        <ele>907.1</ele>
        <time>2019-08-16T10:59:03Z</time>
      </trkpt>
      <trkpt lat="42.0542630" lon="-6.6291400">
        <ele>906.9</ele>
        <time>2019-08-16T10:59:05Z</time>
      </trkpt>
      <trkpt lat="42.0542920" lon="-6.6291930">
        <ele>906.6</ele>
        <time>2019-08-16T10:59:07Z</time>
      </trkpt>
      <trkpt lat="42.0543170" lon="-6.6292460">
        <ele>906.3</ele>
        <time>2019-08-16T10:59:09Z</time>
      </trkpt>
      <trkpt lat="42.0543350" lon="-6.6292820">
        <ele>906.1</ele>
        <time>2019-08-16T10:59:11Z</time>
      </trkpt>
      <trkpt lat="42.0543540" lon="-6.6293080">
        <ele>905.9</ele>
        <time>2019-08-16T10:59:13Z</time>
      </trkpt>
      <trkpt lat="42.0543700" lon="-6.6293520">
        <ele>905.7</ele>
        <time>2019-08-16T10:59:19Z</time>
      </trkpt>
      <trkpt lat="42.0543910" lon="-6.6293970">
        <ele>905.4</ele>
        <time>2019-08-16T10:59:21Z</time>
      </trkpt>
      <trkpt lat="42.0544180" lon="-6.6294480">
        <ele>905.1</ele>
        <time>2019-08-16T10:59:23Z</time>
      </trkpt>
      <trkpt lat="42.0544490" lon="-6.6295050">
        <ele>904.8</ele>
        <time>2019-08-16T10:59:25Z</time>
      </trkpt>
      <trkpt lat="42.0544690" lon="-6.6295360">
        <ele>904.6</ele>
        <time>2019-08-16T10:59:26Z</time>
      </trkpt>
      <trkpt lat="42.0544890" lon="-6.6295730">
        <ele>904.3</ele>
        <time>2019-08-16T10:59:27Z</time>
      </trkpt>
      <trkpt lat="42.0545060" lon="-6.6296130">
        <ele>904.1</ele>
        <time>2019-08-16T10:59:28Z</time>
      </trkpt>
      <trkpt lat="42.0545230" lon="-6.6296520">
        <ele>903.8</ele>
        <time>2019-08-16T10:59:29Z</time>
      </trkpt>
      <trkpt lat="42.0545380" lon="-6.6296870">
        <ele>903.6</ele>
        <time>2019-08-16T10:59:30Z</time>
      </trkpt>
      <trkpt lat="42.0545550" lon="-6.6297180">
        <ele>903.3</ele>
        <time>2019-08-16T10:59:31Z</time>
      </trkpt>
      <trkpt lat="42.0545880" lon="-6.6297770">
        <ele>902.9</ele>
        <time>2019-08-16T10:59:33Z</time>
      </trkpt>
      <trkpt lat="42.0546070" lon="-6.6298070">
        <ele>902.6</ele>
        <time>2019-08-16T10:59:34Z</time>
      </trkpt>
      <trkpt lat="42.0546230" lon="-6.6298390">
        <ele>902.4</ele>
        <time>2019-08-16T10:59:35Z</time>
      </trkpt>
      <trkpt lat="42.0546480" lon="-6.6298910">
        <ele>901.9</ele>
        <time>2019-08-16T10:59:37Z</time>
      </trkpt>
      <trkpt lat="42.0546660" lon="-6.6299290">
        <ele>901.7</ele>
        <time>2019-08-16T10:59:39Z</time>
      </trkpt>
      <trkpt lat="42.0546840" lon="-6.6299780">
        <ele>901.4</ele>
        <time>2019-08-16T10:59:41Z</time>
      </trkpt>
      <trkpt lat="42.0547010" lon="-6.6300240">
        <ele>901.2</ele>
        <time>2019-08-16T10:59:43Z</time>
      </trkpt>
      <trkpt lat="42.0547210" lon="-6.6300580">
        <ele>901.0</ele>
        <time>2019-08-16T10:59:45Z</time>
      </trkpt>
      <trkpt lat="42.0547430" lon="-6.6300930">
        <ele>900.8</ele>
        <time>2019-08-16T10:59:47Z</time>
      </trkpt>
      <trkpt lat="42.0547620" lon="-6.6301280">
        <ele>900.6</ele>
        <time>2019-08-16T10:59:49Z</time>
      </trkpt>
      <trkpt lat="42.0547840" lon="-6.6301720">
        <ele>900.3</ele>
        <time>2019-08-16T10:59:52Z</time>
      </trkpt>
      <trkpt lat="42.0548000" lon="-6.6302140">
        <ele>900.1</ele>
        <time>2019-08-16T10:59:54Z</time>
      </trkpt>
      <trkpt lat="42.0548230" lon="-6.6302690">
        <ele>899.8</ele>
        <time>2019-08-16T10:59:56Z</time>
      </trkpt>
      <trkpt lat="42.0548380" lon="-6.6303020">
        <ele>899.6</ele>
        <time>2019-08-16T10:59:57Z</time>
      </trkpt>
      <trkpt lat="42.0548540" lon="-6.6303370">
        <ele>899.4</ele>
        <time>2019-08-16T10:59:58Z</time>
      </trkpt>
      <trkpt lat="42.0548720" lon="-6.6303720">
        <ele>899.3</ele>
        <time>2019-08-16T10:59:59Z</time>
      </trkpt>
      <trkpt lat="42.0548910" lon="-6.6304060">
        <ele>899.1</ele>
        <time>2019-08-16T11:00:00Z</time>
      </trkpt>
      <trkpt lat="42.0549100" lon="-6.6304380">
        <ele>898.9</ele>
        <time>2019-08-16T11:00:01Z</time>
      </trkpt>
      <trkpt lat="42.0549240" lon="-6.6304700">
        <ele>898.8</ele>
        <time>2019-08-16T11:00:02Z</time>
      </trkpt>
      <trkpt lat="42.0549450" lon="-6.6305240">
        <ele>898.5</ele>
        <time>2019-08-16T11:00:04Z</time>
      </trkpt>
      <trkpt lat="42.0549680" lon="-6.6305760">
        <ele>898.3</ele>
        <time>2019-08-16T11:00:06Z</time>
      </trkpt>
      <trkpt lat="42.0549920" lon="-6.6306350">
        <ele>898.0</ele>
        <time>2019-08-16T11:00:08Z</time>
      </trkpt>
      <trkpt lat="42.0550130" lon="-6.6306870">
        <ele>897.8</ele>
        <time>2019-08-16T11:00:10Z</time>
      </trkpt>
      <trkpt lat="42.0550360" lon="-6.6307470">
        <ele>897.7</ele>
        <time>2019-08-16T11:00:12Z</time>
      </trkpt>
      <trkpt lat="42.0550510" lon="-6.6307820">
        <ele>897.5</ele>
        <time>2019-08-16T11:00:13Z</time>
      </trkpt>
      <trkpt lat="42.0550670" lon="-6.6308180">
        <ele>897.4</ele>
        <time>2019-08-16T11:00:14Z</time>
      </trkpt>
      <trkpt lat="42.0550810" lon="-6.6308530">
        <ele>897.3</ele>
        <time>2019-08-16T11:00:15Z</time>
      </trkpt>
      <trkpt lat="42.0551060" lon="-6.6309050">
        <ele>897.1</ele>
        <time>2019-08-16T11:00:17Z</time>
      </trkpt>
      <trkpt lat="42.0551270" lon="-6.6309410">
        <ele>897.0</ele>
        <time>2019-08-16T11:00:19Z</time>
      </trkpt>
      <trkpt lat="42.0551460" lon="-6.6309890">
        <ele>896.9</ele>
        <time>2019-08-16T11:00:23Z</time>
      </trkpt>
      <trkpt lat="42.0551590" lon="-6.6310270">
        <ele>896.7</ele>
        <time>2019-08-16T11:00:25Z</time>
      </trkpt>
      <trkpt lat="42.0551840" lon="-6.6310790">
        <ele>896.3</ele>
        <time>2019-08-16T11:00:27Z</time>
      </trkpt>
      <trkpt lat="42.0551980" lon="-6.6311110">
        <ele>896.1</ele>
        <time>2019-08-16T11:00:28Z</time>
      </trkpt>
      <trkpt lat="42.0552140" lon="-6.6311460">
        <ele>895.7</ele>
        <time>2019-08-16T11:00:29Z</time>
      </trkpt>
      <trkpt lat="42.0552300" lon="-6.6311840">
        <ele>895.5</ele>
        <time>2019-08-16T11:00:30Z</time>
      </trkpt>
      <trkpt lat="42.0552430" lon="-6.6312280">
        <ele>895.3</ele>
        <time>2019-08-16T11:00:31Z</time>
      </trkpt>
      <trkpt lat="42.0552540" lon="-6.6312760">
        <ele>895.0</ele>
        <time>2019-08-16T11:00:32Z</time>
      </trkpt>
      <trkpt lat="42.0552630" lon="-6.6313250">
        <ele>894.7</ele>
        <time>2019-08-16T11:00:33Z</time>
      </trkpt>
      <trkpt lat="42.0552710" lon="-6.6313750">
        <ele>894.4</ele>
        <time>2019-08-16T11:00:34Z</time>
      </trkpt>
      <trkpt lat="42.0552780" lon="-6.6314240">
        <ele>894.1</ele>
        <time>2019-08-16T11:00:35Z</time>
      </trkpt>
      <trkpt lat="42.0552830" lon="-6.6314730">
        <ele>893.8</ele>
        <time>2019-08-16T11:00:36Z</time>
      </trkpt>
      <trkpt lat="42.0552880" lon="-6.6315200">
        <ele>893.5</ele>
        <time>2019-08-16T11:00:37Z</time>
      </trkpt>
      <trkpt lat="42.0552910" lon="-6.6315670">
        <ele>893.2</ele>
        <time>2019-08-16T11:00:38Z</time>
      </trkpt>
      <trkpt lat="42.0552940" lon="-6.6316130">
        <ele>893.0</ele>
        <time>2019-08-16T11:00:39Z</time>
      </trkpt>
      <trkpt lat="42.0552970" lon="-6.6316600">
        <ele>892.7</ele>
        <time>2019-08-16T11:00:40Z</time>
      </trkpt>
      <trkpt lat="42.0553000" lon="-6.6317090">
        <ele>893.9</ele>
        <time>2019-08-16T11:00:41Z</time>
      </trkpt>
      <trkpt lat="42.0553030" lon="-6.6317600">
        <ele>894.7</ele>
        <time>2019-08-16T11:00:42Z</time>
      </trkpt>
      <trkpt lat="42.0553070" lon="-6.6318100">
        <ele>895.6</ele>
        <time>2019-08-16T11:00:43Z</time>
      </trkpt>
      <trkpt lat="42.0553110" lon="-6.6318580">
        <ele>896.4</ele>
        <time>2019-08-16T11:00:44Z</time>
      </trkpt>
      <trkpt lat="42.0553140" lon="-6.6319070">
        <ele>897.2</ele>
        <time>2019-08-16T11:00:45Z</time>
      </trkpt>
      <trkpt lat="42.0553180" lon="-6.6319530">
        <ele>898.0</ele>
        <time>2019-08-16T11:00:46Z</time>
      </trkpt>
      <trkpt lat="42.0553210" lon="-6.6319990">
        <ele>898.8</ele>
        <time>2019-08-16T11:00:47Z</time>
      </trkpt>
      <trkpt lat="42.0553240" lon="-6.6320440">
        <ele>899.5</ele>
        <time>2019-08-16T11:00:48Z</time>
      </trkpt>
      <trkpt lat="42.0553260" lon="-6.6320890">
        <ele>900.2</ele>
        <time>2019-08-16T11:00:49Z</time>
      </trkpt>
      <trkpt lat="42.0553290" lon="-6.6321320">
        <ele>901.0</ele>
        <time>2019-08-16T11:00:50Z</time>
      </trkpt>
      <trkpt lat="42.0553320" lon="-6.6321750">
        <ele>901.7</ele>
        <time>2019-08-16T11:00:51Z</time>
      </trkpt>
      <trkpt lat="42.0553350" lon="-6.6322210">
        <ele>902.4</ele>
        <time>2019-08-16T11:00:52Z</time>
      </trkpt>
      <trkpt lat="42.0553380" lon="-6.6322690">
        <ele>903.2</ele>
        <time>2019-08-16T11:00:53Z</time>
      </trkpt>
      <trkpt lat="42.0553410" lon="-6.6323210">
        <ele>904.0</ele>
        <time>2019-08-16T11:00:54Z</time>
      </trkpt>
      <trkpt lat="42.0553440" lon="-6.6323740">
        <ele>904.8</ele>
        <time>2019-08-16T11:00:55Z</time>
      </trkpt>
      <trkpt lat="42.0553470" lon="-6.6324270">
        <ele>905.6</ele>
        <time>2019-08-16T11:00:56Z</time>
      </trkpt>
      <trkpt lat="42.0553500" lon="-6.6324800">
        <ele>906.4</ele>
        <time>2019-08-16T11:00:57Z</time>
      </trkpt>
      <trkpt lat="42.0553530" lon="-6.6325310">
        <ele>907.2</ele>
        <time>2019-08-16T11:00:58Z</time>
      </trkpt>
      <trkpt lat="42.0553550" lon="-6.6325790">
        <ele>907.9</ele>
        <time>2019-08-16T11:00:59Z</time>
      </trkpt>
      <trkpt lat="42.0553560" lon="-6.6326260">
        <ele>908.6</ele>
        <time>2019-08-16T11:01:00Z</time>
      </trkpt>
      <trkpt lat="42.0553550" lon="-6.6326720">
        <ele>909.4</ele>
        <time>2019-08-16T11:01:01Z</time>
      </trkpt>
      <trkpt lat="42.0553490" lon="-6.6327180">
        <ele>910.2</ele>
        <time>2019-08-16T11:01:02Z</time>
      </trkpt>
      <trkpt lat="42.0553330" lon="-6.6327600">
        <ele>911.0</ele>
        <time>2019-08-16T11:01:03Z</time>
      </trkpt>
      <trkpt lat="42.0553090" lon="-6.6327900">
        <ele>911.8</ele>
        <time>2019-08-16T11:01:04Z</time>
      </trkpt>
      <trkpt lat="42.0552850" lon="-6.6328080">
        <ele>912.1</ele>
        <time>2019-08-16T11:01:05Z</time>
      </trkpt>
      <trkpt lat="42.0552530" lon="-6.6328190">
        <ele>912.5</ele>
        <time>2019-08-16T11:01:07Z</time>
      </trkpt>
      <trkpt lat="42.0552250" lon="-6.6328090">
        <ele>912.9</ele>
        <time>2019-08-16T11:01:11Z</time>
      </trkpt>
      <trkpt lat="42.0515820" lon="-6.6335690">
        <ele>919.5</ele>
        <time>2019-08-16T12:46:54Z</time>
      </trkpt>
      <trkpt lat="42.0516160" lon="-6.6335500">
        <ele>919.2</ele>
        <time>2019-08-16T12:46:58Z</time>
      </trkpt>
      <trkpt lat="42.0516390" lon="-6.6335390">
        <ele>919.0</ele>
        <time>2019-08-16T12:47:01Z</time>
      </trkpt>
      <trkpt lat="42.0516610" lon="-6.6335070">
        <ele>918.8</ele>
        <time>2019-08-16T12:47:09Z</time>
      </trkpt>
      <trkpt lat="42.0517080" lon="-6.6334840">
        <ele>918.4</ele>
        <time>2019-08-16T12:47:11Z</time>
      </trkpt>
      <trkpt lat="42.0517390" lon="-6.6334790">
        <ele>918.0</ele>
        <time>2019-08-16T12:47:12Z</time>
      </trkpt>
      <trkpt lat="42.0517720" lon="-6.6334760">
        <ele>917.9</ele>
        <time>2019-08-16T12:47:13Z</time>
      </trkpt>
      <trkpt lat="42.0518080" lon="-6.6334770">
        <ele>917.8</ele>
        <time>2019-08-16T12:47:14Z</time>
      </trkpt>
      <trkpt lat="42.0518450" lon="-6.6334760">
        <ele>917.7</ele>
        <time>2019-08-16T12:47:15Z</time>
      </trkpt>
      <trkpt lat="42.0518840" lon="-6.6334760">
        <ele>917.6</ele>
        <time>2019-08-16T12:47:16Z</time>
      </trkpt>
      <trkpt lat="42.0519230" lon="-6.6334770">
        <ele>917.5</ele>
        <time>2019-08-16T12:47:17Z</time>
      </trkpt>
      <trkpt lat="42.0519630" lon="-6.6334760">
        <ele>917.3</ele>
        <time>2019-08-16T12:47:18Z</time>
      </trkpt>
      <trkpt lat="42.0520050" lon="-6.6334730">
        <ele>917.2</ele>
        <time>2019-08-16T12:47:19Z</time>
      </trkpt>
      <trkpt lat="42.0520470" lon="-6.6334730">
        <ele>917.1</ele>
        <time>2019-08-16T12:47:20Z</time>
      </trkpt>
      <trkpt lat="42.0520890" lon="-6.6334760">
        <ele>917.0</ele>
        <time>2019-08-16T12:47:21Z</time>
      </trkpt>
      <trkpt lat="42.0521310" lon="-6.6334740">
        <ele>916.9</ele>
        <time>2019-08-16T12:47:22Z</time>
      </trkpt>
      <trkpt lat="42.0521730" lon="-6.6334710">
        <ele>916.8</ele>
        <time>2019-08-16T12:47:23Z</time>
      </trkpt>
      <trkpt lat="42.0522140" lon="-6.6334670">
        <ele>916.7</ele>
        <time>2019-08-16T12:47:24Z</time>
      </trkpt>
      <trkpt lat="42.0522540" lon="-6.6334620">
        <ele>916.6</ele>
        <time>2019-08-16T12:47:25Z</time>
      </trkpt>
      <trkpt lat="42.0522920" lon="-6.6334560">
        <ele>916.5</ele>
        <time>2019-08-16T12:47:26Z</time>
      </trkpt>
      <trkpt lat="42.0523280" lon="-6.6334500">
        <ele>915.9</ele>
        <time>2019-08-16T12:47:27Z</time>
      </trkpt>
      <trkpt lat="42.0523600" lon="-6.6334440">
        <ele>915.6</ele>
        <time>2019-08-16T12:47:28Z</time>
      </trkpt>
      <trkpt lat="42.0523890" lon="-6.6334330">
        <ele>915.3</ele>
        <time>2019-08-16T12:47:29Z</time>
      </trkpt>
      <trkpt lat="42.0524120" lon="-6.6334180">
        <ele>914.9</ele>
        <time>2019-08-16T12:47:30Z</time>
      </trkpt>
      <trkpt lat="42.0524460" lon="-6.6333740">
        <ele>914.2</ele>
        <time>2019-08-16T12:47:32Z</time>
      </trkpt>
      <trkpt lat="42.0524850" lon="-6.6333250">
        <ele>913.4</ele>
        <time>2019-08-16T12:47:34Z</time>
      </trkpt>
      <trkpt lat="42.0525080" lon="-6.6333030">
        <ele>913.0</ele>
        <time>2019-08-16T12:47:35Z</time>
      </trkpt>
      <trkpt lat="42.0525350" lon="-6.6332830">
        <ele>912.6</ele>
        <time>2019-08-16T12:47:36Z</time>
      </trkpt>
      <trkpt lat="42.0525630" lon="-6.6332600">
        <ele>912.1</ele>
        <time>2019-08-16T12:47:37Z</time>
      </trkpt>
      <trkpt lat="42.0525930" lon="-6.6332370">
        <ele>911.6</ele>
        <time>2019-08-16T12:47:38Z</time>
      </trkpt>
      <trkpt lat="42.0526280" lon="-6.6332210">
        <ele>911.7</ele>
        <time>2019-08-16T12:47:39Z</time>
      </trkpt>
      <trkpt lat="42.0526670" lon="-6.6331980">
        <ele>911.7</ele>
        <time>2019-08-16T12:47:40Z</time>
      </trkpt>
      <trkpt lat="42.0527120" lon="-6.6331830">
        <ele>911.9</ele>
        <time>2019-08-16T12:47:41Z</time>
      </trkpt>
      <trkpt lat="42.0527590" lon="-6.6331650">
        <ele>912.3</ele>
        <time>2019-08-16T12:47:42Z</time>
      </trkpt>
      <trkpt lat="42.0528110" lon="-6.6331490">
        <ele>912.7</ele>
        <time>2019-08-16T12:47:43Z</time>
      </trkpt>
      <trkpt lat="42.0528650" lon="-6.6331280">
        <ele>913.1</ele>
        <time>2019-08-16T12:47:44Z</time>
      </trkpt>
      <trkpt lat="42.0529220" lon="-6.6331070">
        <ele>913.5</ele>
        <time>2019-08-16T12:47:45Z</time>
      </trkpt>
      <trkpt lat="42.0529820" lon="-6.6330900">
        <ele>913.9</ele>
        <time>2019-08-16T12:47:46Z</time>
      </trkpt>
      <trkpt lat="42.0530440" lon="-6.6330700">
        <ele>914.4</ele>
        <time>2019-08-16T12:47:47Z</time>
      </trkpt>
      <trkpt lat="42.0531090" lon="-6.6330520">
        <ele>914.8</ele>
        <time>2019-08-16T12:47:48Z</time>
      </trkpt>
      <trkpt lat="42.0531750" lon="-6.6330330">
        <ele>915.1</ele>
        <time>2019-08-16T12:47:49Z</time>
      </trkpt>
      <trkpt lat="42.0532420" lon="-6.6330120">
        <ele>915.5</ele>
        <time>2019-08-16T12:47:50Z</time>
      </trkpt>
      <trkpt lat="42.0533110" lon="-6.6329890">
        <ele>915.9</ele>
        <time>2019-08-16T12:47:51Z</time>
      </trkpt>
      <trkpt lat="42.0533820" lon="-6.6329650">
        <ele>915.8</ele>
        <time>2019-08-16T12:47:52Z</time>
      </trkpt>
      <trkpt lat="42.0534540" lon="-6.6329400">
        <ele>915.4</ele>
        <time>2019-08-16T12:47:53Z</time>
      </trkpt>
      <trkpt lat="42.0535250" lon="-6.6329170">
        <ele>915.1</ele>
        <time>2019-08-16T12:47:54Z</time>
      </trkpt>
      <trkpt lat="42.0535950" lon="-6.6328930">
        <ele>914.8</ele>
        <time>2019-08-16T12:47:55Z</time>
      </trkpt>
      <trkpt lat="42.0536640" lon="-6.6328730">
        <ele>914.6</ele>
        <time>2019-08-16T12:47:56Z</time>
      </trkpt>
      <trkpt lat="42.0537340" lon="-6.6328540">
        <ele>914.3</ele>
        <time>2019-08-16T12:47:57Z</time>
      </trkpt>
      <trkpt lat="42.0538060" lon="-6.6328340">
        <ele>914.1</ele>
        <time>2019-08-16T12:47:58Z</time>
      </trkpt>
      <trkpt lat="42.0538780" lon="-6.6328170">
        <ele>913.9</ele>
        <time>2019-08-16T12:47:59Z</time>
      </trkpt>
      <trkpt lat="42.0539480" lon="-6.6327990">
        <ele>913.7</ele>
        <time>2019-08-16T12:48:00Z</time>
      </trkpt>
      <trkpt lat="42.0540180" lon="-6.6327820">
        <ele>913.6</ele>
        <time>2019-08-16T12:48:01Z</time>
      </trkpt>
      <trkpt lat="42.0540910" lon="-6.6327660">
        <ele>913.5</ele>
        <time>2019-08-16T12:48:02Z</time>
      </trkpt>
      <trkpt lat="42.0541640" lon="-6.6327560">
        <ele>913.4</ele>
        <time>2019-08-16T12:48:03Z</time>
      </trkpt>
      <trkpt lat="42.0542370" lon="-6.6327520">
        <ele>913.3</ele>
        <time>2019-08-16T12:48:04Z</time>
      </trkpt>
      <trkpt lat="42.0543070" lon="-6.6327530">
        <ele>913.3</ele>
        <time>2019-08-16T12:48:05Z</time>
      </trkpt>
      <trkpt lat="42.0543770" lon="-6.6327550">
        <ele>913.2</ele>
        <time>2019-08-16T12:48:06Z</time>
      </trkpt>
      <trkpt lat="42.0544470" lon="-6.6327570">
        <ele>913.2</ele>
        <time>2019-08-16T12:48:07Z</time>
      </trkpt>
      <trkpt lat="42.0545180" lon="-6.6327610">
        <ele>913.3</ele>
        <time>2019-08-16T12:48:08Z</time>
      </trkpt>
      <trkpt lat="42.0545930" lon="-6.6327680">
        <ele>913.4</ele>
        <time>2019-08-16T12:48:09Z</time>
      </trkpt>
      <trkpt lat="42.0546670" lon="-6.6327750">
        <ele>913.5</ele>
        <time>2019-08-16T12:48:10Z</time>
      </trkpt>
      <trkpt lat="42.0547340" lon="-6.6327810">
        <ele>913.6</ele>
        <time>2019-08-16T12:48:11Z</time>
      </trkpt>
      <trkpt lat="42.0547970" lon="-6.6327890">
        <ele>913.8</ele>
        <time>2019-08-16T12:48:12Z</time>
      </trkpt>
      <trkpt lat="42.0548560" lon="-6.6327950">
        <ele>914.0</ele>
        <time>2019-08-16T12:48:13Z</time>
      </trkpt>
      <trkpt lat="42.0549120" lon="-6.6328010">
        <ele>914.2</ele>
        <time>2019-08-16T12:48:14Z</time>
      </trkpt>
      <trkpt lat="42.0549630" lon="-6.6328050">
        <ele>914.4</ele>
        <time>2019-08-16T12:48:15Z</time>
      </trkpt>
      <trkpt lat="42.0550100" lon="-6.6328090">
        <ele>914.6</ele>
        <time>2019-08-16T12:48:16Z</time>
      </trkpt>
      <trkpt lat="42.0550540" lon="-6.6328140">
        <ele>914.8</ele>
        <time>2019-08-16T12:48:17Z</time>
      </trkpt>
      <trkpt lat="42.0551000" lon="-6.6328180">
        <ele>915.0</ele>
        <time>2019-08-16T12:48:18Z</time>
      </trkpt>
      <trkpt lat="42.0551460" lon="-6.6328240">
        <ele>915.2</ele>
        <time>2019-08-16T12:48:19Z</time>
      </trkpt>
      <trkpt lat="42.0551970" lon="-6.6328290">
        <ele>915.4</ele>
        <time>2019-08-16T12:48:20Z</time>
      </trkpt>
      <trkpt lat="42.0552490" lon="-6.6328390">
        <ele>915.6</ele>
        <time>2019-08-16T12:48:21Z</time>
      </trkpt>
      <trkpt lat="42.0553010" lon="-6.6328530">
        <ele>915.7</ele>
        <time>2019-08-16T12:48:22Z</time>
      </trkpt>
      <trkpt lat="42.0553540" lon="-6.6328690">
        <ele>915.3</ele>
        <time>2019-08-16T12:48:23Z</time>
      </trkpt>
      <trkpt lat="42.0554070" lon="-6.6328860">
        <ele>915.0</ele>
        <time>2019-08-16T12:48:24Z</time>
      </trkpt>
      <trkpt lat="42.0554600" lon="-6.6329050">
        <ele>914.7</ele>
        <time>2019-08-16T12:48:25Z</time>
      </trkpt>
      <trkpt lat="42.0555120" lon="-6.6329270">
        <ele>914.4</ele>
        <time>2019-08-16T12:48:26Z</time>
      </trkpt>
      <trkpt lat="42.0555610" lon="-6.6329470">
        <ele>914.1</ele>
        <time>2019-08-16T12:48:27Z</time>
      </trkpt>
      <trkpt lat="42.0556100" lon="-6.6329670">
        <ele>913.8</ele>
        <time>2019-08-16T12:48:28Z</time>
      </trkpt>
      <trkpt lat="42.0556580" lon="-6.6329850">
        <ele>913.6</ele>
        <time>2019-08-16T12:48:29Z</time>
      </trkpt>
      <trkpt lat="42.0557040" lon="-6.6330010">
        <ele>913.4</ele>
        <time>2019-08-16T12:48:30Z</time>
      </trkpt>
      <trkpt lat="42.0557500" lon="-6.6330170">
        <ele>913.3</ele>
        <time>2019-08-16T12:48:31Z</time>
      </trkpt>
      <trkpt lat="42.0557950" lon="-6.6330340">
        <ele>913.2</ele>
        <time>2019-08-16T12:48:32Z</time>
      </trkpt>
      <trkpt lat="42.0558380" lon="-6.6330480">
        <ele>913.1</ele>
        <time>2019-08-16T12:48:33Z</time>
      </trkpt>
      <trkpt lat="42.0558780" lon="-6.6330610">
        <ele>912.9</ele>
        <time>2019-08-16T12:48:34Z</time>
      </trkpt>
      <trkpt lat="42.0559180" lon="-6.6330710">
        <ele>912.8</ele>
        <time>2019-08-16T12:48:35Z</time>
      </trkpt>
      <trkpt lat="42.0559580" lon="-6.6330790">
        <ele>912.7</ele>
        <time>2019-08-16T12:48:36Z</time>
      </trkpt>
      <trkpt lat="42.0559970" lon="-6.6330860">
        <ele>912.5</ele>
        <time>2019-08-16T12:48:37Z</time>
      </trkpt>
      <trkpt lat="42.0560350" lon="-6.6330910">
        <ele>912.4</ele>
        <time>2019-08-16T12:48:38Z</time>
      </trkpt>
      <trkpt lat="42.0560740" lon="-6.6330950">
        <ele>912.2</ele>
        <time>2019-08-16T12:48:39Z</time>
      </trkpt>
      <trkpt lat="42.0561120" lon="-6.6330980">
        <ele>911.8</ele>
        <time>2019-08-16T12:48:40Z</time>
      </trkpt>
      <trkpt lat="42.0561490" lon="-6.6330980">
        <ele>911.5</ele>
        <time>2019-08-16T12:48:41Z</time>
      </trkpt>
      <trkpt lat="42.0561840" lon="-6.6330980">
        <ele>911.0</ele>
        <time>2019-08-16T12:48:42Z</time>
      </trkpt>
      <trkpt lat="42.0562210" lon="-6.6330950">
        <ele>910.4</ele>
        <time>2019-08-16T12:48:43Z</time>
      </trkpt>
      <trkpt lat="42.0562590" lon="-6.6330910">
        <ele>909.6</ele>
        <time>2019-08-16T12:48:44Z</time>
      </trkpt>
      <trkpt lat="42.0562980" lon="-6.6330860">
        <ele>908.7</ele>
        <time>2019-08-16T12:48:45Z</time>
      </trkpt>
      <trkpt lat="42.0563390" lon="-6.6330820">
        <ele>907.7</ele>
        <time>2019-08-16T12:48:46Z</time>
      </trkpt>
      <trkpt lat="42.0563800" lon="-6.6330830">
        <ele>906.6</ele>
        <time>2019-08-16T12:48:47Z</time>
      </trkpt>
      <trkpt lat="42.0564190" lon="-6.6330890">
        <ele>905.6</ele>
        <time>2019-08-16T12:48:48Z</time>
      </trkpt>
      <trkpt lat="42.0564570" lon="-6.6330960">
        <ele>904.7</ele>
        <time>2019-08-16T12:48:49Z</time>
      </trkpt>
      <trkpt lat="42.0564940" lon="-6.6331030">
        <ele>903.8</ele>
        <time>2019-08-16T12:48:50Z</time>
      </trkpt>
      <trkpt lat="42.0565300" lon="-6.6331120">
        <ele>903.1</ele>
        <time>2019-08-16T12:48:51Z</time>
      </trkpt>
      <trkpt lat="42.0565660" lon="-6.6331220">
        <ele>902.5</ele>
        <time>2019-08-16T12:48:52Z</time>
      </trkpt>
      <trkpt lat="42.0566000" lon="-6.6331350">
        <ele>901.9</ele>
        <time>2019-08-16T12:48:53Z</time>
      </trkpt>
      <trkpt lat="42.0566370" lon="-6.6331500">
        <ele>901.5</ele>
        <time>2019-08-16T12:48:54Z</time>
      </trkpt>
      <trkpt lat="42.0566730" lon="-6.6331680">
        <ele>901.1</ele>
        <time>2019-08-16T12:48:55Z</time>
      </trkpt>
      <trkpt lat="42.0567100" lon="-6.6331890">
        <ele>900.8</ele>
        <time>2019-08-16T12:48:56Z</time>
      </trkpt>
      <trkpt lat="42.0567480" lon="-6.6332110">
        <ele>900.5</ele>
        <time>2019-08-16T12:48:57Z</time>
      </trkpt>
      <trkpt lat="42.0567880" lon="-6.6332340">
        <ele>900.4</ele>
        <time>2019-08-16T12:48:58Z</time>
      </trkpt>
      <trkpt lat="42.0568260" lon="-6.6332570">
        <ele>900.2</ele>
        <time>2019-08-16T12:48:59Z</time>
      </trkpt>
      <trkpt lat="42.0568650" lon="-6.6332750">
        <ele>900.1</ele>
        <time>2019-08-16T12:49:00Z</time>
      </trkpt>
      <trkpt lat="42.0569020" lon="-6.6332930">
        <ele>900.0</ele>
        <time>2019-08-16T12:49:01Z</time>
      </trkpt>
      <trkpt lat="42.0569370" lon="-6.6333170">
        <ele>899.9</ele>
        <time>2019-08-16T12:49:02Z</time>
      </trkpt>
      <trkpt lat="42.0569720" lon="-6.6333440">
        <ele>899.7</ele>
        <time>2019-08-16T12:49:03Z</time>
      </trkpt>
      <trkpt lat="42.0570050" lon="-6.6333770">
        <ele>899.6</ele>
        <time>2019-08-16T12:49:04Z</time>
      </trkpt>
      <trkpt lat="42.0570400" lon="-6.6334120">
        <ele>899.5</ele>
        <time>2019-08-16T12:49:05Z</time>
      </trkpt>
      <trkpt lat="42.0570770" lon="-6.6334480">
        <ele>899.3</ele>
        <time>2019-08-16T12:49:06Z</time>
      </trkpt>
      <trkpt lat="42.0571120" lon="-6.6334850">
        <ele>899.1</ele>
        <time>2019-08-16T12:49:07Z</time>
      </trkpt>
      <trkpt lat="42.0571440" lon="-6.6335270">
        <ele>899.0</ele>
        <time>2019-08-16T12:49:08Z</time>
      </trkpt>
      <trkpt lat="42.0571760" lon="-6.6335670">
        <ele>898.8</ele>
        <time>2019-08-16T12:49:09Z</time>
      </trkpt>
      <trkpt lat="42.0572100" lon="-6.6336080">
        <ele>898.7</ele>
        <time>2019-08-16T12:49:10Z</time>
      </trkpt>
      <trkpt lat="42.0572420" lon="-6.6336460">
        <ele>898.6</ele>
        <time>2019-08-16T12:49:11Z</time>
      </trkpt>
      <trkpt lat="42.0572710" lon="-6.6336850">
        <ele>898.5</ele>
        <time>2019-08-16T12:49:12Z</time>
      </trkpt>
      <trkpt lat="42.0572970" lon="-6.6337220">
        <ele>898.4</ele>
        <time>2019-08-16T12:49:13Z</time>
      </trkpt>
      <trkpt lat="42.0573210" lon="-6.6337620">
        <ele>898.4</ele>
        <time>2019-08-16T12:49:14Z</time>
      </trkpt>
      <trkpt lat="42.0573420" lon="-6.6338030">
        <ele>898.3</ele>
        <time>2019-08-16T12:49:15Z</time>
      </trkpt>
      <trkpt lat="42.0573620" lon="-6.6338450">
        <ele>898.2</ele>
        <time>2019-08-16T12:49:16Z</time>
      </trkpt>
      <trkpt lat="42.0573800" lon="-6.6338860">
        <ele>898.1</ele>
        <time>2019-08-16T12:49:17Z</time>
      </trkpt>
      <trkpt lat="42.0573970" lon="-6.6339300">
        <ele>898.0</ele>
        <time>2019-08-16T12:49:18Z</time>
      </trkpt>
      <trkpt lat="42.0574150" lon="-6.6339740">
        <ele>897.9</ele>
        <time>2019-08-16T12:49:19Z</time>
      </trkpt>
      <trkpt lat="42.0574310" lon="-6.6340210">
        <ele>897.8</ele>
        <time>2019-08-16T12:49:20Z</time>
      </trkpt>
      <trkpt lat="42.0574450" lon="-6.6340710">
        <ele>897.6</ele>
        <time>2019-08-16T12:49:21Z</time>
      </trkpt>
      <trkpt lat="42.0574550" lon="-6.6341230">
        <ele>897.4</ele>
        <time>2019-08-16T12:49:22Z</time>
      </trkpt>
      <trkpt lat="42.0574610" lon="-6.6341760">
        <ele>897.2</ele>
        <time>2019-08-16T12:49:23Z</time>
      </trkpt>
      <trkpt lat="42.0574670" lon="-6.6342260">
        <ele>897.0</ele>
        <time>2019-08-16T12:49:24Z</time>
      </trkpt>
      <trkpt lat="42.0574710" lon="-6.6342790">
        <ele>896.8</ele>
        <time>2019-08-16T12:49:25Z</time>
      </trkpt>
      <trkpt lat="42.0574710" lon="-6.6343340">
        <ele>896.6</ele>
        <time>2019-08-16T12:49:26Z</time>
      </trkpt>
      <trkpt lat="42.0574640" lon="-6.6343870">
        <ele>896.4</ele>
        <time>2019-08-16T12:49:27Z</time>
      </trkpt>
      <trkpt lat="42.0574530" lon="-6.6344390">
        <ele>896.3</ele>
        <time>2019-08-16T12:49:28Z</time>
      </trkpt>
      <trkpt lat="42.0574410" lon="-6.6344830">
        <ele>896.2</ele>
        <time>2019-08-16T12:49:29Z</time>
      </trkpt>
      <trkpt lat="42.0574280" lon="-6.6345280">
        <ele>896.0</ele>
        <time>2019-08-16T12:49:30Z</time>
      </trkpt>
      <trkpt lat="42.0574160" lon="-6.6345700">
        <ele>896.0</ele>
        <time>2019-08-16T12:49:31Z</time>
      </trkpt>
      <trkpt lat="42.0574020" lon="-6.6346090">
        <ele>896.0</ele>
        <time>2019-08-16T12:49:32Z</time>
      </trkpt>
      <trkpt lat="42.0573850" lon="-6.6346480">
        <ele>896.1</ele>
        <time>2019-08-16T12:49:33Z</time>
      </trkpt>
      <trkpt lat="42.0573660" lon="-6.6346870">
        <ele>896.1</ele>
        <time>2019-08-16T12:49:34Z</time>
      </trkpt>
      <trkpt lat="42.0573430" lon="-6.6347280">
        <ele>896.1</ele>
        <time>2019-08-16T12:49:35Z</time>
      </trkpt>
      <trkpt lat="42.0573170" lon="-6.6347670">
        <ele>896.2</ele>
        <time>2019-08-16T12:49:36Z</time>
      </trkpt>
      <trkpt lat="42.0572900" lon="-6.6348090">
        <ele>896.2</ele>
        <time>2019-08-16T12:49:37Z</time>
      </trkpt>
      <trkpt lat="42.0572610" lon="-6.6348570">
        <ele>896.2</ele>
        <time>2019-08-16T12:49:38Z</time>
      </trkpt>
      <trkpt lat="42.0572320" lon="-6.6349050">
        <ele>896.3</ele>
        <time>2019-08-16T12:49:39Z</time>
      </trkpt>
      <trkpt lat="42.0572040" lon="-6.6349480">
        <ele>896.3</ele>
        <time>2019-08-16T12:49:40Z</time>
      </trkpt>
      <trkpt lat="42.0571760" lon="-6.6349910">
        <ele>896.3</ele>
        <time>2019-08-16T12:49:41Z</time>
      </trkpt>
      <trkpt lat="42.0571480" lon="-6.6350320">
        <ele>896.3</ele>
        <time>2019-08-16T12:49:42Z</time>
      </trkpt>
      <trkpt lat="42.0571210" lon="-6.6350710">
        <ele>896.3</ele>
        <time>2019-08-16T12:49:43Z</time>
      </trkpt>
      <trkpt lat="42.0570960" lon="-6.6351100">
        <ele>896.3</ele>
        <time>2019-08-16T12:49:44Z</time>
      </trkpt>
      <trkpt lat="42.0570700" lon="-6.6351480">
        <ele>896.4</ele>
        <time>2019-08-16T12:49:45Z</time>
      </trkpt>
      <trkpt lat="42.0570440" lon="-6.6351860">
        <ele>896.4</ele>
        <time>2019-08-16T12:49:46Z</time>
      </trkpt>
      <trkpt lat="42.0570180" lon="-6.6352270">
        <ele>896.4</ele>
        <time>2019-08-16T12:49:47Z</time>
      </trkpt>
      <trkpt lat="42.0569890" lon="-6.6352670">
        <ele>896.4</ele>
        <time>2019-08-16T12:49:48Z</time>
      </trkpt>
      <trkpt lat="42.0569600" lon="-6.6353090">
        <ele>896.4</ele>
        <time>2019-08-16T12:49:49Z</time>
      </trkpt>
      <trkpt lat="42.0569320" lon="-6.6353470">
        <ele>896.4</ele>
        <time>2019-08-16T12:49:50Z</time>
      </trkpt>
      <trkpt lat="42.0569040" lon="-6.6353850">
        <ele>896.5</ele>
        <time>2019-08-16T12:49:51Z</time>
      </trkpt>
      <trkpt lat="42.0568750" lon="-6.6354260">
        <ele>896.5</ele>
        <time>2019-08-16T12:49:52Z</time>
      </trkpt>
      <trkpt lat="42.0568480" lon="-6.6354670">
        <ele>896.5</ele>
        <time>2019-08-16T12:49:53Z</time>
      </trkpt>
      <trkpt lat="42.0568190" lon="-6.6355060">
        <ele>896.5</ele>
        <time>2019-08-16T12:49:54Z</time>
      </trkpt>
      <trkpt lat="42.0567910" lon="-6.6355470">
        <ele>896.5</ele>
        <time>2019-08-16T12:49:55Z</time>
      </trkpt>
      <trkpt lat="42.0567640" lon="-6.6355890">
        <ele>896.5</ele>
        <time>2019-08-16T12:49:56Z</time>
      </trkpt>
      <trkpt lat="42.0567350" lon="-6.6356290">
        <ele>896.6</ele>
        <time>2019-08-16T12:49:57Z</time>
      </trkpt>
      <trkpt lat="42.0567070" lon="-6.6356660">
        <ele>896.6</ele>
        <time>2019-08-16T12:49:58Z</time>
      </trkpt>
      <trkpt lat="42.0566790" lon="-6.6357020">
        <ele>896.6</ele>
        <time>2019-08-16T12:49:59Z</time>
      </trkpt>
      <trkpt lat="42.0566530" lon="-6.6357370">
        <ele>896.6</ele>
        <time>2019-08-16T12:50:00Z</time>
      </trkpt>
      <trkpt lat="42.0566250" lon="-6.6357740">
        <ele>896.6</ele>
        <time>2019-08-16T12:50:01Z</time>
      </trkpt>
      <trkpt lat="42.0565950" lon="-6.6358130">
        <ele>896.6</ele>
        <time>2019-08-16T12:50:02Z</time>
      </trkpt>
      <trkpt lat="42.0565650" lon="-6.6358490">
        <ele>896.6</ele>
        <time>2019-08-16T12:50:03Z</time>
      </trkpt>
      <trkpt lat="42.0565390" lon="-6.6358850">
        <ele>896.7</ele>
        <time>2019-08-16T12:50:04Z</time>
      </trkpt>
      <trkpt lat="42.0565120" lon="-6.6359230">
        <ele>896.6</ele>
        <time>2019-08-16T12:50:05Z</time>
      </trkpt>
      <trkpt lat="42.0564840" lon="-6.6359640">
        <ele>896.5</ele>
        <time>2019-08-16T12:50:06Z</time>
      </trkpt>
      <trkpt lat="42.0564560" lon="-6.6360030">
        <ele>896.4</ele>
        <time>2019-08-16T12:50:07Z</time>
      </trkpt>
      <trkpt lat="42.0564290" lon="-6.6360400">
        <ele>896.3</ele>
        <time>2019-08-16T12:50:08Z</time>
      </trkpt>
      <trkpt lat="42.0564030" lon="-6.6360760">
        <ele>896.1</ele>
        <time>2019-08-16T12:50:09Z</time>
      </trkpt>
      <trkpt lat="42.0563780" lon="-6.6361130">
        <ele>896.0</ele>
        <time>2019-08-16T12:50:10Z</time>
      </trkpt>
      <trkpt lat="42.0563550" lon="-6.6361510">
        <ele>895.9</ele>
        <time>2019-08-16T12:50:11Z</time>
      </trkpt>
      <trkpt lat="42.0563310" lon="-6.6361880">
        <ele>895.8</ele>
        <time>2019-08-16T12:50:12Z</time>
      </trkpt>
      <trkpt lat="42.0563080" lon="-6.6362240">
        <ele>895.8</ele>
        <time>2019-08-16T12:50:13Z</time>
      </trkpt>
      <trkpt lat="42.0562840" lon="-6.6362570">
        <ele>895.8</ele>
        <time>2019-08-16T12:50:14Z</time>
      </trkpt>
      <trkpt lat="42.0562590" lon="-6.6362910">
        <ele>895.7</ele>
        <time>2019-08-16T12:50:15Z</time>
      </trkpt>
      <trkpt lat="42.0562330" lon="-6.6363260">
        <ele>895.7</ele>
        <time>2019-08-16T12:50:16Z</time>
      </trkpt>
      <trkpt lat="42.0562060" lon="-6.6363630">
        <ele>895.8</ele>
        <time>2019-08-16T12:50:17Z</time>
      </trkpt>
      <trkpt lat="42.0561800" lon="-6.6364010">
        <ele>895.8</ele>
        <time>2019-08-16T12:50:18Z</time>
      </trkpt>
      <trkpt lat="42.0561540" lon="-6.6364410">
        <ele>895.9</ele>
        <time>2019-08-16T12:50:19Z</time>
      </trkpt>
      <trkpt lat="42.0561280" lon="-6.6364780">
        <ele>895.9</ele>
        <time>2019-08-16T12:50:20Z</time>
      </trkpt>
      <trkpt lat="42.0561040" lon="-6.6365140">
        <ele>896.0</ele>
        <time>2019-08-16T12:50:21Z</time>
      </trkpt>
      <trkpt lat="42.0560810" lon="-6.6365510">
        <ele>896.0</ele>
        <time>2019-08-16T12:50:22Z</time>
      </trkpt>
      <trkpt lat="42.0560590" lon="-6.6365930">
        <ele>896.1</ele>
        <time>2019-08-16T12:50:23Z</time>
      </trkpt>
      <trkpt lat="42.0560360" lon="-6.6366370">
        <ele>896.1</ele>
        <time>2019-08-16T12:50:24Z</time>
      </trkpt>
      <trkpt lat="42.0560150" lon="-6.6366800">
        <ele>896.1</ele>
        <time>2019-08-16T12:50:25Z</time>
      </trkpt>
      <trkpt lat="42.0559970" lon="-6.6367280">
        <ele>896.1</ele>
        <time>2019-08-16T12:50:26Z</time>
      </trkpt>
      <trkpt lat="42.0559830" lon="-6.6367790">
        <ele>896.2</ele>
        <time>2019-08-16T12:50:27Z</time>
      </trkpt>
      <trkpt lat="42.0559700" lon="-6.6368320">
        <ele>896.2</ele>
        <time>2019-08-16T12:50:28Z</time>
      </trkpt>
      <trkpt lat="42.0559590" lon="-6.6368820">
        <ele>896.2</ele>
        <time>2019-08-16T12:50:29Z</time>
      </trkpt>
      <trkpt lat="42.0559510" lon="-6.6369300">
        <ele>896.3</ele>
        <time>2019-08-16T12:50:30Z</time>
      </trkpt>
      <trkpt lat="42.0559430" lon="-6.6369770">
        <ele>896.3</ele>
        <time>2019-08-16T12:50:31Z</time>
      </trkpt>
      <trkpt lat="42.0559370" lon="-6.6370240">
        <ele>896.5</ele>
        <time>2019-08-16T12:50:32Z</time>
      </trkpt>
      <trkpt lat="42.0559310" lon="-6.6370740">
        <ele>896.4</ele>
        <time>2019-08-16T12:50:33Z</time>
      </trkpt>
      <trkpt lat="42.0559290" lon="-6.6371230">
        <ele>896.3</ele>
        <time>2019-08-16T12:50:34Z</time>
      </trkpt>
      <trkpt lat="42.0559300" lon="-6.6371720">
        <ele>896.2</ele>
        <time>2019-08-16T12:50:35Z</time>
      </trkpt>
      <trkpt lat="42.0559330" lon="-6.6372210">
        <ele>896.3</ele>
        <time>2019-08-16T12:50:36Z</time>
      </trkpt>
      <trkpt lat="42.0559390" lon="-6.6372720">
        <ele>896.4</ele>
        <time>2019-08-16T12:50:37Z</time>
      </trkpt>
      <trkpt lat="42.0559470" lon="-6.6373230">
        <ele>896.5</ele>
        <time>2019-08-16T12:50:38Z</time>
      </trkpt>
      <trkpt lat="42.0559540" lon="-6.6373770">
        <ele>896.5</ele>
        <time>2019-08-16T12:50:39Z</time>
      </trkpt>
      <trkpt lat="42.0559610" lon="-6.6374320">
        <ele>896.6</ele>
        <time>2019-08-16T12:50:40Z</time>
      </trkpt>
      <trkpt lat="42.0559670" lon="-6.6374870">
        <ele>896.7</ele>
        <time>2019-08-16T12:50:41Z</time>
      </trkpt>
      <trkpt lat="42.0559730" lon="-6.6375430">
        <ele>896.8</ele>
        <time>2019-08-16T12:50:42Z</time>
      </trkpt>
      <trkpt lat="42.0559800" lon="-6.6376000">
        <ele>896.9</ele>
        <time>2019-08-16T12:50:43Z</time>
      </trkpt>
      <trkpt lat="42.0559860" lon="-6.6376590">
        <ele>897.0</ele>
        <time>2019-08-16T12:50:44Z</time>
      </trkpt>
      <trkpt lat="42.0559930" lon="-6.6377180">
        <ele>897.1</ele>
        <time>2019-08-16T12:50:45Z</time>
      </trkpt>
      <trkpt lat="42.0560000" lon="-6.6377780">
        <ele>897.2</ele>
        <time>2019-08-16T12:50:46Z</time>
      </trkpt>
      <trkpt lat="42.0560060" lon="-6.6378370">
        <ele>897.3</ele>
        <time>2019-08-16T12:50:47Z</time>
      </trkpt>
      <trkpt lat="42.0560130" lon="-6.6378970">
        <ele>897.4</ele>
        <time>2019-08-16T12:50:48Z</time>
      </trkpt>
      <trkpt lat="42.0560190" lon="-6.6379570">
        <ele>897.6</ele>
        <time>2019-08-16T12:50:49Z</time>
      </trkpt>
      <trkpt lat="42.0560250" lon="-6.6380180">
        <ele>897.8</ele>
        <time>2019-08-16T12:50:50Z</time>
      </trkpt>
      <trkpt lat="42.0560310" lon="-6.6380780">
        <ele>897.9</ele>
        <time>2019-08-16T12:50:51Z</time>
      </trkpt>
      <trkpt lat="42.0560370" lon="-6.6381380">
        <ele>898.1</ele>
        <time>2019-08-16T12:50:52Z</time>
      </trkpt>
      <trkpt lat="42.0560430" lon="-6.6381990">
        <ele>898.3</ele>
        <time>2019-08-16T12:50:53Z</time>
      </trkpt>
      <trkpt lat="42.0560490" lon="-6.6382600">
        <ele>898.4</ele>
        <time>2019-08-16T12:50:54Z</time>
      </trkpt>
      <trkpt lat="42.0560540" lon="-6.6383220">
        <ele>898.8</ele>
        <time>2019-08-16T12:50:55Z</time>
      </trkpt>
      <trkpt lat="42.0560580" lon="-6.6383840">
        <ele>898.9</ele>
        <time>2019-08-16T12:50:56Z</time>
      </trkpt>
      <trkpt lat="42.0560620" lon="-6.6384470">
        <ele>899.0</ele>
        <time>2019-08-16T12:50:57Z</time>
      </trkpt>
      <trkpt lat="42.0560660" lon="-6.6385090">
        <ele>899.1</ele>
        <time>2019-08-16T12:50:58Z</time>
      </trkpt>
      <trkpt lat="42.0560730" lon="-6.6385710">
        <ele>899.3</ele>
        <time>2019-08-16T12:50:59Z</time>
      </trkpt>
      <trkpt lat="42.0560790" lon="-6.6386320">
        <ele>899.4</ele>
        <time>2019-08-16T12:51:00Z</time>
      </trkpt>
      <trkpt lat="42.0560850" lon="-6.6386930">
        <ele>899.5</ele>
        <time>2019-08-16T12:51:01Z</time>
      </trkpt>
      <trkpt lat="42.0560920" lon="-6.6387530">
        <ele>899.6</ele>
        <time>2019-08-16T12:51:02Z</time>
      </trkpt>
      <trkpt lat="42.0560980" lon="-6.6388110">
        <ele>899.7</ele>
        <time>2019-08-16T12:51:03Z</time>
      </trkpt>
      <trkpt lat="42.0561040" lon="-6.6388690">
        <ele>899.8</ele>
        <time>2019-08-16T12:51:04Z</time>
      </trkpt>
      <trkpt lat="42.0561090" lon="-6.6389280">
        <ele>899.8</ele>
        <time>2019-08-16T12:51:05Z</time>
      </trkpt>
      <trkpt lat="42.0561130" lon="-6.6389890">
        <ele>899.8</ele>
        <time>2019-08-16T12:51:06Z</time>
      </trkpt>
      <trkpt lat="42.0561170" lon="-6.6390510">
        <ele>899.9</ele>
        <time>2019-08-16T12:51:07Z</time>
      </trkpt>
      <trkpt lat="42.0561220" lon="-6.6391130">
        <ele>899.9</ele>
        <time>2019-08-16T12:51:08Z</time>
      </trkpt>
      <trkpt lat="42.0561270" lon="-6.6391760">
        <ele>900.0</ele>
        <time>2019-08-16T12:51:09Z</time>
      </trkpt>
      <trkpt lat="42.0561300" lon="-6.6392380">
        <ele>900.0</ele>
        <time>2019-08-16T12:51:10Z</time>
      </trkpt>
      <trkpt lat="42.0561350" lon="-6.6393000">
        <ele>900.1</ele>
        <time>2019-08-16T12:51:11Z</time>
      </trkpt>
      <trkpt lat="42.0561430" lon="-6.6393610">
        <ele>900.2</ele>
        <time>2019-08-16T12:51:12Z</time>
      </trkpt>
      <trkpt lat="42.0561520" lon="-6.6394210">
        <ele>900.4</ele>
        <time>2019-08-16T12:51:13Z</time>
      </trkpt>
      <trkpt lat="42.0561600" lon="-6.6394820">
        <ele>900.7</ele>
        <time>2019-08-16T12:51:14Z</time>
      </trkpt>
      <trkpt lat="42.0561660" lon="-6.6395410">
        <ele>900.9</ele>
        <time>2019-08-16T12:51:15Z</time>
      </trkpt>
      <trkpt lat="42.0561720" lon="-6.6396000">
        <ele>901.1</ele>
        <time>2019-08-16T12:51:16Z</time>
      </trkpt>
      <trkpt lat="42.0561770" lon="-6.6396560">
        <ele>901.4</ele>
        <time>2019-08-16T12:51:17Z</time>
      </trkpt>
      <trkpt lat="42.0561820" lon="-6.6397120">
        <ele>901.6</ele>
        <time>2019-08-16T12:51:18Z</time>
      </trkpt>
      <trkpt lat="42.0561880" lon="-6.6397680">
        <ele>901.8</ele>
        <time>2019-08-16T12:51:19Z</time>
      </trkpt>
      <trkpt lat="42.0561930" lon="-6.6398230">
        <ele>902.0</ele>
        <time>2019-08-16T12:51:20Z</time>
      </trkpt>
      <trkpt lat="42.0561990" lon="-6.6398750">
        <ele>902.2</ele>
        <time>2019-08-16T12:51:21Z</time>
      </trkpt>
      <trkpt lat="42.0562050" lon="-6.6399270">
        <ele>902.4</ele>
        <time>2019-08-16T12:51:22Z</time>
      </trkpt>
      <trkpt lat="42.0562080" lon="-6.6399740">
        <ele>902.5</ele>
        <time>2019-08-16T12:51:23Z</time>
      </trkpt>
      <trkpt lat="42.0562120" lon="-6.6400200">
        <ele>902.7</ele>
        <time>2019-08-16T12:51:24Z</time>
      </trkpt>
      <trkpt lat="42.0562170" lon="-6.6400670">
        <ele>902.8</ele>
        <time>2019-08-16T12:51:25Z</time>
      </trkpt>
      <trkpt lat="42.0562210" lon="-6.6401150">
        <ele>902.9</ele>
        <time>2019-08-16T12:51:26Z</time>
      </trkpt>
      <trkpt lat="42.0562270" lon="-6.6401640">
        <ele>903.0</ele>
        <time>2019-08-16T12:51:27Z</time>
      </trkpt>
      <trkpt lat="42.0562330" lon="-6.6402150">
        <ele>903.1</ele>
        <time>2019-08-16T12:51:28Z</time>
      </trkpt>
      <trkpt lat="42.0562390" lon="-6.6402670">
        <ele>903.2</ele>
        <time>2019-08-16T12:51:29Z</time>
      </trkpt>
      <trkpt lat="42.0562450" lon="-6.6403200">
        <ele>903.3</ele>
        <time>2019-08-16T12:51:30Z</time>
      </trkpt>
      <trkpt lat="42.0562510" lon="-6.6403730">
        <ele>903.3</ele>
        <time>2019-08-16T12:51:31Z</time>
      </trkpt>
      <trkpt lat="42.0562550" lon="-6.6404270">
        <ele>903.4</ele>
        <time>2019-08-16T12:51:32Z</time>
      </trkpt>
      <trkpt lat="42.0562590" lon="-6.6404810">
        <ele>903.5</ele>
        <time>2019-08-16T12:51:33Z</time>
      </trkpt>
      <trkpt lat="42.0562630" lon="-6.6405350">
        <ele>903.6</ele>
        <time>2019-08-16T12:51:34Z</time>
      </trkpt>
      <trkpt lat="42.0562660" lon="-6.6405880">
        <ele>903.7</ele>
        <time>2019-08-16T12:51:35Z</time>
      </trkpt>
      <trkpt lat="42.0562710" lon="-6.6406410">
        <ele>903.7</ele>
        <time>2019-08-16T12:51:36Z</time>
      </trkpt>
      <trkpt lat="42.0562770" lon="-6.6406940">
        <ele>903.8</ele>
        <time>2019-08-16T12:51:37Z</time>
      </trkpt>
      <trkpt lat="42.0562820" lon="-6.6407470">
        <ele>903.9</ele>
        <time>2019-08-16T12:51:38Z</time>
      </trkpt>
      <trkpt lat="42.0562880" lon="-6.6408000">
        <ele>904.0</ele>
        <time>2019-08-16T12:51:39Z</time>
      </trkpt>
      <trkpt lat="42.0562940" lon="-6.6408540">
        <ele>904.1</ele>
        <time>2019-08-16T12:51:40Z</time>
      </trkpt>
      <trkpt lat="42.0562990" lon="-6.6409070">
        <ele>904.1</ele>
        <time>2019-08-16T12:51:41Z</time>
      </trkpt>
      <trkpt lat="42.0563040" lon="-6.6409620">
        <ele>904.1</ele>
        <time>2019-08-16T12:51:42Z</time>
      </trkpt>
      <trkpt lat="42.0563100" lon="-6.6410150">
        <ele>904.2</ele>
        <time>2019-08-16T12:51:43Z</time>
      </trkpt>
      <trkpt lat="42.0563140" lon="-6.6410680">
        <ele>904.2</ele>
        <time>2019-08-16T12:51:44Z</time>
      </trkpt>
      <trkpt lat="42.0563180" lon="-6.6411210">
        <ele>904.2</ele>
        <time>2019-08-16T12:51:45Z</time>
      </trkpt>
      <trkpt lat="42.0563210" lon="-6.6411730">
        <ele>904.2</ele>
        <time>2019-08-16T12:51:46Z</time>
      </trkpt>
      <trkpt lat="42.0563240" lon="-6.6412250">
        <ele>904.3</ele>
        <time>2019-08-16T12:51:47Z</time>
      </trkpt>
      <trkpt lat="42.0563270" lon="-6.6412770">
        <ele>904.3</ele>
        <time>2019-08-16T12:51:48Z</time>
      </trkpt>
      <trkpt lat="42.0563320" lon="-6.6413290">
        <ele>904.3</ele>
        <time>2019-08-16T12:51:49Z</time>
      </trkpt>
      <trkpt lat="42.0563390" lon="-6.6413830">
        <ele>904.4</ele>
        <time>2019-08-16T12:51:50Z</time>
      </trkpt>
      <trkpt lat="42.0563450" lon="-6.6414370">
        <ele>904.4</ele>
        <time>2019-08-16T12:51:51Z</time>
      </trkpt>
      <trkpt lat="42.0563500" lon="-6.6414910">
        <ele>904.4</ele>
        <time>2019-08-16T12:51:52Z</time>
      </trkpt>
      <trkpt lat="42.0563540" lon="-6.6415470">
        <ele>904.5</ele>
        <time>2019-08-16T12:51:53Z</time>
      </trkpt>
      <trkpt lat="42.0563590" lon="-6.6416020">
        <ele>904.5</ele>
        <time>2019-08-16T12:51:54Z</time>
      </trkpt>
      <trkpt lat="42.0563630" lon="-6.6416570">
        <ele>904.6</ele>
        <time>2019-08-16T12:51:55Z</time>
      </trkpt>
      <trkpt lat="42.0563680" lon="-6.6417120">
        <ele>904.6</ele>
        <time>2019-08-16T12:51:56Z</time>
      </trkpt>
      <trkpt lat="42.0563730" lon="-6.6417670">
        <ele>904.8</ele>
        <time>2019-08-16T12:51:57Z</time>
      </trkpt>
      <trkpt lat="42.0563780" lon="-6.6418220">
        <ele>904.9</ele>
        <time>2019-08-16T12:51:58Z</time>
      </trkpt>
      <trkpt lat="42.0563830" lon="-6.6418760">
        <ele>905.1</ele>
        <time>2019-08-16T12:51:59Z</time>
      </trkpt>
      <trkpt lat="42.0563880" lon="-6.6419290">
        <ele>905.3</ele>
        <time>2019-08-16T12:52:00Z</time>
      </trkpt>
      <trkpt lat="42.0563930" lon="-6.6419840">
        <ele>905.5</ele>
        <time>2019-08-16T12:52:01Z</time>
      </trkpt>
      <trkpt lat="42.0563970" lon="-6.6420380">
        <ele>905.7</ele>
        <time>2019-08-16T12:52:02Z</time>
      </trkpt>
      <trkpt lat="42.0564030" lon="-6.6420920">
        <ele>905.8</ele>
        <time>2019-08-16T12:52:03Z</time>
      </trkpt>
      <trkpt lat="42.0564090" lon="-6.6421460">
        <ele>906.0</ele>
        <time>2019-08-16T12:52:04Z</time>
      </trkpt>
      <trkpt lat="42.0564150" lon="-6.6421980">
        <ele>906.1</ele>
        <time>2019-08-16T12:52:05Z</time>
      </trkpt>
      <trkpt lat="42.0564220" lon="-6.6422520">
        <ele>906.2</ele>
        <time>2019-08-16T12:52:06Z</time>
      </trkpt>
      <trkpt lat="42.0564300" lon="-6.6423060">
        <ele>906.2</ele>
        <time>2019-08-16T12:52:07Z</time>
      </trkpt>
      <trkpt lat="42.0564400" lon="-6.6423590">
        <ele>906.2</ele>
        <time>2019-08-16T12:52:08Z</time>
      </trkpt>
      <trkpt lat="42.0564520" lon="-6.6424110">
        <ele>906.2</ele>
        <time>2019-08-16T12:52:09Z</time>
      </trkpt>
      <trkpt lat="42.0564650" lon="-6.6424630">
        <ele>906.3</ele>
        <time>2019-08-16T12:52:10Z</time>
      </trkpt>
      <trkpt lat="42.0564810" lon="-6.6425120">
        <ele>906.3</ele>
        <time>2019-08-16T12:52:11Z</time>
      </trkpt>
      <trkpt lat="42.0564980" lon="-6.6425610">
        <ele>906.3</ele>
        <time>2019-08-16T12:52:12Z</time>
      </trkpt>
      <trkpt lat="42.0565170" lon="-6.6426090">
        <ele>906.3</ele>
        <time>2019-08-16T12:52:13Z</time>
      </trkpt>
      <trkpt lat="42.0565350" lon="-6.6426540">
        <ele>906.4</ele>
        <time>2019-08-16T12:52:14Z</time>
      </trkpt>
      <trkpt lat="42.0565550" lon="-6.6426980">
        <ele>906.4</ele>
        <time>2019-08-16T12:52:15Z</time>
      </trkpt>
      <trkpt lat="42.0565770" lon="-6.6427410">
        <ele>906.4</ele>
        <time>2019-08-16T12:52:16Z</time>
      </trkpt>
      <trkpt lat="42.0566030" lon="-6.6427820">
        <ele>906.4</ele>
        <time>2019-08-16T12:52:17Z</time>
      </trkpt>
      <trkpt lat="42.0566290" lon="-6.6428210">
        <ele>906.4</ele>
        <time>2019-08-16T12:52:18Z</time>
      </trkpt>
      <trkpt lat="42.0566550" lon="-6.6428580">
        <ele>906.4</ele>
        <time>2019-08-16T12:52:19Z</time>
      </trkpt>
      <trkpt lat="42.0566840" lon="-6.6428910">
        <ele>906.4</ele>
        <time>2019-08-16T12:52:20Z</time>
      </trkpt>
      <trkpt lat="42.0567150" lon="-6.6429220">
        <ele>906.4</ele>
        <time>2019-08-16T12:52:21Z</time>
      </trkpt>
      <trkpt lat="42.0567460" lon="-6.6429510">
        <ele>906.4</ele>
        <time>2019-08-16T12:52:22Z</time>
      </trkpt>
      <trkpt lat="42.0567780" lon="-6.6429800">
        <ele>906.4</ele>
        <time>2019-08-16T12:52:23Z</time>
      </trkpt>
      <trkpt lat="42.0568120" lon="-6.6430070">
        <ele>906.4</ele>
        <time>2019-08-16T12:52:24Z</time>
      </trkpt>
      <trkpt lat="42.0568470" lon="-6.6430320">
        <ele>906.4</ele>
        <time>2019-08-16T12:52:25Z</time>
      </trkpt>
      <trkpt lat="42.0568830" lon="-6.6430560">
        <ele>906.4</ele>
        <time>2019-08-16T12:52:26Z</time>
      </trkpt>
      <trkpt lat="42.0569200" lon="-6.6430790">
        <ele>906.4</ele>
        <time>2019-08-16T12:52:27Z</time>
      </trkpt>
      <trkpt lat="42.0569570" lon="-6.6430980">
        <ele>906.4</ele>
        <time>2019-08-16T12:52:28Z</time>
      </trkpt>
      <trkpt lat="42.0569960" lon="-6.6431160">
        <ele>906.4</ele>
        <time>2019-08-16T12:52:29Z</time>
      </trkpt>
      <trkpt lat="42.0570360" lon="-6.6431320">
        <ele>906.4</ele>
        <time>2019-08-16T12:52:30Z</time>
      </trkpt>
      <trkpt lat="42.0570770" lon="-6.6431480">
        <ele>906.4</ele>
        <time>2019-08-16T12:52:31Z</time>
      </trkpt>
      <trkpt lat="42.0571180" lon="-6.6431630">
        <ele>906.4</ele>
        <time>2019-08-16T12:52:32Z</time>
      </trkpt>
      <trkpt lat="42.0571620" lon="-6.6431770">
        <ele>906.4</ele>
        <time>2019-08-16T12:52:33Z</time>
      </trkpt>
      <trkpt lat="42.0572060" lon="-6.6431880">
        <ele>906.4</ele>
        <time>2019-08-16T12:52:34Z</time>
      </trkpt>
      <trkpt lat="42.0572520" lon="-6.6431960">
        <ele>906.4</ele>
        <time>2019-08-16T12:52:35Z</time>
      </trkpt>
      <trkpt lat="42.0572980" lon="-6.6432010">
        <ele>906.4</ele>
        <time>2019-08-16T12:52:36Z</time>
      </trkpt>
      <trkpt lat="42.0573440" lon="-6.6432060">
        <ele>906.4</ele>
        <time>2019-08-16T12:52:37Z</time>
      </trkpt>
      <trkpt lat="42.0573900" lon="-6.6432120">
        <ele>906.4</ele>
        <time>2019-08-16T12:52:38Z</time>
      </trkpt>
      <trkpt lat="42.0574360" lon="-6.6432200">
        <ele>906.4</ele>
        <time>2019-08-16T12:52:39Z</time>
      </trkpt>
      <trkpt lat="42.0574810" lon="-6.6432280">
        <ele>906.4</ele>
        <time>2019-08-16T12:52:40Z</time>
      </trkpt>
      <trkpt lat="42.0575250" lon="-6.6432380">
        <ele>906.4</ele>
        <time>2019-08-16T12:52:41Z</time>
      </trkpt>
      <trkpt lat="42.0575690" lon="-6.6432520">
        <ele>906.4</ele>
        <time>2019-08-16T12:52:42Z</time>
      </trkpt>
      <trkpt lat="42.0576130" lon="-6.6432700">
        <ele>906.4</ele>
        <time>2019-08-16T12:52:43Z</time>
      </trkpt>
      <trkpt lat="42.0576570" lon="-6.6432920">
        <ele>906.4</ele>
        <time>2019-08-16T12:52:44Z</time>
      </trkpt>
      <trkpt lat="42.0577000" lon="-6.6433160">
        <ele>906.4</ele>
        <time>2019-08-16T12:52:45Z</time>
      </trkpt>
      <trkpt lat="42.0577420" lon="-6.6433470">
        <ele>906.4</ele>
        <time>2019-08-16T12:52:46Z</time>
      </trkpt>
      <trkpt lat="42.0577820" lon="-6.6433830">
        <ele>906.4</ele>
        <time>2019-08-16T12:52:47Z</time>
      </trkpt>
      <trkpt lat="42.0578200" lon="-6.6434220">
        <ele>906.4</ele>
        <time>2019-08-16T12:52:48Z</time>
      </trkpt>
      <trkpt lat="42.0578560" lon="-6.6434630">
        <ele>906.4</ele>
        <time>2019-08-16T12:52:49Z</time>
      </trkpt>
      <trkpt lat="42.0578910" lon="-6.6435100">
        <ele>906.4</ele>
        <time>2019-08-16T12:52:50Z</time>
      </trkpt>
      <trkpt lat="42.0579240" lon="-6.6435590">
        <ele>906.4</ele>
        <time>2019-08-16T12:52:51Z</time>
      </trkpt>
      <trkpt lat="42.0579540" lon="-6.6436100">
        <ele>906.4</ele>
        <time>2019-08-16T12:52:52Z</time>
      </trkpt>
      <trkpt lat="42.0579830" lon="-6.6436620">
        <ele>906.4</ele>
        <time>2019-08-16T12:52:53Z</time>
      </trkpt>
      <trkpt lat="42.0580120" lon="-6.6437130">
        <ele>906.4</ele>
        <time>2019-08-16T12:52:54Z</time>
      </trkpt>
      <trkpt lat="42.0580400" lon="-6.6437660">
        <ele>906.4</ele>
        <time>2019-08-16T12:52:55Z</time>
      </trkpt>
      <trkpt lat="42.0580680" lon="-6.6438180">
        <ele>906.4</ele>
        <time>2019-08-16T12:52:56Z</time>
      </trkpt>
      <trkpt lat="42.0580950" lon="-6.6438680">
        <ele>906.4</ele>
        <time>2019-08-16T12:52:57Z</time>
      </trkpt>
      <trkpt lat="42.0581230" lon="-6.6439180">
        <ele>906.4</ele>
        <time>2019-08-16T12:52:58Z</time>
      </trkpt>
      <trkpt lat="42.0581550" lon="-6.6439670">
        <ele>906.4</ele>
        <time>2019-08-16T12:52:59Z</time>
      </trkpt>
      <trkpt lat="42.0581910" lon="-6.6440120">
        <ele>906.4</ele>
        <time>2019-08-16T12:53:00Z</time>
      </trkpt>
      <trkpt lat="42.0582310" lon="-6.6440550">
        <ele>906.4</ele>
        <time>2019-08-16T12:53:01Z</time>
      </trkpt>
      <trkpt lat="42.0582740" lon="-6.6440940">
        <ele>906.4</ele>
        <time>2019-08-16T12:53:02Z</time>
      </trkpt>
      <trkpt lat="42.0583220" lon="-6.6441240">
        <ele>906.4</ele>
        <time>2019-08-16T12:53:03Z</time>
      </trkpt>
      <trkpt lat="42.0583730" lon="-6.6441420">
        <ele>906.4</ele>
        <time>2019-08-16T12:53:04Z</time>
      </trkpt>
      <trkpt lat="42.0584250" lon="-6.6441520">
        <ele>906.4</ele>
        <time>2019-08-16T12:53:05Z</time>
      </trkpt>
      <trkpt lat="42.0584780" lon="-6.6441530">
        <ele>906.4</ele>
        <time>2019-08-16T12:53:06Z</time>
      </trkpt>
      <trkpt lat="42.0585310" lon="-6.6441480">
        <ele>906.4</ele>
        <time>2019-08-16T12:53:07Z</time>
      </trkpt>
      <trkpt lat="42.0585830" lon="-6.6441430">
        <ele>906.4</ele>
        <time>2019-08-16T12:53:08Z</time>
      </trkpt>
      <trkpt lat="42.0586370" lon="-6.6441340">
        <ele>906.4</ele>
        <time>2019-08-16T12:53:09Z</time>
      </trkpt>
      <trkpt lat="42.0586910" lon="-6.6441220">
        <ele>906.4</ele>
        <time>2019-08-16T12:53:10Z</time>
      </trkpt>
      <trkpt lat="42.0587460" lon="-6.6441130">
        <ele>906.4</ele>
        <time>2019-08-16T12:53:11Z</time>
      </trkpt>
      <trkpt lat="42.0588010" lon="-6.6441070">
        <ele>906.4</ele>
        <time>2019-08-16T12:53:12Z</time>
      </trkpt>
      <trkpt lat="42.0588540" lon="-6.6441040">
        <ele>906.4</ele>
        <time>2019-08-16T12:53:13Z</time>
      </trkpt>
      <trkpt lat="42.0589050" lon="-6.6441060">
        <ele>906.4</ele>
        <time>2019-08-16T12:53:14Z</time>
      </trkpt>
      <trkpt lat="42.0589550" lon="-6.6441160">
        <ele>906.4</ele>
        <time>2019-08-16T12:53:15Z</time>
      </trkpt>
      <trkpt lat="42.0590040" lon="-6.6441350">
        <ele>906.4</ele>
        <time>2019-08-16T12:53:16Z</time>
      </trkpt>
      <trkpt lat="42.0590500" lon="-6.6441620">
        <ele>906.4</ele>
        <time>2019-08-16T12:53:17Z</time>
      </trkpt>
      <trkpt lat="42.0590920" lon="-6.6441980">
        <ele>906.4</ele>
        <time>2019-08-16T12:53:18Z</time>
      </trkpt>
      <trkpt lat="42.0591290" lon="-6.6442430">
        <ele>906.4</ele>
        <time>2019-08-16T12:53:19Z</time>
      </trkpt>
      <trkpt lat="42.0591630" lon="-6.6442950">
        <ele>906.4</ele>
        <time>2019-08-16T12:53:20Z</time>
      </trkpt>
      <trkpt lat="42.0591950" lon="-6.6443500">
        <ele>906.4</ele>
        <time>2019-08-16T12:53:21Z</time>
      </trkpt>
      <trkpt lat="42.0592260" lon="-6.6444090">
        <ele>906.4</ele>
        <time>2019-08-16T12:53:22Z</time>
      </trkpt>
      <trkpt lat="42.0592560" lon="-6.6444700">
        <ele>906.4</ele>
        <time>2019-08-16T12:53:23Z</time>
      </trkpt>
      <trkpt lat="42.0592840" lon="-6.6445330">
        <ele>906.4</ele>
        <time>2019-08-16T12:53:24Z</time>
      </trkpt>
      <trkpt lat="42.0593110" lon="-6.6445960">
        <ele>906.4</ele>
        <time>2019-08-16T12:53:25Z</time>
      </trkpt>
      <trkpt lat="42.0593400" lon="-6.6446600">
        <ele>906.4</ele>
        <time>2019-08-16T12:53:26Z</time>
      </trkpt>
      <trkpt lat="42.0593710" lon="-6.6447240">
        <ele>906.4</ele>
        <time>2019-08-16T12:53:27Z</time>
      </trkpt>
      <trkpt lat="42.0594010" lon="-6.6447900">
        <ele>906.4</ele>
        <time>2019-08-16T12:53:28Z</time>
      </trkpt>
      <trkpt lat="42.0594310" lon="-6.6448570">
        <ele>906.4</ele>
        <time>2019-08-16T12:53:29Z</time>
      </trkpt>
      <trkpt lat="42.0594620" lon="-6.6449220">
        <ele>906.4</ele>
        <time>2019-08-16T12:53:30Z</time>
      </trkpt>
      <trkpt lat="42.0594910" lon="-6.6449870">
        <ele>906.4</ele>
        <time>2019-08-16T12:53:31Z</time>
      </trkpt>
      <trkpt lat="42.0595210" lon="-6.6450540">
        <ele>906.4</ele>
        <time>2019-08-16T12:53:32Z</time>
      </trkpt>
      <trkpt lat="42.0595510" lon="-6.6451200">
        <ele>906.4</ele>
        <time>2019-08-16T12:53:33Z</time>
      </trkpt>
      <trkpt lat="42.0595800" lon="-6.6451860">
        <ele>906.4</ele>
        <time>2019-08-16T12:53:34Z</time>
      </trkpt>
      <trkpt lat="42.0596100" lon="-6.6452510">
        <ele>906.4</ele>
        <time>2019-08-16T12:53:35Z</time>
      </trkpt>
      <trkpt lat="42.0596410" lon="-6.6453160">
        <ele>906.4</ele>
        <time>2019-08-16T12:53:36Z</time>
      </trkpt>
      <trkpt lat="42.0596700" lon="-6.6453800">
        <ele>906.4</ele>
        <time>2019-08-16T12:53:37Z</time>
      </trkpt>
      <trkpt lat="42.0597010" lon="-6.6454460">
        <ele>906.4</ele>
        <time>2019-08-16T12:53:38Z</time>
      </trkpt>
      <trkpt lat="42.0597300" lon="-6.6455110">
        <ele>906.4</ele>
        <time>2019-08-16T12:53:39Z</time>
      </trkpt>
      <trkpt lat="42.0597610" lon="-6.6455770">
        <ele>906.4</ele>
        <time>2019-08-16T12:53:40Z</time>
      </trkpt>
      <trkpt lat="42.0597900" lon="-6.6456420">
        <ele>906.4</ele>
        <time>2019-08-16T12:53:41Z</time>
      </trkpt>
      <trkpt lat="42.0598190" lon="-6.6457070">
        <ele>906.4</ele>
        <time>2019-08-16T12:53:42Z</time>
      </trkpt>
      <trkpt lat="42.0598490" lon="-6.6457730">
        <ele>906.4</ele>
        <time>2019-08-16T12:53:43Z</time>
      </trkpt>
      <trkpt lat="42.0598780" lon="-6.6458380">
        <ele>906.4</ele>
        <time>2019-08-16T12:53:44Z</time>
      </trkpt>
      <trkpt lat="42.0599070" lon="-6.6459040">
        <ele>906.4</ele>
        <time>2019-08-16T12:53:45Z</time>
      </trkpt>
      <trkpt lat="42.0599350" lon="-6.6459680">
        <ele>906.4</ele>
        <time>2019-08-16T12:53:46Z</time>
      </trkpt>
      <trkpt lat="42.0599630" lon="-6.6460310">
        <ele>906.4</ele>
        <time>2019-08-16T12:53:47Z</time>
      </trkpt>
      <trkpt lat="42.0599890" lon="-6.6460930">
        <ele>906.4</ele>
        <time>2019-08-16T12:53:48Z</time>
      </trkpt>
      <trkpt lat="42.0600150" lon="-6.6461570">
        <ele>906.4</ele>
        <time>2019-08-16T12:53:49Z</time>
      </trkpt>
      <trkpt lat="42.0600390" lon="-6.6462180">
        <ele>906.4</ele>
        <time>2019-08-16T12:53:50Z</time>
      </trkpt>
      <trkpt lat="42.0600630" lon="-6.6462730">
        <ele>906.4</ele>
        <time>2019-08-16T12:53:51Z</time>
      </trkpt>
      <trkpt lat="42.0600870" lon="-6.6463240">
        <ele>906.4</ele>
        <time>2019-08-16T12:53:52Z</time>
      </trkpt>
      <trkpt lat="42.0601120" lon="-6.6463720">
        <ele>906.4</ele>
        <time>2019-08-16T12:53:53Z</time>
      </trkpt>
      <trkpt lat="42.0601350" lon="-6.6464180">
        <ele>906.4</ele>
        <time>2019-08-16T12:53:54Z</time>
      </trkpt>
      <trkpt lat="42.0601590" lon="-6.6464640">
        <ele>906.4</ele>
        <time>2019-08-16T12:53:55Z</time>
      </trkpt>
      <trkpt lat="42.0601820" lon="-6.6465100">
        <ele>906.5</ele>
        <time>2019-08-16T12:53:56Z</time>
      </trkpt>
      <trkpt lat="42.0602050" lon="-6.6465570">
        <ele>906.5</ele>
        <time>2019-08-16T12:53:57Z</time>
      </trkpt>
      <trkpt lat="42.0602270" lon="-6.6466040">
        <ele>906.5</ele>
        <time>2019-08-16T12:53:58Z</time>
      </trkpt>
      <trkpt lat="42.0602490" lon="-6.6466510">
        <ele>906.5</ele>
        <time>2019-08-16T12:53:59Z</time>
      </trkpt>
      <trkpt lat="42.0602710" lon="-6.6466990">
        <ele>906.4</ele>
        <time>2019-08-16T12:54:00Z</time>
      </trkpt>
      <trkpt lat="42.0602920" lon="-6.6467480">
        <ele>906.4</ele>
        <time>2019-08-16T12:54:01Z</time>
      </trkpt>
      <trkpt lat="42.0603120" lon="-6.6467960">
        <ele>906.2</ele>
        <time>2019-08-16T12:54:02Z</time>
      </trkpt>
      <trkpt lat="42.0603300" lon="-6.6468400">
        <ele>906.1</ele>
        <time>2019-08-16T12:54:03Z</time>
      </trkpt>
      <trkpt lat="42.0603480" lon="-6.6468820">
        <ele>905.9</ele>
        <time>2019-08-16T12:54:04Z</time>
      </trkpt>
      <trkpt lat="42.0603620" lon="-6.6469180">
        <ele>905.6</ele>
        <time>2019-08-16T12:54:05Z</time>
      </trkpt>
      <trkpt lat="42.0603760" lon="-6.6469470">
        <ele>905.4</ele>
        <time>2019-08-16T12:54:06Z</time>
      </trkpt>
      <trkpt lat="42.0604030" lon="-6.6469930">
        <ele>905.0</ele>
        <time>2019-08-16T12:54:08Z</time>
      </trkpt>
      <trkpt lat="42.0604160" lon="-6.6470240">
        <ele>904.8</ele>
        <time>2019-08-16T12:54:10Z</time>
      </trkpt>
      <trkpt lat="42.0604240" lon="-6.6470580">
        <ele>904.5</ele>
        <time>2019-08-16T12:54:13Z</time>
      </trkpt>
      <trkpt lat="42.0603710" lon="-6.6470590">
        <ele>904.0</ele>
        <time>2019-08-16T12:54:16Z</time>
      </trkpt>
      <trkpt lat="42.0603280" lon="-6.6469900">
        <ele>904.7</ele>
        <time>2019-08-16T12:54:18Z</time>
      </trkpt>
      <trkpt lat="42.0603050" lon="-6.6469470">
        <ele>905.2</ele>
        <time>2019-08-16T12:54:19Z</time>
      </trkpt>
      <trkpt lat="42.0602810" lon="-6.6469030">
        <ele>905.6</ele>
        <time>2019-08-16T12:54:20Z</time>
      </trkpt>
      <trkpt lat="42.0602560" lon="-6.6468570">
        <ele>905.9</ele>
        <time>2019-08-16T12:54:21Z</time>
      </trkpt>
      <trkpt lat="42.0602330" lon="-6.6468100">
        <ele>906.2</ele>
        <time>2019-08-16T12:54:22Z</time>
      </trkpt>
      <trkpt lat="42.0602100" lon="-6.6467620">
        <ele>906.3</ele>
        <time>2019-08-16T12:54:23Z</time>
      </trkpt>
      <trkpt lat="42.0601870" lon="-6.6467140">
        <ele>906.4</ele>
        <time>2019-08-16T12:54:24Z</time>
      </trkpt>
      <trkpt lat="42.0601640" lon="-6.6466660">
        <ele>906.5</ele>
        <time>2019-08-16T12:54:25Z</time>
      </trkpt>
      <trkpt lat="42.0601420" lon="-6.6466190">
        <ele>906.5</ele>
        <time>2019-08-16T12:54:26Z</time>
      </trkpt>
      <trkpt lat="42.0601210" lon="-6.6465730">
        <ele>906.5</ele>
        <time>2019-08-16T12:54:27Z</time>
      </trkpt>
      <trkpt lat="42.0601010" lon="-6.6465280">
        <ele>906.4</ele>
        <time>2019-08-16T12:54:28Z</time>
      </trkpt>
      <trkpt lat="42.0600810" lon="-6.6464840">
        <ele>906.4</ele>
        <time>2019-08-16T12:54:29Z</time>
      </trkpt>
      <trkpt lat="42.0600620" lon="-6.6464400">
        <ele>906.4</ele>
        <time>2019-08-16T12:54:30Z</time>
      </trkpt>
      <trkpt lat="42.0600440" lon="-6.6463980">
        <ele>906.4</ele>
        <time>2019-08-16T12:54:31Z</time>
      </trkpt>
      <trkpt lat="42.0600250" lon="-6.6463580">
        <ele>906.4</ele>
        <time>2019-08-16T12:54:32Z</time>
      </trkpt>
      <trkpt lat="42.0600050" lon="-6.6463220">
        <ele>906.3</ele>
        <time>2019-08-16T12:54:33Z</time>
      </trkpt>
      <trkpt lat="42.0599840" lon="-6.6462900">
        <ele>906.2</ele>
        <time>2019-08-16T12:54:34Z</time>
      </trkpt>
      <trkpt lat="42.0599610" lon="-6.6462620">
        <ele>906.2</ele>
        <time>2019-08-16T12:54:35Z</time>
      </trkpt>
      <trkpt lat="42.0599340" lon="-6.6462390">
        <ele>906.0</ele>
        <time>2019-08-16T12:54:36Z</time>
      </trkpt>
      <trkpt lat="42.0599030" lon="-6.6462170">
        <ele>905.9</ele>
        <time>2019-08-16T12:54:37Z</time>
      </trkpt>
      <trkpt lat="42.0598700" lon="-6.6461920">
        <ele>905.7</ele>
        <time>2019-08-16T12:54:38Z</time>
      </trkpt>
      <trkpt lat="42.0598420" lon="-6.6461680">
        <ele>905.6</ele>
        <time>2019-08-16T12:54:39Z</time>
      </trkpt>
      <trkpt lat="42.0598140" lon="-6.6461440">
        <ele>905.4</ele>
        <time>2019-08-16T12:54:40Z</time>
      </trkpt>
      <trkpt lat="42.0597850" lon="-6.6461200">
        <ele>905.2</ele>
        <time>2019-08-16T12:54:41Z</time>
      </trkpt>
      <trkpt lat="42.0597550" lon="-6.6461000">
        <ele>905.0</ele>
        <time>2019-08-16T12:54:42Z</time>
      </trkpt>
      <trkpt lat="42.0597260" lon="-6.6460860">
        <ele>904.7</ele>
        <time>2019-08-16T12:54:43Z</time>
      </trkpt>
      <trkpt lat="42.0597020" lon="-6.6460820">
        <ele>904.5</ele>
        <time>2019-08-16T12:54:44Z</time>
      </trkpt>
      <trkpt lat="42.0596670" lon="-6.6460920">
        <ele>904.1</ele>
        <time>2019-08-16T12:54:46Z</time>
      </trkpt>
      <trkpt lat="42.0596520" lon="-6.6461010">
        <ele>904.0</ele>
        <time>2019-08-16T12:54:49Z</time>
      </trkpt>
      <trkpt lat="42.0596550" lon="-6.6461690">
        <ele>903.6</ele>
        <time>2019-08-16T12:54:53Z</time>
      </trkpt>
      <trkpt lat="42.0596640" lon="-6.6462260">
        <ele>903.2</ele>
        <time>2019-08-16T12:54:55Z</time>
      </trkpt>
      <trkpt lat="42.0596900" lon="-6.6463320">
        <ele>902.6</ele>
        <time>2019-08-16T12:54:57Z</time>
      </trkpt>
      <trkpt lat="42.0597140" lon="-6.6464200">
        <ele>902.0</ele>
        <time>2019-08-16T12:55:34Z</time>
      </trkpt>
      <trkpt lat="42.0597390" lon="-6.6465090">
        <ele>901.4</ele>
        <time>2019-08-16T12:55:35Z</time>
      </trkpt>
      <trkpt lat="42.0597400" lon="-6.6465810">
        <ele>900.9</ele>
        <time>2019-08-16T12:55:36Z</time>
      </trkpt>
      <trkpt lat="42.0597400" lon="-6.6466510">
        <ele>900.3</ele>
        <time>2019-08-16T12:55:37Z</time>
      </trkpt>
      <trkpt lat="42.0597440" lon="-6.6467180">
        <ele>899.8</ele>
        <time>2019-08-16T12:55:38Z</time>
      </trkpt>
      <trkpt lat="42.0597580" lon="-6.6467730">
        <ele>899.4</ele>
        <time>2019-08-16T12:55:39Z</time>
      </trkpt>
      <trkpt lat="42.0597700" lon="-6.6468240">
        <ele>899.0</ele>
        <time>2019-08-16T12:55:40Z</time>
      </trkpt>
      <trkpt lat="42.0597770" lon="-6.6468680">
        <ele>898.8</ele>
        <time>2019-08-16T12:55:41Z</time>
      </trkpt>
      <trkpt lat="42.0597780" lon="-6.6469060">
        <ele>898.7</ele>
        <time>2019-08-16T12:55:42Z</time>
      </trkpt>
      <trkpt lat="42.0597740" lon="-6.6469470">
        <ele>898.5</ele>
        <time>2019-08-16T12:55:43Z</time>
      </trkpt>
      <trkpt lat="42.0597570" lon="-6.6469970">
        <ele>898.4</ele>
        <time>2019-08-16T12:55:44Z</time>
      </trkpt>
      <trkpt lat="42.0597500" lon="-6.6470370">
        <ele>898.3</ele>
        <time>2019-08-16T12:55:45Z</time>
      </trkpt>
      <trkpt lat="42.0597420" lon="-6.6470870">
        <ele>898.2</ele>
        <time>2019-08-16T12:55:46Z</time>
      </trkpt>
      <trkpt lat="42.0597340" lon="-6.6471400">
        <ele>898.1</ele>
        <time>2019-08-16T12:55:47Z</time>
      </trkpt>
      <trkpt lat="42.0597190" lon="-6.6472010">
        <ele>898.1</ele>
        <time>2019-08-16T12:55:48Z</time>
      </trkpt>
      <trkpt lat="42.0597000" lon="-6.6472490">
        <ele>898.1</ele>
        <time>2019-08-16T12:55:49Z</time>
      </trkpt>
      <trkpt lat="42.0596780" lon="-6.6473010">
        <ele>898.1</ele>
        <time>2019-08-16T12:55:50Z</time>
      </trkpt>
      <trkpt lat="42.0596640" lon="-6.6473520">
        <ele>898.1</ele>
        <time>2019-08-16T12:55:51Z</time>
      </trkpt>
      <trkpt lat="42.0596440" lon="-6.6474090">
        <ele>898.1</ele>
        <time>2019-08-16T12:55:52Z</time>
      </trkpt>
      <trkpt lat="42.0596240" lon="-6.6474790">
        <ele>898.2</ele>
        <time>2019-08-16T12:55:53Z</time>
      </trkpt>
      <trkpt lat="42.0596070" lon="-6.6475480">
        <ele>898.2</ele>
        <time>2019-08-16T12:55:54Z</time>
      </trkpt>
      <trkpt lat="42.0595950" lon="-6.6476100">
        <ele>898.3</ele>
        <time>2019-08-16T12:55:55Z</time>
      </trkpt>
      <trkpt lat="42.0595750" lon="-6.6476690">
        <ele>898.3</ele>
        <time>2019-08-16T12:55:56Z</time>
      </trkpt>
      <trkpt lat="42.0595550" lon="-6.6477270">
        <ele>898.3</ele>
        <time>2019-08-16T12:55:57Z</time>
      </trkpt>
      <trkpt lat="42.0595310" lon="-6.6477780">
        <ele>898.4</ele>
        <time>2019-08-16T12:55:58Z</time>
      </trkpt>
      <trkpt lat="42.0595040" lon="-6.6478260">
        <ele>898.4</ele>
        <time>2019-08-16T12:55:59Z</time>
      </trkpt>
      <trkpt lat="42.0594740" lon="-6.6478760">
        <ele>898.4</ele>
        <time>2019-08-16T12:56:00Z</time>
      </trkpt>
      <trkpt lat="42.0594490" lon="-6.6479280">
        <ele>898.4</ele>
        <time>2019-08-16T12:56:01Z</time>
      </trkpt>
      <trkpt lat="42.0594400" lon="-6.6479820">
        <ele>898.5</ele>
        <time>2019-08-16T12:56:02Z</time>
      </trkpt>
      <trkpt lat="42.0594370" lon="-6.6480330">
        <ele>898.5</ele>
        <time>2019-08-16T12:56:03Z</time>
      </trkpt>
      <trkpt lat="42.0594370" lon="-6.6480830">
        <ele>898.5</ele>
        <time>2019-08-16T12:56:04Z</time>
      </trkpt>
      <trkpt lat="42.0594400" lon="-6.6481340">
        <ele>898.5</ele>
        <time>2019-08-16T12:56:05Z</time>
      </trkpt>
      <trkpt lat="42.0594440" lon="-6.6481870">
        <ele>898.5</ele>
        <time>2019-08-16T12:56:06Z</time>
      </trkpt>
      <trkpt lat="42.0594480" lon="-6.6482390">
        <ele>898.5</ele>
        <time>2019-08-16T12:56:07Z</time>
      </trkpt>
      <trkpt lat="42.0594530" lon="-6.6482940">
        <ele>898.5</ele>
        <time>2019-08-16T12:56:08Z</time>
      </trkpt>
      <trkpt lat="42.0594570" lon="-6.6483490">
        <ele>898.5</ele>
        <time>2019-08-16T12:56:09Z</time>
      </trkpt>
      <trkpt lat="42.0594660" lon="-6.6484060">
        <ele>898.6</ele>
        <time>2019-08-16T12:56:10Z</time>
      </trkpt>
      <trkpt lat="42.0594750" lon="-6.6484640">
        <ele>898.6</ele>
        <time>2019-08-16T12:56:11Z</time>
      </trkpt>
      <trkpt lat="42.0594850" lon="-6.6485210">
        <ele>898.6</ele>
        <time>2019-08-16T12:56:12Z</time>
      </trkpt>
      <trkpt lat="42.0594900" lon="-6.6485790">
        <ele>898.6</ele>
        <time>2019-08-16T12:56:13Z</time>
      </trkpt>
      <trkpt lat="42.0594940" lon="-6.6486380">
        <ele>898.5</ele>
        <time>2019-08-16T12:56:14Z</time>
      </trkpt>
      <trkpt lat="42.0594960" lon="-6.6486980">
        <ele>898.5</ele>
        <time>2019-08-16T12:56:15Z</time>
      </trkpt>
      <trkpt lat="42.0594990" lon="-6.6487580">
        <ele>898.5</ele>
        <time>2019-08-16T12:56:16Z</time>
      </trkpt>
      <trkpt lat="42.0595010" lon="-6.6488190">
        <ele>898.5</ele>
        <time>2019-08-16T12:56:17Z</time>
      </trkpt>
      <trkpt lat="42.0595030" lon="-6.6488810">
        <ele>898.5</ele>
        <time>2019-08-16T12:56:18Z</time>
      </trkpt>
      <trkpt lat="42.0595060" lon="-6.6489430">
        <ele>898.5</ele>
        <time>2019-08-16T12:56:19Z</time>
      </trkpt>
      <trkpt lat="42.0595080" lon="-6.6490040">
        <ele>898.5</ele>
        <time>2019-08-16T12:56:20Z</time>
      </trkpt>
      <trkpt lat="42.0595090" lon="-6.6490640">
        <ele>898.5</ele>
        <time>2019-08-16T12:56:21Z</time>
      </trkpt>
      <trkpt lat="42.0595080" lon="-6.6491260">
        <ele>898.5</ele>
        <time>2019-08-16T12:56:22Z</time>
      </trkpt>
      <trkpt lat="42.0595060" lon="-6.6491880">
        <ele>898.5</ele>
        <time>2019-08-16T12:56:23Z</time>
      </trkpt>
      <trkpt lat="42.0595010" lon="-6.6492510">
        <ele>898.5</ele>
        <time>2019-08-16T12:56:24Z</time>
      </trkpt>
      <trkpt lat="42.0594980" lon="-6.6493110">
        <ele>898.5</ele>
        <time>2019-08-16T12:56:25Z</time>
      </trkpt>
      <trkpt lat="42.0594940" lon="-6.6493690">
        <ele>898.5</ele>
        <time>2019-08-16T12:56:26Z</time>
      </trkpt>
      <trkpt lat="42.0594890" lon="-6.6494280">
        <ele>898.5</ele>
        <time>2019-08-16T12:56:27Z</time>
      </trkpt>
      <trkpt lat="42.0594830" lon="-6.6494860">
        <ele>898.5</ele>
        <time>2019-08-16T12:56:28Z</time>
      </trkpt>
      <trkpt lat="42.0594780" lon="-6.6495430">
        <ele>898.5</ele>
        <time>2019-08-16T12:56:29Z</time>
      </trkpt>
      <trkpt lat="42.0594750" lon="-6.6496000">
        <ele>898.5</ele>
        <time>2019-08-16T12:56:30Z</time>
      </trkpt>
      <trkpt lat="42.0594730" lon="-6.6496590">
        <ele>898.5</ele>
        <time>2019-08-16T12:56:31Z</time>
      </trkpt>
      <trkpt lat="42.0594710" lon="-6.6497190">
        <ele>898.5</ele>
        <time>2019-08-16T12:56:32Z</time>
      </trkpt>
      <trkpt lat="42.0594690" lon="-6.6497800">
        <ele>898.5</ele>
        <time>2019-08-16T12:56:33Z</time>
      </trkpt>
      <trkpt lat="42.0594690" lon="-6.6498410">
        <ele>898.5</ele>
        <time>2019-08-16T12:56:34Z</time>
      </trkpt>
      <trkpt lat="42.0594690" lon="-6.6499010">
        <ele>898.5</ele>
        <time>2019-08-16T12:56:35Z</time>
      </trkpt>
      <trkpt lat="42.0594670" lon="-6.6499590">
        <ele>898.5</ele>
        <time>2019-08-16T12:56:36Z</time>
      </trkpt>
      <trkpt lat="42.0594670" lon="-6.6500140">
        <ele>898.5</ele>
        <time>2019-08-16T12:56:37Z</time>
      </trkpt>
      <trkpt lat="42.0594670" lon="-6.6500660">
        <ele>898.5</ele>
        <time>2019-08-16T12:56:38Z</time>
      </trkpt>
      <trkpt lat="42.0594650" lon="-6.6501140">
        <ele>898.5</ele>
        <time>2019-08-16T12:56:39Z</time>
      </trkpt>
      <trkpt lat="42.0594640" lon="-6.6501600">
        <ele>898.5</ele>
        <time>2019-08-16T12:56:40Z</time>
      </trkpt>
      <trkpt lat="42.0594650" lon="-6.6502090">
        <ele>898.5</ele>
        <time>2019-08-16T12:56:41Z</time>
      </trkpt>
      <trkpt lat="42.0594600" lon="-6.6502590">
        <ele>898.5</ele>
        <time>2019-08-16T12:56:42Z</time>
      </trkpt>
      <trkpt lat="42.0594530" lon="-6.6503070">
        <ele>898.5</ele>
        <time>2019-08-16T12:56:43Z</time>
      </trkpt>
      <trkpt lat="42.0594470" lon="-6.6503560">
        <ele>898.5</ele>
        <time>2019-08-16T12:56:44Z</time>
      </trkpt>
      <trkpt lat="42.0594430" lon="-6.6504080">
        <ele>898.5</ele>
        <time>2019-08-16T12:56:45Z</time>
      </trkpt>
      <trkpt lat="42.0594380" lon="-6.6504600">
        <ele>898.5</ele>
        <time>2019-08-16T12:56:46Z</time>
      </trkpt>
      <trkpt lat="42.0594310" lon="-6.6505160">
        <ele>898.5</ele>
        <time>2019-08-16T12:56:47Z</time>
      </trkpt>
      <trkpt lat="42.0594290" lon="-6.6505720">
        <ele>898.5</ele>
        <time>2019-08-16T12:56:48Z</time>
      </trkpt>
      <trkpt lat="42.0594300" lon="-6.6506300">
        <ele>898.6</ele>
        <time>2019-08-16T12:56:49Z</time>
      </trkpt>
      <trkpt lat="42.0594300" lon="-6.6506910">
        <ele>898.6</ele>
        <time>2019-08-16T12:56:50Z</time>
      </trkpt>
      <trkpt lat="42.0594310" lon="-6.6507490">
        <ele>898.6</ele>
        <time>2019-08-16T12:56:51Z</time>
      </trkpt>
      <trkpt lat="42.0594310" lon="-6.6508060">
        <ele>898.6</ele>
        <time>2019-08-16T12:56:52Z</time>
      </trkpt>
      <trkpt lat="42.0594300" lon="-6.6508610">
        <ele>898.6</ele>
        <time>2019-08-16T12:56:53Z</time>
      </trkpt>
      <trkpt lat="42.0594210" lon="-6.6509150">
        <ele>898.6</ele>
        <time>2019-08-16T12:56:54Z</time>
      </trkpt>
      <trkpt lat="42.0594080" lon="-6.6509630">
        <ele>898.6</ele>
        <time>2019-08-16T12:56:55Z</time>
      </trkpt>
      <trkpt lat="42.0593900" lon="-6.6510040">
        <ele>898.7</ele>
        <time>2019-08-16T12:56:56Z</time>
      </trkpt>
      <trkpt lat="42.0593700" lon="-6.6510440">
        <ele>898.7</ele>
        <time>2019-08-16T12:56:57Z</time>
      </trkpt>
      <trkpt lat="42.0593480" lon="-6.6510870">
        <ele>898.7</ele>
        <time>2019-08-16T12:56:58Z</time>
      </trkpt>
      <trkpt lat="42.0593230" lon="-6.6511250">
        <ele>898.7</ele>
        <time>2019-08-16T12:56:59Z</time>
      </trkpt>
      <trkpt lat="42.0592980" lon="-6.6511590">
        <ele>898.7</ele>
        <time>2019-08-16T12:57:00Z</time>
      </trkpt>
      <trkpt lat="42.0592750" lon="-6.6511920">
        <ele>898.7</ele>
        <time>2019-08-16T12:57:01Z</time>
      </trkpt>
      <trkpt lat="42.0592550" lon="-6.6512260">
        <ele>898.7</ele>
        <time>2019-08-16T12:57:02Z</time>
      </trkpt>
      <trkpt lat="42.0592410" lon="-6.6512620">
        <ele>898.7</ele>
        <time>2019-08-16T12:57:03Z</time>
      </trkpt>
      <trkpt lat="42.0592300" lon="-6.6512980">
        <ele>898.7</ele>
        <time>2019-08-16T12:57:04Z</time>
      </trkpt>
      <trkpt lat="42.0592210" lon="-6.6513340">
        <ele>898.7</ele>
        <time>2019-08-16T12:57:05Z</time>
      </trkpt>
      <trkpt lat="42.0592140" lon="-6.6513730">
        <ele>898.7</ele>
        <time>2019-08-16T12:57:06Z</time>
      </trkpt>
      <trkpt lat="42.0592070" lon="-6.6514130">
        <ele>898.8</ele>
        <time>2019-08-16T12:57:07Z</time>
      </trkpt>
      <trkpt lat="42.0592020" lon="-6.6514490">
        <ele>898.8</ele>
        <time>2019-08-16T12:57:08Z</time>
      </trkpt>
      <trkpt lat="42.0591980" lon="-6.6514820">
        <ele>898.8</ele>
        <time>2019-08-16T12:57:09Z</time>
      </trkpt>
      <trkpt lat="42.0591990" lon="-6.6515350">
        <ele>898.8</ele>
        <time>2019-08-16T12:57:11Z</time>
      </trkpt>
      <trkpt lat="42.0592020" lon="-6.6515770">
        <ele>898.8</ele>
        <time>2019-08-16T12:57:13Z</time>
      </trkpt>
      <trkpt lat="42.0592050" lon="-6.6516360">
        <ele>898.9</ele>
        <time>2019-08-16T12:57:15Z</time>
      </trkpt>
      <trkpt lat="42.0591880" lon="-6.6517070">
        <ele>898.9</ele>
        <time>2019-08-16T12:57:17Z</time>
      </trkpt>
      <trkpt lat="42.0591800" lon="-6.6517430">
        <ele>898.9</ele>
        <time>2019-08-16T12:57:18Z</time>
      </trkpt>
      <trkpt lat="42.0591730" lon="-6.6517820">
        <ele>898.9</ele>
        <time>2019-08-16T12:57:19Z</time>
      </trkpt>
      <trkpt lat="42.0591680" lon="-6.6518240">
        <ele>899.0</ele>
        <time>2019-08-16T12:57:20Z</time>
      </trkpt>
      <trkpt lat="42.0591610" lon="-6.6518680">
        <ele>899.0</ele>
        <time>2019-08-16T12:57:21Z</time>
      </trkpt>
      <trkpt lat="42.0591560" lon="-6.6519150">
        <ele>899.0</ele>
        <time>2019-08-16T12:57:22Z</time>
      </trkpt>
      <trkpt lat="42.0591540" lon="-6.6519630">
        <ele>899.0</ele>
        <time>2019-08-16T12:57:23Z</time>
      </trkpt>
      <trkpt lat="42.0591520" lon="-6.6520160">
        <ele>899.1</ele>
        <time>2019-08-16T12:57:24Z</time>
      </trkpt>
      <trkpt lat="42.0591530" lon="-6.6520680">
        <ele>899.1</ele>
        <time>2019-08-16T12:57:25Z</time>
      </trkpt>
      <trkpt lat="42.0591620" lon="-6.6521120">
        <ele>899.1</ele>
        <time>2019-08-16T12:57:26Z</time>
      </trkpt>
      <trkpt lat="42.0591670" lon="-6.6521570">
        <ele>899.1</ele>
        <time>2019-08-16T12:57:27Z</time>
      </trkpt>
      <trkpt lat="42.0591650" lon="-6.6522040">
        <ele>899.1</ele>
        <time>2019-08-16T12:57:28Z</time>
      </trkpt>
      <trkpt lat="42.0591610" lon="-6.6522490">
        <ele>899.2</ele>
        <time>2019-08-16T12:57:29Z</time>
      </trkpt>
      <trkpt lat="42.0591470" lon="-6.6522940">
        <ele>899.2</ele>
        <time>2019-08-16T12:57:30Z</time>
      </trkpt>
      <trkpt lat="42.0591300" lon="-6.6523410">
        <ele>899.2</ele>
        <time>2019-08-16T12:57:31Z</time>
      </trkpt>
      <trkpt lat="42.0591180" lon="-6.6523900">
        <ele>899.2</ele>
        <time>2019-08-16T12:57:32Z</time>
      </trkpt>
      <trkpt lat="42.0591060" lon="-6.6524400">
        <ele>899.2</ele>
        <time>2019-08-16T12:57:33Z</time>
      </trkpt>
      <trkpt lat="42.0590920" lon="-6.6524880">
        <ele>899.2</ele>
        <time>2019-08-16T12:57:34Z</time>
      </trkpt>
      <trkpt lat="42.0590800" lon="-6.6525350">
        <ele>899.3</ele>
        <time>2019-08-16T12:57:35Z</time>
      </trkpt>
      <trkpt lat="42.0590680" lon="-6.6525860">
        <ele>899.3</ele>
        <time>2019-08-16T12:57:36Z</time>
      </trkpt>
      <trkpt lat="42.0590540" lon="-6.6526360">
        <ele>899.3</ele>
        <time>2019-08-16T12:57:37Z</time>
      </trkpt>
      <trkpt lat="42.0590380" lon="-6.6526830">
        <ele>899.3</ele>
        <time>2019-08-16T12:57:38Z</time>
      </trkpt>
      <trkpt lat="42.0590190" lon="-6.6527250">
        <ele>899.3</ele>
        <time>2019-08-16T12:57:39Z</time>
      </trkpt>
      <trkpt lat="42.0590010" lon="-6.6527620">
        <ele>899.3</ele>
        <time>2019-08-16T12:57:40Z</time>
      </trkpt>
      <trkpt lat="42.0589840" lon="-6.6527970">
        <ele>899.3</ele>
        <time>2019-08-16T12:57:41Z</time>
      </trkpt>
      <trkpt lat="42.0589720" lon="-6.6528380">
        <ele>899.3</ele>
        <time>2019-08-16T12:57:42Z</time>
      </trkpt>
      <trkpt lat="42.0589640" lon="-6.6528820">
        <ele>899.4</ele>
        <time>2019-08-16T12:57:43Z</time>
      </trkpt>
      <trkpt lat="42.0589570" lon="-6.6529290">
        <ele>899.4</ele>
        <time>2019-08-16T12:57:44Z</time>
      </trkpt>
      <trkpt lat="42.0589570" lon="-6.6529800">
        <ele>899.4</ele>
        <time>2019-08-16T12:57:45Z</time>
      </trkpt>
      <trkpt lat="42.0589640" lon="-6.6530290">
        <ele>899.4</ele>
        <time>2019-08-16T12:57:46Z</time>
      </trkpt>
      <trkpt lat="42.0589690" lon="-6.6530780">
        <ele>899.4</ele>
        <time>2019-08-16T12:57:47Z</time>
      </trkpt>
      <trkpt lat="42.0589720" lon="-6.6531290">
        <ele>899.4</ele>
        <time>2019-08-16T12:57:48Z</time>
      </trkpt>
      <trkpt lat="42.0589760" lon="-6.6531740">
        <ele>899.4</ele>
        <time>2019-08-16T12:57:49Z</time>
      </trkpt>
      <trkpt lat="42.0589840" lon="-6.6532120">
        <ele>899.4</ele>
        <time>2019-08-16T12:57:50Z</time>
      </trkpt>
      <trkpt lat="42.0589980" lon="-6.6532480">
        <ele>899.4</ele>
        <time>2019-08-16T12:57:51Z</time>
      </trkpt>
      <trkpt lat="42.0590130" lon="-6.6532840">
        <ele>899.4</ele>
        <time>2019-08-16T12:57:52Z</time>
      </trkpt>
      <trkpt lat="42.0590250" lon="-6.6533190">
        <ele>899.4</ele>
        <time>2019-08-16T12:57:53Z</time>
      </trkpt>
      <trkpt lat="42.0590350" lon="-6.6533550">
        <ele>899.4</ele>
        <time>2019-08-16T12:57:54Z</time>
      </trkpt>
      <trkpt lat="42.0590450" lon="-6.6533970">
        <ele>899.5</ele>
        <time>2019-08-16T12:57:55Z</time>
      </trkpt>
      <trkpt lat="42.0590560" lon="-6.6534390">
        <ele>899.5</ele>
        <time>2019-08-16T12:57:56Z</time>
      </trkpt>
      <trkpt lat="42.0590660" lon="-6.6534830">
        <ele>899.5</ele>
        <time>2019-08-16T12:57:57Z</time>
      </trkpt>
      <trkpt lat="42.0590720" lon="-6.6535270">
        <ele>899.5</ele>
        <time>2019-08-16T12:57:58Z</time>
      </trkpt>
      <trkpt lat="42.0590770" lon="-6.6535740">
        <ele>899.5</ele>
        <time>2019-08-16T12:57:59Z</time>
      </trkpt>
      <trkpt lat="42.0590840" lon="-6.6536220">
        <ele>899.5</ele>
        <time>2019-08-16T12:58:00Z</time>
      </trkpt>
      <trkpt lat="42.0590850" lon="-6.6536700">
        <ele>899.5</ele>
        <time>2019-08-16T12:58:01Z</time>
      </trkpt>
      <trkpt lat="42.0590850" lon="-6.6537210">
        <ele>899.5</ele>
        <time>2019-08-16T12:58:02Z</time>
      </trkpt>
      <trkpt lat="42.0590860" lon="-6.6537720">
        <ele>899.5</ele>
        <time>2019-08-16T12:58:03Z</time>
      </trkpt>
      <trkpt lat="42.0590900" lon="-6.6538210">
        <ele>899.5</ele>
        <time>2019-08-16T12:58:04Z</time>
      </trkpt>
      <trkpt lat="42.0590930" lon="-6.6538690">
        <ele>899.5</ele>
        <time>2019-08-16T12:58:05Z</time>
      </trkpt>
      <trkpt lat="42.0590950" lon="-6.6539170">
        <ele>899.6</ele>
        <time>2019-08-16T12:58:06Z</time>
      </trkpt>
      <trkpt lat="42.0590980" lon="-6.6539650">
        <ele>899.6</ele>
        <time>2019-08-16T12:58:07Z</time>
      </trkpt>
      <trkpt lat="42.0591020" lon="-6.6540120">
        <ele>899.6</ele>
        <time>2019-08-16T12:58:08Z</time>
      </trkpt>
      <trkpt lat="42.0591050" lon="-6.6540580">
        <ele>899.6</ele>
        <time>2019-08-16T12:58:09Z</time>
      </trkpt>
      <trkpt lat="42.0591060" lon="-6.6541020">
        <ele>899.6</ele>
        <time>2019-08-16T12:58:10Z</time>
      </trkpt>
      <trkpt lat="42.0591070" lon="-6.6541440">
        <ele>899.6</ele>
        <time>2019-08-16T12:58:11Z</time>
      </trkpt>
      <trkpt lat="42.0591080" lon="-6.6541880">
        <ele>899.6</ele>
        <time>2019-08-16T12:58:12Z</time>
      </trkpt>
      <trkpt lat="42.0591060" lon="-6.6542340">
        <ele>899.6</ele>
        <time>2019-08-16T12:58:13Z</time>
      </trkpt>
      <trkpt lat="42.0591040" lon="-6.6542800">
        <ele>899.6</ele>
        <time>2019-08-16T12:58:14Z</time>
      </trkpt>
      <trkpt lat="42.0591020" lon="-6.6543270">
        <ele>899.6</ele>
        <time>2019-08-16T12:58:15Z</time>
      </trkpt>
      <trkpt lat="42.0591040" lon="-6.6543740">
        <ele>899.6</ele>
        <time>2019-08-16T12:58:16Z</time>
      </trkpt>
      <trkpt lat="42.0591100" lon="-6.6544230">
        <ele>899.6</ele>
        <time>2019-08-16T12:58:17Z</time>
      </trkpt>
      <trkpt lat="42.0591180" lon="-6.6544730">
        <ele>899.6</ele>
        <time>2019-08-16T12:58:18Z</time>
      </trkpt>
      <trkpt lat="42.0591250" lon="-6.6545250">
        <ele>899.7</ele>
        <time>2019-08-16T12:58:19Z</time>
      </trkpt>
      <trkpt lat="42.0591320" lon="-6.6545760">
        <ele>899.7</ele>
        <time>2019-08-16T12:58:20Z</time>
      </trkpt>
      <trkpt lat="42.0591380" lon="-6.6546260">
        <ele>899.7</ele>
        <time>2019-08-16T12:58:21Z</time>
      </trkpt>
      <trkpt lat="42.0591420" lon="-6.6546780">
        <ele>899.7</ele>
        <time>2019-08-16T12:58:22Z</time>
      </trkpt>
      <trkpt lat="42.0591420" lon="-6.6547340">
        <ele>899.7</ele>
        <time>2019-08-16T12:58:23Z</time>
      </trkpt>
      <trkpt lat="42.0591400" lon="-6.6547910">
        <ele>899.7</ele>
        <time>2019-08-16T12:58:24Z</time>
      </trkpt>
      <trkpt lat="42.0591380" lon="-6.6548520">
        <ele>899.7</ele>
        <time>2019-08-16T12:58:25Z</time>
      </trkpt>
      <trkpt lat="42.0591370" lon="-6.6549110">
        <ele>899.7</ele>
        <time>2019-08-16T12:58:26Z</time>
      </trkpt>
      <trkpt lat="42.0591340" lon="-6.6549700">
        <ele>899.7</ele>
        <time>2019-08-16T12:58:27Z</time>
      </trkpt>
      <trkpt lat="42.0591330" lon="-6.6550270">
        <ele>899.7</ele>
        <time>2019-08-16T12:58:28Z</time>
      </trkpt>
      <trkpt lat="42.0591300" lon="-6.6550870">
        <ele>899.7</ele>
        <time>2019-08-16T12:58:29Z</time>
      </trkpt>
      <trkpt lat="42.0591250" lon="-6.6551450">
        <ele>899.6</ele>
        <time>2019-08-16T12:58:30Z</time>
      </trkpt>
      <trkpt lat="42.0591200" lon="-6.6552050">
        <ele>899.6</ele>
        <time>2019-08-16T12:58:31Z</time>
      </trkpt>
      <trkpt lat="42.0591170" lon="-6.6552640">
        <ele>899.6</ele>
        <time>2019-08-16T12:58:32Z</time>
      </trkpt>
      <trkpt lat="42.0591150" lon="-6.6553270">
        <ele>899.6</ele>
        <time>2019-08-16T12:58:33Z</time>
      </trkpt>
      <trkpt lat="42.0591110" lon="-6.6553920">
        <ele>899.6</ele>
        <time>2019-08-16T12:58:34Z</time>
      </trkpt>
      <trkpt lat="42.0591110" lon="-6.6554570">
        <ele>899.6</ele>
        <time>2019-08-16T12:58:35Z</time>
      </trkpt>
      <trkpt lat="42.0591140" lon="-6.6555240">
        <ele>899.6</ele>
        <time>2019-08-16T12:58:36Z</time>
      </trkpt>
      <trkpt lat="42.0591160" lon="-6.6555920">
        <ele>899.6</ele>
        <time>2019-08-16T12:58:37Z</time>
      </trkpt>
      <trkpt lat="42.0591180" lon="-6.6556590">
        <ele>899.5</ele>
        <time>2019-08-16T12:58:38Z</time>
      </trkpt>
      <trkpt lat="42.0591140" lon="-6.6557280">
        <ele>899.5</ele>
        <time>2019-08-16T12:58:39Z</time>
      </trkpt>
      <trkpt lat="42.0591070" lon="-6.6557940">
        <ele>899.5</ele>
        <time>2019-08-16T12:58:40Z</time>
      </trkpt>
      <trkpt lat="42.0590990" lon="-6.6558550">
        <ele>899.5</ele>
        <time>2019-08-16T12:58:41Z</time>
      </trkpt>
      <trkpt lat="42.0590910" lon="-6.6559110">
        <ele>899.5</ele>
        <time>2019-08-16T12:58:42Z</time>
      </trkpt>
      <trkpt lat="42.0590810" lon="-6.6559680">
        <ele>899.5</ele>
        <time>2019-08-16T12:58:43Z</time>
      </trkpt>
      <trkpt lat="42.0590740" lon="-6.6560240">
        <ele>899.5</ele>
        <time>2019-08-16T12:58:44Z</time>
      </trkpt>
      <trkpt lat="42.0590740" lon="-6.6560810">
        <ele>899.5</ele>
        <time>2019-08-16T12:58:45Z</time>
      </trkpt>
      <trkpt lat="42.0590760" lon="-6.6561390">
        <ele>899.5</ele>
        <time>2019-08-16T12:58:46Z</time>
      </trkpt>
      <trkpt lat="42.0590750" lon="-6.6561980">
        <ele>899.5</ele>
        <time>2019-08-16T12:58:47Z</time>
      </trkpt>
      <trkpt lat="42.0590700" lon="-6.6562530">
        <ele>899.5</ele>
        <time>2019-08-16T12:58:48Z</time>
      </trkpt>
      <trkpt lat="42.0590580" lon="-6.6563040">
        <ele>899.5</ele>
        <time>2019-08-16T12:58:49Z</time>
      </trkpt>
      <trkpt lat="42.0590450" lon="-6.6563500">
        <ele>899.5</ele>
        <time>2019-08-16T12:58:50Z</time>
      </trkpt>
      <trkpt lat="42.0590300" lon="-6.6563930">
        <ele>899.6</ele>
        <time>2019-08-16T12:58:51Z</time>
      </trkpt>
      <trkpt lat="42.0590150" lon="-6.6564340">
        <ele>899.6</ele>
        <time>2019-08-16T12:58:52Z</time>
      </trkpt>
      <trkpt lat="42.0590040" lon="-6.6564760">
        <ele>899.6</ele>
        <time>2019-08-16T12:58:53Z</time>
      </trkpt>
      <trkpt lat="42.0589960" lon="-6.6565160">
        <ele>899.6</ele>
        <time>2019-08-16T12:58:54Z</time>
      </trkpt>
      <trkpt lat="42.0589900" lon="-6.6565540">
        <ele>899.6</ele>
        <time>2019-08-16T12:58:55Z</time>
      </trkpt>
      <trkpt lat="42.0589820" lon="-6.6565880">
        <ele>899.6</ele>
        <time>2019-08-16T12:58:56Z</time>
      </trkpt>
      <trkpt lat="42.0589680" lon="-6.6566430">
        <ele>899.6</ele>
        <time>2019-08-16T12:58:58Z</time>
      </trkpt>
      <trkpt lat="42.0589630" lon="-6.6567050">
        <ele>899.6</ele>
        <time>2019-08-16T12:59:00Z</time>
      </trkpt>
      <trkpt lat="42.0589670" lon="-6.6567910">
        <ele>899.7</ele>
        <time>2019-08-16T12:59:02Z</time>
      </trkpt>
      <trkpt lat="42.0589710" lon="-6.6568390">
        <ele>899.7</ele>
        <time>2019-08-16T12:59:03Z</time>
      </trkpt>
      <trkpt lat="42.0589750" lon="-6.6568910">
        <ele>899.7</ele>
        <time>2019-08-16T12:59:04Z</time>
      </trkpt>
      <trkpt lat="42.0589790" lon="-6.6569440">
        <ele>899.7</ele>
        <time>2019-08-16T12:59:05Z</time>
      </trkpt>
      <trkpt lat="42.0589850" lon="-6.6570000">
        <ele>899.8</ele>
        <time>2019-08-16T12:59:06Z</time>
      </trkpt>
      <trkpt lat="42.0589880" lon="-6.6570580">
        <ele>899.8</ele>
        <time>2019-08-16T12:59:07Z</time>
      </trkpt>
      <trkpt lat="42.0589910" lon="-6.6571170">
        <ele>899.8</ele>
        <time>2019-08-16T12:59:08Z</time>
      </trkpt>
      <trkpt lat="42.0589930" lon="-6.6571770">
        <ele>899.9</ele>
        <time>2019-08-16T12:59:09Z</time>
      </trkpt>
      <trkpt lat="42.0589970" lon="-6.6572370">
        <ele>899.9</ele>
        <time>2019-08-16T12:59:10Z</time>
      </trkpt>
      <trkpt lat="42.0590020" lon="-6.6572980">
        <ele>899.9</ele>
        <time>2019-08-16T12:59:11Z</time>
      </trkpt>
      <trkpt lat="42.0590060" lon="-6.6573590">
        <ele>900.0</ele>
        <time>2019-08-16T12:59:12Z</time>
      </trkpt>
      <trkpt lat="42.0590090" lon="-6.6574200">
        <ele>900.0</ele>
        <time>2019-08-16T12:59:13Z</time>
      </trkpt>
      <trkpt lat="42.0590100" lon="-6.6574820">
        <ele>900.0</ele>
        <time>2019-08-16T12:59:14Z</time>
      </trkpt>
      <trkpt lat="42.0590090" lon="-6.6575450">
        <ele>900.0</ele>
        <time>2019-08-16T12:59:15Z</time>
      </trkpt>
      <trkpt lat="42.0590080" lon="-6.6576040">
        <ele>900.0</ele>
        <time>2019-08-16T12:59:16Z</time>
      </trkpt>
      <trkpt lat="42.0590050" lon="-6.6576610">
        <ele>900.1</ele>
        <time>2019-08-16T12:59:17Z</time>
      </trkpt>
      <trkpt lat="42.0589990" lon="-6.6577160">
        <ele>900.1</ele>
        <time>2019-08-16T12:59:18Z</time>
      </trkpt>
      <trkpt lat="42.0589870" lon="-6.6577700">
        <ele>900.1</ele>
        <time>2019-08-16T12:59:19Z</time>
      </trkpt>
      <trkpt lat="42.0589650" lon="-6.6578200">
        <ele>900.1</ele>
        <time>2019-08-16T12:59:20Z</time>
      </trkpt>
      <trkpt lat="42.0589340" lon="-6.6578640">
        <ele>900.1</ele>
        <time>2019-08-16T12:59:21Z</time>
      </trkpt>
      <trkpt lat="42.0589000" lon="-6.6579000">
        <ele>900.1</ele>
        <time>2019-08-16T12:59:22Z</time>
      </trkpt>
      <trkpt lat="42.0588650" lon="-6.6579350">
        <ele>900.0</ele>
        <time>2019-08-16T12:59:23Z</time>
      </trkpt>
      <trkpt lat="42.0588370" lon="-6.6579820">
        <ele>900.0</ele>
        <time>2019-08-16T12:59:24Z</time>
      </trkpt>
      <trkpt lat="42.0588270" lon="-6.6580410">
        <ele>899.9</ele>
        <time>2019-08-16T12:59:25Z</time>
      </trkpt>
      <trkpt lat="42.0588180" lon="-6.6581050">
        <ele>899.8</ele>
        <time>2019-08-16T12:59:26Z</time>
      </trkpt>
      <trkpt lat="42.0588040" lon="-6.6581620">
        <ele>899.8</ele>
        <time>2019-08-16T12:59:27Z</time>
      </trkpt>
      <trkpt lat="42.0587880" lon="-6.6582200">
        <ele>899.7</ele>
        <time>2019-08-16T12:59:28Z</time>
      </trkpt>
      <trkpt lat="42.0587680" lon="-6.6582780">
        <ele>899.6</ele>
        <time>2019-08-16T12:59:29Z</time>
      </trkpt>
      <trkpt lat="42.0587520" lon="-6.6583340">
        <ele>899.6</ele>
        <time>2019-08-16T12:59:30Z</time>
      </trkpt>
      <trkpt lat="42.0587360" lon="-6.6583830">
        <ele>899.5</ele>
        <time>2019-08-16T12:59:31Z</time>
      </trkpt>
      <trkpt lat="42.0587140" lon="-6.6584290">
        <ele>899.5</ele>
        <time>2019-08-16T12:59:32Z</time>
      </trkpt>
      <trkpt lat="42.0586890" lon="-6.6584760">
        <ele>899.4</ele>
        <time>2019-08-16T12:59:33Z</time>
      </trkpt>
      <trkpt lat="42.0586630" lon="-6.6585210">
        <ele>899.3</ele>
        <time>2019-08-16T12:59:34Z</time>
      </trkpt>
      <trkpt lat="42.0586380" lon="-6.6585610">
        <ele>899.2</ele>
        <time>2019-08-16T12:59:35Z</time>
      </trkpt>
      <trkpt lat="42.0586170" lon="-6.6586000">
        <ele>899.2</ele>
        <time>2019-08-16T12:59:36Z</time>
      </trkpt>
      <trkpt lat="42.0585920" lon="-6.6586370">
        <ele>899.1</ele>
        <time>2019-08-16T12:59:37Z</time>
      </trkpt>
      <trkpt lat="42.0585630" lon="-6.6586730">
        <ele>899.1</ele>
        <time>2019-08-16T12:59:38Z</time>
      </trkpt>
      <trkpt lat="42.0585410" lon="-6.6587130">
        <ele>899.0</ele>
        <time>2019-08-16T12:59:39Z</time>
      </trkpt>
      <trkpt lat="42.0585230" lon="-6.6587520">
        <ele>899.0</ele>
        <time>2019-08-16T12:59:40Z</time>
      </trkpt>
      <trkpt lat="42.0584950" lon="-6.6587920">
        <ele>898.9</ele>
        <time>2019-08-16T12:59:41Z</time>
      </trkpt>
      <trkpt lat="42.0584620" lon="-6.6588310">
        <ele>898.9</ele>
        <time>2019-08-16T12:59:42Z</time>
      </trkpt>
      <trkpt lat="42.0584370" lon="-6.6588690">
        <ele>898.9</ele>
        <time>2019-08-16T12:59:43Z</time>
      </trkpt>
      <trkpt lat="42.0584110" lon="-6.6589010">
        <ele>898.8</ele>
        <time>2019-08-16T12:59:44Z</time>
      </trkpt>
      <trkpt lat="42.0583870" lon="-6.6589390">
        <ele>898.8</ele>
        <time>2019-08-16T12:59:45Z</time>
      </trkpt>
      <trkpt lat="42.0583620" lon="-6.6589770">
        <ele>898.8</ele>
        <time>2019-08-16T12:59:46Z</time>
      </trkpt>
      <trkpt lat="42.0583380" lon="-6.6590130">
        <ele>898.8</ele>
        <time>2019-08-16T12:59:47Z</time>
      </trkpt>
      <trkpt lat="42.0583130" lon="-6.6590480">
        <ele>898.7</ele>
        <time>2019-08-16T12:59:48Z</time>
      </trkpt>
      <trkpt lat="42.0582880" lon="-6.6590870">
        <ele>898.7</ele>
        <time>2019-08-16T12:59:49Z</time>
      </trkpt>
      <trkpt lat="42.0582600" lon="-6.6591310">
        <ele>898.7</ele>
        <time>2019-08-16T12:59:50Z</time>
      </trkpt>
      <trkpt lat="42.0582320" lon="-6.6591740">
        <ele>898.7</ele>
        <time>2019-08-16T12:59:51Z</time>
      </trkpt>
      <trkpt lat="42.0582030" lon="-6.6592140">
        <ele>898.7</ele>
        <time>2019-08-16T12:59:52Z</time>
      </trkpt>
      <trkpt lat="42.0581760" lon="-6.6592550">
        <ele>898.7</ele>
        <time>2019-08-16T12:59:53Z</time>
      </trkpt>
      <trkpt lat="42.0581480" lon="-6.6592920">
        <ele>898.7</ele>
        <time>2019-08-16T12:59:54Z</time>
      </trkpt>
      <trkpt lat="42.0581260" lon="-6.6593330">
        <ele>898.7</ele>
        <time>2019-08-16T12:59:55Z</time>
      </trkpt>
      <trkpt lat="42.0581020" lon="-6.6593760">
        <ele>898.7</ele>
        <time>2019-08-16T12:59:56Z</time>
      </trkpt>
      <trkpt lat="42.0580710" lon="-6.6594170">
        <ele>898.7</ele>
        <time>2019-08-16T12:59:57Z</time>
      </trkpt>
      <trkpt lat="42.0580350" lon="-6.6594590">
        <ele>898.7</ele>
        <time>2019-08-16T12:59:58Z</time>
      </trkpt>
      <trkpt lat="42.0580020" lon="-6.6595000">
        <ele>898.7</ele>
        <time>2019-08-16T12:59:59Z</time>
      </trkpt>
      <trkpt lat="42.0579710" lon="-6.6595420">
        <ele>898.7</ele>
        <time>2019-08-16T13:00:00Z</time>
      </trkpt>
      <trkpt lat="42.0579450" lon="-6.6595860">
        <ele>898.7</ele>
        <time>2019-08-16T13:00:01Z</time>
      </trkpt>
      <trkpt lat="42.0579180" lon="-6.6596310">
        <ele>898.7</ele>
        <time>2019-08-16T13:00:02Z</time>
      </trkpt>
      <trkpt lat="42.0578880" lon="-6.6596730">
        <ele>898.7</ele>
        <time>2019-08-16T13:00:03Z</time>
      </trkpt>
      <trkpt lat="42.0578560" lon="-6.6597150">
        <ele>898.8</ele>
        <time>2019-08-16T13:00:04Z</time>
      </trkpt>
      <trkpt lat="42.0578250" lon="-6.6597570">
        <ele>898.8</ele>
        <time>2019-08-16T13:00:05Z</time>
      </trkpt>
      <trkpt lat="42.0577930" lon="-6.6597990">
        <ele>898.8</ele>
        <time>2019-08-16T13:00:06Z</time>
      </trkpt>
      <trkpt lat="42.0577600" lon="-6.6598390">
        <ele>898.8</ele>
        <time>2019-08-16T13:00:07Z</time>
      </trkpt>
      <trkpt lat="42.0577260" lon="-6.6598790">
        <ele>898.8</ele>
        <time>2019-08-16T13:00:08Z</time>
      </trkpt>
      <trkpt lat="42.0576920" lon="-6.6599180">
        <ele>898.9</ele>
        <time>2019-08-16T13:00:09Z</time>
      </trkpt>
      <trkpt lat="42.0576640" lon="-6.6599570">
        <ele>898.9</ele>
        <time>2019-08-16T13:00:10Z</time>
      </trkpt>
      <trkpt lat="42.0576380" lon="-6.6599930">
        <ele>898.9</ele>
        <time>2019-08-16T13:00:11Z</time>
      </trkpt>
      <trkpt lat="42.0576140" lon="-6.6600300">
        <ele>898.9</ele>
        <time>2019-08-16T13:00:12Z</time>
      </trkpt>
      <trkpt lat="42.0575880" lon="-6.6600700">
        <ele>898.9</ele>
        <time>2019-08-16T13:00:13Z</time>
      </trkpt>
      <trkpt lat="42.0575620" lon="-6.6601200">
        <ele>899.0</ele>
        <time>2019-08-16T13:00:14Z</time>
      </trkpt>
      <trkpt lat="42.0575360" lon="-6.6601690">
        <ele>899.0</ele>
        <time>2019-08-16T13:00:15Z</time>
      </trkpt>
      <trkpt lat="42.0575060" lon="-6.6602140">
        <ele>899.0</ele>
        <time>2019-08-16T13:00:16Z</time>
      </trkpt>
      <trkpt lat="42.0574750" lon="-6.6602560">
        <ele>899.1</ele>
        <time>2019-08-16T13:00:17Z</time>
      </trkpt>
      <trkpt lat="42.0574450" lon="-6.6602960">
        <ele>899.1</ele>
        <time>2019-08-16T13:00:18Z</time>
      </trkpt>
      <trkpt lat="42.0574150" lon="-6.6603340">
        <ele>899.1</ele>
        <time>2019-08-16T13:00:19Z</time>
      </trkpt>
      <trkpt lat="42.0573870" lon="-6.6603680">
        <ele>899.1</ele>
        <time>2019-08-16T13:00:20Z</time>
      </trkpt>
      <trkpt lat="42.0573580" lon="-6.6603990">
        <ele>899.2</ele>
        <time>2019-08-16T13:00:21Z</time>
      </trkpt>
      <trkpt lat="42.0573270" lon="-6.6604280">
        <ele>899.2</ele>
        <time>2019-08-16T13:00:22Z</time>
      </trkpt>
      <trkpt lat="42.0572920" lon="-6.6604540">
        <ele>899.2</ele>
        <time>2019-08-16T13:00:23Z</time>
      </trkpt>
      <trkpt lat="42.0572510" lon="-6.6604750">
        <ele>899.2</ele>
        <time>2019-08-16T13:00:24Z</time>
      </trkpt>
      <trkpt lat="42.0571960" lon="-6.6604840">
        <ele>899.3</ele>
        <time>2019-08-16T13:00:25Z</time>
      </trkpt>
      <trkpt lat="42.0571490" lon="-6.6604910">
        <ele>899.3</ele>
        <time>2019-08-16T13:00:26Z</time>
      </trkpt>
      <trkpt lat="42.0571080" lon="-6.6604980">
        <ele>899.3</ele>
        <time>2019-08-16T13:00:27Z</time>
      </trkpt>
      <trkpt lat="42.0570740" lon="-6.6605120">
        <ele>899.3</ele>
        <time>2019-08-16T13:00:28Z</time>
      </trkpt>
      <trkpt lat="42.0570450" lon="-6.6605340">
        <ele>899.3</ele>
        <time>2019-08-16T13:00:29Z</time>
      </trkpt>
      <trkpt lat="42.0570150" lon="-6.6605600">
        <ele>899.3</ele>
        <time>2019-08-16T13:00:30Z</time>
      </trkpt>
      <trkpt lat="42.0569830" lon="-6.6605900">
        <ele>899.3</ele>
        <time>2019-08-16T13:00:31Z</time>
      </trkpt>
      <trkpt lat="42.0569510" lon="-6.6606270">
        <ele>899.3</ele>
        <time>2019-08-16T13:00:32Z</time>
      </trkpt>
      <trkpt lat="42.0569200" lon="-6.6606650">
        <ele>899.3</ele>
        <time>2019-08-16T13:00:33Z</time>
      </trkpt>
      <trkpt lat="42.0568870" lon="-6.6607020">
        <ele>899.3</ele>
        <time>2019-08-16T13:00:34Z</time>
      </trkpt>
      <trkpt lat="42.0568570" lon="-6.6607400">
        <ele>899.3</ele>
        <time>2019-08-16T13:00:35Z</time>
      </trkpt>
      <trkpt lat="42.0568260" lon="-6.6607740">
        <ele>899.3</ele>
        <time>2019-08-16T13:00:36Z</time>
      </trkpt>
      <trkpt lat="42.0567960" lon="-6.6608040">
        <ele>899.3</ele>
        <time>2019-08-16T13:00:37Z</time>
      </trkpt>
      <trkpt lat="42.0567650" lon="-6.6608310">
        <ele>899.3</ele>
        <time>2019-08-16T13:00:38Z</time>
      </trkpt>
      <trkpt lat="42.0567310" lon="-6.6608570">
        <ele>899.3</ele>
        <time>2019-08-16T13:00:39Z</time>
      </trkpt>
      <trkpt lat="42.0566960" lon="-6.6608840">
        <ele>899.3</ele>
        <time>2019-08-16T13:00:40Z</time>
      </trkpt>
      <trkpt lat="42.0566610" lon="-6.6609130">
        <ele>899.3</ele>
        <time>2019-08-16T13:00:41Z</time>
      </trkpt>
      <trkpt lat="42.0566240" lon="-6.6609420">
        <ele>899.3</ele>
        <time>2019-08-16T13:00:42Z</time>
      </trkpt>
      <trkpt lat="42.0565870" lon="-6.6609710">
        <ele>899.3</ele>
        <time>2019-08-16T13:00:43Z</time>
      </trkpt>
      <trkpt lat="42.0565510" lon="-6.6610010">
        <ele>899.3</ele>
        <time>2019-08-16T13:00:44Z</time>
      </trkpt>
      <trkpt lat="42.0565120" lon="-6.6610290">
        <ele>899.2</ele>
        <time>2019-08-16T13:00:45Z</time>
      </trkpt>
      <trkpt lat="42.0564730" lon="-6.6610560">
        <ele>899.2</ele>
        <time>2019-08-16T13:00:46Z</time>
      </trkpt>
      <trkpt lat="42.0564340" lon="-6.6610810">
        <ele>899.2</ele>
        <time>2019-08-16T13:00:47Z</time>
      </trkpt>
      <trkpt lat="42.0563970" lon="-6.6611100">
        <ele>899.2</ele>
        <time>2019-08-16T13:00:48Z</time>
      </trkpt>
      <trkpt lat="42.0563610" lon="-6.6611410">
        <ele>899.2</ele>
        <time>2019-08-16T13:00:49Z</time>
      </trkpt>
      <trkpt lat="42.0563230" lon="-6.6611730">
        <ele>899.1</ele>
        <time>2019-08-16T13:00:50Z</time>
      </trkpt>
      <trkpt lat="42.0562840" lon="-6.6612050">
        <ele>899.1</ele>
        <time>2019-08-16T13:00:51Z</time>
      </trkpt>
      <trkpt lat="42.0562460" lon="-6.6612400">
        <ele>899.1</ele>
        <time>2019-08-16T13:00:52Z</time>
      </trkpt>
      <trkpt lat="42.0562080" lon="-6.6612720">
        <ele>899.0</ele>
        <time>2019-08-16T13:00:53Z</time>
      </trkpt>
      <trkpt lat="42.0561700" lon="-6.6613040">
        <ele>899.0</ele>
        <time>2019-08-16T13:00:54Z</time>
      </trkpt>
      <trkpt lat="42.0561320" lon="-6.6613340">
        <ele>899.0</ele>
        <time>2019-08-16T13:00:55Z</time>
      </trkpt>
      <trkpt lat="42.0560970" lon="-6.6613660">
        <ele>899.0</ele>
        <time>2019-08-16T13:00:56Z</time>
      </trkpt>
      <trkpt lat="42.0560640" lon="-6.6613920">
        <ele>899.0</ele>
        <time>2019-08-16T13:00:57Z</time>
      </trkpt>
      <trkpt lat="42.0560290" lon="-6.6614120">
        <ele>898.9</ele>
        <time>2019-08-16T13:00:58Z</time>
      </trkpt>
      <trkpt lat="42.0559960" lon="-6.6614340">
        <ele>898.9</ele>
        <time>2019-08-16T13:00:59Z</time>
      </trkpt>
      <trkpt lat="42.0559650" lon="-6.6614520">
        <ele>898.9</ele>
        <time>2019-08-16T13:01:00Z</time>
      </trkpt>
      <trkpt lat="42.0559360" lon="-6.6614660">
        <ele>898.9</ele>
        <time>2019-08-16T13:01:01Z</time>
      </trkpt>
      <trkpt lat="42.0559050" lon="-6.6614830">
        <ele>898.9</ele>
        <time>2019-08-16T13:01:02Z</time>
      </trkpt>
      <trkpt lat="42.0558760" lon="-6.6615040">
        <ele>898.9</ele>
        <time>2019-08-16T13:01:03Z</time>
      </trkpt>
      <trkpt lat="42.0558460" lon="-6.6615290">
        <ele>898.9</ele>
        <time>2019-08-16T13:01:04Z</time>
      </trkpt>
      <trkpt lat="42.0558160" lon="-6.6615570">
        <ele>898.9</ele>
        <time>2019-08-16T13:01:05Z</time>
      </trkpt>
      <trkpt lat="42.0557830" lon="-6.6615810">
        <ele>898.8</ele>
        <time>2019-08-16T13:01:06Z</time>
      </trkpt>
      <trkpt lat="42.0557480" lon="-6.6616060">
        <ele>898.8</ele>
        <time>2019-08-16T13:01:07Z</time>
      </trkpt>
      <trkpt lat="42.0557130" lon="-6.6616340">
        <ele>898.8</ele>
        <time>2019-08-16T13:01:08Z</time>
      </trkpt>
      <trkpt lat="42.0556790" lon="-6.6616650">
        <ele>898.8</ele>
        <time>2019-08-16T13:01:09Z</time>
      </trkpt>
      <trkpt lat="42.0556450" lon="-6.6616940">
        <ele>898.8</ele>
        <time>2019-08-16T13:01:10Z</time>
      </trkpt>
      <trkpt lat="42.0556090" lon="-6.6617170">
        <ele>898.9</ele>
        <time>2019-08-16T13:01:11Z</time>
      </trkpt>
      <trkpt lat="42.0555720" lon="-6.6617410">
        <ele>898.9</ele>
        <time>2019-08-16T13:01:12Z</time>
      </trkpt>
      <trkpt lat="42.0555380" lon="-6.6617690">
        <ele>899.0</ele>
        <time>2019-08-16T13:01:13Z</time>
      </trkpt>
      <trkpt lat="42.0555040" lon="-6.6617960">
        <ele>899.0</ele>
        <time>2019-08-16T13:01:14Z</time>
      </trkpt>
      <trkpt lat="42.0554700" lon="-6.6618230">
        <ele>899.1</ele>
        <time>2019-08-16T13:01:15Z</time>
      </trkpt>
      <trkpt lat="42.0554350" lon="-6.6618510">
        <ele>899.1</ele>
        <time>2019-08-16T13:01:16Z</time>
      </trkpt>
      <trkpt lat="42.0553990" lon="-6.6618810">
        <ele>899.2</ele>
        <time>2019-08-16T13:01:17Z</time>
      </trkpt>
      <trkpt lat="42.0553630" lon="-6.6619100">
        <ele>899.2</ele>
        <time>2019-08-16T13:01:18Z</time>
      </trkpt>
      <trkpt lat="42.0553290" lon="-6.6619430">
        <ele>899.3</ele>
        <time>2019-08-16T13:01:19Z</time>
      </trkpt>
      <trkpt lat="42.0552940" lon="-6.6619770">
        <ele>899.3</ele>
        <time>2019-08-16T13:01:20Z</time>
      </trkpt>
      <trkpt lat="42.0552610" lon="-6.6620100">
        <ele>899.4</ele>
        <time>2019-08-16T13:01:21Z</time>
      </trkpt>
      <trkpt lat="42.0552280" lon="-6.6620390">
        <ele>899.4</ele>
        <time>2019-08-16T13:01:22Z</time>
      </trkpt>
      <trkpt lat="42.0552010" lon="-6.6620650">
        <ele>899.5</ele>
        <time>2019-08-16T13:01:23Z</time>
      </trkpt>
      <trkpt lat="42.0551830" lon="-6.6620870">
        <ele>899.5</ele>
        <time>2019-08-16T13:01:24Z</time>
      </trkpt>
      <trkpt lat="42.0551680" lon="-6.6621180">
        <ele>899.5</ele>
        <time>2019-08-16T13:01:26Z</time>
      </trkpt>
      <trkpt lat="42.0551690" lon="-6.6622190">
        <ele>899.6</ele>
        <time>2019-08-16T13:01:43Z</time>
      </trkpt>
      <trkpt lat="42.0551610" lon="-6.6622910">
        <ele>899.7</ele>
        <time>2019-08-16T13:01:45Z</time>
      </trkpt>
      <trkpt lat="42.0551560" lon="-6.6623330">
        <ele>899.7</ele>
        <time>2019-08-16T13:01:46Z</time>
      </trkpt>
      <trkpt lat="42.0551450" lon="-6.6623760">
        <ele>899.8</ele>
        <time>2019-08-16T13:01:47Z</time>
      </trkpt>
      <trkpt lat="42.0551270" lon="-6.6624150">
        <ele>899.8</ele>
        <time>2019-08-16T13:01:48Z</time>
      </trkpt>
      <trkpt lat="42.0551070" lon="-6.6624510">
        <ele>899.8</ele>
        <time>2019-08-16T13:01:49Z</time>
      </trkpt>
      <trkpt lat="42.0550850" lon="-6.6624860">
        <ele>899.9</ele>
        <time>2019-08-16T13:01:50Z</time>
      </trkpt>
      <trkpt lat="42.0550630" lon="-6.6625190">
        <ele>899.9</ele>
        <time>2019-08-16T13:01:51Z</time>
      </trkpt>
      <trkpt lat="42.0550410" lon="-6.6625480">
        <ele>899.9</ele>
        <time>2019-08-16T13:01:52Z</time>
      </trkpt>
      <trkpt lat="42.0550190" lon="-6.6625740">
        <ele>900.0</ele>
        <time>2019-08-16T13:01:53Z</time>
      </trkpt>
      <trkpt lat="42.0549980" lon="-6.6626010">
        <ele>900.0</ele>
        <time>2019-08-16T13:01:54Z</time>
      </trkpt>
      <trkpt lat="42.0549790" lon="-6.6626320">
        <ele>900.1</ele>
        <time>2019-08-16T13:01:55Z</time>
      </trkpt>
      <trkpt lat="42.0549600" lon="-6.6626670">
        <ele>900.1</ele>
        <time>2019-08-16T13:01:56Z</time>
      </trkpt>
      <trkpt lat="42.0549420" lon="-6.6627050">
        <ele>900.2</ele>
        <time>2019-08-16T13:01:57Z</time>
      </trkpt>
      <trkpt lat="42.0549210" lon="-6.6627440">
        <ele>900.2</ele>
        <time>2019-08-16T13:01:58Z</time>
      </trkpt>
      <trkpt lat="42.0549000" lon="-6.6627850">
        <ele>900.3</ele>
        <time>2019-08-16T13:01:59Z</time>
      </trkpt>
      <trkpt lat="42.0548790" lon="-6.6628280">
        <ele>900.3</ele>
        <time>2019-08-16T13:02:00Z</time>
      </trkpt>
      <trkpt lat="42.0548570" lon="-6.6628740">
        <ele>900.4</ele>
        <time>2019-08-16T13:02:01Z</time>
      </trkpt>
      <trkpt lat="42.0548360" lon="-6.6629200">
        <ele>900.4</ele>
        <time>2019-08-16T13:02:02Z</time>
      </trkpt>
      <trkpt lat="42.0548160" lon="-6.6629640">
        <ele>900.5</ele>
        <time>2019-08-16T13:02:03Z</time>
      </trkpt>
      <trkpt lat="42.0547960" lon="-6.6630090">
        <ele>900.5</ele>
        <time>2019-08-16T13:02:04Z</time>
      </trkpt>
      <trkpt lat="42.0547760" lon="-6.6630530">
        <ele>900.6</ele>
        <time>2019-08-16T13:02:05Z</time>
      </trkpt>
      <trkpt lat="42.0547570" lon="-6.6630940">
        <ele>900.6</ele>
        <time>2019-08-16T13:02:06Z</time>
      </trkpt>
      <trkpt lat="42.0547410" lon="-6.6631390">
        <ele>900.7</ele>
        <time>2019-08-16T13:02:07Z</time>
      </trkpt>
      <trkpt lat="42.0547250" lon="-6.6631850">
        <ele>900.7</ele>
        <time>2019-08-16T13:02:08Z</time>
      </trkpt>
      <trkpt lat="42.0547100" lon="-6.6632340">
        <ele>900.8</ele>
        <time>2019-08-16T13:02:09Z</time>
      </trkpt>
      <trkpt lat="42.0546960" lon="-6.6632830">
        <ele>900.8</ele>
        <time>2019-08-16T13:02:10Z</time>
      </trkpt>
      <trkpt lat="42.0546840" lon="-6.6633300">
        <ele>900.9</ele>
        <time>2019-08-16T13:02:11Z</time>
      </trkpt>
      <trkpt lat="42.0546700" lon="-6.6633790">
        <ele>900.9</ele>
        <time>2019-08-16T13:02:12Z</time>
      </trkpt>
      <trkpt lat="42.0546560" lon="-6.6634280">
        <ele>900.9</ele>
        <time>2019-08-16T13:02:13Z</time>
      </trkpt>
      <trkpt lat="42.0546450" lon="-6.6634760">
        <ele>901.0</ele>
        <time>2019-08-16T13:02:14Z</time>
      </trkpt>
      <trkpt lat="42.0546360" lon="-6.6635240">
        <ele>901.0</ele>
        <time>2019-08-16T13:02:15Z</time>
      </trkpt>
      <trkpt lat="42.0546330" lon="-6.6635680">
        <ele>901.1</ele>
        <time>2019-08-16T13:02:16Z</time>
      </trkpt>
      <trkpt lat="42.0546380" lon="-6.6636040">
        <ele>901.1</ele>
        <time>2019-08-16T13:02:17Z</time>
      </trkpt>
      <trkpt lat="42.0546640" lon="-6.6636620">
        <ele>901.2</ele>
        <time>2019-08-16T13:02:19Z</time>
      </trkpt>
      <trkpt lat="42.0546910" lon="-6.6637040">
        <ele>901.3</ele>
        <time>2019-08-16T13:02:21Z</time>
      </trkpt>
      <trkpt lat="42.0547240" lon="-6.6637420">
        <ele>901.4</ele>
        <time>2019-08-16T13:02:23Z</time>
      </trkpt>
      <trkpt lat="42.0547720" lon="-6.6637890">
        <ele>901.5</ele>
        <time>2019-08-16T13:02:25Z</time>
      </trkpt>
      <trkpt lat="42.0547980" lon="-6.6638130">
        <ele>901.6</ele>
        <time>2019-08-16T13:02:26Z</time>
      </trkpt>
      <trkpt lat="42.0548210" lon="-6.6638340">
        <ele>901.7</ele>
        <time>2019-08-16T13:02:27Z</time>
      </trkpt>
      <trkpt lat="42.0548390" lon="-6.6638630">
        <ele>901.7</ele>
        <time>2019-08-16T13:02:28Z</time>
      </trkpt>
      <trkpt lat="42.0548580" lon="-6.6638950">
        <ele>901.8</ele>
        <time>2019-08-16T13:02:29Z</time>
      </trkpt>
      <trkpt lat="42.0548850" lon="-6.6639290">
        <ele>901.9</ele>
        <time>2019-08-16T13:02:30Z</time>
      </trkpt>
      <trkpt lat="42.0549130" lon="-6.6639590">
        <ele>902.0</ele>
        <time>2019-08-16T13:02:31Z</time>
      </trkpt>
      <trkpt lat="42.0549430" lon="-6.6639900">
        <ele>902.0</ele>
        <time>2019-08-16T13:02:32Z</time>
      </trkpt>
      <trkpt lat="42.0549750" lon="-6.6640240">
        <ele>902.1</ele>
        <time>2019-08-16T13:02:33Z</time>
      </trkpt>
      <trkpt lat="42.0550060" lon="-6.6640560">
        <ele>902.2</ele>
        <time>2019-08-16T13:02:34Z</time>
      </trkpt>
      <trkpt lat="42.0550360" lon="-6.6640870">
        <ele>902.3</ele>
        <time>2019-08-16T13:02:35Z</time>
      </trkpt>
      <trkpt lat="42.0550640" lon="-6.6641190">
        <ele>902.3</ele>
        <time>2019-08-16T13:02:36Z</time>
      </trkpt>
      <trkpt lat="42.0550870" lon="-6.6641550">
        <ele>902.4</ele>
        <time>2019-08-16T13:02:37Z</time>
      </trkpt>
      <trkpt lat="42.0551060" lon="-6.6641950">
        <ele>902.5</ele>
        <time>2019-08-16T13:02:38Z</time>
      </trkpt>
      <trkpt lat="42.0551170" lon="-6.6642390">
        <ele>902.6</ele>
        <time>2019-08-16T13:02:39Z</time>
      </trkpt>
      <trkpt lat="42.0551170" lon="-6.6642850">
        <ele>902.7</ele>
        <time>2019-08-16T13:02:40Z</time>
      </trkpt>
      <trkpt lat="42.0551050" lon="-6.6643270">
        <ele>902.7</ele>
        <time>2019-08-16T13:02:41Z</time>
      </trkpt>
      <trkpt lat="42.0550880" lon="-6.6643670">
        <ele>902.7</ele>
        <time>2019-08-16T13:02:42Z</time>
      </trkpt>
      <trkpt lat="42.0550640" lon="-6.6644050">
        <ele>902.7</ele>
        <time>2019-08-16T13:02:43Z</time>
      </trkpt>
      <trkpt lat="42.0550360" lon="-6.6644420">
        <ele>902.7</ele>
        <time>2019-08-16T13:02:44Z</time>
      </trkpt>
      <trkpt lat="42.0550080" lon="-6.6644800">
        <ele>902.6</ele>
        <time>2019-08-16T13:02:45Z</time>
      </trkpt>
      <trkpt lat="42.0549780" lon="-6.6645180">
        <ele>902.6</ele>
        <time>2019-08-16T13:02:46Z</time>
      </trkpt>
      <trkpt lat="42.0549470" lon="-6.6645530">
        <ele>902.6</ele>
        <time>2019-08-16T13:02:47Z</time>
      </trkpt>
      <trkpt lat="42.0549150" lon="-6.6645880">
        <ele>902.5</ele>
        <time>2019-08-16T13:02:48Z</time>
      </trkpt>
      <trkpt lat="42.0548850" lon="-6.6646250">
        <ele>902.4</ele>
        <time>2019-08-16T13:02:49Z</time>
      </trkpt>
      <trkpt lat="42.0548560" lon="-6.6646650">
        <ele>902.4</ele>
        <time>2019-08-16T13:02:50Z</time>
      </trkpt>
      <trkpt lat="42.0548280" lon="-6.6647100">
        <ele>902.3</ele>
        <time>2019-08-16T13:02:51Z</time>
      </trkpt>
      <trkpt lat="42.0548020" lon="-6.6647600">
        <ele>902.3</ele>
        <time>2019-08-16T13:02:52Z</time>
      </trkpt>
      <trkpt lat="42.0547770" lon="-6.6648140">
        <ele>902.2</ele>
        <time>2019-08-16T13:02:53Z</time>
      </trkpt>
      <trkpt lat="42.0547570" lon="-6.6648690">
        <ele>902.2</ele>
        <time>2019-08-16T13:02:54Z</time>
      </trkpt>
      <trkpt lat="42.0547400" lon="-6.6649240">
        <ele>902.1</ele>
        <time>2019-08-16T13:02:55Z</time>
      </trkpt>
      <trkpt lat="42.0547210" lon="-6.6649800">
        <ele>902.1</ele>
        <time>2019-08-16T13:02:56Z</time>
      </trkpt>
      <trkpt lat="42.0547000" lon="-6.6650320">
        <ele>902.1</ele>
        <time>2019-08-16T13:02:57Z</time>
      </trkpt>
      <trkpt lat="42.0546770" lon="-6.6650830">
        <ele>902.0</ele>
        <time>2019-08-16T13:02:58Z</time>
      </trkpt>
      <trkpt lat="42.0546520" lon="-6.6651300">
        <ele>902.0</ele>
        <time>2019-08-16T13:02:59Z</time>
      </trkpt>
      <trkpt lat="42.0546250" lon="-6.6651780">
        <ele>902.0</ele>
        <time>2019-08-16T13:03:00Z</time>
      </trkpt>
      <trkpt lat="42.0546000" lon="-6.6652250">
        <ele>902.0</ele>
        <time>2019-08-16T13:03:01Z</time>
      </trkpt>
      <trkpt lat="42.0545780" lon="-6.6652740">
        <ele>902.0</ele>
        <time>2019-08-16T13:03:02Z</time>
      </trkpt>
      <trkpt lat="42.0545570" lon="-6.6653250">
        <ele>902.0</ele>
        <time>2019-08-16T13:03:03Z</time>
      </trkpt>
      <trkpt lat="42.0545370" lon="-6.6653770">
        <ele>902.0</ele>
        <time>2019-08-16T13:03:04Z</time>
      </trkpt>
      <trkpt lat="42.0545200" lon="-6.6654270">
        <ele>901.9</ele>
        <time>2019-08-16T13:03:05Z</time>
      </trkpt>
      <trkpt lat="42.0545030" lon="-6.6654780">
        <ele>901.9</ele>
        <time>2019-08-16T13:03:06Z</time>
      </trkpt>
      <trkpt lat="42.0544870" lon="-6.6655310">
        <ele>901.9</ele>
        <time>2019-08-16T13:03:07Z</time>
      </trkpt>
      <trkpt lat="42.0544710" lon="-6.6655890">
        <ele>901.9</ele>
        <time>2019-08-16T13:03:08Z</time>
      </trkpt>
      <trkpt lat="42.0544520" lon="-6.6656480">
        <ele>901.9</ele>
        <time>2019-08-16T13:03:09Z</time>
      </trkpt>
      <trkpt lat="42.0544330" lon="-6.6657040">
        <ele>901.9</ele>
        <time>2019-08-16T13:03:10Z</time>
      </trkpt>
      <trkpt lat="42.0544140" lon="-6.6657580">
        <ele>901.9</ele>
        <time>2019-08-16T13:03:11Z</time>
      </trkpt>
      <trkpt lat="42.0543950" lon="-6.6658110">
        <ele>901.9</ele>
        <time>2019-08-16T13:03:12Z</time>
      </trkpt>
      <trkpt lat="42.0543760" lon="-6.6658640">
        <ele>901.9</ele>
        <time>2019-08-16T13:03:13Z</time>
      </trkpt>
      <trkpt lat="42.0543570" lon="-6.6659190">
        <ele>901.9</ele>
        <time>2019-08-16T13:03:14Z</time>
      </trkpt>
      <trkpt lat="42.0543340" lon="-6.6659720">
        <ele>902.0</ele>
        <time>2019-08-16T13:03:15Z</time>
      </trkpt>
      <trkpt lat="42.0543110" lon="-6.6660260">
        <ele>902.0</ele>
        <time>2019-08-16T13:03:16Z</time>
      </trkpt>
      <trkpt lat="42.0542880" lon="-6.6660790">
        <ele>902.0</ele>
        <time>2019-08-16T13:03:17Z</time>
      </trkpt>
      <trkpt lat="42.0542670" lon="-6.6661310">
        <ele>902.0</ele>
        <time>2019-08-16T13:03:18Z</time>
      </trkpt>
      <trkpt lat="42.0542460" lon="-6.6661820">
        <ele>902.0</ele>
        <time>2019-08-16T13:03:19Z</time>
      </trkpt>
      <trkpt lat="42.0542240" lon="-6.6662340">
        <ele>902.0</ele>
        <time>2019-08-16T13:03:20Z</time>
      </trkpt>
      <trkpt lat="42.0542000" lon="-6.6662820">
        <ele>902.0</ele>
        <time>2019-08-16T13:03:21Z</time>
      </trkpt>
      <trkpt lat="42.0541720" lon="-6.6663260">
        <ele>902.0</ele>
        <time>2019-08-16T13:03:22Z</time>
      </trkpt>
      <trkpt lat="42.0541410" lon="-6.6663660">
        <ele>902.1</ele>
        <time>2019-08-16T13:03:23Z</time>
      </trkpt>
      <trkpt lat="42.0541090" lon="-6.6664040">
        <ele>902.1</ele>
        <time>2019-08-16T13:03:24Z</time>
      </trkpt>
      <trkpt lat="42.0540750" lon="-6.6664420">
        <ele>902.1</ele>
        <time>2019-08-16T13:03:25Z</time>
      </trkpt>
      <trkpt lat="42.0540410" lon="-6.6664800">
        <ele>902.1</ele>
        <time>2019-08-16T13:03:26Z</time>
      </trkpt>
      <trkpt lat="42.0540080" lon="-6.6665170">
        <ele>902.1</ele>
        <time>2019-08-16T13:03:27Z</time>
      </trkpt>
      <trkpt lat="42.0539740" lon="-6.6665550">
        <ele>902.2</ele>
        <time>2019-08-16T13:03:28Z</time>
      </trkpt>
      <trkpt lat="42.0539420" lon="-6.6665910">
        <ele>902.2</ele>
        <time>2019-08-16T13:03:29Z</time>
      </trkpt>
      <trkpt lat="42.0539110" lon="-6.6666270">
        <ele>902.2</ele>
        <time>2019-08-16T13:03:30Z</time>
      </trkpt>
      <trkpt lat="42.0538810" lon="-6.6666610">
        <ele>902.2</ele>
        <time>2019-08-16T13:03:31Z</time>
      </trkpt>
      <trkpt lat="42.0538510" lon="-6.6666940">
        <ele>902.2</ele>
        <time>2019-08-16T13:03:32Z</time>
      </trkpt>
      <trkpt lat="42.0538210" lon="-6.6667270">
        <ele>902.3</ele>
        <time>2019-08-16T13:03:33Z</time>
      </trkpt>
      <trkpt lat="42.0537900" lon="-6.6667600">
        <ele>902.3</ele>
        <time>2019-08-16T13:03:34Z</time>
      </trkpt>
      <trkpt lat="42.0537580" lon="-6.6667930">
        <ele>902.3</ele>
        <time>2019-08-16T13:03:35Z</time>
      </trkpt>
      <trkpt lat="42.0537230" lon="-6.6668260">
        <ele>902.3</ele>
        <time>2019-08-16T13:03:36Z</time>
      </trkpt>
      <trkpt lat="42.0536910" lon="-6.6668610">
        <ele>902.4</ele>
        <time>2019-08-16T13:03:37Z</time>
      </trkpt>
      <trkpt lat="42.0536590" lon="-6.6668960">
        <ele>902.4</ele>
        <time>2019-08-16T13:03:38Z</time>
      </trkpt>
      <trkpt lat="42.0536290" lon="-6.6669330">
        <ele>902.4</ele>
        <time>2019-08-16T13:03:39Z</time>
      </trkpt>
      <trkpt lat="42.0535990" lon="-6.6669750">
        <ele>902.4</ele>
        <time>2019-08-16T13:03:40Z</time>
      </trkpt>
      <trkpt lat="42.0535710" lon="-6.6670180">
        <ele>902.5</ele>
        <time>2019-08-16T13:03:41Z</time>
      </trkpt>
      <trkpt lat="42.0535420" lon="-6.6670630">
        <ele>902.5</ele>
        <time>2019-08-16T13:03:42Z</time>
      </trkpt>
      <trkpt lat="42.0535140" lon="-6.6671070">
        <ele>902.6</ele>
        <time>2019-08-16T13:03:43Z</time>
      </trkpt>
      <trkpt lat="42.0534860" lon="-6.6671510">
        <ele>902.6</ele>
        <time>2019-08-16T13:03:44Z</time>
      </trkpt>
      <trkpt lat="42.0534570" lon="-6.6671930">
        <ele>902.6</ele>
        <time>2019-08-16T13:03:45Z</time>
      </trkpt>
      <trkpt lat="42.0534280" lon="-6.6672340">
        <ele>902.7</ele>
        <time>2019-08-16T13:03:46Z</time>
      </trkpt>
      <trkpt lat="42.0534010" lon="-6.6672750">
        <ele>902.8</ele>
        <time>2019-08-16T13:03:47Z</time>
      </trkpt>
      <trkpt lat="42.0533730" lon="-6.6673160">
        <ele>902.8</ele>
        <time>2019-08-16T13:03:48Z</time>
      </trkpt>
      <trkpt lat="42.0533440" lon="-6.6673560">
        <ele>902.9</ele>
        <time>2019-08-16T13:03:49Z</time>
      </trkpt>
      <trkpt lat="42.0533170" lon="-6.6673970">
        <ele>902.9</ele>
        <time>2019-08-16T13:03:50Z</time>
      </trkpt>
      <trkpt lat="42.0532900" lon="-6.6674400">
        <ele>903.0</ele>
        <time>2019-08-16T13:03:51Z</time>
      </trkpt>
      <trkpt lat="42.0532630" lon="-6.6674840">
        <ele>903.0</ele>
        <time>2019-08-16T13:03:52Z</time>
      </trkpt>
      <trkpt lat="42.0532360" lon="-6.6675310">
        <ele>903.0</ele>
        <time>2019-08-16T13:03:53Z</time>
      </trkpt>
      <trkpt lat="42.0532080" lon="-6.6675800">
        <ele>903.1</ele>
        <time>2019-08-16T13:03:54Z</time>
      </trkpt>
      <trkpt lat="42.0531790" lon="-6.6676280">
        <ele>903.1</ele>
        <time>2019-08-16T13:03:55Z</time>
      </trkpt>
      <trkpt lat="42.0531520" lon="-6.6676710">
        <ele>903.2</ele>
        <time>2019-08-16T13:03:56Z</time>
      </trkpt>
      <trkpt lat="42.0531240" lon="-6.6677120">
        <ele>903.2</ele>
        <time>2019-08-16T13:03:57Z</time>
      </trkpt>
      <trkpt lat="42.0530950" lon="-6.6677550">
        <ele>903.2</ele>
        <time>2019-08-16T13:03:58Z</time>
      </trkpt>
      <trkpt lat="42.0530640" lon="-6.6677990">
        <ele>903.3</ele>
        <time>2019-08-16T13:03:59Z</time>
      </trkpt>
      <trkpt lat="42.0530330" lon="-6.6678430">
        <ele>903.3</ele>
        <time>2019-08-16T13:04:00Z</time>
      </trkpt>
      <trkpt lat="42.0530020" lon="-6.6678860">
        <ele>903.4</ele>
        <time>2019-08-16T13:04:01Z</time>
      </trkpt>
      <trkpt lat="42.0529710" lon="-6.6679270">
        <ele>903.4</ele>
        <time>2019-08-16T13:04:02Z</time>
      </trkpt>
      <trkpt lat="42.0529420" lon="-6.6679690">
        <ele>903.4</ele>
        <time>2019-08-16T13:04:03Z</time>
      </trkpt>
      <trkpt lat="42.0529130" lon="-6.6680110">
        <ele>903.5</ele>
        <time>2019-08-16T13:04:04Z</time>
      </trkpt>
      <trkpt lat="42.0528860" lon="-6.6680530">
        <ele>903.5</ele>
        <time>2019-08-16T13:04:05Z</time>
      </trkpt>
      <trkpt lat="42.0528590" lon="-6.6680980">
        <ele>903.5</ele>
        <time>2019-08-16T13:04:06Z</time>
      </trkpt>
      <trkpt lat="42.0528330" lon="-6.6681420">
        <ele>903.6</ele>
        <time>2019-08-16T13:04:07Z</time>
      </trkpt>
      <trkpt lat="42.0528080" lon="-6.6681850">
        <ele>903.6</ele>
        <time>2019-08-16T13:04:08Z</time>
      </trkpt>
      <trkpt lat="42.0527830" lon="-6.6682260">
        <ele>903.6</ele>
        <time>2019-08-16T13:04:09Z</time>
      </trkpt>
      <trkpt lat="42.0527570" lon="-6.6682670">
        <ele>903.7</ele>
        <time>2019-08-16T13:04:10Z</time>
      </trkpt>
      <trkpt lat="42.0527310" lon="-6.6683060">
        <ele>903.7</ele>
        <time>2019-08-16T13:04:11Z</time>
      </trkpt>
      <trkpt lat="42.0527060" lon="-6.6683450">
        <ele>903.8</ele>
        <time>2019-08-16T13:04:12Z</time>
      </trkpt>
      <trkpt lat="42.0526830" lon="-6.6683820">
        <ele>903.8</ele>
        <time>2019-08-16T13:04:13Z</time>
      </trkpt>
      <trkpt lat="42.0526620" lon="-6.6684160">
        <ele>903.9</ele>
        <time>2019-08-16T13:04:14Z</time>
      </trkpt>
      <trkpt lat="42.0526400" lon="-6.6684500">
        <ele>903.9</ele>
        <time>2019-08-16T13:04:15Z</time>
      </trkpt>
      <trkpt lat="42.0526140" lon="-6.6684840">
        <ele>903.9</ele>
        <time>2019-08-16T13:04:16Z</time>
      </trkpt>
      <trkpt lat="42.0525860" lon="-6.6685190">
        <ele>904.0</ele>
        <time>2019-08-16T13:04:17Z</time>
      </trkpt>
      <trkpt lat="42.0525580" lon="-6.6685560">
        <ele>904.0</ele>
        <time>2019-08-16T13:04:18Z</time>
      </trkpt>
      <trkpt lat="42.0525300" lon="-6.6685940">
        <ele>904.1</ele>
        <time>2019-08-16T13:04:19Z</time>
      </trkpt>
      <trkpt lat="42.0525010" lon="-6.6686340">
        <ele>904.1</ele>
        <time>2019-08-16T13:04:20Z</time>
      </trkpt>
      <trkpt lat="42.0524710" lon="-6.6686750">
        <ele>904.2</ele>
        <time>2019-08-16T13:04:21Z</time>
      </trkpt>
      <trkpt lat="42.0524430" lon="-6.6687150">
        <ele>904.2</ele>
        <time>2019-08-16T13:04:22Z</time>
      </trkpt>
      <trkpt lat="42.0524160" lon="-6.6687580">
        <ele>904.2</ele>
        <time>2019-08-16T13:04:23Z</time>
      </trkpt>
      <trkpt lat="42.0523900" lon="-6.6688050">
        <ele>904.3</ele>
        <time>2019-08-16T13:04:24Z</time>
      </trkpt>
      <trkpt lat="42.0523660" lon="-6.6688480">
        <ele>904.3</ele>
        <time>2019-08-16T13:04:25Z</time>
      </trkpt>
      <trkpt lat="42.0523460" lon="-6.6688900">
        <ele>904.3</ele>
        <time>2019-08-16T13:04:26Z</time>
      </trkpt>
      <trkpt lat="42.0523260" lon="-6.6689300">
        <ele>904.4</ele>
        <time>2019-08-16T13:04:27Z</time>
      </trkpt>
      <trkpt lat="42.0523050" lon="-6.6689710">
        <ele>904.4</ele>
        <time>2019-08-16T13:04:28Z</time>
      </trkpt>
      <trkpt lat="42.0522820" lon="-6.6690110">
        <ele>904.4</ele>
        <time>2019-08-16T13:04:29Z</time>
      </trkpt>
      <trkpt lat="42.0522610" lon="-6.6690530">
        <ele>904.5</ele>
        <time>2019-08-16T13:04:30Z</time>
      </trkpt>
      <trkpt lat="42.0522400" lon="-6.6690950">
        <ele>904.5</ele>
        <time>2019-08-16T13:04:31Z</time>
      </trkpt>
      <trkpt lat="42.0522180" lon="-6.6691360">
        <ele>904.6</ele>
        <time>2019-08-16T13:04:32Z</time>
      </trkpt>
      <trkpt lat="42.0521950" lon="-6.6691770">
        <ele>904.6</ele>
        <time>2019-08-16T13:04:33Z</time>
      </trkpt>
      <trkpt lat="42.0521740" lon="-6.6692210">
        <ele>904.6</ele>
        <time>2019-08-16T13:04:34Z</time>
      </trkpt>
      <trkpt lat="42.0521500" lon="-6.6692650">
        <ele>904.7</ele>
        <time>2019-08-16T13:04:35Z</time>
      </trkpt>
      <trkpt lat="42.0521250" lon="-6.6693070">
        <ele>904.8</ele>
        <time>2019-08-16T13:04:36Z</time>
      </trkpt>
      <trkpt lat="42.0521010" lon="-6.6693500">
        <ele>904.8</ele>
        <time>2019-08-16T13:04:37Z</time>
      </trkpt>
      <trkpt lat="42.0520780" lon="-6.6693960">
        <ele>904.9</ele>
        <time>2019-08-16T13:04:38Z</time>
      </trkpt>
      <trkpt lat="42.0520550" lon="-6.6694420">
        <ele>905.0</ele>
        <time>2019-08-16T13:04:39Z</time>
      </trkpt>
      <trkpt lat="42.0520330" lon="-6.6694860">
        <ele>905.0</ele>
        <time>2019-08-16T13:04:40Z</time>
      </trkpt>
      <trkpt lat="42.0520150" lon="-6.6695250">
        <ele>905.1</ele>
        <time>2019-08-16T13:04:41Z</time>
      </trkpt>
      <trkpt lat="42.0519990" lon="-6.6695570">
        <ele>905.2</ele>
        <time>2019-08-16T13:04:42Z</time>
      </trkpt>
      <trkpt lat="42.0519870" lon="-6.6695840">
        <ele>905.2</ele>
        <time>2019-08-16T13:04:43Z</time>
      </trkpt>
      <trkpt lat="42.0519650" lon="-6.6696350">
        <ele>905.4</ele>
        <time>2019-08-16T13:04:45Z</time>
      </trkpt>
      <trkpt lat="42.0519400" lon="-6.6696900">
        <ele>905.5</ele>
        <time>2019-08-16T13:04:47Z</time>
      </trkpt>
      <trkpt lat="42.0519070" lon="-6.6697500">
        <ele>905.8</ele>
        <time>2019-08-16T13:04:49Z</time>
      </trkpt>
      <trkpt lat="42.0518840" lon="-6.6697810">
        <ele>905.9</ele>
        <time>2019-08-16T13:04:50Z</time>
      </trkpt>
      <trkpt lat="42.0518580" lon="-6.6698130">
        <ele>906.0</ele>
        <time>2019-08-16T13:04:51Z</time>
      </trkpt>
      <trkpt lat="42.0518310" lon="-6.6698450">
        <ele>906.1</ele>
        <time>2019-08-16T13:04:52Z</time>
      </trkpt>
      <trkpt lat="42.0518040" lon="-6.6698780">
        <ele>906.2</ele>
        <time>2019-08-16T13:04:53Z</time>
      </trkpt>
      <trkpt lat="42.0517780" lon="-6.6699150">
        <ele>906.3</ele>
        <time>2019-08-16T13:04:54Z</time>
      </trkpt>
      <trkpt lat="42.0517540" lon="-6.6699560">
        <ele>906.4</ele>
        <time>2019-08-16T13:04:55Z</time>
      </trkpt>
      <trkpt lat="42.0517300" lon="-6.6699980">
        <ele>906.5</ele>
        <time>2019-08-16T13:04:56Z</time>
      </trkpt>
      <trkpt lat="42.0517030" lon="-6.6700400">
        <ele>906.6</ele>
        <time>2019-08-16T13:04:57Z</time>
      </trkpt>
      <trkpt lat="42.0516770" lon="-6.6700820">
        <ele>906.6</ele>
        <time>2019-08-16T13:04:58Z</time>
      </trkpt>
      <trkpt lat="42.0516500" lon="-6.6701230">
        <ele>906.6</ele>
        <time>2019-08-16T13:04:59Z</time>
      </trkpt>
      <trkpt lat="42.0516250" lon="-6.6701640">
        <ele>906.6</ele>
        <time>2019-08-16T13:05:00Z</time>
      </trkpt>
      <trkpt lat="42.0516010" lon="-6.6702060">
        <ele>906.7</ele>
        <time>2019-08-16T13:05:01Z</time>
      </trkpt>
      <trkpt lat="42.0515840" lon="-6.6702500">
        <ele>906.7</ele>
        <time>2019-08-16T13:05:02Z</time>
      </trkpt>
      <trkpt lat="42.0515670" lon="-6.6702990">
        <ele>906.7</ele>
        <time>2019-08-16T13:05:03Z</time>
      </trkpt>
      <trkpt lat="42.0515520" lon="-6.6703500">
        <ele>906.7</ele>
        <time>2019-08-16T13:05:04Z</time>
      </trkpt>
      <trkpt lat="42.0515400" lon="-6.6704020">
        <ele>906.6</ele>
        <time>2019-08-16T13:05:05Z</time>
      </trkpt>
      <trkpt lat="42.0515270" lon="-6.6704530">
        <ele>906.7</ele>
        <time>2019-08-16T13:05:06Z</time>
      </trkpt>
      <trkpt lat="42.0515140" lon="-6.6705030">
        <ele>906.7</ele>
        <time>2019-08-16T13:05:07Z</time>
      </trkpt>
      <trkpt lat="42.0515010" lon="-6.6705510">
        <ele>906.7</ele>
        <time>2019-08-16T13:05:08Z</time>
      </trkpt>
      <trkpt lat="42.0514880" lon="-6.6705980">
        <ele>906.8</ele>
        <time>2019-08-16T13:05:09Z</time>
      </trkpt>
      <trkpt lat="42.0514760" lon="-6.6706440">
        <ele>906.8</ele>
        <time>2019-08-16T13:05:10Z</time>
      </trkpt>
      <trkpt lat="42.0514640" lon="-6.6706890">
        <ele>906.8</ele>
        <time>2019-08-16T13:05:11Z</time>
      </trkpt>
      <trkpt lat="42.0514500" lon="-6.6707330">
        <ele>906.9</ele>
        <time>2019-08-16T13:05:12Z</time>
      </trkpt>
      <trkpt lat="42.0514350" lon="-6.6707750">
        <ele>907.0</ele>
        <time>2019-08-16T13:05:13Z</time>
      </trkpt>
      <trkpt lat="42.0514190" lon="-6.6708170">
        <ele>907.0</ele>
        <time>2019-08-16T13:05:14Z</time>
      </trkpt>
      <trkpt lat="42.0514010" lon="-6.6708590">
        <ele>907.0</ele>
        <time>2019-08-16T13:05:15Z</time>
      </trkpt>
      <trkpt lat="42.0513830" lon="-6.6709030">
        <ele>907.0</ele>
        <time>2019-08-16T13:05:16Z</time>
      </trkpt>
      <trkpt lat="42.0513690" lon="-6.6709500">
        <ele>907.1</ele>
        <time>2019-08-16T13:05:17Z</time>
      </trkpt>
      <trkpt lat="42.0513580" lon="-6.6709990">
        <ele>907.2</ele>
        <time>2019-08-16T13:05:18Z</time>
      </trkpt>
      <trkpt lat="42.0513470" lon="-6.6710520">
        <ele>907.3</ele>
        <time>2019-08-16T13:05:19Z</time>
      </trkpt>
      <trkpt lat="42.0513330" lon="-6.6711040">
        <ele>907.4</ele>
        <time>2019-08-16T13:05:20Z</time>
      </trkpt>
      <trkpt lat="42.0513170" lon="-6.6711530">
        <ele>907.6</ele>
        <time>2019-08-16T13:05:21Z</time>
      </trkpt>
      <trkpt lat="42.0513020" lon="-6.6712020">
        <ele>907.7</ele>
        <time>2019-08-16T13:05:22Z</time>
      </trkpt>
      <trkpt lat="42.0512890" lon="-6.6712540">
        <ele>907.8</ele>
        <time>2019-08-16T13:05:23Z</time>
      </trkpt>
      <trkpt lat="42.0512760" lon="-6.6713050">
        <ele>907.9</ele>
        <time>2019-08-16T13:05:24Z</time>
      </trkpt>
      <trkpt lat="42.0512650" lon="-6.6713530">
        <ele>908.0</ele>
        <time>2019-08-16T13:05:25Z</time>
      </trkpt>
      <trkpt lat="42.0512540" lon="-6.6713990">
        <ele>908.0</ele>
        <time>2019-08-16T13:05:26Z</time>
      </trkpt>
      <trkpt lat="42.0512440" lon="-6.6714470">
        <ele>908.1</ele>
        <time>2019-08-16T13:05:27Z</time>
      </trkpt>
      <trkpt lat="42.0512360" lon="-6.6714980">
        <ele>908.2</ele>
        <time>2019-08-16T13:05:28Z</time>
      </trkpt>
      <trkpt lat="42.0512280" lon="-6.6715470">
        <ele>908.3</ele>
        <time>2019-08-16T13:05:29Z</time>
      </trkpt>
      <trkpt lat="42.0512190" lon="-6.6715930">
        <ele>908.3</ele>
        <time>2019-08-16T13:05:30Z</time>
      </trkpt>
      <trkpt lat="42.0512110" lon="-6.6716390">
        <ele>908.4</ele>
        <time>2019-08-16T13:05:31Z</time>
      </trkpt>
      <trkpt lat="42.0512030" lon="-6.6716790">
        <ele>908.4</ele>
        <time>2019-08-16T13:05:32Z</time>
      </trkpt>
      <trkpt lat="42.0511970" lon="-6.6717140">
        <ele>908.5</ele>
        <time>2019-08-16T13:05:33Z</time>
      </trkpt>
      <trkpt lat="42.0511820" lon="-6.6717780">
        <ele>908.5</ele>
        <time>2019-08-16T13:05:35Z</time>
      </trkpt>
      <trkpt lat="42.0511670" lon="-6.6718390">
        <ele>908.6</ele>
        <time>2019-08-16T13:05:37Z</time>
      </trkpt>
      <trkpt lat="42.0511550" lon="-6.6719020">
        <ele>908.7</ele>
        <time>2019-08-16T13:05:39Z</time>
      </trkpt>
      <trkpt lat="42.0511460" lon="-6.6719660">
        <ele>908.8</ele>
        <time>2019-08-16T13:05:41Z</time>
      </trkpt>
      <trkpt lat="42.0511330" lon="-6.6720300">
        <ele>908.9</ele>
        <time>2019-08-16T13:05:43Z</time>
      </trkpt>
      <trkpt lat="42.0511180" lon="-6.6721030">
        <ele>909.1</ele>
        <time>2019-08-16T13:05:45Z</time>
      </trkpt>
      <trkpt lat="42.0511120" lon="-6.6721440">
        <ele>909.1</ele>
        <time>2019-08-16T13:05:46Z</time>
      </trkpt>
      <trkpt lat="42.0511040" lon="-6.6721850">
        <ele>909.2</ele>
        <time>2019-08-16T13:05:47Z</time>
      </trkpt>
      <trkpt lat="42.0510950" lon="-6.6722260">
        <ele>909.4</ele>
        <time>2019-08-16T13:05:48Z</time>
      </trkpt>
      <trkpt lat="42.0510870" lon="-6.6722690">
        <ele>909.5</ele>
        <time>2019-08-16T13:05:49Z</time>
      </trkpt>
      <trkpt lat="42.0510780" lon="-6.6723110">
        <ele>909.6</ele>
        <time>2019-08-16T13:05:50Z</time>
      </trkpt>
      <trkpt lat="42.0510690" lon="-6.6723530">
        <ele>909.8</ele>
        <time>2019-08-16T13:05:51Z</time>
      </trkpt>
      <trkpt lat="42.0510600" lon="-6.6723970">
        <ele>909.9</ele>
        <time>2019-08-16T13:05:52Z</time>
      </trkpt>
      <trkpt lat="42.0510510" lon="-6.6724430">
        <ele>910.1</ele>
        <time>2019-08-16T13:05:53Z</time>
      </trkpt>
      <trkpt lat="42.0510420" lon="-6.6724910">
        <ele>910.3</ele>
        <time>2019-08-16T13:05:54Z</time>
      </trkpt>
      <trkpt lat="42.0510320" lon="-6.6725380">
        <ele>910.5</ele>
        <time>2019-08-16T13:05:55Z</time>
      </trkpt>
      <trkpt lat="42.0510240" lon="-6.6725830">
        <ele>910.7</ele>
        <time>2019-08-16T13:05:56Z</time>
      </trkpt>
      <trkpt lat="42.0510140" lon="-6.6726230">
        <ele>910.9</ele>
        <time>2019-08-16T13:05:57Z</time>
      </trkpt>
      <trkpt lat="42.0510030" lon="-6.6726600">
        <ele>911.1</ele>
        <time>2019-08-16T13:05:58Z</time>
      </trkpt>
      <trkpt lat="42.0509930" lon="-6.6726970">
        <ele>911.3</ele>
        <time>2019-08-16T13:05:59Z</time>
      </trkpt>
      <trkpt lat="42.0509840" lon="-6.6727360">
        <ele>911.4</ele>
        <time>2019-08-16T13:06:00Z</time>
      </trkpt>
      <trkpt lat="42.0509770" lon="-6.6727760">
        <ele>911.6</ele>
        <time>2019-08-16T13:06:01Z</time>
      </trkpt>
      <trkpt lat="42.0509690" lon="-6.6728180">
        <ele>911.7</ele>
        <time>2019-08-16T13:06:02Z</time>
      </trkpt>
      <trkpt lat="42.0509610" lon="-6.6728570">
        <ele>911.9</ele>
        <time>2019-08-16T13:06:03Z</time>
      </trkpt>
      <trkpt lat="42.0509510" lon="-6.6728920">
        <ele>912.0</ele>
        <time>2019-08-16T13:06:04Z</time>
      </trkpt>
      <trkpt lat="42.0509380" lon="-6.6729250">
        <ele>912.1</ele>
        <time>2019-08-16T13:06:05Z</time>
      </trkpt>
      <trkpt lat="42.0509240" lon="-6.6729610">
        <ele>912.2</ele>
        <time>2019-08-16T13:06:06Z</time>
      </trkpt>
      <trkpt lat="42.0509100" lon="-6.6730030">
        <ele>912.3</ele>
        <time>2019-08-16T13:06:07Z</time>
      </trkpt>
      <trkpt lat="42.0508980" lon="-6.6730470">
        <ele>912.4</ele>
        <time>2019-08-16T13:06:08Z</time>
      </trkpt>
      <trkpt lat="42.0508870" lon="-6.6730900">
        <ele>912.5</ele>
        <time>2019-08-16T13:06:09Z</time>
      </trkpt>
      <trkpt lat="42.0508770" lon="-6.6731300">
        <ele>912.6</ele>
        <time>2019-08-16T13:06:10Z</time>
      </trkpt>
      <trkpt lat="42.0508700" lon="-6.6731690">
        <ele>912.6</ele>
        <time>2019-08-16T13:06:11Z</time>
      </trkpt>
      <trkpt lat="42.0508630" lon="-6.6732090">
        <ele>912.7</ele>
        <time>2019-08-16T13:06:12Z</time>
      </trkpt>
      <trkpt lat="42.0508550" lon="-6.6732520">
        <ele>912.8</ele>
        <time>2019-08-16T13:06:13Z</time>
      </trkpt>
      <trkpt lat="42.0508450" lon="-6.6732970">
        <ele>912.8</ele>
        <time>2019-08-16T13:06:14Z</time>
      </trkpt>
      <trkpt lat="42.0508350" lon="-6.6733430">
        <ele>912.9</ele>
        <time>2019-08-16T13:06:15Z</time>
      </trkpt>
      <trkpt lat="42.0508250" lon="-6.6733920">
        <ele>913.0</ele>
        <time>2019-08-16T13:06:16Z</time>
      </trkpt>
      <trkpt lat="42.0508160" lon="-6.6734400">
        <ele>913.1</ele>
        <time>2019-08-16T13:06:17Z</time>
      </trkpt>
      <trkpt lat="42.0508080" lon="-6.6734860">
        <ele>913.1</ele>
        <time>2019-08-16T13:06:18Z</time>
      </trkpt>
      <trkpt lat="42.0507990" lon="-6.6735300">
        <ele>913.2</ele>
        <time>2019-08-16T13:06:19Z</time>
      </trkpt>
      <trkpt lat="42.0507890" lon="-6.6735760">
        <ele>913.3</ele>
        <time>2019-08-16T13:06:20Z</time>
      </trkpt>
      <trkpt lat="42.0507790" lon="-6.6736240">
        <ele>913.3</ele>
        <time>2019-08-16T13:06:21Z</time>
      </trkpt>
      <trkpt lat="42.0507680" lon="-6.6736730">
        <ele>913.4</ele>
        <time>2019-08-16T13:06:22Z</time>
      </trkpt>
      <trkpt lat="42.0507570" lon="-6.6737220">
        <ele>913.5</ele>
        <time>2019-08-16T13:06:23Z</time>
      </trkpt>
      <trkpt lat="42.0507470" lon="-6.6737730">
        <ele>913.6</ele>
        <time>2019-08-16T13:06:24Z</time>
      </trkpt>
      <trkpt lat="42.0507380" lon="-6.6738250">
        <ele>913.6</ele>
        <time>2019-08-16T13:06:25Z</time>
      </trkpt>
      <trkpt lat="42.0507280" lon="-6.6738770">
        <ele>913.7</ele>
        <time>2019-08-16T13:06:26Z</time>
      </trkpt>
      <trkpt lat="42.0507180" lon="-6.6739290">
        <ele>913.8</ele>
        <time>2019-08-16T13:06:27Z</time>
      </trkpt>
      <trkpt lat="42.0507080" lon="-6.6739810">
        <ele>913.9</ele>
        <time>2019-08-16T13:06:28Z</time>
      </trkpt>
      <trkpt lat="42.0506990" lon="-6.6740330">
        <ele>913.9</ele>
        <time>2019-08-16T13:06:29Z</time>
      </trkpt>
      <trkpt lat="42.0506890" lon="-6.6740840">
        <ele>914.0</ele>
        <time>2019-08-16T13:06:30Z</time>
      </trkpt>
      <trkpt lat="42.0506780" lon="-6.6741370">
        <ele>914.1</ele>
        <time>2019-08-16T13:06:31Z</time>
      </trkpt>
      <trkpt lat="42.0506670" lon="-6.6741890">
        <ele>914.2</ele>
        <time>2019-08-16T13:06:32Z</time>
      </trkpt>
      <trkpt lat="42.0506560" lon="-6.6742420">
        <ele>914.2</ele>
        <time>2019-08-16T13:06:33Z</time>
      </trkpt>
      <trkpt lat="42.0506460" lon="-6.6742960">
        <ele>914.3</ele>
        <time>2019-08-16T13:06:34Z</time>
      </trkpt>
      <trkpt lat="42.0506360" lon="-6.6743490">
        <ele>914.3</ele>
        <time>2019-08-16T13:06:35Z</time>
      </trkpt>
      <trkpt lat="42.0506280" lon="-6.6744040">
        <ele>914.4</ele>
        <time>2019-08-16T13:06:36Z</time>
      </trkpt>
      <trkpt lat="42.0506200" lon="-6.6744580">
        <ele>914.5</ele>
        <time>2019-08-16T13:06:37Z</time>
      </trkpt>
      <trkpt lat="42.0506130" lon="-6.6745110">
        <ele>914.5</ele>
        <time>2019-08-16T13:06:38Z</time>
      </trkpt>
      <trkpt lat="42.0506070" lon="-6.6745620">
        <ele>914.6</ele>
        <time>2019-08-16T13:06:39Z</time>
      </trkpt>
      <trkpt lat="42.0506020" lon="-6.6746110">
        <ele>914.7</ele>
        <time>2019-08-16T13:06:40Z</time>
      </trkpt>
      <trkpt lat="42.0505990" lon="-6.6746570">
        <ele>914.7</ele>
        <time>2019-08-16T13:06:41Z</time>
      </trkpt>
      <trkpt lat="42.0505940" lon="-6.6746980">
        <ele>914.8</ele>
        <time>2019-08-16T13:06:42Z</time>
      </trkpt>
      <trkpt lat="42.0505880" lon="-6.6747360">
        <ele>914.8</ele>
        <time>2019-08-16T13:06:43Z</time>
      </trkpt>
      <trkpt lat="42.0505810" lon="-6.6747720">
        <ele>914.9</ele>
        <time>2019-08-16T13:06:44Z</time>
      </trkpt>
      <trkpt lat="42.0505740" lon="-6.6748060">
        <ele>914.9</ele>
        <time>2019-08-16T13:06:45Z</time>
      </trkpt>
      <trkpt lat="42.0505610" lon="-6.6748740">
        <ele>915.0</ele>
        <time>2019-08-16T13:06:47Z</time>
      </trkpt>
      <trkpt lat="42.0505540" lon="-6.6749370">
        <ele>915.1</ele>
        <time>2019-08-16T13:06:49Z</time>
      </trkpt>
      <trkpt lat="42.0505480" lon="-6.6749870">
        <ele>915.1</ele>
        <time>2019-08-16T13:06:51Z</time>
      </trkpt>
      <trkpt lat="42.0505410" lon="-6.6750250">
        <ele>915.2</ele>
        <time>2019-08-16T13:06:53Z</time>
      </trkpt>
      <trkpt lat="42.0505540" lon="-6.6750690">
        <ele>915.2</ele>
        <time>2019-08-16T13:06:56Z</time>
      </trkpt>
      <trkpt lat="42.0506000" lon="-6.6750670">
        <ele>915.3</ele>
        <time>2019-08-16T13:06:58Z</time>
      </trkpt>
      <trkpt lat="42.0506570" lon="-6.6750240">
        <ele>915.4</ele>
        <time>2019-08-16T13:07:00Z</time>
      </trkpt>
      <trkpt lat="42.0506870" lon="-6.6749950">
        <ele>915.5</ele>
        <time>2019-08-16T13:07:01Z</time>
      </trkpt>
      <trkpt lat="42.0507210" lon="-6.6749640">
        <ele>915.5</ele>
        <time>2019-08-16T13:07:02Z</time>
      </trkpt>
      <trkpt lat="42.0507570" lon="-6.6749320">
        <ele>915.6</ele>
        <time>2019-08-16T13:07:03Z</time>
      </trkpt>
      <trkpt lat="42.0507930" lon="-6.6748990">
        <ele>915.6</ele>
        <time>2019-08-16T13:07:04Z</time>
      </trkpt>
      <trkpt lat="42.0508280" lon="-6.6748690">
        <ele>915.7</ele>
        <time>2019-08-16T13:07:05Z</time>
      </trkpt>
      <trkpt lat="42.0508630" lon="-6.6748480">
        <ele>915.7</ele>
        <time>2019-08-16T13:07:06Z</time>
      </trkpt>
      <trkpt lat="42.0508960" lon="-6.6748400">
        <ele>915.8</ele>
        <time>2019-08-16T13:07:07Z</time>
      </trkpt>
      <trkpt lat="42.0509260" lon="-6.6748430">
        <ele>915.8</ele>
        <time>2019-08-16T13:07:08Z</time>
      </trkpt>
      <trkpt lat="42.0509500" lon="-6.6748550">
        <ele>916.1</ele>
        <time>2019-08-16T13:07:09Z</time>
      </trkpt>
      <trkpt lat="42.0509700" lon="-6.6749030">
        <ele>916.2</ele>
        <time>2019-08-16T13:07:11Z</time>
      </trkpt>
      <trkpt lat="42.0509650" lon="-6.6749700">
        <ele>916.3</ele>
        <time>2019-08-16T13:07:13Z</time>
      </trkpt>
      <trkpt lat="42.0509550" lon="-6.6750500">
        <ele>916.3</ele>
        <time>2019-08-16T13:07:15Z</time>
      </trkpt>
      <trkpt lat="42.0509530" lon="-6.6750930">
        <ele>916.2</ele>
        <time>2019-08-16T13:07:16Z</time>
      </trkpt>
      <trkpt lat="42.0509500" lon="-6.6751370">
        <ele>916.2</ele>
        <time>2019-08-16T13:07:17Z</time>
      </trkpt>
      <trkpt lat="42.0509450" lon="-6.6751790">
        <ele>916.2</ele>
        <time>2019-08-16T13:07:18Z</time>
      </trkpt>
      <trkpt lat="42.0509380" lon="-6.6752190">
        <ele>916.2</ele>
        <time>2019-08-16T13:07:19Z</time>
      </trkpt>
      <trkpt lat="42.0509340" lon="-6.6752570">
        <ele>916.2</ele>
        <time>2019-08-16T13:07:20Z</time>
      </trkpt>
      <trkpt lat="42.0509290" lon="-6.6752940">
        <ele>916.2</ele>
        <time>2019-08-16T13:07:21Z</time>
      </trkpt>
      <trkpt lat="42.0509260" lon="-6.6753300">
        <ele>916.1</ele>
        <time>2019-08-16T13:07:22Z</time>
      </trkpt>
      <trkpt lat="42.0509320" lon="-6.6754000">
        <ele>916.1</ele>
        <time>2019-08-16T13:07:24Z</time>
      </trkpt>
      <trkpt lat="42.0509410" lon="-6.6754420">
        <ele>916.1</ele>
        <time>2019-08-16T13:07:25Z</time>
      </trkpt>
      <trkpt lat="42.0509480" lon="-6.6754920">
        <ele>916.1</ele>
        <time>2019-08-16T13:07:26Z</time>
      </trkpt>
      <trkpt lat="42.0509460" lon="-6.6755460">
        <ele>916.1</ele>
        <time>2019-08-16T13:07:27Z</time>
      </trkpt>
      <trkpt lat="42.0509380" lon="-6.6756010">
        <ele>916.1</ele>
        <time>2019-08-16T13:07:28Z</time>
      </trkpt>
      <trkpt lat="42.0509280" lon="-6.6756570">
        <ele>916.0</ele>
        <time>2019-08-16T13:07:29Z</time>
      </trkpt>
      <trkpt lat="42.0509160" lon="-6.6757130">
        <ele>916.0</ele>
        <time>2019-08-16T13:07:30Z</time>
      </trkpt>
      <trkpt lat="42.0509030" lon="-6.6757700">
        <ele>915.9</ele>
        <time>2019-08-16T13:07:31Z</time>
      </trkpt>
      <trkpt lat="42.0508900" lon="-6.6758270">
        <ele>915.9</ele>
        <time>2019-08-16T13:07:32Z</time>
      </trkpt>
      <trkpt lat="42.0508780" lon="-6.6758850">
        <ele>915.8</ele>
        <time>2019-08-16T13:07:33Z</time>
      </trkpt>
      <trkpt lat="42.0508660" lon="-6.6759460">
        <ele>915.8</ele>
        <time>2019-08-16T13:07:34Z</time>
      </trkpt>
      <trkpt lat="42.0508540" lon="-6.6760070">
        <ele>915.7</ele>
        <time>2019-08-16T13:07:35Z</time>
      </trkpt>
      <trkpt lat="42.0508410" lon="-6.6760680">
        <ele>915.6</ele>
        <time>2019-08-16T13:07:36Z</time>
      </trkpt>
      <trkpt lat="42.0508290" lon="-6.6761300">
        <ele>915.6</ele>
        <time>2019-08-16T13:07:37Z</time>
      </trkpt>
      <trkpt lat="42.0508170" lon="-6.6761940">
        <ele>915.6</ele>
        <time>2019-08-16T13:07:38Z</time>
      </trkpt>
      <trkpt lat="42.0508050" lon="-6.6762590">
        <ele>915.5</ele>
        <time>2019-08-16T13:07:39Z</time>
      </trkpt>
      <trkpt lat="42.0507920" lon="-6.6763230">
        <ele>915.5</ele>
        <time>2019-08-16T13:07:40Z</time>
      </trkpt>
      <trkpt lat="42.0507800" lon="-6.6763890">
        <ele>915.5</ele>
        <time>2019-08-16T13:07:41Z</time>
      </trkpt>
      <trkpt lat="42.0507670" lon="-6.6764570">
        <ele>915.5</ele>
        <time>2019-08-16T13:07:42Z</time>
      </trkpt>
      <trkpt lat="42.0507530" lon="-6.6765240">
        <ele>915.5</ele>
        <time>2019-08-16T13:07:43Z</time>
      </trkpt>
      <trkpt lat="42.0507390" lon="-6.6765910">
        <ele>915.5</ele>
        <time>2019-08-16T13:07:44Z</time>
      </trkpt>
      <trkpt lat="42.0507260" lon="-6.6766590">
        <ele>915.5</ele>
        <time>2019-08-16T13:07:45Z</time>
      </trkpt>
      <trkpt lat="42.0507140" lon="-6.6767290">
        <ele>915.5</ele>
        <time>2019-08-16T13:07:46Z</time>
      </trkpt>
      <trkpt lat="42.0507020" lon="-6.6768000">
        <ele>915.5</ele>
        <time>2019-08-16T13:07:47Z</time>
      </trkpt>
      <trkpt lat="42.0506890" lon="-6.6768700">
        <ele>915.5</ele>
        <time>2019-08-16T13:07:48Z</time>
      </trkpt>
      <trkpt lat="42.0506760" lon="-6.6769390">
        <ele>915.5</ele>
        <time>2019-08-16T13:07:49Z</time>
      </trkpt>
      <trkpt lat="42.0506630" lon="-6.6770100">
        <ele>915.5</ele>
        <time>2019-08-16T13:07:50Z</time>
      </trkpt>
      <trkpt lat="42.0506490" lon="-6.6770810">
        <ele>915.4</ele>
        <time>2019-08-16T13:07:51Z</time>
      </trkpt>
      <trkpt lat="42.0506340" lon="-6.6771500">
        <ele>915.4</ele>
        <time>2019-08-16T13:07:52Z</time>
      </trkpt>
      <trkpt lat="42.0506200" lon="-6.6772160">
        <ele>915.4</ele>
        <time>2019-08-16T13:07:53Z</time>
      </trkpt>
      <trkpt lat="42.0506080" lon="-6.6772820">
        <ele>915.4</ele>
        <time>2019-08-16T13:07:54Z</time>
      </trkpt>
      <trkpt lat="42.0505960" lon="-6.6773490">
        <ele>915.4</ele>
        <time>2019-08-16T13:07:55Z</time>
      </trkpt>
      <trkpt lat="42.0505820" lon="-6.6774170">
        <ele>915.3</ele>
        <time>2019-08-16T13:07:56Z</time>
      </trkpt>
      <trkpt lat="42.0505680" lon="-6.6774850">
        <ele>915.3</ele>
        <time>2019-08-16T13:07:57Z</time>
      </trkpt>
      <trkpt lat="42.0505540" lon="-6.6775540">
        <ele>915.2</ele>
        <time>2019-08-16T13:07:58Z</time>
      </trkpt>
      <trkpt lat="42.0505420" lon="-6.6776230">
        <ele>915.2</ele>
        <time>2019-08-16T13:07:59Z</time>
      </trkpt>
      <trkpt lat="42.0505280" lon="-6.6776940">
        <ele>915.2</ele>
        <time>2019-08-16T13:08:00Z</time>
      </trkpt>
      <trkpt lat="42.0505170" lon="-6.6777640">
        <ele>915.1</ele>
        <time>2019-08-16T13:08:01Z</time>
      </trkpt>
      <trkpt lat="42.0505040" lon="-6.6778330">
        <ele>915.1</ele>
        <time>2019-08-16T13:08:02Z</time>
      </trkpt>
      <trkpt lat="42.0504900" lon="-6.6779010">
        <ele>915.0</ele>
        <time>2019-08-16T13:08:03Z</time>
      </trkpt>
      <trkpt lat="42.0504770" lon="-6.6779690">
        <ele>915.0</ele>
        <time>2019-08-16T13:08:04Z</time>
      </trkpt>
      <trkpt lat="42.0504640" lon="-6.6780360">
        <ele>915.0</ele>
        <time>2019-08-16T13:08:05Z</time>
      </trkpt>
      <trkpt lat="42.0504490" lon="-6.6781040">
        <ele>915.0</ele>
        <time>2019-08-16T13:08:06Z</time>
      </trkpt>
      <trkpt lat="42.0504350" lon="-6.6781710">
        <ele>915.0</ele>
        <time>2019-08-16T13:08:07Z</time>
      </trkpt>
      <trkpt lat="42.0504220" lon="-6.6782380">
        <ele>915.0</ele>
        <time>2019-08-16T13:08:08Z</time>
      </trkpt>
      <trkpt lat="42.0504100" lon="-6.6783040">
        <ele>915.0</ele>
        <time>2019-08-16T13:08:09Z</time>
      </trkpt>
      <trkpt lat="42.0503980" lon="-6.6783680">
        <ele>915.0</ele>
        <time>2019-08-16T13:08:10Z</time>
      </trkpt>
      <trkpt lat="42.0503850" lon="-6.6784310">
        <ele>915.0</ele>
        <time>2019-08-16T13:08:11Z</time>
      </trkpt>
      <trkpt lat="42.0503730" lon="-6.6784950">
        <ele>915.1</ele>
        <time>2019-08-16T13:08:12Z</time>
      </trkpt>
      <trkpt lat="42.0503610" lon="-6.6785570">
        <ele>915.1</ele>
        <time>2019-08-16T13:08:13Z</time>
      </trkpt>
      <trkpt lat="42.0503500" lon="-6.6786190">
        <ele>915.1</ele>
        <time>2019-08-16T13:08:14Z</time>
      </trkpt>
      <trkpt lat="42.0503400" lon="-6.6786800">
        <ele>915.1</ele>
        <time>2019-08-16T13:08:15Z</time>
      </trkpt>
      <trkpt lat="42.0503280" lon="-6.6787410">
        <ele>915.1</ele>
        <time>2019-08-16T13:08:16Z</time>
      </trkpt>
      <trkpt lat="42.0503160" lon="-6.6788040">
        <ele>915.1</ele>
        <time>2019-08-16T13:08:17Z</time>
      </trkpt>
      <trkpt lat="42.0503040" lon="-6.6788660">
        <ele>915.1</ele>
        <time>2019-08-16T13:08:18Z</time>
      </trkpt>
      <trkpt lat="42.0502930" lon="-6.6789300">
        <ele>915.1</ele>
        <time>2019-08-16T13:08:19Z</time>
      </trkpt>
      <trkpt lat="42.0502820" lon="-6.6789920">
        <ele>915.0</ele>
        <time>2019-08-16T13:08:20Z</time>
      </trkpt>
      <trkpt lat="42.0502700" lon="-6.6790550">
        <ele>915.1</ele>
        <time>2019-08-16T13:08:21Z</time>
      </trkpt>
      <trkpt lat="42.0502580" lon="-6.6791170">
        <ele>915.2</ele>
        <time>2019-08-16T13:08:22Z</time>
      </trkpt>
      <trkpt lat="42.0502450" lon="-6.6791780">
        <ele>915.2</ele>
        <time>2019-08-16T13:08:23Z</time>
      </trkpt>
      <trkpt lat="42.0502340" lon="-6.6792380">
        <ele>915.3</ele>
        <time>2019-08-16T13:08:24Z</time>
      </trkpt>
      <trkpt lat="42.0502240" lon="-6.6793000">
        <ele>915.4</ele>
        <time>2019-08-16T13:08:25Z</time>
      </trkpt>
      <trkpt lat="42.0502140" lon="-6.6793630">
        <ele>915.5</ele>
        <time>2019-08-16T13:08:26Z</time>
      </trkpt>
      <trkpt lat="42.0502040" lon="-6.6794260">
        <ele>915.5</ele>
        <time>2019-08-16T13:08:27Z</time>
      </trkpt>
      <trkpt lat="42.0501930" lon="-6.6794910">
        <ele>915.6</ele>
        <time>2019-08-16T13:08:28Z</time>
      </trkpt>
      <trkpt lat="42.0501820" lon="-6.6795540">
        <ele>915.6</ele>
        <time>2019-08-16T13:08:29Z</time>
      </trkpt>
      <trkpt lat="42.0501710" lon="-6.6796160">
        <ele>915.5</ele>
        <time>2019-08-16T13:08:30Z</time>
      </trkpt>
      <trkpt lat="42.0501590" lon="-6.6796770">
        <ele>915.5</ele>
        <time>2019-08-16T13:08:31Z</time>
      </trkpt>
      <trkpt lat="42.0501470" lon="-6.6797370">
        <ele>915.4</ele>
        <time>2019-08-16T13:08:32Z</time>
      </trkpt>
      <trkpt lat="42.0501370" lon="-6.6797950">
        <ele>915.4</ele>
        <time>2019-08-16T13:08:33Z</time>
      </trkpt>
      <trkpt lat="42.0501260" lon="-6.6798550">
        <ele>915.3</ele>
        <time>2019-08-16T13:08:34Z</time>
      </trkpt>
      <trkpt lat="42.0501150" lon="-6.6799170">
        <ele>915.3</ele>
        <time>2019-08-16T13:08:35Z</time>
      </trkpt>
      <trkpt lat="42.0501060" lon="-6.6799810">
        <ele>915.3</ele>
        <time>2019-08-16T13:08:36Z</time>
      </trkpt>
      <trkpt lat="42.0500940" lon="-6.6800440">
        <ele>915.3</ele>
        <time>2019-08-16T13:08:37Z</time>
      </trkpt>
      <trkpt lat="42.0500840" lon="-6.6801050">
        <ele>915.3</ele>
        <time>2019-08-16T13:08:38Z</time>
      </trkpt>
      <trkpt lat="42.0500740" lon="-6.6801640">
        <ele>915.3</ele>
        <time>2019-08-16T13:08:39Z</time>
      </trkpt>
      <trkpt lat="42.0500630" lon="-6.6802200">
        <ele>915.3</ele>
        <time>2019-08-16T13:08:40Z</time>
      </trkpt>
      <trkpt lat="42.0500540" lon="-6.6802740">
        <ele>915.3</ele>
        <time>2019-08-16T13:08:41Z</time>
      </trkpt>
      <trkpt lat="42.0500440" lon="-6.6803330">
        <ele>915.3</ele>
        <time>2019-08-16T13:08:42Z</time>
      </trkpt>
      <trkpt lat="42.0500330" lon="-6.6803930">
        <ele>915.3</ele>
        <time>2019-08-16T13:08:43Z</time>
      </trkpt>
      <trkpt lat="42.0500220" lon="-6.6804550">
        <ele>915.3</ele>
        <time>2019-08-16T13:08:44Z</time>
      </trkpt>
      <trkpt lat="42.0500110" lon="-6.6805170">
        <ele>915.4</ele>
        <time>2019-08-16T13:08:45Z</time>
      </trkpt>
      <trkpt lat="42.0500000" lon="-6.6805790">
        <ele>915.4</ele>
        <time>2019-08-16T13:08:46Z</time>
      </trkpt>
      <trkpt lat="42.0499880" lon="-6.6806400">
        <ele>915.4</ele>
        <time>2019-08-16T13:08:47Z</time>
      </trkpt>
      <trkpt lat="42.0499770" lon="-6.6807000">
        <ele>915.4</ele>
        <time>2019-08-16T13:08:48Z</time>
      </trkpt>
      <trkpt lat="42.0499660" lon="-6.6807600">
        <ele>915.4</ele>
        <time>2019-08-16T13:08:49Z</time>
      </trkpt>
      <trkpt lat="42.0499550" lon="-6.6808200">
        <ele>915.5</ele>
        <time>2019-08-16T13:08:50Z</time>
      </trkpt>
      <trkpt lat="42.0499420" lon="-6.6808780">
        <ele>915.5</ele>
        <time>2019-08-16T13:08:51Z</time>
      </trkpt>
      <trkpt lat="42.0499310" lon="-6.6809350">
        <ele>915.5</ele>
        <time>2019-08-16T13:08:52Z</time>
      </trkpt>
      <trkpt lat="42.0499200" lon="-6.6809910">
        <ele>915.6</ele>
        <time>2019-08-16T13:08:53Z</time>
      </trkpt>
      <trkpt lat="42.0499100" lon="-6.6810460">
        <ele>915.6</ele>
        <time>2019-08-16T13:08:54Z</time>
      </trkpt>
      <trkpt lat="42.0498990" lon="-6.6811010">
        <ele>915.7</ele>
        <time>2019-08-16T13:08:55Z</time>
      </trkpt>
      <trkpt lat="42.0498890" lon="-6.6811570">
        <ele>915.7</ele>
        <time>2019-08-16T13:08:56Z</time>
      </trkpt>
      <trkpt lat="42.0498780" lon="-6.6812140">
        <ele>915.8</ele>
        <time>2019-08-16T13:08:57Z</time>
      </trkpt>
      <trkpt lat="42.0498690" lon="-6.6812730">
        <ele>915.8</ele>
        <time>2019-08-16T13:08:58Z</time>
      </trkpt>
      <trkpt lat="42.0498580" lon="-6.6813310">
        <ele>915.9</ele>
        <time>2019-08-16T13:08:59Z</time>
      </trkpt>
      <trkpt lat="42.0498470" lon="-6.6813900">
        <ele>915.9</ele>
        <time>2019-08-16T13:09:00Z</time>
      </trkpt>
      <trkpt lat="42.0498360" lon="-6.6814490">
        <ele>916.0</ele>
        <time>2019-08-16T13:09:01Z</time>
      </trkpt>
      <trkpt lat="42.0498240" lon="-6.6815070">
        <ele>916.1</ele>
        <time>2019-08-16T13:09:02Z</time>
      </trkpt>
      <trkpt lat="42.0498130" lon="-6.6815660">
        <ele>916.2</ele>
        <time>2019-08-16T13:09:03Z</time>
      </trkpt>
      <trkpt lat="42.0498000" lon="-6.6816220">
        <ele>916.3</ele>
        <time>2019-08-16T13:09:04Z</time>
      </trkpt>
      <trkpt lat="42.0497890" lon="-6.6816770">
        <ele>916.4</ele>
        <time>2019-08-16T13:09:05Z</time>
      </trkpt>
      <trkpt lat="42.0497790" lon="-6.6817310">
        <ele>916.6</ele>
        <time>2019-08-16T13:09:06Z</time>
      </trkpt>
      <trkpt lat="42.0497700" lon="-6.6817840">
        <ele>916.7</ele>
        <time>2019-08-16T13:09:07Z</time>
      </trkpt>
      <trkpt lat="42.0497600" lon="-6.6818390">
        <ele>916.8</ele>
        <time>2019-08-16T13:09:08Z</time>
      </trkpt>
      <trkpt lat="42.0497510" lon="-6.6818940">
        <ele>916.9</ele>
        <time>2019-08-16T13:09:09Z</time>
      </trkpt>
      <trkpt lat="42.0497420" lon="-6.6819490">
        <ele>917.0</ele>
        <time>2019-08-16T13:09:10Z</time>
      </trkpt>
      <trkpt lat="42.0497320" lon="-6.6820050">
        <ele>917.0</ele>
        <time>2019-08-16T13:09:11Z</time>
      </trkpt>
      <trkpt lat="42.0497210" lon="-6.6820610">
        <ele>917.1</ele>
        <time>2019-08-16T13:09:12Z</time>
      </trkpt>
      <trkpt lat="42.0497120" lon="-6.6821160">
        <ele>917.2</ele>
        <time>2019-08-16T13:09:13Z</time>
      </trkpt>
      <trkpt lat="42.0497010" lon="-6.6821730">
        <ele>917.3</ele>
        <time>2019-08-16T13:09:14Z</time>
      </trkpt>
      <trkpt lat="42.0496910" lon="-6.6822270">
        <ele>917.3</ele>
        <time>2019-08-16T13:09:15Z</time>
      </trkpt>
      <trkpt lat="42.0496820" lon="-6.6822790">
        <ele>917.3</ele>
        <time>2019-08-16T13:09:16Z</time>
      </trkpt>
      <trkpt lat="42.0496730" lon="-6.6823300">
        <ele>917.3</ele>
        <time>2019-08-16T13:09:17Z</time>
      </trkpt>
      <trkpt lat="42.0496630" lon="-6.6823830">
        <ele>917.2</ele>
        <time>2019-08-16T13:09:18Z</time>
      </trkpt>
      <trkpt lat="42.0496540" lon="-6.6824380">
        <ele>917.1</ele>
        <time>2019-08-16T13:09:19Z</time>
      </trkpt>
      <trkpt lat="42.0496440" lon="-6.6824940">
        <ele>917.1</ele>
        <time>2019-08-16T13:09:20Z</time>
      </trkpt>
      <trkpt lat="42.0496330" lon="-6.6825490">
        <ele>917.0</ele>
        <time>2019-08-16T13:09:21Z</time>
      </trkpt>
      <trkpt lat="42.0496230" lon="-6.6826030">
        <ele>917.0</ele>
        <time>2019-08-16T13:09:22Z</time>
      </trkpt>
      <trkpt lat="42.0496130" lon="-6.6826600">
        <ele>916.9</ele>
        <time>2019-08-16T13:09:23Z</time>
      </trkpt>
      <trkpt lat="42.0496020" lon="-6.6827170">
        <ele>916.9</ele>
        <time>2019-08-16T13:09:24Z</time>
      </trkpt>
      <trkpt lat="42.0495920" lon="-6.6827730">
        <ele>916.8</ele>
        <time>2019-08-16T13:09:25Z</time>
      </trkpt>
      <trkpt lat="42.0495820" lon="-6.6828310">
        <ele>916.8</ele>
        <time>2019-08-16T13:09:26Z</time>
      </trkpt>
      <trkpt lat="42.0495730" lon="-6.6828900">
        <ele>916.8</ele>
        <time>2019-08-16T13:09:27Z</time>
      </trkpt>
      <trkpt lat="42.0495620" lon="-6.6829510">
        <ele>916.8</ele>
        <time>2019-08-16T13:09:28Z</time>
      </trkpt>
      <trkpt lat="42.0495480" lon="-6.6830130">
        <ele>916.8</ele>
        <time>2019-08-16T13:09:29Z</time>
      </trkpt>
      <trkpt lat="42.0495350" lon="-6.6830750">
        <ele>916.7</ele>
        <time>2019-08-16T13:09:30Z</time>
      </trkpt>
      <trkpt lat="42.0495230" lon="-6.6831380">
        <ele>916.7</ele>
        <time>2019-08-16T13:09:31Z</time>
      </trkpt>
      <trkpt lat="42.0495100" lon="-6.6832000">
        <ele>916.6</ele>
        <time>2019-08-16T13:09:32Z</time>
      </trkpt>
      <trkpt lat="42.0494990" lon="-6.6832600">
        <ele>916.5</ele>
        <time>2019-08-16T13:09:33Z</time>
      </trkpt>
      <trkpt lat="42.0494880" lon="-6.6833200">
        <ele>916.5</ele>
        <time>2019-08-16T13:09:34Z</time>
      </trkpt>
      <trkpt lat="42.0494780" lon="-6.6833790">
        <ele>916.4</ele>
        <time>2019-08-16T13:09:35Z</time>
      </trkpt>
      <trkpt lat="42.0494680" lon="-6.6834400">
        <ele>916.3</ele>
        <time>2019-08-16T13:09:36Z</time>
      </trkpt>
      <trkpt lat="42.0494570" lon="-6.6835020">
        <ele>916.3</ele>
        <time>2019-08-16T13:09:37Z</time>
      </trkpt>
      <trkpt lat="42.0494460" lon="-6.6835680">
        <ele>916.2</ele>
        <time>2019-08-16T13:09:38Z</time>
      </trkpt>
      <trkpt lat="42.0494340" lon="-6.6836370">
        <ele>916.2</ele>
        <time>2019-08-16T13:09:39Z</time>
      </trkpt>
      <trkpt lat="42.0494210" lon="-6.6837070">
        <ele>916.1</ele>
        <time>2019-08-16T13:09:40Z</time>
      </trkpt>
      <trkpt lat="42.0494070" lon="-6.6837760">
        <ele>916.0</ele>
        <time>2019-08-16T13:09:41Z</time>
      </trkpt>
      <trkpt lat="42.0493940" lon="-6.6838430">
        <ele>915.9</ele>
        <time>2019-08-16T13:09:42Z</time>
      </trkpt>
      <trkpt lat="42.0493800" lon="-6.6839090">
        <ele>915.9</ele>
        <time>2019-08-16T13:09:43Z</time>
      </trkpt>
      <trkpt lat="42.0493680" lon="-6.6839740">
        <ele>915.8</ele>
        <time>2019-08-16T13:09:44Z</time>
      </trkpt>
      <trkpt lat="42.0493560" lon="-6.6840370">
        <ele>915.8</ele>
        <time>2019-08-16T13:09:45Z</time>
      </trkpt>
      <trkpt lat="42.0493450" lon="-6.6841010">
        <ele>915.8</ele>
        <time>2019-08-16T13:09:46Z</time>
      </trkpt>
      <trkpt lat="42.0493350" lon="-6.6841670">
        <ele>915.7</ele>
        <time>2019-08-16T13:09:47Z</time>
      </trkpt>
      <trkpt lat="42.0493240" lon="-6.6842350">
        <ele>915.7</ele>
        <time>2019-08-16T13:09:48Z</time>
      </trkpt>
      <trkpt lat="42.0493110" lon="-6.6843030">
        <ele>915.7</ele>
        <time>2019-08-16T13:09:49Z</time>
      </trkpt>
      <trkpt lat="42.0492980" lon="-6.6843720">
        <ele>915.6</ele>
        <time>2019-08-16T13:09:50Z</time>
      </trkpt>
      <trkpt lat="42.0492860" lon="-6.6844410">
        <ele>915.6</ele>
        <time>2019-08-16T13:09:51Z</time>
      </trkpt>
      <trkpt lat="42.0492730" lon="-6.6845120">
        <ele>915.6</ele>
        <time>2019-08-16T13:09:52Z</time>
      </trkpt>
      <trkpt lat="42.0492590" lon="-6.6845850">
        <ele>915.6</ele>
        <time>2019-08-16T13:09:53Z</time>
      </trkpt>
      <trkpt lat="42.0492450" lon="-6.6846580">
        <ele>915.6</ele>
        <time>2019-08-16T13:09:54Z</time>
      </trkpt>
      <trkpt lat="42.0492300" lon="-6.6847330">
        <ele>915.6</ele>
        <time>2019-08-16T13:09:55Z</time>
      </trkpt>
      <trkpt lat="42.0492170" lon="-6.6848090">
        <ele>915.5</ele>
        <time>2019-08-16T13:09:56Z</time>
      </trkpt>
      <trkpt lat="42.0492020" lon="-6.6848840">
        <ele>915.4</ele>
        <time>2019-08-16T13:09:57Z</time>
      </trkpt>
      <trkpt lat="42.0491870" lon="-6.6849580">
        <ele>915.4</ele>
        <time>2019-08-16T13:09:58Z</time>
      </trkpt>
      <trkpt lat="42.0491720" lon="-6.6850290">
        <ele>915.3</ele>
        <time>2019-08-16T13:09:59Z</time>
      </trkpt>
      <trkpt lat="42.0491580" lon="-6.6851010">
        <ele>915.2</ele>
        <time>2019-08-16T13:10:00Z</time>
      </trkpt>
      <trkpt lat="42.0491450" lon="-6.6851700">
        <ele>915.2</ele>
        <time>2019-08-16T13:10:01Z</time>
      </trkpt>
      <trkpt lat="42.0491340" lon="-6.6852400">
        <ele>915.2</ele>
        <time>2019-08-16T13:10:02Z</time>
      </trkpt>
      <trkpt lat="42.0491230" lon="-6.6853080">
        <ele>915.1</ele>
        <time>2019-08-16T13:10:03Z</time>
      </trkpt>
      <trkpt lat="42.0491130" lon="-6.6853750">
        <ele>915.1</ele>
        <time>2019-08-16T13:10:04Z</time>
      </trkpt>
      <trkpt lat="42.0491010" lon="-6.6854400">
        <ele>915.1</ele>
        <time>2019-08-16T13:10:05Z</time>
      </trkpt>
      <trkpt lat="42.0490890" lon="-6.6855060">
        <ele>915.1</ele>
        <time>2019-08-16T13:10:06Z</time>
      </trkpt>
      <trkpt lat="42.0490770" lon="-6.6855730">
        <ele>915.1</ele>
        <time>2019-08-16T13:10:07Z</time>
      </trkpt>
      <trkpt lat="42.0490640" lon="-6.6856410">
        <ele>915.1</ele>
        <time>2019-08-16T13:10:08Z</time>
      </trkpt>
      <trkpt lat="42.0490520" lon="-6.6857090">
        <ele>915.1</ele>
        <time>2019-08-16T13:10:09Z</time>
      </trkpt>
      <trkpt lat="42.0490400" lon="-6.6857780">
        <ele>915.0</ele>
        <time>2019-08-16T13:10:10Z</time>
      </trkpt>
      <trkpt lat="42.0490270" lon="-6.6858470">
        <ele>914.9</ele>
        <time>2019-08-16T13:10:11Z</time>
      </trkpt>
      <trkpt lat="42.0490150" lon="-6.6859170">
        <ele>914.8</ele>
        <time>2019-08-16T13:10:12Z</time>
      </trkpt>
      <trkpt lat="42.0490010" lon="-6.6859870">
        <ele>914.7</ele>
        <time>2019-08-16T13:10:13Z</time>
      </trkpt>
      <trkpt lat="42.0489870" lon="-6.6860590">
        <ele>914.6</ele>
        <time>2019-08-16T13:10:14Z</time>
      </trkpt>
      <trkpt lat="42.0489740" lon="-6.6861280">
        <ele>914.6</ele>
        <time>2019-08-16T13:10:15Z</time>
      </trkpt>
      <trkpt lat="42.0489610" lon="-6.6861940">
        <ele>914.5</ele>
        <time>2019-08-16T13:10:16Z</time>
      </trkpt>
      <trkpt lat="42.0489490" lon="-6.6862590">
        <ele>914.5</ele>
        <time>2019-08-16T13:10:17Z</time>
      </trkpt>
      <trkpt lat="42.0489370" lon="-6.6863240">
        <ele>914.5</ele>
        <time>2019-08-16T13:10:18Z</time>
      </trkpt>
      <trkpt lat="42.0489270" lon="-6.6863880">
        <ele>914.5</ele>
        <time>2019-08-16T13:10:19Z</time>
      </trkpt>
      <trkpt lat="42.0489170" lon="-6.6864540">
        <ele>914.5</ele>
        <time>2019-08-16T13:10:20Z</time>
      </trkpt>
      <trkpt lat="42.0489050" lon="-6.6865210">
        <ele>914.5</ele>
        <time>2019-08-16T13:10:21Z</time>
      </trkpt>
      <trkpt lat="42.0488930" lon="-6.6865890">
        <ele>914.4</ele>
        <time>2019-08-16T13:10:22Z</time>
      </trkpt>
      <trkpt lat="42.0488800" lon="-6.6866590">
        <ele>914.4</ele>
        <time>2019-08-16T13:10:23Z</time>
      </trkpt>
      <trkpt lat="42.0488670" lon="-6.6867280">
        <ele>914.4</ele>
        <time>2019-08-16T13:10:24Z</time>
      </trkpt>
      <trkpt lat="42.0488550" lon="-6.6867980">
        <ele>914.4</ele>
        <time>2019-08-16T13:10:25Z</time>
      </trkpt>
      <trkpt lat="42.0488430" lon="-6.6868690">
        <ele>914.4</ele>
        <time>2019-08-16T13:10:26Z</time>
      </trkpt>
      <trkpt lat="42.0488300" lon="-6.6869390">
        <ele>914.5</ele>
        <time>2019-08-16T13:10:27Z</time>
      </trkpt>
      <trkpt lat="42.0488180" lon="-6.6870080">
        <ele>914.5</ele>
        <time>2019-08-16T13:10:28Z</time>
      </trkpt>
      <trkpt lat="42.0488060" lon="-6.6870790">
        <ele>914.5</ele>
        <time>2019-08-16T13:10:29Z</time>
      </trkpt>
      <trkpt lat="42.0487920" lon="-6.6871500">
        <ele>914.6</ele>
        <time>2019-08-16T13:10:30Z</time>
      </trkpt>
      <trkpt lat="42.0487770" lon="-6.6872210">
        <ele>914.6</ele>
        <time>2019-08-16T13:10:31Z</time>
      </trkpt>
      <trkpt lat="42.0487610" lon="-6.6872910">
        <ele>914.7</ele>
        <time>2019-08-16T13:10:32Z</time>
      </trkpt>
      <trkpt lat="42.0487470" lon="-6.6873580">
        <ele>914.8</ele>
        <time>2019-08-16T13:10:33Z</time>
      </trkpt>
      <trkpt lat="42.0487330" lon="-6.6874230">
        <ele>914.8</ele>
        <time>2019-08-16T13:10:34Z</time>
      </trkpt>
      <trkpt lat="42.0487200" lon="-6.6874890">
        <ele>914.9</ele>
        <time>2019-08-16T13:10:35Z</time>
      </trkpt>
      <trkpt lat="42.0487050" lon="-6.6875570">
        <ele>914.9</ele>
        <time>2019-08-16T13:10:36Z</time>
      </trkpt>
      <trkpt lat="42.0486900" lon="-6.6876260">
        <ele>914.9</ele>
        <time>2019-08-16T13:10:37Z</time>
      </trkpt>
      <trkpt lat="42.0486750" lon="-6.6876920">
        <ele>914.9</ele>
        <time>2019-08-16T13:10:38Z</time>
      </trkpt>
      <trkpt lat="42.0486580" lon="-6.6877590">
        <ele>914.9</ele>
        <time>2019-08-16T13:10:39Z</time>
      </trkpt>
      <trkpt lat="42.0486410" lon="-6.6878270">
        <ele>914.8</ele>
        <time>2019-08-16T13:10:40Z</time>
      </trkpt>
      <trkpt lat="42.0486240" lon="-6.6878930">
        <ele>914.8</ele>
        <time>2019-08-16T13:10:41Z</time>
      </trkpt>
      <trkpt lat="42.0486060" lon="-6.6879590">
        <ele>914.8</ele>
        <time>2019-08-16T13:10:42Z</time>
      </trkpt>
      <trkpt lat="42.0485880" lon="-6.6880240">
        <ele>914.8</ele>
        <time>2019-08-16T13:10:43Z</time>
      </trkpt>
      <trkpt lat="42.0485690" lon="-6.6880850">
        <ele>914.8</ele>
        <time>2019-08-16T13:10:44Z</time>
      </trkpt>
      <trkpt lat="42.0485520" lon="-6.6881460">
        <ele>914.8</ele>
        <time>2019-08-16T13:10:45Z</time>
      </trkpt>
      <trkpt lat="42.0485350" lon="-6.6882070">
        <ele>914.8</ele>
        <time>2019-08-16T13:10:46Z</time>
      </trkpt>
      <trkpt lat="42.0485180" lon="-6.6882720">
        <ele>914.7</ele>
        <time>2019-08-16T13:10:47Z</time>
      </trkpt>
      <trkpt lat="42.0485000" lon="-6.6883390">
        <ele>914.7</ele>
        <time>2019-08-16T13:10:48Z</time>
      </trkpt>
      <trkpt lat="42.0484810" lon="-6.6884070">
        <ele>914.7</ele>
        <time>2019-08-16T13:10:49Z</time>
      </trkpt>
      <trkpt lat="42.0484610" lon="-6.6884740">
        <ele>914.7</ele>
        <time>2019-08-16T13:10:50Z</time>
      </trkpt>
      <trkpt lat="42.0484400" lon="-6.6885420">
        <ele>914.7</ele>
        <time>2019-08-16T13:10:51Z</time>
      </trkpt>
      <trkpt lat="42.0484190" lon="-6.6886090">
        <ele>914.7</ele>
        <time>2019-08-16T13:10:52Z</time>
      </trkpt>
      <trkpt lat="42.0483980" lon="-6.6886760">
        <ele>914.7</ele>
        <time>2019-08-16T13:10:53Z</time>
      </trkpt>
      <trkpt lat="42.0483760" lon="-6.6887420">
        <ele>914.6</ele>
        <time>2019-08-16T13:10:54Z</time>
      </trkpt>
      <trkpt lat="42.0483540" lon="-6.6888090">
        <ele>914.6</ele>
        <time>2019-08-16T13:10:55Z</time>
      </trkpt>
      <trkpt lat="42.0483310" lon="-6.6888770">
        <ele>914.6</ele>
        <time>2019-08-16T13:10:56Z</time>
      </trkpt>
      <trkpt lat="42.0483080" lon="-6.6889450">
        <ele>914.5</ele>
        <time>2019-08-16T13:10:57Z</time>
      </trkpt>
      <trkpt lat="42.0482820" lon="-6.6890110">
        <ele>914.5</ele>
        <time>2019-08-16T13:10:58Z</time>
      </trkpt>
      <trkpt lat="42.0482560" lon="-6.6890770">
        <ele>914.4</ele>
        <time>2019-08-16T13:10:59Z</time>
      </trkpt>
      <trkpt lat="42.0482320" lon="-6.6891430">
        <ele>914.3</ele>
        <time>2019-08-16T13:11:00Z</time>
      </trkpt>
      <trkpt lat="42.0482080" lon="-6.6892090">
        <ele>914.3</ele>
        <time>2019-08-16T13:11:01Z</time>
      </trkpt>
      <trkpt lat="42.0481840" lon="-6.6892720">
        <ele>914.3</ele>
        <time>2019-08-16T13:11:02Z</time>
      </trkpt>
      <trkpt lat="42.0481590" lon="-6.6893350">
        <ele>914.2</ele>
        <time>2019-08-16T13:11:03Z</time>
      </trkpt>
      <trkpt lat="42.0481320" lon="-6.6893980">
        <ele>914.2</ele>
        <time>2019-08-16T13:11:04Z</time>
      </trkpt>
      <trkpt lat="42.0481060" lon="-6.6894620">
        <ele>914.2</ele>
        <time>2019-08-16T13:11:05Z</time>
      </trkpt>
      <trkpt lat="42.0480780" lon="-6.6895260">
        <ele>914.2</ele>
        <time>2019-08-16T13:11:06Z</time>
      </trkpt>
      <trkpt lat="42.0480510" lon="-6.6895890">
        <ele>914.2</ele>
        <time>2019-08-16T13:11:07Z</time>
      </trkpt>
      <trkpt lat="42.0480240" lon="-6.6896510">
        <ele>914.2</ele>
        <time>2019-08-16T13:11:08Z</time>
      </trkpt>
      <trkpt lat="42.0479960" lon="-6.6897110">
        <ele>914.2</ele>
        <time>2019-08-16T13:11:09Z</time>
      </trkpt>
      <trkpt lat="42.0479690" lon="-6.6897720">
        <ele>914.1</ele>
        <time>2019-08-16T13:11:10Z</time>
      </trkpt>
      <trkpt lat="42.0479420" lon="-6.6898320">
        <ele>914.1</ele>
        <time>2019-08-16T13:11:11Z</time>
      </trkpt>
      <trkpt lat="42.0479160" lon="-6.6898940">
        <ele>914.1</ele>
        <time>2019-08-16T13:11:12Z</time>
      </trkpt>
      <trkpt lat="42.0478880" lon="-6.6899540">
        <ele>914.0</ele>
        <time>2019-08-16T13:11:13Z</time>
      </trkpt>
      <trkpt lat="42.0478590" lon="-6.6900140">
        <ele>914.0</ele>
        <time>2019-08-16T13:11:14Z</time>
      </trkpt>
      <trkpt lat="42.0478310" lon="-6.6900740">
        <ele>914.0</ele>
        <time>2019-08-16T13:11:15Z</time>
      </trkpt>
      <trkpt lat="42.0478030" lon="-6.6901340">
        <ele>914.0</ele>
        <time>2019-08-16T13:11:16Z</time>
      </trkpt>
      <trkpt lat="42.0477750" lon="-6.6901940">
        <ele>913.9</ele>
        <time>2019-08-16T13:11:17Z</time>
      </trkpt>
      <trkpt lat="42.0477460" lon="-6.6902530">
        <ele>914.0</ele>
        <time>2019-08-16T13:11:18Z</time>
      </trkpt>
      <trkpt lat="42.0477170" lon="-6.6903130">
        <ele>914.0</ele>
        <time>2019-08-16T13:11:19Z</time>
      </trkpt>
      <trkpt lat="42.0476870" lon="-6.6903720">
        <ele>914.0</ele>
        <time>2019-08-16T13:11:20Z</time>
      </trkpt>
      <trkpt lat="42.0476580" lon="-6.6904330">
        <ele>914.1</ele>
        <time>2019-08-16T13:11:21Z</time>
      </trkpt>
      <trkpt lat="42.0476290" lon="-6.6904950">
        <ele>914.1</ele>
        <time>2019-08-16T13:11:22Z</time>
      </trkpt>
      <trkpt lat="42.0476000" lon="-6.6905570">
        <ele>914.1</ele>
        <time>2019-08-16T13:11:23Z</time>
      </trkpt>
      <trkpt lat="42.0475700" lon="-6.6906190">
        <ele>914.2</ele>
        <time>2019-08-16T13:11:24Z</time>
      </trkpt>
      <trkpt lat="42.0475420" lon="-6.6906810">
        <ele>914.2</ele>
        <time>2019-08-16T13:11:25Z</time>
      </trkpt>
      <trkpt lat="42.0475130" lon="-6.6907430">
        <ele>914.3</ele>
        <time>2019-08-16T13:11:26Z</time>
      </trkpt>
      <trkpt lat="42.0474840" lon="-6.6908050">
        <ele>914.3</ele>
        <time>2019-08-16T13:11:27Z</time>
      </trkpt>
      <trkpt lat="42.0474540" lon="-6.6908660">
        <ele>914.3</ele>
        <time>2019-08-16T13:11:28Z</time>
      </trkpt>
      <trkpt lat="42.0474230" lon="-6.6909280">
        <ele>914.3</ele>
        <time>2019-08-16T13:11:29Z</time>
      </trkpt>
      <trkpt lat="42.0473930" lon="-6.6909870">
        <ele>914.3</ele>
        <time>2019-08-16T13:11:30Z</time>
      </trkpt>
      <trkpt lat="42.0473640" lon="-6.6910470">
        <ele>914.3</ele>
        <time>2019-08-16T13:11:31Z</time>
      </trkpt>
      <trkpt lat="42.0473350" lon="-6.6911070">
        <ele>914.3</ele>
        <time>2019-08-16T13:11:32Z</time>
      </trkpt>
      <trkpt lat="42.0473070" lon="-6.6911640">
        <ele>914.3</ele>
        <time>2019-08-16T13:11:33Z</time>
      </trkpt>
      <trkpt lat="42.0472790" lon="-6.6912230">
        <ele>914.3</ele>
        <time>2019-08-16T13:11:34Z</time>
      </trkpt>
      <trkpt lat="42.0472500" lon="-6.6912820">
        <ele>914.3</ele>
        <time>2019-08-16T13:11:35Z</time>
      </trkpt>
      <trkpt lat="42.0472210" lon="-6.6913410">
        <ele>914.2</ele>
        <time>2019-08-16T13:11:36Z</time>
      </trkpt>
      <trkpt lat="42.0471930" lon="-6.6914000">
        <ele>914.2</ele>
        <time>2019-08-16T13:11:37Z</time>
      </trkpt>
      <trkpt lat="42.0471650" lon="-6.6914590">
        <ele>914.2</ele>
        <time>2019-08-16T13:11:38Z</time>
      </trkpt>
      <trkpt lat="42.0471370" lon="-6.6915160">
        <ele>914.2</ele>
        <time>2019-08-16T13:11:39Z</time>
      </trkpt>
      <trkpt lat="42.0471090" lon="-6.6915740">
        <ele>914.3</ele>
        <time>2019-08-16T13:11:40Z</time>
      </trkpt>
      <trkpt lat="42.0470820" lon="-6.6916310">
        <ele>914.3</ele>
        <time>2019-08-16T13:11:41Z</time>
      </trkpt>
      <trkpt lat="42.0470540" lon="-6.6916900">
        <ele>914.3</ele>
        <time>2019-08-16T13:11:42Z</time>
      </trkpt>
      <trkpt lat="42.0470270" lon="-6.6917480">
        <ele>914.3</ele>
        <time>2019-08-16T13:11:43Z</time>
      </trkpt>
      <trkpt lat="42.0470010" lon="-6.6918050">
        <ele>914.3</ele>
        <time>2019-08-16T13:11:44Z</time>
      </trkpt>
      <trkpt lat="42.0469750" lon="-6.6918630">
        <ele>914.3</ele>
        <time>2019-08-16T13:11:45Z</time>
      </trkpt>
      <trkpt lat="42.0469480" lon="-6.6919200">
        <ele>914.3</ele>
        <time>2019-08-16T13:11:46Z</time>
      </trkpt>
      <trkpt lat="42.0469200" lon="-6.6919790">
        <ele>914.4</ele>
        <time>2019-08-16T13:11:47Z</time>
      </trkpt>
      <trkpt lat="42.0468920" lon="-6.6920360">
        <ele>914.4</ele>
        <time>2019-08-16T13:11:48Z</time>
      </trkpt>
      <trkpt lat="42.0468630" lon="-6.6920960">
        <ele>914.5</ele>
        <time>2019-08-16T13:11:49Z</time>
      </trkpt>
      <trkpt lat="42.0468350" lon="-6.6921530">
        <ele>914.5</ele>
        <time>2019-08-16T13:11:50Z</time>
      </trkpt>
      <trkpt lat="42.0468090" lon="-6.6922110">
        <ele>914.6</ele>
        <time>2019-08-16T13:11:51Z</time>
      </trkpt>
      <trkpt lat="42.0467810" lon="-6.6922680">
        <ele>914.6</ele>
        <time>2019-08-16T13:11:52Z</time>
      </trkpt>
      <trkpt lat="42.0467550" lon="-6.6923260">
        <ele>914.7</ele>
        <time>2019-08-16T13:11:53Z</time>
      </trkpt>
      <trkpt lat="42.0467290" lon="-6.6923820">
        <ele>914.8</ele>
        <time>2019-08-16T13:11:54Z</time>
      </trkpt>
      <trkpt lat="42.0467020" lon="-6.6924390">
        <ele>914.8</ele>
        <time>2019-08-16T13:11:55Z</time>
      </trkpt>
      <trkpt lat="42.0466750" lon="-6.6924960">
        <ele>914.9</ele>
        <time>2019-08-16T13:11:56Z</time>
      </trkpt>
      <trkpt lat="42.0466480" lon="-6.6925510">
        <ele>915.0</ele>
        <time>2019-08-16T13:11:57Z</time>
      </trkpt>
      <trkpt lat="42.0466200" lon="-6.6926090">
        <ele>915.0</ele>
        <time>2019-08-16T13:11:58Z</time>
      </trkpt>
      <trkpt lat="42.0465920" lon="-6.6926650">
        <ele>915.0</ele>
        <time>2019-08-16T13:11:59Z</time>
      </trkpt>
      <trkpt lat="42.0465640" lon="-6.6927200">
        <ele>915.0</ele>
        <time>2019-08-16T13:12:00Z</time>
      </trkpt>
      <trkpt lat="42.0465380" lon="-6.6927750">
        <ele>915.0</ele>
        <time>2019-08-16T13:12:01Z</time>
      </trkpt>
      <trkpt lat="42.0465110" lon="-6.6928270">
        <ele>915.0</ele>
        <time>2019-08-16T13:12:02Z</time>
      </trkpt>
      <trkpt lat="42.0464850" lon="-6.6928770">
        <ele>915.0</ele>
        <time>2019-08-16T13:12:03Z</time>
      </trkpt>
      <trkpt lat="42.0464610" lon="-6.6929280">
        <ele>915.0</ele>
        <time>2019-08-16T13:12:04Z</time>
      </trkpt>
      <trkpt lat="42.0464370" lon="-6.6929810">
        <ele>915.1</ele>
        <time>2019-08-16T13:12:05Z</time>
      </trkpt>
      <trkpt lat="42.0464130" lon="-6.6930330">
        <ele>915.1</ele>
        <time>2019-08-16T13:12:06Z</time>
      </trkpt>
      <trkpt lat="42.0463880" lon="-6.6930860">
        <ele>915.1</ele>
        <time>2019-08-16T13:12:07Z</time>
      </trkpt>
      <trkpt lat="42.0463630" lon="-6.6931370">
        <ele>915.2</ele>
        <time>2019-08-16T13:12:08Z</time>
      </trkpt>
      <trkpt lat="42.0463390" lon="-6.6931850">
        <ele>915.2</ele>
        <time>2019-08-16T13:12:09Z</time>
      </trkpt>
      <trkpt lat="42.0463150" lon="-6.6932310">
        <ele>915.2</ele>
        <time>2019-08-16T13:12:10Z</time>
      </trkpt>
      <trkpt lat="42.0462890" lon="-6.6932810">
        <ele>915.3</ele>
        <time>2019-08-16T13:12:11Z</time>
      </trkpt>
      <trkpt lat="42.0462650" lon="-6.6933320">
        <ele>915.3</ele>
        <time>2019-08-16T13:12:12Z</time>
      </trkpt>
      <trkpt lat="42.0462410" lon="-6.6933820">
        <ele>915.4</ele>
        <time>2019-08-16T13:12:13Z</time>
      </trkpt>
      <trkpt lat="42.0462170" lon="-6.6934300">
        <ele>915.4</ele>
        <time>2019-08-16T13:12:14Z</time>
      </trkpt>
      <trkpt lat="42.0461930" lon="-6.6934770">
        <ele>915.4</ele>
        <time>2019-08-16T13:12:15Z</time>
      </trkpt>
      <trkpt lat="42.0461690" lon="-6.6935260">
        <ele>915.5</ele>
        <time>2019-08-16T13:12:16Z</time>
      </trkpt>
      <trkpt lat="42.0461440" lon="-6.6935770">
        <ele>915.5</ele>
        <time>2019-08-16T13:12:17Z</time>
      </trkpt>
      <trkpt lat="42.0461180" lon="-6.6936300">
        <ele>915.5</ele>
        <time>2019-08-16T13:12:18Z</time>
      </trkpt>
      <trkpt lat="42.0460920" lon="-6.6936820">
        <ele>915.5</ele>
        <time>2019-08-16T13:12:19Z</time>
      </trkpt>
      <trkpt lat="42.0460670" lon="-6.6937340">
        <ele>915.6</ele>
        <time>2019-08-16T13:12:20Z</time>
      </trkpt>
      <trkpt lat="42.0460430" lon="-6.6937870">
        <ele>915.6</ele>
        <time>2019-08-16T13:12:21Z</time>
      </trkpt>
      <trkpt lat="42.0460200" lon="-6.6938380">
        <ele>915.6</ele>
        <time>2019-08-16T13:12:22Z</time>
      </trkpt>
      <trkpt lat="42.0459950" lon="-6.6938880">
        <ele>915.6</ele>
        <time>2019-08-16T13:12:23Z</time>
      </trkpt>
      <trkpt lat="42.0459710" lon="-6.6939370">
        <ele>915.6</ele>
        <time>2019-08-16T13:12:24Z</time>
      </trkpt>
      <trkpt lat="42.0459450" lon="-6.6939850">
        <ele>915.6</ele>
        <time>2019-08-16T13:12:25Z</time>
      </trkpt>
      <trkpt lat="42.0459210" lon="-6.6940320">
        <ele>915.6</ele>
        <time>2019-08-16T13:12:26Z</time>
      </trkpt>
      <trkpt lat="42.0458960" lon="-6.6940790">
        <ele>915.7</ele>
        <time>2019-08-16T13:12:27Z</time>
      </trkpt>
      <trkpt lat="42.0458730" lon="-6.6941260">
        <ele>915.7</ele>
        <time>2019-08-16T13:12:28Z</time>
      </trkpt>
      <trkpt lat="42.0458510" lon="-6.6941700">
        <ele>915.7</ele>
        <time>2019-08-16T13:12:29Z</time>
      </trkpt>
      <trkpt lat="42.0458320" lon="-6.6942120">
        <ele>915.7</ele>
        <time>2019-08-16T13:12:30Z</time>
      </trkpt>
      <trkpt lat="42.0458140" lon="-6.6942530">
        <ele>915.7</ele>
        <time>2019-08-16T13:12:31Z</time>
      </trkpt>
      <trkpt lat="42.0457980" lon="-6.6942930">
        <ele>915.7</ele>
        <time>2019-08-16T13:12:32Z</time>
      </trkpt>
      <trkpt lat="42.0457820" lon="-6.6943290">
        <ele>915.7</ele>
        <time>2019-08-16T13:12:33Z</time>
      </trkpt>
      <trkpt lat="42.0457680" lon="-6.6943630">
        <ele>915.8</ele>
        <time>2019-08-16T13:12:34Z</time>
      </trkpt>
      <trkpt lat="42.0457530" lon="-6.6943950">
        <ele>915.8</ele>
        <time>2019-08-16T13:12:35Z</time>
      </trkpt>
      <trkpt lat="42.0457370" lon="-6.6944260">
        <ele>915.8</ele>
        <time>2019-08-16T13:12:36Z</time>
      </trkpt>
      <trkpt lat="42.0457220" lon="-6.6944550">
        <ele>915.8</ele>
        <time>2019-08-16T13:12:37Z</time>
      </trkpt>
      <trkpt lat="42.0457070" lon="-6.6944820">
        <ele>915.8</ele>
        <time>2019-08-16T13:12:38Z</time>
      </trkpt>
      <trkpt lat="42.0456770" lon="-6.6945350">
        <ele>915.8</ele>
        <time>2019-08-16T13:12:40Z</time>
      </trkpt>
      <trkpt lat="42.0456440" lon="-6.6946000">
        <ele>915.8</ele>
        <time>2019-08-16T13:12:42Z</time>
      </trkpt>
      <trkpt lat="42.0456280" lon="-6.6946370">
        <ele>915.8</ele>
        <time>2019-08-16T13:12:43Z</time>
      </trkpt>
      <trkpt lat="42.0456120" lon="-6.6946760">
        <ele>915.8</ele>
        <time>2019-08-16T13:12:44Z</time>
      </trkpt>
      <trkpt lat="42.0455940" lon="-6.6947140">
        <ele>915.8</ele>
        <time>2019-08-16T13:12:45Z</time>
      </trkpt>
      <trkpt lat="42.0455750" lon="-6.6947550">
        <ele>915.8</ele>
        <time>2019-08-16T13:12:46Z</time>
      </trkpt>
      <trkpt lat="42.0455540" lon="-6.6947970">
        <ele>915.8</ele>
        <time>2019-08-16T13:12:47Z</time>
      </trkpt>
      <trkpt lat="42.0455330" lon="-6.6948390">
        <ele>915.8</ele>
        <time>2019-08-16T13:12:48Z</time>
      </trkpt>
      <trkpt lat="42.0455110" lon="-6.6948820">
        <ele>915.8</ele>
        <time>2019-08-16T13:12:49Z</time>
      </trkpt>
      <trkpt lat="42.0454890" lon="-6.6949260">
        <ele>915.8</ele>
        <time>2019-08-16T13:12:50Z</time>
      </trkpt>
      <trkpt lat="42.0454680" lon="-6.6949710">
        <ele>915.8</ele>
        <time>2019-08-16T13:12:51Z</time>
      </trkpt>
      <trkpt lat="42.0454480" lon="-6.6950180">
        <ele>915.8</ele>
        <time>2019-08-16T13:12:52Z</time>
      </trkpt>
      <trkpt lat="42.0454260" lon="-6.6950620">
        <ele>915.9</ele>
        <time>2019-08-16T13:12:53Z</time>
      </trkpt>
      <trkpt lat="42.0454040" lon="-6.6951080">
        <ele>915.9</ele>
        <time>2019-08-16T13:12:54Z</time>
      </trkpt>
      <trkpt lat="42.0453820" lon="-6.6951530">
        <ele>916.0</ele>
        <time>2019-08-16T13:12:55Z</time>
      </trkpt>
      <trkpt lat="42.0453600" lon="-6.6951980">
        <ele>916.1</ele>
        <time>2019-08-16T13:12:56Z</time>
      </trkpt>
      <trkpt lat="42.0453380" lon="-6.6952420">
        <ele>916.2</ele>
        <time>2019-08-16T13:12:57Z</time>
      </trkpt>
      <trkpt lat="42.0453170" lon="-6.6952870">
        <ele>916.3</ele>
        <time>2019-08-16T13:12:58Z</time>
      </trkpt>
      <trkpt lat="42.0452960" lon="-6.6953320">
        <ele>916.5</ele>
        <time>2019-08-16T13:12:59Z</time>
      </trkpt>
      <trkpt lat="42.0452750" lon="-6.6953780">
        <ele>916.6</ele>
        <time>2019-08-16T13:13:00Z</time>
      </trkpt>
      <trkpt lat="42.0452520" lon="-6.6954210">
        <ele>916.8</ele>
        <time>2019-08-16T13:13:01Z</time>
      </trkpt>
      <trkpt lat="42.0452300" lon="-6.6954650">
        <ele>917.0</ele>
        <time>2019-08-16T13:13:02Z</time>
      </trkpt>
      <trkpt lat="42.0452090" lon="-6.6955120">
        <ele>917.2</ele>
        <time>2019-08-16T13:13:03Z</time>
      </trkpt>
      <trkpt lat="42.0451870" lon="-6.6955590">
        <ele>917.5</ele>
        <time>2019-08-16T13:13:04Z</time>
      </trkpt>
      <trkpt lat="42.0451650" lon="-6.6956040">
        <ele>917.7</ele>
        <time>2019-08-16T13:13:05Z</time>
      </trkpt>
      <trkpt lat="42.0451440" lon="-6.6956490">
        <ele>917.9</ele>
        <time>2019-08-16T13:13:06Z</time>
      </trkpt>
      <trkpt lat="42.0451230" lon="-6.6956930">
        <ele>918.2</ele>
        <time>2019-08-16T13:13:07Z</time>
      </trkpt>
      <trkpt lat="42.0451010" lon="-6.6957370">
        <ele>918.4</ele>
        <time>2019-08-16T13:13:08Z</time>
      </trkpt>
      <trkpt lat="42.0450800" lon="-6.6957820">
        <ele>918.6</ele>
        <time>2019-08-16T13:13:09Z</time>
      </trkpt>
      <trkpt lat="42.0450580" lon="-6.6958290">
        <ele>918.8</ele>
        <time>2019-08-16T13:13:10Z</time>
      </trkpt>
      <trkpt lat="42.0450340" lon="-6.6958770">
        <ele>919.1</ele>
        <time>2019-08-16T13:13:11Z</time>
      </trkpt>
      <trkpt lat="42.0450080" lon="-6.6959270">
        <ele>919.3</ele>
        <time>2019-08-16T13:13:12Z</time>
      </trkpt>
      <trkpt lat="42.0449810" lon="-6.6959780">
        <ele>919.5</ele>
        <time>2019-08-16T13:13:13Z</time>
      </trkpt>
      <trkpt lat="42.0449560" lon="-6.6960290">
        <ele>919.6</ele>
        <time>2019-08-16T13:13:14Z</time>
      </trkpt>
      <trkpt lat="42.0449330" lon="-6.6960810">
        <ele>919.8</ele>
        <time>2019-08-16T13:13:15Z</time>
      </trkpt>
      <trkpt lat="42.0449100" lon="-6.6961330">
        <ele>919.9</ele>
        <time>2019-08-16T13:13:16Z</time>
      </trkpt>
      <trkpt lat="42.0448870" lon="-6.6961840">
        <ele>920.1</ele>
        <time>2019-08-16T13:13:17Z</time>
      </trkpt>
      <trkpt lat="42.0448640" lon="-6.6962340">
        <ele>920.2</ele>
        <time>2019-08-16T13:13:18Z</time>
      </trkpt>
      <trkpt lat="42.0448410" lon="-6.6962820">
        <ele>920.3</ele>
        <time>2019-08-16T13:13:19Z</time>
      </trkpt>
      <trkpt lat="42.0448170" lon="-6.6963300">
        <ele>920.4</ele>
        <time>2019-08-16T13:13:20Z</time>
      </trkpt>
      <trkpt lat="42.0447930" lon="-6.6963790">
        <ele>920.5</ele>
        <time>2019-08-16T13:13:21Z</time>
      </trkpt>
      <trkpt lat="42.0447690" lon="-6.6964280">
        <ele>920.6</ele>
        <time>2019-08-16T13:13:22Z</time>
      </trkpt>
      <trkpt lat="42.0447390" lon="-6.6964810">
        <ele>920.7</ele>
        <time>2019-08-16T13:13:23Z</time>
      </trkpt>
      <trkpt lat="42.0447090" lon="-6.6965340">
        <ele>920.8</ele>
        <time>2019-08-16T13:13:24Z</time>
      </trkpt>
      <trkpt lat="42.0446850" lon="-6.6965830">
        <ele>920.8</ele>
        <time>2019-08-16T13:13:25Z</time>
      </trkpt>
      <trkpt lat="42.0446600" lon="-6.6966330">
        <ele>920.9</ele>
        <time>2019-08-16T13:13:26Z</time>
      </trkpt>
      <trkpt lat="42.0446350" lon="-6.6966820">
        <ele>921.0</ele>
        <time>2019-08-16T13:13:27Z</time>
      </trkpt>
      <trkpt lat="42.0446110" lon="-6.6967320">
        <ele>921.1</ele>
        <time>2019-08-16T13:13:28Z</time>
      </trkpt>
      <trkpt lat="42.0445870" lon="-6.6967830">
        <ele>921.2</ele>
        <time>2019-08-16T13:13:29Z</time>
      </trkpt>
      <trkpt lat="42.0445640" lon="-6.6968350">
        <ele>921.3</ele>
        <time>2019-08-16T13:13:30Z</time>
      </trkpt>
      <trkpt lat="42.0445410" lon="-6.6968870">
        <ele>921.4</ele>
        <time>2019-08-16T13:13:31Z</time>
      </trkpt>
      <trkpt lat="42.0445170" lon="-6.6969400">
        <ele>921.4</ele>
        <time>2019-08-16T13:13:32Z</time>
      </trkpt>
      <trkpt lat="42.0444920" lon="-6.6969910">
        <ele>921.5</ele>
        <time>2019-08-16T13:13:33Z</time>
      </trkpt>
      <trkpt lat="42.0444660" lon="-6.6970410">
        <ele>921.6</ele>
        <time>2019-08-16T13:13:34Z</time>
      </trkpt>
      <trkpt lat="42.0444420" lon="-6.6970920">
        <ele>921.7</ele>
        <time>2019-08-16T13:13:35Z</time>
      </trkpt>
      <trkpt lat="42.0444180" lon="-6.6971380">
        <ele>921.7</ele>
        <time>2019-08-16T13:13:36Z</time>
      </trkpt>
      <trkpt lat="42.0443950" lon="-6.6971830">
        <ele>921.8</ele>
        <time>2019-08-16T13:13:37Z</time>
      </trkpt>
      <trkpt lat="42.0443700" lon="-6.6972340">
        <ele>921.9</ele>
        <time>2019-08-16T13:13:38Z</time>
      </trkpt>
      <trkpt lat="42.0443480" lon="-6.6972830">
        <ele>921.9</ele>
        <time>2019-08-16T13:13:39Z</time>
      </trkpt>
      <trkpt lat="42.0443240" lon="-6.6973340">
        <ele>922.0</ele>
        <time>2019-08-16T13:13:40Z</time>
      </trkpt>
      <trkpt lat="42.0442970" lon="-6.6973890">
        <ele>922.1</ele>
        <time>2019-08-16T13:13:41Z</time>
      </trkpt>
      <trkpt lat="42.0442720" lon="-6.6974430">
        <ele>922.1</ele>
        <time>2019-08-16T13:13:42Z</time>
      </trkpt>
      <trkpt lat="42.0442490" lon="-6.6974950">
        <ele>922.2</ele>
        <time>2019-08-16T13:13:43Z</time>
      </trkpt>
      <trkpt lat="42.0442250" lon="-6.6975480">
        <ele>922.3</ele>
        <time>2019-08-16T13:13:44Z</time>
      </trkpt>
      <trkpt lat="42.0441990" lon="-6.6976010">
        <ele>922.4</ele>
        <time>2019-08-16T13:13:45Z</time>
      </trkpt>
      <trkpt lat="42.0441730" lon="-6.6976520">
        <ele>922.5</ele>
        <time>2019-08-16T13:13:46Z</time>
      </trkpt>
      <trkpt lat="42.0441490" lon="-6.6977030">
        <ele>922.6</ele>
        <time>2019-08-16T13:13:47Z</time>
      </trkpt>
      <trkpt lat="42.0441240" lon="-6.6977520">
        <ele>922.7</ele>
        <time>2019-08-16T13:13:48Z</time>
      </trkpt>
      <trkpt lat="42.0441010" lon="-6.6978030">
        <ele>922.8</ele>
        <time>2019-08-16T13:13:49Z</time>
      </trkpt>
      <trkpt lat="42.0440760" lon="-6.6978530">
        <ele>922.8</ele>
        <time>2019-08-16T13:13:50Z</time>
      </trkpt>
      <trkpt lat="42.0440520" lon="-6.6979030">
        <ele>922.9</ele>
        <time>2019-08-16T13:13:51Z</time>
      </trkpt>
      <trkpt lat="42.0440270" lon="-6.6979540">
        <ele>923.0</ele>
        <time>2019-08-16T13:13:52Z</time>
      </trkpt>
      <trkpt lat="42.0440020" lon="-6.6980060">
        <ele>923.0</ele>
        <time>2019-08-16T13:13:53Z</time>
      </trkpt>
      <trkpt lat="42.0439780" lon="-6.6980590">
        <ele>923.1</ele>
        <time>2019-08-16T13:13:54Z</time>
      </trkpt>
      <trkpt lat="42.0439540" lon="-6.6981130">
        <ele>923.1</ele>
        <time>2019-08-16T13:13:55Z</time>
      </trkpt>
      <trkpt lat="42.0439290" lon="-6.6981660">
        <ele>923.1</ele>
        <time>2019-08-16T13:13:56Z</time>
      </trkpt>
      <trkpt lat="42.0439050" lon="-6.6982190">
        <ele>923.1</ele>
        <time>2019-08-16T13:13:57Z</time>
      </trkpt>
      <trkpt lat="42.0438800" lon="-6.6982700">
        <ele>923.2</ele>
        <time>2019-08-16T13:13:58Z</time>
      </trkpt>
      <trkpt lat="42.0438560" lon="-6.6983220">
        <ele>923.2</ele>
        <time>2019-08-16T13:13:59Z</time>
      </trkpt>
      <trkpt lat="42.0438320" lon="-6.6983740">
        <ele>923.2</ele>
        <time>2019-08-16T13:14:00Z</time>
      </trkpt>
      <trkpt lat="42.0438080" lon="-6.6984260">
        <ele>923.2</ele>
        <time>2019-08-16T13:14:01Z</time>
      </trkpt>
      <trkpt lat="42.0437830" lon="-6.6984770">
        <ele>923.2</ele>
        <time>2019-08-16T13:14:02Z</time>
      </trkpt>
      <trkpt lat="42.0437590" lon="-6.6985290">
        <ele>923.2</ele>
        <time>2019-08-16T13:14:03Z</time>
      </trkpt>
      <trkpt lat="42.0437340" lon="-6.6985810">
        <ele>923.2</ele>
        <time>2019-08-16T13:14:04Z</time>
      </trkpt>
      <trkpt lat="42.0437080" lon="-6.6986330">
        <ele>923.3</ele>
        <time>2019-08-16T13:14:05Z</time>
      </trkpt>
      <trkpt lat="42.0436820" lon="-6.6986850">
        <ele>923.3</ele>
        <time>2019-08-16T13:14:06Z</time>
      </trkpt>
      <trkpt lat="42.0436550" lon="-6.6987380">
        <ele>923.3</ele>
        <time>2019-08-16T13:14:07Z</time>
      </trkpt>
      <trkpt lat="42.0436290" lon="-6.6987920">
        <ele>923.3</ele>
        <time>2019-08-16T13:14:08Z</time>
      </trkpt>
      <trkpt lat="42.0436020" lon="-6.6988450">
        <ele>923.3</ele>
        <time>2019-08-16T13:14:09Z</time>
      </trkpt>
      <trkpt lat="42.0435760" lon="-6.6988980">
        <ele>923.3</ele>
        <time>2019-08-16T13:14:10Z</time>
      </trkpt>
      <trkpt lat="42.0435500" lon="-6.6989500">
        <ele>923.4</ele>
        <time>2019-08-16T13:14:11Z</time>
      </trkpt>
      <trkpt lat="42.0435240" lon="-6.6990020">
        <ele>923.4</ele>
        <time>2019-08-16T13:14:12Z</time>
      </trkpt>
      <trkpt lat="42.0434980" lon="-6.6990570">
        <ele>923.4</ele>
        <time>2019-08-16T13:14:13Z</time>
      </trkpt>
      <trkpt lat="42.0434730" lon="-6.6991130">
        <ele>923.4</ele>
        <time>2019-08-16T13:14:14Z</time>
      </trkpt>
      <trkpt lat="42.0434460" lon="-6.6991670">
        <ele>923.4</ele>
        <time>2019-08-16T13:14:15Z</time>
      </trkpt>
      <trkpt lat="42.0434200" lon="-6.6992220">
        <ele>923.4</ele>
        <time>2019-08-16T13:14:16Z</time>
      </trkpt>
      <trkpt lat="42.0433950" lon="-6.6992760">
        <ele>923.4</ele>
        <time>2019-08-16T13:14:17Z</time>
      </trkpt>
      <trkpt lat="42.0433680" lon="-6.6993290">
        <ele>923.4</ele>
        <time>2019-08-16T13:14:18Z</time>
      </trkpt>
      <trkpt lat="42.0433410" lon="-6.6993820">
        <ele>923.4</ele>
        <time>2019-08-16T13:14:19Z</time>
      </trkpt>
      <trkpt lat="42.0433150" lon="-6.6994360">
        <ele>923.4</ele>
        <time>2019-08-16T13:14:20Z</time>
      </trkpt>
      <trkpt lat="42.0432900" lon="-6.6994880">
        <ele>923.4</ele>
        <time>2019-08-16T13:14:21Z</time>
      </trkpt>
      <trkpt lat="42.0432660" lon="-6.6995370">
        <ele>923.4</ele>
        <time>2019-08-16T13:14:22Z</time>
      </trkpt>
      <trkpt lat="42.0432420" lon="-6.6995860">
        <ele>923.4</ele>
        <time>2019-08-16T13:14:23Z</time>
      </trkpt>
      <trkpt lat="42.0432180" lon="-6.6996360">
        <ele>923.4</ele>
        <time>2019-08-16T13:14:24Z</time>
      </trkpt>
      <trkpt lat="42.0431940" lon="-6.6996860">
        <ele>923.4</ele>
        <time>2019-08-16T13:14:25Z</time>
      </trkpt>
      <trkpt lat="42.0431690" lon="-6.6997370">
        <ele>923.3</ele>
        <time>2019-08-16T13:14:26Z</time>
      </trkpt>
      <trkpt lat="42.0431440" lon="-6.6997870">
        <ele>923.3</ele>
        <time>2019-08-16T13:14:27Z</time>
      </trkpt>
      <trkpt lat="42.0431190" lon="-6.6998370">
        <ele>923.3</ele>
        <time>2019-08-16T13:14:28Z</time>
      </trkpt>
      <trkpt lat="42.0430950" lon="-6.6998890">
        <ele>923.3</ele>
        <time>2019-08-16T13:14:29Z</time>
      </trkpt>
      <trkpt lat="42.0430710" lon="-6.6999400">
        <ele>923.3</ele>
        <time>2019-08-16T13:14:30Z</time>
      </trkpt>
      <trkpt lat="42.0430460" lon="-6.6999910">
        <ele>923.2</ele>
        <time>2019-08-16T13:14:31Z</time>
      </trkpt>
      <trkpt lat="42.0430220" lon="-6.7000410">
        <ele>923.2</ele>
        <time>2019-08-16T13:14:32Z</time>
      </trkpt>
      <trkpt lat="42.0429990" lon="-6.7000930">
        <ele>923.2</ele>
        <time>2019-08-16T13:14:33Z</time>
      </trkpt>
      <trkpt lat="42.0429760" lon="-6.7001440">
        <ele>923.1</ele>
        <time>2019-08-16T13:14:34Z</time>
      </trkpt>
      <trkpt lat="42.0429520" lon="-6.7001930">
        <ele>923.1</ele>
        <time>2019-08-16T13:14:35Z</time>
      </trkpt>
      <trkpt lat="42.0429270" lon="-6.7002410">
        <ele>923.0</ele>
        <time>2019-08-16T13:14:36Z</time>
      </trkpt>
      <trkpt lat="42.0429030" lon="-6.7002890">
        <ele>923.0</ele>
        <time>2019-08-16T13:14:37Z</time>
      </trkpt>
      <trkpt lat="42.0428800" lon="-6.7003390">
        <ele>922.9</ele>
        <time>2019-08-16T13:14:38Z</time>
      </trkpt>
      <trkpt lat="42.0428560" lon="-6.7003890">
        <ele>922.9</ele>
        <time>2019-08-16T13:14:39Z</time>
      </trkpt>
      <trkpt lat="42.0428330" lon="-6.7004390">
        <ele>922.8</ele>
        <time>2019-08-16T13:14:40Z</time>
      </trkpt>
      <trkpt lat="42.0428100" lon="-6.7004880">
        <ele>922.8</ele>
        <time>2019-08-16T13:14:41Z</time>
      </trkpt>
      <trkpt lat="42.0427860" lon="-6.7005380">
        <ele>922.7</ele>
        <time>2019-08-16T13:14:42Z</time>
      </trkpt>
      <trkpt lat="42.0427620" lon="-6.7005850">
        <ele>922.6</ele>
        <time>2019-08-16T13:14:43Z</time>
      </trkpt>
      <trkpt lat="42.0427380" lon="-6.7006320">
        <ele>922.6</ele>
        <time>2019-08-16T13:14:44Z</time>
      </trkpt>
      <trkpt lat="42.0427150" lon="-6.7006790">
        <ele>922.5</ele>
        <time>2019-08-16T13:14:45Z</time>
      </trkpt>
      <trkpt lat="42.0426930" lon="-6.7007290">
        <ele>922.5</ele>
        <time>2019-08-16T13:14:46Z</time>
      </trkpt>
      <trkpt lat="42.0426690" lon="-6.7007790">
        <ele>922.4</ele>
        <time>2019-08-16T13:14:47Z</time>
      </trkpt>
      <trkpt lat="42.0426460" lon="-6.7008270">
        <ele>922.4</ele>
        <time>2019-08-16T13:14:48Z</time>
      </trkpt>
      <trkpt lat="42.0426210" lon="-6.7008730">
        <ele>922.3</ele>
        <time>2019-08-16T13:14:49Z</time>
      </trkpt>
      <trkpt lat="42.0425980" lon="-6.7009210">
        <ele>922.3</ele>
        <time>2019-08-16T13:14:50Z</time>
      </trkpt>
      <trkpt lat="42.0425750" lon="-6.7009690">
        <ele>922.3</ele>
        <time>2019-08-16T13:14:51Z</time>
      </trkpt>
      <trkpt lat="42.0425520" lon="-6.7010190">
        <ele>922.3</ele>
        <time>2019-08-16T13:14:52Z</time>
      </trkpt>
      <trkpt lat="42.0425290" lon="-6.7010670">
        <ele>922.2</ele>
        <time>2019-08-16T13:14:53Z</time>
      </trkpt>
      <trkpt lat="42.0425060" lon="-6.7011150">
        <ele>922.2</ele>
        <time>2019-08-16T13:14:54Z</time>
      </trkpt>
      <trkpt lat="42.0424840" lon="-6.7011620">
        <ele>922.2</ele>
        <time>2019-08-16T13:14:55Z</time>
      </trkpt>
      <trkpt lat="42.0424610" lon="-6.7012080">
        <ele>922.2</ele>
        <time>2019-08-16T13:14:56Z</time>
      </trkpt>
      <trkpt lat="42.0424370" lon="-6.7012550">
        <ele>922.2</ele>
        <time>2019-08-16T13:14:57Z</time>
      </trkpt>
      <trkpt lat="42.0424150" lon="-6.7013030">
        <ele>922.2</ele>
        <time>2019-08-16T13:14:58Z</time>
      </trkpt>
      <trkpt lat="42.0423920" lon="-6.7013510">
        <ele>922.2</ele>
        <time>2019-08-16T13:14:59Z</time>
      </trkpt>
      <trkpt lat="42.0423680" lon="-6.7013980">
        <ele>922.2</ele>
        <time>2019-08-16T13:15:00Z</time>
      </trkpt>
      <trkpt lat="42.0423460" lon="-6.7014440">
        <ele>922.2</ele>
        <time>2019-08-16T13:15:01Z</time>
      </trkpt>
      <trkpt lat="42.0423240" lon="-6.7014890">
        <ele>922.2</ele>
        <time>2019-08-16T13:15:02Z</time>
      </trkpt>
      <trkpt lat="42.0423030" lon="-6.7015320">
        <ele>922.2</ele>
        <time>2019-08-16T13:15:03Z</time>
      </trkpt>
      <trkpt lat="42.0422840" lon="-6.7015740">
        <ele>922.2</ele>
        <time>2019-08-16T13:15:04Z</time>
      </trkpt>
      <trkpt lat="42.0422630" lon="-6.7016160">
        <ele>922.2</ele>
        <time>2019-08-16T13:15:05Z</time>
      </trkpt>
      <trkpt lat="42.0422410" lon="-6.7016580">
        <ele>922.2</ele>
        <time>2019-08-16T13:15:06Z</time>
      </trkpt>
      <trkpt lat="42.0422190" lon="-6.7017010">
        <ele>922.2</ele>
        <time>2019-08-16T13:15:07Z</time>
      </trkpt>
      <trkpt lat="42.0421990" lon="-6.7017460">
        <ele>922.3</ele>
        <time>2019-08-16T13:15:08Z</time>
      </trkpt>
      <trkpt lat="42.0421790" lon="-6.7017910">
        <ele>922.3</ele>
        <time>2019-08-16T13:15:09Z</time>
      </trkpt>
      <trkpt lat="42.0421580" lon="-6.7018360">
        <ele>922.3</ele>
        <time>2019-08-16T13:15:10Z</time>
      </trkpt>
      <trkpt lat="42.0421360" lon="-6.7018790">
        <ele>922.3</ele>
        <time>2019-08-16T13:15:11Z</time>
      </trkpt>
      <trkpt lat="42.0421130" lon="-6.7019240">
        <ele>922.4</ele>
        <time>2019-08-16T13:15:12Z</time>
      </trkpt>
      <trkpt lat="42.0420920" lon="-6.7019690">
        <ele>922.4</ele>
        <time>2019-08-16T13:15:13Z</time>
      </trkpt>
      <trkpt lat="42.0420700" lon="-6.7020130">
        <ele>922.5</ele>
        <time>2019-08-16T13:15:14Z</time>
      </trkpt>
      <trkpt lat="42.0420490" lon="-6.7020580">
        <ele>922.5</ele>
        <time>2019-08-16T13:15:15Z</time>
      </trkpt>
      <trkpt lat="42.0420280" lon="-6.7021020">
        <ele>922.6</ele>
        <time>2019-08-16T13:15:16Z</time>
      </trkpt>
      <trkpt lat="42.0420070" lon="-6.7021470">
        <ele>922.7</ele>
        <time>2019-08-16T13:15:17Z</time>
      </trkpt>
      <trkpt lat="42.0419850" lon="-6.7021920">
        <ele>922.7</ele>
        <time>2019-08-16T13:15:18Z</time>
      </trkpt>
      <trkpt lat="42.0419640" lon="-6.7022370">
        <ele>922.8</ele>
        <time>2019-08-16T13:15:19Z</time>
      </trkpt>
      <trkpt lat="42.0419430" lon="-6.7022830">
        <ele>922.9</ele>
        <time>2019-08-16T13:15:20Z</time>
      </trkpt>
      <trkpt lat="42.0419220" lon="-6.7023280">
        <ele>923.0</ele>
        <time>2019-08-16T13:15:21Z</time>
      </trkpt>
      <trkpt lat="42.0419000" lon="-6.7023740">
        <ele>923.1</ele>
        <time>2019-08-16T13:15:22Z</time>
      </trkpt>
      <trkpt lat="42.0418790" lon="-6.7024200">
        <ele>923.3</ele>
        <time>2019-08-16T13:15:23Z</time>
      </trkpt>
      <trkpt lat="42.0418570" lon="-6.7024650">
        <ele>923.4</ele>
        <time>2019-08-16T13:15:24Z</time>
      </trkpt>
      <trkpt lat="42.0418350" lon="-6.7025090">
        <ele>923.5</ele>
        <time>2019-08-16T13:15:25Z</time>
      </trkpt>
      <trkpt lat="42.0418120" lon="-6.7025540">
        <ele>923.7</ele>
        <time>2019-08-16T13:15:26Z</time>
      </trkpt>
      <trkpt lat="42.0417900" lon="-6.7026000">
        <ele>923.9</ele>
        <time>2019-08-16T13:15:27Z</time>
      </trkpt>
      <trkpt lat="42.0417690" lon="-6.7026450">
        <ele>924.0</ele>
        <time>2019-08-16T13:15:28Z</time>
      </trkpt>
      <trkpt lat="42.0417470" lon="-6.7026890">
        <ele>924.2</ele>
        <time>2019-08-16T13:15:29Z</time>
      </trkpt>
      <trkpt lat="42.0417260" lon="-6.7027290">
        <ele>924.3</ele>
        <time>2019-08-16T13:15:30Z</time>
      </trkpt>
      <trkpt lat="42.0417070" lon="-6.7027700">
        <ele>924.5</ele>
        <time>2019-08-16T13:15:31Z</time>
      </trkpt>
      <trkpt lat="42.0416880" lon="-6.7028140">
        <ele>924.7</ele>
        <time>2019-08-16T13:15:32Z</time>
      </trkpt>
      <trkpt lat="42.0416670" lon="-6.7028580">
        <ele>924.8</ele>
        <time>2019-08-16T13:15:33Z</time>
      </trkpt>
      <trkpt lat="42.0416460" lon="-6.7029030">
        <ele>925.0</ele>
        <time>2019-08-16T13:15:34Z</time>
      </trkpt>
      <trkpt lat="42.0416240" lon="-6.7029480">
        <ele>925.2</ele>
        <time>2019-08-16T13:15:35Z</time>
      </trkpt>
      <trkpt lat="42.0416020" lon="-6.7029950">
        <ele>925.3</ele>
        <time>2019-08-16T13:15:36Z</time>
      </trkpt>
      <trkpt lat="42.0415800" lon="-6.7030400">
        <ele>925.3</ele>
        <time>2019-08-16T13:15:37Z</time>
      </trkpt>
      <trkpt lat="42.0415580" lon="-6.7030850">
        <ele>925.3</ele>
        <time>2019-08-16T13:15:38Z</time>
      </trkpt>
      <trkpt lat="42.0415360" lon="-6.7031310">
        <ele>925.3</ele>
        <time>2019-08-16T13:15:39Z</time>
      </trkpt>
      <trkpt lat="42.0415140" lon="-6.7031760">
        <ele>925.4</ele>
        <time>2019-08-16T13:15:40Z</time>
      </trkpt>
      <trkpt lat="42.0414920" lon="-6.7032220">
        <ele>925.4</ele>
        <time>2019-08-16T13:15:41Z</time>
      </trkpt>
      <trkpt lat="42.0414700" lon="-6.7032660">
        <ele>925.4</ele>
        <time>2019-08-16T13:15:42Z</time>
      </trkpt>
      <trkpt lat="42.0414480" lon="-6.7033110">
        <ele>925.4</ele>
        <time>2019-08-16T13:15:43Z</time>
      </trkpt>
      <trkpt lat="42.0414260" lon="-6.7033570">
        <ele>925.5</ele>
        <time>2019-08-16T13:15:44Z</time>
      </trkpt>
      <trkpt lat="42.0414040" lon="-6.7034030">
        <ele>925.5</ele>
        <time>2019-08-16T13:15:45Z</time>
      </trkpt>
      <trkpt lat="42.0413840" lon="-6.7034470">
        <ele>925.5</ele>
        <time>2019-08-16T13:15:46Z</time>
      </trkpt>
      <trkpt lat="42.0413630" lon="-6.7034930">
        <ele>925.5</ele>
        <time>2019-08-16T13:15:47Z</time>
      </trkpt>
      <trkpt lat="42.0413410" lon="-6.7035370">
        <ele>925.5</ele>
        <time>2019-08-16T13:15:48Z</time>
      </trkpt>
      <trkpt lat="42.0413180" lon="-6.7035820">
        <ele>925.6</ele>
        <time>2019-08-16T13:15:49Z</time>
      </trkpt>
      <trkpt lat="42.0412960" lon="-6.7036250">
        <ele>925.6</ele>
        <time>2019-08-16T13:15:50Z</time>
      </trkpt>
      <trkpt lat="42.0412740" lon="-6.7036710">
        <ele>925.6</ele>
        <time>2019-08-16T13:15:51Z</time>
      </trkpt>
      <trkpt lat="42.0412520" lon="-6.7037150">
        <ele>925.6</ele>
        <time>2019-08-16T13:15:52Z</time>
      </trkpt>
      <trkpt lat="42.0412300" lon="-6.7037600">
        <ele>925.7</ele>
        <time>2019-08-16T13:15:53Z</time>
      </trkpt>
      <trkpt lat="42.0412070" lon="-6.7038040">
        <ele>925.7</ele>
        <time>2019-08-16T13:15:54Z</time>
      </trkpt>
      <trkpt lat="42.0411860" lon="-6.7038470">
        <ele>925.7</ele>
        <time>2019-08-16T13:15:55Z</time>
      </trkpt>
      <trkpt lat="42.0411660" lon="-6.7038910">
        <ele>925.8</ele>
        <time>2019-08-16T13:15:56Z</time>
      </trkpt>
      <trkpt lat="42.0411460" lon="-6.7039320">
        <ele>925.8</ele>
        <time>2019-08-16T13:15:57Z</time>
      </trkpt>
      <trkpt lat="42.0411250" lon="-6.7039750">
        <ele>925.9</ele>
        <time>2019-08-16T13:15:58Z</time>
      </trkpt>
      <trkpt lat="42.0411060" lon="-6.7040160">
        <ele>925.9</ele>
        <time>2019-08-16T13:15:59Z</time>
      </trkpt>
      <trkpt lat="42.0410850" lon="-6.7040570">
        <ele>926.0</ele>
        <time>2019-08-16T13:16:00Z</time>
      </trkpt>
      <trkpt lat="42.0410640" lon="-6.7041000">
        <ele>926.0</ele>
        <time>2019-08-16T13:16:01Z</time>
      </trkpt>
      <trkpt lat="42.0410430" lon="-6.7041430">
        <ele>926.1</ele>
        <time>2019-08-16T13:16:02Z</time>
      </trkpt>
      <trkpt lat="42.0410220" lon="-6.7041880">
        <ele>926.1</ele>
        <time>2019-08-16T13:16:03Z</time>
      </trkpt>
      <trkpt lat="42.0410010" lon="-6.7042320">
        <ele>926.2</ele>
        <time>2019-08-16T13:16:04Z</time>
      </trkpt>
      <trkpt lat="42.0409800" lon="-6.7042770">
        <ele>926.2</ele>
        <time>2019-08-16T13:16:05Z</time>
      </trkpt>
      <trkpt lat="42.0409570" lon="-6.7043220">
        <ele>926.2</ele>
        <time>2019-08-16T13:16:06Z</time>
      </trkpt>
      <trkpt lat="42.0409360" lon="-6.7043660">
        <ele>926.2</ele>
        <time>2019-08-16T13:16:07Z</time>
      </trkpt>
      <trkpt lat="42.0409150" lon="-6.7044100">
        <ele>926.3</ele>
        <time>2019-08-16T13:16:08Z</time>
      </trkpt>
      <trkpt lat="42.0408940" lon="-6.7044530">
        <ele>926.3</ele>
        <time>2019-08-16T13:16:09Z</time>
      </trkpt>
      <trkpt lat="42.0408740" lon="-6.7044960">
        <ele>926.3</ele>
        <time>2019-08-16T13:16:10Z</time>
      </trkpt>
      <trkpt lat="42.0408530" lon="-6.7045370">
        <ele>926.3</ele>
        <time>2019-08-16T13:16:11Z</time>
      </trkpt>
      <trkpt lat="42.0408320" lon="-6.7045780">
        <ele>926.3</ele>
        <time>2019-08-16T13:16:12Z</time>
      </trkpt>
      <trkpt lat="42.0408110" lon="-6.7046200">
        <ele>926.4</ele>
        <time>2019-08-16T13:16:13Z</time>
      </trkpt>
      <trkpt lat="42.0407900" lon="-6.7046600">
        <ele>926.4</ele>
        <time>2019-08-16T13:16:14Z</time>
      </trkpt>
      <trkpt lat="42.0407710" lon="-6.7047020">
        <ele>926.5</ele>
        <time>2019-08-16T13:16:15Z</time>
      </trkpt>
      <trkpt lat="42.0407510" lon="-6.7047430">
        <ele>926.5</ele>
        <time>2019-08-16T13:16:16Z</time>
      </trkpt>
      <trkpt lat="42.0407300" lon="-6.7047860">
        <ele>926.6</ele>
        <time>2019-08-16T13:16:17Z</time>
      </trkpt>
      <trkpt lat="42.0407100" lon="-6.7048290">
        <ele>926.7</ele>
        <time>2019-08-16T13:16:18Z</time>
      </trkpt>
      <trkpt lat="42.0406890" lon="-6.7048690">
        <ele>926.7</ele>
        <time>2019-08-16T13:16:19Z</time>
      </trkpt>
      <trkpt lat="42.0406690" lon="-6.7049090">
        <ele>926.8</ele>
        <time>2019-08-16T13:16:20Z</time>
      </trkpt>
      <trkpt lat="42.0406490" lon="-6.7049490">
        <ele>926.9</ele>
        <time>2019-08-16T13:16:21Z</time>
      </trkpt>
      <trkpt lat="42.0406280" lon="-6.7049900">
        <ele>926.9</ele>
        <time>2019-08-16T13:16:22Z</time>
      </trkpt>
      <trkpt lat="42.0406100" lon="-6.7050300">
        <ele>927.0</ele>
        <time>2019-08-16T13:16:23Z</time>
      </trkpt>
      <trkpt lat="42.0405910" lon="-6.7050700">
        <ele>927.1</ele>
        <time>2019-08-16T13:16:24Z</time>
      </trkpt>
      <trkpt lat="42.0405710" lon="-6.7051090">
        <ele>927.1</ele>
        <time>2019-08-16T13:16:25Z</time>
      </trkpt>
      <trkpt lat="42.0405510" lon="-6.7051480">
        <ele>927.2</ele>
        <time>2019-08-16T13:16:26Z</time>
      </trkpt>
      <trkpt lat="42.0405320" lon="-6.7051860">
        <ele>927.3</ele>
        <time>2019-08-16T13:16:27Z</time>
      </trkpt>
      <trkpt lat="42.0405120" lon="-6.7052250">
        <ele>927.4</ele>
        <time>2019-08-16T13:16:28Z</time>
      </trkpt>
      <trkpt lat="42.0404920" lon="-6.7052650">
        <ele>927.5</ele>
        <time>2019-08-16T13:16:29Z</time>
      </trkpt>
      <trkpt lat="42.0404710" lon="-6.7053040">
        <ele>927.6</ele>
        <time>2019-08-16T13:16:30Z</time>
      </trkpt>
      <trkpt lat="42.0404500" lon="-6.7053430">
        <ele>927.7</ele>
        <time>2019-08-16T13:16:31Z</time>
      </trkpt>
      <trkpt lat="42.0404310" lon="-6.7053810">
        <ele>927.8</ele>
        <time>2019-08-16T13:16:32Z</time>
      </trkpt>
      <trkpt lat="42.0404120" lon="-6.7054160">
        <ele>927.9</ele>
        <time>2019-08-16T13:16:33Z</time>
      </trkpt>
      <trkpt lat="42.0403950" lon="-6.7054500">
        <ele>928.0</ele>
        <time>2019-08-16T13:16:34Z</time>
      </trkpt>
      <trkpt lat="42.0403750" lon="-6.7054860">
        <ele>928.1</ele>
        <time>2019-08-16T13:16:35Z</time>
      </trkpt>
      <trkpt lat="42.0403560" lon="-6.7055230">
        <ele>928.2</ele>
        <time>2019-08-16T13:16:36Z</time>
      </trkpt>
      <trkpt lat="42.0403360" lon="-6.7055600">
        <ele>928.3</ele>
        <time>2019-08-16T13:16:37Z</time>
      </trkpt>
      <trkpt lat="42.0403150" lon="-6.7055960">
        <ele>928.4</ele>
        <time>2019-08-16T13:16:38Z</time>
      </trkpt>
      <trkpt lat="42.0402940" lon="-6.7056320">
        <ele>928.5</ele>
        <time>2019-08-16T13:16:39Z</time>
      </trkpt>
      <trkpt lat="42.0402730" lon="-6.7056690">
        <ele>928.6</ele>
        <time>2019-08-16T13:16:40Z</time>
      </trkpt>
      <trkpt lat="42.0402530" lon="-6.7057050">
        <ele>928.7</ele>
        <time>2019-08-16T13:16:41Z</time>
      </trkpt>
      <trkpt lat="42.0402330" lon="-6.7057410">
        <ele>928.8</ele>
        <time>2019-08-16T13:16:42Z</time>
      </trkpt>
      <trkpt lat="42.0402130" lon="-6.7057770">
        <ele>928.8</ele>
        <time>2019-08-16T13:16:43Z</time>
      </trkpt>
      <trkpt lat="42.0401940" lon="-6.7058130">
        <ele>928.9</ele>
        <time>2019-08-16T13:16:44Z</time>
      </trkpt>
      <trkpt lat="42.0401740" lon="-6.7058470">
        <ele>929.0</ele>
        <time>2019-08-16T13:16:45Z</time>
      </trkpt>
      <trkpt lat="42.0401550" lon="-6.7058810">
        <ele>929.1</ele>
        <time>2019-08-16T13:16:46Z</time>
      </trkpt>
      <trkpt lat="42.0401350" lon="-6.7059150">
        <ele>929.2</ele>
        <time>2019-08-16T13:16:47Z</time>
      </trkpt>
      <trkpt lat="42.0401160" lon="-6.7059500">
        <ele>929.2</ele>
        <time>2019-08-16T13:16:48Z</time>
      </trkpt>
      <trkpt lat="42.0400960" lon="-6.7059850">
        <ele>929.3</ele>
        <time>2019-08-16T13:16:49Z</time>
      </trkpt>
      <trkpt lat="42.0400750" lon="-6.7060200">
        <ele>929.4</ele>
        <time>2019-08-16T13:16:50Z</time>
      </trkpt>
      <trkpt lat="42.0400540" lon="-6.7060550">
        <ele>929.4</ele>
        <time>2019-08-16T13:16:51Z</time>
      </trkpt>
      <trkpt lat="42.0400330" lon="-6.7060910">
        <ele>929.5</ele>
        <time>2019-08-16T13:16:52Z</time>
      </trkpt>
      <trkpt lat="42.0400120" lon="-6.7061270">
        <ele>929.5</ele>
        <time>2019-08-16T13:16:53Z</time>
      </trkpt>
      <trkpt lat="42.0399910" lon="-6.7061640">
        <ele>929.6</ele>
        <time>2019-08-16T13:16:54Z</time>
      </trkpt>
      <trkpt lat="42.0399690" lon="-6.7062000">
        <ele>929.6</ele>
        <time>2019-08-16T13:16:55Z</time>
      </trkpt>
      <trkpt lat="42.0399470" lon="-6.7062360">
        <ele>929.7</ele>
        <time>2019-08-16T13:16:56Z</time>
      </trkpt>
      <trkpt lat="42.0399240" lon="-6.7062720">
        <ele>929.7</ele>
        <time>2019-08-16T13:16:57Z</time>
      </trkpt>
      <trkpt lat="42.0399030" lon="-6.7063100">
        <ele>929.7</ele>
        <time>2019-08-16T13:16:58Z</time>
      </trkpt>
      <trkpt lat="42.0398800" lon="-6.7063470">
        <ele>929.7</ele>
        <time>2019-08-16T13:16:59Z</time>
      </trkpt>
      <trkpt lat="42.0398570" lon="-6.7063850">
        <ele>929.7</ele>
        <time>2019-08-16T13:17:00Z</time>
      </trkpt>
      <trkpt lat="42.0398340" lon="-6.7064220">
        <ele>929.7</ele>
        <time>2019-08-16T13:17:01Z</time>
      </trkpt>
      <trkpt lat="42.0398100" lon="-6.7064600">
        <ele>929.7</ele>
        <time>2019-08-16T13:17:02Z</time>
      </trkpt>
      <trkpt lat="42.0397860" lon="-6.7064970">
        <ele>929.7</ele>
        <time>2019-08-16T13:17:03Z</time>
      </trkpt>
      <trkpt lat="42.0397630" lon="-6.7065330">
        <ele>929.7</ele>
        <time>2019-08-16T13:17:04Z</time>
      </trkpt>
      <trkpt lat="42.0397400" lon="-6.7065680">
        <ele>929.7</ele>
        <time>2019-08-16T13:17:05Z</time>
      </trkpt>
      <trkpt lat="42.0397170" lon="-6.7066040">
        <ele>929.8</ele>
        <time>2019-08-16T13:17:06Z</time>
      </trkpt>
      <trkpt lat="42.0396940" lon="-6.7066410">
        <ele>929.8</ele>
        <time>2019-08-16T13:17:07Z</time>
      </trkpt>
      <trkpt lat="42.0396710" lon="-6.7066780">
        <ele>929.8</ele>
        <time>2019-08-16T13:17:08Z</time>
      </trkpt>
      <trkpt lat="42.0396470" lon="-6.7067140">
        <ele>929.8</ele>
        <time>2019-08-16T13:17:09Z</time>
      </trkpt>
      <trkpt lat="42.0396220" lon="-6.7067510">
        <ele>929.8</ele>
        <time>2019-08-16T13:17:10Z</time>
      </trkpt>
      <trkpt lat="42.0395980" lon="-6.7067890">
        <ele>929.8</ele>
        <time>2019-08-16T13:17:11Z</time>
      </trkpt>
      <trkpt lat="42.0395750" lon="-6.7068280">
        <ele>929.8</ele>
        <time>2019-08-16T13:17:12Z</time>
      </trkpt>
      <trkpt lat="42.0395510" lon="-6.7068660">
        <ele>929.8</ele>
        <time>2019-08-16T13:17:13Z</time>
      </trkpt>
      <trkpt lat="42.0395270" lon="-6.7069020">
        <ele>929.8</ele>
        <time>2019-08-16T13:17:14Z</time>
      </trkpt>
      <trkpt lat="42.0395040" lon="-6.7069360">
        <ele>929.9</ele>
        <time>2019-08-16T13:17:15Z</time>
      </trkpt>
      <trkpt lat="42.0394790" lon="-6.7069730">
        <ele>929.9</ele>
        <time>2019-08-16T13:17:16Z</time>
      </trkpt>
      <trkpt lat="42.0394540" lon="-6.7070110">
        <ele>929.9</ele>
        <time>2019-08-16T13:17:17Z</time>
      </trkpt>
      <trkpt lat="42.0394280" lon="-6.7070500">
        <ele>929.9</ele>
        <time>2019-08-16T13:17:18Z</time>
      </trkpt>
      <trkpt lat="42.0394010" lon="-6.7070890">
        <ele>929.9</ele>
        <time>2019-08-16T13:17:19Z</time>
      </trkpt>
      <trkpt lat="42.0393740" lon="-6.7071280">
        <ele>929.9</ele>
        <time>2019-08-16T13:17:20Z</time>
      </trkpt>
      <trkpt lat="42.0393460" lon="-6.7071660">
        <ele>929.9</ele>
        <time>2019-08-16T13:17:21Z</time>
      </trkpt>
      <trkpt lat="42.0393190" lon="-6.7072060">
        <ele>929.9</ele>
        <time>2019-08-16T13:17:22Z</time>
      </trkpt>
      <trkpt lat="42.0392920" lon="-6.7072450">
        <ele>929.9</ele>
        <time>2019-08-16T13:17:23Z</time>
      </trkpt>
      <trkpt lat="42.0392650" lon="-6.7072810">
        <ele>930.0</ele>
        <time>2019-08-16T13:17:24Z</time>
      </trkpt>
      <trkpt lat="42.0392380" lon="-6.7073170">
        <ele>930.0</ele>
        <time>2019-08-16T13:17:25Z</time>
      </trkpt>
      <trkpt lat="42.0392110" lon="-6.7073540">
        <ele>930.0</ele>
        <time>2019-08-16T13:17:26Z</time>
      </trkpt>
      <trkpt lat="42.0391830" lon="-6.7073920">
        <ele>930.0</ele>
        <time>2019-08-16T13:17:27Z</time>
      </trkpt>
      <trkpt lat="42.0391560" lon="-6.7074320">
        <ele>930.1</ele>
        <time>2019-08-16T13:17:28Z</time>
      </trkpt>
      <trkpt lat="42.0391280" lon="-6.7074710">
        <ele>930.1</ele>
        <time>2019-08-16T13:17:29Z</time>
      </trkpt>
      <trkpt lat="42.0391000" lon="-6.7075110">
        <ele>930.2</ele>
        <time>2019-08-16T13:17:30Z</time>
      </trkpt>
      <trkpt lat="42.0390720" lon="-6.7075510">
        <ele>930.2</ele>
        <time>2019-08-16T13:17:31Z</time>
      </trkpt>
      <trkpt lat="42.0390440" lon="-6.7075900">
        <ele>930.3</ele>
        <time>2019-08-16T13:17:32Z</time>
      </trkpt>
      <trkpt lat="42.0390150" lon="-6.7076290">
        <ele>930.3</ele>
        <time>2019-08-16T13:17:33Z</time>
      </trkpt>
      <trkpt lat="42.0389870" lon="-6.7076680">
        <ele>930.4</ele>
        <time>2019-08-16T13:17:34Z</time>
      </trkpt>
      <trkpt lat="42.0389580" lon="-6.7077080">
        <ele>930.4</ele>
        <time>2019-08-16T13:17:35Z</time>
      </trkpt>
      <trkpt lat="42.0389290" lon="-6.7077480">
        <ele>930.5</ele>
        <time>2019-08-16T13:17:36Z</time>
      </trkpt>
      <trkpt lat="42.0388990" lon="-6.7077870">
        <ele>930.6</ele>
        <time>2019-08-16T13:17:37Z</time>
      </trkpt>
      <trkpt lat="42.0388700" lon="-6.7078250">
        <ele>930.7</ele>
        <time>2019-08-16T13:17:38Z</time>
      </trkpt>
      <trkpt lat="42.0388410" lon="-6.7078620">
        <ele>930.7</ele>
        <time>2019-08-16T13:17:39Z</time>
      </trkpt>
      <trkpt lat="42.0388160" lon="-6.7078980">
        <ele>930.8</ele>
        <time>2019-08-16T13:17:40Z</time>
      </trkpt>
      <trkpt lat="42.0387910" lon="-6.7079340">
        <ele>930.9</ele>
        <time>2019-08-16T13:17:41Z</time>
      </trkpt>
      <trkpt lat="42.0387660" lon="-6.7079680">
        <ele>930.9</ele>
        <time>2019-08-16T13:17:42Z</time>
      </trkpt>
      <trkpt lat="42.0387400" lon="-6.7080030">
        <ele>931.0</ele>
        <time>2019-08-16T13:17:43Z</time>
      </trkpt>
      <trkpt lat="42.0387140" lon="-6.7080390">
        <ele>931.1</ele>
        <time>2019-08-16T13:17:44Z</time>
      </trkpt>
      <trkpt lat="42.0386870" lon="-6.7080760">
        <ele>931.2</ele>
        <time>2019-08-16T13:17:45Z</time>
      </trkpt>
      <trkpt lat="42.0386600" lon="-6.7081130">
        <ele>931.2</ele>
        <time>2019-08-16T13:17:46Z</time>
      </trkpt>
      <trkpt lat="42.0386320" lon="-6.7081490">
        <ele>931.3</ele>
        <time>2019-08-16T13:17:47Z</time>
      </trkpt>
      <trkpt lat="42.0386030" lon="-6.7081870">
        <ele>931.4</ele>
        <time>2019-08-16T13:17:48Z</time>
      </trkpt>
      <trkpt lat="42.0385740" lon="-6.7082260">
        <ele>931.5</ele>
        <time>2019-08-16T13:17:49Z</time>
      </trkpt>
      <trkpt lat="42.0385460" lon="-6.7082630">
        <ele>931.6</ele>
        <time>2019-08-16T13:17:50Z</time>
      </trkpt>
      <trkpt lat="42.0385200" lon="-6.7083010">
        <ele>931.7</ele>
        <time>2019-08-16T13:17:51Z</time>
      </trkpt>
      <trkpt lat="42.0384930" lon="-6.7083400">
        <ele>931.9</ele>
        <time>2019-08-16T13:17:52Z</time>
      </trkpt>
      <trkpt lat="42.0384650" lon="-6.7083780">
        <ele>932.0</ele>
        <time>2019-08-16T13:17:53Z</time>
      </trkpt>
      <trkpt lat="42.0384350" lon="-6.7084130">
        <ele>932.1</ele>
        <time>2019-08-16T13:17:54Z</time>
      </trkpt>
      <trkpt lat="42.0384060" lon="-6.7084520">
        <ele>932.2</ele>
        <time>2019-08-16T13:17:55Z</time>
      </trkpt>
      <trkpt lat="42.0383780" lon="-6.7084910">
        <ele>932.4</ele>
        <time>2019-08-16T13:17:56Z</time>
      </trkpt>
      <trkpt lat="42.0383510" lon="-6.7085270">
        <ele>932.5</ele>
        <time>2019-08-16T13:17:57Z</time>
      </trkpt>
      <trkpt lat="42.0383220" lon="-6.7085630">
        <ele>932.6</ele>
        <time>2019-08-16T13:17:58Z</time>
      </trkpt>
      <trkpt lat="42.0382960" lon="-6.7086000">
        <ele>932.8</ele>
        <time>2019-08-16T13:17:59Z</time>
      </trkpt>
      <trkpt lat="42.0382680" lon="-6.7086370">
        <ele>932.9</ele>
        <time>2019-08-16T13:18:00Z</time>
      </trkpt>
      <trkpt lat="42.0382400" lon="-6.7086710">
        <ele>933.1</ele>
        <time>2019-08-16T13:18:01Z</time>
      </trkpt>
      <trkpt lat="42.0382140" lon="-6.7087060">
        <ele>933.3</ele>
        <time>2019-08-16T13:18:02Z</time>
      </trkpt>
      <trkpt lat="42.0381880" lon="-6.7087420">
        <ele>933.4</ele>
        <time>2019-08-16T13:18:03Z</time>
      </trkpt>
      <trkpt lat="42.0381620" lon="-6.7087760">
        <ele>933.6</ele>
        <time>2019-08-16T13:18:04Z</time>
      </trkpt>
      <trkpt lat="42.0381370" lon="-6.7088090">
        <ele>933.7</ele>
        <time>2019-08-16T13:18:05Z</time>
      </trkpt>
      <trkpt lat="42.0381160" lon="-6.7088420">
        <ele>933.9</ele>
        <time>2019-08-16T13:18:06Z</time>
      </trkpt>
      <trkpt lat="42.0380900" lon="-6.7088790">
        <ele>934.1</ele>
        <time>2019-08-16T13:18:07Z</time>
      </trkpt>
      <trkpt lat="42.0380620" lon="-6.7089160">
        <ele>934.2</ele>
        <time>2019-08-16T13:18:08Z</time>
      </trkpt>
      <trkpt lat="42.0380350" lon="-6.7089520">
        <ele>934.4</ele>
        <time>2019-08-16T13:18:09Z</time>
      </trkpt>
      <trkpt lat="42.0380090" lon="-6.7089860">
        <ele>934.6</ele>
        <time>2019-08-16T13:18:10Z</time>
      </trkpt>
      <trkpt lat="42.0379820" lon="-6.7090210">
        <ele>934.8</ele>
        <time>2019-08-16T13:18:11Z</time>
      </trkpt>
      <trkpt lat="42.0379580" lon="-6.7090560">
        <ele>934.9</ele>
        <time>2019-08-16T13:18:12Z</time>
      </trkpt>
      <trkpt lat="42.0379320" lon="-6.7090900">
        <ele>935.1</ele>
        <time>2019-08-16T13:18:13Z</time>
      </trkpt>
      <trkpt lat="42.0379080" lon="-6.7091230">
        <ele>935.2</ele>
        <time>2019-08-16T13:18:14Z</time>
      </trkpt>
      <trkpt lat="42.0378840" lon="-6.7091550">
        <ele>935.4</ele>
        <time>2019-08-16T13:18:15Z</time>
      </trkpt>
      <trkpt lat="42.0378620" lon="-6.7091860">
        <ele>935.5</ele>
        <time>2019-08-16T13:18:16Z</time>
      </trkpt>
      <trkpt lat="42.0378410" lon="-6.7092170">
        <ele>935.7</ele>
        <time>2019-08-16T13:18:17Z</time>
      </trkpt>
      <trkpt lat="42.0378180" lon="-6.7092480">
        <ele>935.8</ele>
        <time>2019-08-16T13:18:18Z</time>
      </trkpt>
      <trkpt lat="42.0377950" lon="-6.7092790">
        <ele>936.0</ele>
        <time>2019-08-16T13:18:19Z</time>
      </trkpt>
      <trkpt lat="42.0377740" lon="-6.7093080">
        <ele>936.1</ele>
        <time>2019-08-16T13:18:20Z</time>
      </trkpt>
      <trkpt lat="42.0377520" lon="-6.7093390">
        <ele>936.2</ele>
        <time>2019-08-16T13:18:21Z</time>
      </trkpt>
      <trkpt lat="42.0377310" lon="-6.7093690">
        <ele>936.4</ele>
        <time>2019-08-16T13:18:22Z</time>
      </trkpt>
      <trkpt lat="42.0377100" lon="-6.7093980">
        <ele>936.5</ele>
        <time>2019-08-16T13:18:23Z</time>
      </trkpt>
      <trkpt lat="42.0376880" lon="-6.7094260">
        <ele>936.6</ele>
        <time>2019-08-16T13:18:24Z</time>
      </trkpt>
      <trkpt lat="42.0376670" lon="-6.7094550">
        <ele>936.7</ele>
        <time>2019-08-16T13:18:25Z</time>
      </trkpt>
      <trkpt lat="42.0376460" lon="-6.7094840">
        <ele>936.9</ele>
        <time>2019-08-16T13:18:26Z</time>
      </trkpt>
      <trkpt lat="42.0376240" lon="-6.7095130">
        <ele>937.0</ele>
        <time>2019-08-16T13:18:27Z</time>
      </trkpt>
      <trkpt lat="42.0376040" lon="-6.7095430">
        <ele>937.2</ele>
        <time>2019-08-16T13:18:28Z</time>
      </trkpt>
      <trkpt lat="42.0375830" lon="-6.7095720">
        <ele>937.3</ele>
        <time>2019-08-16T13:18:29Z</time>
      </trkpt>
      <trkpt lat="42.0375640" lon="-6.7096000">
        <ele>937.4</ele>
        <time>2019-08-16T13:18:30Z</time>
      </trkpt>
      <trkpt lat="42.0375440" lon="-6.7096270">
        <ele>937.6</ele>
        <time>2019-08-16T13:18:31Z</time>
      </trkpt>
      <trkpt lat="42.0375260" lon="-6.7096540">
        <ele>937.7</ele>
        <time>2019-08-16T13:18:32Z</time>
      </trkpt>
      <trkpt lat="42.0375070" lon="-6.7096790">
        <ele>937.8</ele>
        <time>2019-08-16T13:18:33Z</time>
      </trkpt>
      <trkpt lat="42.0374870" lon="-6.7097050">
        <ele>938.0</ele>
        <time>2019-08-16T13:18:34Z</time>
      </trkpt>
      <trkpt lat="42.0374680" lon="-6.7097320">
        <ele>938.1</ele>
        <time>2019-08-16T13:18:35Z</time>
      </trkpt>
      <trkpt lat="42.0374480" lon="-6.7097600">
        <ele>938.2</ele>
        <time>2019-08-16T13:18:36Z</time>
      </trkpt>
      <trkpt lat="42.0374280" lon="-6.7097880">
        <ele>938.4</ele>
        <time>2019-08-16T13:18:37Z</time>
      </trkpt>
      <trkpt lat="42.0374080" lon="-6.7098160">
        <ele>938.5</ele>
        <time>2019-08-16T13:18:38Z</time>
      </trkpt>
      <trkpt lat="42.0373880" lon="-6.7098430">
        <ele>938.6</ele>
        <time>2019-08-16T13:18:39Z</time>
      </trkpt>
      <trkpt lat="42.0373670" lon="-6.7098720">
        <ele>938.8</ele>
        <time>2019-08-16T13:18:40Z</time>
      </trkpt>
      <trkpt lat="42.0373450" lon="-6.7099010">
        <ele>938.9</ele>
        <time>2019-08-16T13:18:41Z</time>
      </trkpt>
      <trkpt lat="42.0373250" lon="-6.7099300">
        <ele>939.0</ele>
        <time>2019-08-16T13:18:42Z</time>
      </trkpt>
      <trkpt lat="42.0373040" lon="-6.7099570">
        <ele>939.1</ele>
        <time>2019-08-16T13:18:43Z</time>
      </trkpt>
      <trkpt lat="42.0372850" lon="-6.7099840">
        <ele>939.3</ele>
        <time>2019-08-16T13:18:44Z</time>
      </trkpt>
      <trkpt lat="42.0372660" lon="-6.7100100">
        <ele>939.4</ele>
        <time>2019-08-16T13:18:45Z</time>
      </trkpt>
      <trkpt lat="42.0372340" lon="-6.7100630">
        <ele>939.8</ele>
        <time>2019-08-16T13:18:47Z</time>
      </trkpt>
      <trkpt lat="42.0372270" lon="-6.7101150">
        <ele>939.9</ele>
        <time>2019-08-16T13:18:49Z</time>
      </trkpt>
      <trkpt lat="42.0372460" lon="-6.7101590">
        <ele>940.0</ele>
        <time>2019-08-16T13:18:51Z</time>
      </trkpt>
      <trkpt lat="42.0372710" lon="-6.7101910">
        <ele>940.0</ele>
        <time>2019-08-16T13:18:53Z</time>
      </trkpt>
      <trkpt lat="42.0372830" lon="-6.7102040">
        <ele>940.1</ele>
        <time>2019-08-16T13:18:56Z</time>
      </trkpt>
      <trkpt lat="42.0372270" lon="-6.7101250">
        <ele>940.2</ele>
        <time>2019-08-16T13:25:36Z</time>
      </trkpt>
      <trkpt lat="42.0371840" lon="-6.7101200">
        <ele>940.3</ele>
        <time>2019-08-16T13:25:41Z</time>
      </trkpt>
      <trkpt lat="42.0371590" lon="-6.7101500">
        <ele>941.0</ele>
        <time>2019-08-16T13:25:43Z</time>
      </trkpt>
      <trkpt lat="42.0371290" lon="-6.7101910">
        <ele>941.1</ele>
        <time>2019-08-16T13:25:45Z</time>
      </trkpt>
      <trkpt lat="42.0370970" lon="-6.7102320">
        <ele>941.1</ele>
        <time>2019-08-16T13:25:47Z</time>
      </trkpt>
      <trkpt lat="42.0370670" lon="-6.7102780">
        <ele>941.2</ele>
        <time>2019-08-16T13:25:49Z</time>
      </trkpt>
      <trkpt lat="42.0370330" lon="-6.7103220">
        <ele>941.3</ele>
        <time>2019-08-16T13:25:51Z</time>
      </trkpt>
      <trkpt lat="42.0370010" lon="-6.7103670">
        <ele>941.4</ele>
        <time>2019-08-16T13:25:53Z</time>
      </trkpt>
      <trkpt lat="42.0369660" lon="-6.7104130">
        <ele>941.4</ele>
        <time>2019-08-16T13:25:55Z</time>
      </trkpt>
      <trkpt lat="42.0369300" lon="-6.7104610">
        <ele>941.5</ele>
        <time>2019-08-16T13:25:57Z</time>
      </trkpt>
      <trkpt lat="42.0368950" lon="-6.7105090">
        <ele>941.6</ele>
        <time>2019-08-16T13:25:59Z</time>
      </trkpt>
      <trkpt lat="42.0368600" lon="-6.7105600">
        <ele>941.7</ele>
        <time>2019-08-16T13:26:01Z</time>
      </trkpt>
      <trkpt lat="42.0368240" lon="-6.7106080">
        <ele>941.8</ele>
        <time>2019-08-16T13:26:03Z</time>
      </trkpt>
      <trkpt lat="42.0367880" lon="-6.7106560">
        <ele>941.9</ele>
        <time>2019-08-16T13:26:05Z</time>
      </trkpt>
      <trkpt lat="42.0367490" lon="-6.7107050">
        <ele>942.0</ele>
        <time>2019-08-16T13:26:07Z</time>
      </trkpt>
      <trkpt lat="42.0367120" lon="-6.7107570">
        <ele>942.1</ele>
        <time>2019-08-16T13:26:09Z</time>
      </trkpt>
      <trkpt lat="42.0366930" lon="-6.7107830">
        <ele>942.2</ele>
        <time>2019-08-16T13:26:10Z</time>
      </trkpt>
      <trkpt lat="42.0366550" lon="-6.7108360">
        <ele>942.3</ele>
        <time>2019-08-16T13:26:12Z</time>
      </trkpt>
      <trkpt lat="42.0366360" lon="-6.7108630">
        <ele>942.4</ele>
        <time>2019-08-16T13:26:13Z</time>
      </trkpt>
      <trkpt lat="42.0366160" lon="-6.7108910">
        <ele>942.5</ele>
        <time>2019-08-16T13:26:14Z</time>
      </trkpt>
      <trkpt lat="42.0365960" lon="-6.7109180">
        <ele>942.5</ele>
        <time>2019-08-16T13:26:15Z</time>
      </trkpt>
      <trkpt lat="42.0365760" lon="-6.7109460">
        <ele>942.6</ele>
        <time>2019-08-16T13:26:16Z</time>
      </trkpt>
      <trkpt lat="42.0365560" lon="-6.7109720">
        <ele>942.7</ele>
        <time>2019-08-16T13:26:17Z</time>
      </trkpt>
      <trkpt lat="42.0365370" lon="-6.7109990">
        <ele>942.8</ele>
        <time>2019-08-16T13:26:18Z</time>
      </trkpt>
      <trkpt lat="42.0365170" lon="-6.7110250">
        <ele>942.8</ele>
        <time>2019-08-16T13:26:19Z</time>
      </trkpt>
      <trkpt lat="42.0364980" lon="-6.7110520">
        <ele>942.9</ele>
        <time>2019-08-16T13:26:20Z</time>
      </trkpt>
      <trkpt lat="42.0364780" lon="-6.7110770">
        <ele>943.0</ele>
        <time>2019-08-16T13:26:21Z</time>
      </trkpt>
      <trkpt lat="42.0364580" lon="-6.7111040">
        <ele>943.1</ele>
        <time>2019-08-16T13:26:22Z</time>
      </trkpt>
      <trkpt lat="42.0364390" lon="-6.7111320">
        <ele>943.1</ele>
        <time>2019-08-16T13:26:23Z</time>
      </trkpt>
      <trkpt lat="42.0364200" lon="-6.7111580">
        <ele>943.2</ele>
        <time>2019-08-16T13:26:24Z</time>
      </trkpt>
      <trkpt lat="42.0364000" lon="-6.7111830">
        <ele>943.3</ele>
        <time>2019-08-16T13:26:25Z</time>
      </trkpt>
      <trkpt lat="42.0363800" lon="-6.7112090">
        <ele>943.4</ele>
        <time>2019-08-16T13:26:26Z</time>
      </trkpt>
      <trkpt lat="42.0363590" lon="-6.7112350">
        <ele>943.5</ele>
        <time>2019-08-16T13:26:27Z</time>
      </trkpt>
      <trkpt lat="42.0363400" lon="-6.7112620">
        <ele>943.5</ele>
        <time>2019-08-16T13:26:28Z</time>
      </trkpt>
      <trkpt lat="42.0363210" lon="-6.7112910">
        <ele>943.6</ele>
        <time>2019-08-16T13:26:29Z</time>
      </trkpt>
      <trkpt lat="42.0363010" lon="-6.7113190">
        <ele>943.7</ele>
        <time>2019-08-16T13:26:30Z</time>
      </trkpt>
      <trkpt lat="42.0362800" lon="-6.7113460">
        <ele>943.8</ele>
        <time>2019-08-16T13:26:31Z</time>
      </trkpt>
      <trkpt lat="42.0362610" lon="-6.7113730">
        <ele>943.9</ele>
        <time>2019-08-16T13:26:32Z</time>
      </trkpt>
      <trkpt lat="42.0362390" lon="-6.7113990">
        <ele>944.0</ele>
        <time>2019-08-16T13:26:33Z</time>
      </trkpt>
      <trkpt lat="42.0362170" lon="-6.7114260">
        <ele>944.1</ele>
        <time>2019-08-16T13:26:34Z</time>
      </trkpt>
      <trkpt lat="42.0361960" lon="-6.7114530">
        <ele>944.1</ele>
        <time>2019-08-16T13:26:35Z</time>
      </trkpt>
      <trkpt lat="42.0361760" lon="-6.7114810">
        <ele>944.2</ele>
        <time>2019-08-16T13:26:36Z</time>
      </trkpt>
      <trkpt lat="42.0361560" lon="-6.7115090">
        <ele>944.3</ele>
        <time>2019-08-16T13:26:37Z</time>
      </trkpt>
      <trkpt lat="42.0361360" lon="-6.7115350">
        <ele>944.4</ele>
        <time>2019-08-16T13:26:38Z</time>
      </trkpt>
      <trkpt lat="42.0361170" lon="-6.7115610">
        <ele>944.4</ele>
        <time>2019-08-16T13:26:39Z</time>
      </trkpt>
      <trkpt lat="42.0360970" lon="-6.7115850">
        <ele>944.5</ele>
        <time>2019-08-16T13:26:40Z</time>
      </trkpt>
      <trkpt lat="42.0360580" lon="-6.7116440">
        <ele>944.7</ele>
        <time>2019-08-16T13:26:42Z</time>
      </trkpt>
      <trkpt lat="42.0360370" lon="-6.7116730">
        <ele>944.8</ele>
        <time>2019-08-16T13:26:43Z</time>
      </trkpt>
      <trkpt lat="42.0360140" lon="-6.7117030">
        <ele>944.9</ele>
        <time>2019-08-16T13:26:44Z</time>
      </trkpt>
      <trkpt lat="42.0359920" lon="-6.7117340">
        <ele>945.0</ele>
        <time>2019-08-16T13:26:45Z</time>
      </trkpt>
      <trkpt lat="42.0359700" lon="-6.7117650">
        <ele>945.1</ele>
        <time>2019-08-16T13:26:46Z</time>
      </trkpt>
      <trkpt lat="42.0359480" lon="-6.7117940">
        <ele>945.2</ele>
        <time>2019-08-16T13:26:47Z</time>
      </trkpt>
      <trkpt lat="42.0359250" lon="-6.7118220">
        <ele>945.3</ele>
        <time>2019-08-16T13:26:48Z</time>
      </trkpt>
      <trkpt lat="42.0359000" lon="-6.7118530">
        <ele>945.4</ele>
        <time>2019-08-16T13:26:49Z</time>
      </trkpt>
      <trkpt lat="42.0358760" lon="-6.7118850">
        <ele>945.5</ele>
        <time>2019-08-16T13:26:50Z</time>
      </trkpt>
      <trkpt lat="42.0358520" lon="-6.7119180">
        <ele>945.6</ele>
        <time>2019-08-16T13:26:51Z</time>
      </trkpt>
      <trkpt lat="42.0358280" lon="-6.7119510">
        <ele>945.8</ele>
        <time>2019-08-16T13:26:52Z</time>
      </trkpt>
      <trkpt lat="42.0358050" lon="-6.7119840">
        <ele>945.9</ele>
        <time>2019-08-16T13:26:53Z</time>
      </trkpt>
      <trkpt lat="42.0357800" lon="-6.7120170">
        <ele>946.0</ele>
        <time>2019-08-16T13:26:54Z</time>
      </trkpt>
      <trkpt lat="42.0357570" lon="-6.7120510">
        <ele>946.1</ele>
        <time>2019-08-16T13:26:55Z</time>
      </trkpt>
      <trkpt lat="42.0357330" lon="-6.7120840">
        <ele>946.3</ele>
        <time>2019-08-16T13:26:56Z</time>
      </trkpt>
      <trkpt lat="42.0357090" lon="-6.7121180">
        <ele>946.4</ele>
        <time>2019-08-16T13:26:57Z</time>
      </trkpt>
      <trkpt lat="42.0356840" lon="-6.7121510">
        <ele>946.5</ele>
        <time>2019-08-16T13:26:58Z</time>
      </trkpt>
      <trkpt lat="42.0356590" lon="-6.7121840">
        <ele>946.7</ele>
        <time>2019-08-16T13:26:59Z</time>
      </trkpt>
      <trkpt lat="42.0356330" lon="-6.7122190">
        <ele>946.8</ele>
        <time>2019-08-16T13:27:00Z</time>
      </trkpt>
      <trkpt lat="42.0356070" lon="-6.7122520">
        <ele>946.9</ele>
        <time>2019-08-16T13:27:01Z</time>
      </trkpt>
      <trkpt lat="42.0355820" lon="-6.7122870">
        <ele>947.1</ele>
        <time>2019-08-16T13:27:02Z</time>
      </trkpt>
      <trkpt lat="42.0355580" lon="-6.7123230">
        <ele>947.2</ele>
        <time>2019-08-16T13:27:03Z</time>
      </trkpt>
      <trkpt lat="42.0355320" lon="-6.7123590">
        <ele>947.4</ele>
        <time>2019-08-16T13:27:04Z</time>
      </trkpt>
      <trkpt lat="42.0355060" lon="-6.7123920">
        <ele>947.5</ele>
        <time>2019-08-16T13:27:05Z</time>
      </trkpt>
      <trkpt lat="42.0354810" lon="-6.7124260">
        <ele>947.7</ele>
        <time>2019-08-16T13:27:06Z</time>
      </trkpt>
      <trkpt lat="42.0354560" lon="-6.7124610">
        <ele>947.8</ele>
        <time>2019-08-16T13:27:07Z</time>
      </trkpt>
      <trkpt lat="42.0354310" lon="-6.7124970">
        <ele>948.0</ele>
        <time>2019-08-16T13:27:08Z</time>
      </trkpt>
      <trkpt lat="42.0354060" lon="-6.7125320">
        <ele>948.1</ele>
        <time>2019-08-16T13:27:09Z</time>
      </trkpt>
      <trkpt lat="42.0353790" lon="-6.7125670">
        <ele>948.3</ele>
        <time>2019-08-16T13:27:10Z</time>
      </trkpt>
      <trkpt lat="42.0353540" lon="-6.7126010">
        <ele>948.4</ele>
        <time>2019-08-16T13:27:11Z</time>
      </trkpt>
      <trkpt lat="42.0353280" lon="-6.7126370">
        <ele>948.6</ele>
        <time>2019-08-16T13:27:12Z</time>
      </trkpt>
      <trkpt lat="42.0353020" lon="-6.7126750">
        <ele>948.7</ele>
        <time>2019-08-16T13:27:13Z</time>
      </trkpt>
      <trkpt lat="42.0352750" lon="-6.7127120">
        <ele>948.8</ele>
        <time>2019-08-16T13:27:14Z</time>
      </trkpt>
      <trkpt lat="42.0352480" lon="-6.7127480">
        <ele>949.0</ele>
        <time>2019-08-16T13:27:15Z</time>
      </trkpt>
      <trkpt lat="42.0352210" lon="-6.7127870">
        <ele>949.1</ele>
        <time>2019-08-16T13:27:16Z</time>
      </trkpt>
      <trkpt lat="42.0351920" lon="-6.7128250">
        <ele>949.2</ele>
        <time>2019-08-16T13:27:17Z</time>
      </trkpt>
      <trkpt lat="42.0351640" lon="-6.7128640">
        <ele>949.3</ele>
        <time>2019-08-16T13:27:18Z</time>
      </trkpt>
      <trkpt lat="42.0351350" lon="-6.7129030">
        <ele>949.5</ele>
        <time>2019-08-16T13:27:19Z</time>
      </trkpt>
      <trkpt lat="42.0351060" lon="-6.7129420">
        <ele>949.6</ele>
        <time>2019-08-16T13:27:20Z</time>
      </trkpt>
      <trkpt lat="42.0350780" lon="-6.7129820">
        <ele>949.7</ele>
        <time>2019-08-16T13:27:21Z</time>
      </trkpt>
      <trkpt lat="42.0350480" lon="-6.7130210">
        <ele>949.8</ele>
        <time>2019-08-16T13:27:22Z</time>
      </trkpt>
      <trkpt lat="42.0350170" lon="-6.7130580">
        <ele>949.9</ele>
        <time>2019-08-16T13:27:23Z</time>
      </trkpt>
      <trkpt lat="42.0349860" lon="-6.7130970">
        <ele>950.1</ele>
        <time>2019-08-16T13:27:24Z</time>
      </trkpt>
      <trkpt lat="42.0349550" lon="-6.7131370">
        <ele>950.2</ele>
        <time>2019-08-16T13:27:25Z</time>
      </trkpt>
      <trkpt lat="42.0349250" lon="-6.7131800">
        <ele>950.3</ele>
        <time>2019-08-16T13:27:26Z</time>
      </trkpt>
      <trkpt lat="42.0348960" lon="-6.7132220">
        <ele>950.4</ele>
        <time>2019-08-16T13:27:27Z</time>
      </trkpt>
      <trkpt lat="42.0348660" lon="-6.7132640">
        <ele>950.6</ele>
        <time>2019-08-16T13:27:28Z</time>
      </trkpt>
      <trkpt lat="42.0348360" lon="-6.7133050">
        <ele>950.7</ele>
        <time>2019-08-16T13:27:29Z</time>
      </trkpt>
      <trkpt lat="42.0348070" lon="-6.7133470">
        <ele>950.8</ele>
        <time>2019-08-16T13:27:30Z</time>
      </trkpt>
      <trkpt lat="42.0347760" lon="-6.7133880">
        <ele>950.9</ele>
        <time>2019-08-16T13:27:31Z</time>
      </trkpt>
      <trkpt lat="42.0347450" lon="-6.7134280">
        <ele>951.1</ele>
        <time>2019-08-16T13:27:32Z</time>
      </trkpt>
      <trkpt lat="42.0347160" lon="-6.7134680">
        <ele>951.2</ele>
        <time>2019-08-16T13:27:33Z</time>
      </trkpt>
      <trkpt lat="42.0346870" lon="-6.7135070">
        <ele>951.3</ele>
        <time>2019-08-16T13:27:34Z</time>
      </trkpt>
      <trkpt lat="42.0346590" lon="-6.7135470">
        <ele>951.4</ele>
        <time>2019-08-16T13:27:35Z</time>
      </trkpt>
      <trkpt lat="42.0346290" lon="-6.7135850">
        <ele>951.5</ele>
        <time>2019-08-16T13:27:36Z</time>
      </trkpt>
      <trkpt lat="42.0346010" lon="-6.7136240">
        <ele>951.6</ele>
        <time>2019-08-16T13:27:37Z</time>
      </trkpt>
      <trkpt lat="42.0345730" lon="-6.7136620">
        <ele>951.7</ele>
        <time>2019-08-16T13:27:38Z</time>
      </trkpt>
      <trkpt lat="42.0345450" lon="-6.7137000">
        <ele>951.8</ele>
        <time>2019-08-16T13:27:39Z</time>
      </trkpt>
      <trkpt lat="42.0345170" lon="-6.7137380">
        <ele>951.9</ele>
        <time>2019-08-16T13:27:40Z</time>
      </trkpt>
      <trkpt lat="42.0344880" lon="-6.7137760">
        <ele>952.0</ele>
        <time>2019-08-16T13:27:41Z</time>
      </trkpt>
      <trkpt lat="42.0344600" lon="-6.7138140">
        <ele>952.0</ele>
        <time>2019-08-16T13:27:42Z</time>
      </trkpt>
      <trkpt lat="42.0344310" lon="-6.7138520">
        <ele>952.1</ele>
        <time>2019-08-16T13:27:43Z</time>
      </trkpt>
      <trkpt lat="42.0344030" lon="-6.7138900">
        <ele>952.3</ele>
        <time>2019-08-16T13:27:44Z</time>
      </trkpt>
      <trkpt lat="42.0343750" lon="-6.7139280">
        <ele>952.4</ele>
        <time>2019-08-16T13:27:45Z</time>
      </trkpt>
      <trkpt lat="42.0343480" lon="-6.7139660">
        <ele>952.5</ele>
        <time>2019-08-16T13:27:46Z</time>
      </trkpt>
      <trkpt lat="42.0343200" lon="-6.7140010">
        <ele>952.6</ele>
        <time>2019-08-16T13:27:47Z</time>
      </trkpt>
      <trkpt lat="42.0342920" lon="-6.7140370">
        <ele>952.7</ele>
        <time>2019-08-16T13:27:48Z</time>
      </trkpt>
      <trkpt lat="42.0342660" lon="-6.7140740">
        <ele>952.8</ele>
        <time>2019-08-16T13:27:49Z</time>
      </trkpt>
      <trkpt lat="42.0342380" lon="-6.7141090">
        <ele>952.9</ele>
        <time>2019-08-16T13:27:50Z</time>
      </trkpt>
      <trkpt lat="42.0342110" lon="-6.7141440">
        <ele>953.0</ele>
        <time>2019-08-16T13:27:51Z</time>
      </trkpt>
      <trkpt lat="42.0341830" lon="-6.7141800">
        <ele>953.1</ele>
        <time>2019-08-16T13:27:52Z</time>
      </trkpt>
      <trkpt lat="42.0341560" lon="-6.7142160">
        <ele>953.2</ele>
        <time>2019-08-16T13:27:53Z</time>
      </trkpt>
      <trkpt lat="42.0341310" lon="-6.7142510">
        <ele>953.2</ele>
        <time>2019-08-16T13:27:54Z</time>
      </trkpt>
      <trkpt lat="42.0341060" lon="-6.7142860">
        <ele>953.3</ele>
        <time>2019-08-16T13:27:55Z</time>
      </trkpt>
      <trkpt lat="42.0340820" lon="-6.7143210">
        <ele>953.4</ele>
        <time>2019-08-16T13:27:56Z</time>
      </trkpt>
      <trkpt lat="42.0340600" lon="-6.7143550">
        <ele>953.5</ele>
        <time>2019-08-16T13:27:57Z</time>
      </trkpt>
      <trkpt lat="42.0340360" lon="-6.7143880">
        <ele>953.6</ele>
        <time>2019-08-16T13:27:58Z</time>
      </trkpt>
      <trkpt lat="42.0340140" lon="-6.7144200">
        <ele>953.7</ele>
        <time>2019-08-16T13:27:59Z</time>
      </trkpt>
      <trkpt lat="42.0339920" lon="-6.7144530">
        <ele>953.8</ele>
        <time>2019-08-16T13:28:00Z</time>
      </trkpt>
      <trkpt lat="42.0339700" lon="-6.7144870">
        <ele>953.9</ele>
        <time>2019-08-16T13:28:01Z</time>
      </trkpt>
      <trkpt lat="42.0339480" lon="-6.7145210">
        <ele>954.0</ele>
        <time>2019-08-16T13:28:02Z</time>
      </trkpt>
      <trkpt lat="42.0339280" lon="-6.7145560">
        <ele>954.1</ele>
        <time>2019-08-16T13:28:03Z</time>
      </trkpt>
      <trkpt lat="42.0339070" lon="-6.7145910">
        <ele>954.2</ele>
        <time>2019-08-16T13:28:04Z</time>
      </trkpt>
      <trkpt lat="42.0338850" lon="-6.7146270">
        <ele>954.4</ele>
        <time>2019-08-16T13:28:05Z</time>
      </trkpt>
      <trkpt lat="42.0338640" lon="-6.7146620">
        <ele>954.5</ele>
        <time>2019-08-16T13:28:06Z</time>
      </trkpt>
      <trkpt lat="42.0338420" lon="-6.7146970">
        <ele>954.6</ele>
        <time>2019-08-16T13:28:07Z</time>
      </trkpt>
      <trkpt lat="42.0338210" lon="-6.7147340">
        <ele>954.7</ele>
        <time>2019-08-16T13:28:08Z</time>
      </trkpt>
      <trkpt lat="42.0338000" lon="-6.7147710">
        <ele>954.8</ele>
        <time>2019-08-16T13:28:09Z</time>
      </trkpt>
      <trkpt lat="42.0337780" lon="-6.7148060">
        <ele>954.9</ele>
        <time>2019-08-16T13:28:10Z</time>
      </trkpt>
      <trkpt lat="42.0337590" lon="-6.7148430">
        <ele>955.0</ele>
        <time>2019-08-16T13:28:11Z</time>
      </trkpt>
      <trkpt lat="42.0337380" lon="-6.7148810">
        <ele>955.1</ele>
        <time>2019-08-16T13:28:12Z</time>
      </trkpt>
      <trkpt lat="42.0337190" lon="-6.7149200">
        <ele>955.2</ele>
        <time>2019-08-16T13:28:13Z</time>
      </trkpt>
      <trkpt lat="42.0336990" lon="-6.7149570">
        <ele>955.3</ele>
        <time>2019-08-16T13:28:14Z</time>
      </trkpt>
      <trkpt lat="42.0336790" lon="-6.7149940">
        <ele>955.4</ele>
        <time>2019-08-16T13:28:15Z</time>
      </trkpt>
      <trkpt lat="42.0336600" lon="-6.7150340">
        <ele>955.4</ele>
        <time>2019-08-16T13:28:16Z</time>
      </trkpt>
      <trkpt lat="42.0336410" lon="-6.7150730">
        <ele>955.5</ele>
        <time>2019-08-16T13:28:17Z</time>
      </trkpt>
      <trkpt lat="42.0336230" lon="-6.7151130">
        <ele>955.6</ele>
        <time>2019-08-16T13:28:18Z</time>
      </trkpt>
      <trkpt lat="42.0336040" lon="-6.7151530">
        <ele>955.7</ele>
        <time>2019-08-16T13:28:19Z</time>
      </trkpt>
      <trkpt lat="42.0335860" lon="-6.7151930">
        <ele>955.8</ele>
        <time>2019-08-16T13:28:20Z</time>
      </trkpt>
      <trkpt lat="42.0335680" lon="-6.7152320">
        <ele>955.9</ele>
        <time>2019-08-16T13:28:21Z</time>
      </trkpt>
      <trkpt lat="42.0335500" lon="-6.7152730">
        <ele>955.9</ele>
        <time>2019-08-16T13:28:22Z</time>
      </trkpt>
      <trkpt lat="42.0335340" lon="-6.7153160">
        <ele>956.0</ele>
        <time>2019-08-16T13:28:23Z</time>
      </trkpt>
      <trkpt lat="42.0335180" lon="-6.7153580">
        <ele>956.1</ele>
        <time>2019-08-16T13:28:24Z</time>
      </trkpt>
      <trkpt lat="42.0335030" lon="-6.7154000">
        <ele>956.2</ele>
        <time>2019-08-16T13:28:25Z</time>
      </trkpt>
      <trkpt lat="42.0334870" lon="-6.7154430">
        <ele>956.3</ele>
        <time>2019-08-16T13:28:26Z</time>
      </trkpt>
      <trkpt lat="42.0334720" lon="-6.7154850">
        <ele>956.4</ele>
        <time>2019-08-16T13:28:27Z</time>
      </trkpt>
      <trkpt lat="42.0334580" lon="-6.7155270">
        <ele>956.4</ele>
        <time>2019-08-16T13:28:28Z</time>
      </trkpt>
      <trkpt lat="42.0334440" lon="-6.7155700">
        <ele>956.5</ele>
        <time>2019-08-16T13:28:29Z</time>
      </trkpt>
      <trkpt lat="42.0334300" lon="-6.7156130">
        <ele>956.6</ele>
        <time>2019-08-16T13:28:30Z</time>
      </trkpt>
      <trkpt lat="42.0334160" lon="-6.7156570">
        <ele>956.6</ele>
        <time>2019-08-16T13:28:31Z</time>
      </trkpt>
      <trkpt lat="42.0334020" lon="-6.7157010">
        <ele>956.7</ele>
        <time>2019-08-16T13:28:32Z</time>
      </trkpt>
      <trkpt lat="42.0333890" lon="-6.7157450">
        <ele>956.8</ele>
        <time>2019-08-16T13:28:33Z</time>
      </trkpt>
      <trkpt lat="42.0333770" lon="-6.7157900">
        <ele>956.8</ele>
        <time>2019-08-16T13:28:34Z</time>
      </trkpt>
      <trkpt lat="42.0333650" lon="-6.7158350">
        <ele>956.9</ele>
        <time>2019-08-16T13:28:35Z</time>
      </trkpt>
      <trkpt lat="42.0333530" lon="-6.7158800">
        <ele>956.9</ele>
        <time>2019-08-16T13:28:36Z</time>
      </trkpt>
      <trkpt lat="42.0333430" lon="-6.7159250">
        <ele>957.0</ele>
        <time>2019-08-16T13:28:37Z</time>
      </trkpt>
      <trkpt lat="42.0333320" lon="-6.7159710">
        <ele>957.1</ele>
        <time>2019-08-16T13:28:38Z</time>
      </trkpt>
      <trkpt lat="42.0333230" lon="-6.7160170">
        <ele>957.1</ele>
        <time>2019-08-16T13:28:39Z</time>
      </trkpt>
      <trkpt lat="42.0333140" lon="-6.7160640">
        <ele>957.2</ele>
        <time>2019-08-16T13:28:40Z</time>
      </trkpt>
      <trkpt lat="42.0333050" lon="-6.7161110">
        <ele>957.2</ele>
        <time>2019-08-16T13:28:41Z</time>
      </trkpt>
      <trkpt lat="42.0332970" lon="-6.7161580">
        <ele>957.3</ele>
        <time>2019-08-16T13:28:42Z</time>
      </trkpt>
      <trkpt lat="42.0332880" lon="-6.7162070">
        <ele>957.4</ele>
        <time>2019-08-16T13:28:43Z</time>
      </trkpt>
      <trkpt lat="42.0332790" lon="-6.7162560">
        <ele>957.4</ele>
        <time>2019-08-16T13:28:44Z</time>
      </trkpt>
      <trkpt lat="42.0332700" lon="-6.7163030">
        <ele>957.5</ele>
        <time>2019-08-16T13:28:45Z</time>
      </trkpt>
      <trkpt lat="42.0332620" lon="-6.7163500">
        <ele>957.5</ele>
        <time>2019-08-16T13:28:46Z</time>
      </trkpt>
      <trkpt lat="42.0332560" lon="-6.7163980">
        <ele>957.6</ele>
        <time>2019-08-16T13:28:47Z</time>
      </trkpt>
      <trkpt lat="42.0332490" lon="-6.7164450">
        <ele>957.6</ele>
        <time>2019-08-16T13:28:48Z</time>
      </trkpt>
      <trkpt lat="42.0332420" lon="-6.7164940">
        <ele>957.7</ele>
        <time>2019-08-16T13:28:49Z</time>
      </trkpt>
      <trkpt lat="42.0332360" lon="-6.7165420">
        <ele>957.7</ele>
        <time>2019-08-16T13:28:50Z</time>
      </trkpt>
      <trkpt lat="42.0332310" lon="-6.7165900">
        <ele>957.8</ele>
        <time>2019-08-16T13:28:51Z</time>
      </trkpt>
      <trkpt lat="42.0332260" lon="-6.7166390">
        <ele>957.8</ele>
        <time>2019-08-16T13:28:52Z</time>
      </trkpt>
      <trkpt lat="42.0332210" lon="-6.7166870">
        <ele>957.9</ele>
        <time>2019-08-16T13:28:53Z</time>
      </trkpt>
      <trkpt lat="42.0332150" lon="-6.7167360">
        <ele>957.9</ele>
        <time>2019-08-16T13:28:54Z</time>
      </trkpt>
      <trkpt lat="42.0332090" lon="-6.7167850">
        <ele>958.0</ele>
        <time>2019-08-16T13:28:55Z</time>
      </trkpt>
      <trkpt lat="42.0332030" lon="-6.7168350">
        <ele>958.0</ele>
        <time>2019-08-16T13:28:56Z</time>
      </trkpt>
      <trkpt lat="42.0331960" lon="-6.7168860">
        <ele>958.1</ele>
        <time>2019-08-16T13:28:57Z</time>
      </trkpt>
      <trkpt lat="42.0331900" lon="-6.7169390">
        <ele>958.1</ele>
        <time>2019-08-16T13:28:58Z</time>
      </trkpt>
      <trkpt lat="42.0331830" lon="-6.7169910">
        <ele>958.1</ele>
        <time>2019-08-16T13:28:59Z</time>
      </trkpt>
      <trkpt lat="42.0331770" lon="-6.7170440">
        <ele>958.2</ele>
        <time>2019-08-16T13:29:00Z</time>
      </trkpt>
      <trkpt lat="42.0331710" lon="-6.7170980">
        <ele>958.2</ele>
        <time>2019-08-16T13:29:01Z</time>
      </trkpt>
      <trkpt lat="42.0331650" lon="-6.7171550">
        <ele>958.2</ele>
        <time>2019-08-16T13:29:02Z</time>
      </trkpt>
      <trkpt lat="42.0331600" lon="-6.7172110">
        <ele>958.3</ele>
        <time>2019-08-16T13:29:03Z</time>
      </trkpt>
      <trkpt lat="42.0331550" lon="-6.7172690">
        <ele>958.3</ele>
        <time>2019-08-16T13:29:04Z</time>
      </trkpt>
      <trkpt lat="42.0331480" lon="-6.7173260">
        <ele>958.3</ele>
        <time>2019-08-16T13:29:05Z</time>
      </trkpt>
      <trkpt lat="42.0331410" lon="-6.7173850">
        <ele>958.4</ele>
        <time>2019-08-16T13:29:06Z</time>
      </trkpt>
      <trkpt lat="42.0331380" lon="-6.7174450">
        <ele>958.4</ele>
        <time>2019-08-16T13:29:07Z</time>
      </trkpt>
      <trkpt lat="42.0331350" lon="-6.7175050">
        <ele>958.4</ele>
        <time>2019-08-16T13:29:08Z</time>
      </trkpt>
      <trkpt lat="42.0331330" lon="-6.7175630">
        <ele>958.5</ele>
        <time>2019-08-16T13:29:09Z</time>
      </trkpt>
      <trkpt lat="42.0331270" lon="-6.7176200">
        <ele>958.4</ele>
        <time>2019-08-16T13:29:10Z</time>
      </trkpt>
      <trkpt lat="42.0331190" lon="-6.7176800">
        <ele>958.4</ele>
        <time>2019-08-16T13:29:11Z</time>
      </trkpt>
      <trkpt lat="42.0331090" lon="-6.7177430">
        <ele>958.4</ele>
        <time>2019-08-16T13:29:12Z</time>
      </trkpt>
      <trkpt lat="42.0331010" lon="-6.7178080">
        <ele>958.4</ele>
        <time>2019-08-16T13:29:13Z</time>
      </trkpt>
      <trkpt lat="42.0330960" lon="-6.7178710">
        <ele>958.4</ele>
        <time>2019-08-16T13:29:14Z</time>
      </trkpt>
      <trkpt lat="42.0330900" lon="-6.7179350">
        <ele>958.4</ele>
        <time>2019-08-16T13:29:15Z</time>
      </trkpt>
      <trkpt lat="42.0330840" lon="-6.7180000">
        <ele>958.3</ele>
        <time>2019-08-16T13:29:16Z</time>
      </trkpt>
      <trkpt lat="42.0330770" lon="-6.7180660">
        <ele>958.3</ele>
        <time>2019-08-16T13:29:17Z</time>
      </trkpt>
      <trkpt lat="42.0330700" lon="-6.7181330">
        <ele>958.2</ele>
        <time>2019-08-16T13:29:18Z</time>
      </trkpt>
      <trkpt lat="42.0330620" lon="-6.7182020">
        <ele>958.1</ele>
        <time>2019-08-16T13:29:19Z</time>
      </trkpt>
      <trkpt lat="42.0330550" lon="-6.7182730">
        <ele>957.9</ele>
        <time>2019-08-16T13:29:20Z</time>
      </trkpt>
      <trkpt lat="42.0330490" lon="-6.7183460">
        <ele>957.8</ele>
        <time>2019-08-16T13:29:21Z</time>
      </trkpt>
      <trkpt lat="42.0330420" lon="-6.7184190">
        <ele>957.6</ele>
        <time>2019-08-16T13:29:22Z</time>
      </trkpt>
      <trkpt lat="42.0330350" lon="-6.7184950">
        <ele>957.4</ele>
        <time>2019-08-16T13:29:23Z</time>
      </trkpt>
      <trkpt lat="42.0330280" lon="-6.7185740">
        <ele>957.3</ele>
        <time>2019-08-16T13:29:24Z</time>
      </trkpt>
      <trkpt lat="42.0330200" lon="-6.7186510">
        <ele>957.1</ele>
        <time>2019-08-16T13:29:25Z</time>
      </trkpt>
      <trkpt lat="42.0330120" lon="-6.7187270">
        <ele>957.0</ele>
        <time>2019-08-16T13:29:26Z</time>
      </trkpt>
      <trkpt lat="42.0330040" lon="-6.7188040">
        <ele>956.8</ele>
        <time>2019-08-16T13:29:27Z</time>
      </trkpt>
      <trkpt lat="42.0329960" lon="-6.7188800">
        <ele>956.7</ele>
        <time>2019-08-16T13:29:28Z</time>
      </trkpt>
      <trkpt lat="42.0329880" lon="-6.7189570">
        <ele>956.5</ele>
        <time>2019-08-16T13:29:29Z</time>
      </trkpt>
      <trkpt lat="42.0329810" lon="-6.7190340">
        <ele>956.4</ele>
        <time>2019-08-16T13:29:30Z</time>
      </trkpt>
      <trkpt lat="42.0329750" lon="-6.7191130">
        <ele>956.2</ele>
        <time>2019-08-16T13:29:31Z</time>
      </trkpt>
      <trkpt lat="42.0329690" lon="-6.7191910">
        <ele>956.1</ele>
        <time>2019-08-16T13:29:32Z</time>
      </trkpt>
      <trkpt lat="42.0329620" lon="-6.7192680">
        <ele>955.9</ele>
        <time>2019-08-16T13:29:33Z</time>
      </trkpt>
      <trkpt lat="42.0329540" lon="-6.7193440">
        <ele>955.8</ele>
        <time>2019-08-16T13:29:34Z</time>
      </trkpt>
      <trkpt lat="42.0329460" lon="-6.7194180">
        <ele>955.6</ele>
        <time>2019-08-16T13:29:35Z</time>
      </trkpt>
      <trkpt lat="42.0329370" lon="-6.7194930">
        <ele>955.4</ele>
        <time>2019-08-16T13:29:36Z</time>
      </trkpt>
      <trkpt lat="42.0329300" lon="-6.7195680">
        <ele>955.3</ele>
        <time>2019-08-16T13:29:37Z</time>
      </trkpt>
      <trkpt lat="42.0329220" lon="-6.7196430">
        <ele>955.1</ele>
        <time>2019-08-16T13:29:38Z</time>
      </trkpt>
      <trkpt lat="42.0329140" lon="-6.7197190">
        <ele>954.9</ele>
        <time>2019-08-16T13:29:39Z</time>
      </trkpt>
      <trkpt lat="42.0329080" lon="-6.7197950">
        <ele>954.8</ele>
        <time>2019-08-16T13:29:40Z</time>
      </trkpt>
      <trkpt lat="42.0329040" lon="-6.7198690">
        <ele>954.6</ele>
        <time>2019-08-16T13:29:41Z</time>
      </trkpt>
      <trkpt lat="42.0328980" lon="-6.7199440">
        <ele>954.4</ele>
        <time>2019-08-16T13:29:42Z</time>
      </trkpt>
      <trkpt lat="42.0328900" lon="-6.7200200">
        <ele>954.3</ele>
        <time>2019-08-16T13:29:43Z</time>
      </trkpt>
      <trkpt lat="42.0328810" lon="-6.7200950">
        <ele>954.2</ele>
        <time>2019-08-16T13:29:44Z</time>
      </trkpt>
      <trkpt lat="42.0328730" lon="-6.7201690">
        <ele>954.0</ele>
        <time>2019-08-16T13:29:45Z</time>
      </trkpt>
      <trkpt lat="42.0328650" lon="-6.7202410">
        <ele>953.9</ele>
        <time>2019-08-16T13:29:46Z</time>
      </trkpt>
      <trkpt lat="42.0328560" lon="-6.7203110">
        <ele>953.8</ele>
        <time>2019-08-16T13:29:47Z</time>
      </trkpt>
      <trkpt lat="42.0328480" lon="-6.7203810">
        <ele>953.7</ele>
        <time>2019-08-16T13:29:48Z</time>
      </trkpt>
      <trkpt lat="42.0328400" lon="-6.7204510">
        <ele>953.6</ele>
        <time>2019-08-16T13:29:49Z</time>
      </trkpt>
      <trkpt lat="42.0328320" lon="-6.7205220">
        <ele>953.6</ele>
        <time>2019-08-16T13:29:50Z</time>
      </trkpt>
      <trkpt lat="42.0328250" lon="-6.7205930">
        <ele>953.5</ele>
        <time>2019-08-16T13:29:51Z</time>
      </trkpt>
      <trkpt lat="42.0328180" lon="-6.7206640">
        <ele>953.5</ele>
        <time>2019-08-16T13:29:52Z</time>
      </trkpt>
      <trkpt lat="42.0328100" lon="-6.7207350">
        <ele>953.5</ele>
        <time>2019-08-16T13:29:53Z</time>
      </trkpt>
      <trkpt lat="42.0328020" lon="-6.7208070">
        <ele>953.5</ele>
        <time>2019-08-16T13:29:54Z</time>
      </trkpt>
      <trkpt lat="42.0327950" lon="-6.7208780">
        <ele>953.4</ele>
        <time>2019-08-16T13:29:55Z</time>
      </trkpt>
      <trkpt lat="42.0327870" lon="-6.7209510">
        <ele>953.4</ele>
        <time>2019-08-16T13:29:56Z</time>
      </trkpt>
      <trkpt lat="42.0327790" lon="-6.7210230">
        <ele>953.4</ele>
        <time>2019-08-16T13:29:57Z</time>
      </trkpt>
      <trkpt lat="42.0327700" lon="-6.7210950">
        <ele>953.4</ele>
        <time>2019-08-16T13:29:58Z</time>
      </trkpt>
      <trkpt lat="42.0327610" lon="-6.7211680">
        <ele>953.4</ele>
        <time>2019-08-16T13:29:59Z</time>
      </trkpt>
      <trkpt lat="42.0327510" lon="-6.7212400">
        <ele>953.4</ele>
        <time>2019-08-16T13:30:00Z</time>
      </trkpt>
      <trkpt lat="42.0327410" lon="-6.7213100">
        <ele>953.4</ele>
        <time>2019-08-16T13:30:01Z</time>
      </trkpt>
      <trkpt lat="42.0327330" lon="-6.7213810">
        <ele>953.4</ele>
        <time>2019-08-16T13:30:02Z</time>
      </trkpt>
      <trkpt lat="42.0327250" lon="-6.7214530">
        <ele>953.4</ele>
        <time>2019-08-16T13:30:03Z</time>
      </trkpt>
      <trkpt lat="42.0327170" lon="-6.7215250">
        <ele>953.4</ele>
        <time>2019-08-16T13:30:04Z</time>
      </trkpt>
      <trkpt lat="42.0327100" lon="-6.7215980">
        <ele>953.4</ele>
        <time>2019-08-16T13:30:05Z</time>
      </trkpt>
      <trkpt lat="42.0327030" lon="-6.7216710">
        <ele>953.4</ele>
        <time>2019-08-16T13:30:06Z</time>
      </trkpt>
      <trkpt lat="42.0326940" lon="-6.7217430">
        <ele>953.4</ele>
        <time>2019-08-16T13:30:07Z</time>
      </trkpt>
      <trkpt lat="42.0326860" lon="-6.7218140">
        <ele>953.4</ele>
        <time>2019-08-16T13:30:08Z</time>
      </trkpt>
      <trkpt lat="42.0326780" lon="-6.7218850">
        <ele>953.4</ele>
        <time>2019-08-16T13:30:09Z</time>
      </trkpt>
      <trkpt lat="42.0326700" lon="-6.7219550">
        <ele>953.4</ele>
        <time>2019-08-16T13:30:10Z</time>
      </trkpt>
      <trkpt lat="42.0326620" lon="-6.7220260">
        <ele>953.4</ele>
        <time>2019-08-16T13:30:11Z</time>
      </trkpt>
      <trkpt lat="42.0326530" lon="-6.7220960">
        <ele>953.4</ele>
        <time>2019-08-16T13:30:12Z</time>
      </trkpt>
      <trkpt lat="42.0326450" lon="-6.7221670">
        <ele>953.4</ele>
        <time>2019-08-16T13:30:13Z</time>
      </trkpt>
      <trkpt lat="42.0326370" lon="-6.7222360">
        <ele>953.4</ele>
        <time>2019-08-16T13:30:14Z</time>
      </trkpt>
      <trkpt lat="42.0326290" lon="-6.7223050">
        <ele>953.4</ele>
        <time>2019-08-16T13:30:15Z</time>
      </trkpt>
      <trkpt lat="42.0326210" lon="-6.7223750">
        <ele>953.4</ele>
        <time>2019-08-16T13:30:16Z</time>
      </trkpt>
      <trkpt lat="42.0326120" lon="-6.7224450">
        <ele>953.4</ele>
        <time>2019-08-16T13:30:17Z</time>
      </trkpt>
      <trkpt lat="42.0326040" lon="-6.7225150">
        <ele>953.4</ele>
        <time>2019-08-16T13:30:18Z</time>
      </trkpt>
      <trkpt lat="42.0325970" lon="-6.7225840">
        <ele>953.4</ele>
        <time>2019-08-16T13:30:19Z</time>
      </trkpt>
      <trkpt lat="42.0325890" lon="-6.7226530">
        <ele>953.4</ele>
        <time>2019-08-16T13:30:20Z</time>
      </trkpt>
      <trkpt lat="42.0325810" lon="-6.7227210">
        <ele>953.4</ele>
        <time>2019-08-16T13:30:21Z</time>
      </trkpt>
      <trkpt lat="42.0325740" lon="-6.7227880">
        <ele>953.4</ele>
        <time>2019-08-16T13:30:22Z</time>
      </trkpt>
      <trkpt lat="42.0325670" lon="-6.7228540">
        <ele>953.4</ele>
        <time>2019-08-16T13:30:23Z</time>
      </trkpt>
      <trkpt lat="42.0325590" lon="-6.7229200">
        <ele>953.4</ele>
        <time>2019-08-16T13:30:24Z</time>
      </trkpt>
      <trkpt lat="42.0325520" lon="-6.7229860">
        <ele>953.5</ele>
        <time>2019-08-16T13:30:25Z</time>
      </trkpt>
      <trkpt lat="42.0325430" lon="-6.7230500">
        <ele>953.5</ele>
        <time>2019-08-16T13:30:26Z</time>
      </trkpt>
      <trkpt lat="42.0325360" lon="-6.7231130">
        <ele>953.5</ele>
        <time>2019-08-16T13:30:27Z</time>
      </trkpt>
      <trkpt lat="42.0325290" lon="-6.7231770">
        <ele>953.6</ele>
        <time>2019-08-16T13:30:28Z</time>
      </trkpt>
      <trkpt lat="42.0325220" lon="-6.7232410">
        <ele>953.6</ele>
        <time>2019-08-16T13:30:29Z</time>
      </trkpt>
      <trkpt lat="42.0325140" lon="-6.7233030">
        <ele>953.7</ele>
        <time>2019-08-16T13:30:30Z</time>
      </trkpt>
      <trkpt lat="42.0325070" lon="-6.7233660">
        <ele>953.8</ele>
        <time>2019-08-16T13:30:31Z</time>
      </trkpt>
      <trkpt lat="42.0325010" lon="-6.7234260">
        <ele>953.9</ele>
        <time>2019-08-16T13:30:32Z</time>
      </trkpt>
      <trkpt lat="42.0324940" lon="-6.7234860">
        <ele>954.0</ele>
        <time>2019-08-16T13:30:33Z</time>
      </trkpt>
      <trkpt lat="42.0324880" lon="-6.7235450">
        <ele>954.1</ele>
        <time>2019-08-16T13:30:34Z</time>
      </trkpt>
      <trkpt lat="42.0324820" lon="-6.7236050">
        <ele>954.2</ele>
        <time>2019-08-16T13:30:35Z</time>
      </trkpt>
      <trkpt lat="42.0324760" lon="-6.7236640">
        <ele>954.4</ele>
        <time>2019-08-16T13:30:36Z</time>
      </trkpt>
      <trkpt lat="42.0324690" lon="-6.7237220">
        <ele>954.5</ele>
        <time>2019-08-16T13:30:37Z</time>
      </trkpt>
      <trkpt lat="42.0324620" lon="-6.7237810">
        <ele>954.6</ele>
        <time>2019-08-16T13:30:38Z</time>
      </trkpt>
      <trkpt lat="42.0324560" lon="-6.7238380">
        <ele>954.7</ele>
        <time>2019-08-16T13:30:39Z</time>
      </trkpt>
      <trkpt lat="42.0324490" lon="-6.7238940">
        <ele>954.8</ele>
        <time>2019-08-16T13:30:40Z</time>
      </trkpt>
      <trkpt lat="42.0324430" lon="-6.7239490">
        <ele>954.9</ele>
        <time>2019-08-16T13:30:41Z</time>
      </trkpt>
      <trkpt lat="42.0324370" lon="-6.7240040">
        <ele>955.0</ele>
        <time>2019-08-16T13:30:42Z</time>
      </trkpt>
      <trkpt lat="42.0324320" lon="-6.7240600">
        <ele>955.1</ele>
        <time>2019-08-16T13:30:43Z</time>
      </trkpt>
      <trkpt lat="42.0324250" lon="-6.7241150">
        <ele>955.2</ele>
        <time>2019-08-16T13:30:44Z</time>
      </trkpt>
      <trkpt lat="42.0324200" lon="-6.7241700">
        <ele>955.2</ele>
        <time>2019-08-16T13:30:45Z</time>
      </trkpt>
      <trkpt lat="42.0324150" lon="-6.7242240">
        <ele>955.3</ele>
        <time>2019-08-16T13:30:46Z</time>
      </trkpt>
      <trkpt lat="42.0324080" lon="-6.7242790">
        <ele>955.4</ele>
        <time>2019-08-16T13:30:47Z</time>
      </trkpt>
      <trkpt lat="42.0324020" lon="-6.7243340">
        <ele>955.5</ele>
        <time>2019-08-16T13:30:48Z</time>
      </trkpt>
      <trkpt lat="42.0323970" lon="-6.7243870">
        <ele>955.6</ele>
        <time>2019-08-16T13:30:49Z</time>
      </trkpt>
      <trkpt lat="42.0323920" lon="-6.7244390">
        <ele>955.7</ele>
        <time>2019-08-16T13:30:50Z</time>
      </trkpt>
      <trkpt lat="42.0323860" lon="-6.7244930">
        <ele>955.8</ele>
        <time>2019-08-16T13:30:51Z</time>
      </trkpt>
      <trkpt lat="42.0323810" lon="-6.7245450">
        <ele>955.9</ele>
        <time>2019-08-16T13:30:52Z</time>
      </trkpt>
      <trkpt lat="42.0323770" lon="-6.7245970">
        <ele>956.0</ele>
        <time>2019-08-16T13:30:53Z</time>
      </trkpt>
      <trkpt lat="42.0323720" lon="-6.7246480">
        <ele>956.1</ele>
        <time>2019-08-16T13:30:54Z</time>
      </trkpt>
      <trkpt lat="42.0323660" lon="-6.7246990">
        <ele>956.1</ele>
        <time>2019-08-16T13:30:55Z</time>
      </trkpt>
      <trkpt lat="42.0323610" lon="-6.7247480">
        <ele>956.2</ele>
        <time>2019-08-16T13:30:56Z</time>
      </trkpt>
      <trkpt lat="42.0323560" lon="-6.7247960">
        <ele>956.3</ele>
        <time>2019-08-16T13:30:57Z</time>
      </trkpt>
      <trkpt lat="42.0323500" lon="-6.7248440">
        <ele>956.4</ele>
        <time>2019-08-16T13:30:58Z</time>
      </trkpt>
      <trkpt lat="42.0323430" lon="-6.7248920">
        <ele>956.4</ele>
        <time>2019-08-16T13:30:59Z</time>
      </trkpt>
      <trkpt lat="42.0323390" lon="-6.7249400">
        <ele>956.5</ele>
        <time>2019-08-16T13:31:00Z</time>
      </trkpt>
      <trkpt lat="42.0323330" lon="-6.7249870">
        <ele>956.6</ele>
        <time>2019-08-16T13:31:01Z</time>
      </trkpt>
      <trkpt lat="42.0323280" lon="-6.7250360">
        <ele>956.7</ele>
        <time>2019-08-16T13:31:02Z</time>
      </trkpt>
      <trkpt lat="42.0323230" lon="-6.7250840">
        <ele>956.8</ele>
        <time>2019-08-16T13:31:03Z</time>
      </trkpt>
      <trkpt lat="42.0323180" lon="-6.7251330">
        <ele>956.9</ele>
        <time>2019-08-16T13:31:04Z</time>
      </trkpt>
      <trkpt lat="42.0323130" lon="-6.7251830">
        <ele>957.0</ele>
        <time>2019-08-16T13:31:05Z</time>
      </trkpt>
      <trkpt lat="42.0323080" lon="-6.7252330">
        <ele>957.1</ele>
        <time>2019-08-16T13:31:06Z</time>
      </trkpt>
      <trkpt lat="42.0323030" lon="-6.7252820">
        <ele>957.2</ele>
        <time>2019-08-16T13:31:07Z</time>
      </trkpt>
      <trkpt lat="42.0322990" lon="-6.7253310">
        <ele>957.2</ele>
        <time>2019-08-16T13:31:08Z</time>
      </trkpt>
      <trkpt lat="42.0322920" lon="-6.7253810">
        <ele>957.3</ele>
        <time>2019-08-16T13:31:09Z</time>
      </trkpt>
      <trkpt lat="42.0322880" lon="-6.7254300">
        <ele>957.3</ele>
        <time>2019-08-16T13:31:10Z</time>
      </trkpt>
      <trkpt lat="42.0322830" lon="-6.7254810">
        <ele>957.3</ele>
        <time>2019-08-16T13:31:11Z</time>
      </trkpt>
      <trkpt lat="42.0322770" lon="-6.7255330">
        <ele>957.4</ele>
        <time>2019-08-16T13:31:12Z</time>
      </trkpt>
      <trkpt lat="42.0322710" lon="-6.7255850">
        <ele>957.4</ele>
        <time>2019-08-16T13:31:13Z</time>
      </trkpt>
      <trkpt lat="42.0322650" lon="-6.7256370">
        <ele>957.6</ele>
        <time>2019-08-16T13:31:14Z</time>
      </trkpt>
      <trkpt lat="42.0322590" lon="-6.7256900">
        <ele>957.8</ele>
        <time>2019-08-16T13:31:15Z</time>
      </trkpt>
      <trkpt lat="42.0322530" lon="-6.7257420">
        <ele>957.9</ele>
        <time>2019-08-16T13:31:16Z</time>
      </trkpt>
      <trkpt lat="42.0322470" lon="-6.7257940">
        <ele>958.0</ele>
        <time>2019-08-16T13:31:17Z</time>
      </trkpt>
      <trkpt lat="42.0322410" lon="-6.7258460">
        <ele>958.1</ele>
        <time>2019-08-16T13:31:18Z</time>
      </trkpt>
      <trkpt lat="42.0322350" lon="-6.7258970">
        <ele>958.3</ele>
        <time>2019-08-16T13:31:19Z</time>
      </trkpt>
      <trkpt lat="42.0322310" lon="-6.7259490">
        <ele>958.4</ele>
        <time>2019-08-16T13:31:20Z</time>
      </trkpt>
      <trkpt lat="42.0322240" lon="-6.7259990">
        <ele>958.5</ele>
        <time>2019-08-16T13:31:21Z</time>
      </trkpt>
      <trkpt lat="42.0322180" lon="-6.7260520">
        <ele>958.6</ele>
        <time>2019-08-16T13:31:22Z</time>
      </trkpt>
      <trkpt lat="42.0322110" lon="-6.7261040">
        <ele>958.7</ele>
        <time>2019-08-16T13:31:23Z</time>
      </trkpt>
      <trkpt lat="42.0322050" lon="-6.7261560">
        <ele>958.8</ele>
        <time>2019-08-16T13:31:24Z</time>
      </trkpt>
      <trkpt lat="42.0321990" lon="-6.7262080">
        <ele>958.9</ele>
        <time>2019-08-16T13:31:25Z</time>
      </trkpt>
      <trkpt lat="42.0321940" lon="-6.7262590">
        <ele>959.0</ele>
        <time>2019-08-16T13:31:26Z</time>
      </trkpt>
      <trkpt lat="42.0321880" lon="-6.7263090">
        <ele>959.0</ele>
        <time>2019-08-16T13:31:27Z</time>
      </trkpt>
      <trkpt lat="42.0321830" lon="-6.7263610">
        <ele>959.1</ele>
        <time>2019-08-16T13:31:28Z</time>
      </trkpt>
      <trkpt lat="42.0321770" lon="-6.7264110">
        <ele>959.1</ele>
        <time>2019-08-16T13:31:29Z</time>
      </trkpt>
      <trkpt lat="42.0321720" lon="-6.7264610">
        <ele>959.2</ele>
        <time>2019-08-16T13:31:30Z</time>
      </trkpt>
      <trkpt lat="42.0321660" lon="-6.7265100">
        <ele>959.2</ele>
        <time>2019-08-16T13:31:31Z</time>
      </trkpt>
      <trkpt lat="42.0321600" lon="-6.7265600">
        <ele>959.2</ele>
        <time>2019-08-16T13:31:32Z</time>
      </trkpt>
      <trkpt lat="42.0321540" lon="-6.7266090">
        <ele>959.3</ele>
        <time>2019-08-16T13:31:33Z</time>
      </trkpt>
      <trkpt lat="42.0321480" lon="-6.7266600">
        <ele>959.3</ele>
        <time>2019-08-16T13:31:34Z</time>
      </trkpt>
      <trkpt lat="42.0321420" lon="-6.7267110">
        <ele>959.4</ele>
        <time>2019-08-16T13:31:35Z</time>
      </trkpt>
      <trkpt lat="42.0321370" lon="-6.7267610">
        <ele>959.4</ele>
        <time>2019-08-16T13:31:36Z</time>
      </trkpt>
      <trkpt lat="42.0321310" lon="-6.7268110">
        <ele>959.5</ele>
        <time>2019-08-16T13:31:37Z</time>
      </trkpt>
      <trkpt lat="42.0321270" lon="-6.7268610">
        <ele>959.5</ele>
        <time>2019-08-16T13:31:38Z</time>
      </trkpt>
      <trkpt lat="42.0321210" lon="-6.7269110">
        <ele>959.6</ele>
        <time>2019-08-16T13:31:39Z</time>
      </trkpt>
      <trkpt lat="42.0321150" lon="-6.7269600">
        <ele>959.7</ele>
        <time>2019-08-16T13:31:40Z</time>
      </trkpt>
      <trkpt lat="42.0321090" lon="-6.7270100">
        <ele>959.7</ele>
        <time>2019-08-16T13:31:41Z</time>
      </trkpt>
      <trkpt lat="42.0321040" lon="-6.7270590">
        <ele>959.8</ele>
        <time>2019-08-16T13:31:42Z</time>
      </trkpt>
      <trkpt lat="42.0320970" lon="-6.7271070">
        <ele>959.9</ele>
        <time>2019-08-16T13:31:43Z</time>
      </trkpt>
      <trkpt lat="42.0320910" lon="-6.7271540">
        <ele>960.0</ele>
        <time>2019-08-16T13:31:44Z</time>
      </trkpt>
      <trkpt lat="42.0320860" lon="-6.7272010">
        <ele>960.0</ele>
        <time>2019-08-16T13:31:45Z</time>
      </trkpt>
      <trkpt lat="42.0320800" lon="-6.7272470">
        <ele>960.1</ele>
        <time>2019-08-16T13:31:46Z</time>
      </trkpt>
      <trkpt lat="42.0320760" lon="-6.7272940">
        <ele>960.2</ele>
        <time>2019-08-16T13:31:47Z</time>
      </trkpt>
      <trkpt lat="42.0320720" lon="-6.7273410">
        <ele>960.3</ele>
        <time>2019-08-16T13:31:48Z</time>
      </trkpt>
      <trkpt lat="42.0320670" lon="-6.7273870">
        <ele>960.4</ele>
        <time>2019-08-16T13:31:49Z</time>
      </trkpt>
      <trkpt lat="42.0320620" lon="-6.7274320">
        <ele>960.5</ele>
        <time>2019-08-16T13:31:50Z</time>
      </trkpt>
      <trkpt lat="42.0320570" lon="-6.7274770">
        <ele>960.6</ele>
        <time>2019-08-16T13:31:51Z</time>
      </trkpt>
      <trkpt lat="42.0320510" lon="-6.7275200">
        <ele>960.7</ele>
        <time>2019-08-16T13:31:52Z</time>
      </trkpt>
      <trkpt lat="42.0320460" lon="-6.7275630">
        <ele>960.8</ele>
        <time>2019-08-16T13:31:53Z</time>
      </trkpt>
      <trkpt lat="42.0320400" lon="-6.7276060">
        <ele>960.9</ele>
        <time>2019-08-16T13:31:54Z</time>
      </trkpt>
      <trkpt lat="42.0320360" lon="-6.7276490">
        <ele>961.0</ele>
        <time>2019-08-16T13:31:55Z</time>
      </trkpt>
      <trkpt lat="42.0320300" lon="-6.7276920">
        <ele>961.1</ele>
        <time>2019-08-16T13:31:56Z</time>
      </trkpt>
      <trkpt lat="42.0320240" lon="-6.7277340">
        <ele>961.2</ele>
        <time>2019-08-16T13:31:57Z</time>
      </trkpt>
      <trkpt lat="42.0320190" lon="-6.7277760">
        <ele>961.3</ele>
        <time>2019-08-16T13:31:58Z</time>
      </trkpt>
      <trkpt lat="42.0320140" lon="-6.7278180">
        <ele>961.4</ele>
        <time>2019-08-16T13:31:59Z</time>
      </trkpt>
      <trkpt lat="42.0320100" lon="-6.7278610">
        <ele>961.5</ele>
        <time>2019-08-16T13:32:00Z</time>
      </trkpt>
      <trkpt lat="42.0320040" lon="-6.7279040">
        <ele>961.7</ele>
        <time>2019-08-16T13:32:01Z</time>
      </trkpt>
      <trkpt lat="42.0319990" lon="-6.7279470">
        <ele>961.8</ele>
        <time>2019-08-16T13:32:02Z</time>
      </trkpt>
      <trkpt lat="42.0319930" lon="-6.7279900">
        <ele>961.9</ele>
        <time>2019-08-16T13:32:03Z</time>
      </trkpt>
      <trkpt lat="42.0319880" lon="-6.7280340">
        <ele>962.1</ele>
        <time>2019-08-16T13:32:04Z</time>
      </trkpt>
      <trkpt lat="42.0319830" lon="-6.7280770">
        <ele>962.2</ele>
        <time>2019-08-16T13:32:05Z</time>
      </trkpt>
      <trkpt lat="42.0319790" lon="-6.7281210">
        <ele>962.3</ele>
        <time>2019-08-16T13:32:06Z</time>
      </trkpt>
      <trkpt lat="42.0319750" lon="-6.7281640">
        <ele>962.4</ele>
        <time>2019-08-16T13:32:07Z</time>
      </trkpt>
      <trkpt lat="42.0319700" lon="-6.7282070">
        <ele>962.6</ele>
        <time>2019-08-16T13:32:08Z</time>
      </trkpt>
      <trkpt lat="42.0319660" lon="-6.7282480">
        <ele>962.7</ele>
        <time>2019-08-16T13:32:09Z</time>
      </trkpt>
      <trkpt lat="42.0319620" lon="-6.7282890">
        <ele>962.9</ele>
        <time>2019-08-16T13:32:10Z</time>
      </trkpt>
      <trkpt lat="42.0319570" lon="-6.7283310">
        <ele>963.0</ele>
        <time>2019-08-16T13:32:11Z</time>
      </trkpt>
      <trkpt lat="42.0319530" lon="-6.7283720">
        <ele>963.2</ele>
        <time>2019-08-16T13:32:12Z</time>
      </trkpt>
      <trkpt lat="42.0319480" lon="-6.7284140">
        <ele>963.3</ele>
        <time>2019-08-16T13:32:13Z</time>
      </trkpt>
      <trkpt lat="42.0319440" lon="-6.7284560">
        <ele>963.4</ele>
        <time>2019-08-16T13:32:14Z</time>
      </trkpt>
      <trkpt lat="42.0319400" lon="-6.7284970">
        <ele>963.5</ele>
        <time>2019-08-16T13:32:15Z</time>
      </trkpt>
      <trkpt lat="42.0319350" lon="-6.7285390">
        <ele>963.6</ele>
        <time>2019-08-16T13:32:16Z</time>
      </trkpt>
      <trkpt lat="42.0319300" lon="-6.7285800">
        <ele>963.8</ele>
        <time>2019-08-16T13:32:17Z</time>
      </trkpt>
      <trkpt lat="42.0319250" lon="-6.7286220">
        <ele>963.9</ele>
        <time>2019-08-16T13:32:18Z</time>
      </trkpt>
      <trkpt lat="42.0319200" lon="-6.7286640">
        <ele>964.0</ele>
        <time>2019-08-16T13:32:19Z</time>
      </trkpt>
      <trkpt lat="42.0319160" lon="-6.7287060">
        <ele>964.1</ele>
        <time>2019-08-16T13:32:20Z</time>
      </trkpt>
      <trkpt lat="42.0319110" lon="-6.7287490">
        <ele>964.2</ele>
        <time>2019-08-16T13:32:21Z</time>
      </trkpt>
      <trkpt lat="42.0319070" lon="-6.7287900">
        <ele>964.3</ele>
        <time>2019-08-16T13:32:22Z</time>
      </trkpt>
      <trkpt lat="42.0319020" lon="-6.7288310">
        <ele>964.4</ele>
        <time>2019-08-16T13:32:23Z</time>
      </trkpt>
      <trkpt lat="42.0318970" lon="-6.7288730">
        <ele>964.6</ele>
        <time>2019-08-16T13:32:24Z</time>
      </trkpt>
      <trkpt lat="42.0318930" lon="-6.7289150">
        <ele>964.7</ele>
        <time>2019-08-16T13:32:25Z</time>
      </trkpt>
      <trkpt lat="42.0318880" lon="-6.7289570">
        <ele>964.8</ele>
        <time>2019-08-16T13:32:26Z</time>
      </trkpt>
      <trkpt lat="42.0318830" lon="-6.7289990">
        <ele>964.9</ele>
        <time>2019-08-16T13:32:27Z</time>
      </trkpt>
      <trkpt lat="42.0318790" lon="-6.7290410">
        <ele>965.0</ele>
        <time>2019-08-16T13:32:28Z</time>
      </trkpt>
      <trkpt lat="42.0318750" lon="-6.7290840">
        <ele>965.1</ele>
        <time>2019-08-16T13:32:29Z</time>
      </trkpt>
      <trkpt lat="42.0318690" lon="-6.7291260">
        <ele>965.2</ele>
        <time>2019-08-16T13:32:30Z</time>
      </trkpt>
      <trkpt lat="42.0318640" lon="-6.7291680">
        <ele>965.3</ele>
        <time>2019-08-16T13:32:31Z</time>
      </trkpt>
      <trkpt lat="42.0318590" lon="-6.7292100">
        <ele>965.4</ele>
        <time>2019-08-16T13:32:32Z</time>
      </trkpt>
      <trkpt lat="42.0318540" lon="-6.7292520">
        <ele>965.6</ele>
        <time>2019-08-16T13:32:33Z</time>
      </trkpt>
      <trkpt lat="42.0318480" lon="-6.7292940">
        <ele>965.7</ele>
        <time>2019-08-16T13:32:34Z</time>
      </trkpt>
      <trkpt lat="42.0318440" lon="-6.7293370">
        <ele>965.8</ele>
        <time>2019-08-16T13:32:35Z</time>
      </trkpt>
      <trkpt lat="42.0318390" lon="-6.7293800">
        <ele>965.9</ele>
        <time>2019-08-16T13:32:36Z</time>
      </trkpt>
      <trkpt lat="42.0318340" lon="-6.7294230">
        <ele>966.1</ele>
        <time>2019-08-16T13:32:37Z</time>
      </trkpt>
      <trkpt lat="42.0318290" lon="-6.7294660">
        <ele>966.2</ele>
        <time>2019-08-16T13:32:38Z</time>
      </trkpt>
      <trkpt lat="42.0318230" lon="-6.7295110">
        <ele>966.3</ele>
        <time>2019-08-16T13:32:39Z</time>
      </trkpt>
      <trkpt lat="42.0318170" lon="-6.7295570">
        <ele>966.4</ele>
        <time>2019-08-16T13:32:40Z</time>
      </trkpt>
      <trkpt lat="42.0318130" lon="-6.7296040">
        <ele>966.5</ele>
        <time>2019-08-16T13:32:41Z</time>
      </trkpt>
      <trkpt lat="42.0318080" lon="-6.7296530">
        <ele>966.5</ele>
        <time>2019-08-16T13:32:42Z</time>
      </trkpt>
      <trkpt lat="42.0318020" lon="-6.7297010">
        <ele>966.6</ele>
        <time>2019-08-16T13:32:43Z</time>
      </trkpt>
      <trkpt lat="42.0317970" lon="-6.7297500">
        <ele>966.6</ele>
        <time>2019-08-16T13:32:44Z</time>
      </trkpt>
      <trkpt lat="42.0317910" lon="-6.7298000">
        <ele>966.7</ele>
        <time>2019-08-16T13:32:45Z</time>
      </trkpt>
      <trkpt lat="42.0317850" lon="-6.7298500">
        <ele>966.7</ele>
        <time>2019-08-16T13:32:46Z</time>
      </trkpt>
      <trkpt lat="42.0317790" lon="-6.7299000">
        <ele>966.8</ele>
        <time>2019-08-16T13:32:47Z</time>
      </trkpt>
      <trkpt lat="42.0317730" lon="-6.7299510">
        <ele>966.8</ele>
        <time>2019-08-16T13:32:48Z</time>
      </trkpt>
      <trkpt lat="42.0317670" lon="-6.7300010">
        <ele>966.9</ele>
        <time>2019-08-16T13:32:49Z</time>
      </trkpt>
      <trkpt lat="42.0317600" lon="-6.7300510">
        <ele>966.9</ele>
        <time>2019-08-16T13:32:50Z</time>
      </trkpt>
      <trkpt lat="42.0317530" lon="-6.7301020">
        <ele>967.0</ele>
        <time>2019-08-16T13:32:51Z</time>
      </trkpt>
      <trkpt lat="42.0317470" lon="-6.7301520">
        <ele>967.0</ele>
        <time>2019-08-16T13:32:52Z</time>
      </trkpt>
      <trkpt lat="42.0317420" lon="-6.7302010">
        <ele>967.1</ele>
        <time>2019-08-16T13:32:53Z</time>
      </trkpt>
      <trkpt lat="42.0317350" lon="-6.7302500">
        <ele>967.1</ele>
        <time>2019-08-16T13:32:54Z</time>
      </trkpt>
      <trkpt lat="42.0317290" lon="-6.7302980">
        <ele>967.1</ele>
        <time>2019-08-16T13:32:55Z</time>
      </trkpt>
      <trkpt lat="42.0317240" lon="-6.7303460">
        <ele>967.2</ele>
        <time>2019-08-16T13:32:56Z</time>
      </trkpt>
      <trkpt lat="42.0317180" lon="-6.7303960">
        <ele>967.2</ele>
        <time>2019-08-16T13:32:57Z</time>
      </trkpt>
      <trkpt lat="42.0317130" lon="-6.7304480">
        <ele>967.3</ele>
        <time>2019-08-16T13:32:58Z</time>
      </trkpt>
      <trkpt lat="42.0317070" lon="-6.7305010">
        <ele>967.3</ele>
        <time>2019-08-16T13:32:59Z</time>
      </trkpt>
      <trkpt lat="42.0317000" lon="-6.7305550">
        <ele>967.3</ele>
        <time>2019-08-16T13:33:00Z</time>
      </trkpt>
      <trkpt lat="42.0316920" lon="-6.7306090">
        <ele>967.4</ele>
        <time>2019-08-16T13:33:01Z</time>
      </trkpt>
      <trkpt lat="42.0316860" lon="-6.7306610">
        <ele>967.4</ele>
        <time>2019-08-16T13:33:02Z</time>
      </trkpt>
      <trkpt lat="42.0316810" lon="-6.7307130">
        <ele>967.5</ele>
        <time>2019-08-16T13:33:03Z</time>
      </trkpt>
      <trkpt lat="42.0316750" lon="-6.7307640">
        <ele>967.5</ele>
        <time>2019-08-16T13:33:04Z</time>
      </trkpt>
      <trkpt lat="42.0316680" lon="-6.7308180">
        <ele>967.6</ele>
        <time>2019-08-16T13:33:05Z</time>
      </trkpt>
      <trkpt lat="42.0316600" lon="-6.7308720">
        <ele>967.7</ele>
        <time>2019-08-16T13:33:06Z</time>
      </trkpt>
      <trkpt lat="42.0316530" lon="-6.7309280">
        <ele>967.7</ele>
        <time>2019-08-16T13:33:07Z</time>
      </trkpt>
      <trkpt lat="42.0316470" lon="-6.7309850">
        <ele>967.8</ele>
        <time>2019-08-16T13:33:08Z</time>
      </trkpt>
      <trkpt lat="42.0316410" lon="-6.7310400">
        <ele>967.8</ele>
        <time>2019-08-16T13:33:09Z</time>
      </trkpt>
      <trkpt lat="42.0316350" lon="-6.7310940">
        <ele>967.8</ele>
        <time>2019-08-16T13:33:10Z</time>
      </trkpt>
      <trkpt lat="42.0316300" lon="-6.7311490">
        <ele>967.9</ele>
        <time>2019-08-16T13:33:11Z</time>
      </trkpt>
      <trkpt lat="42.0316250" lon="-6.7312030">
        <ele>967.9</ele>
        <time>2019-08-16T13:33:12Z</time>
      </trkpt>
      <trkpt lat="42.0316190" lon="-6.7312570">
        <ele>968.0</ele>
        <time>2019-08-16T13:33:13Z</time>
      </trkpt>
      <trkpt lat="42.0316120" lon="-6.7313120">
        <ele>968.0</ele>
        <time>2019-08-16T13:33:14Z</time>
      </trkpt>
      <trkpt lat="42.0316060" lon="-6.7313680">
        <ele>968.1</ele>
        <time>2019-08-16T13:33:15Z</time>
      </trkpt>
      <trkpt lat="42.0315990" lon="-6.7314240">
        <ele>968.1</ele>
        <time>2019-08-16T13:33:16Z</time>
      </trkpt>
      <trkpt lat="42.0315940" lon="-6.7314800">
        <ele>968.2</ele>
        <time>2019-08-16T13:33:17Z</time>
      </trkpt>
      <trkpt lat="42.0315870" lon="-6.7315360">
        <ele>968.2</ele>
        <time>2019-08-16T13:33:18Z</time>
      </trkpt>
      <trkpt lat="42.0315810" lon="-6.7315900">
        <ele>968.3</ele>
        <time>2019-08-16T13:33:19Z</time>
      </trkpt>
      <trkpt lat="42.0315750" lon="-6.7316450">
        <ele>968.3</ele>
        <time>2019-08-16T13:33:20Z</time>
      </trkpt>
      <trkpt lat="42.0315690" lon="-6.7317010">
        <ele>968.4</ele>
        <time>2019-08-16T13:33:21Z</time>
      </trkpt>
      <trkpt lat="42.0315630" lon="-6.7317560">
        <ele>968.5</ele>
        <time>2019-08-16T13:33:22Z</time>
      </trkpt>
      <trkpt lat="42.0315580" lon="-6.7318110">
        <ele>968.5</ele>
        <time>2019-08-16T13:33:23Z</time>
      </trkpt>
      <trkpt lat="42.0315510" lon="-6.7318660">
        <ele>968.6</ele>
        <time>2019-08-16T13:33:24Z</time>
      </trkpt>
      <trkpt lat="42.0315430" lon="-6.7319200">
        <ele>968.7</ele>
        <time>2019-08-16T13:33:25Z</time>
      </trkpt>
      <trkpt lat="42.0315340" lon="-6.7319740">
        <ele>968.7</ele>
        <time>2019-08-16T13:33:26Z</time>
      </trkpt>
      <trkpt lat="42.0315270" lon="-6.7320220">
        <ele>968.8</ele>
        <time>2019-08-16T13:33:27Z</time>
      </trkpt>
      <trkpt lat="42.0315240" lon="-6.7320690">
        <ele>968.8</ele>
        <time>2019-08-16T13:33:28Z</time>
      </trkpt>
      <trkpt lat="42.0315220" lon="-6.7321140">
        <ele>968.8</ele>
        <time>2019-08-16T13:33:29Z</time>
      </trkpt>
      <trkpt lat="42.0315180" lon="-6.7321620">
        <ele>968.8</ele>
        <time>2019-08-16T13:33:30Z</time>
      </trkpt>
      <trkpt lat="42.0315140" lon="-6.7322110">
        <ele>968.8</ele>
        <time>2019-08-16T13:33:31Z</time>
      </trkpt>
      <trkpt lat="42.0315080" lon="-6.7322620">
        <ele>968.9</ele>
        <time>2019-08-16T13:33:32Z</time>
      </trkpt>
      <trkpt lat="42.0315030" lon="-6.7323070">
        <ele>968.9</ele>
        <time>2019-08-16T13:33:33Z</time>
      </trkpt>
      <trkpt lat="42.0314930" lon="-6.7323630">
        <ele>968.9</ele>
        <time>2019-08-16T13:33:34Z</time>
      </trkpt>
      <trkpt lat="42.0314830" lon="-6.7324230">
        <ele>969.0</ele>
        <time>2019-08-16T13:33:35Z</time>
      </trkpt>
      <trkpt lat="42.0314720" lon="-6.7324810">
        <ele>969.1</ele>
        <time>2019-08-16T13:33:36Z</time>
      </trkpt>
      <trkpt lat="42.0314670" lon="-6.7325390">
        <ele>969.2</ele>
        <time>2019-08-16T13:33:37Z</time>
      </trkpt>
      <trkpt lat="42.0314570" lon="-6.7325930">
        <ele>969.3</ele>
        <time>2019-08-16T13:33:38Z</time>
      </trkpt>
      <trkpt lat="42.0314510" lon="-6.7326490">
        <ele>969.3</ele>
        <time>2019-08-16T13:33:39Z</time>
      </trkpt>
      <trkpt lat="42.0314440" lon="-6.7327040">
        <ele>969.4</ele>
        <time>2019-08-16T13:33:40Z</time>
      </trkpt>
      <trkpt lat="42.0314380" lon="-6.7327600">
        <ele>969.5</ele>
        <time>2019-08-16T13:33:41Z</time>
      </trkpt>
      <trkpt lat="42.0314370" lon="-6.7328150">
        <ele>969.5</ele>
        <time>2019-08-16T13:33:42Z</time>
      </trkpt>
      <trkpt lat="42.0314320" lon="-6.7328680">
        <ele>969.6</ele>
        <time>2019-08-16T13:33:43Z</time>
      </trkpt>
      <trkpt lat="42.0314310" lon="-6.7329200">
        <ele>969.7</ele>
        <time>2019-08-16T13:33:44Z</time>
      </trkpt>
      <trkpt lat="42.0314290" lon="-6.7329740">
        <ele>969.7</ele>
        <time>2019-08-16T13:33:45Z</time>
      </trkpt>
      <trkpt lat="42.0314230" lon="-6.7330260">
        <ele>969.8</ele>
        <time>2019-08-16T13:33:46Z</time>
      </trkpt>
      <trkpt lat="42.0314200" lon="-6.7330780">
        <ele>969.8</ele>
        <time>2019-08-16T13:33:47Z</time>
      </trkpt>
      <trkpt lat="42.0314140" lon="-6.7331290">
        <ele>969.9</ele>
        <time>2019-08-16T13:33:48Z</time>
      </trkpt>
      <trkpt lat="42.0314080" lon="-6.7331820">
        <ele>970.0</ele>
        <time>2019-08-16T13:33:49Z</time>
      </trkpt>
      <trkpt lat="42.0314030" lon="-6.7332340">
        <ele>970.1</ele>
        <time>2019-08-16T13:33:50Z</time>
      </trkpt>
      <trkpt lat="42.0313980" lon="-6.7332840">
        <ele>970.2</ele>
        <time>2019-08-16T13:33:51Z</time>
      </trkpt>
      <trkpt lat="42.0313930" lon="-6.7333340">
        <ele>970.3</ele>
        <time>2019-08-16T13:33:52Z</time>
      </trkpt>
      <trkpt lat="42.0313870" lon="-6.7333860">
        <ele>970.4</ele>
        <time>2019-08-16T13:33:53Z</time>
      </trkpt>
      <trkpt lat="42.0313810" lon="-6.7334360">
        <ele>970.5</ele>
        <time>2019-08-16T13:33:54Z</time>
      </trkpt>
      <trkpt lat="42.0313750" lon="-6.7334860">
        <ele>970.6</ele>
        <time>2019-08-16T13:33:55Z</time>
      </trkpt>
      <trkpt lat="42.0313690" lon="-6.7335350">
        <ele>970.7</ele>
        <time>2019-08-16T13:33:56Z</time>
      </trkpt>
      <trkpt lat="42.0313640" lon="-6.7335850">
        <ele>970.8</ele>
        <time>2019-08-16T13:33:57Z</time>
      </trkpt>
      <trkpt lat="42.0313580" lon="-6.7336340">
        <ele>970.9</ele>
        <time>2019-08-16T13:33:58Z</time>
      </trkpt>
      <trkpt lat="42.0313520" lon="-6.7336860">
        <ele>971.0</ele>
        <time>2019-08-16T13:33:59Z</time>
      </trkpt>
      <trkpt lat="42.0313460" lon="-6.7337390">
        <ele>971.1</ele>
        <time>2019-08-16T13:34:00Z</time>
      </trkpt>
      <trkpt lat="42.0313410" lon="-6.7337920">
        <ele>971.1</ele>
        <time>2019-08-16T13:34:01Z</time>
      </trkpt>
      <trkpt lat="42.0313350" lon="-6.7338440">
        <ele>971.2</ele>
        <time>2019-08-16T13:34:02Z</time>
      </trkpt>
      <trkpt lat="42.0313280" lon="-6.7338960">
        <ele>971.3</ele>
        <time>2019-08-16T13:34:03Z</time>
      </trkpt>
      <trkpt lat="42.0313220" lon="-6.7339470">
        <ele>971.3</ele>
        <time>2019-08-16T13:34:04Z</time>
      </trkpt>
      <trkpt lat="42.0313160" lon="-6.7340000">
        <ele>971.4</ele>
        <time>2019-08-16T13:34:05Z</time>
      </trkpt>
      <trkpt lat="42.0313100" lon="-6.7340520">
        <ele>971.5</ele>
        <time>2019-08-16T13:34:06Z</time>
      </trkpt>
      <trkpt lat="42.0313050" lon="-6.7341050">
        <ele>971.5</ele>
        <time>2019-08-16T13:34:07Z</time>
      </trkpt>
      <trkpt lat="42.0312990" lon="-6.7341580">
        <ele>971.6</ele>
        <time>2019-08-16T13:34:08Z</time>
      </trkpt>
      <trkpt lat="42.0312930" lon="-6.7342120">
        <ele>971.6</ele>
        <time>2019-08-16T13:34:09Z</time>
      </trkpt>
      <trkpt lat="42.0312860" lon="-6.7342650">
        <ele>971.7</ele>
        <time>2019-08-16T13:34:10Z</time>
      </trkpt>
      <trkpt lat="42.0312800" lon="-6.7343200">
        <ele>971.8</ele>
        <time>2019-08-16T13:34:11Z</time>
      </trkpt>
      <trkpt lat="42.0312730" lon="-6.7343740">
        <ele>971.9</ele>
        <time>2019-08-16T13:34:12Z</time>
      </trkpt>
      <trkpt lat="42.0312670" lon="-6.7344290">
        <ele>972.0</ele>
        <time>2019-08-16T13:34:13Z</time>
      </trkpt>
      <trkpt lat="42.0312620" lon="-6.7344830">
        <ele>972.1</ele>
        <time>2019-08-16T13:34:14Z</time>
      </trkpt>
      <trkpt lat="42.0312580" lon="-6.7345360">
        <ele>972.3</ele>
        <time>2019-08-16T13:34:15Z</time>
      </trkpt>
      <trkpt lat="42.0312520" lon="-6.7345860">
        <ele>972.4</ele>
        <time>2019-08-16T13:34:16Z</time>
      </trkpt>
      <trkpt lat="42.0312450" lon="-6.7346360">
        <ele>972.5</ele>
        <time>2019-08-16T13:34:17Z</time>
      </trkpt>
      <trkpt lat="42.0312380" lon="-6.7346860">
        <ele>972.6</ele>
        <time>2019-08-16T13:34:18Z</time>
      </trkpt>
      <trkpt lat="42.0312310" lon="-6.7347370">
        <ele>972.7</ele>
        <time>2019-08-16T13:34:19Z</time>
      </trkpt>
      <trkpt lat="42.0312250" lon="-6.7347890">
        <ele>972.9</ele>
        <time>2019-08-16T13:34:20Z</time>
      </trkpt>
      <trkpt lat="42.0312210" lon="-6.7348410">
        <ele>973.0</ele>
        <time>2019-08-16T13:34:21Z</time>
      </trkpt>
      <trkpt lat="42.0312140" lon="-6.7348940">
        <ele>973.1</ele>
        <time>2019-08-16T13:34:22Z</time>
      </trkpt>
      <trkpt lat="42.0312070" lon="-6.7349470">
        <ele>973.2</ele>
        <time>2019-08-16T13:34:23Z</time>
      </trkpt>
      <trkpt lat="42.0312020" lon="-6.7349990">
        <ele>973.3</ele>
        <time>2019-08-16T13:34:24Z</time>
      </trkpt>
      <trkpt lat="42.0311970" lon="-6.7350500">
        <ele>973.5</ele>
        <time>2019-08-16T13:34:25Z</time>
      </trkpt>
      <trkpt lat="42.0311910" lon="-6.7351010">
        <ele>973.6</ele>
        <time>2019-08-16T13:34:26Z</time>
      </trkpt>
      <trkpt lat="42.0311860" lon="-6.7351520">
        <ele>973.7</ele>
        <time>2019-08-16T13:34:27Z</time>
      </trkpt>
      <trkpt lat="42.0311810" lon="-6.7352030">
        <ele>973.9</ele>
        <time>2019-08-16T13:34:28Z</time>
      </trkpt>
      <trkpt lat="42.0311750" lon="-6.7352540">
        <ele>974.0</ele>
        <time>2019-08-16T13:34:29Z</time>
      </trkpt>
      <trkpt lat="42.0311700" lon="-6.7353050">
        <ele>974.1</ele>
        <time>2019-08-16T13:34:30Z</time>
      </trkpt>
      <trkpt lat="42.0311650" lon="-6.7353550">
        <ele>974.2</ele>
        <time>2019-08-16T13:34:31Z</time>
      </trkpt>
      <trkpt lat="42.0311610" lon="-6.7354050">
        <ele>974.4</ele>
        <time>2019-08-16T13:34:32Z</time>
      </trkpt>
      <trkpt lat="42.0311540" lon="-6.7354570">
        <ele>974.5</ele>
        <time>2019-08-16T13:34:33Z</time>
      </trkpt>
      <trkpt lat="42.0311480" lon="-6.7355060">
        <ele>974.5</ele>
        <time>2019-08-16T13:34:34Z</time>
      </trkpt>
      <trkpt lat="42.0311440" lon="-6.7355560">
        <ele>974.6</ele>
        <time>2019-08-16T13:34:35Z</time>
      </trkpt>
      <trkpt lat="42.0311370" lon="-6.7356090">
        <ele>974.7</ele>
        <time>2019-08-16T13:34:36Z</time>
      </trkpt>
      <trkpt lat="42.0311300" lon="-6.7356640">
        <ele>974.8</ele>
        <time>2019-08-16T13:34:37Z</time>
      </trkpt>
      <trkpt lat="42.0311220" lon="-6.7357170">
        <ele>974.9</ele>
        <time>2019-08-16T13:34:38Z</time>
      </trkpt>
      <trkpt lat="42.0311160" lon="-6.7357690">
        <ele>975.0</ele>
        <time>2019-08-16T13:34:39Z</time>
      </trkpt>
      <trkpt lat="42.0311100" lon="-6.7358210">
        <ele>975.0</ele>
        <time>2019-08-16T13:34:40Z</time>
      </trkpt>
      <trkpt lat="42.0311030" lon="-6.7358710">
        <ele>975.1</ele>
        <time>2019-08-16T13:34:41Z</time>
      </trkpt>
      <trkpt lat="42.0310990" lon="-6.7359230">
        <ele>975.1</ele>
        <time>2019-08-16T13:34:42Z</time>
      </trkpt>
      <trkpt lat="42.0310920" lon="-6.7359730">
        <ele>975.2</ele>
        <time>2019-08-16T13:34:43Z</time>
      </trkpt>
      <trkpt lat="42.0310840" lon="-6.7360270">
        <ele>975.3</ele>
        <time>2019-08-16T13:34:44Z</time>
      </trkpt>
      <trkpt lat="42.0310780" lon="-6.7360800">
        <ele>975.4</ele>
        <time>2019-08-16T13:34:45Z</time>
      </trkpt>
      <trkpt lat="42.0310720" lon="-6.7361350">
        <ele>975.4</ele>
        <time>2019-08-16T13:34:46Z</time>
      </trkpt>
      <trkpt lat="42.0310640" lon="-6.7361880">
        <ele>975.5</ele>
        <time>2019-08-16T13:34:47Z</time>
      </trkpt>
      <trkpt lat="42.0310580" lon="-6.7362420">
        <ele>975.6</ele>
        <time>2019-08-16T13:34:48Z</time>
      </trkpt>
      <trkpt lat="42.0310510" lon="-6.7362940">
        <ele>975.7</ele>
        <time>2019-08-16T13:34:49Z</time>
      </trkpt>
      <trkpt lat="42.0310440" lon="-6.7363410">
        <ele>975.8</ele>
        <time>2019-08-16T13:34:50Z</time>
      </trkpt>
      <trkpt lat="42.0310390" lon="-6.7363900">
        <ele>975.9</ele>
        <time>2019-08-16T13:34:51Z</time>
      </trkpt>
      <trkpt lat="42.0310340" lon="-6.7364410">
        <ele>976.0</ele>
        <time>2019-08-16T13:34:52Z</time>
      </trkpt>
      <trkpt lat="42.0310260" lon="-6.7364910">
        <ele>976.1</ele>
        <time>2019-08-16T13:34:53Z</time>
      </trkpt>
      <trkpt lat="42.0310180" lon="-6.7365420">
        <ele>976.2</ele>
        <time>2019-08-16T13:34:54Z</time>
      </trkpt>
      <trkpt lat="42.0310110" lon="-6.7365950">
        <ele>976.3</ele>
        <time>2019-08-16T13:34:55Z</time>
      </trkpt>
      <trkpt lat="42.0310050" lon="-6.7366480">
        <ele>976.4</ele>
        <time>2019-08-16T13:34:56Z</time>
      </trkpt>
      <trkpt lat="42.0310010" lon="-6.7367010">
        <ele>976.5</ele>
        <time>2019-08-16T13:34:57Z</time>
      </trkpt>
      <trkpt lat="42.0309950" lon="-6.7367560">
        <ele>976.6</ele>
        <time>2019-08-16T13:34:58Z</time>
      </trkpt>
      <trkpt lat="42.0309890" lon="-6.7368110">
        <ele>976.7</ele>
        <time>2019-08-16T13:34:59Z</time>
      </trkpt>
      <trkpt lat="42.0309820" lon="-6.7368650">
        <ele>976.8</ele>
        <time>2019-08-16T13:35:00Z</time>
      </trkpt>
      <trkpt lat="42.0309760" lon="-6.7369190">
        <ele>976.8</ele>
        <time>2019-08-16T13:35:01Z</time>
      </trkpt>
      <trkpt lat="42.0309700" lon="-6.7369730">
        <ele>976.9</ele>
        <time>2019-08-16T13:35:02Z</time>
      </trkpt>
      <trkpt lat="42.0309630" lon="-6.7370270">
        <ele>976.9</ele>
        <time>2019-08-16T13:35:03Z</time>
      </trkpt>
      <trkpt lat="42.0309560" lon="-6.7370810">
        <ele>977.0</ele>
        <time>2019-08-16T13:35:04Z</time>
      </trkpt>
      <trkpt lat="42.0309490" lon="-6.7371370">
        <ele>977.0</ele>
        <time>2019-08-16T13:35:05Z</time>
      </trkpt>
      <trkpt lat="42.0309420" lon="-6.7371910">
        <ele>977.0</ele>
        <time>2019-08-16T13:35:06Z</time>
      </trkpt>
      <trkpt lat="42.0309360" lon="-6.7372470">
        <ele>977.0</ele>
        <time>2019-08-16T13:35:07Z</time>
      </trkpt>
      <trkpt lat="42.0309310" lon="-6.7373020">
        <ele>977.1</ele>
        <time>2019-08-16T13:35:08Z</time>
      </trkpt>
      <trkpt lat="42.0309260" lon="-6.7373580">
        <ele>977.1</ele>
        <time>2019-08-16T13:35:09Z</time>
      </trkpt>
      <trkpt lat="42.0309220" lon="-6.7374140">
        <ele>977.1</ele>
        <time>2019-08-16T13:35:10Z</time>
      </trkpt>
      <trkpt lat="42.0309170" lon="-6.7374720">
        <ele>977.2</ele>
        <time>2019-08-16T13:35:11Z</time>
      </trkpt>
      <trkpt lat="42.0309120" lon="-6.7375290">
        <ele>977.2</ele>
        <time>2019-08-16T13:35:12Z</time>
      </trkpt>
      <trkpt lat="42.0309060" lon="-6.7375820">
        <ele>977.2</ele>
        <time>2019-08-16T13:35:13Z</time>
      </trkpt>
      <trkpt lat="42.0309010" lon="-6.7376330">
        <ele>977.3</ele>
        <time>2019-08-16T13:35:14Z</time>
      </trkpt>
      <trkpt lat="42.0308960" lon="-6.7376790">
        <ele>977.3</ele>
        <time>2019-08-16T13:35:15Z</time>
      </trkpt>
      <trkpt lat="42.0308900" lon="-6.7377230">
        <ele>977.4</ele>
        <time>2019-08-16T13:35:16Z</time>
      </trkpt>
      <trkpt lat="42.0308850" lon="-6.7377690">
        <ele>977.5</ele>
        <time>2019-08-16T13:35:17Z</time>
      </trkpt>
      <trkpt lat="42.0308790" lon="-6.7378170">
        <ele>977.5</ele>
        <time>2019-08-16T13:35:18Z</time>
      </trkpt>
      <trkpt lat="42.0308730" lon="-6.7378670">
        <ele>977.6</ele>
        <time>2019-08-16T13:35:19Z</time>
      </trkpt>
      <trkpt lat="42.0308680" lon="-6.7379170">
        <ele>977.6</ele>
        <time>2019-08-16T13:35:20Z</time>
      </trkpt>
      <trkpt lat="42.0308630" lon="-6.7379660">
        <ele>977.7</ele>
        <time>2019-08-16T13:35:21Z</time>
      </trkpt>
      <trkpt lat="42.0308590" lon="-6.7380140">
        <ele>977.7</ele>
        <time>2019-08-16T13:35:22Z</time>
      </trkpt>
      <trkpt lat="42.0308550" lon="-6.7380610">
        <ele>977.8</ele>
        <time>2019-08-16T13:35:23Z</time>
      </trkpt>
      <trkpt lat="42.0308520" lon="-6.7381070">
        <ele>977.8</ele>
        <time>2019-08-16T13:35:24Z</time>
      </trkpt>
      <trkpt lat="42.0308480" lon="-6.7381530">
        <ele>977.9</ele>
        <time>2019-08-16T13:35:25Z</time>
      </trkpt>
      <trkpt lat="42.0308430" lon="-6.7381980">
        <ele>977.9</ele>
        <time>2019-08-16T13:35:26Z</time>
      </trkpt>
      <trkpt lat="42.0308370" lon="-6.7382420">
        <ele>978.0</ele>
        <time>2019-08-16T13:35:27Z</time>
      </trkpt>
      <trkpt lat="42.0308320" lon="-6.7382850">
        <ele>978.1</ele>
        <time>2019-08-16T13:35:28Z</time>
      </trkpt>
      <trkpt lat="42.0308260" lon="-6.7383290">
        <ele>978.1</ele>
        <time>2019-08-16T13:35:29Z</time>
      </trkpt>
      <trkpt lat="42.0308210" lon="-6.7383720">
        <ele>978.2</ele>
        <time>2019-08-16T13:35:30Z</time>
      </trkpt>
      <trkpt lat="42.0308180" lon="-6.7384150">
        <ele>978.3</ele>
        <time>2019-08-16T13:35:31Z</time>
      </trkpt>
      <trkpt lat="42.0308130" lon="-6.7384580">
        <ele>978.4</ele>
        <time>2019-08-16T13:35:32Z</time>
      </trkpt>
      <trkpt lat="42.0308090" lon="-6.7385010">
        <ele>978.5</ele>
        <time>2019-08-16T13:35:33Z</time>
      </trkpt>
      <trkpt lat="42.0308050" lon="-6.7385430">
        <ele>978.7</ele>
        <time>2019-08-16T13:35:34Z</time>
      </trkpt>
      <trkpt lat="42.0308000" lon="-6.7385860">
        <ele>978.8</ele>
        <time>2019-08-16T13:35:35Z</time>
      </trkpt>
      <trkpt lat="42.0307950" lon="-6.7386300">
        <ele>978.9</ele>
        <time>2019-08-16T13:35:36Z</time>
      </trkpt>
      <trkpt lat="42.0307900" lon="-6.7386740">
        <ele>979.0</ele>
        <time>2019-08-16T13:35:37Z</time>
      </trkpt>
      <trkpt lat="42.0307850" lon="-6.7387170">
        <ele>979.2</ele>
        <time>2019-08-16T13:35:38Z</time>
      </trkpt>
      <trkpt lat="42.0307790" lon="-6.7387590">
        <ele>979.3</ele>
        <time>2019-08-16T13:35:39Z</time>
      </trkpt>
      <trkpt lat="42.0307740" lon="-6.7388010">
        <ele>979.4</ele>
        <time>2019-08-16T13:35:40Z</time>
      </trkpt>
      <trkpt lat="42.0307690" lon="-6.7388430">
        <ele>979.5</ele>
        <time>2019-08-16T13:35:41Z</time>
      </trkpt>
      <trkpt lat="42.0307640" lon="-6.7388850">
        <ele>979.6</ele>
        <time>2019-08-16T13:35:42Z</time>
      </trkpt>
      <trkpt lat="42.0307610" lon="-6.7389280">
        <ele>979.8</ele>
        <time>2019-08-16T13:35:43Z</time>
      </trkpt>
      <trkpt lat="42.0307550" lon="-6.7389710">
        <ele>979.9</ele>
        <time>2019-08-16T13:35:44Z</time>
      </trkpt>
      <trkpt lat="42.0307510" lon="-6.7390140">
        <ele>980.0</ele>
        <time>2019-08-16T13:35:45Z</time>
      </trkpt>
      <trkpt lat="42.0307470" lon="-6.7390590">
        <ele>980.1</ele>
        <time>2019-08-16T13:35:46Z</time>
      </trkpt>
      <trkpt lat="42.0307420" lon="-6.7391040">
        <ele>980.2</ele>
        <time>2019-08-16T13:35:47Z</time>
      </trkpt>
      <trkpt lat="42.0307380" lon="-6.7391500">
        <ele>980.4</ele>
        <time>2019-08-16T13:35:48Z</time>
      </trkpt>
      <trkpt lat="42.0307330" lon="-6.7391960">
        <ele>980.5</ele>
        <time>2019-08-16T13:35:49Z</time>
      </trkpt>
      <trkpt lat="42.0307280" lon="-6.7392410">
        <ele>980.6</ele>
        <time>2019-08-16T13:35:50Z</time>
      </trkpt>
      <trkpt lat="42.0307220" lon="-6.7392860">
        <ele>980.8</ele>
        <time>2019-08-16T13:35:51Z</time>
      </trkpt>
      <trkpt lat="42.0307170" lon="-6.7393320">
        <ele>980.9</ele>
        <time>2019-08-16T13:35:52Z</time>
      </trkpt>
      <trkpt lat="42.0307130" lon="-6.7393780">
        <ele>981.0</ele>
        <time>2019-08-16T13:35:53Z</time>
      </trkpt>
      <trkpt lat="42.0307070" lon="-6.7394240">
        <ele>981.2</ele>
        <time>2019-08-16T13:35:54Z</time>
      </trkpt>
      <trkpt lat="42.0307020" lon="-6.7394700">
        <ele>981.3</ele>
        <time>2019-08-16T13:35:55Z</time>
      </trkpt>
      <trkpt lat="42.0306970" lon="-6.7395150">
        <ele>981.5</ele>
        <time>2019-08-16T13:35:56Z</time>
      </trkpt>
      <trkpt lat="42.0306930" lon="-6.7395610">
        <ele>981.6</ele>
        <time>2019-08-16T13:35:57Z</time>
      </trkpt>
      <trkpt lat="42.0306890" lon="-6.7396060">
        <ele>981.8</ele>
        <time>2019-08-16T13:35:58Z</time>
      </trkpt>
      <trkpt lat="42.0306850" lon="-6.7396520">
        <ele>981.9</ele>
        <time>2019-08-16T13:35:59Z</time>
      </trkpt>
      <trkpt lat="42.0306810" lon="-6.7396960">
        <ele>982.1</ele>
        <time>2019-08-16T13:36:00Z</time>
      </trkpt>
      <trkpt lat="42.0306760" lon="-6.7397410">
        <ele>982.2</ele>
        <time>2019-08-16T13:36:01Z</time>
      </trkpt>
      <trkpt lat="42.0306710" lon="-6.7397860">
        <ele>982.4</ele>
        <time>2019-08-16T13:36:02Z</time>
      </trkpt>
      <trkpt lat="42.0306650" lon="-6.7398310">
        <ele>982.6</ele>
        <time>2019-08-16T13:36:03Z</time>
      </trkpt>
      <trkpt lat="42.0306600" lon="-6.7398750">
        <ele>982.7</ele>
        <time>2019-08-16T13:36:04Z</time>
      </trkpt>
      <trkpt lat="42.0306550" lon="-6.7399200">
        <ele>982.9</ele>
        <time>2019-08-16T13:36:05Z</time>
      </trkpt>
      <trkpt lat="42.0306500" lon="-6.7399640">
        <ele>983.0</ele>
        <time>2019-08-16T13:36:06Z</time>
      </trkpt>
      <trkpt lat="42.0306460" lon="-6.7400060">
        <ele>983.2</ele>
        <time>2019-08-16T13:36:07Z</time>
      </trkpt>
      <trkpt lat="42.0306410" lon="-6.7400480">
        <ele>983.4</ele>
        <time>2019-08-16T13:36:08Z</time>
      </trkpt>
      <trkpt lat="42.0306360" lon="-6.7400890">
        <ele>983.5</ele>
        <time>2019-08-16T13:36:09Z</time>
      </trkpt>
      <trkpt lat="42.0306310" lon="-6.7401290">
        <ele>983.7</ele>
        <time>2019-08-16T13:36:10Z</time>
      </trkpt>
      <trkpt lat="42.0306250" lon="-6.7401680">
        <ele>983.8</ele>
        <time>2019-08-16T13:36:11Z</time>
      </trkpt>
      <trkpt lat="42.0306210" lon="-6.7402080">
        <ele>984.0</ele>
        <time>2019-08-16T13:36:12Z</time>
      </trkpt>
      <trkpt lat="42.0306150" lon="-6.7402470">
        <ele>984.1</ele>
        <time>2019-08-16T13:36:13Z</time>
      </trkpt>
      <trkpt lat="42.0306110" lon="-6.7402870">
        <ele>984.3</ele>
        <time>2019-08-16T13:36:14Z</time>
      </trkpt>
      <trkpt lat="42.0306070" lon="-6.7403280">
        <ele>984.4</ele>
        <time>2019-08-16T13:36:15Z</time>
      </trkpt>
      <trkpt lat="42.0306030" lon="-6.7403680">
        <ele>984.6</ele>
        <time>2019-08-16T13:36:16Z</time>
      </trkpt>
      <trkpt lat="42.0305980" lon="-6.7404070">
        <ele>984.7</ele>
        <time>2019-08-16T13:36:17Z</time>
      </trkpt>
      <trkpt lat="42.0305940" lon="-6.7404450">
        <ele>984.8</ele>
        <time>2019-08-16T13:36:18Z</time>
      </trkpt>
      <trkpt lat="42.0305890" lon="-6.7404820">
        <ele>985.0</ele>
        <time>2019-08-16T13:36:19Z</time>
      </trkpt>
      <trkpt lat="42.0305860" lon="-6.7405190">
        <ele>985.1</ele>
        <time>2019-08-16T13:36:20Z</time>
      </trkpt>
      <trkpt lat="42.0305820" lon="-6.7405570">
        <ele>985.3</ele>
        <time>2019-08-16T13:36:21Z</time>
      </trkpt>
      <trkpt lat="42.0305790" lon="-6.7405940">
        <ele>985.4</ele>
        <time>2019-08-16T13:36:22Z</time>
      </trkpt>
      <trkpt lat="42.0305750" lon="-6.7406310">
        <ele>985.5</ele>
        <time>2019-08-16T13:36:23Z</time>
      </trkpt>
      <trkpt lat="42.0305710" lon="-6.7406680">
        <ele>985.6</ele>
        <time>2019-08-16T13:36:24Z</time>
      </trkpt>
      <trkpt lat="42.0305680" lon="-6.7407040">
        <ele>985.8</ele>
        <time>2019-08-16T13:36:25Z</time>
      </trkpt>
      <trkpt lat="42.0305640" lon="-6.7407410">
        <ele>985.9</ele>
        <time>2019-08-16T13:36:26Z</time>
      </trkpt>
      <trkpt lat="42.0305600" lon="-6.7407760">
        <ele>986.0</ele>
        <time>2019-08-16T13:36:27Z</time>
      </trkpt>
      <trkpt lat="42.0305530" lon="-6.7408470">
        <ele>986.2</ele>
        <time>2019-08-16T13:36:29Z</time>
      </trkpt>
      <trkpt lat="42.0305480" lon="-6.7409180">
        <ele>986.4</ele>
        <time>2019-08-16T13:36:31Z</time>
      </trkpt>
      <trkpt lat="42.0305430" lon="-6.7409920">
        <ele>986.6</ele>
        <time>2019-08-16T13:36:33Z</time>
      </trkpt>
      <trkpt lat="42.0305400" lon="-6.7410280">
        <ele>986.7</ele>
        <time>2019-08-16T13:36:34Z</time>
      </trkpt>
      <trkpt lat="42.0305390" lon="-6.7410650">
        <ele>986.9</ele>
        <time>2019-08-16T13:36:35Z</time>
      </trkpt>
      <trkpt lat="42.0305380" lon="-6.7411010">
        <ele>987.0</ele>
        <time>2019-08-16T13:36:36Z</time>
      </trkpt>
      <trkpt lat="42.0305360" lon="-6.7411370">
        <ele>987.1</ele>
        <time>2019-08-16T13:36:37Z</time>
      </trkpt>
      <trkpt lat="42.0305350" lon="-6.7411730">
        <ele>987.3</ele>
        <time>2019-08-16T13:36:38Z</time>
      </trkpt>
      <trkpt lat="42.0305350" lon="-6.7412440">
        <ele>987.6</ele>
        <time>2019-08-16T13:36:40Z</time>
      </trkpt>
      <trkpt lat="42.0305370" lon="-6.7413160">
        <ele>988.0</ele>
        <time>2019-08-16T13:36:42Z</time>
      </trkpt>
      <trkpt lat="42.0305390" lon="-6.7413870">
        <ele>988.2</ele>
        <time>2019-08-16T13:36:44Z</time>
      </trkpt>
      <trkpt lat="42.0305450" lon="-6.7414580">
        <ele>988.5</ele>
        <time>2019-08-16T13:36:46Z</time>
      </trkpt>
      <trkpt lat="42.0305510" lon="-6.7415280">
        <ele>988.8</ele>
        <time>2019-08-16T13:36:48Z</time>
      </trkpt>
      <trkpt lat="42.0305590" lon="-6.7415960">
        <ele>989.0</ele>
        <time>2019-08-16T13:36:50Z</time>
      </trkpt>
      <trkpt lat="42.0305700" lon="-6.7416640">
        <ele>989.3</ele>
        <time>2019-08-16T13:36:52Z</time>
      </trkpt>
      <trkpt lat="42.0305820" lon="-6.7417330">
        <ele>989.5</ele>
        <time>2019-08-16T13:36:54Z</time>
      </trkpt>
      <trkpt lat="42.0305940" lon="-6.7418010">
        <ele>989.8</ele>
        <time>2019-08-16T13:36:56Z</time>
      </trkpt>
      <trkpt lat="42.0306080" lon="-6.7418690">
        <ele>990.0</ele>
        <time>2019-08-16T13:36:58Z</time>
      </trkpt>
      <trkpt lat="42.0306240" lon="-6.7419360">
        <ele>990.3</ele>
        <time>2019-08-16T13:37:00Z</time>
      </trkpt>
      <trkpt lat="42.0306420" lon="-6.7419990">
        <ele>990.6</ele>
        <time>2019-08-16T13:37:02Z</time>
      </trkpt>
      <trkpt lat="42.0306580" lon="-6.7420610">
        <ele>990.9</ele>
        <time>2019-08-16T13:37:04Z</time>
      </trkpt>
      <trkpt lat="42.0306760" lon="-6.7421240">
        <ele>991.4</ele>
        <time>2019-08-16T13:37:06Z</time>
      </trkpt>
      <trkpt lat="42.0306920" lon="-6.7421860">
        <ele>991.4</ele>
        <time>2019-08-16T13:37:08Z</time>
      </trkpt>
      <trkpt lat="42.0307090" lon="-6.7422500">
        <ele>991.7</ele>
        <time>2019-08-16T13:37:10Z</time>
      </trkpt>
      <trkpt lat="42.0307290" lon="-6.7423100">
        <ele>991.9</ele>
        <time>2019-08-16T13:37:12Z</time>
      </trkpt>
      <trkpt lat="42.0307490" lon="-6.7423720">
        <ele>992.1</ele>
        <time>2019-08-16T13:37:14Z</time>
      </trkpt>
      <trkpt lat="42.0307700" lon="-6.7424340">
        <ele>992.3</ele>
        <time>2019-08-16T13:37:16Z</time>
      </trkpt>
      <trkpt lat="42.0307900" lon="-6.7424980">
        <ele>992.6</ele>
        <time>2019-08-16T13:37:18Z</time>
      </trkpt>
      <trkpt lat="42.0308080" lon="-6.7425580">
        <ele>992.8</ele>
        <time>2019-08-16T13:37:20Z</time>
      </trkpt>
      <trkpt lat="42.0308260" lon="-6.7426180">
        <ele>993.0</ele>
        <time>2019-08-16T13:37:22Z</time>
      </trkpt>
      <trkpt lat="42.0308420" lon="-6.7426780">
        <ele>993.2</ele>
        <time>2019-08-16T13:37:24Z</time>
      </trkpt>
      <trkpt lat="42.0308590" lon="-6.7427400">
        <ele>993.4</ele>
        <time>2019-08-16T13:37:26Z</time>
      </trkpt>
      <trkpt lat="42.0308770" lon="-6.7428010">
        <ele>993.6</ele>
        <time>2019-08-16T13:37:28Z</time>
      </trkpt>
      <trkpt lat="42.0308930" lon="-6.7428600">
        <ele>993.9</ele>
        <time>2019-08-16T13:37:30Z</time>
      </trkpt>
      <trkpt lat="42.0309090" lon="-6.7429210">
        <ele>994.1</ele>
        <time>2019-08-16T13:37:32Z</time>
      </trkpt>
      <trkpt lat="42.0309270" lon="-6.7429820">
        <ele>994.2</ele>
        <time>2019-08-16T13:37:34Z</time>
      </trkpt>
      <trkpt lat="42.0309490" lon="-6.7430400">
        <ele>994.3</ele>
        <time>2019-08-16T13:37:36Z</time>
      </trkpt>
      <trkpt lat="42.0309740" lon="-6.7430940">
        <ele>994.4</ele>
        <time>2019-08-16T13:37:38Z</time>
      </trkpt>
      <trkpt lat="42.0310010" lon="-6.7431470">
        <ele>994.5</ele>
        <time>2019-08-16T13:37:40Z</time>
      </trkpt>
      <trkpt lat="42.0310200" lon="-6.7432040">
        <ele>994.6</ele>
        <time>2019-08-16T13:37:42Z</time>
      </trkpt>
      <trkpt lat="42.0310230" lon="-6.7432680">
        <ele>994.6</ele>
        <time>2019-08-16T13:37:44Z</time>
      </trkpt>
      <trkpt lat="42.0310200" lon="-6.7433380">
        <ele>994.7</ele>
        <time>2019-08-16T13:37:46Z</time>
      </trkpt>
      <trkpt lat="42.0310140" lon="-6.7434120">
        <ele>994.7</ele>
        <time>2019-08-16T13:37:48Z</time>
      </trkpt>
      <trkpt lat="42.0310100" lon="-6.7434490">
        <ele>994.8</ele>
        <time>2019-08-16T13:37:49Z</time>
      </trkpt>
      <trkpt lat="42.0310080" lon="-6.7434830">
        <ele>994.8</ele>
        <time>2019-08-16T13:37:50Z</time>
      </trkpt>
      <trkpt lat="42.0310090" lon="-6.7435430">
        <ele>995.0</ele>
        <time>2019-08-16T13:37:52Z</time>
      </trkpt>
      <trkpt lat="42.0310250" lon="-6.7436040">
        <ele>995.3</ele>
        <time>2019-08-16T13:37:54Z</time>
      </trkpt>
      <trkpt lat="42.0310450" lon="-6.7436660">
        <ele>995.4</ele>
        <time>2019-08-16T13:37:56Z</time>
      </trkpt>
      <trkpt lat="42.0310580" lon="-6.7437330">
        <ele>995.6</ele>
        <time>2019-08-16T13:37:58Z</time>
      </trkpt>
      <trkpt lat="42.0310610" lon="-6.7438030">
        <ele>995.8</ele>
        <time>2019-08-16T13:38:00Z</time>
      </trkpt>
      <trkpt lat="42.0310590" lon="-6.7438770">
        <ele>996.0</ele>
        <time>2019-08-16T13:38:02Z</time>
      </trkpt>
      <trkpt lat="42.0310560" lon="-6.7439160">
        <ele>996.2</ele>
        <time>2019-08-16T13:38:03Z</time>
      </trkpt>
      <trkpt lat="42.0310510" lon="-6.7439550">
        <ele>996.2</ele>
        <time>2019-08-16T13:38:04Z</time>
      </trkpt>
      <trkpt lat="42.0310480" lon="-6.7439970">
        <ele>996.3</ele>
        <time>2019-08-16T13:38:05Z</time>
      </trkpt>
      <trkpt lat="42.0310510" lon="-6.7440390">
        <ele>996.4</ele>
        <time>2019-08-16T13:38:06Z</time>
      </trkpt>
      <trkpt lat="42.0310620" lon="-6.7440810">
        <ele>996.5</ele>
        <time>2019-08-16T13:38:07Z</time>
      </trkpt>
      <trkpt lat="42.0310760" lon="-6.7441210">
        <ele>996.6</ele>
        <time>2019-08-16T13:38:08Z</time>
      </trkpt>
      <trkpt lat="42.0310900" lon="-6.7441600">
        <ele>996.7</ele>
        <time>2019-08-16T13:38:09Z</time>
      </trkpt>
      <trkpt lat="42.0310990" lon="-6.7441990">
        <ele>996.8</ele>
        <time>2019-08-16T13:38:10Z</time>
      </trkpt>
      <trkpt lat="42.0311010" lon="-6.7442390">
        <ele>996.9</ele>
        <time>2019-08-16T13:38:11Z</time>
      </trkpt>
      <trkpt lat="42.0310990" lon="-6.7442800">
        <ele>997.1</ele>
        <time>2019-08-16T13:38:12Z</time>
      </trkpt>
      <trkpt lat="42.0310950" lon="-6.7443210">
        <ele>997.4</ele>
        <time>2019-08-16T13:38:13Z</time>
      </trkpt>
      <trkpt lat="42.0310910" lon="-6.7443620">
        <ele>997.7</ele>
        <time>2019-08-16T13:38:14Z</time>
      </trkpt>
      <trkpt lat="42.0310880" lon="-6.7444030">
        <ele>998.0</ele>
        <time>2019-08-16T13:38:15Z</time>
      </trkpt>
      <trkpt lat="42.0310840" lon="-6.7444440">
        <ele>998.3</ele>
        <time>2019-08-16T13:38:16Z</time>
      </trkpt>
      <trkpt lat="42.0310800" lon="-6.7444850">
        <ele>998.6</ele>
        <time>2019-08-16T13:38:17Z</time>
      </trkpt>
      <trkpt lat="42.0310770" lon="-6.7445270">
        <ele>998.9</ele>
        <time>2019-08-16T13:38:18Z</time>
      </trkpt>
      <trkpt lat="42.0310730" lon="-6.7445680">
        <ele>999.2</ele>
        <time>2019-08-16T13:38:19Z</time>
      </trkpt>
      <trkpt lat="42.0310680" lon="-6.7446100">
        <ele>999.5</ele>
        <time>2019-08-16T13:38:20Z</time>
      </trkpt>
      <trkpt lat="42.0310630" lon="-6.7446500">
        <ele>999.8</ele>
        <time>2019-08-16T13:38:21Z</time>
      </trkpt>
      <trkpt lat="42.0310590" lon="-6.7446900">
        <ele>1000.0</ele>
        <time>2019-08-16T13:38:22Z</time>
      </trkpt>
      <trkpt lat="42.0310540" lon="-6.7447300">
        <ele>1000.3</ele>
        <time>2019-08-16T13:38:23Z</time>
      </trkpt>
      <trkpt lat="42.0310490" lon="-6.7447700">
        <ele>1000.6</ele>
        <time>2019-08-16T13:38:24Z</time>
      </trkpt>
      <trkpt lat="42.0310440" lon="-6.7448100">
        <ele>1000.9</ele>
        <time>2019-08-16T13:38:25Z</time>
      </trkpt>
      <trkpt lat="42.0310390" lon="-6.7448490">
        <ele>1001.2</ele>
        <time>2019-08-16T13:38:26Z</time>
      </trkpt>
      <trkpt lat="42.0310330" lon="-6.7448900">
        <ele>1001.4</ele>
        <time>2019-08-16T13:38:27Z</time>
      </trkpt>
      <trkpt lat="42.0310270" lon="-6.7449290">
        <ele>1001.7</ele>
        <time>2019-08-16T13:38:28Z</time>
      </trkpt>
      <trkpt lat="42.0310200" lon="-6.7449690">
        <ele>1001.9</ele>
        <time>2019-08-16T13:38:29Z</time>
      </trkpt>
      <trkpt lat="42.0310110" lon="-6.7450090">
        <ele>1002.0</ele>
        <time>2019-08-16T13:38:30Z</time>
      </trkpt>
      <trkpt lat="42.0310020" lon="-6.7450490">
        <ele>1002.2</ele>
        <time>2019-08-16T13:38:31Z</time>
      </trkpt>
      <trkpt lat="42.0309920" lon="-6.7450900">
        <ele>1002.4</ele>
        <time>2019-08-16T13:38:32Z</time>
      </trkpt>
      <trkpt lat="42.0309820" lon="-6.7451300">
        <ele>1002.6</ele>
        <time>2019-08-16T13:38:33Z</time>
      </trkpt>
      <trkpt lat="42.0309720" lon="-6.7451700">
        <ele>1002.9</ele>
        <time>2019-08-16T13:38:34Z</time>
      </trkpt>
      <trkpt lat="42.0309610" lon="-6.7452110">
        <ele>1003.0</ele>
        <time>2019-08-16T13:38:35Z</time>
      </trkpt>
      <trkpt lat="42.0309490" lon="-6.7452510">
        <ele>1003.2</ele>
        <time>2019-08-16T13:38:36Z</time>
      </trkpt>
      <trkpt lat="42.0309360" lon="-6.7452930">
        <ele>1003.4</ele>
        <time>2019-08-16T13:38:37Z</time>
      </trkpt>
      <trkpt lat="42.0309240" lon="-6.7453350">
        <ele>1003.6</ele>
        <time>2019-08-16T13:38:38Z</time>
      </trkpt>
      <trkpt lat="42.0309110" lon="-6.7453790">
        <ele>1003.8</ele>
        <time>2019-08-16T13:38:39Z</time>
      </trkpt>
      <trkpt lat="42.0308980" lon="-6.7454230">
        <ele>1004.1</ele>
        <time>2019-08-16T13:38:40Z</time>
      </trkpt>
      <trkpt lat="42.0308830" lon="-6.7454690">
        <ele>1004.3</ele>
        <time>2019-08-16T13:38:41Z</time>
      </trkpt>
      <trkpt lat="42.0308670" lon="-6.7455150">
        <ele>1004.6</ele>
        <time>2019-08-16T13:38:42Z</time>
      </trkpt>
      <trkpt lat="42.0308510" lon="-6.7455600">
        <ele>1004.8</ele>
        <time>2019-08-16T13:38:43Z</time>
      </trkpt>
      <trkpt lat="42.0308350" lon="-6.7456030">
        <ele>1005.0</ele>
        <time>2019-08-16T13:38:44Z</time>
      </trkpt>
      <trkpt lat="42.0308210" lon="-6.7456410">
        <ele>1005.1</ele>
        <time>2019-08-16T13:38:45Z</time>
      </trkpt>
      <trkpt lat="42.0308090" lon="-6.7456760">
        <ele>1005.3</ele>
        <time>2019-08-16T13:38:46Z</time>
      </trkpt>
      <trkpt lat="42.0307990" lon="-6.7457090">
        <ele>1005.4</ele>
        <time>2019-08-16T13:38:47Z</time>
      </trkpt>
      <trkpt lat="42.0307750" lon="-6.7457760">
        <ele>1005.8</ele>
        <time>2019-08-16T13:38:49Z</time>
      </trkpt>
      <trkpt lat="42.0307620" lon="-6.7458130">
        <ele>1006.0</ele>
        <time>2019-08-16T13:38:50Z</time>
      </trkpt>
      <trkpt lat="42.0307470" lon="-6.7458510">
        <ele>1006.2</ele>
        <time>2019-08-16T13:38:51Z</time>
      </trkpt>
      <trkpt lat="42.0307310" lon="-6.7458910">
        <ele>1006.4</ele>
        <time>2019-08-16T13:38:52Z</time>
      </trkpt>
      <trkpt lat="42.0307160" lon="-6.7459330">
        <ele>1006.5</ele>
        <time>2019-08-16T13:38:53Z</time>
      </trkpt>
      <trkpt lat="42.0307010" lon="-6.7459760">
        <ele>1006.6</ele>
        <time>2019-08-16T13:38:54Z</time>
      </trkpt>
      <trkpt lat="42.0306850" lon="-6.7460180">
        <ele>1006.7</ele>
        <time>2019-08-16T13:38:55Z</time>
      </trkpt>
      <trkpt lat="42.0306710" lon="-6.7460610">
        <ele>1006.9</ele>
        <time>2019-08-16T13:38:56Z</time>
      </trkpt>
      <trkpt lat="42.0306580" lon="-6.7461040">
        <ele>1007.0</ele>
        <time>2019-08-16T13:38:57Z</time>
      </trkpt>
      <trkpt lat="42.0306440" lon="-6.7461470">
        <ele>1007.1</ele>
        <time>2019-08-16T13:38:58Z</time>
      </trkpt>
      <trkpt lat="42.0306300" lon="-6.7461880">
        <ele>1007.2</ele>
        <time>2019-08-16T13:38:59Z</time>
      </trkpt>
      <trkpt lat="42.0306170" lon="-6.7462290">
        <ele>1007.3</ele>
        <time>2019-08-16T13:39:00Z</time>
      </trkpt>
      <trkpt lat="42.0306040" lon="-6.7462700">
        <ele>1006.9</ele>
        <time>2019-08-16T13:39:01Z</time>
      </trkpt>
      <trkpt lat="42.0305930" lon="-6.7463120">
        <ele>1006.7</ele>
        <time>2019-08-16T13:39:02Z</time>
      </trkpt>
      <trkpt lat="42.0305810" lon="-6.7463550">
        <ele>1006.4</ele>
        <time>2019-08-16T13:39:03Z</time>
      </trkpt>
      <trkpt lat="42.0305700" lon="-6.7463980">
        <ele>1006.2</ele>
        <time>2019-08-16T13:39:04Z</time>
      </trkpt>
      <trkpt lat="42.0305590" lon="-6.7464400">
        <ele>1006.0</ele>
        <time>2019-08-16T13:39:05Z</time>
      </trkpt>
      <trkpt lat="42.0305490" lon="-6.7464820">
        <ele>1005.8</ele>
        <time>2019-08-16T13:39:06Z</time>
      </trkpt>
      <trkpt lat="42.0305390" lon="-6.7465250">
        <ele>1005.5</ele>
        <time>2019-08-16T13:39:07Z</time>
      </trkpt>
      <trkpt lat="42.0305280" lon="-6.7465680">
        <ele>1005.3</ele>
        <time>2019-08-16T13:39:08Z</time>
      </trkpt>
      <trkpt lat="42.0305180" lon="-6.7466120">
        <ele>1005.0</ele>
        <time>2019-08-16T13:39:09Z</time>
      </trkpt>
      <trkpt lat="42.0305080" lon="-6.7466590">
        <ele>1004.8</ele>
        <time>2019-08-16T13:39:10Z</time>
      </trkpt>
      <trkpt lat="42.0305000" lon="-6.7467050">
        <ele>1004.5</ele>
        <time>2019-08-16T13:39:11Z</time>
      </trkpt>
      <trkpt lat="42.0304920" lon="-6.7467530">
        <ele>1004.3</ele>
        <time>2019-08-16T13:39:12Z</time>
      </trkpt>
      <trkpt lat="42.0304850" lon="-6.7468000">
        <ele>1004.0</ele>
        <time>2019-08-16T13:39:13Z</time>
      </trkpt>
      <trkpt lat="42.0304790" lon="-6.7468450">
        <ele>1003.8</ele>
        <time>2019-08-16T13:39:14Z</time>
      </trkpt>
      <trkpt lat="42.0304740" lon="-6.7468890">
        <ele>1003.6</ele>
        <time>2019-08-16T13:39:15Z</time>
      </trkpt>
      <trkpt lat="42.0304710" lon="-6.7469320">
        <ele>1003.3</ele>
        <time>2019-08-16T13:39:16Z</time>
      </trkpt>
      <trkpt lat="42.0304690" lon="-6.7469740">
        <ele>1003.1</ele>
        <time>2019-08-16T13:39:17Z</time>
      </trkpt>
      <trkpt lat="42.0304670" lon="-6.7470180">
        <ele>1002.9</ele>
        <time>2019-08-16T13:39:18Z</time>
      </trkpt>
      <trkpt lat="42.0304630" lon="-6.7470640">
        <ele>1002.6</ele>
        <time>2019-08-16T13:39:19Z</time>
      </trkpt>
      <trkpt lat="42.0304590" lon="-6.7471100">
        <ele>1002.4</ele>
        <time>2019-08-16T13:39:20Z</time>
      </trkpt>
      <trkpt lat="42.0304560" lon="-6.7471550">
        <ele>1002.1</ele>
        <time>2019-08-16T13:39:21Z</time>
      </trkpt>
      <trkpt lat="42.0304530" lon="-6.7472010">
        <ele>1001.9</ele>
        <time>2019-08-16T13:39:22Z</time>
      </trkpt>
      <trkpt lat="42.0304520" lon="-6.7472480">
        <ele>1001.6</ele>
        <time>2019-08-16T13:39:23Z</time>
      </trkpt>
      <trkpt lat="42.0304520" lon="-6.7472970">
        <ele>1001.3</ele>
        <time>2019-08-16T13:39:24Z</time>
      </trkpt>
      <trkpt lat="42.0304510" lon="-6.7473480">
        <ele>1000.9</ele>
        <time>2019-08-16T13:39:25Z</time>
      </trkpt>
      <trkpt lat="42.0304510" lon="-6.7474000">
        <ele>1000.9</ele>
        <time>2019-08-16T13:39:26Z</time>
      </trkpt>
      <trkpt lat="42.0304510" lon="-6.7474540">
        <ele>1000.9</ele>
        <time>2019-08-16T13:39:27Z</time>
      </trkpt>
      <trkpt lat="42.0304500" lon="-6.7475060">
        <ele>1000.9</ele>
        <time>2019-08-16T13:39:28Z</time>
      </trkpt>
      <trkpt lat="42.0304500" lon="-6.7475580">
        <ele>1000.9</ele>
        <time>2019-08-16T13:39:29Z</time>
      </trkpt>
      <trkpt lat="42.0304500" lon="-6.7476110">
        <ele>1000.8</ele>
        <time>2019-08-16T13:39:30Z</time>
      </trkpt>
      <trkpt lat="42.0304500" lon="-6.7476640">
        <ele>1000.8</ele>
        <time>2019-08-16T13:39:31Z</time>
      </trkpt>
      <trkpt lat="42.0304510" lon="-6.7477170">
        <ele>1000.8</ele>
        <time>2019-08-16T13:39:32Z</time>
      </trkpt>
      <trkpt lat="42.0304510" lon="-6.7477690">
        <ele>1000.8</ele>
        <time>2019-08-16T13:39:33Z</time>
      </trkpt>
      <trkpt lat="42.0304520" lon="-6.7478220">
        <ele>1000.8</ele>
        <time>2019-08-16T13:39:34Z</time>
      </trkpt>
      <trkpt lat="42.0304530" lon="-6.7478750">
        <ele>1000.8</ele>
        <time>2019-08-16T13:39:35Z</time>
      </trkpt>
      <trkpt lat="42.0304540" lon="-6.7479290">
        <ele>1000.8</ele>
        <time>2019-08-16T13:39:36Z</time>
      </trkpt>
      <trkpt lat="42.0304560" lon="-6.7479810">
        <ele>1000.8</ele>
        <time>2019-08-16T13:39:37Z</time>
      </trkpt>
      <trkpt lat="42.0304570" lon="-6.7480320">
        <ele>1000.8</ele>
        <time>2019-08-16T13:39:38Z</time>
      </trkpt>
      <trkpt lat="42.0304580" lon="-6.7480790">
        <ele>1000.8</ele>
        <time>2019-08-16T13:39:39Z</time>
      </trkpt>
      <trkpt lat="42.0304590" lon="-6.7481250">
        <ele>1000.8</ele>
        <time>2019-08-16T13:39:40Z</time>
      </trkpt>
      <trkpt lat="42.0304590" lon="-6.7481700">
        <ele>1000.8</ele>
        <time>2019-08-16T13:39:41Z</time>
      </trkpt>
      <trkpt lat="42.0304590" lon="-6.7482140">
        <ele>1000.8</ele>
        <time>2019-08-16T13:39:42Z</time>
      </trkpt>
      <trkpt lat="42.0304590" lon="-6.7482560">
        <ele>1000.8</ele>
        <time>2019-08-16T13:39:43Z</time>
      </trkpt>
      <trkpt lat="42.0304580" lon="-6.7482960">
        <ele>1000.8</ele>
        <time>2019-08-16T13:39:44Z</time>
      </trkpt>
      <trkpt lat="42.0304600" lon="-6.7483360">
        <ele>1000.8</ele>
        <time>2019-08-16T13:39:45Z</time>
      </trkpt>
      <trkpt lat="42.0304610" lon="-6.7483750">
        <ele>1000.8</ele>
        <time>2019-08-16T13:39:46Z</time>
      </trkpt>
      <trkpt lat="42.0304630" lon="-6.7484170">
        <ele>1000.8</ele>
        <time>2019-08-16T13:39:47Z</time>
      </trkpt>
      <trkpt lat="42.0304650" lon="-6.7484650">
        <ele>1000.8</ele>
        <time>2019-08-16T13:39:48Z</time>
      </trkpt>
      <trkpt lat="42.0304660" lon="-6.7485170">
        <ele>1000.8</ele>
        <time>2019-08-16T13:39:49Z</time>
      </trkpt>
      <trkpt lat="42.0304680" lon="-6.7485710">
        <ele>1000.8</ele>
        <time>2019-08-16T13:39:50Z</time>
      </trkpt>
      <trkpt lat="42.0304690" lon="-6.7486280">
        <ele>1000.8</ele>
        <time>2019-08-16T13:39:51Z</time>
      </trkpt>
      <trkpt lat="42.0304700" lon="-6.7486870">
        <ele>1000.8</ele>
        <time>2019-08-16T13:39:52Z</time>
      </trkpt>
      <trkpt lat="42.0304720" lon="-6.7487470">
        <ele>1000.8</ele>
        <time>2019-08-16T13:39:53Z</time>
      </trkpt>
      <trkpt lat="42.0304740" lon="-6.7488090">
        <ele>1000.8</ele>
        <time>2019-08-16T13:39:54Z</time>
      </trkpt>
      <trkpt lat="42.0304750" lon="-6.7488720">
        <ele>1000.8</ele>
        <time>2019-08-16T13:39:55Z</time>
      </trkpt>
      <trkpt lat="42.0304760" lon="-6.7489350">
        <ele>1000.8</ele>
        <time>2019-08-16T13:39:56Z</time>
      </trkpt>
      <trkpt lat="42.0304770" lon="-6.7489980">
        <ele>1000.8</ele>
        <time>2019-08-16T13:39:57Z</time>
      </trkpt>
      <trkpt lat="42.0304780" lon="-6.7490610">
        <ele>1000.8</ele>
        <time>2019-08-16T13:39:58Z</time>
      </trkpt>
      <trkpt lat="42.0304790" lon="-6.7491210">
        <ele>1000.9</ele>
        <time>2019-08-16T13:39:59Z</time>
      </trkpt>
      <trkpt lat="42.0304810" lon="-6.7491800">
        <ele>1000.9</ele>
        <time>2019-08-16T13:40:00Z</time>
      </trkpt>
      <trkpt lat="42.0304830" lon="-6.7492370">
        <ele>1000.9</ele>
        <time>2019-08-16T13:40:01Z</time>
      </trkpt>
      <trkpt lat="42.0304850" lon="-6.7492930">
        <ele>1000.9</ele>
        <time>2019-08-16T13:40:02Z</time>
      </trkpt>
      <trkpt lat="42.0304870" lon="-6.7493490">
        <ele>1000.9</ele>
        <time>2019-08-16T13:40:03Z</time>
      </trkpt>
      <trkpt lat="42.0304890" lon="-6.7494080">
        <ele>1000.9</ele>
        <time>2019-08-16T13:40:04Z</time>
      </trkpt>
      <trkpt lat="42.0304910" lon="-6.7494680">
        <ele>1000.9</ele>
        <time>2019-08-16T13:40:05Z</time>
      </trkpt>
      <trkpt lat="42.0304930" lon="-6.7495300">
        <ele>1001.0</ele>
        <time>2019-08-16T13:40:06Z</time>
      </trkpt>
      <trkpt lat="42.0304940" lon="-6.7495920">
        <ele>1001.0</ele>
        <time>2019-08-16T13:40:07Z</time>
      </trkpt>
      <trkpt lat="42.0304950" lon="-6.7496520">
        <ele>1001.1</ele>
        <time>2019-08-16T13:40:08Z</time>
      </trkpt>
      <trkpt lat="42.0304970" lon="-6.7497120">
        <ele>1001.1</ele>
        <time>2019-08-16T13:40:09Z</time>
      </trkpt>
      <trkpt lat="42.0304990" lon="-6.7497690">
        <ele>1001.2</ele>
        <time>2019-08-16T13:40:10Z</time>
      </trkpt>
      <trkpt lat="42.0305000" lon="-6.7498250">
        <ele>1001.2</ele>
        <time>2019-08-16T13:40:11Z</time>
      </trkpt>
      <trkpt lat="42.0305030" lon="-6.7498830">
        <ele>1001.3</ele>
        <time>2019-08-16T13:40:12Z</time>
      </trkpt>
      <trkpt lat="42.0305060" lon="-6.7499430">
        <ele>1001.4</ele>
        <time>2019-08-16T13:40:13Z</time>
      </trkpt>
      <trkpt lat="42.0305080" lon="-6.7500040">
        <ele>1001.5</ele>
        <time>2019-08-16T13:40:14Z</time>
      </trkpt>
      <trkpt lat="42.0305100" lon="-6.7500680">
        <ele>1001.7</ele>
        <time>2019-08-16T13:40:15Z</time>
      </trkpt>
      <trkpt lat="42.0305140" lon="-6.7501320">
        <ele>1001.8</ele>
        <time>2019-08-16T13:40:16Z</time>
      </trkpt>
      <trkpt lat="42.0305170" lon="-6.7501960">
        <ele>1001.9</ele>
        <time>2019-08-16T13:40:17Z</time>
      </trkpt>
      <trkpt lat="42.0305180" lon="-6.7502610">
        <ele>1002.1</ele>
        <time>2019-08-16T13:40:18Z</time>
      </trkpt>
      <trkpt lat="42.0305200" lon="-6.7503260">
        <ele>1002.2</ele>
        <time>2019-08-16T13:40:19Z</time>
      </trkpt>
      <trkpt lat="42.0305210" lon="-6.7503910">
        <ele>1002.4</ele>
        <time>2019-08-16T13:40:20Z</time>
      </trkpt>
      <trkpt lat="42.0305220" lon="-6.7504560">
        <ele>1002.6</ele>
        <time>2019-08-16T13:40:21Z</time>
      </trkpt>
      <trkpt lat="42.0305240" lon="-6.7505230">
        <ele>1002.8</ele>
        <time>2019-08-16T13:40:22Z</time>
      </trkpt>
      <trkpt lat="42.0305270" lon="-6.7505900">
        <ele>1003.1</ele>
        <time>2019-08-16T13:40:23Z</time>
      </trkpt>
      <trkpt lat="42.0305300" lon="-6.7506570">
        <ele>1003.3</ele>
        <time>2019-08-16T13:40:24Z</time>
      </trkpt>
      <trkpt lat="42.0305320" lon="-6.7507230">
        <ele>1003.6</ele>
        <time>2019-08-16T13:40:25Z</time>
      </trkpt>
      <trkpt lat="42.0305330" lon="-6.7507890">
        <ele>1003.9</ele>
        <time>2019-08-16T13:40:26Z</time>
      </trkpt>
      <trkpt lat="42.0305340" lon="-6.7508550">
        <ele>1004.2</ele>
        <time>2019-08-16T13:40:27Z</time>
      </trkpt>
      <trkpt lat="42.0305360" lon="-6.7509220">
        <ele>1004.5</ele>
        <time>2019-08-16T13:40:28Z</time>
      </trkpt>
      <trkpt lat="42.0305380" lon="-6.7509880">
        <ele>1004.8</ele>
        <time>2019-08-16T13:40:29Z</time>
      </trkpt>
      <trkpt lat="42.0305400" lon="-6.7510550">
        <ele>1005.1</ele>
        <time>2019-08-16T13:40:30Z</time>
      </trkpt>
      <trkpt lat="42.0305430" lon="-6.7511200">
        <ele>1005.4</ele>
        <time>2019-08-16T13:40:31Z</time>
      </trkpt>
      <trkpt lat="42.0305430" lon="-6.7511840">
        <ele>1005.7</ele>
        <time>2019-08-16T13:40:32Z</time>
      </trkpt>
      <trkpt lat="42.0305450" lon="-6.7512500">
        <ele>1006.0</ele>
        <time>2019-08-16T13:40:33Z</time>
      </trkpt>
      <trkpt lat="42.0305460" lon="-6.7513150">
        <ele>1006.2</ele>
        <time>2019-08-16T13:40:34Z</time>
      </trkpt>
      <trkpt lat="42.0305470" lon="-6.7513800">
        <ele>1006.4</ele>
        <time>2019-08-16T13:40:35Z</time>
      </trkpt>
      <trkpt lat="42.0305490" lon="-6.7514440">
        <ele>1006.7</ele>
        <time>2019-08-16T13:40:36Z</time>
      </trkpt>
      <trkpt lat="42.0305490" lon="-6.7515070">
        <ele>1006.9</ele>
        <time>2019-08-16T13:40:37Z</time>
      </trkpt>
      <trkpt lat="42.0305500" lon="-6.7515680">
        <ele>1007.0</ele>
        <time>2019-08-16T13:40:38Z</time>
      </trkpt>
      <trkpt lat="42.0305520" lon="-6.7516300">
        <ele>1007.2</ele>
        <time>2019-08-16T13:40:39Z</time>
      </trkpt>
      <trkpt lat="42.0305550" lon="-6.7516900">
        <ele>1007.4</ele>
        <time>2019-08-16T13:40:40Z</time>
      </trkpt>
      <trkpt lat="42.0305580" lon="-6.7517490">
        <ele>1007.5</ele>
        <time>2019-08-16T13:40:41Z</time>
      </trkpt>
      <trkpt lat="42.0305610" lon="-6.7518080">
        <ele>1007.6</ele>
        <time>2019-08-16T13:40:42Z</time>
      </trkpt>
      <trkpt lat="42.0305640" lon="-6.7518670">
        <ele>1007.7</ele>
        <time>2019-08-16T13:40:43Z</time>
      </trkpt>
      <trkpt lat="42.0305650" lon="-6.7519230">
        <ele>1007.8</ele>
        <time>2019-08-16T13:40:44Z</time>
      </trkpt>
      <trkpt lat="42.0305660" lon="-6.7519770">
        <ele>1007.9</ele>
        <time>2019-08-16T13:40:45Z</time>
      </trkpt>
      <trkpt lat="42.0305670" lon="-6.7520320">
        <ele>1008.0</ele>
        <time>2019-08-16T13:40:46Z</time>
      </trkpt>
      <trkpt lat="42.0305680" lon="-6.7520890">
        <ele>1008.1</ele>
        <time>2019-08-16T13:40:47Z</time>
      </trkpt>
      <trkpt lat="42.0305700" lon="-6.7521420">
        <ele>1008.2</ele>
        <time>2019-08-16T13:40:48Z</time>
      </trkpt>
      <trkpt lat="42.0305720" lon="-6.7521970">
        <ele>1008.3</ele>
        <time>2019-08-16T13:40:49Z</time>
      </trkpt>
      <trkpt lat="42.0305730" lon="-6.7522520">
        <ele>1008.4</ele>
        <time>2019-08-16T13:40:50Z</time>
      </trkpt>
      <trkpt lat="42.0305730" lon="-6.7523040">
        <ele>1008.5</ele>
        <time>2019-08-16T13:40:51Z</time>
      </trkpt>
      <trkpt lat="42.0305750" lon="-6.7523550">
        <ele>1008.5</ele>
        <time>2019-08-16T13:40:52Z</time>
      </trkpt>
      <trkpt lat="42.0305750" lon="-6.7524060">
        <ele>1008.6</ele>
        <time>2019-08-16T13:40:53Z</time>
      </trkpt>
      <trkpt lat="42.0305770" lon="-6.7524580">
        <ele>1008.7</ele>
        <time>2019-08-16T13:40:54Z</time>
      </trkpt>
      <trkpt lat="42.0305770" lon="-6.7525100">
        <ele>1008.7</ele>
        <time>2019-08-16T13:40:55Z</time>
      </trkpt>
      <trkpt lat="42.0305780" lon="-6.7525630">
        <ele>1008.8</ele>
        <time>2019-08-16T13:40:56Z</time>
      </trkpt>
      <trkpt lat="42.0305790" lon="-6.7526170">
        <ele>1008.8</ele>
        <time>2019-08-16T13:40:57Z</time>
      </trkpt>
      <trkpt lat="42.0305810" lon="-6.7526720">
        <ele>1008.9</ele>
        <time>2019-08-16T13:40:58Z</time>
      </trkpt>
      <trkpt lat="42.0305830" lon="-6.7527260">
        <ele>1008.9</ele>
        <time>2019-08-16T13:40:59Z</time>
      </trkpt>
      <trkpt lat="42.0305850" lon="-6.7527810">
        <ele>1009.0</ele>
        <time>2019-08-16T13:41:00Z</time>
      </trkpt>
      <trkpt lat="42.0305870" lon="-6.7528340">
        <ele>1009.0</ele>
        <time>2019-08-16T13:41:01Z</time>
      </trkpt>
      <trkpt lat="42.0305880" lon="-6.7528880">
        <ele>1009.1</ele>
        <time>2019-08-16T13:41:02Z</time>
      </trkpt>
      <trkpt lat="42.0305900" lon="-6.7529420">
        <ele>1009.1</ele>
        <time>2019-08-16T13:41:03Z</time>
      </trkpt>
      <trkpt lat="42.0305930" lon="-6.7529960">
        <ele>1009.1</ele>
        <time>2019-08-16T13:41:04Z</time>
      </trkpt>
      <trkpt lat="42.0305970" lon="-6.7530500">
        <ele>1009.2</ele>
        <time>2019-08-16T13:41:05Z</time>
      </trkpt>
      <trkpt lat="42.0306010" lon="-6.7531060">
        <ele>1009.2</ele>
        <time>2019-08-16T13:41:06Z</time>
      </trkpt>
      <trkpt lat="42.0306050" lon="-6.7531610">
        <ele>1009.3</ele>
        <time>2019-08-16T13:41:07Z</time>
      </trkpt>
      <trkpt lat="42.0306090" lon="-6.7532170">
        <ele>1009.3</ele>
        <time>2019-08-16T13:41:08Z</time>
      </trkpt>
      <trkpt lat="42.0306130" lon="-6.7532740">
        <ele>1009.4</ele>
        <time>2019-08-16T13:41:09Z</time>
      </trkpt>
      <trkpt lat="42.0306170" lon="-6.7533330">
        <ele>1009.4</ele>
        <time>2019-08-16T13:41:10Z</time>
      </trkpt>
      <trkpt lat="42.0306220" lon="-6.7533930">
        <ele>1009.5</ele>
        <time>2019-08-16T13:41:11Z</time>
      </trkpt>
      <trkpt lat="42.0306270" lon="-6.7534530">
        <ele>1009.5</ele>
        <time>2019-08-16T13:41:12Z</time>
      </trkpt>
      <trkpt lat="42.0306320" lon="-6.7535160">
        <ele>1009.6</ele>
        <time>2019-08-16T13:41:13Z</time>
      </trkpt>
      <trkpt lat="42.0306390" lon="-6.7535770">
        <ele>1009.7</ele>
        <time>2019-08-16T13:41:14Z</time>
      </trkpt>
      <trkpt lat="42.0306460" lon="-6.7536360">
        <ele>1009.7</ele>
        <time>2019-08-16T13:41:15Z</time>
      </trkpt>
      <trkpt lat="42.0306540" lon="-6.7536900">
        <ele>1009.7</ele>
        <time>2019-08-16T13:41:16Z</time>
      </trkpt>
      <trkpt lat="42.0306620" lon="-6.7537440">
        <ele>1009.8</ele>
        <time>2019-08-16T13:41:17Z</time>
      </trkpt>
      <trkpt lat="42.0306680" lon="-6.7537990">
        <ele>1009.8</ele>
        <time>2019-08-16T13:41:18Z</time>
      </trkpt>
      <trkpt lat="42.0306720" lon="-6.7538590">
        <ele>1010.3</ele>
        <time>2019-08-16T13:41:19Z</time>
      </trkpt>
      <trkpt lat="42.0306800" lon="-6.7539200">
        <ele>1010.6</ele>
        <time>2019-08-16T13:41:20Z</time>
      </trkpt>
      <trkpt lat="42.0306890" lon="-6.7539820">
        <ele>1011.0</ele>
        <time>2019-08-16T13:41:21Z</time>
      </trkpt>
      <trkpt lat="42.0306990" lon="-6.7540450">
        <ele>1011.3</ele>
        <time>2019-08-16T13:41:22Z</time>
      </trkpt>
      <trkpt lat="42.0307090" lon="-6.7541060">
        <ele>1011.6</ele>
        <time>2019-08-16T13:41:23Z</time>
      </trkpt>
      <trkpt lat="42.0307190" lon="-6.7541660">
        <ele>1011.9</ele>
        <time>2019-08-16T13:41:24Z</time>
      </trkpt>
      <trkpt lat="42.0307300" lon="-6.7542230">
        <ele>1012.2</ele>
        <time>2019-08-16T13:41:25Z</time>
      </trkpt>
      <trkpt lat="42.0307420" lon="-6.7542770">
        <ele>1012.5</ele>
        <time>2019-08-16T13:41:26Z</time>
      </trkpt>
      <trkpt lat="42.0307530" lon="-6.7543290">
        <ele>1012.8</ele>
        <time>2019-08-16T13:41:27Z</time>
      </trkpt>
      <trkpt lat="42.0307630" lon="-6.7543810">
        <ele>1013.0</ele>
        <time>2019-08-16T13:41:28Z</time>
      </trkpt>
      <trkpt lat="42.0307740" lon="-6.7544330">
        <ele>1013.3</ele>
        <time>2019-08-16T13:41:29Z</time>
      </trkpt>
      <trkpt lat="42.0307840" lon="-6.7544880">
        <ele>1013.6</ele>
        <time>2019-08-16T13:41:30Z</time>
      </trkpt>
      <trkpt lat="42.0307950" lon="-6.7545460">
        <ele>1013.9</ele>
        <time>2019-08-16T13:41:31Z</time>
      </trkpt>
      <trkpt lat="42.0308060" lon="-6.7546060">
        <ele>1014.4</ele>
        <time>2019-08-16T13:41:32Z</time>
      </trkpt>
      <trkpt lat="42.0308190" lon="-6.7546640">
        <ele>1014.7</ele>
        <time>2019-08-16T13:41:33Z</time>
      </trkpt>
      <trkpt lat="42.0308330" lon="-6.7547230">
        <ele>1014.8</ele>
        <time>2019-08-16T13:41:34Z</time>
      </trkpt>
      <trkpt lat="42.0308470" lon="-6.7547820">
        <ele>1014.8</ele>
        <time>2019-08-16T13:41:35Z</time>
      </trkpt>
      <trkpt lat="42.0308620" lon="-6.7548420">
        <ele>1014.8</ele>
        <time>2019-08-16T13:41:36Z</time>
      </trkpt>
      <trkpt lat="42.0308770" lon="-6.7549000">
        <ele>1014.7</ele>
        <time>2019-08-16T13:41:37Z</time>
      </trkpt>
      <trkpt lat="42.0308920" lon="-6.7549580">
        <ele>1014.7</ele>
        <time>2019-08-16T13:41:38Z</time>
      </trkpt>
      <trkpt lat="42.0309080" lon="-6.7550120">
        <ele>1014.7</ele>
        <time>2019-08-16T13:41:39Z</time>
      </trkpt>
      <trkpt lat="42.0309230" lon="-6.7550660">
        <ele>1014.7</ele>
        <time>2019-08-16T13:41:40Z</time>
      </trkpt>
      <trkpt lat="42.0309380" lon="-6.7551200">
        <ele>1014.6</ele>
        <time>2019-08-16T13:41:41Z</time>
      </trkpt>
      <trkpt lat="42.0309550" lon="-6.7551770">
        <ele>1014.6</ele>
        <time>2019-08-16T13:41:42Z</time>
      </trkpt>
      <trkpt lat="42.0309740" lon="-6.7552360">
        <ele>1014.5</ele>
        <time>2019-08-16T13:41:43Z</time>
      </trkpt>
      <trkpt lat="42.0309950" lon="-6.7552950">
        <ele>1014.5</ele>
        <time>2019-08-16T13:41:44Z</time>
      </trkpt>
      <trkpt lat="42.0310150" lon="-6.7553550">
        <ele>1014.5</ele>
        <time>2019-08-16T13:41:45Z</time>
      </trkpt>
      <trkpt lat="42.0310350" lon="-6.7554140">
        <ele>1014.4</ele>
        <time>2019-08-16T13:41:46Z</time>
      </trkpt>
      <trkpt lat="42.0310550" lon="-6.7554730">
        <ele>1014.4</ele>
        <time>2019-08-16T13:41:47Z</time>
      </trkpt>
      <trkpt lat="42.0310750" lon="-6.7555310">
        <ele>1014.3</ele>
        <time>2019-08-16T13:41:48Z</time>
      </trkpt>
      <trkpt lat="42.0310960" lon="-6.7555890">
        <ele>1014.3</ele>
        <time>2019-08-16T13:41:49Z</time>
      </trkpt>
      <trkpt lat="42.0311180" lon="-6.7556460">
        <ele>1014.3</ele>
        <time>2019-08-16T13:41:50Z</time>
      </trkpt>
      <trkpt lat="42.0311390" lon="-6.7557050">
        <ele>1014.2</ele>
        <time>2019-08-16T13:41:51Z</time>
      </trkpt>
      <trkpt lat="42.0311590" lon="-6.7557630">
        <ele>1014.2</ele>
        <time>2019-08-16T13:41:52Z</time>
      </trkpt>
      <trkpt lat="42.0311810" lon="-6.7558210">
        <ele>1014.1</ele>
        <time>2019-08-16T13:41:53Z</time>
      </trkpt>
      <trkpt lat="42.0312020" lon="-6.7558810">
        <ele>1014.1</ele>
        <time>2019-08-16T13:41:54Z</time>
      </trkpt>
      <trkpt lat="42.0312240" lon="-6.7559400">
        <ele>1014.0</ele>
        <time>2019-08-16T13:41:55Z</time>
      </trkpt>
      <trkpt lat="42.0312460" lon="-6.7560000">
        <ele>1013.9</ele>
        <time>2019-08-16T13:41:56Z</time>
      </trkpt>
      <trkpt lat="42.0312680" lon="-6.7560590">
        <ele>1013.8</ele>
        <time>2019-08-16T13:41:57Z</time>
      </trkpt>
      <trkpt lat="42.0312930" lon="-6.7561170">
        <ele>1013.7</ele>
        <time>2019-08-16T13:41:58Z</time>
      </trkpt>
      <trkpt lat="42.0313160" lon="-6.7561760">
        <ele>1013.6</ele>
        <time>2019-08-16T13:41:59Z</time>
      </trkpt>
      <trkpt lat="42.0313410" lon="-6.7562360">
        <ele>1013.4</ele>
        <time>2019-08-16T13:42:00Z</time>
      </trkpt>
      <trkpt lat="42.0313660" lon="-6.7562960">
        <ele>1013.2</ele>
        <time>2019-08-16T13:42:01Z</time>
      </trkpt>
      <trkpt lat="42.0313900" lon="-6.7563530">
        <ele>1013.1</ele>
        <time>2019-08-16T13:42:02Z</time>
      </trkpt>
      <trkpt lat="42.0314140" lon="-6.7564120">
        <ele>1012.9</ele>
        <time>2019-08-16T13:42:03Z</time>
      </trkpt>
      <trkpt lat="42.0314380" lon="-6.7564710">
        <ele>1012.7</ele>
        <time>2019-08-16T13:42:04Z</time>
      </trkpt>
      <trkpt lat="42.0314630" lon="-6.7565300">
        <ele>1012.5</ele>
        <time>2019-08-16T13:42:05Z</time>
      </trkpt>
      <trkpt lat="42.0314880" lon="-6.7565880">
        <ele>1012.2</ele>
        <time>2019-08-16T13:42:06Z</time>
      </trkpt>
      <trkpt lat="42.0315130" lon="-6.7566460">
        <ele>1012.0</ele>
        <time>2019-08-16T13:42:07Z</time>
      </trkpt>
      <trkpt lat="42.0315390" lon="-6.7567030">
        <ele>1011.8</ele>
        <time>2019-08-16T13:42:08Z</time>
      </trkpt>
      <trkpt lat="42.0315640" lon="-6.7567610">
        <ele>1011.6</ele>
        <time>2019-08-16T13:42:09Z</time>
      </trkpt>
      <trkpt lat="42.0315900" lon="-6.7568190">
        <ele>1011.4</ele>
        <time>2019-08-16T13:42:10Z</time>
      </trkpt>
      <trkpt lat="42.0316160" lon="-6.7568770">
        <ele>1011.2</ele>
        <time>2019-08-16T13:42:11Z</time>
      </trkpt>
      <trkpt lat="42.0316410" lon="-6.7569350">
        <ele>1010.9</ele>
        <time>2019-08-16T13:42:12Z</time>
      </trkpt>
      <trkpt lat="42.0316650" lon="-6.7569890">
        <ele>1010.9</ele>
        <time>2019-08-16T13:42:13Z</time>
      </trkpt>
      <trkpt lat="42.0316900" lon="-6.7570420">
        <ele>1010.9</ele>
        <time>2019-08-16T13:42:14Z</time>
      </trkpt>
      <trkpt lat="42.0317140" lon="-6.7570950">
        <ele>1010.8</ele>
        <time>2019-08-16T13:42:15Z</time>
      </trkpt>
      <trkpt lat="42.0317370" lon="-6.7571470">
        <ele>1010.8</ele>
        <time>2019-08-16T13:42:16Z</time>
      </trkpt>
      <trkpt lat="42.0317600" lon="-6.7571990">
        <ele>1010.8</ele>
        <time>2019-08-16T13:42:17Z</time>
      </trkpt>
      <trkpt lat="42.0317800" lon="-6.7572480">
        <ele>1010.8</ele>
        <time>2019-08-16T13:42:18Z</time>
      </trkpt>
      <trkpt lat="42.0318030" lon="-6.7572990">
        <ele>1010.7</ele>
        <time>2019-08-16T13:42:19Z</time>
      </trkpt>
      <trkpt lat="42.0318260" lon="-6.7573510">
        <ele>1010.7</ele>
        <time>2019-08-16T13:42:20Z</time>
      </trkpt>
      <trkpt lat="42.0318500" lon="-6.7574040">
        <ele>1010.7</ele>
        <time>2019-08-16T13:42:21Z</time>
      </trkpt>
      <trkpt lat="42.0318750" lon="-6.7574580">
        <ele>1010.7</ele>
        <time>2019-08-16T13:42:22Z</time>
      </trkpt>
      <trkpt lat="42.0319000" lon="-6.7575130">
        <ele>1010.7</ele>
        <time>2019-08-16T13:42:23Z</time>
      </trkpt>
      <trkpt lat="42.0319250" lon="-6.7575690">
        <ele>1010.7</ele>
        <time>2019-08-16T13:42:24Z</time>
      </trkpt>
      <trkpt lat="42.0319510" lon="-6.7576240">
        <ele>1010.7</ele>
        <time>2019-08-16T13:42:25Z</time>
      </trkpt>
      <trkpt lat="42.0319770" lon="-6.7576780">
        <ele>1010.7</ele>
        <time>2019-08-16T13:42:26Z</time>
      </trkpt>
      <trkpt lat="42.0320040" lon="-6.7577340">
        <ele>1010.7</ele>
        <time>2019-08-16T13:42:27Z</time>
      </trkpt>
      <trkpt lat="42.0320300" lon="-6.7577890">
        <ele>1010.7</ele>
        <time>2019-08-16T13:42:28Z</time>
      </trkpt>
      <trkpt lat="42.0320560" lon="-6.7578450">
        <ele>1010.8</ele>
        <time>2019-08-16T13:42:29Z</time>
      </trkpt>
      <trkpt lat="42.0320830" lon="-6.7578990">
        <ele>1010.8</ele>
        <time>2019-08-16T13:42:30Z</time>
      </trkpt>
      <trkpt lat="42.0321100" lon="-6.7579510">
        <ele>1010.9</ele>
        <time>2019-08-16T13:42:31Z</time>
      </trkpt>
      <trkpt lat="42.0321350" lon="-6.7580050">
        <ele>1011.0</ele>
        <time>2019-08-16T13:42:32Z</time>
      </trkpt>
      <trkpt lat="42.0321580" lon="-6.7580570">
        <ele>1011.1</ele>
        <time>2019-08-16T13:42:33Z</time>
      </trkpt>
      <trkpt lat="42.0321810" lon="-6.7581060">
        <ele>1011.2</ele>
        <time>2019-08-16T13:42:34Z</time>
      </trkpt>
      <trkpt lat="42.0322020" lon="-6.7581570">
        <ele>1011.4</ele>
        <time>2019-08-16T13:42:35Z</time>
      </trkpt>
      <trkpt lat="42.0322240" lon="-6.7582060">
        <ele>1011.6</ele>
        <time>2019-08-16T13:42:36Z</time>
      </trkpt>
      <trkpt lat="42.0322450" lon="-6.7582540">
        <ele>1011.7</ele>
        <time>2019-08-16T13:42:37Z</time>
      </trkpt>
      <trkpt lat="42.0322670" lon="-6.7583020">
        <ele>1011.9</ele>
        <time>2019-08-16T13:42:38Z</time>
      </trkpt>
      <trkpt lat="42.0322890" lon="-6.7583500">
        <ele>1012.1</ele>
        <time>2019-08-16T13:42:39Z</time>
      </trkpt>
      <trkpt lat="42.0323090" lon="-6.7583970">
        <ele>1012.2</ele>
        <time>2019-08-16T13:42:40Z</time>
      </trkpt>
      <trkpt lat="42.0323290" lon="-6.7584430">
        <ele>1012.3</ele>
        <time>2019-08-16T13:42:41Z</time>
      </trkpt>
      <trkpt lat="42.0323500" lon="-6.7584870">
        <ele>1012.5</ele>
        <time>2019-08-16T13:42:42Z</time>
      </trkpt>
      <trkpt lat="42.0323720" lon="-6.7585300">
        <ele>1012.6</ele>
        <time>2019-08-16T13:42:43Z</time>
      </trkpt>
      <trkpt lat="42.0323900" lon="-6.7585740">
        <ele>1012.7</ele>
        <time>2019-08-16T13:42:44Z</time>
      </trkpt>
      <trkpt lat="42.0324090" lon="-6.7586170">
        <ele>1012.8</ele>
        <time>2019-08-16T13:42:45Z</time>
      </trkpt>
      <trkpt lat="42.0324280" lon="-6.7586590">
        <ele>1012.9</ele>
        <time>2019-08-16T13:42:46Z</time>
      </trkpt>
      <trkpt lat="42.0324460" lon="-6.7587000">
        <ele>1013.1</ele>
        <time>2019-08-16T13:42:47Z</time>
      </trkpt>
      <trkpt lat="42.0324620" lon="-6.7587420">
        <ele>1013.2</ele>
        <time>2019-08-16T13:42:48Z</time>
      </trkpt>
      <trkpt lat="42.0324790" lon="-6.7587820">
        <ele>1013.3</ele>
        <time>2019-08-16T13:42:49Z</time>
      </trkpt>
      <trkpt lat="42.0324960" lon="-6.7588220">
        <ele>1013.5</ele>
        <time>2019-08-16T13:42:50Z</time>
      </trkpt>
      <trkpt lat="42.0325120" lon="-6.7588600">
        <ele>1013.6</ele>
        <time>2019-08-16T13:42:51Z</time>
      </trkpt>
      <trkpt lat="42.0325280" lon="-6.7588970">
        <ele>1013.7</ele>
        <time>2019-08-16T13:42:52Z</time>
      </trkpt>
      <trkpt lat="42.0325440" lon="-6.7589350">
        <ele>1013.9</ele>
        <time>2019-08-16T13:42:53Z</time>
      </trkpt>
      <trkpt lat="42.0325580" lon="-6.7589730">
        <ele>1014.0</ele>
        <time>2019-08-16T13:42:54Z</time>
      </trkpt>
      <trkpt lat="42.0325730" lon="-6.7590090">
        <ele>1014.1</ele>
        <time>2019-08-16T13:42:55Z</time>
      </trkpt>
      <trkpt lat="42.0325860" lon="-6.7590460">
        <ele>1014.3</ele>
        <time>2019-08-16T13:42:56Z</time>
      </trkpt>
      <trkpt lat="42.0325990" lon="-6.7590830">
        <ele>1014.4</ele>
        <time>2019-08-16T13:42:57Z</time>
      </trkpt>
      <trkpt lat="42.0326120" lon="-6.7591170">
        <ele>1014.6</ele>
        <time>2019-08-16T13:42:58Z</time>
      </trkpt>
      <trkpt lat="42.0326260" lon="-6.7591510">
        <ele>1014.7</ele>
        <time>2019-08-16T13:42:59Z</time>
      </trkpt>
      <trkpt lat="42.0326400" lon="-6.7591850">
        <ele>1014.9</ele>
        <time>2019-08-16T13:43:00Z</time>
      </trkpt>
      <trkpt lat="42.0326520" lon="-6.7592180">
        <ele>1015.0</ele>
        <time>2019-08-16T13:43:01Z</time>
      </trkpt>
      <trkpt lat="42.0326630" lon="-6.7592490">
        <ele>1015.1</ele>
        <time>2019-08-16T13:43:02Z</time>
      </trkpt>
      <trkpt lat="42.0326860" lon="-6.7593110">
        <ele>1015.5</ele>
        <time>2019-08-16T13:43:04Z</time>
      </trkpt>
      <trkpt lat="42.0327080" lon="-6.7593730">
        <ele>1015.9</ele>
        <time>2019-08-16T13:43:06Z</time>
      </trkpt>
      <trkpt lat="42.0327290" lon="-6.7594330">
        <ele>1016.2</ele>
        <time>2019-08-16T13:43:08Z</time>
      </trkpt>
      <trkpt lat="42.0327500" lon="-6.7594940">
        <ele>1016.5</ele>
        <time>2019-08-16T13:43:10Z</time>
      </trkpt>
      <trkpt lat="42.0327690" lon="-6.7595550">
        <ele>1016.8</ele>
        <time>2019-08-16T13:43:12Z</time>
      </trkpt>
      <trkpt lat="42.0327880" lon="-6.7596140">
        <ele>1017.1</ele>
        <time>2019-08-16T13:43:14Z</time>
      </trkpt>
      <trkpt lat="42.0328060" lon="-6.7596740">
        <ele>1017.4</ele>
        <time>2019-08-16T13:43:16Z</time>
      </trkpt>
      <trkpt lat="42.0328240" lon="-6.7597360">
        <ele>1017.8</ele>
        <time>2019-08-16T13:43:18Z</time>
      </trkpt>
      <trkpt lat="42.0328420" lon="-6.7597980">
        <ele>1018.2</ele>
        <time>2019-08-16T13:43:20Z</time>
      </trkpt>
      <trkpt lat="42.0328590" lon="-6.7598600">
        <ele>1018.6</ele>
        <time>2019-08-16T13:43:22Z</time>
      </trkpt>
      <trkpt lat="42.0328760" lon="-6.7599240">
        <ele>1019.0</ele>
        <time>2019-08-16T13:43:24Z</time>
      </trkpt>
      <trkpt lat="42.0328920" lon="-6.7599870">
        <ele>1019.5</ele>
        <time>2019-08-16T13:43:26Z</time>
      </trkpt>
      <trkpt lat="42.0329060" lon="-6.7600500">
        <ele>1019.9</ele>
        <time>2019-08-16T13:43:28Z</time>
      </trkpt>
      <trkpt lat="42.0329210" lon="-6.7601140">
        <ele>1020.3</ele>
        <time>2019-08-16T13:43:30Z</time>
      </trkpt>
      <trkpt lat="42.0329330" lon="-6.7601790">
        <ele>1020.7</ele>
        <time>2019-08-16T13:43:32Z</time>
      </trkpt>
      <trkpt lat="42.0329460" lon="-6.7602440">
        <ele>1021.1</ele>
        <time>2019-08-16T13:43:34Z</time>
      </trkpt>
      <trkpt lat="42.0329590" lon="-6.7603110">
        <ele>1021.5</ele>
        <time>2019-08-16T13:43:36Z</time>
      </trkpt>
      <trkpt lat="42.0329690" lon="-6.7603810">
        <ele>1021.8</ele>
        <time>2019-08-16T13:43:38Z</time>
      </trkpt>
      <trkpt lat="42.0329780" lon="-6.7604470">
        <ele>1022.2</ele>
        <time>2019-08-16T13:43:40Z</time>
      </trkpt>
      <trkpt lat="42.0329860" lon="-6.7605100">
        <ele>1022.6</ele>
        <time>2019-08-16T13:43:42Z</time>
      </trkpt>
      <trkpt lat="42.0329940" lon="-6.7605720">
        <ele>1023.0</ele>
        <time>2019-08-16T13:43:44Z</time>
      </trkpt>
      <trkpt lat="42.0330010" lon="-6.7606310">
        <ele>1023.3</ele>
        <time>2019-08-16T13:43:46Z</time>
      </trkpt>
      <trkpt lat="42.0330090" lon="-6.7606910">
        <ele>1023.6</ele>
        <time>2019-08-16T13:43:48Z</time>
      </trkpt>
      <trkpt lat="42.0330150" lon="-6.7607520">
        <ele>1023.9</ele>
        <time>2019-08-16T13:43:50Z</time>
      </trkpt>
      <trkpt lat="42.0330220" lon="-6.7608140">
        <ele>1024.2</ele>
        <time>2019-08-16T13:43:52Z</time>
      </trkpt>
      <trkpt lat="42.0330270" lon="-6.7608750">
        <ele>1024.4</ele>
        <time>2019-08-16T13:43:54Z</time>
      </trkpt>
      <trkpt lat="42.0330300" lon="-6.7609360">
        <ele>1024.6</ele>
        <time>2019-08-16T13:43:56Z</time>
      </trkpt>
      <trkpt lat="42.0330360" lon="-6.7609970">
        <ele>1024.8</ele>
        <time>2019-08-16T13:43:58Z</time>
      </trkpt>
      <trkpt lat="42.0330420" lon="-6.7610610">
        <ele>1025.0</ele>
        <time>2019-08-16T13:44:00Z</time>
      </trkpt>
      <trkpt lat="42.0330450" lon="-6.7611230">
        <ele>1025.1</ele>
        <time>2019-08-16T13:44:02Z</time>
      </trkpt>
      <trkpt lat="42.0330480" lon="-6.7611870">
        <ele>1025.3</ele>
        <time>2019-08-16T13:44:04Z</time>
      </trkpt>
      <trkpt lat="42.0330510" lon="-6.7612500">
        <ele>1025.6</ele>
        <time>2019-08-16T13:44:06Z</time>
      </trkpt>
      <trkpt lat="42.0330520" lon="-6.7613130">
        <ele>1025.9</ele>
        <time>2019-08-16T13:44:08Z</time>
      </trkpt>
      <trkpt lat="42.0330550" lon="-6.7613760">
        <ele>1026.2</ele>
        <time>2019-08-16T13:44:10Z</time>
      </trkpt>
      <trkpt lat="42.0330570" lon="-6.7614400">
        <ele>1026.6</ele>
        <time>2019-08-16T13:44:12Z</time>
      </trkpt>
      <trkpt lat="42.0330580" lon="-6.7615030">
        <ele>1027.0</ele>
        <time>2019-08-16T13:44:14Z</time>
      </trkpt>
      <trkpt lat="42.0330580" lon="-6.7615650">
        <ele>1027.4</ele>
        <time>2019-08-16T13:44:16Z</time>
      </trkpt>
      <trkpt lat="42.0330600" lon="-6.7616260">
        <ele>1027.8</ele>
        <time>2019-08-16T13:44:18Z</time>
      </trkpt>
      <trkpt lat="42.0330600" lon="-6.7616860">
        <ele>1028.1</ele>
        <time>2019-08-16T13:44:20Z</time>
      </trkpt>
      <trkpt lat="42.0330630" lon="-6.7617470">
        <ele>1028.5</ele>
        <time>2019-08-16T13:44:22Z</time>
      </trkpt>
      <trkpt lat="42.0330640" lon="-6.7618070">
        <ele>1028.8</ele>
        <time>2019-08-16T13:44:24Z</time>
      </trkpt>
      <trkpt lat="42.0330630" lon="-6.7618680">
        <ele>1029.1</ele>
        <time>2019-08-16T13:44:26Z</time>
      </trkpt>
      <trkpt lat="42.0330640" lon="-6.7619300">
        <ele>1029.4</ele>
        <time>2019-08-16T13:44:28Z</time>
      </trkpt>
      <trkpt lat="42.0330650" lon="-6.7619910">
        <ele>1029.7</ele>
        <time>2019-08-16T13:44:30Z</time>
      </trkpt>
      <trkpt lat="42.0330660" lon="-6.7620530">
        <ele>1030.0</ele>
        <time>2019-08-16T13:44:32Z</time>
      </trkpt>
      <trkpt lat="42.0330670" lon="-6.7621150">
        <ele>1030.2</ele>
        <time>2019-08-16T13:44:34Z</time>
      </trkpt>
      <trkpt lat="42.0330680" lon="-6.7621770">
        <ele>1030.5</ele>
        <time>2019-08-16T13:44:36Z</time>
      </trkpt>
      <trkpt lat="42.0330690" lon="-6.7622380">
        <ele>1030.8</ele>
        <time>2019-08-16T13:44:38Z</time>
      </trkpt>
      <trkpt lat="42.0330700" lon="-6.7623010">
        <ele>1031.1</ele>
        <time>2019-08-16T13:44:40Z</time>
      </trkpt>
      <trkpt lat="42.0330710" lon="-6.7623640">
        <ele>1031.4</ele>
        <time>2019-08-16T13:44:42Z</time>
      </trkpt>
      <trkpt lat="42.0330710" lon="-6.7624290">
        <ele>1031.6</ele>
        <time>2019-08-16T13:44:44Z</time>
      </trkpt>
      <trkpt lat="42.0330720" lon="-6.7624950">
        <ele>1031.9</ele>
        <time>2019-08-16T13:44:46Z</time>
      </trkpt>
      <trkpt lat="42.0330720" lon="-6.7625610">
        <ele>1032.2</ele>
        <time>2019-08-16T13:44:48Z</time>
      </trkpt>
      <trkpt lat="42.0330730" lon="-6.7626270">
        <ele>1032.5</ele>
        <time>2019-08-16T13:44:50Z</time>
      </trkpt>
      <trkpt lat="42.0330730" lon="-6.7626930">
        <ele>1032.7</ele>
        <time>2019-08-16T13:44:52Z</time>
      </trkpt>
      <trkpt lat="42.0330750" lon="-6.7627580">
        <ele>1033.0</ele>
        <time>2019-08-16T13:44:54Z</time>
      </trkpt>
      <trkpt lat="42.0330750" lon="-6.7628140">
        <ele>1033.2</ele>
        <time>2019-08-16T13:44:56Z</time>
      </trkpt>
      <trkpt lat="42.0330780" lon="-6.7628800">
        <ele>1033.5</ele>
        <time>2019-08-16T13:44:58Z</time>
      </trkpt>
      <trkpt lat="42.0330770" lon="-6.7629470">
        <ele>1033.8</ele>
        <time>2019-08-16T13:45:00Z</time>
      </trkpt>
      <trkpt lat="42.0330760" lon="-6.7630170">
        <ele>1034.1</ele>
        <time>2019-08-16T13:45:02Z</time>
      </trkpt>
      <trkpt lat="42.0330750" lon="-6.7630860">
        <ele>1034.3</ele>
        <time>2019-08-16T13:45:04Z</time>
      </trkpt>
      <trkpt lat="42.0330760" lon="-6.7631540">
        <ele>1034.6</ele>
        <time>2019-08-16T13:45:06Z</time>
      </trkpt>
      <trkpt lat="42.0330760" lon="-6.7632210">
        <ele>1034.8</ele>
        <time>2019-08-16T13:45:08Z</time>
      </trkpt>
      <trkpt lat="42.0330770" lon="-6.7632860">
        <ele>1035.1</ele>
        <time>2019-08-16T13:45:10Z</time>
      </trkpt>
      <trkpt lat="42.0330770" lon="-6.7633520">
        <ele>1035.3</ele>
        <time>2019-08-16T13:45:12Z</time>
      </trkpt>
      <trkpt lat="42.0330780" lon="-6.7634190">
        <ele>1035.6</ele>
        <time>2019-08-16T13:45:14Z</time>
      </trkpt>
      <trkpt lat="42.0330800" lon="-6.7634860">
        <ele>1035.8</ele>
        <time>2019-08-16T13:45:16Z</time>
      </trkpt>
      <trkpt lat="42.0330810" lon="-6.7635500">
        <ele>1036.1</ele>
        <time>2019-08-16T13:45:18Z</time>
      </trkpt>
      <trkpt lat="42.0330820" lon="-6.7636140">
        <ele>1036.3</ele>
        <time>2019-08-16T13:45:20Z</time>
      </trkpt>
      <trkpt lat="42.0330830" lon="-6.7636790">
        <ele>1036.5</ele>
        <time>2019-08-16T13:45:22Z</time>
      </trkpt>
      <trkpt lat="42.0330850" lon="-6.7637460">
        <ele>1036.7</ele>
        <time>2019-08-16T13:45:24Z</time>
      </trkpt>
      <trkpt lat="42.0330850" lon="-6.7638130">
        <ele>1036.9</ele>
        <time>2019-08-16T13:45:26Z</time>
      </trkpt>
      <trkpt lat="42.0330860" lon="-6.7638810">
        <ele>1037.1</ele>
        <time>2019-08-16T13:45:28Z</time>
      </trkpt>
      <trkpt lat="42.0330880" lon="-6.7639490">
        <ele>1037.3</ele>
        <time>2019-08-16T13:45:30Z</time>
      </trkpt>
      <trkpt lat="42.0330870" lon="-6.7640170">
        <ele>1037.5</ele>
        <time>2019-08-16T13:45:32Z</time>
      </trkpt>
      <trkpt lat="42.0330890" lon="-6.7640840">
        <ele>1037.9</ele>
        <time>2019-08-16T13:45:34Z</time>
      </trkpt>
      <trkpt lat="42.0330890" lon="-6.7641530">
        <ele>1038.4</ele>
        <time>2019-08-16T13:45:36Z</time>
      </trkpt>
      <trkpt lat="42.0330900" lon="-6.7642220">
        <ele>1038.7</ele>
        <time>2019-08-16T13:45:38Z</time>
      </trkpt>
      <trkpt lat="42.0330900" lon="-6.7642870">
        <ele>1039.0</ele>
        <time>2019-08-16T13:45:40Z</time>
      </trkpt>
      <trkpt lat="42.0330920" lon="-6.7643530">
        <ele>1039.4</ele>
        <time>2019-08-16T13:45:42Z</time>
      </trkpt>
      <trkpt lat="42.0330950" lon="-6.7644190">
        <ele>1039.8</ele>
        <time>2019-08-16T13:45:44Z</time>
      </trkpt>
      <trkpt lat="42.0330960" lon="-6.7644840">
        <ele>1040.1</ele>
        <time>2019-08-16T13:45:46Z</time>
      </trkpt>
      <trkpt lat="42.0330970" lon="-6.7645480">
        <ele>1040.3</ele>
        <time>2019-08-16T13:45:48Z</time>
      </trkpt>
      <trkpt lat="42.0330990" lon="-6.7646140">
        <ele>1040.5</ele>
        <time>2019-08-16T13:45:50Z</time>
      </trkpt>
      <trkpt lat="42.0331010" lon="-6.7646790">
        <ele>1040.9</ele>
        <time>2019-08-16T13:45:52Z</time>
      </trkpt>
      <trkpt lat="42.0331020" lon="-6.7647370">
        <ele>1041.1</ele>
        <time>2019-08-16T13:45:54Z</time>
      </trkpt>
      <trkpt lat="42.0331070" lon="-6.7648000">
        <ele>1041.4</ele>
        <time>2019-08-16T13:45:56Z</time>
      </trkpt>
      <trkpt lat="42.0331110" lon="-6.7648670">
        <ele>1041.6</ele>
        <time>2019-08-16T13:45:58Z</time>
      </trkpt>
      <trkpt lat="42.0331170" lon="-6.7649340">
        <ele>1041.9</ele>
        <time>2019-08-16T13:46:00Z</time>
      </trkpt>
      <trkpt lat="42.0331220" lon="-6.7649990">
        <ele>1042.3</ele>
        <time>2019-08-16T13:46:02Z</time>
      </trkpt>
      <trkpt lat="42.0331270" lon="-6.7650640">
        <ele>1042.5</ele>
        <time>2019-08-16T13:46:04Z</time>
      </trkpt>
      <trkpt lat="42.0331330" lon="-6.7651310">
        <ele>1042.8</ele>
        <time>2019-08-16T13:46:06Z</time>
      </trkpt>
      <trkpt lat="42.0331410" lon="-6.7651980">
        <ele>1043.0</ele>
        <time>2019-08-16T13:46:08Z</time>
      </trkpt>
      <trkpt lat="42.0331500" lon="-6.7652650">
        <ele>1043.3</ele>
        <time>2019-08-16T13:46:10Z</time>
      </trkpt>
      <trkpt lat="42.0331580" lon="-6.7653320">
        <ele>1043.7</ele>
        <time>2019-08-16T13:46:12Z</time>
      </trkpt>
      <trkpt lat="42.0331680" lon="-6.7653990">
        <ele>1044.0</ele>
        <time>2019-08-16T13:46:14Z</time>
      </trkpt>
      <trkpt lat="42.0331800" lon="-6.7654660">
        <ele>1044.2</ele>
        <time>2019-08-16T13:46:16Z</time>
      </trkpt>
      <trkpt lat="42.0331920" lon="-6.7655320">
        <ele>1044.4</ele>
        <time>2019-08-16T13:46:18Z</time>
      </trkpt>
      <trkpt lat="42.0332050" lon="-6.7655970">
        <ele>1044.8</ele>
        <time>2019-08-16T13:46:20Z</time>
      </trkpt>
      <trkpt lat="42.0332170" lon="-6.7656630">
        <ele>1045.0</ele>
        <time>2019-08-16T13:46:22Z</time>
      </trkpt>
      <trkpt lat="42.0332300" lon="-6.7657290">
        <ele>1045.3</ele>
        <time>2019-08-16T13:46:24Z</time>
      </trkpt>
      <trkpt lat="42.0332460" lon="-6.7657940">
        <ele>1045.5</ele>
        <time>2019-08-16T13:46:26Z</time>
      </trkpt>
      <trkpt lat="42.0332610" lon="-6.7658600">
        <ele>1045.9</ele>
        <time>2019-08-16T13:46:28Z</time>
      </trkpt>
      <trkpt lat="42.0332790" lon="-6.7659250">
        <ele>1046.2</ele>
        <time>2019-08-16T13:46:30Z</time>
      </trkpt>
      <trkpt lat="42.0332960" lon="-6.7659870">
        <ele>1046.5</ele>
        <time>2019-08-16T13:46:32Z</time>
      </trkpt>
      <trkpt lat="42.0333150" lon="-6.7660480">
        <ele>1046.8</ele>
        <time>2019-08-16T13:46:34Z</time>
      </trkpt>
      <trkpt lat="42.0333350" lon="-6.7661080">
        <ele>1047.1</ele>
        <time>2019-08-16T13:46:36Z</time>
      </trkpt>
      <trkpt lat="42.0333540" lon="-6.7661680">
        <ele>1047.4</ele>
        <time>2019-08-16T13:46:38Z</time>
      </trkpt>
      <trkpt lat="42.0333760" lon="-6.7662250">
        <ele>1047.8</ele>
        <time>2019-08-16T13:46:40Z</time>
      </trkpt>
      <trkpt lat="42.0333930" lon="-6.7662620">
        <ele>1048.0</ele>
        <time>2019-08-16T13:46:42Z</time>
      </trkpt>
      <trkpt lat="42.0334110" lon="-6.7663090">
        <ele>1048.3</ele>
        <time>2019-08-16T13:46:44Z</time>
      </trkpt>
      <trkpt lat="42.0334310" lon="-6.7663650">
        <ele>1048.6</ele>
        <time>2019-08-16T13:46:46Z</time>
      </trkpt>
      <trkpt lat="42.0334540" lon="-6.7664210">
        <ele>1048.8</ele>
        <time>2019-08-16T13:46:48Z</time>
      </trkpt>
      <trkpt lat="42.0334760" lon="-6.7664760">
        <ele>1049.1</ele>
        <time>2019-08-16T13:46:50Z</time>
      </trkpt>
      <trkpt lat="42.0335010" lon="-6.7665320">
        <ele>1049.5</ele>
        <time>2019-08-16T13:46:52Z</time>
      </trkpt>
      <trkpt lat="42.0335260" lon="-6.7665870">
        <ele>1049.6</ele>
        <time>2019-08-16T13:46:54Z</time>
      </trkpt>
      <trkpt lat="42.0335500" lon="-6.7666430">
        <ele>1049.8</ele>
        <time>2019-08-16T13:46:56Z</time>
      </trkpt>
      <trkpt lat="42.0335770" lon="-6.7666950">
        <ele>1050.1</ele>
        <time>2019-08-16T13:46:58Z</time>
      </trkpt>
      <trkpt lat="42.0336020" lon="-6.7667480">
        <ele>1050.4</ele>
        <time>2019-08-16T13:47:00Z</time>
      </trkpt>
      <trkpt lat="42.0336280" lon="-6.7668000">
        <ele>1050.7</ele>
        <time>2019-08-16T13:47:02Z</time>
      </trkpt>
      <trkpt lat="42.0336560" lon="-6.7668510">
        <ele>1051.0</ele>
        <time>2019-08-16T13:47:04Z</time>
      </trkpt>
      <trkpt lat="42.0336810" lon="-6.7669020">
        <ele>1051.2</ele>
        <time>2019-08-16T13:47:06Z</time>
      </trkpt>
      <trkpt lat="42.0337100" lon="-6.7669530">
        <ele>1051.4</ele>
        <time>2019-08-16T13:47:08Z</time>
      </trkpt>
      <trkpt lat="42.0337380" lon="-6.7670040">
        <ele>1051.7</ele>
        <time>2019-08-16T13:47:10Z</time>
      </trkpt>
      <trkpt lat="42.0337640" lon="-6.7670530">
        <ele>1052.0</ele>
        <time>2019-08-16T13:47:12Z</time>
      </trkpt>
      <trkpt lat="42.0337910" lon="-6.7670980">
        <ele>1052.3</ele>
        <time>2019-08-16T13:47:14Z</time>
      </trkpt>
      <trkpt lat="42.0338180" lon="-6.7671440">
        <ele>1052.6</ele>
        <time>2019-08-16T13:47:16Z</time>
      </trkpt>
      <trkpt lat="42.0338440" lon="-6.7671910">
        <ele>1052.8</ele>
        <time>2019-08-16T13:47:18Z</time>
      </trkpt>
      <trkpt lat="42.0338700" lon="-6.7672370">
        <ele>1053.1</ele>
        <time>2019-08-16T13:47:20Z</time>
      </trkpt>
      <trkpt lat="42.0338970" lon="-6.7672840">
        <ele>1053.4</ele>
        <time>2019-08-16T13:47:22Z</time>
      </trkpt>
      <trkpt lat="42.0339230" lon="-6.7673290">
        <ele>1053.7</ele>
        <time>2019-08-16T13:47:24Z</time>
      </trkpt>
      <trkpt lat="42.0339490" lon="-6.7673700">
        <ele>1053.9</ele>
        <time>2019-08-16T13:47:26Z</time>
      </trkpt>
      <trkpt lat="42.0339740" lon="-6.7674170">
        <ele>1054.1</ele>
        <time>2019-08-16T13:47:28Z</time>
      </trkpt>
      <trkpt lat="42.0340010" lon="-6.7674640">
        <ele>1054.3</ele>
        <time>2019-08-16T13:47:30Z</time>
      </trkpt>
      <trkpt lat="42.0340300" lon="-6.7675090">
        <ele>1054.5</ele>
        <time>2019-08-16T13:47:32Z</time>
      </trkpt>
      <trkpt lat="42.0340570" lon="-6.7675550">
        <ele>1054.7</ele>
        <time>2019-08-16T13:47:34Z</time>
      </trkpt>
      <trkpt lat="42.0340840" lon="-6.7676020">
        <ele>1055.0</ele>
        <time>2019-08-16T13:47:36Z</time>
      </trkpt>
      <trkpt lat="42.0341120" lon="-6.7676490">
        <ele>1055.3</ele>
        <time>2019-08-16T13:47:38Z</time>
      </trkpt>
      <trkpt lat="42.0341420" lon="-6.7676960">
        <ele>1055.5</ele>
        <time>2019-08-16T13:47:40Z</time>
      </trkpt>
      <trkpt lat="42.0341700" lon="-6.7677430">
        <ele>1055.7</ele>
        <time>2019-08-16T13:47:42Z</time>
      </trkpt>
      <trkpt lat="42.0341970" lon="-6.7677910">
        <ele>1055.9</ele>
        <time>2019-08-16T13:47:44Z</time>
      </trkpt>
      <trkpt lat="42.0342240" lon="-6.7678390">
        <ele>1056.1</ele>
        <time>2019-08-16T13:47:46Z</time>
      </trkpt>
      <trkpt lat="42.0342550" lon="-6.7678830">
        <ele>1056.4</ele>
        <time>2019-08-16T13:47:48Z</time>
      </trkpt>
      <trkpt lat="42.0342820" lon="-6.7679320">
        <ele>1056.7</ele>
        <time>2019-08-16T13:47:50Z</time>
      </trkpt>
      <trkpt lat="42.0343100" lon="-6.7679800">
        <ele>1057.0</ele>
        <time>2019-08-16T13:47:52Z</time>
      </trkpt>
      <trkpt lat="42.0343370" lon="-6.7680280">
        <ele>1057.3</ele>
        <time>2019-08-16T13:47:54Z</time>
      </trkpt>
      <trkpt lat="42.0343660" lon="-6.7680740">
        <ele>1057.5</ele>
        <time>2019-08-16T13:47:56Z</time>
      </trkpt>
      <trkpt lat="42.0343960" lon="-6.7681190">
        <ele>1057.8</ele>
        <time>2019-08-16T13:47:58Z</time>
      </trkpt>
      <trkpt lat="42.0344230" lon="-6.7681660">
        <ele>1058.1</ele>
        <time>2019-08-16T13:48:00Z</time>
      </trkpt>
      <trkpt lat="42.0344490" lon="-6.7682140">
        <ele>1058.4</ele>
        <time>2019-08-16T13:48:02Z</time>
      </trkpt>
      <trkpt lat="42.0344780" lon="-6.7682600">
        <ele>1058.8</ele>
        <time>2019-08-16T13:48:04Z</time>
      </trkpt>
      <trkpt lat="42.0345040" lon="-6.7683060">
        <ele>1059.1</ele>
        <time>2019-08-16T13:48:06Z</time>
      </trkpt>
      <trkpt lat="42.0345330" lon="-6.7683530">
        <ele>1059.3</ele>
        <time>2019-08-16T13:48:08Z</time>
      </trkpt>
      <trkpt lat="42.0345630" lon="-6.7683970">
        <ele>1059.6</ele>
        <time>2019-08-16T13:48:10Z</time>
      </trkpt>
      <trkpt lat="42.0345920" lon="-6.7684450">
        <ele>1059.9</ele>
        <time>2019-08-16T13:48:12Z</time>
      </trkpt>
      <trkpt lat="42.0346190" lon="-6.7684920">
        <ele>1060.2</ele>
        <time>2019-08-16T13:48:14Z</time>
      </trkpt>
      <trkpt lat="42.0346470" lon="-6.7685390">
        <ele>1060.6</ele>
        <time>2019-08-16T13:48:16Z</time>
      </trkpt>
      <trkpt lat="42.0346730" lon="-6.7685850">
        <ele>1060.9</ele>
        <time>2019-08-16T13:48:18Z</time>
      </trkpt>
      <trkpt lat="42.0347010" lon="-6.7686320">
        <ele>1061.3</ele>
        <time>2019-08-16T13:48:20Z</time>
      </trkpt>
      <trkpt lat="42.0347290" lon="-6.7686780">
        <ele>1061.5</ele>
        <time>2019-08-16T13:48:22Z</time>
      </trkpt>
      <trkpt lat="42.0347590" lon="-6.7687240">
        <ele>1061.8</ele>
        <time>2019-08-16T13:48:24Z</time>
      </trkpt>
      <trkpt lat="42.0347850" lon="-6.7687710">
        <ele>1062.1</ele>
        <time>2019-08-16T13:48:26Z</time>
      </trkpt>
      <trkpt lat="42.0348130" lon="-6.7688190">
        <ele>1062.5</ele>
        <time>2019-08-16T13:48:28Z</time>
      </trkpt>
      <trkpt lat="42.0348430" lon="-6.7688670">
        <ele>1062.9</ele>
        <time>2019-08-16T13:48:30Z</time>
      </trkpt>
      <trkpt lat="42.0348700" lon="-6.7689150">
        <ele>1063.2</ele>
        <time>2019-08-16T13:48:32Z</time>
      </trkpt>
      <trkpt lat="42.0348960" lon="-6.7689630">
        <ele>1063.6</ele>
        <time>2019-08-16T13:48:34Z</time>
      </trkpt>
      <trkpt lat="42.0349230" lon="-6.7690110">
        <ele>1064.0</ele>
        <time>2019-08-16T13:48:36Z</time>
      </trkpt>
      <trkpt lat="42.0349490" lon="-6.7690610">
        <ele>1064.2</ele>
        <time>2019-08-16T13:48:38Z</time>
      </trkpt>
      <trkpt lat="42.0349750" lon="-6.7691110">
        <ele>1064.5</ele>
        <time>2019-08-16T13:48:40Z</time>
      </trkpt>
      <trkpt lat="42.0350010" lon="-6.7691640">
        <ele>1064.8</ele>
        <time>2019-08-16T13:48:42Z</time>
      </trkpt>
      <trkpt lat="42.0350270" lon="-6.7692170">
        <ele>1065.2</ele>
        <time>2019-08-16T13:48:44Z</time>
      </trkpt>
      <trkpt lat="42.0350520" lon="-6.7692710">
        <ele>1065.6</ele>
        <time>2019-08-16T13:48:46Z</time>
      </trkpt>
      <trkpt lat="42.0350770" lon="-6.7693240">
        <ele>1065.8</ele>
        <time>2019-08-16T13:48:48Z</time>
      </trkpt>
      <trkpt lat="42.0351000" lon="-6.7693790">
        <ele>1066.1</ele>
        <time>2019-08-16T13:48:50Z</time>
      </trkpt>
      <trkpt lat="42.0351230" lon="-6.7694350">
        <ele>1066.4</ele>
        <time>2019-08-16T13:48:52Z</time>
      </trkpt>
      <trkpt lat="42.0351440" lon="-6.7694890">
        <ele>1066.8</ele>
        <time>2019-08-16T13:48:54Z</time>
      </trkpt>
      <trkpt lat="42.0351640" lon="-6.7695420">
        <ele>1067.2</ele>
        <time>2019-08-16T13:48:56Z</time>
      </trkpt>
      <trkpt lat="42.0351810" lon="-6.7695990">
        <ele>1067.6</ele>
        <time>2019-08-16T13:48:58Z</time>
      </trkpt>
      <trkpt lat="42.0351990" lon="-6.7696550">
        <ele>1067.9</ele>
        <time>2019-08-16T13:49:00Z</time>
      </trkpt>
      <trkpt lat="42.0352170" lon="-6.7697150">
        <ele>1068.2</ele>
        <time>2019-08-16T13:49:02Z</time>
      </trkpt>
      <trkpt lat="42.0352340" lon="-6.7697730">
        <ele>1068.6</ele>
        <time>2019-08-16T13:49:04Z</time>
      </trkpt>
      <trkpt lat="42.0352510" lon="-6.7698320">
        <ele>1069.0</ele>
        <time>2019-08-16T13:49:06Z</time>
      </trkpt>
      <trkpt lat="42.0352640" lon="-6.7698920">
        <ele>1069.5</ele>
        <time>2019-08-16T13:49:08Z</time>
      </trkpt>
      <trkpt lat="42.0352780" lon="-6.7699510">
        <ele>1069.8</ele>
        <time>2019-08-16T13:49:10Z</time>
      </trkpt>
      <trkpt lat="42.0352910" lon="-6.7700100">
        <ele>1070.1</ele>
        <time>2019-08-16T13:49:12Z</time>
      </trkpt>
      <trkpt lat="42.0353050" lon="-6.7700690">
        <ele>1070.4</ele>
        <time>2019-08-16T13:49:14Z</time>
      </trkpt>
      <trkpt lat="42.0353190" lon="-6.7701290">
        <ele>1070.8</ele>
        <time>2019-08-16T13:49:16Z</time>
      </trkpt>
      <trkpt lat="42.0353330" lon="-6.7701880">
        <ele>1071.3</ele>
        <time>2019-08-16T13:49:18Z</time>
      </trkpt>
      <trkpt lat="42.0353450" lon="-6.7702480">
        <ele>1071.7</ele>
        <time>2019-08-16T13:49:20Z</time>
      </trkpt>
      <trkpt lat="42.0353550" lon="-6.7703120">
        <ele>1072.1</ele>
        <time>2019-08-16T13:49:22Z</time>
      </trkpt>
      <trkpt lat="42.0353670" lon="-6.7703740">
        <ele>1072.4</ele>
        <time>2019-08-16T13:49:24Z</time>
      </trkpt>
      <trkpt lat="42.0353780" lon="-6.7704360">
        <ele>1072.7</ele>
        <time>2019-08-16T13:49:26Z</time>
      </trkpt>
      <trkpt lat="42.0353890" lon="-6.7704940">
        <ele>1073.2</ele>
        <time>2019-08-16T13:49:28Z</time>
      </trkpt>
      <trkpt lat="42.0353990" lon="-6.7705460">
        <ele>1073.5</ele>
        <time>2019-08-16T13:49:30Z</time>
      </trkpt>
      <trkpt lat="42.0354060" lon="-6.7705870">
        <ele>1073.8</ele>
        <time>2019-08-16T13:49:32Z</time>
      </trkpt>
      <trkpt lat="42.0354150" lon="-6.7706420">
        <ele>1074.1</ele>
        <time>2019-08-16T13:49:34Z</time>
      </trkpt>
      <trkpt lat="42.0354270" lon="-6.7706980">
        <ele>1074.4</ele>
        <time>2019-08-16T13:49:36Z</time>
      </trkpt>
      <trkpt lat="42.0354360" lon="-6.7707570">
        <ele>1074.7</ele>
        <time>2019-08-16T13:49:38Z</time>
      </trkpt>
      <trkpt lat="42.0354450" lon="-6.7708160">
        <ele>1075.1</ele>
        <time>2019-08-16T13:49:40Z</time>
      </trkpt>
      <trkpt lat="42.0354570" lon="-6.7708750">
        <ele>1075.5</ele>
        <time>2019-08-16T13:49:42Z</time>
      </trkpt>
      <trkpt lat="42.0354670" lon="-6.7709350">
        <ele>1075.9</ele>
        <time>2019-08-16T13:49:44Z</time>
      </trkpt>
      <trkpt lat="42.0354780" lon="-6.7709930">
        <ele>1076.2</ele>
        <time>2019-08-16T13:49:46Z</time>
      </trkpt>
      <trkpt lat="42.0354880" lon="-6.7710510">
        <ele>1076.4</ele>
        <time>2019-08-16T13:49:48Z</time>
      </trkpt>
      <trkpt lat="42.0354980" lon="-6.7711090">
        <ele>1076.8</ele>
        <time>2019-08-16T13:49:50Z</time>
      </trkpt>
      <trkpt lat="42.0355070" lon="-6.7711680">
        <ele>1077.1</ele>
        <time>2019-08-16T13:49:52Z</time>
      </trkpt>
      <trkpt lat="42.0355180" lon="-6.7712290">
        <ele>1077.5</ele>
        <time>2019-08-16T13:49:54Z</time>
      </trkpt>
      <trkpt lat="42.0355290" lon="-6.7712880">
        <ele>1077.8</ele>
        <time>2019-08-16T13:49:56Z</time>
      </trkpt>
      <trkpt lat="42.0355390" lon="-6.7713470">
        <ele>1078.1</ele>
        <time>2019-08-16T13:49:58Z</time>
      </trkpt>
      <trkpt lat="42.0355480" lon="-6.7714060">
        <ele>1078.3</ele>
        <time>2019-08-16T13:50:00Z</time>
      </trkpt>
      <trkpt lat="42.0355580" lon="-6.7714660">
        <ele>1078.7</ele>
        <time>2019-08-16T13:50:02Z</time>
      </trkpt>
      <trkpt lat="42.0355690" lon="-6.7715260">
        <ele>1079.0</ele>
        <time>2019-08-16T13:50:04Z</time>
      </trkpt>
      <trkpt lat="42.0355820" lon="-6.7715870">
        <ele>1079.3</ele>
        <time>2019-08-16T13:50:06Z</time>
      </trkpt>
      <trkpt lat="42.0355930" lon="-6.7716480">
        <ele>1079.6</ele>
        <time>2019-08-16T13:50:08Z</time>
      </trkpt>
      <trkpt lat="42.0356040" lon="-6.7717090">
        <ele>1079.9</ele>
        <time>2019-08-16T13:50:10Z</time>
      </trkpt>
      <trkpt lat="42.0356160" lon="-6.7717700">
        <ele>1080.1</ele>
        <time>2019-08-16T13:50:12Z</time>
      </trkpt>
      <trkpt lat="42.0356260" lon="-6.7718320">
        <ele>1080.5</ele>
        <time>2019-08-16T13:50:14Z</time>
      </trkpt>
      <trkpt lat="42.0356370" lon="-6.7718910">
        <ele>1080.8</ele>
        <time>2019-08-16T13:50:16Z</time>
      </trkpt>
      <trkpt lat="42.0356510" lon="-6.7719520">
        <ele>1081.1</ele>
        <time>2019-08-16T13:50:18Z</time>
      </trkpt>
      <trkpt lat="42.0356660" lon="-6.7720120">
        <ele>1081.4</ele>
        <time>2019-08-16T13:50:20Z</time>
      </trkpt>
      <trkpt lat="42.0356810" lon="-6.7720730">
        <ele>1081.7</ele>
        <time>2019-08-16T13:50:22Z</time>
      </trkpt>
      <trkpt lat="42.0356960" lon="-6.7721340">
        <ele>1081.9</ele>
        <time>2019-08-16T13:50:24Z</time>
      </trkpt>
      <trkpt lat="42.0357130" lon="-6.7721950">
        <ele>1082.3</ele>
        <time>2019-08-16T13:50:26Z</time>
      </trkpt>
      <trkpt lat="42.0357300" lon="-6.7722560">
        <ele>1082.6</ele>
        <time>2019-08-16T13:50:28Z</time>
      </trkpt>
      <trkpt lat="42.0357490" lon="-6.7723150">
        <ele>1082.9</ele>
        <time>2019-08-16T13:50:30Z</time>
      </trkpt>
      <trkpt lat="42.0357660" lon="-6.7723750">
        <ele>1083.2</ele>
        <time>2019-08-16T13:50:32Z</time>
      </trkpt>
      <trkpt lat="42.0357840" lon="-6.7724340">
        <ele>1083.4</ele>
        <time>2019-08-16T13:50:34Z</time>
      </trkpt>
      <trkpt lat="42.0358040" lon="-6.7724920">
        <ele>1083.6</ele>
        <time>2019-08-16T13:50:36Z</time>
      </trkpt>
      <trkpt lat="42.0358240" lon="-6.7725490">
        <ele>1083.9</ele>
        <time>2019-08-16T13:50:38Z</time>
      </trkpt>
      <trkpt lat="42.0358440" lon="-6.7726060">
        <ele>1084.2</ele>
        <time>2019-08-16T13:50:40Z</time>
      </trkpt>
      <trkpt lat="42.0358680" lon="-6.7726610">
        <ele>1084.5</ele>
        <time>2019-08-16T13:50:42Z</time>
      </trkpt>
      <trkpt lat="42.0358920" lon="-6.7727160">
        <ele>1084.8</ele>
        <time>2019-08-16T13:50:44Z</time>
      </trkpt>
      <trkpt lat="42.0359160" lon="-6.7727720">
        <ele>1085.0</ele>
        <time>2019-08-16T13:50:46Z</time>
      </trkpt>
      <trkpt lat="42.0359420" lon="-6.7728250">
        <ele>1085.2</ele>
        <time>2019-08-16T13:50:48Z</time>
      </trkpt>
      <trkpt lat="42.0359680" lon="-6.7728790">
        <ele>1085.5</ele>
        <time>2019-08-16T13:50:50Z</time>
      </trkpt>
      <trkpt lat="42.0359940" lon="-6.7729320">
        <ele>1085.8</ele>
        <time>2019-08-16T13:50:52Z</time>
      </trkpt>
      <trkpt lat="42.0360220" lon="-6.7729840">
        <ele>1086.2</ele>
        <time>2019-08-16T13:50:54Z</time>
      </trkpt>
      <trkpt lat="42.0360500" lon="-6.7730350">
        <ele>1086.4</ele>
        <time>2019-08-16T13:50:56Z</time>
      </trkpt>
      <trkpt lat="42.0360800" lon="-6.7730850">
        <ele>1086.7</ele>
        <time>2019-08-16T13:50:58Z</time>
      </trkpt>
      <trkpt lat="42.0361100" lon="-6.7731350">
        <ele>1087.0</ele>
        <time>2019-08-16T13:51:00Z</time>
      </trkpt>
      <trkpt lat="42.0361390" lon="-6.7731860">
        <ele>1087.3</ele>
        <time>2019-08-16T13:51:02Z</time>
      </trkpt>
      <trkpt lat="42.0361700" lon="-6.7732330">
        <ele>1087.6</ele>
        <time>2019-08-16T13:51:04Z</time>
      </trkpt>
      <trkpt lat="42.0362030" lon="-6.7732800">
        <ele>1088.0</ele>
        <time>2019-08-16T13:51:06Z</time>
      </trkpt>
      <trkpt lat="42.0362370" lon="-6.7733260">
        <ele>1088.2</ele>
        <time>2019-08-16T13:51:08Z</time>
      </trkpt>
      <trkpt lat="42.0362670" lon="-6.7733730">
        <ele>1088.5</ele>
        <time>2019-08-16T13:51:10Z</time>
      </trkpt>
      <trkpt lat="42.0363000" lon="-6.7734160">
        <ele>1088.8</ele>
        <time>2019-08-16T13:51:12Z</time>
      </trkpt>
      <trkpt lat="42.0363300" lon="-6.7734570">
        <ele>1089.1</ele>
        <time>2019-08-16T13:51:14Z</time>
      </trkpt>
      <trkpt lat="42.0363630" lon="-6.7734970">
        <ele>1089.4</ele>
        <time>2019-08-16T13:51:16Z</time>
      </trkpt>
      <trkpt lat="42.0364020" lon="-6.7735360">
        <ele>1089.7</ele>
        <time>2019-08-16T13:51:18Z</time>
      </trkpt>
      <trkpt lat="42.0364350" lon="-6.7735840">
        <ele>1090.0</ele>
        <time>2019-08-16T13:51:20Z</time>
      </trkpt>
      <trkpt lat="42.0364700" lon="-6.7736270">
        <ele>1090.2</ele>
        <time>2019-08-16T13:51:22Z</time>
      </trkpt>
      <trkpt lat="42.0365010" lon="-6.7736580">
        <ele>1090.5</ele>
        <time>2019-08-16T13:51:24Z</time>
      </trkpt>
      <trkpt lat="42.0365280" lon="-6.7736910">
        <ele>1090.7</ele>
        <time>2019-08-16T13:51:26Z</time>
      </trkpt>
      <trkpt lat="42.0365570" lon="-6.7737300">
        <ele>1091.0</ele>
        <time>2019-08-16T13:51:28Z</time>
      </trkpt>
      <trkpt lat="42.0365880" lon="-6.7737660">
        <ele>1091.3</ele>
        <time>2019-08-16T13:51:30Z</time>
      </trkpt>
      <trkpt lat="42.0366190" lon="-6.7738030">
        <ele>1091.5</ele>
        <time>2019-08-16T13:51:32Z</time>
      </trkpt>
      <trkpt lat="42.0366520" lon="-6.7738400">
        <ele>1091.7</ele>
        <time>2019-08-16T13:51:34Z</time>
      </trkpt>
      <trkpt lat="42.0366880" lon="-6.7738770">
        <ele>1092.0</ele>
        <time>2019-08-16T13:51:36Z</time>
      </trkpt>
      <trkpt lat="42.0367240" lon="-6.7739150">
        <ele>1092.3</ele>
        <time>2019-08-16T13:51:38Z</time>
      </trkpt>
      <trkpt lat="42.0367590" lon="-6.7739550">
        <ele>1092.6</ele>
        <time>2019-08-16T13:51:40Z</time>
      </trkpt>
      <trkpt lat="42.0367940" lon="-6.7739950">
        <ele>1092.9</ele>
        <time>2019-08-16T13:51:42Z</time>
      </trkpt>
      <trkpt lat="42.0368290" lon="-6.7740350">
        <ele>1093.1</ele>
        <time>2019-08-16T13:51:44Z</time>
      </trkpt>
      <trkpt lat="42.0368630" lon="-6.7740780">
        <ele>1093.3</ele>
        <time>2019-08-16T13:51:46Z</time>
      </trkpt>
      <trkpt lat="42.0368990" lon="-6.7741160">
        <ele>1093.5</ele>
        <time>2019-08-16T13:51:48Z</time>
      </trkpt>
      <trkpt lat="42.0369350" lon="-6.7741560">
        <ele>1093.8</ele>
        <time>2019-08-16T13:51:50Z</time>
      </trkpt>
      <trkpt lat="42.0369710" lon="-6.7741980">
        <ele>1094.1</ele>
        <time>2019-08-16T13:51:52Z</time>
      </trkpt>
      <trkpt lat="42.0370070" lon="-6.7742390">
        <ele>1094.4</ele>
        <time>2019-08-16T13:51:54Z</time>
      </trkpt>
      <trkpt lat="42.0370430" lon="-6.7742790">
        <ele>1094.6</ele>
        <time>2019-08-16T13:51:56Z</time>
      </trkpt>
      <trkpt lat="42.0370780" lon="-6.7743210">
        <ele>1094.8</ele>
        <time>2019-08-16T13:51:58Z</time>
      </trkpt>
      <trkpt lat="42.0371140" lon="-6.7743630">
        <ele>1095.1</ele>
        <time>2019-08-16T13:52:00Z</time>
      </trkpt>
      <trkpt lat="42.0371500" lon="-6.7744030">
        <ele>1095.3</ele>
        <time>2019-08-16T13:52:02Z</time>
      </trkpt>
      <trkpt lat="42.0371850" lon="-6.7744450">
        <ele>1095.6</ele>
        <time>2019-08-16T13:52:04Z</time>
      </trkpt>
      <trkpt lat="42.0372220" lon="-6.7744870">
        <ele>1095.8</ele>
        <time>2019-08-16T13:52:06Z</time>
      </trkpt>
      <trkpt lat="42.0372580" lon="-6.7745300">
        <ele>1096.0</ele>
        <time>2019-08-16T13:52:08Z</time>
      </trkpt>
      <trkpt lat="42.0372960" lon="-6.7745720">
        <ele>1096.2</ele>
        <time>2019-08-16T13:52:10Z</time>
      </trkpt>
      <trkpt lat="42.0373330" lon="-6.7746140">
        <ele>1096.4</ele>
        <time>2019-08-16T13:52:12Z</time>
      </trkpt>
      <trkpt lat="42.0373690" lon="-6.7746560">
        <ele>1096.7</ele>
        <time>2019-08-16T13:52:14Z</time>
      </trkpt>
      <trkpt lat="42.0374060" lon="-6.7746970">
        <ele>1097.0</ele>
        <time>2019-08-16T13:52:16Z</time>
      </trkpt>
      <trkpt lat="42.0374420" lon="-6.7747380">
        <ele>1097.3</ele>
        <time>2019-08-16T13:52:18Z</time>
      </trkpt>
      <trkpt lat="42.0374730" lon="-6.7747750">
        <ele>1097.5</ele>
        <time>2019-08-16T13:52:20Z</time>
      </trkpt>
      <trkpt lat="42.0375000" lon="-6.7748070">
        <ele>1097.6</ele>
        <time>2019-08-16T13:52:22Z</time>
      </trkpt>
      <trkpt lat="42.0375300" lon="-6.7748450">
        <ele>1097.9</ele>
        <time>2019-08-16T13:52:24Z</time>
      </trkpt>
      <trkpt lat="42.0375650" lon="-6.7748840">
        <ele>1098.3</ele>
        <time>2019-08-16T13:52:26Z</time>
      </trkpt>
      <trkpt lat="42.0376010" lon="-6.7749230">
        <ele>1098.6</ele>
        <time>2019-08-16T13:52:28Z</time>
      </trkpt>
      <trkpt lat="42.0376350" lon="-6.7749660">
        <ele>1098.9</ele>
        <time>2019-08-16T13:52:30Z</time>
      </trkpt>
      <trkpt lat="42.0376710" lon="-6.7750050">
        <ele>1099.1</ele>
        <time>2019-08-16T13:52:32Z</time>
      </trkpt>
      <trkpt lat="42.0377090" lon="-6.7750450">
        <ele>1099.4</ele>
        <time>2019-08-16T13:52:34Z</time>
      </trkpt>
      <trkpt lat="42.0377440" lon="-6.7750840">
        <ele>1099.7</ele>
        <time>2019-08-16T13:52:36Z</time>
      </trkpt>
      <trkpt lat="42.0377790" lon="-6.7751250">
        <ele>1100.1</ele>
        <time>2019-08-16T13:52:38Z</time>
      </trkpt>
      <trkpt lat="42.0378120" lon="-6.7751680">
        <ele>1100.4</ele>
        <time>2019-08-16T13:52:40Z</time>
      </trkpt>
      <trkpt lat="42.0378480" lon="-6.7752100">
        <ele>1100.7</ele>
        <time>2019-08-16T13:52:42Z</time>
      </trkpt>
      <trkpt lat="42.0378840" lon="-6.7752530">
        <ele>1100.9</ele>
        <time>2019-08-16T13:52:44Z</time>
      </trkpt>
      <trkpt lat="42.0379200" lon="-6.7752930">
        <ele>1101.3</ele>
        <time>2019-08-16T13:52:46Z</time>
      </trkpt>
      <trkpt lat="42.0379550" lon="-6.7753340">
        <ele>1101.6</ele>
        <time>2019-08-16T13:52:48Z</time>
      </trkpt>
      <trkpt lat="42.0379900" lon="-6.7753770">
        <ele>1101.9</ele>
        <time>2019-08-16T13:52:50Z</time>
      </trkpt>
      <trkpt lat="42.0380270" lon="-6.7754150">
        <ele>1102.1</ele>
        <time>2019-08-16T13:52:52Z</time>
      </trkpt>
      <trkpt lat="42.0380630" lon="-6.7754570">
        <ele>1102.3</ele>
        <time>2019-08-16T13:52:54Z</time>
      </trkpt>
      <trkpt lat="42.0380990" lon="-6.7754990">
        <ele>1102.6</ele>
        <time>2019-08-16T13:52:56Z</time>
      </trkpt>
      <trkpt lat="42.0381360" lon="-6.7755390">
        <ele>1103.0</ele>
        <time>2019-08-16T13:52:58Z</time>
      </trkpt>
      <trkpt lat="42.0381720" lon="-6.7755820">
        <ele>1103.3</ele>
        <time>2019-08-16T13:53:00Z</time>
      </trkpt>
      <trkpt lat="42.0382070" lon="-6.7756200">
        <ele>1103.6</ele>
        <time>2019-08-16T13:53:02Z</time>
      </trkpt>
      <trkpt lat="42.0382450" lon="-6.7756610">
        <ele>1103.9</ele>
        <time>2019-08-16T13:53:04Z</time>
      </trkpt>
      <trkpt lat="42.0382830" lon="-6.7757010">
        <ele>1104.2</ele>
        <time>2019-08-16T13:53:06Z</time>
      </trkpt>
      <trkpt lat="42.0383190" lon="-6.7757430">
        <ele>1104.4</ele>
        <time>2019-08-16T13:53:08Z</time>
      </trkpt>
      <trkpt lat="42.0383550" lon="-6.7757830">
        <ele>1104.7</ele>
        <time>2019-08-16T13:53:10Z</time>
      </trkpt>
      <trkpt lat="42.0383930" lon="-6.7758230">
        <ele>1104.9</ele>
        <time>2019-08-16T13:53:12Z</time>
      </trkpt>
      <trkpt lat="42.0384290" lon="-6.7758640">
        <ele>1105.2</ele>
        <time>2019-08-16T13:53:14Z</time>
      </trkpt>
      <trkpt lat="42.0384660" lon="-6.7759060">
        <ele>1105.5</ele>
        <time>2019-08-16T13:53:16Z</time>
      </trkpt>
      <trkpt lat="42.0385040" lon="-6.7759510">
        <ele>1105.7</ele>
        <time>2019-08-16T13:53:18Z</time>
      </trkpt>
      <trkpt lat="42.0385410" lon="-6.7759940">
        <ele>1106.0</ele>
        <time>2019-08-16T13:53:20Z</time>
      </trkpt>
      <trkpt lat="42.0385770" lon="-6.7760360">
        <ele>1106.3</ele>
        <time>2019-08-16T13:53:22Z</time>
      </trkpt>
      <trkpt lat="42.0386140" lon="-6.7760780">
        <ele>1106.6</ele>
        <time>2019-08-16T13:53:24Z</time>
      </trkpt>
      <trkpt lat="42.0386510" lon="-6.7761180">
        <ele>1106.9</ele>
        <time>2019-08-16T13:53:26Z</time>
      </trkpt>
      <trkpt lat="42.0386880" lon="-6.7761610">
        <ele>1107.2</ele>
        <time>2019-08-16T13:53:28Z</time>
      </trkpt>
      <trkpt lat="42.0387240" lon="-6.7762030">
        <ele>1107.5</ele>
        <time>2019-08-16T13:53:30Z</time>
      </trkpt>
      <trkpt lat="42.0387620" lon="-6.7762450">
        <ele>1107.8</ele>
        <time>2019-08-16T13:53:32Z</time>
      </trkpt>
      <trkpt lat="42.0387970" lon="-6.7762880">
        <ele>1108.2</ele>
        <time>2019-08-16T13:53:34Z</time>
      </trkpt>
      <trkpt lat="42.0388350" lon="-6.7763310">
        <ele>1108.6</ele>
        <time>2019-08-16T13:53:36Z</time>
      </trkpt>
      <trkpt lat="42.0388710" lon="-6.7763720">
        <ele>1108.9</ele>
        <time>2019-08-16T13:53:38Z</time>
      </trkpt>
      <trkpt lat="42.0389070" lon="-6.7764160">
        <ele>1109.2</ele>
        <time>2019-08-16T13:53:40Z</time>
      </trkpt>
      <trkpt lat="42.0389420" lon="-6.7764590">
        <ele>1109.4</ele>
        <time>2019-08-16T13:53:42Z</time>
      </trkpt>
      <trkpt lat="42.0389780" lon="-6.7765060">
        <ele>1109.7</ele>
        <time>2019-08-16T13:53:44Z</time>
      </trkpt>
      <trkpt lat="42.0390120" lon="-6.7765540">
        <ele>1110.0</ele>
        <time>2019-08-16T13:53:46Z</time>
      </trkpt>
      <trkpt lat="42.0390460" lon="-6.7765950">
        <ele>1110.2</ele>
        <time>2019-08-16T13:53:48Z</time>
      </trkpt>
      <trkpt lat="42.0390820" lon="-6.7766380">
        <ele>1110.4</ele>
        <time>2019-08-16T13:53:50Z</time>
      </trkpt>
      <trkpt lat="42.0391140" lon="-6.7766830">
        <ele>1110.6</ele>
        <time>2019-08-16T13:53:52Z</time>
      </trkpt>
      <trkpt lat="42.0391480" lon="-6.7767270">
        <ele>1110.9</ele>
        <time>2019-08-16T13:53:54Z</time>
      </trkpt>
      <trkpt lat="42.0391820" lon="-6.7767740">
        <ele>1111.2</ele>
        <time>2019-08-16T13:53:56Z</time>
      </trkpt>
      <trkpt lat="42.0392150" lon="-6.7768220">
        <ele>1111.4</ele>
        <time>2019-08-16T13:53:58Z</time>
      </trkpt>
      <trkpt lat="42.0392500" lon="-6.7768700">
        <ele>1111.6</ele>
        <time>2019-08-16T13:54:00Z</time>
      </trkpt>
      <trkpt lat="42.0392850" lon="-6.7769200">
        <ele>1111.9</ele>
        <time>2019-08-16T13:54:02Z</time>
      </trkpt>
      <trkpt lat="42.0393190" lon="-6.7769720">
        <ele>1112.2</ele>
        <time>2019-08-16T13:54:04Z</time>
      </trkpt>
      <trkpt lat="42.0393510" lon="-6.7770250">
        <ele>1112.5</ele>
        <time>2019-08-16T13:54:06Z</time>
      </trkpt>
      <trkpt lat="42.0393870" lon="-6.7770860">
        <ele>1112.8</ele>
        <time>2019-08-16T13:54:08Z</time>
      </trkpt>
      <trkpt lat="42.0394040" lon="-6.7771100">
        <ele>1112.9</ele>
        <time>2019-08-16T13:54:09Z</time>
      </trkpt>
      <trkpt lat="42.0394380" lon="-6.7771580">
        <ele>1113.2</ele>
        <time>2019-08-16T13:54:11Z</time>
      </trkpt>
      <trkpt lat="42.0394700" lon="-6.7772110">
        <ele>1113.6</ele>
        <time>2019-08-16T13:54:13Z</time>
      </trkpt>
      <trkpt lat="42.0395050" lon="-6.7772660">
        <ele>1113.9</ele>
        <time>2019-08-16T13:54:15Z</time>
      </trkpt>
      <trkpt lat="42.0395210" lon="-6.7772950">
        <ele>1114.0</ele>
        <time>2019-08-16T13:54:16Z</time>
      </trkpt>
      <trkpt lat="42.0395510" lon="-6.7773560">
        <ele>1114.3</ele>
        <time>2019-08-16T13:54:18Z</time>
      </trkpt>
      <trkpt lat="42.0395830" lon="-6.7774160">
        <ele>1114.6</ele>
        <time>2019-08-16T13:54:20Z</time>
      </trkpt>
      <trkpt lat="42.0395990" lon="-6.7774470">
        <ele>1114.8</ele>
        <time>2019-08-16T13:54:21Z</time>
      </trkpt>
      <trkpt lat="42.0396150" lon="-6.7774780">
        <ele>1115.0</ele>
        <time>2019-08-16T13:54:22Z</time>
      </trkpt>
      <trkpt lat="42.0396310" lon="-6.7775080">
        <ele>1115.2</ele>
        <time>2019-08-16T13:54:23Z</time>
      </trkpt>
      <trkpt lat="42.0396480" lon="-6.7775380">
        <ele>1115.4</ele>
        <time>2019-08-16T13:54:24Z</time>
      </trkpt>
      <trkpt lat="42.0396640" lon="-6.7775700">
        <ele>1115.6</ele>
        <time>2019-08-16T13:54:25Z</time>
      </trkpt>
      <trkpt lat="42.0396790" lon="-6.7776010">
        <ele>1115.7</ele>
        <time>2019-08-16T13:54:26Z</time>
      </trkpt>
      <trkpt lat="42.0396950" lon="-6.7776330">
        <ele>1115.9</ele>
        <time>2019-08-16T13:54:27Z</time>
      </trkpt>
      <trkpt lat="42.0397100" lon="-6.7776640">
        <ele>1116.0</ele>
        <time>2019-08-16T13:54:28Z</time>
      </trkpt>
      <trkpt lat="42.0397250" lon="-6.7776950">
        <ele>1116.2</ele>
        <time>2019-08-16T13:54:29Z</time>
      </trkpt>
      <trkpt lat="42.0397540" lon="-6.7777570">
        <ele>1116.6</ele>
        <time>2019-08-16T13:54:31Z</time>
      </trkpt>
      <trkpt lat="42.0397680" lon="-6.7777890">
        <ele>1116.8</ele>
        <time>2019-08-16T13:54:32Z</time>
      </trkpt>
      <trkpt lat="42.0397830" lon="-6.7778200">
        <ele>1117.0</ele>
        <time>2019-08-16T13:54:33Z</time>
      </trkpt>
      <trkpt lat="42.0397980" lon="-6.7778500">
        <ele>1117.1</ele>
        <time>2019-08-16T13:54:34Z</time>
      </trkpt>
      <trkpt lat="42.0398130" lon="-6.7778810">
        <ele>1117.2</ele>
        <time>2019-08-16T13:54:35Z</time>
      </trkpt>
      <trkpt lat="42.0398260" lon="-6.7779100">
        <ele>1117.3</ele>
        <time>2019-08-16T13:54:36Z</time>
      </trkpt>
      <trkpt lat="42.0398460" lon="-6.7779570">
        <ele>1117.6</ele>
        <time>2019-08-16T13:54:38Z</time>
      </trkpt>
      <trkpt lat="42.0398690" lon="-6.7780140">
        <ele>1117.9</ele>
        <time>2019-08-16T13:54:40Z</time>
      </trkpt>
      <trkpt lat="42.0398960" lon="-6.7780760">
        <ele>1118.2</ele>
        <time>2019-08-16T13:54:42Z</time>
      </trkpt>
      <trkpt lat="42.0399230" lon="-6.7781410">
        <ele>1118.4</ele>
        <time>2019-08-16T13:54:44Z</time>
      </trkpt>
      <trkpt lat="42.0399360" lon="-6.7781750">
        <ele>1118.5</ele>
        <time>2019-08-16T13:54:45Z</time>
      </trkpt>
      <trkpt lat="42.0399480" lon="-6.7782090">
        <ele>1118.6</ele>
        <time>2019-08-16T13:54:46Z</time>
      </trkpt>
      <trkpt lat="42.0399610" lon="-6.7782430">
        <ele>1118.7</ele>
        <time>2019-08-16T13:54:47Z</time>
      </trkpt>
      <trkpt lat="42.0399750" lon="-6.7782760">
        <ele>1118.8</ele>
        <time>2019-08-16T13:54:48Z</time>
      </trkpt>
      <trkpt lat="42.0399880" lon="-6.7783090">
        <ele>1119.0</ele>
        <time>2019-08-16T13:54:49Z</time>
      </trkpt>
      <trkpt lat="42.0399990" lon="-6.7783430">
        <ele>1119.1</ele>
        <time>2019-08-16T13:54:50Z</time>
      </trkpt>
      <trkpt lat="42.0400110" lon="-6.7783780">
        <ele>1119.2</ele>
        <time>2019-08-16T13:54:51Z</time>
      </trkpt>
      <trkpt lat="42.0400230" lon="-6.7784130">
        <ele>1119.3</ele>
        <time>2019-08-16T13:54:52Z</time>
      </trkpt>
      <trkpt lat="42.0400350" lon="-6.7784500">
        <ele>1119.4</ele>
        <time>2019-08-16T13:54:53Z</time>
      </trkpt>
      <trkpt lat="42.0400470" lon="-6.7784860">
        <ele>1119.5</ele>
        <time>2019-08-16T13:54:54Z</time>
      </trkpt>
      <trkpt lat="42.0400590" lon="-6.7785210">
        <ele>1119.6</ele>
        <time>2019-08-16T13:54:55Z</time>
      </trkpt>
      <trkpt lat="42.0400720" lon="-6.7785580">
        <ele>1119.6</ele>
        <time>2019-08-16T13:54:56Z</time>
      </trkpt>
      <trkpt lat="42.0400840" lon="-6.7785970">
        <ele>1119.8</ele>
        <time>2019-08-16T13:54:57Z</time>
      </trkpt>
      <trkpt lat="42.0400960" lon="-6.7786370">
        <ele>1119.9</ele>
        <time>2019-08-16T13:54:58Z</time>
      </trkpt>
      <trkpt lat="42.0401080" lon="-6.7786780">
        <ele>1120.0</ele>
        <time>2019-08-16T13:54:59Z</time>
      </trkpt>
      <trkpt lat="42.0401210" lon="-6.7787190">
        <ele>1120.1</ele>
        <time>2019-08-16T13:55:00Z</time>
      </trkpt>
      <trkpt lat="42.0401330" lon="-6.7787600">
        <ele>1120.3</ele>
        <time>2019-08-16T13:55:01Z</time>
      </trkpt>
      <trkpt lat="42.0401440" lon="-6.7788020">
        <ele>1120.4</ele>
        <time>2019-08-16T13:55:02Z</time>
      </trkpt>
      <trkpt lat="42.0401550" lon="-6.7788440">
        <ele>1120.5</ele>
        <time>2019-08-16T13:55:03Z</time>
      </trkpt>
      <trkpt lat="42.0401680" lon="-6.7788870">
        <ele>1120.5</ele>
        <time>2019-08-16T13:55:04Z</time>
      </trkpt>
      <trkpt lat="42.0401810" lon="-6.7789310">
        <ele>1120.6</ele>
        <time>2019-08-16T13:55:05Z</time>
      </trkpt>
      <trkpt lat="42.0401950" lon="-6.7789730">
        <ele>1120.7</ele>
        <time>2019-08-16T13:55:06Z</time>
      </trkpt>
      <trkpt lat="42.0402070" lon="-6.7790150">
        <ele>1120.9</ele>
        <time>2019-08-16T13:55:07Z</time>
      </trkpt>
      <trkpt lat="42.0402190" lon="-6.7790590">
        <ele>1121.0</ele>
        <time>2019-08-16T13:55:08Z</time>
      </trkpt>
      <trkpt lat="42.0402300" lon="-6.7791020">
        <ele>1121.1</ele>
        <time>2019-08-16T13:55:09Z</time>
      </trkpt>
      <trkpt lat="42.0402400" lon="-6.7791430">
        <ele>1121.2</ele>
        <time>2019-08-16T13:55:10Z</time>
      </trkpt>
      <trkpt lat="42.0402460" lon="-6.7791830">
        <ele>1121.3</ele>
        <time>2019-08-16T13:55:11Z</time>
      </trkpt>
      <trkpt lat="42.0402590" lon="-6.7792320">
        <ele>1121.4</ele>
        <time>2019-08-16T13:55:12Z</time>
      </trkpt>
      <trkpt lat="42.0402660" lon="-6.7792760">
        <ele>1121.5</ele>
        <time>2019-08-16T13:55:13Z</time>
      </trkpt>
      <trkpt lat="42.0402740" lon="-6.7793230">
        <ele>1121.6</ele>
        <time>2019-08-16T13:55:14Z</time>
      </trkpt>
      <trkpt lat="42.0402840" lon="-6.7793680">
        <ele>1121.7</ele>
        <time>2019-08-16T13:55:15Z</time>
      </trkpt>
      <trkpt lat="42.0402920" lon="-6.7794090">
        <ele>1121.9</ele>
        <time>2019-08-16T13:55:16Z</time>
      </trkpt>
      <trkpt lat="42.0402980" lon="-6.7794480">
        <ele>1121.9</ele>
        <time>2019-08-16T13:55:17Z</time>
      </trkpt>
      <trkpt lat="42.0403040" lon="-6.7794890">
        <ele>1122.0</ele>
        <time>2019-08-16T13:55:18Z</time>
      </trkpt>
      <trkpt lat="42.0403110" lon="-6.7795310">
        <ele>1122.1</ele>
        <time>2019-08-16T13:55:19Z</time>
      </trkpt>
      <trkpt lat="42.0403180" lon="-6.7795750">
        <ele>1122.2</ele>
        <time>2019-08-16T13:55:20Z</time>
      </trkpt>
      <trkpt lat="42.0403250" lon="-6.7796180">
        <ele>1122.3</ele>
        <time>2019-08-16T13:55:21Z</time>
      </trkpt>
      <trkpt lat="42.0403330" lon="-6.7796630">
        <ele>1122.4</ele>
        <time>2019-08-16T13:55:22Z</time>
      </trkpt>
      <trkpt lat="42.0403400" lon="-6.7797060">
        <ele>1122.5</ele>
        <time>2019-08-16T13:55:23Z</time>
      </trkpt>
      <trkpt lat="42.0403460" lon="-6.7797420">
        <ele>1122.5</ele>
        <time>2019-08-16T13:55:24Z</time>
      </trkpt>
      <trkpt lat="42.0403520" lon="-6.7797760">
        <ele>1122.6</ele>
        <time>2019-08-16T13:55:25Z</time>
      </trkpt>
      <trkpt lat="42.0403560" lon="-6.7798470">
        <ele>1122.8</ele>
        <time>2019-08-16T13:55:27Z</time>
      </trkpt>
      <trkpt lat="42.0403600" lon="-6.7798860">
        <ele>1122.8</ele>
        <time>2019-08-16T13:55:28Z</time>
      </trkpt>
      <trkpt lat="42.0403650" lon="-6.7799270">
        <ele>1122.9</ele>
        <time>2019-08-16T13:55:29Z</time>
      </trkpt>
      <trkpt lat="42.0403710" lon="-6.7799690">
        <ele>1123.0</ele>
        <time>2019-08-16T13:55:30Z</time>
      </trkpt>
      <trkpt lat="42.0403760" lon="-6.7800120">
        <ele>1123.0</ele>
        <time>2019-08-16T13:55:31Z</time>
      </trkpt>
      <trkpt lat="42.0403810" lon="-6.7800530">
        <ele>1123.1</ele>
        <time>2019-08-16T13:55:32Z</time>
      </trkpt>
      <trkpt lat="42.0403840" lon="-6.7800940">
        <ele>1123.1</ele>
        <time>2019-08-16T13:55:33Z</time>
      </trkpt>
      <trkpt lat="42.0403870" lon="-6.7801360">
        <ele>1123.2</ele>
        <time>2019-08-16T13:55:34Z</time>
      </trkpt>
      <trkpt lat="42.0403900" lon="-6.7801780">
        <ele>1123.2</ele>
        <time>2019-08-16T13:55:35Z</time>
      </trkpt>
      <trkpt lat="42.0403920" lon="-6.7802190">
        <ele>1123.3</ele>
        <time>2019-08-16T13:55:36Z</time>
      </trkpt>
      <trkpt lat="42.0403940" lon="-6.7802610">
        <ele>1123.4</ele>
        <time>2019-08-16T13:55:37Z</time>
      </trkpt>
      <trkpt lat="42.0403970" lon="-6.7803020">
        <ele>1123.5</ele>
        <time>2019-08-16T13:55:38Z</time>
      </trkpt>
      <trkpt lat="42.0404010" lon="-6.7803470">
        <ele>1123.6</ele>
        <time>2019-08-16T13:55:39Z</time>
      </trkpt>
      <trkpt lat="42.0404050" lon="-6.7803910">
        <ele>1123.7</ele>
        <time>2019-08-16T13:55:40Z</time>
      </trkpt>
      <trkpt lat="42.0404060" lon="-6.7804340">
        <ele>1123.7</ele>
        <time>2019-08-16T13:55:41Z</time>
      </trkpt>
      <trkpt lat="42.0404090" lon="-6.7804790">
        <ele>1123.8</ele>
        <time>2019-08-16T13:55:42Z</time>
      </trkpt>
      <trkpt lat="42.0404110" lon="-6.7805240">
        <ele>1123.8</ele>
        <time>2019-08-16T13:55:43Z</time>
      </trkpt>
      <trkpt lat="42.0404130" lon="-6.7805700">
        <ele>1123.9</ele>
        <time>2019-08-16T13:55:44Z</time>
      </trkpt>
      <trkpt lat="42.0404150" lon="-6.7806140">
        <ele>1124.0</ele>
        <time>2019-08-16T13:55:45Z</time>
      </trkpt>
      <trkpt lat="42.0404160" lon="-6.7806570">
        <ele>1124.0</ele>
        <time>2019-08-16T13:55:46Z</time>
      </trkpt>
      <trkpt lat="42.0404160" lon="-6.7806950">
        <ele>1124.0</ele>
        <time>2019-08-16T13:55:47Z</time>
      </trkpt>
      <trkpt lat="42.0404150" lon="-6.7807340">
        <ele>1124.1</ele>
        <time>2019-08-16T13:55:48Z</time>
      </trkpt>
      <trkpt lat="42.0404160" lon="-6.7807740">
        <ele>1124.1</ele>
        <time>2019-08-16T13:55:49Z</time>
      </trkpt>
      <trkpt lat="42.0404170" lon="-6.7808150">
        <ele>1124.1</ele>
        <time>2019-08-16T13:55:50Z</time>
      </trkpt>
      <trkpt lat="42.0404190" lon="-6.7808570">
        <ele>1124.2</ele>
        <time>2019-08-16T13:55:51Z</time>
      </trkpt>
      <trkpt lat="42.0404210" lon="-6.7808990">
        <ele>1124.3</ele>
        <time>2019-08-16T13:55:52Z</time>
      </trkpt>
      <trkpt lat="42.0404230" lon="-6.7809430">
        <ele>1124.3</ele>
        <time>2019-08-16T13:55:53Z</time>
      </trkpt>
      <trkpt lat="42.0404220" lon="-6.7809860">
        <ele>1124.4</ele>
        <time>2019-08-16T13:55:54Z</time>
      </trkpt>
      <trkpt lat="42.0404240" lon="-6.7810310">
        <ele>1124.5</ele>
        <time>2019-08-16T13:55:55Z</time>
      </trkpt>
      <trkpt lat="42.0404270" lon="-6.7810770">
        <ele>1124.6</ele>
        <time>2019-08-16T13:55:56Z</time>
      </trkpt>
      <trkpt lat="42.0404280" lon="-6.7811240">
        <ele>1124.7</ele>
        <time>2019-08-16T13:55:57Z</time>
      </trkpt>
      <trkpt lat="42.0404280" lon="-6.7811710">
        <ele>1124.8</ele>
        <time>2019-08-16T13:55:58Z</time>
      </trkpt>
      <trkpt lat="42.0404290" lon="-6.7812180">
        <ele>1124.9</ele>
        <time>2019-08-16T13:55:59Z</time>
      </trkpt>
      <trkpt lat="42.0404290" lon="-6.7812660">
        <ele>1125.0</ele>
        <time>2019-08-16T13:56:00Z</time>
      </trkpt>
      <trkpt lat="42.0404290" lon="-6.7813140">
        <ele>1125.1</ele>
        <time>2019-08-16T13:56:01Z</time>
      </trkpt>
      <trkpt lat="42.0404280" lon="-6.7813600">
        <ele>1125.2</ele>
        <time>2019-08-16T13:56:02Z</time>
      </trkpt>
      <trkpt lat="42.0404280" lon="-6.7814050">
        <ele>1125.3</ele>
        <time>2019-08-16T13:56:03Z</time>
      </trkpt>
      <trkpt lat="42.0404290" lon="-6.7814510">
        <ele>1125.4</ele>
        <time>2019-08-16T13:56:04Z</time>
      </trkpt>
      <trkpt lat="42.0404290" lon="-6.7814970">
        <ele>1125.5</ele>
        <time>2019-08-16T13:56:05Z</time>
      </trkpt>
      <trkpt lat="42.0404280" lon="-6.7815430">
        <ele>1125.6</ele>
        <time>2019-08-16T13:56:06Z</time>
      </trkpt>
      <trkpt lat="42.0404270" lon="-6.7815880">
        <ele>1125.7</ele>
        <time>2019-08-16T13:56:07Z</time>
      </trkpt>
      <trkpt lat="42.0404270" lon="-6.7816350">
        <ele>1125.8</ele>
        <time>2019-08-16T13:56:08Z</time>
      </trkpt>
      <trkpt lat="42.0404270" lon="-6.7816810">
        <ele>1125.8</ele>
        <time>2019-08-16T13:56:09Z</time>
      </trkpt>
      <trkpt lat="42.0404270" lon="-6.7817280">
        <ele>1125.9</ele>
        <time>2019-08-16T13:56:10Z</time>
      </trkpt>
      <trkpt lat="42.0404250" lon="-6.7817740">
        <ele>1126.0</ele>
        <time>2019-08-16T13:56:11Z</time>
      </trkpt>
      <trkpt lat="42.0404230" lon="-6.7818200">
        <ele>1126.1</ele>
        <time>2019-08-16T13:56:12Z</time>
      </trkpt>
      <trkpt lat="42.0404230" lon="-6.7818670">
        <ele>1126.2</ele>
        <time>2019-08-16T13:56:13Z</time>
      </trkpt>
      <trkpt lat="42.0404230" lon="-6.7819140">
        <ele>1126.3</ele>
        <time>2019-08-16T13:56:14Z</time>
      </trkpt>
      <trkpt lat="42.0404220" lon="-6.7819590">
        <ele>1126.3</ele>
        <time>2019-08-16T13:56:15Z</time>
      </trkpt>
      <trkpt lat="42.0404230" lon="-6.7820050">
        <ele>1126.4</ele>
        <time>2019-08-16T13:56:16Z</time>
      </trkpt>
      <trkpt lat="42.0404240" lon="-6.7820500">
        <ele>1126.5</ele>
        <time>2019-08-16T13:56:17Z</time>
      </trkpt>
      <trkpt lat="42.0404240" lon="-6.7820950">
        <ele>1126.6</ele>
        <time>2019-08-16T13:56:18Z</time>
      </trkpt>
      <trkpt lat="42.0404250" lon="-6.7821400">
        <ele>1126.7</ele>
        <time>2019-08-16T13:56:19Z</time>
      </trkpt>
      <trkpt lat="42.0404260" lon="-6.7821840">
        <ele>1126.8</ele>
        <time>2019-08-16T13:56:20Z</time>
      </trkpt>
      <trkpt lat="42.0404270" lon="-6.7822280">
        <ele>1126.9</ele>
        <time>2019-08-16T13:56:21Z</time>
      </trkpt>
      <trkpt lat="42.0404280" lon="-6.7822720">
        <ele>1127.0</ele>
        <time>2019-08-16T13:56:22Z</time>
      </trkpt>
      <trkpt lat="42.0404290" lon="-6.7823140">
        <ele>1127.1</ele>
        <time>2019-08-16T13:56:23Z</time>
      </trkpt>
      <trkpt lat="42.0404280" lon="-6.7823550">
        <ele>1127.2</ele>
        <time>2019-08-16T13:56:24Z</time>
      </trkpt>
      <trkpt lat="42.0404290" lon="-6.7823970">
        <ele>1127.3</ele>
        <time>2019-08-16T13:56:25Z</time>
      </trkpt>
      <trkpt lat="42.0404290" lon="-6.7824410">
        <ele>1127.4</ele>
        <time>2019-08-16T13:56:26Z</time>
      </trkpt>
      <trkpt lat="42.0404290" lon="-6.7824830">
        <ele>1127.5</ele>
        <time>2019-08-16T13:56:27Z</time>
      </trkpt>
      <trkpt lat="42.0404290" lon="-6.7825250">
        <ele>1127.6</ele>
        <time>2019-08-16T13:56:28Z</time>
      </trkpt>
      <trkpt lat="42.0404290" lon="-6.7825680">
        <ele>1127.6</ele>
        <time>2019-08-16T13:56:29Z</time>
      </trkpt>
      <trkpt lat="42.0404280" lon="-6.7826100">
        <ele>1127.7</ele>
        <time>2019-08-16T13:56:30Z</time>
      </trkpt>
      <trkpt lat="42.0404280" lon="-6.7826530">
        <ele>1127.8</ele>
        <time>2019-08-16T13:56:31Z</time>
      </trkpt>
      <trkpt lat="42.0404280" lon="-6.7826970">
        <ele>1127.9</ele>
        <time>2019-08-16T13:56:32Z</time>
      </trkpt>
      <trkpt lat="42.0404290" lon="-6.7827390">
        <ele>1127.9</ele>
        <time>2019-08-16T13:56:33Z</time>
      </trkpt>
      <trkpt lat="42.0404290" lon="-6.7827810">
        <ele>1128.0</ele>
        <time>2019-08-16T13:56:34Z</time>
      </trkpt>
      <trkpt lat="42.0404290" lon="-6.7828230">
        <ele>1128.0</ele>
        <time>2019-08-16T13:56:35Z</time>
      </trkpt>
      <trkpt lat="42.0404290" lon="-6.7828650">
        <ele>1128.1</ele>
        <time>2019-08-16T13:56:36Z</time>
      </trkpt>
      <trkpt lat="42.0404290" lon="-6.7829060">
        <ele>1128.1</ele>
        <time>2019-08-16T13:56:37Z</time>
      </trkpt>
      <trkpt lat="42.0404300" lon="-6.7829470">
        <ele>1128.2</ele>
        <time>2019-08-16T13:56:38Z</time>
      </trkpt>
      <trkpt lat="42.0404310" lon="-6.7829870">
        <ele>1128.3</ele>
        <time>2019-08-16T13:56:39Z</time>
      </trkpt>
      <trkpt lat="42.0404310" lon="-6.7830260">
        <ele>1128.5</ele>
        <time>2019-08-16T13:56:40Z</time>
      </trkpt>
      <trkpt lat="42.0404320" lon="-6.7830660">
        <ele>1128.7</ele>
        <time>2019-08-16T13:56:41Z</time>
      </trkpt>
      <trkpt lat="42.0404320" lon="-6.7831070">
        <ele>1129.0</ele>
        <time>2019-08-16T13:56:42Z</time>
      </trkpt>
      <trkpt lat="42.0404320" lon="-6.7831470">
        <ele>1129.2</ele>
        <time>2019-08-16T13:56:43Z</time>
      </trkpt>
      <trkpt lat="42.0404320" lon="-6.7831870">
        <ele>1129.5</ele>
        <time>2019-08-16T13:56:44Z</time>
      </trkpt>
      <trkpt lat="42.0404330" lon="-6.7832260">
        <ele>1129.7</ele>
        <time>2019-08-16T13:56:45Z</time>
      </trkpt>
      <trkpt lat="42.0404330" lon="-6.7832640">
        <ele>1129.9</ele>
        <time>2019-08-16T13:56:46Z</time>
      </trkpt>
      <trkpt lat="42.0404330" lon="-6.7833020">
        <ele>1130.1</ele>
        <time>2019-08-16T13:56:47Z</time>
      </trkpt>
      <trkpt lat="42.0404340" lon="-6.7833400">
        <ele>1130.3</ele>
        <time>2019-08-16T13:56:48Z</time>
      </trkpt>
      <trkpt lat="42.0404340" lon="-6.7833770">
        <ele>1130.5</ele>
        <time>2019-08-16T13:56:49Z</time>
      </trkpt>
      <trkpt lat="42.0404340" lon="-6.7834150">
        <ele>1130.7</ele>
        <time>2019-08-16T13:56:50Z</time>
      </trkpt>
      <trkpt lat="42.0404340" lon="-6.7834510">
        <ele>1130.8</ele>
        <time>2019-08-16T13:56:51Z</time>
      </trkpt>
      <trkpt lat="42.0404340" lon="-6.7835150">
        <ele>1131.2</ele>
        <time>2019-08-16T13:56:53Z</time>
      </trkpt>
      <trkpt lat="42.0404340" lon="-6.7835840">
        <ele>1131.5</ele>
        <time>2019-08-16T13:56:55Z</time>
      </trkpt>
      <trkpt lat="42.0404340" lon="-6.7836570">
        <ele>1131.9</ele>
        <time>2019-08-16T13:56:57Z</time>
      </trkpt>
      <trkpt lat="42.0404340" lon="-6.7836940">
        <ele>1132.1</ele>
        <time>2019-08-16T13:56:58Z</time>
      </trkpt>
      <trkpt lat="42.0404340" lon="-6.7837300">
        <ele>1132.3</ele>
        <time>2019-08-16T13:56:59Z</time>
      </trkpt>
      <trkpt lat="42.0404350" lon="-6.7838010">
        <ele>1132.7</ele>
        <time>2019-08-16T13:57:01Z</time>
      </trkpt>
      <trkpt lat="42.0404340" lon="-6.7838700">
        <ele>1133.1</ele>
        <time>2019-08-16T13:57:03Z</time>
      </trkpt>
      <trkpt lat="42.0404350" lon="-6.7839380">
        <ele>1133.4</ele>
        <time>2019-08-16T13:57:05Z</time>
      </trkpt>
      <trkpt lat="42.0404380" lon="-6.7840080">
        <ele>1133.8</ele>
        <time>2019-08-16T13:57:07Z</time>
      </trkpt>
      <trkpt lat="42.0404400" lon="-6.7840800">
        <ele>1134.2</ele>
        <time>2019-08-16T13:57:09Z</time>
      </trkpt>
      <trkpt lat="42.0404390" lon="-6.7841170">
        <ele>1134.4</ele>
        <time>2019-08-16T13:57:10Z</time>
      </trkpt>
      <trkpt lat="42.0404400" lon="-6.7841540">
        <ele>1134.6</ele>
        <time>2019-08-16T13:57:11Z</time>
      </trkpt>
      <trkpt lat="42.0404400" lon="-6.7841900">
        <ele>1134.8</ele>
        <time>2019-08-16T13:57:12Z</time>
      </trkpt>
      <trkpt lat="42.0404410" lon="-6.7842260">
        <ele>1135.0</ele>
        <time>2019-08-16T13:57:13Z</time>
      </trkpt>
      <trkpt lat="42.0404420" lon="-6.7842620">
        <ele>1135.3</ele>
        <time>2019-08-16T13:57:14Z</time>
      </trkpt>
      <trkpt lat="42.0404420" lon="-6.7843330">
        <ele>1135.7</ele>
        <time>2019-08-16T13:57:16Z</time>
      </trkpt>
      <trkpt lat="42.0404430" lon="-6.7844020">
        <ele>1136.2</ele>
        <time>2019-08-16T13:57:18Z</time>
      </trkpt>
      <trkpt lat="42.0404420" lon="-6.7844580">
        <ele>1136.5</ele>
        <time>2019-08-16T13:57:20Z</time>
      </trkpt>
      <trkpt lat="42.0404430" lon="-6.7845150">
        <ele>1136.8</ele>
        <time>2019-08-16T13:57:22Z</time>
      </trkpt>
      <trkpt lat="42.0404430" lon="-6.7845810">
        <ele>1137.1</ele>
        <time>2019-08-16T13:57:24Z</time>
      </trkpt>
      <trkpt lat="42.0404430" lon="-6.7846500">
        <ele>1137.5</ele>
        <time>2019-08-16T13:57:26Z</time>
      </trkpt>
      <trkpt lat="42.0404440" lon="-6.7847210">
        <ele>1137.8</ele>
        <time>2019-08-16T13:57:28Z</time>
      </trkpt>
      <trkpt lat="42.0404440" lon="-6.7847920">
        <ele>1138.2</ele>
        <time>2019-08-16T13:57:30Z</time>
      </trkpt>
      <trkpt lat="42.0404450" lon="-6.7848640">
        <ele>1138.6</ele>
        <time>2019-08-16T13:57:32Z</time>
      </trkpt>
      <trkpt lat="42.0404450" lon="-6.7849000">
        <ele>1138.9</ele>
        <time>2019-08-16T13:57:33Z</time>
      </trkpt>
      <trkpt lat="42.0404460" lon="-6.7849360">
        <ele>1139.1</ele>
        <time>2019-08-16T13:57:34Z</time>
      </trkpt>
      <trkpt lat="42.0404460" lon="-6.7850080">
        <ele>1139.6</ele>
        <time>2019-08-16T13:57:36Z</time>
      </trkpt>
      <trkpt lat="42.0404460" lon="-6.7850450">
        <ele>1139.9</ele>
        <time>2019-08-16T13:57:37Z</time>
      </trkpt>
      <trkpt lat="42.0404470" lon="-6.7850810">
        <ele>1140.1</ele>
        <time>2019-08-16T13:57:38Z</time>
      </trkpt>
      <trkpt lat="42.0404470" lon="-6.7851530">
        <ele>1140.5</ele>
        <time>2019-08-16T13:57:40Z</time>
      </trkpt>
      <trkpt lat="42.0404450" lon="-6.7852220">
        <ele>1140.9</ele>
        <time>2019-08-16T13:57:42Z</time>
      </trkpt>
      <trkpt lat="42.0404450" lon="-6.7852930">
        <ele>1141.3</ele>
        <time>2019-08-16T13:57:44Z</time>
      </trkpt>
      <trkpt lat="42.0404450" lon="-6.7853290">
        <ele>1141.5</ele>
        <time>2019-08-16T13:57:45Z</time>
      </trkpt>
      <trkpt lat="42.0404430" lon="-6.7853650">
        <ele>1141.7</ele>
        <time>2019-08-16T13:57:46Z</time>
      </trkpt>
      <trkpt lat="42.0404410" lon="-6.7854350">
        <ele>1142.1</ele>
        <time>2019-08-16T13:57:48Z</time>
      </trkpt>
      <trkpt lat="42.0404380" lon="-6.7855060">
        <ele>1142.5</ele>
        <time>2019-08-16T13:57:50Z</time>
      </trkpt>
      <trkpt lat="42.0404360" lon="-6.7855770">
        <ele>1142.9</ele>
        <time>2019-08-16T13:57:52Z</time>
      </trkpt>
      <trkpt lat="42.0404340" lon="-6.7856500">
        <ele>1143.3</ele>
        <time>2019-08-16T13:57:54Z</time>
      </trkpt>
      <trkpt lat="42.0404320" lon="-6.7856870">
        <ele>1143.5</ele>
        <time>2019-08-16T13:57:55Z</time>
      </trkpt>
      <trkpt lat="42.0404310" lon="-6.7857250">
        <ele>1143.8</ele>
        <time>2019-08-16T13:57:56Z</time>
      </trkpt>
      <trkpt lat="42.0404290" lon="-6.7857630">
        <ele>1143.9</ele>
        <time>2019-08-16T13:57:57Z</time>
      </trkpt>
      <trkpt lat="42.0404260" lon="-6.7858010">
        <ele>1144.1</ele>
        <time>2019-08-16T13:57:58Z</time>
      </trkpt>
      <trkpt lat="42.0404240" lon="-6.7858390">
        <ele>1144.3</ele>
        <time>2019-08-16T13:57:59Z</time>
      </trkpt>
      <trkpt lat="42.0404230" lon="-6.7858770">
        <ele>1144.5</ele>
        <time>2019-08-16T13:58:00Z</time>
      </trkpt>
      <trkpt lat="42.0404200" lon="-6.7859150">
        <ele>1144.7</ele>
        <time>2019-08-16T13:58:01Z</time>
      </trkpt>
      <trkpt lat="42.0404160" lon="-6.7859520">
        <ele>1144.9</ele>
        <time>2019-08-16T13:58:02Z</time>
      </trkpt>
      <trkpt lat="42.0404130" lon="-6.7859890">
        <ele>1145.1</ele>
        <time>2019-08-16T13:58:03Z</time>
      </trkpt>
      <trkpt lat="42.0404100" lon="-6.7860260">
        <ele>1145.3</ele>
        <time>2019-08-16T13:58:04Z</time>
      </trkpt>
      <trkpt lat="42.0404060" lon="-6.7860630">
        <ele>1145.4</ele>
        <time>2019-08-16T13:58:05Z</time>
      </trkpt>
      <trkpt lat="42.0404020" lon="-6.7861000">
        <ele>1145.6</ele>
        <time>2019-08-16T13:58:06Z</time>
      </trkpt>
      <trkpt lat="42.0403970" lon="-6.7861370">
        <ele>1145.8</ele>
        <time>2019-08-16T13:58:07Z</time>
      </trkpt>
      <trkpt lat="42.0403930" lon="-6.7861750">
        <ele>1146.0</ele>
        <time>2019-08-16T13:58:08Z</time>
      </trkpt>
      <trkpt lat="42.0403870" lon="-6.7862120">
        <ele>1146.2</ele>
        <time>2019-08-16T13:58:09Z</time>
      </trkpt>
      <trkpt lat="42.0403810" lon="-6.7862500">
        <ele>1146.4</ele>
        <time>2019-08-16T13:58:10Z</time>
      </trkpt>
      <trkpt lat="42.0403760" lon="-6.7862860">
        <ele>1146.6</ele>
        <time>2019-08-16T13:58:11Z</time>
      </trkpt>
      <trkpt lat="42.0403700" lon="-6.7863220">
        <ele>1146.8</ele>
        <time>2019-08-16T13:58:12Z</time>
      </trkpt>
      <trkpt lat="42.0403640" lon="-6.7863580">
        <ele>1147.0</ele>
        <time>2019-08-16T13:58:13Z</time>
      </trkpt>
      <trkpt lat="42.0403500" lon="-6.7864260">
        <ele>1147.4</ele>
        <time>2019-08-16T13:58:15Z</time>
      </trkpt>
      <trkpt lat="42.0403370" lon="-6.7864950">
        <ele>1147.8</ele>
        <time>2019-08-16T13:58:17Z</time>
      </trkpt>
      <trkpt lat="42.0403220" lon="-6.7865610">
        <ele>1148.2</ele>
        <time>2019-08-16T13:58:19Z</time>
      </trkpt>
      <trkpt lat="42.0403090" lon="-6.7866290">
        <ele>1148.6</ele>
        <time>2019-08-16T13:58:21Z</time>
      </trkpt>
      <trkpt lat="42.0402960" lon="-6.7866900">
        <ele>1148.9</ele>
        <time>2019-08-16T13:58:23Z</time>
      </trkpt>
      <trkpt lat="42.0402810" lon="-6.7867540">
        <ele>1149.2</ele>
        <time>2019-08-16T13:58:25Z</time>
      </trkpt>
      <trkpt lat="42.0402660" lon="-6.7868180">
        <ele>1149.5</ele>
        <time>2019-08-16T13:58:27Z</time>
      </trkpt>
      <trkpt lat="42.0402510" lon="-6.7868840">
        <ele>1149.8</ele>
        <time>2019-08-16T13:58:29Z</time>
      </trkpt>
      <trkpt lat="42.0402330" lon="-6.7869470">
        <ele>1150.0</ele>
        <time>2019-08-16T13:58:31Z</time>
      </trkpt>
      <trkpt lat="42.0402160" lon="-6.7870110">
        <ele>1150.3</ele>
        <time>2019-08-16T13:58:33Z</time>
      </trkpt>
      <trkpt lat="42.0401890" lon="-6.7870700">
        <ele>1150.6</ele>
        <time>2019-08-16T13:58:35Z</time>
      </trkpt>
      <trkpt lat="42.0401610" lon="-6.7871300">
        <ele>1150.9</ele>
        <time>2019-08-16T13:58:37Z</time>
      </trkpt>
      <trkpt lat="42.0401350" lon="-6.7871910">
        <ele>1151.2</ele>
        <time>2019-08-16T13:58:39Z</time>
      </trkpt>
      <trkpt lat="42.0401060" lon="-6.7872470">
        <ele>1151.4</ele>
        <time>2019-08-16T13:58:41Z</time>
      </trkpt>
      <trkpt lat="42.0400770" lon="-6.7873050">
        <ele>1151.7</ele>
        <time>2019-08-16T13:58:43Z</time>
      </trkpt>
      <trkpt lat="42.0400480" lon="-6.7873610">
        <ele>1152.0</ele>
        <time>2019-08-16T13:58:45Z</time>
      </trkpt>
      <trkpt lat="42.0400210" lon="-6.7874150">
        <ele>1152.2</ele>
        <time>2019-08-16T13:58:47Z</time>
      </trkpt>
      <trkpt lat="42.0399920" lon="-6.7874660">
        <ele>1152.4</ele>
        <time>2019-08-16T13:58:49Z</time>
      </trkpt>
      <trkpt lat="42.0399610" lon="-6.7875200">
        <ele>1152.7</ele>
        <time>2019-08-16T13:58:51Z</time>
      </trkpt>
      <trkpt lat="42.0399330" lon="-6.7875750">
        <ele>1153.0</ele>
        <time>2019-08-16T13:58:53Z</time>
      </trkpt>
      <trkpt lat="42.0398990" lon="-6.7876290">
        <ele>1153.2</ele>
        <time>2019-08-16T13:58:55Z</time>
      </trkpt>
      <trkpt lat="42.0398650" lon="-6.7876860">
        <ele>1153.5</ele>
        <time>2019-08-16T13:58:57Z</time>
      </trkpt>
      <trkpt lat="42.0398480" lon="-6.7877140">
        <ele>1153.7</ele>
        <time>2019-08-16T13:58:58Z</time>
      </trkpt>
      <trkpt lat="42.0398120" lon="-6.7877670">
        <ele>1154.0</ele>
        <time>2019-08-16T13:59:00Z</time>
      </trkpt>
      <trkpt lat="42.0397760" lon="-6.7878190">
        <ele>1154.3</ele>
        <time>2019-08-16T13:59:02Z</time>
      </trkpt>
      <trkpt lat="42.0397410" lon="-6.7878740">
        <ele>1154.5</ele>
        <time>2019-08-16T13:59:04Z</time>
      </trkpt>
      <trkpt lat="42.0397210" lon="-6.7879000">
        <ele>1154.7</ele>
        <time>2019-08-16T13:59:05Z</time>
      </trkpt>
      <trkpt lat="42.0397010" lon="-6.7879250">
        <ele>1154.8</ele>
        <time>2019-08-16T13:59:06Z</time>
      </trkpt>
      <trkpt lat="42.0396630" lon="-6.7879740">
        <ele>1155.1</ele>
        <time>2019-08-16T13:59:08Z</time>
      </trkpt>
      <trkpt lat="42.0396280" lon="-6.7880230">
        <ele>1155.4</ele>
        <time>2019-08-16T13:59:10Z</time>
      </trkpt>
      <trkpt lat="42.0395930" lon="-6.7880720">
        <ele>1155.6</ele>
        <time>2019-08-16T13:59:12Z</time>
      </trkpt>
      <trkpt lat="42.0395600" lon="-6.7881200">
        <ele>1155.9</ele>
        <time>2019-08-16T13:59:14Z</time>
      </trkpt>
      <trkpt lat="42.0395260" lon="-6.7881690">
        <ele>1156.1</ele>
        <time>2019-08-16T13:59:16Z</time>
      </trkpt>
      <trkpt lat="42.0394900" lon="-6.7882190">
        <ele>1156.4</ele>
        <time>2019-08-16T13:59:18Z</time>
      </trkpt>
      <trkpt lat="42.0394520" lon="-6.7882640">
        <ele>1156.6</ele>
        <time>2019-08-16T13:59:20Z</time>
      </trkpt>
      <trkpt lat="42.0394170" lon="-6.7883110">
        <ele>1156.4</ele>
        <time>2019-08-16T13:59:22Z</time>
      </trkpt>
      <trkpt lat="42.0393760" lon="-6.7883520">
        <ele>1156.2</ele>
        <time>2019-08-16T13:59:24Z</time>
      </trkpt>
      <trkpt lat="42.0393360" lon="-6.7883990">
        <ele>1156.1</ele>
        <time>2019-08-16T13:59:26Z</time>
      </trkpt>
      <trkpt lat="42.0393160" lon="-6.7884240">
        <ele>1156.0</ele>
        <time>2019-08-16T13:59:27Z</time>
      </trkpt>
      <trkpt lat="42.0392780" lon="-6.7884740">
        <ele>1155.9</ele>
        <time>2019-08-16T13:59:29Z</time>
      </trkpt>
      <trkpt lat="42.0392390" lon="-6.7885210">
        <ele>1155.8</ele>
        <time>2019-08-16T13:59:31Z</time>
      </trkpt>
      <trkpt lat="42.0392000" lon="-6.7885680">
        <ele>1155.7</ele>
        <time>2019-08-16T13:59:33Z</time>
      </trkpt>
      <trkpt lat="42.0391610" lon="-6.7886140">
        <ele>1155.6</ele>
        <time>2019-08-16T13:59:35Z</time>
      </trkpt>
      <trkpt lat="42.0391180" lon="-6.7886560">
        <ele>1155.5</ele>
        <time>2019-08-16T13:59:37Z</time>
      </trkpt>
      <trkpt lat="42.0390690" lon="-6.7886840">
        <ele>1155.4</ele>
        <time>2019-08-16T13:59:39Z</time>
      </trkpt>
      <trkpt lat="42.0390210" lon="-6.7887130">
        <ele>1155.3</ele>
        <time>2019-08-16T13:59:41Z</time>
      </trkpt>
      <trkpt lat="42.0389720" lon="-6.7887390">
        <ele>1155.2</ele>
        <time>2019-08-16T13:59:43Z</time>
      </trkpt>
      <trkpt lat="42.0389220" lon="-6.7887690">
        <ele>1155.1</ele>
        <time>2019-08-16T13:59:45Z</time>
      </trkpt>
      <trkpt lat="42.0388980" lon="-6.7887850">
        <ele>1155.1</ele>
        <time>2019-08-16T13:59:46Z</time>
      </trkpt>
      <trkpt lat="42.0388520" lon="-6.7888220">
        <ele>1155.0</ele>
        <time>2019-08-16T13:59:48Z</time>
      </trkpt>
      <trkpt lat="42.0388080" lon="-6.7888630">
        <ele>1154.9</ele>
        <time>2019-08-16T13:59:50Z</time>
      </trkpt>
      <trkpt lat="42.0387660" lon="-6.7889060">
        <ele>1155.1</ele>
        <time>2019-08-16T13:59:52Z</time>
      </trkpt>
      <trkpt lat="42.0387230" lon="-6.7889460">
        <ele>1155.4</ele>
        <time>2019-08-16T13:59:54Z</time>
      </trkpt>
      <trkpt lat="42.0386930" lon="-6.7889760">
        <ele>1155.6</ele>
        <time>2019-08-16T13:59:56Z</time>
      </trkpt>
      <trkpt lat="42.0386760" lon="-6.7889910">
        <ele>1155.8</ele>
        <time>2019-08-16T13:59:58Z</time>
      </trkpt>
      <trkpt lat="42.0386610" lon="-6.7890000">
        <ele>1155.9</ele>
        <time>2019-08-16T14:00:07Z</time>
      </trkpt>
      <trkpt lat="42.0386060" lon="-6.7890220">
        <ele>1156.1</ele>
        <time>2019-08-16T14:00:23Z</time>
      </trkpt>
      <trkpt lat="42.0385810" lon="-6.7890390">
        <ele>1156.2</ele>
        <time>2019-08-16T14:00:26Z</time>
      </trkpt>
      <trkpt lat="42.0385480" lon="-6.7890460">
        <ele>1156.3</ele>
        <time>2019-08-16T14:00:30Z</time>
      </trkpt>
      <trkpt lat="42.0385230" lon="-6.7890580">
        <ele>1156.4</ele>
        <time>2019-08-16T14:00:33Z</time>
      </trkpt>
      <trkpt lat="42.0384930" lon="-6.7890630">
        <ele>1156.6</ele>
        <time>2019-08-16T14:00:37Z</time>
      </trkpt>
      <trkpt lat="42.0384950" lon="-6.7890660">
        <ele>1156.6</ele>
        <time>2019-08-16T14:00:41Z</time>
      </trkpt>
      <trkpt lat="42.0385680" lon="-6.7890120">
        <ele>1156.8</ele>
        <time>2019-08-16T14:06:00Z</time>
      </trkpt>
      <trkpt lat="42.0386170" lon="-6.7890100">
        <ele>1157.0</ele>
        <time>2019-08-16T14:06:02Z</time>
      </trkpt>
      <trkpt lat="42.0386530" lon="-6.7890120">
        <ele>1157.1</ele>
        <time>2019-08-16T14:06:04Z</time>
      </trkpt>
      <trkpt lat="42.0386840" lon="-6.7890240">
        <ele>1157.2</ele>
        <time>2019-08-16T14:06:06Z</time>
      </trkpt>
      <trkpt lat="42.0387060" lon="-6.7890580">
        <ele>1157.3</ele>
        <time>2019-08-16T14:06:08Z</time>
      </trkpt>
      <trkpt lat="42.0387150" lon="-6.7891170">
        <ele>1157.4</ele>
        <time>2019-08-16T14:06:10Z</time>
      </trkpt>
      <trkpt lat="42.0387030" lon="-6.7891820">
        <ele>1157.6</ele>
        <time>2019-08-16T14:06:12Z</time>
      </trkpt>
      <trkpt lat="42.0386750" lon="-6.7892330">
        <ele>1157.8</ele>
        <time>2019-08-16T14:06:14Z</time>
      </trkpt>
      <trkpt lat="42.0386420" lon="-6.7892780">
        <ele>1158.1</ele>
        <time>2019-08-16T14:06:16Z</time>
      </trkpt>
      <trkpt lat="42.0386080" lon="-6.7893180">
        <ele>1158.5</ele>
        <time>2019-08-16T14:06:18Z</time>
      </trkpt>
      <trkpt lat="42.0385740" lon="-6.7893540">
        <ele>1158.7</ele>
        <time>2019-08-16T14:06:20Z</time>
      </trkpt>
      <trkpt lat="42.0385420" lon="-6.7893920">
        <ele>1159.0</ele>
        <time>2019-08-16T14:06:22Z</time>
      </trkpt>
      <trkpt lat="42.0385110" lon="-6.7894310">
        <ele>1159.3</ele>
        <time>2019-08-16T14:06:24Z</time>
      </trkpt>
      <trkpt lat="42.0384780" lon="-6.7894690">
        <ele>1159.5</ele>
        <time>2019-08-16T14:06:26Z</time>
      </trkpt>
      <trkpt lat="42.0384470" lon="-6.7895070">
        <ele>1159.8</ele>
        <time>2019-08-16T14:06:28Z</time>
      </trkpt>
      <trkpt lat="42.0384160" lon="-6.7895440">
        <ele>1160.0</ele>
        <time>2019-08-16T14:06:30Z</time>
      </trkpt>
      <trkpt lat="42.0383860" lon="-6.7895810">
        <ele>1160.2</ele>
        <time>2019-08-16T14:06:32Z</time>
      </trkpt>
      <trkpt lat="42.0383540" lon="-6.7896150">
        <ele>1160.5</ele>
        <time>2019-08-16T14:06:34Z</time>
      </trkpt>
      <trkpt lat="42.0383250" lon="-6.7896490">
        <ele>1160.7</ele>
        <time>2019-08-16T14:06:36Z</time>
      </trkpt>
      <trkpt lat="42.0382970" lon="-6.7896830">
        <ele>1160.9</ele>
        <time>2019-08-16T14:06:38Z</time>
      </trkpt>
      <trkpt lat="42.0382690" lon="-6.7897160">
        <ele>1161.1</ele>
        <time>2019-08-16T14:06:40Z</time>
      </trkpt>
      <trkpt lat="42.0382420" lon="-6.7897510">
        <ele>1161.3</ele>
        <time>2019-08-16T14:06:42Z</time>
      </trkpt>
      <trkpt lat="42.0382120" lon="-6.7897850">
        <ele>1161.5</ele>
        <time>2019-08-16T14:06:44Z</time>
      </trkpt>
      <trkpt lat="42.0381830" lon="-6.7898200">
        <ele>1161.7</ele>
        <time>2019-08-16T14:06:46Z</time>
      </trkpt>
      <trkpt lat="42.0381540" lon="-6.7898530">
        <ele>1161.9</ele>
        <time>2019-08-16T14:06:48Z</time>
      </trkpt>
      <trkpt lat="42.0381280" lon="-6.7898870">
        <ele>1162.2</ele>
        <time>2019-08-16T14:06:50Z</time>
      </trkpt>
      <trkpt lat="42.0381000" lon="-6.7899220">
        <ele>1162.4</ele>
        <time>2019-08-16T14:06:52Z</time>
      </trkpt>
      <trkpt lat="42.0380710" lon="-6.7899560">
        <ele>1162.8</ele>
        <time>2019-08-16T14:06:54Z</time>
      </trkpt>
      <trkpt lat="42.0380430" lon="-6.7899900">
        <ele>1163.1</ele>
        <time>2019-08-16T14:06:56Z</time>
      </trkpt>
      <trkpt lat="42.0380150" lon="-6.7900230">
        <ele>1163.4</ele>
        <time>2019-08-16T14:06:58Z</time>
      </trkpt>
      <trkpt lat="42.0379870" lon="-6.7900540">
        <ele>1163.7</ele>
        <time>2019-08-16T14:07:00Z</time>
      </trkpt>
      <trkpt lat="42.0379600" lon="-6.7900850">
        <ele>1163.9</ele>
        <time>2019-08-16T14:07:02Z</time>
      </trkpt>
      <trkpt lat="42.0379330" lon="-6.7901190">
        <ele>1164.1</ele>
        <time>2019-08-16T14:07:04Z</time>
      </trkpt>
      <trkpt lat="42.0379050" lon="-6.7901510">
        <ele>1164.4</ele>
        <time>2019-08-16T14:07:06Z</time>
      </trkpt>
      <trkpt lat="42.0378770" lon="-6.7901860">
        <ele>1164.7</ele>
        <time>2019-08-16T14:07:08Z</time>
      </trkpt>
      <trkpt lat="42.0378480" lon="-6.7902180">
        <ele>1165.0</ele>
        <time>2019-08-16T14:07:10Z</time>
      </trkpt>
      <trkpt lat="42.0378210" lon="-6.7902520">
        <ele>1165.1</ele>
        <time>2019-08-16T14:07:12Z</time>
      </trkpt>
      <trkpt lat="42.0377930" lon="-6.7902880">
        <ele>1165.3</ele>
        <time>2019-08-16T14:07:14Z</time>
      </trkpt>
      <trkpt lat="42.0377630" lon="-6.7903210">
        <ele>1165.4</ele>
        <time>2019-08-16T14:07:16Z</time>
      </trkpt>
      <trkpt lat="42.0377350" lon="-6.7903570">
        <ele>1165.6</ele>
        <time>2019-08-16T14:07:18Z</time>
      </trkpt>
      <trkpt lat="42.0377070" lon="-6.7903910">
        <ele>1165.7</ele>
        <time>2019-08-16T14:07:20Z</time>
      </trkpt>
      <trkpt lat="42.0376790" lon="-6.7904240">
        <ele>1165.8</ele>
        <time>2019-08-16T14:07:22Z</time>
      </trkpt>
      <trkpt lat="42.0376500" lon="-6.7904580">
        <ele>1166.0</ele>
        <time>2019-08-16T14:07:24Z</time>
      </trkpt>
      <trkpt lat="42.0376210" lon="-6.7904930">
        <ele>1166.1</ele>
        <time>2019-08-16T14:07:26Z</time>
      </trkpt>
      <trkpt lat="42.0375910" lon="-6.7905270">
        <ele>1166.3</ele>
        <time>2019-08-16T14:07:28Z</time>
      </trkpt>
      <trkpt lat="42.0375630" lon="-6.7905640">
        <ele>1166.4</ele>
        <time>2019-08-16T14:07:30Z</time>
      </trkpt>
      <trkpt lat="42.0375350" lon="-6.7906010">
        <ele>1166.6</ele>
        <time>2019-08-16T14:07:32Z</time>
      </trkpt>
      <trkpt lat="42.0375060" lon="-6.7906390">
        <ele>1166.8</ele>
        <time>2019-08-16T14:07:34Z</time>
      </trkpt>
      <trkpt lat="42.0374760" lon="-6.7906770">
        <ele>1167.0</ele>
        <time>2019-08-16T14:07:36Z</time>
      </trkpt>
      <trkpt lat="42.0374460" lon="-6.7907130">
        <ele>1167.1</ele>
        <time>2019-08-16T14:07:38Z</time>
      </trkpt>
      <trkpt lat="42.0374170" lon="-6.7907510">
        <ele>1167.3</ele>
        <time>2019-08-16T14:07:40Z</time>
      </trkpt>
      <trkpt lat="42.0373880" lon="-6.7907930">
        <ele>1167.6</ele>
        <time>2019-08-16T14:07:42Z</time>
      </trkpt>
      <trkpt lat="42.0373580" lon="-6.7908330">
        <ele>1167.8</ele>
        <time>2019-08-16T14:07:44Z</time>
      </trkpt>
      <trkpt lat="42.0373300" lon="-6.7908740">
        <ele>1168.0</ele>
        <time>2019-08-16T14:07:46Z</time>
      </trkpt>
      <trkpt lat="42.0373030" lon="-6.7909160">
        <ele>1168.3</ele>
        <time>2019-08-16T14:07:48Z</time>
      </trkpt>
      <trkpt lat="42.0372740" lon="-6.7909580">
        <ele>1168.5</ele>
        <time>2019-08-16T14:07:50Z</time>
      </trkpt>
      <trkpt lat="42.0372460" lon="-6.7910010">
        <ele>1168.7</ele>
        <time>2019-08-16T14:07:52Z</time>
      </trkpt>
      <trkpt lat="42.0372210" lon="-6.7910450">
        <ele>1168.9</ele>
        <time>2019-08-16T14:07:54Z</time>
      </trkpt>
      <trkpt lat="42.0371950" lon="-6.7910890">
        <ele>1169.1</ele>
        <time>2019-08-16T14:07:56Z</time>
      </trkpt>
      <trkpt lat="42.0371690" lon="-6.7911330">
        <ele>1169.3</ele>
        <time>2019-08-16T14:07:58Z</time>
      </trkpt>
      <trkpt lat="42.0371440" lon="-6.7911810">
        <ele>1169.5</ele>
        <time>2019-08-16T14:08:00Z</time>
      </trkpt>
      <trkpt lat="42.0371200" lon="-6.7912280">
        <ele>1169.6</ele>
        <time>2019-08-16T14:08:02Z</time>
      </trkpt>
      <trkpt lat="42.0371000" lon="-6.7912700">
        <ele>1169.8</ele>
        <time>2019-08-16T14:08:04Z</time>
      </trkpt>
      <trkpt lat="42.0370790" lon="-6.7913090">
        <ele>1169.9</ele>
        <time>2019-08-16T14:08:06Z</time>
      </trkpt>
      <trkpt lat="42.0370600" lon="-6.7913550">
        <ele>1170.0</ele>
        <time>2019-08-16T14:08:08Z</time>
      </trkpt>
      <trkpt lat="42.0370380" lon="-6.7913990">
        <ele>1170.2</ele>
        <time>2019-08-16T14:08:10Z</time>
      </trkpt>
      <trkpt lat="42.0370210" lon="-6.7914460">
        <ele>1170.5</ele>
        <time>2019-08-16T14:08:12Z</time>
      </trkpt>
      <trkpt lat="42.0370040" lon="-6.7914940">
        <ele>1170.7</ele>
        <time>2019-08-16T14:08:14Z</time>
      </trkpt>
      <trkpt lat="42.0369830" lon="-6.7915390">
        <ele>1171.0</ele>
        <time>2019-08-16T14:08:16Z</time>
      </trkpt>
      <trkpt lat="42.0369610" lon="-6.7915810">
        <ele>1171.3</ele>
        <time>2019-08-16T14:08:18Z</time>
      </trkpt>
      <trkpt lat="42.0369470" lon="-6.7916290">
        <ele>1171.7</ele>
        <time>2019-08-16T14:08:20Z</time>
      </trkpt>
      <trkpt lat="42.0369330" lon="-6.7916780">
        <ele>1172.1</ele>
        <time>2019-08-16T14:08:22Z</time>
      </trkpt>
      <trkpt lat="42.0369170" lon="-6.7917280">
        <ele>1172.4</ele>
        <time>2019-08-16T14:08:24Z</time>
      </trkpt>
      <trkpt lat="42.0369010" lon="-6.7917760">
        <ele>1172.7</ele>
        <time>2019-08-16T14:08:26Z</time>
      </trkpt>
      <trkpt lat="42.0368850" lon="-6.7918240">
        <ele>1173.1</ele>
        <time>2019-08-16T14:08:28Z</time>
      </trkpt>
      <trkpt lat="42.0368700" lon="-6.7918720">
        <ele>1173.5</ele>
        <time>2019-08-16T14:08:30Z</time>
      </trkpt>
      <trkpt lat="42.0368590" lon="-6.7919230">
        <ele>1174.0</ele>
        <time>2019-08-16T14:08:32Z</time>
      </trkpt>
      <trkpt lat="42.0368460" lon="-6.7919730">
        <ele>1174.2</ele>
        <time>2019-08-16T14:08:34Z</time>
      </trkpt>
      <trkpt lat="42.0368350" lon="-6.7920240">
        <ele>1174.5</ele>
        <time>2019-08-16T14:08:36Z</time>
      </trkpt>
      <trkpt lat="42.0368240" lon="-6.7920760">
        <ele>1174.8</ele>
        <time>2019-08-16T14:08:38Z</time>
      </trkpt>
      <trkpt lat="42.0368120" lon="-6.7921260">
        <ele>1175.0</ele>
        <time>2019-08-16T14:08:40Z</time>
      </trkpt>
      <trkpt lat="42.0367990" lon="-6.7921760">
        <ele>1175.3</ele>
        <time>2019-08-16T14:08:42Z</time>
      </trkpt>
      <trkpt lat="42.0367900" lon="-6.7922280">
        <ele>1175.6</ele>
        <time>2019-08-16T14:08:44Z</time>
      </trkpt>
      <trkpt lat="42.0367850" lon="-6.7922820">
        <ele>1175.8</ele>
        <time>2019-08-16T14:08:46Z</time>
      </trkpt>
      <trkpt lat="42.0367780" lon="-6.7923360">
        <ele>1176.1</ele>
        <time>2019-08-16T14:08:48Z</time>
      </trkpt>
      <trkpt lat="42.0367710" lon="-6.7923900">
        <ele>1176.3</ele>
        <time>2019-08-16T14:08:50Z</time>
      </trkpt>
      <trkpt lat="42.0367650" lon="-6.7924440">
        <ele>1176.5</ele>
        <time>2019-08-16T14:08:52Z</time>
      </trkpt>
      <trkpt lat="42.0367550" lon="-6.7924960">
        <ele>1176.8</ele>
        <time>2019-08-16T14:08:54Z</time>
      </trkpt>
      <trkpt lat="42.0367500" lon="-6.7925510">
        <ele>1177.0</ele>
        <time>2019-08-16T14:08:56Z</time>
      </trkpt>
      <trkpt lat="42.0367470" lon="-6.7926060">
        <ele>1177.2</ele>
        <time>2019-08-16T14:08:58Z</time>
      </trkpt>
      <trkpt lat="42.0367430" lon="-6.7926610">
        <ele>1177.4</ele>
        <time>2019-08-16T14:09:00Z</time>
      </trkpt>
      <trkpt lat="42.0367410" lon="-6.7927160">
        <ele>1177.6</ele>
        <time>2019-08-16T14:09:02Z</time>
      </trkpt>
      <trkpt lat="42.0367420" lon="-6.7927720">
        <ele>1177.8</ele>
        <time>2019-08-16T14:09:04Z</time>
      </trkpt>
      <trkpt lat="42.0367430" lon="-6.7928280">
        <ele>1178.1</ele>
        <time>2019-08-16T14:09:06Z</time>
      </trkpt>
      <trkpt lat="42.0367430" lon="-6.7928840">
        <ele>1178.3</ele>
        <time>2019-08-16T14:09:08Z</time>
      </trkpt>
      <trkpt lat="42.0367450" lon="-6.7929400">
        <ele>1178.5</ele>
        <time>2019-08-16T14:09:10Z</time>
      </trkpt>
      <trkpt lat="42.0367460" lon="-6.7929960">
        <ele>1178.7</ele>
        <time>2019-08-16T14:09:12Z</time>
      </trkpt>
      <trkpt lat="42.0367490" lon="-6.7930530">
        <ele>1178.9</ele>
        <time>2019-08-16T14:09:14Z</time>
      </trkpt>
      <trkpt lat="42.0367500" lon="-6.7931100">
        <ele>1179.1</ele>
        <time>2019-08-16T14:09:16Z</time>
      </trkpt>
      <trkpt lat="42.0367540" lon="-6.7931670">
        <ele>1179.2</ele>
        <time>2019-08-16T14:09:18Z</time>
      </trkpt>
      <trkpt lat="42.0367580" lon="-6.7932250">
        <ele>1179.4</ele>
        <time>2019-08-16T14:09:20Z</time>
      </trkpt>
      <trkpt lat="42.0367640" lon="-6.7932810">
        <ele>1179.6</ele>
        <time>2019-08-16T14:09:22Z</time>
      </trkpt>
      <trkpt lat="42.0367700" lon="-6.7933370">
        <ele>1179.8</ele>
        <time>2019-08-16T14:09:24Z</time>
      </trkpt>
      <trkpt lat="42.0367770" lon="-6.7933950">
        <ele>1180.0</ele>
        <time>2019-08-16T14:09:26Z</time>
      </trkpt>
      <trkpt lat="42.0367850" lon="-6.7934510">
        <ele>1180.2</ele>
        <time>2019-08-16T14:09:28Z</time>
      </trkpt>
      <trkpt lat="42.0367930" lon="-6.7935070">
        <ele>1180.5</ele>
        <time>2019-08-16T14:09:30Z</time>
      </trkpt>
      <trkpt lat="42.0368010" lon="-6.7935630">
        <ele>1180.7</ele>
        <time>2019-08-16T14:09:32Z</time>
      </trkpt>
      <trkpt lat="42.0368120" lon="-6.7936180">
        <ele>1181.0</ele>
        <time>2019-08-16T14:09:34Z</time>
      </trkpt>
      <trkpt lat="42.0368220" lon="-6.7936740">
        <ele>1181.3</ele>
        <time>2019-08-16T14:09:36Z</time>
      </trkpt>
      <trkpt lat="42.0368360" lon="-6.7937280">
        <ele>1181.7</ele>
        <time>2019-08-16T14:09:38Z</time>
      </trkpt>
      <trkpt lat="42.0368500" lon="-6.7937810">
        <ele>1182.0</ele>
        <time>2019-08-16T14:09:40Z</time>
      </trkpt>
      <trkpt lat="42.0368620" lon="-6.7938340">
        <ele>1182.4</ele>
        <time>2019-08-16T14:09:42Z</time>
      </trkpt>
      <trkpt lat="42.0368750" lon="-6.7938870">
        <ele>1182.8</ele>
        <time>2019-08-16T14:09:44Z</time>
      </trkpt>
      <trkpt lat="42.0368890" lon="-6.7939390">
        <ele>1183.3</ele>
        <time>2019-08-16T14:09:46Z</time>
      </trkpt>
      <trkpt lat="42.0369060" lon="-6.7939920">
        <ele>1183.8</ele>
        <time>2019-08-16T14:09:48Z</time>
      </trkpt>
      <trkpt lat="42.0369220" lon="-6.7940450">
        <ele>1184.4</ele>
        <time>2019-08-16T14:09:50Z</time>
      </trkpt>
      <trkpt lat="42.0369360" lon="-6.7940980">
        <ele>1184.7</ele>
        <time>2019-08-16T14:09:52Z</time>
      </trkpt>
      <trkpt lat="42.0369530" lon="-6.7941510">
        <ele>1185.1</ele>
        <time>2019-08-16T14:09:54Z</time>
      </trkpt>
      <trkpt lat="42.0369690" lon="-6.7942020">
        <ele>1185.4</ele>
        <time>2019-08-16T14:09:56Z</time>
      </trkpt>
      <trkpt lat="42.0369860" lon="-6.7942530">
        <ele>1185.7</ele>
        <time>2019-08-16T14:09:58Z</time>
      </trkpt>
      <trkpt lat="42.0370020" lon="-6.7943050">
        <ele>1186.0</ele>
        <time>2019-08-16T14:10:00Z</time>
      </trkpt>
      <trkpt lat="42.0370180" lon="-6.7943560">
        <ele>1186.3</ele>
        <time>2019-08-16T14:10:02Z</time>
      </trkpt>
      <trkpt lat="42.0370350" lon="-6.7944080">
        <ele>1186.7</ele>
        <time>2019-08-16T14:10:04Z</time>
      </trkpt>
      <trkpt lat="42.0370510" lon="-6.7944570">
        <ele>1187.0</ele>
        <time>2019-08-16T14:10:06Z</time>
      </trkpt>
      <trkpt lat="42.0370670" lon="-6.7945060">
        <ele>1187.3</ele>
        <time>2019-08-16T14:10:08Z</time>
      </trkpt>
      <trkpt lat="42.0370860" lon="-6.7945540">
        <ele>1187.6</ele>
        <time>2019-08-16T14:10:10Z</time>
      </trkpt>
      <trkpt lat="42.0371030" lon="-6.7946040">
        <ele>1187.9</ele>
        <time>2019-08-16T14:10:12Z</time>
      </trkpt>
      <trkpt lat="42.0371210" lon="-6.7946520">
        <ele>1188.2</ele>
        <time>2019-08-16T14:10:14Z</time>
      </trkpt>
      <trkpt lat="42.0371380" lon="-6.7947000">
        <ele>1188.5</ele>
        <time>2019-08-16T14:10:16Z</time>
      </trkpt>
      <trkpt lat="42.0371560" lon="-6.7947490">
        <ele>1188.8</ele>
        <time>2019-08-16T14:10:18Z</time>
      </trkpt>
      <trkpt lat="42.0371730" lon="-6.7947990">
        <ele>1189.1</ele>
        <time>2019-08-16T14:10:20Z</time>
      </trkpt>
      <trkpt lat="42.0371910" lon="-6.7948490">
        <ele>1189.5</ele>
        <time>2019-08-16T14:10:22Z</time>
      </trkpt>
      <trkpt lat="42.0372080" lon="-6.7949000">
        <ele>1189.8</ele>
        <time>2019-08-16T14:10:24Z</time>
      </trkpt>
      <trkpt lat="42.0372240" lon="-6.7949500">
        <ele>1190.1</ele>
        <time>2019-08-16T14:10:26Z</time>
      </trkpt>
      <trkpt lat="42.0372430" lon="-6.7949980">
        <ele>1190.3</ele>
        <time>2019-08-16T14:10:28Z</time>
      </trkpt>
      <trkpt lat="42.0372600" lon="-6.7950480">
        <ele>1190.6</ele>
        <time>2019-08-16T14:10:30Z</time>
      </trkpt>
      <trkpt lat="42.0372780" lon="-6.7950990">
        <ele>1190.9</ele>
        <time>2019-08-16T14:10:32Z</time>
      </trkpt>
      <trkpt lat="42.0372980" lon="-6.7951480">
        <ele>1191.2</ele>
        <time>2019-08-16T14:10:34Z</time>
      </trkpt>
      <trkpt lat="42.0373150" lon="-6.7951980">
        <ele>1191.5</ele>
        <time>2019-08-16T14:10:36Z</time>
      </trkpt>
      <trkpt lat="42.0373300" lon="-6.7952470">
        <ele>1191.7</ele>
        <time>2019-08-16T14:10:38Z</time>
      </trkpt>
      <trkpt lat="42.0373450" lon="-6.7952980">
        <ele>1192.0</ele>
        <time>2019-08-16T14:10:40Z</time>
      </trkpt>
      <trkpt lat="42.0373620" lon="-6.7953490">
        <ele>1192.3</ele>
        <time>2019-08-16T14:10:42Z</time>
      </trkpt>
      <trkpt lat="42.0373800" lon="-6.7953990">
        <ele>1192.6</ele>
        <time>2019-08-16T14:10:44Z</time>
      </trkpt>
      <trkpt lat="42.0373970" lon="-6.7954500">
        <ele>1192.8</ele>
        <time>2019-08-16T14:10:46Z</time>
      </trkpt>
      <trkpt lat="42.0374160" lon="-6.7955000">
        <ele>1193.1</ele>
        <time>2019-08-16T14:10:48Z</time>
      </trkpt>
      <trkpt lat="42.0374340" lon="-6.7955500">
        <ele>1193.3</ele>
        <time>2019-08-16T14:10:50Z</time>
      </trkpt>
      <trkpt lat="42.0374530" lon="-6.7956000">
        <ele>1193.5</ele>
        <time>2019-08-16T14:10:52Z</time>
      </trkpt>
      <trkpt lat="42.0374700" lon="-6.7956500">
        <ele>1193.8</ele>
        <time>2019-08-16T14:10:54Z</time>
      </trkpt>
      <trkpt lat="42.0374870" lon="-6.7957010">
        <ele>1194.1</ele>
        <time>2019-08-16T14:10:56Z</time>
      </trkpt>
      <trkpt lat="42.0375050" lon="-6.7957490">
        <ele>1194.4</ele>
        <time>2019-08-16T14:10:58Z</time>
      </trkpt>
      <trkpt lat="42.0375210" lon="-6.7957990">
        <ele>1194.7</ele>
        <time>2019-08-16T14:11:00Z</time>
      </trkpt>
      <trkpt lat="42.0375370" lon="-6.7958510">
        <ele>1195.0</ele>
        <time>2019-08-16T14:11:02Z</time>
      </trkpt>
      <trkpt lat="42.0375540" lon="-6.7959020">
        <ele>1195.3</ele>
        <time>2019-08-16T14:11:04Z</time>
      </trkpt>
      <trkpt lat="42.0375710" lon="-6.7959520">
        <ele>1195.6</ele>
        <time>2019-08-16T14:11:06Z</time>
      </trkpt>
      <trkpt lat="42.0375870" lon="-6.7960030">
        <ele>1195.8</ele>
        <time>2019-08-16T14:11:08Z</time>
      </trkpt>
      <trkpt lat="42.0376060" lon="-6.7960530">
        <ele>1196.0</ele>
        <time>2019-08-16T14:11:10Z</time>
      </trkpt>
      <trkpt lat="42.0376230" lon="-6.7961050">
        <ele>1196.3</ele>
        <time>2019-08-16T14:11:12Z</time>
      </trkpt>
      <trkpt lat="42.0376400" lon="-6.7961580">
        <ele>1196.6</ele>
        <time>2019-08-16T14:11:14Z</time>
      </trkpt>
      <trkpt lat="42.0376570" lon="-6.7962100">
        <ele>1196.9</ele>
        <time>2019-08-16T14:11:16Z</time>
      </trkpt>
      <trkpt lat="42.0376740" lon="-6.7962630">
        <ele>1197.3</ele>
        <time>2019-08-16T14:11:18Z</time>
      </trkpt>
      <trkpt lat="42.0376900" lon="-6.7963170">
        <ele>1197.6</ele>
        <time>2019-08-16T14:11:20Z</time>
      </trkpt>
      <trkpt lat="42.0377060" lon="-6.7963710">
        <ele>1198.0</ele>
        <time>2019-08-16T14:11:22Z</time>
      </trkpt>
      <trkpt lat="42.0377230" lon="-6.7964250">
        <ele>1198.3</ele>
        <time>2019-08-16T14:11:24Z</time>
      </trkpt>
      <trkpt lat="42.0377370" lon="-6.7964790">
        <ele>1198.6</ele>
        <time>2019-08-16T14:11:26Z</time>
      </trkpt>
      <trkpt lat="42.0377520" lon="-6.7965310">
        <ele>1198.9</ele>
        <time>2019-08-16T14:11:28Z</time>
      </trkpt>
      <trkpt lat="42.0377670" lon="-6.7965840">
        <ele>1199.2</ele>
        <time>2019-08-16T14:11:30Z</time>
      </trkpt>
      <trkpt lat="42.0377800" lon="-6.7966360">
        <ele>1199.5</ele>
        <time>2019-08-16T14:11:32Z</time>
      </trkpt>
      <trkpt lat="42.0377930" lon="-6.7966880">
        <ele>1199.8</ele>
        <time>2019-08-16T14:11:34Z</time>
      </trkpt>
      <trkpt lat="42.0378080" lon="-6.7967420">
        <ele>1200.1</ele>
        <time>2019-08-16T14:11:36Z</time>
      </trkpt>
      <trkpt lat="42.0378210" lon="-6.7967990">
        <ele>1200.4</ele>
        <time>2019-08-16T14:11:38Z</time>
      </trkpt>
      <trkpt lat="42.0378320" lon="-6.7968540">
        <ele>1200.7</ele>
        <time>2019-08-16T14:11:40Z</time>
      </trkpt>
      <trkpt lat="42.0378420" lon="-6.7969100">
        <ele>1201.0</ele>
        <time>2019-08-16T14:11:42Z</time>
      </trkpt>
      <trkpt lat="42.0378530" lon="-6.7969640">
        <ele>1201.3</ele>
        <time>2019-08-16T14:11:44Z</time>
      </trkpt>
      <trkpt lat="42.0378640" lon="-6.7970190">
        <ele>1201.6</ele>
        <time>2019-08-16T14:11:46Z</time>
      </trkpt>
      <trkpt lat="42.0378740" lon="-6.7970730">
        <ele>1201.9</ele>
        <time>2019-08-16T14:11:48Z</time>
      </trkpt>
      <trkpt lat="42.0378850" lon="-6.7971280">
        <ele>1202.2</ele>
        <time>2019-08-16T14:11:50Z</time>
      </trkpt>
      <trkpt lat="42.0378940" lon="-6.7971850">
        <ele>1202.5</ele>
        <time>2019-08-16T14:11:52Z</time>
      </trkpt>
      <trkpt lat="42.0379000" lon="-6.7972440">
        <ele>1202.8</ele>
        <time>2019-08-16T14:11:54Z</time>
      </trkpt>
      <trkpt lat="42.0379100" lon="-6.7973010">
        <ele>1203.0</ele>
        <time>2019-08-16T14:11:56Z</time>
      </trkpt>
      <trkpt lat="42.0379180" lon="-6.7973600">
        <ele>1203.4</ele>
        <time>2019-08-16T14:11:58Z</time>
      </trkpt>
      <trkpt lat="42.0379250" lon="-6.7974220">
        <ele>1203.7</ele>
        <time>2019-08-16T14:12:00Z</time>
      </trkpt>
      <trkpt lat="42.0379330" lon="-6.7974820">
        <ele>1204.0</ele>
        <time>2019-08-16T14:12:02Z</time>
      </trkpt>
      <trkpt lat="42.0379360" lon="-6.7975380">
        <ele>1204.4</ele>
        <time>2019-08-16T14:12:04Z</time>
      </trkpt>
      <trkpt lat="42.0379380" lon="-6.7975960">
        <ele>1204.7</ele>
        <time>2019-08-16T14:12:06Z</time>
      </trkpt>
      <trkpt lat="42.0379390" lon="-6.7976530">
        <ele>1205.1</ele>
        <time>2019-08-16T14:12:08Z</time>
      </trkpt>
      <trkpt lat="42.0379400" lon="-6.7977100">
        <ele>1205.4</ele>
        <time>2019-08-16T14:12:10Z</time>
      </trkpt>
      <trkpt lat="42.0379410" lon="-6.7977680">
        <ele>1205.7</ele>
        <time>2019-08-16T14:12:12Z</time>
      </trkpt>
      <trkpt lat="42.0379410" lon="-6.7978250">
        <ele>1206.1</ele>
        <time>2019-08-16T14:12:14Z</time>
      </trkpt>
      <trkpt lat="42.0379380" lon="-6.7978820">
        <ele>1206.4</ele>
        <time>2019-08-16T14:12:16Z</time>
      </trkpt>
      <trkpt lat="42.0379370" lon="-6.7979400">
        <ele>1206.7</ele>
        <time>2019-08-16T14:12:18Z</time>
      </trkpt>
      <trkpt lat="42.0379350" lon="-6.7979990">
        <ele>1207.0</ele>
        <time>2019-08-16T14:12:20Z</time>
      </trkpt>
      <trkpt lat="42.0379320" lon="-6.7980570">
        <ele>1207.3</ele>
        <time>2019-08-16T14:12:22Z</time>
      </trkpt>
      <trkpt lat="42.0379280" lon="-6.7981150">
        <ele>1207.5</ele>
        <time>2019-08-16T14:12:24Z</time>
      </trkpt>
      <trkpt lat="42.0379230" lon="-6.7981710">
        <ele>1207.8</ele>
        <time>2019-08-16T14:12:26Z</time>
      </trkpt>
      <trkpt lat="42.0379170" lon="-6.7982270">
        <ele>1208.1</ele>
        <time>2019-08-16T14:12:28Z</time>
      </trkpt>
      <trkpt lat="42.0379090" lon="-6.7982840">
        <ele>1208.4</ele>
        <time>2019-08-16T14:12:30Z</time>
      </trkpt>
      <trkpt lat="42.0379000" lon="-6.7983410">
        <ele>1208.7</ele>
        <time>2019-08-16T14:12:32Z</time>
      </trkpt>
      <trkpt lat="42.0378910" lon="-6.7984020">
        <ele>1209.1</ele>
        <time>2019-08-16T14:12:34Z</time>
      </trkpt>
      <trkpt lat="42.0378820" lon="-6.7984600">
        <ele>1209.5</ele>
        <time>2019-08-16T14:12:36Z</time>
      </trkpt>
      <trkpt lat="42.0378730" lon="-6.7985150">
        <ele>1209.8</ele>
        <time>2019-08-16T14:12:38Z</time>
      </trkpt>
      <trkpt lat="42.0378630" lon="-6.7985710">
        <ele>1210.1</ele>
        <time>2019-08-16T14:12:40Z</time>
      </trkpt>
      <trkpt lat="42.0378540" lon="-6.7986290">
        <ele>1210.4</ele>
        <time>2019-08-16T14:12:42Z</time>
      </trkpt>
      <trkpt lat="42.0378430" lon="-6.7986850">
        <ele>1210.8</ele>
        <time>2019-08-16T14:12:44Z</time>
      </trkpt>
      <trkpt lat="42.0378330" lon="-6.7987420">
        <ele>1211.5</ele>
        <time>2019-08-16T14:12:46Z</time>
      </trkpt>
      <trkpt lat="42.0378190" lon="-6.7987960">
        <ele>1211.8</ele>
        <time>2019-08-16T14:12:48Z</time>
      </trkpt>
      <trkpt lat="42.0378050" lon="-6.7988540">
        <ele>1212.1</ele>
        <time>2019-08-16T14:12:50Z</time>
      </trkpt>
      <trkpt lat="42.0377920" lon="-6.7989120">
        <ele>1212.3</ele>
        <time>2019-08-16T14:12:52Z</time>
      </trkpt>
      <trkpt lat="42.0377790" lon="-6.7989670">
        <ele>1212.5</ele>
        <time>2019-08-16T14:12:54Z</time>
      </trkpt>
      <trkpt lat="42.0377660" lon="-6.7990250">
        <ele>1212.7</ele>
        <time>2019-08-16T14:12:56Z</time>
      </trkpt>
      <trkpt lat="42.0377510" lon="-6.7990850">
        <ele>1213.0</ele>
        <time>2019-08-16T14:12:58Z</time>
      </trkpt>
      <trkpt lat="42.0377340" lon="-6.7991450">
        <ele>1213.3</ele>
        <time>2019-08-16T14:13:00Z</time>
      </trkpt>
      <trkpt lat="42.0377180" lon="-6.7992060">
        <ele>1213.6</ele>
        <time>2019-08-16T14:13:02Z</time>
      </trkpt>
      <trkpt lat="42.0377010" lon="-6.7992630">
        <ele>1213.9</ele>
        <time>2019-08-16T14:13:04Z</time>
      </trkpt>
      <trkpt lat="42.0376840" lon="-6.7993210">
        <ele>1214.2</ele>
        <time>2019-08-16T14:13:06Z</time>
      </trkpt>
      <trkpt lat="42.0376670" lon="-6.7993790">
        <ele>1214.5</ele>
        <time>2019-08-16T14:13:08Z</time>
      </trkpt>
      <trkpt lat="42.0376520" lon="-6.7994380">
        <ele>1214.9</ele>
        <time>2019-08-16T14:13:10Z</time>
      </trkpt>
      <trkpt lat="42.0376380" lon="-6.7994950">
        <ele>1215.2</ele>
        <time>2019-08-16T14:13:12Z</time>
      </trkpt>
      <trkpt lat="42.0376230" lon="-6.7995530">
        <ele>1215.5</ele>
        <time>2019-08-16T14:13:14Z</time>
      </trkpt>
      <trkpt lat="42.0376050" lon="-6.7996080">
        <ele>1215.8</ele>
        <time>2019-08-16T14:13:16Z</time>
      </trkpt>
      <trkpt lat="42.0375890" lon="-6.7996640">
        <ele>1216.2</ele>
        <time>2019-08-16T14:13:18Z</time>
      </trkpt>
      <trkpt lat="42.0375710" lon="-6.7997200">
        <ele>1216.5</ele>
        <time>2019-08-16T14:13:20Z</time>
      </trkpt>
      <trkpt lat="42.0375520" lon="-6.7997780">
        <ele>1217.0</ele>
        <time>2019-08-16T14:13:22Z</time>
      </trkpt>
      <trkpt lat="42.0375310" lon="-6.7998370">
        <ele>1217.3</ele>
        <time>2019-08-16T14:13:24Z</time>
      </trkpt>
      <trkpt lat="42.0375140" lon="-6.7998960">
        <ele>1217.7</ele>
        <time>2019-08-16T14:13:26Z</time>
      </trkpt>
      <trkpt lat="42.0374980" lon="-6.7999520">
        <ele>1218.1</ele>
        <time>2019-08-16T14:13:28Z</time>
      </trkpt>
      <trkpt lat="42.0374840" lon="-6.8000070">
        <ele>1218.4</ele>
        <time>2019-08-16T14:13:30Z</time>
      </trkpt>
      <trkpt lat="42.0374710" lon="-6.8000610">
        <ele>1218.7</ele>
        <time>2019-08-16T14:13:32Z</time>
      </trkpt>
      <trkpt lat="42.0374560" lon="-6.8001170">
        <ele>1219.0</ele>
        <time>2019-08-16T14:13:34Z</time>
      </trkpt>
      <trkpt lat="42.0374420" lon="-6.8001750">
        <ele>1219.3</ele>
        <time>2019-08-16T14:13:36Z</time>
      </trkpt>
      <trkpt lat="42.0374240" lon="-6.8002330">
        <ele>1219.7</ele>
        <time>2019-08-16T14:13:38Z</time>
      </trkpt>
      <trkpt lat="42.0374070" lon="-6.8002880">
        <ele>1220.0</ele>
        <time>2019-08-16T14:13:40Z</time>
      </trkpt>
      <trkpt lat="42.0373910" lon="-6.8003420">
        <ele>1220.4</ele>
        <time>2019-08-16T14:13:42Z</time>
      </trkpt>
      <trkpt lat="42.0373730" lon="-6.8003960">
        <ele>1220.7</ele>
        <time>2019-08-16T14:13:44Z</time>
      </trkpt>
      <trkpt lat="42.0373570" lon="-6.8004490">
        <ele>1221.1</ele>
        <time>2019-08-16T14:13:46Z</time>
      </trkpt>
      <trkpt lat="42.0373400" lon="-6.8005030">
        <ele>1221.4</ele>
        <time>2019-08-16T14:13:48Z</time>
      </trkpt>
      <trkpt lat="42.0373240" lon="-6.8005600">
        <ele>1221.7</ele>
        <time>2019-08-16T14:13:50Z</time>
      </trkpt>
      <trkpt lat="42.0373060" lon="-6.8006180">
        <ele>1222.1</ele>
        <time>2019-08-16T14:13:52Z</time>
      </trkpt>
      <trkpt lat="42.0372890" lon="-6.8006750">
        <ele>1222.5</ele>
        <time>2019-08-16T14:13:54Z</time>
      </trkpt>
      <trkpt lat="42.0372720" lon="-6.8007350">
        <ele>1222.9</ele>
        <time>2019-08-16T14:13:56Z</time>
      </trkpt>
      <trkpt lat="42.0372560" lon="-6.8007950">
        <ele>1223.3</ele>
        <time>2019-08-16T14:13:58Z</time>
      </trkpt>
      <trkpt lat="42.0372390" lon="-6.8008510">
        <ele>1223.6</ele>
        <time>2019-08-16T14:14:00Z</time>
      </trkpt>
      <trkpt lat="42.0372220" lon="-6.8009100">
        <ele>1223.9</ele>
        <time>2019-08-16T14:14:02Z</time>
      </trkpt>
      <trkpt lat="42.0372060" lon="-6.8009690">
        <ele>1224.2</ele>
        <time>2019-08-16T14:14:04Z</time>
      </trkpt>
      <trkpt lat="42.0371910" lon="-6.8010280">
        <ele>1224.5</ele>
        <time>2019-08-16T14:14:06Z</time>
      </trkpt>
      <trkpt lat="42.0371740" lon="-6.8010870">
        <ele>1224.8</ele>
        <time>2019-08-16T14:14:08Z</time>
      </trkpt>
      <trkpt lat="42.0371560" lon="-6.8011470">
        <ele>1225.1</ele>
        <time>2019-08-16T14:14:10Z</time>
      </trkpt>
      <trkpt lat="42.0371400" lon="-6.8012060">
        <ele>1225.4</ele>
        <time>2019-08-16T14:14:12Z</time>
      </trkpt>
      <trkpt lat="42.0371250" lon="-6.8012660">
        <ele>1225.8</ele>
        <time>2019-08-16T14:14:14Z</time>
      </trkpt>
      <trkpt lat="42.0371090" lon="-6.8013270">
        <ele>1226.1</ele>
        <time>2019-08-16T14:14:16Z</time>
      </trkpt>
      <trkpt lat="42.0370960" lon="-6.8013860">
        <ele>1226.5</ele>
        <time>2019-08-16T14:14:18Z</time>
      </trkpt>
      <trkpt lat="42.0370810" lon="-6.8014450">
        <ele>1226.9</ele>
        <time>2019-08-16T14:14:20Z</time>
      </trkpt>
      <trkpt lat="42.0370670" lon="-6.8015040">
        <ele>1227.3</ele>
        <time>2019-08-16T14:14:22Z</time>
      </trkpt>
      <trkpt lat="42.0370530" lon="-6.8015640">
        <ele>1227.7</ele>
        <time>2019-08-16T14:14:24Z</time>
      </trkpt>
      <trkpt lat="42.0370400" lon="-6.8016260">
        <ele>1228.2</ele>
        <time>2019-08-16T14:14:26Z</time>
      </trkpt>
      <trkpt lat="42.0370260" lon="-6.8016870">
        <ele>1228.5</ele>
        <time>2019-08-16T14:14:28Z</time>
      </trkpt>
      <trkpt lat="42.0370140" lon="-6.8017470">
        <ele>1228.9</ele>
        <time>2019-08-16T14:14:30Z</time>
      </trkpt>
      <trkpt lat="42.0370020" lon="-6.8018100">
        <ele>1229.2</ele>
        <time>2019-08-16T14:14:32Z</time>
      </trkpt>
      <trkpt lat="42.0369910" lon="-6.8018720">
        <ele>1229.6</ele>
        <time>2019-08-16T14:14:34Z</time>
      </trkpt>
      <trkpt lat="42.0369790" lon="-6.8019280">
        <ele>1229.8</ele>
        <time>2019-08-16T14:14:36Z</time>
      </trkpt>
      <trkpt lat="42.0369710" lon="-6.8019820">
        <ele>1230.1</ele>
        <time>2019-08-16T14:14:38Z</time>
      </trkpt>
      <trkpt lat="42.0369640" lon="-6.8020390">
        <ele>1230.4</ele>
        <time>2019-08-16T14:14:40Z</time>
      </trkpt>
      <trkpt lat="42.0369550" lon="-6.8020940">
        <ele>1230.7</ele>
        <time>2019-08-16T14:14:42Z</time>
      </trkpt>
      <trkpt lat="42.0369480" lon="-6.8021500">
        <ele>1230.9</ele>
        <time>2019-08-16T14:14:44Z</time>
      </trkpt>
      <trkpt lat="42.0369430" lon="-6.8022070">
        <ele>1231.2</ele>
        <time>2019-08-16T14:14:46Z</time>
      </trkpt>
      <trkpt lat="42.0369360" lon="-6.8022630">
        <ele>1231.5</ele>
        <time>2019-08-16T14:14:48Z</time>
      </trkpt>
      <trkpt lat="42.0369290" lon="-6.8023200">
        <ele>1231.8</ele>
        <time>2019-08-16T14:14:50Z</time>
      </trkpt>
      <trkpt lat="42.0369230" lon="-6.8023780">
        <ele>1232.1</ele>
        <time>2019-08-16T14:14:52Z</time>
      </trkpt>
      <trkpt lat="42.0369190" lon="-6.8024370">
        <ele>1232.4</ele>
        <time>2019-08-16T14:14:54Z</time>
      </trkpt>
      <trkpt lat="42.0369160" lon="-6.8024960">
        <ele>1232.8</ele>
        <time>2019-08-16T14:14:56Z</time>
      </trkpt>
      <trkpt lat="42.0369120" lon="-6.8025550">
        <ele>1233.2</ele>
        <time>2019-08-16T14:14:58Z</time>
      </trkpt>
      <trkpt lat="42.0369090" lon="-6.8026130">
        <ele>1233.6</ele>
        <time>2019-08-16T14:15:00Z</time>
      </trkpt>
      <trkpt lat="42.0369080" lon="-6.8026730">
        <ele>1234.0</ele>
        <time>2019-08-16T14:15:02Z</time>
      </trkpt>
      <trkpt lat="42.0369070" lon="-6.8027330">
        <ele>1234.4</ele>
        <time>2019-08-16T14:15:04Z</time>
      </trkpt>
      <trkpt lat="42.0369080" lon="-6.8027940">
        <ele>1234.8</ele>
        <time>2019-08-16T14:15:06Z</time>
      </trkpt>
      <trkpt lat="42.0369110" lon="-6.8028540">
        <ele>1235.1</ele>
        <time>2019-08-16T14:15:08Z</time>
      </trkpt>
      <trkpt lat="42.0369130" lon="-6.8029140">
        <ele>1235.4</ele>
        <time>2019-08-16T14:15:10Z</time>
      </trkpt>
      <trkpt lat="42.0369130" lon="-6.8029720">
        <ele>1235.7</ele>
        <time>2019-08-16T14:15:12Z</time>
      </trkpt>
      <trkpt lat="42.0369170" lon="-6.8030330">
        <ele>1236.0</ele>
        <time>2019-08-16T14:15:14Z</time>
      </trkpt>
      <trkpt lat="42.0369220" lon="-6.8030930">
        <ele>1236.3</ele>
        <time>2019-08-16T14:15:16Z</time>
      </trkpt>
      <trkpt lat="42.0369280" lon="-6.8031510">
        <ele>1236.6</ele>
        <time>2019-08-16T14:15:18Z</time>
      </trkpt>
      <trkpt lat="42.0369350" lon="-6.8032070">
        <ele>1237.0</ele>
        <time>2019-08-16T14:15:20Z</time>
      </trkpt>
      <trkpt lat="42.0369400" lon="-6.8032620">
        <ele>1237.3</ele>
        <time>2019-08-16T14:15:22Z</time>
      </trkpt>
      <trkpt lat="42.0369490" lon="-6.8033180">
        <ele>1237.7</ele>
        <time>2019-08-16T14:15:24Z</time>
      </trkpt>
      <trkpt lat="42.0369580" lon="-6.8033750">
        <ele>1238.0</ele>
        <time>2019-08-16T14:15:26Z</time>
      </trkpt>
      <trkpt lat="42.0369660" lon="-6.8034340">
        <ele>1238.4</ele>
        <time>2019-08-16T14:15:28Z</time>
      </trkpt>
      <trkpt lat="42.0369780" lon="-6.8034920">
        <ele>1238.8</ele>
        <time>2019-08-16T14:15:30Z</time>
      </trkpt>
      <trkpt lat="42.0369890" lon="-6.8035480">
        <ele>1239.2</ele>
        <time>2019-08-16T14:15:32Z</time>
      </trkpt>
      <trkpt lat="42.0370000" lon="-6.8036040">
        <ele>1239.6</ele>
        <time>2019-08-16T14:15:34Z</time>
      </trkpt>
      <trkpt lat="42.0370130" lon="-6.8036580">
        <ele>1239.9</ele>
        <time>2019-08-16T14:15:36Z</time>
      </trkpt>
      <trkpt lat="42.0370240" lon="-6.8037120">
        <ele>1240.3</ele>
        <time>2019-08-16T14:15:38Z</time>
      </trkpt>
      <trkpt lat="42.0370340" lon="-6.8037660">
        <ele>1240.5</ele>
        <time>2019-08-16T14:15:40Z</time>
      </trkpt>
      <trkpt lat="42.0370380" lon="-6.8038230">
        <ele>1240.8</ele>
        <time>2019-08-16T14:15:42Z</time>
      </trkpt>
      <trkpt lat="42.0370310" lon="-6.8038790">
        <ele>1241.1</ele>
        <time>2019-08-16T14:15:44Z</time>
      </trkpt>
      <trkpt lat="42.0370230" lon="-6.8039300">
        <ele>1241.5</ele>
        <time>2019-08-16T14:15:46Z</time>
      </trkpt>
      <trkpt lat="42.0370150" lon="-6.8039780">
        <ele>1241.8</ele>
        <time>2019-08-16T14:15:48Z</time>
      </trkpt>
      <trkpt lat="42.0370120" lon="-6.8040220">
        <ele>1242.1</ele>
        <time>2019-08-16T14:15:50Z</time>
      </trkpt>
      <trkpt lat="42.0370070" lon="-6.8040600">
        <ele>1242.4</ele>
        <time>2019-08-16T14:15:52Z</time>
      </trkpt>
      <trkpt lat="42.0369860" lon="-6.8041000">
        <ele>1241.3</ele>
        <time>2019-08-16T14:15:54Z</time>
      </trkpt>
      <trkpt lat="42.0369530" lon="-6.8041430">
        <ele>1240.6</ele>
        <time>2019-08-16T14:15:56Z</time>
      </trkpt>
      <trkpt lat="42.0369240" lon="-6.8042110">
        <ele>1238.9</ele>
        <time>2019-08-16T14:15:58Z</time>
      </trkpt>
      <trkpt lat="42.0369200" lon="-6.8042490">
        <ele>1239.0</ele>
        <time>2019-08-16T14:15:59Z</time>
      </trkpt>
      <trkpt lat="42.0369230" lon="-6.8042800">
        <ele>1239.1</ele>
        <time>2019-08-16T14:16:00Z</time>
      </trkpt>
      <trkpt lat="42.0369370" lon="-6.8043350">
        <ele>1239.4</ele>
        <time>2019-08-16T14:16:02Z</time>
      </trkpt>
      <trkpt lat="42.0369500" lon="-6.8043930">
        <ele>1239.7</ele>
        <time>2019-08-16T14:16:04Z</time>
      </trkpt>
      <trkpt lat="42.0369660" lon="-6.8044480">
        <ele>1239.9</ele>
        <time>2019-08-16T14:16:06Z</time>
      </trkpt>
      <trkpt lat="42.0369830" lon="-6.8045020">
        <ele>1240.2</ele>
        <time>2019-08-16T14:16:08Z</time>
      </trkpt>
      <trkpt lat="42.0369980" lon="-6.8045570">
        <ele>1240.4</ele>
        <time>2019-08-16T14:16:10Z</time>
      </trkpt>
      <trkpt lat="42.0370140" lon="-6.8046090">
        <ele>1240.5</ele>
        <time>2019-08-16T14:16:12Z</time>
      </trkpt>
      <trkpt lat="42.0370320" lon="-6.8046590">
        <ele>1240.7</ele>
        <time>2019-08-16T14:16:14Z</time>
      </trkpt>
      <trkpt lat="42.0370520" lon="-6.8047060">
        <ele>1240.9</ele>
        <time>2019-08-16T14:16:16Z</time>
      </trkpt>
      <trkpt lat="42.0370720" lon="-6.8047560">
        <ele>1241.1</ele>
        <time>2019-08-16T14:16:18Z</time>
      </trkpt>
      <trkpt lat="42.0370940" lon="-6.8048050">
        <ele>1241.4</ele>
        <time>2019-08-16T14:16:20Z</time>
      </trkpt>
      <trkpt lat="42.0371150" lon="-6.8048560">
        <ele>1241.6</ele>
        <time>2019-08-16T14:16:22Z</time>
      </trkpt>
      <trkpt lat="42.0371360" lon="-6.8049090">
        <ele>1241.8</ele>
        <time>2019-08-16T14:16:24Z</time>
      </trkpt>
      <trkpt lat="42.0371590" lon="-6.8049640">
        <ele>1242.0</ele>
        <time>2019-08-16T14:16:26Z</time>
      </trkpt>
      <trkpt lat="42.0371830" lon="-6.8050210">
        <ele>1242.3</ele>
        <time>2019-08-16T14:16:28Z</time>
      </trkpt>
      <trkpt lat="42.0372060" lon="-6.8050770">
        <ele>1242.6</ele>
        <time>2019-08-16T14:16:30Z</time>
      </trkpt>
      <trkpt lat="42.0372250" lon="-6.8051320">
        <ele>1242.9</ele>
        <time>2019-08-16T14:16:32Z</time>
      </trkpt>
      <trkpt lat="42.0372420" lon="-6.8051870">
        <ele>1243.2</ele>
        <time>2019-08-16T14:16:34Z</time>
      </trkpt>
      <trkpt lat="42.0372570" lon="-6.8052410">
        <ele>1243.6</ele>
        <time>2019-08-16T14:16:36Z</time>
      </trkpt>
      <trkpt lat="42.0372710" lon="-6.8052960">
        <ele>1243.9</ele>
        <time>2019-08-16T14:16:38Z</time>
      </trkpt>
      <trkpt lat="42.0372820" lon="-6.8053530">
        <ele>1244.2</ele>
        <time>2019-08-16T14:16:40Z</time>
      </trkpt>
      <trkpt lat="42.0372940" lon="-6.8054110">
        <ele>1244.4</ele>
        <time>2019-08-16T14:16:42Z</time>
      </trkpt>
      <trkpt lat="42.0373040" lon="-6.8054730">
        <ele>1244.6</ele>
        <time>2019-08-16T14:16:44Z</time>
      </trkpt>
      <trkpt lat="42.0373090" lon="-6.8055390">
        <ele>1244.8</ele>
        <time>2019-08-16T14:16:46Z</time>
      </trkpt>
      <trkpt lat="42.0373120" lon="-6.8056050">
        <ele>1245.0</ele>
        <time>2019-08-16T14:16:48Z</time>
      </trkpt>
      <trkpt lat="42.0373150" lon="-6.8056710">
        <ele>1245.2</ele>
        <time>2019-08-16T14:16:50Z</time>
      </trkpt>
      <trkpt lat="42.0373180" lon="-6.8057400">
        <ele>1245.4</ele>
        <time>2019-08-16T14:16:52Z</time>
      </trkpt>
      <trkpt lat="42.0373200" lon="-6.8058060">
        <ele>1245.7</ele>
        <time>2019-08-16T14:16:54Z</time>
      </trkpt>
      <trkpt lat="42.0373230" lon="-6.8058710">
        <ele>1246.0</ele>
        <time>2019-08-16T14:16:56Z</time>
      </trkpt>
      <trkpt lat="42.0373260" lon="-6.8059320">
        <ele>1246.2</ele>
        <time>2019-08-16T14:16:58Z</time>
      </trkpt>
      <trkpt lat="42.0373270" lon="-6.8059920">
        <ele>1246.4</ele>
        <time>2019-08-16T14:17:00Z</time>
      </trkpt>
      <trkpt lat="42.0373320" lon="-6.8060540">
        <ele>1246.6</ele>
        <time>2019-08-16T14:17:02Z</time>
      </trkpt>
      <trkpt lat="42.0373470" lon="-6.8061130">
        <ele>1246.7</ele>
        <time>2019-08-16T14:17:04Z</time>
      </trkpt>
      <trkpt lat="42.0373650" lon="-6.8061720">
        <ele>1246.9</ele>
        <time>2019-08-16T14:17:06Z</time>
      </trkpt>
      <trkpt lat="42.0373830" lon="-6.8062290">
        <ele>1247.1</ele>
        <time>2019-08-16T14:17:08Z</time>
      </trkpt>
      <trkpt lat="42.0374050" lon="-6.8062810">
        <ele>1247.2</ele>
        <time>2019-08-16T14:17:10Z</time>
      </trkpt>
      <trkpt lat="42.0374340" lon="-6.8063280">
        <ele>1247.4</ele>
        <time>2019-08-16T14:17:12Z</time>
      </trkpt>
      <trkpt lat="42.0374650" lon="-6.8063710">
        <ele>1247.7</ele>
        <time>2019-08-16T14:17:14Z</time>
      </trkpt>
      <trkpt lat="42.0374970" lon="-6.8064120">
        <ele>1247.9</ele>
        <time>2019-08-16T14:17:16Z</time>
      </trkpt>
      <trkpt lat="42.0375300" lon="-6.8064520">
        <ele>1248.2</ele>
        <time>2019-08-16T14:17:18Z</time>
      </trkpt>
      <trkpt lat="42.0375600" lon="-6.8064950">
        <ele>1248.4</ele>
        <time>2019-08-16T14:17:20Z</time>
      </trkpt>
      <trkpt lat="42.0375860" lon="-6.8065360">
        <ele>1248.6</ele>
        <time>2019-08-16T14:17:22Z</time>
      </trkpt>
      <trkpt lat="42.0375910" lon="-6.8065530">
        <ele>1248.6</ele>
        <time>2019-08-16T14:17:24Z</time>
      </trkpt>
      <trkpt lat="42.0376630" lon="-6.8066170">
        <ele>1249.0</ele>
        <time>2019-08-16T14:19:44Z</time>
      </trkpt>
      <trkpt lat="42.0376900" lon="-6.8066400">
        <ele>1249.1</ele>
        <time>2019-08-16T14:19:47Z</time>
      </trkpt>
      <trkpt lat="42.0377050" lon="-6.8066570">
        <ele>1249.2</ele>
        <time>2019-08-16T14:19:50Z</time>
      </trkpt>
      <trkpt lat="42.0377950" lon="-6.8066490">
        <ele>1249.5</ele>
        <time>2019-08-16T14:20:15Z</time>
      </trkpt>
      <trkpt lat="42.0378280" lon="-6.8066800">
        <ele>1249.6</ele>
        <time>2019-08-16T14:20:17Z</time>
      </trkpt>
      <trkpt lat="42.0378630" lon="-6.8067100">
        <ele>1249.7</ele>
        <time>2019-08-16T14:20:19Z</time>
      </trkpt>
      <trkpt lat="42.0378950" lon="-6.8067410">
        <ele>1249.8</ele>
        <time>2019-08-16T14:20:21Z</time>
      </trkpt>
      <trkpt lat="42.0379320" lon="-6.8067730">
        <ele>1249.8</ele>
        <time>2019-08-16T14:20:23Z</time>
      </trkpt>
      <trkpt lat="42.0379670" lon="-6.8068040">
        <ele>1249.8</ele>
        <time>2019-08-16T14:20:25Z</time>
      </trkpt>
      <trkpt lat="42.0379990" lon="-6.8068360">
        <ele>1249.8</ele>
        <time>2019-08-16T14:20:27Z</time>
      </trkpt>
      <trkpt lat="42.0380300" lon="-6.8068700">
        <ele>1249.7</ele>
        <time>2019-08-16T14:20:29Z</time>
      </trkpt>
      <trkpt lat="42.0380660" lon="-6.8069040">
        <ele>1249.7</ele>
        <time>2019-08-16T14:20:31Z</time>
      </trkpt>
      <trkpt lat="42.0381040" lon="-6.8069360">
        <ele>1249.6</ele>
        <time>2019-08-16T14:20:33Z</time>
      </trkpt>
      <trkpt lat="42.0381430" lon="-6.8069690">
        <ele>1249.5</ele>
        <time>2019-08-16T14:20:35Z</time>
      </trkpt>
      <trkpt lat="42.0381810" lon="-6.8070040">
        <ele>1249.3</ele>
        <time>2019-08-16T14:20:37Z</time>
      </trkpt>
      <trkpt lat="42.0382170" lon="-6.8070400">
        <ele>1249.1</ele>
        <time>2019-08-16T14:20:39Z</time>
      </trkpt>
      <trkpt lat="42.0382550" lon="-6.8070780">
        <ele>1248.8</ele>
        <time>2019-08-16T14:20:41Z</time>
      </trkpt>
      <trkpt lat="42.0382950" lon="-6.8071130">
        <ele>1248.5</ele>
        <time>2019-08-16T14:20:43Z</time>
      </trkpt>
      <trkpt lat="42.0383360" lon="-6.8071450">
        <ele>1248.2</ele>
        <time>2019-08-16T14:20:45Z</time>
      </trkpt>
      <trkpt lat="42.0383750" lon="-6.8071800">
        <ele>1247.9</ele>
        <time>2019-08-16T14:20:47Z</time>
      </trkpt>
      <trkpt lat="42.0384080" lon="-6.8072180">
        <ele>1247.6</ele>
        <time>2019-08-16T14:20:49Z</time>
      </trkpt>
      <trkpt lat="42.0384290" lon="-6.8072530">
        <ele>1247.5</ele>
        <time>2019-08-16T14:20:51Z</time>
      </trkpt>
      <trkpt lat="42.0384510" lon="-6.8072780">
        <ele>1247.3</ele>
        <time>2019-08-16T14:20:57Z</time>
      </trkpt>
      <trkpt lat="42.0384730" lon="-6.8073010">
        <ele>1247.2</ele>
        <time>2019-08-16T14:21:00Z</time>
      </trkpt>
      <trkpt lat="42.0384930" lon="-6.8073310">
        <ele>1247.1</ele>
        <time>2019-08-16T14:21:03Z</time>
      </trkpt>
      <trkpt lat="42.0385160" lon="-6.8073500">
        <ele>1248.2</ele>
        <time>2019-08-16T14:21:06Z</time>
      </trkpt>
      <trkpt lat="42.0385490" lon="-6.8073730">
        <ele>1249.7</ele>
        <time>2019-08-16T14:21:10Z</time>
      </trkpt>
      <trkpt lat="42.0385750" lon="-6.8073820">
        <ele>1251.8</ele>
        <time>2019-08-16T14:21:13Z</time>
      </trkpt>
      <trkpt lat="42.0386040" lon="-6.8073680">
        <ele>1253.9</ele>
        <time>2019-08-16T14:21:17Z</time>
      </trkpt>
      <trkpt lat="42.0386220" lon="-6.8073540">
        <ele>1256.3</ele>
        <time>2019-08-16T14:21:22Z</time>
      </trkpt>
      <trkpt lat="42.0387110" lon="-6.8073170">
        <ele>1259.5</ele>
        <time>2019-08-16T14:21:37Z</time>
      </trkpt>
      <trkpt lat="42.0387470" lon="-6.8073280">
        <ele>1261.7</ele>
        <time>2019-08-16T14:21:43Z</time>
      </trkpt>
      <trkpt lat="42.0387750" lon="-6.8073220">
        <ele>1261.8</ele>
        <time>2019-08-16T14:21:45Z</time>
      </trkpt>
      <trkpt lat="42.0388010" lon="-6.8073210">
        <ele>1262.0</ele>
        <time>2019-08-16T14:21:47Z</time>
      </trkpt>
      <trkpt lat="42.0388240" lon="-6.8073250">
        <ele>1262.1</ele>
        <time>2019-08-16T14:21:50Z</time>
      </trkpt>
      <trkpt lat="42.0388500" lon="-6.8073560">
        <ele>1262.3</ele>
        <time>2019-08-16T14:21:55Z</time>
      </trkpt>
      <trkpt lat="42.0388640" lon="-6.8074030">
        <ele>1262.6</ele>
        <time>2019-08-16T14:21:57Z</time>
      </trkpt>
      <trkpt lat="42.0388870" lon="-6.8074520">
        <ele>1262.8</ele>
        <time>2019-08-16T14:21:59Z</time>
      </trkpt>
      <trkpt lat="42.0389080" lon="-6.8075040">
        <ele>1263.1</ele>
        <time>2019-08-16T14:22:01Z</time>
      </trkpt>
      <trkpt lat="42.0389270" lon="-6.8075590">
        <ele>1263.4</ele>
        <time>2019-08-16T14:22:03Z</time>
      </trkpt>
      <trkpt lat="42.0389440" lon="-6.8076140">
        <ele>1263.6</ele>
        <time>2019-08-16T14:22:05Z</time>
      </trkpt>
      <trkpt lat="42.0389610" lon="-6.8076690">
        <ele>1263.9</ele>
        <time>2019-08-16T14:22:07Z</time>
      </trkpt>
      <trkpt lat="42.0389780" lon="-6.8077230">
        <ele>1264.5</ele>
        <time>2019-08-16T14:22:09Z</time>
      </trkpt>
      <trkpt lat="42.0389930" lon="-6.8077800">
        <ele>1264.0</ele>
        <time>2019-08-16T14:22:11Z</time>
      </trkpt>
      <trkpt lat="42.0390080" lon="-6.8078380">
        <ele>1263.6</ele>
        <time>2019-08-16T14:22:13Z</time>
      </trkpt>
      <trkpt lat="42.0390230" lon="-6.8078960">
        <ele>1263.1</ele>
        <time>2019-08-16T14:22:15Z</time>
      </trkpt>
      <trkpt lat="42.0390360" lon="-6.8079560">
        <ele>1262.6</ele>
        <time>2019-08-16T14:22:17Z</time>
      </trkpt>
      <trkpt lat="42.0390460" lon="-6.8080180">
        <ele>1262.1</ele>
        <time>2019-08-16T14:22:19Z</time>
      </trkpt>
      <trkpt lat="42.0390540" lon="-6.8080810">
        <ele>1261.6</ele>
        <time>2019-08-16T14:22:21Z</time>
      </trkpt>
      <trkpt lat="42.0390620" lon="-6.8081450">
        <ele>1261.1</ele>
        <time>2019-08-16T14:22:23Z</time>
      </trkpt>
      <trkpt lat="42.0390720" lon="-6.8082120">
        <ele>1260.6</ele>
        <time>2019-08-16T14:22:25Z</time>
      </trkpt>
      <trkpt lat="42.0390800" lon="-6.8082800">
        <ele>1260.0</ele>
        <time>2019-08-16T14:22:27Z</time>
      </trkpt>
      <trkpt lat="42.0390850" lon="-6.8083490">
        <ele>1259.1</ele>
        <time>2019-08-16T14:22:29Z</time>
      </trkpt>
      <trkpt lat="42.0390900" lon="-6.8084200">
        <ele>1259.3</ele>
        <time>2019-08-16T14:22:31Z</time>
      </trkpt>
      <trkpt lat="42.0390950" lon="-6.8084930">
        <ele>1259.5</ele>
        <time>2019-08-16T14:22:33Z</time>
      </trkpt>
      <trkpt lat="42.0390980" lon="-6.8085300">
        <ele>1259.7</ele>
        <time>2019-08-16T14:22:34Z</time>
      </trkpt>
      <trkpt lat="42.0391000" lon="-6.8085670">
        <ele>1259.8</ele>
        <time>2019-08-16T14:22:35Z</time>
      </trkpt>
      <trkpt lat="42.0391010" lon="-6.8086040">
        <ele>1259.9</ele>
        <time>2019-08-16T14:22:36Z</time>
      </trkpt>
      <trkpt lat="42.0391020" lon="-6.8086400">
        <ele>1260.0</ele>
        <time>2019-08-16T14:22:37Z</time>
      </trkpt>
      <trkpt lat="42.0391030" lon="-6.8086770">
        <ele>1260.1</ele>
        <time>2019-08-16T14:22:38Z</time>
      </trkpt>
      <trkpt lat="42.0391020" lon="-6.8087140">
        <ele>1260.3</ele>
        <time>2019-08-16T14:22:39Z</time>
      </trkpt>
      <trkpt lat="42.0391020" lon="-6.8087530">
        <ele>1260.4</ele>
        <time>2019-08-16T14:22:40Z</time>
      </trkpt>
      <trkpt lat="42.0391030" lon="-6.8087910">
        <ele>1260.5</ele>
        <time>2019-08-16T14:22:41Z</time>
      </trkpt>
      <trkpt lat="42.0391050" lon="-6.8088300">
        <ele>1260.6</ele>
        <time>2019-08-16T14:22:42Z</time>
      </trkpt>
      <trkpt lat="42.0391050" lon="-6.8088680">
        <ele>1260.8</ele>
        <time>2019-08-16T14:22:43Z</time>
      </trkpt>
      <trkpt lat="42.0391040" lon="-6.8089060">
        <ele>1260.9</ele>
        <time>2019-08-16T14:22:44Z</time>
      </trkpt>
      <trkpt lat="42.0391020" lon="-6.8089430">
        <ele>1261.0</ele>
        <time>2019-08-16T14:22:45Z</time>
      </trkpt>
      <trkpt lat="42.0391000" lon="-6.8089800">
        <ele>1261.2</ele>
        <time>2019-08-16T14:22:46Z</time>
      </trkpt>
      <trkpt lat="42.0390970" lon="-6.8090170">
        <ele>1261.3</ele>
        <time>2019-08-16T14:22:47Z</time>
      </trkpt>
      <trkpt lat="42.0390910" lon="-6.8090530">
        <ele>1261.4</ele>
        <time>2019-08-16T14:22:48Z</time>
      </trkpt>
      <trkpt lat="42.0390860" lon="-6.8090910">
        <ele>1261.5</ele>
        <time>2019-08-16T14:22:49Z</time>
      </trkpt>
      <trkpt lat="42.0390830" lon="-6.8091270">
        <ele>1261.7</ele>
        <time>2019-08-16T14:22:50Z</time>
      </trkpt>
      <trkpt lat="42.0390790" lon="-6.8091630">
        <ele>1261.8</ele>
        <time>2019-08-16T14:22:51Z</time>
      </trkpt>
      <trkpt lat="42.0390710" lon="-6.8092320">
        <ele>1262.0</ele>
        <time>2019-08-16T14:22:53Z</time>
      </trkpt>
      <trkpt lat="42.0390630" lon="-6.8093030">
        <ele>1262.3</ele>
        <time>2019-08-16T14:22:55Z</time>
      </trkpt>
      <trkpt lat="42.0390590" lon="-6.8093400">
        <ele>1262.4</ele>
        <time>2019-08-16T14:22:56Z</time>
      </trkpt>
      <trkpt lat="42.0390540" lon="-6.8093760">
        <ele>1262.5</ele>
        <time>2019-08-16T14:22:57Z</time>
      </trkpt>
      <trkpt lat="42.0390490" lon="-6.8094130">
        <ele>1262.6</ele>
        <time>2019-08-16T14:22:58Z</time>
      </trkpt>
      <trkpt lat="42.0390440" lon="-6.8094510">
        <ele>1262.8</ele>
        <time>2019-08-16T14:22:59Z</time>
      </trkpt>
      <trkpt lat="42.0390380" lon="-6.8094890">
        <ele>1262.9</ele>
        <time>2019-08-16T14:23:00Z</time>
      </trkpt>
      <trkpt lat="42.0390300" lon="-6.8095260">
        <ele>1263.0</ele>
        <time>2019-08-16T14:23:01Z</time>
      </trkpt>
      <trkpt lat="42.0390220" lon="-6.8095640">
        <ele>1263.2</ele>
        <time>2019-08-16T14:23:02Z</time>
      </trkpt>
      <trkpt lat="42.0390150" lon="-6.8096030">
        <ele>1263.3</ele>
        <time>2019-08-16T14:23:03Z</time>
      </trkpt>
      <trkpt lat="42.0390070" lon="-6.8096410">
        <ele>1263.5</ele>
        <time>2019-08-16T14:23:04Z</time>
      </trkpt>
      <trkpt lat="42.0389980" lon="-6.8096800">
        <ele>1263.6</ele>
        <time>2019-08-16T14:23:05Z</time>
      </trkpt>
      <trkpt lat="42.0389900" lon="-6.8097180">
        <ele>1263.8</ele>
        <time>2019-08-16T14:23:06Z</time>
      </trkpt>
      <trkpt lat="42.0389810" lon="-6.8097570">
        <ele>1263.9</ele>
        <time>2019-08-16T14:23:07Z</time>
      </trkpt>
      <trkpt lat="42.0389710" lon="-6.8097950">
        <ele>1264.1</ele>
        <time>2019-08-16T14:23:08Z</time>
      </trkpt>
      <trkpt lat="42.0389600" lon="-6.8098330">
        <ele>1264.2</ele>
        <time>2019-08-16T14:23:09Z</time>
      </trkpt>
      <trkpt lat="42.0389490" lon="-6.8098710">
        <ele>1264.4</ele>
        <time>2019-08-16T14:23:10Z</time>
      </trkpt>
      <trkpt lat="42.0389380" lon="-6.8099080">
        <ele>1264.5</ele>
        <time>2019-08-16T14:23:11Z</time>
      </trkpt>
      <trkpt lat="42.0389260" lon="-6.8099440">
        <ele>1264.6</ele>
        <time>2019-08-16T14:23:12Z</time>
      </trkpt>
      <trkpt lat="42.0389140" lon="-6.8099800">
        <ele>1264.8</ele>
        <time>2019-08-16T14:23:13Z</time>
      </trkpt>
      <trkpt lat="42.0389020" lon="-6.8100170">
        <ele>1264.9</ele>
        <time>2019-08-16T14:23:14Z</time>
      </trkpt>
      <trkpt lat="42.0388900" lon="-6.8100540">
        <ele>1265.1</ele>
        <time>2019-08-16T14:23:15Z</time>
      </trkpt>
      <trkpt lat="42.0388760" lon="-6.8100910">
        <ele>1265.2</ele>
        <time>2019-08-16T14:23:16Z</time>
      </trkpt>
      <trkpt lat="42.0388630" lon="-6.8101290">
        <ele>1265.3</ele>
        <time>2019-08-16T14:23:17Z</time>
      </trkpt>
      <trkpt lat="42.0388490" lon="-6.8101650">
        <ele>1265.5</ele>
        <time>2019-08-16T14:23:18Z</time>
      </trkpt>
      <trkpt lat="42.0388340" lon="-6.8102020">
        <ele>1265.6</ele>
        <time>2019-08-16T14:23:19Z</time>
      </trkpt>
      <trkpt lat="42.0388200" lon="-6.8102380">
        <ele>1265.7</ele>
        <time>2019-08-16T14:23:20Z</time>
      </trkpt>
      <trkpt lat="42.0388050" lon="-6.8102740">
        <ele>1265.9</ele>
        <time>2019-08-16T14:23:21Z</time>
      </trkpt>
      <trkpt lat="42.0387900" lon="-6.8103100">
        <ele>1266.0</ele>
        <time>2019-08-16T14:23:22Z</time>
      </trkpt>
      <trkpt lat="42.0387740" lon="-6.8103450">
        <ele>1266.1</ele>
        <time>2019-08-16T14:23:23Z</time>
      </trkpt>
      <trkpt lat="42.0387570" lon="-6.8103790">
        <ele>1266.3</ele>
        <time>2019-08-16T14:23:24Z</time>
      </trkpt>
      <trkpt lat="42.0387390" lon="-6.8104120">
        <ele>1266.4</ele>
        <time>2019-08-16T14:23:25Z</time>
      </trkpt>
      <trkpt lat="42.0387230" lon="-6.8104470">
        <ele>1266.5</ele>
        <time>2019-08-16T14:23:26Z</time>
      </trkpt>
      <trkpt lat="42.0387060" lon="-6.8104810">
        <ele>1266.7</ele>
        <time>2019-08-16T14:23:27Z</time>
      </trkpt>
      <trkpt lat="42.0386890" lon="-6.8105150">
        <ele>1266.8</ele>
        <time>2019-08-16T14:23:28Z</time>
      </trkpt>
      <trkpt lat="42.0386710" lon="-6.8105500">
        <ele>1267.0</ele>
        <time>2019-08-16T14:23:29Z</time>
      </trkpt>
      <trkpt lat="42.0386540" lon="-6.8105840">
        <ele>1267.1</ele>
        <time>2019-08-16T14:23:30Z</time>
      </trkpt>
      <trkpt lat="42.0386360" lon="-6.8106180">
        <ele>1267.3</ele>
        <time>2019-08-16T14:23:31Z</time>
      </trkpt>
      <trkpt lat="42.0386180" lon="-6.8106520">
        <ele>1267.4</ele>
        <time>2019-08-16T14:23:32Z</time>
      </trkpt>
      <trkpt lat="42.0386000" lon="-6.8106850">
        <ele>1267.6</ele>
        <time>2019-08-16T14:23:33Z</time>
      </trkpt>
      <trkpt lat="42.0385810" lon="-6.8107160">
        <ele>1267.7</ele>
        <time>2019-08-16T14:23:34Z</time>
      </trkpt>
      <trkpt lat="42.0385610" lon="-6.8107460">
        <ele>1267.8</ele>
        <time>2019-08-16T14:23:35Z</time>
      </trkpt>
      <trkpt lat="42.0385420" lon="-6.8107750">
        <ele>1268.0</ele>
        <time>2019-08-16T14:23:36Z</time>
      </trkpt>
      <trkpt lat="42.0385220" lon="-6.8108050">
        <ele>1268.1</ele>
        <time>2019-08-16T14:23:37Z</time>
      </trkpt>
      <trkpt lat="42.0385020" lon="-6.8108340">
        <ele>1268.3</ele>
        <time>2019-08-16T14:23:38Z</time>
      </trkpt>
      <trkpt lat="42.0384810" lon="-6.8108620">
        <ele>1268.4</ele>
        <time>2019-08-16T14:23:39Z</time>
      </trkpt>
      <trkpt lat="42.0384610" lon="-6.8108910">
        <ele>1268.5</ele>
        <time>2019-08-16T14:23:40Z</time>
      </trkpt>
      <trkpt lat="42.0384400" lon="-6.8109190">
        <ele>1268.6</ele>
        <time>2019-08-16T14:23:41Z</time>
      </trkpt>
      <trkpt lat="42.0384200" lon="-6.8109460">
        <ele>1268.8</ele>
        <time>2019-08-16T14:23:42Z</time>
      </trkpt>
      <trkpt lat="42.0383990" lon="-6.8109730">
        <ele>1268.9</ele>
        <time>2019-08-16T14:23:43Z</time>
      </trkpt>
      <trkpt lat="42.0383780" lon="-6.8110000">
        <ele>1269.0</ele>
        <time>2019-08-16T14:23:44Z</time>
      </trkpt>
      <trkpt lat="42.0383560" lon="-6.8110270">
        <ele>1269.1</ele>
        <time>2019-08-16T14:23:45Z</time>
      </trkpt>
      <trkpt lat="42.0383340" lon="-6.8110550">
        <ele>1269.3</ele>
        <time>2019-08-16T14:23:46Z</time>
      </trkpt>
      <trkpt lat="42.0383120" lon="-6.8110820">
        <ele>1269.4</ele>
        <time>2019-08-16T14:23:47Z</time>
      </trkpt>
      <trkpt lat="42.0382890" lon="-6.8111090">
        <ele>1269.5</ele>
        <time>2019-08-16T14:23:48Z</time>
      </trkpt>
      <trkpt lat="42.0382650" lon="-6.8111360">
        <ele>1269.6</ele>
        <time>2019-08-16T14:23:49Z</time>
      </trkpt>
      <trkpt lat="42.0382410" lon="-6.8111610">
        <ele>1269.7</ele>
        <time>2019-08-16T14:23:50Z</time>
      </trkpt>
      <trkpt lat="42.0382170" lon="-6.8111870">
        <ele>1269.9</ele>
        <time>2019-08-16T14:23:51Z</time>
      </trkpt>
      <trkpt lat="42.0381920" lon="-6.8112110">
        <ele>1270.0</ele>
        <time>2019-08-16T14:23:52Z</time>
      </trkpt>
      <trkpt lat="42.0381690" lon="-6.8112340">
        <ele>1270.1</ele>
        <time>2019-08-16T14:23:53Z</time>
      </trkpt>
      <trkpt lat="42.0381460" lon="-6.8112540">
        <ele>1270.2</ele>
        <time>2019-08-16T14:23:54Z</time>
      </trkpt>
      <trkpt lat="42.0381210" lon="-6.8112750">
        <ele>1270.3</ele>
        <time>2019-08-16T14:23:55Z</time>
      </trkpt>
      <trkpt lat="42.0380960" lon="-6.8112980">
        <ele>1270.4</ele>
        <time>2019-08-16T14:23:56Z</time>
      </trkpt>
      <trkpt lat="42.0380720" lon="-6.8113220">
        <ele>1270.6</ele>
        <time>2019-08-16T14:23:57Z</time>
      </trkpt>
      <trkpt lat="42.0380460" lon="-6.8113460">
        <ele>1270.7</ele>
        <time>2019-08-16T14:23:58Z</time>
      </trkpt>
      <trkpt lat="42.0380200" lon="-6.8113690">
        <ele>1270.8</ele>
        <time>2019-08-16T14:23:59Z</time>
      </trkpt>
      <trkpt lat="42.0379940" lon="-6.8113910">
        <ele>1271.0</ele>
        <time>2019-08-16T14:24:00Z</time>
      </trkpt>
      <trkpt lat="42.0379670" lon="-6.8114120">
        <ele>1271.1</ele>
        <time>2019-08-16T14:24:01Z</time>
      </trkpt>
      <trkpt lat="42.0379410" lon="-6.8114330">
        <ele>1271.3</ele>
        <time>2019-08-16T14:24:02Z</time>
      </trkpt>
      <trkpt lat="42.0379150" lon="-6.8114530">
        <ele>1271.4</ele>
        <time>2019-08-16T14:24:03Z</time>
      </trkpt>
      <trkpt lat="42.0378890" lon="-6.8114730">
        <ele>1271.5</ele>
        <time>2019-08-16T14:24:04Z</time>
      </trkpt>
      <trkpt lat="42.0378610" lon="-6.8114920">
        <ele>1271.7</ele>
        <time>2019-08-16T14:24:05Z</time>
      </trkpt>
      <trkpt lat="42.0378330" lon="-6.8115100">
        <ele>1271.8</ele>
        <time>2019-08-16T14:24:06Z</time>
      </trkpt>
      <trkpt lat="42.0378050" lon="-6.8115290">
        <ele>1272.0</ele>
        <time>2019-08-16T14:24:07Z</time>
      </trkpt>
      <trkpt lat="42.0377770" lon="-6.8115460">
        <ele>1272.1</ele>
        <time>2019-08-16T14:24:08Z</time>
      </trkpt>
      <trkpt lat="42.0377480" lon="-6.8115640">
        <ele>1272.3</ele>
        <time>2019-08-16T14:24:09Z</time>
      </trkpt>
      <trkpt lat="42.0377200" lon="-6.8115810">
        <ele>1272.4</ele>
        <time>2019-08-16T14:24:10Z</time>
      </trkpt>
      <trkpt lat="42.0376920" lon="-6.8115980">
        <ele>1272.6</ele>
        <time>2019-08-16T14:24:11Z</time>
      </trkpt>
      <trkpt lat="42.0376630" lon="-6.8116140">
        <ele>1272.7</ele>
        <time>2019-08-16T14:24:12Z</time>
      </trkpt>
      <trkpt lat="42.0376330" lon="-6.8116300">
        <ele>1272.9</ele>
        <time>2019-08-16T14:24:13Z</time>
      </trkpt>
      <trkpt lat="42.0376040" lon="-6.8116440">
        <ele>1273.6</ele>
        <time>2019-08-16T14:24:14Z</time>
      </trkpt>
      <trkpt lat="42.0375760" lon="-6.8116590">
        <ele>1273.9</ele>
        <time>2019-08-16T14:24:15Z</time>
      </trkpt>
      <trkpt lat="42.0375480" lon="-6.8116740">
        <ele>1274.3</ele>
        <time>2019-08-16T14:24:16Z</time>
      </trkpt>
      <trkpt lat="42.0375210" lon="-6.8116880">
        <ele>1274.6</ele>
        <time>2019-08-16T14:24:17Z</time>
      </trkpt>
      <trkpt lat="42.0374940" lon="-6.8117020">
        <ele>1274.9</ele>
        <time>2019-08-16T14:24:18Z</time>
      </trkpt>
      <trkpt lat="42.0374680" lon="-6.8117150">
        <ele>1275.1</ele>
        <time>2019-08-16T14:24:19Z</time>
      </trkpt>
      <trkpt lat="42.0374420" lon="-6.8117260">
        <ele>1275.4</ele>
        <time>2019-08-16T14:24:20Z</time>
      </trkpt>
      <trkpt lat="42.0374160" lon="-6.8117360">
        <ele>1275.6</ele>
        <time>2019-08-16T14:24:21Z</time>
      </trkpt>
      <trkpt lat="42.0373900" lon="-6.8117470">
        <ele>1275.8</ele>
        <time>2019-08-16T14:24:22Z</time>
      </trkpt>
      <trkpt lat="42.0373380" lon="-6.8117670">
        <ele>1276.3</ele>
        <time>2019-08-16T14:24:24Z</time>
      </trkpt>
      <trkpt lat="42.0372870" lon="-6.8117840">
        <ele>1276.8</ele>
        <time>2019-08-16T14:24:26Z</time>
      </trkpt>
      <trkpt lat="42.0372350" lon="-6.8117970">
        <ele>1277.2</ele>
        <time>2019-08-16T14:24:28Z</time>
      </trkpt>
      <trkpt lat="42.0371830" lon="-6.8118100">
        <ele>1277.7</ele>
        <time>2019-08-16T14:24:30Z</time>
      </trkpt>
      <trkpt lat="42.0371300" lon="-6.8118220">
        <ele>1278.1</ele>
        <time>2019-08-16T14:24:32Z</time>
      </trkpt>
      <trkpt lat="42.0370760" lon="-6.8118340">
        <ele>1278.6</ele>
        <time>2019-08-16T14:24:34Z</time>
      </trkpt>
      <trkpt lat="42.0370490" lon="-6.8118380">
        <ele>1278.9</ele>
        <time>2019-08-16T14:24:35Z</time>
      </trkpt>
      <trkpt lat="42.0370220" lon="-6.8118410">
        <ele>1279.2</ele>
        <time>2019-08-16T14:24:36Z</time>
      </trkpt>
      <trkpt lat="42.0369950" lon="-6.8118430">
        <ele>1279.5</ele>
        <time>2019-08-16T14:24:37Z</time>
      </trkpt>
      <trkpt lat="42.0369680" lon="-6.8118440">
        <ele>1279.8</ele>
        <time>2019-08-16T14:24:38Z</time>
      </trkpt>
      <trkpt lat="42.0369410" lon="-6.8118450">
        <ele>1280.2</ele>
        <time>2019-08-16T14:24:39Z</time>
      </trkpt>
      <trkpt lat="42.0368890" lon="-6.8118440">
        <ele>1280.6</ele>
        <time>2019-08-16T14:24:41Z</time>
      </trkpt>
      <trkpt lat="42.0368370" lon="-6.8118450">
        <ele>1281.0</ele>
        <time>2019-08-16T14:24:43Z</time>
      </trkpt>
      <trkpt lat="42.0367870" lon="-6.8118400">
        <ele>1281.4</ele>
        <time>2019-08-16T14:24:45Z</time>
      </trkpt>
      <trkpt lat="42.0367370" lon="-6.8118350">
        <ele>1281.8</ele>
        <time>2019-08-16T14:24:47Z</time>
      </trkpt>
      <trkpt lat="42.0366860" lon="-6.8118370">
        <ele>1282.3</ele>
        <time>2019-08-16T14:24:49Z</time>
      </trkpt>
      <trkpt lat="42.0366370" lon="-6.8118330">
        <ele>1282.7</ele>
        <time>2019-08-16T14:24:51Z</time>
      </trkpt>
      <trkpt lat="42.0365840" lon="-6.8118320">
        <ele>1283.1</ele>
        <time>2019-08-16T14:24:53Z</time>
      </trkpt>
      <trkpt lat="42.0365330" lon="-6.8118300">
        <ele>1283.6</ele>
        <time>2019-08-16T14:24:55Z</time>
      </trkpt>
      <trkpt lat="42.0364820" lon="-6.8118270">
        <ele>1284.0</ele>
        <time>2019-08-16T14:24:57Z</time>
      </trkpt>
      <trkpt lat="42.0364320" lon="-6.8118260">
        <ele>1284.5</ele>
        <time>2019-08-16T14:24:59Z</time>
      </trkpt>
      <trkpt lat="42.0363820" lon="-6.8118230">
        <ele>1284.9</ele>
        <time>2019-08-16T14:25:01Z</time>
      </trkpt>
      <trkpt lat="42.0363330" lon="-6.8118180">
        <ele>1285.3</ele>
        <time>2019-08-16T14:25:03Z</time>
      </trkpt>
      <trkpt lat="42.0362850" lon="-6.8118110">
        <ele>1285.8</ele>
        <time>2019-08-16T14:25:05Z</time>
      </trkpt>
      <trkpt lat="42.0362340" lon="-6.8118110">
        <ele>1286.2</ele>
        <time>2019-08-16T14:25:07Z</time>
      </trkpt>
      <trkpt lat="42.0361840" lon="-6.8118110">
        <ele>1286.7</ele>
        <time>2019-08-16T14:25:09Z</time>
      </trkpt>
      <trkpt lat="42.0361330" lon="-6.8118130">
        <ele>1287.0</ele>
        <time>2019-08-16T14:25:11Z</time>
      </trkpt>
      <trkpt lat="42.0360830" lon="-6.8118110">
        <ele>1287.4</ele>
        <time>2019-08-16T14:25:13Z</time>
      </trkpt>
      <trkpt lat="42.0360350" lon="-6.8118080">
        <ele>1287.7</ele>
        <time>2019-08-16T14:25:15Z</time>
      </trkpt>
      <trkpt lat="42.0359860" lon="-6.8118110">
        <ele>1288.1</ele>
        <time>2019-08-16T14:25:17Z</time>
      </trkpt>
      <trkpt lat="42.0359390" lon="-6.8118120">
        <ele>1288.5</ele>
        <time>2019-08-16T14:25:19Z</time>
      </trkpt>
      <trkpt lat="42.0358910" lon="-6.8118150">
        <ele>1288.9</ele>
        <time>2019-08-16T14:25:21Z</time>
      </trkpt>
      <trkpt lat="42.0358450" lon="-6.8118160">
        <ele>1289.3</ele>
        <time>2019-08-16T14:25:23Z</time>
      </trkpt>
      <trkpt lat="42.0358010" lon="-6.8118130">
        <ele>1289.7</ele>
        <time>2019-08-16T14:25:25Z</time>
      </trkpt>
      <trkpt lat="42.0357590" lon="-6.8118210">
        <ele>1290.1</ele>
        <time>2019-08-16T14:25:27Z</time>
      </trkpt>
      <trkpt lat="42.0357140" lon="-6.8118240">
        <ele>1290.5</ele>
        <time>2019-08-16T14:25:29Z</time>
      </trkpt>
      <trkpt lat="42.0356710" lon="-6.8118270">
        <ele>1290.9</ele>
        <time>2019-08-16T14:25:31Z</time>
      </trkpt>
      <trkpt lat="42.0356270" lon="-6.8118360">
        <ele>1291.3</ele>
        <time>2019-08-16T14:25:33Z</time>
      </trkpt>
      <trkpt lat="42.0355830" lon="-6.8118450">
        <ele>1291.7</ele>
        <time>2019-08-16T14:25:35Z</time>
      </trkpt>
      <trkpt lat="42.0355390" lon="-6.8118530">
        <ele>1292.1</ele>
        <time>2019-08-16T14:25:37Z</time>
      </trkpt>
      <trkpt lat="42.0354950" lon="-6.8118650">
        <ele>1292.7</ele>
        <time>2019-08-16T14:25:39Z</time>
      </trkpt>
      <trkpt lat="42.0354520" lon="-6.8118780">
        <ele>1293.2</ele>
        <time>2019-08-16T14:25:41Z</time>
      </trkpt>
      <trkpt lat="42.0354080" lon="-6.8118910">
        <ele>1293.6</ele>
        <time>2019-08-16T14:25:43Z</time>
      </trkpt>
      <trkpt lat="42.0353640" lon="-6.8119060">
        <ele>1294.1</ele>
        <time>2019-08-16T14:25:45Z</time>
      </trkpt>
      <trkpt lat="42.0353210" lon="-6.8119250">
        <ele>1294.6</ele>
        <time>2019-08-16T14:25:47Z</time>
      </trkpt>
      <trkpt lat="42.0352790" lon="-6.8119420">
        <ele>1295.2</ele>
        <time>2019-08-16T14:25:49Z</time>
      </trkpt>
      <trkpt lat="42.0352370" lon="-6.8119550">
        <ele>1295.7</ele>
        <time>2019-08-16T14:25:51Z</time>
      </trkpt>
      <trkpt lat="42.0351940" lon="-6.8119710">
        <ele>1296.3</ele>
        <time>2019-08-16T14:25:53Z</time>
      </trkpt>
      <trkpt lat="42.0351520" lon="-6.8119930">
        <ele>1296.7</ele>
        <time>2019-08-16T14:25:55Z</time>
      </trkpt>
      <trkpt lat="42.0351090" lon="-6.8120140">
        <ele>1297.1</ele>
        <time>2019-08-16T14:25:57Z</time>
      </trkpt>
      <trkpt lat="42.0350670" lon="-6.8120370">
        <ele>1297.5</ele>
        <time>2019-08-16T14:25:59Z</time>
      </trkpt>
      <trkpt lat="42.0350240" lon="-6.8120590">
        <ele>1298.0</ele>
        <time>2019-08-16T14:26:01Z</time>
      </trkpt>
      <trkpt lat="42.0349840" lon="-6.8120820">
        <ele>1298.4</ele>
        <time>2019-08-16T14:26:03Z</time>
      </trkpt>
      <trkpt lat="42.0349430" lon="-6.8121050">
        <ele>1298.8</ele>
        <time>2019-08-16T14:26:05Z</time>
      </trkpt>
      <trkpt lat="42.0349040" lon="-6.8121330">
        <ele>1299.2</ele>
        <time>2019-08-16T14:26:07Z</time>
      </trkpt>
      <trkpt lat="42.0348640" lon="-6.8121590">
        <ele>1299.7</ele>
        <time>2019-08-16T14:26:09Z</time>
      </trkpt>
      <trkpt lat="42.0348250" lon="-6.8121890">
        <ele>1300.1</ele>
        <time>2019-08-16T14:26:11Z</time>
      </trkpt>
      <trkpt lat="42.0347860" lon="-6.8122180">
        <ele>1300.6</ele>
        <time>2019-08-16T14:26:13Z</time>
      </trkpt>
      <trkpt lat="42.0347470" lon="-6.8122450">
        <ele>1301.0</ele>
        <time>2019-08-16T14:26:15Z</time>
      </trkpt>
      <trkpt lat="42.0347090" lon="-6.8122760">
        <ele>1301.4</ele>
        <time>2019-08-16T14:26:17Z</time>
      </trkpt>
      <trkpt lat="42.0346720" lon="-6.8123090">
        <ele>1301.8</ele>
        <time>2019-08-16T14:26:19Z</time>
      </trkpt>
      <trkpt lat="42.0346360" lon="-6.8123420">
        <ele>1302.2</ele>
        <time>2019-08-16T14:26:21Z</time>
      </trkpt>
      <trkpt lat="42.0346010" lon="-6.8123760">
        <ele>1302.6</ele>
        <time>2019-08-16T14:26:23Z</time>
      </trkpt>
      <trkpt lat="42.0345640" lon="-6.8124070">
        <ele>1303.0</ele>
        <time>2019-08-16T14:26:25Z</time>
      </trkpt>
      <trkpt lat="42.0345280" lon="-6.8124430">
        <ele>1303.4</ele>
        <time>2019-08-16T14:26:27Z</time>
      </trkpt>
      <trkpt lat="42.0344930" lon="-6.8124820">
        <ele>1303.8</ele>
        <time>2019-08-16T14:26:29Z</time>
      </trkpt>
      <trkpt lat="42.0344580" lon="-6.8125220">
        <ele>1304.2</ele>
        <time>2019-08-16T14:26:31Z</time>
      </trkpt>
      <trkpt lat="42.0344240" lon="-6.8125610">
        <ele>1304.5</ele>
        <time>2019-08-16T14:26:33Z</time>
      </trkpt>
      <trkpt lat="42.0343890" lon="-6.8126020">
        <ele>1304.8</ele>
        <time>2019-08-16T14:26:35Z</time>
      </trkpt>
      <trkpt lat="42.0343560" lon="-6.8126460">
        <ele>1305.2</ele>
        <time>2019-08-16T14:26:37Z</time>
      </trkpt>
      <trkpt lat="42.0343240" lon="-6.8126880">
        <ele>1305.6</ele>
        <time>2019-08-16T14:26:39Z</time>
      </trkpt>
      <trkpt lat="42.0342910" lon="-6.8127290">
        <ele>1306.0</ele>
        <time>2019-08-16T14:26:41Z</time>
      </trkpt>
      <trkpt lat="42.0342600" lon="-6.8127720">
        <ele>1306.4</ele>
        <time>2019-08-16T14:26:43Z</time>
      </trkpt>
      <trkpt lat="42.0342290" lon="-6.8128140">
        <ele>1306.8</ele>
        <time>2019-08-16T14:26:45Z</time>
      </trkpt>
      <trkpt lat="42.0341990" lon="-6.8128570">
        <ele>1307.1</ele>
        <time>2019-08-16T14:26:47Z</time>
      </trkpt>
      <trkpt lat="42.0341690" lon="-6.8129030">
        <ele>1307.5</ele>
        <time>2019-08-16T14:26:49Z</time>
      </trkpt>
      <trkpt lat="42.0341410" lon="-6.8129490">
        <ele>1307.8</ele>
        <time>2019-08-16T14:26:51Z</time>
      </trkpt>
      <trkpt lat="42.0341120" lon="-6.8129930">
        <ele>1308.1</ele>
        <time>2019-08-16T14:26:53Z</time>
      </trkpt>
      <trkpt lat="42.0340840" lon="-6.8130420">
        <ele>1308.5</ele>
        <time>2019-08-16T14:26:55Z</time>
      </trkpt>
      <trkpt lat="42.0340540" lon="-6.8130920">
        <ele>1308.9</ele>
        <time>2019-08-16T14:26:57Z</time>
      </trkpt>
      <trkpt lat="42.0340290" lon="-6.8131450">
        <ele>1309.2</ele>
        <time>2019-08-16T14:26:59Z</time>
      </trkpt>
      <trkpt lat="42.0340040" lon="-6.8131960">
        <ele>1309.6</ele>
        <time>2019-08-16T14:27:01Z</time>
      </trkpt>
      <trkpt lat="42.0339780" lon="-6.8132450">
        <ele>1309.9</ele>
        <time>2019-08-16T14:27:03Z</time>
      </trkpt>
      <trkpt lat="42.0339540" lon="-6.8132980">
        <ele>1310.3</ele>
        <time>2019-08-16T14:27:05Z</time>
      </trkpt>
      <trkpt lat="42.0339300" lon="-6.8133520">
        <ele>1310.6</ele>
        <time>2019-08-16T14:27:07Z</time>
      </trkpt>
      <trkpt lat="42.0339070" lon="-6.8134060">
        <ele>1311.0</ele>
        <time>2019-08-16T14:27:09Z</time>
      </trkpt>
      <trkpt lat="42.0338860" lon="-6.8134580">
        <ele>1311.3</ele>
        <time>2019-08-16T14:27:11Z</time>
      </trkpt>
      <trkpt lat="42.0338670" lon="-6.8135070">
        <ele>1311.7</ele>
        <time>2019-08-16T14:27:13Z</time>
      </trkpt>
      <trkpt lat="42.0338470" lon="-6.8135560">
        <ele>1312.0</ele>
        <time>2019-08-16T14:27:15Z</time>
      </trkpt>
      <trkpt lat="42.0338270" lon="-6.8136080">
        <ele>1312.3</ele>
        <time>2019-08-16T14:27:17Z</time>
      </trkpt>
      <trkpt lat="42.0338070" lon="-6.8136620">
        <ele>1312.7</ele>
        <time>2019-08-16T14:27:19Z</time>
      </trkpt>
      <trkpt lat="42.0337900" lon="-6.8137180">
        <ele>1314.4</ele>
        <time>2019-08-16T14:27:21Z</time>
      </trkpt>
      <trkpt lat="42.0337740" lon="-6.8137740">
        <ele>1315.1</ele>
        <time>2019-08-16T14:27:23Z</time>
      </trkpt>
      <trkpt lat="42.0337590" lon="-6.8138280">
        <ele>1315.8</ele>
        <time>2019-08-16T14:27:25Z</time>
      </trkpt>
      <trkpt lat="42.0337450" lon="-6.8138810">
        <ele>1316.5</ele>
        <time>2019-08-16T14:27:27Z</time>
      </trkpt>
      <trkpt lat="42.0337300" lon="-6.8139310">
        <ele>1317.2</ele>
        <time>2019-08-16T14:27:29Z</time>
      </trkpt>
      <trkpt lat="42.0337160" lon="-6.8139780">
        <ele>1317.8</ele>
        <time>2019-08-16T14:27:31Z</time>
      </trkpt>
      <trkpt lat="42.0337010" lon="-6.8140290">
        <ele>1318.5</ele>
        <time>2019-08-16T14:27:33Z</time>
      </trkpt>
      <trkpt lat="42.0336890" lon="-6.8140840">
        <ele>1319.2</ele>
        <time>2019-08-16T14:27:35Z</time>
      </trkpt>
      <trkpt lat="42.0336790" lon="-6.8141440">
        <ele>1319.9</ele>
        <time>2019-08-16T14:27:37Z</time>
      </trkpt>
      <trkpt lat="42.0336700" lon="-6.8142030">
        <ele>1320.6</ele>
        <time>2019-08-16T14:27:39Z</time>
      </trkpt>
      <trkpt lat="42.0336620" lon="-6.8142610">
        <ele>1321.3</ele>
        <time>2019-08-16T14:27:41Z</time>
      </trkpt>
      <trkpt lat="42.0336540" lon="-6.8143190">
        <ele>1322.0</ele>
        <time>2019-08-16T14:27:43Z</time>
      </trkpt>
      <trkpt lat="42.0336440" lon="-6.8143780">
        <ele>1322.7</ele>
        <time>2019-08-16T14:27:45Z</time>
      </trkpt>
      <trkpt lat="42.0336370" lon="-6.8144390">
        <ele>1323.5</ele>
        <time>2019-08-16T14:27:47Z</time>
      </trkpt>
      <trkpt lat="42.0336300" lon="-6.8145010">
        <ele>1324.2</ele>
        <time>2019-08-16T14:27:49Z</time>
      </trkpt>
      <trkpt lat="42.0336260" lon="-6.8145640">
        <ele>1324.8</ele>
        <time>2019-08-16T14:27:51Z</time>
      </trkpt>
      <trkpt lat="42.0336220" lon="-6.8146260">
        <ele>1325.4</ele>
        <time>2019-08-16T14:27:53Z</time>
      </trkpt>
      <trkpt lat="42.0336190" lon="-6.8146870">
        <ele>1326.1</ele>
        <time>2019-08-16T14:27:55Z</time>
      </trkpt>
      <trkpt lat="42.0336150" lon="-6.8147510">
        <ele>1326.8</ele>
        <time>2019-08-16T14:27:57Z</time>
      </trkpt>
      <trkpt lat="42.0336130" lon="-6.8148160">
        <ele>1327.5</ele>
        <time>2019-08-16T14:27:59Z</time>
      </trkpt>
      <trkpt lat="42.0336120" lon="-6.8148820">
        <ele>1328.1</ele>
        <time>2019-08-16T14:28:01Z</time>
      </trkpt>
      <trkpt lat="42.0336110" lon="-6.8149440">
        <ele>1328.7</ele>
        <time>2019-08-16T14:28:03Z</time>
      </trkpt>
      <trkpt lat="42.0336080" lon="-6.8150080">
        <ele>1329.2</ele>
        <time>2019-08-16T14:28:05Z</time>
      </trkpt>
      <trkpt lat="42.0336090" lon="-6.8150790">
        <ele>1329.7</ele>
        <time>2019-08-16T14:28:07Z</time>
      </trkpt>
      <trkpt lat="42.0336100" lon="-6.8151150">
        <ele>1330.0</ele>
        <time>2019-08-16T14:28:08Z</time>
      </trkpt>
      <trkpt lat="42.0336110" lon="-6.8151520">
        <ele>1330.2</ele>
        <time>2019-08-16T14:28:09Z</time>
      </trkpt>
      <trkpt lat="42.0336100" lon="-6.8151890">
        <ele>1330.4</ele>
        <time>2019-08-16T14:28:10Z</time>
      </trkpt>
      <trkpt lat="42.0336100" lon="-6.8152260">
        <ele>1330.6</ele>
        <time>2019-08-16T14:28:11Z</time>
      </trkpt>
      <trkpt lat="42.0336120" lon="-6.8152640">
        <ele>1330.8</ele>
        <time>2019-08-16T14:28:12Z</time>
      </trkpt>
      <trkpt lat="42.0336170" lon="-6.8153030">
        <ele>1331.0</ele>
        <time>2019-08-16T14:28:13Z</time>
      </trkpt>
      <trkpt lat="42.0336190" lon="-6.8153400">
        <ele>1331.2</ele>
        <time>2019-08-16T14:28:14Z</time>
      </trkpt>
      <trkpt lat="42.0336210" lon="-6.8153770">
        <ele>1331.4</ele>
        <time>2019-08-16T14:28:15Z</time>
      </trkpt>
      <trkpt lat="42.0336240" lon="-6.8154130">
        <ele>1331.6</ele>
        <time>2019-08-16T14:28:16Z</time>
      </trkpt>
      <trkpt lat="42.0336280" lon="-6.8154830">
        <ele>1331.9</ele>
        <time>2019-08-16T14:28:18Z</time>
      </trkpt>
      <trkpt lat="42.0336310" lon="-6.8155520">
        <ele>1332.2</ele>
        <time>2019-08-16T14:28:20Z</time>
      </trkpt>
      <trkpt lat="42.0336350" lon="-6.8156240">
        <ele>1332.5</ele>
        <time>2019-08-16T14:28:22Z</time>
      </trkpt>
      <trkpt lat="42.0336380" lon="-6.8156950">
        <ele>1332.8</ele>
        <time>2019-08-16T14:28:24Z</time>
      </trkpt>
      <trkpt lat="42.0336410" lon="-6.8157670">
        <ele>1333.2</ele>
        <time>2019-08-16T14:28:26Z</time>
      </trkpt>
      <trkpt lat="42.0336420" lon="-6.8158040">
        <ele>1333.3</ele>
        <time>2019-08-16T14:28:27Z</time>
      </trkpt>
      <trkpt lat="42.0336430" lon="-6.8158400">
        <ele>1333.5</ele>
        <time>2019-08-16T14:28:28Z</time>
      </trkpt>
      <trkpt lat="42.0336460" lon="-6.8159190">
        <ele>1333.9</ele>
        <time>2019-08-16T14:28:30Z</time>
      </trkpt>
      <trkpt lat="42.0336470" lon="-6.8159560">
        <ele>1334.0</ele>
        <time>2019-08-16T14:28:31Z</time>
      </trkpt>
      <trkpt lat="42.0336470" lon="-6.8159930">
        <ele>1334.2</ele>
        <time>2019-08-16T14:28:32Z</time>
      </trkpt>
      <trkpt lat="42.0336470" lon="-6.8160300">
        <ele>1334.4</ele>
        <time>2019-08-16T14:28:33Z</time>
      </trkpt>
      <trkpt lat="42.0336490" lon="-6.8160680">
        <ele>1334.6</ele>
        <time>2019-08-16T14:28:34Z</time>
      </trkpt>
      <trkpt lat="42.0336510" lon="-6.8161060">
        <ele>1334.8</ele>
        <time>2019-08-16T14:28:35Z</time>
      </trkpt>
      <trkpt lat="42.0336530" lon="-6.8161420">
        <ele>1335.0</ele>
        <time>2019-08-16T14:28:36Z</time>
      </trkpt>
      <trkpt lat="42.0336560" lon="-6.8162120">
        <ele>1335.5</ele>
        <time>2019-08-16T14:28:38Z</time>
      </trkpt>
      <trkpt lat="42.0336580" lon="-6.8162810">
        <ele>1336.0</ele>
        <time>2019-08-16T14:28:40Z</time>
      </trkpt>
      <trkpt lat="42.0336630" lon="-6.8163470">
        <ele>1336.6</ele>
        <time>2019-08-16T14:28:42Z</time>
      </trkpt>
      <trkpt lat="42.0336660" lon="-6.8164180">
        <ele>1337.3</ele>
        <time>2019-08-16T14:28:44Z</time>
      </trkpt>
      <trkpt lat="42.0336670" lon="-6.8164900">
        <ele>1338.0</ele>
        <time>2019-08-16T14:28:46Z</time>
      </trkpt>
      <trkpt lat="42.0336680" lon="-6.8165260">
        <ele>1338.4</ele>
        <time>2019-08-16T14:28:47Z</time>
      </trkpt>
      <trkpt lat="42.0336710" lon="-6.8165620">
        <ele>1338.8</ele>
        <time>2019-08-16T14:28:48Z</time>
      </trkpt>
      <trkpt lat="42.0336750" lon="-6.8166350">
        <ele>1339.7</ele>
        <time>2019-08-16T14:28:50Z</time>
      </trkpt>
      <trkpt lat="42.0336770" lon="-6.8166700">
        <ele>1340.1</ele>
        <time>2019-08-16T14:28:51Z</time>
      </trkpt>
      <trkpt lat="42.0336830" lon="-6.8167260">
        <ele>1340.0</ele>
        <time>2019-08-16T14:28:53Z</time>
      </trkpt>
      <trkpt lat="42.0336930" lon="-6.8167690">
        <ele>1340.0</ele>
        <time>2019-08-16T14:28:55Z</time>
      </trkpt>
      <trkpt lat="42.0337050" lon="-6.8168090">
        <ele>1339.9</ele>
        <time>2019-08-16T14:28:57Z</time>
      </trkpt>
      <trkpt lat="42.0337180" lon="-6.8168480">
        <ele>1339.9</ele>
        <time>2019-08-16T14:28:59Z</time>
      </trkpt>
      <trkpt lat="42.0337320" lon="-6.8168920">
        <ele>1339.8</ele>
        <time>2019-08-16T14:29:01Z</time>
      </trkpt>
      <trkpt lat="42.0337450" lon="-6.8169350">
        <ele>1339.8</ele>
        <time>2019-08-16T14:29:03Z</time>
      </trkpt>
      <trkpt lat="42.0339960" lon="-6.8218710">
        <ele>1339.4</ele>
        <time>2019-08-16T14:30:35Z</time>
      </trkpt>
      <trkpt lat="42.0339750" lon="-6.8220480">
        <ele>1338.4</ele>
        <time>2019-08-16T14:30:38Z</time>
      </trkpt>
      <trkpt lat="42.0339870" lon="-6.8221130">
        <ele>1338.0</ele>
        <time>2019-08-16T14:30:39Z</time>
      </trkpt>
      <trkpt lat="42.0339940" lon="-6.8221680">
        <ele>1337.7</ele>
        <time>2019-08-16T14:30:40Z</time>
      </trkpt>
      <trkpt lat="42.0339960" lon="-6.8222270">
        <ele>1337.3</ele>
        <time>2019-08-16T14:30:41Z</time>
      </trkpt>
      <trkpt lat="42.0339890" lon="-6.8222800">
        <ele>1337.0</ele>
        <time>2019-08-16T14:30:42Z</time>
      </trkpt>
      <trkpt lat="42.0339870" lon="-6.8223350">
        <ele>1336.7</ele>
        <time>2019-08-16T14:30:43Z</time>
      </trkpt>
      <trkpt lat="42.0339920" lon="-6.8223910">
        <ele>1336.4</ele>
        <time>2019-08-16T14:30:44Z</time>
      </trkpt>
      <trkpt lat="42.0339940" lon="-6.8224490">
        <ele>1336.1</ele>
        <time>2019-08-16T14:30:45Z</time>
      </trkpt>
      <trkpt lat="42.0339970" lon="-6.8225090">
        <ele>1335.8</ele>
        <time>2019-08-16T14:30:46Z</time>
      </trkpt>
      <trkpt lat="42.0339970" lon="-6.8225680">
        <ele>1335.5</ele>
        <time>2019-08-16T14:30:47Z</time>
      </trkpt>
      <trkpt lat="42.0339980" lon="-6.8226310">
        <ele>1335.1</ele>
        <time>2019-08-16T14:30:48Z</time>
      </trkpt>
      <trkpt lat="42.0339980" lon="-6.8226920">
        <ele>1334.8</ele>
        <time>2019-08-16T14:30:49Z</time>
      </trkpt>
      <trkpt lat="42.0339980" lon="-6.8227540">
        <ele>1334.4</ele>
        <time>2019-08-16T14:30:50Z</time>
      </trkpt>
      <trkpt lat="42.0339990" lon="-6.8228180">
        <ele>1334.0</ele>
        <time>2019-08-16T14:30:51Z</time>
      </trkpt>
      <trkpt lat="42.0339950" lon="-6.8228810">
        <ele>1333.7</ele>
        <time>2019-08-16T14:30:52Z</time>
      </trkpt>
      <trkpt lat="42.0339950" lon="-6.8229470">
        <ele>1333.3</ele>
        <time>2019-08-16T14:30:53Z</time>
      </trkpt>
      <trkpt lat="42.0339990" lon="-6.8230120">
        <ele>1332.9</ele>
        <time>2019-08-16T14:30:54Z</time>
      </trkpt>
      <trkpt lat="42.0340000" lon="-6.8230730">
        <ele>1332.6</ele>
        <time>2019-08-16T14:30:55Z</time>
      </trkpt>
      <trkpt lat="42.0339970" lon="-6.8231320">
        <ele>1332.2</ele>
        <time>2019-08-16T14:30:56Z</time>
      </trkpt>
      <trkpt lat="42.0339940" lon="-6.8231860">
        <ele>1331.9</ele>
        <time>2019-08-16T14:30:57Z</time>
      </trkpt>
      <trkpt lat="42.0339910" lon="-6.8232390">
        <ele>1331.6</ele>
        <time>2019-08-16T14:30:58Z</time>
      </trkpt>
      <trkpt lat="42.0339870" lon="-6.8232900">
        <ele>1331.3</ele>
        <time>2019-08-16T14:30:59Z</time>
      </trkpt>
      <trkpt lat="42.0339820" lon="-6.8233400">
        <ele>1331.0</ele>
        <time>2019-08-16T14:31:00Z</time>
      </trkpt>
      <trkpt lat="42.0339780" lon="-6.8233900">
        <ele>1330.7</ele>
        <time>2019-08-16T14:31:01Z</time>
      </trkpt>
      <trkpt lat="42.0339730" lon="-6.8234370">
        <ele>1330.6</ele>
        <time>2019-08-16T14:31:02Z</time>
      </trkpt>
      <trkpt lat="42.0339680" lon="-6.8234830">
        <ele>1330.4</ele>
        <time>2019-08-16T14:31:03Z</time>
      </trkpt>
      <trkpt lat="42.0339600" lon="-6.8235290">
        <ele>1330.3</ele>
        <time>2019-08-16T14:31:04Z</time>
      </trkpt>
      <trkpt lat="42.0339490" lon="-6.8235800">
        <ele>1330.2</ele>
        <time>2019-08-16T14:31:05Z</time>
      </trkpt>
      <trkpt lat="42.0339400" lon="-6.8236330">
        <ele>1330.1</ele>
        <time>2019-08-16T14:31:06Z</time>
      </trkpt>
      <trkpt lat="42.0339300" lon="-6.8236870">
        <ele>1330.1</ele>
        <time>2019-08-16T14:31:07Z</time>
      </trkpt>
      <trkpt lat="42.0339200" lon="-6.8237440">
        <ele>1330.0</ele>
        <time>2019-08-16T14:31:08Z</time>
      </trkpt>
      <trkpt lat="42.0339070" lon="-6.8238030">
        <ele>1329.9</ele>
        <time>2019-08-16T14:31:09Z</time>
      </trkpt>
      <trkpt lat="42.0338920" lon="-6.8238610">
        <ele>1329.8</ele>
        <time>2019-08-16T14:31:10Z</time>
      </trkpt>
      <trkpt lat="42.0338770" lon="-6.8239220">
        <ele>1329.8</ele>
        <time>2019-08-16T14:31:11Z</time>
      </trkpt>
      <trkpt lat="42.0338620" lon="-6.8239840">
        <ele>1329.7</ele>
        <time>2019-08-16T14:31:12Z</time>
      </trkpt>
      <trkpt lat="42.0338440" lon="-6.8240450">
        <ele>1329.6</ele>
        <time>2019-08-16T14:31:13Z</time>
      </trkpt>
      <trkpt lat="42.0338260" lon="-6.8241070">
        <ele>1329.5</ele>
        <time>2019-08-16T14:31:14Z</time>
      </trkpt>
      <trkpt lat="42.0338080" lon="-6.8241670">
        <ele>1329.4</ele>
        <time>2019-08-16T14:31:15Z</time>
      </trkpt>
      <trkpt lat="42.0337890" lon="-6.8242250">
        <ele>1329.3</ele>
        <time>2019-08-16T14:31:16Z</time>
      </trkpt>
      <trkpt lat="42.0337680" lon="-6.8242840">
        <ele>1329.2</ele>
        <time>2019-08-16T14:31:17Z</time>
      </trkpt>
      <trkpt lat="42.0337470" lon="-6.8243410">
        <ele>1329.1</ele>
        <time>2019-08-16T14:31:18Z</time>
      </trkpt>
      <trkpt lat="42.0337250" lon="-6.8243980">
        <ele>1329.0</ele>
        <time>2019-08-16T14:31:19Z</time>
      </trkpt>
      <trkpt lat="42.0337030" lon="-6.8244560">
        <ele>1328.9</ele>
        <time>2019-08-16T14:31:20Z</time>
      </trkpt>
      <trkpt lat="42.0336790" lon="-6.8245150">
        <ele>1328.8</ele>
        <time>2019-08-16T14:31:21Z</time>
      </trkpt>
      <trkpt lat="42.0336520" lon="-6.8245760">
        <ele>1328.7</ele>
        <time>2019-08-16T14:31:22Z</time>
      </trkpt>
      <trkpt lat="42.0336240" lon="-6.8246360">
        <ele>1328.6</ele>
        <time>2019-08-16T14:31:23Z</time>
      </trkpt>
      <trkpt lat="42.0335950" lon="-6.8246980">
        <ele>1328.4</ele>
        <time>2019-08-16T14:31:24Z</time>
      </trkpt>
      <trkpt lat="42.0335650" lon="-6.8247570">
        <ele>1328.2</ele>
        <time>2019-08-16T14:31:25Z</time>
      </trkpt>
      <trkpt lat="42.0335340" lon="-6.8248160">
        <ele>1328.0</ele>
        <time>2019-08-16T14:31:26Z</time>
      </trkpt>
      <trkpt lat="42.0335020" lon="-6.8248720">
        <ele>1327.8</ele>
        <time>2019-08-16T14:31:27Z</time>
      </trkpt>
      <trkpt lat="42.0334710" lon="-6.8249250">
        <ele>1327.6</ele>
        <time>2019-08-16T14:31:28Z</time>
      </trkpt>
      <trkpt lat="42.0334420" lon="-6.8249760">
        <ele>1327.4</ele>
        <time>2019-08-16T14:31:29Z</time>
      </trkpt>
      <trkpt lat="42.0334120" lon="-6.8250250">
        <ele>1327.2</ele>
        <time>2019-08-16T14:31:30Z</time>
      </trkpt>
      <trkpt lat="42.0333800" lon="-6.8250760">
        <ele>1326.6</ele>
        <time>2019-08-16T14:31:31Z</time>
      </trkpt>
      <trkpt lat="42.0333480" lon="-6.8251280">
        <ele>1326.2</ele>
        <time>2019-08-16T14:31:32Z</time>
      </trkpt>
      <trkpt lat="42.0333130" lon="-6.8251820">
        <ele>1325.8</ele>
        <time>2019-08-16T14:31:33Z</time>
      </trkpt>
      <trkpt lat="42.0332760" lon="-6.8252380">
        <ele>1325.4</ele>
        <time>2019-08-16T14:31:34Z</time>
      </trkpt>
      <trkpt lat="42.0332370" lon="-6.8252960">
        <ele>1325.0</ele>
        <time>2019-08-16T14:31:35Z</time>
      </trkpt>
      <trkpt lat="42.0331990" lon="-6.8253560">
        <ele>1324.6</ele>
        <time>2019-08-16T14:31:36Z</time>
      </trkpt>
      <trkpt lat="42.0331600" lon="-6.8254180">
        <ele>1324.2</ele>
        <time>2019-08-16T14:31:37Z</time>
      </trkpt>
      <trkpt lat="42.0331210" lon="-6.8254770">
        <ele>1323.9</ele>
        <time>2019-08-16T14:31:38Z</time>
      </trkpt>
      <trkpt lat="42.0330800" lon="-6.8255390">
        <ele>1323.5</ele>
        <time>2019-08-16T14:31:39Z</time>
      </trkpt>
      <trkpt lat="42.0330380" lon="-6.8256020">
        <ele>1323.2</ele>
        <time>2019-08-16T14:31:40Z</time>
      </trkpt>
      <trkpt lat="42.0329960" lon="-6.8256650">
        <ele>1322.9</ele>
        <time>2019-08-16T14:31:41Z</time>
      </trkpt>
      <trkpt lat="42.0329550" lon="-6.8257320">
        <ele>1322.8</ele>
        <time>2019-08-16T14:31:42Z</time>
      </trkpt>
      <trkpt lat="42.0329160" lon="-6.8257980">
        <ele>1322.7</ele>
        <time>2019-08-16T14:31:43Z</time>
      </trkpt>
      <trkpt lat="42.0328790" lon="-6.8258670">
        <ele>1322.6</ele>
        <time>2019-08-16T14:31:44Z</time>
      </trkpt>
      <trkpt lat="42.0328440" lon="-6.8259380">
        <ele>1322.4</ele>
        <time>2019-08-16T14:31:45Z</time>
      </trkpt>
      <trkpt lat="42.0328120" lon="-6.8260120">
        <ele>1322.3</ele>
        <time>2019-08-16T14:31:46Z</time>
      </trkpt>
      <trkpt lat="42.0327820" lon="-6.8260870">
        <ele>1322.2</ele>
        <time>2019-08-16T14:31:47Z</time>
      </trkpt>
      <trkpt lat="42.0327540" lon="-6.8261640">
        <ele>1322.1</ele>
        <time>2019-08-16T14:31:48Z</time>
      </trkpt>
      <trkpt lat="42.0327300" lon="-6.8262410">
        <ele>1321.9</ele>
        <time>2019-08-16T14:31:49Z</time>
      </trkpt>
      <trkpt lat="42.0327070" lon="-6.8263180">
        <ele>1321.8</ele>
        <time>2019-08-16T14:31:50Z</time>
      </trkpt>
      <trkpt lat="42.0326850" lon="-6.8263950">
        <ele>1321.7</ele>
        <time>2019-08-16T14:31:51Z</time>
      </trkpt>
      <trkpt lat="42.0326670" lon="-6.8264710">
        <ele>1321.6</ele>
        <time>2019-08-16T14:31:52Z</time>
      </trkpt>
      <trkpt lat="42.0326520" lon="-6.8265450">
        <ele>1321.4</ele>
        <time>2019-08-16T14:31:53Z</time>
      </trkpt>
      <trkpt lat="42.0326380" lon="-6.8266180">
        <ele>1321.3</ele>
        <time>2019-08-16T14:31:54Z</time>
      </trkpt>
      <trkpt lat="42.0326260" lon="-6.8266900">
        <ele>1321.2</ele>
        <time>2019-08-16T14:31:55Z</time>
      </trkpt>
      <trkpt lat="42.0326140" lon="-6.8267640">
        <ele>1321.1</ele>
        <time>2019-08-16T14:31:56Z</time>
      </trkpt>
      <trkpt lat="42.0326030" lon="-6.8268330">
        <ele>1321.0</ele>
        <time>2019-08-16T14:31:57Z</time>
      </trkpt>
      <trkpt lat="42.0325930" lon="-6.8269020">
        <ele>1320.8</ele>
        <time>2019-08-16T14:31:58Z</time>
      </trkpt>
      <trkpt lat="42.0325860" lon="-6.8269730">
        <ele>1320.7</ele>
        <time>2019-08-16T14:31:59Z</time>
      </trkpt>
      <trkpt lat="42.0325800" lon="-6.8270430">
        <ele>1320.8</ele>
        <time>2019-08-16T14:32:00Z</time>
      </trkpt>
      <trkpt lat="42.0325750" lon="-6.8271110">
        <ele>1320.9</ele>
        <time>2019-08-16T14:32:01Z</time>
      </trkpt>
      <trkpt lat="42.0325720" lon="-6.8271810">
        <ele>1320.9</ele>
        <time>2019-08-16T14:32:02Z</time>
      </trkpt>
      <trkpt lat="42.0325720" lon="-6.8272500">
        <ele>1321.0</ele>
        <time>2019-08-16T14:32:03Z</time>
      </trkpt>
      <trkpt lat="42.0325750" lon="-6.8273180">
        <ele>1321.1</ele>
        <time>2019-08-16T14:32:04Z</time>
      </trkpt>
      <trkpt lat="42.0325780" lon="-6.8273870">
        <ele>1321.4</ele>
        <time>2019-08-16T14:32:05Z</time>
      </trkpt>
      <trkpt lat="42.0325840" lon="-6.8274550">
        <ele>1321.6</ele>
        <time>2019-08-16T14:32:06Z</time>
      </trkpt>
      <trkpt lat="42.0325910" lon="-6.8275230">
        <ele>1321.9</ele>
        <time>2019-08-16T14:32:07Z</time>
      </trkpt>
      <trkpt lat="42.0325990" lon="-6.8275900">
        <ele>1322.3</ele>
        <time>2019-08-16T14:32:08Z</time>
      </trkpt>
      <trkpt lat="42.0326070" lon="-6.8276550">
        <ele>1322.6</ele>
        <time>2019-08-16T14:32:09Z</time>
      </trkpt>
      <trkpt lat="42.0326140" lon="-6.8277200">
        <ele>1322.9</ele>
        <time>2019-08-16T14:32:10Z</time>
      </trkpt>
      <trkpt lat="42.0326230" lon="-6.8277830">
        <ele>1323.1</ele>
        <time>2019-08-16T14:32:11Z</time>
      </trkpt>
      <trkpt lat="42.0326330" lon="-6.8278440">
        <ele>1323.3</ele>
        <time>2019-08-16T14:32:12Z</time>
      </trkpt>
      <trkpt lat="42.0326410" lon="-6.8278990">
        <ele>1323.5</ele>
        <time>2019-08-16T14:32:13Z</time>
      </trkpt>
      <trkpt lat="42.0326470" lon="-6.8279490">
        <ele>1323.8</ele>
        <time>2019-08-16T14:32:14Z</time>
      </trkpt>
      <trkpt lat="42.0326520" lon="-6.8279940">
        <ele>1324.0</ele>
        <time>2019-08-16T14:32:15Z</time>
      </trkpt>
      <trkpt lat="42.0326600" lon="-6.8280370">
        <ele>1324.2</ele>
        <time>2019-08-16T14:32:16Z</time>
      </trkpt>
      <trkpt lat="42.0326670" lon="-6.8280820">
        <ele>1324.4</ele>
        <time>2019-08-16T14:32:17Z</time>
      </trkpt>
      <trkpt lat="42.0326740" lon="-6.8281280">
        <ele>1324.6</ele>
        <time>2019-08-16T14:32:18Z</time>
      </trkpt>
      <trkpt lat="42.0326810" lon="-6.8281750">
        <ele>1324.8</ele>
        <time>2019-08-16T14:32:19Z</time>
      </trkpt>
      <trkpt lat="42.0326880" lon="-6.8282230">
        <ele>1325.0</ele>
        <time>2019-08-16T14:32:20Z</time>
      </trkpt>
      <trkpt lat="42.0326960" lon="-6.8282710">
        <ele>1325.2</ele>
        <time>2019-08-16T14:32:21Z</time>
      </trkpt>
      <trkpt lat="42.0327040" lon="-6.8283220">
        <ele>1325.4</ele>
        <time>2019-08-16T14:32:22Z</time>
      </trkpt>
      <trkpt lat="42.0327110" lon="-6.8283710">
        <ele>1325.6</ele>
        <time>2019-08-16T14:32:23Z</time>
      </trkpt>
      <trkpt lat="42.0327180" lon="-6.8284210">
        <ele>1325.8</ele>
        <time>2019-08-16T14:32:24Z</time>
      </trkpt>
      <trkpt lat="42.0327250" lon="-6.8284720">
        <ele>1325.9</ele>
        <time>2019-08-16T14:32:25Z</time>
      </trkpt>
      <trkpt lat="42.0327320" lon="-6.8285240">
        <ele>1326.1</ele>
        <time>2019-08-16T14:32:26Z</time>
      </trkpt>
      <trkpt lat="42.0327400" lon="-6.8285760">
        <ele>1326.2</ele>
        <time>2019-08-16T14:32:27Z</time>
      </trkpt>
      <trkpt lat="42.0327460" lon="-6.8286280">
        <ele>1326.3</ele>
        <time>2019-08-16T14:32:28Z</time>
      </trkpt>
      <trkpt lat="42.0327520" lon="-6.8286810">
        <ele>1326.5</ele>
        <time>2019-08-16T14:32:29Z</time>
      </trkpt>
      <trkpt lat="42.0327570" lon="-6.8287280">
        <ele>1326.6</ele>
        <time>2019-08-16T14:32:30Z</time>
      </trkpt>
      <trkpt lat="42.0327620" lon="-6.8287680">
        <ele>1326.8</ele>
        <time>2019-08-16T14:32:31Z</time>
      </trkpt>
      <trkpt lat="42.0327660" lon="-6.8288030">
        <ele>1326.9</ele>
        <time>2019-08-16T14:32:32Z</time>
      </trkpt>
      <trkpt lat="42.0327730" lon="-6.8288850">
        <ele>1327.1</ele>
        <time>2019-08-16T14:32:34Z</time>
      </trkpt>
      <trkpt lat="42.0327760" lon="-6.8289300">
        <ele>1327.2</ele>
        <time>2019-08-16T14:32:35Z</time>
      </trkpt>
      <trkpt lat="42.0327790" lon="-6.8289750">
        <ele>1327.4</ele>
        <time>2019-08-16T14:32:36Z</time>
      </trkpt>
      <trkpt lat="42.0327810" lon="-6.8290210">
        <ele>1327.5</ele>
        <time>2019-08-16T14:32:37Z</time>
      </trkpt>
      <trkpt lat="42.0327820" lon="-6.8290680">
        <ele>1327.7</ele>
        <time>2019-08-16T14:32:38Z</time>
      </trkpt>
      <trkpt lat="42.0327830" lon="-6.8291150">
        <ele>1327.8</ele>
        <time>2019-08-16T14:32:39Z</time>
      </trkpt>
      <trkpt lat="42.0327820" lon="-6.8291620">
        <ele>1328.0</ele>
        <time>2019-08-16T14:32:40Z</time>
      </trkpt>
      <trkpt lat="42.0327800" lon="-6.8292090">
        <ele>1328.1</ele>
        <time>2019-08-16T14:32:41Z</time>
      </trkpt>
      <trkpt lat="42.0327800" lon="-6.8292550">
        <ele>1328.2</ele>
        <time>2019-08-16T14:32:42Z</time>
      </trkpt>
      <trkpt lat="42.0327790" lon="-6.8292940">
        <ele>1328.4</ele>
        <time>2019-08-16T14:32:43Z</time>
      </trkpt>
      <trkpt lat="42.0327790" lon="-6.8293220">
        <ele>1328.5</ele>
        <time>2019-08-16T14:32:44Z</time>
      </trkpt>
      <trkpt lat="42.0327800" lon="-6.8293800">
        <ele>1328.7</ele>
        <time>2019-08-16T14:32:46Z</time>
      </trkpt>
      <trkpt lat="42.0327960" lon="-6.8294570">
        <ele>1329.1</ele>
        <time>2019-08-16T14:32:48Z</time>
      </trkpt>
      <trkpt lat="42.0328030" lon="-6.8294980">
        <ele>1329.1</ele>
        <time>2019-08-16T14:32:49Z</time>
      </trkpt>
      <trkpt lat="42.0328030" lon="-6.8295380">
        <ele>1329.2</ele>
        <time>2019-08-16T14:32:50Z</time>
      </trkpt>
      <trkpt lat="42.0328000" lon="-6.8295740">
        <ele>1329.2</ele>
        <time>2019-08-16T14:32:51Z</time>
      </trkpt>
      <trkpt lat="42.0327950" lon="-6.8296070">
        <ele>1329.4</ele>
        <time>2019-08-16T14:32:52Z</time>
      </trkpt>
      <trkpt lat="42.0327870" lon="-6.8296680">
        <ele>1329.5</ele>
        <time>2019-08-16T14:32:54Z</time>
      </trkpt>
      <trkpt lat="42.0327800" lon="-6.8297330">
        <ele>1329.6</ele>
        <time>2019-08-16T14:32:56Z</time>
      </trkpt>
      <trkpt lat="42.0327780" lon="-6.8298060">
        <ele>1329.7</ele>
        <time>2019-08-16T14:32:58Z</time>
      </trkpt>
      <trkpt lat="42.0327780" lon="-6.8298450">
        <ele>1329.8</ele>
        <time>2019-08-16T14:32:59Z</time>
      </trkpt>
      <trkpt lat="42.0327770" lon="-6.8298860">
        <ele>1329.9</ele>
        <time>2019-08-16T14:33:00Z</time>
      </trkpt>
      <trkpt lat="42.0327760" lon="-6.8299270">
        <ele>1329.9</ele>
        <time>2019-08-16T14:33:01Z</time>
      </trkpt>
      <trkpt lat="42.0327740" lon="-6.8299680">
        <ele>1330.0</ele>
        <time>2019-08-16T14:33:02Z</time>
      </trkpt>
      <trkpt lat="42.0327730" lon="-6.8300100">
        <ele>1330.1</ele>
        <time>2019-08-16T14:33:03Z</time>
      </trkpt>
      <trkpt lat="42.0327720" lon="-6.8300520">
        <ele>1330.2</ele>
        <time>2019-08-16T14:33:04Z</time>
      </trkpt>
      <trkpt lat="42.0327730" lon="-6.8300940">
        <ele>1330.2</ele>
        <time>2019-08-16T14:33:05Z</time>
      </trkpt>
      <trkpt lat="42.0327730" lon="-6.8301380">
        <ele>1330.3</ele>
        <time>2019-08-16T14:33:06Z</time>
      </trkpt>
      <trkpt lat="42.0327720" lon="-6.8301820">
        <ele>1330.4</ele>
        <time>2019-08-16T14:33:07Z</time>
      </trkpt>
      <trkpt lat="42.0327700" lon="-6.8302260">
        <ele>1330.5</ele>
        <time>2019-08-16T14:33:08Z</time>
      </trkpt>
      <trkpt lat="42.0327680" lon="-6.8302700">
        <ele>1330.5</ele>
        <time>2019-08-16T14:33:09Z</time>
      </trkpt>
      <trkpt lat="42.0327680" lon="-6.8303170">
        <ele>1330.4</ele>
        <time>2019-08-16T14:33:10Z</time>
      </trkpt>
      <trkpt lat="42.0327720" lon="-6.8303660">
        <ele>1330.4</ele>
        <time>2019-08-16T14:33:11Z</time>
      </trkpt>
      <trkpt lat="42.0327740" lon="-6.8304180">
        <ele>1330.3</ele>
        <time>2019-08-16T14:33:12Z</time>
      </trkpt>
      <trkpt lat="42.0327750" lon="-6.8304710">
        <ele>1330.2</ele>
        <time>2019-08-16T14:33:13Z</time>
      </trkpt>
      <trkpt lat="42.0327750" lon="-6.8305270">
        <ele>1330.1</ele>
        <time>2019-08-16T14:33:14Z</time>
      </trkpt>
      <trkpt lat="42.0327750" lon="-6.8305840">
        <ele>1330.0</ele>
        <time>2019-08-16T14:33:15Z</time>
      </trkpt>
      <trkpt lat="42.0327750" lon="-6.8306430">
        <ele>1330.0</ele>
        <time>2019-08-16T14:33:16Z</time>
      </trkpt>
      <trkpt lat="42.0327740" lon="-6.8307030">
        <ele>1329.9</ele>
        <time>2019-08-16T14:33:17Z</time>
      </trkpt>
      <trkpt lat="42.0327730" lon="-6.8307620">
        <ele>1329.8</ele>
        <time>2019-08-16T14:33:18Z</time>
      </trkpt>
      <trkpt lat="42.0327710" lon="-6.8308200">
        <ele>1329.7</ele>
        <time>2019-08-16T14:33:19Z</time>
      </trkpt>
      <trkpt lat="42.0327690" lon="-6.8308790">
        <ele>1329.6</ele>
        <time>2019-08-16T14:33:20Z</time>
      </trkpt>
      <trkpt lat="42.0327680" lon="-6.8309370">
        <ele>1329.5</ele>
        <time>2019-08-16T14:33:21Z</time>
      </trkpt>
      <trkpt lat="42.0327680" lon="-6.8309950">
        <ele>1329.4</ele>
        <time>2019-08-16T14:33:22Z</time>
      </trkpt>
      <trkpt lat="42.0327680" lon="-6.8310520">
        <ele>1329.4</ele>
        <time>2019-08-16T14:33:23Z</time>
      </trkpt>
      <trkpt lat="42.0327680" lon="-6.8311070">
        <ele>1329.3</ele>
        <time>2019-08-16T14:33:24Z</time>
      </trkpt>
      <trkpt lat="42.0327680" lon="-6.8311610">
        <ele>1329.2</ele>
        <time>2019-08-16T14:33:25Z</time>
      </trkpt>
      <trkpt lat="42.0327690" lon="-6.8312160">
        <ele>1329.2</ele>
        <time>2019-08-16T14:33:26Z</time>
      </trkpt>
      <trkpt lat="42.0327700" lon="-6.8312730">
        <ele>1329.1</ele>
        <time>2019-08-16T14:33:27Z</time>
      </trkpt>
      <trkpt lat="42.0327700" lon="-6.8313350">
        <ele>1329.0</ele>
        <time>2019-08-16T14:33:28Z</time>
      </trkpt>
      <trkpt lat="42.0327700" lon="-6.8313990">
        <ele>1328.9</ele>
        <time>2019-08-16T14:33:29Z</time>
      </trkpt>
      <trkpt lat="42.0327700" lon="-6.8314680">
        <ele>1328.8</ele>
        <time>2019-08-16T14:33:30Z</time>
      </trkpt>
      <trkpt lat="42.0327690" lon="-6.8315370">
        <ele>1328.7</ele>
        <time>2019-08-16T14:33:31Z</time>
      </trkpt>
      <trkpt lat="42.0327680" lon="-6.8316080">
        <ele>1328.6</ele>
        <time>2019-08-16T14:33:32Z</time>
      </trkpt>
      <trkpt lat="42.0327680" lon="-6.8316800">
        <ele>1328.5</ele>
        <time>2019-08-16T14:33:33Z</time>
      </trkpt>
      <trkpt lat="42.0327680" lon="-6.8317550">
        <ele>1328.4</ele>
        <time>2019-08-16T14:33:34Z</time>
      </trkpt>
      <trkpt lat="42.0327680" lon="-6.8318310">
        <ele>1328.3</ele>
        <time>2019-08-16T14:33:35Z</time>
      </trkpt>
      <trkpt lat="42.0327690" lon="-6.8319070">
        <ele>1328.1</ele>
        <time>2019-08-16T14:33:36Z</time>
      </trkpt>
      <trkpt lat="42.0327700" lon="-6.8319830">
        <ele>1328.0</ele>
        <time>2019-08-16T14:33:37Z</time>
      </trkpt>
      <trkpt lat="42.0327690" lon="-6.8320600">
        <ele>1327.8</ele>
        <time>2019-08-16T14:33:38Z</time>
      </trkpt>
      <trkpt lat="42.0327700" lon="-6.8321380">
        <ele>1327.5</ele>
        <time>2019-08-16T14:33:39Z</time>
      </trkpt>
      <trkpt lat="42.0327700" lon="-6.8322170">
        <ele>1327.3</ele>
        <time>2019-08-16T14:33:40Z</time>
      </trkpt>
      <trkpt lat="42.0327700" lon="-6.8322970">
        <ele>1327.0</ele>
        <time>2019-08-16T14:33:41Z</time>
      </trkpt>
      <trkpt lat="42.0327700" lon="-6.8323770">
        <ele>1326.8</ele>
        <time>2019-08-16T14:33:42Z</time>
      </trkpt>
      <trkpt lat="42.0327690" lon="-6.8324570">
        <ele>1326.5</ele>
        <time>2019-08-16T14:33:43Z</time>
      </trkpt>
      <trkpt lat="42.0327690" lon="-6.8325370">
        <ele>1326.2</ele>
        <time>2019-08-16T14:33:44Z</time>
      </trkpt>
      <trkpt lat="42.0327690" lon="-6.8326170">
        <ele>1326.0</ele>
        <time>2019-08-16T14:33:45Z</time>
      </trkpt>
      <trkpt lat="42.0327700" lon="-6.8326960">
        <ele>1325.8</ele>
        <time>2019-08-16T14:33:46Z</time>
      </trkpt>
      <trkpt lat="42.0327720" lon="-6.8327740">
        <ele>1325.5</ele>
        <time>2019-08-16T14:33:47Z</time>
      </trkpt>
      <trkpt lat="42.0327730" lon="-6.8328520">
        <ele>1325.3</ele>
        <time>2019-08-16T14:33:48Z</time>
      </trkpt>
      <trkpt lat="42.0327770" lon="-6.8329300">
        <ele>1325.1</ele>
        <time>2019-08-16T14:33:49Z</time>
      </trkpt>
      <trkpt lat="42.0327820" lon="-6.8330090">
        <ele>1324.8</ele>
        <time>2019-08-16T14:33:50Z</time>
      </trkpt>
      <trkpt lat="42.0327890" lon="-6.8330910">
        <ele>1324.6</ele>
        <time>2019-08-16T14:33:51Z</time>
      </trkpt>
      <trkpt lat="42.0327960" lon="-6.8331740">
        <ele>1324.3</ele>
        <time>2019-08-16T14:33:52Z</time>
      </trkpt>
      <trkpt lat="42.0328050" lon="-6.8332590">
        <ele>1324.0</ele>
        <time>2019-08-16T14:33:53Z</time>
      </trkpt>
      <trkpt lat="42.0328130" lon="-6.8333440">
        <ele>1323.7</ele>
        <time>2019-08-16T14:33:54Z</time>
      </trkpt>
      <trkpt lat="42.0328250" lon="-6.8334310">
        <ele>1323.4</ele>
        <time>2019-08-16T14:33:55Z</time>
      </trkpt>
      <trkpt lat="42.0328380" lon="-6.8335180">
        <ele>1323.2</ele>
        <time>2019-08-16T14:33:56Z</time>
      </trkpt>
      <trkpt lat="42.0328540" lon="-6.8336050">
        <ele>1322.9</ele>
        <time>2019-08-16T14:33:57Z</time>
      </trkpt>
      <trkpt lat="42.0328700" lon="-6.8336930">
        <ele>1322.6</ele>
        <time>2019-08-16T14:33:58Z</time>
      </trkpt>
      <trkpt lat="42.0328900" lon="-6.8337810">
        <ele>1322.3</ele>
        <time>2019-08-16T14:33:59Z</time>
      </trkpt>
      <trkpt lat="42.0329130" lon="-6.8338670">
        <ele>1322.1</ele>
        <time>2019-08-16T14:34:00Z</time>
      </trkpt>
      <trkpt lat="42.0329380" lon="-6.8339530">
        <ele>1322.3</ele>
        <time>2019-08-16T14:34:01Z</time>
      </trkpt>
      <trkpt lat="42.0329640" lon="-6.8340370">
        <ele>1322.4</ele>
        <time>2019-08-16T14:34:02Z</time>
      </trkpt>
      <trkpt lat="42.0329930" lon="-6.8341210">
        <ele>1322.6</ele>
        <time>2019-08-16T14:34:03Z</time>
      </trkpt>
      <trkpt lat="42.0330210" lon="-6.8342040">
        <ele>1322.8</ele>
        <time>2019-08-16T14:34:04Z</time>
      </trkpt>
      <trkpt lat="42.0330510" lon="-6.8342850">
        <ele>1323.0</ele>
        <time>2019-08-16T14:34:05Z</time>
      </trkpt>
      <trkpt lat="42.0330810" lon="-6.8343660">
        <ele>1323.0</ele>
        <time>2019-08-16T14:34:06Z</time>
      </trkpt>
      <trkpt lat="42.0331120" lon="-6.8344460">
        <ele>1323.0</ele>
        <time>2019-08-16T14:34:07Z</time>
      </trkpt>
      <trkpt lat="42.0331440" lon="-6.8345260">
        <ele>1322.9</ele>
        <time>2019-08-16T14:34:08Z</time>
      </trkpt>
      <trkpt lat="42.0331760" lon="-6.8346080">
        <ele>1322.8</ele>
        <time>2019-08-16T14:34:09Z</time>
      </trkpt>
      <trkpt lat="42.0332060" lon="-6.8346900">
        <ele>1322.8</ele>
        <time>2019-08-16T14:34:10Z</time>
      </trkpt>
      <trkpt lat="42.0332360" lon="-6.8347750">
        <ele>1322.7</ele>
        <time>2019-08-16T14:34:11Z</time>
      </trkpt>
      <trkpt lat="42.0332670" lon="-6.8348610">
        <ele>1322.6</ele>
        <time>2019-08-16T14:34:12Z</time>
      </trkpt>
      <trkpt lat="42.0332990" lon="-6.8349460">
        <ele>1322.6</ele>
        <time>2019-08-16T14:34:13Z</time>
      </trkpt>
      <trkpt lat="42.0333300" lon="-6.8350310">
        <ele>1322.5</ele>
        <time>2019-08-16T14:34:14Z</time>
      </trkpt>
      <trkpt lat="42.0333640" lon="-6.8351150">
        <ele>1322.4</ele>
        <time>2019-08-16T14:34:15Z</time>
      </trkpt>
      <trkpt lat="42.0333950" lon="-6.8352020">
        <ele>1322.3</ele>
        <time>2019-08-16T14:34:16Z</time>
      </trkpt>
      <trkpt lat="42.0334260" lon="-6.8352880">
        <ele>1322.2</ele>
        <time>2019-08-16T14:34:17Z</time>
      </trkpt>
      <trkpt lat="42.0334550" lon="-6.8353740">
        <ele>1322.1</ele>
        <time>2019-08-16T14:34:18Z</time>
      </trkpt>
      <trkpt lat="42.0334810" lon="-6.8354610">
        <ele>1321.9</ele>
        <time>2019-08-16T14:34:19Z</time>
      </trkpt>
      <trkpt lat="42.0335040" lon="-6.8355470">
        <ele>1321.8</ele>
        <time>2019-08-16T14:34:20Z</time>
      </trkpt>
      <trkpt lat="42.0335230" lon="-6.8356270">
        <ele>1321.7</ele>
        <time>2019-08-16T14:34:21Z</time>
      </trkpt>
      <trkpt lat="42.0335390" lon="-6.8356930">
        <ele>1321.6</ele>
        <time>2019-08-16T14:34:22Z</time>
      </trkpt>
      <trkpt lat="42.0335520" lon="-6.8357400">
        <ele>1321.6</ele>
        <time>2019-08-16T14:34:23Z</time>
      </trkpt>
      <trkpt lat="42.0335630" lon="-6.8357690">
        <ele>1321.5</ele>
        <time>2019-08-16T14:34:24Z</time>
      </trkpt>
      <trkpt lat="42.0335830" lon="-6.8357870">
        <ele>1321.5</ele>
        <time>2019-08-16T14:34:26Z</time>
      </trkpt>
      <trkpt lat="42.0335830" lon="-6.8357620">
        <ele>1321.4</ele>
        <time>2019-08-16T14:34:34Z</time>
      </trkpt>
      <trkpt lat="42.0335740" lon="-6.8357400">
        <ele>1321.4</ele>
        <time>2019-08-16T14:34:42Z</time>
      </trkpt>
      <trkpt lat="42.0335800" lon="-6.8357120">
        <ele>1321.4</ele>
        <time>2019-08-16T14:34:54Z</time>
      </trkpt>
      <trkpt lat="42.0335720" lon="-6.8357030">
        <ele>1321.3</ele>
        <time>2019-08-16T14:35:49Z</time>
      </trkpt>
      <trkpt lat="42.0335470" lon="-6.8357030">
        <ele>1321.3</ele>
        <time>2019-08-16T14:37:07Z</time>
      </trkpt>
      <trkpt lat="42.0335640" lon="-6.8356840">
        <ele>1321.3</ele>
        <time>2019-08-16T14:37:14Z</time>
      </trkpt>
      <trkpt lat="42.0335690" lon="-6.8358950">
        <ele>1321.0</ele>
        <time>2019-08-16T14:38:48Z</time>
      </trkpt>
      <trkpt lat="42.0335680" lon="-6.8359440">
        <ele>1320.9</ele>
        <time>2019-08-16T14:38:49Z</time>
      </trkpt>
      <trkpt lat="42.0335680" lon="-6.8359950">
        <ele>1320.8</ele>
        <time>2019-08-16T14:38:50Z</time>
      </trkpt>
      <trkpt lat="42.0335680" lon="-6.8360490">
        <ele>1320.7</ele>
        <time>2019-08-16T14:38:51Z</time>
      </trkpt>
      <trkpt lat="42.0335680" lon="-6.8361060">
        <ele>1320.7</ele>
        <time>2019-08-16T14:38:52Z</time>
      </trkpt>
      <trkpt lat="42.0335690" lon="-6.8361640">
        <ele>1320.5</ele>
        <time>2019-08-16T14:38:53Z</time>
      </trkpt>
      <trkpt lat="42.0335670" lon="-6.8362260">
        <ele>1320.4</ele>
        <time>2019-08-16T14:38:54Z</time>
      </trkpt>
      <trkpt lat="42.0335660" lon="-6.8362910">
        <ele>1320.2</ele>
        <time>2019-08-16T14:38:55Z</time>
      </trkpt>
      <trkpt lat="42.0335680" lon="-6.8363550">
        <ele>1320.1</ele>
        <time>2019-08-16T14:38:56Z</time>
      </trkpt>
      <trkpt lat="42.0335690" lon="-6.8364220">
        <ele>1319.9</ele>
        <time>2019-08-16T14:38:57Z</time>
      </trkpt>
      <trkpt lat="42.0335650" lon="-6.8364890">
        <ele>1319.4</ele>
        <time>2019-08-16T14:38:58Z</time>
      </trkpt>
      <trkpt lat="42.0335590" lon="-6.8365570">
        <ele>1319.1</ele>
        <time>2019-08-16T14:38:59Z</time>
      </trkpt>
      <trkpt lat="42.0335510" lon="-6.8366240">
        <ele>1318.9</ele>
        <time>2019-08-16T14:39:00Z</time>
      </trkpt>
      <trkpt lat="42.0335450" lon="-6.8366890">
        <ele>1318.6</ele>
        <time>2019-08-16T14:39:01Z</time>
      </trkpt>
      <trkpt lat="42.0335380" lon="-6.8367530">
        <ele>1318.4</ele>
        <time>2019-08-16T14:39:02Z</time>
      </trkpt>
      <trkpt lat="42.0335320" lon="-6.8368180">
        <ele>1317.9</ele>
        <time>2019-08-16T14:39:03Z</time>
      </trkpt>
      <trkpt lat="42.0335260" lon="-6.8368830">
        <ele>1317.6</ele>
        <time>2019-08-16T14:39:04Z</time>
      </trkpt>
      <trkpt lat="42.0335200" lon="-6.8369470">
        <ele>1317.3</ele>
        <time>2019-08-16T14:39:05Z</time>
      </trkpt>
      <trkpt lat="42.0335130" lon="-6.8370110">
        <ele>1317.1</ele>
        <time>2019-08-16T14:39:06Z</time>
      </trkpt>
      <trkpt lat="42.0335050" lon="-6.8370750">
        <ele>1316.8</ele>
        <time>2019-08-16T14:39:07Z</time>
      </trkpt>
      <trkpt lat="42.0334970" lon="-6.8371400">
        <ele>1316.5</ele>
        <time>2019-08-16T14:39:08Z</time>
      </trkpt>
      <trkpt lat="42.0334890" lon="-6.8372050">
        <ele>1316.2</ele>
        <time>2019-08-16T14:39:09Z</time>
      </trkpt>
      <trkpt lat="42.0334830" lon="-6.8372680">
        <ele>1315.9</ele>
        <time>2019-08-16T14:39:10Z</time>
      </trkpt>
      <trkpt lat="42.0334750" lon="-6.8373310">
        <ele>1315.7</ele>
        <time>2019-08-16T14:39:11Z</time>
      </trkpt>
      <trkpt lat="42.0334670" lon="-6.8373920">
        <ele>1315.4</ele>
        <time>2019-08-16T14:39:12Z</time>
      </trkpt>
      <trkpt lat="42.0334610" lon="-6.8374550">
        <ele>1315.1</ele>
        <time>2019-08-16T14:39:13Z</time>
      </trkpt>
      <trkpt lat="42.0334560" lon="-6.8375190">
        <ele>1314.8</ele>
        <time>2019-08-16T14:39:14Z</time>
      </trkpt>
      <trkpt lat="42.0334520" lon="-6.8375850">
        <ele>1314.5</ele>
        <time>2019-08-16T14:39:15Z</time>
      </trkpt>
      <trkpt lat="42.0334490" lon="-6.8376520">
        <ele>1314.1</ele>
        <time>2019-08-16T14:39:16Z</time>
      </trkpt>
      <trkpt lat="42.0334460" lon="-6.8377200">
        <ele>1313.8</ele>
        <time>2019-08-16T14:39:17Z</time>
      </trkpt>
      <trkpt lat="42.0334450" lon="-6.8377890">
        <ele>1313.5</ele>
        <time>2019-08-16T14:39:18Z</time>
      </trkpt>
      <trkpt lat="42.0334440" lon="-6.8378610">
        <ele>1313.3</ele>
        <time>2019-08-16T14:39:19Z</time>
      </trkpt>
      <trkpt lat="42.0334440" lon="-6.8379330">
        <ele>1313.0</ele>
        <time>2019-08-16T14:39:20Z</time>
      </trkpt>
      <trkpt lat="42.0334450" lon="-6.8380050">
        <ele>1312.6</ele>
        <time>2019-08-16T14:39:21Z</time>
      </trkpt>
      <trkpt lat="42.0334490" lon="-6.8380780">
        <ele>1312.3</ele>
        <time>2019-08-16T14:39:22Z</time>
      </trkpt>
      <trkpt lat="42.0334530" lon="-6.8381550">
        <ele>1312.1</ele>
        <time>2019-08-16T14:39:23Z</time>
      </trkpt>
      <trkpt lat="42.0334580" lon="-6.8382310">
        <ele>1311.8</ele>
        <time>2019-08-16T14:39:24Z</time>
      </trkpt>
      <trkpt lat="42.0334640" lon="-6.8383070">
        <ele>1311.5</ele>
        <time>2019-08-16T14:39:25Z</time>
      </trkpt>
      <trkpt lat="42.0334700" lon="-6.8383820">
        <ele>1311.2</ele>
        <time>2019-08-16T14:39:26Z</time>
      </trkpt>
      <trkpt lat="42.0334790" lon="-6.8384570">
        <ele>1310.8</ele>
        <time>2019-08-16T14:39:27Z</time>
      </trkpt>
      <trkpt lat="42.0334890" lon="-6.8385320">
        <ele>1310.4</ele>
        <time>2019-08-16T14:39:28Z</time>
      </trkpt>
      <trkpt lat="42.0335030" lon="-6.8386060">
        <ele>1310.0</ele>
        <time>2019-08-16T14:39:29Z</time>
      </trkpt>
      <trkpt lat="42.0335180" lon="-6.8386800">
        <ele>1309.6</ele>
        <time>2019-08-16T14:39:30Z</time>
      </trkpt>
      <trkpt lat="42.0335320" lon="-6.8387540">
        <ele>1309.3</ele>
        <time>2019-08-16T14:39:31Z</time>
      </trkpt>
      <trkpt lat="42.0335480" lon="-6.8388280">
        <ele>1308.9</ele>
        <time>2019-08-16T14:39:32Z</time>
      </trkpt>
      <trkpt lat="42.0335660" lon="-6.8389010">
        <ele>1308.3</ele>
        <time>2019-08-16T14:39:33Z</time>
      </trkpt>
      <trkpt lat="42.0335860" lon="-6.8389760">
        <ele>1308.2</ele>
        <time>2019-08-16T14:39:34Z</time>
      </trkpt>
      <trkpt lat="42.0336080" lon="-6.8390520">
        <ele>1308.2</ele>
        <time>2019-08-16T14:39:35Z</time>
      </trkpt>
      <trkpt lat="42.0336300" lon="-6.8391270">
        <ele>1308.1</ele>
        <time>2019-08-16T14:39:36Z</time>
      </trkpt>
      <trkpt lat="42.0336560" lon="-6.8392000">
        <ele>1308.1</ele>
        <time>2019-08-16T14:39:37Z</time>
      </trkpt>
      <trkpt lat="42.0336810" lon="-6.8392710">
        <ele>1308.1</ele>
        <time>2019-08-16T14:39:38Z</time>
      </trkpt>
      <trkpt lat="42.0337070" lon="-6.8393400">
        <ele>1308.0</ele>
        <time>2019-08-16T14:39:39Z</time>
      </trkpt>
      <trkpt lat="42.0337340" lon="-6.8394080">
        <ele>1308.0</ele>
        <time>2019-08-16T14:39:40Z</time>
      </trkpt>
      <trkpt lat="42.0337640" lon="-6.8394730">
        <ele>1307.9</ele>
        <time>2019-08-16T14:39:41Z</time>
      </trkpt>
      <trkpt lat="42.0337940" lon="-6.8395400">
        <ele>1307.9</ele>
        <time>2019-08-16T14:39:42Z</time>
      </trkpt>
      <trkpt lat="42.0338240" lon="-6.8396080">
        <ele>1307.8</ele>
        <time>2019-08-16T14:39:43Z</time>
      </trkpt>
      <trkpt lat="42.0338540" lon="-6.8396780">
        <ele>1307.8</ele>
        <time>2019-08-16T14:39:44Z</time>
      </trkpt>
      <trkpt lat="42.0338840" lon="-6.8397480">
        <ele>1307.7</ele>
        <time>2019-08-16T14:39:45Z</time>
      </trkpt>
      <trkpt lat="42.0339150" lon="-6.8398190">
        <ele>1307.6</ele>
        <time>2019-08-16T14:39:46Z</time>
      </trkpt>
      <trkpt lat="42.0339490" lon="-6.8398910">
        <ele>1307.5</ele>
        <time>2019-08-16T14:39:47Z</time>
      </trkpt>
      <trkpt lat="42.0339860" lon="-6.8399620">
        <ele>1307.4</ele>
        <time>2019-08-16T14:39:48Z</time>
      </trkpt>
      <trkpt lat="42.0340230" lon="-6.8400340">
        <ele>1307.3</ele>
        <time>2019-08-16T14:39:49Z</time>
      </trkpt>
      <trkpt lat="42.0340590" lon="-6.8401090">
        <ele>1307.2</ele>
        <time>2019-08-16T14:39:50Z</time>
      </trkpt>
      <trkpt lat="42.0340960" lon="-6.8401850">
        <ele>1307.0</ele>
        <time>2019-08-16T14:39:51Z</time>
      </trkpt>
      <trkpt lat="42.0341320" lon="-6.8402630">
        <ele>1306.9</ele>
        <time>2019-08-16T14:39:52Z</time>
      </trkpt>
      <trkpt lat="42.0341680" lon="-6.8403390">
        <ele>1306.8</ele>
        <time>2019-08-16T14:39:53Z</time>
      </trkpt>
      <trkpt lat="42.0342030" lon="-6.8404170">
        <ele>1306.7</ele>
        <time>2019-08-16T14:39:54Z</time>
      </trkpt>
      <trkpt lat="42.0342390" lon="-6.8404950">
        <ele>1306.5</ele>
        <time>2019-08-16T14:39:55Z</time>
      </trkpt>
      <trkpt lat="42.0342750" lon="-6.8405720">
        <ele>1306.4</ele>
        <time>2019-08-16T14:39:56Z</time>
      </trkpt>
      <trkpt lat="42.0343100" lon="-6.8406470">
        <ele>1306.2</ele>
        <time>2019-08-16T14:39:57Z</time>
      </trkpt>
      <trkpt lat="42.0343450" lon="-6.8407210">
        <ele>1306.1</ele>
        <time>2019-08-16T14:39:58Z</time>
      </trkpt>
      <trkpt lat="42.0343810" lon="-6.8407940">
        <ele>1305.9</ele>
        <time>2019-08-16T14:39:59Z</time>
      </trkpt>
      <trkpt lat="42.0344170" lon="-6.8408680">
        <ele>1305.8</ele>
        <time>2019-08-16T14:40:00Z</time>
      </trkpt>
      <trkpt lat="42.0344500" lon="-6.8409420">
        <ele>1305.6</ele>
        <time>2019-08-16T14:40:01Z</time>
      </trkpt>
      <trkpt lat="42.0344830" lon="-6.8410170">
        <ele>1305.4</ele>
        <time>2019-08-16T14:40:02Z</time>
      </trkpt>
      <trkpt lat="42.0345160" lon="-6.8410920">
        <ele>1305.3</ele>
        <time>2019-08-16T14:40:03Z</time>
      </trkpt>
      <trkpt lat="42.0345500" lon="-6.8411660">
        <ele>1305.1</ele>
        <time>2019-08-16T14:40:04Z</time>
      </trkpt>
      <trkpt lat="42.0345850" lon="-6.8412410">
        <ele>1304.9</ele>
        <time>2019-08-16T14:40:05Z</time>
      </trkpt>
      <trkpt lat="42.0346200" lon="-6.8413180">
        <ele>1304.8</ele>
        <time>2019-08-16T14:40:06Z</time>
      </trkpt>
      <trkpt lat="42.0346560" lon="-6.8413960">
        <ele>1304.6</ele>
        <time>2019-08-16T14:40:07Z</time>
      </trkpt>
      <trkpt lat="42.0346930" lon="-6.8414780">
        <ele>1304.4</ele>
        <time>2019-08-16T14:40:08Z</time>
      </trkpt>
      <trkpt lat="42.0347290" lon="-6.8415610">
        <ele>1304.2</ele>
        <time>2019-08-16T14:40:09Z</time>
      </trkpt>
      <trkpt lat="42.0347640" lon="-6.8416450">
        <ele>1303.9</ele>
        <time>2019-08-16T14:40:10Z</time>
      </trkpt>
      <trkpt lat="42.0347980" lon="-6.8417300">
        <ele>1303.7</ele>
        <time>2019-08-16T14:40:11Z</time>
      </trkpt>
      <trkpt lat="42.0348330" lon="-6.8418170">
        <ele>1303.5</ele>
        <time>2019-08-16T14:40:12Z</time>
      </trkpt>
      <trkpt lat="42.0348670" lon="-6.8419060">
        <ele>1303.2</ele>
        <time>2019-08-16T14:40:13Z</time>
      </trkpt>
      <trkpt lat="42.0349020" lon="-6.8419950">
        <ele>1303.0</ele>
        <time>2019-08-16T14:40:14Z</time>
      </trkpt>
      <trkpt lat="42.0349360" lon="-6.8420870">
        <ele>1302.7</ele>
        <time>2019-08-16T14:40:15Z</time>
      </trkpt>
      <trkpt lat="42.0349680" lon="-6.8421790">
        <ele>1302.5</ele>
        <time>2019-08-16T14:40:16Z</time>
      </trkpt>
      <trkpt lat="42.0349990" lon="-6.8422710">
        <ele>1302.2</ele>
        <time>2019-08-16T14:40:17Z</time>
      </trkpt>
      <trkpt lat="42.0350290" lon="-6.8423650">
        <ele>1301.9</ele>
        <time>2019-08-16T14:40:18Z</time>
      </trkpt>
      <trkpt lat="42.0350580" lon="-6.8424600">
        <ele>1301.7</ele>
        <time>2019-08-16T14:40:19Z</time>
      </trkpt>
      <trkpt lat="42.0350850" lon="-6.8425550">
        <ele>1301.4</ele>
        <time>2019-08-16T14:40:20Z</time>
      </trkpt>
      <trkpt lat="42.0351120" lon="-6.8426500">
        <ele>1301.1</ele>
        <time>2019-08-16T14:40:21Z</time>
      </trkpt>
      <trkpt lat="42.0351370" lon="-6.8427460">
        <ele>1300.8</ele>
        <time>2019-08-16T14:40:22Z</time>
      </trkpt>
      <trkpt lat="42.0351610" lon="-6.8428440">
        <ele>1300.5</ele>
        <time>2019-08-16T14:40:23Z</time>
      </trkpt>
      <trkpt lat="42.0351850" lon="-6.8429460">
        <ele>1300.2</ele>
        <time>2019-08-16T14:40:24Z</time>
      </trkpt>
      <trkpt lat="42.0352080" lon="-6.8430480">
        <ele>1299.8</ele>
        <time>2019-08-16T14:40:25Z</time>
      </trkpt>
      <trkpt lat="42.0352280" lon="-6.8431500">
        <ele>1299.4</ele>
        <time>2019-08-16T14:40:26Z</time>
      </trkpt>
      <trkpt lat="42.0352470" lon="-6.8432490">
        <ele>1298.9</ele>
        <time>2019-08-16T14:40:27Z</time>
      </trkpt>
      <trkpt lat="42.0352660" lon="-6.8433480">
        <ele>1298.3</ele>
        <time>2019-08-16T14:40:28Z</time>
      </trkpt>
      <trkpt lat="42.0352810" lon="-6.8434470">
        <ele>1297.9</ele>
        <time>2019-08-16T14:40:29Z</time>
      </trkpt>
      <trkpt lat="42.0352940" lon="-6.8435460">
        <ele>1297.5</ele>
        <time>2019-08-16T14:40:30Z</time>
      </trkpt>
      <trkpt lat="42.0353090" lon="-6.8436470">
        <ele>1297.2</ele>
        <time>2019-08-16T14:40:31Z</time>
      </trkpt>
      <trkpt lat="42.0353240" lon="-6.8437500">
        <ele>1296.9</ele>
        <time>2019-08-16T14:40:32Z</time>
      </trkpt>
      <trkpt lat="42.0353390" lon="-6.8438530">
        <ele>1296.6</ele>
        <time>2019-08-16T14:40:33Z</time>
      </trkpt>
      <trkpt lat="42.0353560" lon="-6.8439600">
        <ele>1295.9</ele>
        <time>2019-08-16T14:40:34Z</time>
      </trkpt>
      <trkpt lat="42.0353710" lon="-6.8440690">
        <ele>1295.4</ele>
        <time>2019-08-16T14:40:35Z</time>
      </trkpt>
      <trkpt lat="42.0353880" lon="-6.8441790">
        <ele>1294.9</ele>
        <time>2019-08-16T14:40:36Z</time>
      </trkpt>
      <trkpt lat="42.0354030" lon="-6.8442880">
        <ele>1294.4</ele>
        <time>2019-08-16T14:40:37Z</time>
      </trkpt>
      <trkpt lat="42.0354190" lon="-6.8443950">
        <ele>1293.9</ele>
        <time>2019-08-16T14:40:38Z</time>
      </trkpt>
      <trkpt lat="42.0354340" lon="-6.8445000">
        <ele>1293.4</ele>
        <time>2019-08-16T14:40:39Z</time>
      </trkpt>
      <trkpt lat="42.0354470" lon="-6.8446030">
        <ele>1293.0</ele>
        <time>2019-08-16T14:40:40Z</time>
      </trkpt>
      <trkpt lat="42.0354620" lon="-6.8447050">
        <ele>1292.6</ele>
        <time>2019-08-16T14:40:41Z</time>
      </trkpt>
      <trkpt lat="42.0354750" lon="-6.8448090">
        <ele>1292.1</ele>
        <time>2019-08-16T14:40:42Z</time>
      </trkpt>
      <trkpt lat="42.0354880" lon="-6.8449150">
        <ele>1291.7</ele>
        <time>2019-08-16T14:40:43Z</time>
      </trkpt>
      <trkpt lat="42.0355020" lon="-6.8450240">
        <ele>1291.3</ele>
        <time>2019-08-16T14:40:44Z</time>
      </trkpt>
      <trkpt lat="42.0355180" lon="-6.8451320">
        <ele>1290.8</ele>
        <time>2019-08-16T14:40:45Z</time>
      </trkpt>
      <trkpt lat="42.0355330" lon="-6.8452410">
        <ele>1290.4</ele>
        <time>2019-08-16T14:40:46Z</time>
      </trkpt>
      <trkpt lat="42.0355460" lon="-6.8453490">
        <ele>1290.0</ele>
        <time>2019-08-16T14:40:47Z</time>
      </trkpt>
      <trkpt lat="42.0355600" lon="-6.8454580">
        <ele>1289.5</ele>
        <time>2019-08-16T14:40:48Z</time>
      </trkpt>
      <trkpt lat="42.0355750" lon="-6.8455640">
        <ele>1289.1</ele>
        <time>2019-08-16T14:40:49Z</time>
      </trkpt>
      <trkpt lat="42.0355900" lon="-6.8456700">
        <ele>1288.7</ele>
        <time>2019-08-16T14:40:50Z</time>
      </trkpt>
      <trkpt lat="42.0356050" lon="-6.8457760">
        <ele>1288.2</ele>
        <time>2019-08-16T14:40:51Z</time>
      </trkpt>
      <trkpt lat="42.0356180" lon="-6.8458800">
        <ele>1287.7</ele>
        <time>2019-08-16T14:40:52Z</time>
      </trkpt>
      <trkpt lat="42.0356330" lon="-6.8459840">
        <ele>1287.3</ele>
        <time>2019-08-16T14:40:53Z</time>
      </trkpt>
      <trkpt lat="42.0356480" lon="-6.8460870">
        <ele>1286.8</ele>
        <time>2019-08-16T14:40:54Z</time>
      </trkpt>
      <trkpt lat="42.0356620" lon="-6.8461920">
        <ele>1286.3</ele>
        <time>2019-08-16T14:40:55Z</time>
      </trkpt>
      <trkpt lat="42.0356750" lon="-6.8462970">
        <ele>1285.7</ele>
        <time>2019-08-16T14:40:56Z</time>
      </trkpt>
      <trkpt lat="42.0356890" lon="-6.8464020">
        <ele>1285.2</ele>
        <time>2019-08-16T14:40:57Z</time>
      </trkpt>
      <trkpt lat="42.0357030" lon="-6.8465100">
        <ele>1284.7</ele>
        <time>2019-08-16T14:40:58Z</time>
      </trkpt>
      <trkpt lat="42.0357160" lon="-6.8466190">
        <ele>1284.2</ele>
        <time>2019-08-16T14:40:59Z</time>
      </trkpt>
      <trkpt lat="42.0357320" lon="-6.8467270">
        <ele>1283.8</ele>
        <time>2019-08-16T14:41:00Z</time>
      </trkpt>
      <trkpt lat="42.0357460" lon="-6.8468340">
        <ele>1283.3</ele>
        <time>2019-08-16T14:41:01Z</time>
      </trkpt>
      <trkpt lat="42.0357590" lon="-6.8469420">
        <ele>1283.0</ele>
        <time>2019-08-16T14:41:02Z</time>
      </trkpt>
      <trkpt lat="42.0357720" lon="-6.8470500">
        <ele>1282.6</ele>
        <time>2019-08-16T14:41:03Z</time>
      </trkpt>
      <trkpt lat="42.0357850" lon="-6.8471590">
        <ele>1282.2</ele>
        <time>2019-08-16T14:41:04Z</time>
      </trkpt>
      <trkpt lat="42.0357970" lon="-6.8472670">
        <ele>1281.9</ele>
        <time>2019-08-16T14:41:05Z</time>
      </trkpt>
      <trkpt lat="42.0358070" lon="-6.8473790">
        <ele>1281.4</ele>
        <time>2019-08-16T14:41:06Z</time>
      </trkpt>
      <trkpt lat="42.0358140" lon="-6.8474910">
        <ele>1280.8</ele>
        <time>2019-08-16T14:41:07Z</time>
      </trkpt>
      <trkpt lat="42.0358230" lon="-6.8476030">
        <ele>1280.1</ele>
        <time>2019-08-16T14:41:08Z</time>
      </trkpt>
      <trkpt lat="42.0358320" lon="-6.8477140">
        <ele>1279.5</ele>
        <time>2019-08-16T14:41:09Z</time>
      </trkpt>
      <trkpt lat="42.0358380" lon="-6.8478250">
        <ele>1278.8</ele>
        <time>2019-08-16T14:41:10Z</time>
      </trkpt>
      <trkpt lat="42.0358420" lon="-6.8479350">
        <ele>1278.2</ele>
        <time>2019-08-16T14:41:11Z</time>
      </trkpt>
      <trkpt lat="42.0358400" lon="-6.8480440">
        <ele>1277.7</ele>
        <time>2019-08-16T14:41:12Z</time>
      </trkpt>
      <trkpt lat="42.0358360" lon="-6.8481540">
        <ele>1277.2</ele>
        <time>2019-08-16T14:41:13Z</time>
      </trkpt>
      <trkpt lat="42.0358310" lon="-6.8482680">
        <ele>1276.6</ele>
        <time>2019-08-16T14:41:14Z</time>
      </trkpt>
      <trkpt lat="42.0358210" lon="-6.8483770">
        <ele>1276.1</ele>
        <time>2019-08-16T14:41:15Z</time>
      </trkpt>
      <trkpt lat="42.0358080" lon="-6.8484880">
        <ele>1275.4</ele>
        <time>2019-08-16T14:41:16Z</time>
      </trkpt>
      <trkpt lat="42.0357900" lon="-6.8485980">
        <ele>1274.7</ele>
        <time>2019-08-16T14:41:17Z</time>
      </trkpt>
      <trkpt lat="42.0357710" lon="-6.8487070">
        <ele>1274.2</ele>
        <time>2019-08-16T14:41:18Z</time>
      </trkpt>
      <trkpt lat="42.0357460" lon="-6.8488160">
        <ele>1273.6</ele>
        <time>2019-08-16T14:41:19Z</time>
      </trkpt>
      <trkpt lat="42.0357200" lon="-6.8489230">
        <ele>1273.0</ele>
        <time>2019-08-16T14:41:20Z</time>
      </trkpt>
      <trkpt lat="42.0356930" lon="-6.8490290">
        <ele>1272.4</ele>
        <time>2019-08-16T14:41:21Z</time>
      </trkpt>
      <trkpt lat="42.0356610" lon="-6.8491330">
        <ele>1271.8</ele>
        <time>2019-08-16T14:41:22Z</time>
      </trkpt>
      <trkpt lat="42.0356280" lon="-6.8492340">
        <ele>1271.1</ele>
        <time>2019-08-16T14:41:23Z</time>
      </trkpt>
      <trkpt lat="42.0355930" lon="-6.8493350">
        <ele>1270.4</ele>
        <time>2019-08-16T14:41:24Z</time>
      </trkpt>
      <trkpt lat="42.0355570" lon="-6.8494350">
        <ele>1269.7</ele>
        <time>2019-08-16T14:41:25Z</time>
      </trkpt>
      <trkpt lat="42.0355190" lon="-6.8495360">
        <ele>1269.1</ele>
        <time>2019-08-16T14:41:26Z</time>
      </trkpt>
      <trkpt lat="42.0354790" lon="-6.8496360">
        <ele>1268.5</ele>
        <time>2019-08-16T14:41:27Z</time>
      </trkpt>
      <trkpt lat="42.0354390" lon="-6.8497320">
        <ele>1268.0</ele>
        <time>2019-08-16T14:41:28Z</time>
      </trkpt>
      <trkpt lat="42.0354020" lon="-6.8498240">
        <ele>1267.5</ele>
        <time>2019-08-16T14:41:29Z</time>
      </trkpt>
      <trkpt lat="42.0353680" lon="-6.8499140">
        <ele>1267.0</ele>
        <time>2019-08-16T14:41:30Z</time>
      </trkpt>
      <trkpt lat="42.0353340" lon="-6.8500010">
        <ele>1266.5</ele>
        <time>2019-08-16T14:41:31Z</time>
      </trkpt>
      <trkpt lat="42.0353030" lon="-6.8500820">
        <ele>1266.0</ele>
        <time>2019-08-16T14:41:32Z</time>
      </trkpt>
      <trkpt lat="42.0352790" lon="-6.8501610">
        <ele>1265.5</ele>
        <time>2019-08-16T14:41:33Z</time>
      </trkpt>
      <trkpt lat="42.0352590" lon="-6.8502400">
        <ele>1265.0</ele>
        <time>2019-08-16T14:41:34Z</time>
      </trkpt>
      <trkpt lat="42.0352400" lon="-6.8503220">
        <ele>1264.5</ele>
        <time>2019-08-16T14:41:35Z</time>
      </trkpt>
      <trkpt lat="42.0352220" lon="-6.8504080">
        <ele>1264.0</ele>
        <time>2019-08-16T14:41:36Z</time>
      </trkpt>
      <trkpt lat="42.0352070" lon="-6.8504960">
        <ele>1263.6</ele>
        <time>2019-08-16T14:41:37Z</time>
      </trkpt>
      <trkpt lat="42.0351900" lon="-6.8505850">
        <ele>1263.2</ele>
        <time>2019-08-16T14:41:38Z</time>
      </trkpt>
      <trkpt lat="42.0351760" lon="-6.8506780">
        <ele>1262.7</ele>
        <time>2019-08-16T14:41:39Z</time>
      </trkpt>
      <trkpt lat="42.0351640" lon="-6.8507710">
        <ele>1262.3</ele>
        <time>2019-08-16T14:41:40Z</time>
      </trkpt>
      <trkpt lat="42.0351540" lon="-6.8508660">
        <ele>1261.8</ele>
        <time>2019-08-16T14:41:41Z</time>
      </trkpt>
      <trkpt lat="42.0351470" lon="-6.8509650">
        <ele>1261.3</ele>
        <time>2019-08-16T14:41:42Z</time>
      </trkpt>
      <trkpt lat="42.0351420" lon="-6.8510650">
        <ele>1260.7</ele>
        <time>2019-08-16T14:41:43Z</time>
      </trkpt>
      <trkpt lat="42.0351380" lon="-6.8511660">
        <ele>1260.1</ele>
        <time>2019-08-16T14:41:44Z</time>
      </trkpt>
      <trkpt lat="42.0351380" lon="-6.8512690">
        <ele>1259.5</ele>
        <time>2019-08-16T14:41:45Z</time>
      </trkpt>
      <trkpt lat="42.0351400" lon="-6.8513730">
        <ele>1258.9</ele>
        <time>2019-08-16T14:41:46Z</time>
      </trkpt>
      <trkpt lat="42.0351450" lon="-6.8514770">
        <ele>1258.4</ele>
        <time>2019-08-16T14:41:47Z</time>
      </trkpt>
      <trkpt lat="42.0351500" lon="-6.8515820">
        <ele>1257.9</ele>
        <time>2019-08-16T14:41:48Z</time>
      </trkpt>
      <trkpt lat="42.0351560" lon="-6.8516850">
        <ele>1257.4</ele>
        <time>2019-08-16T14:41:49Z</time>
      </trkpt>
      <trkpt lat="42.0351620" lon="-6.8517880">
        <ele>1256.9</ele>
        <time>2019-08-16T14:41:50Z</time>
      </trkpt>
      <trkpt lat="42.0351670" lon="-6.8518920">
        <ele>1256.3</ele>
        <time>2019-08-16T14:41:51Z</time>
      </trkpt>
      <trkpt lat="42.0351730" lon="-6.8519960">
        <ele>1255.6</ele>
        <time>2019-08-16T14:41:52Z</time>
      </trkpt>
      <trkpt lat="42.0351770" lon="-6.8521000">
        <ele>1254.9</ele>
        <time>2019-08-16T14:41:53Z</time>
      </trkpt>
      <trkpt lat="42.0351800" lon="-6.8522040">
        <ele>1254.2</ele>
        <time>2019-08-16T14:41:54Z</time>
      </trkpt>
      <trkpt lat="42.0351850" lon="-6.8523080">
        <ele>1253.6</ele>
        <time>2019-08-16T14:41:55Z</time>
      </trkpt>
      <trkpt lat="42.0351910" lon="-6.8524140">
        <ele>1253.1</ele>
        <time>2019-08-16T14:41:56Z</time>
      </trkpt>
      <trkpt lat="42.0351960" lon="-6.8525220">
        <ele>1252.5</ele>
        <time>2019-08-16T14:41:57Z</time>
      </trkpt>
      <trkpt lat="42.0352030" lon="-6.8526290">
        <ele>1251.9</ele>
        <time>2019-08-16T14:41:58Z</time>
      </trkpt>
      <trkpt lat="42.0352100" lon="-6.8527380">
        <ele>1251.3</ele>
        <time>2019-08-16T14:41:59Z</time>
      </trkpt>
      <trkpt lat="42.0352170" lon="-6.8528460">
        <ele>1250.6</ele>
        <time>2019-08-16T14:42:00Z</time>
      </trkpt>
      <trkpt lat="42.0352230" lon="-6.8529530">
        <ele>1249.9</ele>
        <time>2019-08-16T14:42:01Z</time>
      </trkpt>
      <trkpt lat="42.0352300" lon="-6.8530580">
        <ele>1249.2</ele>
        <time>2019-08-16T14:42:02Z</time>
      </trkpt>
      <trkpt lat="42.0352370" lon="-6.8531650">
        <ele>1248.5</ele>
        <time>2019-08-16T14:42:03Z</time>
      </trkpt>
      <trkpt lat="42.0352450" lon="-6.8532740">
        <ele>1247.9</ele>
        <time>2019-08-16T14:42:04Z</time>
      </trkpt>
      <trkpt lat="42.0352550" lon="-6.8533810">
        <ele>1247.3</ele>
        <time>2019-08-16T14:42:05Z</time>
      </trkpt>
      <trkpt lat="42.0352650" lon="-6.8534890">
        <ele>1246.7</ele>
        <time>2019-08-16T14:42:06Z</time>
      </trkpt>
      <trkpt lat="42.0352780" lon="-6.8535970">
        <ele>1246.1</ele>
        <time>2019-08-16T14:42:07Z</time>
      </trkpt>
      <trkpt lat="42.0352930" lon="-6.8537050">
        <ele>1245.5</ele>
        <time>2019-08-16T14:42:08Z</time>
      </trkpt>
      <trkpt lat="42.0353110" lon="-6.8538100">
        <ele>1244.9</ele>
        <time>2019-08-16T14:42:09Z</time>
      </trkpt>
      <trkpt lat="42.0353320" lon="-6.8539140">
        <ele>1244.3</ele>
        <time>2019-08-16T14:42:10Z</time>
      </trkpt>
      <trkpt lat="42.0353540" lon="-6.8540170">
        <ele>1243.6</ele>
        <time>2019-08-16T14:42:11Z</time>
      </trkpt>
      <trkpt lat="42.0353770" lon="-6.8541190">
        <ele>1243.1</ele>
        <time>2019-08-16T14:42:12Z</time>
      </trkpt>
      <trkpt lat="42.0354030" lon="-6.8542220">
        <ele>1242.6</ele>
        <time>2019-08-16T14:42:13Z</time>
      </trkpt>
      <trkpt lat="42.0354330" lon="-6.8543240">
        <ele>1242.1</ele>
        <time>2019-08-16T14:42:14Z</time>
      </trkpt>
      <trkpt lat="42.0354630" lon="-6.8544230">
        <ele>1241.7</ele>
        <time>2019-08-16T14:42:15Z</time>
      </trkpt>
      <trkpt lat="42.0354930" lon="-6.8545210">
        <ele>1241.3</ele>
        <time>2019-08-16T14:42:16Z</time>
      </trkpt>
      <trkpt lat="42.0355200" lon="-6.8546190">
        <ele>1240.8</ele>
        <time>2019-08-16T14:42:17Z</time>
      </trkpt>
      <trkpt lat="42.0355470" lon="-6.8547160">
        <ele>1240.3</ele>
        <time>2019-08-16T14:42:18Z</time>
      </trkpt>
      <trkpt lat="42.0355750" lon="-6.8548130">
        <ele>1239.8</ele>
        <time>2019-08-16T14:42:19Z</time>
      </trkpt>
      <trkpt lat="42.0356020" lon="-6.8549100">
        <ele>1239.3</ele>
        <time>2019-08-16T14:42:20Z</time>
      </trkpt>
      <trkpt lat="42.0356300" lon="-6.8550070">
        <ele>1238.9</ele>
        <time>2019-08-16T14:42:21Z</time>
      </trkpt>
      <trkpt lat="42.0356570" lon="-6.8551030">
        <ele>1238.5</ele>
        <time>2019-08-16T14:42:22Z</time>
      </trkpt>
      <trkpt lat="42.0356860" lon="-6.8551990">
        <ele>1238.1</ele>
        <time>2019-08-16T14:42:23Z</time>
      </trkpt>
      <trkpt lat="42.0357140" lon="-6.8552950">
        <ele>1237.7</ele>
        <time>2019-08-16T14:42:24Z</time>
      </trkpt>
      <trkpt lat="42.0357410" lon="-6.8553910">
        <ele>1237.3</ele>
        <time>2019-08-16T14:42:25Z</time>
      </trkpt>
      <trkpt lat="42.0357670" lon="-6.8554860">
        <ele>1236.9</ele>
        <time>2019-08-16T14:42:26Z</time>
      </trkpt>
      <trkpt lat="42.0357940" lon="-6.8555800">
        <ele>1236.4</ele>
        <time>2019-08-16T14:42:27Z</time>
      </trkpt>
      <trkpt lat="42.0358210" lon="-6.8556740">
        <ele>1236.0</ele>
        <time>2019-08-16T14:42:28Z</time>
      </trkpt>
      <trkpt lat="42.0358480" lon="-6.8557690">
        <ele>1235.6</ele>
        <time>2019-08-16T14:42:29Z</time>
      </trkpt>
      <trkpt lat="42.0358750" lon="-6.8558660">
        <ele>1235.2</ele>
        <time>2019-08-16T14:42:30Z</time>
      </trkpt>
      <trkpt lat="42.0359030" lon="-6.8559620">
        <ele>1234.9</ele>
        <time>2019-08-16T14:42:31Z</time>
      </trkpt>
      <trkpt lat="42.0359360" lon="-6.8560610">
        <ele>1234.5</ele>
        <time>2019-08-16T14:42:32Z</time>
      </trkpt>
      <trkpt lat="42.0359700" lon="-6.8561590">
        <ele>1234.1</ele>
        <time>2019-08-16T14:42:33Z</time>
      </trkpt>
      <trkpt lat="42.0360040" lon="-6.8562570">
        <ele>1233.8</ele>
        <time>2019-08-16T14:42:34Z</time>
      </trkpt>
      <trkpt lat="42.0360380" lon="-6.8563540">
        <ele>1233.3</ele>
        <time>2019-08-16T14:42:35Z</time>
      </trkpt>
      <trkpt lat="42.0360720" lon="-6.8564500">
        <ele>1232.9</ele>
        <time>2019-08-16T14:42:36Z</time>
      </trkpt>
      <trkpt lat="42.0361050" lon="-6.8565440">
        <ele>1232.5</ele>
        <time>2019-08-16T14:42:37Z</time>
      </trkpt>
      <trkpt lat="42.0361390" lon="-6.8566400">
        <ele>1232.2</ele>
        <time>2019-08-16T14:42:38Z</time>
      </trkpt>
      <trkpt lat="42.0361730" lon="-6.8567350">
        <ele>1231.9</ele>
        <time>2019-08-16T14:42:39Z</time>
      </trkpt>
      <trkpt lat="42.0362060" lon="-6.8568300">
        <ele>1231.6</ele>
        <time>2019-08-16T14:42:40Z</time>
      </trkpt>
      <trkpt lat="42.0362400" lon="-6.8569260">
        <ele>1231.3</ele>
        <time>2019-08-16T14:42:41Z</time>
      </trkpt>
      <trkpt lat="42.0362740" lon="-6.8570230">
        <ele>1231.0</ele>
        <time>2019-08-16T14:42:42Z</time>
      </trkpt>
      <trkpt lat="42.0363040" lon="-6.8571210">
        <ele>1230.6</ele>
        <time>2019-08-16T14:42:43Z</time>
      </trkpt>
      <trkpt lat="42.0363350" lon="-6.8572180">
        <ele>1230.3</ele>
        <time>2019-08-16T14:42:44Z</time>
      </trkpt>
      <trkpt lat="42.0363680" lon="-6.8573140">
        <ele>1229.9</ele>
        <time>2019-08-16T14:42:45Z</time>
      </trkpt>
      <trkpt lat="42.0364010" lon="-6.8574080">
        <ele>1229.4</ele>
        <time>2019-08-16T14:42:46Z</time>
      </trkpt>
      <trkpt lat="42.0364320" lon="-6.8575030">
        <ele>1228.8</ele>
        <time>2019-08-16T14:42:47Z</time>
      </trkpt>
      <trkpt lat="42.0364630" lon="-6.8575980">
        <ele>1228.3</ele>
        <time>2019-08-16T14:42:48Z</time>
      </trkpt>
      <trkpt lat="42.0364940" lon="-6.8576920">
        <ele>1227.8</ele>
        <time>2019-08-16T14:42:49Z</time>
      </trkpt>
      <trkpt lat="42.0365240" lon="-6.8577870">
        <ele>1227.3</ele>
        <time>2019-08-16T14:42:50Z</time>
      </trkpt>
      <trkpt lat="42.0365550" lon="-6.8578820">
        <ele>1226.8</ele>
        <time>2019-08-16T14:42:51Z</time>
      </trkpt>
      <trkpt lat="42.0365860" lon="-6.8579780">
        <ele>1226.2</ele>
        <time>2019-08-16T14:42:52Z</time>
      </trkpt>
      <trkpt lat="42.0366160" lon="-6.8580750">
        <ele>1225.5</ele>
        <time>2019-08-16T14:42:53Z</time>
      </trkpt>
      <trkpt lat="42.0366430" lon="-6.8581700">
        <ele>1224.9</ele>
        <time>2019-08-16T14:42:54Z</time>
      </trkpt>
      <trkpt lat="42.0366680" lon="-6.8582640">
        <ele>1224.4</ele>
        <time>2019-08-16T14:42:55Z</time>
      </trkpt>
      <trkpt lat="42.0366910" lon="-6.8583580">
        <ele>1223.9</ele>
        <time>2019-08-16T14:42:56Z</time>
      </trkpt>
      <trkpt lat="42.0367110" lon="-6.8584510">
        <ele>1223.6</ele>
        <time>2019-08-16T14:42:57Z</time>
      </trkpt>
      <trkpt lat="42.0367290" lon="-6.8585430">
        <ele>1223.3</ele>
        <time>2019-08-16T14:42:58Z</time>
      </trkpt>
      <trkpt lat="42.0367440" lon="-6.8586330">
        <ele>1223.0</ele>
        <time>2019-08-16T14:42:59Z</time>
      </trkpt>
      <trkpt lat="42.0367590" lon="-6.8587220">
        <ele>1222.8</ele>
        <time>2019-08-16T14:43:00Z</time>
      </trkpt>
      <trkpt lat="42.0367720" lon="-6.8588070">
        <ele>1222.6</ele>
        <time>2019-08-16T14:43:01Z</time>
      </trkpt>
      <trkpt lat="42.0367830" lon="-6.8588870">
        <ele>1222.4</ele>
        <time>2019-08-16T14:43:02Z</time>
      </trkpt>
      <trkpt lat="42.0367940" lon="-6.8589580">
        <ele>1222.2</ele>
        <time>2019-08-16T14:43:03Z</time>
      </trkpt>
      <trkpt lat="42.0368040" lon="-6.8590190">
        <ele>1222.1</ele>
        <time>2019-08-16T14:43:04Z</time>
      </trkpt>
      <trkpt lat="42.0368160" lon="-6.8590680">
        <ele>1221.9</ele>
        <time>2019-08-16T14:43:05Z</time>
      </trkpt>
      <trkpt lat="42.0368270" lon="-6.8591090">
        <ele>1221.8</ele>
        <time>2019-08-16T14:43:06Z</time>
      </trkpt>
      <trkpt lat="42.0368370" lon="-6.8591440">
        <ele>1222.0</ele>
        <time>2019-08-16T14:43:07Z</time>
      </trkpt>
      <trkpt lat="42.0368450" lon="-6.8591770">
        <ele>1222.2</ele>
        <time>2019-08-16T14:43:08Z</time>
      </trkpt>
      <trkpt lat="42.0368650" lon="-6.8592240">
        <ele>1222.5</ele>
        <time>2019-08-16T14:43:10Z</time>
      </trkpt>
      <trkpt lat="42.0368810" lon="-6.8592470">
        <ele>1222.6</ele>
        <time>2019-08-16T14:43:12Z</time>
      </trkpt>
      <trkpt lat="42.0368960" lon="-6.8592750">
        <ele>1222.8</ele>
        <time>2019-08-16T14:43:15Z</time>
      </trkpt>
      <trkpt lat="42.0369240" lon="-6.8593150">
        <ele>1223.1</ele>
        <time>2019-08-16T14:43:22Z</time>
      </trkpt>
      <trkpt lat="42.0369650" lon="-6.8593630">
        <ele>1222.5</ele>
        <time>2019-08-16T14:43:24Z</time>
      </trkpt>
      <trkpt lat="42.0369960" lon="-6.8593910">
        <ele>1222.2</ele>
        <time>2019-08-16T14:43:25Z</time>
      </trkpt>
      <trkpt lat="42.0370340" lon="-6.8594220">
        <ele>1221.8</ele>
        <time>2019-08-16T14:43:26Z</time>
      </trkpt>
      <trkpt lat="42.0370760" lon="-6.8594570">
        <ele>1221.4</ele>
        <time>2019-08-16T14:43:27Z</time>
      </trkpt>
      <trkpt lat="42.0371220" lon="-6.8594960">
        <ele>1220.9</ele>
        <time>2019-08-16T14:43:28Z</time>
      </trkpt>
      <trkpt lat="42.0371700" lon="-6.8595390">
        <ele>1220.5</ele>
        <time>2019-08-16T14:43:29Z</time>
      </trkpt>
      <trkpt lat="42.0372210" lon="-6.8595840">
        <ele>1220.0</ele>
        <time>2019-08-16T14:43:30Z</time>
      </trkpt>
      <trkpt lat="42.0372740" lon="-6.8596320">
        <ele>1219.5</ele>
        <time>2019-08-16T14:43:31Z</time>
      </trkpt>
      <trkpt lat="42.0373270" lon="-6.8596820">
        <ele>1219.0</ele>
        <time>2019-08-16T14:43:32Z</time>
      </trkpt>
      <trkpt lat="42.0373830" lon="-6.8597330">
        <ele>1218.5</ele>
        <time>2019-08-16T14:43:33Z</time>
      </trkpt>
      <trkpt lat="42.0374400" lon="-6.8597870">
        <ele>1218.1</ele>
        <time>2019-08-16T14:43:34Z</time>
      </trkpt>
      <trkpt lat="42.0374950" lon="-6.8598430">
        <ele>1217.7</ele>
        <time>2019-08-16T14:43:35Z</time>
      </trkpt>
      <trkpt lat="42.0375510" lon="-6.8599050">
        <ele>1217.2</ele>
        <time>2019-08-16T14:43:36Z</time>
      </trkpt>
      <trkpt lat="42.0376050" lon="-6.8599710">
        <ele>1216.8</ele>
        <time>2019-08-16T14:43:37Z</time>
      </trkpt>
      <trkpt lat="42.0376530" lon="-6.8600440">
        <ele>1216.4</ele>
        <time>2019-08-16T14:43:38Z</time>
      </trkpt>
      <trkpt lat="42.0376940" lon="-6.8601190">
        <ele>1216.0</ele>
        <time>2019-08-16T14:43:39Z</time>
      </trkpt>
      <trkpt lat="42.0377300" lon="-6.8601940">
        <ele>1215.6</ele>
        <time>2019-08-16T14:43:40Z</time>
      </trkpt>
      <trkpt lat="42.0377630" lon="-6.8602670">
        <ele>1215.2</ele>
        <time>2019-08-16T14:43:41Z</time>
      </trkpt>
      <trkpt lat="42.0377950" lon="-6.8603390">
        <ele>1214.7</ele>
        <time>2019-08-16T14:43:42Z</time>
      </trkpt>
      <trkpt lat="42.0378260" lon="-6.8604100">
        <ele>1214.3</ele>
        <time>2019-08-16T14:43:43Z</time>
      </trkpt>
      <trkpt lat="42.0378580" lon="-6.8604810">
        <ele>1213.8</ele>
        <time>2019-08-16T14:43:44Z</time>
      </trkpt>
      <trkpt lat="42.0378930" lon="-6.8605490">
        <ele>1213.4</ele>
        <time>2019-08-16T14:43:45Z</time>
      </trkpt>
      <trkpt lat="42.0379320" lon="-6.8606150">
        <ele>1212.9</ele>
        <time>2019-08-16T14:43:46Z</time>
      </trkpt>
      <trkpt lat="42.0379760" lon="-6.8606740">
        <ele>1212.4</ele>
        <time>2019-08-16T14:43:47Z</time>
      </trkpt>
      <trkpt lat="42.0380240" lon="-6.8607260">
        <ele>1211.9</ele>
        <time>2019-08-16T14:43:48Z</time>
      </trkpt>
      <trkpt lat="42.0380750" lon="-6.8607780">
        <ele>1211.4</ele>
        <time>2019-08-16T14:43:49Z</time>
      </trkpt>
      <trkpt lat="42.0381270" lon="-6.8608220">
        <ele>1210.9</ele>
        <time>2019-08-16T14:43:50Z</time>
      </trkpt>
      <trkpt lat="42.0381790" lon="-6.8608630">
        <ele>1210.4</ele>
        <time>2019-08-16T14:43:51Z</time>
      </trkpt>
      <trkpt lat="42.0382310" lon="-6.8609050">
        <ele>1210.0</ele>
        <time>2019-08-16T14:43:52Z</time>
      </trkpt>
      <trkpt lat="42.0382820" lon="-6.8609500">
        <ele>1209.5</ele>
        <time>2019-08-16T14:43:53Z</time>
      </trkpt>
      <trkpt lat="42.0383330" lon="-6.8609960">
        <ele>1209.1</ele>
        <time>2019-08-16T14:43:54Z</time>
      </trkpt>
      <trkpt lat="42.0383850" lon="-6.8610420">
        <ele>1208.7</ele>
        <time>2019-08-16T14:43:55Z</time>
      </trkpt>
      <trkpt lat="42.0384390" lon="-6.8610910">
        <ele>1208.2</ele>
        <time>2019-08-16T14:43:56Z</time>
      </trkpt>
      <trkpt lat="42.0384900" lon="-6.8611440">
        <ele>1207.8</ele>
        <time>2019-08-16T14:43:57Z</time>
      </trkpt>
      <trkpt lat="42.0385410" lon="-6.8612040">
        <ele>1207.4</ele>
        <time>2019-08-16T14:43:58Z</time>
      </trkpt>
      <trkpt lat="42.0385890" lon="-6.8612690">
        <ele>1207.0</ele>
        <time>2019-08-16T14:43:59Z</time>
      </trkpt>
      <trkpt lat="42.0386300" lon="-6.8613380">
        <ele>1206.6</ele>
        <time>2019-08-16T14:44:00Z</time>
      </trkpt>
      <trkpt lat="42.0386700" lon="-6.8614050">
        <ele>1206.3</ele>
        <time>2019-08-16T14:44:01Z</time>
      </trkpt>
      <trkpt lat="42.0387090" lon="-6.8614740">
        <ele>1205.9</ele>
        <time>2019-08-16T14:44:02Z</time>
      </trkpt>
      <trkpt lat="42.0387470" lon="-6.8615450">
        <ele>1205.5</ele>
        <time>2019-08-16T14:44:03Z</time>
      </trkpt>
      <trkpt lat="42.0387830" lon="-6.8616190">
        <ele>1205.1</ele>
        <time>2019-08-16T14:44:04Z</time>
      </trkpt>
      <trkpt lat="42.0388160" lon="-6.8616930">
        <ele>1204.7</ele>
        <time>2019-08-16T14:44:05Z</time>
      </trkpt>
      <trkpt lat="42.0388500" lon="-6.8617690">
        <ele>1204.3</ele>
        <time>2019-08-16T14:44:06Z</time>
      </trkpt>
      <trkpt lat="42.0388830" lon="-6.8618440">
        <ele>1203.8</ele>
        <time>2019-08-16T14:44:07Z</time>
      </trkpt>
      <trkpt lat="42.0389160" lon="-6.8619210">
        <ele>1203.4</ele>
        <time>2019-08-16T14:44:08Z</time>
      </trkpt>
      <trkpt lat="42.0389460" lon="-6.8620040">
        <ele>1203.0</ele>
        <time>2019-08-16T14:44:09Z</time>
      </trkpt>
      <trkpt lat="42.0389700" lon="-6.8620930">
        <ele>1202.5</ele>
        <time>2019-08-16T14:44:10Z</time>
      </trkpt>
      <trkpt lat="42.0389880" lon="-6.8621850">
        <ele>1202.1</ele>
        <time>2019-08-16T14:44:11Z</time>
      </trkpt>
      <trkpt lat="42.0389960" lon="-6.8622790">
        <ele>1201.7</ele>
        <time>2019-08-16T14:44:12Z</time>
      </trkpt>
      <trkpt lat="42.0389970" lon="-6.8623760">
        <ele>1201.3</ele>
        <time>2019-08-16T14:44:13Z</time>
      </trkpt>
      <trkpt lat="42.0389910" lon="-6.8624740">
        <ele>1200.9</ele>
        <time>2019-08-16T14:44:14Z</time>
      </trkpt>
      <trkpt lat="42.0389770" lon="-6.8625700">
        <ele>1200.5</ele>
        <time>2019-08-16T14:44:15Z</time>
      </trkpt>
      <trkpt lat="42.0389620" lon="-6.8626670">
        <ele>1200.1</ele>
        <time>2019-08-16T14:44:16Z</time>
      </trkpt>
      <trkpt lat="42.0389460" lon="-6.8627620">
        <ele>1199.7</ele>
        <time>2019-08-16T14:44:17Z</time>
      </trkpt>
      <trkpt lat="42.0389310" lon="-6.8628580">
        <ele>1199.4</ele>
        <time>2019-08-16T14:44:18Z</time>
      </trkpt>
      <trkpt lat="42.0389170" lon="-6.8629520">
        <ele>1199.0</ele>
        <time>2019-08-16T14:44:19Z</time>
      </trkpt>
      <trkpt lat="42.0389020" lon="-6.8630470">
        <ele>1198.7</ele>
        <time>2019-08-16T14:44:20Z</time>
      </trkpt>
      <trkpt lat="42.0388840" lon="-6.8631410">
        <ele>1198.3</ele>
        <time>2019-08-16T14:44:21Z</time>
      </trkpt>
      <trkpt lat="42.0388670" lon="-6.8632340">
        <ele>1197.9</ele>
        <time>2019-08-16T14:44:22Z</time>
      </trkpt>
      <trkpt lat="42.0388500" lon="-6.8633260">
        <ele>1197.6</ele>
        <time>2019-08-16T14:44:23Z</time>
      </trkpt>
      <trkpt lat="42.0388340" lon="-6.8634190">
        <ele>1197.2</ele>
        <time>2019-08-16T14:44:24Z</time>
      </trkpt>
      <trkpt lat="42.0388180" lon="-6.8635110">
        <ele>1196.8</ele>
        <time>2019-08-16T14:44:25Z</time>
      </trkpt>
      <trkpt lat="42.0388010" lon="-6.8636020">
        <ele>1196.5</ele>
        <time>2019-08-16T14:44:26Z</time>
      </trkpt>
      <trkpt lat="42.0387850" lon="-6.8636920">
        <ele>1196.1</ele>
        <time>2019-08-16T14:44:27Z</time>
      </trkpt>
      <trkpt lat="42.0387670" lon="-6.8637800">
        <ele>1195.7</ele>
        <time>2019-08-16T14:44:28Z</time>
      </trkpt>
      <trkpt lat="42.0387480" lon="-6.8638650">
        <ele>1195.4</ele>
        <time>2019-08-16T14:44:29Z</time>
      </trkpt>
      <trkpt lat="42.0387280" lon="-6.8639490">
        <ele>1195.0</ele>
        <time>2019-08-16T14:44:30Z</time>
      </trkpt>
      <trkpt lat="42.0387050" lon="-6.8640300">
        <ele>1194.7</ele>
        <time>2019-08-16T14:44:31Z</time>
      </trkpt>
      <trkpt lat="42.0386810" lon="-6.8641090">
        <ele>1194.3</ele>
        <time>2019-08-16T14:44:32Z</time>
      </trkpt>
      <trkpt lat="42.0386550" lon="-6.8641860">
        <ele>1193.9</ele>
        <time>2019-08-16T14:44:33Z</time>
      </trkpt>
      <trkpt lat="42.0386250" lon="-6.8642590">
        <ele>1193.6</ele>
        <time>2019-08-16T14:44:34Z</time>
      </trkpt>
      <trkpt lat="42.0385910" lon="-6.8643270">
        <ele>1193.2</ele>
        <time>2019-08-16T14:44:35Z</time>
      </trkpt>
      <trkpt lat="42.0385540" lon="-6.8643900">
        <ele>1192.8</ele>
        <time>2019-08-16T14:44:36Z</time>
      </trkpt>
      <trkpt lat="42.0385140" lon="-6.8644500">
        <ele>1192.4</ele>
        <time>2019-08-16T14:44:37Z</time>
      </trkpt>
      <trkpt lat="42.0384730" lon="-6.8645090">
        <ele>1192.1</ele>
        <time>2019-08-16T14:44:38Z</time>
      </trkpt>
      <trkpt lat="42.0384320" lon="-6.8645700">
        <ele>1191.7</ele>
        <time>2019-08-16T14:44:39Z</time>
      </trkpt>
      <trkpt lat="42.0383970" lon="-6.8646320">
        <ele>1191.4</ele>
        <time>2019-08-16T14:44:40Z</time>
      </trkpt>
      <trkpt lat="42.0383680" lon="-6.8646910">
        <ele>1191.1</ele>
        <time>2019-08-16T14:44:41Z</time>
      </trkpt>
      <trkpt lat="42.0383470" lon="-6.8647510">
        <ele>1190.8</ele>
        <time>2019-08-16T14:44:42Z</time>
      </trkpt>
      <trkpt lat="42.0383290" lon="-6.8648080">
        <ele>1190.5</ele>
        <time>2019-08-16T14:44:43Z</time>
      </trkpt>
      <trkpt lat="42.0383150" lon="-6.8648650">
        <ele>1190.2</ele>
        <time>2019-08-16T14:44:44Z</time>
      </trkpt>
      <trkpt lat="42.0383060" lon="-6.8649220">
        <ele>1189.9</ele>
        <time>2019-08-16T14:44:45Z</time>
      </trkpt>
      <trkpt lat="42.0383050" lon="-6.8649840">
        <ele>1189.7</ele>
        <time>2019-08-16T14:44:46Z</time>
      </trkpt>
      <trkpt lat="42.0383110" lon="-6.8650500">
        <ele>1189.4</ele>
        <time>2019-08-16T14:44:47Z</time>
      </trkpt>
      <trkpt lat="42.0383190" lon="-6.8651180">
        <ele>1189.0</ele>
        <time>2019-08-16T14:44:48Z</time>
      </trkpt>
      <trkpt lat="42.0383280" lon="-6.8651880">
        <ele>1188.7</ele>
        <time>2019-08-16T14:44:49Z</time>
      </trkpt>
      <trkpt lat="42.0383360" lon="-6.8652590">
        <ele>1188.3</ele>
        <time>2019-08-16T14:44:50Z</time>
      </trkpt>
      <trkpt lat="42.0383440" lon="-6.8653300">
        <ele>1187.9</ele>
        <time>2019-08-16T14:44:51Z</time>
      </trkpt>
      <trkpt lat="42.0383560" lon="-6.8653990">
        <ele>1187.5</ele>
        <time>2019-08-16T14:44:52Z</time>
      </trkpt>
      <trkpt lat="42.0383740" lon="-6.8654650">
        <ele>1187.1</ele>
        <time>2019-08-16T14:44:53Z</time>
      </trkpt>
      <trkpt lat="42.0383940" lon="-6.8655270">
        <ele>1186.8</ele>
        <time>2019-08-16T14:44:54Z</time>
      </trkpt>
      <trkpt lat="42.0384140" lon="-6.8655840">
        <ele>1186.4</ele>
        <time>2019-08-16T14:44:55Z</time>
      </trkpt>
      <trkpt lat="42.0384330" lon="-6.8656330">
        <ele>1186.1</ele>
        <time>2019-08-16T14:44:56Z</time>
      </trkpt>
      <trkpt lat="42.0384480" lon="-6.8656740">
        <ele>1185.8</ele>
        <time>2019-08-16T14:44:57Z</time>
      </trkpt>
      <trkpt lat="42.0384590" lon="-6.8657030">
        <ele>1185.6</ele>
        <time>2019-08-16T14:44:58Z</time>
      </trkpt>
      <trkpt lat="42.0384650" lon="-6.8657210">
        <ele>1185.5</ele>
        <time>2019-08-16T14:45:00Z</time>
      </trkpt>
      <trkpt lat="42.0385380" lon="-6.8658350">
        <ele>1184.7</ele>
        <time>2019-08-16T14:47:35Z</time>
      </trkpt>
      <trkpt lat="42.0385790" lon="-6.8658810">
        <ele>1184.4</ele>
        <time>2019-08-16T14:47:37Z</time>
      </trkpt>
      <trkpt lat="42.0386050" lon="-6.8659030">
        <ele>1184.1</ele>
        <time>2019-08-16T14:47:38Z</time>
      </trkpt>
      <trkpt lat="42.0386320" lon="-6.8659250">
        <ele>1184.1</ele>
        <time>2019-08-16T14:47:39Z</time>
      </trkpt>
      <trkpt lat="42.0386580" lon="-6.8659500">
        <ele>1184.0</ele>
        <time>2019-08-16T14:47:40Z</time>
      </trkpt>
      <trkpt lat="42.0386810" lon="-6.8659760">
        <ele>1184.0</ele>
        <time>2019-08-16T14:47:41Z</time>
      </trkpt>
      <trkpt lat="42.0387020" lon="-6.8660030">
        <ele>1183.9</ele>
        <time>2019-08-16T14:47:42Z</time>
      </trkpt>
      <trkpt lat="42.0387230" lon="-6.8660310">
        <ele>1183.9</ele>
        <time>2019-08-16T14:47:43Z</time>
      </trkpt>
      <trkpt lat="42.0387440" lon="-6.8660610">
        <ele>1183.8</ele>
        <time>2019-08-16T14:47:44Z</time>
      </trkpt>
      <trkpt lat="42.0387660" lon="-6.8660930">
        <ele>1183.7</ele>
        <time>2019-08-16T14:47:45Z</time>
      </trkpt>
      <trkpt lat="42.0387900" lon="-6.8661250">
        <ele>1183.7</ele>
        <time>2019-08-16T14:47:46Z</time>
      </trkpt>
      <trkpt lat="42.0388160" lon="-6.8661600">
        <ele>1183.6</ele>
        <time>2019-08-16T14:47:47Z</time>
      </trkpt>
      <trkpt lat="42.0388440" lon="-6.8661970">
        <ele>1183.5</ele>
        <time>2019-08-16T14:47:48Z</time>
      </trkpt>
      <trkpt lat="42.0388720" lon="-6.8662360">
        <ele>1183.5</ele>
        <time>2019-08-16T14:47:49Z</time>
      </trkpt>
      <trkpt lat="42.0389010" lon="-6.8662760">
        <ele>1183.4</ele>
        <time>2019-08-16T14:47:50Z</time>
      </trkpt>
      <trkpt lat="42.0389330" lon="-6.8663180">
        <ele>1183.3</ele>
        <time>2019-08-16T14:47:51Z</time>
      </trkpt>
      <trkpt lat="42.0389650" lon="-6.8663610">
        <ele>1183.2</ele>
        <time>2019-08-16T14:47:52Z</time>
      </trkpt>
      <trkpt lat="42.0389980" lon="-6.8664040">
        <ele>1183.1</ele>
        <time>2019-08-16T14:47:53Z</time>
      </trkpt>
      <trkpt lat="42.0390310" lon="-6.8664490">
        <ele>1183.0</ele>
        <time>2019-08-16T14:47:54Z</time>
      </trkpt>
      <trkpt lat="42.0390650" lon="-6.8664960">
        <ele>1182.8</ele>
        <time>2019-08-16T14:47:55Z</time>
      </trkpt>
      <trkpt lat="42.0390990" lon="-6.8665440">
        <ele>1182.7</ele>
        <time>2019-08-16T14:47:56Z</time>
      </trkpt>
      <trkpt lat="42.0391310" lon="-6.8665900">
        <ele>1182.6</ele>
        <time>2019-08-16T14:47:57Z</time>
      </trkpt>
      <trkpt lat="42.0391640" lon="-6.8666330">
        <ele>1182.5</ele>
        <time>2019-08-16T14:47:58Z</time>
      </trkpt>
      <trkpt lat="42.0391970" lon="-6.8666770">
        <ele>1182.4</ele>
        <time>2019-08-16T14:47:59Z</time>
      </trkpt>
      <trkpt lat="42.0392300" lon="-6.8667220">
        <ele>1182.3</ele>
        <time>2019-08-16T14:48:00Z</time>
      </trkpt>
      <trkpt lat="42.0392620" lon="-6.8667680">
        <ele>1182.2</ele>
        <time>2019-08-16T14:48:01Z</time>
      </trkpt>
      <trkpt lat="42.0392960" lon="-6.8668140">
        <ele>1182.1</ele>
        <time>2019-08-16T14:48:02Z</time>
      </trkpt>
      <trkpt lat="42.0393320" lon="-6.8668570">
        <ele>1182.0</ele>
        <time>2019-08-16T14:48:03Z</time>
      </trkpt>
      <trkpt lat="42.0393700" lon="-6.8669020">
        <ele>1181.9</ele>
        <time>2019-08-16T14:48:04Z</time>
      </trkpt>
      <trkpt lat="42.0394070" lon="-6.8669470">
        <ele>1181.8</ele>
        <time>2019-08-16T14:48:05Z</time>
      </trkpt>
      <trkpt lat="42.0394420" lon="-6.8669940">
        <ele>1181.7</ele>
        <time>2019-08-16T14:48:06Z</time>
      </trkpt>
      <trkpt lat="42.0394790" lon="-6.8670430">
        <ele>1181.6</ele>
        <time>2019-08-16T14:48:07Z</time>
      </trkpt>
      <trkpt lat="42.0395130" lon="-6.8670930">
        <ele>1181.5</ele>
        <time>2019-08-16T14:48:08Z</time>
      </trkpt>
      <trkpt lat="42.0395460" lon="-6.8671380">
        <ele>1181.4</ele>
        <time>2019-08-16T14:48:09Z</time>
      </trkpt>
      <trkpt lat="42.0395800" lon="-6.8671820">
        <ele>1181.3</ele>
        <time>2019-08-16T14:48:10Z</time>
      </trkpt>
      <trkpt lat="42.0396160" lon="-6.8672280">
        <ele>1181.2</ele>
        <time>2019-08-16T14:48:11Z</time>
      </trkpt>
      <trkpt lat="42.0396520" lon="-6.8672770">
        <ele>1181.1</ele>
        <time>2019-08-16T14:48:12Z</time>
      </trkpt>
      <trkpt lat="42.0396900" lon="-6.8673250">
        <ele>1181.0</ele>
        <time>2019-08-16T14:48:13Z</time>
      </trkpt>
      <trkpt lat="42.0397300" lon="-6.8673730">
        <ele>1180.9</ele>
        <time>2019-08-16T14:48:14Z</time>
      </trkpt>
      <trkpt lat="42.0397740" lon="-6.8674160">
        <ele>1180.8</ele>
        <time>2019-08-16T14:48:15Z</time>
      </trkpt>
      <trkpt lat="42.0398190" lon="-6.8674570">
        <ele>1180.7</ele>
        <time>2019-08-16T14:48:16Z</time>
      </trkpt>
      <trkpt lat="42.0398660" lon="-6.8674960">
        <ele>1180.5</ele>
        <time>2019-08-16T14:48:17Z</time>
      </trkpt>
      <trkpt lat="42.0399130" lon="-6.8675350">
        <ele>1180.4</ele>
        <time>2019-08-16T14:48:18Z</time>
      </trkpt>
      <trkpt lat="42.0399600" lon="-6.8675740">
        <ele>1180.3</ele>
        <time>2019-08-16T14:48:19Z</time>
      </trkpt>
      <trkpt lat="42.0400050" lon="-6.8676150">
        <ele>1180.2</ele>
        <time>2019-08-16T14:48:20Z</time>
      </trkpt>
      <trkpt lat="42.0400500" lon="-6.8676580">
        <ele>1180.1</ele>
        <time>2019-08-16T14:48:21Z</time>
      </trkpt>
      <trkpt lat="42.0400920" lon="-6.8677080">
        <ele>1180.0</ele>
        <time>2019-08-16T14:48:22Z</time>
      </trkpt>
      <trkpt lat="42.0401300" lon="-6.8677640">
        <ele>1179.8</ele>
        <time>2019-08-16T14:48:23Z</time>
      </trkpt>
      <trkpt lat="42.0401610" lon="-6.8678290">
        <ele>1179.7</ele>
        <time>2019-08-16T14:48:24Z</time>
      </trkpt>
      <trkpt lat="42.0401800" lon="-6.8679010">
        <ele>1179.5</ele>
        <time>2019-08-16T14:48:25Z</time>
      </trkpt>
      <trkpt lat="42.0401880" lon="-6.8679750">
        <ele>1179.4</ele>
        <time>2019-08-16T14:48:26Z</time>
      </trkpt>
      <trkpt lat="42.0401890" lon="-6.8680530">
        <ele>1179.2</ele>
        <time>2019-08-16T14:48:27Z</time>
      </trkpt>
      <trkpt lat="42.0401900" lon="-6.8681320">
        <ele>1179.0</ele>
        <time>2019-08-16T14:48:28Z</time>
      </trkpt>
      <trkpt lat="42.0401860" lon="-6.8682110">
        <ele>1178.9</ele>
        <time>2019-08-16T14:48:29Z</time>
      </trkpt>
      <trkpt lat="42.0401780" lon="-6.8682890">
        <ele>1178.7</ele>
        <time>2019-08-16T14:48:30Z</time>
      </trkpt>
      <trkpt lat="42.0401680" lon="-6.8683650">
        <ele>1178.5</ele>
        <time>2019-08-16T14:48:31Z</time>
      </trkpt>
      <trkpt lat="42.0401580" lon="-6.8684410">
        <ele>1178.3</ele>
        <time>2019-08-16T14:48:32Z</time>
      </trkpt>
      <trkpt lat="42.0401490" lon="-6.8685150">
        <ele>1178.1</ele>
        <time>2019-08-16T14:48:33Z</time>
      </trkpt>
      <trkpt lat="42.0401410" lon="-6.8685890">
        <ele>1178.0</ele>
        <time>2019-08-16T14:48:34Z</time>
      </trkpt>
      <trkpt lat="42.0401340" lon="-6.8686640">
        <ele>1177.8</ele>
        <time>2019-08-16T14:48:35Z</time>
      </trkpt>
      <trkpt lat="42.0401280" lon="-6.8687400">
        <ele>1177.6</ele>
        <time>2019-08-16T14:48:36Z</time>
      </trkpt>
      <trkpt lat="42.0401240" lon="-6.8688180">
        <ele>1177.4</ele>
        <time>2019-08-16T14:48:37Z</time>
      </trkpt>
      <trkpt lat="42.0401230" lon="-6.8688980">
        <ele>1177.2</ele>
        <time>2019-08-16T14:48:38Z</time>
      </trkpt>
      <trkpt lat="42.0401270" lon="-6.8689790">
        <ele>1177.0</ele>
        <time>2019-08-16T14:48:39Z</time>
      </trkpt>
      <trkpt lat="42.0401340" lon="-6.8690590">
        <ele>1176.9</ele>
        <time>2019-08-16T14:48:40Z</time>
      </trkpt>
      <trkpt lat="42.0401430" lon="-6.8691400">
        <ele>1176.7</ele>
        <time>2019-08-16T14:48:41Z</time>
      </trkpt>
      <trkpt lat="42.0401530" lon="-6.8692210">
        <ele>1176.5</ele>
        <time>2019-08-16T14:48:42Z</time>
      </trkpt>
      <trkpt lat="42.0401650" lon="-6.8693020">
        <ele>1176.4</ele>
        <time>2019-08-16T14:48:43Z</time>
      </trkpt>
      <trkpt lat="42.0401750" lon="-6.8693830">
        <ele>1176.2</ele>
        <time>2019-08-16T14:48:44Z</time>
      </trkpt>
      <trkpt lat="42.0401860" lon="-6.8694630">
        <ele>1176.1</ele>
        <time>2019-08-16T14:48:45Z</time>
      </trkpt>
      <trkpt lat="42.0401970" lon="-6.8695450">
        <ele>1175.9</ele>
        <time>2019-08-16T14:48:46Z</time>
      </trkpt>
      <trkpt lat="42.0402060" lon="-6.8696280">
        <ele>1175.7</ele>
        <time>2019-08-16T14:48:47Z</time>
      </trkpt>
      <trkpt lat="42.0402160" lon="-6.8697130">
        <ele>1175.5</ele>
        <time>2019-08-16T14:48:48Z</time>
      </trkpt>
      <trkpt lat="42.0402290" lon="-6.8697970">
        <ele>1175.3</ele>
        <time>2019-08-16T14:48:49Z</time>
      </trkpt>
      <trkpt lat="42.0402430" lon="-6.8698820">
        <ele>1175.1</ele>
        <time>2019-08-16T14:48:50Z</time>
      </trkpt>
      <trkpt lat="42.0402550" lon="-6.8699660">
        <ele>1174.9</ele>
        <time>2019-08-16T14:48:51Z</time>
      </trkpt>
      <trkpt lat="42.0402670" lon="-6.8700490">
        <ele>1174.7</ele>
        <time>2019-08-16T14:48:52Z</time>
      </trkpt>
      <trkpt lat="42.0402810" lon="-6.8701360">
        <ele>1174.5</ele>
        <time>2019-08-16T14:48:53Z</time>
      </trkpt>
      <trkpt lat="42.0402980" lon="-6.8702230">
        <ele>1174.3</ele>
        <time>2019-08-16T14:48:54Z</time>
      </trkpt>
      <trkpt lat="42.0403210" lon="-6.8703080">
        <ele>1174.1</ele>
        <time>2019-08-16T14:48:55Z</time>
      </trkpt>
      <trkpt lat="42.0403490" lon="-6.8703940">
        <ele>1173.9</ele>
        <time>2019-08-16T14:48:56Z</time>
      </trkpt>
      <trkpt lat="42.0403830" lon="-6.8704780">
        <ele>1173.7</ele>
        <time>2019-08-16T14:48:57Z</time>
      </trkpt>
      <trkpt lat="42.0404240" lon="-6.8705600">
        <ele>1173.5</ele>
        <time>2019-08-16T14:48:58Z</time>
      </trkpt>
      <trkpt lat="42.0404720" lon="-6.8706380">
        <ele>1173.2</ele>
        <time>2019-08-16T14:48:59Z</time>
      </trkpt>
      <trkpt lat="42.0405240" lon="-6.8707110">
        <ele>1173.0</ele>
        <time>2019-08-16T14:49:00Z</time>
      </trkpt>
      <trkpt lat="42.0405790" lon="-6.8707810">
        <ele>1172.8</ele>
        <time>2019-08-16T14:49:01Z</time>
      </trkpt>
      <trkpt lat="42.0406370" lon="-6.8708480">
        <ele>1172.6</ele>
        <time>2019-08-16T14:49:02Z</time>
      </trkpt>
      <trkpt lat="42.0406970" lon="-6.8709140">
        <ele>1172.4</ele>
        <time>2019-08-16T14:49:03Z</time>
      </trkpt>
      <trkpt lat="42.0407550" lon="-6.8709790">
        <ele>1172.2</ele>
        <time>2019-08-16T14:49:04Z</time>
      </trkpt>
      <trkpt lat="42.0408120" lon="-6.8710390">
        <ele>1172.0</ele>
        <time>2019-08-16T14:49:05Z</time>
      </trkpt>
      <trkpt lat="42.0408680" lon="-6.8710990">
        <ele>1171.9</ele>
        <time>2019-08-16T14:49:06Z</time>
      </trkpt>
      <trkpt lat="42.0409190" lon="-6.8711600">
        <ele>1171.7</ele>
        <time>2019-08-16T14:49:07Z</time>
      </trkpt>
      <trkpt lat="42.0409690" lon="-6.8712190">
        <ele>1171.6</ele>
        <time>2019-08-16T14:49:08Z</time>
      </trkpt>
      <trkpt lat="42.0410190" lon="-6.8712770">
        <ele>1171.4</ele>
        <time>2019-08-16T14:49:09Z</time>
      </trkpt>
      <trkpt lat="42.0410640" lon="-6.8713380">
        <ele>1171.3</ele>
        <time>2019-08-16T14:49:10Z</time>
      </trkpt>
      <trkpt lat="42.0410990" lon="-6.8714090">
        <ele>1171.2</ele>
        <time>2019-08-16T14:49:11Z</time>
      </trkpt>
      <trkpt lat="42.0411230" lon="-6.8714890">
        <ele>1171.1</ele>
        <time>2019-08-16T14:49:12Z</time>
      </trkpt>
      <trkpt lat="42.0411280" lon="-6.8715760">
        <ele>1171.0</ele>
        <time>2019-08-16T14:49:13Z</time>
      </trkpt>
      <trkpt lat="42.0411180" lon="-6.8716610">
        <ele>1170.9</ele>
        <time>2019-08-16T14:49:14Z</time>
      </trkpt>
      <trkpt lat="42.0410950" lon="-6.8717430">
        <ele>1170.8</ele>
        <time>2019-08-16T14:49:15Z</time>
      </trkpt>
      <trkpt lat="42.0410690" lon="-6.8718240">
        <ele>1170.6</ele>
        <time>2019-08-16T14:49:16Z</time>
      </trkpt>
      <trkpt lat="42.0410420" lon="-6.8719040">
        <ele>1170.5</ele>
        <time>2019-08-16T14:49:17Z</time>
      </trkpt>
      <trkpt lat="42.0410130" lon="-6.8719870">
        <ele>1170.3</ele>
        <time>2019-08-16T14:49:18Z</time>
      </trkpt>
      <trkpt lat="42.0409850" lon="-6.8720730">
        <ele>1170.1</ele>
        <time>2019-08-16T14:49:19Z</time>
      </trkpt>
      <trkpt lat="42.0409570" lon="-6.8721640">
        <ele>1169.9</ele>
        <time>2019-08-16T14:49:20Z</time>
      </trkpt>
      <trkpt lat="42.0409310" lon="-6.8722570">
        <ele>1169.7</ele>
        <time>2019-08-16T14:49:21Z</time>
      </trkpt>
      <trkpt lat="42.0409080" lon="-6.8723550">
        <ele>1169.3</ele>
        <time>2019-08-16T14:49:22Z</time>
      </trkpt>
      <trkpt lat="42.0408870" lon="-6.8724540">
        <ele>1168.6</ele>
        <time>2019-08-16T14:49:23Z</time>
      </trkpt>
      <trkpt lat="42.0408680" lon="-6.8725550">
        <ele>1167.9</ele>
        <time>2019-08-16T14:49:24Z</time>
      </trkpt>
      <trkpt lat="42.0408480" lon="-6.8726570">
        <ele>1167.2</ele>
        <time>2019-08-16T14:49:25Z</time>
      </trkpt>
      <trkpt lat="42.0408270" lon="-6.8727600">
        <ele>1166.6</ele>
        <time>2019-08-16T14:49:26Z</time>
      </trkpt>
      <trkpt lat="42.0408040" lon="-6.8728630">
        <ele>1165.8</ele>
        <time>2019-08-16T14:49:27Z</time>
      </trkpt>
      <trkpt lat="42.0407830" lon="-6.8729670">
        <ele>1165.1</ele>
        <time>2019-08-16T14:49:28Z</time>
      </trkpt>
      <trkpt lat="42.0407650" lon="-6.8730730">
        <ele>1164.4</ele>
        <time>2019-08-16T14:49:29Z</time>
      </trkpt>
      <trkpt lat="42.0407460" lon="-6.8731800">
        <ele>1163.6</ele>
        <time>2019-08-16T14:49:30Z</time>
      </trkpt>
      <trkpt lat="42.0407280" lon="-6.8732850">
        <ele>1162.8</ele>
        <time>2019-08-16T14:49:31Z</time>
      </trkpt>
      <trkpt lat="42.0407140" lon="-6.8733890">
        <ele>1162.0</ele>
        <time>2019-08-16T14:49:32Z</time>
      </trkpt>
      <trkpt lat="42.0407040" lon="-6.8734940">
        <ele>1161.2</ele>
        <time>2019-08-16T14:49:33Z</time>
      </trkpt>
      <trkpt lat="42.0406990" lon="-6.8736010">
        <ele>1160.3</ele>
        <time>2019-08-16T14:49:34Z</time>
      </trkpt>
      <trkpt lat="42.0407070" lon="-6.8737100">
        <ele>1159.5</ele>
        <time>2019-08-16T14:49:35Z</time>
      </trkpt>
      <trkpt lat="42.0407280" lon="-6.8738150">
        <ele>1158.5</ele>
        <time>2019-08-16T14:49:36Z</time>
      </trkpt>
      <trkpt lat="42.0407580" lon="-6.8739160">
        <ele>1158.0</ele>
        <time>2019-08-16T14:49:37Z</time>
      </trkpt>
      <trkpt lat="42.0407940" lon="-6.8740110">
        <ele>1157.8</ele>
        <time>2019-08-16T14:49:38Z</time>
      </trkpt>
      <trkpt lat="42.0408300" lon="-6.8741010">
        <ele>1157.5</ele>
        <time>2019-08-16T14:49:39Z</time>
      </trkpt>
      <trkpt lat="42.0408660" lon="-6.8741860">
        <ele>1157.2</ele>
        <time>2019-08-16T14:49:40Z</time>
      </trkpt>
      <trkpt lat="42.0409010" lon="-6.8742670">
        <ele>1157.0</ele>
        <time>2019-08-16T14:49:41Z</time>
      </trkpt>
      <trkpt lat="42.0409340" lon="-6.8743470">
        <ele>1156.8</ele>
        <time>2019-08-16T14:49:42Z</time>
      </trkpt>
      <trkpt lat="42.0409660" lon="-6.8744250">
        <ele>1156.6</ele>
        <time>2019-08-16T14:49:43Z</time>
      </trkpt>
      <trkpt lat="42.0409950" lon="-6.8745010">
        <ele>1156.4</ele>
        <time>2019-08-16T14:49:44Z</time>
      </trkpt>
      <trkpt lat="42.0410250" lon="-6.8745760">
        <ele>1156.2</ele>
        <time>2019-08-16T14:49:45Z</time>
      </trkpt>
      <trkpt lat="42.0410540" lon="-6.8746540">
        <ele>1156.0</ele>
        <time>2019-08-16T14:49:46Z</time>
      </trkpt>
      <trkpt lat="42.0410810" lon="-6.8747340">
        <ele>1155.7</ele>
        <time>2019-08-16T14:49:47Z</time>
      </trkpt>
      <trkpt lat="42.0411080" lon="-6.8748150">
        <ele>1155.5</ele>
        <time>2019-08-16T14:49:48Z</time>
      </trkpt>
      <trkpt lat="42.0411350" lon="-6.8748960">
        <ele>1155.3</ele>
        <time>2019-08-16T14:49:49Z</time>
      </trkpt>
      <trkpt lat="42.0411630" lon="-6.8749770">
        <ele>1155.0</ele>
        <time>2019-08-16T14:49:50Z</time>
      </trkpt>
      <trkpt lat="42.0411930" lon="-6.8750580">
        <ele>1154.7</ele>
        <time>2019-08-16T14:49:51Z</time>
      </trkpt>
      <trkpt lat="42.0412230" lon="-6.8751400">
        <ele>1154.4</ele>
        <time>2019-08-16T14:49:52Z</time>
      </trkpt>
      <trkpt lat="42.0412540" lon="-6.8752250">
        <ele>1154.0</ele>
        <time>2019-08-16T14:49:53Z</time>
      </trkpt>
      <trkpt lat="42.0412840" lon="-6.8753100">
        <ele>1153.7</ele>
        <time>2019-08-16T14:49:54Z</time>
      </trkpt>
      <trkpt lat="42.0413150" lon="-6.8753950">
        <ele>1153.2</ele>
        <time>2019-08-16T14:49:55Z</time>
      </trkpt>
      <trkpt lat="42.0413460" lon="-6.8754810">
        <ele>1152.8</ele>
        <time>2019-08-16T14:49:56Z</time>
      </trkpt>
      <trkpt lat="42.0413800" lon="-6.8755670">
        <ele>1152.4</ele>
        <time>2019-08-16T14:49:57Z</time>
      </trkpt>
      <trkpt lat="42.0414120" lon="-6.8756540">
        <ele>1151.9</ele>
        <time>2019-08-16T14:49:58Z</time>
      </trkpt>
      <trkpt lat="42.0414430" lon="-6.8757410">
        <ele>1151.5</ele>
        <time>2019-08-16T14:49:59Z</time>
      </trkpt>
      <trkpt lat="42.0414730" lon="-6.8758280">
        <ele>1151.1</ele>
        <time>2019-08-16T14:50:00Z</time>
      </trkpt>
      <trkpt lat="42.0415030" lon="-6.8759140">
        <ele>1150.8</ele>
        <time>2019-08-16T14:50:01Z</time>
      </trkpt>
      <trkpt lat="42.0415340" lon="-6.8760000">
        <ele>1150.5</ele>
        <time>2019-08-16T14:50:02Z</time>
      </trkpt>
      <trkpt lat="42.0415670" lon="-6.8760830">
        <ele>1150.2</ele>
        <time>2019-08-16T14:50:03Z</time>
      </trkpt>
      <trkpt lat="42.0416030" lon="-6.8761650">
        <ele>1149.9</ele>
        <time>2019-08-16T14:50:04Z</time>
      </trkpt>
      <trkpt lat="42.0416460" lon="-6.8762430">
        <ele>1149.7</ele>
        <time>2019-08-16T14:50:05Z</time>
      </trkpt>
      <trkpt lat="42.0416950" lon="-6.8763160">
        <ele>1149.4</ele>
        <time>2019-08-16T14:50:06Z</time>
      </trkpt>
      <trkpt lat="42.0417500" lon="-6.8763840">
        <ele>1149.2</ele>
        <time>2019-08-16T14:50:07Z</time>
      </trkpt>
      <trkpt lat="42.0418080" lon="-6.8764480">
        <ele>1148.9</ele>
        <time>2019-08-16T14:50:08Z</time>
      </trkpt>
      <trkpt lat="42.0418680" lon="-6.8765080">
        <ele>1148.6</ele>
        <time>2019-08-16T14:50:09Z</time>
      </trkpt>
      <trkpt lat="42.0419290" lon="-6.8765660">
        <ele>1148.4</ele>
        <time>2019-08-16T14:50:10Z</time>
      </trkpt>
      <trkpt lat="42.0419890" lon="-6.8766230">
        <ele>1148.1</ele>
        <time>2019-08-16T14:50:11Z</time>
      </trkpt>
      <trkpt lat="42.0420450" lon="-6.8766780">
        <ele>1147.9</ele>
        <time>2019-08-16T14:50:12Z</time>
      </trkpt>
      <trkpt lat="42.0421000" lon="-6.8767310">
        <ele>1147.7</ele>
        <time>2019-08-16T14:50:13Z</time>
      </trkpt>
      <trkpt lat="42.0421540" lon="-6.8767840">
        <ele>1147.4</ele>
        <time>2019-08-16T14:50:14Z</time>
      </trkpt>
      <trkpt lat="42.0422080" lon="-6.8768360">
        <ele>1147.2</ele>
        <time>2019-08-16T14:50:15Z</time>
      </trkpt>
      <trkpt lat="42.0422610" lon="-6.8768890">
        <ele>1147.0</ele>
        <time>2019-08-16T14:50:16Z</time>
      </trkpt>
      <trkpt lat="42.0423150" lon="-6.8769420">
        <ele>1146.7</ele>
        <time>2019-08-16T14:50:17Z</time>
      </trkpt>
      <trkpt lat="42.0423680" lon="-6.8769970">
        <ele>1146.3</ele>
        <time>2019-08-16T14:50:18Z</time>
      </trkpt>
      <trkpt lat="42.0424210" lon="-6.8770520">
        <ele>1145.9</ele>
        <time>2019-08-16T14:50:19Z</time>
      </trkpt>
      <trkpt lat="42.0424740" lon="-6.8771040">
        <ele>1145.6</ele>
        <time>2019-08-16T14:50:20Z</time>
      </trkpt>
      <trkpt lat="42.0425290" lon="-6.8771540">
        <ele>1145.3</ele>
        <time>2019-08-16T14:50:21Z</time>
      </trkpt>
      <trkpt lat="42.0425840" lon="-6.8772050">
        <ele>1145.0</ele>
        <time>2019-08-16T14:50:22Z</time>
      </trkpt>
      <trkpt lat="42.0426390" lon="-6.8772590">
        <ele>1144.7</ele>
        <time>2019-08-16T14:50:23Z</time>
      </trkpt>
      <trkpt lat="42.0426940" lon="-6.8773160">
        <ele>1144.3</ele>
        <time>2019-08-16T14:50:24Z</time>
      </trkpt>
      <trkpt lat="42.0427500" lon="-6.8773700">
        <ele>1144.0</ele>
        <time>2019-08-16T14:50:25Z</time>
      </trkpt>
      <trkpt lat="42.0428080" lon="-6.8774240">
        <ele>1143.8</ele>
        <time>2019-08-16T14:50:26Z</time>
      </trkpt>
      <trkpt lat="42.0428660" lon="-6.8774770">
        <ele>1143.6</ele>
        <time>2019-08-16T14:50:27Z</time>
      </trkpt>
      <trkpt lat="42.0429240" lon="-6.8775310">
        <ele>1143.3</ele>
        <time>2019-08-16T14:50:28Z</time>
      </trkpt>
      <trkpt lat="42.0429790" lon="-6.8775860">
        <ele>1143.1</ele>
        <time>2019-08-16T14:50:29Z</time>
      </trkpt>
      <trkpt lat="42.0430350" lon="-6.8776390">
        <ele>1142.8</ele>
        <time>2019-08-16T14:50:30Z</time>
      </trkpt>
      <trkpt lat="42.0430940" lon="-6.8776860">
        <ele>1142.6</ele>
        <time>2019-08-16T14:50:31Z</time>
      </trkpt>
      <trkpt lat="42.0431550" lon="-6.8777280">
        <ele>1142.3</ele>
        <time>2019-08-16T14:50:32Z</time>
      </trkpt>
      <trkpt lat="42.0432170" lon="-6.8777650">
        <ele>1142.0</ele>
        <time>2019-08-16T14:50:33Z</time>
      </trkpt>
      <trkpt lat="42.0432810" lon="-6.8777930">
        <ele>1141.5</ele>
        <time>2019-08-16T14:50:34Z</time>
      </trkpt>
      <trkpt lat="42.0433480" lon="-6.8778100">
        <ele>1141.0</ele>
        <time>2019-08-16T14:50:35Z</time>
      </trkpt>
      <trkpt lat="42.0434170" lon="-6.8778160">
        <ele>1140.6</ele>
        <time>2019-08-16T14:50:36Z</time>
      </trkpt>
      <trkpt lat="42.0434870" lon="-6.8778080">
        <ele>1140.4</ele>
        <time>2019-08-16T14:50:37Z</time>
      </trkpt>
      <trkpt lat="42.0435530" lon="-6.8777910">
        <ele>1140.1</ele>
        <time>2019-08-16T14:50:38Z</time>
      </trkpt>
      <trkpt lat="42.0436140" lon="-6.8777680">
        <ele>1139.9</ele>
        <time>2019-08-16T14:50:39Z</time>
      </trkpt>
      <trkpt lat="42.0436730" lon="-6.8777410">
        <ele>1139.5</ele>
        <time>2019-08-16T14:50:40Z</time>
      </trkpt>
      <trkpt lat="42.0437310" lon="-6.8777160">
        <ele>1139.2</ele>
        <time>2019-08-16T14:50:41Z</time>
      </trkpt>
      <trkpt lat="42.0437890" lon="-6.8776970">
        <ele>1139.0</ele>
        <time>2019-08-16T14:50:42Z</time>
      </trkpt>
      <trkpt lat="42.0438470" lon="-6.8776860">
        <ele>1138.8</ele>
        <time>2019-08-16T14:50:43Z</time>
      </trkpt>
      <trkpt lat="42.0439050" lon="-6.8776860">
        <ele>1138.5</ele>
        <time>2019-08-16T14:50:44Z</time>
      </trkpt>
      <trkpt lat="42.0439610" lon="-6.8777020">
        <ele>1138.3</ele>
        <time>2019-08-16T14:50:45Z</time>
      </trkpt>
      <trkpt lat="42.0440100" lon="-6.8777410">
        <ele>1138.0</ele>
        <time>2019-08-16T14:50:46Z</time>
      </trkpt>
      <trkpt lat="42.0440500" lon="-6.8777980">
        <ele>1137.7</ele>
        <time>2019-08-16T14:50:47Z</time>
      </trkpt>
      <trkpt lat="42.0440800" lon="-6.8778670">
        <ele>1137.4</ele>
        <time>2019-08-16T14:50:48Z</time>
      </trkpt>
      <trkpt lat="42.0441010" lon="-6.8779440">
        <ele>1137.1</ele>
        <time>2019-08-16T14:50:49Z</time>
      </trkpt>
      <trkpt lat="42.0441120" lon="-6.8780260">
        <ele>1136.8</ele>
        <time>2019-08-16T14:50:50Z</time>
      </trkpt>
      <trkpt lat="42.0441160" lon="-6.8781100">
        <ele>1136.5</ele>
        <time>2019-08-16T14:50:51Z</time>
      </trkpt>
      <trkpt lat="42.0441160" lon="-6.8781970">
        <ele>1136.2</ele>
        <time>2019-08-16T14:50:52Z</time>
      </trkpt>
      <trkpt lat="42.0441140" lon="-6.8782890">
        <ele>1135.8</ele>
        <time>2019-08-16T14:50:53Z</time>
      </trkpt>
      <trkpt lat="42.0441120" lon="-6.8783850">
        <ele>1135.5</ele>
        <time>2019-08-16T14:50:54Z</time>
      </trkpt>
      <trkpt lat="42.0441110" lon="-6.8784840">
        <ele>1135.3</ele>
        <time>2019-08-16T14:50:55Z</time>
      </trkpt>
      <trkpt lat="42.0441110" lon="-6.8785880">
        <ele>1134.9</ele>
        <time>2019-08-16T14:50:56Z</time>
      </trkpt>
      <trkpt lat="42.0441130" lon="-6.8786940">
        <ele>1134.4</ele>
        <time>2019-08-16T14:50:57Z</time>
      </trkpt>
      <trkpt lat="42.0441200" lon="-6.8787980">
        <ele>1134.1</ele>
        <time>2019-08-16T14:50:58Z</time>
      </trkpt>
      <trkpt lat="42.0441360" lon="-6.8788940">
        <ele>1133.8</ele>
        <time>2019-08-16T14:50:59Z</time>
      </trkpt>
      <trkpt lat="42.0441650" lon="-6.8789820">
        <ele>1133.5</ele>
        <time>2019-08-16T14:51:00Z</time>
      </trkpt>
      <trkpt lat="42.0442080" lon="-6.8790600">
        <ele>1133.2</ele>
        <time>2019-08-16T14:51:01Z</time>
      </trkpt>
      <trkpt lat="42.0442610" lon="-6.8791210">
        <ele>1132.9</ele>
        <time>2019-08-16T14:51:02Z</time>
      </trkpt>
      <trkpt lat="42.0443270" lon="-6.8791620">
        <ele>1132.5</ele>
        <time>2019-08-16T14:51:03Z</time>
      </trkpt>
      <trkpt lat="42.0443980" lon="-6.8791870">
        <ele>1132.1</ele>
        <time>2019-08-16T14:51:04Z</time>
      </trkpt>
      <trkpt lat="42.0444730" lon="-6.8792010">
        <ele>1131.7</ele>
        <time>2019-08-16T14:51:05Z</time>
      </trkpt>
      <trkpt lat="42.0445490" lon="-6.8792110">
        <ele>1131.4</ele>
        <time>2019-08-16T14:51:06Z</time>
      </trkpt>
      <trkpt lat="42.0446250" lon="-6.8792180">
        <ele>1131.0</ele>
        <time>2019-08-16T14:51:07Z</time>
      </trkpt>
      <trkpt lat="42.0447010" lon="-6.8792250">
        <ele>1130.7</ele>
        <time>2019-08-16T14:51:08Z</time>
      </trkpt>
      <trkpt lat="42.0447790" lon="-6.8792320">
        <ele>1130.3</ele>
        <time>2019-08-16T14:51:09Z</time>
      </trkpt>
      <trkpt lat="42.0448580" lon="-6.8792360">
        <ele>1129.8</ele>
        <time>2019-08-16T14:51:10Z</time>
      </trkpt>
      <trkpt lat="42.0449380" lon="-6.8792430">
        <ele>1129.3</ele>
        <time>2019-08-16T14:51:11Z</time>
      </trkpt>
      <trkpt lat="42.0450180" lon="-6.8792500">
        <ele>1128.9</ele>
        <time>2019-08-16T14:51:12Z</time>
      </trkpt>
      <trkpt lat="42.0451000" lon="-6.8792550">
        <ele>1128.5</ele>
        <time>2019-08-16T14:51:13Z</time>
      </trkpt>
      <trkpt lat="42.0451820" lon="-6.8792620">
        <ele>1128.0</ele>
        <time>2019-08-16T14:51:14Z</time>
      </trkpt>
      <trkpt lat="42.0452650" lon="-6.8792690">
        <ele>1127.5</ele>
        <time>2019-08-16T14:51:15Z</time>
      </trkpt>
      <trkpt lat="42.0453440" lon="-6.8792790">
        <ele>1127.2</ele>
        <time>2019-08-16T14:51:16Z</time>
      </trkpt>
      <trkpt lat="42.0454190" lon="-6.8792830">
        <ele>1126.9</ele>
        <time>2019-08-16T14:51:17Z</time>
      </trkpt>
      <trkpt lat="42.0454940" lon="-6.8792830">
        <ele>1126.6</ele>
        <time>2019-08-16T14:51:18Z</time>
      </trkpt>
      <trkpt lat="42.0455700" lon="-6.8792840">
        <ele>1126.3</ele>
        <time>2019-08-16T14:51:19Z</time>
      </trkpt>
      <trkpt lat="42.0456430" lon="-6.8792870">
        <ele>1125.8</ele>
        <time>2019-08-16T14:51:20Z</time>
      </trkpt>
      <trkpt lat="42.0457150" lon="-6.8792880">
        <ele>1125.4</ele>
        <time>2019-08-16T14:51:21Z</time>
      </trkpt>
      <trkpt lat="42.0457850" lon="-6.8792920">
        <ele>1125.0</ele>
        <time>2019-08-16T14:51:22Z</time>
      </trkpt>
      <trkpt lat="42.0458560" lon="-6.8792960">
        <ele>1124.7</ele>
        <time>2019-08-16T14:51:23Z</time>
      </trkpt>
      <trkpt lat="42.0459280" lon="-6.8793010">
        <ele>1124.3</ele>
        <time>2019-08-16T14:51:24Z</time>
      </trkpt>
      <trkpt lat="42.0460010" lon="-6.8793060">
        <ele>1123.7</ele>
        <time>2019-08-16T14:51:25Z</time>
      </trkpt>
      <trkpt lat="42.0460760" lon="-6.8793130">
        <ele>1123.4</ele>
        <time>2019-08-16T14:51:26Z</time>
      </trkpt>
      <trkpt lat="42.0461510" lon="-6.8793210">
        <ele>1123.0</ele>
        <time>2019-08-16T14:51:27Z</time>
      </trkpt>
      <trkpt lat="42.0462250" lon="-6.8793270">
        <ele>1122.7</ele>
        <time>2019-08-16T14:51:28Z</time>
      </trkpt>
      <trkpt lat="42.0462990" lon="-6.8793330">
        <ele>1122.4</ele>
        <time>2019-08-16T14:51:29Z</time>
      </trkpt>
      <trkpt lat="42.0463730" lon="-6.8793390">
        <ele>1121.9</ele>
        <time>2019-08-16T14:51:30Z</time>
      </trkpt>
      <trkpt lat="42.0464470" lon="-6.8793460">
        <ele>1121.4</ele>
        <time>2019-08-16T14:51:31Z</time>
      </trkpt>
      <trkpt lat="42.0465210" lon="-6.8793520">
        <ele>1120.9</ele>
        <time>2019-08-16T14:51:32Z</time>
      </trkpt>
      <trkpt lat="42.0465960" lon="-6.8793590">
        <ele>1120.5</ele>
        <time>2019-08-16T14:51:33Z</time>
      </trkpt>
      <trkpt lat="42.0466710" lon="-6.8793660">
        <ele>1120.1</ele>
        <time>2019-08-16T14:51:34Z</time>
      </trkpt>
      <trkpt lat="42.0467460" lon="-6.8793760">
        <ele>1119.7</ele>
        <time>2019-08-16T14:51:35Z</time>
      </trkpt>
      <trkpt lat="42.0468210" lon="-6.8793870">
        <ele>1119.2</ele>
        <time>2019-08-16T14:51:36Z</time>
      </trkpt>
      <trkpt lat="42.0468950" lon="-6.8793990">
        <ele>1118.7</ele>
        <time>2019-08-16T14:51:37Z</time>
      </trkpt>
      <trkpt lat="42.0469670" lon="-6.8794140">
        <ele>1118.3</ele>
        <time>2019-08-16T14:51:38Z</time>
      </trkpt>
      <trkpt lat="42.0470380" lon="-6.8794270">
        <ele>1117.9</ele>
        <time>2019-08-16T14:51:39Z</time>
      </trkpt>
      <trkpt lat="42.0471100" lon="-6.8794370">
        <ele>1117.6</ele>
        <time>2019-08-16T14:51:40Z</time>
      </trkpt>
      <trkpt lat="42.0471850" lon="-6.8794460">
        <ele>1117.2</ele>
        <time>2019-08-16T14:51:41Z</time>
      </trkpt>
      <trkpt lat="42.0472590" lon="-6.8794530">
        <ele>1116.8</ele>
        <time>2019-08-16T14:51:42Z</time>
      </trkpt>
      <trkpt lat="42.0473350" lon="-6.8794560">
        <ele>1116.4</ele>
        <time>2019-08-16T14:51:43Z</time>
      </trkpt>
      <trkpt lat="42.0474120" lon="-6.8794580">
        <ele>1116.0</ele>
        <time>2019-08-16T14:51:44Z</time>
      </trkpt>
      <trkpt lat="42.0474900" lon="-6.8794630">
        <ele>1115.6</ele>
        <time>2019-08-16T14:51:45Z</time>
      </trkpt>
      <trkpt lat="42.0475690" lon="-6.8794650">
        <ele>1115.3</ele>
        <time>2019-08-16T14:51:46Z</time>
      </trkpt>
      <trkpt lat="42.0476480" lon="-6.8794650">
        <ele>1115.1</ele>
        <time>2019-08-16T14:51:47Z</time>
      </trkpt>
      <trkpt lat="42.0477290" lon="-6.8794650">
        <ele>1114.8</ele>
        <time>2019-08-16T14:51:48Z</time>
      </trkpt>
      <trkpt lat="42.0478110" lon="-6.8794670">
        <ele>1114.3</ele>
        <time>2019-08-16T14:51:49Z</time>
      </trkpt>
      <trkpt lat="42.0478920" lon="-6.8794690">
        <ele>1113.7</ele>
        <time>2019-08-16T14:51:50Z</time>
      </trkpt>
      <trkpt lat="42.0479760" lon="-6.8794710">
        <ele>1113.2</ele>
        <time>2019-08-16T14:51:51Z</time>
      </trkpt>
      <trkpt lat="42.0480610" lon="-6.8794750">
        <ele>1112.7</ele>
        <time>2019-08-16T14:51:52Z</time>
      </trkpt>
      <trkpt lat="42.0481460" lon="-6.8794790">
        <ele>1112.2</ele>
        <time>2019-08-16T14:51:53Z</time>
      </trkpt>
      <trkpt lat="42.0482320" lon="-6.8794800">
        <ele>1111.7</ele>
        <time>2019-08-16T14:51:54Z</time>
      </trkpt>
      <trkpt lat="42.0483180" lon="-6.8794830">
        <ele>1111.2</ele>
        <time>2019-08-16T14:51:55Z</time>
      </trkpt>
      <trkpt lat="42.0484030" lon="-6.8794860">
        <ele>1110.8</ele>
        <time>2019-08-16T14:51:56Z</time>
      </trkpt>
      <trkpt lat="42.0484870" lon="-6.8794910">
        <ele>1110.4</ele>
        <time>2019-08-16T14:51:57Z</time>
      </trkpt>
      <trkpt lat="42.0485700" lon="-6.8794930">
        <ele>1110.0</ele>
        <time>2019-08-16T14:51:58Z</time>
      </trkpt>
      <trkpt lat="42.0486540" lon="-6.8794930">
        <ele>1109.6</ele>
        <time>2019-08-16T14:51:59Z</time>
      </trkpt>
      <trkpt lat="42.0487370" lon="-6.8794900">
        <ele>1109.0</ele>
        <time>2019-08-16T14:52:00Z</time>
      </trkpt>
      <trkpt lat="42.0488210" lon="-6.8794800">
        <ele>1108.6</ele>
        <time>2019-08-16T14:52:01Z</time>
      </trkpt>
      <trkpt lat="42.0489030" lon="-6.8794640">
        <ele>1108.2</ele>
        <time>2019-08-16T14:52:02Z</time>
      </trkpt>
      <trkpt lat="42.0489850" lon="-6.8794430">
        <ele>1107.9</ele>
        <time>2019-08-16T14:52:03Z</time>
      </trkpt>
      <trkpt lat="42.0490680" lon="-6.8794220">
        <ele>1107.4</ele>
        <time>2019-08-16T14:52:04Z</time>
      </trkpt>
      <trkpt lat="42.0491520" lon="-6.8793960">
        <ele>1107.0</ele>
        <time>2019-08-16T14:52:05Z</time>
      </trkpt>
      <trkpt lat="42.0492370" lon="-6.8793680">
        <ele>1106.4</ele>
        <time>2019-08-16T14:52:06Z</time>
      </trkpt>
      <trkpt lat="42.0493210" lon="-6.8793430">
        <ele>1105.9</ele>
        <time>2019-08-16T14:52:07Z</time>
      </trkpt>
      <trkpt lat="42.0494040" lon="-6.8793200">
        <ele>1105.3</ele>
        <time>2019-08-16T14:52:08Z</time>
      </trkpt>
      <trkpt lat="42.0494860" lon="-6.8792940">
        <ele>1104.9</ele>
        <time>2019-08-16T14:52:09Z</time>
      </trkpt>
      <trkpt lat="42.0495640" lon="-6.8792700">
        <ele>1104.6</ele>
        <time>2019-08-16T14:52:10Z</time>
      </trkpt>
      <trkpt lat="42.0496420" lon="-6.8792470">
        <ele>1104.2</ele>
        <time>2019-08-16T14:52:11Z</time>
      </trkpt>
      <trkpt lat="42.0497190" lon="-6.8792210">
        <ele>1103.9</ele>
        <time>2019-08-16T14:52:12Z</time>
      </trkpt>
      <trkpt lat="42.0497940" lon="-6.8791920">
        <ele>1103.6</ele>
        <time>2019-08-16T14:52:13Z</time>
      </trkpt>
      <trkpt lat="42.0498680" lon="-6.8791600">
        <ele>1103.3</ele>
        <time>2019-08-16T14:52:14Z</time>
      </trkpt>
      <trkpt lat="42.0499390" lon="-6.8791250">
        <ele>1103.0</ele>
        <time>2019-08-16T14:52:15Z</time>
      </trkpt>
      <trkpt lat="42.0500080" lon="-6.8790920">
        <ele>1102.8</ele>
        <time>2019-08-16T14:52:16Z</time>
      </trkpt>
      <trkpt lat="42.0500760" lon="-6.8790550">
        <ele>1102.5</ele>
        <time>2019-08-16T14:52:17Z</time>
      </trkpt>
      <trkpt lat="42.0501430" lon="-6.8790180">
        <ele>1102.3</ele>
        <time>2019-08-16T14:52:18Z</time>
      </trkpt>
      <trkpt lat="42.0502080" lon="-6.8789820">
        <ele>1102.0</ele>
        <time>2019-08-16T14:52:19Z</time>
      </trkpt>
      <trkpt lat="42.0502700" lon="-6.8789470">
        <ele>1101.8</ele>
        <time>2019-08-16T14:52:20Z</time>
      </trkpt>
      <trkpt lat="42.0503340" lon="-6.8789120">
        <ele>1101.5</ele>
        <time>2019-08-16T14:52:21Z</time>
      </trkpt>
      <trkpt lat="42.0503980" lon="-6.8788770">
        <ele>1101.3</ele>
        <time>2019-08-16T14:52:22Z</time>
      </trkpt>
      <trkpt lat="42.0504620" lon="-6.8788440">
        <ele>1100.8</ele>
        <time>2019-08-16T14:52:23Z</time>
      </trkpt>
      <trkpt lat="42.0505280" lon="-6.8788130">
        <ele>1100.5</ele>
        <time>2019-08-16T14:52:24Z</time>
      </trkpt>
      <trkpt lat="42.0505940" lon="-6.8787820">
        <ele>1100.2</ele>
        <time>2019-08-16T14:52:25Z</time>
      </trkpt>
      <trkpt lat="42.0506590" lon="-6.8787510">
        <ele>1100.0</ele>
        <time>2019-08-16T14:52:26Z</time>
      </trkpt>
      <trkpt lat="42.0507230" lon="-6.8787200">
        <ele>1099.8</ele>
        <time>2019-08-16T14:52:27Z</time>
      </trkpt>
      <trkpt lat="42.0507870" lon="-6.8786910">
        <ele>1099.6</ele>
        <time>2019-08-16T14:52:28Z</time>
      </trkpt>
      <trkpt lat="42.0508520" lon="-6.8786620">
        <ele>1099.3</ele>
        <time>2019-08-16T14:52:29Z</time>
      </trkpt>
      <trkpt lat="42.0509200" lon="-6.8786340">
        <ele>1098.9</ele>
        <time>2019-08-16T14:52:30Z</time>
      </trkpt>
      <trkpt lat="42.0509880" lon="-6.8786050">
        <ele>1098.6</ele>
        <time>2019-08-16T14:52:31Z</time>
      </trkpt>
      <trkpt lat="42.0510580" lon="-6.8785750">
        <ele>1098.3</ele>
        <time>2019-08-16T14:52:32Z</time>
      </trkpt>
      <trkpt lat="42.0511270" lon="-6.8785440">
        <ele>1098.1</ele>
        <time>2019-08-16T14:52:33Z</time>
      </trkpt>
      <trkpt lat="42.0511980" lon="-6.8785120">
        <ele>1097.8</ele>
        <time>2019-08-16T14:52:34Z</time>
      </trkpt>
      <trkpt lat="42.0512680" lon="-6.8784760">
        <ele>1097.4</ele>
        <time>2019-08-16T14:52:35Z</time>
      </trkpt>
      <trkpt lat="42.0513380" lon="-6.8784390">
        <ele>1097.0</ele>
        <time>2019-08-16T14:52:36Z</time>
      </trkpt>
      <trkpt lat="42.0514070" lon="-6.8783990">
        <ele>1096.8</ele>
        <time>2019-08-16T14:52:37Z</time>
      </trkpt>
      <trkpt lat="42.0514740" lon="-6.8783570">
        <ele>1096.5</ele>
        <time>2019-08-16T14:52:38Z</time>
      </trkpt>
      <trkpt lat="42.0515430" lon="-6.8783170">
        <ele>1096.2</ele>
        <time>2019-08-16T14:52:39Z</time>
      </trkpt>
      <trkpt lat="42.0516110" lon="-6.8782760">
        <ele>1095.9</ele>
        <time>2019-08-16T14:52:40Z</time>
      </trkpt>
      <trkpt lat="42.0516790" lon="-6.8782320">
        <ele>1095.6</ele>
        <time>2019-08-16T14:52:41Z</time>
      </trkpt>
      <trkpt lat="42.0517470" lon="-6.8781900">
        <ele>1095.4</ele>
        <time>2019-08-16T14:52:42Z</time>
      </trkpt>
      <trkpt lat="42.0518150" lon="-6.8781480">
        <ele>1095.3</ele>
        <time>2019-08-16T14:52:43Z</time>
      </trkpt>
      <trkpt lat="42.0518820" lon="-6.8781070">
        <ele>1095.1</ele>
        <time>2019-08-16T14:52:44Z</time>
      </trkpt>
      <trkpt lat="42.0519460" lon="-6.8780670">
        <ele>1095.0</ele>
        <time>2019-08-16T14:52:45Z</time>
      </trkpt>
      <trkpt lat="42.0520090" lon="-6.8780310">
        <ele>1094.6</ele>
        <time>2019-08-16T14:52:46Z</time>
      </trkpt>
      <trkpt lat="42.0520670" lon="-6.8780000">
        <ele>1094.4</ele>
        <time>2019-08-16T14:52:47Z</time>
      </trkpt>
      <trkpt lat="42.0521200" lon="-6.8779730">
        <ele>1094.2</ele>
        <time>2019-08-16T14:52:48Z</time>
      </trkpt>
      <trkpt lat="42.0521680" lon="-6.8779470">
        <ele>1094.0</ele>
        <time>2019-08-16T14:52:49Z</time>
      </trkpt>
      <trkpt lat="42.0522150" lon="-6.8779250">
        <ele>1093.8</ele>
        <time>2019-08-16T14:52:50Z</time>
      </trkpt>
      <trkpt lat="42.0522630" lon="-6.8779050">
        <ele>1093.5</ele>
        <time>2019-08-16T14:52:51Z</time>
      </trkpt>
      <trkpt lat="42.0523100" lon="-6.8778850">
        <ele>1093.3</ele>
        <time>2019-08-16T14:52:52Z</time>
      </trkpt>
      <trkpt lat="42.0523580" lon="-6.8778670">
        <ele>1093.1</ele>
        <time>2019-08-16T14:52:53Z</time>
      </trkpt>
      <trkpt lat="42.0524040" lon="-6.8778540">
        <ele>1092.9</ele>
        <time>2019-08-16T14:52:54Z</time>
      </trkpt>
      <trkpt lat="42.0524490" lon="-6.8778420">
        <ele>1092.8</ele>
        <time>2019-08-16T14:52:55Z</time>
      </trkpt>
      <trkpt lat="42.0524930" lon="-6.8778290">
        <ele>1092.6</ele>
        <time>2019-08-16T14:52:56Z</time>
      </trkpt>
      <trkpt lat="42.0525350" lon="-6.8778160">
        <ele>1092.5</ele>
        <time>2019-08-16T14:52:57Z</time>
      </trkpt>
      <trkpt lat="42.0525780" lon="-6.8778050">
        <ele>1092.4</ele>
        <time>2019-08-16T14:52:58Z</time>
      </trkpt>
      <trkpt lat="42.0526190" lon="-6.8777950">
        <ele>1092.2</ele>
        <time>2019-08-16T14:52:59Z</time>
      </trkpt>
      <trkpt lat="42.0526600" lon="-6.8777820">
        <ele>1092.1</ele>
        <time>2019-08-16T14:53:00Z</time>
      </trkpt>
      <trkpt lat="42.0526990" lon="-6.8777690">
        <ele>1092.0</ele>
        <time>2019-08-16T14:53:01Z</time>
      </trkpt>
      <trkpt lat="42.0527390" lon="-6.8777570">
        <ele>1091.8</ele>
        <time>2019-08-16T14:53:02Z</time>
      </trkpt>
      <trkpt lat="42.0527810" lon="-6.8777440">
        <ele>1091.5</ele>
        <time>2019-08-16T14:53:03Z</time>
      </trkpt>
      <trkpt lat="42.0528270" lon="-6.8777300">
        <ele>1091.3</ele>
        <time>2019-08-16T14:53:04Z</time>
      </trkpt>
      <trkpt lat="42.0528760" lon="-6.8777140">
        <ele>1091.0</ele>
        <time>2019-08-16T14:53:05Z</time>
      </trkpt>
      <trkpt lat="42.0529290" lon="-6.8776980">
        <ele>1090.8</ele>
        <time>2019-08-16T14:53:06Z</time>
      </trkpt>
      <trkpt lat="42.0529840" lon="-6.8776800">
        <ele>1090.6</ele>
        <time>2019-08-16T14:53:07Z</time>
      </trkpt>
      <trkpt lat="42.0530410" lon="-6.8776600">
        <ele>1090.3</ele>
        <time>2019-08-16T14:53:08Z</time>
      </trkpt>
      <trkpt lat="42.0531010" lon="-6.8776400">
        <ele>1090.0</ele>
        <time>2019-08-16T14:53:09Z</time>
      </trkpt>
      <trkpt lat="42.0531630" lon="-6.8776210">
        <ele>1089.7</ele>
        <time>2019-08-16T14:53:10Z</time>
      </trkpt>
      <trkpt lat="42.0532260" lon="-6.8776010">
        <ele>1089.5</ele>
        <time>2019-08-16T14:53:11Z</time>
      </trkpt>
      <trkpt lat="42.0532920" lon="-6.8775830">
        <ele>1089.2</ele>
        <time>2019-08-16T14:53:12Z</time>
      </trkpt>
      <trkpt lat="42.0533580" lon="-6.8775670">
        <ele>1088.8</ele>
        <time>2019-08-16T14:53:13Z</time>
      </trkpt>
      <trkpt lat="42.0534230" lon="-6.8775500">
        <ele>1088.4</ele>
        <time>2019-08-16T14:53:14Z</time>
      </trkpt>
      <trkpt lat="42.0534870" lon="-6.8775320">
        <ele>1088.1</ele>
        <time>2019-08-16T14:53:15Z</time>
      </trkpt>
      <trkpt lat="42.0535500" lon="-6.8775190">
        <ele>1087.8</ele>
        <time>2019-08-16T14:53:16Z</time>
      </trkpt>
      <trkpt lat="42.0536120" lon="-6.8775110">
        <ele>1087.5</ele>
        <time>2019-08-16T14:53:17Z</time>
      </trkpt>
      <trkpt lat="42.0536750" lon="-6.8775140">
        <ele>1087.2</ele>
        <time>2019-08-16T14:53:18Z</time>
      </trkpt>
      <trkpt lat="42.0537370" lon="-6.8775330">
        <ele>1086.8</ele>
        <time>2019-08-16T14:53:19Z</time>
      </trkpt>
      <trkpt lat="42.0537970" lon="-6.8775710">
        <ele>1086.3</ele>
        <time>2019-08-16T14:53:20Z</time>
      </trkpt>
      <trkpt lat="42.0538500" lon="-6.8776290">
        <ele>1086.0</ele>
        <time>2019-08-16T14:53:21Z</time>
      </trkpt>
      <trkpt lat="42.0538910" lon="-6.8777020">
        <ele>1085.7</ele>
        <time>2019-08-16T14:53:22Z</time>
      </trkpt>
      <trkpt lat="42.0539190" lon="-6.8777850">
        <ele>1085.4</ele>
        <time>2019-08-16T14:53:23Z</time>
      </trkpt>
      <trkpt lat="42.0539320" lon="-6.8778770">
        <ele>1085.0</ele>
        <time>2019-08-16T14:53:24Z</time>
      </trkpt>
      <trkpt lat="42.0539330" lon="-6.8779660">
        <ele>1084.4</ele>
        <time>2019-08-16T14:53:25Z</time>
      </trkpt>
      <trkpt lat="42.0539250" lon="-6.8780520">
        <ele>1084.5</ele>
        <time>2019-08-16T14:53:26Z</time>
      </trkpt>
      <trkpt lat="42.0539090" lon="-6.8781320">
        <ele>1084.5</ele>
        <time>2019-08-16T14:53:27Z</time>
      </trkpt>
      <trkpt lat="42.0538920" lon="-6.8782100">
        <ele>1084.5</ele>
        <time>2019-08-16T14:53:28Z</time>
      </trkpt>
      <trkpt lat="42.0538730" lon="-6.8782860">
        <ele>1084.6</ele>
        <time>2019-08-16T14:53:29Z</time>
      </trkpt>
      <trkpt lat="42.0538530" lon="-6.8783590">
        <ele>1084.6</ele>
        <time>2019-08-16T14:53:30Z</time>
      </trkpt>
      <trkpt lat="42.0538300" lon="-6.8784280">
        <ele>1084.6</ele>
        <time>2019-08-16T14:53:31Z</time>
      </trkpt>
      <trkpt lat="42.0538020" lon="-6.8784920">
        <ele>1084.7</ele>
        <time>2019-08-16T14:53:32Z</time>
      </trkpt>
      <trkpt lat="42.0537670" lon="-6.8785480">
        <ele>1084.7</ele>
        <time>2019-08-16T14:53:33Z</time>
      </trkpt>
      <trkpt lat="42.0537300" lon="-6.8785960">
        <ele>1084.7</ele>
        <time>2019-08-16T14:53:34Z</time>
      </trkpt>
      <trkpt lat="42.0536900" lon="-6.8786380">
        <ele>1084.8</ele>
        <time>2019-08-16T14:53:35Z</time>
      </trkpt>
      <trkpt lat="42.0536500" lon="-6.8786740">
        <ele>1084.8</ele>
        <time>2019-08-16T14:53:36Z</time>
      </trkpt>
      <trkpt lat="42.0536080" lon="-6.8787060">
        <ele>1084.9</ele>
        <time>2019-08-16T14:53:37Z</time>
      </trkpt>
      <trkpt lat="42.0535680" lon="-6.8787360">
        <ele>1085.0</ele>
        <time>2019-08-16T14:53:38Z</time>
      </trkpt>
      <trkpt lat="42.0535320" lon="-6.8787670">
        <ele>1085.1</ele>
        <time>2019-08-16T14:53:39Z</time>
      </trkpt>
      <trkpt lat="42.0534970" lon="-6.8787990">
        <ele>1085.1</ele>
        <time>2019-08-16T14:53:40Z</time>
      </trkpt>
      <trkpt lat="42.0534630" lon="-6.8788280">
        <ele>1085.2</ele>
        <time>2019-08-16T14:53:41Z</time>
      </trkpt>
      <trkpt lat="42.0534290" lon="-6.8788560">
        <ele>1085.3</ele>
        <time>2019-08-16T14:53:42Z</time>
      </trkpt>
      <trkpt lat="42.0533970" lon="-6.8788830">
        <ele>1085.4</ele>
        <time>2019-08-16T14:53:43Z</time>
      </trkpt>
      <trkpt lat="42.0533640" lon="-6.8789090">
        <ele>1085.6</ele>
        <time>2019-08-16T14:53:44Z</time>
      </trkpt>
      <trkpt lat="42.0533320" lon="-6.8789340">
        <ele>1085.7</ele>
        <time>2019-08-16T14:53:45Z</time>
      </trkpt>
      <trkpt lat="42.0533010" lon="-6.8789590">
        <ele>1085.8</ele>
        <time>2019-08-16T14:53:46Z</time>
      </trkpt>
      <trkpt lat="42.0532710" lon="-6.8789840">
        <ele>1085.9</ele>
        <time>2019-08-16T14:53:47Z</time>
      </trkpt>
      <trkpt lat="42.0532420" lon="-6.8790110">
        <ele>1086.0</ele>
        <time>2019-08-16T14:53:48Z</time>
      </trkpt>
      <trkpt lat="42.0532140" lon="-6.8790390">
        <ele>1086.2</ele>
        <time>2019-08-16T14:53:49Z</time>
      </trkpt>
      <trkpt lat="42.0531860" lon="-6.8790660">
        <ele>1086.3</ele>
        <time>2019-08-16T14:53:50Z</time>
      </trkpt>
      <trkpt lat="42.0531590" lon="-6.8790930">
        <ele>1086.5</ele>
        <time>2019-08-16T14:53:51Z</time>
      </trkpt>
      <trkpt lat="42.0531340" lon="-6.8791220">
        <ele>1086.6</ele>
        <time>2019-08-16T14:53:52Z</time>
      </trkpt>
      <trkpt lat="42.0531110" lon="-6.8791520">
        <ele>1086.8</ele>
        <time>2019-08-16T14:53:53Z</time>
      </trkpt>
      <trkpt lat="42.0530900" lon="-6.8791810">
        <ele>1086.9</ele>
        <time>2019-08-16T14:53:54Z</time>
      </trkpt>
      <trkpt lat="42.0530690" lon="-6.8792120">
        <ele>1087.0</ele>
        <time>2019-08-16T14:53:55Z</time>
      </trkpt>
      <trkpt lat="42.0530500" lon="-6.8792430">
        <ele>1087.2</ele>
        <time>2019-08-16T14:53:56Z</time>
      </trkpt>
      <trkpt lat="42.0530310" lon="-6.8792740">
        <ele>1087.4</ele>
        <time>2019-08-16T14:53:57Z</time>
      </trkpt>
      <trkpt lat="42.0530150" lon="-6.8793060">
        <ele>1087.5</ele>
        <time>2019-08-16T14:53:58Z</time>
      </trkpt>
      <trkpt lat="42.0530000" lon="-6.8793390">
        <ele>1087.7</ele>
        <time>2019-08-16T14:53:59Z</time>
      </trkpt>
      <trkpt lat="42.0529860" lon="-6.8793730">
        <ele>1087.8</ele>
        <time>2019-08-16T14:54:00Z</time>
      </trkpt>
      <trkpt lat="42.0529730" lon="-6.8794070">
        <ele>1088.0</ele>
        <time>2019-08-16T14:54:01Z</time>
      </trkpt>
      <trkpt lat="42.0529590" lon="-6.8794410">
        <ele>1088.1</ele>
        <time>2019-08-16T14:54:02Z</time>
      </trkpt>
      <trkpt lat="42.0529470" lon="-6.8794750">
        <ele>1088.3</ele>
        <time>2019-08-16T14:54:03Z</time>
      </trkpt>
      <trkpt lat="42.0529350" lon="-6.8795100">
        <ele>1088.4</ele>
        <time>2019-08-16T14:54:04Z</time>
      </trkpt>
      <trkpt lat="42.0529210" lon="-6.8795460">
        <ele>1088.6</ele>
        <time>2019-08-16T14:54:05Z</time>
      </trkpt>
      <trkpt lat="42.0529080" lon="-6.8795840">
        <ele>1088.7</ele>
        <time>2019-08-16T14:54:06Z</time>
      </trkpt>
      <trkpt lat="42.0528950" lon="-6.8796230">
        <ele>1088.9</ele>
        <time>2019-08-16T14:54:07Z</time>
      </trkpt>
      <trkpt lat="42.0528830" lon="-6.8796620">
        <ele>1089.0</ele>
        <time>2019-08-16T14:54:08Z</time>
      </trkpt>
      <trkpt lat="42.0528700" lon="-6.8797020">
        <ele>1089.2</ele>
        <time>2019-08-16T14:54:09Z</time>
      </trkpt>
      <trkpt lat="42.0528560" lon="-6.8797420">
        <ele>1089.4</ele>
        <time>2019-08-16T14:54:10Z</time>
      </trkpt>
      <trkpt lat="42.0528420" lon="-6.8797820">
        <ele>1089.5</ele>
        <time>2019-08-16T14:54:11Z</time>
      </trkpt>
      <trkpt lat="42.0528280" lon="-6.8798230">
        <ele>1089.6</ele>
        <time>2019-08-16T14:54:12Z</time>
      </trkpt>
      <trkpt lat="42.0528130" lon="-6.8798660">
        <ele>1089.8</ele>
        <time>2019-08-16T14:54:13Z</time>
      </trkpt>
      <trkpt lat="42.0527980" lon="-6.8799090">
        <ele>1090.0</ele>
        <time>2019-08-16T14:54:14Z</time>
      </trkpt>
      <trkpt lat="42.0527810" lon="-6.8799530">
        <ele>1090.1</ele>
        <time>2019-08-16T14:54:15Z</time>
      </trkpt>
      <trkpt lat="42.0527640" lon="-6.8799980">
        <ele>1090.3</ele>
        <time>2019-08-16T14:54:16Z</time>
      </trkpt>
      <trkpt lat="42.0527450" lon="-6.8800430">
        <ele>1090.4</ele>
        <time>2019-08-16T14:54:17Z</time>
      </trkpt>
      <trkpt lat="42.0527260" lon="-6.8800860">
        <ele>1090.6</ele>
        <time>2019-08-16T14:54:18Z</time>
      </trkpt>
      <trkpt lat="42.0527050" lon="-6.8801280">
        <ele>1090.7</ele>
        <time>2019-08-16T14:54:19Z</time>
      </trkpt>
      <trkpt lat="42.0526830" lon="-6.8801680">
        <ele>1090.9</ele>
        <time>2019-08-16T14:54:20Z</time>
      </trkpt>
      <trkpt lat="42.0526620" lon="-6.8802090">
        <ele>1091.0</ele>
        <time>2019-08-16T14:54:21Z</time>
      </trkpt>
      <trkpt lat="42.0526400" lon="-6.8802480">
        <ele>1091.2</ele>
        <time>2019-08-16T14:54:22Z</time>
      </trkpt>
      <trkpt lat="42.0526170" lon="-6.8802860">
        <ele>1091.3</ele>
        <time>2019-08-16T14:54:23Z</time>
      </trkpt>
      <trkpt lat="42.0525950" lon="-6.8803220">
        <ele>1091.4</ele>
        <time>2019-08-16T14:54:24Z</time>
      </trkpt>
      <trkpt lat="42.0525720" lon="-6.8803590">
        <ele>1091.5</ele>
        <time>2019-08-16T14:54:25Z</time>
      </trkpt>
      <trkpt lat="42.0525500" lon="-6.8803960">
        <ele>1091.7</ele>
        <time>2019-08-16T14:54:26Z</time>
      </trkpt>
      <trkpt lat="42.0525270" lon="-6.8804320">
        <ele>1091.8</ele>
        <time>2019-08-16T14:54:27Z</time>
      </trkpt>
      <trkpt lat="42.0525040" lon="-6.8804670">
        <ele>1091.9</ele>
        <time>2019-08-16T14:54:28Z</time>
      </trkpt>
      <trkpt lat="42.0524800" lon="-6.8805030">
        <ele>1092.0</ele>
        <time>2019-08-16T14:54:29Z</time>
      </trkpt>
      <trkpt lat="42.0524580" lon="-6.8805390">
        <ele>1092.1</ele>
        <time>2019-08-16T14:54:30Z</time>
      </trkpt>
      <trkpt lat="42.0524360" lon="-6.8805760">
        <ele>1092.2</ele>
        <time>2019-08-16T14:54:31Z</time>
      </trkpt>
      <trkpt lat="42.0524120" lon="-6.8806130">
        <ele>1092.3</ele>
        <time>2019-08-16T14:54:32Z</time>
      </trkpt>
      <trkpt lat="42.0523890" lon="-6.8806480">
        <ele>1092.4</ele>
        <time>2019-08-16T14:54:33Z</time>
      </trkpt>
      <trkpt lat="42.0523660" lon="-6.8806820">
        <ele>1092.5</ele>
        <time>2019-08-16T14:54:34Z</time>
      </trkpt>
      <trkpt lat="42.0523430" lon="-6.8807170">
        <ele>1092.6</ele>
        <time>2019-08-16T14:54:35Z</time>
      </trkpt>
      <trkpt lat="42.0523210" lon="-6.8807520">
        <ele>1092.7</ele>
        <time>2019-08-16T14:54:36Z</time>
      </trkpt>
      <trkpt lat="42.0522990" lon="-6.8807890">
        <ele>1092.8</ele>
        <time>2019-08-16T14:54:37Z</time>
      </trkpt>
      <trkpt lat="42.0522770" lon="-6.8808260">
        <ele>1093.0</ele>
        <time>2019-08-16T14:54:38Z</time>
      </trkpt>
      <trkpt lat="42.0522540" lon="-6.8808620">
        <ele>1093.1</ele>
        <time>2019-08-16T14:54:39Z</time>
      </trkpt>
      <trkpt lat="42.0522320" lon="-6.8808990">
        <ele>1093.2</ele>
        <time>2019-08-16T14:54:40Z</time>
      </trkpt>
      <trkpt lat="42.0522090" lon="-6.8809360">
        <ele>1093.3</ele>
        <time>2019-08-16T14:54:41Z</time>
      </trkpt>
      <trkpt lat="42.0521850" lon="-6.8809750">
        <ele>1093.4</ele>
        <time>2019-08-16T14:54:42Z</time>
      </trkpt>
      <trkpt lat="42.0521610" lon="-6.8810120">
        <ele>1093.5</ele>
        <time>2019-08-16T14:54:43Z</time>
      </trkpt>
      <trkpt lat="42.0521370" lon="-6.8810500">
        <ele>1093.6</ele>
        <time>2019-08-16T14:54:44Z</time>
      </trkpt>
      <trkpt lat="42.0521140" lon="-6.8810860">
        <ele>1093.6</ele>
        <time>2019-08-16T14:54:45Z</time>
      </trkpt>
      <trkpt lat="42.0520910" lon="-6.8811220">
        <ele>1093.7</ele>
        <time>2019-08-16T14:54:46Z</time>
      </trkpt>
      <trkpt lat="42.0520670" lon="-6.8811600">
        <ele>1093.8</ele>
        <time>2019-08-16T14:54:47Z</time>
      </trkpt>
      <trkpt lat="42.0520420" lon="-6.8811950">
        <ele>1093.9</ele>
        <time>2019-08-16T14:54:48Z</time>
      </trkpt>
      <trkpt lat="42.0520180" lon="-6.8812300">
        <ele>1094.0</ele>
        <time>2019-08-16T14:54:49Z</time>
      </trkpt>
      <trkpt lat="42.0519960" lon="-6.8812620">
        <ele>1094.1</ele>
        <time>2019-08-16T14:54:50Z</time>
      </trkpt>
      <trkpt lat="42.0519730" lon="-6.8812950">
        <ele>1094.2</ele>
        <time>2019-08-16T14:54:51Z</time>
      </trkpt>
      <trkpt lat="42.0519490" lon="-6.8813280">
        <ele>1094.2</ele>
        <time>2019-08-16T14:54:52Z</time>
      </trkpt>
      <trkpt lat="42.0519250" lon="-6.8813620">
        <ele>1094.3</ele>
        <time>2019-08-16T14:54:53Z</time>
      </trkpt>
      <trkpt lat="42.0518990" lon="-6.8813980">
        <ele>1094.4</ele>
        <time>2019-08-16T14:54:54Z</time>
      </trkpt>
      <trkpt lat="42.0518730" lon="-6.8814310">
        <ele>1094.5</ele>
        <time>2019-08-16T14:54:55Z</time>
      </trkpt>
      <trkpt lat="42.0518450" lon="-6.8814660">
        <ele>1094.6</ele>
        <time>2019-08-16T14:54:56Z</time>
      </trkpt>
      <trkpt lat="42.0518160" lon="-6.8814990">
        <ele>1094.7</ele>
        <time>2019-08-16T14:54:57Z</time>
      </trkpt>
      <trkpt lat="42.0517860" lon="-6.8815300">
        <ele>1094.8</ele>
        <time>2019-08-16T14:54:58Z</time>
      </trkpt>
      <trkpt lat="42.0517590" lon="-6.8815580">
        <ele>1094.8</ele>
        <time>2019-08-16T14:54:59Z</time>
      </trkpt>
      <trkpt lat="42.0517310" lon="-6.8815830">
        <ele>1094.9</ele>
        <time>2019-08-16T14:55:00Z</time>
      </trkpt>
      <trkpt lat="42.0517030" lon="-6.8816070">
        <ele>1095.0</ele>
        <time>2019-08-16T14:55:01Z</time>
      </trkpt>
      <trkpt lat="42.0516750" lon="-6.8816310">
        <ele>1095.1</ele>
        <time>2019-08-16T14:55:02Z</time>
      </trkpt>
      <trkpt lat="42.0516450" lon="-6.8816550">
        <ele>1095.2</ele>
        <time>2019-08-16T14:55:03Z</time>
      </trkpt>
      <trkpt lat="42.0516140" lon="-6.8816790">
        <ele>1095.3</ele>
        <time>2019-08-16T14:55:04Z</time>
      </trkpt>
      <trkpt lat="42.0515830" lon="-6.8817000">
        <ele>1095.4</ele>
        <time>2019-08-16T14:55:05Z</time>
      </trkpt>
      <trkpt lat="42.0515520" lon="-6.8817210">
        <ele>1095.5</ele>
        <time>2019-08-16T14:55:06Z</time>
      </trkpt>
      <trkpt lat="42.0515210" lon="-6.8817410">
        <ele>1095.6</ele>
        <time>2019-08-16T14:55:07Z</time>
      </trkpt>
      <trkpt lat="42.0514910" lon="-6.8817600">
        <ele>1095.7</ele>
        <time>2019-08-16T14:55:08Z</time>
      </trkpt>
      <trkpt lat="42.0514600" lon="-6.8817780">
        <ele>1095.8</ele>
        <time>2019-08-16T14:55:09Z</time>
      </trkpt>
      <trkpt lat="42.0514300" lon="-6.8817950">
        <ele>1095.9</ele>
        <time>2019-08-16T14:55:10Z</time>
      </trkpt>
      <trkpt lat="42.0513990" lon="-6.8818110">
        <ele>1096.1</ele>
        <time>2019-08-16T14:55:11Z</time>
      </trkpt>
      <trkpt lat="42.0513690" lon="-6.8818280">
        <ele>1096.2</ele>
        <time>2019-08-16T14:55:12Z</time>
      </trkpt>
      <trkpt lat="42.0513410" lon="-6.8818440">
        <ele>1096.3</ele>
        <time>2019-08-16T14:55:13Z</time>
      </trkpt>
      <trkpt lat="42.0513130" lon="-6.8818590">
        <ele>1096.4</ele>
        <time>2019-08-16T14:55:14Z</time>
      </trkpt>
      <trkpt lat="42.0512850" lon="-6.8818750">
        <ele>1096.5</ele>
        <time>2019-08-16T14:55:15Z</time>
      </trkpt>
      <trkpt lat="42.0512590" lon="-6.8818890">
        <ele>1096.6</ele>
        <time>2019-08-16T14:55:16Z</time>
      </trkpt>
      <trkpt lat="42.0512340" lon="-6.8819040">
        <ele>1096.8</ele>
        <time>2019-08-16T14:55:17Z</time>
      </trkpt>
      <trkpt lat="42.0512080" lon="-6.8819200">
        <ele>1096.9</ele>
        <time>2019-08-16T14:55:18Z</time>
      </trkpt>
      <trkpt lat="42.0511820" lon="-6.8819360">
        <ele>1097.0</ele>
        <time>2019-08-16T14:55:19Z</time>
      </trkpt>
      <trkpt lat="42.0511560" lon="-6.8819480">
        <ele>1097.1</ele>
        <time>2019-08-16T14:55:20Z</time>
      </trkpt>
      <trkpt lat="42.0511320" lon="-6.8819610">
        <ele>1097.2</ele>
        <time>2019-08-16T14:55:21Z</time>
      </trkpt>
      <trkpt lat="42.0510780" lon="-6.8820030">
        <ele>1097.4</ele>
        <time>2019-08-16T14:55:23Z</time>
      </trkpt>
      <trkpt lat="42.0510520" lon="-6.8820210">
        <ele>1097.5</ele>
        <time>2019-08-16T14:55:24Z</time>
      </trkpt>
      <trkpt lat="42.0510240" lon="-6.8820380">
        <ele>1097.6</ele>
        <time>2019-08-16T14:55:25Z</time>
      </trkpt>
      <trkpt lat="42.0509970" lon="-6.8820540">
        <ele>1097.7</ele>
        <time>2019-08-16T14:55:26Z</time>
      </trkpt>
      <trkpt lat="42.0509710" lon="-6.8820750">
        <ele>1097.8</ele>
        <time>2019-08-16T14:55:27Z</time>
      </trkpt>
      <trkpt lat="42.0509470" lon="-6.8820970">
        <ele>1097.9</ele>
        <time>2019-08-16T14:55:28Z</time>
      </trkpt>
      <trkpt lat="42.0509230" lon="-6.8821190">
        <ele>1098.0</ele>
        <time>2019-08-16T14:55:29Z</time>
      </trkpt>
      <trkpt lat="42.0508980" lon="-6.8821420">
        <ele>1098.1</ele>
        <time>2019-08-16T14:55:30Z</time>
      </trkpt>
      <trkpt lat="42.0508740" lon="-6.8821630">
        <ele>1098.3</ele>
        <time>2019-08-16T14:55:31Z</time>
      </trkpt>
      <trkpt lat="42.0508500" lon="-6.8821830">
        <ele>1098.4</ele>
        <time>2019-08-16T14:55:32Z</time>
      </trkpt>
      <trkpt lat="42.0508240" lon="-6.8822030">
        <ele>1098.5</ele>
        <time>2019-08-16T14:55:33Z</time>
      </trkpt>
      <trkpt lat="42.0507990" lon="-6.8822220">
        <ele>1098.6</ele>
        <time>2019-08-16T14:55:34Z</time>
      </trkpt>
      <trkpt lat="42.0507740" lon="-6.8822440">
        <ele>1098.8</ele>
        <time>2019-08-16T14:55:35Z</time>
      </trkpt>
      <trkpt lat="42.0507510" lon="-6.8822660">
        <ele>1098.9</ele>
        <time>2019-08-16T14:55:36Z</time>
      </trkpt>
      <trkpt lat="42.0507280" lon="-6.8822890">
        <ele>1099.0</ele>
        <time>2019-08-16T14:55:37Z</time>
      </trkpt>
      <trkpt lat="42.0507070" lon="-6.8823120">
        <ele>1099.2</ele>
        <time>2019-08-16T14:55:38Z</time>
      </trkpt>
      <trkpt lat="42.0506840" lon="-6.8823340">
        <ele>1099.3</ele>
        <time>2019-08-16T14:55:39Z</time>
      </trkpt>
      <trkpt lat="42.0506600" lon="-6.8823530">
        <ele>1099.5</ele>
        <time>2019-08-16T14:55:40Z</time>
      </trkpt>
      <trkpt lat="42.0506350" lon="-6.8823740">
        <ele>1099.6</ele>
        <time>2019-08-16T14:55:41Z</time>
      </trkpt>
      <trkpt lat="42.0506120" lon="-6.8823950">
        <ele>1099.8</ele>
        <time>2019-08-16T14:55:42Z</time>
      </trkpt>
      <trkpt lat="42.0505890" lon="-6.8824170">
        <ele>1099.9</ele>
        <time>2019-08-16T14:55:43Z</time>
      </trkpt>
      <trkpt lat="42.0505650" lon="-6.8824380">
        <ele>1100.1</ele>
        <time>2019-08-16T14:55:44Z</time>
      </trkpt>
      <trkpt lat="42.0505410" lon="-6.8824590">
        <ele>1100.3</ele>
        <time>2019-08-16T14:55:45Z</time>
      </trkpt>
      <trkpt lat="42.0505180" lon="-6.8824800">
        <ele>1100.4</ele>
        <time>2019-08-16T14:55:46Z</time>
      </trkpt>
      <trkpt lat="42.0504940" lon="-6.8825020">
        <ele>1100.6</ele>
        <time>2019-08-16T14:55:47Z</time>
      </trkpt>
      <trkpt lat="42.0504710" lon="-6.8825220">
        <ele>1100.8</ele>
        <time>2019-08-16T14:55:48Z</time>
      </trkpt>
      <trkpt lat="42.0504480" lon="-6.8825410">
        <ele>1100.9</ele>
        <time>2019-08-16T14:55:49Z</time>
      </trkpt>
      <trkpt lat="42.0504260" lon="-6.8825610">
        <ele>1101.1</ele>
        <time>2019-08-16T14:55:50Z</time>
      </trkpt>
      <trkpt lat="42.0503750" lon="-6.8826000">
        <ele>1101.4</ele>
        <time>2019-08-16T14:55:52Z</time>
      </trkpt>
      <trkpt lat="42.0503490" lon="-6.8826180">
        <ele>1101.6</ele>
        <time>2019-08-16T14:55:53Z</time>
      </trkpt>
      <trkpt lat="42.0503240" lon="-6.8826330">
        <ele>1101.8</ele>
        <time>2019-08-16T14:55:54Z</time>
      </trkpt>
      <trkpt lat="42.0502980" lon="-6.8826480">
        <ele>1101.9</ele>
        <time>2019-08-16T14:55:55Z</time>
      </trkpt>
      <trkpt lat="42.0502720" lon="-6.8826660">
        <ele>1102.1</ele>
        <time>2019-08-16T14:55:56Z</time>
      </trkpt>
      <trkpt lat="42.0502460" lon="-6.8826830">
        <ele>1102.3</ele>
        <time>2019-08-16T14:55:57Z</time>
      </trkpt>
      <trkpt lat="42.0502200" lon="-6.8827000">
        <ele>1102.4</ele>
        <time>2019-08-16T14:55:58Z</time>
      </trkpt>
      <trkpt lat="42.0501940" lon="-6.8827150">
        <ele>1102.6</ele>
        <time>2019-08-16T14:55:59Z</time>
      </trkpt>
      <trkpt lat="42.0501680" lon="-6.8827310">
        <ele>1102.7</ele>
        <time>2019-08-16T14:56:00Z</time>
      </trkpt>
      <trkpt lat="42.0501420" lon="-6.8827460">
        <ele>1102.9</ele>
        <time>2019-08-16T14:56:01Z</time>
      </trkpt>
      <trkpt lat="42.0501140" lon="-6.8827610">
        <ele>1103.0</ele>
        <time>2019-08-16T14:56:02Z</time>
      </trkpt>
      <trkpt lat="42.0500860" lon="-6.8827780">
        <ele>1103.2</ele>
        <time>2019-08-16T14:56:03Z</time>
      </trkpt>
      <trkpt lat="42.0500590" lon="-6.8827950">
        <ele>1103.3</ele>
        <time>2019-08-16T14:56:04Z</time>
      </trkpt>
      <trkpt lat="42.0500300" lon="-6.8828110">
        <ele>1103.4</ele>
        <time>2019-08-16T14:56:05Z</time>
      </trkpt>
      <trkpt lat="42.0500000" lon="-6.8828280">
        <ele>1103.5</ele>
        <time>2019-08-16T14:56:06Z</time>
      </trkpt>
      <trkpt lat="42.0499720" lon="-6.8828440">
        <ele>1103.7</ele>
        <time>2019-08-16T14:56:07Z</time>
      </trkpt>
      <trkpt lat="42.0499440" lon="-6.8828600">
        <ele>1103.8</ele>
        <time>2019-08-16T14:56:08Z</time>
      </trkpt>
      <trkpt lat="42.0499170" lon="-6.8828760">
        <ele>1103.9</ele>
        <time>2019-08-16T14:56:09Z</time>
      </trkpt>
      <trkpt lat="42.0498900" lon="-6.8828890">
        <ele>1104.0</ele>
        <time>2019-08-16T14:56:10Z</time>
      </trkpt>
      <trkpt lat="42.0498610" lon="-6.8829040">
        <ele>1104.1</ele>
        <time>2019-08-16T14:56:11Z</time>
      </trkpt>
      <trkpt lat="42.0498330" lon="-6.8829190">
        <ele>1104.2</ele>
        <time>2019-08-16T14:56:12Z</time>
      </trkpt>
      <trkpt lat="42.0498060" lon="-6.8829330">
        <ele>1104.3</ele>
        <time>2019-08-16T14:56:13Z</time>
      </trkpt>
      <trkpt lat="42.0497780" lon="-6.8829470">
        <ele>1104.4</ele>
        <time>2019-08-16T14:56:14Z</time>
      </trkpt>
      <trkpt lat="42.0497510" lon="-6.8829610">
        <ele>1104.5</ele>
        <time>2019-08-16T14:56:15Z</time>
      </trkpt>
      <trkpt lat="42.0497240" lon="-6.8829760">
        <ele>1104.6</ele>
        <time>2019-08-16T14:56:16Z</time>
      </trkpt>
      <trkpt lat="42.0496970" lon="-6.8829910">
        <ele>1104.6</ele>
        <time>2019-08-16T14:56:17Z</time>
      </trkpt>
      <trkpt lat="42.0496690" lon="-6.8830050">
        <ele>1104.7</ele>
        <time>2019-08-16T14:56:18Z</time>
      </trkpt>
      <trkpt lat="42.0496420" lon="-6.8830190">
        <ele>1104.8</ele>
        <time>2019-08-16T14:56:19Z</time>
      </trkpt>
      <trkpt lat="42.0496160" lon="-6.8830330">
        <ele>1104.9</ele>
        <time>2019-08-16T14:56:20Z</time>
      </trkpt>
      <trkpt lat="42.0495880" lon="-6.8830460">
        <ele>1105.0</ele>
        <time>2019-08-16T14:56:21Z</time>
      </trkpt>
      <trkpt lat="42.0495610" lon="-6.8830590">
        <ele>1105.1</ele>
        <time>2019-08-16T14:56:22Z</time>
      </trkpt>
      <trkpt lat="42.0495350" lon="-6.8830700">
        <ele>1105.2</ele>
        <time>2019-08-16T14:56:23Z</time>
      </trkpt>
      <trkpt lat="42.0495080" lon="-6.8830830">
        <ele>1105.3</ele>
        <time>2019-08-16T14:56:24Z</time>
      </trkpt>
      <trkpt lat="42.0494810" lon="-6.8830950">
        <ele>1105.4</ele>
        <time>2019-08-16T14:56:25Z</time>
      </trkpt>
      <trkpt lat="42.0494530" lon="-6.8831070">
        <ele>1105.5</ele>
        <time>2019-08-16T14:56:26Z</time>
      </trkpt>
      <trkpt lat="42.0494250" lon="-6.8831200">
        <ele>1105.6</ele>
        <time>2019-08-16T14:56:27Z</time>
      </trkpt>
      <trkpt lat="42.0493970" lon="-6.8831340">
        <ele>1105.7</ele>
        <time>2019-08-16T14:56:28Z</time>
      </trkpt>
      <trkpt lat="42.0493700" lon="-6.8831480">
        <ele>1105.8</ele>
        <time>2019-08-16T14:56:29Z</time>
      </trkpt>
      <trkpt lat="42.0493430" lon="-6.8831620">
        <ele>1105.9</ele>
        <time>2019-08-16T14:56:30Z</time>
      </trkpt>
      <trkpt lat="42.0493160" lon="-6.8831760">
        <ele>1106.1</ele>
        <time>2019-08-16T14:56:31Z</time>
      </trkpt>
      <trkpt lat="42.0492890" lon="-6.8831910">
        <ele>1106.2</ele>
        <time>2019-08-16T14:56:32Z</time>
      </trkpt>
      <trkpt lat="42.0492620" lon="-6.8832070">
        <ele>1106.3</ele>
        <time>2019-08-16T14:56:33Z</time>
      </trkpt>
      <trkpt lat="42.0492350" lon="-6.8832220">
        <ele>1106.4</ele>
        <time>2019-08-16T14:56:34Z</time>
      </trkpt>
      <trkpt lat="42.0492070" lon="-6.8832360">
        <ele>1106.5</ele>
        <time>2019-08-16T14:56:35Z</time>
      </trkpt>
      <trkpt lat="42.0491810" lon="-6.8832500">
        <ele>1106.7</ele>
        <time>2019-08-16T14:56:36Z</time>
      </trkpt>
      <trkpt lat="42.0491550" lon="-6.8832660">
        <ele>1106.8</ele>
        <time>2019-08-16T14:56:37Z</time>
      </trkpt>
      <trkpt lat="42.0491290" lon="-6.8832820">
        <ele>1106.9</ele>
        <time>2019-08-16T14:56:38Z</time>
      </trkpt>
      <trkpt lat="42.0491030" lon="-6.8832990">
        <ele>1107.1</ele>
        <time>2019-08-16T14:56:39Z</time>
      </trkpt>
      <trkpt lat="42.0490770" lon="-6.8833160">
        <ele>1107.2</ele>
        <time>2019-08-16T14:56:40Z</time>
      </trkpt>
      <trkpt lat="42.0490520" lon="-6.8833330">
        <ele>1107.4</ele>
        <time>2019-08-16T14:56:41Z</time>
      </trkpt>
      <trkpt lat="42.0490270" lon="-6.8833490">
        <ele>1107.5</ele>
        <time>2019-08-16T14:56:42Z</time>
      </trkpt>
      <trkpt lat="42.0490030" lon="-6.8833670">
        <ele>1107.7</ele>
        <time>2019-08-16T14:56:43Z</time>
      </trkpt>
      <trkpt lat="42.0489790" lon="-6.8833830">
        <ele>1107.8</ele>
        <time>2019-08-16T14:56:44Z</time>
      </trkpt>
      <trkpt lat="42.0489540" lon="-6.8833990">
        <ele>1108.0</ele>
        <time>2019-08-16T14:56:45Z</time>
      </trkpt>
      <trkpt lat="42.0489290" lon="-6.8834120">
        <ele>1108.1</ele>
        <time>2019-08-16T14:56:46Z</time>
      </trkpt>
      <trkpt lat="42.0488790" lon="-6.8834460">
        <ele>1108.4</ele>
        <time>2019-08-16T14:56:48Z</time>
      </trkpt>
      <trkpt lat="42.0488540" lon="-6.8834620">
        <ele>1108.6</ele>
        <time>2019-08-16T14:56:49Z</time>
      </trkpt>
      <trkpt lat="42.0488280" lon="-6.8834780">
        <ele>1108.8</ele>
        <time>2019-08-16T14:56:50Z</time>
      </trkpt>
      <trkpt lat="42.0488020" lon="-6.8834940">
        <ele>1108.9</ele>
        <time>2019-08-16T14:56:51Z</time>
      </trkpt>
      <trkpt lat="42.0487770" lon="-6.8835130">
        <ele>1109.1</ele>
        <time>2019-08-16T14:56:52Z</time>
      </trkpt>
      <trkpt lat="42.0487520" lon="-6.8835290">
        <ele>1109.3</ele>
        <time>2019-08-16T14:56:53Z</time>
      </trkpt>
      <trkpt lat="42.0487250" lon="-6.8835440">
        <ele>1109.4</ele>
        <time>2019-08-16T14:56:54Z</time>
      </trkpt>
      <trkpt lat="42.0486990" lon="-6.8835610">
        <ele>1109.6</ele>
        <time>2019-08-16T14:56:55Z</time>
      </trkpt>
      <trkpt lat="42.0486740" lon="-6.8835770">
        <ele>1109.7</ele>
        <time>2019-08-16T14:56:56Z</time>
      </trkpt>
      <trkpt lat="42.0486480" lon="-6.8835940">
        <ele>1109.9</ele>
        <time>2019-08-16T14:56:57Z</time>
      </trkpt>
      <trkpt lat="42.0486230" lon="-6.8836110">
        <ele>1110.0</ele>
        <time>2019-08-16T14:56:58Z</time>
      </trkpt>
      <trkpt lat="42.0485980" lon="-6.8836300">
        <ele>1110.2</ele>
        <time>2019-08-16T14:56:59Z</time>
      </trkpt>
      <trkpt lat="42.0485720" lon="-6.8836480">
        <ele>1110.3</ele>
        <time>2019-08-16T14:57:00Z</time>
      </trkpt>
      <trkpt lat="42.0485460" lon="-6.8836640">
        <ele>1110.5</ele>
        <time>2019-08-16T14:57:01Z</time>
      </trkpt>
      <trkpt lat="42.0485200" lon="-6.8836810">
        <ele>1110.6</ele>
        <time>2019-08-16T14:57:02Z</time>
      </trkpt>
      <trkpt lat="42.0484940" lon="-6.8836990">
        <ele>1110.8</ele>
        <time>2019-08-16T14:57:03Z</time>
      </trkpt>
      <trkpt lat="42.0484680" lon="-6.8837180">
        <ele>1110.9</ele>
        <time>2019-08-16T14:57:04Z</time>
      </trkpt>
      <trkpt lat="42.0484430" lon="-6.8837350">
        <ele>1111.0</ele>
        <time>2019-08-16T14:57:05Z</time>
      </trkpt>
      <trkpt lat="42.0484180" lon="-6.8837500">
        <ele>1111.2</ele>
        <time>2019-08-16T14:57:06Z</time>
      </trkpt>
      <trkpt lat="42.0483930" lon="-6.8837640">
        <ele>1111.3</ele>
        <time>2019-08-16T14:57:07Z</time>
      </trkpt>
      <trkpt lat="42.0483430" lon="-6.8837920">
        <ele>1111.5</ele>
        <time>2019-08-16T14:57:09Z</time>
      </trkpt>
      <trkpt lat="42.0483190" lon="-6.8838070">
        <ele>1111.7</ele>
        <time>2019-08-16T14:57:10Z</time>
      </trkpt>
      <trkpt lat="42.0482930" lon="-6.8838260">
        <ele>1111.8</ele>
        <time>2019-08-16T14:57:11Z</time>
      </trkpt>
      <trkpt lat="42.0482680" lon="-6.8838420">
        <ele>1111.9</ele>
        <time>2019-08-16T14:57:12Z</time>
      </trkpt>
      <trkpt lat="42.0482420" lon="-6.8838570">
        <ele>1112.1</ele>
        <time>2019-08-16T14:57:13Z</time>
      </trkpt>
      <trkpt lat="42.0482160" lon="-6.8838740">
        <ele>1112.2</ele>
        <time>2019-08-16T14:57:14Z</time>
      </trkpt>
      <trkpt lat="42.0481900" lon="-6.8838910">
        <ele>1112.3</ele>
        <time>2019-08-16T14:57:15Z</time>
      </trkpt>
      <trkpt lat="42.0481650" lon="-6.8839080">
        <ele>1112.5</ele>
        <time>2019-08-16T14:57:16Z</time>
      </trkpt>
      <trkpt lat="42.0481400" lon="-6.8839260">
        <ele>1112.6</ele>
        <time>2019-08-16T14:57:17Z</time>
      </trkpt>
      <trkpt lat="42.0481150" lon="-6.8839430">
        <ele>1112.8</ele>
        <time>2019-08-16T14:57:18Z</time>
      </trkpt>
      <trkpt lat="42.0480900" lon="-6.8839600">
        <ele>1112.9</ele>
        <time>2019-08-16T14:57:19Z</time>
      </trkpt>
      <trkpt lat="42.0480650" lon="-6.8839770">
        <ele>1113.0</ele>
        <time>2019-08-16T14:57:20Z</time>
      </trkpt>
      <trkpt lat="42.0480410" lon="-6.8839930">
        <ele>1113.2</ele>
        <time>2019-08-16T14:57:21Z</time>
      </trkpt>
      <trkpt lat="42.0480170" lon="-6.8840100">
        <ele>1113.3</ele>
        <time>2019-08-16T14:57:22Z</time>
      </trkpt>
      <trkpt lat="42.0479670" lon="-6.8840420">
        <ele>1113.6</ele>
        <time>2019-08-16T14:57:24Z</time>
      </trkpt>
      <trkpt lat="42.0479430" lon="-6.8840590">
        <ele>1113.8</ele>
        <time>2019-08-16T14:57:25Z</time>
      </trkpt>
      <trkpt lat="42.0479180" lon="-6.8840750">
        <ele>1114.0</ele>
        <time>2019-08-16T14:57:26Z</time>
      </trkpt>
      <trkpt lat="42.0478950" lon="-6.8840920">
        <ele>1114.1</ele>
        <time>2019-08-16T14:57:27Z</time>
      </trkpt>
      <trkpt lat="42.0478710" lon="-6.8841090">
        <ele>1114.3</ele>
        <time>2019-08-16T14:57:28Z</time>
      </trkpt>
      <trkpt lat="42.0478450" lon="-6.8841250">
        <ele>1114.4</ele>
        <time>2019-08-16T14:57:29Z</time>
      </trkpt>
      <trkpt lat="42.0478190" lon="-6.8841410">
        <ele>1114.6</ele>
        <time>2019-08-16T14:57:30Z</time>
      </trkpt>
      <trkpt lat="42.0477940" lon="-6.8841590">
        <ele>1114.8</ele>
        <time>2019-08-16T14:57:31Z</time>
      </trkpt>
      <trkpt lat="42.0477690" lon="-6.8841770">
        <ele>1114.9</ele>
        <time>2019-08-16T14:57:32Z</time>
      </trkpt>
      <trkpt lat="42.0477440" lon="-6.8841950">
        <ele>1115.1</ele>
        <time>2019-08-16T14:57:33Z</time>
      </trkpt>
      <trkpt lat="42.0477190" lon="-6.8842130">
        <ele>1115.3</ele>
        <time>2019-08-16T14:57:34Z</time>
      </trkpt>
      <trkpt lat="42.0476930" lon="-6.8842290">
        <ele>1115.4</ele>
        <time>2019-08-16T14:57:35Z</time>
      </trkpt>
      <trkpt lat="42.0476670" lon="-6.8842450">
        <ele>1115.6</ele>
        <time>2019-08-16T14:57:36Z</time>
      </trkpt>
      <trkpt lat="42.0476410" lon="-6.8842620">
        <ele>1115.8</ele>
        <time>2019-08-16T14:57:37Z</time>
      </trkpt>
      <trkpt lat="42.0476160" lon="-6.8842810">
        <ele>1116.0</ele>
        <time>2019-08-16T14:57:38Z</time>
      </trkpt>
      <trkpt lat="42.0475910" lon="-6.8843030">
        <ele>1116.2</ele>
        <time>2019-08-16T14:57:39Z</time>
      </trkpt>
      <trkpt lat="42.0475660" lon="-6.8843250">
        <ele>1116.4</ele>
        <time>2019-08-16T14:57:40Z</time>
      </trkpt>
      <trkpt lat="42.0475430" lon="-6.8843500">
        <ele>1116.7</ele>
        <time>2019-08-16T14:57:41Z</time>
      </trkpt>
      <trkpt lat="42.0475190" lon="-6.8843750">
        <ele>1117.0</ele>
        <time>2019-08-16T14:57:42Z</time>
      </trkpt>
      <trkpt lat="42.0474950" lon="-6.8843970">
        <ele>1117.2</ele>
        <time>2019-08-16T14:57:43Z</time>
      </trkpt>
      <trkpt lat="42.0474730" lon="-6.8844220">
        <ele>1117.5</ele>
        <time>2019-08-16T14:57:44Z</time>
      </trkpt>
      <trkpt lat="42.0474500" lon="-6.8844490">
        <ele>1117.8</ele>
        <time>2019-08-16T14:57:45Z</time>
      </trkpt>
      <trkpt lat="42.0474270" lon="-6.8844770">
        <ele>1118.1</ele>
        <time>2019-08-16T14:57:46Z</time>
      </trkpt>
      <trkpt lat="42.0474040" lon="-6.8845050">
        <ele>1118.3</ele>
        <time>2019-08-16T14:57:47Z</time>
      </trkpt>
      <trkpt lat="42.0473830" lon="-6.8845340">
        <ele>1118.5</ele>
        <time>2019-08-16T14:57:48Z</time>
      </trkpt>
      <trkpt lat="42.0473630" lon="-6.8845660">
        <ele>1118.8</ele>
        <time>2019-08-16T14:57:49Z</time>
      </trkpt>
      <trkpt lat="42.0473430" lon="-6.8846000">
        <ele>1119.0</ele>
        <time>2019-08-16T14:57:50Z</time>
      </trkpt>
      <trkpt lat="42.0473220" lon="-6.8846320">
        <ele>1119.2</ele>
        <time>2019-08-16T14:57:51Z</time>
      </trkpt>
      <trkpt lat="42.0473030" lon="-6.8846660">
        <ele>1119.4</ele>
        <time>2019-08-16T14:57:52Z</time>
      </trkpt>
      <trkpt lat="42.0472860" lon="-6.8847020">
        <ele>1119.6</ele>
        <time>2019-08-16T14:57:53Z</time>
      </trkpt>
      <trkpt lat="42.0472690" lon="-6.8847380">
        <ele>1119.8</ele>
        <time>2019-08-16T14:57:54Z</time>
      </trkpt>
      <trkpt lat="42.0472530" lon="-6.8847740">
        <ele>1120.0</ele>
        <time>2019-08-16T14:57:55Z</time>
      </trkpt>
      <trkpt lat="42.0472370" lon="-6.8848100">
        <ele>1120.2</ele>
        <time>2019-08-16T14:57:56Z</time>
      </trkpt>
      <trkpt lat="42.0472230" lon="-6.8848470">
        <ele>1120.3</ele>
        <time>2019-08-16T14:57:57Z</time>
      </trkpt>
      <trkpt lat="42.0472100" lon="-6.8848860">
        <ele>1120.5</ele>
        <time>2019-08-16T14:57:58Z</time>
      </trkpt>
      <trkpt lat="42.0471980" lon="-6.8849240">
        <ele>1120.7</ele>
        <time>2019-08-16T14:57:59Z</time>
      </trkpt>
      <trkpt lat="42.0471890" lon="-6.8849650">
        <ele>1120.9</ele>
        <time>2019-08-16T14:58:00Z</time>
      </trkpt>
      <trkpt lat="42.0471790" lon="-6.8850050">
        <ele>1121.1</ele>
        <time>2019-08-16T14:58:01Z</time>
      </trkpt>
      <trkpt lat="42.0471720" lon="-6.8850460">
        <ele>1121.3</ele>
        <time>2019-08-16T14:58:02Z</time>
      </trkpt>
      <trkpt lat="42.0471650" lon="-6.8850880">
        <ele>1121.5</ele>
        <time>2019-08-16T14:58:03Z</time>
      </trkpt>
      <trkpt lat="42.0471600" lon="-6.8851310">
        <ele>1121.7</ele>
        <time>2019-08-16T14:58:04Z</time>
      </trkpt>
      <trkpt lat="42.0471570" lon="-6.8851750">
        <ele>1121.9</ele>
        <time>2019-08-16T14:58:05Z</time>
      </trkpt>
      <trkpt lat="42.0471560" lon="-6.8852190">
        <ele>1122.1</ele>
        <time>2019-08-16T14:58:06Z</time>
      </trkpt>
      <trkpt lat="42.0471550" lon="-6.8852630">
        <ele>1122.4</ele>
        <time>2019-08-16T14:58:07Z</time>
      </trkpt>
      <trkpt lat="42.0471550" lon="-6.8853070">
        <ele>1122.6</ele>
        <time>2019-08-16T14:58:08Z</time>
      </trkpt>
      <trkpt lat="42.0471570" lon="-6.8853490">
        <ele>1122.9</ele>
        <time>2019-08-16T14:58:09Z</time>
      </trkpt>
      <trkpt lat="42.0471580" lon="-6.8853920">
        <ele>1123.2</ele>
        <time>2019-08-16T14:58:10Z</time>
      </trkpt>
      <trkpt lat="42.0471590" lon="-6.8854340">
        <ele>1123.4</ele>
        <time>2019-08-16T14:58:11Z</time>
      </trkpt>
      <trkpt lat="42.0471600" lon="-6.8854780">
        <ele>1123.9</ele>
        <time>2019-08-16T14:58:12Z</time>
      </trkpt>
      <trkpt lat="42.0471590" lon="-6.8855210">
        <ele>1124.3</ele>
        <time>2019-08-16T14:58:13Z</time>
      </trkpt>
      <trkpt lat="42.0471560" lon="-6.8855640">
        <ele>1124.6</ele>
        <time>2019-08-16T14:58:14Z</time>
      </trkpt>
      <trkpt lat="42.0471530" lon="-6.8856080">
        <ele>1124.9</ele>
        <time>2019-08-16T14:58:15Z</time>
      </trkpt>
      <trkpt lat="42.0471490" lon="-6.8856520">
        <ele>1125.2</ele>
        <time>2019-08-16T14:58:16Z</time>
      </trkpt>
      <trkpt lat="42.0471430" lon="-6.8856980">
        <ele>1125.5</ele>
        <time>2019-08-16T14:58:17Z</time>
      </trkpt>
      <trkpt lat="42.0471350" lon="-6.8857450">
        <ele>1125.8</ele>
        <time>2019-08-16T14:58:18Z</time>
      </trkpt>
      <trkpt lat="42.0471250" lon="-6.8857910">
        <ele>1126.1</ele>
        <time>2019-08-16T14:58:19Z</time>
      </trkpt>
      <trkpt lat="42.0471130" lon="-6.8858360">
        <ele>1126.4</ele>
        <time>2019-08-16T14:58:20Z</time>
      </trkpt>
      <trkpt lat="42.0470980" lon="-6.8858800">
        <ele>1126.6</ele>
        <time>2019-08-16T14:58:21Z</time>
      </trkpt>
      <trkpt lat="42.0470770" lon="-6.8859230">
        <ele>1126.9</ele>
        <time>2019-08-16T14:58:22Z</time>
      </trkpt>
      <trkpt lat="42.0470510" lon="-6.8859640">
        <ele>1127.1</ele>
        <time>2019-08-16T14:58:23Z</time>
      </trkpt>
      <trkpt lat="42.0470210" lon="-6.8860060">
        <ele>1127.4</ele>
        <time>2019-08-16T14:58:24Z</time>
      </trkpt>
      <trkpt lat="42.0469890" lon="-6.8860470">
        <ele>1127.6</ele>
        <time>2019-08-16T14:58:25Z</time>
      </trkpt>
      <trkpt lat="42.0469540" lon="-6.8860880">
        <ele>1127.8</ele>
        <time>2019-08-16T14:58:26Z</time>
      </trkpt>
      <trkpt lat="42.0469150" lon="-6.8861270">
        <ele>1128.0</ele>
        <time>2019-08-16T14:58:27Z</time>
      </trkpt>
      <trkpt lat="42.0468760" lon="-6.8861640">
        <ele>1128.5</ele>
        <time>2019-08-16T14:58:28Z</time>
      </trkpt>
      <trkpt lat="42.0468350" lon="-6.8862010">
        <ele>1128.7</ele>
        <time>2019-08-16T14:58:29Z</time>
      </trkpt>
      <trkpt lat="42.0467930" lon="-6.8862350">
        <ele>1128.2</ele>
        <time>2019-08-16T14:58:30Z</time>
      </trkpt>
      <trkpt lat="42.0467500" lon="-6.8862660">
        <ele>1128.0</ele>
        <time>2019-08-16T14:58:31Z</time>
      </trkpt>
      <trkpt lat="42.0467060" lon="-6.8862950">
        <ele>1127.7</ele>
        <time>2019-08-16T14:58:32Z</time>
      </trkpt>
      <trkpt lat="42.0466620" lon="-6.8863240">
        <ele>1127.5</ele>
        <time>2019-08-16T14:58:33Z</time>
      </trkpt>
      <trkpt lat="42.0466180" lon="-6.8863530">
        <ele>1127.2</ele>
        <time>2019-08-16T14:58:34Z</time>
      </trkpt>
      <trkpt lat="42.0465740" lon="-6.8863810">
        <ele>1126.9</ele>
        <time>2019-08-16T14:58:35Z</time>
      </trkpt>
      <trkpt lat="42.0465310" lon="-6.8864090">
        <ele>1126.6</ele>
        <time>2019-08-16T14:58:36Z</time>
      </trkpt>
      <trkpt lat="42.0464880" lon="-6.8864370">
        <ele>1126.3</ele>
        <time>2019-08-16T14:58:37Z</time>
      </trkpt>
      <trkpt lat="42.0464430" lon="-6.8864600">
        <ele>1125.9</ele>
        <time>2019-08-16T14:58:38Z</time>
      </trkpt>
      <trkpt lat="42.0463970" lon="-6.8864780">
        <ele>1125.6</ele>
        <time>2019-08-16T14:58:39Z</time>
      </trkpt>
      <trkpt lat="42.0463540" lon="-6.8864980">
        <ele>1125.3</ele>
        <time>2019-08-16T14:58:40Z</time>
      </trkpt>
      <trkpt lat="42.0463110" lon="-6.8865190">
        <ele>1124.9</ele>
        <time>2019-08-16T14:58:41Z</time>
      </trkpt>
      <trkpt lat="42.0462700" lon="-6.8865410">
        <ele>1124.6</ele>
        <time>2019-08-16T14:58:42Z</time>
      </trkpt>
      <trkpt lat="42.0462300" lon="-6.8865630">
        <ele>1124.3</ele>
        <time>2019-08-16T14:58:43Z</time>
      </trkpt>
      <trkpt lat="42.0461910" lon="-6.8865830">
        <ele>1124.0</ele>
        <time>2019-08-16T14:58:44Z</time>
      </trkpt>
      <trkpt lat="42.0461520" lon="-6.8866050">
        <ele>1123.8</ele>
        <time>2019-08-16T14:58:45Z</time>
      </trkpt>
      <trkpt lat="42.0461140" lon="-6.8866270">
        <ele>1123.5</ele>
        <time>2019-08-16T14:58:46Z</time>
      </trkpt>
      <trkpt lat="42.0460740" lon="-6.8866470">
        <ele>1123.3</ele>
        <time>2019-08-16T14:58:47Z</time>
      </trkpt>
      <trkpt lat="42.0460340" lon="-6.8866660">
        <ele>1123.1</ele>
        <time>2019-08-16T14:58:48Z</time>
      </trkpt>
      <trkpt lat="42.0459960" lon="-6.8866870">
        <ele>1122.8</ele>
        <time>2019-08-16T14:58:49Z</time>
      </trkpt>
      <trkpt lat="42.0459570" lon="-6.8867090">
        <ele>1122.6</ele>
        <time>2019-08-16T14:58:50Z</time>
      </trkpt>
      <trkpt lat="42.0459160" lon="-6.8867300">
        <ele>1122.4</ele>
        <time>2019-08-16T14:58:51Z</time>
      </trkpt>
      <trkpt lat="42.0458760" lon="-6.8867500">
        <ele>1122.1</ele>
        <time>2019-08-16T14:58:52Z</time>
      </trkpt>
      <trkpt lat="42.0458360" lon="-6.8867710">
        <ele>1121.9</ele>
        <time>2019-08-16T14:58:53Z</time>
      </trkpt>
      <trkpt lat="42.0457950" lon="-6.8867920">
        <ele>1121.7</ele>
        <time>2019-08-16T14:58:54Z</time>
      </trkpt>
      <trkpt lat="42.0457530" lon="-6.8868130">
        <ele>1121.5</ele>
        <time>2019-08-16T14:58:55Z</time>
      </trkpt>
      <trkpt lat="42.0457120" lon="-6.8868320">
        <ele>1121.2</ele>
        <time>2019-08-16T14:58:56Z</time>
      </trkpt>
      <trkpt lat="42.0456740" lon="-6.8868550">
        <ele>1121.0</ele>
        <time>2019-08-16T14:58:57Z</time>
      </trkpt>
      <trkpt lat="42.0456350" lon="-6.8868790">
        <ele>1120.7</ele>
        <time>2019-08-16T14:58:58Z</time>
      </trkpt>
      <trkpt lat="42.0455970" lon="-6.8869030">
        <ele>1120.5</ele>
        <time>2019-08-16T14:58:59Z</time>
      </trkpt>
      <trkpt lat="42.0455570" lon="-6.8869220">
        <ele>1120.2</ele>
        <time>2019-08-16T14:59:00Z</time>
      </trkpt>
      <trkpt lat="42.0455170" lon="-6.8869410">
        <ele>1119.9</ele>
        <time>2019-08-16T14:59:01Z</time>
      </trkpt>
      <trkpt lat="42.0454780" lon="-6.8869610">
        <ele>1119.6</ele>
        <time>2019-08-16T14:59:02Z</time>
      </trkpt>
      <trkpt lat="42.0454370" lon="-6.8869820">
        <ele>1119.2</ele>
        <time>2019-08-16T14:59:03Z</time>
      </trkpt>
      <trkpt lat="42.0453970" lon="-6.8870040">
        <ele>1118.9</ele>
        <time>2019-08-16T14:59:04Z</time>
      </trkpt>
      <trkpt lat="42.0453560" lon="-6.8870250">
        <ele>1118.5</ele>
        <time>2019-08-16T14:59:05Z</time>
      </trkpt>
      <trkpt lat="42.0453170" lon="-6.8870440">
        <ele>1118.1</ele>
        <time>2019-08-16T14:59:06Z</time>
      </trkpt>
      <trkpt lat="42.0452770" lon="-6.8870620">
        <ele>1117.8</ele>
        <time>2019-08-16T14:59:07Z</time>
      </trkpt>
      <trkpt lat="42.0452380" lon="-6.8870810">
        <ele>1117.4</ele>
        <time>2019-08-16T14:59:08Z</time>
      </trkpt>
      <trkpt lat="42.0451990" lon="-6.8871030">
        <ele>1117.1</ele>
        <time>2019-08-16T14:59:09Z</time>
      </trkpt>
      <trkpt lat="42.0451590" lon="-6.8871280">
        <ele>1116.7</ele>
        <time>2019-08-16T14:59:10Z</time>
      </trkpt>
      <trkpt lat="42.0451170" lon="-6.8871490">
        <ele>1116.4</ele>
        <time>2019-08-16T14:59:11Z</time>
      </trkpt>
      <trkpt lat="42.0450750" lon="-6.8871700">
        <ele>1116.3</ele>
        <time>2019-08-16T14:59:12Z</time>
      </trkpt>
      <trkpt lat="42.0450320" lon="-6.8871910">
        <ele>1116.1</ele>
        <time>2019-08-16T14:59:13Z</time>
      </trkpt>
      <trkpt lat="42.0449870" lon="-6.8872100">
        <ele>1116.0</ele>
        <time>2019-08-16T14:59:14Z</time>
      </trkpt>
      <trkpt lat="42.0449400" lon="-6.8872280">
        <ele>1115.9</ele>
        <time>2019-08-16T14:59:15Z</time>
      </trkpt>
      <trkpt lat="42.0448930" lon="-6.8872430">
        <ele>1115.9</ele>
        <time>2019-08-16T14:59:16Z</time>
      </trkpt>
      <trkpt lat="42.0448450" lon="-6.8872560">
        <ele>1115.8</ele>
        <time>2019-08-16T14:59:17Z</time>
      </trkpt>
      <trkpt lat="42.0447960" lon="-6.8872660">
        <ele>1115.7</ele>
        <time>2019-08-16T14:59:18Z</time>
      </trkpt>
      <trkpt lat="42.0447440" lon="-6.8872720">
        <ele>1115.7</ele>
        <time>2019-08-16T14:59:19Z</time>
      </trkpt>
      <trkpt lat="42.0446900" lon="-6.8872750">
        <ele>1115.6</ele>
        <time>2019-08-16T14:59:20Z</time>
      </trkpt>
      <trkpt lat="42.0446340" lon="-6.8872740">
        <ele>1115.5</ele>
        <time>2019-08-16T14:59:21Z</time>
      </trkpt>
      <trkpt lat="42.0445760" lon="-6.8872690">
        <ele>1115.4</ele>
        <time>2019-08-16T14:59:22Z</time>
      </trkpt>
      <trkpt lat="42.0445170" lon="-6.8872560">
        <ele>1115.3</ele>
        <time>2019-08-16T14:59:23Z</time>
      </trkpt>
      <trkpt lat="42.0444570" lon="-6.8872330">
        <ele>1115.2</ele>
        <time>2019-08-16T14:59:24Z</time>
      </trkpt>
      <trkpt lat="42.0443990" lon="-6.8872050">
        <ele>1115.1</ele>
        <time>2019-08-16T14:59:25Z</time>
      </trkpt>
      <trkpt lat="42.0443440" lon="-6.8871720">
        <ele>1114.9</ele>
        <time>2019-08-16T14:59:26Z</time>
      </trkpt>
      <trkpt lat="42.0442890" lon="-6.8871370">
        <ele>1114.8</ele>
        <time>2019-08-16T14:59:27Z</time>
      </trkpt>
      <trkpt lat="42.0442340" lon="-6.8871000">
        <ele>1114.6</ele>
        <time>2019-08-16T14:59:28Z</time>
      </trkpt>
      <trkpt lat="42.0441790" lon="-6.8870600">
        <ele>1114.5</ele>
        <time>2019-08-16T14:59:29Z</time>
      </trkpt>
      <trkpt lat="42.0441250" lon="-6.8870200">
        <ele>1114.2</ele>
        <time>2019-08-16T14:59:30Z</time>
      </trkpt>
      <trkpt lat="42.0440690" lon="-6.8869780">
        <ele>1114.0</ele>
        <time>2019-08-16T14:59:31Z</time>
      </trkpt>
      <trkpt lat="42.0440130" lon="-6.8869360">
        <ele>1113.8</ele>
        <time>2019-08-16T14:59:32Z</time>
      </trkpt>
      <trkpt lat="42.0439550" lon="-6.8868960">
        <ele>1113.5</ele>
        <time>2019-08-16T14:59:33Z</time>
      </trkpt>
      <trkpt lat="42.0438980" lon="-6.8868610">
        <ele>1113.2</ele>
        <time>2019-08-16T14:59:34Z</time>
      </trkpt>
      <trkpt lat="42.0438370" lon="-6.8868270">
        <ele>1112.9</ele>
        <time>2019-08-16T14:59:35Z</time>
      </trkpt>
      <trkpt lat="42.0437770" lon="-6.8867950">
        <ele>1112.6</ele>
        <time>2019-08-16T14:59:36Z</time>
      </trkpt>
      <trkpt lat="42.0437150" lon="-6.8867660">
        <ele>1112.3</ele>
        <time>2019-08-16T14:59:37Z</time>
      </trkpt>
      <trkpt lat="42.0436520" lon="-6.8867420">
        <ele>1112.0</ele>
        <time>2019-08-16T14:59:38Z</time>
      </trkpt>
      <trkpt lat="42.0435870" lon="-6.8867250">
        <ele>1111.7</ele>
        <time>2019-08-16T14:59:39Z</time>
      </trkpt>
      <trkpt lat="42.0435210" lon="-6.8867150">
        <ele>1111.4</ele>
        <time>2019-08-16T14:59:40Z</time>
      </trkpt>
      <trkpt lat="42.0434570" lon="-6.8867090">
        <ele>1111.1</ele>
        <time>2019-08-16T14:59:41Z</time>
      </trkpt>
      <trkpt lat="42.0433940" lon="-6.8867060">
        <ele>1110.9</ele>
        <time>2019-08-16T14:59:42Z</time>
      </trkpt>
      <trkpt lat="42.0433310" lon="-6.8867110">
        <ele>1110.7</ele>
        <time>2019-08-16T14:59:43Z</time>
      </trkpt>
      <trkpt lat="42.0432680" lon="-6.8867210">
        <ele>1110.5</ele>
        <time>2019-08-16T14:59:44Z</time>
      </trkpt>
      <trkpt lat="42.0432040" lon="-6.8867350">
        <ele>1110.2</ele>
        <time>2019-08-16T14:59:45Z</time>
      </trkpt>
      <trkpt lat="42.0431410" lon="-6.8867490">
        <ele>1110.0</ele>
        <time>2019-08-16T14:59:46Z</time>
      </trkpt>
      <trkpt lat="42.0430770" lon="-6.8867660">
        <ele>1109.8</ele>
        <time>2019-08-16T14:59:47Z</time>
      </trkpt>
      <trkpt lat="42.0430150" lon="-6.8867830">
        <ele>1109.6</ele>
        <time>2019-08-16T14:59:48Z</time>
      </trkpt>
      <trkpt lat="42.0429530" lon="-6.8868010">
        <ele>1109.4</ele>
        <time>2019-08-16T14:59:49Z</time>
      </trkpt>
      <trkpt lat="42.0428910" lon="-6.8868210">
        <ele>1109.2</ele>
        <time>2019-08-16T14:59:50Z</time>
      </trkpt>
      <trkpt lat="42.0428300" lon="-6.8868410">
        <ele>1109.0</ele>
        <time>2019-08-16T14:59:51Z</time>
      </trkpt>
      <trkpt lat="42.0427690" lon="-6.8868650">
        <ele>1108.7</ele>
        <time>2019-08-16T14:59:52Z</time>
      </trkpt>
      <trkpt lat="42.0427090" lon="-6.8868930">
        <ele>1108.5</ele>
        <time>2019-08-16T14:59:53Z</time>
      </trkpt>
      <trkpt lat="42.0426490" lon="-6.8869260">
        <ele>1108.3</ele>
        <time>2019-08-16T14:59:54Z</time>
      </trkpt>
      <trkpt lat="42.0425920" lon="-6.8869680">
        <ele>1108.0</ele>
        <time>2019-08-16T14:59:55Z</time>
      </trkpt>
      <trkpt lat="42.0425420" lon="-6.8870170">
        <ele>1107.8</ele>
        <time>2019-08-16T14:59:56Z</time>
      </trkpt>
      <trkpt lat="42.0424970" lon="-6.8870730">
        <ele>1107.6</ele>
        <time>2019-08-16T14:59:57Z</time>
      </trkpt>
      <trkpt lat="42.0424560" lon="-6.8871320">
        <ele>1107.4</ele>
        <time>2019-08-16T14:59:58Z</time>
      </trkpt>
      <trkpt lat="42.0424180" lon="-6.8871950">
        <ele>1107.1</ele>
        <time>2019-08-16T14:59:59Z</time>
      </trkpt>
      <trkpt lat="42.0423830" lon="-6.8872560">
        <ele>1107.0</ele>
        <time>2019-08-16T15:00:00Z</time>
      </trkpt>
      <trkpt lat="42.0423460" lon="-6.8873130">
        <ele>1106.8</ele>
        <time>2019-08-16T15:00:01Z</time>
      </trkpt>
      <trkpt lat="42.0423080" lon="-6.8873690">
        <ele>1106.6</ele>
        <time>2019-08-16T15:00:02Z</time>
      </trkpt>
      <trkpt lat="42.0422710" lon="-6.8874250">
        <ele>1106.5</ele>
        <time>2019-08-16T15:00:03Z</time>
      </trkpt>
      <trkpt lat="42.0422320" lon="-6.8874820">
        <ele>1106.3</ele>
        <time>2019-08-16T15:00:04Z</time>
      </trkpt>
      <trkpt lat="42.0421900" lon="-6.8875360">
        <ele>1106.1</ele>
        <time>2019-08-16T15:00:05Z</time>
      </trkpt>
      <trkpt lat="42.0421440" lon="-6.8875830">
        <ele>1106.0</ele>
        <time>2019-08-16T15:00:06Z</time>
      </trkpt>
      <trkpt lat="42.0420940" lon="-6.8876200">
        <ele>1105.8</ele>
        <time>2019-08-16T15:00:07Z</time>
      </trkpt>
      <trkpt lat="42.0420380" lon="-6.8876500">
        <ele>1105.6</ele>
        <time>2019-08-16T15:00:08Z</time>
      </trkpt>
      <trkpt lat="42.0419800" lon="-6.8876670">
        <ele>1105.4</ele>
        <time>2019-08-16T15:00:09Z</time>
      </trkpt>
      <trkpt lat="42.0419220" lon="-6.8876740">
        <ele>1105.2</ele>
        <time>2019-08-16T15:00:10Z</time>
      </trkpt>
      <trkpt lat="42.0418630" lon="-6.8876740">
        <ele>1105.0</ele>
        <time>2019-08-16T15:00:11Z</time>
      </trkpt>
      <trkpt lat="42.0418020" lon="-6.8876710">
        <ele>1104.7</ele>
        <time>2019-08-16T15:00:12Z</time>
      </trkpt>
      <trkpt lat="42.0417410" lon="-6.8876670">
        <ele>1104.5</ele>
        <time>2019-08-16T15:00:13Z</time>
      </trkpt>
      <trkpt lat="42.0416800" lon="-6.8876620">
        <ele>1104.2</ele>
        <time>2019-08-16T15:00:14Z</time>
      </trkpt>
      <trkpt lat="42.0416180" lon="-6.8876560">
        <ele>1103.9</ele>
        <time>2019-08-16T15:00:15Z</time>
      </trkpt>
      <trkpt lat="42.0415540" lon="-6.8876510">
        <ele>1103.6</ele>
        <time>2019-08-16T15:00:16Z</time>
      </trkpt>
      <trkpt lat="42.0414900" lon="-6.8876460">
        <ele>1103.2</ele>
        <time>2019-08-16T15:00:17Z</time>
      </trkpt>
      <trkpt lat="42.0414250" lon="-6.8876380">
        <ele>1103.0</ele>
        <time>2019-08-16T15:00:18Z</time>
      </trkpt>
      <trkpt lat="42.0413620" lon="-6.8876310">
        <ele>1102.7</ele>
        <time>2019-08-16T15:00:19Z</time>
      </trkpt>
      <trkpt lat="42.0413010" lon="-6.8876260">
        <ele>1102.5</ele>
        <time>2019-08-16T15:00:20Z</time>
      </trkpt>
      <trkpt lat="42.0412390" lon="-6.8876230">
        <ele>1102.3</ele>
        <time>2019-08-16T15:00:21Z</time>
      </trkpt>
      <trkpt lat="42.0411770" lon="-6.8876190">
        <ele>1102.1</ele>
        <time>2019-08-16T15:00:22Z</time>
      </trkpt>
      <trkpt lat="42.0411140" lon="-6.8876160">
        <ele>1101.9</ele>
        <time>2019-08-16T15:00:23Z</time>
      </trkpt>
      <trkpt lat="42.0410520" lon="-6.8876120">
        <ele>1101.7</ele>
        <time>2019-08-16T15:00:24Z</time>
      </trkpt>
      <trkpt lat="42.0409900" lon="-6.8876130">
        <ele>1101.5</ele>
        <time>2019-08-16T15:00:25Z</time>
      </trkpt>
      <trkpt lat="42.0409260" lon="-6.8876180">
        <ele>1101.4</ele>
        <time>2019-08-16T15:00:26Z</time>
      </trkpt>
      <trkpt lat="42.0408630" lon="-6.8876270">
        <ele>1101.2</ele>
        <time>2019-08-16T15:00:27Z</time>
      </trkpt>
      <trkpt lat="42.0407990" lon="-6.8876400">
        <ele>1101.0</ele>
        <time>2019-08-16T15:00:28Z</time>
      </trkpt>
      <trkpt lat="42.0407380" lon="-6.8876570">
        <ele>1100.9</ele>
        <time>2019-08-16T15:00:29Z</time>
      </trkpt>
      <trkpt lat="42.0406760" lon="-6.8876770">
        <ele>1100.7</ele>
        <time>2019-08-16T15:00:30Z</time>
      </trkpt>
      <trkpt lat="42.0406150" lon="-6.8877000">
        <ele>1100.5</ele>
        <time>2019-08-16T15:00:31Z</time>
      </trkpt>
      <trkpt lat="42.0405520" lon="-6.8877230">
        <ele>1100.3</ele>
        <time>2019-08-16T15:00:32Z</time>
      </trkpt>
      <trkpt lat="42.0404900" lon="-6.8877490">
        <ele>1100.2</ele>
        <time>2019-08-16T15:00:33Z</time>
      </trkpt>
      <trkpt lat="42.0404270" lon="-6.8877750">
        <ele>1100.0</ele>
        <time>2019-08-16T15:00:34Z</time>
      </trkpt>
      <trkpt lat="42.0403660" lon="-6.8878040">
        <ele>1099.8</ele>
        <time>2019-08-16T15:00:35Z</time>
      </trkpt>
      <trkpt lat="42.0403030" lon="-6.8878350">
        <ele>1099.6</ele>
        <time>2019-08-16T15:00:36Z</time>
      </trkpt>
      <trkpt lat="42.0402390" lon="-6.8878630">
        <ele>1099.5</ele>
        <time>2019-08-16T15:00:37Z</time>
      </trkpt>
      <trkpt lat="42.0401750" lon="-6.8878920">
        <ele>1099.3</ele>
        <time>2019-08-16T15:00:38Z</time>
      </trkpt>
      <trkpt lat="42.0401110" lon="-6.8879260">
        <ele>1099.1</ele>
        <time>2019-08-16T15:00:39Z</time>
      </trkpt>
      <trkpt lat="42.0400500" lon="-6.8879660">
        <ele>1098.9</ele>
        <time>2019-08-16T15:00:40Z</time>
      </trkpt>
      <trkpt lat="42.0399910" lon="-6.8880110">
        <ele>1098.7</ele>
        <time>2019-08-16T15:00:41Z</time>
      </trkpt>
      <trkpt lat="42.0399320" lon="-6.8880580">
        <ele>1098.4</ele>
        <time>2019-08-16T15:00:42Z</time>
      </trkpt>
      <trkpt lat="42.0398750" lon="-6.8881110">
        <ele>1098.2</ele>
        <time>2019-08-16T15:00:43Z</time>
      </trkpt>
      <trkpt lat="42.0398200" lon="-6.8881670">
        <ele>1097.9</ele>
        <time>2019-08-16T15:00:44Z</time>
      </trkpt>
      <trkpt lat="42.0397670" lon="-6.8882280">
        <ele>1097.7</ele>
        <time>2019-08-16T15:00:45Z</time>
      </trkpt>
      <trkpt lat="42.0397160" lon="-6.8882900">
        <ele>1097.4</ele>
        <time>2019-08-16T15:00:46Z</time>
      </trkpt>
      <trkpt lat="42.0396660" lon="-6.8883500">
        <ele>1097.1</ele>
        <time>2019-08-16T15:00:47Z</time>
      </trkpt>
      <trkpt lat="42.0396170" lon="-6.8884100">
        <ele>1096.8</ele>
        <time>2019-08-16T15:00:48Z</time>
      </trkpt>
      <trkpt lat="42.0395700" lon="-6.8884690">
        <ele>1096.5</ele>
        <time>2019-08-16T15:00:49Z</time>
      </trkpt>
      <trkpt lat="42.0395220" lon="-6.8885240">
        <ele>1096.2</ele>
        <time>2019-08-16T15:00:50Z</time>
      </trkpt>
      <trkpt lat="42.0394750" lon="-6.8885780">
        <ele>1095.9</ele>
        <time>2019-08-16T15:00:51Z</time>
      </trkpt>
      <trkpt lat="42.0394290" lon="-6.8886320">
        <ele>1095.6</ele>
        <time>2019-08-16T15:00:52Z</time>
      </trkpt>
      <trkpt lat="42.0393830" lon="-6.8886860">
        <ele>1095.4</ele>
        <time>2019-08-16T15:00:53Z</time>
      </trkpt>
      <trkpt lat="42.0393370" lon="-6.8887380">
        <ele>1095.1</ele>
        <time>2019-08-16T15:00:54Z</time>
      </trkpt>
      <trkpt lat="42.0392900" lon="-6.8887880">
        <ele>1094.8</ele>
        <time>2019-08-16T15:00:55Z</time>
      </trkpt>
      <trkpt lat="42.0392440" lon="-6.8888390">
        <ele>1094.5</ele>
        <time>2019-08-16T15:00:56Z</time>
      </trkpt>
      <trkpt lat="42.0391970" lon="-6.8888920">
        <ele>1094.2</ele>
        <time>2019-08-16T15:00:57Z</time>
      </trkpt>
      <trkpt lat="42.0391500" lon="-6.8889450">
        <ele>1093.8</ele>
        <time>2019-08-16T15:00:58Z</time>
      </trkpt>
      <trkpt lat="42.0391020" lon="-6.8890020">
        <ele>1093.5</ele>
        <time>2019-08-16T15:00:59Z</time>
      </trkpt>
      <trkpt lat="42.0390550" lon="-6.8890610">
        <ele>1093.2</ele>
        <time>2019-08-16T15:01:00Z</time>
      </trkpt>
      <trkpt lat="42.0390090" lon="-6.8891230">
        <ele>1092.8</ele>
        <time>2019-08-16T15:01:01Z</time>
      </trkpt>
      <trkpt lat="42.0389660" lon="-6.8891850">
        <ele>1092.5</ele>
        <time>2019-08-16T15:01:02Z</time>
      </trkpt>
      <trkpt lat="42.0389230" lon="-6.8892500">
        <ele>1092.2</ele>
        <time>2019-08-16T15:01:03Z</time>
      </trkpt>
      <trkpt lat="42.0388830" lon="-6.8893210">
        <ele>1091.9</ele>
        <time>2019-08-16T15:01:04Z</time>
      </trkpt>
      <trkpt lat="42.0388460" lon="-6.8893950">
        <ele>1091.6</ele>
        <time>2019-08-16T15:01:05Z</time>
      </trkpt>
      <trkpt lat="42.0388150" lon="-6.8894750">
        <ele>1091.4</ele>
        <time>2019-08-16T15:01:06Z</time>
      </trkpt>
      <trkpt lat="42.0387860" lon="-6.8895620">
        <ele>1091.1</ele>
        <time>2019-08-16T15:01:07Z</time>
      </trkpt>
      <trkpt lat="42.0387550" lon="-6.8896500">
        <ele>1090.9</ele>
        <time>2019-08-16T15:01:08Z</time>
      </trkpt>
      <trkpt lat="42.0387290" lon="-6.8897400">
        <ele>1090.7</ele>
        <time>2019-08-16T15:01:09Z</time>
      </trkpt>
      <trkpt lat="42.0387070" lon="-6.8898310">
        <ele>1090.5</ele>
        <time>2019-08-16T15:01:10Z</time>
      </trkpt>
      <trkpt lat="42.0386880" lon="-6.8899240">
        <ele>1090.3</ele>
        <time>2019-08-16T15:01:11Z</time>
      </trkpt>
      <trkpt lat="42.0386700" lon="-6.8900160">
        <ele>1090.1</ele>
        <time>2019-08-16T15:01:12Z</time>
      </trkpt>
      <trkpt lat="42.0386500" lon="-6.8901100">
        <ele>1089.9</ele>
        <time>2019-08-16T15:01:13Z</time>
      </trkpt>
      <trkpt lat="42.0386310" lon="-6.8902070">
        <ele>1089.7</ele>
        <time>2019-08-16T15:01:14Z</time>
      </trkpt>
      <trkpt lat="42.0386150" lon="-6.8903040">
        <ele>1089.5</ele>
        <time>2019-08-16T15:01:15Z</time>
      </trkpt>
      <trkpt lat="42.0386000" lon="-6.8904020">
        <ele>1089.3</ele>
        <time>2019-08-16T15:01:16Z</time>
      </trkpt>
      <trkpt lat="42.0385870" lon="-6.8905050">
        <ele>1089.1</ele>
        <time>2019-08-16T15:01:17Z</time>
      </trkpt>
      <trkpt lat="42.0385760" lon="-6.8906090">
        <ele>1088.9</ele>
        <time>2019-08-16T15:01:18Z</time>
      </trkpt>
      <trkpt lat="42.0385670" lon="-6.8907160">
        <ele>1088.7</ele>
        <time>2019-08-16T15:01:19Z</time>
      </trkpt>
      <trkpt lat="42.0385630" lon="-6.8908250">
        <ele>1088.4</ele>
        <time>2019-08-16T15:01:20Z</time>
      </trkpt>
      <trkpt lat="42.0385620" lon="-6.8909340">
        <ele>1088.1</ele>
        <time>2019-08-16T15:01:21Z</time>
      </trkpt>
      <trkpt lat="42.0385670" lon="-6.8910440">
        <ele>1087.9</ele>
        <time>2019-08-16T15:01:22Z</time>
      </trkpt>
      <trkpt lat="42.0385720" lon="-6.8911550">
        <ele>1087.6</ele>
        <time>2019-08-16T15:01:23Z</time>
      </trkpt>
      <trkpt lat="42.0385810" lon="-6.8912660">
        <ele>1087.3</ele>
        <time>2019-08-16T15:01:24Z</time>
      </trkpt>
      <trkpt lat="42.0385920" lon="-6.8913750">
        <ele>1087.0</ele>
        <time>2019-08-16T15:01:25Z</time>
      </trkpt>
      <trkpt lat="42.0386060" lon="-6.8914790">
        <ele>1086.7</ele>
        <time>2019-08-16T15:01:26Z</time>
      </trkpt>
      <trkpt lat="42.0386210" lon="-6.8915800">
        <ele>1086.4</ele>
        <time>2019-08-16T15:01:27Z</time>
      </trkpt>
      <trkpt lat="42.0386340" lon="-6.8916770">
        <ele>1086.1</ele>
        <time>2019-08-16T15:01:28Z</time>
      </trkpt>
      <trkpt lat="42.0386450" lon="-6.8917720">
        <ele>1085.8</ele>
        <time>2019-08-16T15:01:29Z</time>
      </trkpt>
      <trkpt lat="42.0386510" lon="-6.8918660">
        <ele>1085.5</ele>
        <time>2019-08-16T15:01:30Z</time>
      </trkpt>
      <trkpt lat="42.0386480" lon="-6.8919570">
        <ele>1085.2</ele>
        <time>2019-08-16T15:01:31Z</time>
      </trkpt>
      <trkpt lat="42.0386420" lon="-6.8920450">
        <ele>1084.9</ele>
        <time>2019-08-16T15:01:32Z</time>
      </trkpt>
      <trkpt lat="42.0386310" lon="-6.8921270">
        <ele>1084.7</ele>
        <time>2019-08-16T15:01:33Z</time>
      </trkpt>
      <trkpt lat="42.0386150" lon="-6.8922040">
        <ele>1084.4</ele>
        <time>2019-08-16T15:01:34Z</time>
      </trkpt>
      <trkpt lat="42.0385970" lon="-6.8922770">
        <ele>1084.2</ele>
        <time>2019-08-16T15:01:35Z</time>
      </trkpt>
      <trkpt lat="42.0385780" lon="-6.8923460">
        <ele>1084.0</ele>
        <time>2019-08-16T15:01:36Z</time>
      </trkpt>
      <trkpt lat="42.0385570" lon="-6.8924120">
        <ele>1083.8</ele>
        <time>2019-08-16T15:01:37Z</time>
      </trkpt>
      <trkpt lat="42.0385360" lon="-6.8924760">
        <ele>1083.6</ele>
        <time>2019-08-16T15:01:38Z</time>
      </trkpt>
      <trkpt lat="42.0385120" lon="-6.8925390">
        <ele>1083.4</ele>
        <time>2019-08-16T15:01:39Z</time>
      </trkpt>
      <trkpt lat="42.0384890" lon="-6.8926010">
        <ele>1083.2</ele>
        <time>2019-08-16T15:01:40Z</time>
      </trkpt>
      <trkpt lat="42.0384680" lon="-6.8926630">
        <ele>1083.1</ele>
        <time>2019-08-16T15:01:41Z</time>
      </trkpt>
      <trkpt lat="42.0384470" lon="-6.8927220">
        <ele>1082.9</ele>
        <time>2019-08-16T15:01:42Z</time>
      </trkpt>
      <trkpt lat="42.0384290" lon="-6.8927770">
        <ele>1082.8</ele>
        <time>2019-08-16T15:01:43Z</time>
      </trkpt>
      <trkpt lat="42.0384120" lon="-6.8928300">
        <ele>1082.7</ele>
        <time>2019-08-16T15:01:44Z</time>
      </trkpt>
      <trkpt lat="42.0383970" lon="-6.8928830">
        <ele>1082.6</ele>
        <time>2019-08-16T15:01:45Z</time>
      </trkpt>
      <trkpt lat="42.0383810" lon="-6.8929330">
        <ele>1082.5</ele>
        <time>2019-08-16T15:01:46Z</time>
      </trkpt>
      <trkpt lat="42.0383670" lon="-6.8929820">
        <ele>1082.4</ele>
        <time>2019-08-16T15:01:47Z</time>
      </trkpt>
      <trkpt lat="42.0383540" lon="-6.8930290">
        <ele>1082.3</ele>
        <time>2019-08-16T15:01:48Z</time>
      </trkpt>
      <trkpt lat="42.0383420" lon="-6.8930770">
        <ele>1082.3</ele>
        <time>2019-08-16T15:01:49Z</time>
      </trkpt>
      <trkpt lat="42.0383330" lon="-6.8931240">
        <ele>1082.2</ele>
        <time>2019-08-16T15:01:50Z</time>
      </trkpt>
      <trkpt lat="42.0383260" lon="-6.8931710">
        <ele>1082.2</ele>
        <time>2019-08-16T15:01:51Z</time>
      </trkpt>
      <trkpt lat="42.0383230" lon="-6.8932170">
        <ele>1082.1</ele>
        <time>2019-08-16T15:01:52Z</time>
      </trkpt>
      <trkpt lat="42.0383250" lon="-6.8932620">
        <ele>1082.1</ele>
        <time>2019-08-16T15:01:53Z</time>
      </trkpt>
      <trkpt lat="42.0383290" lon="-6.8933070">
        <ele>1082.1</ele>
        <time>2019-08-16T15:01:54Z</time>
      </trkpt>
      <trkpt lat="42.0383370" lon="-6.8933510">
        <ele>1082.0</ele>
        <time>2019-08-16T15:01:55Z</time>
      </trkpt>
      <trkpt lat="42.0383480" lon="-6.8933920">
        <ele>1082.0</ele>
        <time>2019-08-16T15:01:56Z</time>
      </trkpt>
      <trkpt lat="42.0383650" lon="-6.8934310">
        <ele>1082.0</ele>
        <time>2019-08-16T15:01:57Z</time>
      </trkpt>
      <trkpt lat="42.0383860" lon="-6.8934650">
        <ele>1082.0</ele>
        <time>2019-08-16T15:01:58Z</time>
      </trkpt>
      <trkpt lat="42.0384080" lon="-6.8934980">
        <ele>1082.0</ele>
        <time>2019-08-16T15:01:59Z</time>
      </trkpt>
      <trkpt lat="42.0384320" lon="-6.8935300">
        <ele>1082.0</ele>
        <time>2019-08-16T15:02:00Z</time>
      </trkpt>
      <trkpt lat="42.0384550" lon="-6.8935610">
        <ele>1082.0</ele>
        <time>2019-08-16T15:02:01Z</time>
      </trkpt>
      <trkpt lat="42.0384800" lon="-6.8935900">
        <ele>1082.0</ele>
        <time>2019-08-16T15:02:02Z</time>
      </trkpt>
      <trkpt lat="42.0385060" lon="-6.8936200">
        <ele>1082.0</ele>
        <time>2019-08-16T15:02:03Z</time>
      </trkpt>
      <trkpt lat="42.0385340" lon="-6.8936490">
        <ele>1082.0</ele>
        <time>2019-08-16T15:02:04Z</time>
      </trkpt>
      <trkpt lat="42.0385620" lon="-6.8936790">
        <ele>1082.0</ele>
        <time>2019-08-16T15:02:05Z</time>
      </trkpt>
      <trkpt lat="42.0385920" lon="-6.8937110">
        <ele>1082.0</ele>
        <time>2019-08-16T15:02:06Z</time>
      </trkpt>
      <trkpt lat="42.0386230" lon="-6.8937430">
        <ele>1082.0</ele>
        <time>2019-08-16T15:02:07Z</time>
      </trkpt>
      <trkpt lat="42.0386550" lon="-6.8937750">
        <ele>1082.0</ele>
        <time>2019-08-16T15:02:08Z</time>
      </trkpt>
      <trkpt lat="42.0386870" lon="-6.8938100">
        <ele>1082.1</ele>
        <time>2019-08-16T15:02:09Z</time>
      </trkpt>
      <trkpt lat="42.0387200" lon="-6.8938430">
        <ele>1082.1</ele>
        <time>2019-08-16T15:02:10Z</time>
      </trkpt>
      <trkpt lat="42.0387530" lon="-6.8938770">
        <ele>1082.2</ele>
        <time>2019-08-16T15:02:11Z</time>
      </trkpt>
      <trkpt lat="42.0387860" lon="-6.8939120">
        <ele>1082.2</ele>
        <time>2019-08-16T15:02:12Z</time>
      </trkpt>
      <trkpt lat="42.0388200" lon="-6.8939470">
        <ele>1082.3</ele>
        <time>2019-08-16T15:02:13Z</time>
      </trkpt>
      <trkpt lat="42.0388520" lon="-6.8939820">
        <ele>1082.4</ele>
        <time>2019-08-16T15:02:14Z</time>
      </trkpt>
      <trkpt lat="42.0388830" lon="-6.8940160">
        <ele>1082.5</ele>
        <time>2019-08-16T15:02:15Z</time>
      </trkpt>
      <trkpt lat="42.0389150" lon="-6.8940500">
        <ele>1082.6</ele>
        <time>2019-08-16T15:02:16Z</time>
      </trkpt>
      <trkpt lat="42.0389460" lon="-6.8940830">
        <ele>1082.7</ele>
        <time>2019-08-16T15:02:17Z</time>
      </trkpt>
      <trkpt lat="42.0389770" lon="-6.8941140">
        <ele>1082.8</ele>
        <time>2019-08-16T15:02:18Z</time>
      </trkpt>
      <trkpt lat="42.0390060" lon="-6.8941460">
        <ele>1082.9</ele>
        <time>2019-08-16T15:02:19Z</time>
      </trkpt>
      <trkpt lat="42.0390340" lon="-6.8941800">
        <ele>1083.7</ele>
        <time>2019-08-16T15:02:20Z</time>
      </trkpt>
      <trkpt lat="42.0390630" lon="-6.8942150">
        <ele>1084.2</ele>
        <time>2019-08-16T15:02:21Z</time>
      </trkpt>
      <trkpt lat="42.0390930" lon="-6.8942500">
        <ele>1084.8</ele>
        <time>2019-08-16T15:02:22Z</time>
      </trkpt>
      <trkpt lat="42.0391240" lon="-6.8942860">
        <ele>1085.3</ele>
        <time>2019-08-16T15:02:23Z</time>
      </trkpt>
      <trkpt lat="42.0391550" lon="-6.8943240">
        <ele>1085.9</ele>
        <time>2019-08-16T15:02:24Z</time>
      </trkpt>
      <trkpt lat="42.0391860" lon="-6.8943620">
        <ele>1086.4</ele>
        <time>2019-08-16T15:02:25Z</time>
      </trkpt>
      <trkpt lat="42.0392170" lon="-6.8944000">
        <ele>1087.1</ele>
        <time>2019-08-16T15:02:26Z</time>
      </trkpt>
      <trkpt lat="42.0392480" lon="-6.8944380">
        <ele>1087.5</ele>
        <time>2019-08-16T15:02:27Z</time>
      </trkpt>
      <trkpt lat="42.0392790" lon="-6.8944720">
        <ele>1087.9</ele>
        <time>2019-08-16T15:02:28Z</time>
      </trkpt>
      <trkpt lat="42.0393110" lon="-6.8945050">
        <ele>1088.1</ele>
        <time>2019-08-16T15:02:29Z</time>
      </trkpt>
      <trkpt lat="42.0393400" lon="-6.8945380">
        <ele>1088.4</ele>
        <time>2019-08-16T15:02:30Z</time>
      </trkpt>
      <trkpt lat="42.0393680" lon="-6.8945710">
        <ele>1088.6</ele>
        <time>2019-08-16T15:02:31Z</time>
      </trkpt>
      <trkpt lat="42.0393930" lon="-6.8946040">
        <ele>1088.8</ele>
        <time>2019-08-16T15:02:32Z</time>
      </trkpt>
      <trkpt lat="42.0394190" lon="-6.8946370">
        <ele>1089.0</ele>
        <time>2019-08-16T15:02:33Z</time>
      </trkpt>
      <trkpt lat="42.0394430" lon="-6.8946660">
        <ele>1089.3</ele>
        <time>2019-08-16T15:02:34Z</time>
      </trkpt>
      <trkpt lat="42.0394680" lon="-6.8946930">
        <ele>1089.5</ele>
        <time>2019-08-16T15:02:35Z</time>
      </trkpt>
      <trkpt lat="42.0394900" lon="-6.8947190">
        <ele>1089.6</ele>
        <time>2019-08-16T15:02:36Z</time>
      </trkpt>
      <trkpt lat="42.0395100" lon="-6.8947440">
        <ele>1089.8</ele>
        <time>2019-08-16T15:02:37Z</time>
      </trkpt>
      <trkpt lat="42.0395300" lon="-6.8947690">
        <ele>1090.0</ele>
        <time>2019-08-16T15:02:38Z</time>
      </trkpt>
      <trkpt lat="42.0395690" lon="-6.8948150">
        <ele>1090.3</ele>
        <time>2019-08-16T15:02:40Z</time>
      </trkpt>
      <trkpt lat="42.0396050" lon="-6.8948580">
        <ele>1090.6</ele>
        <time>2019-08-16T15:02:42Z</time>
      </trkpt>
      <trkpt lat="42.0396380" lon="-6.8949010">
        <ele>1090.9</ele>
        <time>2019-08-16T15:02:44Z</time>
      </trkpt>
      <trkpt lat="42.0396690" lon="-6.8949410">
        <ele>1091.2</ele>
        <time>2019-08-16T15:02:46Z</time>
      </trkpt>
      <trkpt lat="42.0397020" lon="-6.8949800">
        <ele>1091.5</ele>
        <time>2019-08-16T15:02:48Z</time>
      </trkpt>
      <trkpt lat="42.0397330" lon="-6.8950170">
        <ele>1091.7</ele>
        <time>2019-08-16T15:02:50Z</time>
      </trkpt>
      <trkpt lat="42.0397640" lon="-6.8950540">
        <ele>1092.0</ele>
        <time>2019-08-16T15:02:52Z</time>
      </trkpt>
      <trkpt lat="42.0397940" lon="-6.8950900">
        <ele>1092.2</ele>
        <time>2019-08-16T15:02:54Z</time>
      </trkpt>
      <trkpt lat="42.0398190" lon="-6.8951260">
        <ele>1092.5</ele>
        <time>2019-08-16T15:02:56Z</time>
      </trkpt>
      <trkpt lat="42.0398450" lon="-6.8951600">
        <ele>1092.7</ele>
        <time>2019-08-16T15:02:58Z</time>
      </trkpt>
      <trkpt lat="42.0398740" lon="-6.8951910">
        <ele>1092.9</ele>
        <time>2019-08-16T15:03:00Z</time>
      </trkpt>
      <trkpt lat="42.0399020" lon="-6.8952230">
        <ele>1093.1</ele>
        <time>2019-08-16T15:03:02Z</time>
      </trkpt>
      <trkpt lat="42.0399290" lon="-6.8952540">
        <ele>1093.4</ele>
        <time>2019-08-16T15:03:04Z</time>
      </trkpt>
      <trkpt lat="42.0399540" lon="-6.8952880">
        <ele>1093.7</ele>
        <time>2019-08-16T15:03:06Z</time>
      </trkpt>
      <trkpt lat="42.0399780" lon="-6.8953230">
        <ele>1093.9</ele>
        <time>2019-08-16T15:03:08Z</time>
      </trkpt>
      <trkpt lat="42.0400050" lon="-6.8953540">
        <ele>1094.2</ele>
        <time>2019-08-16T15:03:10Z</time>
      </trkpt>
      <trkpt lat="42.0400320" lon="-6.8953840">
        <ele>1094.3</ele>
        <time>2019-08-16T15:03:12Z</time>
      </trkpt>
      <trkpt lat="42.0400580" lon="-6.8954170">
        <ele>1094.5</ele>
        <time>2019-08-16T15:03:14Z</time>
      </trkpt>
      <trkpt lat="42.0400830" lon="-6.8954480">
        <ele>1094.6</ele>
        <time>2019-08-16T15:03:16Z</time>
      </trkpt>
      <trkpt lat="42.0401070" lon="-6.8954790">
        <ele>1094.8</ele>
        <time>2019-08-16T15:03:18Z</time>
      </trkpt>
      <trkpt lat="42.0401310" lon="-6.8955120">
        <ele>1094.9</ele>
        <time>2019-08-16T15:03:20Z</time>
      </trkpt>
      <trkpt lat="42.0401590" lon="-6.8955410">
        <ele>1095.1</ele>
        <time>2019-08-16T15:03:22Z</time>
      </trkpt>
      <trkpt lat="42.0401870" lon="-6.8955720">
        <ele>1095.2</ele>
        <time>2019-08-16T15:03:24Z</time>
      </trkpt>
      <trkpt lat="42.0402130" lon="-6.8956060">
        <ele>1095.4</ele>
        <time>2019-08-16T15:03:26Z</time>
      </trkpt>
      <trkpt lat="42.0402380" lon="-6.8956400">
        <ele>1095.6</ele>
        <time>2019-08-16T15:03:28Z</time>
      </trkpt>
      <trkpt lat="42.0402640" lon="-6.8956720">
        <ele>1095.8</ele>
        <time>2019-08-16T15:03:30Z</time>
      </trkpt>
      <trkpt lat="42.0402900" lon="-6.8957020">
        <ele>1095.9</ele>
        <time>2019-08-16T15:03:32Z</time>
      </trkpt>
      <trkpt lat="42.0403160" lon="-6.8957330">
        <ele>1096.1</ele>
        <time>2019-08-16T15:03:34Z</time>
      </trkpt>
      <trkpt lat="42.0403400" lon="-6.8957660">
        <ele>1096.2</ele>
        <time>2019-08-16T15:03:36Z</time>
      </trkpt>
      <trkpt lat="42.0403670" lon="-6.8957960">
        <ele>1096.3</ele>
        <time>2019-08-16T15:03:38Z</time>
      </trkpt>
      <trkpt lat="42.0403920" lon="-6.8958280">
        <ele>1096.4</ele>
        <time>2019-08-16T15:03:40Z</time>
      </trkpt>
      <trkpt lat="42.0404170" lon="-6.8958590">
        <ele>1096.5</ele>
        <time>2019-08-16T15:03:42Z</time>
      </trkpt>
      <trkpt lat="42.0404430" lon="-6.8958890">
        <ele>1096.7</ele>
        <time>2019-08-16T15:03:44Z</time>
      </trkpt>
      <trkpt lat="42.0404680" lon="-6.8959200">
        <ele>1096.8</ele>
        <time>2019-08-16T15:03:46Z</time>
      </trkpt>
      <trkpt lat="42.0404930" lon="-6.8959530">
        <ele>1097.0</ele>
        <time>2019-08-16T15:03:48Z</time>
      </trkpt>
      <trkpt lat="42.0405200" lon="-6.8959850">
        <ele>1097.0</ele>
        <time>2019-08-16T15:03:50Z</time>
      </trkpt>
      <trkpt lat="42.0405470" lon="-6.8960140">
        <ele>1097.1</ele>
        <time>2019-08-16T15:03:52Z</time>
      </trkpt>
      <trkpt lat="42.0405720" lon="-6.8960480">
        <ele>1097.2</ele>
        <time>2019-08-16T15:03:54Z</time>
      </trkpt>
      <trkpt lat="42.0405960" lon="-6.8960810">
        <ele>1097.3</ele>
        <time>2019-08-16T15:03:56Z</time>
      </trkpt>
      <trkpt lat="42.0406240" lon="-6.8961140">
        <ele>1097.3</ele>
        <time>2019-08-16T15:03:58Z</time>
      </trkpt>
      <trkpt lat="42.0406520" lon="-6.8961440">
        <ele>1097.4</ele>
        <time>2019-08-16T15:04:00Z</time>
      </trkpt>
      <trkpt lat="42.0406790" lon="-6.8961760">
        <ele>1097.4</ele>
        <time>2019-08-16T15:04:02Z</time>
      </trkpt>
      <trkpt lat="42.0407050" lon="-6.8962090">
        <ele>1097.4</ele>
        <time>2019-08-16T15:04:04Z</time>
      </trkpt>
      <trkpt lat="42.0407320" lon="-6.8962420">
        <ele>1097.5</ele>
        <time>2019-08-16T15:04:06Z</time>
      </trkpt>
      <trkpt lat="42.0407590" lon="-6.8962740">
        <ele>1097.5</ele>
        <time>2019-08-16T15:04:08Z</time>
      </trkpt>
      <trkpt lat="42.0407840" lon="-6.8963050">
        <ele>1097.6</ele>
        <time>2019-08-16T15:04:10Z</time>
      </trkpt>
      <trkpt lat="42.0408120" lon="-6.8963400">
        <ele>1097.6</ele>
        <time>2019-08-16T15:04:12Z</time>
      </trkpt>
      <trkpt lat="42.0408430" lon="-6.8963750">
        <ele>1097.6</ele>
        <time>2019-08-16T15:04:14Z</time>
      </trkpt>
      <trkpt lat="42.0408760" lon="-6.8964100">
        <ele>1097.6</ele>
        <time>2019-08-16T15:04:16Z</time>
      </trkpt>
      <trkpt lat="42.0409100" lon="-6.8964510">
        <ele>1097.6</ele>
        <time>2019-08-16T15:04:18Z</time>
      </trkpt>
      <trkpt lat="42.0409480" lon="-6.8964890">
        <ele>1097.6</ele>
        <time>2019-08-16T15:04:20Z</time>
      </trkpt>
      <trkpt lat="42.0409870" lon="-6.8965280">
        <ele>1097.6</ele>
        <time>2019-08-16T15:04:22Z</time>
      </trkpt>
      <trkpt lat="42.0410190" lon="-6.8965650">
        <ele>1097.6</ele>
        <time>2019-08-16T15:04:24Z</time>
      </trkpt>
      <trkpt lat="42.0410540" lon="-6.8966020">
        <ele>1097.5</ele>
        <time>2019-08-16T15:04:26Z</time>
      </trkpt>
      <trkpt lat="42.0410960" lon="-6.8966410">
        <ele>1097.5</ele>
        <time>2019-08-16T15:04:28Z</time>
      </trkpt>
      <trkpt lat="42.0411410" lon="-6.8966830">
        <ele>1097.4</ele>
        <time>2019-08-16T15:04:30Z</time>
      </trkpt>
      <trkpt lat="42.0411620" lon="-6.8967050">
        <ele>1097.4</ele>
        <time>2019-08-16T15:04:31Z</time>
      </trkpt>
      <trkpt lat="42.0411850" lon="-6.8967260">
        <ele>1097.3</ele>
        <time>2019-08-16T15:04:32Z</time>
      </trkpt>
      <trkpt lat="42.0412070" lon="-6.8967470">
        <ele>1097.3</ele>
        <time>2019-08-16T15:04:33Z</time>
      </trkpt>
      <trkpt lat="42.0412300" lon="-6.8967680">
        <ele>1097.2</ele>
        <time>2019-08-16T15:04:34Z</time>
      </trkpt>
      <trkpt lat="42.0412510" lon="-6.8967860">
        <ele>1097.2</ele>
        <time>2019-08-16T15:04:35Z</time>
      </trkpt>
      <trkpt lat="42.0412870" lon="-6.8968240">
        <ele>1097.1</ele>
        <time>2019-08-16T15:04:37Z</time>
      </trkpt>
      <trkpt lat="42.0413280" lon="-6.8968630">
        <ele>1096.9</ele>
        <time>2019-08-16T15:04:39Z</time>
      </trkpt>
      <trkpt lat="42.0413800" lon="-6.8969040">
        <ele>1096.8</ele>
        <time>2019-08-16T15:04:41Z</time>
      </trkpt>
      <trkpt lat="42.0414060" lon="-6.8969280">
        <ele>1096.7</ele>
        <time>2019-08-16T15:04:42Z</time>
      </trkpt>
      <trkpt lat="42.0414330" lon="-6.8969500">
        <ele>1096.7</ele>
        <time>2019-08-16T15:04:43Z</time>
      </trkpt>
      <trkpt lat="42.0414610" lon="-6.8969710">
        <ele>1096.6</ele>
        <time>2019-08-16T15:04:44Z</time>
      </trkpt>
      <trkpt lat="42.0414890" lon="-6.8969950">
        <ele>1096.4</ele>
        <time>2019-08-16T15:04:45Z</time>
      </trkpt>
      <trkpt lat="42.0415180" lon="-6.8970190">
        <ele>1096.3</ele>
        <time>2019-08-16T15:04:46Z</time>
      </trkpt>
      <trkpt lat="42.0415480" lon="-6.8970420">
        <ele>1096.2</ele>
        <time>2019-08-16T15:04:47Z</time>
      </trkpt>
      <trkpt lat="42.0415790" lon="-6.8970660">
        <ele>1096.0</ele>
        <time>2019-08-16T15:04:48Z</time>
      </trkpt>
      <trkpt lat="42.0416130" lon="-6.8970900">
        <ele>1095.8</ele>
        <time>2019-08-16T15:04:49Z</time>
      </trkpt>
      <trkpt lat="42.0416490" lon="-6.8971170">
        <ele>1095.5</ele>
        <time>2019-08-16T15:04:50Z</time>
      </trkpt>
      <trkpt lat="42.0416850" lon="-6.8971460">
        <ele>1095.2</ele>
        <time>2019-08-16T15:04:51Z</time>
      </trkpt>
      <trkpt lat="42.0417250" lon="-6.8971750">
        <ele>1094.9</ele>
        <time>2019-08-16T15:04:52Z</time>
      </trkpt>
      <trkpt lat="42.0417680" lon="-6.8972040">
        <ele>1094.5</ele>
        <time>2019-08-16T15:04:53Z</time>
      </trkpt>
      <trkpt lat="42.0418140" lon="-6.8972340">
        <ele>1094.0</ele>
        <time>2019-08-16T15:04:54Z</time>
      </trkpt>
      <trkpt lat="42.0418630" lon="-6.8972660">
        <ele>1093.4</ele>
        <time>2019-08-16T15:04:55Z</time>
      </trkpt>
      <trkpt lat="42.0419160" lon="-6.8972990">
        <ele>1092.8</ele>
        <time>2019-08-16T15:04:56Z</time>
      </trkpt>
      <trkpt lat="42.0419720" lon="-6.8973350">
        <ele>1092.3</ele>
        <time>2019-08-16T15:04:57Z</time>
      </trkpt>
      <trkpt lat="42.0420300" lon="-6.8973730">
        <ele>1091.6</ele>
        <time>2019-08-16T15:04:58Z</time>
      </trkpt>
      <trkpt lat="42.0420900" lon="-6.8974110">
        <ele>1090.9</ele>
        <time>2019-08-16T15:04:59Z</time>
      </trkpt>
      <trkpt lat="42.0421500" lon="-6.8974460">
        <ele>1090.2</ele>
        <time>2019-08-16T15:05:00Z</time>
      </trkpt>
      <trkpt lat="42.0422110" lon="-6.8974820">
        <ele>1089.5</ele>
        <time>2019-08-16T15:05:01Z</time>
      </trkpt>
      <trkpt lat="42.0422740" lon="-6.8975190">
        <ele>1088.8</ele>
        <time>2019-08-16T15:05:02Z</time>
      </trkpt>
      <trkpt lat="42.0423400" lon="-6.8975550">
        <ele>1088.1</ele>
        <time>2019-08-16T15:05:03Z</time>
      </trkpt>
      <trkpt lat="42.0424040" lon="-6.8975920">
        <ele>1087.2</ele>
        <time>2019-08-16T15:05:04Z</time>
      </trkpt>
      <trkpt lat="42.0424690" lon="-6.8976300">
        <ele>1086.3</ele>
        <time>2019-08-16T15:05:05Z</time>
      </trkpt>
      <trkpt lat="42.0425370" lon="-6.8976680">
        <ele>1085.5</ele>
        <time>2019-08-16T15:05:06Z</time>
      </trkpt>
      <trkpt lat="42.0426050" lon="-6.8977100">
        <ele>1084.8</ele>
        <time>2019-08-16T15:05:07Z</time>
      </trkpt>
      <trkpt lat="42.0426740" lon="-6.8977520">
        <ele>1084.0</ele>
        <time>2019-08-16T15:05:08Z</time>
      </trkpt>
      <trkpt lat="42.0427470" lon="-6.8977950">
        <ele>1083.5</ele>
        <time>2019-08-16T15:05:09Z</time>
      </trkpt>
      <trkpt lat="42.0428210" lon="-6.8978410">
        <ele>1082.8</ele>
        <time>2019-08-16T15:05:10Z</time>
      </trkpt>
      <trkpt lat="42.0428980" lon="-6.8978890">
        <ele>1082.2</ele>
        <time>2019-08-16T15:05:11Z</time>
      </trkpt>
      <trkpt lat="42.0429750" lon="-6.8979370">
        <ele>1081.8</ele>
        <time>2019-08-16T15:05:12Z</time>
      </trkpt>
      <trkpt lat="42.0430510" lon="-6.8979840">
        <ele>1081.2</ele>
        <time>2019-08-16T15:05:13Z</time>
      </trkpt>
      <trkpt lat="42.0431260" lon="-6.8980330">
        <ele>1080.8</ele>
        <time>2019-08-16T15:05:14Z</time>
      </trkpt>
      <trkpt lat="42.0432020" lon="-6.8980820">
        <ele>1080.4</ele>
        <time>2019-08-16T15:05:15Z</time>
      </trkpt>
      <trkpt lat="42.0432820" lon="-6.8981340">
        <ele>1080.1</ele>
        <time>2019-08-16T15:05:16Z</time>
      </trkpt>
      <trkpt lat="42.0433670" lon="-6.8981870">
        <ele>1079.8</ele>
        <time>2019-08-16T15:05:17Z</time>
      </trkpt>
      <trkpt lat="42.0434510" lon="-6.8982420">
        <ele>1079.6</ele>
        <time>2019-08-16T15:05:18Z</time>
      </trkpt>
      <trkpt lat="42.0435330" lon="-6.8982960">
        <ele>1079.4</ele>
        <time>2019-08-16T15:05:19Z</time>
      </trkpt>
      <trkpt lat="42.0436100" lon="-6.8983480">
        <ele>1079.2</ele>
        <time>2019-08-16T15:05:20Z</time>
      </trkpt>
      <trkpt lat="42.0436860" lon="-6.8984000">
        <ele>1079.3</ele>
        <time>2019-08-16T15:05:21Z</time>
      </trkpt>
      <trkpt lat="42.0437610" lon="-6.8984530">
        <ele>1079.3</ele>
        <time>2019-08-16T15:05:22Z</time>
      </trkpt>
      <trkpt lat="42.0438340" lon="-6.8985060">
        <ele>1079.3</ele>
        <time>2019-08-16T15:05:23Z</time>
      </trkpt>
      <trkpt lat="42.0439060" lon="-6.8985580">
        <ele>1079.4</ele>
        <time>2019-08-16T15:05:24Z</time>
      </trkpt>
      <trkpt lat="42.0439730" lon="-6.8986080">
        <ele>1079.6</ele>
        <time>2019-08-16T15:05:25Z</time>
      </trkpt>
      <trkpt lat="42.0440410" lon="-6.8986580">
        <ele>1079.7</ele>
        <time>2019-08-16T15:05:26Z</time>
      </trkpt>
      <trkpt lat="42.0441070" lon="-6.8987090">
        <ele>1079.9</ele>
        <time>2019-08-16T15:05:27Z</time>
      </trkpt>
      <trkpt lat="42.0441720" lon="-6.8987640">
        <ele>1080.2</ele>
        <time>2019-08-16T15:05:28Z</time>
      </trkpt>
      <trkpt lat="42.0442340" lon="-6.8988270">
        <ele>1080.5</ele>
        <time>2019-08-16T15:05:29Z</time>
      </trkpt>
      <trkpt lat="42.0442900" lon="-6.8989020">
        <ele>1080.9</ele>
        <time>2019-08-16T15:05:30Z</time>
      </trkpt>
      <trkpt lat="42.0443390" lon="-6.8989870">
        <ele>1081.3</ele>
        <time>2019-08-16T15:05:31Z</time>
      </trkpt>
      <trkpt lat="42.0443780" lon="-6.8990800">
        <ele>1081.9</ele>
        <time>2019-08-16T15:05:32Z</time>
      </trkpt>
      <trkpt lat="42.0444020" lon="-6.8991760">
        <ele>1082.5</ele>
        <time>2019-08-16T15:05:33Z</time>
      </trkpt>
      <trkpt lat="42.0444150" lon="-6.8992730">
        <ele>1083.0</ele>
        <time>2019-08-16T15:05:34Z</time>
      </trkpt>
      <trkpt lat="42.0444150" lon="-6.8993690">
        <ele>1083.9</ele>
        <time>2019-08-16T15:05:35Z</time>
      </trkpt>
      <trkpt lat="42.0444070" lon="-6.8994600">
        <ele>1084.7</ele>
        <time>2019-08-16T15:05:36Z</time>
      </trkpt>
      <trkpt lat="42.0443920" lon="-6.8995440">
        <ele>1085.2</ele>
        <time>2019-08-16T15:05:37Z</time>
      </trkpt>
      <trkpt lat="42.0443720" lon="-6.8996180">
        <ele>1085.7</ele>
        <time>2019-08-16T15:05:38Z</time>
      </trkpt>
      <trkpt lat="42.0443460" lon="-6.8996850">
        <ele>1086.2</ele>
        <time>2019-08-16T15:05:39Z</time>
      </trkpt>
      <trkpt lat="42.0443200" lon="-6.8997410">
        <ele>1086.7</ele>
        <time>2019-08-16T15:05:40Z</time>
      </trkpt>
      <trkpt lat="42.0442940" lon="-6.8997930">
        <ele>1087.1</ele>
        <time>2019-08-16T15:05:41Z</time>
      </trkpt>
      <trkpt lat="42.0442690" lon="-6.8998400">
        <ele>1087.5</ele>
        <time>2019-08-16T15:05:42Z</time>
      </trkpt>
      <trkpt lat="42.0442460" lon="-6.8998830">
        <ele>1087.9</ele>
        <time>2019-08-16T15:05:43Z</time>
      </trkpt>
      <trkpt lat="42.0442230" lon="-6.8999240">
        <ele>1088.3</ele>
        <time>2019-08-16T15:05:44Z</time>
      </trkpt>
      <trkpt lat="42.0442010" lon="-6.8999650">
        <ele>1088.7</ele>
        <time>2019-08-16T15:05:45Z</time>
      </trkpt>
      <trkpt lat="42.0441800" lon="-6.9000030">
        <ele>1088.9</ele>
        <time>2019-08-16T15:05:46Z</time>
      </trkpt>
      <trkpt lat="42.0441600" lon="-6.9000370">
        <ele>1089.1</ele>
        <time>2019-08-16T15:05:47Z</time>
      </trkpt>
      <trkpt lat="42.0441410" lon="-6.9000700">
        <ele>1089.3</ele>
        <time>2019-08-16T15:05:48Z</time>
      </trkpt>
      <trkpt lat="42.0441230" lon="-6.9001010">
        <ele>1089.5</ele>
        <time>2019-08-16T15:05:49Z</time>
      </trkpt>
      <trkpt lat="42.0441050" lon="-6.9001300">
        <ele>1089.6</ele>
        <time>2019-08-16T15:05:50Z</time>
      </trkpt>
      <trkpt lat="42.0440890" lon="-6.9001580">
        <ele>1089.8</ele>
        <time>2019-08-16T15:05:51Z</time>
      </trkpt>
      <trkpt lat="42.0440570" lon="-6.9002130">
        <ele>1090.1</ele>
        <time>2019-08-16T15:05:53Z</time>
      </trkpt>
      <trkpt lat="42.0440240" lon="-6.9002680">
        <ele>1090.4</ele>
        <time>2019-08-16T15:05:55Z</time>
      </trkpt>
      <trkpt lat="42.0439910" lon="-6.9003240">
        <ele>1090.7</ele>
        <time>2019-08-16T15:05:57Z</time>
      </trkpt>
      <trkpt lat="42.0439610" lon="-6.9003810">
        <ele>1091.1</ele>
        <time>2019-08-16T15:05:59Z</time>
      </trkpt>
      <trkpt lat="42.0439290" lon="-6.9004340">
        <ele>1091.4</ele>
        <time>2019-08-16T15:06:01Z</time>
      </trkpt>
      <trkpt lat="42.0439030" lon="-6.9004860">
        <ele>1091.7</ele>
        <time>2019-08-16T15:06:03Z</time>
      </trkpt>
      <trkpt lat="42.0438780" lon="-6.9005310">
        <ele>1092.0</ele>
        <time>2019-08-16T15:06:05Z</time>
      </trkpt>
      <trkpt lat="42.0438490" lon="-6.9005720">
        <ele>1092.2</ele>
        <time>2019-08-16T15:06:07Z</time>
      </trkpt>
      <trkpt lat="42.0438220" lon="-6.9006160">
        <ele>1092.5</ele>
        <time>2019-08-16T15:06:09Z</time>
      </trkpt>
      <trkpt lat="42.0437960" lon="-6.9006600">
        <ele>1092.7</ele>
        <time>2019-08-16T15:06:11Z</time>
      </trkpt>
      <trkpt lat="42.0437660" lon="-6.9007060">
        <ele>1093.1</ele>
        <time>2019-08-16T15:06:13Z</time>
      </trkpt>
      <trkpt lat="42.0437380" lon="-6.9007530">
        <ele>1093.3</ele>
        <time>2019-08-16T15:06:15Z</time>
      </trkpt>
      <trkpt lat="42.0437100" lon="-6.9007980">
        <ele>1093.5</ele>
        <time>2019-08-16T15:06:17Z</time>
      </trkpt>
      <trkpt lat="42.0436790" lon="-6.9008380">
        <ele>1093.8</ele>
        <time>2019-08-16T15:06:19Z</time>
      </trkpt>
      <trkpt lat="42.0436510" lon="-6.9008810">
        <ele>1094.0</ele>
        <time>2019-08-16T15:06:21Z</time>
      </trkpt>
      <trkpt lat="42.0436280" lon="-6.9009310">
        <ele>1094.2</ele>
        <time>2019-08-16T15:06:23Z</time>
      </trkpt>
      <trkpt lat="42.0435990" lon="-6.9009770">
        <ele>1094.5</ele>
        <time>2019-08-16T15:06:25Z</time>
      </trkpt>
      <trkpt lat="42.0435700" lon="-6.9010210">
        <ele>1094.7</ele>
        <time>2019-08-16T15:06:27Z</time>
      </trkpt>
      <trkpt lat="42.0435400" lon="-6.9010590">
        <ele>1094.9</ele>
        <time>2019-08-16T15:06:29Z</time>
      </trkpt>
      <trkpt lat="42.0435090" lon="-6.9010980">
        <ele>1095.2</ele>
        <time>2019-08-16T15:06:31Z</time>
      </trkpt>
      <trkpt lat="42.0434820" lon="-6.9011400">
        <ele>1095.4</ele>
        <time>2019-08-16T15:06:33Z</time>
      </trkpt>
      <trkpt lat="42.0434530" lon="-6.9011800">
        <ele>1095.7</ele>
        <time>2019-08-16T15:06:35Z</time>
      </trkpt>
      <trkpt lat="42.0434270" lon="-6.9012210">
        <ele>1095.9</ele>
        <time>2019-08-16T15:06:37Z</time>
      </trkpt>
      <trkpt lat="42.0433970" lon="-6.9012590">
        <ele>1096.1</ele>
        <time>2019-08-16T15:06:39Z</time>
      </trkpt>
      <trkpt lat="42.0433690" lon="-6.9012960">
        <ele>1096.4</ele>
        <time>2019-08-16T15:06:41Z</time>
      </trkpt>
      <trkpt lat="42.0433400" lon="-6.9013310">
        <ele>1096.6</ele>
        <time>2019-08-16T15:06:43Z</time>
      </trkpt>
      <trkpt lat="42.0433090" lon="-6.9013640">
        <ele>1096.8</ele>
        <time>2019-08-16T15:06:45Z</time>
      </trkpt>
      <trkpt lat="42.0432780" lon="-6.9013980">
        <ele>1097.0</ele>
        <time>2019-08-16T15:06:47Z</time>
      </trkpt>
      <trkpt lat="42.0432450" lon="-6.9014310">
        <ele>1097.2</ele>
        <time>2019-08-16T15:06:49Z</time>
      </trkpt>
      <trkpt lat="42.0432120" lon="-6.9014610">
        <ele>1097.4</ele>
        <time>2019-08-16T15:06:51Z</time>
      </trkpt>
      <trkpt lat="42.0431750" lon="-6.9014900">
        <ele>1097.7</ele>
        <time>2019-08-16T15:06:53Z</time>
      </trkpt>
      <trkpt lat="42.0431360" lon="-6.9015190">
        <ele>1097.8</ele>
        <time>2019-08-16T15:06:55Z</time>
      </trkpt>
      <trkpt lat="42.0430950" lon="-6.9015430">
        <ele>1098.0</ele>
        <time>2019-08-16T15:06:57Z</time>
      </trkpt>
      <trkpt lat="42.0430520" lon="-6.9015670">
        <ele>1098.2</ele>
        <time>2019-08-16T15:06:59Z</time>
      </trkpt>
      <trkpt lat="42.0430080" lon="-6.9015880">
        <ele>1098.4</ele>
        <time>2019-08-16T15:07:01Z</time>
      </trkpt>
      <trkpt lat="42.0429630" lon="-6.9016060">
        <ele>1098.6</ele>
        <time>2019-08-16T15:07:03Z</time>
      </trkpt>
      <trkpt lat="42.0429160" lon="-6.9016210">
        <ele>1098.8</ele>
        <time>2019-08-16T15:07:05Z</time>
      </trkpt>
      <trkpt lat="42.0428680" lon="-6.9016390">
        <ele>1099.0</ele>
        <time>2019-08-16T15:07:07Z</time>
      </trkpt>
      <trkpt lat="42.0428190" lon="-6.9016530">
        <ele>1099.1</ele>
        <time>2019-08-16T15:07:09Z</time>
      </trkpt>
      <trkpt lat="42.0427670" lon="-6.9016640">
        <ele>1099.3</ele>
        <time>2019-08-16T15:07:11Z</time>
      </trkpt>
      <trkpt lat="42.0427150" lon="-6.9016680">
        <ele>1099.4</ele>
        <time>2019-08-16T15:07:13Z</time>
      </trkpt>
      <trkpt lat="42.0426620" lon="-6.9016680">
        <ele>1099.5</ele>
        <time>2019-08-16T15:07:15Z</time>
      </trkpt>
      <trkpt lat="42.0426090" lon="-6.9016640">
        <ele>1099.6</ele>
        <time>2019-08-16T15:07:17Z</time>
      </trkpt>
      <trkpt lat="42.0425550" lon="-6.9016570">
        <ele>1099.7</ele>
        <time>2019-08-16T15:07:19Z</time>
      </trkpt>
      <trkpt lat="42.0425280" lon="-6.9016500">
        <ele>1099.7</ele>
        <time>2019-08-16T15:07:20Z</time>
      </trkpt>
      <trkpt lat="42.0425000" lon="-6.9016430">
        <ele>1099.8</ele>
        <time>2019-08-16T15:07:21Z</time>
      </trkpt>
      <trkpt lat="42.0424710" lon="-6.9016350">
        <ele>1099.8</ele>
        <time>2019-08-16T15:07:22Z</time>
      </trkpt>
      <trkpt lat="42.0424420" lon="-6.9016290">
        <ele>1099.8</ele>
        <time>2019-08-16T15:07:23Z</time>
      </trkpt>
      <trkpt lat="42.0424130" lon="-6.9016220">
        <ele>1099.8</ele>
        <time>2019-08-16T15:07:24Z</time>
      </trkpt>
      <trkpt lat="42.0423830" lon="-6.9016150">
        <ele>1099.7</ele>
        <time>2019-08-16T15:07:25Z</time>
      </trkpt>
      <trkpt lat="42.0423520" lon="-6.9016070">
        <ele>1099.7</ele>
        <time>2019-08-16T15:07:26Z</time>
      </trkpt>
      <trkpt lat="42.0423190" lon="-6.9015980">
        <ele>1099.6</ele>
        <time>2019-08-16T15:07:27Z</time>
      </trkpt>
      <trkpt lat="42.0422850" lon="-6.9015880">
        <ele>1099.6</ele>
        <time>2019-08-16T15:07:28Z</time>
      </trkpt>
      <trkpt lat="42.0422500" lon="-6.9015780">
        <ele>1099.5</ele>
        <time>2019-08-16T15:07:29Z</time>
      </trkpt>
      <trkpt lat="42.0422140" lon="-6.9015680">
        <ele>1099.4</ele>
        <time>2019-08-16T15:07:30Z</time>
      </trkpt>
      <trkpt lat="42.0421760" lon="-6.9015570">
        <ele>1099.3</ele>
        <time>2019-08-16T15:07:31Z</time>
      </trkpt>
      <trkpt lat="42.0421370" lon="-6.9015460">
        <ele>1099.1</ele>
        <time>2019-08-16T15:07:32Z</time>
      </trkpt>
      <trkpt lat="42.0420990" lon="-6.9015350">
        <ele>1099.0</ele>
        <time>2019-08-16T15:07:33Z</time>
      </trkpt>
      <trkpt lat="42.0420590" lon="-6.9015220">
        <ele>1098.9</ele>
        <time>2019-08-16T15:07:34Z</time>
      </trkpt>
      <trkpt lat="42.0420200" lon="-6.9015110">
        <ele>1098.8</ele>
        <time>2019-08-16T15:07:35Z</time>
      </trkpt>
      <trkpt lat="42.0419790" lon="-6.9015010">
        <ele>1098.7</ele>
        <time>2019-08-16T15:07:36Z</time>
      </trkpt>
      <trkpt lat="42.0419370" lon="-6.9014910">
        <ele>1098.5</ele>
        <time>2019-08-16T15:07:37Z</time>
      </trkpt>
      <trkpt lat="42.0418950" lon="-6.9014820">
        <ele>1098.4</ele>
        <time>2019-08-16T15:07:38Z</time>
      </trkpt>
      <trkpt lat="42.0418510" lon="-6.9014730">
        <ele>1098.2</ele>
        <time>2019-08-16T15:07:39Z</time>
      </trkpt>
      <trkpt lat="42.0418050" lon="-6.9014640">
        <ele>1098.0</ele>
        <time>2019-08-16T15:07:40Z</time>
      </trkpt>
      <trkpt lat="42.0417570" lon="-6.9014540">
        <ele>1097.8</ele>
        <time>2019-08-16T15:07:41Z</time>
      </trkpt>
      <trkpt lat="42.0417080" lon="-6.9014440">
        <ele>1097.5</ele>
        <time>2019-08-16T15:07:42Z</time>
      </trkpt>
      <trkpt lat="42.0416570" lon="-6.9014350">
        <ele>1097.2</ele>
        <time>2019-08-16T15:07:43Z</time>
      </trkpt>
      <trkpt lat="42.0416050" lon="-6.9014260">
        <ele>1096.9</ele>
        <time>2019-08-16T15:07:44Z</time>
      </trkpt>
      <trkpt lat="42.0415510" lon="-6.9014170">
        <ele>1096.6</ele>
        <time>2019-08-16T15:07:45Z</time>
      </trkpt>
      <trkpt lat="42.0414960" lon="-6.9014090">
        <ele>1096.2</ele>
        <time>2019-08-16T15:07:46Z</time>
      </trkpt>
      <trkpt lat="42.0414390" lon="-6.9014040">
        <ele>1095.8</ele>
        <time>2019-08-16T15:07:47Z</time>
      </trkpt>
      <trkpt lat="42.0413830" lon="-6.9014010">
        <ele>1095.3</ele>
        <time>2019-08-16T15:07:48Z</time>
      </trkpt>
      <trkpt lat="42.0413250" lon="-6.9013980">
        <ele>1094.8</ele>
        <time>2019-08-16T15:07:49Z</time>
      </trkpt>
      <trkpt lat="42.0412630" lon="-6.9013960">
        <ele>1094.3</ele>
        <time>2019-08-16T15:07:50Z</time>
      </trkpt>
      <trkpt lat="42.0411960" lon="-6.9013980">
        <ele>1093.7</ele>
        <time>2019-08-16T15:07:51Z</time>
      </trkpt>
      <trkpt lat="42.0411280" lon="-6.9014000">
        <ele>1093.2</ele>
        <time>2019-08-16T15:07:52Z</time>
      </trkpt>
      <trkpt lat="42.0410580" lon="-6.9014040">
        <ele>1092.5</ele>
        <time>2019-08-16T15:07:53Z</time>
      </trkpt>
      <trkpt lat="42.0409830" lon="-6.9014110">
        <ele>1091.8</ele>
        <time>2019-08-16T15:07:54Z</time>
      </trkpt>
      <trkpt lat="42.0409070" lon="-6.9014210">
        <ele>1091.0</ele>
        <time>2019-08-16T15:07:55Z</time>
      </trkpt>
      <trkpt lat="42.0408290" lon="-6.9014320">
        <ele>1090.1</ele>
        <time>2019-08-16T15:07:56Z</time>
      </trkpt>
      <trkpt lat="42.0407530" lon="-6.9014450">
        <ele>1089.2</ele>
        <time>2019-08-16T15:07:57Z</time>
      </trkpt>
      <trkpt lat="42.0406740" lon="-6.9014610">
        <ele>1088.2</ele>
        <time>2019-08-16T15:07:58Z</time>
      </trkpt>
      <trkpt lat="42.0405960" lon="-6.9014770">
        <ele>1087.3</ele>
        <time>2019-08-16T15:07:59Z</time>
      </trkpt>
      <trkpt lat="42.0405200" lon="-6.9014940">
        <ele>1086.5</ele>
        <time>2019-08-16T15:08:00Z</time>
      </trkpt>
      <trkpt lat="42.0404380" lon="-6.9015100">
        <ele>1085.6</ele>
        <time>2019-08-16T15:08:01Z</time>
      </trkpt>
      <trkpt lat="42.0403570" lon="-6.9015300">
        <ele>1084.8</ele>
        <time>2019-08-16T15:08:02Z</time>
      </trkpt>
      <trkpt lat="42.0402770" lon="-6.9015510">
        <ele>1083.9</ele>
        <time>2019-08-16T15:08:03Z</time>
      </trkpt>
      <trkpt lat="42.0401960" lon="-6.9015690">
        <ele>1083.0</ele>
        <time>2019-08-16T15:08:04Z</time>
      </trkpt>
      <trkpt lat="42.0401180" lon="-6.9015850">
        <ele>1082.1</ele>
        <time>2019-08-16T15:08:05Z</time>
      </trkpt>
      <trkpt lat="42.0400370" lon="-6.9016020">
        <ele>1081.1</ele>
        <time>2019-08-16T15:08:06Z</time>
      </trkpt>
      <trkpt lat="42.0399540" lon="-6.9016200">
        <ele>1080.0</ele>
        <time>2019-08-16T15:08:07Z</time>
      </trkpt>
      <trkpt lat="42.0398680" lon="-6.9016330">
        <ele>1078.9</ele>
        <time>2019-08-16T15:08:08Z</time>
      </trkpt>
      <trkpt lat="42.0397780" lon="-6.9016410">
        <ele>1077.8</ele>
        <time>2019-08-16T15:08:09Z</time>
      </trkpt>
      <trkpt lat="42.0396830" lon="-6.9016430">
        <ele>1076.8</ele>
        <time>2019-08-16T15:08:10Z</time>
      </trkpt>
      <trkpt lat="42.0395840" lon="-6.9016400">
        <ele>1075.8</ele>
        <time>2019-08-16T15:08:11Z</time>
      </trkpt>
      <trkpt lat="42.0394810" lon="-6.9016240">
        <ele>1074.7</ele>
        <time>2019-08-16T15:08:12Z</time>
      </trkpt>
      <trkpt lat="42.0393740" lon="-6.9015920">
        <ele>1073.6</ele>
        <time>2019-08-16T15:08:13Z</time>
      </trkpt>
      <trkpt lat="42.0392640" lon="-6.9015450">
        <ele>1072.3</ele>
        <time>2019-08-16T15:08:14Z</time>
      </trkpt>
      <trkpt lat="42.0391520" lon="-6.9014860">
        <ele>1070.8</ele>
        <time>2019-08-16T15:08:15Z</time>
      </trkpt>
      <trkpt lat="42.0390400" lon="-6.9014110">
        <ele>1069.1</ele>
        <time>2019-08-16T15:08:16Z</time>
      </trkpt>
      <trkpt lat="42.0389320" lon="-6.9013250">
        <ele>1067.5</ele>
        <time>2019-08-16T15:08:17Z</time>
      </trkpt>
      <trkpt lat="42.0388240" lon="-6.9012300">
        <ele>1065.9</ele>
        <time>2019-08-16T15:08:18Z</time>
      </trkpt>
      <trkpt lat="42.0387160" lon="-6.9011280">
        <ele>1064.4</ele>
        <time>2019-08-16T15:08:19Z</time>
      </trkpt>
      <trkpt lat="42.0386090" lon="-6.9010270">
        <ele>1062.8</ele>
        <time>2019-08-16T15:08:20Z</time>
      </trkpt>
      <trkpt lat="42.0385060" lon="-6.9009290">
        <ele>1061.3</ele>
        <time>2019-08-16T15:08:21Z</time>
      </trkpt>
      <trkpt lat="42.0384070" lon="-6.9008390">
        <ele>1059.9</ele>
        <time>2019-08-16T15:08:22Z</time>
      </trkpt>
      <trkpt lat="42.0383160" lon="-6.9007560">
        <ele>1058.6</ele>
        <time>2019-08-16T15:08:23Z</time>
      </trkpt>
      <trkpt lat="42.0382290" lon="-6.9006800">
        <ele>1057.3</ele>
        <time>2019-08-16T15:08:24Z</time>
      </trkpt>
      <trkpt lat="42.0381450" lon="-6.9006100">
        <ele>1056.1</ele>
        <time>2019-08-16T15:08:25Z</time>
      </trkpt>
      <trkpt lat="42.0380610" lon="-6.9005470">
        <ele>1054.9</ele>
        <time>2019-08-16T15:08:26Z</time>
      </trkpt>
      <trkpt lat="42.0379770" lon="-6.9004920">
        <ele>1053.7</ele>
        <time>2019-08-16T15:08:27Z</time>
      </trkpt>
      <trkpt lat="42.0378880" lon="-6.9004450">
        <ele>1052.4</ele>
        <time>2019-08-16T15:08:28Z</time>
      </trkpt>
      <trkpt lat="42.0377900" lon="-6.9004060">
        <ele>1051.3</ele>
        <time>2019-08-16T15:08:29Z</time>
      </trkpt>
      <trkpt lat="42.0376850" lon="-6.9003750">
        <ele>1050.2</ele>
        <time>2019-08-16T15:08:30Z</time>
      </trkpt>
      <trkpt lat="42.0375740" lon="-6.9003520">
        <ele>1049.1</ele>
        <time>2019-08-16T15:08:31Z</time>
      </trkpt>
      <trkpt lat="42.0374590" lon="-6.9003390">
        <ele>1048.1</ele>
        <time>2019-08-16T15:08:32Z</time>
      </trkpt>
      <trkpt lat="42.0373440" lon="-6.9003350">
        <ele>1047.0</ele>
        <time>2019-08-16T15:08:33Z</time>
      </trkpt>
      <trkpt lat="42.0372260" lon="-6.9003340">
        <ele>1045.9</ele>
        <time>2019-08-16T15:08:34Z</time>
      </trkpt>
      <trkpt lat="42.0371070" lon="-6.9003350">
        <ele>1044.8</ele>
        <time>2019-08-16T15:08:35Z</time>
      </trkpt>
      <trkpt lat="42.0369900" lon="-6.9003410">
        <ele>1043.7</ele>
        <time>2019-08-16T15:08:36Z</time>
      </trkpt>
      <trkpt lat="42.0368760" lon="-6.9003530">
        <ele>1042.6</ele>
        <time>2019-08-16T15:08:37Z</time>
      </trkpt>
      <trkpt lat="42.0367650" lon="-6.9003730">
        <ele>1042.3</ele>
        <time>2019-08-16T15:08:38Z</time>
      </trkpt>
      <trkpt lat="42.0366580" lon="-6.9004010">
        <ele>1042.0</ele>
        <time>2019-08-16T15:08:39Z</time>
      </trkpt>
      <trkpt lat="42.0365570" lon="-6.9004380">
        <ele>1041.7</ele>
        <time>2019-08-16T15:08:40Z</time>
      </trkpt>
      <trkpt lat="42.0364630" lon="-6.9004810">
        <ele>1041.7</ele>
        <time>2019-08-16T15:08:41Z</time>
      </trkpt>
      <trkpt lat="42.0363770" lon="-6.9005320">
        <ele>1042.4</ele>
        <time>2019-08-16T15:08:42Z</time>
      </trkpt>
      <trkpt lat="42.0363010" lon="-6.9005920">
        <ele>1042.9</ele>
        <time>2019-08-16T15:08:43Z</time>
      </trkpt>
      <trkpt lat="42.0362380" lon="-6.9006610">
        <ele>1043.4</ele>
        <time>2019-08-16T15:08:44Z</time>
      </trkpt>
      <trkpt lat="42.0361880" lon="-6.9007360">
        <ele>1043.8</ele>
        <time>2019-08-16T15:08:45Z</time>
      </trkpt>
      <trkpt lat="42.0361480" lon="-6.9008150">
        <ele>1044.1</ele>
        <time>2019-08-16T15:08:46Z</time>
      </trkpt>
      <trkpt lat="42.0361150" lon="-6.9008930">
        <ele>1044.3</ele>
        <time>2019-08-16T15:08:47Z</time>
      </trkpt>
      <trkpt lat="42.0360880" lon="-6.9009710">
        <ele>1044.5</ele>
        <time>2019-08-16T15:08:48Z</time>
      </trkpt>
      <trkpt lat="42.0360620" lon="-6.9010400">
        <ele>1044.9</ele>
        <time>2019-08-16T15:08:49Z</time>
      </trkpt>
      <trkpt lat="42.0360370" lon="-6.9011020">
        <ele>1044.9</ele>
        <time>2019-08-16T15:08:50Z</time>
      </trkpt>
      <trkpt lat="42.0360160" lon="-6.9011610">
        <ele>1044.9</ele>
        <time>2019-08-16T15:08:51Z</time>
      </trkpt>
      <trkpt lat="42.0359960" lon="-6.9012180">
        <ele>1045.0</ele>
        <time>2019-08-16T15:08:52Z</time>
      </trkpt>
      <trkpt lat="42.0359790" lon="-6.9012710">
        <ele>1045.0</ele>
        <time>2019-08-16T15:08:53Z</time>
      </trkpt>
      <trkpt lat="42.0359620" lon="-6.9013210">
        <ele>1045.0</ele>
        <time>2019-08-16T15:08:54Z</time>
      </trkpt>
      <trkpt lat="42.0359470" lon="-6.9013680">
        <ele>1045.1</ele>
        <time>2019-08-16T15:08:55Z</time>
      </trkpt>
      <trkpt lat="42.0359330" lon="-6.9014140">
        <ele>1045.1</ele>
        <time>2019-08-16T15:08:56Z</time>
      </trkpt>
      <trkpt lat="42.0359190" lon="-6.9014580">
        <ele>1045.2</ele>
        <time>2019-08-16T15:08:57Z</time>
      </trkpt>
      <trkpt lat="42.0359080" lon="-6.9015050">
        <ele>1045.2</ele>
        <time>2019-08-16T15:08:58Z</time>
      </trkpt>
      <trkpt lat="42.0358960" lon="-6.9015510">
        <ele>1045.3</ele>
        <time>2019-08-16T15:08:59Z</time>
      </trkpt>
      <trkpt lat="42.0358810" lon="-6.9015930">
        <ele>1045.3</ele>
        <time>2019-08-16T15:09:00Z</time>
      </trkpt>
      <trkpt lat="42.0358640" lon="-6.9016290">
        <ele>1045.4</ele>
        <time>2019-08-16T15:09:01Z</time>
      </trkpt>
      <trkpt lat="42.0358490" lon="-6.9016590">
        <ele>1045.4</ele>
        <time>2019-08-16T15:09:02Z</time>
      </trkpt>
      <trkpt lat="42.0358360" lon="-6.9017160">
        <ele>1045.4</ele>
        <time>2019-08-16T15:09:04Z</time>
      </trkpt>
      <trkpt lat="42.0358310" lon="-6.9017700">
        <ele>1045.5</ele>
        <time>2019-08-16T15:09:06Z</time>
      </trkpt>
      <trkpt lat="42.0358240" lon="-6.9018400">
        <ele>1045.5</ele>
        <time>2019-08-16T15:09:08Z</time>
      </trkpt>
      <trkpt lat="42.0358230" lon="-6.9018830">
        <ele>1045.6</ele>
        <time>2019-08-16T15:09:09Z</time>
      </trkpt>
      <trkpt lat="42.0358250" lon="-6.9019310">
        <ele>1045.6</ele>
        <time>2019-08-16T15:09:10Z</time>
      </trkpt>
      <trkpt lat="42.0358300" lon="-6.9019830">
        <ele>1045.6</ele>
        <time>2019-08-16T15:09:11Z</time>
      </trkpt>
      <trkpt lat="42.0358390" lon="-6.9020380">
        <ele>1045.7</ele>
        <time>2019-08-16T15:09:12Z</time>
      </trkpt>
      <trkpt lat="42.0358490" lon="-6.9020950">
        <ele>1045.7</ele>
        <time>2019-08-16T15:09:13Z</time>
      </trkpt>
      <trkpt lat="42.0358620" lon="-6.9021520">
        <ele>1045.7</ele>
        <time>2019-08-16T15:09:14Z</time>
      </trkpt>
      <trkpt lat="42.0358760" lon="-6.9022090">
        <ele>1045.8</ele>
        <time>2019-08-16T15:09:15Z</time>
      </trkpt>
      <trkpt lat="42.0358930" lon="-6.9022660">
        <ele>1045.8</ele>
        <time>2019-08-16T15:09:16Z</time>
      </trkpt>
      <trkpt lat="42.0359120" lon="-6.9023200">
        <ele>1045.8</ele>
        <time>2019-08-16T15:09:17Z</time>
      </trkpt>
      <trkpt lat="42.0359320" lon="-6.9023720">
        <ele>1045.8</ele>
        <time>2019-08-16T15:09:18Z</time>
      </trkpt>
      <trkpt lat="42.0359560" lon="-6.9024220">
        <ele>1045.8</ele>
        <time>2019-08-16T15:09:19Z</time>
      </trkpt>
      <trkpt lat="42.0359800" lon="-6.9024710">
        <ele>1045.9</ele>
        <time>2019-08-16T15:09:20Z</time>
      </trkpt>
      <trkpt lat="42.0360060" lon="-6.9025170">
        <ele>1045.9</ele>
        <time>2019-08-16T15:09:21Z</time>
      </trkpt>
      <trkpt lat="42.0360340" lon="-6.9025600">
        <ele>1045.9</ele>
        <time>2019-08-16T15:09:22Z</time>
      </trkpt>
      <trkpt lat="42.0360640" lon="-6.9026010">
        <ele>1045.9</ele>
        <time>2019-08-16T15:09:23Z</time>
      </trkpt>
      <trkpt lat="42.0360940" lon="-6.9026410">
        <ele>1046.0</ele>
        <time>2019-08-16T15:09:24Z</time>
      </trkpt>
      <trkpt lat="42.0361240" lon="-6.9026820">
        <ele>1046.0</ele>
        <time>2019-08-16T15:09:25Z</time>
      </trkpt>
      <trkpt lat="42.0361550" lon="-6.9027240">
        <ele>1046.0</ele>
        <time>2019-08-16T15:09:26Z</time>
      </trkpt>
      <trkpt lat="42.0361870" lon="-6.9027660">
        <ele>1046.0</ele>
        <time>2019-08-16T15:09:27Z</time>
      </trkpt>
      <trkpt lat="42.0362210" lon="-6.9028070">
        <ele>1046.1</ele>
        <time>2019-08-16T15:09:28Z</time>
      </trkpt>
      <trkpt lat="42.0362540" lon="-6.9028480">
        <ele>1046.1</ele>
        <time>2019-08-16T15:09:29Z</time>
      </trkpt>
      <trkpt lat="42.0362850" lon="-6.9028880">
        <ele>1046.1</ele>
        <time>2019-08-16T15:09:30Z</time>
      </trkpt>
      <trkpt lat="42.0363190" lon="-6.9029280">
        <ele>1046.2</ele>
        <time>2019-08-16T15:09:31Z</time>
      </trkpt>
      <trkpt lat="42.0363520" lon="-6.9029670">
        <ele>1046.2</ele>
        <time>2019-08-16T15:09:32Z</time>
      </trkpt>
      <trkpt lat="42.0363870" lon="-6.9030060">
        <ele>1046.3</ele>
        <time>2019-08-16T15:09:33Z</time>
      </trkpt>
      <trkpt lat="42.0364240" lon="-6.9030460">
        <ele>1046.3</ele>
        <time>2019-08-16T15:09:34Z</time>
      </trkpt>
      <trkpt lat="42.0364610" lon="-6.9030900">
        <ele>1046.3</ele>
        <time>2019-08-16T15:09:35Z</time>
      </trkpt>
      <trkpt lat="42.0364960" lon="-6.9031310">
        <ele>1046.4</ele>
        <time>2019-08-16T15:09:36Z</time>
      </trkpt>
      <trkpt lat="42.0365320" lon="-6.9031740">
        <ele>1046.4</ele>
        <time>2019-08-16T15:09:37Z</time>
      </trkpt>
      <trkpt lat="42.0365680" lon="-6.9032180">
        <ele>1046.5</ele>
        <time>2019-08-16T15:09:38Z</time>
      </trkpt>
      <trkpt lat="42.0366010" lon="-6.9032640">
        <ele>1046.5</ele>
        <time>2019-08-16T15:09:39Z</time>
      </trkpt>
      <trkpt lat="42.0366340" lon="-6.9033090">
        <ele>1046.5</ele>
        <time>2019-08-16T15:09:40Z</time>
      </trkpt>
      <trkpt lat="42.0366690" lon="-6.9033550">
        <ele>1046.6</ele>
        <time>2019-08-16T15:09:41Z</time>
      </trkpt>
      <trkpt lat="42.0367000" lon="-6.9034020">
        <ele>1046.9</ele>
        <time>2019-08-16T15:09:42Z</time>
      </trkpt>
      <trkpt lat="42.0367280" lon="-6.9034520">
        <ele>1047.1</ele>
        <time>2019-08-16T15:09:43Z</time>
      </trkpt>
      <trkpt lat="42.0367560" lon="-6.9035040">
        <ele>1048.0</ele>
        <time>2019-08-16T15:09:44Z</time>
      </trkpt>
      <trkpt lat="42.0367830" lon="-6.9035560">
        <ele>1048.4</ele>
        <time>2019-08-16T15:09:45Z</time>
      </trkpt>
      <trkpt lat="42.0368070" lon="-6.9036090">
        <ele>1048.8</ele>
        <time>2019-08-16T15:09:46Z</time>
      </trkpt>
      <trkpt lat="42.0368270" lon="-6.9036650">
        <ele>1049.2</ele>
        <time>2019-08-16T15:09:47Z</time>
      </trkpt>
      <trkpt lat="42.0368430" lon="-6.9037230">
        <ele>1049.6</ele>
        <time>2019-08-16T15:09:48Z</time>
      </trkpt>
      <trkpt lat="42.0368510" lon="-6.9037820">
        <ele>1050.0</ele>
        <time>2019-08-16T15:09:49Z</time>
      </trkpt>
      <trkpt lat="42.0368510" lon="-6.9038410">
        <ele>1049.8</ele>
        <time>2019-08-16T15:09:50Z</time>
      </trkpt>
      <trkpt lat="42.0368440" lon="-6.9038980">
        <ele>1049.6</ele>
        <time>2019-08-16T15:09:51Z</time>
      </trkpt>
      <trkpt lat="42.0368310" lon="-6.9039540">
        <ele>1049.5</ele>
        <time>2019-08-16T15:09:52Z</time>
      </trkpt>
      <trkpt lat="42.0368140" lon="-6.9040110">
        <ele>1049.3</ele>
        <time>2019-08-16T15:09:53Z</time>
      </trkpt>
      <trkpt lat="42.0367930" lon="-6.9040690">
        <ele>1049.1</ele>
        <time>2019-08-16T15:09:54Z</time>
      </trkpt>
      <trkpt lat="42.0367690" lon="-6.9041270">
        <ele>1048.9</ele>
        <time>2019-08-16T15:09:55Z</time>
      </trkpt>
      <trkpt lat="42.0367420" lon="-6.9041850">
        <ele>1048.8</ele>
        <time>2019-08-16T15:09:56Z</time>
      </trkpt>
      <trkpt lat="42.0367160" lon="-6.9042450">
        <ele>1048.6</ele>
        <time>2019-08-16T15:09:57Z</time>
      </trkpt>
      <trkpt lat="42.0366910" lon="-6.9043040">
        <ele>1048.4</ele>
        <time>2019-08-16T15:09:58Z</time>
      </trkpt>
      <trkpt lat="42.0366640" lon="-6.9043620">
        <ele>1048.0</ele>
        <time>2019-08-16T15:09:59Z</time>
      </trkpt>
      <trkpt lat="42.0366360" lon="-6.9044170">
        <ele>1048.0</ele>
        <time>2019-08-16T15:10:00Z</time>
      </trkpt>
      <trkpt lat="42.0366040" lon="-6.9044670">
        <ele>1048.1</ele>
        <time>2019-08-16T15:10:01Z</time>
      </trkpt>
      <trkpt lat="42.0365690" lon="-6.9045120">
        <ele>1048.1</ele>
        <time>2019-08-16T15:10:02Z</time>
      </trkpt>
      <trkpt lat="42.0365330" lon="-6.9045530">
        <ele>1048.1</ele>
        <time>2019-08-16T15:10:03Z</time>
      </trkpt>
      <trkpt lat="42.0364930" lon="-6.9045890">
        <ele>1048.0</ele>
        <time>2019-08-16T15:10:04Z</time>
      </trkpt>
      <trkpt lat="42.0364500" lon="-6.9046190">
        <ele>1048.0</ele>
        <time>2019-08-16T15:10:05Z</time>
      </trkpt>
      <trkpt lat="42.0364060" lon="-6.9046460">
        <ele>1047.9</ele>
        <time>2019-08-16T15:10:06Z</time>
      </trkpt>
      <trkpt lat="42.0363600" lon="-6.9046700">
        <ele>1047.9</ele>
        <time>2019-08-16T15:10:07Z</time>
      </trkpt>
      <trkpt lat="42.0363170" lon="-6.9046960">
        <ele>1047.8</ele>
        <time>2019-08-16T15:10:08Z</time>
      </trkpt>
      <trkpt lat="42.0362790" lon="-6.9047300">
        <ele>1047.8</ele>
        <time>2019-08-16T15:10:09Z</time>
      </trkpt>
      <trkpt lat="42.0362460" lon="-6.9047750">
        <ele>1047.7</ele>
        <time>2019-08-16T15:10:10Z</time>
      </trkpt>
      <trkpt lat="42.0362180" lon="-6.9048280">
        <ele>1047.7</ele>
        <time>2019-08-16T15:10:11Z</time>
      </trkpt>
      <trkpt lat="42.0361940" lon="-6.9048870">
        <ele>1047.7</ele>
        <time>2019-08-16T15:10:12Z</time>
      </trkpt>
      <trkpt lat="42.0361780" lon="-6.9049530">
        <ele>1047.6</ele>
        <time>2019-08-16T15:10:13Z</time>
      </trkpt>
      <trkpt lat="42.0361670" lon="-6.9050230">
        <ele>1047.6</ele>
        <time>2019-08-16T15:10:14Z</time>
      </trkpt>
      <trkpt lat="42.0361600" lon="-6.9050940">
        <ele>1047.5</ele>
        <time>2019-08-16T15:10:15Z</time>
      </trkpt>
      <trkpt lat="42.0361580" lon="-6.9051640">
        <ele>1047.5</ele>
        <time>2019-08-16T15:10:16Z</time>
      </trkpt>
      <trkpt lat="42.0361550" lon="-6.9052350">
        <ele>1047.5</ele>
        <time>2019-08-16T15:10:17Z</time>
      </trkpt>
      <trkpt lat="42.0361600" lon="-6.9052980">
        <ele>1047.4</ele>
        <time>2019-08-16T15:10:18Z</time>
      </trkpt>
      <trkpt lat="42.0361590" lon="-6.9053630">
        <ele>1047.4</ele>
        <time>2019-08-16T15:10:19Z</time>
      </trkpt>
      <trkpt lat="42.0361520" lon="-6.9054290">
        <ele>1047.4</ele>
        <time>2019-08-16T15:10:20Z</time>
      </trkpt>
      <trkpt lat="42.0361420" lon="-6.9054980">
        <ele>1047.3</ele>
        <time>2019-08-16T15:10:21Z</time>
      </trkpt>
      <trkpt lat="42.0361300" lon="-6.9055680">
        <ele>1047.3</ele>
        <time>2019-08-16T15:10:22Z</time>
      </trkpt>
      <trkpt lat="42.0361170" lon="-6.9056400">
        <ele>1047.3</ele>
        <time>2019-08-16T15:10:23Z</time>
      </trkpt>
      <trkpt lat="42.0361020" lon="-6.9057120">
        <ele>1047.2</ele>
        <time>2019-08-16T15:10:24Z</time>
      </trkpt>
      <trkpt lat="42.0360860" lon="-6.9057860">
        <ele>1047.2</ele>
        <time>2019-08-16T15:10:25Z</time>
      </trkpt>
      <trkpt lat="42.0360690" lon="-6.9058600">
        <ele>1047.1</ele>
        <time>2019-08-16T15:10:26Z</time>
      </trkpt>
      <trkpt lat="42.0360530" lon="-6.9059330">
        <ele>1047.1</ele>
        <time>2019-08-16T15:10:27Z</time>
      </trkpt>
      <trkpt lat="42.0360370" lon="-6.9060040">
        <ele>1047.0</ele>
        <time>2019-08-16T15:10:28Z</time>
      </trkpt>
      <trkpt lat="42.0360180" lon="-6.9060730">
        <ele>1047.0</ele>
        <time>2019-08-16T15:10:29Z</time>
      </trkpt>
      <trkpt lat="42.0359930" lon="-6.9061390">
        <ele>1046.9</ele>
        <time>2019-08-16T15:10:30Z</time>
      </trkpt>
      <trkpt lat="42.0359660" lon="-6.9062050">
        <ele>1046.9</ele>
        <time>2019-08-16T15:10:31Z</time>
      </trkpt>
      <trkpt lat="42.0359380" lon="-6.9062690">
        <ele>1046.8</ele>
        <time>2019-08-16T15:10:32Z</time>
      </trkpt>
      <trkpt lat="42.0359050" lon="-6.9063310">
        <ele>1046.8</ele>
        <time>2019-08-16T15:10:33Z</time>
      </trkpt>
      <trkpt lat="42.0358700" lon="-6.9063900">
        <ele>1046.7</ele>
        <time>2019-08-16T15:10:34Z</time>
      </trkpt>
      <trkpt lat="42.0358340" lon="-6.9064460">
        <ele>1046.7</ele>
        <time>2019-08-16T15:10:35Z</time>
      </trkpt>
      <trkpt lat="42.0357960" lon="-6.9065000">
        <ele>1046.6</ele>
        <time>2019-08-16T15:10:36Z</time>
      </trkpt>
      <trkpt lat="42.0357570" lon="-6.9065540">
        <ele>1046.5</ele>
        <time>2019-08-16T15:10:37Z</time>
      </trkpt>
      <trkpt lat="42.0357140" lon="-6.9066080">
        <ele>1046.5</ele>
        <time>2019-08-16T15:10:38Z</time>
      </trkpt>
      <trkpt lat="42.0356700" lon="-6.9066630">
        <ele>1046.4</ele>
        <time>2019-08-16T15:10:39Z</time>
      </trkpt>
      <trkpt lat="42.0356240" lon="-6.9067170">
        <ele>1046.4</ele>
        <time>2019-08-16T15:10:40Z</time>
      </trkpt>
      <trkpt lat="42.0355790" lon="-6.9067680">
        <ele>1046.3</ele>
        <time>2019-08-16T15:10:41Z</time>
      </trkpt>
      <trkpt lat="42.0355330" lon="-6.9068170">
        <ele>1046.2</ele>
        <time>2019-08-16T15:10:42Z</time>
      </trkpt>
      <trkpt lat="42.0354860" lon="-6.9068670">
        <ele>1046.1</ele>
        <time>2019-08-16T15:10:43Z</time>
      </trkpt>
      <trkpt lat="42.0354380" lon="-6.9069160">
        <ele>1046.0</ele>
        <time>2019-08-16T15:10:44Z</time>
      </trkpt>
      <trkpt lat="42.0353920" lon="-6.9069640">
        <ele>1045.9</ele>
        <time>2019-08-16T15:10:45Z</time>
      </trkpt>
      <trkpt lat="42.0353470" lon="-6.9070120">
        <ele>1045.8</ele>
        <time>2019-08-16T15:10:46Z</time>
      </trkpt>
      <trkpt lat="42.0353060" lon="-6.9070640">
        <ele>1045.7</ele>
        <time>2019-08-16T15:10:47Z</time>
      </trkpt>
      <trkpt lat="42.0352680" lon="-6.9071140">
        <ele>1045.6</ele>
        <time>2019-08-16T15:10:48Z</time>
      </trkpt>
      <trkpt lat="42.0352300" lon="-6.9071660">
        <ele>1045.5</ele>
        <time>2019-08-16T15:10:49Z</time>
      </trkpt>
      <trkpt lat="42.0351960" lon="-6.9072210">
        <ele>1045.3</ele>
        <time>2019-08-16T15:10:50Z</time>
      </trkpt>
      <trkpt lat="42.0351630" lon="-6.9072780">
        <ele>1045.2</ele>
        <time>2019-08-16T15:10:51Z</time>
      </trkpt>
      <trkpt lat="42.0351340" lon="-6.9073340">
        <ele>1045.0</ele>
        <time>2019-08-16T15:10:52Z</time>
      </trkpt>
      <trkpt lat="42.0351070" lon="-6.9073900">
        <ele>1044.8</ele>
        <time>2019-08-16T15:10:53Z</time>
      </trkpt>
      <trkpt lat="42.0350800" lon="-6.9074440">
        <ele>1044.1</ele>
        <time>2019-08-16T15:10:54Z</time>
      </trkpt>
      <trkpt lat="42.0350540" lon="-6.9074950">
        <ele>1043.4</ele>
        <time>2019-08-16T15:10:55Z</time>
      </trkpt>
      <trkpt lat="42.0350280" lon="-6.9075480">
        <ele>1042.7</ele>
        <time>2019-08-16T15:10:56Z</time>
      </trkpt>
      <trkpt lat="42.0350030" lon="-6.9076030">
        <ele>1042.0</ele>
        <time>2019-08-16T15:10:57Z</time>
      </trkpt>
      <trkpt lat="42.0349770" lon="-6.9076570">
        <ele>1041.6</ele>
        <time>2019-08-16T15:10:58Z</time>
      </trkpt>
      <trkpt lat="42.0349490" lon="-6.9077100">
        <ele>1041.1</ele>
        <time>2019-08-16T15:10:59Z</time>
      </trkpt>
      <trkpt lat="42.0349200" lon="-6.9077650">
        <ele>1040.7</ele>
        <time>2019-08-16T15:11:00Z</time>
      </trkpt>
      <trkpt lat="42.0348890" lon="-6.9078220">
        <ele>1040.2</ele>
        <time>2019-08-16T15:11:01Z</time>
      </trkpt>
      <trkpt lat="42.0348580" lon="-6.9078820">
        <ele>1039.7</ele>
        <time>2019-08-16T15:11:02Z</time>
      </trkpt>
      <trkpt lat="42.0348290" lon="-6.9079430">
        <ele>1038.8</ele>
        <time>2019-08-16T15:11:03Z</time>
      </trkpt>
      <trkpt lat="42.0348010" lon="-6.9080070">
        <ele>1038.0</ele>
        <time>2019-08-16T15:11:04Z</time>
      </trkpt>
      <trkpt lat="42.0347720" lon="-6.9080690">
        <ele>1037.5</ele>
        <time>2019-08-16T15:11:05Z</time>
      </trkpt>
      <trkpt lat="42.0347410" lon="-6.9081340">
        <ele>1037.1</ele>
        <time>2019-08-16T15:11:06Z</time>
      </trkpt>
      <trkpt lat="42.0347090" lon="-6.9081990">
        <ele>1036.6</ele>
        <time>2019-08-16T15:11:07Z</time>
      </trkpt>
      <trkpt lat="42.0346750" lon="-6.9082630">
        <ele>1036.1</ele>
        <time>2019-08-16T15:11:08Z</time>
      </trkpt>
      <trkpt lat="42.0346430" lon="-6.9083230">
        <ele>1035.8</ele>
        <time>2019-08-16T15:11:09Z</time>
      </trkpt>
      <trkpt lat="42.0346160" lon="-6.9083800">
        <ele>1035.5</ele>
        <time>2019-08-16T15:11:10Z</time>
      </trkpt>
      <trkpt lat="42.0345910" lon="-6.9084370">
        <ele>1035.2</ele>
        <time>2019-08-16T15:11:11Z</time>
      </trkpt>
      <trkpt lat="42.0345670" lon="-6.9084910">
        <ele>1034.9</ele>
        <time>2019-08-16T15:11:12Z</time>
      </trkpt>
      <trkpt lat="42.0345430" lon="-6.9085430">
        <ele>1034.7</ele>
        <time>2019-08-16T15:11:13Z</time>
      </trkpt>
      <trkpt lat="42.0345170" lon="-6.9085920">
        <ele>1034.5</ele>
        <time>2019-08-16T15:11:14Z</time>
      </trkpt>
      <trkpt lat="42.0344900" lon="-6.9086430">
        <ele>1034.3</ele>
        <time>2019-08-16T15:11:15Z</time>
      </trkpt>
      <trkpt lat="42.0344640" lon="-6.9086950">
        <ele>1034.1</ele>
        <time>2019-08-16T15:11:16Z</time>
      </trkpt>
      <trkpt lat="42.0344380" lon="-6.9087480">
        <ele>1033.9</ele>
        <time>2019-08-16T15:11:17Z</time>
      </trkpt>
      <trkpt lat="42.0344110" lon="-6.9088060">
        <ele>1033.8</ele>
        <time>2019-08-16T15:11:18Z</time>
      </trkpt>
      <trkpt lat="42.0343830" lon="-6.9088640">
        <ele>1033.6</ele>
        <time>2019-08-16T15:11:19Z</time>
      </trkpt>
      <trkpt lat="42.0343560" lon="-6.9089240">
        <ele>1033.5</ele>
        <time>2019-08-16T15:11:20Z</time>
      </trkpt>
      <trkpt lat="42.0343270" lon="-6.9089830">
        <ele>1033.3</ele>
        <time>2019-08-16T15:11:21Z</time>
      </trkpt>
      <trkpt lat="42.0342980" lon="-6.9090430">
        <ele>1033.1</ele>
        <time>2019-08-16T15:11:22Z</time>
      </trkpt>
      <trkpt lat="42.0342690" lon="-6.9091040">
        <ele>1032.9</ele>
        <time>2019-08-16T15:11:23Z</time>
      </trkpt>
      <trkpt lat="42.0342400" lon="-6.9091620">
        <ele>1032.7</ele>
        <time>2019-08-16T15:11:24Z</time>
      </trkpt>
      <trkpt lat="42.0342120" lon="-6.9092200">
        <ele>1032.5</ele>
        <time>2019-08-16T15:11:25Z</time>
      </trkpt>
      <trkpt lat="42.0341840" lon="-6.9092750">
        <ele>1032.3</ele>
        <time>2019-08-16T15:11:26Z</time>
      </trkpt>
      <trkpt lat="42.0341560" lon="-6.9093290">
        <ele>1032.0</ele>
        <time>2019-08-16T15:11:27Z</time>
      </trkpt>
      <trkpt lat="42.0341280" lon="-6.9093820">
        <ele>1031.8</ele>
        <time>2019-08-16T15:11:28Z</time>
      </trkpt>
      <trkpt lat="42.0341000" lon="-6.9094340">
        <ele>1031.6</ele>
        <time>2019-08-16T15:11:29Z</time>
      </trkpt>
      <trkpt lat="42.0340710" lon="-6.9094830">
        <ele>1031.3</ele>
        <time>2019-08-16T15:11:30Z</time>
      </trkpt>
      <trkpt lat="42.0340410" lon="-6.9095320">
        <ele>1031.1</ele>
        <time>2019-08-16T15:11:31Z</time>
      </trkpt>
      <trkpt lat="42.0340110" lon="-6.9095790">
        <ele>1030.9</ele>
        <time>2019-08-16T15:11:32Z</time>
      </trkpt>
      <trkpt lat="42.0339810" lon="-6.9096250">
        <ele>1030.7</ele>
        <time>2019-08-16T15:11:33Z</time>
      </trkpt>
      <trkpt lat="42.0339500" lon="-6.9096720">
        <ele>1030.5</ele>
        <time>2019-08-16T15:11:34Z</time>
      </trkpt>
      <trkpt lat="42.0339180" lon="-6.9097170">
        <ele>1030.3</ele>
        <time>2019-08-16T15:11:35Z</time>
      </trkpt>
      <trkpt lat="42.0338850" lon="-6.9097620">
        <ele>1030.2</ele>
        <time>2019-08-16T15:11:36Z</time>
      </trkpt>
      <trkpt lat="42.0338510" lon="-6.9098060">
        <ele>1030.0</ele>
        <time>2019-08-16T15:11:37Z</time>
      </trkpt>
      <trkpt lat="42.0338180" lon="-6.9098500">
        <ele>1029.9</ele>
        <time>2019-08-16T15:11:38Z</time>
      </trkpt>
      <trkpt lat="42.0337850" lon="-6.9098950">
        <ele>1029.8</ele>
        <time>2019-08-16T15:11:39Z</time>
      </trkpt>
      <trkpt lat="42.0337540" lon="-6.9099400">
        <ele>1029.7</ele>
        <time>2019-08-16T15:11:40Z</time>
      </trkpt>
      <trkpt lat="42.0337230" lon="-6.9099870">
        <ele>1029.6</ele>
        <time>2019-08-16T15:11:41Z</time>
      </trkpt>
      <trkpt lat="42.0336930" lon="-6.9100380">
        <ele>1028.7</ele>
        <time>2019-08-16T15:11:42Z</time>
      </trkpt>
      <trkpt lat="42.0336650" lon="-6.9100900">
        <ele>1028.2</ele>
        <time>2019-08-16T15:11:43Z</time>
      </trkpt>
      <trkpt lat="42.0336390" lon="-6.9101470">
        <ele>1027.7</ele>
        <time>2019-08-16T15:11:44Z</time>
      </trkpt>
      <trkpt lat="42.0336140" lon="-6.9102060">
        <ele>1027.2</ele>
        <time>2019-08-16T15:11:45Z</time>
      </trkpt>
      <trkpt lat="42.0335910" lon="-6.9102700">
        <ele>1026.7</ele>
        <time>2019-08-16T15:11:46Z</time>
      </trkpt>
      <trkpt lat="42.0335730" lon="-6.9103370">
        <ele>1026.2</ele>
        <time>2019-08-16T15:11:47Z</time>
      </trkpt>
      <trkpt lat="42.0335610" lon="-6.9104060">
        <ele>1025.7</ele>
        <time>2019-08-16T15:11:48Z</time>
      </trkpt>
      <trkpt lat="42.0335530" lon="-6.9104790">
        <ele>1025.6</ele>
        <time>2019-08-16T15:11:49Z</time>
      </trkpt>
      <trkpt lat="42.0335520" lon="-6.9105510">
        <ele>1025.6</ele>
        <time>2019-08-16T15:11:50Z</time>
      </trkpt>
      <trkpt lat="42.0335540" lon="-6.9106210">
        <ele>1025.5</ele>
        <time>2019-08-16T15:11:51Z</time>
      </trkpt>
      <trkpt lat="42.0335570" lon="-6.9106910">
        <ele>1025.4</ele>
        <time>2019-08-16T15:11:52Z</time>
      </trkpt>
      <trkpt lat="42.0335650" lon="-6.9107610">
        <ele>1025.3</ele>
        <time>2019-08-16T15:11:53Z</time>
      </trkpt>
      <trkpt lat="42.0335750" lon="-6.9108280">
        <ele>1025.2</ele>
        <time>2019-08-16T15:11:54Z</time>
      </trkpt>
      <trkpt lat="42.0335870" lon="-6.9108850">
        <ele>1025.1</ele>
        <time>2019-08-16T15:11:55Z</time>
      </trkpt>
      <trkpt lat="42.0336000" lon="-6.9109430">
        <ele>1025.0</ele>
        <time>2019-08-16T15:11:56Z</time>
      </trkpt>
      <trkpt lat="42.0336180" lon="-6.9110010">
        <ele>1024.9</ele>
        <time>2019-08-16T15:11:57Z</time>
      </trkpt>
      <trkpt lat="42.0336380" lon="-6.9110610">
        <ele>1024.8</ele>
        <time>2019-08-16T15:11:58Z</time>
      </trkpt>
      <trkpt lat="42.0336580" lon="-6.9111210">
        <ele>1024.7</ele>
        <time>2019-08-16T15:11:59Z</time>
      </trkpt>
      <trkpt lat="42.0336770" lon="-6.9111820">
        <ele>1024.6</ele>
        <time>2019-08-16T15:12:00Z</time>
      </trkpt>
      <trkpt lat="42.0336950" lon="-6.9112420">
        <ele>1024.5</ele>
        <time>2019-08-16T15:12:01Z</time>
      </trkpt>
      <trkpt lat="42.0337160" lon="-6.9112990">
        <ele>1024.4</ele>
        <time>2019-08-16T15:12:02Z</time>
      </trkpt>
      <trkpt lat="42.0337430" lon="-6.9113540">
        <ele>1024.3</ele>
        <time>2019-08-16T15:12:03Z</time>
      </trkpt>
      <trkpt lat="42.0337710" lon="-6.9114110">
        <ele>1024.2</ele>
        <time>2019-08-16T15:12:04Z</time>
      </trkpt>
      <trkpt lat="42.0337910" lon="-6.9114730">
        <ele>1024.1</ele>
        <time>2019-08-16T15:12:05Z</time>
      </trkpt>
      <trkpt lat="42.0338140" lon="-6.9115360">
        <ele>1024.0</ele>
        <time>2019-08-16T15:12:06Z</time>
      </trkpt>
      <trkpt lat="42.0338360" lon="-6.9115990">
        <ele>1023.8</ele>
        <time>2019-08-16T15:12:07Z</time>
      </trkpt>
      <trkpt lat="42.0338580" lon="-6.9116590">
        <ele>1023.7</ele>
        <time>2019-08-16T15:12:08Z</time>
      </trkpt>
      <trkpt lat="42.0338830" lon="-6.9117190">
        <ele>1023.6</ele>
        <time>2019-08-16T15:12:09Z</time>
      </trkpt>
      <trkpt lat="42.0339060" lon="-6.9117800">
        <ele>1023.5</ele>
        <time>2019-08-16T15:12:10Z</time>
      </trkpt>
      <trkpt lat="42.0339310" lon="-6.9118380">
        <ele>1023.4</ele>
        <time>2019-08-16T15:12:11Z</time>
      </trkpt>
      <trkpt lat="42.0339540" lon="-6.9118960">
        <ele>1023.3</ele>
        <time>2019-08-16T15:12:12Z</time>
      </trkpt>
      <trkpt lat="42.0339760" lon="-6.9119540">
        <ele>1023.2</ele>
        <time>2019-08-16T15:12:13Z</time>
      </trkpt>
      <trkpt lat="42.0339940" lon="-6.9120180">
        <ele>1023.1</ele>
        <time>2019-08-16T15:12:14Z</time>
      </trkpt>
      <trkpt lat="42.0340080" lon="-6.9120860">
        <ele>1023.0</ele>
        <time>2019-08-16T15:12:15Z</time>
      </trkpt>
      <trkpt lat="42.0340250" lon="-6.9121580">
        <ele>1022.9</ele>
        <time>2019-08-16T15:12:16Z</time>
      </trkpt>
      <trkpt lat="42.0340430" lon="-6.9122230">
        <ele>1022.8</ele>
        <time>2019-08-16T15:12:17Z</time>
      </trkpt>
      <trkpt lat="42.0340520" lon="-6.9122930">
        <ele>1022.7</ele>
        <time>2019-08-16T15:12:18Z</time>
      </trkpt>
      <trkpt lat="42.0340670" lon="-6.9123660">
        <ele>1022.5</ele>
        <time>2019-08-16T15:12:19Z</time>
      </trkpt>
      <trkpt lat="42.0340780" lon="-6.9124400">
        <ele>1022.4</ele>
        <time>2019-08-16T15:12:20Z</time>
      </trkpt>
      <trkpt lat="42.0340930" lon="-6.9125150">
        <ele>1022.2</ele>
        <time>2019-08-16T15:12:21Z</time>
      </trkpt>
      <trkpt lat="42.0341090" lon="-6.9125980">
        <ele>1022.1</ele>
        <time>2019-08-16T15:12:22Z</time>
      </trkpt>
      <trkpt lat="42.0341270" lon="-6.9126770">
        <ele>1022.0</ele>
        <time>2019-08-16T15:12:23Z</time>
      </trkpt>
      <trkpt lat="42.0341400" lon="-6.9127590">
        <ele>1021.9</ele>
        <time>2019-08-16T15:12:24Z</time>
      </trkpt>
      <trkpt lat="42.0341530" lon="-6.9128430">
        <ele>1021.8</ele>
        <time>2019-08-16T15:12:25Z</time>
      </trkpt>
      <trkpt lat="42.0341670" lon="-6.9129280">
        <ele>1021.7</ele>
        <time>2019-08-16T15:12:26Z</time>
      </trkpt>
      <trkpt lat="42.0341800" lon="-6.9130140">
        <ele>1021.5</ele>
        <time>2019-08-16T15:12:27Z</time>
      </trkpt>
      <trkpt lat="42.0341960" lon="-6.9130920">
        <ele>1021.4</ele>
        <time>2019-08-16T15:12:28Z</time>
      </trkpt>
      <trkpt lat="42.0342100" lon="-6.9131740">
        <ele>1021.3</ele>
        <time>2019-08-16T15:12:29Z</time>
      </trkpt>
      <trkpt lat="42.0342150" lon="-6.9132540">
        <ele>1021.2</ele>
        <time>2019-08-16T15:12:30Z</time>
      </trkpt>
      <trkpt lat="42.0342070" lon="-6.9133320">
        <ele>1021.1</ele>
        <time>2019-08-16T15:12:31Z</time>
      </trkpt>
      <trkpt lat="42.0342030" lon="-6.9134130">
        <ele>1021.0</ele>
        <time>2019-08-16T15:12:32Z</time>
      </trkpt>
      <trkpt lat="42.0341880" lon="-6.9134950">
        <ele>1020.9</ele>
        <time>2019-08-16T15:12:33Z</time>
      </trkpt>
      <trkpt lat="42.0341730" lon="-6.9135730">
        <ele>1020.8</ele>
        <time>2019-08-16T15:12:34Z</time>
      </trkpt>
      <trkpt lat="42.0341550" lon="-6.9136500">
        <ele>1020.7</ele>
        <time>2019-08-16T15:12:35Z</time>
      </trkpt>
      <trkpt lat="42.0341320" lon="-6.9137280">
        <ele>1020.7</ele>
        <time>2019-08-16T15:12:36Z</time>
      </trkpt>
      <trkpt lat="42.0341100" lon="-6.9138040">
        <ele>1020.6</ele>
        <time>2019-08-16T15:12:37Z</time>
      </trkpt>
      <trkpt lat="42.0340910" lon="-6.9138800">
        <ele>1020.5</ele>
        <time>2019-08-16T15:12:38Z</time>
      </trkpt>
      <trkpt lat="42.0340720" lon="-6.9139580">
        <ele>1020.3</ele>
        <time>2019-08-16T15:12:39Z</time>
      </trkpt>
      <trkpt lat="42.0340560" lon="-6.9140370">
        <ele>1020.2</ele>
        <time>2019-08-16T15:12:40Z</time>
      </trkpt>
      <trkpt lat="42.0340420" lon="-6.9141160">
        <ele>1020.1</ele>
        <time>2019-08-16T15:12:41Z</time>
      </trkpt>
      <trkpt lat="42.0340320" lon="-6.9141970">
        <ele>1020.0</ele>
        <time>2019-08-16T15:12:42Z</time>
      </trkpt>
      <trkpt lat="42.0340230" lon="-6.9142780">
        <ele>1020.0</ele>
        <time>2019-08-16T15:12:43Z</time>
      </trkpt>
      <trkpt lat="42.0340150" lon="-6.9143580">
        <ele>1019.9</ele>
        <time>2019-08-16T15:12:44Z</time>
      </trkpt>
      <trkpt lat="42.0340080" lon="-6.9144380">
        <ele>1019.8</ele>
        <time>2019-08-16T15:12:45Z</time>
      </trkpt>
      <trkpt lat="42.0340010" lon="-6.9145180">
        <ele>1019.6</ele>
        <time>2019-08-16T15:12:46Z</time>
      </trkpt>
      <trkpt lat="42.0339950" lon="-6.9145960">
        <ele>1019.5</ele>
        <time>2019-08-16T15:12:47Z</time>
      </trkpt>
      <trkpt lat="42.0339900" lon="-6.9146720">
        <ele>1019.4</ele>
        <time>2019-08-16T15:12:48Z</time>
      </trkpt>
      <trkpt lat="42.0339860" lon="-6.9147490">
        <ele>1019.3</ele>
        <time>2019-08-16T15:12:49Z</time>
      </trkpt>
      <trkpt lat="42.0339850" lon="-6.9148240">
        <ele>1019.2</ele>
        <time>2019-08-16T15:12:50Z</time>
      </trkpt>
      <trkpt lat="42.0339830" lon="-6.9148990">
        <ele>1019.1</ele>
        <time>2019-08-16T15:12:51Z</time>
      </trkpt>
      <trkpt lat="42.0339830" lon="-6.9149730">
        <ele>1019.0</ele>
        <time>2019-08-16T15:12:52Z</time>
      </trkpt>
      <trkpt lat="42.0339840" lon="-6.9150470">
        <ele>1018.9</ele>
        <time>2019-08-16T15:12:53Z</time>
      </trkpt>
      <trkpt lat="42.0339840" lon="-6.9151240">
        <ele>1018.9</ele>
        <time>2019-08-16T15:12:54Z</time>
      </trkpt>
      <trkpt lat="42.0339870" lon="-6.9152040">
        <ele>1018.8</ele>
        <time>2019-08-16T15:12:55Z</time>
      </trkpt>
      <trkpt lat="42.0339910" lon="-6.9152840">
        <ele>1018.7</ele>
        <time>2019-08-16T15:12:56Z</time>
      </trkpt>
      <trkpt lat="42.0339960" lon="-6.9153650">
        <ele>1018.5</ele>
        <time>2019-08-16T15:12:57Z</time>
      </trkpt>
      <trkpt lat="42.0340050" lon="-6.9154450">
        <ele>1018.4</ele>
        <time>2019-08-16T15:12:58Z</time>
      </trkpt>
      <trkpt lat="42.0340160" lon="-6.9155240">
        <ele>1018.3</ele>
        <time>2019-08-16T15:12:59Z</time>
      </trkpt>
      <trkpt lat="42.0340290" lon="-6.9156040">
        <ele>1018.1</ele>
        <time>2019-08-16T15:13:00Z</time>
      </trkpt>
      <trkpt lat="42.0340440" lon="-6.9156830">
        <ele>1018.0</ele>
        <time>2019-08-16T15:13:01Z</time>
      </trkpt>
      <trkpt lat="42.0340630" lon="-6.9157600">
        <ele>1017.8</ele>
        <time>2019-08-16T15:13:02Z</time>
      </trkpt>
      <trkpt lat="42.0340850" lon="-6.9158330">
        <ele>1017.7</ele>
        <time>2019-08-16T15:13:03Z</time>
      </trkpt>
      <trkpt lat="42.0341060" lon="-6.9159060">
        <ele>1017.6</ele>
        <time>2019-08-16T15:13:04Z</time>
      </trkpt>
      <trkpt lat="42.0341270" lon="-6.9159800">
        <ele>1017.5</ele>
        <time>2019-08-16T15:13:05Z</time>
      </trkpt>
      <trkpt lat="42.0341490" lon="-6.9160560">
        <ele>1017.4</ele>
        <time>2019-08-16T15:13:06Z</time>
      </trkpt>
      <trkpt lat="42.0341720" lon="-6.9161330">
        <ele>1017.2</ele>
        <time>2019-08-16T15:13:07Z</time>
      </trkpt>
      <trkpt lat="42.0341960" lon="-6.9162100">
        <ele>1017.0</ele>
        <time>2019-08-16T15:13:08Z</time>
      </trkpt>
      <trkpt lat="42.0342190" lon="-6.9162870">
        <ele>1016.9</ele>
        <time>2019-08-16T15:13:09Z</time>
      </trkpt>
      <trkpt lat="42.0342400" lon="-6.9163640">
        <ele>1016.8</ele>
        <time>2019-08-16T15:13:10Z</time>
      </trkpt>
      <trkpt lat="42.0342590" lon="-6.9164430">
        <ele>1016.7</ele>
        <time>2019-08-16T15:13:11Z</time>
      </trkpt>
      <trkpt lat="42.0342730" lon="-6.9165220">
        <ele>1016.6</ele>
        <time>2019-08-16T15:13:12Z</time>
      </trkpt>
      <trkpt lat="42.0342790" lon="-6.9166010">
        <ele>1016.4</ele>
        <time>2019-08-16T15:13:13Z</time>
      </trkpt>
      <trkpt lat="42.0342730" lon="-6.9166790">
        <ele>1016.3</ele>
        <time>2019-08-16T15:13:14Z</time>
      </trkpt>
      <trkpt lat="42.0342550" lon="-6.9167580">
        <ele>1016.2</ele>
        <time>2019-08-16T15:13:15Z</time>
      </trkpt>
      <trkpt lat="42.0342280" lon="-6.9168310">
        <ele>1016.1</ele>
        <time>2019-08-16T15:13:16Z</time>
      </trkpt>
      <trkpt lat="42.0341890" lon="-6.9168910">
        <ele>1016.1</ele>
        <time>2019-08-16T15:13:17Z</time>
      </trkpt>
      <trkpt lat="42.0341420" lon="-6.9169400">
        <ele>1016.0</ele>
        <time>2019-08-16T15:13:18Z</time>
      </trkpt>
      <trkpt lat="42.0340880" lon="-6.9169770">
        <ele>1015.9</ele>
        <time>2019-08-16T15:13:19Z</time>
      </trkpt>
      <trkpt lat="42.0340350" lon="-6.9170110">
        <ele>1015.9</ele>
        <time>2019-08-16T15:13:20Z</time>
      </trkpt>
      <trkpt lat="42.0339840" lon="-6.9170450">
        <ele>1015.8</ele>
        <time>2019-08-16T15:13:21Z</time>
      </trkpt>
      <trkpt lat="42.0339320" lon="-6.9170780">
        <ele>1015.4</ele>
        <time>2019-08-16T15:13:22Z</time>
      </trkpt>
      <trkpt lat="42.0338840" lon="-6.9171180">
        <ele>1015.1</ele>
        <time>2019-08-16T15:13:23Z</time>
      </trkpt>
      <trkpt lat="42.0338400" lon="-6.9171690">
        <ele>1014.8</ele>
        <time>2019-08-16T15:13:24Z</time>
      </trkpt>
      <trkpt lat="42.0338020" lon="-6.9172300">
        <ele>1014.4</ele>
        <time>2019-08-16T15:13:25Z</time>
      </trkpt>
      <trkpt lat="42.0337710" lon="-6.9173000">
        <ele>1014.1</ele>
        <time>2019-08-16T15:13:26Z</time>
      </trkpt>
      <trkpt lat="42.0337500" lon="-6.9173780">
        <ele>1013.8</ele>
        <time>2019-08-16T15:13:27Z</time>
      </trkpt>
      <trkpt lat="42.0337400" lon="-6.9174600">
        <ele>1013.6</ele>
        <time>2019-08-16T15:13:28Z</time>
      </trkpt>
      <trkpt lat="42.0337380" lon="-6.9175440">
        <ele>1013.3</ele>
        <time>2019-08-16T15:13:29Z</time>
      </trkpt>
      <trkpt lat="42.0337440" lon="-6.9176280">
        <ele>1013.0</ele>
        <time>2019-08-16T15:13:30Z</time>
      </trkpt>
      <trkpt lat="42.0337520" lon="-6.9177130">
        <ele>1012.7</ele>
        <time>2019-08-16T15:13:31Z</time>
      </trkpt>
      <trkpt lat="42.0337640" lon="-6.9177990">
        <ele>1012.4</ele>
        <time>2019-08-16T15:13:32Z</time>
      </trkpt>
      <trkpt lat="42.0337760" lon="-6.9178850">
        <ele>1012.0</ele>
        <time>2019-08-16T15:13:33Z</time>
      </trkpt>
      <trkpt lat="42.0337860" lon="-6.9179720">
        <ele>1011.7</ele>
        <time>2019-08-16T15:13:34Z</time>
      </trkpt>
      <trkpt lat="42.0337940" lon="-6.9180600">
        <ele>1011.3</ele>
        <time>2019-08-16T15:13:35Z</time>
      </trkpt>
      <trkpt lat="42.0337980" lon="-6.9181520">
        <ele>1011.0</ele>
        <time>2019-08-16T15:13:36Z</time>
      </trkpt>
      <trkpt lat="42.0337970" lon="-6.9182450">
        <ele>1010.7</ele>
        <time>2019-08-16T15:13:37Z</time>
      </trkpt>
      <trkpt lat="42.0337930" lon="-6.9183390">
        <ele>1010.4</ele>
        <time>2019-08-16T15:13:38Z</time>
      </trkpt>
      <trkpt lat="42.0337870" lon="-6.9184340">
        <ele>1010.0</ele>
        <time>2019-08-16T15:13:39Z</time>
      </trkpt>
      <trkpt lat="42.0337770" lon="-6.9185300">
        <ele>1009.7</ele>
        <time>2019-08-16T15:13:40Z</time>
      </trkpt>
      <trkpt lat="42.0337630" lon="-6.9186240">
        <ele>1009.5</ele>
        <time>2019-08-16T15:13:41Z</time>
      </trkpt>
      <trkpt lat="42.0337520" lon="-6.9187160">
        <ele>1009.2</ele>
        <time>2019-08-16T15:13:42Z</time>
      </trkpt>
      <trkpt lat="42.0337430" lon="-6.9188120">
        <ele>1008.9</ele>
        <time>2019-08-16T15:13:43Z</time>
      </trkpt>
      <trkpt lat="42.0337350" lon="-6.9189090">
        <ele>1008.5</ele>
        <time>2019-08-16T15:13:44Z</time>
      </trkpt>
      <trkpt lat="42.0337330" lon="-6.9190090">
        <ele>1008.2</ele>
        <time>2019-08-16T15:13:45Z</time>
      </trkpt>
      <trkpt lat="42.0337410" lon="-6.9191100">
        <ele>1007.9</ele>
        <time>2019-08-16T15:13:46Z</time>
      </trkpt>
      <trkpt lat="42.0337590" lon="-6.9192080">
        <ele>1007.7</ele>
        <time>2019-08-16T15:13:47Z</time>
      </trkpt>
      <trkpt lat="42.0337900" lon="-6.9193030">
        <ele>1007.5</ele>
        <time>2019-08-16T15:13:48Z</time>
      </trkpt>
      <trkpt lat="42.0338310" lon="-6.9193880">
        <ele>1007.2</ele>
        <time>2019-08-16T15:13:49Z</time>
      </trkpt>
      <trkpt lat="42.0338830" lon="-6.9194610">
        <ele>1006.9</ele>
        <time>2019-08-16T15:13:50Z</time>
      </trkpt>
      <trkpt lat="42.0339460" lon="-6.9195140">
        <ele>1006.7</ele>
        <time>2019-08-16T15:13:51Z</time>
      </trkpt>
      <trkpt lat="42.0340170" lon="-6.9195430">
        <ele>1006.4</ele>
        <time>2019-08-16T15:13:52Z</time>
      </trkpt>
      <trkpt lat="42.0340920" lon="-6.9195510">
        <ele>1006.2</ele>
        <time>2019-08-16T15:13:53Z</time>
      </trkpt>
      <trkpt lat="42.0341660" lon="-6.9195470">
        <ele>1005.9</ele>
        <time>2019-08-16T15:13:54Z</time>
      </trkpt>
      <trkpt lat="42.0342410" lon="-6.9195370">
        <ele>1005.5</ele>
        <time>2019-08-16T15:13:55Z</time>
      </trkpt>
      <trkpt lat="42.0343150" lon="-6.9195270">
        <ele>1005.0</ele>
        <time>2019-08-16T15:13:56Z</time>
      </trkpt>
      <trkpt lat="42.0343870" lon="-6.9195200">
        <ele>1004.4</ele>
        <time>2019-08-16T15:13:57Z</time>
      </trkpt>
      <trkpt lat="42.0344590" lon="-6.9195170">
        <ele>1003.8</ele>
        <time>2019-08-16T15:13:58Z</time>
      </trkpt>
      <trkpt lat="42.0345310" lon="-6.9195140">
        <ele>1003.4</ele>
        <time>2019-08-16T15:13:59Z</time>
      </trkpt>
      <trkpt lat="42.0346010" lon="-6.9195180">
        <ele>1003.2</ele>
        <time>2019-08-16T15:14:00Z</time>
      </trkpt>
      <trkpt lat="42.0346720" lon="-6.9195260">
        <ele>1003.0</ele>
        <time>2019-08-16T15:14:01Z</time>
      </trkpt>
      <trkpt lat="42.0347400" lon="-6.9195430">
        <ele>1002.9</ele>
        <time>2019-08-16T15:14:02Z</time>
      </trkpt>
      <trkpt lat="42.0348110" lon="-6.9195690">
        <ele>1002.6</ele>
        <time>2019-08-16T15:14:03Z</time>
      </trkpt>
      <trkpt lat="42.0348790" lon="-6.9196010">
        <ele>1002.3</ele>
        <time>2019-08-16T15:14:04Z</time>
      </trkpt>
      <trkpt lat="42.0349460" lon="-6.9196400">
        <ele>1001.9</ele>
        <time>2019-08-16T15:14:05Z</time>
      </trkpt>
      <trkpt lat="42.0350130" lon="-6.9196820">
        <ele>1001.6</ele>
        <time>2019-08-16T15:14:06Z</time>
      </trkpt>
      <trkpt lat="42.0350800" lon="-6.9197200">
        <ele>1001.3</ele>
        <time>2019-08-16T15:14:07Z</time>
      </trkpt>
      <trkpt lat="42.0351470" lon="-6.9197570">
        <ele>1000.8</ele>
        <time>2019-08-16T15:14:08Z</time>
      </trkpt>
      <trkpt lat="42.0352150" lon="-6.9197890">
        <ele>1000.4</ele>
        <time>2019-08-16T15:14:09Z</time>
      </trkpt>
      <trkpt lat="42.0352830" lon="-6.9198090">
        <ele>1000.0</ele>
        <time>2019-08-16T15:14:10Z</time>
      </trkpt>
      <trkpt lat="42.0353540" lon="-6.9198130">
        <ele>999.5</ele>
        <time>2019-08-16T15:14:11Z</time>
      </trkpt>
      <trkpt lat="42.0354220" lon="-6.9198010">
        <ele>999.2</ele>
        <time>2019-08-16T15:14:12Z</time>
      </trkpt>
      <trkpt lat="42.0354880" lon="-6.9197720">
        <ele>998.7</ele>
        <time>2019-08-16T15:14:13Z</time>
      </trkpt>
      <trkpt lat="42.0355500" lon="-6.9197290">
        <ele>998.3</ele>
        <time>2019-08-16T15:14:14Z</time>
      </trkpt>
      <trkpt lat="42.0356070" lon="-6.9196740">
        <ele>998.0</ele>
        <time>2019-08-16T15:14:15Z</time>
      </trkpt>
      <trkpt lat="42.0356600" lon="-6.9196140">
        <ele>997.6</ele>
        <time>2019-08-16T15:14:16Z</time>
      </trkpt>
      <trkpt lat="42.0357120" lon="-6.9195540">
        <ele>997.2</ele>
        <time>2019-08-16T15:14:17Z</time>
      </trkpt>
      <trkpt lat="42.0357630" lon="-6.9194970">
        <ele>997.0</ele>
        <time>2019-08-16T15:14:18Z</time>
      </trkpt>
      <trkpt lat="42.0358160" lon="-6.9194470">
        <ele>996.9</ele>
        <time>2019-08-16T15:14:19Z</time>
      </trkpt>
      <trkpt lat="42.0358700" lon="-6.9194000">
        <ele>996.7</ele>
        <time>2019-08-16T15:14:20Z</time>
      </trkpt>
      <trkpt lat="42.0359260" lon="-6.9193580">
        <ele>996.6</ele>
        <time>2019-08-16T15:14:21Z</time>
      </trkpt>
      <trkpt lat="42.0359840" lon="-6.9193180">
        <ele>996.6</ele>
        <time>2019-08-16T15:14:22Z</time>
      </trkpt>
      <trkpt lat="42.0360430" lon="-6.9192790">
        <ele>996.5</ele>
        <time>2019-08-16T15:14:23Z</time>
      </trkpt>
      <trkpt lat="42.0361030" lon="-6.9192410">
        <ele>996.3</ele>
        <time>2019-08-16T15:14:24Z</time>
      </trkpt>
      <trkpt lat="42.0361620" lon="-6.9192040">
        <ele>996.0</ele>
        <time>2019-08-16T15:14:25Z</time>
      </trkpt>
      <trkpt lat="42.0362220" lon="-6.9191670">
        <ele>995.7</ele>
        <time>2019-08-16T15:14:26Z</time>
      </trkpt>
      <trkpt lat="42.0362820" lon="-6.9191290">
        <ele>995.4</ele>
        <time>2019-08-16T15:14:27Z</time>
      </trkpt>
      <trkpt lat="42.0363430" lon="-6.9190920">
        <ele>995.1</ele>
        <time>2019-08-16T15:14:28Z</time>
      </trkpt>
      <trkpt lat="42.0364040" lon="-6.9190550">
        <ele>994.8</ele>
        <time>2019-08-16T15:14:29Z</time>
      </trkpt>
      <trkpt lat="42.0364680" lon="-6.9190190">
        <ele>994.5</ele>
        <time>2019-08-16T15:14:30Z</time>
      </trkpt>
      <trkpt lat="42.0365320" lon="-6.9189870">
        <ele>994.1</ele>
        <time>2019-08-16T15:14:31Z</time>
      </trkpt>
      <trkpt lat="42.0365990" lon="-6.9189600">
        <ele>993.7</ele>
        <time>2019-08-16T15:14:32Z</time>
      </trkpt>
      <trkpt lat="42.0366690" lon="-6.9189450">
        <ele>993.3</ele>
        <time>2019-08-16T15:14:33Z</time>
      </trkpt>
      <trkpt lat="42.0367410" lon="-6.9189440">
        <ele>992.9</ele>
        <time>2019-08-16T15:14:34Z</time>
      </trkpt>
      <trkpt lat="42.0368140" lon="-6.9189530">
        <ele>992.4</ele>
        <time>2019-08-16T15:14:35Z</time>
      </trkpt>
      <trkpt lat="42.0368890" lon="-6.9189700">
        <ele>992.0</ele>
        <time>2019-08-16T15:14:36Z</time>
      </trkpt>
      <trkpt lat="42.0369620" lon="-6.9189940">
        <ele>991.6</ele>
        <time>2019-08-16T15:14:37Z</time>
      </trkpt>
      <trkpt lat="42.0370350" lon="-6.9190230">
        <ele>991.1</ele>
        <time>2019-08-16T15:14:38Z</time>
      </trkpt>
      <trkpt lat="42.0371080" lon="-6.9190550">
        <ele>990.7</ele>
        <time>2019-08-16T15:14:39Z</time>
      </trkpt>
      <trkpt lat="42.0371790" lon="-6.9190880">
        <ele>990.4</ele>
        <time>2019-08-16T15:14:40Z</time>
      </trkpt>
      <trkpt lat="42.0372490" lon="-6.9191210">
        <ele>990.1</ele>
        <time>2019-08-16T15:14:41Z</time>
      </trkpt>
      <trkpt lat="42.0373200" lon="-6.9191550">
        <ele>989.7</ele>
        <time>2019-08-16T15:14:42Z</time>
      </trkpt>
      <trkpt lat="42.0373900" lon="-6.9191890">
        <ele>989.3</ele>
        <time>2019-08-16T15:14:43Z</time>
      </trkpt>
      <trkpt lat="42.0374590" lon="-6.9192250">
        <ele>988.9</ele>
        <time>2019-08-16T15:14:44Z</time>
      </trkpt>
      <trkpt lat="42.0375270" lon="-6.9192600">
        <ele>988.7</ele>
        <time>2019-08-16T15:14:45Z</time>
      </trkpt>
      <trkpt lat="42.0375940" lon="-6.9192950">
        <ele>988.6</ele>
        <time>2019-08-16T15:14:46Z</time>
      </trkpt>
      <trkpt lat="42.0376600" lon="-6.9193310">
        <ele>988.5</ele>
        <time>2019-08-16T15:14:47Z</time>
      </trkpt>
      <trkpt lat="42.0377260" lon="-6.9193680">
        <ele>988.2</ele>
        <time>2019-08-16T15:14:48Z</time>
      </trkpt>
      <trkpt lat="42.0377940" lon="-6.9194090">
        <ele>987.9</ele>
        <time>2019-08-16T15:14:49Z</time>
      </trkpt>
      <trkpt lat="42.0378630" lon="-6.9194520">
        <ele>987.6</ele>
        <time>2019-08-16T15:14:50Z</time>
      </trkpt>
      <trkpt lat="42.0379340" lon="-6.9194960">
        <ele>987.3</ele>
        <time>2019-08-16T15:14:51Z</time>
      </trkpt>
      <trkpt lat="42.0380020" lon="-6.9195440">
        <ele>987.0</ele>
        <time>2019-08-16T15:14:52Z</time>
      </trkpt>
      <trkpt lat="42.0380680" lon="-6.9195970">
        <ele>989.2</ele>
        <time>2019-08-16T15:14:53Z</time>
      </trkpt>
      <trkpt lat="42.0381310" lon="-6.9196520">
        <ele>991.2</ele>
        <time>2019-08-16T15:14:54Z</time>
      </trkpt>
      <trkpt lat="42.0381930" lon="-6.9197060">
        <ele>992.9</ele>
        <time>2019-08-16T15:14:55Z</time>
      </trkpt>
      <trkpt lat="42.0382550" lon="-6.9197630">
        <ele>994.5</ele>
        <time>2019-08-16T15:14:56Z</time>
      </trkpt>
      <trkpt lat="42.0383180" lon="-6.9198180">
        <ele>996.3</ele>
        <time>2019-08-16T15:14:57Z</time>
      </trkpt>
      <trkpt lat="42.0383820" lon="-6.9198750">
        <ele>998.6</ele>
        <time>2019-08-16T15:14:58Z</time>
      </trkpt>
      <trkpt lat="42.0384480" lon="-6.9199290">
        <ele>1000.6</ele>
        <time>2019-08-16T15:14:59Z</time>
      </trkpt>
      <trkpt lat="42.0385170" lon="-6.9199790">
        <ele>1002.4</ele>
        <time>2019-08-16T15:15:00Z</time>
      </trkpt>
      <trkpt lat="42.0385840" lon="-6.9200280">
        <ele>1004.4</ele>
        <time>2019-08-16T15:15:01Z</time>
      </trkpt>
      <trkpt lat="42.0386500" lon="-6.9200740">
        <ele>1006.6</ele>
        <time>2019-08-16T15:15:02Z</time>
      </trkpt>
      <trkpt lat="42.0387130" lon="-6.9201160">
        <ele>1008.5</ele>
        <time>2019-08-16T15:15:03Z</time>
      </trkpt>
      <trkpt lat="42.0387730" lon="-6.9201570">
        <ele>1010.3</ele>
        <time>2019-08-16T15:15:04Z</time>
      </trkpt>
      <trkpt lat="42.0388300" lon="-6.9201970">
        <ele>1012.0</ele>
        <time>2019-08-16T15:15:05Z</time>
      </trkpt>
      <trkpt lat="42.0388810" lon="-6.9202430">
        <ele>1014.0</ele>
        <time>2019-08-16T15:15:06Z</time>
      </trkpt>
      <trkpt lat="42.0389270" lon="-6.9202970">
        <ele>1015.1</ele>
        <time>2019-08-16T15:15:07Z</time>
      </trkpt>
      <trkpt lat="42.0389620" lon="-6.9203580">
        <ele>1015.4</ele>
        <time>2019-08-16T15:15:08Z</time>
      </trkpt>
      <trkpt lat="42.0389850" lon="-6.9204160">
        <ele>1015.2</ele>
        <time>2019-08-16T15:15:09Z</time>
      </trkpt>
      <trkpt lat="42.0389940" lon="-6.9204590">
        <ele>1015.1</ele>
        <time>2019-08-16T15:15:10Z</time>
      </trkpt>
      <trkpt lat="42.0389970" lon="-6.9204800">
        <ele>1015.0</ele>
        <time>2019-08-16T15:15:11Z</time>
      </trkpt>
      <trkpt lat="42.0390050" lon="-6.9204680">
        <ele>1015.0</ele>
        <time>2019-08-16T15:15:16Z</time>
      </trkpt>
      <trkpt lat="42.0389970" lon="-6.9204150">
        <ele>1014.8</ele>
        <time>2019-08-16T15:15:19Z</time>
      </trkpt>
      <trkpt lat="42.0389890" lon="-6.9203740">
        <ele>1014.7</ele>
        <time>2019-08-16T15:15:22Z</time>
      </trkpt>
      <trkpt lat="42.0389850" lon="-6.9203550">
        <ele>1014.7</ele>
        <time>2019-08-16T15:15:27Z</time>
      </trkpt>
      <trkpt lat="42.0389940" lon="-6.9204390">
        <ele>1014.4</ele>
        <time>2019-08-16T15:19:03Z</time>
      </trkpt>
      <trkpt lat="42.0389950" lon="-6.9204780">
        <ele>1014.3</ele>
        <time>2019-08-16T15:19:04Z</time>
      </trkpt>
      <trkpt lat="42.0389930" lon="-6.9205200">
        <ele>1014.2</ele>
        <time>2019-08-16T15:19:05Z</time>
      </trkpt>
      <trkpt lat="42.0389870" lon="-6.9205580">
        <ele>1014.1</ele>
        <time>2019-08-16T15:19:06Z</time>
      </trkpt>
      <trkpt lat="42.0389720" lon="-6.9205950">
        <ele>1014.0</ele>
        <time>2019-08-16T15:19:07Z</time>
      </trkpt>
      <trkpt lat="42.0389520" lon="-6.9206230">
        <ele>1013.9</ele>
        <time>2019-08-16T15:19:08Z</time>
      </trkpt>
      <trkpt lat="42.0389290" lon="-6.9206500">
        <ele>1013.8</ele>
        <time>2019-08-16T15:19:09Z</time>
      </trkpt>
      <trkpt lat="42.0389060" lon="-6.9206720">
        <ele>1013.7</ele>
        <time>2019-08-16T15:19:10Z</time>
      </trkpt>
      <trkpt lat="42.0388820" lon="-6.9206910">
        <ele>1013.6</ele>
        <time>2019-08-16T15:19:11Z</time>
      </trkpt>
      <trkpt lat="42.0388600" lon="-6.9207070">
        <ele>1013.5</ele>
        <time>2019-08-16T15:19:12Z</time>
      </trkpt>
      <trkpt lat="42.0388100" lon="-6.9207320">
        <ele>1013.4</ele>
        <time>2019-08-16T15:19:14Z</time>
      </trkpt>
      <trkpt lat="42.0387830" lon="-6.9207430">
        <ele>1013.3</ele>
        <time>2019-08-16T15:19:15Z</time>
      </trkpt>
      <trkpt lat="42.0387550" lon="-6.9207540">
        <ele>1013.2</ele>
        <time>2019-08-16T15:19:16Z</time>
      </trkpt>
      <trkpt lat="42.0387270" lon="-6.9207620">
        <ele>1013.1</ele>
        <time>2019-08-16T15:19:17Z</time>
      </trkpt>
      <trkpt lat="42.0386990" lon="-6.9207670">
        <ele>1013.0</ele>
        <time>2019-08-16T15:19:18Z</time>
      </trkpt>
      <trkpt lat="42.0386710" lon="-6.9207680">
        <ele>1012.9</ele>
        <time>2019-08-16T15:19:19Z</time>
      </trkpt>
      <trkpt lat="42.0386430" lon="-6.9207650">
        <ele>1012.8</ele>
        <time>2019-08-16T15:19:20Z</time>
      </trkpt>
      <trkpt lat="42.0386160" lon="-6.9207550">
        <ele>1012.8</ele>
        <time>2019-08-16T15:19:21Z</time>
      </trkpt>
      <trkpt lat="42.0385880" lon="-6.9207470">
        <ele>1012.7</ele>
        <time>2019-08-16T15:19:22Z</time>
      </trkpt>
      <trkpt lat="42.0385600" lon="-6.9207410">
        <ele>1012.6</ele>
        <time>2019-08-16T15:19:23Z</time>
      </trkpt>
      <trkpt lat="42.0385330" lon="-6.9207380">
        <ele>1012.6</ele>
        <time>2019-08-16T15:19:24Z</time>
      </trkpt>
      <trkpt lat="42.0384820" lon="-6.9207230">
        <ele>1012.5</ele>
        <time>2019-08-16T15:19:26Z</time>
      </trkpt>
      <trkpt lat="42.0384330" lon="-6.9206950">
        <ele>1012.4</ele>
        <time>2019-08-16T15:19:28Z</time>
      </trkpt>
      <trkpt lat="42.0383800" lon="-6.9206760">
        <ele>1012.4</ele>
        <time>2019-08-16T15:19:30Z</time>
      </trkpt>
      <trkpt lat="42.0383550" lon="-6.9206650">
        <ele>1012.4</ele>
        <time>2019-08-16T15:19:31Z</time>
      </trkpt>
      <trkpt lat="42.0383060" lon="-6.9206390">
        <ele>1012.4</ele>
        <time>2019-08-16T15:19:33Z</time>
      </trkpt>
      <trkpt lat="42.0382600" lon="-6.9206190">
        <ele>1012.4</ele>
        <time>2019-08-16T15:19:35Z</time>
      </trkpt>
      <trkpt lat="42.0382110" lon="-6.9206010">
        <ele>1012.5</ele>
        <time>2019-08-16T15:19:37Z</time>
      </trkpt>
      <trkpt lat="42.0381660" lon="-6.9205770">
        <ele>1012.5</ele>
        <time>2019-08-16T15:19:39Z</time>
      </trkpt>
      <trkpt lat="42.0381220" lon="-6.9205550">
        <ele>1012.5</ele>
        <time>2019-08-16T15:19:41Z</time>
      </trkpt>
      <trkpt lat="42.0380780" lon="-6.9205310">
        <ele>1012.5</ele>
        <time>2019-08-16T15:19:43Z</time>
      </trkpt>
      <trkpt lat="42.0380320" lon="-6.9205120">
        <ele>1012.6</ele>
        <time>2019-08-16T15:19:45Z</time>
      </trkpt>
      <trkpt lat="42.0379850" lon="-6.9204910">
        <ele>1012.6</ele>
        <time>2019-08-16T15:19:47Z</time>
      </trkpt>
      <trkpt lat="42.0379390" lon="-6.9204750">
        <ele>1012.6</ele>
        <time>2019-08-16T15:19:49Z</time>
      </trkpt>
      <trkpt lat="42.0378920" lon="-6.9204580">
        <ele>1012.6</ele>
        <time>2019-08-16T15:19:51Z</time>
      </trkpt>
      <trkpt lat="42.0378450" lon="-6.9204400">
        <ele>1012.7</ele>
        <time>2019-08-16T15:19:53Z</time>
      </trkpt>
      <trkpt lat="42.0377970" lon="-6.9204230">
        <ele>1012.7</ele>
        <time>2019-08-16T15:19:55Z</time>
      </trkpt>
      <trkpt lat="42.0377480" lon="-6.9204090">
        <ele>1012.7</ele>
        <time>2019-08-16T15:19:57Z</time>
      </trkpt>
      <trkpt lat="42.0377010" lon="-6.9203940">
        <ele>1012.7</ele>
        <time>2019-08-16T15:19:59Z</time>
      </trkpt>
      <trkpt lat="42.0376540" lon="-6.9203810">
        <ele>1012.7</ele>
        <time>2019-08-16T15:20:01Z</time>
      </trkpt>
      <trkpt lat="42.0376050" lon="-6.9203700">
        <ele>1012.8</ele>
        <time>2019-08-16T15:20:03Z</time>
      </trkpt>
      <trkpt lat="42.0375580" lon="-6.9203590">
        <ele>1012.8</ele>
        <time>2019-08-16T15:20:05Z</time>
      </trkpt>
      <trkpt lat="42.0375120" lon="-6.9203540">
        <ele>1012.8</ele>
        <time>2019-08-16T15:20:07Z</time>
      </trkpt>
      <trkpt lat="42.0374660" lon="-6.9203480">
        <ele>1012.8</ele>
        <time>2019-08-16T15:20:09Z</time>
      </trkpt>
      <trkpt lat="42.0374210" lon="-6.9203380">
        <ele>1012.8</ele>
        <time>2019-08-16T15:20:11Z</time>
      </trkpt>
      <trkpt lat="42.0373750" lon="-6.9203320">
        <ele>1012.8</ele>
        <time>2019-08-16T15:20:13Z</time>
      </trkpt>
      <trkpt lat="42.0373270" lon="-6.9203330">
        <ele>1012.9</ele>
        <time>2019-08-16T15:20:15Z</time>
      </trkpt>
      <trkpt lat="42.0372800" lon="-6.9203300">
        <ele>1012.9</ele>
        <time>2019-08-16T15:20:17Z</time>
      </trkpt>
      <trkpt lat="42.0372340" lon="-6.9203290">
        <ele>1012.9</ele>
        <time>2019-08-16T15:20:19Z</time>
      </trkpt>
      <trkpt lat="42.0371880" lon="-6.9203280">
        <ele>1012.9</ele>
        <time>2019-08-16T15:20:21Z</time>
      </trkpt>
      <trkpt lat="42.0371430" lon="-6.9203290">
        <ele>1013.0</ele>
        <time>2019-08-16T15:20:23Z</time>
      </trkpt>
      <trkpt lat="42.0370970" lon="-6.9203290">
        <ele>1013.0</ele>
        <time>2019-08-16T15:20:25Z</time>
      </trkpt>
      <trkpt lat="42.0370500" lon="-6.9203260">
        <ele>1013.0</ele>
        <time>2019-08-16T15:20:27Z</time>
      </trkpt>
      <trkpt lat="42.0370040" lon="-6.9203250">
        <ele>1013.1</ele>
        <time>2019-08-16T15:20:29Z</time>
      </trkpt>
      <trkpt lat="42.0369580" lon="-6.9203270">
        <ele>1013.1</ele>
        <time>2019-08-16T15:20:31Z</time>
      </trkpt>
      <trkpt lat="42.0369110" lon="-6.9203340">
        <ele>1013.1</ele>
        <time>2019-08-16T15:20:33Z</time>
      </trkpt>
      <trkpt lat="42.0368640" lon="-6.9203470">
        <ele>1013.1</ele>
        <time>2019-08-16T15:20:35Z</time>
      </trkpt>
      <trkpt lat="42.0368170" lon="-6.9203600">
        <ele>1013.1</ele>
        <time>2019-08-16T15:20:37Z</time>
      </trkpt>
      <trkpt lat="42.0367700" lon="-6.9203800">
        <ele>1013.0</ele>
        <time>2019-08-16T15:20:39Z</time>
      </trkpt>
      <trkpt lat="42.0367270" lon="-6.9204070">
        <ele>1012.9</ele>
        <time>2019-08-16T15:20:41Z</time>
      </trkpt>
      <trkpt lat="42.0366890" lon="-6.9204450">
        <ele>1012.8</ele>
        <time>2019-08-16T15:20:43Z</time>
      </trkpt>
      <trkpt lat="42.0366570" lon="-6.9204930">
        <ele>1012.7</ele>
        <time>2019-08-16T15:20:45Z</time>
      </trkpt>
      <trkpt lat="42.0366290" lon="-6.9205460">
        <ele>1012.6</ele>
        <time>2019-08-16T15:20:47Z</time>
      </trkpt>
      <trkpt lat="42.0366060" lon="-6.9206020">
        <ele>1012.6</ele>
        <time>2019-08-16T15:20:49Z</time>
      </trkpt>
      <trkpt lat="42.0365850" lon="-6.9206620">
        <ele>1012.5</ele>
        <time>2019-08-16T15:20:51Z</time>
      </trkpt>
      <trkpt lat="42.0365690" lon="-6.9207230">
        <ele>1012.5</ele>
        <time>2019-08-16T15:20:53Z</time>
      </trkpt>
      <trkpt lat="42.0365550" lon="-6.9207850">
        <ele>1012.5</ele>
        <time>2019-08-16T15:20:55Z</time>
      </trkpt>
      <trkpt lat="42.0365450" lon="-6.9208510">
        <ele>1012.5</ele>
        <time>2019-08-16T15:20:57Z</time>
      </trkpt>
      <trkpt lat="42.0365360" lon="-6.9209170">
        <ele>1012.5</ele>
        <time>2019-08-16T15:20:59Z</time>
      </trkpt>
      <trkpt lat="42.0365290" lon="-6.9209820">
        <ele>1012.6</ele>
        <time>2019-08-16T15:21:01Z</time>
      </trkpt>
      <trkpt lat="42.0365200" lon="-6.9210460">
        <ele>1012.7</ele>
        <time>2019-08-16T15:21:03Z</time>
      </trkpt>
      <trkpt lat="42.0365120" lon="-6.9211100">
        <ele>1012.8</ele>
        <time>2019-08-16T15:21:05Z</time>
      </trkpt>
      <trkpt lat="42.0365060" lon="-6.9211760">
        <ele>1012.9</ele>
        <time>2019-08-16T15:21:07Z</time>
      </trkpt>
      <trkpt lat="42.0364970" lon="-6.9212430">
        <ele>1013.0</ele>
        <time>2019-08-16T15:21:09Z</time>
      </trkpt>
      <trkpt lat="42.0364880" lon="-6.9213080">
        <ele>1013.1</ele>
        <time>2019-08-16T15:21:11Z</time>
      </trkpt>
      <trkpt lat="42.0364740" lon="-6.9213710">
        <ele>1013.2</ele>
        <time>2019-08-16T15:21:13Z</time>
      </trkpt>
      <trkpt lat="42.0364570" lon="-6.9214300">
        <ele>1013.3</ele>
        <time>2019-08-16T15:21:15Z</time>
      </trkpt>
      <trkpt lat="42.0364370" lon="-6.9214890">
        <ele>1013.4</ele>
        <time>2019-08-16T15:21:17Z</time>
      </trkpt>
      <trkpt lat="42.0364160" lon="-6.9215480">
        <ele>1013.5</ele>
        <time>2019-08-16T15:21:19Z</time>
      </trkpt>
      <trkpt lat="42.0363940" lon="-6.9216060">
        <ele>1013.5</ele>
        <time>2019-08-16T15:21:21Z</time>
      </trkpt>
      <trkpt lat="42.0363680" lon="-6.9216610">
        <ele>1013.6</ele>
        <time>2019-08-16T15:21:23Z</time>
      </trkpt>
      <trkpt lat="42.0363410" lon="-6.9217130">
        <ele>1013.8</ele>
        <time>2019-08-16T15:21:25Z</time>
      </trkpt>
      <trkpt lat="42.0363170" lon="-6.9217640">
        <ele>1013.9</ele>
        <time>2019-08-16T15:21:27Z</time>
      </trkpt>
      <trkpt lat="42.0362930" lon="-6.9218140">
        <ele>1014.0</ele>
        <time>2019-08-16T15:21:29Z</time>
      </trkpt>
      <trkpt lat="42.0362730" lon="-6.9218520">
        <ele>1014.0</ele>
        <time>2019-08-16T15:21:31Z</time>
      </trkpt>
      <trkpt lat="42.0362490" lon="-6.9218960">
        <ele>1014.1</ele>
        <time>2019-08-16T15:21:33Z</time>
      </trkpt>
      <trkpt lat="42.0362240" lon="-6.9219470">
        <ele>1014.2</ele>
        <time>2019-08-16T15:21:35Z</time>
      </trkpt>
      <trkpt lat="42.0362010" lon="-6.9219980">
        <ele>1014.3</ele>
        <time>2019-08-16T15:21:37Z</time>
      </trkpt>
      <trkpt lat="42.0361790" lon="-6.9220520">
        <ele>1014.4</ele>
        <time>2019-08-16T15:21:39Z</time>
      </trkpt>
      <trkpt lat="42.0361570" lon="-6.9221070">
        <ele>1014.5</ele>
        <time>2019-08-16T15:21:41Z</time>
      </trkpt>
      <trkpt lat="42.0361370" lon="-6.9221630">
        <ele>1014.5</ele>
        <time>2019-08-16T15:21:43Z</time>
      </trkpt>
      <trkpt lat="42.0361210" lon="-6.9222160">
        <ele>1014.6</ele>
        <time>2019-08-16T15:21:45Z</time>
      </trkpt>
      <trkpt lat="42.0361020" lon="-6.9222750">
        <ele>1014.6</ele>
        <time>2019-08-16T15:21:47Z</time>
      </trkpt>
      <trkpt lat="42.0360870" lon="-6.9223370">
        <ele>1014.6</ele>
        <time>2019-08-16T15:21:49Z</time>
      </trkpt>
      <trkpt lat="42.0360690" lon="-6.9223990">
        <ele>1014.6</ele>
        <time>2019-08-16T15:21:51Z</time>
      </trkpt>
      <trkpt lat="42.0360590" lon="-6.9224660">
        <ele>1014.7</ele>
        <time>2019-08-16T15:21:53Z</time>
      </trkpt>
      <trkpt lat="42.0360500" lon="-6.9225320">
        <ele>1014.7</ele>
        <time>2019-08-16T15:21:55Z</time>
      </trkpt>
      <trkpt lat="42.0360380" lon="-6.9225930">
        <ele>1014.7</ele>
        <time>2019-08-16T15:21:57Z</time>
      </trkpt>
      <trkpt lat="42.0360230" lon="-6.9226490">
        <ele>1014.7</ele>
        <time>2019-08-16T15:21:59Z</time>
      </trkpt>
      <trkpt lat="42.0360020" lon="-6.9226980">
        <ele>1014.8</ele>
        <time>2019-08-16T15:22:01Z</time>
      </trkpt>
      <trkpt lat="42.0359740" lon="-6.9227470">
        <ele>1014.8</ele>
        <time>2019-08-16T15:22:03Z</time>
      </trkpt>
      <trkpt lat="42.0359450" lon="-6.9227900">
        <ele>1014.8</ele>
        <time>2019-08-16T15:22:05Z</time>
      </trkpt>
      <trkpt lat="42.0359200" lon="-6.9228240">
        <ele>1014.8</ele>
        <time>2019-08-16T15:22:07Z</time>
      </trkpt>
      <trkpt lat="42.0359100" lon="-6.9228470">
        <ele>1014.8</ele>
        <time>2019-08-16T15:22:09Z</time>
      </trkpt>
      <trkpt lat="42.0359240" lon="-6.9228730">
        <ele>1014.8</ele>
        <time>2019-08-16T15:22:16Z</time>
      </trkpt>
      <trkpt lat="42.0359030" lon="-6.9228920">
        <ele>1014.8</ele>
        <time>2019-08-16T15:22:23Z</time>
      </trkpt>
      <trkpt lat="42.0358080" lon="-6.9229810">
        <ele>1014.8</ele>
        <time>2019-08-16T15:32:14Z</time>
      </trkpt>
      <trkpt lat="42.0357680" lon="-6.9229970">
        <ele>1014.9</ele>
        <time>2019-08-16T15:32:16Z</time>
      </trkpt>
      <trkpt lat="42.0357180" lon="-6.9229950">
        <ele>1014.9</ele>
        <time>2019-08-16T15:32:18Z</time>
      </trkpt>
      <trkpt lat="42.0356720" lon="-6.9229920">
        <ele>1015.0</ele>
        <time>2019-08-16T15:32:20Z</time>
      </trkpt>
      <trkpt lat="42.0356310" lon="-6.9229910">
        <ele>1015.0</ele>
        <time>2019-08-16T15:32:22Z</time>
      </trkpt>
      <trkpt lat="42.0355870" lon="-6.9229850">
        <ele>1015.1</ele>
        <time>2019-08-16T15:32:24Z</time>
      </trkpt>
      <trkpt lat="42.0355430" lon="-6.9229740">
        <ele>1015.2</ele>
        <time>2019-08-16T15:32:26Z</time>
      </trkpt>
      <trkpt lat="42.0355040" lon="-6.9229620">
        <ele>1015.3</ele>
        <time>2019-08-16T15:32:28Z</time>
      </trkpt>
      <trkpt lat="42.0354650" lon="-6.9229460">
        <ele>1015.3</ele>
        <time>2019-08-16T15:32:30Z</time>
      </trkpt>
      <trkpt lat="42.0354230" lon="-6.9229410">
        <ele>1015.4</ele>
        <time>2019-08-16T15:32:32Z</time>
      </trkpt>
      <trkpt lat="42.0353780" lon="-6.9229330">
        <ele>1015.5</ele>
        <time>2019-08-16T15:32:34Z</time>
      </trkpt>
      <trkpt lat="42.0353370" lon="-6.9229230">
        <ele>1015.5</ele>
        <time>2019-08-16T15:32:36Z</time>
      </trkpt>
      <trkpt lat="42.0352950" lon="-6.9229110">
        <ele>1015.6</ele>
        <time>2019-08-16T15:32:38Z</time>
      </trkpt>
      <trkpt lat="42.0352550" lon="-6.9229100">
        <ele>1015.6</ele>
        <time>2019-08-16T15:32:40Z</time>
      </trkpt>
      <trkpt lat="42.0352130" lon="-6.9229060">
        <ele>1015.6</ele>
        <time>2019-08-16T15:32:42Z</time>
      </trkpt>
      <trkpt lat="42.0351710" lon="-6.9229010">
        <ele>1015.6</ele>
        <time>2019-08-16T15:32:44Z</time>
      </trkpt>
      <trkpt lat="42.0351290" lon="-6.9229000">
        <ele>1015.6</ele>
        <time>2019-08-16T15:32:46Z</time>
      </trkpt>
      <trkpt lat="42.0350900" lon="-6.9228990">
        <ele>1015.6</ele>
        <time>2019-08-16T15:32:48Z</time>
      </trkpt>
      <trkpt lat="42.0350510" lon="-6.9229020">
        <ele>1015.6</ele>
        <time>2019-08-16T15:32:50Z</time>
      </trkpt>
      <trkpt lat="42.0350110" lon="-6.9229050">
        <ele>1015.6</ele>
        <time>2019-08-16T15:32:52Z</time>
      </trkpt>
      <trkpt lat="42.0349660" lon="-6.9229130">
        <ele>1015.6</ele>
        <time>2019-08-16T15:32:54Z</time>
      </trkpt>
      <trkpt lat="42.0349200" lon="-6.9229180">
        <ele>1015.6</ele>
        <time>2019-08-16T15:32:56Z</time>
      </trkpt>
      <trkpt lat="42.0348750" lon="-6.9229290">
        <ele>1015.6</ele>
        <time>2019-08-16T15:32:58Z</time>
      </trkpt>
      <trkpt lat="42.0348320" lon="-6.9229380">
        <ele>1015.6</ele>
        <time>2019-08-16T15:33:00Z</time>
      </trkpt>
      <trkpt lat="42.0347880" lon="-6.9229440">
        <ele>1015.6</ele>
        <time>2019-08-16T15:33:02Z</time>
      </trkpt>
      <trkpt lat="42.0347450" lon="-6.9229440">
        <ele>1015.6</ele>
        <time>2019-08-16T15:33:04Z</time>
      </trkpt>
      <trkpt lat="42.0347050" lon="-6.9229550">
        <ele>1015.6</ele>
        <time>2019-08-16T15:33:06Z</time>
      </trkpt>
      <trkpt lat="42.0346620" lon="-6.9229670">
        <ele>1015.6</ele>
        <time>2019-08-16T15:33:08Z</time>
      </trkpt>
      <trkpt lat="42.0346160" lon="-6.9229690">
        <ele>1015.6</ele>
        <time>2019-08-16T15:33:10Z</time>
      </trkpt>
      <trkpt lat="42.0345710" lon="-6.9229670">
        <ele>1015.6</ele>
        <time>2019-08-16T15:33:12Z</time>
      </trkpt>
      <trkpt lat="42.0345270" lon="-6.9229700">
        <ele>1015.6</ele>
        <time>2019-08-16T15:33:14Z</time>
      </trkpt>
      <trkpt lat="42.0344850" lon="-6.9229760">
        <ele>1015.6</ele>
        <time>2019-08-16T15:33:16Z</time>
      </trkpt>
      <trkpt lat="42.0344420" lon="-6.9229840">
        <ele>1015.6</ele>
        <time>2019-08-16T15:33:18Z</time>
      </trkpt>
      <trkpt lat="42.0343980" lon="-6.9229900">
        <ele>1015.6</ele>
        <time>2019-08-16T15:33:20Z</time>
      </trkpt>
      <trkpt lat="42.0343550" lon="-6.9229940">
        <ele>1015.7</ele>
        <time>2019-08-16T15:33:22Z</time>
      </trkpt>
      <trkpt lat="42.0343110" lon="-6.9229980">
        <ele>1015.8</ele>
        <time>2019-08-16T15:33:24Z</time>
      </trkpt>
      <trkpt lat="42.0342640" lon="-6.9230000">
        <ele>1015.8</ele>
        <time>2019-08-16T15:33:26Z</time>
      </trkpt>
      <trkpt lat="42.0342170" lon="-6.9230070">
        <ele>1015.9</ele>
        <time>2019-08-16T15:33:28Z</time>
      </trkpt>
      <trkpt lat="42.0341690" lon="-6.9230130">
        <ele>1016.0</ele>
        <time>2019-08-16T15:33:30Z</time>
      </trkpt>
      <trkpt lat="42.0341210" lon="-6.9230160">
        <ele>1016.0</ele>
        <time>2019-08-16T15:33:32Z</time>
      </trkpt>
      <trkpt lat="42.0340740" lon="-6.9230190">
        <ele>1016.1</ele>
        <time>2019-08-16T15:33:34Z</time>
      </trkpt>
      <trkpt lat="42.0340270" lon="-6.9230250">
        <ele>1016.2</ele>
        <time>2019-08-16T15:33:36Z</time>
      </trkpt>
      <trkpt lat="42.0339810" lon="-6.9230310">
        <ele>1016.2</ele>
        <time>2019-08-16T15:33:38Z</time>
      </trkpt>
      <trkpt lat="42.0339390" lon="-6.9230480">
        <ele>1016.3</ele>
        <time>2019-08-16T15:33:40Z</time>
      </trkpt>
      <trkpt lat="42.0338950" lon="-6.9230690">
        <ele>1016.4</ele>
        <time>2019-08-16T15:33:42Z</time>
      </trkpt>
      <trkpt lat="42.0338540" lon="-6.9230910">
        <ele>1016.4</ele>
        <time>2019-08-16T15:33:44Z</time>
      </trkpt>
      <trkpt lat="42.0338140" lon="-6.9231160">
        <ele>1016.4</ele>
        <time>2019-08-16T15:33:46Z</time>
      </trkpt>
      <trkpt lat="42.0337760" lon="-6.9231500">
        <ele>1016.5</ele>
        <time>2019-08-16T15:33:48Z</time>
      </trkpt>
      <trkpt lat="42.0337450" lon="-6.9231900">
        <ele>1016.5</ele>
        <time>2019-08-16T15:33:50Z</time>
      </trkpt>
      <trkpt lat="42.0337180" lon="-6.9232320">
        <ele>1016.5</ele>
        <time>2019-08-16T15:33:52Z</time>
      </trkpt>
      <trkpt lat="42.0336960" lon="-6.9232810">
        <ele>1016.5</ele>
        <time>2019-08-16T15:33:54Z</time>
      </trkpt>
      <trkpt lat="42.0336760" lon="-6.9233350">
        <ele>1016.5</ele>
        <time>2019-08-16T15:33:56Z</time>
      </trkpt>
      <trkpt lat="42.0336610" lon="-6.9233930">
        <ele>1016.4</ele>
        <time>2019-08-16T15:33:58Z</time>
      </trkpt>
      <trkpt lat="42.0336480" lon="-6.9234510">
        <ele>1016.3</ele>
        <time>2019-08-16T15:34:00Z</time>
      </trkpt>
      <trkpt lat="42.0336380" lon="-6.9235090">
        <ele>1016.2</ele>
        <time>2019-08-16T15:34:02Z</time>
      </trkpt>
      <trkpt lat="42.0336320" lon="-6.9235710">
        <ele>1016.1</ele>
        <time>2019-08-16T15:34:04Z</time>
      </trkpt>
      <trkpt lat="42.0336280" lon="-6.9236360">
        <ele>1016.0</ele>
        <time>2019-08-16T15:34:06Z</time>
      </trkpt>
      <trkpt lat="42.0336230" lon="-6.9237000">
        <ele>1015.8</ele>
        <time>2019-08-16T15:34:08Z</time>
      </trkpt>
      <trkpt lat="42.0336180" lon="-6.9237670">
        <ele>1015.7</ele>
        <time>2019-08-16T15:34:10Z</time>
      </trkpt>
      <trkpt lat="42.0336110" lon="-6.9238340">
        <ele>1015.5</ele>
        <time>2019-08-16T15:34:12Z</time>
      </trkpt>
      <trkpt lat="42.0336050" lon="-6.9239030">
        <ele>1015.4</ele>
        <time>2019-08-16T15:34:14Z</time>
      </trkpt>
      <trkpt lat="42.0335990" lon="-6.9239760">
        <ele>1015.3</ele>
        <time>2019-08-16T15:34:16Z</time>
      </trkpt>
      <trkpt lat="42.0335970" lon="-6.9240130">
        <ele>1015.2</ele>
        <time>2019-08-16T15:34:17Z</time>
      </trkpt>
      <trkpt lat="42.0335940" lon="-6.9240500">
        <ele>1015.2</ele>
        <time>2019-08-16T15:34:18Z</time>
      </trkpt>
      <trkpt lat="42.0335910" lon="-6.9240870">
        <ele>1015.1</ele>
        <time>2019-08-16T15:34:19Z</time>
      </trkpt>
      <trkpt lat="42.0335870" lon="-6.9241230">
        <ele>1015.1</ele>
        <time>2019-08-16T15:34:20Z</time>
      </trkpt>
      <trkpt lat="42.0335830" lon="-6.9241580">
        <ele>1015.1</ele>
        <time>2019-08-16T15:34:21Z</time>
      </trkpt>
      <trkpt lat="42.0335760" lon="-6.9242290">
        <ele>1015.0</ele>
        <time>2019-08-16T15:34:23Z</time>
      </trkpt>
      <trkpt lat="42.0335660" lon="-6.9242990">
        <ele>1014.9</ele>
        <time>2019-08-16T15:34:25Z</time>
      </trkpt>
      <trkpt lat="42.0335570" lon="-6.9243700">
        <ele>1014.9</ele>
        <time>2019-08-16T15:34:27Z</time>
      </trkpt>
      <trkpt lat="42.0335510" lon="-6.9244060">
        <ele>1014.8</ele>
        <time>2019-08-16T15:34:28Z</time>
      </trkpt>
      <trkpt lat="42.0335440" lon="-6.9244410">
        <ele>1014.8</ele>
        <time>2019-08-16T15:34:29Z</time>
      </trkpt>
      <trkpt lat="42.0335380" lon="-6.9244760">
        <ele>1014.7</ele>
        <time>2019-08-16T15:34:30Z</time>
      </trkpt>
      <trkpt lat="42.0335250" lon="-6.9245480">
        <ele>1014.6</ele>
        <time>2019-08-16T15:34:32Z</time>
      </trkpt>
      <trkpt lat="42.0335180" lon="-6.9245830">
        <ele>1014.5</ele>
        <time>2019-08-16T15:34:33Z</time>
      </trkpt>
      <trkpt lat="42.0335110" lon="-6.9246200">
        <ele>1014.5</ele>
        <time>2019-08-16T15:34:34Z</time>
      </trkpt>
      <trkpt lat="42.0335040" lon="-6.9246560">
        <ele>1014.4</ele>
        <time>2019-08-16T15:34:35Z</time>
      </trkpt>
      <trkpt lat="42.0334970" lon="-6.9246910">
        <ele>1014.3</ele>
        <time>2019-08-16T15:34:36Z</time>
      </trkpt>
      <trkpt lat="42.0334880" lon="-6.9247270">
        <ele>1014.2</ele>
        <time>2019-08-16T15:34:37Z</time>
      </trkpt>
      <trkpt lat="42.0334810" lon="-6.9247620">
        <ele>1014.2</ele>
        <time>2019-08-16T15:34:38Z</time>
      </trkpt>
      <trkpt lat="42.0334750" lon="-6.9247980">
        <ele>1014.1</ele>
        <time>2019-08-16T15:34:39Z</time>
      </trkpt>
      <trkpt lat="42.0334680" lon="-6.9248340">
        <ele>1014.0</ele>
        <time>2019-08-16T15:34:40Z</time>
      </trkpt>
      <trkpt lat="42.0334600" lon="-6.9248700">
        <ele>1013.9</ele>
        <time>2019-08-16T15:34:41Z</time>
      </trkpt>
      <trkpt lat="42.0334520" lon="-6.9249050">
        <ele>1013.8</ele>
        <time>2019-08-16T15:34:42Z</time>
      </trkpt>
      <trkpt lat="42.0334440" lon="-6.9249400">
        <ele>1013.8</ele>
        <time>2019-08-16T15:34:43Z</time>
      </trkpt>
      <trkpt lat="42.0334380" lon="-6.9249760">
        <ele>1013.7</ele>
        <time>2019-08-16T15:34:44Z</time>
      </trkpt>
      <trkpt lat="42.0334330" lon="-6.9250130">
        <ele>1013.6</ele>
        <time>2019-08-16T15:34:45Z</time>
      </trkpt>
      <trkpt lat="42.0334280" lon="-6.9250500">
        <ele>1013.6</ele>
        <time>2019-08-16T15:34:46Z</time>
      </trkpt>
      <trkpt lat="42.0334230" lon="-6.9250860">
        <ele>1013.5</ele>
        <time>2019-08-16T15:34:47Z</time>
      </trkpt>
      <trkpt lat="42.0334190" lon="-6.9251220">
        <ele>1013.5</ele>
        <time>2019-08-16T15:34:48Z</time>
      </trkpt>
      <trkpt lat="42.0334170" lon="-6.9251600">
        <ele>1013.4</ele>
        <time>2019-08-16T15:34:49Z</time>
      </trkpt>
      <trkpt lat="42.0334160" lon="-6.9251970">
        <ele>1013.4</ele>
        <time>2019-08-16T15:34:50Z</time>
      </trkpt>
      <trkpt lat="42.0334150" lon="-6.9252350">
        <ele>1013.4</ele>
        <time>2019-08-16T15:34:51Z</time>
      </trkpt>
      <trkpt lat="42.0334170" lon="-6.9252720">
        <ele>1013.3</ele>
        <time>2019-08-16T15:34:52Z</time>
      </trkpt>
      <trkpt lat="42.0334210" lon="-6.9253090">
        <ele>1013.3</ele>
        <time>2019-08-16T15:34:53Z</time>
      </trkpt>
      <trkpt lat="42.0334260" lon="-6.9253460">
        <ele>1013.3</ele>
        <time>2019-08-16T15:34:54Z</time>
      </trkpt>
      <trkpt lat="42.0334320" lon="-6.9253810">
        <ele>1013.3</ele>
        <time>2019-08-16T15:34:55Z</time>
      </trkpt>
      <trkpt lat="42.0334390" lon="-6.9254160">
        <ele>1013.3</ele>
        <time>2019-08-16T15:34:56Z</time>
      </trkpt>
      <trkpt lat="42.0334530" lon="-6.9254830">
        <ele>1013.3</ele>
        <time>2019-08-16T15:34:58Z</time>
      </trkpt>
      <trkpt lat="42.0334720" lon="-6.9255470">
        <ele>1013.3</ele>
        <time>2019-08-16T15:35:00Z</time>
      </trkpt>
      <trkpt lat="42.0334940" lon="-6.9256120">
        <ele>1013.2</ele>
        <time>2019-08-16T15:35:02Z</time>
      </trkpt>
      <trkpt lat="42.0335170" lon="-6.9256760">
        <ele>1013.2</ele>
        <time>2019-08-16T15:35:04Z</time>
      </trkpt>
      <trkpt lat="42.0335410" lon="-6.9257400">
        <ele>1013.2</ele>
        <time>2019-08-16T15:35:06Z</time>
      </trkpt>
      <trkpt lat="42.0335640" lon="-6.9258040">
        <ele>1013.2</ele>
        <time>2019-08-16T15:35:08Z</time>
      </trkpt>
      <trkpt lat="42.0335890" lon="-6.9258660">
        <ele>1013.2</ele>
        <time>2019-08-16T15:35:10Z</time>
      </trkpt>
      <trkpt lat="42.0336140" lon="-6.9259300">
        <ele>1013.1</ele>
        <time>2019-08-16T15:35:12Z</time>
      </trkpt>
      <trkpt lat="42.0336250" lon="-6.9259630">
        <ele>1013.1</ele>
        <time>2019-08-16T15:35:13Z</time>
      </trkpt>
      <trkpt lat="42.0336500" lon="-6.9260240">
        <ele>1013.0</ele>
        <time>2019-08-16T15:35:15Z</time>
      </trkpt>
      <trkpt lat="42.0336750" lon="-6.9260840">
        <ele>1012.9</ele>
        <time>2019-08-16T15:35:17Z</time>
      </trkpt>
      <trkpt lat="42.0336990" lon="-6.9261450">
        <ele>1012.8</ele>
        <time>2019-08-16T15:35:19Z</time>
      </trkpt>
      <trkpt lat="42.0337210" lon="-6.9262070">
        <ele>1012.7</ele>
        <time>2019-08-16T15:35:21Z</time>
      </trkpt>
      <trkpt lat="42.0337480" lon="-6.9262650">
        <ele>1012.5</ele>
        <time>2019-08-16T15:35:23Z</time>
      </trkpt>
      <trkpt lat="42.0337740" lon="-6.9263260">
        <ele>1012.4</ele>
        <time>2019-08-16T15:35:25Z</time>
      </trkpt>
      <trkpt lat="42.0338010" lon="-6.9263870">
        <ele>1012.2</ele>
        <time>2019-08-16T15:35:27Z</time>
      </trkpt>
      <trkpt lat="42.0338310" lon="-6.9264460">
        <ele>1012.1</ele>
        <time>2019-08-16T15:35:29Z</time>
      </trkpt>
      <trkpt lat="42.0338640" lon="-6.9265010">
        <ele>1011.9</ele>
        <time>2019-08-16T15:35:31Z</time>
      </trkpt>
      <trkpt lat="42.0338990" lon="-6.9265520">
        <ele>1012.6</ele>
        <time>2019-08-16T15:35:33Z</time>
      </trkpt>
      <trkpt lat="42.0339330" lon="-6.9266030">
        <ele>1013.4</ele>
        <time>2019-08-16T15:35:35Z</time>
      </trkpt>
      <trkpt lat="42.0339670" lon="-6.9266520">
        <ele>1014.1</ele>
        <time>2019-08-16T15:35:37Z</time>
      </trkpt>
      <trkpt lat="42.0340050" lon="-6.9266930">
        <ele>1014.8</ele>
        <time>2019-08-16T15:35:39Z</time>
      </trkpt>
      <trkpt lat="42.0340420" lon="-6.9267340">
        <ele>1015.9</ele>
        <time>2019-08-16T15:35:41Z</time>
      </trkpt>
      <trkpt lat="42.0340770" lon="-6.9267740">
        <ele>1015.9</ele>
        <time>2019-08-16T15:35:43Z</time>
      </trkpt>
      <trkpt lat="42.0341150" lon="-6.9268110">
        <ele>1015.9</ele>
        <time>2019-08-16T15:35:45Z</time>
      </trkpt>
      <trkpt lat="42.0341520" lon="-6.9268490">
        <ele>1017.1</ele>
        <time>2019-08-16T15:35:47Z</time>
      </trkpt>
      <trkpt lat="42.0341900" lon="-6.9268910">
        <ele>1018.4</ele>
        <time>2019-08-16T15:35:49Z</time>
      </trkpt>
      <trkpt lat="42.0342280" lon="-6.9269310">
        <ele>1019.6</ele>
        <time>2019-08-16T15:35:51Z</time>
      </trkpt>
      <trkpt lat="42.0342660" lon="-6.9269690">
        <ele>1020.6</ele>
        <time>2019-08-16T15:35:53Z</time>
      </trkpt>
      <trkpt lat="42.0343030" lon="-6.9270050">
        <ele>1021.5</ele>
        <time>2019-08-16T15:35:55Z</time>
      </trkpt>
      <trkpt lat="42.0343410" lon="-6.9270400">
        <ele>1022.3</ele>
        <time>2019-08-16T15:35:57Z</time>
      </trkpt>
      <trkpt lat="42.0343820" lon="-6.9270720">
        <ele>1023.2</ele>
        <time>2019-08-16T15:35:59Z</time>
      </trkpt>
      <trkpt lat="42.0344250" lon="-6.9271010">
        <ele>1023.8</ele>
        <time>2019-08-16T15:36:01Z</time>
      </trkpt>
      <trkpt lat="42.0344660" lon="-6.9271310">
        <ele>1024.3</ele>
        <time>2019-08-16T15:36:03Z</time>
      </trkpt>
      <trkpt lat="42.0345080" lon="-6.9271600">
        <ele>1024.9</ele>
        <time>2019-08-16T15:36:05Z</time>
      </trkpt>
      <trkpt lat="42.0345510" lon="-6.9271860">
        <ele>1025.3</ele>
        <time>2019-08-16T15:36:07Z</time>
      </trkpt>
      <trkpt lat="42.0345960" lon="-6.9272100">
        <ele>1025.7</ele>
        <time>2019-08-16T15:36:09Z</time>
      </trkpt>
      <trkpt lat="42.0346420" lon="-6.9272310">
        <ele>1026.1</ele>
        <time>2019-08-16T15:36:11Z</time>
      </trkpt>
      <trkpt lat="42.0346900" lon="-6.9272510">
        <ele>1026.5</ele>
        <time>2019-08-16T15:36:13Z</time>
      </trkpt>
      <trkpt lat="42.0347370" lon="-6.9272690">
        <ele>1026.8</ele>
        <time>2019-08-16T15:36:15Z</time>
      </trkpt>
      <trkpt lat="42.0347830" lon="-6.9272920">
        <ele>1027.1</ele>
        <time>2019-08-16T15:36:17Z</time>
      </trkpt>
      <trkpt lat="42.0348300" lon="-6.9273130">
        <ele>1027.4</ele>
        <time>2019-08-16T15:36:19Z</time>
      </trkpt>
      <trkpt lat="42.0348790" lon="-6.9273320">
        <ele>1027.7</ele>
        <time>2019-08-16T15:36:21Z</time>
      </trkpt>
      <trkpt lat="42.0349300" lon="-6.9273520">
        <ele>1028.0</ele>
        <time>2019-08-16T15:36:23Z</time>
      </trkpt>
      <trkpt lat="42.0349800" lon="-6.9273730">
        <ele>1028.3</ele>
        <time>2019-08-16T15:36:25Z</time>
      </trkpt>
      <trkpt lat="42.0350310" lon="-6.9273950">
        <ele>1028.6</ele>
        <time>2019-08-16T15:36:27Z</time>
      </trkpt>
      <trkpt lat="42.0350810" lon="-6.9274160">
        <ele>1028.8</ele>
        <time>2019-08-16T15:36:29Z</time>
      </trkpt>
      <trkpt lat="42.0351300" lon="-6.9274380">
        <ele>1029.1</ele>
        <time>2019-08-16T15:36:31Z</time>
      </trkpt>
      <trkpt lat="42.0351780" lon="-6.9274610">
        <ele>1029.3</ele>
        <time>2019-08-16T15:36:33Z</time>
      </trkpt>
      <trkpt lat="42.0352250" lon="-6.9274830">
        <ele>1029.5</ele>
        <time>2019-08-16T15:36:35Z</time>
      </trkpt>
      <trkpt lat="42.0352720" lon="-6.9275030">
        <ele>1029.7</ele>
        <time>2019-08-16T15:36:37Z</time>
      </trkpt>
      <trkpt lat="42.0353170" lon="-6.9275250">
        <ele>1029.9</ele>
        <time>2019-08-16T15:36:39Z</time>
      </trkpt>
      <trkpt lat="42.0353610" lon="-6.9275480">
        <ele>1030.1</ele>
        <time>2019-08-16T15:36:41Z</time>
      </trkpt>
      <trkpt lat="42.0354050" lon="-6.9275670">
        <ele>1030.3</ele>
        <time>2019-08-16T15:36:43Z</time>
      </trkpt>
      <trkpt lat="42.0354460" lon="-6.9275910">
        <ele>1030.5</ele>
        <time>2019-08-16T15:36:45Z</time>
      </trkpt>
      <trkpt lat="42.0354860" lon="-6.9276180">
        <ele>1030.7</ele>
        <time>2019-08-16T15:36:47Z</time>
      </trkpt>
      <trkpt lat="42.0355260" lon="-6.9276500">
        <ele>1031.0</ele>
        <time>2019-08-16T15:36:49Z</time>
      </trkpt>
      <trkpt lat="42.0355650" lon="-6.9276850">
        <ele>1031.2</ele>
        <time>2019-08-16T15:36:51Z</time>
      </trkpt>
      <trkpt lat="42.0356000" lon="-6.9277280">
        <ele>1031.5</ele>
        <time>2019-08-16T15:36:53Z</time>
      </trkpt>
      <trkpt lat="42.0356290" lon="-6.9277770">
        <ele>1031.7</ele>
        <time>2019-08-16T15:36:55Z</time>
      </trkpt>
      <trkpt lat="42.0356490" lon="-6.9278320">
        <ele>1032.0</ele>
        <time>2019-08-16T15:36:57Z</time>
      </trkpt>
      <trkpt lat="42.0356610" lon="-6.9278880">
        <ele>1032.3</ele>
        <time>2019-08-16T15:36:59Z</time>
      </trkpt>
      <trkpt lat="42.0356670" lon="-6.9279440">
        <ele>1032.5</ele>
        <time>2019-08-16T15:37:01Z</time>
      </trkpt>
      <trkpt lat="42.0356700" lon="-6.9279980">
        <ele>1032.8</ele>
        <time>2019-08-16T15:37:03Z</time>
      </trkpt>
      <trkpt lat="42.0356660" lon="-6.9280510">
        <ele>1033.1</ele>
        <time>2019-08-16T15:37:05Z</time>
      </trkpt>
      <trkpt lat="42.0356590" lon="-6.9281010">
        <ele>1033.3</ele>
        <time>2019-08-16T15:37:07Z</time>
      </trkpt>
      <trkpt lat="42.0356480" lon="-6.9281460">
        <ele>1033.6</ele>
        <time>2019-08-16T15:37:09Z</time>
      </trkpt>
      <trkpt lat="42.0356350" lon="-6.9281890">
        <ele>1033.8</ele>
        <time>2019-08-16T15:37:11Z</time>
      </trkpt>
      <trkpt lat="42.0356140" lon="-6.9282280">
        <ele>1034.0</ele>
        <time>2019-08-16T15:37:13Z</time>
      </trkpt>
      <trkpt lat="42.0355900" lon="-6.9282690">
        <ele>1034.3</ele>
        <time>2019-08-16T15:37:15Z</time>
      </trkpt>
      <trkpt lat="42.0355610" lon="-6.9283110">
        <ele>1034.6</ele>
        <time>2019-08-16T15:37:17Z</time>
      </trkpt>
      <trkpt lat="42.0355320" lon="-6.9283550">
        <ele>1034.8</ele>
        <time>2019-08-16T15:37:19Z</time>
      </trkpt>
      <trkpt lat="42.0355030" lon="-6.9283970">
        <ele>1035.1</ele>
        <time>2019-08-16T15:37:21Z</time>
      </trkpt>
      <trkpt lat="42.0354740" lon="-6.9284410">
        <ele>1035.4</ele>
        <time>2019-08-16T15:37:23Z</time>
      </trkpt>
      <trkpt lat="42.0354410" lon="-6.9284840">
        <ele>1035.6</ele>
        <time>2019-08-16T15:37:25Z</time>
      </trkpt>
      <trkpt lat="42.0354110" lon="-6.9285230">
        <ele>1035.8</ele>
        <time>2019-08-16T15:37:27Z</time>
      </trkpt>
      <trkpt lat="42.0353860" lon="-6.9285730">
        <ele>1036.1</ele>
        <time>2019-08-16T15:37:29Z</time>
      </trkpt>
      <trkpt lat="42.0353700" lon="-6.9286250">
        <ele>1036.3</ele>
        <time>2019-08-16T15:37:31Z</time>
      </trkpt>
      <trkpt lat="42.0353530" lon="-6.9286790">
        <ele>1036.5</ele>
        <time>2019-08-16T15:37:33Z</time>
      </trkpt>
      <trkpt lat="42.0353400" lon="-6.9287350">
        <ele>1036.7</ele>
        <time>2019-08-16T15:37:35Z</time>
      </trkpt>
      <trkpt lat="42.0353300" lon="-6.9287910">
        <ele>1036.9</ele>
        <time>2019-08-16T15:37:37Z</time>
      </trkpt>
      <trkpt lat="42.0353240" lon="-6.9288480">
        <ele>1037.1</ele>
        <time>2019-08-16T15:37:39Z</time>
      </trkpt>
      <trkpt lat="42.0353190" lon="-6.9289060">
        <ele>1037.3</ele>
        <time>2019-08-16T15:37:41Z</time>
      </trkpt>
      <trkpt lat="42.0353120" lon="-6.9289620">
        <ele>1037.6</ele>
        <time>2019-08-16T15:37:43Z</time>
      </trkpt>
      <trkpt lat="42.0353030" lon="-6.9290140">
        <ele>1037.5</ele>
        <time>2019-08-16T15:37:45Z</time>
      </trkpt>
      <trkpt lat="42.0352940" lon="-6.9290690">
        <ele>1037.4</ele>
        <time>2019-08-16T15:37:47Z</time>
      </trkpt>
      <trkpt lat="42.0352840" lon="-6.9291300">
        <ele>1037.2</ele>
        <time>2019-08-16T15:37:49Z</time>
      </trkpt>
      <trkpt lat="42.0352790" lon="-6.9292210">
        <ele>1037.1</ele>
        <time>2019-08-16T15:37:51Z</time>
      </trkpt>
      <trkpt lat="42.0352840" lon="-6.9292790">
        <ele>1037.0</ele>
        <time>2019-08-16T15:37:52Z</time>
      </trkpt>
      <trkpt lat="42.0352970" lon="-6.9293420">
        <ele>1036.9</ele>
        <time>2019-08-16T15:37:53Z</time>
      </trkpt>
      <trkpt lat="42.0353160" lon="-6.9294090">
        <ele>1036.7</ele>
        <time>2019-08-16T15:37:54Z</time>
      </trkpt>
      <trkpt lat="42.0353390" lon="-6.9294830">
        <ele>1036.6</ele>
        <time>2019-08-16T15:37:55Z</time>
      </trkpt>
      <trkpt lat="42.0353600" lon="-6.9295650">
        <ele>1036.4</ele>
        <time>2019-08-16T15:37:56Z</time>
      </trkpt>
      <trkpt lat="42.0353760" lon="-6.9296550">
        <ele>1036.3</ele>
        <time>2019-08-16T15:37:57Z</time>
      </trkpt>
      <trkpt lat="42.0353820" lon="-6.9297500">
        <ele>1036.1</ele>
        <time>2019-08-16T15:37:58Z</time>
      </trkpt>
      <trkpt lat="42.0353830" lon="-6.9298490">
        <ele>1035.9</ele>
        <time>2019-08-16T15:37:59Z</time>
      </trkpt>
      <trkpt lat="42.0353780" lon="-6.9299510">
        <ele>1035.7</ele>
        <time>2019-08-16T15:38:00Z</time>
      </trkpt>
      <trkpt lat="42.0353700" lon="-6.9300510">
        <ele>1035.4</ele>
        <time>2019-08-16T15:38:01Z</time>
      </trkpt>
      <trkpt lat="42.0353610" lon="-6.9301480">
        <ele>1035.0</ele>
        <time>2019-08-16T15:38:02Z</time>
      </trkpt>
      <trkpt lat="42.0353500" lon="-6.9302440">
        <ele>1034.7</ele>
        <time>2019-08-16T15:38:03Z</time>
      </trkpt>
      <trkpt lat="42.0353420" lon="-6.9303370">
        <ele>1034.3</ele>
        <time>2019-08-16T15:38:04Z</time>
      </trkpt>
      <trkpt lat="42.0353340" lon="-6.9304290">
        <ele>1033.9</ele>
        <time>2019-08-16T15:38:05Z</time>
      </trkpt>
      <trkpt lat="42.0353280" lon="-6.9305180">
        <ele>1033.5</ele>
        <time>2019-08-16T15:38:06Z</time>
      </trkpt>
      <trkpt lat="42.0353260" lon="-6.9306080">
        <ele>1033.1</ele>
        <time>2019-08-16T15:38:07Z</time>
      </trkpt>
      <trkpt lat="42.0353260" lon="-6.9306930">
        <ele>1032.8</ele>
        <time>2019-08-16T15:38:08Z</time>
      </trkpt>
      <trkpt lat="42.0353270" lon="-6.9307780">
        <ele>1032.5</ele>
        <time>2019-08-16T15:38:09Z</time>
      </trkpt>
      <trkpt lat="42.0353290" lon="-6.9308580">
        <ele>1032.3</ele>
        <time>2019-08-16T15:38:10Z</time>
      </trkpt>
      <trkpt lat="42.0353290" lon="-6.9309340">
        <ele>1032.0</ele>
        <time>2019-08-16T15:38:11Z</time>
      </trkpt>
      <trkpt lat="42.0353300" lon="-6.9310130">
        <ele>1031.8</ele>
        <time>2019-08-16T15:38:12Z</time>
      </trkpt>
      <trkpt lat="42.0353300" lon="-6.9310930">
        <ele>1031.6</ele>
        <time>2019-08-16T15:38:13Z</time>
      </trkpt>
      <trkpt lat="42.0353340" lon="-6.9311770">
        <ele>1031.4</ele>
        <time>2019-08-16T15:38:14Z</time>
      </trkpt>
      <trkpt lat="42.0353410" lon="-6.9312670">
        <ele>1031.1</ele>
        <time>2019-08-16T15:38:15Z</time>
      </trkpt>
      <trkpt lat="42.0353510" lon="-6.9313610">
        <ele>1030.9</ele>
        <time>2019-08-16T15:38:16Z</time>
      </trkpt>
      <trkpt lat="42.0353610" lon="-6.9314590">
        <ele>1030.6</ele>
        <time>2019-08-16T15:38:17Z</time>
      </trkpt>
      <trkpt lat="42.0353720" lon="-6.9315580">
        <ele>1030.4</ele>
        <time>2019-08-16T15:38:18Z</time>
      </trkpt>
      <trkpt lat="42.0353830" lon="-6.9316580">
        <ele>1030.1</ele>
        <time>2019-08-16T15:38:19Z</time>
      </trkpt>
      <trkpt lat="42.0353930" lon="-6.9317610">
        <ele>1029.9</ele>
        <time>2019-08-16T15:38:20Z</time>
      </trkpt>
      <trkpt lat="42.0354010" lon="-6.9318600">
        <ele>1029.7</ele>
        <time>2019-08-16T15:38:21Z</time>
      </trkpt>
      <trkpt lat="42.0354100" lon="-6.9319570">
        <ele>1029.5</ele>
        <time>2019-08-16T15:38:22Z</time>
      </trkpt>
      <trkpt lat="42.0354200" lon="-6.9320530">
        <ele>1029.4</ele>
        <time>2019-08-16T15:38:23Z</time>
      </trkpt>
      <trkpt lat="42.0354310" lon="-6.9321460">
        <ele>1029.2</ele>
        <time>2019-08-16T15:38:24Z</time>
      </trkpt>
      <trkpt lat="42.0354400" lon="-6.9322350">
        <ele>1029.2</ele>
        <time>2019-08-16T15:38:25Z</time>
      </trkpt>
      <trkpt lat="42.0354460" lon="-6.9323250">
        <ele>1029.1</ele>
        <time>2019-08-16T15:38:26Z</time>
      </trkpt>
      <trkpt lat="42.0354510" lon="-6.9324100">
        <ele>1029.1</ele>
        <time>2019-08-16T15:38:27Z</time>
      </trkpt>
      <trkpt lat="42.0354560" lon="-6.9324930">
        <ele>1029.1</ele>
        <time>2019-08-16T15:38:28Z</time>
      </trkpt>
      <trkpt lat="42.0354640" lon="-6.9325750">
        <ele>1029.1</ele>
        <time>2019-08-16T15:38:29Z</time>
      </trkpt>
      <trkpt lat="42.0354770" lon="-6.9326560">
        <ele>1029.2</ele>
        <time>2019-08-16T15:38:30Z</time>
      </trkpt>
      <trkpt lat="42.0354940" lon="-6.9327390">
        <ele>1029.3</ele>
        <time>2019-08-16T15:38:31Z</time>
      </trkpt>
      <trkpt lat="42.0355120" lon="-6.9328240">
        <ele>1029.4</ele>
        <time>2019-08-16T15:38:32Z</time>
      </trkpt>
      <trkpt lat="42.0355320" lon="-6.9329110">
        <ele>1029.6</ele>
        <time>2019-08-16T15:38:33Z</time>
      </trkpt>
      <trkpt lat="42.0355510" lon="-6.9330010">
        <ele>1029.8</ele>
        <time>2019-08-16T15:38:34Z</time>
      </trkpt>
      <trkpt lat="42.0355690" lon="-6.9330940">
        <ele>1030.1</ele>
        <time>2019-08-16T15:38:35Z</time>
      </trkpt>
      <trkpt lat="42.0355900" lon="-6.9331900">
        <ele>1030.4</ele>
        <time>2019-08-16T15:38:36Z</time>
      </trkpt>
      <trkpt lat="42.0356140" lon="-6.9332870">
        <ele>1029.5</ele>
        <time>2019-08-16T15:38:37Z</time>
      </trkpt>
      <trkpt lat="42.0356390" lon="-6.9333860">
        <ele>1028.9</ele>
        <time>2019-08-16T15:38:38Z</time>
      </trkpt>
      <trkpt lat="42.0356650" lon="-6.9334840">
        <ele>1028.3</ele>
        <time>2019-08-16T15:38:39Z</time>
      </trkpt>
      <trkpt lat="42.0356900" lon="-6.9335760">
        <ele>1027.7</ele>
        <time>2019-08-16T15:38:40Z</time>
      </trkpt>
      <trkpt lat="42.0357150" lon="-6.9336620">
        <ele>1026.3</ele>
        <time>2019-08-16T15:38:41Z</time>
      </trkpt>
      <trkpt lat="42.0357400" lon="-6.9337390">
        <ele>1026.0</ele>
        <time>2019-08-16T15:38:42Z</time>
      </trkpt>
      <trkpt lat="42.0357670" lon="-6.9338020">
        <ele>1025.7</ele>
        <time>2019-08-16T15:38:43Z</time>
      </trkpt>
      <trkpt lat="42.0357930" lon="-6.9338520">
        <ele>1025.5</ele>
        <time>2019-08-16T15:38:44Z</time>
      </trkpt>
      <trkpt lat="42.0358180" lon="-6.9338890">
        <ele>1025.4</ele>
        <time>2019-08-16T15:38:45Z</time>
      </trkpt>
      <trkpt lat="42.0358410" lon="-6.9339170">
        <ele>1025.2</ele>
        <time>2019-08-16T15:38:46Z</time>
      </trkpt>
      <trkpt lat="42.0358610" lon="-6.9339430">
        <ele>1025.1</ele>
        <time>2019-08-16T15:38:47Z</time>
      </trkpt>
      <trkpt lat="42.0358790" lon="-6.9339680">
        <ele>1025.0</ele>
        <time>2019-08-16T15:38:48Z</time>
      </trkpt>
      <trkpt lat="42.0359130" lon="-6.9340140">
        <ele>1024.7</ele>
        <time>2019-08-16T15:38:50Z</time>
      </trkpt>
      <trkpt lat="42.0359500" lon="-6.9340600">
        <ele>1024.9</ele>
        <time>2019-08-16T15:38:52Z</time>
      </trkpt>
      <trkpt lat="42.0359890" lon="-6.9341080">
        <ele>1025.1</ele>
        <time>2019-08-16T15:38:54Z</time>
      </trkpt>
      <trkpt lat="42.0360260" lon="-6.9341560">
        <ele>1025.3</ele>
        <time>2019-08-16T15:38:56Z</time>
      </trkpt>
      <trkpt lat="42.0360650" lon="-6.9342020">
        <ele>1025.6</ele>
        <time>2019-08-16T15:38:58Z</time>
      </trkpt>
      <trkpt lat="42.0361050" lon="-6.9342450">
        <ele>1025.8</ele>
        <time>2019-08-16T15:39:00Z</time>
      </trkpt>
      <trkpt lat="42.0361410" lon="-6.9342900">
        <ele>1026.0</ele>
        <time>2019-08-16T15:39:02Z</time>
      </trkpt>
      <trkpt lat="42.0361790" lon="-6.9343320">
        <ele>1026.1</ele>
        <time>2019-08-16T15:39:04Z</time>
      </trkpt>
      <trkpt lat="42.0362160" lon="-6.9343740">
        <ele>1026.3</ele>
        <time>2019-08-16T15:39:06Z</time>
      </trkpt>
      <trkpt lat="42.0362530" lon="-6.9344150">
        <ele>1026.5</ele>
        <time>2019-08-16T15:39:08Z</time>
      </trkpt>
      <trkpt lat="42.0362910" lon="-6.9344580">
        <ele>1026.7</ele>
        <time>2019-08-16T15:39:10Z</time>
      </trkpt>
      <trkpt lat="42.0363300" lon="-6.9344970">
        <ele>1026.9</ele>
        <time>2019-08-16T15:39:12Z</time>
      </trkpt>
      <trkpt lat="42.0363670" lon="-6.9345380">
        <ele>1027.0</ele>
        <time>2019-08-16T15:39:14Z</time>
      </trkpt>
      <trkpt lat="42.0364040" lon="-6.9345770">
        <ele>1027.2</ele>
        <time>2019-08-16T15:39:16Z</time>
      </trkpt>
      <trkpt lat="42.0364420" lon="-6.9346140">
        <ele>1027.4</ele>
        <time>2019-08-16T15:39:18Z</time>
      </trkpt>
      <trkpt lat="42.0364780" lon="-6.9346540">
        <ele>1027.5</ele>
        <time>2019-08-16T15:39:20Z</time>
      </trkpt>
      <trkpt lat="42.0365130" lon="-6.9346920">
        <ele>1027.7</ele>
        <time>2019-08-16T15:39:22Z</time>
      </trkpt>
      <trkpt lat="42.0365510" lon="-6.9347290">
        <ele>1027.8</ele>
        <time>2019-08-16T15:39:24Z</time>
      </trkpt>
      <trkpt lat="42.0365870" lon="-6.9347680">
        <ele>1028.0</ele>
        <time>2019-08-16T15:39:26Z</time>
      </trkpt>
      <trkpt lat="42.0366260" lon="-6.9348040">
        <ele>1028.2</ele>
        <time>2019-08-16T15:39:28Z</time>
      </trkpt>
      <trkpt lat="42.0366640" lon="-6.9348410">
        <ele>1028.3</ele>
        <time>2019-08-16T15:39:30Z</time>
      </trkpt>
      <trkpt lat="42.0367000" lon="-6.9348780">
        <ele>1028.5</ele>
        <time>2019-08-16T15:39:32Z</time>
      </trkpt>
      <trkpt lat="42.0367380" lon="-6.9349140">
        <ele>1028.6</ele>
        <time>2019-08-16T15:39:34Z</time>
      </trkpt>
      <trkpt lat="42.0367760" lon="-6.9349500">
        <ele>1028.8</ele>
        <time>2019-08-16T15:39:36Z</time>
      </trkpt>
      <trkpt lat="42.0368160" lon="-6.9349870">
        <ele>1028.9</ele>
        <time>2019-08-16T15:39:38Z</time>
      </trkpt>
      <trkpt lat="42.0368540" lon="-6.9350250">
        <ele>1029.1</ele>
        <time>2019-08-16T15:39:40Z</time>
      </trkpt>
      <trkpt lat="42.0368920" lon="-6.9350590">
        <ele>1029.2</ele>
        <time>2019-08-16T15:39:42Z</time>
      </trkpt>
      <trkpt lat="42.0369280" lon="-6.9350950">
        <ele>1029.4</ele>
        <time>2019-08-16T15:39:44Z</time>
      </trkpt>
      <trkpt lat="42.0369630" lon="-6.9351320">
        <ele>1029.5</ele>
        <time>2019-08-16T15:39:46Z</time>
      </trkpt>
      <trkpt lat="42.0370000" lon="-6.9351690">
        <ele>1029.7</ele>
        <time>2019-08-16T15:39:48Z</time>
      </trkpt>
      <trkpt lat="42.0370370" lon="-6.9352050">
        <ele>1029.8</ele>
        <time>2019-08-16T15:39:50Z</time>
      </trkpt>
      <trkpt lat="42.0370760" lon="-6.9352410">
        <ele>1030.0</ele>
        <time>2019-08-16T15:39:52Z</time>
      </trkpt>
      <trkpt lat="42.0371110" lon="-6.9352800">
        <ele>1030.1</ele>
        <time>2019-08-16T15:39:54Z</time>
      </trkpt>
      <trkpt lat="42.0371480" lon="-6.9353190">
        <ele>1030.3</ele>
        <time>2019-08-16T15:39:56Z</time>
      </trkpt>
      <trkpt lat="42.0371850" lon="-6.9353550">
        <ele>1030.4</ele>
        <time>2019-08-16T15:39:58Z</time>
      </trkpt>
      <trkpt lat="42.0372200" lon="-6.9353930">
        <ele>1030.6</ele>
        <time>2019-08-16T15:40:00Z</time>
      </trkpt>
      <trkpt lat="42.0372570" lon="-6.9354290">
        <ele>1030.7</ele>
        <time>2019-08-16T15:40:02Z</time>
      </trkpt>
      <trkpt lat="42.0372950" lon="-6.9354660">
        <ele>1030.8</ele>
        <time>2019-08-16T15:40:04Z</time>
      </trkpt>
      <trkpt lat="42.0373310" lon="-6.9355040">
        <ele>1031.0</ele>
        <time>2019-08-16T15:40:06Z</time>
      </trkpt>
      <trkpt lat="42.0373660" lon="-6.9355430">
        <ele>1031.1</ele>
        <time>2019-08-16T15:40:08Z</time>
      </trkpt>
      <trkpt lat="42.0374040" lon="-6.9355800">
        <ele>1031.2</ele>
        <time>2019-08-16T15:40:10Z</time>
      </trkpt>
      <trkpt lat="42.0374400" lon="-6.9356180">
        <ele>1031.3</ele>
        <time>2019-08-16T15:40:12Z</time>
      </trkpt>
      <trkpt lat="42.0374760" lon="-6.9356580">
        <ele>1031.5</ele>
        <time>2019-08-16T15:40:14Z</time>
      </trkpt>
      <trkpt lat="42.0375110" lon="-6.9356970">
        <ele>1031.7</ele>
        <time>2019-08-16T15:40:16Z</time>
      </trkpt>
      <trkpt lat="42.0375450" lon="-6.9357350">
        <ele>1031.8</ele>
        <time>2019-08-16T15:40:18Z</time>
      </trkpt>
      <trkpt lat="42.0375780" lon="-6.9357750">
        <ele>1032.0</ele>
        <time>2019-08-16T15:40:20Z</time>
      </trkpt>
      <trkpt lat="42.0376130" lon="-6.9358150">
        <ele>1032.2</ele>
        <time>2019-08-16T15:40:22Z</time>
      </trkpt>
      <trkpt lat="42.0376470" lon="-6.9358550">
        <ele>1032.4</ele>
        <time>2019-08-16T15:40:24Z</time>
      </trkpt>
      <trkpt lat="42.0376820" lon="-6.9358970">
        <ele>1032.5</ele>
        <time>2019-08-16T15:40:26Z</time>
      </trkpt>
      <trkpt lat="42.0377160" lon="-6.9359380">
        <ele>1032.7</ele>
        <time>2019-08-16T15:40:28Z</time>
      </trkpt>
      <trkpt lat="42.0377500" lon="-6.9359810">
        <ele>1032.8</ele>
        <time>2019-08-16T15:40:30Z</time>
      </trkpt>
      <trkpt lat="42.0377840" lon="-6.9360250">
        <ele>1032.9</ele>
        <time>2019-08-16T15:40:32Z</time>
      </trkpt>
      <trkpt lat="42.0378150" lon="-6.9360710">
        <ele>1033.0</ele>
        <time>2019-08-16T15:40:34Z</time>
      </trkpt>
      <trkpt lat="42.0378470" lon="-6.9361160">
        <ele>1033.2</ele>
        <time>2019-08-16T15:40:36Z</time>
      </trkpt>
      <trkpt lat="42.0378800" lon="-6.9361620">
        <ele>1033.3</ele>
        <time>2019-08-16T15:40:38Z</time>
      </trkpt>
      <trkpt lat="42.0379100" lon="-6.9362110">
        <ele>1033.5</ele>
        <time>2019-08-16T15:40:40Z</time>
      </trkpt>
      <trkpt lat="42.0379400" lon="-6.9362570">
        <ele>1033.6</ele>
        <time>2019-08-16T15:40:42Z</time>
      </trkpt>
      <trkpt lat="42.0379690" lon="-6.9363040">
        <ele>1033.8</ele>
        <time>2019-08-16T15:40:44Z</time>
      </trkpt>
      <trkpt lat="42.0379980" lon="-6.9363530">
        <ele>1034.0</ele>
        <time>2019-08-16T15:40:46Z</time>
      </trkpt>
      <trkpt lat="42.0380250" lon="-6.9364030">
        <ele>1034.1</ele>
        <time>2019-08-16T15:40:48Z</time>
      </trkpt>
      <trkpt lat="42.0380540" lon="-6.9364530">
        <ele>1034.3</ele>
        <time>2019-08-16T15:40:50Z</time>
      </trkpt>
      <trkpt lat="42.0380810" lon="-6.9365040">
        <ele>1034.5</ele>
        <time>2019-08-16T15:40:52Z</time>
      </trkpt>
      <trkpt lat="42.0381060" lon="-6.9365560">
        <ele>1034.6</ele>
        <time>2019-08-16T15:40:54Z</time>
      </trkpt>
      <trkpt lat="42.0381310" lon="-6.9366070">
        <ele>1034.7</ele>
        <time>2019-08-16T15:40:56Z</time>
      </trkpt>
      <trkpt lat="42.0381550" lon="-6.9366590">
        <ele>1034.8</ele>
        <time>2019-08-16T15:40:58Z</time>
      </trkpt>
      <trkpt lat="42.0381780" lon="-6.9367140">
        <ele>1035.0</ele>
        <time>2019-08-16T15:41:00Z</time>
      </trkpt>
      <trkpt lat="42.0382010" lon="-6.9367650">
        <ele>1035.1</ele>
        <time>2019-08-16T15:41:02Z</time>
      </trkpt>
      <trkpt lat="42.0382230" lon="-6.9368170">
        <ele>1035.2</ele>
        <time>2019-08-16T15:41:04Z</time>
      </trkpt>
      <trkpt lat="42.0382440" lon="-6.9368700">
        <ele>1035.4</ele>
        <time>2019-08-16T15:41:06Z</time>
      </trkpt>
      <trkpt lat="42.0382650" lon="-6.9369250">
        <ele>1035.5</ele>
        <time>2019-08-16T15:41:08Z</time>
      </trkpt>
      <trkpt lat="42.0382850" lon="-6.9369800">
        <ele>1035.7</ele>
        <time>2019-08-16T15:41:10Z</time>
      </trkpt>
      <trkpt lat="42.0383000" lon="-6.9370400">
        <ele>1035.9</ele>
        <time>2019-08-16T15:41:12Z</time>
      </trkpt>
      <trkpt lat="42.0383170" lon="-6.9371000">
        <ele>1036.1</ele>
        <time>2019-08-16T15:41:14Z</time>
      </trkpt>
      <trkpt lat="42.0383350" lon="-6.9371590">
        <ele>1036.6</ele>
        <time>2019-08-16T15:41:16Z</time>
      </trkpt>
      <trkpt lat="42.0383500" lon="-6.9372180">
        <ele>1037.0</ele>
        <time>2019-08-16T15:41:18Z</time>
      </trkpt>
      <trkpt lat="42.0383670" lon="-6.9372770">
        <ele>1037.5</ele>
        <time>2019-08-16T15:41:20Z</time>
      </trkpt>
      <trkpt lat="42.0383810" lon="-6.9373350">
        <ele>1037.9</ele>
        <time>2019-08-16T15:41:22Z</time>
      </trkpt>
      <trkpt lat="42.0383930" lon="-6.9373950">
        <ele>1038.4</ele>
        <time>2019-08-16T15:41:24Z</time>
      </trkpt>
      <trkpt lat="42.0384050" lon="-6.9374570">
        <ele>1038.9</ele>
        <time>2019-08-16T15:41:26Z</time>
      </trkpt>
      <trkpt lat="42.0384170" lon="-6.9375190">
        <ele>1039.3</ele>
        <time>2019-08-16T15:41:28Z</time>
      </trkpt>
      <trkpt lat="42.0384260" lon="-6.9375840">
        <ele>1039.9</ele>
        <time>2019-08-16T15:41:30Z</time>
      </trkpt>
      <trkpt lat="42.0384350" lon="-6.9376470">
        <ele>1040.4</ele>
        <time>2019-08-16T15:41:32Z</time>
      </trkpt>
      <trkpt lat="42.0384420" lon="-6.9377090">
        <ele>1040.9</ele>
        <time>2019-08-16T15:41:34Z</time>
      </trkpt>
      <trkpt lat="42.0384510" lon="-6.9377710">
        <ele>1041.4</ele>
        <time>2019-08-16T15:41:36Z</time>
      </trkpt>
      <trkpt lat="42.0384600" lon="-6.9378330">
        <ele>1041.9</ele>
        <time>2019-08-16T15:41:38Z</time>
      </trkpt>
      <trkpt lat="42.0384660" lon="-6.9378960">
        <ele>1042.4</ele>
        <time>2019-08-16T15:41:40Z</time>
      </trkpt>
      <trkpt lat="42.0384710" lon="-6.9379590">
        <ele>1042.8</ele>
        <time>2019-08-16T15:41:42Z</time>
      </trkpt>
      <trkpt lat="42.0384770" lon="-6.9380210">
        <ele>1043.3</ele>
        <time>2019-08-16T15:41:44Z</time>
      </trkpt>
      <trkpt lat="42.0384830" lon="-6.9380800">
        <ele>1043.7</ele>
        <time>2019-08-16T15:41:46Z</time>
      </trkpt>
      <trkpt lat="42.0384860" lon="-6.9381400">
        <ele>1044.1</ele>
        <time>2019-08-16T15:41:48Z</time>
      </trkpt>
      <trkpt lat="42.0384890" lon="-6.9382010">
        <ele>1044.5</ele>
        <time>2019-08-16T15:41:50Z</time>
      </trkpt>
      <trkpt lat="42.0384940" lon="-6.9382620">
        <ele>1044.9</ele>
        <time>2019-08-16T15:41:52Z</time>
      </trkpt>
      <trkpt lat="42.0384960" lon="-6.9383230">
        <ele>1045.3</ele>
        <time>2019-08-16T15:41:54Z</time>
      </trkpt>
      <trkpt lat="42.0384980" lon="-6.9383830">
        <ele>1045.8</ele>
        <time>2019-08-16T15:41:56Z</time>
      </trkpt>
      <trkpt lat="42.0384990" lon="-6.9384450">
        <ele>1046.2</ele>
        <time>2019-08-16T15:41:58Z</time>
      </trkpt>
      <trkpt lat="42.0384990" lon="-6.9385080">
        <ele>1046.6</ele>
        <time>2019-08-16T15:42:00Z</time>
      </trkpt>
      <trkpt lat="42.0385010" lon="-6.9385690">
        <ele>1047.0</ele>
        <time>2019-08-16T15:42:02Z</time>
      </trkpt>
      <trkpt lat="42.0385030" lon="-6.9386280">
        <ele>1047.4</ele>
        <time>2019-08-16T15:42:04Z</time>
      </trkpt>
      <trkpt lat="42.0385040" lon="-6.9386880">
        <ele>1047.9</ele>
        <time>2019-08-16T15:42:06Z</time>
      </trkpt>
      <trkpt lat="42.0385050" lon="-6.9387490">
        <ele>1048.3</ele>
        <time>2019-08-16T15:42:08Z</time>
      </trkpt>
      <trkpt lat="42.0385070" lon="-6.9388100">
        <ele>1048.7</ele>
        <time>2019-08-16T15:42:10Z</time>
      </trkpt>
      <trkpt lat="42.0385080" lon="-6.9388710">
        <ele>1049.2</ele>
        <time>2019-08-16T15:42:12Z</time>
      </trkpt>
      <trkpt lat="42.0385090" lon="-6.9389330">
        <ele>1049.6</ele>
        <time>2019-08-16T15:42:14Z</time>
      </trkpt>
      <trkpt lat="42.0385080" lon="-6.9389950">
        <ele>1050.1</ele>
        <time>2019-08-16T15:42:16Z</time>
      </trkpt>
      <trkpt lat="42.0385100" lon="-6.9390560">
        <ele>1050.5</ele>
        <time>2019-08-16T15:42:18Z</time>
      </trkpt>
      <trkpt lat="42.0385110" lon="-6.9391170">
        <ele>1050.9</ele>
        <time>2019-08-16T15:42:20Z</time>
      </trkpt>
      <trkpt lat="42.0385130" lon="-6.9391760">
        <ele>1051.2</ele>
        <time>2019-08-16T15:42:22Z</time>
      </trkpt>
      <trkpt lat="42.0385140" lon="-6.9392370">
        <ele>1051.6</ele>
        <time>2019-08-16T15:42:24Z</time>
      </trkpt>
      <trkpt lat="42.0385150" lon="-6.9392960">
        <ele>1052.0</ele>
        <time>2019-08-16T15:42:26Z</time>
      </trkpt>
      <trkpt lat="42.0385170" lon="-6.9393570">
        <ele>1052.4</ele>
        <time>2019-08-16T15:42:28Z</time>
      </trkpt>
      <trkpt lat="42.0385180" lon="-6.9394180">
        <ele>1052.9</ele>
        <time>2019-08-16T15:42:30Z</time>
      </trkpt>
      <trkpt lat="42.0385200" lon="-6.9394790">
        <ele>1053.3</ele>
        <time>2019-08-16T15:42:32Z</time>
      </trkpt>
      <trkpt lat="42.0385210" lon="-6.9395430">
        <ele>1053.8</ele>
        <time>2019-08-16T15:42:34Z</time>
      </trkpt>
      <trkpt lat="42.0385210" lon="-6.9396060">
        <ele>1054.2</ele>
        <time>2019-08-16T15:42:36Z</time>
      </trkpt>
      <trkpt lat="42.0385210" lon="-6.9396690">
        <ele>1054.7</ele>
        <time>2019-08-16T15:42:38Z</time>
      </trkpt>
      <trkpt lat="42.0385230" lon="-6.9397340">
        <ele>1055.2</ele>
        <time>2019-08-16T15:42:40Z</time>
      </trkpt>
      <trkpt lat="42.0385240" lon="-6.9397990">
        <ele>1055.7</ele>
        <time>2019-08-16T15:42:42Z</time>
      </trkpt>
      <trkpt lat="42.0385260" lon="-6.9398630">
        <ele>1056.2</ele>
        <time>2019-08-16T15:42:44Z</time>
      </trkpt>
      <trkpt lat="42.0385260" lon="-6.9399290">
        <ele>1056.8</ele>
        <time>2019-08-16T15:42:46Z</time>
      </trkpt>
      <trkpt lat="42.0385270" lon="-6.9399960">
        <ele>1057.0</ele>
        <time>2019-08-16T15:42:48Z</time>
      </trkpt>
      <trkpt lat="42.0385290" lon="-6.9400620">
        <ele>1057.3</ele>
        <time>2019-08-16T15:42:50Z</time>
      </trkpt>
      <trkpt lat="42.0385300" lon="-6.9401260">
        <ele>1057.5</ele>
        <time>2019-08-16T15:42:52Z</time>
      </trkpt>
      <trkpt lat="42.0385300" lon="-6.9401880">
        <ele>1057.7</ele>
        <time>2019-08-16T15:42:54Z</time>
      </trkpt>
      <trkpt lat="42.0385300" lon="-6.9402490">
        <ele>1057.9</ele>
        <time>2019-08-16T15:42:56Z</time>
      </trkpt>
      <trkpt lat="42.0385300" lon="-6.9403090">
        <ele>1058.1</ele>
        <time>2019-08-16T15:42:58Z</time>
      </trkpt>
      <trkpt lat="42.0385330" lon="-6.9403680">
        <ele>1058.4</ele>
        <time>2019-08-16T15:43:00Z</time>
      </trkpt>
      <trkpt lat="42.0385370" lon="-6.9404280">
        <ele>1058.6</ele>
        <time>2019-08-16T15:43:02Z</time>
      </trkpt>
      <trkpt lat="42.0385430" lon="-6.9404890">
        <ele>1058.8</ele>
        <time>2019-08-16T15:43:04Z</time>
      </trkpt>
      <trkpt lat="42.0385510" lon="-6.9405490">
        <ele>1059.1</ele>
        <time>2019-08-16T15:43:06Z</time>
      </trkpt>
      <trkpt lat="42.0385570" lon="-6.9406080">
        <ele>1059.3</ele>
        <time>2019-08-16T15:43:08Z</time>
      </trkpt>
      <trkpt lat="42.0385650" lon="-6.9406650">
        <ele>1059.6</ele>
        <time>2019-08-16T15:43:10Z</time>
      </trkpt>
      <trkpt lat="42.0385720" lon="-6.9407230">
        <ele>1059.8</ele>
        <time>2019-08-16T15:43:12Z</time>
      </trkpt>
      <trkpt lat="42.0385790" lon="-6.9407810">
        <ele>1060.1</ele>
        <time>2019-08-16T15:43:14Z</time>
      </trkpt>
      <trkpt lat="42.0385860" lon="-6.9408400">
        <ele>1060.4</ele>
        <time>2019-08-16T15:43:16Z</time>
      </trkpt>
      <trkpt lat="42.0385930" lon="-6.9408970">
        <ele>1060.6</ele>
        <time>2019-08-16T15:43:18Z</time>
      </trkpt>
      <trkpt lat="42.0386010" lon="-6.9409520">
        <ele>1060.9</ele>
        <time>2019-08-16T15:43:20Z</time>
      </trkpt>
      <trkpt lat="42.0386100" lon="-6.9410080">
        <ele>1061.2</ele>
        <time>2019-08-16T15:43:22Z</time>
      </trkpt>
      <trkpt lat="42.0386180" lon="-6.9410650">
        <ele>1061.5</ele>
        <time>2019-08-16T15:43:24Z</time>
      </trkpt>
      <trkpt lat="42.0386240" lon="-6.9411210">
        <ele>1061.8</ele>
        <time>2019-08-16T15:43:26Z</time>
      </trkpt>
      <trkpt lat="42.0386310" lon="-6.9411780">
        <ele>1062.1</ele>
        <time>2019-08-16T15:43:28Z</time>
      </trkpt>
      <trkpt lat="42.0386380" lon="-6.9412340">
        <ele>1062.4</ele>
        <time>2019-08-16T15:43:30Z</time>
      </trkpt>
      <trkpt lat="42.0386430" lon="-6.9412900">
        <ele>1062.7</ele>
        <time>2019-08-16T15:43:32Z</time>
      </trkpt>
      <trkpt lat="42.0386480" lon="-6.9413440">
        <ele>1063.0</ele>
        <time>2019-08-16T15:43:34Z</time>
      </trkpt>
      <trkpt lat="42.0386520" lon="-6.9413990">
        <ele>1063.2</ele>
        <time>2019-08-16T15:43:36Z</time>
      </trkpt>
      <trkpt lat="42.0386580" lon="-6.9414540">
        <ele>1063.5</ele>
        <time>2019-08-16T15:43:38Z</time>
      </trkpt>
      <trkpt lat="42.0386650" lon="-6.9415110">
        <ele>1063.8</ele>
        <time>2019-08-16T15:43:40Z</time>
      </trkpt>
      <trkpt lat="42.0386700" lon="-6.9415660">
        <ele>1064.1</ele>
        <time>2019-08-16T15:43:42Z</time>
      </trkpt>
      <trkpt lat="42.0386750" lon="-6.9416220">
        <ele>1064.3</ele>
        <time>2019-08-16T15:43:44Z</time>
      </trkpt>
      <trkpt lat="42.0386790" lon="-6.9416780">
        <ele>1064.6</ele>
        <time>2019-08-16T15:43:46Z</time>
      </trkpt>
      <trkpt lat="42.0386840" lon="-6.9417330">
        <ele>1064.8</ele>
        <time>2019-08-16T15:43:48Z</time>
      </trkpt>
      <trkpt lat="42.0386880" lon="-6.9417880">
        <ele>1065.1</ele>
        <time>2019-08-16T15:43:50Z</time>
      </trkpt>
      <trkpt lat="42.0386900" lon="-6.9418420">
        <ele>1065.3</ele>
        <time>2019-08-16T15:43:52Z</time>
      </trkpt>
      <trkpt lat="42.0386920" lon="-6.9418970">
        <ele>1065.5</ele>
        <time>2019-08-16T15:43:54Z</time>
      </trkpt>
      <trkpt lat="42.0386950" lon="-6.9419520">
        <ele>1065.7</ele>
        <time>2019-08-16T15:43:56Z</time>
      </trkpt>
      <trkpt lat="42.0386970" lon="-6.9420080">
        <ele>1066.0</ele>
        <time>2019-08-16T15:43:58Z</time>
      </trkpt>
      <trkpt lat="42.0387010" lon="-6.9420630">
        <ele>1066.2</ele>
        <time>2019-08-16T15:44:00Z</time>
      </trkpt>
      <trkpt lat="42.0387040" lon="-6.9421200">
        <ele>1066.4</ele>
        <time>2019-08-16T15:44:02Z</time>
      </trkpt>
      <trkpt lat="42.0387050" lon="-6.9421780">
        <ele>1066.7</ele>
        <time>2019-08-16T15:44:04Z</time>
      </trkpt>
      <trkpt lat="42.0387080" lon="-6.9422360">
        <ele>1066.9</ele>
        <time>2019-08-16T15:44:06Z</time>
      </trkpt>
      <trkpt lat="42.0387100" lon="-6.9422920">
        <ele>1067.1</ele>
        <time>2019-08-16T15:44:08Z</time>
      </trkpt>
      <trkpt lat="42.0387130" lon="-6.9423490">
        <ele>1067.4</ele>
        <time>2019-08-16T15:44:10Z</time>
      </trkpt>
      <trkpt lat="42.0387140" lon="-6.9424060">
        <ele>1067.6</ele>
        <time>2019-08-16T15:44:12Z</time>
      </trkpt>
      <trkpt lat="42.0387150" lon="-6.9424620">
        <ele>1067.8</ele>
        <time>2019-08-16T15:44:14Z</time>
      </trkpt>
      <trkpt lat="42.0387180" lon="-6.9425190">
        <ele>1068.1</ele>
        <time>2019-08-16T15:44:16Z</time>
      </trkpt>
      <trkpt lat="42.0387190" lon="-6.9425770">
        <ele>1068.4</ele>
        <time>2019-08-16T15:44:18Z</time>
      </trkpt>
      <trkpt lat="42.0387210" lon="-6.9426360">
        <ele>1068.6</ele>
        <time>2019-08-16T15:44:20Z</time>
      </trkpt>
      <trkpt lat="42.0387220" lon="-6.9426860">
        <ele>1068.9</ele>
        <time>2019-08-16T15:44:22Z</time>
      </trkpt>
      <trkpt lat="42.0387230" lon="-6.9427370">
        <ele>1069.1</ele>
        <time>2019-08-16T15:44:24Z</time>
      </trkpt>
      <trkpt lat="42.0387240" lon="-6.9427920">
        <ele>1069.3</ele>
        <time>2019-08-16T15:44:26Z</time>
      </trkpt>
      <trkpt lat="42.0387250" lon="-6.9428470">
        <ele>1069.6</ele>
        <time>2019-08-16T15:44:28Z</time>
      </trkpt>
      <trkpt lat="42.0387270" lon="-6.9429030">
        <ele>1069.8</ele>
        <time>2019-08-16T15:44:30Z</time>
      </trkpt>
      <trkpt lat="42.0387280" lon="-6.9429590">
        <ele>1070.1</ele>
        <time>2019-08-16T15:44:32Z</time>
      </trkpt>
      <trkpt lat="42.0387300" lon="-6.9430170">
        <ele>1070.4</ele>
        <time>2019-08-16T15:44:34Z</time>
      </trkpt>
      <trkpt lat="42.0387330" lon="-6.9430750">
        <ele>1070.6</ele>
        <time>2019-08-16T15:44:36Z</time>
      </trkpt>
      <trkpt lat="42.0387330" lon="-6.9431300">
        <ele>1070.9</ele>
        <time>2019-08-16T15:44:38Z</time>
      </trkpt>
      <trkpt lat="42.0387340" lon="-6.9431860">
        <ele>1071.1</ele>
        <time>2019-08-16T15:44:40Z</time>
      </trkpt>
      <trkpt lat="42.0387370" lon="-6.9432410">
        <ele>1071.4</ele>
        <time>2019-08-16T15:44:42Z</time>
      </trkpt>
      <trkpt lat="42.0387380" lon="-6.9432970">
        <ele>1071.6</ele>
        <time>2019-08-16T15:44:44Z</time>
      </trkpt>
      <trkpt lat="42.0387400" lon="-6.9433510">
        <ele>1071.8</ele>
        <time>2019-08-16T15:44:46Z</time>
      </trkpt>
      <trkpt lat="42.0387420" lon="-6.9434060">
        <ele>1072.1</ele>
        <time>2019-08-16T15:44:48Z</time>
      </trkpt>
      <trkpt lat="42.0387420" lon="-6.9434610">
        <ele>1072.3</ele>
        <time>2019-08-16T15:44:50Z</time>
      </trkpt>
      <trkpt lat="42.0387430" lon="-6.9435170">
        <ele>1072.5</ele>
        <time>2019-08-16T15:44:52Z</time>
      </trkpt>
      <trkpt lat="42.0387450" lon="-6.9435730">
        <ele>1072.8</ele>
        <time>2019-08-16T15:44:54Z</time>
      </trkpt>
      <trkpt lat="42.0387480" lon="-6.9436240">
        <ele>1073.0</ele>
        <time>2019-08-16T15:44:56Z</time>
      </trkpt>
      <trkpt lat="42.0387490" lon="-6.9436800">
        <ele>1073.2</ele>
        <time>2019-08-16T15:44:58Z</time>
      </trkpt>
      <trkpt lat="42.0387500" lon="-6.9437380">
        <ele>1073.5</ele>
        <time>2019-08-16T15:45:00Z</time>
      </trkpt>
      <trkpt lat="42.0387510" lon="-6.9437960">
        <ele>1073.7</ele>
        <time>2019-08-16T15:45:02Z</time>
      </trkpt>
      <trkpt lat="42.0387520" lon="-6.9438510">
        <ele>1073.9</ele>
        <time>2019-08-16T15:45:04Z</time>
      </trkpt>
      <trkpt lat="42.0387520" lon="-6.9439050">
        <ele>1074.2</ele>
        <time>2019-08-16T15:45:06Z</time>
      </trkpt>
      <trkpt lat="42.0387530" lon="-6.9439590">
        <ele>1074.4</ele>
        <time>2019-08-16T15:45:08Z</time>
      </trkpt>
      <trkpt lat="42.0387560" lon="-6.9440130">
        <ele>1074.6</ele>
        <time>2019-08-16T15:45:10Z</time>
      </trkpt>
      <trkpt lat="42.0387590" lon="-6.9440680">
        <ele>1074.9</ele>
        <time>2019-08-16T15:45:12Z</time>
      </trkpt>
      <trkpt lat="42.0387610" lon="-6.9441230">
        <ele>1075.1</ele>
        <time>2019-08-16T15:45:14Z</time>
      </trkpt>
      <trkpt lat="42.0387610" lon="-6.9441770">
        <ele>1075.4</ele>
        <time>2019-08-16T15:45:16Z</time>
      </trkpt>
      <trkpt lat="42.0387600" lon="-6.9442300">
        <ele>1075.6</ele>
        <time>2019-08-16T15:45:18Z</time>
      </trkpt>
      <trkpt lat="42.0387600" lon="-6.9442850">
        <ele>1075.9</ele>
        <time>2019-08-16T15:45:20Z</time>
      </trkpt>
      <trkpt lat="42.0387640" lon="-6.9443420">
        <ele>1076.2</ele>
        <time>2019-08-16T15:45:22Z</time>
      </trkpt>
      <trkpt lat="42.0387660" lon="-6.9443960">
        <ele>1076.5</ele>
        <time>2019-08-16T15:45:24Z</time>
      </trkpt>
      <trkpt lat="42.0387670" lon="-6.9444510">
        <ele>1076.8</ele>
        <time>2019-08-16T15:45:26Z</time>
      </trkpt>
      <trkpt lat="42.0387690" lon="-6.9445060">
        <ele>1077.1</ele>
        <time>2019-08-16T15:45:28Z</time>
      </trkpt>
      <trkpt lat="42.0387690" lon="-6.9445600">
        <ele>1077.4</ele>
        <time>2019-08-16T15:45:30Z</time>
      </trkpt>
      <trkpt lat="42.0387710" lon="-6.9446160">
        <ele>1077.8</ele>
        <time>2019-08-16T15:45:32Z</time>
      </trkpt>
      <trkpt lat="42.0387730" lon="-6.9446710">
        <ele>1078.1</ele>
        <time>2019-08-16T15:45:34Z</time>
      </trkpt>
      <trkpt lat="42.0387750" lon="-6.9447260">
        <ele>1078.4</ele>
        <time>2019-08-16T15:45:36Z</time>
      </trkpt>
      <trkpt lat="42.0387760" lon="-6.9447800">
        <ele>1078.8</ele>
        <time>2019-08-16T15:45:38Z</time>
      </trkpt>
      <trkpt lat="42.0387760" lon="-6.9448350">
        <ele>1079.2</ele>
        <time>2019-08-16T15:45:40Z</time>
      </trkpt>
      <trkpt lat="42.0387790" lon="-6.9448890">
        <ele>1079.6</ele>
        <time>2019-08-16T15:45:42Z</time>
      </trkpt>
      <trkpt lat="42.0387810" lon="-6.9449430">
        <ele>1080.0</ele>
        <time>2019-08-16T15:45:44Z</time>
      </trkpt>
      <trkpt lat="42.0387820" lon="-6.9449980">
        <ele>1080.3</ele>
        <time>2019-08-16T15:45:46Z</time>
      </trkpt>
      <trkpt lat="42.0387840" lon="-6.9450530">
        <ele>1080.7</ele>
        <time>2019-08-16T15:45:48Z</time>
      </trkpt>
      <trkpt lat="42.0387760" lon="-6.9451000">
        <ele>1081.1</ele>
        <time>2019-08-16T15:45:50Z</time>
      </trkpt>
      <trkpt lat="42.0387760" lon="-6.9451570">
        <ele>1081.5</ele>
        <time>2019-08-16T15:45:52Z</time>
      </trkpt>
      <trkpt lat="42.0387780" lon="-6.9452120">
        <ele>1081.9</ele>
        <time>2019-08-16T15:45:54Z</time>
      </trkpt>
      <trkpt lat="42.0387800" lon="-6.9452670">
        <ele>1082.3</ele>
        <time>2019-08-16T15:45:56Z</time>
      </trkpt>
      <trkpt lat="42.0387780" lon="-6.9453210">
        <ele>1082.7</ele>
        <time>2019-08-16T15:45:58Z</time>
      </trkpt>
      <trkpt lat="42.0387780" lon="-6.9453730">
        <ele>1083.0</ele>
        <time>2019-08-16T15:46:00Z</time>
      </trkpt>
      <trkpt lat="42.0387800" lon="-6.9454260">
        <ele>1083.4</ele>
        <time>2019-08-16T15:46:02Z</time>
      </trkpt>
      <trkpt lat="42.0387830" lon="-6.9454790">
        <ele>1083.7</ele>
        <time>2019-08-16T15:46:04Z</time>
      </trkpt>
      <trkpt lat="42.0387850" lon="-6.9455330">
        <ele>1084.1</ele>
        <time>2019-08-16T15:46:06Z</time>
      </trkpt>
      <trkpt lat="42.0387860" lon="-6.9455870">
        <ele>1084.5</ele>
        <time>2019-08-16T15:46:08Z</time>
      </trkpt>
      <trkpt lat="42.0387850" lon="-6.9456400">
        <ele>1084.8</ele>
        <time>2019-08-16T15:46:10Z</time>
      </trkpt>
      <trkpt lat="42.0387880" lon="-6.9456950">
        <ele>1085.2</ele>
        <time>2019-08-16T15:46:12Z</time>
      </trkpt>
      <trkpt lat="42.0387910" lon="-6.9457490">
        <ele>1085.5</ele>
        <time>2019-08-16T15:46:14Z</time>
      </trkpt>
      <trkpt lat="42.0387910" lon="-6.9458020">
        <ele>1085.9</ele>
        <time>2019-08-16T15:46:16Z</time>
      </trkpt>
      <trkpt lat="42.0387920" lon="-6.9458570">
        <ele>1086.2</ele>
        <time>2019-08-16T15:46:18Z</time>
      </trkpt>
      <trkpt lat="42.0387950" lon="-6.9459120">
        <ele>1086.6</ele>
        <time>2019-08-16T15:46:20Z</time>
      </trkpt>
      <trkpt lat="42.0387990" lon="-6.9459670">
        <ele>1086.9</ele>
        <time>2019-08-16T15:46:22Z</time>
      </trkpt>
      <trkpt lat="42.0387990" lon="-6.9460200">
        <ele>1087.2</ele>
        <time>2019-08-16T15:46:24Z</time>
      </trkpt>
      <trkpt lat="42.0388000" lon="-6.9460730">
        <ele>1087.6</ele>
        <time>2019-08-16T15:46:26Z</time>
      </trkpt>
      <trkpt lat="42.0388030" lon="-6.9461270">
        <ele>1087.9</ele>
        <time>2019-08-16T15:46:28Z</time>
      </trkpt>
      <trkpt lat="42.0388040" lon="-6.9461800">
        <ele>1088.2</ele>
        <time>2019-08-16T15:46:30Z</time>
      </trkpt>
      <trkpt lat="42.0388060" lon="-6.9462330">
        <ele>1088.5</ele>
        <time>2019-08-16T15:46:32Z</time>
      </trkpt>
      <trkpt lat="42.0388070" lon="-6.9462850">
        <ele>1088.8</ele>
        <time>2019-08-16T15:46:34Z</time>
      </trkpt>
      <trkpt lat="42.0388100" lon="-6.9463390">
        <ele>1089.1</ele>
        <time>2019-08-16T15:46:36Z</time>
      </trkpt>
      <trkpt lat="42.0388120" lon="-6.9463940">
        <ele>1089.4</ele>
        <time>2019-08-16T15:46:38Z</time>
      </trkpt>
      <trkpt lat="42.0388140" lon="-6.9464500">
        <ele>1089.8</ele>
        <time>2019-08-16T15:46:40Z</time>
      </trkpt>
      <trkpt lat="42.0388160" lon="-6.9465050">
        <ele>1090.1</ele>
        <time>2019-08-16T15:46:42Z</time>
      </trkpt>
      <trkpt lat="42.0388160" lon="-6.9465600">
        <ele>1090.4</ele>
        <time>2019-08-16T15:46:44Z</time>
      </trkpt>
      <trkpt lat="42.0388190" lon="-6.9466150">
        <ele>1090.7</ele>
        <time>2019-08-16T15:46:46Z</time>
      </trkpt>
      <trkpt lat="42.0388200" lon="-6.9466710">
        <ele>1091.1</ele>
        <time>2019-08-16T15:46:48Z</time>
      </trkpt>
      <trkpt lat="42.0388230" lon="-6.9467260">
        <ele>1091.4</ele>
        <time>2019-08-16T15:46:50Z</time>
      </trkpt>
      <trkpt lat="42.0388270" lon="-6.9467830">
        <ele>1091.7</ele>
        <time>2019-08-16T15:46:52Z</time>
      </trkpt>
      <trkpt lat="42.0388300" lon="-6.9468380">
        <ele>1092.0</ele>
        <time>2019-08-16T15:46:54Z</time>
      </trkpt>
      <trkpt lat="42.0388330" lon="-6.9468930">
        <ele>1092.3</ele>
        <time>2019-08-16T15:46:56Z</time>
      </trkpt>
      <trkpt lat="42.0388370" lon="-6.9469480">
        <ele>1092.6</ele>
        <time>2019-08-16T15:46:58Z</time>
      </trkpt>
      <trkpt lat="42.0388400" lon="-6.9470030">
        <ele>1092.9</ele>
        <time>2019-08-16T15:47:00Z</time>
      </trkpt>
      <trkpt lat="42.0388430" lon="-6.9470580">
        <ele>1093.2</ele>
        <time>2019-08-16T15:47:02Z</time>
      </trkpt>
      <trkpt lat="42.0388460" lon="-6.9471110">
        <ele>1093.5</ele>
        <time>2019-08-16T15:47:04Z</time>
      </trkpt>
      <trkpt lat="42.0388480" lon="-6.9471660">
        <ele>1093.8</ele>
        <time>2019-08-16T15:47:06Z</time>
      </trkpt>
      <trkpt lat="42.0388530" lon="-6.9472220">
        <ele>1094.1</ele>
        <time>2019-08-16T15:47:08Z</time>
      </trkpt>
      <trkpt lat="42.0388560" lon="-6.9472770">
        <ele>1094.4</ele>
        <time>2019-08-16T15:47:10Z</time>
      </trkpt>
      <trkpt lat="42.0388630" lon="-6.9473320">
        <ele>1094.7</ele>
        <time>2019-08-16T15:47:12Z</time>
      </trkpt>
      <trkpt lat="42.0388660" lon="-6.9473850">
        <ele>1094.9</ele>
        <time>2019-08-16T15:47:14Z</time>
      </trkpt>
      <trkpt lat="42.0388700" lon="-6.9474380">
        <ele>1095.2</ele>
        <time>2019-08-16T15:47:16Z</time>
      </trkpt>
      <trkpt lat="42.0388730" lon="-6.9474910">
        <ele>1095.5</ele>
        <time>2019-08-16T15:47:18Z</time>
      </trkpt>
      <trkpt lat="42.0388790" lon="-6.9475460">
        <ele>1095.7</ele>
        <time>2019-08-16T15:47:20Z</time>
      </trkpt>
      <trkpt lat="42.0388860" lon="-6.9476010">
        <ele>1096.0</ele>
        <time>2019-08-16T15:47:22Z</time>
      </trkpt>
      <trkpt lat="42.0388940" lon="-6.9476530">
        <ele>1096.3</ele>
        <time>2019-08-16T15:47:24Z</time>
      </trkpt>
      <trkpt lat="42.0389010" lon="-6.9477060">
        <ele>1096.6</ele>
        <time>2019-08-16T15:47:26Z</time>
      </trkpt>
      <trkpt lat="42.0389080" lon="-6.9477610">
        <ele>1096.9</ele>
        <time>2019-08-16T15:47:28Z</time>
      </trkpt>
      <trkpt lat="42.0389140" lon="-6.9478150">
        <ele>1097.2</ele>
        <time>2019-08-16T15:47:30Z</time>
      </trkpt>
      <trkpt lat="42.0389180" lon="-6.9478680">
        <ele>1097.5</ele>
        <time>2019-08-16T15:47:32Z</time>
      </trkpt>
      <trkpt lat="42.0389240" lon="-6.9479200">
        <ele>1097.8</ele>
        <time>2019-08-16T15:47:34Z</time>
      </trkpt>
      <trkpt lat="42.0389320" lon="-6.9479720">
        <ele>1098.1</ele>
        <time>2019-08-16T15:47:36Z</time>
      </trkpt>
      <trkpt lat="42.0389410" lon="-6.9480250">
        <ele>1098.4</ele>
        <time>2019-08-16T15:47:38Z</time>
      </trkpt>
      <trkpt lat="42.0389470" lon="-6.9480800">
        <ele>1098.8</ele>
        <time>2019-08-16T15:47:40Z</time>
      </trkpt>
      <trkpt lat="42.0389520" lon="-6.9481360">
        <ele>1099.1</ele>
        <time>2019-08-16T15:47:42Z</time>
      </trkpt>
      <trkpt lat="42.0389600" lon="-6.9481890">
        <ele>1099.5</ele>
        <time>2019-08-16T15:47:44Z</time>
      </trkpt>
      <trkpt lat="42.0389700" lon="-6.9482420">
        <ele>1099.8</ele>
        <time>2019-08-16T15:47:46Z</time>
      </trkpt>
      <trkpt lat="42.0389770" lon="-6.9482940">
        <ele>1100.1</ele>
        <time>2019-08-16T15:47:48Z</time>
      </trkpt>
      <trkpt lat="42.0389840" lon="-6.9483460">
        <ele>1100.4</ele>
        <time>2019-08-16T15:47:50Z</time>
      </trkpt>
      <trkpt lat="42.0389940" lon="-6.9483990">
        <ele>1100.8</ele>
        <time>2019-08-16T15:47:52Z</time>
      </trkpt>
      <trkpt lat="42.0390040" lon="-6.9484530">
        <ele>1101.1</ele>
        <time>2019-08-16T15:47:54Z</time>
      </trkpt>
      <trkpt lat="42.0390080" lon="-6.9485040">
        <ele>1101.3</ele>
        <time>2019-08-16T15:47:56Z</time>
      </trkpt>
      <trkpt lat="42.0390150" lon="-6.9485540">
        <ele>1101.6</ele>
        <time>2019-08-16T15:47:58Z</time>
      </trkpt>
      <trkpt lat="42.0390240" lon="-6.9486070">
        <ele>1101.8</ele>
        <time>2019-08-16T15:48:00Z</time>
      </trkpt>
      <trkpt lat="42.0390340" lon="-6.9486600">
        <ele>1102.1</ele>
        <time>2019-08-16T15:48:02Z</time>
      </trkpt>
      <trkpt lat="42.0390430" lon="-6.9487130">
        <ele>1102.3</ele>
        <time>2019-08-16T15:48:04Z</time>
      </trkpt>
      <trkpt lat="42.0390500" lon="-6.9487690">
        <ele>1102.5</ele>
        <time>2019-08-16T15:48:06Z</time>
      </trkpt>
      <trkpt lat="42.0390590" lon="-6.9488230">
        <ele>1102.7</ele>
        <time>2019-08-16T15:48:08Z</time>
      </trkpt>
      <trkpt lat="42.0390690" lon="-6.9488780">
        <ele>1102.8</ele>
        <time>2019-08-16T15:48:10Z</time>
      </trkpt>
      <trkpt lat="42.0390770" lon="-6.9489310">
        <ele>1103.0</ele>
        <time>2019-08-16T15:48:12Z</time>
      </trkpt>
      <trkpt lat="42.0390850" lon="-6.9489840">
        <ele>1103.2</ele>
        <time>2019-08-16T15:48:14Z</time>
      </trkpt>
      <trkpt lat="42.0390960" lon="-6.9490400">
        <ele>1103.3</ele>
        <time>2019-08-16T15:48:16Z</time>
      </trkpt>
      <trkpt lat="42.0391060" lon="-6.9490960">
        <ele>1103.5</ele>
        <time>2019-08-16T15:48:18Z</time>
      </trkpt>
      <trkpt lat="42.0391170" lon="-6.9491550">
        <ele>1103.6</ele>
        <time>2019-08-16T15:48:20Z</time>
      </trkpt>
      <trkpt lat="42.0391270" lon="-6.9492120">
        <ele>1103.7</ele>
        <time>2019-08-16T15:48:22Z</time>
      </trkpt>
      <trkpt lat="42.0391400" lon="-6.9492690">
        <ele>1103.9</ele>
        <time>2019-08-16T15:48:24Z</time>
      </trkpt>
      <trkpt lat="42.0391540" lon="-6.9493310">
        <ele>1104.0</ele>
        <time>2019-08-16T15:48:26Z</time>
      </trkpt>
      <trkpt lat="42.0391680" lon="-6.9493920">
        <ele>1104.1</ele>
        <time>2019-08-16T15:48:28Z</time>
      </trkpt>
      <trkpt lat="42.0391790" lon="-6.9494510">
        <ele>1104.2</ele>
        <time>2019-08-16T15:48:30Z</time>
      </trkpt>
      <trkpt lat="42.0391890" lon="-6.9495080">
        <ele>1104.3</ele>
        <time>2019-08-16T15:48:32Z</time>
      </trkpt>
      <trkpt lat="42.0392020" lon="-6.9495660">
        <ele>1104.4</ele>
        <time>2019-08-16T15:48:34Z</time>
      </trkpt>
      <trkpt lat="42.0392140" lon="-6.9496270">
        <ele>1104.5</ele>
        <time>2019-08-16T15:48:36Z</time>
      </trkpt>
      <trkpt lat="42.0392300" lon="-6.9496920">
        <ele>1104.6</ele>
        <time>2019-08-16T15:48:38Z</time>
      </trkpt>
      <trkpt lat="42.0392460" lon="-6.9497590">
        <ele>1104.7</ele>
        <time>2019-08-16T15:48:40Z</time>
      </trkpt>
      <trkpt lat="42.0392590" lon="-6.9498260">
        <ele>1104.8</ele>
        <time>2019-08-16T15:48:42Z</time>
      </trkpt>
      <trkpt lat="42.0392710" lon="-6.9498790">
        <ele>1104.8</ele>
        <time>2019-08-16T15:48:44Z</time>
      </trkpt>
      <trkpt lat="42.0392840" lon="-6.9499270">
        <ele>1104.9</ele>
        <time>2019-08-16T15:48:46Z</time>
      </trkpt>
      <trkpt lat="42.0392950" lon="-6.9499860">
        <ele>1104.9</ele>
        <time>2019-08-16T15:48:48Z</time>
      </trkpt>
      <trkpt lat="42.0393110" lon="-6.9500570">
        <ele>1105.0</ele>
        <time>2019-08-16T15:48:50Z</time>
      </trkpt>
      <trkpt lat="42.0393200" lon="-6.9500940">
        <ele>1105.1</ele>
        <time>2019-08-16T15:48:51Z</time>
      </trkpt>
      <trkpt lat="42.0393260" lon="-6.9501320">
        <ele>1105.1</ele>
        <time>2019-08-16T15:48:52Z</time>
      </trkpt>
      <trkpt lat="42.0393340" lon="-6.9501720">
        <ele>1105.1</ele>
        <time>2019-08-16T15:48:53Z</time>
      </trkpt>
      <trkpt lat="42.0393400" lon="-6.9502090">
        <ele>1105.2</ele>
        <time>2019-08-16T15:48:54Z</time>
      </trkpt>
      <trkpt lat="42.0393480" lon="-6.9502460">
        <ele>1105.2</ele>
        <time>2019-08-16T15:48:55Z</time>
      </trkpt>
      <trkpt lat="42.0393530" lon="-6.9502810">
        <ele>1105.3</ele>
        <time>2019-08-16T15:48:56Z</time>
      </trkpt>
      <trkpt lat="42.0393650" lon="-6.9503420">
        <ele>1105.3</ele>
        <time>2019-08-16T15:48:58Z</time>
      </trkpt>
      <trkpt lat="42.0393770" lon="-6.9504070">
        <ele>1105.4</ele>
        <time>2019-08-16T15:49:00Z</time>
      </trkpt>
      <trkpt lat="42.0393930" lon="-6.9504820">
        <ele>1105.5</ele>
        <time>2019-08-16T15:49:02Z</time>
      </trkpt>
      <trkpt lat="42.0394010" lon="-6.9505200">
        <ele>1105.6</ele>
        <time>2019-08-16T15:49:03Z</time>
      </trkpt>
      <trkpt lat="42.0394090" lon="-6.9505600">
        <ele>1105.7</ele>
        <time>2019-08-16T15:49:04Z</time>
      </trkpt>
      <trkpt lat="42.0394180" lon="-6.9506000">
        <ele>1105.8</ele>
        <time>2019-08-16T15:49:05Z</time>
      </trkpt>
      <trkpt lat="42.0394270" lon="-6.9506410">
        <ele>1105.8</ele>
        <time>2019-08-16T15:49:06Z</time>
      </trkpt>
      <trkpt lat="42.0394340" lon="-6.9506800">
        <ele>1105.9</ele>
        <time>2019-08-16T15:49:07Z</time>
      </trkpt>
      <trkpt lat="42.0394410" lon="-6.9507170">
        <ele>1106.0</ele>
        <time>2019-08-16T15:49:08Z</time>
      </trkpt>
      <trkpt lat="42.0394480" lon="-6.9507510">
        <ele>1106.1</ele>
        <time>2019-08-16T15:49:09Z</time>
      </trkpt>
      <trkpt lat="42.0394630" lon="-6.9508150">
        <ele>1106.3</ele>
        <time>2019-08-16T15:49:11Z</time>
      </trkpt>
      <trkpt lat="42.0394800" lon="-6.9508870">
        <ele>1106.5</ele>
        <time>2019-08-16T15:49:13Z</time>
      </trkpt>
      <trkpt lat="42.0394900" lon="-6.9509250">
        <ele>1106.6</ele>
        <time>2019-08-16T15:49:14Z</time>
      </trkpt>
      <trkpt lat="42.0395010" lon="-6.9509620">
        <ele>1106.7</ele>
        <time>2019-08-16T15:49:15Z</time>
      </trkpt>
      <trkpt lat="42.0395120" lon="-6.9510000">
        <ele>1106.9</ele>
        <time>2019-08-16T15:49:16Z</time>
      </trkpt>
      <trkpt lat="42.0395230" lon="-6.9510370">
        <ele>1107.0</ele>
        <time>2019-08-16T15:49:17Z</time>
      </trkpt>
      <trkpt lat="42.0395350" lon="-6.9510710">
        <ele>1107.1</ele>
        <time>2019-08-16T15:49:18Z</time>
      </trkpt>
      <trkpt lat="42.0395490" lon="-6.9511020">
        <ele>1107.2</ele>
        <time>2019-08-16T15:49:19Z</time>
      </trkpt>
      <trkpt lat="42.0395630" lon="-6.9511330">
        <ele>1107.4</ele>
        <time>2019-08-16T15:49:20Z</time>
      </trkpt>
      <trkpt lat="42.0395890" lon="-6.9511930">
        <ele>1107.6</ele>
        <time>2019-08-16T15:49:22Z</time>
      </trkpt>
      <trkpt lat="42.0396140" lon="-6.9512550">
        <ele>1108.0</ele>
        <time>2019-08-16T15:49:24Z</time>
      </trkpt>
      <trkpt lat="42.0396400" lon="-6.9513150">
        <ele>1108.4</ele>
        <time>2019-08-16T15:49:26Z</time>
      </trkpt>
      <trkpt lat="42.0396650" lon="-6.9513710">
        <ele>1108.9</ele>
        <time>2019-08-16T15:49:28Z</time>
      </trkpt>
      <trkpt lat="42.0396870" lon="-6.9514270">
        <ele>1109.3</ele>
        <time>2019-08-16T15:49:30Z</time>
      </trkpt>
      <trkpt lat="42.0397070" lon="-6.9514840">
        <ele>1109.8</ele>
        <time>2019-08-16T15:49:32Z</time>
      </trkpt>
      <trkpt lat="42.0397280" lon="-6.9515390">
        <ele>1110.3</ele>
        <time>2019-08-16T15:49:34Z</time>
      </trkpt>
      <trkpt lat="42.0397460" lon="-6.9515960">
        <ele>1110.9</ele>
        <time>2019-08-16T15:49:36Z</time>
      </trkpt>
      <trkpt lat="42.0397650" lon="-6.9516540">
        <ele>1111.5</ele>
        <time>2019-08-16T15:49:38Z</time>
      </trkpt>
      <trkpt lat="42.0397830" lon="-6.9517130">
        <ele>1112.0</ele>
        <time>2019-08-16T15:49:40Z</time>
      </trkpt>
      <trkpt lat="42.0398000" lon="-6.9517730">
        <ele>1112.5</ele>
        <time>2019-08-16T15:49:42Z</time>
      </trkpt>
      <trkpt lat="42.0398160" lon="-6.9518340">
        <ele>1113.1</ele>
        <time>2019-08-16T15:49:44Z</time>
      </trkpt>
      <trkpt lat="42.0398300" lon="-6.9518970">
        <ele>1113.8</ele>
        <time>2019-08-16T15:49:46Z</time>
      </trkpt>
      <trkpt lat="42.0398460" lon="-6.9519590">
        <ele>1114.3</ele>
        <time>2019-08-16T15:49:48Z</time>
      </trkpt>
      <trkpt lat="42.0398590" lon="-6.9520180">
        <ele>1114.7</ele>
        <time>2019-08-16T15:49:50Z</time>
      </trkpt>
      <trkpt lat="42.0398700" lon="-6.9520800">
        <ele>1115.2</ele>
        <time>2019-08-16T15:49:52Z</time>
      </trkpt>
      <trkpt lat="42.0398790" lon="-6.9521430">
        <ele>1115.6</ele>
        <time>2019-08-16T15:49:54Z</time>
      </trkpt>
      <trkpt lat="42.0398870" lon="-6.9522060">
        <ele>1116.2</ele>
        <time>2019-08-16T15:49:56Z</time>
      </trkpt>
      <trkpt lat="42.0398950" lon="-6.9522710">
        <ele>1116.7</ele>
        <time>2019-08-16T15:49:58Z</time>
      </trkpt>
      <trkpt lat="42.0399050" lon="-6.9523340">
        <ele>1117.2</ele>
        <time>2019-08-16T15:50:00Z</time>
      </trkpt>
      <trkpt lat="42.0399130" lon="-6.9523960">
        <ele>1117.7</ele>
        <time>2019-08-16T15:50:02Z</time>
      </trkpt>
      <trkpt lat="42.0399190" lon="-6.9524600">
        <ele>1118.3</ele>
        <time>2019-08-16T15:50:04Z</time>
      </trkpt>
      <trkpt lat="42.0399220" lon="-6.9525240">
        <ele>1118.9</ele>
        <time>2019-08-16T15:50:06Z</time>
      </trkpt>
      <trkpt lat="42.0399270" lon="-6.9525880">
        <ele>1119.4</ele>
        <time>2019-08-16T15:50:08Z</time>
      </trkpt>
      <trkpt lat="42.0399290" lon="-6.9526440">
        <ele>1119.8</ele>
        <time>2019-08-16T15:50:10Z</time>
      </trkpt>
      <trkpt lat="42.0399300" lon="-6.9526960">
        <ele>1120.2</ele>
        <time>2019-08-16T15:50:12Z</time>
      </trkpt>
      <trkpt lat="42.0399320" lon="-6.9527460">
        <ele>1120.5</ele>
        <time>2019-08-16T15:50:14Z</time>
      </trkpt>
      <trkpt lat="42.0399340" lon="-6.9528000">
        <ele>1120.9</ele>
        <time>2019-08-16T15:50:16Z</time>
      </trkpt>
      <trkpt lat="42.0399340" lon="-6.9528590">
        <ele>1121.4</ele>
        <time>2019-08-16T15:50:18Z</time>
      </trkpt>
      <trkpt lat="42.0399370" lon="-6.9529180">
        <ele>1122.1</ele>
        <time>2019-08-16T15:50:20Z</time>
      </trkpt>
      <trkpt lat="42.0399360" lon="-6.9529750">
        <ele>1122.7</ele>
        <time>2019-08-16T15:50:22Z</time>
      </trkpt>
      <trkpt lat="42.0399310" lon="-6.9530320">
        <ele>1123.1</ele>
        <time>2019-08-16T15:50:24Z</time>
      </trkpt>
      <trkpt lat="42.0399280" lon="-6.9530890">
        <ele>1123.6</ele>
        <time>2019-08-16T15:50:26Z</time>
      </trkpt>
      <trkpt lat="42.0399220" lon="-6.9531480">
        <ele>1124.1</ele>
        <time>2019-08-16T15:50:28Z</time>
      </trkpt>
      <trkpt lat="42.0399170" lon="-6.9532040">
        <ele>1124.5</ele>
        <time>2019-08-16T15:50:30Z</time>
      </trkpt>
      <trkpt lat="42.0399110" lon="-6.9532600">
        <ele>1124.9</ele>
        <time>2019-08-16T15:50:32Z</time>
      </trkpt>
      <trkpt lat="42.0399040" lon="-6.9533170">
        <ele>1125.4</ele>
        <time>2019-08-16T15:50:34Z</time>
      </trkpt>
      <trkpt lat="42.0398950" lon="-6.9533760">
        <ele>1125.9</ele>
        <time>2019-08-16T15:50:36Z</time>
      </trkpt>
      <trkpt lat="42.0398860" lon="-6.9534320">
        <ele>1126.3</ele>
        <time>2019-08-16T15:50:38Z</time>
      </trkpt>
      <trkpt lat="42.0398760" lon="-6.9534890">
        <ele>1126.8</ele>
        <time>2019-08-16T15:50:40Z</time>
      </trkpt>
      <trkpt lat="42.0398660" lon="-6.9535440">
        <ele>1127.3</ele>
        <time>2019-08-16T15:50:42Z</time>
      </trkpt>
      <trkpt lat="42.0398580" lon="-6.9536010">
        <ele>1127.8</ele>
        <time>2019-08-16T15:50:44Z</time>
      </trkpt>
      <trkpt lat="42.0398480" lon="-6.9536540">
        <ele>1128.2</ele>
        <time>2019-08-16T15:50:46Z</time>
      </trkpt>
      <trkpt lat="42.0398370" lon="-6.9537070">
        <ele>1128.7</ele>
        <time>2019-08-16T15:50:48Z</time>
      </trkpt>
      <trkpt lat="42.0398260" lon="-6.9537610">
        <ele>1129.1</ele>
        <time>2019-08-16T15:50:50Z</time>
      </trkpt>
      <trkpt lat="42.0398150" lon="-6.9538130">
        <ele>1129.6</ele>
        <time>2019-08-16T15:50:52Z</time>
      </trkpt>
      <trkpt lat="42.0398070" lon="-6.9538630">
        <ele>1130.0</ele>
        <time>2019-08-16T15:50:54Z</time>
      </trkpt>
      <trkpt lat="42.0398020" lon="-6.9539120">
        <ele>1130.4</ele>
        <time>2019-08-16T15:50:56Z</time>
      </trkpt>
      <trkpt lat="42.0397960" lon="-6.9539610">
        <ele>1130.7</ele>
        <time>2019-08-16T15:50:58Z</time>
      </trkpt>
      <trkpt lat="42.0397850" lon="-6.9540120">
        <ele>1131.0</ele>
        <time>2019-08-16T15:51:00Z</time>
      </trkpt>
      <trkpt lat="42.0397730" lon="-6.9540630">
        <ele>1131.3</ele>
        <time>2019-08-16T15:51:02Z</time>
      </trkpt>
      <trkpt lat="42.0397600" lon="-6.9541090">
        <ele>1131.6</ele>
        <time>2019-08-16T15:51:04Z</time>
      </trkpt>
      <trkpt lat="42.0397510" lon="-6.9541420">
        <ele>1131.8</ele>
        <time>2019-08-16T15:51:06Z</time>
      </trkpt>
      <trkpt lat="42.0397420" lon="-6.9541870">
        <ele>1132.0</ele>
        <time>2019-08-16T15:51:08Z</time>
      </trkpt>
      <trkpt lat="42.0397320" lon="-6.9542360">
        <ele>1132.3</ele>
        <time>2019-08-16T15:51:10Z</time>
      </trkpt>
      <trkpt lat="42.0397200" lon="-6.9542830">
        <ele>1132.6</ele>
        <time>2019-08-16T15:51:12Z</time>
      </trkpt>
      <trkpt lat="42.0397110" lon="-6.9543310">
        <ele>1132.8</ele>
        <time>2019-08-16T15:51:14Z</time>
      </trkpt>
      <trkpt lat="42.0396980" lon="-6.9543760">
        <ele>1133.1</ele>
        <time>2019-08-16T15:51:16Z</time>
      </trkpt>
      <trkpt lat="42.0396920" lon="-6.9544220">
        <ele>1133.4</ele>
        <time>2019-08-16T15:51:18Z</time>
      </trkpt>
      <trkpt lat="42.0396850" lon="-6.9544670">
        <ele>1133.7</ele>
        <time>2019-08-16T15:51:20Z</time>
      </trkpt>
      <trkpt lat="42.0396780" lon="-6.9545150">
        <ele>1134.0</ele>
        <time>2019-08-16T15:51:22Z</time>
      </trkpt>
      <trkpt lat="42.0396720" lon="-6.9545620">
        <ele>1134.3</ele>
        <time>2019-08-16T15:51:24Z</time>
      </trkpt>
      <trkpt lat="42.0396690" lon="-6.9546080">
        <ele>1134.6</ele>
        <time>2019-08-16T15:51:26Z</time>
      </trkpt>
      <trkpt lat="42.0396660" lon="-6.9546530">
        <ele>1134.9</ele>
        <time>2019-08-16T15:51:28Z</time>
      </trkpt>
      <trkpt lat="42.0396650" lon="-6.9546990">
        <ele>1135.2</ele>
        <time>2019-08-16T15:51:30Z</time>
      </trkpt>
      <trkpt lat="42.0396620" lon="-6.9547460">
        <ele>1135.5</ele>
        <time>2019-08-16T15:51:32Z</time>
      </trkpt>
      <trkpt lat="42.0396570" lon="-6.9547940">
        <ele>1135.8</ele>
        <time>2019-08-16T15:51:34Z</time>
      </trkpt>
      <trkpt lat="42.0396520" lon="-6.9548380">
        <ele>1136.1</ele>
        <time>2019-08-16T15:51:36Z</time>
      </trkpt>
      <trkpt lat="42.0396500" lon="-6.9548820">
        <ele>1136.4</ele>
        <time>2019-08-16T15:51:38Z</time>
      </trkpt>
      <trkpt lat="42.0396520" lon="-6.9549300">
        <ele>1136.7</ele>
        <time>2019-08-16T15:51:40Z</time>
      </trkpt>
      <trkpt lat="42.0396510" lon="-6.9549790">
        <ele>1137.1</ele>
        <time>2019-08-16T15:51:42Z</time>
      </trkpt>
      <trkpt lat="42.0396480" lon="-6.9550280">
        <ele>1137.4</ele>
        <time>2019-08-16T15:51:44Z</time>
      </trkpt>
      <trkpt lat="42.0396460" lon="-6.9550760">
        <ele>1137.8</ele>
        <time>2019-08-16T15:51:46Z</time>
      </trkpt>
      <trkpt lat="42.0396460" lon="-6.9551260">
        <ele>1138.1</ele>
        <time>2019-08-16T15:51:48Z</time>
      </trkpt>
      <trkpt lat="42.0396480" lon="-6.9551750">
        <ele>1138.4</ele>
        <time>2019-08-16T15:51:50Z</time>
      </trkpt>
      <trkpt lat="42.0396510" lon="-6.9552220">
        <ele>1138.7</ele>
        <time>2019-08-16T15:51:52Z</time>
      </trkpt>
      <trkpt lat="42.0396540" lon="-6.9552720">
        <ele>1139.0</ele>
        <time>2019-08-16T15:51:54Z</time>
      </trkpt>
      <trkpt lat="42.0396540" lon="-6.9553220">
        <ele>1139.4</ele>
        <time>2019-08-16T15:51:56Z</time>
      </trkpt>
      <trkpt lat="42.0396530" lon="-6.9553720">
        <ele>1139.7</ele>
        <time>2019-08-16T15:51:58Z</time>
      </trkpt>
      <trkpt lat="42.0396540" lon="-6.9554210">
        <ele>1140.1</ele>
        <time>2019-08-16T15:52:00Z</time>
      </trkpt>
      <trkpt lat="42.0396570" lon="-6.9554700">
        <ele>1140.5</ele>
        <time>2019-08-16T15:52:02Z</time>
      </trkpt>
      <trkpt lat="42.0396590" lon="-6.9555190">
        <ele>1140.8</ele>
        <time>2019-08-16T15:52:04Z</time>
      </trkpt>
      <trkpt lat="42.0396590" lon="-6.9555680">
        <ele>1141.2</ele>
        <time>2019-08-16T15:52:06Z</time>
      </trkpt>
      <trkpt lat="42.0396620" lon="-6.9556180">
        <ele>1141.6</ele>
        <time>2019-08-16T15:52:08Z</time>
      </trkpt>
      <trkpt lat="42.0396630" lon="-6.9556650">
        <ele>1141.9</ele>
        <time>2019-08-16T15:52:10Z</time>
      </trkpt>
      <trkpt lat="42.0396650" lon="-6.9557130">
        <ele>1142.2</ele>
        <time>2019-08-16T15:52:12Z</time>
      </trkpt>
      <trkpt lat="42.0396680" lon="-6.9557620">
        <ele>1142.6</ele>
        <time>2019-08-16T15:52:14Z</time>
      </trkpt>
      <trkpt lat="42.0396680" lon="-6.9558120">
        <ele>1142.9</ele>
        <time>2019-08-16T15:52:16Z</time>
      </trkpt>
      <trkpt lat="42.0396670" lon="-6.9558600">
        <ele>1143.3</ele>
        <time>2019-08-16T15:52:18Z</time>
      </trkpt>
      <trkpt lat="42.0396710" lon="-6.9559080">
        <ele>1143.6</ele>
        <time>2019-08-16T15:52:20Z</time>
      </trkpt>
      <trkpt lat="42.0396750" lon="-6.9559590">
        <ele>1144.0</ele>
        <time>2019-08-16T15:52:22Z</time>
      </trkpt>
      <trkpt lat="42.0396760" lon="-6.9560100">
        <ele>1144.4</ele>
        <time>2019-08-16T15:52:24Z</time>
      </trkpt>
      <trkpt lat="42.0396790" lon="-6.9560610">
        <ele>1144.8</ele>
        <time>2019-08-16T15:52:26Z</time>
      </trkpt>
      <trkpt lat="42.0396800" lon="-6.9561130">
        <ele>1145.2</ele>
        <time>2019-08-16T15:52:28Z</time>
      </trkpt>
      <trkpt lat="42.0396810" lon="-6.9561650">
        <ele>1145.6</ele>
        <time>2019-08-16T15:52:30Z</time>
      </trkpt>
      <trkpt lat="42.0396820" lon="-6.9562170">
        <ele>1146.0</ele>
        <time>2019-08-16T15:52:32Z</time>
      </trkpt>
      <trkpt lat="42.0396840" lon="-6.9562690">
        <ele>1146.4</ele>
        <time>2019-08-16T15:52:34Z</time>
      </trkpt>
      <trkpt lat="42.0396850" lon="-6.9563220">
        <ele>1146.8</ele>
        <time>2019-08-16T15:52:36Z</time>
      </trkpt>
      <trkpt lat="42.0396880" lon="-6.9563740">
        <ele>1147.1</ele>
        <time>2019-08-16T15:52:38Z</time>
      </trkpt>
      <trkpt lat="42.0396890" lon="-6.9564270">
        <ele>1147.5</ele>
        <time>2019-08-16T15:52:40Z</time>
      </trkpt>
      <trkpt lat="42.0396900" lon="-6.9564800">
        <ele>1147.9</ele>
        <time>2019-08-16T15:52:42Z</time>
      </trkpt>
      <trkpt lat="42.0396930" lon="-6.9565330">
        <ele>1148.2</ele>
        <time>2019-08-16T15:52:44Z</time>
      </trkpt>
      <trkpt lat="42.0396930" lon="-6.9565870">
        <ele>1148.6</ele>
        <time>2019-08-16T15:52:46Z</time>
      </trkpt>
      <trkpt lat="42.0396940" lon="-6.9566400">
        <ele>1149.0</ele>
        <time>2019-08-16T15:52:48Z</time>
      </trkpt>
      <trkpt lat="42.0396970" lon="-6.9566930">
        <ele>1149.3</ele>
        <time>2019-08-16T15:52:50Z</time>
      </trkpt>
      <trkpt lat="42.0396990" lon="-6.9567470">
        <ele>1149.7</ele>
        <time>2019-08-16T15:52:52Z</time>
      </trkpt>
      <trkpt lat="42.0397010" lon="-6.9568010">
        <ele>1150.1</ele>
        <time>2019-08-16T15:52:54Z</time>
      </trkpt>
      <trkpt lat="42.0397050" lon="-6.9568560">
        <ele>1150.5</ele>
        <time>2019-08-16T15:52:56Z</time>
      </trkpt>
      <trkpt lat="42.0397070" lon="-6.9569130">
        <ele>1150.8</ele>
        <time>2019-08-16T15:52:58Z</time>
      </trkpt>
      <trkpt lat="42.0397090" lon="-6.9569690">
        <ele>1151.2</ele>
        <time>2019-08-16T15:53:00Z</time>
      </trkpt>
      <trkpt lat="42.0397100" lon="-6.9570260">
        <ele>1151.5</ele>
        <time>2019-08-16T15:53:02Z</time>
      </trkpt>
      <trkpt lat="42.0397130" lon="-6.9570840">
        <ele>1151.9</ele>
        <time>2019-08-16T15:53:04Z</time>
      </trkpt>
      <trkpt lat="42.0397190" lon="-6.9571430">
        <ele>1152.2</ele>
        <time>2019-08-16T15:53:06Z</time>
      </trkpt>
      <trkpt lat="42.0397200" lon="-6.9572040">
        <ele>1152.5</ele>
        <time>2019-08-16T15:53:08Z</time>
      </trkpt>
      <trkpt lat="42.0397230" lon="-6.9572670">
        <ele>1152.9</ele>
        <time>2019-08-16T15:53:10Z</time>
      </trkpt>
      <trkpt lat="42.0397250" lon="-6.9573300">
        <ele>1153.2</ele>
        <time>2019-08-16T15:53:12Z</time>
      </trkpt>
      <trkpt lat="42.0397280" lon="-6.9573930">
        <ele>1153.5</ele>
        <time>2019-08-16T15:53:14Z</time>
      </trkpt>
      <trkpt lat="42.0397310" lon="-6.9574580">
        <ele>1153.9</ele>
        <time>2019-08-16T15:53:16Z</time>
      </trkpt>
      <trkpt lat="42.0397330" lon="-6.9575280">
        <ele>1154.2</ele>
        <time>2019-08-16T15:53:18Z</time>
      </trkpt>
      <trkpt lat="42.0397370" lon="-6.9575980">
        <ele>1154.5</ele>
        <time>2019-08-16T15:53:20Z</time>
      </trkpt>
      <trkpt lat="42.0397380" lon="-6.9576510">
        <ele>1154.7</ele>
        <time>2019-08-16T15:53:22Z</time>
      </trkpt>
      <trkpt lat="42.0397410" lon="-6.9576990">
        <ele>1154.8</ele>
        <time>2019-08-16T15:53:24Z</time>
      </trkpt>
      <trkpt lat="42.0397450" lon="-6.9577600">
        <ele>1155.0</ele>
        <time>2019-08-16T15:53:26Z</time>
      </trkpt>
      <trkpt lat="42.0397480" lon="-6.9578290">
        <ele>1155.2</ele>
        <time>2019-08-16T15:53:28Z</time>
      </trkpt>
      <trkpt lat="42.0397540" lon="-6.9579020">
        <ele>1155.4</ele>
        <time>2019-08-16T15:53:30Z</time>
      </trkpt>
      <trkpt lat="42.0397550" lon="-6.9579390">
        <ele>1155.5</ele>
        <time>2019-08-16T15:53:31Z</time>
      </trkpt>
      <trkpt lat="42.0397560" lon="-6.9579760">
        <ele>1155.7</ele>
        <time>2019-08-16T15:53:32Z</time>
      </trkpt>
      <trkpt lat="42.0397580" lon="-6.9580150">
        <ele>1155.8</ele>
        <time>2019-08-16T15:53:33Z</time>
      </trkpt>
      <trkpt lat="42.0397610" lon="-6.9580530">
        <ele>1155.9</ele>
        <time>2019-08-16T15:53:34Z</time>
      </trkpt>
      <trkpt lat="42.0397640" lon="-6.9580910">
        <ele>1156.0</ele>
        <time>2019-08-16T15:53:35Z</time>
      </trkpt>
      <trkpt lat="42.0397670" lon="-6.9581290">
        <ele>1156.1</ele>
        <time>2019-08-16T15:53:36Z</time>
      </trkpt>
      <trkpt lat="42.0397700" lon="-6.9581680">
        <ele>1156.2</ele>
        <time>2019-08-16T15:53:37Z</time>
      </trkpt>
      <trkpt lat="42.0397730" lon="-6.9582060">
        <ele>1156.4</ele>
        <time>2019-08-16T15:53:38Z</time>
      </trkpt>
      <trkpt lat="42.0397750" lon="-6.9582450">
        <ele>1156.5</ele>
        <time>2019-08-16T15:53:39Z</time>
      </trkpt>
      <trkpt lat="42.0397780" lon="-6.9582830">
        <ele>1156.6</ele>
        <time>2019-08-16T15:53:40Z</time>
      </trkpt>
      <trkpt lat="42.0397810" lon="-6.9583220">
        <ele>1156.7</ele>
        <time>2019-08-16T15:53:41Z</time>
      </trkpt>
      <trkpt lat="42.0397840" lon="-6.9583580">
        <ele>1156.8</ele>
        <time>2019-08-16T15:53:42Z</time>
      </trkpt>
      <trkpt lat="42.0397850" lon="-6.9583920">
        <ele>1156.9</ele>
        <time>2019-08-16T15:53:43Z</time>
      </trkpt>
      <trkpt lat="42.0397850" lon="-6.9584620">
        <ele>1157.1</ele>
        <time>2019-08-16T15:53:45Z</time>
      </trkpt>
      <trkpt lat="42.0397850" lon="-6.9585360">
        <ele>1157.3</ele>
        <time>2019-08-16T15:53:47Z</time>
      </trkpt>
      <trkpt lat="42.0397840" lon="-6.9585690">
        <ele>1157.4</ele>
        <time>2019-08-16T15:53:48Z</time>
      </trkpt>
      <trkpt lat="42.0397850" lon="-6.9586310">
        <ele>1157.6</ele>
        <time>2019-08-16T15:53:50Z</time>
      </trkpt>
      <trkpt lat="42.0397880" lon="-6.9587000">
        <ele>1157.8</ele>
        <time>2019-08-16T15:53:52Z</time>
      </trkpt>
      <trkpt lat="42.0397910" lon="-6.9587790">
        <ele>1158.0</ele>
        <time>2019-08-16T15:53:54Z</time>
      </trkpt>
      <trkpt lat="42.0397910" lon="-6.9588210">
        <ele>1158.1</ele>
        <time>2019-08-16T15:53:55Z</time>
      </trkpt>
      <trkpt lat="42.0397910" lon="-6.9588640">
        <ele>1158.2</ele>
        <time>2019-08-16T15:53:56Z</time>
      </trkpt>
      <trkpt lat="42.0397910" lon="-6.9589080">
        <ele>1158.4</ele>
        <time>2019-08-16T15:53:57Z</time>
      </trkpt>
      <trkpt lat="42.0397900" lon="-6.9589520">
        <ele>1158.5</ele>
        <time>2019-08-16T15:53:58Z</time>
      </trkpt>
      <trkpt lat="42.0397880" lon="-6.9589960">
        <ele>1158.6</ele>
        <time>2019-08-16T15:53:59Z</time>
      </trkpt>
      <trkpt lat="42.0397880" lon="-6.9590410">
        <ele>1158.7</ele>
        <time>2019-08-16T15:54:00Z</time>
      </trkpt>
      <trkpt lat="42.0397880" lon="-6.9590880">
        <ele>1158.8</ele>
        <time>2019-08-16T15:54:01Z</time>
      </trkpt>
      <trkpt lat="42.0397880" lon="-6.9591380">
        <ele>1158.9</ele>
        <time>2019-08-16T15:54:02Z</time>
      </trkpt>
      <trkpt lat="42.0397880" lon="-6.9591890">
        <ele>1159.0</ele>
        <time>2019-08-16T15:54:03Z</time>
      </trkpt>
      <trkpt lat="42.0397860" lon="-6.9592420">
        <ele>1159.1</ele>
        <time>2019-08-16T15:54:04Z</time>
      </trkpt>
      <trkpt lat="42.0397830" lon="-6.9592940">
        <ele>1159.2</ele>
        <time>2019-08-16T15:54:05Z</time>
      </trkpt>
      <trkpt lat="42.0397810" lon="-6.9593470">
        <ele>1159.3</ele>
        <time>2019-08-16T15:54:06Z</time>
      </trkpt>
      <trkpt lat="42.0397800" lon="-6.9593970">
        <ele>1159.3</ele>
        <time>2019-08-16T15:54:07Z</time>
      </trkpt>
      <trkpt lat="42.0397780" lon="-6.9594470">
        <ele>1159.4</ele>
        <time>2019-08-16T15:54:08Z</time>
      </trkpt>
      <trkpt lat="42.0397750" lon="-6.9594950">
        <ele>1159.5</ele>
        <time>2019-08-16T15:54:09Z</time>
      </trkpt>
      <trkpt lat="42.0397720" lon="-6.9595420">
        <ele>1159.5</ele>
        <time>2019-08-16T15:54:10Z</time>
      </trkpt>
      <trkpt lat="42.0397660" lon="-6.9595900">
        <ele>1159.6</ele>
        <time>2019-08-16T15:54:11Z</time>
      </trkpt>
      <trkpt lat="42.0397580" lon="-6.9596380">
        <ele>1159.6</ele>
        <time>2019-08-16T15:54:12Z</time>
      </trkpt>
      <trkpt lat="42.0397480" lon="-6.9596870">
        <ele>1159.6</ele>
        <time>2019-08-16T15:54:13Z</time>
      </trkpt>
      <trkpt lat="42.0397370" lon="-6.9597360">
        <ele>1159.7</ele>
        <time>2019-08-16T15:54:14Z</time>
      </trkpt>
      <trkpt lat="42.0397250" lon="-6.9597870">
        <ele>1159.8</ele>
        <time>2019-08-16T15:54:15Z</time>
      </trkpt>
      <trkpt lat="42.0397120" lon="-6.9598390">
        <ele>1159.8</ele>
        <time>2019-08-16T15:54:16Z</time>
      </trkpt>
      <trkpt lat="42.0396980" lon="-6.9598880">
        <ele>1159.9</ele>
        <time>2019-08-16T15:54:17Z</time>
      </trkpt>
      <trkpt lat="42.0396830" lon="-6.9599340">
        <ele>1160.0</ele>
        <time>2019-08-16T15:54:18Z</time>
      </trkpt>
      <trkpt lat="42.0396660" lon="-6.9599800">
        <ele>1160.0</ele>
        <time>2019-08-16T15:54:19Z</time>
      </trkpt>
      <trkpt lat="42.0396470" lon="-6.9600210">
        <ele>1160.1</ele>
        <time>2019-08-16T15:54:20Z</time>
      </trkpt>
      <trkpt lat="42.0396260" lon="-6.9600580">
        <ele>1160.2</ele>
        <time>2019-08-16T15:54:21Z</time>
      </trkpt>
      <trkpt lat="42.0396040" lon="-6.9600960">
        <ele>1160.3</ele>
        <time>2019-08-16T15:54:22Z</time>
      </trkpt>
      <trkpt lat="42.0395810" lon="-6.9601340">
        <ele>1160.4</ele>
        <time>2019-08-16T15:54:23Z</time>
      </trkpt>
      <trkpt lat="42.0395550" lon="-6.9601700">
        <ele>1160.5</ele>
        <time>2019-08-16T15:54:24Z</time>
      </trkpt>
      <trkpt lat="42.0395290" lon="-6.9602060">
        <ele>1160.6</ele>
        <time>2019-08-16T15:54:25Z</time>
      </trkpt>
      <trkpt lat="42.0395010" lon="-6.9602420">
        <ele>1160.7</ele>
        <time>2019-08-16T15:54:26Z</time>
      </trkpt>
      <trkpt lat="42.0394730" lon="-6.9602770">
        <ele>1160.8</ele>
        <time>2019-08-16T15:54:27Z</time>
      </trkpt>
      <trkpt lat="42.0394430" lon="-6.9603110">
        <ele>1161.0</ele>
        <time>2019-08-16T15:54:28Z</time>
      </trkpt>
      <trkpt lat="42.0394120" lon="-6.9603440">
        <ele>1161.1</ele>
        <time>2019-08-16T15:54:29Z</time>
      </trkpt>
      <trkpt lat="42.0393730" lon="-6.9603760">
        <ele>1161.2</ele>
        <time>2019-08-16T15:54:30Z</time>
      </trkpt>
      <trkpt lat="42.0393370" lon="-6.9604050">
        <ele>1161.3</ele>
        <time>2019-08-16T15:54:31Z</time>
      </trkpt>
      <trkpt lat="42.0393060" lon="-6.9604370">
        <ele>1161.4</ele>
        <time>2019-08-16T15:54:32Z</time>
      </trkpt>
      <trkpt lat="42.0392830" lon="-6.9604740">
        <ele>1161.5</ele>
        <time>2019-08-16T15:54:33Z</time>
      </trkpt>
      <trkpt lat="42.0392700" lon="-6.9605050">
        <ele>1161.6</ele>
        <time>2019-08-16T15:54:34Z</time>
      </trkpt>
      <trkpt lat="42.0392710" lon="-6.9605340">
        <ele>1161.6</ele>
        <time>2019-08-16T15:54:35Z</time>
      </trkpt>
      <trkpt lat="42.0392080" lon="-6.9606160">
        <ele>1161.9</ele>
        <time>2019-08-16T15:54:37Z</time>
      </trkpt>
      <trkpt lat="42.0391790" lon="-6.9606560">
        <ele>1162.0</ele>
        <time>2019-08-16T15:54:38Z</time>
      </trkpt>
      <trkpt lat="42.0391260" lon="-6.9606390">
        <ele>1162.1</ele>
        <time>2019-08-16T15:54:39Z</time>
      </trkpt>
      <trkpt lat="42.0391020" lon="-6.9606610">
        <ele>1162.2</ele>
        <time>2019-08-16T15:54:40Z</time>
      </trkpt>
      <trkpt lat="42.0390690" lon="-6.9606910">
        <ele>1162.3</ele>
        <time>2019-08-16T15:54:41Z</time>
      </trkpt>
      <trkpt lat="42.0390330" lon="-6.9607090">
        <ele>1162.5</ele>
        <time>2019-08-16T15:54:42Z</time>
      </trkpt>
      <trkpt lat="42.0390090" lon="-6.9607360">
        <ele>1162.6</ele>
        <time>2019-08-16T15:54:43Z</time>
      </trkpt>
      <trkpt lat="42.0389790" lon="-6.9607590">
        <ele>1162.7</ele>
        <time>2019-08-16T15:54:44Z</time>
      </trkpt>
      <trkpt lat="42.0389490" lon="-6.9607750">
        <ele>1162.8</ele>
        <time>2019-08-16T15:54:45Z</time>
      </trkpt>
      <trkpt lat="42.0389290" lon="-6.9607990">
        <ele>1162.9</ele>
        <time>2019-08-16T15:54:46Z</time>
      </trkpt>
      <trkpt lat="42.0388920" lon="-6.9608520">
        <ele>1163.2</ele>
        <time>2019-08-16T15:54:48Z</time>
      </trkpt>
      <trkpt lat="42.0388610" lon="-6.9609060">
        <ele>1163.4</ele>
        <time>2019-08-16T15:54:50Z</time>
      </trkpt>
      <trkpt lat="42.0388400" lon="-6.9609640">
        <ele>1163.7</ele>
        <time>2019-08-16T15:54:52Z</time>
      </trkpt>
      <trkpt lat="42.0388220" lon="-6.9610140">
        <ele>1163.9</ele>
        <time>2019-08-16T15:54:54Z</time>
      </trkpt>
      <trkpt lat="42.0388070" lon="-6.9610670">
        <ele>1164.2</ele>
        <time>2019-08-16T15:54:56Z</time>
      </trkpt>
      <trkpt lat="42.0387930" lon="-6.9611230">
        <ele>1164.4</ele>
        <time>2019-08-16T15:54:58Z</time>
      </trkpt>
      <trkpt lat="42.0387810" lon="-6.9611740">
        <ele>1164.7</ele>
        <time>2019-08-16T15:55:00Z</time>
      </trkpt>
      <trkpt lat="42.0387700" lon="-6.9612240">
        <ele>1165.1</ele>
        <time>2019-08-16T15:55:02Z</time>
      </trkpt>
      <trkpt lat="42.0387570" lon="-6.9612710">
        <ele>1165.5</ele>
        <time>2019-08-16T15:55:04Z</time>
      </trkpt>
      <trkpt lat="42.0387490" lon="-6.9613190">
        <ele>1165.9</ele>
        <time>2019-08-16T15:55:06Z</time>
      </trkpt>
      <trkpt lat="42.0387490" lon="-6.9613670">
        <ele>1166.3</ele>
        <time>2019-08-16T15:55:08Z</time>
      </trkpt>
      <trkpt lat="42.0387460" lon="-6.9614160">
        <ele>1166.6</ele>
        <time>2019-08-16T15:55:10Z</time>
      </trkpt>
      <trkpt lat="42.0387470" lon="-6.9614650">
        <ele>1167.1</ele>
        <time>2019-08-16T15:55:12Z</time>
      </trkpt>
      <trkpt lat="42.0387470" lon="-6.9615170">
        <ele>1167.5</ele>
        <time>2019-08-16T15:55:14Z</time>
      </trkpt>
      <trkpt lat="42.0387470" lon="-6.9615700">
        <ele>1168.0</ele>
        <time>2019-08-16T15:55:16Z</time>
      </trkpt>
      <trkpt lat="42.0387470" lon="-6.9616240">
        <ele>1168.4</ele>
        <time>2019-08-16T15:55:18Z</time>
      </trkpt>
      <trkpt lat="42.0387520" lon="-6.9616760">
        <ele>1168.8</ele>
        <time>2019-08-16T15:55:20Z</time>
      </trkpt>
      <trkpt lat="42.0387560" lon="-6.9617280">
        <ele>1169.2</ele>
        <time>2019-08-16T15:55:22Z</time>
      </trkpt>
      <trkpt lat="42.0387550" lon="-6.9617790">
        <ele>1169.6</ele>
        <time>2019-08-16T15:55:24Z</time>
      </trkpt>
      <trkpt lat="42.0387590" lon="-6.9618300">
        <ele>1170.0</ele>
        <time>2019-08-16T15:55:26Z</time>
      </trkpt>
      <trkpt lat="42.0387640" lon="-6.9618820">
        <ele>1170.4</ele>
        <time>2019-08-16T15:55:28Z</time>
      </trkpt>
      <trkpt lat="42.0387670" lon="-6.9619320">
        <ele>1170.8</ele>
        <time>2019-08-16T15:55:30Z</time>
      </trkpt>
      <trkpt lat="42.0387700" lon="-6.9619800">
        <ele>1171.2</ele>
        <time>2019-08-16T15:55:32Z</time>
      </trkpt>
      <trkpt lat="42.0387710" lon="-6.9620290">
        <ele>1171.6</ele>
        <time>2019-08-16T15:55:34Z</time>
      </trkpt>
      <trkpt lat="42.0387710" lon="-6.9620770">
        <ele>1172.0</ele>
        <time>2019-08-16T15:55:36Z</time>
      </trkpt>
      <trkpt lat="42.0387710" lon="-6.9621270">
        <ele>1172.3</ele>
        <time>2019-08-16T15:55:38Z</time>
      </trkpt>
      <trkpt lat="42.0387730" lon="-6.9621790">
        <ele>1172.7</ele>
        <time>2019-08-16T15:55:40Z</time>
      </trkpt>
      <trkpt lat="42.0387730" lon="-6.9622270">
        <ele>1173.1</ele>
        <time>2019-08-16T15:55:42Z</time>
      </trkpt>
      <trkpt lat="42.0387680" lon="-6.9622740">
        <ele>1173.4</ele>
        <time>2019-08-16T15:55:44Z</time>
      </trkpt>
      <trkpt lat="42.0387670" lon="-6.9623240">
        <ele>1173.8</ele>
        <time>2019-08-16T15:55:46Z</time>
      </trkpt>
      <trkpt lat="42.0387680" lon="-6.9623730">
        <ele>1174.2</ele>
        <time>2019-08-16T15:55:48Z</time>
      </trkpt>
      <trkpt lat="42.0387700" lon="-6.9624220">
        <ele>1174.6</ele>
        <time>2019-08-16T15:55:50Z</time>
      </trkpt>
      <trkpt lat="42.0387680" lon="-6.9624690">
        <ele>1175.0</ele>
        <time>2019-08-16T15:55:52Z</time>
      </trkpt>
      <trkpt lat="42.0387670" lon="-6.9625170">
        <ele>1175.3</ele>
        <time>2019-08-16T15:55:54Z</time>
      </trkpt>
      <trkpt lat="42.0387640" lon="-6.9625630">
        <ele>1175.7</ele>
        <time>2019-08-16T15:55:56Z</time>
      </trkpt>
      <trkpt lat="42.0387590" lon="-6.9626090">
        <ele>1176.0</ele>
        <time>2019-08-16T15:55:58Z</time>
      </trkpt>
      <trkpt lat="42.0387530" lon="-6.9626570">
        <ele>1176.4</ele>
        <time>2019-08-16T15:56:00Z</time>
      </trkpt>
      <trkpt lat="42.0387490" lon="-6.9627030">
        <ele>1176.7</ele>
        <time>2019-08-16T15:56:02Z</time>
      </trkpt>
      <trkpt lat="42.0387440" lon="-6.9627490">
        <ele>1177.1</ele>
        <time>2019-08-16T15:56:04Z</time>
      </trkpt>
      <trkpt lat="42.0387390" lon="-6.9627940">
        <ele>1177.4</ele>
        <time>2019-08-16T15:56:06Z</time>
      </trkpt>
      <trkpt lat="42.0387330" lon="-6.9628390">
        <ele>1177.7</ele>
        <time>2019-08-16T15:56:08Z</time>
      </trkpt>
      <trkpt lat="42.0387270" lon="-6.9628840">
        <ele>1178.0</ele>
        <time>2019-08-16T15:56:10Z</time>
      </trkpt>
      <trkpt lat="42.0387220" lon="-6.9629290">
        <ele>1178.3</ele>
        <time>2019-08-16T15:56:12Z</time>
      </trkpt>
      <trkpt lat="42.0387190" lon="-6.9629730">
        <ele>1178.6</ele>
        <time>2019-08-16T15:56:14Z</time>
      </trkpt>
      <trkpt lat="42.0387130" lon="-6.9630160">
        <ele>1179.0</ele>
        <time>2019-08-16T15:56:16Z</time>
      </trkpt>
      <trkpt lat="42.0387040" lon="-6.9630610">
        <ele>1179.3</ele>
        <time>2019-08-16T15:56:18Z</time>
      </trkpt>
      <trkpt lat="42.0386990" lon="-6.9631050">
        <ele>1179.6</ele>
        <time>2019-08-16T15:56:20Z</time>
      </trkpt>
      <trkpt lat="42.0386960" lon="-6.9631520">
        <ele>1180.0</ele>
        <time>2019-08-16T15:56:22Z</time>
      </trkpt>
      <trkpt lat="42.0386880" lon="-6.9631970">
        <ele>1180.4</ele>
        <time>2019-08-16T15:56:24Z</time>
      </trkpt>
      <trkpt lat="42.0386830" lon="-6.9632410">
        <ele>1180.7</ele>
        <time>2019-08-16T15:56:26Z</time>
      </trkpt>
      <trkpt lat="42.0386780" lon="-6.9632860">
        <ele>1181.1</ele>
        <time>2019-08-16T15:56:28Z</time>
      </trkpt>
      <trkpt lat="42.0386710" lon="-6.9633300">
        <ele>1181.5</ele>
        <time>2019-08-16T15:56:30Z</time>
      </trkpt>
      <trkpt lat="42.0386650" lon="-6.9633750">
        <ele>1181.8</ele>
        <time>2019-08-16T15:56:32Z</time>
      </trkpt>
      <trkpt lat="42.0386570" lon="-6.9634200">
        <ele>1182.2</ele>
        <time>2019-08-16T15:56:34Z</time>
      </trkpt>
      <trkpt lat="42.0386500" lon="-6.9634660">
        <ele>1182.5</ele>
        <time>2019-08-16T15:56:36Z</time>
      </trkpt>
      <trkpt lat="42.0386440" lon="-6.9635110">
        <ele>1182.9</ele>
        <time>2019-08-16T15:56:38Z</time>
      </trkpt>
      <trkpt lat="42.0386390" lon="-6.9635580">
        <ele>1183.2</ele>
        <time>2019-08-16T15:56:40Z</time>
      </trkpt>
      <trkpt lat="42.0386310" lon="-6.9636030">
        <ele>1183.6</ele>
        <time>2019-08-16T15:56:42Z</time>
      </trkpt>
      <trkpt lat="42.0386240" lon="-6.9636490">
        <ele>1183.9</ele>
        <time>2019-08-16T15:56:44Z</time>
      </trkpt>
      <trkpt lat="42.0386180" lon="-6.9636950">
        <ele>1184.2</ele>
        <time>2019-08-16T15:56:46Z</time>
      </trkpt>
      <trkpt lat="42.0386120" lon="-6.9637410">
        <ele>1184.5</ele>
        <time>2019-08-16T15:56:48Z</time>
      </trkpt>
      <trkpt lat="42.0386060" lon="-6.9637880">
        <ele>1184.9</ele>
        <time>2019-08-16T15:56:50Z</time>
      </trkpt>
      <trkpt lat="42.0385980" lon="-6.9638330">
        <ele>1185.2</ele>
        <time>2019-08-16T15:56:52Z</time>
      </trkpt>
      <trkpt lat="42.0385900" lon="-6.9638780">
        <ele>1185.5</ele>
        <time>2019-08-16T15:56:54Z</time>
      </trkpt>
      <trkpt lat="42.0385800" lon="-6.9639230">
        <ele>1185.9</ele>
        <time>2019-08-16T15:56:56Z</time>
      </trkpt>
      <trkpt lat="42.0385760" lon="-6.9639690">
        <ele>1186.2</ele>
        <time>2019-08-16T15:56:58Z</time>
      </trkpt>
      <trkpt lat="42.0385730" lon="-6.9640160">
        <ele>1186.6</ele>
        <time>2019-08-16T15:57:00Z</time>
      </trkpt>
      <trkpt lat="42.0385650" lon="-6.9640630">
        <ele>1187.0</ele>
        <time>2019-08-16T15:57:02Z</time>
      </trkpt>
      <trkpt lat="42.0385570" lon="-6.9641110">
        <ele>1187.5</ele>
        <time>2019-08-16T15:57:04Z</time>
      </trkpt>
      <trkpt lat="42.0385500" lon="-6.9641590">
        <ele>1187.9</ele>
        <time>2019-08-16T15:57:06Z</time>
      </trkpt>
      <trkpt lat="42.0385430" lon="-6.9642090">
        <ele>1188.3</ele>
        <time>2019-08-16T15:57:08Z</time>
      </trkpt>
      <trkpt lat="42.0385360" lon="-6.9642590">
        <ele>1188.7</ele>
        <time>2019-08-16T15:57:10Z</time>
      </trkpt>
      <trkpt lat="42.0385280" lon="-6.9643070">
        <ele>1189.1</ele>
        <time>2019-08-16T15:57:12Z</time>
      </trkpt>
      <trkpt lat="42.0385200" lon="-6.9643550">
        <ele>1189.5</ele>
        <time>2019-08-16T15:57:14Z</time>
      </trkpt>
      <trkpt lat="42.0385140" lon="-6.9644030">
        <ele>1189.9</ele>
        <time>2019-08-16T15:57:16Z</time>
      </trkpt>
      <trkpt lat="42.0385070" lon="-6.9644520">
        <ele>1190.2</ele>
        <time>2019-08-16T15:57:18Z</time>
      </trkpt>
      <trkpt lat="42.0384990" lon="-6.9645000">
        <ele>1190.6</ele>
        <time>2019-08-16T15:57:20Z</time>
      </trkpt>
      <trkpt lat="42.0384920" lon="-6.9645480">
        <ele>1190.9</ele>
        <time>2019-08-16T15:57:22Z</time>
      </trkpt>
      <trkpt lat="42.0384870" lon="-6.9645970">
        <ele>1191.3</ele>
        <time>2019-08-16T15:57:24Z</time>
      </trkpt>
      <trkpt lat="42.0384810" lon="-6.9646450">
        <ele>1191.6</ele>
        <time>2019-08-16T15:57:26Z</time>
      </trkpt>
      <trkpt lat="42.0384750" lon="-6.9646920">
        <ele>1191.9</ele>
        <time>2019-08-16T15:57:28Z</time>
      </trkpt>
      <trkpt lat="42.0384680" lon="-6.9647390">
        <ele>1192.2</ele>
        <time>2019-08-16T15:57:30Z</time>
      </trkpt>
      <trkpt lat="42.0384600" lon="-6.9647870">
        <ele>1192.6</ele>
        <time>2019-08-16T15:57:32Z</time>
      </trkpt>
      <trkpt lat="42.0384540" lon="-6.9648370">
        <ele>1192.9</ele>
        <time>2019-08-16T15:57:34Z</time>
      </trkpt>
      <trkpt lat="42.0384470" lon="-6.9648760">
        <ele>1193.2</ele>
        <time>2019-08-16T15:57:36Z</time>
      </trkpt>
      <trkpt lat="42.0384360" lon="-6.9649290">
        <ele>1193.5</ele>
        <time>2019-08-16T15:57:39Z</time>
      </trkpt>
      <trkpt lat="42.0384300" lon="-6.9649790">
        <ele>1193.8</ele>
        <time>2019-08-16T15:57:41Z</time>
      </trkpt>
      <trkpt lat="42.0384260" lon="-6.9650290">
        <ele>1194.2</ele>
        <time>2019-08-16T15:57:43Z</time>
      </trkpt>
      <trkpt lat="42.0384190" lon="-6.9650790">
        <ele>1194.5</ele>
        <time>2019-08-16T15:57:45Z</time>
      </trkpt>
      <trkpt lat="42.0384130" lon="-6.9651300">
        <ele>1194.8</ele>
        <time>2019-08-16T15:57:47Z</time>
      </trkpt>
      <trkpt lat="42.0384030" lon="-6.9651790">
        <ele>1195.1</ele>
        <time>2019-08-16T15:57:49Z</time>
      </trkpt>
      <trkpt lat="42.0383970" lon="-6.9652300">
        <ele>1195.4</ele>
        <time>2019-08-16T15:57:51Z</time>
      </trkpt>
      <trkpt lat="42.0383890" lon="-6.9652820">
        <ele>1195.8</ele>
        <time>2019-08-16T15:57:53Z</time>
      </trkpt>
      <trkpt lat="42.0383820" lon="-6.9653350">
        <ele>1196.1</ele>
        <time>2019-08-16T15:57:55Z</time>
      </trkpt>
      <trkpt lat="42.0383730" lon="-6.9653890">
        <ele>1196.4</ele>
        <time>2019-08-16T15:57:57Z</time>
      </trkpt>
      <trkpt lat="42.0383660" lon="-6.9654440">
        <ele>1196.7</ele>
        <time>2019-08-16T15:57:59Z</time>
      </trkpt>
      <trkpt lat="42.0383570" lon="-6.9654990">
        <ele>1197.0</ele>
        <time>2019-08-16T15:58:01Z</time>
      </trkpt>
      <trkpt lat="42.0383490" lon="-6.9655530">
        <ele>1197.3</ele>
        <time>2019-08-16T15:58:03Z</time>
      </trkpt>
      <trkpt lat="42.0383410" lon="-6.9656080">
        <ele>1197.6</ele>
        <time>2019-08-16T15:58:05Z</time>
      </trkpt>
      <trkpt lat="42.0383340" lon="-6.9656630">
        <ele>1198.0</ele>
        <time>2019-08-16T15:58:07Z</time>
      </trkpt>
      <trkpt lat="42.0383260" lon="-6.9657190">
        <ele>1198.3</ele>
        <time>2019-08-16T15:58:09Z</time>
      </trkpt>
      <trkpt lat="42.0383170" lon="-6.9657760">
        <ele>1198.6</ele>
        <time>2019-08-16T15:58:11Z</time>
      </trkpt>
      <trkpt lat="42.0383100" lon="-6.9658350">
        <ele>1198.9</ele>
        <time>2019-08-16T15:58:13Z</time>
      </trkpt>
      <trkpt lat="42.0383010" lon="-6.9658930">
        <ele>1199.2</ele>
        <time>2019-08-16T15:58:15Z</time>
      </trkpt>
      <trkpt lat="42.0382910" lon="-6.9659520">
        <ele>1199.5</ele>
        <time>2019-08-16T15:58:17Z</time>
      </trkpt>
      <trkpt lat="42.0382810" lon="-6.9660130">
        <ele>1199.8</ele>
        <time>2019-08-16T15:58:19Z</time>
      </trkpt>
      <trkpt lat="42.0382740" lon="-6.9660760">
        <ele>1200.1</ele>
        <time>2019-08-16T15:58:21Z</time>
      </trkpt>
      <trkpt lat="42.0382640" lon="-6.9661410">
        <ele>1200.5</ele>
        <time>2019-08-16T15:58:23Z</time>
      </trkpt>
      <trkpt lat="42.0382560" lon="-6.9661920">
        <ele>1200.7</ele>
        <time>2019-08-16T15:58:25Z</time>
      </trkpt>
      <trkpt lat="42.0382490" lon="-6.9662340">
        <ele>1200.9</ele>
        <time>2019-08-16T15:58:27Z</time>
      </trkpt>
      <trkpt lat="42.0382410" lon="-6.9662890">
        <ele>1201.1</ele>
        <time>2019-08-16T15:58:29Z</time>
      </trkpt>
      <trkpt lat="42.0382340" lon="-6.9663500">
        <ele>1201.4</ele>
        <time>2019-08-16T15:58:31Z</time>
      </trkpt>
      <trkpt lat="42.0382230" lon="-6.9664080">
        <ele>1201.7</ele>
        <time>2019-08-16T15:58:33Z</time>
      </trkpt>
      <trkpt lat="42.0382150" lon="-6.9664680">
        <ele>1202.0</ele>
        <time>2019-08-16T15:58:35Z</time>
      </trkpt>
      <trkpt lat="42.0382040" lon="-6.9665300">
        <ele>1202.3</ele>
        <time>2019-08-16T15:58:37Z</time>
      </trkpt>
      <trkpt lat="42.0381950" lon="-6.9665910">
        <ele>1202.5</ele>
        <time>2019-08-16T15:58:39Z</time>
      </trkpt>
      <trkpt lat="42.0381870" lon="-6.9666500">
        <ele>1202.8</ele>
        <time>2019-08-16T15:58:41Z</time>
      </trkpt>
      <trkpt lat="42.0381770" lon="-6.9667070">
        <ele>1203.1</ele>
        <time>2019-08-16T15:58:43Z</time>
      </trkpt>
      <trkpt lat="42.0381640" lon="-6.9667650">
        <ele>1203.4</ele>
        <time>2019-08-16T15:58:45Z</time>
      </trkpt>
      <trkpt lat="42.0381510" lon="-6.9668250">
        <ele>1203.7</ele>
        <time>2019-08-16T15:58:47Z</time>
      </trkpt>
      <trkpt lat="42.0381430" lon="-6.9668870">
        <ele>1204.0</ele>
        <time>2019-08-16T15:58:49Z</time>
      </trkpt>
      <trkpt lat="42.0381340" lon="-6.9669530">
        <ele>1204.3</ele>
        <time>2019-08-16T15:58:51Z</time>
      </trkpt>
      <trkpt lat="42.0381250" lon="-6.9670180">
        <ele>1204.5</ele>
        <time>2019-08-16T15:58:53Z</time>
      </trkpt>
      <trkpt lat="42.0381160" lon="-6.9670830">
        <ele>1204.9</ele>
        <time>2019-08-16T15:58:55Z</time>
      </trkpt>
      <trkpt lat="42.0381070" lon="-6.9671460">
        <ele>1205.2</ele>
        <time>2019-08-16T15:58:57Z</time>
      </trkpt>
      <trkpt lat="42.0380970" lon="-6.9672060">
        <ele>1205.4</ele>
        <time>2019-08-16T15:58:59Z</time>
      </trkpt>
      <trkpt lat="42.0380860" lon="-6.9672690">
        <ele>1205.7</ele>
        <time>2019-08-16T15:59:01Z</time>
      </trkpt>
      <trkpt lat="42.0380760" lon="-6.9673330">
        <ele>1205.9</ele>
        <time>2019-08-16T15:59:03Z</time>
      </trkpt>
      <trkpt lat="42.0380640" lon="-6.9673970">
        <ele>1206.2</ele>
        <time>2019-08-16T15:59:05Z</time>
      </trkpt>
      <trkpt lat="42.0380560" lon="-6.9674630">
        <ele>1206.4</ele>
        <time>2019-08-16T15:59:07Z</time>
      </trkpt>
      <trkpt lat="42.0380450" lon="-6.9675280">
        <ele>1206.7</ele>
        <time>2019-08-16T15:59:09Z</time>
      </trkpt>
      <trkpt lat="42.0380340" lon="-6.9675930">
        <ele>1207.0</ele>
        <time>2019-08-16T15:59:11Z</time>
      </trkpt>
      <trkpt lat="42.0380220" lon="-6.9676580">
        <ele>1207.3</ele>
        <time>2019-08-16T15:59:13Z</time>
      </trkpt>
      <trkpt lat="42.0380110" lon="-6.9677240">
        <ele>1207.5</ele>
        <time>2019-08-16T15:59:15Z</time>
      </trkpt>
      <trkpt lat="42.0379980" lon="-6.9677890">
        <ele>1207.8</ele>
        <time>2019-08-16T15:59:17Z</time>
      </trkpt>
      <trkpt lat="42.0379880" lon="-6.9678540">
        <ele>1208.1</ele>
        <time>2019-08-16T15:59:19Z</time>
      </trkpt>
      <trkpt lat="42.0379770" lon="-6.9679180">
        <ele>1208.4</ele>
        <time>2019-08-16T15:59:21Z</time>
      </trkpt>
      <trkpt lat="42.0379660" lon="-6.9679830">
        <ele>1208.7</ele>
        <time>2019-08-16T15:59:23Z</time>
      </trkpt>
      <trkpt lat="42.0379520" lon="-6.9680480">
        <ele>1209.1</ele>
        <time>2019-08-16T15:59:25Z</time>
      </trkpt>
      <trkpt lat="42.0379380" lon="-6.9681140">
        <ele>1209.4</ele>
        <time>2019-08-16T15:59:27Z</time>
      </trkpt>
      <trkpt lat="42.0379210" lon="-6.9681840">
        <ele>1209.8</ele>
        <time>2019-08-16T15:59:29Z</time>
      </trkpt>
      <trkpt lat="42.0379120" lon="-6.9682180">
        <ele>1209.8</ele>
        <time>2019-08-16T15:59:30Z</time>
      </trkpt>
      <trkpt lat="42.0378930" lon="-6.9682840">
        <ele>1209.8</ele>
        <time>2019-08-16T15:59:32Z</time>
      </trkpt>
      <trkpt lat="42.0378670" lon="-6.9683500">
        <ele>1209.7</ele>
        <time>2019-08-16T15:59:34Z</time>
      </trkpt>
      <trkpt lat="42.0378560" lon="-6.9683840">
        <ele>1209.7</ele>
        <time>2019-08-16T15:59:35Z</time>
      </trkpt>
      <trkpt lat="42.0378440" lon="-6.9684180">
        <ele>1209.7</ele>
        <time>2019-08-16T15:59:36Z</time>
      </trkpt>
      <trkpt lat="42.0378310" lon="-6.9684530">
        <ele>1209.6</ele>
        <time>2019-08-16T15:59:37Z</time>
      </trkpt>
      <trkpt lat="42.0378180" lon="-6.9684870">
        <ele>1209.6</ele>
        <time>2019-08-16T15:59:38Z</time>
      </trkpt>
      <trkpt lat="42.0378040" lon="-6.9685190">
        <ele>1209.6</ele>
        <time>2019-08-16T15:59:39Z</time>
      </trkpt>
      <trkpt lat="42.0377920" lon="-6.9685460">
        <ele>1209.6</ele>
        <time>2019-08-16T15:59:40Z</time>
      </trkpt>
      <trkpt lat="42.0377680" lon="-6.9685860">
        <ele>1209.5</ele>
        <time>2019-08-16T15:59:42Z</time>
      </trkpt>
      <trkpt lat="42.0377380" lon="-6.9686350">
        <ele>1209.5</ele>
        <time>2019-08-16T15:59:44Z</time>
      </trkpt>
      <trkpt lat="42.0376990" lon="-6.9686900">
        <ele>1209.4</ele>
        <time>2019-08-16T15:59:46Z</time>
      </trkpt>
      <trkpt lat="42.0376790" lon="-6.9687190">
        <ele>1209.3</ele>
        <time>2019-08-16T15:59:47Z</time>
      </trkpt>
      <trkpt lat="42.0376580" lon="-6.9687480">
        <ele>1209.3</ele>
        <time>2019-08-16T15:59:48Z</time>
      </trkpt>
      <trkpt lat="42.0376370" lon="-6.9687720">
        <ele>1209.2</ele>
        <time>2019-08-16T15:59:49Z</time>
      </trkpt>
      <trkpt lat="42.0376170" lon="-6.9687910">
        <ele>1209.2</ele>
        <time>2019-08-16T15:59:50Z</time>
      </trkpt>
      <trkpt lat="42.0375810" lon="-6.9688420">
        <ele>1209.1</ele>
        <time>2019-08-16T15:59:52Z</time>
      </trkpt>
      <trkpt lat="42.0375630" lon="-6.9688730">
        <ele>1209.0</ele>
        <time>2019-08-16T15:59:53Z</time>
      </trkpt>
      <trkpt lat="42.0375450" lon="-6.9689050">
        <ele>1208.9</ele>
        <time>2019-08-16T15:59:54Z</time>
      </trkpt>
      <trkpt lat="42.0375250" lon="-6.9689350">
        <ele>1208.9</ele>
        <time>2019-08-16T15:59:55Z</time>
      </trkpt>
      <trkpt lat="42.0375040" lon="-6.9689650">
        <ele>1208.8</ele>
        <time>2019-08-16T15:59:56Z</time>
      </trkpt>
      <trkpt lat="42.0374820" lon="-6.9689950">
        <ele>1208.7</ele>
        <time>2019-08-16T15:59:57Z</time>
      </trkpt>
      <trkpt lat="42.0374600" lon="-6.9690220">
        <ele>1208.6</ele>
        <time>2019-08-16T15:59:58Z</time>
      </trkpt>
      <trkpt lat="42.0374450" lon="-6.9690360">
        <ele>1208.6</ele>
        <time>2019-08-16T15:59:59Z</time>
      </trkpt>
      <trkpt lat="42.0374220" lon="-6.9690480">
        <ele>1208.4</ele>
        <time>2019-08-16T16:00:01Z</time>
      </trkpt>
      <trkpt lat="42.0373940" lon="-6.9690550">
        <ele>1208.8</ele>
        <time>2019-08-16T16:00:04Z</time>
      </trkpt>
      <trkpt lat="42.0373650" lon="-6.9690640">
        <ele>1209.2</ele>
        <time>2019-08-16T16:00:08Z</time>
      </trkpt>
      <trkpt lat="42.0373320" lon="-6.9690670">
        <ele>1209.7</ele>
        <time>2019-08-16T16:00:12Z</time>
      </trkpt>
      <trkpt lat="42.0349800" lon="-6.9732390">
        <ele>1221.9</ele>
        <time>2019-08-16T16:02:31Z</time>
      </trkpt>
      <trkpt lat="42.0349800" lon="-6.9732810">
        <ele>1221.9</ele>
        <time>2019-08-16T16:02:32Z</time>
      </trkpt>
      <trkpt lat="42.0349820" lon="-6.9733200">
        <ele>1221.9</ele>
        <time>2019-08-16T16:02:33Z</time>
      </trkpt>
      <trkpt lat="42.0349860" lon="-6.9733560">
        <ele>1221.9</ele>
        <time>2019-08-16T16:02:34Z</time>
      </trkpt>
      <trkpt lat="42.0349900" lon="-6.9733910">
        <ele>1221.9</ele>
        <time>2019-08-16T16:02:35Z</time>
      </trkpt>
      <trkpt lat="42.0349940" lon="-6.9734590">
        <ele>1221.9</ele>
        <time>2019-08-16T16:02:37Z</time>
      </trkpt>
      <trkpt lat="42.0349940" lon="-6.9735330">
        <ele>1221.8</ele>
        <time>2019-08-16T16:02:39Z</time>
      </trkpt>
      <trkpt lat="42.0349960" lon="-6.9736090">
        <ele>1221.8</ele>
        <time>2019-08-16T16:02:41Z</time>
      </trkpt>
      <trkpt lat="42.0349980" lon="-6.9736510">
        <ele>1221.8</ele>
        <time>2019-08-16T16:02:42Z</time>
      </trkpt>
      <trkpt lat="42.0350010" lon="-6.9736930">
        <ele>1221.8</ele>
        <time>2019-08-16T16:02:43Z</time>
      </trkpt>
      <trkpt lat="42.0350030" lon="-6.9737380">
        <ele>1221.8</ele>
        <time>2019-08-16T16:02:44Z</time>
      </trkpt>
      <trkpt lat="42.0350090" lon="-6.9737830">
        <ele>1221.8</ele>
        <time>2019-08-16T16:02:45Z</time>
      </trkpt>
      <trkpt lat="42.0350140" lon="-6.9738300">
        <ele>1221.8</ele>
        <time>2019-08-16T16:02:46Z</time>
      </trkpt>
      <trkpt lat="42.0350190" lon="-6.9738760">
        <ele>1221.8</ele>
        <time>2019-08-16T16:02:47Z</time>
      </trkpt>
      <trkpt lat="42.0350260" lon="-6.9739230">
        <ele>1221.7</ele>
        <time>2019-08-16T16:02:48Z</time>
      </trkpt>
      <trkpt lat="42.0350340" lon="-6.9739700">
        <ele>1221.7</ele>
        <time>2019-08-16T16:02:49Z</time>
      </trkpt>
      <trkpt lat="42.0350420" lon="-6.9740170">
        <ele>1221.7</ele>
        <time>2019-08-16T16:02:50Z</time>
      </trkpt>
      <trkpt lat="42.0350520" lon="-6.9740650">
        <ele>1221.8</ele>
        <time>2019-08-16T16:02:51Z</time>
      </trkpt>
      <trkpt lat="42.0350610" lon="-6.9741130">
        <ele>1221.8</ele>
        <time>2019-08-16T16:02:52Z</time>
      </trkpt>
      <trkpt lat="42.0350720" lon="-6.9741620">
        <ele>1221.8</ele>
        <time>2019-08-16T16:02:53Z</time>
      </trkpt>
      <trkpt lat="42.0350820" lon="-6.9742090">
        <ele>1221.8</ele>
        <time>2019-08-16T16:02:54Z</time>
      </trkpt>
      <trkpt lat="42.0350920" lon="-6.9742560">
        <ele>1221.8</ele>
        <time>2019-08-16T16:02:55Z</time>
      </trkpt>
      <trkpt lat="42.0351030" lon="-6.9743050">
        <ele>1221.8</ele>
        <time>2019-08-16T16:02:56Z</time>
      </trkpt>
      <trkpt lat="42.0351160" lon="-6.9743530">
        <ele>1221.8</ele>
        <time>2019-08-16T16:02:57Z</time>
      </trkpt>
      <trkpt lat="42.0351300" lon="-6.9744030">
        <ele>1221.9</ele>
        <time>2019-08-16T16:02:58Z</time>
      </trkpt>
      <trkpt lat="42.0351450" lon="-6.9744530">
        <ele>1221.9</ele>
        <time>2019-08-16T16:02:59Z</time>
      </trkpt>
      <trkpt lat="42.0351570" lon="-6.9745000">
        <ele>1221.9</ele>
        <time>2019-08-16T16:03:00Z</time>
      </trkpt>
      <trkpt lat="42.0351700" lon="-6.9745450">
        <ele>1221.9</ele>
        <time>2019-08-16T16:03:01Z</time>
      </trkpt>
      <trkpt lat="42.0351830" lon="-6.9745870">
        <ele>1222.0</ele>
        <time>2019-08-16T16:03:02Z</time>
      </trkpt>
      <trkpt lat="42.0351970" lon="-6.9746260">
        <ele>1222.0</ele>
        <time>2019-08-16T16:03:03Z</time>
      </trkpt>
      <trkpt lat="42.0352100" lon="-6.9746620">
        <ele>1222.0</ele>
        <time>2019-08-16T16:03:04Z</time>
      </trkpt>
      <trkpt lat="42.0352230" lon="-6.9746970">
        <ele>1222.1</ele>
        <time>2019-08-16T16:03:05Z</time>
      </trkpt>
      <trkpt lat="42.0352350" lon="-6.9747300">
        <ele>1222.1</ele>
        <time>2019-08-16T16:03:06Z</time>
      </trkpt>
      <trkpt lat="42.0352470" lon="-6.9747620">
        <ele>1222.2</ele>
        <time>2019-08-16T16:03:07Z</time>
      </trkpt>
      <trkpt lat="42.0352640" lon="-6.9747960">
        <ele>1222.3</ele>
        <time>2019-08-16T16:03:08Z</time>
      </trkpt>
      <trkpt lat="42.0352820" lon="-6.9748330">
        <ele>1222.3</ele>
        <time>2019-08-16T16:03:09Z</time>
      </trkpt>
      <trkpt lat="42.0353020" lon="-6.9748720">
        <ele>1222.4</ele>
        <time>2019-08-16T16:03:10Z</time>
      </trkpt>
      <trkpt lat="42.0353210" lon="-6.9749130">
        <ele>1222.5</ele>
        <time>2019-08-16T16:03:11Z</time>
      </trkpt>
      <trkpt lat="42.0353410" lon="-6.9749560">
        <ele>1222.6</ele>
        <time>2019-08-16T16:03:12Z</time>
      </trkpt>
      <trkpt lat="42.0353620" lon="-6.9749990">
        <ele>1222.8</ele>
        <time>2019-08-16T16:03:13Z</time>
      </trkpt>
      <trkpt lat="42.0353860" lon="-6.9750410">
        <ele>1222.9</ele>
        <time>2019-08-16T16:03:14Z</time>
      </trkpt>
      <trkpt lat="42.0354100" lon="-6.9750800">
        <ele>1223.0</ele>
        <time>2019-08-16T16:03:15Z</time>
      </trkpt>
      <trkpt lat="42.0354330" lon="-6.9751160">
        <ele>1223.1</ele>
        <time>2019-08-16T16:03:16Z</time>
      </trkpt>
      <trkpt lat="42.0354540" lon="-6.9751490">
        <ele>1223.1</ele>
        <time>2019-08-16T16:03:17Z</time>
      </trkpt>
      <trkpt lat="42.0354720" lon="-6.9751820">
        <ele>1223.2</ele>
        <time>2019-08-16T16:03:18Z</time>
      </trkpt>
      <trkpt lat="42.0354880" lon="-6.9752120">
        <ele>1223.3</ele>
        <time>2019-08-16T16:03:19Z</time>
      </trkpt>
      <trkpt lat="42.0355050" lon="-6.9752390">
        <ele>1223.3</ele>
        <time>2019-08-16T16:03:20Z</time>
      </trkpt>
      <trkpt lat="42.0355320" lon="-6.9752900">
        <ele>1223.5</ele>
        <time>2019-08-16T16:03:22Z</time>
      </trkpt>
      <trkpt lat="42.0355540" lon="-6.9753280">
        <ele>1223.5</ele>
        <time>2019-08-16T16:03:24Z</time>
      </trkpt>
      <trkpt lat="42.0355670" lon="-6.9753500">
        <ele>1223.6</ele>
        <time>2019-08-16T16:03:26Z</time>
      </trkpt>
      <trkpt lat="42.0355690" lon="-6.9753630">
        <ele>1223.6</ele>
        <time>2019-08-16T16:03:35Z</time>
      </trkpt>
      <trkpt lat="42.0355540" lon="-6.9755020">
        <ele>1223.8</ele>
        <time>2019-08-16T16:04:58Z</time>
      </trkpt>
      <trkpt lat="42.0355490" lon="-6.9755570">
        <ele>1223.9</ele>
        <time>2019-08-16T16:05:00Z</time>
      </trkpt>
      <trkpt lat="42.0355400" lon="-6.9756030">
        <ele>1224.0</ele>
        <time>2019-08-16T16:05:02Z</time>
      </trkpt>
      <trkpt lat="42.0355210" lon="-6.9756460">
        <ele>1224.1</ele>
        <time>2019-08-16T16:05:04Z</time>
      </trkpt>
      <trkpt lat="42.0355100" lon="-6.9756860">
        <ele>1224.1</ele>
        <time>2019-08-16T16:05:06Z</time>
      </trkpt>
      <trkpt lat="42.0355120" lon="-6.9757220">
        <ele>1224.2</ele>
        <time>2019-08-16T16:05:08Z</time>
      </trkpt>
      <trkpt lat="42.0355360" lon="-6.9757390">
        <ele>1224.2</ele>
        <time>2019-08-16T16:05:10Z</time>
      </trkpt>
      <trkpt lat="42.0355590" lon="-6.9756940">
        <ele>1224.3</ele>
        <time>2019-08-16T16:05:12Z</time>
      </trkpt>
      <trkpt lat="42.0355460" lon="-6.9756140">
        <ele>1224.4</ele>
        <time>2019-08-16T16:05:14Z</time>
      </trkpt>
      <trkpt lat="42.0355340" lon="-6.9755690">
        <ele>1224.4</ele>
        <time>2019-08-16T16:05:15Z</time>
      </trkpt>
      <trkpt lat="42.0355240" lon="-6.9755210">
        <ele>1224.5</ele>
        <time>2019-08-16T16:05:16Z</time>
      </trkpt>
      <trkpt lat="42.0355210" lon="-6.9754730">
        <ele>1224.5</ele>
        <time>2019-08-16T16:05:17Z</time>
      </trkpt>
      <trkpt lat="42.0355300" lon="-6.9754320">
        <ele>1224.6</ele>
        <time>2019-08-16T16:05:18Z</time>
      </trkpt>
      <trkpt lat="42.0355510" lon="-6.9754060">
        <ele>1224.6</ele>
        <time>2019-08-16T16:05:19Z</time>
      </trkpt>
      <trkpt lat="42.0355790" lon="-6.9754000">
        <ele>1224.7</ele>
        <time>2019-08-16T16:05:20Z</time>
      </trkpt>
      <trkpt lat="42.0356060" lon="-6.9754110">
        <ele>1224.7</ele>
        <time>2019-08-16T16:05:21Z</time>
      </trkpt>
      <trkpt lat="42.0356310" lon="-6.9754300">
        <ele>1224.7</ele>
        <time>2019-08-16T16:05:22Z</time>
      </trkpt>
      <trkpt lat="42.0356550" lon="-6.9754510">
        <ele>1224.8</ele>
        <time>2019-08-16T16:05:23Z</time>
      </trkpt>
      <trkpt lat="42.0356780" lon="-6.9754720">
        <ele>1224.8</ele>
        <time>2019-08-16T16:05:24Z</time>
      </trkpt>
      <trkpt lat="42.0357020" lon="-6.9754940">
        <ele>1224.8</ele>
        <time>2019-08-16T16:05:25Z</time>
      </trkpt>
      <trkpt lat="42.0357270" lon="-6.9755170">
        <ele>1224.9</ele>
        <time>2019-08-16T16:05:26Z</time>
      </trkpt>
      <trkpt lat="42.0357520" lon="-6.9755390">
        <ele>1224.9</ele>
        <time>2019-08-16T16:05:27Z</time>
      </trkpt>
      <trkpt lat="42.0357770" lon="-6.9755610">
        <ele>1224.9</ele>
        <time>2019-08-16T16:05:28Z</time>
      </trkpt>
      <trkpt lat="42.0358030" lon="-6.9755820">
        <ele>1224.9</ele>
        <time>2019-08-16T16:05:29Z</time>
      </trkpt>
      <trkpt lat="42.0358300" lon="-6.9756020">
        <ele>1225.0</ele>
        <time>2019-08-16T16:05:30Z</time>
      </trkpt>
      <trkpt lat="42.0358580" lon="-6.9756220">
        <ele>1225.0</ele>
        <time>2019-08-16T16:05:31Z</time>
      </trkpt>
      <trkpt lat="42.0358850" lon="-6.9756410">
        <ele>1225.0</ele>
        <time>2019-08-16T16:05:32Z</time>
      </trkpt>
      <trkpt lat="42.0359110" lon="-6.9756600">
        <ele>1225.0</ele>
        <time>2019-08-16T16:05:33Z</time>
      </trkpt>
      <trkpt lat="42.0359370" lon="-6.9756790">
        <ele>1225.0</ele>
        <time>2019-08-16T16:05:34Z</time>
      </trkpt>
      <trkpt lat="42.0359620" lon="-6.9756970">
        <ele>1225.1</ele>
        <time>2019-08-16T16:05:35Z</time>
      </trkpt>
      <trkpt lat="42.0359880" lon="-6.9757150">
        <ele>1225.1</ele>
        <time>2019-08-16T16:05:36Z</time>
      </trkpt>
      <trkpt lat="42.0360140" lon="-6.9757320">
        <ele>1225.1</ele>
        <time>2019-08-16T16:05:37Z</time>
      </trkpt>
      <trkpt lat="42.0360390" lon="-6.9757490">
        <ele>1225.1</ele>
        <time>2019-08-16T16:05:38Z</time>
      </trkpt>
      <trkpt lat="42.0360640" lon="-6.9757670">
        <ele>1225.1</ele>
        <time>2019-08-16T16:05:39Z</time>
      </trkpt>
      <trkpt lat="42.0360900" lon="-6.9757840">
        <ele>1225.1</ele>
        <time>2019-08-16T16:05:40Z</time>
      </trkpt>
      <trkpt lat="42.0361170" lon="-6.9757990">
        <ele>1225.1</ele>
        <time>2019-08-16T16:05:41Z</time>
      </trkpt>
      <trkpt lat="42.0361440" lon="-6.9758140">
        <ele>1225.1</ele>
        <time>2019-08-16T16:05:42Z</time>
      </trkpt>
      <trkpt lat="42.0361710" lon="-6.9758300">
        <ele>1225.1</ele>
        <time>2019-08-16T16:05:43Z</time>
      </trkpt>
      <trkpt lat="42.0361970" lon="-6.9758470">
        <ele>1225.1</ele>
        <time>2019-08-16T16:05:44Z</time>
      </trkpt>
      <trkpt lat="42.0362220" lon="-6.9758680">
        <ele>1225.1</ele>
        <time>2019-08-16T16:05:45Z</time>
      </trkpt>
      <trkpt lat="42.0362470" lon="-6.9758880">
        <ele>1225.1</ele>
        <time>2019-08-16T16:05:46Z</time>
      </trkpt>
      <trkpt lat="42.0362730" lon="-6.9759090">
        <ele>1225.1</ele>
        <time>2019-08-16T16:05:47Z</time>
      </trkpt>
      <trkpt lat="42.0362980" lon="-6.9759290">
        <ele>1225.1</ele>
        <time>2019-08-16T16:05:48Z</time>
      </trkpt>
      <trkpt lat="42.0363240" lon="-6.9759500">
        <ele>1225.0</ele>
        <time>2019-08-16T16:05:49Z</time>
      </trkpt>
      <trkpt lat="42.0363490" lon="-6.9759720">
        <ele>1225.0</ele>
        <time>2019-08-16T16:05:50Z</time>
      </trkpt>
      <trkpt lat="42.0363740" lon="-6.9759950">
        <ele>1225.0</ele>
        <time>2019-08-16T16:05:51Z</time>
      </trkpt>
      <trkpt lat="42.0363990" lon="-6.9760190">
        <ele>1225.0</ele>
        <time>2019-08-16T16:05:52Z</time>
      </trkpt>
      <trkpt lat="42.0364250" lon="-6.9760440">
        <ele>1224.9</ele>
        <time>2019-08-16T16:05:53Z</time>
      </trkpt>
      <trkpt lat="42.0364500" lon="-6.9760700">
        <ele>1224.9</ele>
        <time>2019-08-16T16:05:54Z</time>
      </trkpt>
      <trkpt lat="42.0364750" lon="-6.9760970">
        <ele>1224.8</ele>
        <time>2019-08-16T16:05:55Z</time>
      </trkpt>
      <trkpt lat="42.0364980" lon="-6.9761270">
        <ele>1224.8</ele>
        <time>2019-08-16T16:05:56Z</time>
      </trkpt>
      <trkpt lat="42.0365220" lon="-6.9761570">
        <ele>1224.7</ele>
        <time>2019-08-16T16:05:57Z</time>
      </trkpt>
      <trkpt lat="42.0365470" lon="-6.9761880">
        <ele>1224.7</ele>
        <time>2019-08-16T16:05:58Z</time>
      </trkpt>
      <trkpt lat="42.0365730" lon="-6.9762200">
        <ele>1224.6</ele>
        <time>2019-08-16T16:05:59Z</time>
      </trkpt>
      <trkpt lat="42.0365980" lon="-6.9762520">
        <ele>1224.6</ele>
        <time>2019-08-16T16:06:00Z</time>
      </trkpt>
      <trkpt lat="42.0366220" lon="-6.9762860">
        <ele>1224.5</ele>
        <time>2019-08-16T16:06:01Z</time>
      </trkpt>
      <trkpt lat="42.0366460" lon="-6.9763210">
        <ele>1224.5</ele>
        <time>2019-08-16T16:06:02Z</time>
      </trkpt>
      <trkpt lat="42.0366690" lon="-6.9763570">
        <ele>1224.5</ele>
        <time>2019-08-16T16:06:03Z</time>
      </trkpt>
      <trkpt lat="42.0366900" lon="-6.9763930">
        <ele>1224.4</ele>
        <time>2019-08-16T16:06:04Z</time>
      </trkpt>
      <trkpt lat="42.0367080" lon="-6.9764290">
        <ele>1224.4</ele>
        <time>2019-08-16T16:06:05Z</time>
      </trkpt>
      <trkpt lat="42.0367250" lon="-6.9764640">
        <ele>1224.3</ele>
        <time>2019-08-16T16:06:06Z</time>
      </trkpt>
      <trkpt lat="42.0367410" lon="-6.9764980">
        <ele>1224.3</ele>
        <time>2019-08-16T16:06:07Z</time>
      </trkpt>
      <trkpt lat="42.0367560" lon="-6.9765310">
        <ele>1224.2</ele>
        <time>2019-08-16T16:06:08Z</time>
      </trkpt>
      <trkpt lat="42.0367700" lon="-6.9765630">
        <ele>1224.2</ele>
        <time>2019-08-16T16:06:09Z</time>
      </trkpt>
      <trkpt lat="42.0367820" lon="-6.9765940">
        <ele>1224.1</ele>
        <time>2019-08-16T16:06:10Z</time>
      </trkpt>
      <trkpt lat="42.0368070" lon="-6.9766590">
        <ele>1224.0</ele>
        <time>2019-08-16T16:06:12Z</time>
      </trkpt>
      <trkpt lat="42.0368210" lon="-6.9766970">
        <ele>1224.0</ele>
        <time>2019-08-16T16:06:13Z</time>
      </trkpt>
      <trkpt lat="42.0368350" lon="-6.9767390">
        <ele>1223.9</ele>
        <time>2019-08-16T16:06:14Z</time>
      </trkpt>
      <trkpt lat="42.0368480" lon="-6.9767840">
        <ele>1223.9</ele>
        <time>2019-08-16T16:06:15Z</time>
      </trkpt>
      <trkpt lat="42.0368590" lon="-6.9768330">
        <ele>1223.8</ele>
        <time>2019-08-16T16:06:16Z</time>
      </trkpt>
      <trkpt lat="42.0368690" lon="-6.9768840">
        <ele>1223.7</ele>
        <time>2019-08-16T16:06:17Z</time>
      </trkpt>
      <trkpt lat="42.0368770" lon="-6.9769410">
        <ele>1223.6</ele>
        <time>2019-08-16T16:06:18Z</time>
      </trkpt>
      <trkpt lat="42.0368820" lon="-6.9770020">
        <ele>1223.6</ele>
        <time>2019-08-16T16:06:19Z</time>
      </trkpt>
      <trkpt lat="42.0368870" lon="-6.9770640">
        <ele>1223.5</ele>
        <time>2019-08-16T16:06:20Z</time>
      </trkpt>
      <trkpt lat="42.0368890" lon="-6.9771290">
        <ele>1223.4</ele>
        <time>2019-08-16T16:06:21Z</time>
      </trkpt>
      <trkpt lat="42.0368910" lon="-6.9771940">
        <ele>1223.3</ele>
        <time>2019-08-16T16:06:22Z</time>
      </trkpt>
      <trkpt lat="42.0368910" lon="-6.9772600">
        <ele>1223.2</ele>
        <time>2019-08-16T16:06:23Z</time>
      </trkpt>
      <trkpt lat="42.0368900" lon="-6.9773240">
        <ele>1223.2</ele>
        <time>2019-08-16T16:06:24Z</time>
      </trkpt>
      <trkpt lat="42.0368880" lon="-6.9773890">
        <ele>1223.1</ele>
        <time>2019-08-16T16:06:25Z</time>
      </trkpt>
      <trkpt lat="42.0368870" lon="-6.9774530">
        <ele>1223.1</ele>
        <time>2019-08-16T16:06:26Z</time>
      </trkpt>
      <trkpt lat="42.0368850" lon="-6.9775180">
        <ele>1223.1</ele>
        <time>2019-08-16T16:06:27Z</time>
      </trkpt>
      <trkpt lat="42.0368820" lon="-6.9775830">
        <ele>1223.0</ele>
        <time>2019-08-16T16:06:28Z</time>
      </trkpt>
      <trkpt lat="42.0368790" lon="-6.9776490">
        <ele>1223.0</ele>
        <time>2019-08-16T16:06:29Z</time>
      </trkpt>
      <trkpt lat="42.0368760" lon="-6.9777170">
        <ele>1222.9</ele>
        <time>2019-08-16T16:06:30Z</time>
      </trkpt>
      <trkpt lat="42.0368740" lon="-6.9777850">
        <ele>1222.9</ele>
        <time>2019-08-16T16:06:31Z</time>
      </trkpt>
      <trkpt lat="42.0368710" lon="-6.9778530">
        <ele>1222.9</ele>
        <time>2019-08-16T16:06:32Z</time>
      </trkpt>
      <trkpt lat="42.0368680" lon="-6.9779210">
        <ele>1222.8</ele>
        <time>2019-08-16T16:06:33Z</time>
      </trkpt>
      <trkpt lat="42.0368660" lon="-6.9779900">
        <ele>1222.8</ele>
        <time>2019-08-16T16:06:34Z</time>
      </trkpt>
      <trkpt lat="42.0368660" lon="-6.9780580">
        <ele>1222.8</ele>
        <time>2019-08-16T16:06:35Z</time>
      </trkpt>
      <trkpt lat="42.0368670" lon="-6.9781260">
        <ele>1222.7</ele>
        <time>2019-08-16T16:06:36Z</time>
      </trkpt>
      <trkpt lat="42.0368690" lon="-6.9781940">
        <ele>1222.7</ele>
        <time>2019-08-16T16:06:37Z</time>
      </trkpt>
      <trkpt lat="42.0368730" lon="-6.9782620">
        <ele>1222.6</ele>
        <time>2019-08-16T16:06:38Z</time>
      </trkpt>
      <trkpt lat="42.0368780" lon="-6.9783280">
        <ele>1222.6</ele>
        <time>2019-08-16T16:06:39Z</time>
      </trkpt>
      <trkpt lat="42.0368850" lon="-6.9783930">
        <ele>1222.6</ele>
        <time>2019-08-16T16:06:40Z</time>
      </trkpt>
      <trkpt lat="42.0368950" lon="-6.9784540">
        <ele>1222.5</ele>
        <time>2019-08-16T16:06:41Z</time>
      </trkpt>
      <trkpt lat="42.0369090" lon="-6.9785110">
        <ele>1222.4</ele>
        <time>2019-08-16T16:06:42Z</time>
      </trkpt>
      <trkpt lat="42.0369260" lon="-6.9785650">
        <ele>1222.4</ele>
        <time>2019-08-16T16:06:43Z</time>
      </trkpt>
      <trkpt lat="42.0369450" lon="-6.9786190">
        <ele>1222.3</ele>
        <time>2019-08-16T16:06:44Z</time>
      </trkpt>
      <trkpt lat="42.0369650" lon="-6.9786720">
        <ele>1222.2</ele>
        <time>2019-08-16T16:06:45Z</time>
      </trkpt>
      <trkpt lat="42.0369840" lon="-6.9787240">
        <ele>1222.2</ele>
        <time>2019-08-16T16:06:46Z</time>
      </trkpt>
      <trkpt lat="42.0370040" lon="-6.9787760">
        <ele>1222.1</ele>
        <time>2019-08-16T16:06:47Z</time>
      </trkpt>
      <trkpt lat="42.0370240" lon="-6.9788260">
        <ele>1222.1</ele>
        <time>2019-08-16T16:06:48Z</time>
      </trkpt>
      <trkpt lat="42.0370440" lon="-6.9788770">
        <ele>1222.0</ele>
        <time>2019-08-16T16:06:49Z</time>
      </trkpt>
      <trkpt lat="42.0370630" lon="-6.9789280">
        <ele>1221.9</ele>
        <time>2019-08-16T16:06:50Z</time>
      </trkpt>
      <trkpt lat="42.0370820" lon="-6.9789810">
        <ele>1221.8</ele>
        <time>2019-08-16T16:06:51Z</time>
      </trkpt>
      <trkpt lat="42.0371010" lon="-6.9790330">
        <ele>1221.8</ele>
        <time>2019-08-16T16:06:52Z</time>
      </trkpt>
      <trkpt lat="42.0371190" lon="-6.9790870">
        <ele>1221.7</ele>
        <time>2019-08-16T16:06:53Z</time>
      </trkpt>
      <trkpt lat="42.0371360" lon="-6.9791420">
        <ele>1221.6</ele>
        <time>2019-08-16T16:06:54Z</time>
      </trkpt>
      <trkpt lat="42.0371530" lon="-6.9791990">
        <ele>1221.6</ele>
        <time>2019-08-16T16:06:55Z</time>
      </trkpt>
      <trkpt lat="42.0371680" lon="-6.9792590">
        <ele>1221.5</ele>
        <time>2019-08-16T16:06:56Z</time>
      </trkpt>
      <trkpt lat="42.0371840" lon="-6.9793230">
        <ele>1221.4</ele>
        <time>2019-08-16T16:06:57Z</time>
      </trkpt>
      <trkpt lat="42.0371980" lon="-6.9793870">
        <ele>1221.3</ele>
        <time>2019-08-16T16:06:58Z</time>
      </trkpt>
      <trkpt lat="42.0372120" lon="-6.9794540">
        <ele>1221.3</ele>
        <time>2019-08-16T16:06:59Z</time>
      </trkpt>
      <trkpt lat="42.0372260" lon="-6.9795200">
        <ele>1221.2</ele>
        <time>2019-08-16T16:07:00Z</time>
      </trkpt>
      <trkpt lat="42.0372380" lon="-6.9795890">
        <ele>1221.2</ele>
        <time>2019-08-16T16:07:01Z</time>
      </trkpt>
      <trkpt lat="42.0372460" lon="-6.9796600">
        <ele>1221.1</ele>
        <time>2019-08-16T16:07:02Z</time>
      </trkpt>
      <trkpt lat="42.0372540" lon="-6.9797320">
        <ele>1221.1</ele>
        <time>2019-08-16T16:07:03Z</time>
      </trkpt>
      <trkpt lat="42.0372600" lon="-6.9798070">
        <ele>1221.0</ele>
        <time>2019-08-16T16:07:04Z</time>
      </trkpt>
      <trkpt lat="42.0372640" lon="-6.9798860">
        <ele>1220.9</ele>
        <time>2019-08-16T16:07:05Z</time>
      </trkpt>
      <trkpt lat="42.0372650" lon="-6.9799650">
        <ele>1220.9</ele>
        <time>2019-08-16T16:07:06Z</time>
      </trkpt>
      <trkpt lat="42.0372630" lon="-6.9800460">
        <ele>1220.8</ele>
        <time>2019-08-16T16:07:07Z</time>
      </trkpt>
      <trkpt lat="42.0372580" lon="-6.9801270">
        <ele>1220.8</ele>
        <time>2019-08-16T16:07:08Z</time>
      </trkpt>
      <trkpt lat="42.0372500" lon="-6.9802100">
        <ele>1220.7</ele>
        <time>2019-08-16T16:07:09Z</time>
      </trkpt>
      <trkpt lat="42.0372380" lon="-6.9802910">
        <ele>1220.6</ele>
        <time>2019-08-16T16:07:10Z</time>
      </trkpt>
      <trkpt lat="42.0372230" lon="-6.9803730">
        <ele>1220.5</ele>
        <time>2019-08-16T16:07:11Z</time>
      </trkpt>
      <trkpt lat="42.0372070" lon="-6.9804550">
        <ele>1220.4</ele>
        <time>2019-08-16T16:07:12Z</time>
      </trkpt>
      <trkpt lat="42.0371900" lon="-6.9805360">
        <ele>1220.3</ele>
        <time>2019-08-16T16:07:13Z</time>
      </trkpt>
      <trkpt lat="42.0371740" lon="-6.9806180">
        <ele>1220.2</ele>
        <time>2019-08-16T16:07:14Z</time>
      </trkpt>
      <trkpt lat="42.0371580" lon="-6.9806990">
        <ele>1220.1</ele>
        <time>2019-08-16T16:07:15Z</time>
      </trkpt>
      <trkpt lat="42.0371420" lon="-6.9807820">
        <ele>1220.0</ele>
        <time>2019-08-16T16:07:16Z</time>
      </trkpt>
      <trkpt lat="42.0371250" lon="-6.9808630">
        <ele>1219.9</ele>
        <time>2019-08-16T16:07:17Z</time>
      </trkpt>
      <trkpt lat="42.0371080" lon="-6.9809450">
        <ele>1219.8</ele>
        <time>2019-08-16T16:07:18Z</time>
      </trkpt>
      <trkpt lat="42.0370920" lon="-6.9810250">
        <ele>1219.7</ele>
        <time>2019-08-16T16:07:19Z</time>
      </trkpt>
      <trkpt lat="42.0370760" lon="-6.9811070">
        <ele>1219.6</ele>
        <time>2019-08-16T16:07:20Z</time>
      </trkpt>
      <trkpt lat="42.0370630" lon="-6.9811880">
        <ele>1219.5</ele>
        <time>2019-08-16T16:07:21Z</time>
      </trkpt>
      <trkpt lat="42.0370540" lon="-6.9812680">
        <ele>1219.3</ele>
        <time>2019-08-16T16:07:22Z</time>
      </trkpt>
      <trkpt lat="42.0370450" lon="-6.9813470">
        <ele>1219.2</ele>
        <time>2019-08-16T16:07:23Z</time>
      </trkpt>
      <trkpt lat="42.0370390" lon="-6.9814270">
        <ele>1219.1</ele>
        <time>2019-08-16T16:07:24Z</time>
      </trkpt>
      <trkpt lat="42.0370340" lon="-6.9815070">
        <ele>1219.0</ele>
        <time>2019-08-16T16:07:25Z</time>
      </trkpt>
      <trkpt lat="42.0370310" lon="-6.9815860">
        <ele>1218.9</ele>
        <time>2019-08-16T16:07:26Z</time>
      </trkpt>
      <trkpt lat="42.0370310" lon="-6.9816660">
        <ele>1218.8</ele>
        <time>2019-08-16T16:07:27Z</time>
      </trkpt>
      <trkpt lat="42.0370340" lon="-6.9817450">
        <ele>1218.7</ele>
        <time>2019-08-16T16:07:28Z</time>
      </trkpt>
      <trkpt lat="42.0370390" lon="-6.9818250">
        <ele>1218.6</ele>
        <time>2019-08-16T16:07:29Z</time>
      </trkpt>
      <trkpt lat="42.0370450" lon="-6.9819020">
        <ele>1218.5</ele>
        <time>2019-08-16T16:07:30Z</time>
      </trkpt>
      <trkpt lat="42.0370500" lon="-6.9819790">
        <ele>1218.4</ele>
        <time>2019-08-16T16:07:31Z</time>
      </trkpt>
      <trkpt lat="42.0370560" lon="-6.9820550">
        <ele>1218.3</ele>
        <time>2019-08-16T16:07:32Z</time>
      </trkpt>
      <trkpt lat="42.0370630" lon="-6.9821310">
        <ele>1218.2</ele>
        <time>2019-08-16T16:07:33Z</time>
      </trkpt>
      <trkpt lat="42.0370730" lon="-6.9822090">
        <ele>1218.1</ele>
        <time>2019-08-16T16:07:34Z</time>
      </trkpt>
      <trkpt lat="42.0370820" lon="-6.9822870">
        <ele>1218.0</ele>
        <time>2019-08-16T16:07:35Z</time>
      </trkpt>
      <trkpt lat="42.0370910" lon="-6.9823660">
        <ele>1217.9</ele>
        <time>2019-08-16T16:07:36Z</time>
      </trkpt>
      <trkpt lat="42.0371000" lon="-6.9824440">
        <ele>1217.8</ele>
        <time>2019-08-16T16:07:37Z</time>
      </trkpt>
      <trkpt lat="42.0371100" lon="-6.9825220">
        <ele>1217.7</ele>
        <time>2019-08-16T16:07:38Z</time>
      </trkpt>
      <trkpt lat="42.0371200" lon="-6.9826010">
        <ele>1217.5</ele>
        <time>2019-08-16T16:07:39Z</time>
      </trkpt>
      <trkpt lat="42.0371310" lon="-6.9826800">
        <ele>1217.5</ele>
        <time>2019-08-16T16:07:40Z</time>
      </trkpt>
      <trkpt lat="42.0371410" lon="-6.9827580">
        <ele>1217.4</ele>
        <time>2019-08-16T16:07:41Z</time>
      </trkpt>
      <trkpt lat="42.0371520" lon="-6.9828320">
        <ele>1217.3</ele>
        <time>2019-08-16T16:07:42Z</time>
      </trkpt>
      <trkpt lat="42.0371630" lon="-6.9829040">
        <ele>1217.2</ele>
        <time>2019-08-16T16:07:43Z</time>
      </trkpt>
      <trkpt lat="42.0371730" lon="-6.9829730">
        <ele>1217.2</ele>
        <time>2019-08-16T16:07:44Z</time>
      </trkpt>
      <trkpt lat="42.0371830" lon="-6.9830410">
        <ele>1217.1</ele>
        <time>2019-08-16T16:07:45Z</time>
      </trkpt>
      <trkpt lat="42.0371930" lon="-6.9831050">
        <ele>1217.0</ele>
        <time>2019-08-16T16:07:46Z</time>
      </trkpt>
      <trkpt lat="42.0372030" lon="-6.9831690">
        <ele>1216.9</ele>
        <time>2019-08-16T16:07:47Z</time>
      </trkpt>
      <trkpt lat="42.0372130" lon="-6.9832310">
        <ele>1216.8</ele>
        <time>2019-08-16T16:07:48Z</time>
      </trkpt>
      <trkpt lat="42.0372240" lon="-6.9832910">
        <ele>1216.8</ele>
        <time>2019-08-16T16:07:49Z</time>
      </trkpt>
      <trkpt lat="42.0372360" lon="-6.9833490">
        <ele>1216.7</ele>
        <time>2019-08-16T16:07:50Z</time>
      </trkpt>
      <trkpt lat="42.0372470" lon="-6.9834070">
        <ele>1216.6</ele>
        <time>2019-08-16T16:07:51Z</time>
      </trkpt>
      <trkpt lat="42.0372590" lon="-6.9834690">
        <ele>1216.5</ele>
        <time>2019-08-16T16:07:52Z</time>
      </trkpt>
      <trkpt lat="42.0372710" lon="-6.9835340">
        <ele>1216.4</ele>
        <time>2019-08-16T16:07:53Z</time>
      </trkpt>
      <trkpt lat="42.0372820" lon="-6.9835960">
        <ele>1216.3</ele>
        <time>2019-08-16T16:07:54Z</time>
      </trkpt>
      <trkpt lat="42.0372920" lon="-6.9836620">
        <ele>1216.1</ele>
        <time>2019-08-16T16:07:55Z</time>
      </trkpt>
      <trkpt lat="42.0373000" lon="-6.9837270">
        <ele>1216.0</ele>
        <time>2019-08-16T16:07:56Z</time>
      </trkpt>
      <trkpt lat="42.0373070" lon="-6.9837930">
        <ele>1215.8</ele>
        <time>2019-08-16T16:07:57Z</time>
      </trkpt>
      <trkpt lat="42.0373150" lon="-6.9838580">
        <ele>1215.7</ele>
        <time>2019-08-16T16:07:58Z</time>
      </trkpt>
      <trkpt lat="42.0373230" lon="-6.9839190">
        <ele>1215.5</ele>
        <time>2019-08-16T16:07:59Z</time>
      </trkpt>
      <trkpt lat="42.0373290" lon="-6.9839800">
        <ele>1215.3</ele>
        <time>2019-08-16T16:08:00Z</time>
      </trkpt>
      <trkpt lat="42.0373340" lon="-6.9840380">
        <ele>1215.1</ele>
        <time>2019-08-16T16:08:01Z</time>
      </trkpt>
      <trkpt lat="42.0373400" lon="-6.9840870">
        <ele>1214.9</ele>
        <time>2019-08-16T16:08:02Z</time>
      </trkpt>
      <trkpt lat="42.0373470" lon="-6.9841280">
        <ele>1214.8</ele>
        <time>2019-08-16T16:08:03Z</time>
      </trkpt>
      <trkpt lat="42.0373590" lon="-6.9841640">
        <ele>1214.6</ele>
        <time>2019-08-16T16:08:04Z</time>
      </trkpt>
      <trkpt lat="42.0373720" lon="-6.9841980">
        <ele>1214.2</ele>
        <time>2019-08-16T16:08:05Z</time>
      </trkpt>
      <trkpt lat="42.0373810" lon="-6.9842360">
        <ele>1214.0</ele>
        <time>2019-08-16T16:08:06Z</time>
      </trkpt>
      <trkpt lat="42.0373850" lon="-6.9842790">
        <ele>1213.8</ele>
        <time>2019-08-16T16:08:07Z</time>
      </trkpt>
      <trkpt lat="42.0373850" lon="-6.9843170">
        <ele>1213.6</ele>
        <time>2019-08-16T16:08:08Z</time>
      </trkpt>
      <trkpt lat="42.0373850" lon="-6.9843430">
        <ele>1213.4</ele>
        <time>2019-08-16T16:08:09Z</time>
      </trkpt>
      <trkpt lat="42.0373780" lon="-6.9843530">
        <ele>1213.4</ele>
        <time>2019-08-16T16:08:12Z</time>
      </trkpt>
      <trkpt lat="42.0373950" lon="-6.9843150">
        <ele>1213.2</ele>
        <time>2019-08-16T16:08:17Z</time>
      </trkpt>
      <trkpt lat="42.0373960" lon="-6.9842860">
        <ele>1213.0</ele>
        <time>2019-08-16T16:08:24Z</time>
      </trkpt>
      <trkpt lat="42.0374150" lon="-6.9842640">
        <ele>1212.9</ele>
        <time>2019-08-16T16:08:32Z</time>
      </trkpt>
      <trkpt lat="42.0373450" lon="-6.9844190">
        <ele>1212.2</ele>
        <time>2019-08-16T16:22:08Z</time>
      </trkpt>
      <trkpt lat="42.0373400" lon="-6.9844590">
        <ele>1212.1</ele>
        <time>2019-08-16T16:22:09Z</time>
      </trkpt>
      <trkpt lat="42.0373320" lon="-6.9844970">
        <ele>1211.9</ele>
        <time>2019-08-16T16:22:10Z</time>
      </trkpt>
      <trkpt lat="42.0373260" lon="-6.9845340">
        <ele>1211.7</ele>
        <time>2019-08-16T16:22:11Z</time>
      </trkpt>
      <trkpt lat="42.0373200" lon="-6.9845730">
        <ele>1211.5</ele>
        <time>2019-08-16T16:22:12Z</time>
      </trkpt>
      <trkpt lat="42.0373150" lon="-6.9846150">
        <ele>1211.3</ele>
        <time>2019-08-16T16:22:13Z</time>
      </trkpt>
      <trkpt lat="42.0373100" lon="-6.9846610">
        <ele>1211.2</ele>
        <time>2019-08-16T16:22:14Z</time>
      </trkpt>
      <trkpt lat="42.0373050" lon="-6.9847080">
        <ele>1211.0</ele>
        <time>2019-08-16T16:22:15Z</time>
      </trkpt>
      <trkpt lat="42.0372990" lon="-6.9847590">
        <ele>1210.8</ele>
        <time>2019-08-16T16:22:16Z</time>
      </trkpt>
      <trkpt lat="42.0372920" lon="-6.9848100">
        <ele>1210.6</ele>
        <time>2019-08-16T16:22:17Z</time>
      </trkpt>
      <trkpt lat="42.0372850" lon="-6.9848640">
        <ele>1210.4</ele>
        <time>2019-08-16T16:22:18Z</time>
      </trkpt>
      <trkpt lat="42.0372760" lon="-6.9849210">
        <ele>1210.1</ele>
        <time>2019-08-16T16:22:19Z</time>
      </trkpt>
      <trkpt lat="42.0372680" lon="-6.9849800">
        <ele>1209.8</ele>
        <time>2019-08-16T16:22:20Z</time>
      </trkpt>
      <trkpt lat="42.0372590" lon="-6.9850410">
        <ele>1209.5</ele>
        <time>2019-08-16T16:22:21Z</time>
      </trkpt>
      <trkpt lat="42.0372500" lon="-6.9851040">
        <ele>1209.3</ele>
        <time>2019-08-16T16:22:22Z</time>
      </trkpt>
      <trkpt lat="42.0372410" lon="-6.9851690">
        <ele>1209.1</ele>
        <time>2019-08-16T16:22:23Z</time>
      </trkpt>
      <trkpt lat="42.0372310" lon="-6.9852340">
        <ele>1208.8</ele>
        <time>2019-08-16T16:22:24Z</time>
      </trkpt>
      <trkpt lat="42.0372200" lon="-6.9852990">
        <ele>1208.6</ele>
        <time>2019-08-16T16:22:25Z</time>
      </trkpt>
      <trkpt lat="42.0372090" lon="-6.9853680">
        <ele>1208.4</ele>
        <time>2019-08-16T16:22:26Z</time>
      </trkpt>
      <trkpt lat="42.0371980" lon="-6.9854370">
        <ele>1208.2</ele>
        <time>2019-08-16T16:22:27Z</time>
      </trkpt>
      <trkpt lat="42.0371870" lon="-6.9855080">
        <ele>1208.0</ele>
        <time>2019-08-16T16:22:28Z</time>
      </trkpt>
      <trkpt lat="42.0371770" lon="-6.9855780">
        <ele>1207.8</ele>
        <time>2019-08-16T16:22:29Z</time>
      </trkpt>
      <trkpt lat="42.0371680" lon="-6.9856460">
        <ele>1207.5</ele>
        <time>2019-08-16T16:22:30Z</time>
      </trkpt>
      <trkpt lat="42.0371600" lon="-6.9857130">
        <ele>1207.3</ele>
        <time>2019-08-16T16:22:31Z</time>
      </trkpt>
      <trkpt lat="42.0371530" lon="-6.9857810">
        <ele>1207.0</ele>
        <time>2019-08-16T16:22:32Z</time>
      </trkpt>
      <trkpt lat="42.0371470" lon="-6.9858500">
        <ele>1206.6</ele>
        <time>2019-08-16T16:22:33Z</time>
      </trkpt>
      <trkpt lat="42.0371440" lon="-6.9859200">
        <ele>1206.3</ele>
        <time>2019-08-16T16:22:34Z</time>
      </trkpt>
      <trkpt lat="42.0371410" lon="-6.9859900">
        <ele>1206.1</ele>
        <time>2019-08-16T16:22:35Z</time>
      </trkpt>
      <trkpt lat="42.0371380" lon="-6.9860630">
        <ele>1205.7</ele>
        <time>2019-08-16T16:22:36Z</time>
      </trkpt>
      <trkpt lat="42.0371370" lon="-6.9861390">
        <ele>1205.4</ele>
        <time>2019-08-16T16:22:37Z</time>
      </trkpt>
      <trkpt lat="42.0371390" lon="-6.9862150">
        <ele>1205.1</ele>
        <time>2019-08-16T16:22:38Z</time>
      </trkpt>
      <trkpt lat="42.0371450" lon="-6.9862930">
        <ele>1204.8</ele>
        <time>2019-08-16T16:22:39Z</time>
      </trkpt>
      <trkpt lat="42.0371530" lon="-6.9863710">
        <ele>1204.5</ele>
        <time>2019-08-16T16:22:40Z</time>
      </trkpt>
      <trkpt lat="42.0371610" lon="-6.9864480">
        <ele>1204.3</ele>
        <time>2019-08-16T16:22:41Z</time>
      </trkpt>
      <trkpt lat="42.0371740" lon="-6.9865240">
        <ele>1204.1</ele>
        <time>2019-08-16T16:22:42Z</time>
      </trkpt>
      <trkpt lat="42.0371890" lon="-6.9865990">
        <ele>1203.9</ele>
        <time>2019-08-16T16:22:43Z</time>
      </trkpt>
      <trkpt lat="42.0372050" lon="-6.9866730">
        <ele>1203.7</ele>
        <time>2019-08-16T16:22:44Z</time>
      </trkpt>
      <trkpt lat="42.0372230" lon="-6.9867460">
        <ele>1203.6</ele>
        <time>2019-08-16T16:22:45Z</time>
      </trkpt>
      <trkpt lat="42.0372420" lon="-6.9868180">
        <ele>1203.5</ele>
        <time>2019-08-16T16:22:46Z</time>
      </trkpt>
      <trkpt lat="42.0372610" lon="-6.9868890">
        <ele>1203.3</ele>
        <time>2019-08-16T16:22:47Z</time>
      </trkpt>
      <trkpt lat="42.0372790" lon="-6.9869590">
        <ele>1203.2</ele>
        <time>2019-08-16T16:22:48Z</time>
      </trkpt>
      <trkpt lat="42.0372990" lon="-6.9870300">
        <ele>1203.1</ele>
        <time>2019-08-16T16:22:49Z</time>
      </trkpt>
      <trkpt lat="42.0373190" lon="-6.9870990">
        <ele>1203.0</ele>
        <time>2019-08-16T16:22:50Z</time>
      </trkpt>
      <trkpt lat="42.0373390" lon="-6.9871670">
        <ele>1202.8</ele>
        <time>2019-08-16T16:22:51Z</time>
      </trkpt>
      <trkpt lat="42.0373560" lon="-6.9872330">
        <ele>1202.7</ele>
        <time>2019-08-16T16:22:52Z</time>
      </trkpt>
      <trkpt lat="42.0373750" lon="-6.9873000">
        <ele>1202.5</ele>
        <time>2019-08-16T16:22:53Z</time>
      </trkpt>
      <trkpt lat="42.0373940" lon="-6.9873650">
        <ele>1202.4</ele>
        <time>2019-08-16T16:22:54Z</time>
      </trkpt>
      <trkpt lat="42.0374130" lon="-6.9874300">
        <ele>1202.2</ele>
        <time>2019-08-16T16:22:55Z</time>
      </trkpt>
      <trkpt lat="42.0374300" lon="-6.9874950">
        <ele>1202.1</ele>
        <time>2019-08-16T16:22:56Z</time>
      </trkpt>
      <trkpt lat="42.0374490" lon="-6.9875590">
        <ele>1201.9</ele>
        <time>2019-08-16T16:22:57Z</time>
      </trkpt>
      <trkpt lat="42.0374650" lon="-6.9876220">
        <ele>1201.8</ele>
        <time>2019-08-16T16:22:58Z</time>
      </trkpt>
      <trkpt lat="42.0374830" lon="-6.9876850">
        <ele>1201.6</ele>
        <time>2019-08-16T16:22:59Z</time>
      </trkpt>
      <trkpt lat="42.0375010" lon="-6.9877490">
        <ele>1201.5</ele>
        <time>2019-08-16T16:23:00Z</time>
      </trkpt>
      <trkpt lat="42.0375180" lon="-6.9878120">
        <ele>1201.3</ele>
        <time>2019-08-16T16:23:01Z</time>
      </trkpt>
      <trkpt lat="42.0375340" lon="-6.9878710">
        <ele>1201.1</ele>
        <time>2019-08-16T16:23:02Z</time>
      </trkpt>
      <trkpt lat="42.0375500" lon="-6.9879300">
        <ele>1200.9</ele>
        <time>2019-08-16T16:23:03Z</time>
      </trkpt>
      <trkpt lat="42.0375660" lon="-6.9879890">
        <ele>1200.7</ele>
        <time>2019-08-16T16:23:04Z</time>
      </trkpt>
      <trkpt lat="42.0375820" lon="-6.9880480">
        <ele>1200.5</ele>
        <time>2019-08-16T16:23:05Z</time>
      </trkpt>
      <trkpt lat="42.0375970" lon="-6.9881070">
        <ele>1200.3</ele>
        <time>2019-08-16T16:23:06Z</time>
      </trkpt>
      <trkpt lat="42.0376130" lon="-6.9881650">
        <ele>1200.0</ele>
        <time>2019-08-16T16:23:07Z</time>
      </trkpt>
      <trkpt lat="42.0376290" lon="-6.9882230">
        <ele>1199.8</ele>
        <time>2019-08-16T16:23:08Z</time>
      </trkpt>
      <trkpt lat="42.0376450" lon="-6.9882820">
        <ele>1199.6</ele>
        <time>2019-08-16T16:23:09Z</time>
      </trkpt>
      <trkpt lat="42.0376610" lon="-6.9883400">
        <ele>1199.3</ele>
        <time>2019-08-16T16:23:10Z</time>
      </trkpt>
      <trkpt lat="42.0376780" lon="-6.9883980">
        <ele>1199.1</ele>
        <time>2019-08-16T16:23:11Z</time>
      </trkpt>
      <trkpt lat="42.0376960" lon="-6.9884580">
        <ele>1198.8</ele>
        <time>2019-08-16T16:23:12Z</time>
      </trkpt>
      <trkpt lat="42.0377110" lon="-6.9885190">
        <ele>1198.5</ele>
        <time>2019-08-16T16:23:13Z</time>
      </trkpt>
      <trkpt lat="42.0377280" lon="-6.9885800">
        <ele>1198.2</ele>
        <time>2019-08-16T16:23:14Z</time>
      </trkpt>
      <trkpt lat="42.0377430" lon="-6.9886420">
        <ele>1197.9</ele>
        <time>2019-08-16T16:23:15Z</time>
      </trkpt>
      <trkpt lat="42.0377580" lon="-6.9887030">
        <ele>1197.7</ele>
        <time>2019-08-16T16:23:16Z</time>
      </trkpt>
      <trkpt lat="42.0377740" lon="-6.9887600">
        <ele>1197.4</ele>
        <time>2019-08-16T16:23:17Z</time>
      </trkpt>
      <trkpt lat="42.0377890" lon="-6.9888180">
        <ele>1197.1</ele>
        <time>2019-08-16T16:23:18Z</time>
      </trkpt>
      <trkpt lat="42.0378050" lon="-6.9888750">
        <ele>1196.7</ele>
        <time>2019-08-16T16:23:19Z</time>
      </trkpt>
      <trkpt lat="42.0378200" lon="-6.9889320">
        <ele>1196.5</ele>
        <time>2019-08-16T16:23:20Z</time>
      </trkpt>
      <trkpt lat="42.0378360" lon="-6.9889880">
        <ele>1196.2</ele>
        <time>2019-08-16T16:23:21Z</time>
      </trkpt>
      <trkpt lat="42.0378520" lon="-6.9890440">
        <ele>1195.9</ele>
        <time>2019-08-16T16:23:22Z</time>
      </trkpt>
      <trkpt lat="42.0378650" lon="-6.9891010">
        <ele>1195.6</ele>
        <time>2019-08-16T16:23:23Z</time>
      </trkpt>
      <trkpt lat="42.0378800" lon="-6.9891550">
        <ele>1195.3</ele>
        <time>2019-08-16T16:23:24Z</time>
      </trkpt>
      <trkpt lat="42.0378950" lon="-6.9892080">
        <ele>1195.1</ele>
        <time>2019-08-16T16:23:25Z</time>
      </trkpt>
      <trkpt lat="42.0379100" lon="-6.9892610">
        <ele>1194.9</ele>
        <time>2019-08-16T16:23:26Z</time>
      </trkpt>
      <trkpt lat="42.0379240" lon="-6.9893150">
        <ele>1194.6</ele>
        <time>2019-08-16T16:23:27Z</time>
      </trkpt>
      <trkpt lat="42.0379390" lon="-6.9893700">
        <ele>1194.3</ele>
        <time>2019-08-16T16:23:28Z</time>
      </trkpt>
      <trkpt lat="42.0379540" lon="-6.9894230">
        <ele>1194.0</ele>
        <time>2019-08-16T16:23:29Z</time>
      </trkpt>
      <trkpt lat="42.0379680" lon="-6.9894750">
        <ele>1193.7</ele>
        <time>2019-08-16T16:23:30Z</time>
      </trkpt>
      <trkpt lat="42.0379820" lon="-6.9895270">
        <ele>1193.4</ele>
        <time>2019-08-16T16:23:31Z</time>
      </trkpt>
      <trkpt lat="42.0379960" lon="-6.9895790">
        <ele>1193.1</ele>
        <time>2019-08-16T16:23:32Z</time>
      </trkpt>
      <trkpt lat="42.0380110" lon="-6.9896310">
        <ele>1192.7</ele>
        <time>2019-08-16T16:23:33Z</time>
      </trkpt>
      <trkpt lat="42.0380260" lon="-6.9896800">
        <ele>1192.5</ele>
        <time>2019-08-16T16:23:34Z</time>
      </trkpt>
      <trkpt lat="42.0380420" lon="-6.9897300">
        <ele>1192.2</ele>
        <time>2019-08-16T16:23:35Z</time>
      </trkpt>
      <trkpt lat="42.0380580" lon="-6.9897800">
        <ele>1191.8</ele>
        <time>2019-08-16T16:23:36Z</time>
      </trkpt>
      <trkpt lat="42.0380750" lon="-6.9898310">
        <ele>1191.5</ele>
        <time>2019-08-16T16:23:37Z</time>
      </trkpt>
      <trkpt lat="42.0380930" lon="-6.9898820">
        <ele>1191.2</ele>
        <time>2019-08-16T16:23:38Z</time>
      </trkpt>
      <trkpt lat="42.0381110" lon="-6.9899340">
        <ele>1190.9</ele>
        <time>2019-08-16T16:23:39Z</time>
      </trkpt>
      <trkpt lat="42.0381310" lon="-6.9899860">
        <ele>1190.5</ele>
        <time>2019-08-16T16:23:40Z</time>
      </trkpt>
      <trkpt lat="42.0381530" lon="-6.9900390">
        <ele>1190.2</ele>
        <time>2019-08-16T16:23:41Z</time>
      </trkpt>
      <trkpt lat="42.0381770" lon="-6.9900910">
        <ele>1189.8</ele>
        <time>2019-08-16T16:23:42Z</time>
      </trkpt>
      <trkpt lat="42.0382030" lon="-6.9901420">
        <ele>1189.4</ele>
        <time>2019-08-16T16:23:43Z</time>
      </trkpt>
      <trkpt lat="42.0382330" lon="-6.9901900">
        <ele>1189.0</ele>
        <time>2019-08-16T16:23:44Z</time>
      </trkpt>
      <trkpt lat="42.0382640" lon="-6.9902370">
        <ele>1188.6</ele>
        <time>2019-08-16T16:23:45Z</time>
      </trkpt>
      <trkpt lat="42.0382960" lon="-6.9902830">
        <ele>1188.2</ele>
        <time>2019-08-16T16:23:46Z</time>
      </trkpt>
      <trkpt lat="42.0383280" lon="-6.9903290">
        <ele>1187.7</ele>
        <time>2019-08-16T16:23:47Z</time>
      </trkpt>
      <trkpt lat="42.0383600" lon="-6.9903750">
        <ele>1187.3</ele>
        <time>2019-08-16T16:23:48Z</time>
      </trkpt>
      <trkpt lat="42.0383950" lon="-6.9904190">
        <ele>1186.8</ele>
        <time>2019-08-16T16:23:49Z</time>
      </trkpt>
      <trkpt lat="42.0384320" lon="-6.9904600">
        <ele>1186.4</ele>
        <time>2019-08-16T16:23:50Z</time>
      </trkpt>
      <trkpt lat="42.0384720" lon="-6.9904990">
        <ele>1185.9</ele>
        <time>2019-08-16T16:23:51Z</time>
      </trkpt>
      <trkpt lat="42.0385140" lon="-6.9905380">
        <ele>1185.4</ele>
        <time>2019-08-16T16:23:52Z</time>
      </trkpt>
      <trkpt lat="42.0385580" lon="-6.9905780">
        <ele>1184.9</ele>
        <time>2019-08-16T16:23:53Z</time>
      </trkpt>
      <trkpt lat="42.0386020" lon="-6.9906160">
        <ele>1184.3</ele>
        <time>2019-08-16T16:23:54Z</time>
      </trkpt>
      <trkpt lat="42.0386470" lon="-6.9906550">
        <ele>1183.8</ele>
        <time>2019-08-16T16:23:55Z</time>
      </trkpt>
      <trkpt lat="42.0386940" lon="-6.9906930">
        <ele>1183.2</ele>
        <time>2019-08-16T16:23:56Z</time>
      </trkpt>
      <trkpt lat="42.0387410" lon="-6.9907320">
        <ele>1182.7</ele>
        <time>2019-08-16T16:23:57Z</time>
      </trkpt>
      <trkpt lat="42.0387890" lon="-6.9907710">
        <ele>1182.2</ele>
        <time>2019-08-16T16:23:58Z</time>
      </trkpt>
      <trkpt lat="42.0388360" lon="-6.9908120">
        <ele>1181.7</ele>
        <time>2019-08-16T16:23:59Z</time>
      </trkpt>
      <trkpt lat="42.0388800" lon="-6.9908560">
        <ele>1181.2</ele>
        <time>2019-08-16T16:24:00Z</time>
      </trkpt>
      <trkpt lat="42.0389240" lon="-6.9908980">
        <ele>1180.7</ele>
        <time>2019-08-16T16:24:01Z</time>
      </trkpt>
      <trkpt lat="42.0389690" lon="-6.9909400">
        <ele>1180.2</ele>
        <time>2019-08-16T16:24:02Z</time>
      </trkpt>
      <trkpt lat="42.0390150" lon="-6.9909850">
        <ele>1179.7</ele>
        <time>2019-08-16T16:24:03Z</time>
      </trkpt>
      <trkpt lat="42.0390630" lon="-6.9910310">
        <ele>1179.2</ele>
        <time>2019-08-16T16:24:04Z</time>
      </trkpt>
      <trkpt lat="42.0391110" lon="-6.9910780">
        <ele>1178.7</ele>
        <time>2019-08-16T16:24:05Z</time>
      </trkpt>
      <trkpt lat="42.0391590" lon="-6.9911300">
        <ele>1178.1</ele>
        <time>2019-08-16T16:24:06Z</time>
      </trkpt>
      <trkpt lat="42.0392040" lon="-6.9911880">
        <ele>1177.6</ele>
        <time>2019-08-16T16:24:07Z</time>
      </trkpt>
      <trkpt lat="42.0392440" lon="-6.9912500">
        <ele>1177.1</ele>
        <time>2019-08-16T16:24:08Z</time>
      </trkpt>
      <trkpt lat="42.0392810" lon="-6.9913150">
        <ele>1176.6</ele>
        <time>2019-08-16T16:24:09Z</time>
      </trkpt>
      <trkpt lat="42.0393150" lon="-6.9913800">
        <ele>1176.0</ele>
        <time>2019-08-16T16:24:10Z</time>
      </trkpt>
      <trkpt lat="42.0393490" lon="-6.9914450">
        <ele>1175.6</ele>
        <time>2019-08-16T16:24:11Z</time>
      </trkpt>
      <trkpt lat="42.0393780" lon="-6.9915140">
        <ele>1175.2</ele>
        <time>2019-08-16T16:24:12Z</time>
      </trkpt>
      <trkpt lat="42.0394070" lon="-6.9915850">
        <ele>1174.8</ele>
        <time>2019-08-16T16:24:13Z</time>
      </trkpt>
      <trkpt lat="42.0394330" lon="-6.9916600">
        <ele>1174.4</ele>
        <time>2019-08-16T16:24:14Z</time>
      </trkpt>
      <trkpt lat="42.0394560" lon="-6.9917390">
        <ele>1173.9</ele>
        <time>2019-08-16T16:24:15Z</time>
      </trkpt>
      <trkpt lat="42.0394760" lon="-6.9918200">
        <ele>1173.6</ele>
        <time>2019-08-16T16:24:16Z</time>
      </trkpt>
      <trkpt lat="42.0394940" lon="-6.9919010">
        <ele>1173.2</ele>
        <time>2019-08-16T16:24:17Z</time>
      </trkpt>
      <trkpt lat="42.0395100" lon="-6.9919830">
        <ele>1172.9</ele>
        <time>2019-08-16T16:24:18Z</time>
      </trkpt>
      <trkpt lat="42.0395260" lon="-6.9920630">
        <ele>1172.6</ele>
        <time>2019-08-16T16:24:19Z</time>
      </trkpt>
      <trkpt lat="42.0395400" lon="-6.9921450">
        <ele>1172.1</ele>
        <time>2019-08-16T16:24:20Z</time>
      </trkpt>
      <trkpt lat="42.0395500" lon="-6.9922300">
        <ele>1171.8</ele>
        <time>2019-08-16T16:24:21Z</time>
      </trkpt>
      <trkpt lat="42.0395570" lon="-6.9923140">
        <ele>1171.4</ele>
        <time>2019-08-16T16:24:22Z</time>
      </trkpt>
      <trkpt lat="42.0395640" lon="-6.9923970">
        <ele>1171.0</ele>
        <time>2019-08-16T16:24:23Z</time>
      </trkpt>
      <trkpt lat="42.0395720" lon="-6.9924790">
        <ele>1170.6</ele>
        <time>2019-08-16T16:24:24Z</time>
      </trkpt>
      <trkpt lat="42.0395810" lon="-6.9925600">
        <ele>1170.2</ele>
        <time>2019-08-16T16:24:25Z</time>
      </trkpt>
      <trkpt lat="42.0395910" lon="-6.9926400">
        <ele>1169.9</ele>
        <time>2019-08-16T16:24:26Z</time>
      </trkpt>
      <trkpt lat="42.0396020" lon="-6.9927210">
        <ele>1169.5</ele>
        <time>2019-08-16T16:24:27Z</time>
      </trkpt>
      <trkpt lat="42.0396160" lon="-6.9928030">
        <ele>1169.1</ele>
        <time>2019-08-16T16:24:28Z</time>
      </trkpt>
      <trkpt lat="42.0396310" lon="-6.9928860">
        <ele>1168.7</ele>
        <time>2019-08-16T16:24:29Z</time>
      </trkpt>
      <trkpt lat="42.0396500" lon="-6.9929680">
        <ele>1168.3</ele>
        <time>2019-08-16T16:24:30Z</time>
      </trkpt>
      <trkpt lat="42.0396730" lon="-6.9930470">
        <ele>1168.0</ele>
        <time>2019-08-16T16:24:31Z</time>
      </trkpt>
      <trkpt lat="42.0397000" lon="-6.9931230">
        <ele>1167.6</ele>
        <time>2019-08-16T16:24:32Z</time>
      </trkpt>
      <trkpt lat="42.0397280" lon="-6.9931970">
        <ele>1167.3</ele>
        <time>2019-08-16T16:24:33Z</time>
      </trkpt>
      <trkpt lat="42.0397590" lon="-6.9932690">
        <ele>1167.0</ele>
        <time>2019-08-16T16:24:34Z</time>
      </trkpt>
      <trkpt lat="42.0397900" lon="-6.9933410">
        <ele>1166.7</ele>
        <time>2019-08-16T16:24:35Z</time>
      </trkpt>
      <trkpt lat="42.0398210" lon="-6.9934090">
        <ele>1166.4</ele>
        <time>2019-08-16T16:24:36Z</time>
      </trkpt>
      <trkpt lat="42.0398540" lon="-6.9934760">
        <ele>1166.1</ele>
        <time>2019-08-16T16:24:37Z</time>
      </trkpt>
      <trkpt lat="42.0398870" lon="-6.9935420">
        <ele>1165.9</ele>
        <time>2019-08-16T16:24:38Z</time>
      </trkpt>
      <trkpt lat="42.0399190" lon="-6.9936050">
        <ele>1165.7</ele>
        <time>2019-08-16T16:24:39Z</time>
      </trkpt>
      <trkpt lat="42.0399490" lon="-6.9936670">
        <ele>1165.5</ele>
        <time>2019-08-16T16:24:40Z</time>
      </trkpt>
      <trkpt lat="42.0399780" lon="-6.9937230">
        <ele>1165.2</ele>
        <time>2019-08-16T16:24:41Z</time>
      </trkpt>
      <trkpt lat="42.0400080" lon="-6.9937780">
        <ele>1165.0</ele>
        <time>2019-08-16T16:24:42Z</time>
      </trkpt>
      <trkpt lat="42.0400380" lon="-6.9938330">
        <ele>1164.7</ele>
        <time>2019-08-16T16:24:43Z</time>
      </trkpt>
      <trkpt lat="42.0400640" lon="-6.9938830">
        <ele>1164.5</ele>
        <time>2019-08-16T16:24:44Z</time>
      </trkpt>
      <trkpt lat="42.0400840" lon="-6.9939240">
        <ele>1164.3</ele>
        <time>2019-08-16T16:24:45Z</time>
      </trkpt>
      <trkpt lat="42.0401010" lon="-6.9939540">
        <ele>1164.2</ele>
        <time>2019-08-16T16:24:46Z</time>
      </trkpt>
      <trkpt lat="42.0401180" lon="-6.9939770">
        <ele>1163.5</ele>
        <time>2019-08-16T16:24:47Z</time>
      </trkpt>
      <trkpt lat="42.0401480" lon="-6.9940340">
        <ele>1163.2</ele>
        <time>2019-08-16T16:24:49Z</time>
      </trkpt>
      <trkpt lat="42.0401650" lon="-6.9940690">
        <ele>1162.9</ele>
        <time>2019-08-16T16:24:50Z</time>
      </trkpt>
      <trkpt lat="42.0401850" lon="-6.9941060">
        <ele>1162.7</ele>
        <time>2019-08-16T16:24:51Z</time>
      </trkpt>
      <trkpt lat="42.0402100" lon="-6.9941460">
        <ele>1162.4</ele>
        <time>2019-08-16T16:24:52Z</time>
      </trkpt>
      <trkpt lat="42.0402370" lon="-6.9941910">
        <ele>1162.2</ele>
        <time>2019-08-16T16:24:53Z</time>
      </trkpt>
      <trkpt lat="42.0402640" lon="-6.9942410">
        <ele>1161.9</ele>
        <time>2019-08-16T16:24:54Z</time>
      </trkpt>
      <trkpt lat="42.0402940" lon="-6.9942960">
        <ele>1161.6</ele>
        <time>2019-08-16T16:24:55Z</time>
      </trkpt>
      <trkpt lat="42.0403270" lon="-6.9943510">
        <ele>1161.3</ele>
        <time>2019-08-16T16:24:56Z</time>
      </trkpt>
      <trkpt lat="42.0403630" lon="-6.9944080">
        <ele>1161.0</ele>
        <time>2019-08-16T16:24:57Z</time>
      </trkpt>
      <trkpt lat="42.0404000" lon="-6.9944660">
        <ele>1160.7</ele>
        <time>2019-08-16T16:24:58Z</time>
      </trkpt>
      <trkpt lat="42.0404390" lon="-6.9945260">
        <ele>1160.4</ele>
        <time>2019-08-16T16:24:59Z</time>
      </trkpt>
      <trkpt lat="42.0404810" lon="-6.9945860">
        <ele>1160.1</ele>
        <time>2019-08-16T16:25:00Z</time>
      </trkpt>
      <trkpt lat="42.0405280" lon="-6.9946470">
        <ele>1159.9</ele>
        <time>2019-08-16T16:25:01Z</time>
      </trkpt>
      <trkpt lat="42.0405780" lon="-6.9947050">
        <ele>1159.6</ele>
        <time>2019-08-16T16:25:02Z</time>
      </trkpt>
      <trkpt lat="42.0406320" lon="-6.9947600">
        <ele>1159.4</ele>
        <time>2019-08-16T16:25:03Z</time>
      </trkpt>
      <trkpt lat="42.0406890" lon="-6.9948110">
        <ele>1159.2</ele>
        <time>2019-08-16T16:25:04Z</time>
      </trkpt>
      <trkpt lat="42.0407490" lon="-6.9948610">
        <ele>1159.0</ele>
        <time>2019-08-16T16:25:05Z</time>
      </trkpt>
      <trkpt lat="42.0408090" lon="-6.9949080">
        <ele>1158.8</ele>
        <time>2019-08-16T16:25:06Z</time>
      </trkpt>
      <trkpt lat="42.0408690" lon="-6.9949510">
        <ele>1158.6</ele>
        <time>2019-08-16T16:25:07Z</time>
      </trkpt>
      <trkpt lat="42.0409290" lon="-6.9949890">
        <ele>1158.5</ele>
        <time>2019-08-16T16:25:08Z</time>
      </trkpt>
      <trkpt lat="42.0409890" lon="-6.9950290">
        <ele>1158.4</ele>
        <time>2019-08-16T16:25:09Z</time>
      </trkpt>
      <trkpt lat="42.0410460" lon="-6.9950690">
        <ele>1158.3</ele>
        <time>2019-08-16T16:25:10Z</time>
      </trkpt>
      <trkpt lat="42.0411030" lon="-6.9951080">
        <ele>1158.1</ele>
        <time>2019-08-16T16:25:11Z</time>
      </trkpt>
      <trkpt lat="42.0411590" lon="-6.9951450">
        <ele>1158.0</ele>
        <time>2019-08-16T16:25:12Z</time>
      </trkpt>
      <trkpt lat="42.0412160" lon="-6.9951810">
        <ele>1157.8</ele>
        <time>2019-08-16T16:25:13Z</time>
      </trkpt>
      <trkpt lat="42.0412750" lon="-6.9952150">
        <ele>1157.7</ele>
        <time>2019-08-16T16:25:14Z</time>
      </trkpt>
      <trkpt lat="42.0413340" lon="-6.9952510">
        <ele>1157.5</ele>
        <time>2019-08-16T16:25:15Z</time>
      </trkpt>
      <trkpt lat="42.0413930" lon="-6.9952890">
        <ele>1157.2</ele>
        <time>2019-08-16T16:25:16Z</time>
      </trkpt>
      <trkpt lat="42.0414540" lon="-6.9953260">
        <ele>1156.9</ele>
        <time>2019-08-16T16:25:17Z</time>
      </trkpt>
      <trkpt lat="42.0415160" lon="-6.9953640">
        <ele>1156.6</ele>
        <time>2019-08-16T16:25:18Z</time>
      </trkpt>
      <trkpt lat="42.0415790" lon="-6.9954000">
        <ele>1156.2</ele>
        <time>2019-08-16T16:25:19Z</time>
      </trkpt>
      <trkpt lat="42.0416410" lon="-6.9954370">
        <ele>1155.8</ele>
        <time>2019-08-16T16:25:20Z</time>
      </trkpt>
      <trkpt lat="42.0417040" lon="-6.9954730">
        <ele>1155.4</ele>
        <time>2019-08-16T16:25:21Z</time>
      </trkpt>
      <trkpt lat="42.0417660" lon="-6.9955090">
        <ele>1155.0</ele>
        <time>2019-08-16T16:25:22Z</time>
      </trkpt>
      <trkpt lat="42.0418300" lon="-6.9955410">
        <ele>1154.6</ele>
        <time>2019-08-16T16:25:23Z</time>
      </trkpt>
      <trkpt lat="42.0418980" lon="-6.9955750">
        <ele>1154.1</ele>
        <time>2019-08-16T16:25:24Z</time>
      </trkpt>
      <trkpt lat="42.0419670" lon="-6.9956100">
        <ele>1153.7</ele>
        <time>2019-08-16T16:25:25Z</time>
      </trkpt>
      <trkpt lat="42.0420370" lon="-6.9956480">
        <ele>1153.4</ele>
        <time>2019-08-16T16:25:26Z</time>
      </trkpt>
      <trkpt lat="42.0421080" lon="-6.9956900">
        <ele>1153.0</ele>
        <time>2019-08-16T16:25:27Z</time>
      </trkpt>
      <trkpt lat="42.0421800" lon="-6.9957310">
        <ele>1152.6</ele>
        <time>2019-08-16T16:25:28Z</time>
      </trkpt>
      <trkpt lat="42.0422510" lon="-6.9957710">
        <ele>1152.3</ele>
        <time>2019-08-16T16:25:29Z</time>
      </trkpt>
      <trkpt lat="42.0423230" lon="-6.9958100">
        <ele>1152.0</ele>
        <time>2019-08-16T16:25:30Z</time>
      </trkpt>
      <trkpt lat="42.0423950" lon="-6.9958500">
        <ele>1151.8</ele>
        <time>2019-08-16T16:25:31Z</time>
      </trkpt>
      <trkpt lat="42.0424670" lon="-6.9958910">
        <ele>1151.6</ele>
        <time>2019-08-16T16:25:32Z</time>
      </trkpt>
      <trkpt lat="42.0425360" lon="-6.9959340">
        <ele>1151.4</ele>
        <time>2019-08-16T16:25:33Z</time>
      </trkpt>
      <trkpt lat="42.0426050" lon="-6.9959770">
        <ele>1151.2</ele>
        <time>2019-08-16T16:25:34Z</time>
      </trkpt>
      <trkpt lat="42.0426710" lon="-6.9960230">
        <ele>1151.0</ele>
        <time>2019-08-16T16:25:35Z</time>
      </trkpt>
      <trkpt lat="42.0427360" lon="-6.9960720">
        <ele>1150.8</ele>
        <time>2019-08-16T16:25:36Z</time>
      </trkpt>
      <trkpt lat="42.0427970" lon="-6.9961240">
        <ele>1150.6</ele>
        <time>2019-08-16T16:25:37Z</time>
      </trkpt>
      <trkpt lat="42.0428540" lon="-6.9961810">
        <ele>1150.4</ele>
        <time>2019-08-16T16:25:38Z</time>
      </trkpt>
      <trkpt lat="42.0429060" lon="-6.9962450">
        <ele>1150.1</ele>
        <time>2019-08-16T16:25:39Z</time>
      </trkpt>
      <trkpt lat="42.0429550" lon="-6.9963120">
        <ele>1149.9</ele>
        <time>2019-08-16T16:25:40Z</time>
      </trkpt>
      <trkpt lat="42.0430010" lon="-6.9963800">
        <ele>1149.6</ele>
        <time>2019-08-16T16:25:41Z</time>
      </trkpt>
      <trkpt lat="42.0430440" lon="-6.9964510">
        <ele>1149.3</ele>
        <time>2019-08-16T16:25:42Z</time>
      </trkpt>
      <trkpt lat="42.0430840" lon="-6.9965240">
        <ele>1149.1</ele>
        <time>2019-08-16T16:25:43Z</time>
      </trkpt>
      <trkpt lat="42.0431230" lon="-6.9966020">
        <ele>1148.8</ele>
        <time>2019-08-16T16:25:44Z</time>
      </trkpt>
      <trkpt lat="42.0431610" lon="-6.9966840">
        <ele>1148.5</ele>
        <time>2019-08-16T16:25:45Z</time>
      </trkpt>
      <trkpt lat="42.0431970" lon="-6.9967650">
        <ele>1148.2</ele>
        <time>2019-08-16T16:25:46Z</time>
      </trkpt>
      <trkpt lat="42.0432330" lon="-6.9968440">
        <ele>1147.9</ele>
        <time>2019-08-16T16:25:47Z</time>
      </trkpt>
      <trkpt lat="42.0432690" lon="-6.9969190">
        <ele>1147.6</ele>
        <time>2019-08-16T16:25:48Z</time>
      </trkpt>
      <trkpt lat="42.0433060" lon="-6.9969960">
        <ele>1147.3</ele>
        <time>2019-08-16T16:25:49Z</time>
      </trkpt>
      <trkpt lat="42.0433420" lon="-6.9970730">
        <ele>1147.1</ele>
        <time>2019-08-16T16:25:50Z</time>
      </trkpt>
      <trkpt lat="42.0433780" lon="-6.9971500">
        <ele>1146.8</ele>
        <time>2019-08-16T16:25:51Z</time>
      </trkpt>
      <trkpt lat="42.0434150" lon="-6.9972240">
        <ele>1146.5</ele>
        <time>2019-08-16T16:25:52Z</time>
      </trkpt>
      <trkpt lat="42.0434490" lon="-6.9972970">
        <ele>1146.2</ele>
        <time>2019-08-16T16:25:53Z</time>
      </trkpt>
      <trkpt lat="42.0434810" lon="-6.9973720">
        <ele>1145.9</ele>
        <time>2019-08-16T16:25:54Z</time>
      </trkpt>
      <trkpt lat="42.0435140" lon="-6.9974470">
        <ele>1145.6</ele>
        <time>2019-08-16T16:25:55Z</time>
      </trkpt>
      <trkpt lat="42.0435480" lon="-6.9975230">
        <ele>1145.4</ele>
        <time>2019-08-16T16:25:56Z</time>
      </trkpt>
      <trkpt lat="42.0435830" lon="-6.9975980">
        <ele>1144.7</ele>
        <time>2019-08-16T16:25:57Z</time>
      </trkpt>
      <trkpt lat="42.0436180" lon="-6.9976740">
        <ele>1144.3</ele>
        <time>2019-08-16T16:25:58Z</time>
      </trkpt>
      <trkpt lat="42.0436530" lon="-6.9977500">
        <ele>1143.9</ele>
        <time>2019-08-16T16:25:59Z</time>
      </trkpt>
      <trkpt lat="42.0436900" lon="-6.9978240">
        <ele>1143.5</ele>
        <time>2019-08-16T16:26:00Z</time>
      </trkpt>
      <trkpt lat="42.0437260" lon="-6.9979000">
        <ele>1143.1</ele>
        <time>2019-08-16T16:26:01Z</time>
      </trkpt>
      <trkpt lat="42.0437620" lon="-6.9979790">
        <ele>1142.7</ele>
        <time>2019-08-16T16:26:02Z</time>
      </trkpt>
      <trkpt lat="42.0438010" lon="-6.9980600">
        <ele>1142.2</ele>
        <time>2019-08-16T16:26:03Z</time>
      </trkpt>
      <trkpt lat="42.0438400" lon="-6.9981410">
        <ele>1141.7</ele>
        <time>2019-08-16T16:26:04Z</time>
      </trkpt>
      <trkpt lat="42.0438780" lon="-6.9982250">
        <ele>1141.2</ele>
        <time>2019-08-16T16:26:05Z</time>
      </trkpt>
      <trkpt lat="42.0439160" lon="-6.9983090">
        <ele>1140.7</ele>
        <time>2019-08-16T16:26:06Z</time>
      </trkpt>
      <trkpt lat="42.0439540" lon="-6.9983940">
        <ele>1140.1</ele>
        <time>2019-08-16T16:26:07Z</time>
      </trkpt>
      <trkpt lat="42.0439910" lon="-6.9984800">
        <ele>1139.7</ele>
        <time>2019-08-16T16:26:08Z</time>
      </trkpt>
      <trkpt lat="42.0440260" lon="-6.9985670">
        <ele>1139.3</ele>
        <time>2019-08-16T16:26:09Z</time>
      </trkpt>
      <trkpt lat="42.0440580" lon="-6.9986540">
        <ele>1138.6</ele>
        <time>2019-08-16T16:26:10Z</time>
      </trkpt>
      <trkpt lat="42.0440890" lon="-6.9987440">
        <ele>1138.3</ele>
        <time>2019-08-16T16:26:11Z</time>
      </trkpt>
      <trkpt lat="42.0441170" lon="-6.9988370">
        <ele>1138.1</ele>
        <time>2019-08-16T16:26:12Z</time>
      </trkpt>
      <trkpt lat="42.0441420" lon="-6.9989340">
        <ele>1137.8</ele>
        <time>2019-08-16T16:26:13Z</time>
      </trkpt>
      <trkpt lat="42.0441640" lon="-6.9990330">
        <ele>1137.5</ele>
        <time>2019-08-16T16:26:14Z</time>
      </trkpt>
      <trkpt lat="42.0441820" lon="-6.9991370">
        <ele>1137.2</ele>
        <time>2019-08-16T16:26:15Z</time>
      </trkpt>
      <trkpt lat="42.0441940" lon="-6.9992430">
        <ele>1136.9</ele>
        <time>2019-08-16T16:26:16Z</time>
      </trkpt>
      <trkpt lat="42.0441990" lon="-6.9993490">
        <ele>1136.5</ele>
        <time>2019-08-16T16:26:17Z</time>
      </trkpt>
      <trkpt lat="42.0441980" lon="-6.9994540">
        <ele>1136.2</ele>
        <time>2019-08-16T16:26:18Z</time>
      </trkpt>
      <trkpt lat="42.0441920" lon="-6.9995630">
        <ele>1135.8</ele>
        <time>2019-08-16T16:26:19Z</time>
      </trkpt>
      <trkpt lat="42.0441800" lon="-6.9996700">
        <ele>1135.4</ele>
        <time>2019-08-16T16:26:20Z</time>
      </trkpt>
      <trkpt lat="42.0441620" lon="-6.9997770">
        <ele>1135.0</ele>
        <time>2019-08-16T16:26:21Z</time>
      </trkpt>
      <trkpt lat="42.0441350" lon="-6.9998810">
        <ele>1134.6</ele>
        <time>2019-08-16T16:26:22Z</time>
      </trkpt>
      <trkpt lat="42.0441040" lon="-6.9999790">
        <ele>1134.2</ele>
        <time>2019-08-16T16:26:23Z</time>
      </trkpt>
      <trkpt lat="42.0440670" lon="-7.0000710">
        <ele>1133.4</ele>
        <time>2019-08-16T16:26:24Z</time>
      </trkpt>
      <trkpt lat="42.0440260" lon="-7.0001550">
        <ele>1132.7</ele>
        <time>2019-08-16T16:26:25Z</time>
      </trkpt>
      <trkpt lat="42.0439790" lon="-7.0002350">
        <ele>1132.1</ele>
        <time>2019-08-16T16:26:26Z</time>
      </trkpt>
      <trkpt lat="42.0439290" lon="-7.0003120">
        <ele>1131.5</ele>
        <time>2019-08-16T16:26:27Z</time>
      </trkpt>
      <trkpt lat="42.0438760" lon="-7.0003920">
        <ele>1130.8</ele>
        <time>2019-08-16T16:26:28Z</time>
      </trkpt>
      <trkpt lat="42.0438200" lon="-7.0004740">
        <ele>1130.2</ele>
        <time>2019-08-16T16:26:29Z</time>
      </trkpt>
      <trkpt lat="42.0437640" lon="-7.0005510">
        <ele>1129.6</ele>
        <time>2019-08-16T16:26:30Z</time>
      </trkpt>
      <trkpt lat="42.0437110" lon="-7.0006220">
        <ele>1129.1</ele>
        <time>2019-08-16T16:26:31Z</time>
      </trkpt>
      <trkpt lat="42.0436600" lon="-7.0006920">
        <ele>1128.3</ele>
        <time>2019-08-16T16:26:32Z</time>
      </trkpt>
      <trkpt lat="42.0436110" lon="-7.0007590">
        <ele>1127.7</ele>
        <time>2019-08-16T16:26:33Z</time>
      </trkpt>
      <trkpt lat="42.0435610" lon="-7.0008260">
        <ele>1127.0</ele>
        <time>2019-08-16T16:26:34Z</time>
      </trkpt>
      <trkpt lat="42.0435100" lon="-7.0008950">
        <ele>1126.2</ele>
        <time>2019-08-16T16:26:35Z</time>
      </trkpt>
      <trkpt lat="42.0434580" lon="-7.0009660">
        <ele>1125.5</ele>
        <time>2019-08-16T16:26:36Z</time>
      </trkpt>
      <trkpt lat="42.0434050" lon="-7.0010360">
        <ele>1124.8</ele>
        <time>2019-08-16T16:26:37Z</time>
      </trkpt>
      <trkpt lat="42.0433530" lon="-7.0011010">
        <ele>1124.1</ele>
        <time>2019-08-16T16:26:38Z</time>
      </trkpt>
      <trkpt lat="42.0432980" lon="-7.0011640">
        <ele>1123.5</ele>
        <time>2019-08-16T16:26:39Z</time>
      </trkpt>
      <trkpt lat="42.0432400" lon="-7.0012220">
        <ele>1122.8</ele>
        <time>2019-08-16T16:26:40Z</time>
      </trkpt>
      <trkpt lat="42.0431810" lon="-7.0012780">
        <ele>1122.1</ele>
        <time>2019-08-16T16:26:41Z</time>
      </trkpt>
      <trkpt lat="42.0431210" lon="-7.0013290">
        <ele>1121.6</ele>
        <time>2019-08-16T16:26:42Z</time>
      </trkpt>
      <trkpt lat="42.0430590" lon="-7.0013740">
        <ele>1121.2</ele>
        <time>2019-08-16T16:26:43Z</time>
      </trkpt>
      <trkpt lat="42.0429930" lon="-7.0014130">
        <ele>1120.7</ele>
        <time>2019-08-16T16:26:44Z</time>
      </trkpt>
      <trkpt lat="42.0429260" lon="-7.0014470">
        <ele>1120.3</ele>
        <time>2019-08-16T16:26:45Z</time>
      </trkpt>
      <trkpt lat="42.0428590" lon="-7.0014770">
        <ele>1119.8</ele>
        <time>2019-08-16T16:26:46Z</time>
      </trkpt>
      <trkpt lat="42.0427890" lon="-7.0015050">
        <ele>1119.4</ele>
        <time>2019-08-16T16:26:47Z</time>
      </trkpt>
      <trkpt lat="42.0427170" lon="-7.0015300">
        <ele>1118.9</ele>
        <time>2019-08-16T16:26:48Z</time>
      </trkpt>
      <trkpt lat="42.0426440" lon="-7.0015510">
        <ele>1118.4</ele>
        <time>2019-08-16T16:26:49Z</time>
      </trkpt>
      <trkpt lat="42.0425710" lon="-7.0015670">
        <ele>1117.4</ele>
        <time>2019-08-16T16:26:50Z</time>
      </trkpt>
      <trkpt lat="42.0424990" lon="-7.0015800">
        <ele>1116.1</ele>
        <time>2019-08-16T16:26:51Z</time>
      </trkpt>
      <trkpt lat="42.0424280" lon="-7.0015900">
        <ele>1114.0</ele>
        <time>2019-08-16T16:26:52Z</time>
      </trkpt>
      <trkpt lat="42.0423590" lon="-7.0015970">
        <ele>1113.9</ele>
        <time>2019-08-16T16:26:53Z</time>
      </trkpt>
      <trkpt lat="42.0422890" lon="-7.0016020">
        <ele>1113.8</ele>
        <time>2019-08-16T16:26:54Z</time>
      </trkpt>
      <trkpt lat="42.0422170" lon="-7.0016080">
        <ele>1113.7</ele>
        <time>2019-08-16T16:26:55Z</time>
      </trkpt>
      <trkpt lat="42.0421430" lon="-7.0016150">
        <ele>1113.5</ele>
        <time>2019-08-16T16:26:56Z</time>
      </trkpt>
      <trkpt lat="42.0420690" lon="-7.0016230">
        <ele>1113.3</ele>
        <time>2019-08-16T16:26:57Z</time>
      </trkpt>
      <trkpt lat="42.0419950" lon="-7.0016300">
        <ele>1113.0</ele>
        <time>2019-08-16T16:26:58Z</time>
      </trkpt>
      <trkpt lat="42.0419210" lon="-7.0016390">
        <ele>1112.7</ele>
        <time>2019-08-16T16:26:59Z</time>
      </trkpt>
      <trkpt lat="42.0418490" lon="-7.0016540">
        <ele>1112.4</ele>
        <time>2019-08-16T16:27:00Z</time>
      </trkpt>
      <trkpt lat="42.0417770" lon="-7.0016720">
        <ele>1112.1</ele>
        <time>2019-08-16T16:27:01Z</time>
      </trkpt>
      <trkpt lat="42.0417080" lon="-7.0016940">
        <ele>1111.7</ele>
        <time>2019-08-16T16:27:02Z</time>
      </trkpt>
      <trkpt lat="42.0416420" lon="-7.0017210">
        <ele>1111.3</ele>
        <time>2019-08-16T16:27:03Z</time>
      </trkpt>
      <trkpt lat="42.0415800" lon="-7.0017520">
        <ele>1111.0</ele>
        <time>2019-08-16T16:27:04Z</time>
      </trkpt>
      <trkpt lat="42.0415190" lon="-7.0017860">
        <ele>1110.6</ele>
        <time>2019-08-16T16:27:05Z</time>
      </trkpt>
      <trkpt lat="42.0414590" lon="-7.0018260">
        <ele>1110.2</ele>
        <time>2019-08-16T16:27:06Z</time>
      </trkpt>
      <trkpt lat="42.0414010" lon="-7.0018720">
        <ele>1109.9</ele>
        <time>2019-08-16T16:27:07Z</time>
      </trkpt>
      <trkpt lat="42.0413460" lon="-7.0019220">
        <ele>1109.6</ele>
        <time>2019-08-16T16:27:08Z</time>
      </trkpt>
      <trkpt lat="42.0412940" lon="-7.0019770">
        <ele>1109.4</ele>
        <time>2019-08-16T16:27:09Z</time>
      </trkpt>
      <trkpt lat="42.0412460" lon="-7.0020330">
        <ele>1109.3</ele>
        <time>2019-08-16T16:27:10Z</time>
      </trkpt>
      <trkpt lat="42.0412010" lon="-7.0020940">
        <ele>1109.3</ele>
        <time>2019-08-16T16:27:11Z</time>
      </trkpt>
      <trkpt lat="42.0411560" lon="-7.0021590">
        <ele>1109.3</ele>
        <time>2019-08-16T16:27:12Z</time>
      </trkpt>
      <trkpt lat="42.0411120" lon="-7.0022280">
        <ele>1109.4</ele>
        <time>2019-08-16T16:27:13Z</time>
      </trkpt>
      <trkpt lat="42.0410680" lon="-7.0023020">
        <ele>1109.2</ele>
        <time>2019-08-16T16:27:14Z</time>
      </trkpt>
      <trkpt lat="42.0410250" lon="-7.0023810">
        <ele>1108.9</ele>
        <time>2019-08-16T16:27:15Z</time>
      </trkpt>
      <trkpt lat="42.0409850" lon="-7.0024590">
        <ele>1108.6</ele>
        <time>2019-08-16T16:27:16Z</time>
      </trkpt>
      <trkpt lat="42.0409460" lon="-7.0025390">
        <ele>1108.2</ele>
        <time>2019-08-16T16:27:17Z</time>
      </trkpt>
      <trkpt lat="42.0409080" lon="-7.0026210">
        <ele>1107.9</ele>
        <time>2019-08-16T16:27:18Z</time>
      </trkpt>
      <trkpt lat="42.0408710" lon="-7.0027030">
        <ele>1107.5</ele>
        <time>2019-08-16T16:27:19Z</time>
      </trkpt>
      <trkpt lat="42.0408370" lon="-7.0027840">
        <ele>1107.2</ele>
        <time>2019-08-16T16:27:20Z</time>
      </trkpt>
      <trkpt lat="42.0408040" lon="-7.0028680">
        <ele>1106.8</ele>
        <time>2019-08-16T16:27:21Z</time>
      </trkpt>
      <trkpt lat="42.0407720" lon="-7.0029540">
        <ele>1106.4</ele>
        <time>2019-08-16T16:27:22Z</time>
      </trkpt>
      <trkpt lat="42.0407420" lon="-7.0030410">
        <ele>1106.0</ele>
        <time>2019-08-16T16:27:23Z</time>
      </trkpt>
      <trkpt lat="42.0407160" lon="-7.0031280">
        <ele>1105.6</ele>
        <time>2019-08-16T16:27:24Z</time>
      </trkpt>
      <trkpt lat="42.0406930" lon="-7.0032170">
        <ele>1105.2</ele>
        <time>2019-08-16T16:27:25Z</time>
      </trkpt>
      <trkpt lat="42.0406760" lon="-7.0033080">
        <ele>1104.8</ele>
        <time>2019-08-16T16:27:26Z</time>
      </trkpt>
      <trkpt lat="42.0406630" lon="-7.0034000">
        <ele>1104.4</ele>
        <time>2019-08-16T16:27:27Z</time>
      </trkpt>
      <trkpt lat="42.0406540" lon="-7.0034910">
        <ele>1104.1</ele>
        <time>2019-08-16T16:27:28Z</time>
      </trkpt>
      <trkpt lat="42.0406510" lon="-7.0035820">
        <ele>1103.7</ele>
        <time>2019-08-16T16:27:29Z</time>
      </trkpt>
      <trkpt lat="42.0406520" lon="-7.0036710">
        <ele>1103.3</ele>
        <time>2019-08-16T16:27:30Z</time>
      </trkpt>
      <trkpt lat="42.0406580" lon="-7.0037590">
        <ele>1102.9</ele>
        <time>2019-08-16T16:27:31Z</time>
      </trkpt>
      <trkpt lat="42.0406660" lon="-7.0038460">
        <ele>1102.6</ele>
        <time>2019-08-16T16:27:32Z</time>
      </trkpt>
      <trkpt lat="42.0406780" lon="-7.0039310">
        <ele>1102.4</ele>
        <time>2019-08-16T16:27:33Z</time>
      </trkpt>
      <trkpt lat="42.0406920" lon="-7.0040140">
        <ele>1102.1</ele>
        <time>2019-08-16T16:27:34Z</time>
      </trkpt>
      <trkpt lat="42.0407070" lon="-7.0040980">
        <ele>1101.8</ele>
        <time>2019-08-16T16:27:35Z</time>
      </trkpt>
      <trkpt lat="42.0407250" lon="-7.0041810">
        <ele>1101.6</ele>
        <time>2019-08-16T16:27:36Z</time>
      </trkpt>
      <trkpt lat="42.0407430" lon="-7.0042590">
        <ele>1101.3</ele>
        <time>2019-08-16T16:27:37Z</time>
      </trkpt>
      <trkpt lat="42.0407590" lon="-7.0043380">
        <ele>1101.0</ele>
        <time>2019-08-16T16:27:38Z</time>
      </trkpt>
      <trkpt lat="42.0407750" lon="-7.0044160">
        <ele>1100.8</ele>
        <time>2019-08-16T16:27:39Z</time>
      </trkpt>
      <trkpt lat="42.0407910" lon="-7.0044940">
        <ele>1100.5</ele>
        <time>2019-08-16T16:27:40Z</time>
      </trkpt>
      <trkpt lat="42.0408100" lon="-7.0045730">
        <ele>1100.2</ele>
        <time>2019-08-16T16:27:41Z</time>
      </trkpt>
      <trkpt lat="42.0408280" lon="-7.0046530">
        <ele>1100.0</ele>
        <time>2019-08-16T16:27:42Z</time>
      </trkpt>
      <trkpt lat="42.0408450" lon="-7.0047310">
        <ele>1099.7</ele>
        <time>2019-08-16T16:27:43Z</time>
      </trkpt>
      <trkpt lat="42.0408620" lon="-7.0048110">
        <ele>1099.5</ele>
        <time>2019-08-16T16:27:44Z</time>
      </trkpt>
      <trkpt lat="42.0408790" lon="-7.0048930">
        <ele>1099.1</ele>
        <time>2019-08-16T16:27:45Z</time>
      </trkpt>
      <trkpt lat="42.0408950" lon="-7.0049740">
        <ele>1098.7</ele>
        <time>2019-08-16T16:27:46Z</time>
      </trkpt>
      <trkpt lat="42.0409120" lon="-7.0050550">
        <ele>1098.2</ele>
        <time>2019-08-16T16:27:47Z</time>
      </trkpt>
      <trkpt lat="42.0409290" lon="-7.0051350">
        <ele>1097.8</ele>
        <time>2019-08-16T16:27:48Z</time>
      </trkpt>
      <trkpt lat="42.0409470" lon="-7.0052150">
        <ele>1097.4</ele>
        <time>2019-08-16T16:27:49Z</time>
      </trkpt>
      <trkpt lat="42.0409650" lon="-7.0052950">
        <ele>1096.9</ele>
        <time>2019-08-16T16:27:50Z</time>
      </trkpt>
      <trkpt lat="42.0409810" lon="-7.0053760">
        <ele>1096.4</ele>
        <time>2019-08-16T16:27:51Z</time>
      </trkpt>
      <trkpt lat="42.0409970" lon="-7.0054580">
        <ele>1095.9</ele>
        <time>2019-08-16T16:27:52Z</time>
      </trkpt>
      <trkpt lat="42.0410150" lon="-7.0055380">
        <ele>1095.3</ele>
        <time>2019-08-16T16:27:53Z</time>
      </trkpt>
      <trkpt lat="42.0410310" lon="-7.0056190">
        <ele>1095.0</ele>
        <time>2019-08-16T16:27:54Z</time>
      </trkpt>
      <trkpt lat="42.0410480" lon="-7.0056990">
        <ele>1094.6</ele>
        <time>2019-08-16T16:27:55Z</time>
      </trkpt>
      <trkpt lat="42.0410630" lon="-7.0057800">
        <ele>1094.3</ele>
        <time>2019-08-16T16:27:56Z</time>
      </trkpt>
      <trkpt lat="42.0410790" lon="-7.0058570">
        <ele>1093.9</ele>
        <time>2019-08-16T16:27:57Z</time>
      </trkpt>
      <trkpt lat="42.0410970" lon="-7.0059340">
        <ele>1093.6</ele>
        <time>2019-08-16T16:27:58Z</time>
      </trkpt>
      <trkpt lat="42.0411120" lon="-7.0060120">
        <ele>1093.3</ele>
        <time>2019-08-16T16:27:59Z</time>
      </trkpt>
      <trkpt lat="42.0411270" lon="-7.0060920">
        <ele>1092.9</ele>
        <time>2019-08-16T16:28:00Z</time>
      </trkpt>
      <trkpt lat="42.0411410" lon="-7.0061730">
        <ele>1092.6</ele>
        <time>2019-08-16T16:28:01Z</time>
      </trkpt>
      <trkpt lat="42.0411530" lon="-7.0062560">
        <ele>1092.2</ele>
        <time>2019-08-16T16:28:02Z</time>
      </trkpt>
      <trkpt lat="42.0411630" lon="-7.0063430">
        <ele>1091.9</ele>
        <time>2019-08-16T16:28:03Z</time>
      </trkpt>
      <trkpt lat="42.0411720" lon="-7.0064330">
        <ele>1091.5</ele>
        <time>2019-08-16T16:28:04Z</time>
      </trkpt>
      <trkpt lat="42.0411770" lon="-7.0065280">
        <ele>1091.1</ele>
        <time>2019-08-16T16:28:05Z</time>
      </trkpt>
      <trkpt lat="42.0411760" lon="-7.0066300">
        <ele>1090.7</ele>
        <time>2019-08-16T16:28:06Z</time>
      </trkpt>
      <trkpt lat="42.0411700" lon="-7.0067340">
        <ele>1090.1</ele>
        <time>2019-08-16T16:28:07Z</time>
      </trkpt>
      <trkpt lat="42.0411590" lon="-7.0068410">
        <ele>1089.6</ele>
        <time>2019-08-16T16:28:08Z</time>
      </trkpt>
      <trkpt lat="42.0411410" lon="-7.0069510">
        <ele>1089.0</ele>
        <time>2019-08-16T16:28:09Z</time>
      </trkpt>
      <trkpt lat="42.0411170" lon="-7.0070600">
        <ele>1088.6</ele>
        <time>2019-08-16T16:28:10Z</time>
      </trkpt>
      <trkpt lat="42.0410850" lon="-7.0071700">
        <ele>1088.1</ele>
        <time>2019-08-16T16:28:11Z</time>
      </trkpt>
      <trkpt lat="42.0410460" lon="-7.0072780">
        <ele>1087.7</ele>
        <time>2019-08-16T16:28:12Z</time>
      </trkpt>
      <trkpt lat="42.0410010" lon="-7.0073810">
        <ele>1087.2</ele>
        <time>2019-08-16T16:28:13Z</time>
      </trkpt>
      <trkpt lat="42.0409490" lon="-7.0074760">
        <ele>1086.7</ele>
        <time>2019-08-16T16:28:14Z</time>
      </trkpt>
      <trkpt lat="42.0408920" lon="-7.0075670">
        <ele>1086.3</ele>
        <time>2019-08-16T16:28:15Z</time>
      </trkpt>
      <trkpt lat="42.0408310" lon="-7.0076510">
        <ele>1086.0</ele>
        <time>2019-08-16T16:28:16Z</time>
      </trkpt>
      <trkpt lat="42.0407680" lon="-7.0077280">
        <ele>1085.8</ele>
        <time>2019-08-16T16:28:17Z</time>
      </trkpt>
      <trkpt lat="42.0407000" lon="-7.0077970">
        <ele>1085.6</ele>
        <time>2019-08-16T16:28:18Z</time>
      </trkpt>
      <trkpt lat="42.0406310" lon="-7.0078590">
        <ele>1085.4</ele>
        <time>2019-08-16T16:28:19Z</time>
      </trkpt>
      <trkpt lat="42.0405600" lon="-7.0079180">
        <ele>1085.3</ele>
        <time>2019-08-16T16:28:20Z</time>
      </trkpt>
      <trkpt lat="42.0404890" lon="-7.0079760">
        <ele>1085.3</ele>
        <time>2019-08-16T16:28:21Z</time>
      </trkpt>
      <trkpt lat="42.0404180" lon="-7.0080330">
        <ele>1085.2</ele>
        <time>2019-08-16T16:28:22Z</time>
      </trkpt>
      <trkpt lat="42.0403480" lon="-7.0080900">
        <ele>1085.2</ele>
        <time>2019-08-16T16:28:23Z</time>
      </trkpt>
      <trkpt lat="42.0402770" lon="-7.0081460">
        <ele>1085.1</ele>
        <time>2019-08-16T16:28:24Z</time>
      </trkpt>
      <trkpt lat="42.0402050" lon="-7.0081990">
        <ele>1084.1</ele>
        <time>2019-08-16T16:28:25Z</time>
      </trkpt>
      <trkpt lat="42.0401340" lon="-7.0082540">
        <ele>1083.5</ele>
        <time>2019-08-16T16:28:26Z</time>
      </trkpt>
      <trkpt lat="42.0400650" lon="-7.0083070">
        <ele>1083.0</ele>
        <time>2019-08-16T16:28:27Z</time>
      </trkpt>
      <trkpt lat="42.0399980" lon="-7.0083620">
        <ele>1082.5</ele>
        <time>2019-08-16T16:28:28Z</time>
      </trkpt>
      <trkpt lat="42.0399300" lon="-7.0084150">
        <ele>1082.1</ele>
        <time>2019-08-16T16:28:29Z</time>
      </trkpt>
      <trkpt lat="42.0398630" lon="-7.0084680">
        <ele>1081.7</ele>
        <time>2019-08-16T16:28:30Z</time>
      </trkpt>
      <trkpt lat="42.0397980" lon="-7.0085230">
        <ele>1081.3</ele>
        <time>2019-08-16T16:28:31Z</time>
      </trkpt>
      <trkpt lat="42.0397340" lon="-7.0085810">
        <ele>1081.0</ele>
        <time>2019-08-16T16:28:32Z</time>
      </trkpt>
      <trkpt lat="42.0396710" lon="-7.0086390">
        <ele>1080.7</ele>
        <time>2019-08-16T16:28:33Z</time>
      </trkpt>
      <trkpt lat="42.0396100" lon="-7.0086960">
        <ele>1080.4</ele>
        <time>2019-08-16T16:28:34Z</time>
      </trkpt>
      <trkpt lat="42.0395490" lon="-7.0087520">
        <ele>1080.2</ele>
        <time>2019-08-16T16:28:35Z</time>
      </trkpt>
      <trkpt lat="42.0394900" lon="-7.0088090">
        <ele>1080.0</ele>
        <time>2019-08-16T16:28:36Z</time>
      </trkpt>
      <trkpt lat="42.0394290" lon="-7.0088650">
        <ele>1079.8</ele>
        <time>2019-08-16T16:28:37Z</time>
      </trkpt>
      <trkpt lat="42.0393680" lon="-7.0089220">
        <ele>1079.6</ele>
        <time>2019-08-16T16:28:38Z</time>
      </trkpt>
      <trkpt lat="42.0393090" lon="-7.0089780">
        <ele>1079.3</ele>
        <time>2019-08-16T16:28:39Z</time>
      </trkpt>
      <trkpt lat="42.0392520" lon="-7.0090350">
        <ele>1079.1</ele>
        <time>2019-08-16T16:28:40Z</time>
      </trkpt>
      <trkpt lat="42.0391930" lon="-7.0090910">
        <ele>1078.9</ele>
        <time>2019-08-16T16:28:41Z</time>
      </trkpt>
      <trkpt lat="42.0391350" lon="-7.0091470">
        <ele>1078.6</ele>
        <time>2019-08-16T16:28:42Z</time>
      </trkpt>
      <trkpt lat="42.0390780" lon="-7.0092020">
        <ele>1078.3</ele>
        <time>2019-08-16T16:28:43Z</time>
      </trkpt>
      <trkpt lat="42.0390220" lon="-7.0092560">
        <ele>1078.0</ele>
        <time>2019-08-16T16:28:44Z</time>
      </trkpt>
      <trkpt lat="42.0389700" lon="-7.0093100">
        <ele>1077.6</ele>
        <time>2019-08-16T16:28:45Z</time>
      </trkpt>
      <trkpt lat="42.0389210" lon="-7.0093630">
        <ele>1077.4</ele>
        <time>2019-08-16T16:28:46Z</time>
      </trkpt>
      <trkpt lat="42.0388730" lon="-7.0094180">
        <ele>1077.1</ele>
        <time>2019-08-16T16:28:47Z</time>
      </trkpt>
      <trkpt lat="42.0388270" lon="-7.0094720">
        <ele>1076.9</ele>
        <time>2019-08-16T16:28:48Z</time>
      </trkpt>
      <trkpt lat="42.0387810" lon="-7.0095270">
        <ele>1076.6</ele>
        <time>2019-08-16T16:28:49Z</time>
      </trkpt>
      <trkpt lat="42.0387360" lon="-7.0095850">
        <ele>1076.4</ele>
        <time>2019-08-16T16:28:50Z</time>
      </trkpt>
      <trkpt lat="42.0386930" lon="-7.0096470">
        <ele>1076.1</ele>
        <time>2019-08-16T16:28:51Z</time>
      </trkpt>
      <trkpt lat="42.0386470" lon="-7.0097110">
        <ele>1075.9</ele>
        <time>2019-08-16T16:28:52Z</time>
      </trkpt>
      <trkpt lat="42.0386010" lon="-7.0097770">
        <ele>1075.5</ele>
        <time>2019-08-16T16:28:53Z</time>
      </trkpt>
      <trkpt lat="42.0385580" lon="-7.0098480">
        <ele>1074.5</ele>
        <time>2019-08-16T16:28:54Z</time>
      </trkpt>
      <trkpt lat="42.0385160" lon="-7.0099230">
        <ele>1073.7</ele>
        <time>2019-08-16T16:28:55Z</time>
      </trkpt>
      <trkpt lat="42.0384760" lon="-7.0099990">
        <ele>1073.0</ele>
        <time>2019-08-16T16:28:56Z</time>
      </trkpt>
      <trkpt lat="42.0384390" lon="-7.0100770">
        <ele>1072.4</ele>
        <time>2019-08-16T16:28:57Z</time>
      </trkpt>
      <trkpt lat="42.0384040" lon="-7.0101590">
        <ele>1071.8</ele>
        <time>2019-08-16T16:28:58Z</time>
      </trkpt>
      <trkpt lat="42.0383730" lon="-7.0102430">
        <ele>1071.2</ele>
        <time>2019-08-16T16:28:59Z</time>
      </trkpt>
      <trkpt lat="42.0383450" lon="-7.0103320">
        <ele>1070.7</ele>
        <time>2019-08-16T16:29:00Z</time>
      </trkpt>
      <trkpt lat="42.0383220" lon="-7.0104260">
        <ele>1070.0</ele>
        <time>2019-08-16T16:29:01Z</time>
      </trkpt>
      <trkpt lat="42.0383050" lon="-7.0105220">
        <ele>1069.2</ele>
        <time>2019-08-16T16:29:02Z</time>
      </trkpt>
      <trkpt lat="42.0382890" lon="-7.0106160">
        <ele>1068.4</ele>
        <time>2019-08-16T16:29:03Z</time>
      </trkpt>
      <trkpt lat="42.0382740" lon="-7.0107110">
        <ele>1067.8</ele>
        <time>2019-08-16T16:29:04Z</time>
      </trkpt>
      <trkpt lat="42.0382600" lon="-7.0108090">
        <ele>1067.0</ele>
        <time>2019-08-16T16:29:05Z</time>
      </trkpt>
      <trkpt lat="42.0382470" lon="-7.0109100">
        <ele>1066.3</ele>
        <time>2019-08-16T16:29:06Z</time>
      </trkpt>
      <trkpt lat="42.0382390" lon="-7.0110100">
        <ele>1065.4</ele>
        <time>2019-08-16T16:29:07Z</time>
      </trkpt>
      <trkpt lat="42.0382380" lon="-7.0111100">
        <ele>1064.9</ele>
        <time>2019-08-16T16:29:08Z</time>
      </trkpt>
      <trkpt lat="42.0382450" lon="-7.0112110">
        <ele>1064.2</ele>
        <time>2019-08-16T16:29:09Z</time>
      </trkpt>
      <trkpt lat="42.0382600" lon="-7.0113120">
        <ele>1063.4</ele>
        <time>2019-08-16T16:29:10Z</time>
      </trkpt>
      <trkpt lat="42.0382810" lon="-7.0114150">
        <ele>1062.9</ele>
        <time>2019-08-16T16:29:11Z</time>
      </trkpt>
      <trkpt lat="42.0383050" lon="-7.0115170">
        <ele>1062.1</ele>
        <time>2019-08-16T16:29:12Z</time>
      </trkpt>
      <trkpt lat="42.0383320" lon="-7.0116130">
        <ele>1061.8</ele>
        <time>2019-08-16T16:29:13Z</time>
      </trkpt>
      <trkpt lat="42.0383610" lon="-7.0117060">
        <ele>1061.6</ele>
        <time>2019-08-16T16:29:14Z</time>
      </trkpt>
      <trkpt lat="42.0383890" lon="-7.0117960">
        <ele>1061.4</ele>
        <time>2019-08-16T16:29:15Z</time>
      </trkpt>
      <trkpt lat="42.0384140" lon="-7.0118840">
        <ele>1061.2</ele>
        <time>2019-08-16T16:29:16Z</time>
      </trkpt>
      <trkpt lat="42.0384330" lon="-7.0119750">
        <ele>1061.0</ele>
        <time>2019-08-16T16:29:17Z</time>
      </trkpt>
      <trkpt lat="42.0384430" lon="-7.0120680">
        <ele>1060.8</ele>
        <time>2019-08-16T16:29:18Z</time>
      </trkpt>
      <trkpt lat="42.0384470" lon="-7.0121620">
        <ele>1060.6</ele>
        <time>2019-08-16T16:29:19Z</time>
      </trkpt>
      <trkpt lat="42.0384470" lon="-7.0122620">
        <ele>1060.4</ele>
        <time>2019-08-16T16:29:20Z</time>
      </trkpt>
      <trkpt lat="42.0384410" lon="-7.0123660">
        <ele>1060.1</ele>
        <time>2019-08-16T16:29:21Z</time>
      </trkpt>
      <trkpt lat="42.0384320" lon="-7.0124760">
        <ele>1059.8</ele>
        <time>2019-08-16T16:29:22Z</time>
      </trkpt>
      <trkpt lat="42.0384230" lon="-7.0125920">
        <ele>1059.5</ele>
        <time>2019-08-16T16:29:23Z</time>
      </trkpt>
      <trkpt lat="42.0384100" lon="-7.0127130">
        <ele>1059.2</ele>
        <time>2019-08-16T16:29:24Z</time>
      </trkpt>
      <trkpt lat="42.0383920" lon="-7.0128360">
        <ele>1058.9</ele>
        <time>2019-08-16T16:29:25Z</time>
      </trkpt>
      <trkpt lat="42.0383710" lon="-7.0129640">
        <ele>1058.5</ele>
        <time>2019-08-16T16:29:26Z</time>
      </trkpt>
      <trkpt lat="42.0383480" lon="-7.0130910">
        <ele>1058.1</ele>
        <time>2019-08-16T16:29:27Z</time>
      </trkpt>
      <trkpt lat="42.0383220" lon="-7.0132180">
        <ele>1057.7</ele>
        <time>2019-08-16T16:29:28Z</time>
      </trkpt>
      <trkpt lat="42.0382950" lon="-7.0133440">
        <ele>1057.2</ele>
        <time>2019-08-16T16:29:29Z</time>
      </trkpt>
      <trkpt lat="42.0382670" lon="-7.0134670">
        <ele>1056.9</ele>
        <time>2019-08-16T16:29:30Z</time>
      </trkpt>
      <trkpt lat="42.0382380" lon="-7.0135830">
        <ele>1056.6</ele>
        <time>2019-08-16T16:29:31Z</time>
      </trkpt>
      <trkpt lat="42.0382090" lon="-7.0136940">
        <ele>1056.3</ele>
        <time>2019-08-16T16:29:32Z</time>
      </trkpt>
      <trkpt lat="42.0381800" lon="-7.0138030">
        <ele>1056.0</ele>
        <time>2019-08-16T16:29:33Z</time>
      </trkpt>
      <trkpt lat="42.0381500" lon="-7.0139100">
        <ele>1055.6</ele>
        <time>2019-08-16T16:29:34Z</time>
      </trkpt>
      <trkpt lat="42.0381210" lon="-7.0140150">
        <ele>1055.4</ele>
        <time>2019-08-16T16:29:35Z</time>
      </trkpt>
      <trkpt lat="42.0380900" lon="-7.0141140">
        <ele>1055.1</ele>
        <time>2019-08-16T16:29:36Z</time>
      </trkpt>
      <trkpt lat="42.0380590" lon="-7.0142120">
        <ele>1054.6</ele>
        <time>2019-08-16T16:29:37Z</time>
      </trkpt>
      <trkpt lat="42.0380300" lon="-7.0143060">
        <ele>1054.2</ele>
        <time>2019-08-16T16:29:38Z</time>
      </trkpt>
      <trkpt lat="42.0380020" lon="-7.0143970">
        <ele>1053.5</ele>
        <time>2019-08-16T16:29:39Z</time>
      </trkpt>
      <trkpt lat="42.0379750" lon="-7.0144820">
        <ele>1052.9</ele>
        <time>2019-08-16T16:29:40Z</time>
      </trkpt>
      <trkpt lat="42.0379480" lon="-7.0145630">
        <ele>1052.5</ele>
        <time>2019-08-16T16:29:41Z</time>
      </trkpt>
      <trkpt lat="42.0379210" lon="-7.0146410">
        <ele>1052.3</ele>
        <time>2019-08-16T16:29:42Z</time>
      </trkpt>
      <trkpt lat="42.0378940" lon="-7.0147180">
        <ele>1052.1</ele>
        <time>2019-08-16T16:29:43Z</time>
      </trkpt>
      <trkpt lat="42.0378680" lon="-7.0147950">
        <ele>1052.0</ele>
        <time>2019-08-16T16:29:44Z</time>
      </trkpt>
      <trkpt lat="42.0378460" lon="-7.0148730">
        <ele>1052.0</ele>
        <time>2019-08-16T16:29:45Z</time>
      </trkpt>
      <trkpt lat="42.0378260" lon="-7.0149520">
        <ele>1052.1</ele>
        <time>2019-08-16T16:29:46Z</time>
      </trkpt>
      <trkpt lat="42.0378100" lon="-7.0150300">
        <ele>1052.2</ele>
        <time>2019-08-16T16:29:47Z</time>
      </trkpt>
      <trkpt lat="42.0377980" lon="-7.0151060">
        <ele>1052.3</ele>
        <time>2019-08-16T16:29:48Z</time>
      </trkpt>
      <trkpt lat="42.0377880" lon="-7.0151800">
        <ele>1052.4</ele>
        <time>2019-08-16T16:29:49Z</time>
      </trkpt>
      <trkpt lat="42.0377800" lon="-7.0152550">
        <ele>1052.6</ele>
        <time>2019-08-16T16:29:50Z</time>
      </trkpt>
      <trkpt lat="42.0377710" lon="-7.0153280">
        <ele>1052.2</ele>
        <time>2019-08-16T16:29:51Z</time>
      </trkpt>
      <trkpt lat="42.0377640" lon="-7.0153990">
        <ele>1051.8</ele>
        <time>2019-08-16T16:29:52Z</time>
      </trkpt>
      <trkpt lat="42.0377590" lon="-7.0154700">
        <ele>1051.5</ele>
        <time>2019-08-16T16:29:53Z</time>
      </trkpt>
      <trkpt lat="42.0377560" lon="-7.0155420">
        <ele>1051.1</ele>
        <time>2019-08-16T16:29:54Z</time>
      </trkpt>
      <trkpt lat="42.0377580" lon="-7.0156130">
        <ele>1050.7</ele>
        <time>2019-08-16T16:29:55Z</time>
      </trkpt>
      <trkpt lat="42.0377640" lon="-7.0156850">
        <ele>1050.4</ele>
        <time>2019-08-16T16:29:56Z</time>
      </trkpt>
      <trkpt lat="42.0377750" lon="-7.0157540">
        <ele>1050.0</ele>
        <time>2019-08-16T16:29:57Z</time>
      </trkpt>
      <trkpt lat="42.0377910" lon="-7.0158190">
        <ele>1049.6</ele>
        <time>2019-08-16T16:29:58Z</time>
      </trkpt>
      <trkpt lat="42.0378170" lon="-7.0158780">
        <ele>1049.2</ele>
        <time>2019-08-16T16:29:59Z</time>
      </trkpt>
      <trkpt lat="42.0378450" lon="-7.0159280">
        <ele>1049.1</ele>
        <time>2019-08-16T16:30:00Z</time>
      </trkpt>
      <trkpt lat="42.0378730" lon="-7.0159780">
        <ele>1049.1</ele>
        <time>2019-08-16T16:30:01Z</time>
      </trkpt>
      <trkpt lat="42.0379010" lon="-7.0160220">
        <ele>1049.0</ele>
        <time>2019-08-16T16:30:02Z</time>
      </trkpt>
      <trkpt lat="42.0379300" lon="-7.0160660">
        <ele>1048.9</ele>
        <time>2019-08-16T16:30:03Z</time>
      </trkpt>
      <trkpt lat="42.0379600" lon="-7.0161080">
        <ele>1048.9</ele>
        <time>2019-08-16T16:30:04Z</time>
      </trkpt>
      <trkpt lat="42.0379910" lon="-7.0161470">
        <ele>1048.8</ele>
        <time>2019-08-16T16:30:05Z</time>
      </trkpt>
      <trkpt lat="42.0380210" lon="-7.0161830">
        <ele>1048.8</ele>
        <time>2019-08-16T16:30:06Z</time>
      </trkpt>
      <trkpt lat="42.0380470" lon="-7.0162210">
        <ele>1048.8</ele>
        <time>2019-08-16T16:30:07Z</time>
      </trkpt>
      <trkpt lat="42.0380660" lon="-7.0162530">
        <ele>1048.8</ele>
        <time>2019-08-16T16:30:08Z</time>
      </trkpt>
      <trkpt lat="42.0380790" lon="-7.0162760">
        <ele>1048.8</ele>
        <time>2019-08-16T16:30:09Z</time>
      </trkpt>
      <trkpt lat="42.0380920" lon="-7.0162980">
        <ele>1048.8</ele>
        <time>2019-08-16T16:30:11Z</time>
      </trkpt>
      <trkpt lat="42.0381070" lon="-7.0163370">
        <ele>1048.8</ele>
        <time>2019-08-16T16:30:15Z</time>
      </trkpt>
      <trkpt lat="42.0380840" lon="-7.0163680">
        <ele>1048.8</ele>
        <time>2019-08-16T16:30:18Z</time>
      </trkpt>
      <trkpt lat="42.0380530" lon="-7.0163500">
        <ele>1048.9</ele>
        <time>2019-08-16T16:30:20Z</time>
      </trkpt>
      <trkpt lat="42.0380290" lon="-7.0163110">
        <ele>1048.9</ele>
        <time>2019-08-16T16:30:22Z</time>
      </trkpt>
      <trkpt lat="42.0380180" lon="-7.0162630">
        <ele>1049.0</ele>
        <time>2019-08-16T16:30:24Z</time>
      </trkpt>
      <trkpt lat="42.0380090" lon="-7.0162170">
        <ele>1049.1</ele>
        <time>2019-08-16T16:30:26Z</time>
      </trkpt>
      <trkpt lat="42.0379990" lon="-7.0161670">
        <ele>1049.2</ele>
        <time>2019-08-16T16:30:28Z</time>
      </trkpt>
      <trkpt lat="42.0379930" lon="-7.0161180">
        <ele>1049.3</ele>
        <time>2019-08-16T16:30:30Z</time>
      </trkpt>
      <trkpt lat="42.0379870" lon="-7.0160740">
        <ele>1049.3</ele>
        <time>2019-08-16T16:30:32Z</time>
      </trkpt>
      <trkpt lat="42.0379880" lon="-7.0160540">
        <ele>1049.4</ele>
        <time>2019-08-16T16:30:34Z</time>
      </trkpt>
      <trkpt lat="42.0379810" lon="-7.0160410">
        <ele>1049.4</ele>
        <time>2019-08-16T16:30:43Z</time>
      </trkpt>
      <trkpt lat="42.0380460" lon="-7.0159030">
        <ele>1049.7</ele>
        <time>2019-08-16T16:31:12Z</time>
      </trkpt>
      <trkpt lat="42.0380400" lon="-7.0158800">
        <ele>1049.7</ele>
        <time>2019-08-16T16:31:17Z</time>
      </trkpt>
      <trkpt lat="42.0380320" lon="-7.0158790">
        <ele>1049.7</ele>
        <time>2019-08-16T16:31:23Z</time>
      </trkpt>
      <trkpt lat="42.0379640" lon="-7.0159580">
        <ele>1049.8</ele>
        <time>2019-08-16T16:32:30Z</time>
      </trkpt>
      <trkpt lat="42.0379640" lon="-7.0160040">
        <ele>1049.9</ele>
        <time>2019-08-16T16:32:34Z</time>
      </trkpt>
      <trkpt lat="42.0380210" lon="-7.0161850">
        <ele>1050.0</ele>
        <time>2019-08-16T16:32:52Z</time>
      </trkpt>
      <trkpt lat="42.0380490" lon="-7.0161990">
        <ele>1050.0</ele>
        <time>2019-08-16T16:35:05Z</time>
      </trkpt>
      <trkpt lat="42.0380710" lon="-7.0162440">
        <ele>1050.0</ele>
        <time>2019-08-16T16:35:07Z</time>
      </trkpt>
      <trkpt lat="42.0381000" lon="-7.0162940">
        <ele>1050.0</ele>
        <time>2019-08-16T16:35:09Z</time>
      </trkpt>
      <trkpt lat="42.0381320" lon="-7.0163490">
        <ele>1050.0</ele>
        <time>2019-08-16T16:35:11Z</time>
      </trkpt>
      <trkpt lat="42.0381690" lon="-7.0164050">
        <ele>1049.9</ele>
        <time>2019-08-16T16:35:13Z</time>
      </trkpt>
      <trkpt lat="42.0381900" lon="-7.0164340">
        <ele>1049.9</ele>
        <time>2019-08-16T16:35:14Z</time>
      </trkpt>
      <trkpt lat="42.0382110" lon="-7.0164650">
        <ele>1049.9</ele>
        <time>2019-08-16T16:35:15Z</time>
      </trkpt>
      <trkpt lat="42.0382320" lon="-7.0164960">
        <ele>1049.8</ele>
        <time>2019-08-16T16:35:16Z</time>
      </trkpt>
      <trkpt lat="42.0382540" lon="-7.0165280">
        <ele>1049.8</ele>
        <time>2019-08-16T16:35:17Z</time>
      </trkpt>
      <trkpt lat="42.0382740" lon="-7.0165590">
        <ele>1049.7</ele>
        <time>2019-08-16T16:35:18Z</time>
      </trkpt>
      <trkpt lat="42.0382960" lon="-7.0165880">
        <ele>1049.7</ele>
        <time>2019-08-16T16:35:19Z</time>
      </trkpt>
      <trkpt lat="42.0383180" lon="-7.0166180">
        <ele>1049.7</ele>
        <time>2019-08-16T16:35:20Z</time>
      </trkpt>
      <trkpt lat="42.0383400" lon="-7.0166460">
        <ele>1049.6</ele>
        <time>2019-08-16T16:35:21Z</time>
      </trkpt>
      <trkpt lat="42.0383620" lon="-7.0166710">
        <ele>1049.6</ele>
        <time>2019-08-16T16:35:22Z</time>
      </trkpt>
      <trkpt lat="42.0383830" lon="-7.0166950">
        <ele>1049.5</ele>
        <time>2019-08-16T16:35:23Z</time>
      </trkpt>
      <trkpt lat="42.0384050" lon="-7.0167170">
        <ele>1049.5</ele>
        <time>2019-08-16T16:35:24Z</time>
      </trkpt>
      <trkpt lat="42.0384300" lon="-7.0167370">
        <ele>1049.4</ele>
        <time>2019-08-16T16:35:25Z</time>
      </trkpt>
      <trkpt lat="42.0384580" lon="-7.0167560">
        <ele>1049.4</ele>
        <time>2019-08-16T16:35:26Z</time>
      </trkpt>
      <trkpt lat="42.0384860" lon="-7.0167770">
        <ele>1049.3</ele>
        <time>2019-08-16T16:35:27Z</time>
      </trkpt>
      <trkpt lat="42.0385170" lon="-7.0168000">
        <ele>1049.2</ele>
        <time>2019-08-16T16:35:28Z</time>
      </trkpt>
      <trkpt lat="42.0385500" lon="-7.0168220">
        <ele>1049.2</ele>
        <time>2019-08-16T16:35:29Z</time>
      </trkpt>
      <trkpt lat="42.0385870" lon="-7.0168390">
        <ele>1049.1</ele>
        <time>2019-08-16T16:35:30Z</time>
      </trkpt>
      <trkpt lat="42.0386280" lon="-7.0168500">
        <ele>1049.1</ele>
        <time>2019-08-16T16:35:31Z</time>
      </trkpt>
      <trkpt lat="42.0386710" lon="-7.0168540">
        <ele>1049.0</ele>
        <time>2019-08-16T16:35:32Z</time>
      </trkpt>
      <trkpt lat="42.0387180" lon="-7.0168570">
        <ele>1048.9</ele>
        <time>2019-08-16T16:35:33Z</time>
      </trkpt>
      <trkpt lat="42.0387650" lon="-7.0168590">
        <ele>1048.8</ele>
        <time>2019-08-16T16:35:34Z</time>
      </trkpt>
      <trkpt lat="42.0388140" lon="-7.0168630">
        <ele>1048.8</ele>
        <time>2019-08-16T16:35:35Z</time>
      </trkpt>
      <trkpt lat="42.0388620" lon="-7.0168680">
        <ele>1048.7</ele>
        <time>2019-08-16T16:35:36Z</time>
      </trkpt>
      <trkpt lat="42.0389100" lon="-7.0168740">
        <ele>1048.6</ele>
        <time>2019-08-16T16:35:37Z</time>
      </trkpt>
      <trkpt lat="42.0389570" lon="-7.0168760">
        <ele>1048.6</ele>
        <time>2019-08-16T16:35:38Z</time>
      </trkpt>
      <trkpt lat="42.0390050" lon="-7.0168770">
        <ele>1048.5</ele>
        <time>2019-08-16T16:35:39Z</time>
      </trkpt>
      <trkpt lat="42.0390520" lon="-7.0168790">
        <ele>1048.5</ele>
        <time>2019-08-16T16:35:40Z</time>
      </trkpt>
      <trkpt lat="42.0391000" lon="-7.0168820">
        <ele>1048.4</ele>
        <time>2019-08-16T16:35:41Z</time>
      </trkpt>
      <trkpt lat="42.0391480" lon="-7.0168850">
        <ele>1048.3</ele>
        <time>2019-08-16T16:35:42Z</time>
      </trkpt>
      <trkpt lat="42.0391970" lon="-7.0168890">
        <ele>1048.2</ele>
        <time>2019-08-16T16:35:43Z</time>
      </trkpt>
      <trkpt lat="42.0392460" lon="-7.0168940">
        <ele>1048.1</ele>
        <time>2019-08-16T16:35:44Z</time>
      </trkpt>
      <trkpt lat="42.0392940" lon="-7.0168980">
        <ele>1048.0</ele>
        <time>2019-08-16T16:35:45Z</time>
      </trkpt>
      <trkpt lat="42.0393420" lon="-7.0169030">
        <ele>1047.9</ele>
        <time>2019-08-16T16:35:46Z</time>
      </trkpt>
      <trkpt lat="42.0393890" lon="-7.0169040">
        <ele>1047.8</ele>
        <time>2019-08-16T16:35:47Z</time>
      </trkpt>
      <trkpt lat="42.0394350" lon="-7.0169030">
        <ele>1047.7</ele>
        <time>2019-08-16T16:35:48Z</time>
      </trkpt>
      <trkpt lat="42.0394780" lon="-7.0169050">
        <ele>1047.7</ele>
        <time>2019-08-16T16:35:49Z</time>
      </trkpt>
      <trkpt lat="42.0395140" lon="-7.0169100">
        <ele>1047.6</ele>
        <time>2019-08-16T16:35:50Z</time>
      </trkpt>
      <trkpt lat="42.0395630" lon="-7.0169180">
        <ele>1047.5</ele>
        <time>2019-08-16T16:35:51Z</time>
      </trkpt>
      <trkpt lat="42.0396150" lon="-7.0169270">
        <ele>1047.4</ele>
        <time>2019-08-16T16:35:52Z</time>
      </trkpt>
      <trkpt lat="42.0396620" lon="-7.0169340">
        <ele>1047.4</ele>
        <time>2019-08-16T16:35:53Z</time>
      </trkpt>
      <trkpt lat="42.0397100" lon="-7.0169350">
        <ele>1047.3</ele>
        <time>2019-08-16T16:35:54Z</time>
      </trkpt>
      <trkpt lat="42.0397640" lon="-7.0169420">
        <ele>1047.2</ele>
        <time>2019-08-16T16:35:55Z</time>
      </trkpt>
      <trkpt lat="42.0398190" lon="-7.0169450">
        <ele>1047.1</ele>
        <time>2019-08-16T16:35:56Z</time>
      </trkpt>
      <trkpt lat="42.0398720" lon="-7.0169470">
        <ele>1047.0</ele>
        <time>2019-08-16T16:35:57Z</time>
      </trkpt>
      <trkpt lat="42.0399260" lon="-7.0169370">
        <ele>1046.9</ele>
        <time>2019-08-16T16:35:58Z</time>
      </trkpt>
      <trkpt lat="42.0399800" lon="-7.0169180">
        <ele>1046.8</ele>
        <time>2019-08-16T16:35:59Z</time>
      </trkpt>
      <trkpt lat="42.0400360" lon="-7.0169010">
        <ele>1046.7</ele>
        <time>2019-08-16T16:36:00Z</time>
      </trkpt>
      <trkpt lat="42.0400930" lon="-7.0168820">
        <ele>1046.6</ele>
        <time>2019-08-16T16:36:01Z</time>
      </trkpt>
      <trkpt lat="42.0401470" lon="-7.0168620">
        <ele>1046.4</ele>
        <time>2019-08-16T16:36:02Z</time>
      </trkpt>
      <trkpt lat="42.0402050" lon="-7.0168460">
        <ele>1046.3</ele>
        <time>2019-08-16T16:36:03Z</time>
      </trkpt>
      <trkpt lat="42.0402610" lon="-7.0168240">
        <ele>1046.1</ele>
        <time>2019-08-16T16:36:04Z</time>
      </trkpt>
      <trkpt lat="42.0403170" lon="-7.0168020">
        <ele>1045.9</ele>
        <time>2019-08-16T16:36:05Z</time>
      </trkpt>
      <trkpt lat="42.0403760" lon="-7.0167850">
        <ele>1045.8</ele>
        <time>2019-08-16T16:36:06Z</time>
      </trkpt>
      <trkpt lat="42.0404320" lon="-7.0167660">
        <ele>1045.6</ele>
        <time>2019-08-16T16:36:07Z</time>
      </trkpt>
      <trkpt lat="42.0404900" lon="-7.0167460">
        <ele>1045.4</ele>
        <time>2019-08-16T16:36:08Z</time>
      </trkpt>
      <trkpt lat="42.0405480" lon="-7.0167300">
        <ele>1045.2</ele>
        <time>2019-08-16T16:36:09Z</time>
      </trkpt>
      <trkpt lat="42.0406080" lon="-7.0167150">
        <ele>1044.9</ele>
        <time>2019-08-16T16:36:10Z</time>
      </trkpt>
      <trkpt lat="42.0406680" lon="-7.0167010">
        <ele>1044.7</ele>
        <time>2019-08-16T16:36:11Z</time>
      </trkpt>
      <trkpt lat="42.0407300" lon="-7.0166890">
        <ele>1044.5</ele>
        <time>2019-08-16T16:36:12Z</time>
      </trkpt>
      <trkpt lat="42.0407900" lon="-7.0166770">
        <ele>1044.3</ele>
        <time>2019-08-16T16:36:13Z</time>
      </trkpt>
      <trkpt lat="42.0408510" lon="-7.0166670">
        <ele>1044.0</ele>
        <time>2019-08-16T16:36:14Z</time>
      </trkpt>
      <trkpt lat="42.0409120" lon="-7.0166640">
        <ele>1043.7</ele>
        <time>2019-08-16T16:36:15Z</time>
      </trkpt>
      <trkpt lat="42.0409740" lon="-7.0166620">
        <ele>1043.4</ele>
        <time>2019-08-16T16:36:16Z</time>
      </trkpt>
      <trkpt lat="42.0410340" lon="-7.0166700">
        <ele>1043.2</ele>
        <time>2019-08-16T16:36:17Z</time>
      </trkpt>
      <trkpt lat="42.0410920" lon="-7.0166860">
        <ele>1042.9</ele>
        <time>2019-08-16T16:36:18Z</time>
      </trkpt>
      <trkpt lat="42.0411470" lon="-7.0167130">
        <ele>1042.6</ele>
        <time>2019-08-16T16:36:19Z</time>
      </trkpt>
      <trkpt lat="42.0411970" lon="-7.0167540">
        <ele>1042.3</ele>
        <time>2019-08-16T16:36:20Z</time>
      </trkpt>
      <trkpt lat="42.0412370" lon="-7.0168110">
        <ele>1041.9</ele>
        <time>2019-08-16T16:36:21Z</time>
      </trkpt>
      <trkpt lat="42.0412670" lon="-7.0168800">
        <ele>1041.6</ele>
        <time>2019-08-16T16:36:22Z</time>
      </trkpt>
      <trkpt lat="42.0412870" lon="-7.0169530">
        <ele>1041.3</ele>
        <time>2019-08-16T16:36:23Z</time>
      </trkpt>
      <trkpt lat="42.0412990" lon="-7.0170260">
        <ele>1041.0</ele>
        <time>2019-08-16T16:36:24Z</time>
      </trkpt>
      <trkpt lat="42.0413090" lon="-7.0170970">
        <ele>1040.7</ele>
        <time>2019-08-16T16:36:25Z</time>
      </trkpt>
      <trkpt lat="42.0413160" lon="-7.0171690">
        <ele>1040.4</ele>
        <time>2019-08-16T16:36:26Z</time>
      </trkpt>
      <trkpt lat="42.0413210" lon="-7.0172390">
        <ele>1040.2</ele>
        <time>2019-08-16T16:36:27Z</time>
      </trkpt>
      <trkpt lat="42.0413220" lon="-7.0173100">
        <ele>1040.0</ele>
        <time>2019-08-16T16:36:28Z</time>
      </trkpt>
      <trkpt lat="42.0413190" lon="-7.0173800">
        <ele>1039.8</ele>
        <time>2019-08-16T16:36:29Z</time>
      </trkpt>
      <trkpt lat="42.0413120" lon="-7.0174480">
        <ele>1039.7</ele>
        <time>2019-08-16T16:36:30Z</time>
      </trkpt>
      <trkpt lat="42.0413010" lon="-7.0175120">
        <ele>1039.6</ele>
        <time>2019-08-16T16:36:31Z</time>
      </trkpt>
      <trkpt lat="42.0412900" lon="-7.0175720">
        <ele>1039.6</ele>
        <time>2019-08-16T16:36:32Z</time>
      </trkpt>
      <trkpt lat="42.0412780" lon="-7.0176300">
        <ele>1039.6</ele>
        <time>2019-08-16T16:36:33Z</time>
      </trkpt>
      <trkpt lat="42.0412660" lon="-7.0176860">
        <ele>1039.6</ele>
        <time>2019-08-16T16:36:34Z</time>
      </trkpt>
      <trkpt lat="42.0412540" lon="-7.0177410">
        <ele>1039.6</ele>
        <time>2019-08-16T16:36:35Z</time>
      </trkpt>
      <trkpt lat="42.0412420" lon="-7.0177950">
        <ele>1039.6</ele>
        <time>2019-08-16T16:36:36Z</time>
      </trkpt>
      <trkpt lat="42.0412290" lon="-7.0178470">
        <ele>1039.7</ele>
        <time>2019-08-16T16:36:37Z</time>
      </trkpt>
      <trkpt lat="42.0412160" lon="-7.0178970">
        <ele>1039.7</ele>
        <time>2019-08-16T16:36:38Z</time>
      </trkpt>
      <trkpt lat="42.0412020" lon="-7.0179460">
        <ele>1039.8</ele>
        <time>2019-08-16T16:36:39Z</time>
      </trkpt>
      <trkpt lat="42.0411890" lon="-7.0179930">
        <ele>1039.8</ele>
        <time>2019-08-16T16:36:40Z</time>
      </trkpt>
      <trkpt lat="42.0411750" lon="-7.0180370">
        <ele>1039.9</ele>
        <time>2019-08-16T16:36:41Z</time>
      </trkpt>
      <trkpt lat="42.0411600" lon="-7.0180810">
        <ele>1040.0</ele>
        <time>2019-08-16T16:36:42Z</time>
      </trkpt>
      <trkpt lat="42.0411460" lon="-7.0181260">
        <ele>1040.1</ele>
        <time>2019-08-16T16:36:43Z</time>
      </trkpt>
      <trkpt lat="42.0411320" lon="-7.0181660">
        <ele>1040.2</ele>
        <time>2019-08-16T16:36:44Z</time>
      </trkpt>
      <trkpt lat="42.0411180" lon="-7.0182050">
        <ele>1040.3</ele>
        <time>2019-08-16T16:36:45Z</time>
      </trkpt>
      <trkpt lat="42.0411030" lon="-7.0182430">
        <ele>1040.4</ele>
        <time>2019-08-16T16:36:46Z</time>
      </trkpt>
      <trkpt lat="42.0410880" lon="-7.0182790">
        <ele>1040.5</ele>
        <time>2019-08-16T16:36:47Z</time>
      </trkpt>
      <trkpt lat="42.0410720" lon="-7.0183140">
        <ele>1040.7</ele>
        <time>2019-08-16T16:36:48Z</time>
      </trkpt>
      <trkpt lat="42.0410550" lon="-7.0183480">
        <ele>1040.9</ele>
        <time>2019-08-16T16:36:49Z</time>
      </trkpt>
      <trkpt lat="42.0410380" lon="-7.0183810">
        <ele>1041.1</ele>
        <time>2019-08-16T16:36:50Z</time>
      </trkpt>
      <trkpt lat="42.0410210" lon="-7.0184140">
        <ele>1041.3</ele>
        <time>2019-08-16T16:36:51Z</time>
      </trkpt>
      <trkpt lat="42.0410050" lon="-7.0184450">
        <ele>1041.5</ele>
        <time>2019-08-16T16:36:52Z</time>
      </trkpt>
      <trkpt lat="42.0409890" lon="-7.0184760">
        <ele>1041.7</ele>
        <time>2019-08-16T16:36:53Z</time>
      </trkpt>
      <trkpt lat="42.0409730" lon="-7.0185040">
        <ele>1041.9</ele>
        <time>2019-08-16T16:36:54Z</time>
      </trkpt>
      <trkpt lat="42.0409410" lon="-7.0185550">
        <ele>1042.3</ele>
        <time>2019-08-16T16:36:56Z</time>
      </trkpt>
      <trkpt lat="42.0409100" lon="-7.0186050">
        <ele>1042.7</ele>
        <time>2019-08-16T16:36:58Z</time>
      </trkpt>
      <trkpt lat="42.0408790" lon="-7.0186530">
        <ele>1043.0</ele>
        <time>2019-08-16T16:37:00Z</time>
      </trkpt>
      <trkpt lat="42.0408490" lon="-7.0186980">
        <ele>1043.4</ele>
        <time>2019-08-16T16:37:02Z</time>
      </trkpt>
      <trkpt lat="42.0408170" lon="-7.0187440">
        <ele>1043.7</ele>
        <time>2019-08-16T16:37:04Z</time>
      </trkpt>
      <trkpt lat="42.0407880" lon="-7.0187870">
        <ele>1044.1</ele>
        <time>2019-08-16T16:37:06Z</time>
      </trkpt>
      <trkpt lat="42.0407570" lon="-7.0188310">
        <ele>1044.4</ele>
        <time>2019-08-16T16:37:08Z</time>
      </trkpt>
      <trkpt lat="42.0407240" lon="-7.0188720">
        <ele>1044.8</ele>
        <time>2019-08-16T16:37:10Z</time>
      </trkpt>
      <trkpt lat="42.0406940" lon="-7.0189160">
        <ele>1045.1</ele>
        <time>2019-08-16T16:37:12Z</time>
      </trkpt>
      <trkpt lat="42.0406680" lon="-7.0189710">
        <ele>1045.4</ele>
        <time>2019-08-16T16:37:14Z</time>
      </trkpt>
      <trkpt lat="42.0406310" lon="-7.0190300">
        <ele>1045.8</ele>
        <time>2019-08-16T16:37:16Z</time>
      </trkpt>
      <trkpt lat="42.0406070" lon="-7.0190590">
        <ele>1045.8</ele>
        <time>2019-08-16T16:37:17Z</time>
      </trkpt>
      <trkpt lat="42.0405780" lon="-7.0190820">
        <ele>1045.7</ele>
        <time>2019-08-16T16:37:18Z</time>
      </trkpt>
      <trkpt lat="42.0405450" lon="-7.0191010">
        <ele>1045.6</ele>
        <time>2019-08-16T16:37:19Z</time>
      </trkpt>
      <trkpt lat="42.0405110" lon="-7.0191190">
        <ele>1045.6</ele>
        <time>2019-08-16T16:37:20Z</time>
      </trkpt>
      <trkpt lat="42.0404760" lon="-7.0191370">
        <ele>1045.5</ele>
        <time>2019-08-16T16:37:21Z</time>
      </trkpt>
      <trkpt lat="42.0404400" lon="-7.0191550">
        <ele>1045.4</ele>
        <time>2019-08-16T16:37:22Z</time>
      </trkpt>
      <trkpt lat="42.0404030" lon="-7.0191700">
        <ele>1045.3</ele>
        <time>2019-08-16T16:37:23Z</time>
      </trkpt>
      <trkpt lat="42.0403660" lon="-7.0191840">
        <ele>1045.2</ele>
        <time>2019-08-16T16:37:24Z</time>
      </trkpt>
      <trkpt lat="42.0403300" lon="-7.0191980">
        <ele>1045.1</ele>
        <time>2019-08-16T16:37:25Z</time>
      </trkpt>
      <trkpt lat="42.0402950" lon="-7.0192110">
        <ele>1045.0</ele>
        <time>2019-08-16T16:37:26Z</time>
      </trkpt>
      <trkpt lat="42.0402620" lon="-7.0192260">
        <ele>1044.9</ele>
        <time>2019-08-16T16:37:27Z</time>
      </trkpt>
      <trkpt lat="42.0402310" lon="-7.0192400">
        <ele>1044.9</ele>
        <time>2019-08-16T16:37:28Z</time>
      </trkpt>
      <trkpt lat="42.0402010" lon="-7.0192540">
        <ele>1044.8</ele>
        <time>2019-08-16T16:37:29Z</time>
      </trkpt>
      <trkpt lat="42.0401710" lon="-7.0192680">
        <ele>1044.7</ele>
        <time>2019-08-16T16:37:30Z</time>
      </trkpt>
      <trkpt lat="42.0401400" lon="-7.0192820">
        <ele>1044.7</ele>
        <time>2019-08-16T16:37:31Z</time>
      </trkpt>
      <trkpt lat="42.0401090" lon="-7.0192960">
        <ele>1044.7</ele>
        <time>2019-08-16T16:37:32Z</time>
      </trkpt>
      <trkpt lat="42.0400780" lon="-7.0193100">
        <ele>1044.6</ele>
        <time>2019-08-16T16:37:33Z</time>
      </trkpt>
      <trkpt lat="42.0400460" lon="-7.0193250">
        <ele>1044.6</ele>
        <time>2019-08-16T16:37:34Z</time>
      </trkpt>
      <trkpt lat="42.0400140" lon="-7.0193400">
        <ele>1044.6</ele>
        <time>2019-08-16T16:37:35Z</time>
      </trkpt>
      <trkpt lat="42.0399810" lon="-7.0193550">
        <ele>1044.6</ele>
        <time>2019-08-16T16:37:36Z</time>
      </trkpt>
      <trkpt lat="42.0399470" lon="-7.0193710">
        <ele>1044.6</ele>
        <time>2019-08-16T16:37:37Z</time>
      </trkpt>
      <trkpt lat="42.0399130" lon="-7.0193850">
        <ele>1044.6</ele>
        <time>2019-08-16T16:37:38Z</time>
      </trkpt>
      <trkpt lat="42.0398780" lon="-7.0193990">
        <ele>1044.7</ele>
        <time>2019-08-16T16:37:39Z</time>
      </trkpt>
      <trkpt lat="42.0398450" lon="-7.0194140">
        <ele>1044.7</ele>
        <time>2019-08-16T16:37:40Z</time>
      </trkpt>
      <trkpt lat="42.0398120" lon="-7.0194290">
        <ele>1044.8</ele>
        <time>2019-08-16T16:37:41Z</time>
      </trkpt>
      <trkpt lat="42.0397790" lon="-7.0194430">
        <ele>1044.9</ele>
        <time>2019-08-16T16:37:42Z</time>
      </trkpt>
      <trkpt lat="42.0397460" lon="-7.0194570">
        <ele>1044.9</ele>
        <time>2019-08-16T16:37:43Z</time>
      </trkpt>
      <trkpt lat="42.0397130" lon="-7.0194710">
        <ele>1045.0</ele>
        <time>2019-08-16T16:37:44Z</time>
      </trkpt>
      <trkpt lat="42.0396800" lon="-7.0194850">
        <ele>1045.1</ele>
        <time>2019-08-16T16:37:45Z</time>
      </trkpt>
      <trkpt lat="42.0396470" lon="-7.0194990">
        <ele>1045.2</ele>
        <time>2019-08-16T16:37:46Z</time>
      </trkpt>
      <trkpt lat="42.0396140" lon="-7.0195130">
        <ele>1045.3</ele>
        <time>2019-08-16T16:37:47Z</time>
      </trkpt>
      <trkpt lat="42.0395810" lon="-7.0195290">
        <ele>1045.4</ele>
        <time>2019-08-16T16:37:48Z</time>
      </trkpt>
      <trkpt lat="42.0395470" lon="-7.0195440">
        <ele>1045.5</ele>
        <time>2019-08-16T16:37:49Z</time>
      </trkpt>
      <trkpt lat="42.0395130" lon="-7.0195580">
        <ele>1045.6</ele>
        <time>2019-08-16T16:37:50Z</time>
      </trkpt>
      <trkpt lat="42.0394790" lon="-7.0195710">
        <ele>1045.7</ele>
        <time>2019-08-16T16:37:51Z</time>
      </trkpt>
      <trkpt lat="42.0394460" lon="-7.0195850">
        <ele>1045.8</ele>
        <time>2019-08-16T16:37:52Z</time>
      </trkpt>
      <trkpt lat="42.0394130" lon="-7.0196000">
        <ele>1046.0</ele>
        <time>2019-08-16T16:37:53Z</time>
      </trkpt>
      <trkpt lat="42.0393790" lon="-7.0196140">
        <ele>1046.4</ele>
        <time>2019-08-16T16:37:54Z</time>
      </trkpt>
      <trkpt lat="42.0393460" lon="-7.0196280">
        <ele>1046.9</ele>
        <time>2019-08-16T16:37:55Z</time>
      </trkpt>
      <trkpt lat="42.0393130" lon="-7.0196420">
        <ele>1047.3</ele>
        <time>2019-08-16T16:37:56Z</time>
      </trkpt>
      <trkpt lat="42.0392810" lon="-7.0196570">
        <ele>1047.7</ele>
        <time>2019-08-16T16:37:57Z</time>
      </trkpt>
      <trkpt lat="42.0392480" lon="-7.0196710">
        <ele>1048.0</ele>
        <time>2019-08-16T16:37:58Z</time>
      </trkpt>
      <trkpt lat="42.0392160" lon="-7.0196850">
        <ele>1048.3</ele>
        <time>2019-08-16T16:37:59Z</time>
      </trkpt>
      <trkpt lat="42.0391840" lon="-7.0196990">
        <ele>1048.6</ele>
        <time>2019-08-16T16:38:00Z</time>
      </trkpt>
      <trkpt lat="42.0391520" lon="-7.0197120">
        <ele>1048.8</ele>
        <time>2019-08-16T16:38:01Z</time>
      </trkpt>
      <trkpt lat="42.0391210" lon="-7.0197240">
        <ele>1049.1</ele>
        <time>2019-08-16T16:38:02Z</time>
      </trkpt>
      <trkpt lat="42.0390900" lon="-7.0197380">
        <ele>1049.4</ele>
        <time>2019-08-16T16:38:03Z</time>
      </trkpt>
      <trkpt lat="42.0390600" lon="-7.0197510">
        <ele>1049.7</ele>
        <time>2019-08-16T16:38:04Z</time>
      </trkpt>
      <trkpt lat="42.0390310" lon="-7.0197640">
        <ele>1050.0</ele>
        <time>2019-08-16T16:38:05Z</time>
      </trkpt>
      <trkpt lat="42.0390010" lon="-7.0197770">
        <ele>1050.2</ele>
        <time>2019-08-16T16:38:06Z</time>
      </trkpt>
      <trkpt lat="42.0389710" lon="-7.0197900">
        <ele>1050.5</ele>
        <time>2019-08-16T16:38:07Z</time>
      </trkpt>
      <trkpt lat="42.0389400" lon="-7.0198030">
        <ele>1050.8</ele>
        <time>2019-08-16T16:38:08Z</time>
      </trkpt>
      <trkpt lat="42.0389090" lon="-7.0198160">
        <ele>1051.1</ele>
        <time>2019-08-16T16:38:09Z</time>
      </trkpt>
      <trkpt lat="42.0388790" lon="-7.0198320">
        <ele>1051.3</ele>
        <time>2019-08-16T16:38:10Z</time>
      </trkpt>
      <trkpt lat="42.0388480" lon="-7.0198490">
        <ele>1051.6</ele>
        <time>2019-08-16T16:38:11Z</time>
      </trkpt>
      <trkpt lat="42.0388180" lon="-7.0198680">
        <ele>1051.8</ele>
        <time>2019-08-16T16:38:12Z</time>
      </trkpt>
      <trkpt lat="42.0387890" lon="-7.0198910">
        <ele>1052.1</ele>
        <time>2019-08-16T16:38:13Z</time>
      </trkpt>
      <trkpt lat="42.0387600" lon="-7.0199170">
        <ele>1052.3</ele>
        <time>2019-08-16T16:38:14Z</time>
      </trkpt>
      <trkpt lat="42.0387310" lon="-7.0199440">
        <ele>1052.5</ele>
        <time>2019-08-16T16:38:15Z</time>
      </trkpt>
      <trkpt lat="42.0387030" lon="-7.0199730">
        <ele>1052.7</ele>
        <time>2019-08-16T16:38:16Z</time>
      </trkpt>
      <trkpt lat="42.0386740" lon="-7.0200030">
        <ele>1052.9</ele>
        <time>2019-08-16T16:38:17Z</time>
      </trkpt>
      <trkpt lat="42.0386470" lon="-7.0200350">
        <ele>1053.1</ele>
        <time>2019-08-16T16:38:18Z</time>
      </trkpt>
      <trkpt lat="42.0386190" lon="-7.0200690">
        <ele>1053.3</ele>
        <time>2019-08-16T16:38:19Z</time>
      </trkpt>
      <trkpt lat="42.0385930" lon="-7.0201070">
        <ele>1053.5</ele>
        <time>2019-08-16T16:38:20Z</time>
      </trkpt>
      <trkpt lat="42.0385690" lon="-7.0201470">
        <ele>1053.6</ele>
        <time>2019-08-16T16:38:21Z</time>
      </trkpt>
      <trkpt lat="42.0385470" lon="-7.0201880">
        <ele>1053.8</ele>
        <time>2019-08-16T16:38:22Z</time>
      </trkpt>
      <trkpt lat="42.0385260" lon="-7.0202300">
        <ele>1053.9</ele>
        <time>2019-08-16T16:38:23Z</time>
      </trkpt>
      <trkpt lat="42.0385060" lon="-7.0202720">
        <ele>1054.1</ele>
        <time>2019-08-16T16:38:24Z</time>
      </trkpt>
      <trkpt lat="42.0384900" lon="-7.0203140">
        <ele>1054.3</ele>
        <time>2019-08-16T16:38:25Z</time>
      </trkpt>
      <trkpt lat="42.0384750" lon="-7.0203550">
        <ele>1054.4</ele>
        <time>2019-08-16T16:38:26Z</time>
      </trkpt>
      <trkpt lat="42.0384610" lon="-7.0203950">
        <ele>1054.5</ele>
        <time>2019-08-16T16:38:27Z</time>
      </trkpt>
      <trkpt lat="42.0384500" lon="-7.0204350">
        <ele>1054.7</ele>
        <time>2019-08-16T16:38:28Z</time>
      </trkpt>
      <trkpt lat="42.0384400" lon="-7.0204750">
        <ele>1054.9</ele>
        <time>2019-08-16T16:38:29Z</time>
      </trkpt>
      <trkpt lat="42.0384290" lon="-7.0205130">
        <ele>1055.0</ele>
        <time>2019-08-16T16:38:30Z</time>
      </trkpt>
      <trkpt lat="42.0384190" lon="-7.0205510">
        <ele>1055.2</ele>
        <time>2019-08-16T16:38:31Z</time>
      </trkpt>
      <trkpt lat="42.0384120" lon="-7.0205890">
        <ele>1055.4</ele>
        <time>2019-08-16T16:38:32Z</time>
      </trkpt>
      <trkpt lat="42.0384060" lon="-7.0206270">
        <ele>1055.5</ele>
        <time>2019-08-16T16:38:33Z</time>
      </trkpt>
      <trkpt lat="42.0384030" lon="-7.0206670">
        <ele>1055.7</ele>
        <time>2019-08-16T16:38:34Z</time>
      </trkpt>
      <trkpt lat="42.0384000" lon="-7.0207080">
        <ele>1055.9</ele>
        <time>2019-08-16T16:38:35Z</time>
      </trkpt>
      <trkpt lat="42.0383950" lon="-7.0207500">
        <ele>1056.1</ele>
        <time>2019-08-16T16:38:36Z</time>
      </trkpt>
      <trkpt lat="42.0383870" lon="-7.0207920">
        <ele>1056.4</ele>
        <time>2019-08-16T16:38:37Z</time>
      </trkpt>
      <trkpt lat="42.0383770" lon="-7.0208340">
        <ele>1056.6</ele>
        <time>2019-08-16T16:38:38Z</time>
      </trkpt>
      <trkpt lat="42.0383660" lon="-7.0208760">
        <ele>1056.6</ele>
        <time>2019-08-16T16:38:39Z</time>
      </trkpt>
      <trkpt lat="42.0383550" lon="-7.0209180">
        <ele>1056.6</ele>
        <time>2019-08-16T16:38:40Z</time>
      </trkpt>
      <trkpt lat="42.0383440" lon="-7.0209610">
        <ele>1056.5</ele>
        <time>2019-08-16T16:38:41Z</time>
      </trkpt>
      <trkpt lat="42.0383340" lon="-7.0210030">
        <ele>1056.5</ele>
        <time>2019-08-16T16:38:42Z</time>
      </trkpt>
      <trkpt lat="42.0383240" lon="-7.0210460">
        <ele>1056.5</ele>
        <time>2019-08-16T16:38:43Z</time>
      </trkpt>
      <trkpt lat="42.0383140" lon="-7.0210900">
        <ele>1056.5</ele>
        <time>2019-08-16T16:38:44Z</time>
      </trkpt>
      <trkpt lat="42.0383080" lon="-7.0211350">
        <ele>1056.5</ele>
        <time>2019-08-16T16:38:45Z</time>
      </trkpt>
      <trkpt lat="42.0383050" lon="-7.0211830">
        <ele>1056.5</ele>
        <time>2019-08-16T16:38:46Z</time>
      </trkpt>
      <trkpt lat="42.0382980" lon="-7.0212320">
        <ele>1056.5</ele>
        <time>2019-08-16T16:38:47Z</time>
      </trkpt>
      <trkpt lat="42.0382870" lon="-7.0212770">
        <ele>1056.4</ele>
        <time>2019-08-16T16:38:48Z</time>
      </trkpt>
      <trkpt lat="42.0382800" lon="-7.0213230">
        <ele>1056.4</ele>
        <time>2019-08-16T16:38:49Z</time>
      </trkpt>
      <trkpt lat="42.0382710" lon="-7.0213680">
        <ele>1056.4</ele>
        <time>2019-08-16T16:38:50Z</time>
      </trkpt>
      <trkpt lat="42.0382640" lon="-7.0214120">
        <ele>1056.3</ele>
        <time>2019-08-16T16:38:51Z</time>
      </trkpt>
      <trkpt lat="42.0382550" lon="-7.0214560">
        <ele>1056.1</ele>
        <time>2019-08-16T16:38:52Z</time>
      </trkpt>
      <trkpt lat="42.0382430" lon="-7.0215000">
        <ele>1055.9</ele>
        <time>2019-08-16T16:38:53Z</time>
      </trkpt>
      <trkpt lat="42.0382330" lon="-7.0215490">
        <ele>1055.7</ele>
        <time>2019-08-16T16:38:54Z</time>
      </trkpt>
      <trkpt lat="42.0382220" lon="-7.0216000">
        <ele>1055.5</ele>
        <time>2019-08-16T16:38:55Z</time>
      </trkpt>
      <trkpt lat="42.0382100" lon="-7.0216540">
        <ele>1055.2</ele>
        <time>2019-08-16T16:38:56Z</time>
      </trkpt>
      <trkpt lat="42.0381980" lon="-7.0217090">
        <ele>1055.0</ele>
        <time>2019-08-16T16:38:57Z</time>
      </trkpt>
      <trkpt lat="42.0381880" lon="-7.0217660">
        <ele>1054.7</ele>
        <time>2019-08-16T16:38:58Z</time>
      </trkpt>
      <trkpt lat="42.0381790" lon="-7.0218250">
        <ele>1054.4</ele>
        <time>2019-08-16T16:38:59Z</time>
      </trkpt>
      <trkpt lat="42.0381710" lon="-7.0218860">
        <ele>1054.1</ele>
        <time>2019-08-16T16:39:00Z</time>
      </trkpt>
      <trkpt lat="42.0381630" lon="-7.0219510">
        <ele>1053.8</ele>
        <time>2019-08-16T16:39:01Z</time>
      </trkpt>
      <trkpt lat="42.0381550" lon="-7.0220180">
        <ele>1053.4</ele>
        <time>2019-08-16T16:39:02Z</time>
      </trkpt>
      <trkpt lat="42.0381460" lon="-7.0220880">
        <ele>1053.1</ele>
        <time>2019-08-16T16:39:03Z</time>
      </trkpt>
      <trkpt lat="42.0381370" lon="-7.0221600">
        <ele>1052.7</ele>
        <time>2019-08-16T16:39:04Z</time>
      </trkpt>
      <trkpt lat="42.0381300" lon="-7.0222350">
        <ele>1052.4</ele>
        <time>2019-08-16T16:39:05Z</time>
      </trkpt>
      <trkpt lat="42.0381230" lon="-7.0223130">
        <ele>1052.0</ele>
        <time>2019-08-16T16:39:06Z</time>
      </trkpt>
      <trkpt lat="42.0381170" lon="-7.0223920">
        <ele>1051.6</ele>
        <time>2019-08-16T16:39:07Z</time>
      </trkpt>
      <trkpt lat="42.0381120" lon="-7.0224730">
        <ele>1051.3</ele>
        <time>2019-08-16T16:39:08Z</time>
      </trkpt>
      <trkpt lat="42.0381080" lon="-7.0225580">
        <ele>1050.9</ele>
        <time>2019-08-16T16:39:09Z</time>
      </trkpt>
      <trkpt lat="42.0381050" lon="-7.0226440">
        <ele>1050.6</ele>
        <time>2019-08-16T16:39:10Z</time>
      </trkpt>
      <trkpt lat="42.0381030" lon="-7.0227340">
        <ele>1050.3</ele>
        <time>2019-08-16T16:39:11Z</time>
      </trkpt>
      <trkpt lat="42.0381030" lon="-7.0228250">
        <ele>1050.1</ele>
        <time>2019-08-16T16:39:12Z</time>
      </trkpt>
      <trkpt lat="42.0381060" lon="-7.0229160">
        <ele>1050.4</ele>
        <time>2019-08-16T16:39:13Z</time>
      </trkpt>
      <trkpt lat="42.0381130" lon="-7.0230070">
        <ele>1050.7</ele>
        <time>2019-08-16T16:39:14Z</time>
      </trkpt>
      <trkpt lat="42.0381220" lon="-7.0230960">
        <ele>1051.0</ele>
        <time>2019-08-16T16:39:15Z</time>
      </trkpt>
      <trkpt lat="42.0381300" lon="-7.0231850">
        <ele>1051.3</ele>
        <time>2019-08-16T16:39:16Z</time>
      </trkpt>
      <trkpt lat="42.0381410" lon="-7.0232700">
        <ele>1051.6</ele>
        <time>2019-08-16T16:39:17Z</time>
      </trkpt>
      <trkpt lat="42.0381550" lon="-7.0233500">
        <ele>1051.9</ele>
        <time>2019-08-16T16:39:18Z</time>
      </trkpt>
      <trkpt lat="42.0381700" lon="-7.0234280">
        <ele>1052.3</ele>
        <time>2019-08-16T16:39:19Z</time>
      </trkpt>
      <trkpt lat="42.0381860" lon="-7.0235010">
        <ele>1052.7</ele>
        <time>2019-08-16T16:39:20Z</time>
      </trkpt>
      <trkpt lat="42.0382010" lon="-7.0235680">
        <ele>1053.0</ele>
        <time>2019-08-16T16:39:21Z</time>
      </trkpt>
      <trkpt lat="42.0382150" lon="-7.0236300">
        <ele>1053.4</ele>
        <time>2019-08-16T16:39:22Z</time>
      </trkpt>
      <trkpt lat="42.0382280" lon="-7.0236880">
        <ele>1053.7</ele>
        <time>2019-08-16T16:39:23Z</time>
      </trkpt>
      <trkpt lat="42.0382400" lon="-7.0237420">
        <ele>1054.0</ele>
        <time>2019-08-16T16:39:24Z</time>
      </trkpt>
      <trkpt lat="42.0382490" lon="-7.0237950">
        <ele>1054.3</ele>
        <time>2019-08-16T16:39:25Z</time>
      </trkpt>
      <trkpt lat="42.0382560" lon="-7.0238480">
        <ele>1054.6</ele>
        <time>2019-08-16T16:39:26Z</time>
      </trkpt>
      <trkpt lat="42.0382590" lon="-7.0238970">
        <ele>1054.9</ele>
        <time>2019-08-16T16:39:27Z</time>
      </trkpt>
      <trkpt lat="42.0382610" lon="-7.0239420">
        <ele>1055.2</ele>
        <time>2019-08-16T16:39:28Z</time>
      </trkpt>
      <trkpt lat="42.0382630" lon="-7.0239850">
        <ele>1055.4</ele>
        <time>2019-08-16T16:39:29Z</time>
      </trkpt>
      <trkpt lat="42.0382640" lon="-7.0240270">
        <ele>1055.7</ele>
        <time>2019-08-16T16:39:30Z</time>
      </trkpt>
      <trkpt lat="42.0382620" lon="-7.0240660">
        <ele>1055.9</ele>
        <time>2019-08-16T16:39:31Z</time>
      </trkpt>
      <trkpt lat="42.0382600" lon="-7.0241030">
        <ele>1056.2</ele>
        <time>2019-08-16T16:39:32Z</time>
      </trkpt>
      <trkpt lat="42.0382580" lon="-7.0241370">
        <ele>1056.4</ele>
        <time>2019-08-16T16:39:33Z</time>
      </trkpt>
      <trkpt lat="42.0382540" lon="-7.0242030">
        <ele>1056.9</ele>
        <time>2019-08-16T16:39:35Z</time>
      </trkpt>
      <trkpt lat="42.0382480" lon="-7.0242650">
        <ele>1057.3</ele>
        <time>2019-08-16T16:39:37Z</time>
      </trkpt>
      <trkpt lat="42.0382400" lon="-7.0243260">
        <ele>1057.8</ele>
        <time>2019-08-16T16:39:39Z</time>
      </trkpt>
      <trkpt lat="42.0382300" lon="-7.0243890">
        <ele>1058.2</ele>
        <time>2019-08-16T16:39:41Z</time>
      </trkpt>
      <trkpt lat="42.0382160" lon="-7.0244560">
        <ele>1058.7</ele>
        <time>2019-08-16T16:39:43Z</time>
      </trkpt>
      <trkpt lat="42.0381990" lon="-7.0245250">
        <ele>1059.2</ele>
        <time>2019-08-16T16:39:45Z</time>
      </trkpt>
      <trkpt lat="42.0381860" lon="-7.0245800">
        <ele>1059.7</ele>
        <time>2019-08-16T16:39:47Z</time>
      </trkpt>
      <trkpt lat="42.0381700" lon="-7.0246290">
        <ele>1060.1</ele>
        <time>2019-08-16T16:39:49Z</time>
      </trkpt>
      <trkpt lat="42.0381520" lon="-7.0246840">
        <ele>1060.5</ele>
        <time>2019-08-16T16:39:51Z</time>
      </trkpt>
      <trkpt lat="42.0381300" lon="-7.0247360">
        <ele>1061.0</ele>
        <time>2019-08-16T16:39:53Z</time>
      </trkpt>
      <trkpt lat="42.0381020" lon="-7.0247830">
        <ele>1061.5</ele>
        <time>2019-08-16T16:39:55Z</time>
      </trkpt>
      <trkpt lat="42.0380730" lon="-7.0248330">
        <ele>1061.4</ele>
        <time>2019-08-16T16:39:57Z</time>
      </trkpt>
      <trkpt lat="42.0380450" lon="-7.0248830">
        <ele>1061.2</ele>
        <time>2019-08-16T16:39:59Z</time>
      </trkpt>
      <trkpt lat="42.0380140" lon="-7.0249300">
        <ele>1061.1</ele>
        <time>2019-08-16T16:40:01Z</time>
      </trkpt>
      <trkpt lat="42.0379820" lon="-7.0249760">
        <ele>1061.0</ele>
        <time>2019-08-16T16:40:03Z</time>
      </trkpt>
      <trkpt lat="42.0379480" lon="-7.0250200">
        <ele>1060.8</ele>
        <time>2019-08-16T16:40:05Z</time>
      </trkpt>
      <trkpt lat="42.0379120" lon="-7.0250640">
        <ele>1060.7</ele>
        <time>2019-08-16T16:40:07Z</time>
      </trkpt>
      <trkpt lat="42.0378740" lon="-7.0251110">
        <ele>1060.5</ele>
        <time>2019-08-16T16:40:09Z</time>
      </trkpt>
      <trkpt lat="42.0378360" lon="-7.0251540">
        <ele>1060.1</ele>
        <time>2019-08-16T16:40:11Z</time>
      </trkpt>
      <trkpt lat="42.0377940" lon="-7.0251950">
        <ele>1059.7</ele>
        <time>2019-08-16T16:40:13Z</time>
      </trkpt>
      <trkpt lat="42.0377510" lon="-7.0252400">
        <ele>1059.3</ele>
        <time>2019-08-16T16:40:15Z</time>
      </trkpt>
      <trkpt lat="42.0377280" lon="-7.0252620">
        <ele>1059.0</ele>
        <time>2019-08-16T16:40:16Z</time>
      </trkpt>
      <trkpt lat="42.0377050" lon="-7.0252840">
        <ele>1058.8</ele>
        <time>2019-08-16T16:40:17Z</time>
      </trkpt>
      <trkpt lat="42.0376810" lon="-7.0253050">
        <ele>1058.5</ele>
        <time>2019-08-16T16:40:18Z</time>
      </trkpt>
      <trkpt lat="42.0376570" lon="-7.0253270">
        <ele>1058.3</ele>
        <time>2019-08-16T16:40:19Z</time>
      </trkpt>
      <trkpt lat="42.0376330" lon="-7.0253490">
        <ele>1058.0</ele>
        <time>2019-08-16T16:40:20Z</time>
      </trkpt>
      <trkpt lat="42.0376080" lon="-7.0253710">
        <ele>1057.7</ele>
        <time>2019-08-16T16:40:21Z</time>
      </trkpt>
      <trkpt lat="42.0375830" lon="-7.0253930">
        <ele>1057.4</ele>
        <time>2019-08-16T16:40:22Z</time>
      </trkpt>
      <trkpt lat="42.0375570" lon="-7.0254150">
        <ele>1057.1</ele>
        <time>2019-08-16T16:40:23Z</time>
      </trkpt>
      <trkpt lat="42.0375310" lon="-7.0254360">
        <ele>1056.8</ele>
        <time>2019-08-16T16:40:24Z</time>
      </trkpt>
      <trkpt lat="42.0375040" lon="-7.0254590">
        <ele>1056.4</ele>
        <time>2019-08-16T16:40:25Z</time>
      </trkpt>
      <trkpt lat="42.0374780" lon="-7.0254820">
        <ele>1056.1</ele>
        <time>2019-08-16T16:40:26Z</time>
      </trkpt>
      <trkpt lat="42.0374510" lon="-7.0255040">
        <ele>1055.7</ele>
        <time>2019-08-16T16:40:27Z</time>
      </trkpt>
      <trkpt lat="42.0374240" lon="-7.0255280">
        <ele>1055.4</ele>
        <time>2019-08-16T16:40:28Z</time>
      </trkpt>
      <trkpt lat="42.0373980" lon="-7.0255520">
        <ele>1055.1</ele>
        <time>2019-08-16T16:40:29Z</time>
      </trkpt>
      <trkpt lat="42.0373710" lon="-7.0255770">
        <ele>1054.7</ele>
        <time>2019-08-16T16:40:30Z</time>
      </trkpt>
      <trkpt lat="42.0373440" lon="-7.0256030">
        <ele>1054.4</ele>
        <time>2019-08-16T16:40:31Z</time>
      </trkpt>
      <trkpt lat="42.0373170" lon="-7.0256280">
        <ele>1053.8</ele>
        <time>2019-08-16T16:40:32Z</time>
      </trkpt>
      <trkpt lat="42.0372900" lon="-7.0256560">
        <ele>1053.6</ele>
        <time>2019-08-16T16:40:33Z</time>
      </trkpt>
      <trkpt lat="42.0372620" lon="-7.0256840">
        <ele>1053.5</ele>
        <time>2019-08-16T16:40:34Z</time>
      </trkpt>
      <trkpt lat="42.0372350" lon="-7.0257140">
        <ele>1053.3</ele>
        <time>2019-08-16T16:40:35Z</time>
      </trkpt>
      <trkpt lat="42.0372080" lon="-7.0257440">
        <ele>1053.2</ele>
        <time>2019-08-16T16:40:36Z</time>
      </trkpt>
      <trkpt lat="42.0371820" lon="-7.0257770">
        <ele>1053.0</ele>
        <time>2019-08-16T16:40:37Z</time>
      </trkpt>
      <trkpt lat="42.0371560" lon="-7.0258120">
        <ele>1052.9</ele>
        <time>2019-08-16T16:40:38Z</time>
      </trkpt>
      <trkpt lat="42.0371310" lon="-7.0258490">
        <ele>1052.7</ele>
        <time>2019-08-16T16:40:39Z</time>
      </trkpt>
      <trkpt lat="42.0371070" lon="-7.0258890">
        <ele>1052.6</ele>
        <time>2019-08-16T16:40:40Z</time>
      </trkpt>
      <trkpt lat="42.0370830" lon="-7.0259310">
        <ele>1052.4</ele>
        <time>2019-08-16T16:40:41Z</time>
      </trkpt>
      <trkpt lat="42.0370620" lon="-7.0259750">
        <ele>1052.2</ele>
        <time>2019-08-16T16:40:42Z</time>
      </trkpt>
      <trkpt lat="42.0370420" lon="-7.0260210">
        <ele>1052.1</ele>
        <time>2019-08-16T16:40:43Z</time>
      </trkpt>
      <trkpt lat="42.0370260" lon="-7.0260690">
        <ele>1051.7</ele>
        <time>2019-08-16T16:40:44Z</time>
      </trkpt>
      <trkpt lat="42.0370100" lon="-7.0261190">
        <ele>1051.5</ele>
        <time>2019-08-16T16:40:45Z</time>
      </trkpt>
      <trkpt lat="42.0369920" lon="-7.0261690">
        <ele>1051.2</ele>
        <time>2019-08-16T16:40:46Z</time>
      </trkpt>
      <trkpt lat="42.0369740" lon="-7.0262200">
        <ele>1051.0</ele>
        <time>2019-08-16T16:40:47Z</time>
      </trkpt>
      <trkpt lat="42.0369570" lon="-7.0262730">
        <ele>1050.8</ele>
        <time>2019-08-16T16:40:48Z</time>
      </trkpt>
      <trkpt lat="42.0369440" lon="-7.0263270">
        <ele>1050.5</ele>
        <time>2019-08-16T16:40:49Z</time>
      </trkpt>
      <trkpt lat="42.0369320" lon="-7.0263820">
        <ele>1050.5</ele>
        <time>2019-08-16T16:40:50Z</time>
      </trkpt>
      <trkpt lat="42.0369240" lon="-7.0264400">
        <ele>1050.5</ele>
        <time>2019-08-16T16:40:51Z</time>
      </trkpt>
      <trkpt lat="42.0369200" lon="-7.0264990">
        <ele>1050.5</ele>
        <time>2019-08-16T16:40:52Z</time>
      </trkpt>
      <trkpt lat="42.0369170" lon="-7.0265600">
        <ele>1050.5</ele>
        <time>2019-08-16T16:40:53Z</time>
      </trkpt>
      <trkpt lat="42.0369160" lon="-7.0266240">
        <ele>1050.5</ele>
        <time>2019-08-16T16:40:54Z</time>
      </trkpt>
      <trkpt lat="42.0369180" lon="-7.0266880">
        <ele>1050.5</ele>
        <time>2019-08-16T16:40:55Z</time>
      </trkpt>
      <trkpt lat="42.0369240" lon="-7.0267550">
        <ele>1050.5</ele>
        <time>2019-08-16T16:40:56Z</time>
      </trkpt>
      <trkpt lat="42.0369320" lon="-7.0268220">
        <ele>1050.5</ele>
        <time>2019-08-16T16:40:57Z</time>
      </trkpt>
      <trkpt lat="42.0369430" lon="-7.0268920">
        <ele>1050.4</ele>
        <time>2019-08-16T16:40:58Z</time>
      </trkpt>
      <trkpt lat="42.0369580" lon="-7.0269650">
        <ele>1050.4</ele>
        <time>2019-08-16T16:40:59Z</time>
      </trkpt>
      <trkpt lat="42.0369770" lon="-7.0270360">
        <ele>1050.3</ele>
        <time>2019-08-16T16:41:00Z</time>
      </trkpt>
      <trkpt lat="42.0369990" lon="-7.0271060">
        <ele>1050.3</ele>
        <time>2019-08-16T16:41:01Z</time>
      </trkpt>
      <trkpt lat="42.0370250" lon="-7.0271780">
        <ele>1050.2</ele>
        <time>2019-08-16T16:41:02Z</time>
      </trkpt>
      <trkpt lat="42.0370550" lon="-7.0272500">
        <ele>1050.1</ele>
        <time>2019-08-16T16:41:03Z</time>
      </trkpt>
      <trkpt lat="42.0370910" lon="-7.0273220">
        <ele>1050.0</ele>
        <time>2019-08-16T16:41:04Z</time>
      </trkpt>
      <trkpt lat="42.0371300" lon="-7.0273950">
        <ele>1049.8</ele>
        <time>2019-08-16T16:41:05Z</time>
      </trkpt>
      <trkpt lat="42.0371690" lon="-7.0274710">
        <ele>1049.6</ele>
        <time>2019-08-16T16:41:06Z</time>
      </trkpt>
      <trkpt lat="42.0372100" lon="-7.0275470">
        <ele>1049.4</ele>
        <time>2019-08-16T16:41:07Z</time>
      </trkpt>
      <trkpt lat="42.0372540" lon="-7.0276240">
        <ele>1049.1</ele>
        <time>2019-08-16T16:41:08Z</time>
      </trkpt>
      <trkpt lat="42.0372990" lon="-7.0277050">
        <ele>1048.8</ele>
        <time>2019-08-16T16:41:09Z</time>
      </trkpt>
      <trkpt lat="42.0373450" lon="-7.0277870">
        <ele>1048.5</ele>
        <time>2019-08-16T16:41:10Z</time>
      </trkpt>
      <trkpt lat="42.0373930" lon="-7.0278710">
        <ele>1048.1</ele>
        <time>2019-08-16T16:41:11Z</time>
      </trkpt>
      <trkpt lat="42.0374410" lon="-7.0279590">
        <ele>1047.7</ele>
        <time>2019-08-16T16:41:12Z</time>
      </trkpt>
      <trkpt lat="42.0374860" lon="-7.0280500">
        <ele>1047.3</ele>
        <time>2019-08-16T16:41:13Z</time>
      </trkpt>
      <trkpt lat="42.0375310" lon="-7.0281460">
        <ele>1046.9</ele>
        <time>2019-08-16T16:41:14Z</time>
      </trkpt>
      <trkpt lat="42.0375760" lon="-7.0282440">
        <ele>1046.4</ele>
        <time>2019-08-16T16:41:15Z</time>
      </trkpt>
      <trkpt lat="42.0376210" lon="-7.0283460">
        <ele>1046.0</ele>
        <time>2019-08-16T16:41:16Z</time>
      </trkpt>
      <trkpt lat="42.0376640" lon="-7.0284520">
        <ele>1045.6</ele>
        <time>2019-08-16T16:41:17Z</time>
      </trkpt>
      <trkpt lat="42.0377050" lon="-7.0285600">
        <ele>1045.2</ele>
        <time>2019-08-16T16:41:18Z</time>
      </trkpt>
      <trkpt lat="42.0377430" lon="-7.0286730">
        <ele>1044.7</ele>
        <time>2019-08-16T16:41:19Z</time>
      </trkpt>
      <trkpt lat="42.0377810" lon="-7.0287880">
        <ele>1044.3</ele>
        <time>2019-08-16T16:41:20Z</time>
      </trkpt>
      <trkpt lat="42.0378160" lon="-7.0289060">
        <ele>1043.9</ele>
        <time>2019-08-16T16:41:21Z</time>
      </trkpt>
      <trkpt lat="42.0378500" lon="-7.0290260">
        <ele>1043.4</ele>
        <time>2019-08-16T16:41:22Z</time>
      </trkpt>
      <trkpt lat="42.0378810" lon="-7.0291480">
        <ele>1042.9</ele>
        <time>2019-08-16T16:41:23Z</time>
      </trkpt>
      <trkpt lat="42.0379100" lon="-7.0292710">
        <ele>1042.4</ele>
        <time>2019-08-16T16:41:24Z</time>
      </trkpt>
      <trkpt lat="42.0379400" lon="-7.0293940">
        <ele>1041.8</ele>
        <time>2019-08-16T16:41:25Z</time>
      </trkpt>
      <trkpt lat="42.0379710" lon="-7.0295160">
        <ele>1041.2</ele>
        <time>2019-08-16T16:41:26Z</time>
      </trkpt>
      <trkpt lat="42.0380000" lon="-7.0296370">
        <ele>1040.5</ele>
        <time>2019-08-16T16:41:27Z</time>
      </trkpt>
      <trkpt lat="42.0380290" lon="-7.0297570">
        <ele>1040.0</ele>
        <time>2019-08-16T16:41:28Z</time>
      </trkpt>
      <trkpt lat="42.0380590" lon="-7.0298740">
        <ele>1039.4</ele>
        <time>2019-08-16T16:41:29Z</time>
      </trkpt>
      <trkpt lat="42.0380870" lon="-7.0299910">
        <ele>1038.9</ele>
        <time>2019-08-16T16:41:30Z</time>
      </trkpt>
      <trkpt lat="42.0381140" lon="-7.0301070">
        <ele>1038.4</ele>
        <time>2019-08-16T16:41:31Z</time>
      </trkpt>
      <trkpt lat="42.0381390" lon="-7.0302200">
        <ele>1037.9</ele>
        <time>2019-08-16T16:41:32Z</time>
      </trkpt>
      <trkpt lat="42.0381640" lon="-7.0303330">
        <ele>1036.9</ele>
        <time>2019-08-16T16:41:33Z</time>
      </trkpt>
      <trkpt lat="42.0381900" lon="-7.0304430">
        <ele>1036.1</ele>
        <time>2019-08-16T16:41:34Z</time>
      </trkpt>
      <trkpt lat="42.0382150" lon="-7.0305490">
        <ele>1035.5</ele>
        <time>2019-08-16T16:41:35Z</time>
      </trkpt>
      <trkpt lat="42.0382390" lon="-7.0306530">
        <ele>1034.9</ele>
        <time>2019-08-16T16:41:36Z</time>
      </trkpt>
      <trkpt lat="42.0382620" lon="-7.0307550">
        <ele>1034.5</ele>
        <time>2019-08-16T16:41:37Z</time>
      </trkpt>
      <trkpt lat="42.0382850" lon="-7.0308560">
        <ele>1034.1</ele>
        <time>2019-08-16T16:41:38Z</time>
      </trkpt>
      <trkpt lat="42.0383090" lon="-7.0309540">
        <ele>1033.8</ele>
        <time>2019-08-16T16:41:39Z</time>
      </trkpt>
      <trkpt lat="42.0383330" lon="-7.0310500">
        <ele>1033.5</ele>
        <time>2019-08-16T16:41:40Z</time>
      </trkpt>
      <trkpt lat="42.0383560" lon="-7.0311440">
        <ele>1033.3</ele>
        <time>2019-08-16T16:41:41Z</time>
      </trkpt>
      <trkpt lat="42.0383780" lon="-7.0312370">
        <ele>1033.0</ele>
        <time>2019-08-16T16:41:42Z</time>
      </trkpt>
      <trkpt lat="42.0384000" lon="-7.0313280">
        <ele>1032.8</ele>
        <time>2019-08-16T16:41:43Z</time>
      </trkpt>
      <trkpt lat="42.0384220" lon="-7.0314160">
        <ele>1032.6</ele>
        <time>2019-08-16T16:41:44Z</time>
      </trkpt>
      <trkpt lat="42.0384430" lon="-7.0315030">
        <ele>1032.4</ele>
        <time>2019-08-16T16:41:45Z</time>
      </trkpt>
      <trkpt lat="42.0384630" lon="-7.0315890">
        <ele>1032.3</ele>
        <time>2019-08-16T16:41:46Z</time>
      </trkpt>
      <trkpt lat="42.0384840" lon="-7.0316750">
        <ele>1032.2</ele>
        <time>2019-08-16T16:41:47Z</time>
      </trkpt>
      <trkpt lat="42.0385030" lon="-7.0317610">
        <ele>1032.1</ele>
        <time>2019-08-16T16:41:48Z</time>
      </trkpt>
      <trkpt lat="42.0385220" lon="-7.0318450">
        <ele>1032.0</ele>
        <time>2019-08-16T16:41:49Z</time>
      </trkpt>
      <trkpt lat="42.0385410" lon="-7.0319290">
        <ele>1031.9</ele>
        <time>2019-08-16T16:41:50Z</time>
      </trkpt>
      <trkpt lat="42.0385620" lon="-7.0320120">
        <ele>1031.8</ele>
        <time>2019-08-16T16:41:51Z</time>
      </trkpt>
      <trkpt lat="42.0385820" lon="-7.0320950">
        <ele>1031.7</ele>
        <time>2019-08-16T16:41:52Z</time>
      </trkpt>
      <trkpt lat="42.0386010" lon="-7.0321770">
        <ele>1031.6</ele>
        <time>2019-08-16T16:41:53Z</time>
      </trkpt>
      <trkpt lat="42.0386210" lon="-7.0322590">
        <ele>1031.6</ele>
        <time>2019-08-16T16:41:54Z</time>
      </trkpt>
      <trkpt lat="42.0386410" lon="-7.0323400">
        <ele>1031.5</ele>
        <time>2019-08-16T16:41:55Z</time>
      </trkpt>
      <trkpt lat="42.0386600" lon="-7.0324210">
        <ele>1031.4</ele>
        <time>2019-08-16T16:41:56Z</time>
      </trkpt>
      <trkpt lat="42.0386790" lon="-7.0325030">
        <ele>1031.4</ele>
        <time>2019-08-16T16:41:57Z</time>
      </trkpt>
      <trkpt lat="42.0386970" lon="-7.0325840">
        <ele>1031.3</ele>
        <time>2019-08-16T16:41:58Z</time>
      </trkpt>
      <trkpt lat="42.0387160" lon="-7.0326640">
        <ele>1031.2</ele>
        <time>2019-08-16T16:41:59Z</time>
      </trkpt>
      <trkpt lat="42.0387370" lon="-7.0327450">
        <ele>1031.1</ele>
        <time>2019-08-16T16:42:00Z</time>
      </trkpt>
      <trkpt lat="42.0387570" lon="-7.0328270">
        <ele>1031.0</ele>
        <time>2019-08-16T16:42:01Z</time>
      </trkpt>
      <trkpt lat="42.0387760" lon="-7.0329090">
        <ele>1030.9</ele>
        <time>2019-08-16T16:42:02Z</time>
      </trkpt>
      <trkpt lat="42.0387950" lon="-7.0329900">
        <ele>1030.8</ele>
        <time>2019-08-16T16:42:03Z</time>
      </trkpt>
      <trkpt lat="42.0388130" lon="-7.0330700">
        <ele>1030.7</ele>
        <time>2019-08-16T16:42:04Z</time>
      </trkpt>
      <trkpt lat="42.0388310" lon="-7.0331470">
        <ele>1030.6</ele>
        <time>2019-08-16T16:42:05Z</time>
      </trkpt>
      <trkpt lat="42.0388480" lon="-7.0332230">
        <ele>1030.6</ele>
        <time>2019-08-16T16:42:06Z</time>
      </trkpt>
      <trkpt lat="42.0388660" lon="-7.0332990">
        <ele>1030.5</ele>
        <time>2019-08-16T16:42:07Z</time>
      </trkpt>
      <trkpt lat="42.0388840" lon="-7.0333760">
        <ele>1030.4</ele>
        <time>2019-08-16T16:42:08Z</time>
      </trkpt>
      <trkpt lat="42.0389030" lon="-7.0334530">
        <ele>1030.3</ele>
        <time>2019-08-16T16:42:09Z</time>
      </trkpt>
      <trkpt lat="42.0389220" lon="-7.0335280">
        <ele>1030.2</ele>
        <time>2019-08-16T16:42:10Z</time>
      </trkpt>
      <trkpt lat="42.0389410" lon="-7.0336030">
        <ele>1030.1</ele>
        <time>2019-08-16T16:42:11Z</time>
      </trkpt>
      <trkpt lat="42.0389570" lon="-7.0336770">
        <ele>1030.0</ele>
        <time>2019-08-16T16:42:12Z</time>
      </trkpt>
      <trkpt lat="42.0389740" lon="-7.0337500">
        <ele>1029.9</ele>
        <time>2019-08-16T16:42:13Z</time>
      </trkpt>
      <trkpt lat="42.0389910" lon="-7.0338190">
        <ele>1029.8</ele>
        <time>2019-08-16T16:42:14Z</time>
      </trkpt>
      <trkpt lat="42.0390070" lon="-7.0338850">
        <ele>1029.8</ele>
        <time>2019-08-16T16:42:15Z</time>
      </trkpt>
      <trkpt lat="42.0390240" lon="-7.0339480">
        <ele>1029.7</ele>
        <time>2019-08-16T16:42:16Z</time>
      </trkpt>
      <trkpt lat="42.0390400" lon="-7.0340100">
        <ele>1029.6</ele>
        <time>2019-08-16T16:42:17Z</time>
      </trkpt>
      <trkpt lat="42.0390550" lon="-7.0340720">
        <ele>1029.5</ele>
        <time>2019-08-16T16:42:18Z</time>
      </trkpt>
      <trkpt lat="42.0390710" lon="-7.0341340">
        <ele>1029.5</ele>
        <time>2019-08-16T16:42:19Z</time>
      </trkpt>
      <trkpt lat="42.0390860" lon="-7.0341950">
        <ele>1029.4</ele>
        <time>2019-08-16T16:42:20Z</time>
      </trkpt>
      <trkpt lat="42.0391020" lon="-7.0342560">
        <ele>1029.4</ele>
        <time>2019-08-16T16:42:21Z</time>
      </trkpt>
      <trkpt lat="42.0391170" lon="-7.0343170">
        <ele>1029.3</ele>
        <time>2019-08-16T16:42:22Z</time>
      </trkpt>
      <trkpt lat="42.0391320" lon="-7.0343770">
        <ele>1029.3</ele>
        <time>2019-08-16T16:42:23Z</time>
      </trkpt>
      <trkpt lat="42.0391470" lon="-7.0344380">
        <ele>1029.2</ele>
        <time>2019-08-16T16:42:24Z</time>
      </trkpt>
      <trkpt lat="42.0391600" lon="-7.0344970">
        <ele>1029.2</ele>
        <time>2019-08-16T16:42:25Z</time>
      </trkpt>
      <trkpt lat="42.0391740" lon="-7.0345550">
        <ele>1029.2</ele>
        <time>2019-08-16T16:42:26Z</time>
      </trkpt>
      <trkpt lat="42.0391880" lon="-7.0346130">
        <ele>1029.2</ele>
        <time>2019-08-16T16:42:27Z</time>
      </trkpt>
      <trkpt lat="42.0392020" lon="-7.0346720">
        <ele>1029.2</ele>
        <time>2019-08-16T16:42:28Z</time>
      </trkpt>
      <trkpt lat="42.0392160" lon="-7.0347300">
        <ele>1029.2</ele>
        <time>2019-08-16T16:42:29Z</time>
      </trkpt>
      <trkpt lat="42.0392290" lon="-7.0347880">
        <ele>1029.2</ele>
        <time>2019-08-16T16:42:30Z</time>
      </trkpt>
      <trkpt lat="42.0392420" lon="-7.0348460">
        <ele>1029.2</ele>
        <time>2019-08-16T16:42:31Z</time>
      </trkpt>
      <trkpt lat="42.0392540" lon="-7.0349050">
        <ele>1029.2</ele>
        <time>2019-08-16T16:42:32Z</time>
      </trkpt>
      <trkpt lat="42.0392670" lon="-7.0349640">
        <ele>1029.3</ele>
        <time>2019-08-16T16:42:33Z</time>
      </trkpt>
      <trkpt lat="42.0392790" lon="-7.0350240">
        <ele>1029.3</ele>
        <time>2019-08-16T16:42:34Z</time>
      </trkpt>
      <trkpt lat="42.0392920" lon="-7.0350870">
        <ele>1029.4</ele>
        <time>2019-08-16T16:42:35Z</time>
      </trkpt>
      <trkpt lat="42.0393030" lon="-7.0351540">
        <ele>1029.5</ele>
        <time>2019-08-16T16:42:36Z</time>
      </trkpt>
      <trkpt lat="42.0393130" lon="-7.0352190">
        <ele>1029.7</ele>
        <time>2019-08-16T16:42:37Z</time>
      </trkpt>
      <trkpt lat="42.0393220" lon="-7.0352840">
        <ele>1029.8</ele>
        <time>2019-08-16T16:42:38Z</time>
      </trkpt>
      <trkpt lat="42.0393290" lon="-7.0353500">
        <ele>1029.9</ele>
        <time>2019-08-16T16:42:39Z</time>
      </trkpt>
      <trkpt lat="42.0393340" lon="-7.0354170">
        <ele>1030.1</ele>
        <time>2019-08-16T16:42:40Z</time>
      </trkpt>
      <trkpt lat="42.0393380" lon="-7.0354830">
        <ele>1030.2</ele>
        <time>2019-08-16T16:42:41Z</time>
      </trkpt>
      <trkpt lat="42.0393390" lon="-7.0355520">
        <ele>1030.3</ele>
        <time>2019-08-16T16:42:42Z</time>
      </trkpt>
      <trkpt lat="42.0393390" lon="-7.0356200">
        <ele>1030.4</ele>
        <time>2019-08-16T16:42:43Z</time>
      </trkpt>
      <trkpt lat="42.0393350" lon="-7.0356890">
        <ele>1030.5</ele>
        <time>2019-08-16T16:42:44Z</time>
      </trkpt>
      <trkpt lat="42.0393300" lon="-7.0357590">
        <ele>1030.5</ele>
        <time>2019-08-16T16:42:45Z</time>
      </trkpt>
      <trkpt lat="42.0393240" lon="-7.0358290">
        <ele>1030.6</ele>
        <time>2019-08-16T16:42:46Z</time>
      </trkpt>
      <trkpt lat="42.0393170" lon="-7.0359000">
        <ele>1030.6</ele>
        <time>2019-08-16T16:42:47Z</time>
      </trkpt>
      <trkpt lat="42.0393070" lon="-7.0359710">
        <ele>1030.6</ele>
        <time>2019-08-16T16:42:48Z</time>
      </trkpt>
      <trkpt lat="42.0392940" lon="-7.0360410">
        <ele>1030.6</ele>
        <time>2019-08-16T16:42:49Z</time>
      </trkpt>
      <trkpt lat="42.0392790" lon="-7.0361130">
        <ele>1030.6</ele>
        <time>2019-08-16T16:42:50Z</time>
      </trkpt>
      <trkpt lat="42.0392630" lon="-7.0361840">
        <ele>1030.5</ele>
        <time>2019-08-16T16:42:51Z</time>
      </trkpt>
      <trkpt lat="42.0392450" lon="-7.0362570">
        <ele>1030.5</ele>
        <time>2019-08-16T16:42:52Z</time>
      </trkpt>
      <trkpt lat="42.0392220" lon="-7.0363290">
        <ele>1030.4</ele>
        <time>2019-08-16T16:42:53Z</time>
      </trkpt>
      <trkpt lat="42.0391980" lon="-7.0364000">
        <ele>1030.3</ele>
        <time>2019-08-16T16:42:54Z</time>
      </trkpt>
      <trkpt lat="42.0391710" lon="-7.0364710">
        <ele>1030.1</ele>
        <time>2019-08-16T16:42:55Z</time>
      </trkpt>
      <trkpt lat="42.0391440" lon="-7.0365420">
        <ele>1029.9</ele>
        <time>2019-08-16T16:42:56Z</time>
      </trkpt>
      <trkpt lat="42.0391160" lon="-7.0366150">
        <ele>1029.7</ele>
        <time>2019-08-16T16:42:57Z</time>
      </trkpt>
      <trkpt lat="42.0390860" lon="-7.0366910">
        <ele>1029.4</ele>
        <time>2019-08-16T16:42:58Z</time>
      </trkpt>
      <trkpt lat="42.0390560" lon="-7.0367670">
        <ele>1029.2</ele>
        <time>2019-08-16T16:42:59Z</time>
      </trkpt>
      <trkpt lat="42.0390230" lon="-7.0368460">
        <ele>1028.9</ele>
        <time>2019-08-16T16:43:00Z</time>
      </trkpt>
      <trkpt lat="42.0389920" lon="-7.0369240">
        <ele>1028.6</ele>
        <time>2019-08-16T16:43:01Z</time>
      </trkpt>
      <trkpt lat="42.0389600" lon="-7.0370040">
        <ele>1028.3</ele>
        <time>2019-08-16T16:43:02Z</time>
      </trkpt>
      <trkpt lat="42.0389280" lon="-7.0370840">
        <ele>1028.0</ele>
        <time>2019-08-16T16:43:03Z</time>
      </trkpt>
      <trkpt lat="42.0388970" lon="-7.0371650">
        <ele>1027.7</ele>
        <time>2019-08-16T16:43:04Z</time>
      </trkpt>
      <trkpt lat="42.0388650" lon="-7.0372460">
        <ele>1027.4</ele>
        <time>2019-08-16T16:43:05Z</time>
      </trkpt>
      <trkpt lat="42.0388340" lon="-7.0373270">
        <ele>1027.1</ele>
        <time>2019-08-16T16:43:06Z</time>
      </trkpt>
      <trkpt lat="42.0388050" lon="-7.0374100">
        <ele>1026.8</ele>
        <time>2019-08-16T16:43:07Z</time>
      </trkpt>
      <trkpt lat="42.0387810" lon="-7.0374960">
        <ele>1026.5</ele>
        <time>2019-08-16T16:43:08Z</time>
      </trkpt>
      <trkpt lat="42.0387610" lon="-7.0375850">
        <ele>1026.2</ele>
        <time>2019-08-16T16:43:09Z</time>
      </trkpt>
      <trkpt lat="42.0387450" lon="-7.0376750">
        <ele>1025.9</ele>
        <time>2019-08-16T16:43:10Z</time>
      </trkpt>
      <trkpt lat="42.0387340" lon="-7.0377670">
        <ele>1025.8</ele>
        <time>2019-08-16T16:43:11Z</time>
      </trkpt>
      <trkpt lat="42.0387260" lon="-7.0378580">
        <ele>1025.6</ele>
        <time>2019-08-16T16:43:12Z</time>
      </trkpt>
      <trkpt lat="42.0387240" lon="-7.0379490">
        <ele>1025.4</ele>
        <time>2019-08-16T16:43:13Z</time>
      </trkpt>
      <trkpt lat="42.0387230" lon="-7.0380400">
        <ele>1025.2</ele>
        <time>2019-08-16T16:43:14Z</time>
      </trkpt>
      <trkpt lat="42.0387220" lon="-7.0381320">
        <ele>1025.0</ele>
        <time>2019-08-16T16:43:15Z</time>
      </trkpt>
      <trkpt lat="42.0387220" lon="-7.0382250">
        <ele>1024.7</ele>
        <time>2019-08-16T16:43:16Z</time>
      </trkpt>
      <trkpt lat="42.0387240" lon="-7.0383170">
        <ele>1024.5</ele>
        <time>2019-08-16T16:43:17Z</time>
      </trkpt>
      <trkpt lat="42.0387290" lon="-7.0384120">
        <ele>1024.2</ele>
        <time>2019-08-16T16:43:18Z</time>
      </trkpt>
      <trkpt lat="42.0387340" lon="-7.0385080">
        <ele>1023.9</ele>
        <time>2019-08-16T16:43:19Z</time>
      </trkpt>
      <trkpt lat="42.0387380" lon="-7.0386040">
        <ele>1023.5</ele>
        <time>2019-08-16T16:43:20Z</time>
      </trkpt>
      <trkpt lat="42.0387400" lon="-7.0386970">
        <ele>1023.2</ele>
        <time>2019-08-16T16:43:21Z</time>
      </trkpt>
      <trkpt lat="42.0387440" lon="-7.0387900">
        <ele>1022.9</ele>
        <time>2019-08-16T16:43:22Z</time>
      </trkpt>
      <trkpt lat="42.0387470" lon="-7.0388850">
        <ele>1022.5</ele>
        <time>2019-08-16T16:43:23Z</time>
      </trkpt>
      <trkpt lat="42.0387480" lon="-7.0389800">
        <ele>1022.2</ele>
        <time>2019-08-16T16:43:24Z</time>
      </trkpt>
      <trkpt lat="42.0387480" lon="-7.0390750">
        <ele>1021.8</ele>
        <time>2019-08-16T16:43:25Z</time>
      </trkpt>
      <trkpt lat="42.0387460" lon="-7.0391720">
        <ele>1021.3</ele>
        <time>2019-08-16T16:43:26Z</time>
      </trkpt>
      <trkpt lat="42.0387410" lon="-7.0392700">
        <ele>1020.8</ele>
        <time>2019-08-16T16:43:27Z</time>
      </trkpt>
      <trkpt lat="42.0387320" lon="-7.0393690">
        <ele>1020.2</ele>
        <time>2019-08-16T16:43:28Z</time>
      </trkpt>
      <trkpt lat="42.0387170" lon="-7.0394690">
        <ele>1019.7</ele>
        <time>2019-08-16T16:43:29Z</time>
      </trkpt>
      <trkpt lat="42.0386940" lon="-7.0395710">
        <ele>1019.1</ele>
        <time>2019-08-16T16:43:30Z</time>
      </trkpt>
      <trkpt lat="42.0386670" lon="-7.0396740">
        <ele>1018.7</ele>
        <time>2019-08-16T16:43:31Z</time>
      </trkpt>
      <trkpt lat="42.0386330" lon="-7.0397790">
        <ele>1018.4</ele>
        <time>2019-08-16T16:43:32Z</time>
      </trkpt>
      <trkpt lat="42.0385930" lon="-7.0398850">
        <ele>1018.1</ele>
        <time>2019-08-16T16:43:33Z</time>
      </trkpt>
      <trkpt lat="42.0385470" lon="-7.0399910">
        <ele>1017.9</ele>
        <time>2019-08-16T16:43:34Z</time>
      </trkpt>
      <trkpt lat="42.0384950" lon="-7.0400950">
        <ele>1017.8</ele>
        <time>2019-08-16T16:43:35Z</time>
      </trkpt>
      <trkpt lat="42.0384400" lon="-7.0401930">
        <ele>1017.7</ele>
        <time>2019-08-16T16:43:36Z</time>
      </trkpt>
      <trkpt lat="42.0383800" lon="-7.0402890">
        <ele>1017.6</ele>
        <time>2019-08-16T16:43:37Z</time>
      </trkpt>
      <trkpt lat="42.0383190" lon="-7.0403850">
        <ele>1017.5</ele>
        <time>2019-08-16T16:43:38Z</time>
      </trkpt>
      <trkpt lat="42.0382580" lon="-7.0404830">
        <ele>1017.4</ele>
        <time>2019-08-16T16:43:39Z</time>
      </trkpt>
      <trkpt lat="42.0381950" lon="-7.0405800">
        <ele>1017.4</ele>
        <time>2019-08-16T16:43:40Z</time>
      </trkpt>
      <trkpt lat="42.0381330" lon="-7.0406750">
        <ele>1017.4</ele>
        <time>2019-08-16T16:43:41Z</time>
      </trkpt>
      <trkpt lat="42.0380710" lon="-7.0407720">
        <ele>1017.4</ele>
        <time>2019-08-16T16:43:42Z</time>
      </trkpt>
      <trkpt lat="42.0380130" lon="-7.0408680">
        <ele>1017.5</ele>
        <time>2019-08-16T16:43:43Z</time>
      </trkpt>
      <trkpt lat="42.0379560" lon="-7.0409660">
        <ele>1017.7</ele>
        <time>2019-08-16T16:43:44Z</time>
      </trkpt>
      <trkpt lat="42.0379040" lon="-7.0410670">
        <ele>1018.0</ele>
        <time>2019-08-16T16:43:45Z</time>
      </trkpt>
      <trkpt lat="42.0378580" lon="-7.0411700">
        <ele>1018.2</ele>
        <time>2019-08-16T16:43:46Z</time>
      </trkpt>
      <trkpt lat="42.0378180" lon="-7.0412760">
        <ele>1018.6</ele>
        <time>2019-08-16T16:43:47Z</time>
      </trkpt>
      <trkpt lat="42.0377870" lon="-7.0413830">
        <ele>1018.8</ele>
        <time>2019-08-16T16:43:48Z</time>
      </trkpt>
      <trkpt lat="42.0377640" lon="-7.0414890">
        <ele>1019.0</ele>
        <time>2019-08-16T16:43:49Z</time>
      </trkpt>
      <trkpt lat="42.0377500" lon="-7.0415930">
        <ele>1019.1</ele>
        <time>2019-08-16T16:43:50Z</time>
      </trkpt>
      <trkpt lat="42.0377400" lon="-7.0416940">
        <ele>1019.1</ele>
        <time>2019-08-16T16:43:51Z</time>
      </trkpt>
      <trkpt lat="42.0377330" lon="-7.0417900">
        <ele>1019.0</ele>
        <time>2019-08-16T16:43:52Z</time>
      </trkpt>
      <trkpt lat="42.0377270" lon="-7.0418830">
        <ele>1018.7</ele>
        <time>2019-08-16T16:43:53Z</time>
      </trkpt>
      <trkpt lat="42.0377230" lon="-7.0419740">
        <ele>1018.4</ele>
        <time>2019-08-16T16:43:54Z</time>
      </trkpt>
      <trkpt lat="42.0377200" lon="-7.0420620">
        <ele>1018.1</ele>
        <time>2019-08-16T16:43:55Z</time>
      </trkpt>
      <trkpt lat="42.0377190" lon="-7.0421500">
        <ele>1017.8</ele>
        <time>2019-08-16T16:43:56Z</time>
      </trkpt>
      <trkpt lat="42.0377180" lon="-7.0422370">
        <ele>1017.4</ele>
        <time>2019-08-16T16:43:57Z</time>
      </trkpt>
      <trkpt lat="42.0377180" lon="-7.0423240">
        <ele>1017.0</ele>
        <time>2019-08-16T16:43:58Z</time>
      </trkpt>
      <trkpt lat="42.0377190" lon="-7.0424100">
        <ele>1016.6</ele>
        <time>2019-08-16T16:43:59Z</time>
      </trkpt>
      <trkpt lat="42.0377200" lon="-7.0424980">
        <ele>1016.3</ele>
        <time>2019-08-16T16:44:00Z</time>
      </trkpt>
      <trkpt lat="42.0377200" lon="-7.0425860">
        <ele>1016.0</ele>
        <time>2019-08-16T16:44:01Z</time>
      </trkpt>
      <trkpt lat="42.0377170" lon="-7.0426740">
        <ele>1015.7</ele>
        <time>2019-08-16T16:44:02Z</time>
      </trkpt>
      <trkpt lat="42.0377140" lon="-7.0427620">
        <ele>1015.6</ele>
        <time>2019-08-16T16:44:03Z</time>
      </trkpt>
      <trkpt lat="42.0377150" lon="-7.0428510">
        <ele>1015.5</ele>
        <time>2019-08-16T16:44:04Z</time>
      </trkpt>
      <trkpt lat="42.0377190" lon="-7.0429390">
        <ele>1015.4</ele>
        <time>2019-08-16T16:44:05Z</time>
      </trkpt>
      <trkpt lat="42.0377200" lon="-7.0430290">
        <ele>1015.4</ele>
        <time>2019-08-16T16:44:06Z</time>
      </trkpt>
      <trkpt lat="42.0377190" lon="-7.0431170">
        <ele>1015.5</ele>
        <time>2019-08-16T16:44:07Z</time>
      </trkpt>
      <trkpt lat="42.0377170" lon="-7.0432040">
        <ele>1015.5</ele>
        <time>2019-08-16T16:44:08Z</time>
      </trkpt>
      <trkpt lat="42.0377130" lon="-7.0432910">
        <ele>1015.5</ele>
        <time>2019-08-16T16:44:09Z</time>
      </trkpt>
      <trkpt lat="42.0377130" lon="-7.0433780">
        <ele>1015.6</ele>
        <time>2019-08-16T16:44:10Z</time>
      </trkpt>
      <trkpt lat="42.0377120" lon="-7.0434650">
        <ele>1015.5</ele>
        <time>2019-08-16T16:44:11Z</time>
      </trkpt>
      <trkpt lat="42.0377130" lon="-7.0435510">
        <ele>1015.5</ele>
        <time>2019-08-16T16:44:12Z</time>
      </trkpt>
      <trkpt lat="42.0377150" lon="-7.0436360">
        <ele>1015.3</ele>
        <time>2019-08-16T16:44:13Z</time>
      </trkpt>
      <trkpt lat="42.0377140" lon="-7.0437240">
        <ele>1015.1</ele>
        <time>2019-08-16T16:44:14Z</time>
      </trkpt>
      <trkpt lat="42.0377140" lon="-7.0438100">
        <ele>1014.8</ele>
        <time>2019-08-16T16:44:15Z</time>
      </trkpt>
      <trkpt lat="42.0377140" lon="-7.0438970">
        <ele>1014.4</ele>
        <time>2019-08-16T16:44:16Z</time>
      </trkpt>
      <trkpt lat="42.0377150" lon="-7.0439840">
        <ele>1014.1</ele>
        <time>2019-08-16T16:44:17Z</time>
      </trkpt>
      <trkpt lat="42.0377210" lon="-7.0440650">
        <ele>1013.6</ele>
        <time>2019-08-16T16:44:18Z</time>
      </trkpt>
      <trkpt lat="42.0377290" lon="-7.0441460">
        <ele>1013.3</ele>
        <time>2019-08-16T16:44:19Z</time>
      </trkpt>
      <trkpt lat="42.0377390" lon="-7.0442230">
        <ele>1013.0</ele>
        <time>2019-08-16T16:44:20Z</time>
      </trkpt>
      <trkpt lat="42.0377500" lon="-7.0442990">
        <ele>1012.6</ele>
        <time>2019-08-16T16:44:21Z</time>
      </trkpt>
      <trkpt lat="42.0377700" lon="-7.0443790">
        <ele>1012.2</ele>
        <time>2019-08-16T16:44:22Z</time>
      </trkpt>
      <trkpt lat="42.0377880" lon="-7.0444640">
        <ele>1011.7</ele>
        <time>2019-08-16T16:44:23Z</time>
      </trkpt>
      <trkpt lat="42.0378100" lon="-7.0445440">
        <ele>1011.4</ele>
        <time>2019-08-16T16:44:24Z</time>
      </trkpt>
      <trkpt lat="42.0378410" lon="-7.0446230">
        <ele>1010.9</ele>
        <time>2019-08-16T16:44:25Z</time>
      </trkpt>
      <trkpt lat="42.0378810" lon="-7.0447120">
        <ele>1010.5</ele>
        <time>2019-08-16T16:44:26Z</time>
      </trkpt>
      <trkpt lat="42.0379230" lon="-7.0447980">
        <ele>1010.0</ele>
        <time>2019-08-16T16:44:27Z</time>
      </trkpt>
      <trkpt lat="42.0379650" lon="-7.0448840">
        <ele>1009.5</ele>
        <time>2019-08-16T16:44:28Z</time>
      </trkpt>
      <trkpt lat="42.0380090" lon="-7.0449710">
        <ele>1009.1</ele>
        <time>2019-08-16T16:44:29Z</time>
      </trkpt>
      <trkpt lat="42.0380540" lon="-7.0450600">
        <ele>1008.6</ele>
        <time>2019-08-16T16:44:30Z</time>
      </trkpt>
      <trkpt lat="42.0380990" lon="-7.0451480">
        <ele>1008.0</ele>
        <time>2019-08-16T16:44:31Z</time>
      </trkpt>
      <trkpt lat="42.0381440" lon="-7.0452350">
        <ele>1007.5</ele>
        <time>2019-08-16T16:44:32Z</time>
      </trkpt>
      <trkpt lat="42.0381870" lon="-7.0453230">
        <ele>1007.9</ele>
        <time>2019-08-16T16:44:33Z</time>
      </trkpt>
      <trkpt lat="42.0382240" lon="-7.0454110">
        <ele>1008.1</ele>
        <time>2019-08-16T16:44:34Z</time>
      </trkpt>
      <trkpt lat="42.0382580" lon="-7.0455030">
        <ele>1008.3</ele>
        <time>2019-08-16T16:44:35Z</time>
      </trkpt>
      <trkpt lat="42.0382890" lon="-7.0455970">
        <ele>1008.5</ele>
        <time>2019-08-16T16:44:36Z</time>
      </trkpt>
      <trkpt lat="42.0383160" lon="-7.0456960">
        <ele>1008.1</ele>
        <time>2019-08-16T16:44:37Z</time>
      </trkpt>
      <trkpt lat="42.0383380" lon="-7.0458030">
        <ele>1007.5</ele>
        <time>2019-08-16T16:44:38Z</time>
      </trkpt>
      <trkpt lat="42.0383550" lon="-7.0459130">
        <ele>1006.9</ele>
        <time>2019-08-16T16:44:39Z</time>
      </trkpt>
      <trkpt lat="42.0383670" lon="-7.0460300">
        <ele>1006.2</ele>
        <time>2019-08-16T16:44:40Z</time>
      </trkpt>
      <trkpt lat="42.0383740" lon="-7.0461500">
        <ele>1005.7</ele>
        <time>2019-08-16T16:44:41Z</time>
      </trkpt>
      <trkpt lat="42.0383740" lon="-7.0462710">
        <ele>1005.2</ele>
        <time>2019-08-16T16:44:42Z</time>
      </trkpt>
      <trkpt lat="42.0383660" lon="-7.0463930">
        <ele>1004.8</ele>
        <time>2019-08-16T16:44:43Z</time>
      </trkpt>
      <trkpt lat="42.0383510" lon="-7.0465130">
        <ele>1004.5</ele>
        <time>2019-08-16T16:44:44Z</time>
      </trkpt>
      <trkpt lat="42.0383300" lon="-7.0466320">
        <ele>1004.3</ele>
        <time>2019-08-16T16:44:45Z</time>
      </trkpt>
      <trkpt lat="42.0383020" lon="-7.0467460">
        <ele>1004.2</ele>
        <time>2019-08-16T16:44:46Z</time>
      </trkpt>
      <trkpt lat="42.0382670" lon="-7.0468530">
        <ele>1004.2</ele>
        <time>2019-08-16T16:44:47Z</time>
      </trkpt>
      <trkpt lat="42.0382300" lon="-7.0469550">
        <ele>1004.2</ele>
        <time>2019-08-16T16:44:48Z</time>
      </trkpt>
      <trkpt lat="42.0381930" lon="-7.0470510">
        <ele>1004.3</ele>
        <time>2019-08-16T16:44:49Z</time>
      </trkpt>
      <trkpt lat="42.0381550" lon="-7.0471410">
        <ele>1004.4</ele>
        <time>2019-08-16T16:44:50Z</time>
      </trkpt>
      <trkpt lat="42.0381170" lon="-7.0472230">
        <ele>1004.5</ele>
        <time>2019-08-16T16:44:51Z</time>
      </trkpt>
      <trkpt lat="42.0380790" lon="-7.0473030">
        <ele>1004.7</ele>
        <time>2019-08-16T16:44:52Z</time>
      </trkpt>
      <trkpt lat="42.0380420" lon="-7.0473790">
        <ele>1004.9</ele>
        <time>2019-08-16T16:44:53Z</time>
      </trkpt>
      <trkpt lat="42.0380040" lon="-7.0474540">
        <ele>1005.1</ele>
        <time>2019-08-16T16:44:54Z</time>
      </trkpt>
      <trkpt lat="42.0379670" lon="-7.0475270">
        <ele>1005.3</ele>
        <time>2019-08-16T16:44:55Z</time>
      </trkpt>
      <trkpt lat="42.0379320" lon="-7.0476000">
        <ele>1005.5</ele>
        <time>2019-08-16T16:44:56Z</time>
      </trkpt>
      <trkpt lat="42.0378970" lon="-7.0476720">
        <ele>1005.8</ele>
        <time>2019-08-16T16:44:57Z</time>
      </trkpt>
      <trkpt lat="42.0378640" lon="-7.0477450">
        <ele>1006.0</ele>
        <time>2019-08-16T16:44:58Z</time>
      </trkpt>
      <trkpt lat="42.0378340" lon="-7.0478190">
        <ele>1006.2</ele>
        <time>2019-08-16T16:44:59Z</time>
      </trkpt>
      <trkpt lat="42.0378050" lon="-7.0478930">
        <ele>1006.3</ele>
        <time>2019-08-16T16:45:00Z</time>
      </trkpt>
      <trkpt lat="42.0377790" lon="-7.0479670">
        <ele>1006.3</ele>
        <time>2019-08-16T16:45:01Z</time>
      </trkpt>
      <trkpt lat="42.0377560" lon="-7.0480430">
        <ele>1006.2</ele>
        <time>2019-08-16T16:45:02Z</time>
      </trkpt>
      <trkpt lat="42.0377360" lon="-7.0481190">
        <ele>1006.2</ele>
        <time>2019-08-16T16:45:03Z</time>
      </trkpt>
      <trkpt lat="42.0377190" lon="-7.0481930">
        <ele>1006.1</ele>
        <time>2019-08-16T16:45:04Z</time>
      </trkpt>
      <trkpt lat="42.0377020" lon="-7.0482640">
        <ele>1006.0</ele>
        <time>2019-08-16T16:45:05Z</time>
      </trkpt>
      <trkpt lat="42.0376870" lon="-7.0483350">
        <ele>1006.0</ele>
        <time>2019-08-16T16:45:06Z</time>
      </trkpt>
      <trkpt lat="42.0376740" lon="-7.0484040">
        <ele>1005.9</ele>
        <time>2019-08-16T16:45:07Z</time>
      </trkpt>
      <trkpt lat="42.0376590" lon="-7.0484730">
        <ele>1006.0</ele>
        <time>2019-08-16T16:45:08Z</time>
      </trkpt>
      <trkpt lat="42.0376460" lon="-7.0485410">
        <ele>1006.2</ele>
        <time>2019-08-16T16:45:09Z</time>
      </trkpt>
      <trkpt lat="42.0376300" lon="-7.0486070">
        <ele>1006.3</ele>
        <time>2019-08-16T16:45:10Z</time>
      </trkpt>
      <trkpt lat="42.0376140" lon="-7.0486720">
        <ele>1006.5</ele>
        <time>2019-08-16T16:45:11Z</time>
      </trkpt>
      <trkpt lat="42.0375990" lon="-7.0487360">
        <ele>1006.6</ele>
        <time>2019-08-16T16:45:12Z</time>
      </trkpt>
      <trkpt lat="42.0375850" lon="-7.0488010">
        <ele>1006.8</ele>
        <time>2019-08-16T16:45:13Z</time>
      </trkpt>
      <trkpt lat="42.0375720" lon="-7.0488650">
        <ele>1007.0</ele>
        <time>2019-08-16T16:45:14Z</time>
      </trkpt>
      <trkpt lat="42.0375610" lon="-7.0489260">
        <ele>1007.2</ele>
        <time>2019-08-16T16:45:15Z</time>
      </trkpt>
      <trkpt lat="42.0375500" lon="-7.0489860">
        <ele>1007.4</ele>
        <time>2019-08-16T16:45:16Z</time>
      </trkpt>
      <trkpt lat="42.0375390" lon="-7.0490460">
        <ele>1007.6</ele>
        <time>2019-08-16T16:45:17Z</time>
      </trkpt>
      <trkpt lat="42.0375260" lon="-7.0491040">
        <ele>1007.8</ele>
        <time>2019-08-16T16:45:18Z</time>
      </trkpt>
      <trkpt lat="42.0375140" lon="-7.0491590">
        <ele>1008.0</ele>
        <time>2019-08-16T16:45:19Z</time>
      </trkpt>
      <trkpt lat="42.0375020" lon="-7.0492130">
        <ele>1008.1</ele>
        <time>2019-08-16T16:45:20Z</time>
      </trkpt>
      <trkpt lat="42.0374890" lon="-7.0492630">
        <ele>1008.2</ele>
        <time>2019-08-16T16:45:21Z</time>
      </trkpt>
      <trkpt lat="42.0374780" lon="-7.0493120">
        <ele>1008.3</ele>
        <time>2019-08-16T16:45:22Z</time>
      </trkpt>
      <trkpt lat="42.0374650" lon="-7.0493630">
        <ele>1008.4</ele>
        <time>2019-08-16T16:45:23Z</time>
      </trkpt>
      <trkpt lat="42.0374550" lon="-7.0494140">
        <ele>1008.4</ele>
        <time>2019-08-16T16:45:24Z</time>
      </trkpt>
      <trkpt lat="42.0374450" lon="-7.0494650">
        <ele>1008.5</ele>
        <time>2019-08-16T16:45:25Z</time>
      </trkpt>
      <trkpt lat="42.0374360" lon="-7.0495140">
        <ele>1008.6</ele>
        <time>2019-08-16T16:45:26Z</time>
      </trkpt>
      <trkpt lat="42.0374260" lon="-7.0495640">
        <ele>1008.6</ele>
        <time>2019-08-16T16:45:27Z</time>
      </trkpt>
      <trkpt lat="42.0374170" lon="-7.0496120">
        <ele>1008.7</ele>
        <time>2019-08-16T16:45:28Z</time>
      </trkpt>
      <trkpt lat="42.0374060" lon="-7.0496590">
        <ele>1008.8</ele>
        <time>2019-08-16T16:45:29Z</time>
      </trkpt>
      <trkpt lat="42.0373940" lon="-7.0497060">
        <ele>1008.9</ele>
        <time>2019-08-16T16:45:30Z</time>
      </trkpt>
      <trkpt lat="42.0373840" lon="-7.0497530">
        <ele>1009.0</ele>
        <time>2019-08-16T16:45:31Z</time>
      </trkpt>
      <trkpt lat="42.0373740" lon="-7.0497990">
        <ele>1009.0</ele>
        <time>2019-08-16T16:45:32Z</time>
      </trkpt>
      <trkpt lat="42.0373640" lon="-7.0498440">
        <ele>1009.2</ele>
        <time>2019-08-16T16:45:33Z</time>
      </trkpt>
      <trkpt lat="42.0373540" lon="-7.0498880">
        <ele>1009.3</ele>
        <time>2019-08-16T16:45:34Z</time>
      </trkpt>
      <trkpt lat="42.0373440" lon="-7.0499290">
        <ele>1009.3</ele>
        <time>2019-08-16T16:45:35Z</time>
      </trkpt>
      <trkpt lat="42.0373330" lon="-7.0499680">
        <ele>1009.4</ele>
        <time>2019-08-16T16:45:36Z</time>
      </trkpt>
      <trkpt lat="42.0373230" lon="-7.0500050">
        <ele>1009.5</ele>
        <time>2019-08-16T16:45:37Z</time>
      </trkpt>
      <trkpt lat="42.0373150" lon="-7.0500420">
        <ele>1009.6</ele>
        <time>2019-08-16T16:45:38Z</time>
      </trkpt>
      <trkpt lat="42.0373090" lon="-7.0500790">
        <ele>1009.7</ele>
        <time>2019-08-16T16:45:39Z</time>
      </trkpt>
      <trkpt lat="42.0373040" lon="-7.0501180">
        <ele>1009.8</ele>
        <time>2019-08-16T16:45:40Z</time>
      </trkpt>
      <trkpt lat="42.0372970" lon="-7.0501540">
        <ele>1010.1</ele>
        <time>2019-08-16T16:45:41Z</time>
      </trkpt>
      <trkpt lat="42.0372890" lon="-7.0501900">
        <ele>1010.4</ele>
        <time>2019-08-16T16:45:42Z</time>
      </trkpt>
      <trkpt lat="42.0372810" lon="-7.0502260">
        <ele>1010.7</ele>
        <time>2019-08-16T16:45:43Z</time>
      </trkpt>
      <trkpt lat="42.0372730" lon="-7.0502600">
        <ele>1011.0</ele>
        <time>2019-08-16T16:45:44Z</time>
      </trkpt>
      <trkpt lat="42.0372520" lon="-7.0503220">
        <ele>1011.6</ele>
        <time>2019-08-16T16:45:46Z</time>
      </trkpt>
      <trkpt lat="42.0372380" lon="-7.0503840">
        <ele>1012.2</ele>
        <time>2019-08-16T16:45:48Z</time>
      </trkpt>
      <trkpt lat="42.0372270" lon="-7.0504490">
        <ele>1012.8</ele>
        <time>2019-08-16T16:45:50Z</time>
      </trkpt>
      <trkpt lat="42.0372150" lon="-7.0505170">
        <ele>1013.3</ele>
        <time>2019-08-16T16:45:52Z</time>
      </trkpt>
      <trkpt lat="42.0372020" lon="-7.0505860">
        <ele>1013.8</ele>
        <time>2019-08-16T16:45:54Z</time>
      </trkpt>
      <trkpt lat="42.0371860" lon="-7.0506510">
        <ele>1014.2</ele>
        <time>2019-08-16T16:45:56Z</time>
      </trkpt>
      <trkpt lat="42.0371730" lon="-7.0507160">
        <ele>1014.5</ele>
        <time>2019-08-16T16:45:58Z</time>
      </trkpt>
      <trkpt lat="42.0371580" lon="-7.0507820">
        <ele>1014.8</ele>
        <time>2019-08-16T16:46:00Z</time>
      </trkpt>
      <trkpt lat="42.0371450" lon="-7.0508490">
        <ele>1015.1</ele>
        <time>2019-08-16T16:46:02Z</time>
      </trkpt>
      <trkpt lat="42.0371300" lon="-7.0509160">
        <ele>1015.4</ele>
        <time>2019-08-16T16:46:04Z</time>
      </trkpt>
      <trkpt lat="42.0371140" lon="-7.0509820">
        <ele>1015.7</ele>
        <time>2019-08-16T16:46:06Z</time>
      </trkpt>
      <trkpt lat="42.0370990" lon="-7.0510460">
        <ele>1016.0</ele>
        <time>2019-08-16T16:46:08Z</time>
      </trkpt>
      <trkpt lat="42.0370860" lon="-7.0511120">
        <ele>1016.3</ele>
        <time>2019-08-16T16:46:10Z</time>
      </trkpt>
      <trkpt lat="42.0370750" lon="-7.0511810">
        <ele>1016.6</ele>
        <time>2019-08-16T16:46:12Z</time>
      </trkpt>
      <trkpt lat="42.0370610" lon="-7.0512460">
        <ele>1017.0</ele>
        <time>2019-08-16T16:46:14Z</time>
      </trkpt>
      <trkpt lat="42.0370470" lon="-7.0513090">
        <ele>1017.3</ele>
        <time>2019-08-16T16:46:16Z</time>
      </trkpt>
      <trkpt lat="42.0370310" lon="-7.0513740">
        <ele>1017.6</ele>
        <time>2019-08-16T16:46:18Z</time>
      </trkpt>
      <trkpt lat="42.0370190" lon="-7.0514420">
        <ele>1017.9</ele>
        <time>2019-08-16T16:46:20Z</time>
      </trkpt>
      <trkpt lat="42.0370060" lon="-7.0515110">
        <ele>1018.2</ele>
        <time>2019-08-16T16:46:22Z</time>
      </trkpt>
      <trkpt lat="42.0369910" lon="-7.0515810">
        <ele>1018.5</ele>
        <time>2019-08-16T16:46:24Z</time>
      </trkpt>
      <trkpt lat="42.0369830" lon="-7.0516160">
        <ele>1018.6</ele>
        <time>2019-08-16T16:46:25Z</time>
      </trkpt>
      <trkpt lat="42.0369760" lon="-7.0516520">
        <ele>1018.8</ele>
        <time>2019-08-16T16:46:26Z</time>
      </trkpt>
      <trkpt lat="42.0369700" lon="-7.0516890">
        <ele>1018.9</ele>
        <time>2019-08-16T16:46:27Z</time>
      </trkpt>
      <trkpt lat="42.0369630" lon="-7.0517260">
        <ele>1019.0</ele>
        <time>2019-08-16T16:46:28Z</time>
      </trkpt>
      <trkpt lat="42.0369550" lon="-7.0517630">
        <ele>1019.1</ele>
        <time>2019-08-16T16:46:29Z</time>
      </trkpt>
      <trkpt lat="42.0369480" lon="-7.0517990">
        <ele>1019.2</ele>
        <time>2019-08-16T16:46:30Z</time>
      </trkpt>
      <trkpt lat="42.0369410" lon="-7.0518360">
        <ele>1019.3</ele>
        <time>2019-08-16T16:46:31Z</time>
      </trkpt>
      <trkpt lat="42.0369340" lon="-7.0518720">
        <ele>1019.4</ele>
        <time>2019-08-16T16:46:32Z</time>
      </trkpt>
      <trkpt lat="42.0369270" lon="-7.0519080">
        <ele>1019.5</ele>
        <time>2019-08-16T16:46:33Z</time>
      </trkpt>
      <trkpt lat="42.0369190" lon="-7.0519430">
        <ele>1019.6</ele>
        <time>2019-08-16T16:46:34Z</time>
      </trkpt>
      <trkpt lat="42.0369120" lon="-7.0519790">
        <ele>1019.7</ele>
        <time>2019-08-16T16:46:35Z</time>
      </trkpt>
      <trkpt lat="42.0369040" lon="-7.0520140">
        <ele>1019.8</ele>
        <time>2019-08-16T16:46:36Z</time>
      </trkpt>
      <trkpt lat="42.0368950" lon="-7.0520490">
        <ele>1019.9</ele>
        <time>2019-08-16T16:46:37Z</time>
      </trkpt>
      <trkpt lat="42.0368860" lon="-7.0520830">
        <ele>1020.1</ele>
        <time>2019-08-16T16:46:38Z</time>
      </trkpt>
      <trkpt lat="42.0368700" lon="-7.0521520">
        <ele>1020.3</ele>
        <time>2019-08-16T16:46:40Z</time>
      </trkpt>
      <trkpt lat="42.0368620" lon="-7.0521880">
        <ele>1020.4</ele>
        <time>2019-08-16T16:46:41Z</time>
      </trkpt>
      <trkpt lat="42.0368550" lon="-7.0522240">
        <ele>1020.6</ele>
        <time>2019-08-16T16:46:42Z</time>
      </trkpt>
      <trkpt lat="42.0368490" lon="-7.0522630">
        <ele>1020.7</ele>
        <time>2019-08-16T16:46:43Z</time>
      </trkpt>
      <trkpt lat="42.0368440" lon="-7.0523020">
        <ele>1020.9</ele>
        <time>2019-08-16T16:46:44Z</time>
      </trkpt>
      <trkpt lat="42.0368370" lon="-7.0523410">
        <ele>1021.0</ele>
        <time>2019-08-16T16:46:45Z</time>
      </trkpt>
      <trkpt lat="42.0368290" lon="-7.0523800">
        <ele>1021.2</ele>
        <time>2019-08-16T16:46:46Z</time>
      </trkpt>
      <trkpt lat="42.0368200" lon="-7.0524190">
        <ele>1021.3</ele>
        <time>2019-08-16T16:46:47Z</time>
      </trkpt>
      <trkpt lat="42.0368130" lon="-7.0524590">
        <ele>1021.5</ele>
        <time>2019-08-16T16:46:48Z</time>
      </trkpt>
      <trkpt lat="42.0368080" lon="-7.0524990">
        <ele>1021.6</ele>
        <time>2019-08-16T16:46:49Z</time>
      </trkpt>
      <trkpt lat="42.0368020" lon="-7.0525390">
        <ele>1021.8</ele>
        <time>2019-08-16T16:46:50Z</time>
      </trkpt>
      <trkpt lat="42.0367950" lon="-7.0525790">
        <ele>1021.9</ele>
        <time>2019-08-16T16:46:51Z</time>
      </trkpt>
      <trkpt lat="42.0367900" lon="-7.0526190">
        <ele>1022.1</ele>
        <time>2019-08-16T16:46:52Z</time>
      </trkpt>
      <trkpt lat="42.0367860" lon="-7.0526590">
        <ele>1022.2</ele>
        <time>2019-08-16T16:46:53Z</time>
      </trkpt>
      <trkpt lat="42.0367830" lon="-7.0526990">
        <ele>1022.3</ele>
        <time>2019-08-16T16:46:54Z</time>
      </trkpt>
      <trkpt lat="42.0367790" lon="-7.0527380">
        <ele>1022.4</ele>
        <time>2019-08-16T16:46:55Z</time>
      </trkpt>
      <trkpt lat="42.0367740" lon="-7.0527750">
        <ele>1022.5</ele>
        <time>2019-08-16T16:46:56Z</time>
      </trkpt>
      <trkpt lat="42.0367710" lon="-7.0528130">
        <ele>1022.6</ele>
        <time>2019-08-16T16:46:57Z</time>
      </trkpt>
      <trkpt lat="42.0367690" lon="-7.0528500">
        <ele>1022.7</ele>
        <time>2019-08-16T16:46:58Z</time>
      </trkpt>
      <trkpt lat="42.0367670" lon="-7.0528870">
        <ele>1022.8</ele>
        <time>2019-08-16T16:46:59Z</time>
      </trkpt>
      <trkpt lat="42.0367640" lon="-7.0529230">
        <ele>1022.8</ele>
        <time>2019-08-16T16:47:00Z</time>
      </trkpt>
      <trkpt lat="42.0367540" lon="-7.0529920">
        <ele>1022.9</ele>
        <time>2019-08-16T16:47:02Z</time>
      </trkpt>
      <trkpt lat="42.0367240" lon="-7.0530460">
        <ele>1023.0</ele>
        <time>2019-08-16T16:47:04Z</time>
      </trkpt>
      <trkpt lat="42.0366910" lon="-7.0530770">
        <ele>1023.0</ele>
        <time>2019-08-16T16:47:06Z</time>
      </trkpt>
      <trkpt lat="42.0366680" lon="-7.0531130">
        <ele>1023.0</ele>
        <time>2019-08-16T16:47:08Z</time>
      </trkpt>
      <trkpt lat="42.0366570" lon="-7.0531710">
        <ele>1022.8</ele>
        <time>2019-08-16T16:47:10Z</time>
      </trkpt>
      <trkpt lat="42.0366380" lon="-7.0532700">
        <ele>1022.4</ele>
        <time>2019-08-16T16:47:12Z</time>
      </trkpt>
      <trkpt lat="42.0366160" lon="-7.0533320">
        <ele>1022.1</ele>
        <time>2019-08-16T16:47:13Z</time>
      </trkpt>
      <trkpt lat="42.0365840" lon="-7.0533950">
        <ele>1021.6</ele>
        <time>2019-08-16T16:47:14Z</time>
      </trkpt>
      <trkpt lat="42.0365450" lon="-7.0534630">
        <ele>1021.0</ele>
        <time>2019-08-16T16:47:15Z</time>
      </trkpt>
      <trkpt lat="42.0365050" lon="-7.0535360">
        <ele>1020.5</ele>
        <time>2019-08-16T16:47:16Z</time>
      </trkpt>
      <trkpt lat="42.0364650" lon="-7.0536110">
        <ele>1020.0</ele>
        <time>2019-08-16T16:47:17Z</time>
      </trkpt>
      <trkpt lat="42.0364290" lon="-7.0536870">
        <ele>1019.4</ele>
        <time>2019-08-16T16:47:18Z</time>
      </trkpt>
      <trkpt lat="42.0363990" lon="-7.0537640">
        <ele>1018.7</ele>
        <time>2019-08-16T16:47:19Z</time>
      </trkpt>
      <trkpt lat="42.0363780" lon="-7.0538470">
        <ele>1018.2</ele>
        <time>2019-08-16T16:47:20Z</time>
      </trkpt>
      <trkpt lat="42.0363640" lon="-7.0539320">
        <ele>1017.9</ele>
        <time>2019-08-16T16:47:21Z</time>
      </trkpt>
      <trkpt lat="42.0363530" lon="-7.0540190">
        <ele>1017.2</ele>
        <time>2019-08-16T16:47:22Z</time>
      </trkpt>
      <trkpt lat="42.0363430" lon="-7.0541070">
        <ele>1016.4</ele>
        <time>2019-08-16T16:47:23Z</time>
      </trkpt>
      <trkpt lat="42.0363310" lon="-7.0541950">
        <ele>1015.6</ele>
        <time>2019-08-16T16:47:24Z</time>
      </trkpt>
      <trkpt lat="42.0363180" lon="-7.0542820">
        <ele>1014.9</ele>
        <time>2019-08-16T16:47:25Z</time>
      </trkpt>
      <trkpt lat="42.0363070" lon="-7.0543730">
        <ele>1014.1</ele>
        <time>2019-08-16T16:47:26Z</time>
      </trkpt>
      <trkpt lat="42.0362980" lon="-7.0544700">
        <ele>1013.4</ele>
        <time>2019-08-16T16:47:27Z</time>
      </trkpt>
      <trkpt lat="42.0362900" lon="-7.0545730">
        <ele>1013.1</ele>
        <time>2019-08-16T16:47:28Z</time>
      </trkpt>
      <trkpt lat="42.0362790" lon="-7.0546770">
        <ele>1012.8</ele>
        <time>2019-08-16T16:47:29Z</time>
      </trkpt>
      <trkpt lat="42.0362610" lon="-7.0547800">
        <ele>1012.6</ele>
        <time>2019-08-16T16:47:30Z</time>
      </trkpt>
      <trkpt lat="42.0362310" lon="-7.0548750">
        <ele>1011.9</ele>
        <time>2019-08-16T16:47:31Z</time>
      </trkpt>
      <trkpt lat="42.0361910" lon="-7.0549610">
        <ele>1011.4</ele>
        <time>2019-08-16T16:47:32Z</time>
      </trkpt>
      <trkpt lat="42.0361430" lon="-7.0550350">
        <ele>1010.8</ele>
        <time>2019-08-16T16:47:33Z</time>
      </trkpt>
      <trkpt lat="42.0360910" lon="-7.0550870">
        <ele>1009.9</ele>
        <time>2019-08-16T16:47:34Z</time>
      </trkpt>
      <trkpt lat="42.0360400" lon="-7.0551150">
        <ele>1009.3</ele>
        <time>2019-08-16T16:47:35Z</time>
      </trkpt>
      <trkpt lat="42.0359890" lon="-7.0551230">
        <ele>1008.5</ele>
        <time>2019-08-16T16:47:36Z</time>
      </trkpt>
      <trkpt lat="42.0359400" lon="-7.0551160">
        <ele>1008.0</ele>
        <time>2019-08-16T16:47:37Z</time>
      </trkpt>
      <trkpt lat="42.0358920" lon="-7.0551020">
        <ele>1007.5</ele>
        <time>2019-08-16T16:47:38Z</time>
      </trkpt>
      <trkpt lat="42.0358450" lon="-7.0550870">
        <ele>1007.1</ele>
        <time>2019-08-16T16:47:39Z</time>
      </trkpt>
      <trkpt lat="42.0358050" lon="-7.0550690">
        <ele>1006.4</ele>
        <time>2019-08-16T16:47:40Z</time>
      </trkpt>
      <trkpt lat="42.0357740" lon="-7.0550540">
        <ele>1006.0</ele>
        <time>2019-08-16T16:47:41Z</time>
      </trkpt>
      <trkpt lat="42.0357500" lon="-7.0550440">
        <ele>1005.7</ele>
        <time>2019-08-16T16:47:42Z</time>
      </trkpt>
      <trkpt lat="42.0357050" lon="-7.0550280">
        <ele>1005.1</ele>
        <time>2019-08-16T16:47:44Z</time>
      </trkpt>
      <trkpt lat="42.0356630" lon="-7.0550160">
        <ele>1004.7</ele>
        <time>2019-08-16T16:47:46Z</time>
      </trkpt>
      <trkpt lat="42.0356190" lon="-7.0550070">
        <ele>1004.2</ele>
        <time>2019-08-16T16:47:48Z</time>
      </trkpt>
      <trkpt lat="42.0355670" lon="-7.0549920">
        <ele>1003.6</ele>
        <time>2019-08-16T16:47:50Z</time>
      </trkpt>
      <trkpt lat="42.0355370" lon="-7.0549870">
        <ele>1003.1</ele>
        <time>2019-08-16T16:47:51Z</time>
      </trkpt>
      <trkpt lat="42.0355030" lon="-7.0549840">
        <ele>1002.6</ele>
        <time>2019-08-16T16:47:52Z</time>
      </trkpt>
      <trkpt lat="42.0354660" lon="-7.0549840">
        <ele>1002.1</ele>
        <time>2019-08-16T16:47:53Z</time>
      </trkpt>
      <trkpt lat="42.0354250" lon="-7.0549910">
        <ele>1001.6</ele>
        <time>2019-08-16T16:47:54Z</time>
      </trkpt>
      <trkpt lat="42.0353800" lon="-7.0550060">
        <ele>1001.1</ele>
        <time>2019-08-16T16:47:55Z</time>
      </trkpt>
      <trkpt lat="42.0353320" lon="-7.0550310">
        <ele>1000.7</ele>
        <time>2019-08-16T16:47:56Z</time>
      </trkpt>
      <trkpt lat="42.0352840" lon="-7.0550640">
        <ele>999.8</ele>
        <time>2019-08-16T16:47:57Z</time>
      </trkpt>
      <trkpt lat="42.0352390" lon="-7.0551030">
        <ele>998.9</ele>
        <time>2019-08-16T16:47:58Z</time>
      </trkpt>
      <trkpt lat="42.0351990" lon="-7.0551490">
        <ele>998.1</ele>
        <time>2019-08-16T16:47:59Z</time>
      </trkpt>
      <trkpt lat="42.0351610" lon="-7.0551970">
        <ele>997.3</ele>
        <time>2019-08-16T16:48:00Z</time>
      </trkpt>
      <trkpt lat="42.0351240" lon="-7.0552490">
        <ele>996.3</ele>
        <time>2019-08-16T16:48:01Z</time>
      </trkpt>
      <trkpt lat="42.0350900" lon="-7.0553030">
        <ele>995.3</ele>
        <time>2019-08-16T16:48:02Z</time>
      </trkpt>
      <trkpt lat="42.0350590" lon="-7.0553570">
        <ele>994.1</ele>
        <time>2019-08-16T16:48:03Z</time>
      </trkpt>
      <trkpt lat="42.0350370" lon="-7.0554120">
        <ele>993.4</ele>
        <time>2019-08-16T16:48:04Z</time>
      </trkpt>
      <trkpt lat="42.0350220" lon="-7.0554660">
        <ele>992.7</ele>
        <time>2019-08-16T16:48:05Z</time>
      </trkpt>
      <trkpt lat="42.0350150" lon="-7.0555220">
        <ele>992.2</ele>
        <time>2019-08-16T16:48:06Z</time>
      </trkpt>
      <trkpt lat="42.0350150" lon="-7.0555740">
        <ele>991.7</ele>
        <time>2019-08-16T16:48:07Z</time>
      </trkpt>
      <trkpt lat="42.0350190" lon="-7.0556230">
        <ele>991.5</ele>
        <time>2019-08-16T16:48:08Z</time>
      </trkpt>
      <trkpt lat="42.0350210" lon="-7.0556720">
        <ele>991.3</ele>
        <time>2019-08-16T16:48:09Z</time>
      </trkpt>
      <trkpt lat="42.0350210" lon="-7.0557200">
        <ele>991.2</ele>
        <time>2019-08-16T16:48:10Z</time>
      </trkpt>
      <trkpt lat="42.0350230" lon="-7.0557700">
        <ele>991.2</ele>
        <time>2019-08-16T16:48:11Z</time>
      </trkpt>
      <trkpt lat="42.0350260" lon="-7.0558200">
        <ele>991.1</ele>
        <time>2019-08-16T16:48:12Z</time>
      </trkpt>
      <trkpt lat="42.0350320" lon="-7.0558650">
        <ele>990.8</ele>
        <time>2019-08-16T16:48:13Z</time>
      </trkpt>
      <trkpt lat="42.0350420" lon="-7.0559020">
        <ele>990.6</ele>
        <time>2019-08-16T16:48:14Z</time>
      </trkpt>
      <trkpt lat="42.0350570" lon="-7.0559290">
        <ele>990.4</ele>
        <time>2019-08-16T16:48:15Z</time>
      </trkpt>
      <trkpt lat="42.0350900" lon="-7.0559620">
        <ele>990.8</ele>
        <time>2019-08-16T16:48:17Z</time>
      </trkpt>
      <trkpt lat="42.0351270" lon="-7.0559750">
        <ele>991.2</ele>
        <time>2019-08-16T16:48:19Z</time>
      </trkpt>
      <trkpt lat="42.0351630" lon="-7.0559940">
        <ele>991.5</ele>
        <time>2019-08-16T16:48:21Z</time>
      </trkpt>
      <trkpt lat="42.0351960" lon="-7.0560230">
        <ele>991.9</ele>
        <time>2019-08-16T16:48:23Z</time>
      </trkpt>
      <trkpt lat="42.0352260" lon="-7.0560560">
        <ele>992.3</ele>
        <time>2019-08-16T16:48:25Z</time>
      </trkpt>
      <trkpt lat="42.0352510" lon="-7.0560900">
        <ele>992.6</ele>
        <time>2019-08-16T16:48:27Z</time>
      </trkpt>
      <trkpt lat="42.0352710" lon="-7.0561270">
        <ele>993.0</ele>
        <time>2019-08-16T16:48:29Z</time>
      </trkpt>
      <trkpt lat="42.0352880" lon="-7.0561640">
        <ele>993.3</ele>
        <time>2019-08-16T16:48:31Z</time>
      </trkpt>
      <trkpt lat="42.0353020" lon="-7.0562050">
        <ele>993.6</ele>
        <time>2019-08-16T16:48:33Z</time>
      </trkpt>
      <trkpt lat="42.0353150" lon="-7.0562500">
        <ele>994.0</ele>
        <time>2019-08-16T16:48:35Z</time>
      </trkpt>
      <trkpt lat="42.0353260" lon="-7.0562980">
        <ele>994.4</ele>
        <time>2019-08-16T16:48:37Z</time>
      </trkpt>
      <trkpt lat="42.0353380" lon="-7.0563480">
        <ele>994.7</ele>
        <time>2019-08-16T16:48:39Z</time>
      </trkpt>
      <trkpt lat="42.0353560" lon="-7.0563950">
        <ele>994.9</ele>
        <time>2019-08-16T16:48:41Z</time>
      </trkpt>
      <trkpt lat="42.0353730" lon="-7.0564430">
        <ele>995.2</ele>
        <time>2019-08-16T16:48:43Z</time>
      </trkpt>
      <trkpt lat="42.0353870" lon="-7.0564900">
        <ele>995.6</ele>
        <time>2019-08-16T16:48:45Z</time>
      </trkpt>
      <trkpt lat="42.0354030" lon="-7.0565370">
        <ele>995.9</ele>
        <time>2019-08-16T16:48:47Z</time>
      </trkpt>
      <trkpt lat="42.0354190" lon="-7.0565840">
        <ele>996.3</ele>
        <time>2019-08-16T16:48:49Z</time>
      </trkpt>
      <trkpt lat="42.0354360" lon="-7.0566320">
        <ele>996.7</ele>
        <time>2019-08-16T16:48:51Z</time>
      </trkpt>
      <trkpt lat="42.0354570" lon="-7.0566790">
        <ele>997.1</ele>
        <time>2019-08-16T16:48:53Z</time>
      </trkpt>
      <trkpt lat="42.0354780" lon="-7.0567260">
        <ele>997.5</ele>
        <time>2019-08-16T16:48:55Z</time>
      </trkpt>
      <trkpt lat="42.0354980" lon="-7.0567750">
        <ele>997.8</ele>
        <time>2019-08-16T16:48:57Z</time>
      </trkpt>
      <trkpt lat="42.0355200" lon="-7.0568250">
        <ele>998.2</ele>
        <time>2019-08-16T16:48:59Z</time>
      </trkpt>
      <trkpt lat="42.0355440" lon="-7.0568720">
        <ele>998.6</ele>
        <time>2019-08-16T16:49:01Z</time>
      </trkpt>
      <trkpt lat="42.0355690" lon="-7.0569140">
        <ele>999.0</ele>
        <time>2019-08-16T16:49:03Z</time>
      </trkpt>
      <trkpt lat="42.0355940" lon="-7.0569590">
        <ele>999.3</ele>
        <time>2019-08-16T16:49:05Z</time>
      </trkpt>
      <trkpt lat="42.0356170" lon="-7.0570050">
        <ele>999.7</ele>
        <time>2019-08-16T16:49:07Z</time>
      </trkpt>
      <trkpt lat="42.0356410" lon="-7.0570490">
        <ele>1000.1</ele>
        <time>2019-08-16T16:49:09Z</time>
      </trkpt>
      <trkpt lat="42.0356650" lon="-7.0570900">
        <ele>1000.3</ele>
        <time>2019-08-16T16:49:11Z</time>
      </trkpt>
      <trkpt lat="42.0356920" lon="-7.0571250">
        <ele>1000.6</ele>
        <time>2019-08-16T16:49:13Z</time>
      </trkpt>
      <trkpt lat="42.0357240" lon="-7.0571620">
        <ele>1000.9</ele>
        <time>2019-08-16T16:49:15Z</time>
      </trkpt>
      <trkpt lat="42.0357610" lon="-7.0571920">
        <ele>1001.2</ele>
        <time>2019-08-16T16:49:17Z</time>
      </trkpt>
      <trkpt lat="42.0358000" lon="-7.0572060">
        <ele>1001.6</ele>
        <time>2019-08-16T16:49:19Z</time>
      </trkpt>
      <trkpt lat="42.0358350" lon="-7.0572030">
        <ele>1002.0</ele>
        <time>2019-08-16T16:49:21Z</time>
      </trkpt>
      <trkpt lat="42.0358680" lon="-7.0572000">
        <ele>1002.2</ele>
        <time>2019-08-16T16:49:23Z</time>
      </trkpt>
      <trkpt lat="42.0359010" lon="-7.0571920">
        <ele>1002.5</ele>
        <time>2019-08-16T16:49:25Z</time>
      </trkpt>
      <trkpt lat="42.0359310" lon="-7.0571730">
        <ele>1002.7</ele>
        <time>2019-08-16T16:49:27Z</time>
      </trkpt>
      <trkpt lat="42.0359550" lon="-7.0571480">
        <ele>1002.9</ele>
        <time>2019-08-16T16:49:29Z</time>
      </trkpt>
      <trkpt lat="42.0359770" lon="-7.0571190">
        <ele>1003.1</ele>
        <time>2019-08-16T16:49:31Z</time>
      </trkpt>
      <trkpt lat="42.0360020" lon="-7.0570860">
        <ele>1003.4</ele>
        <time>2019-08-16T16:49:33Z</time>
      </trkpt>
      <trkpt lat="42.0360300" lon="-7.0570530">
        <ele>1003.7</ele>
        <time>2019-08-16T16:49:35Z</time>
      </trkpt>
      <trkpt lat="42.0360580" lon="-7.0570190">
        <ele>1004.0</ele>
        <time>2019-08-16T16:49:37Z</time>
      </trkpt>
      <trkpt lat="42.0360870" lon="-7.0569900">
        <ele>1004.3</ele>
        <time>2019-08-16T16:49:39Z</time>
      </trkpt>
      <trkpt lat="42.0361170" lon="-7.0569600">
        <ele>1004.6</ele>
        <time>2019-08-16T16:49:41Z</time>
      </trkpt>
      <trkpt lat="42.0361480" lon="-7.0569260">
        <ele>1005.0</ele>
        <time>2019-08-16T16:49:43Z</time>
      </trkpt>
      <trkpt lat="42.0361790" lon="-7.0568930">
        <ele>1005.4</ele>
        <time>2019-08-16T16:49:45Z</time>
      </trkpt>
      <trkpt lat="42.0362080" lon="-7.0568640">
        <ele>1005.8</ele>
        <time>2019-08-16T16:49:47Z</time>
      </trkpt>
      <trkpt lat="42.0362360" lon="-7.0568320">
        <ele>1006.2</ele>
        <time>2019-08-16T16:49:49Z</time>
      </trkpt>
      <trkpt lat="42.0362660" lon="-7.0567990">
        <ele>1006.7</ele>
        <time>2019-08-16T16:49:51Z</time>
      </trkpt>
      <trkpt lat="42.0362980" lon="-7.0567650">
        <ele>1007.2</ele>
        <time>2019-08-16T16:49:53Z</time>
      </trkpt>
      <trkpt lat="42.0363290" lon="-7.0567290">
        <ele>1007.7</ele>
        <time>2019-08-16T16:49:55Z</time>
      </trkpt>
      <trkpt lat="42.0363610" lon="-7.0566940">
        <ele>1008.3</ele>
        <time>2019-08-16T16:49:57Z</time>
      </trkpt>
      <trkpt lat="42.0363940" lon="-7.0566610">
        <ele>1008.9</ele>
        <time>2019-08-16T16:49:59Z</time>
      </trkpt>
      <trkpt lat="42.0364290" lon="-7.0566310">
        <ele>1009.5</ele>
        <time>2019-08-16T16:50:01Z</time>
      </trkpt>
      <trkpt lat="42.0364620" lon="-7.0565990">
        <ele>1010.2</ele>
        <time>2019-08-16T16:50:03Z</time>
      </trkpt>
      <trkpt lat="42.0364970" lon="-7.0565670">
        <ele>1010.7</ele>
        <time>2019-08-16T16:50:05Z</time>
      </trkpt>
      <trkpt lat="42.0365320" lon="-7.0565380">
        <ele>1011.1</ele>
        <time>2019-08-16T16:50:07Z</time>
      </trkpt>
      <trkpt lat="42.0365690" lon="-7.0565100">
        <ele>1011.6</ele>
        <time>2019-08-16T16:50:09Z</time>
      </trkpt>
      <trkpt lat="42.0366070" lon="-7.0564880">
        <ele>1012.0</ele>
        <time>2019-08-16T16:50:11Z</time>
      </trkpt>
      <trkpt lat="42.0366470" lon="-7.0564690">
        <ele>1012.6</ele>
        <time>2019-08-16T16:50:13Z</time>
      </trkpt>
      <trkpt lat="42.0366900" lon="-7.0564490">
        <ele>1013.0</ele>
        <time>2019-08-16T16:50:15Z</time>
      </trkpt>
      <trkpt lat="42.0367340" lon="-7.0564380">
        <ele>1013.3</ele>
        <time>2019-08-16T16:50:17Z</time>
      </trkpt>
      <trkpt lat="42.0367810" lon="-7.0564340">
        <ele>1013.6</ele>
        <time>2019-08-16T16:50:19Z</time>
      </trkpt>
      <trkpt lat="42.0368270" lon="-7.0564260">
        <ele>1013.9</ele>
        <time>2019-08-16T16:50:21Z</time>
      </trkpt>
      <trkpt lat="42.0368700" lon="-7.0564190">
        <ele>1014.1</ele>
        <time>2019-08-16T16:50:23Z</time>
      </trkpt>
      <trkpt lat="42.0369140" lon="-7.0564100">
        <ele>1014.3</ele>
        <time>2019-08-16T16:50:25Z</time>
      </trkpt>
      <trkpt lat="42.0369610" lon="-7.0564080">
        <ele>1014.5</ele>
        <time>2019-08-16T16:50:27Z</time>
      </trkpt>
      <trkpt lat="42.0370050" lon="-7.0564080">
        <ele>1014.7</ele>
        <time>2019-08-16T16:50:29Z</time>
      </trkpt>
      <trkpt lat="42.0370490" lon="-7.0564010">
        <ele>1015.0</ele>
        <time>2019-08-16T16:50:31Z</time>
      </trkpt>
      <trkpt lat="42.0370910" lon="-7.0563920">
        <ele>1015.2</ele>
        <time>2019-08-16T16:50:33Z</time>
      </trkpt>
      <trkpt lat="42.0371330" lon="-7.0563930">
        <ele>1015.5</ele>
        <time>2019-08-16T16:50:35Z</time>
      </trkpt>
      <trkpt lat="42.0371770" lon="-7.0563910">
        <ele>1015.7</ele>
        <time>2019-08-16T16:50:37Z</time>
      </trkpt>
      <trkpt lat="42.0372210" lon="-7.0563880">
        <ele>1015.9</ele>
        <time>2019-08-16T16:50:39Z</time>
      </trkpt>
      <trkpt lat="42.0372640" lon="-7.0563840">
        <ele>1016.2</ele>
        <time>2019-08-16T16:50:41Z</time>
      </trkpt>
      <trkpt lat="42.0373060" lon="-7.0563720">
        <ele>1016.4</ele>
        <time>2019-08-16T16:50:43Z</time>
      </trkpt>
      <trkpt lat="42.0373470" lon="-7.0563670">
        <ele>1016.6</ele>
        <time>2019-08-16T16:50:45Z</time>
      </trkpt>
      <trkpt lat="42.0373850" lon="-7.0563670">
        <ele>1016.8</ele>
        <time>2019-08-16T16:50:47Z</time>
      </trkpt>
      <trkpt lat="42.0374220" lon="-7.0563630">
        <ele>1017.0</ele>
        <time>2019-08-16T16:50:49Z</time>
      </trkpt>
      <trkpt lat="42.0374610" lon="-7.0563550">
        <ele>1017.3</ele>
        <time>2019-08-16T16:50:51Z</time>
      </trkpt>
      <trkpt lat="42.0374990" lon="-7.0563450">
        <ele>1017.5</ele>
        <time>2019-08-16T16:50:53Z</time>
      </trkpt>
      <trkpt lat="42.0375350" lon="-7.0563330">
        <ele>1017.7</ele>
        <time>2019-08-16T16:50:55Z</time>
      </trkpt>
      <trkpt lat="42.0375710" lon="-7.0563160">
        <ele>1017.9</ele>
        <time>2019-08-16T16:50:57Z</time>
      </trkpt>
      <trkpt lat="42.0376090" lon="-7.0562990">
        <ele>1018.1</ele>
        <time>2019-08-16T16:50:59Z</time>
      </trkpt>
      <trkpt lat="42.0376470" lon="-7.0562800">
        <ele>1018.2</ele>
        <time>2019-08-16T16:51:01Z</time>
      </trkpt>
      <trkpt lat="42.0376850" lon="-7.0562580">
        <ele>1018.4</ele>
        <time>2019-08-16T16:51:03Z</time>
      </trkpt>
      <trkpt lat="42.0377230" lon="-7.0562330">
        <ele>1018.6</ele>
        <time>2019-08-16T16:51:05Z</time>
      </trkpt>
      <trkpt lat="42.0377580" lon="-7.0562010">
        <ele>1018.8</ele>
        <time>2019-08-16T16:51:07Z</time>
      </trkpt>
      <trkpt lat="42.0377940" lon="-7.0561690">
        <ele>1019.0</ele>
        <time>2019-08-16T16:51:09Z</time>
      </trkpt>
      <trkpt lat="42.0378310" lon="-7.0561340">
        <ele>1019.3</ele>
        <time>2019-08-16T16:51:11Z</time>
      </trkpt>
      <trkpt lat="42.0378670" lon="-7.0560990">
        <ele>1019.6</ele>
        <time>2019-08-16T16:51:13Z</time>
      </trkpt>
      <trkpt lat="42.0379030" lon="-7.0560660">
        <ele>1019.9</ele>
        <time>2019-08-16T16:51:15Z</time>
      </trkpt>
      <trkpt lat="42.0379380" lon="-7.0560340">
        <ele>1020.2</ele>
        <time>2019-08-16T16:51:17Z</time>
      </trkpt>
      <trkpt lat="42.0379750" lon="-7.0560070">
        <ele>1020.5</ele>
        <time>2019-08-16T16:51:19Z</time>
      </trkpt>
      <trkpt lat="42.0380140" lon="-7.0559790">
        <ele>1020.8</ele>
        <time>2019-08-16T16:51:21Z</time>
      </trkpt>
      <trkpt lat="42.0380550" lon="-7.0559540">
        <ele>1021.0</ele>
        <time>2019-08-16T16:51:23Z</time>
      </trkpt>
      <trkpt lat="42.0380990" lon="-7.0559370">
        <ele>1021.3</ele>
        <time>2019-08-16T16:51:25Z</time>
      </trkpt>
      <trkpt lat="42.0381450" lon="-7.0559240">
        <ele>1021.6</ele>
        <time>2019-08-16T16:51:27Z</time>
      </trkpt>
      <trkpt lat="42.0381890" lon="-7.0559170">
        <ele>1022.1</ele>
        <time>2019-08-16T16:51:29Z</time>
      </trkpt>
      <trkpt lat="42.0382300" lon="-7.0559160">
        <ele>1022.3</ele>
        <time>2019-08-16T16:51:31Z</time>
      </trkpt>
      <trkpt lat="42.0382680" lon="-7.0559170">
        <ele>1022.9</ele>
        <time>2019-08-16T16:51:33Z</time>
      </trkpt>
      <trkpt lat="42.0383050" lon="-7.0559200">
        <ele>1022.8</ele>
        <time>2019-08-16T16:51:35Z</time>
      </trkpt>
      <trkpt lat="42.0383400" lon="-7.0559250">
        <ele>1022.7</ele>
        <time>2019-08-16T16:51:37Z</time>
      </trkpt>
      <trkpt lat="42.0383690" lon="-7.0559260">
        <ele>1022.7</ele>
        <time>2019-08-16T16:51:39Z</time>
      </trkpt>
      <trkpt lat="42.0383950" lon="-7.0559370">
        <ele>1022.7</ele>
        <time>2019-08-16T16:51:41Z</time>
      </trkpt>
      <trkpt lat="42.0384040" lon="-7.0559480">
        <ele>1022.7</ele>
        <time>2019-08-16T16:51:48Z</time>
      </trkpt>
      <trkpt lat="42.0382580" lon="-7.0559140">
        <ele>1022.5</ele>
        <time>2019-08-16T16:53:25Z</time>
      </trkpt>
      <trkpt lat="42.0382240" lon="-7.0559140">
        <ele>1022.2</ele>
        <time>2019-08-16T16:53:26Z</time>
      </trkpt>
      <trkpt lat="42.0381830" lon="-7.0559170">
        <ele>1021.9</ele>
        <time>2019-08-16T16:53:27Z</time>
      </trkpt>
      <trkpt lat="42.0381400" lon="-7.0559210">
        <ele>1021.5</ele>
        <time>2019-08-16T16:53:28Z</time>
      </trkpt>
      <trkpt lat="42.0380960" lon="-7.0559310">
        <ele>1021.3</ele>
        <time>2019-08-16T16:53:29Z</time>
      </trkpt>
      <trkpt lat="42.0380540" lon="-7.0559510">
        <ele>1021.0</ele>
        <time>2019-08-16T16:53:30Z</time>
      </trkpt>
      <trkpt lat="42.0380130" lon="-7.0559740">
        <ele>1020.7</ele>
        <time>2019-08-16T16:53:31Z</time>
      </trkpt>
      <trkpt lat="42.0379760" lon="-7.0560030">
        <ele>1020.5</ele>
        <time>2019-08-16T16:53:32Z</time>
      </trkpt>
      <trkpt lat="42.0379390" lon="-7.0560340">
        <ele>1020.2</ele>
        <time>2019-08-16T16:53:33Z</time>
      </trkpt>
      <trkpt lat="42.0379000" lon="-7.0560690">
        <ele>1019.9</ele>
        <time>2019-08-16T16:53:34Z</time>
      </trkpt>
      <trkpt lat="42.0378580" lon="-7.0561040">
        <ele>1019.5</ele>
        <time>2019-08-16T16:53:35Z</time>
      </trkpt>
      <trkpt lat="42.0378150" lon="-7.0561430">
        <ele>1019.1</ele>
        <time>2019-08-16T16:53:36Z</time>
      </trkpt>
      <trkpt lat="42.0377700" lon="-7.0561870">
        <ele>1018.9</ele>
        <time>2019-08-16T16:53:37Z</time>
      </trkpt>
      <trkpt lat="42.0377230" lon="-7.0562270">
        <ele>1018.6</ele>
        <time>2019-08-16T16:53:38Z</time>
      </trkpt>
      <trkpt lat="42.0376750" lon="-7.0562630">
        <ele>1018.3</ele>
        <time>2019-08-16T16:53:39Z</time>
      </trkpt>
      <trkpt lat="42.0376260" lon="-7.0562960">
        <ele>1018.1</ele>
        <time>2019-08-16T16:53:40Z</time>
      </trkpt>
      <trkpt lat="42.0375750" lon="-7.0563260">
        <ele>1017.9</ele>
        <time>2019-08-16T16:53:41Z</time>
      </trkpt>
      <trkpt lat="42.0375220" lon="-7.0563510">
        <ele>1017.6</ele>
        <time>2019-08-16T16:53:42Z</time>
      </trkpt>
      <trkpt lat="42.0374670" lon="-7.0563710">
        <ele>1017.3</ele>
        <time>2019-08-16T16:53:43Z</time>
      </trkpt>
      <trkpt lat="42.0374130" lon="-7.0563870">
        <ele>1016.9</ele>
        <time>2019-08-16T16:53:44Z</time>
      </trkpt>
      <trkpt lat="42.0373560" lon="-7.0563970">
        <ele>1016.6</ele>
        <time>2019-08-16T16:53:45Z</time>
      </trkpt>
      <trkpt lat="42.0372960" lon="-7.0564050">
        <ele>1016.3</ele>
        <time>2019-08-16T16:53:46Z</time>
      </trkpt>
      <trkpt lat="42.0372370" lon="-7.0564140">
        <ele>1016.0</ele>
        <time>2019-08-16T16:53:47Z</time>
      </trkpt>
      <trkpt lat="42.0371780" lon="-7.0564230">
        <ele>1015.7</ele>
        <time>2019-08-16T16:53:48Z</time>
      </trkpt>
      <trkpt lat="42.0371200" lon="-7.0564280">
        <ele>1015.3</ele>
        <time>2019-08-16T16:53:49Z</time>
      </trkpt>
      <trkpt lat="42.0370590" lon="-7.0564290">
        <ele>1015.0</ele>
        <time>2019-08-16T16:53:50Z</time>
      </trkpt>
      <trkpt lat="42.0369990" lon="-7.0564320">
        <ele>1014.7</ele>
        <time>2019-08-16T16:53:51Z</time>
      </trkpt>
      <trkpt lat="42.0369400" lon="-7.0564380">
        <ele>1014.4</ele>
        <time>2019-08-16T16:53:52Z</time>
      </trkpt>
      <trkpt lat="42.0368810" lon="-7.0564440">
        <ele>1014.1</ele>
        <time>2019-08-16T16:53:53Z</time>
      </trkpt>
      <trkpt lat="42.0368220" lon="-7.0564530">
        <ele>1013.8</ele>
        <time>2019-08-16T16:53:54Z</time>
      </trkpt>
      <trkpt lat="42.0367630" lon="-7.0564640">
        <ele>1013.5</ele>
        <time>2019-08-16T16:53:55Z</time>
      </trkpt>
      <trkpt lat="42.0367030" lon="-7.0564780">
        <ele>1013.1</ele>
        <time>2019-08-16T16:53:56Z</time>
      </trkpt>
      <trkpt lat="42.0366440" lon="-7.0564940">
        <ele>1012.5</ele>
        <time>2019-08-16T16:53:57Z</time>
      </trkpt>
      <trkpt lat="42.0365840" lon="-7.0565140">
        <ele>1011.8</ele>
        <time>2019-08-16T16:53:58Z</time>
      </trkpt>
      <trkpt lat="42.0365270" lon="-7.0565420">
        <ele>1011.1</ele>
        <time>2019-08-16T16:53:59Z</time>
      </trkpt>
      <trkpt lat="42.0364750" lon="-7.0565840">
        <ele>1010.5</ele>
        <time>2019-08-16T16:54:00Z</time>
      </trkpt>
      <trkpt lat="42.0364250" lon="-7.0566340">
        <ele>1009.6</ele>
        <time>2019-08-16T16:54:01Z</time>
      </trkpt>
      <trkpt lat="42.0363730" lon="-7.0566880">
        <ele>1008.6</ele>
        <time>2019-08-16T16:54:02Z</time>
      </trkpt>
      <trkpt lat="42.0363220" lon="-7.0567440">
        <ele>1007.7</ele>
        <time>2019-08-16T16:54:03Z</time>
      </trkpt>
      <trkpt lat="42.0362720" lon="-7.0567970">
        <ele>1006.9</ele>
        <time>2019-08-16T16:54:04Z</time>
      </trkpt>
      <trkpt lat="42.0362220" lon="-7.0568480">
        <ele>1006.2</ele>
        <time>2019-08-16T16:54:05Z</time>
      </trkpt>
      <trkpt lat="42.0361720" lon="-7.0569020">
        <ele>1005.4</ele>
        <time>2019-08-16T16:54:06Z</time>
      </trkpt>
      <trkpt lat="42.0361220" lon="-7.0569560">
        <ele>1004.7</ele>
        <time>2019-08-16T16:54:07Z</time>
      </trkpt>
      <trkpt lat="42.0360750" lon="-7.0570110">
        <ele>1004.2</ele>
        <time>2019-08-16T16:54:08Z</time>
      </trkpt>
      <trkpt lat="42.0360290" lon="-7.0570660">
        <ele>1003.7</ele>
        <time>2019-08-16T16:54:09Z</time>
      </trkpt>
      <trkpt lat="42.0359830" lon="-7.0571170">
        <ele>1003.3</ele>
        <time>2019-08-16T16:54:10Z</time>
      </trkpt>
      <trkpt lat="42.0359390" lon="-7.0571620">
        <ele>1002.9</ele>
        <time>2019-08-16T16:54:11Z</time>
      </trkpt>
      <trkpt lat="42.0358950" lon="-7.0571970">
        <ele>1002.5</ele>
        <time>2019-08-16T16:54:12Z</time>
      </trkpt>
      <trkpt lat="42.0358470" lon="-7.0572170">
        <ele>1002.2</ele>
        <time>2019-08-16T16:54:13Z</time>
      </trkpt>
      <trkpt lat="42.0357980" lon="-7.0572210">
        <ele>1001.7</ele>
        <time>2019-08-16T16:54:14Z</time>
      </trkpt>
      <trkpt lat="42.0357530" lon="-7.0572100">
        <ele>1001.3</ele>
        <time>2019-08-16T16:54:15Z</time>
      </trkpt>
      <trkpt lat="42.0357090" lon="-7.0571790">
        <ele>1000.9</ele>
        <time>2019-08-16T16:54:16Z</time>
      </trkpt>
      <trkpt lat="42.0356710" lon="-7.0571340">
        <ele>1000.5</ele>
        <time>2019-08-16T16:54:17Z</time>
      </trkpt>
      <trkpt lat="42.0356330" lon="-7.0570820">
        <ele>1000.2</ele>
        <time>2019-08-16T16:54:18Z</time>
      </trkpt>
      <trkpt lat="42.0355980" lon="-7.0570210">
        <ele>999.7</ele>
        <time>2019-08-16T16:54:19Z</time>
      </trkpt>
      <trkpt lat="42.0355660" lon="-7.0569550">
        <ele>999.2</ele>
        <time>2019-08-16T16:54:20Z</time>
      </trkpt>
      <trkpt lat="42.0355330" lon="-7.0568860">
        <ele>998.6</ele>
        <time>2019-08-16T16:54:21Z</time>
      </trkpt>
      <trkpt lat="42.0355030" lon="-7.0568180">
        <ele>998.1</ele>
        <time>2019-08-16T16:54:22Z</time>
      </trkpt>
      <trkpt lat="42.0354740" lon="-7.0567480">
        <ele>997.6</ele>
        <time>2019-08-16T16:54:23Z</time>
      </trkpt>
      <trkpt lat="42.0354460" lon="-7.0566810">
        <ele>997.1</ele>
        <time>2019-08-16T16:54:24Z</time>
      </trkpt>
      <trkpt lat="42.0354160" lon="-7.0566150">
        <ele>996.5</ele>
        <time>2019-08-16T16:54:25Z</time>
      </trkpt>
      <trkpt lat="42.0353890" lon="-7.0565430">
        <ele>995.9</ele>
        <time>2019-08-16T16:54:26Z</time>
      </trkpt>
      <trkpt lat="42.0353650" lon="-7.0564660">
        <ele>995.3</ele>
        <time>2019-08-16T16:54:27Z</time>
      </trkpt>
      <trkpt lat="42.0353450" lon="-7.0563840">
        <ele>994.9</ele>
        <time>2019-08-16T16:54:28Z</time>
      </trkpt>
      <trkpt lat="42.0353270" lon="-7.0563020">
        <ele>994.4</ele>
        <time>2019-08-16T16:54:29Z</time>
      </trkpt>
      <trkpt lat="42.0353070" lon="-7.0562220">
        <ele>993.8</ele>
        <time>2019-08-16T16:54:30Z</time>
      </trkpt>
      <trkpt lat="42.0352800" lon="-7.0561500">
        <ele>993.2</ele>
        <time>2019-08-16T16:54:31Z</time>
      </trkpt>
      <trkpt lat="42.0352450" lon="-7.0560850">
        <ele>992.6</ele>
        <time>2019-08-16T16:54:32Z</time>
      </trkpt>
      <trkpt lat="42.0352050" lon="-7.0560310">
        <ele>992.0</ele>
        <time>2019-08-16T16:54:33Z</time>
      </trkpt>
      <trkpt lat="42.0351590" lon="-7.0559870">
        <ele>991.5</ele>
        <time>2019-08-16T16:54:34Z</time>
      </trkpt>
      <trkpt lat="42.0351100" lon="-7.0559570">
        <ele>991.0</ele>
        <time>2019-08-16T16:54:35Z</time>
      </trkpt>
      <trkpt lat="42.0350610" lon="-7.0559390">
        <ele>990.5</ele>
        <time>2019-08-16T16:54:36Z</time>
      </trkpt>
      <trkpt lat="42.0350050" lon="-7.0559340">
        <ele>989.8</ele>
        <time>2019-08-16T16:54:37Z</time>
      </trkpt>
      <trkpt lat="42.0349430" lon="-7.0559310">
        <ele>989.3</ele>
        <time>2019-08-16T16:54:38Z</time>
      </trkpt>
      <trkpt lat="42.0348750" lon="-7.0559290">
        <ele>988.1</ele>
        <time>2019-08-16T16:54:39Z</time>
      </trkpt>
      <trkpt lat="42.0348000" lon="-7.0559230">
        <ele>987.2</ele>
        <time>2019-08-16T16:54:40Z</time>
      </trkpt>
      <trkpt lat="42.0347230" lon="-7.0559150">
        <ele>985.6</ele>
        <time>2019-08-16T16:54:41Z</time>
      </trkpt>
      <trkpt lat="42.0346480" lon="-7.0559070">
        <ele>984.3</ele>
        <time>2019-08-16T16:54:42Z</time>
      </trkpt>
      <trkpt lat="42.0345720" lon="-7.0559020">
        <ele>983.4</ele>
        <time>2019-08-16T16:54:43Z</time>
      </trkpt>
      <trkpt lat="42.0344970" lon="-7.0558900">
        <ele>982.5</ele>
        <time>2019-08-16T16:54:44Z</time>
      </trkpt>
      <trkpt lat="42.0344230" lon="-7.0558650">
        <ele>981.7</ele>
        <time>2019-08-16T16:54:45Z</time>
      </trkpt>
      <trkpt lat="42.0343490" lon="-7.0558330">
        <ele>980.9</ele>
        <time>2019-08-16T16:54:46Z</time>
      </trkpt>
      <trkpt lat="42.0342760" lon="-7.0557960">
        <ele>980.1</ele>
        <time>2019-08-16T16:54:47Z</time>
      </trkpt>
      <trkpt lat="42.0342040" lon="-7.0557610">
        <ele>979.4</ele>
        <time>2019-08-16T16:54:48Z</time>
      </trkpt>
      <trkpt lat="42.0341340" lon="-7.0557260">
        <ele>978.6</ele>
        <time>2019-08-16T16:54:49Z</time>
      </trkpt>
      <trkpt lat="42.0340630" lon="-7.0556900">
        <ele>978.1</ele>
        <time>2019-08-16T16:54:50Z</time>
      </trkpt>
      <trkpt lat="42.0339880" lon="-7.0556530">
        <ele>977.4</ele>
        <time>2019-08-16T16:54:51Z</time>
      </trkpt>
      <trkpt lat="42.0339140" lon="-7.0556140">
        <ele>977.0</ele>
        <time>2019-08-16T16:54:52Z</time>
      </trkpt>
      <trkpt lat="42.0338440" lon="-7.0555790">
        <ele>976.6</ele>
        <time>2019-08-16T16:54:53Z</time>
      </trkpt>
      <trkpt lat="42.0337790" lon="-7.0555470">
        <ele>976.1</ele>
        <time>2019-08-16T16:54:54Z</time>
      </trkpt>
      <trkpt lat="42.0337180" lon="-7.0555170">
        <ele>975.8</ele>
        <time>2019-08-16T16:54:55Z</time>
      </trkpt>
      <trkpt lat="42.0336600" lon="-7.0554830">
        <ele>975.7</ele>
        <time>2019-08-16T16:54:56Z</time>
      </trkpt>
      <trkpt lat="42.0336020" lon="-7.0554480">
        <ele>975.6</ele>
        <time>2019-08-16T16:54:57Z</time>
      </trkpt>
      <trkpt lat="42.0335460" lon="-7.0554150">
        <ele>975.5</ele>
        <time>2019-08-16T16:54:58Z</time>
      </trkpt>
      <trkpt lat="42.0334930" lon="-7.0553860">
        <ele>975.4</ele>
        <time>2019-08-16T16:54:59Z</time>
      </trkpt>
      <trkpt lat="42.0334410" lon="-7.0553550">
        <ele>975.2</ele>
        <time>2019-08-16T16:55:00Z</time>
      </trkpt>
      <trkpt lat="42.0333850" lon="-7.0553210">
        <ele>974.9</ele>
        <time>2019-08-16T16:55:01Z</time>
      </trkpt>
      <trkpt lat="42.0333260" lon="-7.0552850">
        <ele>974.4</ele>
        <time>2019-08-16T16:55:02Z</time>
      </trkpt>
      <trkpt lat="42.0332690" lon="-7.0552470">
        <ele>973.9</ele>
        <time>2019-08-16T16:55:03Z</time>
      </trkpt>
      <trkpt lat="42.0332160" lon="-7.0552120">
        <ele>973.6</ele>
        <time>2019-08-16T16:55:04Z</time>
      </trkpt>
      <trkpt lat="42.0331650" lon="-7.0551780">
        <ele>973.2</ele>
        <time>2019-08-16T16:55:05Z</time>
      </trkpt>
      <trkpt lat="42.0331140" lon="-7.0551430">
        <ele>972.8</ele>
        <time>2019-08-16T16:55:06Z</time>
      </trkpt>
      <trkpt lat="42.0330630" lon="-7.0551130">
        <ele>972.5</ele>
        <time>2019-08-16T16:55:07Z</time>
      </trkpt>
      <trkpt lat="42.0330160" lon="-7.0550860">
        <ele>972.2</ele>
        <time>2019-08-16T16:55:08Z</time>
      </trkpt>
      <trkpt lat="42.0329750" lon="-7.0550620">
        <ele>971.9</ele>
        <time>2019-08-16T16:55:09Z</time>
      </trkpt>
      <trkpt lat="42.0329400" lon="-7.0550420">
        <ele>971.7</ele>
        <time>2019-08-16T16:55:10Z</time>
      </trkpt>
      <trkpt lat="42.0329070" lon="-7.0550210">
        <ele>971.4</ele>
        <time>2019-08-16T16:55:11Z</time>
      </trkpt>
      <trkpt lat="42.0328720" lon="-7.0549970">
        <ele>971.1</ele>
        <time>2019-08-16T16:55:12Z</time>
      </trkpt>
      <trkpt lat="42.0328330" lon="-7.0549750">
        <ele>970.7</ele>
        <time>2019-08-16T16:55:13Z</time>
      </trkpt>
      <trkpt lat="42.0327920" lon="-7.0549530">
        <ele>970.3</ele>
        <time>2019-08-16T16:55:14Z</time>
      </trkpt>
      <trkpt lat="42.0327490" lon="-7.0549260">
        <ele>969.7</ele>
        <time>2019-08-16T16:55:15Z</time>
      </trkpt>
      <trkpt lat="42.0327040" lon="-7.0548960">
        <ele>969.2</ele>
        <time>2019-08-16T16:55:16Z</time>
      </trkpt>
      <trkpt lat="42.0326570" lon="-7.0548680">
        <ele>968.8</ele>
        <time>2019-08-16T16:55:17Z</time>
      </trkpt>
      <trkpt lat="42.0326070" lon="-7.0548430">
        <ele>968.5</ele>
        <time>2019-08-16T16:55:18Z</time>
      </trkpt>
      <trkpt lat="42.0325590" lon="-7.0548200">
        <ele>968.1</ele>
        <time>2019-08-16T16:55:19Z</time>
      </trkpt>
      <trkpt lat="42.0325130" lon="-7.0547960">
        <ele>967.7</ele>
        <time>2019-08-16T16:55:20Z</time>
      </trkpt>
      <trkpt lat="42.0324690" lon="-7.0547760">
        <ele>967.3</ele>
        <time>2019-08-16T16:55:21Z</time>
      </trkpt>
      <trkpt lat="42.0324230" lon="-7.0547610">
        <ele>966.9</ele>
        <time>2019-08-16T16:55:22Z</time>
      </trkpt>
      <trkpt lat="42.0323730" lon="-7.0547500">
        <ele>966.4</ele>
        <time>2019-08-16T16:55:23Z</time>
      </trkpt>
      <trkpt lat="42.0323210" lon="-7.0547430">
        <ele>966.0</ele>
        <time>2019-08-16T16:55:24Z</time>
      </trkpt>
      <trkpt lat="42.0322660" lon="-7.0547360">
        <ele>965.5</ele>
        <time>2019-08-16T16:55:25Z</time>
      </trkpt>
      <trkpt lat="42.0322090" lon="-7.0547310">
        <ele>965.1</ele>
        <time>2019-08-16T16:55:26Z</time>
      </trkpt>
      <trkpt lat="42.0321510" lon="-7.0547260">
        <ele>964.4</ele>
        <time>2019-08-16T16:55:27Z</time>
      </trkpt>
      <trkpt lat="42.0320920" lon="-7.0547210">
        <ele>963.8</ele>
        <time>2019-08-16T16:55:28Z</time>
      </trkpt>
      <trkpt lat="42.0320330" lon="-7.0547160">
        <ele>963.4</ele>
        <time>2019-08-16T16:55:29Z</time>
      </trkpt>
      <trkpt lat="42.0319750" lon="-7.0547110">
        <ele>962.9</ele>
        <time>2019-08-16T16:55:30Z</time>
      </trkpt>
      <trkpt lat="42.0319180" lon="-7.0547070">
        <ele>962.4</ele>
        <time>2019-08-16T16:55:31Z</time>
      </trkpt>
      <trkpt lat="42.0318630" lon="-7.0547060">
        <ele>961.8</ele>
        <time>2019-08-16T16:55:32Z</time>
      </trkpt>
      <trkpt lat="42.0318080" lon="-7.0547050">
        <ele>961.3</ele>
        <time>2019-08-16T16:55:33Z</time>
      </trkpt>
      <trkpt lat="42.0317570" lon="-7.0547050">
        <ele>960.9</ele>
        <time>2019-08-16T16:55:34Z</time>
      </trkpt>
      <trkpt lat="42.0317070" lon="-7.0547090">
        <ele>960.4</ele>
        <time>2019-08-16T16:55:35Z</time>
      </trkpt>
      <trkpt lat="42.0316570" lon="-7.0547080">
        <ele>959.8</ele>
        <time>2019-08-16T16:55:36Z</time>
      </trkpt>
      <trkpt lat="42.0316070" lon="-7.0547000">
        <ele>959.1</ele>
        <time>2019-08-16T16:55:37Z</time>
      </trkpt>
      <trkpt lat="42.0315580" lon="-7.0546800">
        <ele>958.6</ele>
        <time>2019-08-16T16:55:38Z</time>
      </trkpt>
      <trkpt lat="42.0315130" lon="-7.0546520">
        <ele>958.2</ele>
        <time>2019-08-16T16:55:39Z</time>
      </trkpt>
      <trkpt lat="42.0314690" lon="-7.0546160">
        <ele>957.5</ele>
        <time>2019-08-16T16:55:40Z</time>
      </trkpt>
      <trkpt lat="42.0314240" lon="-7.0545800">
        <ele>957.0</ele>
        <time>2019-08-16T16:55:41Z</time>
      </trkpt>
      <trkpt lat="42.0313790" lon="-7.0545510">
        <ele>956.5</ele>
        <time>2019-08-16T16:55:42Z</time>
      </trkpt>
      <trkpt lat="42.0313340" lon="-7.0545290">
        <ele>956.1</ele>
        <time>2019-08-16T16:55:43Z</time>
      </trkpt>
      <trkpt lat="42.0312880" lon="-7.0545120">
        <ele>955.7</ele>
        <time>2019-08-16T16:55:44Z</time>
      </trkpt>
      <trkpt lat="42.0312420" lon="-7.0544960">
        <ele>955.3</ele>
        <time>2019-08-16T16:55:45Z</time>
      </trkpt>
      <trkpt lat="42.0311960" lon="-7.0544800">
        <ele>954.9</ele>
        <time>2019-08-16T16:55:46Z</time>
      </trkpt>
      <trkpt lat="42.0311490" lon="-7.0544680">
        <ele>954.7</ele>
        <time>2019-08-16T16:55:47Z</time>
      </trkpt>
      <trkpt lat="42.0311050" lon="-7.0544580">
        <ele>954.4</ele>
        <time>2019-08-16T16:55:48Z</time>
      </trkpt>
      <trkpt lat="42.0310690" lon="-7.0544460">
        <ele>954.2</ele>
        <time>2019-08-16T16:55:49Z</time>
      </trkpt>
      <trkpt lat="42.0310370" lon="-7.0544330">
        <ele>954.0</ele>
        <time>2019-08-16T16:55:50Z</time>
      </trkpt>
      <trkpt lat="42.0310100" lon="-7.0544230">
        <ele>953.8</ele>
        <time>2019-08-16T16:55:51Z</time>
      </trkpt>
      <trkpt lat="42.0309870" lon="-7.0544190">
        <ele>953.6</ele>
        <time>2019-08-16T16:55:52Z</time>
      </trkpt>
      <trkpt lat="42.0309520" lon="-7.0544340">
        <ele>953.3</ele>
        <time>2019-08-16T16:55:54Z</time>
      </trkpt>
      <trkpt lat="42.0309260" lon="-7.0544880">
        <ele>953.0</ele>
        <time>2019-08-16T16:55:56Z</time>
      </trkpt>
      <trkpt lat="42.0309070" lon="-7.0545700">
        <ele>952.7</ele>
        <time>2019-08-16T16:55:58Z</time>
      </trkpt>
      <trkpt lat="42.0308990" lon="-7.0546170">
        <ele>952.6</ele>
        <time>2019-08-16T16:55:59Z</time>
      </trkpt>
      <trkpt lat="42.0308930" lon="-7.0546690">
        <ele>952.6</ele>
        <time>2019-08-16T16:56:00Z</time>
      </trkpt>
      <trkpt lat="42.0308890" lon="-7.0547220">
        <ele>952.5</ele>
        <time>2019-08-16T16:56:01Z</time>
      </trkpt>
      <trkpt lat="42.0308870" lon="-7.0547800">
        <ele>952.5</ele>
        <time>2019-08-16T16:56:02Z</time>
      </trkpt>
      <trkpt lat="42.0308890" lon="-7.0548380">
        <ele>952.4</ele>
        <time>2019-08-16T16:56:03Z</time>
      </trkpt>
      <trkpt lat="42.0308970" lon="-7.0548960">
        <ele>952.4</ele>
        <time>2019-08-16T16:56:04Z</time>
      </trkpt>
      <trkpt lat="42.0309090" lon="-7.0549550">
        <ele>952.3</ele>
        <time>2019-08-16T16:56:05Z</time>
      </trkpt>
      <trkpt lat="42.0309200" lon="-7.0550150">
        <ele>952.3</ele>
        <time>2019-08-16T16:56:06Z</time>
      </trkpt>
      <trkpt lat="42.0309310" lon="-7.0550770">
        <ele>952.3</ele>
        <time>2019-08-16T16:56:07Z</time>
      </trkpt>
      <trkpt lat="42.0309420" lon="-7.0551410">
        <ele>952.3</ele>
        <time>2019-08-16T16:56:08Z</time>
      </trkpt>
      <trkpt lat="42.0309530" lon="-7.0552080">
        <ele>952.4</ele>
        <time>2019-08-16T16:56:09Z</time>
      </trkpt>
      <trkpt lat="42.0309590" lon="-7.0552780">
        <ele>952.5</ele>
        <time>2019-08-16T16:56:10Z</time>
      </trkpt>
      <trkpt lat="42.0309610" lon="-7.0553450">
        <ele>952.5</ele>
        <time>2019-08-16T16:56:11Z</time>
      </trkpt>
      <trkpt lat="42.0309560" lon="-7.0554110">
        <ele>952.6</ele>
        <time>2019-08-16T16:56:12Z</time>
      </trkpt>
      <trkpt lat="42.0309550" lon="-7.0554740">
        <ele>952.7</ele>
        <time>2019-08-16T16:56:13Z</time>
      </trkpt>
      <trkpt lat="42.0309520" lon="-7.0555380">
        <ele>952.9</ele>
        <time>2019-08-16T16:56:14Z</time>
      </trkpt>
      <trkpt lat="42.0309410" lon="-7.0555980">
        <ele>953.0</ele>
        <time>2019-08-16T16:56:15Z</time>
      </trkpt>
      <trkpt lat="42.0309290" lon="-7.0556540">
        <ele>953.2</ele>
        <time>2019-08-16T16:56:16Z</time>
      </trkpt>
      <trkpt lat="42.0309190" lon="-7.0557060">
        <ele>953.4</ele>
        <time>2019-08-16T16:56:17Z</time>
      </trkpt>
      <trkpt lat="42.0309070" lon="-7.0557550">
        <ele>953.6</ele>
        <time>2019-08-16T16:56:18Z</time>
      </trkpt>
      <trkpt lat="42.0308940" lon="-7.0558040">
        <ele>953.7</ele>
        <time>2019-08-16T16:56:19Z</time>
      </trkpt>
      <trkpt lat="42.0308830" lon="-7.0558500">
        <ele>954.0</ele>
        <time>2019-08-16T16:56:20Z</time>
      </trkpt>
      <trkpt lat="42.0308750" lon="-7.0558970">
        <ele>954.2</ele>
        <time>2019-08-16T16:56:21Z</time>
      </trkpt>
      <trkpt lat="42.0308690" lon="-7.0559430">
        <ele>954.4</ele>
        <time>2019-08-16T16:56:22Z</time>
      </trkpt>
      <trkpt lat="42.0308640" lon="-7.0559890">
        <ele>954.7</ele>
        <time>2019-08-16T16:56:23Z</time>
      </trkpt>
      <trkpt lat="42.0308610" lon="-7.0560320">
        <ele>954.7</ele>
        <time>2019-08-16T16:56:24Z</time>
      </trkpt>
      <trkpt lat="42.0308570" lon="-7.0560740">
        <ele>954.7</ele>
        <time>2019-08-16T16:56:25Z</time>
      </trkpt>
      <trkpt lat="42.0308530" lon="-7.0561180">
        <ele>954.7</ele>
        <time>2019-08-16T16:56:26Z</time>
      </trkpt>
      <trkpt lat="42.0308440" lon="-7.0561690">
        <ele>954.6</ele>
        <time>2019-08-16T16:56:27Z</time>
      </trkpt>
      <trkpt lat="42.0308300" lon="-7.0562280">
        <ele>954.4</ele>
        <time>2019-08-16T16:56:28Z</time>
      </trkpt>
      <trkpt lat="42.0308110" lon="-7.0562920">
        <ele>954.3</ele>
        <time>2019-08-16T16:56:29Z</time>
      </trkpt>
      <trkpt lat="42.0307810" lon="-7.0563560">
        <ele>954.1</ele>
        <time>2019-08-16T16:56:30Z</time>
      </trkpt>
      <trkpt lat="42.0307480" lon="-7.0564190">
        <ele>953.8</ele>
        <time>2019-08-16T16:56:31Z</time>
      </trkpt>
      <trkpt lat="42.0307190" lon="-7.0564850">
        <ele>953.6</ele>
        <time>2019-08-16T16:56:32Z</time>
      </trkpt>
      <trkpt lat="42.0306920" lon="-7.0565520">
        <ele>953.4</ele>
        <time>2019-08-16T16:56:33Z</time>
      </trkpt>
      <trkpt lat="42.0306720" lon="-7.0566250">
        <ele>953.3</ele>
        <time>2019-08-16T16:56:34Z</time>
      </trkpt>
      <trkpt lat="42.0306550" lon="-7.0566980">
        <ele>953.2</ele>
        <time>2019-08-16T16:56:35Z</time>
      </trkpt>
      <trkpt lat="42.0306390" lon="-7.0567680">
        <ele>953.1</ele>
        <time>2019-08-16T16:56:36Z</time>
      </trkpt>
      <trkpt lat="42.0306240" lon="-7.0568380">
        <ele>953.0</ele>
        <time>2019-08-16T16:56:37Z</time>
      </trkpt>
      <trkpt lat="42.0306090" lon="-7.0569030">
        <ele>952.9</ele>
        <time>2019-08-16T16:56:38Z</time>
      </trkpt>
      <trkpt lat="42.0305940" lon="-7.0569630">
        <ele>952.9</ele>
        <time>2019-08-16T16:56:39Z</time>
      </trkpt>
      <trkpt lat="42.0305800" lon="-7.0570220">
        <ele>952.8</ele>
        <time>2019-08-16T16:56:40Z</time>
      </trkpt>
      <trkpt lat="42.0305670" lon="-7.0570830">
        <ele>952.8</ele>
        <time>2019-08-16T16:56:41Z</time>
      </trkpt>
      <trkpt lat="42.0305540" lon="-7.0571440">
        <ele>952.8</ele>
        <time>2019-08-16T16:56:42Z</time>
      </trkpt>
      <trkpt lat="42.0305450" lon="-7.0572040">
        <ele>952.8</ele>
        <time>2019-08-16T16:56:43Z</time>
      </trkpt>
      <trkpt lat="42.0305400" lon="-7.0572620">
        <ele>952.8</ele>
        <time>2019-08-16T16:56:44Z</time>
      </trkpt>
      <trkpt lat="42.0305350" lon="-7.0573180">
        <ele>952.8</ele>
        <time>2019-08-16T16:56:45Z</time>
      </trkpt>
      <trkpt lat="42.0305290" lon="-7.0573720">
        <ele>952.9</ele>
        <time>2019-08-16T16:56:46Z</time>
      </trkpt>
      <trkpt lat="42.0305240" lon="-7.0574250">
        <ele>952.9</ele>
        <time>2019-08-16T16:56:47Z</time>
      </trkpt>
      <trkpt lat="42.0305210" lon="-7.0574850">
        <ele>952.9</ele>
        <time>2019-08-16T16:56:48Z</time>
      </trkpt>
      <trkpt lat="42.0305220" lon="-7.0575430">
        <ele>952.9</ele>
        <time>2019-08-16T16:56:49Z</time>
      </trkpt>
      <trkpt lat="42.0305190" lon="-7.0575990">
        <ele>952.9</ele>
        <time>2019-08-16T16:56:50Z</time>
      </trkpt>
      <trkpt lat="42.0305120" lon="-7.0576510">
        <ele>953.0</ele>
        <time>2019-08-16T16:56:51Z</time>
      </trkpt>
      <trkpt lat="42.0305040" lon="-7.0577060">
        <ele>953.0</ele>
        <time>2019-08-16T16:56:52Z</time>
      </trkpt>
      <trkpt lat="42.0304930" lon="-7.0577630">
        <ele>953.0</ele>
        <time>2019-08-16T16:56:53Z</time>
      </trkpt>
      <trkpt lat="42.0304790" lon="-7.0578190">
        <ele>953.0</ele>
        <time>2019-08-16T16:56:54Z</time>
      </trkpt>
      <trkpt lat="42.0304640" lon="-7.0578770">
        <ele>953.0</ele>
        <time>2019-08-16T16:56:55Z</time>
      </trkpt>
      <trkpt lat="42.0304500" lon="-7.0579320">
        <ele>953.0</ele>
        <time>2019-08-16T16:56:56Z</time>
      </trkpt>
      <trkpt lat="42.0304430" lon="-7.0579900">
        <ele>953.0</ele>
        <time>2019-08-16T16:56:57Z</time>
      </trkpt>
      <trkpt lat="42.0304350" lon="-7.0580500">
        <ele>952.9</ele>
        <time>2019-08-16T16:56:58Z</time>
      </trkpt>
      <trkpt lat="42.0304280" lon="-7.0581160">
        <ele>952.9</ele>
        <time>2019-08-16T16:56:59Z</time>
      </trkpt>
      <trkpt lat="42.0304230" lon="-7.0581770">
        <ele>952.9</ele>
        <time>2019-08-16T16:57:00Z</time>
      </trkpt>
      <trkpt lat="42.0304150" lon="-7.0582370">
        <ele>952.8</ele>
        <time>2019-08-16T16:57:01Z</time>
      </trkpt>
      <trkpt lat="42.0304070" lon="-7.0582940">
        <ele>952.8</ele>
        <time>2019-08-16T16:57:02Z</time>
      </trkpt>
      <trkpt lat="42.0303970" lon="-7.0583480">
        <ele>952.6</ele>
        <time>2019-08-16T16:57:03Z</time>
      </trkpt>
      <trkpt lat="42.0303850" lon="-7.0584000">
        <ele>952.3</ele>
        <time>2019-08-16T16:57:04Z</time>
      </trkpt>
      <trkpt lat="42.0303740" lon="-7.0584520">
        <ele>951.9</ele>
        <time>2019-08-16T16:57:05Z</time>
      </trkpt>
      <trkpt lat="42.0303680" lon="-7.0585020">
        <ele>951.9</ele>
        <time>2019-08-16T16:57:06Z</time>
      </trkpt>
      <trkpt lat="42.0303640" lon="-7.0585520">
        <ele>951.8</ele>
        <time>2019-08-16T16:57:07Z</time>
      </trkpt>
      <trkpt lat="42.0303610" lon="-7.0586040">
        <ele>951.8</ele>
        <time>2019-08-16T16:57:08Z</time>
      </trkpt>
      <trkpt lat="42.0303590" lon="-7.0586580">
        <ele>951.7</ele>
        <time>2019-08-16T16:57:09Z</time>
      </trkpt>
      <trkpt lat="42.0303570" lon="-7.0587150">
        <ele>951.7</ele>
        <time>2019-08-16T16:57:10Z</time>
      </trkpt>
      <trkpt lat="42.0303580" lon="-7.0587730">
        <ele>951.5</ele>
        <time>2019-08-16T16:57:11Z</time>
      </trkpt>
      <trkpt lat="42.0303600" lon="-7.0588320">
        <ele>951.4</ele>
        <time>2019-08-16T16:57:12Z</time>
      </trkpt>
      <trkpt lat="42.0303660" lon="-7.0588890">
        <ele>951.2</ele>
        <time>2019-08-16T16:57:13Z</time>
      </trkpt>
      <trkpt lat="42.0303710" lon="-7.0589460">
        <ele>951.0</ele>
        <time>2019-08-16T16:57:14Z</time>
      </trkpt>
      <trkpt lat="42.0303780" lon="-7.0590020">
        <ele>950.9</ele>
        <time>2019-08-16T16:57:15Z</time>
      </trkpt>
      <trkpt lat="42.0303870" lon="-7.0590580">
        <ele>950.7</ele>
        <time>2019-08-16T16:57:16Z</time>
      </trkpt>
      <trkpt lat="42.0303950" lon="-7.0591150">
        <ele>950.5</ele>
        <time>2019-08-16T16:57:17Z</time>
      </trkpt>
      <trkpt lat="42.0304070" lon="-7.0591700">
        <ele>950.3</ele>
        <time>2019-08-16T16:57:18Z</time>
      </trkpt>
      <trkpt lat="42.0304240" lon="-7.0592270">
        <ele>950.1</ele>
        <time>2019-08-16T16:57:19Z</time>
      </trkpt>
      <trkpt lat="42.0304440" lon="-7.0592860">
        <ele>949.9</ele>
        <time>2019-08-16T16:57:20Z</time>
      </trkpt>
      <trkpt lat="42.0304640" lon="-7.0593480">
        <ele>949.7</ele>
        <time>2019-08-16T16:57:21Z</time>
      </trkpt>
      <trkpt lat="42.0304810" lon="-7.0594140">
        <ele>949.5</ele>
        <time>2019-08-16T16:57:22Z</time>
      </trkpt>
      <trkpt lat="42.0304970" lon="-7.0594830">
        <ele>949.3</ele>
        <time>2019-08-16T16:57:23Z</time>
      </trkpt>
      <trkpt lat="42.0305120" lon="-7.0595560">
        <ele>949.0</ele>
        <time>2019-08-16T16:57:24Z</time>
      </trkpt>
      <trkpt lat="42.0305270" lon="-7.0596290">
        <ele>948.9</ele>
        <time>2019-08-16T16:57:25Z</time>
      </trkpt>
      <trkpt lat="42.0305440" lon="-7.0597020">
        <ele>948.8</ele>
        <time>2019-08-16T16:57:26Z</time>
      </trkpt>
      <trkpt lat="42.0305580" lon="-7.0597740">
        <ele>948.7</ele>
        <time>2019-08-16T16:57:27Z</time>
      </trkpt>
      <trkpt lat="42.0305700" lon="-7.0598460">
        <ele>948.6</ele>
        <time>2019-08-16T16:57:28Z</time>
      </trkpt>
      <trkpt lat="42.0305810" lon="-7.0599180">
        <ele>948.6</ele>
        <time>2019-08-16T16:57:29Z</time>
      </trkpt>
      <trkpt lat="42.0305870" lon="-7.0599900">
        <ele>948.6</ele>
        <time>2019-08-16T16:57:30Z</time>
      </trkpt>
      <trkpt lat="42.0305910" lon="-7.0600610">
        <ele>948.6</ele>
        <time>2019-08-16T16:57:31Z</time>
      </trkpt>
      <trkpt lat="42.0305990" lon="-7.0601290">
        <ele>948.5</ele>
        <time>2019-08-16T16:57:32Z</time>
      </trkpt>
      <trkpt lat="42.0306070" lon="-7.0601980">
        <ele>948.4</ele>
        <time>2019-08-16T16:57:33Z</time>
      </trkpt>
      <trkpt lat="42.0306160" lon="-7.0602680">
        <ele>948.3</ele>
        <time>2019-08-16T16:57:34Z</time>
      </trkpt>
      <trkpt lat="42.0306250" lon="-7.0603360">
        <ele>948.2</ele>
        <time>2019-08-16T16:57:35Z</time>
      </trkpt>
      <trkpt lat="42.0306340" lon="-7.0604000">
        <ele>948.2</ele>
        <time>2019-08-16T16:57:36Z</time>
      </trkpt>
      <trkpt lat="42.0306470" lon="-7.0604650">
        <ele>948.1</ele>
        <time>2019-08-16T16:57:37Z</time>
      </trkpt>
      <trkpt lat="42.0306610" lon="-7.0605220">
        <ele>948.1</ele>
        <time>2019-08-16T16:57:38Z</time>
      </trkpt>
      <trkpt lat="42.0306740" lon="-7.0605700">
        <ele>948.0</ele>
        <time>2019-08-16T16:57:39Z</time>
      </trkpt>
      <trkpt lat="42.0306890" lon="-7.0606120">
        <ele>948.0</ele>
        <time>2019-08-16T16:57:40Z</time>
      </trkpt>
      <trkpt lat="42.0307060" lon="-7.0606490">
        <ele>948.0</ele>
        <time>2019-08-16T16:57:41Z</time>
      </trkpt>
      <trkpt lat="42.0307250" lon="-7.0606870">
        <ele>947.9</ele>
        <time>2019-08-16T16:57:42Z</time>
      </trkpt>
      <trkpt lat="42.0307460" lon="-7.0607280">
        <ele>947.9</ele>
        <time>2019-08-16T16:57:43Z</time>
      </trkpt>
      <trkpt lat="42.0307700" lon="-7.0607680">
        <ele>947.9</ele>
        <time>2019-08-16T16:57:44Z</time>
      </trkpt>
      <trkpt lat="42.0307950" lon="-7.0608080">
        <ele>947.9</ele>
        <time>2019-08-16T16:57:45Z</time>
      </trkpt>
      <trkpt lat="42.0308160" lon="-7.0608450">
        <ele>947.8</ele>
        <time>2019-08-16T16:57:46Z</time>
      </trkpt>
      <trkpt lat="42.0308330" lon="-7.0608900">
        <ele>947.8</ele>
        <time>2019-08-16T16:57:47Z</time>
      </trkpt>
      <trkpt lat="42.0308450" lon="-7.0609340">
        <ele>947.8</ele>
        <time>2019-08-16T16:57:48Z</time>
      </trkpt>
      <trkpt lat="42.0308610" lon="-7.0609790">
        <ele>947.8</ele>
        <time>2019-08-16T16:57:49Z</time>
      </trkpt>
      <trkpt lat="42.0308770" lon="-7.0610270">
        <ele>947.8</ele>
        <time>2019-08-16T16:57:50Z</time>
      </trkpt>
      <trkpt lat="42.0308950" lon="-7.0610800">
        <ele>947.8</ele>
        <time>2019-08-16T16:57:51Z</time>
      </trkpt>
      <trkpt lat="42.0309130" lon="-7.0611280">
        <ele>947.8</ele>
        <time>2019-08-16T16:57:52Z</time>
      </trkpt>
      <trkpt lat="42.0309300" lon="-7.0611690">
        <ele>947.7</ele>
        <time>2019-08-16T16:57:53Z</time>
      </trkpt>
      <trkpt lat="42.0309460" lon="-7.0612090">
        <ele>947.7</ele>
        <time>2019-08-16T16:57:54Z</time>
      </trkpt>
      <trkpt lat="42.0309630" lon="-7.0612400">
        <ele>947.6</ele>
        <time>2019-08-16T16:57:55Z</time>
      </trkpt>
      <trkpt lat="42.0309810" lon="-7.0612740">
        <ele>947.5</ele>
        <time>2019-08-16T16:57:56Z</time>
      </trkpt>
      <trkpt lat="42.0309940" lon="-7.0613080">
        <ele>947.3</ele>
        <time>2019-08-16T16:57:57Z</time>
      </trkpt>
      <trkpt lat="42.0310000" lon="-7.0613420">
        <ele>947.2</ele>
        <time>2019-08-16T16:57:58Z</time>
      </trkpt>
      <trkpt lat="42.0309990" lon="-7.0614090">
        <ele>946.7</ele>
        <time>2019-08-16T16:58:00Z</time>
      </trkpt>
      <trkpt lat="42.0309750" lon="-7.0614760">
        <ele>946.1</ele>
        <time>2019-08-16T16:58:02Z</time>
      </trkpt>
      <trkpt lat="42.0309390" lon="-7.0615260">
        <ele>945.5</ele>
        <time>2019-08-16T16:58:04Z</time>
      </trkpt>
      <trkpt lat="42.0309060" lon="-7.0615960">
        <ele>944.7</ele>
        <time>2019-08-16T16:58:06Z</time>
      </trkpt>
      <trkpt lat="42.0308940" lon="-7.0616330">
        <ele>944.3</ele>
        <time>2019-08-16T16:58:07Z</time>
      </trkpt>
      <trkpt lat="42.0308850" lon="-7.0616730">
        <ele>944.0</ele>
        <time>2019-08-16T16:58:08Z</time>
      </trkpt>
      <trkpt lat="42.0308770" lon="-7.0617130">
        <ele>943.7</ele>
        <time>2019-08-16T16:58:09Z</time>
      </trkpt>
      <trkpt lat="42.0308650" lon="-7.0617520">
        <ele>943.4</ele>
        <time>2019-08-16T16:58:10Z</time>
      </trkpt>
      <trkpt lat="42.0308550" lon="-7.0617920">
        <ele>943.0</ele>
        <time>2019-08-16T16:58:11Z</time>
      </trkpt>
      <trkpt lat="42.0308540" lon="-7.0618360">
        <ele>942.8</ele>
        <time>2019-08-16T16:58:12Z</time>
      </trkpt>
      <trkpt lat="42.0308560" lon="-7.0618830">
        <ele>942.5</ele>
        <time>2019-08-16T16:58:13Z</time>
      </trkpt>
      <trkpt lat="42.0308600" lon="-7.0619310">
        <ele>942.4</ele>
        <time>2019-08-16T16:58:14Z</time>
      </trkpt>
      <trkpt lat="42.0308630" lon="-7.0619790">
        <ele>942.2</ele>
        <time>2019-08-16T16:58:15Z</time>
      </trkpt>
      <trkpt lat="42.0308660" lon="-7.0620150">
        <ele>942.2</ele>
        <time>2019-08-16T16:58:16Z</time>
      </trkpt>
      <trkpt lat="42.0308660" lon="-7.0620410">
        <ele>942.2</ele>
        <time>2019-08-16T16:58:17Z</time>
      </trkpt>
      <trkpt lat="42.0308670" lon="-7.0620510">
        <ele>942.1</ele>
        <time>2019-08-16T16:58:19Z</time>
      </trkpt>
      <trkpt lat="42.0308890" lon="-7.0620890">
        <ele>942.2</ele>
        <time>2019-08-16T16:58:26Z</time>
      </trkpt>
      <trkpt lat="42.0308980" lon="-7.0621270">
        <ele>942.3</ele>
        <time>2019-08-16T16:58:32Z</time>
      </trkpt>
      <trkpt lat="42.0309030" lon="-7.0621820">
        <ele>942.5</ele>
        <time>2019-08-16T16:59:16Z</time>
      </trkpt>
      <trkpt lat="42.0308980" lon="-7.0621790">
        <ele>942.5</ele>
        <time>2019-08-16T16:59:24Z</time>
      </trkpt>
      <trkpt lat="42.0308990" lon="-7.0624060">
        <ele>943.5</ele>
        <time>2019-08-16T17:00:19Z</time>
      </trkpt>
      <trkpt lat="42.0309100" lon="-7.0624380">
        <ele>943.7</ele>
        <time>2019-08-16T17:00:23Z</time>
      </trkpt>
      <trkpt lat="42.0309010" lon="-7.0624830">
        <ele>944.0</ele>
        <time>2019-08-16T17:00:29Z</time>
      </trkpt>
      <trkpt lat="42.0309050" lon="-7.0625130">
        <ele>944.3</ele>
        <time>2019-08-16T17:00:33Z</time>
      </trkpt>
      <trkpt lat="42.0309310" lon="-7.0625300">
        <ele>944.6</ele>
        <time>2019-08-16T17:00:37Z</time>
      </trkpt>
      <trkpt lat="42.0309500" lon="-7.0625620">
        <ele>944.8</ele>
        <time>2019-08-16T17:00:41Z</time>
      </trkpt>
      <trkpt lat="42.0309570" lon="-7.0625990">
        <ele>945.1</ele>
        <time>2019-08-16T17:00:45Z</time>
      </trkpt>
      <trkpt lat="42.0309680" lon="-7.0626390">
        <ele>945.4</ele>
        <time>2019-08-16T17:00:50Z</time>
      </trkpt>
      <trkpt lat="42.0309830" lon="-7.0626690">
        <ele>945.6</ele>
        <time>2019-08-16T17:00:53Z</time>
      </trkpt>
      <trkpt lat="42.0310090" lon="-7.0627030">
        <ele>945.9</ele>
        <time>2019-08-16T17:00:57Z</time>
      </trkpt>
      <trkpt lat="42.0310240" lon="-7.0627330">
        <ele>946.1</ele>
        <time>2019-08-16T17:01:01Z</time>
      </trkpt>
      <trkpt lat="42.0310350" lon="-7.0627690">
        <ele>946.3</ele>
        <time>2019-08-16T17:01:05Z</time>
      </trkpt>
      <trkpt lat="42.0310360" lon="-7.0627870">
        <ele>946.4</ele>
        <time>2019-08-16T17:01:12Z</time>
      </trkpt>
      <trkpt lat="42.0310500" lon="-7.0628490">
        <ele>946.8</ele>
        <time>2019-08-16T17:01:15Z</time>
      </trkpt>
      <trkpt lat="42.0310590" lon="-7.0628880">
        <ele>947.0</ele>
        <time>2019-08-16T17:01:17Z</time>
      </trkpt>
      <trkpt lat="42.0310650" lon="-7.0629280">
        <ele>947.3</ele>
        <time>2019-08-16T17:01:19Z</time>
      </trkpt>
      <trkpt lat="42.0310650" lon="-7.0629680">
        <ele>947.6</ele>
        <time>2019-08-16T17:01:21Z</time>
      </trkpt>
      <trkpt lat="42.0310610" lon="-7.0630140">
        <ele>947.9</ele>
        <time>2019-08-16T17:01:24Z</time>
      </trkpt>
      <trkpt lat="42.0310620" lon="-7.0630560">
        <ele>948.1</ele>
        <time>2019-08-16T17:01:27Z</time>
      </trkpt>
      <trkpt lat="42.0310750" lon="-7.0630840">
        <ele>948.3</ele>
        <time>2019-08-16T17:01:33Z</time>
      </trkpt>
      <trkpt lat="42.0310920" lon="-7.0631210">
        <ele>948.6</ele>
        <time>2019-08-16T17:01:37Z</time>
      </trkpt>
      <trkpt lat="42.0311050" lon="-7.0631580">
        <ele>948.8</ele>
        <time>2019-08-16T17:01:41Z</time>
      </trkpt>
      <trkpt lat="42.0311120" lon="-7.0632180">
        <ele>949.1</ele>
        <time>2019-08-16T17:01:49Z</time>
      </trkpt>
      <trkpt lat="42.0311200" lon="-7.0632620">
        <ele>949.4</ele>
        <time>2019-08-16T17:01:51Z</time>
      </trkpt>
      <trkpt lat="42.0311310" lon="-7.0633060">
        <ele>949.7</ele>
        <time>2019-08-16T17:01:53Z</time>
      </trkpt>
      <trkpt lat="42.0311440" lon="-7.0633540">
        <ele>950.0</ele>
        <time>2019-08-16T17:01:55Z</time>
      </trkpt>
      <trkpt lat="42.0311630" lon="-7.0634100">
        <ele>950.3</ele>
        <time>2019-08-16T17:01:57Z</time>
      </trkpt>
      <trkpt lat="42.0311840" lon="-7.0634680">
        <ele>950.7</ele>
        <time>2019-08-16T17:01:59Z</time>
      </trkpt>
      <trkpt lat="42.0312020" lon="-7.0635230">
        <ele>951.0</ele>
        <time>2019-08-16T17:02:01Z</time>
      </trkpt>
      <trkpt lat="42.0312270" lon="-7.0635750">
        <ele>951.3</ele>
        <time>2019-08-16T17:02:03Z</time>
      </trkpt>
      <trkpt lat="42.0312550" lon="-7.0636260">
        <ele>951.6</ele>
        <time>2019-08-16T17:02:05Z</time>
      </trkpt>
      <trkpt lat="42.0312860" lon="-7.0636680">
        <ele>951.8</ele>
        <time>2019-08-16T17:02:07Z</time>
      </trkpt>
      <trkpt lat="42.0313240" lon="-7.0637060">
        <ele>952.2</ele>
        <time>2019-08-16T17:02:09Z</time>
      </trkpt>
      <trkpt lat="42.0313600" lon="-7.0637470">
        <ele>952.5</ele>
        <time>2019-08-16T17:02:11Z</time>
      </trkpt>
      <trkpt lat="42.0313950" lon="-7.0637900">
        <ele>952.8</ele>
        <time>2019-08-16T17:02:13Z</time>
      </trkpt>
      <trkpt lat="42.0314300" lon="-7.0638340">
        <ele>953.2</ele>
        <time>2019-08-16T17:02:15Z</time>
      </trkpt>
      <trkpt lat="42.0314580" lon="-7.0638740">
        <ele>953.4</ele>
        <time>2019-08-16T17:02:17Z</time>
      </trkpt>
      <trkpt lat="42.0314880" lon="-7.0639090">
        <ele>953.7</ele>
        <time>2019-08-16T17:02:19Z</time>
      </trkpt>
      <trkpt lat="42.0315170" lon="-7.0639390">
        <ele>954.0</ele>
        <time>2019-08-16T17:02:21Z</time>
      </trkpt>
      <trkpt lat="42.0315430" lon="-7.0639640">
        <ele>954.4</ele>
        <time>2019-08-16T17:02:23Z</time>
      </trkpt>
      <trkpt lat="42.0315670" lon="-7.0639890">
        <ele>954.7</ele>
        <time>2019-08-16T17:02:25Z</time>
      </trkpt>
      <trkpt lat="42.0315890" lon="-7.0640170">
        <ele>955.1</ele>
        <time>2019-08-16T17:02:27Z</time>
      </trkpt>
      <trkpt lat="42.0316070" lon="-7.0640440">
        <ele>955.4</ele>
        <time>2019-08-16T17:02:29Z</time>
      </trkpt>
      <trkpt lat="42.0316390" lon="-7.0640700">
        <ele>955.9</ele>
        <time>2019-08-16T17:02:32Z</time>
      </trkpt>
      <trkpt lat="42.0316770" lon="-7.0640850">
        <ele>956.5</ele>
        <time>2019-08-16T17:02:35Z</time>
      </trkpt>
      <trkpt lat="42.0317070" lon="-7.0641120">
        <ele>957.1</ele>
        <time>2019-08-16T17:02:38Z</time>
      </trkpt>
      <trkpt lat="42.0317380" lon="-7.0641360">
        <ele>957.7</ele>
        <time>2019-08-16T17:02:41Z</time>
      </trkpt>
      <trkpt lat="42.0317680" lon="-7.0641570">
        <ele>958.2</ele>
        <time>2019-08-16T17:02:44Z</time>
      </trkpt>
      <trkpt lat="42.0318030" lon="-7.0641940">
        <ele>958.8</ele>
        <time>2019-08-16T17:02:47Z</time>
      </trkpt>
      <trkpt lat="42.0318210" lon="-7.0642140">
        <ele>959.2</ele>
        <time>2019-08-16T17:02:49Z</time>
      </trkpt>
      <trkpt lat="42.0318460" lon="-7.0642490">
        <ele>959.7</ele>
        <time>2019-08-16T17:02:52Z</time>
      </trkpt>
      <trkpt lat="42.0318690" lon="-7.0642690">
        <ele>960.2</ele>
        <time>2019-08-16T17:02:55Z</time>
      </trkpt>
      <trkpt lat="42.0318940" lon="-7.0643000">
        <ele>960.8</ele>
        <time>2019-08-16T17:03:01Z</time>
      </trkpt>
      <trkpt lat="42.0319040" lon="-7.0643370">
        <ele>961.4</ele>
        <time>2019-08-16T17:03:05Z</time>
      </trkpt>
      <trkpt lat="42.0319000" lon="-7.0643770">
        <ele>961.9</ele>
        <time>2019-08-16T17:03:10Z</time>
      </trkpt>
      <trkpt lat="42.0319050" lon="-7.0644220">
        <ele>962.5</ele>
        <time>2019-08-16T17:03:15Z</time>
      </trkpt>
      <trkpt lat="42.0319040" lon="-7.0644650">
        <ele>963.0</ele>
        <time>2019-08-16T17:03:19Z</time>
      </trkpt>
      <trkpt lat="42.0318870" lon="-7.0645040">
        <ele>963.5</ele>
        <time>2019-08-16T17:03:23Z</time>
      </trkpt>
      <trkpt lat="42.0318790" lon="-7.0645430">
        <ele>963.9</ele>
        <time>2019-08-16T17:03:28Z</time>
      </trkpt>
      <trkpt lat="42.0318630" lon="-7.0645800">
        <ele>964.3</ele>
        <time>2019-08-16T17:03:32Z</time>
      </trkpt>
      <trkpt lat="42.0318430" lon="-7.0646180">
        <ele>964.8</ele>
        <time>2019-08-16T17:03:36Z</time>
      </trkpt>
      <trkpt lat="42.0318280" lon="-7.0646540">
        <ele>965.2</ele>
        <time>2019-08-16T17:03:41Z</time>
      </trkpt>
      <trkpt lat="42.0318080" lon="-7.0646860">
        <ele>965.6</ele>
        <time>2019-08-16T17:03:46Z</time>
      </trkpt>
      <trkpt lat="42.0318080" lon="-7.0647260">
        <ele>965.9</ele>
        <time>2019-08-16T17:03:51Z</time>
      </trkpt>
      <trkpt lat="42.0318160" lon="-7.0647650">
        <ele>966.2</ele>
        <time>2019-08-16T17:03:56Z</time>
      </trkpt>
      <trkpt lat="42.0318260" lon="-7.0648020">
        <ele>966.4</ele>
        <time>2019-08-16T17:04:00Z</time>
      </trkpt>
      <trkpt lat="42.0318350" lon="-7.0648450">
        <ele>966.7</ele>
        <time>2019-08-16T17:04:04Z</time>
      </trkpt>
      <trkpt lat="42.0318470" lon="-7.0648920">
        <ele>967.0</ele>
        <time>2019-08-16T17:04:08Z</time>
      </trkpt>
      <trkpt lat="42.0318580" lon="-7.0649290">
        <ele>967.2</ele>
        <time>2019-08-16T17:04:12Z</time>
      </trkpt>
      <trkpt lat="42.0318710" lon="-7.0649630">
        <ele>967.3</ele>
        <time>2019-08-16T17:04:17Z</time>
      </trkpt>
      <trkpt lat="42.0318920" lon="-7.0650270">
        <ele>967.5</ele>
        <time>2019-08-16T17:04:24Z</time>
      </trkpt>
      <trkpt lat="42.0319210" lon="-7.0650730">
        <ele>967.6</ele>
        <time>2019-08-16T17:04:26Z</time>
      </trkpt>
      <trkpt lat="42.0319570" lon="-7.0651200">
        <ele>967.7</ele>
        <time>2019-08-16T17:04:28Z</time>
      </trkpt>
      <trkpt lat="42.0320010" lon="-7.0651580">
        <ele>967.8</ele>
        <time>2019-08-16T17:04:30Z</time>
      </trkpt>
      <trkpt lat="42.0320510" lon="-7.0651840">
        <ele>968.0</ele>
        <time>2019-08-16T17:04:32Z</time>
      </trkpt>
      <trkpt lat="42.0320780" lon="-7.0651950">
        <ele>968.2</ele>
        <time>2019-08-16T17:04:33Z</time>
      </trkpt>
      <trkpt lat="42.0321050" lon="-7.0652050">
        <ele>968.3</ele>
        <time>2019-08-16T17:04:34Z</time>
      </trkpt>
      <trkpt lat="42.0321310" lon="-7.0652170">
        <ele>968.5</ele>
        <time>2019-08-16T17:04:35Z</time>
      </trkpt>
      <trkpt lat="42.0321560" lon="-7.0652340">
        <ele>968.6</ele>
        <time>2019-08-16T17:04:36Z</time>
      </trkpt>
      <trkpt lat="42.0321780" lon="-7.0652540">
        <ele>968.8</ele>
        <time>2019-08-16T17:04:37Z</time>
      </trkpt>
      <trkpt lat="42.0322150" lon="-7.0652980">
        <ele>969.3</ele>
        <time>2019-08-16T17:04:39Z</time>
      </trkpt>
      <trkpt lat="42.0322530" lon="-7.0653280">
        <ele>969.8</ele>
        <time>2019-08-16T17:04:41Z</time>
      </trkpt>
      <trkpt lat="42.0322940" lon="-7.0653500">
        <ele>970.3</ele>
        <time>2019-08-16T17:04:43Z</time>
      </trkpt>
      <trkpt lat="42.0323200" lon="-7.0653850">
        <ele>970.8</ele>
        <time>2019-08-16T17:04:45Z</time>
      </trkpt>
      <trkpt lat="42.0323300" lon="-7.0654140">
        <ele>971.2</ele>
        <time>2019-08-16T17:04:47Z</time>
      </trkpt>
      <trkpt lat="42.0323710" lon="-7.0655520">
        <ele>972.8</ele>
        <time>2019-08-16T17:05:14Z</time>
      </trkpt>
      <trkpt lat="42.0323740" lon="-7.0655860">
        <ele>973.0</ele>
        <time>2019-08-16T17:05:18Z</time>
      </trkpt>
      <trkpt lat="42.0323950" lon="-7.0656280">
        <ele>973.3</ele>
        <time>2019-08-16T17:05:22Z</time>
      </trkpt>
      <trkpt lat="42.0324040" lon="-7.0656770">
        <ele>973.7</ele>
        <time>2019-08-16T17:05:26Z</time>
      </trkpt>
      <trkpt lat="42.0324080" lon="-7.0657140">
        <ele>973.9</ele>
        <time>2019-08-16T17:05:29Z</time>
      </trkpt>
      <trkpt lat="42.0324220" lon="-7.0657560">
        <ele>974.2</ele>
        <time>2019-08-16T17:05:33Z</time>
      </trkpt>
      <trkpt lat="42.0324360" lon="-7.0657880">
        <ele>974.4</ele>
        <time>2019-08-16T17:05:36Z</time>
      </trkpt>
      <trkpt lat="42.0324600" lon="-7.0658270">
        <ele>974.7</ele>
        <time>2019-08-16T17:05:45Z</time>
      </trkpt>
      <trkpt lat="42.0324750" lon="-7.0658660">
        <ele>974.9</ele>
        <time>2019-08-16T17:05:47Z</time>
      </trkpt>
      <trkpt lat="42.0324930" lon="-7.0659160">
        <ele>975.2</ele>
        <time>2019-08-16T17:05:49Z</time>
      </trkpt>
      <trkpt lat="42.0325170" lon="-7.0659610">
        <ele>975.5</ele>
        <time>2019-08-16T17:05:51Z</time>
      </trkpt>
      <trkpt lat="42.0325370" lon="-7.0660050">
        <ele>975.8</ele>
        <time>2019-08-16T17:05:53Z</time>
      </trkpt>
      <trkpt lat="42.0325510" lon="-7.0660450">
        <ele>976.0</ele>
        <time>2019-08-16T17:05:55Z</time>
      </trkpt>
      <trkpt lat="42.0325730" lon="-7.0660830">
        <ele>976.3</ele>
        <time>2019-08-16T17:05:57Z</time>
      </trkpt>
      <trkpt lat="42.0325950" lon="-7.0661160">
        <ele>976.7</ele>
        <time>2019-08-16T17:05:59Z</time>
      </trkpt>
      <trkpt lat="42.0326120" lon="-7.0661490">
        <ele>976.9</ele>
        <time>2019-08-16T17:06:01Z</time>
      </trkpt>
      <trkpt lat="42.0326260" lon="-7.0661800">
        <ele>977.0</ele>
        <time>2019-08-16T17:06:03Z</time>
      </trkpt>
      <trkpt lat="42.0326560" lon="-7.0662240">
        <ele>977.3</ele>
        <time>2019-08-16T17:06:06Z</time>
      </trkpt>
      <trkpt lat="42.0326750" lon="-7.0662590">
        <ele>977.6</ele>
        <time>2019-08-16T17:06:08Z</time>
      </trkpt>
      <trkpt lat="42.0326960" lon="-7.0662950">
        <ele>977.9</ele>
        <time>2019-08-16T17:06:10Z</time>
      </trkpt>
      <trkpt lat="42.0327170" lon="-7.0663320">
        <ele>978.2</ele>
        <time>2019-08-16T17:06:12Z</time>
      </trkpt>
      <trkpt lat="42.0327370" lon="-7.0663690">
        <ele>978.4</ele>
        <time>2019-08-16T17:06:14Z</time>
      </trkpt>
      <trkpt lat="42.0327570" lon="-7.0664040">
        <ele>978.6</ele>
        <time>2019-08-16T17:06:16Z</time>
      </trkpt>
      <trkpt lat="42.0327720" lon="-7.0664450">
        <ele>978.7</ele>
        <time>2019-08-16T17:06:18Z</time>
      </trkpt>
      <trkpt lat="42.0327800" lon="-7.0664950">
        <ele>978.9</ele>
        <time>2019-08-16T17:06:20Z</time>
      </trkpt>
      <trkpt lat="42.0327810" lon="-7.0665530">
        <ele>979.0</ele>
        <time>2019-08-16T17:06:22Z</time>
      </trkpt>
      <trkpt lat="42.0327840" lon="-7.0666170">
        <ele>979.1</ele>
        <time>2019-08-16T17:06:24Z</time>
      </trkpt>
      <trkpt lat="42.0327920" lon="-7.0666850">
        <ele>979.1</ele>
        <time>2019-08-16T17:06:26Z</time>
      </trkpt>
      <trkpt lat="42.0328060" lon="-7.0667600">
        <ele>979.2</ele>
        <time>2019-08-16T17:06:28Z</time>
      </trkpt>
      <trkpt lat="42.0328130" lon="-7.0668000">
        <ele>979.2</ele>
        <time>2019-08-16T17:06:29Z</time>
      </trkpt>
      <trkpt lat="42.0328200" lon="-7.0668410">
        <ele>979.2</ele>
        <time>2019-08-16T17:06:30Z</time>
      </trkpt>
      <trkpt lat="42.0328280" lon="-7.0668830">
        <ele>979.2</ele>
        <time>2019-08-16T17:06:31Z</time>
      </trkpt>
      <trkpt lat="42.0328390" lon="-7.0669250">
        <ele>979.1</ele>
        <time>2019-08-16T17:06:32Z</time>
      </trkpt>
      <trkpt lat="42.0328550" lon="-7.0669660">
        <ele>979.1</ele>
        <time>2019-08-16T17:06:33Z</time>
      </trkpt>
      <trkpt lat="42.0328730" lon="-7.0670050">
        <ele>979.1</ele>
        <time>2019-08-16T17:06:34Z</time>
      </trkpt>
      <trkpt lat="42.0328900" lon="-7.0670420">
        <ele>979.0</ele>
        <time>2019-08-16T17:06:35Z</time>
      </trkpt>
      <trkpt lat="42.0329060" lon="-7.0670810">
        <ele>979.0</ele>
        <time>2019-08-16T17:06:36Z</time>
      </trkpt>
      <trkpt lat="42.0329240" lon="-7.0671240">
        <ele>978.9</ele>
        <time>2019-08-16T17:06:37Z</time>
      </trkpt>
      <trkpt lat="42.0329390" lon="-7.0671710">
        <ele>978.8</ele>
        <time>2019-08-16T17:06:38Z</time>
      </trkpt>
      <trkpt lat="42.0329510" lon="-7.0672220">
        <ele>978.8</ele>
        <time>2019-08-16T17:06:39Z</time>
      </trkpt>
      <trkpt lat="42.0329660" lon="-7.0672730">
        <ele>978.7</ele>
        <time>2019-08-16T17:06:40Z</time>
      </trkpt>
      <trkpt lat="42.0329820" lon="-7.0673230">
        <ele>978.6</ele>
        <time>2019-08-16T17:06:41Z</time>
      </trkpt>
      <trkpt lat="42.0329960" lon="-7.0673710">
        <ele>978.6</ele>
        <time>2019-08-16T17:06:42Z</time>
      </trkpt>
      <trkpt lat="42.0330050" lon="-7.0674200">
        <ele>978.6</ele>
        <time>2019-08-16T17:06:43Z</time>
      </trkpt>
      <trkpt lat="42.0330100" lon="-7.0674670">
        <ele>978.6</ele>
        <time>2019-08-16T17:06:44Z</time>
      </trkpt>
      <trkpt lat="42.0330100" lon="-7.0675110">
        <ele>978.6</ele>
        <time>2019-08-16T17:06:45Z</time>
      </trkpt>
      <trkpt lat="42.0330070" lon="-7.0675570">
        <ele>978.6</ele>
        <time>2019-08-16T17:06:46Z</time>
      </trkpt>
      <trkpt lat="42.0330030" lon="-7.0676000">
        <ele>978.6</ele>
        <time>2019-08-16T17:06:47Z</time>
      </trkpt>
      <trkpt lat="42.0330020" lon="-7.0676400">
        <ele>978.7</ele>
        <time>2019-08-16T17:06:48Z</time>
      </trkpt>
      <trkpt lat="42.0330020" lon="-7.0676730">
        <ele>978.7</ele>
        <time>2019-08-16T17:06:49Z</time>
      </trkpt>
      <trkpt lat="42.0330020" lon="-7.0677270">
        <ele>978.7</ele>
        <time>2019-08-16T17:06:51Z</time>
      </trkpt>
      <trkpt lat="42.0330040" lon="-7.0677950">
        <ele>978.7</ele>
        <time>2019-08-16T17:06:53Z</time>
      </trkpt>
      <trkpt lat="42.0330060" lon="-7.0678770">
        <ele>978.7</ele>
        <time>2019-08-16T17:06:55Z</time>
      </trkpt>
      <trkpt lat="42.0330030" lon="-7.0679260">
        <ele>978.8</ele>
        <time>2019-08-16T17:06:56Z</time>
      </trkpt>
      <trkpt lat="42.0329950" lon="-7.0679790">
        <ele>978.8</ele>
        <time>2019-08-16T17:06:57Z</time>
      </trkpt>
      <trkpt lat="42.0329840" lon="-7.0680260">
        <ele>978.9</ele>
        <time>2019-08-16T17:06:58Z</time>
      </trkpt>
      <trkpt lat="42.0329690" lon="-7.0680750">
        <ele>979.0</ele>
        <time>2019-08-16T17:06:59Z</time>
      </trkpt>
      <trkpt lat="42.0329530" lon="-7.0681210">
        <ele>979.1</ele>
        <time>2019-08-16T17:07:00Z</time>
      </trkpt>
      <trkpt lat="42.0329330" lon="-7.0681600">
        <ele>979.2</ele>
        <time>2019-08-16T17:07:01Z</time>
      </trkpt>
      <trkpt lat="42.0329120" lon="-7.0682000">
        <ele>979.3</ele>
        <time>2019-08-16T17:07:02Z</time>
      </trkpt>
      <trkpt lat="42.0328970" lon="-7.0682450">
        <ele>979.4</ele>
        <time>2019-08-16T17:07:03Z</time>
      </trkpt>
      <trkpt lat="42.0328800" lon="-7.0682870">
        <ele>979.5</ele>
        <time>2019-08-16T17:07:04Z</time>
      </trkpt>
      <trkpt lat="42.0328720" lon="-7.0683190">
        <ele>979.7</ele>
        <time>2019-08-16T17:07:05Z</time>
      </trkpt>
      <trkpt lat="42.0328340" lon="-7.0683890">
        <ele>980.0</ele>
        <time>2019-08-16T17:07:07Z</time>
      </trkpt>
      <trkpt lat="42.0328090" lon="-7.0684210">
        <ele>980.2</ele>
        <time>2019-08-16T17:07:08Z</time>
      </trkpt>
      <trkpt lat="42.0327900" lon="-7.0684500">
        <ele>980.4</ele>
        <time>2019-08-16T17:07:09Z</time>
      </trkpt>
      <trkpt lat="42.0327770" lon="-7.0684790">
        <ele>980.6</ele>
        <time>2019-08-16T17:07:10Z</time>
      </trkpt>
      <trkpt lat="42.0327590" lon="-7.0685370">
        <ele>981.0</ele>
        <time>2019-08-16T17:07:12Z</time>
      </trkpt>
      <trkpt lat="42.0327290" lon="-7.0685930">
        <ele>981.4</ele>
        <time>2019-08-16T17:07:14Z</time>
      </trkpt>
      <trkpt lat="42.0327070" lon="-7.0686460">
        <ele>981.6</ele>
        <time>2019-08-16T17:07:16Z</time>
      </trkpt>
      <trkpt lat="42.0326940" lon="-7.0687020">
        <ele>981.8</ele>
        <time>2019-08-16T17:07:18Z</time>
      </trkpt>
      <trkpt lat="42.0327020" lon="-7.0687520">
        <ele>982.0</ele>
        <time>2019-08-16T17:07:20Z</time>
      </trkpt>
      <trkpt lat="42.0327180" lon="-7.0688170">
        <ele>982.1</ele>
        <time>2019-08-16T17:07:22Z</time>
      </trkpt>
      <trkpt lat="42.0327460" lon="-7.0688900">
        <ele>982.2</ele>
        <time>2019-08-16T17:07:24Z</time>
      </trkpt>
      <trkpt lat="42.0327670" lon="-7.0689280">
        <ele>982.3</ele>
        <time>2019-08-16T17:07:25Z</time>
      </trkpt>
      <trkpt lat="42.0327900" lon="-7.0689650">
        <ele>982.4</ele>
        <time>2019-08-16T17:07:26Z</time>
      </trkpt>
      <trkpt lat="42.0328110" lon="-7.0689980">
        <ele>982.5</ele>
        <time>2019-08-16T17:07:27Z</time>
      </trkpt>
      <trkpt lat="42.0328300" lon="-7.0690250">
        <ele>982.5</ele>
        <time>2019-08-16T17:07:28Z</time>
      </trkpt>
      <trkpt lat="42.0328500" lon="-7.0690460">
        <ele>982.6</ele>
        <time>2019-08-16T17:07:29Z</time>
      </trkpt>
      <trkpt lat="42.0328910" lon="-7.0690810">
        <ele>982.7</ele>
        <time>2019-08-16T17:07:31Z</time>
      </trkpt>
      <trkpt lat="42.0329210" lon="-7.0691150">
        <ele>982.9</ele>
        <time>2019-08-16T17:07:33Z</time>
      </trkpt>
      <trkpt lat="42.0329510" lon="-7.0691480">
        <ele>983.0</ele>
        <time>2019-08-16T17:07:35Z</time>
      </trkpt>
      <trkpt lat="42.0329870" lon="-7.0691980">
        <ele>983.1</ele>
        <time>2019-08-16T17:07:37Z</time>
      </trkpt>
      <trkpt lat="42.0330030" lon="-7.0692330">
        <ele>983.2</ele>
        <time>2019-08-16T17:07:38Z</time>
      </trkpt>
      <trkpt lat="42.0330190" lon="-7.0692690">
        <ele>983.3</ele>
        <time>2019-08-16T17:07:39Z</time>
      </trkpt>
      <trkpt lat="42.0330380" lon="-7.0693050">
        <ele>983.3</ele>
        <time>2019-08-16T17:07:40Z</time>
      </trkpt>
      <trkpt lat="42.0330610" lon="-7.0693380">
        <ele>983.4</ele>
        <time>2019-08-16T17:07:41Z</time>
      </trkpt>
      <trkpt lat="42.0330890" lon="-7.0693670">
        <ele>983.5</ele>
        <time>2019-08-16T17:07:42Z</time>
      </trkpt>
      <trkpt lat="42.0331180" lon="-7.0693920">
        <ele>983.6</ele>
        <time>2019-08-16T17:07:43Z</time>
      </trkpt>
      <trkpt lat="42.0331460" lon="-7.0694180">
        <ele>983.6</ele>
        <time>2019-08-16T17:07:44Z</time>
      </trkpt>
      <trkpt lat="42.0331720" lon="-7.0694470">
        <ele>983.7</ele>
        <time>2019-08-16T17:07:45Z</time>
      </trkpt>
      <trkpt lat="42.0331960" lon="-7.0694790">
        <ele>983.8</ele>
        <time>2019-08-16T17:07:46Z</time>
      </trkpt>
      <trkpt lat="42.0332190" lon="-7.0695120">
        <ele>983.9</ele>
        <time>2019-08-16T17:07:47Z</time>
      </trkpt>
      <trkpt lat="42.0332420" lon="-7.0695450">
        <ele>984.0</ele>
        <time>2019-08-16T17:07:48Z</time>
      </trkpt>
      <trkpt lat="42.0332650" lon="-7.0695800">
        <ele>984.0</ele>
        <time>2019-08-16T17:07:49Z</time>
      </trkpt>
      <trkpt lat="42.0332860" lon="-7.0696170">
        <ele>984.1</ele>
        <time>2019-08-16T17:07:50Z</time>
      </trkpt>
      <trkpt lat="42.0333050" lon="-7.0696560">
        <ele>984.2</ele>
        <time>2019-08-16T17:07:51Z</time>
      </trkpt>
      <trkpt lat="42.0333240" lon="-7.0696960">
        <ele>984.4</ele>
        <time>2019-08-16T17:07:52Z</time>
      </trkpt>
      <trkpt lat="42.0333410" lon="-7.0697350">
        <ele>984.5</ele>
        <time>2019-08-16T17:07:53Z</time>
      </trkpt>
      <trkpt lat="42.0333570" lon="-7.0697750">
        <ele>984.6</ele>
        <time>2019-08-16T17:07:54Z</time>
      </trkpt>
      <trkpt lat="42.0333710" lon="-7.0698150">
        <ele>984.7</ele>
        <time>2019-08-16T17:07:55Z</time>
      </trkpt>
      <trkpt lat="42.0333820" lon="-7.0698570">
        <ele>984.9</ele>
        <time>2019-08-16T17:07:56Z</time>
      </trkpt>
      <trkpt lat="42.0333940" lon="-7.0698960">
        <ele>985.1</ele>
        <time>2019-08-16T17:07:57Z</time>
      </trkpt>
      <trkpt lat="42.0334060" lon="-7.0699280">
        <ele>985.3</ele>
        <time>2019-08-16T17:07:58Z</time>
      </trkpt>
      <trkpt lat="42.0334370" lon="-7.0699890">
        <ele>985.7</ele>
        <time>2019-08-16T17:08:00Z</time>
      </trkpt>
      <trkpt lat="42.0334610" lon="-7.0700450">
        <ele>986.0</ele>
        <time>2019-08-16T17:08:02Z</time>
      </trkpt>
      <trkpt lat="42.0334820" lon="-7.0701060">
        <ele>986.5</ele>
        <time>2019-08-16T17:08:04Z</time>
      </trkpt>
      <trkpt lat="42.0335040" lon="-7.0701600">
        <ele>986.9</ele>
        <time>2019-08-16T17:08:06Z</time>
      </trkpt>
      <trkpt lat="42.0335160" lon="-7.0702080">
        <ele>987.1</ele>
        <time>2019-08-16T17:08:08Z</time>
      </trkpt>
      <trkpt lat="42.0335320" lon="-7.0702550">
        <ele>987.4</ele>
        <time>2019-08-16T17:08:10Z</time>
      </trkpt>
      <trkpt lat="42.0335530" lon="-7.0703080">
        <ele>987.7</ele>
        <time>2019-08-16T17:08:12Z</time>
      </trkpt>
      <trkpt lat="42.0335740" lon="-7.0703650">
        <ele>988.1</ele>
        <time>2019-08-16T17:08:14Z</time>
      </trkpt>
      <trkpt lat="42.0335880" lon="-7.0704140">
        <ele>988.4</ele>
        <time>2019-08-16T17:08:16Z</time>
      </trkpt>
      <trkpt lat="42.0336070" lon="-7.0704550">
        <ele>988.7</ele>
        <time>2019-08-16T17:08:18Z</time>
      </trkpt>
      <trkpt lat="42.0336280" lon="-7.0705000">
        <ele>989.1</ele>
        <time>2019-08-16T17:08:20Z</time>
      </trkpt>
      <trkpt lat="42.0336570" lon="-7.0705410">
        <ele>989.6</ele>
        <time>2019-08-16T17:08:22Z</time>
      </trkpt>
      <trkpt lat="42.0336930" lon="-7.0705640">
        <ele>990.1</ele>
        <time>2019-08-16T17:08:24Z</time>
      </trkpt>
      <trkpt lat="42.0337290" lon="-7.0705720">
        <ele>990.5</ele>
        <time>2019-08-16T17:08:26Z</time>
      </trkpt>
      <trkpt lat="42.0337640" lon="-7.0705810">
        <ele>990.9</ele>
        <time>2019-08-16T17:08:28Z</time>
      </trkpt>
      <trkpt lat="42.0337980" lon="-7.0705900">
        <ele>991.4</ele>
        <time>2019-08-16T17:08:30Z</time>
      </trkpt>
      <trkpt lat="42.0338300" lon="-7.0705970">
        <ele>991.8</ele>
        <time>2019-08-16T17:08:32Z</time>
      </trkpt>
      <trkpt lat="42.0338610" lon="-7.0706070">
        <ele>992.1</ele>
        <time>2019-08-16T17:08:34Z</time>
      </trkpt>
      <trkpt lat="42.0338920" lon="-7.0706160">
        <ele>992.5</ele>
        <time>2019-08-16T17:08:36Z</time>
      </trkpt>
      <trkpt lat="42.0339240" lon="-7.0706210">
        <ele>992.8</ele>
        <time>2019-08-16T17:08:38Z</time>
      </trkpt>
      <trkpt lat="42.0339560" lon="-7.0706320">
        <ele>993.2</ele>
        <time>2019-08-16T17:08:40Z</time>
      </trkpt>
      <trkpt lat="42.0339870" lon="-7.0706470">
        <ele>993.6</ele>
        <time>2019-08-16T17:08:42Z</time>
      </trkpt>
      <trkpt lat="42.0340180" lon="-7.0706590">
        <ele>994.1</ele>
        <time>2019-08-16T17:08:44Z</time>
      </trkpt>
      <trkpt lat="42.0340470" lon="-7.0706740">
        <ele>994.5</ele>
        <time>2019-08-16T17:08:46Z</time>
      </trkpt>
      <trkpt lat="42.0340730" lon="-7.0706930">
        <ele>994.8</ele>
        <time>2019-08-16T17:08:48Z</time>
      </trkpt>
      <trkpt lat="42.0341010" lon="-7.0707120">
        <ele>995.1</ele>
        <time>2019-08-16T17:08:50Z</time>
      </trkpt>
      <trkpt lat="42.0341270" lon="-7.0707370">
        <ele>995.5</ele>
        <time>2019-08-16T17:08:52Z</time>
      </trkpt>
      <trkpt lat="42.0341530" lon="-7.0707630">
        <ele>995.8</ele>
        <time>2019-08-16T17:08:54Z</time>
      </trkpt>
      <trkpt lat="42.0341740" lon="-7.0707930">
        <ele>996.2</ele>
        <time>2019-08-16T17:08:56Z</time>
      </trkpt>
      <trkpt lat="42.0341910" lon="-7.0708280">
        <ele>996.6</ele>
        <time>2019-08-16T17:08:58Z</time>
      </trkpt>
      <trkpt lat="42.0342130" lon="-7.0708640">
        <ele>996.9</ele>
        <time>2019-08-16T17:09:00Z</time>
      </trkpt>
      <trkpt lat="42.0342380" lon="-7.0708990">
        <ele>997.2</ele>
        <time>2019-08-16T17:09:02Z</time>
      </trkpt>
      <trkpt lat="42.0342620" lon="-7.0709300">
        <ele>997.5</ele>
        <time>2019-08-16T17:09:04Z</time>
      </trkpt>
      <trkpt lat="42.0342840" lon="-7.0709550">
        <ele>997.7</ele>
        <time>2019-08-16T17:09:06Z</time>
      </trkpt>
      <trkpt lat="42.0343100" lon="-7.0709780">
        <ele>998.0</ele>
        <time>2019-08-16T17:09:08Z</time>
      </trkpt>
      <trkpt lat="42.0343350" lon="-7.0710030">
        <ele>998.2</ele>
        <time>2019-08-16T17:09:10Z</time>
      </trkpt>
      <trkpt lat="42.0343620" lon="-7.0710260">
        <ele>998.4</ele>
        <time>2019-08-16T17:09:12Z</time>
      </trkpt>
      <trkpt lat="42.0343880" lon="-7.0710420">
        <ele>998.6</ele>
        <time>2019-08-16T17:09:14Z</time>
      </trkpt>
      <trkpt lat="42.0344120" lon="-7.0710580">
        <ele>998.8</ele>
        <time>2019-08-16T17:09:16Z</time>
      </trkpt>
      <trkpt lat="42.0344360" lon="-7.0710840">
        <ele>998.9</ele>
        <time>2019-08-16T17:09:18Z</time>
      </trkpt>
      <trkpt lat="42.0344670" lon="-7.0711140">
        <ele>999.1</ele>
        <time>2019-08-16T17:09:20Z</time>
      </trkpt>
      <trkpt lat="42.0345030" lon="-7.0711520">
        <ele>999.4</ele>
        <time>2019-08-16T17:09:22Z</time>
      </trkpt>
      <trkpt lat="42.0345330" lon="-7.0711950">
        <ele>999.5</ele>
        <time>2019-08-16T17:09:24Z</time>
      </trkpt>
      <trkpt lat="42.0345650" lon="-7.0712450">
        <ele>999.7</ele>
        <time>2019-08-16T17:09:26Z</time>
      </trkpt>
      <trkpt lat="42.0345890" lon="-7.0712990">
        <ele>999.8</ele>
        <time>2019-08-16T17:09:28Z</time>
      </trkpt>
      <trkpt lat="42.0346070" lon="-7.0713580">
        <ele>999.9</ele>
        <time>2019-08-16T17:09:30Z</time>
      </trkpt>
      <trkpt lat="42.0346070" lon="-7.0714180">
        <ele>1000.2</ele>
        <time>2019-08-16T17:09:32Z</time>
      </trkpt>
      <trkpt lat="42.0346050" lon="-7.0714730">
        <ele>1000.4</ele>
        <time>2019-08-16T17:09:34Z</time>
      </trkpt>
      <trkpt lat="42.0346080" lon="-7.0715260">
        <ele>1000.6</ele>
        <time>2019-08-16T17:09:36Z</time>
      </trkpt>
      <trkpt lat="42.0346110" lon="-7.0715790">
        <ele>1000.9</ele>
        <time>2019-08-16T17:09:38Z</time>
      </trkpt>
      <trkpt lat="42.0346130" lon="-7.0716260">
        <ele>1001.2</ele>
        <time>2019-08-16T17:09:40Z</time>
      </trkpt>
      <trkpt lat="42.0346130" lon="-7.0716750">
        <ele>1001.5</ele>
        <time>2019-08-16T17:09:42Z</time>
      </trkpt>
      <trkpt lat="42.0346140" lon="-7.0717280">
        <ele>1001.9</ele>
        <time>2019-08-16T17:09:44Z</time>
      </trkpt>
      <trkpt lat="42.0346210" lon="-7.0717740">
        <ele>1002.3</ele>
        <time>2019-08-16T17:09:46Z</time>
      </trkpt>
      <trkpt lat="42.0346310" lon="-7.0718050">
        <ele>1002.6</ele>
        <time>2019-08-16T17:09:48Z</time>
      </trkpt>
      <trkpt lat="42.0346540" lon="-7.0718520">
        <ele>1003.0</ele>
        <time>2019-08-16T17:09:51Z</time>
      </trkpt>
      <trkpt lat="42.0346660" lon="-7.0718830">
        <ele>1003.3</ele>
        <time>2019-08-16T17:09:53Z</time>
      </trkpt>
      <trkpt lat="42.0346740" lon="-7.0719060">
        <ele>1003.4</ele>
        <time>2019-08-16T17:10:00Z</time>
      </trkpt>
      <trkpt lat="42.0347000" lon="-7.0719830">
        <ele>1004.0</ele>
        <time>2019-08-16T17:10:09Z</time>
      </trkpt>
      <trkpt lat="42.0346970" lon="-7.0720170">
        <ele>1004.2</ele>
        <time>2019-08-16T17:10:12Z</time>
      </trkpt>
      <trkpt lat="42.0346900" lon="-7.0720690">
        <ele>1004.6</ele>
        <time>2019-08-16T17:10:16Z</time>
      </trkpt>
      <trkpt lat="42.0346870" lon="-7.0721040">
        <ele>1004.9</ele>
        <time>2019-08-16T17:10:19Z</time>
      </trkpt>
      <trkpt lat="42.0346850" lon="-7.0721480">
        <ele>1005.1</ele>
        <time>2019-08-16T17:10:23Z</time>
      </trkpt>
      <trkpt lat="42.0347000" lon="-7.0721670">
        <ele>1005.3</ele>
        <time>2019-08-16T17:10:29Z</time>
      </trkpt>
      <trkpt lat="42.0346740" lon="-7.0723080">
        <ele>1006.0</ele>
        <time>2019-08-16T17:10:52Z</time>
      </trkpt>
      <trkpt lat="42.0346780" lon="-7.0723600">
        <ele>1006.2</ele>
        <time>2019-08-16T17:10:54Z</time>
      </trkpt>
      <trkpt lat="42.0346840" lon="-7.0724120">
        <ele>1006.5</ele>
        <time>2019-08-16T17:10:56Z</time>
      </trkpt>
      <trkpt lat="42.0346860" lon="-7.0724640">
        <ele>1006.7</ele>
        <time>2019-08-16T17:10:58Z</time>
      </trkpt>
      <trkpt lat="42.0346960" lon="-7.0725180">
        <ele>1006.9</ele>
        <time>2019-08-16T17:11:00Z</time>
      </trkpt>
      <trkpt lat="42.0347060" lon="-7.0725710">
        <ele>1007.1</ele>
        <time>2019-08-16T17:11:02Z</time>
      </trkpt>
      <trkpt lat="42.0347120" lon="-7.0726190">
        <ele>1007.3</ele>
        <time>2019-08-16T17:11:04Z</time>
      </trkpt>
      <trkpt lat="42.0347180" lon="-7.0726580">
        <ele>1007.5</ele>
        <time>2019-08-16T17:11:06Z</time>
      </trkpt>
      <trkpt lat="42.0347290" lon="-7.0727110">
        <ele>1007.8</ele>
        <time>2019-08-16T17:11:08Z</time>
      </trkpt>
      <trkpt lat="42.0347500" lon="-7.0727900">
        <ele>1008.2</ele>
        <time>2019-08-16T17:11:10Z</time>
      </trkpt>
      <trkpt lat="42.0347570" lon="-7.0728250">
        <ele>1008.4</ele>
        <time>2019-08-16T17:11:11Z</time>
      </trkpt>
      <trkpt lat="42.0347570" lon="-7.0728690">
        <ele>1008.6</ele>
        <time>2019-08-16T17:11:13Z</time>
      </trkpt>
      <trkpt lat="42.0347590" lon="-7.0729110">
        <ele>1008.8</ele>
        <time>2019-08-16T17:11:15Z</time>
      </trkpt>
      <trkpt lat="42.0347680" lon="-7.0729590">
        <ele>1009.0</ele>
        <time>2019-08-16T17:11:17Z</time>
      </trkpt>
      <trkpt lat="42.0347760" lon="-7.0730070">
        <ele>1009.1</ele>
        <time>2019-08-16T17:11:19Z</time>
      </trkpt>
      <trkpt lat="42.0347820" lon="-7.0730620">
        <ele>1009.3</ele>
        <time>2019-08-16T17:11:21Z</time>
      </trkpt>
      <trkpt lat="42.0347870" lon="-7.0731220">
        <ele>1009.5</ele>
        <time>2019-08-16T17:11:23Z</time>
      </trkpt>
      <trkpt lat="42.0347890" lon="-7.0731920">
        <ele>1009.6</ele>
        <time>2019-08-16T17:11:25Z</time>
      </trkpt>
      <trkpt lat="42.0347890" lon="-7.0732630">
        <ele>1009.7</ele>
        <time>2019-08-16T17:11:27Z</time>
      </trkpt>
      <trkpt lat="42.0347900" lon="-7.0733260">
        <ele>1009.7</ele>
        <time>2019-08-16T17:11:29Z</time>
      </trkpt>
      <trkpt lat="42.0347880" lon="-7.0733700">
        <ele>1009.7</ele>
        <time>2019-08-16T17:11:31Z</time>
      </trkpt>
      <trkpt lat="42.0348320" lon="-7.0735070">
        <ele>1009.9</ele>
        <time>2019-08-16T17:12:38Z</time>
      </trkpt>
      <trkpt lat="42.0348420" lon="-7.0735450">
        <ele>1009.9</ele>
        <time>2019-08-16T17:12:39Z</time>
      </trkpt>
      <trkpt lat="42.0348490" lon="-7.0735900">
        <ele>1009.9</ele>
        <time>2019-08-16T17:12:40Z</time>
      </trkpt>
      <trkpt lat="42.0348600" lon="-7.0736410">
        <ele>1009.8</ele>
        <time>2019-08-16T17:12:41Z</time>
      </trkpt>
      <trkpt lat="42.0348800" lon="-7.0736960">
        <ele>1009.8</ele>
        <time>2019-08-16T17:12:42Z</time>
      </trkpt>
      <trkpt lat="42.0349080" lon="-7.0737520">
        <ele>1009.7</ele>
        <time>2019-08-16T17:12:43Z</time>
      </trkpt>
      <trkpt lat="42.0349420" lon="-7.0738050">
        <ele>1009.5</ele>
        <time>2019-08-16T17:12:44Z</time>
      </trkpt>
      <trkpt lat="42.0349780" lon="-7.0738550">
        <ele>1009.3</ele>
        <time>2019-08-16T17:12:45Z</time>
      </trkpt>
      <trkpt lat="42.0350160" lon="-7.0739050">
        <ele>1009.0</ele>
        <time>2019-08-16T17:12:46Z</time>
      </trkpt>
      <trkpt lat="42.0350520" lon="-7.0739550">
        <ele>1008.6</ele>
        <time>2019-08-16T17:12:47Z</time>
      </trkpt>
      <trkpt lat="42.0350860" lon="-7.0740150">
        <ele>1008.1</ele>
        <time>2019-08-16T17:12:48Z</time>
      </trkpt>
      <trkpt lat="42.0351220" lon="-7.0740870">
        <ele>1007.5</ele>
        <time>2019-08-16T17:12:49Z</time>
      </trkpt>
      <trkpt lat="42.0351570" lon="-7.0741680">
        <ele>1006.7</ele>
        <time>2019-08-16T17:12:50Z</time>
      </trkpt>
      <trkpt lat="42.0351880" lon="-7.0742570">
        <ele>1005.9</ele>
        <time>2019-08-16T17:12:51Z</time>
      </trkpt>
      <trkpt lat="42.0352160" lon="-7.0743550">
        <ele>1005.1</ele>
        <time>2019-08-16T17:12:52Z</time>
      </trkpt>
      <trkpt lat="42.0352410" lon="-7.0744560">
        <ele>1004.4</ele>
        <time>2019-08-16T17:12:53Z</time>
      </trkpt>
      <trkpt lat="42.0352640" lon="-7.0745580">
        <ele>1003.8</ele>
        <time>2019-08-16T17:12:54Z</time>
      </trkpt>
      <trkpt lat="42.0352840" lon="-7.0746640">
        <ele>1003.4</ele>
        <time>2019-08-16T17:12:55Z</time>
      </trkpt>
      <trkpt lat="42.0352990" lon="-7.0747720">
        <ele>1003.2</ele>
        <time>2019-08-16T17:12:56Z</time>
      </trkpt>
      <trkpt lat="42.0353130" lon="-7.0748780">
        <ele>1003.0</ele>
        <time>2019-08-16T17:12:57Z</time>
      </trkpt>
      <trkpt lat="42.0353300" lon="-7.0749740">
        <ele>1002.9</ele>
        <time>2019-08-16T17:12:58Z</time>
      </trkpt>
      <trkpt lat="42.0353500" lon="-7.0750510">
        <ele>1002.8</ele>
        <time>2019-08-16T17:12:59Z</time>
      </trkpt>
      <trkpt lat="42.0353700" lon="-7.0751060">
        <ele>1002.8</ele>
        <time>2019-08-16T17:13:00Z</time>
      </trkpt>
      <trkpt lat="42.0353860" lon="-7.0751380">
        <ele>1002.8</ele>
        <time>2019-08-16T17:13:01Z</time>
      </trkpt>
      <trkpt lat="42.0353960" lon="-7.0751500">
        <ele>1002.8</ele>
        <time>2019-08-16T17:13:02Z</time>
      </trkpt>
      <trkpt lat="42.0353940" lon="-7.0751470">
        <ele>1002.8</ele>
        <time>2019-08-16T17:13:11Z</time>
      </trkpt>
      <trkpt lat="42.0354710" lon="-7.0752440">
        <ele>1002.4</ele>
        <time>2019-08-16T17:13:52Z</time>
      </trkpt>
      <trkpt lat="42.0355050" lon="-7.0752740">
        <ele>1002.3</ele>
        <time>2019-08-16T17:13:54Z</time>
      </trkpt>
      <trkpt lat="42.0355440" lon="-7.0752980">
        <ele>1002.0</ele>
        <time>2019-08-16T17:13:56Z</time>
      </trkpt>
      <trkpt lat="42.0355790" lon="-7.0753240">
        <ele>1001.7</ele>
        <time>2019-08-16T17:13:58Z</time>
      </trkpt>
      <trkpt lat="42.0356080" lon="-7.0753650">
        <ele>1001.3</ele>
        <time>2019-08-16T17:14:00Z</time>
      </trkpt>
      <trkpt lat="42.0356280" lon="-7.0754350">
        <ele>1000.6</ele>
        <time>2019-08-16T17:14:02Z</time>
      </trkpt>
      <trkpt lat="42.0356370" lon="-7.0754720">
        <ele>1000.3</ele>
        <time>2019-08-16T17:14:03Z</time>
      </trkpt>
      <trkpt lat="42.0356460" lon="-7.0755060">
        <ele>999.9</ele>
        <time>2019-08-16T17:14:04Z</time>
      </trkpt>
      <trkpt lat="42.0356690" lon="-7.0755630">
        <ele>999.4</ele>
        <time>2019-08-16T17:14:06Z</time>
      </trkpt>
      <trkpt lat="42.0356950" lon="-7.0756090">
        <ele>998.9</ele>
        <time>2019-08-16T17:14:08Z</time>
      </trkpt>
      <trkpt lat="42.0357310" lon="-7.0756250">
        <ele>998.5</ele>
        <time>2019-08-16T17:14:10Z</time>
      </trkpt>
      <trkpt lat="42.0357750" lon="-7.0756090">
        <ele>997.9</ele>
        <time>2019-08-16T17:14:12Z</time>
      </trkpt>
      <trkpt lat="42.0358220" lon="-7.0755850">
        <ele>997.4</ele>
        <time>2019-08-16T17:14:14Z</time>
      </trkpt>
      <trkpt lat="42.0358750" lon="-7.0755570">
        <ele>996.8</ele>
        <time>2019-08-16T17:14:16Z</time>
      </trkpt>
      <trkpt lat="42.0359010" lon="-7.0755360">
        <ele>996.5</ele>
        <time>2019-08-16T17:14:17Z</time>
      </trkpt>
      <trkpt lat="42.0359250" lon="-7.0755140">
        <ele>996.2</ele>
        <time>2019-08-16T17:14:18Z</time>
      </trkpt>
      <trkpt lat="42.0359480" lon="-7.0754940">
        <ele>995.9</ele>
        <time>2019-08-16T17:14:19Z</time>
      </trkpt>
      <trkpt lat="42.0359920" lon="-7.0754700">
        <ele>995.5</ele>
        <time>2019-08-16T17:14:21Z</time>
      </trkpt>
      <trkpt lat="42.0360260" lon="-7.0754740">
        <ele>995.3</ele>
        <time>2019-08-16T17:14:23Z</time>
      </trkpt>
      <trkpt lat="42.0360620" lon="-7.0754970">
        <ele>994.9</ele>
        <time>2019-08-16T17:14:25Z</time>
      </trkpt>
      <trkpt lat="42.0360880" lon="-7.0755330">
        <ele>994.7</ele>
        <time>2019-08-16T17:14:27Z</time>
      </trkpt>
      <trkpt lat="42.0360960" lon="-7.0755450">
        <ele>994.7</ele>
        <time>2019-08-16T17:14:30Z</time>
      </trkpt>
      <trkpt lat="42.0361540" lon="-7.0755970">
        <ele>994.4</ele>
        <time>2019-08-16T17:14:59Z</time>
      </trkpt>
      <trkpt lat="42.0361720" lon="-7.0756250">
        <ele>994.2</ele>
        <time>2019-08-16T17:15:02Z</time>
      </trkpt>
      <trkpt lat="42.0361760" lon="-7.0756450">
        <ele>994.2</ele>
        <time>2019-08-16T17:15:10Z</time>
      </trkpt>
      <trkpt lat="42.0362370" lon="-7.0757680">
        <ele>994.0</ele>
        <time>2019-08-16T17:15:27Z</time>
      </trkpt>
      <trkpt lat="42.0362510" lon="-7.0757990">
        <ele>993.9</ele>
        <time>2019-08-16T17:15:30Z</time>
      </trkpt>
      <trkpt lat="42.0362900" lon="-7.0758660">
        <ele>994.0</ele>
        <time>2019-08-16T17:15:55Z</time>
      </trkpt>
      <trkpt lat="42.0363170" lon="-7.0758850">
        <ele>994.1</ele>
        <time>2019-08-16T17:15:58Z</time>
      </trkpt>
      <trkpt lat="42.0363470" lon="-7.0759140">
        <ele>994.3</ele>
        <time>2019-08-16T17:16:02Z</time>
      </trkpt>
      <trkpt lat="42.0363670" lon="-7.0759420">
        <ele>994.4</ele>
        <time>2019-08-16T17:16:04Z</time>
      </trkpt>
      <trkpt lat="42.0363810" lon="-7.0759770">
        <ele>994.6</ele>
        <time>2019-08-16T17:16:07Z</time>
      </trkpt>
      <trkpt lat="42.0363990" lon="-7.0760080">
        <ele>994.7</ele>
        <time>2019-08-16T17:16:10Z</time>
      </trkpt>
      <trkpt lat="42.0364220" lon="-7.0760280">
        <ele>994.9</ele>
        <time>2019-08-16T17:16:14Z</time>
      </trkpt>
      <trkpt lat="42.0364550" lon="-7.0760450">
        <ele>995.2</ele>
        <time>2019-08-16T17:16:19Z</time>
      </trkpt>
      <trkpt lat="42.0364850" lon="-7.0760670">
        <ele>995.5</ele>
        <time>2019-08-16T17:16:23Z</time>
      </trkpt>
      <trkpt lat="42.0365070" lon="-7.0760920">
        <ele>995.8</ele>
        <time>2019-08-16T17:16:29Z</time>
      </trkpt>
      <trkpt lat="42.0365330" lon="-7.0761190">
        <ele>996.2</ele>
        <time>2019-08-16T17:16:34Z</time>
      </trkpt>
      <trkpt lat="42.0365640" lon="-7.0761430">
        <ele>996.7</ele>
        <time>2019-08-16T17:16:38Z</time>
      </trkpt>
      <trkpt lat="42.0365920" lon="-7.0761610">
        <ele>997.1</ele>
        <time>2019-08-16T17:16:42Z</time>
      </trkpt>
      <trkpt lat="42.0366250" lon="-7.0761770">
        <ele>997.6</ele>
        <time>2019-08-16T17:16:46Z</time>
      </trkpt>
      <trkpt lat="42.0366530" lon="-7.0761890">
        <ele>997.9</ele>
        <time>2019-08-16T17:16:50Z</time>
      </trkpt>
      <trkpt lat="42.0366840" lon="-7.0762040">
        <ele>998.3</ele>
        <time>2019-08-16T17:16:56Z</time>
      </trkpt>
      <trkpt lat="42.0367170" lon="-7.0762210">
        <ele>998.7</ele>
        <time>2019-08-16T17:17:00Z</time>
      </trkpt>
      <trkpt lat="42.0367410" lon="-7.0762190">
        <ele>999.0</ele>
        <time>2019-08-16T17:17:04Z</time>
      </trkpt>
      <trkpt lat="42.0367650" lon="-7.0762260">
        <ele>999.3</ele>
        <time>2019-08-16T17:17:13Z</time>
      </trkpt>
      <trkpt lat="42.0368070" lon="-7.0762410">
        <ele>999.8</ele>
        <time>2019-08-16T17:17:16Z</time>
      </trkpt>
      <trkpt lat="42.0368360" lon="-7.0762600">
        <ele>1000.2</ele>
        <time>2019-08-16T17:17:18Z</time>
      </trkpt>
      <trkpt lat="42.0368680" lon="-7.0762790">
        <ele>1000.6</ele>
        <time>2019-08-16T17:17:20Z</time>
      </trkpt>
      <trkpt lat="42.0369000" lon="-7.0763010">
        <ele>1001.1</ele>
        <time>2019-08-16T17:17:22Z</time>
      </trkpt>
      <trkpt lat="42.0369300" lon="-7.0763200">
        <ele>1001.4</ele>
        <time>2019-08-16T17:17:24Z</time>
      </trkpt>
      <trkpt lat="42.0369600" lon="-7.0763370">
        <ele>1001.7</ele>
        <time>2019-08-16T17:17:26Z</time>
      </trkpt>
      <trkpt lat="42.0369920" lon="-7.0763540">
        <ele>1002.1</ele>
        <time>2019-08-16T17:17:28Z</time>
      </trkpt>
      <trkpt lat="42.0370250" lon="-7.0763720">
        <ele>1002.5</ele>
        <time>2019-08-16T17:17:30Z</time>
      </trkpt>
      <trkpt lat="42.0370560" lon="-7.0763930">
        <ele>1002.8</ele>
        <time>2019-08-16T17:17:32Z</time>
      </trkpt>
      <trkpt lat="42.0370840" lon="-7.0764170">
        <ele>1003.1</ele>
        <time>2019-08-16T17:17:34Z</time>
      </trkpt>
      <trkpt lat="42.0371090" lon="-7.0764360">
        <ele>1003.4</ele>
        <time>2019-08-16T17:17:36Z</time>
      </trkpt>
      <trkpt lat="42.0371430" lon="-7.0764620">
        <ele>1003.8</ele>
        <time>2019-08-16T17:17:39Z</time>
      </trkpt>
      <trkpt lat="42.0371590" lon="-7.0764640">
        <ele>1004.0</ele>
        <time>2019-08-16T17:17:42Z</time>
      </trkpt>
      <trkpt lat="42.0371840" lon="-7.0764890">
        <ele>1004.4</ele>
        <time>2019-08-16T17:17:47Z</time>
      </trkpt>
      <trkpt lat="42.0372100" lon="-7.0765110">
        <ele>1004.9</ele>
        <time>2019-08-16T17:17:51Z</time>
      </trkpt>
      <trkpt lat="42.0372350" lon="-7.0765280">
        <ele>1005.2</ele>
        <time>2019-08-16T17:17:54Z</time>
      </trkpt>
      <trkpt lat="42.0372570" lon="-7.0765450">
        <ele>1005.5</ele>
        <time>2019-08-16T17:17:57Z</time>
      </trkpt>
      <trkpt lat="42.0372750" lon="-7.0765720">
        <ele>1005.8</ele>
        <time>2019-08-16T17:18:04Z</time>
      </trkpt>
      <trkpt lat="42.0373040" lon="-7.0766190">
        <ele>1006.2</ele>
        <time>2019-08-16T17:18:08Z</time>
      </trkpt>
      <trkpt lat="42.0373250" lon="-7.0766590">
        <ele>1006.6</ele>
        <time>2019-08-16T17:18:10Z</time>
      </trkpt>
      <trkpt lat="42.0373470" lon="-7.0766930">
        <ele>1006.9</ele>
        <time>2019-08-16T17:18:12Z</time>
      </trkpt>
      <trkpt lat="42.0373690" lon="-7.0767270">
        <ele>1007.2</ele>
        <time>2019-08-16T17:18:14Z</time>
      </trkpt>
      <trkpt lat="42.0373930" lon="-7.0767640">
        <ele>1007.6</ele>
        <time>2019-08-16T17:18:16Z</time>
      </trkpt>
      <trkpt lat="42.0374110" lon="-7.0768010">
        <ele>1007.9</ele>
        <time>2019-08-16T17:18:18Z</time>
      </trkpt>
      <trkpt lat="42.0374270" lon="-7.0768420">
        <ele>1008.2</ele>
        <time>2019-08-16T17:18:20Z</time>
      </trkpt>
      <trkpt lat="42.0374410" lon="-7.0768830">
        <ele>1008.5</ele>
        <time>2019-08-16T17:18:22Z</time>
      </trkpt>
      <trkpt lat="42.0374560" lon="-7.0769170">
        <ele>1008.7</ele>
        <time>2019-08-16T17:18:24Z</time>
      </trkpt>
      <trkpt lat="42.0374720" lon="-7.0769540">
        <ele>1009.0</ele>
        <time>2019-08-16T17:18:26Z</time>
      </trkpt>
      <trkpt lat="42.0374860" lon="-7.0769960">
        <ele>1009.3</ele>
        <time>2019-08-16T17:18:28Z</time>
      </trkpt>
      <trkpt lat="42.0375130" lon="-7.0770480">
        <ele>1009.8</ele>
        <time>2019-08-16T17:18:30Z</time>
      </trkpt>
      <trkpt lat="42.0375290" lon="-7.0770860">
        <ele>1010.1</ele>
        <time>2019-08-16T17:18:32Z</time>
      </trkpt>
      <trkpt lat="42.0375420" lon="-7.0771200">
        <ele>1010.4</ele>
        <time>2019-08-16T17:18:34Z</time>
      </trkpt>
      <trkpt lat="42.0375530" lon="-7.0771600">
        <ele>1010.7</ele>
        <time>2019-08-16T17:18:36Z</time>
      </trkpt>
      <trkpt lat="42.0375680" lon="-7.0772030">
        <ele>1011.0</ele>
        <time>2019-08-16T17:18:38Z</time>
      </trkpt>
      <trkpt lat="42.0375860" lon="-7.0772480">
        <ele>1011.3</ele>
        <time>2019-08-16T17:18:40Z</time>
      </trkpt>
      <trkpt lat="42.0376030" lon="-7.0772930">
        <ele>1011.6</ele>
        <time>2019-08-16T17:18:42Z</time>
      </trkpt>
      <trkpt lat="42.0376170" lon="-7.0773400">
        <ele>1012.0</ele>
        <time>2019-08-16T17:18:44Z</time>
      </trkpt>
      <trkpt lat="42.0376330" lon="-7.0773900">
        <ele>1012.2</ele>
        <time>2019-08-16T17:18:46Z</time>
      </trkpt>
      <trkpt lat="42.0376560" lon="-7.0774230">
        <ele>1012.4</ele>
        <time>2019-08-16T17:18:48Z</time>
      </trkpt>
      <trkpt lat="42.0376750" lon="-7.0774580">
        <ele>1012.5</ele>
        <time>2019-08-16T17:18:50Z</time>
      </trkpt>
      <trkpt lat="42.0376910" lon="-7.0774980">
        <ele>1012.8</ele>
        <time>2019-08-16T17:18:52Z</time>
      </trkpt>
      <trkpt lat="42.0377150" lon="-7.0775300">
        <ele>1013.0</ele>
        <time>2019-08-16T17:18:54Z</time>
      </trkpt>
      <trkpt lat="42.0377460" lon="-7.0775480">
        <ele>1013.2</ele>
        <time>2019-08-16T17:18:56Z</time>
      </trkpt>
      <trkpt lat="42.0377750" lon="-7.0775710">
        <ele>1013.4</ele>
        <time>2019-08-16T17:18:58Z</time>
      </trkpt>
      <trkpt lat="42.0378030" lon="-7.0775970">
        <ele>1013.6</ele>
        <time>2019-08-16T17:19:00Z</time>
      </trkpt>
      <trkpt lat="42.0378360" lon="-7.0776170">
        <ele>1013.8</ele>
        <time>2019-08-16T17:19:02Z</time>
      </trkpt>
      <trkpt lat="42.0378750" lon="-7.0776370">
        <ele>1014.1</ele>
        <time>2019-08-16T17:19:04Z</time>
      </trkpt>
      <trkpt lat="42.0379020" lon="-7.0776560">
        <ele>1014.2</ele>
        <time>2019-08-16T17:19:06Z</time>
      </trkpt>
      <trkpt lat="42.0379320" lon="-7.0776780">
        <ele>1014.4</ele>
        <time>2019-08-16T17:19:08Z</time>
      </trkpt>
      <trkpt lat="42.0379610" lon="-7.0777030">
        <ele>1014.5</ele>
        <time>2019-08-16T17:19:10Z</time>
      </trkpt>
      <trkpt lat="42.0379840" lon="-7.0777240">
        <ele>1014.6</ele>
        <time>2019-08-16T17:19:12Z</time>
      </trkpt>
      <trkpt lat="42.0380160" lon="-7.0777580">
        <ele>1014.7</ele>
        <time>2019-08-16T17:19:14Z</time>
      </trkpt>
      <trkpt lat="42.0380630" lon="-7.0778140">
        <ele>1014.7</ele>
        <time>2019-08-16T17:19:16Z</time>
      </trkpt>
      <trkpt lat="42.0380910" lon="-7.0778400">
        <ele>1014.7</ele>
        <time>2019-08-16T17:19:17Z</time>
      </trkpt>
      <trkpt lat="42.0381210" lon="-7.0778650">
        <ele>1014.6</ele>
        <time>2019-08-16T17:19:18Z</time>
      </trkpt>
      <trkpt lat="42.0381480" lon="-7.0778940">
        <ele>1014.6</ele>
        <time>2019-08-16T17:19:19Z</time>
      </trkpt>
      <trkpt lat="42.0381750" lon="-7.0779240">
        <ele>1014.5</ele>
        <time>2019-08-16T17:19:20Z</time>
      </trkpt>
      <trkpt lat="42.0382040" lon="-7.0779510">
        <ele>1014.4</ele>
        <time>2019-08-16T17:19:21Z</time>
      </trkpt>
      <trkpt lat="42.0382320" lon="-7.0779800">
        <ele>1014.4</ele>
        <time>2019-08-16T17:19:22Z</time>
      </trkpt>
      <trkpt lat="42.0382570" lon="-7.0780110">
        <ele>1014.3</ele>
        <time>2019-08-16T17:19:23Z</time>
      </trkpt>
      <trkpt lat="42.0382820" lon="-7.0780420">
        <ele>1014.3</ele>
        <time>2019-08-16T17:19:24Z</time>
      </trkpt>
      <trkpt lat="42.0383040" lon="-7.0780740">
        <ele>1014.2</ele>
        <time>2019-08-16T17:19:25Z</time>
      </trkpt>
      <trkpt lat="42.0383220" lon="-7.0781050">
        <ele>1014.1</ele>
        <time>2019-08-16T17:19:26Z</time>
      </trkpt>
      <trkpt lat="42.0383360" lon="-7.0781300">
        <ele>1014.1</ele>
        <time>2019-08-16T17:19:27Z</time>
      </trkpt>
      <trkpt lat="42.0383470" lon="-7.0781500">
        <ele>1014.1</ele>
        <time>2019-08-16T17:19:29Z</time>
      </trkpt>
      <trkpt lat="42.0383700" lon="-7.0781680">
        <ele>1014.0</ele>
        <time>2019-08-16T17:19:38Z</time>
      </trkpt>
      <trkpt lat="42.0383630" lon="-7.0781840">
        <ele>1014.0</ele>
        <time>2019-08-16T17:19:44Z</time>
      </trkpt>
      <trkpt lat="42.0383420" lon="-7.0782120">
        <ele>1013.9</ele>
        <time>2019-08-16T17:19:50Z</time>
      </trkpt>
      <trkpt lat="42.0383190" lon="-7.0782380">
        <ele>1013.8</ele>
        <time>2019-08-16T17:19:53Z</time>
      </trkpt>
      <trkpt lat="42.0383010" lon="-7.0782530">
        <ele>1013.8</ele>
        <time>2019-08-16T17:19:56Z</time>
      </trkpt>
      <trkpt lat="42.0382700" lon="-7.0782630">
        <ele>1013.8</ele>
        <time>2019-08-16T17:20:03Z</time>
      </trkpt>
      <trkpt lat="42.0382420" lon="-7.0782680">
        <ele>1013.7</ele>
        <time>2019-08-16T17:20:07Z</time>
      </trkpt>
      <trkpt lat="42.0382100" lon="-7.0783030">
        <ele>1013.7</ele>
        <time>2019-08-16T17:20:10Z</time>
      </trkpt>
      <trkpt lat="42.0381830" lon="-7.0783140">
        <ele>1013.7</ele>
        <time>2019-08-16T17:20:13Z</time>
      </trkpt>
      <trkpt lat="42.0381820" lon="-7.0783500">
        <ele>1013.6</ele>
        <time>2019-08-16T17:20:18Z</time>
      </trkpt>
      <trkpt lat="42.0381570" lon="-7.0784330">
        <ele>1013.5</ele>
        <time>2019-08-16T17:20:38Z</time>
      </trkpt>
      <trkpt lat="42.0381280" lon="-7.0784420">
        <ele>1013.5</ele>
        <time>2019-08-16T17:20:41Z</time>
      </trkpt>
      <trkpt lat="42.0380960" lon="-7.0784590">
        <ele>1013.4</ele>
        <time>2019-08-16T17:20:45Z</time>
      </trkpt>
      <trkpt lat="42.0380690" lon="-7.0784780">
        <ele>1013.4</ele>
        <time>2019-08-16T17:20:48Z</time>
      </trkpt>
      <trkpt lat="42.0380470" lon="-7.0785000">
        <ele>1013.4</ele>
        <time>2019-08-16T17:20:51Z</time>
      </trkpt>
      <trkpt lat="42.0380230" lon="-7.0785220">
        <ele>1013.3</ele>
        <time>2019-08-16T17:20:54Z</time>
      </trkpt>
      <trkpt lat="42.0379990" lon="-7.0785400">
        <ele>1013.2</ele>
        <time>2019-08-16T17:20:57Z</time>
      </trkpt>
      <trkpt lat="42.0379700" lon="-7.0785740">
        <ele>1013.3</ele>
        <time>2019-08-16T17:21:01Z</time>
      </trkpt>
      <trkpt lat="42.0379430" lon="-7.0785930">
        <ele>1013.4</ele>
        <time>2019-08-16T17:21:04Z</time>
      </trkpt>
      <trkpt lat="42.0379110" lon="-7.0786200">
        <ele>1013.4</ele>
        <time>2019-08-16T17:21:08Z</time>
      </trkpt>
      <trkpt lat="42.0378860" lon="-7.0786490">
        <ele>1013.4</ele>
        <time>2019-08-16T17:21:11Z</time>
      </trkpt>
      <trkpt lat="42.0378720" lon="-7.0786860">
        <ele>1013.6</ele>
        <time>2019-08-16T17:21:14Z</time>
      </trkpt>
      <trkpt lat="42.0378600" lon="-7.0787280">
        <ele>1013.7</ele>
        <time>2019-08-16T17:21:17Z</time>
      </trkpt>
      <trkpt lat="42.0378440" lon="-7.0787670">
        <ele>1013.8</ele>
        <time>2019-08-16T17:21:20Z</time>
      </trkpt>
      <trkpt lat="42.0378260" lon="-7.0788090">
        <ele>1014.0</ele>
        <time>2019-08-16T17:21:23Z</time>
      </trkpt>
      <trkpt lat="42.0378110" lon="-7.0788450">
        <ele>1014.1</ele>
        <time>2019-08-16T17:21:26Z</time>
      </trkpt>
      <trkpt lat="42.0377880" lon="-7.0788760">
        <ele>1014.2</ele>
        <time>2019-08-16T17:21:29Z</time>
      </trkpt>
      <trkpt lat="42.0377680" lon="-7.0788950">
        <ele>1014.3</ele>
        <time>2019-08-16T17:21:32Z</time>
      </trkpt>
      <trkpt lat="42.0377560" lon="-7.0789260">
        <ele>1014.4</ele>
        <time>2019-08-16T17:21:37Z</time>
      </trkpt>
      <trkpt lat="42.0377350" lon="-7.0789750">
        <ele>1014.5</ele>
        <time>2019-08-16T17:21:40Z</time>
      </trkpt>
      <trkpt lat="42.0377170" lon="-7.0790150">
        <ele>1014.6</ele>
        <time>2019-08-16T17:21:42Z</time>
      </trkpt>
      <trkpt lat="42.0376960" lon="-7.0790630">
        <ele>1014.6</ele>
        <time>2019-08-16T17:21:44Z</time>
      </trkpt>
      <trkpt lat="42.0376860" lon="-7.0791240">
        <ele>1014.6</ele>
        <time>2019-08-16T17:21:46Z</time>
      </trkpt>
      <trkpt lat="42.0376870" lon="-7.0791820">
        <ele>1014.7</ele>
        <time>2019-08-16T17:21:48Z</time>
      </trkpt>
      <trkpt lat="42.0376920" lon="-7.0792430">
        <ele>1014.8</ele>
        <time>2019-08-16T17:21:50Z</time>
      </trkpt>
      <trkpt lat="42.0376970" lon="-7.0793080">
        <ele>1014.8</ele>
        <time>2019-08-16T17:21:52Z</time>
      </trkpt>
      <trkpt lat="42.0377020" lon="-7.0793680">
        <ele>1014.9</ele>
        <time>2019-08-16T17:21:54Z</time>
      </trkpt>
      <trkpt lat="42.0377120" lon="-7.0794330">
        <ele>1015.0</ele>
        <time>2019-08-16T17:21:56Z</time>
      </trkpt>
      <trkpt lat="42.0377210" lon="-7.0795010">
        <ele>1015.2</ele>
        <time>2019-08-16T17:21:58Z</time>
      </trkpt>
      <trkpt lat="42.0377310" lon="-7.0795730">
        <ele>1015.3</ele>
        <time>2019-08-16T17:22:00Z</time>
      </trkpt>
      <trkpt lat="42.0377350" lon="-7.0796100">
        <ele>1015.4</ele>
        <time>2019-08-16T17:22:01Z</time>
      </trkpt>
      <trkpt lat="42.0377390" lon="-7.0796460">
        <ele>1015.5</ele>
        <time>2019-08-16T17:22:02Z</time>
      </trkpt>
      <trkpt lat="42.0377440" lon="-7.0796840">
        <ele>1015.5</ele>
        <time>2019-08-16T17:22:03Z</time>
      </trkpt>
      <trkpt lat="42.0377520" lon="-7.0797200">
        <ele>1015.6</ele>
        <time>2019-08-16T17:22:04Z</time>
      </trkpt>
      <trkpt lat="42.0377610" lon="-7.0797550">
        <ele>1015.7</ele>
        <time>2019-08-16T17:22:05Z</time>
      </trkpt>
      <trkpt lat="42.0377710" lon="-7.0797890">
        <ele>1015.8</ele>
        <time>2019-08-16T17:22:06Z</time>
      </trkpt>
      <trkpt lat="42.0377830" lon="-7.0798230">
        <ele>1015.8</ele>
        <time>2019-08-16T17:22:07Z</time>
      </trkpt>
      <trkpt lat="42.0377970" lon="-7.0798650">
        <ele>1015.9</ele>
        <time>2019-08-16T17:22:08Z</time>
      </trkpt>
      <trkpt lat="42.0378120" lon="-7.0799010">
        <ele>1015.9</ele>
        <time>2019-08-16T17:22:09Z</time>
      </trkpt>
      <trkpt lat="42.0378280" lon="-7.0799360">
        <ele>1016.0</ele>
        <time>2019-08-16T17:22:10Z</time>
      </trkpt>
      <trkpt lat="42.0378430" lon="-7.0799700">
        <ele>1016.1</ele>
        <time>2019-08-16T17:22:11Z</time>
      </trkpt>
      <trkpt lat="42.0378600" lon="-7.0800040">
        <ele>1016.2</ele>
        <time>2019-08-16T17:22:12Z</time>
      </trkpt>
      <trkpt lat="42.0378770" lon="-7.0800360">
        <ele>1016.3</ele>
        <time>2019-08-16T17:22:13Z</time>
      </trkpt>
      <trkpt lat="42.0378950" lon="-7.0800680">
        <ele>1016.4</ele>
        <time>2019-08-16T17:22:14Z</time>
      </trkpt>
      <trkpt lat="42.0379130" lon="-7.0801000">
        <ele>1016.5</ele>
        <time>2019-08-16T17:22:15Z</time>
      </trkpt>
      <trkpt lat="42.0379330" lon="-7.0801290">
        <ele>1016.6</ele>
        <time>2019-08-16T17:22:16Z</time>
      </trkpt>
      <trkpt lat="42.0379540" lon="-7.0801570">
        <ele>1016.8</ele>
        <time>2019-08-16T17:22:17Z</time>
      </trkpt>
      <trkpt lat="42.0379760" lon="-7.0801830">
        <ele>1016.9</ele>
        <time>2019-08-16T17:22:18Z</time>
      </trkpt>
      <trkpt lat="42.0379980" lon="-7.0802080">
        <ele>1017.0</ele>
        <time>2019-08-16T17:22:19Z</time>
      </trkpt>
      <trkpt lat="42.0380210" lon="-7.0802320">
        <ele>1017.2</ele>
        <time>2019-08-16T17:22:20Z</time>
      </trkpt>
      <trkpt lat="42.0380410" lon="-7.0802540">
        <ele>1017.3</ele>
        <time>2019-08-16T17:22:21Z</time>
      </trkpt>
      <trkpt lat="42.0380760" lon="-7.0802990">
        <ele>1017.7</ele>
        <time>2019-08-16T17:22:23Z</time>
      </trkpt>
      <trkpt lat="42.0381060" lon="-7.0803480">
        <ele>1018.1</ele>
        <time>2019-08-16T17:22:25Z</time>
      </trkpt>
      <trkpt lat="42.0381350" lon="-7.0803980">
        <ele>1018.4</ele>
        <time>2019-08-16T17:22:27Z</time>
      </trkpt>
      <trkpt lat="42.0381570" lon="-7.0804530">
        <ele>1018.7</ele>
        <time>2019-08-16T17:22:29Z</time>
      </trkpt>
      <trkpt lat="42.0381800" lon="-7.0804990">
        <ele>1018.9</ele>
        <time>2019-08-16T17:22:31Z</time>
      </trkpt>
      <trkpt lat="42.0382080" lon="-7.0805540">
        <ele>1019.2</ele>
        <time>2019-08-16T17:22:33Z</time>
      </trkpt>
      <trkpt lat="42.0382270" lon="-7.0806110">
        <ele>1019.5</ele>
        <time>2019-08-16T17:22:35Z</time>
      </trkpt>
      <trkpt lat="42.0382510" lon="-7.0806710">
        <ele>1019.8</ele>
        <time>2019-08-16T17:22:37Z</time>
      </trkpt>
      <trkpt lat="42.0382800" lon="-7.0807370">
        <ele>1020.1</ele>
        <time>2019-08-16T17:22:39Z</time>
      </trkpt>
      <trkpt lat="42.0382970" lon="-7.0807710">
        <ele>1020.3</ele>
        <time>2019-08-16T17:22:40Z</time>
      </trkpt>
      <trkpt lat="42.0383130" lon="-7.0808030">
        <ele>1020.4</ele>
        <time>2019-08-16T17:22:41Z</time>
      </trkpt>
      <trkpt lat="42.0383290" lon="-7.0808350">
        <ele>1020.6</ele>
        <time>2019-08-16T17:22:42Z</time>
      </trkpt>
      <trkpt lat="42.0383430" lon="-7.0808660">
        <ele>1020.7</ele>
        <time>2019-08-16T17:22:43Z</time>
      </trkpt>
      <trkpt lat="42.0383560" lon="-7.0808970">
        <ele>1020.9</ele>
        <time>2019-08-16T17:22:44Z</time>
      </trkpt>
      <trkpt lat="42.0383780" lon="-7.0809590">
        <ele>1021.1</ele>
        <time>2019-08-16T17:22:46Z</time>
      </trkpt>
      <trkpt lat="42.0384000" lon="-7.0810200">
        <ele>1021.4</ele>
        <time>2019-08-16T17:22:48Z</time>
      </trkpt>
      <trkpt lat="42.0384210" lon="-7.0810750">
        <ele>1021.6</ele>
        <time>2019-08-16T17:22:50Z</time>
      </trkpt>
      <trkpt lat="42.0384460" lon="-7.0811280">
        <ele>1021.9</ele>
        <time>2019-08-16T17:22:52Z</time>
      </trkpt>
      <trkpt lat="42.0384710" lon="-7.0811790">
        <ele>1022.2</ele>
        <time>2019-08-16T17:22:54Z</time>
      </trkpt>
      <trkpt lat="42.0384980" lon="-7.0812290">
        <ele>1022.5</ele>
        <time>2019-08-16T17:22:56Z</time>
      </trkpt>
      <trkpt lat="42.0385280" lon="-7.0812740">
        <ele>1023.0</ele>
        <time>2019-08-16T17:22:58Z</time>
      </trkpt>
      <trkpt lat="42.0385560" lon="-7.0813170">
        <ele>1023.3</ele>
        <time>2019-08-16T17:23:00Z</time>
      </trkpt>
      <trkpt lat="42.0385820" lon="-7.0813650">
        <ele>1023.7</ele>
        <time>2019-08-16T17:23:02Z</time>
      </trkpt>
      <trkpt lat="42.0386110" lon="-7.0814140">
        <ele>1024.0</ele>
        <time>2019-08-16T17:23:04Z</time>
      </trkpt>
      <trkpt lat="42.0386440" lon="-7.0814560">
        <ele>1024.4</ele>
        <time>2019-08-16T17:23:06Z</time>
      </trkpt>
      <trkpt lat="42.0386790" lon="-7.0814930">
        <ele>1024.7</ele>
        <time>2019-08-16T17:23:08Z</time>
      </trkpt>
      <trkpt lat="42.0387140" lon="-7.0815290">
        <ele>1025.1</ele>
        <time>2019-08-16T17:23:10Z</time>
      </trkpt>
      <trkpt lat="42.0387530" lon="-7.0815710">
        <ele>1025.4</ele>
        <time>2019-08-16T17:23:12Z</time>
      </trkpt>
      <trkpt lat="42.0387840" lon="-7.0816120">
        <ele>1025.8</ele>
        <time>2019-08-16T17:23:14Z</time>
      </trkpt>
      <trkpt lat="42.0388140" lon="-7.0816550">
        <ele>1026.2</ele>
        <time>2019-08-16T17:23:16Z</time>
      </trkpt>
      <trkpt lat="42.0388410" lon="-7.0817030">
        <ele>1026.5</ele>
        <time>2019-08-16T17:23:18Z</time>
      </trkpt>
      <trkpt lat="42.0388690" lon="-7.0817580">
        <ele>1026.9</ele>
        <time>2019-08-16T17:23:20Z</time>
      </trkpt>
      <trkpt lat="42.0388970" lon="-7.0818150">
        <ele>1027.3</ele>
        <time>2019-08-16T17:23:22Z</time>
      </trkpt>
      <trkpt lat="42.0389200" lon="-7.0818770">
        <ele>1027.6</ele>
        <time>2019-08-16T17:23:24Z</time>
      </trkpt>
      <trkpt lat="42.0389370" lon="-7.0819420">
        <ele>1028.0</ele>
        <time>2019-08-16T17:23:26Z</time>
      </trkpt>
      <trkpt lat="42.0389500" lon="-7.0819980">
        <ele>1028.3</ele>
        <time>2019-08-16T17:23:28Z</time>
      </trkpt>
      <trkpt lat="42.0389590" lon="-7.0820510">
        <ele>1028.6</ele>
        <time>2019-08-16T17:23:30Z</time>
      </trkpt>
      <trkpt lat="42.0389650" lon="-7.0821070">
        <ele>1028.9</ele>
        <time>2019-08-16T17:23:32Z</time>
      </trkpt>
      <trkpt lat="42.0389610" lon="-7.0821620">
        <ele>1029.2</ele>
        <time>2019-08-16T17:23:34Z</time>
      </trkpt>
      <trkpt lat="42.0389510" lon="-7.0822140">
        <ele>1029.6</ele>
        <time>2019-08-16T17:23:36Z</time>
      </trkpt>
      <trkpt lat="42.0389370" lon="-7.0822670">
        <ele>1029.9</ele>
        <time>2019-08-16T17:23:38Z</time>
      </trkpt>
      <trkpt lat="42.0389240" lon="-7.0823230">
        <ele>1030.1</ele>
        <time>2019-08-16T17:23:40Z</time>
      </trkpt>
      <trkpt lat="42.0389140" lon="-7.0823760">
        <ele>1030.4</ele>
        <time>2019-08-16T17:23:42Z</time>
      </trkpt>
      <trkpt lat="42.0389080" lon="-7.0824290">
        <ele>1030.7</ele>
        <time>2019-08-16T17:23:44Z</time>
      </trkpt>
      <trkpt lat="42.0389020" lon="-7.0824840">
        <ele>1031.0</ele>
        <time>2019-08-16T17:23:46Z</time>
      </trkpt>
      <trkpt lat="42.0388940" lon="-7.0825390">
        <ele>1031.4</ele>
        <time>2019-08-16T17:23:48Z</time>
      </trkpt>
      <trkpt lat="42.0388890" lon="-7.0825940">
        <ele>1031.8</ele>
        <time>2019-08-16T17:23:50Z</time>
      </trkpt>
      <trkpt lat="42.0388850" lon="-7.0826490">
        <ele>1032.2</ele>
        <time>2019-08-16T17:23:52Z</time>
      </trkpt>
      <trkpt lat="42.0388790" lon="-7.0827000">
        <ele>1032.5</ele>
        <time>2019-08-16T17:23:54Z</time>
      </trkpt>
      <trkpt lat="42.0388720" lon="-7.0827530">
        <ele>1032.8</ele>
        <time>2019-08-16T17:23:56Z</time>
      </trkpt>
      <trkpt lat="42.0388610" lon="-7.0828000">
        <ele>1033.2</ele>
        <time>2019-08-16T17:23:58Z</time>
      </trkpt>
      <trkpt lat="42.0388420" lon="-7.0828400">
        <ele>1033.5</ele>
        <time>2019-08-16T17:24:00Z</time>
      </trkpt>
      <trkpt lat="42.0388190" lon="-7.0828790">
        <ele>1034.0</ele>
        <time>2019-08-16T17:24:02Z</time>
      </trkpt>
      <trkpt lat="42.0387940" lon="-7.0829150">
        <ele>1034.4</ele>
        <time>2019-08-16T17:24:04Z</time>
      </trkpt>
      <trkpt lat="42.0387690" lon="-7.0829430">
        <ele>1034.7</ele>
        <time>2019-08-16T17:24:06Z</time>
      </trkpt>
      <trkpt lat="42.0387420" lon="-7.0829670">
        <ele>1035.0</ele>
        <time>2019-08-16T17:24:08Z</time>
      </trkpt>
      <trkpt lat="42.0387110" lon="-7.0829910">
        <ele>1035.3</ele>
        <time>2019-08-16T17:24:10Z</time>
      </trkpt>
      <trkpt lat="42.0386810" lon="-7.0830180">
        <ele>1035.7</ele>
        <time>2019-08-16T17:24:12Z</time>
      </trkpt>
      <trkpt lat="42.0386510" lon="-7.0830450">
        <ele>1036.2</ele>
        <time>2019-08-16T17:24:14Z</time>
      </trkpt>
      <trkpt lat="42.0386220" lon="-7.0830730">
        <ele>1036.6</ele>
        <time>2019-08-16T17:24:16Z</time>
      </trkpt>
      <trkpt lat="42.0386000" lon="-7.0831020">
        <ele>1036.9</ele>
        <time>2019-08-16T17:24:18Z</time>
      </trkpt>
      <trkpt lat="42.0385780" lon="-7.0831370">
        <ele>1037.3</ele>
        <time>2019-08-16T17:24:20Z</time>
      </trkpt>
      <trkpt lat="42.0385520" lon="-7.0831730">
        <ele>1037.7</ele>
        <time>2019-08-16T17:24:22Z</time>
      </trkpt>
      <trkpt lat="42.0385310" lon="-7.0832190">
        <ele>1038.1</ele>
        <time>2019-08-16T17:24:24Z</time>
      </trkpt>
      <trkpt lat="42.0385130" lon="-7.0832700">
        <ele>1038.5</ele>
        <time>2019-08-16T17:24:26Z</time>
      </trkpt>
      <trkpt lat="42.0385030" lon="-7.0833240">
        <ele>1038.9</ele>
        <time>2019-08-16T17:24:28Z</time>
      </trkpt>
      <trkpt lat="42.0384940" lon="-7.0833800">
        <ele>1039.1</ele>
        <time>2019-08-16T17:24:30Z</time>
      </trkpt>
      <trkpt lat="42.0384850" lon="-7.0834420">
        <ele>1039.4</ele>
        <time>2019-08-16T17:24:32Z</time>
      </trkpt>
      <trkpt lat="42.0384760" lon="-7.0835040">
        <ele>1039.7</ele>
        <time>2019-08-16T17:24:34Z</time>
      </trkpt>
      <trkpt lat="42.0384700" lon="-7.0835620">
        <ele>1039.9</ele>
        <time>2019-08-16T17:24:36Z</time>
      </trkpt>
      <trkpt lat="42.0384660" lon="-7.0836130">
        <ele>1040.1</ele>
        <time>2019-08-16T17:24:38Z</time>
      </trkpt>
      <trkpt lat="42.0384590" lon="-7.0836670">
        <ele>1040.3</ele>
        <time>2019-08-16T17:24:40Z</time>
      </trkpt>
      <trkpt lat="42.0384580" lon="-7.0837220">
        <ele>1040.6</ele>
        <time>2019-08-16T17:24:42Z</time>
      </trkpt>
      <trkpt lat="42.0384620" lon="-7.0837820">
        <ele>1040.9</ele>
        <time>2019-08-16T17:24:44Z</time>
      </trkpt>
      <trkpt lat="42.0384700" lon="-7.0838390">
        <ele>1041.1</ele>
        <time>2019-08-16T17:24:46Z</time>
      </trkpt>
      <trkpt lat="42.0384780" lon="-7.0838850">
        <ele>1041.4</ele>
        <time>2019-08-16T17:24:48Z</time>
      </trkpt>
      <trkpt lat="42.0384860" lon="-7.0839350">
        <ele>1041.6</ele>
        <time>2019-08-16T17:24:50Z</time>
      </trkpt>
      <trkpt lat="42.0384920" lon="-7.0839860">
        <ele>1041.8</ele>
        <time>2019-08-16T17:24:52Z</time>
      </trkpt>
      <trkpt lat="42.0384920" lon="-7.0840370">
        <ele>1042.0</ele>
        <time>2019-08-16T17:24:54Z</time>
      </trkpt>
      <trkpt lat="42.0384930" lon="-7.0840890">
        <ele>1042.2</ele>
        <time>2019-08-16T17:24:56Z</time>
      </trkpt>
      <trkpt lat="42.0385040" lon="-7.0841470">
        <ele>1042.5</ele>
        <time>2019-08-16T17:24:58Z</time>
      </trkpt>
      <trkpt lat="42.0385240" lon="-7.0842090">
        <ele>1042.8</ele>
        <time>2019-08-16T17:25:00Z</time>
      </trkpt>
      <trkpt lat="42.0385460" lon="-7.0842730">
        <ele>1043.0</ele>
        <time>2019-08-16T17:25:02Z</time>
      </trkpt>
      <trkpt lat="42.0385690" lon="-7.0843360">
        <ele>1043.2</ele>
        <time>2019-08-16T17:25:04Z</time>
      </trkpt>
      <trkpt lat="42.0386020" lon="-7.0843910">
        <ele>1043.4</ele>
        <time>2019-08-16T17:25:06Z</time>
      </trkpt>
      <trkpt lat="42.0386230" lon="-7.0844190">
        <ele>1043.5</ele>
        <time>2019-08-16T17:25:07Z</time>
      </trkpt>
      <trkpt lat="42.0386460" lon="-7.0844440">
        <ele>1043.6</ele>
        <time>2019-08-16T17:25:08Z</time>
      </trkpt>
      <trkpt lat="42.0386730" lon="-7.0844660">
        <ele>1043.6</ele>
        <time>2019-08-16T17:25:09Z</time>
      </trkpt>
      <trkpt lat="42.0387010" lon="-7.0844860">
        <ele>1043.7</ele>
        <time>2019-08-16T17:25:10Z</time>
      </trkpt>
      <trkpt lat="42.0387280" lon="-7.0845040">
        <ele>1043.7</ele>
        <time>2019-08-16T17:25:11Z</time>
      </trkpt>
      <trkpt lat="42.0387550" lon="-7.0845240">
        <ele>1043.7</ele>
        <time>2019-08-16T17:25:12Z</time>
      </trkpt>
      <trkpt lat="42.0387800" lon="-7.0845480">
        <ele>1043.7</ele>
        <time>2019-08-16T17:25:13Z</time>
      </trkpt>
      <trkpt lat="42.0388040" lon="-7.0845730">
        <ele>1043.7</ele>
        <time>2019-08-16T17:25:14Z</time>
      </trkpt>
      <trkpt lat="42.0388240" lon="-7.0845970">
        <ele>1043.8</ele>
        <time>2019-08-16T17:25:15Z</time>
      </trkpt>
      <trkpt lat="42.0388430" lon="-7.0846190">
        <ele>1043.8</ele>
        <time>2019-08-16T17:25:16Z</time>
      </trkpt>
      <trkpt lat="42.0388880" lon="-7.0846650">
        <ele>1043.9</ele>
        <time>2019-08-16T17:25:18Z</time>
      </trkpt>
      <trkpt lat="42.0389120" lon="-7.0846900">
        <ele>1044.0</ele>
        <time>2019-08-16T17:25:19Z</time>
      </trkpt>
      <trkpt lat="42.0389360" lon="-7.0847150">
        <ele>1044.1</ele>
        <time>2019-08-16T17:25:20Z</time>
      </trkpt>
      <trkpt lat="42.0389600" lon="-7.0847380">
        <ele>1044.1</ele>
        <time>2019-08-16T17:25:21Z</time>
      </trkpt>
      <trkpt lat="42.0389850" lon="-7.0847610">
        <ele>1044.2</ele>
        <time>2019-08-16T17:25:22Z</time>
      </trkpt>
      <trkpt lat="42.0390090" lon="-7.0847850">
        <ele>1044.3</ele>
        <time>2019-08-16T17:25:23Z</time>
      </trkpt>
      <trkpt lat="42.0390320" lon="-7.0848080">
        <ele>1044.4</ele>
        <time>2019-08-16T17:25:24Z</time>
      </trkpt>
      <trkpt lat="42.0390540" lon="-7.0848310">
        <ele>1044.5</ele>
        <time>2019-08-16T17:25:25Z</time>
      </trkpt>
      <trkpt lat="42.0390740" lon="-7.0848540">
        <ele>1044.6</ele>
        <time>2019-08-16T17:25:26Z</time>
      </trkpt>
      <trkpt lat="42.0391080" lon="-7.0848920">
        <ele>1044.8</ele>
        <time>2019-08-16T17:25:28Z</time>
      </trkpt>
      <trkpt lat="42.0391400" lon="-7.0849180">
        <ele>1044.9</ele>
        <time>2019-08-16T17:25:30Z</time>
      </trkpt>
      <trkpt lat="42.0391720" lon="-7.0849370">
        <ele>1045.0</ele>
        <time>2019-08-16T17:25:32Z</time>
      </trkpt>
      <trkpt lat="42.0392080" lon="-7.0849290">
        <ele>1045.0</ele>
        <time>2019-08-16T17:25:34Z</time>
      </trkpt>
      <trkpt lat="42.0392420" lon="-7.0848940">
        <ele>1045.0</ele>
        <time>2019-08-16T17:25:36Z</time>
      </trkpt>
      <trkpt lat="42.0392760" lon="-7.0848560">
        <ele>1045.0</ele>
        <time>2019-08-16T17:25:38Z</time>
      </trkpt>
      <trkpt lat="42.0393110" lon="-7.0848220">
        <ele>1045.1</ele>
        <time>2019-08-16T17:25:40Z</time>
      </trkpt>
      <trkpt lat="42.0393500" lon="-7.0847980">
        <ele>1045.3</ele>
        <time>2019-08-16T17:25:42Z</time>
      </trkpt>
      <trkpt lat="42.0393920" lon="-7.0847850">
        <ele>1045.3</ele>
        <time>2019-08-16T17:25:44Z</time>
      </trkpt>
      <trkpt lat="42.0394360" lon="-7.0847780">
        <ele>1045.5</ele>
        <time>2019-08-16T17:25:46Z</time>
      </trkpt>
      <trkpt lat="42.0394820" lon="-7.0847840">
        <ele>1045.8</ele>
        <time>2019-08-16T17:25:48Z</time>
      </trkpt>
      <trkpt lat="42.0395330" lon="-7.0848000">
        <ele>1046.3</ele>
        <time>2019-08-16T17:25:50Z</time>
      </trkpt>
      <trkpt lat="42.0395870" lon="-7.0848210">
        <ele>1046.4</ele>
        <time>2019-08-16T17:25:52Z</time>
      </trkpt>
      <trkpt lat="42.0396160" lon="-7.0848360">
        <ele>1046.4</ele>
        <time>2019-08-16T17:25:53Z</time>
      </trkpt>
      <trkpt lat="42.0396440" lon="-7.0848550">
        <ele>1046.6</ele>
        <time>2019-08-16T17:25:54Z</time>
      </trkpt>
      <trkpt lat="42.0396730" lon="-7.0848780">
        <ele>1046.8</ele>
        <time>2019-08-16T17:25:55Z</time>
      </trkpt>
      <trkpt lat="42.0397010" lon="-7.0849020">
        <ele>1047.0</ele>
        <time>2019-08-16T17:25:56Z</time>
      </trkpt>
      <trkpt lat="42.0397280" lon="-7.0849280">
        <ele>1047.2</ele>
        <time>2019-08-16T17:25:57Z</time>
      </trkpt>
      <trkpt lat="42.0397550" lon="-7.0849560">
        <ele>1047.4</ele>
        <time>2019-08-16T17:25:58Z</time>
      </trkpt>
      <trkpt lat="42.0397820" lon="-7.0849850">
        <ele>1047.7</ele>
        <time>2019-08-16T17:25:59Z</time>
      </trkpt>
      <trkpt lat="42.0398100" lon="-7.0850140">
        <ele>1047.9</ele>
        <time>2019-08-16T17:26:00Z</time>
      </trkpt>
      <trkpt lat="42.0398400" lon="-7.0850390">
        <ele>1048.0</ele>
        <time>2019-08-16T17:26:01Z</time>
      </trkpt>
      <trkpt lat="42.0398710" lon="-7.0850640">
        <ele>1048.2</ele>
        <time>2019-08-16T17:26:02Z</time>
      </trkpt>
      <trkpt lat="42.0399010" lon="-7.0850910">
        <ele>1048.4</ele>
        <time>2019-08-16T17:26:03Z</time>
      </trkpt>
      <trkpt lat="42.0399300" lon="-7.0851190">
        <ele>1048.6</ele>
        <time>2019-08-16T17:26:04Z</time>
      </trkpt>
      <trkpt lat="42.0399580" lon="-7.0851470">
        <ele>1048.8</ele>
        <time>2019-08-16T17:26:05Z</time>
      </trkpt>
      <trkpt lat="42.0399860" lon="-7.0851750">
        <ele>1048.9</ele>
        <time>2019-08-16T17:26:06Z</time>
      </trkpt>
      <trkpt lat="42.0400130" lon="-7.0852030">
        <ele>1049.1</ele>
        <time>2019-08-16T17:26:07Z</time>
      </trkpt>
      <trkpt lat="42.0400390" lon="-7.0852300">
        <ele>1049.3</ele>
        <time>2019-08-16T17:26:08Z</time>
      </trkpt>
      <trkpt lat="42.0400640" lon="-7.0852570">
        <ele>1049.4</ele>
        <time>2019-08-16T17:26:09Z</time>
      </trkpt>
      <trkpt lat="42.0400890" lon="-7.0852840">
        <ele>1049.6</ele>
        <time>2019-08-16T17:26:10Z</time>
      </trkpt>
      <trkpt lat="42.0401150" lon="-7.0853090">
        <ele>1049.9</ele>
        <time>2019-08-16T17:26:11Z</time>
      </trkpt>
      <trkpt lat="42.0401420" lon="-7.0853320">
        <ele>1049.9</ele>
        <time>2019-08-16T17:26:12Z</time>
      </trkpt>
      <trkpt lat="42.0401670" lon="-7.0853580">
        <ele>1050.0</ele>
        <time>2019-08-16T17:26:13Z</time>
      </trkpt>
      <trkpt lat="42.0401900" lon="-7.0853860">
        <ele>1050.1</ele>
        <time>2019-08-16T17:26:14Z</time>
      </trkpt>
      <trkpt lat="42.0402140" lon="-7.0854140">
        <ele>1050.1</ele>
        <time>2019-08-16T17:26:15Z</time>
      </trkpt>
      <trkpt lat="42.0402380" lon="-7.0854410">
        <ele>1050.2</ele>
        <time>2019-08-16T17:26:16Z</time>
      </trkpt>
      <trkpt lat="42.0402630" lon="-7.0854660">
        <ele>1050.3</ele>
        <time>2019-08-16T17:26:17Z</time>
      </trkpt>
      <trkpt lat="42.0402880" lon="-7.0854890">
        <ele>1050.3</ele>
        <time>2019-08-16T17:26:18Z</time>
      </trkpt>
      <trkpt lat="42.0403120" lon="-7.0855140">
        <ele>1050.4</ele>
        <time>2019-08-16T17:26:19Z</time>
      </trkpt>
      <trkpt lat="42.0403360" lon="-7.0855390">
        <ele>1050.5</ele>
        <time>2019-08-16T17:26:20Z</time>
      </trkpt>
      <trkpt lat="42.0403590" lon="-7.0855640">
        <ele>1050.5</ele>
        <time>2019-08-16T17:26:21Z</time>
      </trkpt>
      <trkpt lat="42.0403820" lon="-7.0855890">
        <ele>1050.6</ele>
        <time>2019-08-16T17:26:22Z</time>
      </trkpt>
      <trkpt lat="42.0404050" lon="-7.0856130">
        <ele>1050.6</ele>
        <time>2019-08-16T17:26:23Z</time>
      </trkpt>
      <trkpt lat="42.0404290" lon="-7.0856360">
        <ele>1050.7</ele>
        <time>2019-08-16T17:26:24Z</time>
      </trkpt>
      <trkpt lat="42.0404530" lon="-7.0856590">
        <ele>1050.8</ele>
        <time>2019-08-16T17:26:25Z</time>
      </trkpt>
      <trkpt lat="42.0404770" lon="-7.0856820">
        <ele>1050.8</ele>
        <time>2019-08-16T17:26:26Z</time>
      </trkpt>
      <trkpt lat="42.0405010" lon="-7.0857040">
        <ele>1050.9</ele>
        <time>2019-08-16T17:26:27Z</time>
      </trkpt>
      <trkpt lat="42.0405250" lon="-7.0857270">
        <ele>1050.9</ele>
        <time>2019-08-16T17:26:28Z</time>
      </trkpt>
      <trkpt lat="42.0405480" lon="-7.0857510">
        <ele>1051.0</ele>
        <time>2019-08-16T17:26:29Z</time>
      </trkpt>
      <trkpt lat="42.0405720" lon="-7.0857740">
        <ele>1051.0</ele>
        <time>2019-08-16T17:26:30Z</time>
      </trkpt>
      <trkpt lat="42.0405960" lon="-7.0857950">
        <ele>1051.1</ele>
        <time>2019-08-16T17:26:31Z</time>
      </trkpt>
      <trkpt lat="42.0406210" lon="-7.0858150">
        <ele>1051.1</ele>
        <time>2019-08-16T17:26:32Z</time>
      </trkpt>
      <trkpt lat="42.0406440" lon="-7.0858370">
        <ele>1051.2</ele>
        <time>2019-08-16T17:26:33Z</time>
      </trkpt>
      <trkpt lat="42.0406680" lon="-7.0858590">
        <ele>1051.2</ele>
        <time>2019-08-16T17:26:34Z</time>
      </trkpt>
      <trkpt lat="42.0406910" lon="-7.0858820">
        <ele>1051.3</ele>
        <time>2019-08-16T17:26:35Z</time>
      </trkpt>
      <trkpt lat="42.0407150" lon="-7.0859050">
        <ele>1051.3</ele>
        <time>2019-08-16T17:26:36Z</time>
      </trkpt>
      <trkpt lat="42.0407380" lon="-7.0859280">
        <ele>1051.4</ele>
        <time>2019-08-16T17:26:37Z</time>
      </trkpt>
      <trkpt lat="42.0407620" lon="-7.0859510">
        <ele>1051.5</ele>
        <time>2019-08-16T17:26:38Z</time>
      </trkpt>
      <trkpt lat="42.0407850" lon="-7.0859730">
        <ele>1051.5</ele>
        <time>2019-08-16T17:26:39Z</time>
      </trkpt>
      <trkpt lat="42.0408080" lon="-7.0859950">
        <ele>1051.6</ele>
        <time>2019-08-16T17:26:40Z</time>
      </trkpt>
      <trkpt lat="42.0408300" lon="-7.0860180">
        <ele>1051.6</ele>
        <time>2019-08-16T17:26:41Z</time>
      </trkpt>
      <trkpt lat="42.0408520" lon="-7.0860400">
        <ele>1051.7</ele>
        <time>2019-08-16T17:26:42Z</time>
      </trkpt>
      <trkpt lat="42.0408740" lon="-7.0860600">
        <ele>1051.8</ele>
        <time>2019-08-16T17:26:43Z</time>
      </trkpt>
      <trkpt lat="42.0409200" lon="-7.0860990">
        <ele>1051.9</ele>
        <time>2019-08-16T17:26:45Z</time>
      </trkpt>
      <trkpt lat="42.0409660" lon="-7.0861370">
        <ele>1052.0</ele>
        <time>2019-08-16T17:26:47Z</time>
      </trkpt>
      <trkpt lat="42.0410110" lon="-7.0861750">
        <ele>1052.1</ele>
        <time>2019-08-16T17:26:49Z</time>
      </trkpt>
      <trkpt lat="42.0410580" lon="-7.0862120">
        <ele>1052.2</ele>
        <time>2019-08-16T17:26:51Z</time>
      </trkpt>
      <trkpt lat="42.0411060" lon="-7.0862470">
        <ele>1052.3</ele>
        <time>2019-08-16T17:26:53Z</time>
      </trkpt>
      <trkpt lat="42.0411310" lon="-7.0862630">
        <ele>1052.4</ele>
        <time>2019-08-16T17:26:54Z</time>
      </trkpt>
      <trkpt lat="42.0411560" lon="-7.0862790">
        <ele>1052.4</ele>
        <time>2019-08-16T17:26:55Z</time>
      </trkpt>
      <trkpt lat="42.0411810" lon="-7.0862950">
        <ele>1052.5</ele>
        <time>2019-08-16T17:26:56Z</time>
      </trkpt>
      <trkpt lat="42.0412060" lon="-7.0863110">
        <ele>1052.5</ele>
        <time>2019-08-16T17:26:57Z</time>
      </trkpt>
      <trkpt lat="42.0412310" lon="-7.0863270">
        <ele>1052.6</ele>
        <time>2019-08-16T17:26:58Z</time>
      </trkpt>
      <trkpt lat="42.0412550" lon="-7.0863440">
        <ele>1052.6</ele>
        <time>2019-08-16T17:26:59Z</time>
      </trkpt>
      <trkpt lat="42.0412800" lon="-7.0863620">
        <ele>1052.7</ele>
        <time>2019-08-16T17:27:00Z</time>
      </trkpt>
      <trkpt lat="42.0413040" lon="-7.0863820">
        <ele>1052.8</ele>
        <time>2019-08-16T17:27:01Z</time>
      </trkpt>
      <trkpt lat="42.0413300" lon="-7.0864070">
        <ele>1052.9</ele>
        <time>2019-08-16T17:27:02Z</time>
      </trkpt>
      <trkpt lat="42.0413550" lon="-7.0864350">
        <ele>1052.9</ele>
        <time>2019-08-16T17:27:03Z</time>
      </trkpt>
      <trkpt lat="42.0413790" lon="-7.0864630">
        <ele>1052.9</ele>
        <time>2019-08-16T17:27:04Z</time>
      </trkpt>
      <trkpt lat="42.0414010" lon="-7.0864900">
        <ele>1052.9</ele>
        <time>2019-08-16T17:27:05Z</time>
      </trkpt>
      <trkpt lat="42.0414240" lon="-7.0865140">
        <ele>1052.9</ele>
        <time>2019-08-16T17:27:06Z</time>
      </trkpt>
      <trkpt lat="42.0414480" lon="-7.0865380">
        <ele>1052.9</ele>
        <time>2019-08-16T17:27:07Z</time>
      </trkpt>
      <trkpt lat="42.0414730" lon="-7.0865620">
        <ele>1052.9</ele>
        <time>2019-08-16T17:27:08Z</time>
      </trkpt>
      <trkpt lat="42.0415000" lon="-7.0865850">
        <ele>1052.9</ele>
        <time>2019-08-16T17:27:09Z</time>
      </trkpt>
      <trkpt lat="42.0415280" lon="-7.0866080">
        <ele>1052.9</ele>
        <time>2019-08-16T17:27:10Z</time>
      </trkpt>
      <trkpt lat="42.0415560" lon="-7.0866290">
        <ele>1052.9</ele>
        <time>2019-08-16T17:27:11Z</time>
      </trkpt>
      <trkpt lat="42.0415860" lon="-7.0866510">
        <ele>1052.9</ele>
        <time>2019-08-16T17:27:12Z</time>
      </trkpt>
      <trkpt lat="42.0416160" lon="-7.0866720">
        <ele>1052.9</ele>
        <time>2019-08-16T17:27:13Z</time>
      </trkpt>
      <trkpt lat="42.0416460" lon="-7.0866920">
        <ele>1052.9</ele>
        <time>2019-08-16T17:27:14Z</time>
      </trkpt>
      <trkpt lat="42.0416770" lon="-7.0867130">
        <ele>1053.0</ele>
        <time>2019-08-16T17:27:15Z</time>
      </trkpt>
      <trkpt lat="42.0417070" lon="-7.0867350">
        <ele>1053.1</ele>
        <time>2019-08-16T17:27:16Z</time>
      </trkpt>
      <trkpt lat="42.0417370" lon="-7.0867570">
        <ele>1053.1</ele>
        <time>2019-08-16T17:27:17Z</time>
      </trkpt>
      <trkpt lat="42.0417680" lon="-7.0867780">
        <ele>1053.3</ele>
        <time>2019-08-16T17:27:18Z</time>
      </trkpt>
      <trkpt lat="42.0417980" lon="-7.0868000">
        <ele>1053.4</ele>
        <time>2019-08-16T17:27:19Z</time>
      </trkpt>
      <trkpt lat="42.0418280" lon="-7.0868220">
        <ele>1053.5</ele>
        <time>2019-08-16T17:27:20Z</time>
      </trkpt>
      <trkpt lat="42.0418560" lon="-7.0868440">
        <ele>1053.7</ele>
        <time>2019-08-16T17:27:21Z</time>
      </trkpt>
      <trkpt lat="42.0418840" lon="-7.0868670">
        <ele>1053.8</ele>
        <time>2019-08-16T17:27:22Z</time>
      </trkpt>
      <trkpt lat="42.0419100" lon="-7.0868900">
        <ele>1054.0</ele>
        <time>2019-08-16T17:27:23Z</time>
      </trkpt>
      <trkpt lat="42.0419360" lon="-7.0869130">
        <ele>1054.1</ele>
        <time>2019-08-16T17:27:24Z</time>
      </trkpt>
      <trkpt lat="42.0419620" lon="-7.0869350">
        <ele>1054.3</ele>
        <time>2019-08-16T17:27:25Z</time>
      </trkpt>
      <trkpt lat="42.0419880" lon="-7.0869570">
        <ele>1054.4</ele>
        <time>2019-08-16T17:27:26Z</time>
      </trkpt>
      <trkpt lat="42.0420150" lon="-7.0869780">
        <ele>1054.5</ele>
        <time>2019-08-16T17:27:27Z</time>
      </trkpt>
      <trkpt lat="42.0420410" lon="-7.0870000">
        <ele>1054.6</ele>
        <time>2019-08-16T17:27:28Z</time>
      </trkpt>
      <trkpt lat="42.0420670" lon="-7.0870220">
        <ele>1054.7</ele>
        <time>2019-08-16T17:27:29Z</time>
      </trkpt>
      <trkpt lat="42.0420920" lon="-7.0870450">
        <ele>1054.8</ele>
        <time>2019-08-16T17:27:30Z</time>
      </trkpt>
      <trkpt lat="42.0421160" lon="-7.0870670">
        <ele>1055.0</ele>
        <time>2019-08-16T17:27:31Z</time>
      </trkpt>
      <trkpt lat="42.0421410" lon="-7.0870880">
        <ele>1055.1</ele>
        <time>2019-08-16T17:27:32Z</time>
      </trkpt>
      <trkpt lat="42.0421650" lon="-7.0871090">
        <ele>1055.3</ele>
        <time>2019-08-16T17:27:33Z</time>
      </trkpt>
      <trkpt lat="42.0421880" lon="-7.0871310">
        <ele>1055.4</ele>
        <time>2019-08-16T17:27:34Z</time>
      </trkpt>
      <trkpt lat="42.0422110" lon="-7.0871530">
        <ele>1055.5</ele>
        <time>2019-08-16T17:27:35Z</time>
      </trkpt>
      <trkpt lat="42.0422350" lon="-7.0871740">
        <ele>1055.7</ele>
        <time>2019-08-16T17:27:36Z</time>
      </trkpt>
      <trkpt lat="42.0422590" lon="-7.0871960">
        <ele>1055.8</ele>
        <time>2019-08-16T17:27:37Z</time>
      </trkpt>
      <trkpt lat="42.0422830" lon="-7.0872190">
        <ele>1055.9</ele>
        <time>2019-08-16T17:27:38Z</time>
      </trkpt>
      <trkpt lat="42.0423080" lon="-7.0872450">
        <ele>1056.0</ele>
        <time>2019-08-16T17:27:39Z</time>
      </trkpt>
      <trkpt lat="42.0423340" lon="-7.0872750">
        <ele>1056.1</ele>
        <time>2019-08-16T17:27:40Z</time>
      </trkpt>
      <trkpt lat="42.0423590" lon="-7.0873070">
        <ele>1056.3</ele>
        <time>2019-08-16T17:27:41Z</time>
      </trkpt>
      <trkpt lat="42.0423860" lon="-7.0873380">
        <ele>1056.4</ele>
        <time>2019-08-16T17:27:42Z</time>
      </trkpt>
      <trkpt lat="42.0424130" lon="-7.0873680">
        <ele>1056.6</ele>
        <time>2019-08-16T17:27:43Z</time>
      </trkpt>
      <trkpt lat="42.0424410" lon="-7.0873970">
        <ele>1056.8</ele>
        <time>2019-08-16T17:27:44Z</time>
      </trkpt>
      <trkpt lat="42.0424710" lon="-7.0874240">
        <ele>1056.9</ele>
        <time>2019-08-16T17:27:45Z</time>
      </trkpt>
      <trkpt lat="42.0425010" lon="-7.0874520">
        <ele>1057.1</ele>
        <time>2019-08-16T17:27:46Z</time>
      </trkpt>
      <trkpt lat="42.0425310" lon="-7.0874790">
        <ele>1057.3</ele>
        <time>2019-08-16T17:27:47Z</time>
      </trkpt>
      <trkpt lat="42.0425570" lon="-7.0875060">
        <ele>1057.4</ele>
        <time>2019-08-16T17:27:48Z</time>
      </trkpt>
      <trkpt lat="42.0425820" lon="-7.0875310">
        <ele>1057.4</ele>
        <time>2019-08-16T17:27:49Z</time>
      </trkpt>
      <trkpt lat="42.0426050" lon="-7.0875540">
        <ele>1057.5</ele>
        <time>2019-08-16T17:27:50Z</time>
      </trkpt>
      <trkpt lat="42.0426270" lon="-7.0875810">
        <ele>1057.5</ele>
        <time>2019-08-16T17:27:51Z</time>
      </trkpt>
      <trkpt lat="42.0426490" lon="-7.0876110">
        <ele>1057.6</ele>
        <time>2019-08-16T17:27:52Z</time>
      </trkpt>
      <trkpt lat="42.0426720" lon="-7.0876430">
        <ele>1057.6</ele>
        <time>2019-08-16T17:27:53Z</time>
      </trkpt>
      <trkpt lat="42.0426960" lon="-7.0876740">
        <ele>1057.6</ele>
        <time>2019-08-16T17:27:54Z</time>
      </trkpt>
      <trkpt lat="42.0427200" lon="-7.0877040">
        <ele>1057.6</ele>
        <time>2019-08-16T17:27:55Z</time>
      </trkpt>
      <trkpt lat="42.0427440" lon="-7.0877360">
        <ele>1057.6</ele>
        <time>2019-08-16T17:27:56Z</time>
      </trkpt>
      <trkpt lat="42.0427690" lon="-7.0877680">
        <ele>1057.6</ele>
        <time>2019-08-16T17:27:57Z</time>
      </trkpt>
      <trkpt lat="42.0427980" lon="-7.0877990">
        <ele>1057.6</ele>
        <time>2019-08-16T17:27:58Z</time>
      </trkpt>
      <trkpt lat="42.0428300" lon="-7.0878310">
        <ele>1057.6</ele>
        <time>2019-08-16T17:27:59Z</time>
      </trkpt>
      <trkpt lat="42.0428620" lon="-7.0878630">
        <ele>1057.6</ele>
        <time>2019-08-16T17:28:00Z</time>
      </trkpt>
      <trkpt lat="42.0428920" lon="-7.0878970">
        <ele>1057.6</ele>
        <time>2019-08-16T17:28:01Z</time>
      </trkpt>
      <trkpt lat="42.0429210" lon="-7.0879330">
        <ele>1057.6</ele>
        <time>2019-08-16T17:28:02Z</time>
      </trkpt>
      <trkpt lat="42.0429500" lon="-7.0879690">
        <ele>1057.6</ele>
        <time>2019-08-16T17:28:03Z</time>
      </trkpt>
      <trkpt lat="42.0429830" lon="-7.0880070">
        <ele>1057.6</ele>
        <time>2019-08-16T17:28:04Z</time>
      </trkpt>
      <trkpt lat="42.0430190" lon="-7.0880450">
        <ele>1057.6</ele>
        <time>2019-08-16T17:28:05Z</time>
      </trkpt>
      <trkpt lat="42.0430570" lon="-7.0880830">
        <ele>1057.6</ele>
        <time>2019-08-16T17:28:06Z</time>
      </trkpt>
      <trkpt lat="42.0430960" lon="-7.0881170">
        <ele>1057.6</ele>
        <time>2019-08-16T17:28:07Z</time>
      </trkpt>
      <trkpt lat="42.0431340" lon="-7.0881500">
        <ele>1057.6</ele>
        <time>2019-08-16T17:28:08Z</time>
      </trkpt>
      <trkpt lat="42.0431720" lon="-7.0881810">
        <ele>1057.6</ele>
        <time>2019-08-16T17:28:09Z</time>
      </trkpt>
      <trkpt lat="42.0432080" lon="-7.0882130">
        <ele>1057.6</ele>
        <time>2019-08-16T17:28:10Z</time>
      </trkpt>
      <trkpt lat="42.0432440" lon="-7.0882450">
        <ele>1057.6</ele>
        <time>2019-08-16T17:28:11Z</time>
      </trkpt>
      <trkpt lat="42.0432800" lon="-7.0882730">
        <ele>1057.6</ele>
        <time>2019-08-16T17:28:12Z</time>
      </trkpt>
      <trkpt lat="42.0433150" lon="-7.0882990">
        <ele>1057.5</ele>
        <time>2019-08-16T17:28:13Z</time>
      </trkpt>
      <trkpt lat="42.0433510" lon="-7.0883220">
        <ele>1057.4</ele>
        <time>2019-08-16T17:28:14Z</time>
      </trkpt>
      <trkpt lat="42.0433860" lon="-7.0883480">
        <ele>1057.3</ele>
        <time>2019-08-16T17:28:15Z</time>
      </trkpt>
      <trkpt lat="42.0434220" lon="-7.0883750">
        <ele>1057.2</ele>
        <time>2019-08-16T17:28:16Z</time>
      </trkpt>
      <trkpt lat="42.0434560" lon="-7.0884060">
        <ele>1057.0</ele>
        <time>2019-08-16T17:28:17Z</time>
      </trkpt>
      <trkpt lat="42.0434900" lon="-7.0884360">
        <ele>1056.8</ele>
        <time>2019-08-16T17:28:18Z</time>
      </trkpt>
      <trkpt lat="42.0435220" lon="-7.0884710">
        <ele>1056.6</ele>
        <time>2019-08-16T17:28:19Z</time>
      </trkpt>
      <trkpt lat="42.0435540" lon="-7.0885090">
        <ele>1056.4</ele>
        <time>2019-08-16T17:28:20Z</time>
      </trkpt>
      <trkpt lat="42.0435840" lon="-7.0885480">
        <ele>1056.3</ele>
        <time>2019-08-16T17:28:21Z</time>
      </trkpt>
      <trkpt lat="42.0436110" lon="-7.0885900">
        <ele>1056.2</ele>
        <time>2019-08-16T17:28:22Z</time>
      </trkpt>
      <trkpt lat="42.0436350" lon="-7.0886340">
        <ele>1056.1</ele>
        <time>2019-08-16T17:28:23Z</time>
      </trkpt>
      <trkpt lat="42.0436570" lon="-7.0886780">
        <ele>1056.1</ele>
        <time>2019-08-16T17:28:24Z</time>
      </trkpt>
      <trkpt lat="42.0436800" lon="-7.0887240">
        <ele>1056.1</ele>
        <time>2019-08-16T17:28:25Z</time>
      </trkpt>
      <trkpt lat="42.0437000" lon="-7.0887740">
        <ele>1056.1</ele>
        <time>2019-08-16T17:28:26Z</time>
      </trkpt>
      <trkpt lat="42.0437160" lon="-7.0888290">
        <ele>1056.1</ele>
        <time>2019-08-16T17:28:27Z</time>
      </trkpt>
      <trkpt lat="42.0437300" lon="-7.0888860">
        <ele>1056.0</ele>
        <time>2019-08-16T17:28:28Z</time>
      </trkpt>
      <trkpt lat="42.0437430" lon="-7.0889430">
        <ele>1056.0</ele>
        <time>2019-08-16T17:28:29Z</time>
      </trkpt>
      <trkpt lat="42.0437570" lon="-7.0890000">
        <ele>1056.0</ele>
        <time>2019-08-16T17:28:30Z</time>
      </trkpt>
      <trkpt lat="42.0437750" lon="-7.0890550">
        <ele>1056.0</ele>
        <time>2019-08-16T17:28:31Z</time>
      </trkpt>
      <trkpt lat="42.0437940" lon="-7.0891100">
        <ele>1056.0</ele>
        <time>2019-08-16T17:28:32Z</time>
      </trkpt>
      <trkpt lat="42.0438140" lon="-7.0891670">
        <ele>1056.0</ele>
        <time>2019-08-16T17:28:33Z</time>
      </trkpt>
      <trkpt lat="42.0438300" lon="-7.0892270">
        <ele>1055.9</ele>
        <time>2019-08-16T17:28:34Z</time>
      </trkpt>
      <trkpt lat="42.0438500" lon="-7.0892890">
        <ele>1055.8</ele>
        <time>2019-08-16T17:28:35Z</time>
      </trkpt>
      <trkpt lat="42.0438700" lon="-7.0893530">
        <ele>1055.6</ele>
        <time>2019-08-16T17:28:36Z</time>
      </trkpt>
      <trkpt lat="42.0438850" lon="-7.0894190">
        <ele>1055.4</ele>
        <time>2019-08-16T17:28:37Z</time>
      </trkpt>
      <trkpt lat="42.0439000" lon="-7.0894840">
        <ele>1055.2</ele>
        <time>2019-08-16T17:28:38Z</time>
      </trkpt>
      <trkpt lat="42.0439130" lon="-7.0895480">
        <ele>1055.0</ele>
        <time>2019-08-16T17:28:39Z</time>
      </trkpt>
      <trkpt lat="42.0439280" lon="-7.0896140">
        <ele>1054.8</ele>
        <time>2019-08-16T17:28:40Z</time>
      </trkpt>
      <trkpt lat="42.0439480" lon="-7.0896800">
        <ele>1054.7</ele>
        <time>2019-08-16T17:28:41Z</time>
      </trkpt>
      <trkpt lat="42.0439710" lon="-7.0897470">
        <ele>1054.6</ele>
        <time>2019-08-16T17:28:42Z</time>
      </trkpt>
      <trkpt lat="42.0439950" lon="-7.0898160">
        <ele>1054.2</ele>
        <time>2019-08-16T17:28:43Z</time>
      </trkpt>
      <trkpt lat="42.0440230" lon="-7.0898850">
        <ele>1054.0</ele>
        <time>2019-08-16T17:28:44Z</time>
      </trkpt>
      <trkpt lat="42.0440540" lon="-7.0899510">
        <ele>1053.9</ele>
        <time>2019-08-16T17:28:45Z</time>
      </trkpt>
      <trkpt lat="42.0440870" lon="-7.0900160">
        <ele>1053.8</ele>
        <time>2019-08-16T17:28:46Z</time>
      </trkpt>
      <trkpt lat="42.0441210" lon="-7.0900760">
        <ele>1053.6</ele>
        <time>2019-08-16T17:28:47Z</time>
      </trkpt>
      <trkpt lat="42.0441560" lon="-7.0901310">
        <ele>1053.5</ele>
        <time>2019-08-16T17:28:48Z</time>
      </trkpt>
      <trkpt lat="42.0441910" lon="-7.0901810">
        <ele>1053.4</ele>
        <time>2019-08-16T17:28:49Z</time>
      </trkpt>
      <trkpt lat="42.0442280" lon="-7.0902290">
        <ele>1053.1</ele>
        <time>2019-08-16T17:28:50Z</time>
      </trkpt>
      <trkpt lat="42.0442650" lon="-7.0902750">
        <ele>1052.9</ele>
        <time>2019-08-16T17:28:51Z</time>
      </trkpt>
      <trkpt lat="42.0443020" lon="-7.0903230">
        <ele>1052.6</ele>
        <time>2019-08-16T17:28:52Z</time>
      </trkpt>
      <trkpt lat="42.0443350" lon="-7.0903750">
        <ele>1052.4</ele>
        <time>2019-08-16T17:28:53Z</time>
      </trkpt>
      <trkpt lat="42.0443600" lon="-7.0904350">
        <ele>1052.1</ele>
        <time>2019-08-16T17:28:54Z</time>
      </trkpt>
      <trkpt lat="42.0443820" lon="-7.0905030">
        <ele>1051.9</ele>
        <time>2019-08-16T17:28:55Z</time>
      </trkpt>
      <trkpt lat="42.0444060" lon="-7.0905740">
        <ele>1051.6</ele>
        <time>2019-08-16T17:28:56Z</time>
      </trkpt>
      <trkpt lat="42.0444310" lon="-7.0906430">
        <ele>1051.4</ele>
        <time>2019-08-16T17:28:57Z</time>
      </trkpt>
      <trkpt lat="42.0444570" lon="-7.0907100">
        <ele>1051.2</ele>
        <time>2019-08-16T17:28:58Z</time>
      </trkpt>
      <trkpt lat="42.0444900" lon="-7.0907720">
        <ele>1050.9</ele>
        <time>2019-08-16T17:28:59Z</time>
      </trkpt>
      <trkpt lat="42.0445310" lon="-7.0908250">
        <ele>1050.7</ele>
        <time>2019-08-16T17:29:00Z</time>
      </trkpt>
      <trkpt lat="42.0445770" lon="-7.0908750">
        <ele>1050.5</ele>
        <time>2019-08-16T17:29:01Z</time>
      </trkpt>
      <trkpt lat="42.0446260" lon="-7.0909240">
        <ele>1050.2</ele>
        <time>2019-08-16T17:29:02Z</time>
      </trkpt>
      <trkpt lat="42.0446760" lon="-7.0909730">
        <ele>1049.9</ele>
        <time>2019-08-16T17:29:03Z</time>
      </trkpt>
      <trkpt lat="42.0447260" lon="-7.0910260">
        <ele>1049.7</ele>
        <time>2019-08-16T17:29:04Z</time>
      </trkpt>
      <trkpt lat="42.0447760" lon="-7.0910820">
        <ele>1049.4</ele>
        <time>2019-08-16T17:29:05Z</time>
      </trkpt>
      <trkpt lat="42.0448250" lon="-7.0911370">
        <ele>1049.1</ele>
        <time>2019-08-16T17:29:06Z</time>
      </trkpt>
      <trkpt lat="42.0448750" lon="-7.0911890">
        <ele>1049.0</ele>
        <time>2019-08-16T17:29:07Z</time>
      </trkpt>
      <trkpt lat="42.0449270" lon="-7.0912390">
        <ele>1048.8</ele>
        <time>2019-08-16T17:29:08Z</time>
      </trkpt>
      <trkpt lat="42.0449790" lon="-7.0912890">
        <ele>1048.7</ele>
        <time>2019-08-16T17:29:09Z</time>
      </trkpt>
      <trkpt lat="42.0450300" lon="-7.0913410">
        <ele>1048.5</ele>
        <time>2019-08-16T17:29:10Z</time>
      </trkpt>
      <trkpt lat="42.0450790" lon="-7.0913940">
        <ele>1048.4</ele>
        <time>2019-08-16T17:29:11Z</time>
      </trkpt>
      <trkpt lat="42.0451230" lon="-7.0914490">
        <ele>1048.3</ele>
        <time>2019-08-16T17:29:12Z</time>
      </trkpt>
      <trkpt lat="42.0451630" lon="-7.0915070">
        <ele>1048.2</ele>
        <time>2019-08-16T17:29:13Z</time>
      </trkpt>
      <trkpt lat="42.0451990" lon="-7.0915700">
        <ele>1048.1</ele>
        <time>2019-08-16T17:29:14Z</time>
      </trkpt>
      <trkpt lat="42.0452330" lon="-7.0916370">
        <ele>1048.0</ele>
        <time>2019-08-16T17:29:15Z</time>
      </trkpt>
      <trkpt lat="42.0452640" lon="-7.0917050">
        <ele>1048.0</ele>
        <time>2019-08-16T17:29:16Z</time>
      </trkpt>
      <trkpt lat="42.0452920" lon="-7.0917740">
        <ele>1048.0</ele>
        <time>2019-08-16T17:29:17Z</time>
      </trkpt>
      <trkpt lat="42.0453160" lon="-7.0918400">
        <ele>1047.9</ele>
        <time>2019-08-16T17:29:18Z</time>
      </trkpt>
      <trkpt lat="42.0453360" lon="-7.0919020">
        <ele>1047.9</ele>
        <time>2019-08-16T17:29:19Z</time>
      </trkpt>
      <trkpt lat="42.0453540" lon="-7.0919620">
        <ele>1047.9</ele>
        <time>2019-08-16T17:29:20Z</time>
      </trkpt>
      <trkpt lat="42.0453690" lon="-7.0920190">
        <ele>1047.9</ele>
        <time>2019-08-16T17:29:21Z</time>
      </trkpt>
      <trkpt lat="42.0453850" lon="-7.0920700">
        <ele>1047.9</ele>
        <time>2019-08-16T17:29:22Z</time>
      </trkpt>
      <trkpt lat="42.0453990" lon="-7.0921190">
        <ele>1047.9</ele>
        <time>2019-08-16T17:29:23Z</time>
      </trkpt>
      <trkpt lat="42.0454100" lon="-7.0921670">
        <ele>1047.9</ele>
        <time>2019-08-16T17:29:24Z</time>
      </trkpt>
      <trkpt lat="42.0454200" lon="-7.0922160">
        <ele>1048.0</ele>
        <time>2019-08-16T17:29:25Z</time>
      </trkpt>
      <trkpt lat="42.0454300" lon="-7.0922650">
        <ele>1048.0</ele>
        <time>2019-08-16T17:29:26Z</time>
      </trkpt>
      <trkpt lat="42.0454400" lon="-7.0923160">
        <ele>1048.0</ele>
        <time>2019-08-16T17:29:27Z</time>
      </trkpt>
      <trkpt lat="42.0454510" lon="-7.0923700">
        <ele>1048.0</ele>
        <time>2019-08-16T17:29:28Z</time>
      </trkpt>
      <trkpt lat="42.0454610" lon="-7.0924240">
        <ele>1048.1</ele>
        <time>2019-08-16T17:29:29Z</time>
      </trkpt>
      <trkpt lat="42.0454750" lon="-7.0924770">
        <ele>1048.2</ele>
        <time>2019-08-16T17:29:30Z</time>
      </trkpt>
      <trkpt lat="42.0454940" lon="-7.0925260">
        <ele>1048.3</ele>
        <time>2019-08-16T17:29:31Z</time>
      </trkpt>
      <trkpt lat="42.0455180" lon="-7.0925730">
        <ele>1048.4</ele>
        <time>2019-08-16T17:29:32Z</time>
      </trkpt>
      <trkpt lat="42.0455440" lon="-7.0926200">
        <ele>1048.4</ele>
        <time>2019-08-16T17:29:33Z</time>
      </trkpt>
      <trkpt lat="42.0455670" lon="-7.0926630">
        <ele>1048.6</ele>
        <time>2019-08-16T17:29:34Z</time>
      </trkpt>
      <trkpt lat="42.0455920" lon="-7.0927040">
        <ele>1048.8</ele>
        <time>2019-08-16T17:29:35Z</time>
      </trkpt>
      <trkpt lat="42.0456170" lon="-7.0927410">
        <ele>1049.0</ele>
        <time>2019-08-16T17:29:36Z</time>
      </trkpt>
      <trkpt lat="42.0456420" lon="-7.0927740">
        <ele>1049.1</ele>
        <time>2019-08-16T17:29:37Z</time>
      </trkpt>
      <trkpt lat="42.0456630" lon="-7.0928060">
        <ele>1049.3</ele>
        <time>2019-08-16T17:29:38Z</time>
      </trkpt>
      <trkpt lat="42.0456840" lon="-7.0928340">
        <ele>1049.5</ele>
        <time>2019-08-16T17:29:39Z</time>
      </trkpt>
      <trkpt lat="42.0457030" lon="-7.0928580">
        <ele>1049.6</ele>
        <time>2019-08-16T17:29:40Z</time>
      </trkpt>
      <trkpt lat="42.0457390" lon="-7.0929000">
        <ele>1049.9</ele>
        <time>2019-08-16T17:29:42Z</time>
      </trkpt>
      <trkpt lat="42.0457720" lon="-7.0929430">
        <ele>1050.3</ele>
        <time>2019-08-16T17:29:44Z</time>
      </trkpt>
      <trkpt lat="42.0458010" lon="-7.0929880">
        <ele>1050.6</ele>
        <time>2019-08-16T17:29:46Z</time>
      </trkpt>
      <trkpt lat="42.0458240" lon="-7.0930410">
        <ele>1051.0</ele>
        <time>2019-08-16T17:29:48Z</time>
      </trkpt>
      <trkpt lat="42.0458390" lon="-7.0931080">
        <ele>1051.2</ele>
        <time>2019-08-16T17:29:50Z</time>
      </trkpt>
      <trkpt lat="42.0458560" lon="-7.0931870">
        <ele>1051.5</ele>
        <time>2019-08-16T17:29:52Z</time>
      </trkpt>
      <trkpt lat="42.0458650" lon="-7.0932290">
        <ele>1051.7</ele>
        <time>2019-08-16T17:29:53Z</time>
      </trkpt>
      <trkpt lat="42.0458740" lon="-7.0932700">
        <ele>1051.9</ele>
        <time>2019-08-16T17:29:54Z</time>
      </trkpt>
      <trkpt lat="42.0458820" lon="-7.0933110">
        <ele>1052.0</ele>
        <time>2019-08-16T17:29:55Z</time>
      </trkpt>
      <trkpt lat="42.0458920" lon="-7.0933450">
        <ele>1052.1</ele>
        <time>2019-08-16T17:29:56Z</time>
      </trkpt>
      <trkpt lat="42.0459010" lon="-7.0933780">
        <ele>1052.3</ele>
        <time>2019-08-16T17:29:57Z</time>
      </trkpt>
      <trkpt lat="42.0459210" lon="-7.0934400">
        <ele>1052.5</ele>
        <time>2019-08-16T17:29:59Z</time>
      </trkpt>
      <trkpt lat="42.0459450" lon="-7.0934960">
        <ele>1052.7</ele>
        <time>2019-08-16T17:30:01Z</time>
      </trkpt>
      <trkpt lat="42.0459680" lon="-7.0935560">
        <ele>1053.0</ele>
        <time>2019-08-16T17:30:03Z</time>
      </trkpt>
      <trkpt lat="42.0459930" lon="-7.0936100">
        <ele>1053.2</ele>
        <time>2019-08-16T17:30:05Z</time>
      </trkpt>
      <trkpt lat="42.0460160" lon="-7.0936660">
        <ele>1053.4</ele>
        <time>2019-08-16T17:30:07Z</time>
      </trkpt>
      <trkpt lat="42.0460410" lon="-7.0937290">
        <ele>1053.6</ele>
        <time>2019-08-16T17:30:09Z</time>
      </trkpt>
      <trkpt lat="42.0460570" lon="-7.0937620">
        <ele>1053.8</ele>
        <time>2019-08-16T17:30:10Z</time>
      </trkpt>
      <trkpt lat="42.0460730" lon="-7.0937950">
        <ele>1053.9</ele>
        <time>2019-08-16T17:30:11Z</time>
      </trkpt>
      <trkpt lat="42.0460910" lon="-7.0938260">
        <ele>1054.0</ele>
        <time>2019-08-16T17:30:12Z</time>
      </trkpt>
      <trkpt lat="42.0461100" lon="-7.0938580">
        <ele>1054.1</ele>
        <time>2019-08-16T17:30:13Z</time>
      </trkpt>
      <trkpt lat="42.0461290" lon="-7.0938890">
        <ele>1054.2</ele>
        <time>2019-08-16T17:30:14Z</time>
      </trkpt>
      <trkpt lat="42.0461440" lon="-7.0939170">
        <ele>1054.3</ele>
        <time>2019-08-16T17:30:15Z</time>
      </trkpt>
      <trkpt lat="42.0461710" lon="-7.0939750">
        <ele>1054.4</ele>
        <time>2019-08-16T17:30:17Z</time>
      </trkpt>
      <trkpt lat="42.0461970" lon="-7.0940460">
        <ele>1054.6</ele>
        <time>2019-08-16T17:30:19Z</time>
      </trkpt>
      <trkpt lat="42.0462070" lon="-7.0940810">
        <ele>1054.7</ele>
        <time>2019-08-16T17:30:20Z</time>
      </trkpt>
      <trkpt lat="42.0462160" lon="-7.0941150">
        <ele>1054.8</ele>
        <time>2019-08-16T17:30:21Z</time>
      </trkpt>
      <trkpt lat="42.0462240" lon="-7.0941490">
        <ele>1054.9</ele>
        <time>2019-08-16T17:30:22Z</time>
      </trkpt>
      <trkpt lat="42.0462390" lon="-7.0942220">
        <ele>1055.0</ele>
        <time>2019-08-16T17:30:24Z</time>
      </trkpt>
      <trkpt lat="42.0462460" lon="-7.0942610">
        <ele>1055.1</ele>
        <time>2019-08-16T17:30:25Z</time>
      </trkpt>
      <trkpt lat="42.0462530" lon="-7.0943010">
        <ele>1055.3</ele>
        <time>2019-08-16T17:30:26Z</time>
      </trkpt>
      <trkpt lat="42.0462600" lon="-7.0943430">
        <ele>1055.4</ele>
        <time>2019-08-16T17:30:27Z</time>
      </trkpt>
      <trkpt lat="42.0462660" lon="-7.0943860">
        <ele>1055.4</ele>
        <time>2019-08-16T17:30:28Z</time>
      </trkpt>
      <trkpt lat="42.0462690" lon="-7.0944320">
        <ele>1055.5</ele>
        <time>2019-08-16T17:30:29Z</time>
      </trkpt>
      <trkpt lat="42.0462730" lon="-7.0944780">
        <ele>1055.6</ele>
        <time>2019-08-16T17:30:30Z</time>
      </trkpt>
      <trkpt lat="42.0462800" lon="-7.0945260">
        <ele>1055.6</ele>
        <time>2019-08-16T17:30:31Z</time>
      </trkpt>
      <trkpt lat="42.0462860" lon="-7.0945770">
        <ele>1055.7</ele>
        <time>2019-08-16T17:30:32Z</time>
      </trkpt>
      <trkpt lat="42.0462910" lon="-7.0946290">
        <ele>1055.8</ele>
        <time>2019-08-16T17:30:33Z</time>
      </trkpt>
      <trkpt lat="42.0462980" lon="-7.0946800">
        <ele>1055.8</ele>
        <time>2019-08-16T17:30:34Z</time>
      </trkpt>
      <trkpt lat="42.0463040" lon="-7.0947320">
        <ele>1055.9</ele>
        <time>2019-08-16T17:30:35Z</time>
      </trkpt>
      <trkpt lat="42.0463100" lon="-7.0947830">
        <ele>1055.9</ele>
        <time>2019-08-16T17:30:36Z</time>
      </trkpt>
      <trkpt lat="42.0463160" lon="-7.0948300">
        <ele>1056.0</ele>
        <time>2019-08-16T17:30:37Z</time>
      </trkpt>
      <trkpt lat="42.0463250" lon="-7.0948730">
        <ele>1056.1</ele>
        <time>2019-08-16T17:30:38Z</time>
      </trkpt>
      <trkpt lat="42.0463330" lon="-7.0949140">
        <ele>1056.2</ele>
        <time>2019-08-16T17:30:39Z</time>
      </trkpt>
      <trkpt lat="42.0463440" lon="-7.0949530">
        <ele>1056.2</ele>
        <time>2019-08-16T17:30:40Z</time>
      </trkpt>
      <trkpt lat="42.0463600" lon="-7.0949890">
        <ele>1056.3</ele>
        <time>2019-08-16T17:30:41Z</time>
      </trkpt>
      <trkpt lat="42.0463800" lon="-7.0950220">
        <ele>1056.4</ele>
        <time>2019-08-16T17:30:42Z</time>
      </trkpt>
      <trkpt lat="42.0464010" lon="-7.0950500">
        <ele>1056.5</ele>
        <time>2019-08-16T17:30:43Z</time>
      </trkpt>
      <trkpt lat="42.0464240" lon="-7.0950740">
        <ele>1056.6</ele>
        <time>2019-08-16T17:30:44Z</time>
      </trkpt>
      <trkpt lat="42.0464460" lon="-7.0951010">
        <ele>1056.7</ele>
        <time>2019-08-16T17:30:45Z</time>
      </trkpt>
      <trkpt lat="42.0464670" lon="-7.0951320">
        <ele>1056.8</ele>
        <time>2019-08-16T17:30:46Z</time>
      </trkpt>
      <trkpt lat="42.0464890" lon="-7.0951650">
        <ele>1056.9</ele>
        <time>2019-08-16T17:30:47Z</time>
      </trkpt>
      <trkpt lat="42.0465120" lon="-7.0951990">
        <ele>1057.0</ele>
        <time>2019-08-16T17:30:48Z</time>
      </trkpt>
      <trkpt lat="42.0465330" lon="-7.0952340">
        <ele>1057.1</ele>
        <time>2019-08-16T17:30:49Z</time>
      </trkpt>
      <trkpt lat="42.0465560" lon="-7.0952650">
        <ele>1057.3</ele>
        <time>2019-08-16T17:30:50Z</time>
      </trkpt>
      <trkpt lat="42.0465830" lon="-7.0952890">
        <ele>1057.4</ele>
        <time>2019-08-16T17:30:51Z</time>
      </trkpt>
      <trkpt lat="42.0466130" lon="-7.0953080">
        <ele>1057.6</ele>
        <time>2019-08-16T17:30:52Z</time>
      </trkpt>
      <trkpt lat="42.0466450" lon="-7.0953270">
        <ele>1057.7</ele>
        <time>2019-08-16T17:30:53Z</time>
      </trkpt>
      <trkpt lat="42.0466760" lon="-7.0953450">
        <ele>1057.9</ele>
        <time>2019-08-16T17:30:54Z</time>
      </trkpt>
      <trkpt lat="42.0467100" lon="-7.0953630">
        <ele>1058.1</ele>
        <time>2019-08-16T17:30:55Z</time>
      </trkpt>
      <trkpt lat="42.0467450" lon="-7.0953800">
        <ele>1058.3</ele>
        <time>2019-08-16T17:30:56Z</time>
      </trkpt>
      <trkpt lat="42.0467770" lon="-7.0953970">
        <ele>1058.4</ele>
        <time>2019-08-16T17:30:57Z</time>
      </trkpt>
      <trkpt lat="42.0468110" lon="-7.0954110">
        <ele>1058.5</ele>
        <time>2019-08-16T17:30:58Z</time>
      </trkpt>
      <trkpt lat="42.0468450" lon="-7.0954280">
        <ele>1058.7</ele>
        <time>2019-08-16T17:30:59Z</time>
      </trkpt>
      <trkpt lat="42.0468760" lon="-7.0954440">
        <ele>1058.8</ele>
        <time>2019-08-16T17:31:00Z</time>
      </trkpt>
      <trkpt lat="42.0469070" lon="-7.0954580">
        <ele>1058.9</ele>
        <time>2019-08-16T17:31:01Z</time>
      </trkpt>
      <trkpt lat="42.0469380" lon="-7.0954730">
        <ele>1059.0</ele>
        <time>2019-08-16T17:31:02Z</time>
      </trkpt>
      <trkpt lat="42.0469690" lon="-7.0954890">
        <ele>1059.2</ele>
        <time>2019-08-16T17:31:03Z</time>
      </trkpt>
      <trkpt lat="42.0470050" lon="-7.0955040">
        <ele>1059.3</ele>
        <time>2019-08-16T17:31:04Z</time>
      </trkpt>
      <trkpt lat="42.0470420" lon="-7.0955220">
        <ele>1059.4</ele>
        <time>2019-08-16T17:31:05Z</time>
      </trkpt>
      <trkpt lat="42.0470790" lon="-7.0955440">
        <ele>1059.5</ele>
        <time>2019-08-16T17:31:06Z</time>
      </trkpt>
      <trkpt lat="42.0471130" lon="-7.0955610">
        <ele>1059.6</ele>
        <time>2019-08-16T17:31:07Z</time>
      </trkpt>
      <trkpt lat="42.0471460" lon="-7.0955790">
        <ele>1059.7</ele>
        <time>2019-08-16T17:31:08Z</time>
      </trkpt>
      <trkpt lat="42.0471760" lon="-7.0955990">
        <ele>1059.8</ele>
        <time>2019-08-16T17:31:09Z</time>
      </trkpt>
      <trkpt lat="42.0472090" lon="-7.0956160">
        <ele>1059.9</ele>
        <time>2019-08-16T17:31:10Z</time>
      </trkpt>
      <trkpt lat="42.0472440" lon="-7.0956320">
        <ele>1060.0</ele>
        <time>2019-08-16T17:31:11Z</time>
      </trkpt>
      <trkpt lat="42.0472800" lon="-7.0956530">
        <ele>1060.1</ele>
        <time>2019-08-16T17:31:12Z</time>
      </trkpt>
      <trkpt lat="42.0473160" lon="-7.0956720">
        <ele>1060.2</ele>
        <time>2019-08-16T17:31:13Z</time>
      </trkpt>
      <trkpt lat="42.0473540" lon="-7.0956880">
        <ele>1060.3</ele>
        <time>2019-08-16T17:31:14Z</time>
      </trkpt>
      <trkpt lat="42.0473920" lon="-7.0957070">
        <ele>1060.3</ele>
        <time>2019-08-16T17:31:15Z</time>
      </trkpt>
      <trkpt lat="42.0474300" lon="-7.0957290">
        <ele>1060.4</ele>
        <time>2019-08-16T17:31:16Z</time>
      </trkpt>
      <trkpt lat="42.0474680" lon="-7.0957530">
        <ele>1060.5</ele>
        <time>2019-08-16T17:31:17Z</time>
      </trkpt>
      <trkpt lat="42.0475050" lon="-7.0957790">
        <ele>1060.6</ele>
        <time>2019-08-16T17:31:18Z</time>
      </trkpt>
      <trkpt lat="42.0475420" lon="-7.0958050">
        <ele>1060.7</ele>
        <time>2019-08-16T17:31:19Z</time>
      </trkpt>
      <trkpt lat="42.0475780" lon="-7.0958290">
        <ele>1060.7</ele>
        <time>2019-08-16T17:31:20Z</time>
      </trkpt>
      <trkpt lat="42.0476140" lon="-7.0958520">
        <ele>1060.8</ele>
        <time>2019-08-16T17:31:21Z</time>
      </trkpt>
      <trkpt lat="42.0476500" lon="-7.0958730">
        <ele>1060.8</ele>
        <time>2019-08-16T17:31:22Z</time>
      </trkpt>
      <trkpt lat="42.0476870" lon="-7.0958960">
        <ele>1060.9</ele>
        <time>2019-08-16T17:31:23Z</time>
      </trkpt>
      <trkpt lat="42.0477220" lon="-7.0959200">
        <ele>1060.9</ele>
        <time>2019-08-16T17:31:24Z</time>
      </trkpt>
      <trkpt lat="42.0477570" lon="-7.0959440">
        <ele>1061.0</ele>
        <time>2019-08-16T17:31:25Z</time>
      </trkpt>
      <trkpt lat="42.0477920" lon="-7.0959680">
        <ele>1061.0</ele>
        <time>2019-08-16T17:31:26Z</time>
      </trkpt>
      <trkpt lat="42.0478250" lon="-7.0959910">
        <ele>1061.1</ele>
        <time>2019-08-16T17:31:27Z</time>
      </trkpt>
      <trkpt lat="42.0478610" lon="-7.0960120">
        <ele>1061.1</ele>
        <time>2019-08-16T17:31:28Z</time>
      </trkpt>
      <trkpt lat="42.0479000" lon="-7.0960320">
        <ele>1061.2</ele>
        <time>2019-08-16T17:31:29Z</time>
      </trkpt>
      <trkpt lat="42.0479380" lon="-7.0960460">
        <ele>1061.3</ele>
        <time>2019-08-16T17:31:30Z</time>
      </trkpt>
      <trkpt lat="42.0479750" lon="-7.0960610">
        <ele>1061.4</ele>
        <time>2019-08-16T17:31:31Z</time>
      </trkpt>
      <trkpt lat="42.0480060" lon="-7.0960800">
        <ele>1061.5</ele>
        <time>2019-08-16T17:31:32Z</time>
      </trkpt>
      <trkpt lat="42.0480330" lon="-7.0961080">
        <ele>1061.6</ele>
        <time>2019-08-16T17:31:33Z</time>
      </trkpt>
      <trkpt lat="42.0480610" lon="-7.0961390">
        <ele>1061.7</ele>
        <time>2019-08-16T17:31:34Z</time>
      </trkpt>
      <trkpt lat="42.0480860" lon="-7.0961710">
        <ele>1061.8</ele>
        <time>2019-08-16T17:31:35Z</time>
      </trkpt>
      <trkpt lat="42.0481070" lon="-7.0962080">
        <ele>1061.9</ele>
        <time>2019-08-16T17:31:36Z</time>
      </trkpt>
      <trkpt lat="42.0481230" lon="-7.0962440">
        <ele>1062.0</ele>
        <time>2019-08-16T17:31:37Z</time>
      </trkpt>
      <trkpt lat="42.0481390" lon="-7.0962820">
        <ele>1062.1</ele>
        <time>2019-08-16T17:31:38Z</time>
      </trkpt>
      <trkpt lat="42.0481560" lon="-7.0963190">
        <ele>1062.2</ele>
        <time>2019-08-16T17:31:39Z</time>
      </trkpt>
      <trkpt lat="42.0481740" lon="-7.0963580">
        <ele>1062.4</ele>
        <time>2019-08-16T17:31:40Z</time>
      </trkpt>
      <trkpt lat="42.0481930" lon="-7.0963980">
        <ele>1062.5</ele>
        <time>2019-08-16T17:31:41Z</time>
      </trkpt>
      <trkpt lat="42.0482110" lon="-7.0964400">
        <ele>1062.7</ele>
        <time>2019-08-16T17:31:42Z</time>
      </trkpt>
      <trkpt lat="42.0482300" lon="-7.0964830">
        <ele>1062.8</ele>
        <time>2019-08-16T17:31:43Z</time>
      </trkpt>
      <trkpt lat="42.0482460" lon="-7.0965250">
        <ele>1063.0</ele>
        <time>2019-08-16T17:31:44Z</time>
      </trkpt>
      <trkpt lat="42.0482610" lon="-7.0965630">
        <ele>1063.2</ele>
        <time>2019-08-16T17:31:45Z</time>
      </trkpt>
      <trkpt lat="42.0482730" lon="-7.0965990">
        <ele>1063.3</ele>
        <time>2019-08-16T17:31:46Z</time>
      </trkpt>
      <trkpt lat="42.0482830" lon="-7.0966320">
        <ele>1063.5</ele>
        <time>2019-08-16T17:31:47Z</time>
      </trkpt>
      <trkpt lat="42.0482990" lon="-7.0966890">
        <ele>1063.7</ele>
        <time>2019-08-16T17:31:49Z</time>
      </trkpt>
      <trkpt lat="42.0483140" lon="-7.0967420">
        <ele>1063.9</ele>
        <time>2019-08-16T17:31:51Z</time>
      </trkpt>
      <trkpt lat="42.0483270" lon="-7.0967900">
        <ele>1064.2</ele>
        <time>2019-08-16T17:31:53Z</time>
      </trkpt>
      <trkpt lat="42.0483430" lon="-7.0968340">
        <ele>1064.3</ele>
        <time>2019-08-16T17:31:55Z</time>
      </trkpt>
      <trkpt lat="42.0483660" lon="-7.0968810">
        <ele>1064.4</ele>
        <time>2019-08-16T17:31:57Z</time>
      </trkpt>
      <trkpt lat="42.0483960" lon="-7.0969290">
        <ele>1064.5</ele>
        <time>2019-08-16T17:31:59Z</time>
      </trkpt>
      <trkpt lat="42.0484280" lon="-7.0969750">
        <ele>1064.6</ele>
        <time>2019-08-16T17:32:01Z</time>
      </trkpt>
      <trkpt lat="42.0484610" lon="-7.0970160">
        <ele>1064.7</ele>
        <time>2019-08-16T17:32:03Z</time>
      </trkpt>
      <trkpt lat="42.0484960" lon="-7.0970570">
        <ele>1064.8</ele>
        <time>2019-08-16T17:32:05Z</time>
      </trkpt>
      <trkpt lat="42.0485260" lon="-7.0970900">
        <ele>1065.0</ele>
        <time>2019-08-16T17:32:07Z</time>
      </trkpt>
      <trkpt lat="42.0485500" lon="-7.0971230">
        <ele>1065.0</ele>
        <time>2019-08-16T17:32:09Z</time>
      </trkpt>
      <trkpt lat="42.0485710" lon="-7.0971630">
        <ele>1065.1</ele>
        <time>2019-08-16T17:32:11Z</time>
      </trkpt>
      <trkpt lat="42.0485930" lon="-7.0972140">
        <ele>1065.2</ele>
        <time>2019-08-16T17:32:13Z</time>
      </trkpt>
      <trkpt lat="42.0486140" lon="-7.0972790">
        <ele>1065.3</ele>
        <time>2019-08-16T17:32:15Z</time>
      </trkpt>
      <trkpt lat="42.0486250" lon="-7.0973140">
        <ele>1065.3</ele>
        <time>2019-08-16T17:32:16Z</time>
      </trkpt>
      <trkpt lat="42.0486360" lon="-7.0973510">
        <ele>1065.4</ele>
        <time>2019-08-16T17:32:17Z</time>
      </trkpt>
      <trkpt lat="42.0486470" lon="-7.0973870">
        <ele>1065.3</ele>
        <time>2019-08-16T17:32:18Z</time>
      </trkpt>
      <trkpt lat="42.0486580" lon="-7.0974240">
        <ele>1065.3</ele>
        <time>2019-08-16T17:32:19Z</time>
      </trkpt>
      <trkpt lat="42.0486650" lon="-7.0974670">
        <ele>1065.2</ele>
        <time>2019-08-16T17:32:20Z</time>
      </trkpt>
      <trkpt lat="42.0486680" lon="-7.0975190">
        <ele>1065.1</ele>
        <time>2019-08-16T17:32:21Z</time>
      </trkpt>
      <trkpt lat="42.0486690" lon="-7.0975790">
        <ele>1065.0</ele>
        <time>2019-08-16T17:32:22Z</time>
      </trkpt>
      <trkpt lat="42.0486690" lon="-7.0976440">
        <ele>1064.8</ele>
        <time>2019-08-16T17:32:23Z</time>
      </trkpt>
      <trkpt lat="42.0486750" lon="-7.0977120">
        <ele>1064.6</ele>
        <time>2019-08-16T17:32:24Z</time>
      </trkpt>
      <trkpt lat="42.0486860" lon="-7.0977770">
        <ele>1064.4</ele>
        <time>2019-08-16T17:32:25Z</time>
      </trkpt>
      <trkpt lat="42.0487010" lon="-7.0978400">
        <ele>1064.2</ele>
        <time>2019-08-16T17:32:26Z</time>
      </trkpt>
      <trkpt lat="42.0487170" lon="-7.0979010">
        <ele>1064.0</ele>
        <time>2019-08-16T17:32:27Z</time>
      </trkpt>
      <trkpt lat="42.0487330" lon="-7.0979570">
        <ele>1063.8</ele>
        <time>2019-08-16T17:32:28Z</time>
      </trkpt>
      <trkpt lat="42.0487530" lon="-7.0980100">
        <ele>1063.7</ele>
        <time>2019-08-16T17:32:29Z</time>
      </trkpt>
      <trkpt lat="42.0487730" lon="-7.0980620">
        <ele>1063.5</ele>
        <time>2019-08-16T17:32:30Z</time>
      </trkpt>
      <trkpt lat="42.0487910" lon="-7.0981140">
        <ele>1063.4</ele>
        <time>2019-08-16T17:32:31Z</time>
      </trkpt>
      <trkpt lat="42.0488060" lon="-7.0981610">
        <ele>1063.3</ele>
        <time>2019-08-16T17:32:32Z</time>
      </trkpt>
      <trkpt lat="42.0488180" lon="-7.0982040">
        <ele>1063.1</ele>
        <time>2019-08-16T17:32:33Z</time>
      </trkpt>
      <trkpt lat="42.0488280" lon="-7.0982470">
        <ele>1063.1</ele>
        <time>2019-08-16T17:32:34Z</time>
      </trkpt>
      <trkpt lat="42.0488340" lon="-7.0982880">
        <ele>1063.0</ele>
        <time>2019-08-16T17:32:35Z</time>
      </trkpt>
      <trkpt lat="42.0488430" lon="-7.0983270">
        <ele>1062.9</ele>
        <time>2019-08-16T17:32:36Z</time>
      </trkpt>
      <trkpt lat="42.0488500" lon="-7.0983710">
        <ele>1062.8</ele>
        <time>2019-08-16T17:32:37Z</time>
      </trkpt>
      <trkpt lat="42.0488600" lon="-7.0984070">
        <ele>1062.8</ele>
        <time>2019-08-16T17:32:38Z</time>
      </trkpt>
      <trkpt lat="42.0488680" lon="-7.0984360">
        <ele>1062.7</ele>
        <time>2019-08-16T17:32:39Z</time>
      </trkpt>
      <trkpt lat="42.0488800" lon="-7.0984940">
        <ele>1062.6</ele>
        <time>2019-08-16T17:32:41Z</time>
      </trkpt>
      <trkpt lat="42.0488950" lon="-7.0985540">
        <ele>1062.5</ele>
        <time>2019-08-16T17:32:43Z</time>
      </trkpt>
      <trkpt lat="42.0489110" lon="-7.0986130">
        <ele>1062.1</ele>
        <time>2019-08-16T17:32:45Z</time>
      </trkpt>
      <trkpt lat="42.0489270" lon="-7.0986830">
        <ele>1061.8</ele>
        <time>2019-08-16T17:32:47Z</time>
      </trkpt>
      <trkpt lat="42.0489370" lon="-7.0987610">
        <ele>1061.4</ele>
        <time>2019-08-16T17:32:49Z</time>
      </trkpt>
      <trkpt lat="42.0489490" lon="-7.0987910">
        <ele>1061.3</ele>
        <time>2019-08-16T17:32:50Z</time>
      </trkpt>
      <trkpt lat="42.0489760" lon="-7.0988520">
        <ele>1061.1</ele>
        <time>2019-08-16T17:32:52Z</time>
      </trkpt>
      <trkpt lat="42.0489870" lon="-7.0988970">
        <ele>1060.9</ele>
        <time>2019-08-16T17:32:54Z</time>
      </trkpt>
      <trkpt lat="42.0489990" lon="-7.0989450">
        <ele>1060.8</ele>
        <time>2019-08-16T17:32:56Z</time>
      </trkpt>
      <trkpt lat="42.0490410" lon="-7.0989770">
        <ele>1060.6</ele>
        <time>2019-08-16T17:32:58Z</time>
      </trkpt>
      <trkpt lat="42.0490600" lon="-7.0989920">
        <ele>1060.5</ele>
        <time>2019-08-16T17:32:59Z</time>
      </trkpt>
      <trkpt lat="42.0491040" lon="-7.0990240">
        <ele>1060.2</ele>
        <time>2019-08-16T17:33:01Z</time>
      </trkpt>
      <trkpt lat="42.0491450" lon="-7.0990220">
        <ele>1060.1</ele>
        <time>2019-08-16T17:33:03Z</time>
      </trkpt>
      <trkpt lat="42.0491840" lon="-7.0990250">
        <ele>1059.9</ele>
        <time>2019-08-16T17:33:05Z</time>
      </trkpt>
      <trkpt lat="42.0492080" lon="-7.0990500">
        <ele>1059.8</ele>
        <time>2019-08-16T17:33:07Z</time>
      </trkpt>
      <trkpt lat="42.0492230" lon="-7.0991210">
        <ele>1059.7</ele>
        <time>2019-08-16T17:33:09Z</time>
      </trkpt>
      <trkpt lat="42.0492210" lon="-7.0991670">
        <ele>1059.4</ele>
        <time>2019-08-16T17:33:10Z</time>
      </trkpt>
      <trkpt lat="42.0492230" lon="-7.0992000">
        <ele>1059.2</ele>
        <time>2019-08-16T17:33:11Z</time>
      </trkpt>
      <trkpt lat="42.0492270" lon="-7.0992580">
        <ele>1058.9</ele>
        <time>2019-08-16T17:33:13Z</time>
      </trkpt>
      <trkpt lat="42.0492330" lon="-7.0993190">
        <ele>1058.5</ele>
        <time>2019-08-16T17:33:15Z</time>
      </trkpt>
      <trkpt lat="42.0492480" lon="-7.0993590">
        <ele>1058.2</ele>
        <time>2019-08-16T17:33:17Z</time>
      </trkpt>
      <trkpt lat="42.0492560" lon="-7.0993820">
        <ele>1058.1</ele>
        <time>2019-08-16T17:33:19Z</time>
      </trkpt>
      <trkpt lat="42.0492910" lon="-7.0994430">
        <ele>1057.6</ele>
        <time>2019-08-16T17:33:25Z</time>
      </trkpt>
      <trkpt lat="42.0493230" lon="-7.0995150">
        <ele>1057.1</ele>
        <time>2019-08-16T17:33:27Z</time>
      </trkpt>
      <trkpt lat="42.0493420" lon="-7.0995600">
        <ele>1056.8</ele>
        <time>2019-08-16T17:33:28Z</time>
      </trkpt>
      <trkpt lat="42.0493700" lon="-7.0995920">
        <ele>1056.5</ele>
        <time>2019-08-16T17:33:29Z</time>
      </trkpt>
      <trkpt lat="42.0494130" lon="-7.0996030">
        <ele>1056.7</ele>
        <time>2019-08-16T17:33:30Z</time>
      </trkpt>
      <trkpt lat="42.0494570" lon="-7.0996130">
        <ele>1056.6</ele>
        <time>2019-08-16T17:33:31Z</time>
      </trkpt>
      <trkpt lat="42.0495000" lon="-7.0996270">
        <ele>1056.6</ele>
        <time>2019-08-16T17:33:32Z</time>
      </trkpt>
      <trkpt lat="42.0495410" lon="-7.0996510">
        <ele>1056.5</ele>
        <time>2019-08-16T17:33:33Z</time>
      </trkpt>
      <trkpt lat="42.0495860" lon="-7.0996810">
        <ele>1056.4</ele>
        <time>2019-08-16T17:33:34Z</time>
      </trkpt>
      <trkpt lat="42.0496260" lon="-7.0997090">
        <ele>1056.4</ele>
        <time>2019-08-16T17:33:35Z</time>
      </trkpt>
      <trkpt lat="42.0496590" lon="-7.0997370">
        <ele>1056.3</ele>
        <time>2019-08-16T17:33:36Z</time>
      </trkpt>
      <trkpt lat="42.0496820" lon="-7.0997630">
        <ele>1056.3</ele>
        <time>2019-08-16T17:33:37Z</time>
      </trkpt>
      <trkpt lat="42.0497050" lon="-7.0997790">
        <ele>1056.3</ele>
        <time>2019-08-16T17:33:38Z</time>
      </trkpt>
      <trkpt lat="42.0497270" lon="-7.0997960">
        <ele>1056.2</ele>
        <time>2019-08-16T17:33:40Z</time>
      </trkpt>
      <trkpt lat="42.0497280" lon="-7.0998110">
        <ele>1056.2</ele>
        <time>2019-08-16T17:33:47Z</time>
      </trkpt>
      <trkpt lat="42.0497800" lon="-7.0999240">
        <ele>1056.6</ele>
        <time>2019-08-16T17:35:53Z</time>
      </trkpt>
      <trkpt lat="42.0498050" lon="-7.0999950">
        <ele>1056.7</ele>
        <time>2019-08-16T17:35:55Z</time>
      </trkpt>
      <trkpt lat="42.0498190" lon="-7.1000330">
        <ele>1056.8</ele>
        <time>2019-08-16T17:35:56Z</time>
      </trkpt>
      <trkpt lat="42.0498330" lon="-7.1000710">
        <ele>1056.9</ele>
        <time>2019-08-16T17:35:57Z</time>
      </trkpt>
      <trkpt lat="42.0498500" lon="-7.1001090">
        <ele>1057.0</ele>
        <time>2019-08-16T17:35:58Z</time>
      </trkpt>
      <trkpt lat="42.0498650" lon="-7.1001470">
        <ele>1057.1</ele>
        <time>2019-08-16T17:35:59Z</time>
      </trkpt>
      <trkpt lat="42.0498790" lon="-7.1001810">
        <ele>1057.2</ele>
        <time>2019-08-16T17:36:00Z</time>
      </trkpt>
      <trkpt lat="42.0498960" lon="-7.1002120">
        <ele>1057.2</ele>
        <time>2019-08-16T17:36:01Z</time>
      </trkpt>
      <trkpt lat="42.0499150" lon="-7.1002390">
        <ele>1057.3</ele>
        <time>2019-08-16T17:36:02Z</time>
      </trkpt>
      <trkpt lat="42.0499310" lon="-7.1002630">
        <ele>1057.3</ele>
        <time>2019-08-16T17:36:03Z</time>
      </trkpt>
      <trkpt lat="42.0499670" lon="-7.1003050">
        <ele>1057.3</ele>
        <time>2019-08-16T17:36:05Z</time>
      </trkpt>
      <trkpt lat="42.0500130" lon="-7.1003550">
        <ele>1057.2</ele>
        <time>2019-08-16T17:36:07Z</time>
      </trkpt>
      <trkpt lat="42.0500380" lon="-7.1003900">
        <ele>1057.2</ele>
        <time>2019-08-16T17:36:08Z</time>
      </trkpt>
      <trkpt lat="42.0500650" lon="-7.1004310">
        <ele>1057.2</ele>
        <time>2019-08-16T17:36:09Z</time>
      </trkpt>
      <trkpt lat="42.0500940" lon="-7.1004750">
        <ele>1057.1</ele>
        <time>2019-08-16T17:36:10Z</time>
      </trkpt>
      <trkpt lat="42.0501240" lon="-7.1005240">
        <ele>1057.0</ele>
        <time>2019-08-16T17:36:11Z</time>
      </trkpt>
      <trkpt lat="42.0501540" lon="-7.1005760">
        <ele>1057.0</ele>
        <time>2019-08-16T17:36:12Z</time>
      </trkpt>
      <trkpt lat="42.0501810" lon="-7.1006280">
        <ele>1057.0</ele>
        <time>2019-08-16T17:36:13Z</time>
      </trkpt>
      <trkpt lat="42.0502070" lon="-7.1006820">
        <ele>1056.9</ele>
        <time>2019-08-16T17:36:14Z</time>
      </trkpt>
      <trkpt lat="42.0502290" lon="-7.1007400">
        <ele>1056.9</ele>
        <time>2019-08-16T17:36:15Z</time>
      </trkpt>
      <trkpt lat="42.0502500" lon="-7.1007990">
        <ele>1056.8</ele>
        <time>2019-08-16T17:36:16Z</time>
      </trkpt>
      <trkpt lat="42.0502760" lon="-7.1008580">
        <ele>1056.8</ele>
        <time>2019-08-16T17:36:17Z</time>
      </trkpt>
      <trkpt lat="42.0503020" lon="-7.1009180">
        <ele>1056.7</ele>
        <time>2019-08-16T17:36:18Z</time>
      </trkpt>
      <trkpt lat="42.0503320" lon="-7.1009780">
        <ele>1056.6</ele>
        <time>2019-08-16T17:36:19Z</time>
      </trkpt>
      <trkpt lat="42.0503660" lon="-7.1010290">
        <ele>1056.5</ele>
        <time>2019-08-16T17:36:20Z</time>
      </trkpt>
      <trkpt lat="42.0504070" lon="-7.1010710">
        <ele>1056.4</ele>
        <time>2019-08-16T17:36:21Z</time>
      </trkpt>
      <trkpt lat="42.0504540" lon="-7.1011080">
        <ele>1056.2</ele>
        <time>2019-08-16T17:36:22Z</time>
      </trkpt>
      <trkpt lat="42.0505040" lon="-7.1011470">
        <ele>1056.0</ele>
        <time>2019-08-16T17:36:23Z</time>
      </trkpt>
      <trkpt lat="42.0505580" lon="-7.1011980">
        <ele>1055.8</ele>
        <time>2019-08-16T17:36:24Z</time>
      </trkpt>
      <trkpt lat="42.0506090" lon="-7.1012580">
        <ele>1055.5</ele>
        <time>2019-08-16T17:36:25Z</time>
      </trkpt>
      <trkpt lat="42.0506560" lon="-7.1013310">
        <ele>1055.3</ele>
        <time>2019-08-16T17:36:26Z</time>
      </trkpt>
      <trkpt lat="42.0506970" lon="-7.1014120">
        <ele>1055.1</ele>
        <time>2019-08-16T17:36:27Z</time>
      </trkpt>
      <trkpt lat="42.0507400" lon="-7.1014940">
        <ele>1054.9</ele>
        <time>2019-08-16T17:36:28Z</time>
      </trkpt>
      <trkpt lat="42.0507830" lon="-7.1015710">
        <ele>1054.8</ele>
        <time>2019-08-16T17:36:29Z</time>
      </trkpt>
      <trkpt lat="42.0508280" lon="-7.1016430">
        <ele>1054.8</ele>
        <time>2019-08-16T17:36:30Z</time>
      </trkpt>
      <trkpt lat="42.0508730" lon="-7.1017090">
        <ele>1054.8</ele>
        <time>2019-08-16T17:36:31Z</time>
      </trkpt>
      <trkpt lat="42.0509170" lon="-7.1017660">
        <ele>1054.8</ele>
        <time>2019-08-16T17:36:32Z</time>
      </trkpt>
      <trkpt lat="42.0509560" lon="-7.1018190">
        <ele>1054.9</ele>
        <time>2019-08-16T17:36:33Z</time>
      </trkpt>
      <trkpt lat="42.0509910" lon="-7.1018710">
        <ele>1055.0</ele>
        <time>2019-08-16T17:36:34Z</time>
      </trkpt>
      <trkpt lat="42.0510200" lon="-7.1019240">
        <ele>1055.2</ele>
        <time>2019-08-16T17:36:35Z</time>
      </trkpt>
      <trkpt lat="42.0510450" lon="-7.1019820">
        <ele>1055.1</ele>
        <time>2019-08-16T17:36:36Z</time>
      </trkpt>
      <trkpt lat="42.0510650" lon="-7.1020330">
        <ele>1055.1</ele>
        <time>2019-08-16T17:36:37Z</time>
      </trkpt>
      <trkpt lat="42.0510790" lon="-7.1020810">
        <ele>1055.0</ele>
        <time>2019-08-16T17:36:38Z</time>
      </trkpt>
      <trkpt lat="42.0510870" lon="-7.1021270">
        <ele>1055.0</ele>
        <time>2019-08-16T17:36:39Z</time>
      </trkpt>
      <trkpt lat="42.0510940" lon="-7.1021730">
        <ele>1054.9</ele>
        <time>2019-08-16T17:36:40Z</time>
      </trkpt>
      <trkpt lat="42.0511010" lon="-7.1022160">
        <ele>1054.9</ele>
        <time>2019-08-16T17:36:41Z</time>
      </trkpt>
      <trkpt lat="42.0511120" lon="-7.1022580">
        <ele>1054.8</ele>
        <time>2019-08-16T17:36:42Z</time>
      </trkpt>
      <trkpt lat="42.0511240" lon="-7.1023000">
        <ele>1054.8</ele>
        <time>2019-08-16T17:36:43Z</time>
      </trkpt>
      <trkpt lat="42.0511340" lon="-7.1023440">
        <ele>1054.8</ele>
        <time>2019-08-16T17:36:44Z</time>
      </trkpt>
      <trkpt lat="42.0511440" lon="-7.1023900">
        <ele>1054.9</ele>
        <time>2019-08-16T17:36:45Z</time>
      </trkpt>
      <trkpt lat="42.0511530" lon="-7.1024400">
        <ele>1055.0</ele>
        <time>2019-08-16T17:36:46Z</time>
      </trkpt>
      <trkpt lat="42.0511620" lon="-7.1024890">
        <ele>1055.1</ele>
        <time>2019-08-16T17:36:47Z</time>
      </trkpt>
      <trkpt lat="42.0511710" lon="-7.1025360">
        <ele>1055.2</ele>
        <time>2019-08-16T17:36:48Z</time>
      </trkpt>
      <trkpt lat="42.0511810" lon="-7.1025790">
        <ele>1055.2</ele>
        <time>2019-08-16T17:36:49Z</time>
      </trkpt>
      <trkpt lat="42.0511920" lon="-7.1026220">
        <ele>1055.3</ele>
        <time>2019-08-16T17:36:50Z</time>
      </trkpt>
      <trkpt lat="42.0512040" lon="-7.1026660">
        <ele>1055.4</ele>
        <time>2019-08-16T17:36:51Z</time>
      </trkpt>
      <trkpt lat="42.0512150" lon="-7.1027050">
        <ele>1055.5</ele>
        <time>2019-08-16T17:36:52Z</time>
      </trkpt>
      <trkpt lat="42.0512260" lon="-7.1027420">
        <ele>1055.5</ele>
        <time>2019-08-16T17:36:53Z</time>
      </trkpt>
      <trkpt lat="42.0512360" lon="-7.1027780">
        <ele>1055.6</ele>
        <time>2019-08-16T17:36:54Z</time>
      </trkpt>
      <trkpt lat="42.0512440" lon="-7.1028130">
        <ele>1055.7</ele>
        <time>2019-08-16T17:36:55Z</time>
      </trkpt>
      <trkpt lat="42.0512520" lon="-7.1028480">
        <ele>1055.8</ele>
        <time>2019-08-16T17:36:56Z</time>
      </trkpt>
      <trkpt lat="42.0512590" lon="-7.1028830">
        <ele>1055.9</ele>
        <time>2019-08-16T17:36:57Z</time>
      </trkpt>
      <trkpt lat="42.0512710" lon="-7.1029530">
        <ele>1056.0</ele>
        <time>2019-08-16T17:36:59Z</time>
      </trkpt>
      <trkpt lat="42.0512800" lon="-7.1030170">
        <ele>1056.2</ele>
        <time>2019-08-16T17:37:01Z</time>
      </trkpt>
      <trkpt lat="42.0512950" lon="-7.1030750">
        <ele>1056.5</ele>
        <time>2019-08-16T17:37:03Z</time>
      </trkpt>
      <trkpt lat="42.0513100" lon="-7.1031270">
        <ele>1056.8</ele>
        <time>2019-08-16T17:37:05Z</time>
      </trkpt>
      <trkpt lat="42.0513290" lon="-7.1031730">
        <ele>1057.1</ele>
        <time>2019-08-16T17:37:07Z</time>
      </trkpt>
      <trkpt lat="42.0513490" lon="-7.1032200">
        <ele>1057.4</ele>
        <time>2019-08-16T17:37:09Z</time>
      </trkpt>
      <trkpt lat="42.0513700" lon="-7.1032620">
        <ele>1057.6</ele>
        <time>2019-08-16T17:37:11Z</time>
      </trkpt>
      <trkpt lat="42.0513940" lon="-7.1033030">
        <ele>1057.9</ele>
        <time>2019-08-16T17:37:13Z</time>
      </trkpt>
      <trkpt lat="42.0514180" lon="-7.1033460">
        <ele>1058.1</ele>
        <time>2019-08-16T17:37:15Z</time>
      </trkpt>
      <trkpt lat="42.0514420" lon="-7.1033910">
        <ele>1058.3</ele>
        <time>2019-08-16T17:37:17Z</time>
      </trkpt>
      <trkpt lat="42.0514660" lon="-7.1034380">
        <ele>1058.5</ele>
        <time>2019-08-16T17:37:19Z</time>
      </trkpt>
      <trkpt lat="42.0514900" lon="-7.1034840">
        <ele>1058.8</ele>
        <time>2019-08-16T17:37:21Z</time>
      </trkpt>
      <trkpt lat="42.0515140" lon="-7.1035280">
        <ele>1059.1</ele>
        <time>2019-08-16T17:37:23Z</time>
      </trkpt>
      <trkpt lat="42.0515310" lon="-7.1035760">
        <ele>1059.4</ele>
        <time>2019-08-16T17:37:25Z</time>
      </trkpt>
      <trkpt lat="42.0515470" lon="-7.1036240">
        <ele>1059.8</ele>
        <time>2019-08-16T17:37:27Z</time>
      </trkpt>
      <trkpt lat="42.0515670" lon="-7.1036700">
        <ele>1060.2</ele>
        <time>2019-08-16T17:37:29Z</time>
      </trkpt>
      <trkpt lat="42.0515870" lon="-7.1037150">
        <ele>1060.6</ele>
        <time>2019-08-16T17:37:31Z</time>
      </trkpt>
      <trkpt lat="42.0516050" lon="-7.1037620">
        <ele>1061.0</ele>
        <time>2019-08-16T17:37:33Z</time>
      </trkpt>
      <trkpt lat="42.0516200" lon="-7.1038130">
        <ele>1061.3</ele>
        <time>2019-08-16T17:37:35Z</time>
      </trkpt>
      <trkpt lat="42.0516370" lon="-7.1038640">
        <ele>1061.7</ele>
        <time>2019-08-16T17:37:37Z</time>
      </trkpt>
      <trkpt lat="42.0516600" lon="-7.1039170">
        <ele>1062.0</ele>
        <time>2019-08-16T17:37:39Z</time>
      </trkpt>
      <trkpt lat="42.0516840" lon="-7.1039700">
        <ele>1062.3</ele>
        <time>2019-08-16T17:37:41Z</time>
      </trkpt>
      <trkpt lat="42.0517100" lon="-7.1040250">
        <ele>1062.6</ele>
        <time>2019-08-16T17:37:43Z</time>
      </trkpt>
      <trkpt lat="42.0517370" lon="-7.1040780">
        <ele>1062.9</ele>
        <time>2019-08-16T17:37:45Z</time>
      </trkpt>
      <trkpt lat="42.0517640" lon="-7.1041320">
        <ele>1063.2</ele>
        <time>2019-08-16T17:37:47Z</time>
      </trkpt>
      <trkpt lat="42.0517920" lon="-7.1041820">
        <ele>1063.5</ele>
        <time>2019-08-16T17:37:49Z</time>
      </trkpt>
      <trkpt lat="42.0518190" lon="-7.1042300">
        <ele>1063.8</ele>
        <time>2019-08-16T17:37:51Z</time>
      </trkpt>
      <trkpt lat="42.0518490" lon="-7.1042750">
        <ele>1064.1</ele>
        <time>2019-08-16T17:37:53Z</time>
      </trkpt>
      <trkpt lat="42.0518790" lon="-7.1043190">
        <ele>1064.4</ele>
        <time>2019-08-16T17:37:55Z</time>
      </trkpt>
      <trkpt lat="42.0519110" lon="-7.1043580">
        <ele>1064.7</ele>
        <time>2019-08-16T17:37:57Z</time>
      </trkpt>
      <trkpt lat="42.0519400" lon="-7.1043980">
        <ele>1064.9</ele>
        <time>2019-08-16T17:37:59Z</time>
      </trkpt>
      <trkpt lat="42.0519670" lon="-7.1044380">
        <ele>1065.2</ele>
        <time>2019-08-16T17:38:01Z</time>
      </trkpt>
      <trkpt lat="42.0519940" lon="-7.1044820">
        <ele>1065.5</ele>
        <time>2019-08-16T17:38:03Z</time>
      </trkpt>
      <trkpt lat="42.0520230" lon="-7.1045200">
        <ele>1065.7</ele>
        <time>2019-08-16T17:38:05Z</time>
      </trkpt>
      <trkpt lat="42.0520530" lon="-7.1045580">
        <ele>1066.0</ele>
        <time>2019-08-16T17:38:07Z</time>
      </trkpt>
      <trkpt lat="42.0520820" lon="-7.1046020">
        <ele>1066.3</ele>
        <time>2019-08-16T17:38:09Z</time>
      </trkpt>
      <trkpt lat="42.0521070" lon="-7.1046500">
        <ele>1066.5</ele>
        <time>2019-08-16T17:38:11Z</time>
      </trkpt>
      <trkpt lat="42.0521320" lon="-7.1047000">
        <ele>1066.8</ele>
        <time>2019-08-16T17:38:13Z</time>
      </trkpt>
      <trkpt lat="42.0521600" lon="-7.1047520">
        <ele>1067.1</ele>
        <time>2019-08-16T17:38:15Z</time>
      </trkpt>
      <trkpt lat="42.0521890" lon="-7.1048070">
        <ele>1067.2</ele>
        <time>2019-08-16T17:38:17Z</time>
      </trkpt>
      <trkpt lat="42.0522160" lon="-7.1048650">
        <ele>1067.4</ele>
        <time>2019-08-16T17:38:19Z</time>
      </trkpt>
      <trkpt lat="42.0522460" lon="-7.1049220">
        <ele>1067.5</ele>
        <time>2019-08-16T17:38:21Z</time>
      </trkpt>
      <trkpt lat="42.0522790" lon="-7.1049740">
        <ele>1067.7</ele>
        <time>2019-08-16T17:38:23Z</time>
      </trkpt>
      <trkpt lat="42.0523130" lon="-7.1050210">
        <ele>1067.9</ele>
        <time>2019-08-16T17:38:25Z</time>
      </trkpt>
      <trkpt lat="42.0523490" lon="-7.1050640">
        <ele>1068.1</ele>
        <time>2019-08-16T17:38:27Z</time>
      </trkpt>
      <trkpt lat="42.0523850" lon="-7.1051030">
        <ele>1068.3</ele>
        <time>2019-08-16T17:38:29Z</time>
      </trkpt>
      <trkpt lat="42.0524230" lon="-7.1051350">
        <ele>1068.5</ele>
        <time>2019-08-16T17:38:31Z</time>
      </trkpt>
      <trkpt lat="42.0524600" lon="-7.1051570">
        <ele>1068.7</ele>
        <time>2019-08-16T17:38:33Z</time>
      </trkpt>
      <trkpt lat="42.0525040" lon="-7.1051760">
        <ele>1068.9</ele>
        <time>2019-08-16T17:38:35Z</time>
      </trkpt>
      <trkpt lat="42.0525450" lon="-7.1051960">
        <ele>1069.1</ele>
        <time>2019-08-16T17:38:37Z</time>
      </trkpt>
      <trkpt lat="42.0525860" lon="-7.1052140">
        <ele>1069.2</ele>
        <time>2019-08-16T17:38:39Z</time>
      </trkpt>
      <trkpt lat="42.0526250" lon="-7.1052360">
        <ele>1069.4</ele>
        <time>2019-08-16T17:38:41Z</time>
      </trkpt>
      <trkpt lat="42.0526660" lon="-7.1052640">
        <ele>1069.6</ele>
        <time>2019-08-16T17:38:43Z</time>
      </trkpt>
      <trkpt lat="42.0527010" lon="-7.1053010">
        <ele>1069.8</ele>
        <time>2019-08-16T17:38:45Z</time>
      </trkpt>
      <trkpt lat="42.0527190" lon="-7.1053380">
        <ele>1069.9</ele>
        <time>2019-08-16T17:38:47Z</time>
      </trkpt>
      <trkpt lat="42.0527400" lon="-7.1053760">
        <ele>1070.0</ele>
        <time>2019-08-16T17:38:49Z</time>
      </trkpt>
      <trkpt lat="42.0527660" lon="-7.1054080">
        <ele>1070.2</ele>
        <time>2019-08-16T17:38:51Z</time>
      </trkpt>
      <trkpt lat="42.0527930" lon="-7.1054440">
        <ele>1070.4</ele>
        <time>2019-08-16T17:38:53Z</time>
      </trkpt>
      <trkpt lat="42.0528200" lon="-7.1054870">
        <ele>1070.5</ele>
        <time>2019-08-16T17:38:55Z</time>
      </trkpt>
      <trkpt lat="42.0528380" lon="-7.1055410">
        <ele>1070.6</ele>
        <time>2019-08-16T17:38:57Z</time>
      </trkpt>
      <trkpt lat="42.0528440" lon="-7.1056120">
        <ele>1070.7</ele>
        <time>2019-08-16T17:38:59Z</time>
      </trkpt>
      <trkpt lat="42.0528500" lon="-7.1056510">
        <ele>1070.7</ele>
        <time>2019-08-16T17:39:00Z</time>
      </trkpt>
      <trkpt lat="42.0528600" lon="-7.1056910">
        <ele>1070.8</ele>
        <time>2019-08-16T17:39:01Z</time>
      </trkpt>
      <trkpt lat="42.0528750" lon="-7.1057270">
        <ele>1070.8</ele>
        <time>2019-08-16T17:39:02Z</time>
      </trkpt>
      <trkpt lat="42.0528920" lon="-7.1057630">
        <ele>1070.9</ele>
        <time>2019-08-16T17:39:03Z</time>
      </trkpt>
      <trkpt lat="42.0529060" lon="-7.1057980">
        <ele>1071.1</ele>
        <time>2019-08-16T17:39:04Z</time>
      </trkpt>
      <trkpt lat="42.0529200" lon="-7.1058320">
        <ele>1071.2</ele>
        <time>2019-08-16T17:39:05Z</time>
      </trkpt>
      <trkpt lat="42.0529360" lon="-7.1058690">
        <ele>1071.3</ele>
        <time>2019-08-16T17:39:06Z</time>
      </trkpt>
      <trkpt lat="42.0529500" lon="-7.1059030">
        <ele>1071.3</ele>
        <time>2019-08-16T17:39:07Z</time>
      </trkpt>
      <trkpt lat="42.0529630" lon="-7.1059340">
        <ele>1071.4</ele>
        <time>2019-08-16T17:39:08Z</time>
      </trkpt>
      <trkpt lat="42.0529880" lon="-7.1060000">
        <ele>1071.6</ele>
        <time>2019-08-16T17:39:10Z</time>
      </trkpt>
      <trkpt lat="42.0529990" lon="-7.1060300">
        <ele>1071.6</ele>
        <time>2019-08-16T17:39:11Z</time>
      </trkpt>
      <trkpt lat="42.0530150" lon="-7.1060850">
        <ele>1071.7</ele>
        <time>2019-08-16T17:39:13Z</time>
      </trkpt>
      <trkpt lat="42.0530260" lon="-7.1061370">
        <ele>1071.8</ele>
        <time>2019-08-16T17:39:15Z</time>
      </trkpt>
      <trkpt lat="42.0530410" lon="-7.1061930">
        <ele>1071.9</ele>
        <time>2019-08-16T17:39:17Z</time>
      </trkpt>
      <trkpt lat="42.0530500" lon="-7.1062560">
        <ele>1072.0</ele>
        <time>2019-08-16T17:39:19Z</time>
      </trkpt>
      <trkpt lat="42.0530620" lon="-7.1063180">
        <ele>1072.1</ele>
        <time>2019-08-16T17:39:21Z</time>
      </trkpt>
      <trkpt lat="42.0530740" lon="-7.1063810">
        <ele>1072.2</ele>
        <time>2019-08-16T17:39:23Z</time>
      </trkpt>
      <trkpt lat="42.0530900" lon="-7.1064320">
        <ele>1072.2</ele>
        <time>2019-08-16T17:39:25Z</time>
      </trkpt>
      <trkpt lat="42.0531080" lon="-7.1064760">
        <ele>1072.2</ele>
        <time>2019-08-16T17:39:27Z</time>
      </trkpt>
      <trkpt lat="42.0531190" lon="-7.1065160">
        <ele>1072.3</ele>
        <time>2019-08-16T17:39:29Z</time>
      </trkpt>
      <trkpt lat="42.0531330" lon="-7.1065570">
        <ele>1072.3</ele>
        <time>2019-08-16T17:39:31Z</time>
      </trkpt>
      <trkpt lat="42.0531530" lon="-7.1065990">
        <ele>1072.3</ele>
        <time>2019-08-16T17:39:33Z</time>
      </trkpt>
      <trkpt lat="42.0531750" lon="-7.1066660">
        <ele>1072.3</ele>
        <time>2019-08-16T17:39:35Z</time>
      </trkpt>
      <trkpt lat="42.0531860" lon="-7.1067050">
        <ele>1072.3</ele>
        <time>2019-08-16T17:39:36Z</time>
      </trkpt>
      <trkpt lat="42.0532000" lon="-7.1067480">
        <ele>1072.3</ele>
        <time>2019-08-16T17:39:37Z</time>
      </trkpt>
      <trkpt lat="42.0532160" lon="-7.1067890">
        <ele>1072.3</ele>
        <time>2019-08-16T17:39:38Z</time>
      </trkpt>
      <trkpt lat="42.0532300" lon="-7.1068290">
        <ele>1072.3</ele>
        <time>2019-08-16T17:39:39Z</time>
      </trkpt>
      <trkpt lat="42.0532390" lon="-7.1068660">
        <ele>1072.3</ele>
        <time>2019-08-16T17:39:40Z</time>
      </trkpt>
      <trkpt lat="42.0532480" lon="-7.1069030">
        <ele>1072.2</ele>
        <time>2019-08-16T17:39:41Z</time>
      </trkpt>
      <trkpt lat="42.0532560" lon="-7.1069410">
        <ele>1072.2</ele>
        <time>2019-08-16T17:39:42Z</time>
      </trkpt>
      <trkpt lat="42.0532650" lon="-7.1069750">
        <ele>1072.2</ele>
        <time>2019-08-16T17:39:43Z</time>
      </trkpt>
      <trkpt lat="42.0532820" lon="-7.1070560">
        <ele>1072.2</ele>
        <time>2019-08-16T17:39:45Z</time>
      </trkpt>
      <trkpt lat="42.0532930" lon="-7.1070970">
        <ele>1072.2</ele>
        <time>2019-08-16T17:39:46Z</time>
      </trkpt>
      <trkpt lat="42.0533040" lon="-7.1071390">
        <ele>1072.2</ele>
        <time>2019-08-16T17:39:47Z</time>
      </trkpt>
      <trkpt lat="42.0533120" lon="-7.1071860">
        <ele>1072.1</ele>
        <time>2019-08-16T17:39:48Z</time>
      </trkpt>
      <trkpt lat="42.0533180" lon="-7.1072360">
        <ele>1072.1</ele>
        <time>2019-08-16T17:39:49Z</time>
      </trkpt>
      <trkpt lat="42.0533270" lon="-7.1072830">
        <ele>1072.1</ele>
        <time>2019-08-16T17:39:50Z</time>
      </trkpt>
      <trkpt lat="42.0533340" lon="-7.1073290">
        <ele>1072.1</ele>
        <time>2019-08-16T17:39:51Z</time>
      </trkpt>
      <trkpt lat="42.0533380" lon="-7.1073780">
        <ele>1072.1</ele>
        <time>2019-08-16T17:39:52Z</time>
      </trkpt>
      <trkpt lat="42.0533450" lon="-7.1074240">
        <ele>1072.1</ele>
        <time>2019-08-16T17:39:53Z</time>
      </trkpt>
      <trkpt lat="42.0533560" lon="-7.1074710">
        <ele>1072.1</ele>
        <time>2019-08-16T17:39:54Z</time>
      </trkpt>
      <trkpt lat="42.0533680" lon="-7.1075160">
        <ele>1072.1</ele>
        <time>2019-08-16T17:39:55Z</time>
      </trkpt>
      <trkpt lat="42.0533790" lon="-7.1075600">
        <ele>1072.1</ele>
        <time>2019-08-16T17:39:56Z</time>
      </trkpt>
      <trkpt lat="42.0533900" lon="-7.1076030">
        <ele>1072.1</ele>
        <time>2019-08-16T17:39:57Z</time>
      </trkpt>
      <trkpt lat="42.0534030" lon="-7.1076470">
        <ele>1072.2</ele>
        <time>2019-08-16T17:39:58Z</time>
      </trkpt>
      <trkpt lat="42.0534170" lon="-7.1076920">
        <ele>1072.2</ele>
        <time>2019-08-16T17:39:59Z</time>
      </trkpt>
      <trkpt lat="42.0534310" lon="-7.1077370">
        <ele>1072.2</ele>
        <time>2019-08-16T17:40:00Z</time>
      </trkpt>
      <trkpt lat="42.0534450" lon="-7.1077820">
        <ele>1072.2</ele>
        <time>2019-08-16T17:40:01Z</time>
      </trkpt>
      <trkpt lat="42.0534580" lon="-7.1078270">
        <ele>1072.3</ele>
        <time>2019-08-16T17:40:02Z</time>
      </trkpt>
      <trkpt lat="42.0534740" lon="-7.1078690">
        <ele>1072.3</ele>
        <time>2019-08-16T17:40:03Z</time>
      </trkpt>
      <trkpt lat="42.0534910" lon="-7.1079100">
        <ele>1072.3</ele>
        <time>2019-08-16T17:40:04Z</time>
      </trkpt>
      <trkpt lat="42.0535070" lon="-7.1079480">
        <ele>1072.3</ele>
        <time>2019-08-16T17:40:05Z</time>
      </trkpt>
      <trkpt lat="42.0535250" lon="-7.1079870">
        <ele>1072.4</ele>
        <time>2019-08-16T17:40:06Z</time>
      </trkpt>
      <trkpt lat="42.0535430" lon="-7.1080300">
        <ele>1072.4</ele>
        <time>2019-08-16T17:40:07Z</time>
      </trkpt>
      <trkpt lat="42.0535590" lon="-7.1080740">
        <ele>1072.4</ele>
        <time>2019-08-16T17:40:08Z</time>
      </trkpt>
      <trkpt lat="42.0535740" lon="-7.1081170">
        <ele>1072.5</ele>
        <time>2019-08-16T17:40:09Z</time>
      </trkpt>
      <trkpt lat="42.0535880" lon="-7.1081600">
        <ele>1072.5</ele>
        <time>2019-08-16T17:40:10Z</time>
      </trkpt>
      <trkpt lat="42.0536030" lon="-7.1082020">
        <ele>1072.5</ele>
        <time>2019-08-16T17:40:11Z</time>
      </trkpt>
      <trkpt lat="42.0536160" lon="-7.1082450">
        <ele>1072.6</ele>
        <time>2019-08-16T17:40:12Z</time>
      </trkpt>
      <trkpt lat="42.0536280" lon="-7.1082860">
        <ele>1072.7</ele>
        <time>2019-08-16T17:40:13Z</time>
      </trkpt>
      <trkpt lat="42.0536390" lon="-7.1083250">
        <ele>1072.8</ele>
        <time>2019-08-16T17:40:14Z</time>
      </trkpt>
      <trkpt lat="42.0536470" lon="-7.1083630">
        <ele>1072.9</ele>
        <time>2019-08-16T17:40:15Z</time>
      </trkpt>
      <trkpt lat="42.0536560" lon="-7.1083980">
        <ele>1073.0</ele>
        <time>2019-08-16T17:40:16Z</time>
      </trkpt>
      <trkpt lat="42.0536650" lon="-7.1084300">
        <ele>1073.0</ele>
        <time>2019-08-16T17:40:17Z</time>
      </trkpt>
      <trkpt lat="42.0536840" lon="-7.1084870">
        <ele>1073.2</ele>
        <time>2019-08-16T17:40:19Z</time>
      </trkpt>
      <trkpt lat="42.0536980" lon="-7.1085400">
        <ele>1073.3</ele>
        <time>2019-08-16T17:40:21Z</time>
      </trkpt>
      <trkpt lat="42.0537160" lon="-7.1085850">
        <ele>1073.4</ele>
        <time>2019-08-16T17:40:23Z</time>
      </trkpt>
      <trkpt lat="42.0537370" lon="-7.1086380">
        <ele>1073.6</ele>
        <time>2019-08-16T17:40:25Z</time>
      </trkpt>
      <trkpt lat="42.0537570" lon="-7.1086930">
        <ele>1073.7</ele>
        <time>2019-08-16T17:40:27Z</time>
      </trkpt>
      <trkpt lat="42.0537780" lon="-7.1087340">
        <ele>1073.8</ele>
        <time>2019-08-16T17:40:29Z</time>
      </trkpt>
      <trkpt lat="42.0537890" lon="-7.1087750">
        <ele>1074.0</ele>
        <time>2019-08-16T17:40:31Z</time>
      </trkpt>
      <trkpt lat="42.0538000" lon="-7.1088250">
        <ele>1074.1</ele>
        <time>2019-08-16T17:40:33Z</time>
      </trkpt>
      <trkpt lat="42.0538090" lon="-7.1088840">
        <ele>1074.3</ele>
        <time>2019-08-16T17:40:35Z</time>
      </trkpt>
      <trkpt lat="42.0538220" lon="-7.1089550">
        <ele>1074.5</ele>
        <time>2019-08-16T17:40:37Z</time>
      </trkpt>
      <trkpt lat="42.0538290" lon="-7.1089870">
        <ele>1074.6</ele>
        <time>2019-08-16T17:40:38Z</time>
      </trkpt>
      <trkpt lat="42.0538420" lon="-7.1090440">
        <ele>1074.8</ele>
        <time>2019-08-16T17:40:40Z</time>
      </trkpt>
      <trkpt lat="42.0538570" lon="-7.1091050">
        <ele>1075.0</ele>
        <time>2019-08-16T17:40:42Z</time>
      </trkpt>
      <trkpt lat="42.0538740" lon="-7.1091640">
        <ele>1075.4</ele>
        <time>2019-08-16T17:40:44Z</time>
      </trkpt>
      <trkpt lat="42.0538900" lon="-7.1092220">
        <ele>1075.6</ele>
        <time>2019-08-16T17:40:46Z</time>
      </trkpt>
      <trkpt lat="42.0539030" lon="-7.1092820">
        <ele>1075.8</ele>
        <time>2019-08-16T17:40:48Z</time>
      </trkpt>
      <trkpt lat="42.0539120" lon="-7.1093350">
        <ele>1076.0</ele>
        <time>2019-08-16T17:40:50Z</time>
      </trkpt>
      <trkpt lat="42.0539220" lon="-7.1093820">
        <ele>1076.1</ele>
        <time>2019-08-16T17:40:52Z</time>
      </trkpt>
      <trkpt lat="42.0539380" lon="-7.1094300">
        <ele>1076.3</ele>
        <time>2019-08-16T17:40:54Z</time>
      </trkpt>
      <trkpt lat="42.0539530" lon="-7.1094800">
        <ele>1076.4</ele>
        <time>2019-08-16T17:40:56Z</time>
      </trkpt>
      <trkpt lat="42.0539710" lon="-7.1095260">
        <ele>1076.6</ele>
        <time>2019-08-16T17:40:58Z</time>
      </trkpt>
      <trkpt lat="42.0539860" lon="-7.1095710">
        <ele>1076.7</ele>
        <time>2019-08-16T17:41:00Z</time>
      </trkpt>
      <trkpt lat="42.0539990" lon="-7.1096130">
        <ele>1076.9</ele>
        <time>2019-08-16T17:41:02Z</time>
      </trkpt>
      <trkpt lat="42.0540170" lon="-7.1096540">
        <ele>1076.9</ele>
        <time>2019-08-16T17:41:04Z</time>
      </trkpt>
      <trkpt lat="42.0540400" lon="-7.1096970">
        <ele>1077.0</ele>
        <time>2019-08-16T17:41:06Z</time>
      </trkpt>
      <trkpt lat="42.0540720" lon="-7.1097440">
        <ele>1077.0</ele>
        <time>2019-08-16T17:41:08Z</time>
      </trkpt>
      <trkpt lat="42.0541100" lon="-7.1097940">
        <ele>1076.9</ele>
        <time>2019-08-16T17:41:10Z</time>
      </trkpt>
      <trkpt lat="42.0541470" lon="-7.1098400">
        <ele>1076.8</ele>
        <time>2019-08-16T17:41:12Z</time>
      </trkpt>
      <trkpt lat="42.0541910" lon="-7.1098870">
        <ele>1076.7</ele>
        <time>2019-08-16T17:41:14Z</time>
      </trkpt>
      <trkpt lat="42.0542160" lon="-7.1099070">
        <ele>1076.7</ele>
        <time>2019-08-16T17:41:15Z</time>
      </trkpt>
      <trkpt lat="42.0542420" lon="-7.1099270">
        <ele>1076.6</ele>
        <time>2019-08-16T17:41:16Z</time>
      </trkpt>
      <trkpt lat="42.0542700" lon="-7.1099500">
        <ele>1076.6</ele>
        <time>2019-08-16T17:41:17Z</time>
      </trkpt>
      <trkpt lat="42.0542970" lon="-7.1099740">
        <ele>1076.5</ele>
        <time>2019-08-16T17:41:18Z</time>
      </trkpt>
      <trkpt lat="42.0543240" lon="-7.1099980">
        <ele>1076.4</ele>
        <time>2019-08-16T17:41:19Z</time>
      </trkpt>
      <trkpt lat="42.0543500" lon="-7.1100250">
        <ele>1076.4</ele>
        <time>2019-08-16T17:41:20Z</time>
      </trkpt>
      <trkpt lat="42.0543760" lon="-7.1100540">
        <ele>1076.3</ele>
        <time>2019-08-16T17:41:21Z</time>
      </trkpt>
      <trkpt lat="42.0544020" lon="-7.1100850">
        <ele>1076.2</ele>
        <time>2019-08-16T17:41:22Z</time>
      </trkpt>
      <trkpt lat="42.0544270" lon="-7.1101160">
        <ele>1076.1</ele>
        <time>2019-08-16T17:41:23Z</time>
      </trkpt>
      <trkpt lat="42.0544530" lon="-7.1101480">
        <ele>1076.0</ele>
        <time>2019-08-16T17:41:24Z</time>
      </trkpt>
      <trkpt lat="42.0544780" lon="-7.1101830">
        <ele>1075.9</ele>
        <time>2019-08-16T17:41:25Z</time>
      </trkpt>
      <trkpt lat="42.0545030" lon="-7.1102190">
        <ele>1075.8</ele>
        <time>2019-08-16T17:41:26Z</time>
      </trkpt>
      <trkpt lat="42.0545290" lon="-7.1102590">
        <ele>1075.7</ele>
        <time>2019-08-16T17:41:27Z</time>
      </trkpt>
      <trkpt lat="42.0545580" lon="-7.1103020">
        <ele>1075.5</ele>
        <time>2019-08-16T17:41:28Z</time>
      </trkpt>
      <trkpt lat="42.0545860" lon="-7.1103500">
        <ele>1075.4</ele>
        <time>2019-08-16T17:41:29Z</time>
      </trkpt>
      <trkpt lat="42.0546090" lon="-7.1104000">
        <ele>1075.2</ele>
        <time>2019-08-16T17:41:30Z</time>
      </trkpt>
      <trkpt lat="42.0546290" lon="-7.1104520">
        <ele>1075.0</ele>
        <time>2019-08-16T17:41:31Z</time>
      </trkpt>
      <trkpt lat="42.0546480" lon="-7.1105030">
        <ele>1074.9</ele>
        <time>2019-08-16T17:41:32Z</time>
      </trkpt>
      <trkpt lat="42.0546660" lon="-7.1105460">
        <ele>1074.7</ele>
        <time>2019-08-16T17:41:33Z</time>
      </trkpt>
      <trkpt lat="42.0546840" lon="-7.1105860">
        <ele>1074.6</ele>
        <time>2019-08-16T17:41:34Z</time>
      </trkpt>
      <trkpt lat="42.0546990" lon="-7.1106260">
        <ele>1074.4</ele>
        <time>2019-08-16T17:41:35Z</time>
      </trkpt>
      <trkpt lat="42.0547090" lon="-7.1106590">
        <ele>1074.3</ele>
        <time>2019-08-16T17:41:36Z</time>
      </trkpt>
      <trkpt lat="42.0547320" lon="-7.1107370">
        <ele>1074.1</ele>
        <time>2019-08-16T17:41:38Z</time>
      </trkpt>
      <trkpt lat="42.0547420" lon="-7.1107740">
        <ele>1074.0</ele>
        <time>2019-08-16T17:41:39Z</time>
      </trkpt>
      <trkpt lat="42.0547500" lon="-7.1108060">
        <ele>1074.0</ele>
        <time>2019-08-16T17:41:40Z</time>
      </trkpt>
      <trkpt lat="42.0547680" lon="-7.1108640">
        <ele>1073.9</ele>
        <time>2019-08-16T17:41:42Z</time>
      </trkpt>
      <trkpt lat="42.0547980" lon="-7.1109250">
        <ele>1073.8</ele>
        <time>2019-08-16T17:41:44Z</time>
      </trkpt>
      <trkpt lat="42.0548140" lon="-7.1109600">
        <ele>1073.7</ele>
        <time>2019-08-16T17:41:45Z</time>
      </trkpt>
      <trkpt lat="42.0548320" lon="-7.1109970">
        <ele>1073.6</ele>
        <time>2019-08-16T17:41:46Z</time>
      </trkpt>
      <trkpt lat="42.0548540" lon="-7.1110340">
        <ele>1073.6</ele>
        <time>2019-08-16T17:41:47Z</time>
      </trkpt>
      <trkpt lat="42.0548720" lon="-7.1110720">
        <ele>1073.5</ele>
        <time>2019-08-16T17:41:48Z</time>
      </trkpt>
      <trkpt lat="42.0548950" lon="-7.1111130">
        <ele>1073.5</ele>
        <time>2019-08-16T17:41:49Z</time>
      </trkpt>
      <trkpt lat="42.0549180" lon="-7.1111500">
        <ele>1073.4</ele>
        <time>2019-08-16T17:41:50Z</time>
      </trkpt>
      <trkpt lat="42.0549400" lon="-7.1111890">
        <ele>1073.4</ele>
        <time>2019-08-16T17:41:51Z</time>
      </trkpt>
      <trkpt lat="42.0549610" lon="-7.1112240">
        <ele>1073.3</ele>
        <time>2019-08-16T17:41:52Z</time>
      </trkpt>
      <trkpt lat="42.0549830" lon="-7.1112600">
        <ele>1073.2</ele>
        <time>2019-08-16T17:41:53Z</time>
      </trkpt>
      <trkpt lat="42.0550080" lon="-7.1112960">
        <ele>1073.2</ele>
        <time>2019-08-16T17:41:54Z</time>
      </trkpt>
      <trkpt lat="42.0550270" lon="-7.1113340">
        <ele>1073.1</ele>
        <time>2019-08-16T17:41:55Z</time>
      </trkpt>
      <trkpt lat="42.0550460" lon="-7.1113730">
        <ele>1073.0</ele>
        <time>2019-08-16T17:41:56Z</time>
      </trkpt>
      <trkpt lat="42.0550670" lon="-7.1114160">
        <ele>1073.0</ele>
        <time>2019-08-16T17:41:57Z</time>
      </trkpt>
      <trkpt lat="42.0550940" lon="-7.1114670">
        <ele>1072.9</ele>
        <time>2019-08-16T17:41:58Z</time>
      </trkpt>
      <trkpt lat="42.0551170" lon="-7.1115080">
        <ele>1072.8</ele>
        <time>2019-08-16T17:41:59Z</time>
      </trkpt>
      <trkpt lat="42.0551450" lon="-7.1115480">
        <ele>1072.7</ele>
        <time>2019-08-16T17:42:00Z</time>
      </trkpt>
      <trkpt lat="42.0551760" lon="-7.1115800">
        <ele>1072.7</ele>
        <time>2019-08-16T17:42:01Z</time>
      </trkpt>
      <trkpt lat="42.0552040" lon="-7.1116110">
        <ele>1072.6</ele>
        <time>2019-08-16T17:42:02Z</time>
      </trkpt>
      <trkpt lat="42.0552340" lon="-7.1116440">
        <ele>1072.6</ele>
        <time>2019-08-16T17:42:03Z</time>
      </trkpt>
      <trkpt lat="42.0552640" lon="-7.1116780">
        <ele>1072.5</ele>
        <time>2019-08-16T17:42:04Z</time>
      </trkpt>
      <trkpt lat="42.0552910" lon="-7.1117110">
        <ele>1072.5</ele>
        <time>2019-08-16T17:42:05Z</time>
      </trkpt>
      <trkpt lat="42.0553140" lon="-7.1117340">
        <ele>1072.5</ele>
        <time>2019-08-16T17:42:06Z</time>
      </trkpt>
      <trkpt lat="42.0553350" lon="-7.1117540">
        <ele>1072.4</ele>
        <time>2019-08-16T17:42:07Z</time>
      </trkpt>
      <trkpt lat="42.0553900" lon="-7.1117980">
        <ele>1072.3</ele>
        <time>2019-08-16T17:42:09Z</time>
      </trkpt>
      <trkpt lat="42.0554190" lon="-7.1118220">
        <ele>1072.3</ele>
        <time>2019-08-16T17:42:10Z</time>
      </trkpt>
      <trkpt lat="42.0554470" lon="-7.1118510">
        <ele>1072.2</ele>
        <time>2019-08-16T17:42:11Z</time>
      </trkpt>
      <trkpt lat="42.0554740" lon="-7.1118830">
        <ele>1072.2</ele>
        <time>2019-08-16T17:42:12Z</time>
      </trkpt>
      <trkpt lat="42.0555000" lon="-7.1119150">
        <ele>1072.1</ele>
        <time>2019-08-16T17:42:13Z</time>
      </trkpt>
      <trkpt lat="42.0555260" lon="-7.1119460">
        <ele>1072.1</ele>
        <time>2019-08-16T17:42:14Z</time>
      </trkpt>
      <trkpt lat="42.0555520" lon="-7.1119770">
        <ele>1072.0</ele>
        <time>2019-08-16T17:42:15Z</time>
      </trkpt>
      <trkpt lat="42.0555760" lon="-7.1120070">
        <ele>1071.9</ele>
        <time>2019-08-16T17:42:16Z</time>
      </trkpt>
      <trkpt lat="42.0556040" lon="-7.1120430">
        <ele>1071.9</ele>
        <time>2019-08-16T17:42:17Z</time>
      </trkpt>
      <trkpt lat="42.0556360" lon="-7.1120830">
        <ele>1071.8</ele>
        <time>2019-08-16T17:42:18Z</time>
      </trkpt>
      <trkpt lat="42.0556670" lon="-7.1121290">
        <ele>1071.7</ele>
        <time>2019-08-16T17:42:19Z</time>
      </trkpt>
      <trkpt lat="42.0556900" lon="-7.1121840">
        <ele>1071.4</ele>
        <time>2019-08-16T17:42:20Z</time>
      </trkpt>
      <trkpt lat="42.0557070" lon="-7.1122440">
        <ele>1071.2</ele>
        <time>2019-08-16T17:42:21Z</time>
      </trkpt>
      <trkpt lat="42.0557220" lon="-7.1123090">
        <ele>1070.9</ele>
        <time>2019-08-16T17:42:22Z</time>
      </trkpt>
      <trkpt lat="42.0557360" lon="-7.1123780">
        <ele>1070.6</ele>
        <time>2019-08-16T17:42:23Z</time>
      </trkpt>
      <trkpt lat="42.0557500" lon="-7.1124470">
        <ele>1070.3</ele>
        <time>2019-08-16T17:42:24Z</time>
      </trkpt>
      <trkpt lat="42.0557630" lon="-7.1125180">
        <ele>1070.0</ele>
        <time>2019-08-16T17:42:25Z</time>
      </trkpt>
      <trkpt lat="42.0557750" lon="-7.1125850">
        <ele>1069.7</ele>
        <time>2019-08-16T17:42:26Z</time>
      </trkpt>
      <trkpt lat="42.0557840" lon="-7.1126500">
        <ele>1069.5</ele>
        <time>2019-08-16T17:42:27Z</time>
      </trkpt>
      <trkpt lat="42.0557910" lon="-7.1127130">
        <ele>1069.2</ele>
        <time>2019-08-16T17:42:28Z</time>
      </trkpt>
      <trkpt lat="42.0557970" lon="-7.1127760">
        <ele>1068.9</ele>
        <time>2019-08-16T17:42:29Z</time>
      </trkpt>
      <trkpt lat="42.0558040" lon="-7.1128380">
        <ele>1068.8</ele>
        <time>2019-08-16T17:42:30Z</time>
      </trkpt>
      <trkpt lat="42.0558160" lon="-7.1128980">
        <ele>1068.6</ele>
        <time>2019-08-16T17:42:31Z</time>
      </trkpt>
      <trkpt lat="42.0558270" lon="-7.1129580">
        <ele>1068.4</ele>
        <time>2019-08-16T17:42:32Z</time>
      </trkpt>
      <trkpt lat="42.0558400" lon="-7.1130170">
        <ele>1068.2</ele>
        <time>2019-08-16T17:42:33Z</time>
      </trkpt>
      <trkpt lat="42.0558490" lon="-7.1130800">
        <ele>1068.0</ele>
        <time>2019-08-16T17:42:34Z</time>
      </trkpt>
      <trkpt lat="42.0558520" lon="-7.1131470">
        <ele>1067.8</ele>
        <time>2019-08-16T17:42:35Z</time>
      </trkpt>
      <trkpt lat="42.0558520" lon="-7.1132200">
        <ele>1067.6</ele>
        <time>2019-08-16T17:42:36Z</time>
      </trkpt>
      <trkpt lat="42.0558480" lon="-7.1132950">
        <ele>1067.4</ele>
        <time>2019-08-16T17:42:37Z</time>
      </trkpt>
      <trkpt lat="42.0558410" lon="-7.1133700">
        <ele>1067.2</ele>
        <time>2019-08-16T17:42:38Z</time>
      </trkpt>
      <trkpt lat="42.0558360" lon="-7.1134500">
        <ele>1066.8</ele>
        <time>2019-08-16T17:42:39Z</time>
      </trkpt>
      <trkpt lat="42.0558300" lon="-7.1135290">
        <ele>1066.5</ele>
        <time>2019-08-16T17:42:40Z</time>
      </trkpt>
      <trkpt lat="42.0558280" lon="-7.1136120">
        <ele>1066.2</ele>
        <time>2019-08-16T17:42:41Z</time>
      </trkpt>
      <trkpt lat="42.0558260" lon="-7.1136960">
        <ele>1065.9</ele>
        <time>2019-08-16T17:42:42Z</time>
      </trkpt>
      <trkpt lat="42.0558260" lon="-7.1137890">
        <ele>1065.6</ele>
        <time>2019-08-16T17:42:43Z</time>
      </trkpt>
      <trkpt lat="42.0558340" lon="-7.1138690">
        <ele>1065.4</ele>
        <time>2019-08-16T17:42:44Z</time>
      </trkpt>
      <trkpt lat="42.0558470" lon="-7.1139570">
        <ele>1065.2</ele>
        <time>2019-08-16T17:42:45Z</time>
      </trkpt>
      <trkpt lat="42.0558620" lon="-7.1140470">
        <ele>1065.0</ele>
        <time>2019-08-16T17:42:46Z</time>
      </trkpt>
      <trkpt lat="42.0558810" lon="-7.1141390">
        <ele>1064.9</ele>
        <time>2019-08-16T17:42:47Z</time>
      </trkpt>
      <trkpt lat="42.0559060" lon="-7.1142420">
        <ele>1064.8</ele>
        <time>2019-08-16T17:42:48Z</time>
      </trkpt>
      <trkpt lat="42.0559350" lon="-7.1143420">
        <ele>1064.7</ele>
        <time>2019-08-16T17:42:49Z</time>
      </trkpt>
      <trkpt lat="42.0559720" lon="-7.1144380">
        <ele>1064.5</ele>
        <time>2019-08-16T17:42:50Z</time>
      </trkpt>
      <trkpt lat="42.0560110" lon="-7.1145240">
        <ele>1064.3</ele>
        <time>2019-08-16T17:42:51Z</time>
      </trkpt>
      <trkpt lat="42.0560520" lon="-7.1146060">
        <ele>1064.1</ele>
        <time>2019-08-16T17:42:52Z</time>
      </trkpt>
      <trkpt lat="42.0560940" lon="-7.1146820">
        <ele>1063.8</ele>
        <time>2019-08-16T17:42:53Z</time>
      </trkpt>
      <trkpt lat="42.0561400" lon="-7.1147590">
        <ele>1063.5</ele>
        <time>2019-08-16T17:42:54Z</time>
      </trkpt>
      <trkpt lat="42.0561880" lon="-7.1148350">
        <ele>1063.2</ele>
        <time>2019-08-16T17:42:55Z</time>
      </trkpt>
      <trkpt lat="42.0562390" lon="-7.1149140">
        <ele>1062.8</ele>
        <time>2019-08-16T17:42:56Z</time>
      </trkpt>
      <trkpt lat="42.0562900" lon="-7.1149950">
        <ele>1062.4</ele>
        <time>2019-08-16T17:42:57Z</time>
      </trkpt>
      <trkpt lat="42.0563440" lon="-7.1150800">
        <ele>1062.0</ele>
        <time>2019-08-16T17:42:58Z</time>
      </trkpt>
      <trkpt lat="42.0564000" lon="-7.1151680">
        <ele>1061.5</ele>
        <time>2019-08-16T17:42:59Z</time>
      </trkpt>
      <trkpt lat="42.0564590" lon="-7.1152570">
        <ele>1060.9</ele>
        <time>2019-08-16T17:43:00Z</time>
      </trkpt>
      <trkpt lat="42.0565190" lon="-7.1153480">
        <ele>1060.2</ele>
        <time>2019-08-16T17:43:01Z</time>
      </trkpt>
      <trkpt lat="42.0565810" lon="-7.1154420">
        <ele>1059.5</ele>
        <time>2019-08-16T17:43:02Z</time>
      </trkpt>
      <trkpt lat="42.0566450" lon="-7.1155410">
        <ele>1058.9</ele>
        <time>2019-08-16T17:43:03Z</time>
      </trkpt>
      <trkpt lat="42.0567090" lon="-7.1156370">
        <ele>1058.2</ele>
        <time>2019-08-16T17:43:04Z</time>
      </trkpt>
      <trkpt lat="42.0567720" lon="-7.1157350">
        <ele>1057.6</ele>
        <time>2019-08-16T17:43:05Z</time>
      </trkpt>
      <trkpt lat="42.0568330" lon="-7.1158310">
        <ele>1056.7</ele>
        <time>2019-08-16T17:43:06Z</time>
      </trkpt>
      <trkpt lat="42.0568930" lon="-7.1159230">
        <ele>1055.8</ele>
        <time>2019-08-16T17:43:07Z</time>
      </trkpt>
      <trkpt lat="42.0569530" lon="-7.1160120">
        <ele>1054.8</ele>
        <time>2019-08-16T17:43:08Z</time>
      </trkpt>
      <trkpt lat="42.0570120" lon="-7.1161010">
        <ele>1053.9</ele>
        <time>2019-08-16T17:43:09Z</time>
      </trkpt>
      <trkpt lat="42.0570710" lon="-7.1161920">
        <ele>1052.9</ele>
        <time>2019-08-16T17:43:10Z</time>
      </trkpt>
      <trkpt lat="42.0571300" lon="-7.1162840">
        <ele>1051.9</ele>
        <time>2019-08-16T17:43:11Z</time>
      </trkpt>
      <trkpt lat="42.0571890" lon="-7.1163720">
        <ele>1051.0</ele>
        <time>2019-08-16T17:43:12Z</time>
      </trkpt>
      <trkpt lat="42.0572480" lon="-7.1164620">
        <ele>1050.0</ele>
        <time>2019-08-16T17:43:13Z</time>
      </trkpt>
      <trkpt lat="42.0573060" lon="-7.1165520">
        <ele>1049.1</ele>
        <time>2019-08-16T17:43:14Z</time>
      </trkpt>
      <trkpt lat="42.0573640" lon="-7.1166380">
        <ele>1048.2</ele>
        <time>2019-08-16T17:43:15Z</time>
      </trkpt>
      <trkpt lat="42.0574190" lon="-7.1167200">
        <ele>1047.3</ele>
        <time>2019-08-16T17:43:16Z</time>
      </trkpt>
      <trkpt lat="42.0574730" lon="-7.1168000">
        <ele>1046.6</ele>
        <time>2019-08-16T17:43:17Z</time>
      </trkpt>
      <trkpt lat="42.0575270" lon="-7.1168790">
        <ele>1046.0</ele>
        <time>2019-08-16T17:43:18Z</time>
      </trkpt>
      <trkpt lat="42.0575790" lon="-7.1169560">
        <ele>1045.4</ele>
        <time>2019-08-16T17:43:19Z</time>
      </trkpt>
      <trkpt lat="42.0576350" lon="-7.1170330">
        <ele>1044.8</ele>
        <time>2019-08-16T17:43:20Z</time>
      </trkpt>
      <trkpt lat="42.0576950" lon="-7.1171030">
        <ele>1044.3</ele>
        <time>2019-08-16T17:43:21Z</time>
      </trkpt>
      <trkpt lat="42.0577590" lon="-7.1171700">
        <ele>1043.7</ele>
        <time>2019-08-16T17:43:22Z</time>
      </trkpt>
      <trkpt lat="42.0578230" lon="-7.1172310">
        <ele>1043.2</ele>
        <time>2019-08-16T17:43:23Z</time>
      </trkpt>
      <trkpt lat="42.0578910" lon="-7.1172840">
        <ele>1043.1</ele>
        <time>2019-08-16T17:43:24Z</time>
      </trkpt>
      <trkpt lat="42.0579570" lon="-7.1173330">
        <ele>1043.1</ele>
        <time>2019-08-16T17:43:25Z</time>
      </trkpt>
      <trkpt lat="42.0580250" lon="-7.1173810">
        <ele>1043.1</ele>
        <time>2019-08-16T17:43:26Z</time>
      </trkpt>
      <trkpt lat="42.0580920" lon="-7.1174300">
        <ele>1043.1</ele>
        <time>2019-08-16T17:43:27Z</time>
      </trkpt>
      <trkpt lat="42.0581600" lon="-7.1174770">
        <ele>1043.1</ele>
        <time>2019-08-16T17:43:28Z</time>
      </trkpt>
      <trkpt lat="42.0582290" lon="-7.1175250">
        <ele>1043.1</ele>
        <time>2019-08-16T17:43:29Z</time>
      </trkpt>
      <trkpt lat="42.0582970" lon="-7.1175730">
        <ele>1043.1</ele>
        <time>2019-08-16T17:43:30Z</time>
      </trkpt>
      <trkpt lat="42.0583650" lon="-7.1176200">
        <ele>1043.1</ele>
        <time>2019-08-16T17:43:31Z</time>
      </trkpt>
      <trkpt lat="42.0584320" lon="-7.1176640">
        <ele>1043.1</ele>
        <time>2019-08-16T17:43:32Z</time>
      </trkpt>
      <trkpt lat="42.0585000" lon="-7.1177110">
        <ele>1043.1</ele>
        <time>2019-08-16T17:43:33Z</time>
      </trkpt>
      <trkpt lat="42.0585700" lon="-7.1177590">
        <ele>1043.1</ele>
        <time>2019-08-16T17:43:34Z</time>
      </trkpt>
      <trkpt lat="42.0586390" lon="-7.1178070">
        <ele>1043.2</ele>
        <time>2019-08-16T17:43:35Z</time>
      </trkpt>
      <trkpt lat="42.0587050" lon="-7.1178560">
        <ele>1043.2</ele>
        <time>2019-08-16T17:43:36Z</time>
      </trkpt>
      <trkpt lat="42.0587710" lon="-7.1179060">
        <ele>1043.2</ele>
        <time>2019-08-16T17:43:37Z</time>
      </trkpt>
      <trkpt lat="42.0588340" lon="-7.1179610">
        <ele>1043.3</ele>
        <time>2019-08-16T17:43:38Z</time>
      </trkpt>
      <trkpt lat="42.0588950" lon="-7.1180190">
        <ele>1042.9</ele>
        <time>2019-08-16T17:43:39Z</time>
      </trkpt>
      <trkpt lat="42.0589530" lon="-7.1180830">
        <ele>1042.6</ele>
        <time>2019-08-16T17:43:40Z</time>
      </trkpt>
      <trkpt lat="42.0590090" lon="-7.1181540">
        <ele>1042.5</ele>
        <time>2019-08-16T17:43:41Z</time>
      </trkpt>
      <trkpt lat="42.0590640" lon="-7.1182300">
        <ele>1041.9</ele>
        <time>2019-08-16T17:43:42Z</time>
      </trkpt>
      <trkpt lat="42.0591170" lon="-7.1183110">
        <ele>1041.3</ele>
        <time>2019-08-16T17:43:43Z</time>
      </trkpt>
      <trkpt lat="42.0591710" lon="-7.1183920">
        <ele>1040.9</ele>
        <time>2019-08-16T17:43:44Z</time>
      </trkpt>
      <trkpt lat="42.0592250" lon="-7.1184730">
        <ele>1040.4</ele>
        <time>2019-08-16T17:43:45Z</time>
      </trkpt>
      <trkpt lat="42.0592800" lon="-7.1185550">
        <ele>1040.1</ele>
        <time>2019-08-16T17:43:46Z</time>
      </trkpt>
      <trkpt lat="42.0593360" lon="-7.1186360">
        <ele>1040.2</ele>
        <time>2019-08-16T17:43:47Z</time>
      </trkpt>
      <trkpt lat="42.0593910" lon="-7.1187130">
        <ele>1040.4</ele>
        <time>2019-08-16T17:43:48Z</time>
      </trkpt>
      <trkpt lat="42.0594440" lon="-7.1187900">
        <ele>1040.9</ele>
        <time>2019-08-16T17:43:49Z</time>
      </trkpt>
      <trkpt lat="42.0594960" lon="-7.1188680">
        <ele>1041.4</ele>
        <time>2019-08-16T17:43:50Z</time>
      </trkpt>
      <trkpt lat="42.0595460" lon="-7.1189470">
        <ele>1041.7</ele>
        <time>2019-08-16T17:43:51Z</time>
      </trkpt>
      <trkpt lat="42.0595970" lon="-7.1190250">
        <ele>1041.7</ele>
        <time>2019-08-16T17:43:52Z</time>
      </trkpt>
      <trkpt lat="42.0596510" lon="-7.1191000">
        <ele>1041.8</ele>
        <time>2019-08-16T17:43:53Z</time>
      </trkpt>
      <trkpt lat="42.0597050" lon="-7.1191760">
        <ele>1041.9</ele>
        <time>2019-08-16T17:43:54Z</time>
      </trkpt>
      <trkpt lat="42.0597590" lon="-7.1192550">
        <ele>1041.9</ele>
        <time>2019-08-16T17:43:55Z</time>
      </trkpt>
      <trkpt lat="42.0598120" lon="-7.1193390">
        <ele>1042.0</ele>
        <time>2019-08-16T17:43:56Z</time>
      </trkpt>
      <trkpt lat="42.0598620" lon="-7.1194220">
        <ele>1042.1</ele>
        <time>2019-08-16T17:43:57Z</time>
      </trkpt>
      <trkpt lat="42.0599080" lon="-7.1195090">
        <ele>1042.1</ele>
        <time>2019-08-16T17:43:58Z</time>
      </trkpt>
      <trkpt lat="42.0599480" lon="-7.1195970">
        <ele>1042.2</ele>
        <time>2019-08-16T17:43:59Z</time>
      </trkpt>
      <trkpt lat="42.0599840" lon="-7.1196860">
        <ele>1042.2</ele>
        <time>2019-08-16T17:44:00Z</time>
      </trkpt>
      <trkpt lat="42.0600150" lon="-7.1197800">
        <ele>1041.9</ele>
        <time>2019-08-16T17:44:01Z</time>
      </trkpt>
      <trkpt lat="42.0600390" lon="-7.1198790">
        <ele>1041.4</ele>
        <time>2019-08-16T17:44:02Z</time>
      </trkpt>
      <trkpt lat="42.0600600" lon="-7.1199800">
        <ele>1040.9</ele>
        <time>2019-08-16T17:44:03Z</time>
      </trkpt>
      <trkpt lat="42.0600780" lon="-7.1200840">
        <ele>1040.5</ele>
        <time>2019-08-16T17:44:04Z</time>
      </trkpt>
      <trkpt lat="42.0600900" lon="-7.1201890">
        <ele>1039.9</ele>
        <time>2019-08-16T17:44:05Z</time>
      </trkpt>
      <trkpt lat="42.0600970" lon="-7.1202950">
        <ele>1039.4</ele>
        <time>2019-08-16T17:44:06Z</time>
      </trkpt>
      <trkpt lat="42.0600980" lon="-7.1204000">
        <ele>1038.9</ele>
        <time>2019-08-16T17:44:07Z</time>
      </trkpt>
      <trkpt lat="42.0600950" lon="-7.1205100">
        <ele>1038.3</ele>
        <time>2019-08-16T17:44:08Z</time>
      </trkpt>
      <trkpt lat="42.0600850" lon="-7.1206220">
        <ele>1037.7</ele>
        <time>2019-08-16T17:44:09Z</time>
      </trkpt>
      <trkpt lat="42.0600750" lon="-7.1207340">
        <ele>1037.0</ele>
        <time>2019-08-16T17:44:10Z</time>
      </trkpt>
      <trkpt lat="42.0600600" lon="-7.1208450">
        <ele>1036.2</ele>
        <time>2019-08-16T17:44:11Z</time>
      </trkpt>
      <trkpt lat="42.0600430" lon="-7.1209570">
        <ele>1035.5</ele>
        <time>2019-08-16T17:44:12Z</time>
      </trkpt>
      <trkpt lat="42.0600270" lon="-7.1210690">
        <ele>1034.8</ele>
        <time>2019-08-16T17:44:13Z</time>
      </trkpt>
      <trkpt lat="42.0600090" lon="-7.1211810">
        <ele>1034.1</ele>
        <time>2019-08-16T17:44:14Z</time>
      </trkpt>
      <trkpt lat="42.0599920" lon="-7.1212910">
        <ele>1033.4</ele>
        <time>2019-08-16T17:44:15Z</time>
      </trkpt>
      <trkpt lat="42.0599750" lon="-7.1214010">
        <ele>1032.7</ele>
        <time>2019-08-16T17:44:16Z</time>
      </trkpt>
      <trkpt lat="42.0599590" lon="-7.1215120">
        <ele>1032.1</ele>
        <time>2019-08-16T17:44:17Z</time>
      </trkpt>
      <trkpt lat="42.0599420" lon="-7.1216200">
        <ele>1031.4</ele>
        <time>2019-08-16T17:44:18Z</time>
      </trkpt>
      <trkpt lat="42.0599260" lon="-7.1217270">
        <ele>1030.7</ele>
        <time>2019-08-16T17:44:19Z</time>
      </trkpt>
      <trkpt lat="42.0599100" lon="-7.1218310">
        <ele>1030.1</ele>
        <time>2019-08-16T17:44:20Z</time>
      </trkpt>
      <trkpt lat="42.0598940" lon="-7.1219360">
        <ele>1029.4</ele>
        <time>2019-08-16T17:44:21Z</time>
      </trkpt>
      <trkpt lat="42.0598800" lon="-7.1220410">
        <ele>1028.8</ele>
        <time>2019-08-16T17:44:22Z</time>
      </trkpt>
      <trkpt lat="42.0598650" lon="-7.1221480">
        <ele>1028.1</ele>
        <time>2019-08-16T17:44:23Z</time>
      </trkpt>
      <trkpt lat="42.0598510" lon="-7.1222560">
        <ele>1027.6</ele>
        <time>2019-08-16T17:44:24Z</time>
      </trkpt>
      <trkpt lat="42.0598350" lon="-7.1223640">
        <ele>1027.0</ele>
        <time>2019-08-16T17:44:25Z</time>
      </trkpt>
      <trkpt lat="42.0598160" lon="-7.1224720">
        <ele>1026.4</ele>
        <time>2019-08-16T17:44:26Z</time>
      </trkpt>
      <trkpt lat="42.0597980" lon="-7.1225810">
        <ele>1025.9</ele>
        <time>2019-08-16T17:44:27Z</time>
      </trkpt>
      <trkpt lat="42.0597820" lon="-7.1226910">
        <ele>1025.4</ele>
        <time>2019-08-16T17:44:28Z</time>
      </trkpt>
      <trkpt lat="42.0597660" lon="-7.1228030">
        <ele>1024.7</ele>
        <time>2019-08-16T17:44:29Z</time>
      </trkpt>
      <trkpt lat="42.0597470" lon="-7.1229150">
        <ele>1024.2</ele>
        <time>2019-08-16T17:44:30Z</time>
      </trkpt>
      <trkpt lat="42.0597270" lon="-7.1230260">
        <ele>1023.7</ele>
        <time>2019-08-16T17:44:31Z</time>
      </trkpt>
      <trkpt lat="42.0597060" lon="-7.1231350">
        <ele>1023.1</ele>
        <time>2019-08-16T17:44:32Z</time>
      </trkpt>
      <trkpt lat="42.0596850" lon="-7.1232450">
        <ele>1022.6</ele>
        <time>2019-08-16T17:44:33Z</time>
      </trkpt>
      <trkpt lat="42.0596630" lon="-7.1233540">
        <ele>1021.6</ele>
        <time>2019-08-16T17:44:34Z</time>
      </trkpt>
      <trkpt lat="42.0596400" lon="-7.1234600">
        <ele>1020.9</ele>
        <time>2019-08-16T17:44:35Z</time>
      </trkpt>
      <trkpt lat="42.0596180" lon="-7.1235650">
        <ele>1020.2</ele>
        <time>2019-08-16T17:44:36Z</time>
      </trkpt>
      <trkpt lat="42.0595950" lon="-7.1236660">
        <ele>1019.6</ele>
        <time>2019-08-16T17:44:37Z</time>
      </trkpt>
      <trkpt lat="42.0595730" lon="-7.1237630">
        <ele>1019.0</ele>
        <time>2019-08-16T17:44:38Z</time>
      </trkpt>
      <trkpt lat="42.0595500" lon="-7.1238610">
        <ele>1018.4</ele>
        <time>2019-08-16T17:44:39Z</time>
      </trkpt>
      <trkpt lat="42.0595260" lon="-7.1239610">
        <ele>1017.8</ele>
        <time>2019-08-16T17:44:40Z</time>
      </trkpt>
      <trkpt lat="42.0595000" lon="-7.1240610">
        <ele>1017.1</ele>
        <time>2019-08-16T17:44:41Z</time>
      </trkpt>
      <trkpt lat="42.0594750" lon="-7.1241630">
        <ele>1016.4</ele>
        <time>2019-08-16T17:44:42Z</time>
      </trkpt>
      <trkpt lat="42.0594490" lon="-7.1242630">
        <ele>1015.7</ele>
        <time>2019-08-16T17:44:43Z</time>
      </trkpt>
      <trkpt lat="42.0594240" lon="-7.1243580">
        <ele>1015.1</ele>
        <time>2019-08-16T17:44:44Z</time>
      </trkpt>
      <trkpt lat="42.0594020" lon="-7.1244460">
        <ele>1014.7</ele>
        <time>2019-08-16T17:44:45Z</time>
      </trkpt>
      <trkpt lat="42.0593800" lon="-7.1245310">
        <ele>1014.4</ele>
        <time>2019-08-16T17:44:46Z</time>
      </trkpt>
      <trkpt lat="42.0593610" lon="-7.1246200">
        <ele>1014.0</ele>
        <time>2019-08-16T17:44:47Z</time>
      </trkpt>
      <trkpt lat="42.0593430" lon="-7.1247090">
        <ele>1013.7</ele>
        <time>2019-08-16T17:44:48Z</time>
      </trkpt>
      <trkpt lat="42.0593240" lon="-7.1247990">
        <ele>1013.4</ele>
        <time>2019-08-16T17:44:49Z</time>
      </trkpt>
      <trkpt lat="42.0593040" lon="-7.1248830">
        <ele>1012.9</ele>
        <time>2019-08-16T17:44:50Z</time>
      </trkpt>
      <trkpt lat="42.0592840" lon="-7.1249600">
        <ele>1012.6</ele>
        <time>2019-08-16T17:44:51Z</time>
      </trkpt>
      <trkpt lat="42.0592660" lon="-7.1250300">
        <ele>1012.3</ele>
        <time>2019-08-16T17:44:52Z</time>
      </trkpt>
      <trkpt lat="42.0592480" lon="-7.1250980">
        <ele>1012.0</ele>
        <time>2019-08-16T17:44:53Z</time>
      </trkpt>
      <trkpt lat="42.0592290" lon="-7.1251660">
        <ele>1011.7</ele>
        <time>2019-08-16T17:44:54Z</time>
      </trkpt>
      <trkpt lat="42.0592080" lon="-7.1252340">
        <ele>1011.4</ele>
        <time>2019-08-16T17:44:55Z</time>
      </trkpt>
      <trkpt lat="42.0591850" lon="-7.1253020">
        <ele>1011.1</ele>
        <time>2019-08-16T17:44:56Z</time>
      </trkpt>
      <trkpt lat="42.0591620" lon="-7.1253680">
        <ele>1010.8</ele>
        <time>2019-08-16T17:44:57Z</time>
      </trkpt>
      <trkpt lat="42.0591370" lon="-7.1254270">
        <ele>1010.6</ele>
        <time>2019-08-16T17:44:58Z</time>
      </trkpt>
      <trkpt lat="42.0591150" lon="-7.1254820">
        <ele>1010.4</ele>
        <time>2019-08-16T17:44:59Z</time>
      </trkpt>
      <trkpt lat="42.0590930" lon="-7.1255350">
        <ele>1010.2</ele>
        <time>2019-08-16T17:45:00Z</time>
      </trkpt>
      <trkpt lat="42.0590670" lon="-7.1255860">
        <ele>1009.8</ele>
        <time>2019-08-16T17:45:01Z</time>
      </trkpt>
      <trkpt lat="42.0590380" lon="-7.1256380">
        <ele>1009.6</ele>
        <time>2019-08-16T17:45:02Z</time>
      </trkpt>
      <trkpt lat="42.0590090" lon="-7.1256900">
        <ele>1009.3</ele>
        <time>2019-08-16T17:45:03Z</time>
      </trkpt>
      <trkpt lat="42.0589810" lon="-7.1257450">
        <ele>1009.0</ele>
        <time>2019-08-16T17:45:04Z</time>
      </trkpt>
      <trkpt lat="42.0589510" lon="-7.1258040">
        <ele>1008.7</ele>
        <time>2019-08-16T17:45:05Z</time>
      </trkpt>
      <trkpt lat="42.0589210" lon="-7.1258620">
        <ele>1008.4</ele>
        <time>2019-08-16T17:45:06Z</time>
      </trkpt>
      <trkpt lat="42.0588890" lon="-7.1259200">
        <ele>1008.1</ele>
        <time>2019-08-16T17:45:07Z</time>
      </trkpt>
      <trkpt lat="42.0588540" lon="-7.1259790">
        <ele>1007.8</ele>
        <time>2019-08-16T17:45:08Z</time>
      </trkpt>
      <trkpt lat="42.0588160" lon="-7.1260360">
        <ele>1007.2</ele>
        <time>2019-08-16T17:45:09Z</time>
      </trkpt>
      <trkpt lat="42.0587760" lon="-7.1260940">
        <ele>1006.9</ele>
        <time>2019-08-16T17:45:10Z</time>
      </trkpt>
      <trkpt lat="42.0587350" lon="-7.1261520">
        <ele>1006.5</ele>
        <time>2019-08-16T17:45:11Z</time>
      </trkpt>
      <trkpt lat="42.0586950" lon="-7.1262150">
        <ele>1006.2</ele>
        <time>2019-08-16T17:45:12Z</time>
      </trkpt>
      <trkpt lat="42.0586590" lon="-7.1262860">
        <ele>1005.8</ele>
        <time>2019-08-16T17:45:13Z</time>
      </trkpt>
      <trkpt lat="42.0586310" lon="-7.1263700">
        <ele>1005.3</ele>
        <time>2019-08-16T17:45:14Z</time>
      </trkpt>
      <trkpt lat="42.0586010" lon="-7.1264600">
        <ele>1004.5</ele>
        <time>2019-08-16T17:45:15Z</time>
      </trkpt>
      <trkpt lat="42.0585670" lon="-7.1265480">
        <ele>1003.8</ele>
        <time>2019-08-16T17:45:16Z</time>
      </trkpt>
      <trkpt lat="42.0585300" lon="-7.1266350">
        <ele>1003.3</ele>
        <time>2019-08-16T17:45:17Z</time>
      </trkpt>
      <trkpt lat="42.0584960" lon="-7.1267210">
        <ele>1002.8</ele>
        <time>2019-08-16T17:45:18Z</time>
      </trkpt>
      <trkpt lat="42.0584650" lon="-7.1268120">
        <ele>1002.1</ele>
        <time>2019-08-16T17:45:19Z</time>
      </trkpt>
      <trkpt lat="42.0584340" lon="-7.1269030">
        <ele>1001.5</ele>
        <time>2019-08-16T17:45:20Z</time>
      </trkpt>
      <trkpt lat="42.0584010" lon="-7.1269910">
        <ele>1000.9</ele>
        <time>2019-08-16T17:45:21Z</time>
      </trkpt>
      <trkpt lat="42.0583690" lon="-7.1270770">
        <ele>1000.2</ele>
        <time>2019-08-16T17:45:22Z</time>
      </trkpt>
      <trkpt lat="42.0583400" lon="-7.1271640">
        <ele>999.3</ele>
        <time>2019-08-16T17:45:23Z</time>
      </trkpt>
      <trkpt lat="42.0583210" lon="-7.1272510">
        <ele>998.7</ele>
        <time>2019-08-16T17:45:24Z</time>
      </trkpt>
      <trkpt lat="42.0583110" lon="-7.1273380">
        <ele>998.4</ele>
        <time>2019-08-16T17:45:25Z</time>
      </trkpt>
      <trkpt lat="42.0583110" lon="-7.1274240">
        <ele>998.2</ele>
        <time>2019-08-16T17:45:26Z</time>
      </trkpt>
      <trkpt lat="42.0583160" lon="-7.1275100">
        <ele>997.8</ele>
        <time>2019-08-16T17:45:27Z</time>
      </trkpt>
      <trkpt lat="42.0583240" lon="-7.1275950">
        <ele>997.5</ele>
        <time>2019-08-16T17:45:28Z</time>
      </trkpt>
      <trkpt lat="42.0583360" lon="-7.1276800">
        <ele>997.1</ele>
        <time>2019-08-16T17:45:29Z</time>
      </trkpt>
      <trkpt lat="42.0583500" lon="-7.1277610">
        <ele>996.6</ele>
        <time>2019-08-16T17:45:30Z</time>
      </trkpt>
      <trkpt lat="42.0583670" lon="-7.1278410">
        <ele>996.1</ele>
        <time>2019-08-16T17:45:31Z</time>
      </trkpt>
      <trkpt lat="42.0583880" lon="-7.1279180">
        <ele>995.6</ele>
        <time>2019-08-16T17:45:32Z</time>
      </trkpt>
      <trkpt lat="42.0584120" lon="-7.1279970">
        <ele>995.1</ele>
        <time>2019-08-16T17:45:33Z</time>
      </trkpt>
      <trkpt lat="42.0584430" lon="-7.1280740">
        <ele>994.5</ele>
        <time>2019-08-16T17:45:34Z</time>
      </trkpt>
      <trkpt lat="42.0584790" lon="-7.1281500">
        <ele>994.0</ele>
        <time>2019-08-16T17:45:35Z</time>
      </trkpt>
      <trkpt lat="42.0585230" lon="-7.1282210">
        <ele>993.3</ele>
        <time>2019-08-16T17:45:36Z</time>
      </trkpt>
      <trkpt lat="42.0585690" lon="-7.1282850">
        <ele>992.6</ele>
        <time>2019-08-16T17:45:37Z</time>
      </trkpt>
      <trkpt lat="42.0586140" lon="-7.1283470">
        <ele>991.9</ele>
        <time>2019-08-16T17:45:38Z</time>
      </trkpt>
      <trkpt lat="42.0586550" lon="-7.1284120">
        <ele>991.3</ele>
        <time>2019-08-16T17:45:39Z</time>
      </trkpt>
      <trkpt lat="42.0586890" lon="-7.1284840">
        <ele>990.6</ele>
        <time>2019-08-16T17:45:40Z</time>
      </trkpt>
      <trkpt lat="42.0587170" lon="-7.1285570">
        <ele>990.0</ele>
        <time>2019-08-16T17:45:41Z</time>
      </trkpt>
      <trkpt lat="42.0587410" lon="-7.1286280">
        <ele>989.5</ele>
        <time>2019-08-16T17:45:42Z</time>
      </trkpt>
      <trkpt lat="42.0587650" lon="-7.1286970">
        <ele>988.9</ele>
        <time>2019-08-16T17:45:43Z</time>
      </trkpt>
      <trkpt lat="42.0587860" lon="-7.1287670">
        <ele>988.2</ele>
        <time>2019-08-16T17:45:44Z</time>
      </trkpt>
      <trkpt lat="42.0588060" lon="-7.1288410">
        <ele>987.5</ele>
        <time>2019-08-16T17:45:45Z</time>
      </trkpt>
      <trkpt lat="42.0588240" lon="-7.1289170">
        <ele>986.8</ele>
        <time>2019-08-16T17:45:46Z</time>
      </trkpt>
      <trkpt lat="42.0588400" lon="-7.1289940">
        <ele>986.2</ele>
        <time>2019-08-16T17:45:47Z</time>
      </trkpt>
      <trkpt lat="42.0588570" lon="-7.1290670">
        <ele>985.7</ele>
        <time>2019-08-16T17:45:48Z</time>
      </trkpt>
      <trkpt lat="42.0588750" lon="-7.1291370">
        <ele>984.8</ele>
        <time>2019-08-16T17:45:49Z</time>
      </trkpt>
      <trkpt lat="42.0588940" lon="-7.1292030">
        <ele>984.2</ele>
        <time>2019-08-16T17:45:50Z</time>
      </trkpt>
      <trkpt lat="42.0589160" lon="-7.1292650">
        <ele>982.8</ele>
        <time>2019-08-16T17:45:51Z</time>
      </trkpt>
      <trkpt lat="42.0589430" lon="-7.1293230">
        <ele>982.3</ele>
        <time>2019-08-16T17:45:52Z</time>
      </trkpt>
      <trkpt lat="42.0589760" lon="-7.1293820">
        <ele>982.0</ele>
        <time>2019-08-16T17:45:53Z</time>
      </trkpt>
      <trkpt lat="42.0590110" lon="-7.1294410">
        <ele>981.6</ele>
        <time>2019-08-16T17:45:54Z</time>
      </trkpt>
      <trkpt lat="42.0590510" lon="-7.1294970">
        <ele>981.2</ele>
        <time>2019-08-16T17:45:55Z</time>
      </trkpt>
      <trkpt lat="42.0590960" lon="-7.1295520">
        <ele>980.8</ele>
        <time>2019-08-16T17:45:56Z</time>
      </trkpt>
      <trkpt lat="42.0591460" lon="-7.1296110">
        <ele>980.4</ele>
        <time>2019-08-16T17:45:57Z</time>
      </trkpt>
      <trkpt lat="42.0591980" lon="-7.1296740">
        <ele>979.9</ele>
        <time>2019-08-16T17:45:58Z</time>
      </trkpt>
      <trkpt lat="42.0592540" lon="-7.1297370">
        <ele>979.5</ele>
        <time>2019-08-16T17:45:59Z</time>
      </trkpt>
      <trkpt lat="42.0593130" lon="-7.1298050">
        <ele>978.9</ele>
        <time>2019-08-16T17:46:00Z</time>
      </trkpt>
      <trkpt lat="42.0593730" lon="-7.1298760">
        <ele>978.1</ele>
        <time>2019-08-16T17:46:01Z</time>
      </trkpt>
      <trkpt lat="42.0594340" lon="-7.1299510">
        <ele>977.3</ele>
        <time>2019-08-16T17:46:02Z</time>
      </trkpt>
      <trkpt lat="42.0594930" lon="-7.1300290">
        <ele>976.6</ele>
        <time>2019-08-16T17:46:03Z</time>
      </trkpt>
      <trkpt lat="42.0595480" lon="-7.1301090">
        <ele>975.9</ele>
        <time>2019-08-16T17:46:04Z</time>
      </trkpt>
      <trkpt lat="42.0596010" lon="-7.1301890">
        <ele>975.2</ele>
        <time>2019-08-16T17:46:05Z</time>
      </trkpt>
      <trkpt lat="42.0596500" lon="-7.1302700">
        <ele>974.5</ele>
        <time>2019-08-16T17:46:06Z</time>
      </trkpt>
      <trkpt lat="42.0596960" lon="-7.1303520">
        <ele>974.5</ele>
        <time>2019-08-16T17:46:07Z</time>
      </trkpt>
      <trkpt lat="42.0597360" lon="-7.1304350">
        <ele>974.4</ele>
        <time>2019-08-16T17:46:08Z</time>
      </trkpt>
      <trkpt lat="42.0597720" lon="-7.1305170">
        <ele>974.4</ele>
        <time>2019-08-16T17:46:09Z</time>
      </trkpt>
      <trkpt lat="42.0598040" lon="-7.1305990">
        <ele>974.3</ele>
        <time>2019-08-16T17:46:10Z</time>
      </trkpt>
      <trkpt lat="42.0598320" lon="-7.1306820">
        <ele>974.3</ele>
        <time>2019-08-16T17:46:11Z</time>
      </trkpt>
      <trkpt lat="42.0598590" lon="-7.1307650">
        <ele>974.2</ele>
        <time>2019-08-16T17:46:12Z</time>
      </trkpt>
      <trkpt lat="42.0598840" lon="-7.1308490">
        <ele>974.2</ele>
        <time>2019-08-16T17:46:13Z</time>
      </trkpt>
      <trkpt lat="42.0599080" lon="-7.1309370">
        <ele>974.1</ele>
        <time>2019-08-16T17:46:14Z</time>
      </trkpt>
      <trkpt lat="42.0599310" lon="-7.1310290">
        <ele>974.2</ele>
        <time>2019-08-16T17:46:15Z</time>
      </trkpt>
      <trkpt lat="42.0599540" lon="-7.1311210">
        <ele>974.3</ele>
        <time>2019-08-16T17:46:16Z</time>
      </trkpt>
      <trkpt lat="42.0599760" lon="-7.1312180">
        <ele>974.4</ele>
        <time>2019-08-16T17:46:17Z</time>
      </trkpt>
      <trkpt lat="42.0599980" lon="-7.1313180">
        <ele>974.5</ele>
        <time>2019-08-16T17:46:18Z</time>
      </trkpt>
      <trkpt lat="42.0600200" lon="-7.1314200">
        <ele>974.6</ele>
        <time>2019-08-16T17:46:19Z</time>
      </trkpt>
      <trkpt lat="42.0600420" lon="-7.1315220">
        <ele>974.8</ele>
        <time>2019-08-16T17:46:20Z</time>
      </trkpt>
      <trkpt lat="42.0600640" lon="-7.1316240">
        <ele>974.9</ele>
        <time>2019-08-16T17:46:21Z</time>
      </trkpt>
      <trkpt lat="42.0600860" lon="-7.1317270">
        <ele>975.0</ele>
        <time>2019-08-16T17:46:22Z</time>
      </trkpt>
      <trkpt lat="42.0601080" lon="-7.1318300">
        <ele>974.6</ele>
        <time>2019-08-16T17:46:23Z</time>
      </trkpt>
      <trkpt lat="42.0601280" lon="-7.1319320">
        <ele>974.3</ele>
        <time>2019-08-16T17:46:24Z</time>
      </trkpt>
      <trkpt lat="42.0601470" lon="-7.1320320">
        <ele>974.0</ele>
        <time>2019-08-16T17:46:25Z</time>
      </trkpt>
      <trkpt lat="42.0601660" lon="-7.1321320">
        <ele>973.7</ele>
        <time>2019-08-16T17:46:26Z</time>
      </trkpt>
      <trkpt lat="42.0601840" lon="-7.1322300">
        <ele>973.6</ele>
        <time>2019-08-16T17:46:27Z</time>
      </trkpt>
      <trkpt lat="42.0602000" lon="-7.1323230">
        <ele>973.6</ele>
        <time>2019-08-16T17:46:28Z</time>
      </trkpt>
      <trkpt lat="42.0602170" lon="-7.1324150">
        <ele>973.6</ele>
        <time>2019-08-16T17:46:29Z</time>
      </trkpt>
      <trkpt lat="42.0602340" lon="-7.1325030">
        <ele>973.6</ele>
        <time>2019-08-16T17:46:30Z</time>
      </trkpt>
      <trkpt lat="42.0602500" lon="-7.1325850">
        <ele>973.6</ele>
        <time>2019-08-16T17:46:31Z</time>
      </trkpt>
      <trkpt lat="42.0602670" lon="-7.1326630">
        <ele>973.7</ele>
        <time>2019-08-16T17:46:32Z</time>
      </trkpt>
      <trkpt lat="42.0602810" lon="-7.1327370">
        <ele>973.8</ele>
        <time>2019-08-16T17:46:33Z</time>
      </trkpt>
      <trkpt lat="42.0602940" lon="-7.1328040">
        <ele>973.9</ele>
        <time>2019-08-16T17:46:34Z</time>
      </trkpt>
      <trkpt lat="42.0603060" lon="-7.1328670">
        <ele>974.1</ele>
        <time>2019-08-16T17:46:35Z</time>
      </trkpt>
      <trkpt lat="42.0603170" lon="-7.1329200">
        <ele>974.2</ele>
        <time>2019-08-16T17:46:36Z</time>
      </trkpt>
      <trkpt lat="42.0603270" lon="-7.1329670">
        <ele>974.2</ele>
        <time>2019-08-16T17:46:37Z</time>
      </trkpt>
      <trkpt lat="42.0603340" lon="-7.1330080">
        <ele>974.4</ele>
        <time>2019-08-16T17:46:38Z</time>
      </trkpt>
      <trkpt lat="42.0603400" lon="-7.1330420">
        <ele>974.6</ele>
        <time>2019-08-16T17:46:39Z</time>
      </trkpt>
      <trkpt lat="42.0603540" lon="-7.1330990">
        <ele>975.0</ele>
        <time>2019-08-16T17:46:41Z</time>
      </trkpt>
      <trkpt lat="42.0603740" lon="-7.1331480">
        <ele>975.4</ele>
        <time>2019-08-16T17:46:43Z</time>
      </trkpt>
      <trkpt lat="42.0603780" lon="-7.1331570">
        <ele>975.4</ele>
        <time>2019-08-16T17:46:45Z</time>
      </trkpt>
      <trkpt lat="42.0606440" lon="-7.1341670">
        <ele>980.0</ele>
        <time>2019-08-16T17:48:34Z</time>
      </trkpt>
      <trkpt lat="42.0606630" lon="-7.1342120">
        <ele>980.4</ele>
        <time>2019-08-16T17:48:39Z</time>
      </trkpt>
      <trkpt lat="42.0606740" lon="-7.1342470">
        <ele>980.6</ele>
        <time>2019-08-16T17:48:41Z</time>
      </trkpt>
      <trkpt lat="42.0606820" lon="-7.1342910">
        <ele>980.8</ele>
        <time>2019-08-16T17:48:43Z</time>
      </trkpt>
      <trkpt lat="42.0606900" lon="-7.1343390">
        <ele>980.9</ele>
        <time>2019-08-16T17:48:45Z</time>
      </trkpt>
      <trkpt lat="42.0606980" lon="-7.1343930">
        <ele>981.1</ele>
        <time>2019-08-16T17:48:47Z</time>
      </trkpt>
      <trkpt lat="42.0607060" lon="-7.1344440">
        <ele>981.3</ele>
        <time>2019-08-16T17:48:49Z</time>
      </trkpt>
      <trkpt lat="42.0607160" lon="-7.1344980">
        <ele>981.5</ele>
        <time>2019-08-16T17:48:51Z</time>
      </trkpt>
      <trkpt lat="42.0607270" lon="-7.1345520">
        <ele>981.6</ele>
        <time>2019-08-16T17:48:53Z</time>
      </trkpt>
      <trkpt lat="42.0607390" lon="-7.1346100">
        <ele>981.7</ele>
        <time>2019-08-16T17:48:55Z</time>
      </trkpt>
      <trkpt lat="42.0607540" lon="-7.1346680">
        <ele>981.8</ele>
        <time>2019-08-16T17:48:57Z</time>
      </trkpt>
      <trkpt lat="42.0607620" lon="-7.1347340">
        <ele>981.8</ele>
        <time>2019-08-16T17:48:59Z</time>
      </trkpt>
      <trkpt lat="42.0607700" lon="-7.1348040">
        <ele>981.8</ele>
        <time>2019-08-16T17:49:01Z</time>
      </trkpt>
      <trkpt lat="42.0607850" lon="-7.1348780">
        <ele>981.8</ele>
        <time>2019-08-16T17:49:03Z</time>
      </trkpt>
      <trkpt lat="42.0607920" lon="-7.1349170">
        <ele>981.9</ele>
        <time>2019-08-16T17:49:04Z</time>
      </trkpt>
      <trkpt lat="42.0607970" lon="-7.1349570">
        <ele>981.9</ele>
        <time>2019-08-16T17:49:05Z</time>
      </trkpt>
      <trkpt lat="42.0608040" lon="-7.1349970">
        <ele>981.9</ele>
        <time>2019-08-16T17:49:06Z</time>
      </trkpt>
      <trkpt lat="42.0608130" lon="-7.1350370">
        <ele>981.9</ele>
        <time>2019-08-16T17:49:07Z</time>
      </trkpt>
      <trkpt lat="42.0608230" lon="-7.1350780">
        <ele>981.9</ele>
        <time>2019-08-16T17:49:08Z</time>
      </trkpt>
      <trkpt lat="42.0608310" lon="-7.1351220">
        <ele>981.8</ele>
        <time>2019-08-16T17:49:09Z</time>
      </trkpt>
      <trkpt lat="42.0608370" lon="-7.1351690">
        <ele>981.7</ele>
        <time>2019-08-16T17:49:10Z</time>
      </trkpt>
      <trkpt lat="42.0608420" lon="-7.1352170">
        <ele>981.6</ele>
        <time>2019-08-16T17:49:11Z</time>
      </trkpt>
      <trkpt lat="42.0608460" lon="-7.1352690">
        <ele>981.5</ele>
        <time>2019-08-16T17:49:12Z</time>
      </trkpt>
      <trkpt lat="42.0608500" lon="-7.1353210">
        <ele>981.3</ele>
        <time>2019-08-16T17:49:13Z</time>
      </trkpt>
      <trkpt lat="42.0608520" lon="-7.1353760">
        <ele>981.1</ele>
        <time>2019-08-16T17:49:14Z</time>
      </trkpt>
      <trkpt lat="42.0608580" lon="-7.1354290">
        <ele>981.0</ele>
        <time>2019-08-16T17:49:15Z</time>
      </trkpt>
      <trkpt lat="42.0608650" lon="-7.1354830">
        <ele>980.9</ele>
        <time>2019-08-16T17:49:16Z</time>
      </trkpt>
      <trkpt lat="42.0608730" lon="-7.1355400">
        <ele>980.8</ele>
        <time>2019-08-16T17:49:17Z</time>
      </trkpt>
      <trkpt lat="42.0608790" lon="-7.1356000">
        <ele>980.7</ele>
        <time>2019-08-16T17:49:18Z</time>
      </trkpt>
      <trkpt lat="42.0608850" lon="-7.1356610">
        <ele>980.6</ele>
        <time>2019-08-16T17:49:19Z</time>
      </trkpt>
      <trkpt lat="42.0608890" lon="-7.1357230">
        <ele>980.5</ele>
        <time>2019-08-16T17:49:20Z</time>
      </trkpt>
      <trkpt lat="42.0608950" lon="-7.1357850">
        <ele>980.4</ele>
        <time>2019-08-16T17:49:21Z</time>
      </trkpt>
      <trkpt lat="42.0609010" lon="-7.1358450">
        <ele>980.3</ele>
        <time>2019-08-16T17:49:22Z</time>
      </trkpt>
      <trkpt lat="42.0609080" lon="-7.1359030">
        <ele>980.2</ele>
        <time>2019-08-16T17:49:23Z</time>
      </trkpt>
      <trkpt lat="42.0609160" lon="-7.1359610">
        <ele>980.0</ele>
        <time>2019-08-16T17:49:24Z</time>
      </trkpt>
      <trkpt lat="42.0609270" lon="-7.1360180">
        <ele>979.8</ele>
        <time>2019-08-16T17:49:25Z</time>
      </trkpt>
      <trkpt lat="42.0609370" lon="-7.1360740">
        <ele>979.6</ele>
        <time>2019-08-16T17:49:26Z</time>
      </trkpt>
      <trkpt lat="42.0609470" lon="-7.1361310">
        <ele>979.4</ele>
        <time>2019-08-16T17:49:27Z</time>
      </trkpt>
      <trkpt lat="42.0609540" lon="-7.1361890">
        <ele>979.2</ele>
        <time>2019-08-16T17:49:28Z</time>
      </trkpt>
      <trkpt lat="42.0609590" lon="-7.1362470">
        <ele>979.1</ele>
        <time>2019-08-16T17:49:29Z</time>
      </trkpt>
      <trkpt lat="42.0609640" lon="-7.1363030">
        <ele>978.9</ele>
        <time>2019-08-16T17:49:30Z</time>
      </trkpt>
      <trkpt lat="42.0609720" lon="-7.1363600">
        <ele>978.8</ele>
        <time>2019-08-16T17:49:31Z</time>
      </trkpt>
      <trkpt lat="42.0609790" lon="-7.1364170">
        <ele>978.6</ele>
        <time>2019-08-16T17:49:32Z</time>
      </trkpt>
      <trkpt lat="42.0609850" lon="-7.1364740">
        <ele>978.5</ele>
        <time>2019-08-16T17:49:33Z</time>
      </trkpt>
      <trkpt lat="42.0609910" lon="-7.1365270">
        <ele>978.4</ele>
        <time>2019-08-16T17:49:34Z</time>
      </trkpt>
      <trkpt lat="42.0609970" lon="-7.1365770">
        <ele>978.2</ele>
        <time>2019-08-16T17:49:35Z</time>
      </trkpt>
      <trkpt lat="42.0610020" lon="-7.1366250">
        <ele>978.1</ele>
        <time>2019-08-16T17:49:36Z</time>
      </trkpt>
      <trkpt lat="42.0610060" lon="-7.1366720">
        <ele>977.9</ele>
        <time>2019-08-16T17:49:37Z</time>
      </trkpt>
      <trkpt lat="42.0610120" lon="-7.1367140">
        <ele>977.7</ele>
        <time>2019-08-16T17:49:38Z</time>
      </trkpt>
      <trkpt lat="42.0610160" lon="-7.1367500">
        <ele>977.6</ele>
        <time>2019-08-16T17:49:39Z</time>
      </trkpt>
      <trkpt lat="42.0610180" lon="-7.1367790">
        <ele>977.5</ele>
        <time>2019-08-16T17:49:40Z</time>
      </trkpt>
      <trkpt lat="42.0610250" lon="-7.1368180">
        <ele>977.3</ele>
        <time>2019-08-16T17:49:42Z</time>
      </trkpt>
      <trkpt lat="42.0610340" lon="-7.1368280">
        <ele>977.2</ele>
        <time>2019-08-16T17:49:45Z</time>
      </trkpt>
      <trkpt lat="42.0610350" lon="-7.1369000">
        <ele>976.9</ele>
        <time>2019-08-16T17:50:16Z</time>
      </trkpt>
      <trkpt lat="42.0610090" lon="-7.1369470">
        <ele>976.9</ele>
        <time>2019-08-16T17:50:18Z</time>
      </trkpt>
      <trkpt lat="42.0609740" lon="-7.1369690">
        <ele>976.9</ele>
        <time>2019-08-16T17:50:20Z</time>
      </trkpt>
      <trkpt lat="42.0609480" lon="-7.1369740">
        <ele>976.9</ele>
        <time>2019-08-16T17:50:22Z</time>
      </trkpt>
      <trkpt lat="42.0609470" lon="-7.1369690">
        <ele>976.9</ele>
        <time>2019-08-16T17:50:31Z</time>
      </trkpt>
      <trkpt lat="42.0610270" lon="-7.1369410">
        <ele>976.9</ele>
        <time>2019-08-16T17:50:44Z</time>
      </trkpt>
      <trkpt lat="42.0610600" lon="-7.1369080">
        <ele>976.8</ele>
        <time>2019-08-16T17:50:46Z</time>
      </trkpt>
      <trkpt lat="42.0611120" lon="-7.1368780">
        <ele>976.5</ele>
        <time>2019-08-16T17:50:48Z</time>
      </trkpt>
      <trkpt lat="42.0611440" lon="-7.1368630">
        <ele>976.2</ele>
        <time>2019-08-16T17:50:49Z</time>
      </trkpt>
      <trkpt lat="42.0611790" lon="-7.1368490">
        <ele>976.0</ele>
        <time>2019-08-16T17:50:50Z</time>
      </trkpt>
      <trkpt lat="42.0612160" lon="-7.1368360">
        <ele>975.7</ele>
        <time>2019-08-16T17:50:51Z</time>
      </trkpt>
      <trkpt lat="42.0612550" lon="-7.1368180">
        <ele>975.5</ele>
        <time>2019-08-16T17:50:52Z</time>
      </trkpt>
      <trkpt lat="42.0612930" lon="-7.1368020">
        <ele>975.2</ele>
        <time>2019-08-16T17:50:53Z</time>
      </trkpt>
      <trkpt lat="42.0613330" lon="-7.1367890">
        <ele>974.9</ele>
        <time>2019-08-16T17:50:54Z</time>
      </trkpt>
      <trkpt lat="42.0613740" lon="-7.1367790">
        <ele>974.6</ele>
        <time>2019-08-16T17:50:55Z</time>
      </trkpt>
      <trkpt lat="42.0614190" lon="-7.1367710">
        <ele>974.3</ele>
        <time>2019-08-16T17:50:56Z</time>
      </trkpt>
      <trkpt lat="42.0614660" lon="-7.1367600">
        <ele>974.0</ele>
        <time>2019-08-16T17:50:57Z</time>
      </trkpt>
      <trkpt lat="42.0615110" lon="-7.1367500">
        <ele>973.7</ele>
        <time>2019-08-16T17:50:58Z</time>
      </trkpt>
      <trkpt lat="42.0615500" lon="-7.1367400">
        <ele>973.5</ele>
        <time>2019-08-16T17:50:59Z</time>
      </trkpt>
      <trkpt lat="42.0615830" lon="-7.1367280">
        <ele>973.3</ele>
        <time>2019-08-16T17:51:00Z</time>
      </trkpt>
      <trkpt lat="42.0616140" lon="-7.1367120">
        <ele>973.0</ele>
        <time>2019-08-16T17:51:01Z</time>
      </trkpt>
      <trkpt lat="42.0616310" lon="-7.1366780">
        <ele>972.8</ele>
        <time>2019-08-16T17:51:02Z</time>
      </trkpt>
      <trkpt lat="42.0616440" lon="-7.1366450">
        <ele>972.8</ele>
        <time>2019-08-16T17:51:03Z</time>
      </trkpt>
      <trkpt lat="42.0616500" lon="-7.1366170">
        <ele>972.8</ele>
        <time>2019-08-16T17:51:04Z</time>
      </trkpt>
      <trkpt lat="42.0616520" lon="-7.1365930">
        <ele>972.8</ele>
        <time>2019-08-16T17:51:06Z</time>
      </trkpt>
      <trkpt lat="42.0592270" lon="-7.1249780">
        <ele>1012.6</ele>
        <time>2019-08-17T08:36:36Z</time>
      </trkpt>
      <trkpt lat="42.0592040" lon="-7.1250550">
        <ele>1012.2</ele>
        <time>2019-08-17T08:36:37Z</time>
      </trkpt>
      <trkpt lat="42.0591920" lon="-7.1250900">
        <ele>1012.1</ele>
        <time>2019-08-17T08:36:38Z</time>
      </trkpt>
      <trkpt lat="42.0591810" lon="-7.1251250">
        <ele>1011.9</ele>
        <time>2019-08-17T08:36:39Z</time>
      </trkpt>
      <trkpt lat="42.0591600" lon="-7.1251860">
        <ele>1011.6</ele>
        <time>2019-08-17T08:36:40Z</time>
      </trkpt>
      <trkpt lat="42.0591360" lon="-7.1252520">
        <ele>1011.3</ele>
        <time>2019-08-17T08:36:41Z</time>
      </trkpt>
      <trkpt lat="42.0591090" lon="-7.1253240">
        <ele>1010.8</ele>
        <time>2019-08-17T08:36:42Z</time>
      </trkpt>
      <trkpt lat="42.0590780" lon="-7.1253990">
        <ele>1010.5</ele>
        <time>2019-08-17T08:36:43Z</time>
      </trkpt>
      <trkpt lat="42.0590440" lon="-7.1254790">
        <ele>1010.2</ele>
        <time>2019-08-17T08:36:44Z</time>
      </trkpt>
      <trkpt lat="42.0590070" lon="-7.1255610">
        <ele>1009.7</ele>
        <time>2019-08-17T08:36:45Z</time>
      </trkpt>
      <trkpt lat="42.0589660" lon="-7.1256450">
        <ele>1009.2</ele>
        <time>2019-08-17T08:36:46Z</time>
      </trkpt>
      <trkpt lat="42.0589220" lon="-7.1257320">
        <ele>1008.7</ele>
        <time>2019-08-17T08:36:47Z</time>
      </trkpt>
      <trkpt lat="42.0588740" lon="-7.1258200">
        <ele>1008.2</ele>
        <time>2019-08-17T08:36:48Z</time>
      </trkpt>
      <trkpt lat="42.0588220" lon="-7.1259090">
        <ele>1007.6</ele>
        <time>2019-08-17T08:36:49Z</time>
      </trkpt>
      <trkpt lat="42.0587670" lon="-7.1259980">
        <ele>1007.1</ele>
        <time>2019-08-17T08:36:50Z</time>
      </trkpt>
      <trkpt lat="42.0587080" lon="-7.1260870">
        <ele>1006.6</ele>
        <time>2019-08-17T08:36:51Z</time>
      </trkpt>
      <trkpt lat="42.0586460" lon="-7.1261760">
        <ele>1006.1</ele>
        <time>2019-08-17T08:36:52Z</time>
      </trkpt>
      <trkpt lat="42.0585820" lon="-7.1262670">
        <ele>1005.6</ele>
        <time>2019-08-17T08:36:53Z</time>
      </trkpt>
      <trkpt lat="42.0585160" lon="-7.1263610">
        <ele>1004.7</ele>
        <time>2019-08-17T08:36:54Z</time>
      </trkpt>
      <trkpt lat="42.0584490" lon="-7.1264570">
        <ele>1003.9</ele>
        <time>2019-08-17T08:36:55Z</time>
      </trkpt>
      <trkpt lat="42.0583820" lon="-7.1265580">
        <ele>1003.0</ele>
        <time>2019-08-17T08:36:56Z</time>
      </trkpt>
      <trkpt lat="42.0583150" lon="-7.1266650">
        <ele>1002.2</ele>
        <time>2019-08-17T08:36:57Z</time>
      </trkpt>
      <trkpt lat="42.0582500" lon="-7.1267770">
        <ele>1001.4</ele>
        <time>2019-08-17T08:36:58Z</time>
      </trkpt>
      <trkpt lat="42.0581880" lon="-7.1268940">
        <ele>1000.1</ele>
        <time>2019-08-17T08:36:59Z</time>
      </trkpt>
      <trkpt lat="42.0581310" lon="-7.1270180">
        <ele>999.2</ele>
        <time>2019-08-17T08:37:00Z</time>
      </trkpt>
      <trkpt lat="42.0580820" lon="-7.1271460">
        <ele>998.4</ele>
        <time>2019-08-17T08:37:01Z</time>
      </trkpt>
      <trkpt lat="42.0580410" lon="-7.1272790">
        <ele>997.8</ele>
        <time>2019-08-17T08:37:02Z</time>
      </trkpt>
      <trkpt lat="42.0580120" lon="-7.1274160">
        <ele>997.1</ele>
        <time>2019-08-17T08:37:03Z</time>
      </trkpt>
      <trkpt lat="42.0579950" lon="-7.1275570">
        <ele>996.4</ele>
        <time>2019-08-17T08:37:04Z</time>
      </trkpt>
      <trkpt lat="42.0579910" lon="-7.1277010">
        <ele>995.6</ele>
        <time>2019-08-17T08:37:05Z</time>
      </trkpt>
      <trkpt lat="42.0579980" lon="-7.1278450">
        <ele>994.7</ele>
        <time>2019-08-17T08:37:06Z</time>
      </trkpt>
      <trkpt lat="42.0580150" lon="-7.1279870">
        <ele>993.7</ele>
        <time>2019-08-17T08:37:07Z</time>
      </trkpt>
      <trkpt lat="42.0580430" lon="-7.1281270">
        <ele>992.7</ele>
        <time>2019-08-17T08:37:08Z</time>
      </trkpt>
      <trkpt lat="42.0580800" lon="-7.1282610">
        <ele>991.7</ele>
        <time>2019-08-17T08:37:09Z</time>
      </trkpt>
      <trkpt lat="42.0581240" lon="-7.1283890">
        <ele>990.8</ele>
        <time>2019-08-17T08:37:10Z</time>
      </trkpt>
      <trkpt lat="42.0581770" lon="-7.1285090">
        <ele>989.8</ele>
        <time>2019-08-17T08:37:11Z</time>
      </trkpt>
      <trkpt lat="42.0582350" lon="-7.1286220">
        <ele>988.9</ele>
        <time>2019-08-17T08:37:12Z</time>
      </trkpt>
      <trkpt lat="42.0583000" lon="-7.1287290">
        <ele>988.0</ele>
        <time>2019-08-17T08:37:13Z</time>
      </trkpt>
      <trkpt lat="42.0583700" lon="-7.1288320">
        <ele>987.1</ele>
        <time>2019-08-17T08:37:14Z</time>
      </trkpt>
      <trkpt lat="42.0584440" lon="-7.1289310">
        <ele>986.3</ele>
        <time>2019-08-17T08:37:15Z</time>
      </trkpt>
      <trkpt lat="42.0585210" lon="-7.1290280">
        <ele>985.6</ele>
        <time>2019-08-17T08:37:16Z</time>
      </trkpt>
      <trkpt lat="42.0586010" lon="-7.1291240">
        <ele>984.9</ele>
        <time>2019-08-17T08:37:17Z</time>
      </trkpt>
      <trkpt lat="42.0586820" lon="-7.1292200">
        <ele>984.0</ele>
        <time>2019-08-17T08:37:18Z</time>
      </trkpt>
      <trkpt lat="42.0587660" lon="-7.1293170">
        <ele>983.6</ele>
        <time>2019-08-17T08:37:19Z</time>
      </trkpt>
      <trkpt lat="42.0588500" lon="-7.1294140">
        <ele>982.6</ele>
        <time>2019-08-17T08:37:20Z</time>
      </trkpt>
      <trkpt lat="42.0589360" lon="-7.1295120">
        <ele>981.8</ele>
        <time>2019-08-17T08:37:21Z</time>
      </trkpt>
      <trkpt lat="42.0590220" lon="-7.1296090">
        <ele>981.0</ele>
        <time>2019-08-17T08:37:22Z</time>
      </trkpt>
      <trkpt lat="42.0591090" lon="-7.1297070">
        <ele>980.3</ele>
        <time>2019-08-17T08:37:23Z</time>
      </trkpt>
      <trkpt lat="42.0591960" lon="-7.1298050">
        <ele>979.5</ele>
        <time>2019-08-17T08:37:24Z</time>
      </trkpt>
      <trkpt lat="42.0592820" lon="-7.1299030">
        <ele>978.6</ele>
        <time>2019-08-17T08:37:25Z</time>
      </trkpt>
      <trkpt lat="42.0593670" lon="-7.1300020">
        <ele>977.6</ele>
        <time>2019-08-17T08:37:26Z</time>
      </trkpt>
      <trkpt lat="42.0594490" lon="-7.1301040">
        <ele>976.5</ele>
        <time>2019-08-17T08:37:27Z</time>
      </trkpt>
      <trkpt lat="42.0595230" lon="-7.1302130">
        <ele>975.6</ele>
        <time>2019-08-17T08:37:28Z</time>
      </trkpt>
      <trkpt lat="42.0595960" lon="-7.1303230">
        <ele>974.7</ele>
        <time>2019-08-17T08:37:29Z</time>
      </trkpt>
      <trkpt lat="42.0596600" lon="-7.1304420">
        <ele>974.5</ele>
        <time>2019-08-17T08:37:30Z</time>
      </trkpt>
      <trkpt lat="42.0597140" lon="-7.1305690">
        <ele>974.4</ele>
        <time>2019-08-17T08:37:31Z</time>
      </trkpt>
      <trkpt lat="42.0597610" lon="-7.1307030">
        <ele>974.3</ele>
        <time>2019-08-17T08:37:32Z</time>
      </trkpt>
      <trkpt lat="42.0598020" lon="-7.1308420">
        <ele>974.1</ele>
        <time>2019-08-17T08:37:33Z</time>
      </trkpt>
      <trkpt lat="42.0598400" lon="-7.1309850">
        <ele>974.2</ele>
        <time>2019-08-17T08:37:34Z</time>
      </trkpt>
      <trkpt lat="42.0598740" lon="-7.1311300">
        <ele>974.3</ele>
        <time>2019-08-17T08:37:35Z</time>
      </trkpt>
      <trkpt lat="42.0599070" lon="-7.1312760">
        <ele>974.4</ele>
        <time>2019-08-17T08:37:36Z</time>
      </trkpt>
      <trkpt lat="42.0599390" lon="-7.1314220">
        <ele>974.6</ele>
        <time>2019-08-17T08:37:37Z</time>
      </trkpt>
      <trkpt lat="42.0599920" lon="-7.1316650">
        <ele>974.9</ele>
        <time>2019-08-17T08:37:38Z</time>
      </trkpt>
      <trkpt lat="42.0600120" lon="-7.1317610">
        <ele>975.0</ele>
        <time>2019-08-17T08:37:39Z</time>
      </trkpt>
      <trkpt lat="42.0600330" lon="-7.1318570">
        <ele>974.6</ele>
        <time>2019-08-17T08:37:40Z</time>
      </trkpt>
      <trkpt lat="42.0600640" lon="-7.1320010">
        <ele>974.1</ele>
        <time>2019-08-17T08:37:41Z</time>
      </trkpt>
      <trkpt lat="42.0600940" lon="-7.1321420">
        <ele>973.7</ele>
        <time>2019-08-17T08:37:42Z</time>
      </trkpt>
      <trkpt lat="42.0601420" lon="-7.1323690">
        <ele>973.6</ele>
        <time>2019-08-17T08:37:43Z</time>
      </trkpt>
      <trkpt lat="42.0601610" lon="-7.1324590">
        <ele>973.6</ele>
        <time>2019-08-17T08:37:44Z</time>
      </trkpt>
      <trkpt lat="42.0601800" lon="-7.1325480">
        <ele>973.6</ele>
        <time>2019-08-17T08:37:45Z</time>
      </trkpt>
      <trkpt lat="42.0602080" lon="-7.1326800">
        <ele>973.7</ele>
        <time>2019-08-17T08:37:46Z</time>
      </trkpt>
      <trkpt lat="42.0602340" lon="-7.1328060">
        <ele>973.9</ele>
        <time>2019-08-17T08:37:47Z</time>
      </trkpt>
      <trkpt lat="42.0602610" lon="-7.1329270">
        <ele>974.1</ele>
        <time>2019-08-17T08:37:48Z</time>
      </trkpt>
      <trkpt lat="42.0602860" lon="-7.1330440">
        <ele>974.5</ele>
        <time>2019-08-17T08:37:49Z</time>
      </trkpt>
      <trkpt lat="42.0603110" lon="-7.1331550">
        <ele>975.2</ele>
        <time>2019-08-17T08:37:50Z</time>
      </trkpt>
      <trkpt lat="42.0603350" lon="-7.1332590">
        <ele>976.0</ele>
        <time>2019-08-17T08:37:51Z</time>
      </trkpt>
      <trkpt lat="42.0603590" lon="-7.1333580">
        <ele>976.9</ele>
        <time>2019-08-17T08:37:52Z</time>
      </trkpt>
      <trkpt lat="42.0603810" lon="-7.1334500">
        <ele>978.1</ele>
        <time>2019-08-17T08:37:53Z</time>
      </trkpt>
      <trkpt lat="42.0604030" lon="-7.1335370">
        <ele>978.8</ele>
        <time>2019-08-17T08:37:54Z</time>
      </trkpt>
      <trkpt lat="42.0604240" lon="-7.1336180">
        <ele>979.5</ele>
        <time>2019-08-17T08:37:55Z</time>
      </trkpt>
      <trkpt lat="42.0604430" lon="-7.1336960">
        <ele>979.9</ele>
        <time>2019-08-17T08:37:56Z</time>
      </trkpt>
      <trkpt lat="42.0604620" lon="-7.1337700">
        <ele>979.8</ele>
        <time>2019-08-17T08:37:57Z</time>
      </trkpt>
      <trkpt lat="42.0604790" lon="-7.1338410">
        <ele>979.8</ele>
        <time>2019-08-17T08:37:58Z</time>
      </trkpt>
      <trkpt lat="42.0604960" lon="-7.1339090">
        <ele>979.8</ele>
        <time>2019-08-17T08:37:59Z</time>
      </trkpt>
      <trkpt lat="42.0605110" lon="-7.1339740">
        <ele>979.8</ele>
        <time>2019-08-17T08:38:00Z</time>
      </trkpt>
      <trkpt lat="42.0605250" lon="-7.1340380">
        <ele>979.8</ele>
        <time>2019-08-17T08:38:01Z</time>
      </trkpt>
      <trkpt lat="42.0605390" lon="-7.1341000">
        <ele>979.9</ele>
        <time>2019-08-17T08:38:02Z</time>
      </trkpt>
      <trkpt lat="42.0605520" lon="-7.1341600">
        <ele>980.0</ele>
        <time>2019-08-17T08:38:03Z</time>
      </trkpt>
      <trkpt lat="42.0605650" lon="-7.1342190">
        <ele>980.1</ele>
        <time>2019-08-17T08:38:04Z</time>
      </trkpt>
      <trkpt lat="42.0605770" lon="-7.1342780">
        <ele>980.2</ele>
        <time>2019-08-17T08:38:05Z</time>
      </trkpt>
      <trkpt lat="42.0605900" lon="-7.1343360">
        <ele>980.3</ele>
        <time>2019-08-17T08:38:06Z</time>
      </trkpt>
      <trkpt lat="42.0606020" lon="-7.1343930">
        <ele>980.5</ele>
        <time>2019-08-17T08:38:07Z</time>
      </trkpt>
      <trkpt lat="42.0606140" lon="-7.1344510">
        <ele>980.6</ele>
        <time>2019-08-17T08:38:08Z</time>
      </trkpt>
      <trkpt lat="42.0606270" lon="-7.1345090">
        <ele>980.7</ele>
        <time>2019-08-17T08:38:09Z</time>
      </trkpt>
      <trkpt lat="42.0606400" lon="-7.1345690">
        <ele>980.8</ele>
        <time>2019-08-17T08:38:10Z</time>
      </trkpt>
      <trkpt lat="42.0606530" lon="-7.1346290">
        <ele>980.8</ele>
        <time>2019-08-17T08:38:11Z</time>
      </trkpt>
      <trkpt lat="42.0606670" lon="-7.1346900">
        <ele>980.9</ele>
        <time>2019-08-17T08:38:12Z</time>
      </trkpt>
      <trkpt lat="42.0606820" lon="-7.1347530">
        <ele>980.9</ele>
        <time>2019-08-17T08:38:13Z</time>
      </trkpt>
      <trkpt lat="42.0606970" lon="-7.1348170">
        <ele>980.9</ele>
        <time>2019-08-17T08:38:14Z</time>
      </trkpt>
      <trkpt lat="42.0607140" lon="-7.1348830">
        <ele>980.9</ele>
        <time>2019-08-17T08:38:15Z</time>
      </trkpt>
      <trkpt lat="42.0607300" lon="-7.1349500">
        <ele>980.9</ele>
        <time>2019-08-17T08:38:16Z</time>
      </trkpt>
      <trkpt lat="42.0607470" lon="-7.1350200">
        <ele>980.9</ele>
        <time>2019-08-17T08:38:17Z</time>
      </trkpt>
      <trkpt lat="42.0607620" lon="-7.1350920">
        <ele>980.9</ele>
        <time>2019-08-17T08:38:18Z</time>
      </trkpt>
      <trkpt lat="42.0607740" lon="-7.1351680">
        <ele>980.8</ele>
        <time>2019-08-17T08:38:19Z</time>
      </trkpt>
      <trkpt lat="42.0607840" lon="-7.1352470">
        <ele>980.8</ele>
        <time>2019-08-17T08:38:20Z</time>
      </trkpt>
      <trkpt lat="42.0607920" lon="-7.1353300">
        <ele>980.7</ele>
        <time>2019-08-17T08:38:21Z</time>
      </trkpt>
      <trkpt lat="42.0607990" lon="-7.1354150">
        <ele>980.5</ele>
        <time>2019-08-17T08:38:22Z</time>
      </trkpt>
      <trkpt lat="42.0608080" lon="-7.1355480">
        <ele>980.3</ele>
        <time>2019-08-17T08:38:23Z</time>
      </trkpt>
      <trkpt lat="42.0608110" lon="-7.1355940">
        <ele>980.2</ele>
        <time>2019-08-17T08:38:24Z</time>
      </trkpt>
      <trkpt lat="42.0608170" lon="-7.1356860">
        <ele>980.0</ele>
        <time>2019-08-17T08:38:25Z</time>
      </trkpt>
      <trkpt lat="42.0608230" lon="-7.1357810">
        <ele>979.7</ele>
        <time>2019-08-17T08:38:26Z</time>
      </trkpt>
      <trkpt lat="42.0608300" lon="-7.1358760">
        <ele>979.6</ele>
        <time>2019-08-17T08:38:27Z</time>
      </trkpt>
      <trkpt lat="42.0608370" lon="-7.1359720">
        <ele>979.4</ele>
        <time>2019-08-17T08:38:28Z</time>
      </trkpt>
      <trkpt lat="42.0608450" lon="-7.1360690">
        <ele>979.3</ele>
        <time>2019-08-17T08:38:29Z</time>
      </trkpt>
      <trkpt lat="42.0608550" lon="-7.1361650">
        <ele>979.1</ele>
        <time>2019-08-17T08:38:30Z</time>
      </trkpt>
      <trkpt lat="42.0608650" lon="-7.1362610">
        <ele>978.9</ele>
        <time>2019-08-17T08:38:31Z</time>
      </trkpt>
      <trkpt lat="42.0608770" lon="-7.1363560">
        <ele>978.6</ele>
        <time>2019-08-17T08:38:32Z</time>
      </trkpt>
      <trkpt lat="42.0608890" lon="-7.1364500">
        <ele>978.3</ele>
        <time>2019-08-17T08:38:33Z</time>
      </trkpt>
      <trkpt lat="42.0609020" lon="-7.1365430">
        <ele>978.0</ele>
        <time>2019-08-17T08:38:34Z</time>
      </trkpt>
      <trkpt lat="42.0609140" lon="-7.1366360">
        <ele>977.8</ele>
        <time>2019-08-17T08:38:35Z</time>
      </trkpt>
      <trkpt lat="42.0609260" lon="-7.1367280">
        <ele>977.6</ele>
        <time>2019-08-17T08:38:36Z</time>
      </trkpt>
      <trkpt lat="42.0609360" lon="-7.1368200">
        <ele>977.5</ele>
        <time>2019-08-17T08:38:37Z</time>
      </trkpt>
      <trkpt lat="42.0609440" lon="-7.1369110">
        <ele>977.5</ele>
        <time>2019-08-17T08:38:38Z</time>
      </trkpt>
      <trkpt lat="42.0609500" lon="-7.1370030">
        <ele>977.5</ele>
        <time>2019-08-17T08:38:39Z</time>
      </trkpt>
      <trkpt lat="42.0609550" lon="-7.1370940">
        <ele>977.6</ele>
        <time>2019-08-17T08:38:40Z</time>
      </trkpt>
      <trkpt lat="42.0609570" lon="-7.1371850">
        <ele>977.7</ele>
        <time>2019-08-17T08:38:41Z</time>
      </trkpt>
      <trkpt lat="42.0609580" lon="-7.1372770">
        <ele>977.8</ele>
        <time>2019-08-17T08:38:42Z</time>
      </trkpt>
      <trkpt lat="42.0609580" lon="-7.1373690">
        <ele>977.9</ele>
        <time>2019-08-17T08:38:43Z</time>
      </trkpt>
      <trkpt lat="42.0609580" lon="-7.1374610">
        <ele>978.0</ele>
        <time>2019-08-17T08:38:44Z</time>
      </trkpt>
      <trkpt lat="42.0609580" lon="-7.1375530">
        <ele>978.2</ele>
        <time>2019-08-17T08:38:45Z</time>
      </trkpt>
      <trkpt lat="42.0609580" lon="-7.1376460">
        <ele>978.3</ele>
        <time>2019-08-17T08:38:46Z</time>
      </trkpt>
      <trkpt lat="42.0609570" lon="-7.1377390">
        <ele>978.5</ele>
        <time>2019-08-17T08:38:47Z</time>
      </trkpt>
      <trkpt lat="42.0609560" lon="-7.1378300">
        <ele>978.7</ele>
        <time>2019-08-17T08:38:48Z</time>
      </trkpt>
      <trkpt lat="42.0609540" lon="-7.1379200">
        <ele>978.9</ele>
        <time>2019-08-17T08:38:49Z</time>
      </trkpt>
      <trkpt lat="42.0609510" lon="-7.1380070">
        <ele>979.2</ele>
        <time>2019-08-17T08:38:50Z</time>
      </trkpt>
      <trkpt lat="42.0609450" lon="-7.1380910">
        <ele>979.5</ele>
        <time>2019-08-17T08:38:51Z</time>
      </trkpt>
      <trkpt lat="42.0609380" lon="-7.1381710">
        <ele>979.7</ele>
        <time>2019-08-17T08:38:52Z</time>
      </trkpt>
      <trkpt lat="42.0609280" lon="-7.1382480">
        <ele>979.9</ele>
        <time>2019-08-17T08:38:53Z</time>
      </trkpt>
      <trkpt lat="42.0609170" lon="-7.1383220">
        <ele>980.0</ele>
        <time>2019-08-17T08:38:54Z</time>
      </trkpt>
      <trkpt lat="42.0609050" lon="-7.1383940">
        <ele>980.2</ele>
        <time>2019-08-17T08:38:55Z</time>
      </trkpt>
      <trkpt lat="42.0608930" lon="-7.1384650">
        <ele>980.4</ele>
        <time>2019-08-17T08:38:56Z</time>
      </trkpt>
      <trkpt lat="42.0608820" lon="-7.1385340">
        <ele>980.5</ele>
        <time>2019-08-17T08:38:57Z</time>
      </trkpt>
      <trkpt lat="42.0608700" lon="-7.1386040">
        <ele>980.6</ele>
        <time>2019-08-17T08:38:58Z</time>
      </trkpt>
      <trkpt lat="42.0608600" lon="-7.1386730">
        <ele>980.7</ele>
        <time>2019-08-17T08:38:59Z</time>
      </trkpt>
      <trkpt lat="42.0608510" lon="-7.1387440">
        <ele>980.8</ele>
        <time>2019-08-17T08:39:00Z</time>
      </trkpt>
      <trkpt lat="42.0608420" lon="-7.1388160">
        <ele>980.8</ele>
        <time>2019-08-17T08:39:01Z</time>
      </trkpt>
      <trkpt lat="42.0608330" lon="-7.1388900">
        <ele>980.8</ele>
        <time>2019-08-17T08:39:02Z</time>
      </trkpt>
      <trkpt lat="42.0608230" lon="-7.1389660">
        <ele>980.5</ele>
        <time>2019-08-17T08:39:03Z</time>
      </trkpt>
      <trkpt lat="42.0608120" lon="-7.1390450">
        <ele>980.2</ele>
        <time>2019-08-17T08:39:04Z</time>
      </trkpt>
      <trkpt lat="42.0607990" lon="-7.1391280">
        <ele>979.9</ele>
        <time>2019-08-17T08:39:05Z</time>
      </trkpt>
      <trkpt lat="42.0607850" lon="-7.1392140">
        <ele>979.6</ele>
        <time>2019-08-17T08:39:06Z</time>
      </trkpt>
      <trkpt lat="42.0607720" lon="-7.1393040">
        <ele>979.2</ele>
        <time>2019-08-17T08:39:07Z</time>
      </trkpt>
      <trkpt lat="42.0607600" lon="-7.1393970">
        <ele>978.9</ele>
        <time>2019-08-17T08:39:08Z</time>
      </trkpt>
      <trkpt lat="42.0607530" lon="-7.1394930">
        <ele>978.6</ele>
        <time>2019-08-17T08:39:09Z</time>
      </trkpt>
      <trkpt lat="42.0607520" lon="-7.1395930">
        <ele>978.2</ele>
        <time>2019-08-17T08:39:10Z</time>
      </trkpt>
      <trkpt lat="42.0607540" lon="-7.1396940">
        <ele>977.9</ele>
        <time>2019-08-17T08:39:11Z</time>
      </trkpt>
      <trkpt lat="42.0607530" lon="-7.1397980">
        <ele>977.6</ele>
        <time>2019-08-17T08:39:12Z</time>
      </trkpt>
      <trkpt lat="42.0607480" lon="-7.1399010">
        <ele>977.4</ele>
        <time>2019-08-17T08:39:13Z</time>
      </trkpt>
      <trkpt lat="42.0607380" lon="-7.1400060">
        <ele>977.1</ele>
        <time>2019-08-17T08:39:14Z</time>
      </trkpt>
      <trkpt lat="42.0607250" lon="-7.1401100">
        <ele>976.8</ele>
        <time>2019-08-17T08:39:15Z</time>
      </trkpt>
      <trkpt lat="42.0607090" lon="-7.1402150">
        <ele>976.5</ele>
        <time>2019-08-17T08:39:16Z</time>
      </trkpt>
      <trkpt lat="42.0606920" lon="-7.1403200">
        <ele>976.3</ele>
        <time>2019-08-17T08:39:17Z</time>
      </trkpt>
      <trkpt lat="42.0606750" lon="-7.1404240">
        <ele>976.0</ele>
        <time>2019-08-17T08:39:18Z</time>
      </trkpt>
      <trkpt lat="42.0606590" lon="-7.1405280">
        <ele>975.8</ele>
        <time>2019-08-17T08:39:19Z</time>
      </trkpt>
      <trkpt lat="42.0606460" lon="-7.1406330">
        <ele>975.5</ele>
        <time>2019-08-17T08:39:20Z</time>
      </trkpt>
      <trkpt lat="42.0606370" lon="-7.1407400">
        <ele>975.8</ele>
        <time>2019-08-17T08:39:21Z</time>
      </trkpt>
      <trkpt lat="42.0606320" lon="-7.1408500">
        <ele>976.0</ele>
        <time>2019-08-17T08:39:22Z</time>
      </trkpt>
      <trkpt lat="42.0606320" lon="-7.1409630">
        <ele>976.2</ele>
        <time>2019-08-17T08:39:23Z</time>
      </trkpt>
      <trkpt lat="42.0606350" lon="-7.1410770">
        <ele>976.4</ele>
        <time>2019-08-17T08:39:24Z</time>
      </trkpt>
      <trkpt lat="42.0606390" lon="-7.1411880">
        <ele>976.7</ele>
        <time>2019-08-17T08:39:25Z</time>
      </trkpt>
      <trkpt lat="42.0606410" lon="-7.1412930">
        <ele>976.8</ele>
        <time>2019-08-17T08:39:26Z</time>
      </trkpt>
      <trkpt lat="42.0606400" lon="-7.1413910">
        <ele>976.9</ele>
        <time>2019-08-17T08:39:27Z</time>
      </trkpt>
      <trkpt lat="42.0606370" lon="-7.1414840">
        <ele>977.0</ele>
        <time>2019-08-17T08:39:28Z</time>
      </trkpt>
      <trkpt lat="42.0606310" lon="-7.1415700">
        <ele>977.0</ele>
        <time>2019-08-17T08:39:29Z</time>
      </trkpt>
      <trkpt lat="42.0606230" lon="-7.1416510">
        <ele>977.1</ele>
        <time>2019-08-17T08:39:30Z</time>
      </trkpt>
      <trkpt lat="42.0606120" lon="-7.1417280">
        <ele>976.9</ele>
        <time>2019-08-17T08:39:31Z</time>
      </trkpt>
      <trkpt lat="42.0606000" lon="-7.1418050">
        <ele>976.7</ele>
        <time>2019-08-17T08:39:32Z</time>
      </trkpt>
      <trkpt lat="42.0605860" lon="-7.1418830">
        <ele>976.6</ele>
        <time>2019-08-17T08:39:33Z</time>
      </trkpt>
      <trkpt lat="42.0605710" lon="-7.1419630">
        <ele>976.4</ele>
        <time>2019-08-17T08:39:34Z</time>
      </trkpt>
      <trkpt lat="42.0605520" lon="-7.1420470">
        <ele>976.2</ele>
        <time>2019-08-17T08:39:35Z</time>
      </trkpt>
      <trkpt lat="42.0605280" lon="-7.1421330">
        <ele>976.1</ele>
        <time>2019-08-17T08:39:36Z</time>
      </trkpt>
      <trkpt lat="42.0604980" lon="-7.1422240">
        <ele>975.9</ele>
        <time>2019-08-17T08:39:37Z</time>
      </trkpt>
      <trkpt lat="42.0604630" lon="-7.1423180">
        <ele>975.8</ele>
        <time>2019-08-17T08:39:38Z</time>
      </trkpt>
      <trkpt lat="42.0604250" lon="-7.1424130">
        <ele>975.7</ele>
        <time>2019-08-17T08:39:39Z</time>
      </trkpt>
      <trkpt lat="42.0603840" lon="-7.1425080">
        <ele>975.4</ele>
        <time>2019-08-17T08:39:40Z</time>
      </trkpt>
      <trkpt lat="42.0603400" lon="-7.1426030">
        <ele>974.8</ele>
        <time>2019-08-17T08:39:41Z</time>
      </trkpt>
      <trkpt lat="42.0602930" lon="-7.1426970">
        <ele>974.1</ele>
        <time>2019-08-17T08:39:42Z</time>
      </trkpt>
      <trkpt lat="42.0602420" lon="-7.1427900">
        <ele>973.5</ele>
        <time>2019-08-17T08:39:43Z</time>
      </trkpt>
      <trkpt lat="42.0601870" lon="-7.1428820">
        <ele>972.7</ele>
        <time>2019-08-17T08:39:44Z</time>
      </trkpt>
      <trkpt lat="42.0601270" lon="-7.1429720">
        <ele>972.0</ele>
        <time>2019-08-17T08:39:45Z</time>
      </trkpt>
      <trkpt lat="42.0600620" lon="-7.1430600">
        <ele>971.2</ele>
        <time>2019-08-17T08:39:46Z</time>
      </trkpt>
      <trkpt lat="42.0599940" lon="-7.1431470">
        <ele>970.4</ele>
        <time>2019-08-17T08:39:47Z</time>
      </trkpt>
      <trkpt lat="42.0599230" lon="-7.1432340">
        <ele>969.5</ele>
        <time>2019-08-17T08:39:48Z</time>
      </trkpt>
      <trkpt lat="42.0598500" lon="-7.1433210">
        <ele>968.7</ele>
        <time>2019-08-17T08:39:49Z</time>
      </trkpt>
      <trkpt lat="42.0597780" lon="-7.1434110">
        <ele>968.1</ele>
        <time>2019-08-17T08:39:50Z</time>
      </trkpt>
      <trkpt lat="42.0597060" lon="-7.1435010">
        <ele>967.8</ele>
        <time>2019-08-17T08:39:51Z</time>
      </trkpt>
      <trkpt lat="42.0596360" lon="-7.1435940">
        <ele>967.4</ele>
        <time>2019-08-17T08:39:52Z</time>
      </trkpt>
      <trkpt lat="42.0595700" lon="-7.1436920">
        <ele>967.0</ele>
        <time>2019-08-17T08:39:53Z</time>
      </trkpt>
      <trkpt lat="42.0595080" lon="-7.1437930">
        <ele>966.4</ele>
        <time>2019-08-17T08:39:54Z</time>
      </trkpt>
      <trkpt lat="42.0594510" lon="-7.1438990">
        <ele>965.7</ele>
        <time>2019-08-17T08:39:55Z</time>
      </trkpt>
      <trkpt lat="42.0593970" lon="-7.1440110">
        <ele>964.8</ele>
        <time>2019-08-17T08:39:56Z</time>
      </trkpt>
      <trkpt lat="42.0593490" lon="-7.1441280">
        <ele>963.9</ele>
        <time>2019-08-17T08:39:57Z</time>
      </trkpt>
      <trkpt lat="42.0593050" lon="-7.1442480">
        <ele>963.0</ele>
        <time>2019-08-17T08:39:58Z</time>
      </trkpt>
      <trkpt lat="42.0592370" lon="-7.1444510">
        <ele>961.6</ele>
        <time>2019-08-17T08:39:59Z</time>
      </trkpt>
      <trkpt lat="42.0592110" lon="-7.1445310">
        <ele>961.2</ele>
        <time>2019-08-17T08:40:00Z</time>
      </trkpt>
      <trkpt lat="42.0591850" lon="-7.1446120">
        <ele>960.7</ele>
        <time>2019-08-17T08:40:01Z</time>
      </trkpt>
      <trkpt lat="42.0591460" lon="-7.1447310">
        <ele>960.1</ele>
        <time>2019-08-17T08:40:02Z</time>
      </trkpt>
      <trkpt lat="42.0591070" lon="-7.1448490">
        <ele>959.6</ele>
        <time>2019-08-17T08:40:03Z</time>
      </trkpt>
      <trkpt lat="42.0590350" lon="-7.1450410">
        <ele>958.8</ele>
        <time>2019-08-17T08:40:04Z</time>
      </trkpt>
      <trkpt lat="42.0590040" lon="-7.1451180">
        <ele>958.5</ele>
        <time>2019-08-17T08:40:05Z</time>
      </trkpt>
      <trkpt lat="42.0589740" lon="-7.1451940">
        <ele>958.2</ele>
        <time>2019-08-17T08:40:06Z</time>
      </trkpt>
      <trkpt lat="42.0589230" lon="-7.1453070">
        <ele>957.7</ele>
        <time>2019-08-17T08:40:07Z</time>
      </trkpt>
      <trkpt lat="42.0588670" lon="-7.1454180">
        <ele>957.2</ele>
        <time>2019-08-17T08:40:08Z</time>
      </trkpt>
      <trkpt lat="42.0588080" lon="-7.1455290">
        <ele>956.7</ele>
        <time>2019-08-17T08:40:09Z</time>
      </trkpt>
      <trkpt lat="42.0587470" lon="-7.1456390">
        <ele>956.3</ele>
        <time>2019-08-17T08:40:10Z</time>
      </trkpt>
      <trkpt lat="42.0586820" lon="-7.1457500">
        <ele>955.7</ele>
        <time>2019-08-17T08:40:11Z</time>
      </trkpt>
      <trkpt lat="42.0586160" lon="-7.1458600">
        <ele>955.2</ele>
        <time>2019-08-17T08:40:12Z</time>
      </trkpt>
      <trkpt lat="42.0585490" lon="-7.1459710">
        <ele>954.9</ele>
        <time>2019-08-17T08:40:13Z</time>
      </trkpt>
      <trkpt lat="42.0584800" lon="-7.1460830">
        <ele>954.6</ele>
        <time>2019-08-17T08:40:14Z</time>
      </trkpt>
      <trkpt lat="42.0584100" lon="-7.1461950">
        <ele>954.3</ele>
        <time>2019-08-17T08:40:15Z</time>
      </trkpt>
      <trkpt lat="42.0583400" lon="-7.1463080">
        <ele>954.0</ele>
        <time>2019-08-17T08:40:16Z</time>
      </trkpt>
      <trkpt lat="42.0582700" lon="-7.1464220">
        <ele>953.4</ele>
        <time>2019-08-17T08:40:17Z</time>
      </trkpt>
      <trkpt lat="42.0582000" lon="-7.1465360">
        <ele>952.8</ele>
        <time>2019-08-17T08:40:18Z</time>
      </trkpt>
      <trkpt lat="42.0581310" lon="-7.1466510">
        <ele>952.4</ele>
        <time>2019-08-17T08:40:19Z</time>
      </trkpt>
      <trkpt lat="42.0580630" lon="-7.1467670">
        <ele>952.1</ele>
        <time>2019-08-17T08:40:20Z</time>
      </trkpt>
      <trkpt lat="42.0579950" lon="-7.1468820">
        <ele>952.0</ele>
        <time>2019-08-17T08:40:21Z</time>
      </trkpt>
      <trkpt lat="42.0579290" lon="-7.1469990">
        <ele>951.9</ele>
        <time>2019-08-17T08:40:22Z</time>
      </trkpt>
      <trkpt lat="42.0578630" lon="-7.1471150">
        <ele>951.8</ele>
        <time>2019-08-17T08:40:23Z</time>
      </trkpt>
      <trkpt lat="42.0577980" lon="-7.1472310">
        <ele>951.8</ele>
        <time>2019-08-17T08:40:24Z</time>
      </trkpt>
      <trkpt lat="42.0577340" lon="-7.1473480">
        <ele>951.8</ele>
        <time>2019-08-17T08:40:25Z</time>
      </trkpt>
      <trkpt lat="42.0576710" lon="-7.1474640">
        <ele>951.4</ele>
        <time>2019-08-17T08:40:26Z</time>
      </trkpt>
      <trkpt lat="42.0576080" lon="-7.1475790">
        <ele>950.8</ele>
        <time>2019-08-17T08:40:27Z</time>
      </trkpt>
      <trkpt lat="42.0575460" lon="-7.1476930">
        <ele>949.9</ele>
        <time>2019-08-17T08:40:28Z</time>
      </trkpt>
      <trkpt lat="42.0574830" lon="-7.1478040">
        <ele>948.9</ele>
        <time>2019-08-17T08:40:29Z</time>
      </trkpt>
      <trkpt lat="42.0574180" lon="-7.1479110">
        <ele>947.9</ele>
        <time>2019-08-17T08:40:30Z</time>
      </trkpt>
      <trkpt lat="42.0573520" lon="-7.1480130">
        <ele>946.9</ele>
        <time>2019-08-17T08:40:31Z</time>
      </trkpt>
      <trkpt lat="42.0572840" lon="-7.1481090">
        <ele>946.4</ele>
        <time>2019-08-17T08:40:32Z</time>
      </trkpt>
      <trkpt lat="42.0572120" lon="-7.1481970">
        <ele>946.2</ele>
        <time>2019-08-17T08:40:33Z</time>
      </trkpt>
      <trkpt lat="42.0571370" lon="-7.1482770">
        <ele>946.0</ele>
        <time>2019-08-17T08:40:34Z</time>
      </trkpt>
      <trkpt lat="42.0570580" lon="-7.1483490">
        <ele>945.9</ele>
        <time>2019-08-17T08:40:35Z</time>
      </trkpt>
      <trkpt lat="42.0569770" lon="-7.1484110">
        <ele>945.7</ele>
        <time>2019-08-17T08:40:36Z</time>
      </trkpt>
      <trkpt lat="42.0568940" lon="-7.1484640">
        <ele>945.4</ele>
        <time>2019-08-17T08:40:37Z</time>
      </trkpt>
      <trkpt lat="42.0568090" lon="-7.1485080">
        <ele>945.2</ele>
        <time>2019-08-17T08:40:38Z</time>
      </trkpt>
      <trkpt lat="42.0567230" lon="-7.1485420">
        <ele>945.0</ele>
        <time>2019-08-17T08:40:39Z</time>
      </trkpt>
      <trkpt lat="42.0566370" lon="-7.1485660">
        <ele>945.0</ele>
        <time>2019-08-17T08:40:40Z</time>
      </trkpt>
      <trkpt lat="42.0565510" lon="-7.1485810">
        <ele>945.2</ele>
        <time>2019-08-17T08:40:41Z</time>
      </trkpt>
      <trkpt lat="42.0564650" lon="-7.1485870">
        <ele>945.1</ele>
        <time>2019-08-17T08:40:42Z</time>
      </trkpt>
      <trkpt lat="42.0563820" lon="-7.1485850">
        <ele>945.1</ele>
        <time>2019-08-17T08:40:43Z</time>
      </trkpt>
      <trkpt lat="42.0563000" lon="-7.1485760">
        <ele>945.1</ele>
        <time>2019-08-17T08:40:44Z</time>
      </trkpt>
      <trkpt lat="42.0562240" lon="-7.1485580">
        <ele>945.0</ele>
        <time>2019-08-17T08:40:45Z</time>
      </trkpt>
      <trkpt lat="42.0561470" lon="-7.1485400">
        <ele>945.0</ele>
        <time>2019-08-17T08:40:46Z</time>
      </trkpt>
      <trkpt lat="42.0560760" lon="-7.1485140">
        <ele>945.0</ele>
        <time>2019-08-17T08:40:47Z</time>
      </trkpt>
      <trkpt lat="42.0560090" lon="-7.1484830">
        <ele>945.0</ele>
        <time>2019-08-17T08:40:48Z</time>
      </trkpt>
      <trkpt lat="42.0559460" lon="-7.1484500">
        <ele>945.0</ele>
        <time>2019-08-17T08:40:49Z</time>
      </trkpt>
      <trkpt lat="42.0558860" lon="-7.1484150">
        <ele>945.1</ele>
        <time>2019-08-17T08:40:50Z</time>
      </trkpt>
      <trkpt lat="42.0558290" lon="-7.1483790">
        <ele>945.2</ele>
        <time>2019-08-17T08:40:51Z</time>
      </trkpt>
      <trkpt lat="42.0557740" lon="-7.1483430">
        <ele>945.3</ele>
        <time>2019-08-17T08:40:52Z</time>
      </trkpt>
      <trkpt lat="42.0557220" lon="-7.1483090">
        <ele>945.5</ele>
        <time>2019-08-17T08:40:53Z</time>
      </trkpt>
      <trkpt lat="42.0556720" lon="-7.1482760">
        <ele>945.6</ele>
        <time>2019-08-17T08:40:54Z</time>
      </trkpt>
      <trkpt lat="42.0556230" lon="-7.1482460">
        <ele>945.8</ele>
        <time>2019-08-17T08:40:55Z</time>
      </trkpt>
      <trkpt lat="42.0555750" lon="-7.1482180">
        <ele>945.9</ele>
        <time>2019-08-17T08:40:56Z</time>
      </trkpt>
      <trkpt lat="42.0555290" lon="-7.1481920">
        <ele>946.1</ele>
        <time>2019-08-17T08:40:57Z</time>
      </trkpt>
      <trkpt lat="42.0554840" lon="-7.1481690">
        <ele>946.2</ele>
        <time>2019-08-17T08:40:58Z</time>
      </trkpt>
      <trkpt lat="42.0554400" lon="-7.1481480">
        <ele>946.4</ele>
        <time>2019-08-17T08:40:59Z</time>
      </trkpt>
      <trkpt lat="42.0553960" lon="-7.1481290">
        <ele>946.5</ele>
        <time>2019-08-17T08:41:00Z</time>
      </trkpt>
      <trkpt lat="42.0553530" lon="-7.1481130">
        <ele>946.7</ele>
        <time>2019-08-17T08:41:01Z</time>
      </trkpt>
      <trkpt lat="42.0553100" lon="-7.1480990">
        <ele>946.8</ele>
        <time>2019-08-17T08:41:02Z</time>
      </trkpt>
      <trkpt lat="42.0552680" lon="-7.1480870">
        <ele>946.9</ele>
        <time>2019-08-17T08:41:03Z</time>
      </trkpt>
      <trkpt lat="42.0552240" lon="-7.1480770">
        <ele>947.1</ele>
        <time>2019-08-17T08:41:04Z</time>
      </trkpt>
      <trkpt lat="42.0551810" lon="-7.1480700">
        <ele>947.2</ele>
        <time>2019-08-17T08:41:05Z</time>
      </trkpt>
      <trkpt lat="42.0551370" lon="-7.1480650">
        <ele>947.4</ele>
        <time>2019-08-17T08:41:06Z</time>
      </trkpt>
      <trkpt lat="42.0550920" lon="-7.1480620">
        <ele>947.6</ele>
        <time>2019-08-17T08:41:07Z</time>
      </trkpt>
      <trkpt lat="42.0550470" lon="-7.1480610">
        <ele>947.8</ele>
        <time>2019-08-17T08:41:08Z</time>
      </trkpt>
      <trkpt lat="42.0549690" lon="-7.1480650">
        <ele>948.1</ele>
        <time>2019-08-17T08:41:09Z</time>
      </trkpt>
      <trkpt lat="42.0549370" lon="-7.1480680">
        <ele>948.2</ele>
        <time>2019-08-17T08:41:10Z</time>
      </trkpt>
      <trkpt lat="42.0549060" lon="-7.1480700">
        <ele>948.4</ele>
        <time>2019-08-17T08:41:11Z</time>
      </trkpt>
      <trkpt lat="42.0548580" lon="-7.1480760">
        <ele>948.6</ele>
        <time>2019-08-17T08:41:12Z</time>
      </trkpt>
      <trkpt lat="42.0548100" lon="-7.1480830">
        <ele>948.8</ele>
        <time>2019-08-17T08:41:13Z</time>
      </trkpt>
      <trkpt lat="42.0547280" lon="-7.1480970">
        <ele>949.2</ele>
        <time>2019-08-17T08:41:14Z</time>
      </trkpt>
      <trkpt lat="42.0546960" lon="-7.1481030">
        <ele>949.2</ele>
        <time>2019-08-17T08:41:15Z</time>
      </trkpt>
      <trkpt lat="42.0546630" lon="-7.1481090">
        <ele>949.3</ele>
        <time>2019-08-17T08:41:16Z</time>
      </trkpt>
      <trkpt lat="42.0546140" lon="-7.1481190">
        <ele>949.5</ele>
        <time>2019-08-17T08:41:17Z</time>
      </trkpt>
      <trkpt lat="42.0545640" lon="-7.1481300">
        <ele>949.5</ele>
        <time>2019-08-17T08:41:18Z</time>
      </trkpt>
      <trkpt lat="42.0545150" lon="-7.1481400">
        <ele>949.4</ele>
        <time>2019-08-17T08:41:19Z</time>
      </trkpt>
      <trkpt lat="42.0544650" lon="-7.1481500">
        <ele>949.4</ele>
        <time>2019-08-17T08:41:20Z</time>
      </trkpt>
      <trkpt lat="42.0544160" lon="-7.1481600">
        <ele>949.3</ele>
        <time>2019-08-17T08:41:21Z</time>
      </trkpt>
      <trkpt lat="42.0543660" lon="-7.1481700">
        <ele>949.2</ele>
        <time>2019-08-17T08:41:22Z</time>
      </trkpt>
      <trkpt lat="42.0543170" lon="-7.1481810">
        <ele>949.2</ele>
        <time>2019-08-17T08:41:23Z</time>
      </trkpt>
      <trkpt lat="42.0542670" lon="-7.1481920">
        <ele>949.1</ele>
        <time>2019-08-17T08:41:24Z</time>
      </trkpt>
      <trkpt lat="42.0542180" lon="-7.1482030">
        <ele>949.1</ele>
        <time>2019-08-17T08:41:25Z</time>
      </trkpt>
      <trkpt lat="42.0541690" lon="-7.1482160">
        <ele>949.0</ele>
        <time>2019-08-17T08:41:26Z</time>
      </trkpt>
      <trkpt lat="42.0541200" lon="-7.1482310">
        <ele>948.9</ele>
        <time>2019-08-17T08:41:27Z</time>
      </trkpt>
      <trkpt lat="42.0540710" lon="-7.1482460">
        <ele>948.8</ele>
        <time>2019-08-17T08:41:28Z</time>
      </trkpt>
      <trkpt lat="42.0540220" lon="-7.1482640">
        <ele>948.7</ele>
        <time>2019-08-17T08:41:29Z</time>
      </trkpt>
      <trkpt lat="42.0539730" lon="-7.1482840">
        <ele>948.6</ele>
        <time>2019-08-17T08:41:30Z</time>
      </trkpt>
      <trkpt lat="42.0539250" lon="-7.1483070">
        <ele>948.6</ele>
        <time>2019-08-17T08:41:31Z</time>
      </trkpt>
      <trkpt lat="42.0538760" lon="-7.1483320">
        <ele>948.9</ele>
        <time>2019-08-17T08:41:32Z</time>
      </trkpt>
      <trkpt lat="42.0538280" lon="-7.1483600">
        <ele>949.1</ele>
        <time>2019-08-17T08:41:33Z</time>
      </trkpt>
      <trkpt lat="42.0537800" lon="-7.1483920">
        <ele>949.4</ele>
        <time>2019-08-17T08:41:34Z</time>
      </trkpt>
      <trkpt lat="42.0537320" lon="-7.1484270">
        <ele>949.7</ele>
        <time>2019-08-17T08:41:35Z</time>
      </trkpt>
      <trkpt lat="42.0536840" lon="-7.1484650">
        <ele>949.9</ele>
        <time>2019-08-17T08:41:36Z</time>
      </trkpt>
      <trkpt lat="42.0536360" lon="-7.1485080">
        <ele>950.2</ele>
        <time>2019-08-17T08:41:37Z</time>
      </trkpt>
      <trkpt lat="42.0535880" lon="-7.1485550">
        <ele>950.2</ele>
        <time>2019-08-17T08:41:38Z</time>
      </trkpt>
      <trkpt lat="42.0535400" lon="-7.1486060">
        <ele>950.2</ele>
        <time>2019-08-17T08:41:39Z</time>
      </trkpt>
      <trkpt lat="42.0534920" lon="-7.1486620">
        <ele>950.3</ele>
        <time>2019-08-17T08:41:40Z</time>
      </trkpt>
      <trkpt lat="42.0534450" lon="-7.1487220">
        <ele>950.3</ele>
        <time>2019-08-17T08:41:41Z</time>
      </trkpt>
      <trkpt lat="42.0533980" lon="-7.1487880">
        <ele>950.2</ele>
        <time>2019-08-17T08:41:42Z</time>
      </trkpt>
      <trkpt lat="42.0533520" lon="-7.1488580">
        <ele>950.2</ele>
        <time>2019-08-17T08:41:43Z</time>
      </trkpt>
      <trkpt lat="42.0533080" lon="-7.1489320">
        <ele>950.2</ele>
        <time>2019-08-17T08:41:44Z</time>
      </trkpt>
      <trkpt lat="42.0532670" lon="-7.1490110">
        <ele>950.1</ele>
        <time>2019-08-17T08:41:45Z</time>
      </trkpt>
      <trkpt lat="42.0532300" lon="-7.1490970">
        <ele>950.1</ele>
        <time>2019-08-17T08:41:46Z</time>
      </trkpt>
      <trkpt lat="42.0531930" lon="-7.1491820">
        <ele>950.0</ele>
        <time>2019-08-17T08:41:47Z</time>
      </trkpt>
      <trkpt lat="42.0531620" lon="-7.1492740">
        <ele>950.0</ele>
        <time>2019-08-17T08:41:48Z</time>
      </trkpt>
      <trkpt lat="42.0531350" lon="-7.1493690">
        <ele>949.9</ele>
        <time>2019-08-17T08:41:49Z</time>
      </trkpt>
      <trkpt lat="42.0531110" lon="-7.1494670">
        <ele>949.8</ele>
        <time>2019-08-17T08:41:50Z</time>
      </trkpt>
      <trkpt lat="42.0530900" lon="-7.1495680">
        <ele>949.6</ele>
        <time>2019-08-17T08:41:51Z</time>
      </trkpt>
      <trkpt lat="42.0530720" lon="-7.1496720">
        <ele>949.5</ele>
        <time>2019-08-17T08:41:52Z</time>
      </trkpt>
      <trkpt lat="42.0530560" lon="-7.1497780">
        <ele>949.3</ele>
        <time>2019-08-17T08:41:53Z</time>
      </trkpt>
      <trkpt lat="42.0530420" lon="-7.1498850">
        <ele>949.0</ele>
        <time>2019-08-17T08:41:54Z</time>
      </trkpt>
      <trkpt lat="42.0530290" lon="-7.1499930">
        <ele>948.8</ele>
        <time>2019-08-17T08:41:55Z</time>
      </trkpt>
      <trkpt lat="42.0530180" lon="-7.1501020">
        <ele>948.5</ele>
        <time>2019-08-17T08:41:56Z</time>
      </trkpt>
      <trkpt lat="42.0530070" lon="-7.1502110">
        <ele>948.3</ele>
        <time>2019-08-17T08:41:57Z</time>
      </trkpt>
      <trkpt lat="42.0529970" lon="-7.1503200">
        <ele>948.1</ele>
        <time>2019-08-17T08:41:58Z</time>
      </trkpt>
      <trkpt lat="42.0529870" lon="-7.1504280">
        <ele>947.9</ele>
        <time>2019-08-17T08:41:59Z</time>
      </trkpt>
      <trkpt lat="42.0529760" lon="-7.1505350">
        <ele>947.8</ele>
        <time>2019-08-17T08:42:00Z</time>
      </trkpt>
      <trkpt lat="42.0529650" lon="-7.1506410">
        <ele>947.6</ele>
        <time>2019-08-17T08:42:01Z</time>
      </trkpt>
      <trkpt lat="42.0529530" lon="-7.1507450">
        <ele>947.4</ele>
        <time>2019-08-17T08:42:02Z</time>
      </trkpt>
      <trkpt lat="42.0529380" lon="-7.1508470">
        <ele>947.3</ele>
        <time>2019-08-17T08:42:03Z</time>
      </trkpt>
      <trkpt lat="42.0529210" lon="-7.1509490">
        <ele>947.4</ele>
        <time>2019-08-17T08:42:04Z</time>
      </trkpt>
      <trkpt lat="42.0529010" lon="-7.1510490">
        <ele>947.3</ele>
        <time>2019-08-17T08:42:05Z</time>
      </trkpt>
      <trkpt lat="42.0528780" lon="-7.1511470">
        <ele>947.5</ele>
        <time>2019-08-17T08:42:06Z</time>
      </trkpt>
      <trkpt lat="42.0528500" lon="-7.1512440">
        <ele>947.5</ele>
        <time>2019-08-17T08:42:07Z</time>
      </trkpt>
      <trkpt lat="42.0528170" lon="-7.1513400">
        <ele>947.3</ele>
        <time>2019-08-17T08:42:08Z</time>
      </trkpt>
      <trkpt lat="42.0527810" lon="-7.1514350">
        <ele>947.2</ele>
        <time>2019-08-17T08:42:09Z</time>
      </trkpt>
      <trkpt lat="42.0527410" lon="-7.1515280">
        <ele>947.2</ele>
        <time>2019-08-17T08:42:10Z</time>
      </trkpt>
      <trkpt lat="42.0526990" lon="-7.1516200">
        <ele>947.3</ele>
        <time>2019-08-17T08:42:11Z</time>
      </trkpt>
      <trkpt lat="42.0526250" lon="-7.1517700">
        <ele>947.1</ele>
        <time>2019-08-17T08:42:12Z</time>
      </trkpt>
      <trkpt lat="42.0525950" lon="-7.1518290">
        <ele>947.0</ele>
        <time>2019-08-17T08:42:13Z</time>
      </trkpt>
      <trkpt lat="42.0525650" lon="-7.1518880">
        <ele>946.8</ele>
        <time>2019-08-17T08:42:14Z</time>
      </trkpt>
      <trkpt lat="42.0525200" lon="-7.1519750">
        <ele>946.6</ele>
        <time>2019-08-17T08:42:15Z</time>
      </trkpt>
      <trkpt lat="42.0524750" lon="-7.1520600">
        <ele>946.4</ele>
        <time>2019-08-17T08:42:16Z</time>
      </trkpt>
      <trkpt lat="42.0524020" lon="-7.1522000">
        <ele>946.1</ele>
        <time>2019-08-17T08:42:17Z</time>
      </trkpt>
      <trkpt lat="42.0523740" lon="-7.1522560">
        <ele>946.0</ele>
        <time>2019-08-17T08:42:18Z</time>
      </trkpt>
      <trkpt lat="42.0523450" lon="-7.1523110">
        <ele>945.9</ele>
        <time>2019-08-17T08:42:19Z</time>
      </trkpt>
      <trkpt lat="42.0523020" lon="-7.1523940">
        <ele>945.7</ele>
        <time>2019-08-17T08:42:20Z</time>
      </trkpt>
      <trkpt lat="42.0522600" lon="-7.1524760">
        <ele>945.5</ele>
        <time>2019-08-17T08:42:21Z</time>
      </trkpt>
      <trkpt lat="42.0522180" lon="-7.1525580">
        <ele>945.3</ele>
        <time>2019-08-17T08:42:22Z</time>
      </trkpt>
      <trkpt lat="42.0521770" lon="-7.1526410">
        <ele>945.2</ele>
        <time>2019-08-17T08:42:23Z</time>
      </trkpt>
      <trkpt lat="42.0521360" lon="-7.1527230">
        <ele>945.0</ele>
        <time>2019-08-17T08:42:24Z</time>
      </trkpt>
      <trkpt lat="42.0520950" lon="-7.1528060">
        <ele>944.8</ele>
        <time>2019-08-17T08:42:25Z</time>
      </trkpt>
      <trkpt lat="42.0520540" lon="-7.1528900">
        <ele>944.6</ele>
        <time>2019-08-17T08:42:26Z</time>
      </trkpt>
      <trkpt lat="42.0520140" lon="-7.1529750">
        <ele>944.4</ele>
        <time>2019-08-17T08:42:27Z</time>
      </trkpt>
      <trkpt lat="42.0519740" lon="-7.1530600">
        <ele>944.2</ele>
        <time>2019-08-17T08:42:28Z</time>
      </trkpt>
      <trkpt lat="42.0519350" lon="-7.1531470">
        <ele>944.0</ele>
        <time>2019-08-17T08:42:29Z</time>
      </trkpt>
      <trkpt lat="42.0518970" lon="-7.1532340">
        <ele>943.8</ele>
        <time>2019-08-17T08:42:30Z</time>
      </trkpt>
      <trkpt lat="42.0518620" lon="-7.1533230">
        <ele>943.7</ele>
        <time>2019-08-17T08:42:31Z</time>
      </trkpt>
      <trkpt lat="42.0518280" lon="-7.1534130">
        <ele>943.5</ele>
        <time>2019-08-17T08:42:32Z</time>
      </trkpt>
      <trkpt lat="42.0517980" lon="-7.1535040">
        <ele>943.4</ele>
        <time>2019-08-17T08:42:33Z</time>
      </trkpt>
      <trkpt lat="42.0517720" lon="-7.1535970">
        <ele>943.3</ele>
        <time>2019-08-17T08:42:34Z</time>
      </trkpt>
      <trkpt lat="42.0517500" lon="-7.1536900">
        <ele>943.1</ele>
        <time>2019-08-17T08:42:35Z</time>
      </trkpt>
      <trkpt lat="42.0517320" lon="-7.1537850">
        <ele>943.0</ele>
        <time>2019-08-17T08:42:36Z</time>
      </trkpt>
      <trkpt lat="42.0517170" lon="-7.1538820">
        <ele>942.8</ele>
        <time>2019-08-17T08:42:37Z</time>
      </trkpt>
      <trkpt lat="42.0517040" lon="-7.1539790">
        <ele>942.6</ele>
        <time>2019-08-17T08:42:38Z</time>
      </trkpt>
      <trkpt lat="42.0516940" lon="-7.1540780">
        <ele>942.5</ele>
        <time>2019-08-17T08:42:39Z</time>
      </trkpt>
      <trkpt lat="42.0516850" lon="-7.1541780">
        <ele>942.3</ele>
        <time>2019-08-17T08:42:40Z</time>
      </trkpt>
      <trkpt lat="42.0516770" lon="-7.1542790">
        <ele>942.2</ele>
        <time>2019-08-17T08:42:41Z</time>
      </trkpt>
      <trkpt lat="42.0516690" lon="-7.1543820">
        <ele>942.0</ele>
        <time>2019-08-17T08:42:42Z</time>
      </trkpt>
      <trkpt lat="42.0516620" lon="-7.1544860">
        <ele>941.9</ele>
        <time>2019-08-17T08:42:43Z</time>
      </trkpt>
      <trkpt lat="42.0516550" lon="-7.1545910">
        <ele>941.7</ele>
        <time>2019-08-17T08:42:44Z</time>
      </trkpt>
      <trkpt lat="42.0516490" lon="-7.1546970">
        <ele>941.5</ele>
        <time>2019-08-17T08:42:45Z</time>
      </trkpt>
      <trkpt lat="42.0516420" lon="-7.1548030">
        <ele>941.3</ele>
        <time>2019-08-17T08:42:46Z</time>
      </trkpt>
      <trkpt lat="42.0516360" lon="-7.1549100">
        <ele>941.1</ele>
        <time>2019-08-17T08:42:47Z</time>
      </trkpt>
      <trkpt lat="42.0516300" lon="-7.1550180">
        <ele>940.9</ele>
        <time>2019-08-17T08:42:48Z</time>
      </trkpt>
      <trkpt lat="42.0516240" lon="-7.1551260">
        <ele>940.8</ele>
        <time>2019-08-17T08:42:49Z</time>
      </trkpt>
      <trkpt lat="42.0516180" lon="-7.1552340">
        <ele>940.6</ele>
        <time>2019-08-17T08:42:50Z</time>
      </trkpt>
      <trkpt lat="42.0516110" lon="-7.1553420">
        <ele>940.5</ele>
        <time>2019-08-17T08:42:51Z</time>
      </trkpt>
      <trkpt lat="42.0516010" lon="-7.1554490">
        <ele>940.3</ele>
        <time>2019-08-17T08:42:52Z</time>
      </trkpt>
      <trkpt lat="42.0515900" lon="-7.1555550">
        <ele>940.2</ele>
        <time>2019-08-17T08:42:53Z</time>
      </trkpt>
      <trkpt lat="42.0515750" lon="-7.1556600">
        <ele>940.1</ele>
        <time>2019-08-17T08:42:54Z</time>
      </trkpt>
      <trkpt lat="42.0515570" lon="-7.1557640">
        <ele>940.0</ele>
        <time>2019-08-17T08:42:55Z</time>
      </trkpt>
      <trkpt lat="42.0515360" lon="-7.1558650">
        <ele>939.9</ele>
        <time>2019-08-17T08:42:56Z</time>
      </trkpt>
      <trkpt lat="42.0515110" lon="-7.1559650">
        <ele>939.8</ele>
        <time>2019-08-17T08:42:57Z</time>
      </trkpt>
      <trkpt lat="42.0514840" lon="-7.1560630">
        <ele>939.7</ele>
        <time>2019-08-17T08:42:58Z</time>
      </trkpt>
      <trkpt lat="42.0514540" lon="-7.1561580">
        <ele>939.6</ele>
        <time>2019-08-17T08:42:59Z</time>
      </trkpt>
      <trkpt lat="42.0514210" lon="-7.1562520">
        <ele>939.5</ele>
        <time>2019-08-17T08:43:00Z</time>
      </trkpt>
      <trkpt lat="42.0513870" lon="-7.1563430">
        <ele>939.4</ele>
        <time>2019-08-17T08:43:01Z</time>
      </trkpt>
      <trkpt lat="42.0513510" lon="-7.1564310">
        <ele>939.2</ele>
        <time>2019-08-17T08:43:02Z</time>
      </trkpt>
      <trkpt lat="42.0513130" lon="-7.1565170">
        <ele>939.1</ele>
        <time>2019-08-17T08:43:03Z</time>
      </trkpt>
      <trkpt lat="42.0512740" lon="-7.1566010">
        <ele>938.9</ele>
        <time>2019-08-17T08:43:04Z</time>
      </trkpt>
      <trkpt lat="42.0512350" lon="-7.1566840">
        <ele>938.8</ele>
        <time>2019-08-17T08:43:05Z</time>
      </trkpt>
      <trkpt lat="42.0511940" lon="-7.1567650">
        <ele>938.6</ele>
        <time>2019-08-17T08:43:06Z</time>
      </trkpt>
      <trkpt lat="42.0511540" lon="-7.1568460">
        <ele>938.5</ele>
        <time>2019-08-17T08:43:07Z</time>
      </trkpt>
      <trkpt lat="42.0511130" lon="-7.1569260">
        <ele>938.3</ele>
        <time>2019-08-17T08:43:08Z</time>
      </trkpt>
      <trkpt lat="42.0510730" lon="-7.1570060">
        <ele>938.2</ele>
        <time>2019-08-17T08:43:09Z</time>
      </trkpt>
      <trkpt lat="42.0510330" lon="-7.1570860">
        <ele>938.0</ele>
        <time>2019-08-17T08:43:10Z</time>
      </trkpt>
      <trkpt lat="42.0509930" lon="-7.1571640">
        <ele>937.8</ele>
        <time>2019-08-17T08:43:11Z</time>
      </trkpt>
      <trkpt lat="42.0509520" lon="-7.1572410">
        <ele>937.7</ele>
        <time>2019-08-17T08:43:12Z</time>
      </trkpt>
      <trkpt lat="42.0509100" lon="-7.1573160">
        <ele>937.6</ele>
        <time>2019-08-17T08:43:13Z</time>
      </trkpt>
      <trkpt lat="42.0508670" lon="-7.1573890">
        <ele>937.4</ele>
        <time>2019-08-17T08:43:14Z</time>
      </trkpt>
      <trkpt lat="42.0508230" lon="-7.1574590">
        <ele>937.3</ele>
        <time>2019-08-17T08:43:15Z</time>
      </trkpt>
      <trkpt lat="42.0507770" lon="-7.1575260">
        <ele>937.2</ele>
        <time>2019-08-17T08:43:16Z</time>
      </trkpt>
      <trkpt lat="42.0507290" lon="-7.1575890">
        <ele>937.1</ele>
        <time>2019-08-17T08:43:17Z</time>
      </trkpt>
      <trkpt lat="42.0506800" lon="-7.1576490">
        <ele>937.0</ele>
        <time>2019-08-17T08:43:18Z</time>
      </trkpt>
      <trkpt lat="42.0506290" lon="-7.1577040">
        <ele>937.0</ele>
        <time>2019-08-17T08:43:19Z</time>
      </trkpt>
      <trkpt lat="42.0505750" lon="-7.1577550">
        <ele>936.9</ele>
        <time>2019-08-17T08:43:20Z</time>
      </trkpt>
      <trkpt lat="42.0505200" lon="-7.1578020">
        <ele>936.8</ele>
        <time>2019-08-17T08:43:21Z</time>
      </trkpt>
      <trkpt lat="42.0504630" lon="-7.1578440">
        <ele>936.8</ele>
        <time>2019-08-17T08:43:22Z</time>
      </trkpt>
      <trkpt lat="42.0504040" lon="-7.1578810">
        <ele>936.7</ele>
        <time>2019-08-17T08:43:23Z</time>
      </trkpt>
      <trkpt lat="42.0503430" lon="-7.1579130">
        <ele>936.7</ele>
        <time>2019-08-17T08:43:24Z</time>
      </trkpt>
      <trkpt lat="42.0502810" lon="-7.1579390">
        <ele>936.6</ele>
        <time>2019-08-17T08:43:25Z</time>
      </trkpt>
      <trkpt lat="42.0502180" lon="-7.1579610">
        <ele>936.6</ele>
        <time>2019-08-17T08:43:26Z</time>
      </trkpt>
      <trkpt lat="42.0501530" lon="-7.1579780">
        <ele>936.5</ele>
        <time>2019-08-17T08:43:27Z</time>
      </trkpt>
      <trkpt lat="42.0500870" lon="-7.1579870">
        <ele>936.5</ele>
        <time>2019-08-17T08:43:28Z</time>
      </trkpt>
      <trkpt lat="42.0500210" lon="-7.1579960">
        <ele>935.7</ele>
        <time>2019-08-17T08:43:29Z</time>
      </trkpt>
      <trkpt lat="42.0499540" lon="-7.1579970">
        <ele>934.6</ele>
        <time>2019-08-17T08:43:30Z</time>
      </trkpt>
      <trkpt lat="42.0498860" lon="-7.1579920">
        <ele>934.4</ele>
        <time>2019-08-17T08:43:31Z</time>
      </trkpt>
      <trkpt lat="42.0498180" lon="-7.1579820">
        <ele>934.2</ele>
        <time>2019-08-17T08:43:32Z</time>
      </trkpt>
      <trkpt lat="42.0497500" lon="-7.1579670">
        <ele>934.0</ele>
        <time>2019-08-17T08:43:33Z</time>
      </trkpt>
      <trkpt lat="42.0496820" lon="-7.1579460">
        <ele>933.8</ele>
        <time>2019-08-17T08:43:34Z</time>
      </trkpt>
      <trkpt lat="42.0496140" lon="-7.1579200">
        <ele>933.7</ele>
        <time>2019-08-17T08:43:35Z</time>
      </trkpt>
      <trkpt lat="42.0495460" lon="-7.1578890">
        <ele>933.6</ele>
        <time>2019-08-17T08:43:36Z</time>
      </trkpt>
      <trkpt lat="42.0494770" lon="-7.1578540">
        <ele>933.5</ele>
        <time>2019-08-17T08:43:37Z</time>
      </trkpt>
      <trkpt lat="42.0494080" lon="-7.1578150">
        <ele>933.4</ele>
        <time>2019-08-17T08:43:38Z</time>
      </trkpt>
      <trkpt lat="42.0493370" lon="-7.1577740">
        <ele>933.3</ele>
        <time>2019-08-17T08:43:39Z</time>
      </trkpt>
      <trkpt lat="42.0492640" lon="-7.1577310">
        <ele>933.1</ele>
        <time>2019-08-17T08:43:40Z</time>
      </trkpt>
      <trkpt lat="42.0491890" lon="-7.1576880">
        <ele>933.0</ele>
        <time>2019-08-17T08:43:41Z</time>
      </trkpt>
      <trkpt lat="42.0491110" lon="-7.1576440">
        <ele>932.7</ele>
        <time>2019-08-17T08:43:42Z</time>
      </trkpt>
      <trkpt lat="42.0490320" lon="-7.1575990">
        <ele>932.5</ele>
        <time>2019-08-17T08:43:43Z</time>
      </trkpt>
      <trkpt lat="42.0489500" lon="-7.1575540">
        <ele>932.2</ele>
        <time>2019-08-17T08:43:44Z</time>
      </trkpt>
      <trkpt lat="42.0488670" lon="-7.1575090">
        <ele>932.0</ele>
        <time>2019-08-17T08:43:45Z</time>
      </trkpt>
      <trkpt lat="42.0487820" lon="-7.1574620">
        <ele>931.6</ele>
        <time>2019-08-17T08:43:46Z</time>
      </trkpt>
      <trkpt lat="42.0486950" lon="-7.1574150">
        <ele>931.3</ele>
        <time>2019-08-17T08:43:47Z</time>
      </trkpt>
      <trkpt lat="42.0486080" lon="-7.1573660">
        <ele>930.9</ele>
        <time>2019-08-17T08:43:48Z</time>
      </trkpt>
      <trkpt lat="42.0485190" lon="-7.1573160">
        <ele>930.3</ele>
        <time>2019-08-17T08:43:49Z</time>
      </trkpt>
      <trkpt lat="42.0484300" lon="-7.1572650">
        <ele>929.8</ele>
        <time>2019-08-17T08:43:50Z</time>
      </trkpt>
      <trkpt lat="42.0483390" lon="-7.1572130">
        <ele>929.3</ele>
        <time>2019-08-17T08:43:51Z</time>
      </trkpt>
      <trkpt lat="42.0482480" lon="-7.1571610">
        <ele>928.7</ele>
        <time>2019-08-17T08:43:52Z</time>
      </trkpt>
      <trkpt lat="42.0481550" lon="-7.1571080">
        <ele>928.3</ele>
        <time>2019-08-17T08:43:53Z</time>
      </trkpt>
      <trkpt lat="42.0480620" lon="-7.1570550">
        <ele>927.8</ele>
        <time>2019-08-17T08:43:54Z</time>
      </trkpt>
      <trkpt lat="42.0479680" lon="-7.1570020">
        <ele>927.4</ele>
        <time>2019-08-17T08:43:55Z</time>
      </trkpt>
      <trkpt lat="42.0478730" lon="-7.1569490">
        <ele>927.0</ele>
        <time>2019-08-17T08:43:56Z</time>
      </trkpt>
      <trkpt lat="42.0477780" lon="-7.1568960">
        <ele>926.6</ele>
        <time>2019-08-17T08:43:57Z</time>
      </trkpt>
      <trkpt lat="42.0476210" lon="-7.1568080">
        <ele>925.8</ele>
        <time>2019-08-17T08:43:58Z</time>
      </trkpt>
      <trkpt lat="42.0475580" lon="-7.1567730">
        <ele>925.6</ele>
        <time>2019-08-17T08:43:59Z</time>
      </trkpt>
      <trkpt lat="42.0474960" lon="-7.1567380">
        <ele>925.3</ele>
        <time>2019-08-17T08:44:00Z</time>
      </trkpt>
      <trkpt lat="42.0474040" lon="-7.1566860">
        <ele>924.9</ele>
        <time>2019-08-17T08:44:01Z</time>
      </trkpt>
      <trkpt lat="42.0473130" lon="-7.1566340">
        <ele>924.5</ele>
        <time>2019-08-17T08:44:02Z</time>
      </trkpt>
      <trkpt lat="42.0471650" lon="-7.1565520">
        <ele>923.8</ele>
        <time>2019-08-17T08:44:03Z</time>
      </trkpt>
      <trkpt lat="42.0471050" lon="-7.1565210">
        <ele>923.5</ele>
        <time>2019-08-17T08:44:04Z</time>
      </trkpt>
      <trkpt lat="42.0470460" lon="-7.1564900">
        <ele>923.3</ele>
        <time>2019-08-17T08:44:05Z</time>
      </trkpt>
      <trkpt lat="42.0469560" lon="-7.1564490">
        <ele>922.9</ele>
        <time>2019-08-17T08:44:06Z</time>
      </trkpt>
      <trkpt lat="42.0468640" lon="-7.1564130">
        <ele>922.5</ele>
        <time>2019-08-17T08:44:07Z</time>
      </trkpt>
      <trkpt lat="42.0467710" lon="-7.1563830">
        <ele>922.1</ele>
        <time>2019-08-17T08:44:08Z</time>
      </trkpt>
      <trkpt lat="42.0466760" lon="-7.1563610">
        <ele>921.7</ele>
        <time>2019-08-17T08:44:09Z</time>
      </trkpt>
      <trkpt lat="42.0465790" lon="-7.1563460">
        <ele>921.3</ele>
        <time>2019-08-17T08:44:10Z</time>
      </trkpt>
      <trkpt lat="42.0464820" lon="-7.1563380">
        <ele>920.9</ele>
        <time>2019-08-17T08:44:11Z</time>
      </trkpt>
      <trkpt lat="42.0463860" lon="-7.1563390">
        <ele>920.8</ele>
        <time>2019-08-17T08:44:12Z</time>
      </trkpt>
      <trkpt lat="42.0462920" lon="-7.1563480">
        <ele>920.7</ele>
        <time>2019-08-17T08:44:13Z</time>
      </trkpt>
      <trkpt lat="42.0462020" lon="-7.1563660">
        <ele>920.5</ele>
        <time>2019-08-17T08:44:14Z</time>
      </trkpt>
      <trkpt lat="42.0461170" lon="-7.1563930">
        <ele>920.4</ele>
        <time>2019-08-17T08:44:15Z</time>
      </trkpt>
      <trkpt lat="42.0460350" lon="-7.1564270">
        <ele>920.3</ele>
        <time>2019-08-17T08:44:16Z</time>
      </trkpt>
      <trkpt lat="42.0459570" lon="-7.1564650">
        <ele>920.2</ele>
        <time>2019-08-17T08:44:17Z</time>
      </trkpt>
      <trkpt lat="42.0458820" lon="-7.1565060">
        <ele>920.1</ele>
        <time>2019-08-17T08:44:18Z</time>
      </trkpt>
      <trkpt lat="42.0458090" lon="-7.1565490">
        <ele>920.0</ele>
        <time>2019-08-17T08:44:19Z</time>
      </trkpt>
      <trkpt lat="42.0457370" lon="-7.1565920">
        <ele>919.7</ele>
        <time>2019-08-17T08:44:20Z</time>
      </trkpt>
      <trkpt lat="42.0456650" lon="-7.1566360">
        <ele>919.4</ele>
        <time>2019-08-17T08:44:21Z</time>
      </trkpt>
      <trkpt lat="42.0455930" lon="-7.1566800">
        <ele>919.1</ele>
        <time>2019-08-17T08:44:22Z</time>
      </trkpt>
      <trkpt lat="42.0455200" lon="-7.1567260">
        <ele>918.8</ele>
        <time>2019-08-17T08:44:23Z</time>
      </trkpt>
      <trkpt lat="42.0454480" lon="-7.1567720">
        <ele>918.6</ele>
        <time>2019-08-17T08:44:24Z</time>
      </trkpt>
      <trkpt lat="42.0453750" lon="-7.1568170">
        <ele>918.3</ele>
        <time>2019-08-17T08:44:25Z</time>
      </trkpt>
      <trkpt lat="42.0453020" lon="-7.1568630">
        <ele>918.1</ele>
        <time>2019-08-17T08:44:26Z</time>
      </trkpt>
      <trkpt lat="42.0452300" lon="-7.1569100">
        <ele>917.9</ele>
        <time>2019-08-17T08:44:27Z</time>
      </trkpt>
      <trkpt lat="42.0451590" lon="-7.1569560">
        <ele>917.7</ele>
        <time>2019-08-17T08:44:28Z</time>
      </trkpt>
      <trkpt lat="42.0450890" lon="-7.1570010">
        <ele>917.5</ele>
        <time>2019-08-17T08:44:29Z</time>
      </trkpt>
      <trkpt lat="42.0450200" lon="-7.1570470">
        <ele>917.3</ele>
        <time>2019-08-17T08:44:30Z</time>
      </trkpt>
      <trkpt lat="42.0449520" lon="-7.1570920">
        <ele>917.2</ele>
        <time>2019-08-17T08:44:31Z</time>
      </trkpt>
      <trkpt lat="42.0448850" lon="-7.1571370">
        <ele>917.0</ele>
        <time>2019-08-17T08:44:32Z</time>
      </trkpt>
      <trkpt lat="42.0448200" lon="-7.1571810">
        <ele>916.9</ele>
        <time>2019-08-17T08:44:33Z</time>
      </trkpt>
      <trkpt lat="42.0447560" lon="-7.1572250">
        <ele>916.7</ele>
        <time>2019-08-17T08:44:34Z</time>
      </trkpt>
      <trkpt lat="42.0446930" lon="-7.1572680">
        <ele>916.6</ele>
        <time>2019-08-17T08:44:35Z</time>
      </trkpt>
      <trkpt lat="42.0446310" lon="-7.1573110">
        <ele>916.5</ele>
        <time>2019-08-17T08:44:36Z</time>
      </trkpt>
      <trkpt lat="42.0445320" lon="-7.1573810">
        <ele>916.3</ele>
        <time>2019-08-17T08:44:37Z</time>
      </trkpt>
      <trkpt lat="42.0444940" lon="-7.1574080">
        <ele>916.3</ele>
        <time>2019-08-17T08:44:38Z</time>
      </trkpt>
      <trkpt lat="42.0444550" lon="-7.1574360">
        <ele>916.2</ele>
        <time>2019-08-17T08:44:39Z</time>
      </trkpt>
      <trkpt lat="42.0443990" lon="-7.1574770">
        <ele>916.2</ele>
        <time>2019-08-17T08:44:40Z</time>
      </trkpt>
      <trkpt lat="42.0443450" lon="-7.1575170">
        <ele>916.2</ele>
        <time>2019-08-17T08:44:41Z</time>
      </trkpt>
      <trkpt lat="42.0442580" lon="-7.1575810">
        <ele>916.2</ele>
        <time>2019-08-17T08:44:42Z</time>
      </trkpt>
      <trkpt lat="42.0442240" lon="-7.1576070">
        <ele>916.2</ele>
        <time>2019-08-17T08:44:43Z</time>
      </trkpt>
      <trkpt lat="42.0441900" lon="-7.1576320">
        <ele>916.2</ele>
        <time>2019-08-17T08:44:44Z</time>
      </trkpt>
      <trkpt lat="42.0441410" lon="-7.1576690">
        <ele>916.2</ele>
        <time>2019-08-17T08:44:45Z</time>
      </trkpt>
      <trkpt lat="42.0440930" lon="-7.1577060">
        <ele>916.2</ele>
        <time>2019-08-17T08:44:46Z</time>
      </trkpt>
      <trkpt lat="42.0440460" lon="-7.1577430">
        <ele>916.2</ele>
        <time>2019-08-17T08:44:47Z</time>
      </trkpt>
      <trkpt lat="42.0439990" lon="-7.1577790">
        <ele>916.3</ele>
        <time>2019-08-17T08:44:48Z</time>
      </trkpt>
      <trkpt lat="42.0439540" lon="-7.1578160">
        <ele>916.3</ele>
        <time>2019-08-17T08:44:49Z</time>
      </trkpt>
      <trkpt lat="42.0439080" lon="-7.1578520">
        <ele>916.4</ele>
        <time>2019-08-17T08:44:50Z</time>
      </trkpt>
      <trkpt lat="42.0438630" lon="-7.1578880">
        <ele>916.4</ele>
        <time>2019-08-17T08:44:51Z</time>
      </trkpt>
      <trkpt lat="42.0438180" lon="-7.1579240">
        <ele>916.5</ele>
        <time>2019-08-17T08:44:52Z</time>
      </trkpt>
      <trkpt lat="42.0437730" lon="-7.1579600">
        <ele>916.7</ele>
        <time>2019-08-17T08:44:53Z</time>
      </trkpt>
      <trkpt lat="42.0437280" lon="-7.1579960">
        <ele>917.0</ele>
        <time>2019-08-17T08:44:54Z</time>
      </trkpt>
      <trkpt lat="42.0436830" lon="-7.1580330">
        <ele>917.2</ele>
        <time>2019-08-17T08:44:55Z</time>
      </trkpt>
      <trkpt lat="42.0436380" lon="-7.1580700">
        <ele>917.5</ele>
        <time>2019-08-17T08:44:56Z</time>
      </trkpt>
      <trkpt lat="42.0435920" lon="-7.1581070">
        <ele>917.8</ele>
        <time>2019-08-17T08:44:57Z</time>
      </trkpt>
      <trkpt lat="42.0435450" lon="-7.1581450">
        <ele>918.1</ele>
        <time>2019-08-17T08:44:58Z</time>
      </trkpt>
      <trkpt lat="42.0434990" lon="-7.1581840">
        <ele>918.5</ele>
        <time>2019-08-17T08:44:59Z</time>
      </trkpt>
      <trkpt lat="42.0434520" lon="-7.1582220">
        <ele>918.8</ele>
        <time>2019-08-17T08:45:00Z</time>
      </trkpt>
      <trkpt lat="42.0434040" lon="-7.1582620">
        <ele>919.2</ele>
        <time>2019-08-17T08:45:01Z</time>
      </trkpt>
      <trkpt lat="42.0433560" lon="-7.1583020">
        <ele>919.6</ele>
        <time>2019-08-17T08:45:02Z</time>
      </trkpt>
      <trkpt lat="42.0433080" lon="-7.1583420">
        <ele>919.9</ele>
        <time>2019-08-17T08:45:03Z</time>
      </trkpt>
      <trkpt lat="42.0432590" lon="-7.1583830">
        <ele>920.3</ele>
        <time>2019-08-17T08:45:04Z</time>
      </trkpt>
      <trkpt lat="42.0432100" lon="-7.1584250">
        <ele>920.6</ele>
        <time>2019-08-17T08:45:05Z</time>
      </trkpt>
      <trkpt lat="42.0431610" lon="-7.1584670">
        <ele>920.9</ele>
        <time>2019-08-17T08:45:06Z</time>
      </trkpt>
      <trkpt lat="42.0431110" lon="-7.1585100">
        <ele>921.1</ele>
        <time>2019-08-17T08:45:07Z</time>
      </trkpt>
      <trkpt lat="42.0430600" lon="-7.1585540">
        <ele>921.4</ele>
        <time>2019-08-17T08:45:08Z</time>
      </trkpt>
      <trkpt lat="42.0430090" lon="-7.1585990">
        <ele>921.6</ele>
        <time>2019-08-17T08:45:09Z</time>
      </trkpt>
      <trkpt lat="42.0429580" lon="-7.1586440">
        <ele>921.8</ele>
        <time>2019-08-17T08:45:10Z</time>
      </trkpt>
      <trkpt lat="42.0429070" lon="-7.1586890">
        <ele>921.9</ele>
        <time>2019-08-17T08:45:11Z</time>
      </trkpt>
      <trkpt lat="42.0428560" lon="-7.1587350">
        <ele>922.1</ele>
        <time>2019-08-17T08:45:12Z</time>
      </trkpt>
      <trkpt lat="42.0428050" lon="-7.1587810">
        <ele>922.2</ele>
        <time>2019-08-17T08:45:13Z</time>
      </trkpt>
      <trkpt lat="42.0427550" lon="-7.1588270">
        <ele>922.3</ele>
        <time>2019-08-17T08:45:14Z</time>
      </trkpt>
      <trkpt lat="42.0427050" lon="-7.1588720">
        <ele>922.4</ele>
        <time>2019-08-17T08:45:15Z</time>
      </trkpt>
      <trkpt lat="42.0426560" lon="-7.1589160">
        <ele>922.6</ele>
        <time>2019-08-17T08:45:16Z</time>
      </trkpt>
      <trkpt lat="42.0426080" lon="-7.1589610">
        <ele>922.7</ele>
        <time>2019-08-17T08:45:17Z</time>
      </trkpt>
      <trkpt lat="42.0425600" lon="-7.1590050">
        <ele>922.8</ele>
        <time>2019-08-17T08:45:18Z</time>
      </trkpt>
      <trkpt lat="42.0425120" lon="-7.1590480">
        <ele>922.9</ele>
        <time>2019-08-17T08:45:19Z</time>
      </trkpt>
      <trkpt lat="42.0424650" lon="-7.1590920">
        <ele>923.0</ele>
        <time>2019-08-17T08:45:20Z</time>
      </trkpt>
      <trkpt lat="42.0424180" lon="-7.1591350">
        <ele>923.1</ele>
        <time>2019-08-17T08:45:21Z</time>
      </trkpt>
      <trkpt lat="42.0423710" lon="-7.1591790">
        <ele>923.2</ele>
        <time>2019-08-17T08:45:22Z</time>
      </trkpt>
      <trkpt lat="42.0423240" lon="-7.1592230">
        <ele>923.3</ele>
        <time>2019-08-17T08:45:23Z</time>
      </trkpt>
      <trkpt lat="42.0422760" lon="-7.1592670">
        <ele>923.4</ele>
        <time>2019-08-17T08:45:24Z</time>
      </trkpt>
      <trkpt lat="42.0422290" lon="-7.1593110">
        <ele>923.5</ele>
        <time>2019-08-17T08:45:25Z</time>
      </trkpt>
      <trkpt lat="42.0421810" lon="-7.1593550">
        <ele>923.6</ele>
        <time>2019-08-17T08:45:26Z</time>
      </trkpt>
      <trkpt lat="42.0421330" lon="-7.1593990">
        <ele>923.8</ele>
        <time>2019-08-17T08:45:27Z</time>
      </trkpt>
      <trkpt lat="42.0420850" lon="-7.1594440">
        <ele>923.9</ele>
        <time>2019-08-17T08:45:28Z</time>
      </trkpt>
      <trkpt lat="42.0420360" lon="-7.1594880">
        <ele>924.0</ele>
        <time>2019-08-17T08:45:29Z</time>
      </trkpt>
      <trkpt lat="42.0419880" lon="-7.1595330">
        <ele>924.1</ele>
        <time>2019-08-17T08:45:30Z</time>
      </trkpt>
      <trkpt lat="42.0419390" lon="-7.1595780">
        <ele>924.2</ele>
        <time>2019-08-17T08:45:31Z</time>
      </trkpt>
      <trkpt lat="42.0418900" lon="-7.1596220">
        <ele>924.4</ele>
        <time>2019-08-17T08:45:32Z</time>
      </trkpt>
      <trkpt lat="42.0418400" lon="-7.1596670">
        <ele>924.5</ele>
        <time>2019-08-17T08:45:33Z</time>
      </trkpt>
      <trkpt lat="42.0417910" lon="-7.1597120">
        <ele>924.7</ele>
        <time>2019-08-17T08:45:34Z</time>
      </trkpt>
      <trkpt lat="42.0417410" lon="-7.1597560">
        <ele>924.9</ele>
        <time>2019-08-17T08:45:35Z</time>
      </trkpt>
      <trkpt lat="42.0416910" lon="-7.1598010">
        <ele>925.0</ele>
        <time>2019-08-17T08:45:36Z</time>
      </trkpt>
      <trkpt lat="42.0416410" lon="-7.1598460">
        <ele>925.2</ele>
        <time>2019-08-17T08:45:37Z</time>
      </trkpt>
      <trkpt lat="42.0415900" lon="-7.1598910">
        <ele>925.3</ele>
        <time>2019-08-17T08:45:38Z</time>
      </trkpt>
      <trkpt lat="42.0415400" lon="-7.1599360">
        <ele>925.4</ele>
        <time>2019-08-17T08:45:39Z</time>
      </trkpt>
      <trkpt lat="42.0414900" lon="-7.1599820">
        <ele>925.5</ele>
        <time>2019-08-17T08:45:40Z</time>
      </trkpt>
      <trkpt lat="42.0414390" lon="-7.1600280">
        <ele>925.6</ele>
        <time>2019-08-17T08:45:41Z</time>
      </trkpt>
      <trkpt lat="42.0413890" lon="-7.1600740">
        <ele>925.7</ele>
        <time>2019-08-17T08:45:42Z</time>
      </trkpt>
      <trkpt lat="42.0413380" lon="-7.1601220">
        <ele>925.7</ele>
        <time>2019-08-17T08:45:43Z</time>
      </trkpt>
      <trkpt lat="42.0412880" lon="-7.1601700">
        <ele>925.7</ele>
        <time>2019-08-17T08:45:44Z</time>
      </trkpt>
      <trkpt lat="42.0412390" lon="-7.1602200">
        <ele>925.8</ele>
        <time>2019-08-17T08:45:45Z</time>
      </trkpt>
      <trkpt lat="42.0411890" lon="-7.1602700">
        <ele>925.8</ele>
        <time>2019-08-17T08:45:46Z</time>
      </trkpt>
      <trkpt lat="42.0411400" lon="-7.1603220">
        <ele>925.9</ele>
        <time>2019-08-17T08:45:47Z</time>
      </trkpt>
      <trkpt lat="42.0410910" lon="-7.1603750">
        <ele>925.9</ele>
        <time>2019-08-17T08:45:48Z</time>
      </trkpt>
      <trkpt lat="42.0410430" lon="-7.1604300">
        <ele>925.9</ele>
        <time>2019-08-17T08:45:49Z</time>
      </trkpt>
      <trkpt lat="42.0409950" lon="-7.1604860">
        <ele>926.0</ele>
        <time>2019-08-17T08:45:50Z</time>
      </trkpt>
      <trkpt lat="42.0409480" lon="-7.1605430">
        <ele>926.0</ele>
        <time>2019-08-17T08:45:51Z</time>
      </trkpt>
      <trkpt lat="42.0409020" lon="-7.1606030">
        <ele>926.0</ele>
        <time>2019-08-17T08:45:52Z</time>
      </trkpt>
      <trkpt lat="42.0408560" lon="-7.1606640">
        <ele>926.0</ele>
        <time>2019-08-17T08:45:53Z</time>
      </trkpt>
      <trkpt lat="42.0408110" lon="-7.1607270">
        <ele>926.0</ele>
        <time>2019-08-17T08:45:54Z</time>
      </trkpt>
      <trkpt lat="42.0407660" lon="-7.1607910">
        <ele>926.0</ele>
        <time>2019-08-17T08:45:55Z</time>
      </trkpt>
      <trkpt lat="42.0407220" lon="-7.1608580">
        <ele>926.0</ele>
        <time>2019-08-17T08:45:56Z</time>
      </trkpt>
      <trkpt lat="42.0406800" lon="-7.1609270">
        <ele>926.0</ele>
        <time>2019-08-17T08:45:57Z</time>
      </trkpt>
      <trkpt lat="42.0406370" lon="-7.1609980">
        <ele>926.0</ele>
        <time>2019-08-17T08:45:58Z</time>
      </trkpt>
      <trkpt lat="42.0405960" lon="-7.1610710">
        <ele>926.0</ele>
        <time>2019-08-17T08:45:59Z</time>
      </trkpt>
      <trkpt lat="42.0405560" lon="-7.1611460">
        <ele>926.0</ele>
        <time>2019-08-17T08:46:00Z</time>
      </trkpt>
      <trkpt lat="42.0405170" lon="-7.1612240">
        <ele>926.0</ele>
        <time>2019-08-17T08:46:01Z</time>
      </trkpt>
      <trkpt lat="42.0404780" lon="-7.1613030">
        <ele>926.0</ele>
        <time>2019-08-17T08:46:02Z</time>
      </trkpt>
      <trkpt lat="42.0404410" lon="-7.1613860">
        <ele>926.0</ele>
        <time>2019-08-17T08:46:03Z</time>
      </trkpt>
      <trkpt lat="42.0404050" lon="-7.1614700">
        <ele>926.0</ele>
        <time>2019-08-17T08:46:04Z</time>
      </trkpt>
      <trkpt lat="42.0403700" lon="-7.1615560">
        <ele>926.0</ele>
        <time>2019-08-17T08:46:05Z</time>
      </trkpt>
      <trkpt lat="42.0403360" lon="-7.1616440">
        <ele>926.0</ele>
        <time>2019-08-17T08:46:06Z</time>
      </trkpt>
      <trkpt lat="42.0403040" lon="-7.1617330">
        <ele>926.0</ele>
        <time>2019-08-17T08:46:07Z</time>
      </trkpt>
      <trkpt lat="42.0402730" lon="-7.1618230">
        <ele>925.9</ele>
        <time>2019-08-17T08:46:08Z</time>
      </trkpt>
      <trkpt lat="42.0402440" lon="-7.1619130">
        <ele>925.7</ele>
        <time>2019-08-17T08:46:09Z</time>
      </trkpt>
      <trkpt lat="42.0402160" lon="-7.1620040">
        <ele>925.6</ele>
        <time>2019-08-17T08:46:10Z</time>
      </trkpt>
      <trkpt lat="42.0401900" lon="-7.1620950">
        <ele>925.4</ele>
        <time>2019-08-17T08:46:11Z</time>
      </trkpt>
      <trkpt lat="42.0401650" lon="-7.1621870">
        <ele>925.3</ele>
        <time>2019-08-17T08:46:12Z</time>
      </trkpt>
      <trkpt lat="42.0401420" lon="-7.1622780">
        <ele>925.1</ele>
        <time>2019-08-17T08:46:13Z</time>
      </trkpt>
      <trkpt lat="42.0401180" lon="-7.1623700">
        <ele>925.0</ele>
        <time>2019-08-17T08:46:14Z</time>
      </trkpt>
      <trkpt lat="42.0400960" lon="-7.1624620">
        <ele>924.9</ele>
        <time>2019-08-17T08:46:15Z</time>
      </trkpt>
      <trkpt lat="42.0400730" lon="-7.1625530">
        <ele>924.8</ele>
        <time>2019-08-17T08:46:16Z</time>
      </trkpt>
      <trkpt lat="42.0400510" lon="-7.1626450">
        <ele>924.6</ele>
        <time>2019-08-17T08:46:17Z</time>
      </trkpt>
      <trkpt lat="42.0400280" lon="-7.1627360">
        <ele>924.5</ele>
        <time>2019-08-17T08:46:18Z</time>
      </trkpt>
      <trkpt lat="42.0400060" lon="-7.1628270">
        <ele>924.4</ele>
        <time>2019-08-17T08:46:19Z</time>
      </trkpt>
      <trkpt lat="42.0399830" lon="-7.1629190">
        <ele>924.3</ele>
        <time>2019-08-17T08:46:20Z</time>
      </trkpt>
      <trkpt lat="42.0399610" lon="-7.1630110">
        <ele>924.2</ele>
        <time>2019-08-17T08:46:21Z</time>
      </trkpt>
      <trkpt lat="42.0399390" lon="-7.1631040">
        <ele>924.1</ele>
        <time>2019-08-17T08:46:22Z</time>
      </trkpt>
      <trkpt lat="42.0399180" lon="-7.1631970">
        <ele>924.0</ele>
        <time>2019-08-17T08:46:23Z</time>
      </trkpt>
      <trkpt lat="42.0398960" lon="-7.1632910">
        <ele>923.9</ele>
        <time>2019-08-17T08:46:24Z</time>
      </trkpt>
      <trkpt lat="42.0398750" lon="-7.1633860">
        <ele>923.7</ele>
        <time>2019-08-17T08:46:25Z</time>
      </trkpt>
      <trkpt lat="42.0398550" lon="-7.1634810">
        <ele>923.6</ele>
        <time>2019-08-17T08:46:26Z</time>
      </trkpt>
      <trkpt lat="42.0398340" lon="-7.1635760">
        <ele>923.6</ele>
        <time>2019-08-17T08:46:27Z</time>
      </trkpt>
      <trkpt lat="42.0398130" lon="-7.1636710">
        <ele>923.6</ele>
        <time>2019-08-17T08:46:28Z</time>
      </trkpt>
      <trkpt lat="42.0397910" lon="-7.1637660">
        <ele>923.6</ele>
        <time>2019-08-17T08:46:29Z</time>
      </trkpt>
      <trkpt lat="42.0397700" lon="-7.1638600">
        <ele>923.6</ele>
        <time>2019-08-17T08:46:30Z</time>
      </trkpt>
      <trkpt lat="42.0397480" lon="-7.1639530">
        <ele>923.6</ele>
        <time>2019-08-17T08:46:31Z</time>
      </trkpt>
      <trkpt lat="42.0397260" lon="-7.1640450">
        <ele>923.5</ele>
        <time>2019-08-17T08:46:32Z</time>
      </trkpt>
      <trkpt lat="42.0397040" lon="-7.1641350">
        <ele>923.5</ele>
        <time>2019-08-17T08:46:33Z</time>
      </trkpt>
      <trkpt lat="42.0396820" lon="-7.1642240">
        <ele>923.5</ele>
        <time>2019-08-17T08:46:34Z</time>
      </trkpt>
      <trkpt lat="42.0396600" lon="-7.1643110">
        <ele>923.6</ele>
        <time>2019-08-17T08:46:35Z</time>
      </trkpt>
      <trkpt lat="42.0396380" lon="-7.1643950">
        <ele>923.6</ele>
        <time>2019-08-17T08:46:36Z</time>
      </trkpt>
      <trkpt lat="42.0396150" lon="-7.1644770">
        <ele>923.7</ele>
        <time>2019-08-17T08:46:37Z</time>
      </trkpt>
      <trkpt lat="42.0395930" lon="-7.1645580">
        <ele>923.8</ele>
        <time>2019-08-17T08:46:38Z</time>
      </trkpt>
      <trkpt lat="42.0395700" lon="-7.1646370">
        <ele>923.9</ele>
        <time>2019-08-17T08:46:39Z</time>
      </trkpt>
      <trkpt lat="42.0395460" lon="-7.1647160">
        <ele>924.1</ele>
        <time>2019-08-17T08:46:40Z</time>
      </trkpt>
      <trkpt lat="42.0395210" lon="-7.1647960">
        <ele>924.2</ele>
        <time>2019-08-17T08:46:41Z</time>
      </trkpt>
      <trkpt lat="42.0394950" lon="-7.1648780">
        <ele>924.3</ele>
        <time>2019-08-17T08:46:42Z</time>
      </trkpt>
      <trkpt lat="42.0394660" lon="-7.1649620">
        <ele>924.4</ele>
        <time>2019-08-17T08:46:43Z</time>
      </trkpt>
      <trkpt lat="42.0394360" lon="-7.1650500">
        <ele>924.5</ele>
        <time>2019-08-17T08:46:44Z</time>
      </trkpt>
      <trkpt lat="42.0394040" lon="-7.1651400">
        <ele>924.5</ele>
        <time>2019-08-17T08:46:45Z</time>
      </trkpt>
      <trkpt lat="42.0393690" lon="-7.1652330">
        <ele>924.4</ele>
        <time>2019-08-17T08:46:46Z</time>
      </trkpt>
      <trkpt lat="42.0393330" lon="-7.1653290">
        <ele>924.3</ele>
        <time>2019-08-17T08:46:47Z</time>
      </trkpt>
      <trkpt lat="42.0392960" lon="-7.1654270">
        <ele>924.2</ele>
        <time>2019-08-17T08:46:48Z</time>
      </trkpt>
      <trkpt lat="42.0392570" lon="-7.1655260">
        <ele>923.9</ele>
        <time>2019-08-17T08:46:49Z</time>
      </trkpt>
      <trkpt lat="42.0392170" lon="-7.1656280">
        <ele>923.1</ele>
        <time>2019-08-17T08:46:50Z</time>
      </trkpt>
      <trkpt lat="42.0391750" lon="-7.1657300">
        <ele>922.3</ele>
        <time>2019-08-17T08:46:51Z</time>
      </trkpt>
      <trkpt lat="42.0391320" lon="-7.1658330">
        <ele>921.5</ele>
        <time>2019-08-17T08:46:52Z</time>
      </trkpt>
      <trkpt lat="42.0390870" lon="-7.1659370">
        <ele>920.8</ele>
        <time>2019-08-17T08:46:53Z</time>
      </trkpt>
      <trkpt lat="42.0390410" lon="-7.1660420">
        <ele>920.2</ele>
        <time>2019-08-17T08:46:54Z</time>
      </trkpt>
      <trkpt lat="42.0389910" lon="-7.1661470">
        <ele>919.6</ele>
        <time>2019-08-17T08:46:55Z</time>
      </trkpt>
      <trkpt lat="42.0389400" lon="-7.1662530">
        <ele>919.2</ele>
        <time>2019-08-17T08:46:56Z</time>
      </trkpt>
      <trkpt lat="42.0388850" lon="-7.1663580">
        <ele>918.8</ele>
        <time>2019-08-17T08:46:57Z</time>
      </trkpt>
      <trkpt lat="42.0388280" lon="-7.1664630">
        <ele>918.4</ele>
        <time>2019-08-17T08:46:58Z</time>
      </trkpt>
      <trkpt lat="42.0387700" lon="-7.1665680">
        <ele>918.0</ele>
        <time>2019-08-17T08:46:59Z</time>
      </trkpt>
      <trkpt lat="42.0387100" lon="-7.1666710">
        <ele>917.6</ele>
        <time>2019-08-17T08:47:00Z</time>
      </trkpt>
      <trkpt lat="42.0386510" lon="-7.1667720">
        <ele>917.1</ele>
        <time>2019-08-17T08:47:01Z</time>
      </trkpt>
      <trkpt lat="42.0385910" lon="-7.1668710">
        <ele>916.7</ele>
        <time>2019-08-17T08:47:02Z</time>
      </trkpt>
      <trkpt lat="42.0385330" lon="-7.1669680">
        <ele>916.3</ele>
        <time>2019-08-17T08:47:03Z</time>
      </trkpt>
      <trkpt lat="42.0384760" lon="-7.1670610">
        <ele>915.8</ele>
        <time>2019-08-17T08:47:04Z</time>
      </trkpt>
      <trkpt lat="42.0384200" lon="-7.1671530">
        <ele>915.4</ele>
        <time>2019-08-17T08:47:05Z</time>
      </trkpt>
      <trkpt lat="42.0383660" lon="-7.1672430">
        <ele>914.8</ele>
        <time>2019-08-17T08:47:06Z</time>
      </trkpt>
      <trkpt lat="42.0383140" lon="-7.1673330">
        <ele>914.3</ele>
        <time>2019-08-17T08:47:07Z</time>
      </trkpt>
      <trkpt lat="42.0382620" lon="-7.1674220">
        <ele>913.7</ele>
        <time>2019-08-17T08:47:08Z</time>
      </trkpt>
      <trkpt lat="42.0382110" lon="-7.1675120">
        <ele>913.0</ele>
        <time>2019-08-17T08:47:09Z</time>
      </trkpt>
      <trkpt lat="42.0381610" lon="-7.1676040">
        <ele>912.2</ele>
        <time>2019-08-17T08:47:10Z</time>
      </trkpt>
      <trkpt lat="42.0381110" lon="-7.1676980">
        <ele>911.5</ele>
        <time>2019-08-17T08:47:11Z</time>
      </trkpt>
      <trkpt lat="42.0380620" lon="-7.1677920">
        <ele>910.8</ele>
        <time>2019-08-17T08:47:12Z</time>
      </trkpt>
      <trkpt lat="42.0380130" lon="-7.1678870">
        <ele>910.1</ele>
        <time>2019-08-17T08:47:13Z</time>
      </trkpt>
      <trkpt lat="42.0379640" lon="-7.1679800">
        <ele>909.9</ele>
        <time>2019-08-17T08:47:14Z</time>
      </trkpt>
      <trkpt lat="42.0379150" lon="-7.1680710">
        <ele>910.0</ele>
        <time>2019-08-17T08:47:15Z</time>
      </trkpt>
      <trkpt lat="42.0378670" lon="-7.1681610">
        <ele>910.0</ele>
        <time>2019-08-17T08:47:16Z</time>
      </trkpt>
      <trkpt lat="42.0378210" lon="-7.1682510">
        <ele>909.6</ele>
        <time>2019-08-17T08:47:17Z</time>
      </trkpt>
      <trkpt lat="42.0377770" lon="-7.1683450">
        <ele>909.2</ele>
        <time>2019-08-17T08:47:18Z</time>
      </trkpt>
      <trkpt lat="42.0377360" lon="-7.1684400">
        <ele>908.8</ele>
        <time>2019-08-17T08:47:19Z</time>
      </trkpt>
      <trkpt lat="42.0376980" lon="-7.1685360">
        <ele>908.4</ele>
        <time>2019-08-17T08:47:20Z</time>
      </trkpt>
      <trkpt lat="42.0376630" lon="-7.1686340">
        <ele>908.1</ele>
        <time>2019-08-17T08:47:21Z</time>
      </trkpt>
      <trkpt lat="42.0376290" lon="-7.1687320">
        <ele>907.9</ele>
        <time>2019-08-17T08:47:22Z</time>
      </trkpt>
      <trkpt lat="42.0375980" lon="-7.1688290">
        <ele>907.7</ele>
        <time>2019-08-17T08:47:23Z</time>
      </trkpt>
      <trkpt lat="42.0375690" lon="-7.1689260">
        <ele>907.5</ele>
        <time>2019-08-17T08:47:24Z</time>
      </trkpt>
      <trkpt lat="42.0375410" lon="-7.1690220">
        <ele>907.4</ele>
        <time>2019-08-17T08:47:25Z</time>
      </trkpt>
      <trkpt lat="42.0375130" lon="-7.1691170">
        <ele>907.3</ele>
        <time>2019-08-17T08:47:26Z</time>
      </trkpt>
      <trkpt lat="42.0374850" lon="-7.1692120">
        <ele>907.2</ele>
        <time>2019-08-17T08:47:27Z</time>
      </trkpt>
      <trkpt lat="42.0374560" lon="-7.1693060">
        <ele>907.1</ele>
        <time>2019-08-17T08:47:28Z</time>
      </trkpt>
      <trkpt lat="42.0374250" lon="-7.1693990">
        <ele>906.9</ele>
        <time>2019-08-17T08:47:29Z</time>
      </trkpt>
      <trkpt lat="42.0373910" lon="-7.1694920">
        <ele>906.9</ele>
        <time>2019-08-17T08:47:30Z</time>
      </trkpt>
      <trkpt lat="42.0373530" lon="-7.1695850">
        <ele>906.8</ele>
        <time>2019-08-17T08:47:31Z</time>
      </trkpt>
      <trkpt lat="42.0373120" lon="-7.1696760">
        <ele>906.7</ele>
        <time>2019-08-17T08:47:32Z</time>
      </trkpt>
      <trkpt lat="42.0372670" lon="-7.1697640">
        <ele>906.6</ele>
        <time>2019-08-17T08:47:33Z</time>
      </trkpt>
      <trkpt lat="42.0372180" lon="-7.1698500">
        <ele>906.6</ele>
        <time>2019-08-17T08:47:34Z</time>
      </trkpt>
      <trkpt lat="42.0371650" lon="-7.1699300">
        <ele>906.5</ele>
        <time>2019-08-17T08:47:35Z</time>
      </trkpt>
      <trkpt lat="42.0371070" lon="-7.1700060">
        <ele>906.5</ele>
        <time>2019-08-17T08:47:36Z</time>
      </trkpt>
      <trkpt lat="42.0370450" lon="-7.1700750">
        <ele>906.4</ele>
        <time>2019-08-17T08:47:37Z</time>
      </trkpt>
      <trkpt lat="42.0369780" lon="-7.1701370">
        <ele>906.4</ele>
        <time>2019-08-17T08:47:38Z</time>
      </trkpt>
      <trkpt lat="42.0369080" lon="-7.1701930">
        <ele>906.3</ele>
        <time>2019-08-17T08:47:39Z</time>
      </trkpt>
      <trkpt lat="42.0368340" lon="-7.1702430">
        <ele>906.3</ele>
        <time>2019-08-17T08:47:40Z</time>
      </trkpt>
      <trkpt lat="42.0367570" lon="-7.1702880">
        <ele>906.2</ele>
        <time>2019-08-17T08:47:41Z</time>
      </trkpt>
      <trkpt lat="42.0366790" lon="-7.1703300">
        <ele>906.2</ele>
        <time>2019-08-17T08:47:42Z</time>
      </trkpt>
      <trkpt lat="42.0366010" lon="-7.1703680">
        <ele>906.1</ele>
        <time>2019-08-17T08:47:43Z</time>
      </trkpt>
      <trkpt lat="42.0365220" lon="-7.1704050">
        <ele>906.1</ele>
        <time>2019-08-17T08:47:44Z</time>
      </trkpt>
      <trkpt lat="42.0364440" lon="-7.1704400">
        <ele>906.0</ele>
        <time>2019-08-17T08:47:45Z</time>
      </trkpt>
      <trkpt lat="42.0363670" lon="-7.1704750">
        <ele>906.0</ele>
        <time>2019-08-17T08:47:46Z</time>
      </trkpt>
      <trkpt lat="42.0362900" lon="-7.1705100">
        <ele>905.9</ele>
        <time>2019-08-17T08:47:47Z</time>
      </trkpt>
      <trkpt lat="42.0362160" lon="-7.1705480">
        <ele>905.8</ele>
        <time>2019-08-17T08:47:48Z</time>
      </trkpt>
      <trkpt lat="42.0361410" lon="-7.1705860">
        <ele>905.7</ele>
        <time>2019-08-17T08:47:49Z</time>
      </trkpt>
      <trkpt lat="42.0360690" lon="-7.1706280">
        <ele>905.6</ele>
        <time>2019-08-17T08:47:50Z</time>
      </trkpt>
      <trkpt lat="42.0359980" lon="-7.1706740">
        <ele>905.4</ele>
        <time>2019-08-17T08:47:51Z</time>
      </trkpt>
      <trkpt lat="42.0359280" lon="-7.1707250">
        <ele>905.2</ele>
        <time>2019-08-17T08:47:52Z</time>
      </trkpt>
      <trkpt lat="42.0358600" lon="-7.1707780">
        <ele>904.8</ele>
        <time>2019-08-17T08:47:53Z</time>
      </trkpt>
      <trkpt lat="42.0357940" lon="-7.1708360">
        <ele>904.5</ele>
        <time>2019-08-17T08:47:54Z</time>
      </trkpt>
      <trkpt lat="42.0357290" lon="-7.1708970">
        <ele>904.0</ele>
        <time>2019-08-17T08:47:55Z</time>
      </trkpt>
      <trkpt lat="42.0356660" lon="-7.1709620">
        <ele>903.5</ele>
        <time>2019-08-17T08:47:56Z</time>
      </trkpt>
      <trkpt lat="42.0356050" lon="-7.1710310">
        <ele>903.1</ele>
        <time>2019-08-17T08:47:57Z</time>
      </trkpt>
      <trkpt lat="42.0355070" lon="-7.1711540">
        <ele>903.1</ele>
        <time>2019-08-17T08:47:58Z</time>
      </trkpt>
      <trkpt lat="42.0354680" lon="-7.1712060">
        <ele>903.0</ele>
        <time>2019-08-17T08:47:59Z</time>
      </trkpt>
      <trkpt lat="42.0354300" lon="-7.1712570">
        <ele>903.0</ele>
        <time>2019-08-17T08:48:00Z</time>
      </trkpt>
      <trkpt lat="42.0353760" lon="-7.1713390">
        <ele>902.9</ele>
        <time>2019-08-17T08:48:01Z</time>
      </trkpt>
      <trkpt lat="42.0353230" lon="-7.1714240">
        <ele>902.8</ele>
        <time>2019-08-17T08:48:02Z</time>
      </trkpt>
      <trkpt lat="42.0352400" lon="-7.1715740">
        <ele>902.7</ele>
        <time>2019-08-17T08:48:03Z</time>
      </trkpt>
      <trkpt lat="42.0352080" lon="-7.1716350">
        <ele>902.6</ele>
        <time>2019-08-17T08:48:04Z</time>
      </trkpt>
      <trkpt lat="42.0351760" lon="-7.1716970">
        <ele>902.5</ele>
        <time>2019-08-17T08:48:05Z</time>
      </trkpt>
      <trkpt lat="42.0351310" lon="-7.1717940">
        <ele>902.4</ele>
        <time>2019-08-17T08:48:06Z</time>
      </trkpt>
      <trkpt lat="42.0350880" lon="-7.1718930">
        <ele>902.3</ele>
        <time>2019-08-17T08:48:07Z</time>
      </trkpt>
      <trkpt lat="42.0350470" lon="-7.1719940">
        <ele>902.2</ele>
        <time>2019-08-17T08:48:08Z</time>
      </trkpt>
      <trkpt lat="42.0350090" lon="-7.1720970">
        <ele>902.1</ele>
        <time>2019-08-17T08:48:09Z</time>
      </trkpt>
      <trkpt lat="42.0349740" lon="-7.1722030">
        <ele>902.0</ele>
        <time>2019-08-17T08:48:10Z</time>
      </trkpt>
      <trkpt lat="42.0349410" lon="-7.1723090">
        <ele>902.0</ele>
        <time>2019-08-17T08:48:11Z</time>
      </trkpt>
      <trkpt lat="42.0349110" lon="-7.1724170">
        <ele>902.0</ele>
        <time>2019-08-17T08:48:12Z</time>
      </trkpt>
      <trkpt lat="42.0348840" lon="-7.1725250">
        <ele>902.0</ele>
        <time>2019-08-17T08:48:13Z</time>
      </trkpt>
      <trkpt lat="42.0348590" lon="-7.1726340">
        <ele>902.1</ele>
        <time>2019-08-17T08:48:14Z</time>
      </trkpt>
      <trkpt lat="42.0348360" lon="-7.1727410">
        <ele>902.2</ele>
        <time>2019-08-17T08:48:15Z</time>
      </trkpt>
      <trkpt lat="42.0348140" lon="-7.1728480">
        <ele>902.2</ele>
        <time>2019-08-17T08:48:16Z</time>
      </trkpt>
      <trkpt lat="42.0347920" lon="-7.1729520">
        <ele>902.2</ele>
        <time>2019-08-17T08:48:17Z</time>
      </trkpt>
      <trkpt lat="42.0347710" lon="-7.1730530">
        <ele>902.2</ele>
        <time>2019-08-17T08:48:18Z</time>
      </trkpt>
      <trkpt lat="42.0347500" lon="-7.1731530">
        <ele>902.1</ele>
        <time>2019-08-17T08:48:19Z</time>
      </trkpt>
      <trkpt lat="42.0347290" lon="-7.1732510">
        <ele>902.0</ele>
        <time>2019-08-17T08:48:20Z</time>
      </trkpt>
      <trkpt lat="42.0347080" lon="-7.1733470">
        <ele>901.9</ele>
        <time>2019-08-17T08:48:21Z</time>
      </trkpt>
      <trkpt lat="42.0346880" lon="-7.1734440">
        <ele>901.8</ele>
        <time>2019-08-17T08:48:22Z</time>
      </trkpt>
      <trkpt lat="42.0346680" lon="-7.1735400">
        <ele>901.7</ele>
        <time>2019-08-17T08:48:23Z</time>
      </trkpt>
      <trkpt lat="42.0346470" lon="-7.1736370">
        <ele>901.7</ele>
        <time>2019-08-17T08:48:24Z</time>
      </trkpt>
      <trkpt lat="42.0346270" lon="-7.1737350">
        <ele>901.7</ele>
        <time>2019-08-17T08:48:25Z</time>
      </trkpt>
      <trkpt lat="42.0346070" lon="-7.1738350">
        <ele>901.7</ele>
        <time>2019-08-17T08:48:26Z</time>
      </trkpt>
      <trkpt lat="42.0345890" lon="-7.1739350">
        <ele>901.7</ele>
        <time>2019-08-17T08:48:27Z</time>
      </trkpt>
      <trkpt lat="42.0345720" lon="-7.1740370">
        <ele>901.8</ele>
        <time>2019-08-17T08:48:28Z</time>
      </trkpt>
      <trkpt lat="42.0345580" lon="-7.1741390">
        <ele>901.8</ele>
        <time>2019-08-17T08:48:29Z</time>
      </trkpt>
      <trkpt lat="42.0345460" lon="-7.1742420">
        <ele>901.8</ele>
        <time>2019-08-17T08:48:30Z</time>
      </trkpt>
      <trkpt lat="42.0345380" lon="-7.1743460">
        <ele>901.7</ele>
        <time>2019-08-17T08:48:31Z</time>
      </trkpt>
      <trkpt lat="42.0345330" lon="-7.1744500">
        <ele>901.6</ele>
        <time>2019-08-17T08:48:32Z</time>
      </trkpt>
      <trkpt lat="42.0345320" lon="-7.1745550">
        <ele>901.4</ele>
        <time>2019-08-17T08:48:33Z</time>
      </trkpt>
      <trkpt lat="42.0345340" lon="-7.1746610">
        <ele>901.2</ele>
        <time>2019-08-17T08:48:34Z</time>
      </trkpt>
      <trkpt lat="42.0345390" lon="-7.1747660">
        <ele>901.0</ele>
        <time>2019-08-17T08:48:35Z</time>
      </trkpt>
      <trkpt lat="42.0345470" lon="-7.1748720">
        <ele>900.7</ele>
        <time>2019-08-17T08:48:36Z</time>
      </trkpt>
      <trkpt lat="42.0345570" lon="-7.1749780">
        <ele>900.4</ele>
        <time>2019-08-17T08:48:37Z</time>
      </trkpt>
      <trkpt lat="42.0345700" lon="-7.1750830">
        <ele>900.2</ele>
        <time>2019-08-17T08:48:38Z</time>
      </trkpt>
      <trkpt lat="42.0345840" lon="-7.1751890">
        <ele>899.9</ele>
        <time>2019-08-17T08:48:39Z</time>
      </trkpt>
      <trkpt lat="42.0346000" lon="-7.1752940">
        <ele>899.6</ele>
        <time>2019-08-17T08:48:40Z</time>
      </trkpt>
      <trkpt lat="42.0346170" lon="-7.1753990">
        <ele>899.4</ele>
        <time>2019-08-17T08:48:41Z</time>
      </trkpt>
      <trkpt lat="42.0346360" lon="-7.1755040">
        <ele>899.2</ele>
        <time>2019-08-17T08:48:42Z</time>
      </trkpt>
      <trkpt lat="42.0346550" lon="-7.1756070">
        <ele>899.0</ele>
        <time>2019-08-17T08:48:43Z</time>
      </trkpt>
      <trkpt lat="42.0346740" lon="-7.1757100">
        <ele>898.8</ele>
        <time>2019-08-17T08:48:44Z</time>
      </trkpt>
      <trkpt lat="42.0346930" lon="-7.1758130">
        <ele>898.6</ele>
        <time>2019-08-17T08:48:45Z</time>
      </trkpt>
      <trkpt lat="42.0347130" lon="-7.1759140">
        <ele>898.4</ele>
        <time>2019-08-17T08:48:46Z</time>
      </trkpt>
      <trkpt lat="42.0347310" lon="-7.1760160">
        <ele>898.2</ele>
        <time>2019-08-17T08:48:47Z</time>
      </trkpt>
      <trkpt lat="42.0347470" lon="-7.1761170">
        <ele>898.0</ele>
        <time>2019-08-17T08:48:48Z</time>
      </trkpt>
      <trkpt lat="42.0347620" lon="-7.1762190">
        <ele>897.8</ele>
        <time>2019-08-17T08:48:49Z</time>
      </trkpt>
      <trkpt lat="42.0347740" lon="-7.1763210">
        <ele>897.5</ele>
        <time>2019-08-17T08:48:50Z</time>
      </trkpt>
      <trkpt lat="42.0347840" lon="-7.1764240">
        <ele>897.3</ele>
        <time>2019-08-17T08:48:51Z</time>
      </trkpt>
      <trkpt lat="42.0347890" lon="-7.1765270">
        <ele>897.1</ele>
        <time>2019-08-17T08:48:52Z</time>
      </trkpt>
      <trkpt lat="42.0347910" lon="-7.1766320">
        <ele>896.9</ele>
        <time>2019-08-17T08:48:53Z</time>
      </trkpt>
      <trkpt lat="42.0347900" lon="-7.1767370">
        <ele>896.6</ele>
        <time>2019-08-17T08:48:54Z</time>
      </trkpt>
      <trkpt lat="42.0347840" lon="-7.1768430">
        <ele>896.4</ele>
        <time>2019-08-17T08:48:55Z</time>
      </trkpt>
      <trkpt lat="42.0347750" lon="-7.1769490">
        <ele>896.2</ele>
        <time>2019-08-17T08:48:56Z</time>
      </trkpt>
      <trkpt lat="42.0347620" lon="-7.1770560">
        <ele>895.9</ele>
        <time>2019-08-17T08:48:57Z</time>
      </trkpt>
      <trkpt lat="42.0347440" lon="-7.1771620">
        <ele>895.7</ele>
        <time>2019-08-17T08:48:58Z</time>
      </trkpt>
      <trkpt lat="42.0347230" lon="-7.1772680">
        <ele>895.5</ele>
        <time>2019-08-17T08:48:59Z</time>
      </trkpt>
      <trkpt lat="42.0346970" lon="-7.1773740">
        <ele>895.2</ele>
        <time>2019-08-17T08:49:00Z</time>
      </trkpt>
      <trkpt lat="42.0346670" lon="-7.1774780">
        <ele>895.0</ele>
        <time>2019-08-17T08:49:01Z</time>
      </trkpt>
      <trkpt lat="42.0346330" lon="-7.1775800">
        <ele>894.7</ele>
        <time>2019-08-17T08:49:02Z</time>
      </trkpt>
      <trkpt lat="42.0345950" lon="-7.1776810">
        <ele>894.3</ele>
        <time>2019-08-17T08:49:03Z</time>
      </trkpt>
      <trkpt lat="42.0345520" lon="-7.1777780">
        <ele>893.8</ele>
        <time>2019-08-17T08:49:04Z</time>
      </trkpt>
      <trkpt lat="42.0345050" lon="-7.1778720">
        <ele>893.3</ele>
        <time>2019-08-17T08:49:05Z</time>
      </trkpt>
      <trkpt lat="42.0344540" lon="-7.1779630">
        <ele>892.7</ele>
        <time>2019-08-17T08:49:06Z</time>
      </trkpt>
      <trkpt lat="42.0343990" lon="-7.1780500">
        <ele>892.0</ele>
        <time>2019-08-17T08:49:07Z</time>
      </trkpt>
      <trkpt lat="42.0343400" lon="-7.1781330">
        <ele>891.4</ele>
        <time>2019-08-17T08:49:08Z</time>
      </trkpt>
      <trkpt lat="42.0342760" lon="-7.1782130">
        <ele>890.8</ele>
        <time>2019-08-17T08:49:09Z</time>
      </trkpt>
      <trkpt lat="42.0342120" lon="-7.1782920">
        <ele>890.4</ele>
        <time>2019-08-17T08:49:10Z</time>
      </trkpt>
      <trkpt lat="42.0341440" lon="-7.1783680">
        <ele>890.0</ele>
        <time>2019-08-17T08:49:11Z</time>
      </trkpt>
      <trkpt lat="42.0340730" lon="-7.1784420">
        <ele>889.8</ele>
        <time>2019-08-17T08:49:12Z</time>
      </trkpt>
      <trkpt lat="42.0340000" lon="-7.1785140">
        <ele>889.7</ele>
        <time>2019-08-17T08:49:13Z</time>
      </trkpt>
      <trkpt lat="42.0339260" lon="-7.1785850">
        <ele>889.5</ele>
        <time>2019-08-17T08:49:14Z</time>
      </trkpt>
      <trkpt lat="42.0338510" lon="-7.1786540">
        <ele>889.5</ele>
        <time>2019-08-17T08:49:15Z</time>
      </trkpt>
      <trkpt lat="42.0337760" lon="-7.1787220">
        <ele>889.5</ele>
        <time>2019-08-17T08:49:16Z</time>
      </trkpt>
      <trkpt lat="42.0337010" lon="-7.1787890">
        <ele>889.5</ele>
        <time>2019-08-17T08:49:17Z</time>
      </trkpt>
      <trkpt lat="42.0336260" lon="-7.1788550">
        <ele>889.6</ele>
        <time>2019-08-17T08:49:18Z</time>
      </trkpt>
      <trkpt lat="42.0335530" lon="-7.1789200">
        <ele>889.7</ele>
        <time>2019-08-17T08:49:19Z</time>
      </trkpt>
      <trkpt lat="42.0334800" lon="-7.1789850">
        <ele>889.9</ele>
        <time>2019-08-17T08:49:20Z</time>
      </trkpt>
      <trkpt lat="42.0334090" lon="-7.1790490">
        <ele>890.0</ele>
        <time>2019-08-17T08:49:21Z</time>
      </trkpt>
      <trkpt lat="42.0333390" lon="-7.1791120">
        <ele>890.1</ele>
        <time>2019-08-17T08:49:22Z</time>
      </trkpt>
      <trkpt lat="42.0332690" lon="-7.1791740">
        <ele>890.1</ele>
        <time>2019-08-17T08:49:23Z</time>
      </trkpt>
      <trkpt lat="42.0332010" lon="-7.1792360">
        <ele>890.1</ele>
        <time>2019-08-17T08:49:24Z</time>
      </trkpt>
      <trkpt lat="42.0331330" lon="-7.1792970">
        <ele>890.1</ele>
        <time>2019-08-17T08:49:25Z</time>
      </trkpt>
      <trkpt lat="42.0330670" lon="-7.1793570">
        <ele>890.0</ele>
        <time>2019-08-17T08:49:26Z</time>
      </trkpt>
      <trkpt lat="42.0330010" lon="-7.1794160">
        <ele>889.9</ele>
        <time>2019-08-17T08:49:27Z</time>
      </trkpt>
      <trkpt lat="42.0329360" lon="-7.1794740">
        <ele>889.7</ele>
        <time>2019-08-17T08:49:28Z</time>
      </trkpt>
      <trkpt lat="42.0328720" lon="-7.1795320">
        <ele>889.5</ele>
        <time>2019-08-17T08:49:29Z</time>
      </trkpt>
      <trkpt lat="42.0328080" lon="-7.1795890">
        <ele>889.3</ele>
        <time>2019-08-17T08:49:30Z</time>
      </trkpt>
      <trkpt lat="42.0327040" lon="-7.1796820">
        <ele>889.1</ele>
        <time>2019-08-17T08:49:31Z</time>
      </trkpt>
      <trkpt lat="42.0326630" lon="-7.1797180">
        <ele>889.0</ele>
        <time>2019-08-17T08:49:32Z</time>
      </trkpt>
      <trkpt lat="42.0326220" lon="-7.1797550">
        <ele>889.0</ele>
        <time>2019-08-17T08:49:33Z</time>
      </trkpt>
      <trkpt lat="42.0325610" lon="-7.1798090">
        <ele>889.0</ele>
        <time>2019-08-17T08:49:34Z</time>
      </trkpt>
      <trkpt lat="42.0325000" lon="-7.1798620">
        <ele>889.0</ele>
        <time>2019-08-17T08:49:35Z</time>
      </trkpt>
      <trkpt lat="42.0324020" lon="-7.1799500">
        <ele>889.2</ele>
        <time>2019-08-17T08:49:36Z</time>
      </trkpt>
      <trkpt lat="42.0323620" lon="-7.1799840">
        <ele>889.3</ele>
        <time>2019-08-17T08:49:37Z</time>
      </trkpt>
      <trkpt lat="42.0323230" lon="-7.1800190">
        <ele>889.4</ele>
        <time>2019-08-17T08:49:38Z</time>
      </trkpt>
      <trkpt lat="42.0322650" lon="-7.1800710">
        <ele>889.6</ele>
        <time>2019-08-17T08:49:39Z</time>
      </trkpt>
      <trkpt lat="42.0322070" lon="-7.1801210">
        <ele>889.8</ele>
        <time>2019-08-17T08:49:40Z</time>
      </trkpt>
      <trkpt lat="42.0321500" lon="-7.1801710">
        <ele>889.7</ele>
        <time>2019-08-17T08:49:41Z</time>
      </trkpt>
      <trkpt lat="42.0320930" lon="-7.1802200">
        <ele>889.5</ele>
        <time>2019-08-17T08:49:42Z</time>
      </trkpt>
      <trkpt lat="42.0320360" lon="-7.1802680">
        <ele>889.4</ele>
        <time>2019-08-17T08:49:43Z</time>
      </trkpt>
      <trkpt lat="42.0319800" lon="-7.1803150">
        <ele>889.2</ele>
        <time>2019-08-17T08:49:44Z</time>
      </trkpt>
      <trkpt lat="42.0319240" lon="-7.1803610">
        <ele>889.1</ele>
        <time>2019-08-17T08:49:45Z</time>
      </trkpt>
      <trkpt lat="42.0318680" lon="-7.1804050">
        <ele>888.9</ele>
        <time>2019-08-17T08:49:46Z</time>
      </trkpt>
      <trkpt lat="42.0318130" lon="-7.1804470">
        <ele>888.8</ele>
        <time>2019-08-17T08:49:47Z</time>
      </trkpt>
      <trkpt lat="42.0317570" lon="-7.1804880">
        <ele>888.6</ele>
        <time>2019-08-17T08:49:48Z</time>
      </trkpt>
      <trkpt lat="42.0317020" lon="-7.1805270">
        <ele>888.4</ele>
        <time>2019-08-17T08:49:49Z</time>
      </trkpt>
      <trkpt lat="42.0316460" lon="-7.1805640">
        <ele>888.3</ele>
        <time>2019-08-17T08:49:50Z</time>
      </trkpt>
      <trkpt lat="42.0315910" lon="-7.1805990">
        <ele>888.1</ele>
        <time>2019-08-17T08:49:51Z</time>
      </trkpt>
      <trkpt lat="42.0315360" lon="-7.1806320">
        <ele>887.9</ele>
        <time>2019-08-17T08:49:52Z</time>
      </trkpt>
      <trkpt lat="42.0314810" lon="-7.1806630">
        <ele>887.8</ele>
        <time>2019-08-17T08:49:53Z</time>
      </trkpt>
      <trkpt lat="42.0314250" lon="-7.1806910">
        <ele>887.6</ele>
        <time>2019-08-17T08:49:54Z</time>
      </trkpt>
      <trkpt lat="42.0313690" lon="-7.1807180">
        <ele>887.4</ele>
        <time>2019-08-17T08:49:55Z</time>
      </trkpt>
      <trkpt lat="42.0313140" lon="-7.1807420">
        <ele>887.3</ele>
        <time>2019-08-17T08:49:56Z</time>
      </trkpt>
      <trkpt lat="42.0312570" lon="-7.1807640">
        <ele>887.1</ele>
        <time>2019-08-17T08:49:57Z</time>
      </trkpt>
      <trkpt lat="42.0312010" lon="-7.1807850">
        <ele>886.9</ele>
        <time>2019-08-17T08:49:58Z</time>
      </trkpt>
      <trkpt lat="42.0311440" lon="-7.1808040">
        <ele>886.8</ele>
        <time>2019-08-17T08:49:59Z</time>
      </trkpt>
      <trkpt lat="42.0310860" lon="-7.1808220">
        <ele>886.6</ele>
        <time>2019-08-17T08:50:00Z</time>
      </trkpt>
      <trkpt lat="42.0310280" lon="-7.1808380">
        <ele>886.5</ele>
        <time>2019-08-17T08:50:01Z</time>
      </trkpt>
      <trkpt lat="42.0309700" lon="-7.1808530">
        <ele>886.3</ele>
        <time>2019-08-17T08:50:02Z</time>
      </trkpt>
      <trkpt lat="42.0309110" lon="-7.1808670">
        <ele>886.2</ele>
        <time>2019-08-17T08:50:03Z</time>
      </trkpt>
      <trkpt lat="42.0308510" lon="-7.1808800">
        <ele>886.1</ele>
        <time>2019-08-17T08:50:04Z</time>
      </trkpt>
      <trkpt lat="42.0307900" lon="-7.1808910">
        <ele>885.9</ele>
        <time>2019-08-17T08:50:05Z</time>
      </trkpt>
      <trkpt lat="42.0307290" lon="-7.1809030">
        <ele>885.8</ele>
        <time>2019-08-17T08:50:06Z</time>
      </trkpt>
      <trkpt lat="42.0306660" lon="-7.1809130">
        <ele>885.6</ele>
        <time>2019-08-17T08:50:07Z</time>
      </trkpt>
      <trkpt lat="42.0306030" lon="-7.1809230">
        <ele>885.5</ele>
        <time>2019-08-17T08:50:08Z</time>
      </trkpt>
      <trkpt lat="42.0305400" lon="-7.1809330">
        <ele>885.3</ele>
        <time>2019-08-17T08:50:09Z</time>
      </trkpt>
      <trkpt lat="42.0304760" lon="-7.1809420">
        <ele>885.2</ele>
        <time>2019-08-17T08:50:10Z</time>
      </trkpt>
      <trkpt lat="42.0304110" lon="-7.1809510">
        <ele>885.0</ele>
        <time>2019-08-17T08:50:11Z</time>
      </trkpt>
      <trkpt lat="42.0303460" lon="-7.1809590">
        <ele>884.9</ele>
        <time>2019-08-17T08:50:12Z</time>
      </trkpt>
      <trkpt lat="42.0302810" lon="-7.1809680">
        <ele>884.7</ele>
        <time>2019-08-17T08:50:13Z</time>
      </trkpt>
      <trkpt lat="42.0302160" lon="-7.1809770">
        <ele>884.6</ele>
        <time>2019-08-17T08:50:14Z</time>
      </trkpt>
      <trkpt lat="42.0301500" lon="-7.1809860">
        <ele>884.5</ele>
        <time>2019-08-17T08:50:15Z</time>
      </trkpt>
      <trkpt lat="42.0300850" lon="-7.1809950">
        <ele>884.3</ele>
        <time>2019-08-17T08:50:16Z</time>
      </trkpt>
      <trkpt lat="42.0300190" lon="-7.1810040">
        <ele>884.6</ele>
        <time>2019-08-17T08:50:17Z</time>
      </trkpt>
      <trkpt lat="42.0299540" lon="-7.1810140">
        <ele>885.2</ele>
        <time>2019-08-17T08:50:18Z</time>
      </trkpt>
      <trkpt lat="42.0298890" lon="-7.1810240">
        <ele>885.9</ele>
        <time>2019-08-17T08:50:19Z</time>
      </trkpt>
      <trkpt lat="42.0298240" lon="-7.1810350">
        <ele>886.6</ele>
        <time>2019-08-17T08:50:20Z</time>
      </trkpt>
      <trkpt lat="42.0297590" lon="-7.1810470">
        <ele>887.4</ele>
        <time>2019-08-17T08:50:21Z</time>
      </trkpt>
      <trkpt lat="42.0296940" lon="-7.1810590">
        <ele>888.1</ele>
        <time>2019-08-17T08:50:22Z</time>
      </trkpt>
      <trkpt lat="42.0296290" lon="-7.1810710">
        <ele>888.8</ele>
        <time>2019-08-17T08:50:23Z</time>
      </trkpt>
      <trkpt lat="42.0295640" lon="-7.1810840">
        <ele>889.5</ele>
        <time>2019-08-17T08:50:24Z</time>
      </trkpt>
      <trkpt lat="42.0294980" lon="-7.1810970">
        <ele>889.9</ele>
        <time>2019-08-17T08:50:25Z</time>
      </trkpt>
      <trkpt lat="42.0294320" lon="-7.1811090">
        <ele>890.3</ele>
        <time>2019-08-17T08:50:26Z</time>
      </trkpt>
      <trkpt lat="42.0293650" lon="-7.1811220">
        <ele>890.7</ele>
        <time>2019-08-17T08:50:27Z</time>
      </trkpt>
      <trkpt lat="42.0292980" lon="-7.1811340">
        <ele>891.0</ele>
        <time>2019-08-17T08:50:28Z</time>
      </trkpt>
      <trkpt lat="42.0292320" lon="-7.1811470">
        <ele>891.4</ele>
        <time>2019-08-17T08:50:29Z</time>
      </trkpt>
      <trkpt lat="42.0291650" lon="-7.1811600">
        <ele>891.7</ele>
        <time>2019-08-17T08:50:30Z</time>
      </trkpt>
      <trkpt lat="42.0290990" lon="-7.1811740">
        <ele>892.2</ele>
        <time>2019-08-17T08:50:31Z</time>
      </trkpt>
      <trkpt lat="42.0290340" lon="-7.1811890">
        <ele>892.6</ele>
        <time>2019-08-17T08:50:32Z</time>
      </trkpt>
      <trkpt lat="42.0289700" lon="-7.1812050">
        <ele>893.1</ele>
        <time>2019-08-17T08:50:33Z</time>
      </trkpt>
      <trkpt lat="42.0289080" lon="-7.1812220">
        <ele>893.6</ele>
        <time>2019-08-17T08:50:34Z</time>
      </trkpt>
      <trkpt lat="42.0288480" lon="-7.1812400">
        <ele>894.0</ele>
        <time>2019-08-17T08:50:35Z</time>
      </trkpt>
      <trkpt lat="42.0287890" lon="-7.1812610">
        <ele>894.5</ele>
        <time>2019-08-17T08:50:36Z</time>
      </trkpt>
      <trkpt lat="42.0287310" lon="-7.1812840">
        <ele>895.1</ele>
        <time>2019-08-17T08:50:37Z</time>
      </trkpt>
      <trkpt lat="42.0286760" lon="-7.1813100">
        <ele>895.6</ele>
        <time>2019-08-17T08:50:38Z</time>
      </trkpt>
      <trkpt lat="42.0286220" lon="-7.1813390">
        <ele>896.0</ele>
        <time>2019-08-17T08:50:39Z</time>
      </trkpt>
      <trkpt lat="42.0285710" lon="-7.1813710">
        <ele>896.5</ele>
        <time>2019-08-17T08:50:40Z</time>
      </trkpt>
      <trkpt lat="42.0285220" lon="-7.1814060">
        <ele>896.9</ele>
        <time>2019-08-17T08:50:41Z</time>
      </trkpt>
      <trkpt lat="42.0284750" lon="-7.1814440">
        <ele>897.3</ele>
        <time>2019-08-17T08:50:42Z</time>
      </trkpt>
      <trkpt lat="42.0284300" lon="-7.1814840">
        <ele>897.8</ele>
        <time>2019-08-17T08:50:43Z</time>
      </trkpt>
      <trkpt lat="42.0283870" lon="-7.1815260">
        <ele>898.3</ele>
        <time>2019-08-17T08:50:44Z</time>
      </trkpt>
      <trkpt lat="42.0283460" lon="-7.1815710">
        <ele>898.8</ele>
        <time>2019-08-17T08:50:45Z</time>
      </trkpt>
      <trkpt lat="42.0283070" lon="-7.1816170">
        <ele>899.2</ele>
        <time>2019-08-17T08:50:46Z</time>
      </trkpt>
      <trkpt lat="42.0282710" lon="-7.1816640">
        <ele>899.7</ele>
        <time>2019-08-17T08:50:47Z</time>
      </trkpt>
      <trkpt lat="42.0282360" lon="-7.1817120">
        <ele>900.1</ele>
        <time>2019-08-17T08:50:48Z</time>
      </trkpt>
      <trkpt lat="42.0282030" lon="-7.1817620">
        <ele>900.6</ele>
        <time>2019-08-17T08:50:49Z</time>
      </trkpt>
      <trkpt lat="42.0281720" lon="-7.1818120">
        <ele>901.0</ele>
        <time>2019-08-17T08:50:50Z</time>
      </trkpt>
      <trkpt lat="42.0281420" lon="-7.1818620">
        <ele>901.5</ele>
        <time>2019-08-17T08:50:51Z</time>
      </trkpt>
      <trkpt lat="42.0281130" lon="-7.1819140">
        <ele>902.1</ele>
        <time>2019-08-17T08:50:52Z</time>
      </trkpt>
      <trkpt lat="42.0280860" lon="-7.1819650">
        <ele>902.7</ele>
        <time>2019-08-17T08:50:53Z</time>
      </trkpt>
      <trkpt lat="42.0280590" lon="-7.1820160">
        <ele>903.2</ele>
        <time>2019-08-17T08:50:54Z</time>
      </trkpt>
      <trkpt lat="42.0280340" lon="-7.1820670">
        <ele>904.0</ele>
        <time>2019-08-17T08:50:55Z</time>
      </trkpt>
      <trkpt lat="42.0280090" lon="-7.1821170">
        <ele>904.3</ele>
        <time>2019-08-17T08:50:56Z</time>
      </trkpt>
      <trkpt lat="42.0279850" lon="-7.1821670">
        <ele>904.6</ele>
        <time>2019-08-17T08:50:57Z</time>
      </trkpt>
      <trkpt lat="42.0279610" lon="-7.1822150">
        <ele>904.9</ele>
        <time>2019-08-17T08:50:58Z</time>
      </trkpt>
      <trkpt lat="42.0279380" lon="-7.1822630">
        <ele>905.2</ele>
        <time>2019-08-17T08:50:59Z</time>
      </trkpt>
      <trkpt lat="42.0279150" lon="-7.1823100">
        <ele>905.5</ele>
        <time>2019-08-17T08:51:00Z</time>
      </trkpt>
      <trkpt lat="42.0278920" lon="-7.1823550">
        <ele>905.8</ele>
        <time>2019-08-17T08:51:01Z</time>
      </trkpt>
      <trkpt lat="42.0278700" lon="-7.1824000">
        <ele>906.1</ele>
        <time>2019-08-17T08:51:02Z</time>
      </trkpt>
      <trkpt lat="42.0278480" lon="-7.1824440">
        <ele>906.4</ele>
        <time>2019-08-17T08:51:03Z</time>
      </trkpt>
      <trkpt lat="42.0278260" lon="-7.1824870">
        <ele>906.7</ele>
        <time>2019-08-17T08:51:04Z</time>
      </trkpt>
      <trkpt lat="42.0278040" lon="-7.1825290">
        <ele>907.0</ele>
        <time>2019-08-17T08:51:05Z</time>
      </trkpt>
      <trkpt lat="42.0277820" lon="-7.1825710">
        <ele>907.3</ele>
        <time>2019-08-17T08:51:06Z</time>
      </trkpt>
      <trkpt lat="42.0277600" lon="-7.1826120">
        <ele>907.6</ele>
        <time>2019-08-17T08:51:07Z</time>
      </trkpt>
      <trkpt lat="42.0277390" lon="-7.1826520">
        <ele>907.8</ele>
        <time>2019-08-17T08:51:08Z</time>
      </trkpt>
      <trkpt lat="42.0277170" lon="-7.1826920">
        <ele>908.1</ele>
        <time>2019-08-17T08:51:09Z</time>
      </trkpt>
      <trkpt lat="42.0276960" lon="-7.1827320">
        <ele>908.4</ele>
        <time>2019-08-17T08:51:10Z</time>
      </trkpt>
      <trkpt lat="42.0276750" lon="-7.1827710">
        <ele>908.6</ele>
        <time>2019-08-17T08:51:11Z</time>
      </trkpt>
      <trkpt lat="42.0276530" lon="-7.1828090">
        <ele>908.9</ele>
        <time>2019-08-17T08:51:12Z</time>
      </trkpt>
      <trkpt lat="42.0276320" lon="-7.1828480">
        <ele>909.1</ele>
        <time>2019-08-17T08:51:13Z</time>
      </trkpt>
      <trkpt lat="42.0276110" lon="-7.1828860">
        <ele>909.3</ele>
        <time>2019-08-17T08:51:14Z</time>
      </trkpt>
      <trkpt lat="42.0275890" lon="-7.1829240">
        <ele>909.6</ele>
        <time>2019-08-17T08:51:15Z</time>
      </trkpt>
      <trkpt lat="42.0275670" lon="-7.1829610">
        <ele>909.8</ele>
        <time>2019-08-17T08:51:16Z</time>
      </trkpt>
      <trkpt lat="42.0275450" lon="-7.1829990">
        <ele>910.0</ele>
        <time>2019-08-17T08:51:17Z</time>
      </trkpt>
      <trkpt lat="42.0275230" lon="-7.1830360">
        <ele>910.2</ele>
        <time>2019-08-17T08:51:18Z</time>
      </trkpt>
      <trkpt lat="42.0275000" lon="-7.1830730">
        <ele>910.4</ele>
        <time>2019-08-17T08:51:19Z</time>
      </trkpt>
      <trkpt lat="42.0274770" lon="-7.1831100">
        <ele>910.6</ele>
        <time>2019-08-17T08:51:20Z</time>
      </trkpt>
      <trkpt lat="42.0274540" lon="-7.1831470">
        <ele>910.7</ele>
        <time>2019-08-17T08:51:21Z</time>
      </trkpt>
      <trkpt lat="42.0274300" lon="-7.1831840">
        <ele>910.9</ele>
        <time>2019-08-17T08:51:22Z</time>
      </trkpt>
      <trkpt lat="42.0274050" lon="-7.1832200">
        <ele>911.0</ele>
        <time>2019-08-17T08:51:23Z</time>
      </trkpt>
      <trkpt lat="42.0273800" lon="-7.1832570">
        <ele>911.1</ele>
        <time>2019-08-17T08:51:24Z</time>
      </trkpt>
      <trkpt lat="42.0273550" lon="-7.1832940">
        <ele>911.2</ele>
        <time>2019-08-17T08:51:25Z</time>
      </trkpt>
      <trkpt lat="42.0273280" lon="-7.1833310">
        <ele>911.2</ele>
        <time>2019-08-17T08:51:26Z</time>
      </trkpt>
      <trkpt lat="42.0273010" lon="-7.1833680">
        <ele>911.2</ele>
        <time>2019-08-17T08:51:27Z</time>
      </trkpt>
      <trkpt lat="42.0272730" lon="-7.1834050">
        <ele>911.2</ele>
        <time>2019-08-17T08:51:28Z</time>
      </trkpt>
      <trkpt lat="42.0272440" lon="-7.1834420">
        <ele>911.2</ele>
        <time>2019-08-17T08:51:29Z</time>
      </trkpt>
      <trkpt lat="42.0272140" lon="-7.1834800">
        <ele>911.2</ele>
        <time>2019-08-17T08:51:30Z</time>
      </trkpt>
      <trkpt lat="42.0271840" lon="-7.1835190">
        <ele>911.1</ele>
        <time>2019-08-17T08:51:31Z</time>
      </trkpt>
      <trkpt lat="42.0271530" lon="-7.1835580">
        <ele>911.1</ele>
        <time>2019-08-17T08:51:32Z</time>
      </trkpt>
      <trkpt lat="42.0271210" lon="-7.1835980">
        <ele>911.0</ele>
        <time>2019-08-17T08:51:33Z</time>
      </trkpt>
      <trkpt lat="42.0270870" lon="-7.1836380">
        <ele>910.9</ele>
        <time>2019-08-17T08:51:34Z</time>
      </trkpt>
      <trkpt lat="42.0270540" lon="-7.1836800">
        <ele>910.8</ele>
        <time>2019-08-17T08:51:35Z</time>
      </trkpt>
      <trkpt lat="42.0270190" lon="-7.1837230">
        <ele>910.6</ele>
        <time>2019-08-17T08:51:36Z</time>
      </trkpt>
      <trkpt lat="42.0269650" lon="-7.1837890">
        <ele>910.4</ele>
        <time>2019-08-17T08:51:37Z</time>
      </trkpt>
      <trkpt lat="42.0269460" lon="-7.1838110">
        <ele>910.4</ele>
        <time>2019-08-17T08:51:38Z</time>
      </trkpt>
      <trkpt lat="42.0269080" lon="-7.1838580">
        <ele>910.2</ele>
        <time>2019-08-17T08:51:39Z</time>
      </trkpt>
      <trkpt lat="42.0268690" lon="-7.1839060">
        <ele>910.0</ele>
        <time>2019-08-17T08:51:40Z</time>
      </trkpt>
      <trkpt lat="42.0268300" lon="-7.1839550">
        <ele>909.9</ele>
        <time>2019-08-17T08:51:41Z</time>
      </trkpt>
      <trkpt lat="42.0267890" lon="-7.1840050">
        <ele>909.6</ele>
        <time>2019-08-17T08:51:42Z</time>
      </trkpt>
      <trkpt lat="42.0267470" lon="-7.1840570">
        <ele>909.4</ele>
        <time>2019-08-17T08:51:43Z</time>
      </trkpt>
      <trkpt lat="42.0267050" lon="-7.1841090">
        <ele>909.2</ele>
        <time>2019-08-17T08:51:44Z</time>
      </trkpt>
      <trkpt lat="42.0266620" lon="-7.1841630">
        <ele>909.0</ele>
        <time>2019-08-17T08:51:45Z</time>
      </trkpt>
      <trkpt lat="42.0266190" lon="-7.1842170">
        <ele>908.8</ele>
        <time>2019-08-17T08:51:46Z</time>
      </trkpt>
      <trkpt lat="42.0265750" lon="-7.1842720">
        <ele>908.7</ele>
        <time>2019-08-17T08:51:47Z</time>
      </trkpt>
      <trkpt lat="42.0265310" lon="-7.1843280">
        <ele>908.5</ele>
        <time>2019-08-17T08:51:48Z</time>
      </trkpt>
      <trkpt lat="42.0264860" lon="-7.1843840">
        <ele>908.3</ele>
        <time>2019-08-17T08:51:49Z</time>
      </trkpt>
      <trkpt lat="42.0264410" lon="-7.1844410">
        <ele>908.2</ele>
        <time>2019-08-17T08:51:50Z</time>
      </trkpt>
      <trkpt lat="42.0263950" lon="-7.1844970">
        <ele>908.1</ele>
        <time>2019-08-17T08:51:51Z</time>
      </trkpt>
      <trkpt lat="42.0263500" lon="-7.1845550">
        <ele>908.0</ele>
        <time>2019-08-17T08:51:52Z</time>
      </trkpt>
      <trkpt lat="42.0263040" lon="-7.1846120">
        <ele>907.9</ele>
        <time>2019-08-17T08:51:53Z</time>
      </trkpt>
      <trkpt lat="42.0262590" lon="-7.1846690">
        <ele>907.8</ele>
        <time>2019-08-17T08:51:54Z</time>
      </trkpt>
      <trkpt lat="42.0262130" lon="-7.1847270">
        <ele>907.7</ele>
        <time>2019-08-17T08:51:55Z</time>
      </trkpt>
      <trkpt lat="42.0261670" lon="-7.1847850">
        <ele>907.6</ele>
        <time>2019-08-17T08:51:56Z</time>
      </trkpt>
      <trkpt lat="42.0261210" lon="-7.1848430">
        <ele>907.5</ele>
        <time>2019-08-17T08:51:57Z</time>
      </trkpt>
      <trkpt lat="42.0260750" lon="-7.1849010">
        <ele>907.4</ele>
        <time>2019-08-17T08:51:58Z</time>
      </trkpt>
      <trkpt lat="42.0260290" lon="-7.1849590">
        <ele>907.4</ele>
        <time>2019-08-17T08:51:59Z</time>
      </trkpt>
      <trkpt lat="42.0259820" lon="-7.1850180">
        <ele>907.4</ele>
        <time>2019-08-17T08:52:00Z</time>
      </trkpt>
      <trkpt lat="42.0259360" lon="-7.1850770">
        <ele>907.5</ele>
        <time>2019-08-17T08:52:01Z</time>
      </trkpt>
      <trkpt lat="42.0258890" lon="-7.1851360">
        <ele>907.5</ele>
        <time>2019-08-17T08:52:02Z</time>
      </trkpt>
      <trkpt lat="42.0258410" lon="-7.1851950">
        <ele>907.5</ele>
        <time>2019-08-17T08:52:03Z</time>
      </trkpt>
      <trkpt lat="42.0257940" lon="-7.1852550">
        <ele>907.2</ele>
        <time>2019-08-17T08:52:04Z</time>
      </trkpt>
      <trkpt lat="42.0257460" lon="-7.1853150">
        <ele>906.9</ele>
        <time>2019-08-17T08:52:05Z</time>
      </trkpt>
      <trkpt lat="42.0256990" lon="-7.1853750">
        <ele>906.5</ele>
        <time>2019-08-17T08:52:06Z</time>
      </trkpt>
      <trkpt lat="42.0256500" lon="-7.1854360">
        <ele>906.2</ele>
        <time>2019-08-17T08:52:07Z</time>
      </trkpt>
      <trkpt lat="42.0256020" lon="-7.1854970">
        <ele>905.9</ele>
        <time>2019-08-17T08:52:08Z</time>
      </trkpt>
      <trkpt lat="42.0255530" lon="-7.1855580">
        <ele>905.6</ele>
        <time>2019-08-17T08:52:09Z</time>
      </trkpt>
      <trkpt lat="42.0255040" lon="-7.1856200">
        <ele>905.3</ele>
        <time>2019-08-17T08:52:10Z</time>
      </trkpt>
      <trkpt lat="42.0254550" lon="-7.1856820">
        <ele>905.1</ele>
        <time>2019-08-17T08:52:11Z</time>
      </trkpt>
      <trkpt lat="42.0254050" lon="-7.1857440">
        <ele>904.8</ele>
        <time>2019-08-17T08:52:12Z</time>
      </trkpt>
      <trkpt lat="42.0253550" lon="-7.1858070">
        <ele>904.7</ele>
        <time>2019-08-17T08:52:13Z</time>
      </trkpt>
      <trkpt lat="42.0253040" lon="-7.1858710">
        <ele>904.4</ele>
        <time>2019-08-17T08:52:14Z</time>
      </trkpt>
      <trkpt lat="42.0252530" lon="-7.1859350">
        <ele>904.1</ele>
        <time>2019-08-17T08:52:15Z</time>
      </trkpt>
      <trkpt lat="42.0252020" lon="-7.1859990">
        <ele>903.8</ele>
        <time>2019-08-17T08:52:16Z</time>
      </trkpt>
      <trkpt lat="42.0251500" lon="-7.1860640">
        <ele>903.5</ele>
        <time>2019-08-17T08:52:17Z</time>
      </trkpt>
      <trkpt lat="42.0250980" lon="-7.1861300">
        <ele>903.2</ele>
        <time>2019-08-17T08:52:18Z</time>
      </trkpt>
      <trkpt lat="42.0250450" lon="-7.1861960">
        <ele>903.0</ele>
        <time>2019-08-17T08:52:19Z</time>
      </trkpt>
      <trkpt lat="42.0249920" lon="-7.1862620">
        <ele>902.8</ele>
        <time>2019-08-17T08:52:20Z</time>
      </trkpt>
      <trkpt lat="42.0249380" lon="-7.1863290">
        <ele>902.6</ele>
        <time>2019-08-17T08:52:21Z</time>
      </trkpt>
      <trkpt lat="42.0248850" lon="-7.1863970">
        <ele>902.5</ele>
        <time>2019-08-17T08:52:22Z</time>
      </trkpt>
      <trkpt lat="42.0248300" lon="-7.1864640">
        <ele>902.4</ele>
        <time>2019-08-17T08:52:23Z</time>
      </trkpt>
      <trkpt lat="42.0247760" lon="-7.1865320">
        <ele>902.3</ele>
        <time>2019-08-17T08:52:24Z</time>
      </trkpt>
      <trkpt lat="42.0247220" lon="-7.1866000">
        <ele>902.2</ele>
        <time>2019-08-17T08:52:25Z</time>
      </trkpt>
      <trkpt lat="42.0246680" lon="-7.1866680">
        <ele>902.1</ele>
        <time>2019-08-17T08:52:26Z</time>
      </trkpt>
      <trkpt lat="42.0246130" lon="-7.1867360">
        <ele>902.0</ele>
        <time>2019-08-17T08:52:27Z</time>
      </trkpt>
      <trkpt lat="42.0245590" lon="-7.1868040">
        <ele>901.9</ele>
        <time>2019-08-17T08:52:28Z</time>
      </trkpt>
      <trkpt lat="42.0245050" lon="-7.1868710">
        <ele>901.8</ele>
        <time>2019-08-17T08:52:29Z</time>
      </trkpt>
      <trkpt lat="42.0244520" lon="-7.1869390">
        <ele>901.6</ele>
        <time>2019-08-17T08:52:30Z</time>
      </trkpt>
      <trkpt lat="42.0243990" lon="-7.1870060">
        <ele>901.5</ele>
        <time>2019-08-17T08:52:31Z</time>
      </trkpt>
      <trkpt lat="42.0243460" lon="-7.1870720">
        <ele>901.4</ele>
        <time>2019-08-17T08:52:32Z</time>
      </trkpt>
      <trkpt lat="42.0242940" lon="-7.1871380">
        <ele>901.7</ele>
        <time>2019-08-17T08:52:33Z</time>
      </trkpt>
      <trkpt lat="42.0242420" lon="-7.1872030">
        <ele>902.0</ele>
        <time>2019-08-17T08:52:34Z</time>
      </trkpt>
      <trkpt lat="42.0241910" lon="-7.1872680">
        <ele>902.3</ele>
        <time>2019-08-17T08:52:35Z</time>
      </trkpt>
      <trkpt lat="42.0241410" lon="-7.1873320">
        <ele>902.7</ele>
        <time>2019-08-17T08:52:36Z</time>
      </trkpt>
      <trkpt lat="42.0240910" lon="-7.1873940">
        <ele>903.0</ele>
        <time>2019-08-17T08:52:37Z</time>
      </trkpt>
      <trkpt lat="42.0240430" lon="-7.1874560">
        <ele>903.3</ele>
        <time>2019-08-17T08:52:38Z</time>
      </trkpt>
      <trkpt lat="42.0239950" lon="-7.1875170">
        <ele>903.7</ele>
        <time>2019-08-17T08:52:39Z</time>
      </trkpt>
      <trkpt lat="42.0239480" lon="-7.1875760">
        <ele>903.9</ele>
        <time>2019-08-17T08:52:40Z</time>
      </trkpt>
      <trkpt lat="42.0239020" lon="-7.1876340">
        <ele>904.2</ele>
        <time>2019-08-17T08:52:41Z</time>
      </trkpt>
      <trkpt lat="42.0238570" lon="-7.1876910">
        <ele>904.4</ele>
        <time>2019-08-17T08:52:42Z</time>
      </trkpt>
      <trkpt lat="42.0238140" lon="-7.1877460">
        <ele>904.6</ele>
        <time>2019-08-17T08:52:43Z</time>
      </trkpt>
      <trkpt lat="42.0237710" lon="-7.1878010">
        <ele>904.7</ele>
        <time>2019-08-17T08:52:44Z</time>
      </trkpt>
      <trkpt lat="42.0237290" lon="-7.1878530">
        <ele>904.8</ele>
        <time>2019-08-17T08:52:45Z</time>
      </trkpt>
      <trkpt lat="42.0236880" lon="-7.1879040">
        <ele>904.9</ele>
        <time>2019-08-17T08:52:46Z</time>
      </trkpt>
      <trkpt lat="42.0236480" lon="-7.1879540">
        <ele>904.9</ele>
        <time>2019-08-17T08:52:47Z</time>
      </trkpt>
      <trkpt lat="42.0236090" lon="-7.1880030">
        <ele>904.9</ele>
        <time>2019-08-17T08:52:48Z</time>
      </trkpt>
      <trkpt lat="42.0235700" lon="-7.1880510">
        <ele>904.9</ele>
        <time>2019-08-17T08:52:49Z</time>
      </trkpt>
      <trkpt lat="42.0235310" lon="-7.1880990">
        <ele>904.8</ele>
        <time>2019-08-17T08:52:50Z</time>
      </trkpt>
      <trkpt lat="42.0234920" lon="-7.1881470">
        <ele>904.8</ele>
        <time>2019-08-17T08:52:51Z</time>
      </trkpt>
      <trkpt lat="42.0234530" lon="-7.1881950">
        <ele>904.7</ele>
        <time>2019-08-17T08:52:52Z</time>
      </trkpt>
      <trkpt lat="42.0234130" lon="-7.1882440">
        <ele>904.6</ele>
        <time>2019-08-17T08:52:53Z</time>
      </trkpt>
      <trkpt lat="42.0233720" lon="-7.1882940">
        <ele>904.5</ele>
        <time>2019-08-17T08:52:54Z</time>
      </trkpt>
      <trkpt lat="42.0233310" lon="-7.1883450">
        <ele>904.4</ele>
        <time>2019-08-17T08:52:55Z</time>
      </trkpt>
      <trkpt lat="42.0232880" lon="-7.1883970">
        <ele>904.2</ele>
        <time>2019-08-17T08:52:56Z</time>
      </trkpt>
      <trkpt lat="42.0232450" lon="-7.1884500">
        <ele>904.0</ele>
        <time>2019-08-17T08:52:57Z</time>
      </trkpt>
      <trkpt lat="42.0232020" lon="-7.1885030">
        <ele>903.9</ele>
        <time>2019-08-17T08:52:58Z</time>
      </trkpt>
      <trkpt lat="42.0231580" lon="-7.1885570">
        <ele>903.7</ele>
        <time>2019-08-17T08:52:59Z</time>
      </trkpt>
      <trkpt lat="42.0231130" lon="-7.1886110">
        <ele>903.5</ele>
        <time>2019-08-17T08:53:00Z</time>
      </trkpt>
      <trkpt lat="42.0230690" lon="-7.1886660">
        <ele>903.4</ele>
        <time>2019-08-17T08:53:01Z</time>
      </trkpt>
      <trkpt lat="42.0230240" lon="-7.1887210">
        <ele>903.3</ele>
        <time>2019-08-17T08:53:02Z</time>
      </trkpt>
      <trkpt lat="42.0229790" lon="-7.1887770">
        <ele>903.2</ele>
        <time>2019-08-17T08:53:03Z</time>
      </trkpt>
      <trkpt lat="42.0229340" lon="-7.1888330">
        <ele>903.1</ele>
        <time>2019-08-17T08:53:04Z</time>
      </trkpt>
      <trkpt lat="42.0228880" lon="-7.1888890">
        <ele>903.0</ele>
        <time>2019-08-17T08:53:05Z</time>
      </trkpt>
      <trkpt lat="42.0228430" lon="-7.1889450">
        <ele>903.0</ele>
        <time>2019-08-17T08:53:06Z</time>
      </trkpt>
      <trkpt lat="42.0227970" lon="-7.1890030">
        <ele>903.0</ele>
        <time>2019-08-17T08:53:07Z</time>
      </trkpt>
      <trkpt lat="42.0227510" lon="-7.1890600">
        <ele>902.9</ele>
        <time>2019-08-17T08:53:08Z</time>
      </trkpt>
      <trkpt lat="42.0227040" lon="-7.1891180">
        <ele>902.9</ele>
        <time>2019-08-17T08:53:09Z</time>
      </trkpt>
      <trkpt lat="42.0226580" lon="-7.1891770">
        <ele>902.9</ele>
        <time>2019-08-17T08:53:10Z</time>
      </trkpt>
      <trkpt lat="42.0226110" lon="-7.1892360">
        <ele>902.9</ele>
        <time>2019-08-17T08:53:11Z</time>
      </trkpt>
      <trkpt lat="42.0225640" lon="-7.1892960">
        <ele>902.8</ele>
        <time>2019-08-17T08:53:12Z</time>
      </trkpt>
      <trkpt lat="42.0225160" lon="-7.1893560">
        <ele>902.8</ele>
        <time>2019-08-17T08:53:13Z</time>
      </trkpt>
      <trkpt lat="42.0224680" lon="-7.1894170">
        <ele>902.9</ele>
        <time>2019-08-17T08:53:14Z</time>
      </trkpt>
      <trkpt lat="42.0224210" lon="-7.1894780">
        <ele>902.9</ele>
        <time>2019-08-17T08:53:15Z</time>
      </trkpt>
      <trkpt lat="42.0223720" lon="-7.1895390">
        <ele>902.9</ele>
        <time>2019-08-17T08:53:16Z</time>
      </trkpt>
      <trkpt lat="42.0223240" lon="-7.1896010">
        <ele>903.0</ele>
        <time>2019-08-17T08:53:17Z</time>
      </trkpt>
      <trkpt lat="42.0222760" lon="-7.1896620">
        <ele>903.1</ele>
        <time>2019-08-17T08:53:18Z</time>
      </trkpt>
      <trkpt lat="42.0222280" lon="-7.1897230">
        <ele>903.2</ele>
        <time>2019-08-17T08:53:19Z</time>
      </trkpt>
      <trkpt lat="42.0221800" lon="-7.1897840">
        <ele>903.3</ele>
        <time>2019-08-17T08:53:20Z</time>
      </trkpt>
      <trkpt lat="42.0221320" lon="-7.1898440">
        <ele>903.5</ele>
        <time>2019-08-17T08:53:21Z</time>
      </trkpt>
      <trkpt lat="42.0220840" lon="-7.1899040">
        <ele>903.6</ele>
        <time>2019-08-17T08:53:22Z</time>
      </trkpt>
      <trkpt lat="42.0220370" lon="-7.1899630">
        <ele>903.8</ele>
        <time>2019-08-17T08:53:23Z</time>
      </trkpt>
      <trkpt lat="42.0219900" lon="-7.1900210">
        <ele>904.0</ele>
        <time>2019-08-17T08:53:24Z</time>
      </trkpt>
      <trkpt lat="42.0219440" lon="-7.1900780">
        <ele>904.2</ele>
        <time>2019-08-17T08:53:25Z</time>
      </trkpt>
      <trkpt lat="42.0218990" lon="-7.1901350">
        <ele>904.4</ele>
        <time>2019-08-17T08:53:26Z</time>
      </trkpt>
      <trkpt lat="42.0218540" lon="-7.1901900">
        <ele>904.6</ele>
        <time>2019-08-17T08:53:27Z</time>
      </trkpt>
      <trkpt lat="42.0218110" lon="-7.1902450">
        <ele>904.7</ele>
        <time>2019-08-17T08:53:28Z</time>
      </trkpt>
      <trkpt lat="42.0217690" lon="-7.1902990">
        <ele>904.9</ele>
        <time>2019-08-17T08:53:29Z</time>
      </trkpt>
      <trkpt lat="42.0217270" lon="-7.1903520">
        <ele>905.0</ele>
        <time>2019-08-17T08:53:30Z</time>
      </trkpt>
      <trkpt lat="42.0216870" lon="-7.1904050">
        <ele>905.1</ele>
        <time>2019-08-17T08:53:31Z</time>
      </trkpt>
      <trkpt lat="42.0216470" lon="-7.1904570">
        <ele>905.2</ele>
        <time>2019-08-17T08:53:32Z</time>
      </trkpt>
      <trkpt lat="42.0216070" lon="-7.1905090">
        <ele>905.3</ele>
        <time>2019-08-17T08:53:33Z</time>
      </trkpt>
      <trkpt lat="42.0215680" lon="-7.1905600">
        <ele>905.3</ele>
        <time>2019-08-17T08:53:34Z</time>
      </trkpt>
      <trkpt lat="42.0215300" lon="-7.1906110">
        <ele>905.3</ele>
        <time>2019-08-17T08:53:35Z</time>
      </trkpt>
      <trkpt lat="42.0214920" lon="-7.1906620">
        <ele>905.3</ele>
        <time>2019-08-17T08:53:36Z</time>
      </trkpt>
      <trkpt lat="42.0214540" lon="-7.1907140">
        <ele>905.3</ele>
        <time>2019-08-17T08:53:37Z</time>
      </trkpt>
      <trkpt lat="42.0214160" lon="-7.1907650">
        <ele>905.3</ele>
        <time>2019-08-17T08:53:38Z</time>
      </trkpt>
      <trkpt lat="42.0213770" lon="-7.1908160">
        <ele>905.2</ele>
        <time>2019-08-17T08:53:39Z</time>
      </trkpt>
      <trkpt lat="42.0213390" lon="-7.1908680">
        <ele>905.2</ele>
        <time>2019-08-17T08:53:40Z</time>
      </trkpt>
      <trkpt lat="42.0213010" lon="-7.1909200">
        <ele>905.0</ele>
        <time>2019-08-17T08:53:41Z</time>
      </trkpt>
      <trkpt lat="42.0212620" lon="-7.1909730">
        <ele>904.8</ele>
        <time>2019-08-17T08:53:42Z</time>
      </trkpt>
      <trkpt lat="42.0212240" lon="-7.1910280">
        <ele>904.6</ele>
        <time>2019-08-17T08:53:43Z</time>
      </trkpt>
      <trkpt lat="42.0211860" lon="-7.1910850">
        <ele>904.5</ele>
        <time>2019-08-17T08:53:44Z</time>
      </trkpt>
      <trkpt lat="42.0211480" lon="-7.1911460">
        <ele>904.4</ele>
        <time>2019-08-17T08:53:45Z</time>
      </trkpt>
      <trkpt lat="42.0211110" lon="-7.1912100">
        <ele>904.1</ele>
        <time>2019-08-17T08:53:46Z</time>
      </trkpt>
      <trkpt lat="42.0210740" lon="-7.1912780">
        <ele>903.5</ele>
        <time>2019-08-17T08:53:47Z</time>
      </trkpt>
      <trkpt lat="42.0210380" lon="-7.1913520">
        <ele>902.9</ele>
        <time>2019-08-17T08:53:48Z</time>
      </trkpt>
      <trkpt lat="42.0210030" lon="-7.1914300">
        <ele>902.3</ele>
        <time>2019-08-17T08:53:49Z</time>
      </trkpt>
      <trkpt lat="42.0209690" lon="-7.1915130">
        <ele>901.7</ele>
        <time>2019-08-17T08:53:50Z</time>
      </trkpt>
      <trkpt lat="42.0209340" lon="-7.1916010">
        <ele>901.1</ele>
        <time>2019-08-17T08:53:51Z</time>
      </trkpt>
      <trkpt lat="42.0208820" lon="-7.1917430">
        <ele>900.1</ele>
        <time>2019-08-17T08:53:52Z</time>
      </trkpt>
      <trkpt lat="42.0208640" lon="-7.1917920">
        <ele>899.8</ele>
        <time>2019-08-17T08:53:53Z</time>
      </trkpt>
      <trkpt lat="42.0208290" lon="-7.1918940">
        <ele>899.3</ele>
        <time>2019-08-17T08:53:54Z</time>
      </trkpt>
      <trkpt lat="42.0207920" lon="-7.1920010">
        <ele>898.7</ele>
        <time>2019-08-17T08:53:55Z</time>
      </trkpt>
      <trkpt lat="42.0207550" lon="-7.1921120">
        <ele>898.1</ele>
        <time>2019-08-17T08:53:56Z</time>
      </trkpt>
      <trkpt lat="42.0206850" lon="-7.1922990">
        <ele>896.7</ele>
        <time>2019-08-17T08:53:57Z</time>
      </trkpt>
      <trkpt lat="42.0206560" lon="-7.1923750">
        <ele>896.2</ele>
        <time>2019-08-17T08:53:58Z</time>
      </trkpt>
      <trkpt lat="42.0206260" lon="-7.1924500">
        <ele>895.7</ele>
        <time>2019-08-17T08:53:59Z</time>
      </trkpt>
      <trkpt lat="42.0205760" lon="-7.1925610">
        <ele>894.9</ele>
        <time>2019-08-17T08:54:00Z</time>
      </trkpt>
      <trkpt lat="42.0205220" lon="-7.1926690">
        <ele>894.2</ele>
        <time>2019-08-17T08:54:01Z</time>
      </trkpt>
      <trkpt lat="42.0204620" lon="-7.1927720">
        <ele>893.5</ele>
        <time>2019-08-17T08:54:02Z</time>
      </trkpt>
      <trkpt lat="42.0203980" lon="-7.1928710">
        <ele>892.7</ele>
        <time>2019-08-17T08:54:03Z</time>
      </trkpt>
      <trkpt lat="42.0203290" lon="-7.1929630">
        <ele>891.9</ele>
        <time>2019-08-17T08:54:04Z</time>
      </trkpt>
      <trkpt lat="42.0202560" lon="-7.1930490">
        <ele>891.2</ele>
        <time>2019-08-17T08:54:05Z</time>
      </trkpt>
      <trkpt lat="42.0201790" lon="-7.1931280">
        <ele>890.6</ele>
        <time>2019-08-17T08:54:06Z</time>
      </trkpt>
      <trkpt lat="42.0200990" lon="-7.1931990">
        <ele>890.1</ele>
        <time>2019-08-17T08:54:07Z</time>
      </trkpt>
      <trkpt lat="42.0200150" lon="-7.1932620">
        <ele>889.6</ele>
        <time>2019-08-17T08:54:08Z</time>
      </trkpt>
      <trkpt lat="42.0199280" lon="-7.1933160">
        <ele>889.1</ele>
        <time>2019-08-17T08:54:09Z</time>
      </trkpt>
      <trkpt lat="42.0198380" lon="-7.1933640">
        <ele>888.5</ele>
        <time>2019-08-17T08:54:10Z</time>
      </trkpt>
      <trkpt lat="42.0197470" lon="-7.1934070">
        <ele>888.0</ele>
        <time>2019-08-17T08:54:11Z</time>
      </trkpt>
      <trkpt lat="42.0196540" lon="-7.1934440">
        <ele>887.5</ele>
        <time>2019-08-17T08:54:12Z</time>
      </trkpt>
      <trkpt lat="42.0195600" lon="-7.1934780">
        <ele>887.0</ele>
        <time>2019-08-17T08:54:13Z</time>
      </trkpt>
      <trkpt lat="42.0194650" lon="-7.1935080">
        <ele>886.4</ele>
        <time>2019-08-17T08:54:14Z</time>
      </trkpt>
      <trkpt lat="42.0193700" lon="-7.1935370">
        <ele>885.8</ele>
        <time>2019-08-17T08:54:15Z</time>
      </trkpt>
      <trkpt lat="42.0192760" lon="-7.1935640">
        <ele>885.1</ele>
        <time>2019-08-17T08:54:16Z</time>
      </trkpt>
      <trkpt lat="42.0191800" lon="-7.1935900">
        <ele>884.4</ele>
        <time>2019-08-17T08:54:17Z</time>
      </trkpt>
      <trkpt lat="42.0190850" lon="-7.1936180">
        <ele>883.7</ele>
        <time>2019-08-17T08:54:18Z</time>
      </trkpt>
      <trkpt lat="42.0189890" lon="-7.1936450">
        <ele>883.0</ele>
        <time>2019-08-17T08:54:19Z</time>
      </trkpt>
      <trkpt lat="42.0188930" lon="-7.1936740">
        <ele>882.4</ele>
        <time>2019-08-17T08:54:20Z</time>
      </trkpt>
      <trkpt lat="42.0187970" lon="-7.1937060">
        <ele>881.8</ele>
        <time>2019-08-17T08:54:21Z</time>
      </trkpt>
      <trkpt lat="42.0187000" lon="-7.1937420">
        <ele>881.2</ele>
        <time>2019-08-17T08:54:22Z</time>
      </trkpt>
      <trkpt lat="42.0186040" lon="-7.1937810">
        <ele>880.6</ele>
        <time>2019-08-17T08:54:23Z</time>
      </trkpt>
      <trkpt lat="42.0185090" lon="-7.1938270">
        <ele>880.0</ele>
        <time>2019-08-17T08:54:24Z</time>
      </trkpt>
      <trkpt lat="42.0184150" lon="-7.1938800">
        <ele>879.4</ele>
        <time>2019-08-17T08:54:25Z</time>
      </trkpt>
      <trkpt lat="42.0183250" lon="-7.1939410">
        <ele>878.7</ele>
        <time>2019-08-17T08:54:26Z</time>
      </trkpt>
      <trkpt lat="42.0182380" lon="-7.1940120">
        <ele>878.1</ele>
        <time>2019-08-17T08:54:27Z</time>
      </trkpt>
      <trkpt lat="42.0181550" lon="-7.1940940">
        <ele>877.4</ele>
        <time>2019-08-17T08:54:28Z</time>
      </trkpt>
      <trkpt lat="42.0180770" lon="-7.1941880">
        <ele>876.6</ele>
        <time>2019-08-17T08:54:29Z</time>
      </trkpt>
      <trkpt lat="42.0179590" lon="-7.1943710">
        <ele>875.0</ele>
        <time>2019-08-17T08:54:30Z</time>
      </trkpt>
      <trkpt lat="42.0179130" lon="-7.1944490">
        <ele>874.4</ele>
        <time>2019-08-17T08:54:31Z</time>
      </trkpt>
      <trkpt lat="42.0178680" lon="-7.1945280">
        <ele>873.9</ele>
        <time>2019-08-17T08:54:32Z</time>
      </trkpt>
      <trkpt lat="42.0178020" lon="-7.1946500">
        <ele>873.2</ele>
        <time>2019-08-17T08:54:33Z</time>
      </trkpt>
      <trkpt lat="42.0177390" lon="-7.1947780">
        <ele>872.4</ele>
        <time>2019-08-17T08:54:34Z</time>
      </trkpt>
      <trkpt lat="42.0176370" lon="-7.1949960">
        <ele>871.0</ele>
        <time>2019-08-17T08:54:35Z</time>
      </trkpt>
      <trkpt lat="42.0175970" lon="-7.1950840">
        <ele>870.5</ele>
        <time>2019-08-17T08:54:36Z</time>
      </trkpt>
      <trkpt lat="42.0175570" lon="-7.1951720">
        <ele>870.0</ele>
        <time>2019-08-17T08:54:37Z</time>
      </trkpt>
      <trkpt lat="42.0174980" lon="-7.1953050">
        <ele>869.2</ele>
        <time>2019-08-17T08:54:38Z</time>
      </trkpt>
      <trkpt lat="42.0174430" lon="-7.1954410">
        <ele>868.4</ele>
        <time>2019-08-17T08:54:39Z</time>
      </trkpt>
      <trkpt lat="42.0173900" lon="-7.1955780">
        <ele>867.8</ele>
        <time>2019-08-17T08:54:40Z</time>
      </trkpt>
      <trkpt lat="42.0173410" lon="-7.1957160">
        <ele>867.1</ele>
        <time>2019-08-17T08:54:41Z</time>
      </trkpt>
      <trkpt lat="42.0172950" lon="-7.1958560">
        <ele>866.3</ele>
        <time>2019-08-17T08:54:42Z</time>
      </trkpt>
      <trkpt lat="42.0172540" lon="-7.1959990">
        <ele>865.5</ele>
        <time>2019-08-17T08:54:43Z</time>
      </trkpt>
      <trkpt lat="42.0172120" lon="-7.1961420">
        <ele>864.6</ele>
        <time>2019-08-17T08:54:44Z</time>
      </trkpt>
      <trkpt lat="42.0171760" lon="-7.1962870">
        <ele>863.8</ele>
        <time>2019-08-17T08:54:45Z</time>
      </trkpt>
      <trkpt lat="42.0171410" lon="-7.1964350">
        <ele>862.8</ele>
        <time>2019-08-17T08:54:46Z</time>
      </trkpt>
      <trkpt lat="42.0171100" lon="-7.1965840">
        <ele>861.8</ele>
        <time>2019-08-17T08:54:47Z</time>
      </trkpt>
      <trkpt lat="42.0170800" lon="-7.1967350">
        <ele>860.9</ele>
        <time>2019-08-17T08:54:48Z</time>
      </trkpt>
      <trkpt lat="42.0170520" lon="-7.1968880">
        <ele>859.9</ele>
        <time>2019-08-17T08:54:49Z</time>
      </trkpt>
      <trkpt lat="42.0170260" lon="-7.1970420">
        <ele>859.0</ele>
        <time>2019-08-17T08:54:50Z</time>
      </trkpt>
      <trkpt lat="42.0170020" lon="-7.1971970">
        <ele>858.1</ele>
        <time>2019-08-17T08:54:51Z</time>
      </trkpt>
      <trkpt lat="42.0169790" lon="-7.1973530">
        <ele>857.2</ele>
        <time>2019-08-17T08:54:52Z</time>
      </trkpt>
      <trkpt lat="42.0169570" lon="-7.1975070">
        <ele>856.3</ele>
        <time>2019-08-17T08:54:53Z</time>
      </trkpt>
      <trkpt lat="42.0169370" lon="-7.1976610">
        <ele>855.4</ele>
        <time>2019-08-17T08:54:54Z</time>
      </trkpt>
      <trkpt lat="42.0169180" lon="-7.1978130">
        <ele>854.7</ele>
        <time>2019-08-17T08:54:55Z</time>
      </trkpt>
      <trkpt lat="42.0169000" lon="-7.1979630">
        <ele>853.9</ele>
        <time>2019-08-17T08:54:56Z</time>
      </trkpt>
      <trkpt lat="42.0168810" lon="-7.1981100">
        <ele>853.2</ele>
        <time>2019-08-17T08:54:57Z</time>
      </trkpt>
      <trkpt lat="42.0168440" lon="-7.1983480">
        <ele>852.3</ele>
        <time>2019-08-17T08:54:58Z</time>
      </trkpt>
      <trkpt lat="42.0168270" lon="-7.1984400">
        <ele>852.0</ele>
        <time>2019-08-17T08:54:59Z</time>
      </trkpt>
      <trkpt lat="42.0168100" lon="-7.1985330">
        <ele>851.7</ele>
        <time>2019-08-17T08:55:00Z</time>
      </trkpt>
      <trkpt lat="42.0167810" lon="-7.1986700">
        <ele>851.3</ele>
        <time>2019-08-17T08:55:01Z</time>
      </trkpt>
      <trkpt lat="42.0167430" lon="-7.1988020">
        <ele>851.1</ele>
        <time>2019-08-17T08:55:02Z</time>
      </trkpt>
      <trkpt lat="42.0166620" lon="-7.1990090">
        <ele>850.6</ele>
        <time>2019-08-17T08:55:03Z</time>
      </trkpt>
      <trkpt lat="42.0166240" lon="-7.1990870">
        <ele>850.5</ele>
        <time>2019-08-17T08:55:04Z</time>
      </trkpt>
      <trkpt lat="42.0165870" lon="-7.1991660">
        <ele>850.2</ele>
        <time>2019-08-17T08:55:05Z</time>
      </trkpt>
      <trkpt lat="42.0165260" lon="-7.1992790">
        <ele>849.7</ele>
        <time>2019-08-17T08:55:06Z</time>
      </trkpt>
      <trkpt lat="42.0164550" lon="-7.1993810">
        <ele>849.0</ele>
        <time>2019-08-17T08:55:07Z</time>
      </trkpt>
      <trkpt lat="42.0163770" lon="-7.1994750">
        <ele>848.2</ele>
        <time>2019-08-17T08:55:08Z</time>
      </trkpt>
      <trkpt lat="42.0162930" lon="-7.1995600">
        <ele>847.4</ele>
        <time>2019-08-17T08:55:09Z</time>
      </trkpt>
      <trkpt lat="42.0162030" lon="-7.1996390">
        <ele>846.6</ele>
        <time>2019-08-17T08:55:10Z</time>
      </trkpt>
      <trkpt lat="42.0161100" lon="-7.1997160">
        <ele>845.7</ele>
        <time>2019-08-17T08:55:11Z</time>
      </trkpt>
      <trkpt lat="42.0160170" lon="-7.1997940">
        <ele>844.9</ele>
        <time>2019-08-17T08:55:12Z</time>
      </trkpt>
      <trkpt lat="42.0159240" lon="-7.1998760">
        <ele>844.2</ele>
        <time>2019-08-17T08:55:13Z</time>
      </trkpt>
      <trkpt lat="42.0158350" lon="-7.1999650">
        <ele>843.4</ele>
        <time>2019-08-17T08:55:14Z</time>
      </trkpt>
      <trkpt lat="42.0157500" lon="-7.2000650">
        <ele>842.7</ele>
        <time>2019-08-17T08:55:15Z</time>
      </trkpt>
      <trkpt lat="42.0156730" lon="-7.2001780">
        <ele>841.9</ele>
        <time>2019-08-17T08:55:16Z</time>
      </trkpt>
      <trkpt lat="42.0156040" lon="-7.2003030">
        <ele>841.1</ele>
        <time>2019-08-17T08:55:17Z</time>
      </trkpt>
      <trkpt lat="42.0155430" lon="-7.2004370">
        <ele>840.3</ele>
        <time>2019-08-17T08:55:18Z</time>
      </trkpt>
      <trkpt lat="42.0154920" lon="-7.2005790">
        <ele>839.5</ele>
        <time>2019-08-17T08:55:19Z</time>
      </trkpt>
      <trkpt lat="42.0154510" lon="-7.2007260">
        <ele>838.8</ele>
        <time>2019-08-17T08:55:20Z</time>
      </trkpt>
      <trkpt lat="42.0154180" lon="-7.2008750">
        <ele>838.1</ele>
        <time>2019-08-17T08:55:21Z</time>
      </trkpt>
      <trkpt lat="42.0153870" lon="-7.2010260">
        <ele>837.5</ele>
        <time>2019-08-17T08:55:22Z</time>
      </trkpt>
      <trkpt lat="42.0153560" lon="-7.2011750">
        <ele>836.9</ele>
        <time>2019-08-17T08:55:23Z</time>
      </trkpt>
      <trkpt lat="42.0153240" lon="-7.2013230">
        <ele>836.2</ele>
        <time>2019-08-17T08:55:24Z</time>
      </trkpt>
      <trkpt lat="42.0152880" lon="-7.2014670">
        <ele>835.6</ele>
        <time>2019-08-17T08:55:25Z</time>
      </trkpt>
      <trkpt lat="42.0152480" lon="-7.2016080">
        <ele>834.9</ele>
        <time>2019-08-17T08:55:26Z</time>
      </trkpt>
      <trkpt lat="42.0152020" lon="-7.2017440">
        <ele>834.2</ele>
        <time>2019-08-17T08:55:27Z</time>
      </trkpt>
      <trkpt lat="42.0151490" lon="-7.2018730">
        <ele>833.5</ele>
        <time>2019-08-17T08:55:28Z</time>
      </trkpt>
      <trkpt lat="42.0150880" lon="-7.2019960">
        <ele>832.9</ele>
        <time>2019-08-17T08:55:29Z</time>
      </trkpt>
      <trkpt lat="42.0150190" lon="-7.2021110">
        <ele>832.2</ele>
        <time>2019-08-17T08:55:30Z</time>
      </trkpt>
      <trkpt lat="42.0149430" lon="-7.2022170">
        <ele>831.6</ele>
        <time>2019-08-17T08:55:31Z</time>
      </trkpt>
      <trkpt lat="42.0148620" lon="-7.2023110">
        <ele>830.9</ele>
        <time>2019-08-17T08:55:32Z</time>
      </trkpt>
      <trkpt lat="42.0147750" lon="-7.2023940">
        <ele>830.1</ele>
        <time>2019-08-17T08:55:33Z</time>
      </trkpt>
      <trkpt lat="42.0146840" lon="-7.2024630">
        <ele>829.4</ele>
        <time>2019-08-17T08:55:34Z</time>
      </trkpt>
      <trkpt lat="42.0145890" lon="-7.2025170">
        <ele>828.6</ele>
        <time>2019-08-17T08:55:35Z</time>
      </trkpt>
      <trkpt lat="42.0144920" lon="-7.2025560">
        <ele>827.9</ele>
        <time>2019-08-17T08:55:36Z</time>
      </trkpt>
      <trkpt lat="42.0143920" lon="-7.2025810">
        <ele>827.2</ele>
        <time>2019-08-17T08:55:37Z</time>
      </trkpt>
      <trkpt lat="42.0142900" lon="-7.2025950">
        <ele>826.5</ele>
        <time>2019-08-17T08:55:38Z</time>
      </trkpt>
      <trkpt lat="42.0141860" lon="-7.2026020">
        <ele>825.8</ele>
        <time>2019-08-17T08:55:39Z</time>
      </trkpt>
      <trkpt lat="42.0140800" lon="-7.2026030">
        <ele>825.2</ele>
        <time>2019-08-17T08:55:40Z</time>
      </trkpt>
      <trkpt lat="42.0139730" lon="-7.2026010">
        <ele>824.5</ele>
        <time>2019-08-17T08:55:41Z</time>
      </trkpt>
      <trkpt lat="42.0138650" lon="-7.2025990">
        <ele>823.8</ele>
        <time>2019-08-17T08:55:42Z</time>
      </trkpt>
      <trkpt lat="42.0137560" lon="-7.2026020">
        <ele>823.0</ele>
        <time>2019-08-17T08:55:43Z</time>
      </trkpt>
      <trkpt lat="42.0136460" lon="-7.2026040">
        <ele>822.3</ele>
        <time>2019-08-17T08:55:44Z</time>
      </trkpt>
      <trkpt lat="42.0135370" lon="-7.2026130">
        <ele>821.5</ele>
        <time>2019-08-17T08:55:45Z</time>
      </trkpt>
      <trkpt lat="42.0134280" lon="-7.2026270">
        <ele>820.8</ele>
        <time>2019-08-17T08:55:46Z</time>
      </trkpt>
      <trkpt lat="42.0133200" lon="-7.2026480">
        <ele>820.0</ele>
        <time>2019-08-17T08:55:47Z</time>
      </trkpt>
      <trkpt lat="42.0132130" lon="-7.2026770">
        <ele>819.3</ele>
        <time>2019-08-17T08:55:48Z</time>
      </trkpt>
      <trkpt lat="42.0131090" lon="-7.2027140">
        <ele>818.6</ele>
        <time>2019-08-17T08:55:49Z</time>
      </trkpt>
      <trkpt lat="42.0130070" lon="-7.2027610">
        <ele>817.9</ele>
        <time>2019-08-17T08:55:50Z</time>
      </trkpt>
      <trkpt lat="42.0129070" lon="-7.2028170">
        <ele>817.1</ele>
        <time>2019-08-17T08:55:51Z</time>
      </trkpt>
      <trkpt lat="42.0128100" lon="-7.2028810">
        <ele>816.4</ele>
        <time>2019-08-17T08:55:52Z</time>
      </trkpt>
      <trkpt lat="42.0127150" lon="-7.2029530">
        <ele>815.6</ele>
        <time>2019-08-17T08:55:53Z</time>
      </trkpt>
      <trkpt lat="42.0126240" lon="-7.2030330">
        <ele>814.8</ele>
        <time>2019-08-17T08:55:54Z</time>
      </trkpt>
      <trkpt lat="42.0125360" lon="-7.2031190">
        <ele>814.1</ele>
        <time>2019-08-17T08:55:55Z</time>
      </trkpt>
      <trkpt lat="42.0124500" lon="-7.2032120">
        <ele>813.3</ele>
        <time>2019-08-17T08:55:56Z</time>
      </trkpt>
      <trkpt lat="42.0123680" lon="-7.2033090">
        <ele>812.4</ele>
        <time>2019-08-17T08:55:57Z</time>
      </trkpt>
      <trkpt lat="42.0122350" lon="-7.2034820">
        <ele>811.0</ele>
        <time>2019-08-17T08:55:58Z</time>
      </trkpt>
      <trkpt lat="42.0121840" lon="-7.2035540">
        <ele>810.5</ele>
        <time>2019-08-17T08:55:59Z</time>
      </trkpt>
      <trkpt lat="42.0121320" lon="-7.2036250">
        <ele>809.9</ele>
        <time>2019-08-17T08:56:00Z</time>
      </trkpt>
      <trkpt lat="42.0120550" lon="-7.2037330">
        <ele>809.0</ele>
        <time>2019-08-17T08:56:01Z</time>
      </trkpt>
      <trkpt lat="42.0119780" lon="-7.2038420">
        <ele>808.1</ele>
        <time>2019-08-17T08:56:02Z</time>
      </trkpt>
      <trkpt lat="42.0118490" lon="-7.2040180">
        <ele>806.6</ele>
        <time>2019-08-17T08:56:03Z</time>
      </trkpt>
      <trkpt lat="42.0117970" lon="-7.2040860">
        <ele>806.1</ele>
        <time>2019-08-17T08:56:04Z</time>
      </trkpt>
      <trkpt lat="42.0117440" lon="-7.2041540">
        <ele>805.6</ele>
        <time>2019-08-17T08:56:05Z</time>
      </trkpt>
      <trkpt lat="42.0116640" lon="-7.2042530">
        <ele>804.9</ele>
        <time>2019-08-17T08:56:06Z</time>
      </trkpt>
      <trkpt lat="42.0115790" lon="-7.2043410">
        <ele>804.2</ele>
        <time>2019-08-17T08:56:07Z</time>
      </trkpt>
      <trkpt lat="42.0114900" lon="-7.2044200">
        <ele>803.5</ele>
        <time>2019-08-17T08:56:08Z</time>
      </trkpt>
      <trkpt lat="42.0113970" lon="-7.2044890">
        <ele>802.8</ele>
        <time>2019-08-17T08:56:09Z</time>
      </trkpt>
      <trkpt lat="42.0112990" lon="-7.2045450">
        <ele>802.2</ele>
        <time>2019-08-17T08:56:10Z</time>
      </trkpt>
      <trkpt lat="42.0111960" lon="-7.2045880">
        <ele>801.5</ele>
        <time>2019-08-17T08:56:11Z</time>
      </trkpt>
      <trkpt lat="42.0110910" lon="-7.2046170">
        <ele>800.9</ele>
        <time>2019-08-17T08:56:12Z</time>
      </trkpt>
      <trkpt lat="42.0109830" lon="-7.2046330">
        <ele>800.2</ele>
        <time>2019-08-17T08:56:13Z</time>
      </trkpt>
      <trkpt lat="42.0108730" lon="-7.2046340">
        <ele>799.5</ele>
        <time>2019-08-17T08:56:14Z</time>
      </trkpt>
      <trkpt lat="42.0107640" lon="-7.2046220">
        <ele>798.9</ele>
        <time>2019-08-17T08:56:15Z</time>
      </trkpt>
      <trkpt lat="42.0106550" lon="-7.2046030">
        <ele>798.4</ele>
        <time>2019-08-17T08:56:16Z</time>
      </trkpt>
      <trkpt lat="42.0105460" lon="-7.2045770">
        <ele>798.0</ele>
        <time>2019-08-17T08:56:17Z</time>
      </trkpt>
      <trkpt lat="42.0104390" lon="-7.2045450">
        <ele>797.7</ele>
        <time>2019-08-17T08:56:18Z</time>
      </trkpt>
      <trkpt lat="42.0103310" lon="-7.2045100">
        <ele>797.4</ele>
        <time>2019-08-17T08:56:19Z</time>
      </trkpt>
      <trkpt lat="42.0102240" lon="-7.2044710">
        <ele>797.1</ele>
        <time>2019-08-17T08:56:20Z</time>
      </trkpt>
      <trkpt lat="42.0101160" lon="-7.2044280">
        <ele>796.4</ele>
        <time>2019-08-17T08:56:21Z</time>
      </trkpt>
      <trkpt lat="42.0100080" lon="-7.2043840">
        <ele>795.6</ele>
        <time>2019-08-17T08:56:22Z</time>
      </trkpt>
      <trkpt lat="42.0098990" lon="-7.2043370">
        <ele>794.7</ele>
        <time>2019-08-17T08:56:23Z</time>
      </trkpt>
      <trkpt lat="42.0097900" lon="-7.2042910">
        <ele>794.0</ele>
        <time>2019-08-17T08:56:24Z</time>
      </trkpt>
      <trkpt lat="42.0096790" lon="-7.2042470">
        <ele>793.4</ele>
        <time>2019-08-17T08:56:25Z</time>
      </trkpt>
      <trkpt lat="42.0095680" lon="-7.2042060">
        <ele>792.9</ele>
        <time>2019-08-17T08:56:26Z</time>
      </trkpt>
      <trkpt lat="42.0094560" lon="-7.2041700">
        <ele>792.3</ele>
        <time>2019-08-17T08:56:27Z</time>
      </trkpt>
      <trkpt lat="42.0093430" lon="-7.2041400">
        <ele>791.6</ele>
        <time>2019-08-17T08:56:28Z</time>
      </trkpt>
      <trkpt lat="42.0092290" lon="-7.2041190">
        <ele>790.9</ele>
        <time>2019-08-17T08:56:29Z</time>
      </trkpt>
      <trkpt lat="42.0091140" lon="-7.2041090">
        <ele>790.2</ele>
        <time>2019-08-17T08:56:30Z</time>
      </trkpt>
      <trkpt lat="42.0090000" lon="-7.2041110">
        <ele>789.5</ele>
        <time>2019-08-17T08:56:31Z</time>
      </trkpt>
      <trkpt lat="42.0088880" lon="-7.2041270">
        <ele>788.8</ele>
        <time>2019-08-17T08:56:32Z</time>
      </trkpt>
      <trkpt lat="42.0087800" lon="-7.2041610">
        <ele>788.2</ele>
        <time>2019-08-17T08:56:33Z</time>
      </trkpt>
      <trkpt lat="42.0086760" lon="-7.2042140">
        <ele>787.6</ele>
        <time>2019-08-17T08:56:34Z</time>
      </trkpt>
      <trkpt lat="42.0085770" lon="-7.2042840">
        <ele>787.0</ele>
        <time>2019-08-17T08:56:35Z</time>
      </trkpt>
      <trkpt lat="42.0084850" lon="-7.2043680">
        <ele>786.4</ele>
        <time>2019-08-17T08:56:36Z</time>
      </trkpt>
      <trkpt lat="42.0083510" lon="-7.2045360">
        <ele>785.4</ele>
        <time>2019-08-17T08:56:37Z</time>
      </trkpt>
      <trkpt lat="42.0083040" lon="-7.2046090">
        <ele>785.0</ele>
        <time>2019-08-17T08:56:38Z</time>
      </trkpt>
      <trkpt lat="42.0082560" lon="-7.2046830">
        <ele>784.5</ele>
        <time>2019-08-17T08:56:39Z</time>
      </trkpt>
      <trkpt lat="42.0081900" lon="-7.2048000">
        <ele>783.8</ele>
        <time>2019-08-17T08:56:40Z</time>
      </trkpt>
      <trkpt lat="42.0081390" lon="-7.2049280">
        <ele>783.1</ele>
        <time>2019-08-17T08:56:41Z</time>
      </trkpt>
      <trkpt lat="42.0080870" lon="-7.2051370">
        <ele>782.0</ele>
        <time>2019-08-17T08:56:42Z</time>
      </trkpt>
      <trkpt lat="42.0080750" lon="-7.2052090">
        <ele>781.7</ele>
        <time>2019-08-17T08:56:43Z</time>
      </trkpt>
      <trkpt lat="42.0080510" lon="-7.2053530">
        <ele>781.0</ele>
        <time>2019-08-17T08:56:44Z</time>
      </trkpt>
      <trkpt lat="42.0080450" lon="-7.2055030">
        <ele>780.3</ele>
        <time>2019-08-17T08:56:45Z</time>
      </trkpt>
      <trkpt lat="42.0080520" lon="-7.2056550">
        <ele>779.6</ele>
        <time>2019-08-17T08:56:46Z</time>
      </trkpt>
      <trkpt lat="42.0080700" lon="-7.2058060">
        <ele>779.0</ele>
        <time>2019-08-17T08:56:47Z</time>
      </trkpt>
      <trkpt lat="42.0081000" lon="-7.2059540">
        <ele>778.3</ele>
        <time>2019-08-17T08:56:48Z</time>
      </trkpt>
      <trkpt lat="42.0081420" lon="-7.2060970">
        <ele>777.6</ele>
        <time>2019-08-17T08:56:49Z</time>
      </trkpt>
      <trkpt lat="42.0081950" lon="-7.2062340">
        <ele>776.9</ele>
        <time>2019-08-17T08:56:50Z</time>
      </trkpt>
      <trkpt lat="42.0082580" lon="-7.2063650">
        <ele>776.2</ele>
        <time>2019-08-17T08:56:51Z</time>
      </trkpt>
      <trkpt lat="42.0083270" lon="-7.2064920">
        <ele>775.4</ele>
        <time>2019-08-17T08:56:52Z</time>
      </trkpt>
      <trkpt lat="42.0083990" lon="-7.2066170">
        <ele>774.6</ele>
        <time>2019-08-17T08:56:53Z</time>
      </trkpt>
      <trkpt lat="42.0084730" lon="-7.2067390">
        <ele>773.8</ele>
        <time>2019-08-17T08:56:54Z</time>
      </trkpt>
      <trkpt lat="42.0085440" lon="-7.2068620">
        <ele>773.0</ele>
        <time>2019-08-17T08:56:55Z</time>
      </trkpt>
      <trkpt lat="42.0086100" lon="-7.2069850">
        <ele>772.3</ele>
        <time>2019-08-17T08:56:56Z</time>
      </trkpt>
      <trkpt lat="42.0086700" lon="-7.2071110">
        <ele>771.5</ele>
        <time>2019-08-17T08:56:57Z</time>
      </trkpt>
      <trkpt lat="42.0087210" lon="-7.2072400">
        <ele>770.7</ele>
        <time>2019-08-17T08:56:58Z</time>
      </trkpt>
      <trkpt lat="42.0087650" lon="-7.2073710">
        <ele>769.7</ele>
        <time>2019-08-17T08:56:59Z</time>
      </trkpt>
      <trkpt lat="42.0088000" lon="-7.2075040">
        <ele>768.8</ele>
        <time>2019-08-17T08:57:00Z</time>
      </trkpt>
      <trkpt lat="42.0088270" lon="-7.2076380">
        <ele>767.9</ele>
        <time>2019-08-17T08:57:01Z</time>
      </trkpt>
      <trkpt lat="42.0088450" lon="-7.2077750">
        <ele>767.1</ele>
        <time>2019-08-17T08:57:02Z</time>
      </trkpt>
      <trkpt lat="42.0088540" lon="-7.2079130">
        <ele>766.3</ele>
        <time>2019-08-17T08:57:03Z</time>
      </trkpt>
      <trkpt lat="42.0088540" lon="-7.2080510">
        <ele>765.4</ele>
        <time>2019-08-17T08:57:04Z</time>
      </trkpt>
      <trkpt lat="42.0088440" lon="-7.2081890">
        <ele>764.5</ele>
        <time>2019-08-17T08:57:05Z</time>
      </trkpt>
      <trkpt lat="42.0088250" lon="-7.2083240">
        <ele>763.7</ele>
        <time>2019-08-17T08:57:06Z</time>
      </trkpt>
      <trkpt lat="42.0087950" lon="-7.2084520">
        <ele>762.8</ele>
        <time>2019-08-17T08:57:07Z</time>
      </trkpt>
      <trkpt lat="42.0087560" lon="-7.2085730">
        <ele>762.0</ele>
        <time>2019-08-17T08:57:08Z</time>
      </trkpt>
      <trkpt lat="42.0087080" lon="-7.2086860">
        <ele>761.3</ele>
        <time>2019-08-17T08:57:09Z</time>
      </trkpt>
      <trkpt lat="42.0086500" lon="-7.2087930">
        <ele>760.6</ele>
        <time>2019-08-17T08:57:10Z</time>
      </trkpt>
      <trkpt lat="42.0085850" lon="-7.2088940">
        <ele>759.8</ele>
        <time>2019-08-17T08:57:11Z</time>
      </trkpt>
      <trkpt lat="42.0084600" lon="-7.2090430">
        <ele>758.6</ele>
        <time>2019-08-17T08:57:12Z</time>
      </trkpt>
      <trkpt lat="42.0084070" lon="-7.2090960">
        <ele>758.1</ele>
        <time>2019-08-17T08:57:13Z</time>
      </trkpt>
      <trkpt lat="42.0083530" lon="-7.2091500">
        <ele>757.5</ele>
        <time>2019-08-17T08:57:14Z</time>
      </trkpt>
      <trkpt lat="42.0082690" lon="-7.2092230">
        <ele>756.8</ele>
        <time>2019-08-17T08:57:15Z</time>
      </trkpt>
      <trkpt lat="42.0081760" lon="-7.2092780">
        <ele>756.0</ele>
        <time>2019-08-17T08:57:16Z</time>
      </trkpt>
      <trkpt lat="42.0080820" lon="-7.2093320">
        <ele>755.1</ele>
        <time>2019-08-17T08:57:17Z</time>
      </trkpt>
      <trkpt lat="42.0079830" lon="-7.2093700">
        <ele>754.3</ele>
        <time>2019-08-17T08:57:18Z</time>
      </trkpt>
      <trkpt lat="42.0078810" lon="-7.2093970">
        <ele>753.4</ele>
        <time>2019-08-17T08:57:19Z</time>
      </trkpt>
      <trkpt lat="42.0077780" lon="-7.2094110">
        <ele>752.7</ele>
        <time>2019-08-17T08:57:20Z</time>
      </trkpt>
      <trkpt lat="42.0076750" lon="-7.2094110">
        <ele>751.9</ele>
        <time>2019-08-17T08:57:21Z</time>
      </trkpt>
      <trkpt lat="42.0075730" lon="-7.2093990">
        <ele>751.1</ele>
        <time>2019-08-17T08:57:22Z</time>
      </trkpt>
      <trkpt lat="42.0074730" lon="-7.2093710">
        <ele>750.3</ele>
        <time>2019-08-17T08:57:23Z</time>
      </trkpt>
      <trkpt lat="42.0073760" lon="-7.2093290">
        <ele>749.6</ele>
        <time>2019-08-17T08:57:24Z</time>
      </trkpt>
      <trkpt lat="42.0072830" lon="-7.2092730">
        <ele>748.9</ele>
        <time>2019-08-17T08:57:25Z</time>
      </trkpt>
      <trkpt lat="42.0071930" lon="-7.2092050">
        <ele>748.2</ele>
        <time>2019-08-17T08:57:26Z</time>
      </trkpt>
      <trkpt lat="42.0071060" lon="-7.2091260">
        <ele>747.4</ele>
        <time>2019-08-17T08:57:27Z</time>
      </trkpt>
      <trkpt lat="42.0070240" lon="-7.2090370">
        <ele>746.5</ele>
        <time>2019-08-17T08:57:28Z</time>
      </trkpt>
      <trkpt lat="42.0069440" lon="-7.2089410">
        <ele>745.8</ele>
        <time>2019-08-17T08:57:29Z</time>
      </trkpt>
      <trkpt lat="42.0068690" lon="-7.2088380">
        <ele>745.1</ele>
        <time>2019-08-17T08:57:30Z</time>
      </trkpt>
      <trkpt lat="42.0067970" lon="-7.2087290">
        <ele>744.5</ele>
        <time>2019-08-17T08:57:31Z</time>
      </trkpt>
      <trkpt lat="42.0067280" lon="-7.2086180">
        <ele>743.8</ele>
        <time>2019-08-17T08:57:32Z</time>
      </trkpt>
      <trkpt lat="42.0066590" lon="-7.2085070">
        <ele>742.9</ele>
        <time>2019-08-17T08:57:33Z</time>
      </trkpt>
      <trkpt lat="42.0065880" lon="-7.2083980">
        <ele>741.9</ele>
        <time>2019-08-17T08:57:34Z</time>
      </trkpt>
      <trkpt lat="42.0065140" lon="-7.2082930">
        <ele>741.0</ele>
        <time>2019-08-17T08:57:35Z</time>
      </trkpt>
      <trkpt lat="42.0064360" lon="-7.2081960">
        <ele>740.3</ele>
        <time>2019-08-17T08:57:36Z</time>
      </trkpt>
      <trkpt lat="42.0063510" lon="-7.2081070">
        <ele>739.6</ele>
        <time>2019-08-17T08:57:37Z</time>
      </trkpt>
      <trkpt lat="42.0062600" lon="-7.2080300">
        <ele>739.1</ele>
        <time>2019-08-17T08:57:38Z</time>
      </trkpt>
      <trkpt lat="42.0061620" lon="-7.2079650">
        <ele>738.5</ele>
        <time>2019-08-17T08:57:39Z</time>
      </trkpt>
      <trkpt lat="42.0060600" lon="-7.2079130">
        <ele>737.8</ele>
        <time>2019-08-17T08:57:40Z</time>
      </trkpt>
      <trkpt lat="42.0059540" lon="-7.2078750">
        <ele>737.3</ele>
        <time>2019-08-17T08:57:41Z</time>
      </trkpt>
      <trkpt lat="42.0058470" lon="-7.2078510">
        <ele>737.1</ele>
        <time>2019-08-17T08:57:42Z</time>
      </trkpt>
      <trkpt lat="42.0057400" lon="-7.2078430">
        <ele>736.9</ele>
        <time>2019-08-17T08:57:43Z</time>
      </trkpt>
      <trkpt lat="42.0056340" lon="-7.2078510">
        <ele>736.8</ele>
        <time>2019-08-17T08:57:44Z</time>
      </trkpt>
      <trkpt lat="42.0055300" lon="-7.2078730">
        <ele>736.8</ele>
        <time>2019-08-17T08:57:45Z</time>
      </trkpt>
      <trkpt lat="42.0054300" lon="-7.2079080">
        <ele>736.8</ele>
        <time>2019-08-17T08:57:46Z</time>
      </trkpt>
      <trkpt lat="42.0053350" lon="-7.2079560">
        <ele>736.9</ele>
        <time>2019-08-17T08:57:47Z</time>
      </trkpt>
      <trkpt lat="42.0052450" lon="-7.2080130">
        <ele>737.0</ele>
        <time>2019-08-17T08:57:48Z</time>
      </trkpt>
      <trkpt lat="42.0051630" lon="-7.2080800">
        <ele>737.1</ele>
        <time>2019-08-17T08:57:49Z</time>
      </trkpt>
      <trkpt lat="42.0050490" lon="-7.2082090">
        <ele>737.3</ele>
        <time>2019-08-17T08:57:50Z</time>
      </trkpt>
      <trkpt lat="42.0050080" lon="-7.2082650">
        <ele>737.5</ele>
        <time>2019-08-17T08:57:51Z</time>
      </trkpt>
      <trkpt lat="42.0049680" lon="-7.2083200">
        <ele>738.0</ele>
        <time>2019-08-17T08:57:52Z</time>
      </trkpt>
      <trkpt lat="42.0049190" lon="-7.2084070">
        <ele>738.9</ele>
        <time>2019-08-17T08:57:53Z</time>
      </trkpt>
      <trkpt lat="42.0048780" lon="-7.2084960">
        <ele>739.7</ele>
        <time>2019-08-17T08:57:54Z</time>
      </trkpt>
      <trkpt lat="42.0048370" lon="-7.2085840">
        <ele>740.9</ele>
        <time>2019-08-17T08:57:55Z</time>
      </trkpt>
      <trkpt lat="42.0048010" lon="-7.2086690">
        <ele>741.1</ele>
        <time>2019-08-17T08:57:56Z</time>
      </trkpt>
      <trkpt lat="42.0047680" lon="-7.2087510">
        <ele>741.4</ele>
        <time>2019-08-17T08:57:57Z</time>
      </trkpt>
      <trkpt lat="42.0047360" lon="-7.2088280">
        <ele>741.7</ele>
        <time>2019-08-17T08:57:58Z</time>
      </trkpt>
      <trkpt lat="42.0047060" lon="-7.2089030">
        <ele>741.9</ele>
        <time>2019-08-17T08:57:59Z</time>
      </trkpt>
      <trkpt lat="42.0046780" lon="-7.2089740">
        <ele>742.2</ele>
        <time>2019-08-17T08:58:00Z</time>
      </trkpt>
      <trkpt lat="42.0046500" lon="-7.2090430">
        <ele>742.6</ele>
        <time>2019-08-17T08:58:01Z</time>
      </trkpt>
      <trkpt lat="42.0046240" lon="-7.2091100">
        <ele>743.0</ele>
        <time>2019-08-17T08:58:02Z</time>
      </trkpt>
      <trkpt lat="42.0045980" lon="-7.2091750">
        <ele>743.6</ele>
        <time>2019-08-17T08:58:03Z</time>
      </trkpt>
      <trkpt lat="42.0045730" lon="-7.2092380">
        <ele>744.3</ele>
        <time>2019-08-17T08:58:04Z</time>
      </trkpt>
      <trkpt lat="42.0045490" lon="-7.2093000">
        <ele>744.9</ele>
        <time>2019-08-17T08:58:05Z</time>
      </trkpt>
      <trkpt lat="42.0045250" lon="-7.2093610">
        <ele>745.6</ele>
        <time>2019-08-17T08:58:06Z</time>
      </trkpt>
      <trkpt lat="42.0045020" lon="-7.2094210">
        <ele>746.4</ele>
        <time>2019-08-17T08:58:07Z</time>
      </trkpt>
      <trkpt lat="42.0044790" lon="-7.2094790">
        <ele>747.1</ele>
        <time>2019-08-17T08:58:08Z</time>
      </trkpt>
      <trkpt lat="42.0044570" lon="-7.2095370">
        <ele>747.9</ele>
        <time>2019-08-17T08:58:09Z</time>
      </trkpt>
      <trkpt lat="42.0044350" lon="-7.2095930">
        <ele>748.6</ele>
        <time>2019-08-17T08:58:10Z</time>
      </trkpt>
      <trkpt lat="42.0044150" lon="-7.2096480">
        <ele>749.3</ele>
        <time>2019-08-17T08:58:11Z</time>
      </trkpt>
      <trkpt lat="42.0043950" lon="-7.2097030">
        <ele>749.9</ele>
        <time>2019-08-17T08:58:12Z</time>
      </trkpt>
      <trkpt lat="42.0043750" lon="-7.2097560">
        <ele>750.4</ele>
        <time>2019-08-17T08:58:13Z</time>
      </trkpt>
      <trkpt lat="42.0043570" lon="-7.2098090">
        <ele>751.0</ele>
        <time>2019-08-17T08:58:14Z</time>
      </trkpt>
      <trkpt lat="42.0043390" lon="-7.2098620">
        <ele>751.4</ele>
        <time>2019-08-17T08:58:15Z</time>
      </trkpt>
      <trkpt lat="42.0043220" lon="-7.2099150">
        <ele>751.9</ele>
        <time>2019-08-17T08:58:16Z</time>
      </trkpt>
      <trkpt lat="42.0043060" lon="-7.2099670">
        <ele>752.3</ele>
        <time>2019-08-17T08:58:17Z</time>
      </trkpt>
      <trkpt lat="42.0042920" lon="-7.2100190">
        <ele>752.7</ele>
        <time>2019-08-17T08:58:18Z</time>
      </trkpt>
      <trkpt lat="42.0042780" lon="-7.2100710">
        <ele>753.0</ele>
        <time>2019-08-17T08:58:19Z</time>
      </trkpt>
      <trkpt lat="42.0042580" lon="-7.2101580">
        <ele>753.5</ele>
        <time>2019-08-17T08:58:20Z</time>
      </trkpt>
      <trkpt lat="42.0042510" lon="-7.2101940">
        <ele>753.6</ele>
        <time>2019-08-17T08:58:21Z</time>
      </trkpt>
      <trkpt lat="42.0042440" lon="-7.2102290">
        <ele>753.8</ele>
        <time>2019-08-17T08:58:22Z</time>
      </trkpt>
      <trkpt lat="42.0042350" lon="-7.2102830">
        <ele>754.0</ele>
        <time>2019-08-17T08:58:23Z</time>
      </trkpt>
      <trkpt lat="42.0042270" lon="-7.2103380">
        <ele>754.2</ele>
        <time>2019-08-17T08:58:24Z</time>
      </trkpt>
      <trkpt lat="42.0042170" lon="-7.2104300">
        <ele>754.5</ele>
        <time>2019-08-17T08:58:25Z</time>
      </trkpt>
      <trkpt lat="42.0042140" lon="-7.2104660">
        <ele>754.6</ele>
        <time>2019-08-17T08:58:26Z</time>
      </trkpt>
      <trkpt lat="42.0042110" lon="-7.2105030">
        <ele>754.7</ele>
        <time>2019-08-17T08:58:27Z</time>
      </trkpt>
      <trkpt lat="42.0042070" lon="-7.2105570">
        <ele>754.9</ele>
        <time>2019-08-17T08:58:28Z</time>
      </trkpt>
      <trkpt lat="42.0042050" lon="-7.2106110">
        <ele>755.1</ele>
        <time>2019-08-17T08:58:29Z</time>
      </trkpt>
      <trkpt lat="42.0042030" lon="-7.2106640">
        <ele>755.3</ele>
        <time>2019-08-17T08:58:30Z</time>
      </trkpt>
      <trkpt lat="42.0042010" lon="-7.2107160">
        <ele>755.6</ele>
        <time>2019-08-17T08:58:31Z</time>
      </trkpt>
      <trkpt lat="42.0042010" lon="-7.2107680">
        <ele>755.8</ele>
        <time>2019-08-17T08:58:32Z</time>
      </trkpt>
      <trkpt lat="42.0042000" lon="-7.2108180">
        <ele>756.0</ele>
        <time>2019-08-17T08:58:33Z</time>
      </trkpt>
      <trkpt lat="42.0042000" lon="-7.2108670">
        <ele>756.2</ele>
        <time>2019-08-17T08:58:34Z</time>
      </trkpt>
      <trkpt lat="42.0042000" lon="-7.2109160">
        <ele>756.5</ele>
        <time>2019-08-17T08:58:35Z</time>
      </trkpt>
      <trkpt lat="42.0041990" lon="-7.2109650">
        <ele>756.7</ele>
        <time>2019-08-17T08:58:36Z</time>
      </trkpt>
      <trkpt lat="42.0041980" lon="-7.2110130">
        <ele>756.9</ele>
        <time>2019-08-17T08:58:37Z</time>
      </trkpt>
      <trkpt lat="42.0041980" lon="-7.2110610">
        <ele>757.1</ele>
        <time>2019-08-17T08:58:38Z</time>
      </trkpt>
      <trkpt lat="42.0041960" lon="-7.2111100">
        <ele>757.4</ele>
        <time>2019-08-17T08:58:39Z</time>
      </trkpt>
      <trkpt lat="42.0041950" lon="-7.2111580">
        <ele>757.5</ele>
        <time>2019-08-17T08:58:40Z</time>
      </trkpt>
      <trkpt lat="42.0041940" lon="-7.2112060">
        <ele>757.7</ele>
        <time>2019-08-17T08:58:41Z</time>
      </trkpt>
      <trkpt lat="42.0041930" lon="-7.2112540">
        <ele>757.9</ele>
        <time>2019-08-17T08:58:42Z</time>
      </trkpt>
      <trkpt lat="42.0041910" lon="-7.2113030">
        <ele>758.1</ele>
        <time>2019-08-17T08:58:43Z</time>
      </trkpt>
      <trkpt lat="42.0041900" lon="-7.2113520">
        <ele>758.3</ele>
        <time>2019-08-17T08:58:44Z</time>
      </trkpt>
      <trkpt lat="42.0041890" lon="-7.2114010">
        <ele>758.4</ele>
        <time>2019-08-17T08:58:45Z</time>
      </trkpt>
      <trkpt lat="42.0041870" lon="-7.2114500">
        <ele>758.6</ele>
        <time>2019-08-17T08:58:46Z</time>
      </trkpt>
      <trkpt lat="42.0041860" lon="-7.2114990">
        <ele>758.7</ele>
        <time>2019-08-17T08:58:47Z</time>
      </trkpt>
      <trkpt lat="42.0041850" lon="-7.2115480">
        <ele>758.9</ele>
        <time>2019-08-17T08:58:48Z</time>
      </trkpt>
      <trkpt lat="42.0041830" lon="-7.2115980">
        <ele>759.1</ele>
        <time>2019-08-17T08:58:49Z</time>
      </trkpt>
      <trkpt lat="42.0041820" lon="-7.2116470">
        <ele>759.3</ele>
        <time>2019-08-17T08:58:50Z</time>
      </trkpt>
      <trkpt lat="42.0041810" lon="-7.2116950">
        <ele>759.5</ele>
        <time>2019-08-17T08:58:51Z</time>
      </trkpt>
      <trkpt lat="42.0041800" lon="-7.2117440">
        <ele>759.7</ele>
        <time>2019-08-17T08:58:52Z</time>
      </trkpt>
      <trkpt lat="42.0041780" lon="-7.2117920">
        <ele>759.9</ele>
        <time>2019-08-17T08:58:53Z</time>
      </trkpt>
      <trkpt lat="42.0041770" lon="-7.2118400">
        <ele>760.1</ele>
        <time>2019-08-17T08:58:54Z</time>
      </trkpt>
      <trkpt lat="42.0041760" lon="-7.2118870">
        <ele>760.3</ele>
        <time>2019-08-17T08:58:55Z</time>
      </trkpt>
      <trkpt lat="42.0041750" lon="-7.2119330">
        <ele>760.5</ele>
        <time>2019-08-17T08:58:56Z</time>
      </trkpt>
      <trkpt lat="42.0041740" lon="-7.2119780">
        <ele>760.7</ele>
        <time>2019-08-17T08:58:57Z</time>
      </trkpt>
      <trkpt lat="42.0041740" lon="-7.2120230">
        <ele>760.9</ele>
        <time>2019-08-17T08:58:58Z</time>
      </trkpt>
      <trkpt lat="42.0041730" lon="-7.2120670">
        <ele>761.0</ele>
        <time>2019-08-17T08:58:59Z</time>
      </trkpt>
      <trkpt lat="42.0041730" lon="-7.2121100">
        <ele>761.2</ele>
        <time>2019-08-17T08:59:00Z</time>
      </trkpt>
      <trkpt lat="42.0041720" lon="-7.2121530">
        <ele>761.4</ele>
        <time>2019-08-17T08:59:01Z</time>
      </trkpt>
      <trkpt lat="42.0041720" lon="-7.2121950">
        <ele>761.6</ele>
        <time>2019-08-17T08:59:02Z</time>
      </trkpt>
      <trkpt lat="42.0041720" lon="-7.2122370">
        <ele>761.8</ele>
        <time>2019-08-17T08:59:03Z</time>
      </trkpt>
      <trkpt lat="42.0041720" lon="-7.2122800">
        <ele>762.0</ele>
        <time>2019-08-17T08:59:04Z</time>
      </trkpt>
      <trkpt lat="42.0041710" lon="-7.2123220">
        <ele>762.2</ele>
        <time>2019-08-17T08:59:05Z</time>
      </trkpt>
      <trkpt lat="42.0041710" lon="-7.2123640">
        <ele>762.4</ele>
        <time>2019-08-17T08:59:06Z</time>
      </trkpt>
      <trkpt lat="42.0041710" lon="-7.2124060">
        <ele>762.6</ele>
        <time>2019-08-17T08:59:07Z</time>
      </trkpt>
      <trkpt lat="42.0041700" lon="-7.2124490">
        <ele>762.8</ele>
        <time>2019-08-17T08:59:08Z</time>
      </trkpt>
      <trkpt lat="42.0041700" lon="-7.2124910">
        <ele>763.0</ele>
        <time>2019-08-17T08:59:09Z</time>
      </trkpt>
      <trkpt lat="42.0041700" lon="-7.2125330">
        <ele>763.2</ele>
        <time>2019-08-17T08:59:10Z</time>
      </trkpt>
      <trkpt lat="42.0041690" lon="-7.2125750">
        <ele>763.5</ele>
        <time>2019-08-17T08:59:11Z</time>
      </trkpt>
      <trkpt lat="42.0041690" lon="-7.2126170">
        <ele>763.7</ele>
        <time>2019-08-17T08:59:12Z</time>
      </trkpt>
      <trkpt lat="42.0041690" lon="-7.2126590">
        <ele>763.9</ele>
        <time>2019-08-17T08:59:13Z</time>
      </trkpt>
      <trkpt lat="42.0041680" lon="-7.2127010">
        <ele>764.1</ele>
        <time>2019-08-17T08:59:14Z</time>
      </trkpt>
      <trkpt lat="42.0041680" lon="-7.2127430">
        <ele>764.5</ele>
        <time>2019-08-17T08:59:15Z</time>
      </trkpt>
      <trkpt lat="42.0041680" lon="-7.2127840">
        <ele>764.7</ele>
        <time>2019-08-17T08:59:16Z</time>
      </trkpt>
      <trkpt lat="42.0041680" lon="-7.2128260">
        <ele>764.9</ele>
        <time>2019-08-17T08:59:17Z</time>
      </trkpt>
      <trkpt lat="42.0041670" lon="-7.2128670">
        <ele>765.1</ele>
        <time>2019-08-17T08:59:18Z</time>
      </trkpt>
      <trkpt lat="42.0041670" lon="-7.2129080">
        <ele>765.3</ele>
        <time>2019-08-17T08:59:19Z</time>
      </trkpt>
      <trkpt lat="42.0041670" lon="-7.2129490">
        <ele>765.5</ele>
        <time>2019-08-17T08:59:20Z</time>
      </trkpt>
      <trkpt lat="42.0041660" lon="-7.2129900">
        <ele>765.7</ele>
        <time>2019-08-17T08:59:21Z</time>
      </trkpt>
      <trkpt lat="42.0041660" lon="-7.2130310">
        <ele>765.9</ele>
        <time>2019-08-17T08:59:22Z</time>
      </trkpt>
      <trkpt lat="42.0041660" lon="-7.2130710">
        <ele>766.0</ele>
        <time>2019-08-17T08:59:23Z</time>
      </trkpt>
      <trkpt lat="42.0041650" lon="-7.2131110">
        <ele>766.2</ele>
        <time>2019-08-17T08:59:24Z</time>
      </trkpt>
      <trkpt lat="42.0041650" lon="-7.2131520">
        <ele>766.4</ele>
        <time>2019-08-17T08:59:25Z</time>
      </trkpt>
      <trkpt lat="42.0041640" lon="-7.2131910">
        <ele>766.6</ele>
        <time>2019-08-17T08:59:26Z</time>
      </trkpt>
      <trkpt lat="42.0041640" lon="-7.2132310">
        <ele>766.8</ele>
        <time>2019-08-17T08:59:27Z</time>
      </trkpt>
      <trkpt lat="42.0041630" lon="-7.2132710">
        <ele>767.0</ele>
        <time>2019-08-17T08:59:28Z</time>
      </trkpt>
      <trkpt lat="42.0041620" lon="-7.2133100">
        <ele>767.2</ele>
        <time>2019-08-17T08:59:29Z</time>
      </trkpt>
      <trkpt lat="42.0041610" lon="-7.2133490">
        <ele>767.4</ele>
        <time>2019-08-17T08:59:30Z</time>
      </trkpt>
      <trkpt lat="42.0041600" lon="-7.2133880">
        <ele>767.7</ele>
        <time>2019-08-17T08:59:31Z</time>
      </trkpt>
      <trkpt lat="42.0041580" lon="-7.2134260">
        <ele>767.9</ele>
        <time>2019-08-17T08:59:32Z</time>
      </trkpt>
      <trkpt lat="42.0041570" lon="-7.2134640">
        <ele>768.1</ele>
        <time>2019-08-17T08:59:33Z</time>
      </trkpt>
      <trkpt lat="42.0041550" lon="-7.2135020">
        <ele>768.3</ele>
        <time>2019-08-17T08:59:34Z</time>
      </trkpt>
      <trkpt lat="42.0041530" lon="-7.2135400">
        <ele>768.5</ele>
        <time>2019-08-17T08:59:35Z</time>
      </trkpt>
      <trkpt lat="42.0041520" lon="-7.2135780">
        <ele>768.7</ele>
        <time>2019-08-17T08:59:36Z</time>
      </trkpt>
      <trkpt lat="42.0041500" lon="-7.2136150">
        <ele>768.9</ele>
        <time>2019-08-17T08:59:37Z</time>
      </trkpt>
      <trkpt lat="42.0041480" lon="-7.2136520">
        <ele>769.0</ele>
        <time>2019-08-17T08:59:38Z</time>
      </trkpt>
      <trkpt lat="42.0041460" lon="-7.2136890">
        <ele>769.2</ele>
        <time>2019-08-17T08:59:39Z</time>
      </trkpt>
      <trkpt lat="42.0041440" lon="-7.2137260">
        <ele>769.4</ele>
        <time>2019-08-17T08:59:40Z</time>
      </trkpt>
      <trkpt lat="42.0041420" lon="-7.2137630">
        <ele>769.6</ele>
        <time>2019-08-17T08:59:41Z</time>
      </trkpt>
      <trkpt lat="42.0041390" lon="-7.2137990">
        <ele>769.8</ele>
        <time>2019-08-17T08:59:42Z</time>
      </trkpt>
      <trkpt lat="42.0041370" lon="-7.2138360">
        <ele>769.9</ele>
        <time>2019-08-17T08:59:43Z</time>
      </trkpt>
      <trkpt lat="42.0041350" lon="-7.2138720">
        <ele>770.1</ele>
        <time>2019-08-17T08:59:44Z</time>
      </trkpt>
      <trkpt lat="42.0041330" lon="-7.2139080">
        <ele>770.3</ele>
        <time>2019-08-17T08:59:45Z</time>
      </trkpt>
      <trkpt lat="42.0041310" lon="-7.2139440">
        <ele>770.4</ele>
        <time>2019-08-17T08:59:46Z</time>
      </trkpt>
      <trkpt lat="42.0041280" lon="-7.2139790">
        <ele>770.6</ele>
        <time>2019-08-17T08:59:47Z</time>
      </trkpt>
      <trkpt lat="42.0041260" lon="-7.2140150">
        <ele>770.7</ele>
        <time>2019-08-17T08:59:48Z</time>
      </trkpt>
      <trkpt lat="42.0041240" lon="-7.2140500">
        <ele>770.8</ele>
        <time>2019-08-17T08:59:49Z</time>
      </trkpt>
      <trkpt lat="42.0041220" lon="-7.2140850">
        <ele>771.0</ele>
        <time>2019-08-17T08:59:50Z</time>
      </trkpt>
      <trkpt lat="42.0041200" lon="-7.2141200">
        <ele>771.1</ele>
        <time>2019-08-17T08:59:51Z</time>
      </trkpt>
      <trkpt lat="42.0041180" lon="-7.2141550">
        <ele>771.2</ele>
        <time>2019-08-17T08:59:52Z</time>
      </trkpt>
      <trkpt lat="42.0041160" lon="-7.2141900">
        <ele>771.3</ele>
        <time>2019-08-17T08:59:53Z</time>
      </trkpt>
      <trkpt lat="42.0041150" lon="-7.2142250">
        <ele>771.4</ele>
        <time>2019-08-17T08:59:54Z</time>
      </trkpt>
      <trkpt lat="42.0041130" lon="-7.2142600">
        <ele>771.5</ele>
        <time>2019-08-17T08:59:55Z</time>
      </trkpt>
      <trkpt lat="42.0041110" lon="-7.2142940">
        <ele>771.7</ele>
        <time>2019-08-17T08:59:56Z</time>
      </trkpt>
      <trkpt lat="42.0041100" lon="-7.2143290">
        <ele>771.8</ele>
        <time>2019-08-17T08:59:57Z</time>
      </trkpt>
      <trkpt lat="42.0041090" lon="-7.2143630">
        <ele>771.8</ele>
        <time>2019-08-17T08:59:58Z</time>
      </trkpt>
      <trkpt lat="42.0041070" lon="-7.2143970">
        <ele>771.9</ele>
        <time>2019-08-17T08:59:59Z</time>
      </trkpt>
      <trkpt lat="42.0041060" lon="-7.2144310">
        <ele>772.0</ele>
        <time>2019-08-17T09:00:00Z</time>
      </trkpt>
      <trkpt lat="42.0041050" lon="-7.2144650">
        <ele>772.1</ele>
        <time>2019-08-17T09:00:01Z</time>
      </trkpt>
      <trkpt lat="42.0041040" lon="-7.2145000">
        <ele>772.2</ele>
        <time>2019-08-17T09:00:02Z</time>
      </trkpt>
      <trkpt lat="42.0041030" lon="-7.2145340">
        <ele>772.3</ele>
        <time>2019-08-17T09:00:03Z</time>
      </trkpt>
      <trkpt lat="42.0041020" lon="-7.2145680">
        <ele>772.3</ele>
        <time>2019-08-17T09:00:04Z</time>
      </trkpt>
      <trkpt lat="42.0041010" lon="-7.2146020">
        <ele>772.4</ele>
        <time>2019-08-17T09:00:05Z</time>
      </trkpt>
      <trkpt lat="42.0041000" lon="-7.2146360">
        <ele>772.5</ele>
        <time>2019-08-17T09:00:06Z</time>
      </trkpt>
      <trkpt lat="42.0040990" lon="-7.2146700">
        <ele>772.6</ele>
        <time>2019-08-17T09:00:07Z</time>
      </trkpt>
      <trkpt lat="42.0040980" lon="-7.2147040">
        <ele>772.7</ele>
        <time>2019-08-17T09:00:08Z</time>
      </trkpt>
      <trkpt lat="42.0040970" lon="-7.2147380">
        <ele>772.7</ele>
        <time>2019-08-17T09:00:09Z</time>
      </trkpt>
      <trkpt lat="42.0040960" lon="-7.2147720">
        <ele>772.8</ele>
        <time>2019-08-17T09:00:10Z</time>
      </trkpt>
      <trkpt lat="42.0040940" lon="-7.2148060">
        <ele>772.9</ele>
        <time>2019-08-17T09:00:11Z</time>
      </trkpt>
      <trkpt lat="42.0040930" lon="-7.2148400">
        <ele>773.0</ele>
        <time>2019-08-17T09:00:12Z</time>
      </trkpt>
      <trkpt lat="42.0040910" lon="-7.2148740">
        <ele>773.1</ele>
        <time>2019-08-17T09:00:13Z</time>
      </trkpt>
      <trkpt lat="42.0040890" lon="-7.2149080">
        <ele>773.2</ele>
        <time>2019-08-17T09:00:14Z</time>
      </trkpt>
      <trkpt lat="42.0040870" lon="-7.2149420">
        <ele>773.3</ele>
        <time>2019-08-17T09:00:15Z</time>
      </trkpt>
      <trkpt lat="42.0040840" lon="-7.2149770">
        <ele>773.4</ele>
        <time>2019-08-17T09:00:16Z</time>
      </trkpt>
      <trkpt lat="42.0040820" lon="-7.2150110">
        <ele>773.5</ele>
        <time>2019-08-17T09:00:17Z</time>
      </trkpt>
      <trkpt lat="42.0040790" lon="-7.2150450">
        <ele>773.6</ele>
        <time>2019-08-17T09:00:18Z</time>
      </trkpt>
      <trkpt lat="42.0040760" lon="-7.2150800">
        <ele>773.7</ele>
        <time>2019-08-17T09:00:19Z</time>
      </trkpt>
      <trkpt lat="42.0040720" lon="-7.2151150">
        <ele>773.8</ele>
        <time>2019-08-17T09:00:20Z</time>
      </trkpt>
      <trkpt lat="42.0040690" lon="-7.2151500">
        <ele>773.9</ele>
        <time>2019-08-17T09:00:21Z</time>
      </trkpt>
      <trkpt lat="42.0040650" lon="-7.2151850">
        <ele>774.0</ele>
        <time>2019-08-17T09:00:22Z</time>
      </trkpt>
      <trkpt lat="42.0040610" lon="-7.2152200">
        <ele>774.2</ele>
        <time>2019-08-17T09:00:23Z</time>
      </trkpt>
      <trkpt lat="42.0040560" lon="-7.2152550">
        <ele>774.3</ele>
        <time>2019-08-17T09:00:24Z</time>
      </trkpt>
      <trkpt lat="42.0040510" lon="-7.2152900">
        <ele>774.4</ele>
        <time>2019-08-17T09:00:25Z</time>
      </trkpt>
      <trkpt lat="42.0040460" lon="-7.2153260">
        <ele>774.5</ele>
        <time>2019-08-17T09:00:26Z</time>
      </trkpt>
      <trkpt lat="42.0040400" lon="-7.2153610">
        <ele>774.7</ele>
        <time>2019-08-17T09:00:27Z</time>
      </trkpt>
      <trkpt lat="42.0040340" lon="-7.2153970">
        <ele>774.8</ele>
        <time>2019-08-17T09:00:28Z</time>
      </trkpt>
      <trkpt lat="42.0040270" lon="-7.2154320">
        <ele>774.9</ele>
        <time>2019-08-17T09:00:29Z</time>
      </trkpt>
      <trkpt lat="42.0040200" lon="-7.2154670">
        <ele>775.1</ele>
        <time>2019-08-17T09:00:30Z</time>
      </trkpt>
      <trkpt lat="42.0040130" lon="-7.2155020">
        <ele>775.2</ele>
        <time>2019-08-17T09:00:31Z</time>
      </trkpt>
      <trkpt lat="42.0040050" lon="-7.2155370">
        <ele>775.3</ele>
        <time>2019-08-17T09:00:32Z</time>
      </trkpt>
      <trkpt lat="42.0039970" lon="-7.2155720">
        <ele>775.4</ele>
        <time>2019-08-17T09:00:33Z</time>
      </trkpt>
      <trkpt lat="42.0039880" lon="-7.2156060">
        <ele>775.5</ele>
        <time>2019-08-17T09:00:34Z</time>
      </trkpt>
      <trkpt lat="42.0039790" lon="-7.2156400">
        <ele>775.7</ele>
        <time>2019-08-17T09:00:35Z</time>
      </trkpt>
      <trkpt lat="42.0039700" lon="-7.2156740">
        <ele>775.8</ele>
        <time>2019-08-17T09:00:36Z</time>
      </trkpt>
      <trkpt lat="42.0039600" lon="-7.2157090">
        <ele>775.9</ele>
        <time>2019-08-17T09:00:37Z</time>
      </trkpt>
      <trkpt lat="42.0039500" lon="-7.2157430">
        <ele>776.0</ele>
        <time>2019-08-17T09:00:38Z</time>
      </trkpt>
      <trkpt lat="42.0039390" lon="-7.2157770">
        <ele>776.1</ele>
        <time>2019-08-17T09:00:39Z</time>
      </trkpt>
      <trkpt lat="42.0039290" lon="-7.2158110">
        <ele>776.1</ele>
        <time>2019-08-17T09:00:40Z</time>
      </trkpt>
      <trkpt lat="42.0039180" lon="-7.2158450">
        <ele>776.2</ele>
        <time>2019-08-17T09:00:41Z</time>
      </trkpt>
      <trkpt lat="42.0039060" lon="-7.2158800">
        <ele>776.3</ele>
        <time>2019-08-17T09:00:42Z</time>
      </trkpt>
      <trkpt lat="42.0038940" lon="-7.2159140">
        <ele>776.4</ele>
        <time>2019-08-17T09:00:43Z</time>
      </trkpt>
      <trkpt lat="42.0038820" lon="-7.2159490">
        <ele>776.5</ele>
        <time>2019-08-17T09:00:44Z</time>
      </trkpt>
      <trkpt lat="42.0038690" lon="-7.2159840">
        <ele>776.6</ele>
        <time>2019-08-17T09:00:45Z</time>
      </trkpt>
      <trkpt lat="42.0038550" lon="-7.2160200">
        <ele>776.7</ele>
        <time>2019-08-17T09:00:46Z</time>
      </trkpt>
      <trkpt lat="42.0038410" lon="-7.2160550">
        <ele>776.8</ele>
        <time>2019-08-17T09:00:47Z</time>
      </trkpt>
      <trkpt lat="42.0038260" lon="-7.2160910">
        <ele>776.8</ele>
        <time>2019-08-17T09:00:48Z</time>
      </trkpt>
      <trkpt lat="42.0038110" lon="-7.2161280">
        <ele>776.9</ele>
        <time>2019-08-17T09:00:49Z</time>
      </trkpt>
      <trkpt lat="42.0037940" lon="-7.2161650">
        <ele>777.0</ele>
        <time>2019-08-17T09:00:50Z</time>
      </trkpt>
      <trkpt lat="42.0037770" lon="-7.2162020">
        <ele>777.1</ele>
        <time>2019-08-17T09:00:51Z</time>
      </trkpt>
      <trkpt lat="42.0037590" lon="-7.2162400">
        <ele>777.2</ele>
        <time>2019-08-17T09:00:52Z</time>
      </trkpt>
      <trkpt lat="42.0037410" lon="-7.2162790">
        <ele>777.3</ele>
        <time>2019-08-17T09:00:53Z</time>
      </trkpt>
      <trkpt lat="42.0037210" lon="-7.2163180">
        <ele>777.4</ele>
        <time>2019-08-17T09:00:54Z</time>
      </trkpt>
      <trkpt lat="42.0037010" lon="-7.2163580">
        <ele>777.6</ele>
        <time>2019-08-17T09:00:55Z</time>
      </trkpt>
      <trkpt lat="42.0036790" lon="-7.2163990">
        <ele>777.7</ele>
        <time>2019-08-17T09:00:56Z</time>
      </trkpt>
      <trkpt lat="42.0036570" lon="-7.2164410">
        <ele>777.8</ele>
        <time>2019-08-17T09:00:57Z</time>
      </trkpt>
      <trkpt lat="42.0036330" lon="-7.2164840">
        <ele>777.9</ele>
        <time>2019-08-17T09:00:58Z</time>
      </trkpt>
      <trkpt lat="42.0036080" lon="-7.2165280">
        <ele>778.0</ele>
        <time>2019-08-17T09:00:59Z</time>
      </trkpt>
      <trkpt lat="42.0035690" lon="-7.2165970">
        <ele>778.2</ele>
        <time>2019-08-17T09:01:00Z</time>
      </trkpt>
      <trkpt lat="42.0035560" lon="-7.2166200">
        <ele>778.3</ele>
        <time>2019-08-17T09:01:01Z</time>
      </trkpt>
      <trkpt lat="42.0035290" lon="-7.2166660">
        <ele>778.4</ele>
        <time>2019-08-17T09:01:02Z</time>
      </trkpt>
      <trkpt lat="42.0035010" lon="-7.2167130">
        <ele>778.5</ele>
        <time>2019-08-17T09:01:03Z</time>
      </trkpt>
      <trkpt lat="42.0034730" lon="-7.2167600">
        <ele>778.7</ele>
        <time>2019-08-17T09:01:04Z</time>
      </trkpt>
      <trkpt lat="42.0034450" lon="-7.2168070">
        <ele>778.8</ele>
        <time>2019-08-17T09:01:05Z</time>
      </trkpt>
      <trkpt lat="42.0034170" lon="-7.2168540">
        <ele>778.9</ele>
        <time>2019-08-17T09:01:06Z</time>
      </trkpt>
      <trkpt lat="42.0033890" lon="-7.2169000">
        <ele>778.9</ele>
        <time>2019-08-17T09:01:07Z</time>
      </trkpt>
      <trkpt lat="42.0033620" lon="-7.2169460">
        <ele>779.0</ele>
        <time>2019-08-17T09:01:08Z</time>
      </trkpt>
      <trkpt lat="42.0033340" lon="-7.2169910">
        <ele>779.1</ele>
        <time>2019-08-17T09:01:09Z</time>
      </trkpt>
      <trkpt lat="42.0033070" lon="-7.2170370">
        <ele>779.3</ele>
        <time>2019-08-17T09:01:10Z</time>
      </trkpt>
      <trkpt lat="42.0032790" lon="-7.2170820">
        <ele>779.4</ele>
        <time>2019-08-17T09:01:11Z</time>
      </trkpt>
      <trkpt lat="42.0032520" lon="-7.2171270">
        <ele>779.5</ele>
        <time>2019-08-17T09:01:12Z</time>
      </trkpt>
      <trkpt lat="42.0032250" lon="-7.2171720">
        <ele>779.6</ele>
        <time>2019-08-17T09:01:13Z</time>
      </trkpt>
      <trkpt lat="42.0031980" lon="-7.2172160">
        <ele>779.7</ele>
        <time>2019-08-17T09:01:14Z</time>
      </trkpt>
      <trkpt lat="42.0031710" lon="-7.2172610">
        <ele>779.8</ele>
        <time>2019-08-17T09:01:15Z</time>
      </trkpt>
      <trkpt lat="42.0031450" lon="-7.2173050">
        <ele>780.0</ele>
        <time>2019-08-17T09:01:16Z</time>
      </trkpt>
      <trkpt lat="42.0031180" lon="-7.2173500">
        <ele>780.1</ele>
        <time>2019-08-17T09:01:17Z</time>
      </trkpt>
      <trkpt lat="42.0030920" lon="-7.2173940">
        <ele>780.2</ele>
        <time>2019-08-17T09:01:18Z</time>
      </trkpt>
      <trkpt lat="42.0030660" lon="-7.2174390">
        <ele>780.3</ele>
        <time>2019-08-17T09:01:19Z</time>
      </trkpt>
      <trkpt lat="42.0030400" lon="-7.2174830">
        <ele>780.4</ele>
        <time>2019-08-17T09:01:20Z</time>
      </trkpt>
      <trkpt lat="42.0030140" lon="-7.2175280">
        <ele>780.5</ele>
        <time>2019-08-17T09:01:21Z</time>
      </trkpt>
      <trkpt lat="42.0029880" lon="-7.2175730">
        <ele>780.6</ele>
        <time>2019-08-17T09:01:22Z</time>
      </trkpt>
      <trkpt lat="42.0029630" lon="-7.2176180">
        <ele>780.6</ele>
        <time>2019-08-17T09:01:23Z</time>
      </trkpt>
      <trkpt lat="42.0029390" lon="-7.2176640">
        <ele>780.7</ele>
        <time>2019-08-17T09:01:24Z</time>
      </trkpt>
      <trkpt lat="42.0029150" lon="-7.2177100">
        <ele>780.7</ele>
        <time>2019-08-17T09:01:25Z</time>
      </trkpt>
      <trkpt lat="42.0028910" lon="-7.2177560">
        <ele>780.8</ele>
        <time>2019-08-17T09:01:26Z</time>
      </trkpt>
      <trkpt lat="42.0028680" lon="-7.2178030">
        <ele>780.8</ele>
        <time>2019-08-17T09:01:27Z</time>
      </trkpt>
      <trkpt lat="42.0028460" lon="-7.2178510">
        <ele>780.8</ele>
        <time>2019-08-17T09:01:28Z</time>
      </trkpt>
      <trkpt lat="42.0028250" lon="-7.2178990">
        <ele>780.8</ele>
        <time>2019-08-17T09:01:29Z</time>
      </trkpt>
      <trkpt lat="42.0028050" lon="-7.2179470">
        <ele>780.8</ele>
        <time>2019-08-17T09:01:30Z</time>
      </trkpt>
      <trkpt lat="42.0027860" lon="-7.2179960">
        <ele>780.9</ele>
        <time>2019-08-17T09:01:31Z</time>
      </trkpt>
      <trkpt lat="42.0027690" lon="-7.2180460">
        <ele>780.9</ele>
        <time>2019-08-17T09:01:32Z</time>
      </trkpt>
      <trkpt lat="42.0027530" lon="-7.2180970">
        <ele>780.9</ele>
        <time>2019-08-17T09:01:33Z</time>
      </trkpt>
      <trkpt lat="42.0027390" lon="-7.2181480">
        <ele>780.9</ele>
        <time>2019-08-17T09:01:34Z</time>
      </trkpt>
      <trkpt lat="42.0027280" lon="-7.2181990">
        <ele>780.9</ele>
        <time>2019-08-17T09:01:35Z</time>
      </trkpt>
      <trkpt lat="42.0027190" lon="-7.2182510">
        <ele>780.9</ele>
        <time>2019-08-17T09:01:36Z</time>
      </trkpt>
      <trkpt lat="42.0027120" lon="-7.2183030">
        <ele>781.0</ele>
        <time>2019-08-17T09:01:37Z</time>
      </trkpt>
      <trkpt lat="42.0027080" lon="-7.2183540">
        <ele>781.0</ele>
        <time>2019-08-17T09:01:38Z</time>
      </trkpt>
      <trkpt lat="42.0027070" lon="-7.2184060">
        <ele>781.0</ele>
        <time>2019-08-17T09:01:39Z</time>
      </trkpt>
      <trkpt lat="42.0027080" lon="-7.2184580">
        <ele>781.1</ele>
        <time>2019-08-17T09:01:40Z</time>
      </trkpt>
      <trkpt lat="42.0027110" lon="-7.2185090">
        <ele>781.1</ele>
        <time>2019-08-17T09:01:41Z</time>
      </trkpt>
      <trkpt lat="42.0027130" lon="-7.2185610">
        <ele>781.1</ele>
        <time>2019-08-17T09:01:42Z</time>
      </trkpt>
      <trkpt lat="42.0027150" lon="-7.2186120">
        <ele>781.2</ele>
        <time>2019-08-17T09:01:43Z</time>
      </trkpt>
      <trkpt lat="42.0027150" lon="-7.2186630">
        <ele>781.3</ele>
        <time>2019-08-17T09:01:44Z</time>
      </trkpt>
      <trkpt lat="42.0027130" lon="-7.2187140">
        <ele>781.3</ele>
        <time>2019-08-17T09:01:45Z</time>
      </trkpt>
      <trkpt lat="42.0027090" lon="-7.2187650">
        <ele>781.3</ele>
        <time>2019-08-17T09:01:46Z</time>
      </trkpt>
      <trkpt lat="42.0027030" lon="-7.2188180">
        <ele>781.7</ele>
        <time>2019-08-17T09:01:47Z</time>
      </trkpt>
      <trkpt lat="42.0026970" lon="-7.2188720">
        <ele>781.8</ele>
        <time>2019-08-17T09:01:48Z</time>
      </trkpt>
      <trkpt lat="42.0026900" lon="-7.2189270">
        <ele>781.9</ele>
        <time>2019-08-17T09:01:49Z</time>
      </trkpt>
      <trkpt lat="42.0026850" lon="-7.2189840">
        <ele>782.0</ele>
        <time>2019-08-17T09:01:50Z</time>
      </trkpt>
      <trkpt lat="42.0026810" lon="-7.2190420">
        <ele>782.1</ele>
        <time>2019-08-17T09:01:51Z</time>
      </trkpt>
      <trkpt lat="42.0026790" lon="-7.2190990">
        <ele>782.1</ele>
        <time>2019-08-17T09:01:52Z</time>
      </trkpt>
      <trkpt lat="42.0026800" lon="-7.2191570">
        <ele>782.2</ele>
        <time>2019-08-17T09:01:53Z</time>
      </trkpt>
      <trkpt lat="42.0026810" lon="-7.2192160">
        <ele>782.2</ele>
        <time>2019-08-17T09:01:54Z</time>
      </trkpt>
      <trkpt lat="42.0026830" lon="-7.2192770">
        <ele>782.2</ele>
        <time>2019-08-17T09:01:55Z</time>
      </trkpt>
      <trkpt lat="42.0026840" lon="-7.2193400">
        <ele>782.2</ele>
        <time>2019-08-17T09:01:56Z</time>
      </trkpt>
      <trkpt lat="42.0026860" lon="-7.2194050">
        <ele>782.2</ele>
        <time>2019-08-17T09:01:57Z</time>
      </trkpt>
      <trkpt lat="42.0026880" lon="-7.2194720">
        <ele>782.2</ele>
        <time>2019-08-17T09:01:58Z</time>
      </trkpt>
      <trkpt lat="42.0026900" lon="-7.2195400">
        <ele>782.1</ele>
        <time>2019-08-17T09:01:59Z</time>
      </trkpt>
      <trkpt lat="42.0026940" lon="-7.2196460">
        <ele>782.1</ele>
        <time>2019-08-17T09:02:00Z</time>
      </trkpt>
      <trkpt lat="42.0026950" lon="-7.2196820">
        <ele>782.0</ele>
        <time>2019-08-17T09:02:01Z</time>
      </trkpt>
      <trkpt lat="42.0026990" lon="-7.2197550">
        <ele>781.8</ele>
        <time>2019-08-17T09:02:02Z</time>
      </trkpt>
      <trkpt lat="42.0027030" lon="-7.2198300">
        <ele>781.6</ele>
        <time>2019-08-17T09:02:03Z</time>
      </trkpt>
      <trkpt lat="42.0027070" lon="-7.2199060">
        <ele>781.5</ele>
        <time>2019-08-17T09:02:04Z</time>
      </trkpt>
      <trkpt lat="42.0027120" lon="-7.2199830">
        <ele>781.3</ele>
        <time>2019-08-17T09:02:05Z</time>
      </trkpt>
      <trkpt lat="42.0027170" lon="-7.2200610">
        <ele>781.1</ele>
        <time>2019-08-17T09:02:06Z</time>
      </trkpt>
      <trkpt lat="42.0027220" lon="-7.2201400">
        <ele>780.9</ele>
        <time>2019-08-17T09:02:07Z</time>
      </trkpt>
      <trkpt lat="42.0027300" lon="-7.2202200">
        <ele>780.7</ele>
        <time>2019-08-17T09:02:08Z</time>
      </trkpt>
      <trkpt lat="42.0027390" lon="-7.2203020">
        <ele>780.6</ele>
        <time>2019-08-17T09:02:09Z</time>
      </trkpt>
      <trkpt lat="42.0027510" lon="-7.2203860">
        <ele>780.5</ele>
        <time>2019-08-17T09:02:10Z</time>
      </trkpt>
      <trkpt lat="42.0027660" lon="-7.2204710">
        <ele>780.3</ele>
        <time>2019-08-17T09:02:11Z</time>
      </trkpt>
      <trkpt lat="42.0027850" lon="-7.2205570">
        <ele>780.2</ele>
        <time>2019-08-17T09:02:12Z</time>
      </trkpt>
      <trkpt lat="42.0028080" lon="-7.2206450">
        <ele>780.1</ele>
        <time>2019-08-17T09:02:13Z</time>
      </trkpt>
      <trkpt lat="42.0028360" lon="-7.2207320">
        <ele>779.8</ele>
        <time>2019-08-17T09:02:14Z</time>
      </trkpt>
      <trkpt lat="42.0028680" lon="-7.2208190">
        <ele>779.5</ele>
        <time>2019-08-17T09:02:15Z</time>
      </trkpt>
      <trkpt lat="42.0029060" lon="-7.2209030">
        <ele>779.2</ele>
        <time>2019-08-17T09:02:16Z</time>
      </trkpt>
      <trkpt lat="42.0029470" lon="-7.2209850">
        <ele>778.9</ele>
        <time>2019-08-17T09:02:17Z</time>
      </trkpt>
      <trkpt lat="42.0029940" lon="-7.2210630">
        <ele>778.6</ele>
        <time>2019-08-17T09:02:18Z</time>
      </trkpt>
      <trkpt lat="42.0030440" lon="-7.2211370">
        <ele>778.3</ele>
        <time>2019-08-17T09:02:19Z</time>
      </trkpt>
      <trkpt lat="42.0030970" lon="-7.2212070">
        <ele>777.9</ele>
        <time>2019-08-17T09:02:20Z</time>
      </trkpt>
      <trkpt lat="42.0031540" lon="-7.2212740">
        <ele>777.5</ele>
        <time>2019-08-17T09:02:21Z</time>
      </trkpt>
      <trkpt lat="42.0032120" lon="-7.2213380">
        <ele>777.0</ele>
        <time>2019-08-17T09:02:22Z</time>
      </trkpt>
      <trkpt lat="42.0032730" lon="-7.2214010">
        <ele>776.6</ele>
        <time>2019-08-17T09:02:23Z</time>
      </trkpt>
      <trkpt lat="42.0033340" lon="-7.2214650">
        <ele>776.2</ele>
        <time>2019-08-17T09:02:24Z</time>
      </trkpt>
      <trkpt lat="42.0033950" lon="-7.2215280">
        <ele>775.8</ele>
        <time>2019-08-17T09:02:25Z</time>
      </trkpt>
      <trkpt lat="42.0034550" lon="-7.2215930">
        <ele>775.5</ele>
        <time>2019-08-17T09:02:26Z</time>
      </trkpt>
      <trkpt lat="42.0035130" lon="-7.2216590">
        <ele>775.3</ele>
        <time>2019-08-17T09:02:27Z</time>
      </trkpt>
      <trkpt lat="42.0035700" lon="-7.2217280">
        <ele>775.1</ele>
        <time>2019-08-17T09:02:28Z</time>
      </trkpt>
      <trkpt lat="42.0036240" lon="-7.2218000">
        <ele>775.0</ele>
        <time>2019-08-17T09:02:29Z</time>
      </trkpt>
      <trkpt lat="42.0036760" lon="-7.2218740">
        <ele>774.8</ele>
        <time>2019-08-17T09:02:30Z</time>
      </trkpt>
      <trkpt lat="42.0037260" lon="-7.2219530">
        <ele>774.7</ele>
        <time>2019-08-17T09:02:31Z</time>
      </trkpt>
      <trkpt lat="42.0037730" lon="-7.2220360">
        <ele>774.5</ele>
        <time>2019-08-17T09:02:32Z</time>
      </trkpt>
      <trkpt lat="42.0038170" lon="-7.2221240">
        <ele>774.3</ele>
        <time>2019-08-17T09:02:33Z</time>
      </trkpt>
      <trkpt lat="42.0038570" lon="-7.2222160">
        <ele>774.1</ele>
        <time>2019-08-17T09:02:34Z</time>
      </trkpt>
      <trkpt lat="42.0038940" lon="-7.2223120">
        <ele>773.8</ele>
        <time>2019-08-17T09:02:35Z</time>
      </trkpt>
      <trkpt lat="42.0039270" lon="-7.2224120">
        <ele>773.5</ele>
        <time>2019-08-17T09:02:36Z</time>
      </trkpt>
      <trkpt lat="42.0039710" lon="-7.2225840">
        <ele>772.9</ele>
        <time>2019-08-17T09:02:37Z</time>
      </trkpt>
      <trkpt lat="42.0039850" lon="-7.2226550">
        <ele>772.7</ele>
        <time>2019-08-17T09:02:38Z</time>
      </trkpt>
      <trkpt lat="42.0040000" lon="-7.2227250">
        <ele>772.4</ele>
        <time>2019-08-17T09:02:39Z</time>
      </trkpt>
      <trkpt lat="42.0040150" lon="-7.2228330">
        <ele>772.0</ele>
        <time>2019-08-17T09:02:40Z</time>
      </trkpt>
      <trkpt lat="42.0040270" lon="-7.2229420">
        <ele>771.6</ele>
        <time>2019-08-17T09:02:41Z</time>
      </trkpt>
      <trkpt lat="42.0040420" lon="-7.2231280">
        <ele>770.9</ele>
        <time>2019-08-17T09:02:42Z</time>
      </trkpt>
      <trkpt lat="42.0040460" lon="-7.2232020">
        <ele>770.6</ele>
        <time>2019-08-17T09:02:43Z</time>
      </trkpt>
      <trkpt lat="42.0040510" lon="-7.2232770">
        <ele>770.3</ele>
        <time>2019-08-17T09:02:44Z</time>
      </trkpt>
      <trkpt lat="42.0040570" lon="-7.2233900">
        <ele>769.9</ele>
        <time>2019-08-17T09:02:45Z</time>
      </trkpt>
      <trkpt lat="42.0040640" lon="-7.2235040">
        <ele>769.5</ele>
        <time>2019-08-17T09:02:46Z</time>
      </trkpt>
      <trkpt lat="42.0040720" lon="-7.2236190">
        <ele>769.1</ele>
        <time>2019-08-17T09:02:47Z</time>
      </trkpt>
      <trkpt lat="42.0040810" lon="-7.2237330">
        <ele>768.8</ele>
        <time>2019-08-17T09:02:48Z</time>
      </trkpt>
      <trkpt lat="42.0040930" lon="-7.2238480">
        <ele>768.4</ele>
        <time>2019-08-17T09:02:49Z</time>
      </trkpt>
      <trkpt lat="42.0041080" lon="-7.2239620">
        <ele>768.1</ele>
        <time>2019-08-17T09:02:50Z</time>
      </trkpt>
      <trkpt lat="42.0041280" lon="-7.2240770">
        <ele>767.7</ele>
        <time>2019-08-17T09:02:51Z</time>
      </trkpt>
      <trkpt lat="42.0041520" lon="-7.2241910">
        <ele>767.3</ele>
        <time>2019-08-17T09:02:52Z</time>
      </trkpt>
      <trkpt lat="42.0041810" lon="-7.2243040">
        <ele>766.9</ele>
        <time>2019-08-17T09:02:53Z</time>
      </trkpt>
      <trkpt lat="42.0042150" lon="-7.2244170">
        <ele>766.4</ele>
        <time>2019-08-17T09:02:54Z</time>
      </trkpt>
      <trkpt lat="42.0042530" lon="-7.2245300">
        <ele>766.0</ele>
        <time>2019-08-17T09:02:55Z</time>
      </trkpt>
      <trkpt lat="42.0042940" lon="-7.2246430">
        <ele>765.6</ele>
        <time>2019-08-17T09:02:56Z</time>
      </trkpt>
      <trkpt lat="42.0043370" lon="-7.2247560">
        <ele>765.2</ele>
        <time>2019-08-17T09:02:57Z</time>
      </trkpt>
      <trkpt lat="42.0043810" lon="-7.2248700">
        <ele>764.8</ele>
        <time>2019-08-17T09:02:58Z</time>
      </trkpt>
      <trkpt lat="42.0044250" lon="-7.2249850">
        <ele>764.5</ele>
        <time>2019-08-17T09:02:59Z</time>
      </trkpt>
      <trkpt lat="42.0044690" lon="-7.2251010">
        <ele>764.1</ele>
        <time>2019-08-17T09:03:00Z</time>
      </trkpt>
      <trkpt lat="42.0045120" lon="-7.2252180">
        <ele>763.7</ele>
        <time>2019-08-17T09:03:01Z</time>
      </trkpt>
      <trkpt lat="42.0045530" lon="-7.2253370">
        <ele>763.2</ele>
        <time>2019-08-17T09:03:02Z</time>
      </trkpt>
      <trkpt lat="42.0045910" lon="-7.2254580">
        <ele>762.7</ele>
        <time>2019-08-17T09:03:03Z</time>
      </trkpt>
      <trkpt lat="42.0046250" lon="-7.2255810">
        <ele>762.2</ele>
        <time>2019-08-17T09:03:04Z</time>
      </trkpt>
      <trkpt lat="42.0046540" lon="-7.2257070">
        <ele>761.6</ele>
        <time>2019-08-17T09:03:05Z</time>
      </trkpt>
      <trkpt lat="42.0046780" lon="-7.2258350">
        <ele>761.0</ele>
        <time>2019-08-17T09:03:06Z</time>
      </trkpt>
      <trkpt lat="42.0046960" lon="-7.2259640">
        <ele>760.3</ele>
        <time>2019-08-17T09:03:07Z</time>
      </trkpt>
      <trkpt lat="42.0047070" lon="-7.2260940">
        <ele>759.7</ele>
        <time>2019-08-17T09:03:08Z</time>
      </trkpt>
      <trkpt lat="42.0047120" lon="-7.2262230">
        <ele>759.2</ele>
        <time>2019-08-17T09:03:09Z</time>
      </trkpt>
      <trkpt lat="42.0047090" lon="-7.2263510">
        <ele>758.6</ele>
        <time>2019-08-17T09:03:10Z</time>
      </trkpt>
      <trkpt lat="42.0046990" lon="-7.2264770">
        <ele>758.1</ele>
        <time>2019-08-17T09:03:11Z</time>
      </trkpt>
      <trkpt lat="42.0046810" lon="-7.2265990">
        <ele>757.6</ele>
        <time>2019-08-17T09:03:12Z</time>
      </trkpt>
      <trkpt lat="42.0046550" lon="-7.2267160">
        <ele>757.1</ele>
        <time>2019-08-17T09:03:13Z</time>
      </trkpt>
      <trkpt lat="42.0046210" lon="-7.2268290">
        <ele>756.6</ele>
        <time>2019-08-17T09:03:14Z</time>
      </trkpt>
      <trkpt lat="42.0045810" lon="-7.2269350">
        <ele>756.2</ele>
        <time>2019-08-17T09:03:15Z</time>
      </trkpt>
      <trkpt lat="42.0045350" lon="-7.2270350">
        <ele>755.9</ele>
        <time>2019-08-17T09:03:16Z</time>
      </trkpt>
      <trkpt lat="42.0044850" lon="-7.2271270">
        <ele>755.6</ele>
        <time>2019-08-17T09:03:17Z</time>
      </trkpt>
      <trkpt lat="42.0044300" lon="-7.2272100">
        <ele>755.5</ele>
        <time>2019-08-17T09:03:18Z</time>
      </trkpt>
      <trkpt lat="42.0043730" lon="-7.2272810">
        <ele>755.4</ele>
        <time>2019-08-17T09:03:19Z</time>
      </trkpt>
      <trkpt lat="42.0043150" lon="-7.2273510">
        <ele>755.3</ele>
        <time>2019-08-17T09:03:20Z</time>
      </trkpt>
      <trkpt lat="42.0042550" lon="-7.2274070">
        <ele>755.3</ele>
        <time>2019-08-17T09:03:21Z</time>
      </trkpt>
      <trkpt lat="42.0041930" lon="-7.2274570">
        <ele>755.3</ele>
        <time>2019-08-17T09:03:22Z</time>
      </trkpt>
      <trkpt lat="42.0041310" lon="-7.2274990">
        <ele>755.3</ele>
        <time>2019-08-17T09:03:23Z</time>
      </trkpt>
      <trkpt lat="42.0040680" lon="-7.2275370">
        <ele>755.3</ele>
        <time>2019-08-17T09:03:24Z</time>
      </trkpt>
      <trkpt lat="42.0040040" lon="-7.2275700">
        <ele>755.3</ele>
        <time>2019-08-17T09:03:25Z</time>
      </trkpt>
      <trkpt lat="42.0039400" lon="-7.2276000">
        <ele>755.3</ele>
        <time>2019-08-17T09:03:26Z</time>
      </trkpt>
      <trkpt lat="42.0038750" lon="-7.2276280">
        <ele>755.4</ele>
        <time>2019-08-17T09:03:27Z</time>
      </trkpt>
      <trkpt lat="42.0038110" lon="-7.2276530">
        <ele>755.4</ele>
        <time>2019-08-17T09:03:28Z</time>
      </trkpt>
      <trkpt lat="42.0037470" lon="-7.2276780">
        <ele>755.4</ele>
        <time>2019-08-17T09:03:29Z</time>
      </trkpt>
      <trkpt lat="42.0036840" lon="-7.2277010">
        <ele>755.5</ele>
        <time>2019-08-17T09:03:30Z</time>
      </trkpt>
      <trkpt lat="42.0036210" lon="-7.2277220">
        <ele>755.6</ele>
        <time>2019-08-17T09:03:31Z</time>
      </trkpt>
      <trkpt lat="42.0035580" lon="-7.2277430">
        <ele>755.9</ele>
        <time>2019-08-17T09:03:32Z</time>
      </trkpt>
      <trkpt lat="42.0034970" lon="-7.2277630">
        <ele>756.4</ele>
        <time>2019-08-17T09:03:33Z</time>
      </trkpt>
      <trkpt lat="42.0034360" lon="-7.2277830">
        <ele>757.0</ele>
        <time>2019-08-17T09:03:34Z</time>
      </trkpt>
      <trkpt lat="42.0033760" lon="-7.2278020">
        <ele>757.4</ele>
        <time>2019-08-17T09:03:35Z</time>
      </trkpt>
      <trkpt lat="42.0033170" lon="-7.2278210">
        <ele>757.9</ele>
        <time>2019-08-17T09:03:36Z</time>
      </trkpt>
      <trkpt lat="42.0032570" lon="-7.2278390">
        <ele>758.3</ele>
        <time>2019-08-17T09:03:37Z</time>
      </trkpt>
      <trkpt lat="42.0031980" lon="-7.2278580">
        <ele>758.7</ele>
        <time>2019-08-17T09:03:38Z</time>
      </trkpt>
      <trkpt lat="42.0031380" lon="-7.2278780">
        <ele>759.0</ele>
        <time>2019-08-17T09:03:39Z</time>
      </trkpt>
      <trkpt lat="42.0030780" lon="-7.2278970">
        <ele>759.3</ele>
        <time>2019-08-17T09:03:40Z</time>
      </trkpt>
      <trkpt lat="42.0030180" lon="-7.2279180">
        <ele>759.8</ele>
        <time>2019-08-17T09:03:41Z</time>
      </trkpt>
      <trkpt lat="42.0029590" lon="-7.2279400">
        <ele>760.2</ele>
        <time>2019-08-17T09:03:42Z</time>
      </trkpt>
      <trkpt lat="42.0029000" lon="-7.2279650">
        <ele>760.5</ele>
        <time>2019-08-17T09:03:43Z</time>
      </trkpt>
      <trkpt lat="42.0028420" lon="-7.2279920">
        <ele>760.7</ele>
        <time>2019-08-17T09:03:44Z</time>
      </trkpt>
      <trkpt lat="42.0027850" lon="-7.2280210">
        <ele>761.0</ele>
        <time>2019-08-17T09:03:45Z</time>
      </trkpt>
      <trkpt lat="42.0027290" lon="-7.2280550">
        <ele>761.2</ele>
        <time>2019-08-17T09:03:46Z</time>
      </trkpt>
      <trkpt lat="42.0026760" lon="-7.2280920">
        <ele>761.5</ele>
        <time>2019-08-17T09:03:47Z</time>
      </trkpt>
      <trkpt lat="42.0026240" lon="-7.2281330">
        <ele>761.8</ele>
        <time>2019-08-17T09:03:48Z</time>
      </trkpt>
      <trkpt lat="42.0025740" lon="-7.2281780">
        <ele>762.2</ele>
        <time>2019-08-17T09:03:49Z</time>
      </trkpt>
      <trkpt lat="42.0024960" lon="-7.2282600">
        <ele>762.6</ele>
        <time>2019-08-17T09:03:50Z</time>
      </trkpt>
      <trkpt lat="42.0024650" lon="-7.2282950">
        <ele>762.8</ele>
        <time>2019-08-17T09:03:51Z</time>
      </trkpt>
      <trkpt lat="42.0024350" lon="-7.2283290">
        <ele>763.0</ele>
        <time>2019-08-17T09:03:52Z</time>
      </trkpt>
      <trkpt lat="42.0023920" lon="-7.2283850">
        <ele>763.2</ele>
        <time>2019-08-17T09:03:53Z</time>
      </trkpt>
      <trkpt lat="42.0023520" lon="-7.2284430">
        <ele>763.4</ele>
        <time>2019-08-17T09:03:54Z</time>
      </trkpt>
      <trkpt lat="42.0022870" lon="-7.2285420">
        <ele>763.7</ele>
        <time>2019-08-17T09:03:55Z</time>
      </trkpt>
      <trkpt lat="42.0022630" lon="-7.2285830">
        <ele>763.9</ele>
        <time>2019-08-17T09:03:56Z</time>
      </trkpt>
      <trkpt lat="42.0022380" lon="-7.2286230">
        <ele>764.1</ele>
        <time>2019-08-17T09:03:57Z</time>
      </trkpt>
      <trkpt lat="42.0022010" lon="-7.2286840">
        <ele>764.3</ele>
        <time>2019-08-17T09:03:58Z</time>
      </trkpt>
      <trkpt lat="42.0021650" lon="-7.2287440">
        <ele>764.6</ele>
        <time>2019-08-17T09:03:59Z</time>
      </trkpt>
      <trkpt lat="42.0021300" lon="-7.2288040">
        <ele>764.8</ele>
        <time>2019-08-17T09:04:00Z</time>
      </trkpt>
      <trkpt lat="42.0020940" lon="-7.2288630">
        <ele>765.0</ele>
        <time>2019-08-17T09:04:01Z</time>
      </trkpt>
      <trkpt lat="42.0020570" lon="-7.2289200">
        <ele>765.3</ele>
        <time>2019-08-17T09:04:02Z</time>
      </trkpt>
      <trkpt lat="42.0020190" lon="-7.2289770">
        <ele>765.5</ele>
        <time>2019-08-17T09:04:03Z</time>
      </trkpt>
      <trkpt lat="42.0019790" lon="-7.2290310">
        <ele>765.8</ele>
        <time>2019-08-17T09:04:04Z</time>
      </trkpt>
      <trkpt lat="42.0019380" lon="-7.2290840">
        <ele>766.0</ele>
        <time>2019-08-17T09:04:05Z</time>
      </trkpt>
      <trkpt lat="42.0018940" lon="-7.2291350">
        <ele>766.4</ele>
        <time>2019-08-17T09:04:06Z</time>
      </trkpt>
      <trkpt lat="42.0018480" lon="-7.2291840">
        <ele>766.8</ele>
        <time>2019-08-17T09:04:07Z</time>
      </trkpt>
      <trkpt lat="42.0017980" lon="-7.2292300">
        <ele>767.2</ele>
        <time>2019-08-17T09:04:08Z</time>
      </trkpt>
      <trkpt lat="42.0017460" lon="-7.2292740">
        <ele>767.8</ele>
        <time>2019-08-17T09:04:09Z</time>
      </trkpt>
      <trkpt lat="42.0016910" lon="-7.2293150">
        <ele>767.5</ele>
        <time>2019-08-17T09:04:10Z</time>
      </trkpt>
      <trkpt lat="42.0016330" lon="-7.2293540">
        <ele>767.2</ele>
        <time>2019-08-17T09:04:11Z</time>
      </trkpt>
      <trkpt lat="42.0015720" lon="-7.2293890">
        <ele>766.8</ele>
        <time>2019-08-17T09:04:12Z</time>
      </trkpt>
      <trkpt lat="42.0015090" lon="-7.2294220">
        <ele>766.5</ele>
        <time>2019-08-17T09:04:13Z</time>
      </trkpt>
      <trkpt lat="42.0014420" lon="-7.2294510">
        <ele>766.1</ele>
        <time>2019-08-17T09:04:14Z</time>
      </trkpt>
      <trkpt lat="42.0013730" lon="-7.2294780">
        <ele>765.7</ele>
        <time>2019-08-17T09:04:15Z</time>
      </trkpt>
      <trkpt lat="42.0013020" lon="-7.2295030">
        <ele>765.3</ele>
        <time>2019-08-17T09:04:16Z</time>
      </trkpt>
      <trkpt lat="42.0012280" lon="-7.2295280">
        <ele>764.8</ele>
        <time>2019-08-17T09:04:17Z</time>
      </trkpt>
      <trkpt lat="42.0011510" lon="-7.2295520">
        <ele>764.2</ele>
        <time>2019-08-17T09:04:18Z</time>
      </trkpt>
      <trkpt lat="42.0010730" lon="-7.2295760">
        <ele>763.7</ele>
        <time>2019-08-17T09:04:19Z</time>
      </trkpt>
      <trkpt lat="42.0009520" lon="-7.2296170">
        <ele>763.0</ele>
        <time>2019-08-17T09:04:20Z</time>
      </trkpt>
      <trkpt lat="42.0009110" lon="-7.2296310">
        <ele>762.8</ele>
        <time>2019-08-17T09:04:21Z</time>
      </trkpt>
      <trkpt lat="42.0008280" lon="-7.2296600">
        <ele>762.4</ele>
        <time>2019-08-17T09:04:22Z</time>
      </trkpt>
      <trkpt lat="42.0007430" lon="-7.2296910">
        <ele>761.8</ele>
        <time>2019-08-17T09:04:23Z</time>
      </trkpt>
      <trkpt lat="42.0006560" lon="-7.2297220">
        <ele>761.3</ele>
        <time>2019-08-17T09:04:24Z</time>
      </trkpt>
      <trkpt lat="42.0005680" lon="-7.2297530">
        <ele>760.9</ele>
        <time>2019-08-17T09:04:25Z</time>
      </trkpt>
      <trkpt lat="42.0004780" lon="-7.2297830">
        <ele>760.3</ele>
        <time>2019-08-17T09:04:26Z</time>
      </trkpt>
      <trkpt lat="42.0003870" lon="-7.2298120">
        <ele>759.8</ele>
        <time>2019-08-17T09:04:27Z</time>
      </trkpt>
      <trkpt lat="42.0002950" lon="-7.2298400">
        <ele>759.3</ele>
        <time>2019-08-17T09:04:28Z</time>
      </trkpt>
      <trkpt lat="42.0002010" lon="-7.2298680">
        <ele>758.6</ele>
        <time>2019-08-17T09:04:29Z</time>
      </trkpt>
      <trkpt lat="42.0001070" lon="-7.2298950">
        <ele>758.1</ele>
        <time>2019-08-17T09:04:30Z</time>
      </trkpt>
      <trkpt lat="42.0000120" lon="-7.2299230">
        <ele>757.6</ele>
        <time>2019-08-17T09:04:31Z</time>
      </trkpt>
      <trkpt lat="41.9999160" lon="-7.2299520">
        <ele>757.1</ele>
        <time>2019-08-17T09:04:32Z</time>
      </trkpt>
      <trkpt lat="41.9998190" lon="-7.2299820">
        <ele>756.6</ele>
        <time>2019-08-17T09:04:33Z</time>
      </trkpt>
      <trkpt lat="41.9997230" lon="-7.2300140">
        <ele>756.1</ele>
        <time>2019-08-17T09:04:34Z</time>
      </trkpt>
      <trkpt lat="41.9996260" lon="-7.2300480">
        <ele>755.5</ele>
        <time>2019-08-17T09:04:35Z</time>
      </trkpt>
      <trkpt lat="41.9995300" lon="-7.2300840">
        <ele>755.0</ele>
        <time>2019-08-17T09:04:36Z</time>
      </trkpt>
      <trkpt lat="41.9994340" lon="-7.2301240">
        <ele>754.6</ele>
        <time>2019-08-17T09:04:37Z</time>
      </trkpt>
      <trkpt lat="41.9993400" lon="-7.2301680">
        <ele>754.2</ele>
        <time>2019-08-17T09:04:38Z</time>
      </trkpt>
      <trkpt lat="41.9992470" lon="-7.2302160">
        <ele>753.8</ele>
        <time>2019-08-17T09:04:39Z</time>
      </trkpt>
      <trkpt lat="41.9991560" lon="-7.2302700">
        <ele>753.3</ele>
        <time>2019-08-17T09:04:40Z</time>
      </trkpt>
      <trkpt lat="41.9990680" lon="-7.2303290">
        <ele>752.7</ele>
        <time>2019-08-17T09:04:41Z</time>
      </trkpt>
      <trkpt lat="41.9989810" lon="-7.2303940">
        <ele>752.2</ele>
        <time>2019-08-17T09:04:42Z</time>
      </trkpt>
      <trkpt lat="41.9988970" lon="-7.2304640">
        <ele>751.7</ele>
        <time>2019-08-17T09:04:43Z</time>
      </trkpt>
      <trkpt lat="41.9988150" lon="-7.2305380">
        <ele>751.2</ele>
        <time>2019-08-17T09:04:44Z</time>
      </trkpt>
      <trkpt lat="41.9987360" lon="-7.2306180">
        <ele>750.8</ele>
        <time>2019-08-17T09:04:45Z</time>
      </trkpt>
      <trkpt lat="41.9986580" lon="-7.2307010">
        <ele>750.1</ele>
        <time>2019-08-17T09:04:46Z</time>
      </trkpt>
      <trkpt lat="41.9985830" lon="-7.2307890">
        <ele>749.4</ele>
        <time>2019-08-17T09:04:47Z</time>
      </trkpt>
      <trkpt lat="41.9985100" lon="-7.2308810">
        <ele>748.8</ele>
        <time>2019-08-17T09:04:48Z</time>
      </trkpt>
      <trkpt lat="41.9984400" lon="-7.2309750">
        <ele>748.3</ele>
        <time>2019-08-17T09:04:49Z</time>
      </trkpt>
      <trkpt lat="41.9983710" lon="-7.2310730">
        <ele>747.8</ele>
        <time>2019-08-17T09:04:50Z</time>
      </trkpt>
      <trkpt lat="41.9983030" lon="-7.2311730">
        <ele>747.3</ele>
        <time>2019-08-17T09:04:51Z</time>
      </trkpt>
      <trkpt lat="41.9982360" lon="-7.2312750">
        <ele>746.8</ele>
        <time>2019-08-17T09:04:52Z</time>
      </trkpt>
      <trkpt lat="41.9981710" lon="-7.2313790">
        <ele>746.3</ele>
        <time>2019-08-17T09:04:53Z</time>
      </trkpt>
      <trkpt lat="41.9981050" lon="-7.2314840">
        <ele>745.7</ele>
        <time>2019-08-17T09:04:54Z</time>
      </trkpt>
      <trkpt lat="41.9980400" lon="-7.2315890">
        <ele>745.1</ele>
        <time>2019-08-17T09:04:55Z</time>
      </trkpt>
      <trkpt lat="41.9979760" lon="-7.2316960">
        <ele>744.4</ele>
        <time>2019-08-17T09:04:56Z</time>
      </trkpt>
      <trkpt lat="41.9979110" lon="-7.2318020">
        <ele>743.8</ele>
        <time>2019-08-17T09:04:57Z</time>
      </trkpt>
      <trkpt lat="41.9978460" lon="-7.2319090">
        <ele>743.2</ele>
        <time>2019-08-17T09:04:58Z</time>
      </trkpt>
      <trkpt lat="41.9977800" lon="-7.2320160">
        <ele>742.7</ele>
        <time>2019-08-17T09:04:59Z</time>
      </trkpt>
      <trkpt lat="41.9977130" lon="-7.2321220">
        <ele>742.1</ele>
        <time>2019-08-17T09:05:00Z</time>
      </trkpt>
      <trkpt lat="41.9976460" lon="-7.2322280">
        <ele>741.6</ele>
        <time>2019-08-17T09:05:01Z</time>
      </trkpt>
      <trkpt lat="41.9975770" lon="-7.2323340">
        <ele>740.9</ele>
        <time>2019-08-17T09:05:02Z</time>
      </trkpt>
      <trkpt lat="41.9975080" lon="-7.2324400">
        <ele>740.4</ele>
        <time>2019-08-17T09:05:03Z</time>
      </trkpt>
      <trkpt lat="41.9974390" lon="-7.2325450">
        <ele>739.7</ele>
        <time>2019-08-17T09:05:04Z</time>
      </trkpt>
      <trkpt lat="41.9973700" lon="-7.2326500">
        <ele>739.1</ele>
        <time>2019-08-17T09:05:05Z</time>
      </trkpt>
      <trkpt lat="41.9973010" lon="-7.2327560">
        <ele>738.6</ele>
        <time>2019-08-17T09:05:06Z</time>
      </trkpt>
      <trkpt lat="41.9972320" lon="-7.2328620">
        <ele>738.1</ele>
        <time>2019-08-17T09:05:07Z</time>
      </trkpt>
      <trkpt lat="41.9971630" lon="-7.2329670">
        <ele>737.5</ele>
        <time>2019-08-17T09:05:08Z</time>
      </trkpt>
      <trkpt lat="41.9970950" lon="-7.2330730">
        <ele>736.7</ele>
        <time>2019-08-17T09:05:09Z</time>
      </trkpt>
      <trkpt lat="41.9970260" lon="-7.2331790">
        <ele>736.3</ele>
        <time>2019-08-17T09:05:10Z</time>
      </trkpt>
      <trkpt lat="41.9969570" lon="-7.2332860">
        <ele>735.9</ele>
        <time>2019-08-17T09:05:11Z</time>
      </trkpt>
      <trkpt lat="41.9968880" lon="-7.2333920">
        <ele>735.5</ele>
        <time>2019-08-17T09:05:12Z</time>
      </trkpt>
      <trkpt lat="41.9968170" lon="-7.2334990">
        <ele>734.8</ele>
        <time>2019-08-17T09:05:13Z</time>
      </trkpt>
      <trkpt lat="41.9967470" lon="-7.2336060">
        <ele>734.3</ele>
        <time>2019-08-17T09:05:14Z</time>
      </trkpt>
      <trkpt lat="41.9966760" lon="-7.2337140">
        <ele>733.7</ele>
        <time>2019-08-17T09:05:15Z</time>
      </trkpt>
      <trkpt lat="41.9966050" lon="-7.2338230">
        <ele>733.2</ele>
        <time>2019-08-17T09:05:16Z</time>
      </trkpt>
      <trkpt lat="41.9965350" lon="-7.2339330">
        <ele>732.8</ele>
        <time>2019-08-17T09:05:17Z</time>
      </trkpt>
      <trkpt lat="41.9964670" lon="-7.2340440">
        <ele>732.3</ele>
        <time>2019-08-17T09:05:18Z</time>
      </trkpt>
      <trkpt lat="41.9964020" lon="-7.2341570">
        <ele>731.8</ele>
        <time>2019-08-17T09:05:19Z</time>
      </trkpt>
      <trkpt lat="41.9963390" lon="-7.2342730">
        <ele>731.3</ele>
        <time>2019-08-17T09:05:20Z</time>
      </trkpt>
      <trkpt lat="41.9962790" lon="-7.2343920">
        <ele>730.7</ele>
        <time>2019-08-17T09:05:21Z</time>
      </trkpt>
      <trkpt lat="41.9962240" lon="-7.2345160">
        <ele>729.3</ele>
        <time>2019-08-17T09:05:22Z</time>
      </trkpt>
      <trkpt lat="41.9961740" lon="-7.2346460">
        <ele>727.9</ele>
        <time>2019-08-17T09:05:23Z</time>
      </trkpt>
      <trkpt lat="41.9961290" lon="-7.2347820">
        <ele>726.4</ele>
        <time>2019-08-17T09:05:24Z</time>
      </trkpt>
      <trkpt lat="41.9960900" lon="-7.2349250">
        <ele>724.9</ele>
        <time>2019-08-17T09:05:25Z</time>
      </trkpt>
      <trkpt lat="41.9960570" lon="-7.2350700">
        <ele>723.4</ele>
        <time>2019-08-17T09:05:26Z</time>
      </trkpt>
      <trkpt lat="41.9960310" lon="-7.2352180">
        <ele>721.8</ele>
        <time>2019-08-17T09:05:27Z</time>
      </trkpt>
      <trkpt lat="41.9960120" lon="-7.2353670">
        <ele>720.1</ele>
        <time>2019-08-17T09:05:28Z</time>
      </trkpt>
      <trkpt lat="41.9959990" lon="-7.2355140">
        <ele>718.4</ele>
        <time>2019-08-17T09:05:29Z</time>
      </trkpt>
      <trkpt lat="41.9959910" lon="-7.2356610">
        <ele>716.6</ele>
        <time>2019-08-17T09:05:30Z</time>
      </trkpt>
      <trkpt lat="41.9959900" lon="-7.2358040">
        <ele>714.7</ele>
        <time>2019-08-17T09:05:31Z</time>
      </trkpt>
      <trkpt lat="41.9959940" lon="-7.2359430">
        <ele>712.7</ele>
        <time>2019-08-17T09:05:32Z</time>
      </trkpt>
      <trkpt lat="41.9960030" lon="-7.2360780">
        <ele>710.9</ele>
        <time>2019-08-17T09:05:33Z</time>
      </trkpt>
      <trkpt lat="41.9960170" lon="-7.2362060">
        <ele>708.8</ele>
        <time>2019-08-17T09:05:34Z</time>
      </trkpt>
      <trkpt lat="41.9960490" lon="-7.2364060">
        <ele>705.5</ele>
        <time>2019-08-17T09:05:35Z</time>
      </trkpt>
      <trkpt lat="41.9960640" lon="-7.2364840">
        <ele>704.6</ele>
        <time>2019-08-17T09:05:36Z</time>
      </trkpt>
      <trkpt lat="41.9960790" lon="-7.2365610">
        <ele>703.6</ele>
        <time>2019-08-17T09:05:37Z</time>
      </trkpt>
      <trkpt lat="41.9961050" lon="-7.2366710">
        <ele>702.2</ele>
        <time>2019-08-17T09:05:38Z</time>
      </trkpt>
      <trkpt lat="41.9961310" lon="-7.2367810">
        <ele>702.2</ele>
        <time>2019-08-17T09:05:39Z</time>
      </trkpt>
      <trkpt lat="41.9961580" lon="-7.2368880">
        <ele>702.2</ele>
        <time>2019-08-17T09:05:40Z</time>
      </trkpt>
      <trkpt lat="41.9961850" lon="-7.2369940">
        <ele>702.2</ele>
        <time>2019-08-17T09:05:41Z</time>
      </trkpt>
      <trkpt lat="41.9962260" lon="-7.2371500">
        <ele>702.1</ele>
        <time>2019-08-17T09:05:42Z</time>
      </trkpt>
      <trkpt lat="41.9962390" lon="-7.2372020">
        <ele>702.1</ele>
        <time>2019-08-17T09:05:43Z</time>
      </trkpt>
      <trkpt lat="41.9962660" lon="-7.2373060">
        <ele>701.9</ele>
        <time>2019-08-17T09:05:44Z</time>
      </trkpt>
      <trkpt lat="41.9962930" lon="-7.2374080">
        <ele>701.7</ele>
        <time>2019-08-17T09:05:45Z</time>
      </trkpt>
      <trkpt lat="41.9963200" lon="-7.2375080">
        <ele>701.5</ele>
        <time>2019-08-17T09:05:46Z</time>
      </trkpt>
      <trkpt lat="41.9963480" lon="-7.2376070">
        <ele>701.3</ele>
        <time>2019-08-17T09:05:47Z</time>
      </trkpt>
      <trkpt lat="41.9963770" lon="-7.2377050">
        <ele>701.0</ele>
        <time>2019-08-17T09:05:48Z</time>
      </trkpt>
      <trkpt lat="41.9964060" lon="-7.2378020">
        <ele>700.7</ele>
        <time>2019-08-17T09:05:49Z</time>
      </trkpt>
      <trkpt lat="41.9964360" lon="-7.2378980">
        <ele>700.4</ele>
        <time>2019-08-17T09:05:50Z</time>
      </trkpt>
      <trkpt lat="41.9964660" lon="-7.2379920">
        <ele>700.2</ele>
        <time>2019-08-17T09:05:51Z</time>
      </trkpt>
      <trkpt lat="41.9964980" lon="-7.2380860">
        <ele>700.0</ele>
        <time>2019-08-17T09:05:52Z</time>
      </trkpt>
      <trkpt lat="41.9965300" lon="-7.2381780">
        <ele>699.7</ele>
        <time>2019-08-17T09:05:53Z</time>
      </trkpt>
      <trkpt lat="41.9965640" lon="-7.2382690">
        <ele>699.4</ele>
        <time>2019-08-17T09:05:54Z</time>
      </trkpt>
      <trkpt lat="41.9965990" lon="-7.2383600">
        <ele>698.9</ele>
        <time>2019-08-17T09:05:55Z</time>
      </trkpt>
      <trkpt lat="41.9966340" lon="-7.2384490">
        <ele>698.4</ele>
        <time>2019-08-17T09:05:56Z</time>
      </trkpt>
      <trkpt lat="41.9966710" lon="-7.2385370">
        <ele>697.9</ele>
        <time>2019-08-17T09:05:57Z</time>
      </trkpt>
      <trkpt lat="41.9967370" lon="-7.2386830">
        <ele>697.1</ele>
        <time>2019-08-17T09:05:58Z</time>
      </trkpt>
      <trkpt lat="41.9967640" lon="-7.2387400">
        <ele>696.9</ele>
        <time>2019-08-17T09:05:59Z</time>
      </trkpt>
      <trkpt lat="41.9967910" lon="-7.2387980">
        <ele>696.8</ele>
        <time>2019-08-17T09:06:00Z</time>
      </trkpt>
      <trkpt lat="41.9968340" lon="-7.2388840">
        <ele>696.7</ele>
        <time>2019-08-17T09:06:01Z</time>
      </trkpt>
      <trkpt lat="41.9968780" lon="-7.2389690">
        <ele>696.6</ele>
        <time>2019-08-17T09:06:02Z</time>
      </trkpt>
      <trkpt lat="41.9969560" lon="-7.2391090">
        <ele>696.9</ele>
        <time>2019-08-17T09:06:03Z</time>
      </trkpt>
      <trkpt lat="41.9969870" lon="-7.2391640">
        <ele>696.9</ele>
        <time>2019-08-17T09:06:04Z</time>
      </trkpt>
      <trkpt lat="41.9970190" lon="-7.2392200">
        <ele>697.0</ele>
        <time>2019-08-17T09:06:05Z</time>
      </trkpt>
      <trkpt lat="41.9970680" lon="-7.2393020">
        <ele>697.1</ele>
        <time>2019-08-17T09:06:06Z</time>
      </trkpt>
      <trkpt lat="41.9971180" lon="-7.2393840">
        <ele>697.1</ele>
        <time>2019-08-17T09:06:07Z</time>
      </trkpt>
      <trkpt lat="41.9971690" lon="-7.2394650">
        <ele>697.1</ele>
        <time>2019-08-17T09:06:08Z</time>
      </trkpt>
      <trkpt lat="41.9972210" lon="-7.2395460">
        <ele>697.0</ele>
        <time>2019-08-17T09:06:09Z</time>
      </trkpt>
      <trkpt lat="41.9972730" lon="-7.2396260">
        <ele>696.9</ele>
        <time>2019-08-17T09:06:10Z</time>
      </trkpt>
      <trkpt lat="41.9973260" lon="-7.2397050">
        <ele>696.7</ele>
        <time>2019-08-17T09:06:11Z</time>
      </trkpt>
      <trkpt lat="41.9973790" lon="-7.2397840">
        <ele>696.6</ele>
        <time>2019-08-17T09:06:12Z</time>
      </trkpt>
      <trkpt lat="41.9974330" lon="-7.2398620">
        <ele>696.4</ele>
        <time>2019-08-17T09:06:13Z</time>
      </trkpt>
      <trkpt lat="41.9974860" lon="-7.2399400">
        <ele>696.2</ele>
        <time>2019-08-17T09:06:14Z</time>
      </trkpt>
      <trkpt lat="41.9975400" lon="-7.2400180">
        <ele>695.9</ele>
        <time>2019-08-17T09:06:15Z</time>
      </trkpt>
      <trkpt lat="41.9975940" lon="-7.2400960">
        <ele>695.3</ele>
        <time>2019-08-17T09:06:16Z</time>
      </trkpt>
      <trkpt lat="41.9976470" lon="-7.2401730">
        <ele>695.6</ele>
        <time>2019-08-17T09:06:17Z</time>
      </trkpt>
      <trkpt lat="41.9977000" lon="-7.2402510">
        <ele>696.0</ele>
        <time>2019-08-17T09:06:18Z</time>
      </trkpt>
      <trkpt lat="41.9977530" lon="-7.2403300">
        <ele>696.0</ele>
        <time>2019-08-17T09:06:19Z</time>
      </trkpt>
      <trkpt lat="41.9978060" lon="-7.2404090">
        <ele>695.8</ele>
        <time>2019-08-17T09:06:20Z</time>
      </trkpt>
      <trkpt lat="41.9978570" lon="-7.2404890">
        <ele>695.6</ele>
        <time>2019-08-17T09:06:21Z</time>
      </trkpt>
      <trkpt lat="41.9979080" lon="-7.2405700">
        <ele>695.4</ele>
        <time>2019-08-17T09:06:22Z</time>
      </trkpt>
      <trkpt lat="41.9979580" lon="-7.2406520">
        <ele>695.2</ele>
        <time>2019-08-17T09:06:23Z</time>
      </trkpt>
      <trkpt lat="41.9980060" lon="-7.2407360">
        <ele>695.1</ele>
        <time>2019-08-17T09:06:24Z</time>
      </trkpt>
      <trkpt lat="41.9980510" lon="-7.2408210">
        <ele>695.0</ele>
        <time>2019-08-17T09:06:25Z</time>
      </trkpt>
      <trkpt lat="41.9980950" lon="-7.2409080">
        <ele>694.9</ele>
        <time>2019-08-17T09:06:26Z</time>
      </trkpt>
      <trkpt lat="41.9981360" lon="-7.2409980">
        <ele>694.9</ele>
        <time>2019-08-17T09:06:27Z</time>
      </trkpt>
      <trkpt lat="41.9981740" lon="-7.2410890">
        <ele>694.9</ele>
        <time>2019-08-17T09:06:28Z</time>
      </trkpt>
      <trkpt lat="41.9982080" lon="-7.2411830">
        <ele>694.9</ele>
        <time>2019-08-17T09:06:29Z</time>
      </trkpt>
      <trkpt lat="41.9982400" lon="-7.2412780">
        <ele>695.0</ele>
        <time>2019-08-17T09:06:30Z</time>
      </trkpt>
      <trkpt lat="41.9982690" lon="-7.2413760">
        <ele>695.1</ele>
        <time>2019-08-17T09:06:31Z</time>
      </trkpt>
      <trkpt lat="41.9982940" lon="-7.2414760">
        <ele>695.2</ele>
        <time>2019-08-17T09:06:32Z</time>
      </trkpt>
      <trkpt lat="41.9983160" lon="-7.2415780">
        <ele>695.2</ele>
        <time>2019-08-17T09:06:33Z</time>
      </trkpt>
      <trkpt lat="41.9983340" lon="-7.2416820">
        <ele>695.3</ele>
        <time>2019-08-17T09:06:34Z</time>
      </trkpt>
      <trkpt lat="41.9983490" lon="-7.2417880">
        <ele>695.3</ele>
        <time>2019-08-17T09:06:35Z</time>
      </trkpt>
      <trkpt lat="41.9983620" lon="-7.2418950">
        <ele>695.2</ele>
        <time>2019-08-17T09:06:36Z</time>
      </trkpt>
      <trkpt lat="41.9983720" lon="-7.2420030">
        <ele>695.2</ele>
        <time>2019-08-17T09:06:37Z</time>
      </trkpt>
      <trkpt lat="41.9983810" lon="-7.2421120">
        <ele>695.2</ele>
        <time>2019-08-17T09:06:38Z</time>
      </trkpt>
      <trkpt lat="41.9983880" lon="-7.2422210">
        <ele>695.1</ele>
        <time>2019-08-17T09:06:39Z</time>
      </trkpt>
      <trkpt lat="41.9983950" lon="-7.2423290">
        <ele>695.1</ele>
        <time>2019-08-17T09:06:40Z</time>
      </trkpt>
      <trkpt lat="41.9984030" lon="-7.2424360">
        <ele>695.0</ele>
        <time>2019-08-17T09:06:41Z</time>
      </trkpt>
      <trkpt lat="41.9984100" lon="-7.2425430">
        <ele>695.0</ele>
        <time>2019-08-17T09:06:42Z</time>
      </trkpt>
      <trkpt lat="41.9984180" lon="-7.2426470">
        <ele>694.9</ele>
        <time>2019-08-17T09:06:43Z</time>
      </trkpt>
      <trkpt lat="41.9984260" lon="-7.2427510">
        <ele>694.9</ele>
        <time>2019-08-17T09:06:44Z</time>
      </trkpt>
      <trkpt lat="41.9984330" lon="-7.2428530">
        <ele>694.8</ele>
        <time>2019-08-17T09:06:45Z</time>
      </trkpt>
      <trkpt lat="41.9984400" lon="-7.2429540">
        <ele>694.7</ele>
        <time>2019-08-17T09:06:46Z</time>
      </trkpt>
      <trkpt lat="41.9984470" lon="-7.2430530">
        <ele>695.2</ele>
        <time>2019-08-17T09:06:47Z</time>
      </trkpt>
      <trkpt lat="41.9984540" lon="-7.2431500">
        <ele>695.6</ele>
        <time>2019-08-17T09:06:48Z</time>
      </trkpt>
      <trkpt lat="41.9984600" lon="-7.2432460">
        <ele>696.0</ele>
        <time>2019-08-17T09:06:49Z</time>
      </trkpt>
      <trkpt lat="41.9984660" lon="-7.2433410">
        <ele>696.5</ele>
        <time>2019-08-17T09:06:50Z</time>
      </trkpt>
      <trkpt lat="41.9984720" lon="-7.2434350">
        <ele>696.9</ele>
        <time>2019-08-17T09:06:51Z</time>
      </trkpt>
      <trkpt lat="41.9984790" lon="-7.2435280">
        <ele>697.3</ele>
        <time>2019-08-17T09:06:52Z</time>
      </trkpt>
      <trkpt lat="41.9984860" lon="-7.2436220">
        <ele>697.8</ele>
        <time>2019-08-17T09:06:53Z</time>
      </trkpt>
      <trkpt lat="41.9984930" lon="-7.2437150">
        <ele>698.2</ele>
        <time>2019-08-17T09:06:54Z</time>
      </trkpt>
      <trkpt lat="41.9985010" lon="-7.2438080">
        <ele>698.7</ele>
        <time>2019-08-17T09:06:55Z</time>
      </trkpt>
      <trkpt lat="41.9985100" lon="-7.2439020">
        <ele>699.2</ele>
        <time>2019-08-17T09:06:56Z</time>
      </trkpt>
      <trkpt lat="41.9985190" lon="-7.2439960">
        <ele>699.7</ele>
        <time>2019-08-17T09:06:57Z</time>
      </trkpt>
      <trkpt lat="41.9985290" lon="-7.2440900">
        <ele>700.2</ele>
        <time>2019-08-17T09:06:58Z</time>
      </trkpt>
      <trkpt lat="41.9985380" lon="-7.2441840">
        <ele>700.7</ele>
        <time>2019-08-17T09:06:59Z</time>
      </trkpt>
      <trkpt lat="41.9985480" lon="-7.2442780">
        <ele>701.2</ele>
        <time>2019-08-17T09:07:00Z</time>
      </trkpt>
      <trkpt lat="41.9985570" lon="-7.2443730">
        <ele>701.8</ele>
        <time>2019-08-17T09:07:01Z</time>
      </trkpt>
      <trkpt lat="41.9985660" lon="-7.2444670">
        <ele>702.3</ele>
        <time>2019-08-17T09:07:02Z</time>
      </trkpt>
      <trkpt lat="41.9985740" lon="-7.2445620">
        <ele>702.7</ele>
        <time>2019-08-17T09:07:03Z</time>
      </trkpt>
      <trkpt lat="41.9985820" lon="-7.2446550">
        <ele>703.2</ele>
        <time>2019-08-17T09:07:04Z</time>
      </trkpt>
      <trkpt lat="41.9985890" lon="-7.2447480">
        <ele>703.7</ele>
        <time>2019-08-17T09:07:05Z</time>
      </trkpt>
      <trkpt lat="41.9985950" lon="-7.2448390">
        <ele>704.1</ele>
        <time>2019-08-17T09:07:06Z</time>
      </trkpt>
      <trkpt lat="41.9986010" lon="-7.2449280">
        <ele>704.6</ele>
        <time>2019-08-17T09:07:07Z</time>
      </trkpt>
      <trkpt lat="41.9986060" lon="-7.2450150">
        <ele>705.0</ele>
        <time>2019-08-17T09:07:08Z</time>
      </trkpt>
      <trkpt lat="41.9986100" lon="-7.2450990">
        <ele>705.4</ele>
        <time>2019-08-17T09:07:09Z</time>
      </trkpt>
      <trkpt lat="41.9986140" lon="-7.2451810">
        <ele>705.8</ele>
        <time>2019-08-17T09:07:10Z</time>
      </trkpt>
      <trkpt lat="41.9986180" lon="-7.2452600">
        <ele>706.3</ele>
        <time>2019-08-17T09:07:11Z</time>
      </trkpt>
      <trkpt lat="41.9986220" lon="-7.2453360">
        <ele>706.7</ele>
        <time>2019-08-17T09:07:12Z</time>
      </trkpt>
      <trkpt lat="41.9986260" lon="-7.2454100">
        <ele>707.1</ele>
        <time>2019-08-17T09:07:13Z</time>
      </trkpt>
      <trkpt lat="41.9986320" lon="-7.2454800">
        <ele>707.5</ele>
        <time>2019-08-17T09:07:14Z</time>
      </trkpt>
      <trkpt lat="41.9986380" lon="-7.2455460">
        <ele>707.9</ele>
        <time>2019-08-17T09:07:15Z</time>
      </trkpt>
      <trkpt lat="41.9986460" lon="-7.2456100">
        <ele>708.3</ele>
        <time>2019-08-17T09:07:16Z</time>
      </trkpt>
      <trkpt lat="41.9986530" lon="-7.2456710">
        <ele>708.7</ele>
        <time>2019-08-17T09:07:17Z</time>
      </trkpt>
      <trkpt lat="41.9986610" lon="-7.2457300">
        <ele>709.1</ele>
        <time>2019-08-17T09:07:18Z</time>
      </trkpt>
      <trkpt lat="41.9986690" lon="-7.2457880">
        <ele>709.5</ele>
        <time>2019-08-17T09:07:19Z</time>
      </trkpt>
      <trkpt lat="41.9986770" lon="-7.2458430">
        <ele>709.8</ele>
        <time>2019-08-17T09:07:20Z</time>
      </trkpt>
      <trkpt lat="41.9986840" lon="-7.2458980">
        <ele>710.2</ele>
        <time>2019-08-17T09:07:21Z</time>
      </trkpt>
      <trkpt lat="41.9986900" lon="-7.2459530">
        <ele>710.6</ele>
        <time>2019-08-17T09:07:22Z</time>
      </trkpt>
      <trkpt lat="41.9986940" lon="-7.2460060">
        <ele>710.8</ele>
        <time>2019-08-17T09:07:23Z</time>
      </trkpt>
      <trkpt lat="41.9986990" lon="-7.2460590">
        <ele>711.0</ele>
        <time>2019-08-17T09:07:24Z</time>
      </trkpt>
      <trkpt lat="41.9987020" lon="-7.2461120">
        <ele>711.3</ele>
        <time>2019-08-17T09:07:25Z</time>
      </trkpt>
      <trkpt lat="41.9987050" lon="-7.2461630">
        <ele>711.5</ele>
        <time>2019-08-17T09:07:26Z</time>
      </trkpt>
      <trkpt lat="41.9987070" lon="-7.2462150">
        <ele>711.8</ele>
        <time>2019-08-17T09:07:27Z</time>
      </trkpt>
      <trkpt lat="41.9987090" lon="-7.2462650">
        <ele>712.1</ele>
        <time>2019-08-17T09:07:28Z</time>
      </trkpt>
      <trkpt lat="41.9987110" lon="-7.2463150">
        <ele>712.5</ele>
        <time>2019-08-17T09:07:29Z</time>
      </trkpt>
      <trkpt lat="41.9987130" lon="-7.2463650">
        <ele>712.8</ele>
        <time>2019-08-17T09:07:30Z</time>
      </trkpt>
      <trkpt lat="41.9987140" lon="-7.2464130">
        <ele>713.2</ele>
        <time>2019-08-17T09:07:31Z</time>
      </trkpt>
      <trkpt lat="41.9987160" lon="-7.2464610">
        <ele>713.5</ele>
        <time>2019-08-17T09:07:32Z</time>
      </trkpt>
      <trkpt lat="41.9987170" lon="-7.2465090">
        <ele>713.8</ele>
        <time>2019-08-17T09:07:33Z</time>
      </trkpt>
      <trkpt lat="41.9987190" lon="-7.2465560">
        <ele>714.1</ele>
        <time>2019-08-17T09:07:34Z</time>
      </trkpt>
      <trkpt lat="41.9987220" lon="-7.2466020">
        <ele>714.3</ele>
        <time>2019-08-17T09:07:35Z</time>
      </trkpt>
      <trkpt lat="41.9987240" lon="-7.2466480">
        <ele>714.6</ele>
        <time>2019-08-17T09:07:36Z</time>
      </trkpt>
      <trkpt lat="41.9987270" lon="-7.2466930">
        <ele>714.8</ele>
        <time>2019-08-17T09:07:37Z</time>
      </trkpt>
      <trkpt lat="41.9987310" lon="-7.2467370">
        <ele>715.1</ele>
        <time>2019-08-17T09:07:38Z</time>
      </trkpt>
      <trkpt lat="41.9987340" lon="-7.2467820">
        <ele>715.3</ele>
        <time>2019-08-17T09:07:39Z</time>
      </trkpt>
      <trkpt lat="41.9987380" lon="-7.2468250">
        <ele>715.6</ele>
        <time>2019-08-17T09:07:40Z</time>
      </trkpt>
      <trkpt lat="41.9987410" lon="-7.2468690">
        <ele>715.8</ele>
        <time>2019-08-17T09:07:41Z</time>
      </trkpt>
      <trkpt lat="41.9987450" lon="-7.2469120">
        <ele>716.1</ele>
        <time>2019-08-17T09:07:42Z</time>
      </trkpt>
      <trkpt lat="41.9987490" lon="-7.2469540">
        <ele>716.3</ele>
        <time>2019-08-17T09:07:43Z</time>
      </trkpt>
      <trkpt lat="41.9987540" lon="-7.2469970">
        <ele>716.6</ele>
        <time>2019-08-17T09:07:44Z</time>
      </trkpt>
      <trkpt lat="41.9987580" lon="-7.2470390">
        <ele>716.8</ele>
        <time>2019-08-17T09:07:45Z</time>
      </trkpt>
      <trkpt lat="41.9987620" lon="-7.2470810">
        <ele>717.0</ele>
        <time>2019-08-17T09:07:46Z</time>
      </trkpt>
      <trkpt lat="41.9987660" lon="-7.2471230">
        <ele>717.3</ele>
        <time>2019-08-17T09:07:47Z</time>
      </trkpt>
      <trkpt lat="41.9987700" lon="-7.2471650">
        <ele>717.5</ele>
        <time>2019-08-17T09:07:48Z</time>
      </trkpt>
      <trkpt lat="41.9987740" lon="-7.2472070">
        <ele>717.8</ele>
        <time>2019-08-17T09:07:49Z</time>
      </trkpt>
      <trkpt lat="41.9987780" lon="-7.2472480">
        <ele>718.1</ele>
        <time>2019-08-17T09:07:50Z</time>
      </trkpt>
      <trkpt lat="41.9987820" lon="-7.2472900">
        <ele>718.3</ele>
        <time>2019-08-17T09:07:51Z</time>
      </trkpt>
      <trkpt lat="41.9987860" lon="-7.2473320">
        <ele>718.6</ele>
        <time>2019-08-17T09:07:52Z</time>
      </trkpt>
      <trkpt lat="41.9987890" lon="-7.2473730">
        <ele>718.8</ele>
        <time>2019-08-17T09:07:53Z</time>
      </trkpt>
      <trkpt lat="41.9987930" lon="-7.2474150">
        <ele>719.1</ele>
        <time>2019-08-17T09:07:54Z</time>
      </trkpt>
      <trkpt lat="41.9987960" lon="-7.2474560">
        <ele>719.3</ele>
        <time>2019-08-17T09:07:55Z</time>
      </trkpt>
      <trkpt lat="41.9987990" lon="-7.2474980">
        <ele>719.6</ele>
        <time>2019-08-17T09:07:56Z</time>
      </trkpt>
      <trkpt lat="41.9988030" lon="-7.2475390">
        <ele>719.8</ele>
        <time>2019-08-17T09:07:57Z</time>
      </trkpt>
      <trkpt lat="41.9988060" lon="-7.2475800">
        <ele>720.0</ele>
        <time>2019-08-17T09:07:58Z</time>
      </trkpt>
      <trkpt lat="41.9988090" lon="-7.2476210">
        <ele>720.2</ele>
        <time>2019-08-17T09:07:59Z</time>
      </trkpt>
      <trkpt lat="41.9988110" lon="-7.2476620">
        <ele>720.4</ele>
        <time>2019-08-17T09:08:00Z</time>
      </trkpt>
      <trkpt lat="41.9988140" lon="-7.2477020">
        <ele>720.6</ele>
        <time>2019-08-17T09:08:01Z</time>
      </trkpt>
      <trkpt lat="41.9988170" lon="-7.2477430">
        <ele>720.8</ele>
        <time>2019-08-17T09:08:02Z</time>
      </trkpt>
      <trkpt lat="41.9988190" lon="-7.2477830">
        <ele>721.0</ele>
        <time>2019-08-17T09:08:03Z</time>
      </trkpt>
      <trkpt lat="41.9988210" lon="-7.2478240">
        <ele>721.2</ele>
        <time>2019-08-17T09:08:04Z</time>
      </trkpt>
      <trkpt lat="41.9988240" lon="-7.2478640">
        <ele>721.4</ele>
        <time>2019-08-17T09:08:05Z</time>
      </trkpt>
      <trkpt lat="41.9988260" lon="-7.2479040">
        <ele>721.6</ele>
        <time>2019-08-17T09:08:06Z</time>
      </trkpt>
      <trkpt lat="41.9988280" lon="-7.2479440">
        <ele>721.7</ele>
        <time>2019-08-17T09:08:07Z</time>
      </trkpt>
      <trkpt lat="41.9988310" lon="-7.2479830">
        <ele>721.9</ele>
        <time>2019-08-17T09:08:08Z</time>
      </trkpt>
      <trkpt lat="41.9988330" lon="-7.2480230">
        <ele>722.1</ele>
        <time>2019-08-17T09:08:09Z</time>
      </trkpt>
      <trkpt lat="41.9988360" lon="-7.2480620">
        <ele>722.3</ele>
        <time>2019-08-17T09:08:10Z</time>
      </trkpt>
      <trkpt lat="41.9988380" lon="-7.2481020">
        <ele>722.4</ele>
        <time>2019-08-17T09:08:11Z</time>
      </trkpt>
      <trkpt lat="41.9988410" lon="-7.2481410">
        <ele>722.6</ele>
        <time>2019-08-17T09:08:12Z</time>
      </trkpt>
      <trkpt lat="41.9988440" lon="-7.2481790">
        <ele>722.8</ele>
        <time>2019-08-17T09:08:13Z</time>
      </trkpt>
      <trkpt lat="41.9988470" lon="-7.2482180">
        <ele>722.9</ele>
        <time>2019-08-17T09:08:14Z</time>
      </trkpt>
      <trkpt lat="41.9988500" lon="-7.2482570">
        <ele>723.1</ele>
        <time>2019-08-17T09:08:15Z</time>
      </trkpt>
      <trkpt lat="41.9988540" lon="-7.2482950">
        <ele>723.3</ele>
        <time>2019-08-17T09:08:16Z</time>
      </trkpt>
      <trkpt lat="41.9988580" lon="-7.2483330">
        <ele>723.4</ele>
        <time>2019-08-17T09:08:17Z</time>
      </trkpt>
      <trkpt lat="41.9988620" lon="-7.2483710">
        <ele>723.6</ele>
        <time>2019-08-17T09:08:18Z</time>
      </trkpt>
      <trkpt lat="41.9988650" lon="-7.2484090">
        <ele>723.8</ele>
        <time>2019-08-17T09:08:19Z</time>
      </trkpt>
      <trkpt lat="41.9988690" lon="-7.2484470">
        <ele>724.0</ele>
        <time>2019-08-17T09:08:20Z</time>
      </trkpt>
      <trkpt lat="41.9988730" lon="-7.2484850">
        <ele>724.2</ele>
        <time>2019-08-17T09:08:21Z</time>
      </trkpt>
      <trkpt lat="41.9988770" lon="-7.2485230">
        <ele>724.4</ele>
        <time>2019-08-17T09:08:22Z</time>
      </trkpt>
      <trkpt lat="41.9988810" lon="-7.2485610">
        <ele>724.6</ele>
        <time>2019-08-17T09:08:23Z</time>
      </trkpt>
      <trkpt lat="41.9988840" lon="-7.2485990">
        <ele>724.8</ele>
        <time>2019-08-17T09:08:24Z</time>
      </trkpt>
      <trkpt lat="41.9988870" lon="-7.2486370">
        <ele>725.0</ele>
        <time>2019-08-17T09:08:25Z</time>
      </trkpt>
      <trkpt lat="41.9988890" lon="-7.2486760">
        <ele>725.2</ele>
        <time>2019-08-17T09:08:26Z</time>
      </trkpt>
      <trkpt lat="41.9988910" lon="-7.2487150">
        <ele>725.5</ele>
        <time>2019-08-17T09:08:27Z</time>
      </trkpt>
      <trkpt lat="41.9988930" lon="-7.2487540">
        <ele>725.7</ele>
        <time>2019-08-17T09:08:28Z</time>
      </trkpt>
      <trkpt lat="41.9988940" lon="-7.2487940">
        <ele>725.9</ele>
        <time>2019-08-17T09:08:29Z</time>
      </trkpt>
      <trkpt lat="41.9988940" lon="-7.2488330">
        <ele>726.2</ele>
        <time>2019-08-17T09:08:30Z</time>
      </trkpt>
      <trkpt lat="41.9988940" lon="-7.2488730">
        <ele>726.4</ele>
        <time>2019-08-17T09:08:31Z</time>
      </trkpt>
      <trkpt lat="41.9988940" lon="-7.2489130">
        <ele>726.7</ele>
        <time>2019-08-17T09:08:32Z</time>
      </trkpt>
      <trkpt lat="41.9988930" lon="-7.2489530">
        <ele>727.0</ele>
        <time>2019-08-17T09:08:33Z</time>
      </trkpt>
      <trkpt lat="41.9988910" lon="-7.2489930">
        <ele>727.2</ele>
        <time>2019-08-17T09:08:34Z</time>
      </trkpt>
      <trkpt lat="41.9988890" lon="-7.2490330">
        <ele>727.5</ele>
        <time>2019-08-17T09:08:35Z</time>
      </trkpt>
      <trkpt lat="41.9988870" lon="-7.2490720">
        <ele>727.7</ele>
        <time>2019-08-17T09:08:36Z</time>
      </trkpt>
      <trkpt lat="41.9988840" lon="-7.2491120">
        <ele>728.0</ele>
        <time>2019-08-17T09:08:37Z</time>
      </trkpt>
      <trkpt lat="41.9988800" lon="-7.2491510">
        <ele>728.2</ele>
        <time>2019-08-17T09:08:38Z</time>
      </trkpt>
      <trkpt lat="41.9988770" lon="-7.2491890">
        <ele>728.4</ele>
        <time>2019-08-17T09:08:39Z</time>
      </trkpt>
      <trkpt lat="41.9988730" lon="-7.2492270">
        <ele>728.7</ele>
        <time>2019-08-17T09:08:40Z</time>
      </trkpt>
      <trkpt lat="41.9988680" lon="-7.2492640">
        <ele>728.9</ele>
        <time>2019-08-17T09:08:41Z</time>
      </trkpt>
      <trkpt lat="41.9988630" lon="-7.2493010">
        <ele>729.1</ele>
        <time>2019-08-17T09:08:42Z</time>
      </trkpt>
      <trkpt lat="41.9988580" lon="-7.2493370">
        <ele>729.3</ele>
        <time>2019-08-17T09:08:43Z</time>
      </trkpt>
      <trkpt lat="41.9988530" lon="-7.2493730">
        <ele>729.5</ele>
        <time>2019-08-17T09:08:44Z</time>
      </trkpt>
      <trkpt lat="41.9988470" lon="-7.2494070">
        <ele>729.7</ele>
        <time>2019-08-17T09:08:45Z</time>
      </trkpt>
      <trkpt lat="41.9988400" lon="-7.2494420">
        <ele>729.8</ele>
        <time>2019-08-17T09:08:46Z</time>
      </trkpt>
      <trkpt lat="41.9988330" lon="-7.2494770">
        <ele>730.0</ele>
        <time>2019-08-17T09:08:47Z</time>
      </trkpt>
      <trkpt lat="41.9988250" lon="-7.2495110">
        <ele>730.3</ele>
        <time>2019-08-17T09:08:48Z</time>
      </trkpt>
      <trkpt lat="41.9988160" lon="-7.2495460">
        <ele>730.4</ele>
        <time>2019-08-17T09:08:49Z</time>
      </trkpt>
      <trkpt lat="41.9988060" lon="-7.2495810">
        <ele>730.5</ele>
        <time>2019-08-17T09:08:50Z</time>
      </trkpt>
      <trkpt lat="41.9987950" lon="-7.2496160">
        <ele>730.7</ele>
        <time>2019-08-17T09:08:51Z</time>
      </trkpt>
      <trkpt lat="41.9987840" lon="-7.2496510">
        <ele>730.8</ele>
        <time>2019-08-17T09:08:52Z</time>
      </trkpt>
      <trkpt lat="41.9987710" lon="-7.2496860">
        <ele>731.0</ele>
        <time>2019-08-17T09:08:53Z</time>
      </trkpt>
      <trkpt lat="41.9987580" lon="-7.2497210">
        <ele>731.2</ele>
        <time>2019-08-17T09:08:54Z</time>
      </trkpt>
      <trkpt lat="41.9987440" lon="-7.2497560">
        <ele>731.4</ele>
        <time>2019-08-17T09:08:55Z</time>
      </trkpt>
      <trkpt lat="41.9987290" lon="-7.2497910">
        <ele>731.6</ele>
        <time>2019-08-17T09:08:56Z</time>
      </trkpt>
      <trkpt lat="41.9987130" lon="-7.2498250">
        <ele>731.8</ele>
        <time>2019-08-17T09:08:57Z</time>
      </trkpt>
      <trkpt lat="41.9986960" lon="-7.2498580">
        <ele>732.0</ele>
        <time>2019-08-17T09:08:58Z</time>
      </trkpt>
      <trkpt lat="41.9986790" lon="-7.2498910">
        <ele>732.2</ele>
        <time>2019-08-17T09:08:59Z</time>
      </trkpt>
      <trkpt lat="41.9986610" lon="-7.2499240">
        <ele>732.4</ele>
        <time>2019-08-17T09:09:00Z</time>
      </trkpt>
      <trkpt lat="41.9986420" lon="-7.2499560">
        <ele>732.6</ele>
        <time>2019-08-17T09:09:01Z</time>
      </trkpt>
      <trkpt lat="41.9986220" lon="-7.2499870">
        <ele>732.9</ele>
        <time>2019-08-17T09:09:02Z</time>
      </trkpt>
      <trkpt lat="41.9986020" lon="-7.2500180">
        <ele>733.1</ele>
        <time>2019-08-17T09:09:03Z</time>
      </trkpt>
      <trkpt lat="41.9985810" lon="-7.2500480">
        <ele>733.3</ele>
        <time>2019-08-17T09:09:04Z</time>
      </trkpt>
      <trkpt lat="41.9985590" lon="-7.2500780">
        <ele>733.5</ele>
        <time>2019-08-17T09:09:05Z</time>
      </trkpt>
      <trkpt lat="41.9985370" lon="-7.2501070">
        <ele>733.7</ele>
        <time>2019-08-17T09:09:06Z</time>
      </trkpt>
      <trkpt lat="41.9985140" lon="-7.2501350">
        <ele>733.8</ele>
        <time>2019-08-17T09:09:07Z</time>
      </trkpt>
      <trkpt lat="41.9984910" lon="-7.2501620">
        <ele>733.9</ele>
        <time>2019-08-17T09:09:08Z</time>
      </trkpt>
      <trkpt lat="41.9984670" lon="-7.2501890">
        <ele>734.0</ele>
        <time>2019-08-17T09:09:09Z</time>
      </trkpt>
      <trkpt lat="41.9984420" lon="-7.2502140">
        <ele>734.1</ele>
        <time>2019-08-17T09:09:10Z</time>
      </trkpt>
      <trkpt lat="41.9984170" lon="-7.2502390">
        <ele>734.1</ele>
        <time>2019-08-17T09:09:11Z</time>
      </trkpt>
      <trkpt lat="41.9983920" lon="-7.2502630">
        <ele>734.2</ele>
        <time>2019-08-17T09:09:12Z</time>
      </trkpt>
      <trkpt lat="41.9983660" lon="-7.2502860">
        <ele>734.2</ele>
        <time>2019-08-17T09:09:13Z</time>
      </trkpt>
      <trkpt lat="41.9983390" lon="-7.2503080">
        <ele>734.3</ele>
        <time>2019-08-17T09:09:14Z</time>
      </trkpt>
      <trkpt lat="41.9983120" lon="-7.2503290">
        <ele>734.4</ele>
        <time>2019-08-17T09:09:15Z</time>
      </trkpt>
      <trkpt lat="41.9982840" lon="-7.2503500">
        <ele>734.5</ele>
        <time>2019-08-17T09:09:16Z</time>
      </trkpt>
      <trkpt lat="41.9982560" lon="-7.2503690">
        <ele>734.6</ele>
        <time>2019-08-17T09:09:17Z</time>
      </trkpt>
      <trkpt lat="41.9982280" lon="-7.2503870">
        <ele>734.7</ele>
        <time>2019-08-17T09:09:18Z</time>
      </trkpt>
      <trkpt lat="41.9981990" lon="-7.2504030">
        <ele>734.9</ele>
        <time>2019-08-17T09:09:19Z</time>
      </trkpt>
      <trkpt lat="41.9981700" lon="-7.2504190">
        <ele>735.1</ele>
        <time>2019-08-17T09:09:20Z</time>
      </trkpt>
      <trkpt lat="41.9981400" lon="-7.2504340">
        <ele>735.4</ele>
        <time>2019-08-17T09:09:21Z</time>
      </trkpt>
      <trkpt lat="41.9980960" lon="-7.2504530">
        <ele>735.7</ele>
        <time>2019-08-17T09:09:22Z</time>
      </trkpt>
      <trkpt lat="41.9980800" lon="-7.2504590">
        <ele>735.8</ele>
        <time>2019-08-17T09:09:23Z</time>
      </trkpt>
      <trkpt lat="41.9980500" lon="-7.2504700">
        <ele>736.1</ele>
        <time>2019-08-17T09:09:24Z</time>
      </trkpt>
      <trkpt lat="41.9980190" lon="-7.2504800">
        <ele>736.3</ele>
        <time>2019-08-17T09:09:25Z</time>
      </trkpt>
      <trkpt lat="41.9979880" lon="-7.2504890">
        <ele>736.5</ele>
        <time>2019-08-17T09:09:26Z</time>
      </trkpt>
      <trkpt lat="41.9979570" lon="-7.2504970">
        <ele>736.7</ele>
        <time>2019-08-17T09:09:27Z</time>
      </trkpt>
      <trkpt lat="41.9979260" lon="-7.2505050">
        <ele>736.9</ele>
        <time>2019-08-17T09:09:28Z</time>
      </trkpt>
      <trkpt lat="41.9978940" lon="-7.2505110">
        <ele>737.2</ele>
        <time>2019-08-17T09:09:29Z</time>
      </trkpt>
      <trkpt lat="41.9978620" lon="-7.2505180">
        <ele>737.4</ele>
        <time>2019-08-17T09:09:30Z</time>
      </trkpt>
      <trkpt lat="41.9978310" lon="-7.2505240">
        <ele>737.6</ele>
        <time>2019-08-17T09:09:31Z</time>
      </trkpt>
      <trkpt lat="41.9977990" lon="-7.2505290">
        <ele>737.7</ele>
        <time>2019-08-17T09:09:32Z</time>
      </trkpt>
      <trkpt lat="41.9977670" lon="-7.2505340">
        <ele>737.9</ele>
        <time>2019-08-17T09:09:33Z</time>
      </trkpt>
      <trkpt lat="41.9977350" lon="-7.2505390">
        <ele>738.0</ele>
        <time>2019-08-17T09:09:34Z</time>
      </trkpt>
      <trkpt lat="41.9977030" lon="-7.2505450">
        <ele>738.0</ele>
        <time>2019-08-17T09:09:35Z</time>
      </trkpt>
      <trkpt lat="41.9976710" lon="-7.2505500">
        <ele>738.1</ele>
        <time>2019-08-17T09:09:36Z</time>
      </trkpt>
      <trkpt lat="41.9976390" lon="-7.2505550">
        <ele>738.1</ele>
        <time>2019-08-17T09:09:37Z</time>
      </trkpt>
      <trkpt lat="41.9976080" lon="-7.2505600">
        <ele>738.2</ele>
        <time>2019-08-17T09:09:38Z</time>
      </trkpt>
      <trkpt lat="41.9975760" lon="-7.2505660">
        <ele>738.2</ele>
        <time>2019-08-17T09:09:39Z</time>
      </trkpt>
      <trkpt lat="41.9975440" lon="-7.2505720">
        <ele>738.2</ele>
        <time>2019-08-17T09:09:40Z</time>
      </trkpt>
      <trkpt lat="41.9975130" lon="-7.2505780">
        <ele>738.3</ele>
        <time>2019-08-17T09:09:41Z</time>
      </trkpt>
      <trkpt lat="41.9974820" lon="-7.2505840">
        <ele>738.3</ele>
        <time>2019-08-17T09:09:42Z</time>
      </trkpt>
      <trkpt lat="41.9974500" lon="-7.2505910">
        <ele>738.4</ele>
        <time>2019-08-17T09:09:43Z</time>
      </trkpt>
      <trkpt lat="41.9974190" lon="-7.2505970">
        <ele>738.4</ele>
        <time>2019-08-17T09:09:44Z</time>
      </trkpt>
      <trkpt lat="41.9973880" lon="-7.2506040">
        <ele>738.5</ele>
        <time>2019-08-17T09:09:45Z</time>
      </trkpt>
      <trkpt lat="41.9973560" lon="-7.2506110">
        <ele>738.6</ele>
        <time>2019-08-17T09:09:46Z</time>
      </trkpt>
      <trkpt lat="41.9973250" lon="-7.2506180">
        <ele>738.7</ele>
        <time>2019-08-17T09:09:47Z</time>
      </trkpt>
      <trkpt lat="41.9972940" lon="-7.2506250">
        <ele>738.8</ele>
        <time>2019-08-17T09:09:48Z</time>
      </trkpt>
      <trkpt lat="41.9972630" lon="-7.2506320">
        <ele>738.9</ele>
        <time>2019-08-17T09:09:49Z</time>
      </trkpt>
      <trkpt lat="41.9972320" lon="-7.2506400">
        <ele>739.0</ele>
        <time>2019-08-17T09:09:50Z</time>
      </trkpt>
      <trkpt lat="41.9972010" lon="-7.2506480">
        <ele>739.2</ele>
        <time>2019-08-17T09:09:51Z</time>
      </trkpt>
      <trkpt lat="41.9971700" lon="-7.2506560">
        <ele>739.3</ele>
        <time>2019-08-17T09:09:52Z</time>
      </trkpt>
      <trkpt lat="41.9971390" lon="-7.2506640">
        <ele>739.4</ele>
        <time>2019-08-17T09:09:53Z</time>
      </trkpt>
      <trkpt lat="41.9971080" lon="-7.2506730">
        <ele>739.5</ele>
        <time>2019-08-17T09:09:54Z</time>
      </trkpt>
      <trkpt lat="41.9970780" lon="-7.2506820">
        <ele>739.6</ele>
        <time>2019-08-17T09:09:55Z</time>
      </trkpt>
      <trkpt lat="41.9970470" lon="-7.2506910">
        <ele>739.7</ele>
        <time>2019-08-17T09:09:56Z</time>
      </trkpt>
      <trkpt lat="41.9970170" lon="-7.2507010">
        <ele>739.8</ele>
        <time>2019-08-17T09:09:57Z</time>
      </trkpt>
      <trkpt lat="41.9969870" lon="-7.2507110">
        <ele>739.9</ele>
        <time>2019-08-17T09:09:58Z</time>
      </trkpt>
      <trkpt lat="41.9969570" lon="-7.2507210">
        <ele>740.0</ele>
        <time>2019-08-17T09:09:59Z</time>
      </trkpt>
      <trkpt lat="41.9969270" lon="-7.2507320">
        <ele>740.1</ele>
        <time>2019-08-17T09:10:00Z</time>
      </trkpt>
      <trkpt lat="41.9968970" lon="-7.2507430">
        <ele>740.2</ele>
        <time>2019-08-17T09:10:01Z</time>
      </trkpt>
      <trkpt lat="41.9968670" lon="-7.2507550">
        <ele>740.3</ele>
        <time>2019-08-17T09:10:02Z</time>
      </trkpt>
      <trkpt lat="41.9968380" lon="-7.2507680">
        <ele>740.4</ele>
        <time>2019-08-17T09:10:03Z</time>
      </trkpt>
      <trkpt lat="41.9968090" lon="-7.2507810">
        <ele>740.5</ele>
        <time>2019-08-17T09:10:04Z</time>
      </trkpt>
      <trkpt lat="41.9967800" lon="-7.2507940">
        <ele>740.6</ele>
        <time>2019-08-17T09:10:05Z</time>
      </trkpt>
      <trkpt lat="41.9967510" lon="-7.2508080">
        <ele>740.8</ele>
        <time>2019-08-17T09:10:06Z</time>
      </trkpt>
      <trkpt lat="41.9967220" lon="-7.2508220">
        <ele>740.9</ele>
        <time>2019-08-17T09:10:07Z</time>
      </trkpt>
      <trkpt lat="41.9966940" lon="-7.2508370">
        <ele>741.0</ele>
        <time>2019-08-17T09:10:08Z</time>
      </trkpt>
      <trkpt lat="41.9966650" lon="-7.2508520">
        <ele>741.2</ele>
        <time>2019-08-17T09:10:09Z</time>
      </trkpt>
      <trkpt lat="41.9966370" lon="-7.2508670">
        <ele>741.3</ele>
        <time>2019-08-17T09:10:10Z</time>
      </trkpt>
      <trkpt lat="41.9966090" lon="-7.2508830">
        <ele>741.5</ele>
        <time>2019-08-17T09:10:11Z</time>
      </trkpt>
      <trkpt lat="41.9965800" lon="-7.2508980">
        <ele>741.7</ele>
        <time>2019-08-17T09:10:12Z</time>
      </trkpt>
      <trkpt lat="41.9965520" lon="-7.2509140">
        <ele>741.9</ele>
        <time>2019-08-17T09:10:13Z</time>
      </trkpt>
      <trkpt lat="41.9965240" lon="-7.2509300">
        <ele>742.1</ele>
        <time>2019-08-17T09:10:14Z</time>
      </trkpt>
      <trkpt lat="41.9964950" lon="-7.2509470">
        <ele>742.3</ele>
        <time>2019-08-17T09:10:15Z</time>
      </trkpt>
      <trkpt lat="41.9964670" lon="-7.2509630">
        <ele>742.5</ele>
        <time>2019-08-17T09:10:16Z</time>
      </trkpt>
      <trkpt lat="41.9964380" lon="-7.2509790">
        <ele>742.7</ele>
        <time>2019-08-17T09:10:17Z</time>
      </trkpt>
      <trkpt lat="41.9964090" lon="-7.2509950">
        <ele>742.9</ele>
        <time>2019-08-17T09:10:18Z</time>
      </trkpt>
      <trkpt lat="41.9963800" lon="-7.2510110">
        <ele>743.1</ele>
        <time>2019-08-17T09:10:19Z</time>
      </trkpt>
      <trkpt lat="41.9963510" lon="-7.2510270">
        <ele>743.2</ele>
        <time>2019-08-17T09:10:20Z</time>
      </trkpt>
      <trkpt lat="41.9963230" lon="-7.2510440">
        <ele>743.4</ele>
        <time>2019-08-17T09:10:21Z</time>
      </trkpt>
      <trkpt lat="41.9962940" lon="-7.2510600">
        <ele>743.6</ele>
        <time>2019-08-17T09:10:22Z</time>
      </trkpt>
      <trkpt lat="41.9962650" lon="-7.2510760">
        <ele>743.7</ele>
        <time>2019-08-17T09:10:23Z</time>
      </trkpt>
      <trkpt lat="41.9962360" lon="-7.2510920">
        <ele>743.8</ele>
        <time>2019-08-17T09:10:24Z</time>
      </trkpt>
      <trkpt lat="41.9962070" lon="-7.2511080">
        <ele>743.9</ele>
        <time>2019-08-17T09:10:25Z</time>
      </trkpt>
      <trkpt lat="41.9961780" lon="-7.2511240">
        <ele>744.0</ele>
        <time>2019-08-17T09:10:26Z</time>
      </trkpt>
      <trkpt lat="41.9961490" lon="-7.2511400">
        <ele>744.2</ele>
        <time>2019-08-17T09:10:27Z</time>
      </trkpt>
      <trkpt lat="41.9961200" lon="-7.2511560">
        <ele>744.3</ele>
        <time>2019-08-17T09:10:28Z</time>
      </trkpt>
      <trkpt lat="41.9960920" lon="-7.2511730">
        <ele>744.4</ele>
        <time>2019-08-17T09:10:29Z</time>
      </trkpt>
      <trkpt lat="41.9960630" lon="-7.2511890">
        <ele>744.6</ele>
        <time>2019-08-17T09:10:30Z</time>
      </trkpt>
      <trkpt lat="41.9960350" lon="-7.2512050">
        <ele>744.7</ele>
        <time>2019-08-17T09:10:31Z</time>
      </trkpt>
      <trkpt lat="41.9960070" lon="-7.2512210">
        <ele>744.9</ele>
        <time>2019-08-17T09:10:32Z</time>
      </trkpt>
      <trkpt lat="41.9959780" lon="-7.2512370">
        <ele>745.1</ele>
        <time>2019-08-17T09:10:33Z</time>
      </trkpt>
      <trkpt lat="41.9959500" lon="-7.2512540">
        <ele>745.3</ele>
        <time>2019-08-17T09:10:34Z</time>
      </trkpt>
      <trkpt lat="41.9959220" lon="-7.2512710">
        <ele>745.4</ele>
        <time>2019-08-17T09:10:35Z</time>
      </trkpt>
      <trkpt lat="41.9958940" lon="-7.2512890">
        <ele>745.6</ele>
        <time>2019-08-17T09:10:36Z</time>
      </trkpt>
      <trkpt lat="41.9958650" lon="-7.2513070">
        <ele>745.8</ele>
        <time>2019-08-17T09:10:37Z</time>
      </trkpt>
      <trkpt lat="41.9958370" lon="-7.2513260">
        <ele>745.9</ele>
        <time>2019-08-17T09:10:38Z</time>
      </trkpt>
      <trkpt lat="41.9958080" lon="-7.2513450">
        <ele>746.1</ele>
        <time>2019-08-17T09:10:39Z</time>
      </trkpt>
      <trkpt lat="41.9957800" lon="-7.2513650">
        <ele>746.2</ele>
        <time>2019-08-17T09:10:40Z</time>
      </trkpt>
      <trkpt lat="41.9957530" lon="-7.2513860">
        <ele>746.3</ele>
        <time>2019-08-17T09:10:41Z</time>
      </trkpt>
      <trkpt lat="41.9957260" lon="-7.2514080">
        <ele>746.4</ele>
        <time>2019-08-17T09:10:42Z</time>
      </trkpt>
      <trkpt lat="41.9957000" lon="-7.2514320">
        <ele>746.5</ele>
        <time>2019-08-17T09:10:43Z</time>
      </trkpt>
      <trkpt lat="41.9956750" lon="-7.2514560">
        <ele>746.6</ele>
        <time>2019-08-17T09:10:44Z</time>
      </trkpt>
      <trkpt lat="41.9956510" lon="-7.2514810">
        <ele>746.7</ele>
        <time>2019-08-17T09:10:45Z</time>
      </trkpt>
      <trkpt lat="41.9956280" lon="-7.2515070">
        <ele>746.8</ele>
        <time>2019-08-17T09:10:46Z</time>
      </trkpt>
      <trkpt lat="41.9956050" lon="-7.2515340">
        <ele>746.9</ele>
        <time>2019-08-17T09:10:47Z</time>
      </trkpt>
      <trkpt lat="41.9955830" lon="-7.2515610">
        <ele>747.0</ele>
        <time>2019-08-17T09:10:48Z</time>
      </trkpt>
      <trkpt lat="41.9955620" lon="-7.2515890">
        <ele>747.1</ele>
        <time>2019-08-17T09:10:49Z</time>
      </trkpt>
      <trkpt lat="41.9955400" lon="-7.2516180">
        <ele>747.2</ele>
        <time>2019-08-17T09:10:50Z</time>
      </trkpt>
      <trkpt lat="41.9955190" lon="-7.2516470">
        <ele>747.2</ele>
        <time>2019-08-17T09:10:51Z</time>
      </trkpt>
      <trkpt lat="41.9954980" lon="-7.2516760">
        <ele>747.3</ele>
        <time>2019-08-17T09:10:52Z</time>
      </trkpt>
      <trkpt lat="41.9954770" lon="-7.2517060">
        <ele>747.4</ele>
        <time>2019-08-17T09:10:53Z</time>
      </trkpt>
      <trkpt lat="41.9954560" lon="-7.2517360">
        <ele>747.5</ele>
        <time>2019-08-17T09:10:54Z</time>
      </trkpt>
      <trkpt lat="41.9954360" lon="-7.2517680">
        <ele>747.6</ele>
        <time>2019-08-17T09:10:55Z</time>
      </trkpt>
      <trkpt lat="41.9954170" lon="-7.2518000">
        <ele>747.7</ele>
        <time>2019-08-17T09:10:56Z</time>
      </trkpt>
      <trkpt lat="41.9953990" lon="-7.2518330">
        <ele>747.8</ele>
        <time>2019-08-17T09:10:57Z</time>
      </trkpt>
      <trkpt lat="41.9953820" lon="-7.2518680">
        <ele>747.9</ele>
        <time>2019-08-17T09:10:58Z</time>
      </trkpt>
      <trkpt lat="41.9953650" lon="-7.2519030">
        <ele>748.0</ele>
        <time>2019-08-17T09:10:59Z</time>
      </trkpt>
      <trkpt lat="41.9953500" lon="-7.2519400">
        <ele>748.1</ele>
        <time>2019-08-17T09:11:00Z</time>
      </trkpt>
      <trkpt lat="41.9953350" lon="-7.2519780">
        <ele>748.2</ele>
        <time>2019-08-17T09:11:01Z</time>
      </trkpt>
      <trkpt lat="41.9953210" lon="-7.2520170">
        <ele>748.4</ele>
        <time>2019-08-17T09:11:02Z</time>
      </trkpt>
      <trkpt lat="41.9953080" lon="-7.2520570">
        <ele>748.5</ele>
        <time>2019-08-17T09:11:03Z</time>
      </trkpt>
      <trkpt lat="41.9952950" lon="-7.2520990">
        <ele>748.7</ele>
        <time>2019-08-17T09:11:04Z</time>
      </trkpt>
      <trkpt lat="41.9952820" lon="-7.2521420">
        <ele>748.8</ele>
        <time>2019-08-17T09:11:05Z</time>
      </trkpt>
      <trkpt lat="41.9952700" lon="-7.2521870">
        <ele>749.0</ele>
        <time>2019-08-17T09:11:06Z</time>
      </trkpt>
      <trkpt lat="41.9952590" lon="-7.2522330">
        <ele>749.1</ele>
        <time>2019-08-17T09:11:07Z</time>
      </trkpt>
      <trkpt lat="41.9952480" lon="-7.2522810">
        <ele>749.3</ele>
        <time>2019-08-17T09:11:08Z</time>
      </trkpt>
      <trkpt lat="41.9952370" lon="-7.2523310">
        <ele>749.5</ele>
        <time>2019-08-17T09:11:09Z</time>
      </trkpt>
      <trkpt lat="41.9952280" lon="-7.2523830">
        <ele>749.6</ele>
        <time>2019-08-17T09:11:10Z</time>
      </trkpt>
      <trkpt lat="41.9952200" lon="-7.2524370">
        <ele>749.8</ele>
        <time>2019-08-17T09:11:11Z</time>
      </trkpt>
      <trkpt lat="41.9952120" lon="-7.2524930">
        <ele>750.0</ele>
        <time>2019-08-17T09:11:12Z</time>
      </trkpt>
      <trkpt lat="41.9952060" lon="-7.2525500">
        <ele>750.1</ele>
        <time>2019-08-17T09:11:13Z</time>
      </trkpt>
      <trkpt lat="41.9952020" lon="-7.2526080">
        <ele>750.2</ele>
        <time>2019-08-17T09:11:14Z</time>
      </trkpt>
      <trkpt lat="41.9951980" lon="-7.2526940">
        <ele>750.3</ele>
        <time>2019-08-17T09:11:15Z</time>
      </trkpt>
      <trkpt lat="41.9951980" lon="-7.2527230">
        <ele>750.3</ele>
        <time>2019-08-17T09:11:16Z</time>
      </trkpt>
      <trkpt lat="41.9951980" lon="-7.2527810">
        <ele>750.3</ele>
        <time>2019-08-17T09:11:17Z</time>
      </trkpt>
      <trkpt lat="41.9952010" lon="-7.2528370">
        <ele>750.4</ele>
        <time>2019-08-17T09:11:18Z</time>
      </trkpt>
      <trkpt lat="41.9952050" lon="-7.2528920">
        <ele>750.4</ele>
        <time>2019-08-17T09:11:19Z</time>
      </trkpt>
      <trkpt lat="41.9952110" lon="-7.2529470">
        <ele>750.4</ele>
        <time>2019-08-17T09:11:20Z</time>
      </trkpt>
      <trkpt lat="41.9952180" lon="-7.2530010">
        <ele>750.4</ele>
        <time>2019-08-17T09:11:21Z</time>
      </trkpt>
      <trkpt lat="41.9952260" lon="-7.2530560">
        <ele>750.5</ele>
        <time>2019-08-17T09:11:22Z</time>
      </trkpt>
      <trkpt lat="41.9952350" lon="-7.2531110">
        <ele>750.5</ele>
        <time>2019-08-17T09:11:23Z</time>
      </trkpt>
      <trkpt lat="41.9952430" lon="-7.2531670">
        <ele>750.5</ele>
        <time>2019-08-17T09:11:24Z</time>
      </trkpt>
      <trkpt lat="41.9952510" lon="-7.2532240">
        <ele>750.5</ele>
        <time>2019-08-17T09:11:25Z</time>
      </trkpt>
      <trkpt lat="41.9952590" lon="-7.2532820">
        <ele>750.6</ele>
        <time>2019-08-17T09:11:26Z</time>
      </trkpt>
      <trkpt lat="41.9952670" lon="-7.2533410">
        <ele>750.7</ele>
        <time>2019-08-17T09:11:27Z</time>
      </trkpt>
      <trkpt lat="41.9952740" lon="-7.2534000">
        <ele>750.8</ele>
        <time>2019-08-17T09:11:28Z</time>
      </trkpt>
      <trkpt lat="41.9952810" lon="-7.2534600">
        <ele>750.9</ele>
        <time>2019-08-17T09:11:29Z</time>
      </trkpt>
      <trkpt lat="41.9952880" lon="-7.2535200">
        <ele>751.0</ele>
        <time>2019-08-17T09:11:30Z</time>
      </trkpt>
      <trkpt lat="41.9952940" lon="-7.2535800">
        <ele>751.1</ele>
        <time>2019-08-17T09:11:31Z</time>
      </trkpt>
      <trkpt lat="41.9953000" lon="-7.2536390">
        <ele>751.3</ele>
        <time>2019-08-17T09:11:32Z</time>
      </trkpt>
      <trkpt lat="41.9953040" lon="-7.2536990">
        <ele>751.4</ele>
        <time>2019-08-17T09:11:33Z</time>
      </trkpt>
      <trkpt lat="41.9953080" lon="-7.2537580">
        <ele>751.5</ele>
        <time>2019-08-17T09:11:34Z</time>
      </trkpt>
      <trkpt lat="41.9953120" lon="-7.2538570">
        <ele>751.7</ele>
        <time>2019-08-17T09:11:35Z</time>
      </trkpt>
      <trkpt lat="41.9953120" lon="-7.2538960">
        <ele>751.8</ele>
        <time>2019-08-17T09:11:36Z</time>
      </trkpt>
      <trkpt lat="41.9953130" lon="-7.2539360">
        <ele>751.9</ele>
        <time>2019-08-17T09:11:37Z</time>
      </trkpt>
      <trkpt lat="41.9953120" lon="-7.2539950">
        <ele>752.0</ele>
        <time>2019-08-17T09:11:38Z</time>
      </trkpt>
      <trkpt lat="41.9953090" lon="-7.2540540">
        <ele>752.2</ele>
        <time>2019-08-17T09:11:39Z</time>
      </trkpt>
      <trkpt lat="41.9952990" lon="-7.2541540">
        <ele>752.4</ele>
        <time>2019-08-17T09:11:40Z</time>
      </trkpt>
      <trkpt lat="41.9952930" lon="-7.2541930">
        <ele>752.5</ele>
        <time>2019-08-17T09:11:41Z</time>
      </trkpt>
      <trkpt lat="41.9952880" lon="-7.2542330">
        <ele>752.6</ele>
        <time>2019-08-17T09:11:42Z</time>
      </trkpt>
      <trkpt lat="41.9952780" lon="-7.2542920">
        <ele>752.8</ele>
        <time>2019-08-17T09:11:43Z</time>
      </trkpt>
      <trkpt lat="41.9952650" lon="-7.2543520">
        <ele>753.0</ele>
        <time>2019-08-17T09:11:44Z</time>
      </trkpt>
      <trkpt lat="41.9952500" lon="-7.2544120">
        <ele>753.2</ele>
        <time>2019-08-17T09:11:45Z</time>
      </trkpt>
      <trkpt lat="41.9952340" lon="-7.2544710">
        <ele>753.4</ele>
        <time>2019-08-17T09:11:46Z</time>
      </trkpt>
      <trkpt lat="41.9952150" lon="-7.2545300">
        <ele>753.6</ele>
        <time>2019-08-17T09:11:47Z</time>
      </trkpt>
      <trkpt lat="41.9951940" lon="-7.2545880">
        <ele>753.9</ele>
        <time>2019-08-17T09:11:48Z</time>
      </trkpt>
      <trkpt lat="41.9951720" lon="-7.2546440">
        <ele>754.1</ele>
        <time>2019-08-17T09:11:49Z</time>
      </trkpt>
      <trkpt lat="41.9951470" lon="-7.2546990">
        <ele>754.3</ele>
        <time>2019-08-17T09:11:50Z</time>
      </trkpt>
      <trkpt lat="41.9951210" lon="-7.2547520">
        <ele>754.5</ele>
        <time>2019-08-17T09:11:51Z</time>
      </trkpt>
      <trkpt lat="41.9950930" lon="-7.2548020">
        <ele>754.6</ele>
        <time>2019-08-17T09:11:52Z</time>
      </trkpt>
      <trkpt lat="41.9950640" lon="-7.2548510">
        <ele>754.7</ele>
        <time>2019-08-17T09:11:53Z</time>
      </trkpt>
      <trkpt lat="41.9950330" lon="-7.2548970">
        <ele>754.9</ele>
        <time>2019-08-17T09:11:54Z</time>
      </trkpt>
      <trkpt lat="41.9950020" lon="-7.2549430">
        <ele>755.0</ele>
        <time>2019-08-17T09:11:55Z</time>
      </trkpt>
      <trkpt lat="41.9949690" lon="-7.2549870">
        <ele>755.2</ele>
        <time>2019-08-17T09:11:56Z</time>
      </trkpt>
      <trkpt lat="41.9949360" lon="-7.2550310">
        <ele>755.4</ele>
        <time>2019-08-17T09:11:57Z</time>
      </trkpt>
      <trkpt lat="41.9949030" lon="-7.2550740">
        <ele>755.6</ele>
        <time>2019-08-17T09:11:58Z</time>
      </trkpt>
      <trkpt lat="41.9948700" lon="-7.2551180">
        <ele>755.8</ele>
        <time>2019-08-17T09:11:59Z</time>
      </trkpt>
      <trkpt lat="41.9948360" lon="-7.2551620">
        <ele>756.0</ele>
        <time>2019-08-17T09:12:00Z</time>
      </trkpt>
      <trkpt lat="41.9948030" lon="-7.2552060">
        <ele>756.1</ele>
        <time>2019-08-17T09:12:01Z</time>
      </trkpt>
      <trkpt lat="41.9947690" lon="-7.2552500">
        <ele>756.2</ele>
        <time>2019-08-17T09:12:02Z</time>
      </trkpt>
      <trkpt lat="41.9947350" lon="-7.2552940">
        <ele>756.3</ele>
        <time>2019-08-17T09:12:03Z</time>
      </trkpt>
      <trkpt lat="41.9947010" lon="-7.2553390">
        <ele>756.4</ele>
        <time>2019-08-17T09:12:04Z</time>
      </trkpt>
      <trkpt lat="41.9946670" lon="-7.2553830">
        <ele>756.5</ele>
        <time>2019-08-17T09:12:05Z</time>
      </trkpt>
      <trkpt lat="41.9946330" lon="-7.2554280">
        <ele>756.5</ele>
        <time>2019-08-17T09:12:06Z</time>
      </trkpt>
      <trkpt lat="41.9945980" lon="-7.2554730">
        <ele>756.6</ele>
        <time>2019-08-17T09:12:07Z</time>
      </trkpt>
      <trkpt lat="41.9945640" lon="-7.2555180">
        <ele>756.6</ele>
        <time>2019-08-17T09:12:08Z</time>
      </trkpt>
      <trkpt lat="41.9945300" lon="-7.2555640">
        <ele>756.6</ele>
        <time>2019-08-17T09:12:09Z</time>
      </trkpt>
      <trkpt lat="41.9944960" lon="-7.2556090">
        <ele>756.6</ele>
        <time>2019-08-17T09:12:10Z</time>
      </trkpt>
      <trkpt lat="41.9944620" lon="-7.2556550">
        <ele>756.6</ele>
        <time>2019-08-17T09:12:11Z</time>
      </trkpt>
      <trkpt lat="41.9944070" lon="-7.2557310">
        <ele>756.6</ele>
        <time>2019-08-17T09:12:12Z</time>
      </trkpt>
      <trkpt lat="41.9943840" lon="-7.2557620">
        <ele>756.6</ele>
        <time>2019-08-17T09:12:13Z</time>
      </trkpt>
      <trkpt lat="41.9943620" lon="-7.2557920">
        <ele>756.6</ele>
        <time>2019-08-17T09:12:14Z</time>
      </trkpt>
      <trkpt lat="41.9943270" lon="-7.2558380">
        <ele>756.6</ele>
        <time>2019-08-17T09:12:15Z</time>
      </trkpt>
      <trkpt lat="41.9942920" lon="-7.2558840">
        <ele>757.1</ele>
        <time>2019-08-17T09:12:16Z</time>
      </trkpt>
      <trkpt lat="41.9942320" lon="-7.2559690">
        <ele>757.9</ele>
        <time>2019-08-17T09:12:17Z</time>
      </trkpt>
      <trkpt lat="41.9942070" lon="-7.2560060">
        <ele>758.1</ele>
        <time>2019-08-17T09:12:18Z</time>
      </trkpt>
      <trkpt lat="41.9941830" lon="-7.2560420">
        <ele>758.3</ele>
        <time>2019-08-17T09:12:19Z</time>
      </trkpt>
      <trkpt lat="41.9941470" lon="-7.2561020">
        <ele>758.7</ele>
        <time>2019-08-17T09:12:20Z</time>
      </trkpt>
      <trkpt lat="41.9941130" lon="-7.2561640">
        <ele>759.0</ele>
        <time>2019-08-17T09:12:21Z</time>
      </trkpt>
      <trkpt lat="41.9940660" lon="-7.2562620">
        <ele>759.7</ele>
        <time>2019-08-17T09:12:22Z</time>
      </trkpt>
      <trkpt lat="41.9940510" lon="-7.2562950">
        <ele>760.0</ele>
        <time>2019-08-17T09:12:23Z</time>
      </trkpt>
      <trkpt lat="41.9940250" lon="-7.2563640">
        <ele>760.5</ele>
        <time>2019-08-17T09:12:24Z</time>
      </trkpt>
      <trkpt lat="41.9940030" lon="-7.2564330">
        <ele>760.9</ele>
        <time>2019-08-17T09:12:25Z</time>
      </trkpt>
      <trkpt lat="41.9939840" lon="-7.2565030">
        <ele>761.3</ele>
        <time>2019-08-17T09:12:26Z</time>
      </trkpt>
      <trkpt lat="41.9939700" lon="-7.2565740">
        <ele>761.7</ele>
        <time>2019-08-17T09:12:27Z</time>
      </trkpt>
      <trkpt lat="41.9939580" lon="-7.2566460">
        <ele>762.0</ele>
        <time>2019-08-17T09:12:28Z</time>
      </trkpt>
      <trkpt lat="41.9939490" lon="-7.2567170">
        <ele>762.3</ele>
        <time>2019-08-17T09:12:29Z</time>
      </trkpt>
      <trkpt lat="41.9939420" lon="-7.2567890">
        <ele>762.6</ele>
        <time>2019-08-17T09:12:30Z</time>
      </trkpt>
      <trkpt lat="41.9939380" lon="-7.2568600">
        <ele>762.9</ele>
        <time>2019-08-17T09:12:31Z</time>
      </trkpt>
      <trkpt lat="41.9939350" lon="-7.2569300">
        <ele>763.2</ele>
        <time>2019-08-17T09:12:32Z</time>
      </trkpt>
      <trkpt lat="41.9939330" lon="-7.2570010">
        <ele>763.4</ele>
        <time>2019-08-17T09:12:33Z</time>
      </trkpt>
      <trkpt lat="41.9939330" lon="-7.2570710">
        <ele>763.7</ele>
        <time>2019-08-17T09:12:34Z</time>
      </trkpt>
      <trkpt lat="41.9939340" lon="-7.2571400">
        <ele>763.9</ele>
        <time>2019-08-17T09:12:35Z</time>
      </trkpt>
      <trkpt lat="41.9939350" lon="-7.2572090">
        <ele>764.1</ele>
        <time>2019-08-17T09:12:36Z</time>
      </trkpt>
      <trkpt lat="41.9939370" lon="-7.2572780">
        <ele>764.3</ele>
        <time>2019-08-17T09:12:37Z</time>
      </trkpt>
      <trkpt lat="41.9939400" lon="-7.2573450">
        <ele>764.4</ele>
        <time>2019-08-17T09:12:38Z</time>
      </trkpt>
      <trkpt lat="41.9939420" lon="-7.2574130">
        <ele>764.6</ele>
        <time>2019-08-17T09:12:39Z</time>
      </trkpt>
      <trkpt lat="41.9939450" lon="-7.2574810">
        <ele>764.6</ele>
        <time>2019-08-17T09:12:40Z</time>
      </trkpt>
      <trkpt lat="41.9939470" lon="-7.2575480">
        <ele>764.7</ele>
        <time>2019-08-17T09:12:41Z</time>
      </trkpt>
      <trkpt lat="41.9939500" lon="-7.2576150">
        <ele>764.8</ele>
        <time>2019-08-17T09:12:42Z</time>
      </trkpt>
      <trkpt lat="41.9939510" lon="-7.2576820">
        <ele>764.8</ele>
        <time>2019-08-17T09:12:43Z</time>
      </trkpt>
      <trkpt lat="41.9939520" lon="-7.2577490">
        <ele>764.8</ele>
        <time>2019-08-17T09:12:44Z</time>
      </trkpt>
      <trkpt lat="41.9939530" lon="-7.2578170">
        <ele>764.9</ele>
        <time>2019-08-17T09:12:45Z</time>
      </trkpt>
      <trkpt lat="41.9939530" lon="-7.2578850">
        <ele>764.9</ele>
        <time>2019-08-17T09:12:46Z</time>
      </trkpt>
      <trkpt lat="41.9939520" lon="-7.2579540">
        <ele>765.0</ele>
        <time>2019-08-17T09:12:47Z</time>
      </trkpt>
      <trkpt lat="41.9939520" lon="-7.2580220">
        <ele>765.0</ele>
        <time>2019-08-17T09:12:48Z</time>
      </trkpt>
      <trkpt lat="41.9939510" lon="-7.2580910">
        <ele>765.1</ele>
        <time>2019-08-17T09:12:49Z</time>
      </trkpt>
      <trkpt lat="41.9939510" lon="-7.2581610">
        <ele>765.2</ele>
        <time>2019-08-17T09:12:50Z</time>
      </trkpt>
      <trkpt lat="41.9939510" lon="-7.2582780">
        <ele>765.3</ele>
        <time>2019-08-17T09:12:51Z</time>
      </trkpt>
      <trkpt lat="41.9939510" lon="-7.2583240">
        <ele>765.3</ele>
        <time>2019-08-17T09:12:52Z</time>
      </trkpt>
      <trkpt lat="41.9939520" lon="-7.2583710">
        <ele>765.4</ele>
        <time>2019-08-17T09:12:53Z</time>
      </trkpt>
      <trkpt lat="41.9939540" lon="-7.2584420">
        <ele>765.4</ele>
        <time>2019-08-17T09:12:54Z</time>
      </trkpt>
      <trkpt lat="41.9939570" lon="-7.2585130">
        <ele>765.5</ele>
        <time>2019-08-17T09:12:55Z</time>
      </trkpt>
      <trkpt lat="41.9939660" lon="-7.2586320">
        <ele>765.6</ele>
        <time>2019-08-17T09:12:56Z</time>
      </trkpt>
      <trkpt lat="41.9939700" lon="-7.2586800">
        <ele>765.6</ele>
        <time>2019-08-17T09:12:57Z</time>
      </trkpt>
      <trkpt lat="41.9939750" lon="-7.2587280">
        <ele>765.6</ele>
        <time>2019-08-17T09:12:58Z</time>
      </trkpt>
      <trkpt lat="41.9939840" lon="-7.2588000">
        <ele>765.7</ele>
        <time>2019-08-17T09:12:59Z</time>
      </trkpt>
      <trkpt lat="41.9939940" lon="-7.2588720">
        <ele>765.7</ele>
        <time>2019-08-17T09:13:00Z</time>
      </trkpt>
      <trkpt lat="41.9940060" lon="-7.2589450">
        <ele>765.8</ele>
        <time>2019-08-17T09:13:01Z</time>
      </trkpt>
      <trkpt lat="41.9940200" lon="-7.2590180">
        <ele>765.8</ele>
        <time>2019-08-17T09:13:02Z</time>
      </trkpt>
      <trkpt lat="41.9940350" lon="-7.2590920">
        <ele>765.8</ele>
        <time>2019-08-17T09:13:03Z</time>
      </trkpt>
      <trkpt lat="41.9940510" lon="-7.2591660">
        <ele>765.8</ele>
        <time>2019-08-17T09:13:04Z</time>
      </trkpt>
      <trkpt lat="41.9940690" lon="-7.2592400">
        <ele>765.8</ele>
        <time>2019-08-17T09:13:05Z</time>
      </trkpt>
      <trkpt lat="41.9940890" lon="-7.2593140">
        <ele>765.7</ele>
        <time>2019-08-17T09:13:06Z</time>
      </trkpt>
      <trkpt lat="41.9941090" lon="-7.2593890">
        <ele>765.6</ele>
        <time>2019-08-17T09:13:07Z</time>
      </trkpt>
      <trkpt lat="41.9941310" lon="-7.2594640">
        <ele>765.5</ele>
        <time>2019-08-17T09:13:08Z</time>
      </trkpt>
      <trkpt lat="41.9941540" lon="-7.2595390">
        <ele>765.4</ele>
        <time>2019-08-17T09:13:09Z</time>
      </trkpt>
      <trkpt lat="41.9941790" lon="-7.2596140">
        <ele>765.3</ele>
        <time>2019-08-17T09:13:10Z</time>
      </trkpt>
      <trkpt lat="41.9942050" lon="-7.2596900">
        <ele>765.3</ele>
        <time>2019-08-17T09:13:11Z</time>
      </trkpt>
      <trkpt lat="41.9942320" lon="-7.2597660">
        <ele>765.3</ele>
        <time>2019-08-17T09:13:12Z</time>
      </trkpt>
      <trkpt lat="41.9942600" lon="-7.2598420">
        <ele>765.3</ele>
        <time>2019-08-17T09:13:13Z</time>
      </trkpt>
      <trkpt lat="41.9942880" lon="-7.2599190">
        <ele>765.4</ele>
        <time>2019-08-17T09:13:14Z</time>
      </trkpt>
      <trkpt lat="41.9943180" lon="-7.2599960">
        <ele>765.5</ele>
        <time>2019-08-17T09:13:15Z</time>
      </trkpt>
      <trkpt lat="41.9943470" lon="-7.2600730">
        <ele>765.6</ele>
        <time>2019-08-17T09:13:16Z</time>
      </trkpt>
      <trkpt lat="41.9943760" lon="-7.2601500">
        <ele>765.7</ele>
        <time>2019-08-17T09:13:17Z</time>
      </trkpt>
      <trkpt lat="41.9944050" lon="-7.2602270">
        <ele>765.8</ele>
        <time>2019-08-17T09:13:18Z</time>
      </trkpt>
      <trkpt lat="41.9944330" lon="-7.2603040">
        <ele>765.8</ele>
        <time>2019-08-17T09:13:19Z</time>
      </trkpt>
      <trkpt lat="41.9944600" lon="-7.2603810">
        <ele>765.7</ele>
        <time>2019-08-17T09:13:20Z</time>
      </trkpt>
      <trkpt lat="41.9944860" lon="-7.2604590">
        <ele>765.7</ele>
        <time>2019-08-17T09:13:21Z</time>
      </trkpt>
      <trkpt lat="41.9945110" lon="-7.2605360">
        <ele>765.6</ele>
        <time>2019-08-17T09:13:22Z</time>
      </trkpt>
      <trkpt lat="41.9945340" lon="-7.2606130">
        <ele>765.6</ele>
        <time>2019-08-17T09:13:23Z</time>
      </trkpt>
      <trkpt lat="41.9945550" lon="-7.2606900">
        <ele>765.6</ele>
        <time>2019-08-17T09:13:24Z</time>
      </trkpt>
      <trkpt lat="41.9945740" lon="-7.2607670">
        <ele>765.7</ele>
        <time>2019-08-17T09:13:25Z</time>
      </trkpt>
      <trkpt lat="41.9945900" lon="-7.2608440">
        <ele>766.0</ele>
        <time>2019-08-17T09:13:26Z</time>
      </trkpt>
      <trkpt lat="41.9946050" lon="-7.2609190">
        <ele>766.3</ele>
        <time>2019-08-17T09:13:27Z</time>
      </trkpt>
      <trkpt lat="41.9946170" lon="-7.2609930">
        <ele>766.7</ele>
        <time>2019-08-17T09:13:28Z</time>
      </trkpt>
      <trkpt lat="41.9946270" lon="-7.2610660">
        <ele>767.1</ele>
        <time>2019-08-17T09:13:29Z</time>
      </trkpt>
      <trkpt lat="41.9946350" lon="-7.2611360">
        <ele>767.5</ele>
        <time>2019-08-17T09:13:30Z</time>
      </trkpt>
      <trkpt lat="41.9946410" lon="-7.2612040">
        <ele>767.9</ele>
        <time>2019-08-17T09:13:31Z</time>
      </trkpt>
      <trkpt lat="41.9946440" lon="-7.2612690">
        <ele>768.2</ele>
        <time>2019-08-17T09:13:32Z</time>
      </trkpt>
      <trkpt lat="41.9946460" lon="-7.2613310">
        <ele>768.4</ele>
        <time>2019-08-17T09:13:33Z</time>
      </trkpt>
      <trkpt lat="41.9946450" lon="-7.2613910">
        <ele>768.7</ele>
        <time>2019-08-17T09:13:34Z</time>
      </trkpt>
      <trkpt lat="41.9946420" lon="-7.2614490">
        <ele>768.9</ele>
        <time>2019-08-17T09:13:35Z</time>
      </trkpt>
      <trkpt lat="41.9946370" lon="-7.2615050">
        <ele>769.2</ele>
        <time>2019-08-17T09:13:36Z</time>
      </trkpt>
      <trkpt lat="41.9946300" lon="-7.2615590">
        <ele>769.4</ele>
        <time>2019-08-17T09:13:37Z</time>
      </trkpt>
      <trkpt lat="41.9946210" lon="-7.2616120">
        <ele>769.6</ele>
        <time>2019-08-17T09:13:38Z</time>
      </trkpt>
      <trkpt lat="41.9946090" lon="-7.2616640">
        <ele>769.8</ele>
        <time>2019-08-17T09:13:39Z</time>
      </trkpt>
      <trkpt lat="41.9945960" lon="-7.2617140">
        <ele>769.9</ele>
        <time>2019-08-17T09:13:40Z</time>
      </trkpt>
      <trkpt lat="41.9945800" lon="-7.2617640">
        <ele>770.2</ele>
        <time>2019-08-17T09:13:41Z</time>
      </trkpt>
      <trkpt lat="41.9945630" lon="-7.2618130">
        <ele>770.4</ele>
        <time>2019-08-17T09:13:42Z</time>
      </trkpt>
      <trkpt lat="41.9945450" lon="-7.2618610">
        <ele>770.6</ele>
        <time>2019-08-17T09:13:43Z</time>
      </trkpt>
      <trkpt lat="41.9945250" lon="-7.2619080">
        <ele>770.8</ele>
        <time>2019-08-17T09:13:44Z</time>
      </trkpt>
      <trkpt lat="41.9945040" lon="-7.2619540">
        <ele>771.1</ele>
        <time>2019-08-17T09:13:45Z</time>
      </trkpt>
      <trkpt lat="41.9944820" lon="-7.2619990">
        <ele>771.3</ele>
        <time>2019-08-17T09:13:46Z</time>
      </trkpt>
      <trkpt lat="41.9944590" lon="-7.2620430">
        <ele>771.5</ele>
        <time>2019-08-17T09:13:47Z</time>
      </trkpt>
      <trkpt lat="41.9944360" lon="-7.2620870">
        <ele>771.7</ele>
        <time>2019-08-17T09:13:48Z</time>
      </trkpt>
      <trkpt lat="41.9944110" lon="-7.2621300">
        <ele>772.0</ele>
        <time>2019-08-17T09:13:49Z</time>
      </trkpt>
      <trkpt lat="41.9943870" lon="-7.2621720">
        <ele>772.3</ele>
        <time>2019-08-17T09:13:50Z</time>
      </trkpt>
      <trkpt lat="41.9943620" lon="-7.2622130">
        <ele>772.6</ele>
        <time>2019-08-17T09:13:51Z</time>
      </trkpt>
      <trkpt lat="41.9943370" lon="-7.2622540">
        <ele>772.9</ele>
        <time>2019-08-17T09:13:52Z</time>
      </trkpt>
      <trkpt lat="41.9943120" lon="-7.2622940">
        <ele>773.1</ele>
        <time>2019-08-17T09:13:53Z</time>
      </trkpt>
      <trkpt lat="41.9942870" lon="-7.2623340">
        <ele>773.4</ele>
        <time>2019-08-17T09:13:54Z</time>
      </trkpt>
      <trkpt lat="41.9942620" lon="-7.2623730">
        <ele>773.6</ele>
        <time>2019-08-17T09:13:55Z</time>
      </trkpt>
      <trkpt lat="41.9942360" lon="-7.2624110">
        <ele>773.7</ele>
        <time>2019-08-17T09:13:56Z</time>
      </trkpt>
      <trkpt lat="41.9942110" lon="-7.2624500">
        <ele>773.9</ele>
        <time>2019-08-17T09:13:57Z</time>
      </trkpt>
      <trkpt lat="41.9941850" lon="-7.2624880">
        <ele>774.0</ele>
        <time>2019-08-17T09:13:58Z</time>
      </trkpt>
      <trkpt lat="41.9941590" lon="-7.2625260">
        <ele>774.1</ele>
        <time>2019-08-17T09:13:59Z</time>
      </trkpt>
      <trkpt lat="41.9941330" lon="-7.2625630">
        <ele>774.2</ele>
        <time>2019-08-17T09:14:00Z</time>
      </trkpt>
      <trkpt lat="41.9941070" lon="-7.2626010">
        <ele>774.3</ele>
        <time>2019-08-17T09:14:01Z</time>
      </trkpt>
      <trkpt lat="41.9940810" lon="-7.2626380">
        <ele>774.4</ele>
        <time>2019-08-17T09:14:02Z</time>
      </trkpt>
      <trkpt lat="41.9940540" lon="-7.2626750">
        <ele>774.5</ele>
        <time>2019-08-17T09:14:03Z</time>
      </trkpt>
      <trkpt lat="41.9940270" lon="-7.2627120">
        <ele>774.7</ele>
        <time>2019-08-17T09:14:04Z</time>
      </trkpt>
      <trkpt lat="41.9940000" lon="-7.2627500">
        <ele>774.8</ele>
        <time>2019-08-17T09:14:05Z</time>
      </trkpt>
      <trkpt lat="41.9939730" lon="-7.2627870">
        <ele>775.0</ele>
        <time>2019-08-17T09:14:06Z</time>
      </trkpt>
      <trkpt lat="41.9939460" lon="-7.2628250">
        <ele>775.2</ele>
        <time>2019-08-17T09:14:07Z</time>
      </trkpt>
      <trkpt lat="41.9939010" lon="-7.2628880">
        <ele>775.5</ele>
        <time>2019-08-17T09:14:08Z</time>
      </trkpt>
      <trkpt lat="41.9938830" lon="-7.2629140">
        <ele>775.6</ele>
        <time>2019-08-17T09:14:09Z</time>
      </trkpt>
      <trkpt lat="41.9938650" lon="-7.2629390">
        <ele>775.8</ele>
        <time>2019-08-17T09:14:10Z</time>
      </trkpt>
      <trkpt lat="41.9938380" lon="-7.2629780">
        <ele>776.0</ele>
        <time>2019-08-17T09:14:11Z</time>
      </trkpt>
      <trkpt lat="41.9938130" lon="-7.2630170">
        <ele>776.2</ele>
        <time>2019-08-17T09:14:12Z</time>
      </trkpt>
      <trkpt lat="41.9937710" lon="-7.2630840">
        <ele>776.6</ele>
        <time>2019-08-17T09:14:13Z</time>
      </trkpt>
      <trkpt lat="41.9937550" lon="-7.2631100">
        <ele>776.7</ele>
        <time>2019-08-17T09:14:14Z</time>
      </trkpt>
      <trkpt lat="41.9937390" lon="-7.2631370">
        <ele>776.8</ele>
        <time>2019-08-17T09:14:15Z</time>
      </trkpt>
      <trkpt lat="41.9937170" lon="-7.2631770">
        <ele>777.1</ele>
        <time>2019-08-17T09:14:16Z</time>
      </trkpt>
      <trkpt lat="41.9936960" lon="-7.2632190">
        <ele>777.3</ele>
        <time>2019-08-17T09:14:17Z</time>
      </trkpt>
      <trkpt lat="41.9936750" lon="-7.2632600">
        <ele>777.5</ele>
        <time>2019-08-17T09:14:18Z</time>
      </trkpt>
      <trkpt lat="41.9936570" lon="-7.2633030">
        <ele>777.8</ele>
        <time>2019-08-17T09:14:19Z</time>
      </trkpt>
      <trkpt lat="41.9936390" lon="-7.2633460">
        <ele>778.0</ele>
        <time>2019-08-17T09:14:20Z</time>
      </trkpt>
      <trkpt lat="41.9936230" lon="-7.2633890">
        <ele>778.2</ele>
        <time>2019-08-17T09:14:21Z</time>
      </trkpt>
      <trkpt lat="41.9936090" lon="-7.2634330">
        <ele>778.5</ele>
        <time>2019-08-17T09:14:22Z</time>
      </trkpt>
      <trkpt lat="41.9935950" lon="-7.2634760">
        <ele>778.7</ele>
        <time>2019-08-17T09:14:23Z</time>
      </trkpt>
      <trkpt lat="41.9935830" lon="-7.2635200">
        <ele>778.9</ele>
        <time>2019-08-17T09:14:24Z</time>
      </trkpt>
      <trkpt lat="41.9935710" lon="-7.2635650">
        <ele>779.2</ele>
        <time>2019-08-17T09:14:25Z</time>
      </trkpt>
      <trkpt lat="41.9935610" lon="-7.2636090">
        <ele>779.3</ele>
        <time>2019-08-17T09:14:26Z</time>
      </trkpt>
      <trkpt lat="41.9935520" lon="-7.2636530">
        <ele>779.5</ele>
        <time>2019-08-17T09:14:27Z</time>
      </trkpt>
      <trkpt lat="41.9935430" lon="-7.2636970">
        <ele>779.7</ele>
        <time>2019-08-17T09:14:28Z</time>
      </trkpt>
      <trkpt lat="41.9935360" lon="-7.2637410">
        <ele>779.9</ele>
        <time>2019-08-17T09:14:29Z</time>
      </trkpt>
      <trkpt lat="41.9935290" lon="-7.2637840">
        <ele>780.0</ele>
        <time>2019-08-17T09:14:30Z</time>
      </trkpt>
      <trkpt lat="41.9935240" lon="-7.2638270">
        <ele>780.2</ele>
        <time>2019-08-17T09:14:31Z</time>
      </trkpt>
      <trkpt lat="41.9935190" lon="-7.2638700">
        <ele>780.4</ele>
        <time>2019-08-17T09:14:32Z</time>
      </trkpt>
      <trkpt lat="41.9935140" lon="-7.2639120">
        <ele>780.6</ele>
        <time>2019-08-17T09:14:33Z</time>
      </trkpt>
      <trkpt lat="41.9935110" lon="-7.2639530">
        <ele>780.8</ele>
        <time>2019-08-17T09:14:34Z</time>
      </trkpt>
      <trkpt lat="41.9935080" lon="-7.2639940">
        <ele>780.9</ele>
        <time>2019-08-17T09:14:35Z</time>
      </trkpt>
      <trkpt lat="41.9935050" lon="-7.2640330">
        <ele>781.1</ele>
        <time>2019-08-17T09:14:36Z</time>
      </trkpt>
      <trkpt lat="41.9935020" lon="-7.2640720">
        <ele>781.6</ele>
        <time>2019-08-17T09:14:37Z</time>
      </trkpt>
      <trkpt lat="41.9935000" lon="-7.2641100">
        <ele>781.8</ele>
        <time>2019-08-17T09:14:38Z</time>
      </trkpt>
      <trkpt lat="41.9934980" lon="-7.2641470">
        <ele>782.0</ele>
        <time>2019-08-17T09:14:39Z</time>
      </trkpt>
      <trkpt lat="41.9934960" lon="-7.2641820">
        <ele>782.2</ele>
        <time>2019-08-17T09:14:40Z</time>
      </trkpt>
      <trkpt lat="41.9934930" lon="-7.2642170">
        <ele>782.4</ele>
        <time>2019-08-17T09:14:41Z</time>
      </trkpt>
      <trkpt lat="41.9934910" lon="-7.2642510">
        <ele>782.6</ele>
        <time>2019-08-17T09:14:42Z</time>
      </trkpt>
      <trkpt lat="41.9934890" lon="-7.2642850">
        <ele>782.8</ele>
        <time>2019-08-17T09:14:43Z</time>
      </trkpt>
      <trkpt lat="41.9934860" lon="-7.2643190">
        <ele>782.9</ele>
        <time>2019-08-17T09:14:44Z</time>
      </trkpt>
      <trkpt lat="41.9934830" lon="-7.2643530">
        <ele>783.1</ele>
        <time>2019-08-17T09:14:45Z</time>
      </trkpt>
      <trkpt lat="41.9934800" lon="-7.2643870">
        <ele>783.2</ele>
        <time>2019-08-17T09:14:46Z</time>
      </trkpt>
      <trkpt lat="41.9934760" lon="-7.2644230">
        <ele>783.3</ele>
        <time>2019-08-17T09:14:47Z</time>
      </trkpt>
      <trkpt lat="41.9934720" lon="-7.2644590">
        <ele>783.5</ele>
        <time>2019-08-17T09:14:48Z</time>
      </trkpt>
      <trkpt lat="41.9934680" lon="-7.2644950">
        <ele>783.7</ele>
        <time>2019-08-17T09:14:49Z</time>
      </trkpt>
      <trkpt lat="41.9934630" lon="-7.2645310">
        <ele>783.9</ele>
        <time>2019-08-17T09:14:50Z</time>
      </trkpt>
      <trkpt lat="41.9934580" lon="-7.2645680">
        <ele>784.1</ele>
        <time>2019-08-17T09:14:51Z</time>
      </trkpt>
      <trkpt lat="41.9934530" lon="-7.2646040">
        <ele>784.3</ele>
        <time>2019-08-17T09:14:52Z</time>
      </trkpt>
      <trkpt lat="41.9934470" lon="-7.2646410">
        <ele>784.5</ele>
        <time>2019-08-17T09:14:53Z</time>
      </trkpt>
      <trkpt lat="41.9934400" lon="-7.2646770">
        <ele>784.7</ele>
        <time>2019-08-17T09:14:54Z</time>
      </trkpt>
      <trkpt lat="41.9934330" lon="-7.2647140">
        <ele>784.8</ele>
        <time>2019-08-17T09:14:55Z</time>
      </trkpt>
      <trkpt lat="41.9934260" lon="-7.2647490">
        <ele>785.0</ele>
        <time>2019-08-17T09:14:56Z</time>
      </trkpt>
      <trkpt lat="41.9934180" lon="-7.2647850">
        <ele>785.2</ele>
        <time>2019-08-17T09:14:57Z</time>
      </trkpt>
      <trkpt lat="41.9934090" lon="-7.2648200">
        <ele>785.4</ele>
        <time>2019-08-17T09:14:58Z</time>
      </trkpt>
      <trkpt lat="41.9934000" lon="-7.2648540">
        <ele>785.5</ele>
        <time>2019-08-17T09:14:59Z</time>
      </trkpt>
      <trkpt lat="41.9933900" lon="-7.2648880">
        <ele>785.7</ele>
        <time>2019-08-17T09:15:00Z</time>
      </trkpt>
      <trkpt lat="41.9933800" lon="-7.2649210">
        <ele>785.9</ele>
        <time>2019-08-17T09:15:01Z</time>
      </trkpt>
      <trkpt lat="41.9933690" lon="-7.2649530">
        <ele>786.1</ele>
        <time>2019-08-17T09:15:02Z</time>
      </trkpt>
      <trkpt lat="41.9933570" lon="-7.2649850">
        <ele>786.3</ele>
        <time>2019-08-17T09:15:03Z</time>
      </trkpt>
      <trkpt lat="41.9933450" lon="-7.2650160">
        <ele>786.4</ele>
        <time>2019-08-17T09:15:04Z</time>
      </trkpt>
      <trkpt lat="41.9933320" lon="-7.2650460">
        <ele>786.6</ele>
        <time>2019-08-17T09:15:05Z</time>
      </trkpt>
      <trkpt lat="41.9933180" lon="-7.2650770">
        <ele>786.9</ele>
        <time>2019-08-17T09:15:06Z</time>
      </trkpt>
      <trkpt lat="41.9933040" lon="-7.2651070">
        <ele>787.0</ele>
        <time>2019-08-17T09:15:07Z</time>
      </trkpt>
      <trkpt lat="41.9932900" lon="-7.2651360">
        <ele>787.1</ele>
        <time>2019-08-17T09:15:08Z</time>
      </trkpt>
      <trkpt lat="41.9932740" lon="-7.2651650">
        <ele>787.2</ele>
        <time>2019-08-17T09:15:09Z</time>
      </trkpt>
      <trkpt lat="41.9932590" lon="-7.2651940">
        <ele>787.3</ele>
        <time>2019-08-17T09:15:10Z</time>
      </trkpt>
      <trkpt lat="41.9932420" lon="-7.2652230">
        <ele>787.4</ele>
        <time>2019-08-17T09:15:11Z</time>
      </trkpt>
      <trkpt lat="41.9932250" lon="-7.2652520">
        <ele>787.6</ele>
        <time>2019-08-17T09:15:12Z</time>
      </trkpt>
      <trkpt lat="41.9932080" lon="-7.2652800">
        <ele>787.7</ele>
        <time>2019-08-17T09:15:13Z</time>
      </trkpt>
      <trkpt lat="41.9931900" lon="-7.2653090">
        <ele>787.9</ele>
        <time>2019-08-17T09:15:14Z</time>
      </trkpt>
      <trkpt lat="41.9931710" lon="-7.2653360">
        <ele>788.0</ele>
        <time>2019-08-17T09:15:15Z</time>
      </trkpt>
      <trkpt lat="41.9931520" lon="-7.2653630">
        <ele>788.2</ele>
        <time>2019-08-17T09:15:16Z</time>
      </trkpt>
      <trkpt lat="41.9931330" lon="-7.2653900">
        <ele>788.4</ele>
        <time>2019-08-17T09:15:17Z</time>
      </trkpt>
      <trkpt lat="41.9931140" lon="-7.2654150">
        <ele>788.5</ele>
        <time>2019-08-17T09:15:18Z</time>
      </trkpt>
      <trkpt lat="41.9930940" lon="-7.2654380">
        <ele>788.7</ele>
        <time>2019-08-17T09:15:19Z</time>
      </trkpt>
      <trkpt lat="41.9930740" lon="-7.2654610">
        <ele>788.9</ele>
        <time>2019-08-17T09:15:20Z</time>
      </trkpt>
      <trkpt lat="41.9930540" lon="-7.2654820">
        <ele>789.1</ele>
        <time>2019-08-17T09:15:21Z</time>
      </trkpt>
      <trkpt lat="41.9930330" lon="-7.2655020">
        <ele>789.3</ele>
        <time>2019-08-17T09:15:22Z</time>
      </trkpt>
      <trkpt lat="41.9930120" lon="-7.2655220">
        <ele>789.4</ele>
        <time>2019-08-17T09:15:23Z</time>
      </trkpt>
      <trkpt lat="41.9929900" lon="-7.2655410">
        <ele>789.6</ele>
        <time>2019-08-17T09:15:24Z</time>
      </trkpt>
      <trkpt lat="41.9929680" lon="-7.2655600">
        <ele>789.8</ele>
        <time>2019-08-17T09:15:25Z</time>
      </trkpt>
      <trkpt lat="41.9929440" lon="-7.2655800">
        <ele>790.0</ele>
        <time>2019-08-17T09:15:26Z</time>
      </trkpt>
      <trkpt lat="41.9929200" lon="-7.2656000">
        <ele>790.3</ele>
        <time>2019-08-17T09:15:27Z</time>
      </trkpt>
      <trkpt lat="41.9928940" lon="-7.2656200">
        <ele>790.5</ele>
        <time>2019-08-17T09:15:28Z</time>
      </trkpt>
      <trkpt lat="41.9928680" lon="-7.2656410">
        <ele>790.8</ele>
        <time>2019-08-17T09:15:29Z</time>
      </trkpt>
      <trkpt lat="41.9928410" lon="-7.2656620">
        <ele>791.1</ele>
        <time>2019-08-17T09:15:30Z</time>
      </trkpt>
      <trkpt lat="41.9928140" lon="-7.2656840">
        <ele>791.5</ele>
        <time>2019-08-17T09:15:31Z</time>
      </trkpt>
      <trkpt lat="41.9927860" lon="-7.2657050">
        <ele>791.9</ele>
        <time>2019-08-17T09:15:32Z</time>
      </trkpt>
      <trkpt lat="41.9927380" lon="-7.2657430">
        <ele>792.5</ele>
        <time>2019-08-17T09:15:33Z</time>
      </trkpt>
      <trkpt lat="41.9927180" lon="-7.2657570">
        <ele>792.8</ele>
        <time>2019-08-17T09:15:34Z</time>
      </trkpt>
      <trkpt lat="41.9926990" lon="-7.2657720">
        <ele>793.0</ele>
        <time>2019-08-17T09:15:35Z</time>
      </trkpt>
      <trkpt lat="41.9926700" lon="-7.2657950">
        <ele>793.5</ele>
        <time>2019-08-17T09:15:36Z</time>
      </trkpt>
      <trkpt lat="41.9926410" lon="-7.2658180">
        <ele>793.8</ele>
        <time>2019-08-17T09:15:37Z</time>
      </trkpt>
      <trkpt lat="41.9926120" lon="-7.2658410">
        <ele>794.1</ele>
        <time>2019-08-17T09:15:38Z</time>
      </trkpt>
      <trkpt lat="41.9925820" lon="-7.2658640">
        <ele>794.5</ele>
        <time>2019-08-17T09:15:39Z</time>
      </trkpt>
      <trkpt lat="41.9925530" lon="-7.2658870">
        <ele>794.8</ele>
        <time>2019-08-17T09:15:40Z</time>
      </trkpt>
      <trkpt lat="41.9925250" lon="-7.2659100">
        <ele>795.0</ele>
        <time>2019-08-17T09:15:41Z</time>
      </trkpt>
      <trkpt lat="41.9924960" lon="-7.2659330">
        <ele>795.3</ele>
        <time>2019-08-17T09:15:42Z</time>
      </trkpt>
      <trkpt lat="41.9924680" lon="-7.2659560">
        <ele>795.5</ele>
        <time>2019-08-17T09:15:43Z</time>
      </trkpt>
      <trkpt lat="41.9924410" lon="-7.2659800">
        <ele>795.8</ele>
        <time>2019-08-17T09:15:44Z</time>
      </trkpt>
      <trkpt lat="41.9924140" lon="-7.2660040">
        <ele>796.0</ele>
        <time>2019-08-17T09:15:45Z</time>
      </trkpt>
      <trkpt lat="41.9923870" lon="-7.2660280">
        <ele>796.3</ele>
        <time>2019-08-17T09:15:46Z</time>
      </trkpt>
      <trkpt lat="41.9923610" lon="-7.2660530">
        <ele>796.5</ele>
        <time>2019-08-17T09:15:47Z</time>
      </trkpt>
      <trkpt lat="41.9923360" lon="-7.2660780">
        <ele>796.8</ele>
        <time>2019-08-17T09:15:48Z</time>
      </trkpt>
      <trkpt lat="41.9923110" lon="-7.2661040">
        <ele>797.1</ele>
        <time>2019-08-17T09:15:49Z</time>
      </trkpt>
      <trkpt lat="41.9922880" lon="-7.2661310">
        <ele>797.3</ele>
        <time>2019-08-17T09:15:50Z</time>
      </trkpt>
      <trkpt lat="41.9922650" lon="-7.2661580">
        <ele>797.6</ele>
        <time>2019-08-17T09:15:51Z</time>
      </trkpt>
      <trkpt lat="41.9922430" lon="-7.2661860">
        <ele>797.9</ele>
        <time>2019-08-17T09:15:52Z</time>
      </trkpt>
      <trkpt lat="41.9922210" lon="-7.2662160">
        <ele>798.4</ele>
        <time>2019-08-17T09:15:53Z</time>
      </trkpt>
      <trkpt lat="41.9922010" lon="-7.2662450">
        <ele>798.8</ele>
        <time>2019-08-17T09:15:54Z</time>
      </trkpt>
      <trkpt lat="41.9921810" lon="-7.2662760">
        <ele>799.2</ele>
        <time>2019-08-17T09:15:55Z</time>
      </trkpt>
      <trkpt lat="41.9921630" lon="-7.2663070">
        <ele>799.6</ele>
        <time>2019-08-17T09:15:56Z</time>
      </trkpt>
      <trkpt lat="41.9921440" lon="-7.2663390">
        <ele>799.9</ele>
        <time>2019-08-17T09:15:57Z</time>
      </trkpt>
      <trkpt lat="41.9921260" lon="-7.2663720">
        <ele>800.3</ele>
        <time>2019-08-17T09:15:58Z</time>
      </trkpt>
      <trkpt lat="41.9921090" lon="-7.2664050">
        <ele>800.6</ele>
        <time>2019-08-17T09:15:59Z</time>
      </trkpt>
      <trkpt lat="41.9920920" lon="-7.2664380">
        <ele>801.2</ele>
        <time>2019-08-17T09:16:00Z</time>
      </trkpt>
      <trkpt lat="41.9920750" lon="-7.2664720">
        <ele>801.4</ele>
        <time>2019-08-17T09:16:01Z</time>
      </trkpt>
      <trkpt lat="41.9920590" lon="-7.2665060">
        <ele>801.6</ele>
        <time>2019-08-17T09:16:02Z</time>
      </trkpt>
      <trkpt lat="41.9920420" lon="-7.2665400">
        <ele>801.9</ele>
        <time>2019-08-17T09:16:03Z</time>
      </trkpt>
      <trkpt lat="41.9920260" lon="-7.2665750">
        <ele>802.1</ele>
        <time>2019-08-17T09:16:04Z</time>
      </trkpt>
      <trkpt lat="41.9920090" lon="-7.2666090">
        <ele>802.4</ele>
        <time>2019-08-17T09:16:05Z</time>
      </trkpt>
      <trkpt lat="41.9919930" lon="-7.2666440">
        <ele>802.6</ele>
        <time>2019-08-17T09:16:06Z</time>
      </trkpt>
      <trkpt lat="41.9919760" lon="-7.2666780">
        <ele>802.8</ele>
        <time>2019-08-17T09:16:07Z</time>
      </trkpt>
      <trkpt lat="41.9919590" lon="-7.2667130">
        <ele>803.0</ele>
        <time>2019-08-17T09:16:08Z</time>
      </trkpt>
      <trkpt lat="41.9919420" lon="-7.2667470">
        <ele>803.2</ele>
        <time>2019-08-17T09:16:09Z</time>
      </trkpt>
      <trkpt lat="41.9919250" lon="-7.2667820">
        <ele>803.4</ele>
        <time>2019-08-17T09:16:10Z</time>
      </trkpt>
      <trkpt lat="41.9919080" lon="-7.2668160">
        <ele>803.6</ele>
        <time>2019-08-17T09:16:11Z</time>
      </trkpt>
      <trkpt lat="41.9918900" lon="-7.2668510">
        <ele>803.7</ele>
        <time>2019-08-17T09:16:12Z</time>
      </trkpt>
      <trkpt lat="41.9918730" lon="-7.2668860">
        <ele>803.9</ele>
        <time>2019-08-17T09:16:13Z</time>
      </trkpt>
      <trkpt lat="41.9918560" lon="-7.2669210">
        <ele>804.1</ele>
        <time>2019-08-17T09:16:14Z</time>
      </trkpt>
      <trkpt lat="41.9918390" lon="-7.2669560">
        <ele>804.3</ele>
        <time>2019-08-17T09:16:15Z</time>
      </trkpt>
      <trkpt lat="41.9918220" lon="-7.2669910">
        <ele>804.4</ele>
        <time>2019-08-17T09:16:16Z</time>
      </trkpt>
      <trkpt lat="41.9918050" lon="-7.2670260">
        <ele>804.6</ele>
        <time>2019-08-17T09:16:17Z</time>
      </trkpt>
      <trkpt lat="41.9917880" lon="-7.2670620">
        <ele>804.8</ele>
        <time>2019-08-17T09:16:18Z</time>
      </trkpt>
      <trkpt lat="41.9917710" lon="-7.2670970">
        <ele>805.0</ele>
        <time>2019-08-17T09:16:19Z</time>
      </trkpt>
      <trkpt lat="41.9917550" lon="-7.2671330">
        <ele>805.2</ele>
        <time>2019-08-17T09:16:20Z</time>
      </trkpt>
      <trkpt lat="41.9917380" lon="-7.2671690">
        <ele>805.5</ele>
        <time>2019-08-17T09:16:21Z</time>
      </trkpt>
      <trkpt lat="41.9917220" lon="-7.2672050">
        <ele>805.7</ele>
        <time>2019-08-17T09:16:22Z</time>
      </trkpt>
      <trkpt lat="41.9917050" lon="-7.2672410">
        <ele>805.8</ele>
        <time>2019-08-17T09:16:23Z</time>
      </trkpt>
      <trkpt lat="41.9916880" lon="-7.2672780">
        <ele>806.0</ele>
        <time>2019-08-17T09:16:24Z</time>
      </trkpt>
      <trkpt lat="41.9916710" lon="-7.2673140">
        <ele>806.1</ele>
        <time>2019-08-17T09:16:25Z</time>
      </trkpt>
      <trkpt lat="41.9916540" lon="-7.2673510">
        <ele>806.2</ele>
        <time>2019-08-17T09:16:26Z</time>
      </trkpt>
      <trkpt lat="41.9916370" lon="-7.2673890">
        <ele>806.4</ele>
        <time>2019-08-17T09:16:27Z</time>
      </trkpt>
      <trkpt lat="41.9916190" lon="-7.2674260">
        <ele>806.5</ele>
        <time>2019-08-17T09:16:28Z</time>
      </trkpt>
      <trkpt lat="41.9916010" lon="-7.2674640">
        <ele>806.6</ele>
        <time>2019-08-17T09:16:29Z</time>
      </trkpt>
      <trkpt lat="41.9915820" lon="-7.2675030">
        <ele>806.7</ele>
        <time>2019-08-17T09:16:30Z</time>
      </trkpt>
      <trkpt lat="41.9915630" lon="-7.2675420">
        <ele>806.8</ele>
        <time>2019-08-17T09:16:31Z</time>
      </trkpt>
      <trkpt lat="41.9915430" lon="-7.2675810">
        <ele>806.9</ele>
        <time>2019-08-17T09:16:32Z</time>
      </trkpt>
      <trkpt lat="41.9915230" lon="-7.2676200">
        <ele>807.0</ele>
        <time>2019-08-17T09:16:33Z</time>
      </trkpt>
      <trkpt lat="41.9915020" lon="-7.2676600">
        <ele>807.0</ele>
        <time>2019-08-17T09:16:34Z</time>
      </trkpt>
      <trkpt lat="41.9914800" lon="-7.2677010">
        <ele>807.0</ele>
        <time>2019-08-17T09:16:35Z</time>
      </trkpt>
      <trkpt lat="41.9914590" lon="-7.2677410">
        <ele>806.9</ele>
        <time>2019-08-17T09:16:36Z</time>
      </trkpt>
      <trkpt lat="41.9914370" lon="-7.2677820">
        <ele>806.9</ele>
        <time>2019-08-17T09:16:37Z</time>
      </trkpt>
      <trkpt lat="41.9914160" lon="-7.2678230">
        <ele>806.8</ele>
        <time>2019-08-17T09:16:38Z</time>
      </trkpt>
      <trkpt lat="41.9913950" lon="-7.2678640">
        <ele>806.7</ele>
        <time>2019-08-17T09:16:39Z</time>
      </trkpt>
      <trkpt lat="41.9913750" lon="-7.2679040">
        <ele>806.7</ele>
        <time>2019-08-17T09:16:40Z</time>
      </trkpt>
      <trkpt lat="41.9913550" lon="-7.2679450">
        <ele>806.6</ele>
        <time>2019-08-17T09:16:41Z</time>
      </trkpt>
      <trkpt lat="41.9913360" lon="-7.2679860">
        <ele>806.5</ele>
        <time>2019-08-17T09:16:42Z</time>
      </trkpt>
      <trkpt lat="41.9913160" lon="-7.2680270">
        <ele>806.5</ele>
        <time>2019-08-17T09:16:43Z</time>
      </trkpt>
      <trkpt lat="41.9912840" lon="-7.2680950">
        <ele>806.5</ele>
        <time>2019-08-17T09:16:44Z</time>
      </trkpt>
      <trkpt lat="41.9912710" lon="-7.2681220">
        <ele>806.5</ele>
        <time>2019-08-17T09:16:45Z</time>
      </trkpt>
      <trkpt lat="41.9912580" lon="-7.2681490">
        <ele>806.5</ele>
        <time>2019-08-17T09:16:46Z</time>
      </trkpt>
      <trkpt lat="41.9912390" lon="-7.2681900">
        <ele>806.6</ele>
        <time>2019-08-17T09:16:47Z</time>
      </trkpt>
      <trkpt lat="41.9912190" lon="-7.2682310">
        <ele>806.6</ele>
        <time>2019-08-17T09:16:48Z</time>
      </trkpt>
      <trkpt lat="41.9911990" lon="-7.2682710">
        <ele>806.7</ele>
        <time>2019-08-17T09:16:49Z</time>
      </trkpt>
      <trkpt lat="41.9911790" lon="-7.2683110">
        <ele>806.8</ele>
        <time>2019-08-17T09:16:50Z</time>
      </trkpt>
      <trkpt lat="41.9911600" lon="-7.2683510">
        <ele>806.8</ele>
        <time>2019-08-17T09:16:51Z</time>
      </trkpt>
      <trkpt lat="41.9911400" lon="-7.2683910">
        <ele>806.9</ele>
        <time>2019-08-17T09:16:52Z</time>
      </trkpt>
      <trkpt lat="41.9911220" lon="-7.2684300">
        <ele>807.0</ele>
        <time>2019-08-17T09:16:53Z</time>
      </trkpt>
      <trkpt lat="41.9911040" lon="-7.2684680">
        <ele>807.0</ele>
        <time>2019-08-17T09:16:54Z</time>
      </trkpt>
      <trkpt lat="41.9910860" lon="-7.2685060">
        <ele>807.1</ele>
        <time>2019-08-17T09:16:55Z</time>
      </trkpt>
      <trkpt lat="41.9910690" lon="-7.2685430">
        <ele>807.1</ele>
        <time>2019-08-17T09:16:56Z</time>
      </trkpt>
      <trkpt lat="41.9910520" lon="-7.2685790">
        <ele>807.2</ele>
        <time>2019-08-17T09:16:57Z</time>
      </trkpt>
      <trkpt lat="41.9910350" lon="-7.2686150">
        <ele>807.2</ele>
        <time>2019-08-17T09:16:58Z</time>
      </trkpt>
      <trkpt lat="41.9910180" lon="-7.2686500">
        <ele>807.2</ele>
        <time>2019-08-17T09:16:59Z</time>
      </trkpt>
      <trkpt lat="41.9910000" lon="-7.2686840">
        <ele>807.2</ele>
        <time>2019-08-17T09:17:00Z</time>
      </trkpt>
      <trkpt lat="41.9909820" lon="-7.2687180">
        <ele>807.2</ele>
        <time>2019-08-17T09:17:01Z</time>
      </trkpt>
      <trkpt lat="41.9909640" lon="-7.2687520">
        <ele>807.2</ele>
        <time>2019-08-17T09:17:02Z</time>
      </trkpt>
      <trkpt lat="41.9909460" lon="-7.2687850">
        <ele>807.2</ele>
        <time>2019-08-17T09:17:03Z</time>
      </trkpt>
      <trkpt lat="41.9909290" lon="-7.2688190">
        <ele>807.5</ele>
        <time>2019-08-17T09:17:04Z</time>
      </trkpt>
      <trkpt lat="41.9909110" lon="-7.2688520">
        <ele>807.8</ele>
        <time>2019-08-17T09:17:05Z</time>
      </trkpt>
      <trkpt lat="41.9908930" lon="-7.2688860">
        <ele>808.1</ele>
        <time>2019-08-17T09:17:06Z</time>
      </trkpt>
      <trkpt lat="41.9908760" lon="-7.2689210">
        <ele>808.4</ele>
        <time>2019-08-17T09:17:07Z</time>
      </trkpt>
      <trkpt lat="41.9908590" lon="-7.2689560">
        <ele>808.7</ele>
        <time>2019-08-17T09:17:08Z</time>
      </trkpt>
      <trkpt lat="41.9908420" lon="-7.2689910">
        <ele>809.0</ele>
        <time>2019-08-17T09:17:09Z</time>
      </trkpt>
      <trkpt lat="41.9908260" lon="-7.2690270">
        <ele>809.2</ele>
        <time>2019-08-17T09:17:10Z</time>
      </trkpt>
      <trkpt lat="41.9908090" lon="-7.2690630">
        <ele>809.5</ele>
        <time>2019-08-17T09:17:11Z</time>
      </trkpt>
      <trkpt lat="41.9907920" lon="-7.2690990">
        <ele>809.7</ele>
        <time>2019-08-17T09:17:12Z</time>
      </trkpt>
      <trkpt lat="41.9907750" lon="-7.2691350">
        <ele>809.9</ele>
        <time>2019-08-17T09:17:13Z</time>
      </trkpt>
      <trkpt lat="41.9907580" lon="-7.2691720">
        <ele>810.1</ele>
        <time>2019-08-17T09:17:14Z</time>
      </trkpt>
      <trkpt lat="41.9907410" lon="-7.2692080">
        <ele>810.3</ele>
        <time>2019-08-17T09:17:15Z</time>
      </trkpt>
      <trkpt lat="41.9907230" lon="-7.2692450">
        <ele>810.5</ele>
        <time>2019-08-17T09:17:16Z</time>
      </trkpt>
      <trkpt lat="41.9907060" lon="-7.2692810">
        <ele>810.6</ele>
        <time>2019-08-17T09:17:17Z</time>
      </trkpt>
      <trkpt lat="41.9906880" lon="-7.2693170">
        <ele>810.8</ele>
        <time>2019-08-17T09:17:18Z</time>
      </trkpt>
      <trkpt lat="41.9906710" lon="-7.2693530">
        <ele>810.9</ele>
        <time>2019-08-17T09:17:19Z</time>
      </trkpt>
      <trkpt lat="41.9906530" lon="-7.2693890">
        <ele>811.1</ele>
        <time>2019-08-17T09:17:20Z</time>
      </trkpt>
      <trkpt lat="41.9906360" lon="-7.2694250">
        <ele>811.2</ele>
        <time>2019-08-17T09:17:21Z</time>
      </trkpt>
      <trkpt lat="41.9906190" lon="-7.2694600">
        <ele>811.4</ele>
        <time>2019-08-17T09:17:22Z</time>
      </trkpt>
      <trkpt lat="41.9906010" lon="-7.2694960">
        <ele>811.6</ele>
        <time>2019-08-17T09:17:23Z</time>
      </trkpt>
      <trkpt lat="41.9905850" lon="-7.2695310">
        <ele>811.7</ele>
        <time>2019-08-17T09:17:24Z</time>
      </trkpt>
      <trkpt lat="41.9905680" lon="-7.2695660">
        <ele>811.9</ele>
        <time>2019-08-17T09:17:25Z</time>
      </trkpt>
      <trkpt lat="41.9905510" lon="-7.2696000">
        <ele>812.1</ele>
        <time>2019-08-17T09:17:26Z</time>
      </trkpt>
      <trkpt lat="41.9905350" lon="-7.2696340">
        <ele>812.3</ele>
        <time>2019-08-17T09:17:27Z</time>
      </trkpt>
      <trkpt lat="41.9905200" lon="-7.2696680">
        <ele>812.5</ele>
        <time>2019-08-17T09:17:28Z</time>
      </trkpt>
      <trkpt lat="41.9905040" lon="-7.2697020">
        <ele>812.7</ele>
        <time>2019-08-17T09:17:29Z</time>
      </trkpt>
      <trkpt lat="41.9904880" lon="-7.2697370">
        <ele>812.9</ele>
        <time>2019-08-17T09:17:30Z</time>
      </trkpt>
      <trkpt lat="41.9904730" lon="-7.2697720">
        <ele>813.1</ele>
        <time>2019-08-17T09:17:31Z</time>
      </trkpt>
      <trkpt lat="41.9904570" lon="-7.2698080">
        <ele>813.3</ele>
        <time>2019-08-17T09:17:32Z</time>
      </trkpt>
      <trkpt lat="41.9904400" lon="-7.2698450">
        <ele>813.5</ele>
        <time>2019-08-17T09:17:33Z</time>
      </trkpt>
      <trkpt lat="41.9904230" lon="-7.2698830">
        <ele>813.7</ele>
        <time>2019-08-17T09:17:34Z</time>
      </trkpt>
      <trkpt lat="41.9904060" lon="-7.2699220">
        <ele>813.8</ele>
        <time>2019-08-17T09:17:35Z</time>
      </trkpt>
      <trkpt lat="41.9903890" lon="-7.2699630">
        <ele>814.0</ele>
        <time>2019-08-17T09:17:36Z</time>
      </trkpt>
      <trkpt lat="41.9903720" lon="-7.2700050">
        <ele>814.1</ele>
        <time>2019-08-17T09:17:37Z</time>
      </trkpt>
      <trkpt lat="41.9903560" lon="-7.2700480">
        <ele>814.3</ele>
        <time>2019-08-17T09:17:38Z</time>
      </trkpt>
      <trkpt lat="41.9903390" lon="-7.2700910">
        <ele>814.4</ele>
        <time>2019-08-17T09:17:39Z</time>
      </trkpt>
      <trkpt lat="41.9903240" lon="-7.2701360">
        <ele>814.5</ele>
        <time>2019-08-17T09:17:40Z</time>
      </trkpt>
      <trkpt lat="41.9903090" lon="-7.2701810">
        <ele>814.6</ele>
        <time>2019-08-17T09:17:41Z</time>
      </trkpt>
      <trkpt lat="41.9902950" lon="-7.2702260">
        <ele>814.8</ele>
        <time>2019-08-17T09:17:42Z</time>
      </trkpt>
      <trkpt lat="41.9902830" lon="-7.2702720">
        <ele>814.9</ele>
        <time>2019-08-17T09:17:43Z</time>
      </trkpt>
      <trkpt lat="41.9902710" lon="-7.2703190">
        <ele>815.0</ele>
        <time>2019-08-17T09:17:44Z</time>
      </trkpt>
      <trkpt lat="41.9902600" lon="-7.2703650">
        <ele>815.1</ele>
        <time>2019-08-17T09:17:45Z</time>
      </trkpt>
      <trkpt lat="41.9902510" lon="-7.2704110">
        <ele>815.2</ele>
        <time>2019-08-17T09:17:46Z</time>
      </trkpt>
      <trkpt lat="41.9902430" lon="-7.2704560">
        <ele>815.4</ele>
        <time>2019-08-17T09:17:47Z</time>
      </trkpt>
      <trkpt lat="41.9902360" lon="-7.2705010">
        <ele>815.5</ele>
        <time>2019-08-17T09:17:48Z</time>
      </trkpt>
      <trkpt lat="41.9902300" lon="-7.2705460">
        <ele>815.7</ele>
        <time>2019-08-17T09:17:49Z</time>
      </trkpt>
      <trkpt lat="41.9902260" lon="-7.2705900">
        <ele>815.9</ele>
        <time>2019-08-17T09:17:50Z</time>
      </trkpt>
      <trkpt lat="41.9902220" lon="-7.2706340">
        <ele>816.1</ele>
        <time>2019-08-17T09:17:51Z</time>
      </trkpt>
      <trkpt lat="41.9902200" lon="-7.2706790">
        <ele>816.3</ele>
        <time>2019-08-17T09:17:52Z</time>
      </trkpt>
      <trkpt lat="41.9902180" lon="-7.2707230">
        <ele>816.5</ele>
        <time>2019-08-17T09:17:53Z</time>
      </trkpt>
      <trkpt lat="41.9902160" lon="-7.2707670">
        <ele>816.7</ele>
        <time>2019-08-17T09:17:54Z</time>
      </trkpt>
      <trkpt lat="41.9902160" lon="-7.2708110">
        <ele>816.9</ele>
        <time>2019-08-17T09:17:55Z</time>
      </trkpt>
      <trkpt lat="41.9902160" lon="-7.2708560">
        <ele>817.1</ele>
        <time>2019-08-17T09:17:56Z</time>
      </trkpt>
      <trkpt lat="41.9902160" lon="-7.2709000">
        <ele>817.4</ele>
        <time>2019-08-17T09:17:57Z</time>
      </trkpt>
      <trkpt lat="41.9902170" lon="-7.2709450">
        <ele>817.6</ele>
        <time>2019-08-17T09:17:58Z</time>
      </trkpt>
      <trkpt lat="41.9902190" lon="-7.2709890">
        <ele>817.8</ele>
        <time>2019-08-17T09:17:59Z</time>
      </trkpt>
      <trkpt lat="41.9902210" lon="-7.2710330">
        <ele>818.0</ele>
        <time>2019-08-17T09:18:00Z</time>
      </trkpt>
      <trkpt lat="41.9902230" lon="-7.2710760">
        <ele>818.3</ele>
        <time>2019-08-17T09:18:01Z</time>
      </trkpt>
      <trkpt lat="41.9902260" lon="-7.2711200">
        <ele>818.5</ele>
        <time>2019-08-17T09:18:02Z</time>
      </trkpt>
      <trkpt lat="41.9902290" lon="-7.2711630">
        <ele>818.7</ele>
        <time>2019-08-17T09:18:03Z</time>
      </trkpt>
      <trkpt lat="41.9902330" lon="-7.2712060">
        <ele>818.9</ele>
        <time>2019-08-17T09:18:04Z</time>
      </trkpt>
      <trkpt lat="41.9902360" lon="-7.2712490">
        <ele>819.0</ele>
        <time>2019-08-17T09:18:05Z</time>
      </trkpt>
      <trkpt lat="41.9902390" lon="-7.2712920">
        <ele>819.2</ele>
        <time>2019-08-17T09:18:06Z</time>
      </trkpt>
      <trkpt lat="41.9902420" lon="-7.2713350">
        <ele>819.4</ele>
        <time>2019-08-17T09:18:07Z</time>
      </trkpt>
      <trkpt lat="41.9902440" lon="-7.2713780">
        <ele>819.5</ele>
        <time>2019-08-17T09:18:08Z</time>
      </trkpt>
      <trkpt lat="41.9902460" lon="-7.2714220">
        <ele>819.6</ele>
        <time>2019-08-17T09:18:09Z</time>
      </trkpt>
      <trkpt lat="41.9902470" lon="-7.2714650">
        <ele>819.7</ele>
        <time>2019-08-17T09:18:10Z</time>
      </trkpt>
      <trkpt lat="41.9902480" lon="-7.2715080">
        <ele>819.8</ele>
        <time>2019-08-17T09:18:11Z</time>
      </trkpt>
      <trkpt lat="41.9902480" lon="-7.2715520">
        <ele>819.9</ele>
        <time>2019-08-17T09:18:12Z</time>
      </trkpt>
      <trkpt lat="41.9902470" lon="-7.2715950">
        <ele>820.1</ele>
        <time>2019-08-17T09:18:13Z</time>
      </trkpt>
      <trkpt lat="41.9902450" lon="-7.2716380">
        <ele>820.2</ele>
        <time>2019-08-17T09:18:14Z</time>
      </trkpt>
      <trkpt lat="41.9902430" lon="-7.2716810">
        <ele>820.3</ele>
        <time>2019-08-17T09:18:15Z</time>
      </trkpt>
      <trkpt lat="41.9902390" lon="-7.2717240">
        <ele>820.4</ele>
        <time>2019-08-17T09:18:16Z</time>
      </trkpt>
      <trkpt lat="41.9902340" lon="-7.2717660">
        <ele>820.6</ele>
        <time>2019-08-17T09:18:17Z</time>
      </trkpt>
      <trkpt lat="41.9902290" lon="-7.2718090">
        <ele>820.7</ele>
        <time>2019-08-17T09:18:18Z</time>
      </trkpt>
      <trkpt lat="41.9902220" lon="-7.2718510">
        <ele>820.9</ele>
        <time>2019-08-17T09:18:19Z</time>
      </trkpt>
      <trkpt lat="41.9902140" lon="-7.2718920">
        <ele>821.1</ele>
        <time>2019-08-17T09:18:20Z</time>
      </trkpt>
      <trkpt lat="41.9902040" lon="-7.2719340">
        <ele>821.3</ele>
        <time>2019-08-17T09:18:21Z</time>
      </trkpt>
      <trkpt lat="41.9901930" lon="-7.2719750">
        <ele>821.5</ele>
        <time>2019-08-17T09:18:22Z</time>
      </trkpt>
      <trkpt lat="41.9901810" lon="-7.2720170">
        <ele>821.7</ele>
        <time>2019-08-17T09:18:23Z</time>
      </trkpt>
      <trkpt lat="41.9901670" lon="-7.2720590">
        <ele>822.0</ele>
        <time>2019-08-17T09:18:24Z</time>
      </trkpt>
      <trkpt lat="41.9901520" lon="-7.2721020">
        <ele>822.2</ele>
        <time>2019-08-17T09:18:25Z</time>
      </trkpt>
      <trkpt lat="41.9901360" lon="-7.2721450">
        <ele>822.4</ele>
        <time>2019-08-17T09:18:26Z</time>
      </trkpt>
      <trkpt lat="41.9901210" lon="-7.2721880">
        <ele>822.6</ele>
        <time>2019-08-17T09:18:27Z</time>
      </trkpt>
      <trkpt lat="41.9901070" lon="-7.2722300">
        <ele>822.8</ele>
        <time>2019-08-17T09:18:28Z</time>
      </trkpt>
      <trkpt lat="41.9900940" lon="-7.2722700">
        <ele>823.0</ele>
        <time>2019-08-17T09:18:29Z</time>
      </trkpt>
      <trkpt lat="41.9900820" lon="-7.2723100">
        <ele>823.1</ele>
        <time>2019-08-17T09:18:30Z</time>
      </trkpt>
      <trkpt lat="41.9900700" lon="-7.2723490">
        <ele>823.3</ele>
        <time>2019-08-17T09:18:31Z</time>
      </trkpt>
      <trkpt lat="41.9900560" lon="-7.2723890">
        <ele>823.4</ele>
        <time>2019-08-17T09:18:32Z</time>
      </trkpt>
      <trkpt lat="41.9900420" lon="-7.2724300">
        <ele>823.6</ele>
        <time>2019-08-17T09:18:33Z</time>
      </trkpt>
      <trkpt lat="41.9900280" lon="-7.2724700">
        <ele>823.7</ele>
        <time>2019-08-17T09:18:34Z</time>
      </trkpt>
      <trkpt lat="41.9900120" lon="-7.2725090">
        <ele>823.8</ele>
        <time>2019-08-17T09:18:35Z</time>
      </trkpt>
      <trkpt lat="41.9899960" lon="-7.2725490">
        <ele>824.0</ele>
        <time>2019-08-17T09:18:36Z</time>
      </trkpt>
      <trkpt lat="41.9899790" lon="-7.2725880">
        <ele>824.1</ele>
        <time>2019-08-17T09:18:37Z</time>
      </trkpt>
      <trkpt lat="41.9899620" lon="-7.2726270">
        <ele>824.2</ele>
        <time>2019-08-17T09:18:38Z</time>
      </trkpt>
      <trkpt lat="41.9899440" lon="-7.2726660">
        <ele>824.4</ele>
        <time>2019-08-17T09:18:39Z</time>
      </trkpt>
      <trkpt lat="41.9899270" lon="-7.2727060">
        <ele>824.5</ele>
        <time>2019-08-17T09:18:40Z</time>
      </trkpt>
      <trkpt lat="41.9899090" lon="-7.2727450">
        <ele>824.7</ele>
        <time>2019-08-17T09:18:41Z</time>
      </trkpt>
      <trkpt lat="41.9898930" lon="-7.2727840">
        <ele>824.8</ele>
        <time>2019-08-17T09:18:42Z</time>
      </trkpt>
      <trkpt lat="41.9898760" lon="-7.2728230">
        <ele>825.0</ele>
        <time>2019-08-17T09:18:43Z</time>
      </trkpt>
      <trkpt lat="41.9898590" lon="-7.2728630">
        <ele>825.2</ele>
        <time>2019-08-17T09:18:44Z</time>
      </trkpt>
      <trkpt lat="41.9898430" lon="-7.2729020">
        <ele>825.4</ele>
        <time>2019-08-17T09:18:45Z</time>
      </trkpt>
      <trkpt lat="41.9898270" lon="-7.2729410">
        <ele>825.5</ele>
        <time>2019-08-17T09:18:46Z</time>
      </trkpt>
      <trkpt lat="41.9898100" lon="-7.2729800">
        <ele>825.7</ele>
        <time>2019-08-17T09:18:47Z</time>
      </trkpt>
      <trkpt lat="41.9897940" lon="-7.2730190">
        <ele>825.9</ele>
        <time>2019-08-17T09:18:48Z</time>
      </trkpt>
      <trkpt lat="41.9897770" lon="-7.2730580">
        <ele>826.1</ele>
        <time>2019-08-17T09:18:49Z</time>
      </trkpt>
      <trkpt lat="41.9897600" lon="-7.2730960">
        <ele>826.3</ele>
        <time>2019-08-17T09:18:50Z</time>
      </trkpt>
      <trkpt lat="41.9897430" lon="-7.2731340">
        <ele>826.4</ele>
        <time>2019-08-17T09:18:51Z</time>
      </trkpt>
      <trkpt lat="41.9897260" lon="-7.2731720">
        <ele>826.6</ele>
        <time>2019-08-17T09:18:52Z</time>
      </trkpt>
      <trkpt lat="41.9897090" lon="-7.2732100">
        <ele>826.7</ele>
        <time>2019-08-17T09:18:53Z</time>
      </trkpt>
      <trkpt lat="41.9896920" lon="-7.2732480">
        <ele>826.9</ele>
        <time>2019-08-17T09:18:54Z</time>
      </trkpt>
      <trkpt lat="41.9896750" lon="-7.2732850">
        <ele>827.0</ele>
        <time>2019-08-17T09:18:55Z</time>
      </trkpt>
      <trkpt lat="41.9896570" lon="-7.2733230">
        <ele>827.1</ele>
        <time>2019-08-17T09:18:56Z</time>
      </trkpt>
      <trkpt lat="41.9896400" lon="-7.2733600">
        <ele>827.3</ele>
        <time>2019-08-17T09:18:57Z</time>
      </trkpt>
      <trkpt lat="41.9896220" lon="-7.2733970">
        <ele>827.4</ele>
        <time>2019-08-17T09:18:58Z</time>
      </trkpt>
      <trkpt lat="41.9896050" lon="-7.2734340">
        <ele>827.5</ele>
        <time>2019-08-17T09:18:59Z</time>
      </trkpt>
      <trkpt lat="41.9895870" lon="-7.2734710">
        <ele>827.7</ele>
        <time>2019-08-17T09:19:00Z</time>
      </trkpt>
      <trkpt lat="41.9895700" lon="-7.2735080">
        <ele>827.8</ele>
        <time>2019-08-17T09:19:01Z</time>
      </trkpt>
      <trkpt lat="41.9895520" lon="-7.2735450">
        <ele>827.9</ele>
        <time>2019-08-17T09:19:02Z</time>
      </trkpt>
      <trkpt lat="41.9895340" lon="-7.2735810">
        <ele>828.1</ele>
        <time>2019-08-17T09:19:03Z</time>
      </trkpt>
      <trkpt lat="41.9895160" lon="-7.2736180">
        <ele>828.2</ele>
        <time>2019-08-17T09:19:04Z</time>
      </trkpt>
      <trkpt lat="41.9894970" lon="-7.2736540">
        <ele>828.4</ele>
        <time>2019-08-17T09:19:05Z</time>
      </trkpt>
      <trkpt lat="41.9894780" lon="-7.2736890">
        <ele>828.6</ele>
        <time>2019-08-17T09:19:06Z</time>
      </trkpt>
      <trkpt lat="41.9894580" lon="-7.2737240">
        <ele>828.7</ele>
        <time>2019-08-17T09:19:07Z</time>
      </trkpt>
      <trkpt lat="41.9894370" lon="-7.2737580">
        <ele>828.9</ele>
        <time>2019-08-17T09:19:08Z</time>
      </trkpt>
      <trkpt lat="41.9894160" lon="-7.2737920">
        <ele>829.1</ele>
        <time>2019-08-17T09:19:09Z</time>
      </trkpt>
      <trkpt lat="41.9893930" lon="-7.2738250">
        <ele>829.3</ele>
        <time>2019-08-17T09:19:10Z</time>
      </trkpt>
      <trkpt lat="41.9893690" lon="-7.2738570">
        <ele>829.4</ele>
        <time>2019-08-17T09:19:11Z</time>
      </trkpt>
      <trkpt lat="41.9893440" lon="-7.2738880">
        <ele>829.6</ele>
        <time>2019-08-17T09:19:12Z</time>
      </trkpt>
      <trkpt lat="41.9893180" lon="-7.2739180">
        <ele>829.8</ele>
        <time>2019-08-17T09:19:13Z</time>
      </trkpt>
      <trkpt lat="41.9892920" lon="-7.2739470">
        <ele>830.0</ele>
        <time>2019-08-17T09:19:14Z</time>
      </trkpt>
      <trkpt lat="41.9892640" lon="-7.2739750">
        <ele>830.1</ele>
        <time>2019-08-17T09:19:15Z</time>
      </trkpt>
      <trkpt lat="41.9892360" lon="-7.2740020">
        <ele>830.2</ele>
        <time>2019-08-17T09:19:16Z</time>
      </trkpt>
      <trkpt lat="41.9892060" lon="-7.2740280">
        <ele>830.3</ele>
        <time>2019-08-17T09:19:17Z</time>
      </trkpt>
      <trkpt lat="41.9891760" lon="-7.2740520">
        <ele>830.5</ele>
        <time>2019-08-17T09:19:18Z</time>
      </trkpt>
      <trkpt lat="41.9891460" lon="-7.2740750">
        <ele>830.6</ele>
        <time>2019-08-17T09:19:19Z</time>
      </trkpt>
      <trkpt lat="41.9891150" lon="-7.2740970">
        <ele>830.7</ele>
        <time>2019-08-17T09:19:20Z</time>
      </trkpt>
      <trkpt lat="41.9890830" lon="-7.2741180">
        <ele>830.8</ele>
        <time>2019-08-17T09:19:21Z</time>
      </trkpt>
      <trkpt lat="41.9890510" lon="-7.2741380">
        <ele>830.9</ele>
        <time>2019-08-17T09:19:22Z</time>
      </trkpt>
      <trkpt lat="41.9890180" lon="-7.2741560">
        <ele>831.0</ele>
        <time>2019-08-17T09:19:23Z</time>
      </trkpt>
      <trkpt lat="41.9889850" lon="-7.2741720">
        <ele>831.1</ele>
        <time>2019-08-17T09:19:24Z</time>
      </trkpt>
      <trkpt lat="41.9889510" lon="-7.2741880">
        <ele>831.2</ele>
        <time>2019-08-17T09:19:25Z</time>
      </trkpt>
      <trkpt lat="41.9889170" lon="-7.2742010">
        <ele>831.3</ele>
        <time>2019-08-17T09:19:26Z</time>
      </trkpt>
      <trkpt lat="41.9888830" lon="-7.2742140">
        <ele>831.4</ele>
        <time>2019-08-17T09:19:27Z</time>
      </trkpt>
      <trkpt lat="41.9888490" lon="-7.2742240">
        <ele>831.6</ele>
        <time>2019-08-17T09:19:28Z</time>
      </trkpt>
      <trkpt lat="41.9888140" lon="-7.2742330">
        <ele>831.7</ele>
        <time>2019-08-17T09:19:29Z</time>
      </trkpt>
      <trkpt lat="41.9887800" lon="-7.2742410">
        <ele>831.9</ele>
        <time>2019-08-17T09:19:30Z</time>
      </trkpt>
      <trkpt lat="41.9887450" lon="-7.2742470">
        <ele>832.1</ele>
        <time>2019-08-17T09:19:31Z</time>
      </trkpt>
      <trkpt lat="41.9887100" lon="-7.2742510">
        <ele>832.2</ele>
        <time>2019-08-17T09:19:32Z</time>
      </trkpt>
      <trkpt lat="41.9886750" lon="-7.2742530">
        <ele>832.4</ele>
        <time>2019-08-17T09:19:33Z</time>
      </trkpt>
      <trkpt lat="41.9886390" lon="-7.2742540">
        <ele>832.6</ele>
        <time>2019-08-17T09:19:34Z</time>
      </trkpt>
      <trkpt lat="41.9886040" lon="-7.2742520">
        <ele>832.9</ele>
        <time>2019-08-17T09:19:35Z</time>
      </trkpt>
      <trkpt lat="41.9885680" lon="-7.2742490">
        <ele>833.1</ele>
        <time>2019-08-17T09:19:36Z</time>
      </trkpt>
      <trkpt lat="41.9885320" lon="-7.2742440">
        <ele>833.3</ele>
        <time>2019-08-17T09:19:37Z</time>
      </trkpt>
      <trkpt lat="41.9884960" lon="-7.2742370">
        <ele>833.5</ele>
        <time>2019-08-17T09:19:38Z</time>
      </trkpt>
      <trkpt lat="41.9884600" lon="-7.2742280">
        <ele>833.8</ele>
        <time>2019-08-17T09:19:39Z</time>
      </trkpt>
      <trkpt lat="41.9884230" lon="-7.2742170">
        <ele>834.1</ele>
        <time>2019-08-17T09:19:40Z</time>
      </trkpt>
      <trkpt lat="41.9883870" lon="-7.2742040">
        <ele>834.3</ele>
        <time>2019-08-17T09:19:41Z</time>
      </trkpt>
      <trkpt lat="41.9883500" lon="-7.2741900">
        <ele>834.5</ele>
        <time>2019-08-17T09:19:42Z</time>
      </trkpt>
      <trkpt lat="41.9883130" lon="-7.2741740">
        <ele>834.8</ele>
        <time>2019-08-17T09:19:43Z</time>
      </trkpt>
      <trkpt lat="41.9882760" lon="-7.2741570">
        <ele>835.0</ele>
        <time>2019-08-17T09:19:44Z</time>
      </trkpt>
      <trkpt lat="41.9882380" lon="-7.2741400">
        <ele>835.3</ele>
        <time>2019-08-17T09:19:45Z</time>
      </trkpt>
      <trkpt lat="41.9881990" lon="-7.2741230">
        <ele>835.5</ele>
        <time>2019-08-17T09:19:46Z</time>
      </trkpt>
      <trkpt lat="41.9881600" lon="-7.2741070">
        <ele>835.8</ele>
        <time>2019-08-17T09:19:47Z</time>
      </trkpt>
      <trkpt lat="41.9881190" lon="-7.2740910">
        <ele>836.0</ele>
        <time>2019-08-17T09:19:48Z</time>
      </trkpt>
      <trkpt lat="41.9880790" lon="-7.2740750">
        <ele>836.3</ele>
        <time>2019-08-17T09:19:49Z</time>
      </trkpt>
      <trkpt lat="41.9880370" lon="-7.2740590">
        <ele>836.6</ele>
        <time>2019-08-17T09:19:50Z</time>
      </trkpt>
      <trkpt lat="41.9879960" lon="-7.2740430">
        <ele>836.8</ele>
        <time>2019-08-17T09:19:51Z</time>
      </trkpt>
      <trkpt lat="41.9879540" lon="-7.2740250">
        <ele>837.1</ele>
        <time>2019-08-17T09:19:52Z</time>
      </trkpt>
      <trkpt lat="41.9879130" lon="-7.2740080">
        <ele>837.3</ele>
        <time>2019-08-17T09:19:53Z</time>
      </trkpt>
      <trkpt lat="41.9878720" lon="-7.2739900">
        <ele>837.5</ele>
        <time>2019-08-17T09:19:54Z</time>
      </trkpt>
      <trkpt lat="41.9878320" lon="-7.2739750">
        <ele>837.6</ele>
        <time>2019-08-17T09:19:55Z</time>
      </trkpt>
      <trkpt lat="41.9877660" lon="-7.2739530">
        <ele>837.9</ele>
        <time>2019-08-17T09:19:56Z</time>
      </trkpt>
      <trkpt lat="41.9877400" lon="-7.2739450">
        <ele>837.9</ele>
        <time>2019-08-17T09:19:57Z</time>
      </trkpt>
      <trkpt lat="41.9877140" lon="-7.2739380">
        <ele>838.0</ele>
        <time>2019-08-17T09:19:58Z</time>
      </trkpt>
      <trkpt lat="41.9876760" lon="-7.2739300">
        <ele>838.1</ele>
        <time>2019-08-17T09:19:59Z</time>
      </trkpt>
      <trkpt lat="41.9876370" lon="-7.2739240">
        <ele>838.2</ele>
        <time>2019-08-17T09:20:00Z</time>
      </trkpt>
      <trkpt lat="41.9875730" lon="-7.2739220">
        <ele>838.4</ele>
        <time>2019-08-17T09:20:01Z</time>
      </trkpt>
      <trkpt lat="41.9875470" lon="-7.2739220">
        <ele>838.6</ele>
        <time>2019-08-17T09:20:02Z</time>
      </trkpt>
      <trkpt lat="41.9875210" lon="-7.2739230">
        <ele>838.9</ele>
        <time>2019-08-17T09:20:03Z</time>
      </trkpt>
      <trkpt lat="41.9874820" lon="-7.2739270">
        <ele>839.3</ele>
        <time>2019-08-17T09:20:04Z</time>
      </trkpt>
      <trkpt lat="41.9874430" lon="-7.2739340">
        <ele>839.7</ele>
        <time>2019-08-17T09:20:05Z</time>
      </trkpt>
      <trkpt lat="41.9874030" lon="-7.2739430">
        <ele>840.3</ele>
        <time>2019-08-17T09:20:06Z</time>
      </trkpt>
      <trkpt lat="41.9873630" lon="-7.2739550">
        <ele>840.8</ele>
        <time>2019-08-17T09:20:07Z</time>
      </trkpt>
      <trkpt lat="41.9873220" lon="-7.2739680">
        <ele>841.3</ele>
        <time>2019-08-17T09:20:08Z</time>
      </trkpt>
      <trkpt lat="41.9872810" lon="-7.2739840">
        <ele>841.9</ele>
        <time>2019-08-17T09:20:09Z</time>
      </trkpt>
      <trkpt lat="41.9872400" lon="-7.2740010">
        <ele>842.4</ele>
        <time>2019-08-17T09:20:10Z</time>
      </trkpt>
      <trkpt lat="41.9871990" lon="-7.2740210">
        <ele>842.8</ele>
        <time>2019-08-17T09:20:11Z</time>
      </trkpt>
      <trkpt lat="41.9871580" lon="-7.2740430">
        <ele>843.2</ele>
        <time>2019-08-17T09:20:12Z</time>
      </trkpt>
      <trkpt lat="41.9871170" lon="-7.2740660">
        <ele>843.6</ele>
        <time>2019-08-17T09:20:13Z</time>
      </trkpt>
      <trkpt lat="41.9870760" lon="-7.2740920">
        <ele>844.0</ele>
        <time>2019-08-17T09:20:14Z</time>
      </trkpt>
      <trkpt lat="41.9870360" lon="-7.2741200">
        <ele>844.5</ele>
        <time>2019-08-17T09:20:15Z</time>
      </trkpt>
      <trkpt lat="41.9869970" lon="-7.2741500">
        <ele>845.0</ele>
        <time>2019-08-17T09:20:16Z</time>
      </trkpt>
      <trkpt lat="41.9869590" lon="-7.2741820">
        <ele>845.4</ele>
        <time>2019-08-17T09:20:17Z</time>
      </trkpt>
      <trkpt lat="41.9869210" lon="-7.2742160">
        <ele>845.8</ele>
        <time>2019-08-17T09:20:18Z</time>
      </trkpt>
      <trkpt lat="41.9868850" lon="-7.2742520">
        <ele>846.1</ele>
        <time>2019-08-17T09:20:19Z</time>
      </trkpt>
      <trkpt lat="41.9868500" lon="-7.2742900">
        <ele>846.5</ele>
        <time>2019-08-17T09:20:20Z</time>
      </trkpt>
      <trkpt lat="41.9868170" lon="-7.2743300">
        <ele>846.9</ele>
        <time>2019-08-17T09:20:21Z</time>
      </trkpt>
      <trkpt lat="41.9867840" lon="-7.2743730">
        <ele>847.3</ele>
        <time>2019-08-17T09:20:22Z</time>
      </trkpt>
      <trkpt lat="41.9867540" lon="-7.2744180">
        <ele>847.7</ele>
        <time>2019-08-17T09:20:23Z</time>
      </trkpt>
      <trkpt lat="41.9867250" lon="-7.2744650">
        <ele>848.2</ele>
        <time>2019-08-17T09:20:24Z</time>
      </trkpt>
      <trkpt lat="41.9866970" lon="-7.2745150">
        <ele>848.1</ele>
        <time>2019-08-17T09:20:25Z</time>
      </trkpt>
      <trkpt lat="41.9866710" lon="-7.2745680">
        <ele>847.6</ele>
        <time>2019-08-17T09:20:26Z</time>
      </trkpt>
      <trkpt lat="41.9866460" lon="-7.2746230">
        <ele>847.1</ele>
        <time>2019-08-17T09:20:27Z</time>
      </trkpt>
      <trkpt lat="41.9866230" lon="-7.2746820">
        <ele>846.6</ele>
        <time>2019-08-17T09:20:28Z</time>
      </trkpt>
      <trkpt lat="41.9866020" lon="-7.2747440">
        <ele>846.1</ele>
        <time>2019-08-17T09:20:29Z</time>
      </trkpt>
      <trkpt lat="41.9865820" lon="-7.2748090">
        <ele>845.6</ele>
        <time>2019-08-17T09:20:30Z</time>
      </trkpt>
      <trkpt lat="41.9865640" lon="-7.2748760">
        <ele>845.1</ele>
        <time>2019-08-17T09:20:31Z</time>
      </trkpt>
      <trkpt lat="41.9865480" lon="-7.2749440">
        <ele>844.6</ele>
        <time>2019-08-17T09:20:32Z</time>
      </trkpt>
      <trkpt lat="41.9865350" lon="-7.2750120">
        <ele>844.0</ele>
        <time>2019-08-17T09:20:33Z</time>
      </trkpt>
      <trkpt lat="41.9865250" lon="-7.2750810">
        <ele>843.4</ele>
        <time>2019-08-17T09:20:34Z</time>
      </trkpt>
      <trkpt lat="41.9865180" lon="-7.2751500">
        <ele>842.8</ele>
        <time>2019-08-17T09:20:35Z</time>
      </trkpt>
      <trkpt lat="41.9865130" lon="-7.2752170">
        <ele>842.3</ele>
        <time>2019-08-17T09:20:36Z</time>
      </trkpt>
      <trkpt lat="41.9865110" lon="-7.2752840">
        <ele>841.8</ele>
        <time>2019-08-17T09:20:37Z</time>
      </trkpt>
      <trkpt lat="41.9865100" lon="-7.2753510">
        <ele>841.2</ele>
        <time>2019-08-17T09:20:38Z</time>
      </trkpt>
      <trkpt lat="41.9865110" lon="-7.2754170">
        <ele>840.7</ele>
        <time>2019-08-17T09:20:39Z</time>
      </trkpt>
      <trkpt lat="41.9865130" lon="-7.2754820">
        <ele>840.2</ele>
        <time>2019-08-17T09:20:40Z</time>
      </trkpt>
      <trkpt lat="41.9865160" lon="-7.2755460">
        <ele>839.7</ele>
        <time>2019-08-17T09:20:41Z</time>
      </trkpt>
      <trkpt lat="41.9865180" lon="-7.2756100">
        <ele>839.2</ele>
        <time>2019-08-17T09:20:42Z</time>
      </trkpt>
      <trkpt lat="41.9865210" lon="-7.2756730">
        <ele>838.9</ele>
        <time>2019-08-17T09:20:43Z</time>
      </trkpt>
      <trkpt lat="41.9865220" lon="-7.2757350">
        <ele>838.8</ele>
        <time>2019-08-17T09:20:44Z</time>
      </trkpt>
      <trkpt lat="41.9865220" lon="-7.2757960">
        <ele>838.6</ele>
        <time>2019-08-17T09:20:45Z</time>
      </trkpt>
      <trkpt lat="41.9865210" lon="-7.2758570">
        <ele>838.5</ele>
        <time>2019-08-17T09:20:46Z</time>
      </trkpt>
      <trkpt lat="41.9865170" lon="-7.2759160">
        <ele>838.5</ele>
        <time>2019-08-17T09:20:47Z</time>
      </trkpt>
      <trkpt lat="41.9865110" lon="-7.2759750">
        <ele>838.4</ele>
        <time>2019-08-17T09:20:48Z</time>
      </trkpt>
      <trkpt lat="41.9865020" lon="-7.2760330">
        <ele>838.4</ele>
        <time>2019-08-17T09:20:49Z</time>
      </trkpt>
      <trkpt lat="41.9864900" lon="-7.2760900">
        <ele>838.3</ele>
        <time>2019-08-17T09:20:50Z</time>
      </trkpt>
      <trkpt lat="41.9864750" lon="-7.2761460">
        <ele>838.3</ele>
        <time>2019-08-17T09:20:51Z</time>
      </trkpt>
      <trkpt lat="41.9864570" lon="-7.2762000">
        <ele>838.3</ele>
        <time>2019-08-17T09:20:52Z</time>
      </trkpt>
      <trkpt lat="41.9864380" lon="-7.2762520">
        <ele>838.3</ele>
        <time>2019-08-17T09:20:53Z</time>
      </trkpt>
      <trkpt lat="41.9864150" lon="-7.2763010">
        <ele>838.7</ele>
        <time>2019-08-17T09:20:54Z</time>
      </trkpt>
      <trkpt lat="41.9863730" lon="-7.2763770">
        <ele>839.2</ele>
        <time>2019-08-17T09:20:55Z</time>
      </trkpt>
      <trkpt lat="41.9863540" lon="-7.2764060">
        <ele>839.4</ele>
        <time>2019-08-17T09:20:56Z</time>
      </trkpt>
      <trkpt lat="41.9863360" lon="-7.2764350">
        <ele>839.6</ele>
        <time>2019-08-17T09:20:57Z</time>
      </trkpt>
      <trkpt lat="41.9863060" lon="-7.2764760">
        <ele>839.9</ele>
        <time>2019-08-17T09:20:58Z</time>
      </trkpt>
      <trkpt lat="41.9862750" lon="-7.2765170">
        <ele>840.2</ele>
        <time>2019-08-17T09:20:59Z</time>
      </trkpt>
      <trkpt lat="41.9862210" lon="-7.2765870">
        <ele>840.7</ele>
        <time>2019-08-17T09:21:00Z</time>
      </trkpt>
      <trkpt lat="41.9861990" lon="-7.2766150">
        <ele>840.9</ele>
        <time>2019-08-17T09:21:01Z</time>
      </trkpt>
      <trkpt lat="41.9861770" lon="-7.2766440">
        <ele>841.0</ele>
        <time>2019-08-17T09:21:02Z</time>
      </trkpt>
      <trkpt lat="41.9861440" lon="-7.2766900">
        <ele>841.3</ele>
        <time>2019-08-17T09:21:03Z</time>
      </trkpt>
      <trkpt lat="41.9861120" lon="-7.2767390">
        <ele>841.5</ele>
        <time>2019-08-17T09:21:04Z</time>
      </trkpt>
      <trkpt lat="41.9860610" lon="-7.2768260">
        <ele>841.9</ele>
        <time>2019-08-17T09:21:05Z</time>
      </trkpt>
      <trkpt lat="41.9860430" lon="-7.2768630">
        <ele>842.0</ele>
        <time>2019-08-17T09:21:06Z</time>
      </trkpt>
      <trkpt lat="41.9860240" lon="-7.2769000">
        <ele>842.1</ele>
        <time>2019-08-17T09:21:07Z</time>
      </trkpt>
      <trkpt lat="41.9859990" lon="-7.2769590">
        <ele>842.4</ele>
        <time>2019-08-17T09:21:08Z</time>
      </trkpt>
      <trkpt lat="41.9859770" lon="-7.2770220">
        <ele>842.6</ele>
        <time>2019-08-17T09:21:09Z</time>
      </trkpt>
      <trkpt lat="41.9859590" lon="-7.2770880">
        <ele>842.8</ele>
        <time>2019-08-17T09:21:10Z</time>
      </trkpt>
      <trkpt lat="41.9859450" lon="-7.2771550">
        <ele>843.0</ele>
        <time>2019-08-17T09:21:11Z</time>
      </trkpt>
      <trkpt lat="41.9859330" lon="-7.2772240">
        <ele>843.2</ele>
        <time>2019-08-17T09:21:12Z</time>
      </trkpt>
      <trkpt lat="41.9859250" lon="-7.2772930">
        <ele>843.3</ele>
        <time>2019-08-17T09:21:13Z</time>
      </trkpt>
      <trkpt lat="41.9859200" lon="-7.2773610">
        <ele>843.3</ele>
        <time>2019-08-17T09:21:14Z</time>
      </trkpt>
      <trkpt lat="41.9859190" lon="-7.2774280">
        <ele>843.3</ele>
        <time>2019-08-17T09:21:15Z</time>
      </trkpt>
      <trkpt lat="41.9859210" lon="-7.2774940">
        <ele>843.2</ele>
        <time>2019-08-17T09:21:16Z</time>
      </trkpt>
      <trkpt lat="41.9859270" lon="-7.2775580">
        <ele>843.2</ele>
        <time>2019-08-17T09:21:17Z</time>
      </trkpt>
      <trkpt lat="41.9859350" lon="-7.2776210">
        <ele>843.2</ele>
        <time>2019-08-17T09:21:18Z</time>
      </trkpt>
      <trkpt lat="41.9859450" lon="-7.2776840">
        <ele>843.2</ele>
        <time>2019-08-17T09:21:19Z</time>
      </trkpt>
      <trkpt lat="41.9859570" lon="-7.2777470">
        <ele>843.2</ele>
        <time>2019-08-17T09:21:20Z</time>
      </trkpt>
      <trkpt lat="41.9859700" lon="-7.2778110">
        <ele>843.2</ele>
        <time>2019-08-17T09:21:21Z</time>
      </trkpt>
      <trkpt lat="41.9859840" lon="-7.2778760">
        <ele>843.2</ele>
        <time>2019-08-17T09:21:22Z</time>
      </trkpt>
      <trkpt lat="41.9859990" lon="-7.2779420">
        <ele>843.2</ele>
        <time>2019-08-17T09:21:23Z</time>
      </trkpt>
      <trkpt lat="41.9860140" lon="-7.2780100">
        <ele>843.1</ele>
        <time>2019-08-17T09:21:24Z</time>
      </trkpt>
      <trkpt lat="41.9860300" lon="-7.2780790">
        <ele>843.1</ele>
        <time>2019-08-17T09:21:25Z</time>
      </trkpt>
      <trkpt lat="41.9860470" lon="-7.2781470">
        <ele>843.1</ele>
        <time>2019-08-17T09:21:26Z</time>
      </trkpt>
      <trkpt lat="41.9860640" lon="-7.2782150">
        <ele>843.1</ele>
        <time>2019-08-17T09:21:27Z</time>
      </trkpt>
      <trkpt lat="41.9860830" lon="-7.2782810">
        <ele>843.1</ele>
        <time>2019-08-17T09:21:28Z</time>
      </trkpt>
      <trkpt lat="41.9861020" lon="-7.2783460">
        <ele>843.2</ele>
        <time>2019-08-17T09:21:29Z</time>
      </trkpt>
      <trkpt lat="41.9861230" lon="-7.2784090">
        <ele>843.2</ele>
        <time>2019-08-17T09:21:30Z</time>
      </trkpt>
      <trkpt lat="41.9861440" lon="-7.2784710">
        <ele>843.3</ele>
        <time>2019-08-17T09:21:31Z</time>
      </trkpt>
      <trkpt lat="41.9861670" lon="-7.2785310">
        <ele>843.6</ele>
        <time>2019-08-17T09:21:32Z</time>
      </trkpt>
      <trkpt lat="41.9861900" lon="-7.2785900">
        <ele>843.8</ele>
        <time>2019-08-17T09:21:33Z</time>
      </trkpt>
      <trkpt lat="41.9862140" lon="-7.2786470">
        <ele>844.1</ele>
        <time>2019-08-17T09:21:34Z</time>
      </trkpt>
      <trkpt lat="41.9862390" lon="-7.2787040">
        <ele>844.4</ele>
        <time>2019-08-17T09:21:35Z</time>
      </trkpt>
      <trkpt lat="41.9862650" lon="-7.2787590">
        <ele>844.6</ele>
        <time>2019-08-17T09:21:36Z</time>
      </trkpt>
      <trkpt lat="41.9862910" lon="-7.2788140">
        <ele>844.8</ele>
        <time>2019-08-17T09:21:37Z</time>
      </trkpt>
      <trkpt lat="41.9863180" lon="-7.2788680">
        <ele>845.0</ele>
        <time>2019-08-17T09:21:38Z</time>
      </trkpt>
      <trkpt lat="41.9863460" lon="-7.2789210">
        <ele>845.3</ele>
        <time>2019-08-17T09:21:39Z</time>
      </trkpt>
      <trkpt lat="41.9863740" lon="-7.2789740">
        <ele>845.5</ele>
        <time>2019-08-17T09:21:40Z</time>
      </trkpt>
      <trkpt lat="41.9864030" lon="-7.2790270">
        <ele>845.7</ele>
        <time>2019-08-17T09:21:41Z</time>
      </trkpt>
      <trkpt lat="41.9864330" lon="-7.2790790">
        <ele>845.9</ele>
        <time>2019-08-17T09:21:42Z</time>
      </trkpt>
      <trkpt lat="41.9864630" lon="-7.2791310">
        <ele>846.1</ele>
        <time>2019-08-17T09:21:43Z</time>
      </trkpt>
      <trkpt lat="41.9864940" lon="-7.2791830">
        <ele>846.4</ele>
        <time>2019-08-17T09:21:44Z</time>
      </trkpt>
      <trkpt lat="41.9865240" lon="-7.2792350">
        <ele>846.6</ele>
        <time>2019-08-17T09:21:45Z</time>
      </trkpt>
      <trkpt lat="41.9865770" lon="-7.2793210">
        <ele>847.0</ele>
        <time>2019-08-17T09:21:46Z</time>
      </trkpt>
      <trkpt lat="41.9865980" lon="-7.2793550">
        <ele>847.1</ele>
        <time>2019-08-17T09:21:47Z</time>
      </trkpt>
      <trkpt lat="41.9866190" lon="-7.2793890">
        <ele>847.3</ele>
        <time>2019-08-17T09:21:48Z</time>
      </trkpt>
      <trkpt lat="41.9866510" lon="-7.2794400">
        <ele>847.5</ele>
        <time>2019-08-17T09:21:49Z</time>
      </trkpt>
      <trkpt lat="41.9866820" lon="-7.2794900">
        <ele>847.8</ele>
        <time>2019-08-17T09:21:50Z</time>
      </trkpt>
      <trkpt lat="41.9867350" lon="-7.2795730">
        <ele>848.2</ele>
        <time>2019-08-17T09:21:51Z</time>
      </trkpt>
      <trkpt lat="41.9867560" lon="-7.2796060">
        <ele>848.4</ele>
        <time>2019-08-17T09:21:52Z</time>
      </trkpt>
      <trkpt lat="41.9867770" lon="-7.2796390">
        <ele>848.6</ele>
        <time>2019-08-17T09:21:53Z</time>
      </trkpt>
      <trkpt lat="41.9868090" lon="-7.2796870">
        <ele>848.9</ele>
        <time>2019-08-17T09:21:54Z</time>
      </trkpt>
      <trkpt lat="41.9868400" lon="-7.2797350">
        <ele>849.2</ele>
        <time>2019-08-17T09:21:55Z</time>
      </trkpt>
      <trkpt lat="41.9868710" lon="-7.2797830">
        <ele>849.4</ele>
        <time>2019-08-17T09:21:56Z</time>
      </trkpt>
      <trkpt lat="41.9869010" lon="-7.2798300">
        <ele>849.7</ele>
        <time>2019-08-17T09:21:57Z</time>
      </trkpt>
      <trkpt lat="41.9869310" lon="-7.2798760">
        <ele>850.0</ele>
        <time>2019-08-17T09:21:58Z</time>
      </trkpt>
      <trkpt lat="41.9869600" lon="-7.2799210">
        <ele>850.2</ele>
        <time>2019-08-17T09:21:59Z</time>
      </trkpt>
      <trkpt lat="41.9869890" lon="-7.2799650">
        <ele>850.5</ele>
        <time>2019-08-17T09:22:00Z</time>
      </trkpt>
      <trkpt lat="41.9870170" lon="-7.2800080">
        <ele>850.7</ele>
        <time>2019-08-17T09:22:01Z</time>
      </trkpt>
      <trkpt lat="41.9870440" lon="-7.2800500">
        <ele>851.0</ele>
        <time>2019-08-17T09:22:02Z</time>
      </trkpt>
      <trkpt lat="41.9870710" lon="-7.2800910">
        <ele>851.4</ele>
        <time>2019-08-17T09:22:03Z</time>
      </trkpt>
      <trkpt lat="41.9870960" lon="-7.2801300">
        <ele>851.7</ele>
        <time>2019-08-17T09:22:04Z</time>
      </trkpt>
      <trkpt lat="41.9871210" lon="-7.2801690">
        <ele>852.0</ele>
        <time>2019-08-17T09:22:05Z</time>
      </trkpt>
      <trkpt lat="41.9871460" lon="-7.2802070">
        <ele>852.4</ele>
        <time>2019-08-17T09:22:06Z</time>
      </trkpt>
      <trkpt lat="41.9871690" lon="-7.2802440">
        <ele>852.8</ele>
        <time>2019-08-17T09:22:07Z</time>
      </trkpt>
      <trkpt lat="41.9871920" lon="-7.2802810">
        <ele>853.1</ele>
        <time>2019-08-17T09:22:08Z</time>
      </trkpt>
      <trkpt lat="41.9872150" lon="-7.2803170">
        <ele>853.5</ele>
        <time>2019-08-17T09:22:09Z</time>
      </trkpt>
      <trkpt lat="41.9872360" lon="-7.2803540">
        <ele>853.9</ele>
        <time>2019-08-17T09:22:10Z</time>
      </trkpt>
      <trkpt lat="41.9872580" lon="-7.2803910">
        <ele>854.2</ele>
        <time>2019-08-17T09:22:11Z</time>
      </trkpt>
      <trkpt lat="41.9872780" lon="-7.2804280">
        <ele>854.6</ele>
        <time>2019-08-17T09:22:12Z</time>
      </trkpt>
      <trkpt lat="41.9872980" lon="-7.2804650">
        <ele>855.0</ele>
        <time>2019-08-17T09:22:13Z</time>
      </trkpt>
      <trkpt lat="41.9873170" lon="-7.2805040">
        <ele>855.3</ele>
        <time>2019-08-17T09:22:14Z</time>
      </trkpt>
      <trkpt lat="41.9873350" lon="-7.2805430">
        <ele>855.7</ele>
        <time>2019-08-17T09:22:15Z</time>
      </trkpt>
      <trkpt lat="41.9873520" lon="-7.2805830">
        <ele>856.0</ele>
        <time>2019-08-17T09:22:16Z</time>
      </trkpt>
      <trkpt lat="41.9873680" lon="-7.2806250">
        <ele>856.4</ele>
        <time>2019-08-17T09:22:17Z</time>
      </trkpt>
      <trkpt lat="41.9873830" lon="-7.2806670">
        <ele>856.8</ele>
        <time>2019-08-17T09:22:18Z</time>
      </trkpt>
      <trkpt lat="41.9873970" lon="-7.2807110">
        <ele>857.1</ele>
        <time>2019-08-17T09:22:19Z</time>
      </trkpt>
      <trkpt lat="41.9874100" lon="-7.2807560">
        <ele>857.5</ele>
        <time>2019-08-17T09:22:20Z</time>
      </trkpt>
      <trkpt lat="41.9874220" lon="-7.2808020">
        <ele>857.8</ele>
        <time>2019-08-17T09:22:21Z</time>
      </trkpt>
      <trkpt lat="41.9874330" lon="-7.2808480">
        <ele>858.2</ele>
        <time>2019-08-17T09:22:22Z</time>
      </trkpt>
      <trkpt lat="41.9874430" lon="-7.2808950">
        <ele>858.5</ele>
        <time>2019-08-17T09:22:23Z</time>
      </trkpt>
      <trkpt lat="41.9874520" lon="-7.2809430">
        <ele>858.9</ele>
        <time>2019-08-17T09:22:24Z</time>
      </trkpt>
      <trkpt lat="41.9874600" lon="-7.2809920">
        <ele>859.3</ele>
        <time>2019-08-17T09:22:25Z</time>
      </trkpt>
      <trkpt lat="41.9874660" lon="-7.2810400">
        <ele>859.6</ele>
        <time>2019-08-17T09:22:26Z</time>
      </trkpt>
      <trkpt lat="41.9874720" lon="-7.2810880">
        <ele>859.8</ele>
        <time>2019-08-17T09:22:27Z</time>
      </trkpt>
      <trkpt lat="41.9874770" lon="-7.2811350">
        <ele>860.0</ele>
        <time>2019-08-17T09:22:28Z</time>
      </trkpt>
      <trkpt lat="41.9874810" lon="-7.2811820">
        <ele>860.1</ele>
        <time>2019-08-17T09:22:29Z</time>
      </trkpt>
      <trkpt lat="41.9874840" lon="-7.2812280">
        <ele>860.3</ele>
        <time>2019-08-17T09:22:30Z</time>
      </trkpt>
      <trkpt lat="41.9874860" lon="-7.2812730">
        <ele>860.4</ele>
        <time>2019-08-17T09:22:31Z</time>
      </trkpt>
      <trkpt lat="41.9874870" lon="-7.2813170">
        <ele>860.5</ele>
        <time>2019-08-17T09:22:32Z</time>
      </trkpt>
      <trkpt lat="41.9874880" lon="-7.2813610">
        <ele>860.6</ele>
        <time>2019-08-17T09:22:33Z</time>
      </trkpt>
      <trkpt lat="41.9874890" lon="-7.2814040">
        <ele>860.8</ele>
        <time>2019-08-17T09:22:34Z</time>
      </trkpt>
      <trkpt lat="41.9874890" lon="-7.2814480">
        <ele>860.9</ele>
        <time>2019-08-17T09:22:35Z</time>
      </trkpt>
      <trkpt lat="41.9874890" lon="-7.2814910">
        <ele>861.2</ele>
        <time>2019-08-17T09:22:36Z</time>
      </trkpt>
      <trkpt lat="41.9874900" lon="-7.2815340">
        <ele>861.4</ele>
        <time>2019-08-17T09:22:37Z</time>
      </trkpt>
      <trkpt lat="41.9874910" lon="-7.2815770">
        <ele>861.5</ele>
        <time>2019-08-17T09:22:38Z</time>
      </trkpt>
      <trkpt lat="41.9874910" lon="-7.2816200">
        <ele>861.6</ele>
        <time>2019-08-17T09:22:39Z</time>
      </trkpt>
      <trkpt lat="41.9874920" lon="-7.2816630">
        <ele>861.7</ele>
        <time>2019-08-17T09:22:40Z</time>
      </trkpt>
      <trkpt lat="41.9874930" lon="-7.2817060">
        <ele>861.8</ele>
        <time>2019-08-17T09:22:41Z</time>
      </trkpt>
      <trkpt lat="41.9874940" lon="-7.2817480">
        <ele>861.9</ele>
        <time>2019-08-17T09:22:42Z</time>
      </trkpt>
      <trkpt lat="41.9874950" lon="-7.2817900">
        <ele>862.1</ele>
        <time>2019-08-17T09:22:43Z</time>
      </trkpt>
      <trkpt lat="41.9874960" lon="-7.2818310">
        <ele>862.2</ele>
        <time>2019-08-17T09:22:44Z</time>
      </trkpt>
      <trkpt lat="41.9874980" lon="-7.2818720">
        <ele>862.3</ele>
        <time>2019-08-17T09:22:45Z</time>
      </trkpt>
      <trkpt lat="41.9874990" lon="-7.2819130">
        <ele>862.5</ele>
        <time>2019-08-17T09:22:46Z</time>
      </trkpt>
      <trkpt lat="41.9875000" lon="-7.2819540">
        <ele>862.7</ele>
        <time>2019-08-17T09:22:47Z</time>
      </trkpt>
      <trkpt lat="41.9875020" lon="-7.2819960">
        <ele>862.8</ele>
        <time>2019-08-17T09:22:48Z</time>
      </trkpt>
      <trkpt lat="41.9875040" lon="-7.2820380">
        <ele>862.9</ele>
        <time>2019-08-17T09:22:49Z</time>
      </trkpt>
      <trkpt lat="41.9875050" lon="-7.2820800">
        <ele>863.1</ele>
        <time>2019-08-17T09:22:50Z</time>
      </trkpt>
      <trkpt lat="41.9875070" lon="-7.2821240">
        <ele>863.2</ele>
        <time>2019-08-17T09:22:51Z</time>
      </trkpt>
      <trkpt lat="41.9875100" lon="-7.2821680">
        <ele>863.4</ele>
        <time>2019-08-17T09:22:52Z</time>
      </trkpt>
      <trkpt lat="41.9875120" lon="-7.2822140">
        <ele>863.4</ele>
        <time>2019-08-17T09:22:53Z</time>
      </trkpt>
      <trkpt lat="41.9875140" lon="-7.2822600">
        <ele>863.4</ele>
        <time>2019-08-17T09:22:54Z</time>
      </trkpt>
      <trkpt lat="41.9875170" lon="-7.2823060">
        <ele>863.5</ele>
        <time>2019-08-17T09:22:55Z</time>
      </trkpt>
      <trkpt lat="41.9875190" lon="-7.2823530">
        <ele>863.5</ele>
        <time>2019-08-17T09:22:56Z</time>
      </trkpt>
      <trkpt lat="41.9875220" lon="-7.2824010">
        <ele>863.4</ele>
        <time>2019-08-17T09:22:57Z</time>
      </trkpt>
      <trkpt lat="41.9875240" lon="-7.2824490">
        <ele>863.4</ele>
        <time>2019-08-17T09:22:58Z</time>
      </trkpt>
      <trkpt lat="41.9875270" lon="-7.2824970">
        <ele>863.3</ele>
        <time>2019-08-17T09:22:59Z</time>
      </trkpt>
      <trkpt lat="41.9875290" lon="-7.2825460">
        <ele>863.2</ele>
        <time>2019-08-17T09:23:00Z</time>
      </trkpt>
      <trkpt lat="41.9875310" lon="-7.2825950">
        <ele>863.1</ele>
        <time>2019-08-17T09:23:01Z</time>
      </trkpt>
      <trkpt lat="41.9875330" lon="-7.2826440">
        <ele>863.0</ele>
        <time>2019-08-17T09:23:02Z</time>
      </trkpt>
      <trkpt lat="41.9875350" lon="-7.2826930">
        <ele>862.9</ele>
        <time>2019-08-17T09:23:03Z</time>
      </trkpt>
      <trkpt lat="41.9875370" lon="-7.2827430">
        <ele>862.8</ele>
        <time>2019-08-17T09:23:04Z</time>
      </trkpt>
      <trkpt lat="41.9875390" lon="-7.2827930">
        <ele>862.6</ele>
        <time>2019-08-17T09:23:05Z</time>
      </trkpt>
      <trkpt lat="41.9875400" lon="-7.2828420">
        <ele>862.4</ele>
        <time>2019-08-17T09:23:06Z</time>
      </trkpt>
      <trkpt lat="41.9875410" lon="-7.2828920">
        <ele>862.2</ele>
        <time>2019-08-17T09:23:07Z</time>
      </trkpt>
      <trkpt lat="41.9875420" lon="-7.2829410">
        <ele>862.1</ele>
        <time>2019-08-17T09:23:08Z</time>
      </trkpt>
      <trkpt lat="41.9875430" lon="-7.2829910">
        <ele>862.1</ele>
        <time>2019-08-17T09:23:09Z</time>
      </trkpt>
      <trkpt lat="41.9875440" lon="-7.2830400">
        <ele>862.0</ele>
        <time>2019-08-17T09:23:10Z</time>
      </trkpt>
      <trkpt lat="41.9875440" lon="-7.2830890">
        <ele>862.0</ele>
        <time>2019-08-17T09:23:11Z</time>
      </trkpt>
      <trkpt lat="41.9875440" lon="-7.2831370">
        <ele>862.0</ele>
        <time>2019-08-17T09:23:12Z</time>
      </trkpt>
      <trkpt lat="41.9875430" lon="-7.2831860">
        <ele>862.0</ele>
        <time>2019-08-17T09:23:13Z</time>
      </trkpt>
      <trkpt lat="41.9875420" lon="-7.2832340">
        <ele>862.0</ele>
        <time>2019-08-17T09:23:14Z</time>
      </trkpt>
      <trkpt lat="41.9875410" lon="-7.2832810">
        <ele>862.2</ele>
        <time>2019-08-17T09:23:15Z</time>
      </trkpt>
      <trkpt lat="41.9875400" lon="-7.2833280">
        <ele>862.4</ele>
        <time>2019-08-17T09:23:16Z</time>
      </trkpt>
      <trkpt lat="41.9875380" lon="-7.2833740">
        <ele>862.6</ele>
        <time>2019-08-17T09:23:17Z</time>
      </trkpt>
      <trkpt lat="41.9875350" lon="-7.2834200">
        <ele>862.8</ele>
        <time>2019-08-17T09:23:18Z</time>
      </trkpt>
      <trkpt lat="41.9875330" lon="-7.2834650">
        <ele>863.0</ele>
        <time>2019-08-17T09:23:19Z</time>
      </trkpt>
      <trkpt lat="41.9875300" lon="-7.2835100">
        <ele>863.2</ele>
        <time>2019-08-17T09:23:20Z</time>
      </trkpt>
      <trkpt lat="41.9875260" lon="-7.2835550">
        <ele>863.4</ele>
        <time>2019-08-17T09:23:21Z</time>
      </trkpt>
      <trkpt lat="41.9875220" lon="-7.2835990">
        <ele>863.5</ele>
        <time>2019-08-17T09:23:22Z</time>
      </trkpt>
      <trkpt lat="41.9875180" lon="-7.2836420">
        <ele>863.7</ele>
        <time>2019-08-17T09:23:23Z</time>
      </trkpt>
      <trkpt lat="41.9875130" lon="-7.2836860">
        <ele>863.8</ele>
        <time>2019-08-17T09:23:24Z</time>
      </trkpt>
      <trkpt lat="41.9875090" lon="-7.2837290">
        <ele>864.0</ele>
        <time>2019-08-17T09:23:25Z</time>
      </trkpt>
      <trkpt lat="41.9875030" lon="-7.2837720">
        <ele>864.2</ele>
        <time>2019-08-17T09:23:26Z</time>
      </trkpt>
      <trkpt lat="41.9874980" lon="-7.2838150">
        <ele>864.3</ele>
        <time>2019-08-17T09:23:27Z</time>
      </trkpt>
      <trkpt lat="41.9874920" lon="-7.2838570">
        <ele>864.5</ele>
        <time>2019-08-17T09:23:28Z</time>
      </trkpt>
      <trkpt lat="41.9874850" lon="-7.2839000">
        <ele>864.7</ele>
        <time>2019-08-17T09:23:29Z</time>
      </trkpt>
      <trkpt lat="41.9874790" lon="-7.2839420">
        <ele>864.8</ele>
        <time>2019-08-17T09:23:30Z</time>
      </trkpt>
      <trkpt lat="41.9874720" lon="-7.2839850">
        <ele>865.0</ele>
        <time>2019-08-17T09:23:31Z</time>
      </trkpt>
      <trkpt lat="41.9874640" lon="-7.2840270">
        <ele>865.2</ele>
        <time>2019-08-17T09:23:32Z</time>
      </trkpt>
      <trkpt lat="41.9874570" lon="-7.2840700">
        <ele>865.4</ele>
        <time>2019-08-17T09:23:33Z</time>
      </trkpt>
      <trkpt lat="41.9874490" lon="-7.2841120">
        <ele>865.5</ele>
        <time>2019-08-17T09:23:34Z</time>
      </trkpt>
      <trkpt lat="41.9874410" lon="-7.2841540">
        <ele>865.7</ele>
        <time>2019-08-17T09:23:35Z</time>
      </trkpt>
      <trkpt lat="41.9874320" lon="-7.2841960">
        <ele>865.9</ele>
        <time>2019-08-17T09:23:36Z</time>
      </trkpt>
      <trkpt lat="41.9874240" lon="-7.2842380">
        <ele>866.1</ele>
        <time>2019-08-17T09:23:37Z</time>
      </trkpt>
      <trkpt lat="41.9874150" lon="-7.2842790">
        <ele>866.3</ele>
        <time>2019-08-17T09:23:38Z</time>
      </trkpt>
      <trkpt lat="41.9874060" lon="-7.2843200">
        <ele>866.5</ele>
        <time>2019-08-17T09:23:39Z</time>
      </trkpt>
      <trkpt lat="41.9873970" lon="-7.2843610">
        <ele>866.7</ele>
        <time>2019-08-17T09:23:40Z</time>
      </trkpt>
      <trkpt lat="41.9873880" lon="-7.2844020">
        <ele>866.9</ele>
        <time>2019-08-17T09:23:41Z</time>
      </trkpt>
      <trkpt lat="41.9873780" lon="-7.2844420">
        <ele>867.1</ele>
        <time>2019-08-17T09:23:42Z</time>
      </trkpt>
      <trkpt lat="41.9873690" lon="-7.2844820">
        <ele>867.4</ele>
        <time>2019-08-17T09:23:43Z</time>
      </trkpt>
      <trkpt lat="41.9873600" lon="-7.2845220">
        <ele>867.6</ele>
        <time>2019-08-17T09:23:44Z</time>
      </trkpt>
      <trkpt lat="41.9873500" lon="-7.2845610">
        <ele>867.9</ele>
        <time>2019-08-17T09:23:45Z</time>
      </trkpt>
      <trkpt lat="41.9873410" lon="-7.2845990">
        <ele>868.1</ele>
        <time>2019-08-17T09:23:46Z</time>
      </trkpt>
      <trkpt lat="41.9873310" lon="-7.2846370">
        <ele>868.3</ele>
        <time>2019-08-17T09:23:47Z</time>
      </trkpt>
      <trkpt lat="41.9873220" lon="-7.2846750">
        <ele>868.5</ele>
        <time>2019-08-17T09:23:48Z</time>
      </trkpt>
      <trkpt lat="41.9873120" lon="-7.2847120">
        <ele>868.7</ele>
        <time>2019-08-17T09:23:49Z</time>
      </trkpt>
      <trkpt lat="41.9873030" lon="-7.2847480">
        <ele>868.9</ele>
        <time>2019-08-17T09:23:50Z</time>
      </trkpt>
      <trkpt lat="41.9872930" lon="-7.2847840">
        <ele>869.0</ele>
        <time>2019-08-17T09:23:51Z</time>
      </trkpt>
      <trkpt lat="41.9872840" lon="-7.2848190">
        <ele>869.2</ele>
        <time>2019-08-17T09:23:52Z</time>
      </trkpt>
      <trkpt lat="41.9872740" lon="-7.2848540">
        <ele>869.4</ele>
        <time>2019-08-17T09:23:53Z</time>
      </trkpt>
      <trkpt lat="41.9872650" lon="-7.2848870">
        <ele>869.6</ele>
        <time>2019-08-17T09:23:54Z</time>
      </trkpt>
      <trkpt lat="41.9872560" lon="-7.2849200">
        <ele>869.8</ele>
        <time>2019-08-17T09:23:55Z</time>
      </trkpt>
      <trkpt lat="41.9872470" lon="-7.2849520">
        <ele>870.0</ele>
        <time>2019-08-17T09:23:56Z</time>
      </trkpt>
      <trkpt lat="41.9872380" lon="-7.2849830">
        <ele>870.2</ele>
        <time>2019-08-17T09:23:57Z</time>
      </trkpt>
      <trkpt lat="41.9872290" lon="-7.2850130">
        <ele>870.4</ele>
        <time>2019-08-17T09:23:58Z</time>
      </trkpt>
      <trkpt lat="41.9872200" lon="-7.2850430">
        <ele>870.6</ele>
        <time>2019-08-17T09:23:59Z</time>
      </trkpt>
      <trkpt lat="41.9872110" lon="-7.2850720">
        <ele>870.8</ele>
        <time>2019-08-17T09:24:00Z</time>
      </trkpt>
      <trkpt lat="41.9872030" lon="-7.2851020">
        <ele>871.0</ele>
        <time>2019-08-17T09:24:01Z</time>
      </trkpt>
      <trkpt lat="41.9871940" lon="-7.2851310">
        <ele>871.2</ele>
        <time>2019-08-17T09:24:02Z</time>
      </trkpt>
      <trkpt lat="41.9871860" lon="-7.2851620">
        <ele>871.4</ele>
        <time>2019-08-17T09:24:03Z</time>
      </trkpt>
      <trkpt lat="41.9871780" lon="-7.2851930">
        <ele>871.6</ele>
        <time>2019-08-17T09:24:04Z</time>
      </trkpt>
      <trkpt lat="41.9871690" lon="-7.2852260">
        <ele>871.9</ele>
        <time>2019-08-17T09:24:05Z</time>
      </trkpt>
      <trkpt lat="41.9871610" lon="-7.2852590">
        <ele>872.1</ele>
        <time>2019-08-17T09:24:06Z</time>
      </trkpt>
      <trkpt lat="41.9871530" lon="-7.2852940">
        <ele>872.3</ele>
        <time>2019-08-17T09:24:07Z</time>
      </trkpt>
      <trkpt lat="41.9871440" lon="-7.2853290">
        <ele>872.6</ele>
        <time>2019-08-17T09:24:08Z</time>
      </trkpt>
      <trkpt lat="41.9871360" lon="-7.2853640">
        <ele>872.8</ele>
        <time>2019-08-17T09:24:09Z</time>
      </trkpt>
      <trkpt lat="41.9871270" lon="-7.2853990">
        <ele>873.1</ele>
        <time>2019-08-17T09:24:10Z</time>
      </trkpt>
      <trkpt lat="41.9871180" lon="-7.2854340">
        <ele>873.4</ele>
        <time>2019-08-17T09:24:11Z</time>
      </trkpt>
      <trkpt lat="41.9871080" lon="-7.2854690">
        <ele>873.7</ele>
        <time>2019-08-17T09:24:12Z</time>
      </trkpt>
      <trkpt lat="41.9870990" lon="-7.2855040">
        <ele>874.0</ele>
        <time>2019-08-17T09:24:13Z</time>
      </trkpt>
      <trkpt lat="41.9870890" lon="-7.2855380">
        <ele>874.3</ele>
        <time>2019-08-17T09:24:14Z</time>
      </trkpt>
      <trkpt lat="41.9870780" lon="-7.2855720">
        <ele>874.6</ele>
        <time>2019-08-17T09:24:15Z</time>
      </trkpt>
      <trkpt lat="41.9870680" lon="-7.2856060">
        <ele>874.9</ele>
        <time>2019-08-17T09:24:16Z</time>
      </trkpt>
      <trkpt lat="41.9870570" lon="-7.2856400">
        <ele>875.2</ele>
        <time>2019-08-17T09:24:17Z</time>
      </trkpt>
      <trkpt lat="41.9870450" lon="-7.2856730">
        <ele>875.5</ele>
        <time>2019-08-17T09:24:18Z</time>
      </trkpt>
      <trkpt lat="41.9870330" lon="-7.2857060">
        <ele>875.6</ele>
        <time>2019-08-17T09:24:19Z</time>
      </trkpt>
      <trkpt lat="41.9870210" lon="-7.2857390">
        <ele>875.7</ele>
        <time>2019-08-17T09:24:20Z</time>
      </trkpt>
      <trkpt lat="41.9870090" lon="-7.2857710">
        <ele>875.8</ele>
        <time>2019-08-17T09:24:21Z</time>
      </trkpt>
      <trkpt lat="41.9869960" lon="-7.2858030">
        <ele>875.9</ele>
        <time>2019-08-17T09:24:22Z</time>
      </trkpt>
      <trkpt lat="41.9869820" lon="-7.2858350">
        <ele>876.0</ele>
        <time>2019-08-17T09:24:23Z</time>
      </trkpt>
      <trkpt lat="41.9869680" lon="-7.2858660">
        <ele>876.0</ele>
        <time>2019-08-17T09:24:24Z</time>
      </trkpt>
      <trkpt lat="41.9869540" lon="-7.2858970">
        <ele>876.2</ele>
        <time>2019-08-17T09:24:25Z</time>
      </trkpt>
      <trkpt lat="41.9869390" lon="-7.2859280">
        <ele>876.3</ele>
        <time>2019-08-17T09:24:26Z</time>
      </trkpt>
      <trkpt lat="41.9869240" lon="-7.2859580">
        <ele>876.4</ele>
        <time>2019-08-17T09:24:27Z</time>
      </trkpt>
      <trkpt lat="41.9869080" lon="-7.2859880">
        <ele>876.5</ele>
        <time>2019-08-17T09:24:28Z</time>
      </trkpt>
      <trkpt lat="41.9868920" lon="-7.2860180">
        <ele>876.7</ele>
        <time>2019-08-17T09:24:29Z</time>
      </trkpt>
      <trkpt lat="41.9868750" lon="-7.2860470">
        <ele>876.8</ele>
        <time>2019-08-17T09:24:30Z</time>
      </trkpt>
      <trkpt lat="41.9868580" lon="-7.2860750">
        <ele>877.0</ele>
        <time>2019-08-17T09:24:31Z</time>
      </trkpt>
      <trkpt lat="41.9868410" lon="-7.2861040">
        <ele>877.1</ele>
        <time>2019-08-17T09:24:32Z</time>
      </trkpt>
      <trkpt lat="41.9868220" lon="-7.2861320">
        <ele>877.3</ele>
        <time>2019-08-17T09:24:33Z</time>
      </trkpt>
      <trkpt lat="41.9868040" lon="-7.2861590">
        <ele>877.5</ele>
        <time>2019-08-17T09:24:34Z</time>
      </trkpt>
      <trkpt lat="41.9867840" lon="-7.2861860">
        <ele>877.7</ele>
        <time>2019-08-17T09:24:35Z</time>
      </trkpt>
      <trkpt lat="41.9867640" lon="-7.2862120">
        <ele>877.9</ele>
        <time>2019-08-17T09:24:36Z</time>
      </trkpt>
      <trkpt lat="41.9867440" lon="-7.2862380">
        <ele>878.1</ele>
        <time>2019-08-17T09:24:37Z</time>
      </trkpt>
      <trkpt lat="41.9867230" lon="-7.2862640">
        <ele>878.3</ele>
        <time>2019-08-17T09:24:38Z</time>
      </trkpt>
      <trkpt lat="41.9867010" lon="-7.2862890">
        <ele>878.6</ele>
        <time>2019-08-17T09:24:39Z</time>
      </trkpt>
      <trkpt lat="41.9866790" lon="-7.2863140">
        <ele>878.8</ele>
        <time>2019-08-17T09:24:40Z</time>
      </trkpt>
      <trkpt lat="41.9866560" lon="-7.2863380">
        <ele>879.0</ele>
        <time>2019-08-17T09:24:41Z</time>
      </trkpt>
      <trkpt lat="41.9866330" lon="-7.2863610">
        <ele>879.2</ele>
        <time>2019-08-17T09:24:42Z</time>
      </trkpt>
      <trkpt lat="41.9866100" lon="-7.2863840">
        <ele>879.4</ele>
        <time>2019-08-17T09:24:43Z</time>
      </trkpt>
      <trkpt lat="41.9865860" lon="-7.2864070">
        <ele>879.6</ele>
        <time>2019-08-17T09:24:44Z</time>
      </trkpt>
      <trkpt lat="41.9865620" lon="-7.2864290">
        <ele>879.8</ele>
        <time>2019-08-17T09:24:45Z</time>
      </trkpt>
      <trkpt lat="41.9865370" lon="-7.2864510">
        <ele>879.9</ele>
        <time>2019-08-17T09:24:46Z</time>
      </trkpt>
      <trkpt lat="41.9865130" lon="-7.2864720">
        <ele>880.1</ele>
        <time>2019-08-17T09:24:47Z</time>
      </trkpt>
      <trkpt lat="41.9864880" lon="-7.2864920">
        <ele>880.3</ele>
        <time>2019-08-17T09:24:48Z</time>
      </trkpt>
      <trkpt lat="41.9864620" lon="-7.2865120">
        <ele>880.5</ele>
        <time>2019-08-17T09:24:49Z</time>
      </trkpt>
      <trkpt lat="41.9864370" lon="-7.2865320">
        <ele>880.7</ele>
        <time>2019-08-17T09:24:50Z</time>
      </trkpt>
      <trkpt lat="41.9864120" lon="-7.2865510">
        <ele>880.8</ele>
        <time>2019-08-17T09:24:51Z</time>
      </trkpt>
      <trkpt lat="41.9863860" lon="-7.2865690">
        <ele>881.0</ele>
        <time>2019-08-17T09:24:52Z</time>
      </trkpt>
      <trkpt lat="41.9863600" lon="-7.2865870">
        <ele>881.2</ele>
        <time>2019-08-17T09:24:53Z</time>
      </trkpt>
      <trkpt lat="41.9863340" lon="-7.2866050">
        <ele>881.4</ele>
        <time>2019-08-17T09:24:54Z</time>
      </trkpt>
      <trkpt lat="41.9863080" lon="-7.2866220">
        <ele>881.6</ele>
        <time>2019-08-17T09:24:55Z</time>
      </trkpt>
      <trkpt lat="41.9862820" lon="-7.2866380">
        <ele>881.9</ele>
        <time>2019-08-17T09:24:56Z</time>
      </trkpt>
      <trkpt lat="41.9862550" lon="-7.2866540">
        <ele>882.1</ele>
        <time>2019-08-17T09:24:57Z</time>
      </trkpt>
      <trkpt lat="41.9862280" lon="-7.2866700">
        <ele>882.4</ele>
        <time>2019-08-17T09:24:58Z</time>
      </trkpt>
      <trkpt lat="41.9862010" lon="-7.2866860">
        <ele>882.7</ele>
        <time>2019-08-17T09:24:59Z</time>
      </trkpt>
      <trkpt lat="41.9861730" lon="-7.2867010">
        <ele>883.0</ele>
        <time>2019-08-17T09:25:00Z</time>
      </trkpt>
      <trkpt lat="41.9861450" lon="-7.2867160">
        <ele>883.3</ele>
        <time>2019-08-17T09:25:01Z</time>
      </trkpt>
      <trkpt lat="41.9861160" lon="-7.2867300">
        <ele>883.7</ele>
        <time>2019-08-17T09:25:02Z</time>
      </trkpt>
      <trkpt lat="41.9860870" lon="-7.2867440">
        <ele>884.0</ele>
        <time>2019-08-17T09:25:03Z</time>
      </trkpt>
      <trkpt lat="41.9860580" lon="-7.2867580">
        <ele>884.4</ele>
        <time>2019-08-17T09:25:04Z</time>
      </trkpt>
      <trkpt lat="41.9860270" lon="-7.2867720">
        <ele>884.8</ele>
        <time>2019-08-17T09:25:05Z</time>
      </trkpt>
      <trkpt lat="41.9859970" lon="-7.2867860">
        <ele>885.2</ele>
        <time>2019-08-17T09:25:06Z</time>
      </trkpt>
      <trkpt lat="41.9859650" lon="-7.2867990">
        <ele>885.6</ele>
        <time>2019-08-17T09:25:07Z</time>
      </trkpt>
      <trkpt lat="41.9859340" lon="-7.2868130">
        <ele>886.1</ele>
        <time>2019-08-17T09:25:08Z</time>
      </trkpt>
      <trkpt lat="41.9859010" lon="-7.2868270">
        <ele>886.5</ele>
        <time>2019-08-17T09:25:09Z</time>
      </trkpt>
      <trkpt lat="41.9858690" lon="-7.2868410">
        <ele>886.5</ele>
        <time>2019-08-17T09:25:10Z</time>
      </trkpt>
      <trkpt lat="41.9858360" lon="-7.2868550">
        <ele>886.5</ele>
        <time>2019-08-17T09:25:11Z</time>
      </trkpt>
      <trkpt lat="41.9858040" lon="-7.2868690">
        <ele>886.5</ele>
        <time>2019-08-17T09:25:12Z</time>
      </trkpt>
      <trkpt lat="41.9857710" lon="-7.2868840">
        <ele>886.5</ele>
        <time>2019-08-17T09:25:13Z</time>
      </trkpt>
      <trkpt lat="41.9857380" lon="-7.2868990">
        <ele>886.5</ele>
        <time>2019-08-17T09:25:14Z</time>
      </trkpt>
      <trkpt lat="41.9857040" lon="-7.2869150">
        <ele>886.5</ele>
        <time>2019-08-17T09:25:15Z</time>
      </trkpt>
      <trkpt lat="41.9856710" lon="-7.2869320">
        <ele>886.4</ele>
        <time>2019-08-17T09:25:16Z</time>
      </trkpt>
      <trkpt lat="41.9856380" lon="-7.2869490">
        <ele>886.4</ele>
        <time>2019-08-17T09:25:17Z</time>
      </trkpt>
      <trkpt lat="41.9856060" lon="-7.2869670">
        <ele>886.4</ele>
        <time>2019-08-17T09:25:18Z</time>
      </trkpt>
      <trkpt lat="41.9855730" lon="-7.2869850">
        <ele>886.4</ele>
        <time>2019-08-17T09:25:19Z</time>
      </trkpt>
      <trkpt lat="41.9855400" lon="-7.2870050">
        <ele>886.4</ele>
        <time>2019-08-17T09:25:20Z</time>
      </trkpt>
      <trkpt lat="41.9855080" lon="-7.2870260">
        <ele>886.4</ele>
        <time>2019-08-17T09:25:21Z</time>
      </trkpt>
      <trkpt lat="41.9854760" lon="-7.2870480">
        <ele>886.3</ele>
        <time>2019-08-17T09:25:22Z</time>
      </trkpt>
      <trkpt lat="41.9854450" lon="-7.2870720">
        <ele>886.3</ele>
        <time>2019-08-17T09:25:23Z</time>
      </trkpt>
      <trkpt lat="41.9854140" lon="-7.2870970">
        <ele>886.3</ele>
        <time>2019-08-17T09:25:24Z</time>
      </trkpt>
      <trkpt lat="41.9853830" lon="-7.2871240">
        <ele>886.3</ele>
        <time>2019-08-17T09:25:25Z</time>
      </trkpt>
      <trkpt lat="41.9853520" lon="-7.2871520">
        <ele>886.2</ele>
        <time>2019-08-17T09:25:26Z</time>
      </trkpt>
      <trkpt lat="41.9853220" lon="-7.2871820">
        <ele>886.2</ele>
        <time>2019-08-17T09:25:27Z</time>
      </trkpt>
      <trkpt lat="41.9852930" lon="-7.2872150">
        <ele>886.2</ele>
        <time>2019-08-17T09:25:28Z</time>
      </trkpt>
      <trkpt lat="41.9852630" lon="-7.2872500">
        <ele>886.1</ele>
        <time>2019-08-17T09:25:29Z</time>
      </trkpt>
      <trkpt lat="41.9852350" lon="-7.2872870">
        <ele>886.1</ele>
        <time>2019-08-17T09:25:30Z</time>
      </trkpt>
      <trkpt lat="41.9852070" lon="-7.2873260">
        <ele>886.0</ele>
        <time>2019-08-17T09:25:31Z</time>
      </trkpt>
      <trkpt lat="41.9851790" lon="-7.2873690">
        <ele>886.0</ele>
        <time>2019-08-17T09:25:32Z</time>
      </trkpt>
      <trkpt lat="41.9851530" lon="-7.2874130">
        <ele>885.9</ele>
        <time>2019-08-17T09:25:33Z</time>
      </trkpt>
      <trkpt lat="41.9851270" lon="-7.2874600">
        <ele>885.9</ele>
        <time>2019-08-17T09:25:34Z</time>
      </trkpt>
      <trkpt lat="41.9851020" lon="-7.2875100">
        <ele>886.0</ele>
        <time>2019-08-17T09:25:35Z</time>
      </trkpt>
      <trkpt lat="41.9850780" lon="-7.2875620">
        <ele>886.0</ele>
        <time>2019-08-17T09:25:36Z</time>
      </trkpt>
      <trkpt lat="41.9850550" lon="-7.2876160">
        <ele>886.0</ele>
        <time>2019-08-17T09:25:37Z</time>
      </trkpt>
      <trkpt lat="41.9850340" lon="-7.2876720">
        <ele>886.0</ele>
        <time>2019-08-17T09:25:38Z</time>
      </trkpt>
      <trkpt lat="41.9850130" lon="-7.2877310">
        <ele>885.8</ele>
        <time>2019-08-17T09:25:39Z</time>
      </trkpt>
      <trkpt lat="41.9849950" lon="-7.2877910">
        <ele>885.7</ele>
        <time>2019-08-17T09:25:40Z</time>
      </trkpt>
      <trkpt lat="41.9849780" lon="-7.2878540">
        <ele>885.6</ele>
        <time>2019-08-17T09:25:41Z</time>
      </trkpt>
      <trkpt lat="41.9849630" lon="-7.2879180">
        <ele>885.4</ele>
        <time>2019-08-17T09:25:42Z</time>
      </trkpt>
      <trkpt lat="41.9849510" lon="-7.2879850">
        <ele>885.3</ele>
        <time>2019-08-17T09:25:43Z</time>
      </trkpt>
      <trkpt lat="41.9849390" lon="-7.2880520">
        <ele>885.1</ele>
        <time>2019-08-17T09:25:44Z</time>
      </trkpt>
      <trkpt lat="41.9849290" lon="-7.2881220">
        <ele>884.9</ele>
        <time>2019-08-17T09:25:45Z</time>
      </trkpt>
      <trkpt lat="41.9849230" lon="-7.2881930">
        <ele>884.6</ele>
        <time>2019-08-17T09:25:46Z</time>
      </trkpt>
      <trkpt lat="41.9849180" lon="-7.2882660">
        <ele>884.4</ele>
        <time>2019-08-17T09:25:47Z</time>
      </trkpt>
      <trkpt lat="41.9849150" lon="-7.2883420">
        <ele>884.1</ele>
        <time>2019-08-17T09:25:48Z</time>
      </trkpt>
      <trkpt lat="41.9849140" lon="-7.2884200">
        <ele>883.9</ele>
        <time>2019-08-17T09:25:49Z</time>
      </trkpt>
      <trkpt lat="41.9849140" lon="-7.2885020">
        <ele>883.6</ele>
        <time>2019-08-17T09:25:50Z</time>
      </trkpt>
      <trkpt lat="41.9849160" lon="-7.2885870">
        <ele>883.2</ele>
        <time>2019-08-17T09:25:51Z</time>
      </trkpt>
      <trkpt lat="41.9849180" lon="-7.2886750">
        <ele>882.9</ele>
        <time>2019-08-17T09:25:52Z</time>
      </trkpt>
      <trkpt lat="41.9849220" lon="-7.2887680">
        <ele>882.5</ele>
        <time>2019-08-17T09:25:53Z</time>
      </trkpt>
      <trkpt lat="41.9849270" lon="-7.2888640">
        <ele>882.0</ele>
        <time>2019-08-17T09:25:54Z</time>
      </trkpt>
      <trkpt lat="41.9849320" lon="-7.2889640">
        <ele>881.6</ele>
        <time>2019-08-17T09:25:55Z</time>
      </trkpt>
      <trkpt lat="41.9849370" lon="-7.2890680">
        <ele>881.2</ele>
        <time>2019-08-17T09:25:56Z</time>
      </trkpt>
      <trkpt lat="41.9849430" lon="-7.2891750">
        <ele>880.8</ele>
        <time>2019-08-17T09:25:57Z</time>
      </trkpt>
      <trkpt lat="41.9849490" lon="-7.2892840">
        <ele>880.4</ele>
        <time>2019-08-17T09:25:58Z</time>
      </trkpt>
      <trkpt lat="41.9849550" lon="-7.2893960">
        <ele>879.9</ele>
        <time>2019-08-17T09:25:59Z</time>
      </trkpt>
      <trkpt lat="41.9849610" lon="-7.2895110">
        <ele>879.3</ele>
        <time>2019-08-17T09:26:00Z</time>
      </trkpt>
      <trkpt lat="41.9849660" lon="-7.2896270">
        <ele>878.8</ele>
        <time>2019-08-17T09:26:01Z</time>
      </trkpt>
      <trkpt lat="41.9849700" lon="-7.2897460">
        <ele>878.3</ele>
        <time>2019-08-17T09:26:02Z</time>
      </trkpt>
      <trkpt lat="41.9849730" lon="-7.2898660">
        <ele>877.9</ele>
        <time>2019-08-17T09:26:03Z</time>
      </trkpt>
      <trkpt lat="41.9849740" lon="-7.2899880">
        <ele>877.6</ele>
        <time>2019-08-17T09:26:04Z</time>
      </trkpt>
      <trkpt lat="41.9849730" lon="-7.2901100">
        <ele>877.3</ele>
        <time>2019-08-17T09:26:05Z</time>
      </trkpt>
      <trkpt lat="41.9849710" lon="-7.2902340">
        <ele>877.1</ele>
        <time>2019-08-17T09:26:06Z</time>
      </trkpt>
      <trkpt lat="41.9849620" lon="-7.2904400">
        <ele>876.9</ele>
        <time>2019-08-17T09:26:07Z</time>
      </trkpt>
      <trkpt lat="41.9849580" lon="-7.2905230">
        <ele>876.8</ele>
        <time>2019-08-17T09:26:08Z</time>
      </trkpt>
      <trkpt lat="41.9849530" lon="-7.2906050">
        <ele>876.6</ele>
        <time>2019-08-17T09:26:09Z</time>
      </trkpt>
      <trkpt lat="41.9849450" lon="-7.2907270">
        <ele>876.4</ele>
        <time>2019-08-17T09:26:10Z</time>
      </trkpt>
      <trkpt lat="41.9849360" lon="-7.2908460">
        <ele>876.3</ele>
        <time>2019-08-17T09:26:11Z</time>
      </trkpt>
      <trkpt lat="41.9849190" lon="-7.2910400">
        <ele>876.0</ele>
        <time>2019-08-17T09:26:12Z</time>
      </trkpt>
      <trkpt lat="41.9849130" lon="-7.2911160">
        <ele>875.9</ele>
        <time>2019-08-17T09:26:13Z</time>
      </trkpt>
      <trkpt lat="41.9849060" lon="-7.2911920">
        <ele>875.8</ele>
        <time>2019-08-17T09:26:14Z</time>
      </trkpt>
      <trkpt lat="41.9848950" lon="-7.2913040">
        <ele>875.6</ele>
        <time>2019-08-17T09:26:15Z</time>
      </trkpt>
      <trkpt lat="41.9848830" lon="-7.2914180">
        <ele>875.5</ele>
        <time>2019-08-17T09:26:16Z</time>
      </trkpt>
      <trkpt lat="41.9848710" lon="-7.2915330">
        <ele>875.4</ele>
        <time>2019-08-17T09:26:17Z</time>
      </trkpt>
      <trkpt lat="41.9848580" lon="-7.2916490">
        <ele>875.2</ele>
        <time>2019-08-17T09:26:18Z</time>
      </trkpt>
      <trkpt lat="41.9848450" lon="-7.2917660">
        <ele>875.0</ele>
        <time>2019-08-17T09:26:19Z</time>
      </trkpt>
      <trkpt lat="41.9848320" lon="-7.2918810">
        <ele>874.8</ele>
        <time>2019-08-17T09:26:20Z</time>
      </trkpt>
      <trkpt lat="41.9848190" lon="-7.2919960">
        <ele>874.6</ele>
        <time>2019-08-17T09:26:21Z</time>
      </trkpt>
      <trkpt lat="41.9848060" lon="-7.2921100">
        <ele>874.4</ele>
        <time>2019-08-17T09:26:22Z</time>
      </trkpt>
      <trkpt lat="41.9847940" lon="-7.2922230">
        <ele>874.2</ele>
        <time>2019-08-17T09:26:23Z</time>
      </trkpt>
      <trkpt lat="41.9847820" lon="-7.2923350">
        <ele>873.8</ele>
        <time>2019-08-17T09:26:24Z</time>
      </trkpt>
      <trkpt lat="41.9847700" lon="-7.2924470">
        <ele>873.6</ele>
        <time>2019-08-17T09:26:25Z</time>
      </trkpt>
      <trkpt lat="41.9847590" lon="-7.2925580">
        <ele>873.4</ele>
        <time>2019-08-17T09:26:26Z</time>
      </trkpt>
      <trkpt lat="41.9847480" lon="-7.2926680">
        <ele>873.2</ele>
        <time>2019-08-17T09:26:27Z</time>
      </trkpt>
      <trkpt lat="41.9847370" lon="-7.2927780">
        <ele>873.1</ele>
        <time>2019-08-17T09:26:28Z</time>
      </trkpt>
      <trkpt lat="41.9847280" lon="-7.2928870">
        <ele>872.9</ele>
        <time>2019-08-17T09:26:29Z</time>
      </trkpt>
      <trkpt lat="41.9847180" lon="-7.2929950">
        <ele>872.8</ele>
        <time>2019-08-17T09:26:30Z</time>
      </trkpt>
      <trkpt lat="41.9847090" lon="-7.2931030">
        <ele>872.7</ele>
        <time>2019-08-17T09:26:31Z</time>
      </trkpt>
      <trkpt lat="41.9847000" lon="-7.2932090">
        <ele>872.6</ele>
        <time>2019-08-17T09:26:32Z</time>
      </trkpt>
      <trkpt lat="41.9846920" lon="-7.2933150">
        <ele>872.6</ele>
        <time>2019-08-17T09:26:33Z</time>
      </trkpt>
      <trkpt lat="41.9846840" lon="-7.2934200">
        <ele>872.5</ele>
        <time>2019-08-17T09:26:34Z</time>
      </trkpt>
      <trkpt lat="41.9846770" lon="-7.2935250">
        <ele>872.5</ele>
        <time>2019-08-17T09:26:35Z</time>
      </trkpt>
      <trkpt lat="41.9846700" lon="-7.2936280">
        <ele>872.6</ele>
        <time>2019-08-17T09:26:36Z</time>
      </trkpt>
      <trkpt lat="41.9846640" lon="-7.2937310">
        <ele>872.6</ele>
        <time>2019-08-17T09:26:37Z</time>
      </trkpt>
      <trkpt lat="41.9846580" lon="-7.2938320">
        <ele>872.7</ele>
        <time>2019-08-17T09:26:38Z</time>
      </trkpt>
      <trkpt lat="41.9846530" lon="-7.2939330">
        <ele>872.7</ele>
        <time>2019-08-17T09:26:39Z</time>
      </trkpt>
      <trkpt lat="41.9846480" lon="-7.2940320">
        <ele>872.8</ele>
        <time>2019-08-17T09:26:40Z</time>
      </trkpt>
      <trkpt lat="41.9846430" lon="-7.2941310">
        <ele>872.9</ele>
        <time>2019-08-17T09:26:41Z</time>
      </trkpt>
      <trkpt lat="41.9846390" lon="-7.2942280">
        <ele>873.0</ele>
        <time>2019-08-17T09:26:42Z</time>
      </trkpt>
      <trkpt lat="41.9846350" lon="-7.2943230">
        <ele>873.1</ele>
        <time>2019-08-17T09:26:43Z</time>
      </trkpt>
      <trkpt lat="41.9846310" lon="-7.2944170">
        <ele>873.2</ele>
        <time>2019-08-17T09:26:44Z</time>
      </trkpt>
      <trkpt lat="41.9846270" lon="-7.2945090">
        <ele>873.3</ele>
        <time>2019-08-17T09:26:45Z</time>
      </trkpt>
      <trkpt lat="41.9846240" lon="-7.2945990">
        <ele>873.5</ele>
        <time>2019-08-17T09:26:46Z</time>
      </trkpt>
      <trkpt lat="41.9846200" lon="-7.2946870">
        <ele>873.6</ele>
        <time>2019-08-17T09:26:47Z</time>
      </trkpt>
      <trkpt lat="41.9846170" lon="-7.2947730">
        <ele>873.8</ele>
        <time>2019-08-17T09:26:48Z</time>
      </trkpt>
      <trkpt lat="41.9846130" lon="-7.2948570">
        <ele>873.9</ele>
        <time>2019-08-17T09:26:49Z</time>
      </trkpt>
      <trkpt lat="41.9846090" lon="-7.2949380">
        <ele>874.2</ele>
        <time>2019-08-17T09:26:50Z</time>
      </trkpt>
      <trkpt lat="41.9846050" lon="-7.2950160">
        <ele>874.4</ele>
        <time>2019-08-17T09:26:51Z</time>
      </trkpt>
      <trkpt lat="41.9846010" lon="-7.2950920">
        <ele>874.6</ele>
        <time>2019-08-17T09:26:52Z</time>
      </trkpt>
      <trkpt lat="41.9845960" lon="-7.2951650">
        <ele>874.8</ele>
        <time>2019-08-17T09:26:53Z</time>
      </trkpt>
      <trkpt lat="41.9845910" lon="-7.2952350">
        <ele>875.1</ele>
        <time>2019-08-17T09:26:54Z</time>
      </trkpt>
      <trkpt lat="41.9845860" lon="-7.2953030">
        <ele>875.3</ele>
        <time>2019-08-17T09:26:55Z</time>
      </trkpt>
      <trkpt lat="41.9845810" lon="-7.2953690">
        <ele>875.5</ele>
        <time>2019-08-17T09:26:56Z</time>
      </trkpt>
      <trkpt lat="41.9845760" lon="-7.2954330">
        <ele>875.7</ele>
        <time>2019-08-17T09:26:57Z</time>
      </trkpt>
      <trkpt lat="41.9845700" lon="-7.2954960">
        <ele>875.9</ele>
        <time>2019-08-17T09:26:58Z</time>
      </trkpt>
      <trkpt lat="41.9845640" lon="-7.2955560">
        <ele>876.2</ele>
        <time>2019-08-17T09:26:59Z</time>
      </trkpt>
      <trkpt lat="41.9845580" lon="-7.2956150">
        <ele>876.5</ele>
        <time>2019-08-17T09:27:00Z</time>
      </trkpt>
      <trkpt lat="41.9845520" lon="-7.2956720">
        <ele>876.8</ele>
        <time>2019-08-17T09:27:01Z</time>
      </trkpt>
      <trkpt lat="41.9845450" lon="-7.2957280">
        <ele>877.0</ele>
        <time>2019-08-17T09:27:02Z</time>
      </trkpt>
      <trkpt lat="41.9845380" lon="-7.2957830">
        <ele>877.3</ele>
        <time>2019-08-17T09:27:03Z</time>
      </trkpt>
      <trkpt lat="41.9845290" lon="-7.2958370">
        <ele>877.5</ele>
        <time>2019-08-17T09:27:04Z</time>
      </trkpt>
      <trkpt lat="41.9845200" lon="-7.2958890">
        <ele>877.8</ele>
        <time>2019-08-17T09:27:05Z</time>
      </trkpt>
      <trkpt lat="41.9845100" lon="-7.2959410">
        <ele>878.0</ele>
        <time>2019-08-17T09:27:06Z</time>
      </trkpt>
      <trkpt lat="41.9844990" lon="-7.2959920">
        <ele>878.2</ele>
        <time>2019-08-17T09:27:07Z</time>
      </trkpt>
      <trkpt lat="41.9844880" lon="-7.2960420">
        <ele>878.4</ele>
        <time>2019-08-17T09:27:08Z</time>
      </trkpt>
      <trkpt lat="41.9844750" lon="-7.2960920">
        <ele>878.6</ele>
        <time>2019-08-17T09:27:09Z</time>
      </trkpt>
      <trkpt lat="41.9844630" lon="-7.2961410">
        <ele>878.8</ele>
        <time>2019-08-17T09:27:10Z</time>
      </trkpt>
      <trkpt lat="41.9844500" lon="-7.2961890">
        <ele>879.0</ele>
        <time>2019-08-17T09:27:11Z</time>
      </trkpt>
      <trkpt lat="41.9844370" lon="-7.2962370">
        <ele>879.2</ele>
        <time>2019-08-17T09:27:12Z</time>
      </trkpt>
      <trkpt lat="41.9844240" lon="-7.2962850">
        <ele>879.4</ele>
        <time>2019-08-17T09:27:13Z</time>
      </trkpt>
      <trkpt lat="41.9844110" lon="-7.2963320">
        <ele>879.7</ele>
        <time>2019-08-17T09:27:14Z</time>
      </trkpt>
      <trkpt lat="41.9843980" lon="-7.2963790">
        <ele>879.9</ele>
        <time>2019-08-17T09:27:15Z</time>
      </trkpt>
      <trkpt lat="41.9843860" lon="-7.2964260">
        <ele>880.1</ele>
        <time>2019-08-17T09:27:16Z</time>
      </trkpt>
      <trkpt lat="41.9843740" lon="-7.2964730">
        <ele>880.3</ele>
        <time>2019-08-17T09:27:17Z</time>
      </trkpt>
      <trkpt lat="41.9843630" lon="-7.2965200">
        <ele>880.5</ele>
        <time>2019-08-17T09:27:18Z</time>
      </trkpt>
      <trkpt lat="41.9843520" lon="-7.2965660">
        <ele>880.7</ele>
        <time>2019-08-17T09:27:19Z</time>
      </trkpt>
      <trkpt lat="41.9843420" lon="-7.2966130">
        <ele>880.9</ele>
        <time>2019-08-17T09:27:20Z</time>
      </trkpt>
      <trkpt lat="41.9843330" lon="-7.2966600">
        <ele>881.1</ele>
        <time>2019-08-17T09:27:21Z</time>
      </trkpt>
      <trkpt lat="41.9843250" lon="-7.2967070">
        <ele>881.3</ele>
        <time>2019-08-17T09:27:22Z</time>
      </trkpt>
      <trkpt lat="41.9843180" lon="-7.2967540">
        <ele>881.5</ele>
        <time>2019-08-17T09:27:23Z</time>
      </trkpt>
      <trkpt lat="41.9843110" lon="-7.2968020">
        <ele>881.9</ele>
        <time>2019-08-17T09:27:24Z</time>
      </trkpt>
      <trkpt lat="41.9843040" lon="-7.2968490">
        <ele>882.1</ele>
        <time>2019-08-17T09:27:25Z</time>
      </trkpt>
      <trkpt lat="41.9842990" lon="-7.2968970">
        <ele>882.3</ele>
        <time>2019-08-17T09:27:26Z</time>
      </trkpt>
      <trkpt lat="41.9842940" lon="-7.2969450">
        <ele>882.5</ele>
        <time>2019-08-17T09:27:27Z</time>
      </trkpt>
      <trkpt lat="41.9842890" lon="-7.2969930">
        <ele>882.6</ele>
        <time>2019-08-17T09:27:28Z</time>
      </trkpt>
      <trkpt lat="41.9842850" lon="-7.2970410">
        <ele>882.8</ele>
        <time>2019-08-17T09:27:29Z</time>
      </trkpt>
      <trkpt lat="41.9842820" lon="-7.2970900">
        <ele>883.0</ele>
        <time>2019-08-17T09:27:30Z</time>
      </trkpt>
      <trkpt lat="41.9842790" lon="-7.2971390">
        <ele>883.1</ele>
        <time>2019-08-17T09:27:31Z</time>
      </trkpt>
      <trkpt lat="41.9842760" lon="-7.2971880">
        <ele>883.1</ele>
        <time>2019-08-17T09:27:32Z</time>
      </trkpt>
      <trkpt lat="41.9842740" lon="-7.2972380">
        <ele>883.2</ele>
        <time>2019-08-17T09:27:33Z</time>
      </trkpt>
      <trkpt lat="41.9842720" lon="-7.2972880">
        <ele>883.3</ele>
        <time>2019-08-17T09:27:34Z</time>
      </trkpt>
      <trkpt lat="41.9842710" lon="-7.2973390">
        <ele>883.4</ele>
        <time>2019-08-17T09:27:35Z</time>
      </trkpt>
      <trkpt lat="41.9842700" lon="-7.2973900">
        <ele>883.5</ele>
        <time>2019-08-17T09:27:36Z</time>
      </trkpt>
      <trkpt lat="41.9842700" lon="-7.2974410">
        <ele>883.6</ele>
        <time>2019-08-17T09:27:37Z</time>
      </trkpt>
      <trkpt lat="41.9842690" lon="-7.2974930">
        <ele>883.7</ele>
        <time>2019-08-17T09:27:38Z</time>
      </trkpt>
      <trkpt lat="41.9842690" lon="-7.2975460">
        <ele>883.9</ele>
        <time>2019-08-17T09:27:39Z</time>
      </trkpt>
      <trkpt lat="41.9842690" lon="-7.2975990">
        <ele>884.0</ele>
        <time>2019-08-17T09:27:40Z</time>
      </trkpt>
      <trkpt lat="41.9842690" lon="-7.2976540">
        <ele>884.1</ele>
        <time>2019-08-17T09:27:41Z</time>
      </trkpt>
      <trkpt lat="41.9842690" lon="-7.2977080">
        <ele>884.3</ele>
        <time>2019-08-17T09:27:42Z</time>
      </trkpt>
      <trkpt lat="41.9842690" lon="-7.2977640">
        <ele>884.4</ele>
        <time>2019-08-17T09:27:43Z</time>
      </trkpt>
      <trkpt lat="41.9842700" lon="-7.2978210">
        <ele>884.6</ele>
        <time>2019-08-17T09:27:44Z</time>
      </trkpt>
      <trkpt lat="41.9842700" lon="-7.2978780">
        <ele>884.9</ele>
        <time>2019-08-17T09:27:45Z</time>
      </trkpt>
      <trkpt lat="41.9842700" lon="-7.2979360">
        <ele>885.1</ele>
        <time>2019-08-17T09:27:46Z</time>
      </trkpt>
      <trkpt lat="41.9842700" lon="-7.2979950">
        <ele>885.2</ele>
        <time>2019-08-17T09:27:47Z</time>
      </trkpt>
      <trkpt lat="41.9842700" lon="-7.2980550">
        <ele>885.4</ele>
        <time>2019-08-17T09:27:48Z</time>
      </trkpt>
      <trkpt lat="41.9842700" lon="-7.2981160">
        <ele>885.5</ele>
        <time>2019-08-17T09:27:49Z</time>
      </trkpt>
      <trkpt lat="41.9842700" lon="-7.2981780">
        <ele>885.7</ele>
        <time>2019-08-17T09:27:50Z</time>
      </trkpt>
      <trkpt lat="41.9842700" lon="-7.2982400">
        <ele>885.8</ele>
        <time>2019-08-17T09:27:51Z</time>
      </trkpt>
      <trkpt lat="41.9842700" lon="-7.2983030">
        <ele>885.9</ele>
        <time>2019-08-17T09:27:52Z</time>
      </trkpt>
      <trkpt lat="41.9842700" lon="-7.2983670">
        <ele>886.1</ele>
        <time>2019-08-17T09:27:53Z</time>
      </trkpt>
      <trkpt lat="41.9842700" lon="-7.2984320">
        <ele>886.2</ele>
        <time>2019-08-17T09:27:54Z</time>
      </trkpt>
      <trkpt lat="41.9842700" lon="-7.2984960">
        <ele>886.2</ele>
        <time>2019-08-17T09:27:55Z</time>
      </trkpt>
      <trkpt lat="41.9842710" lon="-7.2985610">
        <ele>886.3</ele>
        <time>2019-08-17T09:27:56Z</time>
      </trkpt>
      <trkpt lat="41.9842710" lon="-7.2986270">
        <ele>886.4</ele>
        <time>2019-08-17T09:27:57Z</time>
      </trkpt>
      <trkpt lat="41.9842710" lon="-7.2986920">
        <ele>886.4</ele>
        <time>2019-08-17T09:27:58Z</time>
      </trkpt>
      <trkpt lat="41.9842720" lon="-7.2987570">
        <ele>886.4</ele>
        <time>2019-08-17T09:27:59Z</time>
      </trkpt>
      <trkpt lat="41.9842720" lon="-7.2988230">
        <ele>886.4</ele>
        <time>2019-08-17T09:28:00Z</time>
      </trkpt>
      <trkpt lat="41.9842720" lon="-7.2988880">
        <ele>886.5</ele>
        <time>2019-08-17T09:28:01Z</time>
      </trkpt>
      <trkpt lat="41.9842730" lon="-7.2989530">
        <ele>886.6</ele>
        <time>2019-08-17T09:28:02Z</time>
      </trkpt>
      <trkpt lat="41.9842730" lon="-7.2990180">
        <ele>886.7</ele>
        <time>2019-08-17T09:28:03Z</time>
      </trkpt>
      <trkpt lat="41.9842740" lon="-7.2990830">
        <ele>886.8</ele>
        <time>2019-08-17T09:28:04Z</time>
      </trkpt>
      <trkpt lat="41.9842740" lon="-7.2991480">
        <ele>886.9</ele>
        <time>2019-08-17T09:28:05Z</time>
      </trkpt>
      <trkpt lat="41.9842740" lon="-7.2992130">
        <ele>887.0</ele>
        <time>2019-08-17T09:28:06Z</time>
      </trkpt>
      <trkpt lat="41.9842750" lon="-7.2992790">
        <ele>887.2</ele>
        <time>2019-08-17T09:28:07Z</time>
      </trkpt>
      <trkpt lat="41.9842750" lon="-7.2993450">
        <ele>887.2</ele>
        <time>2019-08-17T09:28:08Z</time>
      </trkpt>
      <trkpt lat="41.9842760" lon="-7.2994110">
        <ele>887.3</ele>
        <time>2019-08-17T09:28:09Z</time>
      </trkpt>
      <trkpt lat="41.9842760" lon="-7.2994780">
        <ele>887.4</ele>
        <time>2019-08-17T09:28:10Z</time>
      </trkpt>
      <trkpt lat="41.9842760" lon="-7.2995450">
        <ele>887.4</ele>
        <time>2019-08-17T09:28:11Z</time>
      </trkpt>
      <trkpt lat="41.9842760" lon="-7.2996130">
        <ele>887.5</ele>
        <time>2019-08-17T09:28:12Z</time>
      </trkpt>
      <trkpt lat="41.9842770" lon="-7.2996810">
        <ele>887.5</ele>
        <time>2019-08-17T09:28:13Z</time>
      </trkpt>
      <trkpt lat="41.9842770" lon="-7.2997500">
        <ele>887.6</ele>
        <time>2019-08-17T09:28:14Z</time>
      </trkpt>
      <trkpt lat="41.9842770" lon="-7.2998200">
        <ele>887.6</ele>
        <time>2019-08-17T09:28:15Z</time>
      </trkpt>
      <trkpt lat="41.9842770" lon="-7.2998900">
        <ele>887.6</ele>
        <time>2019-08-17T09:28:16Z</time>
      </trkpt>
      <trkpt lat="41.9842770" lon="-7.2999610">
        <ele>887.6</ele>
        <time>2019-08-17T09:28:17Z</time>
      </trkpt>
      <trkpt lat="41.9842770" lon="-7.3000330">
        <ele>887.6</ele>
        <time>2019-08-17T09:28:18Z</time>
      </trkpt>
      <trkpt lat="41.9842760" lon="-7.3001060">
        <ele>887.5</ele>
        <time>2019-08-17T09:28:19Z</time>
      </trkpt>
      <trkpt lat="41.9842760" lon="-7.3001790">
        <ele>887.5</ele>
        <time>2019-08-17T09:28:20Z</time>
      </trkpt>
      <trkpt lat="41.9842760" lon="-7.3002530">
        <ele>887.5</ele>
        <time>2019-08-17T09:28:21Z</time>
      </trkpt>
      <trkpt lat="41.9842750" lon="-7.3003280">
        <ele>887.6</ele>
        <time>2019-08-17T09:28:22Z</time>
      </trkpt>
      <trkpt lat="41.9842740" lon="-7.3004040">
        <ele>887.6</ele>
        <time>2019-08-17T09:28:23Z</time>
      </trkpt>
      <trkpt lat="41.9842740" lon="-7.3004800">
        <ele>887.6</ele>
        <time>2019-08-17T09:28:24Z</time>
      </trkpt>
      <trkpt lat="41.9842730" lon="-7.3005570">
        <ele>887.6</ele>
        <time>2019-08-17T09:28:25Z</time>
      </trkpt>
      <trkpt lat="41.9842720" lon="-7.3006360">
        <ele>887.6</ele>
        <time>2019-08-17T09:28:26Z</time>
      </trkpt>
      <trkpt lat="41.9842710" lon="-7.3007150">
        <ele>887.6</ele>
        <time>2019-08-17T09:28:27Z</time>
      </trkpt>
      <trkpt lat="41.9842700" lon="-7.3007950">
        <ele>887.6</ele>
        <time>2019-08-17T09:28:28Z</time>
      </trkpt>
      <trkpt lat="41.9842690" lon="-7.3008760">
        <ele>887.6</ele>
        <time>2019-08-17T09:28:29Z</time>
      </trkpt>
      <trkpt lat="41.9842680" lon="-7.3009590">
        <ele>887.7</ele>
        <time>2019-08-17T09:28:30Z</time>
      </trkpt>
      <trkpt lat="41.9842680" lon="-7.3010430">
        <ele>887.8</ele>
        <time>2019-08-17T09:28:31Z</time>
      </trkpt>
      <trkpt lat="41.9842670" lon="-7.3011280">
        <ele>887.7</ele>
        <time>2019-08-17T09:28:32Z</time>
      </trkpt>
      <trkpt lat="41.9842670" lon="-7.3012160">
        <ele>887.6</ele>
        <time>2019-08-17T09:28:33Z</time>
      </trkpt>
      <trkpt lat="41.9842680" lon="-7.3013050">
        <ele>887.5</ele>
        <time>2019-08-17T09:28:34Z</time>
      </trkpt>
      <trkpt lat="41.9842690" lon="-7.3013960">
        <ele>887.3</ele>
        <time>2019-08-17T09:28:35Z</time>
      </trkpt>
      <trkpt lat="41.9842700" lon="-7.3014890">
        <ele>887.2</ele>
        <time>2019-08-17T09:28:36Z</time>
      </trkpt>
      <trkpt lat="41.9842710" lon="-7.3015830">
        <ele>887.1</ele>
        <time>2019-08-17T09:28:37Z</time>
      </trkpt>
      <trkpt lat="41.9842720" lon="-7.3016790">
        <ele>887.0</ele>
        <time>2019-08-17T09:28:38Z</time>
      </trkpt>
      <trkpt lat="41.9842720" lon="-7.3017750">
        <ele>886.9</ele>
        <time>2019-08-17T09:28:39Z</time>
      </trkpt>
      <trkpt lat="41.9842720" lon="-7.3018720">
        <ele>886.8</ele>
        <time>2019-08-17T09:28:40Z</time>
      </trkpt>
      <trkpt lat="41.9842720" lon="-7.3019690">
        <ele>886.7</ele>
        <time>2019-08-17T09:28:41Z</time>
      </trkpt>
      <trkpt lat="41.9842710" lon="-7.3020640">
        <ele>886.5</ele>
        <time>2019-08-17T09:28:42Z</time>
      </trkpt>
      <trkpt lat="41.9842700" lon="-7.3021580">
        <ele>886.2</ele>
        <time>2019-08-17T09:28:43Z</time>
      </trkpt>
      <trkpt lat="41.9842690" lon="-7.3022480">
        <ele>886.0</ele>
        <time>2019-08-17T09:28:44Z</time>
      </trkpt>
      <trkpt lat="41.9842670" lon="-7.3023370">
        <ele>885.8</ele>
        <time>2019-08-17T09:28:45Z</time>
      </trkpt>
      <trkpt lat="41.9842650" lon="-7.3024250">
        <ele>885.5</ele>
        <time>2019-08-17T09:28:46Z</time>
      </trkpt>
      <trkpt lat="41.9842620" lon="-7.3025140">
        <ele>885.3</ele>
        <time>2019-08-17T09:28:47Z</time>
      </trkpt>
      <trkpt lat="41.9842600" lon="-7.3026030">
        <ele>885.1</ele>
        <time>2019-08-17T09:28:48Z</time>
      </trkpt>
      <trkpt lat="41.9842580" lon="-7.3026890">
        <ele>884.9</ele>
        <time>2019-08-17T09:28:49Z</time>
      </trkpt>
      <trkpt lat="41.9842570" lon="-7.3027720">
        <ele>884.8</ele>
        <time>2019-08-17T09:28:50Z</time>
      </trkpt>
      <trkpt lat="41.9842590" lon="-7.3028500">
        <ele>884.7</ele>
        <time>2019-08-17T09:28:51Z</time>
      </trkpt>
      <trkpt lat="41.9842620" lon="-7.3029270">
        <ele>884.6</ele>
        <time>2019-08-17T09:28:52Z</time>
      </trkpt>
      <trkpt lat="41.9842650" lon="-7.3030040">
        <ele>884.5</ele>
        <time>2019-08-17T09:28:53Z</time>
      </trkpt>
      <trkpt lat="41.9842670" lon="-7.3030850">
        <ele>884.4</ele>
        <time>2019-08-17T09:28:54Z</time>
      </trkpt>
      <trkpt lat="41.9842680" lon="-7.3031700">
        <ele>884.4</ele>
        <time>2019-08-17T09:28:55Z</time>
      </trkpt>
      <trkpt lat="41.9842670" lon="-7.3032580">
        <ele>884.3</ele>
        <time>2019-08-17T09:28:56Z</time>
      </trkpt>
      <trkpt lat="41.9842660" lon="-7.3033480">
        <ele>884.2</ele>
        <time>2019-08-17T09:28:57Z</time>
      </trkpt>
      <trkpt lat="41.9842640" lon="-7.3034390">
        <ele>884.2</ele>
        <time>2019-08-17T09:28:58Z</time>
      </trkpt>
      <trkpt lat="41.9842620" lon="-7.3035310">
        <ele>884.1</ele>
        <time>2019-08-17T09:28:59Z</time>
      </trkpt>
      <trkpt lat="41.9842590" lon="-7.3036240">
        <ele>884.0</ele>
        <time>2019-08-17T09:29:00Z</time>
      </trkpt>
      <trkpt lat="41.9842570" lon="-7.3037160">
        <ele>884.0</ele>
        <time>2019-08-17T09:29:01Z</time>
      </trkpt>
      <trkpt lat="41.9842530" lon="-7.3038070">
        <ele>883.9</ele>
        <time>2019-08-17T09:29:02Z</time>
      </trkpt>
      <trkpt lat="41.9842490" lon="-7.3038980">
        <ele>883.9</ele>
        <time>2019-08-17T09:29:03Z</time>
      </trkpt>
      <trkpt lat="41.9842440" lon="-7.3039880">
        <ele>883.8</ele>
        <time>2019-08-17T09:29:04Z</time>
      </trkpt>
      <trkpt lat="41.9842360" lon="-7.3040780">
        <ele>883.7</ele>
        <time>2019-08-17T09:29:05Z</time>
      </trkpt>
      <trkpt lat="41.9842270" lon="-7.3041670">
        <ele>883.6</ele>
        <time>2019-08-17T09:29:06Z</time>
      </trkpt>
      <trkpt lat="41.9842160" lon="-7.3042560">
        <ele>883.5</ele>
        <time>2019-08-17T09:29:07Z</time>
      </trkpt>
      <trkpt lat="41.9842020" lon="-7.3043450">
        <ele>883.4</ele>
        <time>2019-08-17T09:29:08Z</time>
      </trkpt>
      <trkpt lat="41.9841850" lon="-7.3044350">
        <ele>883.2</ele>
        <time>2019-08-17T09:29:09Z</time>
      </trkpt>
      <trkpt lat="41.9841660" lon="-7.3045240">
        <ele>883.1</ele>
        <time>2019-08-17T09:29:10Z</time>
      </trkpt>
      <trkpt lat="41.9841440" lon="-7.3046150">
        <ele>882.9</ele>
        <time>2019-08-17T09:29:11Z</time>
      </trkpt>
      <trkpt lat="41.9841200" lon="-7.3047060">
        <ele>882.8</ele>
        <time>2019-08-17T09:29:12Z</time>
      </trkpt>
      <trkpt lat="41.9840930" lon="-7.3047990">
        <ele>882.6</ele>
        <time>2019-08-17T09:29:13Z</time>
      </trkpt>
      <trkpt lat="41.9840640" lon="-7.3048940">
        <ele>882.5</ele>
        <time>2019-08-17T09:29:14Z</time>
      </trkpt>
      <trkpt lat="41.9840320" lon="-7.3049900">
        <ele>882.4</ele>
        <time>2019-08-17T09:29:15Z</time>
      </trkpt>
      <trkpt lat="41.9840000" lon="-7.3050870">
        <ele>882.2</ele>
        <time>2019-08-17T09:29:16Z</time>
      </trkpt>
      <trkpt lat="41.9839680" lon="-7.3051860">
        <ele>882.1</ele>
        <time>2019-08-17T09:29:17Z</time>
      </trkpt>
      <trkpt lat="41.9839370" lon="-7.3052870">
        <ele>881.9</ele>
        <time>2019-08-17T09:29:18Z</time>
      </trkpt>
      <trkpt lat="41.9839070" lon="-7.3053890">
        <ele>881.7</ele>
        <time>2019-08-17T09:29:19Z</time>
      </trkpt>
      <trkpt lat="41.9838810" lon="-7.3054920">
        <ele>881.4</ele>
        <time>2019-08-17T09:29:20Z</time>
      </trkpt>
      <trkpt lat="41.9838570" lon="-7.3055970">
        <ele>881.1</ele>
        <time>2019-08-17T09:29:21Z</time>
      </trkpt>
      <trkpt lat="41.9838380" lon="-7.3057030">
        <ele>880.7</ele>
        <time>2019-08-17T09:29:22Z</time>
      </trkpt>
      <trkpt lat="41.9838220" lon="-7.3058090">
        <ele>880.3</ele>
        <time>2019-08-17T09:29:23Z</time>
      </trkpt>
      <trkpt lat="41.9838100" lon="-7.3059160">
        <ele>879.9</ele>
        <time>2019-08-17T09:29:24Z</time>
      </trkpt>
      <trkpt lat="41.9838020" lon="-7.3060230">
        <ele>879.5</ele>
        <time>2019-08-17T09:29:25Z</time>
      </trkpt>
      <trkpt lat="41.9837990" lon="-7.3061300">
        <ele>879.1</ele>
        <time>2019-08-17T09:29:26Z</time>
      </trkpt>
      <trkpt lat="41.9837990" lon="-7.3062350">
        <ele>878.6</ele>
        <time>2019-08-17T09:29:27Z</time>
      </trkpt>
      <trkpt lat="41.9838030" lon="-7.3063400">
        <ele>878.2</ele>
        <time>2019-08-17T09:29:28Z</time>
      </trkpt>
      <trkpt lat="41.9838110" lon="-7.3064440">
        <ele>877.8</ele>
        <time>2019-08-17T09:29:29Z</time>
      </trkpt>
      <trkpt lat="41.9838210" lon="-7.3065460">
        <ele>877.4</ele>
        <time>2019-08-17T09:29:30Z</time>
      </trkpt>
      <trkpt lat="41.9838330" lon="-7.3066470">
        <ele>877.0</ele>
        <time>2019-08-17T09:29:31Z</time>
      </trkpt>
      <trkpt lat="41.9838450" lon="-7.3067450">
        <ele>876.6</ele>
        <time>2019-08-17T09:29:32Z</time>
      </trkpt>
      <trkpt lat="41.9838580" lon="-7.3068420">
        <ele>876.4</ele>
        <time>2019-08-17T09:29:33Z</time>
      </trkpt>
      <trkpt lat="41.9838690" lon="-7.3069370">
        <ele>876.1</ele>
        <time>2019-08-17T09:29:34Z</time>
      </trkpt>
      <trkpt lat="41.9838790" lon="-7.3070290">
        <ele>875.9</ele>
        <time>2019-08-17T09:29:35Z</time>
      </trkpt>
      <trkpt lat="41.9838880" lon="-7.3071210">
        <ele>875.8</ele>
        <time>2019-08-17T09:29:36Z</time>
      </trkpt>
      <trkpt lat="41.9838930" lon="-7.3072110">
        <ele>875.6</ele>
        <time>2019-08-17T09:29:37Z</time>
      </trkpt>
      <trkpt lat="41.9838950" lon="-7.3073010">
        <ele>875.5</ele>
        <time>2019-08-17T09:29:38Z</time>
      </trkpt>
      <trkpt lat="41.9838940" lon="-7.3073910">
        <ele>875.3</ele>
        <time>2019-08-17T09:29:39Z</time>
      </trkpt>
      <trkpt lat="41.9838880" lon="-7.3074820">
        <ele>875.2</ele>
        <time>2019-08-17T09:29:40Z</time>
      </trkpt>
      <trkpt lat="41.9838780" lon="-7.3075730">
        <ele>875.0</ele>
        <time>2019-08-17T09:29:41Z</time>
      </trkpt>
      <trkpt lat="41.9838630" lon="-7.3076650">
        <ele>874.9</ele>
        <time>2019-08-17T09:29:42Z</time>
      </trkpt>
      <trkpt lat="41.9838430" lon="-7.3077580">
        <ele>874.6</ele>
        <time>2019-08-17T09:29:43Z</time>
      </trkpt>
      <trkpt lat="41.9838190" lon="-7.3078510">
        <ele>874.3</ele>
        <time>2019-08-17T09:29:44Z</time>
      </trkpt>
      <trkpt lat="41.9837910" lon="-7.3079440">
        <ele>874.0</ele>
        <time>2019-08-17T09:29:45Z</time>
      </trkpt>
      <trkpt lat="41.9837590" lon="-7.3080370">
        <ele>873.6</ele>
        <time>2019-08-17T09:29:46Z</time>
      </trkpt>
      <trkpt lat="41.9837230" lon="-7.3081300">
        <ele>873.3</ele>
        <time>2019-08-17T09:29:47Z</time>
      </trkpt>
      <trkpt lat="41.9836830" lon="-7.3082220">
        <ele>873.0</ele>
        <time>2019-08-17T09:29:48Z</time>
      </trkpt>
      <trkpt lat="41.9836410" lon="-7.3083140">
        <ele>872.7</ele>
        <time>2019-08-17T09:29:49Z</time>
      </trkpt>
      <trkpt lat="41.9835960" lon="-7.3084050">
        <ele>872.4</ele>
        <time>2019-08-17T09:29:50Z</time>
      </trkpt>
      <trkpt lat="41.9835490" lon="-7.3084970">
        <ele>872.1</ele>
        <time>2019-08-17T09:29:51Z</time>
      </trkpt>
      <trkpt lat="41.9835010" lon="-7.3085880">
        <ele>871.8</ele>
        <time>2019-08-17T09:29:52Z</time>
      </trkpt>
      <trkpt lat="41.9834520" lon="-7.3086790">
        <ele>871.5</ele>
        <time>2019-08-17T09:29:53Z</time>
      </trkpt>
      <trkpt lat="41.9834040" lon="-7.3087700">
        <ele>871.2</ele>
        <time>2019-08-17T09:29:54Z</time>
      </trkpt>
      <trkpt lat="41.9833550" lon="-7.3088610">
        <ele>870.9</ele>
        <time>2019-08-17T09:29:55Z</time>
      </trkpt>
      <trkpt lat="41.9833080" lon="-7.3089530">
        <ele>870.6</ele>
        <time>2019-08-17T09:29:56Z</time>
      </trkpt>
      <trkpt lat="41.9832600" lon="-7.3090440">
        <ele>870.2</ele>
        <time>2019-08-17T09:29:57Z</time>
      </trkpt>
      <trkpt lat="41.9832130" lon="-7.3091360">
        <ele>869.9</ele>
        <time>2019-08-17T09:29:58Z</time>
      </trkpt>
      <trkpt lat="41.9831660" lon="-7.3092280">
        <ele>869.6</ele>
        <time>2019-08-17T09:29:59Z</time>
      </trkpt>
      <trkpt lat="41.9831190" lon="-7.3093210">
        <ele>869.2</ele>
        <time>2019-08-17T09:30:00Z</time>
      </trkpt>
      <trkpt lat="41.9830720" lon="-7.3094130">
        <ele>868.9</ele>
        <time>2019-08-17T09:30:01Z</time>
      </trkpt>
      <trkpt lat="41.9830260" lon="-7.3095060">
        <ele>868.4</ele>
        <time>2019-08-17T09:30:02Z</time>
      </trkpt>
      <trkpt lat="41.9829790" lon="-7.3095990">
        <ele>867.9</ele>
        <time>2019-08-17T09:30:03Z</time>
      </trkpt>
      <trkpt lat="41.9829320" lon="-7.3096930">
        <ele>867.4</ele>
        <time>2019-08-17T09:30:04Z</time>
      </trkpt>
      <trkpt lat="41.9828860" lon="-7.3097870">
        <ele>867.0</ele>
        <time>2019-08-17T09:30:05Z</time>
      </trkpt>
      <trkpt lat="41.9828390" lon="-7.3098810">
        <ele>866.5</ele>
        <time>2019-08-17T09:30:06Z</time>
      </trkpt>
      <trkpt lat="41.9827930" lon="-7.3099750">
        <ele>866.0</ele>
        <time>2019-08-17T09:30:07Z</time>
      </trkpt>
      <trkpt lat="41.9827470" lon="-7.3100700">
        <ele>865.5</ele>
        <time>2019-08-17T09:30:08Z</time>
      </trkpt>
      <trkpt lat="41.9827010" lon="-7.3101650">
        <ele>865.2</ele>
        <time>2019-08-17T09:30:09Z</time>
      </trkpt>
      <trkpt lat="41.9826560" lon="-7.3102600">
        <ele>864.8</ele>
        <time>2019-08-17T09:30:10Z</time>
      </trkpt>
      <trkpt lat="41.9826110" lon="-7.3103560">
        <ele>864.5</ele>
        <time>2019-08-17T09:30:11Z</time>
      </trkpt>
      <trkpt lat="41.9825670" lon="-7.3104510">
        <ele>864.3</ele>
        <time>2019-08-17T09:30:12Z</time>
      </trkpt>
      <trkpt lat="41.9825250" lon="-7.3105470">
        <ele>864.1</ele>
        <time>2019-08-17T09:30:13Z</time>
      </trkpt>
      <trkpt lat="41.9824830" lon="-7.3106430">
        <ele>863.9</ele>
        <time>2019-08-17T09:30:14Z</time>
      </trkpt>
      <trkpt lat="41.9824430" lon="-7.3107390">
        <ele>863.7</ele>
        <time>2019-08-17T09:30:15Z</time>
      </trkpt>
      <trkpt lat="41.9824040" lon="-7.3108360">
        <ele>863.5</ele>
        <time>2019-08-17T09:30:16Z</time>
      </trkpt>
      <trkpt lat="41.9823670" lon="-7.3109330">
        <ele>863.3</ele>
        <time>2019-08-17T09:30:17Z</time>
      </trkpt>
      <trkpt lat="41.9823300" lon="-7.3110310">
        <ele>863.0</ele>
        <time>2019-08-17T09:30:18Z</time>
      </trkpt>
      <trkpt lat="41.9822950" lon="-7.3111310">
        <ele>862.7</ele>
        <time>2019-08-17T09:30:19Z</time>
      </trkpt>
      <trkpt lat="41.9822610" lon="-7.3112320">
        <ele>862.4</ele>
        <time>2019-08-17T09:30:20Z</time>
      </trkpt>
      <trkpt lat="41.9822280" lon="-7.3113350">
        <ele>862.1</ele>
        <time>2019-08-17T09:30:21Z</time>
      </trkpt>
      <trkpt lat="41.9821970" lon="-7.3114380">
        <ele>861.8</ele>
        <time>2019-08-17T09:30:22Z</time>
      </trkpt>
      <trkpt lat="41.9821670" lon="-7.3115420">
        <ele>861.4</ele>
        <time>2019-08-17T09:30:23Z</time>
      </trkpt>
      <trkpt lat="41.9821390" lon="-7.3116460">
        <ele>861.2</ele>
        <time>2019-08-17T09:30:24Z</time>
      </trkpt>
      <trkpt lat="41.9821130" lon="-7.3117490">
        <ele>861.0</ele>
        <time>2019-08-17T09:30:25Z</time>
      </trkpt>
      <trkpt lat="41.9820880" lon="-7.3118500">
        <ele>860.8</ele>
        <time>2019-08-17T09:30:26Z</time>
      </trkpt>
      <trkpt lat="41.9820660" lon="-7.3119500">
        <ele>860.7</ele>
        <time>2019-08-17T09:30:27Z</time>
      </trkpt>
      <trkpt lat="41.9820450" lon="-7.3120470">
        <ele>860.6</ele>
        <time>2019-08-17T09:30:28Z</time>
      </trkpt>
      <trkpt lat="41.9820260" lon="-7.3121440">
        <ele>860.5</ele>
        <time>2019-08-17T09:30:29Z</time>
      </trkpt>
      <trkpt lat="41.9820090" lon="-7.3122390">
        <ele>860.4</ele>
        <time>2019-08-17T09:30:30Z</time>
      </trkpt>
      <trkpt lat="41.9819920" lon="-7.3123330">
        <ele>860.5</ele>
        <time>2019-08-17T09:30:31Z</time>
      </trkpt>
      <trkpt lat="41.9819760" lon="-7.3124280">
        <ele>860.6</ele>
        <time>2019-08-17T09:30:32Z</time>
      </trkpt>
      <trkpt lat="41.9819610" lon="-7.3125220">
        <ele>860.6</ele>
        <time>2019-08-17T09:30:33Z</time>
      </trkpt>
      <trkpt lat="41.9819460" lon="-7.3126180">
        <ele>860.7</ele>
        <time>2019-08-17T09:30:34Z</time>
      </trkpt>
      <trkpt lat="41.9819310" lon="-7.3127130">
        <ele>860.8</ele>
        <time>2019-08-17T09:30:35Z</time>
      </trkpt>
      <trkpt lat="41.9819170" lon="-7.3128100">
        <ele>860.8</ele>
        <time>2019-08-17T09:30:36Z</time>
      </trkpt>
      <trkpt lat="41.9819020" lon="-7.3129060">
        <ele>860.9</ele>
        <time>2019-08-17T09:30:37Z</time>
      </trkpt>
      <trkpt lat="41.9818880" lon="-7.3130030">
        <ele>861.0</ele>
        <time>2019-08-17T09:30:38Z</time>
      </trkpt>
      <trkpt lat="41.9818730" lon="-7.3131010">
        <ele>861.0</ele>
        <time>2019-08-17T09:30:39Z</time>
      </trkpt>
      <trkpt lat="41.9818590" lon="-7.3131980">
        <ele>861.1</ele>
        <time>2019-08-17T09:30:40Z</time>
      </trkpt>
      <trkpt lat="41.9818440" lon="-7.3132960">
        <ele>861.2</ele>
        <time>2019-08-17T09:30:41Z</time>
      </trkpt>
      <trkpt lat="41.9818300" lon="-7.3133950">
        <ele>861.3</ele>
        <time>2019-08-17T09:30:42Z</time>
      </trkpt>
      <trkpt lat="41.9818150" lon="-7.3134930">
        <ele>861.4</ele>
        <time>2019-08-17T09:30:43Z</time>
      </trkpt>
      <trkpt lat="41.9818000" lon="-7.3135910">
        <ele>861.5</ele>
        <time>2019-08-17T09:30:44Z</time>
      </trkpt>
      <trkpt lat="41.9817840" lon="-7.3136890">
        <ele>861.6</ele>
        <time>2019-08-17T09:30:45Z</time>
      </trkpt>
      <trkpt lat="41.9817690" lon="-7.3137870">
        <ele>861.7</ele>
        <time>2019-08-17T09:30:46Z</time>
      </trkpt>
      <trkpt lat="41.9817530" lon="-7.3138850">
        <ele>861.8</ele>
        <time>2019-08-17T09:30:47Z</time>
      </trkpt>
      <trkpt lat="41.9817370" lon="-7.3139820">
        <ele>861.9</ele>
        <time>2019-08-17T09:30:48Z</time>
      </trkpt>
      <trkpt lat="41.9817210" lon="-7.3140780">
        <ele>862.0</ele>
        <time>2019-08-17T09:30:49Z</time>
      </trkpt>
      <trkpt lat="41.9817040" lon="-7.3141740">
        <ele>862.1</ele>
        <time>2019-08-17T09:30:50Z</time>
      </trkpt>
      <trkpt lat="41.9816870" lon="-7.3142680">
        <ele>862.2</ele>
        <time>2019-08-17T09:30:51Z</time>
      </trkpt>
      <trkpt lat="41.9816700" lon="-7.3143600">
        <ele>862.3</ele>
        <time>2019-08-17T09:30:52Z</time>
      </trkpt>
      <trkpt lat="41.9816520" lon="-7.3144510">
        <ele>862.4</ele>
        <time>2019-08-17T09:30:53Z</time>
      </trkpt>
      <trkpt lat="41.9816330" lon="-7.3145390">
        <ele>862.5</ele>
        <time>2019-08-17T09:30:54Z</time>
      </trkpt>
      <trkpt lat="41.9816140" lon="-7.3146250">
        <ele>862.6</ele>
        <time>2019-08-17T09:30:55Z</time>
      </trkpt>
      <trkpt lat="41.9815940" lon="-7.3147090">
        <ele>862.7</ele>
        <time>2019-08-17T09:30:56Z</time>
      </trkpt>
      <trkpt lat="41.9815730" lon="-7.3147910">
        <ele>862.8</ele>
        <time>2019-08-17T09:30:57Z</time>
      </trkpt>
      <trkpt lat="41.9815500" lon="-7.3148730">
        <ele>862.8</ele>
        <time>2019-08-17T09:30:58Z</time>
      </trkpt>
      <trkpt lat="41.9815270" lon="-7.3149540">
        <ele>862.9</ele>
        <time>2019-08-17T09:30:59Z</time>
      </trkpt>
      <trkpt lat="41.9815010" lon="-7.3150350">
        <ele>863.0</ele>
        <time>2019-08-17T09:31:00Z</time>
      </trkpt>
      <trkpt lat="41.9814750" lon="-7.3151150">
        <ele>863.0</ele>
        <time>2019-08-17T09:31:01Z</time>
      </trkpt>
      <trkpt lat="41.9814470" lon="-7.3151950">
        <ele>863.1</ele>
        <time>2019-08-17T09:31:02Z</time>
      </trkpt>
      <trkpt lat="41.9814180" lon="-7.3152750">
        <ele>863.1</ele>
        <time>2019-08-17T09:31:03Z</time>
      </trkpt>
      <trkpt lat="41.9813880" lon="-7.3153550">
        <ele>863.2</ele>
        <time>2019-08-17T09:31:04Z</time>
      </trkpt>
      <trkpt lat="41.9813570" lon="-7.3154340">
        <ele>863.2</ele>
        <time>2019-08-17T09:31:05Z</time>
      </trkpt>
      <trkpt lat="41.9813260" lon="-7.3155120">
        <ele>863.2</ele>
        <time>2019-08-17T09:31:06Z</time>
      </trkpt>
      <trkpt lat="41.9812950" lon="-7.3155900">
        <ele>863.2</ele>
        <time>2019-08-17T09:31:07Z</time>
      </trkpt>
      <trkpt lat="41.9812630" lon="-7.3156660">
        <ele>863.3</ele>
        <time>2019-08-17T09:31:08Z</time>
      </trkpt>
      <trkpt lat="41.9812320" lon="-7.3157420">
        <ele>863.3</ele>
        <time>2019-08-17T09:31:09Z</time>
      </trkpt>
      <trkpt lat="41.9812000" lon="-7.3158160">
        <ele>863.3</ele>
        <time>2019-08-17T09:31:10Z</time>
      </trkpt>
      <trkpt lat="41.9811670" lon="-7.3158910">
        <ele>863.2</ele>
        <time>2019-08-17T09:31:11Z</time>
      </trkpt>
      <trkpt lat="41.9811340" lon="-7.3159640">
        <ele>863.2</ele>
        <time>2019-08-17T09:31:12Z</time>
      </trkpt>
      <trkpt lat="41.9810990" lon="-7.3160370">
        <ele>863.1</ele>
        <time>2019-08-17T09:31:13Z</time>
      </trkpt>
      <trkpt lat="41.9810630" lon="-7.3161100">
        <ele>863.0</ele>
        <time>2019-08-17T09:31:14Z</time>
      </trkpt>
      <trkpt lat="41.9810260" lon="-7.3161820">
        <ele>862.9</ele>
        <time>2019-08-17T09:31:15Z</time>
      </trkpt>
      <trkpt lat="41.9809880" lon="-7.3162540">
        <ele>862.8</ele>
        <time>2019-08-17T09:31:16Z</time>
      </trkpt>
      <trkpt lat="41.9809480" lon="-7.3163270">
        <ele>862.7</ele>
        <time>2019-08-17T09:31:17Z</time>
      </trkpt>
      <trkpt lat="41.9809080" lon="-7.3163990">
        <ele>862.6</ele>
        <time>2019-08-17T09:31:18Z</time>
      </trkpt>
      <trkpt lat="41.9808670" lon="-7.3164720">
        <ele>862.6</ele>
        <time>2019-08-17T09:31:19Z</time>
      </trkpt>
      <trkpt lat="41.9808260" lon="-7.3165450">
        <ele>862.5</ele>
        <time>2019-08-17T09:31:20Z</time>
      </trkpt>
      <trkpt lat="41.9807850" lon="-7.3166190">
        <ele>862.4</ele>
        <time>2019-08-17T09:31:21Z</time>
      </trkpt>
      <trkpt lat="41.9807430" lon="-7.3166940">
        <ele>862.3</ele>
        <time>2019-08-17T09:31:22Z</time>
      </trkpt>
      <trkpt lat="41.9807010" lon="-7.3167680">
        <ele>862.2</ele>
        <time>2019-08-17T09:31:23Z</time>
      </trkpt>
      <trkpt lat="41.9806590" lon="-7.3168430">
        <ele>862.2</ele>
        <time>2019-08-17T09:31:24Z</time>
      </trkpt>
      <trkpt lat="41.9806170" lon="-7.3169180">
        <ele>862.1</ele>
        <time>2019-08-17T09:31:25Z</time>
      </trkpt>
      <trkpt lat="41.9805760" lon="-7.3169930">
        <ele>861.9</ele>
        <time>2019-08-17T09:31:26Z</time>
      </trkpt>
      <trkpt lat="41.9805350" lon="-7.3170670">
        <ele>861.8</ele>
        <time>2019-08-17T09:31:27Z</time>
      </trkpt>
      <trkpt lat="41.9804940" lon="-7.3171410">
        <ele>861.7</ele>
        <time>2019-08-17T09:31:28Z</time>
      </trkpt>
      <trkpt lat="41.9804530" lon="-7.3172140">
        <ele>861.5</ele>
        <time>2019-08-17T09:31:29Z</time>
      </trkpt>
      <trkpt lat="41.9804130" lon="-7.3172870">
        <ele>861.3</ele>
        <time>2019-08-17T09:31:30Z</time>
      </trkpt>
      <trkpt lat="41.9803740" lon="-7.3173580">
        <ele>861.1</ele>
        <time>2019-08-17T09:31:31Z</time>
      </trkpt>
      <trkpt lat="41.9803350" lon="-7.3174290">
        <ele>860.9</ele>
        <time>2019-08-17T09:31:32Z</time>
      </trkpt>
      <trkpt lat="41.9802980" lon="-7.3174980">
        <ele>860.7</ele>
        <time>2019-08-17T09:31:33Z</time>
      </trkpt>
      <trkpt lat="41.9802610" lon="-7.3175650">
        <ele>860.6</ele>
        <time>2019-08-17T09:31:34Z</time>
      </trkpt>
      <trkpt lat="41.9802250" lon="-7.3176310">
        <ele>860.3</ele>
        <time>2019-08-17T09:31:35Z</time>
      </trkpt>
      <trkpt lat="41.9801900" lon="-7.3176960">
        <ele>860.1</ele>
        <time>2019-08-17T09:31:36Z</time>
      </trkpt>
      <trkpt lat="41.9801560" lon="-7.3177580">
        <ele>859.9</ele>
        <time>2019-08-17T09:31:37Z</time>
      </trkpt>
      <trkpt lat="41.9801240" lon="-7.3178180">
        <ele>859.8</ele>
        <time>2019-08-17T09:31:38Z</time>
      </trkpt>
      <trkpt lat="41.9800930" lon="-7.3178750">
        <ele>859.6</ele>
        <time>2019-08-17T09:31:39Z</time>
      </trkpt>
      <trkpt lat="41.9800630" lon="-7.3179300">
        <ele>859.5</ele>
        <time>2019-08-17T09:31:40Z</time>
      </trkpt>
      <trkpt lat="41.9800350" lon="-7.3179820">
        <ele>859.4</ele>
        <time>2019-08-17T09:31:41Z</time>
      </trkpt>
      <trkpt lat="41.9800090" lon="-7.3180310">
        <ele>859.3</ele>
        <time>2019-08-17T09:31:42Z</time>
      </trkpt>
      <trkpt lat="41.9799840" lon="-7.3180770">
        <ele>859.3</ele>
        <time>2019-08-17T09:31:43Z</time>
      </trkpt>
      <trkpt lat="41.9799600" lon="-7.3181200">
        <ele>859.3</ele>
        <time>2019-08-17T09:31:44Z</time>
      </trkpt>
      <trkpt lat="41.9799380" lon="-7.3181620">
        <ele>859.3</ele>
        <time>2019-08-17T09:31:45Z</time>
      </trkpt>
      <trkpt lat="41.9799160" lon="-7.3182030">
        <ele>859.3</ele>
        <time>2019-08-17T09:31:46Z</time>
      </trkpt>
      <trkpt lat="41.9798950" lon="-7.3182420">
        <ele>859.4</ele>
        <time>2019-08-17T09:31:47Z</time>
      </trkpt>
      <trkpt lat="41.9798740" lon="-7.3182810">
        <ele>859.5</ele>
        <time>2019-08-17T09:31:48Z</time>
      </trkpt>
      <trkpt lat="41.9798540" lon="-7.3183190">
        <ele>859.6</ele>
        <time>2019-08-17T09:31:49Z</time>
      </trkpt>
      <trkpt lat="41.9798330" lon="-7.3183560">
        <ele>859.7</ele>
        <time>2019-08-17T09:31:50Z</time>
      </trkpt>
      <trkpt lat="41.9798140" lon="-7.3183930">
        <ele>859.8</ele>
        <time>2019-08-17T09:31:51Z</time>
      </trkpt>
      <trkpt lat="41.9797940" lon="-7.3184290">
        <ele>859.9</ele>
        <time>2019-08-17T09:31:52Z</time>
      </trkpt>
      <trkpt lat="41.9797750" lon="-7.3184640">
        <ele>860.1</ele>
        <time>2019-08-17T09:31:53Z</time>
      </trkpt>
      <trkpt lat="41.9797560" lon="-7.3184990">
        <ele>860.3</ele>
        <time>2019-08-17T09:31:54Z</time>
      </trkpt>
      <trkpt lat="41.9797370" lon="-7.3185340">
        <ele>860.4</ele>
        <time>2019-08-17T09:31:55Z</time>
      </trkpt>
      <trkpt lat="41.9797190" lon="-7.3185680">
        <ele>860.6</ele>
        <time>2019-08-17T09:31:56Z</time>
      </trkpt>
      <trkpt lat="41.9797000" lon="-7.3186020">
        <ele>860.7</ele>
        <time>2019-08-17T09:31:57Z</time>
      </trkpt>
      <trkpt lat="41.9796810" lon="-7.3186360">
        <ele>860.8</ele>
        <time>2019-08-17T09:31:58Z</time>
      </trkpt>
      <trkpt lat="41.9796630" lon="-7.3186710">
        <ele>861.0</ele>
        <time>2019-08-17T09:31:59Z</time>
      </trkpt>
      <trkpt lat="41.9796440" lon="-7.3187060">
        <ele>861.2</ele>
        <time>2019-08-17T09:32:00Z</time>
      </trkpt>
      <trkpt lat="41.9796250" lon="-7.3187410">
        <ele>861.3</ele>
        <time>2019-08-17T09:32:01Z</time>
      </trkpt>
      <trkpt lat="41.9796050" lon="-7.3187780">
        <ele>861.5</ele>
        <time>2019-08-17T09:32:02Z</time>
      </trkpt>
      <trkpt lat="41.9795860" lon="-7.3188150">
        <ele>861.6</ele>
        <time>2019-08-17T09:32:03Z</time>
      </trkpt>
      <trkpt lat="41.9795660" lon="-7.3188540">
        <ele>861.8</ele>
        <time>2019-08-17T09:32:04Z</time>
      </trkpt>
      <trkpt lat="41.9795470" lon="-7.3188940">
        <ele>862.0</ele>
        <time>2019-08-17T09:32:05Z</time>
      </trkpt>
      <trkpt lat="41.9795270" lon="-7.3189360">
        <ele>862.2</ele>
        <time>2019-08-17T09:32:06Z</time>
      </trkpt>
      <trkpt lat="41.9795080" lon="-7.3189800">
        <ele>862.3</ele>
        <time>2019-08-17T09:32:07Z</time>
      </trkpt>
      <trkpt lat="41.9794890" lon="-7.3190260">
        <ele>862.5</ele>
        <time>2019-08-17T09:32:08Z</time>
      </trkpt>
      <trkpt lat="41.9794710" lon="-7.3190750">
        <ele>862.6</ele>
        <time>2019-08-17T09:32:09Z</time>
      </trkpt>
      <trkpt lat="41.9794540" lon="-7.3191250">
        <ele>862.7</ele>
        <time>2019-08-17T09:32:10Z</time>
      </trkpt>
      <trkpt lat="41.9794370" lon="-7.3191790">
        <ele>862.9</ele>
        <time>2019-08-17T09:32:11Z</time>
      </trkpt>
      <trkpt lat="41.9794140" lon="-7.3192650">
        <ele>863.1</ele>
        <time>2019-08-17T09:32:12Z</time>
      </trkpt>
      <trkpt lat="41.9794070" lon="-7.3192940">
        <ele>863.1</ele>
        <time>2019-08-17T09:32:13Z</time>
      </trkpt>
      <trkpt lat="41.9793930" lon="-7.3193570">
        <ele>863.2</ele>
        <time>2019-08-17T09:32:14Z</time>
      </trkpt>
      <trkpt lat="41.9793810" lon="-7.3194230">
        <ele>863.3</ele>
        <time>2019-08-17T09:32:15Z</time>
      </trkpt>
      <trkpt lat="41.9793700" lon="-7.3194910">
        <ele>863.4</ele>
        <time>2019-08-17T09:32:16Z</time>
      </trkpt>
      <trkpt lat="41.9793560" lon="-7.3195990">
        <ele>863.5</ele>
        <time>2019-08-17T09:32:17Z</time>
      </trkpt>
      <trkpt lat="41.9793520" lon="-7.3196350">
        <ele>863.5</ele>
        <time>2019-08-17T09:32:18Z</time>
      </trkpt>
      <trkpt lat="41.9793450" lon="-7.3197080">
        <ele>863.6</ele>
        <time>2019-08-17T09:32:19Z</time>
      </trkpt>
      <trkpt lat="41.9793380" lon="-7.3197820">
        <ele>863.7</ele>
        <time>2019-08-17T09:32:20Z</time>
      </trkpt>
      <trkpt lat="41.9793340" lon="-7.3198550">
        <ele>863.8</ele>
        <time>2019-08-17T09:32:21Z</time>
      </trkpt>
      <trkpt lat="41.9793300" lon="-7.3199270">
        <ele>863.9</ele>
        <time>2019-08-17T09:32:22Z</time>
      </trkpt>
      <trkpt lat="41.9793270" lon="-7.3199980">
        <ele>864.0</ele>
        <time>2019-08-17T09:32:23Z</time>
      </trkpt>
      <trkpt lat="41.9793240" lon="-7.3200690">
        <ele>864.1</ele>
        <time>2019-08-17T09:32:24Z</time>
      </trkpt>
      <trkpt lat="41.9793220" lon="-7.3201390">
        <ele>864.3</ele>
        <time>2019-08-17T09:32:25Z</time>
      </trkpt>
      <trkpt lat="41.9793190" lon="-7.3202080">
        <ele>864.4</ele>
        <time>2019-08-17T09:32:26Z</time>
      </trkpt>
      <trkpt lat="41.9793150" lon="-7.3202770">
        <ele>864.5</ele>
        <time>2019-08-17T09:32:27Z</time>
      </trkpt>
      <trkpt lat="41.9793110" lon="-7.3203450">
        <ele>864.6</ele>
        <time>2019-08-17T09:32:28Z</time>
      </trkpt>
      <trkpt lat="41.9793050" lon="-7.3204130">
        <ele>864.7</ele>
        <time>2019-08-17T09:32:29Z</time>
      </trkpt>
      <trkpt lat="41.9792980" lon="-7.3204810">
        <ele>864.8</ele>
        <time>2019-08-17T09:32:30Z</time>
      </trkpt>
      <trkpt lat="41.9792900" lon="-7.3205490">
        <ele>864.8</ele>
        <time>2019-08-17T09:32:31Z</time>
      </trkpt>
      <trkpt lat="41.9792810" lon="-7.3206170">
        <ele>864.9</ele>
        <time>2019-08-17T09:32:32Z</time>
      </trkpt>
      <trkpt lat="41.9792710" lon="-7.3206830">
        <ele>864.9</ele>
        <time>2019-08-17T09:32:33Z</time>
      </trkpt>
      <trkpt lat="41.9792610" lon="-7.3207500">
        <ele>864.8</ele>
        <time>2019-08-17T09:32:34Z</time>
      </trkpt>
      <trkpt lat="41.9792500" lon="-7.3208160">
        <ele>864.8</ele>
        <time>2019-08-17T09:32:35Z</time>
      </trkpt>
      <trkpt lat="41.9792390" lon="-7.3208810">
        <ele>864.8</ele>
        <time>2019-08-17T09:32:36Z</time>
      </trkpt>
      <trkpt lat="41.9792280" lon="-7.3209460">
        <ele>864.7</ele>
        <time>2019-08-17T09:32:37Z</time>
      </trkpt>
      <trkpt lat="41.9792180" lon="-7.3210120">
        <ele>864.6</ele>
        <time>2019-08-17T09:32:38Z</time>
      </trkpt>
      <trkpt lat="41.9792080" lon="-7.3210770">
        <ele>864.5</ele>
        <time>2019-08-17T09:32:39Z</time>
      </trkpt>
      <trkpt lat="41.9791980" lon="-7.3211430">
        <ele>864.4</ele>
        <time>2019-08-17T09:32:40Z</time>
      </trkpt>
      <trkpt lat="41.9791900" lon="-7.3212110">
        <ele>864.2</ele>
        <time>2019-08-17T09:32:41Z</time>
      </trkpt>
      <trkpt lat="41.9791820" lon="-7.3212790">
        <ele>864.1</ele>
        <time>2019-08-17T09:32:42Z</time>
      </trkpt>
      <trkpt lat="41.9791760" lon="-7.3213480">
        <ele>863.9</ele>
        <time>2019-08-17T09:32:43Z</time>
      </trkpt>
      <trkpt lat="41.9791700" lon="-7.3214190">
        <ele>863.8</ele>
        <time>2019-08-17T09:32:44Z</time>
      </trkpt>
      <trkpt lat="41.9791640" lon="-7.3214900">
        <ele>863.6</ele>
        <time>2019-08-17T09:32:45Z</time>
      </trkpt>
      <trkpt lat="41.9791570" lon="-7.3215610">
        <ele>863.5</ele>
        <time>2019-08-17T09:32:46Z</time>
      </trkpt>
      <trkpt lat="41.9791490" lon="-7.3216330">
        <ele>863.3</ele>
        <time>2019-08-17T09:32:47Z</time>
      </trkpt>
      <trkpt lat="41.9791400" lon="-7.3217050">
        <ele>863.2</ele>
        <time>2019-08-17T09:32:48Z</time>
      </trkpt>
      <trkpt lat="41.9791300" lon="-7.3217780">
        <ele>863.0</ele>
        <time>2019-08-17T09:32:49Z</time>
      </trkpt>
      <trkpt lat="41.9791170" lon="-7.3218500">
        <ele>862.9</ele>
        <time>2019-08-17T09:32:50Z</time>
      </trkpt>
      <trkpt lat="41.9791030" lon="-7.3219220">
        <ele>862.8</ele>
        <time>2019-08-17T09:32:51Z</time>
      </trkpt>
      <trkpt lat="41.9790870" lon="-7.3219940">
        <ele>862.7</ele>
        <time>2019-08-17T09:32:52Z</time>
      </trkpt>
      <trkpt lat="41.9790690" lon="-7.3220660">
        <ele>862.6</ele>
        <time>2019-08-17T09:32:53Z</time>
      </trkpt>
      <trkpt lat="41.9790500" lon="-7.3221380">
        <ele>862.5</ele>
        <time>2019-08-17T09:32:54Z</time>
      </trkpt>
      <trkpt lat="41.9790290" lon="-7.3222110">
        <ele>862.4</ele>
        <time>2019-08-17T09:32:55Z</time>
      </trkpt>
      <trkpt lat="41.9790060" lon="-7.3222830">
        <ele>862.3</ele>
        <time>2019-08-17T09:32:56Z</time>
      </trkpt>
      <trkpt lat="41.9789810" lon="-7.3223550">
        <ele>862.1</ele>
        <time>2019-08-17T09:32:57Z</time>
      </trkpt>
      <trkpt lat="41.9789550" lon="-7.3224270">
        <ele>862.0</ele>
        <time>2019-08-17T09:32:58Z</time>
      </trkpt>
      <trkpt lat="41.9789270" lon="-7.3224990">
        <ele>861.9</ele>
        <time>2019-08-17T09:32:59Z</time>
      </trkpt>
      <trkpt lat="41.9788980" lon="-7.3225700">
        <ele>861.8</ele>
        <time>2019-08-17T09:33:00Z</time>
      </trkpt>
      <trkpt lat="41.9788680" lon="-7.3226410">
        <ele>861.6</ele>
        <time>2019-08-17T09:33:01Z</time>
      </trkpt>
      <trkpt lat="41.9788360" lon="-7.3227120">
        <ele>861.4</ele>
        <time>2019-08-17T09:33:02Z</time>
      </trkpt>
      <trkpt lat="41.9788040" lon="-7.3227810">
        <ele>861.1</ele>
        <time>2019-08-17T09:33:03Z</time>
      </trkpt>
      <trkpt lat="41.9787710" lon="-7.3228500">
        <ele>860.8</ele>
        <time>2019-08-17T09:33:04Z</time>
      </trkpt>
      <trkpt lat="41.9787370" lon="-7.3229190">
        <ele>860.5</ele>
        <time>2019-08-17T09:33:05Z</time>
      </trkpt>
      <trkpt lat="41.9787040" lon="-7.3229880">
        <ele>860.2</ele>
        <time>2019-08-17T09:33:06Z</time>
      </trkpt>
      <trkpt lat="41.9786700" lon="-7.3230570">
        <ele>859.6</ele>
        <time>2019-08-17T09:33:07Z</time>
      </trkpt>
      <trkpt lat="41.9786370" lon="-7.3231260">
        <ele>859.2</ele>
        <time>2019-08-17T09:33:08Z</time>
      </trkpt>
      <trkpt lat="41.9786040" lon="-7.3231950">
        <ele>858.8</ele>
        <time>2019-08-17T09:33:09Z</time>
      </trkpt>
      <trkpt lat="41.9785730" lon="-7.3232650">
        <ele>858.4</ele>
        <time>2019-08-17T09:33:10Z</time>
      </trkpt>
      <trkpt lat="41.9785430" lon="-7.3233380">
        <ele>858.1</ele>
        <time>2019-08-17T09:33:11Z</time>
      </trkpt>
      <trkpt lat="41.9785140" lon="-7.3234120">
        <ele>857.6</ele>
        <time>2019-08-17T09:33:12Z</time>
      </trkpt>
      <trkpt lat="41.9784860" lon="-7.3234890">
        <ele>857.2</ele>
        <time>2019-08-17T09:33:13Z</time>
      </trkpt>
      <trkpt lat="41.9784610" lon="-7.3235690">
        <ele>856.9</ele>
        <time>2019-08-17T09:33:14Z</time>
      </trkpt>
      <trkpt lat="41.9784380" lon="-7.3236530">
        <ele>856.5</ele>
        <time>2019-08-17T09:33:15Z</time>
      </trkpt>
      <trkpt lat="41.9784170" lon="-7.3237410">
        <ele>856.2</ele>
        <time>2019-08-17T09:33:16Z</time>
      </trkpt>
      <trkpt lat="41.9783980" lon="-7.3238320">
        <ele>855.8</ele>
        <time>2019-08-17T09:33:17Z</time>
      </trkpt>
      <trkpt lat="41.9783810" lon="-7.3239270">
        <ele>855.5</ele>
        <time>2019-08-17T09:33:18Z</time>
      </trkpt>
      <trkpt lat="41.9783640" lon="-7.3240240">
        <ele>855.3</ele>
        <time>2019-08-17T09:33:19Z</time>
      </trkpt>
      <trkpt lat="41.9783490" lon="-7.3241230">
        <ele>855.3</ele>
        <time>2019-08-17T09:33:20Z</time>
      </trkpt>
      <trkpt lat="41.9783330" lon="-7.3242230">
        <ele>855.3</ele>
        <time>2019-08-17T09:33:21Z</time>
      </trkpt>
      <trkpt lat="41.9783170" lon="-7.3243230">
        <ele>855.3</ele>
        <time>2019-08-17T09:33:22Z</time>
      </trkpt>
      <trkpt lat="41.9783010" lon="-7.3244230">
        <ele>855.3</ele>
        <time>2019-08-17T09:33:23Z</time>
      </trkpt>
      <trkpt lat="41.9782830" lon="-7.3245230">
        <ele>855.3</ele>
        <time>2019-08-17T09:33:24Z</time>
      </trkpt>
      <trkpt lat="41.9782650" lon="-7.3246220">
        <ele>855.3</ele>
        <time>2019-08-17T09:33:25Z</time>
      </trkpt>
      <trkpt lat="41.9782450" lon="-7.3247200">
        <ele>855.3</ele>
        <time>2019-08-17T09:33:26Z</time>
      </trkpt>
      <trkpt lat="41.9782240" lon="-7.3248170">
        <ele>855.3</ele>
        <time>2019-08-17T09:33:27Z</time>
      </trkpt>
      <trkpt lat="41.9782010" lon="-7.3249130">
        <ele>855.3</ele>
        <time>2019-08-17T09:33:28Z</time>
      </trkpt>
      <trkpt lat="41.9781770" lon="-7.3250080">
        <ele>855.3</ele>
        <time>2019-08-17T09:33:29Z</time>
      </trkpt>
      <trkpt lat="41.9781510" lon="-7.3251020">
        <ele>855.3</ele>
        <time>2019-08-17T09:33:30Z</time>
      </trkpt>
      <trkpt lat="41.9781230" lon="-7.3251940">
        <ele>855.3</ele>
        <time>2019-08-17T09:33:31Z</time>
      </trkpt>
      <trkpt lat="41.9780940" lon="-7.3252850">
        <ele>855.3</ele>
        <time>2019-08-17T09:33:32Z</time>
      </trkpt>
      <trkpt lat="41.9780640" lon="-7.3253730">
        <ele>855.3</ele>
        <time>2019-08-17T09:33:33Z</time>
      </trkpt>
      <trkpt lat="41.9780340" lon="-7.3254600">
        <ele>855.3</ele>
        <time>2019-08-17T09:33:34Z</time>
      </trkpt>
      <trkpt lat="41.9780050" lon="-7.3255430">
        <ele>855.3</ele>
        <time>2019-08-17T09:33:35Z</time>
      </trkpt>
      <trkpt lat="41.9779760" lon="-7.3256250">
        <ele>855.3</ele>
        <time>2019-08-17T09:33:36Z</time>
      </trkpt>
      <trkpt lat="41.9779470" lon="-7.3257040">
        <ele>855.3</ele>
        <time>2019-08-17T09:33:37Z</time>
      </trkpt>
      <trkpt lat="41.9779190" lon="-7.3257810">
        <ele>855.3</ele>
        <time>2019-08-17T09:33:38Z</time>
      </trkpt>
      <trkpt lat="41.9778910" lon="-7.3258570">
        <ele>855.3</ele>
        <time>2019-08-17T09:33:39Z</time>
      </trkpt>
      <trkpt lat="41.9778640" lon="-7.3259320">
        <ele>855.3</ele>
        <time>2019-08-17T09:33:40Z</time>
      </trkpt>
      <trkpt lat="41.9778350" lon="-7.3260060">
        <ele>855.3</ele>
        <time>2019-08-17T09:33:41Z</time>
      </trkpt>
      <trkpt lat="41.9778070" lon="-7.3260800">
        <ele>855.3</ele>
        <time>2019-08-17T09:33:42Z</time>
      </trkpt>
      <trkpt lat="41.9777780" lon="-7.3261540">
        <ele>855.3</ele>
        <time>2019-08-17T09:33:43Z</time>
      </trkpt>
      <trkpt lat="41.9777490" lon="-7.3262290">
        <ele>855.3</ele>
        <time>2019-08-17T09:33:44Z</time>
      </trkpt>
      <trkpt lat="41.9777190" lon="-7.3263040">
        <ele>855.3</ele>
        <time>2019-08-17T09:33:45Z</time>
      </trkpt>
      <trkpt lat="41.9776890" lon="-7.3263800">
        <ele>855.3</ele>
        <time>2019-08-17T09:33:46Z</time>
      </trkpt>
      <trkpt lat="41.9776590" lon="-7.3264560">
        <ele>855.3</ele>
        <time>2019-08-17T09:33:47Z</time>
      </trkpt>
      <trkpt lat="41.9776290" lon="-7.3265320">
        <ele>855.3</ele>
        <time>2019-08-17T09:33:48Z</time>
      </trkpt>
      <trkpt lat="41.9775990" lon="-7.3266090">
        <ele>855.3</ele>
        <time>2019-08-17T09:33:49Z</time>
      </trkpt>
      <trkpt lat="41.9775690" lon="-7.3266870">
        <ele>855.4</ele>
        <time>2019-08-17T09:33:50Z</time>
      </trkpt>
      <trkpt lat="41.9775400" lon="-7.3267640">
        <ele>855.4</ele>
        <time>2019-08-17T09:33:51Z</time>
      </trkpt>
      <trkpt lat="41.9775100" lon="-7.3268420">
        <ele>855.4</ele>
        <time>2019-08-17T09:33:52Z</time>
      </trkpt>
      <trkpt lat="41.9774810" lon="-7.3269200">
        <ele>855.4</ele>
        <time>2019-08-17T09:33:53Z</time>
      </trkpt>
      <trkpt lat="41.9774520" lon="-7.3269980">
        <ele>855.5</ele>
        <time>2019-08-17T09:33:54Z</time>
      </trkpt>
      <trkpt lat="41.9774230" lon="-7.3270750">
        <ele>855.6</ele>
        <time>2019-08-17T09:33:55Z</time>
      </trkpt>
      <trkpt lat="41.9773950" lon="-7.3271530">
        <ele>855.6</ele>
        <time>2019-08-17T09:33:56Z</time>
      </trkpt>
      <trkpt lat="41.9773670" lon="-7.3272290">
        <ele>855.7</ele>
        <time>2019-08-17T09:33:57Z</time>
      </trkpt>
      <trkpt lat="41.9773390" lon="-7.3273050">
        <ele>855.8</ele>
        <time>2019-08-17T09:33:58Z</time>
      </trkpt>
      <trkpt lat="41.9773110" lon="-7.3273800">
        <ele>855.9</ele>
        <time>2019-08-17T09:33:59Z</time>
      </trkpt>
      <trkpt lat="41.9772830" lon="-7.3274550">
        <ele>856.0</ele>
        <time>2019-08-17T09:34:00Z</time>
      </trkpt>
      <trkpt lat="41.9772560" lon="-7.3275280">
        <ele>856.1</ele>
        <time>2019-08-17T09:34:01Z</time>
      </trkpt>
      <trkpt lat="41.9772290" lon="-7.3276000">
        <ele>856.2</ele>
        <time>2019-08-17T09:34:02Z</time>
      </trkpt>
      <trkpt lat="41.9772030" lon="-7.3276710">
        <ele>856.2</ele>
        <time>2019-08-17T09:34:03Z</time>
      </trkpt>
      <trkpt lat="41.9771760" lon="-7.3277420">
        <ele>856.3</ele>
        <time>2019-08-17T09:34:04Z</time>
      </trkpt>
      <trkpt lat="41.9771500" lon="-7.3278120">
        <ele>856.3</ele>
        <time>2019-08-17T09:34:05Z</time>
      </trkpt>
      <trkpt lat="41.9771230" lon="-7.3278820">
        <ele>856.3</ele>
        <time>2019-08-17T09:34:06Z</time>
      </trkpt>
      <trkpt lat="41.9770970" lon="-7.3279530">
        <ele>856.3</ele>
        <time>2019-08-17T09:34:07Z</time>
      </trkpt>
      <trkpt lat="41.9770710" lon="-7.3280240">
        <ele>856.3</ele>
        <time>2019-08-17T09:34:08Z</time>
      </trkpt>
      <trkpt lat="41.9770440" lon="-7.3280960">
        <ele>856.3</ele>
        <time>2019-08-17T09:34:09Z</time>
      </trkpt>
      <trkpt lat="41.9770180" lon="-7.3281690">
        <ele>856.4</ele>
        <time>2019-08-17T09:34:10Z</time>
      </trkpt>
      <trkpt lat="41.9769910" lon="-7.3282410">
        <ele>856.4</ele>
        <time>2019-08-17T09:34:11Z</time>
      </trkpt>
      <trkpt lat="41.9769650" lon="-7.3283130">
        <ele>856.1</ele>
        <time>2019-08-17T09:34:12Z</time>
      </trkpt>
      <trkpt lat="41.9769400" lon="-7.3283850">
        <ele>855.9</ele>
        <time>2019-08-17T09:34:13Z</time>
      </trkpt>
      <trkpt lat="41.9769140" lon="-7.3284550">
        <ele>855.9</ele>
        <time>2019-08-17T09:34:14Z</time>
      </trkpt>
      <trkpt lat="41.9768900" lon="-7.3285230">
        <ele>855.8</ele>
        <time>2019-08-17T09:34:15Z</time>
      </trkpt>
      <trkpt lat="41.9768660" lon="-7.3285900">
        <ele>855.7</ele>
        <time>2019-08-17T09:34:16Z</time>
      </trkpt>
      <trkpt lat="41.9768420" lon="-7.3286550">
        <ele>855.6</ele>
        <time>2019-08-17T09:34:17Z</time>
      </trkpt>
      <trkpt lat="41.9768190" lon="-7.3287180">
        <ele>855.6</ele>
        <time>2019-08-17T09:34:18Z</time>
      </trkpt>
      <trkpt lat="41.9767960" lon="-7.3287810">
        <ele>855.6</ele>
        <time>2019-08-17T09:34:19Z</time>
      </trkpt>
      <trkpt lat="41.9767740" lon="-7.3288430">
        <ele>855.7</ele>
        <time>2019-08-17T09:34:20Z</time>
      </trkpt>
      <trkpt lat="41.9767520" lon="-7.3289050">
        <ele>855.8</ele>
        <time>2019-08-17T09:34:21Z</time>
      </trkpt>
      <trkpt lat="41.9767300" lon="-7.3289670">
        <ele>855.9</ele>
        <time>2019-08-17T09:34:22Z</time>
      </trkpt>
      <trkpt lat="41.9767070" lon="-7.3290300">
        <ele>856.0</ele>
        <time>2019-08-17T09:34:23Z</time>
      </trkpt>
      <trkpt lat="41.9766850" lon="-7.3290930">
        <ele>856.2</ele>
        <time>2019-08-17T09:34:24Z</time>
      </trkpt>
      <trkpt lat="41.9766620" lon="-7.3291560">
        <ele>856.3</ele>
        <time>2019-08-17T09:34:25Z</time>
      </trkpt>
      <trkpt lat="41.9766390" lon="-7.3292200">
        <ele>856.5</ele>
        <time>2019-08-17T09:34:26Z</time>
      </trkpt>
      <trkpt lat="41.9766160" lon="-7.3292820">
        <ele>856.6</ele>
        <time>2019-08-17T09:34:27Z</time>
      </trkpt>
      <trkpt lat="41.9765930" lon="-7.3293440">
        <ele>856.8</ele>
        <time>2019-08-17T09:34:28Z</time>
      </trkpt>
      <trkpt lat="41.9765690" lon="-7.3294050">
        <ele>856.9</ele>
        <time>2019-08-17T09:34:29Z</time>
      </trkpt>
      <trkpt lat="41.9765450" lon="-7.3294650">
        <ele>857.1</ele>
        <time>2019-08-17T09:34:30Z</time>
      </trkpt>
      <trkpt lat="41.9765200" lon="-7.3295230">
        <ele>857.3</ele>
        <time>2019-08-17T09:34:31Z</time>
      </trkpt>
      <trkpt lat="41.9764950" lon="-7.3295800">
        <ele>857.5</ele>
        <time>2019-08-17T09:34:32Z</time>
      </trkpt>
      <trkpt lat="41.9764700" lon="-7.3296350">
        <ele>857.7</ele>
        <time>2019-08-17T09:34:33Z</time>
      </trkpt>
      <trkpt lat="41.9764450" lon="-7.3296900">
        <ele>858.0</ele>
        <time>2019-08-17T09:34:34Z</time>
      </trkpt>
      <trkpt lat="41.9764190" lon="-7.3297420">
        <ele>858.2</ele>
        <time>2019-08-17T09:34:35Z</time>
      </trkpt>
      <trkpt lat="41.9763920" lon="-7.3297930">
        <ele>858.5</ele>
        <time>2019-08-17T09:34:36Z</time>
      </trkpt>
      <trkpt lat="41.9763660" lon="-7.3298420">
        <ele>858.7</ele>
        <time>2019-08-17T09:34:37Z</time>
      </trkpt>
      <trkpt lat="41.9763390" lon="-7.3298890">
        <ele>859.1</ele>
        <time>2019-08-17T09:34:38Z</time>
      </trkpt>
      <trkpt lat="41.9763110" lon="-7.3299350">
        <ele>859.4</ele>
        <time>2019-08-17T09:34:39Z</time>
      </trkpt>
      <trkpt lat="41.9762830" lon="-7.3299780">
        <ele>859.8</ele>
        <time>2019-08-17T09:34:40Z</time>
      </trkpt>
      <trkpt lat="41.9762550" lon="-7.3300200">
        <ele>860.3</ele>
        <time>2019-08-17T09:34:41Z</time>
      </trkpt>
      <trkpt lat="41.9762270" lon="-7.3300590">
        <ele>860.6</ele>
        <time>2019-08-17T09:34:42Z</time>
      </trkpt>
      <trkpt lat="41.9761980" lon="-7.3300960">
        <ele>861.0</ele>
        <time>2019-08-17T09:34:43Z</time>
      </trkpt>
      <trkpt lat="41.9761690" lon="-7.3301320">
        <ele>861.3</ele>
        <time>2019-08-17T09:34:44Z</time>
      </trkpt>
      <trkpt lat="41.9761390" lon="-7.3301650">
        <ele>861.7</ele>
        <time>2019-08-17T09:34:45Z</time>
      </trkpt>
      <trkpt lat="41.9761090" lon="-7.3301960">
        <ele>862.0</ele>
        <time>2019-08-17T09:34:46Z</time>
      </trkpt>
      <trkpt lat="41.9760800" lon="-7.3302260">
        <ele>862.4</ele>
        <time>2019-08-17T09:34:47Z</time>
      </trkpt>
      <trkpt lat="41.9760490" lon="-7.3302540">
        <ele>862.7</ele>
        <time>2019-08-17T09:34:48Z</time>
      </trkpt>
      <trkpt lat="41.9760190" lon="-7.3302810">
        <ele>863.0</ele>
        <time>2019-08-17T09:34:49Z</time>
      </trkpt>
      <trkpt lat="41.9759890" lon="-7.3303070">
        <ele>863.3</ele>
        <time>2019-08-17T09:34:50Z</time>
      </trkpt>
      <trkpt lat="41.9759590" lon="-7.3303310">
        <ele>863.7</ele>
        <time>2019-08-17T09:34:51Z</time>
      </trkpt>
      <trkpt lat="41.9759280" lon="-7.3303540">
        <ele>864.0</ele>
        <time>2019-08-17T09:34:52Z</time>
      </trkpt>
      <trkpt lat="41.9758980" lon="-7.3303770">
        <ele>864.3</ele>
        <time>2019-08-17T09:34:53Z</time>
      </trkpt>
      <trkpt lat="41.9758680" lon="-7.3303980">
        <ele>864.6</ele>
        <time>2019-08-17T09:34:54Z</time>
      </trkpt>
      <trkpt lat="41.9758380" lon="-7.3304190">
        <ele>864.9</ele>
        <time>2019-08-17T09:34:55Z</time>
      </trkpt>
      <trkpt lat="41.9758080" lon="-7.3304390">
        <ele>865.3</ele>
        <time>2019-08-17T09:34:56Z</time>
      </trkpt>
      <trkpt lat="41.9757780" lon="-7.3304590">
        <ele>865.7</ele>
        <time>2019-08-17T09:34:57Z</time>
      </trkpt>
      <trkpt lat="41.9757480" lon="-7.3304790">
        <ele>866.1</ele>
        <time>2019-08-17T09:34:58Z</time>
      </trkpt>
      <trkpt lat="41.9757180" lon="-7.3304980">
        <ele>866.4</ele>
        <time>2019-08-17T09:34:59Z</time>
      </trkpt>
      <trkpt lat="41.9756890" lon="-7.3305160">
        <ele>866.7</ele>
        <time>2019-08-17T09:35:00Z</time>
      </trkpt>
      <trkpt lat="41.9756590" lon="-7.3305350">
        <ele>867.1</ele>
        <time>2019-08-17T09:35:01Z</time>
      </trkpt>
      <trkpt lat="41.9756300" lon="-7.3305530">
        <ele>867.3</ele>
        <time>2019-08-17T09:35:02Z</time>
      </trkpt>
      <trkpt lat="41.9756010" lon="-7.3305710">
        <ele>867.4</ele>
        <time>2019-08-17T09:35:03Z</time>
      </trkpt>
      <trkpt lat="41.9755710" lon="-7.3305890">
        <ele>867.6</ele>
        <time>2019-08-17T09:35:04Z</time>
      </trkpt>
      <trkpt lat="41.9755420" lon="-7.3306060">
        <ele>867.8</ele>
        <time>2019-08-17T09:35:05Z</time>
      </trkpt>
      <trkpt lat="41.9755130" lon="-7.3306240">
        <ele>868.0</ele>
        <time>2019-08-17T09:35:06Z</time>
      </trkpt>
      <trkpt lat="41.9754840" lon="-7.3306420">
        <ele>868.2</ele>
        <time>2019-08-17T09:35:07Z</time>
      </trkpt>
      <trkpt lat="41.9754550" lon="-7.3306600">
        <ele>868.4</ele>
        <time>2019-08-17T09:35:08Z</time>
      </trkpt>
      <trkpt lat="41.9754260" lon="-7.3306780">
        <ele>868.6</ele>
        <time>2019-08-17T09:35:09Z</time>
      </trkpt>
      <trkpt lat="41.9753970" lon="-7.3306970">
        <ele>868.9</ele>
        <time>2019-08-17T09:35:10Z</time>
      </trkpt>
      <trkpt lat="41.9753680" lon="-7.3307150">
        <ele>869.1</ele>
        <time>2019-08-17T09:35:11Z</time>
      </trkpt>
      <trkpt lat="41.9753390" lon="-7.3307340">
        <ele>869.3</ele>
        <time>2019-08-17T09:35:12Z</time>
      </trkpt>
      <trkpt lat="41.9753100" lon="-7.3307530">
        <ele>869.5</ele>
        <time>2019-08-17T09:35:13Z</time>
      </trkpt>
      <trkpt lat="41.9752810" lon="-7.3307710">
        <ele>869.7</ele>
        <time>2019-08-17T09:35:14Z</time>
      </trkpt>
      <trkpt lat="41.9752520" lon="-7.3307900">
        <ele>869.8</ele>
        <time>2019-08-17T09:35:15Z</time>
      </trkpt>
      <trkpt lat="41.9752230" lon="-7.3308080">
        <ele>870.0</ele>
        <time>2019-08-17T09:35:16Z</time>
      </trkpt>
      <trkpt lat="41.9751940" lon="-7.3308260">
        <ele>870.1</ele>
        <time>2019-08-17T09:35:17Z</time>
      </trkpt>
      <trkpt lat="41.9751650" lon="-7.3308440">
        <ele>870.3</ele>
        <time>2019-08-17T09:35:18Z</time>
      </trkpt>
      <trkpt lat="41.9751360" lon="-7.3308610">
        <ele>870.5</ele>
        <time>2019-08-17T09:35:19Z</time>
      </trkpt>
      <trkpt lat="41.9751070" lon="-7.3308770">
        <ele>870.7</ele>
        <time>2019-08-17T09:35:20Z</time>
      </trkpt>
      <trkpt lat="41.9750790" lon="-7.3308930">
        <ele>870.9</ele>
        <time>2019-08-17T09:35:21Z</time>
      </trkpt>
      <trkpt lat="41.9750500" lon="-7.3309080">
        <ele>871.2</ele>
        <time>2019-08-17T09:35:22Z</time>
      </trkpt>
      <trkpt lat="41.9750220" lon="-7.3309230">
        <ele>871.4</ele>
        <time>2019-08-17T09:35:23Z</time>
      </trkpt>
      <trkpt lat="41.9749930" lon="-7.3309370">
        <ele>871.7</ele>
        <time>2019-08-17T09:35:24Z</time>
      </trkpt>
      <trkpt lat="41.9749650" lon="-7.3309500">
        <ele>871.9</ele>
        <time>2019-08-17T09:35:25Z</time>
      </trkpt>
      <trkpt lat="41.9749360" lon="-7.3309620">
        <ele>872.2</ele>
        <time>2019-08-17T09:35:26Z</time>
      </trkpt>
      <trkpt lat="41.9749080" lon="-7.3309730">
        <ele>872.4</ele>
        <time>2019-08-17T09:35:27Z</time>
      </trkpt>
      <trkpt lat="41.9748790" lon="-7.3309830">
        <ele>872.7</ele>
        <time>2019-08-17T09:35:28Z</time>
      </trkpt>
      <trkpt lat="41.9748510" lon="-7.3309920">
        <ele>872.9</ele>
        <time>2019-08-17T09:35:29Z</time>
      </trkpt>
      <trkpt lat="41.9748220" lon="-7.3310010">
        <ele>873.2</ele>
        <time>2019-08-17T09:35:30Z</time>
      </trkpt>
      <trkpt lat="41.9747930" lon="-7.3310080">
        <ele>873.5</ele>
        <time>2019-08-17T09:35:31Z</time>
      </trkpt>
      <trkpt lat="41.9747640" lon="-7.3310150">
        <ele>873.8</ele>
        <time>2019-08-17T09:35:32Z</time>
      </trkpt>
      <trkpt lat="41.9747350" lon="-7.3310200">
        <ele>874.1</ele>
        <time>2019-08-17T09:35:33Z</time>
      </trkpt>
      <trkpt lat="41.9747050" lon="-7.3310250">
        <ele>874.4</ele>
        <time>2019-08-17T09:35:34Z</time>
      </trkpt>
      <trkpt lat="41.9746760" lon="-7.3310280">
        <ele>874.7</ele>
        <time>2019-08-17T09:35:35Z</time>
      </trkpt>
      <trkpt lat="41.9746460" lon="-7.3310300">
        <ele>875.0</ele>
        <time>2019-08-17T09:35:36Z</time>
      </trkpt>
      <trkpt lat="41.9746160" lon="-7.3310310">
        <ele>875.4</ele>
        <time>2019-08-17T09:35:37Z</time>
      </trkpt>
      <trkpt lat="41.9745850" lon="-7.3310310">
        <ele>875.6</ele>
        <time>2019-08-17T09:35:38Z</time>
      </trkpt>
      <trkpt lat="41.9745540" lon="-7.3310300">
        <ele>875.9</ele>
        <time>2019-08-17T09:35:39Z</time>
      </trkpt>
      <trkpt lat="41.9745230" lon="-7.3310280">
        <ele>876.1</ele>
        <time>2019-08-17T09:35:40Z</time>
      </trkpt>
      <trkpt lat="41.9744920" lon="-7.3310250">
        <ele>876.4</ele>
        <time>2019-08-17T09:35:41Z</time>
      </trkpt>
      <trkpt lat="41.9744610" lon="-7.3310210">
        <ele>876.6</ele>
        <time>2019-08-17T09:35:42Z</time>
      </trkpt>
      <trkpt lat="41.9744300" lon="-7.3310160">
        <ele>876.9</ele>
        <time>2019-08-17T09:35:43Z</time>
      </trkpt>
      <trkpt lat="41.9743980" lon="-7.3310100">
        <ele>877.2</ele>
        <time>2019-08-17T09:35:44Z</time>
      </trkpt>
      <trkpt lat="41.9743670" lon="-7.3310030">
        <ele>877.4</ele>
        <time>2019-08-17T09:35:45Z</time>
      </trkpt>
      <trkpt lat="41.9743350" lon="-7.3309950">
        <ele>877.7</ele>
        <time>2019-08-17T09:35:46Z</time>
      </trkpt>
      <trkpt lat="41.9743040" lon="-7.3309860">
        <ele>878.0</ele>
        <time>2019-08-17T09:35:47Z</time>
      </trkpt>
      <trkpt lat="41.9742730" lon="-7.3309770">
        <ele>878.2</ele>
        <time>2019-08-17T09:35:48Z</time>
      </trkpt>
      <trkpt lat="41.9742420" lon="-7.3309660">
        <ele>878.5</ele>
        <time>2019-08-17T09:35:49Z</time>
      </trkpt>
      <trkpt lat="41.9742110" lon="-7.3309550">
        <ele>878.8</ele>
        <time>2019-08-17T09:35:50Z</time>
      </trkpt>
      <trkpt lat="41.9741800" lon="-7.3309430">
        <ele>879.1</ele>
        <time>2019-08-17T09:35:51Z</time>
      </trkpt>
      <trkpt lat="41.9741490" lon="-7.3309310">
        <ele>879.5</ele>
        <time>2019-08-17T09:35:52Z</time>
      </trkpt>
      <trkpt lat="41.9741190" lon="-7.3309170">
        <ele>879.8</ele>
        <time>2019-08-17T09:35:53Z</time>
      </trkpt>
      <trkpt lat="41.9740880" lon="-7.3309040">
        <ele>880.1</ele>
        <time>2019-08-17T09:35:54Z</time>
      </trkpt>
      <trkpt lat="41.9740570" lon="-7.3308900">
        <ele>880.4</ele>
        <time>2019-08-17T09:35:55Z</time>
      </trkpt>
      <trkpt lat="41.9740260" lon="-7.3308750">
        <ele>880.8</ele>
        <time>2019-08-17T09:35:56Z</time>
      </trkpt>
      <trkpt lat="41.9739950" lon="-7.3308600">
        <ele>881.0</ele>
        <time>2019-08-17T09:35:57Z</time>
      </trkpt>
      <trkpt lat="41.9739640" lon="-7.3308450">
        <ele>881.2</ele>
        <time>2019-08-17T09:35:58Z</time>
      </trkpt>
      <trkpt lat="41.9739320" lon="-7.3308300">
        <ele>881.4</ele>
        <time>2019-08-17T09:35:59Z</time>
      </trkpt>
      <trkpt lat="41.9739000" lon="-7.3308150">
        <ele>881.6</ele>
        <time>2019-08-17T09:36:00Z</time>
      </trkpt>
      <trkpt lat="41.9738690" lon="-7.3308000">
        <ele>881.8</ele>
        <time>2019-08-17T09:36:01Z</time>
      </trkpt>
      <trkpt lat="41.9738370" lon="-7.3307850">
        <ele>882.0</ele>
        <time>2019-08-17T09:36:02Z</time>
      </trkpt>
      <trkpt lat="41.9738050" lon="-7.3307710">
        <ele>882.1</ele>
        <time>2019-08-17T09:36:03Z</time>
      </trkpt>
      <trkpt lat="41.9737740" lon="-7.3307560">
        <ele>882.3</ele>
        <time>2019-08-17T09:36:04Z</time>
      </trkpt>
      <trkpt lat="41.9737420" lon="-7.3307420">
        <ele>882.4</ele>
        <time>2019-08-17T09:36:05Z</time>
      </trkpt>
      <trkpt lat="41.9737100" lon="-7.3307290">
        <ele>882.6</ele>
        <time>2019-08-17T09:36:06Z</time>
      </trkpt>
      <trkpt lat="41.9736780" lon="-7.3307150">
        <ele>882.7</ele>
        <time>2019-08-17T09:36:07Z</time>
      </trkpt>
      <trkpt lat="41.9736450" lon="-7.3307010">
        <ele>883.0</ele>
        <time>2019-08-17T09:36:08Z</time>
      </trkpt>
      <trkpt lat="41.9736110" lon="-7.3306880">
        <ele>883.0</ele>
        <time>2019-08-17T09:36:09Z</time>
      </trkpt>
      <trkpt lat="41.9735770" lon="-7.3306740">
        <ele>883.1</ele>
        <time>2019-08-17T09:36:10Z</time>
      </trkpt>
      <trkpt lat="41.9735420" lon="-7.3306600">
        <ele>883.1</ele>
        <time>2019-08-17T09:36:11Z</time>
      </trkpt>
      <trkpt lat="41.9735070" lon="-7.3306450">
        <ele>883.1</ele>
        <time>2019-08-17T09:36:12Z</time>
      </trkpt>
      <trkpt lat="41.9734700" lon="-7.3306310">
        <ele>883.1</ele>
        <time>2019-08-17T09:36:13Z</time>
      </trkpt>
      <trkpt lat="41.9734320" lon="-7.3306150">
        <ele>883.2</ele>
        <time>2019-08-17T09:36:14Z</time>
      </trkpt>
      <trkpt lat="41.9733920" lon="-7.3305990">
        <ele>883.2</ele>
        <time>2019-08-17T09:36:15Z</time>
      </trkpt>
      <trkpt lat="41.9733510" lon="-7.3305830">
        <ele>883.2</ele>
        <time>2019-08-17T09:36:16Z</time>
      </trkpt>
      <trkpt lat="41.9733090" lon="-7.3305650">
        <ele>883.1</ele>
        <time>2019-08-17T09:36:17Z</time>
      </trkpt>
      <trkpt lat="41.9732650" lon="-7.3305470">
        <ele>883.1</ele>
        <time>2019-08-17T09:36:18Z</time>
      </trkpt>
      <trkpt lat="41.9732210" lon="-7.3305290">
        <ele>883.0</ele>
        <time>2019-08-17T09:36:19Z</time>
      </trkpt>
      <trkpt lat="41.9731750" lon="-7.3305100">
        <ele>883.0</ele>
        <time>2019-08-17T09:36:20Z</time>
      </trkpt>
      <trkpt lat="41.9731280" lon="-7.3304920">
        <ele>882.9</ele>
        <time>2019-08-17T09:36:21Z</time>
      </trkpt>
      <trkpt lat="41.9730570" lon="-7.3304640">
        <ele>882.7</ele>
        <time>2019-08-17T09:36:22Z</time>
      </trkpt>
      <trkpt lat="41.9730330" lon="-7.3304550">
        <ele>882.6</ele>
        <time>2019-08-17T09:36:23Z</time>
      </trkpt>
      <trkpt lat="41.9729860" lon="-7.3304380">
        <ele>882.5</ele>
        <time>2019-08-17T09:36:24Z</time>
      </trkpt>
      <trkpt lat="41.9729380" lon="-7.3304210">
        <ele>882.4</ele>
        <time>2019-08-17T09:36:25Z</time>
      </trkpt>
      <trkpt lat="41.9728890" lon="-7.3304050">
        <ele>882.2</ele>
        <time>2019-08-17T09:36:26Z</time>
      </trkpt>
      <trkpt lat="41.9728400" lon="-7.3303900">
        <ele>882.1</ele>
        <time>2019-08-17T09:36:27Z</time>
      </trkpt>
      <trkpt lat="41.9727900" lon="-7.3303760">
        <ele>881.9</ele>
        <time>2019-08-17T09:36:28Z</time>
      </trkpt>
      <trkpt lat="41.9727390" lon="-7.3303640">
        <ele>881.8</ele>
        <time>2019-08-17T09:36:29Z</time>
      </trkpt>
      <trkpt lat="41.9726870" lon="-7.3303530">
        <ele>881.6</ele>
        <time>2019-08-17T09:36:30Z</time>
      </trkpt>
      <trkpt lat="41.9726340" lon="-7.3303440">
        <ele>881.4</ele>
        <time>2019-08-17T09:36:31Z</time>
      </trkpt>
      <trkpt lat="41.9725800" lon="-7.3303370">
        <ele>881.2</ele>
        <time>2019-08-17T09:36:32Z</time>
      </trkpt>
      <trkpt lat="41.9725240" lon="-7.3303310">
        <ele>881.0</ele>
        <time>2019-08-17T09:36:33Z</time>
      </trkpt>
      <trkpt lat="41.9724660" lon="-7.3303260">
        <ele>880.8</ele>
        <time>2019-08-17T09:36:34Z</time>
      </trkpt>
      <trkpt lat="41.9724060" lon="-7.3303210">
        <ele>880.6</ele>
        <time>2019-08-17T09:36:35Z</time>
      </trkpt>
      <trkpt lat="41.9723440" lon="-7.3303180">
        <ele>880.4</ele>
        <time>2019-08-17T09:36:36Z</time>
      </trkpt>
      <trkpt lat="41.9722460" lon="-7.3303140">
        <ele>880.1</ele>
        <time>2019-08-17T09:36:37Z</time>
      </trkpt>
      <trkpt lat="41.9722120" lon="-7.3303130">
        <ele>880.0</ele>
        <time>2019-08-17T09:36:38Z</time>
      </trkpt>
      <trkpt lat="41.9721430" lon="-7.3303120">
        <ele>879.9</ele>
        <time>2019-08-17T09:36:39Z</time>
      </trkpt>
      <trkpt lat="41.9720720" lon="-7.3303130">
        <ele>879.7</ele>
        <time>2019-08-17T09:36:40Z</time>
      </trkpt>
      <trkpt lat="41.9719990" lon="-7.3303150">
        <ele>879.6</ele>
        <time>2019-08-17T09:36:41Z</time>
      </trkpt>
      <trkpt lat="41.9719260" lon="-7.3303210">
        <ele>879.4</ele>
        <time>2019-08-17T09:36:42Z</time>
      </trkpt>
      <trkpt lat="41.9718520" lon="-7.3303310">
        <ele>879.3</ele>
        <time>2019-08-17T09:36:43Z</time>
      </trkpt>
      <trkpt lat="41.9717790" lon="-7.3303450">
        <ele>879.1</ele>
        <time>2019-08-17T09:36:44Z</time>
      </trkpt>
      <trkpt lat="41.9717060" lon="-7.3303620">
        <ele>878.9</ele>
        <time>2019-08-17T09:36:45Z</time>
      </trkpt>
      <trkpt lat="41.9716340" lon="-7.3303830">
        <ele>878.8</ele>
        <time>2019-08-17T09:36:46Z</time>
      </trkpt>
      <trkpt lat="41.9715640" lon="-7.3304060">
        <ele>878.7</ele>
        <time>2019-08-17T09:36:47Z</time>
      </trkpt>
      <trkpt lat="41.9714970" lon="-7.3304300">
        <ele>878.6</ele>
        <time>2019-08-17T09:36:48Z</time>
      </trkpt>
      <trkpt lat="41.9714310" lon="-7.3304560">
        <ele>878.5</ele>
        <time>2019-08-17T09:36:49Z</time>
      </trkpt>
      <trkpt lat="41.9713660" lon="-7.3304830">
        <ele>878.6</ele>
        <time>2019-08-17T09:36:50Z</time>
      </trkpt>
      <trkpt lat="41.9713010" lon="-7.3305110">
        <ele>878.6</ele>
        <time>2019-08-17T09:36:51Z</time>
      </trkpt>
      <trkpt lat="41.9712360" lon="-7.3305390">
        <ele>878.6</ele>
        <time>2019-08-17T09:36:52Z</time>
      </trkpt>
      <trkpt lat="41.9711710" lon="-7.3305680">
        <ele>878.6</ele>
        <time>2019-08-17T09:36:53Z</time>
      </trkpt>
      <trkpt lat="41.9711070" lon="-7.3305970">
        <ele>878.6</ele>
        <time>2019-08-17T09:36:54Z</time>
      </trkpt>
      <trkpt lat="41.9710430" lon="-7.3306250">
        <ele>878.6</ele>
        <time>2019-08-17T09:36:55Z</time>
      </trkpt>
      <trkpt lat="41.9709820" lon="-7.3306520">
        <ele>878.6</ele>
        <time>2019-08-17T09:36:56Z</time>
      </trkpt>
      <trkpt lat="41.9709220" lon="-7.3306780">
        <ele>878.5</ele>
        <time>2019-08-17T09:36:57Z</time>
      </trkpt>
      <trkpt lat="41.9708630" lon="-7.3307030">
        <ele>878.4</ele>
        <time>2019-08-17T09:36:58Z</time>
      </trkpt>
      <trkpt lat="41.9708070" lon="-7.3307260">
        <ele>878.4</ele>
        <time>2019-08-17T09:36:59Z</time>
      </trkpt>
      <trkpt lat="41.9707510" lon="-7.3307490">
        <ele>878.3</ele>
        <time>2019-08-17T09:37:00Z</time>
      </trkpt>
      <trkpt lat="41.9706960" lon="-7.3307710">
        <ele>878.2</ele>
        <time>2019-08-17T09:37:01Z</time>
      </trkpt>
      <trkpt lat="41.9706400" lon="-7.3307930">
        <ele>878.2</ele>
        <time>2019-08-17T09:37:02Z</time>
      </trkpt>
      <trkpt lat="41.9705830" lon="-7.3308150">
        <ele>878.0</ele>
        <time>2019-08-17T09:37:03Z</time>
      </trkpt>
      <trkpt lat="41.9705250" lon="-7.3308370">
        <ele>877.9</ele>
        <time>2019-08-17T09:37:04Z</time>
      </trkpt>
      <trkpt lat="41.9704650" lon="-7.3308610">
        <ele>877.1</ele>
        <time>2019-08-17T09:37:05Z</time>
      </trkpt>
      <trkpt lat="41.9704030" lon="-7.3308850">
        <ele>876.6</ele>
        <time>2019-08-17T09:37:06Z</time>
      </trkpt>
      <trkpt lat="41.9703400" lon="-7.3309100">
        <ele>876.1</ele>
        <time>2019-08-17T09:37:07Z</time>
      </trkpt>
      <trkpt lat="41.9702750" lon="-7.3309350">
        <ele>876.0</ele>
        <time>2019-08-17T09:37:08Z</time>
      </trkpt>
      <trkpt lat="41.9702100" lon="-7.3309600">
        <ele>876.0</ele>
        <time>2019-08-17T09:37:09Z</time>
      </trkpt>
      <trkpt lat="41.9701430" lon="-7.3309850">
        <ele>876.0</ele>
        <time>2019-08-17T09:37:10Z</time>
      </trkpt>
      <trkpt lat="41.9700750" lon="-7.3310100">
        <ele>876.0</ele>
        <time>2019-08-17T09:37:11Z</time>
      </trkpt>
      <trkpt lat="41.9700080" lon="-7.3310340">
        <ele>876.1</ele>
        <time>2019-08-17T09:37:12Z</time>
      </trkpt>
      <trkpt lat="41.9699400" lon="-7.3310570">
        <ele>876.1</ele>
        <time>2019-08-17T09:37:13Z</time>
      </trkpt>
      <trkpt lat="41.9698720" lon="-7.3310770">
        <ele>876.2</ele>
        <time>2019-08-17T09:37:14Z</time>
      </trkpt>
      <trkpt lat="41.9698060" lon="-7.3310950">
        <ele>876.3</ele>
        <time>2019-08-17T09:37:15Z</time>
      </trkpt>
      <trkpt lat="41.9697400" lon="-7.3311100">
        <ele>876.5</ele>
        <time>2019-08-17T09:37:16Z</time>
      </trkpt>
      <trkpt lat="41.9696750" lon="-7.3311200">
        <ele>876.6</ele>
        <time>2019-08-17T09:37:17Z</time>
      </trkpt>
      <trkpt lat="41.9696130" lon="-7.3311260">
        <ele>876.8</ele>
        <time>2019-08-17T09:37:18Z</time>
      </trkpt>
      <trkpt lat="41.9695520" lon="-7.3311280">
        <ele>876.9</ele>
        <time>2019-08-17T09:37:19Z</time>
      </trkpt>
      <trkpt lat="41.9694920" lon="-7.3311260">
        <ele>877.1</ele>
        <time>2019-08-17T09:37:20Z</time>
      </trkpt>
      <trkpt lat="41.9694350" lon="-7.3311200">
        <ele>877.3</ele>
        <time>2019-08-17T09:37:21Z</time>
      </trkpt>
      <trkpt lat="41.9693790" lon="-7.3311120">
        <ele>877.4</ele>
        <time>2019-08-17T09:37:22Z</time>
      </trkpt>
      <trkpt lat="41.9693250" lon="-7.3311020">
        <ele>877.6</ele>
        <time>2019-08-17T09:37:23Z</time>
      </trkpt>
      <trkpt lat="41.9692730" lon="-7.3310890">
        <ele>877.8</ele>
        <time>2019-08-17T09:37:24Z</time>
      </trkpt>
      <trkpt lat="41.9692230" lon="-7.3310750">
        <ele>878.0</ele>
        <time>2019-08-17T09:37:25Z</time>
      </trkpt>
      <trkpt lat="41.9691740" lon="-7.3310600">
        <ele>878.1</ele>
        <time>2019-08-17T09:37:26Z</time>
      </trkpt>
      <trkpt lat="41.9691270" lon="-7.3310430">
        <ele>878.3</ele>
        <time>2019-08-17T09:37:27Z</time>
      </trkpt>
      <trkpt lat="41.9690810" lon="-7.3310240">
        <ele>878.5</ele>
        <time>2019-08-17T09:37:28Z</time>
      </trkpt>
      <trkpt lat="41.9690360" lon="-7.3310040">
        <ele>878.6</ele>
        <time>2019-08-17T09:37:29Z</time>
      </trkpt>
      <trkpt lat="41.9689910" lon="-7.3309820">
        <ele>878.8</ele>
        <time>2019-08-17T09:37:30Z</time>
      </trkpt>
      <trkpt lat="41.9689460" lon="-7.3309580">
        <ele>878.9</ele>
        <time>2019-08-17T09:37:31Z</time>
      </trkpt>
      <trkpt lat="41.9689010" lon="-7.3309320">
        <ele>879.1</ele>
        <time>2019-08-17T09:37:32Z</time>
      </trkpt>
      <trkpt lat="41.9688560" lon="-7.3309050">
        <ele>879.3</ele>
        <time>2019-08-17T09:37:33Z</time>
      </trkpt>
      <trkpt lat="41.9688120" lon="-7.3308760">
        <ele>879.4</ele>
        <time>2019-08-17T09:37:34Z</time>
      </trkpt>
      <trkpt lat="41.9687670" lon="-7.3308460">
        <ele>879.6</ele>
        <time>2019-08-17T09:37:35Z</time>
      </trkpt>
      <trkpt lat="41.9687220" lon="-7.3308150">
        <ele>879.6</ele>
        <time>2019-08-17T09:37:36Z</time>
      </trkpt>
      <trkpt lat="41.9686770" lon="-7.3307830">
        <ele>879.7</ele>
        <time>2019-08-17T09:37:37Z</time>
      </trkpt>
      <trkpt lat="41.9686330" lon="-7.3307510">
        <ele>879.8</ele>
        <time>2019-08-17T09:37:38Z</time>
      </trkpt>
      <trkpt lat="41.9685880" lon="-7.3307190">
        <ele>879.8</ele>
        <time>2019-08-17T09:37:39Z</time>
      </trkpt>
      <trkpt lat="41.9685430" lon="-7.3306870">
        <ele>879.9</ele>
        <time>2019-08-17T09:37:40Z</time>
      </trkpt>
      <trkpt lat="41.9684980" lon="-7.3306560">
        <ele>880.0</ele>
        <time>2019-08-17T09:37:41Z</time>
      </trkpt>
      <trkpt lat="41.9684520" lon="-7.3306260">
        <ele>880.1</ele>
        <time>2019-08-17T09:37:42Z</time>
      </trkpt>
      <trkpt lat="41.9684060" lon="-7.3305970">
        <ele>880.1</ele>
        <time>2019-08-17T09:37:43Z</time>
      </trkpt>
      <trkpt lat="41.9683580" lon="-7.3305710">
        <ele>880.2</ele>
        <time>2019-08-17T09:37:44Z</time>
      </trkpt>
      <trkpt lat="41.9683090" lon="-7.3305460">
        <ele>880.3</ele>
        <time>2019-08-17T09:37:45Z</time>
      </trkpt>
      <trkpt lat="41.9682600" lon="-7.3305240">
        <ele>880.4</ele>
        <time>2019-08-17T09:37:46Z</time>
      </trkpt>
      <trkpt lat="41.9682090" lon="-7.3305040">
        <ele>880.4</ele>
        <time>2019-08-17T09:37:47Z</time>
      </trkpt>
      <trkpt lat="41.9681570" lon="-7.3304870">
        <ele>880.5</ele>
        <time>2019-08-17T09:37:48Z</time>
      </trkpt>
      <trkpt lat="41.9681050" lon="-7.3304720">
        <ele>880.5</ele>
        <time>2019-08-17T09:37:49Z</time>
      </trkpt>
      <trkpt lat="41.9680520" lon="-7.3304600">
        <ele>880.6</ele>
        <time>2019-08-17T09:37:50Z</time>
      </trkpt>
      <trkpt lat="41.9679990" lon="-7.3304500">
        <ele>880.7</ele>
        <time>2019-08-17T09:37:51Z</time>
      </trkpt>
      <trkpt lat="41.9679460" lon="-7.3304430">
        <ele>880.7</ele>
        <time>2019-08-17T09:37:52Z</time>
      </trkpt>
      <trkpt lat="41.9678930" lon="-7.3304380">
        <ele>880.8</ele>
        <time>2019-08-17T09:37:53Z</time>
      </trkpt>
      <trkpt lat="41.9678390" lon="-7.3304350">
        <ele>880.9</ele>
        <time>2019-08-17T09:37:54Z</time>
      </trkpt>
      <trkpt lat="41.9677850" lon="-7.3304340">
        <ele>881.0</ele>
        <time>2019-08-17T09:37:55Z</time>
      </trkpt>
      <trkpt lat="41.9677310" lon="-7.3304350">
        <ele>881.0</ele>
        <time>2019-08-17T09:37:56Z</time>
      </trkpt>
      <trkpt lat="41.9676770" lon="-7.3304370">
        <ele>881.1</ele>
        <time>2019-08-17T09:37:57Z</time>
      </trkpt>
      <trkpt lat="41.9676230" lon="-7.3304400">
        <ele>881.2</ele>
        <time>2019-08-17T09:37:58Z</time>
      </trkpt>
      <trkpt lat="41.9675680" lon="-7.3304440">
        <ele>881.3</ele>
        <time>2019-08-17T09:37:59Z</time>
      </trkpt>
      <trkpt lat="41.9675130" lon="-7.3304480">
        <ele>881.3</ele>
        <time>2019-08-17T09:38:00Z</time>
      </trkpt>
      <trkpt lat="41.9674580" lon="-7.3304530">
        <ele>881.4</ele>
        <time>2019-08-17T09:38:01Z</time>
      </trkpt>
      <trkpt lat="41.9674030" lon="-7.3304580">
        <ele>881.4</ele>
        <time>2019-08-17T09:38:02Z</time>
      </trkpt>
      <trkpt lat="41.9673470" lon="-7.3304630">
        <ele>881.4</ele>
        <time>2019-08-17T09:38:03Z</time>
      </trkpt>
      <trkpt lat="41.9672910" lon="-7.3304670">
        <ele>881.5</ele>
        <time>2019-08-17T09:38:04Z</time>
      </trkpt>
      <trkpt lat="41.9672350" lon="-7.3304710">
        <ele>881.5</ele>
        <time>2019-08-17T09:38:05Z</time>
      </trkpt>
      <trkpt lat="41.9671790" lon="-7.3304750">
        <ele>881.5</ele>
        <time>2019-08-17T09:38:06Z</time>
      </trkpt>
      <trkpt lat="41.9671220" lon="-7.3304780">
        <ele>881.5</ele>
        <time>2019-08-17T09:38:07Z</time>
      </trkpt>
      <trkpt lat="41.9670660" lon="-7.3304810">
        <ele>881.5</ele>
        <time>2019-08-17T09:38:08Z</time>
      </trkpt>
      <trkpt lat="41.9670110" lon="-7.3304830">
        <ele>881.6</ele>
        <time>2019-08-17T09:38:09Z</time>
      </trkpt>
      <trkpt lat="41.9669560" lon="-7.3304860">
        <ele>881.6</ele>
        <time>2019-08-17T09:38:10Z</time>
      </trkpt>
      <trkpt lat="41.9669010" lon="-7.3304900">
        <ele>881.6</ele>
        <time>2019-08-17T09:38:11Z</time>
      </trkpt>
      <trkpt lat="41.9668480" lon="-7.3304930">
        <ele>881.6</ele>
        <time>2019-08-17T09:38:12Z</time>
      </trkpt>
      <trkpt lat="41.9667950" lon="-7.3304970">
        <ele>881.7</ele>
        <time>2019-08-17T09:38:13Z</time>
      </trkpt>
      <trkpt lat="41.9667430" lon="-7.3305010">
        <ele>881.7</ele>
        <time>2019-08-17T09:38:14Z</time>
      </trkpt>
      <trkpt lat="41.9666910" lon="-7.3305050">
        <ele>881.8</ele>
        <time>2019-08-17T09:38:15Z</time>
      </trkpt>
      <trkpt lat="41.9666390" lon="-7.3305090">
        <ele>881.9</ele>
        <time>2019-08-17T09:38:16Z</time>
      </trkpt>
      <trkpt lat="41.9665880" lon="-7.3305130">
        <ele>882.0</ele>
        <time>2019-08-17T09:38:17Z</time>
      </trkpt>
      <trkpt lat="41.9665370" lon="-7.3305170">
        <ele>882.1</ele>
        <time>2019-08-17T09:38:18Z</time>
      </trkpt>
      <trkpt lat="41.9664850" lon="-7.3305210">
        <ele>882.1</ele>
        <time>2019-08-17T09:38:19Z</time>
      </trkpt>
      <trkpt lat="41.9664330" lon="-7.3305240">
        <ele>882.2</ele>
        <time>2019-08-17T09:38:20Z</time>
      </trkpt>
      <trkpt lat="41.9663810" lon="-7.3305270">
        <ele>882.3</ele>
        <time>2019-08-17T09:38:21Z</time>
      </trkpt>
      <trkpt lat="41.9663280" lon="-7.3305300">
        <ele>882.4</ele>
        <time>2019-08-17T09:38:22Z</time>
      </trkpt>
      <trkpt lat="41.9662750" lon="-7.3305320">
        <ele>882.5</ele>
        <time>2019-08-17T09:38:23Z</time>
      </trkpt>
      <trkpt lat="41.9662220" lon="-7.3305350">
        <ele>882.6</ele>
        <time>2019-08-17T09:38:24Z</time>
      </trkpt>
      <trkpt lat="41.9661680" lon="-7.3305370">
        <ele>882.6</ele>
        <time>2019-08-17T09:38:25Z</time>
      </trkpt>
      <trkpt lat="41.9661130" lon="-7.3305400">
        <ele>882.7</ele>
        <time>2019-08-17T09:38:26Z</time>
      </trkpt>
      <trkpt lat="41.9660580" lon="-7.3305420">
        <ele>882.8</ele>
        <time>2019-08-17T09:38:27Z</time>
      </trkpt>
      <trkpt lat="41.9660030" lon="-7.3305450">
        <ele>882.9</ele>
        <time>2019-08-17T09:38:28Z</time>
      </trkpt>
      <trkpt lat="41.9659470" lon="-7.3305470">
        <ele>883.0</ele>
        <time>2019-08-17T09:38:29Z</time>
      </trkpt>
      <trkpt lat="41.9658910" lon="-7.3305500">
        <ele>883.0</ele>
        <time>2019-08-17T09:38:30Z</time>
      </trkpt>
      <trkpt lat="41.9658350" lon="-7.3305520">
        <ele>883.1</ele>
        <time>2019-08-17T09:38:31Z</time>
      </trkpt>
      <trkpt lat="41.9657790" lon="-7.3305550">
        <ele>883.2</ele>
        <time>2019-08-17T09:38:32Z</time>
      </trkpt>
      <trkpt lat="41.9657230" lon="-7.3305570">
        <ele>883.2</ele>
        <time>2019-08-17T09:38:33Z</time>
      </trkpt>
      <trkpt lat="41.9656670" lon="-7.3305570">
        <ele>883.3</ele>
        <time>2019-08-17T09:38:34Z</time>
      </trkpt>
      <trkpt lat="41.9656110" lon="-7.3305570">
        <ele>883.3</ele>
        <time>2019-08-17T09:38:35Z</time>
      </trkpt>
      <trkpt lat="41.9655550" lon="-7.3305540">
        <ele>883.4</ele>
        <time>2019-08-17T09:38:36Z</time>
      </trkpt>
      <trkpt lat="41.9654990" lon="-7.3305500">
        <ele>883.4</ele>
        <time>2019-08-17T09:38:37Z</time>
      </trkpt>
      <trkpt lat="41.9654430" lon="-7.3305420">
        <ele>883.4</ele>
        <time>2019-08-17T09:38:38Z</time>
      </trkpt>
      <trkpt lat="41.9653870" lon="-7.3305310">
        <ele>883.4</ele>
        <time>2019-08-17T09:38:39Z</time>
      </trkpt>
      <trkpt lat="41.9653320" lon="-7.3305180">
        <ele>883.4</ele>
        <time>2019-08-17T09:38:40Z</time>
      </trkpt>
      <trkpt lat="41.9652760" lon="-7.3305010">
        <ele>883.4</ele>
        <time>2019-08-17T09:38:41Z</time>
      </trkpt>
      <trkpt lat="41.9652210" lon="-7.3304820">
        <ele>883.4</ele>
        <time>2019-08-17T09:38:42Z</time>
      </trkpt>
      <trkpt lat="41.9651660" lon="-7.3304600">
        <ele>883.4</ele>
        <time>2019-08-17T09:38:43Z</time>
      </trkpt>
      <trkpt lat="41.9651110" lon="-7.3304370">
        <ele>883.4</ele>
        <time>2019-08-17T09:38:44Z</time>
      </trkpt>
      <trkpt lat="41.9650570" lon="-7.3304110">
        <ele>883.4</ele>
        <time>2019-08-17T09:38:45Z</time>
      </trkpt>
      <trkpt lat="41.9650030" lon="-7.3303840">
        <ele>883.4</ele>
        <time>2019-08-17T09:38:46Z</time>
      </trkpt>
      <trkpt lat="41.9649490" lon="-7.3303550">
        <ele>883.4</ele>
        <time>2019-08-17T09:38:47Z</time>
      </trkpt>
      <trkpt lat="41.9648950" lon="-7.3303250">
        <ele>883.4</ele>
        <time>2019-08-17T09:38:48Z</time>
      </trkpt>
      <trkpt lat="41.9648420" lon="-7.3302940">
        <ele>883.4</ele>
        <time>2019-08-17T09:38:49Z</time>
      </trkpt>
      <trkpt lat="41.9647890" lon="-7.3302630">
        <ele>883.4</ele>
        <time>2019-08-17T09:38:50Z</time>
      </trkpt>
      <trkpt lat="41.9647360" lon="-7.3302300">
        <ele>883.4</ele>
        <time>2019-08-17T09:38:51Z</time>
      </trkpt>
      <trkpt lat="41.9646830" lon="-7.3301980">
        <ele>883.4</ele>
        <time>2019-08-17T09:38:52Z</time>
      </trkpt>
      <trkpt lat="41.9646300" lon="-7.3301650">
        <ele>883.4</ele>
        <time>2019-08-17T09:38:53Z</time>
      </trkpt>
      <trkpt lat="41.9645780" lon="-7.3301320">
        <ele>883.4</ele>
        <time>2019-08-17T09:38:54Z</time>
      </trkpt>
      <trkpt lat="41.9645260" lon="-7.3301000">
        <ele>883.4</ele>
        <time>2019-08-17T09:38:55Z</time>
      </trkpt>
      <trkpt lat="41.9644740" lon="-7.3300670">
        <ele>883.4</ele>
        <time>2019-08-17T09:38:56Z</time>
      </trkpt>
      <trkpt lat="41.9644210" lon="-7.3300340">
        <ele>883.4</ele>
        <time>2019-08-17T09:38:57Z</time>
      </trkpt>
      <trkpt lat="41.9643690" lon="-7.3300010">
        <ele>883.5</ele>
        <time>2019-08-17T09:38:58Z</time>
      </trkpt>
      <trkpt lat="41.9643170" lon="-7.3299670">
        <ele>883.5</ele>
        <time>2019-08-17T09:38:59Z</time>
      </trkpt>
      <trkpt lat="41.9642650" lon="-7.3299340">
        <ele>883.6</ele>
        <time>2019-08-17T09:39:00Z</time>
      </trkpt>
      <trkpt lat="41.9642130" lon="-7.3299020">
        <ele>883.7</ele>
        <time>2019-08-17T09:39:01Z</time>
      </trkpt>
      <trkpt lat="41.9641600" lon="-7.3298690">
        <ele>883.8</ele>
        <time>2019-08-17T09:39:02Z</time>
      </trkpt>
      <trkpt lat="41.9641070" lon="-7.3298380">
        <ele>883.9</ele>
        <time>2019-08-17T09:39:03Z</time>
      </trkpt>
      <trkpt lat="41.9640530" lon="-7.3298080">
        <ele>884.0</ele>
        <time>2019-08-17T09:39:04Z</time>
      </trkpt>
      <trkpt lat="41.9639980" lon="-7.3297790">
        <ele>884.1</ele>
        <time>2019-08-17T09:39:05Z</time>
      </trkpt>
      <trkpt lat="41.9639420" lon="-7.3297520">
        <ele>884.3</ele>
        <time>2019-08-17T09:39:06Z</time>
      </trkpt>
      <trkpt lat="41.9638860" lon="-7.3297260">
        <ele>884.4</ele>
        <time>2019-08-17T09:39:07Z</time>
      </trkpt>
      <trkpt lat="41.9638290" lon="-7.3297020">
        <ele>884.5</ele>
        <time>2019-08-17T09:39:08Z</time>
      </trkpt>
      <trkpt lat="41.9637710" lon="-7.3296810">
        <ele>884.6</ele>
        <time>2019-08-17T09:39:09Z</time>
      </trkpt>
      <trkpt lat="41.9637130" lon="-7.3296620">
        <ele>884.8</ele>
        <time>2019-08-17T09:39:10Z</time>
      </trkpt>
      <trkpt lat="41.9636540" lon="-7.3296450">
        <ele>884.9</ele>
        <time>2019-08-17T09:39:11Z</time>
      </trkpt>
      <trkpt lat="41.9635960" lon="-7.3296310">
        <ele>885.0</ele>
        <time>2019-08-17T09:39:12Z</time>
      </trkpt>
      <trkpt lat="41.9635370" lon="-7.3296200">
        <ele>885.1</ele>
        <time>2019-08-17T09:39:13Z</time>
      </trkpt>
      <trkpt lat="41.9634770" lon="-7.3296110">
        <ele>885.2</ele>
        <time>2019-08-17T09:39:14Z</time>
      </trkpt>
      <trkpt lat="41.9634180" lon="-7.3296050">
        <ele>885.2</ele>
        <time>2019-08-17T09:39:15Z</time>
      </trkpt>
      <trkpt lat="41.9633590" lon="-7.3296010">
        <ele>885.3</ele>
        <time>2019-08-17T09:39:16Z</time>
      </trkpt>
      <trkpt lat="41.9632990" lon="-7.3295990">
        <ele>885.3</ele>
        <time>2019-08-17T09:39:17Z</time>
      </trkpt>
      <trkpt lat="41.9632390" lon="-7.3295990">
        <ele>885.4</ele>
        <time>2019-08-17T09:39:18Z</time>
      </trkpt>
      <trkpt lat="41.9631790" lon="-7.3296000">
        <ele>885.5</ele>
        <time>2019-08-17T09:39:19Z</time>
      </trkpt>
      <trkpt lat="41.9631190" lon="-7.3296020">
        <ele>885.6</ele>
        <time>2019-08-17T09:39:20Z</time>
      </trkpt>
      <trkpt lat="41.9630590" lon="-7.3296050">
        <ele>885.7</ele>
        <time>2019-08-17T09:39:21Z</time>
      </trkpt>
      <trkpt lat="41.9629990" lon="-7.3296090">
        <ele>885.8</ele>
        <time>2019-08-17T09:39:22Z</time>
      </trkpt>
      <trkpt lat="41.9629390" lon="-7.3296130">
        <ele>885.9</ele>
        <time>2019-08-17T09:39:23Z</time>
      </trkpt>
      <trkpt lat="41.9628790" lon="-7.3296180">
        <ele>885.9</ele>
        <time>2019-08-17T09:39:24Z</time>
      </trkpt>
      <trkpt lat="41.9628190" lon="-7.3296220">
        <ele>886.0</ele>
        <time>2019-08-17T09:39:25Z</time>
      </trkpt>
      <trkpt lat="41.9627590" lon="-7.3296270">
        <ele>886.1</ele>
        <time>2019-08-17T09:39:26Z</time>
      </trkpt>
      <trkpt lat="41.9626990" lon="-7.3296310">
        <ele>886.1</ele>
        <time>2019-08-17T09:39:27Z</time>
      </trkpt>
      <trkpt lat="41.9626390" lon="-7.3296350">
        <ele>886.2</ele>
        <time>2019-08-17T09:39:28Z</time>
      </trkpt>
      <trkpt lat="41.9625790" lon="-7.3296390">
        <ele>886.2</ele>
        <time>2019-08-17T09:39:29Z</time>
      </trkpt>
      <trkpt lat="41.9625200" lon="-7.3296430">
        <ele>886.2</ele>
        <time>2019-08-17T09:39:30Z</time>
      </trkpt>
      <trkpt lat="41.9624610" lon="-7.3296470">
        <ele>886.2</ele>
        <time>2019-08-17T09:39:31Z</time>
      </trkpt>
      <trkpt lat="41.9624020" lon="-7.3296520">
        <ele>886.2</ele>
        <time>2019-08-17T09:39:32Z</time>
      </trkpt>
      <trkpt lat="41.9623430" lon="-7.3296560">
        <ele>886.3</ele>
        <time>2019-08-17T09:39:33Z</time>
      </trkpt>
      <trkpt lat="41.9622850" lon="-7.3296610">
        <ele>886.3</ele>
        <time>2019-08-17T09:39:34Z</time>
      </trkpt>
      <trkpt lat="41.9622280" lon="-7.3296660">
        <ele>886.3</ele>
        <time>2019-08-17T09:39:35Z</time>
      </trkpt>
      <trkpt lat="41.9621720" lon="-7.3296710">
        <ele>886.3</ele>
        <time>2019-08-17T09:39:36Z</time>
      </trkpt>
      <trkpt lat="41.9621160" lon="-7.3296750">
        <ele>886.4</ele>
        <time>2019-08-17T09:39:37Z</time>
      </trkpt>
      <trkpt lat="41.9620620" lon="-7.3296800">
        <ele>886.4</ele>
        <time>2019-08-17T09:39:38Z</time>
      </trkpt>
      <trkpt lat="41.9620090" lon="-7.3296840">
        <ele>886.5</ele>
        <time>2019-08-17T09:39:39Z</time>
      </trkpt>
      <trkpt lat="41.9619580" lon="-7.3296870">
        <ele>886.5</ele>
        <time>2019-08-17T09:39:40Z</time>
      </trkpt>
      <trkpt lat="41.9619080" lon="-7.3296900">
        <ele>886.6</ele>
        <time>2019-08-17T09:39:41Z</time>
      </trkpt>
      <trkpt lat="41.9618580" lon="-7.3296930">
        <ele>886.7</ele>
        <time>2019-08-17T09:39:42Z</time>
      </trkpt>
      <trkpt lat="41.9618090" lon="-7.3296960">
        <ele>886.8</ele>
        <time>2019-08-17T09:39:43Z</time>
      </trkpt>
      <trkpt lat="41.9617610" lon="-7.3296990">
        <ele>886.9</ele>
        <time>2019-08-17T09:39:44Z</time>
      </trkpt>
      <trkpt lat="41.9617120" lon="-7.3297020">
        <ele>887.0</ele>
        <time>2019-08-17T09:39:45Z</time>
      </trkpt>
      <trkpt lat="41.9616630" lon="-7.3297050">
        <ele>887.0</ele>
        <time>2019-08-17T09:39:46Z</time>
      </trkpt>
      <trkpt lat="41.9616140" lon="-7.3297080">
        <ele>887.1</ele>
        <time>2019-08-17T09:39:47Z</time>
      </trkpt>
      <trkpt lat="41.9615640" lon="-7.3297120">
        <ele>887.2</ele>
        <time>2019-08-17T09:39:48Z</time>
      </trkpt>
      <trkpt lat="41.9615140" lon="-7.3297160">
        <ele>887.3</ele>
        <time>2019-08-17T09:39:49Z</time>
      </trkpt>
      <trkpt lat="41.9614640" lon="-7.3297200">
        <ele>887.4</ele>
        <time>2019-08-17T09:39:50Z</time>
      </trkpt>
      <trkpt lat="41.9614140" lon="-7.3297240">
        <ele>887.5</ele>
        <time>2019-08-17T09:39:51Z</time>
      </trkpt>
      <trkpt lat="41.9613650" lon="-7.3297280">
        <ele>887.5</ele>
        <time>2019-08-17T09:39:52Z</time>
      </trkpt>
      <trkpt lat="41.9613160" lon="-7.3297310">
        <ele>887.6</ele>
        <time>2019-08-17T09:39:53Z</time>
      </trkpt>
      <trkpt lat="41.9612680" lon="-7.3297350">
        <ele>887.7</ele>
        <time>2019-08-17T09:39:54Z</time>
      </trkpt>
      <trkpt lat="41.9612210" lon="-7.3297380">
        <ele>887.8</ele>
        <time>2019-08-17T09:39:55Z</time>
      </trkpt>
      <trkpt lat="41.9611730" lon="-7.3297410">
        <ele>887.9</ele>
        <time>2019-08-17T09:39:56Z</time>
      </trkpt>
      <trkpt lat="41.9611250" lon="-7.3297440">
        <ele>888.1</ele>
        <time>2019-08-17T09:39:57Z</time>
      </trkpt>
      <trkpt lat="41.9610760" lon="-7.3297470">
        <ele>888.2</ele>
        <time>2019-08-17T09:39:58Z</time>
      </trkpt>
      <trkpt lat="41.9610270" lon="-7.3297510">
        <ele>888.3</ele>
        <time>2019-08-17T09:39:59Z</time>
      </trkpt>
      <trkpt lat="41.9609770" lon="-7.3297540">
        <ele>888.4</ele>
        <time>2019-08-17T09:40:00Z</time>
      </trkpt>
      <trkpt lat="41.9609260" lon="-7.3297580">
        <ele>888.5</ele>
        <time>2019-08-17T09:40:01Z</time>
      </trkpt>
      <trkpt lat="41.9608740" lon="-7.3297610">
        <ele>888.6</ele>
        <time>2019-08-17T09:40:02Z</time>
      </trkpt>
      <trkpt lat="41.9608210" lon="-7.3297650">
        <ele>888.7</ele>
        <time>2019-08-17T09:40:03Z</time>
      </trkpt>
      <trkpt lat="41.9607680" lon="-7.3297680">
        <ele>888.9</ele>
        <time>2019-08-17T09:40:04Z</time>
      </trkpt>
      <trkpt lat="41.9607150" lon="-7.3297710">
        <ele>889.0</ele>
        <time>2019-08-17T09:40:05Z</time>
      </trkpt>
      <trkpt lat="41.9606610" lon="-7.3297730">
        <ele>889.1</ele>
        <time>2019-08-17T09:40:06Z</time>
      </trkpt>
      <trkpt lat="41.9606070" lon="-7.3297740">
        <ele>889.2</ele>
        <time>2019-08-17T09:40:07Z</time>
      </trkpt>
      <trkpt lat="41.9605530" lon="-7.3297750">
        <ele>889.3</ele>
        <time>2019-08-17T09:40:08Z</time>
      </trkpt>
      <trkpt lat="41.9604990" lon="-7.3297750">
        <ele>889.5</ele>
        <time>2019-08-17T09:40:09Z</time>
      </trkpt>
      <trkpt lat="41.9604460" lon="-7.3297740">
        <ele>889.6</ele>
        <time>2019-08-17T09:40:10Z</time>
      </trkpt>
      <trkpt lat="41.9603920" lon="-7.3297730">
        <ele>889.7</ele>
        <time>2019-08-17T09:40:11Z</time>
      </trkpt>
      <trkpt lat="41.9603380" lon="-7.3297710">
        <ele>889.9</ele>
        <time>2019-08-17T09:40:12Z</time>
      </trkpt>
      <trkpt lat="41.9602850" lon="-7.3297690">
        <ele>890.0</ele>
        <time>2019-08-17T09:40:13Z</time>
      </trkpt>
      <trkpt lat="41.9602320" lon="-7.3297650">
        <ele>890.1</ele>
        <time>2019-08-17T09:40:14Z</time>
      </trkpt>
      <trkpt lat="41.9601790" lon="-7.3297610">
        <ele>890.3</ele>
        <time>2019-08-17T09:40:15Z</time>
      </trkpt>
      <trkpt lat="41.9601260" lon="-7.3297570">
        <ele>890.4</ele>
        <time>2019-08-17T09:40:16Z</time>
      </trkpt>
      <trkpt lat="41.9600740" lon="-7.3297510">
        <ele>890.5</ele>
        <time>2019-08-17T09:40:17Z</time>
      </trkpt>
      <trkpt lat="41.9600220" lon="-7.3297450">
        <ele>890.7</ele>
        <time>2019-08-17T09:40:18Z</time>
      </trkpt>
      <trkpt lat="41.9599710" lon="-7.3297390">
        <ele>890.8</ele>
        <time>2019-08-17T09:40:19Z</time>
      </trkpt>
      <trkpt lat="41.9599200" lon="-7.3297310">
        <ele>891.0</ele>
        <time>2019-08-17T09:40:20Z</time>
      </trkpt>
      <trkpt lat="41.9598690" lon="-7.3297230">
        <ele>891.1</ele>
        <time>2019-08-17T09:40:21Z</time>
      </trkpt>
      <trkpt lat="41.9598200" lon="-7.3297150">
        <ele>891.3</ele>
        <time>2019-08-17T09:40:22Z</time>
      </trkpt>
      <trkpt lat="41.9597700" lon="-7.3297060">
        <ele>891.4</ele>
        <time>2019-08-17T09:40:23Z</time>
      </trkpt>
      <trkpt lat="41.9597210" lon="-7.3296960">
        <ele>891.5</ele>
        <time>2019-08-17T09:40:24Z</time>
      </trkpt>
      <trkpt lat="41.9596730" lon="-7.3296860">
        <ele>891.6</ele>
        <time>2019-08-17T09:40:25Z</time>
      </trkpt>
      <trkpt lat="41.9596250" lon="-7.3296760">
        <ele>891.7</ele>
        <time>2019-08-17T09:40:26Z</time>
      </trkpt>
      <trkpt lat="41.9595770" lon="-7.3296660">
        <ele>891.8</ele>
        <time>2019-08-17T09:40:27Z</time>
      </trkpt>
      <trkpt lat="41.9595300" lon="-7.3296550">
        <ele>891.9</ele>
        <time>2019-08-17T09:40:28Z</time>
      </trkpt>
      <trkpt lat="41.9594830" lon="-7.3296440">
        <ele>892.0</ele>
        <time>2019-08-17T09:40:29Z</time>
      </trkpt>
      <trkpt lat="41.9594370" lon="-7.3296330">
        <ele>892.0</ele>
        <time>2019-08-17T09:40:30Z</time>
      </trkpt>
      <trkpt lat="41.9593910" lon="-7.3296210">
        <ele>892.0</ele>
        <time>2019-08-17T09:40:31Z</time>
      </trkpt>
      <trkpt lat="41.9593460" lon="-7.3296100">
        <ele>892.1</ele>
        <time>2019-08-17T09:40:32Z</time>
      </trkpt>
      <trkpt lat="41.9593010" lon="-7.3295990">
        <ele>892.1</ele>
        <time>2019-08-17T09:40:33Z</time>
      </trkpt>
      <trkpt lat="41.9592560" lon="-7.3295870">
        <ele>892.2</ele>
        <time>2019-08-17T09:40:34Z</time>
      </trkpt>
      <trkpt lat="41.9592110" lon="-7.3295760">
        <ele>892.2</ele>
        <time>2019-08-17T09:40:35Z</time>
      </trkpt>
      <trkpt lat="41.9591670" lon="-7.3295650">
        <ele>892.3</ele>
        <time>2019-08-17T09:40:36Z</time>
      </trkpt>
      <trkpt lat="41.9591230" lon="-7.3295530">
        <ele>892.4</ele>
        <time>2019-08-17T09:40:37Z</time>
      </trkpt>
      <trkpt lat="41.9590790" lon="-7.3295420">
        <ele>892.4</ele>
        <time>2019-08-17T09:40:38Z</time>
      </trkpt>
      <trkpt lat="41.9590350" lon="-7.3295300">
        <ele>892.5</ele>
        <time>2019-08-17T09:40:39Z</time>
      </trkpt>
      <trkpt lat="41.9589910" lon="-7.3295180">
        <ele>892.6</ele>
        <time>2019-08-17T09:40:40Z</time>
      </trkpt>
      <trkpt lat="41.9589470" lon="-7.3295060">
        <ele>892.7</ele>
        <time>2019-08-17T09:40:41Z</time>
      </trkpt>
      <trkpt lat="41.9589030" lon="-7.3294940">
        <ele>892.7</ele>
        <time>2019-08-17T09:40:42Z</time>
      </trkpt>
      <trkpt lat="41.9588590" lon="-7.3294810">
        <ele>892.8</ele>
        <time>2019-08-17T09:40:43Z</time>
      </trkpt>
      <trkpt lat="41.9588140" lon="-7.3294690">
        <ele>892.9</ele>
        <time>2019-08-17T09:40:44Z</time>
      </trkpt>
      <trkpt lat="41.9587680" lon="-7.3294550">
        <ele>892.9</ele>
        <time>2019-08-17T09:40:45Z</time>
      </trkpt>
      <trkpt lat="41.9587230" lon="-7.3294420">
        <ele>892.9</ele>
        <time>2019-08-17T09:40:46Z</time>
      </trkpt>
      <trkpt lat="41.9586760" lon="-7.3294280">
        <ele>893.0</ele>
        <time>2019-08-17T09:40:47Z</time>
      </trkpt>
      <trkpt lat="41.9586300" lon="-7.3294130">
        <ele>893.0</ele>
        <time>2019-08-17T09:40:48Z</time>
      </trkpt>
      <trkpt lat="41.9585830" lon="-7.3293990">
        <ele>893.0</ele>
        <time>2019-08-17T09:40:49Z</time>
      </trkpt>
      <trkpt lat="41.9585360" lon="-7.3293850">
        <ele>893.1</ele>
        <time>2019-08-17T09:40:50Z</time>
      </trkpt>
      <trkpt lat="41.9584900" lon="-7.3293700">
        <ele>893.1</ele>
        <time>2019-08-17T09:40:51Z</time>
      </trkpt>
      <trkpt lat="41.9584440" lon="-7.3293570">
        <ele>893.1</ele>
        <time>2019-08-17T09:40:52Z</time>
      </trkpt>
      <trkpt lat="41.9583980" lon="-7.3293430">
        <ele>893.2</ele>
        <time>2019-08-17T09:40:53Z</time>
      </trkpt>
      <trkpt lat="41.9583530" lon="-7.3293300">
        <ele>893.3</ele>
        <time>2019-08-17T09:40:54Z</time>
      </trkpt>
      <trkpt lat="41.9583090" lon="-7.3293180">
        <ele>893.3</ele>
        <time>2019-08-17T09:40:55Z</time>
      </trkpt>
      <trkpt lat="41.9582650" lon="-7.3293060">
        <ele>893.4</ele>
        <time>2019-08-17T09:40:56Z</time>
      </trkpt>
      <trkpt lat="41.9582210" lon="-7.3292940">
        <ele>893.5</ele>
        <time>2019-08-17T09:40:57Z</time>
      </trkpt>
      <trkpt lat="41.9581770" lon="-7.3292820">
        <ele>893.6</ele>
        <time>2019-08-17T09:40:58Z</time>
      </trkpt>
      <trkpt lat="41.9581330" lon="-7.3292700">
        <ele>893.7</ele>
        <time>2019-08-17T09:40:59Z</time>
      </trkpt>
      <trkpt lat="41.9580890" lon="-7.3292570">
        <ele>893.7</ele>
        <time>2019-08-17T09:41:00Z</time>
      </trkpt>
      <trkpt lat="41.9580440" lon="-7.3292450">
        <ele>893.8</ele>
        <time>2019-08-17T09:41:01Z</time>
      </trkpt>
      <trkpt lat="41.9579990" lon="-7.3292320">
        <ele>893.8</ele>
        <time>2019-08-17T09:41:02Z</time>
      </trkpt>
      <trkpt lat="41.9579540" lon="-7.3292190">
        <ele>893.9</ele>
        <time>2019-08-17T09:41:03Z</time>
      </trkpt>
      <trkpt lat="41.9579090" lon="-7.3292050">
        <ele>893.9</ele>
        <time>2019-08-17T09:41:04Z</time>
      </trkpt>
      <trkpt lat="41.9578630" lon="-7.3291920">
        <ele>893.9</ele>
        <time>2019-08-17T09:41:05Z</time>
      </trkpt>
      <trkpt lat="41.9578170" lon="-7.3291780">
        <ele>893.9</ele>
        <time>2019-08-17T09:41:06Z</time>
      </trkpt>
      <trkpt lat="41.9577710" lon="-7.3291640">
        <ele>893.9</ele>
        <time>2019-08-17T09:41:07Z</time>
      </trkpt>
      <trkpt lat="41.9577250" lon="-7.3291500">
        <ele>893.9</ele>
        <time>2019-08-17T09:41:08Z</time>
      </trkpt>
      <trkpt lat="41.9576790" lon="-7.3291370">
        <ele>893.9</ele>
        <time>2019-08-17T09:41:09Z</time>
      </trkpt>
      <trkpt lat="41.9576330" lon="-7.3291230">
        <ele>893.9</ele>
        <time>2019-08-17T09:41:10Z</time>
      </trkpt>
      <trkpt lat="41.9575880" lon="-7.3291090">
        <ele>893.9</ele>
        <time>2019-08-17T09:41:11Z</time>
      </trkpt>
      <trkpt lat="41.9575420" lon="-7.3290960">
        <ele>893.9</ele>
        <time>2019-08-17T09:41:12Z</time>
      </trkpt>
      <trkpt lat="41.9574960" lon="-7.3290820">
        <ele>893.8</ele>
        <time>2019-08-17T09:41:13Z</time>
      </trkpt>
      <trkpt lat="41.9574510" lon="-7.3290690">
        <ele>893.8</ele>
        <time>2019-08-17T09:41:14Z</time>
      </trkpt>
      <trkpt lat="41.9574050" lon="-7.3290560">
        <ele>893.7</ele>
        <time>2019-08-17T09:41:15Z</time>
      </trkpt>
      <trkpt lat="41.9573600" lon="-7.3290420">
        <ele>893.6</ele>
        <time>2019-08-17T09:41:16Z</time>
      </trkpt>
      <trkpt lat="41.9573140" lon="-7.3290290">
        <ele>893.5</ele>
        <time>2019-08-17T09:41:17Z</time>
      </trkpt>
      <trkpt lat="41.9572680" lon="-7.3290160">
        <ele>893.3</ele>
        <time>2019-08-17T09:41:18Z</time>
      </trkpt>
      <trkpt lat="41.9572220" lon="-7.3290030">
        <ele>893.1</ele>
        <time>2019-08-17T09:41:19Z</time>
      </trkpt>
      <trkpt lat="41.9571750" lon="-7.3289900">
        <ele>892.9</ele>
        <time>2019-08-17T09:41:20Z</time>
      </trkpt>
      <trkpt lat="41.9571270" lon="-7.3289770">
        <ele>892.7</ele>
        <time>2019-08-17T09:41:21Z</time>
      </trkpt>
      <trkpt lat="41.9570790" lon="-7.3289640">
        <ele>892.5</ele>
        <time>2019-08-17T09:41:22Z</time>
      </trkpt>
      <trkpt lat="41.9570290" lon="-7.3289500">
        <ele>892.4</ele>
        <time>2019-08-17T09:41:23Z</time>
      </trkpt>
      <trkpt lat="41.9569780" lon="-7.3289370">
        <ele>892.2</ele>
        <time>2019-08-17T09:41:24Z</time>
      </trkpt>
      <trkpt lat="41.9569260" lon="-7.3289220">
        <ele>892.0</ele>
        <time>2019-08-17T09:41:25Z</time>
      </trkpt>
      <trkpt lat="41.9568710" lon="-7.3289080">
        <ele>891.8</ele>
        <time>2019-08-17T09:41:26Z</time>
      </trkpt>
      <trkpt lat="41.9568150" lon="-7.3288930">
        <ele>891.7</ele>
        <time>2019-08-17T09:41:27Z</time>
      </trkpt>
      <trkpt lat="41.9567570" lon="-7.3288780">
        <ele>891.5</ele>
        <time>2019-08-17T09:41:28Z</time>
      </trkpt>
      <trkpt lat="41.9566960" lon="-7.3288630">
        <ele>891.2</ele>
        <time>2019-08-17T09:41:29Z</time>
      </trkpt>
      <trkpt lat="41.9566330" lon="-7.3288490">
        <ele>890.9</ele>
        <time>2019-08-17T09:41:30Z</time>
      </trkpt>
      <trkpt lat="41.9565680" lon="-7.3288360">
        <ele>890.5</ele>
        <time>2019-08-17T09:41:31Z</time>
      </trkpt>
      <trkpt lat="41.9564650" lon="-7.3288210">
        <ele>889.9</ele>
        <time>2019-08-17T09:41:32Z</time>
      </trkpt>
      <trkpt lat="41.9564290" lon="-7.3288170">
        <ele>889.6</ele>
        <time>2019-08-17T09:41:33Z</time>
      </trkpt>
      <trkpt lat="41.9563550" lon="-7.3288120">
        <ele>889.2</ele>
        <time>2019-08-17T09:41:34Z</time>
      </trkpt>
      <trkpt lat="41.9562790" lon="-7.3288110">
        <ele>888.8</ele>
        <time>2019-08-17T09:41:35Z</time>
      </trkpt>
      <trkpt lat="41.9562010" lon="-7.3288160">
        <ele>888.3</ele>
        <time>2019-08-17T09:41:36Z</time>
      </trkpt>
      <trkpt lat="41.9561220" lon="-7.3288280">
        <ele>887.9</ele>
        <time>2019-08-17T09:41:37Z</time>
      </trkpt>
      <trkpt lat="41.9560430" lon="-7.3288480">
        <ele>887.4</ele>
        <time>2019-08-17T09:41:38Z</time>
      </trkpt>
      <trkpt lat="41.9559620" lon="-7.3288790">
        <ele>887.0</ele>
        <time>2019-08-17T09:41:39Z</time>
      </trkpt>
      <trkpt lat="41.9558830" lon="-7.3289220">
        <ele>886.5</ele>
        <time>2019-08-17T09:41:40Z</time>
      </trkpt>
      <trkpt lat="41.9558040" lon="-7.3289750">
        <ele>886.1</ele>
        <time>2019-08-17T09:41:41Z</time>
      </trkpt>
      <trkpt lat="41.9557280" lon="-7.3290370">
        <ele>885.7</ele>
        <time>2019-08-17T09:41:42Z</time>
      </trkpt>
      <trkpt lat="41.9556560" lon="-7.3291080">
        <ele>885.3</ele>
        <time>2019-08-17T09:41:43Z</time>
      </trkpt>
      <trkpt lat="41.9555880" lon="-7.3291860">
        <ele>884.8</ele>
        <time>2019-08-17T09:41:44Z</time>
      </trkpt>
      <trkpt lat="41.9555250" lon="-7.3292720">
        <ele>884.4</ele>
        <time>2019-08-17T09:41:45Z</time>
      </trkpt>
      <trkpt lat="41.9554670" lon="-7.3293670">
        <ele>884.0</ele>
        <time>2019-08-17T09:41:46Z</time>
      </trkpt>
      <trkpt lat="41.9554170" lon="-7.3294750">
        <ele>883.6</ele>
        <time>2019-08-17T09:41:47Z</time>
      </trkpt>
      <trkpt lat="41.9553670" lon="-7.3295830">
        <ele>883.2</ele>
        <time>2019-08-17T09:41:48Z</time>
      </trkpt>
      <trkpt lat="41.9553280" lon="-7.3297030">
        <ele>883.0</ele>
        <time>2019-08-17T09:41:49Z</time>
      </trkpt>
      <trkpt lat="41.9552960" lon="-7.3298290">
        <ele>882.8</ele>
        <time>2019-08-17T09:41:50Z</time>
      </trkpt>
      <trkpt lat="41.9552730" lon="-7.3299610">
        <ele>882.5</ele>
        <time>2019-08-17T09:41:51Z</time>
      </trkpt>
      <trkpt lat="41.9552570" lon="-7.3300960">
        <ele>882.1</ele>
        <time>2019-08-17T09:41:52Z</time>
      </trkpt>
      <trkpt lat="41.9552460" lon="-7.3302340">
        <ele>881.6</ele>
        <time>2019-08-17T09:41:53Z</time>
      </trkpt>
      <trkpt lat="41.9552370" lon="-7.3303730">
        <ele>881.1</ele>
        <time>2019-08-17T09:41:54Z</time>
      </trkpt>
      <trkpt lat="41.9552310" lon="-7.3305130">
        <ele>880.6</ele>
        <time>2019-08-17T09:41:55Z</time>
      </trkpt>
      <trkpt lat="41.9552270" lon="-7.3306520">
        <ele>880.2</ele>
        <time>2019-08-17T09:41:56Z</time>
      </trkpt>
      <trkpt lat="41.9552230" lon="-7.3307920">
        <ele>879.7</ele>
        <time>2019-08-17T09:41:57Z</time>
      </trkpt>
      <trkpt lat="41.9552200" lon="-7.3309310">
        <ele>879.2</ele>
        <time>2019-08-17T09:41:58Z</time>
      </trkpt>
      <trkpt lat="41.9552170" lon="-7.3310700">
        <ele>878.8</ele>
        <time>2019-08-17T09:41:59Z</time>
      </trkpt>
      <trkpt lat="41.9552140" lon="-7.3312070">
        <ele>878.3</ele>
        <time>2019-08-17T09:42:00Z</time>
      </trkpt>
      <trkpt lat="41.9552100" lon="-7.3313420">
        <ele>877.8</ele>
        <time>2019-08-17T09:42:01Z</time>
      </trkpt>
      <trkpt lat="41.9552060" lon="-7.3314760">
        <ele>876.9</ele>
        <time>2019-08-17T09:42:02Z</time>
      </trkpt>
      <trkpt lat="41.9552020" lon="-7.3316090">
        <ele>876.1</ele>
        <time>2019-08-17T09:42:03Z</time>
      </trkpt>
      <trkpt lat="41.9552000" lon="-7.3317430">
        <ele>875.3</ele>
        <time>2019-08-17T09:42:04Z</time>
      </trkpt>
      <trkpt lat="41.9552000" lon="-7.3318770">
        <ele>874.4</ele>
        <time>2019-08-17T09:42:05Z</time>
      </trkpt>
      <trkpt lat="41.9552030" lon="-7.3320120">
        <ele>873.6</ele>
        <time>2019-08-17T09:42:06Z</time>
      </trkpt>
      <trkpt lat="41.9552100" lon="-7.3321490">
        <ele>872.7</ele>
        <time>2019-08-17T09:42:07Z</time>
      </trkpt>
      <trkpt lat="41.9552210" lon="-7.3322880">
        <ele>872.1</ele>
        <time>2019-08-17T09:42:08Z</time>
      </trkpt>
      <trkpt lat="41.9552370" lon="-7.3324270">
        <ele>871.5</ele>
        <time>2019-08-17T09:42:09Z</time>
      </trkpt>
      <trkpt lat="41.9552580" lon="-7.3325670">
        <ele>870.9</ele>
        <time>2019-08-17T09:42:10Z</time>
      </trkpt>
      <trkpt lat="41.9552850" lon="-7.3327060">
        <ele>870.3</ele>
        <time>2019-08-17T09:42:11Z</time>
      </trkpt>
      <trkpt lat="41.9553180" lon="-7.3328430">
        <ele>869.7</ele>
        <time>2019-08-17T09:42:12Z</time>
      </trkpt>
      <trkpt lat="41.9553570" lon="-7.3329780">
        <ele>869.2</ele>
        <time>2019-08-17T09:42:13Z</time>
      </trkpt>
      <trkpt lat="41.9554030" lon="-7.3331100">
        <ele>868.6</ele>
        <time>2019-08-17T09:42:14Z</time>
      </trkpt>
      <trkpt lat="41.9554550" lon="-7.3332400">
        <ele>868.1</ele>
        <time>2019-08-17T09:42:15Z</time>
      </trkpt>
      <trkpt lat="41.9555120" lon="-7.3333680">
        <ele>867.5</ele>
        <time>2019-08-17T09:42:16Z</time>
      </trkpt>
      <trkpt lat="41.9555730" lon="-7.3334930">
        <ele>866.9</ele>
        <time>2019-08-17T09:42:17Z</time>
      </trkpt>
      <trkpt lat="41.9556380" lon="-7.3336170">
        <ele>866.4</ele>
        <time>2019-08-17T09:42:18Z</time>
      </trkpt>
      <trkpt lat="41.9557050" lon="-7.3337400">
        <ele>865.9</ele>
        <time>2019-08-17T09:42:19Z</time>
      </trkpt>
      <trkpt lat="41.9557730" lon="-7.3338620">
        <ele>865.2</ele>
        <time>2019-08-17T09:42:20Z</time>
      </trkpt>
      <trkpt lat="41.9558420" lon="-7.3339830">
        <ele>864.5</ele>
        <time>2019-08-17T09:42:21Z</time>
      </trkpt>
      <trkpt lat="41.9559100" lon="-7.3341040">
        <ele>863.9</ele>
        <time>2019-08-17T09:42:22Z</time>
      </trkpt>
      <trkpt lat="41.9559770" lon="-7.3342260">
        <ele>863.4</ele>
        <time>2019-08-17T09:42:23Z</time>
      </trkpt>
      <trkpt lat="41.9560410" lon="-7.3343500">
        <ele>862.9</ele>
        <time>2019-08-17T09:42:24Z</time>
      </trkpt>
      <trkpt lat="41.9561020" lon="-7.3344770">
        <ele>862.4</ele>
        <time>2019-08-17T09:42:25Z</time>
      </trkpt>
      <trkpt lat="41.9561600" lon="-7.3346070">
        <ele>861.9</ele>
        <time>2019-08-17T09:42:26Z</time>
      </trkpt>
      <trkpt lat="41.9562120" lon="-7.3347420">
        <ele>861.4</ele>
        <time>2019-08-17T09:42:27Z</time>
      </trkpt>
      <trkpt lat="41.9562580" lon="-7.3348820">
        <ele>860.9</ele>
        <time>2019-08-17T09:42:28Z</time>
      </trkpt>
      <trkpt lat="41.9562980" lon="-7.3350270">
        <ele>860.4</ele>
        <time>2019-08-17T09:42:29Z</time>
      </trkpt>
      <trkpt lat="41.9563330" lon="-7.3351740">
        <ele>859.9</ele>
        <time>2019-08-17T09:42:30Z</time>
      </trkpt>
      <trkpt lat="41.9563610" lon="-7.3353250">
        <ele>859.3</ele>
        <time>2019-08-17T09:42:31Z</time>
      </trkpt>
      <trkpt lat="41.9563840" lon="-7.3354760">
        <ele>858.8</ele>
        <time>2019-08-17T09:42:32Z</time>
      </trkpt>
      <trkpt lat="41.9564050" lon="-7.3357280">
        <ele>857.9</ele>
        <time>2019-08-17T09:42:33Z</time>
      </trkpt>
      <trkpt lat="41.9564090" lon="-7.3358290">
        <ele>857.6</ele>
        <time>2019-08-17T09:42:34Z</time>
      </trkpt>
      <trkpt lat="41.9564140" lon="-7.3359290">
        <ele>857.2</ele>
        <time>2019-08-17T09:42:35Z</time>
      </trkpt>
      <trkpt lat="41.9564170" lon="-7.3360790">
        <ele>856.5</ele>
        <time>2019-08-17T09:42:36Z</time>
      </trkpt>
      <trkpt lat="41.9564140" lon="-7.3362270">
        <ele>855.9</ele>
        <time>2019-08-17T09:42:37Z</time>
      </trkpt>
      <trkpt lat="41.9564030" lon="-7.3364660">
        <ele>854.8</ele>
        <time>2019-08-17T09:42:38Z</time>
      </trkpt>
      <trkpt lat="41.9563980" lon="-7.3365610">
        <ele>854.3</ele>
        <time>2019-08-17T09:42:39Z</time>
      </trkpt>
      <trkpt lat="41.9563920" lon="-7.3366550">
        <ele>853.9</ele>
        <time>2019-08-17T09:42:40Z</time>
      </trkpt>
      <trkpt lat="41.9563830" lon="-7.3367940">
        <ele>853.3</ele>
        <time>2019-08-17T09:42:41Z</time>
      </trkpt>
      <trkpt lat="41.9563740" lon="-7.3369300">
        <ele>852.6</ele>
        <time>2019-08-17T09:42:42Z</time>
      </trkpt>
      <trkpt lat="41.9563640" lon="-7.3370650">
        <ele>852.0</ele>
        <time>2019-08-17T09:42:43Z</time>
      </trkpt>
      <trkpt lat="41.9563560" lon="-7.3372000">
        <ele>851.3</ele>
        <time>2019-08-17T09:42:44Z</time>
      </trkpt>
      <trkpt lat="41.9563480" lon="-7.3373360">
        <ele>850.6</ele>
        <time>2019-08-17T09:42:45Z</time>
      </trkpt>
      <trkpt lat="41.9563410" lon="-7.3374740">
        <ele>849.8</ele>
        <time>2019-08-17T09:42:46Z</time>
      </trkpt>
      <trkpt lat="41.9563350" lon="-7.3376150">
        <ele>848.9</ele>
        <time>2019-08-17T09:42:47Z</time>
      </trkpt>
      <trkpt lat="41.9563320" lon="-7.3377590">
        <ele>848.1</ele>
        <time>2019-08-17T09:42:48Z</time>
      </trkpt>
      <trkpt lat="41.9563300" lon="-7.3379070">
        <ele>847.3</ele>
        <time>2019-08-17T09:42:49Z</time>
      </trkpt>
      <trkpt lat="41.9563300" lon="-7.3380570">
        <ele>846.6</ele>
        <time>2019-08-17T09:42:50Z</time>
      </trkpt>
      <trkpt lat="41.9563330" lon="-7.3382090">
        <ele>845.9</ele>
        <time>2019-08-17T09:42:51Z</time>
      </trkpt>
      <trkpt lat="41.9563380" lon="-7.3383620">
        <ele>845.2</ele>
        <time>2019-08-17T09:42:52Z</time>
      </trkpt>
      <trkpt lat="41.9563460" lon="-7.3385160">
        <ele>844.4</ele>
        <time>2019-08-17T09:42:53Z</time>
      </trkpt>
      <trkpt lat="41.9563570" lon="-7.3386690">
        <ele>843.7</ele>
        <time>2019-08-17T09:42:54Z</time>
      </trkpt>
      <trkpt lat="41.9563710" lon="-7.3388200">
        <ele>842.9</ele>
        <time>2019-08-17T09:42:55Z</time>
      </trkpt>
      <trkpt lat="41.9563880" lon="-7.3389700">
        <ele>842.2</ele>
        <time>2019-08-17T09:42:56Z</time>
      </trkpt>
      <trkpt lat="41.9564100" lon="-7.3391180">
        <ele>841.4</ele>
        <time>2019-08-17T09:42:57Z</time>
      </trkpt>
      <trkpt lat="41.9564370" lon="-7.3392640">
        <ele>840.8</ele>
        <time>2019-08-17T09:42:58Z</time>
      </trkpt>
      <trkpt lat="41.9564690" lon="-7.3394080">
        <ele>840.1</ele>
        <time>2019-08-17T09:42:59Z</time>
      </trkpt>
      <trkpt lat="41.9565070" lon="-7.3395480">
        <ele>839.8</ele>
        <time>2019-08-17T09:43:00Z</time>
      </trkpt>
      <trkpt lat="41.9565510" lon="-7.3396850">
        <ele>839.4</ele>
        <time>2019-08-17T09:43:01Z</time>
      </trkpt>
      <trkpt lat="41.9565990" lon="-7.3398210">
        <ele>838.7</ele>
        <time>2019-08-17T09:43:02Z</time>
      </trkpt>
      <trkpt lat="41.9566500" lon="-7.3399550">
        <ele>837.8</ele>
        <time>2019-08-17T09:43:03Z</time>
      </trkpt>
      <trkpt lat="41.9567000" lon="-7.3400900">
        <ele>836.9</ele>
        <time>2019-08-17T09:43:04Z</time>
      </trkpt>
      <trkpt lat="41.9567490" lon="-7.3402250">
        <ele>836.0</ele>
        <time>2019-08-17T09:43:05Z</time>
      </trkpt>
      <trkpt lat="41.9567930" lon="-7.3403640">
        <ele>835.4</ele>
        <time>2019-08-17T09:43:06Z</time>
      </trkpt>
      <trkpt lat="41.9568300" lon="-7.3405050">
        <ele>834.8</ele>
        <time>2019-08-17T09:43:07Z</time>
      </trkpt>
      <trkpt lat="41.9568600" lon="-7.3406510">
        <ele>833.7</ele>
        <time>2019-08-17T09:43:08Z</time>
      </trkpt>
      <trkpt lat="41.9568830" lon="-7.3408010">
        <ele>832.6</ele>
        <time>2019-08-17T09:43:09Z</time>
      </trkpt>
      <trkpt lat="41.9569040" lon="-7.3409520">
        <ele>831.5</ele>
        <time>2019-08-17T09:43:10Z</time>
      </trkpt>
      <trkpt lat="41.9569250" lon="-7.3411040">
        <ele>830.4</ele>
        <time>2019-08-17T09:43:11Z</time>
      </trkpt>
      <trkpt lat="41.9569490" lon="-7.3412550">
        <ele>829.3</ele>
        <time>2019-08-17T09:43:12Z</time>
      </trkpt>
      <trkpt lat="41.9569750" lon="-7.3414060">
        <ele>828.2</ele>
        <time>2019-08-17T09:43:13Z</time>
      </trkpt>
      <trkpt lat="41.9570030" lon="-7.3415580">
        <ele>827.1</ele>
        <time>2019-08-17T09:43:14Z</time>
      </trkpt>
      <trkpt lat="41.9570330" lon="-7.3417090">
        <ele>826.0</ele>
        <time>2019-08-17T09:43:15Z</time>
      </trkpt>
      <trkpt lat="41.9570670" lon="-7.3418580">
        <ele>824.9</ele>
        <time>2019-08-17T09:43:16Z</time>
      </trkpt>
      <trkpt lat="41.9571100" lon="-7.3420030">
        <ele>823.8</ele>
        <time>2019-08-17T09:43:17Z</time>
      </trkpt>
      <trkpt lat="41.9571630" lon="-7.3421400">
        <ele>822.7</ele>
        <time>2019-08-17T09:43:18Z</time>
      </trkpt>
      <trkpt lat="41.9572280" lon="-7.3422700">
        <ele>821.8</ele>
        <time>2019-08-17T09:43:19Z</time>
      </trkpt>
      <trkpt lat="41.9573050" lon="-7.3423900">
        <ele>820.8</ele>
        <time>2019-08-17T09:43:20Z</time>
      </trkpt>
      <trkpt lat="41.9573890" lon="-7.3425020">
        <ele>819.9</ele>
        <time>2019-08-17T09:43:21Z</time>
      </trkpt>
      <trkpt lat="41.9574770" lon="-7.3426070">
        <ele>819.0</ele>
        <time>2019-08-17T09:43:22Z</time>
      </trkpt>
      <trkpt lat="41.9575670" lon="-7.3427070">
        <ele>818.1</ele>
        <time>2019-08-17T09:43:23Z</time>
      </trkpt>
      <trkpt lat="41.9576580" lon="-7.3428060">
        <ele>817.2</ele>
        <time>2019-08-17T09:43:24Z</time>
      </trkpt>
      <trkpt lat="41.9577490" lon="-7.3429070">
        <ele>816.4</ele>
        <time>2019-08-17T09:43:25Z</time>
      </trkpt>
      <trkpt lat="41.9578370" lon="-7.3430120">
        <ele>815.5</ele>
        <time>2019-08-17T09:43:26Z</time>
      </trkpt>
      <trkpt lat="41.9579220" lon="-7.3431230">
        <ele>815.2</ele>
        <time>2019-08-17T09:43:27Z</time>
      </trkpt>
      <trkpt lat="41.9580030" lon="-7.3432430">
        <ele>815.2</ele>
        <time>2019-08-17T09:43:28Z</time>
      </trkpt>
      <trkpt lat="41.9580750" lon="-7.3433710">
        <ele>815.4</ele>
        <time>2019-08-17T09:43:29Z</time>
      </trkpt>
      <trkpt lat="41.9581390" lon="-7.3435050">
        <ele>815.8</ele>
        <time>2019-08-17T09:43:30Z</time>
      </trkpt>
      <trkpt lat="41.9581900" lon="-7.3436450">
        <ele>816.3</ele>
        <time>2019-08-17T09:43:31Z</time>
      </trkpt>
      <trkpt lat="41.9582270" lon="-7.3437890">
        <ele>816.7</ele>
        <time>2019-08-17T09:43:32Z</time>
      </trkpt>
      <trkpt lat="41.9582530" lon="-7.3439340">
        <ele>817.2</ele>
        <time>2019-08-17T09:43:33Z</time>
      </trkpt>
      <trkpt lat="41.9582740" lon="-7.3440770">
        <ele>817.6</ele>
        <time>2019-08-17T09:43:34Z</time>
      </trkpt>
      <trkpt lat="41.9582910" lon="-7.3442160">
        <ele>818.0</ele>
        <time>2019-08-17T09:43:35Z</time>
      </trkpt>
      <trkpt lat="41.9583060" lon="-7.3443510">
        <ele>818.4</ele>
        <time>2019-08-17T09:43:36Z</time>
      </trkpt>
      <trkpt lat="41.9583180" lon="-7.3444820">
        <ele>818.8</ele>
        <time>2019-08-17T09:43:37Z</time>
      </trkpt>
      <trkpt lat="41.9583290" lon="-7.3446080">
        <ele>818.7</ele>
        <time>2019-08-17T09:43:38Z</time>
      </trkpt>
      <trkpt lat="41.9583370" lon="-7.3447310">
        <ele>818.7</ele>
        <time>2019-08-17T09:43:39Z</time>
      </trkpt>
      <trkpt lat="41.9583450" lon="-7.3448510">
        <ele>818.6</ele>
        <time>2019-08-17T09:43:40Z</time>
      </trkpt>
      <trkpt lat="41.9583520" lon="-7.3449680">
        <ele>818.5</ele>
        <time>2019-08-17T09:43:41Z</time>
      </trkpt>
      <trkpt lat="41.9583600" lon="-7.3450840">
        <ele>818.4</ele>
        <time>2019-08-17T09:43:42Z</time>
      </trkpt>
      <trkpt lat="41.9583690" lon="-7.3451980">
        <ele>818.2</ele>
        <time>2019-08-17T09:43:43Z</time>
      </trkpt>
      <trkpt lat="41.9583780" lon="-7.3453110">
        <ele>818.0</ele>
        <time>2019-08-17T09:43:44Z</time>
      </trkpt>
      <trkpt lat="41.9583870" lon="-7.3454220">
        <ele>817.8</ele>
        <time>2019-08-17T09:43:45Z</time>
      </trkpt>
      <trkpt lat="41.9583960" lon="-7.3455330">
        <ele>817.6</ele>
        <time>2019-08-17T09:43:46Z</time>
      </trkpt>
      <trkpt lat="41.9584030" lon="-7.3456420">
        <ele>817.4</ele>
        <time>2019-08-17T09:43:47Z</time>
      </trkpt>
      <trkpt lat="41.9584100" lon="-7.3457510">
        <ele>817.2</ele>
        <time>2019-08-17T09:43:48Z</time>
      </trkpt>
      <trkpt lat="41.9584150" lon="-7.3458590">
        <ele>817.0</ele>
        <time>2019-08-17T09:43:49Z</time>
      </trkpt>
      <trkpt lat="41.9584170" lon="-7.3459660">
        <ele>816.8</ele>
        <time>2019-08-17T09:43:50Z</time>
      </trkpt>
      <trkpt lat="41.9584180" lon="-7.3460740">
        <ele>816.7</ele>
        <time>2019-08-17T09:43:51Z</time>
      </trkpt>
      <trkpt lat="41.9584160" lon="-7.3461810">
        <ele>816.7</ele>
        <time>2019-08-17T09:43:52Z</time>
      </trkpt>
      <trkpt lat="41.9584100" lon="-7.3462870">
        <ele>816.6</ele>
        <time>2019-08-17T09:43:53Z</time>
      </trkpt>
      <trkpt lat="41.9584020" lon="-7.3463940">
        <ele>816.6</ele>
        <time>2019-08-17T09:43:54Z</time>
      </trkpt>
      <trkpt lat="41.9583890" lon="-7.3465010">
        <ele>816.6</ele>
        <time>2019-08-17T09:43:55Z</time>
      </trkpt>
      <trkpt lat="41.9583720" lon="-7.3466080">
        <ele>816.6</ele>
        <time>2019-08-17T09:43:56Z</time>
      </trkpt>
      <trkpt lat="41.9583510" lon="-7.3467140">
        <ele>816.6</ele>
        <time>2019-08-17T09:43:57Z</time>
      </trkpt>
      <trkpt lat="41.9583260" lon="-7.3468180">
        <ele>816.6</ele>
        <time>2019-08-17T09:43:58Z</time>
      </trkpt>
      <trkpt lat="41.9582970" lon="-7.3469190">
        <ele>816.5</ele>
        <time>2019-08-17T09:43:59Z</time>
      </trkpt>
      <trkpt lat="41.9582630" lon="-7.3470180">
        <ele>816.5</ele>
        <time>2019-08-17T09:44:00Z</time>
      </trkpt>
      <trkpt lat="41.9582240" lon="-7.3471140">
        <ele>816.5</ele>
        <time>2019-08-17T09:44:01Z</time>
      </trkpt>
      <trkpt lat="41.9581800" lon="-7.3472050">
        <ele>816.5</ele>
        <time>2019-08-17T09:44:02Z</time>
      </trkpt>
      <trkpt lat="41.9581330" lon="-7.3472920">
        <ele>816.5</ele>
        <time>2019-08-17T09:44:03Z</time>
      </trkpt>
      <trkpt lat="41.9580820" lon="-7.3473750">
        <ele>816.5</ele>
        <time>2019-08-17T09:44:04Z</time>
      </trkpt>
      <trkpt lat="41.9580260" lon="-7.3474500">
        <ele>816.5</ele>
        <time>2019-08-17T09:44:05Z</time>
      </trkpt>
      <trkpt lat="41.9579700" lon="-7.3475250">
        <ele>816.5</ele>
        <time>2019-08-17T09:44:06Z</time>
      </trkpt>
      <trkpt lat="41.9579100" lon="-7.3475920">
        <ele>816.5</ele>
        <time>2019-08-17T09:44:07Z</time>
      </trkpt>
      <trkpt lat="41.9578490" lon="-7.3476540">
        <ele>816.5</ele>
        <time>2019-08-17T09:44:08Z</time>
      </trkpt>
      <trkpt lat="41.9577870" lon="-7.3477100">
        <ele>816.4</ele>
        <time>2019-08-17T09:44:09Z</time>
      </trkpt>
      <trkpt lat="41.9577240" lon="-7.3477610">
        <ele>816.3</ele>
        <time>2019-08-17T09:44:10Z</time>
      </trkpt>
      <trkpt lat="41.9576600" lon="-7.3478070">
        <ele>816.2</ele>
        <time>2019-08-17T09:44:11Z</time>
      </trkpt>
      <trkpt lat="41.9575950" lon="-7.3478490">
        <ele>816.1</ele>
        <time>2019-08-17T09:44:12Z</time>
      </trkpt>
      <trkpt lat="41.9575300" lon="-7.3478880">
        <ele>816.0</ele>
        <time>2019-08-17T09:44:13Z</time>
      </trkpt>
      <trkpt lat="41.9574650" lon="-7.3479250">
        <ele>815.8</ele>
        <time>2019-08-17T09:44:14Z</time>
      </trkpt>
      <trkpt lat="41.9573990" lon="-7.3479590">
        <ele>815.7</ele>
        <time>2019-08-17T09:44:15Z</time>
      </trkpt>
      <trkpt lat="41.9573330" lon="-7.3479920">
        <ele>815.5</ele>
        <time>2019-08-17T09:44:16Z</time>
      </trkpt>
      <trkpt lat="41.9572670" lon="-7.3480250">
        <ele>815.4</ele>
        <time>2019-08-17T09:44:17Z</time>
      </trkpt>
      <trkpt lat="41.9572010" lon="-7.3480560">
        <ele>815.3</ele>
        <time>2019-08-17T09:44:18Z</time>
      </trkpt>
      <trkpt lat="41.9571340" lon="-7.3480870">
        <ele>815.2</ele>
        <time>2019-08-17T09:44:19Z</time>
      </trkpt>
      <trkpt lat="41.9570670" lon="-7.3481180">
        <ele>815.1</ele>
        <time>2019-08-17T09:44:20Z</time>
      </trkpt>
      <trkpt lat="41.9569980" lon="-7.3481490">
        <ele>815.0</ele>
        <time>2019-08-17T09:44:21Z</time>
      </trkpt>
      <trkpt lat="41.9569290" lon="-7.3481810">
        <ele>815.0</ele>
        <time>2019-08-17T09:44:22Z</time>
      </trkpt>
      <trkpt lat="41.9568580" lon="-7.3482130">
        <ele>814.9</ele>
        <time>2019-08-17T09:44:23Z</time>
      </trkpt>
      <trkpt lat="41.9567870" lon="-7.3482450">
        <ele>814.8</ele>
        <time>2019-08-17T09:44:24Z</time>
      </trkpt>
      <trkpt lat="41.9567140" lon="-7.3482780">
        <ele>814.7</ele>
        <time>2019-08-17T09:44:25Z</time>
      </trkpt>
      <trkpt lat="41.9566400" lon="-7.3483120">
        <ele>814.6</ele>
        <time>2019-08-17T09:44:26Z</time>
      </trkpt>
      <trkpt lat="41.9565650" lon="-7.3483460">
        <ele>814.5</ele>
        <time>2019-08-17T09:44:27Z</time>
      </trkpt>
      <trkpt lat="41.9564890" lon="-7.3483800">
        <ele>814.3</ele>
        <time>2019-08-17T09:44:28Z</time>
      </trkpt>
      <trkpt lat="41.9564120" lon="-7.3484150">
        <ele>814.1</ele>
        <time>2019-08-17T09:44:29Z</time>
      </trkpt>
      <trkpt lat="41.9563340" lon="-7.3484500">
        <ele>813.8</ele>
        <time>2019-08-17T09:44:30Z</time>
      </trkpt>
      <trkpt lat="41.9562550" lon="-7.3484850">
        <ele>813.4</ele>
        <time>2019-08-17T09:44:31Z</time>
      </trkpt>
      <trkpt lat="41.9561750" lon="-7.3485210">
        <ele>813.0</ele>
        <time>2019-08-17T09:44:32Z</time>
      </trkpt>
      <trkpt lat="41.9560930" lon="-7.3485580">
        <ele>812.5</ele>
        <time>2019-08-17T09:44:33Z</time>
      </trkpt>
      <trkpt lat="41.9560110" lon="-7.3485950">
        <ele>812.0</ele>
        <time>2019-08-17T09:44:34Z</time>
      </trkpt>
      <trkpt lat="41.9558710" lon="-7.3486570">
        <ele>811.2</ele>
        <time>2019-08-17T09:44:35Z</time>
      </trkpt>
      <trkpt lat="41.9558150" lon="-7.3486810">
        <ele>810.9</ele>
        <time>2019-08-17T09:44:36Z</time>
      </trkpt>
      <trkpt lat="41.9557580" lon="-7.3487060">
        <ele>810.5</ele>
        <time>2019-08-17T09:44:37Z</time>
      </trkpt>
      <trkpt lat="41.9556720" lon="-7.3487420">
        <ele>810.0</ele>
        <time>2019-08-17T09:44:38Z</time>
      </trkpt>
      <trkpt lat="41.9555860" lon="-7.3487780">
        <ele>809.6</ele>
        <time>2019-08-17T09:44:39Z</time>
      </trkpt>
      <trkpt lat="41.9554410" lon="-7.3488330">
        <ele>809.1</ele>
        <time>2019-08-17T09:44:40Z</time>
      </trkpt>
      <trkpt lat="41.9553820" lon="-7.3488550">
        <ele>809.0</ele>
        <time>2019-08-17T09:44:41Z</time>
      </trkpt>
      <trkpt lat="41.9553240" lon="-7.3488760">
        <ele>808.8</ele>
        <time>2019-08-17T09:44:42Z</time>
      </trkpt>
      <trkpt lat="41.9552360" lon="-7.3489060">
        <ele>808.5</ele>
        <time>2019-08-17T09:44:43Z</time>
      </trkpt>
      <trkpt lat="41.9551480" lon="-7.3489330">
        <ele>808.3</ele>
        <time>2019-08-17T09:44:44Z</time>
      </trkpt>
      <trkpt lat="41.9550610" lon="-7.3489580">
        <ele>808.0</ele>
        <time>2019-08-17T09:44:45Z</time>
      </trkpt>
      <trkpt lat="41.9549740" lon="-7.3489820">
        <ele>807.8</ele>
        <time>2019-08-17T09:44:46Z</time>
      </trkpt>
      <trkpt lat="41.9548870" lon="-7.3490020">
        <ele>807.3</ele>
        <time>2019-08-17T09:44:47Z</time>
      </trkpt>
      <trkpt lat="41.9548010" lon="-7.3490210">
        <ele>807.0</ele>
        <time>2019-08-17T09:44:48Z</time>
      </trkpt>
      <trkpt lat="41.9547150" lon="-7.3490370">
        <ele>806.7</ele>
        <time>2019-08-17T09:44:49Z</time>
      </trkpt>
      <trkpt lat="41.9546300" lon="-7.3490520">
        <ele>806.4</ele>
        <time>2019-08-17T09:44:50Z</time>
      </trkpt>
      <trkpt lat="41.9545440" lon="-7.3490660">
        <ele>806.1</ele>
        <time>2019-08-17T09:44:51Z</time>
      </trkpt>
      <trkpt lat="41.9544580" lon="-7.3490800">
        <ele>805.8</ele>
        <time>2019-08-17T09:44:52Z</time>
      </trkpt>
      <trkpt lat="41.9543710" lon="-7.3490930">
        <ele>805.5</ele>
        <time>2019-08-17T09:44:53Z</time>
      </trkpt>
      <trkpt lat="41.9542830" lon="-7.3491070">
        <ele>805.2</ele>
        <time>2019-08-17T09:44:54Z</time>
      </trkpt>
      <trkpt lat="41.9541950" lon="-7.3491220">
        <ele>804.9</ele>
        <time>2019-08-17T09:44:55Z</time>
      </trkpt>
      <trkpt lat="41.9541050" lon="-7.3491380">
        <ele>804.3</ele>
        <time>2019-08-17T09:44:56Z</time>
      </trkpt>
      <trkpt lat="41.9540150" lon="-7.3491540">
        <ele>803.9</ele>
        <time>2019-08-17T09:44:57Z</time>
      </trkpt>
      <trkpt lat="41.9539240" lon="-7.3491710">
        <ele>803.5</ele>
        <time>2019-08-17T09:44:58Z</time>
      </trkpt>
      <trkpt lat="41.9538320" lon="-7.3491880">
        <ele>803.0</ele>
        <time>2019-08-17T09:44:59Z</time>
      </trkpt>
      <trkpt lat="41.9537410" lon="-7.3492050">
        <ele>802.6</ele>
        <time>2019-08-17T09:45:00Z</time>
      </trkpt>
      <trkpt lat="41.9536500" lon="-7.3492230">
        <ele>802.3</ele>
        <time>2019-08-17T09:45:01Z</time>
      </trkpt>
      <trkpt lat="41.9535580" lon="-7.3492410">
        <ele>802.0</ele>
        <time>2019-08-17T09:45:02Z</time>
      </trkpt>
      <trkpt lat="41.9534670" lon="-7.3492580">
        <ele>801.7</ele>
        <time>2019-08-17T09:45:03Z</time>
      </trkpt>
      <trkpt lat="41.9533760" lon="-7.3492760">
        <ele>801.3</ele>
        <time>2019-08-17T09:45:04Z</time>
      </trkpt>
      <trkpt lat="41.9532850" lon="-7.3492930">
        <ele>800.8</ele>
        <time>2019-08-17T09:45:05Z</time>
      </trkpt>
      <trkpt lat="41.9531930" lon="-7.3493110">
        <ele>800.4</ele>
        <time>2019-08-17T09:45:06Z</time>
      </trkpt>
      <trkpt lat="41.9531020" lon="-7.3493300">
        <ele>799.9</ele>
        <time>2019-08-17T09:45:07Z</time>
      </trkpt>
      <trkpt lat="41.9530090" lon="-7.3493500">
        <ele>799.5</ele>
        <time>2019-08-17T09:45:08Z</time>
      </trkpt>
      <trkpt lat="41.9529160" lon="-7.3493730">
        <ele>799.0</ele>
        <time>2019-08-17T09:45:09Z</time>
      </trkpt>
      <trkpt lat="41.9528230" lon="-7.3493990">
        <ele>798.5</ele>
        <time>2019-08-17T09:45:10Z</time>
      </trkpt>
      <trkpt lat="41.9527310" lon="-7.3494310">
        <ele>797.9</ele>
        <time>2019-08-17T09:45:11Z</time>
      </trkpt>
      <trkpt lat="41.9526390" lon="-7.3494690">
        <ele>797.1</ele>
        <time>2019-08-17T09:45:12Z</time>
      </trkpt>
      <trkpt lat="41.9525490" lon="-7.3495160">
        <ele>796.5</ele>
        <time>2019-08-17T09:45:13Z</time>
      </trkpt>
      <trkpt lat="41.9524620" lon="-7.3495720">
        <ele>796.0</ele>
        <time>2019-08-17T09:45:14Z</time>
      </trkpt>
      <trkpt lat="41.9523780" lon="-7.3496390">
        <ele>795.4</ele>
        <time>2019-08-17T09:45:15Z</time>
      </trkpt>
      <trkpt lat="41.9522980" lon="-7.3497160">
        <ele>794.8</ele>
        <time>2019-08-17T09:45:16Z</time>
      </trkpt>
      <trkpt lat="41.9522210" lon="-7.3498030">
        <ele>794.3</ele>
        <time>2019-08-17T09:45:17Z</time>
      </trkpt>
      <trkpt lat="41.9521500" lon="-7.3498970">
        <ele>793.7</ele>
        <time>2019-08-17T09:45:18Z</time>
      </trkpt>
      <trkpt lat="41.9520840" lon="-7.3499990">
        <ele>793.3</ele>
        <time>2019-08-17T09:45:19Z</time>
      </trkpt>
      <trkpt lat="41.9520240" lon="-7.3501070">
        <ele>792.8</ele>
        <time>2019-08-17T09:45:20Z</time>
      </trkpt>
      <trkpt lat="41.9519700" lon="-7.3502210">
        <ele>792.3</ele>
        <time>2019-08-17T09:45:21Z</time>
      </trkpt>
      <trkpt lat="41.9519230" lon="-7.3503380">
        <ele>791.7</ele>
        <time>2019-08-17T09:45:22Z</time>
      </trkpt>
      <trkpt lat="41.9518840" lon="-7.3504600">
        <ele>790.8</ele>
        <time>2019-08-17T09:45:23Z</time>
      </trkpt>
      <trkpt lat="41.9518520" lon="-7.3505850">
        <ele>790.0</ele>
        <time>2019-08-17T09:45:24Z</time>
      </trkpt>
      <trkpt lat="41.9518300" lon="-7.3507130">
        <ele>789.2</ele>
        <time>2019-08-17T09:45:25Z</time>
      </trkpt>
      <trkpt lat="41.9518080" lon="-7.3508410">
        <ele>788.4</ele>
        <time>2019-08-17T09:45:26Z</time>
      </trkpt>
      <trkpt lat="41.9517970" lon="-7.3509720">
        <ele>787.6</ele>
        <time>2019-08-17T09:45:27Z</time>
      </trkpt>
      <trkpt lat="41.9517930" lon="-7.3511050">
        <ele>786.7</ele>
        <time>2019-08-17T09:45:28Z</time>
      </trkpt>
      <trkpt lat="41.9517970" lon="-7.3512370">
        <ele>785.9</ele>
        <time>2019-08-17T09:45:29Z</time>
      </trkpt>
      <trkpt lat="41.9518070" lon="-7.3513700">
        <ele>785.1</ele>
        <time>2019-08-17T09:45:30Z</time>
      </trkpt>
      <trkpt lat="41.9518220" lon="-7.3515030">
        <ele>784.3</ele>
        <time>2019-08-17T09:45:31Z</time>
      </trkpt>
      <trkpt lat="41.9518440" lon="-7.3516340">
        <ele>784.2</ele>
        <time>2019-08-17T09:45:32Z</time>
      </trkpt>
      <trkpt lat="41.9518700" lon="-7.3517650">
        <ele>784.2</ele>
        <time>2019-08-17T09:45:33Z</time>
      </trkpt>
      <trkpt lat="41.9519000" lon="-7.3518940">
        <ele>784.1</ele>
        <time>2019-08-17T09:45:34Z</time>
      </trkpt>
      <trkpt lat="41.9519340" lon="-7.3520220">
        <ele>784.1</ele>
        <time>2019-08-17T09:45:35Z</time>
      </trkpt>
      <trkpt lat="41.9519710" lon="-7.3521470">
        <ele>784.1</ele>
        <time>2019-08-17T09:45:36Z</time>
      </trkpt>
      <trkpt lat="41.9520100" lon="-7.3522710">
        <ele>784.1</ele>
        <time>2019-08-17T09:45:37Z</time>
      </trkpt>
      <trkpt lat="41.9520500" lon="-7.3523940">
        <ele>784.0</ele>
        <time>2019-08-17T09:45:38Z</time>
      </trkpt>
      <trkpt lat="41.9520900" lon="-7.3525160">
        <ele>784.0</ele>
        <time>2019-08-17T09:45:39Z</time>
      </trkpt>
      <trkpt lat="41.9521290" lon="-7.3526390">
        <ele>784.0</ele>
        <time>2019-08-17T09:45:40Z</time>
      </trkpt>
      <trkpt lat="41.9521660" lon="-7.3527630">
        <ele>784.0</ele>
        <time>2019-08-17T09:45:41Z</time>
      </trkpt>
      <trkpt lat="41.9522000" lon="-7.3528880">
        <ele>784.0</ele>
        <time>2019-08-17T09:45:42Z</time>
      </trkpt>
      <trkpt lat="41.9522300" lon="-7.3530150">
        <ele>784.0</ele>
        <time>2019-08-17T09:45:43Z</time>
      </trkpt>
      <trkpt lat="41.9522560" lon="-7.3531410">
        <ele>784.1</ele>
        <time>2019-08-17T09:45:44Z</time>
      </trkpt>
      <trkpt lat="41.9522770" lon="-7.3532680">
        <ele>784.1</ele>
        <time>2019-08-17T09:45:45Z</time>
      </trkpt>
      <trkpt lat="41.9522920" lon="-7.3533930">
        <ele>784.1</ele>
        <time>2019-08-17T09:45:46Z</time>
      </trkpt>
      <trkpt lat="41.9522990" lon="-7.3535170">
        <ele>784.1</ele>
        <time>2019-08-17T09:45:47Z</time>
      </trkpt>
      <trkpt lat="41.9523000" lon="-7.3536390">
        <ele>784.2</ele>
        <time>2019-08-17T09:45:48Z</time>
      </trkpt>
      <trkpt lat="41.9522920" lon="-7.3537590">
        <ele>784.6</ele>
        <time>2019-08-17T09:45:49Z</time>
      </trkpt>
      <trkpt lat="41.9522770" lon="-7.3538760">
        <ele>785.0</ele>
        <time>2019-08-17T09:45:50Z</time>
      </trkpt>
      <trkpt lat="41.9522560" lon="-7.3539910">
        <ele>785.4</ele>
        <time>2019-08-17T09:45:51Z</time>
      </trkpt>
      <trkpt lat="41.9522320" lon="-7.3541040">
        <ele>785.2</ele>
        <time>2019-08-17T09:45:52Z</time>
      </trkpt>
      <trkpt lat="41.9522040" lon="-7.3542160">
        <ele>785.1</ele>
        <time>2019-08-17T09:45:53Z</time>
      </trkpt>
      <trkpt lat="41.9521550" lon="-7.3544000">
        <ele>784.9</ele>
        <time>2019-08-17T09:45:54Z</time>
      </trkpt>
      <trkpt lat="41.9521360" lon="-7.3544740">
        <ele>784.8</ele>
        <time>2019-08-17T09:45:55Z</time>
      </trkpt>
      <trkpt lat="41.9521170" lon="-7.3545470">
        <ele>784.7</ele>
        <time>2019-08-17T09:45:56Z</time>
      </trkpt>
      <trkpt lat="41.9520900" lon="-7.3546570">
        <ele>784.6</ele>
        <time>2019-08-17T09:45:57Z</time>
      </trkpt>
      <trkpt lat="41.9520660" lon="-7.3547660">
        <ele>784.4</ele>
        <time>2019-08-17T09:45:58Z</time>
      </trkpt>
      <trkpt lat="41.9520370" lon="-7.3549500">
        <ele>784.1</ele>
        <time>2019-08-17T09:45:59Z</time>
      </trkpt>
      <trkpt lat="41.9520290" lon="-7.3550240">
        <ele>783.9</ele>
        <time>2019-08-17T09:46:00Z</time>
      </trkpt>
      <trkpt lat="41.9520200" lon="-7.3550980">
        <ele>783.7</ele>
        <time>2019-08-17T09:46:01Z</time>
      </trkpt>
      <trkpt lat="41.9520160" lon="-7.3552100">
        <ele>783.3</ele>
        <time>2019-08-17T09:46:02Z</time>
      </trkpt>
      <trkpt lat="41.9520180" lon="-7.3553230">
        <ele>782.9</ele>
        <time>2019-08-17T09:46:03Z</time>
      </trkpt>
      <trkpt lat="41.9520280" lon="-7.3554360">
        <ele>782.5</ele>
        <time>2019-08-17T09:46:04Z</time>
      </trkpt>
      <trkpt lat="41.9520440" lon="-7.3555490">
        <ele>782.0</ele>
        <time>2019-08-17T09:46:05Z</time>
      </trkpt>
      <trkpt lat="41.9520660" lon="-7.3556610">
        <ele>781.5</ele>
        <time>2019-08-17T09:46:06Z</time>
      </trkpt>
      <trkpt lat="41.9520950" lon="-7.3557720">
        <ele>781.0</ele>
        <time>2019-08-17T09:46:07Z</time>
      </trkpt>
      <trkpt lat="41.9521310" lon="-7.3558820">
        <ele>780.4</ele>
        <time>2019-08-17T09:46:08Z</time>
      </trkpt>
      <trkpt lat="41.9521730" lon="-7.3559880">
        <ele>780.0</ele>
        <time>2019-08-17T09:46:09Z</time>
      </trkpt>
      <trkpt lat="41.9522200" lon="-7.3560930">
        <ele>779.6</ele>
        <time>2019-08-17T09:46:10Z</time>
      </trkpt>
      <trkpt lat="41.9522700" lon="-7.3561960">
        <ele>779.2</ele>
        <time>2019-08-17T09:46:11Z</time>
      </trkpt>
      <trkpt lat="41.9523240" lon="-7.3562980">
        <ele>778.8</ele>
        <time>2019-08-17T09:46:12Z</time>
      </trkpt>
      <trkpt lat="41.9523790" lon="-7.3563990">
        <ele>778.4</ele>
        <time>2019-08-17T09:46:13Z</time>
      </trkpt>
      <trkpt lat="41.9524350" lon="-7.3565020">
        <ele>778.0</ele>
        <time>2019-08-17T09:46:14Z</time>
      </trkpt>
      <trkpt lat="41.9524890" lon="-7.3566070">
        <ele>777.6</ele>
        <time>2019-08-17T09:46:15Z</time>
      </trkpt>
      <trkpt lat="41.9525420" lon="-7.3567160">
        <ele>777.2</ele>
        <time>2019-08-17T09:46:16Z</time>
      </trkpt>
      <trkpt lat="41.9525910" lon="-7.3568300">
        <ele>776.8</ele>
        <time>2019-08-17T09:46:17Z</time>
      </trkpt>
      <trkpt lat="41.9526360" lon="-7.3569470">
        <ele>776.3</ele>
        <time>2019-08-17T09:46:18Z</time>
      </trkpt>
      <trkpt lat="41.9526720" lon="-7.3570680">
        <ele>776.0</ele>
        <time>2019-08-17T09:46:19Z</time>
      </trkpt>
      <trkpt lat="41.9527070" lon="-7.3571890">
        <ele>775.6</ele>
        <time>2019-08-17T09:46:20Z</time>
      </trkpt>
      <trkpt lat="41.9527320" lon="-7.3573130">
        <ele>775.1</ele>
        <time>2019-08-17T09:46:21Z</time>
      </trkpt>
      <trkpt lat="41.9527470" lon="-7.3574370">
        <ele>774.4</ele>
        <time>2019-08-17T09:46:22Z</time>
      </trkpt>
      <trkpt lat="41.9527530" lon="-7.3575630">
        <ele>773.7</ele>
        <time>2019-08-17T09:46:23Z</time>
      </trkpt>
      <trkpt lat="41.9527490" lon="-7.3576880">
        <ele>773.1</ele>
        <time>2019-08-17T09:46:24Z</time>
      </trkpt>
      <trkpt lat="41.9527250" lon="-7.3578990">
        <ele>771.9</ele>
        <time>2019-08-17T09:46:25Z</time>
      </trkpt>
      <trkpt lat="41.9527120" lon="-7.3579840">
        <ele>771.4</ele>
        <time>2019-08-17T09:46:26Z</time>
      </trkpt>
      <trkpt lat="41.9526990" lon="-7.3580680">
        <ele>770.9</ele>
        <time>2019-08-17T09:46:27Z</time>
      </trkpt>
      <trkpt lat="41.9526730" lon="-7.3581950">
        <ele>770.2</ele>
        <time>2019-08-17T09:46:28Z</time>
      </trkpt>
      <trkpt lat="41.9526440" lon="-7.3583230">
        <ele>769.6</ele>
        <time>2019-08-17T09:46:29Z</time>
      </trkpt>
      <trkpt lat="41.9525980" lon="-7.3585380">
        <ele>768.5</ele>
        <time>2019-08-17T09:46:30Z</time>
      </trkpt>
      <trkpt lat="41.9525820" lon="-7.3586250">
        <ele>768.1</ele>
        <time>2019-08-17T09:46:31Z</time>
      </trkpt>
      <trkpt lat="41.9525650" lon="-7.3587120">
        <ele>767.7</ele>
        <time>2019-08-17T09:46:32Z</time>
      </trkpt>
      <trkpt lat="41.9525430" lon="-7.3588440">
        <ele>767.1</ele>
        <time>2019-08-17T09:46:33Z</time>
      </trkpt>
      <trkpt lat="41.9525320" lon="-7.3589800">
        <ele>766.6</ele>
        <time>2019-08-17T09:46:34Z</time>
      </trkpt>
      <trkpt lat="41.9525290" lon="-7.3591190">
        <ele>766.0</ele>
        <time>2019-08-17T09:46:35Z</time>
      </trkpt>
      <trkpt lat="41.9525380" lon="-7.3592620">
        <ele>765.4</ele>
        <time>2019-08-17T09:46:36Z</time>
      </trkpt>
      <trkpt lat="41.9525580" lon="-7.3594060">
        <ele>764.7</ele>
        <time>2019-08-17T09:46:37Z</time>
      </trkpt>
      <trkpt lat="41.9525900" lon="-7.3595470">
        <ele>763.9</ele>
        <time>2019-08-17T09:46:38Z</time>
      </trkpt>
      <trkpt lat="41.9526330" lon="-7.3596840">
        <ele>763.0</ele>
        <time>2019-08-17T09:46:39Z</time>
      </trkpt>
      <trkpt lat="41.9526870" lon="-7.3598140">
        <ele>762.1</ele>
        <time>2019-08-17T09:46:40Z</time>
      </trkpt>
      <trkpt lat="41.9527500" lon="-7.3599360">
        <ele>761.0</ele>
        <time>2019-08-17T09:46:41Z</time>
      </trkpt>
      <trkpt lat="41.9528220" lon="-7.3600510">
        <ele>759.9</ele>
        <time>2019-08-17T09:46:42Z</time>
      </trkpt>
      <trkpt lat="41.9528990" lon="-7.3601600">
        <ele>758.7</ele>
        <time>2019-08-17T09:46:43Z</time>
      </trkpt>
      <trkpt lat="41.9529810" lon="-7.3602640">
        <ele>757.5</ele>
        <time>2019-08-17T09:46:44Z</time>
      </trkpt>
      <trkpt lat="41.9530650" lon="-7.3603650">
        <ele>756.4</ele>
        <time>2019-08-17T09:46:45Z</time>
      </trkpt>
      <trkpt lat="41.9531510" lon="-7.3604660">
        <ele>755.3</ele>
        <time>2019-08-17T09:46:46Z</time>
      </trkpt>
      <trkpt lat="41.9532350" lon="-7.3605670">
        <ele>754.3</ele>
        <time>2019-08-17T09:46:47Z</time>
      </trkpt>
      <trkpt lat="41.9533190" lon="-7.3606680">
        <ele>753.7</ele>
        <time>2019-08-17T09:46:48Z</time>
      </trkpt>
      <trkpt lat="41.9534020" lon="-7.3607690">
        <ele>753.3</ele>
        <time>2019-08-17T09:46:49Z</time>
      </trkpt>
      <trkpt lat="41.9534850" lon="-7.3608700">
        <ele>753.0</ele>
        <time>2019-08-17T09:46:50Z</time>
      </trkpt>
      <trkpt lat="41.9535680" lon="-7.3609690">
        <ele>752.5</ele>
        <time>2019-08-17T09:46:51Z</time>
      </trkpt>
      <trkpt lat="41.9536510" lon="-7.3610680">
        <ele>752.1</ele>
        <time>2019-08-17T09:46:52Z</time>
      </trkpt>
      <trkpt lat="41.9537320" lon="-7.3611650">
        <ele>751.6</ele>
        <time>2019-08-17T09:46:53Z</time>
      </trkpt>
      <trkpt lat="41.9538130" lon="-7.3612610">
        <ele>751.0</ele>
        <time>2019-08-17T09:46:54Z</time>
      </trkpt>
      <trkpt lat="41.9538910" lon="-7.3613560">
        <ele>750.3</ele>
        <time>2019-08-17T09:46:55Z</time>
      </trkpt>
      <trkpt lat="41.9539650" lon="-7.3614520">
        <ele>749.7</ele>
        <time>2019-08-17T09:46:56Z</time>
      </trkpt>
      <trkpt lat="41.9540330" lon="-7.3615510">
        <ele>749.1</ele>
        <time>2019-08-17T09:46:57Z</time>
      </trkpt>
      <trkpt lat="41.9540950" lon="-7.3616540">
        <ele>748.5</ele>
        <time>2019-08-17T09:46:58Z</time>
      </trkpt>
      <trkpt lat="41.9541520" lon="-7.3617650">
        <ele>747.9</ele>
        <time>2019-08-17T09:46:59Z</time>
      </trkpt>
      <trkpt lat="41.9542040" lon="-7.3618830">
        <ele>747.3</ele>
        <time>2019-08-17T09:47:00Z</time>
      </trkpt>
      <trkpt lat="41.9542480" lon="-7.3620090">
        <ele>746.5</ele>
        <time>2019-08-17T09:47:01Z</time>
      </trkpt>
      <trkpt lat="41.9542830" lon="-7.3621380">
        <ele>745.9</ele>
        <time>2019-08-17T09:47:02Z</time>
      </trkpt>
      <trkpt lat="41.9543070" lon="-7.3622700">
        <ele>745.3</ele>
        <time>2019-08-17T09:47:03Z</time>
      </trkpt>
      <trkpt lat="41.9543190" lon="-7.3624940">
        <ele>744.2</ele>
        <time>2019-08-17T09:47:04Z</time>
      </trkpt>
      <trkpt lat="41.9543180" lon="-7.3625840">
        <ele>743.8</ele>
        <time>2019-08-17T09:47:05Z</time>
      </trkpt>
      <trkpt lat="41.9543170" lon="-7.3626740">
        <ele>743.4</ele>
        <time>2019-08-17T09:47:06Z</time>
      </trkpt>
      <trkpt lat="41.9543100" lon="-7.3628100">
        <ele>742.7</ele>
        <time>2019-08-17T09:47:07Z</time>
      </trkpt>
      <trkpt lat="41.9542950" lon="-7.3629460">
        <ele>742.0</ele>
        <time>2019-08-17T09:47:08Z</time>
      </trkpt>
      <trkpt lat="41.9542610" lon="-7.3631730">
        <ele>740.9</ele>
        <time>2019-08-17T09:47:09Z</time>
      </trkpt>
      <trkpt lat="41.9542460" lon="-7.3632640">
        <ele>740.5</ele>
        <time>2019-08-17T09:47:10Z</time>
      </trkpt>
      <trkpt lat="41.9542320" lon="-7.3633540">
        <ele>740.1</ele>
        <time>2019-08-17T09:47:11Z</time>
      </trkpt>
      <trkpt lat="41.9542100" lon="-7.3634890">
        <ele>739.4</ele>
        <time>2019-08-17T09:47:12Z</time>
      </trkpt>
      <trkpt lat="41.9541920" lon="-7.3636250">
        <ele>738.8</ele>
        <time>2019-08-17T09:47:13Z</time>
      </trkpt>
      <trkpt lat="41.9541830" lon="-7.3637600">
        <ele>738.1</ele>
        <time>2019-08-17T09:47:14Z</time>
      </trkpt>
      <trkpt lat="41.9541730" lon="-7.3638950">
        <ele>737.4</ele>
        <time>2019-08-17T09:47:15Z</time>
      </trkpt>
      <trkpt lat="41.9541750" lon="-7.3640310">
        <ele>736.5</ele>
        <time>2019-08-17T09:47:16Z</time>
      </trkpt>
      <trkpt lat="41.9541860" lon="-7.3641670">
        <ele>735.6</ele>
        <time>2019-08-17T09:47:17Z</time>
      </trkpt>
      <trkpt lat="41.9542080" lon="-7.3643010">
        <ele>734.6</ele>
        <time>2019-08-17T09:47:18Z</time>
      </trkpt>
      <trkpt lat="41.9542390" lon="-7.3644330">
        <ele>733.7</ele>
        <time>2019-08-17T09:47:19Z</time>
      </trkpt>
      <trkpt lat="41.9542800" lon="-7.3645600">
        <ele>732.8</ele>
        <time>2019-08-17T09:47:20Z</time>
      </trkpt>
      <trkpt lat="41.9543290" lon="-7.3646800">
        <ele>731.9</ele>
        <time>2019-08-17T09:47:21Z</time>
      </trkpt>
      <trkpt lat="41.9543870" lon="-7.3647920">
        <ele>730.9</ele>
        <time>2019-08-17T09:47:22Z</time>
      </trkpt>
      <trkpt lat="41.9544530" lon="-7.3648940">
        <ele>729.8</ele>
        <time>2019-08-17T09:47:23Z</time>
      </trkpt>
      <trkpt lat="41.9545820" lon="-7.3650340">
        <ele>728.5</ele>
        <time>2019-08-17T09:47:24Z</time>
      </trkpt>
      <trkpt lat="41.9546380" lon="-7.3650830">
        <ele>728.0</ele>
        <time>2019-08-17T09:47:25Z</time>
      </trkpt>
      <trkpt lat="41.9546940" lon="-7.3651320">
        <ele>727.5</ele>
        <time>2019-08-17T09:47:26Z</time>
      </trkpt>
      <trkpt lat="41.9547820" lon="-7.3651990">
        <ele>726.9</ele>
        <time>2019-08-17T09:47:27Z</time>
      </trkpt>
      <trkpt lat="41.9548760" lon="-7.3652550">
        <ele>726.2</ele>
        <time>2019-08-17T09:47:28Z</time>
      </trkpt>
      <trkpt lat="41.9550210" lon="-7.3653270">
        <ele>725.6</ele>
        <time>2019-08-17T09:47:29Z</time>
      </trkpt>
      <trkpt lat="41.9550700" lon="-7.3653490">
        <ele>725.4</ele>
        <time>2019-08-17T09:47:30Z</time>
      </trkpt>
      <trkpt lat="41.9551680" lon="-7.3653930">
        <ele>725.0</ele>
        <time>2019-08-17T09:47:31Z</time>
      </trkpt>
      <trkpt lat="41.9552660" lon="-7.3654360">
        <ele>724.6</ele>
        <time>2019-08-17T09:47:32Z</time>
      </trkpt>
      <trkpt lat="41.9553650" lon="-7.3654790">
        <ele>724.1</ele>
        <time>2019-08-17T09:47:33Z</time>
      </trkpt>
      <trkpt lat="41.9554620" lon="-7.3655260">
        <ele>723.7</ele>
        <time>2019-08-17T09:47:34Z</time>
      </trkpt>
      <trkpt lat="41.9555580" lon="-7.3655790">
        <ele>723.2</ele>
        <time>2019-08-17T09:47:35Z</time>
      </trkpt>
      <trkpt lat="41.9556520" lon="-7.3656400">
        <ele>722.8</ele>
        <time>2019-08-17T09:47:36Z</time>
      </trkpt>
      <trkpt lat="41.9557430" lon="-7.3657100">
        <ele>722.3</ele>
        <time>2019-08-17T09:47:37Z</time>
      </trkpt>
      <trkpt lat="41.9558300" lon="-7.3657900">
        <ele>721.9</ele>
        <time>2019-08-17T09:47:38Z</time>
      </trkpt>
      <trkpt lat="41.9559120" lon="-7.3658790">
        <ele>721.5</ele>
        <time>2019-08-17T09:47:39Z</time>
      </trkpt>
      <trkpt lat="41.9559890" lon="-7.3659770">
        <ele>721.1</ele>
        <time>2019-08-17T09:47:40Z</time>
      </trkpt>
      <trkpt lat="41.9560580" lon="-7.3660850">
        <ele>720.7</ele>
        <time>2019-08-17T09:47:41Z</time>
      </trkpt>
      <trkpt lat="41.9561190" lon="-7.3662020">
        <ele>720.2</ele>
        <time>2019-08-17T09:47:42Z</time>
      </trkpt>
      <trkpt lat="41.9561710" lon="-7.3663270">
        <ele>719.8</ele>
        <time>2019-08-17T09:47:43Z</time>
      </trkpt>
      <trkpt lat="41.9562120" lon="-7.3664610">
        <ele>719.3</ele>
        <time>2019-08-17T09:47:44Z</time>
      </trkpt>
      <trkpt lat="41.9562430" lon="-7.3666010">
        <ele>718.8</ele>
        <time>2019-08-17T09:47:45Z</time>
      </trkpt>
      <trkpt lat="41.9562630" lon="-7.3667470">
        <ele>718.3</ele>
        <time>2019-08-17T09:47:46Z</time>
      </trkpt>
      <trkpt lat="41.9562650" lon="-7.3669940">
        <ele>717.5</ele>
        <time>2019-08-17T09:47:47Z</time>
      </trkpt>
      <trkpt lat="41.9562590" lon="-7.3670940">
        <ele>717.1</ele>
        <time>2019-08-17T09:47:48Z</time>
      </trkpt>
      <trkpt lat="41.9562520" lon="-7.3671930">
        <ele>716.8</ele>
        <time>2019-08-17T09:47:49Z</time>
      </trkpt>
      <trkpt lat="41.9562330" lon="-7.3673410">
        <ele>716.2</ele>
        <time>2019-08-17T09:47:50Z</time>
      </trkpt>
      <trkpt lat="41.9561980" lon="-7.3674840">
        <ele>715.7</ele>
        <time>2019-08-17T09:47:51Z</time>
      </trkpt>
      <trkpt lat="41.9561230" lon="-7.3676840">
        <ele>714.9</ele>
        <time>2019-08-17T09:47:52Z</time>
      </trkpt>
      <trkpt lat="41.9560930" lon="-7.3677460">
        <ele>714.6</ele>
        <time>2019-08-17T09:47:53Z</time>
      </trkpt>
      <trkpt lat="41.9560320" lon="-7.3678710">
        <ele>714.0</ele>
        <time>2019-08-17T09:47:54Z</time>
      </trkpt>
      <trkpt lat="41.9559580" lon="-7.3679820">
        <ele>713.5</ele>
        <time>2019-08-17T09:47:55Z</time>
      </trkpt>
      <trkpt lat="41.9558750" lon="-7.3680820">
        <ele>712.9</ele>
        <time>2019-08-17T09:47:56Z</time>
      </trkpt>
      <trkpt lat="41.9557860" lon="-7.3681690">
        <ele>712.4</ele>
        <time>2019-08-17T09:47:57Z</time>
      </trkpt>
      <trkpt lat="41.9556900" lon="-7.3682450">
        <ele>711.7</ele>
        <time>2019-08-17T09:47:58Z</time>
      </trkpt>
      <trkpt lat="41.9555910" lon="-7.3683120">
        <ele>711.1</ele>
        <time>2019-08-17T09:47:59Z</time>
      </trkpt>
      <trkpt lat="41.9554890" lon="-7.3683740">
        <ele>710.6</ele>
        <time>2019-08-17T09:48:00Z</time>
      </trkpt>
      <trkpt lat="41.9553880" lon="-7.3684310">
        <ele>710.2</ele>
        <time>2019-08-17T09:48:01Z</time>
      </trkpt>
      <trkpt lat="41.9552860" lon="-7.3684860">
        <ele>709.8</ele>
        <time>2019-08-17T09:48:02Z</time>
      </trkpt>
      <trkpt lat="41.9551830" lon="-7.3685400">
        <ele>709.4</ele>
        <time>2019-08-17T09:48:03Z</time>
      </trkpt>
      <trkpt lat="41.9550810" lon="-7.3685940">
        <ele>709.0</ele>
        <time>2019-08-17T09:48:04Z</time>
      </trkpt>
      <trkpt lat="41.9549780" lon="-7.3686490">
        <ele>708.6</ele>
        <time>2019-08-17T09:48:05Z</time>
      </trkpt>
      <trkpt lat="41.9548750" lon="-7.3687040">
        <ele>708.2</ele>
        <time>2019-08-17T09:48:06Z</time>
      </trkpt>
      <trkpt lat="41.9547720" lon="-7.3687580">
        <ele>707.7</ele>
        <time>2019-08-17T09:48:07Z</time>
      </trkpt>
      <trkpt lat="41.9546680" lon="-7.3688130">
        <ele>707.3</ele>
        <time>2019-08-17T09:48:08Z</time>
      </trkpt>
      <trkpt lat="41.9545630" lon="-7.3688670">
        <ele>706.8</ele>
        <time>2019-08-17T09:48:09Z</time>
      </trkpt>
      <trkpt lat="41.9544570" lon="-7.3689200">
        <ele>706.3</ele>
        <time>2019-08-17T09:48:10Z</time>
      </trkpt>
      <trkpt lat="41.9543510" lon="-7.3689730">
        <ele>705.8</ele>
        <time>2019-08-17T09:48:11Z</time>
      </trkpt>
      <trkpt lat="41.9542450" lon="-7.3690260">
        <ele>705.3</ele>
        <time>2019-08-17T09:48:12Z</time>
      </trkpt>
      <trkpt lat="41.9541390" lon="-7.3690810">
        <ele>704.8</ele>
        <time>2019-08-17T09:48:13Z</time>
      </trkpt>
      <trkpt lat="41.9540350" lon="-7.3691390">
        <ele>704.4</ele>
        <time>2019-08-17T09:48:14Z</time>
      </trkpt>
      <trkpt lat="41.9539310" lon="-7.3692000">
        <ele>703.9</ele>
        <time>2019-08-17T09:48:15Z</time>
      </trkpt>
      <trkpt lat="41.9538290" lon="-7.3692640">
        <ele>703.3</ele>
        <time>2019-08-17T09:48:16Z</time>
      </trkpt>
      <trkpt lat="41.9537300" lon="-7.3693340">
        <ele>702.7</ele>
        <time>2019-08-17T09:48:17Z</time>
      </trkpt>
      <trkpt lat="41.9536340" lon="-7.3694120">
        <ele>702.1</ele>
        <time>2019-08-17T09:48:18Z</time>
      </trkpt>
      <trkpt lat="41.9535450" lon="-7.3695000">
        <ele>701.4</ele>
        <time>2019-08-17T09:48:19Z</time>
      </trkpt>
      <trkpt lat="41.9534630" lon="-7.3696000">
        <ele>700.9</ele>
        <time>2019-08-17T09:48:20Z</time>
      </trkpt>
      <trkpt lat="41.9533900" lon="-7.3697110">
        <ele>700.4</ele>
        <time>2019-08-17T09:48:21Z</time>
      </trkpt>
      <trkpt lat="41.9533290" lon="-7.3698310">
        <ele>699.9</ele>
        <time>2019-08-17T09:48:22Z</time>
      </trkpt>
      <trkpt lat="41.9532790" lon="-7.3699570">
        <ele>699.4</ele>
        <time>2019-08-17T09:48:23Z</time>
      </trkpt>
      <trkpt lat="41.9532260" lon="-7.3701790">
        <ele>698.5</ele>
        <time>2019-08-17T09:48:24Z</time>
      </trkpt>
      <trkpt lat="41.9532110" lon="-7.3702700">
        <ele>698.1</ele>
        <time>2019-08-17T09:48:25Z</time>
      </trkpt>
      <trkpt lat="41.9531960" lon="-7.3703620">
        <ele>697.6</ele>
        <time>2019-08-17T09:48:26Z</time>
      </trkpt>
      <trkpt lat="41.9531800" lon="-7.3705010">
        <ele>697.0</ele>
        <time>2019-08-17T09:48:27Z</time>
      </trkpt>
      <trkpt lat="41.9531740" lon="-7.3706430">
        <ele>696.4</ele>
        <time>2019-08-17T09:48:28Z</time>
      </trkpt>
      <trkpt lat="41.9531760" lon="-7.3708800">
        <ele>695.6</ele>
        <time>2019-08-17T09:48:29Z</time>
      </trkpt>
      <trkpt lat="41.9531790" lon="-7.3709740">
        <ele>695.2</ele>
        <time>2019-08-17T09:48:30Z</time>
      </trkpt>
      <trkpt lat="41.9531820" lon="-7.3710690">
        <ele>694.9</ele>
        <time>2019-08-17T09:48:31Z</time>
      </trkpt>
      <trkpt lat="41.9531880" lon="-7.3712110">
        <ele>694.4</ele>
        <time>2019-08-17T09:48:32Z</time>
      </trkpt>
      <trkpt lat="41.9531960" lon="-7.3713520">
        <ele>694.0</ele>
        <time>2019-08-17T09:48:33Z</time>
      </trkpt>
      <trkpt lat="41.9532050" lon="-7.3714930">
        <ele>693.6</ele>
        <time>2019-08-17T09:48:34Z</time>
      </trkpt>
      <trkpt lat="41.9532130" lon="-7.3716340">
        <ele>693.1</ele>
        <time>2019-08-17T09:48:35Z</time>
      </trkpt>
      <trkpt lat="41.9532190" lon="-7.3717750">
        <ele>692.7</ele>
        <time>2019-08-17T09:48:36Z</time>
      </trkpt>
      <trkpt lat="41.9532230" lon="-7.3719150">
        <ele>692.3</ele>
        <time>2019-08-17T09:48:37Z</time>
      </trkpt>
      <trkpt lat="41.9532240" lon="-7.3720550">
        <ele>691.8</ele>
        <time>2019-08-17T09:48:38Z</time>
      </trkpt>
      <trkpt lat="41.9532220" lon="-7.3721960">
        <ele>691.4</ele>
        <time>2019-08-17T09:48:39Z</time>
      </trkpt>
      <trkpt lat="41.9532170" lon="-7.3723350">
        <ele>691.0</ele>
        <time>2019-08-17T09:48:40Z</time>
      </trkpt>
      <trkpt lat="41.9532080" lon="-7.3724750">
        <ele>690.5</ele>
        <time>2019-08-17T09:48:41Z</time>
      </trkpt>
      <trkpt lat="41.9531960" lon="-7.3726150">
        <ele>690.0</ele>
        <time>2019-08-17T09:48:42Z</time>
      </trkpt>
      <trkpt lat="41.9531790" lon="-7.3727540">
        <ele>689.6</ele>
        <time>2019-08-17T09:48:43Z</time>
      </trkpt>
      <trkpt lat="41.9531570" lon="-7.3728930">
        <ele>689.1</ele>
        <time>2019-08-17T09:48:44Z</time>
      </trkpt>
      <trkpt lat="41.9531310" lon="-7.3730320">
        <ele>688.6</ele>
        <time>2019-08-17T09:48:45Z</time>
      </trkpt>
      <trkpt lat="41.9531010" lon="-7.3731700">
        <ele>688.1</ele>
        <time>2019-08-17T09:48:46Z</time>
      </trkpt>
      <trkpt lat="41.9530660" lon="-7.3733070">
        <ele>687.6</ele>
        <time>2019-08-17T09:48:47Z</time>
      </trkpt>
      <trkpt lat="41.9530280" lon="-7.3734430">
        <ele>687.1</ele>
        <time>2019-08-17T09:48:48Z</time>
      </trkpt>
      <trkpt lat="41.9529850" lon="-7.3735790">
        <ele>686.6</ele>
        <time>2019-08-17T09:48:49Z</time>
      </trkpt>
      <trkpt lat="41.9529030" lon="-7.3738000">
        <ele>685.8</ele>
        <time>2019-08-17T09:48:50Z</time>
      </trkpt>
      <trkpt lat="41.9528680" lon="-7.3738870">
        <ele>685.5</ele>
        <time>2019-08-17T09:48:51Z</time>
      </trkpt>
      <trkpt lat="41.9528320" lon="-7.3739740">
        <ele>685.2</ele>
        <time>2019-08-17T09:48:52Z</time>
      </trkpt>
      <trkpt lat="41.9527760" lon="-7.3741030">
        <ele>684.6</ele>
        <time>2019-08-17T09:48:53Z</time>
      </trkpt>
      <trkpt lat="41.9527140" lon="-7.3742260">
        <ele>684.1</ele>
        <time>2019-08-17T09:48:54Z</time>
      </trkpt>
      <trkpt lat="41.9526000" lon="-7.3744200">
        <ele>683.4</ele>
        <time>2019-08-17T09:48:55Z</time>
      </trkpt>
      <trkpt lat="41.9525520" lon="-7.3744950">
        <ele>683.2</ele>
        <time>2019-08-17T09:48:56Z</time>
      </trkpt>
      <trkpt lat="41.9525040" lon="-7.3745690">
        <ele>682.9</ele>
        <time>2019-08-17T09:48:57Z</time>
      </trkpt>
      <trkpt lat="41.9524290" lon="-7.3746770">
        <ele>682.3</ele>
        <time>2019-08-17T09:48:58Z</time>
      </trkpt>
      <trkpt lat="41.9523500" lon="-7.3747780">
        <ele>681.8</ele>
        <time>2019-08-17T09:48:59Z</time>
      </trkpt>
      <trkpt lat="41.9522680" lon="-7.3748760">
        <ele>681.0</ele>
        <time>2019-08-17T09:49:00Z</time>
      </trkpt>
      <trkpt lat="41.9521860" lon="-7.3749720">
        <ele>680.2</ele>
        <time>2019-08-17T09:49:01Z</time>
      </trkpt>
      <trkpt lat="41.9521020" lon="-7.3750640">
        <ele>679.3</ele>
        <time>2019-08-17T09:49:02Z</time>
      </trkpt>
      <trkpt lat="41.9520180" lon="-7.3751550">
        <ele>678.3</ele>
        <time>2019-08-17T09:49:03Z</time>
      </trkpt>
      <trkpt lat="41.9519350" lon="-7.3752450">
        <ele>677.3</ele>
        <time>2019-08-17T09:49:04Z</time>
      </trkpt>
      <trkpt lat="41.9518510" lon="-7.3753340">
        <ele>676.2</ele>
        <time>2019-08-17T09:49:05Z</time>
      </trkpt>
      <trkpt lat="41.9517680" lon="-7.3754220">
        <ele>675.2</ele>
        <time>2019-08-17T09:49:06Z</time>
      </trkpt>
      <trkpt lat="41.9516850" lon="-7.3755100">
        <ele>674.2</ele>
        <time>2019-08-17T09:49:07Z</time>
      </trkpt>
      <trkpt lat="41.9516010" lon="-7.3755980">
        <ele>673.1</ele>
        <time>2019-08-17T09:49:08Z</time>
      </trkpt>
      <trkpt lat="41.9515180" lon="-7.3756870">
        <ele>672.1</ele>
        <time>2019-08-17T09:49:09Z</time>
      </trkpt>
      <trkpt lat="41.9514340" lon="-7.3757760">
        <ele>671.0</ele>
        <time>2019-08-17T09:49:10Z</time>
      </trkpt>
      <trkpt lat="41.9513500" lon="-7.3758660">
        <ele>669.8</ele>
        <time>2019-08-17T09:49:11Z</time>
      </trkpt>
      <trkpt lat="41.9512660" lon="-7.3759580">
        <ele>668.6</ele>
        <time>2019-08-17T09:49:12Z</time>
      </trkpt>
      <trkpt lat="41.9511810" lon="-7.3760500">
        <ele>667.3</ele>
        <time>2019-08-17T09:49:13Z</time>
      </trkpt>
      <trkpt lat="41.9510950" lon="-7.3761440">
        <ele>666.0</ele>
        <time>2019-08-17T09:49:14Z</time>
      </trkpt>
      <trkpt lat="41.9510090" lon="-7.3762380">
        <ele>664.6</ele>
        <time>2019-08-17T09:49:15Z</time>
      </trkpt>
      <trkpt lat="41.9509220" lon="-7.3763340">
        <ele>663.1</ele>
        <time>2019-08-17T09:49:16Z</time>
      </trkpt>
      <trkpt lat="41.9508340" lon="-7.3764310">
        <ele>661.6</ele>
        <time>2019-08-17T09:49:17Z</time>
      </trkpt>
      <trkpt lat="41.9507450" lon="-7.3765280">
        <ele>660.2</ele>
        <time>2019-08-17T09:49:18Z</time>
      </trkpt>
      <trkpt lat="41.9506570" lon="-7.3766270">
        <ele>658.8</ele>
        <time>2019-08-17T09:49:19Z</time>
      </trkpt>
      <trkpt lat="41.9505690" lon="-7.3767270">
        <ele>657.5</ele>
        <time>2019-08-17T09:49:20Z</time>
      </trkpt>
      <trkpt lat="41.9504830" lon="-7.3768290">
        <ele>656.3</ele>
        <time>2019-08-17T09:49:21Z</time>
      </trkpt>
      <trkpt lat="41.9503990" lon="-7.3769330">
        <ele>655.2</ele>
        <time>2019-08-17T09:49:22Z</time>
      </trkpt>
      <trkpt lat="41.9503200" lon="-7.3770400">
        <ele>654.1</ele>
        <time>2019-08-17T09:49:23Z</time>
      </trkpt>
      <trkpt lat="41.9502460" lon="-7.3771510">
        <ele>653.2</ele>
        <time>2019-08-17T09:49:24Z</time>
      </trkpt>
      <trkpt lat="41.9501790" lon="-7.3772670">
        <ele>652.0</ele>
        <time>2019-08-17T09:49:25Z</time>
      </trkpt>
      <trkpt lat="41.9501190" lon="-7.3773890">
        <ele>650.6</ele>
        <time>2019-08-17T09:49:26Z</time>
      </trkpt>
      <trkpt lat="41.9500660" lon="-7.3775160">
        <ele>649.4</ele>
        <time>2019-08-17T09:49:27Z</time>
      </trkpt>
      <trkpt lat="41.9500200" lon="-7.3776490">
        <ele>648.2</ele>
        <time>2019-08-17T09:49:28Z</time>
      </trkpt>
      <trkpt lat="41.9499830" lon="-7.3777880">
        <ele>647.1</ele>
        <time>2019-08-17T09:49:29Z</time>
      </trkpt>
      <trkpt lat="41.9499540" lon="-7.3779310">
        <ele>645.9</ele>
        <time>2019-08-17T09:49:30Z</time>
      </trkpt>
      <trkpt lat="41.9499350" lon="-7.3780770">
        <ele>645.2</ele>
        <time>2019-08-17T09:49:31Z</time>
      </trkpt>
      <trkpt lat="41.9499240" lon="-7.3782260">
        <ele>644.7</ele>
        <time>2019-08-17T09:49:32Z</time>
      </trkpt>
      <trkpt lat="41.9499220" lon="-7.3783770">
        <ele>644.4</ele>
        <time>2019-08-17T09:49:33Z</time>
      </trkpt>
      <trkpt lat="41.9499280" lon="-7.3785300">
        <ele>644.0</ele>
        <time>2019-08-17T09:49:34Z</time>
      </trkpt>
      <trkpt lat="41.9499400" lon="-7.3786840">
        <ele>643.8</ele>
        <time>2019-08-17T09:49:35Z</time>
      </trkpt>
      <trkpt lat="41.9499590" lon="-7.3788390">
        <ele>643.6</ele>
        <time>2019-08-17T09:49:36Z</time>
      </trkpt>
      <trkpt lat="41.9499860" lon="-7.3789930">
        <ele>643.5</ele>
        <time>2019-08-17T09:49:37Z</time>
      </trkpt>
      <trkpt lat="41.9500120" lon="-7.3791480">
        <ele>643.4</ele>
        <time>2019-08-17T09:49:38Z</time>
      </trkpt>
      <trkpt lat="41.9500450" lon="-7.3793010">
        <ele>643.2</ele>
        <time>2019-08-17T09:49:39Z</time>
      </trkpt>
      <trkpt lat="41.9500810" lon="-7.3794540">
        <ele>643.0</ele>
        <time>2019-08-17T09:49:40Z</time>
      </trkpt>
      <trkpt lat="41.9501170" lon="-7.3796060">
        <ele>642.8</ele>
        <time>2019-08-17T09:49:41Z</time>
      </trkpt>
      <trkpt lat="41.9501530" lon="-7.3797560">
        <ele>642.5</ele>
        <time>2019-08-17T09:49:42Z</time>
      </trkpt>
      <trkpt lat="41.9501870" lon="-7.3799050">
        <ele>642.2</ele>
        <time>2019-08-17T09:49:43Z</time>
      </trkpt>
      <trkpt lat="41.9502190" lon="-7.3800530">
        <ele>641.8</ele>
        <time>2019-08-17T09:49:44Z</time>
      </trkpt>
      <trkpt lat="41.9502500" lon="-7.3801980">
        <ele>641.5</ele>
        <time>2019-08-17T09:49:45Z</time>
      </trkpt>
      <trkpt lat="41.9502810" lon="-7.3803410">
        <ele>641.1</ele>
        <time>2019-08-17T09:49:46Z</time>
      </trkpt>
      <trkpt lat="41.9503140" lon="-7.3804820">
        <ele>640.8</ele>
        <time>2019-08-17T09:49:47Z</time>
      </trkpt>
      <trkpt lat="41.9503510" lon="-7.3806180">
        <ele>640.6</ele>
        <time>2019-08-17T09:49:48Z</time>
      </trkpt>
      <trkpt lat="41.9503940" lon="-7.3807510">
        <ele>641.3</ele>
        <time>2019-08-17T09:49:49Z</time>
      </trkpt>
      <trkpt lat="41.9504440" lon="-7.3808800">
        <ele>641.9</ele>
        <time>2019-08-17T09:49:50Z</time>
      </trkpt>
      <trkpt lat="41.9505030" lon="-7.3810040">
        <ele>642.3</ele>
        <time>2019-08-17T09:49:51Z</time>
      </trkpt>
      <trkpt lat="41.9505710" lon="-7.3811210">
        <ele>642.8</ele>
        <time>2019-08-17T09:49:52Z</time>
      </trkpt>
      <trkpt lat="41.9506470" lon="-7.3812290">
        <ele>643.5</ele>
        <time>2019-08-17T09:49:53Z</time>
      </trkpt>
      <trkpt lat="41.9507310" lon="-7.3813260">
        <ele>643.6</ele>
        <time>2019-08-17T09:49:54Z</time>
      </trkpt>
      <trkpt lat="41.9508220" lon="-7.3814110">
        <ele>642.8</ele>
        <time>2019-08-17T09:49:55Z</time>
      </trkpt>
      <trkpt lat="41.9509210" lon="-7.3814860">
        <ele>641.6</ele>
        <time>2019-08-17T09:49:56Z</time>
      </trkpt>
      <trkpt lat="41.9510270" lon="-7.3815510">
        <ele>640.3</ele>
        <time>2019-08-17T09:49:57Z</time>
      </trkpt>
      <trkpt lat="41.9511410" lon="-7.3816100">
        <ele>638.5</ele>
        <time>2019-08-17T09:49:58Z</time>
      </trkpt>
      <trkpt lat="41.9512580" lon="-7.3816660">
        <ele>636.9</ele>
        <time>2019-08-17T09:49:59Z</time>
      </trkpt>
      <trkpt lat="41.9513750" lon="-7.3817230">
        <ele>635.4</ele>
        <time>2019-08-17T09:50:00Z</time>
      </trkpt>
      <trkpt lat="41.9514910" lon="-7.3817800">
        <ele>633.8</ele>
        <time>2019-08-17T09:50:01Z</time>
      </trkpt>
      <trkpt lat="41.9516090" lon="-7.3818370">
        <ele>632.4</ele>
        <time>2019-08-17T09:50:02Z</time>
      </trkpt>
      <trkpt lat="41.9517220" lon="-7.3818940">
        <ele>630.7</ele>
        <time>2019-08-17T09:50:03Z</time>
      </trkpt>
      <trkpt lat="41.9518290" lon="-7.3819540">
        <ele>629.4</ele>
        <time>2019-08-17T09:50:04Z</time>
      </trkpt>
      <trkpt lat="41.9519320" lon="-7.3820200">
        <ele>628.2</ele>
        <time>2019-08-17T09:50:05Z</time>
      </trkpt>
      <trkpt lat="41.9520310" lon="-7.3820930">
        <ele>627.0</ele>
        <time>2019-08-17T09:50:06Z</time>
      </trkpt>
      <trkpt lat="41.9521270" lon="-7.3821740">
        <ele>625.9</ele>
        <time>2019-08-17T09:50:07Z</time>
      </trkpt>
      <trkpt lat="41.9522160" lon="-7.3822620">
        <ele>624.8</ele>
        <time>2019-08-17T09:50:08Z</time>
      </trkpt>
      <trkpt lat="41.9522990" lon="-7.3823580">
        <ele>623.8</ele>
        <time>2019-08-17T09:50:09Z</time>
      </trkpt>
      <trkpt lat="41.9524070" lon="-7.3825200">
        <ele>622.4</ele>
        <time>2019-08-17T09:50:10Z</time>
      </trkpt>
      <trkpt lat="41.9524400" lon="-7.3825770">
        <ele>621.9</ele>
        <time>2019-08-17T09:50:11Z</time>
      </trkpt>
      <trkpt lat="41.9524980" lon="-7.3826990">
        <ele>621.0</ele>
        <time>2019-08-17T09:50:12Z</time>
      </trkpt>
      <trkpt lat="41.9525480" lon="-7.3828270">
        <ele>620.1</ele>
        <time>2019-08-17T09:50:13Z</time>
      </trkpt>
      <trkpt lat="41.9525910" lon="-7.3829600">
        <ele>619.3</ele>
        <time>2019-08-17T09:50:14Z</time>
      </trkpt>
      <trkpt lat="41.9526280" lon="-7.3830970">
        <ele>618.5</ele>
        <time>2019-08-17T09:50:15Z</time>
      </trkpt>
      <trkpt lat="41.9526600" lon="-7.3832370">
        <ele>617.6</ele>
        <time>2019-08-17T09:50:16Z</time>
      </trkpt>
      <trkpt lat="41.9527020" lon="-7.3834740">
        <ele>616.0</ele>
        <time>2019-08-17T09:50:17Z</time>
      </trkpt>
      <trkpt lat="41.9527160" lon="-7.3835680">
        <ele>615.4</ele>
        <time>2019-08-17T09:50:18Z</time>
      </trkpt>
      <trkpt lat="41.9527310" lon="-7.3836630">
        <ele>614.9</ele>
        <time>2019-08-17T09:50:19Z</time>
      </trkpt>
      <trkpt lat="41.9527500" lon="-7.3838060">
        <ele>613.9</ele>
        <time>2019-08-17T09:50:20Z</time>
      </trkpt>
      <trkpt lat="41.9527670" lon="-7.3839510">
        <ele>613.0</ele>
        <time>2019-08-17T09:50:21Z</time>
      </trkpt>
      <trkpt lat="41.9527940" lon="-7.3841950">
        <ele>611.2</ele>
        <time>2019-08-17T09:50:22Z</time>
      </trkpt>
      <trkpt lat="41.9528050" lon="-7.3842940">
        <ele>610.5</ele>
        <time>2019-08-17T09:50:23Z</time>
      </trkpt>
      <trkpt lat="41.9528160" lon="-7.3843930">
        <ele>609.7</ele>
        <time>2019-08-17T09:50:24Z</time>
      </trkpt>
      <trkpt lat="41.9528340" lon="-7.3845420">
        <ele>608.4</ele>
        <time>2019-08-17T09:50:25Z</time>
      </trkpt>
      <trkpt lat="41.9528510" lon="-7.3846920">
        <ele>607.0</ele>
        <time>2019-08-17T09:50:26Z</time>
      </trkpt>
      <trkpt lat="41.9528700" lon="-7.3848450">
        <ele>605.5</ele>
        <time>2019-08-17T09:50:27Z</time>
      </trkpt>
      <trkpt lat="41.9528890" lon="-7.3849980">
        <ele>603.8</ele>
        <time>2019-08-17T09:50:28Z</time>
      </trkpt>
      <trkpt lat="41.9529090" lon="-7.3851500">
        <ele>602.6</ele>
        <time>2019-08-17T09:50:29Z</time>
      </trkpt>
      <trkpt lat="41.9529280" lon="-7.3853020">
        <ele>601.4</ele>
        <time>2019-08-17T09:50:30Z</time>
      </trkpt>
      <trkpt lat="41.9529470" lon="-7.3854530">
        <ele>600.2</ele>
        <time>2019-08-17T09:50:31Z</time>
      </trkpt>
      <trkpt lat="41.9529660" lon="-7.3856030">
        <ele>599.0</ele>
        <time>2019-08-17T09:50:32Z</time>
      </trkpt>
      <trkpt lat="41.9529850" lon="-7.3857500">
        <ele>597.8</ele>
        <time>2019-08-17T09:50:33Z</time>
      </trkpt>
      <trkpt lat="41.9530070" lon="-7.3858960">
        <ele>596.5</ele>
        <time>2019-08-17T09:50:34Z</time>
      </trkpt>
      <trkpt lat="41.9530310" lon="-7.3860390">
        <ele>595.5</ele>
        <time>2019-08-17T09:50:35Z</time>
      </trkpt>
      <trkpt lat="41.9530580" lon="-7.3861790">
        <ele>594.7</ele>
        <time>2019-08-17T09:50:36Z</time>
      </trkpt>
      <trkpt lat="41.9531200" lon="-7.3864030">
        <ele>593.7</ele>
        <time>2019-08-17T09:50:37Z</time>
      </trkpt>
      <trkpt lat="41.9531490" lon="-7.3864910">
        <ele>593.5</ele>
        <time>2019-08-17T09:50:38Z</time>
      </trkpt>
      <trkpt lat="41.9531780" lon="-7.3865780">
        <ele>593.2</ele>
        <time>2019-08-17T09:50:39Z</time>
      </trkpt>
      <trkpt lat="41.9532260" lon="-7.3867060">
        <ele>593.0</ele>
        <time>2019-08-17T09:50:40Z</time>
      </trkpt>
      <trkpt lat="41.9532840" lon="-7.3868270">
        <ele>592.8</ele>
        <time>2019-08-17T09:50:41Z</time>
      </trkpt>
      <trkpt lat="41.9533970" lon="-7.3870130">
        <ele>592.5</ele>
        <time>2019-08-17T09:50:42Z</time>
      </trkpt>
      <trkpt lat="41.9534460" lon="-7.3870830">
        <ele>592.3</ele>
        <time>2019-08-17T09:50:43Z</time>
      </trkpt>
      <trkpt lat="41.9534960" lon="-7.3871530">
        <ele>592.2</ele>
        <time>2019-08-17T09:50:44Z</time>
      </trkpt>
      <trkpt lat="41.9535740" lon="-7.3872540">
        <ele>591.8</ele>
        <time>2019-08-17T09:50:45Z</time>
      </trkpt>
      <trkpt lat="41.9536620" lon="-7.3873450">
        <ele>591.4</ele>
        <time>2019-08-17T09:50:46Z</time>
      </trkpt>
      <trkpt lat="41.9537540" lon="-7.3874290">
        <ele>590.9</ele>
        <time>2019-08-17T09:50:47Z</time>
      </trkpt>
      <trkpt lat="41.9538500" lon="-7.3875070">
        <ele>590.2</ele>
        <time>2019-08-17T09:50:48Z</time>
      </trkpt>
      <trkpt lat="41.9539490" lon="-7.3875790">
        <ele>589.4</ele>
        <time>2019-08-17T09:50:49Z</time>
      </trkpt>
      <trkpt lat="41.9540500" lon="-7.3876460">
        <ele>588.7</ele>
        <time>2019-08-17T09:50:50Z</time>
      </trkpt>
      <trkpt lat="41.9541540" lon="-7.3877060">
        <ele>587.8</ele>
        <time>2019-08-17T09:50:51Z</time>
      </trkpt>
      <trkpt lat="41.9542580" lon="-7.3877610">
        <ele>586.8</ele>
        <time>2019-08-17T09:50:52Z</time>
      </trkpt>
      <trkpt lat="41.9543640" lon="-7.3878100">
        <ele>585.6</ele>
        <time>2019-08-17T09:50:53Z</time>
      </trkpt>
      <trkpt lat="41.9544690" lon="-7.3878590">
        <ele>584.4</ele>
        <time>2019-08-17T09:50:54Z</time>
      </trkpt>
      <trkpt lat="41.9545750" lon="-7.3879050">
        <ele>583.4</ele>
        <time>2019-08-17T09:50:55Z</time>
      </trkpt>
      <trkpt lat="41.9546810" lon="-7.3879510">
        <ele>582.5</ele>
        <time>2019-08-17T09:50:56Z</time>
      </trkpt>
      <trkpt lat="41.9547860" lon="-7.3879980">
        <ele>581.5</ele>
        <time>2019-08-17T09:50:57Z</time>
      </trkpt>
      <trkpt lat="41.9548920" lon="-7.3880440">
        <ele>580.5</ele>
        <time>2019-08-17T09:50:58Z</time>
      </trkpt>
      <trkpt lat="41.9549970" lon="-7.3880900">
        <ele>579.5</ele>
        <time>2019-08-17T09:50:59Z</time>
      </trkpt>
      <trkpt lat="41.9551020" lon="-7.3881360">
        <ele>578.6</ele>
        <time>2019-08-17T09:51:00Z</time>
      </trkpt>
      <trkpt lat="41.9552070" lon="-7.3881810">
        <ele>577.7</ele>
        <time>2019-08-17T09:51:01Z</time>
      </trkpt>
      <trkpt lat="41.9553120" lon="-7.3882250">
        <ele>577.0</ele>
        <time>2019-08-17T09:51:02Z</time>
      </trkpt>
      <trkpt lat="41.9554180" lon="-7.3882690">
        <ele>576.3</ele>
        <time>2019-08-17T09:51:03Z</time>
      </trkpt>
      <trkpt lat="41.9555240" lon="-7.3883110">
        <ele>575.6</ele>
        <time>2019-08-17T09:51:04Z</time>
      </trkpt>
      <trkpt lat="41.9556310" lon="-7.3883520">
        <ele>575.0</ele>
        <time>2019-08-17T09:51:05Z</time>
      </trkpt>
      <trkpt lat="41.9557380" lon="-7.3883930">
        <ele>574.4</ele>
        <time>2019-08-17T09:51:06Z</time>
      </trkpt>
      <trkpt lat="41.9558440" lon="-7.3884340">
        <ele>574.1</ele>
        <time>2019-08-17T09:51:07Z</time>
      </trkpt>
      <trkpt lat="41.9559490" lon="-7.3884770">
        <ele>574.1</ele>
        <time>2019-08-17T09:51:08Z</time>
      </trkpt>
      <trkpt lat="41.9560520" lon="-7.3885220">
        <ele>574.1</ele>
        <time>2019-08-17T09:51:09Z</time>
      </trkpt>
      <trkpt lat="41.9561510" lon="-7.3885710">
        <ele>574.2</ele>
        <time>2019-08-17T09:51:10Z</time>
      </trkpt>
      <trkpt lat="41.9562470" lon="-7.3886250">
        <ele>574.4</ele>
        <time>2019-08-17T09:51:11Z</time>
      </trkpt>
      <trkpt lat="41.9563940" lon="-7.3887290">
        <ele>574.6</ele>
        <time>2019-08-17T09:51:12Z</time>
      </trkpt>
      <trkpt lat="41.9564490" lon="-7.3887750">
        <ele>574.7</ele>
        <time>2019-08-17T09:51:13Z</time>
      </trkpt>
      <trkpt lat="41.9565050" lon="-7.3888200">
        <ele>574.5</ele>
        <time>2019-08-17T09:51:14Z</time>
      </trkpt>
      <trkpt lat="41.9565810" lon="-7.3888970">
        <ele>574.1</ele>
        <time>2019-08-17T09:51:15Z</time>
      </trkpt>
      <trkpt lat="41.9566510" lon="-7.3889800">
        <ele>573.7</ele>
        <time>2019-08-17T09:51:16Z</time>
      </trkpt>
      <trkpt lat="41.9567510" lon="-7.3891370">
        <ele>573.0</ele>
        <time>2019-08-17T09:51:17Z</time>
      </trkpt>
      <trkpt lat="41.9567880" lon="-7.3892040">
        <ele>572.7</ele>
        <time>2019-08-17T09:51:18Z</time>
      </trkpt>
      <trkpt lat="41.9568240" lon="-7.3892710">
        <ele>572.4</ele>
        <time>2019-08-17T09:51:19Z</time>
      </trkpt>
      <trkpt lat="41.9568690" lon="-7.3893810">
        <ele>572.0</ele>
        <time>2019-08-17T09:51:20Z</time>
      </trkpt>
      <trkpt lat="41.9569060" lon="-7.3894960">
        <ele>571.5</ele>
        <time>2019-08-17T09:51:21Z</time>
      </trkpt>
      <trkpt lat="41.9569360" lon="-7.3896160">
        <ele>570.8</ele>
        <time>2019-08-17T09:51:22Z</time>
      </trkpt>
      <trkpt lat="41.9569570" lon="-7.3897410">
        <ele>570.1</ele>
        <time>2019-08-17T09:51:23Z</time>
      </trkpt>
      <trkpt lat="41.9569710" lon="-7.3898690">
        <ele>569.4</ele>
        <time>2019-08-17T09:51:24Z</time>
      </trkpt>
      <trkpt lat="41.9569750" lon="-7.3900000">
        <ele>568.8</ele>
        <time>2019-08-17T09:51:25Z</time>
      </trkpt>
      <trkpt lat="41.9569700" lon="-7.3901330">
        <ele>568.0</ele>
        <time>2019-08-17T09:51:26Z</time>
      </trkpt>
      <trkpt lat="41.9569520" lon="-7.3902670">
        <ele>567.1</ele>
        <time>2019-08-17T09:51:27Z</time>
      </trkpt>
      <trkpt lat="41.9569330" lon="-7.3904000">
        <ele>566.2</ele>
        <time>2019-08-17T09:51:28Z</time>
      </trkpt>
      <trkpt lat="41.9569010" lon="-7.3905310">
        <ele>565.4</ele>
        <time>2019-08-17T09:51:29Z</time>
      </trkpt>
      <trkpt lat="41.9568610" lon="-7.3906580">
        <ele>564.6</ele>
        <time>2019-08-17T09:51:30Z</time>
      </trkpt>
      <trkpt lat="41.9568140" lon="-7.3907810">
        <ele>563.9</ele>
        <time>2019-08-17T09:51:31Z</time>
      </trkpt>
      <trkpt lat="41.9567580" lon="-7.3908960">
        <ele>563.2</ele>
        <time>2019-08-17T09:51:32Z</time>
      </trkpt>
      <trkpt lat="41.9566970" lon="-7.3910070">
        <ele>562.4</ele>
        <time>2019-08-17T09:51:33Z</time>
      </trkpt>
      <trkpt lat="41.9566330" lon="-7.3911140">
        <ele>561.5</ele>
        <time>2019-08-17T09:51:34Z</time>
      </trkpt>
      <trkpt lat="41.9565660" lon="-7.3912190">
        <ele>560.8</ele>
        <time>2019-08-17T09:51:35Z</time>
      </trkpt>
      <trkpt lat="41.9565010" lon="-7.3913220">
        <ele>560.3</ele>
        <time>2019-08-17T09:51:36Z</time>
      </trkpt>
      <trkpt lat="41.9564360" lon="-7.3914240">
        <ele>559.8</ele>
        <time>2019-08-17T09:51:37Z</time>
      </trkpt>
      <trkpt lat="41.9563720" lon="-7.3915240">
        <ele>559.2</ele>
        <time>2019-08-17T09:51:38Z</time>
      </trkpt>
      <trkpt lat="41.9563100" lon="-7.3916220">
        <ele>558.6</ele>
        <time>2019-08-17T09:51:39Z</time>
      </trkpt>
      <trkpt lat="41.9562500" lon="-7.3917170">
        <ele>558.1</ele>
        <time>2019-08-17T09:51:40Z</time>
      </trkpt>
      <trkpt lat="41.9561900" lon="-7.3918120">
        <ele>557.6</ele>
        <time>2019-08-17T09:51:41Z</time>
      </trkpt>
      <trkpt lat="41.9561330" lon="-7.3919060">
        <ele>557.1</ele>
        <time>2019-08-17T09:51:42Z</time>
      </trkpt>
      <trkpt lat="41.9560760" lon="-7.3919990">
        <ele>556.7</ele>
        <time>2019-08-17T09:51:43Z</time>
      </trkpt>
      <trkpt lat="41.9560220" lon="-7.3920940">
        <ele>556.4</ele>
        <time>2019-08-17T09:51:44Z</time>
      </trkpt>
      <trkpt lat="41.9559680" lon="-7.3921900">
        <ele>556.0</ele>
        <time>2019-08-17T09:51:45Z</time>
      </trkpt>
      <trkpt lat="41.9559160" lon="-7.3922880">
        <ele>555.6</ele>
        <time>2019-08-17T09:51:46Z</time>
      </trkpt>
      <trkpt lat="41.9558650" lon="-7.3923870">
        <ele>555.3</ele>
        <time>2019-08-17T09:51:47Z</time>
      </trkpt>
      <trkpt lat="41.9558150" lon="-7.3924890">
        <ele>554.9</ele>
        <time>2019-08-17T09:51:48Z</time>
      </trkpt>
      <trkpt lat="41.9557660" lon="-7.3925920">
        <ele>554.5</ele>
        <time>2019-08-17T09:51:49Z</time>
      </trkpt>
      <trkpt lat="41.9557160" lon="-7.3926970">
        <ele>554.1</ele>
        <time>2019-08-17T09:51:50Z</time>
      </trkpt>
      <trkpt lat="41.9556670" lon="-7.3928030">
        <ele>553.7</ele>
        <time>2019-08-17T09:51:51Z</time>
      </trkpt>
      <trkpt lat="41.9556180" lon="-7.3929100">
        <ele>553.3</ele>
        <time>2019-08-17T09:51:52Z</time>
      </trkpt>
      <trkpt lat="41.9555680" lon="-7.3930190">
        <ele>553.0</ele>
        <time>2019-08-17T09:51:53Z</time>
      </trkpt>
      <trkpt lat="41.9555180" lon="-7.3931290">
        <ele>552.7</ele>
        <time>2019-08-17T09:51:54Z</time>
      </trkpt>
      <trkpt lat="41.9554670" lon="-7.3932390">
        <ele>552.4</ele>
        <time>2019-08-17T09:51:55Z</time>
      </trkpt>
      <trkpt lat="41.9554170" lon="-7.3933510">
        <ele>552.2</ele>
        <time>2019-08-17T09:51:56Z</time>
      </trkpt>
      <trkpt lat="41.9553340" lon="-7.3935370">
        <ele>551.8</ele>
        <time>2019-08-17T09:51:57Z</time>
      </trkpt>
      <trkpt lat="41.9553010" lon="-7.3936110">
        <ele>551.8</ele>
        <time>2019-08-17T09:51:58Z</time>
      </trkpt>
      <trkpt lat="41.9552680" lon="-7.3936860">
        <ele>551.7</ele>
        <time>2019-08-17T09:51:59Z</time>
      </trkpt>
      <trkpt lat="41.9552170" lon="-7.3937960">
        <ele>551.7</ele>
        <time>2019-08-17T09:52:00Z</time>
      </trkpt>
      <trkpt lat="41.9551650" lon="-7.3939020">
        <ele>551.7</ele>
        <time>2019-08-17T09:52:01Z</time>
      </trkpt>
      <trkpt lat="41.9550670" lon="-7.3940620">
        <ele>551.8</ele>
        <time>2019-08-17T09:52:02Z</time>
      </trkpt>
      <trkpt lat="41.9550250" lon="-7.3941210">
        <ele>551.9</ele>
        <time>2019-08-17T09:52:03Z</time>
      </trkpt>
      <trkpt lat="41.9549830" lon="-7.3941800">
        <ele>552.0</ele>
        <time>2019-08-17T09:52:04Z</time>
      </trkpt>
      <trkpt lat="41.9549160" lon="-7.3942550">
        <ele>552.2</ele>
        <time>2019-08-17T09:52:05Z</time>
      </trkpt>
      <trkpt lat="41.9548480" lon="-7.3943220">
        <ele>552.4</ele>
        <time>2019-08-17T09:52:06Z</time>
      </trkpt>
      <trkpt lat="41.9547790" lon="-7.3943810">
        <ele>552.6</ele>
        <time>2019-08-17T09:52:07Z</time>
      </trkpt>
      <trkpt lat="41.9547110" lon="-7.3944350">
        <ele>552.7</ele>
        <time>2019-08-17T09:52:08Z</time>
      </trkpt>
      <trkpt lat="41.9546440" lon="-7.3944870">
        <ele>552.7</ele>
        <time>2019-08-17T09:52:09Z</time>
      </trkpt>
      <trkpt lat="41.9545800" lon="-7.3945370">
        <ele>552.8</ele>
        <time>2019-08-17T09:52:10Z</time>
      </trkpt>
      <trkpt lat="41.9545180" lon="-7.3945860">
        <ele>552.8</ele>
        <time>2019-08-17T09:52:11Z</time>
      </trkpt>
      <trkpt lat="41.9544580" lon="-7.3946350">
        <ele>552.8</ele>
        <time>2019-08-17T09:52:12Z</time>
      </trkpt>
      <trkpt lat="41.9543980" lon="-7.3946820">
        <ele>552.7</ele>
        <time>2019-08-17T09:52:13Z</time>
      </trkpt>
      <trkpt lat="41.9543390" lon="-7.3947290">
        <ele>552.7</ele>
        <time>2019-08-17T09:52:14Z</time>
      </trkpt>
      <trkpt lat="41.9542810" lon="-7.3947760">
        <ele>552.6</ele>
        <time>2019-08-17T09:52:15Z</time>
      </trkpt>
      <trkpt lat="41.9542220" lon="-7.3948220">
        <ele>552.6</ele>
        <time>2019-08-17T09:52:16Z</time>
      </trkpt>
      <trkpt lat="41.9541630" lon="-7.3948680">
        <ele>552.4</ele>
        <time>2019-08-17T09:52:17Z</time>
      </trkpt>
      <trkpt lat="41.9541040" lon="-7.3949140">
        <ele>552.3</ele>
        <time>2019-08-17T09:52:18Z</time>
      </trkpt>
      <trkpt lat="41.9540440" lon="-7.3949610">
        <ele>552.2</ele>
        <time>2019-08-17T09:52:19Z</time>
      </trkpt>
      <trkpt lat="41.9539820" lon="-7.3950080">
        <ele>551.9</ele>
        <time>2019-08-17T09:52:20Z</time>
      </trkpt>
      <trkpt lat="41.9539200" lon="-7.3950560">
        <ele>551.7</ele>
        <time>2019-08-17T09:52:21Z</time>
      </trkpt>
      <trkpt lat="41.9538560" lon="-7.3951050">
        <ele>551.3</ele>
        <time>2019-08-17T09:52:22Z</time>
      </trkpt>
      <trkpt lat="41.9537910" lon="-7.3951550">
        <ele>550.9</ele>
        <time>2019-08-17T09:52:23Z</time>
      </trkpt>
      <trkpt lat="41.9537230" lon="-7.3952070">
        <ele>550.5</ele>
        <time>2019-08-17T09:52:24Z</time>
      </trkpt>
      <trkpt lat="41.9536540" lon="-7.3952600">
        <ele>549.8</ele>
        <time>2019-08-17T09:52:25Z</time>
      </trkpt>
      <trkpt lat="41.9535810" lon="-7.3953150">
        <ele>549.2</ele>
        <time>2019-08-17T09:52:26Z</time>
      </trkpt>
      <trkpt lat="41.9535070" lon="-7.3953720">
        <ele>548.4</ele>
        <time>2019-08-17T09:52:27Z</time>
      </trkpt>
      <trkpt lat="41.9534300" lon="-7.3954300">
        <ele>547.5</ele>
        <time>2019-08-17T09:52:28Z</time>
      </trkpt>
      <trkpt lat="41.9533520" lon="-7.3954900">
        <ele>546.4</ele>
        <time>2019-08-17T09:52:29Z</time>
      </trkpt>
      <trkpt lat="41.9532720" lon="-7.3955520">
        <ele>545.0</ele>
        <time>2019-08-17T09:52:30Z</time>
      </trkpt>
      <trkpt lat="41.9531910" lon="-7.3956150">
        <ele>543.4</ele>
        <time>2019-08-17T09:52:31Z</time>
      </trkpt>
      <trkpt lat="41.9531090" lon="-7.3956800">
        <ele>542.3</ele>
        <time>2019-08-17T09:52:32Z</time>
      </trkpt>
      <trkpt lat="41.9530260" lon="-7.3957470">
        <ele>541.2</ele>
        <time>2019-08-17T09:52:33Z</time>
      </trkpt>
      <trkpt lat="41.9529440" lon="-7.3958180">
        <ele>540.1</ele>
        <time>2019-08-17T09:52:34Z</time>
      </trkpt>
      <trkpt lat="41.9528650" lon="-7.3958960">
        <ele>539.0</ele>
        <time>2019-08-17T09:52:35Z</time>
      </trkpt>
      <trkpt lat="41.9527900" lon="-7.3959840">
        <ele>537.9</ele>
        <time>2019-08-17T09:52:36Z</time>
      </trkpt>
      <trkpt lat="41.9527230" lon="-7.3960840">
        <ele>536.9</ele>
        <time>2019-08-17T09:52:37Z</time>
      </trkpt>
      <trkpt lat="41.9526610" lon="-7.3961950">
        <ele>535.8</ele>
        <time>2019-08-17T09:52:38Z</time>
      </trkpt>
      <trkpt lat="41.9526060" lon="-7.3963130">
        <ele>534.7</ele>
        <time>2019-08-17T09:52:39Z</time>
      </trkpt>
      <trkpt lat="41.9525570" lon="-7.3964370">
        <ele>533.6</ele>
        <time>2019-08-17T09:52:40Z</time>
      </trkpt>
      <trkpt lat="41.9525130" lon="-7.3965640">
        <ele>532.5</ele>
        <time>2019-08-17T09:52:41Z</time>
      </trkpt>
      <trkpt lat="41.9524730" lon="-7.3966940">
        <ele>531.4</ele>
        <time>2019-08-17T09:52:42Z</time>
      </trkpt>
      <trkpt lat="41.9524360" lon="-7.3968260">
        <ele>530.3</ele>
        <time>2019-08-17T09:52:43Z</time>
      </trkpt>
      <trkpt lat="41.9524010" lon="-7.3969590">
        <ele>529.3</ele>
        <time>2019-08-17T09:52:44Z</time>
      </trkpt>
      <trkpt lat="41.9523680" lon="-7.3970920">
        <ele>528.3</ele>
        <time>2019-08-17T09:52:45Z</time>
      </trkpt>
      <trkpt lat="41.9523350" lon="-7.3972240">
        <ele>527.3</ele>
        <time>2019-08-17T09:52:46Z</time>
      </trkpt>
      <trkpt lat="41.9523020" lon="-7.3973550">
        <ele>526.4</ele>
        <time>2019-08-17T09:52:47Z</time>
      </trkpt>
      <trkpt lat="41.9522680" lon="-7.3974840">
        <ele>525.7</ele>
        <time>2019-08-17T09:52:48Z</time>
      </trkpt>
      <trkpt lat="41.9522320" lon="-7.3976110">
        <ele>525.0</ele>
        <time>2019-08-17T09:52:49Z</time>
      </trkpt>
      <trkpt lat="41.9521950" lon="-7.3977370">
        <ele>524.4</ele>
        <time>2019-08-17T09:52:50Z</time>
      </trkpt>
      <trkpt lat="41.9521550" lon="-7.3978600">
        <ele>523.9</ele>
        <time>2019-08-17T09:52:51Z</time>
      </trkpt>
      <trkpt lat="41.9521130" lon="-7.3979810">
        <ele>523.5</ele>
        <time>2019-08-17T09:52:52Z</time>
      </trkpt>
      <trkpt lat="41.9520670" lon="-7.3981010">
        <ele>523.0</ele>
        <time>2019-08-17T09:52:53Z</time>
      </trkpt>
      <trkpt lat="41.9520170" lon="-7.3982160">
        <ele>522.7</ele>
        <time>2019-08-17T09:52:54Z</time>
      </trkpt>
      <trkpt lat="41.9519620" lon="-7.3983250">
        <ele>522.4</ele>
        <time>2019-08-17T09:52:55Z</time>
      </trkpt>
      <trkpt lat="41.9519000" lon="-7.3984260">
        <ele>522.2</ele>
        <time>2019-08-17T09:52:56Z</time>
      </trkpt>
      <trkpt lat="41.9518310" lon="-7.3985170">
        <ele>521.9</ele>
        <time>2019-08-17T09:52:57Z</time>
      </trkpt>
      <trkpt lat="41.9517560" lon="-7.3986000">
        <ele>521.7</ele>
        <time>2019-08-17T09:52:58Z</time>
      </trkpt>
      <trkpt lat="41.9516740" lon="-7.3986760">
        <ele>521.4</ele>
        <time>2019-08-17T09:52:59Z</time>
      </trkpt>
      <trkpt lat="41.9515880" lon="-7.3987450">
        <ele>521.0</ele>
        <time>2019-08-17T09:53:00Z</time>
      </trkpt>
      <trkpt lat="41.9514970" lon="-7.3988100">
        <ele>520.7</ele>
        <time>2019-08-17T09:53:01Z</time>
      </trkpt>
      <trkpt lat="41.9514030" lon="-7.3988720">
        <ele>520.3</ele>
        <time>2019-08-17T09:53:02Z</time>
      </trkpt>
      <trkpt lat="41.9513080" lon="-7.3989330">
        <ele>519.8</ele>
        <time>2019-08-17T09:53:03Z</time>
      </trkpt>
      <trkpt lat="41.9512110" lon="-7.3989940">
        <ele>519.3</ele>
        <time>2019-08-17T09:53:04Z</time>
      </trkpt>
      <trkpt lat="41.9511130" lon="-7.3990560">
        <ele>518.8</ele>
        <time>2019-08-17T09:53:05Z</time>
      </trkpt>
      <trkpt lat="41.9510140" lon="-7.3991180">
        <ele>518.2</ele>
        <time>2019-08-17T09:53:06Z</time>
      </trkpt>
      <trkpt lat="41.9509150" lon="-7.3991810">
        <ele>517.5</ele>
        <time>2019-08-17T09:53:07Z</time>
      </trkpt>
      <trkpt lat="41.9508150" lon="-7.3992440">
        <ele>516.8</ele>
        <time>2019-08-17T09:53:08Z</time>
      </trkpt>
      <trkpt lat="41.9507140" lon="-7.3993070">
        <ele>516.2</ele>
        <time>2019-08-17T09:53:09Z</time>
      </trkpt>
      <trkpt lat="41.9506120" lon="-7.3993700">
        <ele>515.5</ele>
        <time>2019-08-17T09:53:10Z</time>
      </trkpt>
      <trkpt lat="41.9505100" lon="-7.3994340">
        <ele>514.7</ele>
        <time>2019-08-17T09:53:11Z</time>
      </trkpt>
      <trkpt lat="41.9504070" lon="-7.3994990">
        <ele>513.8</ele>
        <time>2019-08-17T09:53:12Z</time>
      </trkpt>
      <trkpt lat="41.9503030" lon="-7.3995640">
        <ele>512.8</ele>
        <time>2019-08-17T09:53:13Z</time>
      </trkpt>
      <trkpt lat="41.9501980" lon="-7.3996290">
        <ele>511.3</ele>
        <time>2019-08-17T09:53:14Z</time>
      </trkpt>
      <trkpt lat="41.9500920" lon="-7.3996950">
        <ele>509.8</ele>
        <time>2019-08-17T09:53:15Z</time>
      </trkpt>
      <trkpt lat="41.9499870" lon="-7.3997620">
        <ele>508.2</ele>
        <time>2019-08-17T09:53:16Z</time>
      </trkpt>
      <trkpt lat="41.9498810" lon="-7.3998290">
        <ele>506.7</ele>
        <time>2019-08-17T09:53:17Z</time>
      </trkpt>
      <trkpt lat="41.9497770" lon="-7.3998970">
        <ele>505.3</ele>
        <time>2019-08-17T09:53:18Z</time>
      </trkpt>
      <trkpt lat="41.9496740" lon="-7.3999660">
        <ele>504.0</ele>
        <time>2019-08-17T09:53:19Z</time>
      </trkpt>
      <trkpt lat="41.9495720" lon="-7.4000360">
        <ele>502.8</ele>
        <time>2019-08-17T09:53:20Z</time>
      </trkpt>
      <trkpt lat="41.9494710" lon="-7.4001080">
        <ele>501.8</ele>
        <time>2019-08-17T09:53:21Z</time>
      </trkpt>
      <trkpt lat="41.9493720" lon="-7.4001810">
        <ele>500.8</ele>
        <time>2019-08-17T09:53:22Z</time>
      </trkpt>
      <trkpt lat="41.9492750" lon="-7.4002560">
        <ele>500.0</ele>
        <time>2019-08-17T09:53:23Z</time>
      </trkpt>
      <trkpt lat="41.9491790" lon="-7.4003330">
        <ele>499.3</ele>
        <time>2019-08-17T09:53:24Z</time>
      </trkpt>
      <trkpt lat="41.9490840" lon="-7.4004120">
        <ele>498.6</ele>
        <time>2019-08-17T09:53:25Z</time>
      </trkpt>
      <trkpt lat="41.9489900" lon="-7.4004950">
        <ele>498.0</ele>
        <time>2019-08-17T09:53:26Z</time>
      </trkpt>
      <trkpt lat="41.9488970" lon="-7.4005810">
        <ele>497.5</ele>
        <time>2019-08-17T09:53:27Z</time>
      </trkpt>
      <trkpt lat="41.9488050" lon="-7.4006690">
        <ele>497.0</ele>
        <time>2019-08-17T09:53:28Z</time>
      </trkpt>
      <trkpt lat="41.9487130" lon="-7.4007600">
        <ele>496.3</ele>
        <time>2019-08-17T09:53:29Z</time>
      </trkpt>
      <trkpt lat="41.9486220" lon="-7.4008530">
        <ele>495.6</ele>
        <time>2019-08-17T09:53:30Z</time>
      </trkpt>
      <trkpt lat="41.9485310" lon="-7.4009470">
        <ele>494.9</ele>
        <time>2019-08-17T09:53:31Z</time>
      </trkpt>
      <trkpt lat="41.9484410" lon="-7.4010420">
        <ele>494.2</ele>
        <time>2019-08-17T09:53:32Z</time>
      </trkpt>
      <trkpt lat="41.9483500" lon="-7.4011380">
        <ele>493.5</ele>
        <time>2019-08-17T09:53:33Z</time>
      </trkpt>
      <trkpt lat="41.9482580" lon="-7.4012340">
        <ele>492.7</ele>
        <time>2019-08-17T09:53:34Z</time>
      </trkpt>
      <trkpt lat="41.9481660" lon="-7.4013310">
        <ele>491.9</ele>
        <time>2019-08-17T09:53:35Z</time>
      </trkpt>
      <trkpt lat="41.9480730" lon="-7.4014260">
        <ele>491.0</ele>
        <time>2019-08-17T09:53:36Z</time>
      </trkpt>
      <trkpt lat="41.9479790" lon="-7.4015210">
        <ele>490.2</ele>
        <time>2019-08-17T09:53:37Z</time>
      </trkpt>
      <trkpt lat="41.9478840" lon="-7.4016150">
        <ele>489.3</ele>
        <time>2019-08-17T09:53:38Z</time>
      </trkpt>
      <trkpt lat="41.9477880" lon="-7.4017080">
        <ele>488.4</ele>
        <time>2019-08-17T09:53:39Z</time>
      </trkpt>
      <trkpt lat="41.9476910" lon="-7.4017990">
        <ele>487.5</ele>
        <time>2019-08-17T09:53:40Z</time>
      </trkpt>
      <trkpt lat="41.9475920" lon="-7.4018880">
        <ele>486.7</ele>
        <time>2019-08-17T09:53:41Z</time>
      </trkpt>
      <trkpt lat="41.9474920" lon="-7.4019750">
        <ele>485.7</ele>
        <time>2019-08-17T09:53:42Z</time>
      </trkpt>
      <trkpt lat="41.9473900" lon="-7.4020600">
        <ele>484.8</ele>
        <time>2019-08-17T09:53:43Z</time>
      </trkpt>
      <trkpt lat="41.9472870" lon="-7.4021420">
        <ele>483.9</ele>
        <time>2019-08-17T09:53:44Z</time>
      </trkpt>
      <trkpt lat="41.9471810" lon="-7.4022210">
        <ele>483.0</ele>
        <time>2019-08-17T09:53:45Z</time>
      </trkpt>
      <trkpt lat="41.9470730" lon="-7.4022960">
        <ele>482.2</ele>
        <time>2019-08-17T09:53:46Z</time>
      </trkpt>
      <trkpt lat="41.9469640" lon="-7.4023680">
        <ele>481.5</ele>
        <time>2019-08-17T09:53:47Z</time>
      </trkpt>
      <trkpt lat="41.9468530" lon="-7.4024370">
        <ele>480.8</ele>
        <time>2019-08-17T09:53:48Z</time>
      </trkpt>
      <trkpt lat="41.9467410" lon="-7.4025020">
        <ele>480.1</ele>
        <time>2019-08-17T09:53:49Z</time>
      </trkpt>
      <trkpt lat="41.9466300" lon="-7.4025660">
        <ele>479.5</ele>
        <time>2019-08-17T09:53:50Z</time>
      </trkpt>
      <trkpt lat="41.9465190" lon="-7.4026260">
        <ele>478.9</ele>
        <time>2019-08-17T09:53:51Z</time>
      </trkpt>
      <trkpt lat="41.9464100" lon="-7.4026850">
        <ele>478.3</ele>
        <time>2019-08-17T09:53:52Z</time>
      </trkpt>
      <trkpt lat="41.9463030" lon="-7.4027420">
        <ele>477.6</ele>
        <time>2019-08-17T09:53:53Z</time>
      </trkpt>
      <trkpt lat="41.9461990" lon="-7.4027980">
        <ele>476.9</ele>
        <time>2019-08-17T09:53:54Z</time>
      </trkpt>
      <trkpt lat="41.9460980" lon="-7.4028540">
        <ele>476.2</ele>
        <time>2019-08-17T09:53:55Z</time>
      </trkpt>
      <trkpt lat="41.9460000" lon="-7.4029110">
        <ele>475.6</ele>
        <time>2019-08-17T09:53:56Z</time>
      </trkpt>
      <trkpt lat="41.9459040" lon="-7.4029710">
        <ele>474.9</ele>
        <time>2019-08-17T09:53:57Z</time>
      </trkpt>
      <trkpt lat="41.9458110" lon="-7.4030340">
        <ele>474.3</ele>
        <time>2019-08-17T09:53:58Z</time>
      </trkpt>
      <trkpt lat="41.9457210" lon="-7.4031020">
        <ele>473.7</ele>
        <time>2019-08-17T09:53:59Z</time>
      </trkpt>
      <trkpt lat="41.9456360" lon="-7.4031770">
        <ele>473.2</ele>
        <time>2019-08-17T09:54:00Z</time>
      </trkpt>
      <trkpt lat="41.9455570" lon="-7.4032610">
        <ele>472.7</ele>
        <time>2019-08-17T09:54:01Z</time>
      </trkpt>
      <trkpt lat="41.9454840" lon="-7.4033540">
        <ele>472.2</ele>
        <time>2019-08-17T09:54:02Z</time>
      </trkpt>
      <trkpt lat="41.9454170" lon="-7.4034530">
        <ele>471.9</ele>
        <time>2019-08-17T09:54:03Z</time>
      </trkpt>
      <trkpt lat="41.9453560" lon="-7.4035600">
        <ele>471.6</ele>
        <time>2019-08-17T09:54:04Z</time>
      </trkpt>
      <trkpt lat="41.9453020" lon="-7.4036720">
        <ele>471.3</ele>
        <time>2019-08-17T09:54:05Z</time>
      </trkpt>
      <trkpt lat="41.9452530" lon="-7.4037890">
        <ele>471.1</ele>
        <time>2019-08-17T09:54:06Z</time>
      </trkpt>
      <trkpt lat="41.9452120" lon="-7.4039100">
        <ele>470.9</ele>
        <time>2019-08-17T09:54:07Z</time>
      </trkpt>
      <trkpt lat="41.9451760" lon="-7.4040340">
        <ele>470.8</ele>
        <time>2019-08-17T09:54:08Z</time>
      </trkpt>
      <trkpt lat="41.9451480" lon="-7.4041610">
        <ele>470.7</ele>
        <time>2019-08-17T09:54:09Z</time>
      </trkpt>
      <trkpt lat="41.9451270" lon="-7.4042880">
        <ele>470.7</ele>
        <time>2019-08-17T09:54:10Z</time>
      </trkpt>
      <trkpt lat="41.9451140" lon="-7.4044160">
        <ele>470.7</ele>
        <time>2019-08-17T09:54:11Z</time>
      </trkpt>
      <trkpt lat="41.9451080" lon="-7.4045440">
        <ele>470.7</ele>
        <time>2019-08-17T09:54:12Z</time>
      </trkpt>
      <trkpt lat="41.9451130" lon="-7.4046730">
        <ele>470.7</ele>
        <time>2019-08-17T09:54:13Z</time>
      </trkpt>
      <trkpt lat="41.9451180" lon="-7.4048020">
        <ele>470.6</ele>
        <time>2019-08-17T09:54:14Z</time>
      </trkpt>
      <trkpt lat="41.9451320" lon="-7.4049300">
        <ele>470.5</ele>
        <time>2019-08-17T09:54:15Z</time>
      </trkpt>
      <trkpt lat="41.9451530" lon="-7.4050580">
        <ele>470.4</ele>
        <time>2019-08-17T09:54:16Z</time>
      </trkpt>
      <trkpt lat="41.9451790" lon="-7.4051820">
        <ele>470.3</ele>
        <time>2019-08-17T09:54:17Z</time>
      </trkpt>
      <trkpt lat="41.9452120" lon="-7.4053040">
        <ele>470.1</ele>
        <time>2019-08-17T09:54:18Z</time>
      </trkpt>
      <trkpt lat="41.9452520" lon="-7.4054210">
        <ele>469.9</ele>
        <time>2019-08-17T09:54:19Z</time>
      </trkpt>
      <trkpt lat="41.9452970" lon="-7.4055340">
        <ele>469.6</ele>
        <time>2019-08-17T09:54:20Z</time>
      </trkpt>
      <trkpt lat="41.9453490" lon="-7.4056400">
        <ele>469.3</ele>
        <time>2019-08-17T09:54:21Z</time>
      </trkpt>
      <trkpt lat="41.9454060" lon="-7.4057400">
        <ele>468.9</ele>
        <time>2019-08-17T09:54:22Z</time>
      </trkpt>
      <trkpt lat="41.9454680" lon="-7.4058360">
        <ele>468.5</ele>
        <time>2019-08-17T09:54:23Z</time>
      </trkpt>
      <trkpt lat="41.9455330" lon="-7.4059270">
        <ele>468.1</ele>
        <time>2019-08-17T09:54:24Z</time>
      </trkpt>
      <trkpt lat="41.9456020" lon="-7.4060140">
        <ele>467.6</ele>
        <time>2019-08-17T09:54:25Z</time>
      </trkpt>
      <trkpt lat="41.9456730" lon="-7.4060990">
        <ele>467.1</ele>
        <time>2019-08-17T09:54:26Z</time>
      </trkpt>
      <trkpt lat="41.9457460" lon="-7.4061810">
        <ele>466.4</ele>
        <time>2019-08-17T09:54:27Z</time>
      </trkpt>
      <trkpt lat="41.9458190" lon="-7.4062620">
        <ele>465.7</ele>
        <time>2019-08-17T09:54:28Z</time>
      </trkpt>
      <trkpt lat="41.9458930" lon="-7.4063410">
        <ele>465.1</ele>
        <time>2019-08-17T09:54:29Z</time>
      </trkpt>
      <trkpt lat="41.9459670" lon="-7.4064190">
        <ele>464.4</ele>
        <time>2019-08-17T09:54:30Z</time>
      </trkpt>
      <trkpt lat="41.9460420" lon="-7.4064970">
        <ele>463.8</ele>
        <time>2019-08-17T09:54:31Z</time>
      </trkpt>
      <trkpt lat="41.9461160" lon="-7.4065740">
        <ele>463.2</ele>
        <time>2019-08-17T09:54:32Z</time>
      </trkpt>
      <trkpt lat="41.9461900" lon="-7.4066500">
        <ele>462.7</ele>
        <time>2019-08-17T09:54:33Z</time>
      </trkpt>
      <trkpt lat="41.9462640" lon="-7.4067270">
        <ele>462.1</ele>
        <time>2019-08-17T09:54:34Z</time>
      </trkpt>
      <trkpt lat="41.9463370" lon="-7.4068040">
        <ele>461.5</ele>
        <time>2019-08-17T09:54:35Z</time>
      </trkpt>
      <trkpt lat="41.9464100" lon="-7.4068820">
        <ele>461.0</ele>
        <time>2019-08-17T09:54:36Z</time>
      </trkpt>
      <trkpt lat="41.9464810" lon="-7.4069610">
        <ele>460.6</ele>
        <time>2019-08-17T09:54:37Z</time>
      </trkpt>
      <trkpt lat="41.9465500" lon="-7.4070430">
        <ele>460.2</ele>
        <time>2019-08-17T09:54:38Z</time>
      </trkpt>
      <trkpt lat="41.9466170" lon="-7.4071280">
        <ele>459.8</ele>
        <time>2019-08-17T09:54:39Z</time>
      </trkpt>
      <trkpt lat="41.9466810" lon="-7.4072160">
        <ele>459.5</ele>
        <time>2019-08-17T09:54:40Z</time>
      </trkpt>
      <trkpt lat="41.9467430" lon="-7.4073080">
        <ele>459.2</ele>
        <time>2019-08-17T09:54:41Z</time>
      </trkpt>
      <trkpt lat="41.9468010" lon="-7.4074030">
        <ele>459.0</ele>
        <time>2019-08-17T09:54:42Z</time>
      </trkpt>
      <trkpt lat="41.9468530" lon="-7.4075020">
        <ele>458.7</ele>
        <time>2019-08-17T09:54:43Z</time>
      </trkpt>
      <trkpt lat="41.9468990" lon="-7.4076040">
        <ele>458.5</ele>
        <time>2019-08-17T09:54:44Z</time>
      </trkpt>
      <trkpt lat="41.9469380" lon="-7.4077080">
        <ele>458.3</ele>
        <time>2019-08-17T09:54:45Z</time>
      </trkpt>
      <trkpt lat="41.9469690" lon="-7.4078140">
        <ele>458.1</ele>
        <time>2019-08-17T09:54:46Z</time>
      </trkpt>
      <trkpt lat="41.9469930" lon="-7.4079230">
        <ele>457.9</ele>
        <time>2019-08-17T09:54:47Z</time>
      </trkpt>
      <trkpt lat="41.9470190" lon="-7.4081100">
        <ele>457.6</ele>
        <time>2019-08-17T09:54:48Z</time>
      </trkpt>
      <trkpt lat="41.9470260" lon="-7.4081860">
        <ele>457.4</ele>
        <time>2019-08-17T09:54:49Z</time>
      </trkpt>
      <trkpt lat="41.9470330" lon="-7.4082610">
        <ele>457.3</ele>
        <time>2019-08-17T09:54:50Z</time>
      </trkpt>
      <trkpt lat="41.9470370" lon="-7.4083750">
        <ele>457.0</ele>
        <time>2019-08-17T09:54:51Z</time>
      </trkpt>
      <trkpt lat="41.9470390" lon="-7.4084880">
        <ele>456.9</ele>
        <time>2019-08-17T09:54:52Z</time>
      </trkpt>
      <trkpt lat="41.9470310" lon="-7.4086750">
        <ele>456.6</ele>
        <time>2019-08-17T09:54:53Z</time>
      </trkpt>
      <trkpt lat="41.9470250" lon="-7.4087500">
        <ele>456.5</ele>
        <time>2019-08-17T09:54:54Z</time>
      </trkpt>
      <trkpt lat="41.9470190" lon="-7.4088250">
        <ele>456.4</ele>
        <time>2019-08-17T09:54:55Z</time>
      </trkpt>
      <trkpt lat="41.9470040" lon="-7.4089370">
        <ele>456.2</ele>
        <time>2019-08-17T09:54:56Z</time>
      </trkpt>
      <trkpt lat="41.9469870" lon="-7.4090480">
        <ele>456.1</ele>
        <time>2019-08-17T09:54:57Z</time>
      </trkpt>
      <trkpt lat="41.9469690" lon="-7.4091580">
        <ele>456.0</ele>
        <time>2019-08-17T09:54:58Z</time>
      </trkpt>
      <trkpt lat="41.9469500" lon="-7.4092670">
        <ele>455.9</ele>
        <time>2019-08-17T09:54:59Z</time>
      </trkpt>
      <trkpt lat="41.9469310" lon="-7.4093730">
        <ele>455.8</ele>
        <time>2019-08-17T09:55:00Z</time>
      </trkpt>
      <trkpt lat="41.9469120" lon="-7.4094790">
        <ele>455.7</ele>
        <time>2019-08-17T09:55:01Z</time>
      </trkpt>
      <trkpt lat="41.9468910" lon="-7.4095820">
        <ele>455.6</ele>
        <time>2019-08-17T09:55:02Z</time>
      </trkpt>
      <trkpt lat="41.9468680" lon="-7.4096840">
        <ele>455.5</ele>
        <time>2019-08-17T09:55:03Z</time>
      </trkpt>
      <trkpt lat="41.9468440" lon="-7.4097850">
        <ele>455.4</ele>
        <time>2019-08-17T09:55:04Z</time>
      </trkpt>
      <trkpt lat="41.9468180" lon="-7.4098830">
        <ele>455.3</ele>
        <time>2019-08-17T09:55:05Z</time>
      </trkpt>
      <trkpt lat="41.9467900" lon="-7.4099800">
        <ele>455.2</ele>
        <time>2019-08-17T09:55:06Z</time>
      </trkpt>
      <trkpt lat="41.9467600" lon="-7.4100740">
        <ele>455.1</ele>
        <time>2019-08-17T09:55:07Z</time>
      </trkpt>
      <trkpt lat="41.9467270" lon="-7.4101660">
        <ele>455.0</ele>
        <time>2019-08-17T09:55:08Z</time>
      </trkpt>
      <trkpt lat="41.9466920" lon="-7.4102570">
        <ele>454.7</ele>
        <time>2019-08-17T09:55:09Z</time>
      </trkpt>
      <trkpt lat="41.9466550" lon="-7.4103450">
        <ele>454.5</ele>
        <time>2019-08-17T09:55:10Z</time>
      </trkpt>
      <trkpt lat="41.9466160" lon="-7.4104320">
        <ele>454.3</ele>
        <time>2019-08-17T09:55:11Z</time>
      </trkpt>
      <trkpt lat="41.9465750" lon="-7.4105180">
        <ele>454.1</ele>
        <time>2019-08-17T09:55:12Z</time>
      </trkpt>
      <trkpt lat="41.9465330" lon="-7.4106030">
        <ele>453.8</ele>
        <time>2019-08-17T09:55:13Z</time>
      </trkpt>
      <trkpt lat="41.9464880" lon="-7.4106880">
        <ele>453.6</ele>
        <time>2019-08-17T09:55:14Z</time>
      </trkpt>
      <trkpt lat="41.9464420" lon="-7.4107730">
        <ele>453.3</ele>
        <time>2019-08-17T09:55:15Z</time>
      </trkpt>
      <trkpt lat="41.9463950" lon="-7.4108580">
        <ele>452.9</ele>
        <time>2019-08-17T09:55:16Z</time>
      </trkpt>
      <trkpt lat="41.9463470" lon="-7.4109420">
        <ele>452.6</ele>
        <time>2019-08-17T09:55:17Z</time>
      </trkpt>
      <trkpt lat="41.9462980" lon="-7.4110270">
        <ele>452.3</ele>
        <time>2019-08-17T09:55:18Z</time>
      </trkpt>
      <trkpt lat="41.9462480" lon="-7.4111120">
        <ele>452.1</ele>
        <time>2019-08-17T09:55:19Z</time>
      </trkpt>
      <trkpt lat="41.9461990" lon="-7.4111970">
        <ele>451.8</ele>
        <time>2019-08-17T09:55:20Z</time>
      </trkpt>
      <trkpt lat="41.9461500" lon="-7.4112830">
        <ele>451.4</ele>
        <time>2019-08-17T09:55:21Z</time>
      </trkpt>
      <trkpt lat="41.9461010" lon="-7.4113680">
        <ele>451.1</ele>
        <time>2019-08-17T09:55:22Z</time>
      </trkpt>
      <trkpt lat="41.9460520" lon="-7.4114540">
        <ele>450.6</ele>
        <time>2019-08-17T09:55:23Z</time>
      </trkpt>
      <trkpt lat="41.9460040" lon="-7.4115400">
        <ele>450.2</ele>
        <time>2019-08-17T09:55:24Z</time>
      </trkpt>
      <trkpt lat="41.9459230" lon="-7.4116810">
        <ele>449.6</ele>
        <time>2019-08-17T09:55:25Z</time>
      </trkpt>
      <trkpt lat="41.9458900" lon="-7.4117380">
        <ele>449.4</ele>
        <time>2019-08-17T09:55:26Z</time>
      </trkpt>
      <trkpt lat="41.9458580" lon="-7.4117940">
        <ele>449.2</ele>
        <time>2019-08-17T09:55:27Z</time>
      </trkpt>
      <trkpt lat="41.9458090" lon="-7.4118780">
        <ele>448.9</ele>
        <time>2019-08-17T09:55:28Z</time>
      </trkpt>
      <trkpt lat="41.9457600" lon="-7.4119610">
        <ele>448.6</ele>
        <time>2019-08-17T09:55:29Z</time>
      </trkpt>
      <trkpt lat="41.9456780" lon="-7.4121000">
        <ele>448.1</ele>
        <time>2019-08-17T09:55:30Z</time>
      </trkpt>
      <trkpt lat="41.9456460" lon="-7.4121560">
        <ele>447.9</ele>
        <time>2019-08-17T09:55:31Z</time>
      </trkpt>
      <trkpt lat="41.9456130" lon="-7.4122120">
        <ele>447.7</ele>
        <time>2019-08-17T09:55:32Z</time>
      </trkpt>
      <trkpt lat="41.9455650" lon="-7.4122970">
        <ele>447.4</ele>
        <time>2019-08-17T09:55:33Z</time>
      </trkpt>
      <trkpt lat="41.9455180" lon="-7.4123820">
        <ele>447.1</ele>
        <time>2019-08-17T09:55:34Z</time>
      </trkpt>
      <trkpt lat="41.9454710" lon="-7.4124700">
        <ele>446.8</ele>
        <time>2019-08-17T09:55:35Z</time>
      </trkpt>
      <trkpt lat="41.9454250" lon="-7.4125590">
        <ele>446.6</ele>
        <time>2019-08-17T09:55:36Z</time>
      </trkpt>
      <trkpt lat="41.9453810" lon="-7.4126490">
        <ele>446.3</ele>
        <time>2019-08-17T09:55:37Z</time>
      </trkpt>
      <trkpt lat="41.9453380" lon="-7.4127420">
        <ele>445.9</ele>
        <time>2019-08-17T09:55:38Z</time>
      </trkpt>
      <trkpt lat="41.9452970" lon="-7.4128380">
        <ele>445.6</ele>
        <time>2019-08-17T09:55:39Z</time>
      </trkpt>
      <trkpt lat="41.9452580" lon="-7.4129360">
        <ele>445.2</ele>
        <time>2019-08-17T09:55:40Z</time>
      </trkpt>
      <trkpt lat="41.9452220" lon="-7.4130380">
        <ele>444.8</ele>
        <time>2019-08-17T09:55:41Z</time>
      </trkpt>
      <trkpt lat="41.9451880" lon="-7.4131420">
        <ele>444.4</ele>
        <time>2019-08-17T09:55:42Z</time>
      </trkpt>
      <trkpt lat="41.9451570" lon="-7.4132480">
        <ele>444.0</ele>
        <time>2019-08-17T09:55:43Z</time>
      </trkpt>
      <trkpt lat="41.9451290" lon="-7.4133570">
        <ele>443.4</ele>
        <time>2019-08-17T09:55:44Z</time>
      </trkpt>
      <trkpt lat="41.9451030" lon="-7.4134690">
        <ele>442.9</ele>
        <time>2019-08-17T09:55:45Z</time>
      </trkpt>
      <trkpt lat="41.9450810" lon="-7.4135820">
        <ele>442.3</ele>
        <time>2019-08-17T09:55:46Z</time>
      </trkpt>
      <trkpt lat="41.9450620" lon="-7.4136960">
        <ele>441.9</ele>
        <time>2019-08-17T09:55:47Z</time>
      </trkpt>
      <trkpt lat="41.9450470" lon="-7.4138130">
        <ele>441.7</ele>
        <time>2019-08-17T09:55:48Z</time>
      </trkpt>
      <trkpt lat="41.9450350" lon="-7.4139300">
        <ele>441.6</ele>
        <time>2019-08-17T09:55:49Z</time>
      </trkpt>
      <trkpt lat="41.9450270" lon="-7.4140480">
        <ele>441.5</ele>
        <time>2019-08-17T09:55:50Z</time>
      </trkpt>
      <trkpt lat="41.9450220" lon="-7.4141670">
        <ele>441.4</ele>
        <time>2019-08-17T09:55:51Z</time>
      </trkpt>
      <trkpt lat="41.9450210" lon="-7.4142860">
        <ele>441.1</ele>
        <time>2019-08-17T09:55:52Z</time>
      </trkpt>
      <trkpt lat="41.9450230" lon="-7.4144050">
        <ele>440.8</ele>
        <time>2019-08-17T09:55:53Z</time>
      </trkpt>
      <trkpt lat="41.9450300" lon="-7.4145240">
        <ele>440.5</ele>
        <time>2019-08-17T09:55:54Z</time>
      </trkpt>
      <trkpt lat="41.9450400" lon="-7.4146430">
        <ele>440.1</ele>
        <time>2019-08-17T09:55:55Z</time>
      </trkpt>
      <trkpt lat="41.9450530" lon="-7.4147610">
        <ele>439.7</ele>
        <time>2019-08-17T09:55:56Z</time>
      </trkpt>
      <trkpt lat="41.9450700" lon="-7.4148790">
        <ele>439.2</ele>
        <time>2019-08-17T09:55:57Z</time>
      </trkpt>
      <trkpt lat="41.9450880" lon="-7.4149960">
        <ele>438.4</ele>
        <time>2019-08-17T09:55:58Z</time>
      </trkpt>
      <trkpt lat="41.9451090" lon="-7.4151120">
        <ele>437.5</ele>
        <time>2019-08-17T09:55:59Z</time>
      </trkpt>
      <trkpt lat="41.9451310" lon="-7.4152280">
        <ele>437.1</ele>
        <time>2019-08-17T09:56:00Z</time>
      </trkpt>
      <trkpt lat="41.9451550" lon="-7.4153430">
        <ele>436.8</ele>
        <time>2019-08-17T09:56:01Z</time>
      </trkpt>
      <trkpt lat="41.9451790" lon="-7.4154580">
        <ele>436.5</ele>
        <time>2019-08-17T09:56:02Z</time>
      </trkpt>
      <trkpt lat="41.9452030" lon="-7.4155720">
        <ele>436.2</ele>
        <time>2019-08-17T09:56:03Z</time>
      </trkpt>
      <trkpt lat="41.9452290" lon="-7.4156860">
        <ele>435.9</ele>
        <time>2019-08-17T09:56:04Z</time>
      </trkpt>
      <trkpt lat="41.9452540" lon="-7.4157990">
        <ele>435.5</ele>
        <time>2019-08-17T09:56:05Z</time>
      </trkpt>
      <trkpt lat="41.9452790" lon="-7.4159120">
        <ele>435.2</ele>
        <time>2019-08-17T09:56:06Z</time>
      </trkpt>
      <trkpt lat="41.9453040" lon="-7.4160250">
        <ele>434.9</ele>
        <time>2019-08-17T09:56:07Z</time>
      </trkpt>
      <trkpt lat="41.9453290" lon="-7.4161370">
        <ele>434.5</ele>
        <time>2019-08-17T09:56:08Z</time>
      </trkpt>
      <trkpt lat="41.9453530" lon="-7.4162500">
        <ele>433.9</ele>
        <time>2019-08-17T09:56:09Z</time>
      </trkpt>
      <trkpt lat="41.9453770" lon="-7.4163620">
        <ele>433.3</ele>
        <time>2019-08-17T09:56:10Z</time>
      </trkpt>
      <trkpt lat="41.9454010" lon="-7.4164750">
        <ele>432.8</ele>
        <time>2019-08-17T09:56:11Z</time>
      </trkpt>
      <trkpt lat="41.9454240" lon="-7.4165880">
        <ele>432.2</ele>
        <time>2019-08-17T09:56:12Z</time>
      </trkpt>
      <trkpt lat="41.9454640" lon="-7.4167790">
        <ele>431.2</ele>
        <time>2019-08-17T09:56:13Z</time>
      </trkpt>
      <trkpt lat="41.9454810" lon="-7.4168550">
        <ele>430.8</ele>
        <time>2019-08-17T09:56:14Z</time>
      </trkpt>
      <trkpt lat="41.9454970" lon="-7.4169320">
        <ele>430.4</ele>
        <time>2019-08-17T09:56:15Z</time>
      </trkpt>
      <trkpt lat="41.9455210" lon="-7.4170480">
        <ele>429.8</ele>
        <time>2019-08-17T09:56:16Z</time>
      </trkpt>
      <trkpt lat="41.9455440" lon="-7.4171650">
        <ele>429.1</ele>
        <time>2019-08-17T09:56:17Z</time>
      </trkpt>
      <trkpt lat="41.9455780" lon="-7.4173640">
        <ele>428.0</ele>
        <time>2019-08-17T09:56:18Z</time>
      </trkpt>
      <trkpt lat="41.9455910" lon="-7.4174440">
        <ele>427.5</ele>
        <time>2019-08-17T09:56:19Z</time>
      </trkpt>
      <trkpt lat="41.9456030" lon="-7.4175240">
        <ele>427.1</ele>
        <time>2019-08-17T09:56:20Z</time>
      </trkpt>
      <trkpt lat="41.9456170" lon="-7.4176460">
        <ele>426.5</ele>
        <time>2019-08-17T09:56:21Z</time>
      </trkpt>
      <trkpt lat="41.9456270" lon="-7.4177690">
        <ele>425.9</ele>
        <time>2019-08-17T09:56:22Z</time>
      </trkpt>
      <trkpt lat="41.9456330" lon="-7.4178940">
        <ele>425.4</ele>
        <time>2019-08-17T09:56:23Z</time>
      </trkpt>
      <trkpt lat="41.9456340" lon="-7.4180190">
        <ele>424.9</ele>
        <time>2019-08-17T09:56:24Z</time>
      </trkpt>
      <trkpt lat="41.9456310" lon="-7.4181450">
        <ele>424.5</ele>
        <time>2019-08-17T09:56:25Z</time>
      </trkpt>
      <trkpt lat="41.9456230" lon="-7.4182720">
        <ele>424.2</ele>
        <time>2019-08-17T09:56:26Z</time>
      </trkpt>
      <trkpt lat="41.9456090" lon="-7.4183990">
        <ele>423.9</ele>
        <time>2019-08-17T09:56:27Z</time>
      </trkpt>
      <trkpt lat="41.9455900" lon="-7.4185260">
        <ele>423.6</ele>
        <time>2019-08-17T09:56:28Z</time>
      </trkpt>
      <trkpt lat="41.9455650" lon="-7.4186530">
        <ele>423.3</ele>
        <time>2019-08-17T09:56:29Z</time>
      </trkpt>
      <trkpt lat="41.9455350" lon="-7.4187780">
        <ele>423.0</ele>
        <time>2019-08-17T09:56:30Z</time>
      </trkpt>
      <trkpt lat="41.9454990" lon="-7.4189020">
        <ele>422.6</ele>
        <time>2019-08-17T09:56:31Z</time>
      </trkpt>
      <trkpt lat="41.9454590" lon="-7.4190220">
        <ele>422.2</ele>
        <time>2019-08-17T09:56:32Z</time>
      </trkpt>
      <trkpt lat="41.9454140" lon="-7.4191410">
        <ele>421.6</ele>
        <time>2019-08-17T09:56:33Z</time>
      </trkpt>
      <trkpt lat="41.9453680" lon="-7.4192570">
        <ele>421.0</ele>
        <time>2019-08-17T09:56:34Z</time>
      </trkpt>
      <trkpt lat="41.9453210" lon="-7.4193720">
        <ele>420.4</ele>
        <time>2019-08-17T09:56:35Z</time>
      </trkpt>
      <trkpt lat="41.9452740" lon="-7.4194860">
        <ele>419.8</ele>
        <time>2019-08-17T09:56:36Z</time>
      </trkpt>
      <trkpt lat="41.9452270" lon="-7.4196000">
        <ele>419.3</ele>
        <time>2019-08-17T09:56:37Z</time>
      </trkpt>
      <trkpt lat="41.9451800" lon="-7.4197150">
        <ele>418.8</ele>
        <time>2019-08-17T09:56:38Z</time>
      </trkpt>
      <trkpt lat="41.9451330" lon="-7.4198310">
        <ele>418.3</ele>
        <time>2019-08-17T09:56:39Z</time>
      </trkpt>
      <trkpt lat="41.9450870" lon="-7.4199490">
        <ele>417.8</ele>
        <time>2019-08-17T09:56:40Z</time>
      </trkpt>
      <trkpt lat="41.9450400" lon="-7.4200670">
        <ele>417.1</ele>
        <time>2019-08-17T09:56:41Z</time>
      </trkpt>
      <trkpt lat="41.9449930" lon="-7.4201860">
        <ele>416.3</ele>
        <time>2019-08-17T09:56:42Z</time>
      </trkpt>
      <trkpt lat="41.9449470" lon="-7.4203060">
        <ele>415.8</ele>
        <time>2019-08-17T09:56:43Z</time>
      </trkpt>
      <trkpt lat="41.9449010" lon="-7.4204270">
        <ele>415.3</ele>
        <time>2019-08-17T09:56:44Z</time>
      </trkpt>
      <trkpt lat="41.9448550" lon="-7.4205490">
        <ele>414.8</ele>
        <time>2019-08-17T09:56:45Z</time>
      </trkpt>
      <trkpt lat="41.9448100" lon="-7.4206720">
        <ele>414.4</ele>
        <time>2019-08-17T09:56:46Z</time>
      </trkpt>
      <trkpt lat="41.9447650" lon="-7.4207950">
        <ele>414.0</ele>
        <time>2019-08-17T09:56:47Z</time>
      </trkpt>
      <trkpt lat="41.9446910" lon="-7.4210040">
        <ele>413.4</ele>
        <time>2019-08-17T09:56:48Z</time>
      </trkpt>
      <trkpt lat="41.9446620" lon="-7.4210890">
        <ele>413.2</ele>
        <time>2019-08-17T09:56:49Z</time>
      </trkpt>
      <trkpt lat="41.9446330" lon="-7.4211730">
        <ele>413.0</ele>
        <time>2019-08-17T09:56:50Z</time>
      </trkpt>
      <trkpt lat="41.9445900" lon="-7.4212990">
        <ele>412.7</ele>
        <time>2019-08-17T09:56:51Z</time>
      </trkpt>
      <trkpt lat="41.9445470" lon="-7.4214270">
        <ele>412.5</ele>
        <time>2019-08-17T09:56:52Z</time>
      </trkpt>
      <trkpt lat="41.9444760" lon="-7.4216390">
        <ele>412.1</ele>
        <time>2019-08-17T09:56:53Z</time>
      </trkpt>
      <trkpt lat="41.9444480" lon="-7.4217240">
        <ele>411.9</ele>
        <time>2019-08-17T09:56:54Z</time>
      </trkpt>
      <trkpt lat="41.9444200" lon="-7.4218090">
        <ele>411.7</ele>
        <time>2019-08-17T09:56:55Z</time>
      </trkpt>
      <trkpt lat="41.9443780" lon="-7.4219350">
        <ele>411.3</ele>
        <time>2019-08-17T09:56:56Z</time>
      </trkpt>
      <trkpt lat="41.9443360" lon="-7.4220610">
        <ele>410.8</ele>
        <time>2019-08-17T09:56:57Z</time>
      </trkpt>
      <trkpt lat="41.9442940" lon="-7.4221870">
        <ele>410.5</ele>
        <time>2019-08-17T09:56:58Z</time>
      </trkpt>
      <trkpt lat="41.9442530" lon="-7.4223120">
        <ele>410.3</ele>
        <time>2019-08-17T09:56:59Z</time>
      </trkpt>
      <trkpt lat="41.9442120" lon="-7.4224370">
        <ele>410.1</ele>
        <time>2019-08-17T09:57:00Z</time>
      </trkpt>
      <trkpt lat="41.9441710" lon="-7.4225610">
        <ele>409.9</ele>
        <time>2019-08-17T09:57:01Z</time>
      </trkpt>
      <trkpt lat="41.9441300" lon="-7.4226840">
        <ele>409.6</ele>
        <time>2019-08-17T09:57:02Z</time>
      </trkpt>
      <trkpt lat="41.9440890" lon="-7.4228070">
        <ele>409.4</ele>
        <time>2019-08-17T09:57:03Z</time>
      </trkpt>
      <trkpt lat="41.9440490" lon="-7.4229300">
        <ele>409.1</ele>
        <time>2019-08-17T09:57:04Z</time>
      </trkpt>
      <trkpt lat="41.9440090" lon="-7.4230520">
        <ele>408.8</ele>
        <time>2019-08-17T09:57:05Z</time>
      </trkpt>
      <trkpt lat="41.9439700" lon="-7.4231730">
        <ele>408.4</ele>
        <time>2019-08-17T09:57:06Z</time>
      </trkpt>
      <trkpt lat="41.9439310" lon="-7.4232940">
        <ele>408.0</ele>
        <time>2019-08-17T09:57:07Z</time>
      </trkpt>
      <trkpt lat="41.9438920" lon="-7.4234140">
        <ele>407.8</ele>
        <time>2019-08-17T09:57:08Z</time>
      </trkpt>
      <trkpt lat="41.9438530" lon="-7.4235340">
        <ele>407.6</ele>
        <time>2019-08-17T09:57:09Z</time>
      </trkpt>
      <trkpt lat="41.9438150" lon="-7.4236520">
        <ele>407.5</ele>
        <time>2019-08-17T09:57:10Z</time>
      </trkpt>
      <trkpt lat="41.9437770" lon="-7.4237710">
        <ele>407.4</ele>
        <time>2019-08-17T09:57:11Z</time>
      </trkpt>
      <trkpt lat="41.9437390" lon="-7.4238890">
        <ele>407.0</ele>
        <time>2019-08-17T09:57:12Z</time>
      </trkpt>
      <trkpt lat="41.9437020" lon="-7.4240070">
        <ele>406.6</ele>
        <time>2019-08-17T09:57:13Z</time>
      </trkpt>
      <trkpt lat="41.9436640" lon="-7.4241250">
        <ele>406.1</ele>
        <time>2019-08-17T09:57:14Z</time>
      </trkpt>
      <trkpt lat="41.9436260" lon="-7.4242430">
        <ele>405.5</ele>
        <time>2019-08-17T09:57:15Z</time>
      </trkpt>
      <trkpt lat="41.9435890" lon="-7.4243610">
        <ele>405.0</ele>
        <time>2019-08-17T09:57:16Z</time>
      </trkpt>
      <trkpt lat="41.9435510" lon="-7.4244790">
        <ele>404.5</ele>
        <time>2019-08-17T09:57:17Z</time>
      </trkpt>
      <trkpt lat="41.9435140" lon="-7.4245970">
        <ele>404.0</ele>
        <time>2019-08-17T09:57:18Z</time>
      </trkpt>
      <trkpt lat="41.9434760" lon="-7.4247160">
        <ele>403.4</ele>
        <time>2019-08-17T09:57:19Z</time>
      </trkpt>
      <trkpt lat="41.9434370" lon="-7.4248360">
        <ele>402.9</ele>
        <time>2019-08-17T09:57:20Z</time>
      </trkpt>
      <trkpt lat="41.9433990" lon="-7.4249560">
        <ele>402.3</ele>
        <time>2019-08-17T09:57:21Z</time>
      </trkpt>
      <trkpt lat="41.9433600" lon="-7.4250770">
        <ele>401.7</ele>
        <time>2019-08-17T09:57:22Z</time>
      </trkpt>
      <trkpt lat="41.9433210" lon="-7.4251990">
        <ele>401.0</ele>
        <time>2019-08-17T09:57:23Z</time>
      </trkpt>
      <trkpt lat="41.9432820" lon="-7.4253210">
        <ele>400.4</ele>
        <time>2019-08-17T09:57:24Z</time>
      </trkpt>
      <trkpt lat="41.9432420" lon="-7.4254440">
        <ele>399.8</ele>
        <time>2019-08-17T09:57:25Z</time>
      </trkpt>
      <trkpt lat="41.9432020" lon="-7.4255670">
        <ele>399.0</ele>
        <time>2019-08-17T09:57:26Z</time>
      </trkpt>
      <trkpt lat="41.9431620" lon="-7.4256910">
        <ele>398.4</ele>
        <time>2019-08-17T09:57:27Z</time>
      </trkpt>
      <trkpt lat="41.9431220" lon="-7.4258140">
        <ele>397.7</ele>
        <time>2019-08-17T09:57:28Z</time>
      </trkpt>
      <trkpt lat="41.9430820" lon="-7.4259380">
        <ele>397.2</ele>
        <time>2019-08-17T09:57:29Z</time>
      </trkpt>
      <trkpt lat="41.9430420" lon="-7.4260610">
        <ele>396.6</ele>
        <time>2019-08-17T09:57:30Z</time>
      </trkpt>
      <trkpt lat="41.9430020" lon="-7.4261840">
        <ele>396.1</ele>
        <time>2019-08-17T09:57:31Z</time>
      </trkpt>
      <trkpt lat="41.9429610" lon="-7.4263070">
        <ele>395.9</ele>
        <time>2019-08-17T09:57:32Z</time>
      </trkpt>
      <trkpt lat="41.9429210" lon="-7.4264300">
        <ele>395.6</ele>
        <time>2019-08-17T09:57:33Z</time>
      </trkpt>
      <trkpt lat="41.9428820" lon="-7.4265520">
        <ele>395.4</ele>
        <time>2019-08-17T09:57:34Z</time>
      </trkpt>
      <trkpt lat="41.9428420" lon="-7.4266730">
        <ele>395.4</ele>
        <time>2019-08-17T09:57:35Z</time>
      </trkpt>
      <trkpt lat="41.9428030" lon="-7.4267930">
        <ele>395.5</ele>
        <time>2019-08-17T09:57:36Z</time>
      </trkpt>
      <trkpt lat="41.9427640" lon="-7.4269120">
        <ele>395.5</ele>
        <time>2019-08-17T09:57:37Z</time>
      </trkpt>
      <trkpt lat="41.9427250" lon="-7.4270290">
        <ele>395.2</ele>
        <time>2019-08-17T09:57:38Z</time>
      </trkpt>
      <trkpt lat="41.9426880" lon="-7.4271440">
        <ele>395.0</ele>
        <time>2019-08-17T09:57:39Z</time>
      </trkpt>
      <trkpt lat="41.9426510" lon="-7.4272560">
        <ele>395.0</ele>
        <time>2019-08-17T09:57:40Z</time>
      </trkpt>
      <trkpt lat="41.9426160" lon="-7.4273640">
        <ele>395.0</ele>
        <time>2019-08-17T09:57:41Z</time>
      </trkpt>
      <trkpt lat="41.9425820" lon="-7.4274680">
        <ele>395.2</ele>
        <time>2019-08-17T09:57:42Z</time>
      </trkpt>
      <trkpt lat="41.9425490" lon="-7.4275670">
        <ele>395.5</ele>
        <time>2019-08-17T09:57:43Z</time>
      </trkpt>
      <trkpt lat="41.9425180" lon="-7.4276620">
        <ele>395.8</ele>
        <time>2019-08-17T09:57:44Z</time>
      </trkpt>
      <trkpt lat="41.9424880" lon="-7.4277540">
        <ele>396.1</ele>
        <time>2019-08-17T09:57:45Z</time>
      </trkpt>
      <trkpt lat="41.9424580" lon="-7.4278440">
        <ele>396.0</ele>
        <time>2019-08-17T09:57:46Z</time>
      </trkpt>
      <trkpt lat="41.9424290" lon="-7.4279320">
        <ele>396.0</ele>
        <time>2019-08-17T09:57:47Z</time>
      </trkpt>
      <trkpt lat="41.9424000" lon="-7.4280200">
        <ele>395.9</ele>
        <time>2019-08-17T09:57:48Z</time>
      </trkpt>
      <trkpt lat="41.9423710" lon="-7.4281070">
        <ele>395.8</ele>
        <time>2019-08-17T09:57:49Z</time>
      </trkpt>
      <trkpt lat="41.9423410" lon="-7.4281940">
        <ele>395.7</ele>
        <time>2019-08-17T09:57:50Z</time>
      </trkpt>
      <trkpt lat="41.9423120" lon="-7.4282800">
        <ele>395.5</ele>
        <time>2019-08-17T09:57:51Z</time>
      </trkpt>
      <trkpt lat="41.9422830" lon="-7.4283660">
        <ele>395.4</ele>
        <time>2019-08-17T09:57:52Z</time>
      </trkpt>
      <trkpt lat="41.9422540" lon="-7.4284500">
        <ele>395.3</ele>
        <time>2019-08-17T09:57:53Z</time>
      </trkpt>
      <trkpt lat="41.9422270" lon="-7.4285340">
        <ele>395.1</ele>
        <time>2019-08-17T09:57:54Z</time>
      </trkpt>
      <trkpt lat="41.9422000" lon="-7.4286150">
        <ele>395.0</ele>
        <time>2019-08-17T09:57:55Z</time>
      </trkpt>
      <trkpt lat="41.9421740" lon="-7.4286950">
        <ele>394.9</ele>
        <time>2019-08-17T09:57:56Z</time>
      </trkpt>
      <trkpt lat="41.9421500" lon="-7.4287730">
        <ele>394.7</ele>
        <time>2019-08-17T09:57:57Z</time>
      </trkpt>
      <trkpt lat="41.9421260" lon="-7.4288500">
        <ele>394.6</ele>
        <time>2019-08-17T09:57:58Z</time>
      </trkpt>
      <trkpt lat="41.9421020" lon="-7.4289240">
        <ele>394.5</ele>
        <time>2019-08-17T09:57:59Z</time>
      </trkpt>
      <trkpt lat="41.9420790" lon="-7.4289970">
        <ele>394.3</ele>
        <time>2019-08-17T09:58:00Z</time>
      </trkpt>
      <trkpt lat="41.9420550" lon="-7.4290690">
        <ele>394.2</ele>
        <time>2019-08-17T09:58:01Z</time>
      </trkpt>
      <trkpt lat="41.9420320" lon="-7.4291390">
        <ele>394.1</ele>
        <time>2019-08-17T09:58:02Z</time>
      </trkpt>
      <trkpt lat="41.9420080" lon="-7.4292070">
        <ele>394.0</ele>
        <time>2019-08-17T09:58:03Z</time>
      </trkpt>
      <trkpt lat="41.9419840" lon="-7.4292750">
        <ele>393.9</ele>
        <time>2019-08-17T09:58:04Z</time>
      </trkpt>
      <trkpt lat="41.9419600" lon="-7.4293410">
        <ele>393.8</ele>
        <time>2019-08-17T09:58:05Z</time>
      </trkpt>
      <trkpt lat="41.9419360" lon="-7.4294080">
        <ele>393.7</ele>
        <time>2019-08-17T09:58:06Z</time>
      </trkpt>
      <trkpt lat="41.9419120" lon="-7.4294760">
        <ele>393.6</ele>
        <time>2019-08-17T09:58:07Z</time>
      </trkpt>
      <trkpt lat="41.9418870" lon="-7.4295440">
        <ele>393.5</ele>
        <time>2019-08-17T09:58:08Z</time>
      </trkpt>
      <trkpt lat="41.9418630" lon="-7.4296140">
        <ele>393.4</ele>
        <time>2019-08-17T09:58:09Z</time>
      </trkpt>
      <trkpt lat="41.9418390" lon="-7.4296850">
        <ele>393.3</ele>
        <time>2019-08-17T09:58:10Z</time>
      </trkpt>
      <trkpt lat="41.9418160" lon="-7.4297560">
        <ele>393.2</ele>
        <time>2019-08-17T09:58:11Z</time>
      </trkpt>
      <trkpt lat="41.9417930" lon="-7.4298250">
        <ele>393.0</ele>
        <time>2019-08-17T09:58:12Z</time>
      </trkpt>
      <trkpt lat="41.9417700" lon="-7.4298910">
        <ele>392.9</ele>
        <time>2019-08-17T09:58:13Z</time>
      </trkpt>
      <trkpt lat="41.9417490" lon="-7.4299550">
        <ele>392.8</ele>
        <time>2019-08-17T09:58:14Z</time>
      </trkpt>
      <trkpt lat="41.9417280" lon="-7.4300180">
        <ele>392.7</ele>
        <time>2019-08-17T09:58:15Z</time>
      </trkpt>
      <trkpt lat="41.9417070" lon="-7.4300830">
        <ele>392.6</ele>
        <time>2019-08-17T09:58:16Z</time>
      </trkpt>
      <trkpt lat="41.9416870" lon="-7.4301490">
        <ele>392.5</ele>
        <time>2019-08-17T09:58:17Z</time>
      </trkpt>
      <trkpt lat="41.9416670" lon="-7.4302170">
        <ele>392.4</ele>
        <time>2019-08-17T09:58:18Z</time>
      </trkpt>
      <trkpt lat="41.9416470" lon="-7.4302860">
        <ele>392.3</ele>
        <time>2019-08-17T09:58:19Z</time>
      </trkpt>
      <trkpt lat="41.9416260" lon="-7.4303560">
        <ele>392.2</ele>
        <time>2019-08-17T09:58:20Z</time>
      </trkpt>
      <trkpt lat="41.9416040" lon="-7.4304280">
        <ele>392.1</ele>
        <time>2019-08-17T09:58:21Z</time>
      </trkpt>
      <trkpt lat="41.9415810" lon="-7.4305020">
        <ele>392.0</ele>
        <time>2019-08-17T09:58:22Z</time>
      </trkpt>
      <trkpt lat="41.9415570" lon="-7.4305760">
        <ele>391.8</ele>
        <time>2019-08-17T09:58:23Z</time>
      </trkpt>
      <trkpt lat="41.9415320" lon="-7.4306520">
        <ele>391.7</ele>
        <time>2019-08-17T09:58:24Z</time>
      </trkpt>
      <trkpt lat="41.9415060" lon="-7.4307290">
        <ele>391.5</ele>
        <time>2019-08-17T09:58:25Z</time>
      </trkpt>
      <trkpt lat="41.9414820" lon="-7.4308060">
        <ele>391.4</ele>
        <time>2019-08-17T09:58:26Z</time>
      </trkpt>
      <trkpt lat="41.9414580" lon="-7.4308840">
        <ele>391.2</ele>
        <time>2019-08-17T09:58:27Z</time>
      </trkpt>
      <trkpt lat="41.9414350" lon="-7.4309620">
        <ele>391.0</ele>
        <time>2019-08-17T09:58:28Z</time>
      </trkpt>
      <trkpt lat="41.9414110" lon="-7.4310420">
        <ele>390.9</ele>
        <time>2019-08-17T09:58:29Z</time>
      </trkpt>
      <trkpt lat="41.9413870" lon="-7.4311220">
        <ele>390.7</ele>
        <time>2019-08-17T09:58:30Z</time>
      </trkpt>
      <trkpt lat="41.9413620" lon="-7.4312030">
        <ele>390.5</ele>
        <time>2019-08-17T09:58:31Z</time>
      </trkpt>
      <trkpt lat="41.9413350" lon="-7.4312850">
        <ele>390.3</ele>
        <time>2019-08-17T09:58:32Z</time>
      </trkpt>
      <trkpt lat="41.9413080" lon="-7.4313670">
        <ele>390.1</ele>
        <time>2019-08-17T09:58:33Z</time>
      </trkpt>
      <trkpt lat="41.9412800" lon="-7.4314500">
        <ele>389.9</ele>
        <time>2019-08-17T09:58:34Z</time>
      </trkpt>
      <trkpt lat="41.9412520" lon="-7.4315330">
        <ele>389.8</ele>
        <time>2019-08-17T09:58:35Z</time>
      </trkpt>
      <trkpt lat="41.9412220" lon="-7.4316160">
        <ele>389.6</ele>
        <time>2019-08-17T09:58:36Z</time>
      </trkpt>
      <trkpt lat="41.9411920" lon="-7.4316990">
        <ele>389.4</ele>
        <time>2019-08-17T09:58:37Z</time>
      </trkpt>
      <trkpt lat="41.9411620" lon="-7.4317820">
        <ele>389.2</ele>
        <time>2019-08-17T09:58:38Z</time>
      </trkpt>
      <trkpt lat="41.9411320" lon="-7.4318660">
        <ele>389.0</ele>
        <time>2019-08-17T09:58:39Z</time>
      </trkpt>
      <trkpt lat="41.9411020" lon="-7.4319500">
        <ele>389.0</ele>
        <time>2019-08-17T09:58:40Z</time>
      </trkpt>
      <trkpt lat="41.9410740" lon="-7.4320340">
        <ele>389.1</ele>
        <time>2019-08-17T09:58:41Z</time>
      </trkpt>
      <trkpt lat="41.9410470" lon="-7.4321190">
        <ele>389.1</ele>
        <time>2019-08-17T09:58:42Z</time>
      </trkpt>
      <trkpt lat="41.9410220" lon="-7.4322040">
        <ele>389.1</ele>
        <time>2019-08-17T09:58:43Z</time>
      </trkpt>
      <trkpt lat="41.9409990" lon="-7.4322900">
        <ele>389.2</ele>
        <time>2019-08-17T09:58:44Z</time>
      </trkpt>
      <trkpt lat="41.9409760" lon="-7.4323760">
        <ele>389.5</ele>
        <time>2019-08-17T09:58:45Z</time>
      </trkpt>
      <trkpt lat="41.9409530" lon="-7.4324620">
        <ele>389.8</ele>
        <time>2019-08-17T09:58:46Z</time>
      </trkpt>
      <trkpt lat="41.9409280" lon="-7.4325480">
        <ele>390.0</ele>
        <time>2019-08-17T09:58:47Z</time>
      </trkpt>
      <trkpt lat="41.9409030" lon="-7.4326340">
        <ele>390.3</ele>
        <time>2019-08-17T09:58:48Z</time>
      </trkpt>
      <trkpt lat="41.9408740" lon="-7.4327190">
        <ele>390.5</ele>
        <time>2019-08-17T09:58:49Z</time>
      </trkpt>
      <trkpt lat="41.9408430" lon="-7.4328030">
        <ele>391.0</ele>
        <time>2019-08-17T09:58:50Z</time>
      </trkpt>
      <trkpt lat="41.9408110" lon="-7.4328870">
        <ele>391.3</ele>
        <time>2019-08-17T09:58:51Z</time>
      </trkpt>
      <trkpt lat="41.9407780" lon="-7.4329710">
        <ele>391.5</ele>
        <time>2019-08-17T09:58:52Z</time>
      </trkpt>
      <trkpt lat="41.9407460" lon="-7.4330540">
        <ele>391.9</ele>
        <time>2019-08-17T09:58:53Z</time>
      </trkpt>
      <trkpt lat="41.9407160" lon="-7.4331360">
        <ele>391.9</ele>
        <time>2019-08-17T09:58:54Z</time>
      </trkpt>
      <trkpt lat="41.9406910" lon="-7.4332180">
        <ele>391.9</ele>
        <time>2019-08-17T09:58:55Z</time>
      </trkpt>
      <trkpt lat="41.9406700" lon="-7.4333010">
        <ele>391.8</ele>
        <time>2019-08-17T09:58:56Z</time>
      </trkpt>
      <trkpt lat="41.9406520" lon="-7.4333820">
        <ele>391.8</ele>
        <time>2019-08-17T09:58:57Z</time>
      </trkpt>
      <trkpt lat="41.9406360" lon="-7.4334630">
        <ele>391.8</ele>
        <time>2019-08-17T09:58:58Z</time>
      </trkpt>
      <trkpt lat="41.9406190" lon="-7.4335430">
        <ele>391.7</ele>
        <time>2019-08-17T09:58:59Z</time>
      </trkpt>
      <trkpt lat="41.9406000" lon="-7.4336210">
        <ele>391.5</ele>
        <time>2019-08-17T09:59:00Z</time>
      </trkpt>
      <trkpt lat="41.9405790" lon="-7.4336980">
        <ele>391.3</ele>
        <time>2019-08-17T09:59:01Z</time>
      </trkpt>
      <trkpt lat="41.9405570" lon="-7.4337740">
        <ele>391.1</ele>
        <time>2019-08-17T09:59:02Z</time>
      </trkpt>
      <trkpt lat="41.9405360" lon="-7.4338480">
        <ele>390.9</ele>
        <time>2019-08-17T09:59:03Z</time>
      </trkpt>
      <trkpt lat="41.9405160" lon="-7.4339220">
        <ele>390.8</ele>
        <time>2019-08-17T09:59:04Z</time>
      </trkpt>
      <trkpt lat="41.9404960" lon="-7.4339950">
        <ele>390.6</ele>
        <time>2019-08-17T09:59:05Z</time>
      </trkpt>
      <trkpt lat="41.9404790" lon="-7.4340680">
        <ele>390.5</ele>
        <time>2019-08-17T09:59:06Z</time>
      </trkpt>
      <trkpt lat="41.9404620" lon="-7.4341420">
        <ele>390.3</ele>
        <time>2019-08-17T09:59:07Z</time>
      </trkpt>
      <trkpt lat="41.9404480" lon="-7.4342170">
        <ele>390.2</ele>
        <time>2019-08-17T09:59:08Z</time>
      </trkpt>
      <trkpt lat="41.9404340" lon="-7.4342950">
        <ele>390.0</ele>
        <time>2019-08-17T09:59:09Z</time>
      </trkpt>
      <trkpt lat="41.9404160" lon="-7.4343890">
        <ele>389.9</ele>
        <time>2019-08-17T09:59:10Z</time>
      </trkpt>
      <trkpt lat="41.9404030" lon="-7.4344480">
        <ele>389.7</ele>
        <time>2019-08-17T09:59:11Z</time>
      </trkpt>
      <trkpt lat="41.9404160" lon="-7.4344480">
        <ele>389.7</ele>
        <time>2019-08-17T10:00:44Z</time>
      </trkpt>
      <trkpt lat="41.9403540" lon="-7.4348720">
        <ele>388.5</ele>
        <time>2019-08-17T10:00:45Z</time>
      </trkpt>
      <trkpt lat="41.9403600" lon="-7.4349350">
        <ele>388.4</ele>
        <time>2019-08-17T10:00:46Z</time>
      </trkpt>
      <trkpt lat="41.9403610" lon="-7.4350120">
        <ele>388.1</ele>
        <time>2019-08-17T10:00:47Z</time>
      </trkpt>
      <trkpt lat="41.9403560" lon="-7.4351120">
        <ele>388.2</ele>
        <time>2019-08-17T10:00:48Z</time>
      </trkpt>
      <trkpt lat="41.9403510" lon="-7.4352010">
        <ele>388.4</ele>
        <time>2019-08-17T10:00:49Z</time>
      </trkpt>
      <trkpt lat="41.9403430" lon="-7.4352890">
        <ele>388.5</ele>
        <time>2019-08-17T10:00:50Z</time>
      </trkpt>
      <trkpt lat="41.9403320" lon="-7.4353850">
        <ele>388.6</ele>
        <time>2019-08-17T10:00:51Z</time>
      </trkpt>
      <trkpt lat="41.9403160" lon="-7.4354960">
        <ele>388.6</ele>
        <time>2019-08-17T10:00:52Z</time>
      </trkpt>
      <trkpt lat="41.9402980" lon="-7.4356160">
        <ele>388.6</ele>
        <time>2019-08-17T10:00:53Z</time>
      </trkpt>
      <trkpt lat="41.9402740" lon="-7.4358060">
        <ele>388.7</ele>
        <time>2019-08-17T10:00:54Z</time>
      </trkpt>
      <trkpt lat="41.9402660" lon="-7.4358760">
        <ele>388.8</ele>
        <time>2019-08-17T10:00:55Z</time>
      </trkpt>
      <trkpt lat="41.9402590" lon="-7.4359460">
        <ele>388.9</ele>
        <time>2019-08-17T10:00:56Z</time>
      </trkpt>
      <trkpt lat="41.9402510" lon="-7.4360290">
        <ele>389.1</ele>
        <time>2019-08-17T10:00:57Z</time>
      </trkpt>
      <trkpt lat="41.9402430" lon="-7.4360930">
        <ele>389.3</ele>
        <time>2019-08-17T10:00:58Z</time>
      </trkpt>
      <trkpt lat="41.9402350" lon="-7.4361380">
        <ele>389.4</ele>
        <time>2019-08-17T10:00:59Z</time>
      </trkpt>
      <trkpt lat="41.9402260" lon="-7.4361730">
        <ele>389.6</ele>
        <time>2019-08-17T10:01:00Z</time>
      </trkpt>
      <trkpt lat="41.9402160" lon="-7.4362120">
        <ele>389.7</ele>
        <time>2019-08-17T10:01:01Z</time>
      </trkpt>
      <trkpt lat="41.9402080" lon="-7.4362640">
        <ele>389.9</ele>
        <time>2019-08-17T10:01:02Z</time>
      </trkpt>
      <trkpt lat="41.9402050" lon="-7.4363200">
        <ele>390.3</ele>
        <time>2019-08-17T10:01:03Z</time>
      </trkpt>
      <trkpt lat="41.9402090" lon="-7.4364250">
        <ele>390.3</ele>
        <time>2019-08-17T10:01:04Z</time>
      </trkpt>
      <trkpt lat="41.9402090" lon="-7.4364770">
        <ele>390.3</ele>
        <time>2019-08-17T10:01:05Z</time>
      </trkpt>
      <trkpt lat="41.9402100" lon="-7.4365280">
        <ele>390.3</ele>
        <time>2019-08-17T10:01:06Z</time>
      </trkpt>
      <trkpt lat="41.9402060" lon="-7.4366170">
        <ele>390.2</ele>
        <time>2019-08-17T10:01:07Z</time>
      </trkpt>
      <trkpt lat="41.9402000" lon="-7.4367060">
        <ele>390.2</ele>
        <time>2019-08-17T10:01:08Z</time>
      </trkpt>
      <trkpt lat="41.9401910" lon="-7.4367910">
        <ele>390.1</ele>
        <time>2019-08-17T10:01:09Z</time>
      </trkpt>
      <trkpt lat="41.9401820" lon="-7.4368740">
        <ele>390.0</ele>
        <time>2019-08-17T10:01:10Z</time>
      </trkpt>
      <trkpt lat="41.9401720" lon="-7.4369520">
        <ele>390.0</ele>
        <time>2019-08-17T10:01:11Z</time>
      </trkpt>
      <trkpt lat="41.9401640" lon="-7.4370250">
        <ele>389.9</ele>
        <time>2019-08-17T10:01:12Z</time>
      </trkpt>
      <trkpt lat="41.9401590" lon="-7.4370920">
        <ele>389.8</ele>
        <time>2019-08-17T10:01:13Z</time>
      </trkpt>
      <trkpt lat="41.9401610" lon="-7.4371910">
        <ele>389.8</ele>
        <time>2019-08-17T10:01:14Z</time>
      </trkpt>
      <trkpt lat="41.9401640" lon="-7.4372280">
        <ele>389.7</ele>
        <time>2019-08-17T10:01:15Z</time>
      </trkpt>
      <trkpt lat="41.9401670" lon="-7.4372650">
        <ele>389.7</ele>
        <time>2019-08-17T10:01:16Z</time>
      </trkpt>
      <trkpt lat="41.9401760" lon="-7.4373260">
        <ele>389.6</ele>
        <time>2019-08-17T10:01:17Z</time>
      </trkpt>
      <trkpt lat="41.9401850" lon="-7.4374000">
        <ele>389.4</ele>
        <time>2019-08-17T10:01:18Z</time>
      </trkpt>
      <trkpt lat="41.9401930" lon="-7.4374920">
        <ele>389.3</ele>
        <time>2019-08-17T10:01:19Z</time>
      </trkpt>
      <trkpt lat="41.9402000" lon="-7.4375980">
        <ele>389.0</ele>
        <time>2019-08-17T10:01:20Z</time>
      </trkpt>
      <trkpt lat="41.9402040" lon="-7.4377100">
        <ele>388.8</ele>
        <time>2019-08-17T10:01:21Z</time>
      </trkpt>
      <trkpt lat="41.9402060" lon="-7.4378240">
        <ele>388.7</ele>
        <time>2019-08-17T10:01:22Z</time>
      </trkpt>
      <trkpt lat="41.9402040" lon="-7.4379370">
        <ele>388.5</ele>
        <time>2019-08-17T10:01:23Z</time>
      </trkpt>
      <trkpt lat="41.9401970" lon="-7.4381190">
        <ele>388.2</ele>
        <time>2019-08-17T10:01:24Z</time>
      </trkpt>
      <trkpt lat="41.9401940" lon="-7.4381890">
        <ele>388.2</ele>
        <time>2019-08-17T10:01:25Z</time>
      </trkpt>
      <trkpt lat="41.9401900" lon="-7.4382590">
        <ele>388.1</ele>
        <time>2019-08-17T10:01:26Z</time>
      </trkpt>
      <trkpt lat="41.9401830" lon="-7.4383540">
        <ele>388.0</ele>
        <time>2019-08-17T10:01:27Z</time>
      </trkpt>
      <trkpt lat="41.9401760" lon="-7.4384410">
        <ele>387.9</ele>
        <time>2019-08-17T10:01:28Z</time>
      </trkpt>
      <trkpt lat="41.9401690" lon="-7.4385190">
        <ele>387.9</ele>
        <time>2019-08-17T10:01:29Z</time>
      </trkpt>
      <trkpt lat="41.9401620" lon="-7.4385890">
        <ele>387.8</ele>
        <time>2019-08-17T10:01:30Z</time>
      </trkpt>
      <trkpt lat="41.9401550" lon="-7.4386560">
        <ele>387.7</ele>
        <time>2019-08-17T10:01:31Z</time>
      </trkpt>
      <trkpt lat="41.9401480" lon="-7.4387220">
        <ele>387.7</ele>
        <time>2019-08-17T10:01:32Z</time>
      </trkpt>
      <trkpt lat="41.9401410" lon="-7.4387910">
        <ele>387.6</ele>
        <time>2019-08-17T10:01:33Z</time>
      </trkpt>
      <trkpt lat="41.9401280" lon="-7.4389200">
        <ele>387.5</ele>
        <time>2019-08-17T10:01:34Z</time>
      </trkpt>
      <trkpt lat="41.9401240" lon="-7.4389770">
        <ele>387.5</ele>
        <time>2019-08-17T10:01:35Z</time>
      </trkpt>
      <trkpt lat="41.9401190" lon="-7.4390330">
        <ele>387.4</ele>
        <time>2019-08-17T10:01:36Z</time>
      </trkpt>
      <trkpt lat="41.9401160" lon="-7.4391250">
        <ele>387.3</ele>
        <time>2019-08-17T10:01:37Z</time>
      </trkpt>
      <trkpt lat="41.9401190" lon="-7.4392200">
        <ele>387.3</ele>
        <time>2019-08-17T10:01:38Z</time>
      </trkpt>
      <trkpt lat="41.9401300" lon="-7.4393170">
        <ele>387.2</ele>
        <time>2019-08-17T10:01:39Z</time>
      </trkpt>
      <trkpt lat="41.9401410" lon="-7.4394140">
        <ele>387.1</ele>
        <time>2019-08-17T10:01:40Z</time>
      </trkpt>
      <trkpt lat="41.9401580" lon="-7.4395130">
        <ele>387.1</ele>
        <time>2019-08-17T10:01:41Z</time>
      </trkpt>
      <trkpt lat="41.9401740" lon="-7.4396120">
        <ele>387.0</ele>
        <time>2019-08-17T10:01:42Z</time>
      </trkpt>
      <trkpt lat="41.9401930" lon="-7.4397120">
        <ele>386.9</ele>
        <time>2019-08-17T10:01:43Z</time>
      </trkpt>
      <trkpt lat="41.9402130" lon="-7.4398090">
        <ele>386.8</ele>
        <time>2019-08-17T10:01:44Z</time>
      </trkpt>
      <trkpt lat="41.9402380" lon="-7.4399030">
        <ele>386.4</ele>
        <time>2019-08-17T10:01:45Z</time>
      </trkpt>
      <trkpt lat="41.9402660" lon="-7.4399930">
        <ele>386.1</ele>
        <time>2019-08-17T10:01:46Z</time>
      </trkpt>
      <trkpt lat="41.9402970" lon="-7.4400780">
        <ele>385.8</ele>
        <time>2019-08-17T10:01:47Z</time>
      </trkpt>
      <trkpt lat="41.9403280" lon="-7.4401610">
        <ele>385.6</ele>
        <time>2019-08-17T10:01:48Z</time>
      </trkpt>
      <trkpt lat="41.9403730" lon="-7.4402920">
        <ele>385.3</ele>
        <time>2019-08-17T10:01:49Z</time>
      </trkpt>
      <trkpt lat="41.9403900" lon="-7.4403430">
        <ele>385.3</ele>
        <time>2019-08-17T10:01:50Z</time>
      </trkpt>
      <trkpt lat="41.9404070" lon="-7.4403940">
        <ele>385.3</ele>
        <time>2019-08-17T10:01:51Z</time>
      </trkpt>
      <trkpt lat="41.9404320" lon="-7.4404680">
        <ele>385.2</ele>
        <time>2019-08-17T10:01:52Z</time>
      </trkpt>
      <trkpt lat="41.9404590" lon="-7.4405410">
        <ele>385.2</ele>
        <time>2019-08-17T10:01:53Z</time>
      </trkpt>
      <trkpt lat="41.9404860" lon="-7.4406130">
        <ele>385.2</ele>
        <time>2019-08-17T10:01:54Z</time>
      </trkpt>
      <trkpt lat="41.9405110" lon="-7.4406850">
        <ele>385.0</ele>
        <time>2019-08-17T10:01:55Z</time>
      </trkpt>
      <trkpt lat="41.9405340" lon="-7.4407580">
        <ele>384.9</ele>
        <time>2019-08-17T10:01:56Z</time>
      </trkpt>
      <trkpt lat="41.9405540" lon="-7.4408310">
        <ele>384.7</ele>
        <time>2019-08-17T10:01:57Z</time>
      </trkpt>
      <trkpt lat="41.9405700" lon="-7.4409050">
        <ele>384.5</ele>
        <time>2019-08-17T10:01:58Z</time>
      </trkpt>
      <trkpt lat="41.9405790" lon="-7.4409790">
        <ele>384.2</ele>
        <time>2019-08-17T10:01:59Z</time>
      </trkpt>
      <trkpt lat="41.9405830" lon="-7.4410520">
        <ele>384.1</ele>
        <time>2019-08-17T10:02:00Z</time>
      </trkpt>
      <trkpt lat="41.9405790" lon="-7.4411250">
        <ele>384.0</ele>
        <time>2019-08-17T10:02:01Z</time>
      </trkpt>
      <trkpt lat="41.9405680" lon="-7.4411970">
        <ele>383.9</ele>
        <time>2019-08-17T10:02:02Z</time>
      </trkpt>
      <trkpt lat="41.9405560" lon="-7.4412690">
        <ele>383.8</ele>
        <time>2019-08-17T10:02:03Z</time>
      </trkpt>
      <trkpt lat="41.9405450" lon="-7.4413410">
        <ele>383.7</ele>
        <time>2019-08-17T10:02:04Z</time>
      </trkpt>
      <trkpt lat="41.9405350" lon="-7.4414120">
        <ele>383.6</ele>
        <time>2019-08-17T10:02:05Z</time>
      </trkpt>
      <trkpt lat="41.9405250" lon="-7.4414810">
        <ele>383.5</ele>
        <time>2019-08-17T10:02:06Z</time>
      </trkpt>
      <trkpt lat="41.9405140" lon="-7.4415490">
        <ele>383.4</ele>
        <time>2019-08-17T10:02:07Z</time>
      </trkpt>
      <trkpt lat="41.9405050" lon="-7.4416170">
        <ele>383.3</ele>
        <time>2019-08-17T10:02:08Z</time>
      </trkpt>
      <trkpt lat="41.9404960" lon="-7.4416870">
        <ele>383.2</ele>
        <time>2019-08-17T10:02:09Z</time>
      </trkpt>
      <trkpt lat="41.9404910" lon="-7.4417580">
        <ele>383.2</ele>
        <time>2019-08-17T10:02:10Z</time>
      </trkpt>
      <trkpt lat="41.9404890" lon="-7.4418270">
        <ele>383.2</ele>
        <time>2019-08-17T10:02:11Z</time>
      </trkpt>
      <trkpt lat="41.9404930" lon="-7.4418930">
        <ele>383.2</ele>
        <time>2019-08-17T10:02:12Z</time>
      </trkpt>
      <trkpt lat="41.9405030" lon="-7.4419550">
        <ele>383.2</ele>
        <time>2019-08-17T10:02:13Z</time>
      </trkpt>
      <trkpt lat="41.9405170" lon="-7.4420160">
        <ele>383.3</ele>
        <time>2019-08-17T10:02:14Z</time>
      </trkpt>
      <trkpt lat="41.9405350" lon="-7.4420770">
        <ele>383.4</ele>
        <time>2019-08-17T10:02:15Z</time>
      </trkpt>
      <trkpt lat="41.9405520" lon="-7.4421410">
        <ele>383.5</ele>
        <time>2019-08-17T10:02:16Z</time>
      </trkpt>
      <trkpt lat="41.9405670" lon="-7.4422170">
        <ele>383.6</ele>
        <time>2019-08-17T10:02:17Z</time>
      </trkpt>
      <trkpt lat="41.9405750" lon="-7.4423060">
        <ele>383.8</ele>
        <time>2019-08-17T10:02:18Z</time>
      </trkpt>
      <trkpt lat="41.9405800" lon="-7.4424000">
        <ele>383.9</ele>
        <time>2019-08-17T10:02:19Z</time>
      </trkpt>
      <trkpt lat="41.9405860" lon="-7.4424880">
        <ele>384.0</ele>
        <time>2019-08-17T10:02:20Z</time>
      </trkpt>
      <trkpt lat="41.9405920" lon="-7.4425700">
        <ele>384.2</ele>
        <time>2019-08-17T10:02:21Z</time>
      </trkpt>
      <trkpt lat="41.9405950" lon="-7.4426510">
        <ele>384.3</ele>
        <time>2019-08-17T10:02:22Z</time>
      </trkpt>
      <trkpt lat="41.9405940" lon="-7.4427340">
        <ele>384.5</ele>
        <time>2019-08-17T10:02:23Z</time>
      </trkpt>
      <trkpt lat="41.9405880" lon="-7.4428170">
        <ele>384.7</ele>
        <time>2019-08-17T10:02:24Z</time>
      </trkpt>
      <trkpt lat="41.9405760" lon="-7.4428980">
        <ele>385.0</ele>
        <time>2019-08-17T10:02:25Z</time>
      </trkpt>
      <trkpt lat="41.9405570" lon="-7.4429740">
        <ele>385.2</ele>
        <time>2019-08-17T10:02:26Z</time>
      </trkpt>
      <trkpt lat="41.9405080" lon="-7.4430810">
        <ele>385.5</ele>
        <time>2019-08-17T10:02:27Z</time>
      </trkpt>
      <trkpt lat="41.9404830" lon="-7.4431170">
        <ele>385.6</ele>
        <time>2019-08-17T10:02:28Z</time>
      </trkpt>
      <trkpt lat="41.9404590" lon="-7.4431540">
        <ele>385.8</ele>
        <time>2019-08-17T10:02:29Z</time>
      </trkpt>
      <trkpt lat="41.9404130" lon="-7.4431940">
        <ele>385.7</ele>
        <time>2019-08-17T10:02:30Z</time>
      </trkpt>
      <trkpt lat="41.9403600" lon="-7.4432250">
        <ele>385.7</ele>
        <time>2019-08-17T10:02:31Z</time>
      </trkpt>
      <trkpt lat="41.9403040" lon="-7.4432500">
        <ele>385.7</ele>
        <time>2019-08-17T10:02:32Z</time>
      </trkpt>
      <trkpt lat="41.9402440" lon="-7.4432690">
        <ele>385.7</ele>
        <time>2019-08-17T10:02:33Z</time>
      </trkpt>
      <trkpt lat="41.9401810" lon="-7.4432840">
        <ele>385.5</ele>
        <time>2019-08-17T10:02:34Z</time>
      </trkpt>
      <trkpt lat="41.9401180" lon="-7.4432990">
        <ele>385.4</ele>
        <time>2019-08-17T10:02:35Z</time>
      </trkpt>
      <trkpt lat="41.9400540" lon="-7.4433130">
        <ele>385.2</ele>
        <time>2019-08-17T10:02:36Z</time>
      </trkpt>
      <trkpt lat="41.9399920" lon="-7.4433310">
        <ele>385.1</ele>
        <time>2019-08-17T10:02:37Z</time>
      </trkpt>
      <trkpt lat="41.9399320" lon="-7.4433560">
        <ele>385.0</ele>
        <time>2019-08-17T10:02:38Z</time>
      </trkpt>
      <trkpt lat="41.9398770" lon="-7.4433930">
        <ele>384.9</ele>
        <time>2019-08-17T10:02:39Z</time>
      </trkpt>
      <trkpt lat="41.9398270" lon="-7.4434450">
        <ele>384.9</ele>
        <time>2019-08-17T10:02:40Z</time>
      </trkpt>
      <trkpt lat="41.9397840" lon="-7.4435080">
        <ele>384.8</ele>
        <time>2019-08-17T10:02:41Z</time>
      </trkpt>
      <trkpt lat="41.9397500" lon="-7.4435790">
        <ele>384.8</ele>
        <time>2019-08-17T10:02:42Z</time>
      </trkpt>
      <trkpt lat="41.9397240" lon="-7.4436550">
        <ele>384.8</ele>
        <time>2019-08-17T10:02:43Z</time>
      </trkpt>
      <trkpt lat="41.9397070" lon="-7.4437340">
        <ele>384.8</ele>
        <time>2019-08-17T10:02:44Z</time>
      </trkpt>
      <trkpt lat="41.9396990" lon="-7.4438140">
        <ele>384.8</ele>
        <time>2019-08-17T10:02:45Z</time>
      </trkpt>
      <trkpt lat="41.9397000" lon="-7.4438940">
        <ele>384.9</ele>
        <time>2019-08-17T10:02:46Z</time>
      </trkpt>
      <trkpt lat="41.9397100" lon="-7.4439740">
        <ele>384.9</ele>
        <time>2019-08-17T10:02:47Z</time>
      </trkpt>
      <trkpt lat="41.9397240" lon="-7.4440520">
        <ele>385.0</ele>
        <time>2019-08-17T10:02:48Z</time>
      </trkpt>
      <trkpt lat="41.9397420" lon="-7.4441290">
        <ele>385.0</ele>
        <time>2019-08-17T10:02:49Z</time>
      </trkpt>
      <trkpt lat="41.9397600" lon="-7.4442060">
        <ele>385.0</ele>
        <time>2019-08-17T10:02:50Z</time>
      </trkpt>
      <trkpt lat="41.9397900" lon="-7.4443330">
        <ele>385.1</ele>
        <time>2019-08-17T10:02:51Z</time>
      </trkpt>
      <trkpt lat="41.9398010" lon="-7.4443830">
        <ele>385.2</ele>
        <time>2019-08-17T10:02:52Z</time>
      </trkpt>
      <trkpt lat="41.9398130" lon="-7.4444340">
        <ele>385.2</ele>
        <time>2019-08-17T10:02:53Z</time>
      </trkpt>
      <trkpt lat="41.9398300" lon="-7.4445100">
        <ele>386.3</ele>
        <time>2019-08-17T10:02:54Z</time>
      </trkpt>
      <trkpt lat="41.9398450" lon="-7.4445850">
        <ele>387.3</ele>
        <time>2019-08-17T10:02:55Z</time>
      </trkpt>
      <trkpt lat="41.9398590" lon="-7.4446610">
        <ele>388.4</ele>
        <time>2019-08-17T10:02:56Z</time>
      </trkpt>
      <trkpt lat="41.9398720" lon="-7.4447360">
        <ele>389.5</ele>
        <time>2019-08-17T10:02:57Z</time>
      </trkpt>
      <trkpt lat="41.9398820" lon="-7.4448100">
        <ele>390.5</ele>
        <time>2019-08-17T10:02:58Z</time>
      </trkpt>
      <trkpt lat="41.9398900" lon="-7.4448840">
        <ele>391.6</ele>
        <time>2019-08-17T10:02:59Z</time>
      </trkpt>
      <trkpt lat="41.9398960" lon="-7.4449570">
        <ele>392.8</ele>
        <time>2019-08-17T10:03:00Z</time>
      </trkpt>
      <trkpt lat="41.9398980" lon="-7.4450300">
        <ele>393.8</ele>
        <time>2019-08-17T10:03:01Z</time>
      </trkpt>
      <trkpt lat="41.9398970" lon="-7.4451020">
        <ele>394.9</ele>
        <time>2019-08-17T10:03:02Z</time>
      </trkpt>
      <trkpt lat="41.9398930" lon="-7.4451740">
        <ele>396.0</ele>
        <time>2019-08-17T10:03:03Z</time>
      </trkpt>
      <trkpt lat="41.9398850" lon="-7.4452460">
        <ele>397.0</ele>
        <time>2019-08-17T10:03:04Z</time>
      </trkpt>
      <trkpt lat="41.9398730" lon="-7.4453180">
        <ele>398.0</ele>
        <time>2019-08-17T10:03:05Z</time>
      </trkpt>
      <trkpt lat="41.9398590" lon="-7.4453900">
        <ele>398.5</ele>
        <time>2019-08-17T10:03:06Z</time>
      </trkpt>
      <trkpt lat="41.9398420" lon="-7.4454620">
        <ele>398.8</ele>
        <time>2019-08-17T10:03:07Z</time>
      </trkpt>
      <trkpt lat="41.9398220" lon="-7.4455340">
        <ele>399.2</ele>
        <time>2019-08-17T10:03:08Z</time>
      </trkpt>
      <trkpt lat="41.9397990" lon="-7.4456070">
        <ele>399.6</ele>
        <time>2019-08-17T10:03:09Z</time>
      </trkpt>
      <trkpt lat="41.9397570" lon="-7.4457300">
        <ele>400.2</ele>
        <time>2019-08-17T10:03:10Z</time>
      </trkpt>
      <trkpt lat="41.9397380" lon="-7.4457790">
        <ele>400.5</ele>
        <time>2019-08-17T10:03:11Z</time>
      </trkpt>
      <trkpt lat="41.9397200" lon="-7.4458290">
        <ele>400.8</ele>
        <time>2019-08-17T10:03:12Z</time>
      </trkpt>
      <trkpt lat="41.9396900" lon="-7.4459050">
        <ele>400.3</ele>
        <time>2019-08-17T10:03:13Z</time>
      </trkpt>
      <trkpt lat="41.9396590" lon="-7.4459820">
        <ele>399.8</ele>
        <time>2019-08-17T10:03:14Z</time>
      </trkpt>
      <trkpt lat="41.9396050" lon="-7.4461130">
        <ele>399.0</ele>
        <time>2019-08-17T10:03:15Z</time>
      </trkpt>
      <trkpt lat="41.9395840" lon="-7.4461670">
        <ele>398.6</ele>
        <time>2019-08-17T10:03:16Z</time>
      </trkpt>
      <trkpt lat="41.9395620" lon="-7.4462200">
        <ele>398.3</ele>
        <time>2019-08-17T10:03:17Z</time>
      </trkpt>
      <trkpt lat="41.9395290" lon="-7.4463020">
        <ele>397.7</ele>
        <time>2019-08-17T10:03:18Z</time>
      </trkpt>
      <trkpt lat="41.9394950" lon="-7.4463840">
        <ele>397.1</ele>
        <time>2019-08-17T10:03:19Z</time>
      </trkpt>
      <trkpt lat="41.9394610" lon="-7.4464660">
        <ele>396.4</ele>
        <time>2019-08-17T10:03:20Z</time>
      </trkpt>
      <trkpt lat="41.9394280" lon="-7.4465490">
        <ele>395.8</ele>
        <time>2019-08-17T10:03:21Z</time>
      </trkpt>
      <trkpt lat="41.9393940" lon="-7.4466300">
        <ele>395.3</ele>
        <time>2019-08-17T10:03:22Z</time>
      </trkpt>
      <trkpt lat="41.9393600" lon="-7.4467110">
        <ele>394.9</ele>
        <time>2019-08-17T10:03:23Z</time>
      </trkpt>
      <trkpt lat="41.9393260" lon="-7.4467900">
        <ele>394.7</ele>
        <time>2019-08-17T10:03:24Z</time>
      </trkpt>
      <trkpt lat="41.9392910" lon="-7.4468680">
        <ele>394.5</ele>
        <time>2019-08-17T10:03:25Z</time>
      </trkpt>
      <trkpt lat="41.9392550" lon="-7.4469450">
        <ele>394.3</ele>
        <time>2019-08-17T10:03:26Z</time>
      </trkpt>
      <trkpt lat="41.9392180" lon="-7.4470190">
        <ele>394.1</ele>
        <time>2019-08-17T10:03:27Z</time>
      </trkpt>
      <trkpt lat="41.9391800" lon="-7.4470920">
        <ele>394.0</ele>
        <time>2019-08-17T10:03:28Z</time>
      </trkpt>
      <trkpt lat="41.9391400" lon="-7.4471620">
        <ele>393.9</ele>
        <time>2019-08-17T10:03:29Z</time>
      </trkpt>
      <trkpt lat="41.9390980" lon="-7.4472290">
        <ele>393.7</ele>
        <time>2019-08-17T10:03:30Z</time>
      </trkpt>
      <trkpt lat="41.9390530" lon="-7.4472950">
        <ele>393.6</ele>
        <time>2019-08-17T10:03:31Z</time>
      </trkpt>
      <trkpt lat="41.9390080" lon="-7.4473600">
        <ele>393.6</ele>
        <time>2019-08-17T10:03:32Z</time>
      </trkpt>
      <trkpt lat="41.9389610" lon="-7.4474230">
        <ele>393.5</ele>
        <time>2019-08-17T10:03:33Z</time>
      </trkpt>
      <trkpt lat="41.9389130" lon="-7.4474860">
        <ele>393.4</ele>
        <time>2019-08-17T10:03:34Z</time>
      </trkpt>
      <trkpt lat="41.9388650" lon="-7.4475490">
        <ele>393.4</ele>
        <time>2019-08-17T10:03:35Z</time>
      </trkpt>
      <trkpt lat="41.9388180" lon="-7.4476130">
        <ele>393.3</ele>
        <time>2019-08-17T10:03:36Z</time>
      </trkpt>
      <trkpt lat="41.9387710" lon="-7.4476760">
        <ele>393.3</ele>
        <time>2019-08-17T10:03:37Z</time>
      </trkpt>
      <trkpt lat="41.9387240" lon="-7.4477400">
        <ele>393.2</ele>
        <time>2019-08-17T10:03:38Z</time>
      </trkpt>
      <trkpt lat="41.9386780" lon="-7.4478040">
        <ele>393.2</ele>
        <time>2019-08-17T10:03:39Z</time>
      </trkpt>
      <trkpt lat="41.9386310" lon="-7.4478670">
        <ele>393.2</ele>
        <time>2019-08-17T10:03:40Z</time>
      </trkpt>
      <trkpt lat="41.9385840" lon="-7.4479300">
        <ele>393.1</ele>
        <time>2019-08-17T10:03:41Z</time>
      </trkpt>
      <trkpt lat="41.9385380" lon="-7.4479930">
        <ele>393.1</ele>
        <time>2019-08-17T10:03:42Z</time>
      </trkpt>
      <trkpt lat="41.9384950" lon="-7.4480590">
        <ele>393.1</ele>
        <time>2019-08-17T10:03:43Z</time>
      </trkpt>
      <trkpt lat="41.9384550" lon="-7.4481290">
        <ele>393.1</ele>
        <time>2019-08-17T10:03:44Z</time>
      </trkpt>
      <trkpt lat="41.9384200" lon="-7.4482020">
        <ele>393.3</ele>
        <time>2019-08-17T10:03:45Z</time>
      </trkpt>
      <trkpt lat="41.9383890" lon="-7.4482790">
        <ele>393.4</ele>
        <time>2019-08-17T10:03:46Z</time>
      </trkpt>
      <trkpt lat="41.9383630" lon="-7.4483590">
        <ele>393.6</ele>
        <time>2019-08-17T10:03:47Z</time>
      </trkpt>
      <trkpt lat="41.9383420" lon="-7.4484410">
        <ele>393.8</ele>
        <time>2019-08-17T10:03:48Z</time>
      </trkpt>
      <trkpt lat="41.9383260" lon="-7.4485240">
        <ele>393.8</ele>
        <time>2019-08-17T10:03:49Z</time>
      </trkpt>
      <trkpt lat="41.9383150" lon="-7.4486060">
        <ele>393.4</ele>
        <time>2019-08-17T10:03:50Z</time>
      </trkpt>
      <trkpt lat="41.9383100" lon="-7.4486890">
        <ele>393.1</ele>
        <time>2019-08-17T10:03:51Z</time>
      </trkpt>
      <trkpt lat="41.9383080" lon="-7.4487710">
        <ele>392.7</ele>
        <time>2019-08-17T10:03:52Z</time>
      </trkpt>
      <trkpt lat="41.9383110" lon="-7.4488520">
        <ele>392.4</ele>
        <time>2019-08-17T10:03:53Z</time>
      </trkpt>
      <trkpt lat="41.9383180" lon="-7.4489330">
        <ele>392.1</ele>
        <time>2019-08-17T10:03:54Z</time>
      </trkpt>
      <trkpt lat="41.9383280" lon="-7.4490140">
        <ele>391.8</ele>
        <time>2019-08-17T10:03:55Z</time>
      </trkpt>
      <trkpt lat="41.9383400" lon="-7.4490940">
        <ele>391.5</ele>
        <time>2019-08-17T10:03:56Z</time>
      </trkpt>
      <trkpt lat="41.9383540" lon="-7.4491730">
        <ele>391.1</ele>
        <time>2019-08-17T10:03:57Z</time>
      </trkpt>
      <trkpt lat="41.9383700" lon="-7.4492520">
        <ele>390.8</ele>
        <time>2019-08-17T10:03:58Z</time>
      </trkpt>
      <trkpt lat="41.9383860" lon="-7.4493310">
        <ele>390.5</ele>
        <time>2019-08-17T10:03:59Z</time>
      </trkpt>
      <trkpt lat="41.9384040" lon="-7.4494100">
        <ele>390.3</ele>
        <time>2019-08-17T10:04:00Z</time>
      </trkpt>
      <trkpt lat="41.9384210" lon="-7.4494870">
        <ele>390.0</ele>
        <time>2019-08-17T10:04:01Z</time>
      </trkpt>
      <trkpt lat="41.9384380" lon="-7.4495650">
        <ele>389.8</ele>
        <time>2019-08-17T10:04:02Z</time>
      </trkpt>
      <trkpt lat="41.9384540" lon="-7.4496410">
        <ele>389.5</ele>
        <time>2019-08-17T10:04:03Z</time>
      </trkpt>
      <trkpt lat="41.9384700" lon="-7.4497180">
        <ele>389.3</ele>
        <time>2019-08-17T10:04:04Z</time>
      </trkpt>
      <trkpt lat="41.9384860" lon="-7.4497940">
        <ele>389.0</ele>
        <time>2019-08-17T10:04:05Z</time>
      </trkpt>
      <trkpt lat="41.9385030" lon="-7.4498700">
        <ele>388.7</ele>
        <time>2019-08-17T10:04:06Z</time>
      </trkpt>
      <trkpt lat="41.9385200" lon="-7.4499470">
        <ele>388.4</ele>
        <time>2019-08-17T10:04:07Z</time>
      </trkpt>
      <trkpt lat="41.9385380" lon="-7.4500230">
        <ele>388.2</ele>
        <time>2019-08-17T10:04:08Z</time>
      </trkpt>
      <trkpt lat="41.9385570" lon="-7.4500980">
        <ele>387.9</ele>
        <time>2019-08-17T10:04:09Z</time>
      </trkpt>
      <trkpt lat="41.9385770" lon="-7.4501710">
        <ele>387.6</ele>
        <time>2019-08-17T10:04:10Z</time>
      </trkpt>
      <trkpt lat="41.9385950" lon="-7.4502440">
        <ele>387.3</ele>
        <time>2019-08-17T10:04:11Z</time>
      </trkpt>
      <trkpt lat="41.9386120" lon="-7.4503180">
        <ele>386.9</ele>
        <time>2019-08-17T10:04:12Z</time>
      </trkpt>
      <trkpt lat="41.9386270" lon="-7.4503930">
        <ele>386.5</ele>
        <time>2019-08-17T10:04:13Z</time>
      </trkpt>
      <trkpt lat="41.9386400" lon="-7.4504700">
        <ele>386.2</ele>
        <time>2019-08-17T10:04:14Z</time>
      </trkpt>
      <trkpt lat="41.9386540" lon="-7.4505480">
        <ele>385.9</ele>
        <time>2019-08-17T10:04:15Z</time>
      </trkpt>
      <trkpt lat="41.9386680" lon="-7.4506260">
        <ele>385.6</ele>
        <time>2019-08-17T10:04:16Z</time>
      </trkpt>
      <trkpt lat="41.9386830" lon="-7.4507040">
        <ele>385.4</ele>
        <time>2019-08-17T10:04:17Z</time>
      </trkpt>
      <trkpt lat="41.9387100" lon="-7.4508340">
        <ele>385.3</ele>
        <time>2019-08-17T10:04:18Z</time>
      </trkpt>
      <trkpt lat="41.9387220" lon="-7.4508850">
        <ele>385.3</ele>
        <time>2019-08-17T10:04:19Z</time>
      </trkpt>
      <trkpt lat="41.9387330" lon="-7.4509370">
        <ele>385.3</ele>
        <time>2019-08-17T10:04:20Z</time>
      </trkpt>
      <trkpt lat="41.9387520" lon="-7.4510150">
        <ele>385.4</ele>
        <time>2019-08-17T10:04:21Z</time>
      </trkpt>
      <trkpt lat="41.9387700" lon="-7.4510940">
        <ele>385.4</ele>
        <time>2019-08-17T10:04:22Z</time>
      </trkpt>
      <trkpt lat="41.9388030" lon="-7.4512250">
        <ele>385.4</ele>
        <time>2019-08-17T10:04:23Z</time>
      </trkpt>
      <trkpt lat="41.9388170" lon="-7.4512780">
        <ele>385.3</ele>
        <time>2019-08-17T10:04:24Z</time>
      </trkpt>
      <trkpt lat="41.9388300" lon="-7.4513310">
        <ele>385.3</ele>
        <time>2019-08-17T10:04:25Z</time>
      </trkpt>
      <trkpt lat="41.9388500" lon="-7.4514110">
        <ele>385.3</ele>
        <time>2019-08-17T10:04:26Z</time>
      </trkpt>
      <trkpt lat="41.9388700" lon="-7.4514910">
        <ele>385.2</ele>
        <time>2019-08-17T10:04:27Z</time>
      </trkpt>
      <trkpt lat="41.9388910" lon="-7.4515720">
        <ele>385.2</ele>
        <time>2019-08-17T10:04:28Z</time>
      </trkpt>
      <trkpt lat="41.9389110" lon="-7.4516540">
        <ele>385.2</ele>
        <time>2019-08-17T10:04:29Z</time>
      </trkpt>
      <trkpt lat="41.9389310" lon="-7.4517360">
        <ele>385.3</ele>
        <time>2019-08-17T10:04:30Z</time>
      </trkpt>
      <trkpt lat="41.9389510" lon="-7.4518190">
        <ele>385.4</ele>
        <time>2019-08-17T10:04:31Z</time>
      </trkpt>
      <trkpt lat="41.9389710" lon="-7.4519010">
        <ele>385.4</ele>
        <time>2019-08-17T10:04:32Z</time>
      </trkpt>
      <trkpt lat="41.9389910" lon="-7.4519840">
        <ele>385.4</ele>
        <time>2019-08-17T10:04:33Z</time>
      </trkpt>
      <trkpt lat="41.9390100" lon="-7.4520660">
        <ele>385.4</ele>
        <time>2019-08-17T10:04:34Z</time>
      </trkpt>
      <trkpt lat="41.9390280" lon="-7.4521470">
        <ele>385.2</ele>
        <time>2019-08-17T10:04:35Z</time>
      </trkpt>
      <trkpt lat="41.9390460" lon="-7.4522260">
        <ele>385.0</ele>
        <time>2019-08-17T10:04:36Z</time>
      </trkpt>
      <trkpt lat="41.9390630" lon="-7.4523040">
        <ele>384.8</ele>
        <time>2019-08-17T10:04:37Z</time>
      </trkpt>
      <trkpt lat="41.9390800" lon="-7.4523810">
        <ele>384.6</ele>
        <time>2019-08-17T10:04:38Z</time>
      </trkpt>
      <trkpt lat="41.9390970" lon="-7.4524570">
        <ele>384.3</ele>
        <time>2019-08-17T10:04:39Z</time>
      </trkpt>
      <trkpt lat="41.9391130" lon="-7.4525320">
        <ele>384.4</ele>
        <time>2019-08-17T10:04:40Z</time>
      </trkpt>
      <trkpt lat="41.9391290" lon="-7.4526070">
        <ele>384.5</ele>
        <time>2019-08-17T10:04:41Z</time>
      </trkpt>
      <trkpt lat="41.9391460" lon="-7.4526830">
        <ele>384.6</ele>
        <time>2019-08-17T10:04:42Z</time>
      </trkpt>
      <trkpt lat="41.9391620" lon="-7.4527580">
        <ele>384.7</ele>
        <time>2019-08-17T10:04:43Z</time>
      </trkpt>
      <trkpt lat="41.9391790" lon="-7.4528340">
        <ele>384.8</ele>
        <time>2019-08-17T10:04:44Z</time>
      </trkpt>
      <trkpt lat="41.9391960" lon="-7.4529100">
        <ele>384.8</ele>
        <time>2019-08-17T10:04:45Z</time>
      </trkpt>
      <trkpt lat="41.9392140" lon="-7.4529870">
        <ele>384.9</ele>
        <time>2019-08-17T10:04:46Z</time>
      </trkpt>
      <trkpt lat="41.9392310" lon="-7.4530640">
        <ele>384.9</ele>
        <time>2019-08-17T10:04:47Z</time>
      </trkpt>
      <trkpt lat="41.9392490" lon="-7.4531420">
        <ele>385.0</ele>
        <time>2019-08-17T10:04:48Z</time>
      </trkpt>
      <trkpt lat="41.9392670" lon="-7.4532200">
        <ele>385.0</ele>
        <time>2019-08-17T10:04:49Z</time>
      </trkpt>
      <trkpt lat="41.9392860" lon="-7.4532990">
        <ele>384.9</ele>
        <time>2019-08-17T10:04:50Z</time>
      </trkpt>
      <trkpt lat="41.9393040" lon="-7.4533780">
        <ele>384.9</ele>
        <time>2019-08-17T10:04:51Z</time>
      </trkpt>
      <trkpt lat="41.9393230" lon="-7.4534570">
        <ele>384.9</ele>
        <time>2019-08-17T10:04:52Z</time>
      </trkpt>
      <trkpt lat="41.9393410" lon="-7.4535370">
        <ele>384.8</ele>
        <time>2019-08-17T10:04:53Z</time>
      </trkpt>
      <trkpt lat="41.9393600" lon="-7.4536180">
        <ele>384.8</ele>
        <time>2019-08-17T10:04:54Z</time>
      </trkpt>
      <trkpt lat="41.9393790" lon="-7.4536990">
        <ele>384.7</ele>
        <time>2019-08-17T10:04:55Z</time>
      </trkpt>
      <trkpt lat="41.9393980" lon="-7.4537800">
        <ele>384.7</ele>
        <time>2019-08-17T10:04:56Z</time>
      </trkpt>
      <trkpt lat="41.9394160" lon="-7.4538620">
        <ele>384.6</ele>
        <time>2019-08-17T10:04:57Z</time>
      </trkpt>
      <trkpt lat="41.9394350" lon="-7.4539440">
        <ele>384.5</ele>
        <time>2019-08-17T10:04:58Z</time>
      </trkpt>
      <trkpt lat="41.9394540" lon="-7.4540270">
        <ele>384.5</ele>
        <time>2019-08-17T10:04:59Z</time>
      </trkpt>
      <trkpt lat="41.9394730" lon="-7.4541100">
        <ele>384.3</ele>
        <time>2019-08-17T10:05:00Z</time>
      </trkpt>
      <trkpt lat="41.9394920" lon="-7.4541930">
        <ele>384.1</ele>
        <time>2019-08-17T10:05:01Z</time>
      </trkpt>
      <trkpt lat="41.9395110" lon="-7.4542760">
        <ele>384.0</ele>
        <time>2019-08-17T10:05:02Z</time>
      </trkpt>
      <trkpt lat="41.9395300" lon="-7.4543600">
        <ele>383.8</ele>
        <time>2019-08-17T10:05:03Z</time>
      </trkpt>
      <trkpt lat="41.9395490" lon="-7.4544430">
        <ele>383.8</ele>
        <time>2019-08-17T10:05:04Z</time>
      </trkpt>
      <trkpt lat="41.9395670" lon="-7.4545260">
        <ele>383.7</ele>
        <time>2019-08-17T10:05:05Z</time>
      </trkpt>
      <trkpt lat="41.9395860" lon="-7.4546090">
        <ele>383.7</ele>
        <time>2019-08-17T10:05:06Z</time>
      </trkpt>
      <trkpt lat="41.9396050" lon="-7.4546920">
        <ele>383.6</ele>
        <time>2019-08-17T10:05:07Z</time>
      </trkpt>
      <trkpt lat="41.9396240" lon="-7.4547750">
        <ele>383.6</ele>
        <time>2019-08-17T10:05:08Z</time>
      </trkpt>
      <trkpt lat="41.9396420" lon="-7.4548570">
        <ele>383.6</ele>
        <time>2019-08-17T10:05:09Z</time>
      </trkpt>
      <trkpt lat="41.9396610" lon="-7.4549390">
        <ele>383.7</ele>
        <time>2019-08-17T10:05:10Z</time>
      </trkpt>
      <trkpt lat="41.9396790" lon="-7.4550210">
        <ele>383.7</ele>
        <time>2019-08-17T10:05:11Z</time>
      </trkpt>
      <trkpt lat="41.9396980" lon="-7.4551020">
        <ele>383.8</ele>
        <time>2019-08-17T10:05:12Z</time>
      </trkpt>
      <trkpt lat="41.9397160" lon="-7.4551820">
        <ele>383.8</ele>
        <time>2019-08-17T10:05:13Z</time>
      </trkpt>
      <trkpt lat="41.9397350" lon="-7.4552630">
        <ele>383.9</ele>
        <time>2019-08-17T10:05:14Z</time>
      </trkpt>
      <trkpt lat="41.9397530" lon="-7.4553430">
        <ele>383.9</ele>
        <time>2019-08-17T10:05:15Z</time>
      </trkpt>
      <trkpt lat="41.9397710" lon="-7.4554230">
        <ele>384.2</ele>
        <time>2019-08-17T10:05:16Z</time>
      </trkpt>
      <trkpt lat="41.9397890" lon="-7.4555030">
        <ele>384.4</ele>
        <time>2019-08-17T10:05:17Z</time>
      </trkpt>
      <trkpt lat="41.9398080" lon="-7.4555820">
        <ele>384.5</ele>
        <time>2019-08-17T10:05:18Z</time>
      </trkpt>
      <trkpt lat="41.9398260" lon="-7.4556620">
        <ele>384.6</ele>
        <time>2019-08-17T10:05:19Z</time>
      </trkpt>
      <trkpt lat="41.9398440" lon="-7.4557410">
        <ele>384.7</ele>
        <time>2019-08-17T10:05:20Z</time>
      </trkpt>
      <trkpt lat="41.9398630" lon="-7.4558200">
        <ele>384.7</ele>
        <time>2019-08-17T10:05:21Z</time>
      </trkpt>
      <trkpt lat="41.9398810" lon="-7.4558990">
        <ele>384.7</ele>
        <time>2019-08-17T10:05:22Z</time>
      </trkpt>
      <trkpt lat="41.9398990" lon="-7.4559780">
        <ele>384.7</ele>
        <time>2019-08-17T10:05:23Z</time>
      </trkpt>
      <trkpt lat="41.9399180" lon="-7.4560580">
        <ele>384.7</ele>
        <time>2019-08-17T10:05:24Z</time>
      </trkpt>
      <trkpt lat="41.9399360" lon="-7.4561370">
        <ele>384.6</ele>
        <time>2019-08-17T10:05:25Z</time>
      </trkpt>
      <trkpt lat="41.9399540" lon="-7.4562160">
        <ele>384.6</ele>
        <time>2019-08-17T10:05:26Z</time>
      </trkpt>
      <trkpt lat="41.9399730" lon="-7.4562950">
        <ele>384.7</ele>
        <time>2019-08-17T10:05:27Z</time>
      </trkpt>
      <trkpt lat="41.9399910" lon="-7.4563730">
        <ele>384.8</ele>
        <time>2019-08-17T10:05:28Z</time>
      </trkpt>
      <trkpt lat="41.9400090" lon="-7.4564520">
        <ele>384.8</ele>
        <time>2019-08-17T10:05:29Z</time>
      </trkpt>
      <trkpt lat="41.9400280" lon="-7.4565300">
        <ele>384.9</ele>
        <time>2019-08-17T10:05:30Z</time>
      </trkpt>
      <trkpt lat="41.9400460" lon="-7.4566080">
        <ele>385.0</ele>
        <time>2019-08-17T10:05:31Z</time>
      </trkpt>
      <trkpt lat="41.9400640" lon="-7.4566860">
        <ele>385.0</ele>
        <time>2019-08-17T10:05:32Z</time>
      </trkpt>
      <trkpt lat="41.9400830" lon="-7.4567640">
        <ele>385.0</ele>
        <time>2019-08-17T10:05:33Z</time>
      </trkpt>
      <trkpt lat="41.9401010" lon="-7.4568410">
        <ele>385.0</ele>
        <time>2019-08-17T10:05:34Z</time>
      </trkpt>
      <trkpt lat="41.9401190" lon="-7.4569170">
        <ele>384.9</ele>
        <time>2019-08-17T10:05:35Z</time>
      </trkpt>
      <trkpt lat="41.9401370" lon="-7.4569940">
        <ele>384.9</ele>
        <time>2019-08-17T10:05:36Z</time>
      </trkpt>
      <trkpt lat="41.9401540" lon="-7.4570690">
        <ele>384.9</ele>
        <time>2019-08-17T10:05:37Z</time>
      </trkpt>
      <trkpt lat="41.9401720" lon="-7.4571450">
        <ele>384.9</ele>
        <time>2019-08-17T10:05:38Z</time>
      </trkpt>
      <trkpt lat="41.9401900" lon="-7.4572200">
        <ele>384.9</ele>
        <time>2019-08-17T10:05:39Z</time>
      </trkpt>
      <trkpt lat="41.9402070" lon="-7.4572940">
        <ele>384.9</ele>
        <time>2019-08-17T10:05:40Z</time>
      </trkpt>
      <trkpt lat="41.9402250" lon="-7.4573690">
        <ele>385.0</ele>
        <time>2019-08-17T10:05:41Z</time>
      </trkpt>
      <trkpt lat="41.9402420" lon="-7.4574430">
        <ele>385.0</ele>
        <time>2019-08-17T10:05:42Z</time>
      </trkpt>
      <trkpt lat="41.9402600" lon="-7.4575170">
        <ele>385.2</ele>
        <time>2019-08-17T10:05:43Z</time>
      </trkpt>
      <trkpt lat="41.9402770" lon="-7.4575910">
        <ele>385.2</ele>
        <time>2019-08-17T10:05:44Z</time>
      </trkpt>
      <trkpt lat="41.9402950" lon="-7.4576650">
        <ele>385.3</ele>
        <time>2019-08-17T10:05:45Z</time>
      </trkpt>
      <trkpt lat="41.9403120" lon="-7.4577390">
        <ele>385.3</ele>
        <time>2019-08-17T10:05:46Z</time>
      </trkpt>
      <trkpt lat="41.9403300" lon="-7.4578130">
        <ele>385.4</ele>
        <time>2019-08-17T10:05:47Z</time>
      </trkpt>
      <trkpt lat="41.9403470" lon="-7.4578870">
        <ele>385.4</ele>
        <time>2019-08-17T10:05:48Z</time>
      </trkpt>
      <trkpt lat="41.9403650" lon="-7.4579620">
        <ele>385.5</ele>
        <time>2019-08-17T10:05:49Z</time>
      </trkpt>
      <trkpt lat="41.9403820" lon="-7.4580370">
        <ele>385.5</ele>
        <time>2019-08-17T10:05:50Z</time>
      </trkpt>
      <trkpt lat="41.9404000" lon="-7.4581120">
        <ele>385.6</ele>
        <time>2019-08-17T10:05:51Z</time>
      </trkpt>
      <trkpt lat="41.9404180" lon="-7.4581870">
        <ele>385.6</ele>
        <time>2019-08-17T10:05:52Z</time>
      </trkpt>
      <trkpt lat="41.9404360" lon="-7.4582630">
        <ele>385.6</ele>
        <time>2019-08-17T10:05:53Z</time>
      </trkpt>
      <trkpt lat="41.9404540" lon="-7.4583400">
        <ele>385.7</ele>
        <time>2019-08-17T10:05:54Z</time>
      </trkpt>
      <trkpt lat="41.9404720" lon="-7.4584160">
        <ele>385.7</ele>
        <time>2019-08-17T10:05:55Z</time>
      </trkpt>
      <trkpt lat="41.9404900" lon="-7.4584940">
        <ele>385.8</ele>
        <time>2019-08-17T10:05:56Z</time>
      </trkpt>
      <trkpt lat="41.9405080" lon="-7.4585710">
        <ele>385.8</ele>
        <time>2019-08-17T10:05:57Z</time>
      </trkpt>
      <trkpt lat="41.9405260" lon="-7.4586500">
        <ele>385.9</ele>
        <time>2019-08-17T10:05:58Z</time>
      </trkpt>
      <trkpt lat="41.9405440" lon="-7.4587280">
        <ele>385.8</ele>
        <time>2019-08-17T10:05:59Z</time>
      </trkpt>
      <trkpt lat="41.9405620" lon="-7.4588070">
        <ele>385.7</ele>
        <time>2019-08-17T10:06:00Z</time>
      </trkpt>
      <trkpt lat="41.9405800" lon="-7.4588860">
        <ele>385.7</ele>
        <time>2019-08-17T10:06:01Z</time>
      </trkpt>
      <trkpt lat="41.9405980" lon="-7.4589650">
        <ele>385.6</ele>
        <time>2019-08-17T10:06:02Z</time>
      </trkpt>
      <trkpt lat="41.9406160" lon="-7.4590440">
        <ele>385.5</ele>
        <time>2019-08-17T10:06:03Z</time>
      </trkpt>
      <trkpt lat="41.9406330" lon="-7.4591220">
        <ele>385.5</ele>
        <time>2019-08-17T10:06:04Z</time>
      </trkpt>
      <trkpt lat="41.9406510" lon="-7.4592010">
        <ele>385.4</ele>
        <time>2019-08-17T10:06:05Z</time>
      </trkpt>
      <trkpt lat="41.9406680" lon="-7.4592790">
        <ele>385.3</ele>
        <time>2019-08-17T10:06:06Z</time>
      </trkpt>
      <trkpt lat="41.9406850" lon="-7.4593560">
        <ele>385.2</ele>
        <time>2019-08-17T10:06:07Z</time>
      </trkpt>
      <trkpt lat="41.9407030" lon="-7.4594340">
        <ele>385.1</ele>
        <time>2019-08-17T10:06:08Z</time>
      </trkpt>
      <trkpt lat="41.9407200" lon="-7.4595120">
        <ele>385.0</ele>
        <time>2019-08-17T10:06:09Z</time>
      </trkpt>
      <trkpt lat="41.9407370" lon="-7.4595890">
        <ele>384.9</ele>
        <time>2019-08-17T10:06:10Z</time>
      </trkpt>
      <trkpt lat="41.9407540" lon="-7.4596670">
        <ele>384.9</ele>
        <time>2019-08-17T10:06:11Z</time>
      </trkpt>
      <trkpt lat="41.9407720" lon="-7.4597440">
        <ele>384.9</ele>
        <time>2019-08-17T10:06:12Z</time>
      </trkpt>
      <trkpt lat="41.9407890" lon="-7.4598220">
        <ele>385.0</ele>
        <time>2019-08-17T10:06:13Z</time>
      </trkpt>
      <trkpt lat="41.9408060" lon="-7.4599000">
        <ele>385.1</ele>
        <time>2019-08-17T10:06:14Z</time>
      </trkpt>
      <trkpt lat="41.9408240" lon="-7.4599770">
        <ele>385.1</ele>
        <time>2019-08-17T10:06:15Z</time>
      </trkpt>
      <trkpt lat="41.9408420" lon="-7.4600550">
        <ele>385.2</ele>
        <time>2019-08-17T10:06:16Z</time>
      </trkpt>
      <trkpt lat="41.9408590" lon="-7.4601340">
        <ele>385.2</ele>
        <time>2019-08-17T10:06:17Z</time>
      </trkpt>
      <trkpt lat="41.9408770" lon="-7.4602120">
        <ele>385.3</ele>
        <time>2019-08-17T10:06:18Z</time>
      </trkpt>
      <trkpt lat="41.9408960" lon="-7.4602910">
        <ele>385.3</ele>
        <time>2019-08-17T10:06:19Z</time>
      </trkpt>
      <trkpt lat="41.9409140" lon="-7.4603690">
        <ele>385.4</ele>
        <time>2019-08-17T10:06:20Z</time>
      </trkpt>
      <trkpt lat="41.9409320" lon="-7.4604480">
        <ele>385.4</ele>
        <time>2019-08-17T10:06:21Z</time>
      </trkpt>
      <trkpt lat="41.9409500" lon="-7.4605270">
        <ele>385.5</ele>
        <time>2019-08-17T10:06:22Z</time>
      </trkpt>
      <trkpt lat="41.9409690" lon="-7.4606050">
        <ele>385.5</ele>
        <time>2019-08-17T10:06:23Z</time>
      </trkpt>
      <trkpt lat="41.9409870" lon="-7.4606830">
        <ele>385.6</ele>
        <time>2019-08-17T10:06:24Z</time>
      </trkpt>
      <trkpt lat="41.9410050" lon="-7.4607620">
        <ele>385.6</ele>
        <time>2019-08-17T10:06:25Z</time>
      </trkpt>
      <trkpt lat="41.9410230" lon="-7.4608390">
        <ele>385.6</ele>
        <time>2019-08-17T10:06:26Z</time>
      </trkpt>
      <trkpt lat="41.9410410" lon="-7.4609170">
        <ele>385.6</ele>
        <time>2019-08-17T10:06:27Z</time>
      </trkpt>
      <trkpt lat="41.9410590" lon="-7.4609950">
        <ele>385.6</ele>
        <time>2019-08-17T10:06:28Z</time>
      </trkpt>
      <trkpt lat="41.9410770" lon="-7.4610720">
        <ele>385.7</ele>
        <time>2019-08-17T10:06:29Z</time>
      </trkpt>
      <trkpt lat="41.9410940" lon="-7.4611490">
        <ele>385.7</ele>
        <time>2019-08-17T10:06:30Z</time>
      </trkpt>
      <trkpt lat="41.9411120" lon="-7.4612260">
        <ele>385.8</ele>
        <time>2019-08-17T10:06:31Z</time>
      </trkpt>
      <trkpt lat="41.9411300" lon="-7.4613020">
        <ele>385.8</ele>
        <time>2019-08-17T10:06:32Z</time>
      </trkpt>
      <trkpt lat="41.9411470" lon="-7.4613790">
        <ele>385.9</ele>
        <time>2019-08-17T10:06:33Z</time>
      </trkpt>
      <trkpt lat="41.9411650" lon="-7.4614550">
        <ele>385.9</ele>
        <time>2019-08-17T10:06:34Z</time>
      </trkpt>
      <trkpt lat="41.9411820" lon="-7.4615310">
        <ele>385.9</ele>
        <time>2019-08-17T10:06:35Z</time>
      </trkpt>
      <trkpt lat="41.9412000" lon="-7.4616070">
        <ele>386.0</ele>
        <time>2019-08-17T10:06:36Z</time>
      </trkpt>
      <trkpt lat="41.9412170" lon="-7.4616820">
        <ele>386.1</ele>
        <time>2019-08-17T10:06:37Z</time>
      </trkpt>
      <trkpt lat="41.9412350" lon="-7.4617580">
        <ele>386.1</ele>
        <time>2019-08-17T10:06:38Z</time>
      </trkpt>
      <trkpt lat="41.9412520" lon="-7.4618330">
        <ele>386.2</ele>
        <time>2019-08-17T10:06:39Z</time>
      </trkpt>
      <trkpt lat="41.9412690" lon="-7.4619080">
        <ele>386.3</ele>
        <time>2019-08-17T10:06:40Z</time>
      </trkpt>
      <trkpt lat="41.9412860" lon="-7.4619830">
        <ele>386.3</ele>
        <time>2019-08-17T10:06:41Z</time>
      </trkpt>
      <trkpt lat="41.9413030" lon="-7.4620570">
        <ele>386.2</ele>
        <time>2019-08-17T10:06:42Z</time>
      </trkpt>
      <trkpt lat="41.9413200" lon="-7.4621310">
        <ele>386.2</ele>
        <time>2019-08-17T10:06:43Z</time>
      </trkpt>
      <trkpt lat="41.9413370" lon="-7.4622060">
        <ele>386.2</ele>
        <time>2019-08-17T10:06:44Z</time>
      </trkpt>
      <trkpt lat="41.9413530" lon="-7.4622790">
        <ele>386.2</ele>
        <time>2019-08-17T10:06:45Z</time>
      </trkpt>
      <trkpt lat="41.9413700" lon="-7.4623530">
        <ele>386.3</ele>
        <time>2019-08-17T10:06:46Z</time>
      </trkpt>
      <trkpt lat="41.9413860" lon="-7.4624260">
        <ele>386.3</ele>
        <time>2019-08-17T10:06:47Z</time>
      </trkpt>
      <trkpt lat="41.9414030" lon="-7.4625000">
        <ele>386.4</ele>
        <time>2019-08-17T10:06:48Z</time>
      </trkpt>
      <trkpt lat="41.9414190" lon="-7.4625730">
        <ele>386.4</ele>
        <time>2019-08-17T10:06:49Z</time>
      </trkpt>
      <trkpt lat="41.9414360" lon="-7.4626460">
        <ele>386.4</ele>
        <time>2019-08-17T10:06:50Z</time>
      </trkpt>
      <trkpt lat="41.9414520" lon="-7.4627200">
        <ele>386.5</ele>
        <time>2019-08-17T10:06:51Z</time>
      </trkpt>
      <trkpt lat="41.9414680" lon="-7.4627930">
        <ele>386.5</ele>
        <time>2019-08-17T10:06:52Z</time>
      </trkpt>
      <trkpt lat="41.9414850" lon="-7.4628670">
        <ele>386.5</ele>
        <time>2019-08-17T10:06:53Z</time>
      </trkpt>
      <trkpt lat="41.9415010" lon="-7.4629410">
        <ele>386.5</ele>
        <time>2019-08-17T10:06:54Z</time>
      </trkpt>
      <trkpt lat="41.9415180" lon="-7.4630150">
        <ele>386.5</ele>
        <time>2019-08-17T10:06:55Z</time>
      </trkpt>
      <trkpt lat="41.9415350" lon="-7.4630890">
        <ele>386.5</ele>
        <time>2019-08-17T10:06:56Z</time>
      </trkpt>
      <trkpt lat="41.9415510" lon="-7.4631640">
        <ele>386.5</ele>
        <time>2019-08-17T10:06:57Z</time>
      </trkpt>
      <trkpt lat="41.9415680" lon="-7.4632390">
        <ele>386.5</ele>
        <time>2019-08-17T10:06:58Z</time>
      </trkpt>
      <trkpt lat="41.9415850" lon="-7.4633140">
        <ele>386.5</ele>
        <time>2019-08-17T10:06:59Z</time>
      </trkpt>
      <trkpt lat="41.9416030" lon="-7.4633900">
        <ele>386.6</ele>
        <time>2019-08-17T10:07:00Z</time>
      </trkpt>
      <trkpt lat="41.9416200" lon="-7.4634660">
        <ele>386.6</ele>
        <time>2019-08-17T10:07:01Z</time>
      </trkpt>
      <trkpt lat="41.9416370" lon="-7.4635420">
        <ele>386.7</ele>
        <time>2019-08-17T10:07:02Z</time>
      </trkpt>
      <trkpt lat="41.9416550" lon="-7.4636200">
        <ele>386.8</ele>
        <time>2019-08-17T10:07:03Z</time>
      </trkpt>
      <trkpt lat="41.9416730" lon="-7.4636970">
        <ele>386.8</ele>
        <time>2019-08-17T10:07:04Z</time>
      </trkpt>
      <trkpt lat="41.9416900" lon="-7.4637750">
        <ele>386.9</ele>
        <time>2019-08-17T10:07:05Z</time>
      </trkpt>
      <trkpt lat="41.9417080" lon="-7.4638530">
        <ele>386.9</ele>
        <time>2019-08-17T10:07:06Z</time>
      </trkpt>
      <trkpt lat="41.9417260" lon="-7.4639320">
        <ele>386.9</ele>
        <time>2019-08-17T10:07:07Z</time>
      </trkpt>
      <trkpt lat="41.9417440" lon="-7.4640120">
        <ele>386.9</ele>
        <time>2019-08-17T10:07:08Z</time>
      </trkpt>
      <trkpt lat="41.9417620" lon="-7.4640920">
        <ele>386.9</ele>
        <time>2019-08-17T10:07:09Z</time>
      </trkpt>
      <trkpt lat="41.9417800" lon="-7.4641720">
        <ele>386.9</ele>
        <time>2019-08-17T10:07:10Z</time>
      </trkpt>
      <trkpt lat="41.9417980" lon="-7.4642530">
        <ele>386.7</ele>
        <time>2019-08-17T10:07:11Z</time>
      </trkpt>
      <trkpt lat="41.9418160" lon="-7.4643350">
        <ele>386.8</ele>
        <time>2019-08-17T10:07:12Z</time>
      </trkpt>
      <trkpt lat="41.9418340" lon="-7.4644170">
        <ele>386.6</ele>
        <time>2019-08-17T10:07:13Z</time>
      </trkpt>
      <trkpt lat="41.9418530" lon="-7.4644990">
        <ele>386.7</ele>
        <time>2019-08-17T10:07:14Z</time>
      </trkpt>
      <trkpt lat="41.9418710" lon="-7.4645820">
        <ele>386.6</ele>
        <time>2019-08-17T10:07:15Z</time>
      </trkpt>
      <trkpt lat="41.9418890" lon="-7.4646660">
        <ele>386.6</ele>
        <time>2019-08-17T10:07:16Z</time>
      </trkpt>
      <trkpt lat="41.9419080" lon="-7.4647500">
        <ele>386.7</ele>
        <time>2019-08-17T10:07:17Z</time>
      </trkpt>
      <trkpt lat="41.9419260" lon="-7.4648340">
        <ele>386.8</ele>
        <time>2019-08-17T10:07:18Z</time>
      </trkpt>
      <trkpt lat="41.9419450" lon="-7.4649180">
        <ele>386.9</ele>
        <time>2019-08-17T10:07:19Z</time>
      </trkpt>
      <trkpt lat="41.9419630" lon="-7.4650030">
        <ele>387.1</ele>
        <time>2019-08-17T10:07:20Z</time>
      </trkpt>
      <trkpt lat="41.9419820" lon="-7.4650890">
        <ele>387.5</ele>
        <time>2019-08-17T10:07:21Z</time>
      </trkpt>
      <trkpt lat="41.9420000" lon="-7.4651740">
        <ele>387.9</ele>
        <time>2019-08-17T10:07:22Z</time>
      </trkpt>
      <trkpt lat="41.9420190" lon="-7.4652600">
        <ele>388.0</ele>
        <time>2019-08-17T10:07:23Z</time>
      </trkpt>
      <trkpt lat="41.9420380" lon="-7.4653460">
        <ele>388.1</ele>
        <time>2019-08-17T10:07:24Z</time>
      </trkpt>
      <trkpt lat="41.9420560" lon="-7.4654320">
        <ele>388.2</ele>
        <time>2019-08-17T10:07:25Z</time>
      </trkpt>
      <trkpt lat="41.9420750" lon="-7.4655190">
        <ele>388.3</ele>
        <time>2019-08-17T10:07:26Z</time>
      </trkpt>
      <trkpt lat="41.9420940" lon="-7.4656050">
        <ele>388.3</ele>
        <time>2019-08-17T10:07:27Z</time>
      </trkpt>
      <trkpt lat="41.9421130" lon="-7.4656920">
        <ele>388.4</ele>
        <time>2019-08-17T10:07:28Z</time>
      </trkpt>
      <trkpt lat="41.9421320" lon="-7.4657790">
        <ele>388.5</ele>
        <time>2019-08-17T10:07:29Z</time>
      </trkpt>
      <trkpt lat="41.9421510" lon="-7.4658660">
        <ele>388.3</ele>
        <time>2019-08-17T10:07:30Z</time>
      </trkpt>
      <trkpt lat="41.9421700" lon="-7.4659540">
        <ele>388.1</ele>
        <time>2019-08-17T10:07:31Z</time>
      </trkpt>
      <trkpt lat="41.9421890" lon="-7.4660420">
        <ele>388.0</ele>
        <time>2019-08-17T10:07:32Z</time>
      </trkpt>
      <trkpt lat="41.9422090" lon="-7.4661300">
        <ele>387.8</ele>
        <time>2019-08-17T10:07:33Z</time>
      </trkpt>
      <trkpt lat="41.9422280" lon="-7.4662190">
        <ele>387.7</ele>
        <time>2019-08-17T10:07:34Z</time>
      </trkpt>
      <trkpt lat="41.9422470" lon="-7.4663080">
        <ele>387.6</ele>
        <time>2019-08-17T10:07:35Z</time>
      </trkpt>
      <trkpt lat="41.9422670" lon="-7.4663970">
        <ele>387.5</ele>
        <time>2019-08-17T10:07:36Z</time>
      </trkpt>
      <trkpt lat="41.9422860" lon="-7.4664860">
        <ele>387.3</ele>
        <time>2019-08-17T10:07:37Z</time>
      </trkpt>
      <trkpt lat="41.9423060" lon="-7.4665760">
        <ele>387.2</ele>
        <time>2019-08-17T10:07:38Z</time>
      </trkpt>
      <trkpt lat="41.9423250" lon="-7.4666660">
        <ele>387.1</ele>
        <time>2019-08-17T10:07:39Z</time>
      </trkpt>
      <trkpt lat="41.9423450" lon="-7.4667570">
        <ele>387.0</ele>
        <time>2019-08-17T10:07:40Z</time>
      </trkpt>
      <trkpt lat="41.9423640" lon="-7.4668480">
        <ele>386.9</ele>
        <time>2019-08-17T10:07:41Z</time>
      </trkpt>
      <trkpt lat="41.9423840" lon="-7.4669390">
        <ele>386.8</ele>
        <time>2019-08-17T10:07:42Z</time>
      </trkpt>
      <trkpt lat="41.9424040" lon="-7.4670300">
        <ele>386.8</ele>
        <time>2019-08-17T10:07:43Z</time>
      </trkpt>
      <trkpt lat="41.9424230" lon="-7.4671210">
        <ele>386.7</ele>
        <time>2019-08-17T10:07:44Z</time>
      </trkpt>
      <trkpt lat="41.9424430" lon="-7.4672120">
        <ele>386.7</ele>
        <time>2019-08-17T10:07:45Z</time>
      </trkpt>
      <trkpt lat="41.9424620" lon="-7.4673040">
        <ele>386.6</ele>
        <time>2019-08-17T10:07:46Z</time>
      </trkpt>
      <trkpt lat="41.9424820" lon="-7.4673950">
        <ele>386.6</ele>
        <time>2019-08-17T10:07:47Z</time>
      </trkpt>
      <trkpt lat="41.9425010" lon="-7.4674860">
        <ele>386.6</ele>
        <time>2019-08-17T10:07:48Z</time>
      </trkpt>
      <trkpt lat="41.9425200" lon="-7.4675760">
        <ele>386.6</ele>
        <time>2019-08-17T10:07:49Z</time>
      </trkpt>
      <trkpt lat="41.9425390" lon="-7.4676670">
        <ele>386.5</ele>
        <time>2019-08-17T10:07:50Z</time>
      </trkpt>
      <trkpt lat="41.9425580" lon="-7.4677570">
        <ele>386.5</ele>
        <time>2019-08-17T10:07:51Z</time>
      </trkpt>
      <trkpt lat="41.9425770" lon="-7.4678470">
        <ele>386.5</ele>
        <time>2019-08-17T10:07:52Z</time>
      </trkpt>
      <trkpt lat="41.9425960" lon="-7.4679360">
        <ele>386.5</ele>
        <time>2019-08-17T10:07:53Z</time>
      </trkpt>
      <trkpt lat="41.9426140" lon="-7.4680250">
        <ele>386.5</ele>
        <time>2019-08-17T10:07:54Z</time>
      </trkpt>
      <trkpt lat="41.9426320" lon="-7.4681130">
        <ele>386.4</ele>
        <time>2019-08-17T10:07:55Z</time>
      </trkpt>
      <trkpt lat="41.9426510" lon="-7.4682010">
        <ele>386.4</ele>
        <time>2019-08-17T10:07:56Z</time>
      </trkpt>
      <trkpt lat="41.9426690" lon="-7.4682890">
        <ele>386.3</ele>
        <time>2019-08-17T10:07:57Z</time>
      </trkpt>
      <trkpt lat="41.9426870" lon="-7.4683750">
        <ele>386.2</ele>
        <time>2019-08-17T10:07:58Z</time>
      </trkpt>
      <trkpt lat="41.9427050" lon="-7.4684610">
        <ele>386.2</ele>
        <time>2019-08-17T10:07:59Z</time>
      </trkpt>
      <trkpt lat="41.9427220" lon="-7.4685470">
        <ele>386.1</ele>
        <time>2019-08-17T10:08:00Z</time>
      </trkpt>
      <trkpt lat="41.9427400" lon="-7.4686320">
        <ele>386.0</ele>
        <time>2019-08-17T10:08:01Z</time>
      </trkpt>
      <trkpt lat="41.9427570" lon="-7.4687160">
        <ele>386.1</ele>
        <time>2019-08-17T10:08:02Z</time>
      </trkpt>
      <trkpt lat="41.9427750" lon="-7.4687990">
        <ele>386.1</ele>
        <time>2019-08-17T10:08:03Z</time>
      </trkpt>
      <trkpt lat="41.9427920" lon="-7.4688820">
        <ele>386.2</ele>
        <time>2019-08-17T10:08:04Z</time>
      </trkpt>
      <trkpt lat="41.9428090" lon="-7.4689630">
        <ele>386.3</ele>
        <time>2019-08-17T10:08:05Z</time>
      </trkpt>
      <trkpt lat="41.9428260" lon="-7.4690440">
        <ele>386.3</ele>
        <time>2019-08-17T10:08:06Z</time>
      </trkpt>
      <trkpt lat="41.9428430" lon="-7.4691240">
        <ele>386.4</ele>
        <time>2019-08-17T10:08:07Z</time>
      </trkpt>
      <trkpt lat="41.9428600" lon="-7.4692040">
        <ele>386.5</ele>
        <time>2019-08-17T10:08:08Z</time>
      </trkpt>
      <trkpt lat="41.9428770" lon="-7.4692830">
        <ele>386.6</ele>
        <time>2019-08-17T10:08:09Z</time>
      </trkpt>
      <trkpt lat="41.9428930" lon="-7.4693610">
        <ele>386.6</ele>
        <time>2019-08-17T10:08:10Z</time>
      </trkpt>
      <trkpt lat="41.9429100" lon="-7.4694390">
        <ele>386.7</ele>
        <time>2019-08-17T10:08:11Z</time>
      </trkpt>
      <trkpt lat="41.9429270" lon="-7.4695160">
        <ele>386.7</ele>
        <time>2019-08-17T10:08:12Z</time>
      </trkpt>
      <trkpt lat="41.9429440" lon="-7.4695930">
        <ele>386.8</ele>
        <time>2019-08-17T10:08:13Z</time>
      </trkpt>
      <trkpt lat="41.9429610" lon="-7.4696700">
        <ele>386.9</ele>
        <time>2019-08-17T10:08:14Z</time>
      </trkpt>
      <trkpt lat="41.9429780" lon="-7.4697460">
        <ele>386.9</ele>
        <time>2019-08-17T10:08:15Z</time>
      </trkpt>
      <trkpt lat="41.9429950" lon="-7.4698230">
        <ele>387.0</ele>
        <time>2019-08-17T10:08:16Z</time>
      </trkpt>
      <trkpt lat="41.9430120" lon="-7.4698990">
        <ele>387.1</ele>
        <time>2019-08-17T10:08:17Z</time>
      </trkpt>
      <trkpt lat="41.9430290" lon="-7.4699750">
        <ele>387.3</ele>
        <time>2019-08-17T10:08:18Z</time>
      </trkpt>
      <trkpt lat="41.9430470" lon="-7.4700520">
        <ele>387.4</ele>
        <time>2019-08-17T10:08:19Z</time>
      </trkpt>
      <trkpt lat="41.9430640" lon="-7.4701280">
        <ele>387.5</ele>
        <time>2019-08-17T10:08:20Z</time>
      </trkpt>
      <trkpt lat="41.9430820" lon="-7.4702050">
        <ele>387.6</ele>
        <time>2019-08-17T10:08:21Z</time>
      </trkpt>
      <trkpt lat="41.9430990" lon="-7.4702820">
        <ele>387.7</ele>
        <time>2019-08-17T10:08:22Z</time>
      </trkpt>
      <trkpt lat="41.9431170" lon="-7.4703590">
        <ele>387.9</ele>
        <time>2019-08-17T10:08:23Z</time>
      </trkpt>
      <trkpt lat="41.9431350" lon="-7.4704360">
        <ele>388.0</ele>
        <time>2019-08-17T10:08:24Z</time>
      </trkpt>
      <trkpt lat="41.9431530" lon="-7.4705130">
        <ele>388.1</ele>
        <time>2019-08-17T10:08:25Z</time>
      </trkpt>
      <trkpt lat="41.9431710" lon="-7.4705910">
        <ele>388.2</ele>
        <time>2019-08-17T10:08:26Z</time>
      </trkpt>
      <trkpt lat="41.9431890" lon="-7.4706690">
        <ele>388.4</ele>
        <time>2019-08-17T10:08:27Z</time>
      </trkpt>
      <trkpt lat="41.9432070" lon="-7.4707470">
        <ele>388.5</ele>
        <time>2019-08-17T10:08:28Z</time>
      </trkpt>
      <trkpt lat="41.9432250" lon="-7.4708260">
        <ele>388.7</ele>
        <time>2019-08-17T10:08:29Z</time>
      </trkpt>
      <trkpt lat="41.9432430" lon="-7.4709040">
        <ele>388.8</ele>
        <time>2019-08-17T10:08:30Z</time>
      </trkpt>
      <trkpt lat="41.9432610" lon="-7.4709840">
        <ele>389.0</ele>
        <time>2019-08-17T10:08:31Z</time>
      </trkpt>
      <trkpt lat="41.9432790" lon="-7.4710630">
        <ele>389.1</ele>
        <time>2019-08-17T10:08:32Z</time>
      </trkpt>
      <trkpt lat="41.9432970" lon="-7.4711430">
        <ele>389.3</ele>
        <time>2019-08-17T10:08:33Z</time>
      </trkpt>
      <trkpt lat="41.9433140" lon="-7.4712230">
        <ele>389.5</ele>
        <time>2019-08-17T10:08:34Z</time>
      </trkpt>
      <trkpt lat="41.9433320" lon="-7.4713040">
        <ele>389.6</ele>
        <time>2019-08-17T10:08:35Z</time>
      </trkpt>
      <trkpt lat="41.9433500" lon="-7.4713840">
        <ele>389.8</ele>
        <time>2019-08-17T10:08:36Z</time>
      </trkpt>
      <trkpt lat="41.9433670" lon="-7.4714650">
        <ele>389.9</ele>
        <time>2019-08-17T10:08:37Z</time>
      </trkpt>
      <trkpt lat="41.9433850" lon="-7.4715460">
        <ele>390.1</ele>
        <time>2019-08-17T10:08:38Z</time>
      </trkpt>
      <trkpt lat="41.9434020" lon="-7.4716270">
        <ele>390.3</ele>
        <time>2019-08-17T10:08:39Z</time>
      </trkpt>
      <trkpt lat="41.9434190" lon="-7.4717070">
        <ele>390.5</ele>
        <time>2019-08-17T10:08:40Z</time>
      </trkpt>
      <trkpt lat="41.9434370" lon="-7.4717870">
        <ele>390.7</ele>
        <time>2019-08-17T10:08:41Z</time>
      </trkpt>
      <trkpt lat="41.9434540" lon="-7.4718670">
        <ele>390.8</ele>
        <time>2019-08-17T10:08:42Z</time>
      </trkpt>
      <trkpt lat="41.9434710" lon="-7.4719470">
        <ele>391.0</ele>
        <time>2019-08-17T10:08:43Z</time>
      </trkpt>
      <trkpt lat="41.9434880" lon="-7.4720260">
        <ele>391.1</ele>
        <time>2019-08-17T10:08:44Z</time>
      </trkpt>
      <trkpt lat="41.9435050" lon="-7.4721050">
        <ele>391.4</ele>
        <time>2019-08-17T10:08:45Z</time>
      </trkpt>
      <trkpt lat="41.9435220" lon="-7.4721830">
        <ele>391.4</ele>
        <time>2019-08-17T10:08:46Z</time>
      </trkpt>
      <trkpt lat="41.9435390" lon="-7.4722600">
        <ele>391.5</ele>
        <time>2019-08-17T10:08:47Z</time>
      </trkpt>
      <trkpt lat="41.9435550" lon="-7.4723370">
        <ele>391.5</ele>
        <time>2019-08-17T10:08:48Z</time>
      </trkpt>
      <trkpt lat="41.9435720" lon="-7.4724140">
        <ele>391.6</ele>
        <time>2019-08-17T10:08:49Z</time>
      </trkpt>
      <trkpt lat="41.9435890" lon="-7.4724900">
        <ele>391.6</ele>
        <time>2019-08-17T10:08:50Z</time>
      </trkpt>
      <trkpt lat="41.9436060" lon="-7.4725660">
        <ele>391.6</ele>
        <time>2019-08-17T10:08:51Z</time>
      </trkpt>
      <trkpt lat="41.9436230" lon="-7.4726420">
        <ele>391.7</ele>
        <time>2019-08-17T10:08:52Z</time>
      </trkpt>
      <trkpt lat="41.9436400" lon="-7.4727180">
        <ele>391.7</ele>
        <time>2019-08-17T10:08:53Z</time>
      </trkpt>
      <trkpt lat="41.9436570" lon="-7.4727930">
        <ele>391.8</ele>
        <time>2019-08-17T10:08:54Z</time>
      </trkpt>
      <trkpt lat="41.9436740" lon="-7.4728690">
        <ele>391.9</ele>
        <time>2019-08-17T10:08:55Z</time>
      </trkpt>
      <trkpt lat="41.9436910" lon="-7.4729450">
        <ele>392.0</ele>
        <time>2019-08-17T10:08:56Z</time>
      </trkpt>
      <trkpt lat="41.9437090" lon="-7.4730210">
        <ele>392.0</ele>
        <time>2019-08-17T10:08:57Z</time>
      </trkpt>
      <trkpt lat="41.9437260" lon="-7.4730980">
        <ele>392.1</ele>
        <time>2019-08-17T10:08:58Z</time>
      </trkpt>
      <trkpt lat="41.9437430" lon="-7.4731750">
        <ele>392.2</ele>
        <time>2019-08-17T10:08:59Z</time>
      </trkpt>
      <trkpt lat="41.9437600" lon="-7.4732520">
        <ele>392.3</ele>
        <time>2019-08-17T10:09:00Z</time>
      </trkpt>
      <trkpt lat="41.9437780" lon="-7.4733300">
        <ele>392.4</ele>
        <time>2019-08-17T10:09:01Z</time>
      </trkpt>
      <trkpt lat="41.9437950" lon="-7.4734090">
        <ele>392.5</ele>
        <time>2019-08-17T10:09:02Z</time>
      </trkpt>
      <trkpt lat="41.9438120" lon="-7.4734880">
        <ele>392.6</ele>
        <time>2019-08-17T10:09:03Z</time>
      </trkpt>
      <trkpt lat="41.9438300" lon="-7.4735690">
        <ele>392.7</ele>
        <time>2019-08-17T10:09:04Z</time>
      </trkpt>
      <trkpt lat="41.9438480" lon="-7.4736510">
        <ele>392.8</ele>
        <time>2019-08-17T10:09:05Z</time>
      </trkpt>
      <trkpt lat="41.9438660" lon="-7.4737350">
        <ele>392.9</ele>
        <time>2019-08-17T10:09:06Z</time>
      </trkpt>
      <trkpt lat="41.9438840" lon="-7.4738200">
        <ele>393.0</ele>
        <time>2019-08-17T10:09:07Z</time>
      </trkpt>
      <trkpt lat="41.9439030" lon="-7.4739070">
        <ele>393.1</ele>
        <time>2019-08-17T10:09:08Z</time>
      </trkpt>
      <trkpt lat="41.9439220" lon="-7.4739940">
        <ele>393.1</ele>
        <time>2019-08-17T10:09:09Z</time>
      </trkpt>
      <trkpt lat="41.9439410" lon="-7.4740830">
        <ele>393.2</ele>
        <time>2019-08-17T10:09:10Z</time>
      </trkpt>
      <trkpt lat="41.9439610" lon="-7.4741720">
        <ele>393.2</ele>
        <time>2019-08-17T10:09:11Z</time>
      </trkpt>
      <trkpt lat="41.9439810" lon="-7.4742610">
        <ele>393.2</ele>
        <time>2019-08-17T10:09:12Z</time>
      </trkpt>
      <trkpt lat="41.9440010" lon="-7.4743510">
        <ele>393.3</ele>
        <time>2019-08-17T10:09:13Z</time>
      </trkpt>
      <trkpt lat="41.9440210" lon="-7.4744410">
        <ele>393.3</ele>
        <time>2019-08-17T10:09:14Z</time>
      </trkpt>
      <trkpt lat="41.9440410" lon="-7.4745300">
        <ele>393.4</ele>
        <time>2019-08-17T10:09:15Z</time>
      </trkpt>
      <trkpt lat="41.9440620" lon="-7.4746190">
        <ele>393.4</ele>
        <time>2019-08-17T10:09:16Z</time>
      </trkpt>
      <trkpt lat="41.9440820" lon="-7.4747070">
        <ele>393.4</ele>
        <time>2019-08-17T10:09:17Z</time>
      </trkpt>
      <trkpt lat="41.9441010" lon="-7.4747950">
        <ele>393.4</ele>
        <time>2019-08-17T10:09:18Z</time>
      </trkpt>
      <trkpt lat="41.9441200" lon="-7.4748810">
        <ele>393.4</ele>
        <time>2019-08-17T10:09:19Z</time>
      </trkpt>
      <trkpt lat="41.9441390" lon="-7.4749650">
        <ele>393.4</ele>
        <time>2019-08-17T10:09:20Z</time>
      </trkpt>
      <trkpt lat="41.9441570" lon="-7.4750490">
        <ele>393.4</ele>
        <time>2019-08-17T10:09:21Z</time>
      </trkpt>
      <trkpt lat="41.9441740" lon="-7.4751310">
        <ele>393.4</ele>
        <time>2019-08-17T10:09:22Z</time>
      </trkpt>
      <trkpt lat="41.9441910" lon="-7.4752130">
        <ele>393.4</ele>
        <time>2019-08-17T10:09:23Z</time>
      </trkpt>
      <trkpt lat="41.9442080" lon="-7.4752940">
        <ele>393.4</ele>
        <time>2019-08-17T10:09:24Z</time>
      </trkpt>
      <trkpt lat="41.9442240" lon="-7.4753750">
        <ele>393.5</ele>
        <time>2019-08-17T10:09:25Z</time>
      </trkpt>
      <trkpt lat="41.9442410" lon="-7.4754560">
        <ele>393.5</ele>
        <time>2019-08-17T10:09:26Z</time>
      </trkpt>
      <trkpt lat="41.9442570" lon="-7.4755370">
        <ele>393.5</ele>
        <time>2019-08-17T10:09:27Z</time>
      </trkpt>
      <trkpt lat="41.9442730" lon="-7.4756180">
        <ele>393.6</ele>
        <time>2019-08-17T10:09:28Z</time>
      </trkpt>
      <trkpt lat="41.9442890" lon="-7.4756990">
        <ele>393.7</ele>
        <time>2019-08-17T10:09:29Z</time>
      </trkpt>
      <trkpt lat="41.9443040" lon="-7.4757810">
        <ele>393.7</ele>
        <time>2019-08-17T10:09:30Z</time>
      </trkpt>
      <trkpt lat="41.9443200" lon="-7.4758620">
        <ele>393.8</ele>
        <time>2019-08-17T10:09:31Z</time>
      </trkpt>
      <trkpt lat="41.9443350" lon="-7.4759440">
        <ele>393.8</ele>
        <time>2019-08-17T10:09:32Z</time>
      </trkpt>
      <trkpt lat="41.9443500" lon="-7.4760260">
        <ele>393.9</ele>
        <time>2019-08-17T10:09:33Z</time>
      </trkpt>
      <trkpt lat="41.9443650" lon="-7.4761080">
        <ele>393.9</ele>
        <time>2019-08-17T10:09:34Z</time>
      </trkpt>
      <trkpt lat="41.9443800" lon="-7.4761900">
        <ele>394.0</ele>
        <time>2019-08-17T10:09:35Z</time>
      </trkpt>
      <trkpt lat="41.9443940" lon="-7.4762720">
        <ele>394.0</ele>
        <time>2019-08-17T10:09:36Z</time>
      </trkpt>
      <trkpt lat="41.9444080" lon="-7.4763530">
        <ele>394.0</ele>
        <time>2019-08-17T10:09:37Z</time>
      </trkpt>
      <trkpt lat="41.9444220" lon="-7.4764340">
        <ele>394.0</ele>
        <time>2019-08-17T10:09:38Z</time>
      </trkpt>
      <trkpt lat="41.9444350" lon="-7.4765150">
        <ele>394.0</ele>
        <time>2019-08-17T10:09:39Z</time>
      </trkpt>
      <trkpt lat="41.9444490" lon="-7.4765950">
        <ele>394.1</ele>
        <time>2019-08-17T10:09:40Z</time>
      </trkpt>
      <trkpt lat="41.9444620" lon="-7.4766750">
        <ele>394.3</ele>
        <time>2019-08-17T10:09:41Z</time>
      </trkpt>
      <trkpt lat="41.9444760" lon="-7.4767540">
        <ele>394.5</ele>
        <time>2019-08-17T10:09:42Z</time>
      </trkpt>
      <trkpt lat="41.9444890" lon="-7.4768320">
        <ele>394.7</ele>
        <time>2019-08-17T10:09:43Z</time>
      </trkpt>
      <trkpt lat="41.9445020" lon="-7.4769100">
        <ele>395.0</ele>
        <time>2019-08-17T10:09:44Z</time>
      </trkpt>
      <trkpt lat="41.9445150" lon="-7.4769880">
        <ele>395.3</ele>
        <time>2019-08-17T10:09:45Z</time>
      </trkpt>
      <trkpt lat="41.9445270" lon="-7.4770650">
        <ele>395.5</ele>
        <time>2019-08-17T10:09:46Z</time>
      </trkpt>
      <trkpt lat="41.9445400" lon="-7.4771410">
        <ele>395.6</ele>
        <time>2019-08-17T10:09:47Z</time>
      </trkpt>
      <trkpt lat="41.9445530" lon="-7.4772170">
        <ele>395.8</ele>
        <time>2019-08-17T10:09:48Z</time>
      </trkpt>
      <trkpt lat="41.9445650" lon="-7.4772930">
        <ele>395.8</ele>
        <time>2019-08-17T10:09:49Z</time>
      </trkpt>
      <trkpt lat="41.9445770" lon="-7.4773680">
        <ele>395.9</ele>
        <time>2019-08-17T10:09:50Z</time>
      </trkpt>
      <trkpt lat="41.9445900" lon="-7.4774420">
        <ele>395.9</ele>
        <time>2019-08-17T10:09:51Z</time>
      </trkpt>
      <trkpt lat="41.9446020" lon="-7.4775160">
        <ele>395.9</ele>
        <time>2019-08-17T10:09:52Z</time>
      </trkpt>
      <trkpt lat="41.9446140" lon="-7.4775900">
        <ele>395.9</ele>
        <time>2019-08-17T10:09:53Z</time>
      </trkpt>
      <trkpt lat="41.9446260" lon="-7.4776630">
        <ele>395.9</ele>
        <time>2019-08-17T10:09:54Z</time>
      </trkpt>
      <trkpt lat="41.9446380" lon="-7.4777360">
        <ele>395.9</ele>
        <time>2019-08-17T10:09:55Z</time>
      </trkpt>
      <trkpt lat="41.9446490" lon="-7.4778090">
        <ele>395.9</ele>
        <time>2019-08-17T10:09:56Z</time>
      </trkpt>
      <trkpt lat="41.9446620" lon="-7.4778810">
        <ele>395.9</ele>
        <time>2019-08-17T10:09:57Z</time>
      </trkpt>
      <trkpt lat="41.9446740" lon="-7.4779530">
        <ele>395.9</ele>
        <time>2019-08-17T10:09:58Z</time>
      </trkpt>
      <trkpt lat="41.9446870" lon="-7.4780250">
        <ele>395.9</ele>
        <time>2019-08-17T10:09:59Z</time>
      </trkpt>
      <trkpt lat="41.9447000" lon="-7.4780970">
        <ele>395.9</ele>
        <time>2019-08-17T10:10:00Z</time>
      </trkpt>
      <trkpt lat="41.9447130" lon="-7.4781700">
        <ele>395.9</ele>
        <time>2019-08-17T10:10:01Z</time>
      </trkpt>
      <trkpt lat="41.9447280" lon="-7.4782420">
        <ele>395.9</ele>
        <time>2019-08-17T10:10:02Z</time>
      </trkpt>
      <trkpt lat="41.9447420" lon="-7.4783140">
        <ele>395.9</ele>
        <time>2019-08-17T10:10:03Z</time>
      </trkpt>
      <trkpt lat="41.9447570" lon="-7.4783870">
        <ele>395.8</ele>
        <time>2019-08-17T10:10:04Z</time>
      </trkpt>
      <trkpt lat="41.9447710" lon="-7.4784600">
        <ele>395.8</ele>
        <time>2019-08-17T10:10:05Z</time>
      </trkpt>
      <trkpt lat="41.9447860" lon="-7.4785320">
        <ele>395.7</ele>
        <time>2019-08-17T10:10:06Z</time>
      </trkpt>
      <trkpt lat="41.9448010" lon="-7.4786050">
        <ele>395.6</ele>
        <time>2019-08-17T10:10:07Z</time>
      </trkpt>
      <trkpt lat="41.9448160" lon="-7.4786780">
        <ele>395.5</ele>
        <time>2019-08-17T10:10:08Z</time>
      </trkpt>
      <trkpt lat="41.9448310" lon="-7.4787500">
        <ele>395.4</ele>
        <time>2019-08-17T10:10:09Z</time>
      </trkpt>
      <trkpt lat="41.9448460" lon="-7.4788230">
        <ele>395.3</ele>
        <time>2019-08-17T10:10:10Z</time>
      </trkpt>
      <trkpt lat="41.9448610" lon="-7.4788960">
        <ele>395.2</ele>
        <time>2019-08-17T10:10:11Z</time>
      </trkpt>
      <trkpt lat="41.9448760" lon="-7.4789690">
        <ele>395.0</ele>
        <time>2019-08-17T10:10:12Z</time>
      </trkpt>
      <trkpt lat="41.9448910" lon="-7.4790420">
        <ele>394.9</ele>
        <time>2019-08-17T10:10:13Z</time>
      </trkpt>
      <trkpt lat="41.9449060" lon="-7.4791150">
        <ele>394.7</ele>
        <time>2019-08-17T10:10:14Z</time>
      </trkpt>
      <trkpt lat="41.9449210" lon="-7.4791880">
        <ele>394.6</ele>
        <time>2019-08-17T10:10:15Z</time>
      </trkpt>
      <trkpt lat="41.9449370" lon="-7.4792620">
        <ele>394.5</ele>
        <time>2019-08-17T10:10:16Z</time>
      </trkpt>
      <trkpt lat="41.9449520" lon="-7.4793350">
        <ele>394.3</ele>
        <time>2019-08-17T10:10:17Z</time>
      </trkpt>
      <trkpt lat="41.9449670" lon="-7.4794090">
        <ele>394.2</ele>
        <time>2019-08-17T10:10:18Z</time>
      </trkpt>
      <trkpt lat="41.9449830" lon="-7.4794830">
        <ele>394.1</ele>
        <time>2019-08-17T10:10:19Z</time>
      </trkpt>
      <trkpt lat="41.9449980" lon="-7.4795570">
        <ele>394.1</ele>
        <time>2019-08-17T10:10:20Z</time>
      </trkpt>
      <trkpt lat="41.9450140" lon="-7.4796320">
        <ele>394.0</ele>
        <time>2019-08-17T10:10:21Z</time>
      </trkpt>
      <trkpt lat="41.9450290" lon="-7.4797060">
        <ele>393.9</ele>
        <time>2019-08-17T10:10:22Z</time>
      </trkpt>
      <trkpt lat="41.9450450" lon="-7.4797810">
        <ele>393.8</ele>
        <time>2019-08-17T10:10:23Z</time>
      </trkpt>
      <trkpt lat="41.9450610" lon="-7.4798560">
        <ele>393.7</ele>
        <time>2019-08-17T10:10:24Z</time>
      </trkpt>
      <trkpt lat="41.9450770" lon="-7.4799310">
        <ele>393.6</ele>
        <time>2019-08-17T10:10:25Z</time>
      </trkpt>
      <trkpt lat="41.9450930" lon="-7.4800070">
        <ele>393.5</ele>
        <time>2019-08-17T10:10:26Z</time>
      </trkpt>
      <trkpt lat="41.9451090" lon="-7.4800830">
        <ele>393.5</ele>
        <time>2019-08-17T10:10:27Z</time>
      </trkpt>
      <trkpt lat="41.9451260" lon="-7.4801590">
        <ele>393.4</ele>
        <time>2019-08-17T10:10:28Z</time>
      </trkpt>
      <trkpt lat="41.9451420" lon="-7.4802360">
        <ele>393.3</ele>
        <time>2019-08-17T10:10:29Z</time>
      </trkpt>
      <trkpt lat="41.9451590" lon="-7.4803120">
        <ele>393.2</ele>
        <time>2019-08-17T10:10:30Z</time>
      </trkpt>
      <trkpt lat="41.9451750" lon="-7.4803900">
        <ele>393.2</ele>
        <time>2019-08-17T10:10:31Z</time>
      </trkpt>
      <trkpt lat="41.9451920" lon="-7.4804670">
        <ele>393.1</ele>
        <time>2019-08-17T10:10:32Z</time>
      </trkpt>
      <trkpt lat="41.9452090" lon="-7.4805450">
        <ele>393.1</ele>
        <time>2019-08-17T10:10:33Z</time>
      </trkpt>
      <trkpt lat="41.9452260" lon="-7.4806230">
        <ele>393.0</ele>
        <time>2019-08-17T10:10:34Z</time>
      </trkpt>
      <trkpt lat="41.9452440" lon="-7.4807020">
        <ele>392.9</ele>
        <time>2019-08-17T10:10:35Z</time>
      </trkpt>
      <trkpt lat="41.9452610" lon="-7.4807810">
        <ele>392.9</ele>
        <time>2019-08-17T10:10:36Z</time>
      </trkpt>
      <trkpt lat="41.9452790" lon="-7.4808620">
        <ele>392.8</ele>
        <time>2019-08-17T10:10:37Z</time>
      </trkpt>
      <trkpt lat="41.9452970" lon="-7.4809430">
        <ele>392.7</ele>
        <time>2019-08-17T10:10:38Z</time>
      </trkpt>
      <trkpt lat="41.9453150" lon="-7.4810250">
        <ele>392.6</ele>
        <time>2019-08-17T10:10:39Z</time>
      </trkpt>
      <trkpt lat="41.9453340" lon="-7.4811080">
        <ele>392.5</ele>
        <time>2019-08-17T10:10:40Z</time>
      </trkpt>
      <trkpt lat="41.9453520" lon="-7.4811930">
        <ele>392.4</ele>
        <time>2019-08-17T10:10:41Z</time>
      </trkpt>
      <trkpt lat="41.9453710" lon="-7.4812790">
        <ele>392.4</ele>
        <time>2019-08-17T10:10:42Z</time>
      </trkpt>
      <trkpt lat="41.9453900" lon="-7.4813650">
        <ele>392.3</ele>
        <time>2019-08-17T10:10:43Z</time>
      </trkpt>
      <trkpt lat="41.9454090" lon="-7.4814510">
        <ele>392.2</ele>
        <time>2019-08-17T10:10:44Z</time>
      </trkpt>
      <trkpt lat="41.9454290" lon="-7.4815360">
        <ele>392.1</ele>
        <time>2019-08-17T10:10:45Z</time>
      </trkpt>
      <trkpt lat="41.9454480" lon="-7.4816210">
        <ele>392.1</ele>
        <time>2019-08-17T10:10:46Z</time>
      </trkpt>
      <trkpt lat="41.9454670" lon="-7.4817050">
        <ele>392.0</ele>
        <time>2019-08-17T10:10:47Z</time>
      </trkpt>
      <trkpt lat="41.9454860" lon="-7.4817870">
        <ele>391.9</ele>
        <time>2019-08-17T10:10:48Z</time>
      </trkpt>
      <trkpt lat="41.9455050" lon="-7.4818680">
        <ele>391.8</ele>
        <time>2019-08-17T10:10:49Z</time>
      </trkpt>
      <trkpt lat="41.9455240" lon="-7.4819490">
        <ele>391.6</ele>
        <time>2019-08-17T10:10:50Z</time>
      </trkpt>
      <trkpt lat="41.9455430" lon="-7.4820290">
        <ele>391.5</ele>
        <time>2019-08-17T10:10:51Z</time>
      </trkpt>
      <trkpt lat="41.9455620" lon="-7.4821090">
        <ele>391.4</ele>
        <time>2019-08-17T10:10:52Z</time>
      </trkpt>
      <trkpt lat="41.9455800" lon="-7.4821890">
        <ele>391.3</ele>
        <time>2019-08-17T10:10:53Z</time>
      </trkpt>
      <trkpt lat="41.9455990" lon="-7.4822710">
        <ele>391.2</ele>
        <time>2019-08-17T10:10:54Z</time>
      </trkpt>
      <trkpt lat="41.9456180" lon="-7.4823540">
        <ele>391.0</ele>
        <time>2019-08-17T10:10:55Z</time>
      </trkpt>
      <trkpt lat="41.9456370" lon="-7.4824380">
        <ele>390.9</ele>
        <time>2019-08-17T10:10:56Z</time>
      </trkpt>
      <trkpt lat="41.9456570" lon="-7.4825240">
        <ele>390.8</ele>
        <time>2019-08-17T10:10:57Z</time>
      </trkpt>
      <trkpt lat="41.9456760" lon="-7.4826100">
        <ele>390.7</ele>
        <time>2019-08-17T10:10:58Z</time>
      </trkpt>
      <trkpt lat="41.9456960" lon="-7.4826980">
        <ele>390.6</ele>
        <time>2019-08-17T10:10:59Z</time>
      </trkpt>
      <trkpt lat="41.9457150" lon="-7.4827860">
        <ele>390.5</ele>
        <time>2019-08-17T10:11:00Z</time>
      </trkpt>
      <trkpt lat="41.9457350" lon="-7.4828750">
        <ele>390.4</ele>
        <time>2019-08-17T10:11:01Z</time>
      </trkpt>
      <trkpt lat="41.9457560" lon="-7.4829650">
        <ele>390.3</ele>
        <time>2019-08-17T10:11:02Z</time>
      </trkpt>
      <trkpt lat="41.9457760" lon="-7.4830560">
        <ele>390.2</ele>
        <time>2019-08-17T10:11:03Z</time>
      </trkpt>
      <trkpt lat="41.9457960" lon="-7.4831470">
        <ele>390.1</ele>
        <time>2019-08-17T10:11:04Z</time>
      </trkpt>
      <trkpt lat="41.9458170" lon="-7.4832400">
        <ele>390.0</ele>
        <time>2019-08-17T10:11:05Z</time>
      </trkpt>
      <trkpt lat="41.9458380" lon="-7.4833320">
        <ele>390.0</ele>
        <time>2019-08-17T10:11:06Z</time>
      </trkpt>
      <trkpt lat="41.9458590" lon="-7.4834250">
        <ele>389.9</ele>
        <time>2019-08-17T10:11:07Z</time>
      </trkpt>
      <trkpt lat="41.9458800" lon="-7.4835190">
        <ele>389.8</ele>
        <time>2019-08-17T10:11:08Z</time>
      </trkpt>
      <trkpt lat="41.9459010" lon="-7.4836130">
        <ele>389.7</ele>
        <time>2019-08-17T10:11:09Z</time>
      </trkpt>
      <trkpt lat="41.9459230" lon="-7.4837080">
        <ele>389.6</ele>
        <time>2019-08-17T10:11:10Z</time>
      </trkpt>
      <trkpt lat="41.9459440" lon="-7.4838030">
        <ele>389.6</ele>
        <time>2019-08-17T10:11:11Z</time>
      </trkpt>
      <trkpt lat="41.9459660" lon="-7.4838980">
        <ele>389.5</ele>
        <time>2019-08-17T10:11:12Z</time>
      </trkpt>
      <trkpt lat="41.9459870" lon="-7.4839940">
        <ele>389.5</ele>
        <time>2019-08-17T10:11:13Z</time>
      </trkpt>
      <trkpt lat="41.9460090" lon="-7.4840900">
        <ele>389.4</ele>
        <time>2019-08-17T10:11:14Z</time>
      </trkpt>
      <trkpt lat="41.9460310" lon="-7.4841860">
        <ele>389.3</ele>
        <time>2019-08-17T10:11:15Z</time>
      </trkpt>
      <trkpt lat="41.9460530" lon="-7.4842820">
        <ele>389.2</ele>
        <time>2019-08-17T10:11:16Z</time>
      </trkpt>
      <trkpt lat="41.9460750" lon="-7.4843780">
        <ele>389.2</ele>
        <time>2019-08-17T10:11:17Z</time>
      </trkpt>
      <trkpt lat="41.9460960" lon="-7.4844740">
        <ele>389.1</ele>
        <time>2019-08-17T10:11:18Z</time>
      </trkpt>
      <trkpt lat="41.9461180" lon="-7.4845710">
        <ele>389.1</ele>
        <time>2019-08-17T10:11:19Z</time>
      </trkpt>
      <trkpt lat="41.9461400" lon="-7.4846670">
        <ele>389.0</ele>
        <time>2019-08-17T10:11:20Z</time>
      </trkpt>
      <trkpt lat="41.9461620" lon="-7.4847630">
        <ele>389.0</ele>
        <time>2019-08-17T10:11:21Z</time>
      </trkpt>
      <trkpt lat="41.9461840" lon="-7.4848590">
        <ele>388.9</ele>
        <time>2019-08-17T10:11:22Z</time>
      </trkpt>
      <trkpt lat="41.9462060" lon="-7.4849550">
        <ele>388.9</ele>
        <time>2019-08-17T10:11:23Z</time>
      </trkpt>
      <trkpt lat="41.9462270" lon="-7.4850510">
        <ele>388.8</ele>
        <time>2019-08-17T10:11:24Z</time>
      </trkpt>
      <trkpt lat="41.9462490" lon="-7.4851460">
        <ele>388.8</ele>
        <time>2019-08-17T10:11:25Z</time>
      </trkpt>
      <trkpt lat="41.9462710" lon="-7.4852410">
        <ele>388.8</ele>
        <time>2019-08-17T10:11:26Z</time>
      </trkpt>
      <trkpt lat="41.9462920" lon="-7.4853360">
        <ele>388.8</ele>
        <time>2019-08-17T10:11:27Z</time>
      </trkpt>
      <trkpt lat="41.9463140" lon="-7.4854300">
        <ele>388.7</ele>
        <time>2019-08-17T10:11:28Z</time>
      </trkpt>
      <trkpt lat="41.9463350" lon="-7.4855240">
        <ele>388.7</ele>
        <time>2019-08-17T10:11:29Z</time>
      </trkpt>
      <trkpt lat="41.9463560" lon="-7.4856180">
        <ele>388.7</ele>
        <time>2019-08-17T10:11:30Z</time>
      </trkpt>
      <trkpt lat="41.9463780" lon="-7.4857110">
        <ele>388.7</ele>
        <time>2019-08-17T10:11:31Z</time>
      </trkpt>
      <trkpt lat="41.9463990" lon="-7.4858050">
        <ele>388.7</ele>
        <time>2019-08-17T10:11:32Z</time>
      </trkpt>
      <trkpt lat="41.9464200" lon="-7.4858980">
        <ele>388.7</ele>
        <time>2019-08-17T10:11:33Z</time>
      </trkpt>
      <trkpt lat="41.9464410" lon="-7.4859910">
        <ele>388.7</ele>
        <time>2019-08-17T10:11:34Z</time>
      </trkpt>
      <trkpt lat="41.9464620" lon="-7.4860830">
        <ele>388.7</ele>
        <time>2019-08-17T10:11:35Z</time>
      </trkpt>
      <trkpt lat="41.9464830" lon="-7.4861760">
        <ele>388.7</ele>
        <time>2019-08-17T10:11:36Z</time>
      </trkpt>
      <trkpt lat="41.9465050" lon="-7.4862680">
        <ele>388.7</ele>
        <time>2019-08-17T10:11:37Z</time>
      </trkpt>
      <trkpt lat="41.9465260" lon="-7.4863600">
        <ele>388.7</ele>
        <time>2019-08-17T10:11:38Z</time>
      </trkpt>
      <trkpt lat="41.9465470" lon="-7.4864530">
        <ele>388.7</ele>
        <time>2019-08-17T10:11:39Z</time>
      </trkpt>
      <trkpt lat="41.9465670" lon="-7.4865450">
        <ele>388.8</ele>
        <time>2019-08-17T10:11:40Z</time>
      </trkpt>
      <trkpt lat="41.9465880" lon="-7.4866370">
        <ele>388.8</ele>
        <time>2019-08-17T10:11:41Z</time>
      </trkpt>
      <trkpt lat="41.9466100" lon="-7.4867290">
        <ele>388.8</ele>
        <time>2019-08-17T10:11:42Z</time>
      </trkpt>
      <trkpt lat="41.9466310" lon="-7.4868210">
        <ele>388.9</ele>
        <time>2019-08-17T10:11:43Z</time>
      </trkpt>
      <trkpt lat="41.9466520" lon="-7.4869120">
        <ele>388.9</ele>
        <time>2019-08-17T10:11:44Z</time>
      </trkpt>
      <trkpt lat="41.9466740" lon="-7.4870040">
        <ele>389.0</ele>
        <time>2019-08-17T10:11:45Z</time>
      </trkpt>
      <trkpt lat="41.9466960" lon="-7.4870950">
        <ele>389.0</ele>
        <time>2019-08-17T10:11:46Z</time>
      </trkpt>
      <trkpt lat="41.9467190" lon="-7.4871850">
        <ele>389.1</ele>
        <time>2019-08-17T10:11:47Z</time>
      </trkpt>
      <trkpt lat="41.9467430" lon="-7.4872750">
        <ele>389.1</ele>
        <time>2019-08-17T10:11:48Z</time>
      </trkpt>
      <trkpt lat="41.9467670" lon="-7.4873640">
        <ele>389.2</ele>
        <time>2019-08-17T10:11:49Z</time>
      </trkpt>
      <trkpt lat="41.9467920" lon="-7.4874530">
        <ele>389.2</ele>
        <time>2019-08-17T10:11:50Z</time>
      </trkpt>
      <trkpt lat="41.9468180" lon="-7.4875410">
        <ele>389.3</ele>
        <time>2019-08-17T10:11:51Z</time>
      </trkpt>
      <trkpt lat="41.9468450" lon="-7.4876280">
        <ele>389.4</ele>
        <time>2019-08-17T10:11:52Z</time>
      </trkpt>
      <trkpt lat="41.9468720" lon="-7.4877140">
        <ele>389.4</ele>
        <time>2019-08-17T10:11:53Z</time>
      </trkpt>
      <trkpt lat="41.9469010" lon="-7.4877990">
        <ele>389.5</ele>
        <time>2019-08-17T10:11:54Z</time>
      </trkpt>
      <trkpt lat="41.9469320" lon="-7.4878830">
        <ele>389.6</ele>
        <time>2019-08-17T10:11:55Z</time>
      </trkpt>
      <trkpt lat="41.9469620" lon="-7.4879660">
        <ele>389.7</ele>
        <time>2019-08-17T10:11:56Z</time>
      </trkpt>
      <trkpt lat="41.9469940" lon="-7.4880480">
        <ele>389.8</ele>
        <time>2019-08-17T10:11:57Z</time>
      </trkpt>
      <trkpt lat="41.9470260" lon="-7.4881280">
        <ele>389.9</ele>
        <time>2019-08-17T10:11:58Z</time>
      </trkpt>
      <trkpt lat="41.9470590" lon="-7.4882070">
        <ele>390.0</ele>
        <time>2019-08-17T10:11:59Z</time>
      </trkpt>
      <trkpt lat="41.9470920" lon="-7.4882830">
        <ele>390.1</ele>
        <time>2019-08-17T10:12:00Z</time>
      </trkpt>
      <trkpt lat="41.9471250" lon="-7.4883580">
        <ele>390.2</ele>
        <time>2019-08-17T10:12:01Z</time>
      </trkpt>
      <trkpt lat="41.9471590" lon="-7.4884310">
        <ele>390.3</ele>
        <time>2019-08-17T10:12:02Z</time>
      </trkpt>
      <trkpt lat="41.9471940" lon="-7.4885000">
        <ele>390.4</ele>
        <time>2019-08-17T10:12:03Z</time>
      </trkpt>
      <trkpt lat="41.9472320" lon="-7.4885650">
        <ele>390.4</ele>
        <time>2019-08-17T10:12:04Z</time>
      </trkpt>
      <trkpt lat="41.9472730" lon="-7.4886270">
        <ele>390.5</ele>
        <time>2019-08-17T10:12:05Z</time>
      </trkpt>
      <trkpt lat="41.9473170" lon="-7.4886830">
        <ele>390.6</ele>
        <time>2019-08-17T10:12:06Z</time>
      </trkpt>
      <trkpt lat="41.9473660" lon="-7.4887330">
        <ele>390.6</ele>
        <time>2019-08-17T10:12:07Z</time>
      </trkpt>
      <trkpt lat="41.9474190" lon="-7.4887790">
        <ele>390.7</ele>
        <time>2019-08-17T10:12:08Z</time>
      </trkpt>
      <trkpt lat="41.9474680" lon="-7.4888280">
        <ele>390.8</ele>
        <time>2019-08-17T10:12:09Z</time>
      </trkpt>
      <trkpt lat="41.9475040" lon="-7.4888870">
        <ele>390.8</ele>
        <time>2019-08-17T10:12:10Z</time>
      </trkpt>
      <trkpt lat="41.9475310" lon="-7.4889530">
        <ele>390.9</ele>
        <time>2019-08-17T10:12:11Z</time>
      </trkpt>
      <trkpt lat="41.9475530" lon="-7.4890240">
        <ele>390.9</ele>
        <time>2019-08-17T10:12:12Z</time>
      </trkpt>
      <trkpt lat="41.9475740" lon="-7.4890970">
        <ele>391.1</ele>
        <time>2019-08-17T10:12:13Z</time>
      </trkpt>
      <trkpt lat="41.9475960" lon="-7.4891680">
        <ele>391.2</ele>
        <time>2019-08-17T10:12:14Z</time>
      </trkpt>
      <trkpt lat="41.9476240" lon="-7.4892370">
        <ele>391.3</ele>
        <time>2019-08-17T10:12:15Z</time>
      </trkpt>
      <trkpt lat="41.9476560" lon="-7.4893010">
        <ele>391.5</ele>
        <time>2019-08-17T10:12:16Z</time>
      </trkpt>
      <trkpt lat="41.9476920" lon="-7.4893630">
        <ele>391.6</ele>
        <time>2019-08-17T10:12:17Z</time>
      </trkpt>
      <trkpt lat="41.9477300" lon="-7.4894230">
        <ele>391.7</ele>
        <time>2019-08-17T10:12:18Z</time>
      </trkpt>
      <trkpt lat="41.9477700" lon="-7.4894810">
        <ele>391.9</ele>
        <time>2019-08-17T10:12:19Z</time>
      </trkpt>
      <trkpt lat="41.9478110" lon="-7.4895380">
        <ele>392.0</ele>
        <time>2019-08-17T10:12:20Z</time>
      </trkpt>
      <trkpt lat="41.9478520" lon="-7.4895940">
        <ele>392.1</ele>
        <time>2019-08-17T10:12:21Z</time>
      </trkpt>
      <trkpt lat="41.9478930" lon="-7.4896510">
        <ele>392.2</ele>
        <time>2019-08-17T10:12:22Z</time>
      </trkpt>
      <trkpt lat="41.9479330" lon="-7.4897070">
        <ele>392.3</ele>
        <time>2019-08-17T10:12:23Z</time>
      </trkpt>
      <trkpt lat="41.9479730" lon="-7.4897630">
        <ele>392.4</ele>
        <time>2019-08-17T10:12:24Z</time>
      </trkpt>
      <trkpt lat="41.9480130" lon="-7.4898190">
        <ele>392.5</ele>
        <time>2019-08-17T10:12:25Z</time>
      </trkpt>
      <trkpt lat="41.9480530" lon="-7.4898740">
        <ele>392.6</ele>
        <time>2019-08-17T10:12:26Z</time>
      </trkpt>
      <trkpt lat="41.9480920" lon="-7.4899300">
        <ele>392.6</ele>
        <time>2019-08-17T10:12:27Z</time>
      </trkpt>
      <trkpt lat="41.9481320" lon="-7.4899860">
        <ele>392.7</ele>
        <time>2019-08-17T10:12:28Z</time>
      </trkpt>
      <trkpt lat="41.9481710" lon="-7.4900410">
        <ele>392.8</ele>
        <time>2019-08-17T10:12:29Z</time>
      </trkpt>
      <trkpt lat="41.9482110" lon="-7.4900970">
        <ele>392.9</ele>
        <time>2019-08-17T10:12:30Z</time>
      </trkpt>
      <trkpt lat="41.9482510" lon="-7.4901540">
        <ele>393.0</ele>
        <time>2019-08-17T10:12:31Z</time>
      </trkpt>
      <trkpt lat="41.9482900" lon="-7.4902100">
        <ele>393.0</ele>
        <time>2019-08-17T10:12:32Z</time>
      </trkpt>
      <trkpt lat="41.9483300" lon="-7.4902670">
        <ele>393.0</ele>
        <time>2019-08-17T10:12:33Z</time>
      </trkpt>
      <trkpt lat="41.9483700" lon="-7.4903240">
        <ele>393.0</ele>
        <time>2019-08-17T10:12:34Z</time>
      </trkpt>
      <trkpt lat="41.9484100" lon="-7.4903820">
        <ele>392.9</ele>
        <time>2019-08-17T10:12:35Z</time>
      </trkpt>
      <trkpt lat="41.9484510" lon="-7.4904400">
        <ele>392.9</ele>
        <time>2019-08-17T10:12:36Z</time>
      </trkpt>
      <trkpt lat="41.9484910" lon="-7.4904990">
        <ele>392.8</ele>
        <time>2019-08-17T10:12:37Z</time>
      </trkpt>
      <trkpt lat="41.9485320" lon="-7.4905570">
        <ele>392.7</ele>
        <time>2019-08-17T10:12:38Z</time>
      </trkpt>
      <trkpt lat="41.9485730" lon="-7.4906160">
        <ele>392.6</ele>
        <time>2019-08-17T10:12:39Z</time>
      </trkpt>
      <trkpt lat="41.9486130" lon="-7.4906760">
        <ele>392.5</ele>
        <time>2019-08-17T10:12:40Z</time>
      </trkpt>
      <trkpt lat="41.9486540" lon="-7.4907350">
        <ele>392.5</ele>
        <time>2019-08-17T10:12:41Z</time>
      </trkpt>
      <trkpt lat="41.9486950" lon="-7.4907950">
        <ele>392.8</ele>
        <time>2019-08-17T10:12:42Z</time>
      </trkpt>
      <trkpt lat="41.9487370" lon="-7.4908550">
        <ele>393.0</ele>
        <time>2019-08-17T10:12:43Z</time>
      </trkpt>
      <trkpt lat="41.9487780" lon="-7.4909150">
        <ele>393.1</ele>
        <time>2019-08-17T10:12:44Z</time>
      </trkpt>
      <trkpt lat="41.9488190" lon="-7.4909750">
        <ele>393.3</ele>
        <time>2019-08-17T10:12:45Z</time>
      </trkpt>
      <trkpt lat="41.9488600" lon="-7.4910350">
        <ele>393.4</ele>
        <time>2019-08-17T10:12:46Z</time>
      </trkpt>
      <trkpt lat="41.9489010" lon="-7.4910950">
        <ele>393.5</ele>
        <time>2019-08-17T10:12:47Z</time>
      </trkpt>
      <trkpt lat="41.9489430" lon="-7.4911550">
        <ele>393.6</ele>
        <time>2019-08-17T10:12:48Z</time>
      </trkpt>
      <trkpt lat="41.9489840" lon="-7.4912150">
        <ele>393.6</ele>
        <time>2019-08-17T10:12:49Z</time>
      </trkpt>
      <trkpt lat="41.9490250" lon="-7.4912750">
        <ele>393.6</ele>
        <time>2019-08-17T10:12:50Z</time>
      </trkpt>
      <trkpt lat="41.9490660" lon="-7.4913350">
        <ele>393.6</ele>
        <time>2019-08-17T10:12:51Z</time>
      </trkpt>
      <trkpt lat="41.9491070" lon="-7.4913940">
        <ele>393.6</ele>
        <time>2019-08-17T10:12:52Z</time>
      </trkpt>
      <trkpt lat="41.9491480" lon="-7.4914540">
        <ele>393.6</ele>
        <time>2019-08-17T10:12:53Z</time>
      </trkpt>
      <trkpt lat="41.9491890" lon="-7.4915130">
        <ele>393.6</ele>
        <time>2019-08-17T10:12:54Z</time>
      </trkpt>
      <trkpt lat="41.9492300" lon="-7.4915730">
        <ele>393.6</ele>
        <time>2019-08-17T10:12:55Z</time>
      </trkpt>
      <trkpt lat="41.9492710" lon="-7.4916320">
        <ele>393.6</ele>
        <time>2019-08-17T10:12:56Z</time>
      </trkpt>
      <trkpt lat="41.9493120" lon="-7.4916910">
        <ele>393.6</ele>
        <time>2019-08-17T10:12:57Z</time>
      </trkpt>
      <trkpt lat="41.9493520" lon="-7.4917490">
        <ele>393.6</ele>
        <time>2019-08-17T10:12:58Z</time>
      </trkpt>
      <trkpt lat="41.9493930" lon="-7.4918080">
        <ele>393.6</ele>
        <time>2019-08-17T10:12:59Z</time>
      </trkpt>
      <trkpt lat="41.9494340" lon="-7.4918660">
        <ele>393.6</ele>
        <time>2019-08-17T10:13:00Z</time>
      </trkpt>
      <trkpt lat="41.9494740" lon="-7.4919240">
        <ele>393.6</ele>
        <time>2019-08-17T10:13:01Z</time>
      </trkpt>
      <trkpt lat="41.9495150" lon="-7.4919820">
        <ele>393.6</ele>
        <time>2019-08-17T10:13:02Z</time>
      </trkpt>
      <trkpt lat="41.9495550" lon="-7.4920400">
        <ele>393.6</ele>
        <time>2019-08-17T10:13:03Z</time>
      </trkpt>
      <trkpt lat="41.9495960" lon="-7.4920980">
        <ele>393.6</ele>
        <time>2019-08-17T10:13:04Z</time>
      </trkpt>
      <trkpt lat="41.9496360" lon="-7.4921560">
        <ele>393.6</ele>
        <time>2019-08-17T10:13:05Z</time>
      </trkpt>
      <trkpt lat="41.9496770" lon="-7.4922150">
        <ele>393.7</ele>
        <time>2019-08-17T10:13:06Z</time>
      </trkpt>
      <trkpt lat="41.9497180" lon="-7.4922740">
        <ele>393.7</ele>
        <time>2019-08-17T10:13:07Z</time>
      </trkpt>
      <trkpt lat="41.9497600" lon="-7.4923340">
        <ele>393.8</ele>
        <time>2019-08-17T10:13:08Z</time>
      </trkpt>
      <trkpt lat="41.9498010" lon="-7.4923950">
        <ele>393.9</ele>
        <time>2019-08-17T10:13:09Z</time>
      </trkpt>
      <trkpt lat="41.9498440" lon="-7.4924560">
        <ele>394.0</ele>
        <time>2019-08-17T10:13:10Z</time>
      </trkpt>
      <trkpt lat="41.9498860" lon="-7.4925180">
        <ele>394.1</ele>
        <time>2019-08-17T10:13:11Z</time>
      </trkpt>
      <trkpt lat="41.9499280" lon="-7.4925800">
        <ele>394.2</ele>
        <time>2019-08-17T10:13:12Z</time>
      </trkpt>
      <trkpt lat="41.9499710" lon="-7.4926430">
        <ele>394.2</ele>
        <time>2019-08-17T10:13:13Z</time>
      </trkpt>
      <trkpt lat="41.9500140" lon="-7.4927050">
        <ele>394.2</ele>
        <time>2019-08-17T10:13:14Z</time>
      </trkpt>
      <trkpt lat="41.9500560" lon="-7.4927670">
        <ele>394.1</ele>
        <time>2019-08-17T10:13:15Z</time>
      </trkpt>
      <trkpt lat="41.9500990" lon="-7.4928290">
        <ele>394.0</ele>
        <time>2019-08-17T10:13:16Z</time>
      </trkpt>
      <trkpt lat="41.9501410" lon="-7.4928900">
        <ele>393.9</ele>
        <time>2019-08-17T10:13:17Z</time>
      </trkpt>
      <trkpt lat="41.9501830" lon="-7.4929510">
        <ele>393.8</ele>
        <time>2019-08-17T10:13:18Z</time>
      </trkpt>
      <trkpt lat="41.9502250" lon="-7.4930120">
        <ele>393.8</ele>
        <time>2019-08-17T10:13:19Z</time>
      </trkpt>
      <trkpt lat="41.9502670" lon="-7.4930730">
        <ele>393.8</ele>
        <time>2019-08-17T10:13:20Z</time>
      </trkpt>
      <trkpt lat="41.9503090" lon="-7.4931330">
        <ele>393.8</ele>
        <time>2019-08-17T10:13:21Z</time>
      </trkpt>
      <trkpt lat="41.9503500" lon="-7.4931930">
        <ele>393.9</ele>
        <time>2019-08-17T10:13:22Z</time>
      </trkpt>
      <trkpt lat="41.9503920" lon="-7.4932530">
        <ele>394.0</ele>
        <time>2019-08-17T10:13:23Z</time>
      </trkpt>
      <trkpt lat="41.9504330" lon="-7.4933120">
        <ele>394.1</ele>
        <time>2019-08-17T10:13:24Z</time>
      </trkpt>
      <trkpt lat="41.9504740" lon="-7.4933710">
        <ele>394.2</ele>
        <time>2019-08-17T10:13:25Z</time>
      </trkpt>
      <trkpt lat="41.9505150" lon="-7.4934300">
        <ele>394.3</ele>
        <time>2019-08-17T10:13:26Z</time>
      </trkpt>
      <trkpt lat="41.9505560" lon="-7.4934880">
        <ele>394.4</ele>
        <time>2019-08-17T10:13:27Z</time>
      </trkpt>
      <trkpt lat="41.9505970" lon="-7.4935460">
        <ele>394.5</ele>
        <time>2019-08-17T10:13:28Z</time>
      </trkpt>
      <trkpt lat="41.9506370" lon="-7.4936040">
        <ele>394.5</ele>
        <time>2019-08-17T10:13:29Z</time>
      </trkpt>
      <trkpt lat="41.9506780" lon="-7.4936620">
        <ele>394.5</ele>
        <time>2019-08-17T10:13:30Z</time>
      </trkpt>
      <trkpt lat="41.9507180" lon="-7.4937200">
        <ele>394.5</ele>
        <time>2019-08-17T10:13:31Z</time>
      </trkpt>
      <trkpt lat="41.9507580" lon="-7.4937770">
        <ele>394.5</ele>
        <time>2019-08-17T10:13:32Z</time>
      </trkpt>
      <trkpt lat="41.9507980" lon="-7.4938350">
        <ele>394.6</ele>
        <time>2019-08-17T10:13:33Z</time>
      </trkpt>
      <trkpt lat="41.9508380" lon="-7.4938920">
        <ele>394.6</ele>
        <time>2019-08-17T10:13:34Z</time>
      </trkpt>
      <trkpt lat="41.9508770" lon="-7.4939500">
        <ele>394.7</ele>
        <time>2019-08-17T10:13:35Z</time>
      </trkpt>
      <trkpt lat="41.9509170" lon="-7.4940080">
        <ele>394.8</ele>
        <time>2019-08-17T10:13:36Z</time>
      </trkpt>
      <trkpt lat="41.9509560" lon="-7.4940660">
        <ele>394.9</ele>
        <time>2019-08-17T10:13:37Z</time>
      </trkpt>
      <trkpt lat="41.9509960" lon="-7.4941240">
        <ele>395.0</ele>
        <time>2019-08-17T10:13:38Z</time>
      </trkpt>
      <trkpt lat="41.9510350" lon="-7.4941820">
        <ele>395.2</ele>
        <time>2019-08-17T10:13:39Z</time>
      </trkpt>
      <trkpt lat="41.9510750" lon="-7.4942400">
        <ele>395.3</ele>
        <time>2019-08-17T10:13:40Z</time>
      </trkpt>
      <trkpt lat="41.9511150" lon="-7.4942980">
        <ele>395.4</ele>
        <time>2019-08-17T10:13:41Z</time>
      </trkpt>
      <trkpt lat="41.9511540" lon="-7.4943560">
        <ele>395.4</ele>
        <time>2019-08-17T10:13:42Z</time>
      </trkpt>
      <trkpt lat="41.9511940" lon="-7.4944130">
        <ele>395.4</ele>
        <time>2019-08-17T10:13:43Z</time>
      </trkpt>
      <trkpt lat="41.9512340" lon="-7.4944710">
        <ele>395.5</ele>
        <time>2019-08-17T10:13:44Z</time>
      </trkpt>
      <trkpt lat="41.9512740" lon="-7.4945280">
        <ele>395.5</ele>
        <time>2019-08-17T10:13:45Z</time>
      </trkpt>
      <trkpt lat="41.9513140" lon="-7.4945840">
        <ele>395.5</ele>
        <time>2019-08-17T10:13:46Z</time>
      </trkpt>
      <trkpt lat="41.9513540" lon="-7.4946410">
        <ele>395.5</ele>
        <time>2019-08-17T10:13:47Z</time>
      </trkpt>
      <trkpt lat="41.9513940" lon="-7.4946980">
        <ele>395.5</ele>
        <time>2019-08-17T10:13:48Z</time>
      </trkpt>
      <trkpt lat="41.9514340" lon="-7.4947540">
        <ele>395.5</ele>
        <time>2019-08-17T10:13:49Z</time>
      </trkpt>
      <trkpt lat="41.9514740" lon="-7.4948100">
        <ele>395.5</ele>
        <time>2019-08-17T10:13:50Z</time>
      </trkpt>
      <trkpt lat="41.9515140" lon="-7.4948660">
        <ele>395.6</ele>
        <time>2019-08-17T10:13:51Z</time>
      </trkpt>
      <trkpt lat="41.9515540" lon="-7.4949230">
        <ele>395.6</ele>
        <time>2019-08-17T10:13:52Z</time>
      </trkpt>
      <trkpt lat="41.9515940" lon="-7.4949790">
        <ele>395.7</ele>
        <time>2019-08-17T10:13:53Z</time>
      </trkpt>
      <trkpt lat="41.9516340" lon="-7.4950350">
        <ele>395.7</ele>
        <time>2019-08-17T10:13:54Z</time>
      </trkpt>
      <trkpt lat="41.9516740" lon="-7.4950910">
        <ele>395.9</ele>
        <time>2019-08-17T10:13:55Z</time>
      </trkpt>
      <trkpt lat="41.9517130" lon="-7.4951470">
        <ele>396.0</ele>
        <time>2019-08-17T10:13:56Z</time>
      </trkpt>
      <trkpt lat="41.9517530" lon="-7.4952030">
        <ele>396.1</ele>
        <time>2019-08-17T10:13:57Z</time>
      </trkpt>
      <trkpt lat="41.9517920" lon="-7.4952590">
        <ele>396.3</ele>
        <time>2019-08-17T10:13:58Z</time>
      </trkpt>
      <trkpt lat="41.9518320" lon="-7.4953150">
        <ele>396.4</ele>
        <time>2019-08-17T10:13:59Z</time>
      </trkpt>
      <trkpt lat="41.9518710" lon="-7.4953700">
        <ele>396.6</ele>
        <time>2019-08-17T10:14:00Z</time>
      </trkpt>
      <trkpt lat="41.9519090" lon="-7.4954260">
        <ele>396.7</ele>
        <time>2019-08-17T10:14:01Z</time>
      </trkpt>
      <trkpt lat="41.9519480" lon="-7.4954810">
        <ele>396.8</ele>
        <time>2019-08-17T10:14:02Z</time>
      </trkpt>
      <trkpt lat="41.9519860" lon="-7.4955350">
        <ele>396.8</ele>
        <time>2019-08-17T10:14:03Z</time>
      </trkpt>
      <trkpt lat="41.9520240" lon="-7.4955890">
        <ele>396.9</ele>
        <time>2019-08-17T10:14:04Z</time>
      </trkpt>
      <trkpt lat="41.9520610" lon="-7.4956420">
        <ele>396.9</ele>
        <time>2019-08-17T10:14:05Z</time>
      </trkpt>
      <trkpt lat="41.9520980" lon="-7.4956950">
        <ele>396.8</ele>
        <time>2019-08-17T10:14:06Z</time>
      </trkpt>
      <trkpt lat="41.9521350" lon="-7.4957470">
        <ele>396.8</ele>
        <time>2019-08-17T10:14:07Z</time>
      </trkpt>
      <trkpt lat="41.9521710" lon="-7.4957990">
        <ele>396.8</ele>
        <time>2019-08-17T10:14:08Z</time>
      </trkpt>
      <trkpt lat="41.9522060" lon="-7.4958490">
        <ele>396.8</ele>
        <time>2019-08-17T10:14:09Z</time>
      </trkpt>
      <trkpt lat="41.9522410" lon="-7.4958990">
        <ele>396.8</ele>
        <time>2019-08-17T10:14:10Z</time>
      </trkpt>
      <trkpt lat="41.9522760" lon="-7.4959490">
        <ele>396.9</ele>
        <time>2019-08-17T10:14:11Z</time>
      </trkpt>
      <trkpt lat="41.9523110" lon="-7.4959990">
        <ele>397.0</ele>
        <time>2019-08-17T10:14:12Z</time>
      </trkpt>
      <trkpt lat="41.9523450" lon="-7.4960480">
        <ele>397.2</ele>
        <time>2019-08-17T10:14:13Z</time>
      </trkpt>
      <trkpt lat="41.9523800" lon="-7.4960980">
        <ele>397.3</ele>
        <time>2019-08-17T10:14:14Z</time>
      </trkpt>
      <trkpt lat="41.9524150" lon="-7.4961480">
        <ele>397.5</ele>
        <time>2019-08-17T10:14:15Z</time>
      </trkpt>
      <trkpt lat="41.9524510" lon="-7.4961990">
        <ele>397.8</ele>
        <time>2019-08-17T10:14:16Z</time>
      </trkpt>
      <trkpt lat="41.9524870" lon="-7.4962500">
        <ele>398.0</ele>
        <time>2019-08-17T10:14:17Z</time>
      </trkpt>
      <trkpt lat="41.9525230" lon="-7.4963020">
        <ele>398.2</ele>
        <time>2019-08-17T10:14:18Z</time>
      </trkpt>
      <trkpt lat="41.9525590" lon="-7.4963550">
        <ele>398.4</ele>
        <time>2019-08-17T10:14:19Z</time>
      </trkpt>
      <trkpt lat="41.9525960" lon="-7.4964070">
        <ele>398.5</ele>
        <time>2019-08-17T10:14:20Z</time>
      </trkpt>
      <trkpt lat="41.9526330" lon="-7.4964600">
        <ele>398.5</ele>
        <time>2019-08-17T10:14:21Z</time>
      </trkpt>
      <trkpt lat="41.9526700" lon="-7.4965130">
        <ele>398.6</ele>
        <time>2019-08-17T10:14:22Z</time>
      </trkpt>
      <trkpt lat="41.9527070" lon="-7.4965670">
        <ele>398.6</ele>
        <time>2019-08-17T10:14:23Z</time>
      </trkpt>
      <trkpt lat="41.9527430" lon="-7.4966200">
        <ele>398.6</ele>
        <time>2019-08-17T10:14:24Z</time>
      </trkpt>
      <trkpt lat="41.9527800" lon="-7.4966740">
        <ele>398.6</ele>
        <time>2019-08-17T10:14:25Z</time>
      </trkpt>
      <trkpt lat="41.9528170" lon="-7.4967270">
        <ele>398.6</ele>
        <time>2019-08-17T10:14:26Z</time>
      </trkpt>
      <trkpt lat="41.9528540" lon="-7.4967810">
        <ele>398.6</ele>
        <time>2019-08-17T10:14:27Z</time>
      </trkpt>
      <trkpt lat="41.9528910" lon="-7.4968340">
        <ele>398.6</ele>
        <time>2019-08-17T10:14:28Z</time>
      </trkpt>
      <trkpt lat="41.9529280" lon="-7.4968880">
        <ele>398.6</ele>
        <time>2019-08-17T10:14:29Z</time>
      </trkpt>
      <trkpt lat="41.9529650" lon="-7.4969420">
        <ele>398.6</ele>
        <time>2019-08-17T10:14:30Z</time>
      </trkpt>
      <trkpt lat="41.9530020" lon="-7.4969960">
        <ele>398.6</ele>
        <time>2019-08-17T10:14:31Z</time>
      </trkpt>
      <trkpt lat="41.9530400" lon="-7.4970500">
        <ele>398.6</ele>
        <time>2019-08-17T10:14:32Z</time>
      </trkpt>
      <trkpt lat="41.9530770" lon="-7.4971050">
        <ele>398.6</ele>
        <time>2019-08-17T10:14:33Z</time>
      </trkpt>
      <trkpt lat="41.9531140" lon="-7.4971590">
        <ele>398.6</ele>
        <time>2019-08-17T10:14:34Z</time>
      </trkpt>
      <trkpt lat="41.9531520" lon="-7.4972140">
        <ele>398.6</ele>
        <time>2019-08-17T10:14:35Z</time>
      </trkpt>
      <trkpt lat="41.9531900" lon="-7.4972680">
        <ele>398.6</ele>
        <time>2019-08-17T10:14:36Z</time>
      </trkpt>
      <trkpt lat="41.9532270" lon="-7.4973230">
        <ele>398.6</ele>
        <time>2019-08-17T10:14:37Z</time>
      </trkpt>
      <trkpt lat="41.9532650" lon="-7.4973780">
        <ele>398.6</ele>
        <time>2019-08-17T10:14:38Z</time>
      </trkpt>
      <trkpt lat="41.9533030" lon="-7.4974330">
        <ele>398.6</ele>
        <time>2019-08-17T10:14:39Z</time>
      </trkpt>
      <trkpt lat="41.9533410" lon="-7.4974880">
        <ele>398.6</ele>
        <time>2019-08-17T10:14:40Z</time>
      </trkpt>
      <trkpt lat="41.9533800" lon="-7.4975430">
        <ele>398.6</ele>
        <time>2019-08-17T10:14:41Z</time>
      </trkpt>
      <trkpt lat="41.9534180" lon="-7.4975980">
        <ele>398.6</ele>
        <time>2019-08-17T10:14:42Z</time>
      </trkpt>
      <trkpt lat="41.9534570" lon="-7.4976540">
        <ele>398.6</ele>
        <time>2019-08-17T10:14:43Z</time>
      </trkpt>
      <trkpt lat="41.9534950" lon="-7.4977090">
        <ele>398.6</ele>
        <time>2019-08-17T10:14:44Z</time>
      </trkpt>
      <trkpt lat="41.9535340" lon="-7.4977650">
        <ele>398.6</ele>
        <time>2019-08-17T10:14:45Z</time>
      </trkpt>
      <trkpt lat="41.9535730" lon="-7.4978210">
        <ele>398.6</ele>
        <time>2019-08-17T10:14:46Z</time>
      </trkpt>
      <trkpt lat="41.9536130" lon="-7.4978780">
        <ele>398.6</ele>
        <time>2019-08-17T10:14:47Z</time>
      </trkpt>
      <trkpt lat="41.9536520" lon="-7.4979340">
        <ele>398.6</ele>
        <time>2019-08-17T10:14:48Z</time>
      </trkpt>
      <trkpt lat="41.9536920" lon="-7.4979900">
        <ele>398.6</ele>
        <time>2019-08-17T10:14:49Z</time>
      </trkpt>
      <trkpt lat="41.9537320" lon="-7.4980470">
        <ele>398.8</ele>
        <time>2019-08-17T10:14:50Z</time>
      </trkpt>
      <trkpt lat="41.9537720" lon="-7.4981040">
        <ele>399.2</ele>
        <time>2019-08-17T10:14:51Z</time>
      </trkpt>
      <trkpt lat="41.9538120" lon="-7.4981610">
        <ele>399.6</ele>
        <time>2019-08-17T10:14:52Z</time>
      </trkpt>
      <trkpt lat="41.9538520" lon="-7.4982170">
        <ele>399.9</ele>
        <time>2019-08-17T10:14:53Z</time>
      </trkpt>
      <trkpt lat="41.9538920" lon="-7.4982740">
        <ele>400.3</ele>
        <time>2019-08-17T10:14:54Z</time>
      </trkpt>
      <trkpt lat="41.9539320" lon="-7.4983300">
        <ele>400.7</ele>
        <time>2019-08-17T10:14:55Z</time>
      </trkpt>
      <trkpt lat="41.9539720" lon="-7.4983860">
        <ele>401.1</ele>
        <time>2019-08-17T10:14:56Z</time>
      </trkpt>
      <trkpt lat="41.9540120" lon="-7.4984420">
        <ele>401.4</ele>
        <time>2019-08-17T10:14:57Z</time>
      </trkpt>
      <trkpt lat="41.9540510" lon="-7.4984970">
        <ele>401.8</ele>
        <time>2019-08-17T10:14:58Z</time>
      </trkpt>
      <trkpt lat="41.9540900" lon="-7.4985520">
        <ele>402.2</ele>
        <time>2019-08-17T10:14:59Z</time>
      </trkpt>
      <trkpt lat="41.9541280" lon="-7.4986060">
        <ele>402.7</ele>
        <time>2019-08-17T10:15:00Z</time>
      </trkpt>
      <trkpt lat="41.9541670" lon="-7.4986600">
        <ele>403.3</ele>
        <time>2019-08-17T10:15:01Z</time>
      </trkpt>
      <trkpt lat="41.9542040" lon="-7.4987130">
        <ele>403.9</ele>
        <time>2019-08-17T10:15:02Z</time>
      </trkpt>
      <trkpt lat="41.9542420" lon="-7.4987650">
        <ele>404.7</ele>
        <time>2019-08-17T10:15:03Z</time>
      </trkpt>
      <trkpt lat="41.9542790" lon="-7.4988170">
        <ele>405.4</ele>
        <time>2019-08-17T10:15:04Z</time>
      </trkpt>
      <trkpt lat="41.9543160" lon="-7.4988680">
        <ele>406.2</ele>
        <time>2019-08-17T10:15:05Z</time>
      </trkpt>
      <trkpt lat="41.9543530" lon="-7.4989190">
        <ele>407.3</ele>
        <time>2019-08-17T10:15:06Z</time>
      </trkpt>
      <trkpt lat="41.9543890" lon="-7.4989700">
        <ele>408.3</ele>
        <time>2019-08-17T10:15:07Z</time>
      </trkpt>
      <trkpt lat="41.9544260" lon="-7.4990210">
        <ele>408.7</ele>
        <time>2019-08-17T10:15:08Z</time>
      </trkpt>
      <trkpt lat="41.9544640" lon="-7.4990710">
        <ele>409.0</ele>
        <time>2019-08-17T10:15:09Z</time>
      </trkpt>
      <trkpt lat="41.9545010" lon="-7.4991210">
        <ele>409.3</ele>
        <time>2019-08-17T10:15:10Z</time>
      </trkpt>
      <trkpt lat="41.9545380" lon="-7.4991710">
        <ele>409.7</ele>
        <time>2019-08-17T10:15:11Z</time>
      </trkpt>
      <trkpt lat="41.9545760" lon="-7.4992200">
        <ele>410.0</ele>
        <time>2019-08-17T10:15:12Z</time>
      </trkpt>
      <trkpt lat="41.9546130" lon="-7.4992680">
        <ele>410.3</ele>
        <time>2019-08-17T10:15:13Z</time>
      </trkpt>
      <trkpt lat="41.9546510" lon="-7.4993150">
        <ele>410.7</ele>
        <time>2019-08-17T10:15:14Z</time>
      </trkpt>
      <trkpt lat="41.9546880" lon="-7.4993620">
        <ele>411.0</ele>
        <time>2019-08-17T10:15:15Z</time>
      </trkpt>
      <trkpt lat="41.9547260" lon="-7.4994070">
        <ele>411.4</ele>
        <time>2019-08-17T10:15:16Z</time>
      </trkpt>
      <trkpt lat="41.9547630" lon="-7.4994520">
        <ele>411.7</ele>
        <time>2019-08-17T10:15:17Z</time>
      </trkpt>
      <trkpt lat="41.9548000" lon="-7.4994950">
        <ele>412.1</ele>
        <time>2019-08-17T10:15:18Z</time>
      </trkpt>
      <trkpt lat="41.9548360" lon="-7.4995370">
        <ele>412.4</ele>
        <time>2019-08-17T10:15:19Z</time>
      </trkpt>
      <trkpt lat="41.9548720" lon="-7.4995770">
        <ele>412.7</ele>
        <time>2019-08-17T10:15:20Z</time>
      </trkpt>
      <trkpt lat="41.9549080" lon="-7.4996170">
        <ele>413.0</ele>
        <time>2019-08-17T10:15:21Z</time>
      </trkpt>
      <trkpt lat="41.9549420" lon="-7.4996550">
        <ele>413.3</ele>
        <time>2019-08-17T10:15:22Z</time>
      </trkpt>
      <trkpt lat="41.9549760" lon="-7.4996920">
        <ele>413.6</ele>
        <time>2019-08-17T10:15:23Z</time>
      </trkpt>
      <trkpt lat="41.9550090" lon="-7.4997270">
        <ele>413.9</ele>
        <time>2019-08-17T10:15:24Z</time>
      </trkpt>
      <trkpt lat="41.9550400" lon="-7.4997610">
        <ele>414.2</ele>
        <time>2019-08-17T10:15:25Z</time>
      </trkpt>
      <trkpt lat="41.9550700" lon="-7.4997940">
        <ele>414.4</ele>
        <time>2019-08-17T10:15:26Z</time>
      </trkpt>
      <trkpt lat="41.9550990" lon="-7.4998250">
        <ele>414.7</ele>
        <time>2019-08-17T10:15:27Z</time>
      </trkpt>
      <trkpt lat="41.9551270" lon="-7.4998540">
        <ele>414.9</ele>
        <time>2019-08-17T10:15:28Z</time>
      </trkpt>
      <trkpt lat="41.9551530" lon="-7.4998820">
        <ele>415.2</ele>
        <time>2019-08-17T10:15:29Z</time>
      </trkpt>
      <trkpt lat="41.9551770" lon="-7.4999090">
        <ele>415.4</ele>
        <time>2019-08-17T10:15:30Z</time>
      </trkpt>
      <trkpt lat="41.9552020" lon="-7.4999360">
        <ele>415.6</ele>
        <time>2019-08-17T10:15:31Z</time>
      </trkpt>
      <trkpt lat="41.9552260" lon="-7.4999620">
        <ele>415.8</ele>
        <time>2019-08-17T10:15:32Z</time>
      </trkpt>
      <trkpt lat="41.9552500" lon="-7.4999880">
        <ele>416.1</ele>
        <time>2019-08-17T10:15:33Z</time>
      </trkpt>
      <trkpt lat="41.9552750" lon="-7.5000150">
        <ele>416.3</ele>
        <time>2019-08-17T10:15:34Z</time>
      </trkpt>
      <trkpt lat="41.9553010" lon="-7.5000430">
        <ele>416.5</ele>
        <time>2019-08-17T10:15:35Z</time>
      </trkpt>
      <trkpt lat="41.9553300" lon="-7.5000720">
        <ele>416.8</ele>
        <time>2019-08-17T10:15:36Z</time>
      </trkpt>
      <trkpt lat="41.9553590" lon="-7.5001030">
        <ele>417.1</ele>
        <time>2019-08-17T10:15:37Z</time>
      </trkpt>
      <trkpt lat="41.9553900" lon="-7.5001340">
        <ele>417.4</ele>
        <time>2019-08-17T10:15:38Z</time>
      </trkpt>
      <trkpt lat="41.9554210" lon="-7.5001650">
        <ele>417.7</ele>
        <time>2019-08-17T10:15:39Z</time>
      </trkpt>
      <trkpt lat="41.9554530" lon="-7.5001960">
        <ele>418.0</ele>
        <time>2019-08-17T10:15:40Z</time>
      </trkpt>
      <trkpt lat="41.9554850" lon="-7.5002270">
        <ele>418.2</ele>
        <time>2019-08-17T10:15:41Z</time>
      </trkpt>
      <trkpt lat="41.9555160" lon="-7.5002570">
        <ele>418.5</ele>
        <time>2019-08-17T10:15:42Z</time>
      </trkpt>
      <trkpt lat="41.9555470" lon="-7.5002850">
        <ele>418.8</ele>
        <time>2019-08-17T10:15:43Z</time>
      </trkpt>
      <trkpt lat="41.9555770" lon="-7.5003130">
        <ele>419.1</ele>
        <time>2019-08-17T10:15:44Z</time>
      </trkpt>
      <trkpt lat="41.9556070" lon="-7.5003390">
        <ele>419.4</ele>
        <time>2019-08-17T10:15:45Z</time>
      </trkpt>
      <trkpt lat="41.9556360" lon="-7.5003640">
        <ele>419.6</ele>
        <time>2019-08-17T10:15:46Z</time>
      </trkpt>
      <trkpt lat="41.9556640" lon="-7.5003890">
        <ele>419.9</ele>
        <time>2019-08-17T10:15:47Z</time>
      </trkpt>
      <trkpt lat="41.9556920" lon="-7.5004120">
        <ele>420.1</ele>
        <time>2019-08-17T10:15:48Z</time>
      </trkpt>
      <trkpt lat="41.9557200" lon="-7.5004350">
        <ele>420.4</ele>
        <time>2019-08-17T10:15:49Z</time>
      </trkpt>
      <trkpt lat="41.9557470" lon="-7.5004570">
        <ele>420.6</ele>
        <time>2019-08-17T10:15:50Z</time>
      </trkpt>
      <trkpt lat="41.9557730" lon="-7.5004790">
        <ele>420.9</ele>
        <time>2019-08-17T10:15:51Z</time>
      </trkpt>
      <trkpt lat="41.9557990" lon="-7.5005000">
        <ele>421.1</ele>
        <time>2019-08-17T10:15:52Z</time>
      </trkpt>
      <trkpt lat="41.9558250" lon="-7.5005200">
        <ele>421.3</ele>
        <time>2019-08-17T10:15:53Z</time>
      </trkpt>
      <trkpt lat="41.9558510" lon="-7.5005400">
        <ele>421.5</ele>
        <time>2019-08-17T10:15:54Z</time>
      </trkpt>
      <trkpt lat="41.9558760" lon="-7.5005600">
        <ele>421.8</ele>
        <time>2019-08-17T10:15:55Z</time>
      </trkpt>
      <trkpt lat="41.9559020" lon="-7.5005800">
        <ele>422.0</ele>
        <time>2019-08-17T10:15:56Z</time>
      </trkpt>
      <trkpt lat="41.9559260" lon="-7.5006000">
        <ele>422.2</ele>
        <time>2019-08-17T10:15:57Z</time>
      </trkpt>
      <trkpt lat="41.9559510" lon="-7.5006190">
        <ele>422.4</ele>
        <time>2019-08-17T10:15:58Z</time>
      </trkpt>
      <trkpt lat="41.9559750" lon="-7.5006370">
        <ele>422.6</ele>
        <time>2019-08-17T10:15:59Z</time>
      </trkpt>
      <trkpt lat="41.9559990" lon="-7.5006550">
        <ele>422.8</ele>
        <time>2019-08-17T10:16:00Z</time>
      </trkpt>
      <trkpt lat="41.9560230" lon="-7.5006730">
        <ele>423.0</ele>
        <time>2019-08-17T10:16:01Z</time>
      </trkpt>
      <trkpt lat="41.9560460" lon="-7.5006890">
        <ele>423.2</ele>
        <time>2019-08-17T10:16:02Z</time>
      </trkpt>
      <trkpt lat="41.9560680" lon="-7.5007050">
        <ele>423.4</ele>
        <time>2019-08-17T10:16:03Z</time>
      </trkpt>
      <trkpt lat="41.9560900" lon="-7.5007190">
        <ele>423.5</ele>
        <time>2019-08-17T10:16:04Z</time>
      </trkpt>
      <trkpt lat="41.9561120" lon="-7.5007340">
        <ele>423.7</ele>
        <time>2019-08-17T10:16:05Z</time>
      </trkpt>
      <trkpt lat="41.9561340" lon="-7.5007470">
        <ele>423.9</ele>
        <time>2019-08-17T10:16:06Z</time>
      </trkpt>
      <trkpt lat="41.9561550" lon="-7.5007610">
        <ele>424.1</ele>
        <time>2019-08-17T10:16:07Z</time>
      </trkpt>
      <trkpt lat="41.9561770" lon="-7.5007740">
        <ele>424.2</ele>
        <time>2019-08-17T10:16:08Z</time>
      </trkpt>
      <trkpt lat="41.9561990" lon="-7.5007880">
        <ele>424.4</ele>
        <time>2019-08-17T10:16:09Z</time>
      </trkpt>
      <trkpt lat="41.9562220" lon="-7.5008010">
        <ele>424.6</ele>
        <time>2019-08-17T10:16:10Z</time>
      </trkpt>
      <trkpt lat="41.9562450" lon="-7.5008150">
        <ele>424.6</ele>
        <time>2019-08-17T10:16:11Z</time>
      </trkpt>
      <trkpt lat="41.9562690" lon="-7.5008290">
        <ele>424.6</ele>
        <time>2019-08-17T10:16:12Z</time>
      </trkpt>
      <trkpt lat="41.9562930" lon="-7.5008430">
        <ele>424.6</ele>
        <time>2019-08-17T10:16:13Z</time>
      </trkpt>
      <trkpt lat="41.9563180" lon="-7.5008570">
        <ele>424.6</ele>
        <time>2019-08-17T10:16:14Z</time>
      </trkpt>
      <trkpt lat="41.9563420" lon="-7.5008720">
        <ele>424.6</ele>
        <time>2019-08-17T10:16:15Z</time>
      </trkpt>
      <trkpt lat="41.9563670" lon="-7.5008870">
        <ele>424.6</ele>
        <time>2019-08-17T10:16:16Z</time>
      </trkpt>
      <trkpt lat="41.9563920" lon="-7.5009020">
        <ele>424.6</ele>
        <time>2019-08-17T10:16:17Z</time>
      </trkpt>
      <trkpt lat="41.9564180" lon="-7.5009170">
        <ele>424.6</ele>
        <time>2019-08-17T10:16:18Z</time>
      </trkpt>
      <trkpt lat="41.9564430" lon="-7.5009320">
        <ele>424.6</ele>
        <time>2019-08-17T10:16:19Z</time>
      </trkpt>
      <trkpt lat="41.9564690" lon="-7.5009470">
        <ele>424.6</ele>
        <time>2019-08-17T10:16:20Z</time>
      </trkpt>
      <trkpt lat="41.9564940" lon="-7.5009620">
        <ele>424.6</ele>
        <time>2019-08-17T10:16:21Z</time>
      </trkpt>
      <trkpt lat="41.9565200" lon="-7.5009780">
        <ele>424.6</ele>
        <time>2019-08-17T10:16:22Z</time>
      </trkpt>
      <trkpt lat="41.9565450" lon="-7.5009940">
        <ele>424.6</ele>
        <time>2019-08-17T10:16:23Z</time>
      </trkpt>
      <trkpt lat="41.9565700" lon="-7.5010090">
        <ele>424.6</ele>
        <time>2019-08-17T10:16:24Z</time>
      </trkpt>
      <trkpt lat="41.9565950" lon="-7.5010250">
        <ele>424.6</ele>
        <time>2019-08-17T10:16:25Z</time>
      </trkpt>
      <trkpt lat="41.9566210" lon="-7.5010410">
        <ele>424.6</ele>
        <time>2019-08-17T10:16:26Z</time>
      </trkpt>
      <trkpt lat="41.9566460" lon="-7.5010570">
        <ele>424.6</ele>
        <time>2019-08-17T10:16:27Z</time>
      </trkpt>
      <trkpt lat="41.9566710" lon="-7.5010740">
        <ele>424.6</ele>
        <time>2019-08-17T10:16:28Z</time>
      </trkpt>
      <trkpt lat="41.9566960" lon="-7.5010900">
        <ele>424.6</ele>
        <time>2019-08-17T10:16:29Z</time>
      </trkpt>
      <trkpt lat="41.9567210" lon="-7.5011070">
        <ele>424.6</ele>
        <time>2019-08-17T10:16:30Z</time>
      </trkpt>
      <trkpt lat="41.9567460" lon="-7.5011230">
        <ele>424.6</ele>
        <time>2019-08-17T10:16:31Z</time>
      </trkpt>
      <trkpt lat="41.9567700" lon="-7.5011400">
        <ele>424.6</ele>
        <time>2019-08-17T10:16:32Z</time>
      </trkpt>
      <trkpt lat="41.9567950" lon="-7.5011570">
        <ele>424.7</ele>
        <time>2019-08-17T10:16:33Z</time>
      </trkpt>
      <trkpt lat="41.9568200" lon="-7.5011740">
        <ele>424.7</ele>
        <time>2019-08-17T10:16:34Z</time>
      </trkpt>
      <trkpt lat="41.9568450" lon="-7.5011910">
        <ele>424.7</ele>
        <time>2019-08-17T10:16:35Z</time>
      </trkpt>
      <trkpt lat="41.9568700" lon="-7.5012080">
        <ele>424.7</ele>
        <time>2019-08-17T10:16:36Z</time>
      </trkpt>
      <trkpt lat="41.9568940" lon="-7.5012250">
        <ele>424.8</ele>
        <time>2019-08-17T10:16:37Z</time>
      </trkpt>
      <trkpt lat="41.9569190" lon="-7.5012420">
        <ele>424.8</ele>
        <time>2019-08-17T10:16:38Z</time>
      </trkpt>
      <trkpt lat="41.9569430" lon="-7.5012600">
        <ele>424.9</ele>
        <time>2019-08-17T10:16:39Z</time>
      </trkpt>
      <trkpt lat="41.9569680" lon="-7.5012770">
        <ele>424.9</ele>
        <time>2019-08-17T10:16:40Z</time>
      </trkpt>
      <trkpt lat="41.9569920" lon="-7.5012950">
        <ele>425.0</ele>
        <time>2019-08-17T10:16:41Z</time>
      </trkpt>
      <trkpt lat="41.9570170" lon="-7.5013120">
        <ele>425.1</ele>
        <time>2019-08-17T10:16:42Z</time>
      </trkpt>
      <trkpt lat="41.9570410" lon="-7.5013290">
        <ele>425.2</ele>
        <time>2019-08-17T10:16:43Z</time>
      </trkpt>
      <trkpt lat="41.9570650" lon="-7.5013460">
        <ele>425.3</ele>
        <time>2019-08-17T10:16:44Z</time>
      </trkpt>
      <trkpt lat="41.9570890" lon="-7.5013630">
        <ele>425.4</ele>
        <time>2019-08-17T10:16:45Z</time>
      </trkpt>
      <trkpt lat="41.9571130" lon="-7.5013790">
        <ele>425.5</ele>
        <time>2019-08-17T10:16:46Z</time>
      </trkpt>
      <trkpt lat="41.9571360" lon="-7.5013960">
        <ele>425.7</ele>
        <time>2019-08-17T10:16:47Z</time>
      </trkpt>
      <trkpt lat="41.9571590" lon="-7.5014120">
        <ele>425.8</ele>
        <time>2019-08-17T10:16:48Z</time>
      </trkpt>
      <trkpt lat="41.9571820" lon="-7.5014270">
        <ele>425.9</ele>
        <time>2019-08-17T10:16:49Z</time>
      </trkpt>
      <trkpt lat="41.9572050" lon="-7.5014420">
        <ele>426.1</ele>
        <time>2019-08-17T10:16:50Z</time>
      </trkpt>
      <trkpt lat="41.9572280" lon="-7.5014570">
        <ele>426.2</ele>
        <time>2019-08-17T10:16:51Z</time>
      </trkpt>
      <trkpt lat="41.9572500" lon="-7.5014720">
        <ele>426.3</ele>
        <time>2019-08-17T10:16:52Z</time>
      </trkpt>
      <trkpt lat="41.9572730" lon="-7.5014860">
        <ele>426.5</ele>
        <time>2019-08-17T10:16:53Z</time>
      </trkpt>
      <trkpt lat="41.9572950" lon="-7.5015000">
        <ele>426.6</ele>
        <time>2019-08-17T10:16:54Z</time>
      </trkpt>
      <trkpt lat="41.9573170" lon="-7.5015140">
        <ele>426.8</ele>
        <time>2019-08-17T10:16:55Z</time>
      </trkpt>
      <trkpt lat="41.9573390" lon="-7.5015270">
        <ele>426.9</ele>
        <time>2019-08-17T10:16:56Z</time>
      </trkpt>
      <trkpt lat="41.9573620" lon="-7.5015410">
        <ele>427.1</ele>
        <time>2019-08-17T10:16:57Z</time>
      </trkpt>
      <trkpt lat="41.9573840" lon="-7.5015550">
        <ele>427.2</ele>
        <time>2019-08-17T10:16:58Z</time>
      </trkpt>
      <trkpt lat="41.9574060" lon="-7.5015690">
        <ele>427.4</ele>
        <time>2019-08-17T10:16:59Z</time>
      </trkpt>
      <trkpt lat="41.9574290" lon="-7.5015820">
        <ele>427.6</ele>
        <time>2019-08-17T10:17:00Z</time>
      </trkpt>
      <trkpt lat="41.9574510" lon="-7.5015960">
        <ele>427.7</ele>
        <time>2019-08-17T10:17:01Z</time>
      </trkpt>
      <trkpt lat="41.9574740" lon="-7.5016110">
        <ele>427.9</ele>
        <time>2019-08-17T10:17:02Z</time>
      </trkpt>
      <trkpt lat="41.9574980" lon="-7.5016250">
        <ele>428.1</ele>
        <time>2019-08-17T10:17:03Z</time>
      </trkpt>
      <trkpt lat="41.9575210" lon="-7.5016400">
        <ele>428.3</ele>
        <time>2019-08-17T10:17:04Z</time>
      </trkpt>
      <trkpt lat="41.9575450" lon="-7.5016550">
        <ele>428.5</ele>
        <time>2019-08-17T10:17:05Z</time>
      </trkpt>
      <trkpt lat="41.9575680" lon="-7.5016700">
        <ele>428.7</ele>
        <time>2019-08-17T10:17:06Z</time>
      </trkpt>
      <trkpt lat="41.9575920" lon="-7.5016860">
        <ele>428.9</ele>
        <time>2019-08-17T10:17:07Z</time>
      </trkpt>
      <trkpt lat="41.9576170" lon="-7.5017020">
        <ele>429.1</ele>
        <time>2019-08-17T10:17:08Z</time>
      </trkpt>
      <trkpt lat="41.9576410" lon="-7.5017180">
        <ele>429.3</ele>
        <time>2019-08-17T10:17:09Z</time>
      </trkpt>
      <trkpt lat="41.9576650" lon="-7.5017340">
        <ele>429.5</ele>
        <time>2019-08-17T10:17:10Z</time>
      </trkpt>
      <trkpt lat="41.9576890" lon="-7.5017510">
        <ele>429.7</ele>
        <time>2019-08-17T10:17:11Z</time>
      </trkpt>
      <trkpt lat="41.9577130" lon="-7.5017670">
        <ele>430.0</ele>
        <time>2019-08-17T10:17:12Z</time>
      </trkpt>
      <trkpt lat="41.9577380" lon="-7.5017840">
        <ele>430.2</ele>
        <time>2019-08-17T10:17:13Z</time>
      </trkpt>
      <trkpt lat="41.9577620" lon="-7.5018010">
        <ele>430.5</ele>
        <time>2019-08-17T10:17:14Z</time>
      </trkpt>
      <trkpt lat="41.9577850" lon="-7.5018180">
        <ele>430.7</ele>
        <time>2019-08-17T10:17:15Z</time>
      </trkpt>
      <trkpt lat="41.9578090" lon="-7.5018350">
        <ele>431.0</ele>
        <time>2019-08-17T10:17:16Z</time>
      </trkpt>
      <trkpt lat="41.9578320" lon="-7.5018520">
        <ele>431.2</ele>
        <time>2019-08-17T10:17:17Z</time>
      </trkpt>
      <trkpt lat="41.9578550" lon="-7.5018690">
        <ele>431.4</ele>
        <time>2019-08-17T10:17:18Z</time>
      </trkpt>
      <trkpt lat="41.9578780" lon="-7.5018860">
        <ele>431.7</ele>
        <time>2019-08-17T10:17:19Z</time>
      </trkpt>
      <trkpt lat="41.9579010" lon="-7.5019040">
        <ele>432.0</ele>
        <time>2019-08-17T10:17:20Z</time>
      </trkpt>
      <trkpt lat="41.9579230" lon="-7.5019210">
        <ele>432.2</ele>
        <time>2019-08-17T10:17:21Z</time>
      </trkpt>
      <trkpt lat="41.9579450" lon="-7.5019390">
        <ele>432.4</ele>
        <time>2019-08-17T10:17:22Z</time>
      </trkpt>
      <trkpt lat="41.9579660" lon="-7.5019570">
        <ele>432.7</ele>
        <time>2019-08-17T10:17:23Z</time>
      </trkpt>
      <trkpt lat="41.9579870" lon="-7.5019750">
        <ele>432.9</ele>
        <time>2019-08-17T10:17:24Z</time>
      </trkpt>
      <trkpt lat="41.9580080" lon="-7.5019940">
        <ele>433.2</ele>
        <time>2019-08-17T10:17:25Z</time>
      </trkpt>
      <trkpt lat="41.9580290" lon="-7.5020120">
        <ele>433.4</ele>
        <time>2019-08-17T10:17:26Z</time>
      </trkpt>
      <trkpt lat="41.9580490" lon="-7.5020310">
        <ele>433.6</ele>
        <time>2019-08-17T10:17:27Z</time>
      </trkpt>
      <trkpt lat="41.9580690" lon="-7.5020510">
        <ele>433.9</ele>
        <time>2019-08-17T10:17:28Z</time>
      </trkpt>
      <trkpt lat="41.9580890" lon="-7.5020700">
        <ele>434.1</ele>
        <time>2019-08-17T10:17:29Z</time>
      </trkpt>
      <trkpt lat="41.9581080" lon="-7.5020900">
        <ele>434.3</ele>
        <time>2019-08-17T10:17:30Z</time>
      </trkpt>
      <trkpt lat="41.9581270" lon="-7.5021100">
        <ele>434.5</ele>
        <time>2019-08-17T10:17:31Z</time>
      </trkpt>
      <trkpt lat="41.9581460" lon="-7.5021310">
        <ele>434.8</ele>
        <time>2019-08-17T10:17:32Z</time>
      </trkpt>
      <trkpt lat="41.9581640" lon="-7.5021520">
        <ele>435.0</ele>
        <time>2019-08-17T10:17:33Z</time>
      </trkpt>
      <trkpt lat="41.9581830" lon="-7.5021720">
        <ele>435.2</ele>
        <time>2019-08-17T10:17:34Z</time>
      </trkpt>
      <trkpt lat="41.9582020" lon="-7.5021930">
        <ele>435.5</ele>
        <time>2019-08-17T10:17:35Z</time>
      </trkpt>
      <trkpt lat="41.9582220" lon="-7.5022140">
        <ele>435.7</ele>
        <time>2019-08-17T10:17:36Z</time>
      </trkpt>
      <trkpt lat="41.9582430" lon="-7.5022340">
        <ele>436.0</ele>
        <time>2019-08-17T10:17:37Z</time>
      </trkpt>
      <trkpt lat="41.9582640" lon="-7.5022540">
        <ele>436.2</ele>
        <time>2019-08-17T10:17:38Z</time>
      </trkpt>
      <trkpt lat="41.9582850" lon="-7.5022740">
        <ele>436.5</ele>
        <time>2019-08-17T10:17:39Z</time>
      </trkpt>
      <trkpt lat="41.9583060" lon="-7.5022950">
        <ele>436.8</ele>
        <time>2019-08-17T10:17:40Z</time>
      </trkpt>
      <trkpt lat="41.9583260" lon="-7.5023170">
        <ele>437.1</ele>
        <time>2019-08-17T10:17:41Z</time>
      </trkpt>
      <trkpt lat="41.9583450" lon="-7.5023400">
        <ele>437.3</ele>
        <time>2019-08-17T10:17:42Z</time>
      </trkpt>
      <trkpt lat="41.9583640" lon="-7.5023640">
        <ele>437.6</ele>
        <time>2019-08-17T10:17:43Z</time>
      </trkpt>
      <trkpt lat="41.9583830" lon="-7.5023880">
        <ele>437.9</ele>
        <time>2019-08-17T10:17:44Z</time>
      </trkpt>
      <trkpt lat="41.9584030" lon="-7.5024110">
        <ele>438.2</ele>
        <time>2019-08-17T10:17:45Z</time>
      </trkpt>
      <trkpt lat="41.9584220" lon="-7.5024350">
        <ele>438.5</ele>
        <time>2019-08-17T10:17:46Z</time>
      </trkpt>
      <trkpt lat="41.9584410" lon="-7.5024580">
        <ele>438.8</ele>
        <time>2019-08-17T10:17:47Z</time>
      </trkpt>
      <trkpt lat="41.9584610" lon="-7.5024810">
        <ele>439.1</ele>
        <time>2019-08-17T10:17:48Z</time>
      </trkpt>
      <trkpt lat="41.9584810" lon="-7.5025040">
        <ele>439.4</ele>
        <time>2019-08-17T10:17:49Z</time>
      </trkpt>
      <trkpt lat="41.9585010" lon="-7.5025270">
        <ele>440.3</ele>
        <time>2019-08-17T10:17:50Z</time>
      </trkpt>
      <trkpt lat="41.9585210" lon="-7.5025490">
        <ele>440.5</ele>
        <time>2019-08-17T10:17:51Z</time>
      </trkpt>
      <trkpt lat="41.9585410" lon="-7.5025720">
        <ele>440.7</ele>
        <time>2019-08-17T10:17:52Z</time>
      </trkpt>
      <trkpt lat="41.9585610" lon="-7.5025940">
        <ele>440.8</ele>
        <time>2019-08-17T10:17:53Z</time>
      </trkpt>
      <trkpt lat="41.9585810" lon="-7.5026160">
        <ele>441.0</ele>
        <time>2019-08-17T10:17:54Z</time>
      </trkpt>
      <trkpt lat="41.9586010" lon="-7.5026380">
        <ele>441.2</ele>
        <time>2019-08-17T10:17:55Z</time>
      </trkpt>
      <trkpt lat="41.9586200" lon="-7.5026590">
        <ele>441.3</ele>
        <time>2019-08-17T10:17:56Z</time>
      </trkpt>
      <trkpt lat="41.9586400" lon="-7.5026800">
        <ele>441.5</ele>
        <time>2019-08-17T10:17:57Z</time>
      </trkpt>
      <trkpt lat="41.9586600" lon="-7.5027010">
        <ele>441.7</ele>
        <time>2019-08-17T10:17:58Z</time>
      </trkpt>
      <trkpt lat="41.9586800" lon="-7.5027220">
        <ele>441.8</ele>
        <time>2019-08-17T10:17:59Z</time>
      </trkpt>
      <trkpt lat="41.9587000" lon="-7.5027420">
        <ele>442.0</ele>
        <time>2019-08-17T10:18:00Z</time>
      </trkpt>
      <trkpt lat="41.9587190" lon="-7.5027630">
        <ele>442.2</ele>
        <time>2019-08-17T10:18:01Z</time>
      </trkpt>
      <trkpt lat="41.9587380" lon="-7.5027830">
        <ele>442.3</ele>
        <time>2019-08-17T10:18:02Z</time>
      </trkpt>
      <trkpt lat="41.9587580" lon="-7.5028030">
        <ele>442.5</ele>
        <time>2019-08-17T10:18:03Z</time>
      </trkpt>
      <trkpt lat="41.9587770" lon="-7.5028220">
        <ele>442.7</ele>
        <time>2019-08-17T10:18:04Z</time>
      </trkpt>
      <trkpt lat="41.9587960" lon="-7.5028420">
        <ele>442.8</ele>
        <time>2019-08-17T10:18:05Z</time>
      </trkpt>
      <trkpt lat="41.9588140" lon="-7.5028620">
        <ele>443.0</ele>
        <time>2019-08-17T10:18:06Z</time>
      </trkpt>
      <trkpt lat="41.9588330" lon="-7.5028810">
        <ele>443.1</ele>
        <time>2019-08-17T10:18:07Z</time>
      </trkpt>
      <trkpt lat="41.9588510" lon="-7.5029000">
        <ele>443.3</ele>
        <time>2019-08-17T10:18:08Z</time>
      </trkpt>
      <trkpt lat="41.9588690" lon="-7.5029200">
        <ele>443.4</ele>
        <time>2019-08-17T10:18:09Z</time>
      </trkpt>
      <trkpt lat="41.9588870" lon="-7.5029390">
        <ele>443.6</ele>
        <time>2019-08-17T10:18:10Z</time>
      </trkpt>
      <trkpt lat="41.9589050" lon="-7.5029580">
        <ele>443.7</ele>
        <time>2019-08-17T10:18:11Z</time>
      </trkpt>
      <trkpt lat="41.9589220" lon="-7.5029770">
        <ele>443.9</ele>
        <time>2019-08-17T10:18:12Z</time>
      </trkpt>
      <trkpt lat="41.9589400" lon="-7.5029960">
        <ele>444.0</ele>
        <time>2019-08-17T10:18:13Z</time>
      </trkpt>
      <trkpt lat="41.9589580" lon="-7.5030150">
        <ele>444.2</ele>
        <time>2019-08-17T10:18:14Z</time>
      </trkpt>
      <trkpt lat="41.9589750" lon="-7.5030340">
        <ele>444.3</ele>
        <time>2019-08-17T10:18:15Z</time>
      </trkpt>
      <trkpt lat="41.9589940" lon="-7.5030530">
        <ele>444.5</ele>
        <time>2019-08-17T10:18:16Z</time>
      </trkpt>
      <trkpt lat="41.9590120" lon="-7.5030730">
        <ele>444.6</ele>
        <time>2019-08-17T10:18:17Z</time>
      </trkpt>
      <trkpt lat="41.9590320" lon="-7.5030920">
        <ele>444.8</ele>
        <time>2019-08-17T10:18:18Z</time>
      </trkpt>
      <trkpt lat="41.9590510" lon="-7.5031110">
        <ele>444.9</ele>
        <time>2019-08-17T10:18:19Z</time>
      </trkpt>
      <trkpt lat="41.9590710" lon="-7.5031300">
        <ele>445.1</ele>
        <time>2019-08-17T10:18:20Z</time>
      </trkpt>
      <trkpt lat="41.9590910" lon="-7.5031490">
        <ele>445.2</ele>
        <time>2019-08-17T10:18:21Z</time>
      </trkpt>
      <trkpt lat="41.9591110" lon="-7.5031680">
        <ele>445.4</ele>
        <time>2019-08-17T10:18:22Z</time>
      </trkpt>
      <trkpt lat="41.9591310" lon="-7.5031880">
        <ele>445.5</ele>
        <time>2019-08-17T10:18:23Z</time>
      </trkpt>
      <trkpt lat="41.9591510" lon="-7.5032070">
        <ele>445.7</ele>
        <time>2019-08-17T10:18:24Z</time>
      </trkpt>
      <trkpt lat="41.9591700" lon="-7.5032260">
        <ele>445.8</ele>
        <time>2019-08-17T10:18:25Z</time>
      </trkpt>
      <trkpt lat="41.9591900" lon="-7.5032460">
        <ele>446.0</ele>
        <time>2019-08-17T10:18:26Z</time>
      </trkpt>
      <trkpt lat="41.9592090" lon="-7.5032660">
        <ele>446.2</ele>
        <time>2019-08-17T10:18:27Z</time>
      </trkpt>
      <trkpt lat="41.9592280" lon="-7.5032860">
        <ele>446.3</ele>
        <time>2019-08-17T10:18:28Z</time>
      </trkpt>
      <trkpt lat="41.9592470" lon="-7.5033050">
        <ele>446.5</ele>
        <time>2019-08-17T10:18:29Z</time>
      </trkpt>
      <trkpt lat="41.9592660" lon="-7.5033250">
        <ele>446.6</ele>
        <time>2019-08-17T10:18:30Z</time>
      </trkpt>
      <trkpt lat="41.9592850" lon="-7.5033460">
        <ele>446.8</ele>
        <time>2019-08-17T10:18:31Z</time>
      </trkpt>
      <trkpt lat="41.9593040" lon="-7.5033660">
        <ele>446.9</ele>
        <time>2019-08-17T10:18:32Z</time>
      </trkpt>
      <trkpt lat="41.9593230" lon="-7.5033860">
        <ele>447.1</ele>
        <time>2019-08-17T10:18:33Z</time>
      </trkpt>
      <trkpt lat="41.9593430" lon="-7.5034070">
        <ele>447.2</ele>
        <time>2019-08-17T10:18:34Z</time>
      </trkpt>
      <trkpt lat="41.9593620" lon="-7.5034270">
        <ele>447.4</ele>
        <time>2019-08-17T10:18:35Z</time>
      </trkpt>
      <trkpt lat="41.9593820" lon="-7.5034480">
        <ele>447.5</ele>
        <time>2019-08-17T10:18:36Z</time>
      </trkpt>
      <trkpt lat="41.9594030" lon="-7.5034690">
        <ele>447.7</ele>
        <time>2019-08-17T10:18:37Z</time>
      </trkpt>
      <trkpt lat="41.9594230" lon="-7.5034900">
        <ele>447.9</ele>
        <time>2019-08-17T10:18:38Z</time>
      </trkpt>
      <trkpt lat="41.9594440" lon="-7.5035110">
        <ele>448.0</ele>
        <time>2019-08-17T10:18:39Z</time>
      </trkpt>
      <trkpt lat="41.9594640" lon="-7.5035330">
        <ele>448.2</ele>
        <time>2019-08-17T10:18:40Z</time>
      </trkpt>
      <trkpt lat="41.9594840" lon="-7.5035540">
        <ele>448.4</ele>
        <time>2019-08-17T10:18:41Z</time>
      </trkpt>
      <trkpt lat="41.9595030" lon="-7.5035760">
        <ele>448.5</ele>
        <time>2019-08-17T10:18:42Z</time>
      </trkpt>
      <trkpt lat="41.9595210" lon="-7.5035970">
        <ele>448.7</ele>
        <time>2019-08-17T10:18:43Z</time>
      </trkpt>
      <trkpt lat="41.9595390" lon="-7.5036190">
        <ele>448.9</ele>
        <time>2019-08-17T10:18:44Z</time>
      </trkpt>
      <trkpt lat="41.9595560" lon="-7.5036410">
        <ele>449.0</ele>
        <time>2019-08-17T10:18:45Z</time>
      </trkpt>
      <trkpt lat="41.9595720" lon="-7.5036620">
        <ele>449.2</ele>
        <time>2019-08-17T10:18:46Z</time>
      </trkpt>
      <trkpt lat="41.9595870" lon="-7.5036840">
        <ele>449.3</ele>
        <time>2019-08-17T10:18:47Z</time>
      </trkpt>
      <trkpt lat="41.9596020" lon="-7.5037050">
        <ele>449.5</ele>
        <time>2019-08-17T10:18:48Z</time>
      </trkpt>
      <trkpt lat="41.9596170" lon="-7.5037250">
        <ele>449.6</ele>
        <time>2019-08-17T10:18:49Z</time>
      </trkpt>
      <trkpt lat="41.9596310" lon="-7.5037450">
        <ele>449.8</ele>
        <time>2019-08-17T10:18:50Z</time>
      </trkpt>
      <trkpt lat="41.9596460" lon="-7.5037640">
        <ele>449.9</ele>
        <time>2019-08-17T10:18:51Z</time>
      </trkpt>
      <trkpt lat="41.9596600" lon="-7.5037820">
        <ele>450.1</ele>
        <time>2019-08-17T10:18:52Z</time>
      </trkpt>
      <trkpt lat="41.9596740" lon="-7.5038000">
        <ele>450.2</ele>
        <time>2019-08-17T10:18:53Z</time>
      </trkpt>
      <trkpt lat="41.9596890" lon="-7.5038180">
        <ele>450.3</ele>
        <time>2019-08-17T10:18:54Z</time>
      </trkpt>
      <trkpt lat="41.9597030" lon="-7.5038350">
        <ele>450.4</ele>
        <time>2019-08-17T10:18:55Z</time>
      </trkpt>
      <trkpt lat="41.9597180" lon="-7.5038520">
        <ele>450.6</ele>
        <time>2019-08-17T10:18:56Z</time>
      </trkpt>
      <trkpt lat="41.9597330" lon="-7.5038690">
        <ele>450.7</ele>
        <time>2019-08-17T10:18:57Z</time>
      </trkpt>
      <trkpt lat="41.9597480" lon="-7.5038860">
        <ele>450.8</ele>
        <time>2019-08-17T10:18:58Z</time>
      </trkpt>
      <trkpt lat="41.9597630" lon="-7.5039030">
        <ele>451.0</ele>
        <time>2019-08-17T10:18:59Z</time>
      </trkpt>
      <trkpt lat="41.9597780" lon="-7.5039210">
        <ele>451.1</ele>
        <time>2019-08-17T10:19:00Z</time>
      </trkpt>
      <trkpt lat="41.9597940" lon="-7.5039390">
        <ele>451.2</ele>
        <time>2019-08-17T10:19:01Z</time>
      </trkpt>
      <trkpt lat="41.9598100" lon="-7.5039570">
        <ele>451.3</ele>
        <time>2019-08-17T10:19:02Z</time>
      </trkpt>
      <trkpt lat="41.9598260" lon="-7.5039760">
        <ele>451.4</ele>
        <time>2019-08-17T10:19:03Z</time>
      </trkpt>
      <trkpt lat="41.9598430" lon="-7.5039960">
        <ele>451.6</ele>
        <time>2019-08-17T10:19:04Z</time>
      </trkpt>
      <trkpt lat="41.9598590" lon="-7.5040160">
        <ele>451.7</ele>
        <time>2019-08-17T10:19:05Z</time>
      </trkpt>
      <trkpt lat="41.9598760" lon="-7.5040360">
        <ele>451.8</ele>
        <time>2019-08-17T10:19:06Z</time>
      </trkpt>
      <trkpt lat="41.9598930" lon="-7.5040570">
        <ele>451.9</ele>
        <time>2019-08-17T10:19:07Z</time>
      </trkpt>
      <trkpt lat="41.9599110" lon="-7.5040790">
        <ele>452.1</ele>
        <time>2019-08-17T10:19:08Z</time>
      </trkpt>
      <trkpt lat="41.9599280" lon="-7.5041000">
        <ele>452.2</ele>
        <time>2019-08-17T10:19:09Z</time>
      </trkpt>
      <trkpt lat="41.9599460" lon="-7.5041220">
        <ele>452.3</ele>
        <time>2019-08-17T10:19:10Z</time>
      </trkpt>
      <trkpt lat="41.9599630" lon="-7.5041440">
        <ele>452.4</ele>
        <time>2019-08-17T10:19:11Z</time>
      </trkpt>
      <trkpt lat="41.9599810" lon="-7.5041660">
        <ele>452.6</ele>
        <time>2019-08-17T10:19:12Z</time>
      </trkpt>
      <trkpt lat="41.9599990" lon="-7.5041890">
        <ele>452.7</ele>
        <time>2019-08-17T10:19:13Z</time>
      </trkpt>
      <trkpt lat="41.9600170" lon="-7.5042110">
        <ele>452.8</ele>
        <time>2019-08-17T10:19:14Z</time>
      </trkpt>
      <trkpt lat="41.9600350" lon="-7.5042330">
        <ele>452.9</ele>
        <time>2019-08-17T10:19:15Z</time>
      </trkpt>
      <trkpt lat="41.9600530" lon="-7.5042550">
        <ele>453.0</ele>
        <time>2019-08-17T10:19:16Z</time>
      </trkpt>
      <trkpt lat="41.9600700" lon="-7.5042770">
        <ele>453.1</ele>
        <time>2019-08-17T10:19:17Z</time>
      </trkpt>
      <trkpt lat="41.9600880" lon="-7.5042990">
        <ele>453.2</ele>
        <time>2019-08-17T10:19:18Z</time>
      </trkpt>
      <trkpt lat="41.9601060" lon="-7.5043210">
        <ele>453.3</ele>
        <time>2019-08-17T10:19:19Z</time>
      </trkpt>
      <trkpt lat="41.9601230" lon="-7.5043420">
        <ele>453.4</ele>
        <time>2019-08-17T10:19:20Z</time>
      </trkpt>
      <trkpt lat="41.9601410" lon="-7.5043640">
        <ele>453.5</ele>
        <time>2019-08-17T10:19:21Z</time>
      </trkpt>
      <trkpt lat="41.9601580" lon="-7.5043850">
        <ele>453.6</ele>
        <time>2019-08-17T10:19:22Z</time>
      </trkpt>
      <trkpt lat="41.9601760" lon="-7.5044070">
        <ele>453.7</ele>
        <time>2019-08-17T10:19:23Z</time>
      </trkpt>
      <trkpt lat="41.9601930" lon="-7.5044280">
        <ele>453.8</ele>
        <time>2019-08-17T10:19:24Z</time>
      </trkpt>
      <trkpt lat="41.9602100" lon="-7.5044490">
        <ele>453.9</ele>
        <time>2019-08-17T10:19:25Z</time>
      </trkpt>
      <trkpt lat="41.9602270" lon="-7.5044710">
        <ele>454.0</ele>
        <time>2019-08-17T10:19:26Z</time>
      </trkpt>
      <trkpt lat="41.9602440" lon="-7.5044920">
        <ele>454.1</ele>
        <time>2019-08-17T10:19:27Z</time>
      </trkpt>
      <trkpt lat="41.9602610" lon="-7.5045140">
        <ele>454.2</ele>
        <time>2019-08-17T10:19:28Z</time>
      </trkpt>
      <trkpt lat="41.9602780" lon="-7.5045360">
        <ele>454.3</ele>
        <time>2019-08-17T10:19:29Z</time>
      </trkpt>
      <trkpt lat="41.9602950" lon="-7.5045580">
        <ele>454.3</ele>
        <time>2019-08-17T10:19:30Z</time>
      </trkpt>
      <trkpt lat="41.9603120" lon="-7.5045800">
        <ele>454.4</ele>
        <time>2019-08-17T10:19:31Z</time>
      </trkpt>
      <trkpt lat="41.9603290" lon="-7.5046030">
        <ele>454.5</ele>
        <time>2019-08-17T10:19:32Z</time>
      </trkpt>
      <trkpt lat="41.9603460" lon="-7.5046250">
        <ele>454.6</ele>
        <time>2019-08-17T10:19:33Z</time>
      </trkpt>
      <trkpt lat="41.9603630" lon="-7.5046480">
        <ele>454.7</ele>
        <time>2019-08-17T10:19:34Z</time>
      </trkpt>
      <trkpt lat="41.9603800" lon="-7.5046710">
        <ele>454.8</ele>
        <time>2019-08-17T10:19:35Z</time>
      </trkpt>
      <trkpt lat="41.9603970" lon="-7.5046940">
        <ele>454.8</ele>
        <time>2019-08-17T10:19:36Z</time>
      </trkpt>
      <trkpt lat="41.9604140" lon="-7.5047170">
        <ele>454.9</ele>
        <time>2019-08-17T10:19:37Z</time>
      </trkpt>
      <trkpt lat="41.9604310" lon="-7.5047400">
        <ele>455.0</ele>
        <time>2019-08-17T10:19:38Z</time>
      </trkpt>
      <trkpt lat="41.9604480" lon="-7.5047640">
        <ele>455.0</ele>
        <time>2019-08-17T10:19:39Z</time>
      </trkpt>
      <trkpt lat="41.9604650" lon="-7.5047870">
        <ele>455.1</ele>
        <time>2019-08-17T10:19:40Z</time>
      </trkpt>
      <trkpt lat="41.9604830" lon="-7.5048100">
        <ele>455.2</ele>
        <time>2019-08-17T10:19:41Z</time>
      </trkpt>
      <trkpt lat="41.9605000" lon="-7.5048320">
        <ele>455.2</ele>
        <time>2019-08-17T10:19:42Z</time>
      </trkpt>
      <trkpt lat="41.9605180" lon="-7.5048550">
        <ele>455.3</ele>
        <time>2019-08-17T10:19:43Z</time>
      </trkpt>
      <trkpt lat="41.9605360" lon="-7.5048770">
        <ele>455.3</ele>
        <time>2019-08-17T10:19:44Z</time>
      </trkpt>
      <trkpt lat="41.9605540" lon="-7.5049000">
        <ele>455.4</ele>
        <time>2019-08-17T10:19:45Z</time>
      </trkpt>
      <trkpt lat="41.9605720" lon="-7.5049220">
        <ele>455.4</ele>
        <time>2019-08-17T10:19:46Z</time>
      </trkpt>
      <trkpt lat="41.9605910" lon="-7.5049430">
        <ele>455.5</ele>
        <time>2019-08-17T10:19:47Z</time>
      </trkpt>
      <trkpt lat="41.9606090" lon="-7.5049650">
        <ele>455.5</ele>
        <time>2019-08-17T10:19:48Z</time>
      </trkpt>
      <trkpt lat="41.9606280" lon="-7.5049870">
        <ele>455.6</ele>
        <time>2019-08-17T10:19:49Z</time>
      </trkpt>
      <trkpt lat="41.9606470" lon="-7.5050080">
        <ele>455.6</ele>
        <time>2019-08-17T10:19:50Z</time>
      </trkpt>
      <trkpt lat="41.9606660" lon="-7.5050300">
        <ele>455.9</ele>
        <time>2019-08-17T10:19:51Z</time>
      </trkpt>
      <trkpt lat="41.9606850" lon="-7.5050510">
        <ele>456.0</ele>
        <time>2019-08-17T10:19:52Z</time>
      </trkpt>
      <trkpt lat="41.9607040" lon="-7.5050720">
        <ele>456.0</ele>
        <time>2019-08-17T10:19:53Z</time>
      </trkpt>
      <trkpt lat="41.9607230" lon="-7.5050940">
        <ele>456.1</ele>
        <time>2019-08-17T10:19:54Z</time>
      </trkpt>
      <trkpt lat="41.9607410" lon="-7.5051150">
        <ele>456.2</ele>
        <time>2019-08-17T10:19:55Z</time>
      </trkpt>
      <trkpt lat="41.9607600" lon="-7.5051370">
        <ele>456.3</ele>
        <time>2019-08-17T10:19:56Z</time>
      </trkpt>
      <trkpt lat="41.9607790" lon="-7.5051580">
        <ele>456.4</ele>
        <time>2019-08-17T10:19:57Z</time>
      </trkpt>
      <trkpt lat="41.9607980" lon="-7.5051800">
        <ele>456.5</ele>
        <time>2019-08-17T10:19:58Z</time>
      </trkpt>
      <trkpt lat="41.9608160" lon="-7.5052020">
        <ele>456.5</ele>
        <time>2019-08-17T10:19:59Z</time>
      </trkpt>
      <trkpt lat="41.9608350" lon="-7.5052240">
        <ele>456.6</ele>
        <time>2019-08-17T10:20:00Z</time>
      </trkpt>
      <trkpt lat="41.9608530" lon="-7.5052460">
        <ele>456.8</ele>
        <time>2019-08-17T10:20:01Z</time>
      </trkpt>
      <trkpt lat="41.9608710" lon="-7.5052680">
        <ele>456.9</ele>
        <time>2019-08-17T10:20:02Z</time>
      </trkpt>
      <trkpt lat="41.9608890" lon="-7.5052900">
        <ele>457.0</ele>
        <time>2019-08-17T10:20:03Z</time>
      </trkpt>
      <trkpt lat="41.9609070" lon="-7.5053120">
        <ele>457.1</ele>
        <time>2019-08-17T10:20:04Z</time>
      </trkpt>
      <trkpt lat="41.9609250" lon="-7.5053350">
        <ele>457.3</ele>
        <time>2019-08-17T10:20:05Z</time>
      </trkpt>
      <trkpt lat="41.9609430" lon="-7.5053570">
        <ele>457.4</ele>
        <time>2019-08-17T10:20:06Z</time>
      </trkpt>
      <trkpt lat="41.9609610" lon="-7.5053800">
        <ele>457.5</ele>
        <time>2019-08-17T10:20:07Z</time>
      </trkpt>
      <trkpt lat="41.9609780" lon="-7.5054020">
        <ele>457.6</ele>
        <time>2019-08-17T10:20:08Z</time>
      </trkpt>
      <trkpt lat="41.9609950" lon="-7.5054240">
        <ele>457.7</ele>
        <time>2019-08-17T10:20:09Z</time>
      </trkpt>
      <trkpt lat="41.9610130" lon="-7.5054470">
        <ele>457.8</ele>
        <time>2019-08-17T10:20:10Z</time>
      </trkpt>
      <trkpt lat="41.9610300" lon="-7.5054690">
        <ele>457.8</ele>
        <time>2019-08-17T10:20:11Z</time>
      </trkpt>
      <trkpt lat="41.9610470" lon="-7.5054920">
        <ele>457.9</ele>
        <time>2019-08-17T10:20:12Z</time>
      </trkpt>
      <trkpt lat="41.9610630" lon="-7.5055140">
        <ele>458.0</ele>
        <time>2019-08-17T10:20:13Z</time>
      </trkpt>
      <trkpt lat="41.9610800" lon="-7.5055360">
        <ele>458.1</ele>
        <time>2019-08-17T10:20:14Z</time>
      </trkpt>
      <trkpt lat="41.9610960" lon="-7.5055590">
        <ele>458.2</ele>
        <time>2019-08-17T10:20:15Z</time>
      </trkpt>
      <trkpt lat="41.9611130" lon="-7.5055810">
        <ele>458.3</ele>
        <time>2019-08-17T10:20:16Z</time>
      </trkpt>
      <trkpt lat="41.9611290" lon="-7.5056040">
        <ele>458.4</ele>
        <time>2019-08-17T10:20:17Z</time>
      </trkpt>
      <trkpt lat="41.9611450" lon="-7.5056260">
        <ele>458.5</ele>
        <time>2019-08-17T10:20:18Z</time>
      </trkpt>
      <trkpt lat="41.9611620" lon="-7.5056490">
        <ele>458.9</ele>
        <time>2019-08-17T10:20:19Z</time>
      </trkpt>
      <trkpt lat="41.9611780" lon="-7.5056720">
        <ele>459.2</ele>
        <time>2019-08-17T10:20:20Z</time>
      </trkpt>
      <trkpt lat="41.9611940" lon="-7.5056950">
        <ele>459.5</ele>
        <time>2019-08-17T10:20:21Z</time>
      </trkpt>
      <trkpt lat="41.9612100" lon="-7.5057180">
        <ele>459.8</ele>
        <time>2019-08-17T10:20:22Z</time>
      </trkpt>
      <trkpt lat="41.9612260" lon="-7.5057420">
        <ele>460.2</ele>
        <time>2019-08-17T10:20:23Z</time>
      </trkpt>
      <trkpt lat="41.9612410" lon="-7.5057660">
        <ele>460.5</ele>
        <time>2019-08-17T10:20:24Z</time>
      </trkpt>
      <trkpt lat="41.9612570" lon="-7.5057890">
        <ele>460.9</ele>
        <time>2019-08-17T10:20:25Z</time>
      </trkpt>
      <trkpt lat="41.9612730" lon="-7.5058140">
        <ele>461.3</ele>
        <time>2019-08-17T10:20:26Z</time>
      </trkpt>
      <trkpt lat="41.9612890" lon="-7.5058380">
        <ele>461.6</ele>
        <time>2019-08-17T10:20:27Z</time>
      </trkpt>
      <trkpt lat="41.9613040" lon="-7.5058630">
        <ele>461.9</ele>
        <time>2019-08-17T10:20:28Z</time>
      </trkpt>
      <trkpt lat="41.9613200" lon="-7.5058880">
        <ele>462.2</ele>
        <time>2019-08-17T10:20:29Z</time>
      </trkpt>
      <trkpt lat="41.9613350" lon="-7.5059140">
        <ele>462.5</ele>
        <time>2019-08-17T10:20:30Z</time>
      </trkpt>
      <trkpt lat="41.9613490" lon="-7.5059400">
        <ele>462.8</ele>
        <time>2019-08-17T10:20:31Z</time>
      </trkpt>
      <trkpt lat="41.9613640" lon="-7.5059670">
        <ele>463.2</ele>
        <time>2019-08-17T10:20:32Z</time>
      </trkpt>
      <trkpt lat="41.9613780" lon="-7.5059940">
        <ele>463.5</ele>
        <time>2019-08-17T10:20:33Z</time>
      </trkpt>
      <trkpt lat="41.9613910" lon="-7.5060210">
        <ele>463.9</ele>
        <time>2019-08-17T10:20:34Z</time>
      </trkpt>
      <trkpt lat="41.9614050" lon="-7.5060500">
        <ele>464.3</ele>
        <time>2019-08-17T10:20:35Z</time>
      </trkpt>
      <trkpt lat="41.9614180" lon="-7.5060790">
        <ele>464.8</ele>
        <time>2019-08-17T10:20:36Z</time>
      </trkpt>
      <trkpt lat="41.9614300" lon="-7.5061090">
        <ele>465.2</ele>
        <time>2019-08-17T10:20:37Z</time>
      </trkpt>
      <trkpt lat="41.9614420" lon="-7.5061400">
        <ele>465.7</ele>
        <time>2019-08-17T10:20:38Z</time>
      </trkpt>
      <trkpt lat="41.9614530" lon="-7.5061720">
        <ele>466.2</ele>
        <time>2019-08-17T10:20:39Z</time>
      </trkpt>
      <trkpt lat="41.9614640" lon="-7.5062050">
        <ele>466.7</ele>
        <time>2019-08-17T10:20:40Z</time>
      </trkpt>
      <trkpt lat="41.9614750" lon="-7.5062380">
        <ele>467.2</ele>
        <time>2019-08-17T10:20:41Z</time>
      </trkpt>
      <trkpt lat="41.9614840" lon="-7.5062720">
        <ele>467.7</ele>
        <time>2019-08-17T10:20:42Z</time>
      </trkpt>
      <trkpt lat="41.9614920" lon="-7.5063070">
        <ele>468.3</ele>
        <time>2019-08-17T10:20:43Z</time>
      </trkpt>
      <trkpt lat="41.9614990" lon="-7.5063420">
        <ele>468.8</ele>
        <time>2019-08-17T10:20:44Z</time>
      </trkpt>
      <trkpt lat="41.9615040" lon="-7.5063770">
        <ele>469.3</ele>
        <time>2019-08-17T10:20:45Z</time>
      </trkpt>
      <trkpt lat="41.9615080" lon="-7.5064120">
        <ele>469.7</ele>
        <time>2019-08-17T10:20:46Z</time>
      </trkpt>
      <trkpt lat="41.9615120" lon="-7.5064470">
        <ele>470.2</ele>
        <time>2019-08-17T10:20:47Z</time>
      </trkpt>
      <trkpt lat="41.9615160" lon="-7.5064800">
        <ele>470.7</ele>
        <time>2019-08-17T10:20:48Z</time>
      </trkpt>
      <trkpt lat="41.9615210" lon="-7.5065120">
        <ele>471.2</ele>
        <time>2019-08-17T10:20:49Z</time>
      </trkpt>
      <trkpt lat="41.9615270" lon="-7.5065420">
        <ele>471.6</ele>
        <time>2019-08-17T10:20:50Z</time>
      </trkpt>
      <trkpt lat="41.9615320" lon="-7.5065730">
        <ele>472.1</ele>
        <time>2019-08-17T10:20:51Z</time>
      </trkpt>
      <trkpt lat="41.9615350" lon="-7.5066050">
        <ele>472.6</ele>
        <time>2019-08-17T10:20:52Z</time>
      </trkpt>
      <trkpt lat="41.9615370" lon="-7.5066380">
        <ele>473.0</ele>
        <time>2019-08-17T10:20:53Z</time>
      </trkpt>
      <trkpt lat="41.9615380" lon="-7.5066710">
        <ele>473.3</ele>
        <time>2019-08-17T10:20:54Z</time>
      </trkpt>
      <trkpt lat="41.9615380" lon="-7.5067030">
        <ele>473.7</ele>
        <time>2019-08-17T10:20:55Z</time>
      </trkpt>
      <trkpt lat="41.9615370" lon="-7.5067350">
        <ele>474.2</ele>
        <time>2019-08-17T10:20:56Z</time>
      </trkpt>
      <trkpt lat="41.9615360" lon="-7.5067660">
        <ele>474.6</ele>
        <time>2019-08-17T10:20:57Z</time>
      </trkpt>
      <trkpt lat="41.9615350" lon="-7.5067950">
        <ele>474.9</ele>
        <time>2019-08-17T10:20:58Z</time>
      </trkpt>
      <trkpt lat="41.9615340" lon="-7.5068220">
        <ele>475.3</ele>
        <time>2019-08-17T10:20:59Z</time>
      </trkpt>
      <trkpt lat="41.9615330" lon="-7.5068490">
        <ele>475.6</ele>
        <time>2019-08-17T10:21:00Z</time>
      </trkpt>
      <trkpt lat="41.9615320" lon="-7.5068770">
        <ele>475.9</ele>
        <time>2019-08-17T10:21:01Z</time>
      </trkpt>
      <trkpt lat="41.9615310" lon="-7.5069070">
        <ele>476.2</ele>
        <time>2019-08-17T10:21:02Z</time>
      </trkpt>
      <trkpt lat="41.9615300" lon="-7.5069400">
        <ele>476.6</ele>
        <time>2019-08-17T10:21:03Z</time>
      </trkpt>
      <trkpt lat="41.9615290" lon="-7.5069760">
        <ele>477.0</ele>
        <time>2019-08-17T10:21:04Z</time>
      </trkpt>
      <trkpt lat="41.9615270" lon="-7.5070120">
        <ele>477.3</ele>
        <time>2019-08-17T10:21:05Z</time>
      </trkpt>
      <trkpt lat="41.9615250" lon="-7.5070490">
        <ele>477.7</ele>
        <time>2019-08-17T10:21:06Z</time>
      </trkpt>
      <trkpt lat="41.9615220" lon="-7.5070860">
        <ele>477.9</ele>
        <time>2019-08-17T10:21:07Z</time>
      </trkpt>
      <trkpt lat="41.9615180" lon="-7.5071230">
        <ele>478.2</ele>
        <time>2019-08-17T10:21:08Z</time>
      </trkpt>
      <trkpt lat="41.9615140" lon="-7.5071590">
        <ele>478.4</ele>
        <time>2019-08-17T10:21:09Z</time>
      </trkpt>
      <trkpt lat="41.9615100" lon="-7.5071960">
        <ele>478.7</ele>
        <time>2019-08-17T10:21:10Z</time>
      </trkpt>
      <trkpt lat="41.9615050" lon="-7.5072320">
        <ele>479.0</ele>
        <time>2019-08-17T10:21:11Z</time>
      </trkpt>
      <trkpt lat="41.9615000" lon="-7.5072680">
        <ele>479.2</ele>
        <time>2019-08-17T10:21:12Z</time>
      </trkpt>
      <trkpt lat="41.9614950" lon="-7.5073040">
        <ele>479.5</ele>
        <time>2019-08-17T10:21:13Z</time>
      </trkpt>
      <trkpt lat="41.9614900" lon="-7.5073400">
        <ele>479.7</ele>
        <time>2019-08-17T10:21:14Z</time>
      </trkpt>
      <trkpt lat="41.9614850" lon="-7.5073750">
        <ele>479.9</ele>
        <time>2019-08-17T10:21:15Z</time>
      </trkpt>
      <trkpt lat="41.9614800" lon="-7.5074110">
        <ele>480.2</ele>
        <time>2019-08-17T10:21:16Z</time>
      </trkpt>
      <trkpt lat="41.9614750" lon="-7.5074460">
        <ele>480.4</ele>
        <time>2019-08-17T10:21:17Z</time>
      </trkpt>
      <trkpt lat="41.9614700" lon="-7.5074810">
        <ele>480.6</ele>
        <time>2019-08-17T10:21:18Z</time>
      </trkpt>
      <trkpt lat="41.9614650" lon="-7.5075160">
        <ele>480.8</ele>
        <time>2019-08-17T10:21:19Z</time>
      </trkpt>
      <trkpt lat="41.9614600" lon="-7.5075500">
        <ele>481.0</ele>
        <time>2019-08-17T10:21:20Z</time>
      </trkpt>
      <trkpt lat="41.9614560" lon="-7.5075840">
        <ele>481.1</ele>
        <time>2019-08-17T10:21:21Z</time>
      </trkpt>
      <trkpt lat="41.9614520" lon="-7.5076180">
        <ele>481.3</ele>
        <time>2019-08-17T10:21:22Z</time>
      </trkpt>
      <trkpt lat="41.9614480" lon="-7.5076510">
        <ele>481.4</ele>
        <time>2019-08-17T10:21:23Z</time>
      </trkpt>
      <trkpt lat="41.9614430" lon="-7.5076850">
        <ele>481.6</ele>
        <time>2019-08-17T10:21:24Z</time>
      </trkpt>
      <trkpt lat="41.9614390" lon="-7.5077170">
        <ele>481.7</ele>
        <time>2019-08-17T10:21:25Z</time>
      </trkpt>
      <trkpt lat="41.9614350" lon="-7.5077500">
        <ele>481.8</ele>
        <time>2019-08-17T10:21:26Z</time>
      </trkpt>
      <trkpt lat="41.9614310" lon="-7.5077820">
        <ele>482.0</ele>
        <time>2019-08-17T10:21:27Z</time>
      </trkpt>
      <trkpt lat="41.9614270" lon="-7.5078140">
        <ele>482.1</ele>
        <time>2019-08-17T10:21:28Z</time>
      </trkpt>
      <trkpt lat="41.9614230" lon="-7.5078450">
        <ele>482.2</ele>
        <time>2019-08-17T10:21:29Z</time>
      </trkpt>
      <trkpt lat="41.9614190" lon="-7.5078760">
        <ele>482.3</ele>
        <time>2019-08-17T10:21:30Z</time>
      </trkpt>
      <trkpt lat="41.9614140" lon="-7.5079060">
        <ele>482.4</ele>
        <time>2019-08-17T10:21:31Z</time>
      </trkpt>
      <trkpt lat="41.9614100" lon="-7.5079360">
        <ele>482.4</ele>
        <time>2019-08-17T10:21:32Z</time>
      </trkpt>
      <trkpt lat="41.9614050" lon="-7.5079660">
        <ele>482.5</ele>
        <time>2019-08-17T10:21:33Z</time>
      </trkpt>
      <trkpt lat="41.9614000" lon="-7.5079950">
        <ele>482.6</ele>
        <time>2019-08-17T10:21:34Z</time>
      </trkpt>
      <trkpt lat="41.9613950" lon="-7.5080240">
        <ele>482.6</ele>
        <time>2019-08-17T10:21:35Z</time>
      </trkpt>
      <trkpt lat="41.9613900" lon="-7.5080530">
        <ele>482.7</ele>
        <time>2019-08-17T10:21:36Z</time>
      </trkpt>
      <trkpt lat="41.9613850" lon="-7.5080810">
        <ele>482.7</ele>
        <time>2019-08-17T10:21:37Z</time>
      </trkpt>
      <trkpt lat="41.9613800" lon="-7.5081100">
        <ele>482.8</ele>
        <time>2019-08-17T10:21:38Z</time>
      </trkpt>
      <trkpt lat="41.9613760" lon="-7.5081400">
        <ele>482.8</ele>
        <time>2019-08-17T10:21:39Z</time>
      </trkpt>
      <trkpt lat="41.9613710" lon="-7.5081700">
        <ele>482.9</ele>
        <time>2019-08-17T10:21:40Z</time>
      </trkpt>
      <trkpt lat="41.9613670" lon="-7.5082000">
        <ele>482.9</ele>
        <time>2019-08-17T10:21:41Z</time>
      </trkpt>
      <trkpt lat="41.9613630" lon="-7.5082310">
        <ele>483.0</ele>
        <time>2019-08-17T10:21:42Z</time>
      </trkpt>
      <trkpt lat="41.9613590" lon="-7.5082630">
        <ele>483.1</ele>
        <time>2019-08-17T10:21:43Z</time>
      </trkpt>
      <trkpt lat="41.9613560" lon="-7.5082950">
        <ele>483.1</ele>
        <time>2019-08-17T10:21:44Z</time>
      </trkpt>
      <trkpt lat="41.9613540" lon="-7.5083290">
        <ele>483.2</ele>
        <time>2019-08-17T10:21:45Z</time>
      </trkpt>
      <trkpt lat="41.9613530" lon="-7.5083640">
        <ele>483.2</ele>
        <time>2019-08-17T10:21:46Z</time>
      </trkpt>
      <trkpt lat="41.9613530" lon="-7.5084000">
        <ele>483.3</ele>
        <time>2019-08-17T10:21:47Z</time>
      </trkpt>
      <trkpt lat="41.9613540" lon="-7.5084370">
        <ele>483.4</ele>
        <time>2019-08-17T10:21:48Z</time>
      </trkpt>
      <trkpt lat="41.9613550" lon="-7.5084740">
        <ele>483.5</ele>
        <time>2019-08-17T10:21:49Z</time>
      </trkpt>
      <trkpt lat="41.9613580" lon="-7.5085120">
        <ele>483.6</ele>
        <time>2019-08-17T10:21:50Z</time>
      </trkpt>
      <trkpt lat="41.9613630" lon="-7.5085490">
        <ele>483.7</ele>
        <time>2019-08-17T10:21:51Z</time>
      </trkpt>
      <trkpt lat="41.9613680" lon="-7.5085860">
        <ele>483.8</ele>
        <time>2019-08-17T10:21:52Z</time>
      </trkpt>
      <trkpt lat="41.9613750" lon="-7.5086230">
        <ele>483.9</ele>
        <time>2019-08-17T10:21:53Z</time>
      </trkpt>
      <trkpt lat="41.9613830" lon="-7.5086590">
        <ele>484.0</ele>
        <time>2019-08-17T10:21:54Z</time>
      </trkpt>
      <trkpt lat="41.9613930" lon="-7.5086940">
        <ele>484.1</ele>
        <time>2019-08-17T10:21:55Z</time>
      </trkpt>
      <trkpt lat="41.9614040" lon="-7.5087290">
        <ele>484.3</ele>
        <time>2019-08-17T10:21:56Z</time>
      </trkpt>
      <trkpt lat="41.9614170" lon="-7.5087630">
        <ele>484.4</ele>
        <time>2019-08-17T10:21:57Z</time>
      </trkpt>
      <trkpt lat="41.9614310" lon="-7.5087970">
        <ele>484.5</ele>
        <time>2019-08-17T10:21:58Z</time>
      </trkpt>
      <trkpt lat="41.9614470" lon="-7.5088300">
        <ele>484.7</ele>
        <time>2019-08-17T10:21:59Z</time>
      </trkpt>
      <trkpt lat="41.9614650" lon="-7.5088620">
        <ele>484.8</ele>
        <time>2019-08-17T10:22:00Z</time>
      </trkpt>
      <trkpt lat="41.9614850" lon="-7.5088940">
        <ele>485.0</ele>
        <time>2019-08-17T10:22:01Z</time>
      </trkpt>
      <trkpt lat="41.9615060" lon="-7.5089240">
        <ele>485.2</ele>
        <time>2019-08-17T10:22:02Z</time>
      </trkpt>
      <trkpt lat="41.9615290" lon="-7.5089530">
        <ele>485.4</ele>
        <time>2019-08-17T10:22:03Z</time>
      </trkpt>
      <trkpt lat="41.9615530" lon="-7.5089790">
        <ele>485.5</ele>
        <time>2019-08-17T10:22:04Z</time>
      </trkpt>
      <trkpt lat="41.9615780" lon="-7.5090040">
        <ele>485.7</ele>
        <time>2019-08-17T10:22:05Z</time>
      </trkpt>
      <trkpt lat="41.9616040" lon="-7.5090270">
        <ele>485.9</ele>
        <time>2019-08-17T10:22:06Z</time>
      </trkpt>
      <trkpt lat="41.9616320" lon="-7.5090460">
        <ele>486.1</ele>
        <time>2019-08-17T10:22:07Z</time>
      </trkpt>
      <trkpt lat="41.9616600" lon="-7.5090630">
        <ele>486.3</ele>
        <time>2019-08-17T10:22:08Z</time>
      </trkpt>
      <trkpt lat="41.9616890" lon="-7.5090790">
        <ele>486.5</ele>
        <time>2019-08-17T10:22:09Z</time>
      </trkpt>
      <trkpt lat="41.9617190" lon="-7.5090930">
        <ele>486.7</ele>
        <time>2019-08-17T10:22:10Z</time>
      </trkpt>
      <trkpt lat="41.9617500" lon="-7.5091050">
        <ele>486.9</ele>
        <time>2019-08-17T10:22:11Z</time>
      </trkpt>
      <trkpt lat="41.9617820" lon="-7.5091170">
        <ele>487.1</ele>
        <time>2019-08-17T10:22:12Z</time>
      </trkpt>
      <trkpt lat="41.9618140" lon="-7.5091280">
        <ele>487.3</ele>
        <time>2019-08-17T10:22:13Z</time>
      </trkpt>
      <trkpt lat="41.9618470" lon="-7.5091390">
        <ele>487.6</ele>
        <time>2019-08-17T10:22:14Z</time>
      </trkpt>
      <trkpt lat="41.9618800" lon="-7.5091500">
        <ele>487.8</ele>
        <time>2019-08-17T10:22:15Z</time>
      </trkpt>
      <trkpt lat="41.9619140" lon="-7.5091600">
        <ele>488.0</ele>
        <time>2019-08-17T10:22:16Z</time>
      </trkpt>
      <trkpt lat="41.9619490" lon="-7.5091700">
        <ele>488.3</ele>
        <time>2019-08-17T10:22:17Z</time>
      </trkpt>
      <trkpt lat="41.9619840" lon="-7.5091790">
        <ele>488.5</ele>
        <time>2019-08-17T10:22:18Z</time>
      </trkpt>
      <trkpt lat="41.9620190" lon="-7.5091890">
        <ele>488.8</ele>
        <time>2019-08-17T10:22:19Z</time>
      </trkpt>
      <trkpt lat="41.9620550" lon="-7.5091980">
        <ele>489.0</ele>
        <time>2019-08-17T10:22:20Z</time>
      </trkpt>
      <trkpt lat="41.9620910" lon="-7.5092070">
        <ele>489.2</ele>
        <time>2019-08-17T10:22:21Z</time>
      </trkpt>
      <trkpt lat="41.9621280" lon="-7.5092160">
        <ele>489.5</ele>
        <time>2019-08-17T10:22:22Z</time>
      </trkpt>
      <trkpt lat="41.9621650" lon="-7.5092250">
        <ele>489.8</ele>
        <time>2019-08-17T10:22:23Z</time>
      </trkpt>
      <trkpt lat="41.9622020" lon="-7.5092340">
        <ele>490.0</ele>
        <time>2019-08-17T10:22:24Z</time>
      </trkpt>
      <trkpt lat="41.9622390" lon="-7.5092430">
        <ele>490.3</ele>
        <time>2019-08-17T10:22:25Z</time>
      </trkpt>
      <trkpt lat="41.9622770" lon="-7.5092520">
        <ele>490.6</ele>
        <time>2019-08-17T10:22:26Z</time>
      </trkpt>
      <trkpt lat="41.9623150" lon="-7.5092600">
        <ele>490.9</ele>
        <time>2019-08-17T10:22:27Z</time>
      </trkpt>
      <trkpt lat="41.9623530" lon="-7.5092690">
        <ele>491.2</ele>
        <time>2019-08-17T10:22:28Z</time>
      </trkpt>
      <trkpt lat="41.9623910" lon="-7.5092780">
        <ele>491.4</ele>
        <time>2019-08-17T10:22:29Z</time>
      </trkpt>
      <trkpt lat="41.9624290" lon="-7.5092870">
        <ele>491.7</ele>
        <time>2019-08-17T10:22:30Z</time>
      </trkpt>
      <trkpt lat="41.9624670" lon="-7.5092950">
        <ele>492.0</ele>
        <time>2019-08-17T10:22:31Z</time>
      </trkpt>
      <trkpt lat="41.9625050" lon="-7.5093040">
        <ele>492.3</ele>
        <time>2019-08-17T10:22:32Z</time>
      </trkpt>
      <trkpt lat="41.9625440" lon="-7.5093130">
        <ele>492.6</ele>
        <time>2019-08-17T10:22:33Z</time>
      </trkpt>
      <trkpt lat="41.9626080" lon="-7.5093280">
        <ele>493.1</ele>
        <time>2019-08-17T10:22:34Z</time>
      </trkpt>
      <trkpt lat="41.9626330" lon="-7.5093330">
        <ele>493.3</ele>
        <time>2019-08-17T10:22:35Z</time>
      </trkpt>
      <trkpt lat="41.9626590" lon="-7.5093390">
        <ele>493.5</ele>
        <time>2019-08-17T10:22:36Z</time>
      </trkpt>
      <trkpt lat="41.9626970" lon="-7.5093470">
        <ele>493.7</ele>
        <time>2019-08-17T10:22:37Z</time>
      </trkpt>
      <trkpt lat="41.9627350" lon="-7.5093550">
        <ele>494.0</ele>
        <time>2019-08-17T10:22:38Z</time>
      </trkpt>
      <trkpt lat="41.9627990" lon="-7.5093690">
        <ele>494.4</ele>
        <time>2019-08-17T10:22:39Z</time>
      </trkpt>
      <trkpt lat="41.9628250" lon="-7.5093750">
        <ele>494.6</ele>
        <time>2019-08-17T10:22:40Z</time>
      </trkpt>
      <trkpt lat="41.9628500" lon="-7.5093800">
        <ele>494.7</ele>
        <time>2019-08-17T10:22:41Z</time>
      </trkpt>
      <trkpt lat="41.9628880" lon="-7.5093880">
        <ele>494.9</ele>
        <time>2019-08-17T10:22:42Z</time>
      </trkpt>
      <trkpt lat="41.9629260" lon="-7.5093960">
        <ele>495.1</ele>
        <time>2019-08-17T10:22:43Z</time>
      </trkpt>
      <trkpt lat="41.9629640" lon="-7.5094040">
        <ele>495.3</ele>
        <time>2019-08-17T10:22:44Z</time>
      </trkpt>
      <trkpt lat="41.9630020" lon="-7.5094110">
        <ele>495.5</ele>
        <time>2019-08-17T10:22:45Z</time>
      </trkpt>
      <trkpt lat="41.9630400" lon="-7.5094190">
        <ele>495.6</ele>
        <time>2019-08-17T10:22:46Z</time>
      </trkpt>
      <trkpt lat="41.9630780" lon="-7.5094270">
        <ele>495.7</ele>
        <time>2019-08-17T10:22:47Z</time>
      </trkpt>
      <trkpt lat="41.9631160" lon="-7.5094350">
        <ele>495.8</ele>
        <time>2019-08-17T10:22:48Z</time>
      </trkpt>
      <trkpt lat="41.9631530" lon="-7.5094420">
        <ele>495.9</ele>
        <time>2019-08-17T10:22:49Z</time>
      </trkpt>
      <trkpt lat="41.9631910" lon="-7.5094500">
        <ele>495.9</ele>
        <time>2019-08-17T10:22:50Z</time>
      </trkpt>
      <trkpt lat="41.9632290" lon="-7.5094580">
        <ele>496.0</ele>
        <time>2019-08-17T10:22:51Z</time>
      </trkpt>
      <trkpt lat="41.9632670" lon="-7.5094660">
        <ele>496.0</ele>
        <time>2019-08-17T10:22:52Z</time>
      </trkpt>
      <trkpt lat="41.9633040" lon="-7.5094740">
        <ele>496.0</ele>
        <time>2019-08-17T10:22:53Z</time>
      </trkpt>
      <trkpt lat="41.9633420" lon="-7.5094810">
        <ele>496.0</ele>
        <time>2019-08-17T10:22:54Z</time>
      </trkpt>
      <trkpt lat="41.9633790" lon="-7.5094890">
        <ele>496.0</ele>
        <time>2019-08-17T10:22:55Z</time>
      </trkpt>
      <trkpt lat="41.9634170" lon="-7.5094980">
        <ele>495.9</ele>
        <time>2019-08-17T10:22:56Z</time>
      </trkpt>
      <trkpt lat="41.9634550" lon="-7.5095060">
        <ele>495.9</ele>
        <time>2019-08-17T10:22:57Z</time>
      </trkpt>
      <trkpt lat="41.9634920" lon="-7.5095140">
        <ele>495.8</ele>
        <time>2019-08-17T10:22:58Z</time>
      </trkpt>
      <trkpt lat="41.9635300" lon="-7.5095230">
        <ele>495.7</ele>
        <time>2019-08-17T10:22:59Z</time>
      </trkpt>
      <trkpt lat="41.9635680" lon="-7.5095310">
        <ele>495.7</ele>
        <time>2019-08-17T10:23:00Z</time>
      </trkpt>
      <trkpt lat="41.9636050" lon="-7.5095400">
        <ele>495.6</ele>
        <time>2019-08-17T10:23:01Z</time>
      </trkpt>
      <trkpt lat="41.9636430" lon="-7.5095490">
        <ele>495.5</ele>
        <time>2019-08-17T10:23:02Z</time>
      </trkpt>
      <trkpt lat="41.9636810" lon="-7.5095580">
        <ele>495.4</ele>
        <time>2019-08-17T10:23:03Z</time>
      </trkpt>
      <trkpt lat="41.9637180" lon="-7.5095670">
        <ele>495.2</ele>
        <time>2019-08-17T10:23:04Z</time>
      </trkpt>
      <trkpt lat="41.9637560" lon="-7.5095770">
        <ele>495.1</ele>
        <time>2019-08-17T10:23:05Z</time>
      </trkpt>
      <trkpt lat="41.9637940" lon="-7.5095860">
        <ele>495.0</ele>
        <time>2019-08-17T10:23:06Z</time>
      </trkpt>
      <trkpt lat="41.9638310" lon="-7.5095960">
        <ele>494.9</ele>
        <time>2019-08-17T10:23:07Z</time>
      </trkpt>
      <trkpt lat="41.9638690" lon="-7.5096060">
        <ele>494.7</ele>
        <time>2019-08-17T10:23:08Z</time>
      </trkpt>
      <trkpt lat="41.9639070" lon="-7.5096170">
        <ele>494.6</ele>
        <time>2019-08-17T10:23:09Z</time>
      </trkpt>
      <trkpt lat="41.9639450" lon="-7.5096280">
        <ele>494.4</ele>
        <time>2019-08-17T10:23:10Z</time>
      </trkpt>
      <trkpt lat="41.9639820" lon="-7.5096390">
        <ele>494.3</ele>
        <time>2019-08-17T10:23:11Z</time>
      </trkpt>
      <trkpt lat="41.9640200" lon="-7.5096500">
        <ele>494.1</ele>
        <time>2019-08-17T10:23:12Z</time>
      </trkpt>
      <trkpt lat="41.9640570" lon="-7.5096620">
        <ele>494.0</ele>
        <time>2019-08-17T10:23:13Z</time>
      </trkpt>
      <trkpt lat="41.9640950" lon="-7.5096740">
        <ele>493.8</ele>
        <time>2019-08-17T10:23:14Z</time>
      </trkpt>
      <trkpt lat="41.9641320" lon="-7.5096870">
        <ele>493.7</ele>
        <time>2019-08-17T10:23:15Z</time>
      </trkpt>
      <trkpt lat="41.9641680" lon="-7.5097000">
        <ele>493.6</ele>
        <time>2019-08-17T10:23:16Z</time>
      </trkpt>
      <trkpt lat="41.9642050" lon="-7.5097140">
        <ele>493.4</ele>
        <time>2019-08-17T10:23:17Z</time>
      </trkpt>
      <trkpt lat="41.9642410" lon="-7.5097280">
        <ele>493.3</ele>
        <time>2019-08-17T10:23:18Z</time>
      </trkpt>
      <trkpt lat="41.9642770" lon="-7.5097430">
        <ele>493.2</ele>
        <time>2019-08-17T10:23:19Z</time>
      </trkpt>
      <trkpt lat="41.9643130" lon="-7.5097580">
        <ele>493.1</ele>
        <time>2019-08-17T10:23:20Z</time>
      </trkpt>
      <trkpt lat="41.9643480" lon="-7.5097740">
        <ele>493.0</ele>
        <time>2019-08-17T10:23:21Z</time>
      </trkpt>
      <trkpt lat="41.9643830" lon="-7.5097910">
        <ele>492.9</ele>
        <time>2019-08-17T10:23:22Z</time>
      </trkpt>
      <trkpt lat="41.9644180" lon="-7.5098080">
        <ele>492.8</ele>
        <time>2019-08-17T10:23:23Z</time>
      </trkpt>
      <trkpt lat="41.9644520" lon="-7.5098260">
        <ele>492.7</ele>
        <time>2019-08-17T10:23:24Z</time>
      </trkpt>
      <trkpt lat="41.9644860" lon="-7.5098450">
        <ele>492.7</ele>
        <time>2019-08-17T10:23:25Z</time>
      </trkpt>
      <trkpt lat="41.9645200" lon="-7.5098640">
        <ele>492.7</ele>
        <time>2019-08-17T10:23:26Z</time>
      </trkpt>
      <trkpt lat="41.9645540" lon="-7.5098840">
        <ele>492.7</ele>
        <time>2019-08-17T10:23:27Z</time>
      </trkpt>
      <trkpt lat="41.9645870" lon="-7.5099050">
        <ele>492.7</ele>
        <time>2019-08-17T10:23:28Z</time>
      </trkpt>
      <trkpt lat="41.9646200" lon="-7.5099270">
        <ele>492.7</ele>
        <time>2019-08-17T10:23:29Z</time>
      </trkpt>
      <trkpt lat="41.9646520" lon="-7.5099490">
        <ele>492.8</ele>
        <time>2019-08-17T10:23:30Z</time>
      </trkpt>
      <trkpt lat="41.9646850" lon="-7.5099720">
        <ele>492.9</ele>
        <time>2019-08-17T10:23:31Z</time>
      </trkpt>
      <trkpt lat="41.9647170" lon="-7.5099960">
        <ele>493.0</ele>
        <time>2019-08-17T10:23:32Z</time>
      </trkpt>
      <trkpt lat="41.9647490" lon="-7.5100200">
        <ele>493.1</ele>
        <time>2019-08-17T10:23:33Z</time>
      </trkpt>
      <trkpt lat="41.9647810" lon="-7.5100460">
        <ele>493.2</ele>
        <time>2019-08-17T10:23:34Z</time>
      </trkpt>
      <trkpt lat="41.9648120" lon="-7.5100720">
        <ele>493.4</ele>
        <time>2019-08-17T10:23:35Z</time>
      </trkpt>
      <trkpt lat="41.9648440" lon="-7.5100990">
        <ele>493.6</ele>
        <time>2019-08-17T10:23:36Z</time>
      </trkpt>
      <trkpt lat="41.9648740" lon="-7.5101260">
        <ele>493.7</ele>
        <time>2019-08-17T10:23:37Z</time>
      </trkpt>
      <trkpt lat="41.9649050" lon="-7.5101550">
        <ele>494.0</ele>
        <time>2019-08-17T10:23:38Z</time>
      </trkpt>
      <trkpt lat="41.9649350" lon="-7.5101850">
        <ele>494.2</ele>
        <time>2019-08-17T10:23:39Z</time>
      </trkpt>
      <trkpt lat="41.9649640" lon="-7.5102150">
        <ele>494.5</ele>
        <time>2019-08-17T10:23:40Z</time>
      </trkpt>
      <trkpt lat="41.9649930" lon="-7.5102470">
        <ele>494.7</ele>
        <time>2019-08-17T10:23:41Z</time>
      </trkpt>
      <trkpt lat="41.9650210" lon="-7.5102790">
        <ele>495.0</ele>
        <time>2019-08-17T10:23:42Z</time>
      </trkpt>
      <trkpt lat="41.9650480" lon="-7.5103130">
        <ele>495.3</ele>
        <time>2019-08-17T10:23:43Z</time>
      </trkpt>
      <trkpt lat="41.9650750" lon="-7.5103470">
        <ele>495.6</ele>
        <time>2019-08-17T10:23:44Z</time>
      </trkpt>
      <trkpt lat="41.9651010" lon="-7.5103830">
        <ele>496.0</ele>
        <time>2019-08-17T10:23:45Z</time>
      </trkpt>
      <trkpt lat="41.9651260" lon="-7.5104190">
        <ele>496.4</ele>
        <time>2019-08-17T10:23:46Z</time>
      </trkpt>
      <trkpt lat="41.9651500" lon="-7.5104570">
        <ele>496.7</ele>
        <time>2019-08-17T10:23:47Z</time>
      </trkpt>
      <trkpt lat="41.9651730" lon="-7.5104950">
        <ele>497.1</ele>
        <time>2019-08-17T10:23:48Z</time>
      </trkpt>
      <trkpt lat="41.9651950" lon="-7.5105350">
        <ele>497.4</ele>
        <time>2019-08-17T10:23:49Z</time>
      </trkpt>
      <trkpt lat="41.9652160" lon="-7.5105750">
        <ele>497.7</ele>
        <time>2019-08-17T10:23:50Z</time>
      </trkpt>
      <trkpt lat="41.9652360" lon="-7.5106160">
        <ele>498.1</ele>
        <time>2019-08-17T10:23:51Z</time>
      </trkpt>
      <trkpt lat="41.9652550" lon="-7.5106560">
        <ele>498.5</ele>
        <time>2019-08-17T10:23:52Z</time>
      </trkpt>
      <trkpt lat="41.9652730" lon="-7.5106970">
        <ele>498.9</ele>
        <time>2019-08-17T10:23:53Z</time>
      </trkpt>
      <trkpt lat="41.9652900" lon="-7.5107380">
        <ele>499.3</ele>
        <time>2019-08-17T10:23:54Z</time>
      </trkpt>
      <trkpt lat="41.9653060" lon="-7.5107780">
        <ele>499.8</ele>
        <time>2019-08-17T10:23:55Z</time>
      </trkpt>
      <trkpt lat="41.9653200" lon="-7.5108180">
        <ele>500.2</ele>
        <time>2019-08-17T10:23:56Z</time>
      </trkpt>
      <trkpt lat="41.9653340" lon="-7.5108580">
        <ele>500.6</ele>
        <time>2019-08-17T10:23:57Z</time>
      </trkpt>
      <trkpt lat="41.9653470" lon="-7.5108970">
        <ele>501.0</ele>
        <time>2019-08-17T10:23:58Z</time>
      </trkpt>
      <trkpt lat="41.9653600" lon="-7.5109360">
        <ele>501.3</ele>
        <time>2019-08-17T10:23:59Z</time>
      </trkpt>
      <trkpt lat="41.9653720" lon="-7.5109750">
        <ele>501.7</ele>
        <time>2019-08-17T10:24:00Z</time>
      </trkpt>
      <trkpt lat="41.9653840" lon="-7.5110140">
        <ele>502.1</ele>
        <time>2019-08-17T10:24:01Z</time>
      </trkpt>
      <trkpt lat="41.9653950" lon="-7.5110530">
        <ele>502.4</ele>
        <time>2019-08-17T10:24:02Z</time>
      </trkpt>
      <trkpt lat="41.9654050" lon="-7.5110920">
        <ele>502.8</ele>
        <time>2019-08-17T10:24:03Z</time>
      </trkpt>
      <trkpt lat="41.9654150" lon="-7.5111320">
        <ele>503.1</ele>
        <time>2019-08-17T10:24:04Z</time>
      </trkpt>
      <trkpt lat="41.9654240" lon="-7.5111720">
        <ele>503.5</ele>
        <time>2019-08-17T10:24:05Z</time>
      </trkpt>
      <trkpt lat="41.9654320" lon="-7.5112130">
        <ele>503.8</ele>
        <time>2019-08-17T10:24:06Z</time>
      </trkpt>
      <trkpt lat="41.9654390" lon="-7.5112540">
        <ele>504.1</ele>
        <time>2019-08-17T10:24:07Z</time>
      </trkpt>
      <trkpt lat="41.9654460" lon="-7.5112970">
        <ele>504.4</ele>
        <time>2019-08-17T10:24:08Z</time>
      </trkpt>
      <trkpt lat="41.9654510" lon="-7.5113400">
        <ele>504.8</ele>
        <time>2019-08-17T10:24:09Z</time>
      </trkpt>
      <trkpt lat="41.9654550" lon="-7.5113840">
        <ele>505.2</ele>
        <time>2019-08-17T10:24:10Z</time>
      </trkpt>
      <trkpt lat="41.9654580" lon="-7.5114280">
        <ele>505.6</ele>
        <time>2019-08-17T10:24:11Z</time>
      </trkpt>
      <trkpt lat="41.9654610" lon="-7.5114720">
        <ele>505.9</ele>
        <time>2019-08-17T10:24:12Z</time>
      </trkpt>
      <trkpt lat="41.9654630" lon="-7.5115160">
        <ele>506.2</ele>
        <time>2019-08-17T10:24:13Z</time>
      </trkpt>
      <trkpt lat="41.9654640" lon="-7.5115590">
        <ele>506.5</ele>
        <time>2019-08-17T10:24:14Z</time>
      </trkpt>
      <trkpt lat="41.9654640" lon="-7.5116020">
        <ele>506.8</ele>
        <time>2019-08-17T10:24:15Z</time>
      </trkpt>
      <trkpt lat="41.9654640" lon="-7.5116440">
        <ele>507.1</ele>
        <time>2019-08-17T10:24:16Z</time>
      </trkpt>
      <trkpt lat="41.9654630" lon="-7.5116850">
        <ele>507.4</ele>
        <time>2019-08-17T10:24:17Z</time>
      </trkpt>
      <trkpt lat="41.9654610" lon="-7.5117260">
        <ele>507.7</ele>
        <time>2019-08-17T10:24:18Z</time>
      </trkpt>
      <trkpt lat="41.9654580" lon="-7.5117670">
        <ele>508.0</ele>
        <time>2019-08-17T10:24:19Z</time>
      </trkpt>
      <trkpt lat="41.9654530" lon="-7.5118070">
        <ele>508.2</ele>
        <time>2019-08-17T10:24:20Z</time>
      </trkpt>
      <trkpt lat="41.9654480" lon="-7.5118470">
        <ele>508.5</ele>
        <time>2019-08-17T10:24:21Z</time>
      </trkpt>
      <trkpt lat="41.9654420" lon="-7.5118880">
        <ele>508.7</ele>
        <time>2019-08-17T10:24:22Z</time>
      </trkpt>
      <trkpt lat="41.9654340" lon="-7.5119280">
        <ele>508.9</ele>
        <time>2019-08-17T10:24:23Z</time>
      </trkpt>
      <trkpt lat="41.9654260" lon="-7.5119680">
        <ele>509.2</ele>
        <time>2019-08-17T10:24:24Z</time>
      </trkpt>
      <trkpt lat="41.9654180" lon="-7.5120090">
        <ele>509.4</ele>
        <time>2019-08-17T10:24:25Z</time>
      </trkpt>
      <trkpt lat="41.9654080" lon="-7.5120500">
        <ele>509.6</ele>
        <time>2019-08-17T10:24:26Z</time>
      </trkpt>
      <trkpt lat="41.9653990" lon="-7.5120910">
        <ele>509.9</ele>
        <time>2019-08-17T10:24:27Z</time>
      </trkpt>
      <trkpt lat="41.9653900" lon="-7.5121320">
        <ele>510.1</ele>
        <time>2019-08-17T10:24:28Z</time>
      </trkpt>
      <trkpt lat="41.9653820" lon="-7.5121740">
        <ele>510.3</ele>
        <time>2019-08-17T10:24:29Z</time>
      </trkpt>
      <trkpt lat="41.9653730" lon="-7.5122150">
        <ele>510.5</ele>
        <time>2019-08-17T10:24:30Z</time>
      </trkpt>
      <trkpt lat="41.9653640" lon="-7.5122570">
        <ele>510.8</ele>
        <time>2019-08-17T10:24:31Z</time>
      </trkpt>
      <trkpt lat="41.9653560" lon="-7.5122980">
        <ele>511.0</ele>
        <time>2019-08-17T10:24:32Z</time>
      </trkpt>
      <trkpt lat="41.9653480" lon="-7.5123400">
        <ele>511.2</ele>
        <time>2019-08-17T10:24:33Z</time>
      </trkpt>
      <trkpt lat="41.9653400" lon="-7.5123810">
        <ele>511.5</ele>
        <time>2019-08-17T10:24:34Z</time>
      </trkpt>
      <trkpt lat="41.9653320" lon="-7.5124220">
        <ele>511.7</ele>
        <time>2019-08-17T10:24:35Z</time>
      </trkpt>
      <trkpt lat="41.9653240" lon="-7.5124630">
        <ele>511.9</ele>
        <time>2019-08-17T10:24:36Z</time>
      </trkpt>
      <trkpt lat="41.9653160" lon="-7.5125030">
        <ele>512.2</ele>
        <time>2019-08-17T10:24:37Z</time>
      </trkpt>
      <trkpt lat="41.9653090" lon="-7.5125440">
        <ele>512.5</ele>
        <time>2019-08-17T10:24:38Z</time>
      </trkpt>
      <trkpt lat="41.9653020" lon="-7.5125840">
        <ele>512.8</ele>
        <time>2019-08-17T10:24:39Z</time>
      </trkpt>
      <trkpt lat="41.9652940" lon="-7.5126250">
        <ele>513.1</ele>
        <time>2019-08-17T10:24:40Z</time>
      </trkpt>
      <trkpt lat="41.9652870" lon="-7.5126650">
        <ele>513.4</ele>
        <time>2019-08-17T10:24:41Z</time>
      </trkpt>
      <trkpt lat="41.9652800" lon="-7.5127060">
        <ele>513.7</ele>
        <time>2019-08-17T10:24:42Z</time>
      </trkpt>
      <trkpt lat="41.9652730" lon="-7.5127470">
        <ele>514.1</ele>
        <time>2019-08-17T10:24:43Z</time>
      </trkpt>
      <trkpt lat="41.9652660" lon="-7.5127870">
        <ele>514.4</ele>
        <time>2019-08-17T10:24:44Z</time>
      </trkpt>
      <trkpt lat="41.9652590" lon="-7.5128280">
        <ele>514.8</ele>
        <time>2019-08-17T10:24:45Z</time>
      </trkpt>
      <trkpt lat="41.9652520" lon="-7.5128690">
        <ele>515.2</ele>
        <time>2019-08-17T10:24:46Z</time>
      </trkpt>
      <trkpt lat="41.9652450" lon="-7.5129090">
        <ele>515.6</ele>
        <time>2019-08-17T10:24:47Z</time>
      </trkpt>
      <trkpt lat="41.9652380" lon="-7.5129490">
        <ele>516.0</ele>
        <time>2019-08-17T10:24:48Z</time>
      </trkpt>
      <trkpt lat="41.9652310" lon="-7.5129890">
        <ele>516.4</ele>
        <time>2019-08-17T10:24:49Z</time>
      </trkpt>
      <trkpt lat="41.9652240" lon="-7.5130290">
        <ele>516.9</ele>
        <time>2019-08-17T10:24:50Z</time>
      </trkpt>
      <trkpt lat="41.9652180" lon="-7.5130680">
        <ele>517.3</ele>
        <time>2019-08-17T10:24:51Z</time>
      </trkpt>
      <trkpt lat="41.9652110" lon="-7.5131070">
        <ele>517.8</ele>
        <time>2019-08-17T10:24:52Z</time>
      </trkpt>
      <trkpt lat="41.9652040" lon="-7.5131450">
        <ele>518.2</ele>
        <time>2019-08-17T10:24:53Z</time>
      </trkpt>
      <trkpt lat="41.9651970" lon="-7.5131830">
        <ele>518.7</ele>
        <time>2019-08-17T10:24:54Z</time>
      </trkpt>
      <trkpt lat="41.9651900" lon="-7.5132200">
        <ele>519.2</ele>
        <time>2019-08-17T10:24:55Z</time>
      </trkpt>
      <trkpt lat="41.9651840" lon="-7.5132560">
        <ele>519.6</ele>
        <time>2019-08-17T10:24:56Z</time>
      </trkpt>
      <trkpt lat="41.9651770" lon="-7.5132920">
        <ele>520.1</ele>
        <time>2019-08-17T10:24:57Z</time>
      </trkpt>
      <trkpt lat="41.9651700" lon="-7.5133270">
        <ele>520.5</ele>
        <time>2019-08-17T10:24:58Z</time>
      </trkpt>
      <trkpt lat="41.9651640" lon="-7.5133620">
        <ele>521.0</ele>
        <time>2019-08-17T10:24:59Z</time>
      </trkpt>
      <trkpt lat="41.9651570" lon="-7.5133960">
        <ele>521.5</ele>
        <time>2019-08-17T10:25:00Z</time>
      </trkpt>
      <trkpt lat="41.9651510" lon="-7.5134300">
        <ele>521.9</ele>
        <time>2019-08-17T10:25:01Z</time>
      </trkpt>
      <trkpt lat="41.9651440" lon="-7.5134630">
        <ele>522.4</ele>
        <time>2019-08-17T10:25:02Z</time>
      </trkpt>
      <trkpt lat="41.9651380" lon="-7.5134970">
        <ele>522.8</ele>
        <time>2019-08-17T10:25:03Z</time>
      </trkpt>
      <trkpt lat="41.9651320" lon="-7.5135300">
        <ele>523.3</ele>
        <time>2019-08-17T10:25:04Z</time>
      </trkpt>
      <trkpt lat="41.9651260" lon="-7.5135620">
        <ele>523.7</ele>
        <time>2019-08-17T10:25:05Z</time>
      </trkpt>
      <trkpt lat="41.9651200" lon="-7.5135950">
        <ele>524.2</ele>
        <time>2019-08-17T10:25:06Z</time>
      </trkpt>
      <trkpt lat="41.9651150" lon="-7.5136270">
        <ele>524.6</ele>
        <time>2019-08-17T10:25:07Z</time>
      </trkpt>
      <trkpt lat="41.9651090" lon="-7.5136590">
        <ele>525.1</ele>
        <time>2019-08-17T10:25:08Z</time>
      </trkpt>
      <trkpt lat="41.9651040" lon="-7.5136910">
        <ele>525.5</ele>
        <time>2019-08-17T10:25:09Z</time>
      </trkpt>
      <trkpt lat="41.9650990" lon="-7.5137240">
        <ele>526.0</ele>
        <time>2019-08-17T10:25:10Z</time>
      </trkpt>
      <trkpt lat="41.9650940" lon="-7.5137560">
        <ele>526.4</ele>
        <time>2019-08-17T10:25:11Z</time>
      </trkpt>
      <trkpt lat="41.9650890" lon="-7.5137880">
        <ele>526.9</ele>
        <time>2019-08-17T10:25:12Z</time>
      </trkpt>
      <trkpt lat="41.9650840" lon="-7.5138200">
        <ele>527.3</ele>
        <time>2019-08-17T10:25:13Z</time>
      </trkpt>
      <trkpt lat="41.9650800" lon="-7.5138520">
        <ele>527.7</ele>
        <time>2019-08-17T10:25:14Z</time>
      </trkpt>
      <trkpt lat="41.9650760" lon="-7.5138850">
        <ele>528.2</ele>
        <time>2019-08-17T10:25:15Z</time>
      </trkpt>
      <trkpt lat="41.9650720" lon="-7.5139180">
        <ele>528.6</ele>
        <time>2019-08-17T10:25:16Z</time>
      </trkpt>
      <trkpt lat="41.9650680" lon="-7.5139510">
        <ele>529.0</ele>
        <time>2019-08-17T10:25:17Z</time>
      </trkpt>
      <trkpt lat="41.9650640" lon="-7.5139840">
        <ele>529.5</ele>
        <time>2019-08-17T10:25:18Z</time>
      </trkpt>
      <trkpt lat="41.9650600" lon="-7.5140170">
        <ele>529.9</ele>
        <time>2019-08-17T10:25:19Z</time>
      </trkpt>
      <trkpt lat="41.9650570" lon="-7.5140510">
        <ele>530.3</ele>
        <time>2019-08-17T10:25:20Z</time>
      </trkpt>
      <trkpt lat="41.9650530" lon="-7.5140850">
        <ele>530.7</ele>
        <time>2019-08-17T10:25:21Z</time>
      </trkpt>
      <trkpt lat="41.9650500" lon="-7.5141200">
        <ele>531.1</ele>
        <time>2019-08-17T10:25:22Z</time>
      </trkpt>
      <trkpt lat="41.9650470" lon="-7.5141550">
        <ele>531.5</ele>
        <time>2019-08-17T10:25:23Z</time>
      </trkpt>
      <trkpt lat="41.9650440" lon="-7.5141910">
        <ele>531.9</ele>
        <time>2019-08-17T10:25:24Z</time>
      </trkpt>
      <trkpt lat="41.9650410" lon="-7.5142260">
        <ele>532.2</ele>
        <time>2019-08-17T10:25:25Z</time>
      </trkpt>
      <trkpt lat="41.9650380" lon="-7.5142620">
        <ele>532.6</ele>
        <time>2019-08-17T10:25:26Z</time>
      </trkpt>
      <trkpt lat="41.9650360" lon="-7.5142980">
        <ele>533.0</ele>
        <time>2019-08-17T10:25:27Z</time>
      </trkpt>
      <trkpt lat="41.9650340" lon="-7.5143340">
        <ele>533.4</ele>
        <time>2019-08-17T10:25:28Z</time>
      </trkpt>
      <trkpt lat="41.9650320" lon="-7.5143700">
        <ele>533.8</ele>
        <time>2019-08-17T10:25:29Z</time>
      </trkpt>
      <trkpt lat="41.9650310" lon="-7.5144060">
        <ele>534.1</ele>
        <time>2019-08-17T10:25:30Z</time>
      </trkpt>
      <trkpt lat="41.9650290" lon="-7.5144420">
        <ele>534.5</ele>
        <time>2019-08-17T10:25:31Z</time>
      </trkpt>
      <trkpt lat="41.9650290" lon="-7.5144770">
        <ele>534.8</ele>
        <time>2019-08-17T10:25:32Z</time>
      </trkpt>
      <trkpt lat="41.9650280" lon="-7.5145120">
        <ele>535.1</ele>
        <time>2019-08-17T10:25:33Z</time>
      </trkpt>
      <trkpt lat="41.9650280" lon="-7.5145470">
        <ele>535.4</ele>
        <time>2019-08-17T10:25:34Z</time>
      </trkpt>
      <trkpt lat="41.9650290" lon="-7.5145820">
        <ele>535.7</ele>
        <time>2019-08-17T10:25:35Z</time>
      </trkpt>
      <trkpt lat="41.9650300" lon="-7.5146160">
        <ele>536.0</ele>
        <time>2019-08-17T10:25:36Z</time>
      </trkpt>
      <trkpt lat="41.9650310" lon="-7.5146500">
        <ele>536.2</ele>
        <time>2019-08-17T10:25:37Z</time>
      </trkpt>
      <trkpt lat="41.9650320" lon="-7.5146840">
        <ele>536.5</ele>
        <time>2019-08-17T10:25:38Z</time>
      </trkpt>
      <trkpt lat="41.9650340" lon="-7.5147190">
        <ele>536.7</ele>
        <time>2019-08-17T10:25:39Z</time>
      </trkpt>
      <trkpt lat="41.9650350" lon="-7.5147530">
        <ele>536.9</ele>
        <time>2019-08-17T10:25:40Z</time>
      </trkpt>
      <trkpt lat="41.9650370" lon="-7.5147880">
        <ele>537.1</ele>
        <time>2019-08-17T10:25:41Z</time>
      </trkpt>
      <trkpt lat="41.9650380" lon="-7.5148240">
        <ele>537.3</ele>
        <time>2019-08-17T10:25:42Z</time>
      </trkpt>
      <trkpt lat="41.9650390" lon="-7.5148600">
        <ele>537.5</ele>
        <time>2019-08-17T10:25:43Z</time>
      </trkpt>
      <trkpt lat="41.9650410" lon="-7.5148950">
        <ele>537.7</ele>
        <time>2019-08-17T10:25:44Z</time>
      </trkpt>
      <trkpt lat="41.9650420" lon="-7.5149300">
        <ele>537.9</ele>
        <time>2019-08-17T10:25:45Z</time>
      </trkpt>
      <trkpt lat="41.9650440" lon="-7.5149640">
        <ele>538.1</ele>
        <time>2019-08-17T10:25:46Z</time>
      </trkpt>
      <trkpt lat="41.9650460" lon="-7.5149960">
        <ele>538.3</ele>
        <time>2019-08-17T10:25:47Z</time>
      </trkpt>
      <trkpt lat="41.9650480" lon="-7.5150270">
        <ele>538.4</ele>
        <time>2019-08-17T10:25:48Z</time>
      </trkpt>
      <trkpt lat="41.9650510" lon="-7.5150570">
        <ele>538.5</ele>
        <time>2019-08-17T10:25:49Z</time>
      </trkpt>
      <trkpt lat="41.9650540" lon="-7.5150850">
        <ele>538.6</ele>
        <time>2019-08-17T10:25:50Z</time>
      </trkpt>
      <trkpt lat="41.9650570" lon="-7.5151130">
        <ele>538.7</ele>
        <time>2019-08-17T10:25:51Z</time>
      </trkpt>
      <trkpt lat="41.9650600" lon="-7.5151410">
        <ele>538.8</ele>
        <time>2019-08-17T10:25:52Z</time>
      </trkpt>
      <trkpt lat="41.9650630" lon="-7.5151680">
        <ele>538.9</ele>
        <time>2019-08-17T10:25:53Z</time>
      </trkpt>
      <trkpt lat="41.9650670" lon="-7.5151970">
        <ele>539.0</ele>
        <time>2019-08-17T10:25:54Z</time>
      </trkpt>
      <trkpt lat="41.9650700" lon="-7.5152260">
        <ele>539.1</ele>
        <time>2019-08-17T10:25:55Z</time>
      </trkpt>
      <trkpt lat="41.9650740" lon="-7.5152560">
        <ele>539.2</ele>
        <time>2019-08-17T10:25:56Z</time>
      </trkpt>
      <trkpt lat="41.9650770" lon="-7.5152860">
        <ele>539.3</ele>
        <time>2019-08-17T10:25:57Z</time>
      </trkpt>
      <trkpt lat="41.9650820" lon="-7.5153160">
        <ele>539.4</ele>
        <time>2019-08-17T10:25:58Z</time>
      </trkpt>
      <trkpt lat="41.9650860" lon="-7.5153470">
        <ele>539.5</ele>
        <time>2019-08-17T10:25:59Z</time>
      </trkpt>
      <trkpt lat="41.9650910" lon="-7.5153770">
        <ele>539.5</ele>
        <time>2019-08-17T10:26:00Z</time>
      </trkpt>
      <trkpt lat="41.9650970" lon="-7.5154080">
        <ele>539.6</ele>
        <time>2019-08-17T10:26:01Z</time>
      </trkpt>
      <trkpt lat="41.9651020" lon="-7.5154400">
        <ele>539.7</ele>
        <time>2019-08-17T10:26:02Z</time>
      </trkpt>
      <trkpt lat="41.9651080" lon="-7.5154720">
        <ele>539.8</ele>
        <time>2019-08-17T10:26:03Z</time>
      </trkpt>
      <trkpt lat="41.9651150" lon="-7.5155050">
        <ele>539.8</ele>
        <time>2019-08-17T10:26:04Z</time>
      </trkpt>
      <trkpt lat="41.9651210" lon="-7.5155380">
        <ele>539.9</ele>
        <time>2019-08-17T10:26:05Z</time>
      </trkpt>
      <trkpt lat="41.9651280" lon="-7.5155710">
        <ele>540.0</ele>
        <time>2019-08-17T10:26:06Z</time>
      </trkpt>
      <trkpt lat="41.9651360" lon="-7.5156050">
        <ele>540.0</ele>
        <time>2019-08-17T10:26:07Z</time>
      </trkpt>
      <trkpt lat="41.9651440" lon="-7.5156390">
        <ele>540.1</ele>
        <time>2019-08-17T10:26:08Z</time>
      </trkpt>
      <trkpt lat="41.9651520" lon="-7.5156730">
        <ele>540.1</ele>
        <time>2019-08-17T10:26:09Z</time>
      </trkpt>
      <trkpt lat="41.9651600" lon="-7.5157070">
        <ele>540.2</ele>
        <time>2019-08-17T10:26:10Z</time>
      </trkpt>
      <trkpt lat="41.9651690" lon="-7.5157410">
        <ele>540.3</ele>
        <time>2019-08-17T10:26:11Z</time>
      </trkpt>
      <trkpt lat="41.9651780" lon="-7.5157740">
        <ele>540.3</ele>
        <time>2019-08-17T10:26:12Z</time>
      </trkpt>
      <trkpt lat="41.9651880" lon="-7.5158080">
        <ele>540.4</ele>
        <time>2019-08-17T10:26:13Z</time>
      </trkpt>
      <trkpt lat="41.9651970" lon="-7.5158410">
        <ele>540.4</ele>
        <time>2019-08-17T10:26:14Z</time>
      </trkpt>
      <trkpt lat="41.9652080" lon="-7.5158740">
        <ele>540.5</ele>
        <time>2019-08-17T10:26:15Z</time>
      </trkpt>
      <trkpt lat="41.9652180" lon="-7.5159070">
        <ele>540.6</ele>
        <time>2019-08-17T10:26:16Z</time>
      </trkpt>
      <trkpt lat="41.9652290" lon="-7.5159400">
        <ele>540.7</ele>
        <time>2019-08-17T10:26:17Z</time>
      </trkpt>
      <trkpt lat="41.9652400" lon="-7.5159720">
        <ele>540.7</ele>
        <time>2019-08-17T10:26:18Z</time>
      </trkpt>
      <trkpt lat="41.9652520" lon="-7.5160050">
        <ele>540.9</ele>
        <time>2019-08-17T10:26:19Z</time>
      </trkpt>
      <trkpt lat="41.9652630" lon="-7.5160380">
        <ele>541.0</ele>
        <time>2019-08-17T10:26:20Z</time>
      </trkpt>
      <trkpt lat="41.9652750" lon="-7.5160710">
        <ele>541.1</ele>
        <time>2019-08-17T10:26:21Z</time>
      </trkpt>
      <trkpt lat="41.9652870" lon="-7.5161050">
        <ele>541.2</ele>
        <time>2019-08-17T10:26:22Z</time>
      </trkpt>
      <trkpt lat="41.9652990" lon="-7.5161390">
        <ele>541.4</ele>
        <time>2019-08-17T10:26:23Z</time>
      </trkpt>
      <trkpt lat="41.9653110" lon="-7.5161740">
        <ele>541.5</ele>
        <time>2019-08-17T10:26:24Z</time>
      </trkpt>
      <trkpt lat="41.9653230" lon="-7.5162080">
        <ele>541.7</ele>
        <time>2019-08-17T10:26:25Z</time>
      </trkpt>
      <trkpt lat="41.9653350" lon="-7.5162430">
        <ele>541.8</ele>
        <time>2019-08-17T10:26:26Z</time>
      </trkpt>
      <trkpt lat="41.9653480" lon="-7.5162780">
        <ele>542.0</ele>
        <time>2019-08-17T10:26:27Z</time>
      </trkpt>
      <trkpt lat="41.9653610" lon="-7.5163120">
        <ele>542.2</ele>
        <time>2019-08-17T10:26:28Z</time>
      </trkpt>
      <trkpt lat="41.9653740" lon="-7.5163460">
        <ele>542.4</ele>
        <time>2019-08-17T10:26:29Z</time>
      </trkpt>
      <trkpt lat="41.9653870" lon="-7.5163800">
        <ele>542.6</ele>
        <time>2019-08-17T10:26:30Z</time>
      </trkpt>
      <trkpt lat="41.9654000" lon="-7.5164130">
        <ele>542.8</ele>
        <time>2019-08-17T10:26:31Z</time>
      </trkpt>
      <trkpt lat="41.9654140" lon="-7.5164470">
        <ele>543.1</ele>
        <time>2019-08-17T10:26:32Z</time>
      </trkpt>
      <trkpt lat="41.9654280" lon="-7.5164800">
        <ele>543.3</ele>
        <time>2019-08-17T10:26:33Z</time>
      </trkpt>
      <trkpt lat="41.9654430" lon="-7.5165120">
        <ele>543.5</ele>
        <time>2019-08-17T10:26:34Z</time>
      </trkpt>
      <trkpt lat="41.9654580" lon="-7.5165450">
        <ele>543.8</ele>
        <time>2019-08-17T10:26:35Z</time>
      </trkpt>
      <trkpt lat="41.9654730" lon="-7.5165770">
        <ele>544.1</ele>
        <time>2019-08-17T10:26:36Z</time>
      </trkpt>
      <trkpt lat="41.9654890" lon="-7.5166090">
        <ele>544.3</ele>
        <time>2019-08-17T10:26:37Z</time>
      </trkpt>
      <trkpt lat="41.9655050" lon="-7.5166410">
        <ele>544.6</ele>
        <time>2019-08-17T10:26:38Z</time>
      </trkpt>
      <trkpt lat="41.9655220" lon="-7.5166720">
        <ele>544.9</ele>
        <time>2019-08-17T10:26:39Z</time>
      </trkpt>
      <trkpt lat="41.9655390" lon="-7.5167030">
        <ele>545.2</ele>
        <time>2019-08-17T10:26:40Z</time>
      </trkpt>
      <trkpt lat="41.9655570" lon="-7.5167340">
        <ele>545.5</ele>
        <time>2019-08-17T10:26:41Z</time>
      </trkpt>
      <trkpt lat="41.9655760" lon="-7.5167650">
        <ele>545.8</ele>
        <time>2019-08-17T10:26:42Z</time>
      </trkpt>
      <trkpt lat="41.9655950" lon="-7.5167960">
        <ele>546.1</ele>
        <time>2019-08-17T10:26:43Z</time>
      </trkpt>
      <trkpt lat="41.9656140" lon="-7.5168260">
        <ele>546.4</ele>
        <time>2019-08-17T10:26:44Z</time>
      </trkpt>
      <trkpt lat="41.9656340" lon="-7.5168560">
        <ele>546.7</ele>
        <time>2019-08-17T10:26:45Z</time>
      </trkpt>
      <trkpt lat="41.9656550" lon="-7.5168860">
        <ele>547.0</ele>
        <time>2019-08-17T10:26:46Z</time>
      </trkpt>
      <trkpt lat="41.9656760" lon="-7.5169160">
        <ele>547.3</ele>
        <time>2019-08-17T10:26:47Z</time>
      </trkpt>
      <trkpt lat="41.9656970" lon="-7.5169460">
        <ele>547.7</ele>
        <time>2019-08-17T10:26:48Z</time>
      </trkpt>
      <trkpt lat="41.9657190" lon="-7.5169760">
        <ele>548.0</ele>
        <time>2019-08-17T10:26:49Z</time>
      </trkpt>
      <trkpt lat="41.9657410" lon="-7.5170050">
        <ele>548.4</ele>
        <time>2019-08-17T10:26:50Z</time>
      </trkpt>
      <trkpt lat="41.9657630" lon="-7.5170340">
        <ele>548.8</ele>
        <time>2019-08-17T10:26:51Z</time>
      </trkpt>
      <trkpt lat="41.9657850" lon="-7.5170640">
        <ele>549.1</ele>
        <time>2019-08-17T10:26:52Z</time>
      </trkpt>
      <trkpt lat="41.9658070" lon="-7.5170930">
        <ele>549.5</ele>
        <time>2019-08-17T10:26:53Z</time>
      </trkpt>
      <trkpt lat="41.9658300" lon="-7.5171220">
        <ele>549.8</ele>
        <time>2019-08-17T10:26:54Z</time>
      </trkpt>
      <trkpt lat="41.9658530" lon="-7.5171510">
        <ele>550.2</ele>
        <time>2019-08-17T10:26:55Z</time>
      </trkpt>
      <trkpt lat="41.9658750" lon="-7.5171800">
        <ele>550.5</ele>
        <time>2019-08-17T10:26:56Z</time>
      </trkpt>
      <trkpt lat="41.9658980" lon="-7.5172090">
        <ele>550.9</ele>
        <time>2019-08-17T10:26:57Z</time>
      </trkpt>
      <trkpt lat="41.9659210" lon="-7.5172370">
        <ele>551.2</ele>
        <time>2019-08-17T10:26:58Z</time>
      </trkpt>
      <trkpt lat="41.9659440" lon="-7.5172660">
        <ele>551.5</ele>
        <time>2019-08-17T10:26:59Z</time>
      </trkpt>
      <trkpt lat="41.9659670" lon="-7.5172940">
        <ele>551.9</ele>
        <time>2019-08-17T10:27:00Z</time>
      </trkpt>
      <trkpt lat="41.9659900" lon="-7.5173230">
        <ele>552.2</ele>
        <time>2019-08-17T10:27:01Z</time>
      </trkpt>
      <trkpt lat="41.9660120" lon="-7.5173510">
        <ele>552.5</ele>
        <time>2019-08-17T10:27:02Z</time>
      </trkpt>
      <trkpt lat="41.9660350" lon="-7.5173790">
        <ele>552.8</ele>
        <time>2019-08-17T10:27:03Z</time>
      </trkpt>
      <trkpt lat="41.9660580" lon="-7.5174070">
        <ele>553.1</ele>
        <time>2019-08-17T10:27:04Z</time>
      </trkpt>
      <trkpt lat="41.9660810" lon="-7.5174340">
        <ele>553.4</ele>
        <time>2019-08-17T10:27:05Z</time>
      </trkpt>
      <trkpt lat="41.9661050" lon="-7.5174620">
        <ele>553.7</ele>
        <time>2019-08-17T10:27:06Z</time>
      </trkpt>
      <trkpt lat="41.9661280" lon="-7.5174890">
        <ele>553.9</ele>
        <time>2019-08-17T10:27:07Z</time>
      </trkpt>
      <trkpt lat="41.9661510" lon="-7.5175150">
        <ele>554.2</ele>
        <time>2019-08-17T10:27:08Z</time>
      </trkpt>
      <trkpt lat="41.9661740" lon="-7.5175420">
        <ele>554.4</ele>
        <time>2019-08-17T10:27:09Z</time>
      </trkpt>
      <trkpt lat="41.9661970" lon="-7.5175680">
        <ele>554.6</ele>
        <time>2019-08-17T10:27:10Z</time>
      </trkpt>
      <trkpt lat="41.9662210" lon="-7.5175940">
        <ele>554.8</ele>
        <time>2019-08-17T10:27:11Z</time>
      </trkpt>
      <trkpt lat="41.9662440" lon="-7.5176200">
        <ele>555.0</ele>
        <time>2019-08-17T10:27:12Z</time>
      </trkpt>
      <trkpt lat="41.9662680" lon="-7.5176460">
        <ele>555.1</ele>
        <time>2019-08-17T10:27:13Z</time>
      </trkpt>
      <trkpt lat="41.9662920" lon="-7.5176710">
        <ele>555.3</ele>
        <time>2019-08-17T10:27:14Z</time>
      </trkpt>
      <trkpt lat="41.9663160" lon="-7.5176960">
        <ele>555.4</ele>
        <time>2019-08-17T10:27:15Z</time>
      </trkpt>
      <trkpt lat="41.9663400" lon="-7.5177210">
        <ele>555.5</ele>
        <time>2019-08-17T10:27:16Z</time>
      </trkpt>
      <trkpt lat="41.9663640" lon="-7.5177460">
        <ele>555.6</ele>
        <time>2019-08-17T10:27:17Z</time>
      </trkpt>
      <trkpt lat="41.9663890" lon="-7.5177700">
        <ele>555.7</ele>
        <time>2019-08-17T10:27:18Z</time>
      </trkpt>
      <trkpt lat="41.9664150" lon="-7.5177950">
        <ele>555.7</ele>
        <time>2019-08-17T10:27:19Z</time>
      </trkpt>
      <trkpt lat="41.9664400" lon="-7.5178190">
        <ele>555.7</ele>
        <time>2019-08-17T10:27:20Z</time>
      </trkpt>
      <trkpt lat="41.9664660" lon="-7.5178430">
        <ele>555.7</ele>
        <time>2019-08-17T10:27:21Z</time>
      </trkpt>
      <trkpt lat="41.9664920" lon="-7.5178670">
        <ele>555.7</ele>
        <time>2019-08-17T10:27:22Z</time>
      </trkpt>
      <trkpt lat="41.9665190" lon="-7.5178910">
        <ele>555.7</ele>
        <time>2019-08-17T10:27:23Z</time>
      </trkpt>
      <trkpt lat="41.9665470" lon="-7.5179140">
        <ele>555.6</ele>
        <time>2019-08-17T10:27:24Z</time>
      </trkpt>
      <trkpt lat="41.9665740" lon="-7.5179380">
        <ele>555.6</ele>
        <time>2019-08-17T10:27:25Z</time>
      </trkpt>
      <trkpt lat="41.9666020" lon="-7.5179610">
        <ele>555.5</ele>
        <time>2019-08-17T10:27:26Z</time>
      </trkpt>
      <trkpt lat="41.9666300" lon="-7.5179850">
        <ele>555.4</ele>
        <time>2019-08-17T10:27:27Z</time>
      </trkpt>
      <trkpt lat="41.9666590" lon="-7.5180080">
        <ele>555.2</ele>
        <time>2019-08-17T10:27:28Z</time>
      </trkpt>
      <trkpt lat="41.9666870" lon="-7.5180310">
        <ele>555.1</ele>
        <time>2019-08-17T10:27:29Z</time>
      </trkpt>
      <trkpt lat="41.9667160" lon="-7.5180540">
        <ele>555.0</ele>
        <time>2019-08-17T10:27:30Z</time>
      </trkpt>
      <trkpt lat="41.9667450" lon="-7.5180780">
        <ele>554.8</ele>
        <time>2019-08-17T10:27:31Z</time>
      </trkpt>
      <trkpt lat="41.9667740" lon="-7.5181000">
        <ele>554.7</ele>
        <time>2019-08-17T10:27:32Z</time>
      </trkpt>
      <trkpt lat="41.9668030" lon="-7.5181230">
        <ele>554.6</ele>
        <time>2019-08-17T10:27:33Z</time>
      </trkpt>
      <trkpt lat="41.9668320" lon="-7.5181460">
        <ele>554.4</ele>
        <time>2019-08-17T10:27:34Z</time>
      </trkpt>
      <trkpt lat="41.9668610" lon="-7.5181690">
        <ele>554.3</ele>
        <time>2019-08-17T10:27:35Z</time>
      </trkpt>
      <trkpt lat="41.9668900" lon="-7.5181920">
        <ele>554.2</ele>
        <time>2019-08-17T10:27:36Z</time>
      </trkpt>
      <trkpt lat="41.9669180" lon="-7.5182150">
        <ele>554.0</ele>
        <time>2019-08-17T10:27:37Z</time>
      </trkpt>
      <trkpt lat="41.9669470" lon="-7.5182370">
        <ele>553.9</ele>
        <time>2019-08-17T10:27:38Z</time>
      </trkpt>
      <trkpt lat="41.9669760" lon="-7.5182600">
        <ele>553.8</ele>
        <time>2019-08-17T10:27:39Z</time>
      </trkpt>
      <trkpt lat="41.9670050" lon="-7.5182830">
        <ele>553.8</ele>
        <time>2019-08-17T10:27:40Z</time>
      </trkpt>
      <trkpt lat="41.9670330" lon="-7.5183060">
        <ele>553.7</ele>
        <time>2019-08-17T10:27:41Z</time>
      </trkpt>
      <trkpt lat="41.9670620" lon="-7.5183290">
        <ele>553.6</ele>
        <time>2019-08-17T10:27:42Z</time>
      </trkpt>
      <trkpt lat="41.9670910" lon="-7.5183520">
        <ele>553.6</ele>
        <time>2019-08-17T10:27:43Z</time>
      </trkpt>
      <trkpt lat="41.9671210" lon="-7.5183750">
        <ele>553.5</ele>
        <time>2019-08-17T10:27:44Z</time>
      </trkpt>
      <trkpt lat="41.9671500" lon="-7.5183980">
        <ele>553.5</ele>
        <time>2019-08-17T10:27:45Z</time>
      </trkpt>
      <trkpt lat="41.9671800" lon="-7.5184220">
        <ele>553.5</ele>
        <time>2019-08-17T10:27:46Z</time>
      </trkpt>
      <trkpt lat="41.9672110" lon="-7.5184460">
        <ele>553.5</ele>
        <time>2019-08-17T10:27:47Z</time>
      </trkpt>
      <trkpt lat="41.9672410" lon="-7.5184700">
        <ele>553.5</ele>
        <time>2019-08-17T10:27:48Z</time>
      </trkpt>
      <trkpt lat="41.9672720" lon="-7.5184940">
        <ele>553.5</ele>
        <time>2019-08-17T10:27:49Z</time>
      </trkpt>
      <trkpt lat="41.9673040" lon="-7.5185190">
        <ele>553.5</ele>
        <time>2019-08-17T10:27:50Z</time>
      </trkpt>
      <trkpt lat="41.9673350" lon="-7.5185440">
        <ele>553.5</ele>
        <time>2019-08-17T10:27:51Z</time>
      </trkpt>
      <trkpt lat="41.9673650" lon="-7.5185680">
        <ele>553.5</ele>
        <time>2019-08-17T10:27:52Z</time>
      </trkpt>
      <trkpt lat="41.9673940" lon="-7.5185920">
        <ele>553.5</ele>
        <time>2019-08-17T10:27:53Z</time>
      </trkpt>
      <trkpt lat="41.9674210" lon="-7.5186150">
        <ele>553.5</ele>
        <time>2019-08-17T10:27:54Z</time>
      </trkpt>
      <trkpt lat="41.9674470" lon="-7.5186380">
        <ele>553.6</ele>
        <time>2019-08-17T10:27:55Z</time>
      </trkpt>
      <trkpt lat="41.9674730" lon="-7.5186610">
        <ele>553.6</ele>
        <time>2019-08-17T10:27:56Z</time>
      </trkpt>
      <trkpt lat="41.9675020" lon="-7.5186850">
        <ele>553.6</ele>
        <time>2019-08-17T10:27:57Z</time>
      </trkpt>
      <trkpt lat="41.9675320" lon="-7.5187090">
        <ele>553.6</ele>
        <time>2019-08-17T10:27:58Z</time>
      </trkpt>
      <trkpt lat="41.9675630" lon="-7.5187340">
        <ele>553.7</ele>
        <time>2019-08-17T10:27:59Z</time>
      </trkpt>
      <trkpt lat="41.9675950" lon="-7.5187590">
        <ele>553.7</ele>
        <time>2019-08-17T10:28:00Z</time>
      </trkpt>
      <trkpt lat="41.9676270" lon="-7.5187840">
        <ele>553.8</ele>
        <time>2019-08-17T10:28:01Z</time>
      </trkpt>
      <trkpt lat="41.9676600" lon="-7.5188100">
        <ele>553.8</ele>
        <time>2019-08-17T10:28:02Z</time>
      </trkpt>
      <trkpt lat="41.9676920" lon="-7.5188360">
        <ele>553.9</ele>
        <time>2019-08-17T10:28:03Z</time>
      </trkpt>
      <trkpt lat="41.9677240" lon="-7.5188620">
        <ele>553.9</ele>
        <time>2019-08-17T10:28:04Z</time>
      </trkpt>
      <trkpt lat="41.9677560" lon="-7.5188890">
        <ele>554.0</ele>
        <time>2019-08-17T10:28:05Z</time>
      </trkpt>
      <trkpt lat="41.9677880" lon="-7.5189160">
        <ele>554.1</ele>
        <time>2019-08-17T10:28:06Z</time>
      </trkpt>
      <trkpt lat="41.9678200" lon="-7.5189430">
        <ele>554.2</ele>
        <time>2019-08-17T10:28:07Z</time>
      </trkpt>
      <trkpt lat="41.9678520" lon="-7.5189710">
        <ele>554.3</ele>
        <time>2019-08-17T10:28:08Z</time>
      </trkpt>
      <trkpt lat="41.9678830" lon="-7.5189980">
        <ele>554.4</ele>
        <time>2019-08-17T10:28:09Z</time>
      </trkpt>
      <trkpt lat="41.9679150" lon="-7.5190250">
        <ele>554.5</ele>
        <time>2019-08-17T10:28:10Z</time>
      </trkpt>
      <trkpt lat="41.9679460" lon="-7.5190530">
        <ele>554.6</ele>
        <time>2019-08-17T10:28:11Z</time>
      </trkpt>
      <trkpt lat="41.9679770" lon="-7.5190800">
        <ele>554.8</ele>
        <time>2019-08-17T10:28:12Z</time>
      </trkpt>
      <trkpt lat="41.9680090" lon="-7.5191070">
        <ele>555.0</ele>
        <time>2019-08-17T10:28:13Z</time>
      </trkpt>
      <trkpt lat="41.9680400" lon="-7.5191340">
        <ele>555.2</ele>
        <time>2019-08-17T10:28:14Z</time>
      </trkpt>
      <trkpt lat="41.9680710" lon="-7.5191610">
        <ele>555.4</ele>
        <time>2019-08-17T10:28:15Z</time>
      </trkpt>
      <trkpt lat="41.9681030" lon="-7.5191870">
        <ele>555.6</ele>
        <time>2019-08-17T10:28:16Z</time>
      </trkpt>
      <trkpt lat="41.9681350" lon="-7.5192130">
        <ele>555.8</ele>
        <time>2019-08-17T10:28:17Z</time>
      </trkpt>
      <trkpt lat="41.9681660" lon="-7.5192390">
        <ele>556.1</ele>
        <time>2019-08-17T10:28:18Z</time>
      </trkpt>
      <trkpt lat="41.9681980" lon="-7.5192650">
        <ele>556.4</ele>
        <time>2019-08-17T10:28:19Z</time>
      </trkpt>
      <trkpt lat="41.9682300" lon="-7.5192900">
        <ele>556.6</ele>
        <time>2019-08-17T10:28:20Z</time>
      </trkpt>
      <trkpt lat="41.9682620" lon="-7.5193150">
        <ele>556.9</ele>
        <time>2019-08-17T10:28:21Z</time>
      </trkpt>
      <trkpt lat="41.9682940" lon="-7.5193400">
        <ele>557.2</ele>
        <time>2019-08-17T10:28:22Z</time>
      </trkpt>
      <trkpt lat="41.9683270" lon="-7.5193650">
        <ele>557.5</ele>
        <time>2019-08-17T10:28:23Z</time>
      </trkpt>
      <trkpt lat="41.9683590" lon="-7.5193890">
        <ele>557.9</ele>
        <time>2019-08-17T10:28:24Z</time>
      </trkpt>
      <trkpt lat="41.9683910" lon="-7.5194130">
        <ele>558.2</ele>
        <time>2019-08-17T10:28:25Z</time>
      </trkpt>
      <trkpt lat="41.9684240" lon="-7.5194380">
        <ele>558.5</ele>
        <time>2019-08-17T10:28:26Z</time>
      </trkpt>
      <trkpt lat="41.9684570" lon="-7.5194620">
        <ele>558.8</ele>
        <time>2019-08-17T10:28:27Z</time>
      </trkpt>
      <trkpt lat="41.9684890" lon="-7.5194860">
        <ele>559.2</ele>
        <time>2019-08-17T10:28:28Z</time>
      </trkpt>
      <trkpt lat="41.9685220" lon="-7.5195100">
        <ele>559.5</ele>
        <time>2019-08-17T10:28:29Z</time>
      </trkpt>
      <trkpt lat="41.9685550" lon="-7.5195330">
        <ele>559.8</ele>
        <time>2019-08-17T10:28:30Z</time>
      </trkpt>
      <trkpt lat="41.9685880" lon="-7.5195570">
        <ele>560.2</ele>
        <time>2019-08-17T10:28:31Z</time>
      </trkpt>
      <trkpt lat="41.9686210" lon="-7.5195810">
        <ele>560.5</ele>
        <time>2019-08-17T10:28:32Z</time>
      </trkpt>
      <trkpt lat="41.9686550" lon="-7.5196040">
        <ele>560.9</ele>
        <time>2019-08-17T10:28:33Z</time>
      </trkpt>
      <trkpt lat="41.9686880" lon="-7.5196270">
        <ele>561.2</ele>
        <time>2019-08-17T10:28:34Z</time>
      </trkpt>
      <trkpt lat="41.9687230" lon="-7.5196500">
        <ele>561.6</ele>
        <time>2019-08-17T10:28:35Z</time>
      </trkpt>
      <trkpt lat="41.9687570" lon="-7.5196720">
        <ele>561.9</ele>
        <time>2019-08-17T10:28:36Z</time>
      </trkpt>
      <trkpt lat="41.9687920" lon="-7.5196940">
        <ele>562.3</ele>
        <time>2019-08-17T10:28:37Z</time>
      </trkpt>
      <trkpt lat="41.9688270" lon="-7.5197150">
        <ele>562.6</ele>
        <time>2019-08-17T10:28:38Z</time>
      </trkpt>
      <trkpt lat="41.9688630" lon="-7.5197360">
        <ele>562.9</ele>
        <time>2019-08-17T10:28:39Z</time>
      </trkpt>
      <trkpt lat="41.9688990" lon="-7.5197560">
        <ele>563.3</ele>
        <time>2019-08-17T10:28:40Z</time>
      </trkpt>
      <trkpt lat="41.9689350" lon="-7.5197750">
        <ele>563.6</ele>
        <time>2019-08-17T10:28:41Z</time>
      </trkpt>
      <trkpt lat="41.9689730" lon="-7.5197930">
        <ele>563.8</ele>
        <time>2019-08-17T10:28:42Z</time>
      </trkpt>
      <trkpt lat="41.9690110" lon="-7.5198110">
        <ele>564.0</ele>
        <time>2019-08-17T10:28:43Z</time>
      </trkpt>
      <trkpt lat="41.9690490" lon="-7.5198280">
        <ele>564.1</ele>
        <time>2019-08-17T10:28:44Z</time>
      </trkpt>
      <trkpt lat="41.9690880" lon="-7.5198430">
        <ele>564.3</ele>
        <time>2019-08-17T10:28:45Z</time>
      </trkpt>
      <trkpt lat="41.9691270" lon="-7.5198590">
        <ele>564.5</ele>
        <time>2019-08-17T10:28:46Z</time>
      </trkpt>
      <trkpt lat="41.9691660" lon="-7.5198740">
        <ele>564.6</ele>
        <time>2019-08-17T10:28:47Z</time>
      </trkpt>
      <trkpt lat="41.9692040" lon="-7.5198890">
        <ele>564.8</ele>
        <time>2019-08-17T10:28:48Z</time>
      </trkpt>
      <trkpt lat="41.9692420" lon="-7.5199040">
        <ele>565.0</ele>
        <time>2019-08-17T10:28:49Z</time>
      </trkpt>
      <trkpt lat="41.9692780" lon="-7.5199190">
        <ele>565.1</ele>
        <time>2019-08-17T10:28:50Z</time>
      </trkpt>
      <trkpt lat="41.9693120" lon="-7.5199350">
        <ele>565.1</ele>
        <time>2019-08-17T10:28:51Z</time>
      </trkpt>
      <trkpt lat="41.9693450" lon="-7.5199500">
        <ele>565.1</ele>
        <time>2019-08-17T10:28:52Z</time>
      </trkpt>
      <trkpt lat="41.9693770" lon="-7.5199650">
        <ele>565.2</ele>
        <time>2019-08-17T10:28:53Z</time>
      </trkpt>
      <trkpt lat="41.9694080" lon="-7.5199800">
        <ele>565.2</ele>
        <time>2019-08-17T10:28:54Z</time>
      </trkpt>
      <trkpt lat="41.9694380" lon="-7.5199940">
        <ele>565.2</ele>
        <time>2019-08-17T10:28:55Z</time>
      </trkpt>
      <trkpt lat="41.9694670" lon="-7.5200060">
        <ele>565.2</ele>
        <time>2019-08-17T10:28:56Z</time>
      </trkpt>
      <trkpt lat="41.9694960" lon="-7.5200170">
        <ele>565.2</ele>
        <time>2019-08-17T10:28:57Z</time>
      </trkpt>
      <trkpt lat="41.9695250" lon="-7.5200260">
        <ele>565.3</ele>
        <time>2019-08-17T10:28:58Z</time>
      </trkpt>
      <trkpt lat="41.9695530" lon="-7.5200350">
        <ele>565.3</ele>
        <time>2019-08-17T10:28:59Z</time>
      </trkpt>
      <trkpt lat="41.9695820" lon="-7.5200420">
        <ele>565.3</ele>
        <time>2019-08-17T10:29:00Z</time>
      </trkpt>
      <trkpt lat="41.9696100" lon="-7.5200490">
        <ele>565.3</ele>
        <time>2019-08-17T10:29:01Z</time>
      </trkpt>
      <trkpt lat="41.9696390" lon="-7.5200550">
        <ele>565.3</ele>
        <time>2019-08-17T10:29:02Z</time>
      </trkpt>
      <trkpt lat="41.9696680" lon="-7.5200620">
        <ele>565.3</ele>
        <time>2019-08-17T10:29:03Z</time>
      </trkpt>
      <trkpt lat="41.9696970" lon="-7.5200680">
        <ele>565.8</ele>
        <time>2019-08-17T10:29:04Z</time>
      </trkpt>
      <trkpt lat="41.9697270" lon="-7.5200750">
        <ele>566.1</ele>
        <time>2019-08-17T10:29:05Z</time>
      </trkpt>
      <trkpt lat="41.9697580" lon="-7.5200820">
        <ele>566.3</ele>
        <time>2019-08-17T10:29:06Z</time>
      </trkpt>
      <trkpt lat="41.9697880" lon="-7.5200890">
        <ele>566.5</ele>
        <time>2019-08-17T10:29:07Z</time>
      </trkpt>
      <trkpt lat="41.9698180" lon="-7.5200960">
        <ele>566.8</ele>
        <time>2019-08-17T10:29:08Z</time>
      </trkpt>
      <trkpt lat="41.9698470" lon="-7.5201030">
        <ele>567.0</ele>
        <time>2019-08-17T10:29:09Z</time>
      </trkpt>
      <trkpt lat="41.9698760" lon="-7.5201090">
        <ele>567.4</ele>
        <time>2019-08-17T10:29:10Z</time>
      </trkpt>
      <trkpt lat="41.9699050" lon="-7.5201140">
        <ele>567.7</ele>
        <time>2019-08-17T10:29:11Z</time>
      </trkpt>
      <trkpt lat="41.9699330" lon="-7.5201200">
        <ele>567.9</ele>
        <time>2019-08-17T10:29:12Z</time>
      </trkpt>
      <trkpt lat="41.9699610" lon="-7.5201250">
        <ele>568.1</ele>
        <time>2019-08-17T10:29:13Z</time>
      </trkpt>
      <trkpt lat="41.9699890" lon="-7.5201300">
        <ele>568.4</ele>
        <time>2019-08-17T10:29:14Z</time>
      </trkpt>
      <trkpt lat="41.9700160" lon="-7.5201340">
        <ele>568.6</ele>
        <time>2019-08-17T10:29:15Z</time>
      </trkpt>
      <trkpt lat="41.9700430" lon="-7.5201380">
        <ele>568.8</ele>
        <time>2019-08-17T10:29:16Z</time>
      </trkpt>
      <trkpt lat="41.9700700" lon="-7.5201420">
        <ele>569.0</ele>
        <time>2019-08-17T10:29:17Z</time>
      </trkpt>
      <trkpt lat="41.9700970" lon="-7.5201460">
        <ele>569.2</ele>
        <time>2019-08-17T10:29:18Z</time>
      </trkpt>
      <trkpt lat="41.9701240" lon="-7.5201490">
        <ele>569.4</ele>
        <time>2019-08-17T10:29:19Z</time>
      </trkpt>
      <trkpt lat="41.9701500" lon="-7.5201520">
        <ele>569.5</ele>
        <time>2019-08-17T10:29:20Z</time>
      </trkpt>
      <trkpt lat="41.9701770" lon="-7.5201540">
        <ele>569.7</ele>
        <time>2019-08-17T10:29:21Z</time>
      </trkpt>
      <trkpt lat="41.9702050" lon="-7.5201570">
        <ele>569.9</ele>
        <time>2019-08-17T10:29:22Z</time>
      </trkpt>
      <trkpt lat="41.9702320" lon="-7.5201590">
        <ele>570.1</ele>
        <time>2019-08-17T10:29:23Z</time>
      </trkpt>
      <trkpt lat="41.9702590" lon="-7.5201610">
        <ele>570.3</ele>
        <time>2019-08-17T10:29:24Z</time>
      </trkpt>
      <trkpt lat="41.9702870" lon="-7.5201630">
        <ele>570.5</ele>
        <time>2019-08-17T10:29:25Z</time>
      </trkpt>
      <trkpt lat="41.9703150" lon="-7.5201640">
        <ele>570.6</ele>
        <time>2019-08-17T10:29:26Z</time>
      </trkpt>
      <trkpt lat="41.9703430" lon="-7.5201650">
        <ele>570.8</ele>
        <time>2019-08-17T10:29:27Z</time>
      </trkpt>
      <trkpt lat="41.9703710" lon="-7.5201660">
        <ele>571.0</ele>
        <time>2019-08-17T10:29:28Z</time>
      </trkpt>
      <trkpt lat="41.9703990" lon="-7.5201670">
        <ele>571.1</ele>
        <time>2019-08-17T10:29:29Z</time>
      </trkpt>
      <trkpt lat="41.9704270" lon="-7.5201680">
        <ele>571.3</ele>
        <time>2019-08-17T10:29:30Z</time>
      </trkpt>
      <trkpt lat="41.9704550" lon="-7.5201680">
        <ele>571.5</ele>
        <time>2019-08-17T10:29:31Z</time>
      </trkpt>
      <trkpt lat="41.9704840" lon="-7.5201680">
        <ele>571.6</ele>
        <time>2019-08-17T10:29:32Z</time>
      </trkpt>
      <trkpt lat="41.9705120" lon="-7.5201680">
        <ele>571.8</ele>
        <time>2019-08-17T10:29:33Z</time>
      </trkpt>
      <trkpt lat="41.9705400" lon="-7.5201680">
        <ele>571.9</ele>
        <time>2019-08-17T10:29:34Z</time>
      </trkpt>
      <trkpt lat="41.9705680" lon="-7.5201680">
        <ele>572.0</ele>
        <time>2019-08-17T10:29:35Z</time>
      </trkpt>
      <trkpt lat="41.9705970" lon="-7.5201670">
        <ele>572.1</ele>
        <time>2019-08-17T10:29:36Z</time>
      </trkpt>
      <trkpt lat="41.9706250" lon="-7.5201660">
        <ele>572.3</ele>
        <time>2019-08-17T10:29:37Z</time>
      </trkpt>
      <trkpt lat="41.9706530" lon="-7.5201650">
        <ele>572.4</ele>
        <time>2019-08-17T10:29:38Z</time>
      </trkpt>
      <trkpt lat="41.9706810" lon="-7.5201640">
        <ele>572.5</ele>
        <time>2019-08-17T10:29:39Z</time>
      </trkpt>
      <trkpt lat="41.9707090" lon="-7.5201630">
        <ele>572.6</ele>
        <time>2019-08-17T10:29:40Z</time>
      </trkpt>
      <trkpt lat="41.9707360" lon="-7.5201620">
        <ele>572.7</ele>
        <time>2019-08-17T10:29:41Z</time>
      </trkpt>
      <trkpt lat="41.9707640" lon="-7.5201600">
        <ele>572.9</ele>
        <time>2019-08-17T10:29:42Z</time>
      </trkpt>
      <trkpt lat="41.9707910" lon="-7.5201580">
        <ele>573.0</ele>
        <time>2019-08-17T10:29:43Z</time>
      </trkpt>
      <trkpt lat="41.9708180" lon="-7.5201560">
        <ele>573.2</ele>
        <time>2019-08-17T10:29:44Z</time>
      </trkpt>
      <trkpt lat="41.9708450" lon="-7.5201540">
        <ele>573.4</ele>
        <time>2019-08-17T10:29:45Z</time>
      </trkpt>
      <trkpt lat="41.9708710" lon="-7.5201520">
        <ele>573.5</ele>
        <time>2019-08-17T10:29:46Z</time>
      </trkpt>
      <trkpt lat="41.9708980" lon="-7.5201500">
        <ele>573.7</ele>
        <time>2019-08-17T10:29:47Z</time>
      </trkpt>
      <trkpt lat="41.9709230" lon="-7.5201480">
        <ele>573.9</ele>
        <time>2019-08-17T10:29:48Z</time>
      </trkpt>
      <trkpt lat="41.9709490" lon="-7.5201450">
        <ele>574.0</ele>
        <time>2019-08-17T10:29:49Z</time>
      </trkpt>
      <trkpt lat="41.9709750" lon="-7.5201430">
        <ele>574.2</ele>
        <time>2019-08-17T10:29:50Z</time>
      </trkpt>
      <trkpt lat="41.9710000" lon="-7.5201400">
        <ele>574.4</ele>
        <time>2019-08-17T10:29:51Z</time>
      </trkpt>
      <trkpt lat="41.9710260" lon="-7.5201370">
        <ele>574.6</ele>
        <time>2019-08-17T10:29:52Z</time>
      </trkpt>
      <trkpt lat="41.9710520" lon="-7.5201350">
        <ele>574.7</ele>
        <time>2019-08-17T10:29:53Z</time>
      </trkpt>
      <trkpt lat="41.9710800" lon="-7.5201320">
        <ele>574.9</ele>
        <time>2019-08-17T10:29:54Z</time>
      </trkpt>
      <trkpt lat="41.9711070" lon="-7.5201300">
        <ele>575.1</ele>
        <time>2019-08-17T10:29:55Z</time>
      </trkpt>
      <trkpt lat="41.9711310" lon="-7.5201270">
        <ele>575.3</ele>
        <time>2019-08-17T10:29:56Z</time>
      </trkpt>
      <trkpt lat="41.9711520" lon="-7.5201230">
        <ele>575.4</ele>
        <time>2019-08-17T10:29:57Z</time>
      </trkpt>
      <trkpt lat="41.9711670" lon="-7.5201190">
        <ele>575.5</ele>
        <time>2019-08-17T10:29:58Z</time>
      </trkpt>
      <trkpt lat="41.9711780" lon="-7.5201140">
        <ele>575.6</ele>
        <time>2019-08-17T10:29:59Z</time>
      </trkpt>
      <trkpt lat="41.9711890" lon="-7.5201080">
        <ele>575.7</ele>
        <time>2019-08-17T10:30:00Z</time>
      </trkpt>
      <trkpt lat="41.9712040" lon="-7.5201040">
        <ele>575.8</ele>
        <time>2019-08-17T10:30:01Z</time>
      </trkpt>
      <trkpt lat="41.9712220" lon="-7.5201000">
        <ele>575.9</ele>
        <time>2019-08-17T10:30:02Z</time>
      </trkpt>
      <trkpt lat="41.9712440" lon="-7.5200970">
        <ele>576.1</ele>
        <time>2019-08-17T10:30:03Z</time>
      </trkpt>
      <trkpt lat="41.9712660" lon="-7.5200940">
        <ele>576.2</ele>
        <time>2019-08-17T10:30:04Z</time>
      </trkpt>
      <trkpt lat="41.9712910" lon="-7.5200910">
        <ele>576.4</ele>
        <time>2019-08-17T10:30:05Z</time>
      </trkpt>
      <trkpt lat="41.9713150" lon="-7.5200880">
        <ele>576.6</ele>
        <time>2019-08-17T10:30:06Z</time>
      </trkpt>
      <trkpt lat="41.9713410" lon="-7.5200840">
        <ele>576.7</ele>
        <time>2019-08-17T10:30:07Z</time>
      </trkpt>
      <trkpt lat="41.9713660" lon="-7.5200810">
        <ele>576.9</ele>
        <time>2019-08-17T10:30:08Z</time>
      </trkpt>
      <trkpt lat="41.9713900" lon="-7.5200770">
        <ele>577.1</ele>
        <time>2019-08-17T10:30:09Z</time>
      </trkpt>
      <trkpt lat="41.9714130" lon="-7.5200730">
        <ele>577.2</ele>
        <time>2019-08-17T10:30:10Z</time>
      </trkpt>
      <trkpt lat="41.9714350" lon="-7.5200690">
        <ele>577.4</ele>
        <time>2019-08-17T10:30:11Z</time>
      </trkpt>
      <trkpt lat="41.9714560" lon="-7.5200650">
        <ele>577.5</ele>
        <time>2019-08-17T10:30:12Z</time>
      </trkpt>
      <trkpt lat="41.9714760" lon="-7.5200600">
        <ele>577.7</ele>
        <time>2019-08-17T10:30:13Z</time>
      </trkpt>
      <trkpt lat="41.9714950" lon="-7.5200550">
        <ele>577.8</ele>
        <time>2019-08-17T10:30:14Z</time>
      </trkpt>
      <trkpt lat="41.9715160" lon="-7.5200500">
        <ele>578.0</ele>
        <time>2019-08-17T10:30:15Z</time>
      </trkpt>
      <trkpt lat="41.9715360" lon="-7.5200450">
        <ele>578.1</ele>
        <time>2019-08-17T10:30:16Z</time>
      </trkpt>
      <trkpt lat="41.9715580" lon="-7.5200400">
        <ele>578.3</ele>
        <time>2019-08-17T10:30:17Z</time>
      </trkpt>
      <trkpt lat="41.9715810" lon="-7.5200350">
        <ele>578.4</ele>
        <time>2019-08-17T10:30:18Z</time>
      </trkpt>
      <trkpt lat="41.9716040" lon="-7.5200300">
        <ele>578.6</ele>
        <time>2019-08-17T10:30:19Z</time>
      </trkpt>
      <trkpt lat="41.9716290" lon="-7.5200240">
        <ele>578.8</ele>
        <time>2019-08-17T10:30:20Z</time>
      </trkpt>
      <trkpt lat="41.9716530" lon="-7.5200190">
        <ele>579.0</ele>
        <time>2019-08-17T10:30:21Z</time>
      </trkpt>
      <trkpt lat="41.9716780" lon="-7.5200130">
        <ele>579.1</ele>
        <time>2019-08-17T10:30:22Z</time>
      </trkpt>
      <trkpt lat="41.9717030" lon="-7.5200070">
        <ele>579.3</ele>
        <time>2019-08-17T10:30:23Z</time>
      </trkpt>
      <trkpt lat="41.9717280" lon="-7.5200000">
        <ele>579.5</ele>
        <time>2019-08-17T10:30:24Z</time>
      </trkpt>
      <trkpt lat="41.9717530" lon="-7.5199930">
        <ele>579.7</ele>
        <time>2019-08-17T10:30:25Z</time>
      </trkpt>
      <trkpt lat="41.9717780" lon="-7.5199870">
        <ele>579.8</ele>
        <time>2019-08-17T10:30:26Z</time>
      </trkpt>
      <trkpt lat="41.9718030" lon="-7.5199800">
        <ele>580.0</ele>
        <time>2019-08-17T10:30:27Z</time>
      </trkpt>
      <trkpt lat="41.9718280" lon="-7.5199730">
        <ele>580.2</ele>
        <time>2019-08-17T10:30:28Z</time>
      </trkpt>
      <trkpt lat="41.9718530" lon="-7.5199660">
        <ele>580.4</ele>
        <time>2019-08-17T10:30:29Z</time>
      </trkpt>
      <trkpt lat="41.9718780" lon="-7.5199590">
        <ele>580.6</ele>
        <time>2019-08-17T10:30:30Z</time>
      </trkpt>
      <trkpt lat="41.9719020" lon="-7.5199530">
        <ele>580.7</ele>
        <time>2019-08-17T10:30:31Z</time>
      </trkpt>
      <trkpt lat="41.9719270" lon="-7.5199470">
        <ele>580.9</ele>
        <time>2019-08-17T10:30:32Z</time>
      </trkpt>
      <trkpt lat="41.9719510" lon="-7.5199410">
        <ele>581.1</ele>
        <time>2019-08-17T10:30:33Z</time>
      </trkpt>
      <trkpt lat="41.9719740" lon="-7.5199360">
        <ele>581.2</ele>
        <time>2019-08-17T10:30:34Z</time>
      </trkpt>
      <trkpt lat="41.9719970" lon="-7.5199300">
        <ele>581.4</ele>
        <time>2019-08-17T10:30:35Z</time>
      </trkpt>
      <trkpt lat="41.9720190" lon="-7.5199250">
        <ele>581.6</ele>
        <time>2019-08-17T10:30:36Z</time>
      </trkpt>
      <trkpt lat="41.9720390" lon="-7.5199200">
        <ele>581.7</ele>
        <time>2019-08-17T10:30:37Z</time>
      </trkpt>
      <trkpt lat="41.9720590" lon="-7.5199140">
        <ele>581.8</ele>
        <time>2019-08-17T10:30:38Z</time>
      </trkpt>
      <trkpt lat="41.9720780" lon="-7.5199090">
        <ele>582.0</ele>
        <time>2019-08-17T10:30:39Z</time>
      </trkpt>
      <trkpt lat="41.9720970" lon="-7.5199040">
        <ele>582.1</ele>
        <time>2019-08-17T10:30:40Z</time>
      </trkpt>
      <trkpt lat="41.9721160" lon="-7.5198980">
        <ele>582.2</ele>
        <time>2019-08-17T10:30:41Z</time>
      </trkpt>
      <trkpt lat="41.9721360" lon="-7.5198920">
        <ele>582.3</ele>
        <time>2019-08-17T10:30:42Z</time>
      </trkpt>
      <trkpt lat="41.9721580" lon="-7.5198870">
        <ele>582.5</ele>
        <time>2019-08-17T10:30:43Z</time>
      </trkpt>
      <trkpt lat="41.9721800" lon="-7.5198800">
        <ele>582.6</ele>
        <time>2019-08-17T10:30:44Z</time>
      </trkpt>
      <trkpt lat="41.9722040" lon="-7.5198740">
        <ele>582.8</ele>
        <time>2019-08-17T10:30:45Z</time>
      </trkpt>
      <trkpt lat="41.9722300" lon="-7.5198680">
        <ele>582.9</ele>
        <time>2019-08-17T10:30:46Z</time>
      </trkpt>
      <trkpt lat="41.9722560" lon="-7.5198610">
        <ele>583.1</ele>
        <time>2019-08-17T10:30:47Z</time>
      </trkpt>
      <trkpt lat="41.9722820" lon="-7.5198550">
        <ele>583.3</ele>
        <time>2019-08-17T10:30:48Z</time>
      </trkpt>
      <trkpt lat="41.9723090" lon="-7.5198490">
        <ele>583.4</ele>
        <time>2019-08-17T10:30:49Z</time>
      </trkpt>
      <trkpt lat="41.9723350" lon="-7.5198440">
        <ele>583.6</ele>
        <time>2019-08-17T10:30:50Z</time>
      </trkpt>
      <trkpt lat="41.9723610" lon="-7.5198380">
        <ele>583.7</ele>
        <time>2019-08-17T10:30:51Z</time>
      </trkpt>
      <trkpt lat="41.9723870" lon="-7.5198340">
        <ele>583.9</ele>
        <time>2019-08-17T10:30:52Z</time>
      </trkpt>
      <trkpt lat="41.9724130" lon="-7.5198290">
        <ele>584.0</ele>
        <time>2019-08-17T10:30:53Z</time>
      </trkpt>
      <trkpt lat="41.9724380" lon="-7.5198240">
        <ele>584.2</ele>
        <time>2019-08-17T10:30:54Z</time>
      </trkpt>
      <trkpt lat="41.9724640" lon="-7.5198200">
        <ele>584.3</ele>
        <time>2019-08-17T10:30:55Z</time>
      </trkpt>
      <trkpt lat="41.9724890" lon="-7.5198150">
        <ele>584.5</ele>
        <time>2019-08-17T10:30:56Z</time>
      </trkpt>
      <trkpt lat="41.9725140" lon="-7.5198110">
        <ele>584.6</ele>
        <time>2019-08-17T10:30:57Z</time>
      </trkpt>
      <trkpt lat="41.9725400" lon="-7.5198060">
        <ele>584.8</ele>
        <time>2019-08-17T10:30:58Z</time>
      </trkpt>
      <trkpt lat="41.9725650" lon="-7.5198010">
        <ele>584.9</ele>
        <time>2019-08-17T10:30:59Z</time>
      </trkpt>
      <trkpt lat="41.9725900" lon="-7.5197950">
        <ele>585.0</ele>
        <time>2019-08-17T10:31:00Z</time>
      </trkpt>
      <trkpt lat="41.9726160" lon="-7.5197900">
        <ele>585.2</ele>
        <time>2019-08-17T10:31:01Z</time>
      </trkpt>
      <trkpt lat="41.9726410" lon="-7.5197850">
        <ele>585.3</ele>
        <time>2019-08-17T10:31:02Z</time>
      </trkpt>
      <trkpt lat="41.9726660" lon="-7.5197810">
        <ele>585.4</ele>
        <time>2019-08-17T10:31:03Z</time>
      </trkpt>
      <trkpt lat="41.9726900" lon="-7.5197760">
        <ele>585.6</ele>
        <time>2019-08-17T10:31:04Z</time>
      </trkpt>
      <trkpt lat="41.9727150" lon="-7.5197730">
        <ele>585.7</ele>
        <time>2019-08-17T10:31:05Z</time>
      </trkpt>
      <trkpt lat="41.9727390" lon="-7.5197690">
        <ele>585.8</ele>
        <time>2019-08-17T10:31:06Z</time>
      </trkpt>
      <trkpt lat="41.9727630" lon="-7.5197660">
        <ele>586.0</ele>
        <time>2019-08-17T10:31:07Z</time>
      </trkpt>
      <trkpt lat="41.9727870" lon="-7.5197640">
        <ele>586.1</ele>
        <time>2019-08-17T10:31:08Z</time>
      </trkpt>
      <trkpt lat="41.9728110" lon="-7.5197610">
        <ele>586.2</ele>
        <time>2019-08-17T10:31:09Z</time>
      </trkpt>
      <trkpt lat="41.9728360" lon="-7.5197580">
        <ele>586.4</ele>
        <time>2019-08-17T10:31:10Z</time>
      </trkpt>
      <trkpt lat="41.9728610" lon="-7.5197560">
        <ele>586.5</ele>
        <time>2019-08-17T10:31:11Z</time>
      </trkpt>
      <trkpt lat="41.9728860" lon="-7.5197530">
        <ele>586.6</ele>
        <time>2019-08-17T10:31:12Z</time>
      </trkpt>
      <trkpt lat="41.9729120" lon="-7.5197510">
        <ele>586.8</ele>
        <time>2019-08-17T10:31:13Z</time>
      </trkpt>
      <trkpt lat="41.9729380" lon="-7.5197480">
        <ele>586.9</ele>
        <time>2019-08-17T10:31:14Z</time>
      </trkpt>
      <trkpt lat="41.9729650" lon="-7.5197460">
        <ele>587.1</ele>
        <time>2019-08-17T10:31:15Z</time>
      </trkpt>
      <trkpt lat="41.9729920" lon="-7.5197430">
        <ele>587.2</ele>
        <time>2019-08-17T10:31:16Z</time>
      </trkpt>
      <trkpt lat="41.9730190" lon="-7.5197410">
        <ele>587.4</ele>
        <time>2019-08-17T10:31:17Z</time>
      </trkpt>
      <trkpt lat="41.9730460" lon="-7.5197390">
        <ele>587.6</ele>
        <time>2019-08-17T10:31:18Z</time>
      </trkpt>
      <trkpt lat="41.9730740" lon="-7.5197370">
        <ele>587.7</ele>
        <time>2019-08-17T10:31:19Z</time>
      </trkpt>
      <trkpt lat="41.9731020" lon="-7.5197350">
        <ele>587.9</ele>
        <time>2019-08-17T10:31:20Z</time>
      </trkpt>
      <trkpt lat="41.9731300" lon="-7.5197330">
        <ele>588.1</ele>
        <time>2019-08-17T10:31:21Z</time>
      </trkpt>
      <trkpt lat="41.9731580" lon="-7.5197310">
        <ele>588.2</ele>
        <time>2019-08-17T10:31:22Z</time>
      </trkpt>
      <trkpt lat="41.9731860" lon="-7.5197300">
        <ele>588.4</ele>
        <time>2019-08-17T10:31:23Z</time>
      </trkpt>
      <trkpt lat="41.9732140" lon="-7.5197280">
        <ele>588.6</ele>
        <time>2019-08-17T10:31:24Z</time>
      </trkpt>
      <trkpt lat="41.9732420" lon="-7.5197270">
        <ele>588.8</ele>
        <time>2019-08-17T10:31:25Z</time>
      </trkpt>
      <trkpt lat="41.9732700" lon="-7.5197260">
        <ele>589.0</ele>
        <time>2019-08-17T10:31:26Z</time>
      </trkpt>
      <trkpt lat="41.9732990" lon="-7.5197260">
        <ele>589.1</ele>
        <time>2019-08-17T10:31:27Z</time>
      </trkpt>
      <trkpt lat="41.9733270" lon="-7.5197260">
        <ele>589.3</ele>
        <time>2019-08-17T10:31:28Z</time>
      </trkpt>
      <trkpt lat="41.9733550" lon="-7.5197250">
        <ele>589.5</ele>
        <time>2019-08-17T10:31:29Z</time>
      </trkpt>
      <trkpt lat="41.9733840" lon="-7.5197260">
        <ele>589.7</ele>
        <time>2019-08-17T10:31:30Z</time>
      </trkpt>
      <trkpt lat="41.9734120" lon="-7.5197260">
        <ele>589.9</ele>
        <time>2019-08-17T10:31:31Z</time>
      </trkpt>
      <trkpt lat="41.9734400" lon="-7.5197260">
        <ele>590.1</ele>
        <time>2019-08-17T10:31:32Z</time>
      </trkpt>
      <trkpt lat="41.9734690" lon="-7.5197270">
        <ele>590.2</ele>
        <time>2019-08-17T10:31:33Z</time>
      </trkpt>
      <trkpt lat="41.9734970" lon="-7.5197280">
        <ele>590.4</ele>
        <time>2019-08-17T10:31:34Z</time>
      </trkpt>
      <trkpt lat="41.9735250" lon="-7.5197290">
        <ele>590.6</ele>
        <time>2019-08-17T10:31:35Z</time>
      </trkpt>
      <trkpt lat="41.9735720" lon="-7.5197320">
        <ele>590.9</ele>
        <time>2019-08-17T10:31:36Z</time>
      </trkpt>
      <trkpt lat="41.9735910" lon="-7.5197330">
        <ele>591.0</ele>
        <time>2019-08-17T10:31:37Z</time>
      </trkpt>
      <trkpt lat="41.9736100" lon="-7.5197340">
        <ele>591.2</ele>
        <time>2019-08-17T10:31:38Z</time>
      </trkpt>
      <trkpt lat="41.9736380" lon="-7.5197360">
        <ele>591.3</ele>
        <time>2019-08-17T10:31:39Z</time>
      </trkpt>
      <trkpt lat="41.9736660" lon="-7.5197390">
        <ele>591.5</ele>
        <time>2019-08-17T10:31:40Z</time>
      </trkpt>
      <trkpt lat="41.9736940" lon="-7.5197410">
        <ele>591.7</ele>
        <time>2019-08-17T10:31:41Z</time>
      </trkpt>
      <trkpt lat="41.9737220" lon="-7.5197440">
        <ele>591.9</ele>
        <time>2019-08-17T10:31:42Z</time>
      </trkpt>
      <trkpt lat="41.9737500" lon="-7.5197470">
        <ele>592.1</ele>
        <time>2019-08-17T10:31:43Z</time>
      </trkpt>
      <trkpt lat="41.9737780" lon="-7.5197500">
        <ele>592.2</ele>
        <time>2019-08-17T10:31:44Z</time>
      </trkpt>
      <trkpt lat="41.9738060" lon="-7.5197540">
        <ele>592.4</ele>
        <time>2019-08-17T10:31:45Z</time>
      </trkpt>
      <trkpt lat="41.9738340" lon="-7.5197580">
        <ele>592.6</ele>
        <time>2019-08-17T10:31:46Z</time>
      </trkpt>
      <trkpt lat="41.9738630" lon="-7.5197630">
        <ele>592.8</ele>
        <time>2019-08-17T10:31:47Z</time>
      </trkpt>
      <trkpt lat="41.9738910" lon="-7.5197670">
        <ele>593.0</ele>
        <time>2019-08-17T10:31:48Z</time>
      </trkpt>
      <trkpt lat="41.9739190" lon="-7.5197720">
        <ele>593.2</ele>
        <time>2019-08-17T10:31:49Z</time>
      </trkpt>
      <trkpt lat="41.9739480" lon="-7.5197760">
        <ele>593.3</ele>
        <time>2019-08-17T10:31:50Z</time>
      </trkpt>
      <trkpt lat="41.9739760" lon="-7.5197810">
        <ele>593.5</ele>
        <time>2019-08-17T10:31:51Z</time>
      </trkpt>
      <trkpt lat="41.9740050" lon="-7.5197860">
        <ele>593.7</ele>
        <time>2019-08-17T10:31:52Z</time>
      </trkpt>
      <trkpt lat="41.9740330" lon="-7.5197910">
        <ele>593.9</ele>
        <time>2019-08-17T10:31:53Z</time>
      </trkpt>
      <trkpt lat="41.9740620" lon="-7.5197960">
        <ele>594.1</ele>
        <time>2019-08-17T10:31:54Z</time>
      </trkpt>
      <trkpt lat="41.9740900" lon="-7.5198010">
        <ele>594.3</ele>
        <time>2019-08-17T10:31:55Z</time>
      </trkpt>
      <trkpt lat="41.9741180" lon="-7.5198060">
        <ele>594.4</ele>
        <time>2019-08-17T10:31:56Z</time>
      </trkpt>
      <trkpt lat="41.9741470" lon="-7.5198120">
        <ele>594.6</ele>
        <time>2019-08-17T10:31:57Z</time>
      </trkpt>
      <trkpt lat="41.9741750" lon="-7.5198170">
        <ele>594.8</ele>
        <time>2019-08-17T10:31:58Z</time>
      </trkpt>
      <trkpt lat="41.9742030" lon="-7.5198230">
        <ele>595.0</ele>
        <time>2019-08-17T10:31:59Z</time>
      </trkpt>
      <trkpt lat="41.9742310" lon="-7.5198290">
        <ele>595.1</ele>
        <time>2019-08-17T10:32:00Z</time>
      </trkpt>
      <trkpt lat="41.9742590" lon="-7.5198350">
        <ele>595.3</ele>
        <time>2019-08-17T10:32:01Z</time>
      </trkpt>
      <trkpt lat="41.9742870" lon="-7.5198420">
        <ele>595.5</ele>
        <time>2019-08-17T10:32:02Z</time>
      </trkpt>
      <trkpt lat="41.9743150" lon="-7.5198490">
        <ele>595.6</ele>
        <time>2019-08-17T10:32:03Z</time>
      </trkpt>
      <trkpt lat="41.9743430" lon="-7.5198560">
        <ele>595.8</ele>
        <time>2019-08-17T10:32:04Z</time>
      </trkpt>
      <trkpt lat="41.9743700" lon="-7.5198640">
        <ele>595.9</ele>
        <time>2019-08-17T10:32:05Z</time>
      </trkpt>
      <trkpt lat="41.9743970" lon="-7.5198710">
        <ele>596.1</ele>
        <time>2019-08-17T10:32:06Z</time>
      </trkpt>
      <trkpt lat="41.9744240" lon="-7.5198800">
        <ele>596.2</ele>
        <time>2019-08-17T10:32:07Z</time>
      </trkpt>
      <trkpt lat="41.9744510" lon="-7.5198880">
        <ele>596.4</ele>
        <time>2019-08-17T10:32:08Z</time>
      </trkpt>
      <trkpt lat="41.9744780" lon="-7.5198970">
        <ele>596.5</ele>
        <time>2019-08-17T10:32:09Z</time>
      </trkpt>
      <trkpt lat="41.9745050" lon="-7.5199060">
        <ele>596.7</ele>
        <time>2019-08-17T10:32:10Z</time>
      </trkpt>
      <trkpt lat="41.9745310" lon="-7.5199150">
        <ele>596.8</ele>
        <time>2019-08-17T10:32:11Z</time>
      </trkpt>
      <trkpt lat="41.9745580" lon="-7.5199250">
        <ele>597.0</ele>
        <time>2019-08-17T10:32:12Z</time>
      </trkpt>
      <trkpt lat="41.9745840" lon="-7.5199350">
        <ele>597.1</ele>
        <time>2019-08-17T10:32:13Z</time>
      </trkpt>
      <trkpt lat="41.9746110" lon="-7.5199450">
        <ele>597.3</ele>
        <time>2019-08-17T10:32:14Z</time>
      </trkpt>
      <trkpt lat="41.9746370" lon="-7.5199550">
        <ele>597.4</ele>
        <time>2019-08-17T10:32:15Z</time>
      </trkpt>
      <trkpt lat="41.9746630" lon="-7.5199660">
        <ele>597.6</ele>
        <time>2019-08-17T10:32:16Z</time>
      </trkpt>
      <trkpt lat="41.9746890" lon="-7.5199760">
        <ele>597.7</ele>
        <time>2019-08-17T10:32:17Z</time>
      </trkpt>
      <trkpt lat="41.9747150" lon="-7.5199870">
        <ele>597.9</ele>
        <time>2019-08-17T10:32:18Z</time>
      </trkpt>
      <trkpt lat="41.9747410" lon="-7.5199980">
        <ele>598.0</ele>
        <time>2019-08-17T10:32:19Z</time>
      </trkpt>
      <trkpt lat="41.9747670" lon="-7.5200090">
        <ele>598.2</ele>
        <time>2019-08-17T10:32:20Z</time>
      </trkpt>
      <trkpt lat="41.9747940" lon="-7.5200210">
        <ele>598.3</ele>
        <time>2019-08-17T10:32:21Z</time>
      </trkpt>
      <trkpt lat="41.9748200" lon="-7.5200320">
        <ele>598.5</ele>
        <time>2019-08-17T10:32:22Z</time>
      </trkpt>
      <trkpt lat="41.9748460" lon="-7.5200440">
        <ele>598.6</ele>
        <time>2019-08-17T10:32:23Z</time>
      </trkpt>
      <trkpt lat="41.9748720" lon="-7.5200560">
        <ele>598.8</ele>
        <time>2019-08-17T10:32:24Z</time>
      </trkpt>
      <trkpt lat="41.9748990" lon="-7.5200680">
        <ele>598.9</ele>
        <time>2019-08-17T10:32:25Z</time>
      </trkpt>
      <trkpt lat="41.9749250" lon="-7.5200800">
        <ele>599.1</ele>
        <time>2019-08-17T10:32:26Z</time>
      </trkpt>
      <trkpt lat="41.9749520" lon="-7.5200930">
        <ele>599.3</ele>
        <time>2019-08-17T10:32:27Z</time>
      </trkpt>
      <trkpt lat="41.9749790" lon="-7.5201060">
        <ele>599.4</ele>
        <time>2019-08-17T10:32:28Z</time>
      </trkpt>
      <trkpt lat="41.9750060" lon="-7.5201190">
        <ele>599.6</ele>
        <time>2019-08-17T10:32:29Z</time>
      </trkpt>
      <trkpt lat="41.9750340" lon="-7.5201320">
        <ele>599.8</ele>
        <time>2019-08-17T10:32:30Z</time>
      </trkpt>
      <trkpt lat="41.9750620" lon="-7.5201460">
        <ele>600.0</ele>
        <time>2019-08-17T10:32:31Z</time>
      </trkpt>
      <trkpt lat="41.9750900" lon="-7.5201600">
        <ele>600.2</ele>
        <time>2019-08-17T10:32:32Z</time>
      </trkpt>
      <trkpt lat="41.9751180" lon="-7.5201740">
        <ele>600.4</ele>
        <time>2019-08-17T10:32:33Z</time>
      </trkpt>
      <trkpt lat="41.9751460" lon="-7.5201880">
        <ele>600.5</ele>
        <time>2019-08-17T10:32:34Z</time>
      </trkpt>
      <trkpt lat="41.9751750" lon="-7.5202030">
        <ele>600.7</ele>
        <time>2019-08-17T10:32:35Z</time>
      </trkpt>
      <trkpt lat="41.9752040" lon="-7.5202180">
        <ele>600.9</ele>
        <time>2019-08-17T10:32:36Z</time>
      </trkpt>
      <trkpt lat="41.9752330" lon="-7.5202330">
        <ele>601.1</ele>
        <time>2019-08-17T10:32:37Z</time>
      </trkpt>
      <trkpt lat="41.9752620" lon="-7.5202480">
        <ele>601.3</ele>
        <time>2019-08-17T10:32:38Z</time>
      </trkpt>
      <trkpt lat="41.9752910" lon="-7.5202640">
        <ele>601.5</ele>
        <time>2019-08-17T10:32:39Z</time>
      </trkpt>
      <trkpt lat="41.9753200" lon="-7.5202800">
        <ele>601.7</ele>
        <time>2019-08-17T10:32:40Z</time>
      </trkpt>
      <trkpt lat="41.9753490" lon="-7.5202960">
        <ele>601.9</ele>
        <time>2019-08-17T10:32:41Z</time>
      </trkpt>
      <trkpt lat="41.9753780" lon="-7.5203120">
        <ele>602.1</ele>
        <time>2019-08-17T10:32:42Z</time>
      </trkpt>
      <trkpt lat="41.9754070" lon="-7.5203290">
        <ele>602.3</ele>
        <time>2019-08-17T10:32:43Z</time>
      </trkpt>
      <trkpt lat="41.9754350" lon="-7.5203460">
        <ele>602.5</ele>
        <time>2019-08-17T10:32:44Z</time>
      </trkpt>
      <trkpt lat="41.9754630" lon="-7.5203630">
        <ele>602.8</ele>
        <time>2019-08-17T10:32:45Z</time>
      </trkpt>
      <trkpt lat="41.9754920" lon="-7.5203800">
        <ele>603.0</ele>
        <time>2019-08-17T10:32:46Z</time>
      </trkpt>
      <trkpt lat="41.9755190" lon="-7.5203970">
        <ele>603.2</ele>
        <time>2019-08-17T10:32:47Z</time>
      </trkpt>
      <trkpt lat="41.9755470" lon="-7.5204140">
        <ele>603.5</ele>
        <time>2019-08-17T10:32:48Z</time>
      </trkpt>
      <trkpt lat="41.9755740" lon="-7.5204320">
        <ele>603.7</ele>
        <time>2019-08-17T10:32:49Z</time>
      </trkpt>
      <trkpt lat="41.9756010" lon="-7.5204490">
        <ele>603.9</ele>
        <time>2019-08-17T10:32:50Z</time>
      </trkpt>
      <trkpt lat="41.9756270" lon="-7.5204670">
        <ele>604.2</ele>
        <time>2019-08-17T10:32:51Z</time>
      </trkpt>
      <trkpt lat="41.9756530" lon="-7.5204850">
        <ele>604.4</ele>
        <time>2019-08-17T10:32:52Z</time>
      </trkpt>
      <trkpt lat="41.9756780" lon="-7.5205030">
        <ele>604.7</ele>
        <time>2019-08-17T10:32:53Z</time>
      </trkpt>
      <trkpt lat="41.9757030" lon="-7.5205210">
        <ele>605.0</ele>
        <time>2019-08-17T10:32:54Z</time>
      </trkpt>
      <trkpt lat="41.9757270" lon="-7.5205400">
        <ele>605.2</ele>
        <time>2019-08-17T10:32:55Z</time>
      </trkpt>
      <trkpt lat="41.9757500" lon="-7.5205580">
        <ele>605.5</ele>
        <time>2019-08-17T10:32:56Z</time>
      </trkpt>
      <trkpt lat="41.9757730" lon="-7.5205760">
        <ele>605.7</ele>
        <time>2019-08-17T10:32:57Z</time>
      </trkpt>
      <trkpt lat="41.9759660" lon="-7.5208030">
        <ele>608.2</ele>
        <time>2019-08-17T10:46:42Z</time>
      </trkpt>
      <trkpt lat="41.9759860" lon="-7.5208090">
        <ele>608.4</ele>
        <time>2019-08-17T10:46:43Z</time>
      </trkpt>
      <trkpt lat="41.9760080" lon="-7.5208180">
        <ele>608.6</ele>
        <time>2019-08-17T10:46:44Z</time>
      </trkpt>
      <trkpt lat="41.9760300" lon="-7.5208290">
        <ele>608.9</ele>
        <time>2019-08-17T10:46:45Z</time>
      </trkpt>
      <trkpt lat="41.9760520" lon="-7.5208430">
        <ele>609.1</ele>
        <time>2019-08-17T10:46:46Z</time>
      </trkpt>
      <trkpt lat="41.9760760" lon="-7.5208590">
        <ele>609.3</ele>
        <time>2019-08-17T10:46:47Z</time>
      </trkpt>
      <trkpt lat="41.9761000" lon="-7.5208770">
        <ele>609.6</ele>
        <time>2019-08-17T10:46:48Z</time>
      </trkpt>
      <trkpt lat="41.9761240" lon="-7.5208970">
        <ele>609.8</ele>
        <time>2019-08-17T10:46:49Z</time>
      </trkpt>
      <trkpt lat="41.9761490" lon="-7.5209190">
        <ele>610.1</ele>
        <time>2019-08-17T10:46:50Z</time>
      </trkpt>
      <trkpt lat="41.9761750" lon="-7.5209420">
        <ele>610.4</ele>
        <time>2019-08-17T10:46:51Z</time>
      </trkpt>
      <trkpt lat="41.9762010" lon="-7.5209660">
        <ele>610.6</ele>
        <time>2019-08-17T10:46:52Z</time>
      </trkpt>
      <trkpt lat="41.9762270" lon="-7.5209910">
        <ele>610.9</ele>
        <time>2019-08-17T10:46:53Z</time>
      </trkpt>
      <trkpt lat="41.9762530" lon="-7.5210170">
        <ele>611.2</ele>
        <time>2019-08-17T10:46:54Z</time>
      </trkpt>
      <trkpt lat="41.9762800" lon="-7.5210440">
        <ele>611.5</ele>
        <time>2019-08-17T10:46:55Z</time>
      </trkpt>
      <trkpt lat="41.9763070" lon="-7.5210710">
        <ele>611.7</ele>
        <time>2019-08-17T10:46:56Z</time>
      </trkpt>
      <trkpt lat="41.9763340" lon="-7.5210990">
        <ele>612.0</ele>
        <time>2019-08-17T10:46:57Z</time>
      </trkpt>
      <trkpt lat="41.9763610" lon="-7.5211260">
        <ele>612.3</ele>
        <time>2019-08-17T10:46:58Z</time>
      </trkpt>
      <trkpt lat="41.9763880" lon="-7.5211540">
        <ele>612.6</ele>
        <time>2019-08-17T10:46:59Z</time>
      </trkpt>
      <trkpt lat="41.9764150" lon="-7.5211810">
        <ele>612.9</ele>
        <time>2019-08-17T10:47:00Z</time>
      </trkpt>
      <trkpt lat="41.9764420" lon="-7.5212080">
        <ele>613.1</ele>
        <time>2019-08-17T10:47:01Z</time>
      </trkpt>
      <trkpt lat="41.9764690" lon="-7.5212350">
        <ele>613.4</ele>
        <time>2019-08-17T10:47:02Z</time>
      </trkpt>
      <trkpt lat="41.9764960" lon="-7.5212620">
        <ele>613.7</ele>
        <time>2019-08-17T10:47:03Z</time>
      </trkpt>
      <trkpt lat="41.9765230" lon="-7.5212890">
        <ele>614.0</ele>
        <time>2019-08-17T10:47:04Z</time>
      </trkpt>
      <trkpt lat="41.9765500" lon="-7.5213150">
        <ele>614.3</ele>
        <time>2019-08-17T10:47:05Z</time>
      </trkpt>
      <trkpt lat="41.9765760" lon="-7.5213420">
        <ele>614.6</ele>
        <time>2019-08-17T10:47:06Z</time>
      </trkpt>
      <trkpt lat="41.9766020" lon="-7.5213680">
        <ele>614.9</ele>
        <time>2019-08-17T10:47:07Z</time>
      </trkpt>
      <trkpt lat="41.9766280" lon="-7.5213940">
        <ele>615.2</ele>
        <time>2019-08-17T10:47:08Z</time>
      </trkpt>
      <trkpt lat="41.9766540" lon="-7.5214200">
        <ele>615.5</ele>
        <time>2019-08-17T10:47:09Z</time>
      </trkpt>
      <trkpt lat="41.9766800" lon="-7.5214460">
        <ele>615.8</ele>
        <time>2019-08-17T10:47:10Z</time>
      </trkpt>
      <trkpt lat="41.9767050" lon="-7.5214720">
        <ele>616.0</ele>
        <time>2019-08-17T10:47:11Z</time>
      </trkpt>
      <trkpt lat="41.9767300" lon="-7.5214970">
        <ele>616.3</ele>
        <time>2019-08-17T10:47:12Z</time>
      </trkpt>
      <trkpt lat="41.9767550" lon="-7.5215220">
        <ele>616.6</ele>
        <time>2019-08-17T10:47:13Z</time>
      </trkpt>
      <trkpt lat="41.9767790" lon="-7.5215470">
        <ele>616.9</ele>
        <time>2019-08-17T10:47:14Z</time>
      </trkpt>
      <trkpt lat="41.9768030" lon="-7.5215720">
        <ele>617.2</ele>
        <time>2019-08-17T10:47:15Z</time>
      </trkpt>
      <trkpt lat="41.9768270" lon="-7.5215970">
        <ele>617.5</ele>
        <time>2019-08-17T10:47:16Z</time>
      </trkpt>
      <trkpt lat="41.9768500" lon="-7.5216210">
        <ele>617.7</ele>
        <time>2019-08-17T10:47:17Z</time>
      </trkpt>
      <trkpt lat="41.9768730" lon="-7.5216450">
        <ele>618.0</ele>
        <time>2019-08-17T10:47:18Z</time>
      </trkpt>
      <trkpt lat="41.9768960" lon="-7.5216690">
        <ele>618.3</ele>
        <time>2019-08-17T10:47:19Z</time>
      </trkpt>
      <trkpt lat="41.9769180" lon="-7.5216930">
        <ele>618.6</ele>
        <time>2019-08-17T10:47:20Z</time>
      </trkpt>
      <trkpt lat="41.9769410" lon="-7.5217170">
        <ele>618.8</ele>
        <time>2019-08-17T10:47:21Z</time>
      </trkpt>
      <trkpt lat="41.9769620" lon="-7.5217400">
        <ele>619.1</ele>
        <time>2019-08-17T10:47:22Z</time>
      </trkpt>
      <trkpt lat="41.9769840" lon="-7.5217630">
        <ele>619.4</ele>
        <time>2019-08-17T10:47:23Z</time>
      </trkpt>
      <trkpt lat="41.9770060" lon="-7.5217860">
        <ele>619.7</ele>
        <time>2019-08-17T10:47:24Z</time>
      </trkpt>
      <trkpt lat="41.9770270" lon="-7.5218090">
        <ele>620.0</ele>
        <time>2019-08-17T10:47:25Z</time>
      </trkpt>
      <trkpt lat="41.9770480" lon="-7.5218310">
        <ele>620.2</ele>
        <time>2019-08-17T10:47:26Z</time>
      </trkpt>
      <trkpt lat="41.9770690" lon="-7.5218540">
        <ele>620.5</ele>
        <time>2019-08-17T10:47:27Z</time>
      </trkpt>
      <trkpt lat="41.9770900" lon="-7.5218760">
        <ele>620.8</ele>
        <time>2019-08-17T10:47:28Z</time>
      </trkpt>
      <trkpt lat="41.9771100" lon="-7.5218970">
        <ele>621.1</ele>
        <time>2019-08-17T10:47:29Z</time>
      </trkpt>
      <trkpt lat="41.9771310" lon="-7.5219190">
        <ele>621.4</ele>
        <time>2019-08-17T10:47:30Z</time>
      </trkpt>
      <trkpt lat="41.9771510" lon="-7.5219400">
        <ele>621.7</ele>
        <time>2019-08-17T10:47:31Z</time>
      </trkpt>
      <trkpt lat="41.9771720" lon="-7.5219610">
        <ele>621.9</ele>
        <time>2019-08-17T10:47:32Z</time>
      </trkpt>
      <trkpt lat="41.9771920" lon="-7.5219820">
        <ele>622.2</ele>
        <time>2019-08-17T10:47:33Z</time>
      </trkpt>
      <trkpt lat="41.9772120" lon="-7.5220030">
        <ele>622.5</ele>
        <time>2019-08-17T10:47:34Z</time>
      </trkpt>
      <trkpt lat="41.9772330" lon="-7.5220230">
        <ele>622.8</ele>
        <time>2019-08-17T10:47:35Z</time>
      </trkpt>
      <trkpt lat="41.9772530" lon="-7.5220440">
        <ele>623.1</ele>
        <time>2019-08-17T10:47:36Z</time>
      </trkpt>
      <trkpt lat="41.9772730" lon="-7.5220640">
        <ele>623.4</ele>
        <time>2019-08-17T10:47:37Z</time>
      </trkpt>
      <trkpt lat="41.9772930" lon="-7.5220850">
        <ele>623.8</ele>
        <time>2019-08-17T10:47:38Z</time>
      </trkpt>
      <trkpt lat="41.9773130" lon="-7.5221050">
        <ele>624.1</ele>
        <time>2019-08-17T10:47:39Z</time>
      </trkpt>
      <trkpt lat="41.9773330" lon="-7.5221250">
        <ele>624.4</ele>
        <time>2019-08-17T10:47:40Z</time>
      </trkpt>
      <trkpt lat="41.9773530" lon="-7.5221460">
        <ele>624.7</ele>
        <time>2019-08-17T10:47:41Z</time>
      </trkpt>
      <trkpt lat="41.9773720" lon="-7.5221660">
        <ele>625.0</ele>
        <time>2019-08-17T10:47:42Z</time>
      </trkpt>
      <trkpt lat="41.9773920" lon="-7.5221870">
        <ele>625.3</ele>
        <time>2019-08-17T10:47:43Z</time>
      </trkpt>
      <trkpt lat="41.9774120" lon="-7.5222070">
        <ele>625.7</ele>
        <time>2019-08-17T10:47:44Z</time>
      </trkpt>
      <trkpt lat="41.9774320" lon="-7.5222280">
        <ele>626.0</ele>
        <time>2019-08-17T10:47:45Z</time>
      </trkpt>
      <trkpt lat="41.9774520" lon="-7.5222480">
        <ele>626.3</ele>
        <time>2019-08-17T10:47:46Z</time>
      </trkpt>
      <trkpt lat="41.9774710" lon="-7.5222690">
        <ele>626.7</ele>
        <time>2019-08-17T10:47:47Z</time>
      </trkpt>
      <trkpt lat="41.9774910" lon="-7.5222890">
        <ele>627.0</ele>
        <time>2019-08-17T10:47:48Z</time>
      </trkpt>
      <trkpt lat="41.9775110" lon="-7.5223100">
        <ele>627.4</ele>
        <time>2019-08-17T10:47:49Z</time>
      </trkpt>
      <trkpt lat="41.9775300" lon="-7.5223300">
        <ele>627.7</ele>
        <time>2019-08-17T10:47:50Z</time>
      </trkpt>
      <trkpt lat="41.9775500" lon="-7.5223510">
        <ele>628.0</ele>
        <time>2019-08-17T10:47:51Z</time>
      </trkpt>
      <trkpt lat="41.9775700" lon="-7.5223720">
        <ele>628.4</ele>
        <time>2019-08-17T10:47:52Z</time>
      </trkpt>
      <trkpt lat="41.9775890" lon="-7.5223920">
        <ele>628.7</ele>
        <time>2019-08-17T10:47:53Z</time>
      </trkpt>
      <trkpt lat="41.9776090" lon="-7.5224130">
        <ele>629.1</ele>
        <time>2019-08-17T10:47:54Z</time>
      </trkpt>
      <trkpt lat="41.9776280" lon="-7.5224340">
        <ele>629.4</ele>
        <time>2019-08-17T10:47:55Z</time>
      </trkpt>
      <trkpt lat="41.9776480" lon="-7.5224540">
        <ele>629.9</ele>
        <time>2019-08-17T10:47:56Z</time>
      </trkpt>
      <trkpt lat="41.9776680" lon="-7.5224750">
        <ele>630.2</ele>
        <time>2019-08-17T10:47:57Z</time>
      </trkpt>
      <trkpt lat="41.9776870" lon="-7.5224960">
        <ele>630.4</ele>
        <time>2019-08-17T10:47:58Z</time>
      </trkpt>
      <trkpt lat="41.9777070" lon="-7.5225160">
        <ele>630.6</ele>
        <time>2019-08-17T10:47:59Z</time>
      </trkpt>
      <trkpt lat="41.9777260" lon="-7.5225370">
        <ele>630.9</ele>
        <time>2019-08-17T10:48:00Z</time>
      </trkpt>
      <trkpt lat="41.9777460" lon="-7.5225580">
        <ele>631.1</ele>
        <time>2019-08-17T10:48:01Z</time>
      </trkpt>
      <trkpt lat="41.9777650" lon="-7.5225780">
        <ele>631.3</ele>
        <time>2019-08-17T10:48:02Z</time>
      </trkpt>
      <trkpt lat="41.9777850" lon="-7.5225990">
        <ele>631.5</ele>
        <time>2019-08-17T10:48:03Z</time>
      </trkpt>
      <trkpt lat="41.9778040" lon="-7.5226200">
        <ele>631.7</ele>
        <time>2019-08-17T10:48:04Z</time>
      </trkpt>
      <trkpt lat="41.9778230" lon="-7.5226400">
        <ele>631.9</ele>
        <time>2019-08-17T10:48:05Z</time>
      </trkpt>
      <trkpt lat="41.9778430" lon="-7.5226610">
        <ele>632.1</ele>
        <time>2019-08-17T10:48:06Z</time>
      </trkpt>
      <trkpt lat="41.9778620" lon="-7.5226810">
        <ele>632.3</ele>
        <time>2019-08-17T10:48:07Z</time>
      </trkpt>
      <trkpt lat="41.9778820" lon="-7.5227020">
        <ele>632.6</ele>
        <time>2019-08-17T10:48:08Z</time>
      </trkpt>
      <trkpt lat="41.9779010" lon="-7.5227230">
        <ele>632.8</ele>
        <time>2019-08-17T10:48:09Z</time>
      </trkpt>
      <trkpt lat="41.9779200" lon="-7.5227430">
        <ele>632.9</ele>
        <time>2019-08-17T10:48:10Z</time>
      </trkpt>
      <trkpt lat="41.9779400" lon="-7.5227640">
        <ele>633.1</ele>
        <time>2019-08-17T10:48:11Z</time>
      </trkpt>
      <trkpt lat="41.9779590" lon="-7.5227840">
        <ele>633.3</ele>
        <time>2019-08-17T10:48:12Z</time>
      </trkpt>
      <trkpt lat="41.9779790" lon="-7.5228050">
        <ele>633.5</ele>
        <time>2019-08-17T10:48:13Z</time>
      </trkpt>
      <trkpt lat="41.9779980" lon="-7.5228250">
        <ele>633.7</ele>
        <time>2019-08-17T10:48:14Z</time>
      </trkpt>
      <trkpt lat="41.9780170" lon="-7.5228450">
        <ele>633.9</ele>
        <time>2019-08-17T10:48:15Z</time>
      </trkpt>
      <trkpt lat="41.9780370" lon="-7.5228660">
        <ele>634.1</ele>
        <time>2019-08-17T10:48:16Z</time>
      </trkpt>
      <trkpt lat="41.9780560" lon="-7.5228860">
        <ele>634.3</ele>
        <time>2019-08-17T10:48:17Z</time>
      </trkpt>
      <trkpt lat="41.9780750" lon="-7.5229060">
        <ele>634.5</ele>
        <time>2019-08-17T10:48:18Z</time>
      </trkpt>
      <trkpt lat="41.9780950" lon="-7.5229270">
        <ele>634.7</ele>
        <time>2019-08-17T10:48:19Z</time>
      </trkpt>
      <trkpt lat="41.9781140" lon="-7.5229470">
        <ele>634.9</ele>
        <time>2019-08-17T10:48:20Z</time>
      </trkpt>
      <trkpt lat="41.9781330" lon="-7.5229670">
        <ele>635.1</ele>
        <time>2019-08-17T10:48:21Z</time>
      </trkpt>
      <trkpt lat="41.9781530" lon="-7.5229870">
        <ele>635.3</ele>
        <time>2019-08-17T10:48:22Z</time>
      </trkpt>
      <trkpt lat="41.9781720" lon="-7.5230070">
        <ele>635.5</ele>
        <time>2019-08-17T10:48:23Z</time>
      </trkpt>
      <trkpt lat="41.9781920" lon="-7.5230280">
        <ele>635.7</ele>
        <time>2019-08-17T10:48:24Z</time>
      </trkpt>
      <trkpt lat="41.9782110" lon="-7.5230480">
        <ele>635.9</ele>
        <time>2019-08-17T10:48:25Z</time>
      </trkpt>
      <trkpt lat="41.9782300" lon="-7.5230680">
        <ele>636.1</ele>
        <time>2019-08-17T10:48:26Z</time>
      </trkpt>
      <trkpt lat="41.9782500" lon="-7.5230880">
        <ele>636.3</ele>
        <time>2019-08-17T10:48:27Z</time>
      </trkpt>
      <trkpt lat="41.9782690" lon="-7.5231080">
        <ele>636.5</ele>
        <time>2019-08-17T10:48:28Z</time>
      </trkpt>
      <trkpt lat="41.9782880" lon="-7.5231280">
        <ele>636.7</ele>
        <time>2019-08-17T10:48:29Z</time>
      </trkpt>
      <trkpt lat="41.9783080" lon="-7.5231480">
        <ele>636.9</ele>
        <time>2019-08-17T10:48:30Z</time>
      </trkpt>
      <trkpt lat="41.9783270" lon="-7.5231680">
        <ele>637.1</ele>
        <time>2019-08-17T10:48:31Z</time>
      </trkpt>
      <trkpt lat="41.9783470" lon="-7.5231880">
        <ele>637.3</ele>
        <time>2019-08-17T10:48:32Z</time>
      </trkpt>
      <trkpt lat="41.9783660" lon="-7.5232070">
        <ele>637.5</ele>
        <time>2019-08-17T10:48:33Z</time>
      </trkpt>
      <trkpt lat="41.9783860" lon="-7.5232270">
        <ele>637.7</ele>
        <time>2019-08-17T10:48:34Z</time>
      </trkpt>
      <trkpt lat="41.9784050" lon="-7.5232470">
        <ele>638.0</ele>
        <time>2019-08-17T10:48:35Z</time>
      </trkpt>
      <trkpt lat="41.9784240" lon="-7.5232670">
        <ele>638.2</ele>
        <time>2019-08-17T10:48:36Z</time>
      </trkpt>
      <trkpt lat="41.9784440" lon="-7.5232870">
        <ele>638.4</ele>
        <time>2019-08-17T10:48:37Z</time>
      </trkpt>
      <trkpt lat="41.9784630" lon="-7.5233070">
        <ele>638.6</ele>
        <time>2019-08-17T10:48:38Z</time>
      </trkpt>
      <trkpt lat="41.9784830" lon="-7.5233270">
        <ele>638.8</ele>
        <time>2019-08-17T10:48:39Z</time>
      </trkpt>
      <trkpt lat="41.9785030" lon="-7.5233470">
        <ele>639.0</ele>
        <time>2019-08-17T10:48:40Z</time>
      </trkpt>
      <trkpt lat="41.9785220" lon="-7.5233670">
        <ele>639.2</ele>
        <time>2019-08-17T10:48:41Z</time>
      </trkpt>
      <trkpt lat="41.9785420" lon="-7.5233870">
        <ele>639.4</ele>
        <time>2019-08-17T10:48:42Z</time>
      </trkpt>
      <trkpt lat="41.9785620" lon="-7.5234070">
        <ele>639.6</ele>
        <time>2019-08-17T10:48:43Z</time>
      </trkpt>
      <trkpt lat="41.9785810" lon="-7.5234270">
        <ele>639.8</ele>
        <time>2019-08-17T10:48:44Z</time>
      </trkpt>
      <trkpt lat="41.9786010" lon="-7.5234470">
        <ele>640.0</ele>
        <time>2019-08-17T10:48:45Z</time>
      </trkpt>
      <trkpt lat="41.9786210" lon="-7.5234670">
        <ele>640.2</ele>
        <time>2019-08-17T10:48:46Z</time>
      </trkpt>
      <trkpt lat="41.9786400" lon="-7.5234870">
        <ele>640.3</ele>
        <time>2019-08-17T10:48:47Z</time>
      </trkpt>
      <trkpt lat="41.9786600" lon="-7.5235070">
        <ele>640.5</ele>
        <time>2019-08-17T10:48:48Z</time>
      </trkpt>
      <trkpt lat="41.9786790" lon="-7.5235270">
        <ele>640.7</ele>
        <time>2019-08-17T10:48:49Z</time>
      </trkpt>
      <trkpt lat="41.9786980" lon="-7.5235470">
        <ele>640.9</ele>
        <time>2019-08-17T10:48:50Z</time>
      </trkpt>
      <trkpt lat="41.9787180" lon="-7.5235670">
        <ele>641.1</ele>
        <time>2019-08-17T10:48:51Z</time>
      </trkpt>
      <trkpt lat="41.9787370" lon="-7.5235870">
        <ele>641.3</ele>
        <time>2019-08-17T10:48:52Z</time>
      </trkpt>
      <trkpt lat="41.9787560" lon="-7.5236070">
        <ele>641.5</ele>
        <time>2019-08-17T10:48:53Z</time>
      </trkpt>
      <trkpt lat="41.9787750" lon="-7.5236270">
        <ele>641.7</ele>
        <time>2019-08-17T10:48:54Z</time>
      </trkpt>
      <trkpt lat="41.9787940" lon="-7.5236470">
        <ele>641.9</ele>
        <time>2019-08-17T10:48:55Z</time>
      </trkpt>
      <trkpt lat="41.9788140" lon="-7.5236670">
        <ele>642.1</ele>
        <time>2019-08-17T10:48:56Z</time>
      </trkpt>
      <trkpt lat="41.9788330" lon="-7.5236870">
        <ele>642.3</ele>
        <time>2019-08-17T10:48:57Z</time>
      </trkpt>
      <trkpt lat="41.9788520" lon="-7.5237080">
        <ele>642.5</ele>
        <time>2019-08-17T10:48:58Z</time>
      </trkpt>
      <trkpt lat="41.9788710" lon="-7.5237280">
        <ele>642.7</ele>
        <time>2019-08-17T10:48:59Z</time>
      </trkpt>
      <trkpt lat="41.9788900" lon="-7.5237480">
        <ele>642.9</ele>
        <time>2019-08-17T10:49:00Z</time>
      </trkpt>
      <trkpt lat="41.9789090" lon="-7.5237680">
        <ele>643.1</ele>
        <time>2019-08-17T10:49:01Z</time>
      </trkpt>
      <trkpt lat="41.9789290" lon="-7.5237880">
        <ele>643.3</ele>
        <time>2019-08-17T10:49:02Z</time>
      </trkpt>
      <trkpt lat="41.9789480" lon="-7.5238080">
        <ele>643.6</ele>
        <time>2019-08-17T10:49:03Z</time>
      </trkpt>
      <trkpt lat="41.9789670" lon="-7.5238280">
        <ele>643.8</ele>
        <time>2019-08-17T10:49:04Z</time>
      </trkpt>
      <trkpt lat="41.9789870" lon="-7.5238480">
        <ele>644.0</ele>
        <time>2019-08-17T10:49:05Z</time>
      </trkpt>
      <trkpt lat="41.9790060" lon="-7.5238690">
        <ele>644.2</ele>
        <time>2019-08-17T10:49:06Z</time>
      </trkpt>
      <trkpt lat="41.9790260" lon="-7.5238890">
        <ele>644.5</ele>
        <time>2019-08-17T10:49:07Z</time>
      </trkpt>
      <trkpt lat="41.9790450" lon="-7.5239090">
        <ele>644.7</ele>
        <time>2019-08-17T10:49:08Z</time>
      </trkpt>
      <trkpt lat="41.9790650" lon="-7.5239300">
        <ele>645.0</ele>
        <time>2019-08-17T10:49:09Z</time>
      </trkpt>
      <trkpt lat="41.9790850" lon="-7.5239500">
        <ele>645.3</ele>
        <time>2019-08-17T10:49:10Z</time>
      </trkpt>
      <trkpt lat="41.9791050" lon="-7.5239700">
        <ele>645.6</ele>
        <time>2019-08-17T10:49:11Z</time>
      </trkpt>
      <trkpt lat="41.9791240" lon="-7.5239910">
        <ele>645.8</ele>
        <time>2019-08-17T10:49:12Z</time>
      </trkpt>
      <trkpt lat="41.9791440" lon="-7.5240110">
        <ele>646.1</ele>
        <time>2019-08-17T10:49:13Z</time>
      </trkpt>
      <trkpt lat="41.9791640" lon="-7.5240320">
        <ele>646.4</ele>
        <time>2019-08-17T10:49:14Z</time>
      </trkpt>
      <trkpt lat="41.9791850" lon="-7.5240520">
        <ele>646.7</ele>
        <time>2019-08-17T10:49:15Z</time>
      </trkpt>
      <trkpt lat="41.9792050" lon="-7.5240730">
        <ele>646.9</ele>
        <time>2019-08-17T10:49:16Z</time>
      </trkpt>
      <trkpt lat="41.9792250" lon="-7.5240940">
        <ele>647.2</ele>
        <time>2019-08-17T10:49:17Z</time>
      </trkpt>
      <trkpt lat="41.9792450" lon="-7.5241140">
        <ele>647.5</ele>
        <time>2019-08-17T10:49:18Z</time>
      </trkpt>
      <trkpt lat="41.9792660" lon="-7.5241350">
        <ele>647.7</ele>
        <time>2019-08-17T10:49:19Z</time>
      </trkpt>
      <trkpt lat="41.9792860" lon="-7.5241560">
        <ele>648.0</ele>
        <time>2019-08-17T10:49:20Z</time>
      </trkpt>
      <trkpt lat="41.9793070" lon="-7.5241770">
        <ele>648.2</ele>
        <time>2019-08-17T10:49:21Z</time>
      </trkpt>
      <trkpt lat="41.9793280" lon="-7.5241980">
        <ele>648.4</ele>
        <time>2019-08-17T10:49:22Z</time>
      </trkpt>
      <trkpt lat="41.9793480" lon="-7.5242190">
        <ele>648.6</ele>
        <time>2019-08-17T10:49:23Z</time>
      </trkpt>
      <trkpt lat="41.9793690" lon="-7.5242390">
        <ele>648.8</ele>
        <time>2019-08-17T10:49:24Z</time>
      </trkpt>
      <trkpt lat="41.9793900" lon="-7.5242600">
        <ele>649.1</ele>
        <time>2019-08-17T10:49:25Z</time>
      </trkpt>
      <trkpt lat="41.9794100" lon="-7.5242810">
        <ele>649.3</ele>
        <time>2019-08-17T10:49:26Z</time>
      </trkpt>
      <trkpt lat="41.9794310" lon="-7.5243020">
        <ele>649.5</ele>
        <time>2019-08-17T10:49:27Z</time>
      </trkpt>
      <trkpt lat="41.9794510" lon="-7.5243230">
        <ele>649.7</ele>
        <time>2019-08-17T10:49:28Z</time>
      </trkpt>
      <trkpt lat="41.9794720" lon="-7.5243440">
        <ele>649.9</ele>
        <time>2019-08-17T10:49:29Z</time>
      </trkpt>
      <trkpt lat="41.9794930" lon="-7.5243650">
        <ele>650.1</ele>
        <time>2019-08-17T10:49:30Z</time>
      </trkpt>
      <trkpt lat="41.9795130" lon="-7.5243850">
        <ele>650.2</ele>
        <time>2019-08-17T10:49:31Z</time>
      </trkpt>
      <trkpt lat="41.9795330" lon="-7.5244060">
        <ele>650.4</ele>
        <time>2019-08-17T10:49:32Z</time>
      </trkpt>
      <trkpt lat="41.9795530" lon="-7.5244270">
        <ele>650.6</ele>
        <time>2019-08-17T10:49:33Z</time>
      </trkpt>
      <trkpt lat="41.9795740" lon="-7.5244480">
        <ele>650.8</ele>
        <time>2019-08-17T10:49:34Z</time>
      </trkpt>
      <trkpt lat="41.9795940" lon="-7.5244680">
        <ele>651.0</ele>
        <time>2019-08-17T10:49:35Z</time>
      </trkpt>
      <trkpt lat="41.9796130" lon="-7.5244890">
        <ele>651.2</ele>
        <time>2019-08-17T10:49:36Z</time>
      </trkpt>
      <trkpt lat="41.9796330" lon="-7.5245090">
        <ele>651.4</ele>
        <time>2019-08-17T10:49:37Z</time>
      </trkpt>
      <trkpt lat="41.9796530" lon="-7.5245300">
        <ele>651.6</ele>
        <time>2019-08-17T10:49:38Z</time>
      </trkpt>
      <trkpt lat="41.9796730" lon="-7.5245500">
        <ele>651.8</ele>
        <time>2019-08-17T10:49:39Z</time>
      </trkpt>
      <trkpt lat="41.9796920" lon="-7.5245710">
        <ele>651.9</ele>
        <time>2019-08-17T10:49:40Z</time>
      </trkpt>
      <trkpt lat="41.9797120" lon="-7.5245920">
        <ele>652.1</ele>
        <time>2019-08-17T10:49:41Z</time>
      </trkpt>
      <trkpt lat="41.9797310" lon="-7.5246130">
        <ele>652.3</ele>
        <time>2019-08-17T10:49:42Z</time>
      </trkpt>
      <trkpt lat="41.9797510" lon="-7.5246340">
        <ele>652.5</ele>
        <time>2019-08-17T10:49:43Z</time>
      </trkpt>
      <trkpt lat="41.9797700" lon="-7.5246550">
        <ele>652.7</ele>
        <time>2019-08-17T10:49:44Z</time>
      </trkpt>
      <trkpt lat="41.9797900" lon="-7.5246770">
        <ele>652.9</ele>
        <time>2019-08-17T10:49:45Z</time>
      </trkpt>
      <trkpt lat="41.9798100" lon="-7.5246990">
        <ele>653.1</ele>
        <time>2019-08-17T10:49:46Z</time>
      </trkpt>
      <trkpt lat="41.9798290" lon="-7.5247210">
        <ele>653.3</ele>
        <time>2019-08-17T10:49:47Z</time>
      </trkpt>
      <trkpt lat="41.9798490" lon="-7.5247430">
        <ele>653.4</ele>
        <time>2019-08-17T10:49:48Z</time>
      </trkpt>
      <trkpt lat="41.9798690" lon="-7.5247660">
        <ele>653.6</ele>
        <time>2019-08-17T10:49:49Z</time>
      </trkpt>
      <trkpt lat="41.9798890" lon="-7.5247890">
        <ele>653.8</ele>
        <time>2019-08-17T10:49:50Z</time>
      </trkpt>
      <trkpt lat="41.9799090" lon="-7.5248120">
        <ele>654.0</ele>
        <time>2019-08-17T10:49:51Z</time>
      </trkpt>
      <trkpt lat="41.9799300" lon="-7.5248360">
        <ele>654.2</ele>
        <time>2019-08-17T10:49:52Z</time>
      </trkpt>
      <trkpt lat="41.9799500" lon="-7.5248600">
        <ele>654.4</ele>
        <time>2019-08-17T10:49:53Z</time>
      </trkpt>
      <trkpt lat="41.9799700" lon="-7.5248830">
        <ele>654.6</ele>
        <time>2019-08-17T10:49:54Z</time>
      </trkpt>
      <trkpt lat="41.9799910" lon="-7.5249070">
        <ele>654.8</ele>
        <time>2019-08-17T10:49:55Z</time>
      </trkpt>
      <trkpt lat="41.9800110" lon="-7.5249300">
        <ele>655.0</ele>
        <time>2019-08-17T10:49:56Z</time>
      </trkpt>
      <trkpt lat="41.9800320" lon="-7.5249530">
        <ele>655.2</ele>
        <time>2019-08-17T10:49:57Z</time>
      </trkpt>
      <trkpt lat="41.9800520" lon="-7.5249760">
        <ele>655.5</ele>
        <time>2019-08-17T10:49:58Z</time>
      </trkpt>
      <trkpt lat="41.9800720" lon="-7.5249990">
        <ele>655.7</ele>
        <time>2019-08-17T10:49:59Z</time>
      </trkpt>
      <trkpt lat="41.9800930" lon="-7.5250210">
        <ele>655.9</ele>
        <time>2019-08-17T10:50:00Z</time>
      </trkpt>
      <trkpt lat="41.9801130" lon="-7.5250430">
        <ele>656.0</ele>
        <time>2019-08-17T10:50:01Z</time>
      </trkpt>
      <trkpt lat="41.9801340" lon="-7.5250650">
        <ele>656.2</ele>
        <time>2019-08-17T10:50:02Z</time>
      </trkpt>
      <trkpt lat="41.9801540" lon="-7.5250860">
        <ele>656.4</ele>
        <time>2019-08-17T10:50:03Z</time>
      </trkpt>
      <trkpt lat="41.9801740" lon="-7.5251080">
        <ele>656.5</ele>
        <time>2019-08-17T10:50:04Z</time>
      </trkpt>
      <trkpt lat="41.9801940" lon="-7.5251300">
        <ele>656.7</ele>
        <time>2019-08-17T10:50:05Z</time>
      </trkpt>
      <trkpt lat="41.9802150" lon="-7.5251510">
        <ele>656.8</ele>
        <time>2019-08-17T10:50:06Z</time>
      </trkpt>
      <trkpt lat="41.9802350" lon="-7.5251730">
        <ele>656.9</ele>
        <time>2019-08-17T10:50:07Z</time>
      </trkpt>
      <trkpt lat="41.9802550" lon="-7.5251950">
        <ele>657.0</ele>
        <time>2019-08-17T10:50:08Z</time>
      </trkpt>
      <trkpt lat="41.9802750" lon="-7.5252170">
        <ele>657.2</ele>
        <time>2019-08-17T10:50:09Z</time>
      </trkpt>
      <trkpt lat="41.9802960" lon="-7.5252380">
        <ele>657.3</ele>
        <time>2019-08-17T10:50:10Z</time>
      </trkpt>
      <trkpt lat="41.9803160" lon="-7.5252600">
        <ele>657.4</ele>
        <time>2019-08-17T10:50:11Z</time>
      </trkpt>
      <trkpt lat="41.9803360" lon="-7.5252820">
        <ele>657.5</ele>
        <time>2019-08-17T10:50:12Z</time>
      </trkpt>
      <trkpt lat="41.9803570" lon="-7.5253040">
        <ele>657.6</ele>
        <time>2019-08-17T10:50:13Z</time>
      </trkpt>
      <trkpt lat="41.9803770" lon="-7.5253250">
        <ele>657.7</ele>
        <time>2019-08-17T10:50:14Z</time>
      </trkpt>
      <trkpt lat="41.9803970" lon="-7.5253470">
        <ele>657.9</ele>
        <time>2019-08-17T10:50:15Z</time>
      </trkpt>
      <trkpt lat="41.9804180" lon="-7.5253680">
        <ele>658.0</ele>
        <time>2019-08-17T10:50:16Z</time>
      </trkpt>
      <trkpt lat="41.9804380" lon="-7.5253900">
        <ele>658.1</ele>
        <time>2019-08-17T10:50:17Z</time>
      </trkpt>
      <trkpt lat="41.9804590" lon="-7.5254110">
        <ele>658.2</ele>
        <time>2019-08-17T10:50:18Z</time>
      </trkpt>
      <trkpt lat="41.9804790" lon="-7.5254320">
        <ele>658.3</ele>
        <time>2019-08-17T10:50:19Z</time>
      </trkpt>
      <trkpt lat="41.9805000" lon="-7.5254530">
        <ele>658.4</ele>
        <time>2019-08-17T10:50:20Z</time>
      </trkpt>
      <trkpt lat="41.9805210" lon="-7.5254740">
        <ele>658.5</ele>
        <time>2019-08-17T10:50:21Z</time>
      </trkpt>
      <trkpt lat="41.9805410" lon="-7.5254950">
        <ele>658.6</ele>
        <time>2019-08-17T10:50:22Z</time>
      </trkpt>
      <trkpt lat="41.9805620" lon="-7.5255160">
        <ele>658.7</ele>
        <time>2019-08-17T10:50:23Z</time>
      </trkpt>
      <trkpt lat="41.9805830" lon="-7.5255370">
        <ele>658.9</ele>
        <time>2019-08-17T10:50:24Z</time>
      </trkpt>
      <trkpt lat="41.9806040" lon="-7.5255580">
        <ele>659.1</ele>
        <time>2019-08-17T10:50:25Z</time>
      </trkpt>
      <trkpt lat="41.9806250" lon="-7.5255790">
        <ele>659.3</ele>
        <time>2019-08-17T10:50:26Z</time>
      </trkpt>
      <trkpt lat="41.9806450" lon="-7.5256000">
        <ele>659.5</ele>
        <time>2019-08-17T10:50:27Z</time>
      </trkpt>
      <trkpt lat="41.9806660" lon="-7.5256220">
        <ele>659.7</ele>
        <time>2019-08-17T10:50:28Z</time>
      </trkpt>
      <trkpt lat="41.9806870" lon="-7.5256440">
        <ele>659.9</ele>
        <time>2019-08-17T10:50:29Z</time>
      </trkpt>
      <trkpt lat="41.9807080" lon="-7.5256660">
        <ele>660.1</ele>
        <time>2019-08-17T10:50:30Z</time>
      </trkpt>
      <trkpt lat="41.9807290" lon="-7.5256880">
        <ele>660.3</ele>
        <time>2019-08-17T10:50:31Z</time>
      </trkpt>
      <trkpt lat="41.9807500" lon="-7.5257100">
        <ele>660.5</ele>
        <time>2019-08-17T10:50:32Z</time>
      </trkpt>
      <trkpt lat="41.9807710" lon="-7.5257330">
        <ele>660.8</ele>
        <time>2019-08-17T10:50:33Z</time>
      </trkpt>
      <trkpt lat="41.9807920" lon="-7.5257550">
        <ele>661.1</ele>
        <time>2019-08-17T10:50:34Z</time>
      </trkpt>
      <trkpt lat="41.9808120" lon="-7.5257780">
        <ele>661.3</ele>
        <time>2019-08-17T10:50:35Z</time>
      </trkpt>
      <trkpt lat="41.9808330" lon="-7.5258000">
        <ele>661.6</ele>
        <time>2019-08-17T10:50:36Z</time>
      </trkpt>
      <trkpt lat="41.9808540" lon="-7.5258230">
        <ele>661.9</ele>
        <time>2019-08-17T10:50:37Z</time>
      </trkpt>
      <trkpt lat="41.9808750" lon="-7.5258450">
        <ele>662.1</ele>
        <time>2019-08-17T10:50:38Z</time>
      </trkpt>
      <trkpt lat="41.9808950" lon="-7.5258680">
        <ele>662.4</ele>
        <time>2019-08-17T10:50:39Z</time>
      </trkpt>
      <trkpt lat="41.9809160" lon="-7.5258900">
        <ele>662.7</ele>
        <time>2019-08-17T10:50:40Z</time>
      </trkpt>
      <trkpt lat="41.9809370" lon="-7.5259120">
        <ele>662.9</ele>
        <time>2019-08-17T10:50:41Z</time>
      </trkpt>
      <trkpt lat="41.9809570" lon="-7.5259340">
        <ele>663.2</ele>
        <time>2019-08-17T10:50:42Z</time>
      </trkpt>
      <trkpt lat="41.9809780" lon="-7.5259570">
        <ele>663.5</ele>
        <time>2019-08-17T10:50:43Z</time>
      </trkpt>
      <trkpt lat="41.9809980" lon="-7.5259790">
        <ele>663.7</ele>
        <time>2019-08-17T10:50:44Z</time>
      </trkpt>
      <trkpt lat="41.9810190" lon="-7.5260010">
        <ele>664.0</ele>
        <time>2019-08-17T10:50:45Z</time>
      </trkpt>
      <trkpt lat="41.9810400" lon="-7.5260220">
        <ele>664.3</ele>
        <time>2019-08-17T10:50:46Z</time>
      </trkpt>
      <trkpt lat="41.9810610" lon="-7.5260440">
        <ele>664.5</ele>
        <time>2019-08-17T10:50:47Z</time>
      </trkpt>
      <trkpt lat="41.9810810" lon="-7.5260660">
        <ele>664.8</ele>
        <time>2019-08-17T10:50:48Z</time>
      </trkpt>
      <trkpt lat="41.9811020" lon="-7.5260880">
        <ele>665.1</ele>
        <time>2019-08-17T10:50:49Z</time>
      </trkpt>
      <trkpt lat="41.9811230" lon="-7.5261090">
        <ele>665.4</ele>
        <time>2019-08-17T10:50:50Z</time>
      </trkpt>
      <trkpt lat="41.9811440" lon="-7.5261310">
        <ele>665.6</ele>
        <time>2019-08-17T10:50:51Z</time>
      </trkpt>
      <trkpt lat="41.9811650" lon="-7.5261520">
        <ele>665.9</ele>
        <time>2019-08-17T10:50:52Z</time>
      </trkpt>
      <trkpt lat="41.9811870" lon="-7.5261740">
        <ele>666.2</ele>
        <time>2019-08-17T10:50:53Z</time>
      </trkpt>
      <trkpt lat="41.9812080" lon="-7.5261960">
        <ele>666.5</ele>
        <time>2019-08-17T10:50:54Z</time>
      </trkpt>
      <trkpt lat="41.9812290" lon="-7.5262170">
        <ele>666.7</ele>
        <time>2019-08-17T10:50:55Z</time>
      </trkpt>
      <trkpt lat="41.9812510" lon="-7.5262390">
        <ele>667.0</ele>
        <time>2019-08-17T10:50:56Z</time>
      </trkpt>
      <trkpt lat="41.9812720" lon="-7.5262610">
        <ele>667.3</ele>
        <time>2019-08-17T10:50:57Z</time>
      </trkpt>
      <trkpt lat="41.9812940" lon="-7.5262840">
        <ele>667.6</ele>
        <time>2019-08-17T10:50:58Z</time>
      </trkpt>
      <trkpt lat="41.9813160" lon="-7.5263060">
        <ele>667.9</ele>
        <time>2019-08-17T10:50:59Z</time>
      </trkpt>
      <trkpt lat="41.9813380" lon="-7.5263290">
        <ele>668.1</ele>
        <time>2019-08-17T10:51:00Z</time>
      </trkpt>
      <trkpt lat="41.9813590" lon="-7.5263520">
        <ele>668.4</ele>
        <time>2019-08-17T10:51:01Z</time>
      </trkpt>
      <trkpt lat="41.9813810" lon="-7.5263750">
        <ele>668.7</ele>
        <time>2019-08-17T10:51:02Z</time>
      </trkpt>
      <trkpt lat="41.9814010" lon="-7.5263970">
        <ele>669.0</ele>
        <time>2019-08-17T10:51:03Z</time>
      </trkpt>
      <trkpt lat="41.9814220" lon="-7.5264180">
        <ele>669.3</ele>
        <time>2019-08-17T10:51:04Z</time>
      </trkpt>
      <trkpt lat="41.9814410" lon="-7.5264370">
        <ele>669.5</ele>
        <time>2019-08-17T10:51:05Z</time>
      </trkpt>
      <trkpt lat="41.9814610" lon="-7.5264570">
        <ele>669.8</ele>
        <time>2019-08-17T10:51:06Z</time>
      </trkpt>
      <trkpt lat="41.9814800" lon="-7.5264760">
        <ele>670.0</ele>
        <time>2019-08-17T10:51:07Z</time>
      </trkpt>
      <trkpt lat="41.9814990" lon="-7.5264960">
        <ele>670.3</ele>
        <time>2019-08-17T10:51:08Z</time>
      </trkpt>
      <trkpt lat="41.9815170" lon="-7.5265160">
        <ele>670.5</ele>
        <time>2019-08-17T10:51:09Z</time>
      </trkpt>
      <trkpt lat="41.9815360" lon="-7.5265360">
        <ele>670.8</ele>
        <time>2019-08-17T10:51:10Z</time>
      </trkpt>
      <trkpt lat="41.9815550" lon="-7.5265570">
        <ele>671.0</ele>
        <time>2019-08-17T10:51:11Z</time>
      </trkpt>
      <trkpt lat="41.9815730" lon="-7.5265770">
        <ele>671.3</ele>
        <time>2019-08-17T10:51:12Z</time>
      </trkpt>
      <trkpt lat="41.9815920" lon="-7.5265980">
        <ele>671.6</ele>
        <time>2019-08-17T10:51:13Z</time>
      </trkpt>
      <trkpt lat="41.9816110" lon="-7.5266190">
        <ele>671.8</ele>
        <time>2019-08-17T10:51:14Z</time>
      </trkpt>
      <trkpt lat="41.9816300" lon="-7.5266410">
        <ele>672.1</ele>
        <time>2019-08-17T10:51:15Z</time>
      </trkpt>
      <trkpt lat="41.9816490" lon="-7.5266620">
        <ele>672.4</ele>
        <time>2019-08-17T10:51:16Z</time>
      </trkpt>
      <trkpt lat="41.9816690" lon="-7.5266830">
        <ele>672.7</ele>
        <time>2019-08-17T10:51:17Z</time>
      </trkpt>
      <trkpt lat="41.9816880" lon="-7.5267040">
        <ele>673.0</ele>
        <time>2019-08-17T10:51:18Z</time>
      </trkpt>
      <trkpt lat="41.9817080" lon="-7.5267250">
        <ele>673.3</ele>
        <time>2019-08-17T10:51:19Z</time>
      </trkpt>
      <trkpt lat="41.9817270" lon="-7.5267450">
        <ele>673.6</ele>
        <time>2019-08-17T10:51:20Z</time>
      </trkpt>
      <trkpt lat="41.9817460" lon="-7.5267660">
        <ele>673.9</ele>
        <time>2019-08-17T10:51:21Z</time>
      </trkpt>
      <trkpt lat="41.9817650" lon="-7.5267860">
        <ele>674.2</ele>
        <time>2019-08-17T10:51:22Z</time>
      </trkpt>
      <trkpt lat="41.9817840" lon="-7.5268050">
        <ele>674.5</ele>
        <time>2019-08-17T10:51:23Z</time>
      </trkpt>
      <trkpt lat="41.9818020" lon="-7.5268240">
        <ele>674.8</ele>
        <time>2019-08-17T10:51:24Z</time>
      </trkpt>
      <trkpt lat="41.9818200" lon="-7.5268430">
        <ele>675.1</ele>
        <time>2019-08-17T10:51:25Z</time>
      </trkpt>
      <trkpt lat="41.9818380" lon="-7.5268610">
        <ele>675.4</ele>
        <time>2019-08-17T10:51:26Z</time>
      </trkpt>
      <trkpt lat="41.9818560" lon="-7.5268800">
        <ele>675.7</ele>
        <time>2019-08-17T10:51:27Z</time>
      </trkpt>
      <trkpt lat="41.9818730" lon="-7.5268980">
        <ele>675.9</ele>
        <time>2019-08-17T10:51:28Z</time>
      </trkpt>
      <trkpt lat="41.9818910" lon="-7.5269160">
        <ele>676.1</ele>
        <time>2019-08-17T10:51:29Z</time>
      </trkpt>
      <trkpt lat="41.9819080" lon="-7.5269350">
        <ele>676.4</ele>
        <time>2019-08-17T10:51:30Z</time>
      </trkpt>
      <trkpt lat="41.9819260" lon="-7.5269540">
        <ele>676.7</ele>
        <time>2019-08-17T10:51:31Z</time>
      </trkpt>
      <trkpt lat="41.9819440" lon="-7.5269740">
        <ele>677.1</ele>
        <time>2019-08-17T10:51:32Z</time>
      </trkpt>
      <trkpt lat="41.9819620" lon="-7.5269940">
        <ele>677.4</ele>
        <time>2019-08-17T10:51:33Z</time>
      </trkpt>
      <trkpt lat="41.9819800" lon="-7.5270140">
        <ele>677.6</ele>
        <time>2019-08-17T10:51:34Z</time>
      </trkpt>
      <trkpt lat="41.9819980" lon="-7.5270340">
        <ele>677.7</ele>
        <time>2019-08-17T10:51:35Z</time>
      </trkpt>
      <trkpt lat="41.9820160" lon="-7.5270550">
        <ele>677.9</ele>
        <time>2019-08-17T10:51:36Z</time>
      </trkpt>
      <trkpt lat="41.9820340" lon="-7.5270760">
        <ele>678.0</ele>
        <time>2019-08-17T10:51:37Z</time>
      </trkpt>
      <trkpt lat="41.9820520" lon="-7.5270960">
        <ele>678.2</ele>
        <time>2019-08-17T10:51:38Z</time>
      </trkpt>
      <trkpt lat="41.9820700" lon="-7.5271160">
        <ele>678.4</ele>
        <time>2019-08-17T10:51:39Z</time>
      </trkpt>
      <trkpt lat="41.9820870" lon="-7.5271360">
        <ele>678.5</ele>
        <time>2019-08-17T10:51:40Z</time>
      </trkpt>
      <trkpt lat="41.9821050" lon="-7.5271560">
        <ele>678.7</ele>
        <time>2019-08-17T10:51:41Z</time>
      </trkpt>
      <trkpt lat="41.9821230" lon="-7.5271750">
        <ele>678.9</ele>
        <time>2019-08-17T10:51:42Z</time>
      </trkpt>
      <trkpt lat="41.9821400" lon="-7.5271950">
        <ele>679.0</ele>
        <time>2019-08-17T10:51:43Z</time>
      </trkpt>
      <trkpt lat="41.9821570" lon="-7.5272140">
        <ele>679.3</ele>
        <time>2019-08-17T10:51:44Z</time>
      </trkpt>
      <trkpt lat="41.9821740" lon="-7.5272330">
        <ele>679.5</ele>
        <time>2019-08-17T10:51:45Z</time>
      </trkpt>
      <trkpt lat="41.9821920" lon="-7.5272520">
        <ele>679.7</ele>
        <time>2019-08-17T10:51:46Z</time>
      </trkpt>
      <trkpt lat="41.9822090" lon="-7.5272700">
        <ele>679.8</ele>
        <time>2019-08-17T10:51:47Z</time>
      </trkpt>
      <trkpt lat="41.9822260" lon="-7.5272890">
        <ele>680.0</ele>
        <time>2019-08-17T10:51:48Z</time>
      </trkpt>
      <trkpt lat="41.9822440" lon="-7.5273080">
        <ele>680.1</ele>
        <time>2019-08-17T10:51:49Z</time>
      </trkpt>
      <trkpt lat="41.9822610" lon="-7.5273270">
        <ele>680.3</ele>
        <time>2019-08-17T10:51:50Z</time>
      </trkpt>
      <trkpt lat="41.9822790" lon="-7.5273460">
        <ele>680.5</ele>
        <time>2019-08-17T10:51:51Z</time>
      </trkpt>
      <trkpt lat="41.9822970" lon="-7.5273650">
        <ele>680.7</ele>
        <time>2019-08-17T10:51:52Z</time>
      </trkpt>
      <trkpt lat="41.9823160" lon="-7.5273850">
        <ele>680.9</ele>
        <time>2019-08-17T10:51:53Z</time>
      </trkpt>
      <trkpt lat="41.9823350" lon="-7.5274050">
        <ele>681.0</ele>
        <time>2019-08-17T10:51:54Z</time>
      </trkpt>
      <trkpt lat="41.9823540" lon="-7.5274250">
        <ele>681.2</ele>
        <time>2019-08-17T10:51:55Z</time>
      </trkpt>
      <trkpt lat="41.9823740" lon="-7.5274460">
        <ele>681.3</ele>
        <time>2019-08-17T10:51:56Z</time>
      </trkpt>
      <trkpt lat="41.9823940" lon="-7.5274670">
        <ele>681.5</ele>
        <time>2019-08-17T10:51:57Z</time>
      </trkpt>
      <trkpt lat="41.9824140" lon="-7.5274880">
        <ele>681.6</ele>
        <time>2019-08-17T10:51:58Z</time>
      </trkpt>
      <trkpt lat="41.9824350" lon="-7.5275090">
        <ele>681.8</ele>
        <time>2019-08-17T10:51:59Z</time>
      </trkpt>
      <trkpt lat="41.9824560" lon="-7.5275310">
        <ele>682.0</ele>
        <time>2019-08-17T10:52:00Z</time>
      </trkpt>
      <trkpt lat="41.9824780" lon="-7.5275530">
        <ele>682.3</ele>
        <time>2019-08-17T10:52:01Z</time>
      </trkpt>
      <trkpt lat="41.9824990" lon="-7.5275750">
        <ele>682.5</ele>
        <time>2019-08-17T10:52:02Z</time>
      </trkpt>
      <trkpt lat="41.9825210" lon="-7.5275970">
        <ele>682.8</ele>
        <time>2019-08-17T10:52:03Z</time>
      </trkpt>
      <trkpt lat="41.9825430" lon="-7.5276190">
        <ele>683.0</ele>
        <time>2019-08-17T10:52:04Z</time>
      </trkpt>
      <trkpt lat="41.9825650" lon="-7.5276420">
        <ele>683.2</ele>
        <time>2019-08-17T10:52:05Z</time>
      </trkpt>
      <trkpt lat="41.9825870" lon="-7.5276640">
        <ele>683.3</ele>
        <time>2019-08-17T10:52:06Z</time>
      </trkpt>
      <trkpt lat="41.9826090" lon="-7.5276870">
        <ele>683.5</ele>
        <time>2019-08-17T10:52:07Z</time>
      </trkpt>
      <trkpt lat="41.9826320" lon="-7.5277090">
        <ele>683.7</ele>
        <time>2019-08-17T10:52:08Z</time>
      </trkpt>
      <trkpt lat="41.9826540" lon="-7.5277320">
        <ele>683.8</ele>
        <time>2019-08-17T10:52:09Z</time>
      </trkpt>
      <trkpt lat="41.9826760" lon="-7.5277540">
        <ele>684.0</ele>
        <time>2019-08-17T10:52:10Z</time>
      </trkpt>
      <trkpt lat="41.9826980" lon="-7.5277760">
        <ele>684.2</ele>
        <time>2019-08-17T10:52:11Z</time>
      </trkpt>
      <trkpt lat="41.9827200" lon="-7.5277980">
        <ele>684.4</ele>
        <time>2019-08-17T10:52:12Z</time>
      </trkpt>
      <trkpt lat="41.9827420" lon="-7.5278210">
        <ele>684.6</ele>
        <time>2019-08-17T10:52:13Z</time>
      </trkpt>
      <trkpt lat="41.9827630" lon="-7.5278430">
        <ele>684.8</ele>
        <time>2019-08-17T10:52:14Z</time>
      </trkpt>
      <trkpt lat="41.9827850" lon="-7.5278650">
        <ele>685.0</ele>
        <time>2019-08-17T10:52:15Z</time>
      </trkpt>
      <trkpt lat="41.9828070" lon="-7.5278870">
        <ele>685.3</ele>
        <time>2019-08-17T10:52:16Z</time>
      </trkpt>
      <trkpt lat="41.9828280" lon="-7.5279090">
        <ele>685.5</ele>
        <time>2019-08-17T10:52:17Z</time>
      </trkpt>
      <trkpt lat="41.9828500" lon="-7.5279310">
        <ele>685.7</ele>
        <time>2019-08-17T10:52:18Z</time>
      </trkpt>
      <trkpt lat="41.9828720" lon="-7.5279520">
        <ele>685.9</ele>
        <time>2019-08-17T10:52:19Z</time>
      </trkpt>
      <trkpt lat="41.9828930" lon="-7.5279740">
        <ele>686.2</ele>
        <time>2019-08-17T10:52:20Z</time>
      </trkpt>
      <trkpt lat="41.9829150" lon="-7.5279960">
        <ele>686.5</ele>
        <time>2019-08-17T10:52:21Z</time>
      </trkpt>
      <trkpt lat="41.9829360" lon="-7.5280180">
        <ele>686.7</ele>
        <time>2019-08-17T10:52:22Z</time>
      </trkpt>
      <trkpt lat="41.9829580" lon="-7.5280400">
        <ele>686.8</ele>
        <time>2019-08-17T10:52:23Z</time>
      </trkpt>
      <trkpt lat="41.9829790" lon="-7.5280620">
        <ele>687.0</ele>
        <time>2019-08-17T10:52:24Z</time>
      </trkpt>
      <trkpt lat="41.9830010" lon="-7.5280840">
        <ele>687.1</ele>
        <time>2019-08-17T10:52:25Z</time>
      </trkpt>
      <trkpt lat="41.9830220" lon="-7.5281060">
        <ele>687.3</ele>
        <time>2019-08-17T10:52:26Z</time>
      </trkpt>
      <trkpt lat="41.9830440" lon="-7.5281280">
        <ele>687.5</ele>
        <time>2019-08-17T10:52:27Z</time>
      </trkpt>
      <trkpt lat="41.9830650" lon="-7.5281500">
        <ele>687.6</ele>
        <time>2019-08-17T10:52:28Z</time>
      </trkpt>
      <trkpt lat="41.9830870" lon="-7.5281710">
        <ele>687.8</ele>
        <time>2019-08-17T10:52:29Z</time>
      </trkpt>
      <trkpt lat="41.9831080" lon="-7.5281930">
        <ele>688.0</ele>
        <time>2019-08-17T10:52:30Z</time>
      </trkpt>
      <trkpt lat="41.9831300" lon="-7.5282150">
        <ele>688.2</ele>
        <time>2019-08-17T10:52:31Z</time>
      </trkpt>
      <trkpt lat="41.9831510" lon="-7.5282370">
        <ele>688.4</ele>
        <time>2019-08-17T10:52:32Z</time>
      </trkpt>
      <trkpt lat="41.9831720" lon="-7.5282590">
        <ele>688.6</ele>
        <time>2019-08-17T10:52:33Z</time>
      </trkpt>
      <trkpt lat="41.9831930" lon="-7.5282810">
        <ele>688.8</ele>
        <time>2019-08-17T10:52:34Z</time>
      </trkpt>
      <trkpt lat="41.9832140" lon="-7.5283020">
        <ele>688.9</ele>
        <time>2019-08-17T10:52:35Z</time>
      </trkpt>
      <trkpt lat="41.9832350" lon="-7.5283240">
        <ele>689.1</ele>
        <time>2019-08-17T10:52:36Z</time>
      </trkpt>
      <trkpt lat="41.9832560" lon="-7.5283450">
        <ele>689.3</ele>
        <time>2019-08-17T10:52:37Z</time>
      </trkpt>
      <trkpt lat="41.9832760" lon="-7.5283660">
        <ele>689.5</ele>
        <time>2019-08-17T10:52:38Z</time>
      </trkpt>
      <trkpt lat="41.9832960" lon="-7.5283870">
        <ele>689.7</ele>
        <time>2019-08-17T10:52:39Z</time>
      </trkpt>
      <trkpt lat="41.9833160" lon="-7.5284080">
        <ele>689.9</ele>
        <time>2019-08-17T10:52:40Z</time>
      </trkpt>
      <trkpt lat="41.9833350" lon="-7.5284290">
        <ele>690.1</ele>
        <time>2019-08-17T10:52:41Z</time>
      </trkpt>
      <trkpt lat="41.9833550" lon="-7.5284490">
        <ele>690.2</ele>
        <time>2019-08-17T10:52:42Z</time>
      </trkpt>
      <trkpt lat="41.9833740" lon="-7.5284700">
        <ele>690.3</ele>
        <time>2019-08-17T10:52:43Z</time>
      </trkpt>
      <trkpt lat="41.9833930" lon="-7.5284900">
        <ele>690.5</ele>
        <time>2019-08-17T10:52:44Z</time>
      </trkpt>
      <trkpt lat="41.9834120" lon="-7.5285110">
        <ele>690.6</ele>
        <time>2019-08-17T10:52:45Z</time>
      </trkpt>
      <trkpt lat="41.9834310" lon="-7.5285310">
        <ele>690.7</ele>
        <time>2019-08-17T10:52:46Z</time>
      </trkpt>
      <trkpt lat="41.9834500" lon="-7.5285520">
        <ele>690.8</ele>
        <time>2019-08-17T10:52:47Z</time>
      </trkpt>
      <trkpt lat="41.9834700" lon="-7.5285730">
        <ele>691.0</ele>
        <time>2019-08-17T10:52:48Z</time>
      </trkpt>
      <trkpt lat="41.9834900" lon="-7.5285950">
        <ele>691.2</ele>
        <time>2019-08-17T10:52:49Z</time>
      </trkpt>
      <trkpt lat="41.9835110" lon="-7.5286170">
        <ele>691.3</ele>
        <time>2019-08-17T10:52:50Z</time>
      </trkpt>
      <trkpt lat="41.9835320" lon="-7.5286400">
        <ele>691.5</ele>
        <time>2019-08-17T10:52:51Z</time>
      </trkpt>
      <trkpt lat="41.9835540" lon="-7.5286630">
        <ele>691.7</ele>
        <time>2019-08-17T10:52:52Z</time>
      </trkpt>
      <trkpt lat="41.9835760" lon="-7.5286860">
        <ele>691.8</ele>
        <time>2019-08-17T10:52:53Z</time>
      </trkpt>
      <trkpt lat="41.9835990" lon="-7.5287100">
        <ele>692.0</ele>
        <time>2019-08-17T10:52:54Z</time>
      </trkpt>
      <trkpt lat="41.9836230" lon="-7.5287340">
        <ele>692.1</ele>
        <time>2019-08-17T10:52:55Z</time>
      </trkpt>
      <trkpt lat="41.9836470" lon="-7.5287590">
        <ele>692.3</ele>
        <time>2019-08-17T10:52:56Z</time>
      </trkpt>
      <trkpt lat="41.9836720" lon="-7.5287830">
        <ele>692.4</ele>
        <time>2019-08-17T10:52:57Z</time>
      </trkpt>
      <trkpt lat="41.9836970" lon="-7.5288080">
        <ele>692.5</ele>
        <time>2019-08-17T10:52:58Z</time>
      </trkpt>
      <trkpt lat="41.9837230" lon="-7.5288330">
        <ele>692.7</ele>
        <time>2019-08-17T10:52:59Z</time>
      </trkpt>
      <trkpt lat="41.9837490" lon="-7.5288590">
        <ele>692.8</ele>
        <time>2019-08-17T10:53:00Z</time>
      </trkpt>
      <trkpt lat="41.9837760" lon="-7.5288840">
        <ele>692.9</ele>
        <time>2019-08-17T10:53:01Z</time>
      </trkpt>
      <trkpt lat="41.9838030" lon="-7.5289100">
        <ele>693.0</ele>
        <time>2019-08-17T10:53:02Z</time>
      </trkpt>
      <trkpt lat="41.9838300" lon="-7.5289360">
        <ele>693.2</ele>
        <time>2019-08-17T10:53:03Z</time>
      </trkpt>
      <trkpt lat="41.9838580" lon="-7.5289630">
        <ele>693.3</ele>
        <time>2019-08-17T10:53:04Z</time>
      </trkpt>
      <trkpt lat="41.9838870" lon="-7.5289890">
        <ele>693.4</ele>
        <time>2019-08-17T10:53:05Z</time>
      </trkpt>
      <trkpt lat="41.9839150" lon="-7.5290160">
        <ele>693.6</ele>
        <time>2019-08-17T10:53:06Z</time>
      </trkpt>
      <trkpt lat="41.9839440" lon="-7.5290440">
        <ele>693.7</ele>
        <time>2019-08-17T10:53:07Z</time>
      </trkpt>
      <trkpt lat="41.9839740" lon="-7.5290710">
        <ele>693.8</ele>
        <time>2019-08-17T10:53:08Z</time>
      </trkpt>
      <trkpt lat="41.9840030" lon="-7.5290990">
        <ele>694.0</ele>
        <time>2019-08-17T10:53:09Z</time>
      </trkpt>
      <trkpt lat="41.9840330" lon="-7.5291270">
        <ele>694.1</ele>
        <time>2019-08-17T10:53:10Z</time>
      </trkpt>
      <trkpt lat="41.9840630" lon="-7.5291560">
        <ele>694.2</ele>
        <time>2019-08-17T10:53:11Z</time>
      </trkpt>
      <trkpt lat="41.9840930" lon="-7.5291840">
        <ele>694.3</ele>
        <time>2019-08-17T10:53:12Z</time>
      </trkpt>
      <trkpt lat="41.9841230" lon="-7.5292140">
        <ele>694.4</ele>
        <time>2019-08-17T10:53:13Z</time>
      </trkpt>
      <trkpt lat="41.9841530" lon="-7.5292430">
        <ele>694.5</ele>
        <time>2019-08-17T10:53:14Z</time>
      </trkpt>
      <trkpt lat="41.9841840" lon="-7.5292730">
        <ele>694.6</ele>
        <time>2019-08-17T10:53:15Z</time>
      </trkpt>
      <trkpt lat="41.9842140" lon="-7.5293030">
        <ele>694.7</ele>
        <time>2019-08-17T10:53:16Z</time>
      </trkpt>
      <trkpt lat="41.9842450" lon="-7.5293330">
        <ele>694.8</ele>
        <time>2019-08-17T10:53:17Z</time>
      </trkpt>
      <trkpt lat="41.9842750" lon="-7.5293630">
        <ele>694.9</ele>
        <time>2019-08-17T10:53:18Z</time>
      </trkpt>
      <trkpt lat="41.9843050" lon="-7.5293930">
        <ele>695.0</ele>
        <time>2019-08-17T10:53:19Z</time>
      </trkpt>
      <trkpt lat="41.9843360" lon="-7.5294230">
        <ele>695.1</ele>
        <time>2019-08-17T10:53:20Z</time>
      </trkpt>
      <trkpt lat="41.9843660" lon="-7.5294530">
        <ele>695.2</ele>
        <time>2019-08-17T10:53:21Z</time>
      </trkpt>
      <trkpt lat="41.9843960" lon="-7.5294840">
        <ele>695.3</ele>
        <time>2019-08-17T10:53:22Z</time>
      </trkpt>
      <trkpt lat="41.9844260" lon="-7.5295140">
        <ele>695.5</ele>
        <time>2019-08-17T10:53:23Z</time>
      </trkpt>
      <trkpt lat="41.9844570" lon="-7.5295450">
        <ele>695.6</ele>
        <time>2019-08-17T10:53:24Z</time>
      </trkpt>
      <trkpt lat="41.9844880" lon="-7.5295760">
        <ele>695.6</ele>
        <time>2019-08-17T10:53:25Z</time>
      </trkpt>
      <trkpt lat="41.9845200" lon="-7.5296070">
        <ele>695.7</ele>
        <time>2019-08-17T10:53:26Z</time>
      </trkpt>
      <trkpt lat="41.9845530" lon="-7.5296390">
        <ele>695.8</ele>
        <time>2019-08-17T10:53:27Z</time>
      </trkpt>
      <trkpt lat="41.9845860" lon="-7.5296710">
        <ele>695.9</ele>
        <time>2019-08-17T10:53:28Z</time>
      </trkpt>
      <trkpt lat="41.9846200" lon="-7.5297040">
        <ele>696.0</ele>
        <time>2019-08-17T10:53:29Z</time>
      </trkpt>
      <trkpt lat="41.9846560" lon="-7.5297370">
        <ele>696.0</ele>
        <time>2019-08-17T10:53:30Z</time>
      </trkpt>
      <trkpt lat="41.9846910" lon="-7.5297700">
        <ele>696.1</ele>
        <time>2019-08-17T10:53:31Z</time>
      </trkpt>
      <trkpt lat="41.9847280" lon="-7.5298030">
        <ele>696.2</ele>
        <time>2019-08-17T10:53:32Z</time>
      </trkpt>
      <trkpt lat="41.9847650" lon="-7.5298370">
        <ele>696.3</ele>
        <time>2019-08-17T10:53:33Z</time>
      </trkpt>
      <trkpt lat="41.9848030" lon="-7.5298690">
        <ele>696.3</ele>
        <time>2019-08-17T10:53:34Z</time>
      </trkpt>
      <trkpt lat="41.9848420" lon="-7.5299020">
        <ele>696.4</ele>
        <time>2019-08-17T10:53:35Z</time>
      </trkpt>
      <trkpt lat="41.9848800" lon="-7.5299330">
        <ele>696.5</ele>
        <time>2019-08-17T10:53:36Z</time>
      </trkpt>
      <trkpt lat="41.9849200" lon="-7.5299640">
        <ele>696.6</ele>
        <time>2019-08-17T10:53:37Z</time>
      </trkpt>
      <trkpt lat="41.9849590" lon="-7.5299950">
        <ele>696.6</ele>
        <time>2019-08-17T10:53:38Z</time>
      </trkpt>
      <trkpt lat="41.9849990" lon="-7.5300250">
        <ele>696.7</ele>
        <time>2019-08-17T10:53:39Z</time>
      </trkpt>
      <trkpt lat="41.9850390" lon="-7.5300550">
        <ele>696.9</ele>
        <time>2019-08-17T10:53:40Z</time>
      </trkpt>
      <trkpt lat="41.9850800" lon="-7.5300850">
        <ele>697.0</ele>
        <time>2019-08-17T10:53:41Z</time>
      </trkpt>
      <trkpt lat="41.9851210" lon="-7.5301140">
        <ele>697.1</ele>
        <time>2019-08-17T10:53:42Z</time>
      </trkpt>
      <trkpt lat="41.9851620" lon="-7.5301430">
        <ele>697.2</ele>
        <time>2019-08-17T10:53:43Z</time>
      </trkpt>
      <trkpt lat="41.9852030" lon="-7.5301720">
        <ele>697.3</ele>
        <time>2019-08-17T10:53:44Z</time>
      </trkpt>
      <trkpt lat="41.9852450" lon="-7.5302010">
        <ele>697.5</ele>
        <time>2019-08-17T10:53:45Z</time>
      </trkpt>
      <trkpt lat="41.9852860" lon="-7.5302300">
        <ele>697.6</ele>
        <time>2019-08-17T10:53:46Z</time>
      </trkpt>
      <trkpt lat="41.9853280" lon="-7.5302580">
        <ele>697.7</ele>
        <time>2019-08-17T10:53:47Z</time>
      </trkpt>
      <trkpt lat="41.9853700" lon="-7.5302870">
        <ele>697.8</ele>
        <time>2019-08-17T10:53:48Z</time>
      </trkpt>
      <trkpt lat="41.9854120" lon="-7.5303150">
        <ele>697.8</ele>
        <time>2019-08-17T10:53:49Z</time>
      </trkpt>
      <trkpt lat="41.9854540" lon="-7.5303430">
        <ele>697.9</ele>
        <time>2019-08-17T10:53:50Z</time>
      </trkpt>
      <trkpt lat="41.9854970" lon="-7.5303710">
        <ele>698.0</ele>
        <time>2019-08-17T10:53:51Z</time>
      </trkpt>
      <trkpt lat="41.9855400" lon="-7.5303980">
        <ele>698.1</ele>
        <time>2019-08-17T10:53:52Z</time>
      </trkpt>
      <trkpt lat="41.9855820" lon="-7.5304260">
        <ele>698.2</ele>
        <time>2019-08-17T10:53:53Z</time>
      </trkpt>
      <trkpt lat="41.9856250" lon="-7.5304530">
        <ele>698.3</ele>
        <time>2019-08-17T10:53:54Z</time>
      </trkpt>
      <trkpt lat="41.9856690" lon="-7.5304790">
        <ele>698.3</ele>
        <time>2019-08-17T10:53:55Z</time>
      </trkpt>
      <trkpt lat="41.9857120" lon="-7.5305060">
        <ele>698.4</ele>
        <time>2019-08-17T10:53:56Z</time>
      </trkpt>
      <trkpt lat="41.9857560" lon="-7.5305320">
        <ele>698.6</ele>
        <time>2019-08-17T10:53:57Z</time>
      </trkpt>
      <trkpt lat="41.9857990" lon="-7.5305580">
        <ele>698.7</ele>
        <time>2019-08-17T10:53:58Z</time>
      </trkpt>
      <trkpt lat="41.9858430" lon="-7.5305840">
        <ele>698.8</ele>
        <time>2019-08-17T10:53:59Z</time>
      </trkpt>
      <trkpt lat="41.9858870" lon="-7.5306100">
        <ele>698.9</ele>
        <time>2019-08-17T10:54:00Z</time>
      </trkpt>
      <trkpt lat="41.9859310" lon="-7.5306350">
        <ele>699.0</ele>
        <time>2019-08-17T10:54:01Z</time>
      </trkpt>
      <trkpt lat="41.9859750" lon="-7.5306600">
        <ele>699.1</ele>
        <time>2019-08-17T10:54:02Z</time>
      </trkpt>
      <trkpt lat="41.9860190" lon="-7.5306840">
        <ele>699.2</ele>
        <time>2019-08-17T10:54:03Z</time>
      </trkpt>
      <trkpt lat="41.9860620" lon="-7.5307090">
        <ele>699.3</ele>
        <time>2019-08-17T10:54:04Z</time>
      </trkpt>
      <trkpt lat="41.9861060" lon="-7.5307330">
        <ele>699.5</ele>
        <time>2019-08-17T10:54:05Z</time>
      </trkpt>
      <trkpt lat="41.9861480" lon="-7.5307570">
        <ele>699.6</ele>
        <time>2019-08-17T10:54:06Z</time>
      </trkpt>
      <trkpt lat="41.9861910" lon="-7.5307800">
        <ele>699.8</ele>
        <time>2019-08-17T10:54:07Z</time>
      </trkpt>
      <trkpt lat="41.9862330" lon="-7.5308040">
        <ele>699.9</ele>
        <time>2019-08-17T10:54:08Z</time>
      </trkpt>
      <trkpt lat="41.9862740" lon="-7.5308270">
        <ele>700.1</ele>
        <time>2019-08-17T10:54:09Z</time>
      </trkpt>
      <trkpt lat="41.9863150" lon="-7.5308500">
        <ele>700.3</ele>
        <time>2019-08-17T10:54:10Z</time>
      </trkpt>
      <trkpt lat="41.9863550" lon="-7.5308730">
        <ele>700.4</ele>
        <time>2019-08-17T10:54:11Z</time>
      </trkpt>
      <trkpt lat="41.9863940" lon="-7.5308950">
        <ele>700.6</ele>
        <time>2019-08-17T10:54:12Z</time>
      </trkpt>
      <trkpt lat="41.9864330" lon="-7.5309160">
        <ele>700.7</ele>
        <time>2019-08-17T10:54:13Z</time>
      </trkpt>
      <trkpt lat="41.9864700" lon="-7.5309370">
        <ele>700.9</ele>
        <time>2019-08-17T10:54:14Z</time>
      </trkpt>
      <trkpt lat="41.9865070" lon="-7.5309580">
        <ele>701.1</ele>
        <time>2019-08-17T10:54:15Z</time>
      </trkpt>
      <trkpt lat="41.9865430" lon="-7.5309780">
        <ele>701.2</ele>
        <time>2019-08-17T10:54:16Z</time>
      </trkpt>
      <trkpt lat="41.9865780" lon="-7.5309970">
        <ele>701.4</ele>
        <time>2019-08-17T10:54:17Z</time>
      </trkpt>
      <trkpt lat="41.9866120" lon="-7.5310160">
        <ele>701.6</ele>
        <time>2019-08-17T10:54:18Z</time>
      </trkpt>
      <trkpt lat="41.9866460" lon="-7.5310350">
        <ele>701.8</ele>
        <time>2019-08-17T10:54:19Z</time>
      </trkpt>
      <trkpt lat="41.9866790" lon="-7.5310540">
        <ele>702.0</ele>
        <time>2019-08-17T10:54:20Z</time>
      </trkpt>
      <trkpt lat="41.9867120" lon="-7.5310720">
        <ele>702.2</ele>
        <time>2019-08-17T10:54:21Z</time>
      </trkpt>
      <trkpt lat="41.9867450" lon="-7.5310900">
        <ele>702.4</ele>
        <time>2019-08-17T10:54:22Z</time>
      </trkpt>
      <trkpt lat="41.9867770" lon="-7.5311080">
        <ele>702.5</ele>
        <time>2019-08-17T10:54:23Z</time>
      </trkpt>
      <trkpt lat="41.9868090" lon="-7.5311260">
        <ele>702.7</ele>
        <time>2019-08-17T10:54:24Z</time>
      </trkpt>
      <trkpt lat="41.9868420" lon="-7.5311440">
        <ele>702.9</ele>
        <time>2019-08-17T10:54:25Z</time>
      </trkpt>
      <trkpt lat="41.9868740" lon="-7.5311620">
        <ele>703.0</ele>
        <time>2019-08-17T10:54:26Z</time>
      </trkpt>
      <trkpt lat="41.9869060" lon="-7.5311800">
        <ele>703.2</ele>
        <time>2019-08-17T10:54:27Z</time>
      </trkpt>
      <trkpt lat="41.9869390" lon="-7.5311980">
        <ele>703.5</ele>
        <time>2019-08-17T10:54:28Z</time>
      </trkpt>
      <trkpt lat="41.9869710" lon="-7.5312170">
        <ele>703.8</ele>
        <time>2019-08-17T10:54:29Z</time>
      </trkpt>
      <trkpt lat="41.9870040" lon="-7.5312360">
        <ele>704.0</ele>
        <time>2019-08-17T10:54:30Z</time>
      </trkpt>
      <trkpt lat="41.9870380" lon="-7.5312540">
        <ele>704.1</ele>
        <time>2019-08-17T10:54:31Z</time>
      </trkpt>
      <trkpt lat="41.9870720" lon="-7.5312740">
        <ele>704.3</ele>
        <time>2019-08-17T10:54:32Z</time>
      </trkpt>
      <trkpt lat="41.9871060" lon="-7.5312930">
        <ele>704.5</ele>
        <time>2019-08-17T10:54:33Z</time>
      </trkpt>
      <trkpt lat="41.9871400" lon="-7.5313130">
        <ele>704.6</ele>
        <time>2019-08-17T10:54:34Z</time>
      </trkpt>
      <trkpt lat="41.9871750" lon="-7.5313320">
        <ele>704.8</ele>
        <time>2019-08-17T10:54:35Z</time>
      </trkpt>
      <trkpt lat="41.9872090" lon="-7.5313520">
        <ele>704.9</ele>
        <time>2019-08-17T10:54:36Z</time>
      </trkpt>
      <trkpt lat="41.9872440" lon="-7.5313720">
        <ele>705.1</ele>
        <time>2019-08-17T10:54:37Z</time>
      </trkpt>
      <trkpt lat="41.9872780" lon="-7.5313920">
        <ele>705.3</ele>
        <time>2019-08-17T10:54:38Z</time>
      </trkpt>
      <trkpt lat="41.9873130" lon="-7.5314110">
        <ele>705.5</ele>
        <time>2019-08-17T10:54:39Z</time>
      </trkpt>
      <trkpt lat="41.9873470" lon="-7.5314310">
        <ele>705.6</ele>
        <time>2019-08-17T10:54:40Z</time>
      </trkpt>
      <trkpt lat="41.9873810" lon="-7.5314510">
        <ele>705.8</ele>
        <time>2019-08-17T10:54:41Z</time>
      </trkpt>
      <trkpt lat="41.9874150" lon="-7.5314700">
        <ele>706.0</ele>
        <time>2019-08-17T10:54:42Z</time>
      </trkpt>
      <trkpt lat="41.9874490" lon="-7.5314900">
        <ele>706.1</ele>
        <time>2019-08-17T10:54:43Z</time>
      </trkpt>
      <trkpt lat="41.9874820" lon="-7.5315090">
        <ele>706.3</ele>
        <time>2019-08-17T10:54:44Z</time>
      </trkpt>
      <trkpt lat="41.9875140" lon="-7.5315270">
        <ele>706.5</ele>
        <time>2019-08-17T10:54:45Z</time>
      </trkpt>
      <trkpt lat="41.9875450" lon="-7.5315460">
        <ele>706.6</ele>
        <time>2019-08-17T10:54:46Z</time>
      </trkpt>
      <trkpt lat="41.9875770" lon="-7.5315640">
        <ele>706.8</ele>
        <time>2019-08-17T10:54:47Z</time>
      </trkpt>
      <trkpt lat="41.9876070" lon="-7.5315820">
        <ele>706.9</ele>
        <time>2019-08-17T10:54:48Z</time>
      </trkpt>
      <trkpt lat="41.9876370" lon="-7.5315990">
        <ele>707.0</ele>
        <time>2019-08-17T10:54:49Z</time>
      </trkpt>
      <trkpt lat="41.9876680" lon="-7.5316160">
        <ele>707.2</ele>
        <time>2019-08-17T10:54:50Z</time>
      </trkpt>
      <trkpt lat="41.9876980" lon="-7.5316330">
        <ele>707.4</ele>
        <time>2019-08-17T10:54:51Z</time>
      </trkpt>
      <trkpt lat="41.9877280" lon="-7.5316490">
        <ele>707.5</ele>
        <time>2019-08-17T10:54:52Z</time>
      </trkpt>
      <trkpt lat="41.9877580" lon="-7.5316660">
        <ele>707.7</ele>
        <time>2019-08-17T10:54:53Z</time>
      </trkpt>
      <trkpt lat="41.9877880" lon="-7.5316810">
        <ele>707.8</ele>
        <time>2019-08-17T10:54:54Z</time>
      </trkpt>
      <trkpt lat="41.9878190" lon="-7.5316970">
        <ele>708.0</ele>
        <time>2019-08-17T10:54:55Z</time>
      </trkpt>
      <trkpt lat="41.9878490" lon="-7.5317130">
        <ele>708.2</ele>
        <time>2019-08-17T10:54:56Z</time>
      </trkpt>
      <trkpt lat="41.9878800" lon="-7.5317300">
        <ele>708.3</ele>
        <time>2019-08-17T10:54:57Z</time>
      </trkpt>
      <trkpt lat="41.9879110" lon="-7.5317490">
        <ele>708.5</ele>
        <time>2019-08-17T10:54:58Z</time>
      </trkpt>
      <trkpt lat="41.9879410" lon="-7.5317680">
        <ele>708.7</ele>
        <time>2019-08-17T10:54:59Z</time>
      </trkpt>
      <trkpt lat="41.9879720" lon="-7.5317900">
        <ele>708.8</ele>
        <time>2019-08-17T10:55:00Z</time>
      </trkpt>
      <trkpt lat="41.9880020" lon="-7.5318140">
        <ele>709.0</ele>
        <time>2019-08-17T10:55:01Z</time>
      </trkpt>
      <trkpt lat="41.9880320" lon="-7.5318380">
        <ele>709.1</ele>
        <time>2019-08-17T10:55:02Z</time>
      </trkpt>
      <trkpt lat="41.9880630" lon="-7.5318610">
        <ele>709.2</ele>
        <time>2019-08-17T10:55:03Z</time>
      </trkpt>
      <trkpt lat="41.9880950" lon="-7.5318820">
        <ele>709.3</ele>
        <time>2019-08-17T10:55:04Z</time>
      </trkpt>
      <trkpt lat="41.9881270" lon="-7.5319000">
        <ele>709.4</ele>
        <time>2019-08-17T10:55:05Z</time>
      </trkpt>
      <trkpt lat="41.9881610" lon="-7.5319150">
        <ele>709.4</ele>
        <time>2019-08-17T10:55:06Z</time>
      </trkpt>
      <trkpt lat="41.9881950" lon="-7.5319290">
        <ele>709.5</ele>
        <time>2019-08-17T10:55:07Z</time>
      </trkpt>
      <trkpt lat="41.9882290" lon="-7.5319440">
        <ele>709.6</ele>
        <time>2019-08-17T10:55:08Z</time>
      </trkpt>
      <trkpt lat="41.9882630" lon="-7.5319600">
        <ele>709.6</ele>
        <time>2019-08-17T10:55:09Z</time>
      </trkpt>
      <trkpt lat="41.9882980" lon="-7.5319770">
        <ele>709.7</ele>
        <time>2019-08-17T10:55:10Z</time>
      </trkpt>
      <trkpt lat="41.9883320" lon="-7.5319960">
        <ele>709.8</ele>
        <time>2019-08-17T10:55:11Z</time>
      </trkpt>
      <trkpt lat="41.9883670" lon="-7.5320160">
        <ele>709.8</ele>
        <time>2019-08-17T10:55:12Z</time>
      </trkpt>
      <trkpt lat="41.9884010" lon="-7.5320360">
        <ele>709.9</ele>
        <time>2019-08-17T10:55:13Z</time>
      </trkpt>
      <trkpt lat="41.9884360" lon="-7.5320580">
        <ele>710.0</ele>
        <time>2019-08-17T10:55:14Z</time>
      </trkpt>
      <trkpt lat="41.9884710" lon="-7.5320790">
        <ele>710.1</ele>
        <time>2019-08-17T10:55:15Z</time>
      </trkpt>
      <trkpt lat="41.9885060" lon="-7.5321010">
        <ele>710.1</ele>
        <time>2019-08-17T10:55:16Z</time>
      </trkpt>
      <trkpt lat="41.9885420" lon="-7.5321230">
        <ele>710.2</ele>
        <time>2019-08-17T10:55:17Z</time>
      </trkpt>
      <trkpt lat="41.9885780" lon="-7.5321450">
        <ele>710.3</ele>
        <time>2019-08-17T10:55:18Z</time>
      </trkpt>
      <trkpt lat="41.9886140" lon="-7.5321670">
        <ele>710.4</ele>
        <time>2019-08-17T10:55:19Z</time>
      </trkpt>
      <trkpt lat="41.9886500" lon="-7.5321890">
        <ele>710.5</ele>
        <time>2019-08-17T10:55:20Z</time>
      </trkpt>
      <trkpt lat="41.9886870" lon="-7.5322110">
        <ele>710.5</ele>
        <time>2019-08-17T10:55:21Z</time>
      </trkpt>
      <trkpt lat="41.9887240" lon="-7.5322330">
        <ele>710.6</ele>
        <time>2019-08-17T10:55:22Z</time>
      </trkpt>
      <trkpt lat="41.9887610" lon="-7.5322550">
        <ele>710.7</ele>
        <time>2019-08-17T10:55:23Z</time>
      </trkpt>
      <trkpt lat="41.9887990" lon="-7.5322770">
        <ele>710.8</ele>
        <time>2019-08-17T10:55:24Z</time>
      </trkpt>
      <trkpt lat="41.9888360" lon="-7.5322990">
        <ele>710.9</ele>
        <time>2019-08-17T10:55:25Z</time>
      </trkpt>
      <trkpt lat="41.9888740" lon="-7.5323210">
        <ele>711.0</ele>
        <time>2019-08-17T10:55:26Z</time>
      </trkpt>
      <trkpt lat="41.9889130" lon="-7.5323430">
        <ele>711.1</ele>
        <time>2019-08-17T10:55:27Z</time>
      </trkpt>
      <trkpt lat="41.9889510" lon="-7.5323660">
        <ele>711.2</ele>
        <time>2019-08-17T10:55:28Z</time>
      </trkpt>
      <trkpt lat="41.9889900" lon="-7.5323880">
        <ele>711.3</ele>
        <time>2019-08-17T10:55:29Z</time>
      </trkpt>
      <trkpt lat="41.9890290" lon="-7.5324100">
        <ele>711.4</ele>
        <time>2019-08-17T10:55:30Z</time>
      </trkpt>
      <trkpt lat="41.9890680" lon="-7.5324330">
        <ele>711.4</ele>
        <time>2019-08-17T10:55:31Z</time>
      </trkpt>
      <trkpt lat="41.9891070" lon="-7.5324550">
        <ele>711.5</ele>
        <time>2019-08-17T10:55:32Z</time>
      </trkpt>
      <trkpt lat="41.9891470" lon="-7.5324780">
        <ele>711.6</ele>
        <time>2019-08-17T10:55:33Z</time>
      </trkpt>
      <trkpt lat="41.9891860" lon="-7.5325000">
        <ele>711.6</ele>
        <time>2019-08-17T10:55:34Z</time>
      </trkpt>
      <trkpt lat="41.9892260" lon="-7.5325230">
        <ele>711.7</ele>
        <time>2019-08-17T10:55:35Z</time>
      </trkpt>
      <trkpt lat="41.9892670" lon="-7.5325460">
        <ele>711.8</ele>
        <time>2019-08-17T10:55:36Z</time>
      </trkpt>
      <trkpt lat="41.9893080" lon="-7.5325690">
        <ele>711.8</ele>
        <time>2019-08-17T10:55:37Z</time>
      </trkpt>
      <trkpt lat="41.9893490" lon="-7.5325930">
        <ele>711.9</ele>
        <time>2019-08-17T10:55:38Z</time>
      </trkpt>
      <trkpt lat="41.9893910" lon="-7.5326160">
        <ele>712.0</ele>
        <time>2019-08-17T10:55:39Z</time>
      </trkpt>
      <trkpt lat="41.9894330" lon="-7.5326410">
        <ele>712.0</ele>
        <time>2019-08-17T10:55:40Z</time>
      </trkpt>
      <trkpt lat="41.9894750" lon="-7.5326650">
        <ele>712.1</ele>
        <time>2019-08-17T10:55:41Z</time>
      </trkpt>
      <trkpt lat="41.9895180" lon="-7.5326890">
        <ele>712.2</ele>
        <time>2019-08-17T10:55:42Z</time>
      </trkpt>
      <trkpt lat="41.9895610" lon="-7.5327140">
        <ele>712.3</ele>
        <time>2019-08-17T10:55:43Z</time>
      </trkpt>
      <trkpt lat="41.9896040" lon="-7.5327390">
        <ele>712.3</ele>
        <time>2019-08-17T10:55:44Z</time>
      </trkpt>
      <trkpt lat="41.9896470" lon="-7.5327630">
        <ele>712.4</ele>
        <time>2019-08-17T10:55:45Z</time>
      </trkpt>
      <trkpt lat="41.9896880" lon="-7.5327870">
        <ele>712.5</ele>
        <time>2019-08-17T10:55:46Z</time>
      </trkpt>
      <trkpt lat="41.9897290" lon="-7.5328100">
        <ele>712.6</ele>
        <time>2019-08-17T10:55:47Z</time>
      </trkpt>
      <trkpt lat="41.9897690" lon="-7.5328330">
        <ele>712.7</ele>
        <time>2019-08-17T10:55:48Z</time>
      </trkpt>
      <trkpt lat="41.9898080" lon="-7.5328550">
        <ele>712.8</ele>
        <time>2019-08-17T10:55:49Z</time>
      </trkpt>
      <trkpt lat="41.9898460" lon="-7.5328760">
        <ele>712.9</ele>
        <time>2019-08-17T10:55:50Z</time>
      </trkpt>
      <trkpt lat="41.9898830" lon="-7.5328970">
        <ele>713.0</ele>
        <time>2019-08-17T10:55:51Z</time>
      </trkpt>
      <trkpt lat="41.9899190" lon="-7.5329180">
        <ele>713.1</ele>
        <time>2019-08-17T10:55:52Z</time>
      </trkpt>
      <trkpt lat="41.9899550" lon="-7.5329380">
        <ele>713.1</ele>
        <time>2019-08-17T10:55:53Z</time>
      </trkpt>
      <trkpt lat="41.9899910" lon="-7.5329590">
        <ele>713.2</ele>
        <time>2019-08-17T10:55:54Z</time>
      </trkpt>
      <trkpt lat="41.9900280" lon="-7.5329790">
        <ele>713.3</ele>
        <time>2019-08-17T10:55:55Z</time>
      </trkpt>
      <trkpt lat="41.9900640" lon="-7.5330000">
        <ele>713.4</ele>
        <time>2019-08-17T10:55:56Z</time>
      </trkpt>
      <trkpt lat="41.9901020" lon="-7.5330210">
        <ele>713.6</ele>
        <time>2019-08-17T10:55:57Z</time>
      </trkpt>
      <trkpt lat="41.9901400" lon="-7.5330420">
        <ele>713.7</ele>
        <time>2019-08-17T10:55:58Z</time>
      </trkpt>
      <trkpt lat="41.9901790" lon="-7.5330640">
        <ele>713.8</ele>
        <time>2019-08-17T10:55:59Z</time>
      </trkpt>
      <trkpt lat="41.9902180" lon="-7.5330860">
        <ele>713.9</ele>
        <time>2019-08-17T10:56:00Z</time>
      </trkpt>
      <trkpt lat="41.9902590" lon="-7.5331090">
        <ele>714.0</ele>
        <time>2019-08-17T10:56:01Z</time>
      </trkpt>
      <trkpt lat="41.9902990" lon="-7.5331320">
        <ele>714.1</ele>
        <time>2019-08-17T10:56:02Z</time>
      </trkpt>
      <trkpt lat="41.9903410" lon="-7.5331550">
        <ele>714.3</ele>
        <time>2019-08-17T10:56:03Z</time>
      </trkpt>
      <trkpt lat="41.9903830" lon="-7.5331790">
        <ele>714.4</ele>
        <time>2019-08-17T10:56:04Z</time>
      </trkpt>
      <trkpt lat="41.9904260" lon="-7.5332030">
        <ele>714.5</ele>
        <time>2019-08-17T10:56:05Z</time>
      </trkpt>
      <trkpt lat="41.9904700" lon="-7.5332270">
        <ele>714.7</ele>
        <time>2019-08-17T10:56:06Z</time>
      </trkpt>
      <trkpt lat="41.9905130" lon="-7.5332520">
        <ele>714.8</ele>
        <time>2019-08-17T10:56:07Z</time>
      </trkpt>
      <trkpt lat="41.9905580" lon="-7.5332770">
        <ele>714.9</ele>
        <time>2019-08-17T10:56:08Z</time>
      </trkpt>
      <trkpt lat="41.9906030" lon="-7.5333030">
        <ele>715.1</ele>
        <time>2019-08-17T10:56:09Z</time>
      </trkpt>
      <trkpt lat="41.9906480" lon="-7.5333280">
        <ele>715.2</ele>
        <time>2019-08-17T10:56:10Z</time>
      </trkpt>
      <trkpt lat="41.9906930" lon="-7.5333540">
        <ele>715.4</ele>
        <time>2019-08-17T10:56:11Z</time>
      </trkpt>
      <trkpt lat="41.9907390" lon="-7.5333800">
        <ele>715.5</ele>
        <time>2019-08-17T10:56:12Z</time>
      </trkpt>
      <trkpt lat="41.9907850" lon="-7.5334060">
        <ele>715.6</ele>
        <time>2019-08-17T10:56:13Z</time>
      </trkpt>
      <trkpt lat="41.9908310" lon="-7.5334320">
        <ele>715.8</ele>
        <time>2019-08-17T10:56:14Z</time>
      </trkpt>
      <trkpt lat="41.9908770" lon="-7.5334580">
        <ele>715.9</ele>
        <time>2019-08-17T10:56:15Z</time>
      </trkpt>
      <trkpt lat="41.9909230" lon="-7.5334840">
        <ele>716.0</ele>
        <time>2019-08-17T10:56:16Z</time>
      </trkpt>
      <trkpt lat="41.9909690" lon="-7.5335100">
        <ele>716.1</ele>
        <time>2019-08-17T10:56:17Z</time>
      </trkpt>
      <trkpt lat="41.9910150" lon="-7.5335360">
        <ele>716.2</ele>
        <time>2019-08-17T10:56:18Z</time>
      </trkpt>
      <trkpt lat="41.9910610" lon="-7.5335620">
        <ele>716.3</ele>
        <time>2019-08-17T10:56:19Z</time>
      </trkpt>
      <trkpt lat="41.9911060" lon="-7.5335870">
        <ele>716.4</ele>
        <time>2019-08-17T10:56:20Z</time>
      </trkpt>
      <trkpt lat="41.9911520" lon="-7.5336130">
        <ele>716.5</ele>
        <time>2019-08-17T10:56:21Z</time>
      </trkpt>
      <trkpt lat="41.9911970" lon="-7.5336390">
        <ele>716.5</ele>
        <time>2019-08-17T10:56:22Z</time>
      </trkpt>
      <trkpt lat="41.9912420" lon="-7.5336640">
        <ele>716.6</ele>
        <time>2019-08-17T10:56:23Z</time>
      </trkpt>
      <trkpt lat="41.9912870" lon="-7.5336900">
        <ele>716.7</ele>
        <time>2019-08-17T10:56:24Z</time>
      </trkpt>
      <trkpt lat="41.9913320" lon="-7.5337150">
        <ele>716.7</ele>
        <time>2019-08-17T10:56:25Z</time>
      </trkpt>
      <trkpt lat="41.9913770" lon="-7.5337410">
        <ele>716.8</ele>
        <time>2019-08-17T10:56:26Z</time>
      </trkpt>
      <trkpt lat="41.9914220" lon="-7.5337660">
        <ele>716.9</ele>
        <time>2019-08-17T10:56:27Z</time>
      </trkpt>
      <trkpt lat="41.9914670" lon="-7.5337910">
        <ele>716.9</ele>
        <time>2019-08-17T10:56:28Z</time>
      </trkpt>
      <trkpt lat="41.9915110" lon="-7.5338170">
        <ele>717.0</ele>
        <time>2019-08-17T10:56:29Z</time>
      </trkpt>
      <trkpt lat="41.9915560" lon="-7.5338420">
        <ele>717.1</ele>
        <time>2019-08-17T10:56:30Z</time>
      </trkpt>
      <trkpt lat="41.9916010" lon="-7.5338670">
        <ele>717.2</ele>
        <time>2019-08-17T10:56:31Z</time>
      </trkpt>
      <trkpt lat="41.9916450" lon="-7.5338930">
        <ele>717.3</ele>
        <time>2019-08-17T10:56:32Z</time>
      </trkpt>
      <trkpt lat="41.9916900" lon="-7.5339180">
        <ele>717.4</ele>
        <time>2019-08-17T10:56:33Z</time>
      </trkpt>
      <trkpt lat="41.9917350" lon="-7.5339440">
        <ele>717.5</ele>
        <time>2019-08-17T10:56:34Z</time>
      </trkpt>
      <trkpt lat="41.9917800" lon="-7.5339690">
        <ele>717.6</ele>
        <time>2019-08-17T10:56:35Z</time>
      </trkpt>
      <trkpt lat="41.9918250" lon="-7.5339950">
        <ele>717.7</ele>
        <time>2019-08-17T10:56:36Z</time>
      </trkpt>
      <trkpt lat="41.9918700" lon="-7.5340210">
        <ele>717.8</ele>
        <time>2019-08-17T10:56:37Z</time>
      </trkpt>
      <trkpt lat="41.9919150" lon="-7.5340470">
        <ele>717.9</ele>
        <time>2019-08-17T10:56:38Z</time>
      </trkpt>
      <trkpt lat="41.9919600" lon="-7.5340720">
        <ele>718.0</ele>
        <time>2019-08-17T10:56:39Z</time>
      </trkpt>
      <trkpt lat="41.9920050" lon="-7.5340980">
        <ele>718.2</ele>
        <time>2019-08-17T10:56:40Z</time>
      </trkpt>
      <trkpt lat="41.9920500" lon="-7.5341240">
        <ele>718.3</ele>
        <time>2019-08-17T10:56:41Z</time>
      </trkpt>
      <trkpt lat="41.9920960" lon="-7.5341500">
        <ele>718.4</ele>
        <time>2019-08-17T10:56:42Z</time>
      </trkpt>
      <trkpt lat="41.9921410" lon="-7.5341750">
        <ele>718.5</ele>
        <time>2019-08-17T10:56:43Z</time>
      </trkpt>
      <trkpt lat="41.9921860" lon="-7.5342010">
        <ele>718.7</ele>
        <time>2019-08-17T10:56:44Z</time>
      </trkpt>
      <trkpt lat="41.9922310" lon="-7.5342270">
        <ele>718.8</ele>
        <time>2019-08-17T10:56:45Z</time>
      </trkpt>
      <trkpt lat="41.9922750" lon="-7.5342520">
        <ele>718.9</ele>
        <time>2019-08-17T10:56:46Z</time>
      </trkpt>
      <trkpt lat="41.9923200" lon="-7.5342770">
        <ele>719.0</ele>
        <time>2019-08-17T10:56:47Z</time>
      </trkpt>
      <trkpt lat="41.9923650" lon="-7.5343030">
        <ele>719.2</ele>
        <time>2019-08-17T10:56:48Z</time>
      </trkpt>
      <trkpt lat="41.9924100" lon="-7.5343280">
        <ele>719.3</ele>
        <time>2019-08-17T10:56:49Z</time>
      </trkpt>
      <trkpt lat="41.9924540" lon="-7.5343530">
        <ele>719.4</ele>
        <time>2019-08-17T10:56:50Z</time>
      </trkpt>
      <trkpt lat="41.9924980" lon="-7.5343770">
        <ele>719.5</ele>
        <time>2019-08-17T10:56:51Z</time>
      </trkpt>
      <trkpt lat="41.9925420" lon="-7.5344020">
        <ele>719.6</ele>
        <time>2019-08-17T10:56:52Z</time>
      </trkpt>
      <trkpt lat="41.9925870" lon="-7.5344270">
        <ele>719.8</ele>
        <time>2019-08-17T10:56:53Z</time>
      </trkpt>
      <trkpt lat="41.9926300" lon="-7.5344510">
        <ele>719.9</ele>
        <time>2019-08-17T10:56:54Z</time>
      </trkpt>
      <trkpt lat="41.9926740" lon="-7.5344750">
        <ele>720.0</ele>
        <time>2019-08-17T10:56:55Z</time>
      </trkpt>
      <trkpt lat="41.9927180" lon="-7.5345000">
        <ele>720.2</ele>
        <time>2019-08-17T10:56:56Z</time>
      </trkpt>
      <trkpt lat="41.9927620" lon="-7.5345240">
        <ele>720.3</ele>
        <time>2019-08-17T10:56:57Z</time>
      </trkpt>
      <trkpt lat="41.9928060" lon="-7.5345480">
        <ele>720.4</ele>
        <time>2019-08-17T10:56:58Z</time>
      </trkpt>
      <trkpt lat="41.9928500" lon="-7.5345730">
        <ele>720.6</ele>
        <time>2019-08-17T10:56:59Z</time>
      </trkpt>
      <trkpt lat="41.9928930" lon="-7.5345970">
        <ele>720.7</ele>
        <time>2019-08-17T10:57:00Z</time>
      </trkpt>
      <trkpt lat="41.9929370" lon="-7.5346210">
        <ele>720.9</ele>
        <time>2019-08-17T10:57:01Z</time>
      </trkpt>
      <trkpt lat="41.9929810" lon="-7.5346460">
        <ele>721.0</ele>
        <time>2019-08-17T10:57:02Z</time>
      </trkpt>
      <trkpt lat="41.9930250" lon="-7.5346700">
        <ele>721.2</ele>
        <time>2019-08-17T10:57:03Z</time>
      </trkpt>
      <trkpt lat="41.9930690" lon="-7.5346950">
        <ele>721.3</ele>
        <time>2019-08-17T10:57:04Z</time>
      </trkpt>
      <trkpt lat="41.9931130" lon="-7.5347200">
        <ele>721.5</ele>
        <time>2019-08-17T10:57:05Z</time>
      </trkpt>
      <trkpt lat="41.9931570" lon="-7.5347450">
        <ele>721.7</ele>
        <time>2019-08-17T10:57:06Z</time>
      </trkpt>
      <trkpt lat="41.9932020" lon="-7.5347700">
        <ele>721.8</ele>
        <time>2019-08-17T10:57:07Z</time>
      </trkpt>
      <trkpt lat="41.9932460" lon="-7.5347960">
        <ele>722.0</ele>
        <time>2019-08-17T10:57:08Z</time>
      </trkpt>
      <trkpt lat="41.9932910" lon="-7.5348210">
        <ele>722.2</ele>
        <time>2019-08-17T10:57:09Z</time>
      </trkpt>
      <trkpt lat="41.9933350" lon="-7.5348470">
        <ele>722.4</ele>
        <time>2019-08-17T10:57:10Z</time>
      </trkpt>
      <trkpt lat="41.9933800" lon="-7.5348720">
        <ele>722.6</ele>
        <time>2019-08-17T10:57:11Z</time>
      </trkpt>
      <trkpt lat="41.9934260" lon="-7.5348980">
        <ele>722.8</ele>
        <time>2019-08-17T10:57:12Z</time>
      </trkpt>
      <trkpt lat="41.9934710" lon="-7.5349240">
        <ele>723.0</ele>
        <time>2019-08-17T10:57:13Z</time>
      </trkpt>
      <trkpt lat="41.9935160" lon="-7.5349500">
        <ele>723.2</ele>
        <time>2019-08-17T10:57:14Z</time>
      </trkpt>
      <trkpt lat="41.9935620" lon="-7.5349760">
        <ele>723.4</ele>
        <time>2019-08-17T10:57:15Z</time>
      </trkpt>
      <trkpt lat="41.9936080" lon="-7.5350030">
        <ele>723.6</ele>
        <time>2019-08-17T10:57:16Z</time>
      </trkpt>
      <trkpt lat="41.9936530" lon="-7.5350290">
        <ele>723.8</ele>
        <time>2019-08-17T10:57:17Z</time>
      </trkpt>
      <trkpt lat="41.9936990" lon="-7.5350560">
        <ele>724.1</ele>
        <time>2019-08-17T10:57:18Z</time>
      </trkpt>
      <trkpt lat="41.9937440" lon="-7.5350820">
        <ele>724.3</ele>
        <time>2019-08-17T10:57:19Z</time>
      </trkpt>
      <trkpt lat="41.9937900" lon="-7.5351090">
        <ele>724.5</ele>
        <time>2019-08-17T10:57:20Z</time>
      </trkpt>
      <trkpt lat="41.9938350" lon="-7.5351360">
        <ele>724.8</ele>
        <time>2019-08-17T10:57:21Z</time>
      </trkpt>
      <trkpt lat="41.9938800" lon="-7.5351640">
        <ele>725.0</ele>
        <time>2019-08-17T10:57:22Z</time>
      </trkpt>
      <trkpt lat="41.9939240" lon="-7.5351910">
        <ele>725.3</ele>
        <time>2019-08-17T10:57:23Z</time>
      </trkpt>
      <trkpt lat="41.9939680" lon="-7.5352190">
        <ele>725.6</ele>
        <time>2019-08-17T10:57:24Z</time>
      </trkpt>
      <trkpt lat="41.9940110" lon="-7.5352460">
        <ele>725.8</ele>
        <time>2019-08-17T10:57:25Z</time>
      </trkpt>
      <trkpt lat="41.9940540" lon="-7.5352730">
        <ele>726.1</ele>
        <time>2019-08-17T10:57:26Z</time>
      </trkpt>
      <trkpt lat="41.9940960" lon="-7.5353000">
        <ele>726.3</ele>
        <time>2019-08-17T10:57:27Z</time>
      </trkpt>
      <trkpt lat="41.9941370" lon="-7.5353270">
        <ele>726.6</ele>
        <time>2019-08-17T10:57:28Z</time>
      </trkpt>
      <trkpt lat="41.9941770" lon="-7.5353530">
        <ele>726.9</ele>
        <time>2019-08-17T10:57:29Z</time>
      </trkpt>
      <trkpt lat="41.9942160" lon="-7.5353790">
        <ele>727.1</ele>
        <time>2019-08-17T10:57:30Z</time>
      </trkpt>
      <trkpt lat="41.9942540" lon="-7.5354040">
        <ele>727.4</ele>
        <time>2019-08-17T10:57:31Z</time>
      </trkpt>
      <trkpt lat="41.9942920" lon="-7.5354290">
        <ele>727.7</ele>
        <time>2019-08-17T10:57:32Z</time>
      </trkpt>
      <trkpt lat="41.9943280" lon="-7.5354540">
        <ele>727.9</ele>
        <time>2019-08-17T10:57:33Z</time>
      </trkpt>
      <trkpt lat="41.9943630" lon="-7.5354780">
        <ele>728.1</ele>
        <time>2019-08-17T10:57:34Z</time>
      </trkpt>
      <trkpt lat="41.9943980" lon="-7.5355010">
        <ele>728.4</ele>
        <time>2019-08-17T10:57:35Z</time>
      </trkpt>
      <trkpt lat="41.9944320" lon="-7.5355250">
        <ele>728.6</ele>
        <time>2019-08-17T10:57:36Z</time>
      </trkpt>
      <trkpt lat="41.9944650" lon="-7.5355480">
        <ele>728.9</ele>
        <time>2019-08-17T10:57:37Z</time>
      </trkpt>
      <trkpt lat="41.9944980" lon="-7.5355710">
        <ele>729.1</ele>
        <time>2019-08-17T10:57:38Z</time>
      </trkpt>
      <trkpt lat="41.9945300" lon="-7.5355940">
        <ele>729.4</ele>
        <time>2019-08-17T10:57:39Z</time>
      </trkpt>
      <trkpt lat="41.9945610" lon="-7.5356170">
        <ele>729.6</ele>
        <time>2019-08-17T10:57:40Z</time>
      </trkpt>
      <trkpt lat="41.9945920" lon="-7.5356390">
        <ele>729.8</ele>
        <time>2019-08-17T10:57:41Z</time>
      </trkpt>
      <trkpt lat="41.9946220" lon="-7.5356620">
        <ele>730.1</ele>
        <time>2019-08-17T10:57:42Z</time>
      </trkpt>
      <trkpt lat="41.9946520" lon="-7.5356840">
        <ele>730.3</ele>
        <time>2019-08-17T10:57:43Z</time>
      </trkpt>
      <trkpt lat="41.9946820" lon="-7.5357060">
        <ele>730.5</ele>
        <time>2019-08-17T10:57:44Z</time>
      </trkpt>
      <trkpt lat="41.9947110" lon="-7.5357280">
        <ele>730.8</ele>
        <time>2019-08-17T10:57:45Z</time>
      </trkpt>
      <trkpt lat="41.9947400" lon="-7.5357490">
        <ele>731.0</ele>
        <time>2019-08-17T10:57:46Z</time>
      </trkpt>
      <trkpt lat="41.9947680" lon="-7.5357710">
        <ele>731.2</ele>
        <time>2019-08-17T10:57:47Z</time>
      </trkpt>
      <trkpt lat="41.9947960" lon="-7.5357930">
        <ele>731.4</ele>
        <time>2019-08-17T10:57:48Z</time>
      </trkpt>
      <trkpt lat="41.9948240" lon="-7.5358140">
        <ele>731.7</ele>
        <time>2019-08-17T10:57:49Z</time>
      </trkpt>
      <trkpt lat="41.9948520" lon="-7.5358360">
        <ele>731.9</ele>
        <time>2019-08-17T10:57:50Z</time>
      </trkpt>
      <trkpt lat="41.9948800" lon="-7.5358570">
        <ele>732.1</ele>
        <time>2019-08-17T10:57:51Z</time>
      </trkpt>
      <trkpt lat="41.9949070" lon="-7.5358780">
        <ele>732.3</ele>
        <time>2019-08-17T10:57:52Z</time>
      </trkpt>
      <trkpt lat="41.9949350" lon="-7.5359000">
        <ele>732.6</ele>
        <time>2019-08-17T10:57:53Z</time>
      </trkpt>
      <trkpt lat="41.9949620" lon="-7.5359210">
        <ele>732.8</ele>
        <time>2019-08-17T10:57:54Z</time>
      </trkpt>
      <trkpt lat="41.9949900" lon="-7.5359420">
        <ele>733.0</ele>
        <time>2019-08-17T10:57:55Z</time>
      </trkpt>
      <trkpt lat="41.9950170" lon="-7.5359630">
        <ele>733.2</ele>
        <time>2019-08-17T10:57:56Z</time>
      </trkpt>
      <trkpt lat="41.9950440" lon="-7.5359840">
        <ele>733.4</ele>
        <time>2019-08-17T10:57:57Z</time>
      </trkpt>
      <trkpt lat="41.9950710" lon="-7.5360050">
        <ele>733.7</ele>
        <time>2019-08-17T10:57:58Z</time>
      </trkpt>
      <trkpt lat="41.9950980" lon="-7.5360260">
        <ele>733.9</ele>
        <time>2019-08-17T10:57:59Z</time>
      </trkpt>
      <trkpt lat="41.9951240" lon="-7.5360470">
        <ele>734.1</ele>
        <time>2019-08-17T10:58:00Z</time>
      </trkpt>
      <trkpt lat="41.9951510" lon="-7.5360680">
        <ele>734.3</ele>
        <time>2019-08-17T10:58:01Z</time>
      </trkpt>
      <trkpt lat="41.9951780" lon="-7.5360890">
        <ele>734.5</ele>
        <time>2019-08-17T10:58:02Z</time>
      </trkpt>
      <trkpt lat="41.9952040" lon="-7.5361100">
        <ele>734.8</ele>
        <time>2019-08-17T10:58:03Z</time>
      </trkpt>
      <trkpt lat="41.9952310" lon="-7.5361300">
        <ele>735.0</ele>
        <time>2019-08-17T10:58:04Z</time>
      </trkpt>
      <trkpt lat="41.9952570" lon="-7.5361510">
        <ele>735.2</ele>
        <time>2019-08-17T10:58:05Z</time>
      </trkpt>
      <trkpt lat="41.9952830" lon="-7.5361710">
        <ele>735.4</ele>
        <time>2019-08-17T10:58:06Z</time>
      </trkpt>
      <trkpt lat="41.9953090" lon="-7.5361910">
        <ele>735.6</ele>
        <time>2019-08-17T10:58:07Z</time>
      </trkpt>
      <trkpt lat="41.9953350" lon="-7.5362110">
        <ele>735.8</ele>
        <time>2019-08-17T10:58:08Z</time>
      </trkpt>
      <trkpt lat="41.9953610" lon="-7.5362310">
        <ele>736.0</ele>
        <time>2019-08-17T10:58:09Z</time>
      </trkpt>
      <trkpt lat="41.9953860" lon="-7.5362510">
        <ele>736.2</ele>
        <time>2019-08-17T10:58:10Z</time>
      </trkpt>
      <trkpt lat="41.9954110" lon="-7.5362700">
        <ele>736.4</ele>
        <time>2019-08-17T10:58:11Z</time>
      </trkpt>
      <trkpt lat="41.9954360" lon="-7.5362890">
        <ele>736.6</ele>
        <time>2019-08-17T10:58:12Z</time>
      </trkpt>
      <trkpt lat="41.9954600" lon="-7.5363080">
        <ele>736.8</ele>
        <time>2019-08-17T10:58:13Z</time>
      </trkpt>
      <trkpt lat="41.9954830" lon="-7.5363260">
        <ele>737.0</ele>
        <time>2019-08-17T10:58:14Z</time>
      </trkpt>
      <trkpt lat="41.9955060" lon="-7.5363430">
        <ele>737.2</ele>
        <time>2019-08-17T10:58:15Z</time>
      </trkpt>
      <trkpt lat="41.9955270" lon="-7.5363600">
        <ele>737.4</ele>
        <time>2019-08-17T10:58:16Z</time>
      </trkpt>
      <trkpt lat="41.9955480" lon="-7.5363760">
        <ele>737.6</ele>
        <time>2019-08-17T10:58:17Z</time>
      </trkpt>
      <trkpt lat="41.9955690" lon="-7.5363920">
        <ele>737.7</ele>
        <time>2019-08-17T10:58:18Z</time>
      </trkpt>
      <trkpt lat="41.9955890" lon="-7.5364070">
        <ele>737.9</ele>
        <time>2019-08-17T10:58:19Z</time>
      </trkpt>
      <trkpt lat="41.9956100" lon="-7.5364230">
        <ele>738.0</ele>
        <time>2019-08-17T10:58:20Z</time>
      </trkpt>
      <trkpt lat="41.9956310" lon="-7.5364390">
        <ele>738.2</ele>
        <time>2019-08-17T10:58:21Z</time>
      </trkpt>
      <trkpt lat="41.9956520" lon="-7.5364560">
        <ele>738.4</ele>
        <time>2019-08-17T10:58:22Z</time>
      </trkpt>
      <trkpt lat="41.9956740" lon="-7.5364730">
        <ele>738.6</ele>
        <time>2019-08-17T10:58:23Z</time>
      </trkpt>
      <trkpt lat="41.9956970" lon="-7.5364910">
        <ele>738.7</ele>
        <time>2019-08-17T10:58:24Z</time>
      </trkpt>
      <trkpt lat="41.9957200" lon="-7.5365100">
        <ele>738.9</ele>
        <time>2019-08-17T10:58:25Z</time>
      </trkpt>
      <trkpt lat="41.9957450" lon="-7.5365290">
        <ele>739.1</ele>
        <time>2019-08-17T10:58:26Z</time>
      </trkpt>
      <trkpt lat="41.9957700" lon="-7.5365490">
        <ele>739.3</ele>
        <time>2019-08-17T10:58:27Z</time>
      </trkpt>
      <trkpt lat="41.9957950" lon="-7.5365690">
        <ele>739.5</ele>
        <time>2019-08-17T10:58:28Z</time>
      </trkpt>
      <trkpt lat="41.9958200" lon="-7.5365900">
        <ele>739.7</ele>
        <time>2019-08-17T10:58:29Z</time>
      </trkpt>
      <trkpt lat="41.9958460" lon="-7.5366110">
        <ele>739.9</ele>
        <time>2019-08-17T10:58:30Z</time>
      </trkpt>
      <trkpt lat="41.9958710" lon="-7.5366310">
        <ele>740.1</ele>
        <time>2019-08-17T10:58:31Z</time>
      </trkpt>
      <trkpt lat="41.9958960" lon="-7.5366520">
        <ele>740.3</ele>
        <time>2019-08-17T10:58:32Z</time>
      </trkpt>
      <trkpt lat="41.9959210" lon="-7.5366730">
        <ele>740.5</ele>
        <time>2019-08-17T10:58:33Z</time>
      </trkpt>
      <trkpt lat="41.9959450" lon="-7.5366930">
        <ele>740.7</ele>
        <time>2019-08-17T10:58:34Z</time>
      </trkpt>
      <trkpt lat="41.9959700" lon="-7.5367140">
        <ele>740.9</ele>
        <time>2019-08-17T10:58:35Z</time>
      </trkpt>
      <trkpt lat="41.9959930" lon="-7.5367340">
        <ele>741.1</ele>
        <time>2019-08-17T10:58:36Z</time>
      </trkpt>
      <trkpt lat="41.9960170" lon="-7.5367540">
        <ele>741.3</ele>
        <time>2019-08-17T10:58:37Z</time>
      </trkpt>
      <trkpt lat="41.9960400" lon="-7.5367730">
        <ele>741.4</ele>
        <time>2019-08-17T10:58:38Z</time>
      </trkpt>
      <trkpt lat="41.9960630" lon="-7.5367920">
        <ele>741.6</ele>
        <time>2019-08-17T10:58:39Z</time>
      </trkpt>
      <trkpt lat="41.9960850" lon="-7.5368100">
        <ele>741.8</ele>
        <time>2019-08-17T10:58:40Z</time>
      </trkpt>
      <trkpt lat="41.9961070" lon="-7.5368290">
        <ele>742.0</ele>
        <time>2019-08-17T10:58:41Z</time>
      </trkpt>
      <trkpt lat="41.9961290" lon="-7.5368470">
        <ele>742.1</ele>
        <time>2019-08-17T10:58:42Z</time>
      </trkpt>
      <trkpt lat="41.9961510" lon="-7.5368640">
        <ele>742.3</ele>
        <time>2019-08-17T10:58:43Z</time>
      </trkpt>
      <trkpt lat="41.9961720" lon="-7.5368820">
        <ele>742.5</ele>
        <time>2019-08-17T10:58:44Z</time>
      </trkpt>
      <trkpt lat="41.9961930" lon="-7.5368990">
        <ele>742.6</ele>
        <time>2019-08-17T10:58:45Z</time>
      </trkpt>
      <trkpt lat="41.9962140" lon="-7.5369160">
        <ele>742.8</ele>
        <time>2019-08-17T10:58:46Z</time>
      </trkpt>
      <trkpt lat="41.9962350" lon="-7.5369340">
        <ele>742.9</ele>
        <time>2019-08-17T10:58:47Z</time>
      </trkpt>
      <trkpt lat="41.9962560" lon="-7.5369510">
        <ele>743.1</ele>
        <time>2019-08-17T10:58:48Z</time>
      </trkpt>
      <trkpt lat="41.9962770" lon="-7.5369680">
        <ele>743.2</ele>
        <time>2019-08-17T10:58:49Z</time>
      </trkpt>
      <trkpt lat="41.9962980" lon="-7.5369850">
        <ele>743.4</ele>
        <time>2019-08-17T10:58:50Z</time>
      </trkpt>
      <trkpt lat="41.9963190" lon="-7.5370020">
        <ele>743.6</ele>
        <time>2019-08-17T10:58:51Z</time>
      </trkpt>
      <trkpt lat="41.9963400" lon="-7.5370190">
        <ele>743.7</ele>
        <time>2019-08-17T10:58:52Z</time>
      </trkpt>
      <trkpt lat="41.9963610" lon="-7.5370360">
        <ele>743.9</ele>
        <time>2019-08-17T10:58:53Z</time>
      </trkpt>
      <trkpt lat="41.9963830" lon="-7.5370530">
        <ele>744.0</ele>
        <time>2019-08-17T10:58:54Z</time>
      </trkpt>
      <trkpt lat="41.9964040" lon="-7.5370710">
        <ele>744.2</ele>
        <time>2019-08-17T10:58:55Z</time>
      </trkpt>
      <trkpt lat="41.9964260" lon="-7.5370890">
        <ele>744.3</ele>
        <time>2019-08-17T10:58:56Z</time>
      </trkpt>
      <trkpt lat="41.9964480" lon="-7.5371070">
        <ele>744.5</ele>
        <time>2019-08-17T10:58:57Z</time>
      </trkpt>
      <trkpt lat="41.9964690" lon="-7.5371250">
        <ele>744.7</ele>
        <time>2019-08-17T10:58:58Z</time>
      </trkpt>
      <trkpt lat="41.9964910" lon="-7.5371430">
        <ele>744.8</ele>
        <time>2019-08-17T10:58:59Z</time>
      </trkpt>
      <trkpt lat="41.9965130" lon="-7.5371610">
        <ele>745.0</ele>
        <time>2019-08-17T10:59:00Z</time>
      </trkpt>
      <trkpt lat="41.9965340" lon="-7.5371780">
        <ele>745.2</ele>
        <time>2019-08-17T10:59:01Z</time>
      </trkpt>
      <trkpt lat="41.9965550" lon="-7.5371960">
        <ele>745.3</ele>
        <time>2019-08-17T10:59:02Z</time>
      </trkpt>
      <trkpt lat="41.9965760" lon="-7.5372130">
        <ele>745.5</ele>
        <time>2019-08-17T10:59:03Z</time>
      </trkpt>
      <trkpt lat="41.9965960" lon="-7.5372310">
        <ele>745.6</ele>
        <time>2019-08-17T10:59:04Z</time>
      </trkpt>
      <trkpt lat="41.9966160" lon="-7.5372480">
        <ele>745.8</ele>
        <time>2019-08-17T10:59:05Z</time>
      </trkpt>
      <trkpt lat="41.9966360" lon="-7.5372650">
        <ele>746.0</ele>
        <time>2019-08-17T10:59:06Z</time>
      </trkpt>
      <trkpt lat="41.9966560" lon="-7.5372820">
        <ele>746.1</ele>
        <time>2019-08-17T10:59:07Z</time>
      </trkpt>
      <trkpt lat="41.9966760" lon="-7.5372990">
        <ele>746.3</ele>
        <time>2019-08-17T10:59:08Z</time>
      </trkpt>
      <trkpt lat="41.9966960" lon="-7.5373150">
        <ele>746.4</ele>
        <time>2019-08-17T10:59:09Z</time>
      </trkpt>
      <trkpt lat="41.9967150" lon="-7.5373320">
        <ele>746.6</ele>
        <time>2019-08-17T10:59:10Z</time>
      </trkpt>
      <trkpt lat="41.9967350" lon="-7.5373490">
        <ele>746.7</ele>
        <time>2019-08-17T10:59:11Z</time>
      </trkpt>
      <trkpt lat="41.9967550" lon="-7.5373660">
        <ele>746.9</ele>
        <time>2019-08-17T10:59:12Z</time>
      </trkpt>
      <trkpt lat="41.9967740" lon="-7.5373830">
        <ele>747.0</ele>
        <time>2019-08-17T10:59:13Z</time>
      </trkpt>
      <trkpt lat="41.9967940" lon="-7.5374000">
        <ele>747.2</ele>
        <time>2019-08-17T10:59:14Z</time>
      </trkpt>
      <trkpt lat="41.9968140" lon="-7.5374170">
        <ele>747.4</ele>
        <time>2019-08-17T10:59:15Z</time>
      </trkpt>
      <trkpt lat="41.9968340" lon="-7.5374330">
        <ele>747.5</ele>
        <time>2019-08-17T10:59:16Z</time>
      </trkpt>
      <trkpt lat="41.9968530" lon="-7.5374500">
        <ele>747.7</ele>
        <time>2019-08-17T10:59:17Z</time>
      </trkpt>
      <trkpt lat="41.9968730" lon="-7.5374670">
        <ele>747.8</ele>
        <time>2019-08-17T10:59:18Z</time>
      </trkpt>
      <trkpt lat="41.9968930" lon="-7.5374840">
        <ele>748.0</ele>
        <time>2019-08-17T10:59:19Z</time>
      </trkpt>
      <trkpt lat="41.9969130" lon="-7.5375010">
        <ele>748.2</ele>
        <time>2019-08-17T10:59:20Z</time>
      </trkpt>
      <trkpt lat="41.9969320" lon="-7.5375180">
        <ele>748.3</ele>
        <time>2019-08-17T10:59:21Z</time>
      </trkpt>
      <trkpt lat="41.9969520" lon="-7.5375350">
        <ele>748.5</ele>
        <time>2019-08-17T10:59:22Z</time>
      </trkpt>
      <trkpt lat="41.9969720" lon="-7.5375520">
        <ele>748.6</ele>
        <time>2019-08-17T10:59:23Z</time>
      </trkpt>
      <trkpt lat="41.9969910" lon="-7.5375690">
        <ele>748.8</ele>
        <time>2019-08-17T10:59:24Z</time>
      </trkpt>
      <trkpt lat="41.9970110" lon="-7.5375860">
        <ele>749.0</ele>
        <time>2019-08-17T10:59:25Z</time>
      </trkpt>
      <trkpt lat="41.9970310" lon="-7.5376020">
        <ele>749.3</ele>
        <time>2019-08-17T10:59:26Z</time>
      </trkpt>
      <trkpt lat="41.9970510" lon="-7.5376190">
        <ele>749.5</ele>
        <time>2019-08-17T10:59:27Z</time>
      </trkpt>
      <trkpt lat="41.9970700" lon="-7.5376360">
        <ele>749.7</ele>
        <time>2019-08-17T10:59:28Z</time>
      </trkpt>
      <trkpt lat="41.9970900" lon="-7.5376530">
        <ele>750.0</ele>
        <time>2019-08-17T10:59:29Z</time>
      </trkpt>
      <trkpt lat="41.9971100" lon="-7.5376700">
        <ele>750.2</ele>
        <time>2019-08-17T10:59:30Z</time>
      </trkpt>
      <trkpt lat="41.9971290" lon="-7.5376870">
        <ele>750.4</ele>
        <time>2019-08-17T10:59:31Z</time>
      </trkpt>
      <trkpt lat="41.9971490" lon="-7.5377040">
        <ele>750.7</ele>
        <time>2019-08-17T10:59:32Z</time>
      </trkpt>
      <trkpt lat="41.9971690" lon="-7.5377200">
        <ele>750.9</ele>
        <time>2019-08-17T10:59:33Z</time>
      </trkpt>
      <trkpt lat="41.9971880" lon="-7.5377370">
        <ele>751.1</ele>
        <time>2019-08-17T10:59:34Z</time>
      </trkpt>
      <trkpt lat="41.9972080" lon="-7.5377540">
        <ele>751.4</ele>
        <time>2019-08-17T10:59:35Z</time>
      </trkpt>
      <trkpt lat="41.9972270" lon="-7.5377710">
        <ele>751.6</ele>
        <time>2019-08-17T10:59:36Z</time>
      </trkpt>
      <trkpt lat="41.9972470" lon="-7.5377870">
        <ele>751.8</ele>
        <time>2019-08-17T10:59:37Z</time>
      </trkpt>
      <trkpt lat="41.9972670" lon="-7.5378040">
        <ele>752.1</ele>
        <time>2019-08-17T10:59:38Z</time>
      </trkpt>
      <trkpt lat="41.9972860" lon="-7.5378210">
        <ele>752.3</ele>
        <time>2019-08-17T10:59:39Z</time>
      </trkpt>
      <trkpt lat="41.9973060" lon="-7.5378380">
        <ele>752.5</ele>
        <time>2019-08-17T10:59:40Z</time>
      </trkpt>
      <trkpt lat="41.9973250" lon="-7.5378540">
        <ele>752.8</ele>
        <time>2019-08-17T10:59:41Z</time>
      </trkpt>
      <trkpt lat="41.9973450" lon="-7.5378710">
        <ele>753.2</ele>
        <time>2019-08-17T10:59:42Z</time>
      </trkpt>
      <trkpt lat="41.9973640" lon="-7.5378870">
        <ele>753.4</ele>
        <time>2019-08-17T10:59:43Z</time>
      </trkpt>
      <trkpt lat="41.9973840" lon="-7.5379040">
        <ele>753.6</ele>
        <time>2019-08-17T10:59:44Z</time>
      </trkpt>
      <trkpt lat="41.9974030" lon="-7.5379210">
        <ele>753.8</ele>
        <time>2019-08-17T10:59:45Z</time>
      </trkpt>
      <trkpt lat="41.9974230" lon="-7.5379370">
        <ele>754.0</ele>
        <time>2019-08-17T10:59:46Z</time>
      </trkpt>
      <trkpt lat="41.9974420" lon="-7.5379540">
        <ele>754.2</ele>
        <time>2019-08-17T10:59:47Z</time>
      </trkpt>
      <trkpt lat="41.9974620" lon="-7.5379700">
        <ele>754.4</ele>
        <time>2019-08-17T10:59:48Z</time>
      </trkpt>
      <trkpt lat="41.9974810" lon="-7.5379860">
        <ele>754.6</ele>
        <time>2019-08-17T10:59:49Z</time>
      </trkpt>
      <trkpt lat="41.9975010" lon="-7.5380030">
        <ele>754.7</ele>
        <time>2019-08-17T10:59:50Z</time>
      </trkpt>
      <trkpt lat="41.9975210" lon="-7.5380190">
        <ele>754.9</ele>
        <time>2019-08-17T10:59:51Z</time>
      </trkpt>
      <trkpt lat="41.9975400" lon="-7.5380360">
        <ele>755.0</ele>
        <time>2019-08-17T10:59:52Z</time>
      </trkpt>
      <trkpt lat="41.9975600" lon="-7.5380520">
        <ele>755.2</ele>
        <time>2019-08-17T10:59:53Z</time>
      </trkpt>
      <trkpt lat="41.9975800" lon="-7.5380690">
        <ele>755.3</ele>
        <time>2019-08-17T10:59:54Z</time>
      </trkpt>
      <trkpt lat="41.9976000" lon="-7.5380850">
        <ele>755.5</ele>
        <time>2019-08-17T10:59:55Z</time>
      </trkpt>
      <trkpt lat="41.9976200" lon="-7.5381010">
        <ele>755.6</ele>
        <time>2019-08-17T10:59:56Z</time>
      </trkpt>
      <trkpt lat="41.9976400" lon="-7.5381180">
        <ele>755.8</ele>
        <time>2019-08-17T10:59:57Z</time>
      </trkpt>
      <trkpt lat="41.9976610" lon="-7.5381340">
        <ele>755.9</ele>
        <time>2019-08-17T10:59:58Z</time>
      </trkpt>
      <trkpt lat="41.9976810" lon="-7.5381500">
        <ele>756.1</ele>
        <time>2019-08-17T10:59:59Z</time>
      </trkpt>
      <trkpt lat="41.9977010" lon="-7.5381670">
        <ele>756.2</ele>
        <time>2019-08-17T11:00:00Z</time>
      </trkpt>
      <trkpt lat="41.9977220" lon="-7.5381830">
        <ele>756.4</ele>
        <time>2019-08-17T11:00:01Z</time>
      </trkpt>
      <trkpt lat="41.9977430" lon="-7.5381990">
        <ele>756.6</ele>
        <time>2019-08-17T11:00:02Z</time>
      </trkpt>
      <trkpt lat="41.9977630" lon="-7.5382150">
        <ele>756.8</ele>
        <time>2019-08-17T11:00:03Z</time>
      </trkpt>
      <trkpt lat="41.9977840" lon="-7.5382310">
        <ele>757.0</ele>
        <time>2019-08-17T11:00:04Z</time>
      </trkpt>
      <trkpt lat="41.9978050" lon="-7.5382470">
        <ele>757.2</ele>
        <time>2019-08-17T11:00:05Z</time>
      </trkpt>
      <trkpt lat="41.9978250" lon="-7.5382620">
        <ele>757.5</ele>
        <time>2019-08-17T11:00:06Z</time>
      </trkpt>
      <trkpt lat="41.9978460" lon="-7.5382780">
        <ele>757.7</ele>
        <time>2019-08-17T11:00:07Z</time>
      </trkpt>
      <trkpt lat="41.9978670" lon="-7.5382930">
        <ele>757.9</ele>
        <time>2019-08-17T11:00:08Z</time>
      </trkpt>
      <trkpt lat="41.9978870" lon="-7.5383090">
        <ele>758.1</ele>
        <time>2019-08-17T11:00:09Z</time>
      </trkpt>
      <trkpt lat="41.9979080" lon="-7.5383240">
        <ele>758.3</ele>
        <time>2019-08-17T11:00:10Z</time>
      </trkpt>
      <trkpt lat="41.9979280" lon="-7.5383380">
        <ele>758.5</ele>
        <time>2019-08-17T11:00:11Z</time>
      </trkpt>
      <trkpt lat="41.9979490" lon="-7.5383530">
        <ele>758.7</ele>
        <time>2019-08-17T11:00:12Z</time>
      </trkpt>
      <trkpt lat="41.9979690" lon="-7.5383670">
        <ele>758.9</ele>
        <time>2019-08-17T11:00:13Z</time>
      </trkpt>
      <trkpt lat="41.9979890" lon="-7.5383820">
        <ele>759.0</ele>
        <time>2019-08-17T11:00:14Z</time>
      </trkpt>
      <trkpt lat="41.9980100" lon="-7.5383950">
        <ele>759.2</ele>
        <time>2019-08-17T11:00:15Z</time>
      </trkpt>
      <trkpt lat="41.9980300" lon="-7.5384090">
        <ele>759.3</ele>
        <time>2019-08-17T11:00:16Z</time>
      </trkpt>
      <trkpt lat="41.9980500" lon="-7.5384230">
        <ele>759.4</ele>
        <time>2019-08-17T11:00:17Z</time>
      </trkpt>
      <trkpt lat="41.9980710" lon="-7.5384360">
        <ele>759.6</ele>
        <time>2019-08-17T11:00:18Z</time>
      </trkpt>
      <trkpt lat="41.9980910" lon="-7.5384490">
        <ele>759.7</ele>
        <time>2019-08-17T11:00:19Z</time>
      </trkpt>
      <trkpt lat="41.9981120" lon="-7.5384620">
        <ele>759.9</ele>
        <time>2019-08-17T11:00:20Z</time>
      </trkpt>
      <trkpt lat="41.9981320" lon="-7.5384740">
        <ele>760.0</ele>
        <time>2019-08-17T11:00:21Z</time>
      </trkpt>
      <trkpt lat="41.9981530" lon="-7.5384870">
        <ele>760.1</ele>
        <time>2019-08-17T11:00:22Z</time>
      </trkpt>
      <trkpt lat="41.9981740" lon="-7.5384990">
        <ele>760.3</ele>
        <time>2019-08-17T11:00:23Z</time>
      </trkpt>
      <trkpt lat="41.9981950" lon="-7.5385110">
        <ele>760.4</ele>
        <time>2019-08-17T11:00:24Z</time>
      </trkpt>
      <trkpt lat="41.9982170" lon="-7.5385230">
        <ele>760.6</ele>
        <time>2019-08-17T11:00:25Z</time>
      </trkpt>
      <trkpt lat="41.9982390" lon="-7.5385350">
        <ele>760.8</ele>
        <time>2019-08-17T11:00:26Z</time>
      </trkpt>
      <trkpt lat="41.9982610" lon="-7.5385460">
        <ele>761.0</ele>
        <time>2019-08-17T11:00:27Z</time>
      </trkpt>
      <trkpt lat="41.9982830" lon="-7.5385570">
        <ele>761.2</ele>
        <time>2019-08-17T11:00:28Z</time>
      </trkpt>
      <trkpt lat="41.9983060" lon="-7.5385690">
        <ele>761.4</ele>
        <time>2019-08-17T11:00:29Z</time>
      </trkpt>
      <trkpt lat="41.9983290" lon="-7.5385800">
        <ele>761.6</ele>
        <time>2019-08-17T11:00:30Z</time>
      </trkpt>
      <trkpt lat="41.9983530" lon="-7.5385900">
        <ele>761.8</ele>
        <time>2019-08-17T11:00:31Z</time>
      </trkpt>
      <trkpt lat="41.9983770" lon="-7.5386010">
        <ele>762.0</ele>
        <time>2019-08-17T11:00:32Z</time>
      </trkpt>
      <trkpt lat="41.9984010" lon="-7.5386110">
        <ele>762.3</ele>
        <time>2019-08-17T11:00:33Z</time>
      </trkpt>
      <trkpt lat="41.9984250" lon="-7.5386210">
        <ele>762.5</ele>
        <time>2019-08-17T11:00:34Z</time>
      </trkpt>
      <trkpt lat="41.9984490" lon="-7.5386310">
        <ele>762.7</ele>
        <time>2019-08-17T11:00:35Z</time>
      </trkpt>
      <trkpt lat="41.9984730" lon="-7.5386400">
        <ele>762.9</ele>
        <time>2019-08-17T11:00:36Z</time>
      </trkpt>
      <trkpt lat="41.9984970" lon="-7.5386500">
        <ele>763.1</ele>
        <time>2019-08-17T11:00:37Z</time>
      </trkpt>
      <trkpt lat="41.9985210" lon="-7.5386580">
        <ele>763.3</ele>
        <time>2019-08-17T11:00:38Z</time>
      </trkpt>
      <trkpt lat="41.9985450" lon="-7.5386670">
        <ele>763.5</ele>
        <time>2019-08-17T11:00:39Z</time>
      </trkpt>
      <trkpt lat="41.9985690" lon="-7.5386750">
        <ele>763.8</ele>
        <time>2019-08-17T11:00:40Z</time>
      </trkpt>
      <trkpt lat="41.9985930" lon="-7.5386830">
        <ele>764.0</ele>
        <time>2019-08-17T11:00:41Z</time>
      </trkpt>
      <trkpt lat="41.9986170" lon="-7.5386900">
        <ele>764.2</ele>
        <time>2019-08-17T11:00:42Z</time>
      </trkpt>
      <trkpt lat="41.9986400" lon="-7.5386970">
        <ele>764.4</ele>
        <time>2019-08-17T11:00:43Z</time>
      </trkpt>
      <trkpt lat="41.9986630" lon="-7.5387030">
        <ele>764.6</ele>
        <time>2019-08-17T11:00:44Z</time>
      </trkpt>
      <trkpt lat="41.9986860" lon="-7.5387090">
        <ele>764.8</ele>
        <time>2019-08-17T11:00:45Z</time>
      </trkpt>
      <trkpt lat="41.9987090" lon="-7.5387150">
        <ele>765.0</ele>
        <time>2019-08-17T11:00:46Z</time>
      </trkpt>
      <trkpt lat="41.9987310" lon="-7.5387200">
        <ele>765.2</ele>
        <time>2019-08-17T11:00:47Z</time>
      </trkpt>
      <trkpt lat="41.9987530" lon="-7.5387250">
        <ele>765.4</ele>
        <time>2019-08-17T11:00:48Z</time>
      </trkpt>
      <trkpt lat="41.9987750" lon="-7.5387300">
        <ele>765.6</ele>
        <time>2019-08-17T11:00:49Z</time>
      </trkpt>
      <trkpt lat="41.9987970" lon="-7.5387340">
        <ele>765.7</ele>
        <time>2019-08-17T11:00:50Z</time>
      </trkpt>
      <trkpt lat="41.9988190" lon="-7.5387380">
        <ele>765.9</ele>
        <time>2019-08-17T11:00:51Z</time>
      </trkpt>
      <trkpt lat="41.9988410" lon="-7.5387420">
        <ele>766.0</ele>
        <time>2019-08-17T11:00:52Z</time>
      </trkpt>
      <trkpt lat="41.9988630" lon="-7.5387460">
        <ele>766.2</ele>
        <time>2019-08-17T11:00:53Z</time>
      </trkpt>
      <trkpt lat="41.9988850" lon="-7.5387500">
        <ele>766.3</ele>
        <time>2019-08-17T11:00:54Z</time>
      </trkpt>
      <trkpt lat="41.9989070" lon="-7.5387530">
        <ele>766.5</ele>
        <time>2019-08-17T11:00:55Z</time>
      </trkpt>
      <trkpt lat="41.9989290" lon="-7.5387570">
        <ele>766.6</ele>
        <time>2019-08-17T11:00:56Z</time>
      </trkpt>
      <trkpt lat="41.9989510" lon="-7.5387600">
        <ele>766.8</ele>
        <time>2019-08-17T11:00:57Z</time>
      </trkpt>
      <trkpt lat="41.9989730" lon="-7.5387640">
        <ele>766.9</ele>
        <time>2019-08-17T11:00:58Z</time>
      </trkpt>
      <trkpt lat="41.9989960" lon="-7.5387670">
        <ele>767.1</ele>
        <time>2019-08-17T11:00:59Z</time>
      </trkpt>
      <trkpt lat="41.9990190" lon="-7.5387700">
        <ele>767.3</ele>
        <time>2019-08-17T11:01:00Z</time>
      </trkpt>
      <trkpt lat="41.9990420" lon="-7.5387740">
        <ele>767.4</ele>
        <time>2019-08-17T11:01:01Z</time>
      </trkpt>
      <trkpt lat="41.9990650" lon="-7.5387770">
        <ele>767.6</ele>
        <time>2019-08-17T11:01:02Z</time>
      </trkpt>
      <trkpt lat="41.9990880" lon="-7.5387810">
        <ele>767.7</ele>
        <time>2019-08-17T11:01:03Z</time>
      </trkpt>
      <trkpt lat="41.9991120" lon="-7.5387850">
        <ele>767.9</ele>
        <time>2019-08-17T11:01:04Z</time>
      </trkpt>
      <trkpt lat="41.9991360" lon="-7.5387880">
        <ele>768.1</ele>
        <time>2019-08-17T11:01:05Z</time>
      </trkpt>
      <trkpt lat="41.9991590" lon="-7.5387920">
        <ele>768.2</ele>
        <time>2019-08-17T11:01:06Z</time>
      </trkpt>
      <trkpt lat="41.9991830" lon="-7.5387950">
        <ele>768.4</ele>
        <time>2019-08-17T11:01:07Z</time>
      </trkpt>
      <trkpt lat="41.9992070" lon="-7.5387990">
        <ele>768.6</ele>
        <time>2019-08-17T11:01:08Z</time>
      </trkpt>
      <trkpt lat="41.9992310" lon="-7.5388020">
        <ele>768.8</ele>
        <time>2019-08-17T11:01:09Z</time>
      </trkpt>
      <trkpt lat="41.9992540" lon="-7.5388060">
        <ele>768.9</ele>
        <time>2019-08-17T11:01:10Z</time>
      </trkpt>
      <trkpt lat="41.9992780" lon="-7.5388090">
        <ele>769.1</ele>
        <time>2019-08-17T11:01:11Z</time>
      </trkpt>
      <trkpt lat="41.9993020" lon="-7.5388120">
        <ele>769.3</ele>
        <time>2019-08-17T11:01:12Z</time>
      </trkpt>
      <trkpt lat="41.9993250" lon="-7.5388150">
        <ele>769.4</ele>
        <time>2019-08-17T11:01:13Z</time>
      </trkpt>
      <trkpt lat="41.9993490" lon="-7.5388190">
        <ele>769.6</ele>
        <time>2019-08-17T11:01:14Z</time>
      </trkpt>
      <trkpt lat="41.9993720" lon="-7.5388220">
        <ele>769.8</ele>
        <time>2019-08-17T11:01:15Z</time>
      </trkpt>
      <trkpt lat="41.9993950" lon="-7.5388250">
        <ele>769.9</ele>
        <time>2019-08-17T11:01:16Z</time>
      </trkpt>
      <trkpt lat="41.9994180" lon="-7.5388270">
        <ele>770.1</ele>
        <time>2019-08-17T11:01:17Z</time>
      </trkpt>
      <trkpt lat="41.9994410" lon="-7.5388300">
        <ele>770.2</ele>
        <time>2019-08-17T11:01:18Z</time>
      </trkpt>
      <trkpt lat="41.9994640" lon="-7.5388330">
        <ele>770.4</ele>
        <time>2019-08-17T11:01:19Z</time>
      </trkpt>
      <trkpt lat="41.9994860" lon="-7.5388360">
        <ele>770.6</ele>
        <time>2019-08-17T11:01:20Z</time>
      </trkpt>
      <trkpt lat="41.9995090" lon="-7.5388390">
        <ele>770.7</ele>
        <time>2019-08-17T11:01:21Z</time>
      </trkpt>
      <trkpt lat="41.9995320" lon="-7.5388410">
        <ele>770.9</ele>
        <time>2019-08-17T11:01:22Z</time>
      </trkpt>
      <trkpt lat="41.9995540" lon="-7.5388440">
        <ele>771.0</ele>
        <time>2019-08-17T11:01:23Z</time>
      </trkpt>
      <trkpt lat="41.9995770" lon="-7.5388470">
        <ele>771.2</ele>
        <time>2019-08-17T11:01:24Z</time>
      </trkpt>
      <trkpt lat="41.9996000" lon="-7.5388500">
        <ele>771.4</ele>
        <time>2019-08-17T11:01:25Z</time>
      </trkpt>
      <trkpt lat="41.9996230" lon="-7.5388520">
        <ele>771.7</ele>
        <time>2019-08-17T11:01:26Z</time>
      </trkpt>
      <trkpt lat="41.9996450" lon="-7.5388550">
        <ele>771.9</ele>
        <time>2019-08-17T11:01:27Z</time>
      </trkpt>
      <trkpt lat="41.9996680" lon="-7.5388580">
        <ele>772.1</ele>
        <time>2019-08-17T11:01:28Z</time>
      </trkpt>
      <trkpt lat="41.9996910" lon="-7.5388610">
        <ele>772.3</ele>
        <time>2019-08-17T11:01:29Z</time>
      </trkpt>
      <trkpt lat="41.9997150" lon="-7.5388640">
        <ele>772.6</ele>
        <time>2019-08-17T11:01:30Z</time>
      </trkpt>
      <trkpt lat="41.9997380" lon="-7.5388670">
        <ele>772.8</ele>
        <time>2019-08-17T11:01:31Z</time>
      </trkpt>
      <trkpt lat="41.9997610" lon="-7.5388700">
        <ele>773.0</ele>
        <time>2019-08-17T11:01:32Z</time>
      </trkpt>
      <trkpt lat="41.9997850" lon="-7.5388740">
        <ele>773.3</ele>
        <time>2019-08-17T11:01:33Z</time>
      </trkpt>
      <trkpt lat="41.9998090" lon="-7.5388770">
        <ele>773.5</ele>
        <time>2019-08-17T11:01:34Z</time>
      </trkpt>
      <trkpt lat="41.9998330" lon="-7.5388810">
        <ele>773.7</ele>
        <time>2019-08-17T11:01:35Z</time>
      </trkpt>
      <trkpt lat="41.9998570" lon="-7.5388840">
        <ele>773.9</ele>
        <time>2019-08-17T11:01:36Z</time>
      </trkpt>
      <trkpt lat="41.9998810" lon="-7.5388880">
        <ele>774.1</ele>
        <time>2019-08-17T11:01:37Z</time>
      </trkpt>
      <trkpt lat="41.9999060" lon="-7.5388910">
        <ele>774.3</ele>
        <time>2019-08-17T11:01:38Z</time>
      </trkpt>
      <trkpt lat="41.9999300" lon="-7.5388950">
        <ele>774.5</ele>
        <time>2019-08-17T11:01:39Z</time>
      </trkpt>
      <trkpt lat="41.9999550" lon="-7.5388990">
        <ele>774.6</ele>
        <time>2019-08-17T11:01:40Z</time>
      </trkpt>
      <trkpt lat="41.9999800" lon="-7.5389020">
        <ele>774.8</ele>
        <time>2019-08-17T11:01:41Z</time>
      </trkpt>
      <trkpt lat="42.0000050" lon="-7.5389060">
        <ele>775.0</ele>
        <time>2019-08-17T11:01:42Z</time>
      </trkpt>
      <trkpt lat="42.0000300" lon="-7.5389100">
        <ele>775.2</ele>
        <time>2019-08-17T11:01:43Z</time>
      </trkpt>
      <trkpt lat="42.0000550" lon="-7.5389130">
        <ele>775.3</ele>
        <time>2019-08-17T11:01:44Z</time>
      </trkpt>
      <trkpt lat="42.0000810" lon="-7.5389170">
        <ele>775.5</ele>
        <time>2019-08-17T11:01:45Z</time>
      </trkpt>
      <trkpt lat="42.0001060" lon="-7.5389210">
        <ele>775.7</ele>
        <time>2019-08-17T11:01:46Z</time>
      </trkpt>
      <trkpt lat="42.0001320" lon="-7.5389240">
        <ele>775.9</ele>
        <time>2019-08-17T11:01:47Z</time>
      </trkpt>
      <trkpt lat="42.0001580" lon="-7.5389280">
        <ele>776.1</ele>
        <time>2019-08-17T11:01:48Z</time>
      </trkpt>
      <trkpt lat="42.0001840" lon="-7.5389320">
        <ele>776.2</ele>
        <time>2019-08-17T11:01:49Z</time>
      </trkpt>
      <trkpt lat="42.0002110" lon="-7.5389360">
        <ele>776.4</ele>
        <time>2019-08-17T11:01:50Z</time>
      </trkpt>
      <trkpt lat="42.0002370" lon="-7.5389400">
        <ele>776.6</ele>
        <time>2019-08-17T11:01:51Z</time>
      </trkpt>
      <trkpt lat="42.0002630" lon="-7.5389440">
        <ele>776.8</ele>
        <time>2019-08-17T11:01:52Z</time>
      </trkpt>
      <trkpt lat="42.0002900" lon="-7.5389480">
        <ele>777.0</ele>
        <time>2019-08-17T11:01:53Z</time>
      </trkpt>
      <trkpt lat="42.0003160" lon="-7.5389530">
        <ele>777.2</ele>
        <time>2019-08-17T11:01:54Z</time>
      </trkpt>
      <trkpt lat="42.0003430" lon="-7.5389580">
        <ele>777.4</ele>
        <time>2019-08-17T11:01:55Z</time>
      </trkpt>
      <trkpt lat="42.0003700" lon="-7.5389630">
        <ele>777.6</ele>
        <time>2019-08-17T11:01:56Z</time>
      </trkpt>
      <trkpt lat="42.0003970" lon="-7.5389680">
        <ele>777.7</ele>
        <time>2019-08-17T11:01:57Z</time>
      </trkpt>
      <trkpt lat="42.0004240" lon="-7.5389740">
        <ele>777.9</ele>
        <time>2019-08-17T11:01:58Z</time>
      </trkpt>
      <trkpt lat="42.0004510" lon="-7.5389800">
        <ele>778.0</ele>
        <time>2019-08-17T11:01:59Z</time>
      </trkpt>
      <trkpt lat="42.0004780" lon="-7.5389870">
        <ele>778.1</ele>
        <time>2019-08-17T11:02:00Z</time>
      </trkpt>
      <trkpt lat="42.0005050" lon="-7.5389940">
        <ele>778.3</ele>
        <time>2019-08-17T11:02:01Z</time>
      </trkpt>
      <trkpt lat="42.0005320" lon="-7.5390020">
        <ele>778.4</ele>
        <time>2019-08-17T11:02:02Z</time>
      </trkpt>
      <trkpt lat="42.0005600" lon="-7.5390100">
        <ele>778.6</ele>
        <time>2019-08-17T11:02:03Z</time>
      </trkpt>
      <trkpt lat="42.0005870" lon="-7.5390190">
        <ele>778.7</ele>
        <time>2019-08-17T11:02:04Z</time>
      </trkpt>
      <trkpt lat="42.0006140" lon="-7.5390280">
        <ele>778.9</ele>
        <time>2019-08-17T11:02:05Z</time>
      </trkpt>
      <trkpt lat="42.0006420" lon="-7.5390370">
        <ele>779.0</ele>
        <time>2019-08-17T11:02:06Z</time>
      </trkpt>
      <trkpt lat="42.0006690" lon="-7.5390470">
        <ele>779.2</ele>
        <time>2019-08-17T11:02:07Z</time>
      </trkpt>
      <trkpt lat="42.0006960" lon="-7.5390570">
        <ele>779.3</ele>
        <time>2019-08-17T11:02:08Z</time>
      </trkpt>
      <trkpt lat="42.0007240" lon="-7.5390670">
        <ele>779.5</ele>
        <time>2019-08-17T11:02:09Z</time>
      </trkpt>
      <trkpt lat="42.0007510" lon="-7.5390780">
        <ele>779.6</ele>
        <time>2019-08-17T11:02:10Z</time>
      </trkpt>
      <trkpt lat="42.0007780" lon="-7.5390880">
        <ele>779.8</ele>
        <time>2019-08-17T11:02:11Z</time>
      </trkpt>
      <trkpt lat="42.0008050" lon="-7.5390990">
        <ele>780.0</ele>
        <time>2019-08-17T11:02:12Z</time>
      </trkpt>
      <trkpt lat="42.0008330" lon="-7.5391110">
        <ele>780.1</ele>
        <time>2019-08-17T11:02:13Z</time>
      </trkpt>
      <trkpt lat="42.0008600" lon="-7.5391220">
        <ele>780.3</ele>
        <time>2019-08-17T11:02:14Z</time>
      </trkpt>
      <trkpt lat="42.0008870" lon="-7.5391340">
        <ele>780.4</ele>
        <time>2019-08-17T11:02:15Z</time>
      </trkpt>
      <trkpt lat="42.0009140" lon="-7.5391450">
        <ele>780.6</ele>
        <time>2019-08-17T11:02:16Z</time>
      </trkpt>
      <trkpt lat="42.0009410" lon="-7.5391570">
        <ele>780.7</ele>
        <time>2019-08-17T11:02:17Z</time>
      </trkpt>
      <trkpt lat="42.0009680" lon="-7.5391690">
        <ele>780.9</ele>
        <time>2019-08-17T11:02:18Z</time>
      </trkpt>
      <trkpt lat="42.0009950" lon="-7.5391810">
        <ele>781.0</ele>
        <time>2019-08-17T11:02:19Z</time>
      </trkpt>
      <trkpt lat="42.0010210" lon="-7.5391920">
        <ele>781.2</ele>
        <time>2019-08-17T11:02:20Z</time>
      </trkpt>
      <trkpt lat="42.0010480" lon="-7.5392030">
        <ele>781.3</ele>
        <time>2019-08-17T11:02:21Z</time>
      </trkpt>
      <trkpt lat="42.0010750" lon="-7.5392140">
        <ele>781.5</ele>
        <time>2019-08-17T11:02:22Z</time>
      </trkpt>
      <trkpt lat="42.0011010" lon="-7.5392240">
        <ele>781.6</ele>
        <time>2019-08-17T11:02:23Z</time>
      </trkpt>
      <trkpt lat="42.0011270" lon="-7.5392340">
        <ele>781.8</ele>
        <time>2019-08-17T11:02:24Z</time>
      </trkpt>
      <trkpt lat="42.0011530" lon="-7.5392440">
        <ele>781.9</ele>
        <time>2019-08-17T11:02:25Z</time>
      </trkpt>
      <trkpt lat="42.0011780" lon="-7.5392520">
        <ele>782.1</ele>
        <time>2019-08-17T11:02:26Z</time>
      </trkpt>
      <trkpt lat="42.0012030" lon="-7.5392610">
        <ele>782.2</ele>
        <time>2019-08-17T11:02:27Z</time>
      </trkpt>
      <trkpt lat="42.0012270" lon="-7.5392690">
        <ele>782.4</ele>
        <time>2019-08-17T11:02:28Z</time>
      </trkpt>
      <trkpt lat="42.0012500" lon="-7.5392760">
        <ele>782.5</ele>
        <time>2019-08-17T11:02:29Z</time>
      </trkpt>
      <trkpt lat="42.0012730" lon="-7.5392840">
        <ele>782.6</ele>
        <time>2019-08-17T11:02:30Z</time>
      </trkpt>
      <trkpt lat="42.0012960" lon="-7.5392920">
        <ele>782.7</ele>
        <time>2019-08-17T11:02:31Z</time>
      </trkpt>
      <trkpt lat="42.0013200" lon="-7.5393010">
        <ele>782.9</ele>
        <time>2019-08-17T11:02:32Z</time>
      </trkpt>
      <trkpt lat="42.0013460" lon="-7.5393100">
        <ele>783.0</ele>
        <time>2019-08-17T11:02:33Z</time>
      </trkpt>
      <trkpt lat="42.0013740" lon="-7.5393210">
        <ele>783.2</ele>
        <time>2019-08-17T11:02:34Z</time>
      </trkpt>
      <trkpt lat="42.0014030" lon="-7.5393320">
        <ele>783.3</ele>
        <time>2019-08-17T11:02:35Z</time>
      </trkpt>
      <trkpt lat="42.0014330" lon="-7.5393440">
        <ele>783.5</ele>
        <time>2019-08-17T11:02:36Z</time>
      </trkpt>
      <trkpt lat="42.0014630" lon="-7.5393560">
        <ele>783.7</ele>
        <time>2019-08-17T11:02:37Z</time>
      </trkpt>
      <trkpt lat="42.0014940" lon="-7.5393680">
        <ele>783.8</ele>
        <time>2019-08-17T11:02:38Z</time>
      </trkpt>
      <trkpt lat="42.0015240" lon="-7.5393810">
        <ele>784.0</ele>
        <time>2019-08-17T11:02:39Z</time>
      </trkpt>
      <trkpt lat="42.0015530" lon="-7.5393940">
        <ele>784.2</ele>
        <time>2019-08-17T11:02:40Z</time>
      </trkpt>
      <trkpt lat="42.0015820" lon="-7.5394060">
        <ele>784.3</ele>
        <time>2019-08-17T11:02:41Z</time>
      </trkpt>
      <trkpt lat="42.0016100" lon="-7.5394190">
        <ele>784.5</ele>
        <time>2019-08-17T11:02:42Z</time>
      </trkpt>
      <trkpt lat="42.0016370" lon="-7.5394320">
        <ele>784.6</ele>
        <time>2019-08-17T11:02:43Z</time>
      </trkpt>
      <trkpt lat="42.0016640" lon="-7.5394450">
        <ele>784.8</ele>
        <time>2019-08-17T11:02:44Z</time>
      </trkpt>
      <trkpt lat="42.0016900" lon="-7.5394580">
        <ele>784.9</ele>
        <time>2019-08-17T11:02:45Z</time>
      </trkpt>
      <trkpt lat="42.0017170" lon="-7.5394710">
        <ele>785.1</ele>
        <time>2019-08-17T11:02:46Z</time>
      </trkpt>
      <trkpt lat="42.0017440" lon="-7.5394840">
        <ele>785.2</ele>
        <time>2019-08-17T11:02:47Z</time>
      </trkpt>
      <trkpt lat="42.0017720" lon="-7.5394980">
        <ele>785.4</ele>
        <time>2019-08-17T11:02:48Z</time>
      </trkpt>
      <trkpt lat="42.0018000" lon="-7.5395120">
        <ele>785.6</ele>
        <time>2019-08-17T11:02:49Z</time>
      </trkpt>
      <trkpt lat="42.0018290" lon="-7.5395260">
        <ele>785.7</ele>
        <time>2019-08-17T11:02:50Z</time>
      </trkpt>
      <trkpt lat="42.0018570" lon="-7.5395400">
        <ele>785.9</ele>
        <time>2019-08-17T11:02:51Z</time>
      </trkpt>
      <trkpt lat="42.0018860" lon="-7.5395550">
        <ele>786.0</ele>
        <time>2019-08-17T11:02:52Z</time>
      </trkpt>
      <trkpt lat="42.0019140" lon="-7.5395690">
        <ele>786.2</ele>
        <time>2019-08-17T11:02:53Z</time>
      </trkpt>
      <trkpt lat="42.0019410" lon="-7.5395830">
        <ele>786.4</ele>
        <time>2019-08-17T11:02:54Z</time>
      </trkpt>
      <trkpt lat="42.0019680" lon="-7.5395970">
        <ele>786.5</ele>
        <time>2019-08-17T11:02:55Z</time>
      </trkpt>
      <trkpt lat="42.0019930" lon="-7.5396110">
        <ele>786.7</ele>
        <time>2019-08-17T11:02:56Z</time>
      </trkpt>
      <trkpt lat="42.0020180" lon="-7.5396250">
        <ele>786.8</ele>
        <time>2019-08-17T11:02:57Z</time>
      </trkpt>
      <trkpt lat="42.0020420" lon="-7.5396390">
        <ele>786.9</ele>
        <time>2019-08-17T11:02:58Z</time>
      </trkpt>
      <trkpt lat="42.0020650" lon="-7.5396530">
        <ele>787.1</ele>
        <time>2019-08-17T11:02:59Z</time>
      </trkpt>
      <trkpt lat="42.0020880" lon="-7.5396660">
        <ele>787.2</ele>
        <time>2019-08-17T11:03:00Z</time>
      </trkpt>
      <trkpt lat="42.0021110" lon="-7.5396800">
        <ele>787.3</ele>
        <time>2019-08-17T11:03:01Z</time>
      </trkpt>
      <trkpt lat="42.0021340" lon="-7.5396930">
        <ele>787.5</ele>
        <time>2019-08-17T11:03:02Z</time>
      </trkpt>
      <trkpt lat="42.0021560" lon="-7.5397070">
        <ele>787.6</ele>
        <time>2019-08-17T11:03:03Z</time>
      </trkpt>
      <trkpt lat="42.0021790" lon="-7.5397210">
        <ele>787.7</ele>
        <time>2019-08-17T11:03:04Z</time>
      </trkpt>
      <trkpt lat="42.0022020" lon="-7.5397350">
        <ele>787.9</ele>
        <time>2019-08-17T11:03:05Z</time>
      </trkpt>
      <trkpt lat="42.0022250" lon="-7.5397490">
        <ele>788.0</ele>
        <time>2019-08-17T11:03:06Z</time>
      </trkpt>
      <trkpt lat="42.0022490" lon="-7.5397630">
        <ele>788.1</ele>
        <time>2019-08-17T11:03:07Z</time>
      </trkpt>
      <trkpt lat="42.0022720" lon="-7.5397770">
        <ele>788.3</ele>
        <time>2019-08-17T11:03:08Z</time>
      </trkpt>
      <trkpt lat="42.0022960" lon="-7.5397910">
        <ele>788.4</ele>
        <time>2019-08-17T11:03:09Z</time>
      </trkpt>
      <trkpt lat="42.0023200" lon="-7.5398060">
        <ele>788.6</ele>
        <time>2019-08-17T11:03:10Z</time>
      </trkpt>
      <trkpt lat="42.0023440" lon="-7.5398200">
        <ele>788.7</ele>
        <time>2019-08-17T11:03:11Z</time>
      </trkpt>
      <trkpt lat="42.0023680" lon="-7.5398350">
        <ele>788.9</ele>
        <time>2019-08-17T11:03:12Z</time>
      </trkpt>
      <trkpt lat="42.0023920" lon="-7.5398500">
        <ele>789.1</ele>
        <time>2019-08-17T11:03:13Z</time>
      </trkpt>
      <trkpt lat="42.0024160" lon="-7.5398650">
        <ele>789.3</ele>
        <time>2019-08-17T11:03:14Z</time>
      </trkpt>
      <trkpt lat="42.0024400" lon="-7.5398800">
        <ele>789.5</ele>
        <time>2019-08-17T11:03:15Z</time>
      </trkpt>
      <trkpt lat="42.0024640" lon="-7.5398950">
        <ele>789.7</ele>
        <time>2019-08-17T11:03:16Z</time>
      </trkpt>
      <trkpt lat="42.0024880" lon="-7.5399110">
        <ele>789.9</ele>
        <time>2019-08-17T11:03:17Z</time>
      </trkpt>
      <trkpt lat="42.0025120" lon="-7.5399260">
        <ele>790.0</ele>
        <time>2019-08-17T11:03:18Z</time>
      </trkpt>
      <trkpt lat="42.0025360" lon="-7.5399420">
        <ele>790.2</ele>
        <time>2019-08-17T11:03:19Z</time>
      </trkpt>
      <trkpt lat="42.0025600" lon="-7.5399580">
        <ele>790.3</ele>
        <time>2019-08-17T11:03:20Z</time>
      </trkpt>
      <trkpt lat="42.0025840" lon="-7.5399730">
        <ele>790.4</ele>
        <time>2019-08-17T11:03:21Z</time>
      </trkpt>
      <trkpt lat="42.0026080" lon="-7.5399900">
        <ele>790.6</ele>
        <time>2019-08-17T11:03:22Z</time>
      </trkpt>
      <trkpt lat="42.0026320" lon="-7.5400060">
        <ele>790.7</ele>
        <time>2019-08-17T11:03:23Z</time>
      </trkpt>
      <trkpt lat="42.0026550" lon="-7.5400220">
        <ele>790.9</ele>
        <time>2019-08-17T11:03:24Z</time>
      </trkpt>
      <trkpt lat="42.0026790" lon="-7.5400380">
        <ele>791.0</ele>
        <time>2019-08-17T11:03:25Z</time>
      </trkpt>
      <trkpt lat="42.0027030" lon="-7.5400550">
        <ele>791.1</ele>
        <time>2019-08-17T11:03:26Z</time>
      </trkpt>
      <trkpt lat="42.0027260" lon="-7.5400710">
        <ele>791.3</ele>
        <time>2019-08-17T11:03:27Z</time>
      </trkpt>
      <trkpt lat="42.0027490" lon="-7.5400880">
        <ele>791.4</ele>
        <time>2019-08-17T11:03:28Z</time>
      </trkpt>
      <trkpt lat="42.0027720" lon="-7.5401050">
        <ele>791.6</ele>
        <time>2019-08-17T11:03:29Z</time>
      </trkpt>
      <trkpt lat="42.0027960" lon="-7.5401210">
        <ele>791.8</ele>
        <time>2019-08-17T11:03:30Z</time>
      </trkpt>
      <trkpt lat="42.0028190" lon="-7.5401380">
        <ele>792.0</ele>
        <time>2019-08-17T11:03:31Z</time>
      </trkpt>
      <trkpt lat="42.0028410" lon="-7.5401550">
        <ele>792.1</ele>
        <time>2019-08-17T11:03:32Z</time>
      </trkpt>
      <trkpt lat="42.0028640" lon="-7.5401720">
        <ele>792.3</ele>
        <time>2019-08-17T11:03:33Z</time>
      </trkpt>
      <trkpt lat="42.0028870" lon="-7.5401890">
        <ele>792.5</ele>
        <time>2019-08-17T11:03:34Z</time>
      </trkpt>
      <trkpt lat="42.0029090" lon="-7.5402060">
        <ele>792.7</ele>
        <time>2019-08-17T11:03:35Z</time>
      </trkpt>
      <trkpt lat="42.0029310" lon="-7.5402240">
        <ele>792.8</ele>
        <time>2019-08-17T11:03:36Z</time>
      </trkpt>
      <trkpt lat="42.0029540" lon="-7.5402410">
        <ele>792.9</ele>
        <time>2019-08-17T11:03:37Z</time>
      </trkpt>
      <trkpt lat="42.0029760" lon="-7.5402580">
        <ele>793.1</ele>
        <time>2019-08-17T11:03:38Z</time>
      </trkpt>
      <trkpt lat="42.0029980" lon="-7.5402760">
        <ele>793.2</ele>
        <time>2019-08-17T11:03:39Z</time>
      </trkpt>
      <trkpt lat="42.0030200" lon="-7.5402930">
        <ele>793.3</ele>
        <time>2019-08-17T11:03:40Z</time>
      </trkpt>
      <trkpt lat="42.0030420" lon="-7.5403110">
        <ele>793.5</ele>
        <time>2019-08-17T11:03:41Z</time>
      </trkpt>
      <trkpt lat="42.0030640" lon="-7.5403280">
        <ele>793.6</ele>
        <time>2019-08-17T11:03:42Z</time>
      </trkpt>
      <trkpt lat="42.0030860" lon="-7.5403460">
        <ele>793.7</ele>
        <time>2019-08-17T11:03:43Z</time>
      </trkpt>
      <trkpt lat="42.0031080" lon="-7.5403650">
        <ele>793.9</ele>
        <time>2019-08-17T11:03:44Z</time>
      </trkpt>
      <trkpt lat="42.0031300" lon="-7.5403830">
        <ele>794.0</ele>
        <time>2019-08-17T11:03:45Z</time>
      </trkpt>
      <trkpt lat="42.0031520" lon="-7.5404010">
        <ele>794.1</ele>
        <time>2019-08-17T11:03:46Z</time>
      </trkpt>
      <trkpt lat="42.0031740" lon="-7.5404200">
        <ele>794.3</ele>
        <time>2019-08-17T11:03:47Z</time>
      </trkpt>
      <trkpt lat="42.0031960" lon="-7.5404390">
        <ele>794.4</ele>
        <time>2019-08-17T11:03:48Z</time>
      </trkpt>
      <trkpt lat="42.0032190" lon="-7.5404580">
        <ele>794.5</ele>
        <time>2019-08-17T11:03:49Z</time>
      </trkpt>
      <trkpt lat="42.0032420" lon="-7.5404770">
        <ele>794.7</ele>
        <time>2019-08-17T11:03:50Z</time>
      </trkpt>
      <trkpt lat="42.0032650" lon="-7.5404970">
        <ele>794.8</ele>
        <time>2019-08-17T11:03:51Z</time>
      </trkpt>
      <trkpt lat="42.0032880" lon="-7.5405160">
        <ele>795.0</ele>
        <time>2019-08-17T11:03:52Z</time>
      </trkpt>
      <trkpt lat="42.0033110" lon="-7.5405360">
        <ele>795.1</ele>
        <time>2019-08-17T11:03:53Z</time>
      </trkpt>
      <trkpt lat="42.0033340" lon="-7.5405560">
        <ele>795.2</ele>
        <time>2019-08-17T11:03:54Z</time>
      </trkpt>
      <trkpt lat="42.0033560" lon="-7.5405770">
        <ele>795.4</ele>
        <time>2019-08-17T11:03:55Z</time>
      </trkpt>
      <trkpt lat="42.0033790" lon="-7.5405970">
        <ele>795.5</ele>
        <time>2019-08-17T11:03:56Z</time>
      </trkpt>
      <trkpt lat="42.0034020" lon="-7.5406170">
        <ele>795.7</ele>
        <time>2019-08-17T11:03:57Z</time>
      </trkpt>
      <trkpt lat="42.0034240" lon="-7.5406380">
        <ele>795.8</ele>
        <time>2019-08-17T11:03:58Z</time>
      </trkpt>
      <trkpt lat="42.0034460" lon="-7.5406580">
        <ele>795.9</ele>
        <time>2019-08-17T11:03:59Z</time>
      </trkpt>
      <trkpt lat="42.0034670" lon="-7.5406780">
        <ele>796.1</ele>
        <time>2019-08-17T11:04:00Z</time>
      </trkpt>
      <trkpt lat="42.0034890" lon="-7.5406990">
        <ele>796.2</ele>
        <time>2019-08-17T11:04:01Z</time>
      </trkpt>
      <trkpt lat="42.0035100" lon="-7.5407190">
        <ele>796.3</ele>
        <time>2019-08-17T11:04:02Z</time>
      </trkpt>
      <trkpt lat="42.0035310" lon="-7.5407400">
        <ele>796.5</ele>
        <time>2019-08-17T11:04:03Z</time>
      </trkpt>
      <trkpt lat="42.0035520" lon="-7.5407600">
        <ele>796.6</ele>
        <time>2019-08-17T11:04:04Z</time>
      </trkpt>
      <trkpt lat="42.0035720" lon="-7.5407810">
        <ele>796.7</ele>
        <time>2019-08-17T11:04:05Z</time>
      </trkpt>
      <trkpt lat="42.0035930" lon="-7.5408020">
        <ele>796.9</ele>
        <time>2019-08-17T11:04:06Z</time>
      </trkpt>
      <trkpt lat="42.0036140" lon="-7.5408230">
        <ele>797.0</ele>
        <time>2019-08-17T11:04:07Z</time>
      </trkpt>
      <trkpt lat="42.0036340" lon="-7.5408440">
        <ele>797.4</ele>
        <time>2019-08-17T11:04:08Z</time>
      </trkpt>
      <trkpt lat="42.0036550" lon="-7.5408650">
        <ele>797.6</ele>
        <time>2019-08-17T11:04:09Z</time>
      </trkpt>
      <trkpt lat="42.0036760" lon="-7.5408860">
        <ele>797.7</ele>
        <time>2019-08-17T11:04:10Z</time>
      </trkpt>
      <trkpt lat="42.0036960" lon="-7.5409080">
        <ele>797.8</ele>
        <time>2019-08-17T11:04:11Z</time>
      </trkpt>
      <trkpt lat="42.0037170" lon="-7.5409290">
        <ele>797.9</ele>
        <time>2019-08-17T11:04:12Z</time>
      </trkpt>
      <trkpt lat="42.0037380" lon="-7.5409500">
        <ele>798.1</ele>
        <time>2019-08-17T11:04:13Z</time>
      </trkpt>
      <trkpt lat="42.0037580" lon="-7.5409720">
        <ele>798.2</ele>
        <time>2019-08-17T11:04:14Z</time>
      </trkpt>
      <trkpt lat="42.0037780" lon="-7.5409930">
        <ele>798.3</ele>
        <time>2019-08-17T11:04:15Z</time>
      </trkpt>
      <trkpt lat="42.0037990" lon="-7.5410150">
        <ele>798.4</ele>
        <time>2019-08-17T11:04:16Z</time>
      </trkpt>
      <trkpt lat="42.0038190" lon="-7.5410360">
        <ele>798.6</ele>
        <time>2019-08-17T11:04:17Z</time>
      </trkpt>
      <trkpt lat="42.0038390" lon="-7.5410580">
        <ele>798.7</ele>
        <time>2019-08-17T11:04:18Z</time>
      </trkpt>
      <trkpt lat="42.0038600" lon="-7.5410790">
        <ele>798.8</ele>
        <time>2019-08-17T11:04:19Z</time>
      </trkpt>
      <trkpt lat="42.0038800" lon="-7.5411010">
        <ele>798.9</ele>
        <time>2019-08-17T11:04:20Z</time>
      </trkpt>
      <trkpt lat="42.0039000" lon="-7.5411220">
        <ele>799.0</ele>
        <time>2019-08-17T11:04:21Z</time>
      </trkpt>
      <trkpt lat="42.0039200" lon="-7.5411430">
        <ele>799.2</ele>
        <time>2019-08-17T11:04:22Z</time>
      </trkpt>
      <trkpt lat="42.0039390" lon="-7.5411640">
        <ele>799.3</ele>
        <time>2019-08-17T11:04:23Z</time>
      </trkpt>
      <trkpt lat="42.0039590" lon="-7.5411850">
        <ele>799.4</ele>
        <time>2019-08-17T11:04:24Z</time>
      </trkpt>
      <trkpt lat="42.0039790" lon="-7.5412070">
        <ele>799.5</ele>
        <time>2019-08-17T11:04:25Z</time>
      </trkpt>
      <trkpt lat="42.0039980" lon="-7.5412280">
        <ele>799.6</ele>
        <time>2019-08-17T11:04:26Z</time>
      </trkpt>
      <trkpt lat="42.0040180" lon="-7.5412490">
        <ele>799.7</ele>
        <time>2019-08-17T11:04:27Z</time>
      </trkpt>
      <trkpt lat="42.0040380" lon="-7.5412700">
        <ele>799.8</ele>
        <time>2019-08-17T11:04:28Z</time>
      </trkpt>
      <trkpt lat="42.0040570" lon="-7.5412920">
        <ele>799.9</ele>
        <time>2019-08-17T11:04:29Z</time>
      </trkpt>
      <trkpt lat="42.0040770" lon="-7.5413130">
        <ele>800.0</ele>
        <time>2019-08-17T11:04:30Z</time>
      </trkpt>
      <trkpt lat="42.0040970" lon="-7.5413350">
        <ele>800.1</ele>
        <time>2019-08-17T11:04:31Z</time>
      </trkpt>
      <trkpt lat="42.0041170" lon="-7.5413570">
        <ele>800.2</ele>
        <time>2019-08-17T11:04:32Z</time>
      </trkpt>
      <trkpt lat="42.0041370" lon="-7.5413790">
        <ele>800.4</ele>
        <time>2019-08-17T11:04:33Z</time>
      </trkpt>
      <trkpt lat="42.0041580" lon="-7.5414020">
        <ele>800.5</ele>
        <time>2019-08-17T11:04:34Z</time>
      </trkpt>
      <trkpt lat="42.0041780" lon="-7.5414240">
        <ele>800.6</ele>
        <time>2019-08-17T11:04:35Z</time>
      </trkpt>
      <trkpt lat="42.0041990" lon="-7.5414470">
        <ele>800.7</ele>
        <time>2019-08-17T11:04:36Z</time>
      </trkpt>
      <trkpt lat="42.0042200" lon="-7.5414700">
        <ele>800.9</ele>
        <time>2019-08-17T11:04:37Z</time>
      </trkpt>
      <trkpt lat="42.0042410" lon="-7.5414940">
        <ele>801.0</ele>
        <time>2019-08-17T11:04:38Z</time>
      </trkpt>
      <trkpt lat="42.0042620" lon="-7.5415180">
        <ele>801.2</ele>
        <time>2019-08-17T11:04:39Z</time>
      </trkpt>
      <trkpt lat="42.0042840" lon="-7.5415420">
        <ele>801.3</ele>
        <time>2019-08-17T11:04:40Z</time>
      </trkpt>
      <trkpt lat="42.0043060" lon="-7.5415670">
        <ele>801.5</ele>
        <time>2019-08-17T11:04:41Z</time>
      </trkpt>
      <trkpt lat="42.0043280" lon="-7.5415910">
        <ele>801.7</ele>
        <time>2019-08-17T11:04:42Z</time>
      </trkpt>
      <trkpt lat="42.0043510" lon="-7.5416160">
        <ele>801.9</ele>
        <time>2019-08-17T11:04:43Z</time>
      </trkpt>
      <trkpt lat="42.0043730" lon="-7.5416410">
        <ele>802.1</ele>
        <time>2019-08-17T11:04:44Z</time>
      </trkpt>
      <trkpt lat="42.0043960" lon="-7.5416660">
        <ele>802.4</ele>
        <time>2019-08-17T11:04:45Z</time>
      </trkpt>
      <trkpt lat="42.0044200" lon="-7.5416920">
        <ele>802.6</ele>
        <time>2019-08-17T11:04:46Z</time>
      </trkpt>
      <trkpt lat="42.0044430" lon="-7.5417170">
        <ele>802.9</ele>
        <time>2019-08-17T11:04:47Z</time>
      </trkpt>
      <trkpt lat="42.0044670" lon="-7.5417430">
        <ele>803.2</ele>
        <time>2019-08-17T11:04:48Z</time>
      </trkpt>
      <trkpt lat="42.0044910" lon="-7.5417690">
        <ele>803.6</ele>
        <time>2019-08-17T11:04:49Z</time>
      </trkpt>
      <trkpt lat="42.0045150" lon="-7.5417940">
        <ele>803.9</ele>
        <time>2019-08-17T11:04:50Z</time>
      </trkpt>
      <trkpt lat="42.0045390" lon="-7.5418200">
        <ele>804.2</ele>
        <time>2019-08-17T11:04:51Z</time>
      </trkpt>
      <trkpt lat="42.0045640" lon="-7.5418460">
        <ele>804.6</ele>
        <time>2019-08-17T11:04:52Z</time>
      </trkpt>
      <trkpt lat="42.0045880" lon="-7.5418720">
        <ele>805.0</ele>
        <time>2019-08-17T11:04:53Z</time>
      </trkpt>
      <trkpt lat="42.0046120" lon="-7.5418980">
        <ele>805.5</ele>
        <time>2019-08-17T11:04:54Z</time>
      </trkpt>
      <trkpt lat="42.0046360" lon="-7.5419230">
        <ele>805.9</ele>
        <time>2019-08-17T11:04:55Z</time>
      </trkpt>
      <trkpt lat="42.0046590" lon="-7.5419480">
        <ele>806.3</ele>
        <time>2019-08-17T11:04:56Z</time>
      </trkpt>
      <trkpt lat="42.0046820" lon="-7.5419720">
        <ele>806.7</ele>
        <time>2019-08-17T11:04:57Z</time>
      </trkpt>
      <trkpt lat="42.0047030" lon="-7.5419960">
        <ele>807.2</ele>
        <time>2019-08-17T11:04:58Z</time>
      </trkpt>
      <trkpt lat="42.0047250" lon="-7.5420180">
        <ele>807.6</ele>
        <time>2019-08-17T11:04:59Z</time>
      </trkpt>
      <trkpt lat="42.0047450" lon="-7.5420400">
        <ele>808.0</ele>
        <time>2019-08-17T11:05:00Z</time>
      </trkpt>
      <trkpt lat="42.0047630" lon="-7.5420600">
        <ele>808.4</ele>
        <time>2019-08-17T11:05:01Z</time>
      </trkpt>
      <trkpt lat="42.0047810" lon="-7.5420790">
        <ele>808.8</ele>
        <time>2019-08-17T11:05:02Z</time>
      </trkpt>
      <trkpt lat="42.0047990" lon="-7.5420970">
        <ele>809.1</ele>
        <time>2019-08-17T11:05:03Z</time>
      </trkpt>
      <trkpt lat="42.0048150" lon="-7.5421140">
        <ele>809.5</ele>
        <time>2019-08-17T11:05:04Z</time>
      </trkpt>
      <trkpt lat="42.0048320" lon="-7.5421320">
        <ele>809.8</ele>
        <time>2019-08-17T11:05:05Z</time>
      </trkpt>
      <trkpt lat="42.0048490" lon="-7.5421490">
        <ele>810.2</ele>
        <time>2019-08-17T11:05:06Z</time>
      </trkpt>
      <trkpt lat="42.0048660" lon="-7.5421670">
        <ele>810.6</ele>
        <time>2019-08-17T11:05:07Z</time>
      </trkpt>
      <trkpt lat="42.0048840" lon="-7.5421850">
        <ele>811.0</ele>
        <time>2019-08-17T11:05:08Z</time>
      </trkpt>
      <trkpt lat="42.0049030" lon="-7.5422040">
        <ele>811.4</ele>
        <time>2019-08-17T11:05:09Z</time>
      </trkpt>
      <trkpt lat="42.0049220" lon="-7.5422240">
        <ele>811.8</ele>
        <time>2019-08-17T11:05:10Z</time>
      </trkpt>
      <trkpt lat="42.0049430" lon="-7.5422450">
        <ele>812.2</ele>
        <time>2019-08-17T11:05:11Z</time>
      </trkpt>
      <trkpt lat="42.0049640" lon="-7.5422660">
        <ele>812.6</ele>
        <time>2019-08-17T11:05:12Z</time>
      </trkpt>
      <trkpt lat="42.0049850" lon="-7.5422870">
        <ele>813.0</ele>
        <time>2019-08-17T11:05:13Z</time>
      </trkpt>
      <trkpt lat="42.0050070" lon="-7.5423080">
        <ele>813.4</ele>
        <time>2019-08-17T11:05:14Z</time>
      </trkpt>
      <trkpt lat="42.0050300" lon="-7.5423290">
        <ele>813.8</ele>
        <time>2019-08-17T11:05:15Z</time>
      </trkpt>
      <trkpt lat="42.0050530" lon="-7.5423490">
        <ele>814.2</ele>
        <time>2019-08-17T11:05:16Z</time>
      </trkpt>
      <trkpt lat="42.0050760" lon="-7.5423690">
        <ele>814.6</ele>
        <time>2019-08-17T11:05:17Z</time>
      </trkpt>
      <trkpt lat="42.0050990" lon="-7.5423890">
        <ele>814.9</ele>
        <time>2019-08-17T11:05:18Z</time>
      </trkpt>
      <trkpt lat="42.0051230" lon="-7.5424080">
        <ele>815.2</ele>
        <time>2019-08-17T11:05:19Z</time>
      </trkpt>
      <trkpt lat="42.0051460" lon="-7.5424270">
        <ele>815.5</ele>
        <time>2019-08-17T11:05:20Z</time>
      </trkpt>
      <trkpt lat="42.0051710" lon="-7.5424450">
        <ele>815.9</ele>
        <time>2019-08-17T11:05:21Z</time>
      </trkpt>
      <trkpt lat="42.0051950" lon="-7.5424630">
        <ele>816.2</ele>
        <time>2019-08-17T11:05:22Z</time>
      </trkpt>
      <trkpt lat="42.0052190" lon="-7.5424810">
        <ele>816.4</ele>
        <time>2019-08-17T11:05:23Z</time>
      </trkpt>
      <trkpt lat="42.0052440" lon="-7.5424990">
        <ele>816.6</ele>
        <time>2019-08-17T11:05:24Z</time>
      </trkpt>
      <trkpt lat="42.0052690" lon="-7.5425170">
        <ele>816.8</ele>
        <time>2019-08-17T11:05:25Z</time>
      </trkpt>
      <trkpt lat="42.0052940" lon="-7.5425340">
        <ele>817.0</ele>
        <time>2019-08-17T11:05:26Z</time>
      </trkpt>
      <trkpt lat="42.0053200" lon="-7.5425520">
        <ele>817.3</ele>
        <time>2019-08-17T11:05:27Z</time>
      </trkpt>
      <trkpt lat="42.0053450" lon="-7.5425690">
        <ele>817.5</ele>
        <time>2019-08-17T11:05:28Z</time>
      </trkpt>
      <trkpt lat="42.0053710" lon="-7.5425860">
        <ele>817.6</ele>
        <time>2019-08-17T11:05:29Z</time>
      </trkpt>
      <trkpt lat="42.0053970" lon="-7.5426030">
        <ele>817.8</ele>
        <time>2019-08-17T11:05:30Z</time>
      </trkpt>
      <trkpt lat="42.0054220" lon="-7.5426200">
        <ele>817.9</ele>
        <time>2019-08-17T11:05:31Z</time>
      </trkpt>
      <trkpt lat="42.0054480" lon="-7.5426360">
        <ele>818.1</ele>
        <time>2019-08-17T11:05:32Z</time>
      </trkpt>
      <trkpt lat="42.0054740" lon="-7.5426530">
        <ele>818.2</ele>
        <time>2019-08-17T11:05:33Z</time>
      </trkpt>
      <trkpt lat="42.0055000" lon="-7.5426700">
        <ele>818.3</ele>
        <time>2019-08-17T11:05:34Z</time>
      </trkpt>
      <trkpt lat="42.0055260" lon="-7.5426860">
        <ele>818.4</ele>
        <time>2019-08-17T11:05:35Z</time>
      </trkpt>
      <trkpt lat="42.0055520" lon="-7.5427030">
        <ele>818.5</ele>
        <time>2019-08-17T11:05:36Z</time>
      </trkpt>
      <trkpt lat="42.0055780" lon="-7.5427200">
        <ele>818.6</ele>
        <time>2019-08-17T11:05:37Z</time>
      </trkpt>
      <trkpt lat="42.0056040" lon="-7.5427360">
        <ele>818.8</ele>
        <time>2019-08-17T11:05:38Z</time>
      </trkpt>
      <trkpt lat="42.0056300" lon="-7.5427530">
        <ele>818.9</ele>
        <time>2019-08-17T11:05:39Z</time>
      </trkpt>
      <trkpt lat="42.0056560" lon="-7.5427690">
        <ele>819.1</ele>
        <time>2019-08-17T11:05:40Z</time>
      </trkpt>
      <trkpt lat="42.0056820" lon="-7.5427860">
        <ele>819.3</ele>
        <time>2019-08-17T11:05:41Z</time>
      </trkpt>
      <trkpt lat="42.0057070" lon="-7.5428030">
        <ele>819.5</ele>
        <time>2019-08-17T11:05:42Z</time>
      </trkpt>
      <trkpt lat="42.0057330" lon="-7.5428190">
        <ele>819.6</ele>
        <time>2019-08-17T11:05:43Z</time>
      </trkpt>
      <trkpt lat="42.0057580" lon="-7.5428360">
        <ele>819.8</ele>
        <time>2019-08-17T11:05:44Z</time>
      </trkpt>
      <trkpt lat="42.0057840" lon="-7.5428530">
        <ele>820.0</ele>
        <time>2019-08-17T11:05:45Z</time>
      </trkpt>
      <trkpt lat="42.0058090" lon="-7.5428700">
        <ele>820.2</ele>
        <time>2019-08-17T11:05:46Z</time>
      </trkpt>
      <trkpt lat="42.0058350" lon="-7.5428870">
        <ele>820.3</ele>
        <time>2019-08-17T11:05:47Z</time>
      </trkpt>
      <trkpt lat="42.0058600" lon="-7.5429040">
        <ele>820.5</ele>
        <time>2019-08-17T11:05:48Z</time>
      </trkpt>
      <trkpt lat="42.0058860" lon="-7.5429210">
        <ele>820.7</ele>
        <time>2019-08-17T11:05:49Z</time>
      </trkpt>
      <trkpt lat="42.0059110" lon="-7.5429380">
        <ele>820.9</ele>
        <time>2019-08-17T11:05:50Z</time>
      </trkpt>
      <trkpt lat="42.0059370" lon="-7.5429550">
        <ele>821.1</ele>
        <time>2019-08-17T11:05:51Z</time>
      </trkpt>
      <trkpt lat="42.0059620" lon="-7.5429720">
        <ele>821.3</ele>
        <time>2019-08-17T11:05:52Z</time>
      </trkpt>
      <trkpt lat="42.0059880" lon="-7.5429900">
        <ele>821.5</ele>
        <time>2019-08-17T11:05:53Z</time>
      </trkpt>
      <trkpt lat="42.0060130" lon="-7.5430070">
        <ele>821.6</ele>
        <time>2019-08-17T11:05:54Z</time>
      </trkpt>
      <trkpt lat="42.0060390" lon="-7.5430240">
        <ele>821.8</ele>
        <time>2019-08-17T11:05:55Z</time>
      </trkpt>
      <trkpt lat="42.0060650" lon="-7.5430420">
        <ele>822.0</ele>
        <time>2019-08-17T11:05:56Z</time>
      </trkpt>
      <trkpt lat="42.0060910" lon="-7.5430590">
        <ele>822.2</ele>
        <time>2019-08-17T11:05:57Z</time>
      </trkpt>
      <trkpt lat="42.0061170" lon="-7.5430770">
        <ele>822.4</ele>
        <time>2019-08-17T11:05:58Z</time>
      </trkpt>
      <trkpt lat="42.0061430" lon="-7.5430950">
        <ele>822.6</ele>
        <time>2019-08-17T11:05:59Z</time>
      </trkpt>
      <trkpt lat="42.0061690" lon="-7.5431130">
        <ele>822.8</ele>
        <time>2019-08-17T11:06:00Z</time>
      </trkpt>
      <trkpt lat="42.0061960" lon="-7.5431310">
        <ele>823.0</ele>
        <time>2019-08-17T11:06:01Z</time>
      </trkpt>
      <trkpt lat="42.0062220" lon="-7.5431480">
        <ele>823.1</ele>
        <time>2019-08-17T11:06:02Z</time>
      </trkpt>
      <trkpt lat="42.0062480" lon="-7.5431660">
        <ele>823.3</ele>
        <time>2019-08-17T11:06:03Z</time>
      </trkpt>
      <trkpt lat="42.0062750" lon="-7.5431850">
        <ele>823.5</ele>
        <time>2019-08-17T11:06:04Z</time>
      </trkpt>
      <trkpt lat="42.0063010" lon="-7.5432030">
        <ele>823.7</ele>
        <time>2019-08-17T11:06:05Z</time>
      </trkpt>
      <trkpt lat="42.0063280" lon="-7.5432210">
        <ele>823.9</ele>
        <time>2019-08-17T11:06:06Z</time>
      </trkpt>
      <trkpt lat="42.0063540" lon="-7.5432390">
        <ele>824.1</ele>
        <time>2019-08-17T11:06:07Z</time>
      </trkpt>
      <trkpt lat="42.0063810" lon="-7.5432580">
        <ele>824.3</ele>
        <time>2019-08-17T11:06:08Z</time>
      </trkpt>
      <trkpt lat="42.0064070" lon="-7.5432760">
        <ele>824.5</ele>
        <time>2019-08-17T11:06:09Z</time>
      </trkpt>
      <trkpt lat="42.0064340" lon="-7.5432940">
        <ele>824.6</ele>
        <time>2019-08-17T11:06:10Z</time>
      </trkpt>
      <trkpt lat="42.0064610" lon="-7.5433130">
        <ele>824.8</ele>
        <time>2019-08-17T11:06:11Z</time>
      </trkpt>
      <trkpt lat="42.0064870" lon="-7.5433310">
        <ele>825.0</ele>
        <time>2019-08-17T11:06:12Z</time>
      </trkpt>
      <trkpt lat="42.0065140" lon="-7.5433500">
        <ele>825.1</ele>
        <time>2019-08-17T11:06:13Z</time>
      </trkpt>
      <trkpt lat="42.0065410" lon="-7.5433690">
        <ele>825.3</ele>
        <time>2019-08-17T11:06:14Z</time>
      </trkpt>
      <trkpt lat="42.0065680" lon="-7.5433870">
        <ele>825.5</ele>
        <time>2019-08-17T11:06:15Z</time>
      </trkpt>
      <trkpt lat="42.0065950" lon="-7.5434060">
        <ele>825.7</ele>
        <time>2019-08-17T11:06:16Z</time>
      </trkpt>
      <trkpt lat="42.0066210" lon="-7.5434250">
        <ele>825.8</ele>
        <time>2019-08-17T11:06:17Z</time>
      </trkpt>
      <trkpt lat="42.0066480" lon="-7.5434440">
        <ele>826.0</ele>
        <time>2019-08-17T11:06:18Z</time>
      </trkpt>
      <trkpt lat="42.0066750" lon="-7.5434630">
        <ele>826.2</ele>
        <time>2019-08-17T11:06:19Z</time>
      </trkpt>
      <trkpt lat="42.0067020" lon="-7.5434820">
        <ele>826.4</ele>
        <time>2019-08-17T11:06:20Z</time>
      </trkpt>
      <trkpt lat="42.0067290" lon="-7.5435010">
        <ele>826.6</ele>
        <time>2019-08-17T11:06:21Z</time>
      </trkpt>
      <trkpt lat="42.0067550" lon="-7.5435200">
        <ele>826.7</ele>
        <time>2019-08-17T11:06:22Z</time>
      </trkpt>
      <trkpt lat="42.0067820" lon="-7.5435390">
        <ele>826.9</ele>
        <time>2019-08-17T11:06:23Z</time>
      </trkpt>
      <trkpt lat="42.0068090" lon="-7.5435580">
        <ele>827.1</ele>
        <time>2019-08-17T11:06:24Z</time>
      </trkpt>
      <trkpt lat="42.0068360" lon="-7.5435780">
        <ele>827.2</ele>
        <time>2019-08-17T11:06:25Z</time>
      </trkpt>
      <trkpt lat="42.0068630" lon="-7.5435970">
        <ele>827.4</ele>
        <time>2019-08-17T11:06:26Z</time>
      </trkpt>
      <trkpt lat="42.0068890" lon="-7.5436160">
        <ele>827.5</ele>
        <time>2019-08-17T11:06:27Z</time>
      </trkpt>
      <trkpt lat="42.0069160" lon="-7.5436360">
        <ele>827.7</ele>
        <time>2019-08-17T11:06:28Z</time>
      </trkpt>
      <trkpt lat="42.0069430" lon="-7.5436550">
        <ele>827.9</ele>
        <time>2019-08-17T11:06:29Z</time>
      </trkpt>
      <trkpt lat="42.0069690" lon="-7.5436740">
        <ele>828.0</ele>
        <time>2019-08-17T11:06:30Z</time>
      </trkpt>
      <trkpt lat="42.0069960" lon="-7.5436930">
        <ele>828.2</ele>
        <time>2019-08-17T11:06:31Z</time>
      </trkpt>
      <trkpt lat="42.0070230" lon="-7.5437130">
        <ele>828.3</ele>
        <time>2019-08-17T11:06:32Z</time>
      </trkpt>
      <trkpt lat="42.0070490" lon="-7.5437320">
        <ele>828.5</ele>
        <time>2019-08-17T11:06:33Z</time>
      </trkpt>
      <trkpt lat="42.0070760" lon="-7.5437510">
        <ele>828.6</ele>
        <time>2019-08-17T11:06:34Z</time>
      </trkpt>
      <trkpt lat="42.0071020" lon="-7.5437700">
        <ele>828.8</ele>
        <time>2019-08-17T11:06:35Z</time>
      </trkpt>
      <trkpt lat="42.0071290" lon="-7.5437890">
        <ele>829.0</ele>
        <time>2019-08-17T11:06:36Z</time>
      </trkpt>
      <trkpt lat="42.0071550" lon="-7.5438080">
        <ele>829.1</ele>
        <time>2019-08-17T11:06:37Z</time>
      </trkpt>
      <trkpt lat="42.0071810" lon="-7.5438270">
        <ele>829.3</ele>
        <time>2019-08-17T11:06:38Z</time>
      </trkpt>
      <trkpt lat="42.0072080" lon="-7.5438460">
        <ele>829.4</ele>
        <time>2019-08-17T11:06:39Z</time>
      </trkpt>
      <trkpt lat="42.0072340" lon="-7.5438650">
        <ele>829.6</ele>
        <time>2019-08-17T11:06:40Z</time>
      </trkpt>
      <trkpt lat="42.0072600" lon="-7.5438830">
        <ele>829.7</ele>
        <time>2019-08-17T11:06:41Z</time>
      </trkpt>
      <trkpt lat="42.0072860" lon="-7.5439020">
        <ele>829.9</ele>
        <time>2019-08-17T11:06:42Z</time>
      </trkpt>
      <trkpt lat="42.0073120" lon="-7.5439200">
        <ele>830.0</ele>
        <time>2019-08-17T11:06:43Z</time>
      </trkpt>
      <trkpt lat="42.0073380" lon="-7.5439380">
        <ele>830.2</ele>
        <time>2019-08-17T11:06:44Z</time>
      </trkpt>
      <trkpt lat="42.0073640" lon="-7.5439560">
        <ele>830.3</ele>
        <time>2019-08-17T11:06:45Z</time>
      </trkpt>
      <trkpt lat="42.0073890" lon="-7.5439740">
        <ele>830.5</ele>
        <time>2019-08-17T11:06:46Z</time>
      </trkpt>
      <trkpt lat="42.0074150" lon="-7.5439920">
        <ele>830.7</ele>
        <time>2019-08-17T11:06:47Z</time>
      </trkpt>
      <trkpt lat="42.0074410" lon="-7.5440100">
        <ele>830.8</ele>
        <time>2019-08-17T11:06:48Z</time>
      </trkpt>
      <trkpt lat="42.0074670" lon="-7.5440280">
        <ele>831.0</ele>
        <time>2019-08-17T11:06:49Z</time>
      </trkpt>
      <trkpt lat="42.0074920" lon="-7.5440460">
        <ele>831.1</ele>
        <time>2019-08-17T11:06:50Z</time>
      </trkpt>
      <trkpt lat="42.0075180" lon="-7.5440640">
        <ele>831.3</ele>
        <time>2019-08-17T11:06:51Z</time>
      </trkpt>
      <trkpt lat="42.0075430" lon="-7.5440810">
        <ele>831.4</ele>
        <time>2019-08-17T11:06:52Z</time>
      </trkpt>
      <trkpt lat="42.0075690" lon="-7.5440990">
        <ele>831.6</ele>
        <time>2019-08-17T11:06:53Z</time>
      </trkpt>
      <trkpt lat="42.0075950" lon="-7.5441170">
        <ele>831.8</ele>
        <time>2019-08-17T11:06:54Z</time>
      </trkpt>
      <trkpt lat="42.0076200" lon="-7.5441350">
        <ele>832.0</ele>
        <time>2019-08-17T11:06:55Z</time>
      </trkpt>
      <trkpt lat="42.0076460" lon="-7.5441530">
        <ele>832.1</ele>
        <time>2019-08-17T11:06:56Z</time>
      </trkpt>
      <trkpt lat="42.0076710" lon="-7.5441700">
        <ele>832.3</ele>
        <time>2019-08-17T11:06:57Z</time>
      </trkpt>
      <trkpt lat="42.0076970" lon="-7.5441880">
        <ele>832.5</ele>
        <time>2019-08-17T11:06:58Z</time>
      </trkpt>
      <trkpt lat="42.0077230" lon="-7.5442060">
        <ele>832.7</ele>
        <time>2019-08-17T11:06:59Z</time>
      </trkpt>
      <trkpt lat="42.0077480" lon="-7.5442240">
        <ele>832.8</ele>
        <time>2019-08-17T11:07:00Z</time>
      </trkpt>
      <trkpt lat="42.0077740" lon="-7.5442420">
        <ele>833.0</ele>
        <time>2019-08-17T11:07:01Z</time>
      </trkpt>
      <trkpt lat="42.0077990" lon="-7.5442600">
        <ele>833.2</ele>
        <time>2019-08-17T11:07:02Z</time>
      </trkpt>
      <trkpt lat="42.0078250" lon="-7.5442780">
        <ele>833.3</ele>
        <time>2019-08-17T11:07:03Z</time>
      </trkpt>
      <trkpt lat="42.0078500" lon="-7.5442960">
        <ele>833.5</ele>
        <time>2019-08-17T11:07:04Z</time>
      </trkpt>
      <trkpt lat="42.0078760" lon="-7.5443140">
        <ele>833.7</ele>
        <time>2019-08-17T11:07:05Z</time>
      </trkpt>
      <trkpt lat="42.0079020" lon="-7.5443320">
        <ele>833.8</ele>
        <time>2019-08-17T11:07:06Z</time>
      </trkpt>
      <trkpt lat="42.0079270" lon="-7.5443500">
        <ele>834.0</ele>
        <time>2019-08-17T11:07:07Z</time>
      </trkpt>
      <trkpt lat="42.0079530" lon="-7.5443670">
        <ele>834.2</ele>
        <time>2019-08-17T11:07:08Z</time>
      </trkpt>
      <trkpt lat="42.0079780" lon="-7.5443850">
        <ele>834.3</ele>
        <time>2019-08-17T11:07:09Z</time>
      </trkpt>
      <trkpt lat="42.0080040" lon="-7.5444020">
        <ele>834.5</ele>
        <time>2019-08-17T11:07:10Z</time>
      </trkpt>
      <trkpt lat="42.0080300" lon="-7.5444200">
        <ele>834.7</ele>
        <time>2019-08-17T11:07:11Z</time>
      </trkpt>
      <trkpt lat="42.0080550" lon="-7.5444370">
        <ele>834.8</ele>
        <time>2019-08-17T11:07:12Z</time>
      </trkpt>
      <trkpt lat="42.0080810" lon="-7.5444540">
        <ele>835.0</ele>
        <time>2019-08-17T11:07:13Z</time>
      </trkpt>
      <trkpt lat="42.0081060" lon="-7.5444710">
        <ele>835.2</ele>
        <time>2019-08-17T11:07:14Z</time>
      </trkpt>
      <trkpt lat="42.0081320" lon="-7.5444880">
        <ele>835.3</ele>
        <time>2019-08-17T11:07:15Z</time>
      </trkpt>
      <trkpt lat="42.0081570" lon="-7.5445050">
        <ele>835.5</ele>
        <time>2019-08-17T11:07:16Z</time>
      </trkpt>
      <trkpt lat="42.0081820" lon="-7.5445220">
        <ele>835.7</ele>
        <time>2019-08-17T11:07:17Z</time>
      </trkpt>
      <trkpt lat="42.0082080" lon="-7.5445390">
        <ele>835.8</ele>
        <time>2019-08-17T11:07:18Z</time>
      </trkpt>
      <trkpt lat="42.0082330" lon="-7.5445560">
        <ele>836.0</ele>
        <time>2019-08-17T11:07:19Z</time>
      </trkpt>
      <trkpt lat="42.0082580" lon="-7.5445720">
        <ele>836.2</ele>
        <time>2019-08-17T11:07:20Z</time>
      </trkpt>
      <trkpt lat="42.0082820" lon="-7.5445890">
        <ele>836.3</ele>
        <time>2019-08-17T11:07:21Z</time>
      </trkpt>
      <trkpt lat="42.0083070" lon="-7.5446060">
        <ele>836.5</ele>
        <time>2019-08-17T11:07:22Z</time>
      </trkpt>
      <trkpt lat="42.0083310" lon="-7.5446230">
        <ele>836.7</ele>
        <time>2019-08-17T11:07:23Z</time>
      </trkpt>
      <trkpt lat="42.0083550" lon="-7.5446400">
        <ele>836.8</ele>
        <time>2019-08-17T11:07:24Z</time>
      </trkpt>
      <trkpt lat="42.0083790" lon="-7.5446570">
        <ele>837.0</ele>
        <time>2019-08-17T11:07:25Z</time>
      </trkpt>
      <trkpt lat="42.0084020" lon="-7.5446740">
        <ele>837.1</ele>
        <time>2019-08-17T11:07:26Z</time>
      </trkpt>
      <trkpt lat="42.0084250" lon="-7.5446920">
        <ele>837.3</ele>
        <time>2019-08-17T11:07:27Z</time>
      </trkpt>
      <trkpt lat="42.0084480" lon="-7.5447090">
        <ele>837.5</ele>
        <time>2019-08-17T11:07:28Z</time>
      </trkpt>
      <trkpt lat="42.0084700" lon="-7.5447270">
        <ele>837.6</ele>
        <time>2019-08-17T11:07:29Z</time>
      </trkpt>
      <trkpt lat="42.0084930" lon="-7.5447450">
        <ele>837.8</ele>
        <time>2019-08-17T11:07:30Z</time>
      </trkpt>
      <trkpt lat="42.0085150" lon="-7.5447620">
        <ele>837.9</ele>
        <time>2019-08-17T11:07:31Z</time>
      </trkpt>
      <trkpt lat="42.0085380" lon="-7.5447800">
        <ele>838.1</ele>
        <time>2019-08-17T11:07:32Z</time>
      </trkpt>
      <trkpt lat="42.0085610" lon="-7.5447970">
        <ele>838.2</ele>
        <time>2019-08-17T11:07:33Z</time>
      </trkpt>
      <trkpt lat="42.0085840" lon="-7.5448140">
        <ele>838.4</ele>
        <time>2019-08-17T11:07:34Z</time>
      </trkpt>
      <trkpt lat="42.0086080" lon="-7.5448310">
        <ele>838.6</ele>
        <time>2019-08-17T11:07:35Z</time>
      </trkpt>
      <trkpt lat="42.0086330" lon="-7.5448470">
        <ele>838.7</ele>
        <time>2019-08-17T11:07:36Z</time>
      </trkpt>
      <trkpt lat="42.0086580" lon="-7.5448640">
        <ele>838.9</ele>
        <time>2019-08-17T11:07:37Z</time>
      </trkpt>
      <trkpt lat="42.0086830" lon="-7.5448810">
        <ele>839.1</ele>
        <time>2019-08-17T11:07:38Z</time>
      </trkpt>
      <trkpt lat="42.0087070" lon="-7.5449010">
        <ele>839.3</ele>
        <time>2019-08-17T11:07:39Z</time>
      </trkpt>
      <trkpt lat="42.0087290" lon="-7.5449230">
        <ele>839.4</ele>
        <time>2019-08-17T11:07:40Z</time>
      </trkpt>
      <trkpt lat="42.0087510" lon="-7.5449470">
        <ele>839.6</ele>
        <time>2019-08-17T11:07:41Z</time>
      </trkpt>
      <trkpt lat="42.0087720" lon="-7.5449720">
        <ele>839.8</ele>
        <time>2019-08-17T11:07:42Z</time>
      </trkpt>
      <trkpt lat="42.0087920" lon="-7.5449960">
        <ele>840.0</ele>
        <time>2019-08-17T11:07:43Z</time>
      </trkpt>
      <trkpt lat="42.0088130" lon="-7.5450210">
        <ele>840.1</ele>
        <time>2019-08-17T11:07:44Z</time>
      </trkpt>
      <trkpt lat="42.0088340" lon="-7.5450440">
        <ele>840.3</ele>
        <time>2019-08-17T11:07:45Z</time>
      </trkpt>
      <trkpt lat="42.0088550" lon="-7.5450680">
        <ele>840.5</ele>
        <time>2019-08-17T11:07:46Z</time>
      </trkpt>
      <trkpt lat="42.0088770" lon="-7.5450910">
        <ele>840.7</ele>
        <time>2019-08-17T11:07:47Z</time>
      </trkpt>
      <trkpt lat="42.0088980" lon="-7.5451150">
        <ele>840.8</ele>
        <time>2019-08-17T11:07:48Z</time>
      </trkpt>
      <trkpt lat="42.0089200" lon="-7.5451390">
        <ele>841.0</ele>
        <time>2019-08-17T11:07:49Z</time>
      </trkpt>
      <trkpt lat="42.0089410" lon="-7.5451640">
        <ele>841.2</ele>
        <time>2019-08-17T11:07:50Z</time>
      </trkpt>
      <trkpt lat="42.0089630" lon="-7.5451900">
        <ele>841.4</ele>
        <time>2019-08-17T11:07:51Z</time>
      </trkpt>
      <trkpt lat="42.0089840" lon="-7.5452160">
        <ele>841.5</ele>
        <time>2019-08-17T11:07:52Z</time>
      </trkpt>
      <trkpt lat="42.0090060" lon="-7.5452440">
        <ele>841.7</ele>
        <time>2019-08-17T11:07:53Z</time>
      </trkpt>
      <trkpt lat="42.0090270" lon="-7.5452730">
        <ele>841.9</ele>
        <time>2019-08-17T11:07:54Z</time>
      </trkpt>
      <trkpt lat="42.0090480" lon="-7.5453030">
        <ele>842.1</ele>
        <time>2019-08-17T11:07:55Z</time>
      </trkpt>
      <trkpt lat="42.0090680" lon="-7.5453340">
        <ele>842.3</ele>
        <time>2019-08-17T11:07:56Z</time>
      </trkpt>
      <trkpt lat="42.0090880" lon="-7.5453660">
        <ele>842.4</ele>
        <time>2019-08-17T11:07:57Z</time>
      </trkpt>
      <trkpt lat="42.0091070" lon="-7.5453990">
        <ele>842.6</ele>
        <time>2019-08-17T11:07:58Z</time>
      </trkpt>
      <trkpt lat="42.0091260" lon="-7.5454320">
        <ele>842.8</ele>
        <time>2019-08-17T11:07:59Z</time>
      </trkpt>
      <trkpt lat="42.0091440" lon="-7.5454660">
        <ele>843.0</ele>
        <time>2019-08-17T11:08:00Z</time>
      </trkpt>
      <trkpt lat="42.0091610" lon="-7.5455010">
        <ele>843.2</ele>
        <time>2019-08-17T11:08:01Z</time>
      </trkpt>
      <trkpt lat="42.0091770" lon="-7.5455370">
        <ele>843.4</ele>
        <time>2019-08-17T11:08:02Z</time>
      </trkpt>
      <trkpt lat="42.0091930" lon="-7.5455740">
        <ele>843.5</ele>
        <time>2019-08-17T11:08:03Z</time>
      </trkpt>
      <trkpt lat="42.0092080" lon="-7.5456110">
        <ele>843.7</ele>
        <time>2019-08-17T11:08:04Z</time>
      </trkpt>
      <trkpt lat="42.0092240" lon="-7.5456490">
        <ele>843.9</ele>
        <time>2019-08-17T11:08:05Z</time>
      </trkpt>
      <trkpt lat="42.0092390" lon="-7.5456870">
        <ele>844.0</ele>
        <time>2019-08-17T11:08:06Z</time>
      </trkpt>
      <trkpt lat="42.0092540" lon="-7.5457260">
        <ele>844.2</ele>
        <time>2019-08-17T11:08:07Z</time>
      </trkpt>
      <trkpt lat="42.0092690" lon="-7.5457660">
        <ele>844.4</ele>
        <time>2019-08-17T11:08:08Z</time>
      </trkpt>
      <trkpt lat="42.0092840" lon="-7.5458070">
        <ele>844.5</ele>
        <time>2019-08-17T11:08:09Z</time>
      </trkpt>
      <trkpt lat="42.0092990" lon="-7.5458480">
        <ele>844.7</ele>
        <time>2019-08-17T11:08:10Z</time>
      </trkpt>
      <trkpt lat="42.0093140" lon="-7.5458900">
        <ele>844.8</ele>
        <time>2019-08-17T11:08:11Z</time>
      </trkpt>
      <trkpt lat="42.0093280" lon="-7.5459340">
        <ele>845.0</ele>
        <time>2019-08-17T11:08:12Z</time>
      </trkpt>
      <trkpt lat="42.0093430" lon="-7.5459780">
        <ele>845.1</ele>
        <time>2019-08-17T11:08:13Z</time>
      </trkpt>
      <trkpt lat="42.0093560" lon="-7.5460240">
        <ele>845.3</ele>
        <time>2019-08-17T11:08:14Z</time>
      </trkpt>
      <trkpt lat="42.0093700" lon="-7.5460710">
        <ele>845.4</ele>
        <time>2019-08-17T11:08:15Z</time>
      </trkpt>
      <trkpt lat="42.0093820" lon="-7.5461190">
        <ele>845.5</ele>
        <time>2019-08-17T11:08:16Z</time>
      </trkpt>
      <trkpt lat="42.0093940" lon="-7.5461690">
        <ele>845.7</ele>
        <time>2019-08-17T11:08:17Z</time>
      </trkpt>
      <trkpt lat="42.0094060" lon="-7.5462190">
        <ele>845.8</ele>
        <time>2019-08-17T11:08:18Z</time>
      </trkpt>
      <trkpt lat="42.0094170" lon="-7.5462700">
        <ele>846.0</ele>
        <time>2019-08-17T11:08:19Z</time>
      </trkpt>
      <trkpt lat="42.0094280" lon="-7.5463220">
        <ele>846.1</ele>
        <time>2019-08-17T11:08:20Z</time>
      </trkpt>
      <trkpt lat="42.0094390" lon="-7.5463730">
        <ele>846.2</ele>
        <time>2019-08-17T11:08:21Z</time>
      </trkpt>
      <trkpt lat="42.0094490" lon="-7.5464250">
        <ele>846.3</ele>
        <time>2019-08-17T11:08:22Z</time>
      </trkpt>
      <trkpt lat="42.0094600" lon="-7.5464760">
        <ele>846.4</ele>
        <time>2019-08-17T11:08:23Z</time>
      </trkpt>
      <trkpt lat="42.0094700" lon="-7.5465260">
        <ele>846.6</ele>
        <time>2019-08-17T11:08:24Z</time>
      </trkpt>
      <trkpt lat="42.0094810" lon="-7.5465760">
        <ele>846.7</ele>
        <time>2019-08-17T11:08:25Z</time>
      </trkpt>
      <trkpt lat="42.0094920" lon="-7.5466250">
        <ele>846.8</ele>
        <time>2019-08-17T11:08:26Z</time>
      </trkpt>
      <trkpt lat="42.0095020" lon="-7.5466740">
        <ele>846.9</ele>
        <time>2019-08-17T11:08:27Z</time>
      </trkpt>
      <trkpt lat="42.0095130" lon="-7.5467230">
        <ele>846.9</ele>
        <time>2019-08-17T11:08:28Z</time>
      </trkpt>
      <trkpt lat="42.0095230" lon="-7.5467710">
        <ele>847.0</ele>
        <time>2019-08-17T11:08:29Z</time>
      </trkpt>
      <trkpt lat="42.0095330" lon="-7.5468190">
        <ele>847.1</ele>
        <time>2019-08-17T11:08:30Z</time>
      </trkpt>
      <trkpt lat="42.0095440" lon="-7.5468670">
        <ele>847.2</ele>
        <time>2019-08-17T11:08:31Z</time>
      </trkpt>
      <trkpt lat="42.0095540" lon="-7.5469150">
        <ele>847.3</ele>
        <time>2019-08-17T11:08:32Z</time>
      </trkpt>
      <trkpt lat="42.0095640" lon="-7.5469630">
        <ele>847.4</ele>
        <time>2019-08-17T11:08:33Z</time>
      </trkpt>
      <trkpt lat="42.0095740" lon="-7.5470110">
        <ele>847.5</ele>
        <time>2019-08-17T11:08:34Z</time>
      </trkpt>
      <trkpt lat="42.0095830" lon="-7.5470600">
        <ele>847.6</ele>
        <time>2019-08-17T11:08:35Z</time>
      </trkpt>
      <trkpt lat="42.0095930" lon="-7.5471090">
        <ele>847.7</ele>
        <time>2019-08-17T11:08:36Z</time>
      </trkpt>
      <trkpt lat="42.0096020" lon="-7.5471580">
        <ele>847.8</ele>
        <time>2019-08-17T11:08:37Z</time>
      </trkpt>
      <trkpt lat="42.0096120" lon="-7.5472070">
        <ele>847.9</ele>
        <time>2019-08-17T11:08:38Z</time>
      </trkpt>
      <trkpt lat="42.0096210" lon="-7.5472570">
        <ele>848.0</ele>
        <time>2019-08-17T11:08:39Z</time>
      </trkpt>
      <trkpt lat="42.0096300" lon="-7.5473070">
        <ele>848.1</ele>
        <time>2019-08-17T11:08:40Z</time>
      </trkpt>
      <trkpt lat="42.0096380" lon="-7.5473580">
        <ele>848.2</ele>
        <time>2019-08-17T11:08:41Z</time>
      </trkpt>
      <trkpt lat="42.0096470" lon="-7.5474090">
        <ele>848.3</ele>
        <time>2019-08-17T11:08:42Z</time>
      </trkpt>
      <trkpt lat="42.0096560" lon="-7.5474600">
        <ele>848.4</ele>
        <time>2019-08-17T11:08:43Z</time>
      </trkpt>
      <trkpt lat="42.0096650" lon="-7.5475120">
        <ele>848.4</ele>
        <time>2019-08-17T11:08:44Z</time>
      </trkpt>
      <trkpt lat="42.0096730" lon="-7.5475640">
        <ele>848.5</ele>
        <time>2019-08-17T11:08:45Z</time>
      </trkpt>
      <trkpt lat="42.0096820" lon="-7.5476150">
        <ele>848.6</ele>
        <time>2019-08-17T11:08:46Z</time>
      </trkpt>
      <trkpt lat="42.0096910" lon="-7.5476670">
        <ele>848.7</ele>
        <time>2019-08-17T11:08:47Z</time>
      </trkpt>
      <trkpt lat="42.0097000" lon="-7.5477190">
        <ele>848.8</ele>
        <time>2019-08-17T11:08:48Z</time>
      </trkpt>
      <trkpt lat="42.0097090" lon="-7.5477710">
        <ele>848.9</ele>
        <time>2019-08-17T11:08:49Z</time>
      </trkpt>
      <trkpt lat="42.0097180" lon="-7.5478220">
        <ele>849.0</ele>
        <time>2019-08-17T11:08:50Z</time>
      </trkpt>
      <trkpt lat="42.0097270" lon="-7.5478740">
        <ele>849.1</ele>
        <time>2019-08-17T11:08:51Z</time>
      </trkpt>
      <trkpt lat="42.0097360" lon="-7.5479260">
        <ele>849.2</ele>
        <time>2019-08-17T11:08:52Z</time>
      </trkpt>
      <trkpt lat="42.0097460" lon="-7.5479770">
        <ele>849.3</ele>
        <time>2019-08-17T11:08:53Z</time>
      </trkpt>
      <trkpt lat="42.0097540" lon="-7.5480290">
        <ele>849.0</ele>
        <time>2019-08-17T11:08:54Z</time>
      </trkpt>
      <trkpt lat="42.0097630" lon="-7.5480800">
        <ele>848.8</ele>
        <time>2019-08-17T11:08:55Z</time>
      </trkpt>
      <trkpt lat="42.0097720" lon="-7.5481320">
        <ele>848.6</ele>
        <time>2019-08-17T11:08:56Z</time>
      </trkpt>
      <trkpt lat="42.0097810" lon="-7.5481840">
        <ele>848.3</ele>
        <time>2019-08-17T11:08:57Z</time>
      </trkpt>
      <trkpt lat="42.0097900" lon="-7.5482380">
        <ele>848.1</ele>
        <time>2019-08-17T11:08:58Z</time>
      </trkpt>
      <trkpt lat="42.0097990" lon="-7.5482920">
        <ele>847.7</ele>
        <time>2019-08-17T11:08:59Z</time>
      </trkpt>
      <trkpt lat="42.0098080" lon="-7.5483480">
        <ele>847.3</ele>
        <time>2019-08-17T11:09:00Z</time>
      </trkpt>
      <trkpt lat="42.0098180" lon="-7.5484060">
        <ele>846.8</ele>
        <time>2019-08-17T11:09:01Z</time>
      </trkpt>
      <trkpt lat="42.0098280" lon="-7.5484660">
        <ele>846.5</ele>
        <time>2019-08-17T11:09:02Z</time>
      </trkpt>
      <trkpt lat="42.0098380" lon="-7.5485290">
        <ele>846.2</ele>
        <time>2019-08-17T11:09:03Z</time>
      </trkpt>
      <trkpt lat="42.0098480" lon="-7.5485960">
        <ele>845.8</ele>
        <time>2019-08-17T11:09:04Z</time>
      </trkpt>
      <trkpt lat="42.0098590" lon="-7.5486650">
        <ele>845.3</ele>
        <time>2019-08-17T11:09:05Z</time>
      </trkpt>
      <trkpt lat="42.0098690" lon="-7.5487390">
        <ele>844.9</ele>
        <time>2019-08-17T11:09:06Z</time>
      </trkpt>
      <trkpt lat="42.0098850" lon="-7.5488570">
        <ele>844.3</ele>
        <time>2019-08-17T11:09:07Z</time>
      </trkpt>
      <trkpt lat="42.0098900" lon="-7.5488980">
        <ele>844.1</ele>
        <time>2019-08-17T11:09:08Z</time>
      </trkpt>
      <trkpt lat="42.0099000" lon="-7.5489830">
        <ele>843.7</ele>
        <time>2019-08-17T11:09:09Z</time>
      </trkpt>
      <trkpt lat="42.0099110" lon="-7.5490740">
        <ele>843.4</ele>
        <time>2019-08-17T11:09:10Z</time>
      </trkpt>
      <trkpt lat="42.0099220" lon="-7.5491680">
        <ele>843.4</ele>
        <time>2019-08-17T11:09:11Z</time>
      </trkpt>
      <trkpt lat="42.0099370" lon="-7.5493150">
        <ele>843.2</ele>
        <time>2019-08-17T11:09:12Z</time>
      </trkpt>
      <trkpt lat="42.0099420" lon="-7.5493660">
        <ele>843.2</ele>
        <time>2019-08-17T11:09:13Z</time>
      </trkpt>
      <trkpt lat="42.0099500" lon="-7.5494690">
        <ele>843.1</ele>
        <time>2019-08-17T11:09:14Z</time>
      </trkpt>
      <trkpt lat="42.0099570" lon="-7.5495740">
        <ele>842.9</ele>
        <time>2019-08-17T11:09:15Z</time>
      </trkpt>
      <trkpt lat="42.0099620" lon="-7.5496810">
        <ele>842.7</ele>
        <time>2019-08-17T11:09:16Z</time>
      </trkpt>
      <trkpt lat="42.0099660" lon="-7.5498430">
        <ele>842.4</ele>
        <time>2019-08-17T11:09:17Z</time>
      </trkpt>
      <trkpt lat="42.0099660" lon="-7.5498980">
        <ele>842.3</ele>
        <time>2019-08-17T11:09:18Z</time>
      </trkpt>
      <trkpt lat="42.0099650" lon="-7.5500070">
        <ele>842.0</ele>
        <time>2019-08-17T11:09:19Z</time>
      </trkpt>
      <trkpt lat="42.0099620" lon="-7.5501170">
        <ele>841.7</ele>
        <time>2019-08-17T11:09:20Z</time>
      </trkpt>
      <trkpt lat="42.0099580" lon="-7.5502260">
        <ele>841.4</ele>
        <time>2019-08-17T11:09:21Z</time>
      </trkpt>
      <trkpt lat="42.0099530" lon="-7.5503360">
        <ele>841.1</ele>
        <time>2019-08-17T11:09:22Z</time>
      </trkpt>
      <trkpt lat="42.0099480" lon="-7.5504450">
        <ele>840.7</ele>
        <time>2019-08-17T11:09:23Z</time>
      </trkpt>
      <trkpt lat="42.0099420" lon="-7.5505540">
        <ele>840.3</ele>
        <time>2019-08-17T11:09:24Z</time>
      </trkpt>
      <trkpt lat="42.0099370" lon="-7.5506620">
        <ele>839.9</ele>
        <time>2019-08-17T11:09:25Z</time>
      </trkpt>
      <trkpt lat="42.0099330" lon="-7.5507680">
        <ele>839.5</ele>
        <time>2019-08-17T11:09:26Z</time>
      </trkpt>
      <trkpt lat="42.0099290" lon="-7.5508740">
        <ele>839.1</ele>
        <time>2019-08-17T11:09:27Z</time>
      </trkpt>
      <trkpt lat="42.0099260" lon="-7.5509780">
        <ele>838.7</ele>
        <time>2019-08-17T11:09:28Z</time>
      </trkpt>
      <trkpt lat="42.0099230" lon="-7.5510810">
        <ele>838.3</ele>
        <time>2019-08-17T11:09:29Z</time>
      </trkpt>
      <trkpt lat="42.0099200" lon="-7.5511820">
        <ele>837.9</ele>
        <time>2019-08-17T11:09:30Z</time>
      </trkpt>
      <trkpt lat="42.0099170" lon="-7.5512800">
        <ele>837.5</ele>
        <time>2019-08-17T11:09:31Z</time>
      </trkpt>
      <trkpt lat="42.0099130" lon="-7.5513770">
        <ele>837.2</ele>
        <time>2019-08-17T11:09:32Z</time>
      </trkpt>
      <trkpt lat="42.0099100" lon="-7.5514700">
        <ele>836.8</ele>
        <time>2019-08-17T11:09:33Z</time>
      </trkpt>
      <trkpt lat="42.0099060" lon="-7.5515620">
        <ele>836.5</ele>
        <time>2019-08-17T11:09:34Z</time>
      </trkpt>
      <trkpt lat="42.0099020" lon="-7.5516520">
        <ele>836.3</ele>
        <time>2019-08-17T11:09:35Z</time>
      </trkpt>
      <trkpt lat="42.0098980" lon="-7.5517400">
        <ele>836.0</ele>
        <time>2019-08-17T11:09:36Z</time>
      </trkpt>
      <trkpt lat="42.0098940" lon="-7.5518270">
        <ele>835.8</ele>
        <time>2019-08-17T11:09:37Z</time>
      </trkpt>
      <trkpt lat="42.0098900" lon="-7.5519120">
        <ele>835.6</ele>
        <time>2019-08-17T11:09:38Z</time>
      </trkpt>
      <trkpt lat="42.0098860" lon="-7.5519970">
        <ele>835.3</ele>
        <time>2019-08-17T11:09:39Z</time>
      </trkpt>
      <trkpt lat="42.0098830" lon="-7.5520820">
        <ele>835.1</ele>
        <time>2019-08-17T11:09:40Z</time>
      </trkpt>
      <trkpt lat="42.0098800" lon="-7.5521670">
        <ele>834.9</ele>
        <time>2019-08-17T11:09:41Z</time>
      </trkpt>
      <trkpt lat="42.0098770" lon="-7.5522510">
        <ele>834.8</ele>
        <time>2019-08-17T11:09:42Z</time>
      </trkpt>
      <trkpt lat="42.0098730" lon="-7.5523360">
        <ele>834.6</ele>
        <time>2019-08-17T11:09:43Z</time>
      </trkpt>
      <trkpt lat="42.0098690" lon="-7.5524210">
        <ele>834.4</ele>
        <time>2019-08-17T11:09:44Z</time>
      </trkpt>
      <trkpt lat="42.0098650" lon="-7.5525060">
        <ele>834.3</ele>
        <time>2019-08-17T11:09:45Z</time>
      </trkpt>
      <trkpt lat="42.0098590" lon="-7.5525920">
        <ele>834.2</ele>
        <time>2019-08-17T11:09:46Z</time>
      </trkpt>
      <trkpt lat="42.0098530" lon="-7.5526770">
        <ele>834.1</ele>
        <time>2019-08-17T11:09:47Z</time>
      </trkpt>
      <trkpt lat="42.0098440" lon="-7.5527640">
        <ele>833.9</ele>
        <time>2019-08-17T11:09:48Z</time>
      </trkpt>
      <trkpt lat="42.0098340" lon="-7.5528510">
        <ele>833.9</ele>
        <time>2019-08-17T11:09:49Z</time>
      </trkpt>
      <trkpt lat="42.0098230" lon="-7.5529380">
        <ele>833.8</ele>
        <time>2019-08-17T11:09:50Z</time>
      </trkpt>
      <trkpt lat="42.0098100" lon="-7.5530270">
        <ele>833.7</ele>
        <time>2019-08-17T11:09:51Z</time>
      </trkpt>
      <trkpt lat="42.0097970" lon="-7.5531150">
        <ele>833.7</ele>
        <time>2019-08-17T11:09:52Z</time>
      </trkpt>
      <trkpt lat="42.0097840" lon="-7.5532040">
        <ele>833.6</ele>
        <time>2019-08-17T11:09:53Z</time>
      </trkpt>
      <trkpt lat="42.0097710" lon="-7.5532940">
        <ele>833.6</ele>
        <time>2019-08-17T11:09:54Z</time>
      </trkpt>
      <trkpt lat="42.0097580" lon="-7.5533840">
        <ele>833.6</ele>
        <time>2019-08-17T11:09:55Z</time>
      </trkpt>
      <trkpt lat="42.0097470" lon="-7.5534740">
        <ele>833.5</ele>
        <time>2019-08-17T11:09:56Z</time>
      </trkpt>
      <trkpt lat="42.0097360" lon="-7.5535640">
        <ele>833.5</ele>
        <time>2019-08-17T11:09:57Z</time>
      </trkpt>
      <trkpt lat="42.0097280" lon="-7.5536550">
        <ele>833.4</ele>
        <time>2019-08-17T11:09:58Z</time>
      </trkpt>
      <trkpt lat="42.0097210" lon="-7.5537460">
        <ele>833.4</ele>
        <time>2019-08-17T11:09:59Z</time>
      </trkpt>
      <trkpt lat="42.0097150" lon="-7.5538380">
        <ele>833.4</ele>
        <time>2019-08-17T11:10:00Z</time>
      </trkpt>
      <trkpt lat="42.0097120" lon="-7.5539290">
        <ele>833.3</ele>
        <time>2019-08-17T11:10:01Z</time>
      </trkpt>
      <trkpt lat="42.0097110" lon="-7.5540210">
        <ele>833.3</ele>
        <time>2019-08-17T11:10:02Z</time>
      </trkpt>
      <trkpt lat="42.0097120" lon="-7.5541130">
        <ele>833.2</ele>
        <time>2019-08-17T11:10:03Z</time>
      </trkpt>
      <trkpt lat="42.0097160" lon="-7.5542050">
        <ele>833.2</ele>
        <time>2019-08-17T11:10:04Z</time>
      </trkpt>
      <trkpt lat="42.0097220" lon="-7.5542970">
        <ele>832.1</ele>
        <time>2019-08-17T11:10:05Z</time>
      </trkpt>
      <trkpt lat="42.0097300" lon="-7.5543900">
        <ele>831.5</ele>
        <time>2019-08-17T11:10:06Z</time>
      </trkpt>
      <trkpt lat="42.0097410" lon="-7.5544840">
        <ele>831.3</ele>
        <time>2019-08-17T11:10:07Z</time>
      </trkpt>
      <trkpt lat="42.0097540" lon="-7.5545780">
        <ele>831.1</ele>
        <time>2019-08-17T11:10:08Z</time>
      </trkpt>
      <trkpt lat="42.0097700" lon="-7.5546740">
        <ele>830.8</ele>
        <time>2019-08-17T11:10:09Z</time>
      </trkpt>
      <trkpt lat="42.0097880" lon="-7.5547710">
        <ele>830.4</ele>
        <time>2019-08-17T11:10:10Z</time>
      </trkpt>
      <trkpt lat="42.0098080" lon="-7.5548700">
        <ele>830.0</ele>
        <time>2019-08-17T11:10:11Z</time>
      </trkpt>
      <trkpt lat="42.0098300" lon="-7.5549710">
        <ele>829.6</ele>
        <time>2019-08-17T11:10:12Z</time>
      </trkpt>
      <trkpt lat="42.0098550" lon="-7.5550740">
        <ele>829.1</ele>
        <time>2019-08-17T11:10:13Z</time>
      </trkpt>
      <trkpt lat="42.0098810" lon="-7.5551790">
        <ele>828.5</ele>
        <time>2019-08-17T11:10:14Z</time>
      </trkpt>
      <trkpt lat="42.0099090" lon="-7.5552850">
        <ele>828.0</ele>
        <time>2019-08-17T11:10:15Z</time>
      </trkpt>
      <trkpt lat="42.0099380" lon="-7.5553940">
        <ele>827.4</ele>
        <time>2019-08-17T11:10:16Z</time>
      </trkpt>
      <trkpt lat="42.0099680" lon="-7.5555040">
        <ele>826.9</ele>
        <time>2019-08-17T11:10:17Z</time>
      </trkpt>
      <trkpt lat="42.0099980" lon="-7.5556170">
        <ele>826.4</ele>
        <time>2019-08-17T11:10:18Z</time>
      </trkpt>
      <trkpt lat="42.0100290" lon="-7.5557310">
        <ele>825.8</ele>
        <time>2019-08-17T11:10:19Z</time>
      </trkpt>
      <trkpt lat="42.0100600" lon="-7.5558470">
        <ele>825.2</ele>
        <time>2019-08-17T11:10:20Z</time>
      </trkpt>
      <trkpt lat="42.0100910" lon="-7.5559660">
        <ele>824.7</ele>
        <time>2019-08-17T11:10:21Z</time>
      </trkpt>
      <trkpt lat="42.0101220" lon="-7.5560850">
        <ele>824.1</ele>
        <time>2019-08-17T11:10:22Z</time>
      </trkpt>
      <trkpt lat="42.0101530" lon="-7.5562060">
        <ele>823.4</ele>
        <time>2019-08-17T11:10:23Z</time>
      </trkpt>
      <trkpt lat="42.0101850" lon="-7.5563290">
        <ele>822.8</ele>
        <time>2019-08-17T11:10:24Z</time>
      </trkpt>
      <trkpt lat="42.0102170" lon="-7.5564520">
        <ele>822.3</ele>
        <time>2019-08-17T11:10:25Z</time>
      </trkpt>
      <trkpt lat="42.0102510" lon="-7.5565770">
        <ele>821.8</ele>
        <time>2019-08-17T11:10:26Z</time>
      </trkpt>
      <trkpt lat="42.0102860" lon="-7.5567020">
        <ele>821.2</ele>
        <time>2019-08-17T11:10:27Z</time>
      </trkpt>
      <trkpt lat="42.0103240" lon="-7.5568290">
        <ele>820.6</ele>
        <time>2019-08-17T11:10:28Z</time>
      </trkpt>
      <trkpt lat="42.0103650" lon="-7.5569570">
        <ele>819.9</ele>
        <time>2019-08-17T11:10:29Z</time>
      </trkpt>
      <trkpt lat="42.0104100" lon="-7.5570830">
        <ele>819.2</ele>
        <time>2019-08-17T11:10:30Z</time>
      </trkpt>
      <trkpt lat="42.0104580" lon="-7.5572090">
        <ele>818.6</ele>
        <time>2019-08-17T11:10:31Z</time>
      </trkpt>
      <trkpt lat="42.0105100" lon="-7.5573320">
        <ele>818.0</ele>
        <time>2019-08-17T11:10:32Z</time>
      </trkpt>
      <trkpt lat="42.0105680" lon="-7.5574530">
        <ele>817.4</ele>
        <time>2019-08-17T11:10:33Z</time>
      </trkpt>
      <trkpt lat="42.0106300" lon="-7.5575690">
        <ele>816.8</ele>
        <time>2019-08-17T11:10:34Z</time>
      </trkpt>
      <trkpt lat="42.0106970" lon="-7.5576820">
        <ele>816.1</ele>
        <time>2019-08-17T11:10:35Z</time>
      </trkpt>
      <trkpt lat="42.0107700" lon="-7.5577890">
        <ele>815.4</ele>
        <time>2019-08-17T11:10:36Z</time>
      </trkpt>
      <trkpt lat="42.0108470" lon="-7.5578910">
        <ele>814.8</ele>
        <time>2019-08-17T11:10:37Z</time>
      </trkpt>
      <trkpt lat="42.0109290" lon="-7.5579890">
        <ele>814.2</ele>
        <time>2019-08-17T11:10:38Z</time>
      </trkpt>
      <trkpt lat="42.0110140" lon="-7.5580810">
        <ele>813.5</ele>
        <time>2019-08-17T11:10:39Z</time>
      </trkpt>
      <trkpt lat="42.0111030" lon="-7.5581690">
        <ele>812.8</ele>
        <time>2019-08-17T11:10:40Z</time>
      </trkpt>
      <trkpt lat="42.0111940" lon="-7.5582510">
        <ele>812.0</ele>
        <time>2019-08-17T11:10:41Z</time>
      </trkpt>
      <trkpt lat="42.0112880" lon="-7.5583280">
        <ele>811.2</ele>
        <time>2019-08-17T11:10:42Z</time>
      </trkpt>
      <trkpt lat="42.0113840" lon="-7.5583990">
        <ele>810.4</ele>
        <time>2019-08-17T11:10:43Z</time>
      </trkpt>
      <trkpt lat="42.0114830" lon="-7.5584670">
        <ele>809.6</ele>
        <time>2019-08-17T11:10:44Z</time>
      </trkpt>
      <trkpt lat="42.0115840" lon="-7.5585320">
        <ele>808.8</ele>
        <time>2019-08-17T11:10:45Z</time>
      </trkpt>
      <trkpt lat="42.0116880" lon="-7.5585970">
        <ele>807.9</ele>
        <time>2019-08-17T11:10:46Z</time>
      </trkpt>
      <trkpt lat="42.0117960" lon="-7.5586620">
        <ele>807.1</ele>
        <time>2019-08-17T11:10:47Z</time>
      </trkpt>
      <trkpt lat="42.0119040" lon="-7.5587280">
        <ele>806.4</ele>
        <time>2019-08-17T11:10:48Z</time>
      </trkpt>
      <trkpt lat="42.0120130" lon="-7.5587930">
        <ele>805.8</ele>
        <time>2019-08-17T11:10:49Z</time>
      </trkpt>
      <trkpt lat="42.0121210" lon="-7.5588560">
        <ele>805.4</ele>
        <time>2019-08-17T11:10:50Z</time>
      </trkpt>
      <trkpt lat="42.0122260" lon="-7.5589170">
        <ele>805.0</ele>
        <time>2019-08-17T11:10:51Z</time>
      </trkpt>
      <trkpt lat="42.0123290" lon="-7.5589760">
        <ele>804.7</ele>
        <time>2019-08-17T11:10:52Z</time>
      </trkpt>
      <trkpt lat="42.0124290" lon="-7.5590340">
        <ele>804.6</ele>
        <time>2019-08-17T11:10:53Z</time>
      </trkpt>
      <trkpt lat="42.0125270" lon="-7.5590890">
        <ele>804.5</ele>
        <time>2019-08-17T11:10:54Z</time>
      </trkpt>
      <trkpt lat="42.0126220" lon="-7.5591420">
        <ele>804.5</ele>
        <time>2019-08-17T11:10:55Z</time>
      </trkpt>
      <trkpt lat="42.0127150" lon="-7.5591940">
        <ele>804.5</ele>
        <time>2019-08-17T11:10:56Z</time>
      </trkpt>
      <trkpt lat="42.0128060" lon="-7.5592440">
        <ele>804.5</ele>
        <time>2019-08-17T11:10:57Z</time>
      </trkpt>
      <trkpt lat="42.0128940" lon="-7.5592930">
        <ele>804.4</ele>
        <time>2019-08-17T11:10:58Z</time>
      </trkpt>
      <trkpt lat="42.0129800" lon="-7.5593410">
        <ele>804.3</ele>
        <time>2019-08-17T11:10:59Z</time>
      </trkpt>
      <trkpt lat="42.0130640" lon="-7.5593880">
        <ele>804.2</ele>
        <time>2019-08-17T11:11:00Z</time>
      </trkpt>
      <trkpt lat="42.0131450" lon="-7.5594340">
        <ele>804.1</ele>
        <time>2019-08-17T11:11:01Z</time>
      </trkpt>
      <trkpt lat="42.0132740" lon="-7.5595100">
        <ele>803.9</ele>
        <time>2019-08-17T11:11:02Z</time>
      </trkpt>
      <trkpt lat="42.0133250" lon="-7.5595390">
        <ele>803.7</ele>
        <time>2019-08-17T11:11:03Z</time>
      </trkpt>
      <trkpt lat="42.0133750" lon="-7.5595690">
        <ele>803.5</ele>
        <time>2019-08-17T11:11:04Z</time>
      </trkpt>
      <trkpt lat="42.0134490" lon="-7.5596130">
        <ele>803.2</ele>
        <time>2019-08-17T11:11:05Z</time>
      </trkpt>
      <trkpt lat="42.0135230" lon="-7.5596570">
        <ele>803.0</ele>
        <time>2019-08-17T11:11:06Z</time>
      </trkpt>
      <trkpt lat="42.0136480" lon="-7.5597300">
        <ele>802.5</ele>
        <time>2019-08-17T11:11:07Z</time>
      </trkpt>
      <trkpt lat="42.0136970" lon="-7.5597600">
        <ele>802.3</ele>
        <time>2019-08-17T11:11:08Z</time>
      </trkpt>
      <trkpt lat="42.0137470" lon="-7.5597900">
        <ele>802.0</ele>
        <time>2019-08-17T11:11:09Z</time>
      </trkpt>
      <trkpt lat="42.0138230" lon="-7.5598360">
        <ele>801.6</ele>
        <time>2019-08-17T11:11:10Z</time>
      </trkpt>
      <trkpt lat="42.0138990" lon="-7.5598830">
        <ele>801.1</ele>
        <time>2019-08-17T11:11:11Z</time>
      </trkpt>
      <trkpt lat="42.0139750" lon="-7.5599320">
        <ele>800.5</ele>
        <time>2019-08-17T11:11:12Z</time>
      </trkpt>
      <trkpt lat="42.0140520" lon="-7.5599840">
        <ele>800.0</ele>
        <time>2019-08-17T11:11:13Z</time>
      </trkpt>
      <trkpt lat="42.0141290" lon="-7.5600370">
        <ele>799.4</ele>
        <time>2019-08-17T11:11:14Z</time>
      </trkpt>
      <trkpt lat="42.0142060" lon="-7.5600940">
        <ele>798.9</ele>
        <time>2019-08-17T11:11:15Z</time>
      </trkpt>
      <trkpt lat="42.0142840" lon="-7.5601530">
        <ele>798.5</ele>
        <time>2019-08-17T11:11:16Z</time>
      </trkpt>
      <trkpt lat="42.0143600" lon="-7.5602140">
        <ele>798.1</ele>
        <time>2019-08-17T11:11:17Z</time>
      </trkpt>
      <trkpt lat="42.0144360" lon="-7.5602790">
        <ele>797.6</ele>
        <time>2019-08-17T11:11:18Z</time>
      </trkpt>
      <trkpt lat="42.0145110" lon="-7.5603480">
        <ele>797.1</ele>
        <time>2019-08-17T11:11:19Z</time>
      </trkpt>
      <trkpt lat="42.0145850" lon="-7.5604190">
        <ele>796.6</ele>
        <time>2019-08-17T11:11:20Z</time>
      </trkpt>
      <trkpt lat="42.0146570" lon="-7.5604950">
        <ele>796.1</ele>
        <time>2019-08-17T11:11:21Z</time>
      </trkpt>
      <trkpt lat="42.0147270" lon="-7.5605740">
        <ele>795.6</ele>
        <time>2019-08-17T11:11:22Z</time>
      </trkpt>
      <trkpt lat="42.0147950" lon="-7.5606570">
        <ele>795.1</ele>
        <time>2019-08-17T11:11:23Z</time>
      </trkpt>
      <trkpt lat="42.0148610" lon="-7.5607440">
        <ele>794.6</ele>
        <time>2019-08-17T11:11:24Z</time>
      </trkpt>
      <trkpt lat="42.0149250" lon="-7.5608340">
        <ele>794.1</ele>
        <time>2019-08-17T11:11:25Z</time>
      </trkpt>
      <trkpt lat="42.0149870" lon="-7.5609270">
        <ele>793.7</ele>
        <time>2019-08-17T11:11:26Z</time>
      </trkpt>
      <trkpt lat="42.0150470" lon="-7.5610230">
        <ele>793.2</ele>
        <time>2019-08-17T11:11:27Z</time>
      </trkpt>
      <trkpt lat="42.0151050" lon="-7.5611230">
        <ele>792.8</ele>
        <time>2019-08-17T11:11:28Z</time>
      </trkpt>
      <trkpt lat="42.0151610" lon="-7.5612250">
        <ele>792.4</ele>
        <time>2019-08-17T11:11:29Z</time>
      </trkpt>
      <trkpt lat="42.0152150" lon="-7.5613310">
        <ele>792.0</ele>
        <time>2019-08-17T11:11:30Z</time>
      </trkpt>
      <trkpt lat="42.0152670" lon="-7.5614380">
        <ele>791.4</ele>
        <time>2019-08-17T11:11:31Z</time>
      </trkpt>
      <trkpt lat="42.0153160" lon="-7.5615490">
        <ele>790.9</ele>
        <time>2019-08-17T11:11:32Z</time>
      </trkpt>
      <trkpt lat="42.0153630" lon="-7.5616620">
        <ele>790.3</ele>
        <time>2019-08-17T11:11:33Z</time>
      </trkpt>
      <trkpt lat="42.0154080" lon="-7.5617780">
        <ele>789.7</ele>
        <time>2019-08-17T11:11:34Z</time>
      </trkpt>
      <trkpt lat="42.0154490" lon="-7.5618960">
        <ele>789.1</ele>
        <time>2019-08-17T11:11:35Z</time>
      </trkpt>
      <trkpt lat="42.0154880" lon="-7.5620160">
        <ele>788.6</ele>
        <time>2019-08-17T11:11:36Z</time>
      </trkpt>
      <trkpt lat="42.0155240" lon="-7.5621380">
        <ele>788.1</ele>
        <time>2019-08-17T11:11:37Z</time>
      </trkpt>
      <trkpt lat="42.0155570" lon="-7.5622630">
        <ele>787.5</ele>
        <time>2019-08-17T11:11:38Z</time>
      </trkpt>
      <trkpt lat="42.0155870" lon="-7.5623890">
        <ele>787.0</ele>
        <time>2019-08-17T11:11:39Z</time>
      </trkpt>
      <trkpt lat="42.0156140" lon="-7.5625180">
        <ele>786.5</ele>
        <time>2019-08-17T11:11:40Z</time>
      </trkpt>
      <trkpt lat="42.0156370" lon="-7.5626480">
        <ele>786.0</ele>
        <time>2019-08-17T11:11:41Z</time>
      </trkpt>
      <trkpt lat="42.0156570" lon="-7.5627810">
        <ele>785.5</ele>
        <time>2019-08-17T11:11:42Z</time>
      </trkpt>
      <trkpt lat="42.0156720" lon="-7.5629150">
        <ele>784.9</ele>
        <time>2019-08-17T11:11:43Z</time>
      </trkpt>
      <trkpt lat="42.0156860" lon="-7.5630500">
        <ele>784.4</ele>
        <time>2019-08-17T11:11:44Z</time>
      </trkpt>
      <trkpt lat="42.0156940" lon="-7.5631870">
        <ele>783.9</ele>
        <time>2019-08-17T11:11:45Z</time>
      </trkpt>
      <trkpt lat="42.0157000" lon="-7.5633250">
        <ele>783.4</ele>
        <time>2019-08-17T11:11:46Z</time>
      </trkpt>
      <trkpt lat="42.0157030" lon="-7.5634640">
        <ele>782.8</ele>
        <time>2019-08-17T11:11:47Z</time>
      </trkpt>
      <trkpt lat="42.0157030" lon="-7.5636020">
        <ele>782.1</ele>
        <time>2019-08-17T11:11:48Z</time>
      </trkpt>
      <trkpt lat="42.0157030" lon="-7.5637390">
        <ele>781.4</ele>
        <time>2019-08-17T11:11:49Z</time>
      </trkpt>
      <trkpt lat="42.0156990" lon="-7.5638770">
        <ele>780.8</ele>
        <time>2019-08-17T11:11:50Z</time>
      </trkpt>
      <trkpt lat="42.0156930" lon="-7.5640140">
        <ele>780.1</ele>
        <time>2019-08-17T11:11:51Z</time>
      </trkpt>
      <trkpt lat="42.0156810" lon="-7.5641520">
        <ele>779.6</ele>
        <time>2019-08-17T11:11:52Z</time>
      </trkpt>
      <trkpt lat="42.0156640" lon="-7.5642920">
        <ele>779.1</ele>
        <time>2019-08-17T11:11:53Z</time>
      </trkpt>
      <trkpt lat="42.0156420" lon="-7.5644320">
        <ele>778.7</ele>
        <time>2019-08-17T11:11:54Z</time>
      </trkpt>
      <trkpt lat="42.0156140" lon="-7.5645730">
        <ele>778.4</ele>
        <time>2019-08-17T11:11:55Z</time>
      </trkpt>
      <trkpt lat="42.0155800" lon="-7.5647150">
        <ele>778.0</ele>
        <time>2019-08-17T11:11:56Z</time>
      </trkpt>
      <trkpt lat="42.0155420" lon="-7.5648570">
        <ele>777.7</ele>
        <time>2019-08-17T11:11:57Z</time>
      </trkpt>
      <trkpt lat="42.0154990" lon="-7.5649980">
        <ele>777.3</ele>
        <time>2019-08-17T11:11:58Z</time>
      </trkpt>
      <trkpt lat="42.0154510" lon="-7.5651400">
        <ele>776.8</ele>
        <time>2019-08-17T11:11:59Z</time>
      </trkpt>
      <trkpt lat="42.0153980" lon="-7.5652810">
        <ele>776.4</ele>
        <time>2019-08-17T11:12:00Z</time>
      </trkpt>
      <trkpt lat="42.0153410" lon="-7.5654210">
        <ele>775.9</ele>
        <time>2019-08-17T11:12:01Z</time>
      </trkpt>
      <trkpt lat="42.0152800" lon="-7.5655590">
        <ele>775.6</ele>
        <time>2019-08-17T11:12:02Z</time>
      </trkpt>
      <trkpt lat="42.0152160" lon="-7.5656940">
        <ele>775.3</ele>
        <time>2019-08-17T11:12:03Z</time>
      </trkpt>
      <trkpt lat="42.0151480" lon="-7.5658250">
        <ele>775.1</ele>
        <time>2019-08-17T11:12:04Z</time>
      </trkpt>
      <trkpt lat="42.0150780" lon="-7.5659500">
        <ele>774.8</ele>
        <time>2019-08-17T11:12:05Z</time>
      </trkpt>
      <trkpt lat="42.0150060" lon="-7.5660700">
        <ele>774.7</ele>
        <time>2019-08-17T11:12:06Z</time>
      </trkpt>
      <trkpt lat="42.0149340" lon="-7.5661860">
        <ele>774.5</ele>
        <time>2019-08-17T11:12:07Z</time>
      </trkpt>
      <trkpt lat="42.0148610" lon="-7.5662990">
        <ele>774.4</ele>
        <time>2019-08-17T11:12:08Z</time>
      </trkpt>
      <trkpt lat="42.0147890" lon="-7.5664100">
        <ele>774.4</ele>
        <time>2019-08-17T11:12:09Z</time>
      </trkpt>
      <trkpt lat="42.0147180" lon="-7.5665180">
        <ele>774.6</ele>
        <time>2019-08-17T11:12:10Z</time>
      </trkpt>
      <trkpt lat="42.0146480" lon="-7.5666240">
        <ele>775.0</ele>
        <time>2019-08-17T11:12:11Z</time>
      </trkpt>
      <trkpt lat="42.0145790" lon="-7.5667290">
        <ele>775.5</ele>
        <time>2019-08-17T11:12:12Z</time>
      </trkpt>
      <trkpt lat="42.0145110" lon="-7.5668310">
        <ele>775.9</ele>
        <time>2019-08-17T11:12:13Z</time>
      </trkpt>
      <trkpt lat="42.0144450" lon="-7.5669320">
        <ele>776.4</ele>
        <time>2019-08-17T11:12:14Z</time>
      </trkpt>
      <trkpt lat="42.0143790" lon="-7.5670300">
        <ele>776.7</ele>
        <time>2019-08-17T11:12:15Z</time>
      </trkpt>
      <trkpt lat="42.0143150" lon="-7.5671270">
        <ele>777.0</ele>
        <time>2019-08-17T11:12:16Z</time>
      </trkpt>
      <trkpt lat="42.0142520" lon="-7.5672230">
        <ele>777.3</ele>
        <time>2019-08-17T11:12:17Z</time>
      </trkpt>
      <trkpt lat="42.0141910" lon="-7.5673170">
        <ele>777.4</ele>
        <time>2019-08-17T11:12:18Z</time>
      </trkpt>
      <trkpt lat="42.0141300" lon="-7.5674090">
        <ele>777.3</ele>
        <time>2019-08-17T11:12:19Z</time>
      </trkpt>
      <trkpt lat="42.0140710" lon="-7.5675000">
        <ele>777.3</ele>
        <time>2019-08-17T11:12:20Z</time>
      </trkpt>
      <trkpt lat="42.0140130" lon="-7.5675910">
        <ele>777.2</ele>
        <time>2019-08-17T11:12:21Z</time>
      </trkpt>
      <trkpt lat="42.0139550" lon="-7.5676800">
        <ele>777.2</ele>
        <time>2019-08-17T11:12:22Z</time>
      </trkpt>
      <trkpt lat="42.0138600" lon="-7.5678260">
        <ele>777.5</ele>
        <time>2019-08-17T11:12:23Z</time>
      </trkpt>
      <trkpt lat="42.0138230" lon="-7.5678850">
        <ele>777.8</ele>
        <time>2019-08-17T11:12:24Z</time>
      </trkpt>
      <trkpt lat="42.0137850" lon="-7.5679430">
        <ele>778.1</ele>
        <time>2019-08-17T11:12:25Z</time>
      </trkpt>
      <trkpt lat="42.0137290" lon="-7.5680290">
        <ele>778.5</ele>
        <time>2019-08-17T11:12:26Z</time>
      </trkpt>
      <trkpt lat="42.0136740" lon="-7.5681150">
        <ele>778.7</ele>
        <time>2019-08-17T11:12:27Z</time>
      </trkpt>
      <trkpt lat="42.0135830" lon="-7.5682560">
        <ele>778.8</ele>
        <time>2019-08-17T11:12:28Z</time>
      </trkpt>
      <trkpt lat="42.0135460" lon="-7.5683110">
        <ele>778.8</ele>
        <time>2019-08-17T11:12:29Z</time>
      </trkpt>
      <trkpt lat="42.0135100" lon="-7.5683670">
        <ele>778.7</ele>
        <time>2019-08-17T11:12:30Z</time>
      </trkpt>
      <trkpt lat="42.0134560" lon="-7.5684500">
        <ele>778.7</ele>
        <time>2019-08-17T11:12:31Z</time>
      </trkpt>
      <trkpt lat="42.0134030" lon="-7.5685320">
        <ele>778.6</ele>
        <time>2019-08-17T11:12:32Z</time>
      </trkpt>
      <trkpt lat="42.0133500" lon="-7.5686130">
        <ele>778.6</ele>
        <time>2019-08-17T11:12:33Z</time>
      </trkpt>
      <trkpt lat="42.0132980" lon="-7.5686940">
        <ele>778.5</ele>
        <time>2019-08-17T11:12:34Z</time>
      </trkpt>
      <trkpt lat="42.0132460" lon="-7.5687730">
        <ele>778.3</ele>
        <time>2019-08-17T11:12:35Z</time>
      </trkpt>
      <trkpt lat="42.0131950" lon="-7.5688520">
        <ele>778.0</ele>
        <time>2019-08-17T11:12:36Z</time>
      </trkpt>
      <trkpt lat="42.0131440" lon="-7.5689300">
        <ele>777.6</ele>
        <time>2019-08-17T11:12:37Z</time>
      </trkpt>
      <trkpt lat="42.0130940" lon="-7.5690070">
        <ele>777.2</ele>
        <time>2019-08-17T11:12:38Z</time>
      </trkpt>
      <trkpt lat="42.0130440" lon="-7.5690830">
        <ele>776.8</ele>
        <time>2019-08-17T11:12:39Z</time>
      </trkpt>
      <trkpt lat="42.0129950" lon="-7.5691580">
        <ele>776.5</ele>
        <time>2019-08-17T11:12:40Z</time>
      </trkpt>
      <trkpt lat="42.0129470" lon="-7.5692330">
        <ele>776.3</ele>
        <time>2019-08-17T11:12:41Z</time>
      </trkpt>
      <trkpt lat="42.0128990" lon="-7.5693060">
        <ele>776.2</ele>
        <time>2019-08-17T11:12:42Z</time>
      </trkpt>
      <trkpt lat="42.0128510" lon="-7.5693790">
        <ele>776.2</ele>
        <time>2019-08-17T11:12:43Z</time>
      </trkpt>
      <trkpt lat="42.0128040" lon="-7.5694520">
        <ele>776.2</ele>
        <time>2019-08-17T11:12:44Z</time>
      </trkpt>
      <trkpt lat="42.0127570" lon="-7.5695230">
        <ele>776.3</ele>
        <time>2019-08-17T11:12:45Z</time>
      </trkpt>
      <trkpt lat="42.0127110" lon="-7.5695940">
        <ele>776.5</ele>
        <time>2019-08-17T11:12:46Z</time>
      </trkpt>
      <trkpt lat="42.0126660" lon="-7.5696650">
        <ele>776.6</ele>
        <time>2019-08-17T11:12:47Z</time>
      </trkpt>
      <trkpt lat="42.0126210" lon="-7.5697350">
        <ele>776.7</ele>
        <time>2019-08-17T11:12:48Z</time>
      </trkpt>
      <trkpt lat="42.0125760" lon="-7.5698050">
        <ele>776.7</ele>
        <time>2019-08-17T11:12:49Z</time>
      </trkpt>
      <trkpt lat="42.0125310" lon="-7.5698750">
        <ele>776.7</ele>
        <time>2019-08-17T11:12:50Z</time>
      </trkpt>
      <trkpt lat="42.0124870" lon="-7.5699440">
        <ele>776.6</ele>
        <time>2019-08-17T11:12:51Z</time>
      </trkpt>
      <trkpt lat="42.0124430" lon="-7.5700140">
        <ele>776.6</ele>
        <time>2019-08-17T11:12:52Z</time>
      </trkpt>
      <trkpt lat="42.0123980" lon="-7.5700840">
        <ele>776.4</ele>
        <time>2019-08-17T11:12:53Z</time>
      </trkpt>
      <trkpt lat="42.0123540" lon="-7.5701530">
        <ele>776.3</ele>
        <time>2019-08-17T11:12:54Z</time>
      </trkpt>
      <trkpt lat="42.0123090" lon="-7.5702230">
        <ele>776.1</ele>
        <time>2019-08-17T11:12:55Z</time>
      </trkpt>
      <trkpt lat="42.0122630" lon="-7.5702940">
        <ele>775.8</ele>
        <time>2019-08-17T11:12:56Z</time>
      </trkpt>
      <trkpt lat="42.0122170" lon="-7.5703660">
        <ele>775.5</ele>
        <time>2019-08-17T11:12:57Z</time>
      </trkpt>
      <trkpt lat="42.0121710" lon="-7.5704390">
        <ele>775.0</ele>
        <time>2019-08-17T11:12:58Z</time>
      </trkpt>
      <trkpt lat="42.0121240" lon="-7.5705140">
        <ele>774.6</ele>
        <time>2019-08-17T11:12:59Z</time>
      </trkpt>
      <trkpt lat="42.0120780" lon="-7.5705930">
        <ele>773.9</ele>
        <time>2019-08-17T11:13:00Z</time>
      </trkpt>
      <trkpt lat="42.0120310" lon="-7.5706740">
        <ele>773.3</ele>
        <time>2019-08-17T11:13:01Z</time>
      </trkpt>
      <trkpt lat="42.0119840" lon="-7.5707600">
        <ele>772.4</ele>
        <time>2019-08-17T11:13:02Z</time>
      </trkpt>
      <trkpt lat="42.0119370" lon="-7.5708500">
        <ele>771.5</ele>
        <time>2019-08-17T11:13:03Z</time>
      </trkpt>
      <trkpt lat="42.0118900" lon="-7.5709450">
        <ele>770.6</ele>
        <time>2019-08-17T11:13:04Z</time>
      </trkpt>
      <trkpt lat="42.0118430" lon="-7.5710450">
        <ele>769.5</ele>
        <time>2019-08-17T11:13:05Z</time>
      </trkpt>
      <trkpt lat="42.0117980" lon="-7.5711510">
        <ele>768.4</ele>
        <time>2019-08-17T11:13:06Z</time>
      </trkpt>
      <trkpt lat="42.0117530" lon="-7.5712610">
        <ele>767.3</ele>
        <time>2019-08-17T11:13:07Z</time>
      </trkpt>
      <trkpt lat="42.0117110" lon="-7.5713770">
        <ele>766.2</ele>
        <time>2019-08-17T11:13:08Z</time>
      </trkpt>
      <trkpt lat="42.0116700" lon="-7.5714970">
        <ele>764.8</ele>
        <time>2019-08-17T11:13:09Z</time>
      </trkpt>
      <trkpt lat="42.0116320" lon="-7.5716220">
        <ele>763.0</ele>
        <time>2019-08-17T11:13:10Z</time>
      </trkpt>
      <trkpt lat="42.0115980" lon="-7.5717520">
        <ele>760.8</ele>
        <time>2019-08-17T11:13:11Z</time>
      </trkpt>
      <trkpt lat="42.0115670" lon="-7.5718870">
        <ele>758.6</ele>
        <time>2019-08-17T11:13:12Z</time>
      </trkpt>
      <trkpt lat="42.0115390" lon="-7.5720250">
        <ele>756.6</ele>
        <time>2019-08-17T11:13:13Z</time>
      </trkpt>
      <trkpt lat="42.0115160" lon="-7.5721670">
        <ele>755.3</ele>
        <time>2019-08-17T11:13:14Z</time>
      </trkpt>
      <trkpt lat="42.0114970" lon="-7.5723130">
        <ele>754.2</ele>
        <time>2019-08-17T11:13:15Z</time>
      </trkpt>
      <trkpt lat="42.0114820" lon="-7.5724600">
        <ele>753.0</ele>
        <time>2019-08-17T11:13:16Z</time>
      </trkpt>
      <trkpt lat="42.0114700" lon="-7.5726090">
        <ele>751.4</ele>
        <time>2019-08-17T11:13:17Z</time>
      </trkpt>
      <trkpt lat="42.0114620" lon="-7.5727600">
        <ele>749.7</ele>
        <time>2019-08-17T11:13:18Z</time>
      </trkpt>
      <trkpt lat="42.0114570" lon="-7.5729110">
        <ele>748.3</ele>
        <time>2019-08-17T11:13:19Z</time>
      </trkpt>
      <trkpt lat="42.0114540" lon="-7.5730640">
        <ele>747.1</ele>
        <time>2019-08-17T11:13:20Z</time>
      </trkpt>
      <trkpt lat="42.0114530" lon="-7.5732180">
        <ele>746.1</ele>
        <time>2019-08-17T11:13:21Z</time>
      </trkpt>
      <trkpt lat="42.0114510" lon="-7.5733730">
        <ele>745.2</ele>
        <time>2019-08-17T11:13:22Z</time>
      </trkpt>
      <trkpt lat="42.0114500" lon="-7.5735310">
        <ele>744.2</ele>
        <time>2019-08-17T11:13:23Z</time>
      </trkpt>
      <trkpt lat="42.0114480" lon="-7.5736890">
        <ele>743.0</ele>
        <time>2019-08-17T11:13:24Z</time>
      </trkpt>
      <trkpt lat="42.0114460" lon="-7.5738460">
        <ele>741.7</ele>
        <time>2019-08-17T11:13:25Z</time>
      </trkpt>
      <trkpt lat="42.0114460" lon="-7.5740010">
        <ele>740.6</ele>
        <time>2019-08-17T11:13:26Z</time>
      </trkpt>
      <trkpt lat="42.0114460" lon="-7.5741530">
        <ele>739.8</ele>
        <time>2019-08-17T11:13:27Z</time>
      </trkpt>
      <trkpt lat="42.0114460" lon="-7.5743020">
        <ele>738.7</ele>
        <time>2019-08-17T11:13:28Z</time>
      </trkpt>
      <trkpt lat="42.0114480" lon="-7.5744470">
        <ele>737.6</ele>
        <time>2019-08-17T11:13:29Z</time>
      </trkpt>
      <trkpt lat="42.0114500" lon="-7.5745900">
        <ele>736.7</ele>
        <time>2019-08-17T11:13:30Z</time>
      </trkpt>
      <trkpt lat="42.0114520" lon="-7.5747290">
        <ele>736.3</ele>
        <time>2019-08-17T11:13:31Z</time>
      </trkpt>
      <trkpt lat="42.0114550" lon="-7.5748670">
        <ele>735.9</ele>
        <time>2019-08-17T11:13:32Z</time>
      </trkpt>
      <trkpt lat="42.0114580" lon="-7.5750020">
        <ele>735.6</ele>
        <time>2019-08-17T11:13:33Z</time>
      </trkpt>
      <trkpt lat="42.0114610" lon="-7.5751340">
        <ele>735.2</ele>
        <time>2019-08-17T11:13:34Z</time>
      </trkpt>
      <trkpt lat="42.0114640" lon="-7.5752650">
        <ele>734.8</ele>
        <time>2019-08-17T11:13:35Z</time>
      </trkpt>
      <trkpt lat="42.0114670" lon="-7.5753940">
        <ele>734.3</ele>
        <time>2019-08-17T11:13:36Z</time>
      </trkpt>
      <trkpt lat="42.0114700" lon="-7.5755220">
        <ele>733.9</ele>
        <time>2019-08-17T11:13:37Z</time>
      </trkpt>
      <trkpt lat="42.0114720" lon="-7.5756480">
        <ele>733.6</ele>
        <time>2019-08-17T11:13:38Z</time>
      </trkpt>
      <trkpt lat="42.0114740" lon="-7.5757730">
        <ele>733.3</ele>
        <time>2019-08-17T11:13:39Z</time>
      </trkpt>
      <trkpt lat="42.0114750" lon="-7.5758970">
        <ele>732.9</ele>
        <time>2019-08-17T11:13:40Z</time>
      </trkpt>
      <trkpt lat="42.0114760" lon="-7.5760210">
        <ele>732.6</ele>
        <time>2019-08-17T11:13:41Z</time>
      </trkpt>
      <trkpt lat="42.0114750" lon="-7.5761430">
        <ele>732.3</ele>
        <time>2019-08-17T11:13:42Z</time>
      </trkpt>
      <trkpt lat="42.0114740" lon="-7.5762650">
        <ele>732.0</ele>
        <time>2019-08-17T11:13:43Z</time>
      </trkpt>
      <trkpt lat="42.0114730" lon="-7.5763870">
        <ele>731.7</ele>
        <time>2019-08-17T11:13:44Z</time>
      </trkpt>
      <trkpt lat="42.0114720" lon="-7.5765070">
        <ele>731.4</ele>
        <time>2019-08-17T11:13:45Z</time>
      </trkpt>
      <trkpt lat="42.0114710" lon="-7.5766270">
        <ele>731.2</ele>
        <time>2019-08-17T11:13:46Z</time>
      </trkpt>
      <trkpt lat="42.0114710" lon="-7.5767460">
        <ele>731.0</ele>
        <time>2019-08-17T11:13:47Z</time>
      </trkpt>
      <trkpt lat="42.0114720" lon="-7.5768640">
        <ele>730.7</ele>
        <time>2019-08-17T11:13:48Z</time>
      </trkpt>
      <trkpt lat="42.0114740" lon="-7.5769810">
        <ele>730.5</ele>
        <time>2019-08-17T11:13:49Z</time>
      </trkpt>
      <trkpt lat="42.0114780" lon="-7.5770970">
        <ele>730.0</ele>
        <time>2019-08-17T11:13:50Z</time>
      </trkpt>
      <trkpt lat="42.0114830" lon="-7.5772120">
        <ele>729.6</ele>
        <time>2019-08-17T11:13:51Z</time>
      </trkpt>
      <trkpt lat="42.0114910" lon="-7.5773250">
        <ele>729.3</ele>
        <time>2019-08-17T11:13:52Z</time>
      </trkpt>
      <trkpt lat="42.0115020" lon="-7.5774370">
        <ele>729.0</ele>
        <time>2019-08-17T11:13:53Z</time>
      </trkpt>
      <trkpt lat="42.0115150" lon="-7.5775480">
        <ele>728.6</ele>
        <time>2019-08-17T11:13:54Z</time>
      </trkpt>
      <trkpt lat="42.0115320" lon="-7.5776570">
        <ele>728.1</ele>
        <time>2019-08-17T11:13:55Z</time>
      </trkpt>
      <trkpt lat="42.0115520" lon="-7.5777650">
        <ele>727.9</ele>
        <time>2019-08-17T11:13:56Z</time>
      </trkpt>
      <trkpt lat="42.0115750" lon="-7.5778720">
        <ele>727.7</ele>
        <time>2019-08-17T11:13:57Z</time>
      </trkpt>
      <trkpt lat="42.0116030" lon="-7.5779760">
        <ele>727.5</ele>
        <time>2019-08-17T11:13:58Z</time>
      </trkpt>
      <trkpt lat="42.0116350" lon="-7.5780790">
        <ele>727.3</ele>
        <time>2019-08-17T11:13:59Z</time>
      </trkpt>
      <trkpt lat="42.0116710" lon="-7.5781800">
        <ele>727.0</ele>
        <time>2019-08-17T11:14:00Z</time>
      </trkpt>
      <trkpt lat="42.0117100" lon="-7.5782800">
        <ele>726.6</ele>
        <time>2019-08-17T11:14:01Z</time>
      </trkpt>
      <trkpt lat="42.0117540" lon="-7.5783770">
        <ele>725.9</ele>
        <time>2019-08-17T11:14:02Z</time>
      </trkpt>
      <trkpt lat="42.0118000" lon="-7.5784730">
        <ele>725.3</ele>
        <time>2019-08-17T11:14:03Z</time>
      </trkpt>
      <trkpt lat="42.0118510" lon="-7.5785670">
        <ele>724.6</ele>
        <time>2019-08-17T11:14:04Z</time>
      </trkpt>
      <trkpt lat="42.0119050" lon="-7.5786580">
        <ele>723.7</ele>
        <time>2019-08-17T11:14:05Z</time>
      </trkpt>
      <trkpt lat="42.0119620" lon="-7.5787480">
        <ele>722.9</ele>
        <time>2019-08-17T11:14:06Z</time>
      </trkpt>
      <trkpt lat="42.0120230" lon="-7.5788350">
        <ele>722.3</ele>
        <time>2019-08-17T11:14:07Z</time>
      </trkpt>
      <trkpt lat="42.0120860" lon="-7.5789200">
        <ele>721.5</ele>
        <time>2019-08-17T11:14:08Z</time>
      </trkpt>
      <trkpt lat="42.0121530" lon="-7.5790020">
        <ele>720.8</ele>
        <time>2019-08-17T11:14:09Z</time>
      </trkpt>
      <trkpt lat="42.0122240" lon="-7.5790810">
        <ele>720.2</ele>
        <time>2019-08-17T11:14:10Z</time>
      </trkpt>
      <trkpt lat="42.0122950" lon="-7.5791600">
        <ele>719.5</ele>
        <time>2019-08-17T11:14:11Z</time>
      </trkpt>
      <trkpt lat="42.0123700" lon="-7.5792350">
        <ele>718.9</ele>
        <time>2019-08-17T11:14:12Z</time>
      </trkpt>
      <trkpt lat="42.0124480" lon="-7.5793080">
        <ele>718.4</ele>
        <time>2019-08-17T11:14:13Z</time>
      </trkpt>
      <trkpt lat="42.0125280" lon="-7.5793800">
        <ele>717.9</ele>
        <time>2019-08-17T11:14:14Z</time>
      </trkpt>
      <trkpt lat="42.0126090" lon="-7.5794510">
        <ele>717.4</ele>
        <time>2019-08-17T11:14:15Z</time>
      </trkpt>
      <trkpt lat="42.0126900" lon="-7.5795240">
        <ele>717.0</ele>
        <time>2019-08-17T11:14:16Z</time>
      </trkpt>
      <trkpt lat="42.0127710" lon="-7.5795990">
        <ele>716.4</ele>
        <time>2019-08-17T11:14:17Z</time>
      </trkpt>
      <trkpt lat="42.0128510" lon="-7.5796780">
        <ele>715.8</ele>
        <time>2019-08-17T11:14:18Z</time>
      </trkpt>
      <trkpt lat="42.0129280" lon="-7.5797610">
        <ele>715.3</ele>
        <time>2019-08-17T11:14:19Z</time>
      </trkpt>
      <trkpt lat="42.0130030" lon="-7.5798510">
        <ele>714.5</ele>
        <time>2019-08-17T11:14:20Z</time>
      </trkpt>
      <trkpt lat="42.0130750" lon="-7.5799480">
        <ele>713.8</ele>
        <time>2019-08-17T11:14:21Z</time>
      </trkpt>
      <trkpt lat="42.0131420" lon="-7.5800510">
        <ele>713.0</ele>
        <time>2019-08-17T11:14:22Z</time>
      </trkpt>
      <trkpt lat="42.0132060" lon="-7.5801610">
        <ele>712.2</ele>
        <time>2019-08-17T11:14:23Z</time>
      </trkpt>
      <trkpt lat="42.0132640" lon="-7.5802760">
        <ele>711.4</ele>
        <time>2019-08-17T11:14:24Z</time>
      </trkpt>
      <trkpt lat="42.0133180" lon="-7.5803950">
        <ele>710.8</ele>
        <time>2019-08-17T11:14:25Z</time>
      </trkpt>
      <trkpt lat="42.0133900" lon="-7.5806060">
        <ele>709.6</ele>
        <time>2019-08-17T11:14:26Z</time>
      </trkpt>
      <trkpt lat="42.0134140" lon="-7.5806920">
        <ele>709.2</ele>
        <time>2019-08-17T11:14:27Z</time>
      </trkpt>
      <trkpt lat="42.0134390" lon="-7.5807780">
        <ele>708.8</ele>
        <time>2019-08-17T11:14:28Z</time>
      </trkpt>
      <trkpt lat="42.0134710" lon="-7.5809100">
        <ele>708.3</ele>
        <time>2019-08-17T11:14:29Z</time>
      </trkpt>
      <trkpt lat="42.0134940" lon="-7.5810450">
        <ele>707.9</ele>
        <time>2019-08-17T11:14:30Z</time>
      </trkpt>
      <trkpt lat="42.0135150" lon="-7.5812720">
        <ele>707.0</ele>
        <time>2019-08-17T11:14:31Z</time>
      </trkpt>
      <trkpt lat="42.0135190" lon="-7.5813630">
        <ele>706.7</ele>
        <time>2019-08-17T11:14:32Z</time>
      </trkpt>
      <trkpt lat="42.0135240" lon="-7.5814540">
        <ele>706.5</ele>
        <time>2019-08-17T11:14:33Z</time>
      </trkpt>
      <trkpt lat="42.0135260" lon="-7.5815910">
        <ele>706.1</ele>
        <time>2019-08-17T11:14:34Z</time>
      </trkpt>
      <trkpt lat="42.0135220" lon="-7.5817270">
        <ele>705.6</ele>
        <time>2019-08-17T11:14:35Z</time>
      </trkpt>
      <trkpt lat="42.0135130" lon="-7.5818620">
        <ele>705.1</ele>
        <time>2019-08-17T11:14:36Z</time>
      </trkpt>
      <trkpt lat="42.0135000" lon="-7.5819960">
        <ele>704.5</ele>
        <time>2019-08-17T11:14:37Z</time>
      </trkpt>
      <trkpt lat="42.0134840" lon="-7.5821280">
        <ele>704.0</ele>
        <time>2019-08-17T11:14:38Z</time>
      </trkpt>
      <trkpt lat="42.0134680" lon="-7.5822590">
        <ele>703.6</ele>
        <time>2019-08-17T11:14:39Z</time>
      </trkpt>
      <trkpt lat="42.0134510" lon="-7.5823900">
        <ele>703.0</ele>
        <time>2019-08-17T11:14:40Z</time>
      </trkpt>
      <trkpt lat="42.0134350" lon="-7.5825210">
        <ele>702.4</ele>
        <time>2019-08-17T11:14:41Z</time>
      </trkpt>
      <trkpt lat="42.0134190" lon="-7.5826520">
        <ele>701.9</ele>
        <time>2019-08-17T11:14:42Z</time>
      </trkpt>
      <trkpt lat="42.0134030" lon="-7.5827820">
        <ele>701.3</ele>
        <time>2019-08-17T11:14:43Z</time>
      </trkpt>
      <trkpt lat="42.0133870" lon="-7.5829120">
        <ele>700.7</ele>
        <time>2019-08-17T11:14:44Z</time>
      </trkpt>
      <trkpt lat="42.0133700" lon="-7.5830410">
        <ele>700.2</ele>
        <time>2019-08-17T11:14:45Z</time>
      </trkpt>
      <trkpt lat="42.0133540" lon="-7.5831690">
        <ele>699.8</ele>
        <time>2019-08-17T11:14:46Z</time>
      </trkpt>
      <trkpt lat="42.0133370" lon="-7.5832960">
        <ele>699.4</ele>
        <time>2019-08-17T11:14:47Z</time>
      </trkpt>
      <trkpt lat="42.0133200" lon="-7.5834230">
        <ele>699.1</ele>
        <time>2019-08-17T11:14:48Z</time>
      </trkpt>
      <trkpt lat="42.0133030" lon="-7.5835490">
        <ele>698.8</ele>
        <time>2019-08-17T11:14:49Z</time>
      </trkpt>
      <trkpt lat="42.0132860" lon="-7.5836750">
        <ele>698.5</ele>
        <time>2019-08-17T11:14:50Z</time>
      </trkpt>
      <trkpt lat="42.0132700" lon="-7.5837990">
        <ele>698.2</ele>
        <time>2019-08-17T11:14:51Z</time>
      </trkpt>
      <trkpt lat="42.0132540" lon="-7.5839240">
        <ele>697.8</ele>
        <time>2019-08-17T11:14:52Z</time>
      </trkpt>
      <trkpt lat="42.0132380" lon="-7.5840470">
        <ele>697.5</ele>
        <time>2019-08-17T11:14:53Z</time>
      </trkpt>
      <trkpt lat="42.0132220" lon="-7.5841700">
        <ele>697.2</ele>
        <time>2019-08-17T11:14:54Z</time>
      </trkpt>
      <trkpt lat="42.0132060" lon="-7.5842920">
        <ele>696.8</ele>
        <time>2019-08-17T11:14:55Z</time>
      </trkpt>
      <trkpt lat="42.0131780" lon="-7.5844940">
        <ele>696.0</ele>
        <time>2019-08-17T11:14:56Z</time>
      </trkpt>
      <trkpt lat="42.0131660" lon="-7.5845740">
        <ele>695.6</ele>
        <time>2019-08-17T11:14:57Z</time>
      </trkpt>
      <trkpt lat="42.0131550" lon="-7.5846550">
        <ele>695.1</ele>
        <time>2019-08-17T11:14:58Z</time>
      </trkpt>
      <trkpt lat="42.0131370" lon="-7.5847760">
        <ele>694.6</ele>
        <time>2019-08-17T11:14:59Z</time>
      </trkpt>
      <trkpt lat="42.0131200" lon="-7.5848980">
        <ele>694.1</ele>
        <time>2019-08-17T11:15:00Z</time>
      </trkpt>
      <trkpt lat="42.0130920" lon="-7.5851050">
        <ele>693.3</ele>
        <time>2019-08-17T11:15:01Z</time>
      </trkpt>
      <trkpt lat="42.0130810" lon="-7.5851880">
        <ele>692.9</ele>
        <time>2019-08-17T11:15:02Z</time>
      </trkpt>
      <trkpt lat="42.0130700" lon="-7.5852720">
        <ele>692.3</ele>
        <time>2019-08-17T11:15:03Z</time>
      </trkpt>
      <trkpt lat="42.0130550" lon="-7.5854010">
        <ele>691.6</ele>
        <time>2019-08-17T11:15:04Z</time>
      </trkpt>
      <trkpt lat="42.0130400" lon="-7.5855310">
        <ele>691.0</ele>
        <time>2019-08-17T11:15:05Z</time>
      </trkpt>
      <trkpt lat="42.0130270" lon="-7.5856650">
        <ele>690.4</ele>
        <time>2019-08-17T11:15:06Z</time>
      </trkpt>
      <trkpt lat="42.0130150" lon="-7.5858020">
        <ele>689.8</ele>
        <time>2019-08-17T11:15:07Z</time>
      </trkpt>
      <trkpt lat="42.0130050" lon="-7.5859420">
        <ele>688.9</ele>
        <time>2019-08-17T11:15:08Z</time>
      </trkpt>
      <trkpt lat="42.0129960" lon="-7.5860860">
        <ele>688.0</ele>
        <time>2019-08-17T11:15:09Z</time>
      </trkpt>
      <trkpt lat="42.0129890" lon="-7.5862330">
        <ele>687.2</ele>
        <time>2019-08-17T11:15:10Z</time>
      </trkpt>
      <trkpt lat="42.0129850" lon="-7.5863830">
        <ele>686.3</ele>
        <time>2019-08-17T11:15:11Z</time>
      </trkpt>
      <trkpt lat="42.0129830" lon="-7.5865350">
        <ele>685.4</ele>
        <time>2019-08-17T11:15:12Z</time>
      </trkpt>
      <trkpt lat="42.0129840" lon="-7.5866900">
        <ele>684.6</ele>
        <time>2019-08-17T11:15:13Z</time>
      </trkpt>
      <trkpt lat="42.0129890" lon="-7.5868480">
        <ele>683.9</ele>
        <time>2019-08-17T11:15:14Z</time>
      </trkpt>
      <trkpt lat="42.0129970" lon="-7.5870070">
        <ele>683.1</ele>
        <time>2019-08-17T11:15:15Z</time>
      </trkpt>
      <trkpt lat="42.0130080" lon="-7.5871690">
        <ele>682.1</ele>
        <time>2019-08-17T11:15:16Z</time>
      </trkpt>
      <trkpt lat="42.0130220" lon="-7.5873310">
        <ele>681.0</ele>
        <time>2019-08-17T11:15:17Z</time>
      </trkpt>
      <trkpt lat="42.0130390" lon="-7.5874940">
        <ele>680.1</ele>
        <time>2019-08-17T11:15:18Z</time>
      </trkpt>
      <trkpt lat="42.0130580" lon="-7.5876570">
        <ele>679.1</ele>
        <time>2019-08-17T11:15:19Z</time>
      </trkpt>
      <trkpt lat="42.0130800" lon="-7.5878180">
        <ele>678.0</ele>
        <time>2019-08-17T11:15:20Z</time>
      </trkpt>
      <trkpt lat="42.0131040" lon="-7.5879790">
        <ele>677.1</ele>
        <time>2019-08-17T11:15:21Z</time>
      </trkpt>
      <trkpt lat="42.0131300" lon="-7.5881370">
        <ele>676.1</ele>
        <time>2019-08-17T11:15:22Z</time>
      </trkpt>
      <trkpt lat="42.0131580" lon="-7.5882930">
        <ele>675.1</ele>
        <time>2019-08-17T11:15:23Z</time>
      </trkpt>
      <trkpt lat="42.0131870" lon="-7.5884460">
        <ele>674.2</ele>
        <time>2019-08-17T11:15:24Z</time>
      </trkpt>
      <trkpt lat="42.0132170" lon="-7.5885980">
        <ele>673.4</ele>
        <time>2019-08-17T11:15:25Z</time>
      </trkpt>
      <trkpt lat="42.0132480" lon="-7.5887490">
        <ele>672.6</ele>
        <time>2019-08-17T11:15:26Z</time>
      </trkpt>
      <trkpt lat="42.0132800" lon="-7.5889000">
        <ele>671.3</ele>
        <time>2019-08-17T11:15:27Z</time>
      </trkpt>
      <trkpt lat="42.0133130" lon="-7.5890510">
        <ele>670.3</ele>
        <time>2019-08-17T11:15:28Z</time>
      </trkpt>
      <trkpt lat="42.0133450" lon="-7.5892030">
        <ele>669.4</ele>
        <time>2019-08-17T11:15:29Z</time>
      </trkpt>
      <trkpt lat="42.0133780" lon="-7.5893570">
        <ele>668.4</ele>
        <time>2019-08-17T11:15:30Z</time>
      </trkpt>
      <trkpt lat="42.0134100" lon="-7.5895120">
        <ele>667.4</ele>
        <time>2019-08-17T11:15:31Z</time>
      </trkpt>
      <trkpt lat="42.0134420" lon="-7.5896680">
        <ele>666.6</ele>
        <time>2019-08-17T11:15:32Z</time>
      </trkpt>
      <trkpt lat="42.0134740" lon="-7.5898260">
        <ele>665.7</ele>
        <time>2019-08-17T11:15:33Z</time>
      </trkpt>
      <trkpt lat="42.0135060" lon="-7.5899840">
        <ele>664.7</ele>
        <time>2019-08-17T11:15:34Z</time>
      </trkpt>
      <trkpt lat="42.0135370" lon="-7.5901420">
        <ele>663.9</ele>
        <time>2019-08-17T11:15:35Z</time>
      </trkpt>
      <trkpt lat="42.0135690" lon="-7.5902990">
        <ele>663.1</ele>
        <time>2019-08-17T11:15:36Z</time>
      </trkpt>
      <trkpt lat="42.0136010" lon="-7.5904550">
        <ele>662.4</ele>
        <time>2019-08-17T11:15:37Z</time>
      </trkpt>
      <trkpt lat="42.0136340" lon="-7.5906090">
        <ele>661.9</ele>
        <time>2019-08-17T11:15:38Z</time>
      </trkpt>
      <trkpt lat="42.0136660" lon="-7.5907600">
        <ele>661.3</ele>
        <time>2019-08-17T11:15:39Z</time>
      </trkpt>
      <trkpt lat="42.0136990" lon="-7.5909090">
        <ele>660.8</ele>
        <time>2019-08-17T11:15:40Z</time>
      </trkpt>
      <trkpt lat="42.0137310" lon="-7.5910550">
        <ele>660.5</ele>
        <time>2019-08-17T11:15:41Z</time>
      </trkpt>
      <trkpt lat="42.0137630" lon="-7.5911980">
        <ele>660.2</ele>
        <time>2019-08-17T11:15:42Z</time>
      </trkpt>
      <trkpt lat="42.0137930" lon="-7.5913380">
        <ele>659.9</ele>
        <time>2019-08-17T11:15:43Z</time>
      </trkpt>
      <trkpt lat="42.0138210" lon="-7.5914740">
        <ele>659.5</ele>
        <time>2019-08-17T11:15:44Z</time>
      </trkpt>
      <trkpt lat="42.0138470" lon="-7.5916060">
        <ele>659.2</ele>
        <time>2019-08-17T11:15:45Z</time>
      </trkpt>
      <trkpt lat="42.0138710" lon="-7.5917340">
        <ele>658.9</ele>
        <time>2019-08-17T11:15:46Z</time>
      </trkpt>
      <trkpt lat="42.0138920" lon="-7.5918580">
        <ele>658.6</ele>
        <time>2019-08-17T11:15:47Z</time>
      </trkpt>
      <trkpt lat="42.0139110" lon="-7.5919790">
        <ele>658.2</ele>
        <time>2019-08-17T11:15:48Z</time>
      </trkpt>
      <trkpt lat="42.0139300" lon="-7.5920970">
        <ele>658.0</ele>
        <time>2019-08-17T11:15:49Z</time>
      </trkpt>
      <trkpt lat="42.0139480" lon="-7.5922110">
        <ele>657.8</ele>
        <time>2019-08-17T11:15:50Z</time>
      </trkpt>
      <trkpt lat="42.0139650" lon="-7.5923240">
        <ele>657.6</ele>
        <time>2019-08-17T11:15:51Z</time>
      </trkpt>
      <trkpt lat="42.0139830" lon="-7.5924340">
        <ele>657.4</ele>
        <time>2019-08-17T11:15:52Z</time>
      </trkpt>
      <trkpt lat="42.0140010" lon="-7.5925420">
        <ele>657.3</ele>
        <time>2019-08-17T11:15:53Z</time>
      </trkpt>
      <trkpt lat="42.0140210" lon="-7.5926480">
        <ele>657.2</ele>
        <time>2019-08-17T11:15:54Z</time>
      </trkpt>
      <trkpt lat="42.0140420" lon="-7.5927530">
        <ele>657.0</ele>
        <time>2019-08-17T11:15:55Z</time>
      </trkpt>
      <trkpt lat="42.0140620" lon="-7.5928570">
        <ele>656.9</ele>
        <time>2019-08-17T11:15:56Z</time>
      </trkpt>
      <trkpt lat="42.0140830" lon="-7.5929600">
        <ele>656.7</ele>
        <time>2019-08-17T11:15:57Z</time>
      </trkpt>
      <trkpt lat="42.0141020" lon="-7.5930610">
        <ele>656.6</ele>
        <time>2019-08-17T11:15:58Z</time>
      </trkpt>
      <trkpt lat="42.0141200" lon="-7.5931620">
        <ele>656.5</ele>
        <time>2019-08-17T11:15:59Z</time>
      </trkpt>
      <trkpt lat="42.0141360" lon="-7.5932620">
        <ele>656.3</ele>
        <time>2019-08-17T11:16:00Z</time>
      </trkpt>
      <trkpt lat="42.0141500" lon="-7.5933610">
        <ele>656.2</ele>
        <time>2019-08-17T11:16:01Z</time>
      </trkpt>
      <trkpt lat="42.0141610" lon="-7.5934600">
        <ele>656.1</ele>
        <time>2019-08-17T11:16:02Z</time>
      </trkpt>
      <trkpt lat="42.0141710" lon="-7.5935580">
        <ele>656.0</ele>
        <time>2019-08-17T11:16:03Z</time>
      </trkpt>
      <trkpt lat="42.0141800" lon="-7.5936550">
        <ele>655.9</ele>
        <time>2019-08-17T11:16:04Z</time>
      </trkpt>
      <trkpt lat="42.0141900" lon="-7.5937510">
        <ele>655.8</ele>
        <time>2019-08-17T11:16:05Z</time>
      </trkpt>
      <trkpt lat="42.0142020" lon="-7.5938450">
        <ele>655.7</ele>
        <time>2019-08-17T11:16:06Z</time>
      </trkpt>
      <trkpt lat="42.0142160" lon="-7.5939380">
        <ele>655.5</ele>
        <time>2019-08-17T11:16:07Z</time>
      </trkpt>
      <trkpt lat="42.0142310" lon="-7.5940300">
        <ele>655.4</ele>
        <time>2019-08-17T11:16:08Z</time>
      </trkpt>
      <trkpt lat="42.0142460" lon="-7.5941210">
        <ele>655.2</ele>
        <time>2019-08-17T11:16:09Z</time>
      </trkpt>
      <trkpt lat="42.0142620" lon="-7.5942120">
        <ele>655.1</ele>
        <time>2019-08-17T11:16:10Z</time>
      </trkpt>
      <trkpt lat="42.0142780" lon="-7.5943030">
        <ele>654.9</ele>
        <time>2019-08-17T11:16:11Z</time>
      </trkpt>
      <trkpt lat="42.0142950" lon="-7.5943940">
        <ele>654.7</ele>
        <time>2019-08-17T11:16:12Z</time>
      </trkpt>
      <trkpt lat="42.0143120" lon="-7.5944850">
        <ele>654.6</ele>
        <time>2019-08-17T11:16:13Z</time>
      </trkpt>
      <trkpt lat="42.0143300" lon="-7.5945750">
        <ele>654.5</ele>
        <time>2019-08-17T11:16:14Z</time>
      </trkpt>
      <trkpt lat="42.0143490" lon="-7.5946660">
        <ele>654.4</ele>
        <time>2019-08-17T11:16:15Z</time>
      </trkpt>
      <trkpt lat="42.0143690" lon="-7.5947570">
        <ele>654.3</ele>
        <time>2019-08-17T11:16:16Z</time>
      </trkpt>
      <trkpt lat="42.0143900" lon="-7.5948470">
        <ele>654.2</ele>
        <time>2019-08-17T11:16:17Z</time>
      </trkpt>
      <trkpt lat="42.0144120" lon="-7.5949380">
        <ele>654.0</ele>
        <time>2019-08-17T11:16:18Z</time>
      </trkpt>
      <trkpt lat="42.0144350" lon="-7.5950300">
        <ele>653.9</ele>
        <time>2019-08-17T11:16:19Z</time>
      </trkpt>
      <trkpt lat="42.0144580" lon="-7.5951220">
        <ele>653.8</ele>
        <time>2019-08-17T11:16:20Z</time>
      </trkpt>
      <trkpt lat="42.0144810" lon="-7.5952150">
        <ele>653.7</ele>
        <time>2019-08-17T11:16:21Z</time>
      </trkpt>
      <trkpt lat="42.0145050" lon="-7.5953090">
        <ele>653.5</ele>
        <time>2019-08-17T11:16:22Z</time>
      </trkpt>
      <trkpt lat="42.0145280" lon="-7.5954050">
        <ele>653.4</ele>
        <time>2019-08-17T11:16:23Z</time>
      </trkpt>
      <trkpt lat="42.0145510" lon="-7.5955030">
        <ele>653.2</ele>
        <time>2019-08-17T11:16:24Z</time>
      </trkpt>
      <trkpt lat="42.0145730" lon="-7.5956020">
        <ele>653.0</ele>
        <time>2019-08-17T11:16:25Z</time>
      </trkpt>
      <trkpt lat="42.0145950" lon="-7.5957020">
        <ele>652.8</ele>
        <time>2019-08-17T11:16:26Z</time>
      </trkpt>
      <trkpt lat="42.0146160" lon="-7.5958020">
        <ele>652.6</ele>
        <time>2019-08-17T11:16:27Z</time>
      </trkpt>
      <trkpt lat="42.0146370" lon="-7.5959030">
        <ele>652.4</ele>
        <time>2019-08-17T11:16:28Z</time>
      </trkpt>
      <trkpt lat="42.0146580" lon="-7.5960020">
        <ele>652.3</ele>
        <time>2019-08-17T11:16:29Z</time>
      </trkpt>
      <trkpt lat="42.0146780" lon="-7.5960990">
        <ele>652.2</ele>
        <time>2019-08-17T11:16:30Z</time>
      </trkpt>
      <trkpt lat="42.0146990" lon="-7.5961930">
        <ele>652.2</ele>
        <time>2019-08-17T11:16:31Z</time>
      </trkpt>
      <trkpt lat="42.0147190" lon="-7.5962850">
        <ele>652.1</ele>
        <time>2019-08-17T11:16:32Z</time>
      </trkpt>
      <trkpt lat="42.0147390" lon="-7.5963720">
        <ele>652.0</ele>
        <time>2019-08-17T11:16:33Z</time>
      </trkpt>
      <trkpt lat="42.0147580" lon="-7.5964560">
        <ele>652.0</ele>
        <time>2019-08-17T11:16:34Z</time>
      </trkpt>
      <trkpt lat="42.0147740" lon="-7.5965400">
        <ele>651.9</ele>
        <time>2019-08-17T11:16:35Z</time>
      </trkpt>
      <trkpt lat="42.0147860" lon="-7.5966230">
        <ele>651.8</ele>
        <time>2019-08-17T11:16:36Z</time>
      </trkpt>
      <trkpt lat="42.0147920" lon="-7.5967070">
        <ele>651.7</ele>
        <time>2019-08-17T11:16:37Z</time>
      </trkpt>
      <trkpt lat="42.0147950" lon="-7.5967930">
        <ele>651.6</ele>
        <time>2019-08-17T11:16:38Z</time>
      </trkpt>
      <trkpt lat="42.0147940" lon="-7.5968790">
        <ele>651.5</ele>
        <time>2019-08-17T11:16:39Z</time>
      </trkpt>
      <trkpt lat="42.0147910" lon="-7.5969650">
        <ele>651.4</ele>
        <time>2019-08-17T11:16:40Z</time>
      </trkpt>
      <trkpt lat="42.0147880" lon="-7.5970520">
        <ele>651.3</ele>
        <time>2019-08-17T11:16:41Z</time>
      </trkpt>
      <trkpt lat="42.0147850" lon="-7.5971380">
        <ele>651.2</ele>
        <time>2019-08-17T11:16:42Z</time>
      </trkpt>
      <trkpt lat="42.0147810" lon="-7.5972250">
        <ele>651.1</ele>
        <time>2019-08-17T11:16:43Z</time>
      </trkpt>
      <trkpt lat="42.0147760" lon="-7.5973120">
        <ele>651.1</ele>
        <time>2019-08-17T11:16:44Z</time>
      </trkpt>
      <trkpt lat="42.0147710" lon="-7.5973990">
        <ele>651.0</ele>
        <time>2019-08-17T11:16:45Z</time>
      </trkpt>
      <trkpt lat="42.0147650" lon="-7.5974870">
        <ele>650.8</ele>
        <time>2019-08-17T11:16:46Z</time>
      </trkpt>
      <trkpt lat="42.0147570" lon="-7.5975760">
        <ele>650.5</ele>
        <time>2019-08-17T11:16:47Z</time>
      </trkpt>
      <trkpt lat="42.0147490" lon="-7.5976650">
        <ele>650.2</ele>
        <time>2019-08-17T11:16:48Z</time>
      </trkpt>
      <trkpt lat="42.0147390" lon="-7.5977550">
        <ele>649.9</ele>
        <time>2019-08-17T11:16:49Z</time>
      </trkpt>
      <trkpt lat="42.0147300" lon="-7.5978450">
        <ele>649.6</ele>
        <time>2019-08-17T11:16:50Z</time>
      </trkpt>
      <trkpt lat="42.0147200" lon="-7.5979350">
        <ele>649.3</ele>
        <time>2019-08-17T11:16:51Z</time>
      </trkpt>
      <trkpt lat="42.0147100" lon="-7.5980260">
        <ele>649.0</ele>
        <time>2019-08-17T11:16:52Z</time>
      </trkpt>
      <trkpt lat="42.0147020" lon="-7.5981160">
        <ele>648.7</ele>
        <time>2019-08-17T11:16:53Z</time>
      </trkpt>
      <trkpt lat="42.0146940" lon="-7.5982060">
        <ele>648.5</ele>
        <time>2019-08-17T11:16:54Z</time>
      </trkpt>
      <trkpt lat="42.0146880" lon="-7.5982950">
        <ele>648.3</ele>
        <time>2019-08-17T11:16:55Z</time>
      </trkpt>
      <trkpt lat="42.0146840" lon="-7.5983840">
        <ele>648.1</ele>
        <time>2019-08-17T11:16:56Z</time>
      </trkpt>
      <trkpt lat="42.0146820" lon="-7.5984720">
        <ele>648.0</ele>
        <time>2019-08-17T11:16:57Z</time>
      </trkpt>
      <trkpt lat="42.0146820" lon="-7.5985590">
        <ele>648.0</ele>
        <time>2019-08-17T11:16:58Z</time>
      </trkpt>
      <trkpt lat="42.0146830" lon="-7.5986460">
        <ele>648.0</ele>
        <time>2019-08-17T11:16:59Z</time>
      </trkpt>
      <trkpt lat="42.0146860" lon="-7.5987320">
        <ele>647.9</ele>
        <time>2019-08-17T11:17:00Z</time>
      </trkpt>
      <trkpt lat="42.0146910" lon="-7.5988170">
        <ele>647.9</ele>
        <time>2019-08-17T11:17:01Z</time>
      </trkpt>
      <trkpt lat="42.0146960" lon="-7.5989010">
        <ele>647.9</ele>
        <time>2019-08-17T11:17:02Z</time>
      </trkpt>
      <trkpt lat="42.0147030" lon="-7.5989850">
        <ele>647.8</ele>
        <time>2019-08-17T11:17:03Z</time>
      </trkpt>
      <trkpt lat="42.0147110" lon="-7.5990690">
        <ele>647.7</ele>
        <time>2019-08-17T11:17:04Z</time>
      </trkpt>
      <trkpt lat="42.0147200" lon="-7.5991520">
        <ele>647.6</ele>
        <time>2019-08-17T11:17:05Z</time>
      </trkpt>
      <trkpt lat="42.0147300" lon="-7.5992340">
        <ele>647.5</ele>
        <time>2019-08-17T11:17:06Z</time>
      </trkpt>
      <trkpt lat="42.0147410" lon="-7.5993170">
        <ele>647.4</ele>
        <time>2019-08-17T11:17:07Z</time>
      </trkpt>
      <trkpt lat="42.0147510" lon="-7.5993990">
        <ele>647.4</ele>
        <time>2019-08-17T11:17:08Z</time>
      </trkpt>
      <trkpt lat="42.0147630" lon="-7.5994810">
        <ele>647.3</ele>
        <time>2019-08-17T11:17:09Z</time>
      </trkpt>
      <trkpt lat="42.0147740" lon="-7.5995640">
        <ele>647.3</ele>
        <time>2019-08-17T11:17:10Z</time>
      </trkpt>
      <trkpt lat="42.0147850" lon="-7.5996470">
        <ele>647.3</ele>
        <time>2019-08-17T11:17:11Z</time>
      </trkpt>
      <trkpt lat="42.0147950" lon="-7.5997300">
        <ele>647.2</ele>
        <time>2019-08-17T11:17:12Z</time>
      </trkpt>
      <trkpt lat="42.0148060" lon="-7.5998130">
        <ele>647.2</ele>
        <time>2019-08-17T11:17:13Z</time>
      </trkpt>
      <trkpt lat="42.0148170" lon="-7.5998970">
        <ele>647.2</ele>
        <time>2019-08-17T11:17:14Z</time>
      </trkpt>
      <trkpt lat="42.0148280" lon="-7.5999800">
        <ele>647.2</ele>
        <time>2019-08-17T11:17:15Z</time>
      </trkpt>
      <trkpt lat="42.0148410" lon="-7.6000630">
        <ele>647.2</ele>
        <time>2019-08-17T11:17:16Z</time>
      </trkpt>
      <trkpt lat="42.0148540" lon="-7.6001450">
        <ele>647.2</ele>
        <time>2019-08-17T11:17:17Z</time>
      </trkpt>
      <trkpt lat="42.0148690" lon="-7.6002270">
        <ele>647.2</ele>
        <time>2019-08-17T11:17:18Z</time>
      </trkpt>
      <trkpt lat="42.0148850" lon="-7.6003080">
        <ele>647.2</ele>
        <time>2019-08-17T11:17:19Z</time>
      </trkpt>
      <trkpt lat="42.0149040" lon="-7.6003870">
        <ele>647.2</ele>
        <time>2019-08-17T11:17:20Z</time>
      </trkpt>
      <trkpt lat="42.0149240" lon="-7.6004650">
        <ele>647.2</ele>
        <time>2019-08-17T11:17:21Z</time>
      </trkpt>
      <trkpt lat="42.0149470" lon="-7.6005420">
        <ele>647.2</ele>
        <time>2019-08-17T11:17:22Z</time>
      </trkpt>
      <trkpt lat="42.0149730" lon="-7.6006170">
        <ele>647.2</ele>
        <time>2019-08-17T11:17:23Z</time>
      </trkpt>
      <trkpt lat="42.0150000" lon="-7.6006900">
        <ele>647.2</ele>
        <time>2019-08-17T11:17:24Z</time>
      </trkpt>
      <trkpt lat="42.0150280" lon="-7.6007640">
        <ele>647.2</ele>
        <time>2019-08-17T11:17:25Z</time>
      </trkpt>
      <trkpt lat="42.0150570" lon="-7.6008390">
        <ele>647.2</ele>
        <time>2019-08-17T11:17:26Z</time>
      </trkpt>
      <trkpt lat="42.0150850" lon="-7.6009150">
        <ele>647.2</ele>
        <time>2019-08-17T11:17:27Z</time>
      </trkpt>
      <trkpt lat="42.0151130" lon="-7.6009930">
        <ele>647.2</ele>
        <time>2019-08-17T11:17:28Z</time>
      </trkpt>
      <trkpt lat="42.0151420" lon="-7.6010720">
        <ele>647.2</ele>
        <time>2019-08-17T11:17:29Z</time>
      </trkpt>
      <trkpt lat="42.0151700" lon="-7.6011510">
        <ele>647.2</ele>
        <time>2019-08-17T11:17:30Z</time>
      </trkpt>
      <trkpt lat="42.0151990" lon="-7.6012310">
        <ele>647.1</ele>
        <time>2019-08-17T11:17:31Z</time>
      </trkpt>
      <trkpt lat="42.0152290" lon="-7.6013110">
        <ele>647.1</ele>
        <time>2019-08-17T11:17:32Z</time>
      </trkpt>
      <trkpt lat="42.0152600" lon="-7.6013910">
        <ele>647.1</ele>
        <time>2019-08-17T11:17:33Z</time>
      </trkpt>
      <trkpt lat="42.0152920" lon="-7.6014710">
        <ele>647.0</ele>
        <time>2019-08-17T11:17:34Z</time>
      </trkpt>
      <trkpt lat="42.0153250" lon="-7.6015490">
        <ele>646.9</ele>
        <time>2019-08-17T11:17:35Z</time>
      </trkpt>
      <trkpt lat="42.0153600" lon="-7.6016270">
        <ele>646.8</ele>
        <time>2019-08-17T11:17:36Z</time>
      </trkpt>
      <trkpt lat="42.0153960" lon="-7.6017040">
        <ele>646.7</ele>
        <time>2019-08-17T11:17:37Z</time>
      </trkpt>
      <trkpt lat="42.0154320" lon="-7.6017800">
        <ele>646.6</ele>
        <time>2019-08-17T11:17:38Z</time>
      </trkpt>
      <trkpt lat="42.0154700" lon="-7.6018540">
        <ele>646.5</ele>
        <time>2019-08-17T11:17:39Z</time>
      </trkpt>
      <trkpt lat="42.0155090" lon="-7.6019280">
        <ele>646.4</ele>
        <time>2019-08-17T11:17:40Z</time>
      </trkpt>
      <trkpt lat="42.0155480" lon="-7.6020010">
        <ele>646.2</ele>
        <time>2019-08-17T11:17:41Z</time>
      </trkpt>
      <trkpt lat="42.0155880" lon="-7.6020720">
        <ele>646.1</ele>
        <time>2019-08-17T11:17:42Z</time>
      </trkpt>
      <trkpt lat="42.0156290" lon="-7.6021420">
        <ele>646.0</ele>
        <time>2019-08-17T11:17:43Z</time>
      </trkpt>
      <trkpt lat="42.0156690" lon="-7.6022110">
        <ele>645.9</ele>
        <time>2019-08-17T11:17:44Z</time>
      </trkpt>
      <trkpt lat="42.0157110" lon="-7.6022790">
        <ele>645.8</ele>
        <time>2019-08-17T11:17:45Z</time>
      </trkpt>
      <trkpt lat="42.0157520" lon="-7.6023470">
        <ele>645.7</ele>
        <time>2019-08-17T11:17:46Z</time>
      </trkpt>
      <trkpt lat="42.0157940" lon="-7.6024140">
        <ele>645.6</ele>
        <time>2019-08-17T11:17:47Z</time>
      </trkpt>
      <trkpt lat="42.0158360" lon="-7.6024810">
        <ele>645.5</ele>
        <time>2019-08-17T11:17:48Z</time>
      </trkpt>
      <trkpt lat="42.0158780" lon="-7.6025490">
        <ele>645.4</ele>
        <time>2019-08-17T11:17:49Z</time>
      </trkpt>
      <trkpt lat="42.0159200" lon="-7.6026170">
        <ele>645.3</ele>
        <time>2019-08-17T11:17:50Z</time>
      </trkpt>
      <trkpt lat="42.0159620" lon="-7.6026850">
        <ele>645.3</ele>
        <time>2019-08-17T11:17:51Z</time>
      </trkpt>
      <trkpt lat="42.0160040" lon="-7.6027540">
        <ele>645.2</ele>
        <time>2019-08-17T11:17:52Z</time>
      </trkpt>
      <trkpt lat="42.0160460" lon="-7.6028220">
        <ele>645.1</ele>
        <time>2019-08-17T11:17:53Z</time>
      </trkpt>
      <trkpt lat="42.0160880" lon="-7.6028910">
        <ele>645.0</ele>
        <time>2019-08-17T11:17:54Z</time>
      </trkpt>
      <trkpt lat="42.0161300" lon="-7.6029590">
        <ele>645.0</ele>
        <time>2019-08-17T11:17:55Z</time>
      </trkpt>
      <trkpt lat="42.0161720" lon="-7.6030280">
        <ele>644.9</ele>
        <time>2019-08-17T11:17:56Z</time>
      </trkpt>
      <trkpt lat="42.0162140" lon="-7.6030960">
        <ele>644.8</ele>
        <time>2019-08-17T11:17:57Z</time>
      </trkpt>
      <trkpt lat="42.0162560" lon="-7.6031630">
        <ele>644.7</ele>
        <time>2019-08-17T11:17:58Z</time>
      </trkpt>
      <trkpt lat="42.0162970" lon="-7.6032310">
        <ele>644.7</ele>
        <time>2019-08-17T11:17:59Z</time>
      </trkpt>
      <trkpt lat="42.0163390" lon="-7.6032980">
        <ele>644.6</ele>
        <time>2019-08-17T11:18:00Z</time>
      </trkpt>
      <trkpt lat="42.0163800" lon="-7.6033640">
        <ele>644.5</ele>
        <time>2019-08-17T11:18:01Z</time>
      </trkpt>
      <trkpt lat="42.0164220" lon="-7.6034300">
        <ele>644.4</ele>
        <time>2019-08-17T11:18:02Z</time>
      </trkpt>
      <trkpt lat="42.0164630" lon="-7.6034960">
        <ele>644.4</ele>
        <time>2019-08-17T11:18:03Z</time>
      </trkpt>
      <trkpt lat="42.0165040" lon="-7.6035620">
        <ele>644.3</ele>
        <time>2019-08-17T11:18:04Z</time>
      </trkpt>
      <trkpt lat="42.0165440" lon="-7.6036270">
        <ele>644.3</ele>
        <time>2019-08-17T11:18:05Z</time>
      </trkpt>
      <trkpt lat="42.0165840" lon="-7.6036910">
        <ele>644.3</ele>
        <time>2019-08-17T11:18:06Z</time>
      </trkpt>
      <trkpt lat="42.0166250" lon="-7.6037560">
        <ele>644.2</ele>
        <time>2019-08-17T11:18:07Z</time>
      </trkpt>
      <trkpt lat="42.0166640" lon="-7.6038200">
        <ele>644.2</ele>
        <time>2019-08-17T11:18:08Z</time>
      </trkpt>
      <trkpt lat="42.0167040" lon="-7.6038840">
        <ele>644.2</ele>
        <time>2019-08-17T11:18:09Z</time>
      </trkpt>
      <trkpt lat="42.0167430" lon="-7.6039470">
        <ele>644.1</ele>
        <time>2019-08-17T11:18:10Z</time>
      </trkpt>
      <trkpt lat="42.0167830" lon="-7.6040110">
        <ele>644.0</ele>
        <time>2019-08-17T11:18:11Z</time>
      </trkpt>
      <trkpt lat="42.0168220" lon="-7.6040750">
        <ele>644.0</ele>
        <time>2019-08-17T11:18:12Z</time>
      </trkpt>
      <trkpt lat="42.0168620" lon="-7.6041390">
        <ele>643.9</ele>
        <time>2019-08-17T11:18:13Z</time>
      </trkpt>
      <trkpt lat="42.0169010" lon="-7.6042030">
        <ele>643.9</ele>
        <time>2019-08-17T11:18:14Z</time>
      </trkpt>
      <trkpt lat="42.0169400" lon="-7.6042680">
        <ele>643.8</ele>
        <time>2019-08-17T11:18:15Z</time>
      </trkpt>
      <trkpt lat="42.0169800" lon="-7.6043320">
        <ele>643.8</ele>
        <time>2019-08-17T11:18:16Z</time>
      </trkpt>
      <trkpt lat="42.0170190" lon="-7.6043970">
        <ele>643.8</ele>
        <time>2019-08-17T11:18:17Z</time>
      </trkpt>
      <trkpt lat="42.0170580" lon="-7.6044620">
        <ele>643.7</ele>
        <time>2019-08-17T11:18:18Z</time>
      </trkpt>
      <trkpt lat="42.0170970" lon="-7.6045260">
        <ele>643.7</ele>
        <time>2019-08-17T11:18:19Z</time>
      </trkpt>
      <trkpt lat="42.0171360" lon="-7.6045900">
        <ele>643.7</ele>
        <time>2019-08-17T11:18:20Z</time>
      </trkpt>
      <trkpt lat="42.0171750" lon="-7.6046540">
        <ele>643.7</ele>
        <time>2019-08-17T11:18:21Z</time>
      </trkpt>
      <trkpt lat="42.0172130" lon="-7.6047180">
        <ele>643.8</ele>
        <time>2019-08-17T11:18:22Z</time>
      </trkpt>
      <trkpt lat="42.0172510" lon="-7.6047820">
        <ele>643.8</ele>
        <time>2019-08-17T11:18:23Z</time>
      </trkpt>
      <trkpt lat="42.0172890" lon="-7.6048450">
        <ele>643.8</ele>
        <time>2019-08-17T11:18:24Z</time>
      </trkpt>
      <trkpt lat="42.0173270" lon="-7.6049080">
        <ele>643.7</ele>
        <time>2019-08-17T11:18:25Z</time>
      </trkpt>
      <trkpt lat="42.0173650" lon="-7.6049710">
        <ele>643.7</ele>
        <time>2019-08-17T11:18:26Z</time>
      </trkpt>
      <trkpt lat="42.0174030" lon="-7.6050340">
        <ele>643.6</ele>
        <time>2019-08-17T11:18:27Z</time>
      </trkpt>
      <trkpt lat="42.0174400" lon="-7.6050970">
        <ele>643.6</ele>
        <time>2019-08-17T11:18:28Z</time>
      </trkpt>
      <trkpt lat="42.0174780" lon="-7.6051600">
        <ele>643.6</ele>
        <time>2019-08-17T11:18:29Z</time>
      </trkpt>
      <trkpt lat="42.0175150" lon="-7.6052220">
        <ele>643.5</ele>
        <time>2019-08-17T11:18:30Z</time>
      </trkpt>
      <trkpt lat="42.0175530" lon="-7.6052850">
        <ele>643.5</ele>
        <time>2019-08-17T11:18:31Z</time>
      </trkpt>
      <trkpt lat="42.0175900" lon="-7.6053470">
        <ele>643.5</ele>
        <time>2019-08-17T11:18:32Z</time>
      </trkpt>
      <trkpt lat="42.0176280" lon="-7.6054090">
        <ele>643.5</ele>
        <time>2019-08-17T11:18:33Z</time>
      </trkpt>
      <trkpt lat="42.0176660" lon="-7.6054720">
        <ele>643.5</ele>
        <time>2019-08-17T11:18:34Z</time>
      </trkpt>
      <trkpt lat="42.0177040" lon="-7.6055340">
        <ele>643.5</ele>
        <time>2019-08-17T11:18:35Z</time>
      </trkpt>
      <trkpt lat="42.0177410" lon="-7.6055960">
        <ele>643.5</ele>
        <time>2019-08-17T11:18:36Z</time>
      </trkpt>
      <trkpt lat="42.0177800" lon="-7.6056580">
        <ele>643.5</ele>
        <time>2019-08-17T11:18:37Z</time>
      </trkpt>
      <trkpt lat="42.0178180" lon="-7.6057210">
        <ele>643.4</ele>
        <time>2019-08-17T11:18:38Z</time>
      </trkpt>
      <trkpt lat="42.0178560" lon="-7.6057830">
        <ele>643.4</ele>
        <time>2019-08-17T11:18:39Z</time>
      </trkpt>
      <trkpt lat="42.0178950" lon="-7.6058450">
        <ele>643.4</ele>
        <time>2019-08-17T11:18:40Z</time>
      </trkpt>
      <trkpt lat="42.0179330" lon="-7.6059080">
        <ele>643.3</ele>
        <time>2019-08-17T11:18:41Z</time>
      </trkpt>
      <trkpt lat="42.0179720" lon="-7.6059700">
        <ele>643.3</ele>
        <time>2019-08-17T11:18:42Z</time>
      </trkpt>
      <trkpt lat="42.0180100" lon="-7.6060320">
        <ele>643.3</ele>
        <time>2019-08-17T11:18:43Z</time>
      </trkpt>
      <trkpt lat="42.0180490" lon="-7.6060940">
        <ele>643.2</ele>
        <time>2019-08-17T11:18:44Z</time>
      </trkpt>
      <trkpt lat="42.0180870" lon="-7.6061570">
        <ele>643.2</ele>
        <time>2019-08-17T11:18:45Z</time>
      </trkpt>
      <trkpt lat="42.0181260" lon="-7.6062190">
        <ele>643.2</ele>
        <time>2019-08-17T11:18:46Z</time>
      </trkpt>
      <trkpt lat="42.0181640" lon="-7.6062810">
        <ele>643.2</ele>
        <time>2019-08-17T11:18:47Z</time>
      </trkpt>
      <trkpt lat="42.0182020" lon="-7.6063440">
        <ele>643.1</ele>
        <time>2019-08-17T11:18:48Z</time>
      </trkpt>
      <trkpt lat="42.0182410" lon="-7.6064060">
        <ele>643.1</ele>
        <time>2019-08-17T11:18:49Z</time>
      </trkpt>
      <trkpt lat="42.0182780" lon="-7.6064680">
        <ele>643.1</ele>
        <time>2019-08-17T11:18:50Z</time>
      </trkpt>
      <trkpt lat="42.0183160" lon="-7.6065300">
        <ele>643.1</ele>
        <time>2019-08-17T11:18:51Z</time>
      </trkpt>
      <trkpt lat="42.0183540" lon="-7.6065920">
        <ele>643.0</ele>
        <time>2019-08-17T11:18:52Z</time>
      </trkpt>
      <trkpt lat="42.0183910" lon="-7.6066540">
        <ele>643.0</ele>
        <time>2019-08-17T11:18:53Z</time>
      </trkpt>
      <trkpt lat="42.0184280" lon="-7.6067170">
        <ele>643.0</ele>
        <time>2019-08-17T11:18:54Z</time>
      </trkpt>
      <trkpt lat="42.0184660" lon="-7.6067790">
        <ele>643.0</ele>
        <time>2019-08-17T11:18:55Z</time>
      </trkpt>
      <trkpt lat="42.0185030" lon="-7.6068410">
        <ele>642.9</ele>
        <time>2019-08-17T11:18:56Z</time>
      </trkpt>
      <trkpt lat="42.0185400" lon="-7.6069030">
        <ele>642.9</ele>
        <time>2019-08-17T11:18:57Z</time>
      </trkpt>
      <trkpt lat="42.0185780" lon="-7.6069650">
        <ele>642.9</ele>
        <time>2019-08-17T11:18:58Z</time>
      </trkpt>
      <trkpt lat="42.0186150" lon="-7.6070270">
        <ele>642.8</ele>
        <time>2019-08-17T11:18:59Z</time>
      </trkpt>
      <trkpt lat="42.0186530" lon="-7.6070900">
        <ele>642.8</ele>
        <time>2019-08-17T11:19:00Z</time>
      </trkpt>
      <trkpt lat="42.0186910" lon="-7.6071520">
        <ele>642.8</ele>
        <time>2019-08-17T11:19:01Z</time>
      </trkpt>
      <trkpt lat="42.0187290" lon="-7.6072140">
        <ele>642.8</ele>
        <time>2019-08-17T11:19:02Z</time>
      </trkpt>
      <trkpt lat="42.0187680" lon="-7.6072770">
        <ele>642.7</ele>
        <time>2019-08-17T11:19:03Z</time>
      </trkpt>
      <trkpt lat="42.0188070" lon="-7.6073400">
        <ele>642.7</ele>
        <time>2019-08-17T11:19:04Z</time>
      </trkpt>
      <trkpt lat="42.0188460" lon="-7.6074030">
        <ele>642.7</ele>
        <time>2019-08-17T11:19:05Z</time>
      </trkpt>
      <trkpt lat="42.0188850" lon="-7.6074660">
        <ele>642.7</ele>
        <time>2019-08-17T11:19:06Z</time>
      </trkpt>
      <trkpt lat="42.0189240" lon="-7.6075300">
        <ele>642.7</ele>
        <time>2019-08-17T11:19:07Z</time>
      </trkpt>
      <trkpt lat="42.0189630" lon="-7.6075940">
        <ele>642.7</ele>
        <time>2019-08-17T11:19:08Z</time>
      </trkpt>
      <trkpt lat="42.0190030" lon="-7.6076580">
        <ele>642.7</ele>
        <time>2019-08-17T11:19:09Z</time>
      </trkpt>
      <trkpt lat="42.0190420" lon="-7.6077220">
        <ele>642.7</ele>
        <time>2019-08-17T11:19:10Z</time>
      </trkpt>
      <trkpt lat="42.0190820" lon="-7.6077870">
        <ele>642.6</ele>
        <time>2019-08-17T11:19:11Z</time>
      </trkpt>
      <trkpt lat="42.0191210" lon="-7.6078510">
        <ele>642.6</ele>
        <time>2019-08-17T11:19:12Z</time>
      </trkpt>
      <trkpt lat="42.0191600" lon="-7.6079150">
        <ele>642.6</ele>
        <time>2019-08-17T11:19:13Z</time>
      </trkpt>
      <trkpt lat="42.0192000" lon="-7.6079790">
        <ele>642.6</ele>
        <time>2019-08-17T11:19:14Z</time>
      </trkpt>
      <trkpt lat="42.0192390" lon="-7.6080430">
        <ele>642.6</ele>
        <time>2019-08-17T11:19:15Z</time>
      </trkpt>
      <trkpt lat="42.0192770" lon="-7.6081050">
        <ele>642.6</ele>
        <time>2019-08-17T11:19:16Z</time>
      </trkpt>
      <trkpt lat="42.0193160" lon="-7.6081680">
        <ele>642.5</ele>
        <time>2019-08-17T11:19:17Z</time>
      </trkpt>
      <trkpt lat="42.0193540" lon="-7.6082290">
        <ele>642.4</ele>
        <time>2019-08-17T11:19:18Z</time>
      </trkpt>
      <trkpt lat="42.0193920" lon="-7.6082910">
        <ele>642.4</ele>
        <time>2019-08-17T11:19:19Z</time>
      </trkpt>
      <trkpt lat="42.0194290" lon="-7.6083520">
        <ele>642.3</ele>
        <time>2019-08-17T11:19:20Z</time>
      </trkpt>
      <trkpt lat="42.0194660" lon="-7.6084120">
        <ele>642.2</ele>
        <time>2019-08-17T11:19:21Z</time>
      </trkpt>
      <trkpt lat="42.0195020" lon="-7.6084730">
        <ele>642.2</ele>
        <time>2019-08-17T11:19:22Z</time>
      </trkpt>
      <trkpt lat="42.0195380" lon="-7.6085330">
        <ele>642.1</ele>
        <time>2019-08-17T11:19:23Z</time>
      </trkpt>
      <trkpt lat="42.0195730" lon="-7.6085930">
        <ele>642.0</ele>
        <time>2019-08-17T11:19:24Z</time>
      </trkpt>
      <trkpt lat="42.0196090" lon="-7.6086540">
        <ele>641.9</ele>
        <time>2019-08-17T11:19:25Z</time>
      </trkpt>
      <trkpt lat="42.0196450" lon="-7.6087160">
        <ele>641.8</ele>
        <time>2019-08-17T11:19:26Z</time>
      </trkpt>
      <trkpt lat="42.0196810" lon="-7.6087790">
        <ele>641.8</ele>
        <time>2019-08-17T11:19:27Z</time>
      </trkpt>
      <trkpt lat="42.0197180" lon="-7.6088420">
        <ele>641.7</ele>
        <time>2019-08-17T11:19:28Z</time>
      </trkpt>
      <trkpt lat="42.0197560" lon="-7.6089060">
        <ele>641.6</ele>
        <time>2019-08-17T11:19:29Z</time>
      </trkpt>
      <trkpt lat="42.0197940" lon="-7.6089700">
        <ele>641.6</ele>
        <time>2019-08-17T11:19:30Z</time>
      </trkpt>
      <trkpt lat="42.0198330" lon="-7.6090350">
        <ele>641.6</ele>
        <time>2019-08-17T11:19:31Z</time>
      </trkpt>
      <trkpt lat="42.0198730" lon="-7.6090990">
        <ele>641.6</ele>
        <time>2019-08-17T11:19:32Z</time>
      </trkpt>
      <trkpt lat="42.0199130" lon="-7.6091620">
        <ele>641.6</ele>
        <time>2019-08-17T11:19:33Z</time>
      </trkpt>
      <trkpt lat="42.0199520" lon="-7.6092260">
        <ele>641.6</ele>
        <time>2019-08-17T11:19:34Z</time>
      </trkpt>
      <trkpt lat="42.0199910" lon="-7.6092890">
        <ele>641.6</ele>
        <time>2019-08-17T11:19:35Z</time>
      </trkpt>
      <trkpt lat="42.0200300" lon="-7.6093520">
        <ele>641.6</ele>
        <time>2019-08-17T11:19:36Z</time>
      </trkpt>
      <trkpt lat="42.0200670" lon="-7.6094140">
        <ele>641.6</ele>
        <time>2019-08-17T11:19:37Z</time>
      </trkpt>
      <trkpt lat="42.0201050" lon="-7.6094760">
        <ele>641.6</ele>
        <time>2019-08-17T11:19:38Z</time>
      </trkpt>
      <trkpt lat="42.0201420" lon="-7.6095360">
        <ele>641.6</ele>
        <time>2019-08-17T11:19:39Z</time>
      </trkpt>
      <trkpt lat="42.0201790" lon="-7.6095970">
        <ele>641.6</ele>
        <time>2019-08-17T11:19:40Z</time>
      </trkpt>
      <trkpt lat="42.0202160" lon="-7.6096570">
        <ele>641.6</ele>
        <time>2019-08-17T11:19:41Z</time>
      </trkpt>
      <trkpt lat="42.0202530" lon="-7.6097170">
        <ele>641.6</ele>
        <time>2019-08-17T11:19:42Z</time>
      </trkpt>
      <trkpt lat="42.0202900" lon="-7.6097770">
        <ele>641.6</ele>
        <time>2019-08-17T11:19:43Z</time>
      </trkpt>
      <trkpt lat="42.0203270" lon="-7.6098390">
        <ele>641.5</ele>
        <time>2019-08-17T11:19:44Z</time>
      </trkpt>
      <trkpt lat="42.0203650" lon="-7.6099010">
        <ele>641.5</ele>
        <time>2019-08-17T11:19:45Z</time>
      </trkpt>
      <trkpt lat="42.0204020" lon="-7.6099640">
        <ele>641.5</ele>
        <time>2019-08-17T11:19:46Z</time>
      </trkpt>
      <trkpt lat="42.0204400" lon="-7.6100290">
        <ele>641.5</ele>
        <time>2019-08-17T11:19:47Z</time>
      </trkpt>
      <trkpt lat="42.0204780" lon="-7.6100960">
        <ele>641.4</ele>
        <time>2019-08-17T11:19:48Z</time>
      </trkpt>
      <trkpt lat="42.0205160" lon="-7.6101630">
        <ele>641.2</ele>
        <time>2019-08-17T11:19:49Z</time>
      </trkpt>
      <trkpt lat="42.0205540" lon="-7.6102300">
        <ele>641.1</ele>
        <time>2019-08-17T11:19:50Z</time>
      </trkpt>
      <trkpt lat="42.0205930" lon="-7.6102980">
        <ele>641.0</ele>
        <time>2019-08-17T11:19:51Z</time>
      </trkpt>
      <trkpt lat="42.0206310" lon="-7.6103660">
        <ele>640.9</ele>
        <time>2019-08-17T11:19:52Z</time>
      </trkpt>
      <trkpt lat="42.0206700" lon="-7.6104340">
        <ele>640.9</ele>
        <time>2019-08-17T11:19:53Z</time>
      </trkpt>
      <trkpt lat="42.0207090" lon="-7.6105010">
        <ele>641.0</ele>
        <time>2019-08-17T11:19:54Z</time>
      </trkpt>
      <trkpt lat="42.0207470" lon="-7.6105670">
        <ele>641.1</ele>
        <time>2019-08-17T11:19:55Z</time>
      </trkpt>
      <trkpt lat="42.0207860" lon="-7.6106330">
        <ele>641.3</ele>
        <time>2019-08-17T11:19:56Z</time>
      </trkpt>
      <trkpt lat="42.0208240" lon="-7.6106980">
        <ele>641.4</ele>
        <time>2019-08-17T11:19:57Z</time>
      </trkpt>
      <trkpt lat="42.0208630" lon="-7.6107620">
        <ele>641.6</ele>
        <time>2019-08-17T11:19:58Z</time>
      </trkpt>
      <trkpt lat="42.0209010" lon="-7.6108260">
        <ele>641.6</ele>
        <time>2019-08-17T11:19:59Z</time>
      </trkpt>
      <trkpt lat="42.0209390" lon="-7.6108890">
        <ele>641.6</ele>
        <time>2019-08-17T11:20:00Z</time>
      </trkpt>
      <trkpt lat="42.0209770" lon="-7.6109520">
        <ele>641.5</ele>
        <time>2019-08-17T11:20:01Z</time>
      </trkpt>
      <trkpt lat="42.0210150" lon="-7.6110140">
        <ele>641.5</ele>
        <time>2019-08-17T11:20:02Z</time>
      </trkpt>
      <trkpt lat="42.0210520" lon="-7.6110760">
        <ele>641.6</ele>
        <time>2019-08-17T11:20:03Z</time>
      </trkpt>
      <trkpt lat="42.0210890" lon="-7.6111370">
        <ele>641.6</ele>
        <time>2019-08-17T11:20:04Z</time>
      </trkpt>
      <trkpt lat="42.0211260" lon="-7.6111990">
        <ele>641.7</ele>
        <time>2019-08-17T11:20:05Z</time>
      </trkpt>
      <trkpt lat="42.0211620" lon="-7.6112610">
        <ele>641.7</ele>
        <time>2019-08-17T11:20:06Z</time>
      </trkpt>
      <trkpt lat="42.0211990" lon="-7.6113240">
        <ele>641.7</ele>
        <time>2019-08-17T11:20:07Z</time>
      </trkpt>
      <trkpt lat="42.0212350" lon="-7.6113870">
        <ele>641.7</ele>
        <time>2019-08-17T11:20:08Z</time>
      </trkpt>
      <trkpt lat="42.0212700" lon="-7.6114510">
        <ele>641.7</ele>
        <time>2019-08-17T11:20:09Z</time>
      </trkpt>
      <trkpt lat="42.0213060" lon="-7.6115160">
        <ele>641.7</ele>
        <time>2019-08-17T11:20:10Z</time>
      </trkpt>
      <trkpt lat="42.0213420" lon="-7.6115810">
        <ele>641.7</ele>
        <time>2019-08-17T11:20:11Z</time>
      </trkpt>
      <trkpt lat="42.0213790" lon="-7.6116450">
        <ele>641.7</ele>
        <time>2019-08-17T11:20:12Z</time>
      </trkpt>
      <trkpt lat="42.0214180" lon="-7.6117090">
        <ele>641.7</ele>
        <time>2019-08-17T11:20:13Z</time>
      </trkpt>
      <trkpt lat="42.0214590" lon="-7.6117700">
        <ele>641.6</ele>
        <time>2019-08-17T11:20:14Z</time>
      </trkpt>
      <trkpt lat="42.0215020" lon="-7.6118300">
        <ele>641.7</ele>
        <time>2019-08-17T11:20:15Z</time>
      </trkpt>
      <trkpt lat="42.0215460" lon="-7.6118900">
        <ele>641.8</ele>
        <time>2019-08-17T11:20:16Z</time>
      </trkpt>
      <trkpt lat="42.0215890" lon="-7.6119500">
        <ele>641.8</ele>
        <time>2019-08-17T11:20:17Z</time>
      </trkpt>
      <trkpt lat="42.0216300" lon="-7.6120120">
        <ele>641.9</ele>
        <time>2019-08-17T11:20:18Z</time>
      </trkpt>
      <trkpt lat="42.0216700" lon="-7.6120750">
        <ele>641.9</ele>
        <time>2019-08-17T11:20:19Z</time>
      </trkpt>
      <trkpt lat="42.0217090" lon="-7.6121390">
        <ele>642.0</ele>
        <time>2019-08-17T11:20:20Z</time>
      </trkpt>
      <trkpt lat="42.0217470" lon="-7.6122040">
        <ele>642.0</ele>
        <time>2019-08-17T11:20:21Z</time>
      </trkpt>
      <trkpt lat="42.0217840" lon="-7.6122680">
        <ele>642.1</ele>
        <time>2019-08-17T11:20:22Z</time>
      </trkpt>
      <trkpt lat="42.0218200" lon="-7.6123320">
        <ele>642.1</ele>
        <time>2019-08-17T11:20:23Z</time>
      </trkpt>
      <trkpt lat="42.0218560" lon="-7.6123950">
        <ele>642.2</ele>
        <time>2019-08-17T11:20:24Z</time>
      </trkpt>
      <trkpt lat="42.0218920" lon="-7.6124570">
        <ele>642.3</ele>
        <time>2019-08-17T11:20:25Z</time>
      </trkpt>
      <trkpt lat="42.0219280" lon="-7.6125170">
        <ele>642.3</ele>
        <time>2019-08-17T11:20:26Z</time>
      </trkpt>
      <trkpt lat="42.0219640" lon="-7.6125760">
        <ele>642.4</ele>
        <time>2019-08-17T11:20:27Z</time>
      </trkpt>
      <trkpt lat="42.0220010" lon="-7.6126340">
        <ele>642.4</ele>
        <time>2019-08-17T11:20:28Z</time>
      </trkpt>
      <trkpt lat="42.0220370" lon="-7.6126910">
        <ele>642.5</ele>
        <time>2019-08-17T11:20:29Z</time>
      </trkpt>
      <trkpt lat="42.0220730" lon="-7.6127470">
        <ele>642.6</ele>
        <time>2019-08-17T11:20:30Z</time>
      </trkpt>
      <trkpt lat="42.0221090" lon="-7.6128030">
        <ele>642.7</ele>
        <time>2019-08-17T11:20:31Z</time>
      </trkpt>
      <trkpt lat="42.0221440" lon="-7.6128590">
        <ele>642.7</ele>
        <time>2019-08-17T11:20:32Z</time>
      </trkpt>
      <trkpt lat="42.0221800" lon="-7.6129150">
        <ele>642.8</ele>
        <time>2019-08-17T11:20:33Z</time>
      </trkpt>
      <trkpt lat="42.0222160" lon="-7.6129710">
        <ele>642.9</ele>
        <time>2019-08-17T11:20:34Z</time>
      </trkpt>
      <trkpt lat="42.0222510" lon="-7.6130280">
        <ele>642.9</ele>
        <time>2019-08-17T11:20:35Z</time>
      </trkpt>
      <trkpt lat="42.0222860" lon="-7.6130840">
        <ele>643.0</ele>
        <time>2019-08-17T11:20:36Z</time>
      </trkpt>
      <trkpt lat="42.0223210" lon="-7.6131410">
        <ele>643.1</ele>
        <time>2019-08-17T11:20:37Z</time>
      </trkpt>
      <trkpt lat="42.0223570" lon="-7.6131970">
        <ele>643.2</ele>
        <time>2019-08-17T11:20:38Z</time>
      </trkpt>
      <trkpt lat="42.0223920" lon="-7.6132520">
        <ele>643.3</ele>
        <time>2019-08-17T11:20:39Z</time>
      </trkpt>
      <trkpt lat="42.0224270" lon="-7.6133060">
        <ele>643.4</ele>
        <time>2019-08-17T11:20:40Z</time>
      </trkpt>
      <trkpt lat="42.0224620" lon="-7.6133600">
        <ele>643.5</ele>
        <time>2019-08-17T11:20:41Z</time>
      </trkpt>
      <trkpt lat="42.0224980" lon="-7.6134120">
        <ele>643.6</ele>
        <time>2019-08-17T11:20:42Z</time>
      </trkpt>
      <trkpt lat="42.0225330" lon="-7.6134630">
        <ele>643.7</ele>
        <time>2019-08-17T11:20:43Z</time>
      </trkpt>
      <trkpt lat="42.0225680" lon="-7.6135140">
        <ele>643.7</ele>
        <time>2019-08-17T11:20:44Z</time>
      </trkpt>
      <trkpt lat="42.0226030" lon="-7.6135650">
        <ele>643.8</ele>
        <time>2019-08-17T11:20:45Z</time>
      </trkpt>
      <trkpt lat="42.0226370" lon="-7.6136160">
        <ele>643.9</ele>
        <time>2019-08-17T11:20:46Z</time>
      </trkpt>
      <trkpt lat="42.0226710" lon="-7.6136670">
        <ele>644.0</ele>
        <time>2019-08-17T11:20:47Z</time>
      </trkpt>
      <trkpt lat="42.0227040" lon="-7.6137200">
        <ele>644.1</ele>
        <time>2019-08-17T11:20:48Z</time>
      </trkpt>
      <trkpt lat="42.0227370" lon="-7.6137730">
        <ele>644.2</ele>
        <time>2019-08-17T11:20:49Z</time>
      </trkpt>
      <trkpt lat="42.0227680" lon="-7.6138280">
        <ele>644.3</ele>
        <time>2019-08-17T11:20:50Z</time>
      </trkpt>
      <trkpt lat="42.0228000" lon="-7.6138830">
        <ele>644.4</ele>
        <time>2019-08-17T11:20:51Z</time>
      </trkpt>
      <trkpt lat="42.0228310" lon="-7.6139380">
        <ele>644.5</ele>
        <time>2019-08-17T11:20:52Z</time>
      </trkpt>
      <trkpt lat="42.0228640" lon="-7.6139900">
        <ele>644.6</ele>
        <time>2019-08-17T11:20:53Z</time>
      </trkpt>
      <trkpt lat="42.0228990" lon="-7.6140400">
        <ele>644.7</ele>
        <time>2019-08-17T11:20:54Z</time>
      </trkpt>
      <trkpt lat="42.0229360" lon="-7.6140870">
        <ele>644.9</ele>
        <time>2019-08-17T11:20:55Z</time>
      </trkpt>
      <trkpt lat="42.0229720" lon="-7.6141320">
        <ele>645.0</ele>
        <time>2019-08-17T11:20:56Z</time>
      </trkpt>
      <trkpt lat="42.0230080" lon="-7.6141760">
        <ele>645.1</ele>
        <time>2019-08-17T11:20:57Z</time>
      </trkpt>
      <trkpt lat="42.0230440" lon="-7.6142190">
        <ele>645.3</ele>
        <time>2019-08-17T11:20:58Z</time>
      </trkpt>
      <trkpt lat="42.0230800" lon="-7.6142600">
        <ele>645.3</ele>
        <time>2019-08-17T11:20:59Z</time>
      </trkpt>
      <trkpt lat="42.0231160" lon="-7.6143010">
        <ele>645.4</ele>
        <time>2019-08-17T11:21:00Z</time>
      </trkpt>
      <trkpt lat="42.0231510" lon="-7.6143410">
        <ele>645.5</ele>
        <time>2019-08-17T11:21:01Z</time>
      </trkpt>
      <trkpt lat="42.0231860" lon="-7.6143810">
        <ele>645.6</ele>
        <time>2019-08-17T11:21:02Z</time>
      </trkpt>
      <trkpt lat="42.0232210" lon="-7.6144200">
        <ele>645.7</ele>
        <time>2019-08-17T11:21:03Z</time>
      </trkpt>
      <trkpt lat="42.0232570" lon="-7.6144580">
        <ele>645.8</ele>
        <time>2019-08-17T11:21:04Z</time>
      </trkpt>
      <trkpt lat="42.0232920" lon="-7.6144960">
        <ele>645.9</ele>
        <time>2019-08-17T11:21:05Z</time>
      </trkpt>
      <trkpt lat="42.0233270" lon="-7.6145340">
        <ele>646.0</ele>
        <time>2019-08-17T11:21:06Z</time>
      </trkpt>
      <trkpt lat="42.0233630" lon="-7.6145720">
        <ele>646.1</ele>
        <time>2019-08-17T11:21:07Z</time>
      </trkpt>
      <trkpt lat="42.0233980" lon="-7.6146100">
        <ele>646.1</ele>
        <time>2019-08-17T11:21:08Z</time>
      </trkpt>
      <trkpt lat="42.0234340" lon="-7.6146480">
        <ele>646.2</ele>
        <time>2019-08-17T11:21:09Z</time>
      </trkpt>
      <trkpt lat="42.0234710" lon="-7.6146860">
        <ele>646.3</ele>
        <time>2019-08-17T11:21:10Z</time>
      </trkpt>
      <trkpt lat="42.0235070" lon="-7.6147240">
        <ele>646.3</ele>
        <time>2019-08-17T11:21:11Z</time>
      </trkpt>
      <trkpt lat="42.0235440" lon="-7.6147630">
        <ele>646.4</ele>
        <time>2019-08-17T11:21:12Z</time>
      </trkpt>
      <trkpt lat="42.0235820" lon="-7.6148030">
        <ele>646.5</ele>
        <time>2019-08-17T11:21:13Z</time>
      </trkpt>
      <trkpt lat="42.0236200" lon="-7.6148430">
        <ele>646.5</ele>
        <time>2019-08-17T11:21:14Z</time>
      </trkpt>
      <trkpt lat="42.0236580" lon="-7.6148830">
        <ele>646.6</ele>
        <time>2019-08-17T11:21:15Z</time>
      </trkpt>
      <trkpt lat="42.0236970" lon="-7.6149250">
        <ele>646.6</ele>
        <time>2019-08-17T11:21:16Z</time>
      </trkpt>
      <trkpt lat="42.0237360" lon="-7.6149660">
        <ele>646.6</ele>
        <time>2019-08-17T11:21:17Z</time>
      </trkpt>
      <trkpt lat="42.0237750" lon="-7.6150090">
        <ele>646.7</ele>
        <time>2019-08-17T11:21:18Z</time>
      </trkpt>
      <trkpt lat="42.0238150" lon="-7.6150520">
        <ele>646.7</ele>
        <time>2019-08-17T11:21:19Z</time>
      </trkpt>
      <trkpt lat="42.0238550" lon="-7.6150950">
        <ele>646.6</ele>
        <time>2019-08-17T11:21:20Z</time>
      </trkpt>
      <trkpt lat="42.0238950" lon="-7.6151390">
        <ele>646.6</ele>
        <time>2019-08-17T11:21:21Z</time>
      </trkpt>
      <trkpt lat="42.0239350" lon="-7.6151840">
        <ele>646.6</ele>
        <time>2019-08-17T11:21:22Z</time>
      </trkpt>
      <trkpt lat="42.0239750" lon="-7.6152290">
        <ele>646.5</ele>
        <time>2019-08-17T11:21:23Z</time>
      </trkpt>
      <trkpt lat="42.0240150" lon="-7.6152740">
        <ele>646.5</ele>
        <time>2019-08-17T11:21:24Z</time>
      </trkpt>
      <trkpt lat="42.0240560" lon="-7.6153210">
        <ele>646.5</ele>
        <time>2019-08-17T11:21:25Z</time>
      </trkpt>
      <trkpt lat="42.0240960" lon="-7.6153670">
        <ele>646.4</ele>
        <time>2019-08-17T11:21:26Z</time>
      </trkpt>
      <trkpt lat="42.0241360" lon="-7.6154150">
        <ele>646.3</ele>
        <time>2019-08-17T11:21:27Z</time>
      </trkpt>
      <trkpt lat="42.0241760" lon="-7.6154630">
        <ele>646.2</ele>
        <time>2019-08-17T11:21:28Z</time>
      </trkpt>
      <trkpt lat="42.0242160" lon="-7.6155120">
        <ele>646.1</ele>
        <time>2019-08-17T11:21:29Z</time>
      </trkpt>
      <trkpt lat="42.0242550" lon="-7.6155620">
        <ele>645.9</ele>
        <time>2019-08-17T11:21:30Z</time>
      </trkpt>
      <trkpt lat="42.0242940" lon="-7.6156140">
        <ele>645.8</ele>
        <time>2019-08-17T11:21:31Z</time>
      </trkpt>
      <trkpt lat="42.0243310" lon="-7.6156680">
        <ele>645.7</ele>
        <time>2019-08-17T11:21:32Z</time>
      </trkpt>
      <trkpt lat="42.0243680" lon="-7.6157240">
        <ele>645.6</ele>
        <time>2019-08-17T11:21:33Z</time>
      </trkpt>
      <trkpt lat="42.0244030" lon="-7.6157830">
        <ele>645.4</ele>
        <time>2019-08-17T11:21:34Z</time>
      </trkpt>
      <trkpt lat="42.0244360" lon="-7.6158460">
        <ele>645.2</ele>
        <time>2019-08-17T11:21:35Z</time>
      </trkpt>
      <trkpt lat="42.0244680" lon="-7.6159120">
        <ele>645.1</ele>
        <time>2019-08-17T11:21:36Z</time>
      </trkpt>
      <trkpt lat="42.0244980" lon="-7.6159800">
        <ele>645.0</ele>
        <time>2019-08-17T11:21:37Z</time>
      </trkpt>
      <trkpt lat="42.0245290" lon="-7.6160490">
        <ele>644.8</ele>
        <time>2019-08-17T11:21:38Z</time>
      </trkpt>
      <trkpt lat="42.0245600" lon="-7.6161190">
        <ele>644.4</ele>
        <time>2019-08-17T11:21:39Z</time>
      </trkpt>
      <trkpt lat="42.0245920" lon="-7.6161870">
        <ele>644.3</ele>
        <time>2019-08-17T11:21:40Z</time>
      </trkpt>
      <trkpt lat="42.0246260" lon="-7.6162550">
        <ele>644.1</ele>
        <time>2019-08-17T11:21:41Z</time>
      </trkpt>
      <trkpt lat="42.0246600" lon="-7.6163240">
        <ele>644.0</ele>
        <time>2019-08-17T11:21:42Z</time>
      </trkpt>
      <trkpt lat="42.0246940" lon="-7.6163930">
        <ele>643.9</ele>
        <time>2019-08-17T11:21:43Z</time>
      </trkpt>
      <trkpt lat="42.0247280" lon="-7.6164630">
        <ele>643.7</ele>
        <time>2019-08-17T11:21:44Z</time>
      </trkpt>
      <trkpt lat="42.0247630" lon="-7.6165350">
        <ele>643.6</ele>
        <time>2019-08-17T11:21:45Z</time>
      </trkpt>
      <trkpt lat="42.0247970" lon="-7.6166080">
        <ele>643.5</ele>
        <time>2019-08-17T11:21:46Z</time>
      </trkpt>
      <trkpt lat="42.0248310" lon="-7.6166820">
        <ele>643.4</ele>
        <time>2019-08-17T11:21:47Z</time>
      </trkpt>
      <trkpt lat="42.0248660" lon="-7.6167560">
        <ele>643.3</ele>
        <time>2019-08-17T11:21:48Z</time>
      </trkpt>
      <trkpt lat="42.0249000" lon="-7.6168310">
        <ele>643.3</ele>
        <time>2019-08-17T11:21:49Z</time>
      </trkpt>
      <trkpt lat="42.0249350" lon="-7.6169070">
        <ele>643.2</ele>
        <time>2019-08-17T11:21:50Z</time>
      </trkpt>
      <trkpt lat="42.0249700" lon="-7.6169820">
        <ele>643.1</ele>
        <time>2019-08-17T11:21:51Z</time>
      </trkpt>
      <trkpt lat="42.0250050" lon="-7.6170570">
        <ele>643.0</ele>
        <time>2019-08-17T11:21:52Z</time>
      </trkpt>
      <trkpt lat="42.0250400" lon="-7.6171320">
        <ele>642.9</ele>
        <time>2019-08-17T11:21:53Z</time>
      </trkpt>
      <trkpt lat="42.0250750" lon="-7.6172070">
        <ele>642.9</ele>
        <time>2019-08-17T11:21:54Z</time>
      </trkpt>
      <trkpt lat="42.0251100" lon="-7.6172820">
        <ele>642.7</ele>
        <time>2019-08-17T11:21:55Z</time>
      </trkpt>
      <trkpt lat="42.0251460" lon="-7.6173570">
        <ele>642.6</ele>
        <time>2019-08-17T11:21:56Z</time>
      </trkpt>
      <trkpt lat="42.0251810" lon="-7.6174320">
        <ele>642.5</ele>
        <time>2019-08-17T11:21:57Z</time>
      </trkpt>
      <trkpt lat="42.0252160" lon="-7.6175060">
        <ele>642.4</ele>
        <time>2019-08-17T11:21:58Z</time>
      </trkpt>
      <trkpt lat="42.0252510" lon="-7.6175810">
        <ele>642.3</ele>
        <time>2019-08-17T11:21:59Z</time>
      </trkpt>
      <trkpt lat="42.0252860" lon="-7.6176560">
        <ele>642.1</ele>
        <time>2019-08-17T11:22:00Z</time>
      </trkpt>
      <trkpt lat="42.0253210" lon="-7.6177300">
        <ele>641.9</ele>
        <time>2019-08-17T11:22:01Z</time>
      </trkpt>
      <trkpt lat="42.0253550" lon="-7.6178050">
        <ele>641.7</ele>
        <time>2019-08-17T11:22:02Z</time>
      </trkpt>
      <trkpt lat="42.0253910" lon="-7.6178800">
        <ele>641.5</ele>
        <time>2019-08-17T11:22:03Z</time>
      </trkpt>
      <trkpt lat="42.0254250" lon="-7.6179540">
        <ele>641.3</ele>
        <time>2019-08-17T11:22:04Z</time>
      </trkpt>
      <trkpt lat="42.0254600" lon="-7.6180260">
        <ele>641.2</ele>
        <time>2019-08-17T11:22:05Z</time>
      </trkpt>
      <trkpt lat="42.0254940" lon="-7.6180980">
        <ele>641.1</ele>
        <time>2019-08-17T11:22:06Z</time>
      </trkpt>
      <trkpt lat="42.0255270" lon="-7.6181670">
        <ele>641.1</ele>
        <time>2019-08-17T11:22:07Z</time>
      </trkpt>
      <trkpt lat="42.0255600" lon="-7.6182340">
        <ele>641.2</ele>
        <time>2019-08-17T11:22:08Z</time>
      </trkpt>
      <trkpt lat="42.0255920" lon="-7.6183000">
        <ele>641.3</ele>
        <time>2019-08-17T11:22:09Z</time>
      </trkpt>
      <trkpt lat="42.0256240" lon="-7.6183660">
        <ele>641.4</ele>
        <time>2019-08-17T11:22:10Z</time>
      </trkpt>
      <trkpt lat="42.0256560" lon="-7.6184310">
        <ele>641.4</ele>
        <time>2019-08-17T11:22:11Z</time>
      </trkpt>
      <trkpt lat="42.0256880" lon="-7.6184960">
        <ele>641.4</ele>
        <time>2019-08-17T11:22:12Z</time>
      </trkpt>
      <trkpt lat="42.0257200" lon="-7.6185630">
        <ele>641.3</ele>
        <time>2019-08-17T11:22:13Z</time>
      </trkpt>
      <trkpt lat="42.0257520" lon="-7.6186300">
        <ele>641.3</ele>
        <time>2019-08-17T11:22:14Z</time>
      </trkpt>
      <trkpt lat="42.0257850" lon="-7.6187000">
        <ele>641.3</ele>
        <time>2019-08-17T11:22:15Z</time>
      </trkpt>
      <trkpt lat="42.0258190" lon="-7.6187710">
        <ele>641.3</ele>
        <time>2019-08-17T11:22:16Z</time>
      </trkpt>
      <trkpt lat="42.0258530" lon="-7.6188430">
        <ele>641.2</ele>
        <time>2019-08-17T11:22:17Z</time>
      </trkpt>
      <trkpt lat="42.0258870" lon="-7.6189160">
        <ele>641.2</ele>
        <time>2019-08-17T11:22:18Z</time>
      </trkpt>
      <trkpt lat="42.0259220" lon="-7.6189910">
        <ele>641.1</ele>
        <time>2019-08-17T11:22:19Z</time>
      </trkpt>
      <trkpt lat="42.0259580" lon="-7.6190660">
        <ele>641.0</ele>
        <time>2019-08-17T11:22:20Z</time>
      </trkpt>
      <trkpt lat="42.0259930" lon="-7.6191420">
        <ele>641.1</ele>
        <time>2019-08-17T11:22:21Z</time>
      </trkpt>
      <trkpt lat="42.0260300" lon="-7.6192180">
        <ele>641.1</ele>
        <time>2019-08-17T11:22:22Z</time>
      </trkpt>
      <trkpt lat="42.0260660" lon="-7.6192950">
        <ele>641.0</ele>
        <time>2019-08-17T11:22:23Z</time>
      </trkpt>
      <trkpt lat="42.0261030" lon="-7.6193720">
        <ele>641.1</ele>
        <time>2019-08-17T11:22:24Z</time>
      </trkpt>
      <trkpt lat="42.0261400" lon="-7.6194480">
        <ele>641.2</ele>
        <time>2019-08-17T11:22:25Z</time>
      </trkpt>
      <trkpt lat="42.0261770" lon="-7.6195250">
        <ele>641.2</ele>
        <time>2019-08-17T11:22:26Z</time>
      </trkpt>
      <trkpt lat="42.0262140" lon="-7.6196020">
        <ele>641.2</ele>
        <time>2019-08-17T11:22:27Z</time>
      </trkpt>
      <trkpt lat="42.0262520" lon="-7.6196780">
        <ele>641.2</ele>
        <time>2019-08-17T11:22:28Z</time>
      </trkpt>
      <trkpt lat="42.0262880" lon="-7.6197550">
        <ele>641.3</ele>
        <time>2019-08-17T11:22:29Z</time>
      </trkpt>
      <trkpt lat="42.0263250" lon="-7.6198320">
        <ele>641.3</ele>
        <time>2019-08-17T11:22:30Z</time>
      </trkpt>
      <trkpt lat="42.0263620" lon="-7.6199080">
        <ele>641.4</ele>
        <time>2019-08-17T11:22:31Z</time>
      </trkpt>
      <trkpt lat="42.0263980" lon="-7.6199840">
        <ele>641.5</ele>
        <time>2019-08-17T11:22:32Z</time>
      </trkpt>
      <trkpt lat="42.0264340" lon="-7.6200600">
        <ele>641.7</ele>
        <time>2019-08-17T11:22:33Z</time>
      </trkpt>
      <trkpt lat="42.0264700" lon="-7.6201350">
        <ele>641.8</ele>
        <time>2019-08-17T11:22:34Z</time>
      </trkpt>
      <trkpt lat="42.0265060" lon="-7.6202100">
        <ele>641.9</ele>
        <time>2019-08-17T11:22:35Z</time>
      </trkpt>
      <trkpt lat="42.0265420" lon="-7.6202840">
        <ele>642.0</ele>
        <time>2019-08-17T11:22:36Z</time>
      </trkpt>
      <trkpt lat="42.0265770" lon="-7.6203580">
        <ele>642.1</ele>
        <time>2019-08-17T11:22:37Z</time>
      </trkpt>
      <trkpt lat="42.0266120" lon="-7.6204310">
        <ele>642.2</ele>
        <time>2019-08-17T11:22:38Z</time>
      </trkpt>
      <trkpt lat="42.0266480" lon="-7.6205040">
        <ele>642.3</ele>
        <time>2019-08-17T11:22:39Z</time>
      </trkpt>
      <trkpt lat="42.0266830" lon="-7.6205750">
        <ele>642.4</ele>
        <time>2019-08-17T11:22:40Z</time>
      </trkpt>
      <trkpt lat="42.0267180" lon="-7.6206460">
        <ele>642.6</ele>
        <time>2019-08-17T11:22:41Z</time>
      </trkpt>
      <trkpt lat="42.0267530" lon="-7.6207160">
        <ele>642.7</ele>
        <time>2019-08-17T11:22:42Z</time>
      </trkpt>
      <trkpt lat="42.0267890" lon="-7.6207850">
        <ele>642.8</ele>
        <time>2019-08-17T11:22:43Z</time>
      </trkpt>
      <trkpt lat="42.0268240" lon="-7.6208540">
        <ele>642.9</ele>
        <time>2019-08-17T11:22:44Z</time>
      </trkpt>
      <trkpt lat="42.0268590" lon="-7.6209210">
        <ele>643.1</ele>
        <time>2019-08-17T11:22:45Z</time>
      </trkpt>
      <trkpt lat="42.0268940" lon="-7.6209870">
        <ele>643.2</ele>
        <time>2019-08-17T11:22:46Z</time>
      </trkpt>
      <trkpt lat="42.0269290" lon="-7.6210520">
        <ele>643.3</ele>
        <time>2019-08-17T11:22:47Z</time>
      </trkpt>
      <trkpt lat="42.0269650" lon="-7.6211160">
        <ele>643.3</ele>
        <time>2019-08-17T11:22:48Z</time>
      </trkpt>
      <trkpt lat="42.0270000" lon="-7.6211800">
        <ele>643.3</ele>
        <time>2019-08-17T11:22:49Z</time>
      </trkpt>
      <trkpt lat="42.0270360" lon="-7.6212430">
        <ele>643.3</ele>
        <time>2019-08-17T11:22:50Z</time>
      </trkpt>
      <trkpt lat="42.0270710" lon="-7.6213060">
        <ele>643.4</ele>
        <time>2019-08-17T11:22:51Z</time>
      </trkpt>
      <trkpt lat="42.0271070" lon="-7.6213690">
        <ele>643.4</ele>
        <time>2019-08-17T11:22:52Z</time>
      </trkpt>
      <trkpt lat="42.0271430" lon="-7.6214320">
        <ele>643.5</ele>
        <time>2019-08-17T11:22:53Z</time>
      </trkpt>
      <trkpt lat="42.0271790" lon="-7.6214950">
        <ele>643.5</ele>
        <time>2019-08-17T11:22:54Z</time>
      </trkpt>
      <trkpt lat="42.0272150" lon="-7.6215590">
        <ele>643.6</ele>
        <time>2019-08-17T11:22:55Z</time>
      </trkpt>
      <trkpt lat="42.0272520" lon="-7.6216220">
        <ele>643.6</ele>
        <time>2019-08-17T11:22:56Z</time>
      </trkpt>
      <trkpt lat="42.0272880" lon="-7.6216860">
        <ele>643.6</ele>
        <time>2019-08-17T11:22:57Z</time>
      </trkpt>
      <trkpt lat="42.0273250" lon="-7.6217500">
        <ele>643.5</ele>
        <time>2019-08-17T11:22:58Z</time>
      </trkpt>
      <trkpt lat="42.0273610" lon="-7.6218150">
        <ele>643.5</ele>
        <time>2019-08-17T11:22:59Z</time>
      </trkpt>
      <trkpt lat="42.0273970" lon="-7.6218790">
        <ele>643.5</ele>
        <time>2019-08-17T11:23:00Z</time>
      </trkpt>
      <trkpt lat="42.0274340" lon="-7.6219440">
        <ele>643.5</ele>
        <time>2019-08-17T11:23:01Z</time>
      </trkpt>
      <trkpt lat="42.0274700" lon="-7.6220100">
        <ele>643.5</ele>
        <time>2019-08-17T11:23:02Z</time>
      </trkpt>
      <trkpt lat="42.0275060" lon="-7.6220750">
        <ele>643.4</ele>
        <time>2019-08-17T11:23:03Z</time>
      </trkpt>
      <trkpt lat="42.0275420" lon="-7.6221410">
        <ele>643.4</ele>
        <time>2019-08-17T11:23:04Z</time>
      </trkpt>
      <trkpt lat="42.0275780" lon="-7.6222060">
        <ele>643.5</ele>
        <time>2019-08-17T11:23:05Z</time>
      </trkpt>
      <trkpt lat="42.0276130" lon="-7.6222730">
        <ele>643.5</ele>
        <time>2019-08-17T11:23:06Z</time>
      </trkpt>
      <trkpt lat="42.0276490" lon="-7.6223390">
        <ele>643.5</ele>
        <time>2019-08-17T11:23:07Z</time>
      </trkpt>
      <trkpt lat="42.0276840" lon="-7.6224050">
        <ele>643.5</ele>
        <time>2019-08-17T11:23:08Z</time>
      </trkpt>
      <trkpt lat="42.0277190" lon="-7.6224720">
        <ele>643.5</ele>
        <time>2019-08-17T11:23:09Z</time>
      </trkpt>
      <trkpt lat="42.0277540" lon="-7.6225390">
        <ele>643.5</ele>
        <time>2019-08-17T11:23:10Z</time>
      </trkpt>
      <trkpt lat="42.0277880" lon="-7.6226060">
        <ele>643.5</ele>
        <time>2019-08-17T11:23:11Z</time>
      </trkpt>
      <trkpt lat="42.0278230" lon="-7.6226740">
        <ele>643.4</ele>
        <time>2019-08-17T11:23:12Z</time>
      </trkpt>
      <trkpt lat="42.0278570" lon="-7.6227420">
        <ele>643.3</ele>
        <time>2019-08-17T11:23:13Z</time>
      </trkpt>
      <trkpt lat="42.0278910" lon="-7.6228100">
        <ele>643.3</ele>
        <time>2019-08-17T11:23:14Z</time>
      </trkpt>
      <trkpt lat="42.0279240" lon="-7.6228790">
        <ele>643.2</ele>
        <time>2019-08-17T11:23:15Z</time>
      </trkpt>
      <trkpt lat="42.0279580" lon="-7.6229480">
        <ele>643.0</ele>
        <time>2019-08-17T11:23:16Z</time>
      </trkpt>
      <trkpt lat="42.0279910" lon="-7.6230180">
        <ele>642.9</ele>
        <time>2019-08-17T11:23:17Z</time>
      </trkpt>
      <trkpt lat="42.0280250" lon="-7.6230880">
        <ele>642.8</ele>
        <time>2019-08-17T11:23:18Z</time>
      </trkpt>
      <trkpt lat="42.0280580" lon="-7.6231590">
        <ele>642.7</ele>
        <time>2019-08-17T11:23:19Z</time>
      </trkpt>
      <trkpt lat="42.0280910" lon="-7.6232300">
        <ele>642.5</ele>
        <time>2019-08-17T11:23:20Z</time>
      </trkpt>
      <trkpt lat="42.0281250" lon="-7.6233030">
        <ele>642.4</ele>
        <time>2019-08-17T11:23:21Z</time>
      </trkpt>
      <trkpt lat="42.0281580" lon="-7.6233760">
        <ele>642.2</ele>
        <time>2019-08-17T11:23:22Z</time>
      </trkpt>
      <trkpt lat="42.0281920" lon="-7.6234510">
        <ele>642.1</ele>
        <time>2019-08-17T11:23:23Z</time>
      </trkpt>
      <trkpt lat="42.0282260" lon="-7.6235260">
        <ele>642.0</ele>
        <time>2019-08-17T11:23:24Z</time>
      </trkpt>
      <trkpt lat="42.0282600" lon="-7.6236030">
        <ele>641.9</ele>
        <time>2019-08-17T11:23:25Z</time>
      </trkpt>
      <trkpt lat="42.0282950" lon="-7.6236810">
        <ele>641.7</ele>
        <time>2019-08-17T11:23:26Z</time>
      </trkpt>
      <trkpt lat="42.0283290" lon="-7.6237600">
        <ele>641.6</ele>
        <time>2019-08-17T11:23:27Z</time>
      </trkpt>
      <trkpt lat="42.0283640" lon="-7.6238400">
        <ele>641.4</ele>
        <time>2019-08-17T11:23:28Z</time>
      </trkpt>
      <trkpt lat="42.0283990" lon="-7.6239210">
        <ele>641.3</ele>
        <time>2019-08-17T11:23:29Z</time>
      </trkpt>
      <trkpt lat="42.0284330" lon="-7.6240040">
        <ele>641.1</ele>
        <time>2019-08-17T11:23:30Z</time>
      </trkpt>
      <trkpt lat="42.0284680" lon="-7.6240870">
        <ele>640.9</ele>
        <time>2019-08-17T11:23:31Z</time>
      </trkpt>
      <trkpt lat="42.0285020" lon="-7.6241700">
        <ele>640.7</ele>
        <time>2019-08-17T11:23:32Z</time>
      </trkpt>
      <trkpt lat="42.0285360" lon="-7.6242550">
        <ele>640.6</ele>
        <time>2019-08-17T11:23:33Z</time>
      </trkpt>
      <trkpt lat="42.0285700" lon="-7.6243410">
        <ele>640.5</ele>
        <time>2019-08-17T11:23:34Z</time>
      </trkpt>
      <trkpt lat="42.0286040" lon="-7.6244270">
        <ele>640.3</ele>
        <time>2019-08-17T11:23:35Z</time>
      </trkpt>
      <trkpt lat="42.0286380" lon="-7.6245140">
        <ele>640.1</ele>
        <time>2019-08-17T11:23:36Z</time>
      </trkpt>
      <trkpt lat="42.0286720" lon="-7.6246020">
        <ele>640.0</ele>
        <time>2019-08-17T11:23:37Z</time>
      </trkpt>
      <trkpt lat="42.0287060" lon="-7.6246910">
        <ele>639.7</ele>
        <time>2019-08-17T11:23:38Z</time>
      </trkpt>
      <trkpt lat="42.0287410" lon="-7.6247810">
        <ele>639.5</ele>
        <time>2019-08-17T11:23:39Z</time>
      </trkpt>
      <trkpt lat="42.0287760" lon="-7.6248720">
        <ele>639.2</ele>
        <time>2019-08-17T11:23:40Z</time>
      </trkpt>
      <trkpt lat="42.0288120" lon="-7.6249630">
        <ele>638.9</ele>
        <time>2019-08-17T11:23:41Z</time>
      </trkpt>
      <trkpt lat="42.0288490" lon="-7.6250550">
        <ele>638.7</ele>
        <time>2019-08-17T11:23:42Z</time>
      </trkpt>
      <trkpt lat="42.0288850" lon="-7.6251480">
        <ele>638.6</ele>
        <time>2019-08-17T11:23:43Z</time>
      </trkpt>
      <trkpt lat="42.0289220" lon="-7.6252410">
        <ele>638.5</ele>
        <time>2019-08-17T11:23:44Z</time>
      </trkpt>
      <trkpt lat="42.0289600" lon="-7.6253350">
        <ele>638.4</ele>
        <time>2019-08-17T11:23:45Z</time>
      </trkpt>
      <trkpt lat="42.0289970" lon="-7.6254300">
        <ele>638.2</ele>
        <time>2019-08-17T11:23:46Z</time>
      </trkpt>
      <trkpt lat="42.0290350" lon="-7.6255250">
        <ele>637.9</ele>
        <time>2019-08-17T11:23:47Z</time>
      </trkpt>
      <trkpt lat="42.0290740" lon="-7.6256200">
        <ele>637.6</ele>
        <time>2019-08-17T11:23:48Z</time>
      </trkpt>
      <trkpt lat="42.0291120" lon="-7.6257160">
        <ele>637.3</ele>
        <time>2019-08-17T11:23:49Z</time>
      </trkpt>
      <trkpt lat="42.0291510" lon="-7.6258130">
        <ele>637.0</ele>
        <time>2019-08-17T11:23:50Z</time>
      </trkpt>
      <trkpt lat="42.0291900" lon="-7.6259100">
        <ele>636.8</ele>
        <time>2019-08-17T11:23:51Z</time>
      </trkpt>
      <trkpt lat="42.0292280" lon="-7.6260070">
        <ele>636.5</ele>
        <time>2019-08-17T11:23:52Z</time>
      </trkpt>
      <trkpt lat="42.0292670" lon="-7.6261040">
        <ele>636.3</ele>
        <time>2019-08-17T11:23:53Z</time>
      </trkpt>
      <trkpt lat="42.0293060" lon="-7.6262010">
        <ele>636.1</ele>
        <time>2019-08-17T11:23:54Z</time>
      </trkpt>
      <trkpt lat="42.0293450" lon="-7.6262990">
        <ele>635.9</ele>
        <time>2019-08-17T11:23:55Z</time>
      </trkpt>
      <trkpt lat="42.0293840" lon="-7.6263960">
        <ele>635.6</ele>
        <time>2019-08-17T11:23:56Z</time>
      </trkpt>
      <trkpt lat="42.0294220" lon="-7.6264940">
        <ele>635.4</ele>
        <time>2019-08-17T11:23:57Z</time>
      </trkpt>
      <trkpt lat="42.0294610" lon="-7.6265920">
        <ele>635.1</ele>
        <time>2019-08-17T11:23:58Z</time>
      </trkpt>
      <trkpt lat="42.0294990" lon="-7.6266890">
        <ele>635.0</ele>
        <time>2019-08-17T11:23:59Z</time>
      </trkpt>
      <trkpt lat="42.0295380" lon="-7.6267870">
        <ele>634.9</ele>
        <time>2019-08-17T11:24:00Z</time>
      </trkpt>
      <trkpt lat="42.0295760" lon="-7.6268840">
        <ele>634.8</ele>
        <time>2019-08-17T11:24:01Z</time>
      </trkpt>
      <trkpt lat="42.0296150" lon="-7.6269820">
        <ele>634.7</ele>
        <time>2019-08-17T11:24:02Z</time>
      </trkpt>
      <trkpt lat="42.0296530" lon="-7.6270800">
        <ele>634.5</ele>
        <time>2019-08-17T11:24:03Z</time>
      </trkpt>
      <trkpt lat="42.0296920" lon="-7.6271770">
        <ele>634.3</ele>
        <time>2019-08-17T11:24:04Z</time>
      </trkpt>
      <trkpt lat="42.0297300" lon="-7.6272750">
        <ele>634.1</ele>
        <time>2019-08-17T11:24:05Z</time>
      </trkpt>
      <trkpt lat="42.0297690" lon="-7.6273730">
        <ele>633.8</ele>
        <time>2019-08-17T11:24:06Z</time>
      </trkpt>
      <trkpt lat="42.0298080" lon="-7.6274710">
        <ele>633.5</ele>
        <time>2019-08-17T11:24:07Z</time>
      </trkpt>
      <trkpt lat="42.0298470" lon="-7.6275700">
        <ele>633.2</ele>
        <time>2019-08-17T11:24:08Z</time>
      </trkpt>
      <trkpt lat="42.0298860" lon="-7.6276680">
        <ele>632.9</ele>
        <time>2019-08-17T11:24:09Z</time>
      </trkpt>
      <trkpt lat="42.0299250" lon="-7.6277680">
        <ele>632.7</ele>
        <time>2019-08-17T11:24:10Z</time>
      </trkpt>
      <trkpt lat="42.0299650" lon="-7.6278680">
        <ele>632.5</ele>
        <time>2019-08-17T11:24:11Z</time>
      </trkpt>
      <trkpt lat="42.0300040" lon="-7.6279680">
        <ele>632.4</ele>
        <time>2019-08-17T11:24:12Z</time>
      </trkpt>
      <trkpt lat="42.0300440" lon="-7.6280680">
        <ele>632.2</ele>
        <time>2019-08-17T11:24:13Z</time>
      </trkpt>
      <trkpt lat="42.0300840" lon="-7.6281690">
        <ele>632.1</ele>
        <time>2019-08-17T11:24:14Z</time>
      </trkpt>
      <trkpt lat="42.0301240" lon="-7.6282690">
        <ele>631.9</ele>
        <time>2019-08-17T11:24:15Z</time>
      </trkpt>
      <trkpt lat="42.0301640" lon="-7.6283700">
        <ele>631.8</ele>
        <time>2019-08-17T11:24:16Z</time>
      </trkpt>
      <trkpt lat="42.0302040" lon="-7.6284700">
        <ele>631.6</ele>
        <time>2019-08-17T11:24:17Z</time>
      </trkpt>
      <trkpt lat="42.0302440" lon="-7.6285690">
        <ele>631.5</ele>
        <time>2019-08-17T11:24:18Z</time>
      </trkpt>
      <trkpt lat="42.0302830" lon="-7.6286680">
        <ele>631.4</ele>
        <time>2019-08-17T11:24:19Z</time>
      </trkpt>
      <trkpt lat="42.0303230" lon="-7.6287670">
        <ele>631.4</ele>
        <time>2019-08-17T11:24:20Z</time>
      </trkpt>
      <trkpt lat="42.0303620" lon="-7.6288640">
        <ele>631.3</ele>
        <time>2019-08-17T11:24:21Z</time>
      </trkpt>
      <trkpt lat="42.0304010" lon="-7.6289610">
        <ele>631.2</ele>
        <time>2019-08-17T11:24:22Z</time>
      </trkpt>
      <trkpt lat="42.0304400" lon="-7.6290570">
        <ele>631.1</ele>
        <time>2019-08-17T11:24:23Z</time>
      </trkpt>
      <trkpt lat="42.0304780" lon="-7.6291520">
        <ele>631.0</ele>
        <time>2019-08-17T11:24:24Z</time>
      </trkpt>
      <trkpt lat="42.0305170" lon="-7.6292460">
        <ele>630.9</ele>
        <time>2019-08-17T11:24:25Z</time>
      </trkpt>
      <trkpt lat="42.0305550" lon="-7.6293390">
        <ele>630.8</ele>
        <time>2019-08-17T11:24:26Z</time>
      </trkpt>
      <trkpt lat="42.0305920" lon="-7.6294310">
        <ele>630.7</ele>
        <time>2019-08-17T11:24:27Z</time>
      </trkpt>
      <trkpt lat="42.0306290" lon="-7.6295220">
        <ele>630.7</ele>
        <time>2019-08-17T11:24:28Z</time>
      </trkpt>
      <trkpt lat="42.0306660" lon="-7.6296120">
        <ele>630.7</ele>
        <time>2019-08-17T11:24:29Z</time>
      </trkpt>
      <trkpt lat="42.0307020" lon="-7.6297000">
        <ele>630.6</ele>
        <time>2019-08-17T11:24:30Z</time>
      </trkpt>
      <trkpt lat="42.0307380" lon="-7.6297880">
        <ele>630.5</ele>
        <time>2019-08-17T11:24:31Z</time>
      </trkpt>
      <trkpt lat="42.0307740" lon="-7.6298750">
        <ele>630.4</ele>
        <time>2019-08-17T11:24:32Z</time>
      </trkpt>
      <trkpt lat="42.0308080" lon="-7.6299610">
        <ele>630.3</ele>
        <time>2019-08-17T11:24:33Z</time>
      </trkpt>
      <trkpt lat="42.0308420" lon="-7.6300460">
        <ele>630.3</ele>
        <time>2019-08-17T11:24:34Z</time>
      </trkpt>
      <trkpt lat="42.0308760" lon="-7.6301300">
        <ele>630.2</ele>
        <time>2019-08-17T11:24:35Z</time>
      </trkpt>
      <trkpt lat="42.0309090" lon="-7.6302130">
        <ele>630.3</ele>
        <time>2019-08-17T11:24:36Z</time>
      </trkpt>
      <trkpt lat="42.0309410" lon="-7.6302950">
        <ele>630.3</ele>
        <time>2019-08-17T11:24:37Z</time>
      </trkpt>
      <trkpt lat="42.0309730" lon="-7.6303770">
        <ele>630.4</ele>
        <time>2019-08-17T11:24:38Z</time>
      </trkpt>
      <trkpt lat="42.0310050" lon="-7.6304580">
        <ele>630.4</ele>
        <time>2019-08-17T11:24:39Z</time>
      </trkpt>
      <trkpt lat="42.0310370" lon="-7.6305390">
        <ele>630.5</ele>
        <time>2019-08-17T11:24:40Z</time>
      </trkpt>
      <trkpt lat="42.0310690" lon="-7.6306200">
        <ele>630.5</ele>
        <time>2019-08-17T11:24:41Z</time>
      </trkpt>
      <trkpt lat="42.0311010" lon="-7.6307000">
        <ele>630.5</ele>
        <time>2019-08-17T11:24:42Z</time>
      </trkpt>
      <trkpt lat="42.0311330" lon="-7.6307810">
        <ele>630.6</ele>
        <time>2019-08-17T11:24:43Z</time>
      </trkpt>
      <trkpt lat="42.0311650" lon="-7.6308610">
        <ele>630.6</ele>
        <time>2019-08-17T11:24:44Z</time>
      </trkpt>
      <trkpt lat="42.0311970" lon="-7.6309410">
        <ele>630.6</ele>
        <time>2019-08-17T11:24:45Z</time>
      </trkpt>
      <trkpt lat="42.0312290" lon="-7.6310220">
        <ele>630.7</ele>
        <time>2019-08-17T11:24:46Z</time>
      </trkpt>
      <trkpt lat="42.0312620" lon="-7.6311020">
        <ele>630.7</ele>
        <time>2019-08-17T11:24:47Z</time>
      </trkpt>
      <trkpt lat="42.0312940" lon="-7.6311820">
        <ele>630.7</ele>
        <time>2019-08-17T11:24:48Z</time>
      </trkpt>
      <trkpt lat="42.0313260" lon="-7.6312620">
        <ele>630.8</ele>
        <time>2019-08-17T11:24:49Z</time>
      </trkpt>
      <trkpt lat="42.0313590" lon="-7.6313410">
        <ele>630.8</ele>
        <time>2019-08-17T11:24:50Z</time>
      </trkpt>
      <trkpt lat="42.0313910" lon="-7.6314210">
        <ele>630.8</ele>
        <time>2019-08-17T11:24:51Z</time>
      </trkpt>
      <trkpt lat="42.0314220" lon="-7.6315000">
        <ele>630.9</ele>
        <time>2019-08-17T11:24:52Z</time>
      </trkpt>
      <trkpt lat="42.0314540" lon="-7.6315790">
        <ele>630.9</ele>
        <time>2019-08-17T11:24:53Z</time>
      </trkpt>
      <trkpt lat="42.0314860" lon="-7.6316590">
        <ele>631.0</ele>
        <time>2019-08-17T11:24:54Z</time>
      </trkpt>
      <trkpt lat="42.0315170" lon="-7.6317380">
        <ele>631.0</ele>
        <time>2019-08-17T11:24:55Z</time>
      </trkpt>
      <trkpt lat="42.0315490" lon="-7.6318170">
        <ele>631.0</ele>
        <time>2019-08-17T11:24:56Z</time>
      </trkpt>
      <trkpt lat="42.0315800" lon="-7.6318950">
        <ele>631.1</ele>
        <time>2019-08-17T11:24:57Z</time>
      </trkpt>
      <trkpt lat="42.0316110" lon="-7.6319740">
        <ele>631.1</ele>
        <time>2019-08-17T11:24:58Z</time>
      </trkpt>
      <trkpt lat="42.0316420" lon="-7.6320530">
        <ele>631.1</ele>
        <time>2019-08-17T11:24:59Z</time>
      </trkpt>
      <trkpt lat="42.0316730" lon="-7.6321320">
        <ele>631.1</ele>
        <time>2019-08-17T11:25:00Z</time>
      </trkpt>
      <trkpt lat="42.0317050" lon="-7.6322110">
        <ele>631.2</ele>
        <time>2019-08-17T11:25:01Z</time>
      </trkpt>
      <trkpt lat="42.0317360" lon="-7.6322900">
        <ele>631.2</ele>
        <time>2019-08-17T11:25:02Z</time>
      </trkpt>
      <trkpt lat="42.0317670" lon="-7.6323690">
        <ele>631.2</ele>
        <time>2019-08-17T11:25:03Z</time>
      </trkpt>
      <trkpt lat="42.0317980" lon="-7.6324480">
        <ele>631.3</ele>
        <time>2019-08-17T11:25:04Z</time>
      </trkpt>
      <trkpt lat="42.0318290" lon="-7.6325270">
        <ele>631.3</ele>
        <time>2019-08-17T11:25:05Z</time>
      </trkpt>
      <trkpt lat="42.0318610" lon="-7.6326060">
        <ele>631.3</ele>
        <time>2019-08-17T11:25:06Z</time>
      </trkpt>
      <trkpt lat="42.0318920" lon="-7.6326850">
        <ele>631.4</ele>
        <time>2019-08-17T11:25:07Z</time>
      </trkpt>
      <trkpt lat="42.0319230" lon="-7.6327640">
        <ele>631.4</ele>
        <time>2019-08-17T11:25:08Z</time>
      </trkpt>
      <trkpt lat="42.0319550" lon="-7.6328430">
        <ele>631.4</ele>
        <time>2019-08-17T11:25:09Z</time>
      </trkpt>
      <trkpt lat="42.0319860" lon="-7.6329220">
        <ele>631.4</ele>
        <time>2019-08-17T11:25:10Z</time>
      </trkpt>
      <trkpt lat="42.0320170" lon="-7.6330000">
        <ele>631.5</ele>
        <time>2019-08-17T11:25:11Z</time>
      </trkpt>
      <trkpt lat="42.0320480" lon="-7.6330770">
        <ele>631.5</ele>
        <time>2019-08-17T11:25:12Z</time>
      </trkpt>
      <trkpt lat="42.0320800" lon="-7.6331540">
        <ele>631.5</ele>
        <time>2019-08-17T11:25:13Z</time>
      </trkpt>
      <trkpt lat="42.0321100" lon="-7.6332300">
        <ele>631.5</ele>
        <time>2019-08-17T11:25:14Z</time>
      </trkpt>
      <trkpt lat="42.0321410" lon="-7.6333060">
        <ele>631.5</ele>
        <time>2019-08-17T11:25:15Z</time>
      </trkpt>
      <trkpt lat="42.0321720" lon="-7.6333800">
        <ele>631.5</ele>
        <time>2019-08-17T11:25:16Z</time>
      </trkpt>
      <trkpt lat="42.0322020" lon="-7.6334540">
        <ele>631.5</ele>
        <time>2019-08-17T11:25:17Z</time>
      </trkpt>
      <trkpt lat="42.0322310" lon="-7.6335270">
        <ele>631.6</ele>
        <time>2019-08-17T11:25:18Z</time>
      </trkpt>
      <trkpt lat="42.0322610" lon="-7.6335990">
        <ele>631.6</ele>
        <time>2019-08-17T11:25:19Z</time>
      </trkpt>
      <trkpt lat="42.0322890" lon="-7.6336700">
        <ele>631.6</ele>
        <time>2019-08-17T11:25:20Z</time>
      </trkpt>
      <trkpt lat="42.0323180" lon="-7.6337410">
        <ele>631.7</ele>
        <time>2019-08-17T11:25:21Z</time>
      </trkpt>
      <trkpt lat="42.0323450" lon="-7.6338100">
        <ele>631.8</ele>
        <time>2019-08-17T11:25:22Z</time>
      </trkpt>
      <trkpt lat="42.0323720" lon="-7.6338790">
        <ele>631.9</ele>
        <time>2019-08-17T11:25:23Z</time>
      </trkpt>
      <trkpt lat="42.0323990" lon="-7.6339480">
        <ele>632.0</ele>
        <time>2019-08-17T11:25:24Z</time>
      </trkpt>
      <trkpt lat="42.0324260" lon="-7.6340160">
        <ele>632.2</ele>
        <time>2019-08-17T11:25:25Z</time>
      </trkpt>
      <trkpt lat="42.0324520" lon="-7.6340840">
        <ele>632.3</ele>
        <time>2019-08-17T11:25:26Z</time>
      </trkpt>
      <trkpt lat="42.0324780" lon="-7.6341530">
        <ele>632.4</ele>
        <time>2019-08-17T11:25:27Z</time>
      </trkpt>
      <trkpt lat="42.0325050" lon="-7.6342220">
        <ele>632.5</ele>
        <time>2019-08-17T11:25:28Z</time>
      </trkpt>
      <trkpt lat="42.0325310" lon="-7.6342910">
        <ele>632.5</ele>
        <time>2019-08-17T11:25:29Z</time>
      </trkpt>
      <trkpt lat="42.0325580" lon="-7.6343620">
        <ele>632.6</ele>
        <time>2019-08-17T11:25:30Z</time>
      </trkpt>
      <trkpt lat="42.0325850" lon="-7.6344330">
        <ele>632.6</ele>
        <time>2019-08-17T11:25:31Z</time>
      </trkpt>
      <trkpt lat="42.0326120" lon="-7.6345050">
        <ele>632.6</ele>
        <time>2019-08-17T11:25:32Z</time>
      </trkpt>
      <trkpt lat="42.0326400" lon="-7.6345770">
        <ele>632.7</ele>
        <time>2019-08-17T11:25:33Z</time>
      </trkpt>
      <trkpt lat="42.0326670" lon="-7.6346490">
        <ele>632.7</ele>
        <time>2019-08-17T11:25:34Z</time>
      </trkpt>
      <trkpt lat="42.0326950" lon="-7.6347200">
        <ele>632.8</ele>
        <time>2019-08-17T11:25:35Z</time>
      </trkpt>
      <trkpt lat="42.0327240" lon="-7.6347920">
        <ele>632.9</ele>
        <time>2019-08-17T11:25:36Z</time>
      </trkpt>
      <trkpt lat="42.0327520" lon="-7.6348630">
        <ele>632.9</ele>
        <time>2019-08-17T11:25:37Z</time>
      </trkpt>
      <trkpt lat="42.0327810" lon="-7.6349330">
        <ele>633.0</ele>
        <time>2019-08-17T11:25:38Z</time>
      </trkpt>
      <trkpt lat="42.0328090" lon="-7.6350030">
        <ele>633.0</ele>
        <time>2019-08-17T11:25:39Z</time>
      </trkpt>
      <trkpt lat="42.0328380" lon="-7.6350720">
        <ele>633.1</ele>
        <time>2019-08-17T11:25:40Z</time>
      </trkpt>
      <trkpt lat="42.0328660" lon="-7.6351410">
        <ele>633.1</ele>
        <time>2019-08-17T11:25:41Z</time>
      </trkpt>
      <trkpt lat="42.0328940" lon="-7.6352090">
        <ele>633.1</ele>
        <time>2019-08-17T11:25:42Z</time>
      </trkpt>
      <trkpt lat="42.0329220" lon="-7.6352770">
        <ele>633.2</ele>
        <time>2019-08-17T11:25:43Z</time>
      </trkpt>
      <trkpt lat="42.0329490" lon="-7.6353440">
        <ele>633.2</ele>
        <time>2019-08-17T11:25:44Z</time>
      </trkpt>
      <trkpt lat="42.0329760" lon="-7.6354110">
        <ele>633.2</ele>
        <time>2019-08-17T11:25:45Z</time>
      </trkpt>
      <trkpt lat="42.0330020" lon="-7.6354780">
        <ele>633.2</ele>
        <time>2019-08-17T11:25:46Z</time>
      </trkpt>
      <trkpt lat="42.0330280" lon="-7.6355440">
        <ele>633.2</ele>
        <time>2019-08-17T11:25:47Z</time>
      </trkpt>
      <trkpt lat="42.0330540" lon="-7.6356110">
        <ele>633.2</ele>
        <time>2019-08-17T11:25:48Z</time>
      </trkpt>
      <trkpt lat="42.0330790" lon="-7.6356770">
        <ele>633.2</ele>
        <time>2019-08-17T11:25:49Z</time>
      </trkpt>
      <trkpt lat="42.0331050" lon="-7.6357440">
        <ele>633.2</ele>
        <time>2019-08-17T11:25:50Z</time>
      </trkpt>
      <trkpt lat="42.0331320" lon="-7.6358120">
        <ele>633.2</ele>
        <time>2019-08-17T11:25:51Z</time>
      </trkpt>
      <trkpt lat="42.0331590" lon="-7.6358790">
        <ele>633.2</ele>
        <time>2019-08-17T11:25:52Z</time>
      </trkpt>
      <trkpt lat="42.0331860" lon="-7.6359480">
        <ele>633.2</ele>
        <time>2019-08-17T11:25:53Z</time>
      </trkpt>
      <trkpt lat="42.0332130" lon="-7.6360160">
        <ele>633.2</ele>
        <time>2019-08-17T11:25:54Z</time>
      </trkpt>
      <trkpt lat="42.0332410" lon="-7.6360830">
        <ele>633.2</ele>
        <time>2019-08-17T11:25:55Z</time>
      </trkpt>
      <trkpt lat="42.0332680" lon="-7.6361490">
        <ele>633.3</ele>
        <time>2019-08-17T11:25:56Z</time>
      </trkpt>
      <trkpt lat="42.0332940" lon="-7.6362130">
        <ele>633.3</ele>
        <time>2019-08-17T11:25:57Z</time>
      </trkpt>
      <trkpt lat="42.0333200" lon="-7.6362760">
        <ele>633.3</ele>
        <time>2019-08-17T11:25:58Z</time>
      </trkpt>
      <trkpt lat="42.0333450" lon="-7.6363380">
        <ele>633.3</ele>
        <time>2019-08-17T11:25:59Z</time>
      </trkpt>
      <trkpt lat="42.0333710" lon="-7.6364010">
        <ele>633.3</ele>
        <time>2019-08-17T11:26:00Z</time>
      </trkpt>
      <trkpt lat="42.0333970" lon="-7.6364650">
        <ele>633.3</ele>
        <time>2019-08-17T11:26:01Z</time>
      </trkpt>
      <trkpt lat="42.0334240" lon="-7.6365300">
        <ele>633.3</ele>
        <time>2019-08-17T11:26:02Z</time>
      </trkpt>
      <trkpt lat="42.0334510" lon="-7.6365960">
        <ele>633.3</ele>
        <time>2019-08-17T11:26:03Z</time>
      </trkpt>
      <trkpt lat="42.0334780" lon="-7.6366620">
        <ele>633.2</ele>
        <time>2019-08-17T11:26:04Z</time>
      </trkpt>
      <trkpt lat="42.0335060" lon="-7.6367300">
        <ele>633.2</ele>
        <time>2019-08-17T11:26:05Z</time>
      </trkpt>
      <trkpt lat="42.0335330" lon="-7.6367970">
        <ele>633.2</ele>
        <time>2019-08-17T11:26:06Z</time>
      </trkpt>
      <trkpt lat="42.0335610" lon="-7.6368650">
        <ele>633.2</ele>
        <time>2019-08-17T11:26:07Z</time>
      </trkpt>
      <trkpt lat="42.0335880" lon="-7.6369320">
        <ele>633.2</ele>
        <time>2019-08-17T11:26:08Z</time>
      </trkpt>
      <trkpt lat="42.0336150" lon="-7.6370000">
        <ele>633.2</ele>
        <time>2019-08-17T11:26:09Z</time>
      </trkpt>
      <trkpt lat="42.0336420" lon="-7.6370670">
        <ele>633.2</ele>
        <time>2019-08-17T11:26:10Z</time>
      </trkpt>
      <trkpt lat="42.0336680" lon="-7.6371340">
        <ele>633.2</ele>
        <time>2019-08-17T11:26:11Z</time>
      </trkpt>
      <trkpt lat="42.0336950" lon="-7.6372020">
        <ele>633.2</ele>
        <time>2019-08-17T11:26:12Z</time>
      </trkpt>
      <trkpt lat="42.0337220" lon="-7.6372690">
        <ele>633.2</ele>
        <time>2019-08-17T11:26:13Z</time>
      </trkpt>
      <trkpt lat="42.0337480" lon="-7.6373360">
        <ele>633.1</ele>
        <time>2019-08-17T11:26:14Z</time>
      </trkpt>
      <trkpt lat="42.0337750" lon="-7.6374040">
        <ele>633.1</ele>
        <time>2019-08-17T11:26:15Z</time>
      </trkpt>
      <trkpt lat="42.0338020" lon="-7.6374720">
        <ele>633.0</ele>
        <time>2019-08-17T11:26:16Z</time>
      </trkpt>
      <trkpt lat="42.0338280" lon="-7.6375400">
        <ele>633.0</ele>
        <time>2019-08-17T11:26:17Z</time>
      </trkpt>
      <trkpt lat="42.0338550" lon="-7.6376080">
        <ele>632.9</ele>
        <time>2019-08-17T11:26:18Z</time>
      </trkpt>
      <trkpt lat="42.0338820" lon="-7.6376760">
        <ele>632.8</ele>
        <time>2019-08-17T11:26:19Z</time>
      </trkpt>
      <trkpt lat="42.0339090" lon="-7.6377450">
        <ele>632.7</ele>
        <time>2019-08-17T11:26:20Z</time>
      </trkpt>
      <trkpt lat="42.0339370" lon="-7.6378130">
        <ele>632.5</ele>
        <time>2019-08-17T11:26:21Z</time>
      </trkpt>
      <trkpt lat="42.0339640" lon="-7.6378830">
        <ele>632.4</ele>
        <time>2019-08-17T11:26:22Z</time>
      </trkpt>
      <trkpt lat="42.0339920" lon="-7.6379520">
        <ele>632.3</ele>
        <time>2019-08-17T11:26:23Z</time>
      </trkpt>
      <trkpt lat="42.0340200" lon="-7.6380220">
        <ele>632.2</ele>
        <time>2019-08-17T11:26:24Z</time>
      </trkpt>
      <trkpt lat="42.0340480" lon="-7.6380920">
        <ele>632.0</ele>
        <time>2019-08-17T11:26:25Z</time>
      </trkpt>
      <trkpt lat="42.0340760" lon="-7.6381630">
        <ele>631.9</ele>
        <time>2019-08-17T11:26:26Z</time>
      </trkpt>
      <trkpt lat="42.0341050" lon="-7.6382340">
        <ele>631.8</ele>
        <time>2019-08-17T11:26:27Z</time>
      </trkpt>
      <trkpt lat="42.0341340" lon="-7.6383060">
        <ele>631.6</ele>
        <time>2019-08-17T11:26:28Z</time>
      </trkpt>
      <trkpt lat="42.0341620" lon="-7.6383780">
        <ele>631.5</ele>
        <time>2019-08-17T11:26:29Z</time>
      </trkpt>
      <trkpt lat="42.0341910" lon="-7.6384510">
        <ele>631.3</ele>
        <time>2019-08-17T11:26:30Z</time>
      </trkpt>
      <trkpt lat="42.0342190" lon="-7.6385240">
        <ele>631.2</ele>
        <time>2019-08-17T11:26:31Z</time>
      </trkpt>
      <trkpt lat="42.0342470" lon="-7.6385980">
        <ele>631.0</ele>
        <time>2019-08-17T11:26:32Z</time>
      </trkpt>
      <trkpt lat="42.0342750" lon="-7.6386720">
        <ele>630.9</ele>
        <time>2019-08-17T11:26:33Z</time>
      </trkpt>
      <trkpt lat="42.0343030" lon="-7.6387470">
        <ele>630.8</ele>
        <time>2019-08-17T11:26:34Z</time>
      </trkpt>
      <trkpt lat="42.0343320" lon="-7.6388220">
        <ele>630.7</ele>
        <time>2019-08-17T11:26:35Z</time>
      </trkpt>
      <trkpt lat="42.0343600" lon="-7.6388980">
        <ele>630.6</ele>
        <time>2019-08-17T11:26:36Z</time>
      </trkpt>
      <trkpt lat="42.0343890" lon="-7.6389740">
        <ele>630.5</ele>
        <time>2019-08-17T11:26:37Z</time>
      </trkpt>
      <trkpt lat="42.0344180" lon="-7.6390500">
        <ele>630.4</ele>
        <time>2019-08-17T11:26:38Z</time>
      </trkpt>
      <trkpt lat="42.0344470" lon="-7.6391270">
        <ele>630.3</ele>
        <time>2019-08-17T11:26:39Z</time>
      </trkpt>
      <trkpt lat="42.0344770" lon="-7.6392030">
        <ele>630.3</ele>
        <time>2019-08-17T11:26:40Z</time>
      </trkpt>
      <trkpt lat="42.0345070" lon="-7.6392800">
        <ele>630.2</ele>
        <time>2019-08-17T11:26:41Z</time>
      </trkpt>
      <trkpt lat="42.0345370" lon="-7.6393570">
        <ele>630.1</ele>
        <time>2019-08-17T11:26:42Z</time>
      </trkpt>
      <trkpt lat="42.0345670" lon="-7.6394330">
        <ele>630.1</ele>
        <time>2019-08-17T11:26:43Z</time>
      </trkpt>
      <trkpt lat="42.0345970" lon="-7.6395090">
        <ele>630.1</ele>
        <time>2019-08-17T11:26:44Z</time>
      </trkpt>
      <trkpt lat="42.0346280" lon="-7.6395840">
        <ele>630.0</ele>
        <time>2019-08-17T11:26:45Z</time>
      </trkpt>
      <trkpt lat="42.0346580" lon="-7.6396590">
        <ele>630.0</ele>
        <time>2019-08-17T11:26:46Z</time>
      </trkpt>
      <trkpt lat="42.0346880" lon="-7.6397330">
        <ele>630.0</ele>
        <time>2019-08-17T11:26:47Z</time>
      </trkpt>
      <trkpt lat="42.0347180" lon="-7.6398070">
        <ele>629.9</ele>
        <time>2019-08-17T11:26:48Z</time>
      </trkpt>
      <trkpt lat="42.0347480" lon="-7.6398800">
        <ele>629.9</ele>
        <time>2019-08-17T11:26:49Z</time>
      </trkpt>
      <trkpt lat="42.0347770" lon="-7.6399530">
        <ele>629.9</ele>
        <time>2019-08-17T11:26:50Z</time>
      </trkpt>
      <trkpt lat="42.0348070" lon="-7.6400250">
        <ele>629.8</ele>
        <time>2019-08-17T11:26:51Z</time>
      </trkpt>
      <trkpt lat="42.0348360" lon="-7.6400970">
        <ele>629.8</ele>
        <time>2019-08-17T11:26:52Z</time>
      </trkpt>
      <trkpt lat="42.0348650" lon="-7.6401680">
        <ele>629.7</ele>
        <time>2019-08-17T11:26:53Z</time>
      </trkpt>
      <trkpt lat="42.0348930" lon="-7.6402400">
        <ele>629.7</ele>
        <time>2019-08-17T11:26:54Z</time>
      </trkpt>
      <trkpt lat="42.0349220" lon="-7.6403110">
        <ele>629.6</ele>
        <time>2019-08-17T11:26:55Z</time>
      </trkpt>
      <trkpt lat="42.0349500" lon="-7.6403820">
        <ele>629.6</ele>
        <time>2019-08-17T11:26:56Z</time>
      </trkpt>
      <trkpt lat="42.0349780" lon="-7.6404530">
        <ele>629.5</ele>
        <time>2019-08-17T11:26:57Z</time>
      </trkpt>
      <trkpt lat="42.0350060" lon="-7.6405240">
        <ele>629.5</ele>
        <time>2019-08-17T11:26:58Z</time>
      </trkpt>
      <trkpt lat="42.0350340" lon="-7.6405950">
        <ele>629.4</ele>
        <time>2019-08-17T11:26:59Z</time>
      </trkpt>
      <trkpt lat="42.0350610" lon="-7.6406660">
        <ele>629.3</ele>
        <time>2019-08-17T11:27:00Z</time>
      </trkpt>
      <trkpt lat="42.0350890" lon="-7.6407370">
        <ele>629.3</ele>
        <time>2019-08-17T11:27:01Z</time>
      </trkpt>
      <trkpt lat="42.0351170" lon="-7.6408080">
        <ele>629.2</ele>
        <time>2019-08-17T11:27:02Z</time>
      </trkpt>
      <trkpt lat="42.0351450" lon="-7.6408790">
        <ele>629.1</ele>
        <time>2019-08-17T11:27:03Z</time>
      </trkpt>
      <trkpt lat="42.0351740" lon="-7.6409500">
        <ele>629.0</ele>
        <time>2019-08-17T11:27:04Z</time>
      </trkpt>
      <trkpt lat="42.0352020" lon="-7.6410210">
        <ele>628.9</ele>
        <time>2019-08-17T11:27:05Z</time>
      </trkpt>
      <trkpt lat="42.0352300" lon="-7.6410910">
        <ele>628.9</ele>
        <time>2019-08-17T11:27:06Z</time>
      </trkpt>
      <trkpt lat="42.0352580" lon="-7.6411610">
        <ele>628.8</ele>
        <time>2019-08-17T11:27:07Z</time>
      </trkpt>
      <trkpt lat="42.0352860" lon="-7.6412300">
        <ele>628.8</ele>
        <time>2019-08-17T11:27:08Z</time>
      </trkpt>
      <trkpt lat="42.0353130" lon="-7.6412990">
        <ele>628.8</ele>
        <time>2019-08-17T11:27:09Z</time>
      </trkpt>
      <trkpt lat="42.0353410" lon="-7.6413670">
        <ele>628.8</ele>
        <time>2019-08-17T11:27:10Z</time>
      </trkpt>
      <trkpt lat="42.0353680" lon="-7.6414350">
        <ele>628.8</ele>
        <time>2019-08-17T11:27:11Z</time>
      </trkpt>
      <trkpt lat="42.0353950" lon="-7.6415020">
        <ele>628.7</ele>
        <time>2019-08-17T11:27:12Z</time>
      </trkpt>
      <trkpt lat="42.0354220" lon="-7.6415680">
        <ele>628.7</ele>
        <time>2019-08-17T11:27:13Z</time>
      </trkpt>
      <trkpt lat="42.0354480" lon="-7.6416350">
        <ele>628.6</ele>
        <time>2019-08-17T11:27:14Z</time>
      </trkpt>
      <trkpt lat="42.0354750" lon="-7.6417010">
        <ele>628.6</ele>
        <time>2019-08-17T11:27:15Z</time>
      </trkpt>
      <trkpt lat="42.0355010" lon="-7.6417670">
        <ele>628.6</ele>
        <time>2019-08-17T11:27:16Z</time>
      </trkpt>
      <trkpt lat="42.0355270" lon="-7.6418330">
        <ele>628.5</ele>
        <time>2019-08-17T11:27:17Z</time>
      </trkpt>
      <trkpt lat="42.0355540" lon="-7.6418990">
        <ele>628.5</ele>
        <time>2019-08-17T11:27:18Z</time>
      </trkpt>
      <trkpt lat="42.0355800" lon="-7.6419650">
        <ele>628.5</ele>
        <time>2019-08-17T11:27:19Z</time>
      </trkpt>
      <trkpt lat="42.0356070" lon="-7.6420320">
        <ele>628.4</ele>
        <time>2019-08-17T11:27:20Z</time>
      </trkpt>
      <trkpt lat="42.0356330" lon="-7.6420990">
        <ele>628.4</ele>
        <time>2019-08-17T11:27:21Z</time>
      </trkpt>
      <trkpt lat="42.0356600" lon="-7.6421670">
        <ele>628.5</ele>
        <time>2019-08-17T11:27:22Z</time>
      </trkpt>
      <trkpt lat="42.0356870" lon="-7.6422350">
        <ele>628.5</ele>
        <time>2019-08-17T11:27:23Z</time>
      </trkpt>
      <trkpt lat="42.0357140" lon="-7.6423030">
        <ele>628.5</ele>
        <time>2019-08-17T11:27:24Z</time>
      </trkpt>
      <trkpt lat="42.0357410" lon="-7.6423730">
        <ele>628.6</ele>
        <time>2019-08-17T11:27:25Z</time>
      </trkpt>
      <trkpt lat="42.0357680" lon="-7.6424440">
        <ele>628.7</ele>
        <time>2019-08-17T11:27:26Z</time>
      </trkpt>
      <trkpt lat="42.0357960" lon="-7.6425150">
        <ele>628.8</ele>
        <time>2019-08-17T11:27:27Z</time>
      </trkpt>
      <trkpt lat="42.0358240" lon="-7.6425860">
        <ele>629.0</ele>
        <time>2019-08-17T11:27:28Z</time>
      </trkpt>
      <trkpt lat="42.0358520" lon="-7.6426570">
        <ele>629.1</ele>
        <time>2019-08-17T11:27:29Z</time>
      </trkpt>
      <trkpt lat="42.0358800" lon="-7.6427290">
        <ele>629.3</ele>
        <time>2019-08-17T11:27:30Z</time>
      </trkpt>
      <trkpt lat="42.0359080" lon="-7.6427990">
        <ele>629.5</ele>
        <time>2019-08-17T11:27:31Z</time>
      </trkpt>
      <trkpt lat="42.0359360" lon="-7.6428690">
        <ele>629.7</ele>
        <time>2019-08-17T11:27:32Z</time>
      </trkpt>
      <trkpt lat="42.0359640" lon="-7.6429380">
        <ele>629.9</ele>
        <time>2019-08-17T11:27:33Z</time>
      </trkpt>
      <trkpt lat="42.0359910" lon="-7.6430060">
        <ele>630.1</ele>
        <time>2019-08-17T11:27:34Z</time>
      </trkpt>
      <trkpt lat="42.0360190" lon="-7.6430730">
        <ele>630.3</ele>
        <time>2019-08-17T11:27:35Z</time>
      </trkpt>
      <trkpt lat="42.0360460" lon="-7.6431380">
        <ele>630.5</ele>
        <time>2019-08-17T11:27:36Z</time>
      </trkpt>
      <trkpt lat="42.0360720" lon="-7.6432020">
        <ele>630.6</ele>
        <time>2019-08-17T11:27:37Z</time>
      </trkpt>
      <trkpt lat="42.0360980" lon="-7.6432650">
        <ele>630.8</ele>
        <time>2019-08-17T11:27:38Z</time>
      </trkpt>
      <trkpt lat="42.0361240" lon="-7.6433270">
        <ele>631.0</ele>
        <time>2019-08-17T11:27:39Z</time>
      </trkpt>
      <trkpt lat="42.0361490" lon="-7.6433880">
        <ele>631.2</ele>
        <time>2019-08-17T11:27:40Z</time>
      </trkpt>
      <trkpt lat="42.0361730" lon="-7.6434490">
        <ele>631.4</ele>
        <time>2019-08-17T11:27:41Z</time>
      </trkpt>
      <trkpt lat="42.0361960" lon="-7.6435080">
        <ele>631.5</ele>
        <time>2019-08-17T11:27:42Z</time>
      </trkpt>
      <trkpt lat="42.0362190" lon="-7.6435660">
        <ele>631.7</ele>
        <time>2019-08-17T11:27:43Z</time>
      </trkpt>
      <trkpt lat="42.0362410" lon="-7.6436230">
        <ele>631.9</ele>
        <time>2019-08-17T11:27:44Z</time>
      </trkpt>
      <trkpt lat="42.0362630" lon="-7.6436780">
        <ele>632.0</ele>
        <time>2019-08-17T11:27:45Z</time>
      </trkpt>
      <trkpt lat="42.0362840" lon="-7.6437320">
        <ele>632.2</ele>
        <time>2019-08-17T11:27:46Z</time>
      </trkpt>
      <trkpt lat="42.0363040" lon="-7.6437840">
        <ele>632.3</ele>
        <time>2019-08-17T11:27:47Z</time>
      </trkpt>
      <trkpt lat="42.0363240" lon="-7.6438340">
        <ele>632.5</ele>
        <time>2019-08-17T11:27:48Z</time>
      </trkpt>
      <trkpt lat="42.0363440" lon="-7.6438810">
        <ele>632.6</ele>
        <time>2019-08-17T11:27:49Z</time>
      </trkpt>
      <trkpt lat="42.0363630" lon="-7.6439280">
        <ele>632.8</ele>
        <time>2019-08-17T11:27:50Z</time>
      </trkpt>
      <trkpt lat="42.0363820" lon="-7.6439750">
        <ele>633.0</ele>
        <time>2019-08-17T11:27:51Z</time>
      </trkpt>
      <trkpt lat="42.0364010" lon="-7.6440220">
        <ele>633.1</ele>
        <time>2019-08-17T11:27:52Z</time>
      </trkpt>
      <trkpt lat="42.0364210" lon="-7.6440710">
        <ele>633.3</ele>
        <time>2019-08-17T11:27:53Z</time>
      </trkpt>
      <trkpt lat="42.0364420" lon="-7.6441220">
        <ele>633.5</ele>
        <time>2019-08-17T11:27:54Z</time>
      </trkpt>
      <trkpt lat="42.0364630" lon="-7.6441730">
        <ele>633.8</ele>
        <time>2019-08-17T11:27:55Z</time>
      </trkpt>
      <trkpt lat="42.0364840" lon="-7.6442250">
        <ele>634.0</ele>
        <time>2019-08-17T11:27:56Z</time>
      </trkpt>
      <trkpt lat="42.0365050" lon="-7.6442760">
        <ele>634.2</ele>
        <time>2019-08-17T11:27:57Z</time>
      </trkpt>
      <trkpt lat="42.0365250" lon="-7.6443280">
        <ele>634.4</ele>
        <time>2019-08-17T11:27:58Z</time>
      </trkpt>
      <trkpt lat="42.0365460" lon="-7.6443800">
        <ele>634.6</ele>
        <time>2019-08-17T11:27:59Z</time>
      </trkpt>
      <trkpt lat="42.0365670" lon="-7.6444320">
        <ele>634.7</ele>
        <time>2019-08-17T11:28:00Z</time>
      </trkpt>
      <trkpt lat="42.0365880" lon="-7.6444840">
        <ele>634.9</ele>
        <time>2019-08-17T11:28:01Z</time>
      </trkpt>
      <trkpt lat="42.0366080" lon="-7.6445360">
        <ele>635.0</ele>
        <time>2019-08-17T11:28:02Z</time>
      </trkpt>
      <trkpt lat="42.0366280" lon="-7.6445870">
        <ele>635.2</ele>
        <time>2019-08-17T11:28:03Z</time>
      </trkpt>
      <trkpt lat="42.0366490" lon="-7.6446390">
        <ele>635.3</ele>
        <time>2019-08-17T11:28:04Z</time>
      </trkpt>
      <trkpt lat="42.0366690" lon="-7.6446900">
        <ele>635.5</ele>
        <time>2019-08-17T11:28:05Z</time>
      </trkpt>
      <trkpt lat="42.0366890" lon="-7.6447410">
        <ele>635.7</ele>
        <time>2019-08-17T11:28:06Z</time>
      </trkpt>
      <trkpt lat="42.0367090" lon="-7.6447920">
        <ele>635.9</ele>
        <time>2019-08-17T11:28:07Z</time>
      </trkpt>
      <trkpt lat="42.0367290" lon="-7.6448420">
        <ele>636.1</ele>
        <time>2019-08-17T11:28:08Z</time>
      </trkpt>
      <trkpt lat="42.0367490" lon="-7.6448920">
        <ele>636.3</ele>
        <time>2019-08-17T11:28:09Z</time>
      </trkpt>
      <trkpt lat="42.0367680" lon="-7.6449420">
        <ele>636.5</ele>
        <time>2019-08-17T11:28:10Z</time>
      </trkpt>
      <trkpt lat="42.0367880" lon="-7.6449910">
        <ele>636.7</ele>
        <time>2019-08-17T11:28:11Z</time>
      </trkpt>
      <trkpt lat="42.0368070" lon="-7.6450400">
        <ele>636.9</ele>
        <time>2019-08-17T11:28:12Z</time>
      </trkpt>
      <trkpt lat="42.0368260" lon="-7.6450890">
        <ele>637.1</ele>
        <time>2019-08-17T11:28:13Z</time>
      </trkpt>
      <trkpt lat="42.0368450" lon="-7.6451370">
        <ele>637.4</ele>
        <time>2019-08-17T11:28:14Z</time>
      </trkpt>
      <trkpt lat="42.0368640" lon="-7.6451840">
        <ele>637.5</ele>
        <time>2019-08-17T11:28:15Z</time>
      </trkpt>
      <trkpt lat="42.0368830" lon="-7.6452320">
        <ele>637.7</ele>
        <time>2019-08-17T11:28:16Z</time>
      </trkpt>
      <trkpt lat="42.0369010" lon="-7.6452780">
        <ele>637.8</ele>
        <time>2019-08-17T11:28:17Z</time>
      </trkpt>
      <trkpt lat="42.0369200" lon="-7.6453250">
        <ele>638.0</ele>
        <time>2019-08-17T11:28:18Z</time>
      </trkpt>
      <trkpt lat="42.0369380" lon="-7.6453710">
        <ele>638.1</ele>
        <time>2019-08-17T11:28:19Z</time>
      </trkpt>
      <trkpt lat="42.0369560" lon="-7.6454170">
        <ele>638.3</ele>
        <time>2019-08-17T11:28:20Z</time>
      </trkpt>
      <trkpt lat="42.0369750" lon="-7.6454630">
        <ele>638.4</ele>
        <time>2019-08-17T11:28:21Z</time>
      </trkpt>
      <trkpt lat="42.0369930" lon="-7.6455080">
        <ele>638.6</ele>
        <time>2019-08-17T11:28:22Z</time>
      </trkpt>
      <trkpt lat="42.0370110" lon="-7.6455530">
        <ele>638.8</ele>
        <time>2019-08-17T11:28:23Z</time>
      </trkpt>
      <trkpt lat="42.0370290" lon="-7.6455980">
        <ele>639.0</ele>
        <time>2019-08-17T11:28:24Z</time>
      </trkpt>
      <trkpt lat="42.0370470" lon="-7.6456420">
        <ele>639.1</ele>
        <time>2019-08-17T11:28:25Z</time>
      </trkpt>
      <trkpt lat="42.0370640" lon="-7.6456870">
        <ele>639.3</ele>
        <time>2019-08-17T11:28:26Z</time>
      </trkpt>
      <trkpt lat="42.0370820" lon="-7.6457310">
        <ele>639.5</ele>
        <time>2019-08-17T11:28:27Z</time>
      </trkpt>
      <trkpt lat="42.0371000" lon="-7.6457750">
        <ele>639.7</ele>
        <time>2019-08-17T11:28:28Z</time>
      </trkpt>
      <trkpt lat="42.0371180" lon="-7.6458190">
        <ele>639.9</ele>
        <time>2019-08-17T11:28:29Z</time>
      </trkpt>
      <trkpt lat="42.0371350" lon="-7.6458620">
        <ele>640.0</ele>
        <time>2019-08-17T11:28:30Z</time>
      </trkpt>
      <trkpt lat="42.0371530" lon="-7.6459050">
        <ele>640.1</ele>
        <time>2019-08-17T11:28:31Z</time>
      </trkpt>
      <trkpt lat="42.0371700" lon="-7.6459490">
        <ele>640.3</ele>
        <time>2019-08-17T11:28:32Z</time>
      </trkpt>
      <trkpt lat="42.0371880" lon="-7.6459910">
        <ele>640.4</ele>
        <time>2019-08-17T11:28:33Z</time>
      </trkpt>
      <trkpt lat="42.0372050" lon="-7.6460340">
        <ele>640.6</ele>
        <time>2019-08-17T11:28:34Z</time>
      </trkpt>
      <trkpt lat="42.0372220" lon="-7.6460760">
        <ele>640.7</ele>
        <time>2019-08-17T11:28:35Z</time>
      </trkpt>
      <trkpt lat="42.0372390" lon="-7.6461190">
        <ele>640.9</ele>
        <time>2019-08-17T11:28:36Z</time>
      </trkpt>
      <trkpt lat="42.0372560" lon="-7.6461610">
        <ele>641.0</ele>
        <time>2019-08-17T11:28:37Z</time>
      </trkpt>
      <trkpt lat="42.0372720" lon="-7.6462020">
        <ele>641.1</ele>
        <time>2019-08-17T11:28:38Z</time>
      </trkpt>
      <trkpt lat="42.0372890" lon="-7.6462440">
        <ele>641.2</ele>
        <time>2019-08-17T11:28:39Z</time>
      </trkpt>
      <trkpt lat="42.0373050" lon="-7.6462850">
        <ele>641.3</ele>
        <time>2019-08-17T11:28:40Z</time>
      </trkpt>
      <trkpt lat="42.0373220" lon="-7.6463260">
        <ele>641.4</ele>
        <time>2019-08-17T11:28:41Z</time>
      </trkpt>
      <trkpt lat="42.0373380" lon="-7.6463670">
        <ele>641.5</ele>
        <time>2019-08-17T11:28:42Z</time>
      </trkpt>
      <trkpt lat="42.0373550" lon="-7.6464080">
        <ele>641.7</ele>
        <time>2019-08-17T11:28:43Z</time>
      </trkpt>
      <trkpt lat="42.0373710" lon="-7.6464480">
        <ele>641.8</ele>
        <time>2019-08-17T11:28:44Z</time>
      </trkpt>
      <trkpt lat="42.0373870" lon="-7.6464890">
        <ele>641.9</ele>
        <time>2019-08-17T11:28:45Z</time>
      </trkpt>
      <trkpt lat="42.0374030" lon="-7.6465290">
        <ele>642.0</ele>
        <time>2019-08-17T11:28:46Z</time>
      </trkpt>
      <trkpt lat="42.0374200" lon="-7.6465690">
        <ele>642.1</ele>
        <time>2019-08-17T11:28:47Z</time>
      </trkpt>
      <trkpt lat="42.0374360" lon="-7.6466080">
        <ele>642.2</ele>
        <time>2019-08-17T11:28:48Z</time>
      </trkpt>
      <trkpt lat="42.0374520" lon="-7.6466480">
        <ele>642.3</ele>
        <time>2019-08-17T11:28:49Z</time>
      </trkpt>
      <trkpt lat="42.0374670" lon="-7.6466870">
        <ele>642.5</ele>
        <time>2019-08-17T11:28:50Z</time>
      </trkpt>
      <trkpt lat="42.0374830" lon="-7.6467250">
        <ele>642.6</ele>
        <time>2019-08-17T11:28:51Z</time>
      </trkpt>
      <trkpt lat="42.0374990" lon="-7.6467630">
        <ele>642.7</ele>
        <time>2019-08-17T11:28:52Z</time>
      </trkpt>
      <trkpt lat="42.0375140" lon="-7.6468010">
        <ele>642.8</ele>
        <time>2019-08-17T11:28:53Z</time>
      </trkpt>
      <trkpt lat="42.0375290" lon="-7.6468390">
        <ele>642.9</ele>
        <time>2019-08-17T11:28:54Z</time>
      </trkpt>
      <trkpt lat="42.0375440" lon="-7.6468750">
        <ele>643.0</ele>
        <time>2019-08-17T11:28:55Z</time>
      </trkpt>
      <trkpt lat="42.0375590" lon="-7.6469120">
        <ele>643.1</ele>
        <time>2019-08-17T11:28:56Z</time>
      </trkpt>
      <trkpt lat="42.0375740" lon="-7.6469480">
        <ele>643.2</ele>
        <time>2019-08-17T11:28:57Z</time>
      </trkpt>
      <trkpt lat="42.0375880" lon="-7.6469830">
        <ele>643.3</ele>
        <time>2019-08-17T11:28:58Z</time>
      </trkpt>
      <trkpt lat="42.0376020" lon="-7.6470180">
        <ele>643.4</ele>
        <time>2019-08-17T11:28:59Z</time>
      </trkpt>
      <trkpt lat="42.0376160" lon="-7.6470520">
        <ele>643.5</ele>
        <time>2019-08-17T11:29:00Z</time>
      </trkpt>
      <trkpt lat="42.0376300" lon="-7.6470860">
        <ele>643.6</ele>
        <time>2019-08-17T11:29:01Z</time>
      </trkpt>
      <trkpt lat="42.0376430" lon="-7.6471190">
        <ele>643.7</ele>
        <time>2019-08-17T11:29:02Z</time>
      </trkpt>
      <trkpt lat="42.0376570" lon="-7.6471530">
        <ele>643.8</ele>
        <time>2019-08-17T11:29:03Z</time>
      </trkpt>
      <trkpt lat="42.0376700" lon="-7.6471860">
        <ele>643.8</ele>
        <time>2019-08-17T11:29:04Z</time>
      </trkpt>
      <trkpt lat="42.0376830" lon="-7.6472200">
        <ele>643.9</ele>
        <time>2019-08-17T11:29:05Z</time>
      </trkpt>
      <trkpt lat="42.0376970" lon="-7.6472540">
        <ele>644.0</ele>
        <time>2019-08-17T11:29:06Z</time>
      </trkpt>
      <trkpt lat="42.0377100" lon="-7.6472890">
        <ele>644.1</ele>
        <time>2019-08-17T11:29:07Z</time>
      </trkpt>
      <trkpt lat="42.0377230" lon="-7.6473240">
        <ele>644.2</ele>
        <time>2019-08-17T11:29:08Z</time>
      </trkpt>
      <trkpt lat="42.0377370" lon="-7.6473610">
        <ele>644.3</ele>
        <time>2019-08-17T11:29:09Z</time>
      </trkpt>
      <trkpt lat="42.0377510" lon="-7.6473980">
        <ele>644.4</ele>
        <time>2019-08-17T11:29:10Z</time>
      </trkpt>
      <trkpt lat="42.0377650" lon="-7.6474360">
        <ele>644.5</ele>
        <time>2019-08-17T11:29:11Z</time>
      </trkpt>
      <trkpt lat="42.0377790" lon="-7.6474750">
        <ele>644.5</ele>
        <time>2019-08-17T11:29:12Z</time>
      </trkpt>
      <trkpt lat="42.0377940" lon="-7.6475140">
        <ele>644.7</ele>
        <time>2019-08-17T11:29:13Z</time>
      </trkpt>
      <trkpt lat="42.0378100" lon="-7.6475550">
        <ele>644.9</ele>
        <time>2019-08-17T11:29:14Z</time>
      </trkpt>
      <trkpt lat="42.0378260" lon="-7.6475960">
        <ele>645.0</ele>
        <time>2019-08-17T11:29:15Z</time>
      </trkpt>
      <trkpt lat="42.0378420" lon="-7.6476380">
        <ele>645.1</ele>
        <time>2019-08-17T11:29:16Z</time>
      </trkpt>
      <trkpt lat="42.0378590" lon="-7.6476810">
        <ele>645.2</ele>
        <time>2019-08-17T11:29:17Z</time>
      </trkpt>
      <trkpt lat="42.0378770" lon="-7.6477240">
        <ele>645.3</ele>
        <time>2019-08-17T11:29:18Z</time>
      </trkpt>
      <trkpt lat="42.0378950" lon="-7.6477670">
        <ele>645.4</ele>
        <time>2019-08-17T11:29:19Z</time>
      </trkpt>
      <trkpt lat="42.0379130" lon="-7.6478100">
        <ele>645.5</ele>
        <time>2019-08-17T11:29:20Z</time>
      </trkpt>
      <trkpt lat="42.0379320" lon="-7.6478540">
        <ele>645.6</ele>
        <time>2019-08-17T11:29:21Z</time>
      </trkpt>
      <trkpt lat="42.0379510" lon="-7.6478970">
        <ele>645.8</ele>
        <time>2019-08-17T11:29:22Z</time>
      </trkpt>
      <trkpt lat="42.0379710" lon="-7.6479400">
        <ele>645.9</ele>
        <time>2019-08-17T11:29:23Z</time>
      </trkpt>
      <trkpt lat="42.0379910" lon="-7.6479830">
        <ele>646.0</ele>
        <time>2019-08-17T11:29:24Z</time>
      </trkpt>
      <trkpt lat="42.0380120" lon="-7.6480250">
        <ele>646.1</ele>
        <time>2019-08-17T11:29:25Z</time>
      </trkpt>
      <trkpt lat="42.0380330" lon="-7.6480680">
        <ele>646.2</ele>
        <time>2019-08-17T11:29:26Z</time>
      </trkpt>
      <trkpt lat="42.0380550" lon="-7.6481110">
        <ele>646.3</ele>
        <time>2019-08-17T11:29:27Z</time>
      </trkpt>
      <trkpt lat="42.0380780" lon="-7.6481550">
        <ele>646.4</ele>
        <time>2019-08-17T11:29:28Z</time>
      </trkpt>
      <trkpt lat="42.0381010" lon="-7.6482000">
        <ele>646.5</ele>
        <time>2019-08-17T11:29:29Z</time>
      </trkpt>
      <trkpt lat="42.0381260" lon="-7.6482460">
        <ele>646.5</ele>
        <time>2019-08-17T11:29:30Z</time>
      </trkpt>
      <trkpt lat="42.0381510" lon="-7.6482920">
        <ele>646.6</ele>
        <time>2019-08-17T11:29:31Z</time>
      </trkpt>
      <trkpt lat="42.0381780" lon="-7.6483400">
        <ele>646.7</ele>
        <time>2019-08-17T11:29:32Z</time>
      </trkpt>
      <trkpt lat="42.0382050" lon="-7.6483890">
        <ele>646.7</ele>
        <time>2019-08-17T11:29:33Z</time>
      </trkpt>
      <trkpt lat="42.0382340" lon="-7.6484380">
        <ele>646.8</ele>
        <time>2019-08-17T11:29:34Z</time>
      </trkpt>
      <trkpt lat="42.0382640" lon="-7.6484880">
        <ele>646.8</ele>
        <time>2019-08-17T11:29:35Z</time>
      </trkpt>
      <trkpt lat="42.0382940" lon="-7.6485390">
        <ele>646.8</ele>
        <time>2019-08-17T11:29:36Z</time>
      </trkpt>
      <trkpt lat="42.0383260" lon="-7.6485910">
        <ele>646.8</ele>
        <time>2019-08-17T11:29:37Z</time>
      </trkpt>
      <trkpt lat="42.0383600" lon="-7.6486430">
        <ele>646.8</ele>
        <time>2019-08-17T11:29:38Z</time>
      </trkpt>
      <trkpt lat="42.0383940" lon="-7.6486950">
        <ele>646.8</ele>
        <time>2019-08-17T11:29:39Z</time>
      </trkpt>
      <trkpt lat="42.0384300" lon="-7.6487480">
        <ele>646.8</ele>
        <time>2019-08-17T11:29:40Z</time>
      </trkpt>
      <trkpt lat="42.0384660" lon="-7.6488010">
        <ele>646.7</ele>
        <time>2019-08-17T11:29:41Z</time>
      </trkpt>
      <trkpt lat="42.0385030" lon="-7.6488540">
        <ele>646.7</ele>
        <time>2019-08-17T11:29:42Z</time>
      </trkpt>
      <trkpt lat="42.0385400" lon="-7.6489080">
        <ele>646.7</ele>
        <time>2019-08-17T11:29:43Z</time>
      </trkpt>
      <trkpt lat="42.0385780" lon="-7.6489610">
        <ele>646.6</ele>
        <time>2019-08-17T11:29:44Z</time>
      </trkpt>
      <trkpt lat="42.0386150" lon="-7.6490150">
        <ele>646.6</ele>
        <time>2019-08-17T11:29:45Z</time>
      </trkpt>
      <trkpt lat="42.0386530" lon="-7.6490680">
        <ele>646.6</ele>
        <time>2019-08-17T11:29:46Z</time>
      </trkpt>
      <trkpt lat="42.0386910" lon="-7.6491220">
        <ele>646.5</ele>
        <time>2019-08-17T11:29:47Z</time>
      </trkpt>
      <trkpt lat="42.0387280" lon="-7.6491750">
        <ele>646.5</ele>
        <time>2019-08-17T11:29:48Z</time>
      </trkpt>
      <trkpt lat="42.0387660" lon="-7.6492280">
        <ele>646.4</ele>
        <time>2019-08-17T11:29:49Z</time>
      </trkpt>
      <trkpt lat="42.0388030" lon="-7.6492820">
        <ele>646.4</ele>
        <time>2019-08-17T11:29:50Z</time>
      </trkpt>
      <trkpt lat="42.0388410" lon="-7.6493360">
        <ele>646.3</ele>
        <time>2019-08-17T11:29:51Z</time>
      </trkpt>
      <trkpt lat="42.0388780" lon="-7.6493890">
        <ele>646.3</ele>
        <time>2019-08-17T11:29:52Z</time>
      </trkpt>
      <trkpt lat="42.0389160" lon="-7.6494430">
        <ele>646.2</ele>
        <time>2019-08-17T11:29:53Z</time>
      </trkpt>
      <trkpt lat="42.0389540" lon="-7.6494980">
        <ele>646.2</ele>
        <time>2019-08-17T11:29:54Z</time>
      </trkpt>
      <trkpt lat="42.0389910" lon="-7.6495520">
        <ele>646.1</ele>
        <time>2019-08-17T11:29:55Z</time>
      </trkpt>
      <trkpt lat="42.0390290" lon="-7.6496060">
        <ele>646.0</ele>
        <time>2019-08-17T11:29:56Z</time>
      </trkpt>
      <trkpt lat="42.0390670" lon="-7.6496610">
        <ele>646.1</ele>
        <time>2019-08-17T11:29:57Z</time>
      </trkpt>
      <trkpt lat="42.0391050" lon="-7.6497150">
        <ele>646.2</ele>
        <time>2019-08-17T11:29:58Z</time>
      </trkpt>
      <trkpt lat="42.0391430" lon="-7.6497690">
        <ele>646.2</ele>
        <time>2019-08-17T11:29:59Z</time>
      </trkpt>
      <trkpt lat="42.0391800" lon="-7.6498230">
        <ele>646.3</ele>
        <time>2019-08-17T11:30:00Z</time>
      </trkpt>
      <trkpt lat="42.0392180" lon="-7.6498770">
        <ele>646.4</ele>
        <time>2019-08-17T11:30:01Z</time>
      </trkpt>
      <trkpt lat="42.0392550" lon="-7.6499300">
        <ele>646.4</ele>
        <time>2019-08-17T11:30:02Z</time>
      </trkpt>
      <trkpt lat="42.0392930" lon="-7.6499820">
        <ele>646.5</ele>
        <time>2019-08-17T11:30:03Z</time>
      </trkpt>
      <trkpt lat="42.0393290" lon="-7.6500340">
        <ele>646.6</ele>
        <time>2019-08-17T11:30:04Z</time>
      </trkpt>
      <trkpt lat="42.0393660" lon="-7.6500850">
        <ele>646.7</ele>
        <time>2019-08-17T11:30:05Z</time>
      </trkpt>
      <trkpt lat="42.0394010" lon="-7.6501350">
        <ele>646.8</ele>
        <time>2019-08-17T11:30:06Z</time>
      </trkpt>
      <trkpt lat="42.0394360" lon="-7.6501840">
        <ele>646.9</ele>
        <time>2019-08-17T11:30:07Z</time>
      </trkpt>
      <trkpt lat="42.0394700" lon="-7.6502320">
        <ele>647.0</ele>
        <time>2019-08-17T11:30:08Z</time>
      </trkpt>
      <trkpt lat="42.0395030" lon="-7.6502780">
        <ele>647.2</ele>
        <time>2019-08-17T11:30:09Z</time>
      </trkpt>
      <trkpt lat="42.0395350" lon="-7.6503230">
        <ele>647.3</ele>
        <time>2019-08-17T11:30:10Z</time>
      </trkpt>
      <trkpt lat="42.0395660" lon="-7.6503670">
        <ele>647.5</ele>
        <time>2019-08-17T11:30:11Z</time>
      </trkpt>
      <trkpt lat="42.0395960" lon="-7.6504100">
        <ele>647.6</ele>
        <time>2019-08-17T11:30:12Z</time>
      </trkpt>
      <trkpt lat="42.0396250" lon="-7.6504510">
        <ele>647.7</ele>
        <time>2019-08-17T11:30:13Z</time>
      </trkpt>
      <trkpt lat="42.0396530" lon="-7.6504920">
        <ele>647.9</ele>
        <time>2019-08-17T11:30:14Z</time>
      </trkpt>
      <trkpt lat="42.0396800" lon="-7.6505320">
        <ele>648.0</ele>
        <time>2019-08-17T11:30:15Z</time>
      </trkpt>
      <trkpt lat="42.0397060" lon="-7.6505720">
        <ele>648.2</ele>
        <time>2019-08-17T11:30:16Z</time>
      </trkpt>
      <trkpt lat="42.0397320" lon="-7.6506110">
        <ele>648.3</ele>
        <time>2019-08-17T11:30:17Z</time>
      </trkpt>
      <trkpt lat="42.0397570" lon="-7.6506500">
        <ele>648.5</ele>
        <time>2019-08-17T11:30:18Z</time>
      </trkpt>
      <trkpt lat="42.0397820" lon="-7.6506880">
        <ele>648.7</ele>
        <time>2019-08-17T11:30:19Z</time>
      </trkpt>
      <trkpt lat="42.0398070" lon="-7.6507260">
        <ele>648.9</ele>
        <time>2019-08-17T11:30:20Z</time>
      </trkpt>
      <trkpt lat="42.0398340" lon="-7.6507630">
        <ele>649.1</ele>
        <time>2019-08-17T11:30:21Z</time>
      </trkpt>
      <trkpt lat="42.0398610" lon="-7.6508000">
        <ele>649.4</ele>
        <time>2019-08-17T11:30:22Z</time>
      </trkpt>
      <trkpt lat="42.0398890" lon="-7.6508370">
        <ele>649.6</ele>
        <time>2019-08-17T11:30:23Z</time>
      </trkpt>
      <trkpt lat="42.0399170" lon="-7.6508760">
        <ele>649.9</ele>
        <time>2019-08-17T11:30:24Z</time>
      </trkpt>
      <trkpt lat="42.0399450" lon="-7.6509150">
        <ele>650.3</ele>
        <time>2019-08-17T11:30:25Z</time>
      </trkpt>
      <trkpt lat="42.0399730" lon="-7.6509560">
        <ele>650.6</ele>
        <time>2019-08-17T11:30:26Z</time>
      </trkpt>
      <trkpt lat="42.0400010" lon="-7.6509980">
        <ele>651.0</ele>
        <time>2019-08-17T11:30:27Z</time>
      </trkpt>
      <trkpt lat="42.0400290" lon="-7.6510400">
        <ele>651.4</ele>
        <time>2019-08-17T11:30:28Z</time>
      </trkpt>
      <trkpt lat="42.0400570" lon="-7.6510830">
        <ele>651.8</ele>
        <time>2019-08-17T11:30:29Z</time>
      </trkpt>
      <trkpt lat="42.0400850" lon="-7.6511260">
        <ele>652.2</ele>
        <time>2019-08-17T11:30:30Z</time>
      </trkpt>
      <trkpt lat="42.0401130" lon="-7.6511690">
        <ele>652.5</ele>
        <time>2019-08-17T11:30:31Z</time>
      </trkpt>
      <trkpt lat="42.0401410" lon="-7.6512110">
        <ele>652.9</ele>
        <time>2019-08-17T11:30:32Z</time>
      </trkpt>
      <trkpt lat="42.0401690" lon="-7.6512530">
        <ele>653.2</ele>
        <time>2019-08-17T11:30:33Z</time>
      </trkpt>
      <trkpt lat="42.0401970" lon="-7.6512950">
        <ele>653.5</ele>
        <time>2019-08-17T11:30:34Z</time>
      </trkpt>
      <trkpt lat="42.0402250" lon="-7.6513370">
        <ele>653.8</ele>
        <time>2019-08-17T11:30:35Z</time>
      </trkpt>
      <trkpt lat="42.0402520" lon="-7.6513780">
        <ele>654.0</ele>
        <time>2019-08-17T11:30:36Z</time>
      </trkpt>
      <trkpt lat="42.0402800" lon="-7.6514180">
        <ele>654.2</ele>
        <time>2019-08-17T11:30:37Z</time>
      </trkpt>
      <trkpt lat="42.0403080" lon="-7.6514590">
        <ele>654.4</ele>
        <time>2019-08-17T11:30:38Z</time>
      </trkpt>
      <trkpt lat="42.0403360" lon="-7.6514990">
        <ele>654.7</ele>
        <time>2019-08-17T11:30:39Z</time>
      </trkpt>
      <trkpt lat="42.0403640" lon="-7.6515390">
        <ele>654.9</ele>
        <time>2019-08-17T11:30:40Z</time>
      </trkpt>
      <trkpt lat="42.0403910" lon="-7.6515790">
        <ele>655.0</ele>
        <time>2019-08-17T11:30:41Z</time>
      </trkpt>
      <trkpt lat="42.0404190" lon="-7.6516180">
        <ele>655.2</ele>
        <time>2019-08-17T11:30:42Z</time>
      </trkpt>
      <trkpt lat="42.0404470" lon="-7.6516580">
        <ele>655.3</ele>
        <time>2019-08-17T11:30:43Z</time>
      </trkpt>
      <trkpt lat="42.0404740" lon="-7.6516980">
        <ele>655.5</ele>
        <time>2019-08-17T11:30:44Z</time>
      </trkpt>
      <trkpt lat="42.0405020" lon="-7.6517370">
        <ele>655.6</ele>
        <time>2019-08-17T11:30:45Z</time>
      </trkpt>
      <trkpt lat="42.0405290" lon="-7.6517770">
        <ele>655.7</ele>
        <time>2019-08-17T11:30:46Z</time>
      </trkpt>
      <trkpt lat="42.0405560" lon="-7.6518170">
        <ele>655.8</ele>
        <time>2019-08-17T11:30:47Z</time>
      </trkpt>
      <trkpt lat="42.0405830" lon="-7.6518570">
        <ele>655.9</ele>
        <time>2019-08-17T11:30:48Z</time>
      </trkpt>
      <trkpt lat="42.0406110" lon="-7.6518970">
        <ele>655.9</ele>
        <time>2019-08-17T11:30:49Z</time>
      </trkpt>
      <trkpt lat="42.0406380" lon="-7.6519370">
        <ele>656.0</ele>
        <time>2019-08-17T11:30:50Z</time>
      </trkpt>
      <trkpt lat="42.0406640" lon="-7.6519780">
        <ele>656.1</ele>
        <time>2019-08-17T11:30:51Z</time>
      </trkpt>
      <trkpt lat="42.0406910" lon="-7.6520180">
        <ele>656.1</ele>
        <time>2019-08-17T11:30:52Z</time>
      </trkpt>
      <trkpt lat="42.0407180" lon="-7.6520590">
        <ele>656.2</ele>
        <time>2019-08-17T11:30:53Z</time>
      </trkpt>
      <trkpt lat="42.0407450" lon="-7.6520990">
        <ele>656.2</ele>
        <time>2019-08-17T11:30:54Z</time>
      </trkpt>
      <trkpt lat="42.0407720" lon="-7.6521400">
        <ele>656.3</ele>
        <time>2019-08-17T11:30:55Z</time>
      </trkpt>
      <trkpt lat="42.0407980" lon="-7.6521800">
        <ele>656.3</ele>
        <time>2019-08-17T11:30:56Z</time>
      </trkpt>
      <trkpt lat="42.0408250" lon="-7.6522200">
        <ele>656.4</ele>
        <time>2019-08-17T11:30:57Z</time>
      </trkpt>
      <trkpt lat="42.0408520" lon="-7.6522610">
        <ele>656.5</ele>
        <time>2019-08-17T11:30:58Z</time>
      </trkpt>
      <trkpt lat="42.0408790" lon="-7.6523020">
        <ele>656.6</ele>
        <time>2019-08-17T11:30:59Z</time>
      </trkpt>
      <trkpt lat="42.0409060" lon="-7.6523430">
        <ele>656.7</ele>
        <time>2019-08-17T11:31:00Z</time>
      </trkpt>
      <trkpt lat="42.0409340" lon="-7.6523840">
        <ele>656.6</ele>
        <time>2019-08-17T11:31:01Z</time>
      </trkpt>
      <trkpt lat="42.0409620" lon="-7.6524260">
        <ele>656.4</ele>
        <time>2019-08-17T11:31:02Z</time>
      </trkpt>
      <trkpt lat="42.0409910" lon="-7.6524690">
        <ele>656.3</ele>
        <time>2019-08-17T11:31:03Z</time>
      </trkpt>
      <trkpt lat="42.0410200" lon="-7.6525120">
        <ele>656.1</ele>
        <time>2019-08-17T11:31:04Z</time>
      </trkpt>
      <trkpt lat="42.0410490" lon="-7.6525560">
        <ele>655.9</ele>
        <time>2019-08-17T11:31:05Z</time>
      </trkpt>
      <trkpt lat="42.0410790" lon="-7.6526010">
        <ele>655.7</ele>
        <time>2019-08-17T11:31:06Z</time>
      </trkpt>
      <trkpt lat="42.0411080" lon="-7.6526470">
        <ele>655.5</ele>
        <time>2019-08-17T11:31:07Z</time>
      </trkpt>
      <trkpt lat="42.0411370" lon="-7.6526940">
        <ele>655.3</ele>
        <time>2019-08-17T11:31:08Z</time>
      </trkpt>
      <trkpt lat="42.0411650" lon="-7.6527420">
        <ele>655.0</ele>
        <time>2019-08-17T11:31:09Z</time>
      </trkpt>
      <trkpt lat="42.0411940" lon="-7.6527910">
        <ele>654.8</ele>
        <time>2019-08-17T11:31:10Z</time>
      </trkpt>
      <trkpt lat="42.0412210" lon="-7.6528390">
        <ele>654.6</ele>
        <time>2019-08-17T11:31:11Z</time>
      </trkpt>
      <trkpt lat="42.0412490" lon="-7.6528860">
        <ele>654.3</ele>
        <time>2019-08-17T11:31:12Z</time>
      </trkpt>
      <trkpt lat="42.0412760" lon="-7.6529320">
        <ele>654.1</ele>
        <time>2019-08-17T11:31:13Z</time>
      </trkpt>
      <trkpt lat="42.0413040" lon="-7.6529780">
        <ele>653.8</ele>
        <time>2019-08-17T11:31:14Z</time>
      </trkpt>
      <trkpt lat="42.0413310" lon="-7.6530250">
        <ele>653.6</ele>
        <time>2019-08-17T11:31:15Z</time>
      </trkpt>
      <trkpt lat="42.0413600" lon="-7.6530730">
        <ele>653.3</ele>
        <time>2019-08-17T11:31:16Z</time>
      </trkpt>
      <trkpt lat="42.0413890" lon="-7.6531220">
        <ele>653.1</ele>
        <time>2019-08-17T11:31:17Z</time>
      </trkpt>
      <trkpt lat="42.0414190" lon="-7.6531740">
        <ele>652.8</ele>
        <time>2019-08-17T11:31:18Z</time>
      </trkpt>
      <trkpt lat="42.0414510" lon="-7.6532270">
        <ele>652.5</ele>
        <time>2019-08-17T11:31:19Z</time>
      </trkpt>
      <trkpt lat="42.0414830" lon="-7.6532830">
        <ele>652.2</ele>
        <time>2019-08-17T11:31:20Z</time>
      </trkpt>
      <trkpt lat="42.0415170" lon="-7.6533410">
        <ele>651.9</ele>
        <time>2019-08-17T11:31:21Z</time>
      </trkpt>
      <trkpt lat="42.0415520" lon="-7.6534010">
        <ele>651.6</ele>
        <time>2019-08-17T11:31:22Z</time>
      </trkpt>
      <trkpt lat="42.0415880" lon="-7.6534630">
        <ele>651.3</ele>
        <time>2019-08-17T11:31:23Z</time>
      </trkpt>
      <trkpt lat="42.0416250" lon="-7.6535270">
        <ele>650.9</ele>
        <time>2019-08-17T11:31:24Z</time>
      </trkpt>
      <trkpt lat="42.0416630" lon="-7.6535930">
        <ele>650.5</ele>
        <time>2019-08-17T11:31:25Z</time>
      </trkpt>
      <trkpt lat="42.0417210" lon="-7.6536940">
        <ele>649.9</ele>
        <time>2019-08-17T11:31:26Z</time>
      </trkpt>
      <trkpt lat="42.0417410" lon="-7.6537290">
        <ele>649.7</ele>
        <time>2019-08-17T11:31:27Z</time>
      </trkpt>
      <trkpt lat="42.0417810" lon="-7.6537990">
        <ele>649.4</ele>
        <time>2019-08-17T11:31:28Z</time>
      </trkpt>
      <trkpt lat="42.0418210" lon="-7.6538700">
        <ele>649.0</ele>
        <time>2019-08-17T11:31:29Z</time>
      </trkpt>
      <trkpt lat="42.0418630" lon="-7.6539420">
        <ele>648.6</ele>
        <time>2019-08-17T11:31:30Z</time>
      </trkpt>
      <trkpt lat="42.0419050" lon="-7.6540160">
        <ele>648.3</ele>
        <time>2019-08-17T11:31:31Z</time>
      </trkpt>
      <trkpt lat="42.0419470" lon="-7.6540900">
        <ele>648.0</ele>
        <time>2019-08-17T11:31:32Z</time>
      </trkpt>
      <trkpt lat="42.0419900" lon="-7.6541650">
        <ele>647.7</ele>
        <time>2019-08-17T11:31:33Z</time>
      </trkpt>
      <trkpt lat="42.0420340" lon="-7.6542400">
        <ele>647.4</ele>
        <time>2019-08-17T11:31:34Z</time>
      </trkpt>
      <trkpt lat="42.0420780" lon="-7.6543160">
        <ele>647.1</ele>
        <time>2019-08-17T11:31:35Z</time>
      </trkpt>
      <trkpt lat="42.0421220" lon="-7.6543920">
        <ele>646.8</ele>
        <time>2019-08-17T11:31:36Z</time>
      </trkpt>
      <trkpt lat="42.0421670" lon="-7.6544680">
        <ele>646.5</ele>
        <time>2019-08-17T11:31:37Z</time>
      </trkpt>
      <trkpt lat="42.0422120" lon="-7.6545450">
        <ele>646.3</ele>
        <time>2019-08-17T11:31:38Z</time>
      </trkpt>
      <trkpt lat="42.0422570" lon="-7.6546220">
        <ele>646.0</ele>
        <time>2019-08-17T11:31:39Z</time>
      </trkpt>
      <trkpt lat="42.0423030" lon="-7.6546990">
        <ele>645.7</ele>
        <time>2019-08-17T11:31:40Z</time>
      </trkpt>
      <trkpt lat="42.0423490" lon="-7.6547760">
        <ele>645.4</ele>
        <time>2019-08-17T11:31:41Z</time>
      </trkpt>
      <trkpt lat="42.0423950" lon="-7.6548530">
        <ele>645.1</ele>
        <time>2019-08-17T11:31:42Z</time>
      </trkpt>
      <trkpt lat="42.0424400" lon="-7.6549310">
        <ele>644.7</ele>
        <time>2019-08-17T11:31:43Z</time>
      </trkpt>
      <trkpt lat="42.0424860" lon="-7.6550080">
        <ele>644.6</ele>
        <time>2019-08-17T11:31:44Z</time>
      </trkpt>
      <trkpt lat="42.0425320" lon="-7.6550850">
        <ele>644.5</ele>
        <time>2019-08-17T11:31:45Z</time>
      </trkpt>
      <trkpt lat="42.0425780" lon="-7.6551620">
        <ele>644.4</ele>
        <time>2019-08-17T11:31:46Z</time>
      </trkpt>
      <trkpt lat="42.0426230" lon="-7.6552390">
        <ele>644.3</ele>
        <time>2019-08-17T11:31:47Z</time>
      </trkpt>
      <trkpt lat="42.0426690" lon="-7.6553160">
        <ele>644.2</ele>
        <time>2019-08-17T11:31:48Z</time>
      </trkpt>
      <trkpt lat="42.0427140" lon="-7.6553920">
        <ele>644.1</ele>
        <time>2019-08-17T11:31:49Z</time>
      </trkpt>
      <trkpt lat="42.0427590" lon="-7.6554680">
        <ele>644.1</ele>
        <time>2019-08-17T11:31:50Z</time>
      </trkpt>
      <trkpt lat="42.0428030" lon="-7.6555440">
        <ele>644.0</ele>
        <time>2019-08-17T11:31:51Z</time>
      </trkpt>
      <trkpt lat="42.0428470" lon="-7.6556200">
        <ele>643.9</ele>
        <time>2019-08-17T11:31:52Z</time>
      </trkpt>
      <trkpt lat="42.0428910" lon="-7.6556960">
        <ele>643.9</ele>
        <time>2019-08-17T11:31:53Z</time>
      </trkpt>
      <trkpt lat="42.0429350" lon="-7.6557710">
        <ele>643.8</ele>
        <time>2019-08-17T11:31:54Z</time>
      </trkpt>
      <trkpt lat="42.0429790" lon="-7.6558460">
        <ele>643.6</ele>
        <time>2019-08-17T11:31:55Z</time>
      </trkpt>
      <trkpt lat="42.0430220" lon="-7.6559210">
        <ele>643.8</ele>
        <time>2019-08-17T11:31:56Z</time>
      </trkpt>
      <trkpt lat="42.0430660" lon="-7.6559960">
        <ele>643.9</ele>
        <time>2019-08-17T11:31:57Z</time>
      </trkpt>
      <trkpt lat="42.0431090" lon="-7.6560710">
        <ele>644.1</ele>
        <time>2019-08-17T11:31:58Z</time>
      </trkpt>
      <trkpt lat="42.0431530" lon="-7.6561460">
        <ele>644.1</ele>
        <time>2019-08-17T11:31:59Z</time>
      </trkpt>
      <trkpt lat="42.0431960" lon="-7.6562200">
        <ele>644.2</ele>
        <time>2019-08-17T11:32:00Z</time>
      </trkpt>
      <trkpt lat="42.0432390" lon="-7.6562950">
        <ele>644.2</ele>
        <time>2019-08-17T11:32:01Z</time>
      </trkpt>
      <trkpt lat="42.0432830" lon="-7.6563690">
        <ele>644.2</ele>
        <time>2019-08-17T11:32:02Z</time>
      </trkpt>
      <trkpt lat="42.0433260" lon="-7.6564440">
        <ele>644.2</ele>
        <time>2019-08-17T11:32:03Z</time>
      </trkpt>
      <trkpt lat="42.0433690" lon="-7.6565180">
        <ele>644.2</ele>
        <time>2019-08-17T11:32:04Z</time>
      </trkpt>
      <trkpt lat="42.0434130" lon="-7.6565910">
        <ele>644.3</ele>
        <time>2019-08-17T11:32:05Z</time>
      </trkpt>
      <trkpt lat="42.0434570" lon="-7.6566650">
        <ele>644.4</ele>
        <time>2019-08-17T11:32:06Z</time>
      </trkpt>
      <trkpt lat="42.0435010" lon="-7.6567380">
        <ele>644.5</ele>
        <time>2019-08-17T11:32:07Z</time>
      </trkpt>
      <trkpt lat="42.0435450" lon="-7.6568110">
        <ele>644.6</ele>
        <time>2019-08-17T11:32:08Z</time>
      </trkpt>
      <trkpt lat="42.0435910" lon="-7.6568830">
        <ele>644.6</ele>
        <time>2019-08-17T11:32:09Z</time>
      </trkpt>
      <trkpt lat="42.0436370" lon="-7.6569540">
        <ele>644.6</ele>
        <time>2019-08-17T11:32:10Z</time>
      </trkpt>
      <trkpt lat="42.0436850" lon="-7.6570230">
        <ele>644.6</ele>
        <time>2019-08-17T11:32:11Z</time>
      </trkpt>
      <trkpt lat="42.0437350" lon="-7.6570910">
        <ele>644.5</ele>
        <time>2019-08-17T11:32:12Z</time>
      </trkpt>
      <trkpt lat="42.0437860" lon="-7.6571560">
        <ele>644.4</ele>
        <time>2019-08-17T11:32:13Z</time>
      </trkpt>
      <trkpt lat="42.0438390" lon="-7.6572170">
        <ele>644.3</ele>
        <time>2019-08-17T11:32:14Z</time>
      </trkpt>
      <trkpt lat="42.0438940" lon="-7.6572760">
        <ele>644.2</ele>
        <time>2019-08-17T11:32:15Z</time>
      </trkpt>
      <trkpt lat="42.0439510" lon="-7.6573330">
        <ele>644.0</ele>
        <time>2019-08-17T11:32:16Z</time>
      </trkpt>
      <trkpt lat="42.0440090" lon="-7.6573890">
        <ele>643.9</ele>
        <time>2019-08-17T11:32:17Z</time>
      </trkpt>
      <trkpt lat="42.0440690" lon="-7.6574430">
        <ele>643.7</ele>
        <time>2019-08-17T11:32:18Z</time>
      </trkpt>
      <trkpt lat="42.0441300" lon="-7.6574980">
        <ele>643.6</ele>
        <time>2019-08-17T11:32:19Z</time>
      </trkpt>
      <trkpt lat="42.0441910" lon="-7.6575520">
        <ele>643.5</ele>
        <time>2019-08-17T11:32:20Z</time>
      </trkpt>
      <trkpt lat="42.0442530" lon="-7.6576080">
        <ele>643.4</ele>
        <time>2019-08-17T11:32:21Z</time>
      </trkpt>
      <trkpt lat="42.0443160" lon="-7.6576640">
        <ele>643.4</ele>
        <time>2019-08-17T11:32:22Z</time>
      </trkpt>
      <trkpt lat="42.0443790" lon="-7.6577210">
        <ele>643.3</ele>
        <time>2019-08-17T11:32:23Z</time>
      </trkpt>
      <trkpt lat="42.0444420" lon="-7.6577780">
        <ele>643.3</ele>
        <time>2019-08-17T11:32:24Z</time>
      </trkpt>
      <trkpt lat="42.0445050" lon="-7.6578360">
        <ele>643.3</ele>
        <time>2019-08-17T11:32:25Z</time>
      </trkpt>
      <trkpt lat="42.0445680" lon="-7.6578930">
        <ele>643.3</ele>
        <time>2019-08-17T11:32:26Z</time>
      </trkpt>
      <trkpt lat="42.0446300" lon="-7.6579500">
        <ele>643.2</ele>
        <time>2019-08-17T11:32:27Z</time>
      </trkpt>
      <trkpt lat="42.0446910" lon="-7.6580060">
        <ele>643.1</ele>
        <time>2019-08-17T11:32:28Z</time>
      </trkpt>
      <trkpt lat="42.0447520" lon="-7.6580620">
        <ele>643.0</ele>
        <time>2019-08-17T11:32:29Z</time>
      </trkpt>
      <trkpt lat="42.0448120" lon="-7.6581170">
        <ele>642.9</ele>
        <time>2019-08-17T11:32:30Z</time>
      </trkpt>
      <trkpt lat="42.0448720" lon="-7.6581720">
        <ele>642.8</ele>
        <time>2019-08-17T11:32:31Z</time>
      </trkpt>
      <trkpt lat="42.0449310" lon="-7.6582260">
        <ele>642.7</ele>
        <time>2019-08-17T11:32:32Z</time>
      </trkpt>
      <trkpt lat="42.0449890" lon="-7.6582800">
        <ele>642.5</ele>
        <time>2019-08-17T11:32:33Z</time>
      </trkpt>
      <trkpt lat="42.0450470" lon="-7.6583330">
        <ele>642.4</ele>
        <time>2019-08-17T11:32:34Z</time>
      </trkpt>
      <trkpt lat="42.0451060" lon="-7.6583860">
        <ele>642.2</ele>
        <time>2019-08-17T11:32:35Z</time>
      </trkpt>
      <trkpt lat="42.0451640" lon="-7.6584390">
        <ele>642.1</ele>
        <time>2019-08-17T11:32:36Z</time>
      </trkpt>
      <trkpt lat="42.0452220" lon="-7.6584920">
        <ele>641.9</ele>
        <time>2019-08-17T11:32:37Z</time>
      </trkpt>
      <trkpt lat="42.0452800" lon="-7.6585450">
        <ele>641.7</ele>
        <time>2019-08-17T11:32:38Z</time>
      </trkpt>
      <trkpt lat="42.0453390" lon="-7.6585980">
        <ele>641.5</ele>
        <time>2019-08-17T11:32:39Z</time>
      </trkpt>
      <trkpt lat="42.0453970" lon="-7.6586520">
        <ele>641.3</ele>
        <time>2019-08-17T11:32:40Z</time>
      </trkpt>
      <trkpt lat="42.0454560" lon="-7.6587060">
        <ele>641.1</ele>
        <time>2019-08-17T11:32:41Z</time>
      </trkpt>
      <trkpt lat="42.0455140" lon="-7.6587610">
        <ele>640.9</ele>
        <time>2019-08-17T11:32:42Z</time>
      </trkpt>
      <trkpt lat="42.0455730" lon="-7.6588180">
        <ele>640.8</ele>
        <time>2019-08-17T11:32:43Z</time>
      </trkpt>
      <trkpt lat="42.0456320" lon="-7.6588760">
        <ele>640.6</ele>
        <time>2019-08-17T11:32:44Z</time>
      </trkpt>
      <trkpt lat="42.0456910" lon="-7.6589350">
        <ele>640.5</ele>
        <time>2019-08-17T11:32:45Z</time>
      </trkpt>
      <trkpt lat="42.0457500" lon="-7.6589960">
        <ele>640.4</ele>
        <time>2019-08-17T11:32:46Z</time>
      </trkpt>
      <trkpt lat="42.0458090" lon="-7.6590580">
        <ele>640.4</ele>
        <time>2019-08-17T11:32:47Z</time>
      </trkpt>
      <trkpt lat="42.0458690" lon="-7.6591230">
        <ele>640.3</ele>
        <time>2019-08-17T11:32:48Z</time>
      </trkpt>
      <trkpt lat="42.0459290" lon="-7.6591890">
        <ele>640.3</ele>
        <time>2019-08-17T11:32:49Z</time>
      </trkpt>
      <trkpt lat="42.0459900" lon="-7.6592570">
        <ele>640.2</ele>
        <time>2019-08-17T11:32:50Z</time>
      </trkpt>
      <trkpt lat="42.0460500" lon="-7.6593270">
        <ele>640.0</ele>
        <time>2019-08-17T11:32:51Z</time>
      </trkpt>
      <trkpt lat="42.0461120" lon="-7.6593990">
        <ele>639.9</ele>
        <time>2019-08-17T11:32:52Z</time>
      </trkpt>
      <trkpt lat="42.0461740" lon="-7.6594730">
        <ele>639.7</ele>
        <time>2019-08-17T11:32:53Z</time>
      </trkpt>
      <trkpt lat="42.0462360" lon="-7.6595480">
        <ele>639.5</ele>
        <time>2019-08-17T11:32:54Z</time>
      </trkpt>
      <trkpt lat="42.0462980" lon="-7.6596240">
        <ele>639.3</ele>
        <time>2019-08-17T11:32:55Z</time>
      </trkpt>
      <trkpt lat="42.0463600" lon="-7.6597000">
        <ele>639.0</ele>
        <time>2019-08-17T11:32:56Z</time>
      </trkpt>
      <trkpt lat="42.0464220" lon="-7.6597780">
        <ele>638.7</ele>
        <time>2019-08-17T11:32:57Z</time>
      </trkpt>
      <trkpt lat="42.0464840" lon="-7.6598550">
        <ele>638.4</ele>
        <time>2019-08-17T11:32:58Z</time>
      </trkpt>
      <trkpt lat="42.0465460" lon="-7.6599310">
        <ele>638.1</ele>
        <time>2019-08-17T11:32:59Z</time>
      </trkpt>
      <trkpt lat="42.0466070" lon="-7.6600070">
        <ele>637.8</ele>
        <time>2019-08-17T11:33:00Z</time>
      </trkpt>
      <trkpt lat="42.0466680" lon="-7.6600820">
        <ele>637.5</ele>
        <time>2019-08-17T11:33:01Z</time>
      </trkpt>
      <trkpt lat="42.0467280" lon="-7.6601560">
        <ele>637.2</ele>
        <time>2019-08-17T11:33:02Z</time>
      </trkpt>
      <trkpt lat="42.0467870" lon="-7.6602290">
        <ele>636.9</ele>
        <time>2019-08-17T11:33:03Z</time>
      </trkpt>
      <trkpt lat="42.0468460" lon="-7.6603010">
        <ele>636.7</ele>
        <time>2019-08-17T11:33:04Z</time>
      </trkpt>
      <trkpt lat="42.0469030" lon="-7.6603710">
        <ele>636.5</ele>
        <time>2019-08-17T11:33:05Z</time>
      </trkpt>
      <trkpt lat="42.0469600" lon="-7.6604390">
        <ele>636.3</ele>
        <time>2019-08-17T11:33:06Z</time>
      </trkpt>
      <trkpt lat="42.0470150" lon="-7.6605060">
        <ele>636.2</ele>
        <time>2019-08-17T11:33:07Z</time>
      </trkpt>
      <trkpt lat="42.0470690" lon="-7.6605710">
        <ele>636.0</ele>
        <time>2019-08-17T11:33:08Z</time>
      </trkpt>
      <trkpt lat="42.0471220" lon="-7.6606340">
        <ele>635.9</ele>
        <time>2019-08-17T11:33:09Z</time>
      </trkpt>
      <trkpt lat="42.0471740" lon="-7.6606960">
        <ele>635.9</ele>
        <time>2019-08-17T11:33:10Z</time>
      </trkpt>
      <trkpt lat="42.0472270" lon="-7.6607570">
        <ele>635.8</ele>
        <time>2019-08-17T11:33:11Z</time>
      </trkpt>
      <trkpt lat="42.0472810" lon="-7.6608180">
        <ele>635.7</ele>
        <time>2019-08-17T11:33:12Z</time>
      </trkpt>
      <trkpt lat="42.0473350" lon="-7.6608770">
        <ele>635.6</ele>
        <time>2019-08-17T11:33:13Z</time>
      </trkpt>
      <trkpt lat="42.0473920" lon="-7.6609350">
        <ele>635.6</ele>
        <time>2019-08-17T11:33:14Z</time>
      </trkpt>
      <trkpt lat="42.0474500" lon="-7.6609910">
        <ele>635.5</ele>
        <time>2019-08-17T11:33:15Z</time>
      </trkpt>
      <trkpt lat="42.0475120" lon="-7.6610430">
        <ele>635.4</ele>
        <time>2019-08-17T11:33:16Z</time>
      </trkpt>
      <trkpt lat="42.0475750" lon="-7.6610930">
        <ele>635.3</ele>
        <time>2019-08-17T11:33:17Z</time>
      </trkpt>
      <trkpt lat="42.0476410" lon="-7.6611400">
        <ele>635.3</ele>
        <time>2019-08-17T11:33:18Z</time>
      </trkpt>
      <trkpt lat="42.0477080" lon="-7.6611840">
        <ele>635.2</ele>
        <time>2019-08-17T11:33:19Z</time>
      </trkpt>
      <trkpt lat="42.0477760" lon="-7.6612270">
        <ele>635.2</ele>
        <time>2019-08-17T11:33:20Z</time>
      </trkpt>
      <trkpt lat="42.0478450" lon="-7.6612670">
        <ele>635.1</ele>
        <time>2019-08-17T11:33:21Z</time>
      </trkpt>
      <trkpt lat="42.0479130" lon="-7.6613060">
        <ele>635.1</ele>
        <time>2019-08-17T11:33:22Z</time>
      </trkpt>
      <trkpt lat="42.0479820" lon="-7.6613440">
        <ele>635.0</ele>
        <time>2019-08-17T11:33:23Z</time>
      </trkpt>
      <trkpt lat="42.0480500" lon="-7.6613800">
        <ele>634.9</ele>
        <time>2019-08-17T11:33:24Z</time>
      </trkpt>
      <trkpt lat="42.0481170" lon="-7.6614150">
        <ele>634.8</ele>
        <time>2019-08-17T11:33:25Z</time>
      </trkpt>
      <trkpt lat="42.0481850" lon="-7.6614490">
        <ele>634.7</ele>
        <time>2019-08-17T11:33:26Z</time>
      </trkpt>
      <trkpt lat="42.0482520" lon="-7.6614820">
        <ele>634.5</ele>
        <time>2019-08-17T11:33:27Z</time>
      </trkpt>
      <trkpt lat="42.0483190" lon="-7.6615140">
        <ele>634.2</ele>
        <time>2019-08-17T11:33:28Z</time>
      </trkpt>
      <trkpt lat="42.0483860" lon="-7.6615450">
        <ele>633.8</ele>
        <time>2019-08-17T11:33:29Z</time>
      </trkpt>
      <trkpt lat="42.0484520" lon="-7.6615760">
        <ele>633.4</ele>
        <time>2019-08-17T11:33:30Z</time>
      </trkpt>
      <trkpt lat="42.0485180" lon="-7.6616070">
        <ele>633.1</ele>
        <time>2019-08-17T11:33:31Z</time>
      </trkpt>
      <trkpt lat="42.0485850" lon="-7.6616370">
        <ele>632.7</ele>
        <time>2019-08-17T11:33:32Z</time>
      </trkpt>
      <trkpt lat="42.0486500" lon="-7.6616670">
        <ele>632.5</ele>
        <time>2019-08-17T11:33:33Z</time>
      </trkpt>
      <trkpt lat="42.0487160" lon="-7.6616970">
        <ele>632.4</ele>
        <time>2019-08-17T11:33:34Z</time>
      </trkpt>
      <trkpt lat="42.0487820" lon="-7.6617280">
        <ele>632.2</ele>
        <time>2019-08-17T11:33:35Z</time>
      </trkpt>
      <trkpt lat="42.0488470" lon="-7.6617580">
        <ele>632.0</ele>
        <time>2019-08-17T11:33:36Z</time>
      </trkpt>
      <trkpt lat="42.0489120" lon="-7.6617890">
        <ele>631.9</ele>
        <time>2019-08-17T11:33:37Z</time>
      </trkpt>
      <trkpt lat="42.0489780" lon="-7.6618210">
        <ele>631.9</ele>
        <time>2019-08-17T11:33:38Z</time>
      </trkpt>
      <trkpt lat="42.0490430" lon="-7.6618540">
        <ele>631.8</ele>
        <time>2019-08-17T11:33:39Z</time>
      </trkpt>
      <trkpt lat="42.0491080" lon="-7.6618870">
        <ele>631.7</ele>
        <time>2019-08-17T11:33:40Z</time>
      </trkpt>
      <trkpt lat="42.0491720" lon="-7.6619210">
        <ele>631.7</ele>
        <time>2019-08-17T11:33:41Z</time>
      </trkpt>
      <trkpt lat="42.0492370" lon="-7.6619570">
        <ele>631.6</ele>
        <time>2019-08-17T11:33:42Z</time>
      </trkpt>
      <trkpt lat="42.0493000" lon="-7.6619940">
        <ele>631.5</ele>
        <time>2019-08-17T11:33:43Z</time>
      </trkpt>
      <trkpt lat="42.0493630" lon="-7.6620320">
        <ele>631.5</ele>
        <time>2019-08-17T11:33:44Z</time>
      </trkpt>
      <trkpt lat="42.0494250" lon="-7.6620730">
        <ele>631.4</ele>
        <time>2019-08-17T11:33:45Z</time>
      </trkpt>
      <trkpt lat="42.0494870" lon="-7.6621150">
        <ele>631.0</ele>
        <time>2019-08-17T11:33:46Z</time>
      </trkpt>
      <trkpt lat="42.0495470" lon="-7.6621600">
        <ele>630.7</ele>
        <time>2019-08-17T11:33:47Z</time>
      </trkpt>
      <trkpt lat="42.0496060" lon="-7.6622070">
        <ele>630.5</ele>
        <time>2019-08-17T11:33:48Z</time>
      </trkpt>
      <trkpt lat="42.0496640" lon="-7.6622560">
        <ele>630.3</ele>
        <time>2019-08-17T11:33:49Z</time>
      </trkpt>
      <trkpt lat="42.0497210" lon="-7.6623070">
        <ele>630.1</ele>
        <time>2019-08-17T11:33:50Z</time>
      </trkpt>
      <trkpt lat="42.0497760" lon="-7.6623600">
        <ele>630.0</ele>
        <time>2019-08-17T11:33:51Z</time>
      </trkpt>
      <trkpt lat="42.0498310" lon="-7.6624160">
        <ele>629.7</ele>
        <time>2019-08-17T11:33:52Z</time>
      </trkpt>
      <trkpt lat="42.0498830" lon="-7.6624730">
        <ele>629.5</ele>
        <time>2019-08-17T11:33:53Z</time>
      </trkpt>
      <trkpt lat="42.0499340" lon="-7.6625330">
        <ele>629.3</ele>
        <time>2019-08-17T11:33:54Z</time>
      </trkpt>
      <trkpt lat="42.0499840" lon="-7.6625940">
        <ele>629.1</ele>
        <time>2019-08-17T11:33:55Z</time>
      </trkpt>
      <trkpt lat="42.0500320" lon="-7.6626580">
        <ele>628.9</ele>
        <time>2019-08-17T11:33:56Z</time>
      </trkpt>
      <trkpt lat="42.0500790" lon="-7.6627230">
        <ele>628.8</ele>
        <time>2019-08-17T11:33:57Z</time>
      </trkpt>
      <trkpt lat="42.0501240" lon="-7.6627890">
        <ele>628.6</ele>
        <time>2019-08-17T11:33:58Z</time>
      </trkpt>
      <trkpt lat="42.0501670" lon="-7.6628570">
        <ele>628.2</ele>
        <time>2019-08-17T11:33:59Z</time>
      </trkpt>
      <trkpt lat="42.0502080" lon="-7.6629250">
        <ele>627.8</ele>
        <time>2019-08-17T11:34:00Z</time>
      </trkpt>
      <trkpt lat="42.0502470" lon="-7.6629950">
        <ele>626.7</ele>
        <time>2019-08-17T11:34:01Z</time>
      </trkpt>
      <trkpt lat="42.0502850" lon="-7.6630650">
        <ele>626.7</ele>
        <time>2019-08-17T11:34:02Z</time>
      </trkpt>
      <trkpt lat="42.0503210" lon="-7.6631360">
        <ele>626.7</ele>
        <time>2019-08-17T11:34:03Z</time>
      </trkpt>
      <trkpt lat="42.0503550" lon="-7.6632080">
        <ele>626.7</ele>
        <time>2019-08-17T11:34:04Z</time>
      </trkpt>
      <trkpt lat="42.0503890" lon="-7.6632800">
        <ele>626.6</ele>
        <time>2019-08-17T11:34:05Z</time>
      </trkpt>
      <trkpt lat="42.0504210" lon="-7.6633540">
        <ele>626.6</ele>
        <time>2019-08-17T11:34:06Z</time>
      </trkpt>
      <trkpt lat="42.0504530" lon="-7.6634280">
        <ele>626.5</ele>
        <time>2019-08-17T11:34:07Z</time>
      </trkpt>
      <trkpt lat="42.0504840" lon="-7.6635040">
        <ele>626.4</ele>
        <time>2019-08-17T11:34:08Z</time>
      </trkpt>
      <trkpt lat="42.0505150" lon="-7.6635810">
        <ele>626.3</ele>
        <time>2019-08-17T11:34:09Z</time>
      </trkpt>
      <trkpt lat="42.0505460" lon="-7.6636580">
        <ele>626.2</ele>
        <time>2019-08-17T11:34:10Z</time>
      </trkpt>
      <trkpt lat="42.0505770" lon="-7.6637370">
        <ele>626.1</ele>
        <time>2019-08-17T11:34:11Z</time>
      </trkpt>
      <trkpt lat="42.0506090" lon="-7.6638170">
        <ele>626.0</ele>
        <time>2019-08-17T11:34:12Z</time>
      </trkpt>
      <trkpt lat="42.0506410" lon="-7.6638990">
        <ele>625.8</ele>
        <time>2019-08-17T11:34:13Z</time>
      </trkpt>
      <trkpt lat="42.0506740" lon="-7.6639810">
        <ele>625.7</ele>
        <time>2019-08-17T11:34:14Z</time>
      </trkpt>
      <trkpt lat="42.0507080" lon="-7.6640650">
        <ele>625.6</ele>
        <time>2019-08-17T11:34:15Z</time>
      </trkpt>
      <trkpt lat="42.0507430" lon="-7.6641490">
        <ele>625.3</ele>
        <time>2019-08-17T11:34:16Z</time>
      </trkpt>
      <trkpt lat="42.0507790" lon="-7.6642360">
        <ele>625.1</ele>
        <time>2019-08-17T11:34:17Z</time>
      </trkpt>
      <trkpt lat="42.0508170" lon="-7.6643230">
        <ele>624.8</ele>
        <time>2019-08-17T11:34:18Z</time>
      </trkpt>
      <trkpt lat="42.0508560" lon="-7.6644110">
        <ele>624.5</ele>
        <time>2019-08-17T11:34:19Z</time>
      </trkpt>
      <trkpt lat="42.0508980" lon="-7.6644990">
        <ele>624.2</ele>
        <time>2019-08-17T11:34:20Z</time>
      </trkpt>
      <trkpt lat="42.0509410" lon="-7.6645880">
        <ele>623.9</ele>
        <time>2019-08-17T11:34:21Z</time>
      </trkpt>
      <trkpt lat="42.0509870" lon="-7.6646760">
        <ele>623.7</ele>
        <time>2019-08-17T11:34:22Z</time>
      </trkpt>
      <trkpt lat="42.0510360" lon="-7.6647630">
        <ele>623.4</ele>
        <time>2019-08-17T11:34:23Z</time>
      </trkpt>
      <trkpt lat="42.0510880" lon="-7.6648480">
        <ele>623.2</ele>
        <time>2019-08-17T11:34:24Z</time>
      </trkpt>
      <trkpt lat="42.0511430" lon="-7.6649320">
        <ele>623.0</ele>
        <time>2019-08-17T11:34:25Z</time>
      </trkpt>
      <trkpt lat="42.0512010" lon="-7.6650140">
        <ele>622.7</ele>
        <time>2019-08-17T11:34:26Z</time>
      </trkpt>
      <trkpt lat="42.0512610" lon="-7.6650950">
        <ele>622.5</ele>
        <time>2019-08-17T11:34:27Z</time>
      </trkpt>
      <trkpt lat="42.0513240" lon="-7.6651750">
        <ele>622.3</ele>
        <time>2019-08-17T11:34:28Z</time>
      </trkpt>
      <trkpt lat="42.0513890" lon="-7.6652550">
        <ele>622.1</ele>
        <time>2019-08-17T11:34:29Z</time>
      </trkpt>
      <trkpt lat="42.0514550" lon="-7.6653340">
        <ele>621.9</ele>
        <time>2019-08-17T11:34:30Z</time>
      </trkpt>
      <trkpt lat="42.0515220" lon="-7.6654130">
        <ele>621.8</ele>
        <time>2019-08-17T11:34:31Z</time>
      </trkpt>
      <trkpt lat="42.0515900" lon="-7.6654920">
        <ele>621.6</ele>
        <time>2019-08-17T11:34:32Z</time>
      </trkpt>
      <trkpt lat="42.0516590" lon="-7.6655720">
        <ele>621.5</ele>
        <time>2019-08-17T11:34:33Z</time>
      </trkpt>
      <trkpt lat="42.0517270" lon="-7.6656520">
        <ele>621.4</ele>
        <time>2019-08-17T11:34:34Z</time>
      </trkpt>
      <trkpt lat="42.0517960" lon="-7.6657320">
        <ele>621.3</ele>
        <time>2019-08-17T11:34:35Z</time>
      </trkpt>
      <trkpt lat="42.0518640" lon="-7.6658110">
        <ele>621.3</ele>
        <time>2019-08-17T11:34:36Z</time>
      </trkpt>
      <trkpt lat="42.0519310" lon="-7.6658890">
        <ele>621.2</ele>
        <time>2019-08-17T11:34:37Z</time>
      </trkpt>
      <trkpt lat="42.0519970" lon="-7.6659660">
        <ele>621.2</ele>
        <time>2019-08-17T11:34:38Z</time>
      </trkpt>
      <trkpt lat="42.0520620" lon="-7.6660420">
        <ele>621.2</ele>
        <time>2019-08-17T11:34:39Z</time>
      </trkpt>
      <trkpt lat="42.0521260" lon="-7.6661150">
        <ele>621.3</ele>
        <time>2019-08-17T11:34:40Z</time>
      </trkpt>
      <trkpt lat="42.0521880" lon="-7.6661870">
        <ele>621.4</ele>
        <time>2019-08-17T11:34:41Z</time>
      </trkpt>
      <trkpt lat="42.0522480" lon="-7.6662560">
        <ele>621.4</ele>
        <time>2019-08-17T11:34:42Z</time>
      </trkpt>
      <trkpt lat="42.0523070" lon="-7.6663240">
        <ele>621.5</ele>
        <time>2019-08-17T11:34:43Z</time>
      </trkpt>
      <trkpt lat="42.0523640" lon="-7.6663890">
        <ele>621.7</ele>
        <time>2019-08-17T11:34:44Z</time>
      </trkpt>
      <trkpt lat="42.0524200" lon="-7.6664540">
        <ele>621.8</ele>
        <time>2019-08-17T11:34:45Z</time>
      </trkpt>
      <trkpt lat="42.0524760" lon="-7.6665170">
        <ele>621.9</ele>
        <time>2019-08-17T11:34:46Z</time>
      </trkpt>
      <trkpt lat="42.0525300" lon="-7.6665790">
        <ele>622.1</ele>
        <time>2019-08-17T11:34:47Z</time>
      </trkpt>
      <trkpt lat="42.0525840" lon="-7.6666400">
        <ele>622.2</ele>
        <time>2019-08-17T11:34:48Z</time>
      </trkpt>
      <trkpt lat="42.0526380" lon="-7.6667010">
        <ele>622.4</ele>
        <time>2019-08-17T11:34:49Z</time>
      </trkpt>
      <trkpt lat="42.0526910" lon="-7.6667610">
        <ele>622.6</ele>
        <time>2019-08-17T11:34:50Z</time>
      </trkpt>
      <trkpt lat="42.0527430" lon="-7.6668200">
        <ele>622.8</ele>
        <time>2019-08-17T11:34:51Z</time>
      </trkpt>
      <trkpt lat="42.0527950" lon="-7.6668790">
        <ele>623.0</ele>
        <time>2019-08-17T11:34:52Z</time>
      </trkpt>
      <trkpt lat="42.0528460" lon="-7.6669370">
        <ele>623.2</ele>
        <time>2019-08-17T11:34:53Z</time>
      </trkpt>
      <trkpt lat="42.0528970" lon="-7.6669950">
        <ele>623.4</ele>
        <time>2019-08-17T11:34:54Z</time>
      </trkpt>
      <trkpt lat="42.0529460" lon="-7.6670520">
        <ele>623.6</ele>
        <time>2019-08-17T11:34:55Z</time>
      </trkpt>
      <trkpt lat="42.0529950" lon="-7.6671080">
        <ele>623.8</ele>
        <time>2019-08-17T11:34:56Z</time>
      </trkpt>
      <trkpt lat="42.0530420" lon="-7.6671630">
        <ele>624.0</ele>
        <time>2019-08-17T11:34:57Z</time>
      </trkpt>
      <trkpt lat="42.0530890" lon="-7.6672180">
        <ele>624.2</ele>
        <time>2019-08-17T11:34:58Z</time>
      </trkpt>
      <trkpt lat="42.0531350" lon="-7.6672710">
        <ele>624.5</ele>
        <time>2019-08-17T11:34:59Z</time>
      </trkpt>
      <trkpt lat="42.0531810" lon="-7.6673230">
        <ele>624.7</ele>
        <time>2019-08-17T11:35:00Z</time>
      </trkpt>
      <trkpt lat="42.0532260" lon="-7.6673740">
        <ele>624.9</ele>
        <time>2019-08-17T11:35:01Z</time>
      </trkpt>
      <trkpt lat="42.0532710" lon="-7.6674250">
        <ele>625.1</ele>
        <time>2019-08-17T11:35:02Z</time>
      </trkpt>
      <trkpt lat="42.0533150" lon="-7.6674750">
        <ele>625.3</ele>
        <time>2019-08-17T11:35:03Z</time>
      </trkpt>
      <trkpt lat="42.0533570" lon="-7.6675260">
        <ele>625.4</ele>
        <time>2019-08-17T11:35:04Z</time>
      </trkpt>
      <trkpt lat="42.0533990" lon="-7.6675780">
        <ele>625.6</ele>
        <time>2019-08-17T11:35:05Z</time>
      </trkpt>
      <trkpt lat="42.0534400" lon="-7.6676310">
        <ele>625.8</ele>
        <time>2019-08-17T11:35:06Z</time>
      </trkpt>
      <trkpt lat="42.0534800" lon="-7.6676850">
        <ele>626.0</ele>
        <time>2019-08-17T11:35:07Z</time>
      </trkpt>
      <trkpt lat="42.0535200" lon="-7.6677410">
        <ele>626.1</ele>
        <time>2019-08-17T11:35:08Z</time>
      </trkpt>
      <trkpt lat="42.0535590" lon="-7.6677990">
        <ele>626.3</ele>
        <time>2019-08-17T11:35:09Z</time>
      </trkpt>
      <trkpt lat="42.0535970" lon="-7.6678580">
        <ele>626.5</ele>
        <time>2019-08-17T11:35:10Z</time>
      </trkpt>
      <trkpt lat="42.0536360" lon="-7.6679180">
        <ele>626.7</ele>
        <time>2019-08-17T11:35:11Z</time>
      </trkpt>
      <trkpt lat="42.0536740" lon="-7.6679800">
        <ele>626.1</ele>
        <time>2019-08-17T11:35:12Z</time>
      </trkpt>
      <trkpt lat="42.0537130" lon="-7.6680420">
        <ele>626.0</ele>
        <time>2019-08-17T11:35:13Z</time>
      </trkpt>
      <trkpt lat="42.0537510" lon="-7.6681060">
        <ele>625.9</ele>
        <time>2019-08-17T11:35:14Z</time>
      </trkpt>
      <trkpt lat="42.0537900" lon="-7.6681710">
        <ele>625.7</ele>
        <time>2019-08-17T11:35:15Z</time>
      </trkpt>
      <trkpt lat="42.0538290" lon="-7.6682360">
        <ele>625.6</ele>
        <time>2019-08-17T11:35:16Z</time>
      </trkpt>
      <trkpt lat="42.0538670" lon="-7.6683030">
        <ele>625.5</ele>
        <time>2019-08-17T11:35:17Z</time>
      </trkpt>
      <trkpt lat="42.0539060" lon="-7.6683710">
        <ele>625.3</ele>
        <time>2019-08-17T11:35:18Z</time>
      </trkpt>
      <trkpt lat="42.0539440" lon="-7.6684400">
        <ele>625.2</ele>
        <time>2019-08-17T11:35:19Z</time>
      </trkpt>
      <trkpt lat="42.0539820" lon="-7.6685100">
        <ele>625.1</ele>
        <time>2019-08-17T11:35:20Z</time>
      </trkpt>
      <trkpt lat="42.0540200" lon="-7.6685800">
        <ele>624.9</ele>
        <time>2019-08-17T11:35:21Z</time>
      </trkpt>
      <trkpt lat="42.0540580" lon="-7.6686520">
        <ele>624.8</ele>
        <time>2019-08-17T11:35:22Z</time>
      </trkpt>
      <trkpt lat="42.0540960" lon="-7.6687240">
        <ele>624.6</ele>
        <time>2019-08-17T11:35:23Z</time>
      </trkpt>
      <trkpt lat="42.0541330" lon="-7.6687970">
        <ele>624.5</ele>
        <time>2019-08-17T11:35:24Z</time>
      </trkpt>
      <trkpt lat="42.0541700" lon="-7.6688710">
        <ele>624.3</ele>
        <time>2019-08-17T11:35:25Z</time>
      </trkpt>
      <trkpt lat="42.0542060" lon="-7.6689460">
        <ele>624.2</ele>
        <time>2019-08-17T11:35:26Z</time>
      </trkpt>
      <trkpt lat="42.0542430" lon="-7.6690210">
        <ele>624.0</ele>
        <time>2019-08-17T11:35:27Z</time>
      </trkpt>
      <trkpt lat="42.0542790" lon="-7.6690970">
        <ele>623.9</ele>
        <time>2019-08-17T11:35:28Z</time>
      </trkpt>
      <trkpt lat="42.0543150" lon="-7.6691730">
        <ele>623.7</ele>
        <time>2019-08-17T11:35:29Z</time>
      </trkpt>
      <trkpt lat="42.0543530" lon="-7.6692480">
        <ele>623.5</ele>
        <time>2019-08-17T11:35:30Z</time>
      </trkpt>
      <trkpt lat="42.0543900" lon="-7.6693230">
        <ele>623.4</ele>
        <time>2019-08-17T11:35:31Z</time>
      </trkpt>
      <trkpt lat="42.0544290" lon="-7.6693980">
        <ele>623.2</ele>
        <time>2019-08-17T11:35:32Z</time>
      </trkpt>
      <trkpt lat="42.0544670" lon="-7.6694730">
        <ele>623.0</ele>
        <time>2019-08-17T11:35:33Z</time>
      </trkpt>
      <trkpt lat="42.0545040" lon="-7.6695490">
        <ele>622.9</ele>
        <time>2019-08-17T11:35:34Z</time>
      </trkpt>
      <trkpt lat="42.0545400" lon="-7.6696270">
        <ele>622.7</ele>
        <time>2019-08-17T11:35:35Z</time>
      </trkpt>
      <trkpt lat="42.0545750" lon="-7.6697040">
        <ele>622.6</ele>
        <time>2019-08-17T11:35:36Z</time>
      </trkpt>
      <trkpt lat="42.0546100" lon="-7.6697820">
        <ele>622.4</ele>
        <time>2019-08-17T11:35:37Z</time>
      </trkpt>
      <trkpt lat="42.0546430" lon="-7.6698580">
        <ele>622.3</ele>
        <time>2019-08-17T11:35:38Z</time>
      </trkpt>
      <trkpt lat="42.0546760" lon="-7.6699320">
        <ele>622.2</ele>
        <time>2019-08-17T11:35:39Z</time>
      </trkpt>
      <trkpt lat="42.0547080" lon="-7.6700040">
        <ele>622.0</ele>
        <time>2019-08-17T11:35:40Z</time>
      </trkpt>
      <trkpt lat="42.0547420" lon="-7.6700750">
        <ele>621.9</ele>
        <time>2019-08-17T11:35:41Z</time>
      </trkpt>
      <trkpt lat="42.0547780" lon="-7.6701460">
        <ele>621.8</ele>
        <time>2019-08-17T11:35:42Z</time>
      </trkpt>
      <trkpt lat="42.0548160" lon="-7.6702180">
        <ele>621.8</ele>
        <time>2019-08-17T11:35:43Z</time>
      </trkpt>
      <trkpt lat="42.0548560" lon="-7.6702890">
        <ele>621.7</ele>
        <time>2019-08-17T11:35:44Z</time>
      </trkpt>
      <trkpt lat="42.0548980" lon="-7.6703590">
        <ele>621.7</ele>
        <time>2019-08-17T11:35:45Z</time>
      </trkpt>
      <trkpt lat="42.0549420" lon="-7.6704260">
        <ele>621.6</ele>
        <time>2019-08-17T11:35:46Z</time>
      </trkpt>
      <trkpt lat="42.0549870" lon="-7.6704920">
        <ele>621.6</ele>
        <time>2019-08-17T11:35:47Z</time>
      </trkpt>
      <trkpt lat="42.0550300" lon="-7.6705600">
        <ele>621.6</ele>
        <time>2019-08-17T11:35:48Z</time>
      </trkpt>
      <trkpt lat="42.0550690" lon="-7.6706340">
        <ele>621.6</ele>
        <time>2019-08-17T11:35:49Z</time>
      </trkpt>
      <trkpt lat="42.0551070" lon="-7.6707120">
        <ele>621.6</ele>
        <time>2019-08-17T11:35:50Z</time>
      </trkpt>
      <trkpt lat="42.0551440" lon="-7.6707900">
        <ele>621.5</ele>
        <time>2019-08-17T11:35:51Z</time>
      </trkpt>
      <trkpt lat="42.0551830" lon="-7.6708660">
        <ele>621.5</ele>
        <time>2019-08-17T11:35:52Z</time>
      </trkpt>
      <trkpt lat="42.0552220" lon="-7.6709420">
        <ele>621.4</ele>
        <time>2019-08-17T11:35:53Z</time>
      </trkpt>
      <trkpt lat="42.0552610" lon="-7.6710170">
        <ele>621.2</ele>
        <time>2019-08-17T11:35:54Z</time>
      </trkpt>
      <trkpt lat="42.0553000" lon="-7.6710920">
        <ele>621.1</ele>
        <time>2019-08-17T11:35:55Z</time>
      </trkpt>
      <trkpt lat="42.0553390" lon="-7.6711670">
        <ele>621.0</ele>
        <time>2019-08-17T11:35:56Z</time>
      </trkpt>
      <trkpt lat="42.0553770" lon="-7.6712410">
        <ele>620.9</ele>
        <time>2019-08-17T11:35:57Z</time>
      </trkpt>
      <trkpt lat="42.0554130" lon="-7.6713150">
        <ele>620.8</ele>
        <time>2019-08-17T11:35:58Z</time>
      </trkpt>
      <trkpt lat="42.0554490" lon="-7.6713900">
        <ele>620.8</ele>
        <time>2019-08-17T11:35:59Z</time>
      </trkpt>
      <trkpt lat="42.0554830" lon="-7.6714630">
        <ele>620.8</ele>
        <time>2019-08-17T11:36:00Z</time>
      </trkpt>
      <trkpt lat="42.0555170" lon="-7.6715370">
        <ele>620.8</ele>
        <time>2019-08-17T11:36:01Z</time>
      </trkpt>
      <trkpt lat="42.0555500" lon="-7.6716100">
        <ele>620.8</ele>
        <time>2019-08-17T11:36:02Z</time>
      </trkpt>
      <trkpt lat="42.0555820" lon="-7.6716830">
        <ele>620.8</ele>
        <time>2019-08-17T11:36:03Z</time>
      </trkpt>
      <trkpt lat="42.0556140" lon="-7.6717550">
        <ele>620.8</ele>
        <time>2019-08-17T11:36:04Z</time>
      </trkpt>
      <trkpt lat="42.0556460" lon="-7.6718270">
        <ele>620.8</ele>
        <time>2019-08-17T11:36:05Z</time>
      </trkpt>
      <trkpt lat="42.0556770" lon="-7.6718980">
        <ele>620.8</ele>
        <time>2019-08-17T11:36:06Z</time>
      </trkpt>
      <trkpt lat="42.0557070" lon="-7.6719680">
        <ele>620.8</ele>
        <time>2019-08-17T11:36:07Z</time>
      </trkpt>
      <trkpt lat="42.0557380" lon="-7.6720380">
        <ele>620.8</ele>
        <time>2019-08-17T11:36:08Z</time>
      </trkpt>
      <trkpt lat="42.0557680" lon="-7.6721070">
        <ele>620.8</ele>
        <time>2019-08-17T11:36:09Z</time>
      </trkpt>
      <trkpt lat="42.0557990" lon="-7.6721770">
        <ele>620.8</ele>
        <time>2019-08-17T11:36:10Z</time>
      </trkpt>
      <trkpt lat="42.0558300" lon="-7.6722470">
        <ele>620.8</ele>
        <time>2019-08-17T11:36:11Z</time>
      </trkpt>
      <trkpt lat="42.0558610" lon="-7.6723170">
        <ele>620.8</ele>
        <time>2019-08-17T11:36:12Z</time>
      </trkpt>
      <trkpt lat="42.0558920" lon="-7.6723880">
        <ele>620.7</ele>
        <time>2019-08-17T11:36:13Z</time>
      </trkpt>
      <trkpt lat="42.0559240" lon="-7.6724600">
        <ele>620.7</ele>
        <time>2019-08-17T11:36:14Z</time>
      </trkpt>
      <trkpt lat="42.0559560" lon="-7.6725320">
        <ele>620.7</ele>
        <time>2019-08-17T11:36:15Z</time>
      </trkpt>
      <trkpt lat="42.0559880" lon="-7.6726050">
        <ele>620.7</ele>
        <time>2019-08-17T11:36:16Z</time>
      </trkpt>
      <trkpt lat="42.0560200" lon="-7.6726780">
        <ele>620.6</ele>
        <time>2019-08-17T11:36:17Z</time>
      </trkpt>
      <trkpt lat="42.0560530" lon="-7.6727510">
        <ele>620.6</ele>
        <time>2019-08-17T11:36:18Z</time>
      </trkpt>
      <trkpt lat="42.0560850" lon="-7.6728240">
        <ele>620.6</ele>
        <time>2019-08-17T11:36:19Z</time>
      </trkpt>
      <trkpt lat="42.0561180" lon="-7.6728970">
        <ele>620.6</ele>
        <time>2019-08-17T11:36:20Z</time>
      </trkpt>
      <trkpt lat="42.0561500" lon="-7.6729690">
        <ele>620.6</ele>
        <time>2019-08-17T11:36:21Z</time>
      </trkpt>
      <trkpt lat="42.0561820" lon="-7.6730400">
        <ele>620.5</ele>
        <time>2019-08-17T11:36:22Z</time>
      </trkpt>
      <trkpt lat="42.0562130" lon="-7.6731110">
        <ele>620.5</ele>
        <time>2019-08-17T11:36:23Z</time>
      </trkpt>
      <trkpt lat="42.0562440" lon="-7.6731800">
        <ele>620.5</ele>
        <time>2019-08-17T11:36:24Z</time>
      </trkpt>
      <trkpt lat="42.0562730" lon="-7.6732470">
        <ele>620.5</ele>
        <time>2019-08-17T11:36:25Z</time>
      </trkpt>
      <trkpt lat="42.0563020" lon="-7.6733130">
        <ele>620.5</ele>
        <time>2019-08-17T11:36:26Z</time>
      </trkpt>
      <trkpt lat="42.0563290" lon="-7.6733770">
        <ele>620.5</ele>
        <time>2019-08-17T11:36:27Z</time>
      </trkpt>
      <trkpt lat="42.0563560" lon="-7.6734410">
        <ele>620.5</ele>
        <time>2019-08-17T11:36:28Z</time>
      </trkpt>
      <trkpt lat="42.0563840" lon="-7.6735050">
        <ele>620.5</ele>
        <time>2019-08-17T11:36:29Z</time>
      </trkpt>
      <trkpt lat="42.0564110" lon="-7.6735700">
        <ele>620.5</ele>
        <time>2019-08-17T11:36:30Z</time>
      </trkpt>
      <trkpt lat="42.0564390" lon="-7.6736340">
        <ele>620.5</ele>
        <time>2019-08-17T11:36:31Z</time>
      </trkpt>
      <trkpt lat="42.0564680" lon="-7.6736990">
        <ele>620.4</ele>
        <time>2019-08-17T11:36:32Z</time>
      </trkpt>
      <trkpt lat="42.0564960" lon="-7.6737640">
        <ele>620.4</ele>
        <time>2019-08-17T11:36:33Z</time>
      </trkpt>
      <trkpt lat="42.0565250" lon="-7.6738300">
        <ele>620.4</ele>
        <time>2019-08-17T11:36:34Z</time>
      </trkpt>
      <trkpt lat="42.0565540" lon="-7.6738960">
        <ele>620.4</ele>
        <time>2019-08-17T11:36:35Z</time>
      </trkpt>
      <trkpt lat="42.0565830" lon="-7.6739620">
        <ele>620.4</ele>
        <time>2019-08-17T11:36:36Z</time>
      </trkpt>
      <trkpt lat="42.0566130" lon="-7.6740290">
        <ele>620.4</ele>
        <time>2019-08-17T11:36:37Z</time>
      </trkpt>
      <trkpt lat="42.0566420" lon="-7.6740960">
        <ele>620.4</ele>
        <time>2019-08-17T11:36:38Z</time>
      </trkpt>
      <trkpt lat="42.0566720" lon="-7.6741630">
        <ele>620.4</ele>
        <time>2019-08-17T11:36:39Z</time>
      </trkpt>
      <trkpt lat="42.0567020" lon="-7.6742310">
        <ele>620.4</ele>
        <time>2019-08-17T11:36:40Z</time>
      </trkpt>
      <trkpt lat="42.0567320" lon="-7.6743000">
        <ele>620.4</ele>
        <time>2019-08-17T11:36:41Z</time>
      </trkpt>
      <trkpt lat="42.0567620" lon="-7.6743680">
        <ele>620.4</ele>
        <time>2019-08-17T11:36:42Z</time>
      </trkpt>
      <trkpt lat="42.0567920" lon="-7.6744380">
        <ele>620.3</ele>
        <time>2019-08-17T11:36:43Z</time>
      </trkpt>
      <trkpt lat="42.0568220" lon="-7.6745070">
        <ele>620.3</ele>
        <time>2019-08-17T11:36:44Z</time>
      </trkpt>
      <trkpt lat="42.0568520" lon="-7.6745780">
        <ele>620.3</ele>
        <time>2019-08-17T11:36:45Z</time>
      </trkpt>
      <trkpt lat="42.0568820" lon="-7.6746480">
        <ele>620.3</ele>
        <time>2019-08-17T11:36:46Z</time>
      </trkpt>
      <trkpt lat="42.0569120" lon="-7.6747190">
        <ele>620.3</ele>
        <time>2019-08-17T11:36:47Z</time>
      </trkpt>
      <trkpt lat="42.0569430" lon="-7.6747910">
        <ele>620.3</ele>
        <time>2019-08-17T11:36:48Z</time>
      </trkpt>
      <trkpt lat="42.0569730" lon="-7.6748620">
        <ele>620.3</ele>
        <time>2019-08-17T11:36:49Z</time>
      </trkpt>
      <trkpt lat="42.0570040" lon="-7.6749340">
        <ele>620.3</ele>
        <time>2019-08-17T11:36:50Z</time>
      </trkpt>
      <trkpt lat="42.0570350" lon="-7.6750050">
        <ele>620.3</ele>
        <time>2019-08-17T11:36:51Z</time>
      </trkpt>
      <trkpt lat="42.0570670" lon="-7.6750770">
        <ele>620.3</ele>
        <time>2019-08-17T11:36:52Z</time>
      </trkpt>
      <trkpt lat="42.0570990" lon="-7.6751490">
        <ele>620.3</ele>
        <time>2019-08-17T11:36:53Z</time>
      </trkpt>
      <trkpt lat="42.0571320" lon="-7.6752200">
        <ele>620.3</ele>
        <time>2019-08-17T11:36:54Z</time>
      </trkpt>
      <trkpt lat="42.0571640" lon="-7.6752920">
        <ele>620.3</ele>
        <time>2019-08-17T11:36:55Z</time>
      </trkpt>
      <trkpt lat="42.0571970" lon="-7.6753630">
        <ele>620.3</ele>
        <time>2019-08-17T11:36:56Z</time>
      </trkpt>
      <trkpt lat="42.0572310" lon="-7.6754350">
        <ele>620.3</ele>
        <time>2019-08-17T11:36:57Z</time>
      </trkpt>
      <trkpt lat="42.0572640" lon="-7.6755070">
        <ele>620.3</ele>
        <time>2019-08-17T11:36:58Z</time>
      </trkpt>
      <trkpt lat="42.0572980" lon="-7.6755790">
        <ele>620.3</ele>
        <time>2019-08-17T11:36:59Z</time>
      </trkpt>
      <trkpt lat="42.0573310" lon="-7.6756510">
        <ele>620.3</ele>
        <time>2019-08-17T11:37:00Z</time>
      </trkpt>
      <trkpt lat="42.0573650" lon="-7.6757240">
        <ele>620.2</ele>
        <time>2019-08-17T11:37:01Z</time>
      </trkpt>
      <trkpt lat="42.0573990" lon="-7.6757960">
        <ele>620.2</ele>
        <time>2019-08-17T11:37:02Z</time>
      </trkpt>
      <trkpt lat="42.0574320" lon="-7.6758690">
        <ele>620.2</ele>
        <time>2019-08-17T11:37:03Z</time>
      </trkpt>
      <trkpt lat="42.0574660" lon="-7.6759420">
        <ele>620.2</ele>
        <time>2019-08-17T11:37:04Z</time>
      </trkpt>
      <trkpt lat="42.0574990" lon="-7.6760150">
        <ele>620.2</ele>
        <time>2019-08-17T11:37:05Z</time>
      </trkpt>
      <trkpt lat="42.0575320" lon="-7.6760880">
        <ele>620.2</ele>
        <time>2019-08-17T11:37:06Z</time>
      </trkpt>
      <trkpt lat="42.0575640" lon="-7.6761610">
        <ele>620.2</ele>
        <time>2019-08-17T11:37:07Z</time>
      </trkpt>
      <trkpt lat="42.0575960" lon="-7.6762330">
        <ele>620.2</ele>
        <time>2019-08-17T11:37:08Z</time>
      </trkpt>
      <trkpt lat="42.0576280" lon="-7.6763050">
        <ele>620.2</ele>
        <time>2019-08-17T11:37:09Z</time>
      </trkpt>
      <trkpt lat="42.0576580" lon="-7.6763770">
        <ele>620.2</ele>
        <time>2019-08-17T11:37:10Z</time>
      </trkpt>
      <trkpt lat="42.0576890" lon="-7.6764490">
        <ele>620.2</ele>
        <time>2019-08-17T11:37:11Z</time>
      </trkpt>
      <trkpt lat="42.0577200" lon="-7.6765200">
        <ele>620.2</ele>
        <time>2019-08-17T11:37:12Z</time>
      </trkpt>
      <trkpt lat="42.0577500" lon="-7.6765910">
        <ele>620.2</ele>
        <time>2019-08-17T11:37:13Z</time>
      </trkpt>
      <trkpt lat="42.0577800" lon="-7.6766620">
        <ele>620.2</ele>
        <time>2019-08-17T11:37:14Z</time>
      </trkpt>
      <trkpt lat="42.0578100" lon="-7.6767330">
        <ele>620.2</ele>
        <time>2019-08-17T11:37:15Z</time>
      </trkpt>
      <trkpt lat="42.0578410" lon="-7.6768040">
        <ele>620.2</ele>
        <time>2019-08-17T11:37:16Z</time>
      </trkpt>
      <trkpt lat="42.0578710" lon="-7.6768740">
        <ele>620.1</ele>
        <time>2019-08-17T11:37:17Z</time>
      </trkpt>
      <trkpt lat="42.0579020" lon="-7.6769450">
        <ele>620.1</ele>
        <time>2019-08-17T11:37:18Z</time>
      </trkpt>
      <trkpt lat="42.0579330" lon="-7.6770160">
        <ele>620.1</ele>
        <time>2019-08-17T11:37:19Z</time>
      </trkpt>
      <trkpt lat="42.0579650" lon="-7.6770870">
        <ele>620.1</ele>
        <time>2019-08-17T11:37:20Z</time>
      </trkpt>
      <trkpt lat="42.0579960" lon="-7.6771580">
        <ele>620.1</ele>
        <time>2019-08-17T11:37:21Z</time>
      </trkpt>
      <trkpt lat="42.0580280" lon="-7.6772280">
        <ele>620.1</ele>
        <time>2019-08-17T11:37:22Z</time>
      </trkpt>
      <trkpt lat="42.0580590" lon="-7.6772990">
        <ele>620.1</ele>
        <time>2019-08-17T11:37:23Z</time>
      </trkpt>
      <trkpt lat="42.0580910" lon="-7.6773700">
        <ele>620.1</ele>
        <time>2019-08-17T11:37:24Z</time>
      </trkpt>
      <trkpt lat="42.0581230" lon="-7.6774410">
        <ele>620.1</ele>
        <time>2019-08-17T11:37:25Z</time>
      </trkpt>
      <trkpt lat="42.0581550" lon="-7.6775120">
        <ele>620.1</ele>
        <time>2019-08-17T11:37:26Z</time>
      </trkpt>
      <trkpt lat="42.0581860" lon="-7.6775830">
        <ele>620.1</ele>
        <time>2019-08-17T11:37:27Z</time>
      </trkpt>
      <trkpt lat="42.0582180" lon="-7.6776540">
        <ele>620.1</ele>
        <time>2019-08-17T11:37:28Z</time>
      </trkpt>
      <trkpt lat="42.0582500" lon="-7.6777250">
        <ele>620.1</ele>
        <time>2019-08-17T11:37:29Z</time>
      </trkpt>
      <trkpt lat="42.0582810" lon="-7.6777960">
        <ele>620.1</ele>
        <time>2019-08-17T11:37:30Z</time>
      </trkpt>
      <trkpt lat="42.0583120" lon="-7.6778670">
        <ele>620.1</ele>
        <time>2019-08-17T11:37:31Z</time>
      </trkpt>
      <trkpt lat="42.0583430" lon="-7.6779380">
        <ele>620.1</ele>
        <time>2019-08-17T11:37:32Z</time>
      </trkpt>
      <trkpt lat="42.0583740" lon="-7.6780090">
        <ele>620.1</ele>
        <time>2019-08-17T11:37:33Z</time>
      </trkpt>
      <trkpt lat="42.0584050" lon="-7.6780800">
        <ele>620.1</ele>
        <time>2019-08-17T11:37:34Z</time>
      </trkpt>
      <trkpt lat="42.0584360" lon="-7.6781510">
        <ele>620.1</ele>
        <time>2019-08-17T11:37:35Z</time>
      </trkpt>
      <trkpt lat="42.0584660" lon="-7.6782220">
        <ele>620.1</ele>
        <time>2019-08-17T11:37:36Z</time>
      </trkpt>
      <trkpt lat="42.0584960" lon="-7.6782920">
        <ele>620.1</ele>
        <time>2019-08-17T11:37:37Z</time>
      </trkpt>
      <trkpt lat="42.0585270" lon="-7.6783610">
        <ele>620.1</ele>
        <time>2019-08-17T11:37:38Z</time>
      </trkpt>
      <trkpt lat="42.0585570" lon="-7.6784300">
        <ele>620.1</ele>
        <time>2019-08-17T11:37:39Z</time>
      </trkpt>
      <trkpt lat="42.0585860" lon="-7.6784980">
        <ele>620.0</ele>
        <time>2019-08-17T11:37:40Z</time>
      </trkpt>
      <trkpt lat="42.0586160" lon="-7.6785660">
        <ele>620.0</ele>
        <time>2019-08-17T11:37:41Z</time>
      </trkpt>
      <trkpt lat="42.0586460" lon="-7.6786330">
        <ele>620.0</ele>
        <time>2019-08-17T11:37:42Z</time>
      </trkpt>
      <trkpt lat="42.0586750" lon="-7.6787000">
        <ele>620.0</ele>
        <time>2019-08-17T11:37:43Z</time>
      </trkpt>
      <trkpt lat="42.0587050" lon="-7.6787670">
        <ele>620.0</ele>
        <time>2019-08-17T11:37:44Z</time>
      </trkpt>
      <trkpt lat="42.0587350" lon="-7.6788340">
        <ele>620.0</ele>
        <time>2019-08-17T11:37:45Z</time>
      </trkpt>
      <trkpt lat="42.0587640" lon="-7.6789020">
        <ele>620.0</ele>
        <time>2019-08-17T11:37:46Z</time>
      </trkpt>
      <trkpt lat="42.0587940" lon="-7.6789700">
        <ele>620.0</ele>
        <time>2019-08-17T11:37:47Z</time>
      </trkpt>
      <trkpt lat="42.0588240" lon="-7.6790390">
        <ele>620.0</ele>
        <time>2019-08-17T11:37:48Z</time>
      </trkpt>
      <trkpt lat="42.0588540" lon="-7.6791080">
        <ele>620.0</ele>
        <time>2019-08-17T11:37:49Z</time>
      </trkpt>
      <trkpt lat="42.0588850" lon="-7.6791780">
        <ele>620.0</ele>
        <time>2019-08-17T11:37:50Z</time>
      </trkpt>
      <trkpt lat="42.0589150" lon="-7.6792490">
        <ele>620.0</ele>
        <time>2019-08-17T11:37:51Z</time>
      </trkpt>
      <trkpt lat="42.0589460" lon="-7.6793200">
        <ele>620.0</ele>
        <time>2019-08-17T11:37:52Z</time>
      </trkpt>
      <trkpt lat="42.0589760" lon="-7.6793920">
        <ele>620.0</ele>
        <time>2019-08-17T11:37:53Z</time>
      </trkpt>
      <trkpt lat="42.0590070" lon="-7.6794640">
        <ele>620.0</ele>
        <time>2019-08-17T11:37:54Z</time>
      </trkpt>
      <trkpt lat="42.0590380" lon="-7.6795360">
        <ele>620.0</ele>
        <time>2019-08-17T11:37:55Z</time>
      </trkpt>
      <trkpt lat="42.0590690" lon="-7.6796090">
        <ele>620.0</ele>
        <time>2019-08-17T11:37:56Z</time>
      </trkpt>
      <trkpt lat="42.0591000" lon="-7.6796820">
        <ele>620.0</ele>
        <time>2019-08-17T11:37:57Z</time>
      </trkpt>
      <trkpt lat="42.0591320" lon="-7.6797550">
        <ele>620.0</ele>
        <time>2019-08-17T11:37:58Z</time>
      </trkpt>
      <trkpt lat="42.0591630" lon="-7.6798280">
        <ele>619.9</ele>
        <time>2019-08-17T11:37:59Z</time>
      </trkpt>
      <trkpt lat="42.0591940" lon="-7.6799020">
        <ele>619.9</ele>
        <time>2019-08-17T11:38:00Z</time>
      </trkpt>
      <trkpt lat="42.0592260" lon="-7.6799760">
        <ele>619.9</ele>
        <time>2019-08-17T11:38:01Z</time>
      </trkpt>
      <trkpt lat="42.0592570" lon="-7.6800490">
        <ele>619.9</ele>
        <time>2019-08-17T11:38:02Z</time>
      </trkpt>
      <trkpt lat="42.0592890" lon="-7.6801230">
        <ele>619.9</ele>
        <time>2019-08-17T11:38:03Z</time>
      </trkpt>
      <trkpt lat="42.0593200" lon="-7.6801960">
        <ele>619.9</ele>
        <time>2019-08-17T11:38:04Z</time>
      </trkpt>
      <trkpt lat="42.0593520" lon="-7.6802700">
        <ele>619.9</ele>
        <time>2019-08-17T11:38:05Z</time>
      </trkpt>
      <trkpt lat="42.0593830" lon="-7.6803430">
        <ele>619.9</ele>
        <time>2019-08-17T11:38:06Z</time>
      </trkpt>
      <trkpt lat="42.0594140" lon="-7.6804160">
        <ele>619.9</ele>
        <time>2019-08-17T11:38:07Z</time>
      </trkpt>
      <trkpt lat="42.0594440" lon="-7.6804890">
        <ele>619.9</ele>
        <time>2019-08-17T11:38:08Z</time>
      </trkpt>
      <trkpt lat="42.0594730" lon="-7.6805610">
        <ele>619.9</ele>
        <time>2019-08-17T11:38:09Z</time>
      </trkpt>
      <trkpt lat="42.0595020" lon="-7.6806330">
        <ele>619.9</ele>
        <time>2019-08-17T11:38:10Z</time>
      </trkpt>
      <trkpt lat="42.0595300" lon="-7.6807050">
        <ele>619.9</ele>
        <time>2019-08-17T11:38:11Z</time>
      </trkpt>
      <trkpt lat="42.0595570" lon="-7.6807760">
        <ele>620.0</ele>
        <time>2019-08-17T11:38:12Z</time>
      </trkpt>
      <trkpt lat="42.0595830" lon="-7.6808460">
        <ele>620.0</ele>
        <time>2019-08-17T11:38:13Z</time>
      </trkpt>
      <trkpt lat="42.0596080" lon="-7.6809160">
        <ele>620.0</ele>
        <time>2019-08-17T11:38:14Z</time>
      </trkpt>
      <trkpt lat="42.0596320" lon="-7.6809840">
        <ele>620.0</ele>
        <time>2019-08-17T11:38:15Z</time>
      </trkpt>
      <trkpt lat="42.0596550" lon="-7.6810510">
        <ele>620.0</ele>
        <time>2019-08-17T11:38:16Z</time>
      </trkpt>
      <trkpt lat="42.0596780" lon="-7.6811170">
        <ele>620.0</ele>
        <time>2019-08-17T11:38:17Z</time>
      </trkpt>
      <trkpt lat="42.0596990" lon="-7.6811810">
        <ele>620.1</ele>
        <time>2019-08-17T11:38:18Z</time>
      </trkpt>
      <trkpt lat="42.0597190" lon="-7.6812430">
        <ele>620.1</ele>
        <time>2019-08-17T11:38:19Z</time>
      </trkpt>
      <trkpt lat="42.0597380" lon="-7.6813040">
        <ele>620.1</ele>
        <time>2019-08-17T11:38:20Z</time>
      </trkpt>
      <trkpt lat="42.0597560" lon="-7.6813630">
        <ele>620.1</ele>
        <time>2019-08-17T11:38:21Z</time>
      </trkpt>
      <trkpt lat="42.0597740" lon="-7.6814220">
        <ele>620.1</ele>
        <time>2019-08-17T11:38:22Z</time>
      </trkpt>
      <trkpt lat="42.0597900" lon="-7.6814790">
        <ele>620.1</ele>
        <time>2019-08-17T11:38:23Z</time>
      </trkpt>
      <trkpt lat="42.0598060" lon="-7.6815360">
        <ele>620.1</ele>
        <time>2019-08-17T11:38:24Z</time>
      </trkpt>
      <trkpt lat="42.0598220" lon="-7.6815930">
        <ele>620.1</ele>
        <time>2019-08-17T11:38:25Z</time>
      </trkpt>
      <trkpt lat="42.0598370" lon="-7.6816490">
        <ele>620.1</ele>
        <time>2019-08-17T11:38:26Z</time>
      </trkpt>
      <trkpt lat="42.0598520" lon="-7.6817050">
        <ele>620.2</ele>
        <time>2019-08-17T11:38:27Z</time>
      </trkpt>
      <trkpt lat="42.0598670" lon="-7.6817620">
        <ele>620.2</ele>
        <time>2019-08-17T11:38:28Z</time>
      </trkpt>
      <trkpt lat="42.0598810" lon="-7.6818180">
        <ele>620.2</ele>
        <time>2019-08-17T11:38:29Z</time>
      </trkpt>
      <trkpt lat="42.0598950" lon="-7.6818750">
        <ele>620.3</ele>
        <time>2019-08-17T11:38:30Z</time>
      </trkpt>
      <trkpt lat="42.0599090" lon="-7.6819320">
        <ele>620.3</ele>
        <time>2019-08-17T11:38:31Z</time>
      </trkpt>
      <trkpt lat="42.0599220" lon="-7.6819890">
        <ele>620.3</ele>
        <time>2019-08-17T11:38:32Z</time>
      </trkpt>
      <trkpt lat="42.0599360" lon="-7.6820470">
        <ele>620.4</ele>
        <time>2019-08-17T11:38:33Z</time>
      </trkpt>
      <trkpt lat="42.0599490" lon="-7.6821040">
        <ele>620.4</ele>
        <time>2019-08-17T11:38:34Z</time>
      </trkpt>
      <trkpt lat="42.0599610" lon="-7.6821620">
        <ele>620.5</ele>
        <time>2019-08-17T11:38:35Z</time>
      </trkpt>
      <trkpt lat="42.0599740" lon="-7.6822200">
        <ele>620.6</ele>
        <time>2019-08-17T11:38:36Z</time>
      </trkpt>
      <trkpt lat="42.0599870" lon="-7.6822780">
        <ele>620.6</ele>
        <time>2019-08-17T11:38:37Z</time>
      </trkpt>
      <trkpt lat="42.0599990" lon="-7.6823360">
        <ele>620.7</ele>
        <time>2019-08-17T11:38:38Z</time>
      </trkpt>
      <trkpt lat="42.0600110" lon="-7.6823940">
        <ele>620.8</ele>
        <time>2019-08-17T11:38:39Z</time>
      </trkpt>
      <trkpt lat="42.0600230" lon="-7.6824520">
        <ele>620.9</ele>
        <time>2019-08-17T11:38:40Z</time>
      </trkpt>
      <trkpt lat="42.0600350" lon="-7.6825100">
        <ele>620.9</ele>
        <time>2019-08-17T11:38:41Z</time>
      </trkpt>
      <trkpt lat="42.0600460" lon="-7.6825680">
        <ele>621.0</ele>
        <time>2019-08-17T11:38:42Z</time>
      </trkpt>
      <trkpt lat="42.0600580" lon="-7.6826260">
        <ele>621.1</ele>
        <time>2019-08-17T11:38:43Z</time>
      </trkpt>
      <trkpt lat="42.0600690" lon="-7.6826840">
        <ele>621.2</ele>
        <time>2019-08-17T11:38:44Z</time>
      </trkpt>
      <trkpt lat="42.0600800" lon="-7.6827420">
        <ele>621.2</ele>
        <time>2019-08-17T11:38:45Z</time>
      </trkpt>
      <trkpt lat="42.0600920" lon="-7.6827990">
        <ele>621.3</ele>
        <time>2019-08-17T11:38:46Z</time>
      </trkpt>
      <trkpt lat="42.0601020" lon="-7.6828560">
        <ele>621.4</ele>
        <time>2019-08-17T11:38:47Z</time>
      </trkpt>
      <trkpt lat="42.0601130" lon="-7.6829130">
        <ele>621.4</ele>
        <time>2019-08-17T11:38:48Z</time>
      </trkpt>
      <trkpt lat="42.0601240" lon="-7.6829700">
        <ele>621.5</ele>
        <time>2019-08-17T11:38:49Z</time>
      </trkpt>
      <trkpt lat="42.0601350" lon="-7.6830260">
        <ele>621.5</ele>
        <time>2019-08-17T11:38:50Z</time>
      </trkpt>
      <trkpt lat="42.0601450" lon="-7.6830830">
        <ele>621.5</ele>
        <time>2019-08-17T11:38:51Z</time>
      </trkpt>
      <trkpt lat="42.0601560" lon="-7.6831400">
        <ele>621.6</ele>
        <time>2019-08-17T11:38:52Z</time>
      </trkpt>
      <trkpt lat="42.0601670" lon="-7.6831980">
        <ele>621.6</ele>
        <time>2019-08-17T11:38:53Z</time>
      </trkpt>
      <trkpt lat="42.0601780" lon="-7.6832580">
        <ele>621.6</ele>
        <time>2019-08-17T11:38:54Z</time>
      </trkpt>
      <trkpt lat="42.0601890" lon="-7.6833180">
        <ele>621.7</ele>
        <time>2019-08-17T11:38:55Z</time>
      </trkpt>
      <trkpt lat="42.0602000" lon="-7.6833770">
        <ele>621.7</ele>
        <time>2019-08-17T11:38:56Z</time>
      </trkpt>
      <trkpt lat="42.0602110" lon="-7.6834360">
        <ele>621.7</ele>
        <time>2019-08-17T11:38:57Z</time>
      </trkpt>
      <trkpt lat="42.0602220" lon="-7.6834940">
        <ele>621.7</ele>
        <time>2019-08-17T11:38:58Z</time>
      </trkpt>
      <trkpt lat="42.0602330" lon="-7.6835510">
        <ele>621.7</ele>
        <time>2019-08-17T11:38:59Z</time>
      </trkpt>
      <trkpt lat="42.0602430" lon="-7.6836080">
        <ele>621.6</ele>
        <time>2019-08-17T11:39:00Z</time>
      </trkpt>
      <trkpt lat="42.0602540" lon="-7.6836670">
        <ele>621.6</ele>
        <time>2019-08-17T11:39:01Z</time>
      </trkpt>
      <trkpt lat="42.0602650" lon="-7.6837270">
        <ele>621.5</ele>
        <time>2019-08-17T11:39:02Z</time>
      </trkpt>
      <trkpt lat="42.0602770" lon="-7.6837910">
        <ele>621.4</ele>
        <time>2019-08-17T11:39:03Z</time>
      </trkpt>
      <trkpt lat="42.0602890" lon="-7.6838580">
        <ele>621.3</ele>
        <time>2019-08-17T11:39:04Z</time>
      </trkpt>
      <trkpt lat="42.0603030" lon="-7.6839300">
        <ele>621.2</ele>
        <time>2019-08-17T11:39:05Z</time>
      </trkpt>
      <trkpt lat="42.0603170" lon="-7.6840060">
        <ele>621.0</ele>
        <time>2019-08-17T11:39:06Z</time>
      </trkpt>
      <trkpt lat="42.0603310" lon="-7.6840850">
        <ele>620.8</ele>
        <time>2019-08-17T11:39:07Z</time>
      </trkpt>
      <trkpt lat="42.0603470" lon="-7.6841670">
        <ele>620.6</ele>
        <time>2019-08-17T11:39:08Z</time>
      </trkpt>
      <trkpt lat="42.0603620" lon="-7.6842510">
        <ele>620.5</ele>
        <time>2019-08-17T11:39:09Z</time>
      </trkpt>
      <trkpt lat="42.0603780" lon="-7.6843370">
        <ele>620.4</ele>
        <time>2019-08-17T11:39:10Z</time>
      </trkpt>
      <trkpt lat="42.0604030" lon="-7.6844660">
        <ele>620.2</ele>
        <time>2019-08-17T11:39:11Z</time>
      </trkpt>
      <trkpt lat="42.0604110" lon="-7.6845100">
        <ele>620.1</ele>
        <time>2019-08-17T11:39:12Z</time>
      </trkpt>
      <trkpt lat="42.0604270" lon="-7.6845960">
        <ele>620.0</ele>
        <time>2019-08-17T11:39:13Z</time>
      </trkpt>
      <trkpt lat="42.0604440" lon="-7.6846810">
        <ele>619.9</ele>
        <time>2019-08-17T11:39:14Z</time>
      </trkpt>
      <trkpt lat="42.0604600" lon="-7.6847670">
        <ele>619.9</ele>
        <time>2019-08-17T11:39:15Z</time>
      </trkpt>
      <trkpt lat="42.0604770" lon="-7.6848530">
        <ele>619.9</ele>
        <time>2019-08-17T11:39:16Z</time>
      </trkpt>
      <trkpt lat="42.0604940" lon="-7.6849390">
        <ele>619.8</ele>
        <time>2019-08-17T11:39:17Z</time>
      </trkpt>
      <trkpt lat="42.0605110" lon="-7.6850260">
        <ele>619.8</ele>
        <time>2019-08-17T11:39:18Z</time>
      </trkpt>
      <trkpt lat="42.0605290" lon="-7.6851140">
        <ele>619.8</ele>
        <time>2019-08-17T11:39:19Z</time>
      </trkpt>
      <trkpt lat="42.0605460" lon="-7.6852040">
        <ele>619.9</ele>
        <time>2019-08-17T11:39:20Z</time>
      </trkpt>
      <trkpt lat="42.0605640" lon="-7.6852950">
        <ele>619.9</ele>
        <time>2019-08-17T11:39:21Z</time>
      </trkpt>
      <trkpt lat="42.0605830" lon="-7.6853870">
        <ele>619.9</ele>
        <time>2019-08-17T11:39:22Z</time>
      </trkpt>
      <trkpt lat="42.0606020" lon="-7.6854800">
        <ele>620.0</ele>
        <time>2019-08-17T11:39:23Z</time>
      </trkpt>
      <trkpt lat="42.0606200" lon="-7.6855750">
        <ele>620.0</ele>
        <time>2019-08-17T11:39:24Z</time>
      </trkpt>
      <trkpt lat="42.0606390" lon="-7.6856700">
        <ele>620.1</ele>
        <time>2019-08-17T11:39:25Z</time>
      </trkpt>
      <trkpt lat="42.0606590" lon="-7.6857650">
        <ele>620.1</ele>
        <time>2019-08-17T11:39:26Z</time>
      </trkpt>
      <trkpt lat="42.0606780" lon="-7.6858620">
        <ele>620.1</ele>
        <time>2019-08-17T11:39:27Z</time>
      </trkpt>
      <trkpt lat="42.0606970" lon="-7.6859580">
        <ele>620.2</ele>
        <time>2019-08-17T11:39:28Z</time>
      </trkpt>
      <trkpt lat="42.0607160" lon="-7.6860540">
        <ele>620.2</ele>
        <time>2019-08-17T11:39:29Z</time>
      </trkpt>
      <trkpt lat="42.0607350" lon="-7.6861500">
        <ele>620.2</ele>
        <time>2019-08-17T11:39:30Z</time>
      </trkpt>
      <trkpt lat="42.0607530" lon="-7.6862460">
        <ele>620.2</ele>
        <time>2019-08-17T11:39:31Z</time>
      </trkpt>
      <trkpt lat="42.0607720" lon="-7.6863400">
        <ele>620.3</ele>
        <time>2019-08-17T11:39:32Z</time>
      </trkpt>
      <trkpt lat="42.0607890" lon="-7.6864330">
        <ele>620.3</ele>
        <time>2019-08-17T11:39:33Z</time>
      </trkpt>
      <trkpt lat="42.0608060" lon="-7.6865250">
        <ele>620.3</ele>
        <time>2019-08-17T11:39:34Z</time>
      </trkpt>
      <trkpt lat="42.0608230" lon="-7.6866150">
        <ele>620.3</ele>
        <time>2019-08-17T11:39:35Z</time>
      </trkpt>
      <trkpt lat="42.0608380" lon="-7.6867030">
        <ele>620.3</ele>
        <time>2019-08-17T11:39:36Z</time>
      </trkpt>
      <trkpt lat="42.0608530" lon="-7.6867890">
        <ele>620.3</ele>
        <time>2019-08-17T11:39:37Z</time>
      </trkpt>
      <trkpt lat="42.0608670" lon="-7.6868730">
        <ele>620.3</ele>
        <time>2019-08-17T11:39:38Z</time>
      </trkpt>
      <trkpt lat="42.0608800" lon="-7.6869560">
        <ele>620.3</ele>
        <time>2019-08-17T11:39:39Z</time>
      </trkpt>
      <trkpt lat="42.0608930" lon="-7.6870380">
        <ele>620.3</ele>
        <time>2019-08-17T11:39:40Z</time>
      </trkpt>
      <trkpt lat="42.0609040" lon="-7.6871180">
        <ele>620.3</ele>
        <time>2019-08-17T11:39:41Z</time>
      </trkpt>
      <trkpt lat="42.0609150" lon="-7.6871980">
        <ele>620.3</ele>
        <time>2019-08-17T11:39:42Z</time>
      </trkpt>
      <trkpt lat="42.0609250" lon="-7.6872770">
        <ele>620.3</ele>
        <time>2019-08-17T11:39:43Z</time>
      </trkpt>
      <trkpt lat="42.0609350" lon="-7.6873560">
        <ele>620.3</ele>
        <time>2019-08-17T11:39:44Z</time>
      </trkpt>
      <trkpt lat="42.0609440" lon="-7.6874340">
        <ele>620.3</ele>
        <time>2019-08-17T11:39:45Z</time>
      </trkpt>
      <trkpt lat="42.0609520" lon="-7.6875120">
        <ele>620.3</ele>
        <time>2019-08-17T11:39:46Z</time>
      </trkpt>
      <trkpt lat="42.0609600" lon="-7.6875900">
        <ele>620.5</ele>
        <time>2019-08-17T11:39:47Z</time>
      </trkpt>
      <trkpt lat="42.0609670" lon="-7.6876690">
        <ele>620.6</ele>
        <time>2019-08-17T11:39:48Z</time>
      </trkpt>
      <trkpt lat="42.0609730" lon="-7.6877480">
        <ele>620.7</ele>
        <time>2019-08-17T11:39:49Z</time>
      </trkpt>
      <trkpt lat="42.0609790" lon="-7.6878270">
        <ele>620.8</ele>
        <time>2019-08-17T11:39:50Z</time>
      </trkpt>
      <trkpt lat="42.0609840" lon="-7.6879070">
        <ele>620.9</ele>
        <time>2019-08-17T11:39:51Z</time>
      </trkpt>
      <trkpt lat="42.0609880" lon="-7.6879880">
        <ele>621.1</ele>
        <time>2019-08-17T11:39:52Z</time>
      </trkpt>
      <trkpt lat="42.0609920" lon="-7.6880700">
        <ele>621.2</ele>
        <time>2019-08-17T11:39:53Z</time>
      </trkpt>
      <trkpt lat="42.0609960" lon="-7.6881520">
        <ele>621.3</ele>
        <time>2019-08-17T11:39:54Z</time>
      </trkpt>
      <trkpt lat="42.0609990" lon="-7.6882350">
        <ele>621.5</ele>
        <time>2019-08-17T11:39:55Z</time>
      </trkpt>
      <trkpt lat="42.0610010" lon="-7.6883180">
        <ele>621.6</ele>
        <time>2019-08-17T11:39:56Z</time>
      </trkpt>
      <trkpt lat="42.0610030" lon="-7.6884020">
        <ele>621.7</ele>
        <time>2019-08-17T11:39:57Z</time>
      </trkpt>
      <trkpt lat="42.0610050" lon="-7.6884860">
        <ele>621.9</ele>
        <time>2019-08-17T11:39:58Z</time>
      </trkpt>
      <trkpt lat="42.0610060" lon="-7.6885700">
        <ele>622.0</ele>
        <time>2019-08-17T11:39:59Z</time>
      </trkpt>
      <trkpt lat="42.0610060" lon="-7.6886550">
        <ele>622.1</ele>
        <time>2019-08-17T11:40:00Z</time>
      </trkpt>
      <trkpt lat="42.0610070" lon="-7.6887390">
        <ele>622.2</ele>
        <time>2019-08-17T11:40:01Z</time>
      </trkpt>
      <trkpt lat="42.0610070" lon="-7.6888240">
        <ele>622.4</ele>
        <time>2019-08-17T11:40:02Z</time>
      </trkpt>
      <trkpt lat="42.0610060" lon="-7.6889080">
        <ele>622.5</ele>
        <time>2019-08-17T11:40:03Z</time>
      </trkpt>
      <trkpt lat="42.0610060" lon="-7.6889930">
        <ele>622.7</ele>
        <time>2019-08-17T11:40:04Z</time>
      </trkpt>
      <trkpt lat="42.0610050" lon="-7.6890770">
        <ele>622.8</ele>
        <time>2019-08-17T11:40:05Z</time>
      </trkpt>
      <trkpt lat="42.0610040" lon="-7.6891610">
        <ele>623.0</ele>
        <time>2019-08-17T11:40:06Z</time>
      </trkpt>
      <trkpt lat="42.0610030" lon="-7.6892440">
        <ele>623.1</ele>
        <time>2019-08-17T11:40:07Z</time>
      </trkpt>
      <trkpt lat="42.0610010" lon="-7.6893280">
        <ele>623.2</ele>
        <time>2019-08-17T11:40:08Z</time>
      </trkpt>
      <trkpt lat="42.0610000" lon="-7.6894110">
        <ele>623.4</ele>
        <time>2019-08-17T11:40:09Z</time>
      </trkpt>
      <trkpt lat="42.0609980" lon="-7.6894940">
        <ele>623.5</ele>
        <time>2019-08-17T11:40:10Z</time>
      </trkpt>
      <trkpt lat="42.0609970" lon="-7.6895780">
        <ele>623.7</ele>
        <time>2019-08-17T11:40:11Z</time>
      </trkpt>
      <trkpt lat="42.0609950" lon="-7.6896620">
        <ele>623.8</ele>
        <time>2019-08-17T11:40:12Z</time>
      </trkpt>
      <trkpt lat="42.0609940" lon="-7.6897460">
        <ele>623.9</ele>
        <time>2019-08-17T11:40:13Z</time>
      </trkpt>
      <trkpt lat="42.0609920" lon="-7.6898320">
        <ele>624.2</ele>
        <time>2019-08-17T11:40:14Z</time>
      </trkpt>
      <trkpt lat="42.0609910" lon="-7.6899180">
        <ele>624.2</ele>
        <time>2019-08-17T11:40:15Z</time>
      </trkpt>
      <trkpt lat="42.0609900" lon="-7.6900040">
        <ele>624.3</ele>
        <time>2019-08-17T11:40:16Z</time>
      </trkpt>
      <trkpt lat="42.0609890" lon="-7.6900910">
        <ele>624.4</ele>
        <time>2019-08-17T11:40:17Z</time>
      </trkpt>
      <trkpt lat="42.0609880" lon="-7.6901770">
        <ele>624.5</ele>
        <time>2019-08-17T11:40:18Z</time>
      </trkpt>
      <trkpt lat="42.0609870" lon="-7.6902620">
        <ele>624.5</ele>
        <time>2019-08-17T11:40:19Z</time>
      </trkpt>
      <trkpt lat="42.0609870" lon="-7.6903460">
        <ele>624.6</ele>
        <time>2019-08-17T11:40:20Z</time>
      </trkpt>
      <trkpt lat="42.0609860" lon="-7.6904290">
        <ele>624.7</ele>
        <time>2019-08-17T11:40:21Z</time>
      </trkpt>
      <trkpt lat="42.0609850" lon="-7.6905090">
        <ele>624.8</ele>
        <time>2019-08-17T11:40:22Z</time>
      </trkpt>
      <trkpt lat="42.0609840" lon="-7.6905870">
        <ele>624.9</ele>
        <time>2019-08-17T11:40:23Z</time>
      </trkpt>
      <trkpt lat="42.0609830" lon="-7.6906640">
        <ele>625.1</ele>
        <time>2019-08-17T11:40:24Z</time>
      </trkpt>
      <trkpt lat="42.0609820" lon="-7.6907380">
        <ele>625.3</ele>
        <time>2019-08-17T11:40:25Z</time>
      </trkpt>
      <trkpt lat="42.0609800" lon="-7.6908110">
        <ele>625.5</ele>
        <time>2019-08-17T11:40:26Z</time>
      </trkpt>
      <trkpt lat="42.0609780" lon="-7.6908840">
        <ele>625.8</ele>
        <time>2019-08-17T11:40:27Z</time>
      </trkpt>
      <trkpt lat="42.0609760" lon="-7.6909560">
        <ele>626.0</ele>
        <time>2019-08-17T11:40:28Z</time>
      </trkpt>
      <trkpt lat="42.0609740" lon="-7.6910290">
        <ele>625.8</ele>
        <time>2019-08-17T11:40:29Z</time>
      </trkpt>
      <trkpt lat="42.0609710" lon="-7.6911020">
        <ele>625.7</ele>
        <time>2019-08-17T11:40:30Z</time>
      </trkpt>
      <trkpt lat="42.0609680" lon="-7.6911750">
        <ele>625.6</ele>
        <time>2019-08-17T11:40:31Z</time>
      </trkpt>
      <trkpt lat="42.0609650" lon="-7.6912500">
        <ele>625.4</ele>
        <time>2019-08-17T11:40:32Z</time>
      </trkpt>
      <trkpt lat="42.0609620" lon="-7.6913250">
        <ele>625.3</ele>
        <time>2019-08-17T11:40:33Z</time>
      </trkpt>
      <trkpt lat="42.0609580" lon="-7.6914000">
        <ele>625.2</ele>
        <time>2019-08-17T11:40:34Z</time>
      </trkpt>
      <trkpt lat="42.0609550" lon="-7.6914750">
        <ele>625.1</ele>
        <time>2019-08-17T11:40:35Z</time>
      </trkpt>
      <trkpt lat="42.0609510" lon="-7.6915490">
        <ele>625.1</ele>
        <time>2019-08-17T11:40:36Z</time>
      </trkpt>
      <trkpt lat="42.0609480" lon="-7.6916230">
        <ele>625.0</ele>
        <time>2019-08-17T11:40:37Z</time>
      </trkpt>
      <trkpt lat="42.0609450" lon="-7.6916960">
        <ele>624.9</ele>
        <time>2019-08-17T11:40:38Z</time>
      </trkpt>
      <trkpt lat="42.0609420" lon="-7.6917690">
        <ele>624.8</ele>
        <time>2019-08-17T11:40:39Z</time>
      </trkpt>
      <trkpt lat="42.0609390" lon="-7.6918410">
        <ele>624.8</ele>
        <time>2019-08-17T11:40:40Z</time>
      </trkpt>
      <trkpt lat="42.0609370" lon="-7.6919130">
        <ele>624.7</ele>
        <time>2019-08-17T11:40:41Z</time>
      </trkpt>
      <trkpt lat="42.0609350" lon="-7.6919840">
        <ele>624.6</ele>
        <time>2019-08-17T11:40:42Z</time>
      </trkpt>
      <trkpt lat="42.0609330" lon="-7.6920560">
        <ele>624.5</ele>
        <time>2019-08-17T11:40:43Z</time>
      </trkpt>
      <trkpt lat="42.0609310" lon="-7.6921280">
        <ele>624.4</ele>
        <time>2019-08-17T11:40:44Z</time>
      </trkpt>
      <trkpt lat="42.0609290" lon="-7.6922010">
        <ele>624.4</ele>
        <time>2019-08-17T11:40:45Z</time>
      </trkpt>
      <trkpt lat="42.0609270" lon="-7.6922740">
        <ele>624.4</ele>
        <time>2019-08-17T11:40:46Z</time>
      </trkpt>
      <trkpt lat="42.0609260" lon="-7.6923470">
        <ele>624.3</ele>
        <time>2019-08-17T11:40:47Z</time>
      </trkpt>
      <trkpt lat="42.0609240" lon="-7.6924220">
        <ele>624.3</ele>
        <time>2019-08-17T11:40:48Z</time>
      </trkpt>
      <trkpt lat="42.0609220" lon="-7.6924970">
        <ele>624.2</ele>
        <time>2019-08-17T11:40:49Z</time>
      </trkpt>
      <trkpt lat="42.0609200" lon="-7.6925720">
        <ele>624.2</ele>
        <time>2019-08-17T11:40:50Z</time>
      </trkpt>
      <trkpt lat="42.0609180" lon="-7.6926480">
        <ele>624.1</ele>
        <time>2019-08-17T11:40:51Z</time>
      </trkpt>
      <trkpt lat="42.0609160" lon="-7.6927250">
        <ele>624.1</ele>
        <time>2019-08-17T11:40:52Z</time>
      </trkpt>
      <trkpt lat="42.0609140" lon="-7.6928020">
        <ele>624.1</ele>
        <time>2019-08-17T11:40:53Z</time>
      </trkpt>
      <trkpt lat="42.0609120" lon="-7.6928790">
        <ele>624.0</ele>
        <time>2019-08-17T11:40:54Z</time>
      </trkpt>
      <trkpt lat="42.0609090" lon="-7.6929560">
        <ele>623.9</ele>
        <time>2019-08-17T11:40:55Z</time>
      </trkpt>
      <trkpt lat="42.0609070" lon="-7.6930340">
        <ele>623.9</ele>
        <time>2019-08-17T11:40:56Z</time>
      </trkpt>
      <trkpt lat="42.0609050" lon="-7.6931110">
        <ele>623.8</ele>
        <time>2019-08-17T11:40:57Z</time>
      </trkpt>
      <trkpt lat="42.0609020" lon="-7.6931880">
        <ele>623.7</ele>
        <time>2019-08-17T11:40:58Z</time>
      </trkpt>
      <trkpt lat="42.0609000" lon="-7.6932640">
        <ele>623.6</ele>
        <time>2019-08-17T11:40:59Z</time>
      </trkpt>
      <trkpt lat="42.0608970" lon="-7.6933390">
        <ele>623.5</ele>
        <time>2019-08-17T11:41:00Z</time>
      </trkpt>
      <trkpt lat="42.0608950" lon="-7.6934130">
        <ele>623.5</ele>
        <time>2019-08-17T11:41:01Z</time>
      </trkpt>
      <trkpt lat="42.0608920" lon="-7.6934850">
        <ele>623.4</ele>
        <time>2019-08-17T11:41:02Z</time>
      </trkpt>
      <trkpt lat="42.0608900" lon="-7.6935560">
        <ele>623.4</ele>
        <time>2019-08-17T11:41:03Z</time>
      </trkpt>
      <trkpt lat="42.0608880" lon="-7.6936270">
        <ele>623.4</ele>
        <time>2019-08-17T11:41:04Z</time>
      </trkpt>
      <trkpt lat="42.0608850" lon="-7.6936970">
        <ele>623.4</ele>
        <time>2019-08-17T11:41:05Z</time>
      </trkpt>
      <trkpt lat="42.0608830" lon="-7.6937670">
        <ele>623.4</ele>
        <time>2019-08-17T11:41:06Z</time>
      </trkpt>
      <trkpt lat="42.0608820" lon="-7.6938370">
        <ele>623.5</ele>
        <time>2019-08-17T11:41:07Z</time>
      </trkpt>
      <trkpt lat="42.0608800" lon="-7.6939080">
        <ele>623.5</ele>
        <time>2019-08-17T11:41:08Z</time>
      </trkpt>
      <trkpt lat="42.0608780" lon="-7.6939800">
        <ele>623.6</ele>
        <time>2019-08-17T11:41:09Z</time>
      </trkpt>
      <trkpt lat="42.0608760" lon="-7.6940520">
        <ele>623.6</ele>
        <time>2019-08-17T11:41:10Z</time>
      </trkpt>
      <trkpt lat="42.0608750" lon="-7.6941250">
        <ele>623.7</ele>
        <time>2019-08-17T11:41:11Z</time>
      </trkpt>
      <trkpt lat="42.0608740" lon="-7.6941990">
        <ele>623.7</ele>
        <time>2019-08-17T11:41:12Z</time>
      </trkpt>
      <trkpt lat="42.0608730" lon="-7.6942740">
        <ele>623.7</ele>
        <time>2019-08-17T11:41:13Z</time>
      </trkpt>
      <trkpt lat="42.0608720" lon="-7.6943480">
        <ele>623.7</ele>
        <time>2019-08-17T11:41:14Z</time>
      </trkpt>
      <trkpt lat="42.0608710" lon="-7.6944220">
        <ele>623.7</ele>
        <time>2019-08-17T11:41:15Z</time>
      </trkpt>
      <trkpt lat="42.0608700" lon="-7.6944950">
        <ele>623.7</ele>
        <time>2019-08-17T11:41:16Z</time>
      </trkpt>
      <trkpt lat="42.0608690" lon="-7.6945670">
        <ele>623.6</ele>
        <time>2019-08-17T11:41:17Z</time>
      </trkpt>
      <trkpt lat="42.0608690" lon="-7.6946380">
        <ele>623.6</ele>
        <time>2019-08-17T11:41:18Z</time>
      </trkpt>
      <trkpt lat="42.0608680" lon="-7.6947080">
        <ele>623.5</ele>
        <time>2019-08-17T11:41:19Z</time>
      </trkpt>
      <trkpt lat="42.0608680" lon="-7.6947780">
        <ele>623.5</ele>
        <time>2019-08-17T11:41:20Z</time>
      </trkpt>
      <trkpt lat="42.0608680" lon="-7.6948480">
        <ele>623.4</ele>
        <time>2019-08-17T11:41:21Z</time>
      </trkpt>
      <trkpt lat="42.0608680" lon="-7.6949180">
        <ele>623.3</ele>
        <time>2019-08-17T11:41:22Z</time>
      </trkpt>
      <trkpt lat="42.0608680" lon="-7.6949880">
        <ele>623.2</ele>
        <time>2019-08-17T11:41:23Z</time>
      </trkpt>
      <trkpt lat="42.0608680" lon="-7.6950590">
        <ele>623.1</ele>
        <time>2019-08-17T11:41:24Z</time>
      </trkpt>
      <trkpt lat="42.0608690" lon="-7.6951310">
        <ele>623.0</ele>
        <time>2019-08-17T11:41:25Z</time>
      </trkpt>
      <trkpt lat="42.0608690" lon="-7.6952050">
        <ele>622.9</ele>
        <time>2019-08-17T11:41:26Z</time>
      </trkpt>
      <trkpt lat="42.0608700" lon="-7.6952800">
        <ele>622.8</ele>
        <time>2019-08-17T11:41:27Z</time>
      </trkpt>
      <trkpt lat="42.0608720" lon="-7.6953540">
        <ele>622.7</ele>
        <time>2019-08-17T11:41:28Z</time>
      </trkpt>
      <trkpt lat="42.0608740" lon="-7.6954290">
        <ele>622.6</ele>
        <time>2019-08-17T11:41:29Z</time>
      </trkpt>
      <trkpt lat="42.0608770" lon="-7.6955020">
        <ele>622.5</ele>
        <time>2019-08-17T11:41:30Z</time>
      </trkpt>
      <trkpt lat="42.0608800" lon="-7.6955750">
        <ele>622.4</ele>
        <time>2019-08-17T11:41:31Z</time>
      </trkpt>
      <trkpt lat="42.0608830" lon="-7.6956490">
        <ele>622.4</ele>
        <time>2019-08-17T11:41:32Z</time>
      </trkpt>
      <trkpt lat="42.0608860" lon="-7.6957260">
        <ele>622.3</ele>
        <time>2019-08-17T11:41:33Z</time>
      </trkpt>
      <trkpt lat="42.0608870" lon="-7.6958050">
        <ele>622.2</ele>
        <time>2019-08-17T11:41:34Z</time>
      </trkpt>
      <trkpt lat="42.0608860" lon="-7.6958870">
        <ele>622.1</ele>
        <time>2019-08-17T11:41:35Z</time>
      </trkpt>
      <trkpt lat="42.0608850" lon="-7.6959720">
        <ele>622.0</ele>
        <time>2019-08-17T11:41:36Z</time>
      </trkpt>
      <trkpt lat="42.0608830" lon="-7.6960580">
        <ele>622.0</ele>
        <time>2019-08-17T11:41:37Z</time>
      </trkpt>
      <trkpt lat="42.0608810" lon="-7.6961450">
        <ele>621.9</ele>
        <time>2019-08-17T11:41:38Z</time>
      </trkpt>
      <trkpt lat="42.0608790" lon="-7.6962330">
        <ele>621.7</ele>
        <time>2019-08-17T11:41:39Z</time>
      </trkpt>
      <trkpt lat="42.0608760" lon="-7.6963200">
        <ele>621.6</ele>
        <time>2019-08-17T11:41:40Z</time>
      </trkpt>
      <trkpt lat="42.0608740" lon="-7.6964080">
        <ele>621.5</ele>
        <time>2019-08-17T11:41:41Z</time>
      </trkpt>
      <trkpt lat="42.0608720" lon="-7.6964950">
        <ele>621.4</ele>
        <time>2019-08-17T11:41:42Z</time>
      </trkpt>
      <trkpt lat="42.0608700" lon="-7.6965820">
        <ele>621.4</ele>
        <time>2019-08-17T11:41:43Z</time>
      </trkpt>
      <trkpt lat="42.0608680" lon="-7.6966690">
        <ele>621.3</ele>
        <time>2019-08-17T11:41:44Z</time>
      </trkpt>
      <trkpt lat="42.0608660" lon="-7.6967550">
        <ele>621.3</ele>
        <time>2019-08-17T11:41:45Z</time>
      </trkpt>
      <trkpt lat="42.0608650" lon="-7.6968410">
        <ele>621.3</ele>
        <time>2019-08-17T11:41:46Z</time>
      </trkpt>
      <trkpt lat="42.0608640" lon="-7.6969270">
        <ele>621.3</ele>
        <time>2019-08-17T11:41:47Z</time>
      </trkpt>
      <trkpt lat="42.0608630" lon="-7.6970130">
        <ele>621.3</ele>
        <time>2019-08-17T11:41:48Z</time>
      </trkpt>
      <trkpt lat="42.0608620" lon="-7.6970980">
        <ele>621.4</ele>
        <time>2019-08-17T11:41:49Z</time>
      </trkpt>
      <trkpt lat="42.0608610" lon="-7.6971830">
        <ele>621.4</ele>
        <time>2019-08-17T11:41:50Z</time>
      </trkpt>
      <trkpt lat="42.0608600" lon="-7.6972680">
        <ele>621.4</ele>
        <time>2019-08-17T11:41:51Z</time>
      </trkpt>
      <trkpt lat="42.0608590" lon="-7.6973530">
        <ele>621.5</ele>
        <time>2019-08-17T11:41:52Z</time>
      </trkpt>
      <trkpt lat="42.0608580" lon="-7.6974380">
        <ele>621.5</ele>
        <time>2019-08-17T11:41:53Z</time>
      </trkpt>
      <trkpt lat="42.0608570" lon="-7.6975230">
        <ele>621.5</ele>
        <time>2019-08-17T11:41:54Z</time>
      </trkpt>
      <trkpt lat="42.0608570" lon="-7.6976070">
        <ele>621.5</ele>
        <time>2019-08-17T11:41:55Z</time>
      </trkpt>
      <trkpt lat="42.0608560" lon="-7.6976920">
        <ele>621.5</ele>
        <time>2019-08-17T11:41:56Z</time>
      </trkpt>
      <trkpt lat="42.0608550" lon="-7.6977760">
        <ele>621.5</ele>
        <time>2019-08-17T11:41:57Z</time>
      </trkpt>
      <trkpt lat="42.0608540" lon="-7.6978610">
        <ele>621.6</ele>
        <time>2019-08-17T11:41:58Z</time>
      </trkpt>
      <trkpt lat="42.0608530" lon="-7.6979450">
        <ele>621.6</ele>
        <time>2019-08-17T11:41:59Z</time>
      </trkpt>
      <trkpt lat="42.0608530" lon="-7.6980300">
        <ele>621.6</ele>
        <time>2019-08-17T11:42:00Z</time>
      </trkpt>
      <trkpt lat="42.0608520" lon="-7.6981140">
        <ele>621.6</ele>
        <time>2019-08-17T11:42:01Z</time>
      </trkpt>
      <trkpt lat="42.0608510" lon="-7.6981990">
        <ele>621.6</ele>
        <time>2019-08-17T11:42:02Z</time>
      </trkpt>
      <trkpt lat="42.0608500" lon="-7.6982830">
        <ele>621.6</ele>
        <time>2019-08-17T11:42:03Z</time>
      </trkpt>
      <trkpt lat="42.0608490" lon="-7.6983680">
        <ele>621.6</ele>
        <time>2019-08-17T11:42:04Z</time>
      </trkpt>
      <trkpt lat="42.0608480" lon="-7.6984520">
        <ele>621.6</ele>
        <time>2019-08-17T11:42:05Z</time>
      </trkpt>
      <trkpt lat="42.0608470" lon="-7.6985370">
        <ele>621.7</ele>
        <time>2019-08-17T11:42:06Z</time>
      </trkpt>
      <trkpt lat="42.0608470" lon="-7.6986210">
        <ele>621.8</ele>
        <time>2019-08-17T11:42:07Z</time>
      </trkpt>
      <trkpt lat="42.0608460" lon="-7.6987060">
        <ele>621.9</ele>
        <time>2019-08-17T11:42:08Z</time>
      </trkpt>
      <trkpt lat="42.0608450" lon="-7.6987900">
        <ele>621.9</ele>
        <time>2019-08-17T11:42:09Z</time>
      </trkpt>
      <trkpt lat="42.0608440" lon="-7.6988750">
        <ele>622.0</ele>
        <time>2019-08-17T11:42:10Z</time>
      </trkpt>
      <trkpt lat="42.0608440" lon="-7.6989590">
        <ele>622.1</ele>
        <time>2019-08-17T11:42:11Z</time>
      </trkpt>
      <trkpt lat="42.0608430" lon="-7.6990440">
        <ele>622.1</ele>
        <time>2019-08-17T11:42:12Z</time>
      </trkpt>
      <trkpt lat="42.0608430" lon="-7.6991280">
        <ele>622.2</ele>
        <time>2019-08-17T11:42:13Z</time>
      </trkpt>
      <trkpt lat="42.0608430" lon="-7.6992130">
        <ele>622.2</ele>
        <time>2019-08-17T11:42:14Z</time>
      </trkpt>
      <trkpt lat="42.0608420" lon="-7.6992970">
        <ele>622.2</ele>
        <time>2019-08-17T11:42:15Z</time>
      </trkpt>
      <trkpt lat="42.0608420" lon="-7.6993800">
        <ele>622.2</ele>
        <time>2019-08-17T11:42:16Z</time>
      </trkpt>
      <trkpt lat="42.0608410" lon="-7.6994630">
        <ele>622.1</ele>
        <time>2019-08-17T11:42:17Z</time>
      </trkpt>
      <trkpt lat="42.0608410" lon="-7.6995460">
        <ele>622.1</ele>
        <time>2019-08-17T11:42:18Z</time>
      </trkpt>
      <trkpt lat="42.0608410" lon="-7.6996280">
        <ele>622.1</ele>
        <time>2019-08-17T11:42:19Z</time>
      </trkpt>
      <trkpt lat="42.0608400" lon="-7.6997090">
        <ele>622.0</ele>
        <time>2019-08-17T11:42:20Z</time>
      </trkpt>
      <trkpt lat="42.0608400" lon="-7.6997900">
        <ele>622.0</ele>
        <time>2019-08-17T11:42:21Z</time>
      </trkpt>
      <trkpt lat="42.0608400" lon="-7.6998700">
        <ele>622.0</ele>
        <time>2019-08-17T11:42:22Z</time>
      </trkpt>
      <trkpt lat="42.0608390" lon="-7.6999500">
        <ele>622.0</ele>
        <time>2019-08-17T11:42:23Z</time>
      </trkpt>
      <trkpt lat="42.0608390" lon="-7.7000300">
        <ele>622.0</ele>
        <time>2019-08-17T11:42:24Z</time>
      </trkpt>
      <trkpt lat="42.0608380" lon="-7.7001100">
        <ele>622.0</ele>
        <time>2019-08-17T11:42:25Z</time>
      </trkpt>
      <trkpt lat="42.0608380" lon="-7.7001910">
        <ele>622.0</ele>
        <time>2019-08-17T11:42:26Z</time>
      </trkpt>
      <trkpt lat="42.0608380" lon="-7.7002710">
        <ele>622.0</ele>
        <time>2019-08-17T11:42:27Z</time>
      </trkpt>
      <trkpt lat="42.0608380" lon="-7.7003530">
        <ele>622.0</ele>
        <time>2019-08-17T11:42:28Z</time>
      </trkpt>
      <trkpt lat="42.0608370" lon="-7.7004350">
        <ele>622.0</ele>
        <time>2019-08-17T11:42:29Z</time>
      </trkpt>
      <trkpt lat="42.0608370" lon="-7.7005170">
        <ele>622.0</ele>
        <time>2019-08-17T11:42:30Z</time>
      </trkpt>
      <trkpt lat="42.0608370" lon="-7.7005990">
        <ele>622.0</ele>
        <time>2019-08-17T11:42:31Z</time>
      </trkpt>
      <trkpt lat="42.0608370" lon="-7.7006820">
        <ele>621.9</ele>
        <time>2019-08-17T11:42:32Z</time>
      </trkpt>
      <trkpt lat="42.0608360" lon="-7.7007650">
        <ele>621.8</ele>
        <time>2019-08-17T11:42:33Z</time>
      </trkpt>
      <trkpt lat="42.0608360" lon="-7.7008470">
        <ele>621.8</ele>
        <time>2019-08-17T11:42:34Z</time>
      </trkpt>
      <trkpt lat="42.0608350" lon="-7.7009300">
        <ele>621.7</ele>
        <time>2019-08-17T11:42:35Z</time>
      </trkpt>
      <trkpt lat="42.0608340" lon="-7.7010130">
        <ele>621.7</ele>
        <time>2019-08-17T11:42:36Z</time>
      </trkpt>
      <trkpt lat="42.0608330" lon="-7.7010950">
        <ele>621.7</ele>
        <time>2019-08-17T11:42:37Z</time>
      </trkpt>
      <trkpt lat="42.0608320" lon="-7.7011770">
        <ele>621.7</ele>
        <time>2019-08-17T11:42:38Z</time>
      </trkpt>
      <trkpt lat="42.0608310" lon="-7.7012590">
        <ele>621.8</ele>
        <time>2019-08-17T11:42:39Z</time>
      </trkpt>
      <trkpt lat="42.0608300" lon="-7.7013410">
        <ele>621.9</ele>
        <time>2019-08-17T11:42:40Z</time>
      </trkpt>
      <trkpt lat="42.0608290" lon="-7.7014220">
        <ele>622.0</ele>
        <time>2019-08-17T11:42:41Z</time>
      </trkpt>
      <trkpt lat="42.0608280" lon="-7.7015040">
        <ele>622.1</ele>
        <time>2019-08-17T11:42:42Z</time>
      </trkpt>
      <trkpt lat="42.0608270" lon="-7.7015850">
        <ele>622.3</ele>
        <time>2019-08-17T11:42:43Z</time>
      </trkpt>
      <trkpt lat="42.0608270" lon="-7.7016660">
        <ele>622.4</ele>
        <time>2019-08-17T11:42:44Z</time>
      </trkpt>
      <trkpt lat="42.0608260" lon="-7.7017460">
        <ele>622.5</ele>
        <time>2019-08-17T11:42:45Z</time>
      </trkpt>
      <trkpt lat="42.0608260" lon="-7.7018250">
        <ele>622.6</ele>
        <time>2019-08-17T11:42:46Z</time>
      </trkpt>
      <trkpt lat="42.0608260" lon="-7.7019040">
        <ele>622.7</ele>
        <time>2019-08-17T11:42:47Z</time>
      </trkpt>
      <trkpt lat="42.0608250" lon="-7.7019810">
        <ele>622.7</ele>
        <time>2019-08-17T11:42:48Z</time>
      </trkpt>
      <trkpt lat="42.0608250" lon="-7.7020570">
        <ele>622.8</ele>
        <time>2019-08-17T11:42:49Z</time>
      </trkpt>
      <trkpt lat="42.0608250" lon="-7.7021310">
        <ele>622.8</ele>
        <time>2019-08-17T11:42:50Z</time>
      </trkpt>
      <trkpt lat="42.0608240" lon="-7.7022040">
        <ele>622.8</ele>
        <time>2019-08-17T11:42:51Z</time>
      </trkpt>
      <trkpt lat="42.0608240" lon="-7.7022750">
        <ele>622.8</ele>
        <time>2019-08-17T11:42:52Z</time>
      </trkpt>
      <trkpt lat="42.0608230" lon="-7.7023450">
        <ele>622.9</ele>
        <time>2019-08-17T11:42:53Z</time>
      </trkpt>
      <trkpt lat="42.0608230" lon="-7.7024140">
        <ele>622.9</ele>
        <time>2019-08-17T11:42:54Z</time>
      </trkpt>
      <trkpt lat="42.0608220" lon="-7.7024830">
        <ele>622.9</ele>
        <time>2019-08-17T11:42:55Z</time>
      </trkpt>
      <trkpt lat="42.0608210" lon="-7.7025500">
        <ele>623.0</ele>
        <time>2019-08-17T11:42:56Z</time>
      </trkpt>
      <trkpt lat="42.0608210" lon="-7.7026180">
        <ele>623.0</ele>
        <time>2019-08-17T11:42:57Z</time>
      </trkpt>
      <trkpt lat="42.0608200" lon="-7.7026850">
        <ele>623.0</ele>
        <time>2019-08-17T11:42:58Z</time>
      </trkpt>
      <trkpt lat="42.0608190" lon="-7.7027520">
        <ele>623.0</ele>
        <time>2019-08-17T11:42:59Z</time>
      </trkpt>
      <trkpt lat="42.0608180" lon="-7.7028200">
        <ele>623.0</ele>
        <time>2019-08-17T11:43:00Z</time>
      </trkpt>
      <trkpt lat="42.0608170" lon="-7.7028880">
        <ele>623.0</ele>
        <time>2019-08-17T11:43:01Z</time>
      </trkpt>
      <trkpt lat="42.0608170" lon="-7.7029560">
        <ele>623.0</ele>
        <time>2019-08-17T11:43:02Z</time>
      </trkpt>
      <trkpt lat="42.0608160" lon="-7.7030240">
        <ele>623.0</ele>
        <time>2019-08-17T11:43:03Z</time>
      </trkpt>
      <trkpt lat="42.0608160" lon="-7.7030920">
        <ele>623.0</ele>
        <time>2019-08-17T11:43:04Z</time>
      </trkpt>
      <trkpt lat="42.0608160" lon="-7.7031610">
        <ele>623.0</ele>
        <time>2019-08-17T11:43:05Z</time>
      </trkpt>
      <trkpt lat="42.0608170" lon="-7.7032290">
        <ele>623.0</ele>
        <time>2019-08-17T11:43:06Z</time>
      </trkpt>
      <trkpt lat="42.0608180" lon="-7.7032980">
        <ele>623.1</ele>
        <time>2019-08-17T11:43:07Z</time>
      </trkpt>
      <trkpt lat="42.0608190" lon="-7.7033680">
        <ele>623.1</ele>
        <time>2019-08-17T11:43:08Z</time>
      </trkpt>
      <trkpt lat="42.0608210" lon="-7.7034370">
        <ele>623.2</ele>
        <time>2019-08-17T11:43:09Z</time>
      </trkpt>
      <trkpt lat="42.0608230" lon="-7.7035070">
        <ele>623.2</ele>
        <time>2019-08-17T11:43:10Z</time>
      </trkpt>
      <trkpt lat="42.0608250" lon="-7.7035770">
        <ele>623.3</ele>
        <time>2019-08-17T11:43:11Z</time>
      </trkpt>
      <trkpt lat="42.0608270" lon="-7.7036480">
        <ele>623.5</ele>
        <time>2019-08-17T11:43:12Z</time>
      </trkpt>
      <trkpt lat="42.0608290" lon="-7.7037180">
        <ele>623.6</ele>
        <time>2019-08-17T11:43:13Z</time>
      </trkpt>
      <trkpt lat="42.0608320" lon="-7.7037890">
        <ele>623.7</ele>
        <time>2019-08-17T11:43:14Z</time>
      </trkpt>
      <trkpt lat="42.0608350" lon="-7.7038610">
        <ele>623.9</ele>
        <time>2019-08-17T11:43:15Z</time>
      </trkpt>
      <trkpt lat="42.0608370" lon="-7.7039320">
        <ele>624.0</ele>
        <time>2019-08-17T11:43:16Z</time>
      </trkpt>
      <trkpt lat="42.0608400" lon="-7.7040040">
        <ele>624.1</ele>
        <time>2019-08-17T11:43:17Z</time>
      </trkpt>
      <trkpt lat="42.0608430" lon="-7.7040770">
        <ele>624.2</ele>
        <time>2019-08-17T11:43:18Z</time>
      </trkpt>
      <trkpt lat="42.0608460" lon="-7.7041500">
        <ele>624.3</ele>
        <time>2019-08-17T11:43:19Z</time>
      </trkpt>
      <trkpt lat="42.0608490" lon="-7.7042240">
        <ele>624.4</ele>
        <time>2019-08-17T11:43:20Z</time>
      </trkpt>
      <trkpt lat="42.0608520" lon="-7.7042980">
        <ele>624.4</ele>
        <time>2019-08-17T11:43:21Z</time>
      </trkpt>
      <trkpt lat="42.0608550" lon="-7.7043730">
        <ele>624.4</ele>
        <time>2019-08-17T11:43:22Z</time>
      </trkpt>
      <trkpt lat="42.0608580" lon="-7.7044480">
        <ele>624.5</ele>
        <time>2019-08-17T11:43:23Z</time>
      </trkpt>
      <trkpt lat="42.0608620" lon="-7.7045240">
        <ele>624.5</ele>
        <time>2019-08-17T11:43:24Z</time>
      </trkpt>
      <trkpt lat="42.0608650" lon="-7.7046010">
        <ele>624.5</ele>
        <time>2019-08-17T11:43:25Z</time>
      </trkpt>
      <trkpt lat="42.0608680" lon="-7.7046790">
        <ele>624.5</ele>
        <time>2019-08-17T11:43:26Z</time>
      </trkpt>
      <trkpt lat="42.0608710" lon="-7.7047570">
        <ele>624.5</ele>
        <time>2019-08-17T11:43:27Z</time>
      </trkpt>
      <trkpt lat="42.0608750" lon="-7.7048360">
        <ele>624.5</ele>
        <time>2019-08-17T11:43:28Z</time>
      </trkpt>
      <trkpt lat="42.0608780" lon="-7.7049170">
        <ele>624.4</ele>
        <time>2019-08-17T11:43:29Z</time>
      </trkpt>
      <trkpt lat="42.0608810" lon="-7.7049980">
        <ele>624.4</ele>
        <time>2019-08-17T11:43:30Z</time>
      </trkpt>
      <trkpt lat="42.0608840" lon="-7.7050790">
        <ele>624.4</ele>
        <time>2019-08-17T11:43:31Z</time>
      </trkpt>
      <trkpt lat="42.0608870" lon="-7.7051610">
        <ele>624.3</ele>
        <time>2019-08-17T11:43:32Z</time>
      </trkpt>
      <trkpt lat="42.0608900" lon="-7.7052440">
        <ele>624.2</ele>
        <time>2019-08-17T11:43:33Z</time>
      </trkpt>
      <trkpt lat="42.0608920" lon="-7.7053260">
        <ele>624.1</ele>
        <time>2019-08-17T11:43:34Z</time>
      </trkpt>
      <trkpt lat="42.0608940" lon="-7.7054080">
        <ele>624.1</ele>
        <time>2019-08-17T11:43:35Z</time>
      </trkpt>
      <trkpt lat="42.0608960" lon="-7.7054890">
        <ele>624.0</ele>
        <time>2019-08-17T11:43:36Z</time>
      </trkpt>
      <trkpt lat="42.0608970" lon="-7.7055690">
        <ele>623.9</ele>
        <time>2019-08-17T11:43:37Z</time>
      </trkpt>
      <trkpt lat="42.0608970" lon="-7.7056480">
        <ele>623.8</ele>
        <time>2019-08-17T11:43:38Z</time>
      </trkpt>
      <trkpt lat="42.0608960" lon="-7.7057270">
        <ele>623.7</ele>
        <time>2019-08-17T11:43:39Z</time>
      </trkpt>
      <trkpt lat="42.0608950" lon="-7.7058050">
        <ele>623.6</ele>
        <time>2019-08-17T11:43:40Z</time>
      </trkpt>
      <trkpt lat="42.0608940" lon="-7.7058840">
        <ele>623.4</ele>
        <time>2019-08-17T11:43:41Z</time>
      </trkpt>
      <trkpt lat="42.0608920" lon="-7.7059630">
        <ele>623.3</ele>
        <time>2019-08-17T11:43:42Z</time>
      </trkpt>
      <trkpt lat="42.0608900" lon="-7.7060430">
        <ele>623.2</ele>
        <time>2019-08-17T11:43:43Z</time>
      </trkpt>
      <trkpt lat="42.0608870" lon="-7.7061250">
        <ele>623.1</ele>
        <time>2019-08-17T11:43:44Z</time>
      </trkpt>
      <trkpt lat="42.0608830" lon="-7.7062080">
        <ele>622.9</ele>
        <time>2019-08-17T11:43:45Z</time>
      </trkpt>
      <trkpt lat="42.0608800" lon="-7.7062920">
        <ele>622.8</ele>
        <time>2019-08-17T11:43:46Z</time>
      </trkpt>
      <trkpt lat="42.0608760" lon="-7.7063780">
        <ele>622.7</ele>
        <time>2019-08-17T11:43:47Z</time>
      </trkpt>
      <trkpt lat="42.0608710" lon="-7.7064650">
        <ele>622.7</ele>
        <time>2019-08-17T11:43:48Z</time>
      </trkpt>
      <trkpt lat="42.0608650" lon="-7.7065520">
        <ele>622.6</ele>
        <time>2019-08-17T11:43:49Z</time>
      </trkpt>
      <trkpt lat="42.0608590" lon="-7.7066390">
        <ele>622.5</ele>
        <time>2019-08-17T11:43:50Z</time>
      </trkpt>
      <trkpt lat="42.0608510" lon="-7.7067250">
        <ele>622.5</ele>
        <time>2019-08-17T11:43:51Z</time>
      </trkpt>
      <trkpt lat="42.0608430" lon="-7.7068110">
        <ele>622.4</ele>
        <time>2019-08-17T11:43:52Z</time>
      </trkpt>
      <trkpt lat="42.0608330" lon="-7.7068960">
        <ele>622.4</ele>
        <time>2019-08-17T11:43:53Z</time>
      </trkpt>
      <trkpt lat="42.0608220" lon="-7.7069800">
        <ele>622.3</ele>
        <time>2019-08-17T11:43:54Z</time>
      </trkpt>
      <trkpt lat="42.0608100" lon="-7.7070640">
        <ele>622.2</ele>
        <time>2019-08-17T11:43:55Z</time>
      </trkpt>
      <trkpt lat="42.0607970" lon="-7.7071470">
        <ele>622.2</ele>
        <time>2019-08-17T11:43:56Z</time>
      </trkpt>
      <trkpt lat="42.0607840" lon="-7.7072300">
        <ele>622.1</ele>
        <time>2019-08-17T11:43:57Z</time>
      </trkpt>
      <trkpt lat="42.0607700" lon="-7.7073130">
        <ele>622.0</ele>
        <time>2019-08-17T11:43:58Z</time>
      </trkpt>
      <trkpt lat="42.0607550" lon="-7.7073970">
        <ele>621.9</ele>
        <time>2019-08-17T11:43:59Z</time>
      </trkpt>
      <trkpt lat="42.0607400" lon="-7.7074820">
        <ele>621.8</ele>
        <time>2019-08-17T11:44:00Z</time>
      </trkpt>
      <trkpt lat="42.0607250" lon="-7.7075670">
        <ele>621.7</ele>
        <time>2019-08-17T11:44:01Z</time>
      </trkpt>
      <trkpt lat="42.0607090" lon="-7.7076540">
        <ele>621.6</ele>
        <time>2019-08-17T11:44:02Z</time>
      </trkpt>
      <trkpt lat="42.0606930" lon="-7.7077420">
        <ele>621.5</ele>
        <time>2019-08-17T11:44:03Z</time>
      </trkpt>
      <trkpt lat="42.0606760" lon="-7.7078320">
        <ele>621.3</ele>
        <time>2019-08-17T11:44:04Z</time>
      </trkpt>
      <trkpt lat="42.0606600" lon="-7.7079230">
        <ele>621.1</ele>
        <time>2019-08-17T11:44:05Z</time>
      </trkpt>
      <trkpt lat="42.0606430" lon="-7.7080160">
        <ele>621.0</ele>
        <time>2019-08-17T11:44:06Z</time>
      </trkpt>
      <trkpt lat="42.0606250" lon="-7.7081080">
        <ele>620.8</ele>
        <time>2019-08-17T11:44:07Z</time>
      </trkpt>
      <trkpt lat="42.0606080" lon="-7.7082000">
        <ele>620.7</ele>
        <time>2019-08-17T11:44:08Z</time>
      </trkpt>
      <trkpt lat="42.0605910" lon="-7.7082900">
        <ele>620.5</ele>
        <time>2019-08-17T11:44:09Z</time>
      </trkpt>
      <trkpt lat="42.0605740" lon="-7.7083780">
        <ele>620.4</ele>
        <time>2019-08-17T11:44:10Z</time>
      </trkpt>
      <trkpt lat="42.0605580" lon="-7.7084650">
        <ele>620.3</ele>
        <time>2019-08-17T11:44:11Z</time>
      </trkpt>
      <trkpt lat="42.0605410" lon="-7.7085510">
        <ele>620.2</ele>
        <time>2019-08-17T11:44:12Z</time>
      </trkpt>
      <trkpt lat="42.0605250" lon="-7.7086360">
        <ele>620.1</ele>
        <time>2019-08-17T11:44:13Z</time>
      </trkpt>
      <trkpt lat="42.0605090" lon="-7.7087200">
        <ele>620.0</ele>
        <time>2019-08-17T11:44:14Z</time>
      </trkpt>
      <trkpt lat="42.0604930" lon="-7.7088050">
        <ele>620.0</ele>
        <time>2019-08-17T11:44:15Z</time>
      </trkpt>
      <trkpt lat="42.0604780" lon="-7.7088890">
        <ele>619.9</ele>
        <time>2019-08-17T11:44:16Z</time>
      </trkpt>
      <trkpt lat="42.0604620" lon="-7.7089730">
        <ele>619.9</ele>
        <time>2019-08-17T11:44:17Z</time>
      </trkpt>
      <trkpt lat="42.0604470" lon="-7.7090560">
        <ele>619.8</ele>
        <time>2019-08-17T11:44:18Z</time>
      </trkpt>
      <trkpt lat="42.0604320" lon="-7.7091400">
        <ele>619.8</ele>
        <time>2019-08-17T11:44:19Z</time>
      </trkpt>
      <trkpt lat="42.0604170" lon="-7.7092240">
        <ele>619.8</ele>
        <time>2019-08-17T11:44:20Z</time>
      </trkpt>
      <trkpt lat="42.0604020" lon="-7.7093080">
        <ele>619.8</ele>
        <time>2019-08-17T11:44:21Z</time>
      </trkpt>
      <trkpt lat="42.0603880" lon="-7.7093910">
        <ele>619.8</ele>
        <time>2019-08-17T11:44:22Z</time>
      </trkpt>
      <trkpt lat="42.0603730" lon="-7.7094750">
        <ele>619.8</ele>
        <time>2019-08-17T11:44:23Z</time>
      </trkpt>
      <trkpt lat="42.0603590" lon="-7.7095580">
        <ele>619.8</ele>
        <time>2019-08-17T11:44:24Z</time>
      </trkpt>
      <trkpt lat="42.0603440" lon="-7.7096420">
        <ele>619.9</ele>
        <time>2019-08-17T11:44:25Z</time>
      </trkpt>
      <trkpt lat="42.0603300" lon="-7.7097260">
        <ele>619.9</ele>
        <time>2019-08-17T11:44:26Z</time>
      </trkpt>
      <trkpt lat="42.0603150" lon="-7.7098090">
        <ele>620.0</ele>
        <time>2019-08-17T11:44:27Z</time>
      </trkpt>
      <trkpt lat="42.0603010" lon="-7.7098920">
        <ele>620.0</ele>
        <time>2019-08-17T11:44:28Z</time>
      </trkpt>
      <trkpt lat="42.0602860" lon="-7.7099760">
        <ele>620.1</ele>
        <time>2019-08-17T11:44:29Z</time>
      </trkpt>
      <trkpt lat="42.0602710" lon="-7.7100590">
        <ele>620.1</ele>
        <time>2019-08-17T11:44:30Z</time>
      </trkpt>
      <trkpt lat="42.0602570" lon="-7.7101430">
        <ele>620.2</ele>
        <time>2019-08-17T11:44:31Z</time>
      </trkpt>
      <trkpt lat="42.0602420" lon="-7.7102260">
        <ele>620.2</ele>
        <time>2019-08-17T11:44:32Z</time>
      </trkpt>
      <trkpt lat="42.0602260" lon="-7.7103100">
        <ele>620.3</ele>
        <time>2019-08-17T11:44:33Z</time>
      </trkpt>
      <trkpt lat="42.0602110" lon="-7.7103930">
        <ele>620.3</ele>
        <time>2019-08-17T11:44:34Z</time>
      </trkpt>
      <trkpt lat="42.0601960" lon="-7.7104760">
        <ele>620.4</ele>
        <time>2019-08-17T11:44:35Z</time>
      </trkpt>
      <trkpt lat="42.0601810" lon="-7.7105590">
        <ele>620.4</ele>
        <time>2019-08-17T11:44:36Z</time>
      </trkpt>
      <trkpt lat="42.0601650" lon="-7.7106420">
        <ele>620.5</ele>
        <time>2019-08-17T11:44:37Z</time>
      </trkpt>
      <trkpt lat="42.0601500" lon="-7.7107240">
        <ele>620.6</ele>
        <time>2019-08-17T11:44:38Z</time>
      </trkpt>
      <trkpt lat="42.0601350" lon="-7.7108070">
        <ele>620.6</ele>
        <time>2019-08-17T11:44:39Z</time>
      </trkpt>
      <trkpt lat="42.0601200" lon="-7.7108880">
        <ele>620.7</ele>
        <time>2019-08-17T11:44:40Z</time>
      </trkpt>
      <trkpt lat="42.0601050" lon="-7.7109700">
        <ele>620.8</ele>
        <time>2019-08-17T11:44:41Z</time>
      </trkpt>
      <trkpt lat="42.0600900" lon="-7.7110510">
        <ele>620.9</ele>
        <time>2019-08-17T11:44:42Z</time>
      </trkpt>
      <trkpt lat="42.0600750" lon="-7.7111310">
        <ele>621.0</ele>
        <time>2019-08-17T11:44:43Z</time>
      </trkpt>
      <trkpt lat="42.0600600" lon="-7.7112110">
        <ele>621.1</ele>
        <time>2019-08-17T11:44:44Z</time>
      </trkpt>
      <trkpt lat="42.0600460" lon="-7.7112910">
        <ele>621.1</ele>
        <time>2019-08-17T11:44:45Z</time>
      </trkpt>
      <trkpt lat="42.0600320" lon="-7.7113700">
        <ele>621.2</ele>
        <time>2019-08-17T11:44:46Z</time>
      </trkpt>
      <trkpt lat="42.0600180" lon="-7.7114480">
        <ele>621.2</ele>
        <time>2019-08-17T11:44:47Z</time>
      </trkpt>
      <trkpt lat="42.0600040" lon="-7.7115250">
        <ele>621.3</ele>
        <time>2019-08-17T11:44:48Z</time>
      </trkpt>
      <trkpt lat="42.0599900" lon="-7.7116020">
        <ele>621.3</ele>
        <time>2019-08-17T11:44:49Z</time>
      </trkpt>
      <trkpt lat="42.0599770" lon="-7.7116790">
        <ele>621.4</ele>
        <time>2019-08-17T11:44:50Z</time>
      </trkpt>
      <trkpt lat="42.0599630" lon="-7.7117550">
        <ele>621.4</ele>
        <time>2019-08-17T11:44:51Z</time>
      </trkpt>
      <trkpt lat="42.0599490" lon="-7.7118310">
        <ele>621.5</ele>
        <time>2019-08-17T11:44:52Z</time>
      </trkpt>
      <trkpt lat="42.0599360" lon="-7.7119070">
        <ele>621.5</ele>
        <time>2019-08-17T11:44:53Z</time>
      </trkpt>
      <trkpt lat="42.0599210" lon="-7.7119830">
        <ele>621.5</ele>
        <time>2019-08-17T11:44:54Z</time>
      </trkpt>
      <trkpt lat="42.0599070" lon="-7.7120580">
        <ele>621.6</ele>
        <time>2019-08-17T11:44:55Z</time>
      </trkpt>
      <trkpt lat="42.0598920" lon="-7.7121340">
        <ele>621.6</ele>
        <time>2019-08-17T11:44:56Z</time>
      </trkpt>
      <trkpt lat="42.0598770" lon="-7.7122090">
        <ele>621.6</ele>
        <time>2019-08-17T11:44:57Z</time>
      </trkpt>
      <trkpt lat="42.0598620" lon="-7.7122850">
        <ele>621.7</ele>
        <time>2019-08-17T11:44:58Z</time>
      </trkpt>
      <trkpt lat="42.0598470" lon="-7.7123600">
        <ele>621.7</ele>
        <time>2019-08-17T11:44:59Z</time>
      </trkpt>
      <trkpt lat="42.0598320" lon="-7.7124340">
        <ele>621.7</ele>
        <time>2019-08-17T11:45:00Z</time>
      </trkpt>
      <trkpt lat="42.0598160" lon="-7.7125080">
        <ele>621.7</ele>
        <time>2019-08-17T11:45:01Z</time>
      </trkpt>
      <trkpt lat="42.0598010" lon="-7.7125820">
        <ele>621.8</ele>
        <time>2019-08-17T11:45:02Z</time>
      </trkpt>
      <trkpt lat="42.0597860" lon="-7.7126550">
        <ele>621.8</ele>
        <time>2019-08-17T11:45:03Z</time>
      </trkpt>
      <trkpt lat="42.0597710" lon="-7.7127280">
        <ele>621.8</ele>
        <time>2019-08-17T11:45:04Z</time>
      </trkpt>
      <trkpt lat="42.0597560" lon="-7.7128000">
        <ele>621.8</ele>
        <time>2019-08-17T11:45:05Z</time>
      </trkpt>
      <trkpt lat="42.0597430" lon="-7.7128730">
        <ele>621.8</ele>
        <time>2019-08-17T11:45:06Z</time>
      </trkpt>
      <trkpt lat="42.0597300" lon="-7.7129450">
        <ele>621.8</ele>
        <time>2019-08-17T11:45:07Z</time>
      </trkpt>
      <trkpt lat="42.0597180" lon="-7.7130180">
        <ele>621.8</ele>
        <time>2019-08-17T11:45:08Z</time>
      </trkpt>
      <trkpt lat="42.0597050" lon="-7.7130910">
        <ele>621.8</ele>
        <time>2019-08-17T11:45:09Z</time>
      </trkpt>
      <trkpt lat="42.0596930" lon="-7.7131650">
        <ele>621.8</ele>
        <time>2019-08-17T11:45:10Z</time>
      </trkpt>
      <trkpt lat="42.0596790" lon="-7.7132400">
        <ele>621.9</ele>
        <time>2019-08-17T11:45:11Z</time>
      </trkpt>
      <trkpt lat="42.0596650" lon="-7.7133160">
        <ele>621.9</ele>
        <time>2019-08-17T11:45:12Z</time>
      </trkpt>
      <trkpt lat="42.0596510" lon="-7.7133930">
        <ele>621.9</ele>
        <time>2019-08-17T11:45:13Z</time>
      </trkpt>
      <trkpt lat="42.0596360" lon="-7.7134710">
        <ele>621.9</ele>
        <time>2019-08-17T11:45:14Z</time>
      </trkpt>
      <trkpt lat="42.0596220" lon="-7.7135500">
        <ele>622.0</ele>
        <time>2019-08-17T11:45:15Z</time>
      </trkpt>
      <trkpt lat="42.0596080" lon="-7.7136280">
        <ele>622.0</ele>
        <time>2019-08-17T11:45:16Z</time>
      </trkpt>
      <trkpt lat="42.0595940" lon="-7.7137080">
        <ele>622.1</ele>
        <time>2019-08-17T11:45:17Z</time>
      </trkpt>
      <trkpt lat="42.0595810" lon="-7.7137870">
        <ele>622.1</ele>
        <time>2019-08-17T11:45:18Z</time>
      </trkpt>
      <trkpt lat="42.0595700" lon="-7.7138670">
        <ele>622.1</ele>
        <time>2019-08-17T11:45:19Z</time>
      </trkpt>
      <trkpt lat="42.0595590" lon="-7.7139470">
        <ele>622.2</ele>
        <time>2019-08-17T11:45:20Z</time>
      </trkpt>
      <trkpt lat="42.0595490" lon="-7.7140260">
        <ele>622.3</ele>
        <time>2019-08-17T11:45:21Z</time>
      </trkpt>
      <trkpt lat="42.0595410" lon="-7.7141060">
        <ele>622.3</ele>
        <time>2019-08-17T11:45:22Z</time>
      </trkpt>
      <trkpt lat="42.0595330" lon="-7.7141850">
        <ele>622.4</ele>
        <time>2019-08-17T11:45:23Z</time>
      </trkpt>
      <trkpt lat="42.0595250" lon="-7.7142640">
        <ele>622.4</ele>
        <time>2019-08-17T11:45:24Z</time>
      </trkpt>
      <trkpt lat="42.0595180" lon="-7.7143430">
        <ele>622.5</ele>
        <time>2019-08-17T11:45:25Z</time>
      </trkpt>
      <trkpt lat="42.0595120" lon="-7.7144210">
        <ele>622.5</ele>
        <time>2019-08-17T11:45:26Z</time>
      </trkpt>
      <trkpt lat="42.0595070" lon="-7.7144980">
        <ele>622.6</ele>
        <time>2019-08-17T11:45:27Z</time>
      </trkpt>
      <trkpt lat="42.0595010" lon="-7.7145750">
        <ele>622.6</ele>
        <time>2019-08-17T11:45:28Z</time>
      </trkpt>
      <trkpt lat="42.0594970" lon="-7.7146520">
        <ele>622.6</ele>
        <time>2019-08-17T11:45:29Z</time>
      </trkpt>
      <trkpt lat="42.0594930" lon="-7.7147280">
        <ele>622.7</ele>
        <time>2019-08-17T11:45:30Z</time>
      </trkpt>
      <trkpt lat="42.0594900" lon="-7.7148040">
        <ele>622.8</ele>
        <time>2019-08-17T11:45:31Z</time>
      </trkpt>
      <trkpt lat="42.0594880" lon="-7.7148800">
        <ele>622.8</ele>
        <time>2019-08-17T11:45:32Z</time>
      </trkpt>
      <trkpt lat="42.0594870" lon="-7.7149570">
        <ele>622.9</ele>
        <time>2019-08-17T11:45:33Z</time>
      </trkpt>
      <trkpt lat="42.0594860" lon="-7.7150330">
        <ele>622.9</ele>
        <time>2019-08-17T11:45:34Z</time>
      </trkpt>
      <trkpt lat="42.0594870" lon="-7.7151100">
        <ele>623.0</ele>
        <time>2019-08-17T11:45:35Z</time>
      </trkpt>
      <trkpt lat="42.0594890" lon="-7.7151860">
        <ele>623.1</ele>
        <time>2019-08-17T11:45:36Z</time>
      </trkpt>
      <trkpt lat="42.0594910" lon="-7.7152630">
        <ele>623.2</ele>
        <time>2019-08-17T11:45:37Z</time>
      </trkpt>
      <trkpt lat="42.0594930" lon="-7.7153400">
        <ele>623.2</ele>
        <time>2019-08-17T11:45:38Z</time>
      </trkpt>
      <trkpt lat="42.0594950" lon="-7.7154180">
        <ele>623.3</ele>
        <time>2019-08-17T11:45:39Z</time>
      </trkpt>
      <trkpt lat="42.0594970" lon="-7.7154950">
        <ele>623.4</ele>
        <time>2019-08-17T11:45:40Z</time>
      </trkpt>
      <trkpt lat="42.0594970" lon="-7.7155710">
        <ele>623.5</ele>
        <time>2019-08-17T11:45:41Z</time>
      </trkpt>
      <trkpt lat="42.0594970" lon="-7.7156480">
        <ele>623.5</ele>
        <time>2019-08-17T11:45:42Z</time>
      </trkpt>
      <trkpt lat="42.0594950" lon="-7.7157250">
        <ele>623.6</ele>
        <time>2019-08-17T11:45:43Z</time>
      </trkpt>
      <trkpt lat="42.0594920" lon="-7.7158010">
        <ele>623.7</ele>
        <time>2019-08-17T11:45:44Z</time>
      </trkpt>
      <trkpt lat="42.0594890" lon="-7.7158760">
        <ele>623.7</ele>
        <time>2019-08-17T11:45:45Z</time>
      </trkpt>
      <trkpt lat="42.0594850" lon="-7.7159510">
        <ele>623.8</ele>
        <time>2019-08-17T11:45:46Z</time>
      </trkpt>
      <trkpt lat="42.0594800" lon="-7.7160250">
        <ele>623.8</ele>
        <time>2019-08-17T11:45:47Z</time>
      </trkpt>
      <trkpt lat="42.0594770" lon="-7.7160970">
        <ele>623.8</ele>
        <time>2019-08-17T11:45:48Z</time>
      </trkpt>
      <trkpt lat="42.0594730" lon="-7.7161680">
        <ele>623.8</ele>
        <time>2019-08-17T11:45:49Z</time>
      </trkpt>
      <trkpt lat="42.0594710" lon="-7.7162380">
        <ele>623.8</ele>
        <time>2019-08-17T11:45:50Z</time>
      </trkpt>
      <trkpt lat="42.0594700" lon="-7.7163070">
        <ele>623.9</ele>
        <time>2019-08-17T11:45:51Z</time>
      </trkpt>
      <trkpt lat="42.0594690" lon="-7.7163740">
        <ele>623.9</ele>
        <time>2019-08-17T11:45:52Z</time>
      </trkpt>
      <trkpt lat="42.0594700" lon="-7.7164390">
        <ele>623.9</ele>
        <time>2019-08-17T11:45:53Z</time>
      </trkpt>
      <trkpt lat="42.0594700" lon="-7.7165040">
        <ele>623.8</ele>
        <time>2019-08-17T11:45:54Z</time>
      </trkpt>
      <trkpt lat="42.0594710" lon="-7.7165670">
        <ele>623.8</ele>
        <time>2019-08-17T11:45:55Z</time>
      </trkpt>
      <trkpt lat="42.0594720" lon="-7.7166290">
        <ele>623.8</ele>
        <time>2019-08-17T11:45:56Z</time>
      </trkpt>
      <trkpt lat="42.0594740" lon="-7.7166910">
        <ele>623.8</ele>
        <time>2019-08-17T11:45:57Z</time>
      </trkpt>
      <trkpt lat="42.0594750" lon="-7.7167510">
        <ele>623.8</ele>
        <time>2019-08-17T11:45:58Z</time>
      </trkpt>
      <trkpt lat="42.0594770" lon="-7.7168120">
        <ele>623.8</ele>
        <time>2019-08-17T11:45:59Z</time>
      </trkpt>
      <trkpt lat="42.0594790" lon="-7.7168730">
        <ele>623.8</ele>
        <time>2019-08-17T11:46:00Z</time>
      </trkpt>
      <trkpt lat="42.0594810" lon="-7.7169370">
        <ele>623.7</ele>
        <time>2019-08-17T11:46:01Z</time>
      </trkpt>
      <trkpt lat="42.0594850" lon="-7.7170020">
        <ele>623.7</ele>
        <time>2019-08-17T11:46:02Z</time>
      </trkpt>
      <trkpt lat="42.0594900" lon="-7.7170700">
        <ele>623.7</ele>
        <time>2019-08-17T11:46:03Z</time>
      </trkpt>
      <trkpt lat="42.0594970" lon="-7.7171380">
        <ele>623.6</ele>
        <time>2019-08-17T11:46:04Z</time>
      </trkpt>
      <trkpt lat="42.0595070" lon="-7.7172060">
        <ele>623.6</ele>
        <time>2019-08-17T11:46:05Z</time>
      </trkpt>
      <trkpt lat="42.0595180" lon="-7.7172720">
        <ele>623.5</ele>
        <time>2019-08-17T11:46:06Z</time>
      </trkpt>
      <trkpt lat="42.0595330" lon="-7.7173380">
        <ele>623.5</ele>
        <time>2019-08-17T11:46:07Z</time>
      </trkpt>
      <trkpt lat="42.0595490" lon="-7.7174020">
        <ele>623.4</ele>
        <time>2019-08-17T11:46:08Z</time>
      </trkpt>
      <trkpt lat="42.0595680" lon="-7.7174660">
        <ele>623.4</ele>
        <time>2019-08-17T11:46:09Z</time>
      </trkpt>
      <trkpt lat="42.0595880" lon="-7.7175300">
        <ele>623.3</ele>
        <time>2019-08-17T11:46:10Z</time>
      </trkpt>
      <trkpt lat="42.0596100" lon="-7.7175950">
        <ele>623.3</ele>
        <time>2019-08-17T11:46:11Z</time>
      </trkpt>
      <trkpt lat="42.0596330" lon="-7.7176590">
        <ele>623.2</ele>
        <time>2019-08-17T11:46:12Z</time>
      </trkpt>
      <trkpt lat="42.0596580" lon="-7.7177250">
        <ele>623.1</ele>
        <time>2019-08-17T11:46:13Z</time>
      </trkpt>
      <trkpt lat="42.0596830" lon="-7.7177910">
        <ele>623.1</ele>
        <time>2019-08-17T11:46:14Z</time>
      </trkpt>
      <trkpt lat="42.0597100" lon="-7.7178590">
        <ele>623.0</ele>
        <time>2019-08-17T11:46:15Z</time>
      </trkpt>
      <trkpt lat="42.0597370" lon="-7.7179280">
        <ele>623.0</ele>
        <time>2019-08-17T11:46:16Z</time>
      </trkpt>
      <trkpt lat="42.0597650" lon="-7.7179980">
        <ele>622.9</ele>
        <time>2019-08-17T11:46:17Z</time>
      </trkpt>
      <trkpt lat="42.0597930" lon="-7.7180700">
        <ele>622.9</ele>
        <time>2019-08-17T11:46:18Z</time>
      </trkpt>
      <trkpt lat="42.0598210" lon="-7.7181420">
        <ele>622.9</ele>
        <time>2019-08-17T11:46:19Z</time>
      </trkpt>
      <trkpt lat="42.0598500" lon="-7.7182160">
        <ele>622.9</ele>
        <time>2019-08-17T11:46:20Z</time>
      </trkpt>
      <trkpt lat="42.0598790" lon="-7.7182910">
        <ele>623.0</ele>
        <time>2019-08-17T11:46:21Z</time>
      </trkpt>
      <trkpt lat="42.0599090" lon="-7.7183680">
        <ele>623.0</ele>
        <time>2019-08-17T11:46:22Z</time>
      </trkpt>
      <trkpt lat="42.0599380" lon="-7.7184450">
        <ele>623.0</ele>
        <time>2019-08-17T11:46:23Z</time>
      </trkpt>
      <trkpt lat="42.0599680" lon="-7.7185220">
        <ele>623.0</ele>
        <time>2019-08-17T11:46:24Z</time>
      </trkpt>
      <trkpt lat="42.0599970" lon="-7.7186000">
        <ele>623.1</ele>
        <time>2019-08-17T11:46:25Z</time>
      </trkpt>
      <trkpt lat="42.0600270" lon="-7.7186790">
        <ele>623.2</ele>
        <time>2019-08-17T11:46:26Z</time>
      </trkpt>
      <trkpt lat="42.0600560" lon="-7.7187570">
        <ele>623.3</ele>
        <time>2019-08-17T11:46:27Z</time>
      </trkpt>
      <trkpt lat="42.0600860" lon="-7.7188360">
        <ele>623.4</ele>
        <time>2019-08-17T11:46:28Z</time>
      </trkpt>
      <trkpt lat="42.0601150" lon="-7.7189140">
        <ele>623.5</ele>
        <time>2019-08-17T11:46:29Z</time>
      </trkpt>
      <trkpt lat="42.0601450" lon="-7.7189920">
        <ele>623.6</ele>
        <time>2019-08-17T11:46:30Z</time>
      </trkpt>
      <trkpt lat="42.0601740" lon="-7.7190700">
        <ele>623.7</ele>
        <time>2019-08-17T11:46:31Z</time>
      </trkpt>
      <trkpt lat="42.0602030" lon="-7.7191460">
        <ele>623.8</ele>
        <time>2019-08-17T11:46:32Z</time>
      </trkpt>
      <trkpt lat="42.0602310" lon="-7.7192220">
        <ele>623.9</ele>
        <time>2019-08-17T11:46:33Z</time>
      </trkpt>
      <trkpt lat="42.0602600" lon="-7.7192960">
        <ele>623.9</ele>
        <time>2019-08-17T11:46:34Z</time>
      </trkpt>
      <trkpt lat="42.0602880" lon="-7.7193690">
        <ele>623.9</ele>
        <time>2019-08-17T11:46:35Z</time>
      </trkpt>
      <trkpt lat="42.0603150" lon="-7.7194410">
        <ele>624.0</ele>
        <time>2019-08-17T11:46:36Z</time>
      </trkpt>
      <trkpt lat="42.0603430" lon="-7.7195100">
        <ele>624.0</ele>
        <time>2019-08-17T11:46:37Z</time>
      </trkpt>
      <trkpt lat="42.0603700" lon="-7.7195790">
        <ele>624.0</ele>
        <time>2019-08-17T11:46:38Z</time>
      </trkpt>
      <trkpt lat="42.0603960" lon="-7.7196470">
        <ele>624.0</ele>
        <time>2019-08-17T11:46:39Z</time>
      </trkpt>
      <trkpt lat="42.0604220" lon="-7.7197140">
        <ele>624.0</ele>
        <time>2019-08-17T11:46:40Z</time>
      </trkpt>
      <trkpt lat="42.0604480" lon="-7.7197810">
        <ele>624.0</ele>
        <time>2019-08-17T11:46:41Z</time>
      </trkpt>
      <trkpt lat="42.0604730" lon="-7.7198480">
        <ele>624.1</ele>
        <time>2019-08-17T11:46:42Z</time>
      </trkpt>
      <trkpt lat="42.0604980" lon="-7.7199160">
        <ele>624.1</ele>
        <time>2019-08-17T11:46:43Z</time>
      </trkpt>
      <trkpt lat="42.0605210" lon="-7.7199850">
        <ele>624.1</ele>
        <time>2019-08-17T11:46:44Z</time>
      </trkpt>
      <trkpt lat="42.0605450" lon="-7.7200550">
        <ele>624.1</ele>
        <time>2019-08-17T11:46:45Z</time>
      </trkpt>
      <trkpt lat="42.0605680" lon="-7.7201260">
        <ele>624.1</ele>
        <time>2019-08-17T11:46:46Z</time>
      </trkpt>
      <trkpt lat="42.0605920" lon="-7.7201970">
        <ele>624.1</ele>
        <time>2019-08-17T11:46:47Z</time>
      </trkpt>
      <trkpt lat="42.0606170" lon="-7.7202680">
        <ele>624.0</ele>
        <time>2019-08-17T11:46:48Z</time>
      </trkpt>
      <trkpt lat="42.0606440" lon="-7.7203390">
        <ele>624.0</ele>
        <time>2019-08-17T11:46:49Z</time>
      </trkpt>
      <trkpt lat="42.0606710" lon="-7.7204070">
        <ele>623.9</ele>
        <time>2019-08-17T11:46:50Z</time>
      </trkpt>
      <trkpt lat="42.0606970" lon="-7.7204740">
        <ele>623.9</ele>
        <time>2019-08-17T11:46:51Z</time>
      </trkpt>
      <trkpt lat="42.0607220" lon="-7.7205370">
        <ele>623.8</ele>
        <time>2019-08-17T11:46:52Z</time>
      </trkpt>
      <trkpt lat="42.0607460" lon="-7.7205970">
        <ele>623.8</ele>
        <time>2019-08-17T11:46:53Z</time>
      </trkpt>
      <trkpt lat="42.0607690" lon="-7.7206550">
        <ele>623.7</ele>
        <time>2019-08-17T11:46:54Z</time>
      </trkpt>
      <trkpt lat="42.0607910" lon="-7.7207120">
        <ele>623.7</ele>
        <time>2019-08-17T11:46:55Z</time>
      </trkpt>
      <trkpt lat="42.0608130" lon="-7.7207690">
        <ele>623.6</ele>
        <time>2019-08-17T11:46:56Z</time>
      </trkpt>
      <trkpt lat="42.0608340" lon="-7.7208250">
        <ele>623.6</ele>
        <time>2019-08-17T11:46:57Z</time>
      </trkpt>
      <trkpt lat="42.0608560" lon="-7.7208830">
        <ele>623.5</ele>
        <time>2019-08-17T11:46:58Z</time>
      </trkpt>
      <trkpt lat="42.0608780" lon="-7.7209420">
        <ele>623.4</ele>
        <time>2019-08-17T11:46:59Z</time>
      </trkpt>
      <trkpt lat="42.0609000" lon="-7.7210030">
        <ele>623.4</ele>
        <time>2019-08-17T11:47:00Z</time>
      </trkpt>
      <trkpt lat="42.0609230" lon="-7.7210660">
        <ele>623.4</ele>
        <time>2019-08-17T11:47:01Z</time>
      </trkpt>
      <trkpt lat="42.0609460" lon="-7.7211300">
        <ele>623.4</ele>
        <time>2019-08-17T11:47:02Z</time>
      </trkpt>
      <trkpt lat="42.0609700" lon="-7.7211950">
        <ele>623.5</ele>
        <time>2019-08-17T11:47:03Z</time>
      </trkpt>
      <trkpt lat="42.0609940" lon="-7.7212610">
        <ele>623.5</ele>
        <time>2019-08-17T11:47:04Z</time>
      </trkpt>
      <trkpt lat="42.0610180" lon="-7.7213270">
        <ele>623.5</ele>
        <time>2019-08-17T11:47:05Z</time>
      </trkpt>
      <trkpt lat="42.0610430" lon="-7.7213930">
        <ele>623.6</ele>
        <time>2019-08-17T11:47:06Z</time>
      </trkpt>
      <trkpt lat="42.0610670" lon="-7.7214580">
        <ele>623.6</ele>
        <time>2019-08-17T11:47:07Z</time>
      </trkpt>
      <trkpt lat="42.0610920" lon="-7.7215220">
        <ele>623.6</ele>
        <time>2019-08-17T11:47:08Z</time>
      </trkpt>
      <trkpt lat="42.0611170" lon="-7.7215860">
        <ele>623.6</ele>
        <time>2019-08-17T11:47:09Z</time>
      </trkpt>
      <trkpt lat="42.0611410" lon="-7.7216510">
        <ele>623.6</ele>
        <time>2019-08-17T11:47:10Z</time>
      </trkpt>
      <trkpt lat="42.0611650" lon="-7.7217180">
        <ele>623.5</ele>
        <time>2019-08-17T11:47:11Z</time>
      </trkpt>
      <trkpt lat="42.0611860" lon="-7.7217860">
        <ele>623.5</ele>
        <time>2019-08-17T11:47:12Z</time>
      </trkpt>
      <trkpt lat="42.0612080" lon="-7.7218560">
        <ele>623.5</ele>
        <time>2019-08-17T11:47:13Z</time>
      </trkpt>
      <trkpt lat="42.0612290" lon="-7.7219270">
        <ele>623.4</ele>
        <time>2019-08-17T11:47:14Z</time>
      </trkpt>
      <trkpt lat="42.0612520" lon="-7.7219970">
        <ele>623.4</ele>
        <time>2019-08-17T11:47:15Z</time>
      </trkpt>
      <trkpt lat="42.0612760" lon="-7.7220670">
        <ele>623.3</ele>
        <time>2019-08-17T11:47:16Z</time>
      </trkpt>
      <trkpt lat="42.0613010" lon="-7.7221360">
        <ele>623.3</ele>
        <time>2019-08-17T11:47:17Z</time>
      </trkpt>
      <trkpt lat="42.0613270" lon="-7.7222050">
        <ele>623.2</ele>
        <time>2019-08-17T11:47:18Z</time>
      </trkpt>
      <trkpt lat="42.0613550" lon="-7.7222730">
        <ele>623.1</ele>
        <time>2019-08-17T11:47:19Z</time>
      </trkpt>
      <trkpt lat="42.0613840" lon="-7.7223410">
        <ele>623.0</ele>
        <time>2019-08-17T11:47:20Z</time>
      </trkpt>
      <trkpt lat="42.0614130" lon="-7.7224090">
        <ele>622.9</ele>
        <time>2019-08-17T11:47:21Z</time>
      </trkpt>
      <trkpt lat="42.0614430" lon="-7.7224770">
        <ele>622.9</ele>
        <time>2019-08-17T11:47:22Z</time>
      </trkpt>
      <trkpt lat="42.0614730" lon="-7.7225460">
        <ele>623.2</ele>
        <time>2019-08-17T11:47:23Z</time>
      </trkpt>
      <trkpt lat="42.0615030" lon="-7.7226150">
        <ele>623.4</ele>
        <time>2019-08-17T11:47:24Z</time>
      </trkpt>
      <trkpt lat="42.0615340" lon="-7.7226840">
        <ele>623.5</ele>
        <time>2019-08-17T11:47:25Z</time>
      </trkpt>
      <trkpt lat="42.0615650" lon="-7.7227530">
        <ele>623.7</ele>
        <time>2019-08-17T11:47:26Z</time>
      </trkpt>
      <trkpt lat="42.0615960" lon="-7.7228220">
        <ele>623.8</ele>
        <time>2019-08-17T11:47:27Z</time>
      </trkpt>
      <trkpt lat="42.0616270" lon="-7.7228910">
        <ele>623.9</ele>
        <time>2019-08-17T11:47:28Z</time>
      </trkpt>
      <trkpt lat="42.0616590" lon="-7.7229600">
        <ele>624.1</ele>
        <time>2019-08-17T11:47:29Z</time>
      </trkpt>
      <trkpt lat="42.0616900" lon="-7.7230290">
        <ele>624.2</ele>
        <time>2019-08-17T11:47:30Z</time>
      </trkpt>
      <trkpt lat="42.0617220" lon="-7.7230970">
        <ele>624.4</ele>
        <time>2019-08-17T11:47:31Z</time>
      </trkpt>
      <trkpt lat="42.0617540" lon="-7.7231650">
        <ele>624.5</ele>
        <time>2019-08-17T11:47:32Z</time>
      </trkpt>
      <trkpt lat="42.0617860" lon="-7.7232320">
        <ele>624.5</ele>
        <time>2019-08-17T11:47:33Z</time>
      </trkpt>
      <trkpt lat="42.0618180" lon="-7.7232990">
        <ele>624.6</ele>
        <time>2019-08-17T11:47:34Z</time>
      </trkpt>
      <trkpt lat="42.0618500" lon="-7.7233640">
        <ele>624.7</ele>
        <time>2019-08-17T11:47:35Z</time>
      </trkpt>
      <trkpt lat="42.0618820" lon="-7.7234290">
        <ele>624.8</ele>
        <time>2019-08-17T11:47:36Z</time>
      </trkpt>
      <trkpt lat="42.0619140" lon="-7.7234930">
        <ele>624.9</ele>
        <time>2019-08-17T11:47:37Z</time>
      </trkpt>
      <trkpt lat="42.0619460" lon="-7.7235560">
        <ele>625.1</ele>
        <time>2019-08-17T11:47:38Z</time>
      </trkpt>
      <trkpt lat="42.0619780" lon="-7.7236170">
        <ele>625.2</ele>
        <time>2019-08-17T11:47:39Z</time>
      </trkpt>
      <trkpt lat="42.0620100" lon="-7.7236780">
        <ele>625.3</ele>
        <time>2019-08-17T11:47:40Z</time>
      </trkpt>
      <trkpt lat="42.0620410" lon="-7.7237380">
        <ele>625.4</ele>
        <time>2019-08-17T11:47:41Z</time>
      </trkpt>
      <trkpt lat="42.0620720" lon="-7.7237980">
        <ele>625.4</ele>
        <time>2019-08-17T11:47:42Z</time>
      </trkpt>
      <trkpt lat="42.0621020" lon="-7.7238570">
        <ele>625.6</ele>
        <time>2019-08-17T11:47:43Z</time>
      </trkpt>
      <trkpt lat="42.0621320" lon="-7.7239170">
        <ele>625.7</ele>
        <time>2019-08-17T11:47:44Z</time>
      </trkpt>
      <trkpt lat="42.0621620" lon="-7.7239750">
        <ele>625.8</ele>
        <time>2019-08-17T11:47:45Z</time>
      </trkpt>
      <trkpt lat="42.0621910" lon="-7.7240330">
        <ele>625.9</ele>
        <time>2019-08-17T11:47:46Z</time>
      </trkpt>
      <trkpt lat="42.0622200" lon="-7.7240880">
        <ele>626.0</ele>
        <time>2019-08-17T11:47:47Z</time>
      </trkpt>
      <trkpt lat="42.0622490" lon="-7.7241420">
        <ele>626.1</ele>
        <time>2019-08-17T11:47:48Z</time>
      </trkpt>
      <trkpt lat="42.0622780" lon="-7.7241930">
        <ele>626.1</ele>
        <time>2019-08-17T11:47:49Z</time>
      </trkpt>
      <trkpt lat="42.0623060" lon="-7.7242420">
        <ele>626.2</ele>
        <time>2019-08-17T11:47:50Z</time>
      </trkpt>
      <trkpt lat="42.0623340" lon="-7.7242890">
        <ele>626.2</ele>
        <time>2019-08-17T11:47:51Z</time>
      </trkpt>
      <trkpt lat="42.0623620" lon="-7.7243320">
        <ele>626.2</ele>
        <time>2019-08-17T11:47:52Z</time>
      </trkpt>
      <trkpt lat="42.0623900" lon="-7.7243720">
        <ele>626.2</ele>
        <time>2019-08-17T11:47:53Z</time>
      </trkpt>
      <trkpt lat="42.0624170" lon="-7.7244100">
        <ele>626.2</ele>
        <time>2019-08-17T11:47:54Z</time>
      </trkpt>
      <trkpt lat="42.0624440" lon="-7.7244460">
        <ele>626.2</ele>
        <time>2019-08-17T11:47:55Z</time>
      </trkpt>
      <trkpt lat="42.0624700" lon="-7.7244820">
        <ele>626.2</ele>
        <time>2019-08-17T11:47:56Z</time>
      </trkpt>
      <trkpt lat="42.0624940" lon="-7.7245220">
        <ele>626.3</ele>
        <time>2019-08-17T11:47:57Z</time>
      </trkpt>
      <trkpt lat="42.0625170" lon="-7.7245650">
        <ele>626.3</ele>
        <time>2019-08-17T11:47:58Z</time>
      </trkpt>
      <trkpt lat="42.0625380" lon="-7.7246130">
        <ele>626.3</ele>
        <time>2019-08-17T11:47:59Z</time>
      </trkpt>
      <trkpt lat="42.0625610" lon="-7.7246640">
        <ele>626.2</ele>
        <time>2019-08-17T11:48:00Z</time>
      </trkpt>
      <trkpt lat="42.0625840" lon="-7.7247180">
        <ele>626.2</ele>
        <time>2019-08-17T11:48:01Z</time>
      </trkpt>
      <trkpt lat="42.0626100" lon="-7.7247730">
        <ele>626.2</ele>
        <time>2019-08-17T11:48:02Z</time>
      </trkpt>
      <trkpt lat="42.0626370" lon="-7.7248310">
        <ele>626.0</ele>
        <time>2019-08-17T11:48:03Z</time>
      </trkpt>
      <trkpt lat="42.0626650" lon="-7.7248900">
        <ele>625.7</ele>
        <time>2019-08-17T11:48:04Z</time>
      </trkpt>
      <trkpt lat="42.0626930" lon="-7.7249510">
        <ele>625.5</ele>
        <time>2019-08-17T11:48:05Z</time>
      </trkpt>
      <trkpt lat="42.0627350" lon="-7.7250450">
        <ele>625.3</ele>
        <time>2019-08-17T11:48:06Z</time>
      </trkpt>
      <trkpt lat="42.0627490" lon="-7.7250770">
        <ele>625.2</ele>
        <time>2019-08-17T11:48:07Z</time>
      </trkpt>
      <trkpt lat="42.0627770" lon="-7.7251410">
        <ele>625.2</ele>
        <time>2019-08-17T11:48:08Z</time>
      </trkpt>
      <trkpt lat="42.0628060" lon="-7.7252040">
        <ele>625.1</ele>
        <time>2019-08-17T11:48:09Z</time>
      </trkpt>
      <trkpt lat="42.0628360" lon="-7.7252660">
        <ele>625.1</ele>
        <time>2019-08-17T11:48:10Z</time>
      </trkpt>
      <trkpt lat="42.0628660" lon="-7.7253280">
        <ele>625.1</ele>
        <time>2019-08-17T11:48:11Z</time>
      </trkpt>
      <trkpt lat="42.0628970" lon="-7.7253890">
        <ele>625.0</ele>
        <time>2019-08-17T11:48:12Z</time>
      </trkpt>
      <trkpt lat="42.0629270" lon="-7.7254500">
        <ele>625.0</ele>
        <time>2019-08-17T11:48:13Z</time>
      </trkpt>
      <trkpt lat="42.0629560" lon="-7.7255110">
        <ele>624.9</ele>
        <time>2019-08-17T11:48:14Z</time>
      </trkpt>
      <trkpt lat="42.0629850" lon="-7.7255720">
        <ele>624.8</ele>
        <time>2019-08-17T11:48:15Z</time>
      </trkpt>
      <trkpt lat="42.0630140" lon="-7.7256330">
        <ele>624.8</ele>
        <time>2019-08-17T11:48:16Z</time>
      </trkpt>
      <trkpt lat="42.0630450" lon="-7.7256920">
        <ele>624.7</ele>
        <time>2019-08-17T11:48:17Z</time>
      </trkpt>
      <trkpt lat="42.0630780" lon="-7.7257500">
        <ele>624.6</ele>
        <time>2019-08-17T11:48:18Z</time>
      </trkpt>
      <trkpt lat="42.0631130" lon="-7.7258050">
        <ele>624.5</ele>
        <time>2019-08-17T11:48:19Z</time>
      </trkpt>
      <trkpt lat="42.0631510" lon="-7.7258580">
        <ele>624.5</ele>
        <time>2019-08-17T11:48:20Z</time>
      </trkpt>
      <trkpt lat="42.0631920" lon="-7.7259060">
        <ele>624.4</ele>
        <time>2019-08-17T11:48:21Z</time>
      </trkpt>
      <trkpt lat="42.0632350" lon="-7.7259510">
        <ele>624.4</ele>
        <time>2019-08-17T11:48:22Z</time>
      </trkpt>
      <trkpt lat="42.0632800" lon="-7.7259900">
        <ele>624.3</ele>
        <time>2019-08-17T11:48:23Z</time>
      </trkpt>
      <trkpt lat="42.0633280" lon="-7.7260240">
        <ele>624.3</ele>
        <time>2019-08-17T11:48:24Z</time>
      </trkpt>
      <trkpt lat="42.0633780" lon="-7.7260530">
        <ele>624.2</ele>
        <time>2019-08-17T11:48:25Z</time>
      </trkpt>
      <trkpt lat="42.0634290" lon="-7.7260770">
        <ele>624.2</ele>
        <time>2019-08-17T11:48:26Z</time>
      </trkpt>
      <trkpt lat="42.0634790" lon="-7.7260990">
        <ele>624.2</ele>
        <time>2019-08-17T11:48:27Z</time>
      </trkpt>
      <trkpt lat="42.0635270" lon="-7.7261210">
        <ele>624.2</ele>
        <time>2019-08-17T11:48:28Z</time>
      </trkpt>
      <trkpt lat="42.0635710" lon="-7.7261450">
        <ele>624.1</ele>
        <time>2019-08-17T11:48:29Z</time>
      </trkpt>
      <trkpt lat="42.0636140" lon="-7.7261710">
        <ele>624.1</ele>
        <time>2019-08-17T11:48:30Z</time>
      </trkpt>
      <trkpt lat="42.0636560" lon="-7.7261990">
        <ele>624.0</ele>
        <time>2019-08-17T11:48:31Z</time>
      </trkpt>
      <trkpt lat="42.0636990" lon="-7.7262280">
        <ele>624.0</ele>
        <time>2019-08-17T11:48:32Z</time>
      </trkpt>
      <trkpt lat="42.0637440" lon="-7.7262590">
        <ele>624.0</ele>
        <time>2019-08-17T11:48:33Z</time>
      </trkpt>
      <trkpt lat="42.0637920" lon="-7.7262900">
        <ele>623.9</ele>
        <time>2019-08-17T11:48:34Z</time>
      </trkpt>
      <trkpt lat="42.0638410" lon="-7.7263210">
        <ele>623.8</ele>
        <time>2019-08-17T11:48:35Z</time>
      </trkpt>
      <trkpt lat="42.0638890" lon="-7.7263520">
        <ele>623.8</ele>
        <time>2019-08-17T11:48:36Z</time>
      </trkpt>
      <trkpt lat="42.0639380" lon="-7.7263830">
        <ele>623.7</ele>
        <time>2019-08-17T11:48:37Z</time>
      </trkpt>
      <trkpt lat="42.0639860" lon="-7.7264140">
        <ele>623.7</ele>
        <time>2019-08-17T11:48:38Z</time>
      </trkpt>
      <trkpt lat="42.0640350" lon="-7.7264450">
        <ele>623.6</ele>
        <time>2019-08-17T11:48:39Z</time>
      </trkpt>
      <trkpt lat="42.0640840" lon="-7.7264760">
        <ele>623.5</ele>
        <time>2019-08-17T11:48:40Z</time>
      </trkpt>
      <trkpt lat="42.0641340" lon="-7.7265080">
        <ele>623.3</ele>
        <time>2019-08-17T11:48:41Z</time>
      </trkpt>
      <trkpt lat="42.0642120" lon="-7.7265560">
        <ele>623.0</ele>
        <time>2019-08-17T11:48:42Z</time>
      </trkpt>
      <trkpt lat="42.0642380" lon="-7.7265730">
        <ele>622.9</ele>
        <time>2019-08-17T11:48:43Z</time>
      </trkpt>
      <trkpt lat="42.0642910" lon="-7.7266060">
        <ele>622.6</ele>
        <time>2019-08-17T11:48:44Z</time>
      </trkpt>
      <trkpt lat="42.0643430" lon="-7.7266380">
        <ele>622.3</ele>
        <time>2019-08-17T11:48:45Z</time>
      </trkpt>
      <trkpt lat="42.0643960" lon="-7.7266700">
        <ele>621.9</ele>
        <time>2019-08-17T11:48:46Z</time>
      </trkpt>
      <trkpt lat="42.0644480" lon="-7.7267010">
        <ele>621.5</ele>
        <time>2019-08-17T11:48:47Z</time>
      </trkpt>
      <trkpt lat="42.0645000" lon="-7.7267310">
        <ele>621.2</ele>
        <time>2019-08-17T11:48:48Z</time>
      </trkpt>
      <trkpt lat="42.0645500" lon="-7.7267600">
        <ele>621.0</ele>
        <time>2019-08-17T11:48:49Z</time>
      </trkpt>
      <trkpt lat="42.0646000" lon="-7.7267880">
        <ele>621.0</ele>
        <time>2019-08-17T11:48:50Z</time>
      </trkpt>
      <trkpt lat="42.0646500" lon="-7.7268160">
        <ele>621.0</ele>
        <time>2019-08-17T11:48:51Z</time>
      </trkpt>
      <trkpt lat="42.0646990" lon="-7.7268430">
        <ele>621.0</ele>
        <time>2019-08-17T11:48:52Z</time>
      </trkpt>
      <trkpt lat="42.0647490" lon="-7.7268700">
        <ele>621.1</ele>
        <time>2019-08-17T11:48:53Z</time>
      </trkpt>
      <trkpt lat="42.0647990" lon="-7.7268970">
        <ele>621.1</ele>
        <time>2019-08-17T11:48:54Z</time>
      </trkpt>
      <trkpt lat="42.0648490" lon="-7.7269260">
        <ele>621.1</ele>
        <time>2019-08-17T11:48:55Z</time>
      </trkpt>
      <trkpt lat="42.0649010" lon="-7.7269550">
        <ele>621.1</ele>
        <time>2019-08-17T11:48:56Z</time>
      </trkpt>
      <trkpt lat="42.0649530" lon="-7.7269850">
        <ele>621.1</ele>
        <time>2019-08-17T11:48:57Z</time>
      </trkpt>
      <trkpt lat="42.0650070" lon="-7.7270160">
        <ele>621.1</ele>
        <time>2019-08-17T11:48:58Z</time>
      </trkpt>
      <trkpt lat="42.0650610" lon="-7.7270470">
        <ele>621.1</ele>
        <time>2019-08-17T11:48:59Z</time>
      </trkpt>
      <trkpt lat="42.0651150" lon="-7.7270790">
        <ele>621.2</ele>
        <time>2019-08-17T11:49:00Z</time>
      </trkpt>
      <trkpt lat="42.0651700" lon="-7.7271110">
        <ele>621.2</ele>
        <time>2019-08-17T11:49:01Z</time>
      </trkpt>
      <trkpt lat="42.0652250" lon="-7.7271440">
        <ele>621.2</ele>
        <time>2019-08-17T11:49:02Z</time>
      </trkpt>
      <trkpt lat="42.0652810" lon="-7.7271760">
        <ele>621.2</ele>
        <time>2019-08-17T11:49:03Z</time>
      </trkpt>
      <trkpt lat="42.0653370" lon="-7.7272090">
        <ele>621.2</ele>
        <time>2019-08-17T11:49:04Z</time>
      </trkpt>
      <trkpt lat="42.0653930" lon="-7.7272410">
        <ele>621.2</ele>
        <time>2019-08-17T11:49:05Z</time>
      </trkpt>
      <trkpt lat="42.0654490" lon="-7.7272740">
        <ele>621.2</ele>
        <time>2019-08-17T11:49:06Z</time>
      </trkpt>
      <trkpt lat="42.0655050" lon="-7.7273060">
        <ele>621.2</ele>
        <time>2019-08-17T11:49:07Z</time>
      </trkpt>
      <trkpt lat="42.0655620" lon="-7.7273390">
        <ele>621.2</ele>
        <time>2019-08-17T11:49:08Z</time>
      </trkpt>
      <trkpt lat="42.0656180" lon="-7.7273720">
        <ele>621.2</ele>
        <time>2019-08-17T11:49:09Z</time>
      </trkpt>
      <trkpt lat="42.0656750" lon="-7.7274050">
        <ele>621.2</ele>
        <time>2019-08-17T11:49:10Z</time>
      </trkpt>
      <trkpt lat="42.0657330" lon="-7.7274390">
        <ele>621.2</ele>
        <time>2019-08-17T11:49:11Z</time>
      </trkpt>
      <trkpt lat="42.0657900" lon="-7.7274720">
        <ele>621.2</ele>
        <time>2019-08-17T11:49:12Z</time>
      </trkpt>
      <trkpt lat="42.0658480" lon="-7.7275060">
        <ele>621.2</ele>
        <time>2019-08-17T11:49:13Z</time>
      </trkpt>
      <trkpt lat="42.0659050" lon="-7.7275400">
        <ele>621.2</ele>
        <time>2019-08-17T11:49:14Z</time>
      </trkpt>
      <trkpt lat="42.0659630" lon="-7.7275750">
        <ele>621.3</ele>
        <time>2019-08-17T11:49:15Z</time>
      </trkpt>
      <trkpt lat="42.0660220" lon="-7.7276090">
        <ele>621.3</ele>
        <time>2019-08-17T11:49:16Z</time>
      </trkpt>
      <trkpt lat="42.0660800" lon="-7.7276440">
        <ele>621.3</ele>
        <time>2019-08-17T11:49:17Z</time>
      </trkpt>
      <trkpt lat="42.0661380" lon="-7.7276780">
        <ele>621.3</ele>
        <time>2019-08-17T11:49:18Z</time>
      </trkpt>
      <trkpt lat="42.0661970" lon="-7.7277130">
        <ele>621.3</ele>
        <time>2019-08-17T11:49:19Z</time>
      </trkpt>
      <trkpt lat="42.0662560" lon="-7.7277470">
        <ele>621.3</ele>
        <time>2019-08-17T11:49:20Z</time>
      </trkpt>
      <trkpt lat="42.0663150" lon="-7.7277810">
        <ele>621.4</ele>
        <time>2019-08-17T11:49:21Z</time>
      </trkpt>
      <trkpt lat="42.0663740" lon="-7.7278160">
        <ele>621.4</ele>
        <time>2019-08-17T11:49:22Z</time>
      </trkpt>
      <trkpt lat="42.0664320" lon="-7.7278510">
        <ele>621.5</ele>
        <time>2019-08-17T11:49:23Z</time>
      </trkpt>
      <trkpt lat="42.0664910" lon="-7.7278860">
        <ele>621.5</ele>
        <time>2019-08-17T11:49:24Z</time>
      </trkpt>
      <trkpt lat="42.0665490" lon="-7.7279220">
        <ele>621.6</ele>
        <time>2019-08-17T11:49:25Z</time>
      </trkpt>
      <trkpt lat="42.0666070" lon="-7.7279580">
        <ele>621.6</ele>
        <time>2019-08-17T11:49:26Z</time>
      </trkpt>
      <trkpt lat="42.0666650" lon="-7.7279950">
        <ele>621.7</ele>
        <time>2019-08-17T11:49:27Z</time>
      </trkpt>
      <trkpt lat="42.0667210" lon="-7.7280330">
        <ele>621.9</ele>
        <time>2019-08-17T11:49:28Z</time>
      </trkpt>
      <trkpt lat="42.0667770" lon="-7.7280710">
        <ele>622.0</ele>
        <time>2019-08-17T11:49:29Z</time>
      </trkpt>
      <trkpt lat="42.0668320" lon="-7.7281100">
        <ele>622.2</ele>
        <time>2019-08-17T11:49:30Z</time>
      </trkpt>
      <trkpt lat="42.0668860" lon="-7.7281490">
        <ele>622.4</ele>
        <time>2019-08-17T11:49:31Z</time>
      </trkpt>
      <trkpt lat="42.0669380" lon="-7.7281890">
        <ele>622.6</ele>
        <time>2019-08-17T11:49:32Z</time>
      </trkpt>
      <trkpt lat="42.0669900" lon="-7.7282280">
        <ele>622.7</ele>
        <time>2019-08-17T11:49:33Z</time>
      </trkpt>
      <trkpt lat="42.0670420" lon="-7.7282650">
        <ele>622.8</ele>
        <time>2019-08-17T11:49:34Z</time>
      </trkpt>
      <trkpt lat="42.0670940" lon="-7.7283010">
        <ele>622.9</ele>
        <time>2019-08-17T11:49:35Z</time>
      </trkpt>
      <trkpt lat="42.0671470" lon="-7.7283350">
        <ele>622.9</ele>
        <time>2019-08-17T11:49:36Z</time>
      </trkpt>
      <trkpt lat="42.0672000" lon="-7.7283680">
        <ele>623.0</ele>
        <time>2019-08-17T11:49:37Z</time>
      </trkpt>
      <trkpt lat="42.0672520" lon="-7.7284000">
        <ele>623.0</ele>
        <time>2019-08-17T11:49:38Z</time>
      </trkpt>
      <trkpt lat="42.0673050" lon="-7.7284320">
        <ele>623.1</ele>
        <time>2019-08-17T11:49:39Z</time>
      </trkpt>
      <trkpt lat="42.0673570" lon="-7.7284640">
        <ele>623.1</ele>
        <time>2019-08-17T11:49:40Z</time>
      </trkpt>
      <trkpt lat="42.0674080" lon="-7.7284960">
        <ele>623.1</ele>
        <time>2019-08-17T11:49:41Z</time>
      </trkpt>
      <trkpt lat="42.0674590" lon="-7.7285290">
        <ele>623.1</ele>
        <time>2019-08-17T11:49:42Z</time>
      </trkpt>
      <trkpt lat="42.0675090" lon="-7.7285630">
        <ele>623.1</ele>
        <time>2019-08-17T11:49:43Z</time>
      </trkpt>
      <trkpt lat="42.0675580" lon="-7.7285970">
        <ele>623.1</ele>
        <time>2019-08-17T11:49:44Z</time>
      </trkpt>
      <trkpt lat="42.0676060" lon="-7.7286310">
        <ele>623.1</ele>
        <time>2019-08-17T11:49:45Z</time>
      </trkpt>
      <trkpt lat="42.0676540" lon="-7.7286630">
        <ele>623.1</ele>
        <time>2019-08-17T11:49:46Z</time>
      </trkpt>
      <trkpt lat="42.0677000" lon="-7.7286940">
        <ele>623.0</ele>
        <time>2019-08-17T11:49:47Z</time>
      </trkpt>
      <trkpt lat="42.0677470" lon="-7.7287240">
        <ele>623.0</ele>
        <time>2019-08-17T11:49:48Z</time>
      </trkpt>
      <trkpt lat="42.0677930" lon="-7.7287530">
        <ele>622.9</ele>
        <time>2019-08-17T11:49:49Z</time>
      </trkpt>
      <trkpt lat="42.0678400" lon="-7.7287820">
        <ele>622.8</ele>
        <time>2019-08-17T11:49:50Z</time>
      </trkpt>
      <trkpt lat="42.0678880" lon="-7.7288120">
        <ele>622.7</ele>
        <time>2019-08-17T11:49:51Z</time>
      </trkpt>
      <trkpt lat="42.0679360" lon="-7.7288430">
        <ele>622.6</ele>
        <time>2019-08-17T11:49:52Z</time>
      </trkpt>
      <trkpt lat="42.0679840" lon="-7.7288730">
        <ele>622.4</ele>
        <time>2019-08-17T11:49:53Z</time>
      </trkpt>
      <trkpt lat="42.0680310" lon="-7.7289050">
        <ele>622.3</ele>
        <time>2019-08-17T11:49:54Z</time>
      </trkpt>
      <trkpt lat="42.0680760" lon="-7.7289360">
        <ele>622.2</ele>
        <time>2019-08-17T11:49:55Z</time>
      </trkpt>
      <trkpt lat="42.0681190" lon="-7.7289670">
        <ele>622.1</ele>
        <time>2019-08-17T11:49:56Z</time>
      </trkpt>
      <trkpt lat="42.0681600" lon="-7.7289980">
        <ele>621.9</ele>
        <time>2019-08-17T11:49:57Z</time>
      </trkpt>
      <trkpt lat="42.0681990" lon="-7.7290290">
        <ele>621.9</ele>
        <time>2019-08-17T11:49:58Z</time>
      </trkpt>
      <trkpt lat="42.0682360" lon="-7.7290590">
        <ele>621.8</ele>
        <time>2019-08-17T11:49:59Z</time>
      </trkpt>
      <trkpt lat="42.0682750" lon="-7.7290890">
        <ele>621.7</ele>
        <time>2019-08-17T11:50:00Z</time>
      </trkpt>
      <trkpt lat="42.0683160" lon="-7.7291180">
        <ele>621.7</ele>
        <time>2019-08-17T11:50:01Z</time>
      </trkpt>
      <trkpt lat="42.0683620" lon="-7.7291480">
        <ele>621.6</ele>
        <time>2019-08-17T11:50:02Z</time>
      </trkpt>
      <trkpt lat="42.0684110" lon="-7.7291780">
        <ele>621.6</ele>
        <time>2019-08-17T11:50:03Z</time>
      </trkpt>
      <trkpt lat="42.0684630" lon="-7.7292080">
        <ele>621.5</ele>
        <time>2019-08-17T11:50:04Z</time>
      </trkpt>
      <trkpt lat="42.0685150" lon="-7.7292380">
        <ele>621.5</ele>
        <time>2019-08-17T11:50:05Z</time>
      </trkpt>
      <trkpt lat="42.0685660" lon="-7.7292680">
        <ele>621.5</ele>
        <time>2019-08-17T11:50:06Z</time>
      </trkpt>
      <trkpt lat="42.0686170" lon="-7.7292990">
        <ele>621.4</ele>
        <time>2019-08-17T11:50:07Z</time>
      </trkpt>
      <trkpt lat="42.0686670" lon="-7.7293300">
        <ele>621.4</ele>
        <time>2019-08-17T11:50:08Z</time>
      </trkpt>
      <trkpt lat="42.0687170" lon="-7.7293610">
        <ele>621.4</ele>
        <time>2019-08-17T11:50:09Z</time>
      </trkpt>
      <trkpt lat="42.0687660" lon="-7.7293920">
        <ele>621.3</ele>
        <time>2019-08-17T11:50:10Z</time>
      </trkpt>
      <trkpt lat="42.0688150" lon="-7.7294230">
        <ele>621.3</ele>
        <time>2019-08-17T11:50:11Z</time>
      </trkpt>
      <trkpt lat="42.0688640" lon="-7.7294530">
        <ele>621.2</ele>
        <time>2019-08-17T11:50:12Z</time>
      </trkpt>
      <trkpt lat="42.0689130" lon="-7.7294830">
        <ele>621.1</ele>
        <time>2019-08-17T11:50:13Z</time>
      </trkpt>
      <trkpt lat="42.0689620" lon="-7.7295130">
        <ele>621.0</ele>
        <time>2019-08-17T11:50:14Z</time>
      </trkpt>
      <trkpt lat="42.0690110" lon="-7.7295420">
        <ele>620.9</ele>
        <time>2019-08-17T11:50:15Z</time>
      </trkpt>
      <trkpt lat="42.0690930" lon="-7.7295900">
        <ele>620.7</ele>
        <time>2019-08-17T11:50:16Z</time>
      </trkpt>
      <trkpt lat="42.0691270" lon="-7.7296090">
        <ele>620.6</ele>
        <time>2019-08-17T11:50:17Z</time>
      </trkpt>
      <trkpt lat="42.0691600" lon="-7.7296280">
        <ele>620.5</ele>
        <time>2019-08-17T11:50:18Z</time>
      </trkpt>
      <trkpt lat="42.0692110" lon="-7.7296570">
        <ele>620.3</ele>
        <time>2019-08-17T11:50:19Z</time>
      </trkpt>
      <trkpt lat="42.0692620" lon="-7.7296860">
        <ele>620.2</ele>
        <time>2019-08-17T11:50:20Z</time>
      </trkpt>
      <trkpt lat="42.0693130" lon="-7.7297150">
        <ele>620.1</ele>
        <time>2019-08-17T11:50:21Z</time>
      </trkpt>
      <trkpt lat="42.0693650" lon="-7.7297460">
        <ele>619.9</ele>
        <time>2019-08-17T11:50:22Z</time>
      </trkpt>
      <trkpt lat="42.0694180" lon="-7.7297760">
        <ele>619.8</ele>
        <time>2019-08-17T11:50:23Z</time>
      </trkpt>
      <trkpt lat="42.0694710" lon="-7.7298070">
        <ele>619.6</ele>
        <time>2019-08-17T11:50:24Z</time>
      </trkpt>
      <trkpt lat="42.0695250" lon="-7.7298380">
        <ele>619.5</ele>
        <time>2019-08-17T11:50:25Z</time>
      </trkpt>
      <trkpt lat="42.0695790" lon="-7.7298700">
        <ele>619.5</ele>
        <time>2019-08-17T11:50:26Z</time>
      </trkpt>
      <trkpt lat="42.0696330" lon="-7.7299010">
        <ele>619.4</ele>
        <time>2019-08-17T11:50:27Z</time>
      </trkpt>
      <trkpt lat="42.0696870" lon="-7.7299320">
        <ele>619.3</ele>
        <time>2019-08-17T11:50:28Z</time>
      </trkpt>
      <trkpt lat="42.0697420" lon="-7.7299630">
        <ele>619.3</ele>
        <time>2019-08-17T11:50:29Z</time>
      </trkpt>
      <trkpt lat="42.0697970" lon="-7.7299940">
        <ele>619.3</ele>
        <time>2019-08-17T11:50:30Z</time>
      </trkpt>
      <trkpt lat="42.0698520" lon="-7.7300240">
        <ele>619.4</ele>
        <time>2019-08-17T11:50:31Z</time>
      </trkpt>
      <trkpt lat="42.0699070" lon="-7.7300540">
        <ele>619.4</ele>
        <time>2019-08-17T11:50:32Z</time>
      </trkpt>
      <trkpt lat="42.0699620" lon="-7.7300830">
        <ele>619.4</ele>
        <time>2019-08-17T11:50:33Z</time>
      </trkpt>
      <trkpt lat="42.0700170" lon="-7.7301120">
        <ele>619.4</ele>
        <time>2019-08-17T11:50:34Z</time>
      </trkpt>
      <trkpt lat="42.0700720" lon="-7.7301400">
        <ele>619.4</ele>
        <time>2019-08-17T11:50:35Z</time>
      </trkpt>
      <trkpt lat="42.0701280" lon="-7.7301670">
        <ele>619.4</ele>
        <time>2019-08-17T11:50:36Z</time>
      </trkpt>
      <trkpt lat="42.0701830" lon="-7.7301940">
        <ele>619.3</ele>
        <time>2019-08-17T11:50:37Z</time>
      </trkpt>
      <trkpt lat="42.0702390" lon="-7.7302200">
        <ele>619.3</ele>
        <time>2019-08-17T11:50:38Z</time>
      </trkpt>
      <trkpt lat="42.0702950" lon="-7.7302460">
        <ele>619.3</ele>
        <time>2019-08-17T11:50:39Z</time>
      </trkpt>
      <trkpt lat="42.0703500" lon="-7.7302720">
        <ele>619.3</ele>
        <time>2019-08-17T11:50:40Z</time>
      </trkpt>
      <trkpt lat="42.0704060" lon="-7.7302980">
        <ele>619.3</ele>
        <time>2019-08-17T11:50:41Z</time>
      </trkpt>
      <trkpt lat="42.0704610" lon="-7.7303240">
        <ele>619.2</ele>
        <time>2019-08-17T11:50:42Z</time>
      </trkpt>
      <trkpt lat="42.0705160" lon="-7.7303510">
        <ele>619.2</ele>
        <time>2019-08-17T11:50:43Z</time>
      </trkpt>
      <trkpt lat="42.0705710" lon="-7.7303790">
        <ele>619.2</ele>
        <time>2019-08-17T11:50:44Z</time>
      </trkpt>
      <trkpt lat="42.0706250" lon="-7.7304080">
        <ele>619.2</ele>
        <time>2019-08-17T11:50:45Z</time>
      </trkpt>
      <trkpt lat="42.0706790" lon="-7.7304380">
        <ele>619.1</ele>
        <time>2019-08-17T11:50:46Z</time>
      </trkpt>
      <trkpt lat="42.0707330" lon="-7.7304690">
        <ele>619.2</ele>
        <time>2019-08-17T11:50:47Z</time>
      </trkpt>
      <trkpt lat="42.0707870" lon="-7.7305000">
        <ele>619.2</ele>
        <time>2019-08-17T11:50:48Z</time>
      </trkpt>
      <trkpt lat="42.0708410" lon="-7.7305310">
        <ele>619.3</ele>
        <time>2019-08-17T11:50:49Z</time>
      </trkpt>
      <trkpt lat="42.0708940" lon="-7.7305620">
        <ele>619.3</ele>
        <time>2019-08-17T11:50:50Z</time>
      </trkpt>
      <trkpt lat="42.0709470" lon="-7.7305930">
        <ele>619.3</ele>
        <time>2019-08-17T11:50:51Z</time>
      </trkpt>
      <trkpt lat="42.0710010" lon="-7.7306240">
        <ele>619.3</ele>
        <time>2019-08-17T11:50:52Z</time>
      </trkpt>
      <trkpt lat="42.0710540" lon="-7.7306540">
        <ele>619.2</ele>
        <time>2019-08-17T11:50:53Z</time>
      </trkpt>
      <trkpt lat="42.0711080" lon="-7.7306830">
        <ele>619.2</ele>
        <time>2019-08-17T11:50:54Z</time>
      </trkpt>
      <trkpt lat="42.0711610" lon="-7.7307120">
        <ele>619.1</ele>
        <time>2019-08-17T11:50:55Z</time>
      </trkpt>
      <trkpt lat="42.0712140" lon="-7.7307400">
        <ele>619.1</ele>
        <time>2019-08-17T11:50:56Z</time>
      </trkpt>
      <trkpt lat="42.0712660" lon="-7.7307690">
        <ele>619.0</ele>
        <time>2019-08-17T11:50:57Z</time>
      </trkpt>
      <trkpt lat="42.0713190" lon="-7.7307970">
        <ele>619.0</ele>
        <time>2019-08-17T11:50:58Z</time>
      </trkpt>
      <trkpt lat="42.0713700" lon="-7.7308250">
        <ele>618.9</ele>
        <time>2019-08-17T11:50:59Z</time>
      </trkpt>
      <trkpt lat="42.0714220" lon="-7.7308530">
        <ele>618.9</ele>
        <time>2019-08-17T11:51:00Z</time>
      </trkpt>
      <trkpt lat="42.0714730" lon="-7.7308810">
        <ele>618.8</ele>
        <time>2019-08-17T11:51:01Z</time>
      </trkpt>
      <trkpt lat="42.0715230" lon="-7.7309100">
        <ele>618.8</ele>
        <time>2019-08-17T11:51:02Z</time>
      </trkpt>
      <trkpt lat="42.0715740" lon="-7.7309390">
        <ele>618.8</ele>
        <time>2019-08-17T11:51:03Z</time>
      </trkpt>
      <trkpt lat="42.0716250" lon="-7.7309680">
        <ele>618.7</ele>
        <time>2019-08-17T11:51:04Z</time>
      </trkpt>
      <trkpt lat="42.0716750" lon="-7.7309980">
        <ele>618.7</ele>
        <time>2019-08-17T11:51:05Z</time>
      </trkpt>
      <trkpt lat="42.0717270" lon="-7.7310280">
        <ele>618.7</ele>
        <time>2019-08-17T11:51:06Z</time>
      </trkpt>
      <trkpt lat="42.0717790" lon="-7.7310590">
        <ele>618.6</ele>
        <time>2019-08-17T11:51:07Z</time>
      </trkpt>
      <trkpt lat="42.0718320" lon="-7.7310910">
        <ele>618.6</ele>
        <time>2019-08-17T11:51:08Z</time>
      </trkpt>
      <trkpt lat="42.0718850" lon="-7.7311230">
        <ele>618.5</ele>
        <time>2019-08-17T11:51:09Z</time>
      </trkpt>
      <trkpt lat="42.0719390" lon="-7.7311560">
        <ele>618.5</ele>
        <time>2019-08-17T11:51:10Z</time>
      </trkpt>
      <trkpt lat="42.0719940" lon="-7.7311880">
        <ele>618.4</ele>
        <time>2019-08-17T11:51:11Z</time>
      </trkpt>
      <trkpt lat="42.0720490" lon="-7.7312210">
        <ele>618.4</ele>
        <time>2019-08-17T11:51:12Z</time>
      </trkpt>
      <trkpt lat="42.0721050" lon="-7.7312540">
        <ele>618.3</ele>
        <time>2019-08-17T11:51:13Z</time>
      </trkpt>
      <trkpt lat="42.0721600" lon="-7.7312870">
        <ele>618.3</ele>
        <time>2019-08-17T11:51:14Z</time>
      </trkpt>
      <trkpt lat="42.0722160" lon="-7.7313190">
        <ele>618.2</ele>
        <time>2019-08-17T11:51:15Z</time>
      </trkpt>
      <trkpt lat="42.0722720" lon="-7.7313510">
        <ele>618.2</ele>
        <time>2019-08-17T11:51:16Z</time>
      </trkpt>
      <trkpt lat="42.0723280" lon="-7.7313830">
        <ele>618.1</ele>
        <time>2019-08-17T11:51:17Z</time>
      </trkpt>
      <trkpt lat="42.0723840" lon="-7.7314140">
        <ele>618.0</ele>
        <time>2019-08-17T11:51:18Z</time>
      </trkpt>
      <trkpt lat="42.0724400" lon="-7.7314450">
        <ele>618.0</ele>
        <time>2019-08-17T11:51:19Z</time>
      </trkpt>
      <trkpt lat="42.0724950" lon="-7.7314760">
        <ele>617.9</ele>
        <time>2019-08-17T11:51:20Z</time>
      </trkpt>
      <trkpt lat="42.0725510" lon="-7.7315080">
        <ele>617.9</ele>
        <time>2019-08-17T11:51:21Z</time>
      </trkpt>
      <trkpt lat="42.0726060" lon="-7.7315390">
        <ele>617.9</ele>
        <time>2019-08-17T11:51:22Z</time>
      </trkpt>
      <trkpt lat="42.0726610" lon="-7.7315710">
        <ele>617.8</ele>
        <time>2019-08-17T11:51:23Z</time>
      </trkpt>
      <trkpt lat="42.0727160" lon="-7.7316040">
        <ele>617.8</ele>
        <time>2019-08-17T11:51:24Z</time>
      </trkpt>
      <trkpt lat="42.0727700" lon="-7.7316360">
        <ele>617.8</ele>
        <time>2019-08-17T11:51:25Z</time>
      </trkpt>
      <trkpt lat="42.0728240" lon="-7.7316700">
        <ele>617.7</ele>
        <time>2019-08-17T11:51:26Z</time>
      </trkpt>
      <trkpt lat="42.0728780" lon="-7.7317030">
        <ele>617.7</ele>
        <time>2019-08-17T11:51:27Z</time>
      </trkpt>
      <trkpt lat="42.0729320" lon="-7.7317360">
        <ele>617.6</ele>
        <time>2019-08-17T11:51:28Z</time>
      </trkpt>
      <trkpt lat="42.0729860" lon="-7.7317700">
        <ele>617.6</ele>
        <time>2019-08-17T11:51:29Z</time>
      </trkpt>
      <trkpt lat="42.0730390" lon="-7.7318030">
        <ele>617.6</ele>
        <time>2019-08-17T11:51:30Z</time>
      </trkpt>
      <trkpt lat="42.0730930" lon="-7.7318360">
        <ele>617.6</ele>
        <time>2019-08-17T11:51:31Z</time>
      </trkpt>
      <trkpt lat="42.0731460" lon="-7.7318690">
        <ele>617.6</ele>
        <time>2019-08-17T11:51:32Z</time>
      </trkpt>
      <trkpt lat="42.0732000" lon="-7.7319010">
        <ele>617.7</ele>
        <time>2019-08-17T11:51:33Z</time>
      </trkpt>
      <trkpt lat="42.0732540" lon="-7.7319340">
        <ele>617.7</ele>
        <time>2019-08-17T11:51:34Z</time>
      </trkpt>
      <trkpt lat="42.0733070" lon="-7.7319670">
        <ele>617.8</ele>
        <time>2019-08-17T11:51:35Z</time>
      </trkpt>
      <trkpt lat="42.0733610" lon="-7.7320000">
        <ele>617.9</ele>
        <time>2019-08-17T11:51:36Z</time>
      </trkpt>
      <trkpt lat="42.0734150" lon="-7.7320320">
        <ele>618.1</ele>
        <time>2019-08-17T11:51:37Z</time>
      </trkpt>
      <trkpt lat="42.0734690" lon="-7.7320650">
        <ele>618.2</ele>
        <time>2019-08-17T11:51:38Z</time>
      </trkpt>
      <trkpt lat="42.0735240" lon="-7.7320990">
        <ele>618.3</ele>
        <time>2019-08-17T11:51:39Z</time>
      </trkpt>
      <trkpt lat="42.0735790" lon="-7.7321320">
        <ele>618.4</ele>
        <time>2019-08-17T11:51:40Z</time>
      </trkpt>
      <trkpt lat="42.0736330" lon="-7.7321650">
        <ele>618.5</ele>
        <time>2019-08-17T11:51:41Z</time>
      </trkpt>
      <trkpt lat="42.0736880" lon="-7.7321980">
        <ele>618.6</ele>
        <time>2019-08-17T11:51:42Z</time>
      </trkpt>
      <trkpt lat="42.0737420" lon="-7.7322310">
        <ele>618.6</ele>
        <time>2019-08-17T11:51:43Z</time>
      </trkpt>
      <trkpt lat="42.0737970" lon="-7.7322630">
        <ele>618.6</ele>
        <time>2019-08-17T11:51:44Z</time>
      </trkpt>
      <trkpt lat="42.0738500" lon="-7.7322940">
        <ele>618.6</ele>
        <time>2019-08-17T11:51:45Z</time>
      </trkpt>
      <trkpt lat="42.0739040" lon="-7.7323250">
        <ele>618.6</ele>
        <time>2019-08-17T11:51:46Z</time>
      </trkpt>
      <trkpt lat="42.0739570" lon="-7.7323550">
        <ele>618.6</ele>
        <time>2019-08-17T11:51:47Z</time>
      </trkpt>
      <trkpt lat="42.0740110" lon="-7.7323780">
        <ele>618.6</ele>
        <time>2019-08-17T11:51:48Z</time>
      </trkpt>
      <trkpt lat="42.0740690" lon="-7.7323950">
        <ele>618.6</ele>
        <time>2019-08-17T11:51:49Z</time>
      </trkpt>
      <trkpt lat="42.0741260" lon="-7.7324150">
        <ele>618.6</ele>
        <time>2019-08-17T11:51:50Z</time>
      </trkpt>
      <trkpt lat="42.0741800" lon="-7.7324490">
        <ele>618.5</ele>
        <time>2019-08-17T11:51:51Z</time>
      </trkpt>
      <trkpt lat="42.0742310" lon="-7.7324910">
        <ele>618.3</ele>
        <time>2019-08-17T11:51:52Z</time>
      </trkpt>
      <trkpt lat="42.0742810" lon="-7.7325360">
        <ele>618.3</ele>
        <time>2019-08-17T11:51:53Z</time>
      </trkpt>
      <trkpt lat="42.0743320" lon="-7.7325790">
        <ele>618.1</ele>
        <time>2019-08-17T11:51:54Z</time>
      </trkpt>
      <trkpt lat="42.0743840" lon="-7.7326180">
        <ele>618.1</ele>
        <time>2019-08-17T11:51:55Z</time>
      </trkpt>
      <trkpt lat="42.0744370" lon="-7.7326520">
        <ele>618.0</ele>
        <time>2019-08-17T11:51:56Z</time>
      </trkpt>
      <trkpt lat="42.0744910" lon="-7.7326840">
        <ele>617.9</ele>
        <time>2019-08-17T11:51:57Z</time>
      </trkpt>
      <trkpt lat="42.0745440" lon="-7.7327150">
        <ele>617.8</ele>
        <time>2019-08-17T11:51:58Z</time>
      </trkpt>
      <trkpt lat="42.0745970" lon="-7.7327460">
        <ele>617.8</ele>
        <time>2019-08-17T11:51:59Z</time>
      </trkpt>
      <trkpt lat="42.0746490" lon="-7.7327780">
        <ele>617.8</ele>
        <time>2019-08-17T11:52:00Z</time>
      </trkpt>
      <trkpt lat="42.0747010" lon="-7.7328100">
        <ele>617.8</ele>
        <time>2019-08-17T11:52:01Z</time>
      </trkpt>
      <trkpt lat="42.0747540" lon="-7.7328420">
        <ele>617.9</ele>
        <time>2019-08-17T11:52:02Z</time>
      </trkpt>
      <trkpt lat="42.0748060" lon="-7.7328750">
        <ele>618.0</ele>
        <time>2019-08-17T11:52:03Z</time>
      </trkpt>
      <trkpt lat="42.0748600" lon="-7.7329070">
        <ele>618.0</ele>
        <time>2019-08-17T11:52:04Z</time>
      </trkpt>
      <trkpt lat="42.0749130" lon="-7.7329390">
        <ele>618.1</ele>
        <time>2019-08-17T11:52:05Z</time>
      </trkpt>
      <trkpt lat="42.0749670" lon="-7.7329720">
        <ele>618.2</ele>
        <time>2019-08-17T11:52:06Z</time>
      </trkpt>
      <trkpt lat="42.0750210" lon="-7.7330040">
        <ele>618.2</ele>
        <time>2019-08-17T11:52:07Z</time>
      </trkpt>
      <trkpt lat="42.0750760" lon="-7.7330370">
        <ele>618.3</ele>
        <time>2019-08-17T11:52:08Z</time>
      </trkpt>
      <trkpt lat="42.0751300" lon="-7.7330690">
        <ele>618.3</ele>
        <time>2019-08-17T11:52:09Z</time>
      </trkpt>
      <trkpt lat="42.0751850" lon="-7.7331020">
        <ele>618.3</ele>
        <time>2019-08-17T11:52:10Z</time>
      </trkpt>
      <trkpt lat="42.0752390" lon="-7.7331340">
        <ele>618.4</ele>
        <time>2019-08-17T11:52:11Z</time>
      </trkpt>
      <trkpt lat="42.0752940" lon="-7.7331670">
        <ele>618.4</ele>
        <time>2019-08-17T11:52:12Z</time>
      </trkpt>
      <trkpt lat="42.0753480" lon="-7.7331990">
        <ele>618.5</ele>
        <time>2019-08-17T11:52:13Z</time>
      </trkpt>
      <trkpt lat="42.0754030" lon="-7.7332320">
        <ele>618.5</ele>
        <time>2019-08-17T11:52:14Z</time>
      </trkpt>
      <trkpt lat="42.0754570" lon="-7.7332640">
        <ele>618.6</ele>
        <time>2019-08-17T11:52:15Z</time>
      </trkpt>
      <trkpt lat="42.0755110" lon="-7.7332970">
        <ele>618.6</ele>
        <time>2019-08-17T11:52:16Z</time>
      </trkpt>
      <trkpt lat="42.0755640" lon="-7.7333290">
        <ele>618.7</ele>
        <time>2019-08-17T11:52:17Z</time>
      </trkpt>
      <trkpt lat="42.0756180" lon="-7.7333620">
        <ele>618.7</ele>
        <time>2019-08-17T11:52:18Z</time>
      </trkpt>
      <trkpt lat="42.0756710" lon="-7.7333940">
        <ele>618.7</ele>
        <time>2019-08-17T11:52:19Z</time>
      </trkpt>
      <trkpt lat="42.0757240" lon="-7.7334270">
        <ele>618.7</ele>
        <time>2019-08-17T11:52:20Z</time>
      </trkpt>
      <trkpt lat="42.0757760" lon="-7.7334590">
        <ele>618.7</ele>
        <time>2019-08-17T11:52:21Z</time>
      </trkpt>
      <trkpt lat="42.0758280" lon="-7.7334910">
        <ele>618.7</ele>
        <time>2019-08-17T11:52:22Z</time>
      </trkpt>
      <trkpt lat="42.0758810" lon="-7.7335240">
        <ele>618.7</ele>
        <time>2019-08-17T11:52:23Z</time>
      </trkpt>
      <trkpt lat="42.0759330" lon="-7.7335560">
        <ele>618.7</ele>
        <time>2019-08-17T11:52:24Z</time>
      </trkpt>
      <trkpt lat="42.0759840" lon="-7.7335880">
        <ele>618.7</ele>
        <time>2019-08-17T11:52:25Z</time>
      </trkpt>
      <trkpt lat="42.0760360" lon="-7.7336200">
        <ele>618.7</ele>
        <time>2019-08-17T11:52:26Z</time>
      </trkpt>
      <trkpt lat="42.0760880" lon="-7.7336510">
        <ele>618.7</ele>
        <time>2019-08-17T11:52:27Z</time>
      </trkpt>
      <trkpt lat="42.0761390" lon="-7.7336830">
        <ele>618.7</ele>
        <time>2019-08-17T11:52:28Z</time>
      </trkpt>
      <trkpt lat="42.0761910" lon="-7.7337150">
        <ele>618.7</ele>
        <time>2019-08-17T11:52:29Z</time>
      </trkpt>
      <trkpt lat="42.0762420" lon="-7.7337460">
        <ele>618.7</ele>
        <time>2019-08-17T11:52:30Z</time>
      </trkpt>
      <trkpt lat="42.0762940" lon="-7.7337770">
        <ele>618.7</ele>
        <time>2019-08-17T11:52:31Z</time>
      </trkpt>
      <trkpt lat="42.0763450" lon="-7.7338080">
        <ele>618.7</ele>
        <time>2019-08-17T11:52:32Z</time>
      </trkpt>
      <trkpt lat="42.0763970" lon="-7.7338390">
        <ele>618.7</ele>
        <time>2019-08-17T11:52:33Z</time>
      </trkpt>
      <trkpt lat="42.0764490" lon="-7.7338700">
        <ele>618.7</ele>
        <time>2019-08-17T11:52:34Z</time>
      </trkpt>
      <trkpt lat="42.0765000" lon="-7.7339000">
        <ele>618.7</ele>
        <time>2019-08-17T11:52:35Z</time>
      </trkpt>
      <trkpt lat="42.0765520" lon="-7.7339310">
        <ele>618.7</ele>
        <time>2019-08-17T11:52:36Z</time>
      </trkpt>
      <trkpt lat="42.0766040" lon="-7.7339610">
        <ele>618.7</ele>
        <time>2019-08-17T11:52:37Z</time>
      </trkpt>
      <trkpt lat="42.0766560" lon="-7.7339920">
        <ele>618.7</ele>
        <time>2019-08-17T11:52:38Z</time>
      </trkpt>
      <trkpt lat="42.0767080" lon="-7.7340220">
        <ele>618.8</ele>
        <time>2019-08-17T11:52:39Z</time>
      </trkpt>
      <trkpt lat="42.0767600" lon="-7.7340530">
        <ele>618.8</ele>
        <time>2019-08-17T11:52:40Z</time>
      </trkpt>
      <trkpt lat="42.0768120" lon="-7.7340840">
        <ele>618.8</ele>
        <time>2019-08-17T11:52:41Z</time>
      </trkpt>
      <trkpt lat="42.0768640" lon="-7.7341150">
        <ele>618.8</ele>
        <time>2019-08-17T11:52:42Z</time>
      </trkpt>
      <trkpt lat="42.0769160" lon="-7.7341460">
        <ele>618.8</ele>
        <time>2019-08-17T11:52:43Z</time>
      </trkpt>
      <trkpt lat="42.0769690" lon="-7.7341770">
        <ele>618.8</ele>
        <time>2019-08-17T11:52:44Z</time>
      </trkpt>
      <trkpt lat="42.0770210" lon="-7.7342090">
        <ele>618.8</ele>
        <time>2019-08-17T11:52:45Z</time>
      </trkpt>
      <trkpt lat="42.0770730" lon="-7.7342410">
        <ele>618.8</ele>
        <time>2019-08-17T11:52:46Z</time>
      </trkpt>
      <trkpt lat="42.0771250" lon="-7.7342730">
        <ele>618.8</ele>
        <time>2019-08-17T11:52:47Z</time>
      </trkpt>
      <trkpt lat="42.0771770" lon="-7.7343060">
        <ele>618.8</ele>
        <time>2019-08-17T11:52:48Z</time>
      </trkpt>
      <trkpt lat="42.0772290" lon="-7.7343390">
        <ele>618.8</ele>
        <time>2019-08-17T11:52:49Z</time>
      </trkpt>
      <trkpt lat="42.0772810" lon="-7.7343720">
        <ele>618.8</ele>
        <time>2019-08-17T11:52:50Z</time>
      </trkpt>
      <trkpt lat="42.0773330" lon="-7.7344060">
        <ele>618.8</ele>
        <time>2019-08-17T11:52:51Z</time>
      </trkpt>
      <trkpt lat="42.0773840" lon="-7.7344390">
        <ele>618.7</ele>
        <time>2019-08-17T11:52:52Z</time>
      </trkpt>
      <trkpt lat="42.0774360" lon="-7.7344730">
        <ele>618.7</ele>
        <time>2019-08-17T11:52:53Z</time>
      </trkpt>
      <trkpt lat="42.0774870" lon="-7.7345060">
        <ele>618.7</ele>
        <time>2019-08-17T11:52:54Z</time>
      </trkpt>
      <trkpt lat="42.0775370" lon="-7.7345380">
        <ele>618.7</ele>
        <time>2019-08-17T11:52:55Z</time>
      </trkpt>
      <trkpt lat="42.0775870" lon="-7.7345700">
        <ele>618.7</ele>
        <time>2019-08-17T11:52:56Z</time>
      </trkpt>
      <trkpt lat="42.0776370" lon="-7.7346020">
        <ele>618.7</ele>
        <time>2019-08-17T11:52:57Z</time>
      </trkpt>
      <trkpt lat="42.0776860" lon="-7.7346320">
        <ele>618.7</ele>
        <time>2019-08-17T11:52:58Z</time>
      </trkpt>
      <trkpt lat="42.0777360" lon="-7.7346630">
        <ele>618.7</ele>
        <time>2019-08-17T11:52:59Z</time>
      </trkpt>
      <trkpt lat="42.0777850" lon="-7.7346930">
        <ele>618.7</ele>
        <time>2019-08-17T11:53:00Z</time>
      </trkpt>
      <trkpt lat="42.0778350" lon="-7.7347240">
        <ele>618.7</ele>
        <time>2019-08-17T11:53:01Z</time>
      </trkpt>
      <trkpt lat="42.0778850" lon="-7.7347550">
        <ele>618.7</ele>
        <time>2019-08-17T11:53:02Z</time>
      </trkpt>
      <trkpt lat="42.0779360" lon="-7.7347860">
        <ele>618.7</ele>
        <time>2019-08-17T11:53:03Z</time>
      </trkpt>
      <trkpt lat="42.0779880" lon="-7.7348190">
        <ele>618.7</ele>
        <time>2019-08-17T11:53:04Z</time>
      </trkpt>
      <trkpt lat="42.0780410" lon="-7.7348510">
        <ele>618.7</ele>
        <time>2019-08-17T11:53:05Z</time>
      </trkpt>
      <trkpt lat="42.0780940" lon="-7.7348840">
        <ele>618.8</ele>
        <time>2019-08-17T11:53:06Z</time>
      </trkpt>
      <trkpt lat="42.0781480" lon="-7.7349170">
        <ele>618.8</ele>
        <time>2019-08-17T11:53:07Z</time>
      </trkpt>
      <trkpt lat="42.0782030" lon="-7.7349490">
        <ele>618.8</ele>
        <time>2019-08-17T11:53:08Z</time>
      </trkpt>
      <trkpt lat="42.0782580" lon="-7.7349800">
        <ele>618.8</ele>
        <time>2019-08-17T11:53:09Z</time>
      </trkpt>
      <trkpt lat="42.0783130" lon="-7.7350120">
        <ele>618.9</ele>
        <time>2019-08-17T11:53:10Z</time>
      </trkpt>
      <trkpt lat="42.0783680" lon="-7.7350440">
        <ele>618.9</ele>
        <time>2019-08-17T11:53:11Z</time>
      </trkpt>
      <trkpt lat="42.0784230" lon="-7.7350750">
        <ele>619.0</ele>
        <time>2019-08-17T11:53:12Z</time>
      </trkpt>
      <trkpt lat="42.0784770" lon="-7.7351070">
        <ele>619.0</ele>
        <time>2019-08-17T11:53:13Z</time>
      </trkpt>
      <trkpt lat="42.0785320" lon="-7.7351400">
        <ele>619.1</ele>
        <time>2019-08-17T11:53:14Z</time>
      </trkpt>
      <trkpt lat="42.0785870" lon="-7.7351720">
        <ele>619.2</ele>
        <time>2019-08-17T11:53:15Z</time>
      </trkpt>
      <trkpt lat="42.0786410" lon="-7.7352050">
        <ele>619.3</ele>
        <time>2019-08-17T11:53:16Z</time>
      </trkpt>
      <trkpt lat="42.0786960" lon="-7.7352370">
        <ele>619.4</ele>
        <time>2019-08-17T11:53:17Z</time>
      </trkpt>
      <trkpt lat="42.0787500" lon="-7.7352690">
        <ele>619.5</ele>
        <time>2019-08-17T11:53:18Z</time>
      </trkpt>
      <trkpt lat="42.0788040" lon="-7.7353020">
        <ele>619.5</ele>
        <time>2019-08-17T11:53:19Z</time>
      </trkpt>
      <trkpt lat="42.0788580" lon="-7.7353340">
        <ele>619.6</ele>
        <time>2019-08-17T11:53:20Z</time>
      </trkpt>
      <trkpt lat="42.0789110" lon="-7.7353660">
        <ele>619.7</ele>
        <time>2019-08-17T11:53:21Z</time>
      </trkpt>
      <trkpt lat="42.0789650" lon="-7.7353980">
        <ele>619.7</ele>
        <time>2019-08-17T11:53:22Z</time>
      </trkpt>
      <trkpt lat="42.0790180" lon="-7.7354300">
        <ele>619.7</ele>
        <time>2019-08-17T11:53:23Z</time>
      </trkpt>
      <trkpt lat="42.0790710" lon="-7.7354620">
        <ele>619.7</ele>
        <time>2019-08-17T11:53:24Z</time>
      </trkpt>
      <trkpt lat="42.0791240" lon="-7.7354930">
        <ele>619.7</ele>
        <time>2019-08-17T11:53:25Z</time>
      </trkpt>
      <trkpt lat="42.0791780" lon="-7.7355250">
        <ele>619.7</ele>
        <time>2019-08-17T11:53:26Z</time>
      </trkpt>
      <trkpt lat="42.0792310" lon="-7.7355570">
        <ele>619.7</ele>
        <time>2019-08-17T11:53:27Z</time>
      </trkpt>
      <trkpt lat="42.0792840" lon="-7.7355890">
        <ele>619.7</ele>
        <time>2019-08-17T11:53:28Z</time>
      </trkpt>
      <trkpt lat="42.0793370" lon="-7.7356210">
        <ele>619.7</ele>
        <time>2019-08-17T11:53:29Z</time>
      </trkpt>
      <trkpt lat="42.0793900" lon="-7.7356540">
        <ele>619.7</ele>
        <time>2019-08-17T11:53:30Z</time>
      </trkpt>
      <trkpt lat="42.0794430" lon="-7.7356860">
        <ele>619.7</ele>
        <time>2019-08-17T11:53:31Z</time>
      </trkpt>
      <trkpt lat="42.0794970" lon="-7.7357190">
        <ele>619.7</ele>
        <time>2019-08-17T11:53:32Z</time>
      </trkpt>
      <trkpt lat="42.0795510" lon="-7.7357510">
        <ele>619.6</ele>
        <time>2019-08-17T11:53:33Z</time>
      </trkpt>
      <trkpt lat="42.0796040" lon="-7.7357840">
        <ele>619.6</ele>
        <time>2019-08-17T11:53:34Z</time>
      </trkpt>
      <trkpt lat="42.0796580" lon="-7.7358170">
        <ele>619.5</ele>
        <time>2019-08-17T11:53:35Z</time>
      </trkpt>
      <trkpt lat="42.0797130" lon="-7.7358490">
        <ele>619.4</ele>
        <time>2019-08-17T11:53:36Z</time>
      </trkpt>
      <trkpt lat="42.0797670" lon="-7.7358820">
        <ele>619.3</ele>
        <time>2019-08-17T11:53:37Z</time>
      </trkpt>
      <trkpt lat="42.0798220" lon="-7.7359150">
        <ele>619.2</ele>
        <time>2019-08-17T11:53:38Z</time>
      </trkpt>
      <trkpt lat="42.0798770" lon="-7.7359490">
        <ele>619.1</ele>
        <time>2019-08-17T11:53:39Z</time>
      </trkpt>
      <trkpt lat="42.0799330" lon="-7.7359820">
        <ele>619.0</ele>
        <time>2019-08-17T11:53:40Z</time>
      </trkpt>
      <trkpt lat="42.0799890" lon="-7.7360160">
        <ele>618.9</ele>
        <time>2019-08-17T11:53:41Z</time>
      </trkpt>
      <trkpt lat="42.0800450" lon="-7.7360510">
        <ele>618.8</ele>
        <time>2019-08-17T11:53:42Z</time>
      </trkpt>
      <trkpt lat="42.0801010" lon="-7.7360860">
        <ele>618.7</ele>
        <time>2019-08-17T11:53:43Z</time>
      </trkpt>
      <trkpt lat="42.0801580" lon="-7.7361210">
        <ele>618.7</ele>
        <time>2019-08-17T11:53:44Z</time>
      </trkpt>
      <trkpt lat="42.0802150" lon="-7.7361570">
        <ele>618.7</ele>
        <time>2019-08-17T11:53:45Z</time>
      </trkpt>
      <trkpt lat="42.0802720" lon="-7.7361930">
        <ele>618.7</ele>
        <time>2019-08-17T11:53:46Z</time>
      </trkpt>
      <trkpt lat="42.0803300" lon="-7.7362290">
        <ele>618.7</ele>
        <time>2019-08-17T11:53:47Z</time>
      </trkpt>
      <trkpt lat="42.0803880" lon="-7.7362660">
        <ele>618.7</ele>
        <time>2019-08-17T11:53:48Z</time>
      </trkpt>
      <trkpt lat="42.0804460" lon="-7.7363030">
        <ele>618.7</ele>
        <time>2019-08-17T11:53:49Z</time>
      </trkpt>
      <trkpt lat="42.0805040" lon="-7.7363390">
        <ele>618.7</ele>
        <time>2019-08-17T11:53:50Z</time>
      </trkpt>
      <trkpt lat="42.0805620" lon="-7.7363760">
        <ele>618.7</ele>
        <time>2019-08-17T11:53:51Z</time>
      </trkpt>
      <trkpt lat="42.0806210" lon="-7.7364120">
        <ele>618.7</ele>
        <time>2019-08-17T11:53:52Z</time>
      </trkpt>
      <trkpt lat="42.0806790" lon="-7.7364490">
        <ele>618.8</ele>
        <time>2019-08-17T11:53:53Z</time>
      </trkpt>
      <trkpt lat="42.0807380" lon="-7.7364850">
        <ele>618.9</ele>
        <time>2019-08-17T11:53:54Z</time>
      </trkpt>
      <trkpt lat="42.0807960" lon="-7.7365200">
        <ele>619.0</ele>
        <time>2019-08-17T11:53:55Z</time>
      </trkpt>
      <trkpt lat="42.0808550" lon="-7.7365550">
        <ele>619.1</ele>
        <time>2019-08-17T11:53:56Z</time>
      </trkpt>
      <trkpt lat="42.0809130" lon="-7.7365900">
        <ele>619.2</ele>
        <time>2019-08-17T11:53:57Z</time>
      </trkpt>
      <trkpt lat="42.0809710" lon="-7.7366250">
        <ele>619.4</ele>
        <time>2019-08-17T11:53:58Z</time>
      </trkpt>
      <trkpt lat="42.0810290" lon="-7.7366590">
        <ele>619.4</ele>
        <time>2019-08-17T11:53:59Z</time>
      </trkpt>
      <trkpt lat="42.0810870" lon="-7.7366920">
        <ele>619.5</ele>
        <time>2019-08-17T11:54:00Z</time>
      </trkpt>
      <trkpt lat="42.0811450" lon="-7.7367250">
        <ele>619.5</ele>
        <time>2019-08-17T11:54:01Z</time>
      </trkpt>
      <trkpt lat="42.0812030" lon="-7.7367570">
        <ele>619.5</ele>
        <time>2019-08-17T11:54:02Z</time>
      </trkpt>
      <trkpt lat="42.0812600" lon="-7.7367900">
        <ele>619.4</ele>
        <time>2019-08-17T11:54:03Z</time>
      </trkpt>
      <trkpt lat="42.0813180" lon="-7.7368220">
        <ele>619.3</ele>
        <time>2019-08-17T11:54:04Z</time>
      </trkpt>
      <trkpt lat="42.0813750" lon="-7.7368540">
        <ele>619.2</ele>
        <time>2019-08-17T11:54:05Z</time>
      </trkpt>
      <trkpt lat="42.0814330" lon="-7.7368860">
        <ele>619.1</ele>
        <time>2019-08-17T11:54:06Z</time>
      </trkpt>
      <trkpt lat="42.0814900" lon="-7.7369190">
        <ele>619.0</ele>
        <time>2019-08-17T11:54:07Z</time>
      </trkpt>
      <trkpt lat="42.0815480" lon="-7.7369510">
        <ele>618.9</ele>
        <time>2019-08-17T11:54:08Z</time>
      </trkpt>
      <trkpt lat="42.0816050" lon="-7.7369840">
        <ele>618.8</ele>
        <time>2019-08-17T11:54:09Z</time>
      </trkpt>
      <trkpt lat="42.0816620" lon="-7.7370170">
        <ele>618.7</ele>
        <time>2019-08-17T11:54:10Z</time>
      </trkpt>
      <trkpt lat="42.0817200" lon="-7.7370500">
        <ele>618.7</ele>
        <time>2019-08-17T11:54:11Z</time>
      </trkpt>
      <trkpt lat="42.0817770" lon="-7.7370840">
        <ele>618.7</ele>
        <time>2019-08-17T11:54:12Z</time>
      </trkpt>
      <trkpt lat="42.0818340" lon="-7.7371170">
        <ele>618.6</ele>
        <time>2019-08-17T11:54:13Z</time>
      </trkpt>
      <trkpt lat="42.0818910" lon="-7.7371500">
        <ele>618.6</ele>
        <time>2019-08-17T11:54:14Z</time>
      </trkpt>
      <trkpt lat="42.0819480" lon="-7.7371840">
        <ele>618.6</ele>
        <time>2019-08-17T11:54:15Z</time>
      </trkpt>
      <trkpt lat="42.0820040" lon="-7.7372170">
        <ele>618.6</ele>
        <time>2019-08-17T11:54:16Z</time>
      </trkpt>
      <trkpt lat="42.0820610" lon="-7.7372510">
        <ele>618.6</ele>
        <time>2019-08-17T11:54:17Z</time>
      </trkpt>
      <trkpt lat="42.0821170" lon="-7.7372850">
        <ele>618.6</ele>
        <time>2019-08-17T11:54:18Z</time>
      </trkpt>
      <trkpt lat="42.0821730" lon="-7.7373180">
        <ele>618.6</ele>
        <time>2019-08-17T11:54:19Z</time>
      </trkpt>
      <trkpt lat="42.0822290" lon="-7.7373520">
        <ele>618.6</ele>
        <time>2019-08-17T11:54:20Z</time>
      </trkpt>
      <trkpt lat="42.0822850" lon="-7.7373860">
        <ele>618.6</ele>
        <time>2019-08-17T11:54:21Z</time>
      </trkpt>
      <trkpt lat="42.0823410" lon="-7.7374190">
        <ele>618.6</ele>
        <time>2019-08-17T11:54:22Z</time>
      </trkpt>
      <trkpt lat="42.0823960" lon="-7.7374530">
        <ele>618.6</ele>
        <time>2019-08-17T11:54:23Z</time>
      </trkpt>
      <trkpt lat="42.0824510" lon="-7.7374860">
        <ele>618.6</ele>
        <time>2019-08-17T11:54:24Z</time>
      </trkpt>
      <trkpt lat="42.0825060" lon="-7.7375200">
        <ele>618.6</ele>
        <time>2019-08-17T11:54:25Z</time>
      </trkpt>
      <trkpt lat="42.0825610" lon="-7.7375530">
        <ele>618.6</ele>
        <time>2019-08-17T11:54:26Z</time>
      </trkpt>
      <trkpt lat="42.0826160" lon="-7.7375870">
        <ele>618.6</ele>
        <time>2019-08-17T11:54:27Z</time>
      </trkpt>
      <trkpt lat="42.0826720" lon="-7.7376210">
        <ele>618.6</ele>
        <time>2019-08-17T11:54:28Z</time>
      </trkpt>
      <trkpt lat="42.0827280" lon="-7.7376550">
        <ele>618.7</ele>
        <time>2019-08-17T11:54:29Z</time>
      </trkpt>
      <trkpt lat="42.0827840" lon="-7.7376890">
        <ele>618.7</ele>
        <time>2019-08-17T11:54:30Z</time>
      </trkpt>
      <trkpt lat="42.0828410" lon="-7.7377230">
        <ele>618.7</ele>
        <time>2019-08-17T11:54:31Z</time>
      </trkpt>
      <trkpt lat="42.0828980" lon="-7.7377580">
        <ele>618.7</ele>
        <time>2019-08-17T11:54:32Z</time>
      </trkpt>
      <trkpt lat="42.0829550" lon="-7.7377920">
        <ele>618.7</ele>
        <time>2019-08-17T11:54:33Z</time>
      </trkpt>
      <trkpt lat="42.0830130" lon="-7.7378270">
        <ele>618.7</ele>
        <time>2019-08-17T11:54:34Z</time>
      </trkpt>
      <trkpt lat="42.0830710" lon="-7.7378620">
        <ele>618.7</ele>
        <time>2019-08-17T11:54:35Z</time>
      </trkpt>
      <trkpt lat="42.0831280" lon="-7.7378960">
        <ele>618.7</ele>
        <time>2019-08-17T11:54:36Z</time>
      </trkpt>
      <trkpt lat="42.0831860" lon="-7.7379310">
        <ele>618.7</ele>
        <time>2019-08-17T11:54:37Z</time>
      </trkpt>
      <trkpt lat="42.0832430" lon="-7.7379650">
        <ele>618.6</ele>
        <time>2019-08-17T11:54:38Z</time>
      </trkpt>
      <trkpt lat="42.0833000" lon="-7.7380000">
        <ele>618.6</ele>
        <time>2019-08-17T11:54:39Z</time>
      </trkpt>
      <trkpt lat="42.0833570" lon="-7.7380340">
        <ele>618.6</ele>
        <time>2019-08-17T11:54:40Z</time>
      </trkpt>
      <trkpt lat="42.0834140" lon="-7.7380680">
        <ele>618.6</ele>
        <time>2019-08-17T11:54:41Z</time>
      </trkpt>
      <trkpt lat="42.0834700" lon="-7.7381020">
        <ele>618.6</ele>
        <time>2019-08-17T11:54:42Z</time>
      </trkpt>
      <trkpt lat="42.0835260" lon="-7.7381360">
        <ele>618.6</ele>
        <time>2019-08-17T11:54:43Z</time>
      </trkpt>
      <trkpt lat="42.0835820" lon="-7.7381690">
        <ele>618.5</ele>
        <time>2019-08-17T11:54:44Z</time>
      </trkpt>
      <trkpt lat="42.0836380" lon="-7.7382030">
        <ele>618.5</ele>
        <time>2019-08-17T11:54:45Z</time>
      </trkpt>
      <trkpt lat="42.0836930" lon="-7.7382360">
        <ele>618.5</ele>
        <time>2019-08-17T11:54:46Z</time>
      </trkpt>
      <trkpt lat="42.0837480" lon="-7.7382690">
        <ele>618.4</ele>
        <time>2019-08-17T11:54:47Z</time>
      </trkpt>
      <trkpt lat="42.0838030" lon="-7.7383020">
        <ele>618.4</ele>
        <time>2019-08-17T11:54:48Z</time>
      </trkpt>
      <trkpt lat="42.0838580" lon="-7.7383340">
        <ele>618.4</ele>
        <time>2019-08-17T11:54:49Z</time>
      </trkpt>
      <trkpt lat="42.0839120" lon="-7.7383670">
        <ele>618.4</ele>
        <time>2019-08-17T11:54:50Z</time>
      </trkpt>
      <trkpt lat="42.0839660" lon="-7.7383990">
        <ele>618.4</ele>
        <time>2019-08-17T11:54:51Z</time>
      </trkpt>
      <trkpt lat="42.0840200" lon="-7.7384310">
        <ele>618.4</ele>
        <time>2019-08-17T11:54:52Z</time>
      </trkpt>
      <trkpt lat="42.0840730" lon="-7.7384620">
        <ele>618.4</ele>
        <time>2019-08-17T11:54:53Z</time>
      </trkpt>
      <trkpt lat="42.0841260" lon="-7.7384940">
        <ele>618.4</ele>
        <time>2019-08-17T11:54:54Z</time>
      </trkpt>
      <trkpt lat="42.0841790" lon="-7.7385250">
        <ele>618.4</ele>
        <time>2019-08-17T11:54:55Z</time>
      </trkpt>
      <trkpt lat="42.0842320" lon="-7.7385560">
        <ele>618.4</ele>
        <time>2019-08-17T11:54:56Z</time>
      </trkpt>
      <trkpt lat="42.0842840" lon="-7.7385870">
        <ele>618.4</ele>
        <time>2019-08-17T11:54:57Z</time>
      </trkpt>
      <trkpt lat="42.0843370" lon="-7.7386180">
        <ele>618.4</ele>
        <time>2019-08-17T11:54:58Z</time>
      </trkpt>
      <trkpt lat="42.0843890" lon="-7.7386480">
        <ele>618.4</ele>
        <time>2019-08-17T11:54:59Z</time>
      </trkpt>
      <trkpt lat="42.0844410" lon="-7.7386790">
        <ele>618.4</ele>
        <time>2019-08-17T11:55:00Z</time>
      </trkpt>
      <trkpt lat="42.0844930" lon="-7.7387090">
        <ele>618.4</ele>
        <time>2019-08-17T11:55:01Z</time>
      </trkpt>
      <trkpt lat="42.0845450" lon="-7.7387390">
        <ele>618.4</ele>
        <time>2019-08-17T11:55:02Z</time>
      </trkpt>
      <trkpt lat="42.0845960" lon="-7.7387700">
        <ele>618.4</ele>
        <time>2019-08-17T11:55:03Z</time>
      </trkpt>
      <trkpt lat="42.0846480" lon="-7.7388000">
        <ele>618.4</ele>
        <time>2019-08-17T11:55:04Z</time>
      </trkpt>
      <trkpt lat="42.0847000" lon="-7.7388300">
        <ele>618.4</ele>
        <time>2019-08-17T11:55:05Z</time>
      </trkpt>
      <trkpt lat="42.0847510" lon="-7.7388610">
        <ele>618.3</ele>
        <time>2019-08-17T11:55:06Z</time>
      </trkpt>
      <trkpt lat="42.0848030" lon="-7.7388910">
        <ele>618.1</ele>
        <time>2019-08-17T11:55:07Z</time>
      </trkpt>
      <trkpt lat="42.0848550" lon="-7.7389220">
        <ele>618.0</ele>
        <time>2019-08-17T11:55:08Z</time>
      </trkpt>
      <trkpt lat="42.0849070" lon="-7.7389520">
        <ele>617.8</ele>
        <time>2019-08-17T11:55:09Z</time>
      </trkpt>
      <trkpt lat="42.0849590" lon="-7.7389830">
        <ele>617.7</ele>
        <time>2019-08-17T11:55:10Z</time>
      </trkpt>
      <trkpt lat="42.0850110" lon="-7.7390140">
        <ele>617.6</ele>
        <time>2019-08-17T11:55:11Z</time>
      </trkpt>
      <trkpt lat="42.0850630" lon="-7.7390450">
        <ele>617.4</ele>
        <time>2019-08-17T11:55:12Z</time>
      </trkpt>
      <trkpt lat="42.0851150" lon="-7.7390760">
        <ele>617.3</ele>
        <time>2019-08-17T11:55:13Z</time>
      </trkpt>
      <trkpt lat="42.0851680" lon="-7.7391070">
        <ele>617.2</ele>
        <time>2019-08-17T11:55:14Z</time>
      </trkpt>
      <trkpt lat="42.0852210" lon="-7.7391390">
        <ele>617.1</ele>
        <time>2019-08-17T11:55:15Z</time>
      </trkpt>
      <trkpt lat="42.0852740" lon="-7.7391700">
        <ele>617.0</ele>
        <time>2019-08-17T11:55:16Z</time>
      </trkpt>
      <trkpt lat="42.0853270" lon="-7.7392020">
        <ele>616.9</ele>
        <time>2019-08-17T11:55:17Z</time>
      </trkpt>
      <trkpt lat="42.0853810" lon="-7.7392340">
        <ele>616.9</ele>
        <time>2019-08-17T11:55:18Z</time>
      </trkpt>
      <trkpt lat="42.0854350" lon="-7.7392670">
        <ele>616.8</ele>
        <time>2019-08-17T11:55:19Z</time>
      </trkpt>
      <trkpt lat="42.0854890" lon="-7.7392990">
        <ele>616.8</ele>
        <time>2019-08-17T11:55:20Z</time>
      </trkpt>
      <trkpt lat="42.0855440" lon="-7.7393320">
        <ele>616.8</ele>
        <time>2019-08-17T11:55:21Z</time>
      </trkpt>
      <trkpt lat="42.0855990" lon="-7.7393660">
        <ele>616.8</ele>
        <time>2019-08-17T11:55:22Z</time>
      </trkpt>
      <trkpt lat="42.0856550" lon="-7.7393990">
        <ele>616.8</ele>
        <time>2019-08-17T11:55:23Z</time>
      </trkpt>
      <trkpt lat="42.0857110" lon="-7.7394330">
        <ele>616.8</ele>
        <time>2019-08-17T11:55:24Z</time>
      </trkpt>
      <trkpt lat="42.0857680" lon="-7.7394670">
        <ele>616.8</ele>
        <time>2019-08-17T11:55:25Z</time>
      </trkpt>
      <trkpt lat="42.0858250" lon="-7.7395010">
        <ele>616.9</ele>
        <time>2019-08-17T11:55:26Z</time>
      </trkpt>
      <trkpt lat="42.0858820" lon="-7.7395360">
        <ele>616.9</ele>
        <time>2019-08-17T11:55:27Z</time>
      </trkpt>
      <trkpt lat="42.0859400" lon="-7.7395710">
        <ele>616.9</ele>
        <time>2019-08-17T11:55:28Z</time>
      </trkpt>
      <trkpt lat="42.0859980" lon="-7.7396060">
        <ele>617.0</ele>
        <time>2019-08-17T11:55:29Z</time>
      </trkpt>
      <trkpt lat="42.0860550" lon="-7.7396410">
        <ele>617.0</ele>
        <time>2019-08-17T11:55:30Z</time>
      </trkpt>
      <trkpt lat="42.0861130" lon="-7.7396760">
        <ele>617.0</ele>
        <time>2019-08-17T11:55:31Z</time>
      </trkpt>
      <trkpt lat="42.0861700" lon="-7.7397110">
        <ele>617.0</ele>
        <time>2019-08-17T11:55:32Z</time>
      </trkpt>
      <trkpt lat="42.0862260" lon="-7.7397460">
        <ele>617.0</ele>
        <time>2019-08-17T11:55:33Z</time>
      </trkpt>
      <trkpt lat="42.0862830" lon="-7.7397800">
        <ele>617.0</ele>
        <time>2019-08-17T11:55:34Z</time>
      </trkpt>
      <trkpt lat="42.0863390" lon="-7.7398150">
        <ele>616.9</ele>
        <time>2019-08-17T11:55:35Z</time>
      </trkpt>
      <trkpt lat="42.0863950" lon="-7.7398500">
        <ele>616.9</ele>
        <time>2019-08-17T11:55:36Z</time>
      </trkpt>
      <trkpt lat="42.0864510" lon="-7.7398840">
        <ele>616.9</ele>
        <time>2019-08-17T11:55:37Z</time>
      </trkpt>
      <trkpt lat="42.0865060" lon="-7.7399190">
        <ele>616.8</ele>
        <time>2019-08-17T11:55:38Z</time>
      </trkpt>
      <trkpt lat="42.0865620" lon="-7.7399530">
        <ele>616.8</ele>
        <time>2019-08-17T11:55:39Z</time>
      </trkpt>
      <trkpt lat="42.0866170" lon="-7.7399870">
        <ele>616.8</ele>
        <time>2019-08-17T11:55:40Z</time>
      </trkpt>
      <trkpt lat="42.0866720" lon="-7.7400220">
        <ele>616.7</ele>
        <time>2019-08-17T11:55:41Z</time>
      </trkpt>
      <trkpt lat="42.0867280" lon="-7.7400560">
        <ele>616.7</ele>
        <time>2019-08-17T11:55:42Z</time>
      </trkpt>
      <trkpt lat="42.0867830" lon="-7.7400900">
        <ele>616.7</ele>
        <time>2019-08-17T11:55:43Z</time>
      </trkpt>
      <trkpt lat="42.0868380" lon="-7.7401240">
        <ele>616.7</ele>
        <time>2019-08-17T11:55:44Z</time>
      </trkpt>
      <trkpt lat="42.0868940" lon="-7.7401580">
        <ele>616.7</ele>
        <time>2019-08-17T11:55:45Z</time>
      </trkpt>
      <trkpt lat="42.0869490" lon="-7.7401920">
        <ele>616.7</ele>
        <time>2019-08-17T11:55:46Z</time>
      </trkpt>
      <trkpt lat="42.0870040" lon="-7.7402250">
        <ele>616.7</ele>
        <time>2019-08-17T11:55:47Z</time>
      </trkpt>
      <trkpt lat="42.0870600" lon="-7.7402590">
        <ele>616.7</ele>
        <time>2019-08-17T11:55:48Z</time>
      </trkpt>
      <trkpt lat="42.0871150" lon="-7.7402920">
        <ele>616.8</ele>
        <time>2019-08-17T11:55:49Z</time>
      </trkpt>
      <trkpt lat="42.0871700" lon="-7.7403250">
        <ele>616.8</ele>
        <time>2019-08-17T11:55:50Z</time>
      </trkpt>
      <trkpt lat="42.0872250" lon="-7.7403580">
        <ele>616.8</ele>
        <time>2019-08-17T11:55:51Z</time>
      </trkpt>
      <trkpt lat="42.0872800" lon="-7.7403910">
        <ele>616.9</ele>
        <time>2019-08-17T11:55:52Z</time>
      </trkpt>
      <trkpt lat="42.0873350" lon="-7.7404240">
        <ele>616.9</ele>
        <time>2019-08-17T11:55:53Z</time>
      </trkpt>
      <trkpt lat="42.0873880" lon="-7.7404570">
        <ele>617.0</ele>
        <time>2019-08-17T11:55:54Z</time>
      </trkpt>
      <trkpt lat="42.0874420" lon="-7.7404890">
        <ele>617.0</ele>
        <time>2019-08-17T11:55:55Z</time>
      </trkpt>
      <trkpt lat="42.0874940" lon="-7.7405220">
        <ele>617.1</ele>
        <time>2019-08-17T11:55:56Z</time>
      </trkpt>
      <trkpt lat="42.0875460" lon="-7.7405540">
        <ele>617.2</ele>
        <time>2019-08-17T11:55:57Z</time>
      </trkpt>
      <trkpt lat="42.0875980" lon="-7.7405860">
        <ele>617.2</ele>
        <time>2019-08-17T11:55:58Z</time>
      </trkpt>
      <trkpt lat="42.0876490" lon="-7.7406180">
        <ele>617.3</ele>
        <time>2019-08-17T11:55:59Z</time>
      </trkpt>
      <trkpt lat="42.0877000" lon="-7.7406500">
        <ele>617.4</ele>
        <time>2019-08-17T11:56:00Z</time>
      </trkpt>
      <trkpt lat="42.0877510" lon="-7.7406810">
        <ele>617.4</ele>
        <time>2019-08-17T11:56:01Z</time>
      </trkpt>
      <trkpt lat="42.0878020" lon="-7.7407130">
        <ele>617.5</ele>
        <time>2019-08-17T11:56:02Z</time>
      </trkpt>
      <trkpt lat="42.0878530" lon="-7.7407430">
        <ele>617.6</ele>
        <time>2019-08-17T11:56:03Z</time>
      </trkpt>
      <trkpt lat="42.0879040" lon="-7.7407740">
        <ele>617.7</ele>
        <time>2019-08-17T11:56:04Z</time>
      </trkpt>
      <trkpt lat="42.0879550" lon="-7.7408050">
        <ele>617.7</ele>
        <time>2019-08-17T11:56:05Z</time>
      </trkpt>
      <trkpt lat="42.0880070" lon="-7.7408350">
        <ele>617.8</ele>
        <time>2019-08-17T11:56:06Z</time>
      </trkpt>
      <trkpt lat="42.0880590" lon="-7.7408650">
        <ele>617.9</ele>
        <time>2019-08-17T11:56:07Z</time>
      </trkpt>
      <trkpt lat="42.0881110" lon="-7.7408960">
        <ele>618.0</ele>
        <time>2019-08-17T11:56:08Z</time>
      </trkpt>
      <trkpt lat="42.0881630" lon="-7.7409260">
        <ele>618.0</ele>
        <time>2019-08-17T11:56:09Z</time>
      </trkpt>
      <trkpt lat="42.0882160" lon="-7.7409570">
        <ele>618.1</ele>
        <time>2019-08-17T11:56:10Z</time>
      </trkpt>
      <trkpt lat="42.0882700" lon="-7.7409880">
        <ele>618.1</ele>
        <time>2019-08-17T11:56:11Z</time>
      </trkpt>
      <trkpt lat="42.0883230" lon="-7.7410190">
        <ele>618.2</ele>
        <time>2019-08-17T11:56:12Z</time>
      </trkpt>
      <trkpt lat="42.0883770" lon="-7.7410500">
        <ele>618.2</ele>
        <time>2019-08-17T11:56:13Z</time>
      </trkpt>
      <trkpt lat="42.0884320" lon="-7.7410820">
        <ele>618.2</ele>
        <time>2019-08-17T11:56:14Z</time>
      </trkpt>
      <trkpt lat="42.0884860" lon="-7.7411140">
        <ele>618.2</ele>
        <time>2019-08-17T11:56:15Z</time>
      </trkpt>
      <trkpt lat="42.0885410" lon="-7.7411460">
        <ele>618.2</ele>
        <time>2019-08-17T11:56:16Z</time>
      </trkpt>
      <trkpt lat="42.0885960" lon="-7.7411780">
        <ele>618.2</ele>
        <time>2019-08-17T11:56:17Z</time>
      </trkpt>
      <trkpt lat="42.0886510" lon="-7.7412110">
        <ele>618.1</ele>
        <time>2019-08-17T11:56:18Z</time>
      </trkpt>
      <trkpt lat="42.0887060" lon="-7.7412430">
        <ele>618.1</ele>
        <time>2019-08-17T11:56:19Z</time>
      </trkpt>
      <trkpt lat="42.0887610" lon="-7.7412760">
        <ele>618.0</ele>
        <time>2019-08-17T11:56:20Z</time>
      </trkpt>
      <trkpt lat="42.0888160" lon="-7.7413080">
        <ele>618.0</ele>
        <time>2019-08-17T11:56:21Z</time>
      </trkpt>
      <trkpt lat="42.0888710" lon="-7.7413410">
        <ele>617.9</ele>
        <time>2019-08-17T11:56:22Z</time>
      </trkpt>
      <trkpt lat="42.0889260" lon="-7.7413740">
        <ele>617.8</ele>
        <time>2019-08-17T11:56:23Z</time>
      </trkpt>
      <trkpt lat="42.0889800" lon="-7.7414070">
        <ele>617.8</ele>
        <time>2019-08-17T11:56:24Z</time>
      </trkpt>
      <trkpt lat="42.0890350" lon="-7.7414400">
        <ele>617.7</ele>
        <time>2019-08-17T11:56:25Z</time>
      </trkpt>
      <trkpt lat="42.0890890" lon="-7.7414730">
        <ele>617.7</ele>
        <time>2019-08-17T11:56:26Z</time>
      </trkpt>
      <trkpt lat="42.0891430" lon="-7.7415060">
        <ele>617.6</ele>
        <time>2019-08-17T11:56:27Z</time>
      </trkpt>
      <trkpt lat="42.0891970" lon="-7.7415390">
        <ele>617.6</ele>
        <time>2019-08-17T11:56:28Z</time>
      </trkpt>
      <trkpt lat="42.0892510" lon="-7.7415720">
        <ele>617.5</ele>
        <time>2019-08-17T11:56:29Z</time>
      </trkpt>
      <trkpt lat="42.0893040" lon="-7.7416050">
        <ele>617.5</ele>
        <time>2019-08-17T11:56:30Z</time>
      </trkpt>
      <trkpt lat="42.0893580" lon="-7.7416390">
        <ele>617.4</ele>
        <time>2019-08-17T11:56:31Z</time>
      </trkpt>
      <trkpt lat="42.0894130" lon="-7.7416720">
        <ele>617.4</ele>
        <time>2019-08-17T11:56:32Z</time>
      </trkpt>
      <trkpt lat="42.0894680" lon="-7.7417060">
        <ele>617.3</ele>
        <time>2019-08-17T11:56:33Z</time>
      </trkpt>
      <trkpt lat="42.0895240" lon="-7.7417400">
        <ele>617.3</ele>
        <time>2019-08-17T11:56:34Z</time>
      </trkpt>
      <trkpt lat="42.0895800" lon="-7.7417740">
        <ele>617.2</ele>
        <time>2019-08-17T11:56:35Z</time>
      </trkpt>
      <trkpt lat="42.0896370" lon="-7.7418090">
        <ele>617.1</ele>
        <time>2019-08-17T11:56:36Z</time>
      </trkpt>
      <trkpt lat="42.0896940" lon="-7.7418440">
        <ele>617.1</ele>
        <time>2019-08-17T11:56:37Z</time>
      </trkpt>
      <trkpt lat="42.0897520" lon="-7.7418780">
        <ele>617.0</ele>
        <time>2019-08-17T11:56:38Z</time>
      </trkpt>
      <trkpt lat="42.0898100" lon="-7.7419130">
        <ele>617.0</ele>
        <time>2019-08-17T11:56:39Z</time>
      </trkpt>
      <trkpt lat="42.0898690" lon="-7.7419480">
        <ele>616.9</ele>
        <time>2019-08-17T11:56:40Z</time>
      </trkpt>
      <trkpt lat="42.0899270" lon="-7.7419820">
        <ele>616.9</ele>
        <time>2019-08-17T11:56:41Z</time>
      </trkpt>
      <trkpt lat="42.0899860" lon="-7.7420170">
        <ele>616.8</ele>
        <time>2019-08-17T11:56:42Z</time>
      </trkpt>
      <trkpt lat="42.0900440" lon="-7.7420510">
        <ele>616.8</ele>
        <time>2019-08-17T11:56:43Z</time>
      </trkpt>
      <trkpt lat="42.0901020" lon="-7.7420860">
        <ele>616.8</ele>
        <time>2019-08-17T11:56:44Z</time>
      </trkpt>
      <trkpt lat="42.0901600" lon="-7.7421200">
        <ele>616.8</ele>
        <time>2019-08-17T11:56:45Z</time>
      </trkpt>
      <trkpt lat="42.0902180" lon="-7.7421530">
        <ele>616.8</ele>
        <time>2019-08-17T11:56:46Z</time>
      </trkpt>
      <trkpt lat="42.0902750" lon="-7.7421870">
        <ele>616.7</ele>
        <time>2019-08-17T11:56:47Z</time>
      </trkpt>
      <trkpt lat="42.0903320" lon="-7.7422210">
        <ele>616.7</ele>
        <time>2019-08-17T11:56:48Z</time>
      </trkpt>
      <trkpt lat="42.0903890" lon="-7.7422540">
        <ele>616.7</ele>
        <time>2019-08-17T11:56:49Z</time>
      </trkpt>
      <trkpt lat="42.0904450" lon="-7.7422880">
        <ele>616.7</ele>
        <time>2019-08-17T11:56:50Z</time>
      </trkpt>
      <trkpt lat="42.0905000" lon="-7.7423210">
        <ele>616.6</ele>
        <time>2019-08-17T11:56:51Z</time>
      </trkpt>
      <trkpt lat="42.0905550" lon="-7.7423540">
        <ele>616.6</ele>
        <time>2019-08-17T11:56:52Z</time>
      </trkpt>
      <trkpt lat="42.0906100" lon="-7.7423870">
        <ele>616.6</ele>
        <time>2019-08-17T11:56:53Z</time>
      </trkpt>
      <trkpt lat="42.0906650" lon="-7.7424190">
        <ele>616.5</ele>
        <time>2019-08-17T11:56:54Z</time>
      </trkpt>
      <trkpt lat="42.0907200" lon="-7.7424520">
        <ele>616.5</ele>
        <time>2019-08-17T11:56:55Z</time>
      </trkpt>
      <trkpt lat="42.0907740" lon="-7.7424850">
        <ele>616.4</ele>
        <time>2019-08-17T11:56:56Z</time>
      </trkpt>
      <trkpt lat="42.0908280" lon="-7.7425170">
        <ele>616.4</ele>
        <time>2019-08-17T11:56:57Z</time>
      </trkpt>
      <trkpt lat="42.0908830" lon="-7.7425500">
        <ele>616.3</ele>
        <time>2019-08-17T11:56:58Z</time>
      </trkpt>
      <trkpt lat="42.0909370" lon="-7.7425820">
        <ele>616.3</ele>
        <time>2019-08-17T11:56:59Z</time>
      </trkpt>
      <trkpt lat="42.0909910" lon="-7.7426150">
        <ele>616.2</ele>
        <time>2019-08-17T11:57:00Z</time>
      </trkpt>
      <trkpt lat="42.0910460" lon="-7.7426470">
        <ele>616.2</ele>
        <time>2019-08-17T11:57:01Z</time>
      </trkpt>
      <trkpt lat="42.0911000" lon="-7.7426800">
        <ele>616.2</ele>
        <time>2019-08-17T11:57:02Z</time>
      </trkpt>
      <trkpt lat="42.0911550" lon="-7.7427120">
        <ele>616.2</ele>
        <time>2019-08-17T11:57:03Z</time>
      </trkpt>
      <trkpt lat="42.0912090" lon="-7.7427450">
        <ele>616.2</ele>
        <time>2019-08-17T11:57:04Z</time>
      </trkpt>
      <trkpt lat="42.0912640" lon="-7.7427770">
        <ele>616.2</ele>
        <time>2019-08-17T11:57:05Z</time>
      </trkpt>
      <trkpt lat="42.0913190" lon="-7.7428100">
        <ele>616.2</ele>
        <time>2019-08-17T11:57:06Z</time>
      </trkpt>
      <trkpt lat="42.0913730" lon="-7.7428420">
        <ele>616.2</ele>
        <time>2019-08-17T11:57:07Z</time>
      </trkpt>
      <trkpt lat="42.0914280" lon="-7.7428750">
        <ele>616.2</ele>
        <time>2019-08-17T11:57:08Z</time>
      </trkpt>
      <trkpt lat="42.0914830" lon="-7.7429080">
        <ele>616.2</ele>
        <time>2019-08-17T11:57:09Z</time>
      </trkpt>
      <trkpt lat="42.0915370" lon="-7.7429400">
        <ele>616.2</ele>
        <time>2019-08-17T11:57:10Z</time>
      </trkpt>
      <trkpt lat="42.0915920" lon="-7.7429730">
        <ele>616.2</ele>
        <time>2019-08-17T11:57:11Z</time>
      </trkpt>
      <trkpt lat="42.0916470" lon="-7.7430060">
        <ele>616.2</ele>
        <time>2019-08-17T11:57:12Z</time>
      </trkpt>
      <trkpt lat="42.0917020" lon="-7.7430390">
        <ele>616.2</ele>
        <time>2019-08-17T11:57:13Z</time>
      </trkpt>
      <trkpt lat="42.0917570" lon="-7.7430720">
        <ele>616.2</ele>
        <time>2019-08-17T11:57:14Z</time>
      </trkpt>
      <trkpt lat="42.0918120" lon="-7.7431060">
        <ele>616.2</ele>
        <time>2019-08-17T11:57:15Z</time>
      </trkpt>
      <trkpt lat="42.0918670" lon="-7.7431390">
        <ele>616.2</ele>
        <time>2019-08-17T11:57:16Z</time>
      </trkpt>
      <trkpt lat="42.0919220" lon="-7.7431720">
        <ele>616.3</ele>
        <time>2019-08-17T11:57:17Z</time>
      </trkpt>
      <trkpt lat="42.0919770" lon="-7.7432060">
        <ele>616.2</ele>
        <time>2019-08-17T11:57:18Z</time>
      </trkpt>
      <trkpt lat="42.0920320" lon="-7.7432390">
        <ele>616.2</ele>
        <time>2019-08-17T11:57:19Z</time>
      </trkpt>
      <trkpt lat="42.0920870" lon="-7.7432730">
        <ele>616.2</ele>
        <time>2019-08-17T11:57:20Z</time>
      </trkpt>
      <trkpt lat="42.0921420" lon="-7.7433060">
        <ele>616.2</ele>
        <time>2019-08-17T11:57:21Z</time>
      </trkpt>
      <trkpt lat="42.0921970" lon="-7.7433390">
        <ele>616.2</ele>
        <time>2019-08-17T11:57:22Z</time>
      </trkpt>
      <trkpt lat="42.0922510" lon="-7.7433730">
        <ele>616.2</ele>
        <time>2019-08-17T11:57:23Z</time>
      </trkpt>
      <trkpt lat="42.0923060" lon="-7.7434060">
        <ele>616.2</ele>
        <time>2019-08-17T11:57:24Z</time>
      </trkpt>
      <trkpt lat="42.0923610" lon="-7.7434400">
        <ele>616.2</ele>
        <time>2019-08-17T11:57:25Z</time>
      </trkpt>
      <trkpt lat="42.0924150" lon="-7.7434730">
        <ele>616.3</ele>
        <time>2019-08-17T11:57:26Z</time>
      </trkpt>
      <trkpt lat="42.0924700" lon="-7.7435060">
        <ele>616.4</ele>
        <time>2019-08-17T11:57:27Z</time>
      </trkpt>
      <trkpt lat="42.0925240" lon="-7.7435400">
        <ele>616.5</ele>
        <time>2019-08-17T11:57:28Z</time>
      </trkpt>
      <trkpt lat="42.0925790" lon="-7.7435730">
        <ele>616.5</ele>
        <time>2019-08-17T11:57:29Z</time>
      </trkpt>
      <trkpt lat="42.0926330" lon="-7.7436060">
        <ele>616.6</ele>
        <time>2019-08-17T11:57:30Z</time>
      </trkpt>
      <trkpt lat="42.0926870" lon="-7.7436390">
        <ele>616.6</ele>
        <time>2019-08-17T11:57:31Z</time>
      </trkpt>
      <trkpt lat="42.0927410" lon="-7.7436720">
        <ele>616.6</ele>
        <time>2019-08-17T11:57:32Z</time>
      </trkpt>
      <trkpt lat="42.0927960" lon="-7.7437050">
        <ele>616.7</ele>
        <time>2019-08-17T11:57:33Z</time>
      </trkpt>
      <trkpt lat="42.0928500" lon="-7.7437380">
        <ele>616.7</ele>
        <time>2019-08-17T11:57:34Z</time>
      </trkpt>
      <trkpt lat="42.0929040" lon="-7.7437720">
        <ele>616.7</ele>
        <time>2019-08-17T11:57:35Z</time>
      </trkpt>
      <trkpt lat="42.0929590" lon="-7.7438050">
        <ele>616.8</ele>
        <time>2019-08-17T11:57:36Z</time>
      </trkpt>
      <trkpt lat="42.0930140" lon="-7.7438390">
        <ele>616.9</ele>
        <time>2019-08-17T11:57:37Z</time>
      </trkpt>
      <trkpt lat="42.0930690" lon="-7.7438730">
        <ele>617.0</ele>
        <time>2019-08-17T11:57:38Z</time>
      </trkpt>
      <trkpt lat="42.0931250" lon="-7.7439060">
        <ele>617.1</ele>
        <time>2019-08-17T11:57:39Z</time>
      </trkpt>
      <trkpt lat="42.0931800" lon="-7.7439410">
        <ele>617.1</ele>
        <time>2019-08-17T11:57:40Z</time>
      </trkpt>
      <trkpt lat="42.0932370" lon="-7.7439750">
        <ele>617.1</ele>
        <time>2019-08-17T11:57:41Z</time>
      </trkpt>
      <trkpt lat="42.0932930" lon="-7.7440100">
        <ele>617.0</ele>
        <time>2019-08-17T11:57:42Z</time>
      </trkpt>
      <trkpt lat="42.0933500" lon="-7.7440450">
        <ele>616.9</ele>
        <time>2019-08-17T11:57:43Z</time>
      </trkpt>
      <trkpt lat="42.0934080" lon="-7.7440800">
        <ele>616.8</ele>
        <time>2019-08-17T11:57:44Z</time>
      </trkpt>
      <trkpt lat="42.0934660" lon="-7.7441160">
        <ele>616.6</ele>
        <time>2019-08-17T11:57:45Z</time>
      </trkpt>
      <trkpt lat="42.0935240" lon="-7.7441520">
        <ele>616.5</ele>
        <time>2019-08-17T11:57:46Z</time>
      </trkpt>
      <trkpt lat="42.0935830" lon="-7.7441880">
        <ele>616.5</ele>
        <time>2019-08-17T11:57:47Z</time>
      </trkpt>
      <trkpt lat="42.0936400" lon="-7.7442240">
        <ele>616.7</ele>
        <time>2019-08-17T11:57:48Z</time>
      </trkpt>
      <trkpt lat="42.0936970" lon="-7.7442590">
        <ele>616.8</ele>
        <time>2019-08-17T11:57:49Z</time>
      </trkpt>
      <trkpt lat="42.0937530" lon="-7.7442930">
        <ele>616.9</ele>
        <time>2019-08-17T11:57:50Z</time>
      </trkpt>
      <trkpt lat="42.0938080" lon="-7.7443270">
        <ele>616.9</ele>
        <time>2019-08-17T11:57:51Z</time>
      </trkpt>
      <trkpt lat="42.0938620" lon="-7.7443600">
        <ele>617.1</ele>
        <time>2019-08-17T11:57:52Z</time>
      </trkpt>
      <trkpt lat="42.0939150" lon="-7.7443920">
        <ele>617.1</ele>
        <time>2019-08-17T11:57:53Z</time>
      </trkpt>
      <trkpt lat="42.0939680" lon="-7.7444230">
        <ele>617.1</ele>
        <time>2019-08-17T11:57:54Z</time>
      </trkpt>
      <trkpt lat="42.0940200" lon="-7.7444550">
        <ele>617.1</ele>
        <time>2019-08-17T11:57:55Z</time>
      </trkpt>
      <trkpt lat="42.0940720" lon="-7.7444870">
        <ele>617.1</ele>
        <time>2019-08-17T11:57:56Z</time>
      </trkpt>
      <trkpt lat="42.0941250" lon="-7.7445190">
        <ele>617.2</ele>
        <time>2019-08-17T11:57:57Z</time>
      </trkpt>
      <trkpt lat="42.0941780" lon="-7.7445530">
        <ele>617.2</ele>
        <time>2019-08-17T11:57:58Z</time>
      </trkpt>
      <trkpt lat="42.0942310" lon="-7.7445860">
        <ele>617.3</ele>
        <time>2019-08-17T11:57:59Z</time>
      </trkpt>
      <trkpt lat="42.0942850" lon="-7.7446190">
        <ele>617.3</ele>
        <time>2019-08-17T11:58:00Z</time>
      </trkpt>
      <trkpt lat="42.0943400" lon="-7.7446530">
        <ele>617.4</ele>
        <time>2019-08-17T11:58:01Z</time>
      </trkpt>
      <trkpt lat="42.0943950" lon="-7.7446860">
        <ele>617.4</ele>
        <time>2019-08-17T11:58:02Z</time>
      </trkpt>
      <trkpt lat="42.0944510" lon="-7.7447180">
        <ele>617.5</ele>
        <time>2019-08-17T11:58:03Z</time>
      </trkpt>
      <trkpt lat="42.0945060" lon="-7.7447510">
        <ele>617.5</ele>
        <time>2019-08-17T11:58:04Z</time>
      </trkpt>
      <trkpt lat="42.0945620" lon="-7.7447830">
        <ele>617.6</ele>
        <time>2019-08-17T11:58:05Z</time>
      </trkpt>
      <trkpt lat="42.0946170" lon="-7.7448160">
        <ele>617.6</ele>
        <time>2019-08-17T11:58:06Z</time>
      </trkpt>
      <trkpt lat="42.0946720" lon="-7.7448490">
        <ele>617.7</ele>
        <time>2019-08-17T11:58:07Z</time>
      </trkpt>
      <trkpt lat="42.0947260" lon="-7.7448810">
        <ele>617.7</ele>
        <time>2019-08-17T11:58:08Z</time>
      </trkpt>
      <trkpt lat="42.0947790" lon="-7.7449140">
        <ele>617.8</ele>
        <time>2019-08-17T11:58:09Z</time>
      </trkpt>
      <trkpt lat="42.0948320" lon="-7.7449480">
        <ele>617.8</ele>
        <time>2019-08-17T11:58:10Z</time>
      </trkpt>
      <trkpt lat="42.0948850" lon="-7.7449820">
        <ele>617.8</ele>
        <time>2019-08-17T11:58:11Z</time>
      </trkpt>
      <trkpt lat="42.0949410" lon="-7.7450160">
        <ele>617.8</ele>
        <time>2019-08-17T11:58:12Z</time>
      </trkpt>
      <trkpt lat="42.0949990" lon="-7.7450520">
        <ele>617.8</ele>
        <time>2019-08-17T11:58:13Z</time>
      </trkpt>
      <trkpt lat="42.0950580" lon="-7.7450890">
        <ele>617.7</ele>
        <time>2019-08-17T11:58:14Z</time>
      </trkpt>
      <trkpt lat="42.0951170" lon="-7.7451240">
        <ele>617.7</ele>
        <time>2019-08-17T11:58:15Z</time>
      </trkpt>
      <trkpt lat="42.0951760" lon="-7.7451590">
        <ele>617.6</ele>
        <time>2019-08-17T11:58:16Z</time>
      </trkpt>
      <trkpt lat="42.0952350" lon="-7.7451930">
        <ele>617.6</ele>
        <time>2019-08-17T11:58:17Z</time>
      </trkpt>
      <trkpt lat="42.0952930" lon="-7.7452260">
        <ele>617.5</ele>
        <time>2019-08-17T11:58:18Z</time>
      </trkpt>
      <trkpt lat="42.0953500" lon="-7.7452590">
        <ele>617.5</ele>
        <time>2019-08-17T11:58:19Z</time>
      </trkpt>
      <trkpt lat="42.0954070" lon="-7.7452910">
        <ele>617.5</ele>
        <time>2019-08-17T11:58:20Z</time>
      </trkpt>
      <trkpt lat="42.0954640" lon="-7.7453230">
        <ele>617.5</ele>
        <time>2019-08-17T11:58:21Z</time>
      </trkpt>
      <trkpt lat="42.0955200" lon="-7.7453550">
        <ele>617.5</ele>
        <time>2019-08-17T11:58:22Z</time>
      </trkpt>
      <trkpt lat="42.0955750" lon="-7.7453870">
        <ele>617.5</ele>
        <time>2019-08-17T11:58:23Z</time>
      </trkpt>
      <trkpt lat="42.0956310" lon="-7.7454190">
        <ele>617.5</ele>
        <time>2019-08-17T11:58:24Z</time>
      </trkpt>
      <trkpt lat="42.0956860" lon="-7.7454520">
        <ele>617.5</ele>
        <time>2019-08-17T11:58:25Z</time>
      </trkpt>
      <trkpt lat="42.0957410" lon="-7.7454850">
        <ele>617.5</ele>
        <time>2019-08-17T11:58:26Z</time>
      </trkpt>
      <trkpt lat="42.0957960" lon="-7.7455190">
        <ele>617.5</ele>
        <time>2019-08-17T11:58:27Z</time>
      </trkpt>
      <trkpt lat="42.0958510" lon="-7.7455520">
        <ele>617.4</ele>
        <time>2019-08-17T11:58:28Z</time>
      </trkpt>
      <trkpt lat="42.0959070" lon="-7.7455860">
        <ele>617.4</ele>
        <time>2019-08-17T11:58:29Z</time>
      </trkpt>
      <trkpt lat="42.0959620" lon="-7.7456200">
        <ele>617.4</ele>
        <time>2019-08-17T11:58:30Z</time>
      </trkpt>
      <trkpt lat="42.0960170" lon="-7.7456540">
        <ele>617.3</ele>
        <time>2019-08-17T11:58:31Z</time>
      </trkpt>
      <trkpt lat="42.0960730" lon="-7.7456880">
        <ele>617.3</ele>
        <time>2019-08-17T11:58:32Z</time>
      </trkpt>
      <trkpt lat="42.0961300" lon="-7.7457220">
        <ele>617.3</ele>
        <time>2019-08-17T11:58:33Z</time>
      </trkpt>
      <trkpt lat="42.0961860" lon="-7.7457560">
        <ele>617.3</ele>
        <time>2019-08-17T11:58:34Z</time>
      </trkpt>
      <trkpt lat="42.0962430" lon="-7.7457900">
        <ele>617.3</ele>
        <time>2019-08-17T11:58:35Z</time>
      </trkpt>
      <trkpt lat="42.0962990" lon="-7.7458230">
        <ele>617.3</ele>
        <time>2019-08-17T11:58:36Z</time>
      </trkpt>
      <trkpt lat="42.0963560" lon="-7.7458570">
        <ele>617.3</ele>
        <time>2019-08-17T11:58:37Z</time>
      </trkpt>
      <trkpt lat="42.0964130" lon="-7.7458910">
        <ele>617.3</ele>
        <time>2019-08-17T11:58:38Z</time>
      </trkpt>
      <trkpt lat="42.0964700" lon="-7.7459250">
        <ele>617.3</ele>
        <time>2019-08-17T11:58:39Z</time>
      </trkpt>
      <trkpt lat="42.0965280" lon="-7.7459590">
        <ele>617.3</ele>
        <time>2019-08-17T11:58:40Z</time>
      </trkpt>
      <trkpt lat="42.0965850" lon="-7.7459920">
        <ele>617.3</ele>
        <time>2019-08-17T11:58:41Z</time>
      </trkpt>
      <trkpt lat="42.0966420" lon="-7.7460260">
        <ele>617.3</ele>
        <time>2019-08-17T11:58:42Z</time>
      </trkpt>
      <trkpt lat="42.0966990" lon="-7.7460600">
        <ele>617.3</ele>
        <time>2019-08-17T11:58:43Z</time>
      </trkpt>
      <trkpt lat="42.0967560" lon="-7.7460940">
        <ele>617.3</ele>
        <time>2019-08-17T11:58:44Z</time>
      </trkpt>
      <trkpt lat="42.0968130" lon="-7.7461270">
        <ele>617.3</ele>
        <time>2019-08-17T11:58:45Z</time>
      </trkpt>
      <trkpt lat="42.0968700" lon="-7.7461610">
        <ele>617.3</ele>
        <time>2019-08-17T11:58:46Z</time>
      </trkpt>
      <trkpt lat="42.0969260" lon="-7.7461950">
        <ele>617.3</ele>
        <time>2019-08-17T11:58:47Z</time>
      </trkpt>
      <trkpt lat="42.0969830" lon="-7.7462290">
        <ele>617.3</ele>
        <time>2019-08-17T11:58:48Z</time>
      </trkpt>
      <trkpt lat="42.0970390" lon="-7.7462630">
        <ele>617.3</ele>
        <time>2019-08-17T11:58:49Z</time>
      </trkpt>
      <trkpt lat="42.0970950" lon="-7.7462960">
        <ele>617.3</ele>
        <time>2019-08-17T11:58:50Z</time>
      </trkpt>
      <trkpt lat="42.0971510" lon="-7.7463300">
        <ele>617.3</ele>
        <time>2019-08-17T11:58:51Z</time>
      </trkpt>
      <trkpt lat="42.0972070" lon="-7.7463640">
        <ele>617.3</ele>
        <time>2019-08-17T11:58:52Z</time>
      </trkpt>
      <trkpt lat="42.0972630" lon="-7.7463970">
        <ele>617.3</ele>
        <time>2019-08-17T11:58:53Z</time>
      </trkpt>
      <trkpt lat="42.0973190" lon="-7.7464310">
        <ele>617.3</ele>
        <time>2019-08-17T11:58:54Z</time>
      </trkpt>
      <trkpt lat="42.0973750" lon="-7.7464650">
        <ele>617.3</ele>
        <time>2019-08-17T11:58:55Z</time>
      </trkpt>
      <trkpt lat="42.0974310" lon="-7.7464980">
        <ele>617.4</ele>
        <time>2019-08-17T11:58:56Z</time>
      </trkpt>
      <trkpt lat="42.0974860" lon="-7.7465310">
        <ele>617.4</ele>
        <time>2019-08-17T11:58:57Z</time>
      </trkpt>
      <trkpt lat="42.0975420" lon="-7.7465640">
        <ele>617.5</ele>
        <time>2019-08-17T11:58:58Z</time>
      </trkpt>
      <trkpt lat="42.0975960" lon="-7.7465970">
        <ele>617.5</ele>
        <time>2019-08-17T11:58:59Z</time>
      </trkpt>
      <trkpt lat="42.0976500" lon="-7.7466300">
        <ele>617.6</ele>
        <time>2019-08-17T11:59:00Z</time>
      </trkpt>
      <trkpt lat="42.0977030" lon="-7.7466620">
        <ele>617.6</ele>
        <time>2019-08-17T11:59:01Z</time>
      </trkpt>
      <trkpt lat="42.0977550" lon="-7.7466940">
        <ele>617.7</ele>
        <time>2019-08-17T11:59:02Z</time>
      </trkpt>
      <trkpt lat="42.0978070" lon="-7.7467250">
        <ele>617.7</ele>
        <time>2019-08-17T11:59:03Z</time>
      </trkpt>
      <trkpt lat="42.0978570" lon="-7.7467560">
        <ele>617.8</ele>
        <time>2019-08-17T11:59:04Z</time>
      </trkpt>
      <trkpt lat="42.0979070" lon="-7.7467860">
        <ele>617.8</ele>
        <time>2019-08-17T11:59:05Z</time>
      </trkpt>
      <trkpt lat="42.0979560" lon="-7.7468160">
        <ele>617.9</ele>
        <time>2019-08-17T11:59:06Z</time>
      </trkpt>
      <trkpt lat="42.0980060" lon="-7.7468450">
        <ele>617.9</ele>
        <time>2019-08-17T11:59:07Z</time>
      </trkpt>
      <trkpt lat="42.0980560" lon="-7.7468730">
        <ele>617.9</ele>
        <time>2019-08-17T11:59:08Z</time>
      </trkpt>
      <trkpt lat="42.0981060" lon="-7.7469020">
        <ele>618.0</ele>
        <time>2019-08-17T11:59:09Z</time>
      </trkpt>
      <trkpt lat="42.0981570" lon="-7.7469310">
        <ele>618.0</ele>
        <time>2019-08-17T11:59:10Z</time>
      </trkpt>
      <trkpt lat="42.0982080" lon="-7.7469600">
        <ele>618.0</ele>
        <time>2019-08-17T11:59:11Z</time>
      </trkpt>
      <trkpt lat="42.0982600" lon="-7.7469910">
        <ele>618.1</ele>
        <time>2019-08-17T11:59:12Z</time>
      </trkpt>
      <trkpt lat="42.0983120" lon="-7.7470230">
        <ele>618.1</ele>
        <time>2019-08-17T11:59:13Z</time>
      </trkpt>
      <trkpt lat="42.0983650" lon="-7.7470550">
        <ele>618.1</ele>
        <time>2019-08-17T11:59:14Z</time>
      </trkpt>
      <trkpt lat="42.0984180" lon="-7.7470870">
        <ele>618.1</ele>
        <time>2019-08-17T11:59:15Z</time>
      </trkpt>
      <trkpt lat="42.0984720" lon="-7.7471190">
        <ele>618.2</ele>
        <time>2019-08-17T11:59:16Z</time>
      </trkpt>
      <trkpt lat="42.0985250" lon="-7.7471520">
        <ele>618.2</ele>
        <time>2019-08-17T11:59:17Z</time>
      </trkpt>
      <trkpt lat="42.0985790" lon="-7.7471840">
        <ele>618.2</ele>
        <time>2019-08-17T11:59:18Z</time>
      </trkpt>
      <trkpt lat="42.0986320" lon="-7.7472160">
        <ele>618.2</ele>
        <time>2019-08-17T11:59:19Z</time>
      </trkpt>
      <trkpt lat="42.0986860" lon="-7.7472490">
        <ele>618.3</ele>
        <time>2019-08-17T11:59:20Z</time>
      </trkpt>
      <trkpt lat="42.0987400" lon="-7.7472810">
        <ele>618.3</ele>
        <time>2019-08-17T11:59:21Z</time>
      </trkpt>
      <trkpt lat="42.0987930" lon="-7.7473130">
        <ele>618.4</ele>
        <time>2019-08-17T11:59:22Z</time>
      </trkpt>
      <trkpt lat="42.0988470" lon="-7.7473450">
        <ele>618.4</ele>
        <time>2019-08-17T11:59:23Z</time>
      </trkpt>
      <trkpt lat="42.0989010" lon="-7.7473770">
        <ele>618.5</ele>
        <time>2019-08-17T11:59:24Z</time>
      </trkpt>
      <trkpt lat="42.0989550" lon="-7.7474090">
        <ele>618.5</ele>
        <time>2019-08-17T11:59:25Z</time>
      </trkpt>
      <trkpt lat="42.0990090" lon="-7.7474410">
        <ele>618.6</ele>
        <time>2019-08-17T11:59:26Z</time>
      </trkpt>
      <trkpt lat="42.0990630" lon="-7.7474730">
        <ele>618.6</ele>
        <time>2019-08-17T11:59:27Z</time>
      </trkpt>
      <trkpt lat="42.0991180" lon="-7.7475050">
        <ele>618.7</ele>
        <time>2019-08-17T11:59:28Z</time>
      </trkpt>
      <trkpt lat="42.0991720" lon="-7.7475370">
        <ele>618.7</ele>
        <time>2019-08-17T11:59:29Z</time>
      </trkpt>
      <trkpt lat="42.0992270" lon="-7.7475690">
        <ele>618.8</ele>
        <time>2019-08-17T11:59:30Z</time>
      </trkpt>
      <trkpt lat="42.0992810" lon="-7.7476020">
        <ele>618.8</ele>
        <time>2019-08-17T11:59:31Z</time>
      </trkpt>
      <trkpt lat="42.0993360" lon="-7.7476340">
        <ele>618.9</ele>
        <time>2019-08-17T11:59:32Z</time>
      </trkpt>
      <trkpt lat="42.0993900" lon="-7.7476670">
        <ele>618.9</ele>
        <time>2019-08-17T11:59:33Z</time>
      </trkpt>
      <trkpt lat="42.0994440" lon="-7.7476990">
        <ele>619.0</ele>
        <time>2019-08-17T11:59:34Z</time>
      </trkpt>
      <trkpt lat="42.0994990" lon="-7.7477320">
        <ele>619.0</ele>
        <time>2019-08-17T11:59:35Z</time>
      </trkpt>
      <trkpt lat="42.0995530" lon="-7.7477650">
        <ele>619.1</ele>
        <time>2019-08-17T11:59:36Z</time>
      </trkpt>
      <trkpt lat="42.0996080" lon="-7.7477970">
        <ele>619.1</ele>
        <time>2019-08-17T11:59:37Z</time>
      </trkpt>
      <trkpt lat="42.0996620" lon="-7.7478300">
        <ele>619.1</ele>
        <time>2019-08-17T11:59:38Z</time>
      </trkpt>
      <trkpt lat="42.0997160" lon="-7.7478630">
        <ele>619.1</ele>
        <time>2019-08-17T11:59:39Z</time>
      </trkpt>
      <trkpt lat="42.0997710" lon="-7.7478950">
        <ele>619.2</ele>
        <time>2019-08-17T11:59:40Z</time>
      </trkpt>
      <trkpt lat="42.0998250" lon="-7.7479280">
        <ele>619.2</ele>
        <time>2019-08-17T11:59:41Z</time>
      </trkpt>
      <trkpt lat="42.0998790" lon="-7.7479610">
        <ele>619.2</ele>
        <time>2019-08-17T11:59:42Z</time>
      </trkpt>
      <trkpt lat="42.0999330" lon="-7.7479940">
        <ele>619.3</ele>
        <time>2019-08-17T11:59:43Z</time>
      </trkpt>
      <trkpt lat="42.0999870" lon="-7.7480260">
        <ele>619.3</ele>
        <time>2019-08-17T11:59:44Z</time>
      </trkpt>
      <trkpt lat="42.1000410" lon="-7.7480590">
        <ele>619.4</ele>
        <time>2019-08-17T11:59:45Z</time>
      </trkpt>
      <trkpt lat="42.1000950" lon="-7.7480910">
        <ele>619.4</ele>
        <time>2019-08-17T11:59:46Z</time>
      </trkpt>
      <trkpt lat="42.1001490" lon="-7.7481240">
        <ele>619.5</ele>
        <time>2019-08-17T11:59:47Z</time>
      </trkpt>
      <trkpt lat="42.1002030" lon="-7.7481560">
        <ele>619.6</ele>
        <time>2019-08-17T11:59:48Z</time>
      </trkpt>
      <trkpt lat="42.1002570" lon="-7.7481890">
        <ele>619.6</ele>
        <time>2019-08-17T11:59:49Z</time>
      </trkpt>
      <trkpt lat="42.1003110" lon="-7.7482210">
        <ele>619.7</ele>
        <time>2019-08-17T11:59:50Z</time>
      </trkpt>
      <trkpt lat="42.1003640" lon="-7.7482530">
        <ele>619.7</ele>
        <time>2019-08-17T11:59:51Z</time>
      </trkpt>
      <trkpt lat="42.1004170" lon="-7.7482850">
        <ele>619.7</ele>
        <time>2019-08-17T11:59:52Z</time>
      </trkpt>
      <trkpt lat="42.1004700" lon="-7.7483170">
        <ele>619.8</ele>
        <time>2019-08-17T11:59:53Z</time>
      </trkpt>
      <trkpt lat="42.1005230" lon="-7.7483480">
        <ele>619.8</ele>
        <time>2019-08-17T11:59:54Z</time>
      </trkpt>
      <trkpt lat="42.1005750" lon="-7.7483800">
        <ele>619.8</ele>
        <time>2019-08-17T11:59:55Z</time>
      </trkpt>
      <trkpt lat="42.1006260" lon="-7.7484110">
        <ele>619.8</ele>
        <time>2019-08-17T11:59:56Z</time>
      </trkpt>
      <trkpt lat="42.1006770" lon="-7.7484420">
        <ele>619.8</ele>
        <time>2019-08-17T11:59:57Z</time>
      </trkpt>
      <trkpt lat="42.1007270" lon="-7.7484730">
        <ele>619.9</ele>
        <time>2019-08-17T11:59:58Z</time>
      </trkpt>
      <trkpt lat="42.1007770" lon="-7.7485030">
        <ele>619.9</ele>
        <time>2019-08-17T11:59:59Z</time>
      </trkpt>
      <trkpt lat="42.1008260" lon="-7.7485330">
        <ele>619.9</ele>
        <time>2019-08-17T12:00:00Z</time>
      </trkpt>
      <trkpt lat="42.1008750" lon="-7.7485630">
        <ele>619.9</ele>
        <time>2019-08-17T12:00:01Z</time>
      </trkpt>
      <trkpt lat="42.1009220" lon="-7.7485920">
        <ele>620.0</ele>
        <time>2019-08-17T12:00:02Z</time>
      </trkpt>
      <trkpt lat="42.1009690" lon="-7.7486210">
        <ele>620.0</ele>
        <time>2019-08-17T12:00:03Z</time>
      </trkpt>
      <trkpt lat="42.1010150" lon="-7.7486490">
        <ele>620.1</ele>
        <time>2019-08-17T12:00:04Z</time>
      </trkpt>
      <trkpt lat="42.1010610" lon="-7.7486760">
        <ele>620.1</ele>
        <time>2019-08-17T12:00:05Z</time>
      </trkpt>
      <trkpt lat="42.1011060" lon="-7.7487030">
        <ele>620.1</ele>
        <time>2019-08-17T12:00:06Z</time>
      </trkpt>
      <trkpt lat="42.1011500" lon="-7.7487290">
        <ele>620.2</ele>
        <time>2019-08-17T12:00:07Z</time>
      </trkpt>
      <trkpt lat="42.1011950" lon="-7.7487560">
        <ele>620.2</ele>
        <time>2019-08-17T12:00:08Z</time>
      </trkpt>
      <trkpt lat="42.1012400" lon="-7.7487840">
        <ele>620.2</ele>
        <time>2019-08-17T12:00:09Z</time>
      </trkpt>
      <trkpt lat="42.1012860" lon="-7.7488110">
        <ele>620.3</ele>
        <time>2019-08-17T12:00:10Z</time>
      </trkpt>
      <trkpt lat="42.1013320" lon="-7.7488400">
        <ele>620.3</ele>
        <time>2019-08-17T12:00:11Z</time>
      </trkpt>
      <trkpt lat="42.1013790" lon="-7.7488680">
        <ele>620.4</ele>
        <time>2019-08-17T12:00:12Z</time>
      </trkpt>
      <trkpt lat="42.1014270" lon="-7.7488960">
        <ele>620.4</ele>
        <time>2019-08-17T12:00:13Z</time>
      </trkpt>
      <trkpt lat="42.1014750" lon="-7.7489250">
        <ele>620.4</ele>
        <time>2019-08-17T12:00:14Z</time>
      </trkpt>
      <trkpt lat="42.1015240" lon="-7.7489540">
        <ele>620.5</ele>
        <time>2019-08-17T12:00:15Z</time>
      </trkpt>
      <trkpt lat="42.1015730" lon="-7.7489830">
        <ele>620.5</ele>
        <time>2019-08-17T12:00:16Z</time>
      </trkpt>
      <trkpt lat="42.1016220" lon="-7.7490120">
        <ele>620.5</ele>
        <time>2019-08-17T12:00:17Z</time>
      </trkpt>
      <trkpt lat="42.1016720" lon="-7.7490420">
        <ele>620.6</ele>
        <time>2019-08-17T12:00:18Z</time>
      </trkpt>
      <trkpt lat="42.1017220" lon="-7.7490710">
        <ele>620.6</ele>
        <time>2019-08-17T12:00:19Z</time>
      </trkpt>
      <trkpt lat="42.1017730" lon="-7.7491010">
        <ele>620.6</ele>
        <time>2019-08-17T12:00:20Z</time>
      </trkpt>
      <trkpt lat="42.1018230" lon="-7.7491310">
        <ele>620.6</ele>
        <time>2019-08-17T12:00:21Z</time>
      </trkpt>
      <trkpt lat="42.1018740" lon="-7.7491620">
        <ele>620.6</ele>
        <time>2019-08-17T12:00:22Z</time>
      </trkpt>
      <trkpt lat="42.1019240" lon="-7.7491920">
        <ele>620.7</ele>
        <time>2019-08-17T12:00:23Z</time>
      </trkpt>
      <trkpt lat="42.1019750" lon="-7.7492220">
        <ele>620.7</ele>
        <time>2019-08-17T12:00:24Z</time>
      </trkpt>
      <trkpt lat="42.1020250" lon="-7.7492520">
        <ele>620.7</ele>
        <time>2019-08-17T12:00:25Z</time>
      </trkpt>
      <trkpt lat="42.1020740" lon="-7.7492820">
        <ele>620.7</ele>
        <time>2019-08-17T12:00:26Z</time>
      </trkpt>
      <trkpt lat="42.1021240" lon="-7.7493110">
        <ele>620.7</ele>
        <time>2019-08-17T12:00:27Z</time>
      </trkpt>
      <trkpt lat="42.1021720" lon="-7.7493400">
        <ele>620.7</ele>
        <time>2019-08-17T12:00:28Z</time>
      </trkpt>
      <trkpt lat="42.1022210" lon="-7.7493690">
        <ele>620.8</ele>
        <time>2019-08-17T12:00:29Z</time>
      </trkpt>
      <trkpt lat="42.1022690" lon="-7.7493970">
        <ele>620.8</ele>
        <time>2019-08-17T12:00:30Z</time>
      </trkpt>
      <trkpt lat="42.1023160" lon="-7.7494250">
        <ele>620.8</ele>
        <time>2019-08-17T12:00:31Z</time>
      </trkpt>
      <trkpt lat="42.1023630" lon="-7.7494530">
        <ele>620.9</ele>
        <time>2019-08-17T12:00:32Z</time>
      </trkpt>
      <trkpt lat="42.1024110" lon="-7.7494810">
        <ele>620.9</ele>
        <time>2019-08-17T12:00:33Z</time>
      </trkpt>
      <trkpt lat="42.1024580" lon="-7.7495090">
        <ele>621.0</ele>
        <time>2019-08-17T12:00:34Z</time>
      </trkpt>
      <trkpt lat="42.1025050" lon="-7.7495370">
        <ele>621.0</ele>
        <time>2019-08-17T12:00:35Z</time>
      </trkpt>
      <trkpt lat="42.1025520" lon="-7.7495660">
        <ele>621.1</ele>
        <time>2019-08-17T12:00:36Z</time>
      </trkpt>
      <trkpt lat="42.1026000" lon="-7.7495940">
        <ele>621.2</ele>
        <time>2019-08-17T12:00:37Z</time>
      </trkpt>
      <trkpt lat="42.1026470" lon="-7.7496230">
        <ele>621.4</ele>
        <time>2019-08-17T12:00:38Z</time>
      </trkpt>
      <trkpt lat="42.1026940" lon="-7.7496510">
        <ele>621.7</ele>
        <time>2019-08-17T12:00:39Z</time>
      </trkpt>
      <trkpt lat="42.1027400" lon="-7.7496800">
        <ele>621.9</ele>
        <time>2019-08-17T12:00:40Z</time>
      </trkpt>
      <trkpt lat="42.1027860" lon="-7.7497070">
        <ele>622.1</ele>
        <time>2019-08-17T12:00:41Z</time>
      </trkpt>
      <trkpt lat="42.1028310" lon="-7.7497350">
        <ele>622.4</ele>
        <time>2019-08-17T12:00:42Z</time>
      </trkpt>
      <trkpt lat="42.1028750" lon="-7.7497610">
        <ele>622.6</ele>
        <time>2019-08-17T12:00:43Z</time>
      </trkpt>
      <trkpt lat="42.1029180" lon="-7.7497870">
        <ele>622.8</ele>
        <time>2019-08-17T12:00:44Z</time>
      </trkpt>
      <trkpt lat="42.1029610" lon="-7.7498130">
        <ele>623.1</ele>
        <time>2019-08-17T12:00:45Z</time>
      </trkpt>
      <trkpt lat="42.1030030" lon="-7.7498370">
        <ele>623.4</ele>
        <time>2019-08-17T12:00:46Z</time>
      </trkpt>
      <trkpt lat="42.1030440" lon="-7.7498620">
        <ele>623.6</ele>
        <time>2019-08-17T12:00:47Z</time>
      </trkpt>
      <trkpt lat="42.1030850" lon="-7.7498860">
        <ele>623.8</ele>
        <time>2019-08-17T12:00:48Z</time>
      </trkpt>
      <trkpt lat="42.1031270" lon="-7.7499100">
        <ele>624.0</ele>
        <time>2019-08-17T12:00:49Z</time>
      </trkpt>
      <trkpt lat="42.1031680" lon="-7.7499340">
        <ele>624.1</ele>
        <time>2019-08-17T12:00:50Z</time>
      </trkpt>
      <trkpt lat="42.1032110" lon="-7.7499580">
        <ele>624.4</ele>
        <time>2019-08-17T12:00:51Z</time>
      </trkpt>
      <trkpt lat="42.1032530" lon="-7.7499830">
        <ele>624.6</ele>
        <time>2019-08-17T12:00:52Z</time>
      </trkpt>
      <trkpt lat="42.1032960" lon="-7.7500080">
        <ele>624.8</ele>
        <time>2019-08-17T12:00:53Z</time>
      </trkpt>
      <trkpt lat="42.1033380" lon="-7.7500330">
        <ele>625.0</ele>
        <time>2019-08-17T12:00:54Z</time>
      </trkpt>
      <trkpt lat="42.1033810" lon="-7.7500580">
        <ele>625.2</ele>
        <time>2019-08-17T12:00:55Z</time>
      </trkpt>
      <trkpt lat="42.1034240" lon="-7.7500840">
        <ele>625.5</ele>
        <time>2019-08-17T12:00:56Z</time>
      </trkpt>
      <trkpt lat="42.1034660" lon="-7.7501100">
        <ele>625.7</ele>
        <time>2019-08-17T12:00:57Z</time>
      </trkpt>
      <trkpt lat="42.1035080" lon="-7.7501360">
        <ele>625.9</ele>
        <time>2019-08-17T12:00:58Z</time>
      </trkpt>
      <trkpt lat="42.1035490" lon="-7.7501630">
        <ele>626.2</ele>
        <time>2019-08-17T12:00:59Z</time>
      </trkpt>
      <trkpt lat="42.1035900" lon="-7.7501910">
        <ele>626.4</ele>
        <time>2019-08-17T12:01:00Z</time>
      </trkpt>
      <trkpt lat="42.1036300" lon="-7.7502190">
        <ele>626.6</ele>
        <time>2019-08-17T12:01:01Z</time>
      </trkpt>
      <trkpt lat="42.1036700" lon="-7.7502480">
        <ele>626.8</ele>
        <time>2019-08-17T12:01:02Z</time>
      </trkpt>
      <trkpt lat="42.1037100" lon="-7.7502780">
        <ele>627.0</ele>
        <time>2019-08-17T12:01:03Z</time>
      </trkpt>
      <trkpt lat="42.1037490" lon="-7.7503080">
        <ele>627.2</ele>
        <time>2019-08-17T12:01:04Z</time>
      </trkpt>
      <trkpt lat="42.1037880" lon="-7.7503390">
        <ele>627.4</ele>
        <time>2019-08-17T12:01:05Z</time>
      </trkpt>
      <trkpt lat="42.1038270" lon="-7.7503710">
        <ele>627.6</ele>
        <time>2019-08-17T12:01:06Z</time>
      </trkpt>
      <trkpt lat="42.1038660" lon="-7.7504040">
        <ele>627.9</ele>
        <time>2019-08-17T12:01:07Z</time>
      </trkpt>
      <trkpt lat="42.1039040" lon="-7.7504380">
        <ele>628.0</ele>
        <time>2019-08-17T12:01:08Z</time>
      </trkpt>
      <trkpt lat="42.1039430" lon="-7.7504730">
        <ele>628.2</ele>
        <time>2019-08-17T12:01:09Z</time>
      </trkpt>
      <trkpt lat="42.1039810" lon="-7.7505080">
        <ele>628.4</ele>
        <time>2019-08-17T12:01:10Z</time>
      </trkpt>
      <trkpt lat="42.1040180" lon="-7.7505440">
        <ele>628.6</ele>
        <time>2019-08-17T12:01:11Z</time>
      </trkpt>
      <trkpt lat="42.1040550" lon="-7.7505820">
        <ele>628.8</ele>
        <time>2019-08-17T12:01:12Z</time>
      </trkpt>
      <trkpt lat="42.1040910" lon="-7.7506190">
        <ele>629.1</ele>
        <time>2019-08-17T12:01:13Z</time>
      </trkpt>
      <trkpt lat="42.1041260" lon="-7.7506580">
        <ele>629.4</ele>
        <time>2019-08-17T12:01:14Z</time>
      </trkpt>
      <trkpt lat="42.1041610" lon="-7.7506970">
        <ele>629.7</ele>
        <time>2019-08-17T12:01:15Z</time>
      </trkpt>
      <trkpt lat="42.1041940" lon="-7.7507370">
        <ele>629.8</ele>
        <time>2019-08-17T12:01:16Z</time>
      </trkpt>
      <trkpt lat="42.1042280" lon="-7.7507780">
        <ele>630.0</ele>
        <time>2019-08-17T12:01:17Z</time>
      </trkpt>
      <trkpt lat="42.1042600" lon="-7.7508190">
        <ele>630.1</ele>
        <time>2019-08-17T12:01:18Z</time>
      </trkpt>
      <trkpt lat="42.1042930" lon="-7.7508610">
        <ele>630.2</ele>
        <time>2019-08-17T12:01:19Z</time>
      </trkpt>
      <trkpt lat="42.1043260" lon="-7.7509040">
        <ele>630.3</ele>
        <time>2019-08-17T12:01:20Z</time>
      </trkpt>
      <trkpt lat="42.1043600" lon="-7.7509470">
        <ele>630.4</ele>
        <time>2019-08-17T12:01:21Z</time>
      </trkpt>
      <trkpt lat="42.1043940" lon="-7.7509910">
        <ele>630.4</ele>
        <time>2019-08-17T12:01:22Z</time>
      </trkpt>
      <trkpt lat="42.1044280" lon="-7.7510350">
        <ele>630.5</ele>
        <time>2019-08-17T12:01:23Z</time>
      </trkpt>
      <trkpt lat="42.1044630" lon="-7.7510800">
        <ele>630.5</ele>
        <time>2019-08-17T12:01:24Z</time>
      </trkpt>
      <trkpt lat="42.1044990" lon="-7.7511270">
        <ele>630.5</ele>
        <time>2019-08-17T12:01:25Z</time>
      </trkpt>
      <trkpt lat="42.1045360" lon="-7.7511740">
        <ele>630.6</ele>
        <time>2019-08-17T12:01:26Z</time>
      </trkpt>
      <trkpt lat="42.1045740" lon="-7.7512220">
        <ele>630.6</ele>
        <time>2019-08-17T12:01:27Z</time>
      </trkpt>
      <trkpt lat="42.1046120" lon="-7.7512720">
        <ele>630.6</ele>
        <time>2019-08-17T12:01:28Z</time>
      </trkpt>
      <trkpt lat="42.1046520" lon="-7.7513240">
        <ele>630.6</ele>
        <time>2019-08-17T12:01:29Z</time>
      </trkpt>
      <trkpt lat="42.1046920" lon="-7.7513760">
        <ele>630.6</ele>
        <time>2019-08-17T12:01:30Z</time>
      </trkpt>
      <trkpt lat="42.1047330" lon="-7.7514310">
        <ele>630.6</ele>
        <time>2019-08-17T12:01:31Z</time>
      </trkpt>
      <trkpt lat="42.1047750" lon="-7.7514860">
        <ele>630.6</ele>
        <time>2019-08-17T12:01:32Z</time>
      </trkpt>
      <trkpt lat="42.1048180" lon="-7.7515420">
        <ele>630.6</ele>
        <time>2019-08-17T12:01:33Z</time>
      </trkpt>
      <trkpt lat="42.1048610" lon="-7.7515990">
        <ele>630.6</ele>
        <time>2019-08-17T12:01:34Z</time>
      </trkpt>
      <trkpt lat="42.1049040" lon="-7.7516560">
        <ele>630.6</ele>
        <time>2019-08-17T12:01:35Z</time>
      </trkpt>
      <trkpt lat="42.1049470" lon="-7.7517140">
        <ele>630.6</ele>
        <time>2019-08-17T12:01:36Z</time>
      </trkpt>
      <trkpt lat="42.1049910" lon="-7.7517710">
        <ele>630.6</ele>
        <time>2019-08-17T12:01:37Z</time>
      </trkpt>
      <trkpt lat="42.1050340" lon="-7.7518280">
        <ele>630.6</ele>
        <time>2019-08-17T12:01:38Z</time>
      </trkpt>
      <trkpt lat="42.1050770" lon="-7.7518850">
        <ele>630.6</ele>
        <time>2019-08-17T12:01:39Z</time>
      </trkpt>
      <trkpt lat="42.1051200" lon="-7.7519410">
        <ele>630.6</ele>
        <time>2019-08-17T12:01:40Z</time>
      </trkpt>
      <trkpt lat="42.1051620" lon="-7.7519960">
        <ele>630.5</ele>
        <time>2019-08-17T12:01:41Z</time>
      </trkpt>
      <trkpt lat="42.1052040" lon="-7.7520510">
        <ele>630.5</ele>
        <time>2019-08-17T12:01:42Z</time>
      </trkpt>
      <trkpt lat="42.1052460" lon="-7.7521060">
        <ele>630.5</ele>
        <time>2019-08-17T12:01:43Z</time>
      </trkpt>
      <trkpt lat="42.1052880" lon="-7.7521600">
        <ele>630.5</ele>
        <time>2019-08-17T12:01:44Z</time>
      </trkpt>
      <trkpt lat="42.1053300" lon="-7.7522150">
        <ele>630.5</ele>
        <time>2019-08-17T12:01:45Z</time>
      </trkpt>
      <trkpt lat="42.1053730" lon="-7.7522700">
        <ele>630.5</ele>
        <time>2019-08-17T12:01:46Z</time>
      </trkpt>
      <trkpt lat="42.1054160" lon="-7.7523270">
        <ele>630.5</ele>
        <time>2019-08-17T12:01:47Z</time>
      </trkpt>
      <trkpt lat="42.1054600" lon="-7.7523840">
        <ele>630.4</ele>
        <time>2019-08-17T12:01:48Z</time>
      </trkpt>
      <trkpt lat="42.1055040" lon="-7.7524420">
        <ele>630.4</ele>
        <time>2019-08-17T12:01:49Z</time>
      </trkpt>
      <trkpt lat="42.1055490" lon="-7.7525000">
        <ele>630.4</ele>
        <time>2019-08-17T12:01:50Z</time>
      </trkpt>
      <trkpt lat="42.1055940" lon="-7.7525580">
        <ele>630.4</ele>
        <time>2019-08-17T12:01:51Z</time>
      </trkpt>
      <trkpt lat="42.1056400" lon="-7.7526170">
        <ele>630.4</ele>
        <time>2019-08-17T12:01:52Z</time>
      </trkpt>
      <trkpt lat="42.1056870" lon="-7.7526770">
        <ele>630.4</ele>
        <time>2019-08-17T12:01:53Z</time>
      </trkpt>
      <trkpt lat="42.1057330" lon="-7.7527360">
        <ele>630.3</ele>
        <time>2019-08-17T12:01:54Z</time>
      </trkpt>
      <trkpt lat="42.1057810" lon="-7.7527960">
        <ele>630.3</ele>
        <time>2019-08-17T12:01:55Z</time>
      </trkpt>
      <trkpt lat="42.1058280" lon="-7.7528550">
        <ele>630.3</ele>
        <time>2019-08-17T12:01:56Z</time>
      </trkpt>
      <trkpt lat="42.1058750" lon="-7.7529150">
        <ele>630.2</ele>
        <time>2019-08-17T12:01:57Z</time>
      </trkpt>
      <trkpt lat="42.1059230" lon="-7.7529750">
        <ele>630.2</ele>
        <time>2019-08-17T12:01:58Z</time>
      </trkpt>
      <trkpt lat="42.1059700" lon="-7.7530340">
        <ele>630.1</ele>
        <time>2019-08-17T12:01:59Z</time>
      </trkpt>
      <trkpt lat="42.1060170" lon="-7.7530940">
        <ele>630.1</ele>
        <time>2019-08-17T12:02:00Z</time>
      </trkpt>
      <trkpt lat="42.1060640" lon="-7.7531530">
        <ele>630.1</ele>
        <time>2019-08-17T12:02:01Z</time>
      </trkpt>
      <trkpt lat="42.1061100" lon="-7.7532120">
        <ele>630.0</ele>
        <time>2019-08-17T12:02:02Z</time>
      </trkpt>
      <trkpt lat="42.1061560" lon="-7.7532700">
        <ele>630.0</ele>
        <time>2019-08-17T12:02:03Z</time>
      </trkpt>
      <trkpt lat="42.1062020" lon="-7.7533290">
        <ele>630.0</ele>
        <time>2019-08-17T12:02:04Z</time>
      </trkpt>
      <trkpt lat="42.1062470" lon="-7.7533870">
        <ele>630.0</ele>
        <time>2019-08-17T12:02:05Z</time>
      </trkpt>
      <trkpt lat="42.1062920" lon="-7.7534450">
        <ele>630.1</ele>
        <time>2019-08-17T12:02:06Z</time>
      </trkpt>
      <trkpt lat="42.1063370" lon="-7.7535030">
        <ele>630.1</ele>
        <time>2019-08-17T12:02:07Z</time>
      </trkpt>
      <trkpt lat="42.1063820" lon="-7.7535610">
        <ele>630.1</ele>
        <time>2019-08-17T12:02:08Z</time>
      </trkpt>
      <trkpt lat="42.1064270" lon="-7.7536190">
        <ele>630.0</ele>
        <time>2019-08-17T12:02:09Z</time>
      </trkpt>
      <trkpt lat="42.1064720" lon="-7.7536770">
        <ele>630.0</ele>
        <time>2019-08-17T12:02:10Z</time>
      </trkpt>
      <trkpt lat="42.1065170" lon="-7.7537340">
        <ele>630.0</ele>
        <time>2019-08-17T12:02:11Z</time>
      </trkpt>
      <trkpt lat="42.1065620" lon="-7.7537920">
        <ele>630.0</ele>
        <time>2019-08-17T12:02:12Z</time>
      </trkpt>
      <trkpt lat="42.1066060" lon="-7.7538490">
        <ele>630.0</ele>
        <time>2019-08-17T12:02:13Z</time>
      </trkpt>
      <trkpt lat="42.1066510" lon="-7.7539070">
        <ele>630.0</ele>
        <time>2019-08-17T12:02:14Z</time>
      </trkpt>
      <trkpt lat="42.1066960" lon="-7.7539630">
        <ele>630.0</ele>
        <time>2019-08-17T12:02:15Z</time>
      </trkpt>
      <trkpt lat="42.1067400" lon="-7.7540200">
        <ele>630.1</ele>
        <time>2019-08-17T12:02:16Z</time>
      </trkpt>
      <trkpt lat="42.1067840" lon="-7.7540760">
        <ele>630.2</ele>
        <time>2019-08-17T12:02:17Z</time>
      </trkpt>
      <trkpt lat="42.1068280" lon="-7.7541310">
        <ele>630.2</ele>
        <time>2019-08-17T12:02:18Z</time>
      </trkpt>
      <trkpt lat="42.1068710" lon="-7.7541860">
        <ele>630.4</ele>
        <time>2019-08-17T12:02:19Z</time>
      </trkpt>
      <trkpt lat="42.1069140" lon="-7.7542400">
        <ele>630.5</ele>
        <time>2019-08-17T12:02:20Z</time>
      </trkpt>
      <trkpt lat="42.1069560" lon="-7.7542930">
        <ele>630.6</ele>
        <time>2019-08-17T12:02:21Z</time>
      </trkpt>
      <trkpt lat="42.1069980" lon="-7.7543450">
        <ele>630.8</ele>
        <time>2019-08-17T12:02:22Z</time>
      </trkpt>
      <trkpt lat="42.1070380" lon="-7.7543970">
        <ele>631.0</ele>
        <time>2019-08-17T12:02:23Z</time>
      </trkpt>
      <trkpt lat="42.1070790" lon="-7.7544470">
        <ele>631.1</ele>
        <time>2019-08-17T12:02:24Z</time>
      </trkpt>
      <trkpt lat="42.1071180" lon="-7.7544970">
        <ele>631.3</ele>
        <time>2019-08-17T12:02:25Z</time>
      </trkpt>
      <trkpt lat="42.1071560" lon="-7.7545450">
        <ele>631.4</ele>
        <time>2019-08-17T12:02:26Z</time>
      </trkpt>
      <trkpt lat="42.1071930" lon="-7.7545920">
        <ele>631.6</ele>
        <time>2019-08-17T12:02:27Z</time>
      </trkpt>
      <trkpt lat="42.1072290" lon="-7.7546370">
        <ele>631.7</ele>
        <time>2019-08-17T12:02:28Z</time>
      </trkpt>
      <trkpt lat="42.1072630" lon="-7.7546810">
        <ele>631.9</ele>
        <time>2019-08-17T12:02:29Z</time>
      </trkpt>
      <trkpt lat="42.1072960" lon="-7.7547220">
        <ele>632.1</ele>
        <time>2019-08-17T12:02:30Z</time>
      </trkpt>
      <trkpt lat="42.1073270" lon="-7.7547620">
        <ele>632.2</ele>
        <time>2019-08-17T12:02:31Z</time>
      </trkpt>
      <trkpt lat="42.1073550" lon="-7.7547990">
        <ele>632.4</ele>
        <time>2019-08-17T12:02:32Z</time>
      </trkpt>
      <trkpt lat="42.1073820" lon="-7.7548340">
        <ele>632.5</ele>
        <time>2019-08-17T12:02:33Z</time>
      </trkpt>
      <trkpt lat="42.1074060" lon="-7.7548680">
        <ele>632.6</ele>
        <time>2019-08-17T12:02:34Z</time>
      </trkpt>
      <trkpt lat="42.1074300" lon="-7.7549010">
        <ele>632.7</ele>
        <time>2019-08-17T12:02:35Z</time>
      </trkpt>
      <trkpt lat="42.1074520" lon="-7.7549340">
        <ele>632.9</ele>
        <time>2019-08-17T12:02:36Z</time>
      </trkpt>
      <trkpt lat="42.1074740" lon="-7.7549680">
        <ele>633.0</ele>
        <time>2019-08-17T12:02:37Z</time>
      </trkpt>
      <trkpt lat="42.1074960" lon="-7.7550040">
        <ele>633.1</ele>
        <time>2019-08-17T12:02:38Z</time>
      </trkpt>
      <trkpt lat="42.1075180" lon="-7.7550400">
        <ele>633.2</ele>
        <time>2019-08-17T12:02:39Z</time>
      </trkpt>
      <trkpt lat="42.1075400" lon="-7.7550760">
        <ele>633.3</ele>
        <time>2019-08-17T12:02:40Z</time>
      </trkpt>
      <trkpt lat="42.1075630" lon="-7.7551130">
        <ele>633.5</ele>
        <time>2019-08-17T12:02:41Z</time>
      </trkpt>
      <trkpt lat="42.1075870" lon="-7.7551510">
        <ele>633.6</ele>
        <time>2019-08-17T12:02:42Z</time>
      </trkpt>
      <trkpt lat="42.1076110" lon="-7.7551890">
        <ele>633.8</ele>
        <time>2019-08-17T12:02:43Z</time>
      </trkpt>
      <trkpt lat="42.1076350" lon="-7.7552280">
        <ele>634.0</ele>
        <time>2019-08-17T12:02:44Z</time>
      </trkpt>
      <trkpt lat="42.1076600" lon="-7.7552670">
        <ele>634.1</ele>
        <time>2019-08-17T12:02:45Z</time>
      </trkpt>
      <trkpt lat="42.1076840" lon="-7.7553080">
        <ele>634.3</ele>
        <time>2019-08-17T12:02:46Z</time>
      </trkpt>
      <trkpt lat="42.1077090" lon="-7.7553490">
        <ele>634.5</ele>
        <time>2019-08-17T12:02:47Z</time>
      </trkpt>
      <trkpt lat="42.1077340" lon="-7.7553900">
        <ele>634.7</ele>
        <time>2019-08-17T12:02:48Z</time>
      </trkpt>
      <trkpt lat="42.1077580" lon="-7.7554330">
        <ele>634.8</ele>
        <time>2019-08-17T12:02:49Z</time>
      </trkpt>
      <trkpt lat="42.1077820" lon="-7.7554770">
        <ele>635.0</ele>
        <time>2019-08-17T12:02:50Z</time>
      </trkpt>
      <trkpt lat="42.1078060" lon="-7.7555210">
        <ele>635.1</ele>
        <time>2019-08-17T12:02:51Z</time>
      </trkpt>
      <trkpt lat="42.1078300" lon="-7.7555660">
        <ele>635.3</ele>
        <time>2019-08-17T12:02:52Z</time>
      </trkpt>
      <trkpt lat="42.1078530" lon="-7.7556110">
        <ele>635.4</ele>
        <time>2019-08-17T12:02:53Z</time>
      </trkpt>
      <trkpt lat="42.1078760" lon="-7.7556570">
        <ele>635.5</ele>
        <time>2019-08-17T12:02:54Z</time>
      </trkpt>
      <trkpt lat="42.1078980" lon="-7.7557020">
        <ele>635.6</ele>
        <time>2019-08-17T12:02:55Z</time>
      </trkpt>
      <trkpt lat="42.1079190" lon="-7.7557480">
        <ele>635.7</ele>
        <time>2019-08-17T12:02:56Z</time>
      </trkpt>
      <trkpt lat="42.1079400" lon="-7.7557930">
        <ele>635.8</ele>
        <time>2019-08-17T12:02:57Z</time>
      </trkpt>
      <trkpt lat="42.1079610" lon="-7.7558380">
        <ele>635.9</ele>
        <time>2019-08-17T12:02:58Z</time>
      </trkpt>
      <trkpt lat="42.1079810" lon="-7.7558830">
        <ele>636.0</ele>
        <time>2019-08-17T12:02:59Z</time>
      </trkpt>
      <trkpt lat="42.1080000" lon="-7.7559260">
        <ele>636.1</ele>
        <time>2019-08-17T12:03:00Z</time>
      </trkpt>
      <trkpt lat="42.1080190" lon="-7.7559700">
        <ele>636.3</ele>
        <time>2019-08-17T12:03:01Z</time>
      </trkpt>
      <trkpt lat="42.1080370" lon="-7.7560120">
        <ele>636.4</ele>
        <time>2019-08-17T12:03:02Z</time>
      </trkpt>
      <trkpt lat="42.1080550" lon="-7.7560530">
        <ele>636.6</ele>
        <time>2019-08-17T12:03:03Z</time>
      </trkpt>
      <trkpt lat="42.1080720" lon="-7.7560940">
        <ele>636.8</ele>
        <time>2019-08-17T12:03:04Z</time>
      </trkpt>
      <trkpt lat="42.1080900" lon="-7.7561330">
        <ele>636.9</ele>
        <time>2019-08-17T12:03:05Z</time>
      </trkpt>
      <trkpt lat="42.1081070" lon="-7.7561720">
        <ele>637.1</ele>
        <time>2019-08-17T12:03:06Z</time>
      </trkpt>
      <trkpt lat="42.1081230" lon="-7.7562090">
        <ele>637.3</ele>
        <time>2019-08-17T12:03:07Z</time>
      </trkpt>
      <trkpt lat="42.1081400" lon="-7.7562460">
        <ele>637.5</ele>
        <time>2019-08-17T12:03:08Z</time>
      </trkpt>
      <trkpt lat="42.1081560" lon="-7.7562830">
        <ele>637.7</ele>
        <time>2019-08-17T12:03:09Z</time>
      </trkpt>
      <trkpt lat="42.1081730" lon="-7.7563190">
        <ele>637.8</ele>
        <time>2019-08-17T12:03:10Z</time>
      </trkpt>
      <trkpt lat="42.1081890" lon="-7.7563540">
        <ele>638.0</ele>
        <time>2019-08-17T12:03:11Z</time>
      </trkpt>
      <trkpt lat="42.1082060" lon="-7.7563890">
        <ele>638.1</ele>
        <time>2019-08-17T12:03:12Z</time>
      </trkpt>
      <trkpt lat="42.1082230" lon="-7.7564240">
        <ele>638.3</ele>
        <time>2019-08-17T12:03:13Z</time>
      </trkpt>
      <trkpt lat="42.1082400" lon="-7.7564590">
        <ele>638.4</ele>
        <time>2019-08-17T12:03:14Z</time>
      </trkpt>
      <trkpt lat="42.1082570" lon="-7.7564950">
        <ele>638.5</ele>
        <time>2019-08-17T12:03:15Z</time>
      </trkpt>
      <trkpt lat="42.1082750" lon="-7.7565320">
        <ele>638.6</ele>
        <time>2019-08-17T12:03:16Z</time>
      </trkpt>
      <trkpt lat="42.1082940" lon="-7.7565690">
        <ele>638.7</ele>
        <time>2019-08-17T12:03:17Z</time>
      </trkpt>
      <trkpt lat="42.1083140" lon="-7.7566080">
        <ele>638.9</ele>
        <time>2019-08-17T12:03:18Z</time>
      </trkpt>
      <trkpt lat="42.1083340" lon="-7.7566490">
        <ele>639.0</ele>
        <time>2019-08-17T12:03:19Z</time>
      </trkpt>
      <trkpt lat="42.1083560" lon="-7.7566920">
        <ele>639.1</ele>
        <time>2019-08-17T12:03:20Z</time>
      </trkpt>
      <trkpt lat="42.1083780" lon="-7.7567360">
        <ele>639.2</ele>
        <time>2019-08-17T12:03:21Z</time>
      </trkpt>
      <trkpt lat="42.1084020" lon="-7.7567820">
        <ele>639.4</ele>
        <time>2019-08-17T12:03:22Z</time>
      </trkpt>
      <trkpt lat="42.1084260" lon="-7.7568280">
        <ele>639.6</ele>
        <time>2019-08-17T12:03:23Z</time>
      </trkpt>
      <trkpt lat="42.1084500" lon="-7.7568740">
        <ele>639.8</ele>
        <time>2019-08-17T12:03:24Z</time>
      </trkpt>
      <trkpt lat="42.1084760" lon="-7.7569210">
        <ele>640.0</ele>
        <time>2019-08-17T12:03:25Z</time>
      </trkpt>
      <trkpt lat="42.1085010" lon="-7.7569660">
        <ele>640.2</ele>
        <time>2019-08-17T12:03:26Z</time>
      </trkpt>
      <trkpt lat="42.1085270" lon="-7.7570110">
        <ele>640.3</ele>
        <time>2019-08-17T12:03:27Z</time>
      </trkpt>
      <trkpt lat="42.1085520" lon="-7.7570540">
        <ele>640.4</ele>
        <time>2019-08-17T12:03:28Z</time>
      </trkpt>
      <trkpt lat="42.1085790" lon="-7.7570960">
        <ele>640.5</ele>
        <time>2019-08-17T12:03:29Z</time>
      </trkpt>
      <trkpt lat="42.1086050" lon="-7.7571380">
        <ele>640.6</ele>
        <time>2019-08-17T12:03:30Z</time>
      </trkpt>
      <trkpt lat="42.1086320" lon="-7.7571770">
        <ele>640.7</ele>
        <time>2019-08-17T12:03:31Z</time>
      </trkpt>
      <trkpt lat="42.1086590" lon="-7.7572160">
        <ele>640.8</ele>
        <time>2019-08-17T12:03:32Z</time>
      </trkpt>
      <trkpt lat="42.1086860" lon="-7.7572530">
        <ele>641.0</ele>
        <time>2019-08-17T12:03:33Z</time>
      </trkpt>
      <trkpt lat="42.1087140" lon="-7.7572890">
        <ele>641.1</ele>
        <time>2019-08-17T12:03:34Z</time>
      </trkpt>
      <trkpt lat="42.1087430" lon="-7.7573240">
        <ele>641.2</ele>
        <time>2019-08-17T12:03:35Z</time>
      </trkpt>
      <trkpt lat="42.1087720" lon="-7.7573570">
        <ele>641.4</ele>
        <time>2019-08-17T12:03:36Z</time>
      </trkpt>
      <trkpt lat="42.1088010" lon="-7.7573890">
        <ele>641.4</ele>
        <time>2019-08-17T12:03:37Z</time>
      </trkpt>
      <trkpt lat="42.1088310" lon="-7.7574200">
        <ele>641.5</ele>
        <time>2019-08-17T12:03:38Z</time>
      </trkpt>
      <trkpt lat="42.1088600" lon="-7.7574500">
        <ele>641.6</ele>
        <time>2019-08-17T12:03:39Z</time>
      </trkpt>
      <trkpt lat="42.1088900" lon="-7.7574790">
        <ele>641.7</ele>
        <time>2019-08-17T12:03:40Z</time>
      </trkpt>
      <trkpt lat="42.1089200" lon="-7.7575070">
        <ele>641.8</ele>
        <time>2019-08-17T12:03:41Z</time>
      </trkpt>
      <trkpt lat="42.1089510" lon="-7.7575350">
        <ele>641.9</ele>
        <time>2019-08-17T12:03:42Z</time>
      </trkpt>
      <trkpt lat="42.1089810" lon="-7.7575610">
        <ele>642.1</ele>
        <time>2019-08-17T12:03:43Z</time>
      </trkpt>
      <trkpt lat="42.1090110" lon="-7.7575880">
        <ele>642.2</ele>
        <time>2019-08-17T12:03:44Z</time>
      </trkpt>
      <trkpt lat="42.1090420" lon="-7.7576130">
        <ele>642.4</ele>
        <time>2019-08-17T12:03:45Z</time>
      </trkpt>
      <trkpt lat="42.1090730" lon="-7.7576380">
        <ele>642.6</ele>
        <time>2019-08-17T12:03:46Z</time>
      </trkpt>
      <trkpt lat="42.1091050" lon="-7.7576610">
        <ele>642.8</ele>
        <time>2019-08-17T12:03:47Z</time>
      </trkpt>
      <trkpt lat="42.1091370" lon="-7.7576840">
        <ele>642.8</ele>
        <time>2019-08-17T12:03:48Z</time>
      </trkpt>
      <trkpt lat="42.1091700" lon="-7.7577060">
        <ele>642.9</ele>
        <time>2019-08-17T12:03:49Z</time>
      </trkpt>
      <trkpt lat="42.1092050" lon="-7.7577270">
        <ele>643.0</ele>
        <time>2019-08-17T12:03:50Z</time>
      </trkpt>
      <trkpt lat="42.1092400" lon="-7.7577470">
        <ele>643.0</ele>
        <time>2019-08-17T12:03:51Z</time>
      </trkpt>
      <trkpt lat="42.1092760" lon="-7.7577650">
        <ele>643.1</ele>
        <time>2019-08-17T12:03:52Z</time>
      </trkpt>
      <trkpt lat="42.1093140" lon="-7.7577830">
        <ele>643.2</ele>
        <time>2019-08-17T12:03:53Z</time>
      </trkpt>
      <trkpt lat="42.1093510" lon="-7.7578010">
        <ele>643.3</ele>
        <time>2019-08-17T12:03:54Z</time>
      </trkpt>
      <trkpt lat="42.1093890" lon="-7.7578180">
        <ele>643.4</ele>
        <time>2019-08-17T12:03:55Z</time>
      </trkpt>
      <trkpt lat="42.1094280" lon="-7.7578340">
        <ele>643.5</ele>
        <time>2019-08-17T12:03:56Z</time>
      </trkpt>
      <trkpt lat="42.1094660" lon="-7.7578500">
        <ele>643.6</ele>
        <time>2019-08-17T12:03:57Z</time>
      </trkpt>
      <trkpt lat="42.1095050" lon="-7.7578660">
        <ele>643.7</ele>
        <time>2019-08-17T12:03:58Z</time>
      </trkpt>
      <trkpt lat="42.1095430" lon="-7.7578810">
        <ele>643.7</ele>
        <time>2019-08-17T12:03:59Z</time>
      </trkpt>
      <trkpt lat="42.1095820" lon="-7.7578950">
        <ele>643.8</ele>
        <time>2019-08-17T12:04:00Z</time>
      </trkpt>
      <trkpt lat="42.1096210" lon="-7.7579070">
        <ele>643.9</ele>
        <time>2019-08-17T12:04:01Z</time>
      </trkpt>
      <trkpt lat="42.1096600" lon="-7.7579160">
        <ele>644.0</ele>
        <time>2019-08-17T12:04:02Z</time>
      </trkpt>
      <trkpt lat="42.1097000" lon="-7.7579220">
        <ele>644.0</ele>
        <time>2019-08-17T12:04:03Z</time>
      </trkpt>
      <trkpt lat="42.1097400" lon="-7.7579270">
        <ele>644.1</ele>
        <time>2019-08-17T12:04:04Z</time>
      </trkpt>
      <trkpt lat="42.1097810" lon="-7.7579320">
        <ele>644.2</ele>
        <time>2019-08-17T12:04:05Z</time>
      </trkpt>
      <trkpt lat="42.1098220" lon="-7.7579360">
        <ele>644.2</ele>
        <time>2019-08-17T12:04:06Z</time>
      </trkpt>
      <trkpt lat="42.1098630" lon="-7.7579400">
        <ele>644.3</ele>
        <time>2019-08-17T12:04:07Z</time>
      </trkpt>
      <trkpt lat="42.1099040" lon="-7.7579440">
        <ele>644.3</ele>
        <time>2019-08-17T12:04:08Z</time>
      </trkpt>
      <trkpt lat="42.1099460" lon="-7.7579460">
        <ele>644.3</ele>
        <time>2019-08-17T12:04:09Z</time>
      </trkpt>
      <trkpt lat="42.1099880" lon="-7.7579490">
        <ele>644.4</ele>
        <time>2019-08-17T12:04:10Z</time>
      </trkpt>
      <trkpt lat="42.1100310" lon="-7.7579500">
        <ele>644.4</ele>
        <time>2019-08-17T12:04:11Z</time>
      </trkpt>
      <trkpt lat="42.1100740" lon="-7.7579490">
        <ele>644.4</ele>
        <time>2019-08-17T12:04:12Z</time>
      </trkpt>
      <trkpt lat="42.1101170" lon="-7.7579470">
        <ele>644.5</ele>
        <time>2019-08-17T12:04:13Z</time>
      </trkpt>
      <trkpt lat="42.1101610" lon="-7.7579440">
        <ele>644.5</ele>
        <time>2019-08-17T12:04:14Z</time>
      </trkpt>
      <trkpt lat="42.1102060" lon="-7.7579390">
        <ele>644.5</ele>
        <time>2019-08-17T12:04:15Z</time>
      </trkpt>
      <trkpt lat="42.1102510" lon="-7.7579330">
        <ele>644.5</ele>
        <time>2019-08-17T12:04:16Z</time>
      </trkpt>
      <trkpt lat="42.1102980" lon="-7.7579250">
        <ele>644.4</ele>
        <time>2019-08-17T12:04:17Z</time>
      </trkpt>
      <trkpt lat="42.1103450" lon="-7.7579170">
        <ele>644.4</ele>
        <time>2019-08-17T12:04:18Z</time>
      </trkpt>
      <trkpt lat="42.1103940" lon="-7.7579070">
        <ele>644.4</ele>
        <time>2019-08-17T12:04:19Z</time>
      </trkpt>
      <trkpt lat="42.1104440" lon="-7.7578970">
        <ele>644.4</ele>
        <time>2019-08-17T12:04:20Z</time>
      </trkpt>
      <trkpt lat="42.1104960" lon="-7.7578870">
        <ele>644.3</ele>
        <time>2019-08-17T12:04:21Z</time>
      </trkpt>
      <trkpt lat="42.1105500" lon="-7.7578760">
        <ele>644.2</ele>
        <time>2019-08-17T12:04:22Z</time>
      </trkpt>
      <trkpt lat="42.1106050" lon="-7.7578650">
        <ele>644.1</ele>
        <time>2019-08-17T12:04:23Z</time>
      </trkpt>
      <trkpt lat="42.1106610" lon="-7.7578530">
        <ele>644.1</ele>
        <time>2019-08-17T12:04:24Z</time>
      </trkpt>
      <trkpt lat="42.1107180" lon="-7.7578410">
        <ele>644.0</ele>
        <time>2019-08-17T12:04:25Z</time>
      </trkpt>
      <trkpt lat="42.1107750" lon="-7.7578270">
        <ele>643.9</ele>
        <time>2019-08-17T12:04:26Z</time>
      </trkpt>
      <trkpt lat="42.1108330" lon="-7.7578120">
        <ele>643.9</ele>
        <time>2019-08-17T12:04:27Z</time>
      </trkpt>
      <trkpt lat="42.1108910" lon="-7.7577960">
        <ele>643.7</ele>
        <time>2019-08-17T12:04:28Z</time>
      </trkpt>
      <trkpt lat="42.1109500" lon="-7.7577790">
        <ele>643.6</ele>
        <time>2019-08-17T12:04:29Z</time>
      </trkpt>
      <trkpt lat="42.1110110" lon="-7.7577610">
        <ele>643.4</ele>
        <time>2019-08-17T12:04:30Z</time>
      </trkpt>
      <trkpt lat="42.1110730" lon="-7.7577420">
        <ele>643.3</ele>
        <time>2019-08-17T12:04:31Z</time>
      </trkpt>
      <trkpt lat="42.1111350" lon="-7.7577230">
        <ele>643.1</ele>
        <time>2019-08-17T12:04:32Z</time>
      </trkpt>
      <trkpt lat="42.1111990" lon="-7.7577020">
        <ele>642.9</ele>
        <time>2019-08-17T12:04:33Z</time>
      </trkpt>
      <trkpt lat="42.1112640" lon="-7.7576810">
        <ele>642.7</ele>
        <time>2019-08-17T12:04:34Z</time>
      </trkpt>
      <trkpt lat="42.1113310" lon="-7.7576590">
        <ele>642.5</ele>
        <time>2019-08-17T12:04:35Z</time>
      </trkpt>
      <trkpt lat="42.1113980" lon="-7.7576360">
        <ele>642.3</ele>
        <time>2019-08-17T12:04:36Z</time>
      </trkpt>
      <trkpt lat="42.1114670" lon="-7.7576120">
        <ele>642.0</ele>
        <time>2019-08-17T12:04:37Z</time>
      </trkpt>
      <trkpt lat="42.1115360" lon="-7.7575870">
        <ele>641.8</ele>
        <time>2019-08-17T12:04:38Z</time>
      </trkpt>
      <trkpt lat="42.1116070" lon="-7.7575610">
        <ele>641.6</ele>
        <time>2019-08-17T12:04:39Z</time>
      </trkpt>
      <trkpt lat="42.1116800" lon="-7.7575350">
        <ele>641.4</ele>
        <time>2019-08-17T12:04:40Z</time>
      </trkpt>
      <trkpt lat="42.1117530" lon="-7.7575070">
        <ele>641.2</ele>
        <time>2019-08-17T12:04:41Z</time>
      </trkpt>
      <trkpt lat="42.1118280" lon="-7.7574790">
        <ele>641.1</ele>
        <time>2019-08-17T12:04:42Z</time>
      </trkpt>
      <trkpt lat="42.1119040" lon="-7.7574490">
        <ele>640.9</ele>
        <time>2019-08-17T12:04:43Z</time>
      </trkpt>
      <trkpt lat="42.1119810" lon="-7.7574190">
        <ele>640.8</ele>
        <time>2019-08-17T12:04:44Z</time>
      </trkpt>
      <trkpt lat="42.1120590" lon="-7.7573880">
        <ele>640.7</ele>
        <time>2019-08-17T12:04:45Z</time>
      </trkpt>
      <trkpt lat="42.1121360" lon="-7.7573570">
        <ele>640.6</ele>
        <time>2019-08-17T12:04:46Z</time>
      </trkpt>
      <trkpt lat="42.1122110" lon="-7.7573260">
        <ele>640.5</ele>
        <time>2019-08-17T12:04:47Z</time>
      </trkpt>
      <trkpt lat="42.1122800" lon="-7.7572960">
        <ele>640.4</ele>
        <time>2019-08-17T12:04:48Z</time>
      </trkpt>
      <trkpt lat="42.1123430" lon="-7.7572670">
        <ele>640.3</ele>
        <time>2019-08-17T12:04:49Z</time>
      </trkpt>
      <trkpt lat="42.1123970" lon="-7.7572410">
        <ele>640.2</ele>
        <time>2019-08-17T12:04:50Z</time>
      </trkpt>
      <trkpt lat="42.1124420" lon="-7.7572190">
        <ele>640.2</ele>
        <time>2019-08-17T12:04:51Z</time>
      </trkpt>
      <trkpt lat="42.1124760" lon="-7.7572010">
        <ele>640.1</ele>
        <time>2019-08-17T12:04:52Z</time>
      </trkpt>
      <trkpt lat="42.1125410" lon="-7.7571760">
        <ele>640.1</ele>
        <time>2019-08-17T12:04:53Z</time>
      </trkpt>
      <trkpt lat="42.1125830" lon="-7.7571620">
        <ele>640.0</ele>
        <time>2019-08-17T12:04:54Z</time>
      </trkpt>
      <trkpt lat="42.1126250" lon="-7.7571470">
        <ele>640.0</ele>
        <time>2019-08-17T12:04:55Z</time>
      </trkpt>
      <trkpt lat="42.1126670" lon="-7.7571330">
        <ele>640.0</ele>
        <time>2019-08-17T12:04:56Z</time>
      </trkpt>
      <trkpt lat="42.1127080" lon="-7.7571190">
        <ele>640.0</ele>
        <time>2019-08-17T12:04:57Z</time>
      </trkpt>
      <trkpt lat="42.1127500" lon="-7.7571050">
        <ele>640.0</ele>
        <time>2019-08-17T12:04:58Z</time>
      </trkpt>
      <trkpt lat="42.1127920" lon="-7.7570900">
        <ele>639.9</ele>
        <time>2019-08-17T12:06:14Z</time>
      </trkpt>
      <trkpt lat="42.1128340" lon="-7.7570760">
        <ele>639.9</ele>
        <time>2019-08-17T12:06:15Z</time>
      </trkpt>
      <trkpt lat="42.1129390" lon="-7.7570370">
        <ele>639.9</ele>
        <time>2019-08-17T12:06:16Z</time>
      </trkpt>
      <trkpt lat="42.1129900" lon="-7.7570140">
        <ele>639.8</ele>
        <time>2019-08-17T12:06:17Z</time>
      </trkpt>
      <trkpt lat="42.1130420" lon="-7.7569940">
        <ele>639.8</ele>
        <time>2019-08-17T12:06:18Z</time>
      </trkpt>
      <trkpt lat="42.1130960" lon="-7.7569790">
        <ele>639.7</ele>
        <time>2019-08-17T12:06:19Z</time>
      </trkpt>
      <trkpt lat="42.1131510" lon="-7.7569670">
        <ele>639.7</ele>
        <time>2019-08-17T12:06:20Z</time>
      </trkpt>
      <trkpt lat="42.1132070" lon="-7.7569540">
        <ele>639.6</ele>
        <time>2019-08-17T12:06:21Z</time>
      </trkpt>
      <trkpt lat="42.1132660" lon="-7.7569410">
        <ele>639.5</ele>
        <time>2019-08-17T12:06:22Z</time>
      </trkpt>
      <trkpt lat="42.1133260" lon="-7.7569290">
        <ele>639.4</ele>
        <time>2019-08-17T12:06:23Z</time>
      </trkpt>
      <trkpt lat="42.1134300" lon="-7.7569120">
        <ele>639.2</ele>
        <time>2019-08-17T12:06:24Z</time>
      </trkpt>
      <trkpt lat="42.1134720" lon="-7.7569050">
        <ele>639.1</ele>
        <time>2019-08-17T12:06:25Z</time>
      </trkpt>
      <trkpt lat="42.1135150" lon="-7.7568990">
        <ele>639.0</ele>
        <time>2019-08-17T12:06:26Z</time>
      </trkpt>
      <trkpt lat="42.1135800" lon="-7.7568910">
        <ele>638.3</ele>
        <time>2019-08-17T12:06:27Z</time>
      </trkpt>
      <trkpt lat="42.1136470" lon="-7.7568840">
        <ele>637.7</ele>
        <time>2019-08-17T12:06:28Z</time>
      </trkpt>
      <trkpt lat="42.1137610" lon="-7.7568750">
        <ele>636.9</ele>
        <time>2019-08-17T12:06:29Z</time>
      </trkpt>
      <trkpt lat="42.1138060" lon="-7.7568720">
        <ele>636.6</ele>
        <time>2019-08-17T12:06:30Z</time>
      </trkpt>
      <trkpt lat="42.1138520" lon="-7.7568690">
        <ele>636.4</ele>
        <time>2019-08-17T12:06:31Z</time>
      </trkpt>
      <trkpt lat="42.1139220" lon="-7.7568650">
        <ele>636.1</ele>
        <time>2019-08-17T12:06:32Z</time>
      </trkpt>
      <trkpt lat="42.1139930" lon="-7.7568630">
        <ele>635.9</ele>
        <time>2019-08-17T12:06:33Z</time>
      </trkpt>
      <trkpt lat="42.1141120" lon="-7.7568600">
        <ele>635.5</ele>
        <time>2019-08-17T12:06:34Z</time>
      </trkpt>
      <trkpt lat="42.1141610" lon="-7.7568590">
        <ele>635.4</ele>
        <time>2019-08-17T12:06:35Z</time>
      </trkpt>
      <trkpt lat="42.1142090" lon="-7.7568580">
        <ele>635.2</ele>
        <time>2019-08-17T12:06:36Z</time>
      </trkpt>
      <trkpt lat="42.1142830" lon="-7.7568570">
        <ele>634.9</ele>
        <time>2019-08-17T12:06:37Z</time>
      </trkpt>
      <trkpt lat="42.1143570" lon="-7.7568560">
        <ele>634.7</ele>
        <time>2019-08-17T12:06:38Z</time>
      </trkpt>
      <trkpt lat="42.1144830" lon="-7.7568550">
        <ele>634.2</ele>
        <time>2019-08-17T12:06:39Z</time>
      </trkpt>
      <trkpt lat="42.1145340" lon="-7.7568540">
        <ele>634.1</ele>
        <time>2019-08-17T12:06:40Z</time>
      </trkpt>
      <trkpt lat="42.1145840" lon="-7.7568540">
        <ele>633.9</ele>
        <time>2019-08-17T12:06:41Z</time>
      </trkpt>
      <trkpt lat="42.1146600" lon="-7.7568530">
        <ele>633.6</ele>
        <time>2019-08-17T12:06:42Z</time>
      </trkpt>
      <trkpt lat="42.1147360" lon="-7.7568520">
        <ele>633.3</ele>
        <time>2019-08-17T12:06:43Z</time>
      </trkpt>
      <trkpt lat="42.1148110" lon="-7.7568510">
        <ele>632.9</ele>
        <time>2019-08-17T12:06:44Z</time>
      </trkpt>
      <trkpt lat="42.1148860" lon="-7.7568500">
        <ele>632.6</ele>
        <time>2019-08-17T12:06:45Z</time>
      </trkpt>
      <trkpt lat="42.1149600" lon="-7.7568490">
        <ele>632.4</ele>
        <time>2019-08-17T12:06:46Z</time>
      </trkpt>
      <trkpt lat="42.1150340" lon="-7.7568470">
        <ele>632.2</ele>
        <time>2019-08-17T12:06:47Z</time>
      </trkpt>
      <trkpt lat="42.1151060" lon="-7.7568450">
        <ele>632.1</ele>
        <time>2019-08-17T12:06:48Z</time>
      </trkpt>
      <trkpt lat="42.1151790" lon="-7.7568430">
        <ele>632.0</ele>
        <time>2019-08-17T12:06:49Z</time>
      </trkpt>
      <trkpt lat="42.1152500" lon="-7.7568410">
        <ele>632.0</ele>
        <time>2019-08-17T12:06:50Z</time>
      </trkpt>
      <trkpt lat="42.1153220" lon="-7.7568390">
        <ele>632.0</ele>
        <time>2019-08-17T12:06:51Z</time>
      </trkpt>
      <trkpt lat="42.1153930" lon="-7.7568370">
        <ele>632.0</ele>
        <time>2019-08-17T12:06:52Z</time>
      </trkpt>
      <trkpt lat="42.1154630" lon="-7.7568350">
        <ele>632.0</ele>
        <time>2019-08-17T12:06:53Z</time>
      </trkpt>
      <trkpt lat="42.1155340" lon="-7.7568330">
        <ele>632.0</ele>
        <time>2019-08-17T12:06:54Z</time>
      </trkpt>
      <trkpt lat="42.1156050" lon="-7.7568310">
        <ele>631.8</ele>
        <time>2019-08-17T12:06:55Z</time>
      </trkpt>
      <trkpt lat="42.1156760" lon="-7.7568280">
        <ele>631.6</ele>
        <time>2019-08-17T12:06:56Z</time>
      </trkpt>
      <trkpt lat="42.1157470" lon="-7.7568260">
        <ele>631.2</ele>
        <time>2019-08-17T12:06:57Z</time>
      </trkpt>
      <trkpt lat="42.1158190" lon="-7.7568240">
        <ele>630.9</ele>
        <time>2019-08-17T12:06:58Z</time>
      </trkpt>
      <trkpt lat="42.1158900" lon="-7.7568220">
        <ele>630.6</ele>
        <time>2019-08-17T12:06:59Z</time>
      </trkpt>
      <trkpt lat="42.1159630" lon="-7.7568200">
        <ele>630.4</ele>
        <time>2019-08-17T12:07:00Z</time>
      </trkpt>
      <trkpt lat="42.1160850" lon="-7.7568170">
        <ele>630.2</ele>
        <time>2019-08-17T12:07:01Z</time>
      </trkpt>
      <trkpt lat="42.1161340" lon="-7.7568160">
        <ele>630.1</ele>
        <time>2019-08-17T12:07:02Z</time>
      </trkpt>
      <trkpt lat="42.1161830" lon="-7.7568150">
        <ele>630.0</ele>
        <time>2019-08-17T12:07:03Z</time>
      </trkpt>
      <trkpt lat="42.1162580" lon="-7.7568130">
        <ele>629.9</ele>
        <time>2019-08-17T12:07:04Z</time>
      </trkpt>
      <trkpt lat="42.1163330" lon="-7.7568120">
        <ele>629.7</ele>
        <time>2019-08-17T12:07:05Z</time>
      </trkpt>
      <trkpt lat="42.1164460" lon="-7.7568110">
        <ele>629.4</ele>
        <time>2019-08-17T12:07:06Z</time>
      </trkpt>
      <trkpt lat="42.1164830" lon="-7.7568100">
        <ele>629.3</ele>
        <time>2019-08-17T12:07:07Z</time>
      </trkpt>
      <trkpt lat="42.1165580" lon="-7.7568090">
        <ele>629.2</ele>
        <time>2019-08-17T12:07:08Z</time>
      </trkpt>
      <trkpt lat="42.1166330" lon="-7.7568070">
        <ele>629.1</ele>
        <time>2019-08-17T12:07:09Z</time>
      </trkpt>
      <trkpt lat="42.1167070" lon="-7.7568060">
        <ele>629.1</ele>
        <time>2019-08-17T12:07:10Z</time>
      </trkpt>
      <trkpt lat="42.1167820" lon="-7.7568050">
        <ele>629.1</ele>
        <time>2019-08-17T12:07:11Z</time>
      </trkpt>
      <trkpt lat="42.1168550" lon="-7.7568040">
        <ele>629.2</ele>
        <time>2019-08-17T12:07:12Z</time>
      </trkpt>
      <trkpt lat="42.1169760" lon="-7.7568020">
        <ele>629.2</ele>
        <time>2019-08-17T12:07:13Z</time>
      </trkpt>
      <trkpt lat="42.1170240" lon="-7.7568010">
        <ele>629.2</ele>
        <time>2019-08-17T12:07:14Z</time>
      </trkpt>
      <trkpt lat="42.1170720" lon="-7.7568000">
        <ele>629.2</ele>
        <time>2019-08-17T12:07:15Z</time>
      </trkpt>
      <trkpt lat="42.1171420" lon="-7.7567980">
        <ele>629.1</ele>
        <time>2019-08-17T12:07:16Z</time>
      </trkpt>
      <trkpt lat="42.1172110" lon="-7.7567960">
        <ele>629.1</ele>
        <time>2019-08-17T12:07:17Z</time>
      </trkpt>
      <trkpt lat="42.1173230" lon="-7.7567940">
        <ele>629.1</ele>
        <time>2019-08-17T12:07:18Z</time>
      </trkpt>
      <trkpt lat="42.1173680" lon="-7.7567920">
        <ele>629.1</ele>
        <time>2019-08-17T12:07:19Z</time>
      </trkpt>
      <trkpt lat="42.1174120" lon="-7.7567910">
        <ele>629.1</ele>
        <time>2019-08-17T12:07:20Z</time>
      </trkpt>
      <trkpt lat="42.1174770" lon="-7.7567890">
        <ele>629.1</ele>
        <time>2019-08-17T12:07:21Z</time>
      </trkpt>
      <trkpt lat="42.1175410" lon="-7.7567870">
        <ele>629.1</ele>
        <time>2019-08-17T12:07:22Z</time>
      </trkpt>
      <trkpt lat="42.1176040" lon="-7.7567850">
        <ele>629.2</ele>
        <time>2019-08-17T12:07:23Z</time>
      </trkpt>
      <trkpt lat="42.1176670" lon="-7.7567830">
        <ele>629.2</ele>
        <time>2019-08-17T12:07:24Z</time>
      </trkpt>
      <trkpt lat="42.1177290" lon="-7.7567820">
        <ele>629.3</ele>
        <time>2019-08-17T12:07:25Z</time>
      </trkpt>
      <trkpt lat="42.1177900" lon="-7.7567800">
        <ele>629.4</ele>
        <time>2019-08-17T12:07:26Z</time>
      </trkpt>
      <trkpt lat="42.1178510" lon="-7.7567780">
        <ele>629.5</ele>
        <time>2019-08-17T12:07:27Z</time>
      </trkpt>
      <trkpt lat="42.1179120" lon="-7.7567770">
        <ele>629.6</ele>
        <time>2019-08-17T12:07:28Z</time>
      </trkpt>
      <trkpt lat="42.1179720" lon="-7.7567750">
        <ele>629.7</ele>
        <time>2019-08-17T12:07:29Z</time>
      </trkpt>
      <trkpt lat="42.1180330" lon="-7.7567720">
        <ele>629.9</ele>
        <time>2019-08-17T12:07:30Z</time>
      </trkpt>
      <trkpt lat="42.1180930" lon="-7.7567690">
        <ele>630.0</ele>
        <time>2019-08-17T12:07:31Z</time>
      </trkpt>
      <trkpt lat="42.1181530" lon="-7.7567660">
        <ele>630.1</ele>
        <time>2019-08-17T12:07:32Z</time>
      </trkpt>
      <trkpt lat="42.1182130" lon="-7.7567620">
        <ele>630.1</ele>
        <time>2019-08-17T12:07:33Z</time>
      </trkpt>
      <trkpt lat="42.1183140" lon="-7.7567530">
        <ele>630.2</ele>
        <time>2019-08-17T12:07:34Z</time>
      </trkpt>
      <trkpt lat="42.1183550" lon="-7.7567490">
        <ele>630.2</ele>
        <time>2019-08-17T12:07:35Z</time>
      </trkpt>
      <trkpt lat="42.1183950" lon="-7.7567450">
        <ele>630.2</ele>
        <time>2019-08-17T12:07:36Z</time>
      </trkpt>
      <trkpt lat="42.1184560" lon="-7.7567380">
        <ele>630.2</ele>
        <time>2019-08-17T12:07:37Z</time>
      </trkpt>
      <trkpt lat="42.1185170" lon="-7.7567300">
        <ele>630.2</ele>
        <time>2019-08-17T12:07:38Z</time>
      </trkpt>
      <trkpt lat="42.1186170" lon="-7.7567130">
        <ele>630.3</ele>
        <time>2019-08-17T12:07:39Z</time>
      </trkpt>
      <trkpt lat="42.1186580" lon="-7.7567060">
        <ele>630.3</ele>
        <time>2019-08-17T12:07:40Z</time>
      </trkpt>
      <trkpt lat="42.1186980" lon="-7.7566990">
        <ele>630.4</ele>
        <time>2019-08-17T12:07:41Z</time>
      </trkpt>
      <trkpt lat="42.1187570" lon="-7.7566860">
        <ele>630.5</ele>
        <time>2019-08-17T12:07:42Z</time>
      </trkpt>
      <trkpt lat="42.1188170" lon="-7.7566720">
        <ele>630.6</ele>
        <time>2019-08-17T12:07:43Z</time>
      </trkpt>
      <trkpt lat="42.1188760" lon="-7.7566570">
        <ele>630.6</ele>
        <time>2019-08-17T12:07:44Z</time>
      </trkpt>
      <trkpt lat="42.1189340" lon="-7.7566400">
        <ele>630.7</ele>
        <time>2019-08-17T12:07:45Z</time>
      </trkpt>
      <trkpt lat="42.1189920" lon="-7.7566210">
        <ele>630.6</ele>
        <time>2019-08-17T12:07:46Z</time>
      </trkpt>
      <trkpt lat="42.1190490" lon="-7.7566010">
        <ele>630.6</ele>
        <time>2019-08-17T12:07:47Z</time>
      </trkpt>
      <trkpt lat="42.1191050" lon="-7.7565800">
        <ele>630.4</ele>
        <time>2019-08-17T12:07:48Z</time>
      </trkpt>
      <trkpt lat="42.1191600" lon="-7.7565560">
        <ele>630.3</ele>
        <time>2019-08-17T12:07:49Z</time>
      </trkpt>
      <trkpt lat="42.1192150" lon="-7.7565320">
        <ele>630.4</ele>
        <time>2019-08-17T12:07:50Z</time>
      </trkpt>
      <trkpt lat="42.1192680" lon="-7.7565050">
        <ele>630.5</ele>
        <time>2019-08-17T12:07:51Z</time>
      </trkpt>
      <trkpt lat="42.1193210" lon="-7.7564770">
        <ele>630.6</ele>
        <time>2019-08-17T12:07:52Z</time>
      </trkpt>
      <trkpt lat="42.1193730" lon="-7.7564480">
        <ele>630.7</ele>
        <time>2019-08-17T12:07:53Z</time>
      </trkpt>
      <trkpt lat="42.1194250" lon="-7.7564170">
        <ele>630.8</ele>
        <time>2019-08-17T12:07:54Z</time>
      </trkpt>
      <trkpt lat="42.1194760" lon="-7.7563850">
        <ele>630.9</ele>
        <time>2019-08-17T12:07:55Z</time>
      </trkpt>
      <trkpt lat="42.1195260" lon="-7.7563520">
        <ele>631.0</ele>
        <time>2019-08-17T12:07:56Z</time>
      </trkpt>
      <trkpt lat="42.1195750" lon="-7.7563170">
        <ele>631.1</ele>
        <time>2019-08-17T12:07:57Z</time>
      </trkpt>
      <trkpt lat="42.1196240" lon="-7.7562810">
        <ele>631.3</ele>
        <time>2019-08-17T12:07:58Z</time>
      </trkpt>
      <trkpt lat="42.1196720" lon="-7.7562440">
        <ele>631.4</ele>
        <time>2019-08-17T12:07:59Z</time>
      </trkpt>
      <trkpt lat="42.1197200" lon="-7.7562060">
        <ele>631.5</ele>
        <time>2019-08-17T12:08:00Z</time>
      </trkpt>
      <trkpt lat="42.1197670" lon="-7.7561670">
        <ele>631.6</ele>
        <time>2019-08-17T12:08:01Z</time>
      </trkpt>
      <trkpt lat="42.1198130" lon="-7.7561270">
        <ele>631.7</ele>
        <time>2019-08-17T12:08:02Z</time>
      </trkpt>
      <trkpt lat="42.1198590" lon="-7.7560860">
        <ele>631.9</ele>
        <time>2019-08-17T12:08:03Z</time>
      </trkpt>
      <trkpt lat="42.1199040" lon="-7.7560450">
        <ele>632.1</ele>
        <time>2019-08-17T12:08:04Z</time>
      </trkpt>
      <trkpt lat="42.1199490" lon="-7.7560020">
        <ele>632.3</ele>
        <time>2019-08-17T12:08:05Z</time>
      </trkpt>
      <trkpt lat="42.1199930" lon="-7.7559580">
        <ele>632.5</ele>
        <time>2019-08-17T12:08:06Z</time>
      </trkpt>
      <trkpt lat="42.1200360" lon="-7.7559140">
        <ele>632.7</ele>
        <time>2019-08-17T12:08:07Z</time>
      </trkpt>
      <trkpt lat="42.1200780" lon="-7.7558680">
        <ele>632.9</ele>
        <time>2019-08-17T12:08:08Z</time>
      </trkpt>
      <trkpt lat="42.1201190" lon="-7.7558230">
        <ele>633.1</ele>
        <time>2019-08-17T12:08:09Z</time>
      </trkpt>
      <trkpt lat="42.1201590" lon="-7.7557770">
        <ele>633.3</ele>
        <time>2019-08-17T12:08:10Z</time>
      </trkpt>
      <trkpt lat="42.1201970" lon="-7.7557310">
        <ele>633.4</ele>
        <time>2019-08-17T12:08:11Z</time>
      </trkpt>
      <trkpt lat="42.1202350" lon="-7.7556870">
        <ele>633.5</ele>
        <time>2019-08-17T12:08:12Z</time>
      </trkpt>
      <trkpt lat="42.1202710" lon="-7.7556440">
        <ele>633.6</ele>
        <time>2019-08-17T12:08:13Z</time>
      </trkpt>
      <trkpt lat="42.1203050" lon="-7.7556020">
        <ele>633.7</ele>
        <time>2019-08-17T12:08:14Z</time>
      </trkpt>
      <trkpt lat="42.1203390" lon="-7.7555610">
        <ele>633.8</ele>
        <time>2019-08-17T12:08:15Z</time>
      </trkpt>
      <trkpt lat="42.1203720" lon="-7.7555220">
        <ele>633.9</ele>
        <time>2019-08-17T12:08:16Z</time>
      </trkpt>
      <trkpt lat="42.1204040" lon="-7.7554830">
        <ele>633.9</ele>
        <time>2019-08-17T12:08:17Z</time>
      </trkpt>
      <trkpt lat="42.1204350" lon="-7.7554460">
        <ele>634.0</ele>
        <time>2019-08-17T12:08:18Z</time>
      </trkpt>
      <trkpt lat="42.1204650" lon="-7.7554100">
        <ele>634.0</ele>
        <time>2019-08-17T12:08:19Z</time>
      </trkpt>
      <trkpt lat="42.1204950" lon="-7.7553750">
        <ele>634.1</ele>
        <time>2019-08-17T12:08:20Z</time>
      </trkpt>
      <trkpt lat="42.1205230" lon="-7.7553400">
        <ele>634.1</ele>
        <time>2019-08-17T12:08:21Z</time>
      </trkpt>
      <trkpt lat="42.1205520" lon="-7.7553070">
        <ele>634.2</ele>
        <time>2019-08-17T12:08:22Z</time>
      </trkpt>
      <trkpt lat="42.1205800" lon="-7.7552730">
        <ele>634.2</ele>
        <time>2019-08-17T12:08:23Z</time>
      </trkpt>
      <trkpt lat="42.1206080" lon="-7.7552400">
        <ele>634.2</ele>
        <time>2019-08-17T12:08:24Z</time>
      </trkpt>
      <trkpt lat="42.1206360" lon="-7.7552060">
        <ele>634.3</ele>
        <time>2019-08-17T12:08:25Z</time>
      </trkpt>
      <trkpt lat="42.1206640" lon="-7.7551720">
        <ele>634.3</ele>
        <time>2019-08-17T12:08:26Z</time>
      </trkpt>
      <trkpt lat="42.1206910" lon="-7.7551370">
        <ele>634.3</ele>
        <time>2019-08-17T12:08:27Z</time>
      </trkpt>
      <trkpt lat="42.1207190" lon="-7.7551020">
        <ele>634.4</ele>
        <time>2019-08-17T12:08:28Z</time>
      </trkpt>
      <trkpt lat="42.1207470" lon="-7.7550660">
        <ele>634.5</ele>
        <time>2019-08-17T12:08:29Z</time>
      </trkpt>
      <trkpt lat="42.1207760" lon="-7.7550300">
        <ele>634.5</ele>
        <time>2019-08-17T12:08:30Z</time>
      </trkpt>
      <trkpt lat="42.1208040" lon="-7.7549940">
        <ele>634.6</ele>
        <time>2019-08-17T12:08:31Z</time>
      </trkpt>
      <trkpt lat="42.1208330" lon="-7.7549570">
        <ele>634.7</ele>
        <time>2019-08-17T12:08:32Z</time>
      </trkpt>
      <trkpt lat="42.1208620" lon="-7.7549190">
        <ele>634.9</ele>
        <time>2019-08-17T12:08:33Z</time>
      </trkpt>
      <trkpt lat="42.1208910" lon="-7.7548820">
        <ele>635.0</ele>
        <time>2019-08-17T12:08:34Z</time>
      </trkpt>
      <trkpt lat="42.1209210" lon="-7.7548450">
        <ele>635.2</ele>
        <time>2019-08-17T12:08:35Z</time>
      </trkpt>
      <trkpt lat="42.1209510" lon="-7.7548070">
        <ele>635.3</ele>
        <time>2019-08-17T12:08:36Z</time>
      </trkpt>
      <trkpt lat="42.1209810" lon="-7.7547700">
        <ele>635.5</ele>
        <time>2019-08-17T12:08:37Z</time>
      </trkpt>
      <trkpt lat="42.1210110" lon="-7.7547330">
        <ele>635.7</ele>
        <time>2019-08-17T12:08:38Z</time>
      </trkpt>
      <trkpt lat="42.1210400" lon="-7.7546960">
        <ele>635.9</ele>
        <time>2019-08-17T12:08:39Z</time>
      </trkpt>
      <trkpt lat="42.1210700" lon="-7.7546600">
        <ele>636.1</ele>
        <time>2019-08-17T12:08:40Z</time>
      </trkpt>
      <trkpt lat="42.1210980" lon="-7.7546250">
        <ele>636.3</ele>
        <time>2019-08-17T12:08:41Z</time>
      </trkpt>
      <trkpt lat="42.1211260" lon="-7.7545900">
        <ele>636.5</ele>
        <time>2019-08-17T12:08:42Z</time>
      </trkpt>
      <trkpt lat="42.1211530" lon="-7.7545560">
        <ele>636.7</ele>
        <time>2019-08-17T12:08:43Z</time>
      </trkpt>
      <trkpt lat="42.1211790" lon="-7.7545230">
        <ele>636.9</ele>
        <time>2019-08-17T12:08:44Z</time>
      </trkpt>
      <trkpt lat="42.1212050" lon="-7.7544900">
        <ele>637.0</ele>
        <time>2019-08-17T12:08:45Z</time>
      </trkpt>
      <trkpt lat="42.1212300" lon="-7.7544580">
        <ele>637.2</ele>
        <time>2019-08-17T12:08:46Z</time>
      </trkpt>
      <trkpt lat="42.1212550" lon="-7.7544260">
        <ele>637.4</ele>
        <time>2019-08-17T12:08:47Z</time>
      </trkpt>
      <trkpt lat="42.1212800" lon="-7.7543950">
        <ele>637.5</ele>
        <time>2019-08-17T12:08:48Z</time>
      </trkpt>
      <trkpt lat="42.1213040" lon="-7.7543640">
        <ele>637.7</ele>
        <time>2019-08-17T12:08:49Z</time>
      </trkpt>
      <trkpt lat="42.1213290" lon="-7.7543330">
        <ele>637.9</ele>
        <time>2019-08-17T12:08:50Z</time>
      </trkpt>
      <trkpt lat="42.1213530" lon="-7.7543030">
        <ele>638.0</ele>
        <time>2019-08-17T12:08:51Z</time>
      </trkpt>
      <trkpt lat="42.1213780" lon="-7.7542720">
        <ele>638.2</ele>
        <time>2019-08-17T12:08:52Z</time>
      </trkpt>
      <trkpt lat="42.1214030" lon="-7.7542420">
        <ele>638.4</ele>
        <time>2019-08-17T12:08:53Z</time>
      </trkpt>
      <trkpt lat="42.1214280" lon="-7.7542120">
        <ele>638.5</ele>
        <time>2019-08-17T12:08:54Z</time>
      </trkpt>
      <trkpt lat="42.1214530" lon="-7.7541820">
        <ele>638.7</ele>
        <time>2019-08-17T12:08:55Z</time>
      </trkpt>
      <trkpt lat="42.1214780" lon="-7.7541520">
        <ele>638.8</ele>
        <time>2019-08-17T12:08:56Z</time>
      </trkpt>
      <trkpt lat="42.1215040" lon="-7.7541220">
        <ele>638.9</ele>
        <time>2019-08-17T12:08:57Z</time>
      </trkpt>
      <trkpt lat="42.1215290" lon="-7.7540920">
        <ele>639.1</ele>
        <time>2019-08-17T12:08:58Z</time>
      </trkpt>
      <trkpt lat="42.1215550" lon="-7.7540630">
        <ele>639.2</ele>
        <time>2019-08-17T12:08:59Z</time>
      </trkpt>
      <trkpt lat="42.1215810" lon="-7.7540330">
        <ele>639.3</ele>
        <time>2019-08-17T12:09:00Z</time>
      </trkpt>
      <trkpt lat="42.1216070" lon="-7.7540040">
        <ele>639.4</ele>
        <time>2019-08-17T12:09:01Z</time>
      </trkpt>
      <trkpt lat="42.1216330" lon="-7.7539760">
        <ele>639.5</ele>
        <time>2019-08-17T12:09:02Z</time>
      </trkpt>
      <trkpt lat="42.1216590" lon="-7.7539480">
        <ele>639.6</ele>
        <time>2019-08-17T12:09:03Z</time>
      </trkpt>
      <trkpt lat="42.1216850" lon="-7.7539200">
        <ele>639.7</ele>
        <time>2019-08-17T12:09:04Z</time>
      </trkpt>
      <trkpt lat="42.1217110" lon="-7.7538930">
        <ele>639.8</ele>
        <time>2019-08-17T12:09:05Z</time>
      </trkpt>
      <trkpt lat="42.1217370" lon="-7.7538660">
        <ele>639.8</ele>
        <time>2019-08-17T12:09:06Z</time>
      </trkpt>
      <trkpt lat="42.1217630" lon="-7.7538400">
        <ele>639.9</ele>
        <time>2019-08-17T12:09:07Z</time>
      </trkpt>
      <trkpt lat="42.1217890" lon="-7.7538150">
        <ele>640.0</ele>
        <time>2019-08-17T12:09:08Z</time>
      </trkpt>
      <trkpt lat="42.1218150" lon="-7.7537900">
        <ele>640.0</ele>
        <time>2019-08-17T12:09:09Z</time>
      </trkpt>
      <trkpt lat="42.1218410" lon="-7.7537660">
        <ele>640.1</ele>
        <time>2019-08-17T12:09:10Z</time>
      </trkpt>
      <trkpt lat="42.1218670" lon="-7.7537430">
        <ele>640.2</ele>
        <time>2019-08-17T12:09:11Z</time>
      </trkpt>
      <trkpt lat="42.1218930" lon="-7.7537200">
        <ele>640.3</ele>
        <time>2019-08-17T12:09:12Z</time>
      </trkpt>
      <trkpt lat="42.1219200" lon="-7.7536980">
        <ele>640.4</ele>
        <time>2019-08-17T12:09:13Z</time>
      </trkpt>
      <trkpt lat="42.1219460" lon="-7.7536770">
        <ele>640.5</ele>
        <time>2019-08-17T12:09:14Z</time>
      </trkpt>
      <trkpt lat="42.1219730" lon="-7.7536560">
        <ele>640.6</ele>
        <time>2019-08-17T12:09:15Z</time>
      </trkpt>
      <trkpt lat="42.1220000" lon="-7.7536360">
        <ele>640.7</ele>
        <time>2019-08-17T12:09:16Z</time>
      </trkpt>
      <trkpt lat="42.1220270" lon="-7.7536170">
        <ele>640.8</ele>
        <time>2019-08-17T12:09:17Z</time>
      </trkpt>
      <trkpt lat="42.1220550" lon="-7.7535980">
        <ele>640.9</ele>
        <time>2019-08-17T12:09:18Z</time>
      </trkpt>
      <trkpt lat="42.1220830" lon="-7.7535800">
        <ele>641.0</ele>
        <time>2019-08-17T12:09:19Z</time>
      </trkpt>
      <trkpt lat="42.1221110" lon="-7.7535630">
        <ele>641.2</ele>
        <time>2019-08-17T12:09:20Z</time>
      </trkpt>
      <trkpt lat="42.1221400" lon="-7.7535460">
        <ele>641.3</ele>
        <time>2019-08-17T12:09:21Z</time>
      </trkpt>
      <trkpt lat="42.1221690" lon="-7.7535300">
        <ele>641.4</ele>
        <time>2019-08-17T12:09:22Z</time>
      </trkpt>
      <trkpt lat="42.1221990" lon="-7.7535150">
        <ele>641.5</ele>
        <time>2019-08-17T12:09:23Z</time>
      </trkpt>
      <trkpt lat="42.1222310" lon="-7.7535000">
        <ele>641.6</ele>
        <time>2019-08-17T12:09:24Z</time>
      </trkpt>
      <trkpt lat="42.1222630" lon="-7.7534870">
        <ele>641.7</ele>
        <time>2019-08-17T12:09:25Z</time>
      </trkpt>
      <trkpt lat="42.1222970" lon="-7.7534740">
        <ele>641.8</ele>
        <time>2019-08-17T12:09:26Z</time>
      </trkpt>
      <trkpt lat="42.1223330" lon="-7.7534610">
        <ele>641.9</ele>
        <time>2019-08-17T12:09:27Z</time>
      </trkpt>
      <trkpt lat="42.1223700" lon="-7.7534500">
        <ele>642.0</ele>
        <time>2019-08-17T12:09:28Z</time>
      </trkpt>
      <trkpt lat="42.1224100" lon="-7.7534390">
        <ele>642.2</ele>
        <time>2019-08-17T12:09:29Z</time>
      </trkpt>
      <trkpt lat="42.1224510" lon="-7.7534300">
        <ele>642.3</ele>
        <time>2019-08-17T12:09:30Z</time>
      </trkpt>
      <trkpt lat="42.1224940" lon="-7.7534210">
        <ele>642.5</ele>
        <time>2019-08-17T12:09:31Z</time>
      </trkpt>
      <trkpt lat="42.1225380" lon="-7.7534120">
        <ele>642.7</ele>
        <time>2019-08-17T12:09:32Z</time>
      </trkpt>
      <trkpt lat="42.1225820" lon="-7.7534050">
        <ele>642.8</ele>
        <time>2019-08-17T12:09:33Z</time>
      </trkpt>
      <trkpt lat="42.1226270" lon="-7.7533980">
        <ele>643.0</ele>
        <time>2019-08-17T12:09:34Z</time>
      </trkpt>
      <trkpt lat="42.1226720" lon="-7.7533920">
        <ele>643.2</ele>
        <time>2019-08-17T12:09:35Z</time>
      </trkpt>
      <trkpt lat="42.1227160" lon="-7.7533870">
        <ele>643.3</ele>
        <time>2019-08-17T12:09:36Z</time>
      </trkpt>
      <trkpt lat="42.1227600" lon="-7.7533830">
        <ele>643.5</ele>
        <time>2019-08-17T12:09:37Z</time>
      </trkpt>
      <trkpt lat="42.1228030" lon="-7.7533790">
        <ele>643.6</ele>
        <time>2019-08-17T12:09:38Z</time>
      </trkpt>
      <trkpt lat="42.1228460" lon="-7.7533760">
        <ele>643.8</ele>
        <time>2019-08-17T12:09:39Z</time>
      </trkpt>
      <trkpt lat="42.1228880" lon="-7.7533750">
        <ele>643.9</ele>
        <time>2019-08-17T12:09:40Z</time>
      </trkpt>
      <trkpt lat="42.1229300" lon="-7.7533740">
        <ele>644.1</ele>
        <time>2019-08-17T12:09:41Z</time>
      </trkpt>
      <trkpt lat="42.1229720" lon="-7.7533740">
        <ele>644.3</ele>
        <time>2019-08-17T12:09:42Z</time>
      </trkpt>
      <trkpt lat="42.1230140" lon="-7.7533750">
        <ele>644.5</ele>
        <time>2019-08-17T12:09:43Z</time>
      </trkpt>
      <trkpt lat="42.1230560" lon="-7.7533780">
        <ele>644.7</ele>
        <time>2019-08-17T12:09:44Z</time>
      </trkpt>
      <trkpt lat="42.1230980" lon="-7.7533810">
        <ele>644.8</ele>
        <time>2019-08-17T12:09:45Z</time>
      </trkpt>
      <trkpt lat="42.1231410" lon="-7.7533860">
        <ele>645.0</ele>
        <time>2019-08-17T12:09:46Z</time>
      </trkpt>
      <trkpt lat="42.1231830" lon="-7.7533910">
        <ele>645.1</ele>
        <time>2019-08-17T12:09:47Z</time>
      </trkpt>
      <trkpt lat="42.1232270" lon="-7.7533980">
        <ele>645.2</ele>
        <time>2019-08-17T12:09:48Z</time>
      </trkpt>
      <trkpt lat="42.1232700" lon="-7.7534040">
        <ele>645.4</ele>
        <time>2019-08-17T12:09:49Z</time>
      </trkpt>
      <trkpt lat="42.1233140" lon="-7.7534110">
        <ele>645.5</ele>
        <time>2019-08-17T12:09:50Z</time>
      </trkpt>
      <trkpt lat="42.1233590" lon="-7.7534170">
        <ele>645.6</ele>
        <time>2019-08-17T12:09:51Z</time>
      </trkpt>
      <trkpt lat="42.1234050" lon="-7.7534240">
        <ele>645.8</ele>
        <time>2019-08-17T12:09:52Z</time>
      </trkpt>
      <trkpt lat="42.1234510" lon="-7.7534300">
        <ele>645.9</ele>
        <time>2019-08-17T12:09:53Z</time>
      </trkpt>
      <trkpt lat="42.1234970" lon="-7.7534360">
        <ele>646.0</ele>
        <time>2019-08-17T12:09:54Z</time>
      </trkpt>
      <trkpt lat="42.1235440" lon="-7.7534420">
        <ele>646.1</ele>
        <time>2019-08-17T12:09:55Z</time>
      </trkpt>
      <trkpt lat="42.1235920" lon="-7.7534480">
        <ele>646.2</ele>
        <time>2019-08-17T12:09:56Z</time>
      </trkpt>
      <trkpt lat="42.1236390" lon="-7.7534540">
        <ele>646.3</ele>
        <time>2019-08-17T12:09:57Z</time>
      </trkpt>
      <trkpt lat="42.1236860" lon="-7.7534600">
        <ele>646.4</ele>
        <time>2019-08-17T12:09:58Z</time>
      </trkpt>
      <trkpt lat="42.1237330" lon="-7.7534650">
        <ele>646.6</ele>
        <time>2019-08-17T12:09:59Z</time>
      </trkpt>
      <trkpt lat="42.1237800" lon="-7.7534710">
        <ele>646.7</ele>
        <time>2019-08-17T12:10:00Z</time>
      </trkpt>
      <trkpt lat="42.1238260" lon="-7.7534770">
        <ele>646.9</ele>
        <time>2019-08-17T12:10:01Z</time>
      </trkpt>
      <trkpt lat="42.1238720" lon="-7.7534820">
        <ele>647.0</ele>
        <time>2019-08-17T12:10:02Z</time>
      </trkpt>
      <trkpt lat="42.1239170" lon="-7.7534880">
        <ele>647.2</ele>
        <time>2019-08-17T12:10:03Z</time>
      </trkpt>
      <trkpt lat="42.1239610" lon="-7.7534940">
        <ele>647.4</ele>
        <time>2019-08-17T12:10:04Z</time>
      </trkpt>
      <trkpt lat="42.1240050" lon="-7.7535000">
        <ele>647.5</ele>
        <time>2019-08-17T12:10:05Z</time>
      </trkpt>
      <trkpt lat="42.1240470" lon="-7.7535060">
        <ele>647.7</ele>
        <time>2019-08-17T12:10:06Z</time>
      </trkpt>
      <trkpt lat="42.1240880" lon="-7.7535120">
        <ele>647.9</ele>
        <time>2019-08-17T12:10:07Z</time>
      </trkpt>
      <trkpt lat="42.1241280" lon="-7.7535180">
        <ele>648.1</ele>
        <time>2019-08-17T12:10:08Z</time>
      </trkpt>
      <trkpt lat="42.1241680" lon="-7.7535240">
        <ele>648.3</ele>
        <time>2019-08-17T12:10:09Z</time>
      </trkpt>
      <trkpt lat="42.1242080" lon="-7.7535300">
        <ele>648.5</ele>
        <time>2019-08-17T12:10:10Z</time>
      </trkpt>
      <trkpt lat="42.1242490" lon="-7.7535360">
        <ele>648.7</ele>
        <time>2019-08-17T12:10:11Z</time>
      </trkpt>
      <trkpt lat="42.1242920" lon="-7.7535410">
        <ele>648.9</ele>
        <time>2019-08-17T12:10:12Z</time>
      </trkpt>
      <trkpt lat="42.1243320" lon="-7.7535460">
        <ele>649.2</ele>
        <time>2019-08-17T12:10:13Z</time>
      </trkpt>
      <trkpt lat="42.1243680" lon="-7.7535510">
        <ele>649.4</ele>
        <time>2019-08-17T12:10:14Z</time>
      </trkpt>
      <trkpt lat="42.1244020" lon="-7.7535550">
        <ele>649.6</ele>
        <time>2019-08-17T12:10:15Z</time>
      </trkpt>
      <trkpt lat="42.1244360" lon="-7.7535610">
        <ele>649.8</ele>
        <time>2019-08-17T12:10:16Z</time>
      </trkpt>
      <trkpt lat="42.1244710" lon="-7.7535690">
        <ele>650.1</ele>
        <time>2019-08-17T12:10:17Z</time>
      </trkpt>
      <trkpt lat="42.1245060" lon="-7.7535770">
        <ele>650.3</ele>
        <time>2019-08-17T12:10:18Z</time>
      </trkpt>
      <trkpt lat="42.1245430" lon="-7.7535850">
        <ele>650.6</ele>
        <time>2019-08-17T12:10:19Z</time>
      </trkpt>
      <trkpt lat="42.1245800" lon="-7.7535940">
        <ele>650.9</ele>
        <time>2019-08-17T12:10:20Z</time>
      </trkpt>
      <trkpt lat="42.1246180" lon="-7.7536020">
        <ele>651.2</ele>
        <time>2019-08-17T12:10:21Z</time>
      </trkpt>
      <trkpt lat="42.1246570" lon="-7.7536100">
        <ele>651.4</ele>
        <time>2019-08-17T12:10:22Z</time>
      </trkpt>
      <trkpt lat="42.1246970" lon="-7.7536180">
        <ele>651.7</ele>
        <time>2019-08-17T12:10:23Z</time>
      </trkpt>
      <trkpt lat="42.1247370" lon="-7.7536240">
        <ele>652.0</ele>
        <time>2019-08-17T12:10:24Z</time>
      </trkpt>
      <trkpt lat="42.1247770" lon="-7.7536300">
        <ele>652.3</ele>
        <time>2019-08-17T12:10:25Z</time>
      </trkpt>
      <trkpt lat="42.1248410" lon="-7.7536360">
        <ele>652.8</ele>
        <time>2019-08-17T12:10:26Z</time>
      </trkpt>
      <trkpt lat="42.1248660" lon="-7.7536380">
        <ele>652.9</ele>
        <time>2019-08-17T12:10:27Z</time>
      </trkpt>
      <trkpt lat="42.1248910" lon="-7.7536400">
        <ele>653.1</ele>
        <time>2019-08-17T12:10:28Z</time>
      </trkpt>
      <trkpt lat="42.1249290" lon="-7.7536430">
        <ele>653.3</ele>
        <time>2019-08-17T12:10:29Z</time>
      </trkpt>
      <trkpt lat="42.1249670" lon="-7.7536450">
        <ele>653.6</ele>
        <time>2019-08-17T12:10:30Z</time>
      </trkpt>
      <trkpt lat="42.1250340" lon="-7.7536510">
        <ele>653.9</ele>
        <time>2019-08-17T12:10:31Z</time>
      </trkpt>
      <trkpt lat="42.1250610" lon="-7.7536530">
        <ele>654.1</ele>
        <time>2019-08-17T12:10:32Z</time>
      </trkpt>
      <trkpt lat="42.1250880" lon="-7.7536560">
        <ele>654.2</ele>
        <time>2019-08-17T12:10:33Z</time>
      </trkpt>
      <trkpt lat="42.1251290" lon="-7.7536620">
        <ele>654.4</ele>
        <time>2019-08-17T12:10:34Z</time>
      </trkpt>
      <trkpt lat="42.1251700" lon="-7.7536680">
        <ele>654.6</ele>
        <time>2019-08-17T12:10:35Z</time>
      </trkpt>
      <trkpt lat="42.1252120" lon="-7.7536750">
        <ele>654.8</ele>
        <time>2019-08-17T12:10:36Z</time>
      </trkpt>
      <trkpt lat="42.1252530" lon="-7.7536820">
        <ele>654.9</ele>
        <time>2019-08-17T12:10:37Z</time>
      </trkpt>
      <trkpt lat="42.1252940" lon="-7.7536890">
        <ele>655.1</ele>
        <time>2019-08-17T12:10:38Z</time>
      </trkpt>
      <trkpt lat="42.1253350" lon="-7.7536950">
        <ele>655.3</ele>
        <time>2019-08-17T12:10:39Z</time>
      </trkpt>
      <trkpt lat="42.1253770" lon="-7.7537010">
        <ele>655.4</ele>
        <time>2019-08-17T12:10:40Z</time>
      </trkpt>
      <trkpt lat="42.1254190" lon="-7.7537060">
        <ele>655.6</ele>
        <time>2019-08-17T12:10:41Z</time>
      </trkpt>
      <trkpt lat="42.1254610" lon="-7.7537110">
        <ele>655.7</ele>
        <time>2019-08-17T12:10:42Z</time>
      </trkpt>
      <trkpt lat="42.1255030" lon="-7.7537160">
        <ele>655.9</ele>
        <time>2019-08-17T12:10:43Z</time>
      </trkpt>
      <trkpt lat="42.1255450" lon="-7.7537200">
        <ele>656.0</ele>
        <time>2019-08-17T12:10:44Z</time>
      </trkpt>
      <trkpt lat="42.1255870" lon="-7.7537230">
        <ele>656.2</ele>
        <time>2019-08-17T12:10:45Z</time>
      </trkpt>
      <trkpt lat="42.1256290" lon="-7.7537270">
        <ele>656.3</ele>
        <time>2019-08-17T12:10:46Z</time>
      </trkpt>
      <trkpt lat="42.1256710" lon="-7.7537310">
        <ele>656.5</ele>
        <time>2019-08-17T12:10:47Z</time>
      </trkpt>
      <trkpt lat="42.1257120" lon="-7.7537340">
        <ele>656.6</ele>
        <time>2019-08-17T12:10:48Z</time>
      </trkpt>
      <trkpt lat="42.1257540" lon="-7.7537370">
        <ele>656.7</ele>
        <time>2019-08-17T12:10:49Z</time>
      </trkpt>
      <trkpt lat="42.1257950" lon="-7.7537400">
        <ele>656.9</ele>
        <time>2019-08-17T12:10:50Z</time>
      </trkpt>
      <trkpt lat="42.1258360" lon="-7.7537420">
        <ele>657.0</ele>
        <time>2019-08-17T12:10:51Z</time>
      </trkpt>
      <trkpt lat="42.1258780" lon="-7.7537440">
        <ele>657.2</ele>
        <time>2019-08-17T12:10:52Z</time>
      </trkpt>
      <trkpt lat="42.1259190" lon="-7.7537460">
        <ele>657.3</ele>
        <time>2019-08-17T12:10:53Z</time>
      </trkpt>
      <trkpt lat="42.1259610" lon="-7.7537470">
        <ele>657.5</ele>
        <time>2019-08-17T12:10:54Z</time>
      </trkpt>
      <trkpt lat="42.1260030" lon="-7.7537470">
        <ele>657.7</ele>
        <time>2019-08-17T12:10:55Z</time>
      </trkpt>
      <trkpt lat="42.1260450" lon="-7.7537470">
        <ele>657.9</ele>
        <time>2019-08-17T12:10:56Z</time>
      </trkpt>
      <trkpt lat="42.1260870" lon="-7.7537470">
        <ele>658.0</ele>
        <time>2019-08-17T12:10:57Z</time>
      </trkpt>
      <trkpt lat="42.1261300" lon="-7.7537460">
        <ele>658.2</ele>
        <time>2019-08-17T12:10:58Z</time>
      </trkpt>
      <trkpt lat="42.1261720" lon="-7.7537440">
        <ele>658.3</ele>
        <time>2019-08-17T12:10:59Z</time>
      </trkpt>
      <trkpt lat="42.1262150" lon="-7.7537420">
        <ele>658.4</ele>
        <time>2019-08-17T12:11:00Z</time>
      </trkpt>
      <trkpt lat="42.1262580" lon="-7.7537390">
        <ele>658.5</ele>
        <time>2019-08-17T12:11:01Z</time>
      </trkpt>
      <trkpt lat="42.1263010" lon="-7.7537350">
        <ele>658.5</ele>
        <time>2019-08-17T12:11:02Z</time>
      </trkpt>
      <trkpt lat="42.1263440" lon="-7.7537310">
        <ele>658.6</ele>
        <time>2019-08-17T12:11:03Z</time>
      </trkpt>
      <trkpt lat="42.1263870" lon="-7.7537270">
        <ele>658.6</ele>
        <time>2019-08-17T12:11:04Z</time>
      </trkpt>
      <trkpt lat="42.1264310" lon="-7.7537210">
        <ele>658.6</ele>
        <time>2019-08-17T12:11:05Z</time>
      </trkpt>
      <trkpt lat="42.1264750" lon="-7.7537160">
        <ele>658.5</ele>
        <time>2019-08-17T12:11:06Z</time>
      </trkpt>
      <trkpt lat="42.1265190" lon="-7.7537090">
        <ele>658.4</ele>
        <time>2019-08-17T12:11:07Z</time>
      </trkpt>
      <trkpt lat="42.1265630" lon="-7.7537020">
        <ele>658.4</ele>
        <time>2019-08-17T12:11:08Z</time>
      </trkpt>
      <trkpt lat="42.1266070" lon="-7.7536940">
        <ele>658.3</ele>
        <time>2019-08-17T12:11:09Z</time>
      </trkpt>
      <trkpt lat="42.1266510" lon="-7.7536850">
        <ele>658.2</ele>
        <time>2019-08-17T12:11:10Z</time>
      </trkpt>
      <trkpt lat="42.1266960" lon="-7.7536760">
        <ele>658.1</ele>
        <time>2019-08-17T12:11:11Z</time>
      </trkpt>
      <trkpt lat="42.1267410" lon="-7.7536670">
        <ele>658.0</ele>
        <time>2019-08-17T12:11:12Z</time>
      </trkpt>
      <trkpt lat="42.1267870" lon="-7.7536570">
        <ele>657.7</ele>
        <time>2019-08-17T12:11:13Z</time>
      </trkpt>
      <trkpt lat="42.1268330" lon="-7.7536470">
        <ele>657.5</ele>
        <time>2019-08-17T12:11:14Z</time>
      </trkpt>
      <trkpt lat="42.1268790" lon="-7.7536360">
        <ele>657.3</ele>
        <time>2019-08-17T12:11:15Z</time>
      </trkpt>
      <trkpt lat="42.1269260" lon="-7.7536260">
        <ele>657.1</ele>
        <time>2019-08-17T12:11:16Z</time>
      </trkpt>
      <trkpt lat="42.1269740" lon="-7.7536160">
        <ele>656.9</ele>
        <time>2019-08-17T12:11:17Z</time>
      </trkpt>
      <trkpt lat="42.1270230" lon="-7.7536060">
        <ele>656.7</ele>
        <time>2019-08-17T12:11:18Z</time>
      </trkpt>
      <trkpt lat="42.1270730" lon="-7.7535960">
        <ele>656.4</ele>
        <time>2019-08-17T12:11:19Z</time>
      </trkpt>
      <trkpt lat="42.1271240" lon="-7.7535840">
        <ele>656.2</ele>
        <time>2019-08-17T12:11:20Z</time>
      </trkpt>
      <trkpt lat="42.1271760" lon="-7.7535710">
        <ele>655.9</ele>
        <time>2019-08-17T12:11:21Z</time>
      </trkpt>
      <trkpt lat="42.1272290" lon="-7.7535550">
        <ele>655.6</ele>
        <time>2019-08-17T12:11:22Z</time>
      </trkpt>
      <trkpt lat="42.1272840" lon="-7.7535380">
        <ele>655.4</ele>
        <time>2019-08-17T12:11:23Z</time>
      </trkpt>
      <trkpt lat="42.1273390" lon="-7.7535180">
        <ele>655.2</ele>
        <time>2019-08-17T12:11:24Z</time>
      </trkpt>
      <trkpt lat="42.1273950" lon="-7.7534980">
        <ele>655.0</ele>
        <time>2019-08-17T12:11:25Z</time>
      </trkpt>
      <trkpt lat="42.1274520" lon="-7.7534760">
        <ele>654.8</ele>
        <time>2019-08-17T12:11:26Z</time>
      </trkpt>
      <trkpt lat="42.1275100" lon="-7.7534530">
        <ele>654.6</ele>
        <time>2019-08-17T12:11:27Z</time>
      </trkpt>
      <trkpt lat="42.1275690" lon="-7.7534300">
        <ele>654.4</ele>
        <time>2019-08-17T12:11:28Z</time>
      </trkpt>
      <trkpt lat="42.1276280" lon="-7.7534060">
        <ele>654.2</ele>
        <time>2019-08-17T12:11:29Z</time>
      </trkpt>
      <trkpt lat="42.1276870" lon="-7.7533810">
        <ele>654.0</ele>
        <time>2019-08-17T12:11:30Z</time>
      </trkpt>
      <trkpt lat="42.1277450" lon="-7.7533570">
        <ele>653.8</ele>
        <time>2019-08-17T12:11:31Z</time>
      </trkpt>
      <trkpt lat="42.1278040" lon="-7.7533320">
        <ele>653.6</ele>
        <time>2019-08-17T12:11:32Z</time>
      </trkpt>
      <trkpt lat="42.1278610" lon="-7.7533070">
        <ele>653.4</ele>
        <time>2019-08-17T12:11:33Z</time>
      </trkpt>
      <trkpt lat="42.1279180" lon="-7.7532820">
        <ele>653.2</ele>
        <time>2019-08-17T12:11:34Z</time>
      </trkpt>
      <trkpt lat="42.1279750" lon="-7.7532570">
        <ele>653.1</ele>
        <time>2019-08-17T12:11:35Z</time>
      </trkpt>
      <trkpt lat="42.1280300" lon="-7.7532330">
        <ele>652.9</ele>
        <time>2019-08-17T12:11:36Z</time>
      </trkpt>
      <trkpt lat="42.1280860" lon="-7.7532080">
        <ele>652.7</ele>
        <time>2019-08-17T12:11:37Z</time>
      </trkpt>
      <trkpt lat="42.1281420" lon="-7.7531840">
        <ele>652.6</ele>
        <time>2019-08-17T12:11:38Z</time>
      </trkpt>
      <trkpt lat="42.1281970" lon="-7.7531600">
        <ele>652.4</ele>
        <time>2019-08-17T12:11:39Z</time>
      </trkpt>
      <trkpt lat="42.1282910" lon="-7.7531190">
        <ele>652.1</ele>
        <time>2019-08-17T12:11:40Z</time>
      </trkpt>
      <trkpt lat="42.1283290" lon="-7.7531020">
        <ele>652.0</ele>
        <time>2019-08-17T12:11:41Z</time>
      </trkpt>
      <trkpt lat="42.1283670" lon="-7.7530860">
        <ele>651.9</ele>
        <time>2019-08-17T12:11:42Z</time>
      </trkpt>
      <trkpt lat="42.1284250" lon="-7.7530630">
        <ele>651.6</ele>
        <time>2019-08-17T12:11:43Z</time>
      </trkpt>
      <trkpt lat="42.1284840" lon="-7.7530400">
        <ele>651.4</ele>
        <time>2019-08-17T12:11:44Z</time>
      </trkpt>
      <trkpt lat="42.1285830" lon="-7.7530050">
        <ele>651.0</ele>
        <time>2019-08-17T12:11:45Z</time>
      </trkpt>
      <trkpt lat="42.1286240" lon="-7.7529930">
        <ele>650.9</ele>
        <time>2019-08-17T12:11:46Z</time>
      </trkpt>
      <trkpt lat="42.1286640" lon="-7.7529800">
        <ele>650.7</ele>
        <time>2019-08-17T12:11:47Z</time>
      </trkpt>
      <trkpt lat="42.1287250" lon="-7.7529640">
        <ele>650.4</ele>
        <time>2019-08-17T12:11:48Z</time>
      </trkpt>
      <trkpt lat="42.1287850" lon="-7.7529490">
        <ele>650.2</ele>
        <time>2019-08-17T12:11:49Z</time>
      </trkpt>
      <trkpt lat="42.1288440" lon="-7.7529360">
        <ele>649.9</ele>
        <time>2019-08-17T12:11:50Z</time>
      </trkpt>
      <trkpt lat="42.1289020" lon="-7.7529250">
        <ele>649.6</ele>
        <time>2019-08-17T12:11:51Z</time>
      </trkpt>
      <trkpt lat="42.1289590" lon="-7.7529150">
        <ele>649.3</ele>
        <time>2019-08-17T12:11:52Z</time>
      </trkpt>
      <trkpt lat="42.1290160" lon="-7.7529070">
        <ele>648.9</ele>
        <time>2019-08-17T12:11:53Z</time>
      </trkpt>
      <trkpt lat="42.1290720" lon="-7.7529000">
        <ele>648.6</ele>
        <time>2019-08-17T12:11:54Z</time>
      </trkpt>
      <trkpt lat="42.1291290" lon="-7.7528950">
        <ele>648.3</ele>
        <time>2019-08-17T12:11:55Z</time>
      </trkpt>
      <trkpt lat="42.1291860" lon="-7.7528910">
        <ele>648.1</ele>
        <time>2019-08-17T12:11:56Z</time>
      </trkpt>
      <trkpt lat="42.1292430" lon="-7.7528890">
        <ele>647.8</ele>
        <time>2019-08-17T12:11:57Z</time>
      </trkpt>
      <trkpt lat="42.1293010" lon="-7.7528890">
        <ele>647.5</ele>
        <time>2019-08-17T12:11:58Z</time>
      </trkpt>
      <trkpt lat="42.1293600" lon="-7.7528910">
        <ele>647.2</ele>
        <time>2019-08-17T12:11:59Z</time>
      </trkpt>
      <trkpt lat="42.1294200" lon="-7.7528960">
        <ele>646.8</ele>
        <time>2019-08-17T12:12:00Z</time>
      </trkpt>
      <trkpt lat="42.1294810" lon="-7.7529030">
        <ele>646.5</ele>
        <time>2019-08-17T12:12:01Z</time>
      </trkpt>
      <trkpt lat="42.1295440" lon="-7.7529140">
        <ele>646.1</ele>
        <time>2019-08-17T12:12:02Z</time>
      </trkpt>
      <trkpt lat="42.1296090" lon="-7.7529280">
        <ele>645.6</ele>
        <time>2019-08-17T12:12:03Z</time>
      </trkpt>
      <trkpt lat="42.1296760" lon="-7.7529450">
        <ele>645.1</ele>
        <time>2019-08-17T12:12:04Z</time>
      </trkpt>
      <trkpt lat="42.1297450" lon="-7.7529670">
        <ele>644.6</ele>
        <time>2019-08-17T12:12:05Z</time>
      </trkpt>
      <trkpt lat="42.1298160" lon="-7.7529920">
        <ele>644.0</ele>
        <time>2019-08-17T12:12:06Z</time>
      </trkpt>
      <trkpt lat="42.1298890" lon="-7.7530220">
        <ele>643.4</ele>
        <time>2019-08-17T12:12:07Z</time>
      </trkpt>
      <trkpt lat="42.1299640" lon="-7.7530540">
        <ele>642.7</ele>
        <time>2019-08-17T12:12:08Z</time>
      </trkpt>
      <trkpt lat="42.1300410" lon="-7.7530900">
        <ele>641.7</ele>
        <time>2019-08-17T12:12:09Z</time>
      </trkpt>
      <trkpt lat="42.1301190" lon="-7.7531290">
        <ele>641.5</ele>
        <time>2019-08-17T12:12:10Z</time>
      </trkpt>
      <trkpt lat="42.1302000" lon="-7.7531710">
        <ele>641.3</ele>
        <time>2019-08-17T12:12:11Z</time>
      </trkpt>
      <trkpt lat="42.1302820" lon="-7.7532160">
        <ele>641.0</ele>
        <time>2019-08-17T12:12:12Z</time>
      </trkpt>
      <trkpt lat="42.1303660" lon="-7.7532640">
        <ele>640.3</ele>
        <time>2019-08-17T12:12:13Z</time>
      </trkpt>
      <trkpt lat="42.1304510" lon="-7.7533130">
        <ele>639.6</ele>
        <time>2019-08-17T12:12:14Z</time>
      </trkpt>
      <trkpt lat="42.1305370" lon="-7.7533650">
        <ele>638.9</ele>
        <time>2019-08-17T12:12:15Z</time>
      </trkpt>
      <trkpt lat="42.1306240" lon="-7.7534180">
        <ele>638.3</ele>
        <time>2019-08-17T12:12:16Z</time>
      </trkpt>
      <trkpt lat="42.1307120" lon="-7.7534730">
        <ele>637.8</ele>
        <time>2019-08-17T12:12:17Z</time>
      </trkpt>
      <trkpt lat="42.1308000" lon="-7.7535280">
        <ele>637.3</ele>
        <time>2019-08-17T12:12:18Z</time>
      </trkpt>
      <trkpt lat="42.1308890" lon="-7.7535840">
        <ele>636.9</ele>
        <time>2019-08-17T12:12:19Z</time>
      </trkpt>
      <trkpt lat="42.1309790" lon="-7.7536410">
        <ele>636.5</ele>
        <time>2019-08-17T12:12:20Z</time>
      </trkpt>
      <trkpt lat="42.1310680" lon="-7.7536980">
        <ele>636.0</ele>
        <time>2019-08-17T12:12:21Z</time>
      </trkpt>
      <trkpt lat="42.1311570" lon="-7.7537540">
        <ele>635.6</ele>
        <time>2019-08-17T12:12:22Z</time>
      </trkpt>
      <trkpt lat="42.1312460" lon="-7.7538110">
        <ele>635.1</ele>
        <time>2019-08-17T12:12:23Z</time>
      </trkpt>
      <trkpt lat="42.1313340" lon="-7.7538670">
        <ele>634.6</ele>
        <time>2019-08-17T12:12:24Z</time>
      </trkpt>
      <trkpt lat="42.1314210" lon="-7.7539220">
        <ele>634.0</ele>
        <time>2019-08-17T12:12:25Z</time>
      </trkpt>
      <trkpt lat="42.1315060" lon="-7.7539760">
        <ele>633.5</ele>
        <time>2019-08-17T12:12:26Z</time>
      </trkpt>
      <trkpt lat="42.1315900" lon="-7.7540290">
        <ele>632.9</ele>
        <time>2019-08-17T12:12:27Z</time>
      </trkpt>
      <trkpt lat="42.1316730" lon="-7.7540810">
        <ele>632.4</ele>
        <time>2019-08-17T12:12:28Z</time>
      </trkpt>
      <trkpt lat="42.1317530" lon="-7.7541320">
        <ele>631.9</ele>
        <time>2019-08-17T12:12:29Z</time>
      </trkpt>
      <trkpt lat="42.1318320" lon="-7.7541820">
        <ele>631.4</ele>
        <time>2019-08-17T12:12:30Z</time>
      </trkpt>
      <trkpt lat="42.1319090" lon="-7.7542310">
        <ele>630.9</ele>
        <time>2019-08-17T12:12:31Z</time>
      </trkpt>
      <trkpt lat="42.1319850" lon="-7.7542790">
        <ele>630.6</ele>
        <time>2019-08-17T12:12:32Z</time>
      </trkpt>
      <trkpt lat="42.1320590" lon="-7.7543270">
        <ele>630.2</ele>
        <time>2019-08-17T12:12:33Z</time>
      </trkpt>
      <trkpt lat="42.1321330" lon="-7.7543730">
        <ele>629.9</ele>
        <time>2019-08-17T12:12:34Z</time>
      </trkpt>
      <trkpt lat="42.1322050" lon="-7.7544190">
        <ele>629.7</ele>
        <time>2019-08-17T12:12:35Z</time>
      </trkpt>
      <trkpt lat="42.1322770" lon="-7.7544650">
        <ele>629.5</ele>
        <time>2019-08-17T12:12:36Z</time>
      </trkpt>
      <trkpt lat="42.1323470" lon="-7.7545100">
        <ele>629.3</ele>
        <time>2019-08-17T12:12:37Z</time>
      </trkpt>
      <trkpt lat="42.1324170" lon="-7.7545550">
        <ele>629.2</ele>
        <time>2019-08-17T12:12:38Z</time>
      </trkpt>
      <trkpt lat="42.1324870" lon="-7.7546000">
        <ele>629.1</ele>
        <time>2019-08-17T12:12:39Z</time>
      </trkpt>
      <trkpt lat="42.1326020" lon="-7.7546740">
        <ele>628.9</ele>
        <time>2019-08-17T12:12:40Z</time>
      </trkpt>
      <trkpt lat="42.1326490" lon="-7.7547040">
        <ele>628.9</ele>
        <time>2019-08-17T12:12:41Z</time>
      </trkpt>
      <trkpt lat="42.1326950" lon="-7.7547340">
        <ele>628.8</ele>
        <time>2019-08-17T12:12:42Z</time>
      </trkpt>
      <trkpt lat="42.1327650" lon="-7.7547790">
        <ele>628.8</ele>
        <time>2019-08-17T12:12:43Z</time>
      </trkpt>
      <trkpt lat="42.1328350" lon="-7.7548240">
        <ele>628.5</ele>
        <time>2019-08-17T12:12:44Z</time>
      </trkpt>
      <trkpt lat="42.1329540" lon="-7.7549010">
        <ele>628.1</ele>
        <time>2019-08-17T12:12:45Z</time>
      </trkpt>
      <trkpt lat="42.1330010" lon="-7.7549310">
        <ele>627.9</ele>
        <time>2019-08-17T12:12:46Z</time>
      </trkpt>
      <trkpt lat="42.1330490" lon="-7.7549620">
        <ele>627.8</ele>
        <time>2019-08-17T12:12:47Z</time>
      </trkpt>
      <trkpt lat="42.1331200" lon="-7.7550080">
        <ele>627.6</ele>
        <time>2019-08-17T12:12:48Z</time>
      </trkpt>
      <trkpt lat="42.1331920" lon="-7.7550540">
        <ele>627.4</ele>
        <time>2019-08-17T12:12:49Z</time>
      </trkpt>
      <trkpt lat="42.1332640" lon="-7.7551010">
        <ele>627.3</ele>
        <time>2019-08-17T12:12:50Z</time>
      </trkpt>
      <trkpt lat="42.1333360" lon="-7.7551470">
        <ele>627.1</ele>
        <time>2019-08-17T12:12:51Z</time>
      </trkpt>
      <trkpt lat="42.1334080" lon="-7.7551940">
        <ele>627.0</ele>
        <time>2019-08-17T12:12:52Z</time>
      </trkpt>
      <trkpt lat="42.1334800" lon="-7.7552400">
        <ele>626.9</ele>
        <time>2019-08-17T12:12:53Z</time>
      </trkpt>
      <trkpt lat="42.1335520" lon="-7.7552870">
        <ele>626.7</ele>
        <time>2019-08-17T12:12:54Z</time>
      </trkpt>
      <trkpt lat="42.1336230" lon="-7.7553330">
        <ele>626.6</ele>
        <time>2019-08-17T12:12:55Z</time>
      </trkpt>
      <trkpt lat="42.1336950" lon="-7.7553790">
        <ele>626.5</ele>
        <time>2019-08-17T12:12:56Z</time>
      </trkpt>
      <trkpt lat="42.1337660" lon="-7.7554240">
        <ele>626.4</ele>
        <time>2019-08-17T12:12:57Z</time>
      </trkpt>
      <trkpt lat="42.1338360" lon="-7.7554690">
        <ele>626.3</ele>
        <time>2019-08-17T12:12:58Z</time>
      </trkpt>
      <trkpt lat="42.1339060" lon="-7.7555140">
        <ele>626.3</ele>
        <time>2019-08-17T12:12:59Z</time>
      </trkpt>
      <trkpt lat="42.1339760" lon="-7.7555590">
        <ele>626.3</ele>
        <time>2019-08-17T12:13:00Z</time>
      </trkpt>
      <trkpt lat="42.1340450" lon="-7.7556030">
        <ele>626.3</ele>
        <time>2019-08-17T12:13:01Z</time>
      </trkpt>
      <trkpt lat="42.1341130" lon="-7.7556470">
        <ele>626.3</ele>
        <time>2019-08-17T12:13:02Z</time>
      </trkpt>
      <trkpt lat="42.1341810" lon="-7.7556910">
        <ele>626.3</ele>
        <time>2019-08-17T12:13:03Z</time>
      </trkpt>
      <trkpt lat="42.1342490" lon="-7.7557340">
        <ele>626.3</ele>
        <time>2019-08-17T12:13:04Z</time>
      </trkpt>
      <trkpt lat="42.1343160" lon="-7.7557770">
        <ele>626.3</ele>
        <time>2019-08-17T12:13:05Z</time>
      </trkpt>
      <trkpt lat="42.1343830" lon="-7.7558200">
        <ele>626.3</ele>
        <time>2019-08-17T12:13:06Z</time>
      </trkpt>
      <trkpt lat="42.1344500" lon="-7.7558620">
        <ele>626.3</ele>
        <time>2019-08-17T12:13:07Z</time>
      </trkpt>
      <trkpt lat="42.1345160" lon="-7.7559050">
        <ele>626.2</ele>
        <time>2019-08-17T12:13:08Z</time>
      </trkpt>
      <trkpt lat="42.1345810" lon="-7.7559470">
        <ele>626.2</ele>
        <time>2019-08-17T12:13:09Z</time>
      </trkpt>
      <trkpt lat="42.1346470" lon="-7.7559890">
        <ele>626.1</ele>
        <time>2019-08-17T12:13:10Z</time>
      </trkpt>
      <trkpt lat="42.1347120" lon="-7.7560310">
        <ele>626.0</ele>
        <time>2019-08-17T12:13:11Z</time>
      </trkpt>
      <trkpt lat="42.1347760" lon="-7.7560720">
        <ele>625.9</ele>
        <time>2019-08-17T12:13:12Z</time>
      </trkpt>
      <trkpt lat="42.1348410" lon="-7.7561140">
        <ele>625.9</ele>
        <time>2019-08-17T12:13:13Z</time>
      </trkpt>
      <trkpt lat="42.1349050" lon="-7.7561550">
        <ele>625.8</ele>
        <time>2019-08-17T12:13:14Z</time>
      </trkpt>
      <trkpt lat="42.1349680" lon="-7.7561970">
        <ele>625.8</ele>
        <time>2019-08-17T12:13:15Z</time>
      </trkpt>
      <trkpt lat="42.1350320" lon="-7.7562380">
        <ele>625.8</ele>
        <time>2019-08-17T12:13:16Z</time>
      </trkpt>
      <trkpt lat="42.1350950" lon="-7.7562800">
        <ele>625.8</ele>
        <time>2019-08-17T12:13:17Z</time>
      </trkpt>
      <trkpt lat="42.1351590" lon="-7.7563210">
        <ele>625.9</ele>
        <time>2019-08-17T12:13:18Z</time>
      </trkpt>
      <trkpt lat="42.1352220" lon="-7.7563620">
        <ele>626.0</ele>
        <time>2019-08-17T12:13:19Z</time>
      </trkpt>
      <trkpt lat="42.1352860" lon="-7.7564040">
        <ele>626.2</ele>
        <time>2019-08-17T12:13:20Z</time>
      </trkpt>
      <trkpt lat="42.1353490" lon="-7.7564450">
        <ele>626.3</ele>
        <time>2019-08-17T12:13:21Z</time>
      </trkpt>
      <trkpt lat="42.1354140" lon="-7.7564870">
        <ele>626.5</ele>
        <time>2019-08-17T12:13:22Z</time>
      </trkpt>
      <trkpt lat="42.1354780" lon="-7.7565290">
        <ele>626.6</ele>
        <time>2019-08-17T12:13:23Z</time>
      </trkpt>
      <trkpt lat="42.1355430" lon="-7.7565710">
        <ele>626.6</ele>
        <time>2019-08-17T12:13:24Z</time>
      </trkpt>
      <trkpt lat="42.1356080" lon="-7.7566120">
        <ele>626.7</ele>
        <time>2019-08-17T12:13:25Z</time>
      </trkpt>
      <trkpt lat="42.1356730" lon="-7.7566540">
        <ele>626.7</ele>
        <time>2019-08-17T12:13:26Z</time>
      </trkpt>
      <trkpt lat="42.1357380" lon="-7.7566950">
        <ele>626.7</ele>
        <time>2019-08-17T12:13:27Z</time>
      </trkpt>
      <trkpt lat="42.1358030" lon="-7.7567370">
        <ele>626.8</ele>
        <time>2019-08-17T12:13:28Z</time>
      </trkpt>
      <trkpt lat="42.1358670" lon="-7.7567770">
        <ele>626.8</ele>
        <time>2019-08-17T12:13:29Z</time>
      </trkpt>
      <trkpt lat="42.1359300" lon="-7.7568170">
        <ele>626.9</ele>
        <time>2019-08-17T12:13:30Z</time>
      </trkpt>
      <trkpt lat="42.1359930" lon="-7.7568570">
        <ele>626.9</ele>
        <time>2019-08-17T12:13:31Z</time>
      </trkpt>
      <trkpt lat="42.1360560" lon="-7.7568950">
        <ele>627.0</ele>
        <time>2019-08-17T12:13:32Z</time>
      </trkpt>
      <trkpt lat="42.1361170" lon="-7.7569340">
        <ele>627.1</ele>
        <time>2019-08-17T12:13:33Z</time>
      </trkpt>
      <trkpt lat="42.1361780" lon="-7.7569720">
        <ele>627.2</ele>
        <time>2019-08-17T12:13:34Z</time>
      </trkpt>
      <trkpt lat="42.1362380" lon="-7.7570090">
        <ele>627.3</ele>
        <time>2019-08-17T12:13:35Z</time>
      </trkpt>
      <trkpt lat="42.1362980" lon="-7.7570470">
        <ele>627.4</ele>
        <time>2019-08-17T12:13:36Z</time>
      </trkpt>
      <trkpt lat="42.1363570" lon="-7.7570830">
        <ele>627.5</ele>
        <time>2019-08-17T12:13:37Z</time>
      </trkpt>
      <trkpt lat="42.1364160" lon="-7.7571200">
        <ele>627.6</ele>
        <time>2019-08-17T12:13:38Z</time>
      </trkpt>
      <trkpt lat="42.1364730" lon="-7.7571560">
        <ele>627.7</ele>
        <time>2019-08-17T12:13:39Z</time>
      </trkpt>
      <trkpt lat="42.1365310" lon="-7.7571920">
        <ele>627.7</ele>
        <time>2019-08-17T12:13:40Z</time>
      </trkpt>
      <trkpt lat="42.1365870" lon="-7.7572280">
        <ele>627.8</ele>
        <time>2019-08-17T12:13:41Z</time>
      </trkpt>
      <trkpt lat="42.1366430" lon="-7.7572630">
        <ele>627.8</ele>
        <time>2019-08-17T12:13:42Z</time>
      </trkpt>
      <trkpt lat="42.1366980" lon="-7.7572990">
        <ele>627.9</ele>
        <time>2019-08-17T12:13:43Z</time>
      </trkpt>
      <trkpt lat="42.1367530" lon="-7.7573340">
        <ele>627.9</ele>
        <time>2019-08-17T12:13:44Z</time>
      </trkpt>
      <trkpt lat="42.1368070" lon="-7.7573690">
        <ele>628.0</ele>
        <time>2019-08-17T12:13:45Z</time>
      </trkpt>
      <trkpt lat="42.1368610" lon="-7.7574040">
        <ele>628.0</ele>
        <time>2019-08-17T12:13:46Z</time>
      </trkpt>
      <trkpt lat="42.1369140" lon="-7.7574390">
        <ele>628.0</ele>
        <time>2019-08-17T12:13:47Z</time>
      </trkpt>
      <trkpt lat="42.1369660" lon="-7.7574740">
        <ele>628.1</ele>
        <time>2019-08-17T12:13:48Z</time>
      </trkpt>
      <trkpt lat="42.1370190" lon="-7.7575080">
        <ele>628.1</ele>
        <time>2019-08-17T12:13:49Z</time>
      </trkpt>
      <trkpt lat="42.1370710" lon="-7.7575430">
        <ele>628.2</ele>
        <time>2019-08-17T12:13:50Z</time>
      </trkpt>
      <trkpt lat="42.1371230" lon="-7.7575780">
        <ele>628.2</ele>
        <time>2019-08-17T12:13:51Z</time>
      </trkpt>
      <trkpt lat="42.1371750" lon="-7.7576130">
        <ele>628.2</ele>
        <time>2019-08-17T12:13:52Z</time>
      </trkpt>
      <trkpt lat="42.1372280" lon="-7.7576470">
        <ele>628.3</ele>
        <time>2019-08-17T12:13:53Z</time>
      </trkpt>
      <trkpt lat="42.1372800" lon="-7.7576820">
        <ele>628.3</ele>
        <time>2019-08-17T12:13:54Z</time>
      </trkpt>
      <trkpt lat="42.1373330" lon="-7.7577170">
        <ele>628.4</ele>
        <time>2019-08-17T12:13:55Z</time>
      </trkpt>
      <trkpt lat="42.1373850" lon="-7.7577510">
        <ele>628.5</ele>
        <time>2019-08-17T12:13:56Z</time>
      </trkpt>
      <trkpt lat="42.1374380" lon="-7.7577850">
        <ele>628.6</ele>
        <time>2019-08-17T12:13:57Z</time>
      </trkpt>
      <trkpt lat="42.1374900" lon="-7.7578190">
        <ele>628.6</ele>
        <time>2019-08-17T12:13:58Z</time>
      </trkpt>
      <trkpt lat="42.1375410" lon="-7.7578530">
        <ele>628.7</ele>
        <time>2019-08-17T12:13:59Z</time>
      </trkpt>
      <trkpt lat="42.1375910" lon="-7.7578860">
        <ele>628.9</ele>
        <time>2019-08-17T12:14:00Z</time>
      </trkpt>
      <trkpt lat="42.1376410" lon="-7.7579190">
        <ele>629.0</ele>
        <time>2019-08-17T12:14:01Z</time>
      </trkpt>
      <trkpt lat="42.1376890" lon="-7.7579510">
        <ele>629.1</ele>
        <time>2019-08-17T12:14:02Z</time>
      </trkpt>
      <trkpt lat="42.1377370" lon="-7.7579830">
        <ele>629.2</ele>
        <time>2019-08-17T12:14:03Z</time>
      </trkpt>
      <trkpt lat="42.1377840" lon="-7.7580140">
        <ele>629.3</ele>
        <time>2019-08-17T12:14:04Z</time>
      </trkpt>
      <trkpt lat="42.1378300" lon="-7.7580450">
        <ele>629.5</ele>
        <time>2019-08-17T12:14:05Z</time>
      </trkpt>
      <trkpt lat="42.1378760" lon="-7.7580760">
        <ele>629.5</ele>
        <time>2019-08-17T12:14:06Z</time>
      </trkpt>
      <trkpt lat="42.1379220" lon="-7.7581060">
        <ele>629.6</ele>
        <time>2019-08-17T12:14:07Z</time>
      </trkpt>
      <trkpt lat="42.1379670" lon="-7.7581360">
        <ele>629.7</ele>
        <time>2019-08-17T12:14:08Z</time>
      </trkpt>
      <trkpt lat="42.1380130" lon="-7.7581650">
        <ele>629.8</ele>
        <time>2019-08-17T12:14:09Z</time>
      </trkpt>
      <trkpt lat="42.1380580" lon="-7.7581940">
        <ele>629.8</ele>
        <time>2019-08-17T12:14:10Z</time>
      </trkpt>
      <trkpt lat="42.1381030" lon="-7.7582230">
        <ele>629.9</ele>
        <time>2019-08-17T12:14:11Z</time>
      </trkpt>
      <trkpt lat="42.1381480" lon="-7.7582520">
        <ele>629.9</ele>
        <time>2019-08-17T12:14:12Z</time>
      </trkpt>
      <trkpt lat="42.1381940" lon="-7.7582800">
        <ele>630.0</ele>
        <time>2019-08-17T12:14:13Z</time>
      </trkpt>
      <trkpt lat="42.1382390" lon="-7.7583090">
        <ele>630.0</ele>
        <time>2019-08-17T12:14:14Z</time>
      </trkpt>
      <trkpt lat="42.1382850" lon="-7.7583370">
        <ele>630.1</ele>
        <time>2019-08-17T12:14:15Z</time>
      </trkpt>
      <trkpt lat="42.1383310" lon="-7.7583660">
        <ele>630.1</ele>
        <time>2019-08-17T12:14:16Z</time>
      </trkpt>
      <trkpt lat="42.1383770" lon="-7.7583940">
        <ele>630.1</ele>
        <time>2019-08-17T12:14:17Z</time>
      </trkpt>
      <trkpt lat="42.1384230" lon="-7.7584230">
        <ele>630.2</ele>
        <time>2019-08-17T12:14:18Z</time>
      </trkpt>
      <trkpt lat="42.1384690" lon="-7.7584520">
        <ele>630.2</ele>
        <time>2019-08-17T12:14:19Z</time>
      </trkpt>
      <trkpt lat="42.1385160" lon="-7.7584810">
        <ele>630.2</ele>
        <time>2019-08-17T12:14:20Z</time>
      </trkpt>
      <trkpt lat="42.1385620" lon="-7.7585100">
        <ele>630.2</ele>
        <time>2019-08-17T12:14:21Z</time>
      </trkpt>
      <trkpt lat="42.1386090" lon="-7.7585390">
        <ele>630.3</ele>
        <time>2019-08-17T12:14:22Z</time>
      </trkpt>
      <trkpt lat="42.1386560" lon="-7.7585690">
        <ele>630.3</ele>
        <time>2019-08-17T12:14:23Z</time>
      </trkpt>
      <trkpt lat="42.1387030" lon="-7.7585990">
        <ele>630.3</ele>
        <time>2019-08-17T12:14:24Z</time>
      </trkpt>
      <trkpt lat="42.1387500" lon="-7.7586290">
        <ele>630.4</ele>
        <time>2019-08-17T12:14:25Z</time>
      </trkpt>
      <trkpt lat="42.1387970" lon="-7.7586600">
        <ele>630.4</ele>
        <time>2019-08-17T12:14:26Z</time>
      </trkpt>
      <trkpt lat="42.1388440" lon="-7.7586910">
        <ele>630.4</ele>
        <time>2019-08-17T12:14:27Z</time>
      </trkpt>
      <trkpt lat="42.1388910" lon="-7.7587230">
        <ele>630.5</ele>
        <time>2019-08-17T12:14:28Z</time>
      </trkpt>
      <trkpt lat="42.1389370" lon="-7.7587550">
        <ele>630.6</ele>
        <time>2019-08-17T12:14:29Z</time>
      </trkpt>
      <trkpt lat="42.1389840" lon="-7.7587880">
        <ele>630.7</ele>
        <time>2019-08-17T12:14:30Z</time>
      </trkpt>
      <trkpt lat="42.1390310" lon="-7.7588210">
        <ele>630.8</ele>
        <time>2019-08-17T12:14:31Z</time>
      </trkpt>
      <trkpt lat="42.1390770" lon="-7.7588550">
        <ele>630.9</ele>
        <time>2019-08-17T12:14:32Z</time>
      </trkpt>
      <trkpt lat="42.1391240" lon="-7.7588890">
        <ele>631.0</ele>
        <time>2019-08-17T12:14:33Z</time>
      </trkpt>
      <trkpt lat="42.1391700" lon="-7.7589230">
        <ele>631.1</ele>
        <time>2019-08-17T12:14:34Z</time>
      </trkpt>
      <trkpt lat="42.1392160" lon="-7.7589570">
        <ele>631.1</ele>
        <time>2019-08-17T12:14:35Z</time>
      </trkpt>
      <trkpt lat="42.1392620" lon="-7.7589900">
        <ele>631.2</ele>
        <time>2019-08-17T12:14:36Z</time>
      </trkpt>
      <trkpt lat="42.1393080" lon="-7.7590210">
        <ele>631.3</ele>
        <time>2019-08-17T12:14:37Z</time>
      </trkpt>
      <trkpt lat="42.1393540" lon="-7.7590510">
        <ele>631.5</ele>
        <time>2019-08-17T12:14:38Z</time>
      </trkpt>
      <trkpt lat="42.1393990" lon="-7.7590790">
        <ele>631.7</ele>
        <time>2019-08-17T12:14:39Z</time>
      </trkpt>
      <trkpt lat="42.1394440" lon="-7.7591050">
        <ele>631.9</ele>
        <time>2019-08-17T12:14:40Z</time>
      </trkpt>
      <trkpt lat="42.1394890" lon="-7.7591290">
        <ele>632.1</ele>
        <time>2019-08-17T12:14:41Z</time>
      </trkpt>
      <trkpt lat="42.1395330" lon="-7.7591520">
        <ele>632.3</ele>
        <time>2019-08-17T12:14:42Z</time>
      </trkpt>
      <trkpt lat="42.1395750" lon="-7.7591740">
        <ele>632.4</ele>
        <time>2019-08-17T12:14:43Z</time>
      </trkpt>
      <trkpt lat="42.1396150" lon="-7.7591940">
        <ele>632.6</ele>
        <time>2019-08-17T12:14:44Z</time>
      </trkpt>
      <trkpt lat="42.1396530" lon="-7.7592150">
        <ele>632.7</ele>
        <time>2019-08-17T12:14:45Z</time>
      </trkpt>
      <trkpt lat="42.1396870" lon="-7.7592360">
        <ele>632.8</ele>
        <time>2019-08-17T12:14:46Z</time>
      </trkpt>
      <trkpt lat="42.1397190" lon="-7.7592570">
        <ele>632.9</ele>
        <time>2019-08-17T12:14:47Z</time>
      </trkpt>
      <trkpt lat="42.1397470" lon="-7.7592790">
        <ele>632.9</ele>
        <time>2019-08-17T12:14:48Z</time>
      </trkpt>
      <trkpt lat="42.1397730" lon="-7.7593010">
        <ele>633.0</ele>
        <time>2019-08-17T12:14:49Z</time>
      </trkpt>
      <trkpt lat="42.1397990" lon="-7.7593220">
        <ele>633.1</ele>
        <time>2019-08-17T12:14:50Z</time>
      </trkpt>
      <trkpt lat="42.1398240" lon="-7.7593420">
        <ele>633.1</ele>
        <time>2019-08-17T12:14:51Z</time>
      </trkpt>
      <trkpt lat="42.1398510" lon="-7.7593610">
        <ele>633.2</ele>
        <time>2019-08-17T12:14:52Z</time>
      </trkpt>
      <trkpt lat="42.1398790" lon="-7.7593790">
        <ele>633.2</ele>
        <time>2019-08-17T12:14:53Z</time>
      </trkpt>
      <trkpt lat="42.1399090" lon="-7.7593960">
        <ele>633.3</ele>
        <time>2019-08-17T12:14:54Z</time>
      </trkpt>
      <trkpt lat="42.1399390" lon="-7.7594140">
        <ele>633.3</ele>
        <time>2019-08-17T12:14:55Z</time>
      </trkpt>
      <trkpt lat="42.1399710" lon="-7.7594340">
        <ele>633.4</ele>
        <time>2019-08-17T12:14:56Z</time>
      </trkpt>
      <trkpt lat="42.1400020" lon="-7.7594540">
        <ele>633.4</ele>
        <time>2019-08-17T12:14:57Z</time>
      </trkpt>
      <trkpt lat="42.1400340" lon="-7.7594750">
        <ele>633.4</ele>
        <time>2019-08-17T12:14:58Z</time>
      </trkpt>
      <trkpt lat="42.1400670" lon="-7.7594970">
        <ele>633.4</ele>
        <time>2019-08-17T12:14:59Z</time>
      </trkpt>
      <trkpt lat="42.1400990" lon="-7.7595190">
        <ele>633.4</ele>
        <time>2019-08-17T12:15:00Z</time>
      </trkpt>
      <trkpt lat="42.1401320" lon="-7.7595410">
        <ele>633.5</ele>
        <time>2019-08-17T12:15:01Z</time>
      </trkpt>
      <trkpt lat="42.1401640" lon="-7.7595620">
        <ele>633.5</ele>
        <time>2019-08-17T12:15:02Z</time>
      </trkpt>
      <trkpt lat="42.1401970" lon="-7.7595830">
        <ele>633.5</ele>
        <time>2019-08-17T12:15:03Z</time>
      </trkpt>
      <trkpt lat="42.1402290" lon="-7.7596040">
        <ele>633.6</ele>
        <time>2019-08-17T12:15:04Z</time>
      </trkpt>
      <trkpt lat="42.1402610" lon="-7.7596240">
        <ele>633.7</ele>
        <time>2019-08-17T12:15:05Z</time>
      </trkpt>
      <trkpt lat="42.1402940" lon="-7.7596450">
        <ele>633.8</ele>
        <time>2019-08-17T12:15:06Z</time>
      </trkpt>
      <trkpt lat="42.1403260" lon="-7.7596660">
        <ele>633.9</ele>
        <time>2019-08-17T12:15:07Z</time>
      </trkpt>
      <trkpt lat="42.1403580" lon="-7.7596870">
        <ele>634.1</ele>
        <time>2019-08-17T12:15:08Z</time>
      </trkpt>
      <trkpt lat="42.1403910" lon="-7.7597100">
        <ele>634.3</ele>
        <time>2019-08-17T12:15:09Z</time>
      </trkpt>
      <trkpt lat="42.1404240" lon="-7.7597340">
        <ele>634.5</ele>
        <time>2019-08-17T12:15:10Z</time>
      </trkpt>
      <trkpt lat="42.1404560" lon="-7.7597590">
        <ele>634.8</ele>
        <time>2019-08-17T12:15:11Z</time>
      </trkpt>
      <trkpt lat="42.1404900" lon="-7.7597860">
        <ele>635.1</ele>
        <time>2019-08-17T12:15:12Z</time>
      </trkpt>
      <trkpt lat="42.1405230" lon="-7.7598140">
        <ele>635.4</ele>
        <time>2019-08-17T12:15:13Z</time>
      </trkpt>
      <trkpt lat="42.1405560" lon="-7.7598430">
        <ele>635.5</ele>
        <time>2019-08-17T12:15:14Z</time>
      </trkpt>
      <trkpt lat="42.1405900" lon="-7.7598740">
        <ele>635.7</ele>
        <time>2019-08-17T12:15:15Z</time>
      </trkpt>
      <trkpt lat="42.1406240" lon="-7.7599050">
        <ele>635.9</ele>
        <time>2019-08-17T12:15:16Z</time>
      </trkpt>
      <trkpt lat="42.1406590" lon="-7.7599370">
        <ele>636.1</ele>
        <time>2019-08-17T12:15:17Z</time>
      </trkpt>
      <trkpt lat="42.1406930" lon="-7.7599700">
        <ele>636.2</ele>
        <time>2019-08-17T12:15:18Z</time>
      </trkpt>
      <trkpt lat="42.1407280" lon="-7.7600030">
        <ele>636.3</ele>
        <time>2019-08-17T12:15:19Z</time>
      </trkpt>
      <trkpt lat="42.1407630" lon="-7.7600370">
        <ele>636.5</ele>
        <time>2019-08-17T12:15:20Z</time>
      </trkpt>
      <trkpt lat="42.1407980" lon="-7.7600710">
        <ele>636.6</ele>
        <time>2019-08-17T12:15:21Z</time>
      </trkpt>
      <trkpt lat="42.1408330" lon="-7.7601060">
        <ele>636.6</ele>
        <time>2019-08-17T12:15:22Z</time>
      </trkpt>
      <trkpt lat="42.1408690" lon="-7.7601410">
        <ele>636.7</ele>
        <time>2019-08-17T12:15:23Z</time>
      </trkpt>
      <trkpt lat="42.1409050" lon="-7.7601760">
        <ele>636.8</ele>
        <time>2019-08-17T12:15:24Z</time>
      </trkpt>
      <trkpt lat="42.1409410" lon="-7.7602110">
        <ele>636.8</ele>
        <time>2019-08-17T12:15:25Z</time>
      </trkpt>
      <trkpt lat="42.1409780" lon="-7.7602460">
        <ele>636.8</ele>
        <time>2019-08-17T12:15:26Z</time>
      </trkpt>
      <trkpt lat="42.1410150" lon="-7.7602810">
        <ele>636.9</ele>
        <time>2019-08-17T12:15:27Z</time>
      </trkpt>
      <trkpt lat="42.1410520" lon="-7.7603170">
        <ele>636.9</ele>
        <time>2019-08-17T12:15:28Z</time>
      </trkpt>
      <trkpt lat="42.1410900" lon="-7.7603520">
        <ele>636.9</ele>
        <time>2019-08-17T12:15:29Z</time>
      </trkpt>
      <trkpt lat="42.1411270" lon="-7.7603880">
        <ele>637.0</ele>
        <time>2019-08-17T12:15:30Z</time>
      </trkpt>
      <trkpt lat="42.1411650" lon="-7.7604230">
        <ele>637.0</ele>
        <time>2019-08-17T12:15:31Z</time>
      </trkpt>
      <trkpt lat="42.1412020" lon="-7.7604590">
        <ele>637.0</ele>
        <time>2019-08-17T12:15:32Z</time>
      </trkpt>
      <trkpt lat="42.1412390" lon="-7.7604950">
        <ele>637.0</ele>
        <time>2019-08-17T12:15:33Z</time>
      </trkpt>
      <trkpt lat="42.1412760" lon="-7.7605320">
        <ele>637.0</ele>
        <time>2019-08-17T12:15:34Z</time>
      </trkpt>
      <trkpt lat="42.1413130" lon="-7.7605680">
        <ele>637.0</ele>
        <time>2019-08-17T12:15:35Z</time>
      </trkpt>
      <trkpt lat="42.1413490" lon="-7.7606050">
        <ele>637.0</ele>
        <time>2019-08-17T12:15:36Z</time>
      </trkpt>
      <trkpt lat="42.1413850" lon="-7.7606420">
        <ele>637.0</ele>
        <time>2019-08-17T12:15:37Z</time>
      </trkpt>
      <trkpt lat="42.1414210" lon="-7.7606800">
        <ele>637.0</ele>
        <time>2019-08-17T12:15:38Z</time>
      </trkpt>
      <trkpt lat="42.1414570" lon="-7.7607180">
        <ele>637.0</ele>
        <time>2019-08-17T12:15:39Z</time>
      </trkpt>
      <trkpt lat="42.1414930" lon="-7.7607560">
        <ele>637.1</ele>
        <time>2019-08-17T12:15:40Z</time>
      </trkpt>
      <trkpt lat="42.1415290" lon="-7.7607940">
        <ele>637.1</ele>
        <time>2019-08-17T12:15:41Z</time>
      </trkpt>
      <trkpt lat="42.1415660" lon="-7.7608330">
        <ele>637.1</ele>
        <time>2019-08-17T12:15:42Z</time>
      </trkpt>
      <trkpt lat="42.1416020" lon="-7.7608710">
        <ele>637.1</ele>
        <time>2019-08-17T12:15:43Z</time>
      </trkpt>
      <trkpt lat="42.1416390" lon="-7.7609100">
        <ele>637.2</ele>
        <time>2019-08-17T12:15:44Z</time>
      </trkpt>
      <trkpt lat="42.1416760" lon="-7.7609500">
        <ele>637.4</ele>
        <time>2019-08-17T12:15:45Z</time>
      </trkpt>
      <trkpt lat="42.1417130" lon="-7.7609890">
        <ele>637.5</ele>
        <time>2019-08-17T12:15:46Z</time>
      </trkpt>
      <trkpt lat="42.1417510" lon="-7.7610280">
        <ele>637.7</ele>
        <time>2019-08-17T12:15:47Z</time>
      </trkpt>
      <trkpt lat="42.1417890" lon="-7.7610660">
        <ele>637.8</ele>
        <time>2019-08-17T12:15:48Z</time>
      </trkpt>
      <trkpt lat="42.1418270" lon="-7.7611050">
        <ele>638.0</ele>
        <time>2019-08-17T12:15:49Z</time>
      </trkpt>
      <trkpt lat="42.1418660" lon="-7.7611430">
        <ele>638.2</ele>
        <time>2019-08-17T12:15:50Z</time>
      </trkpt>
      <trkpt lat="42.1419060" lon="-7.7611810">
        <ele>638.4</ele>
        <time>2019-08-17T12:15:51Z</time>
      </trkpt>
      <trkpt lat="42.1419460" lon="-7.7612180">
        <ele>638.6</ele>
        <time>2019-08-17T12:15:52Z</time>
      </trkpt>
      <trkpt lat="42.1419870" lon="-7.7612550">
        <ele>638.8</ele>
        <time>2019-08-17T12:15:53Z</time>
      </trkpt>
      <trkpt lat="42.1420270" lon="-7.7612910">
        <ele>638.9</ele>
        <time>2019-08-17T12:15:54Z</time>
      </trkpt>
      <trkpt lat="42.1420680" lon="-7.7613260">
        <ele>639.1</ele>
        <time>2019-08-17T12:15:55Z</time>
      </trkpt>
      <trkpt lat="42.1421080" lon="-7.7613610">
        <ele>639.3</ele>
        <time>2019-08-17T12:15:56Z</time>
      </trkpt>
      <trkpt lat="42.1421490" lon="-7.7613950">
        <ele>639.5</ele>
        <time>2019-08-17T12:15:57Z</time>
      </trkpt>
      <trkpt lat="42.1421880" lon="-7.7614280">
        <ele>639.7</ele>
        <time>2019-08-17T12:15:58Z</time>
      </trkpt>
      <trkpt lat="42.1422280" lon="-7.7614610">
        <ele>639.8</ele>
        <time>2019-08-17T12:15:59Z</time>
      </trkpt>
      <trkpt lat="42.1422670" lon="-7.7614930">
        <ele>640.0</ele>
        <time>2019-08-17T12:16:00Z</time>
      </trkpt>
      <trkpt lat="42.1423050" lon="-7.7615240">
        <ele>640.1</ele>
        <time>2019-08-17T12:16:01Z</time>
      </trkpt>
      <trkpt lat="42.1423430" lon="-7.7615550">
        <ele>640.3</ele>
        <time>2019-08-17T12:16:02Z</time>
      </trkpt>
      <trkpt lat="42.1423810" lon="-7.7615850">
        <ele>640.4</ele>
        <time>2019-08-17T12:16:03Z</time>
      </trkpt>
      <trkpt lat="42.1424190" lon="-7.7616150">
        <ele>640.6</ele>
        <time>2019-08-17T12:16:04Z</time>
      </trkpt>
      <trkpt lat="42.1424570" lon="-7.7616440">
        <ele>640.7</ele>
        <time>2019-08-17T12:16:05Z</time>
      </trkpt>
      <trkpt lat="42.1424950" lon="-7.7616730">
        <ele>640.8</ele>
        <time>2019-08-17T12:16:06Z</time>
      </trkpt>
      <trkpt lat="42.1425330" lon="-7.7617010">
        <ele>641.0</ele>
        <time>2019-08-17T12:16:07Z</time>
      </trkpt>
      <trkpt lat="42.1425720" lon="-7.7617280">
        <ele>641.1</ele>
        <time>2019-08-17T12:16:08Z</time>
      </trkpt>
      <trkpt lat="42.1426110" lon="-7.7617560">
        <ele>641.2</ele>
        <time>2019-08-17T12:16:09Z</time>
      </trkpt>
      <trkpt lat="42.1426500" lon="-7.7617820">
        <ele>641.3</ele>
        <time>2019-08-17T12:16:10Z</time>
      </trkpt>
      <trkpt lat="42.1426890" lon="-7.7618090">
        <ele>641.5</ele>
        <time>2019-08-17T12:16:11Z</time>
      </trkpt>
      <trkpt lat="42.1427290" lon="-7.7618350">
        <ele>641.6</ele>
        <time>2019-08-17T12:16:12Z</time>
      </trkpt>
      <trkpt lat="42.1427690" lon="-7.7618600">
        <ele>641.8</ele>
        <time>2019-08-17T12:16:13Z</time>
      </trkpt>
      <trkpt lat="42.1428100" lon="-7.7618850">
        <ele>641.9</ele>
        <time>2019-08-17T12:16:14Z</time>
      </trkpt>
      <trkpt lat="42.1428510" lon="-7.7619100">
        <ele>642.0</ele>
        <time>2019-08-17T12:16:15Z</time>
      </trkpt>
      <trkpt lat="42.1428930" lon="-7.7619340">
        <ele>642.2</ele>
        <time>2019-08-17T12:16:16Z</time>
      </trkpt>
      <trkpt lat="42.1429350" lon="-7.7619580">
        <ele>642.3</ele>
        <time>2019-08-17T12:16:17Z</time>
      </trkpt>
      <trkpt lat="42.1429770" lon="-7.7619800">
        <ele>642.5</ele>
        <time>2019-08-17T12:16:18Z</time>
      </trkpt>
      <trkpt lat="42.1430190" lon="-7.7620030">
        <ele>642.7</ele>
        <time>2019-08-17T12:16:19Z</time>
      </trkpt>
      <trkpt lat="42.1430610" lon="-7.7620240">
        <ele>642.8</ele>
        <time>2019-08-17T12:16:20Z</time>
      </trkpt>
      <trkpt lat="42.1431030" lon="-7.7620450">
        <ele>643.0</ele>
        <time>2019-08-17T12:16:21Z</time>
      </trkpt>
      <trkpt lat="42.1431450" lon="-7.7620650">
        <ele>643.2</ele>
        <time>2019-08-17T12:16:22Z</time>
      </trkpt>
      <trkpt lat="42.1431870" lon="-7.7620840">
        <ele>643.3</ele>
        <time>2019-08-17T12:16:23Z</time>
      </trkpt>
      <trkpt lat="42.1432280" lon="-7.7621030">
        <ele>643.5</ele>
        <time>2019-08-17T12:16:24Z</time>
      </trkpt>
      <trkpt lat="42.1432690" lon="-7.7621210">
        <ele>643.7</ele>
        <time>2019-08-17T12:16:25Z</time>
      </trkpt>
      <trkpt lat="42.1433110" lon="-7.7621380">
        <ele>643.9</ele>
        <time>2019-08-17T12:16:26Z</time>
      </trkpt>
      <trkpt lat="42.1433520" lon="-7.7621540">
        <ele>644.1</ele>
        <time>2019-08-17T12:16:27Z</time>
      </trkpt>
      <trkpt lat="42.1433930" lon="-7.7621700">
        <ele>644.4</ele>
        <time>2019-08-17T12:16:28Z</time>
      </trkpt>
      <trkpt lat="42.1434330" lon="-7.7621860">
        <ele>644.6</ele>
        <time>2019-08-17T12:16:29Z</time>
      </trkpt>
      <trkpt lat="42.1434740" lon="-7.7622010">
        <ele>644.8</ele>
        <time>2019-08-17T12:16:30Z</time>
      </trkpt>
      <trkpt lat="42.1435150" lon="-7.7622150">
        <ele>645.0</ele>
        <time>2019-08-17T12:16:31Z</time>
      </trkpt>
      <trkpt lat="42.1435550" lon="-7.7622290">
        <ele>645.3</ele>
        <time>2019-08-17T12:16:32Z</time>
      </trkpt>
      <trkpt lat="42.1435960" lon="-7.7622430">
        <ele>645.6</ele>
        <time>2019-08-17T12:16:33Z</time>
      </trkpt>
      <trkpt lat="42.1436370" lon="-7.7622560">
        <ele>645.8</ele>
        <time>2019-08-17T12:16:34Z</time>
      </trkpt>
      <trkpt lat="42.1436770" lon="-7.7622690">
        <ele>646.0</ele>
        <time>2019-08-17T12:16:35Z</time>
      </trkpt>
      <trkpt lat="42.1437180" lon="-7.7622810">
        <ele>646.2</ele>
        <time>2019-08-17T12:16:36Z</time>
      </trkpt>
      <trkpt lat="42.1437580" lon="-7.7622940">
        <ele>646.3</ele>
        <time>2019-08-17T12:16:37Z</time>
      </trkpt>
      <trkpt lat="42.1437990" lon="-7.7623060">
        <ele>646.5</ele>
        <time>2019-08-17T12:16:38Z</time>
      </trkpt>
      <trkpt lat="42.1438390" lon="-7.7623170">
        <ele>646.6</ele>
        <time>2019-08-17T12:16:39Z</time>
      </trkpt>
      <trkpt lat="42.1438800" lon="-7.7623280">
        <ele>646.8</ele>
        <time>2019-08-17T12:16:40Z</time>
      </trkpt>
      <trkpt lat="42.1439210" lon="-7.7623390">
        <ele>646.9</ele>
        <time>2019-08-17T12:16:41Z</time>
      </trkpt>
      <trkpt lat="42.1439630" lon="-7.7623500">
        <ele>647.1</ele>
        <time>2019-08-17T12:16:42Z</time>
      </trkpt>
      <trkpt lat="42.1440040" lon="-7.7623600">
        <ele>647.2</ele>
        <time>2019-08-17T12:16:43Z</time>
      </trkpt>
      <trkpt lat="42.1440460" lon="-7.7623690">
        <ele>647.4</ele>
        <time>2019-08-17T12:16:44Z</time>
      </trkpt>
      <trkpt lat="42.1440880" lon="-7.7623780">
        <ele>647.5</ele>
        <time>2019-08-17T12:16:45Z</time>
      </trkpt>
      <trkpt lat="42.1441310" lon="-7.7623870">
        <ele>647.7</ele>
        <time>2019-08-17T12:16:46Z</time>
      </trkpt>
      <trkpt lat="42.1441730" lon="-7.7623950">
        <ele>647.8</ele>
        <time>2019-08-17T12:16:47Z</time>
      </trkpt>
      <trkpt lat="42.1442140" lon="-7.7624030">
        <ele>648.0</ele>
        <time>2019-08-17T12:16:48Z</time>
      </trkpt>
      <trkpt lat="42.1442550" lon="-7.7624100">
        <ele>648.1</ele>
        <time>2019-08-17T12:16:49Z</time>
      </trkpt>
      <trkpt lat="42.1442940" lon="-7.7624170">
        <ele>648.2</ele>
        <time>2019-08-17T12:16:50Z</time>
      </trkpt>
      <trkpt lat="42.1443330" lon="-7.7624240">
        <ele>648.3</ele>
        <time>2019-08-17T12:16:51Z</time>
      </trkpt>
      <trkpt lat="42.1443690" lon="-7.7624300">
        <ele>648.4</ele>
        <time>2019-08-17T12:16:52Z</time>
      </trkpt>
      <trkpt lat="42.1444040" lon="-7.7624360">
        <ele>648.5</ele>
        <time>2019-08-17T12:16:53Z</time>
      </trkpt>
      <trkpt lat="42.1444370" lon="-7.7624410">
        <ele>648.6</ele>
        <time>2019-08-17T12:16:54Z</time>
      </trkpt>
      <trkpt lat="42.1444690" lon="-7.7624460">
        <ele>648.7</ele>
        <time>2019-08-17T12:16:55Z</time>
      </trkpt>
      <trkpt lat="42.1445010" lon="-7.7624500">
        <ele>648.9</ele>
        <time>2019-08-17T12:16:56Z</time>
      </trkpt>
      <trkpt lat="42.1445330" lon="-7.7624530">
        <ele>649.0</ele>
        <time>2019-08-17T12:16:57Z</time>
      </trkpt>
      <trkpt lat="42.1445650" lon="-7.7624550">
        <ele>649.1</ele>
        <time>2019-08-17T12:16:58Z</time>
      </trkpt>
      <trkpt lat="42.1445970" lon="-7.7624580">
        <ele>649.3</ele>
        <time>2019-08-17T12:16:59Z</time>
      </trkpt>
      <trkpt lat="42.1446300" lon="-7.7624630">
        <ele>649.4</ele>
        <time>2019-08-17T12:17:00Z</time>
      </trkpt>
      <trkpt lat="42.1446630" lon="-7.7624680">
        <ele>649.6</ele>
        <time>2019-08-17T12:17:01Z</time>
      </trkpt>
      <trkpt lat="42.1446980" lon="-7.7624750">
        <ele>649.7</ele>
        <time>2019-08-17T12:17:02Z</time>
      </trkpt>
      <trkpt lat="42.1447330" lon="-7.7624830">
        <ele>649.9</ele>
        <time>2019-08-17T12:17:03Z</time>
      </trkpt>
      <trkpt lat="42.1447690" lon="-7.7624910">
        <ele>650.0</ele>
        <time>2019-08-17T12:17:04Z</time>
      </trkpt>
      <trkpt lat="42.1448070" lon="-7.7624990">
        <ele>650.2</ele>
        <time>2019-08-17T12:17:05Z</time>
      </trkpt>
      <trkpt lat="42.1448450" lon="-7.7625060">
        <ele>650.3</ele>
        <time>2019-08-17T12:17:06Z</time>
      </trkpt>
      <trkpt lat="42.1448840" lon="-7.7625130">
        <ele>650.5</ele>
        <time>2019-08-17T12:17:07Z</time>
      </trkpt>
      <trkpt lat="42.1449240" lon="-7.7625170">
        <ele>650.7</ele>
        <time>2019-08-17T12:17:08Z</time>
      </trkpt>
      <trkpt lat="42.1449650" lon="-7.7625200">
        <ele>650.9</ele>
        <time>2019-08-17T12:17:09Z</time>
      </trkpt>
      <trkpt lat="42.1450070" lon="-7.7625220">
        <ele>651.0</ele>
        <time>2019-08-17T12:17:10Z</time>
      </trkpt>
      <trkpt lat="42.1450490" lon="-7.7625230">
        <ele>651.2</ele>
        <time>2019-08-17T12:17:11Z</time>
      </trkpt>
      <trkpt lat="42.1450920" lon="-7.7625230">
        <ele>651.3</ele>
        <time>2019-08-17T12:17:12Z</time>
      </trkpt>
      <trkpt lat="42.1451350" lon="-7.7625220">
        <ele>651.5</ele>
        <time>2019-08-17T12:17:13Z</time>
      </trkpt>
      <trkpt lat="42.1451790" lon="-7.7625200">
        <ele>651.7</ele>
        <time>2019-08-17T12:17:14Z</time>
      </trkpt>
      <trkpt lat="42.1452230" lon="-7.7625180">
        <ele>651.9</ele>
        <time>2019-08-17T12:17:15Z</time>
      </trkpt>
      <trkpt lat="42.1452670" lon="-7.7625160">
        <ele>652.0</ele>
        <time>2019-08-17T12:17:16Z</time>
      </trkpt>
      <trkpt lat="42.1453120" lon="-7.7625140">
        <ele>652.2</ele>
        <time>2019-08-17T12:17:17Z</time>
      </trkpt>
      <trkpt lat="42.1453560" lon="-7.7625110">
        <ele>652.3</ele>
        <time>2019-08-17T12:17:18Z</time>
      </trkpt>
      <trkpt lat="42.1454000" lon="-7.7625080">
        <ele>652.5</ele>
        <time>2019-08-17T12:17:19Z</time>
      </trkpt>
      <trkpt lat="42.1454450" lon="-7.7625040">
        <ele>652.6</ele>
        <time>2019-08-17T12:17:20Z</time>
      </trkpt>
      <trkpt lat="42.1454890" lon="-7.7625000">
        <ele>652.7</ele>
        <time>2019-08-17T12:17:21Z</time>
      </trkpt>
      <trkpt lat="42.1455330" lon="-7.7624950">
        <ele>652.9</ele>
        <time>2019-08-17T12:17:22Z</time>
      </trkpt>
      <trkpt lat="42.1455770" lon="-7.7624900">
        <ele>653.1</ele>
        <time>2019-08-17T12:17:23Z</time>
      </trkpt>
      <trkpt lat="42.1456210" lon="-7.7624840">
        <ele>653.2</ele>
        <time>2019-08-17T12:17:24Z</time>
      </trkpt>
      <trkpt lat="42.1456640" lon="-7.7624770">
        <ele>653.4</ele>
        <time>2019-08-17T12:17:25Z</time>
      </trkpt>
      <trkpt lat="42.1457080" lon="-7.7624700">
        <ele>653.6</ele>
        <time>2019-08-17T12:17:26Z</time>
      </trkpt>
      <trkpt lat="42.1457510" lon="-7.7624620">
        <ele>653.8</ele>
        <time>2019-08-17T12:17:27Z</time>
      </trkpt>
      <trkpt lat="42.1457930" lon="-7.7624530">
        <ele>654.0</ele>
        <time>2019-08-17T12:17:28Z</time>
      </trkpt>
      <trkpt lat="42.1458350" lon="-7.7624440">
        <ele>654.1</ele>
        <time>2019-08-17T12:17:29Z</time>
      </trkpt>
      <trkpt lat="42.1458770" lon="-7.7624350">
        <ele>654.3</ele>
        <time>2019-08-17T12:17:30Z</time>
      </trkpt>
      <trkpt lat="42.1459180" lon="-7.7624250">
        <ele>654.5</ele>
        <time>2019-08-17T12:17:31Z</time>
      </trkpt>
      <trkpt lat="42.1459590" lon="-7.7624150">
        <ele>654.7</ele>
        <time>2019-08-17T12:17:32Z</time>
      </trkpt>
      <trkpt lat="42.1459990" lon="-7.7624050">
        <ele>654.9</ele>
        <time>2019-08-17T12:17:33Z</time>
      </trkpt>
      <trkpt lat="42.1460390" lon="-7.7623950">
        <ele>655.0</ele>
        <time>2019-08-17T12:17:34Z</time>
      </trkpt>
      <trkpt lat="42.1460780" lon="-7.7623840">
        <ele>655.2</ele>
        <time>2019-08-17T12:17:35Z</time>
      </trkpt>
      <trkpt lat="42.1461170" lon="-7.7623730">
        <ele>655.3</ele>
        <time>2019-08-17T12:17:36Z</time>
      </trkpt>
      <trkpt lat="42.1461570" lon="-7.7623620">
        <ele>655.6</ele>
        <time>2019-08-17T12:17:37Z</time>
      </trkpt>
      <trkpt lat="42.1461970" lon="-7.7623510">
        <ele>655.7</ele>
        <time>2019-08-17T12:17:38Z</time>
      </trkpt>
      <trkpt lat="42.1462360" lon="-7.7623390">
        <ele>655.9</ele>
        <time>2019-08-17T12:17:39Z</time>
      </trkpt>
      <trkpt lat="42.1462770" lon="-7.7623280">
        <ele>656.1</ele>
        <time>2019-08-17T12:17:40Z</time>
      </trkpt>
      <trkpt lat="42.1463170" lon="-7.7623170">
        <ele>656.2</ele>
        <time>2019-08-17T12:17:41Z</time>
      </trkpt>
      <trkpt lat="42.1463570" lon="-7.7623050">
        <ele>656.3</ele>
        <time>2019-08-17T12:17:42Z</time>
      </trkpt>
      <trkpt lat="42.1463960" lon="-7.7622940">
        <ele>656.4</ele>
        <time>2019-08-17T12:17:43Z</time>
      </trkpt>
      <trkpt lat="42.1464360" lon="-7.7622820">
        <ele>656.5</ele>
        <time>2019-08-17T12:17:44Z</time>
      </trkpt>
      <trkpt lat="42.1464750" lon="-7.7622710">
        <ele>656.6</ele>
        <time>2019-08-17T12:17:45Z</time>
      </trkpt>
      <trkpt lat="42.1465130" lon="-7.7622590">
        <ele>656.7</ele>
        <time>2019-08-17T12:17:46Z</time>
      </trkpt>
      <trkpt lat="42.1465500" lon="-7.7622470">
        <ele>656.9</ele>
        <time>2019-08-17T12:17:47Z</time>
      </trkpt>
      <trkpt lat="42.1465870" lon="-7.7622360">
        <ele>657.0</ele>
        <time>2019-08-17T12:17:48Z</time>
      </trkpt>
      <trkpt lat="42.1466240" lon="-7.7622240">
        <ele>657.1</ele>
        <time>2019-08-17T12:17:49Z</time>
      </trkpt>
      <trkpt lat="42.1466590" lon="-7.7622120">
        <ele>657.2</ele>
        <time>2019-08-17T12:17:50Z</time>
      </trkpt>
      <trkpt lat="42.1467170" lon="-7.7621930">
        <ele>657.4</ele>
        <time>2019-08-17T12:17:51Z</time>
      </trkpt>
      <trkpt lat="42.1467410" lon="-7.7621850">
        <ele>657.5</ele>
        <time>2019-08-17T12:17:52Z</time>
      </trkpt>
      <trkpt lat="42.1467640" lon="-7.7621770">
        <ele>657.6</ele>
        <time>2019-08-17T12:17:53Z</time>
      </trkpt>
      <trkpt lat="42.1467980" lon="-7.7621660">
        <ele>657.7</ele>
        <time>2019-08-17T12:17:54Z</time>
      </trkpt>
      <trkpt lat="42.1468320" lon="-7.7621540">
        <ele>657.8</ele>
        <time>2019-08-17T12:17:55Z</time>
      </trkpt>
      <trkpt lat="42.1468660" lon="-7.7621420">
        <ele>657.9</ele>
        <time>2019-08-17T12:17:56Z</time>
      </trkpt>
      <trkpt lat="42.1469000" lon="-7.7621300">
        <ele>658.1</ele>
        <time>2019-08-17T12:17:57Z</time>
      </trkpt>
      <trkpt lat="42.1469330" lon="-7.7621180">
        <ele>658.2</ele>
        <time>2019-08-17T12:17:58Z</time>
      </trkpt>
      <trkpt lat="42.1469670" lon="-7.7621060">
        <ele>658.3</ele>
        <time>2019-08-17T12:17:59Z</time>
      </trkpt>
      <trkpt lat="42.1470010" lon="-7.7620930">
        <ele>658.3</ele>
        <time>2019-08-17T12:18:00Z</time>
      </trkpt>
      <trkpt lat="42.1470350" lon="-7.7620790">
        <ele>658.4</ele>
        <time>2019-08-17T12:18:01Z</time>
      </trkpt>
      <trkpt lat="42.1470690" lon="-7.7620660">
        <ele>658.4</ele>
        <time>2019-08-17T12:18:02Z</time>
      </trkpt>
      <trkpt lat="42.1471030" lon="-7.7620510">
        <ele>658.5</ele>
        <time>2019-08-17T12:18:03Z</time>
      </trkpt>
      <trkpt lat="42.1471370" lon="-7.7620360">
        <ele>658.6</ele>
        <time>2019-08-17T12:18:04Z</time>
      </trkpt>
      <trkpt lat="42.1471720" lon="-7.7620210">
        <ele>658.6</ele>
        <time>2019-08-17T12:18:05Z</time>
      </trkpt>
      <trkpt lat="42.1472060" lon="-7.7620050">
        <ele>658.6</ele>
        <time>2019-08-17T12:18:06Z</time>
      </trkpt>
      <trkpt lat="42.1472400" lon="-7.7619890">
        <ele>658.7</ele>
        <time>2019-08-17T12:18:07Z</time>
      </trkpt>
      <trkpt lat="42.1472750" lon="-7.7619730">
        <ele>658.7</ele>
        <time>2019-08-17T12:18:08Z</time>
      </trkpt>
      <trkpt lat="42.1473090" lon="-7.7619580">
        <ele>658.7</ele>
        <time>2019-08-17T12:18:09Z</time>
      </trkpt>
      <trkpt lat="42.1473430" lon="-7.7619420">
        <ele>658.7</ele>
        <time>2019-08-17T12:18:10Z</time>
      </trkpt>
      <trkpt lat="42.1473760" lon="-7.7619260">
        <ele>658.8</ele>
        <time>2019-08-17T12:18:11Z</time>
      </trkpt>
      <trkpt lat="42.1474100" lon="-7.7619110">
        <ele>658.8</ele>
        <time>2019-08-17T12:18:12Z</time>
      </trkpt>
      <trkpt lat="42.1474440" lon="-7.7618950">
        <ele>658.8</ele>
        <time>2019-08-17T12:18:13Z</time>
      </trkpt>
      <trkpt lat="42.1474780" lon="-7.7618790">
        <ele>658.8</ele>
        <time>2019-08-17T12:18:14Z</time>
      </trkpt>
      <trkpt lat="42.1475120" lon="-7.7618630">
        <ele>658.8</ele>
        <time>2019-08-17T12:18:15Z</time>
      </trkpt>
      <trkpt lat="42.1475460" lon="-7.7618470">
        <ele>658.8</ele>
        <time>2019-08-17T12:18:16Z</time>
      </trkpt>
      <trkpt lat="42.1475810" lon="-7.7618310">
        <ele>658.8</ele>
        <time>2019-08-17T12:18:17Z</time>
      </trkpt>
      <trkpt lat="42.1476150" lon="-7.7618140">
        <ele>658.4</ele>
        <time>2019-08-17T12:18:18Z</time>
      </trkpt>
      <trkpt lat="42.1476510" lon="-7.7617970">
        <ele>658.5</ele>
        <time>2019-08-17T12:18:19Z</time>
      </trkpt>
      <trkpt lat="42.1476860" lon="-7.7617790">
        <ele>658.6</ele>
        <time>2019-08-17T12:18:20Z</time>
      </trkpt>
      <trkpt lat="42.1477220" lon="-7.7617610">
        <ele>658.7</ele>
        <time>2019-08-17T12:18:21Z</time>
      </trkpt>
      <trkpt lat="42.1477580" lon="-7.7617430">
        <ele>658.8</ele>
        <time>2019-08-17T12:18:22Z</time>
      </trkpt>
      <trkpt lat="42.1477940" lon="-7.7617250">
        <ele>658.9</ele>
        <time>2019-08-17T12:18:23Z</time>
      </trkpt>
      <trkpt lat="42.1478310" lon="-7.7617060">
        <ele>659.0</ele>
        <time>2019-08-17T12:18:24Z</time>
      </trkpt>
      <trkpt lat="42.1478670" lon="-7.7616870">
        <ele>659.1</ele>
        <time>2019-08-17T12:18:25Z</time>
      </trkpt>
      <trkpt lat="42.1479040" lon="-7.7616670">
        <ele>659.2</ele>
        <time>2019-08-17T12:18:26Z</time>
      </trkpt>
      <trkpt lat="42.1479410" lon="-7.7616480">
        <ele>659.3</ele>
        <time>2019-08-17T12:18:27Z</time>
      </trkpt>
      <trkpt lat="42.1479770" lon="-7.7616280">
        <ele>659.4</ele>
        <time>2019-08-17T12:18:28Z</time>
      </trkpt>
      <trkpt lat="42.1480140" lon="-7.7616080">
        <ele>659.5</ele>
        <time>2019-08-17T12:18:29Z</time>
      </trkpt>
      <trkpt lat="42.1480490" lon="-7.7615890">
        <ele>659.6</ele>
        <time>2019-08-17T12:18:30Z</time>
      </trkpt>
      <trkpt lat="42.1480850" lon="-7.7615690">
        <ele>659.7</ele>
        <time>2019-08-17T12:18:31Z</time>
      </trkpt>
      <trkpt lat="42.1481190" lon="-7.7615500">
        <ele>659.8</ele>
        <time>2019-08-17T12:18:32Z</time>
      </trkpt>
      <trkpt lat="42.1481530" lon="-7.7615310">
        <ele>659.9</ele>
        <time>2019-08-17T12:18:33Z</time>
      </trkpt>
      <trkpt lat="42.1481860" lon="-7.7615130">
        <ele>660.0</ele>
        <time>2019-08-17T12:18:34Z</time>
      </trkpt>
      <trkpt lat="42.1482180" lon="-7.7614950">
        <ele>660.1</ele>
        <time>2019-08-17T12:18:35Z</time>
      </trkpt>
      <trkpt lat="42.1482490" lon="-7.7614780">
        <ele>660.2</ele>
        <time>2019-08-17T12:18:36Z</time>
      </trkpt>
      <trkpt lat="42.1482800" lon="-7.7614600">
        <ele>660.2</ele>
        <time>2019-08-17T12:18:37Z</time>
      </trkpt>
      <trkpt lat="42.1483110" lon="-7.7614430">
        <ele>660.3</ele>
        <time>2019-08-17T12:18:38Z</time>
      </trkpt>
      <trkpt lat="42.1483410" lon="-7.7614260">
        <ele>660.4</ele>
        <time>2019-08-17T12:18:39Z</time>
      </trkpt>
      <trkpt lat="42.1483720" lon="-7.7614080">
        <ele>660.5</ele>
        <time>2019-08-17T12:18:40Z</time>
      </trkpt>
      <trkpt lat="42.1484030" lon="-7.7613910">
        <ele>660.6</ele>
        <time>2019-08-17T12:18:41Z</time>
      </trkpt>
      <trkpt lat="42.1484340" lon="-7.7613720">
        <ele>660.7</ele>
        <time>2019-08-17T12:18:42Z</time>
      </trkpt>
      <trkpt lat="42.1484660" lon="-7.7613530">
        <ele>660.8</ele>
        <time>2019-08-17T12:18:43Z</time>
      </trkpt>
      <trkpt lat="42.1484980" lon="-7.7613340">
        <ele>660.9</ele>
        <time>2019-08-17T12:18:44Z</time>
      </trkpt>
      <trkpt lat="42.1485310" lon="-7.7613130">
        <ele>661.0</ele>
        <time>2019-08-17T12:18:45Z</time>
      </trkpt>
      <trkpt lat="42.1485660" lon="-7.7612920">
        <ele>661.1</ele>
        <time>2019-08-17T12:18:46Z</time>
      </trkpt>
      <trkpt lat="42.1486010" lon="-7.7612690">
        <ele>661.2</ele>
        <time>2019-08-17T12:18:47Z</time>
      </trkpt>
      <trkpt lat="42.1486370" lon="-7.7612450">
        <ele>661.3</ele>
        <time>2019-08-17T12:18:48Z</time>
      </trkpt>
      <trkpt lat="42.1486750" lon="-7.7612190">
        <ele>661.4</ele>
        <time>2019-08-17T12:18:49Z</time>
      </trkpt>
      <trkpt lat="42.1487130" lon="-7.7611920">
        <ele>661.5</ele>
        <time>2019-08-17T12:18:50Z</time>
      </trkpt>
      <trkpt lat="42.1487530" lon="-7.7611640">
        <ele>661.7</ele>
        <time>2019-08-17T12:18:51Z</time>
      </trkpt>
      <trkpt lat="42.1487930" lon="-7.7611350">
        <ele>661.8</ele>
        <time>2019-08-17T12:18:52Z</time>
      </trkpt>
      <trkpt lat="42.1488330" lon="-7.7611050">
        <ele>661.9</ele>
        <time>2019-08-17T12:18:53Z</time>
      </trkpt>
      <trkpt lat="42.1488730" lon="-7.7610750">
        <ele>661.9</ele>
        <time>2019-08-17T12:18:54Z</time>
      </trkpt>
      <trkpt lat="42.1489130" lon="-7.7610440">
        <ele>662.0</ele>
        <time>2019-08-17T12:18:55Z</time>
      </trkpt>
      <trkpt lat="42.1489520" lon="-7.7610140">
        <ele>662.1</ele>
        <time>2019-08-17T12:18:56Z</time>
      </trkpt>
      <trkpt lat="42.1489900" lon="-7.7609830">
        <ele>662.2</ele>
        <time>2019-08-17T12:18:57Z</time>
      </trkpt>
      <trkpt lat="42.1490270" lon="-7.7609530">
        <ele>662.3</ele>
        <time>2019-08-17T12:18:58Z</time>
      </trkpt>
      <trkpt lat="42.1490640" lon="-7.7609230">
        <ele>662.3</ele>
        <time>2019-08-17T12:18:59Z</time>
      </trkpt>
      <trkpt lat="42.1491000" lon="-7.7608920">
        <ele>662.4</ele>
        <time>2019-08-17T12:19:00Z</time>
      </trkpt>
      <trkpt lat="42.1491350" lon="-7.7608620">
        <ele>662.5</ele>
        <time>2019-08-17T12:19:01Z</time>
      </trkpt>
      <trkpt lat="42.1491690" lon="-7.7608320">
        <ele>662.5</ele>
        <time>2019-08-17T12:19:02Z</time>
      </trkpt>
      <trkpt lat="42.1492040" lon="-7.7608010">
        <ele>662.6</ele>
        <time>2019-08-17T12:19:03Z</time>
      </trkpt>
      <trkpt lat="42.1492370" lon="-7.7607710">
        <ele>662.7</ele>
        <time>2019-08-17T12:19:04Z</time>
      </trkpt>
      <trkpt lat="42.1492710" lon="-7.7607400">
        <ele>662.7</ele>
        <time>2019-08-17T12:19:05Z</time>
      </trkpt>
      <trkpt lat="42.1493040" lon="-7.7607100">
        <ele>662.8</ele>
        <time>2019-08-17T12:19:06Z</time>
      </trkpt>
      <trkpt lat="42.1493360" lon="-7.7606790">
        <ele>662.9</ele>
        <time>2019-08-17T12:19:07Z</time>
      </trkpt>
      <trkpt lat="42.1493680" lon="-7.7606480">
        <ele>663.0</ele>
        <time>2019-08-17T12:19:08Z</time>
      </trkpt>
      <trkpt lat="42.1494000" lon="-7.7606180">
        <ele>663.0</ele>
        <time>2019-08-17T12:19:09Z</time>
      </trkpt>
      <trkpt lat="42.1494310" lon="-7.7605880">
        <ele>663.1</ele>
        <time>2019-08-17T12:19:10Z</time>
      </trkpt>
      <trkpt lat="42.1494610" lon="-7.7605580">
        <ele>663.2</ele>
        <time>2019-08-17T12:19:11Z</time>
      </trkpt>
      <trkpt lat="42.1494910" lon="-7.7605290">
        <ele>663.3</ele>
        <time>2019-08-17T12:19:12Z</time>
      </trkpt>
      <trkpt lat="42.1495200" lon="-7.7605000">
        <ele>663.3</ele>
        <time>2019-08-17T12:19:13Z</time>
      </trkpt>
      <trkpt lat="42.1495480" lon="-7.7604720">
        <ele>663.4</ele>
        <time>2019-08-17T12:19:14Z</time>
      </trkpt>
      <trkpt lat="42.1495760" lon="-7.7604440">
        <ele>663.4</ele>
        <time>2019-08-17T12:19:15Z</time>
      </trkpt>
      <trkpt lat="42.1496040" lon="-7.7604150">
        <ele>663.5</ele>
        <time>2019-08-17T12:19:16Z</time>
      </trkpt>
      <trkpt lat="42.1496310" lon="-7.7603870">
        <ele>663.6</ele>
        <time>2019-08-17T12:19:17Z</time>
      </trkpt>
      <trkpt lat="42.1496580" lon="-7.7603590">
        <ele>663.6</ele>
        <time>2019-08-17T12:19:18Z</time>
      </trkpt>
      <trkpt lat="42.1496850" lon="-7.7603310">
        <ele>663.7</ele>
        <time>2019-08-17T12:19:19Z</time>
      </trkpt>
      <trkpt lat="42.1497110" lon="-7.7603020">
        <ele>663.7</ele>
        <time>2019-08-17T12:19:20Z</time>
      </trkpt>
      <trkpt lat="42.1497370" lon="-7.7602740">
        <ele>663.8</ele>
        <time>2019-08-17T12:19:21Z</time>
      </trkpt>
      <trkpt lat="42.1497630" lon="-7.7602440">
        <ele>663.8</ele>
        <time>2019-08-17T12:19:22Z</time>
      </trkpt>
      <trkpt lat="42.1497890" lon="-7.7602140">
        <ele>663.9</ele>
        <time>2019-08-17T12:19:23Z</time>
      </trkpt>
      <trkpt lat="42.1498150" lon="-7.7601840">
        <ele>663.9</ele>
        <time>2019-08-17T12:19:24Z</time>
      </trkpt>
      <trkpt lat="42.1498420" lon="-7.7601530">
        <ele>664.0</ele>
        <time>2019-08-17T12:19:25Z</time>
      </trkpt>
      <trkpt lat="42.1498680" lon="-7.7601210">
        <ele>664.1</ele>
        <time>2019-08-17T12:19:26Z</time>
      </trkpt>
      <trkpt lat="42.1498940" lon="-7.7600880">
        <ele>664.1</ele>
        <time>2019-08-17T12:19:27Z</time>
      </trkpt>
      <trkpt lat="42.1499210" lon="-7.7600540">
        <ele>664.2</ele>
        <time>2019-08-17T12:19:28Z</time>
      </trkpt>
      <trkpt lat="42.1499480" lon="-7.7600190">
        <ele>664.3</ele>
        <time>2019-08-17T12:19:29Z</time>
      </trkpt>
      <trkpt lat="42.1499760" lon="-7.7599840">
        <ele>664.3</ele>
        <time>2019-08-17T12:19:30Z</time>
      </trkpt>
      <trkpt lat="42.1500040" lon="-7.7599480">
        <ele>664.4</ele>
        <time>2019-08-17T12:19:31Z</time>
      </trkpt>
      <trkpt lat="42.1500320" lon="-7.7599110">
        <ele>664.5</ele>
        <time>2019-08-17T12:19:32Z</time>
      </trkpt>
      <trkpt lat="42.1500610" lon="-7.7598750">
        <ele>664.5</ele>
        <time>2019-08-17T12:19:33Z</time>
      </trkpt>
      <trkpt lat="42.1500910" lon="-7.7598380">
        <ele>664.6</ele>
        <time>2019-08-17T12:19:34Z</time>
      </trkpt>
      <trkpt lat="42.1501200" lon="-7.7598010">
        <ele>664.7</ele>
        <time>2019-08-17T12:19:35Z</time>
      </trkpt>
      <trkpt lat="42.1501500" lon="-7.7597650">
        <ele>664.7</ele>
        <time>2019-08-17T12:19:36Z</time>
      </trkpt>
      <trkpt lat="42.1501810" lon="-7.7597290">
        <ele>664.8</ele>
        <time>2019-08-17T12:19:37Z</time>
      </trkpt>
      <trkpt lat="42.1502110" lon="-7.7596930">
        <ele>664.9</ele>
        <time>2019-08-17T12:19:38Z</time>
      </trkpt>
      <trkpt lat="42.1502410" lon="-7.7596580">
        <ele>664.9</ele>
        <time>2019-08-17T12:19:39Z</time>
      </trkpt>
      <trkpt lat="42.1502710" lon="-7.7596230">
        <ele>665.0</ele>
        <time>2019-08-17T12:19:40Z</time>
      </trkpt>
      <trkpt lat="42.1503010" lon="-7.7595880">
        <ele>665.0</ele>
        <time>2019-08-17T12:19:41Z</time>
      </trkpt>
      <trkpt lat="42.1503300" lon="-7.7595530">
        <ele>665.1</ele>
        <time>2019-08-17T12:19:42Z</time>
      </trkpt>
      <trkpt lat="42.1503590" lon="-7.7595190">
        <ele>665.1</ele>
        <time>2019-08-17T12:19:43Z</time>
      </trkpt>
      <trkpt lat="42.1503870" lon="-7.7594840">
        <ele>665.2</ele>
        <time>2019-08-17T12:19:44Z</time>
      </trkpt>
      <trkpt lat="42.1504150" lon="-7.7594500">
        <ele>665.2</ele>
        <time>2019-08-17T12:19:45Z</time>
      </trkpt>
      <trkpt lat="42.1504420" lon="-7.7594160">
        <ele>665.3</ele>
        <time>2019-08-17T12:19:46Z</time>
      </trkpt>
      <trkpt lat="42.1504690" lon="-7.7593820">
        <ele>665.3</ele>
        <time>2019-08-17T12:19:47Z</time>
      </trkpt>
      <trkpt lat="42.1504950" lon="-7.7593480">
        <ele>665.4</ele>
        <time>2019-08-17T12:19:48Z</time>
      </trkpt>
      <trkpt lat="42.1505210" lon="-7.7593140">
        <ele>665.4</ele>
        <time>2019-08-17T12:19:49Z</time>
      </trkpt>
      <trkpt lat="42.1505470" lon="-7.7592810">
        <ele>665.5</ele>
        <time>2019-08-17T12:19:50Z</time>
      </trkpt>
      <trkpt lat="42.1505720" lon="-7.7592470">
        <ele>665.5</ele>
        <time>2019-08-17T12:19:51Z</time>
      </trkpt>
      <trkpt lat="42.1505970" lon="-7.7592130">
        <ele>665.6</ele>
        <time>2019-08-17T12:19:52Z</time>
      </trkpt>
      <trkpt lat="42.1506230" lon="-7.7591800">
        <ele>665.6</ele>
        <time>2019-08-17T12:19:53Z</time>
      </trkpt>
      <trkpt lat="42.1506480" lon="-7.7591460">
        <ele>665.7</ele>
        <time>2019-08-17T12:19:54Z</time>
      </trkpt>
      <trkpt lat="42.1506730" lon="-7.7591130">
        <ele>665.7</ele>
        <time>2019-08-17T12:19:55Z</time>
      </trkpt>
      <trkpt lat="42.1506980" lon="-7.7590800">
        <ele>665.7</ele>
        <time>2019-08-17T12:19:56Z</time>
      </trkpt>
      <trkpt lat="42.1507240" lon="-7.7590460">
        <ele>665.8</ele>
        <time>2019-08-17T12:19:57Z</time>
      </trkpt>
      <trkpt lat="42.1507490" lon="-7.7590130">
        <ele>665.8</ele>
        <time>2019-08-17T12:19:58Z</time>
      </trkpt>
      <trkpt lat="42.1507750" lon="-7.7589790">
        <ele>665.9</ele>
        <time>2019-08-17T12:19:59Z</time>
      </trkpt>
      <trkpt lat="42.1508010" lon="-7.7589450">
        <ele>665.9</ele>
        <time>2019-08-17T12:20:00Z</time>
      </trkpt>
      <trkpt lat="42.1508270" lon="-7.7589120">
        <ele>666.0</ele>
        <time>2019-08-17T12:20:01Z</time>
      </trkpt>
      <trkpt lat="42.1508540" lon="-7.7588780">
        <ele>666.0</ele>
        <time>2019-08-17T12:20:02Z</time>
      </trkpt>
      <trkpt lat="42.1508810" lon="-7.7588450">
        <ele>666.1</ele>
        <time>2019-08-17T12:20:03Z</time>
      </trkpt>
      <trkpt lat="42.1509080" lon="-7.7588110">
        <ele>666.1</ele>
        <time>2019-08-17T12:20:04Z</time>
      </trkpt>
      <trkpt lat="42.1509360" lon="-7.7587770">
        <ele>666.2</ele>
        <time>2019-08-17T12:20:05Z</time>
      </trkpt>
      <trkpt lat="42.1509640" lon="-7.7587440">
        <ele>666.2</ele>
        <time>2019-08-17T12:20:06Z</time>
      </trkpt>
      <trkpt lat="42.1509920" lon="-7.7587110">
        <ele>666.3</ele>
        <time>2019-08-17T12:20:07Z</time>
      </trkpt>
      <trkpt lat="42.1510210" lon="-7.7586770">
        <ele>666.3</ele>
        <time>2019-08-17T12:20:08Z</time>
      </trkpt>
      <trkpt lat="42.1510500" lon="-7.7586440">
        <ele>666.4</ele>
        <time>2019-08-17T12:20:09Z</time>
      </trkpt>
      <trkpt lat="42.1510790" lon="-7.7586110">
        <ele>666.4</ele>
        <time>2019-08-17T12:20:10Z</time>
      </trkpt>
      <trkpt lat="42.1511080" lon="-7.7585780">
        <ele>666.5</ele>
        <time>2019-08-17T12:20:11Z</time>
      </trkpt>
      <trkpt lat="42.1511380" lon="-7.7585450">
        <ele>666.6</ele>
        <time>2019-08-17T12:20:12Z</time>
      </trkpt>
      <trkpt lat="42.1511680" lon="-7.7585130">
        <ele>666.6</ele>
        <time>2019-08-17T12:20:13Z</time>
      </trkpt>
      <trkpt lat="42.1511990" lon="-7.7584810">
        <ele>666.7</ele>
        <time>2019-08-17T12:20:14Z</time>
      </trkpt>
      <trkpt lat="42.1512290" lon="-7.7584480">
        <ele>666.8</ele>
        <time>2019-08-17T12:20:15Z</time>
      </trkpt>
      <trkpt lat="42.1512600" lon="-7.7584170">
        <ele>666.8</ele>
        <time>2019-08-17T12:20:16Z</time>
      </trkpt>
      <trkpt lat="42.1512920" lon="-7.7583850">
        <ele>666.9</ele>
        <time>2019-08-17T12:20:17Z</time>
      </trkpt>
      <trkpt lat="42.1513230" lon="-7.7583540">
        <ele>666.9</ele>
        <time>2019-08-17T12:20:18Z</time>
      </trkpt>
      <trkpt lat="42.1513550" lon="-7.7583230">
        <ele>667.0</ele>
        <time>2019-08-17T12:20:19Z</time>
      </trkpt>
      <trkpt lat="42.1513880" lon="-7.7582920">
        <ele>667.0</ele>
        <time>2019-08-17T12:20:20Z</time>
      </trkpt>
      <trkpt lat="42.1514200" lon="-7.7582620">
        <ele>667.1</ele>
        <time>2019-08-17T12:20:21Z</time>
      </trkpt>
      <trkpt lat="42.1514530" lon="-7.7582320">
        <ele>667.1</ele>
        <time>2019-08-17T12:20:22Z</time>
      </trkpt>
      <trkpt lat="42.1514870" lon="-7.7582030">
        <ele>667.2</ele>
        <time>2019-08-17T12:20:23Z</time>
      </trkpt>
      <trkpt lat="42.1515200" lon="-7.7581740">
        <ele>667.2</ele>
        <time>2019-08-17T12:20:24Z</time>
      </trkpt>
      <trkpt lat="42.1515540" lon="-7.7581450">
        <ele>667.3</ele>
        <time>2019-08-17T12:20:25Z</time>
      </trkpt>
      <trkpt lat="42.1515890" lon="-7.7581170">
        <ele>667.3</ele>
        <time>2019-08-17T12:20:26Z</time>
      </trkpt>
      <trkpt lat="42.1516230" lon="-7.7580900">
        <ele>667.4</ele>
        <time>2019-08-17T12:20:27Z</time>
      </trkpt>
      <trkpt lat="42.1516580" lon="-7.7580630">
        <ele>667.4</ele>
        <time>2019-08-17T12:20:28Z</time>
      </trkpt>
      <trkpt lat="42.1516940" lon="-7.7580370">
        <ele>667.5</ele>
        <time>2019-08-17T12:20:29Z</time>
      </trkpt>
      <trkpt lat="42.1517300" lon="-7.7580110">
        <ele>667.6</ele>
        <time>2019-08-17T12:20:30Z</time>
      </trkpt>
      <trkpt lat="42.1517660" lon="-7.7579860">
        <ele>667.6</ele>
        <time>2019-08-17T12:20:31Z</time>
      </trkpt>
      <trkpt lat="42.1518020" lon="-7.7579620">
        <ele>667.7</ele>
        <time>2019-08-17T12:20:32Z</time>
      </trkpt>
      <trkpt lat="42.1518390" lon="-7.7579380">
        <ele>667.7</ele>
        <time>2019-08-17T12:20:33Z</time>
      </trkpt>
      <trkpt lat="42.1518770" lon="-7.7579150">
        <ele>667.8</ele>
        <time>2019-08-17T12:20:34Z</time>
      </trkpt>
      <trkpt lat="42.1519140" lon="-7.7578920">
        <ele>667.8</ele>
        <time>2019-08-17T12:20:35Z</time>
      </trkpt>
      <trkpt lat="42.1519520" lon="-7.7578690">
        <ele>667.9</ele>
        <time>2019-08-17T12:20:36Z</time>
      </trkpt>
      <trkpt lat="42.1519890" lon="-7.7578470">
        <ele>667.9</ele>
        <time>2019-08-17T12:20:37Z</time>
      </trkpt>
      <trkpt lat="42.1520270" lon="-7.7578250">
        <ele>668.0</ele>
        <time>2019-08-17T12:20:38Z</time>
      </trkpt>
      <trkpt lat="42.1520650" lon="-7.7578040">
        <ele>668.0</ele>
        <time>2019-08-17T12:20:39Z</time>
      </trkpt>
      <trkpt lat="42.1521040" lon="-7.7577820">
        <ele>668.1</ele>
        <time>2019-08-17T12:20:40Z</time>
      </trkpt>
      <trkpt lat="42.1521420" lon="-7.7577610">
        <ele>668.1</ele>
        <time>2019-08-17T12:20:41Z</time>
      </trkpt>
      <trkpt lat="42.1521800" lon="-7.7577390">
        <ele>668.2</ele>
        <time>2019-08-17T12:20:42Z</time>
      </trkpt>
      <trkpt lat="42.1522180" lon="-7.7577180">
        <ele>668.2</ele>
        <time>2019-08-17T12:20:43Z</time>
      </trkpt>
      <trkpt lat="42.1522570" lon="-7.7576960">
        <ele>668.3</ele>
        <time>2019-08-17T12:20:44Z</time>
      </trkpt>
      <trkpt lat="42.1522950" lon="-7.7576750">
        <ele>668.3</ele>
        <time>2019-08-17T12:20:45Z</time>
      </trkpt>
      <trkpt lat="42.1523330" lon="-7.7576530">
        <ele>668.6</ele>
        <time>2019-08-17T12:20:46Z</time>
      </trkpt>
      <trkpt lat="42.1523710" lon="-7.7576310">
        <ele>668.8</ele>
        <time>2019-08-17T12:20:47Z</time>
      </trkpt>
      <trkpt lat="42.1524080" lon="-7.7576100">
        <ele>668.9</ele>
        <time>2019-08-17T12:20:48Z</time>
      </trkpt>
      <trkpt lat="42.1524450" lon="-7.7575900">
        <ele>669.1</ele>
        <time>2019-08-17T12:20:49Z</time>
      </trkpt>
      <trkpt lat="42.1524820" lon="-7.7575700">
        <ele>669.3</ele>
        <time>2019-08-17T12:20:50Z</time>
      </trkpt>
      <trkpt lat="42.1525170" lon="-7.7575520">
        <ele>669.5</ele>
        <time>2019-08-17T12:20:51Z</time>
      </trkpt>
      <trkpt lat="42.1525520" lon="-7.7575350">
        <ele>669.7</ele>
        <time>2019-08-17T12:20:52Z</time>
      </trkpt>
      <trkpt lat="42.1525860" lon="-7.7575190">
        <ele>669.8</ele>
        <time>2019-08-17T12:20:53Z</time>
      </trkpt>
      <trkpt lat="42.1526180" lon="-7.7575060">
        <ele>670.0</ele>
        <time>2019-08-17T12:20:54Z</time>
      </trkpt>
      <trkpt lat="42.1526490" lon="-7.7574940">
        <ele>670.2</ele>
        <time>2019-08-17T12:20:55Z</time>
      </trkpt>
      <trkpt lat="42.1526780" lon="-7.7574840">
        <ele>670.4</ele>
        <time>2019-08-17T12:20:56Z</time>
      </trkpt>
      <trkpt lat="42.1527050" lon="-7.7574760">
        <ele>670.6</ele>
        <time>2019-08-17T12:20:57Z</time>
      </trkpt>
      <trkpt lat="42.1527290" lon="-7.7574680">
        <ele>670.8</ele>
        <time>2019-08-17T12:20:58Z</time>
      </trkpt>
      <trkpt lat="42.1527520" lon="-7.7574620">
        <ele>671.0</ele>
        <time>2019-08-17T12:20:59Z</time>
      </trkpt>
      <trkpt lat="42.1527750" lon="-7.7574560">
        <ele>671.1</ele>
        <time>2019-08-17T12:21:00Z</time>
      </trkpt>
      <trkpt lat="42.1528000" lon="-7.7574510">
        <ele>671.3</ele>
        <time>2019-08-17T12:21:01Z</time>
      </trkpt>
      <trkpt lat="42.1528290" lon="-7.7574470">
        <ele>671.5</ele>
        <time>2019-08-17T12:21:02Z</time>
      </trkpt>
      <trkpt lat="42.1528600" lon="-7.7574430">
        <ele>671.7</ele>
        <time>2019-08-17T12:21:03Z</time>
      </trkpt>
      <trkpt lat="42.1528940" lon="-7.7574380">
        <ele>672.0</ele>
        <time>2019-08-17T12:21:04Z</time>
      </trkpt>
      <trkpt lat="42.1529300" lon="-7.7574340">
        <ele>672.3</ele>
        <time>2019-08-17T12:21:05Z</time>
      </trkpt>
      <trkpt lat="42.1529680" lon="-7.7574300">
        <ele>672.7</ele>
        <time>2019-08-17T12:21:06Z</time>
      </trkpt>
      <trkpt lat="42.1530070" lon="-7.7574250">
        <ele>672.9</ele>
        <time>2019-08-17T12:21:07Z</time>
      </trkpt>
      <trkpt lat="42.1530470" lon="-7.7574200">
        <ele>673.1</ele>
        <time>2019-08-17T12:21:08Z</time>
      </trkpt>
      <trkpt lat="42.1530870" lon="-7.7574140">
        <ele>673.4</ele>
        <time>2019-08-17T12:21:09Z</time>
      </trkpt>
      <trkpt lat="42.1531270" lon="-7.7574070">
        <ele>673.6</ele>
        <time>2019-08-17T12:21:10Z</time>
      </trkpt>
      <trkpt lat="42.1531940" lon="-7.7573950">
        <ele>674.0</ele>
        <time>2019-08-17T12:21:11Z</time>
      </trkpt>
      <trkpt lat="42.1532200" lon="-7.7573900">
        <ele>674.2</ele>
        <time>2019-08-17T12:21:12Z</time>
      </trkpt>
      <trkpt lat="42.1532470" lon="-7.7573850">
        <ele>674.4</ele>
        <time>2019-08-17T12:21:13Z</time>
      </trkpt>
      <trkpt lat="42.1532880" lon="-7.7573770">
        <ele>674.7</ele>
        <time>2019-08-17T12:21:14Z</time>
      </trkpt>
      <trkpt lat="42.1533280" lon="-7.7573700">
        <ele>674.9</ele>
        <time>2019-08-17T12:21:15Z</time>
      </trkpt>
      <trkpt lat="42.1533690" lon="-7.7573640">
        <ele>675.2</ele>
        <time>2019-08-17T12:21:16Z</time>
      </trkpt>
      <trkpt lat="42.1534110" lon="-7.7573590">
        <ele>675.5</ele>
        <time>2019-08-17T12:21:17Z</time>
      </trkpt>
      <trkpt lat="42.1534520" lon="-7.7573540">
        <ele>675.7</ele>
        <time>2019-08-17T12:21:18Z</time>
      </trkpt>
      <trkpt lat="42.1534940" lon="-7.7573500">
        <ele>675.9</ele>
        <time>2019-08-17T12:21:19Z</time>
      </trkpt>
      <trkpt lat="42.1535360" lon="-7.7573460">
        <ele>676.1</ele>
        <time>2019-08-17T12:21:20Z</time>
      </trkpt>
      <trkpt lat="42.1535780" lon="-7.7573430">
        <ele>676.3</ele>
        <time>2019-08-17T12:21:21Z</time>
      </trkpt>
      <trkpt lat="42.1536200" lon="-7.7573390">
        <ele>676.4</ele>
        <time>2019-08-17T12:21:22Z</time>
      </trkpt>
      <trkpt lat="42.1536610" lon="-7.7573340">
        <ele>676.4</ele>
        <time>2019-08-17T12:21:23Z</time>
      </trkpt>
      <trkpt lat="42.1537030" lon="-7.7573290">
        <ele>676.4</ele>
        <time>2019-08-17T12:21:24Z</time>
      </trkpt>
      <trkpt lat="42.1537440" lon="-7.7573240">
        <ele>676.4</ele>
        <time>2019-08-17T12:21:25Z</time>
      </trkpt>
      <trkpt lat="42.1537850" lon="-7.7573180">
        <ele>676.3</ele>
        <time>2019-08-17T12:21:26Z</time>
      </trkpt>
      <trkpt lat="42.1538270" lon="-7.7573130">
        <ele>676.2</ele>
        <time>2019-08-17T12:21:27Z</time>
      </trkpt>
      <trkpt lat="42.1538690" lon="-7.7573110">
        <ele>676.0</ele>
        <time>2019-08-17T12:21:28Z</time>
      </trkpt>
      <trkpt lat="42.1539120" lon="-7.7573110">
        <ele>675.9</ele>
        <time>2019-08-17T12:21:29Z</time>
      </trkpt>
      <trkpt lat="42.1539550" lon="-7.7573140">
        <ele>675.9</ele>
        <time>2019-08-17T12:21:30Z</time>
      </trkpt>
      <trkpt lat="42.1539990" lon="-7.7573190">
        <ele>675.9</ele>
        <time>2019-08-17T12:21:31Z</time>
      </trkpt>
      <trkpt lat="42.1540430" lon="-7.7573240">
        <ele>676.0</ele>
        <time>2019-08-17T12:21:32Z</time>
      </trkpt>
      <trkpt lat="42.1540860" lon="-7.7573300">
        <ele>676.2</ele>
        <time>2019-08-17T12:21:33Z</time>
      </trkpt>
      <trkpt lat="42.1541300" lon="-7.7573370">
        <ele>676.5</ele>
        <time>2019-08-17T12:21:34Z</time>
      </trkpt>
      <trkpt lat="42.1541730" lon="-7.7573430">
        <ele>676.8</ele>
        <time>2019-08-17T12:21:35Z</time>
      </trkpt>
      <trkpt lat="42.1542170" lon="-7.7573500">
        <ele>677.1</ele>
        <time>2019-08-17T12:21:36Z</time>
      </trkpt>
      <trkpt lat="42.1542600" lon="-7.7573580">
        <ele>677.5</ele>
        <time>2019-08-17T12:21:37Z</time>
      </trkpt>
      <trkpt lat="42.1543030" lon="-7.7573660">
        <ele>677.8</ele>
        <time>2019-08-17T12:21:38Z</time>
      </trkpt>
      <trkpt lat="42.1543460" lon="-7.7573740">
        <ele>678.1</ele>
        <time>2019-08-17T12:21:39Z</time>
      </trkpt>
      <trkpt lat="42.1543900" lon="-7.7573830">
        <ele>678.3</ele>
        <time>2019-08-17T12:21:40Z</time>
      </trkpt>
      <trkpt lat="42.1544330" lon="-7.7573930">
        <ele>678.5</ele>
        <time>2019-08-17T12:21:41Z</time>
      </trkpt>
      <trkpt lat="42.1544770" lon="-7.7574030">
        <ele>678.5</ele>
        <time>2019-08-17T12:21:42Z</time>
      </trkpt>
      <trkpt lat="42.1545210" lon="-7.7574140">
        <ele>678.5</ele>
        <time>2019-08-17T12:21:43Z</time>
      </trkpt>
      <trkpt lat="42.1545660" lon="-7.7574260">
        <ele>678.4</ele>
        <time>2019-08-17T12:21:44Z</time>
      </trkpt>
      <trkpt lat="42.1546100" lon="-7.7574390">
        <ele>678.3</ele>
        <time>2019-08-17T12:21:45Z</time>
      </trkpt>
      <trkpt lat="42.1546550" lon="-7.7574520">
        <ele>678.2</ele>
        <time>2019-08-17T12:21:46Z</time>
      </trkpt>
      <trkpt lat="42.1547010" lon="-7.7574670">
        <ele>678.0</ele>
        <time>2019-08-17T12:21:47Z</time>
      </trkpt>
      <trkpt lat="42.1547460" lon="-7.7574820">
        <ele>677.9</ele>
        <time>2019-08-17T12:21:48Z</time>
      </trkpt>
      <trkpt lat="42.1547930" lon="-7.7574990">
        <ele>677.8</ele>
        <time>2019-08-17T12:21:49Z</time>
      </trkpt>
      <trkpt lat="42.1548390" lon="-7.7575160">
        <ele>677.7</ele>
        <time>2019-08-17T12:21:50Z</time>
      </trkpt>
      <trkpt lat="42.1548860" lon="-7.7575330">
        <ele>677.7</ele>
        <time>2019-08-17T12:21:51Z</time>
      </trkpt>
      <trkpt lat="42.1549330" lon="-7.7575510">
        <ele>677.5</ele>
        <time>2019-08-17T12:21:52Z</time>
      </trkpt>
      <trkpt lat="42.1549800" lon="-7.7575690">
        <ele>677.4</ele>
        <time>2019-08-17T12:21:53Z</time>
      </trkpt>
      <trkpt lat="42.1550270" lon="-7.7575870">
        <ele>677.3</ele>
        <time>2019-08-17T12:21:54Z</time>
      </trkpt>
      <trkpt lat="42.1550750" lon="-7.7576040">
        <ele>677.2</ele>
        <time>2019-08-17T12:21:55Z</time>
      </trkpt>
      <trkpt lat="42.1551220" lon="-7.7576220">
        <ele>677.0</ele>
        <time>2019-08-17T12:21:56Z</time>
      </trkpt>
      <trkpt lat="42.1551690" lon="-7.7576400">
        <ele>676.9</ele>
        <time>2019-08-17T12:21:57Z</time>
      </trkpt>
      <trkpt lat="42.1552160" lon="-7.7576580">
        <ele>676.8</ele>
        <time>2019-08-17T12:21:58Z</time>
      </trkpt>
      <trkpt lat="42.1552630" lon="-7.7576770">
        <ele>676.7</ele>
        <time>2019-08-17T12:21:59Z</time>
      </trkpt>
      <trkpt lat="42.1553100" lon="-7.7576970">
        <ele>676.7</ele>
        <time>2019-08-17T12:22:00Z</time>
      </trkpt>
      <trkpt lat="42.1553560" lon="-7.7577180">
        <ele>676.9</ele>
        <time>2019-08-17T12:22:01Z</time>
      </trkpt>
      <trkpt lat="42.1554020" lon="-7.7577390">
        <ele>677.1</ele>
        <time>2019-08-17T12:22:02Z</time>
      </trkpt>
      <trkpt lat="42.1554490" lon="-7.7577600">
        <ele>677.2</ele>
        <time>2019-08-17T12:22:03Z</time>
      </trkpt>
      <trkpt lat="42.1554950" lon="-7.7577800">
        <ele>677.3</ele>
        <time>2019-08-17T12:22:04Z</time>
      </trkpt>
      <trkpt lat="42.1555410" lon="-7.7577990">
        <ele>677.4</ele>
        <time>2019-08-17T12:22:05Z</time>
      </trkpt>
      <trkpt lat="42.1555880" lon="-7.7578170">
        <ele>677.5</ele>
        <time>2019-08-17T12:22:06Z</time>
      </trkpt>
      <trkpt lat="42.1556340" lon="-7.7578340">
        <ele>677.5</ele>
        <time>2019-08-17T12:22:07Z</time>
      </trkpt>
      <trkpt lat="42.1556810" lon="-7.7578510">
        <ele>677.5</ele>
        <time>2019-08-17T12:22:08Z</time>
      </trkpt>
      <trkpt lat="42.1557270" lon="-7.7578670">
        <ele>677.5</ele>
        <time>2019-08-17T12:22:09Z</time>
      </trkpt>
      <trkpt lat="42.1557730" lon="-7.7578830">
        <ele>677.5</ele>
        <time>2019-08-17T12:22:10Z</time>
      </trkpt>
      <trkpt lat="42.1558200" lon="-7.7578980">
        <ele>677.5</ele>
        <time>2019-08-17T12:22:11Z</time>
      </trkpt>
      <trkpt lat="42.1558660" lon="-7.7579130">
        <ele>677.5</ele>
        <time>2019-08-17T12:22:12Z</time>
      </trkpt>
      <trkpt lat="42.1559430" lon="-7.7579370">
        <ele>677.5</ele>
        <time>2019-08-17T12:22:13Z</time>
      </trkpt>
      <trkpt lat="42.1559730" lon="-7.7579460">
        <ele>677.5</ele>
        <time>2019-08-17T12:22:14Z</time>
      </trkpt>
      <trkpt lat="42.1560040" lon="-7.7579560">
        <ele>677.5</ele>
        <time>2019-08-17T12:22:15Z</time>
      </trkpt>
      <trkpt lat="42.1560490" lon="-7.7579700">
        <ele>677.6</ele>
        <time>2019-08-17T12:22:16Z</time>
      </trkpt>
      <trkpt lat="42.1560950" lon="-7.7579850">
        <ele>677.6</ele>
        <time>2019-08-17T12:22:17Z</time>
      </trkpt>
      <trkpt lat="42.1561700" lon="-7.7580090">
        <ele>677.6</ele>
        <time>2019-08-17T12:22:18Z</time>
      </trkpt>
      <trkpt lat="42.1562000" lon="-7.7580180">
        <ele>677.6</ele>
        <time>2019-08-17T12:22:19Z</time>
      </trkpt>
      <trkpt lat="42.1562300" lon="-7.7580280">
        <ele>677.6</ele>
        <time>2019-08-17T12:22:20Z</time>
      </trkpt>
      <trkpt lat="42.1562750" lon="-7.7580430">
        <ele>677.7</ele>
        <time>2019-08-17T12:22:21Z</time>
      </trkpt>
      <trkpt lat="42.1563200" lon="-7.7580590">
        <ele>677.8</ele>
        <time>2019-08-17T12:22:22Z</time>
      </trkpt>
      <trkpt lat="42.1563650" lon="-7.7580740">
        <ele>677.9</ele>
        <time>2019-08-17T12:22:23Z</time>
      </trkpt>
      <trkpt lat="42.1564090" lon="-7.7580890">
        <ele>678.0</ele>
        <time>2019-08-17T12:22:24Z</time>
      </trkpt>
      <trkpt lat="42.1564540" lon="-7.7581040">
        <ele>678.1</ele>
        <time>2019-08-17T12:22:25Z</time>
      </trkpt>
      <trkpt lat="42.1564990" lon="-7.7581200">
        <ele>678.2</ele>
        <time>2019-08-17T12:22:26Z</time>
      </trkpt>
      <trkpt lat="42.1565440" lon="-7.7581350">
        <ele>678.4</ele>
        <time>2019-08-17T12:22:27Z</time>
      </trkpt>
      <trkpt lat="42.1565890" lon="-7.7581500">
        <ele>678.5</ele>
        <time>2019-08-17T12:22:28Z</time>
      </trkpt>
      <trkpt lat="42.1566330" lon="-7.7581650">
        <ele>678.5</ele>
        <time>2019-08-17T12:22:29Z</time>
      </trkpt>
      <trkpt lat="42.1566780" lon="-7.7581800">
        <ele>678.6</ele>
        <time>2019-08-17T12:22:30Z</time>
      </trkpt>
      <trkpt lat="42.1567220" lon="-7.7581950">
        <ele>678.7</ele>
        <time>2019-08-17T12:22:31Z</time>
      </trkpt>
      <trkpt lat="42.1567650" lon="-7.7582100">
        <ele>678.7</ele>
        <time>2019-08-17T12:22:32Z</time>
      </trkpt>
      <trkpt lat="42.1568070" lon="-7.7582240">
        <ele>678.8</ele>
        <time>2019-08-17T12:22:33Z</time>
      </trkpt>
      <trkpt lat="42.1568480" lon="-7.7582380">
        <ele>678.8</ele>
        <time>2019-08-17T12:22:34Z</time>
      </trkpt>
      <trkpt lat="42.1568890" lon="-7.7582510">
        <ele>678.9</ele>
        <time>2019-08-17T12:22:35Z</time>
      </trkpt>
      <trkpt lat="42.1569280" lon="-7.7582650">
        <ele>679.0</ele>
        <time>2019-08-17T12:22:36Z</time>
      </trkpt>
      <trkpt lat="42.1569660" lon="-7.7582780">
        <ele>679.1</ele>
        <time>2019-08-17T12:22:37Z</time>
      </trkpt>
      <trkpt lat="42.1570040" lon="-7.7582910">
        <ele>679.2</ele>
        <time>2019-08-17T12:22:38Z</time>
      </trkpt>
      <trkpt lat="42.1570400" lon="-7.7583040">
        <ele>679.3</ele>
        <time>2019-08-17T12:22:39Z</time>
      </trkpt>
      <trkpt lat="42.1570760" lon="-7.7583170">
        <ele>679.4</ele>
        <time>2019-08-17T12:22:40Z</time>
      </trkpt>
      <trkpt lat="42.1571120" lon="-7.7583300">
        <ele>679.5</ele>
        <time>2019-08-17T12:22:41Z</time>
      </trkpt>
      <trkpt lat="42.1571470" lon="-7.7583430">
        <ele>679.6</ele>
        <time>2019-08-17T12:22:42Z</time>
      </trkpt>
      <trkpt lat="42.1571810" lon="-7.7583570">
        <ele>679.7</ele>
        <time>2019-08-17T12:22:43Z</time>
      </trkpt>
      <trkpt lat="42.1572150" lon="-7.7583720">
        <ele>679.8</ele>
        <time>2019-08-17T12:22:44Z</time>
      </trkpt>
      <trkpt lat="42.1572490" lon="-7.7583870">
        <ele>679.9</ele>
        <time>2019-08-17T12:22:45Z</time>
      </trkpt>
      <trkpt lat="42.1572830" lon="-7.7584030">
        <ele>680.0</ele>
        <time>2019-08-17T12:22:46Z</time>
      </trkpt>
      <trkpt lat="42.1573170" lon="-7.7584200">
        <ele>680.1</ele>
        <time>2019-08-17T12:22:47Z</time>
      </trkpt>
      <trkpt lat="42.1573510" lon="-7.7584370">
        <ele>680.3</ele>
        <time>2019-08-17T12:22:48Z</time>
      </trkpt>
      <trkpt lat="42.1573840" lon="-7.7584560">
        <ele>680.4</ele>
        <time>2019-08-17T12:22:49Z</time>
      </trkpt>
      <trkpt lat="42.1574190" lon="-7.7584750">
        <ele>680.6</ele>
        <time>2019-08-17T12:22:50Z</time>
      </trkpt>
      <trkpt lat="42.1574530" lon="-7.7584960">
        <ele>680.7</ele>
        <time>2019-08-17T12:22:51Z</time>
      </trkpt>
      <trkpt lat="42.1574870" lon="-7.7585170">
        <ele>680.9</ele>
        <time>2019-08-17T12:22:52Z</time>
      </trkpt>
      <trkpt lat="42.1575200" lon="-7.7585380">
        <ele>681.0</ele>
        <time>2019-08-17T12:22:53Z</time>
      </trkpt>
      <trkpt lat="42.1575530" lon="-7.7585600">
        <ele>681.2</ele>
        <time>2019-08-17T12:22:54Z</time>
      </trkpt>
      <trkpt lat="42.1575850" lon="-7.7585810">
        <ele>681.3</ele>
        <time>2019-08-17T12:22:55Z</time>
      </trkpt>
      <trkpt lat="42.1576160" lon="-7.7586030">
        <ele>681.5</ele>
        <time>2019-08-17T12:22:56Z</time>
      </trkpt>
      <trkpt lat="42.1576460" lon="-7.7586230">
        <ele>681.6</ele>
        <time>2019-08-17T12:22:57Z</time>
      </trkpt>
      <trkpt lat="42.1576740" lon="-7.7586430">
        <ele>681.7</ele>
        <time>2019-08-17T12:22:58Z</time>
      </trkpt>
      <trkpt lat="42.1577010" lon="-7.7586620">
        <ele>681.8</ele>
        <time>2019-08-17T12:22:59Z</time>
      </trkpt>
      <trkpt lat="42.1577280" lon="-7.7586810">
        <ele>682.0</ele>
        <time>2019-08-17T12:23:00Z</time>
      </trkpt>
      <trkpt lat="42.1577540" lon="-7.7587000">
        <ele>682.1</ele>
        <time>2019-08-17T12:23:01Z</time>
      </trkpt>
      <trkpt lat="42.1577800" lon="-7.7587190">
        <ele>682.2</ele>
        <time>2019-08-17T12:23:02Z</time>
      </trkpt>
      <trkpt lat="42.1578060" lon="-7.7587380">
        <ele>682.3</ele>
        <time>2019-08-17T12:23:03Z</time>
      </trkpt>
      <trkpt lat="42.1578340" lon="-7.7587580">
        <ele>682.4</ele>
        <time>2019-08-17T12:23:04Z</time>
      </trkpt>
      <trkpt lat="42.1578620" lon="-7.7587790">
        <ele>682.5</ele>
        <time>2019-08-17T12:23:05Z</time>
      </trkpt>
      <trkpt lat="42.1578910" lon="-7.7588000">
        <ele>682.6</ele>
        <time>2019-08-17T12:23:06Z</time>
      </trkpt>
      <trkpt lat="42.1579220" lon="-7.7588230">
        <ele>682.7</ele>
        <time>2019-08-17T12:23:07Z</time>
      </trkpt>
      <trkpt lat="42.1579540" lon="-7.7588460">
        <ele>682.8</ele>
        <time>2019-08-17T12:23:08Z</time>
      </trkpt>
      <trkpt lat="42.1579870" lon="-7.7588700">
        <ele>682.9</ele>
        <time>2019-08-17T12:23:09Z</time>
      </trkpt>
      <trkpt lat="42.1580200" lon="-7.7588950">
        <ele>683.0</ele>
        <time>2019-08-17T12:23:10Z</time>
      </trkpt>
      <trkpt lat="42.1580540" lon="-7.7589190">
        <ele>683.1</ele>
        <time>2019-08-17T12:23:11Z</time>
      </trkpt>
      <trkpt lat="42.1580880" lon="-7.7589440">
        <ele>683.3</ele>
        <time>2019-08-17T12:23:12Z</time>
      </trkpt>
      <trkpt lat="42.1581220" lon="-7.7589690">
        <ele>683.4</ele>
        <time>2019-08-17T12:23:13Z</time>
      </trkpt>
      <trkpt lat="42.1581560" lon="-7.7589940">
        <ele>683.6</ele>
        <time>2019-08-17T12:23:14Z</time>
      </trkpt>
      <trkpt lat="42.1581890" lon="-7.7590190">
        <ele>683.7</ele>
        <time>2019-08-17T12:23:15Z</time>
      </trkpt>
      <trkpt lat="42.1582230" lon="-7.7590430">
        <ele>683.9</ele>
        <time>2019-08-17T12:23:16Z</time>
      </trkpt>
      <trkpt lat="42.1582560" lon="-7.7590680">
        <ele>684.0</ele>
        <time>2019-08-17T12:23:17Z</time>
      </trkpt>
      <trkpt lat="42.1582890" lon="-7.7590920">
        <ele>684.1</ele>
        <time>2019-08-17T12:23:18Z</time>
      </trkpt>
      <trkpt lat="42.1583210" lon="-7.7591160">
        <ele>684.3</ele>
        <time>2019-08-17T12:23:19Z</time>
      </trkpt>
      <trkpt lat="42.1583540" lon="-7.7591400">
        <ele>684.4</ele>
        <time>2019-08-17T12:23:20Z</time>
      </trkpt>
      <trkpt lat="42.1583860" lon="-7.7591630">
        <ele>684.5</ele>
        <time>2019-08-17T12:23:21Z</time>
      </trkpt>
      <trkpt lat="42.1584180" lon="-7.7591870">
        <ele>684.6</ele>
        <time>2019-08-17T12:23:22Z</time>
      </trkpt>
      <trkpt lat="42.1584490" lon="-7.7592100">
        <ele>684.7</ele>
        <time>2019-08-17T12:23:23Z</time>
      </trkpt>
      <trkpt lat="42.1584810" lon="-7.7592330">
        <ele>684.8</ele>
        <time>2019-08-17T12:23:24Z</time>
      </trkpt>
      <trkpt lat="42.1585130" lon="-7.7592560">
        <ele>684.9</ele>
        <time>2019-08-17T12:23:25Z</time>
      </trkpt>
      <trkpt lat="42.1585440" lon="-7.7592790">
        <ele>685.1</ele>
        <time>2019-08-17T12:23:26Z</time>
      </trkpt>
      <trkpt lat="42.1585760" lon="-7.7593010">
        <ele>685.2</ele>
        <time>2019-08-17T12:23:27Z</time>
      </trkpt>
      <trkpt lat="42.1586080" lon="-7.7593240">
        <ele>685.4</ele>
        <time>2019-08-17T12:23:28Z</time>
      </trkpt>
      <trkpt lat="42.1586400" lon="-7.7593470">
        <ele>685.5</ele>
        <time>2019-08-17T12:23:29Z</time>
      </trkpt>
      <trkpt lat="42.1586720" lon="-7.7593690">
        <ele>685.7</ele>
        <time>2019-08-17T12:23:30Z</time>
      </trkpt>
      <trkpt lat="42.1587040" lon="-7.7593920">
        <ele>685.8</ele>
        <time>2019-08-17T12:23:31Z</time>
      </trkpt>
      <trkpt lat="42.1587370" lon="-7.7594140">
        <ele>686.0</ele>
        <time>2019-08-17T12:23:32Z</time>
      </trkpt>
      <trkpt lat="42.1587700" lon="-7.7594360">
        <ele>686.2</ele>
        <time>2019-08-17T12:23:33Z</time>
      </trkpt>
      <trkpt lat="42.1588040" lon="-7.7594590">
        <ele>686.3</ele>
        <time>2019-08-17T12:23:34Z</time>
      </trkpt>
      <trkpt lat="42.1588380" lon="-7.7594810">
        <ele>686.5</ele>
        <time>2019-08-17T12:23:35Z</time>
      </trkpt>
      <trkpt lat="42.1588720" lon="-7.7595040">
        <ele>686.6</ele>
        <time>2019-08-17T12:23:36Z</time>
      </trkpt>
      <trkpt lat="42.1589070" lon="-7.7595260">
        <ele>686.8</ele>
        <time>2019-08-17T12:23:37Z</time>
      </trkpt>
      <trkpt lat="42.1589430" lon="-7.7595490">
        <ele>687.0</ele>
        <time>2019-08-17T12:23:38Z</time>
      </trkpt>
      <trkpt lat="42.1589790" lon="-7.7595720">
        <ele>687.1</ele>
        <time>2019-08-17T12:23:39Z</time>
      </trkpt>
      <trkpt lat="42.1590150" lon="-7.7595950">
        <ele>687.3</ele>
        <time>2019-08-17T12:23:40Z</time>
      </trkpt>
      <trkpt lat="42.1590530" lon="-7.7596170">
        <ele>687.4</ele>
        <time>2019-08-17T12:23:41Z</time>
      </trkpt>
      <trkpt lat="42.1590900" lon="-7.7596400">
        <ele>687.4</ele>
        <time>2019-08-17T12:23:42Z</time>
      </trkpt>
      <trkpt lat="42.1591280" lon="-7.7596630">
        <ele>687.5</ele>
        <time>2019-08-17T12:23:43Z</time>
      </trkpt>
      <trkpt lat="42.1591670" lon="-7.7596860">
        <ele>687.5</ele>
        <time>2019-08-17T12:23:44Z</time>
      </trkpt>
      <trkpt lat="42.1592060" lon="-7.7597080">
        <ele>687.6</ele>
        <time>2019-08-17T12:23:45Z</time>
      </trkpt>
      <trkpt lat="42.1592450" lon="-7.7597310">
        <ele>687.6</ele>
        <time>2019-08-17T12:23:46Z</time>
      </trkpt>
      <trkpt lat="42.1592840" lon="-7.7597540">
        <ele>687.6</ele>
        <time>2019-08-17T12:23:47Z</time>
      </trkpt>
      <trkpt lat="42.1593240" lon="-7.7597770">
        <ele>687.6</ele>
        <time>2019-08-17T12:23:48Z</time>
      </trkpt>
      <trkpt lat="42.1593650" lon="-7.7597990">
        <ele>687.6</ele>
        <time>2019-08-17T12:23:49Z</time>
      </trkpt>
      <trkpt lat="42.1594060" lon="-7.7598220">
        <ele>687.6</ele>
        <time>2019-08-17T12:23:50Z</time>
      </trkpt>
      <trkpt lat="42.1594470" lon="-7.7598440">
        <ele>687.6</ele>
        <time>2019-08-17T12:23:51Z</time>
      </trkpt>
      <trkpt lat="42.1594880" lon="-7.7598670">
        <ele>687.6</ele>
        <time>2019-08-17T12:23:52Z</time>
      </trkpt>
      <trkpt lat="42.1595290" lon="-7.7598890">
        <ele>687.6</ele>
        <time>2019-08-17T12:23:53Z</time>
      </trkpt>
      <trkpt lat="42.1595710" lon="-7.7599110">
        <ele>687.6</ele>
        <time>2019-08-17T12:23:54Z</time>
      </trkpt>
      <trkpt lat="42.1596130" lon="-7.7599330">
        <ele>687.6</ele>
        <time>2019-08-17T12:23:55Z</time>
      </trkpt>
      <trkpt lat="42.1596550" lon="-7.7599540">
        <ele>687.7</ele>
        <time>2019-08-17T12:23:56Z</time>
      </trkpt>
      <trkpt lat="42.1596980" lon="-7.7599760">
        <ele>687.7</ele>
        <time>2019-08-17T12:23:57Z</time>
      </trkpt>
      <trkpt lat="42.1597400" lon="-7.7599970">
        <ele>687.8</ele>
        <time>2019-08-17T12:23:58Z</time>
      </trkpt>
      <trkpt lat="42.1597830" lon="-7.7600170">
        <ele>687.9</ele>
        <time>2019-08-17T12:23:59Z</time>
      </trkpt>
      <trkpt lat="42.1598260" lon="-7.7600370">
        <ele>688.1</ele>
        <time>2019-08-17T12:24:00Z</time>
      </trkpt>
      <trkpt lat="42.1598690" lon="-7.7600570">
        <ele>688.2</ele>
        <time>2019-08-17T12:24:01Z</time>
      </trkpt>
      <trkpt lat="42.1599130" lon="-7.7600770">
        <ele>688.4</ele>
        <time>2019-08-17T12:24:02Z</time>
      </trkpt>
      <trkpt lat="42.1599580" lon="-7.7600960">
        <ele>688.5</ele>
        <time>2019-08-17T12:24:03Z</time>
      </trkpt>
      <trkpt lat="42.1600030" lon="-7.7601150">
        <ele>688.6</ele>
        <time>2019-08-17T12:24:04Z</time>
      </trkpt>
      <trkpt lat="42.1600500" lon="-7.7601350">
        <ele>688.7</ele>
        <time>2019-08-17T12:24:05Z</time>
      </trkpt>
      <trkpt lat="42.1600970" lon="-7.7601550">
        <ele>688.7</ele>
        <time>2019-08-17T12:24:06Z</time>
      </trkpt>
      <trkpt lat="42.1601470" lon="-7.7601740">
        <ele>688.6</ele>
        <time>2019-08-17T12:24:07Z</time>
      </trkpt>
      <trkpt lat="42.1601970" lon="-7.7601950">
        <ele>688.6</ele>
        <time>2019-08-17T12:24:08Z</time>
      </trkpt>
      <trkpt lat="42.1602500" lon="-7.7602150">
        <ele>688.5</ele>
        <time>2019-08-17T12:24:09Z</time>
      </trkpt>
      <trkpt lat="42.1603020" lon="-7.7602360">
        <ele>688.5</ele>
        <time>2019-08-17T12:24:10Z</time>
      </trkpt>
      <trkpt lat="42.1603560" lon="-7.7602560">
        <ele>688.4</ele>
        <time>2019-08-17T12:24:11Z</time>
      </trkpt>
      <trkpt lat="42.1604090" lon="-7.7602760">
        <ele>688.4</ele>
        <time>2019-08-17T12:24:12Z</time>
      </trkpt>
      <trkpt lat="42.1604620" lon="-7.7602950">
        <ele>688.3</ele>
        <time>2019-08-17T12:24:13Z</time>
      </trkpt>
      <trkpt lat="42.1605140" lon="-7.7603140">
        <ele>688.2</ele>
        <time>2019-08-17T12:24:14Z</time>
      </trkpt>
      <trkpt lat="42.1605640" lon="-7.7603320">
        <ele>688.1</ele>
        <time>2019-08-17T12:24:15Z</time>
      </trkpt>
      <trkpt lat="42.1606130" lon="-7.7603490">
        <ele>688.0</ele>
        <time>2019-08-17T12:24:16Z</time>
      </trkpt>
      <trkpt lat="42.1606620" lon="-7.7603650">
        <ele>687.9</ele>
        <time>2019-08-17T12:24:17Z</time>
      </trkpt>
      <trkpt lat="42.1607110" lon="-7.7603810">
        <ele>687.8</ele>
        <time>2019-08-17T12:24:18Z</time>
      </trkpt>
      <trkpt lat="42.1607610" lon="-7.7603970">
        <ele>687.7</ele>
        <time>2019-08-17T12:24:19Z</time>
      </trkpt>
      <trkpt lat="42.1608140" lon="-7.7604130">
        <ele>687.6</ele>
        <time>2019-08-17T12:24:20Z</time>
      </trkpt>
      <trkpt lat="42.1608690" lon="-7.7604290">
        <ele>687.6</ele>
        <time>2019-08-17T12:24:21Z</time>
      </trkpt>
      <trkpt lat="42.1609240" lon="-7.7604450">
        <ele>687.6</ele>
        <time>2019-08-17T12:24:22Z</time>
      </trkpt>
      <trkpt lat="42.1609790" lon="-7.7604610">
        <ele>687.6</ele>
        <time>2019-08-17T12:24:23Z</time>
      </trkpt>
      <trkpt lat="42.1610330" lon="-7.7604760">
        <ele>687.5</ele>
        <time>2019-08-17T12:24:24Z</time>
      </trkpt>
      <trkpt lat="42.1610870" lon="-7.7604910">
        <ele>687.5</ele>
        <time>2019-08-17T12:24:25Z</time>
      </trkpt>
      <trkpt lat="42.1611410" lon="-7.7605050">
        <ele>687.5</ele>
        <time>2019-08-17T12:24:26Z</time>
      </trkpt>
      <trkpt lat="42.1611950" lon="-7.7605190">
        <ele>687.5</ele>
        <time>2019-08-17T12:24:27Z</time>
      </trkpt>
      <trkpt lat="42.1612480" lon="-7.7605330">
        <ele>687.5</ele>
        <time>2019-08-17T12:24:28Z</time>
      </trkpt>
      <trkpt lat="42.1613020" lon="-7.7605460">
        <ele>687.4</ele>
        <time>2019-08-17T12:24:29Z</time>
      </trkpt>
      <trkpt lat="42.1613550" lon="-7.7605590">
        <ele>687.3</ele>
        <time>2019-08-17T12:24:30Z</time>
      </trkpt>
      <trkpt lat="42.1614090" lon="-7.7605710">
        <ele>687.2</ele>
        <time>2019-08-17T12:24:31Z</time>
      </trkpt>
      <trkpt lat="42.1614630" lon="-7.7605820">
        <ele>687.1</ele>
        <time>2019-08-17T12:24:32Z</time>
      </trkpt>
      <trkpt lat="42.1615170" lon="-7.7605940">
        <ele>687.0</ele>
        <time>2019-08-17T12:24:33Z</time>
      </trkpt>
      <trkpt lat="42.1615710" lon="-7.7606040">
        <ele>686.9</ele>
        <time>2019-08-17T12:24:34Z</time>
      </trkpt>
      <trkpt lat="42.1616250" lon="-7.7606140">
        <ele>686.7</ele>
        <time>2019-08-17T12:24:35Z</time>
      </trkpt>
      <trkpt lat="42.1616800" lon="-7.7606230">
        <ele>686.7</ele>
        <time>2019-08-17T12:24:36Z</time>
      </trkpt>
      <trkpt lat="42.1617340" lon="-7.7606320">
        <ele>686.6</ele>
        <time>2019-08-17T12:24:37Z</time>
      </trkpt>
      <trkpt lat="42.1617890" lon="-7.7606390">
        <ele>686.6</ele>
        <time>2019-08-17T12:24:38Z</time>
      </trkpt>
      <trkpt lat="42.1618440" lon="-7.7606460">
        <ele>686.7</ele>
        <time>2019-08-17T12:24:39Z</time>
      </trkpt>
      <trkpt lat="42.1618990" lon="-7.7606520">
        <ele>686.8</ele>
        <time>2019-08-17T12:24:40Z</time>
      </trkpt>
      <trkpt lat="42.1619550" lon="-7.7606580">
        <ele>686.9</ele>
        <time>2019-08-17T12:24:41Z</time>
      </trkpt>
      <trkpt lat="42.1620100" lon="-7.7606630">
        <ele>687.1</ele>
        <time>2019-08-17T12:24:42Z</time>
      </trkpt>
      <trkpt lat="42.1620650" lon="-7.7606670">
        <ele>687.2</ele>
        <time>2019-08-17T12:24:43Z</time>
      </trkpt>
      <trkpt lat="42.1621200" lon="-7.7606720">
        <ele>687.3</ele>
        <time>2019-08-17T12:24:44Z</time>
      </trkpt>
      <trkpt lat="42.1621740" lon="-7.7606750">
        <ele>687.4</ele>
        <time>2019-08-17T12:24:45Z</time>
      </trkpt>
      <trkpt lat="42.1622280" lon="-7.7606790">
        <ele>687.5</ele>
        <time>2019-08-17T12:24:46Z</time>
      </trkpt>
      <trkpt lat="42.1622820" lon="-7.7606820">
        <ele>687.5</ele>
        <time>2019-08-17T12:24:47Z</time>
      </trkpt>
      <trkpt lat="42.1623360" lon="-7.7606850">
        <ele>687.4</ele>
        <time>2019-08-17T12:24:48Z</time>
      </trkpt>
      <trkpt lat="42.1623890" lon="-7.7606870">
        <ele>687.4</ele>
        <time>2019-08-17T12:24:49Z</time>
      </trkpt>
      <trkpt lat="42.1624420" lon="-7.7606890">
        <ele>687.3</ele>
        <time>2019-08-17T12:24:50Z</time>
      </trkpt>
      <trkpt lat="42.1624960" lon="-7.7606910">
        <ele>687.2</ele>
        <time>2019-08-17T12:24:51Z</time>
      </trkpt>
      <trkpt lat="42.1625490" lon="-7.7606920">
        <ele>687.1</ele>
        <time>2019-08-17T12:24:52Z</time>
      </trkpt>
      <trkpt lat="42.1626030" lon="-7.7606920">
        <ele>686.9</ele>
        <time>2019-08-17T12:24:53Z</time>
      </trkpt>
      <trkpt lat="42.1626570" lon="-7.7606920">
        <ele>686.8</ele>
        <time>2019-08-17T12:24:54Z</time>
      </trkpt>
      <trkpt lat="42.1627120" lon="-7.7606910">
        <ele>686.7</ele>
        <time>2019-08-17T12:24:55Z</time>
      </trkpt>
      <trkpt lat="42.1627670" lon="-7.7606900">
        <ele>686.6</ele>
        <time>2019-08-17T12:24:56Z</time>
      </trkpt>
      <trkpt lat="42.1628230" lon="-7.7606870">
        <ele>686.5</ele>
        <time>2019-08-17T12:24:57Z</time>
      </trkpt>
      <trkpt lat="42.1628790" lon="-7.7606850">
        <ele>686.5</ele>
        <time>2019-08-17T12:24:58Z</time>
      </trkpt>
      <trkpt lat="42.1629360" lon="-7.7606810">
        <ele>686.4</ele>
        <time>2019-08-17T12:24:59Z</time>
      </trkpt>
      <trkpt lat="42.1629930" lon="-7.7606770">
        <ele>686.4</ele>
        <time>2019-08-17T12:25:00Z</time>
      </trkpt>
      <trkpt lat="42.1630520" lon="-7.7606730">
        <ele>686.4</ele>
        <time>2019-08-17T12:25:01Z</time>
      </trkpt>
      <trkpt lat="42.1631110" lon="-7.7606680">
        <ele>686.4</ele>
        <time>2019-08-17T12:25:02Z</time>
      </trkpt>
      <trkpt lat="42.1631700" lon="-7.7606620">
        <ele>686.4</ele>
        <time>2019-08-17T12:25:03Z</time>
      </trkpt>
      <trkpt lat="42.1632310" lon="-7.7606560">
        <ele>686.5</ele>
        <time>2019-08-17T12:25:04Z</time>
      </trkpt>
      <trkpt lat="42.1632920" lon="-7.7606490">
        <ele>686.5</ele>
        <time>2019-08-17T12:25:05Z</time>
      </trkpt>
      <trkpt lat="42.1633540" lon="-7.7606420">
        <ele>686.6</ele>
        <time>2019-08-17T12:25:06Z</time>
      </trkpt>
      <trkpt lat="42.1634170" lon="-7.7606340">
        <ele>686.7</ele>
        <time>2019-08-17T12:25:07Z</time>
      </trkpt>
      <trkpt lat="42.1634810" lon="-7.7606260">
        <ele>686.8</ele>
        <time>2019-08-17T12:25:08Z</time>
      </trkpt>
      <trkpt lat="42.1635460" lon="-7.7606180">
        <ele>687.0</ele>
        <time>2019-08-17T12:25:09Z</time>
      </trkpt>
      <trkpt lat="42.1636110" lon="-7.7606090">
        <ele>687.2</ele>
        <time>2019-08-17T12:25:10Z</time>
      </trkpt>
      <trkpt lat="42.1636780" lon="-7.7606000">
        <ele>687.3</ele>
        <time>2019-08-17T12:25:11Z</time>
      </trkpt>
      <trkpt lat="42.1637460" lon="-7.7605900">
        <ele>687.4</ele>
        <time>2019-08-17T12:25:12Z</time>
      </trkpt>
      <trkpt lat="42.1638150" lon="-7.7605810">
        <ele>687.5</ele>
        <time>2019-08-17T12:25:13Z</time>
      </trkpt>
      <trkpt lat="42.1638840" lon="-7.7605710">
        <ele>687.5</ele>
        <time>2019-08-17T12:25:14Z</time>
      </trkpt>
      <trkpt lat="42.1639550" lon="-7.7605600">
        <ele>687.3</ele>
        <time>2019-08-17T12:25:15Z</time>
      </trkpt>
      <trkpt lat="42.1640270" lon="-7.7605500">
        <ele>687.1</ele>
        <time>2019-08-17T12:25:16Z</time>
      </trkpt>
      <trkpt lat="42.1641000" lon="-7.7605400">
        <ele>686.7</ele>
        <time>2019-08-17T12:25:17Z</time>
      </trkpt>
      <trkpt lat="42.1641740" lon="-7.7605290">
        <ele>686.4</ele>
        <time>2019-08-17T12:25:18Z</time>
      </trkpt>
      <trkpt lat="42.1642480" lon="-7.7605190">
        <ele>685.9</ele>
        <time>2019-08-17T12:25:19Z</time>
      </trkpt>
      <trkpt lat="42.1643240" lon="-7.7605080">
        <ele>685.5</ele>
        <time>2019-08-17T12:25:20Z</time>
      </trkpt>
      <trkpt lat="42.1644010" lon="-7.7604980">
        <ele>685.1</ele>
        <time>2019-08-17T12:25:21Z</time>
      </trkpt>
      <trkpt lat="42.1644790" lon="-7.7604880">
        <ele>684.8</ele>
        <time>2019-08-17T12:25:22Z</time>
      </trkpt>
      <trkpt lat="42.1645580" lon="-7.7604770">
        <ele>684.4</ele>
        <time>2019-08-17T12:25:23Z</time>
      </trkpt>
      <trkpt lat="42.1646380" lon="-7.7604680">
        <ele>683.9</ele>
        <time>2019-08-17T12:25:24Z</time>
      </trkpt>
      <trkpt lat="42.1647190" lon="-7.7604580">
        <ele>683.4</ele>
        <time>2019-08-17T12:25:25Z</time>
      </trkpt>
      <trkpt lat="42.1648010" lon="-7.7604490">
        <ele>683.0</ele>
        <time>2019-08-17T12:25:26Z</time>
      </trkpt>
      <trkpt lat="42.1648840" lon="-7.7604400">
        <ele>682.7</ele>
        <time>2019-08-17T12:25:27Z</time>
      </trkpt>
      <trkpt lat="42.1649670" lon="-7.7604320">
        <ele>682.4</ele>
        <time>2019-08-17T12:25:28Z</time>
      </trkpt>
      <trkpt lat="42.1650520" lon="-7.7604250">
        <ele>682.0</ele>
        <time>2019-08-17T12:25:29Z</time>
      </trkpt>
      <trkpt lat="42.1651380" lon="-7.7604180">
        <ele>681.5</ele>
        <time>2019-08-17T12:25:30Z</time>
      </trkpt>
      <trkpt lat="42.1652240" lon="-7.7604110">
        <ele>681.0</ele>
        <time>2019-08-17T12:25:31Z</time>
      </trkpt>
      <trkpt lat="42.1653110" lon="-7.7604060">
        <ele>680.7</ele>
        <time>2019-08-17T12:25:32Z</time>
      </trkpt>
      <trkpt lat="42.1653990" lon="-7.7604020">
        <ele>680.3</ele>
        <time>2019-08-17T12:25:33Z</time>
      </trkpt>
      <trkpt lat="42.1654880" lon="-7.7603980">
        <ele>679.7</ele>
        <time>2019-08-17T12:25:34Z</time>
      </trkpt>
      <trkpt lat="42.1656230" lon="-7.7603960">
        <ele>678.7</ele>
        <time>2019-08-17T12:25:35Z</time>
      </trkpt>
      <trkpt lat="42.1656680" lon="-7.7603960">
        <ele>678.4</ele>
        <time>2019-08-17T12:25:36Z</time>
      </trkpt>
      <trkpt lat="42.1657580" lon="-7.7603950">
        <ele>677.9</ele>
        <time>2019-08-17T12:25:37Z</time>
      </trkpt>
      <trkpt lat="42.1658490" lon="-7.7603960">
        <ele>677.1</ele>
        <time>2019-08-17T12:25:38Z</time>
      </trkpt>
      <trkpt lat="42.1659410" lon="-7.7603990">
        <ele>676.3</ele>
        <time>2019-08-17T12:25:39Z</time>
      </trkpt>
      <trkpt lat="42.1660330" lon="-7.7604030">
        <ele>675.7</ele>
        <time>2019-08-17T12:25:40Z</time>
      </trkpt>
      <trkpt lat="42.1661260" lon="-7.7604080">
        <ele>675.2</ele>
        <time>2019-08-17T12:25:41Z</time>
      </trkpt>
      <trkpt lat="42.1662190" lon="-7.7604160">
        <ele>674.6</ele>
        <time>2019-08-17T12:25:42Z</time>
      </trkpt>
      <trkpt lat="42.1663120" lon="-7.7604240">
        <ele>674.1</ele>
        <time>2019-08-17T12:25:43Z</time>
      </trkpt>
      <trkpt lat="42.1664030" lon="-7.7604330">
        <ele>673.5</ele>
        <time>2019-08-17T12:25:44Z</time>
      </trkpt>
      <trkpt lat="42.1664940" lon="-7.7604430">
        <ele>673.0</ele>
        <time>2019-08-17T12:25:45Z</time>
      </trkpt>
      <trkpt lat="42.1665850" lon="-7.7604550">
        <ele>672.4</ele>
        <time>2019-08-17T12:25:46Z</time>
      </trkpt>
      <trkpt lat="42.1666750" lon="-7.7604680">
        <ele>671.6</ele>
        <time>2019-08-17T12:25:47Z</time>
      </trkpt>
      <trkpt lat="42.1667650" lon="-7.7604820">
        <ele>671.0</ele>
        <time>2019-08-17T12:25:48Z</time>
      </trkpt>
      <trkpt lat="42.1668560" lon="-7.7604980">
        <ele>670.3</ele>
        <time>2019-08-17T12:25:49Z</time>
      </trkpt>
      <trkpt lat="42.1669480" lon="-7.7605150">
        <ele>669.7</ele>
        <time>2019-08-17T12:25:50Z</time>
      </trkpt>
      <trkpt lat="42.1670420" lon="-7.7605340">
        <ele>669.3</ele>
        <time>2019-08-17T12:25:51Z</time>
      </trkpt>
      <trkpt lat="42.1671360" lon="-7.7605550">
        <ele>668.8</ele>
        <time>2019-08-17T12:25:52Z</time>
      </trkpt>
      <trkpt lat="42.1672320" lon="-7.7605770">
        <ele>668.1</ele>
        <time>2019-08-17T12:25:53Z</time>
      </trkpt>
      <trkpt lat="42.1673290" lon="-7.7606000">
        <ele>667.4</ele>
        <time>2019-08-17T12:25:54Z</time>
      </trkpt>
      <trkpt lat="42.1674260" lon="-7.7606250">
        <ele>666.7</ele>
        <time>2019-08-17T12:25:55Z</time>
      </trkpt>
      <trkpt lat="42.1675220" lon="-7.7606510">
        <ele>666.2</ele>
        <time>2019-08-17T12:25:56Z</time>
      </trkpt>
      <trkpt lat="42.1676190" lon="-7.7606780">
        <ele>665.6</ele>
        <time>2019-08-17T12:25:57Z</time>
      </trkpt>
      <trkpt lat="42.1677150" lon="-7.7607080">
        <ele>665.1</ele>
        <time>2019-08-17T12:25:58Z</time>
      </trkpt>
      <trkpt lat="42.1678100" lon="-7.7607380">
        <ele>664.5</ele>
        <time>2019-08-17T12:25:59Z</time>
      </trkpt>
      <trkpt lat="42.1679050" lon="-7.7607710">
        <ele>664.0</ele>
        <time>2019-08-17T12:26:00Z</time>
      </trkpt>
      <trkpt lat="42.1680000" lon="-7.7608040">
        <ele>663.5</ele>
        <time>2019-08-17T12:26:01Z</time>
      </trkpt>
      <trkpt lat="42.1680950" lon="-7.7608390">
        <ele>663.2</ele>
        <time>2019-08-17T12:26:02Z</time>
      </trkpt>
      <trkpt lat="42.1681890" lon="-7.7608750">
        <ele>662.8</ele>
        <time>2019-08-17T12:26:03Z</time>
      </trkpt>
      <trkpt lat="42.1682830" lon="-7.7609130">
        <ele>662.4</ele>
        <time>2019-08-17T12:26:04Z</time>
      </trkpt>
      <trkpt lat="42.1683760" lon="-7.7609520">
        <ele>661.9</ele>
        <time>2019-08-17T12:26:05Z</time>
      </trkpt>
      <trkpt lat="42.1684690" lon="-7.7609920">
        <ele>661.5</ele>
        <time>2019-08-17T12:26:06Z</time>
      </trkpt>
      <trkpt lat="42.1685620" lon="-7.7610330">
        <ele>661.2</ele>
        <time>2019-08-17T12:26:07Z</time>
      </trkpt>
      <trkpt lat="42.1686550" lon="-7.7610760">
        <ele>660.8</ele>
        <time>2019-08-17T12:26:08Z</time>
      </trkpt>
      <trkpt lat="42.1687470" lon="-7.7611190">
        <ele>660.4</ele>
        <time>2019-08-17T12:26:09Z</time>
      </trkpt>
      <trkpt lat="42.1688390" lon="-7.7611640">
        <ele>660.0</ele>
        <time>2019-08-17T12:26:10Z</time>
      </trkpt>
      <trkpt lat="42.1689310" lon="-7.7612100">
        <ele>659.6</ele>
        <time>2019-08-17T12:26:11Z</time>
      </trkpt>
      <trkpt lat="42.1690220" lon="-7.7612570">
        <ele>659.0</ele>
        <time>2019-08-17T12:26:12Z</time>
      </trkpt>
      <trkpt lat="42.1691130" lon="-7.7613050">
        <ele>658.2</ele>
        <time>2019-08-17T12:26:13Z</time>
      </trkpt>
      <trkpt lat="42.1692040" lon="-7.7613540">
        <ele>657.4</ele>
        <time>2019-08-17T12:26:14Z</time>
      </trkpt>
      <trkpt lat="42.1692950" lon="-7.7614040">
        <ele>656.7</ele>
        <time>2019-08-17T12:26:15Z</time>
      </trkpt>
      <trkpt lat="42.1693860" lon="-7.7614550">
        <ele>656.0</ele>
        <time>2019-08-17T12:26:16Z</time>
      </trkpt>
      <trkpt lat="42.1695380" lon="-7.7615430">
        <ele>654.9</ele>
        <time>2019-08-17T12:26:17Z</time>
      </trkpt>
      <trkpt lat="42.1695990" lon="-7.7615780">
        <ele>654.5</ele>
        <time>2019-08-17T12:26:18Z</time>
      </trkpt>
      <trkpt lat="42.1696600" lon="-7.7616140">
        <ele>654.1</ele>
        <time>2019-08-17T12:26:19Z</time>
      </trkpt>
      <trkpt lat="42.1697520" lon="-7.7616690">
        <ele>653.6</ele>
        <time>2019-08-17T12:26:20Z</time>
      </trkpt>
      <trkpt lat="42.1698450" lon="-7.7617250">
        <ele>653.1</ele>
        <time>2019-08-17T12:26:21Z</time>
      </trkpt>
      <trkpt lat="42.1700000" lon="-7.7618190">
        <ele>652.5</ele>
        <time>2019-08-17T12:26:22Z</time>
      </trkpt>
      <trkpt lat="42.1700620" lon="-7.7618570">
        <ele>652.1</ele>
        <time>2019-08-17T12:26:23Z</time>
      </trkpt>
      <trkpt lat="42.1701240" lon="-7.7618950">
        <ele>651.7</ele>
        <time>2019-08-17T12:26:24Z</time>
      </trkpt>
      <trkpt lat="42.1702160" lon="-7.7619530">
        <ele>651.0</ele>
        <time>2019-08-17T12:26:25Z</time>
      </trkpt>
      <trkpt lat="42.1703090" lon="-7.7620090">
        <ele>650.4</ele>
        <time>2019-08-17T12:26:26Z</time>
      </trkpt>
      <trkpt lat="42.1704020" lon="-7.7620660">
        <ele>649.9</ele>
        <time>2019-08-17T12:26:27Z</time>
      </trkpt>
      <trkpt lat="42.1704940" lon="-7.7621220">
        <ele>649.2</ele>
        <time>2019-08-17T12:26:28Z</time>
      </trkpt>
      <trkpt lat="42.1705860" lon="-7.7621780">
        <ele>648.5</ele>
        <time>2019-08-17T12:26:29Z</time>
      </trkpt>
      <trkpt lat="42.1706770" lon="-7.7622330">
        <ele>648.1</ele>
        <time>2019-08-17T12:26:30Z</time>
      </trkpt>
      <trkpt lat="42.1707690" lon="-7.7622870">
        <ele>647.6</ele>
        <time>2019-08-17T12:26:31Z</time>
      </trkpt>
      <trkpt lat="42.1708600" lon="-7.7623410">
        <ele>647.1</ele>
        <time>2019-08-17T12:26:32Z</time>
      </trkpt>
      <trkpt lat="42.1709500" lon="-7.7623950">
        <ele>646.6</ele>
        <time>2019-08-17T12:26:33Z</time>
      </trkpt>
      <trkpt lat="42.1710410" lon="-7.7624470">
        <ele>646.2</ele>
        <time>2019-08-17T12:26:34Z</time>
      </trkpt>
      <trkpt lat="42.1711310" lon="-7.7624990">
        <ele>645.8</ele>
        <time>2019-08-17T12:26:35Z</time>
      </trkpt>
      <trkpt lat="42.1712200" lon="-7.7625510">
        <ele>645.3</ele>
        <time>2019-08-17T12:26:36Z</time>
      </trkpt>
      <trkpt lat="42.1713100" lon="-7.7626010">
        <ele>644.9</ele>
        <time>2019-08-17T12:26:37Z</time>
      </trkpt>
      <trkpt lat="42.1713990" lon="-7.7626510">
        <ele>644.5</ele>
        <time>2019-08-17T12:26:38Z</time>
      </trkpt>
      <trkpt lat="42.1714870" lon="-7.7626990">
        <ele>644.1</ele>
        <time>2019-08-17T12:26:39Z</time>
      </trkpt>
      <trkpt lat="42.1715760" lon="-7.7627470">
        <ele>643.7</ele>
        <time>2019-08-17T12:26:40Z</time>
      </trkpt>
      <trkpt lat="42.1716640" lon="-7.7627930">
        <ele>643.3</ele>
        <time>2019-08-17T12:26:41Z</time>
      </trkpt>
      <trkpt lat="42.1717530" lon="-7.7628370">
        <ele>642.9</ele>
        <time>2019-08-17T12:26:42Z</time>
      </trkpt>
      <trkpt lat="42.1718410" lon="-7.7628810">
        <ele>642.6</ele>
        <time>2019-08-17T12:26:43Z</time>
      </trkpt>
      <trkpt lat="42.1719290" lon="-7.7629230">
        <ele>642.2</ele>
        <time>2019-08-17T12:26:44Z</time>
      </trkpt>
      <trkpt lat="42.1720170" lon="-7.7629630">
        <ele>641.8</ele>
        <time>2019-08-17T12:26:45Z</time>
      </trkpt>
      <trkpt lat="42.1721050" lon="-7.7630020">
        <ele>641.5</ele>
        <time>2019-08-17T12:26:46Z</time>
      </trkpt>
      <trkpt lat="42.1721930" lon="-7.7630400">
        <ele>641.1</ele>
        <time>2019-08-17T12:26:47Z</time>
      </trkpt>
      <trkpt lat="42.1722810" lon="-7.7630760">
        <ele>640.7</ele>
        <time>2019-08-17T12:26:48Z</time>
      </trkpt>
      <trkpt lat="42.1723680" lon="-7.7631110">
        <ele>640.2</ele>
        <time>2019-08-17T12:26:49Z</time>
      </trkpt>
      <trkpt lat="42.1724560" lon="-7.7631450">
        <ele>639.8</ele>
        <time>2019-08-17T12:26:50Z</time>
      </trkpt>
      <trkpt lat="42.1725430" lon="-7.7631770">
        <ele>639.3</ele>
        <time>2019-08-17T12:26:51Z</time>
      </trkpt>
      <trkpt lat="42.1726300" lon="-7.7632090">
        <ele>638.8</ele>
        <time>2019-08-17T12:26:52Z</time>
      </trkpt>
      <trkpt lat="42.1727170" lon="-7.7632380">
        <ele>638.3</ele>
        <time>2019-08-17T12:26:53Z</time>
      </trkpt>
      <trkpt lat="42.1728030" lon="-7.7632670">
        <ele>637.9</ele>
        <time>2019-08-17T12:26:54Z</time>
      </trkpt>
      <trkpt lat="42.1728900" lon="-7.7632940">
        <ele>637.5</ele>
        <time>2019-08-17T12:26:55Z</time>
      </trkpt>
      <trkpt lat="42.1729760" lon="-7.7633200">
        <ele>637.1</ele>
        <time>2019-08-17T12:26:56Z</time>
      </trkpt>
      <trkpt lat="42.1730620" lon="-7.7633450">
        <ele>636.8</ele>
        <time>2019-08-17T12:26:57Z</time>
      </trkpt>
      <trkpt lat="42.1731470" lon="-7.7633680">
        <ele>636.6</ele>
        <time>2019-08-17T12:26:58Z</time>
      </trkpt>
      <trkpt lat="42.1732330" lon="-7.7633900">
        <ele>636.4</ele>
        <time>2019-08-17T12:26:59Z</time>
      </trkpt>
      <trkpt lat="42.1733180" lon="-7.7634110">
        <ele>636.3</ele>
        <time>2019-08-17T12:27:00Z</time>
      </trkpt>
      <trkpt lat="42.1734030" lon="-7.7634310">
        <ele>636.1</ele>
        <time>2019-08-17T12:27:01Z</time>
      </trkpt>
      <trkpt lat="42.1734870" lon="-7.7634500">
        <ele>636.0</ele>
        <time>2019-08-17T12:27:02Z</time>
      </trkpt>
      <trkpt lat="42.1735720" lon="-7.7634680">
        <ele>636.0</ele>
        <time>2019-08-17T12:27:03Z</time>
      </trkpt>
      <trkpt lat="42.1736560" lon="-7.7634840">
        <ele>635.9</ele>
        <time>2019-08-17T12:27:04Z</time>
      </trkpt>
      <trkpt lat="42.1737400" lon="-7.7634990">
        <ele>635.8</ele>
        <time>2019-08-17T12:27:05Z</time>
      </trkpt>
      <trkpt lat="42.1738230" lon="-7.7635140">
        <ele>635.6</ele>
        <time>2019-08-17T12:27:06Z</time>
      </trkpt>
      <trkpt lat="42.1739060" lon="-7.7635270">
        <ele>635.4</ele>
        <time>2019-08-17T12:27:07Z</time>
      </trkpt>
      <trkpt lat="42.1739880" lon="-7.7635390">
        <ele>635.2</ele>
        <time>2019-08-17T12:27:08Z</time>
      </trkpt>
      <trkpt lat="42.1740700" lon="-7.7635500">
        <ele>635.0</ele>
        <time>2019-08-17T12:27:09Z</time>
      </trkpt>
      <trkpt lat="42.1741510" lon="-7.7635600">
        <ele>634.8</ele>
        <time>2019-08-17T12:27:10Z</time>
      </trkpt>
      <trkpt lat="42.1742310" lon="-7.7635680">
        <ele>634.5</ele>
        <time>2019-08-17T12:27:11Z</time>
      </trkpt>
      <trkpt lat="42.1743100" lon="-7.7635760">
        <ele>634.2</ele>
        <time>2019-08-17T12:27:12Z</time>
      </trkpt>
      <trkpt lat="42.1743880" lon="-7.7635820">
        <ele>634.0</ele>
        <time>2019-08-17T12:27:13Z</time>
      </trkpt>
      <trkpt lat="42.1744640" lon="-7.7635870">
        <ele>633.7</ele>
        <time>2019-08-17T12:27:14Z</time>
      </trkpt>
      <trkpt lat="42.1745390" lon="-7.7635910">
        <ele>633.4</ele>
        <time>2019-08-17T12:27:15Z</time>
      </trkpt>
      <trkpt lat="42.1746130" lon="-7.7635930">
        <ele>633.1</ele>
        <time>2019-08-17T12:27:16Z</time>
      </trkpt>
      <trkpt lat="42.1746870" lon="-7.7635950">
        <ele>632.9</ele>
        <time>2019-08-17T12:27:17Z</time>
      </trkpt>
      <trkpt lat="42.1747610" lon="-7.7635960">
        <ele>632.6</ele>
        <time>2019-08-17T12:27:18Z</time>
      </trkpt>
      <trkpt lat="42.1748340" lon="-7.7635970">
        <ele>632.4</ele>
        <time>2019-08-17T12:27:19Z</time>
      </trkpt>
      <trkpt lat="42.1749070" lon="-7.7635970">
        <ele>632.1</ele>
        <time>2019-08-17T12:27:20Z</time>
      </trkpt>
      <trkpt lat="42.1749810" lon="-7.7635960">
        <ele>631.8</ele>
        <time>2019-08-17T12:27:21Z</time>
      </trkpt>
      <trkpt lat="42.1750560" lon="-7.7635960">
        <ele>631.6</ele>
        <time>2019-08-17T12:27:22Z</time>
      </trkpt>
      <trkpt lat="42.1751320" lon="-7.7635950">
        <ele>631.3</ele>
        <time>2019-08-17T12:27:23Z</time>
      </trkpt>
      <trkpt lat="42.1752070" lon="-7.7635930">
        <ele>631.0</ele>
        <time>2019-08-17T12:27:24Z</time>
      </trkpt>
      <trkpt lat="42.1752840" lon="-7.7635910">
        <ele>630.8</ele>
        <time>2019-08-17T12:27:25Z</time>
      </trkpt>
      <trkpt lat="42.1753620" lon="-7.7635890">
        <ele>630.5</ele>
        <time>2019-08-17T12:27:26Z</time>
      </trkpt>
      <trkpt lat="42.1754410" lon="-7.7635860">
        <ele>630.2</ele>
        <time>2019-08-17T12:27:27Z</time>
      </trkpt>
      <trkpt lat="42.1755200" lon="-7.7635820">
        <ele>629.9</ele>
        <time>2019-08-17T12:27:28Z</time>
      </trkpt>
      <trkpt lat="42.1756010" lon="-7.7635780">
        <ele>629.6</ele>
        <time>2019-08-17T12:27:29Z</time>
      </trkpt>
      <trkpt lat="42.1756820" lon="-7.7635730">
        <ele>629.3</ele>
        <time>2019-08-17T12:27:30Z</time>
      </trkpt>
      <trkpt lat="42.1757640" lon="-7.7635680">
        <ele>629.0</ele>
        <time>2019-08-17T12:27:31Z</time>
      </trkpt>
      <trkpt lat="42.1758470" lon="-7.7635630">
        <ele>628.7</ele>
        <time>2019-08-17T12:27:32Z</time>
      </trkpt>
      <trkpt lat="42.1759310" lon="-7.7635560">
        <ele>628.3</ele>
        <time>2019-08-17T12:27:33Z</time>
      </trkpt>
      <trkpt lat="42.1760150" lon="-7.7635500">
        <ele>627.9</ele>
        <time>2019-08-17T12:27:34Z</time>
      </trkpt>
      <trkpt lat="42.1761000" lon="-7.7635430">
        <ele>627.6</ele>
        <time>2019-08-17T12:27:35Z</time>
      </trkpt>
      <trkpt lat="42.1761860" lon="-7.7635350">
        <ele>627.1</ele>
        <time>2019-08-17T12:27:36Z</time>
      </trkpt>
      <trkpt lat="42.1762720" lon="-7.7635270">
        <ele>626.7</ele>
        <time>2019-08-17T12:27:37Z</time>
      </trkpt>
      <trkpt lat="42.1763590" lon="-7.7635190">
        <ele>626.2</ele>
        <time>2019-08-17T12:27:38Z</time>
      </trkpt>
      <trkpt lat="42.1764470" lon="-7.7635110">
        <ele>625.7</ele>
        <time>2019-08-17T12:27:39Z</time>
      </trkpt>
      <trkpt lat="42.1765360" lon="-7.7635040">
        <ele>625.2</ele>
        <time>2019-08-17T12:27:40Z</time>
      </trkpt>
      <trkpt lat="42.1766250" lon="-7.7634970">
        <ele>624.7</ele>
        <time>2019-08-17T12:27:41Z</time>
      </trkpt>
      <trkpt lat="42.1767160" lon="-7.7634900">
        <ele>624.2</ele>
        <time>2019-08-17T12:27:42Z</time>
      </trkpt>
      <trkpt lat="42.1768080" lon="-7.7634850">
        <ele>623.7</ele>
        <time>2019-08-17T12:27:43Z</time>
      </trkpt>
      <trkpt lat="42.1769010" lon="-7.7634810">
        <ele>623.2</ele>
        <time>2019-08-17T12:27:44Z</time>
      </trkpt>
      <trkpt lat="42.1769960" lon="-7.7634790">
        <ele>622.8</ele>
        <time>2019-08-17T12:27:45Z</time>
      </trkpt>
      <trkpt lat="42.1770920" lon="-7.7634780">
        <ele>622.3</ele>
        <time>2019-08-17T12:27:46Z</time>
      </trkpt>
      <trkpt lat="42.1771890" lon="-7.7634790">
        <ele>621.8</ele>
        <time>2019-08-17T12:27:47Z</time>
      </trkpt>
      <trkpt lat="42.1772870" lon="-7.7634810">
        <ele>621.3</ele>
        <time>2019-08-17T12:27:48Z</time>
      </trkpt>
      <trkpt lat="42.1773860" lon="-7.7634850">
        <ele>620.8</ele>
        <time>2019-08-17T12:27:49Z</time>
      </trkpt>
      <trkpt lat="42.1774850" lon="-7.7634910">
        <ele>620.2</ele>
        <time>2019-08-17T12:27:50Z</time>
      </trkpt>
      <trkpt lat="42.1776370" lon="-7.7635040">
        <ele>619.3</ele>
        <time>2019-08-17T12:27:51Z</time>
      </trkpt>
      <trkpt lat="42.1776870" lon="-7.7635090">
        <ele>619.0</ele>
        <time>2019-08-17T12:27:52Z</time>
      </trkpt>
      <trkpt lat="42.1777870" lon="-7.7635190">
        <ele>618.4</ele>
        <time>2019-08-17T12:27:53Z</time>
      </trkpt>
      <trkpt lat="42.1778880" lon="-7.7635320">
        <ele>617.8</ele>
        <time>2019-08-17T12:27:54Z</time>
      </trkpt>
      <trkpt lat="42.1779890" lon="-7.7635460">
        <ele>617.2</ele>
        <time>2019-08-17T12:27:55Z</time>
      </trkpt>
      <trkpt lat="42.1780910" lon="-7.7635630">
        <ele>616.5</ele>
        <time>2019-08-17T12:27:56Z</time>
      </trkpt>
      <trkpt lat="42.1781930" lon="-7.7635820">
        <ele>615.8</ele>
        <time>2019-08-17T12:27:57Z</time>
      </trkpt>
      <trkpt lat="42.1782950" lon="-7.7636030">
        <ele>615.2</ele>
        <time>2019-08-17T12:27:58Z</time>
      </trkpt>
      <trkpt lat="42.1783980" lon="-7.7636270">
        <ele>614.5</ele>
        <time>2019-08-17T12:27:59Z</time>
      </trkpt>
      <trkpt lat="42.1785010" lon="-7.7636520">
        <ele>613.8</ele>
        <time>2019-08-17T12:28:00Z</time>
      </trkpt>
      <trkpt lat="42.1786040" lon="-7.7636800">
        <ele>613.1</ele>
        <time>2019-08-17T12:28:01Z</time>
      </trkpt>
      <trkpt lat="42.1787090" lon="-7.7637110">
        <ele>612.4</ele>
        <time>2019-08-17T12:28:02Z</time>
      </trkpt>
      <trkpt lat="42.1788130" lon="-7.7637430">
        <ele>611.7</ele>
        <time>2019-08-17T12:28:03Z</time>
      </trkpt>
      <trkpt lat="42.1789180" lon="-7.7637780">
        <ele>611.0</ele>
        <time>2019-08-17T12:28:04Z</time>
      </trkpt>
      <trkpt lat="42.1790230" lon="-7.7638150">
        <ele>610.3</ele>
        <time>2019-08-17T12:28:05Z</time>
      </trkpt>
      <trkpt lat="42.1791290" lon="-7.7638540">
        <ele>609.7</ele>
        <time>2019-08-17T12:28:06Z</time>
      </trkpt>
      <trkpt lat="42.1792350" lon="-7.7638950">
        <ele>609.1</ele>
        <time>2019-08-17T12:28:07Z</time>
      </trkpt>
      <trkpt lat="42.1793420" lon="-7.7639370">
        <ele>608.4</ele>
        <time>2019-08-17T12:28:08Z</time>
      </trkpt>
      <trkpt lat="42.1794490" lon="-7.7639810">
        <ele>607.8</ele>
        <time>2019-08-17T12:28:09Z</time>
      </trkpt>
      <trkpt lat="42.1795550" lon="-7.7640270">
        <ele>607.2</ele>
        <time>2019-08-17T12:28:10Z</time>
      </trkpt>
      <trkpt lat="42.1796620" lon="-7.7640730">
        <ele>606.5</ele>
        <time>2019-08-17T12:28:11Z</time>
      </trkpt>
      <trkpt lat="42.1797690" lon="-7.7641200">
        <ele>605.9</ele>
        <time>2019-08-17T12:28:12Z</time>
      </trkpt>
      <trkpt lat="42.1798760" lon="-7.7641670">
        <ele>605.3</ele>
        <time>2019-08-17T12:28:13Z</time>
      </trkpt>
      <trkpt lat="42.1799830" lon="-7.7642140">
        <ele>604.6</ele>
        <time>2019-08-17T12:28:14Z</time>
      </trkpt>
      <trkpt lat="42.1800890" lon="-7.7642600">
        <ele>604.0</ele>
        <time>2019-08-17T12:28:15Z</time>
      </trkpt>
      <trkpt lat="42.1801940" lon="-7.7643050">
        <ele>603.4</ele>
        <time>2019-08-17T12:28:16Z</time>
      </trkpt>
      <trkpt lat="42.1802990" lon="-7.7643480">
        <ele>602.8</ele>
        <time>2019-08-17T12:28:17Z</time>
      </trkpt>
      <trkpt lat="42.1804030" lon="-7.7643910">
        <ele>602.2</ele>
        <time>2019-08-17T12:28:18Z</time>
      </trkpt>
      <trkpt lat="42.1805070" lon="-7.7644310">
        <ele>601.5</ele>
        <time>2019-08-17T12:28:19Z</time>
      </trkpt>
      <trkpt lat="42.1806110" lon="-7.7644700">
        <ele>600.9</ele>
        <time>2019-08-17T12:28:20Z</time>
      </trkpt>
      <trkpt lat="42.1807150" lon="-7.7645060">
        <ele>600.2</ele>
        <time>2019-08-17T12:28:21Z</time>
      </trkpt>
      <trkpt lat="42.1808200" lon="-7.7645410">
        <ele>599.5</ele>
        <time>2019-08-17T12:28:22Z</time>
      </trkpt>
      <trkpt lat="42.1809240" lon="-7.7645730">
        <ele>598.7</ele>
        <time>2019-08-17T12:28:23Z</time>
      </trkpt>
      <trkpt lat="42.1810290" lon="-7.7646020">
        <ele>598.0</ele>
        <time>2019-08-17T12:28:24Z</time>
      </trkpt>
      <trkpt lat="42.1811360" lon="-7.7646300">
        <ele>597.2</ele>
        <time>2019-08-17T12:28:25Z</time>
      </trkpt>
      <trkpt lat="42.1812420" lon="-7.7646540">
        <ele>596.5</ele>
        <time>2019-08-17T12:28:26Z</time>
      </trkpt>
      <trkpt lat="42.1813500" lon="-7.7646770">
        <ele>595.8</ele>
        <time>2019-08-17T12:28:27Z</time>
      </trkpt>
      <trkpt lat="42.1814580" lon="-7.7646970">
        <ele>595.2</ele>
        <time>2019-08-17T12:28:28Z</time>
      </trkpt>
      <trkpt lat="42.1815680" lon="-7.7647160">
        <ele>594.5</ele>
        <time>2019-08-17T12:28:29Z</time>
      </trkpt>
      <trkpt lat="42.1817520" lon="-7.7647420">
        <ele>593.4</ele>
        <time>2019-08-17T12:28:30Z</time>
      </trkpt>
      <trkpt lat="42.1818270" lon="-7.7647520">
        <ele>593.0</ele>
        <time>2019-08-17T12:28:31Z</time>
      </trkpt>
      <trkpt lat="42.1819010" lon="-7.7647610">
        <ele>592.6</ele>
        <time>2019-08-17T12:28:32Z</time>
      </trkpt>
      <trkpt lat="42.1820120" lon="-7.7647750">
        <ele>591.9</ele>
        <time>2019-08-17T12:28:33Z</time>
      </trkpt>
      <trkpt lat="42.1821250" lon="-7.7647880">
        <ele>591.3</ele>
        <time>2019-08-17T12:28:34Z</time>
      </trkpt>
      <trkpt lat="42.1823110" lon="-7.7648070">
        <ele>590.2</ele>
        <time>2019-08-17T12:28:35Z</time>
      </trkpt>
      <trkpt lat="42.1823860" lon="-7.7648140">
        <ele>589.8</ele>
        <time>2019-08-17T12:28:36Z</time>
      </trkpt>
      <trkpt lat="42.1824600" lon="-7.7648220">
        <ele>589.4</ele>
        <time>2019-08-17T12:28:37Z</time>
      </trkpt>
      <trkpt lat="42.1825700" lon="-7.7648330">
        <ele>588.8</ele>
        <time>2019-08-17T12:28:38Z</time>
      </trkpt>
      <trkpt lat="42.1826790" lon="-7.7648450">
        <ele>588.2</ele>
        <time>2019-08-17T12:28:39Z</time>
      </trkpt>
      <trkpt lat="42.1827870" lon="-7.7648580">
        <ele>587.7</ele>
        <time>2019-08-17T12:28:40Z</time>
      </trkpt>
      <trkpt lat="42.1828940" lon="-7.7648710">
        <ele>587.1</ele>
        <time>2019-08-17T12:28:41Z</time>
      </trkpt>
      <trkpt lat="42.1830010" lon="-7.7648860">
        <ele>586.5</ele>
        <time>2019-08-17T12:28:42Z</time>
      </trkpt>
      <trkpt lat="42.1831080" lon="-7.7649020">
        <ele>585.9</ele>
        <time>2019-08-17T12:28:43Z</time>
      </trkpt>
      <trkpt lat="42.1832160" lon="-7.7649210">
        <ele>585.3</ele>
        <time>2019-08-17T12:28:44Z</time>
      </trkpt>
      <trkpt lat="42.1833250" lon="-7.7649420">
        <ele>584.6</ele>
        <time>2019-08-17T12:28:45Z</time>
      </trkpt>
      <trkpt lat="42.1834340" lon="-7.7649650">
        <ele>583.9</ele>
        <time>2019-08-17T12:28:46Z</time>
      </trkpt>
      <trkpt lat="42.1835420" lon="-7.7649890">
        <ele>583.2</ele>
        <time>2019-08-17T12:28:47Z</time>
      </trkpt>
      <trkpt lat="42.1836500" lon="-7.7650160">
        <ele>582.4</ele>
        <time>2019-08-17T12:28:48Z</time>
      </trkpt>
      <trkpt lat="42.1837570" lon="-7.7650450">
        <ele>581.7</ele>
        <time>2019-08-17T12:28:49Z</time>
      </trkpt>
      <trkpt lat="42.1838630" lon="-7.7650750">
        <ele>580.9</ele>
        <time>2019-08-17T12:28:50Z</time>
      </trkpt>
      <trkpt lat="42.1839680" lon="-7.7651080">
        <ele>580.1</ele>
        <time>2019-08-17T12:28:51Z</time>
      </trkpt>
      <trkpt lat="42.1840730" lon="-7.7651420">
        <ele>579.3</ele>
        <time>2019-08-17T12:28:52Z</time>
      </trkpt>
      <trkpt lat="42.1841760" lon="-7.7651790">
        <ele>578.6</ele>
        <time>2019-08-17T12:28:53Z</time>
      </trkpt>
      <trkpt lat="42.1842800" lon="-7.7652170">
        <ele>577.8</ele>
        <time>2019-08-17T12:28:54Z</time>
      </trkpt>
      <trkpt lat="42.1843820" lon="-7.7652580">
        <ele>577.1</ele>
        <time>2019-08-17T12:28:55Z</time>
      </trkpt>
      <trkpt lat="42.1844840" lon="-7.7653010">
        <ele>576.4</ele>
        <time>2019-08-17T12:28:56Z</time>
      </trkpt>
      <trkpt lat="42.1845860" lon="-7.7653450">
        <ele>575.7</ele>
        <time>2019-08-17T12:28:57Z</time>
      </trkpt>
      <trkpt lat="42.1846870" lon="-7.7653920">
        <ele>575.1</ele>
        <time>2019-08-17T12:28:58Z</time>
      </trkpt>
      <trkpt lat="42.1847880" lon="-7.7654420">
        <ele>574.5</ele>
        <time>2019-08-17T12:28:59Z</time>
      </trkpt>
      <trkpt lat="42.1848880" lon="-7.7654930">
        <ele>573.9</ele>
        <time>2019-08-17T12:29:00Z</time>
      </trkpt>
      <trkpt lat="42.1849880" lon="-7.7655460">
        <ele>573.3</ele>
        <time>2019-08-17T12:29:01Z</time>
      </trkpt>
      <trkpt lat="42.1850880" lon="-7.7656020">
        <ele>572.7</ele>
        <time>2019-08-17T12:29:02Z</time>
      </trkpt>
      <trkpt lat="42.1851870" lon="-7.7656600">
        <ele>572.0</ele>
        <time>2019-08-17T12:29:03Z</time>
      </trkpt>
      <trkpt lat="42.1852870" lon="-7.7657200">
        <ele>571.4</ele>
        <time>2019-08-17T12:29:04Z</time>
      </trkpt>
      <trkpt lat="42.1853860" lon="-7.7657810">
        <ele>570.8</ele>
        <time>2019-08-17T12:29:05Z</time>
      </trkpt>
      <trkpt lat="42.1854850" lon="-7.7658440">
        <ele>570.2</ele>
        <time>2019-08-17T12:29:06Z</time>
      </trkpt>
      <trkpt lat="42.1855840" lon="-7.7659090">
        <ele>569.5</ele>
        <time>2019-08-17T12:29:07Z</time>
      </trkpt>
      <trkpt lat="42.1856820" lon="-7.7659740">
        <ele>568.9</ele>
        <time>2019-08-17T12:29:08Z</time>
      </trkpt>
      <trkpt lat="42.1857810" lon="-7.7660410">
        <ele>568.3</ele>
        <time>2019-08-17T12:29:09Z</time>
      </trkpt>
      <trkpt lat="42.1858800" lon="-7.7661080">
        <ele>567.6</ele>
        <time>2019-08-17T12:29:10Z</time>
      </trkpt>
      <trkpt lat="42.1859790" lon="-7.7661750">
        <ele>567.0</ele>
        <time>2019-08-17T12:29:11Z</time>
      </trkpt>
      <trkpt lat="42.1860780" lon="-7.7662420">
        <ele>566.3</ele>
        <time>2019-08-17T12:29:12Z</time>
      </trkpt>
      <trkpt lat="42.1861760" lon="-7.7663100">
        <ele>565.6</ele>
        <time>2019-08-17T12:29:13Z</time>
      </trkpt>
      <trkpt lat="42.1862750" lon="-7.7663770">
        <ele>564.8</ele>
        <time>2019-08-17T12:29:14Z</time>
      </trkpt>
      <trkpt lat="42.1863730" lon="-7.7664440">
        <ele>564.1</ele>
        <time>2019-08-17T12:29:15Z</time>
      </trkpt>
      <trkpt lat="42.1864710" lon="-7.7665100">
        <ele>563.4</ele>
        <time>2019-08-17T12:29:16Z</time>
      </trkpt>
      <trkpt lat="42.1865690" lon="-7.7665750">
        <ele>562.6</ele>
        <time>2019-08-17T12:29:17Z</time>
      </trkpt>
      <trkpt lat="42.1866660" lon="-7.7666400">
        <ele>561.9</ele>
        <time>2019-08-17T12:29:18Z</time>
      </trkpt>
      <trkpt lat="42.1867620" lon="-7.7667030">
        <ele>561.1</ele>
        <time>2019-08-17T12:29:19Z</time>
      </trkpt>
      <trkpt lat="42.1868580" lon="-7.7667650">
        <ele>560.4</ele>
        <time>2019-08-17T12:29:20Z</time>
      </trkpt>
      <trkpt lat="42.1869530" lon="-7.7668270">
        <ele>559.7</ele>
        <time>2019-08-17T12:29:21Z</time>
      </trkpt>
      <trkpt lat="42.1870470" lon="-7.7668890">
        <ele>559.0</ele>
        <time>2019-08-17T12:29:22Z</time>
      </trkpt>
      <trkpt lat="42.1871390" lon="-7.7669510">
        <ele>558.3</ele>
        <time>2019-08-17T12:29:23Z</time>
      </trkpt>
      <trkpt lat="42.1872310" lon="-7.7670150">
        <ele>557.7</ele>
        <time>2019-08-17T12:29:24Z</time>
      </trkpt>
      <trkpt lat="42.1873210" lon="-7.7670790">
        <ele>557.2</ele>
        <time>2019-08-17T12:29:25Z</time>
      </trkpt>
      <trkpt lat="42.1874090" lon="-7.7671460">
        <ele>556.6</ele>
        <time>2019-08-17T12:29:26Z</time>
      </trkpt>
      <trkpt lat="42.1874960" lon="-7.7672150">
        <ele>556.0</ele>
        <time>2019-08-17T12:29:27Z</time>
      </trkpt>
      <trkpt lat="42.1875810" lon="-7.7672860">
        <ele>555.4</ele>
        <time>2019-08-17T12:29:28Z</time>
      </trkpt>
      <trkpt lat="42.1876650" lon="-7.7673590">
        <ele>554.8</ele>
        <time>2019-08-17T12:29:29Z</time>
      </trkpt>
      <trkpt lat="42.1877480" lon="-7.7674340">
        <ele>554.2</ele>
        <time>2019-08-17T12:29:30Z</time>
      </trkpt>
      <trkpt lat="42.1878300" lon="-7.7675120">
        <ele>553.6</ele>
        <time>2019-08-17T12:29:31Z</time>
      </trkpt>
      <trkpt lat="42.1879110" lon="-7.7675920">
        <ele>552.9</ele>
        <time>2019-08-17T12:29:32Z</time>
      </trkpt>
      <trkpt lat="42.1879920" lon="-7.7676740">
        <ele>552.2</ele>
        <time>2019-08-17T12:29:33Z</time>
      </trkpt>
      <trkpt lat="42.1880730" lon="-7.7677570">
        <ele>551.5</ele>
        <time>2019-08-17T12:29:34Z</time>
      </trkpt>
      <trkpt lat="42.1881540" lon="-7.7678430">
        <ele>550.7</ele>
        <time>2019-08-17T12:29:35Z</time>
      </trkpt>
      <trkpt lat="42.1882340" lon="-7.7679280">
        <ele>549.9</ele>
        <time>2019-08-17T12:29:36Z</time>
      </trkpt>
      <trkpt lat="42.1883140" lon="-7.7680140">
        <ele>549.2</ele>
        <time>2019-08-17T12:29:37Z</time>
      </trkpt>
      <trkpt lat="42.1883940" lon="-7.7681000">
        <ele>548.3</ele>
        <time>2019-08-17T12:29:38Z</time>
      </trkpt>
      <trkpt lat="42.1884750" lon="-7.7681850">
        <ele>547.5</ele>
        <time>2019-08-17T12:29:39Z</time>
      </trkpt>
      <trkpt lat="42.1885550" lon="-7.7682700">
        <ele>546.7</ele>
        <time>2019-08-17T12:29:40Z</time>
      </trkpt>
      <trkpt lat="42.1886350" lon="-7.7683550">
        <ele>545.9</ele>
        <time>2019-08-17T12:29:41Z</time>
      </trkpt>
      <trkpt lat="42.1887150" lon="-7.7684400">
        <ele>545.1</ele>
        <time>2019-08-17T12:29:42Z</time>
      </trkpt>
      <trkpt lat="42.1887960" lon="-7.7685260">
        <ele>544.3</ele>
        <time>2019-08-17T12:29:43Z</time>
      </trkpt>
      <trkpt lat="42.1888750" lon="-7.7686120">
        <ele>543.6</ele>
        <time>2019-08-17T12:29:44Z</time>
      </trkpt>
      <trkpt lat="42.1889540" lon="-7.7686980">
        <ele>542.9</ele>
        <time>2019-08-17T12:29:45Z</time>
      </trkpt>
      <trkpt lat="42.1890300" lon="-7.7687840">
        <ele>542.3</ele>
        <time>2019-08-17T12:29:46Z</time>
      </trkpt>
      <trkpt lat="42.1891050" lon="-7.7688710">
        <ele>541.7</ele>
        <time>2019-08-17T12:29:47Z</time>
      </trkpt>
      <trkpt lat="42.1891770" lon="-7.7689590">
        <ele>541.1</ele>
        <time>2019-08-17T12:29:48Z</time>
      </trkpt>
      <trkpt lat="42.1892460" lon="-7.7690500">
        <ele>540.6</ele>
        <time>2019-08-17T12:29:49Z</time>
      </trkpt>
      <trkpt lat="42.1893110" lon="-7.7691440">
        <ele>540.1</ele>
        <time>2019-08-17T12:29:50Z</time>
      </trkpt>
      <trkpt lat="42.1893710" lon="-7.7692420">
        <ele>539.6</ele>
        <time>2019-08-17T12:29:51Z</time>
      </trkpt>
      <trkpt lat="42.1894270" lon="-7.7693430">
        <ele>539.2</ele>
        <time>2019-08-17T12:29:52Z</time>
      </trkpt>
      <trkpt lat="42.1894790" lon="-7.7694480">
        <ele>538.8</ele>
        <time>2019-08-17T12:29:53Z</time>
      </trkpt>
      <trkpt lat="42.1895270" lon="-7.7695550">
        <ele>538.4</ele>
        <time>2019-08-17T12:29:54Z</time>
      </trkpt>
      <trkpt lat="42.1895710" lon="-7.7696660">
        <ele>538.1</ele>
        <time>2019-08-17T12:29:55Z</time>
      </trkpt>
      <trkpt lat="42.1896110" lon="-7.7697800">
        <ele>537.7</ele>
        <time>2019-08-17T12:29:56Z</time>
      </trkpt>
      <trkpt lat="42.1896460" lon="-7.7698970">
        <ele>537.3</ele>
        <time>2019-08-17T12:29:57Z</time>
      </trkpt>
      <trkpt lat="42.1896780" lon="-7.7700170">
        <ele>536.8</ele>
        <time>2019-08-17T12:29:58Z</time>
      </trkpt>
      <trkpt lat="42.1897050" lon="-7.7701400">
        <ele>536.3</ele>
        <time>2019-08-17T12:29:59Z</time>
      </trkpt>
      <trkpt lat="42.1897270" lon="-7.7702650">
        <ele>535.8</ele>
        <time>2019-08-17T12:30:00Z</time>
      </trkpt>
      <trkpt lat="42.1897450" lon="-7.7703920">
        <ele>535.2</ele>
        <time>2019-08-17T12:30:01Z</time>
      </trkpt>
      <trkpt lat="42.1897580" lon="-7.7705210">
        <ele>534.6</ele>
        <time>2019-08-17T12:30:02Z</time>
      </trkpt>
      <trkpt lat="42.1897660" lon="-7.7706510">
        <ele>534.0</ele>
        <time>2019-08-17T12:30:03Z</time>
      </trkpt>
      <trkpt lat="42.1897690" lon="-7.7707820">
        <ele>533.3</ele>
        <time>2019-08-17T12:30:04Z</time>
      </trkpt>
      <trkpt lat="42.1897640" lon="-7.7709150">
        <ele>532.7</ele>
        <time>2019-08-17T12:30:05Z</time>
      </trkpt>
      <trkpt lat="42.1897590" lon="-7.7710470">
        <ele>532.1</ele>
        <time>2019-08-17T12:30:06Z</time>
      </trkpt>
      <trkpt lat="42.1897470" lon="-7.7711790">
        <ele>531.5</ele>
        <time>2019-08-17T12:30:07Z</time>
      </trkpt>
      <trkpt lat="42.1897290" lon="-7.7713110">
        <ele>530.9</ele>
        <time>2019-08-17T12:30:08Z</time>
      </trkpt>
      <trkpt lat="42.1897060" lon="-7.7714430">
        <ele>530.4</ele>
        <time>2019-08-17T12:30:09Z</time>
      </trkpt>
      <trkpt lat="42.1896780" lon="-7.7715730">
        <ele>529.8</ele>
        <time>2019-08-17T12:30:10Z</time>
      </trkpt>
      <trkpt lat="42.1896460" lon="-7.7717020">
        <ele>529.3</ele>
        <time>2019-08-17T12:30:11Z</time>
      </trkpt>
      <trkpt lat="42.1896080" lon="-7.7718290">
        <ele>528.8</ele>
        <time>2019-08-17T12:30:12Z</time>
      </trkpt>
      <trkpt lat="42.1895670" lon="-7.7719540">
        <ele>528.3</ele>
        <time>2019-08-17T12:30:13Z</time>
      </trkpt>
      <trkpt lat="42.1895200" lon="-7.7720760">
        <ele>527.8</ele>
        <time>2019-08-17T12:30:14Z</time>
      </trkpt>
      <trkpt lat="42.1894700" lon="-7.7721960">
        <ele>527.4</ele>
        <time>2019-08-17T12:30:15Z</time>
      </trkpt>
      <trkpt lat="42.1894160" lon="-7.7723130">
        <ele>526.9</ele>
        <time>2019-08-17T12:30:16Z</time>
      </trkpt>
      <trkpt lat="42.1893580" lon="-7.7724270">
        <ele>526.4</ele>
        <time>2019-08-17T12:30:17Z</time>
      </trkpt>
      <trkpt lat="42.1892970" lon="-7.7725370">
        <ele>525.9</ele>
        <time>2019-08-17T12:30:18Z</time>
      </trkpt>
      <trkpt lat="42.1892330" lon="-7.7726440">
        <ele>525.4</ele>
        <time>2019-08-17T12:30:19Z</time>
      </trkpt>
      <trkpt lat="42.1891660" lon="-7.7727460">
        <ele>524.9</ele>
        <time>2019-08-17T12:30:20Z</time>
      </trkpt>
      <trkpt lat="42.1890960" lon="-7.7728450">
        <ele>524.4</ele>
        <time>2019-08-17T12:30:21Z</time>
      </trkpt>
      <trkpt lat="42.1890240" lon="-7.7729400">
        <ele>523.8</ele>
        <time>2019-08-17T12:30:22Z</time>
      </trkpt>
      <trkpt lat="42.1889500" lon="-7.7730320">
        <ele>523.2</ele>
        <time>2019-08-17T12:30:23Z</time>
      </trkpt>
      <trkpt lat="42.1888740" lon="-7.7731210">
        <ele>522.6</ele>
        <time>2019-08-17T12:30:24Z</time>
      </trkpt>
      <trkpt lat="42.1887960" lon="-7.7732060">
        <ele>522.1</ele>
        <time>2019-08-17T12:30:25Z</time>
      </trkpt>
      <trkpt lat="42.1887170" lon="-7.7732900">
        <ele>521.5</ele>
        <time>2019-08-17T12:30:26Z</time>
      </trkpt>
      <trkpt lat="42.1886360" lon="-7.7733710">
        <ele>520.9</ele>
        <time>2019-08-17T12:30:27Z</time>
      </trkpt>
      <trkpt lat="42.1885540" lon="-7.7734500">
        <ele>520.3</ele>
        <time>2019-08-17T12:30:28Z</time>
      </trkpt>
      <trkpt lat="42.1884710" lon="-7.7735270">
        <ele>519.7</ele>
        <time>2019-08-17T12:30:29Z</time>
      </trkpt>
      <trkpt lat="42.1883870" lon="-7.7736040">
        <ele>519.0</ele>
        <time>2019-08-17T12:30:30Z</time>
      </trkpt>
      <trkpt lat="42.1883030" lon="-7.7736790">
        <ele>518.4</ele>
        <time>2019-08-17T12:30:31Z</time>
      </trkpt>
      <trkpt lat="42.1882180" lon="-7.7737540">
        <ele>517.7</ele>
        <time>2019-08-17T12:30:32Z</time>
      </trkpt>
      <trkpt lat="42.1881330" lon="-7.7738290">
        <ele>517.1</ele>
        <time>2019-08-17T12:30:33Z</time>
      </trkpt>
      <trkpt lat="42.1880480" lon="-7.7739040">
        <ele>516.4</ele>
        <time>2019-08-17T12:30:34Z</time>
      </trkpt>
      <trkpt lat="42.1879630" lon="-7.7739790">
        <ele>515.5</ele>
        <time>2019-08-17T12:30:35Z</time>
      </trkpt>
      <trkpt lat="42.1878790" lon="-7.7740540">
        <ele>514.6</ele>
        <time>2019-08-17T12:30:36Z</time>
      </trkpt>
      <trkpt lat="42.1877950" lon="-7.7741310">
        <ele>513.7</ele>
        <time>2019-08-17T12:30:37Z</time>
      </trkpt>
      <trkpt lat="42.1877130" lon="-7.7742100">
        <ele>512.9</ele>
        <time>2019-08-17T12:30:38Z</time>
      </trkpt>
      <trkpt lat="42.1876310" lon="-7.7742900">
        <ele>512.3</ele>
        <time>2019-08-17T12:30:39Z</time>
      </trkpt>
      <trkpt lat="42.1875510" lon="-7.7743730">
        <ele>511.6</ele>
        <time>2019-08-17T12:30:40Z</time>
      </trkpt>
      <trkpt lat="42.1874730" lon="-7.7744600">
        <ele>511.0</ele>
        <time>2019-08-17T12:30:41Z</time>
      </trkpt>
      <trkpt lat="42.1873970" lon="-7.7745490">
        <ele>510.3</ele>
        <time>2019-08-17T12:30:42Z</time>
      </trkpt>
      <trkpt lat="42.1873230" lon="-7.7746430">
        <ele>509.7</ele>
        <time>2019-08-17T12:30:43Z</time>
      </trkpt>
      <trkpt lat="42.1872060" lon="-7.7748120">
        <ele>508.7</ele>
        <time>2019-08-17T12:30:44Z</time>
      </trkpt>
      <trkpt lat="42.1871620" lon="-7.7748830">
        <ele>508.3</ele>
        <time>2019-08-17T12:30:45Z</time>
      </trkpt>
      <trkpt lat="42.1871170" lon="-7.7749530">
        <ele>507.9</ele>
        <time>2019-08-17T12:30:46Z</time>
      </trkpt>
      <trkpt lat="42.1870510" lon="-7.7750610">
        <ele>507.3</ele>
        <time>2019-08-17T12:30:47Z</time>
      </trkpt>
      <trkpt lat="42.1869890" lon="-7.7751750">
        <ele>506.7</ele>
        <time>2019-08-17T12:30:48Z</time>
      </trkpt>
      <trkpt lat="42.1868930" lon="-7.7753730">
        <ele>505.7</ele>
        <time>2019-08-17T12:30:49Z</time>
      </trkpt>
      <trkpt lat="42.1868570" lon="-7.7754550">
        <ele>505.3</ele>
        <time>2019-08-17T12:30:50Z</time>
      </trkpt>
      <trkpt lat="42.1868200" lon="-7.7755360">
        <ele>504.9</ele>
        <time>2019-08-17T12:30:51Z</time>
      </trkpt>
      <trkpt lat="42.1867660" lon="-7.7756590">
        <ele>504.3</ele>
        <time>2019-08-17T12:30:52Z</time>
      </trkpt>
      <trkpt lat="42.1867160" lon="-7.7757860">
        <ele>503.7</ele>
        <time>2019-08-17T12:30:53Z</time>
      </trkpt>
      <trkpt lat="42.1866690" lon="-7.7759160">
        <ele>503.1</ele>
        <time>2019-08-17T12:30:54Z</time>
      </trkpt>
      <trkpt lat="42.1866260" lon="-7.7760470">
        <ele>502.7</ele>
        <time>2019-08-17T12:30:55Z</time>
      </trkpt>
      <trkpt lat="42.1865850" lon="-7.7761810">
        <ele>502.2</ele>
        <time>2019-08-17T12:30:56Z</time>
      </trkpt>
      <trkpt lat="42.1865480" lon="-7.7763160">
        <ele>501.8</ele>
        <time>2019-08-17T12:30:57Z</time>
      </trkpt>
      <trkpt lat="42.1865150" lon="-7.7764540">
        <ele>501.3</ele>
        <time>2019-08-17T12:30:58Z</time>
      </trkpt>
      <trkpt lat="42.1864850" lon="-7.7765930">
        <ele>500.9</ele>
        <time>2019-08-17T12:30:59Z</time>
      </trkpt>
      <trkpt lat="42.1864600" lon="-7.7767340">
        <ele>500.5</ele>
        <time>2019-08-17T12:31:00Z</time>
      </trkpt>
      <trkpt lat="42.1864390" lon="-7.7768770">
        <ele>500.0</ele>
        <time>2019-08-17T12:31:01Z</time>
      </trkpt>
      <trkpt lat="42.1864220" lon="-7.7770200">
        <ele>499.5</ele>
        <time>2019-08-17T12:31:02Z</time>
      </trkpt>
      <trkpt lat="42.1864090" lon="-7.7771650">
        <ele>499.0</ele>
        <time>2019-08-17T12:31:03Z</time>
      </trkpt>
      <trkpt lat="42.1864000" lon="-7.7773110">
        <ele>498.5</ele>
        <time>2019-08-17T12:31:04Z</time>
      </trkpt>
      <trkpt lat="42.1863950" lon="-7.7774570">
        <ele>498.0</ele>
        <time>2019-08-17T12:31:05Z</time>
      </trkpt>
      <trkpt lat="42.1863940" lon="-7.7776030">
        <ele>497.4</ele>
        <time>2019-08-17T12:31:06Z</time>
      </trkpt>
      <trkpt lat="42.1863970" lon="-7.7777490">
        <ele>496.7</ele>
        <time>2019-08-17T12:31:07Z</time>
      </trkpt>
      <trkpt lat="42.1864040" lon="-7.7778950">
        <ele>496.1</ele>
        <time>2019-08-17T12:31:08Z</time>
      </trkpt>
      <trkpt lat="42.1864170" lon="-7.7780400">
        <ele>495.6</ele>
        <time>2019-08-17T12:31:09Z</time>
      </trkpt>
      <trkpt lat="42.1864290" lon="-7.7781850">
        <ele>495.0</ele>
        <time>2019-08-17T12:31:10Z</time>
      </trkpt>
      <trkpt lat="42.1864470" lon="-7.7783290">
        <ele>494.5</ele>
        <time>2019-08-17T12:31:11Z</time>
      </trkpt>
      <trkpt lat="42.1864680" lon="-7.7784730">
        <ele>494.0</ele>
        <time>2019-08-17T12:31:12Z</time>
      </trkpt>
      <trkpt lat="42.1864940" lon="-7.7786150">
        <ele>493.4</ele>
        <time>2019-08-17T12:31:13Z</time>
      </trkpt>
      <trkpt lat="42.1865230" lon="-7.7787570">
        <ele>492.7</ele>
        <time>2019-08-17T12:31:14Z</time>
      </trkpt>
      <trkpt lat="42.1865550" lon="-7.7788970">
        <ele>492.1</ele>
        <time>2019-08-17T12:31:15Z</time>
      </trkpt>
      <trkpt lat="42.1865910" lon="-7.7790350">
        <ele>491.4</ele>
        <time>2019-08-17T12:31:16Z</time>
      </trkpt>
      <trkpt lat="42.1866300" lon="-7.7791720">
        <ele>490.7</ele>
        <time>2019-08-17T12:31:17Z</time>
      </trkpt>
      <trkpt lat="42.1866730" lon="-7.7793070">
        <ele>490.1</ele>
        <time>2019-08-17T12:31:18Z</time>
      </trkpt>
      <trkpt lat="42.1867180" lon="-7.7794390">
        <ele>489.5</ele>
        <time>2019-08-17T12:31:19Z</time>
      </trkpt>
      <trkpt lat="42.1867670" lon="-7.7795690">
        <ele>488.7</ele>
        <time>2019-08-17T12:31:20Z</time>
      </trkpt>
      <trkpt lat="42.1868180" lon="-7.7796960">
        <ele>488.0</ele>
        <time>2019-08-17T12:31:21Z</time>
      </trkpt>
      <trkpt lat="42.1868720" lon="-7.7798200">
        <ele>487.5</ele>
        <time>2019-08-17T12:31:22Z</time>
      </trkpt>
      <trkpt lat="42.1869290" lon="-7.7799410">
        <ele>487.0</ele>
        <time>2019-08-17T12:31:23Z</time>
      </trkpt>
      <trkpt lat="42.1869890" lon="-7.7800580">
        <ele>486.4</ele>
        <time>2019-08-17T12:31:24Z</time>
      </trkpt>
      <trkpt lat="42.1870500" lon="-7.7801720">
        <ele>485.9</ele>
        <time>2019-08-17T12:31:25Z</time>
      </trkpt>
      <trkpt lat="42.1871140" lon="-7.7802830">
        <ele>485.4</ele>
        <time>2019-08-17T12:31:26Z</time>
      </trkpt>
      <trkpt lat="42.1871800" lon="-7.7803910">
        <ele>484.9</ele>
        <time>2019-08-17T12:31:27Z</time>
      </trkpt>
      <trkpt lat="42.1872480" lon="-7.7804950">
        <ele>484.4</ele>
        <time>2019-08-17T12:31:28Z</time>
      </trkpt>
      <trkpt lat="42.1873170" lon="-7.7805970">
        <ele>484.0</ele>
        <time>2019-08-17T12:31:29Z</time>
      </trkpt>
      <trkpt lat="42.1873870" lon="-7.7806950">
        <ele>483.6</ele>
        <time>2019-08-17T12:31:30Z</time>
      </trkpt>
      <trkpt lat="42.1874580" lon="-7.7807900">
        <ele>483.3</ele>
        <time>2019-08-17T12:31:31Z</time>
      </trkpt>
      <trkpt lat="42.1875310" lon="-7.7808830">
        <ele>482.8</ele>
        <time>2019-08-17T12:31:32Z</time>
      </trkpt>
      <trkpt lat="42.1876040" lon="-7.7809730">
        <ele>482.5</ele>
        <time>2019-08-17T12:31:33Z</time>
      </trkpt>
      <trkpt lat="42.1876770" lon="-7.7810620">
        <ele>482.1</ele>
        <time>2019-08-17T12:31:34Z</time>
      </trkpt>
      <trkpt lat="42.1877490" lon="-7.7811490">
        <ele>481.8</ele>
        <time>2019-08-17T12:31:35Z</time>
      </trkpt>
      <trkpt lat="42.1878210" lon="-7.7812340">
        <ele>481.4</ele>
        <time>2019-08-17T12:31:36Z</time>
      </trkpt>
      <trkpt lat="42.1878930" lon="-7.7813190">
        <ele>480.9</ele>
        <time>2019-08-17T12:31:37Z</time>
      </trkpt>
      <trkpt lat="42.1879630" lon="-7.7814030">
        <ele>480.5</ele>
        <time>2019-08-17T12:31:38Z</time>
      </trkpt>
      <trkpt lat="42.1880320" lon="-7.7814870">
        <ele>480.2</ele>
        <time>2019-08-17T12:31:39Z</time>
      </trkpt>
      <trkpt lat="42.1880990" lon="-7.7815710">
        <ele>479.9</ele>
        <time>2019-08-17T12:31:40Z</time>
      </trkpt>
      <trkpt lat="42.1881660" lon="-7.7816560">
        <ele>479.5</ele>
        <time>2019-08-17T12:31:41Z</time>
      </trkpt>
      <trkpt lat="42.1882300" lon="-7.7817400">
        <ele>479.1</ele>
        <time>2019-08-17T12:31:42Z</time>
      </trkpt>
      <trkpt lat="42.1882940" lon="-7.7818260">
        <ele>478.9</ele>
        <time>2019-08-17T12:31:43Z</time>
      </trkpt>
      <trkpt lat="42.1883960" lon="-7.7819710">
        <ele>478.5</ele>
        <time>2019-08-17T12:31:44Z</time>
      </trkpt>
      <trkpt lat="42.1884360" lon="-7.7820290">
        <ele>478.3</ele>
        <time>2019-08-17T12:31:45Z</time>
      </trkpt>
      <trkpt lat="42.1884760" lon="-7.7820880">
        <ele>478.1</ele>
        <time>2019-08-17T12:31:46Z</time>
      </trkpt>
      <trkpt lat="42.1885330" lon="-7.7821780">
        <ele>477.6</ele>
        <time>2019-08-17T12:31:47Z</time>
      </trkpt>
      <trkpt lat="42.1885890" lon="-7.7822700">
        <ele>477.3</ele>
        <time>2019-08-17T12:31:48Z</time>
      </trkpt>
      <trkpt lat="42.1886790" lon="-7.7824250">
        <ele>476.8</ele>
        <time>2019-08-17T12:31:49Z</time>
      </trkpt>
      <trkpt lat="42.1887140" lon="-7.7824880">
        <ele>476.5</ele>
        <time>2019-08-17T12:31:50Z</time>
      </trkpt>
      <trkpt lat="42.1887490" lon="-7.7825510">
        <ele>476.3</ele>
        <time>2019-08-17T12:31:51Z</time>
      </trkpt>
      <trkpt lat="42.1887980" lon="-7.7826470">
        <ele>475.9</ele>
        <time>2019-08-17T12:31:52Z</time>
      </trkpt>
      <trkpt lat="42.1888470" lon="-7.7827440">
        <ele>475.6</ele>
        <time>2019-08-17T12:31:53Z</time>
      </trkpt>
      <trkpt lat="42.1888930" lon="-7.7828430">
        <ele>475.2</ele>
        <time>2019-08-17T12:31:54Z</time>
      </trkpt>
      <trkpt lat="42.1889380" lon="-7.7829420">
        <ele>474.9</ele>
        <time>2019-08-17T12:31:55Z</time>
      </trkpt>
      <trkpt lat="42.1889820" lon="-7.7830420">
        <ele>474.5</ele>
        <time>2019-08-17T12:31:56Z</time>
      </trkpt>
      <trkpt lat="42.1890240" lon="-7.7831440">
        <ele>474.2</ele>
        <time>2019-08-17T12:31:57Z</time>
      </trkpt>
      <trkpt lat="42.1890640" lon="-7.7832460">
        <ele>473.8</ele>
        <time>2019-08-17T12:31:58Z</time>
      </trkpt>
      <trkpt lat="42.1891030" lon="-7.7833490">
        <ele>473.6</ele>
        <time>2019-08-17T12:31:59Z</time>
      </trkpt>
      <trkpt lat="42.1891390" lon="-7.7834530">
        <ele>473.2</ele>
        <time>2019-08-17T12:32:00Z</time>
      </trkpt>
      <trkpt lat="42.1891750" lon="-7.7835580">
        <ele>472.9</ele>
        <time>2019-08-17T12:32:01Z</time>
      </trkpt>
      <trkpt lat="42.1892080" lon="-7.7836640">
        <ele>472.5</ele>
        <time>2019-08-17T12:32:02Z</time>
      </trkpt>
      <trkpt lat="42.1892400" lon="-7.7837700">
        <ele>471.9</ele>
        <time>2019-08-17T12:32:03Z</time>
      </trkpt>
      <trkpt lat="42.1892700" lon="-7.7838780">
        <ele>471.4</ele>
        <time>2019-08-17T12:32:04Z</time>
      </trkpt>
      <trkpt lat="42.1892980" lon="-7.7839860">
        <ele>470.7</ele>
        <time>2019-08-17T12:32:05Z</time>
      </trkpt>
      <trkpt lat="42.1893250" lon="-7.7840950">
        <ele>470.0</ele>
        <time>2019-08-17T12:32:06Z</time>
      </trkpt>
      <trkpt lat="42.1893500" lon="-7.7842040">
        <ele>469.3</ele>
        <time>2019-08-17T12:32:07Z</time>
      </trkpt>
      <trkpt lat="42.1893730" lon="-7.7843140">
        <ele>468.6</ele>
        <time>2019-08-17T12:32:08Z</time>
      </trkpt>
      <trkpt lat="42.1893940" lon="-7.7844250">
        <ele>468.0</ele>
        <time>2019-08-17T12:32:09Z</time>
      </trkpt>
      <trkpt lat="42.1894140" lon="-7.7845360">
        <ele>467.5</ele>
        <time>2019-08-17T12:32:10Z</time>
      </trkpt>
      <trkpt lat="42.1894320" lon="-7.7846480">
        <ele>467.0</ele>
        <time>2019-08-17T12:32:11Z</time>
      </trkpt>
      <trkpt lat="42.1894490" lon="-7.7847600">
        <ele>466.6</ele>
        <time>2019-08-17T12:32:12Z</time>
      </trkpt>
      <trkpt lat="42.1894640" lon="-7.7848730">
        <ele>466.1</ele>
        <time>2019-08-17T12:32:13Z</time>
      </trkpt>
      <trkpt lat="42.1894790" lon="-7.7849870">
        <ele>465.7</ele>
        <time>2019-08-17T12:32:14Z</time>
      </trkpt>
      <trkpt lat="42.1894940" lon="-7.7851010">
        <ele>465.2</ele>
        <time>2019-08-17T12:32:15Z</time>
      </trkpt>
      <trkpt lat="42.1895070" lon="-7.7852150">
        <ele>464.7</ele>
        <time>2019-08-17T12:32:16Z</time>
      </trkpt>
      <trkpt lat="42.1895210" lon="-7.7853300">
        <ele>464.3</ele>
        <time>2019-08-17T12:32:17Z</time>
      </trkpt>
      <trkpt lat="42.1895350" lon="-7.7854460">
        <ele>463.9</ele>
        <time>2019-08-17T12:32:18Z</time>
      </trkpt>
      <trkpt lat="42.1895490" lon="-7.7855620">
        <ele>463.5</ele>
        <time>2019-08-17T12:32:19Z</time>
      </trkpt>
      <trkpt lat="42.1895640" lon="-7.7856780">
        <ele>463.1</ele>
        <time>2019-08-17T12:32:20Z</time>
      </trkpt>
      <trkpt lat="42.1895790" lon="-7.7857950">
        <ele>462.7</ele>
        <time>2019-08-17T12:32:21Z</time>
      </trkpt>
      <trkpt lat="42.1895960" lon="-7.7859130">
        <ele>462.3</ele>
        <time>2019-08-17T12:32:22Z</time>
      </trkpt>
      <trkpt lat="42.1896130" lon="-7.7860310">
        <ele>461.9</ele>
        <time>2019-08-17T12:32:23Z</time>
      </trkpt>
      <trkpt lat="42.1896330" lon="-7.7861490">
        <ele>461.5</ele>
        <time>2019-08-17T12:32:24Z</time>
      </trkpt>
      <trkpt lat="42.1896540" lon="-7.7862680">
        <ele>461.1</ele>
        <time>2019-08-17T12:32:25Z</time>
      </trkpt>
      <trkpt lat="42.1896770" lon="-7.7863870">
        <ele>460.7</ele>
        <time>2019-08-17T12:32:26Z</time>
      </trkpt>
      <trkpt lat="42.1897010" lon="-7.7865060">
        <ele>460.2</ele>
        <time>2019-08-17T12:32:27Z</time>
      </trkpt>
      <trkpt lat="42.1897280" lon="-7.7866250">
        <ele>459.6</ele>
        <time>2019-08-17T12:32:28Z</time>
      </trkpt>
      <trkpt lat="42.1897570" lon="-7.7867440">
        <ele>459.0</ele>
        <time>2019-08-17T12:32:29Z</time>
      </trkpt>
      <trkpt lat="42.1897870" lon="-7.7868620">
        <ele>458.5</ele>
        <time>2019-08-17T12:32:30Z</time>
      </trkpt>
      <trkpt lat="42.1898200" lon="-7.7869780">
        <ele>457.9</ele>
        <time>2019-08-17T12:32:31Z</time>
      </trkpt>
      <trkpt lat="42.1898540" lon="-7.7870930">
        <ele>457.4</ele>
        <time>2019-08-17T12:32:32Z</time>
      </trkpt>
      <trkpt lat="42.1898900" lon="-7.7872060">
        <ele>456.8</ele>
        <time>2019-08-17T12:32:33Z</time>
      </trkpt>
      <trkpt lat="42.1899270" lon="-7.7873170">
        <ele>456.3</ele>
        <time>2019-08-17T12:32:34Z</time>
      </trkpt>
      <trkpt lat="42.1899670" lon="-7.7874270">
        <ele>455.7</ele>
        <time>2019-08-17T12:32:35Z</time>
      </trkpt>
      <trkpt lat="42.1900090" lon="-7.7875340">
        <ele>455.2</ele>
        <time>2019-08-17T12:32:36Z</time>
      </trkpt>
      <trkpt lat="42.1900520" lon="-7.7876410">
        <ele>454.6</ele>
        <time>2019-08-17T12:32:37Z</time>
      </trkpt>
      <trkpt lat="42.1900980" lon="-7.7877460">
        <ele>454.1</ele>
        <time>2019-08-17T12:32:38Z</time>
      </trkpt>
      <trkpt lat="42.1901460" lon="-7.7878500">
        <ele>453.5</ele>
        <time>2019-08-17T12:32:39Z</time>
      </trkpt>
      <trkpt lat="42.1901960" lon="-7.7879540">
        <ele>453.0</ele>
        <time>2019-08-17T12:32:40Z</time>
      </trkpt>
      <trkpt lat="42.1902480" lon="-7.7880580">
        <ele>452.4</ele>
        <time>2019-08-17T12:32:41Z</time>
      </trkpt>
      <trkpt lat="42.1903020" lon="-7.7881590">
        <ele>451.9</ele>
        <time>2019-08-17T12:32:42Z</time>
      </trkpt>
      <trkpt lat="42.1903560" lon="-7.7882570">
        <ele>451.4</ele>
        <time>2019-08-17T12:32:43Z</time>
      </trkpt>
      <trkpt lat="42.1904100" lon="-7.7883480">
        <ele>450.9</ele>
        <time>2019-08-17T12:32:44Z</time>
      </trkpt>
      <trkpt lat="42.1904630" lon="-7.7884320">
        <ele>450.4</ele>
        <time>2019-08-17T12:32:45Z</time>
      </trkpt>
      <trkpt lat="42.1905140" lon="-7.7885100">
        <ele>449.9</ele>
        <time>2019-08-17T12:32:46Z</time>
      </trkpt>
      <trkpt lat="42.1905630" lon="-7.7885870">
        <ele>449.3</ele>
        <time>2019-08-17T12:32:47Z</time>
      </trkpt>
      <trkpt lat="42.1906080" lon="-7.7886640">
        <ele>449.0</ele>
        <time>2019-08-17T12:32:48Z</time>
      </trkpt>
      <trkpt lat="42.1906500" lon="-7.7887410">
        <ele>448.6</ele>
        <time>2019-08-17T12:32:49Z</time>
      </trkpt>
      <trkpt lat="42.1906980" lon="-7.7888110">
        <ele>447.6</ele>
        <time>2019-08-17T12:32:50Z</time>
      </trkpt>
      <trkpt lat="42.1907570" lon="-7.7888640">
        <ele>447.3</ele>
        <time>2019-08-17T12:32:51Z</time>
      </trkpt>
      <trkpt lat="42.1908200" lon="-7.7889120">
        <ele>447.0</ele>
        <time>2019-08-17T12:32:52Z</time>
      </trkpt>
      <trkpt lat="42.1908790" lon="-7.7889680">
        <ele>446.5</ele>
        <time>2019-08-17T12:32:53Z</time>
      </trkpt>
      <trkpt lat="42.1909350" lon="-7.7890320">
        <ele>446.2</ele>
        <time>2019-08-17T12:32:54Z</time>
      </trkpt>
      <trkpt lat="42.1909880" lon="-7.7891010">
        <ele>445.8</ele>
        <time>2019-08-17T12:32:55Z</time>
      </trkpt>
      <trkpt lat="42.1910410" lon="-7.7891710">
        <ele>444.5</ele>
        <time>2019-08-17T12:32:56Z</time>
      </trkpt>
      <trkpt lat="42.1910950" lon="-7.7892400">
        <ele>444.0</ele>
        <time>2019-08-17T12:32:57Z</time>
      </trkpt>
      <trkpt lat="42.1911500" lon="-7.7893070">
        <ele>443.5</ele>
        <time>2019-08-17T12:32:58Z</time>
      </trkpt>
      <trkpt lat="42.1912070" lon="-7.7893740">
        <ele>443.1</ele>
        <time>2019-08-17T12:32:59Z</time>
      </trkpt>
      <trkpt lat="42.1912650" lon="-7.7894400">
        <ele>442.6</ele>
        <time>2019-08-17T12:33:00Z</time>
      </trkpt>
      <trkpt lat="42.1913240" lon="-7.7895050">
        <ele>442.1</ele>
        <time>2019-08-17T12:33:01Z</time>
      </trkpt>
      <trkpt lat="42.1913840" lon="-7.7895700">
        <ele>441.7</ele>
        <time>2019-08-17T12:33:02Z</time>
      </trkpt>
      <trkpt lat="42.1914460" lon="-7.7896360">
        <ele>441.2</ele>
        <time>2019-08-17T12:33:03Z</time>
      </trkpt>
      <trkpt lat="42.1915080" lon="-7.7897030">
        <ele>440.8</ele>
        <time>2019-08-17T12:33:04Z</time>
      </trkpt>
      <trkpt lat="42.1915710" lon="-7.7897710">
        <ele>440.5</ele>
        <time>2019-08-17T12:33:05Z</time>
      </trkpt>
      <trkpt lat="42.1916340" lon="-7.7898400">
        <ele>440.0</ele>
        <time>2019-08-17T12:33:06Z</time>
      </trkpt>
      <trkpt lat="42.1916980" lon="-7.7899100">
        <ele>439.8</ele>
        <time>2019-08-17T12:33:07Z</time>
      </trkpt>
      <trkpt lat="42.1917610" lon="-7.7899820">
        <ele>439.6</ele>
        <time>2019-08-17T12:33:08Z</time>
      </trkpt>
      <trkpt lat="42.1918250" lon="-7.7900550">
        <ele>439.3</ele>
        <time>2019-08-17T12:33:09Z</time>
      </trkpt>
      <trkpt lat="42.1918870" lon="-7.7901290">
        <ele>439.0</ele>
        <time>2019-08-17T12:33:10Z</time>
      </trkpt>
      <trkpt lat="42.1919490" lon="-7.7902050">
        <ele>438.7</ele>
        <time>2019-08-17T12:33:11Z</time>
      </trkpt>
      <trkpt lat="42.1920090" lon="-7.7902820">
        <ele>438.3</ele>
        <time>2019-08-17T12:33:12Z</time>
      </trkpt>
      <trkpt lat="42.1920680" lon="-7.7903610">
        <ele>437.9</ele>
        <time>2019-08-17T12:33:13Z</time>
      </trkpt>
      <trkpt lat="42.1921260" lon="-7.7904410">
        <ele>437.5</ele>
        <time>2019-08-17T12:33:14Z</time>
      </trkpt>
      <trkpt lat="42.1921820" lon="-7.7905220">
        <ele>437.2</ele>
        <time>2019-08-17T12:33:15Z</time>
      </trkpt>
      <trkpt lat="42.1922370" lon="-7.7906040">
        <ele>436.9</ele>
        <time>2019-08-17T12:33:16Z</time>
      </trkpt>
      <trkpt lat="42.1922900" lon="-7.7906870">
        <ele>436.8</ele>
        <time>2019-08-17T12:33:17Z</time>
      </trkpt>
      <trkpt lat="42.1923420" lon="-7.7907700">
        <ele>436.8</ele>
        <time>2019-08-17T12:33:18Z</time>
      </trkpt>
      <trkpt lat="42.1923920" lon="-7.7908540">
        <ele>437.0</ele>
        <time>2019-08-17T12:33:19Z</time>
      </trkpt>
      <trkpt lat="42.1924410" lon="-7.7909390">
        <ele>437.3</ele>
        <time>2019-08-17T12:33:20Z</time>
      </trkpt>
      <trkpt lat="42.1924880" lon="-7.7910230">
        <ele>437.4</ele>
        <time>2019-08-17T12:33:21Z</time>
      </trkpt>
      <trkpt lat="42.1925330" lon="-7.7911080">
        <ele>437.5</ele>
        <time>2019-08-17T12:33:22Z</time>
      </trkpt>
      <trkpt lat="42.1925760" lon="-7.7911920">
        <ele>437.6</ele>
        <time>2019-08-17T12:33:23Z</time>
      </trkpt>
      <trkpt lat="42.1926180" lon="-7.7912770">
        <ele>437.8</ele>
        <time>2019-08-17T12:33:24Z</time>
      </trkpt>
      <trkpt lat="42.1926580" lon="-7.7913610">
        <ele>438.0</ele>
        <time>2019-08-17T12:33:25Z</time>
      </trkpt>
      <trkpt lat="42.1926970" lon="-7.7914440">
        <ele>438.1</ele>
        <time>2019-08-17T12:33:26Z</time>
      </trkpt>
      <trkpt lat="42.1927330" lon="-7.7915270">
        <ele>438.2</ele>
        <time>2019-08-17T12:33:27Z</time>
      </trkpt>
      <trkpt lat="42.1927670" lon="-7.7916090">
        <ele>438.4</ele>
        <time>2019-08-17T12:33:28Z</time>
      </trkpt>
      <trkpt lat="42.1928000" lon="-7.7916900">
        <ele>438.5</ele>
        <time>2019-08-17T12:33:29Z</time>
      </trkpt>
      <trkpt lat="42.1928310" lon="-7.7917710">
        <ele>438.7</ele>
        <time>2019-08-17T12:33:30Z</time>
      </trkpt>
      <trkpt lat="42.1928600" lon="-7.7918510">
        <ele>438.9</ele>
        <time>2019-08-17T12:33:31Z</time>
      </trkpt>
      <trkpt lat="42.1928890" lon="-7.7919320">
        <ele>439.0</ele>
        <time>2019-08-17T12:33:32Z</time>
      </trkpt>
      <trkpt lat="42.1929160" lon="-7.7920120">
        <ele>439.2</ele>
        <time>2019-08-17T12:33:33Z</time>
      </trkpt>
      <trkpt lat="42.1929410" lon="-7.7920930">
        <ele>439.3</ele>
        <time>2019-08-17T12:33:34Z</time>
      </trkpt>
      <trkpt lat="42.1929660" lon="-7.7921740">
        <ele>439.5</ele>
        <time>2019-08-17T12:33:35Z</time>
      </trkpt>
      <trkpt lat="42.1929900" lon="-7.7922550">
        <ele>439.7</ele>
        <time>2019-08-17T12:33:36Z</time>
      </trkpt>
      <trkpt lat="42.1930140" lon="-7.7923370">
        <ele>439.8</ele>
        <time>2019-08-17T12:33:37Z</time>
      </trkpt>
      <trkpt lat="42.1930360" lon="-7.7924190">
        <ele>439.9</ele>
        <time>2019-08-17T12:33:38Z</time>
      </trkpt>
      <trkpt lat="42.1930580" lon="-7.7925010">
        <ele>440.0</ele>
        <time>2019-08-17T12:33:39Z</time>
      </trkpt>
      <trkpt lat="42.1930790" lon="-7.7925820">
        <ele>440.2</ele>
        <time>2019-08-17T12:33:40Z</time>
      </trkpt>
      <trkpt lat="42.1930980" lon="-7.7926630">
        <ele>440.3</ele>
        <time>2019-08-17T12:33:41Z</time>
      </trkpt>
      <trkpt lat="42.1931170" lon="-7.7927440">
        <ele>440.4</ele>
        <time>2019-08-17T12:33:42Z</time>
      </trkpt>
      <trkpt lat="42.1931350" lon="-7.7928230">
        <ele>440.5</ele>
        <time>2019-08-17T12:33:43Z</time>
      </trkpt>
      <trkpt lat="42.1931520" lon="-7.7929020">
        <ele>440.6</ele>
        <time>2019-08-17T12:33:44Z</time>
      </trkpt>
      <trkpt lat="42.1931680" lon="-7.7929790">
        <ele>440.7</ele>
        <time>2019-08-17T12:33:45Z</time>
      </trkpt>
      <trkpt lat="42.1931830" lon="-7.7930560">
        <ele>440.8</ele>
        <time>2019-08-17T12:33:46Z</time>
      </trkpt>
      <trkpt lat="42.1931970" lon="-7.7931310">
        <ele>440.9</ele>
        <time>2019-08-17T12:33:47Z</time>
      </trkpt>
      <trkpt lat="42.1932100" lon="-7.7932040">
        <ele>441.0</ele>
        <time>2019-08-17T12:33:48Z</time>
      </trkpt>
      <trkpt lat="42.1932220" lon="-7.7932770">
        <ele>441.1</ele>
        <time>2019-08-17T12:33:49Z</time>
      </trkpt>
      <trkpt lat="42.1932350" lon="-7.7933500">
        <ele>441.2</ele>
        <time>2019-08-17T12:33:50Z</time>
      </trkpt>
      <trkpt lat="42.1932470" lon="-7.7934220">
        <ele>441.3</ele>
        <time>2019-08-17T12:33:51Z</time>
      </trkpt>
      <trkpt lat="42.1932600" lon="-7.7934930">
        <ele>441.5</ele>
        <time>2019-08-17T12:33:52Z</time>
      </trkpt>
      <trkpt lat="42.1932730" lon="-7.7935650">
        <ele>441.6</ele>
        <time>2019-08-17T12:33:53Z</time>
      </trkpt>
      <trkpt lat="42.1932860" lon="-7.7936360">
        <ele>441.7</ele>
        <time>2019-08-17T12:33:54Z</time>
      </trkpt>
      <trkpt lat="42.1933000" lon="-7.7937070">
        <ele>441.8</ele>
        <time>2019-08-17T12:33:55Z</time>
      </trkpt>
      <trkpt lat="42.1933130" lon="-7.7937790">
        <ele>442.0</ele>
        <time>2019-08-17T12:33:56Z</time>
      </trkpt>
      <trkpt lat="42.1933260" lon="-7.7938500">
        <ele>442.1</ele>
        <time>2019-08-17T12:33:57Z</time>
      </trkpt>
      <trkpt lat="42.1933390" lon="-7.7939210">
        <ele>442.2</ele>
        <time>2019-08-17T12:33:58Z</time>
      </trkpt>
      <trkpt lat="42.1933520" lon="-7.7939930">
        <ele>442.4</ele>
        <time>2019-08-17T12:33:59Z</time>
      </trkpt>
      <trkpt lat="42.1933650" lon="-7.7940650">
        <ele>442.5</ele>
        <time>2019-08-17T12:34:00Z</time>
      </trkpt>
      <trkpt lat="42.1933780" lon="-7.7941370">
        <ele>442.7</ele>
        <time>2019-08-17T12:34:01Z</time>
      </trkpt>
      <trkpt lat="42.1933910" lon="-7.7942090">
        <ele>442.9</ele>
        <time>2019-08-17T12:34:02Z</time>
      </trkpt>
      <trkpt lat="42.1934040" lon="-7.7942810">
        <ele>442.9</ele>
        <time>2019-08-17T12:34:03Z</time>
      </trkpt>
      <trkpt lat="42.1934170" lon="-7.7943530">
        <ele>442.8</ele>
        <time>2019-08-17T12:34:04Z</time>
      </trkpt>
      <trkpt lat="42.1934300" lon="-7.7944250">
        <ele>442.8</ele>
        <time>2019-08-17T12:34:05Z</time>
      </trkpt>
      <trkpt lat="42.1934440" lon="-7.7944980">
        <ele>442.7</ele>
        <time>2019-08-17T12:34:06Z</time>
      </trkpt>
      <trkpt lat="42.1934570" lon="-7.7945700">
        <ele>442.7</ele>
        <time>2019-08-17T12:34:07Z</time>
      </trkpt>
      <trkpt lat="42.1934710" lon="-7.7946410">
        <ele>442.5</ele>
        <time>2019-08-17T12:34:08Z</time>
      </trkpt>
      <trkpt lat="42.1934850" lon="-7.7947130">
        <ele>442.4</ele>
        <time>2019-08-17T12:34:09Z</time>
      </trkpt>
      <trkpt lat="42.1934990" lon="-7.7947850">
        <ele>442.3</ele>
        <time>2019-08-17T12:34:10Z</time>
      </trkpt>
      <trkpt lat="42.1935130" lon="-7.7948560">
        <ele>442.1</ele>
        <time>2019-08-17T12:34:11Z</time>
      </trkpt>
      <trkpt lat="42.1935280" lon="-7.7949270">
        <ele>442.0</ele>
        <time>2019-08-17T12:34:12Z</time>
      </trkpt>
      <trkpt lat="42.1935430" lon="-7.7949970">
        <ele>441.8</ele>
        <time>2019-08-17T12:34:13Z</time>
      </trkpt>
      <trkpt lat="42.1935580" lon="-7.7950680">
        <ele>441.7</ele>
        <time>2019-08-17T12:34:14Z</time>
      </trkpt>
      <trkpt lat="42.1935740" lon="-7.7951370">
        <ele>441.5</ele>
        <time>2019-08-17T12:34:15Z</time>
      </trkpt>
      <trkpt lat="42.1935910" lon="-7.7952070">
        <ele>441.4</ele>
        <time>2019-08-17T12:34:16Z</time>
      </trkpt>
      <trkpt lat="42.1936070" lon="-7.7952760">
        <ele>441.3</ele>
        <time>2019-08-17T12:34:17Z</time>
      </trkpt>
      <trkpt lat="42.1936240" lon="-7.7953440">
        <ele>441.2</ele>
        <time>2019-08-17T12:34:18Z</time>
      </trkpt>
      <trkpt lat="42.1936420" lon="-7.7954110">
        <ele>441.2</ele>
        <time>2019-08-17T12:34:19Z</time>
      </trkpt>
      <trkpt lat="42.1936600" lon="-7.7954780">
        <ele>441.2</ele>
        <time>2019-08-17T12:34:20Z</time>
      </trkpt>
      <trkpt lat="42.1936780" lon="-7.7955440">
        <ele>441.2</ele>
        <time>2019-08-17T12:34:21Z</time>
      </trkpt>
      <trkpt lat="42.1936970" lon="-7.7956090">
        <ele>441.2</ele>
        <time>2019-08-17T12:34:22Z</time>
      </trkpt>
      <trkpt lat="42.1937170" lon="-7.7956730">
        <ele>441.2</ele>
        <time>2019-08-17T12:34:23Z</time>
      </trkpt>
      <trkpt lat="42.1937370" lon="-7.7957370">
        <ele>441.3</ele>
        <time>2019-08-17T12:34:24Z</time>
      </trkpt>
      <trkpt lat="42.1937570" lon="-7.7958000">
        <ele>441.3</ele>
        <time>2019-08-17T12:34:25Z</time>
      </trkpt>
      <trkpt lat="42.1937790" lon="-7.7958630">
        <ele>441.4</ele>
        <time>2019-08-17T12:34:26Z</time>
      </trkpt>
      <trkpt lat="42.1938000" lon="-7.7959250">
        <ele>441.5</ele>
        <time>2019-08-17T12:34:27Z</time>
      </trkpt>
      <trkpt lat="42.1938230" lon="-7.7959870">
        <ele>441.6</ele>
        <time>2019-08-17T12:34:28Z</time>
      </trkpt>
      <trkpt lat="42.1938460" lon="-7.7960490">
        <ele>441.7</ele>
        <time>2019-08-17T12:34:29Z</time>
      </trkpt>
      <trkpt lat="42.1938690" lon="-7.7961110">
        <ele>441.8</ele>
        <time>2019-08-17T12:34:30Z</time>
      </trkpt>
      <trkpt lat="42.1938940" lon="-7.7961730">
        <ele>442.0</ele>
        <time>2019-08-17T12:34:31Z</time>
      </trkpt>
      <trkpt lat="42.1939180" lon="-7.7962340">
        <ele>442.1</ele>
        <time>2019-08-17T12:34:32Z</time>
      </trkpt>
      <trkpt lat="42.1939420" lon="-7.7962940">
        <ele>442.2</ele>
        <time>2019-08-17T12:34:33Z</time>
      </trkpt>
      <trkpt lat="42.1939660" lon="-7.7963530">
        <ele>442.3</ele>
        <time>2019-08-17T12:34:34Z</time>
      </trkpt>
      <trkpt lat="42.1939910" lon="-7.7964110">
        <ele>442.4</ele>
        <time>2019-08-17T12:34:35Z</time>
      </trkpt>
      <trkpt lat="42.1940150" lon="-7.7964680">
        <ele>442.5</ele>
        <time>2019-08-17T12:34:36Z</time>
      </trkpt>
      <trkpt lat="42.1940400" lon="-7.7965240">
        <ele>442.6</ele>
        <time>2019-08-17T12:34:37Z</time>
      </trkpt>
      <trkpt lat="42.1940650" lon="-7.7965800">
        <ele>442.6</ele>
        <time>2019-08-17T12:34:38Z</time>
      </trkpt>
      <trkpt lat="42.1940910" lon="-7.7966350">
        <ele>442.7</ele>
        <time>2019-08-17T12:34:39Z</time>
      </trkpt>
      <trkpt lat="42.1941170" lon="-7.7966900">
        <ele>442.8</ele>
        <time>2019-08-17T12:34:40Z</time>
      </trkpt>
      <trkpt lat="42.1941450" lon="-7.7967450">
        <ele>442.9</ele>
        <time>2019-08-17T12:34:41Z</time>
      </trkpt>
      <trkpt lat="42.1941730" lon="-7.7968000">
        <ele>443.0</ele>
        <time>2019-08-17T12:34:42Z</time>
      </trkpt>
      <trkpt lat="42.1942010" lon="-7.7968550">
        <ele>443.1</ele>
        <time>2019-08-17T12:34:43Z</time>
      </trkpt>
      <trkpt lat="42.1942300" lon="-7.7969100">
        <ele>443.2</ele>
        <time>2019-08-17T12:34:44Z</time>
      </trkpt>
      <trkpt lat="42.1942600" lon="-7.7969660">
        <ele>443.3</ele>
        <time>2019-08-17T12:34:45Z</time>
      </trkpt>
      <trkpt lat="42.1942900" lon="-7.7970220">
        <ele>443.4</ele>
        <time>2019-08-17T12:34:46Z</time>
      </trkpt>
      <trkpt lat="42.1943210" lon="-7.7970780">
        <ele>443.5</ele>
        <time>2019-08-17T12:34:47Z</time>
      </trkpt>
      <trkpt lat="42.1943530" lon="-7.7971340">
        <ele>443.6</ele>
        <time>2019-08-17T12:34:48Z</time>
      </trkpt>
      <trkpt lat="42.1943850" lon="-7.7971900">
        <ele>443.7</ele>
        <time>2019-08-17T12:34:49Z</time>
      </trkpt>
      <trkpt lat="42.1944180" lon="-7.7972470">
        <ele>443.8</ele>
        <time>2019-08-17T12:34:50Z</time>
      </trkpt>
      <trkpt lat="42.1944520" lon="-7.7973030">
        <ele>443.9</ele>
        <time>2019-08-17T12:34:51Z</time>
      </trkpt>
      <trkpt lat="42.1944860" lon="-7.7973590">
        <ele>444.0</ele>
        <time>2019-08-17T12:34:52Z</time>
      </trkpt>
      <trkpt lat="42.1945210" lon="-7.7974140">
        <ele>444.1</ele>
        <time>2019-08-17T12:34:53Z</time>
      </trkpt>
      <trkpt lat="42.1945560" lon="-7.7974690">
        <ele>444.2</ele>
        <time>2019-08-17T12:34:54Z</time>
      </trkpt>
      <trkpt lat="42.1945920" lon="-7.7975230">
        <ele>444.3</ele>
        <time>2019-08-17T12:34:55Z</time>
      </trkpt>
      <trkpt lat="42.1946280" lon="-7.7975770">
        <ele>444.4</ele>
        <time>2019-08-17T12:34:56Z</time>
      </trkpt>
      <trkpt lat="42.1946650" lon="-7.7976300">
        <ele>444.5</ele>
        <time>2019-08-17T12:34:57Z</time>
      </trkpt>
      <trkpt lat="42.1947020" lon="-7.7976820">
        <ele>444.5</ele>
        <time>2019-08-17T12:34:58Z</time>
      </trkpt>
      <trkpt lat="42.1947400" lon="-7.7977330">
        <ele>444.6</ele>
        <time>2019-08-17T12:34:59Z</time>
      </trkpt>
      <trkpt lat="42.1947790" lon="-7.7977830">
        <ele>444.7</ele>
        <time>2019-08-17T12:35:00Z</time>
      </trkpt>
      <trkpt lat="42.1948170" lon="-7.7978320">
        <ele>444.8</ele>
        <time>2019-08-17T12:35:01Z</time>
      </trkpt>
      <trkpt lat="42.1948570" lon="-7.7978800">
        <ele>444.9</ele>
        <time>2019-08-17T12:35:02Z</time>
      </trkpt>
      <trkpt lat="42.1948960" lon="-7.7979270">
        <ele>445.0</ele>
        <time>2019-08-17T12:35:03Z</time>
      </trkpt>
      <trkpt lat="42.1949360" lon="-7.7979720">
        <ele>445.1</ele>
        <time>2019-08-17T12:35:04Z</time>
      </trkpt>
      <trkpt lat="42.1949760" lon="-7.7980180">
        <ele>445.1</ele>
        <time>2019-08-17T12:35:05Z</time>
      </trkpt>
      <trkpt lat="42.1950160" lon="-7.7980620">
        <ele>445.2</ele>
        <time>2019-08-17T12:35:06Z</time>
      </trkpt>
      <trkpt lat="42.1950560" lon="-7.7981060">
        <ele>445.3</ele>
        <time>2019-08-17T12:35:07Z</time>
      </trkpt>
      <trkpt lat="42.1950960" lon="-7.7981490">
        <ele>445.4</ele>
        <time>2019-08-17T12:35:08Z</time>
      </trkpt>
      <trkpt lat="42.1951350" lon="-7.7981920">
        <ele>445.5</ele>
        <time>2019-08-17T12:35:09Z</time>
      </trkpt>
      <trkpt lat="42.1951750" lon="-7.7982350">
        <ele>445.6</ele>
        <time>2019-08-17T12:35:10Z</time>
      </trkpt>
      <trkpt lat="42.1952140" lon="-7.7982770">
        <ele>445.7</ele>
        <time>2019-08-17T12:35:11Z</time>
      </trkpt>
      <trkpt lat="42.1952530" lon="-7.7983190">
        <ele>445.8</ele>
        <time>2019-08-17T12:35:12Z</time>
      </trkpt>
      <trkpt lat="42.1952930" lon="-7.7983610">
        <ele>445.9</ele>
        <time>2019-08-17T12:35:13Z</time>
      </trkpt>
      <trkpt lat="42.1953330" lon="-7.7984020">
        <ele>446.0</ele>
        <time>2019-08-17T12:35:14Z</time>
      </trkpt>
      <trkpt lat="42.1953730" lon="-7.7984420">
        <ele>446.1</ele>
        <time>2019-08-17T12:35:15Z</time>
      </trkpt>
      <trkpt lat="42.1954140" lon="-7.7984820">
        <ele>446.2</ele>
        <time>2019-08-17T12:35:16Z</time>
      </trkpt>
      <trkpt lat="42.1954550" lon="-7.7985210">
        <ele>446.4</ele>
        <time>2019-08-17T12:35:17Z</time>
      </trkpt>
      <trkpt lat="42.1954970" lon="-7.7985600">
        <ele>446.5</ele>
        <time>2019-08-17T12:35:18Z</time>
      </trkpt>
      <trkpt lat="42.1955390" lon="-7.7985990">
        <ele>446.6</ele>
        <time>2019-08-17T12:35:19Z</time>
      </trkpt>
      <trkpt lat="42.1955820" lon="-7.7986370">
        <ele>446.7</ele>
        <time>2019-08-17T12:35:20Z</time>
      </trkpt>
      <trkpt lat="42.1956240" lon="-7.7986740">
        <ele>446.9</ele>
        <time>2019-08-17T12:35:21Z</time>
      </trkpt>
      <trkpt lat="42.1956660" lon="-7.7987110">
        <ele>447.0</ele>
        <time>2019-08-17T12:35:22Z</time>
      </trkpt>
      <trkpt lat="42.1957090" lon="-7.7987480">
        <ele>447.1</ele>
        <time>2019-08-17T12:35:23Z</time>
      </trkpt>
      <trkpt lat="42.1957510" lon="-7.7987840">
        <ele>447.2</ele>
        <time>2019-08-17T12:35:24Z</time>
      </trkpt>
      <trkpt lat="42.1957920" lon="-7.7988190">
        <ele>447.4</ele>
        <time>2019-08-17T12:35:25Z</time>
      </trkpt>
      <trkpt lat="42.1958340" lon="-7.7988540">
        <ele>447.5</ele>
        <time>2019-08-17T12:35:26Z</time>
      </trkpt>
      <trkpt lat="42.1958740" lon="-7.7988880">
        <ele>447.6</ele>
        <time>2019-08-17T12:35:27Z</time>
      </trkpt>
      <trkpt lat="42.1959150" lon="-7.7989220">
        <ele>447.8</ele>
        <time>2019-08-17T12:35:28Z</time>
      </trkpt>
      <trkpt lat="42.1959540" lon="-7.7989550">
        <ele>447.9</ele>
        <time>2019-08-17T12:35:29Z</time>
      </trkpt>
      <trkpt lat="42.1959930" lon="-7.7989870">
        <ele>448.1</ele>
        <time>2019-08-17T12:35:30Z</time>
      </trkpt>
      <trkpt lat="42.1960310" lon="-7.7990190">
        <ele>448.2</ele>
        <time>2019-08-17T12:35:31Z</time>
      </trkpt>
      <trkpt lat="42.1960680" lon="-7.7990500">
        <ele>448.4</ele>
        <time>2019-08-17T12:35:32Z</time>
      </trkpt>
      <trkpt lat="42.1961040" lon="-7.7990810">
        <ele>448.5</ele>
        <time>2019-08-17T12:35:33Z</time>
      </trkpt>
      <trkpt lat="42.1961410" lon="-7.7991090">
        <ele>448.7</ele>
        <time>2019-08-17T12:35:34Z</time>
      </trkpt>
      <trkpt lat="42.1961770" lon="-7.7991360">
        <ele>448.9</ele>
        <time>2019-08-17T12:35:35Z</time>
      </trkpt>
      <trkpt lat="42.1962150" lon="-7.7991600">
        <ele>449.1</ele>
        <time>2019-08-17T12:35:36Z</time>
      </trkpt>
      <trkpt lat="42.1962530" lon="-7.7991840">
        <ele>449.2</ele>
        <time>2019-08-17T12:35:37Z</time>
      </trkpt>
      <trkpt lat="42.1962900" lon="-7.7992070">
        <ele>449.4</ele>
        <time>2019-08-17T12:35:38Z</time>
      </trkpt>
      <trkpt lat="42.1963260" lon="-7.7992310">
        <ele>449.6</ele>
        <time>2019-08-17T12:35:39Z</time>
      </trkpt>
      <trkpt lat="42.1963600" lon="-7.7992580">
        <ele>449.8</ele>
        <time>2019-08-17T12:35:40Z</time>
      </trkpt>
      <trkpt lat="42.1963930" lon="-7.7992860">
        <ele>449.9</ele>
        <time>2019-08-17T12:35:41Z</time>
      </trkpt>
      <trkpt lat="42.1964260" lon="-7.7993170">
        <ele>450.1</ele>
        <time>2019-08-17T12:35:42Z</time>
      </trkpt>
      <trkpt lat="42.1964600" lon="-7.7993480">
        <ele>450.3</ele>
        <time>2019-08-17T12:35:43Z</time>
      </trkpt>
      <trkpt lat="42.1964970" lon="-7.7993810">
        <ele>450.5</ele>
        <time>2019-08-17T12:35:44Z</time>
      </trkpt>
      <trkpt lat="42.1965350" lon="-7.7994150">
        <ele>450.7</ele>
        <time>2019-08-17T12:35:45Z</time>
      </trkpt>
      <trkpt lat="42.1965740" lon="-7.7994520">
        <ele>450.9</ele>
        <time>2019-08-17T12:35:46Z</time>
      </trkpt>
      <trkpt lat="42.1966140" lon="-7.7994910">
        <ele>451.1</ele>
        <time>2019-08-17T12:35:47Z</time>
      </trkpt>
      <trkpt lat="42.1966560" lon="-7.7995320">
        <ele>451.3</ele>
        <time>2019-08-17T12:35:48Z</time>
      </trkpt>
      <trkpt lat="42.1967190" lon="-7.7995950">
        <ele>451.0</ele>
        <time>2019-08-17T12:35:49Z</time>
      </trkpt>
      <trkpt lat="42.1967400" lon="-7.7996160">
        <ele>450.7</ele>
        <time>2019-08-17T12:35:50Z</time>
      </trkpt>
      <trkpt lat="42.1967840" lon="-7.7996570">
        <ele>450.2</ele>
        <time>2019-08-17T12:35:51Z</time>
      </trkpt>
      <trkpt lat="42.1968270" lon="-7.7996970">
        <ele>449.8</ele>
        <time>2019-08-17T12:35:52Z</time>
      </trkpt>
      <trkpt lat="42.1968690" lon="-7.7997370">
        <ele>449.4</ele>
        <time>2019-08-17T12:35:53Z</time>
      </trkpt>
      <trkpt lat="42.1969080" lon="-7.7997790">
        <ele>449.0</ele>
        <time>2019-08-17T12:35:54Z</time>
      </trkpt>
      <trkpt lat="42.1969450" lon="-7.7998210">
        <ele>448.5</ele>
        <time>2019-08-17T12:35:55Z</time>
      </trkpt>
      <trkpt lat="42.1969800" lon="-7.7998650">
        <ele>448.1</ele>
        <time>2019-08-17T12:35:56Z</time>
      </trkpt>
      <trkpt lat="42.1970140" lon="-7.7999100">
        <ele>447.8</ele>
        <time>2019-08-17T12:35:57Z</time>
      </trkpt>
      <trkpt lat="42.1970490" lon="-7.7999550">
        <ele>447.4</ele>
        <time>2019-08-17T12:35:58Z</time>
      </trkpt>
      <trkpt lat="42.1970860" lon="-7.7999990">
        <ele>446.9</ele>
        <time>2019-08-17T12:35:59Z</time>
      </trkpt>
      <trkpt lat="42.1971250" lon="-7.8000440">
        <ele>446.4</ele>
        <time>2019-08-17T12:36:00Z</time>
      </trkpt>
      <trkpt lat="42.1971640" lon="-7.8000900">
        <ele>446.0</ele>
        <time>2019-08-17T12:36:01Z</time>
      </trkpt>
      <trkpt lat="42.1972040" lon="-7.8001360">
        <ele>445.6</ele>
        <time>2019-08-17T12:36:02Z</time>
      </trkpt>
      <trkpt lat="42.1972440" lon="-7.8001820">
        <ele>445.0</ele>
        <time>2019-08-17T12:36:03Z</time>
      </trkpt>
      <trkpt lat="42.1972830" lon="-7.8002300">
        <ele>444.4</ele>
        <time>2019-08-17T12:36:04Z</time>
      </trkpt>
      <trkpt lat="42.1973220" lon="-7.8002770">
        <ele>444.4</ele>
        <time>2019-08-17T12:36:05Z</time>
      </trkpt>
      <trkpt lat="42.1973600" lon="-7.8003260">
        <ele>443.9</ele>
        <time>2019-08-17T12:36:06Z</time>
      </trkpt>
      <trkpt lat="42.1973980" lon="-7.8003740">
        <ele>443.7</ele>
        <time>2019-08-17T12:36:07Z</time>
      </trkpt>
      <trkpt lat="42.1974350" lon="-7.8004230">
        <ele>443.4</ele>
        <time>2019-08-17T12:36:08Z</time>
      </trkpt>
      <trkpt lat="42.1974720" lon="-7.8004730">
        <ele>443.1</ele>
        <time>2019-08-17T12:36:09Z</time>
      </trkpt>
      <trkpt lat="42.1975090" lon="-7.8005220">
        <ele>443.0</ele>
        <time>2019-08-17T12:36:10Z</time>
      </trkpt>
      <trkpt lat="42.1975440" lon="-7.8005720">
        <ele>443.0</ele>
        <time>2019-08-17T12:36:11Z</time>
      </trkpt>
      <trkpt lat="42.1975800" lon="-7.8006210">
        <ele>442.9</ele>
        <time>2019-08-17T12:36:12Z</time>
      </trkpt>
      <trkpt lat="42.1976150" lon="-7.8006710">
        <ele>442.9</ele>
        <time>2019-08-17T12:36:13Z</time>
      </trkpt>
      <trkpt lat="42.1976490" lon="-7.8007200">
        <ele>443.0</ele>
        <time>2019-08-17T12:36:14Z</time>
      </trkpt>
      <trkpt lat="42.1976830" lon="-7.8007690">
        <ele>443.0</ele>
        <time>2019-08-17T12:36:15Z</time>
      </trkpt>
      <trkpt lat="42.1977160" lon="-7.8008180">
        <ele>443.1</ele>
        <time>2019-08-17T12:36:16Z</time>
      </trkpt>
      <trkpt lat="42.1977480" lon="-7.8008660">
        <ele>443.2</ele>
        <time>2019-08-17T12:36:17Z</time>
      </trkpt>
      <trkpt lat="42.1977810" lon="-7.8009140">
        <ele>443.3</ele>
        <time>2019-08-17T12:36:18Z</time>
      </trkpt>
      <trkpt lat="42.1978120" lon="-7.8009610">
        <ele>443.5</ele>
        <time>2019-08-17T12:36:19Z</time>
      </trkpt>
      <trkpt lat="42.1978430" lon="-7.8010080">
        <ele>443.8</ele>
        <time>2019-08-17T12:36:20Z</time>
      </trkpt>
      <trkpt lat="42.1978730" lon="-7.8010540">
        <ele>444.0</ele>
        <time>2019-08-17T12:36:21Z</time>
      </trkpt>
      <trkpt lat="42.1979030" lon="-7.8011010">
        <ele>444.2</ele>
        <time>2019-08-17T12:36:22Z</time>
      </trkpt>
      <trkpt lat="42.1979320" lon="-7.8011470">
        <ele>444.5</ele>
        <time>2019-08-17T12:36:23Z</time>
      </trkpt>
      <trkpt lat="42.1979610" lon="-7.8011940">
        <ele>444.7</ele>
        <time>2019-08-17T12:36:24Z</time>
      </trkpt>
      <trkpt lat="42.1979890" lon="-7.8012410">
        <ele>444.9</ele>
        <time>2019-08-17T12:36:25Z</time>
      </trkpt>
      <trkpt lat="42.1980170" lon="-7.8012880">
        <ele>445.1</ele>
        <time>2019-08-17T12:36:26Z</time>
      </trkpt>
      <trkpt lat="42.1980440" lon="-7.8013360">
        <ele>445.3</ele>
        <time>2019-08-17T12:36:27Z</time>
      </trkpt>
      <trkpt lat="42.1980710" lon="-7.8013840">
        <ele>445.5</ele>
        <time>2019-08-17T12:36:28Z</time>
      </trkpt>
      <trkpt lat="42.1980980" lon="-7.8014330">
        <ele>445.8</ele>
        <time>2019-08-17T12:36:29Z</time>
      </trkpt>
      <trkpt lat="42.1981250" lon="-7.8014810">
        <ele>446.0</ele>
        <time>2019-08-17T12:36:30Z</time>
      </trkpt>
      <trkpt lat="42.1981510" lon="-7.8015290">
        <ele>446.2</ele>
        <time>2019-08-17T12:36:31Z</time>
      </trkpt>
      <trkpt lat="42.1981770" lon="-7.8015770">
        <ele>446.5</ele>
        <time>2019-08-17T12:36:32Z</time>
      </trkpt>
      <trkpt lat="42.1982030" lon="-7.8016240">
        <ele>446.8</ele>
        <time>2019-08-17T12:36:33Z</time>
      </trkpt>
      <trkpt lat="42.1982290" lon="-7.8016700">
        <ele>447.5</ele>
        <time>2019-08-17T12:36:34Z</time>
      </trkpt>
      <trkpt lat="42.1982540" lon="-7.8017140">
        <ele>447.7</ele>
        <time>2019-08-17T12:36:35Z</time>
      </trkpt>
      <trkpt lat="42.1982800" lon="-7.8017580">
        <ele>447.9</ele>
        <time>2019-08-17T12:36:36Z</time>
      </trkpt>
      <trkpt lat="42.1983050" lon="-7.8018010">
        <ele>448.1</ele>
        <time>2019-08-17T12:36:37Z</time>
      </trkpt>
      <trkpt lat="42.1983290" lon="-7.8018430">
        <ele>448.3</ele>
        <time>2019-08-17T12:36:38Z</time>
      </trkpt>
      <trkpt lat="42.1983530" lon="-7.8018850">
        <ele>448.5</ele>
        <time>2019-08-17T12:36:39Z</time>
      </trkpt>
      <trkpt lat="42.1983770" lon="-7.8019270">
        <ele>448.7</ele>
        <time>2019-08-17T12:36:40Z</time>
      </trkpt>
      <trkpt lat="42.1983990" lon="-7.8019690">
        <ele>448.9</ele>
        <time>2019-08-17T12:36:41Z</time>
      </trkpt>
      <trkpt lat="42.1984200" lon="-7.8020110">
        <ele>449.0</ele>
        <time>2019-08-17T12:36:42Z</time>
      </trkpt>
      <trkpt lat="42.1984400" lon="-7.8020530">
        <ele>449.2</ele>
        <time>2019-08-17T12:36:43Z</time>
      </trkpt>
      <trkpt lat="42.1984590" lon="-7.8020960">
        <ele>449.4</ele>
        <time>2019-08-17T12:36:44Z</time>
      </trkpt>
      <trkpt lat="42.1984770" lon="-7.8021380">
        <ele>449.6</ele>
        <time>2019-08-17T12:36:45Z</time>
      </trkpt>
      <trkpt lat="42.1984950" lon="-7.8021810">
        <ele>449.8</ele>
        <time>2019-08-17T12:36:46Z</time>
      </trkpt>
      <trkpt lat="42.1985120" lon="-7.8022240">
        <ele>449.9</ele>
        <time>2019-08-17T12:36:47Z</time>
      </trkpt>
      <trkpt lat="42.1985290" lon="-7.8022670">
        <ele>450.1</ele>
        <time>2019-08-17T12:36:48Z</time>
      </trkpt>
      <trkpt lat="42.1985460" lon="-7.8023100">
        <ele>450.3</ele>
        <time>2019-08-17T12:36:49Z</time>
      </trkpt>
      <trkpt lat="42.1985630" lon="-7.8023530">
        <ele>450.5</ele>
        <time>2019-08-17T12:36:50Z</time>
      </trkpt>
      <trkpt lat="42.1985810" lon="-7.8023950">
        <ele>450.7</ele>
        <time>2019-08-17T12:36:51Z</time>
      </trkpt>
      <trkpt lat="42.1985980" lon="-7.8024370">
        <ele>450.9</ele>
        <time>2019-08-17T12:36:52Z</time>
      </trkpt>
      <trkpt lat="42.1986160" lon="-7.8024790">
        <ele>451.0</ele>
        <time>2019-08-17T12:36:53Z</time>
      </trkpt>
      <trkpt lat="42.1986340" lon="-7.8025220">
        <ele>451.3</ele>
        <time>2019-08-17T12:36:54Z</time>
      </trkpt>
      <trkpt lat="42.1986520" lon="-7.8025640">
        <ele>451.5</ele>
        <time>2019-08-17T12:36:55Z</time>
      </trkpt>
      <trkpt lat="42.1986700" lon="-7.8026060">
        <ele>451.7</ele>
        <time>2019-08-17T12:36:56Z</time>
      </trkpt>
      <trkpt lat="42.1986890" lon="-7.8026490">
        <ele>451.9</ele>
        <time>2019-08-17T12:36:57Z</time>
      </trkpt>
      <trkpt lat="42.1987070" lon="-7.8026920">
        <ele>452.1</ele>
        <time>2019-08-17T12:36:58Z</time>
      </trkpt>
      <trkpt lat="42.1987260" lon="-7.8027350">
        <ele>452.4</ele>
        <time>2019-08-17T12:36:59Z</time>
      </trkpt>
      <trkpt lat="42.1987450" lon="-7.8027780">
        <ele>452.6</ele>
        <time>2019-08-17T12:37:00Z</time>
      </trkpt>
      <trkpt lat="42.1987640" lon="-7.8028220">
        <ele>452.9</ele>
        <time>2019-08-17T12:37:01Z</time>
      </trkpt>
      <trkpt lat="42.1987840" lon="-7.8028670">
        <ele>453.2</ele>
        <time>2019-08-17T12:37:02Z</time>
      </trkpt>
      <trkpt lat="42.1988030" lon="-7.8029110">
        <ele>453.5</ele>
        <time>2019-08-17T12:37:03Z</time>
      </trkpt>
      <trkpt lat="42.1988230" lon="-7.8029570">
        <ele>453.8</ele>
        <time>2019-08-17T12:37:04Z</time>
      </trkpt>
      <trkpt lat="42.1988430" lon="-7.8030030">
        <ele>454.1</ele>
        <time>2019-08-17T12:37:05Z</time>
      </trkpt>
      <trkpt lat="42.1988640" lon="-7.8030500">
        <ele>454.4</ele>
        <time>2019-08-17T12:37:06Z</time>
      </trkpt>
      <trkpt lat="42.1988840" lon="-7.8030970">
        <ele>454.7</ele>
        <time>2019-08-17T12:37:07Z</time>
      </trkpt>
      <trkpt lat="42.1989040" lon="-7.8031450">
        <ele>455.0</ele>
        <time>2019-08-17T12:37:08Z</time>
      </trkpt>
      <trkpt lat="42.1989240" lon="-7.8031920">
        <ele>455.3</ele>
        <time>2019-08-17T12:37:09Z</time>
      </trkpt>
      <trkpt lat="42.1989440" lon="-7.8032400">
        <ele>455.6</ele>
        <time>2019-08-17T12:37:10Z</time>
      </trkpt>
      <trkpt lat="42.1989640" lon="-7.8032870">
        <ele>455.8</ele>
        <time>2019-08-17T12:37:11Z</time>
      </trkpt>
      <trkpt lat="42.1989840" lon="-7.8033340">
        <ele>456.1</ele>
        <time>2019-08-17T12:37:12Z</time>
      </trkpt>
      <trkpt lat="42.1990030" lon="-7.8033800">
        <ele>456.4</ele>
        <time>2019-08-17T12:37:13Z</time>
      </trkpt>
      <trkpt lat="42.1990210" lon="-7.8034250">
        <ele>456.7</ele>
        <time>2019-08-17T12:37:14Z</time>
      </trkpt>
      <trkpt lat="42.1990390" lon="-7.8034700">
        <ele>456.9</ele>
        <time>2019-08-17T12:37:15Z</time>
      </trkpt>
      <trkpt lat="42.1990570" lon="-7.8035130">
        <ele>457.2</ele>
        <time>2019-08-17T12:37:16Z</time>
      </trkpt>
      <trkpt lat="42.1990750" lon="-7.8035550">
        <ele>457.4</ele>
        <time>2019-08-17T12:37:17Z</time>
      </trkpt>
      <trkpt lat="42.1990920" lon="-7.8035960">
        <ele>457.6</ele>
        <time>2019-08-17T12:37:18Z</time>
      </trkpt>
      <trkpt lat="42.1991090" lon="-7.8036350">
        <ele>457.9</ele>
        <time>2019-08-17T12:37:19Z</time>
      </trkpt>
      <trkpt lat="42.1991260" lon="-7.8036740">
        <ele>458.1</ele>
        <time>2019-08-17T12:37:20Z</time>
      </trkpt>
      <trkpt lat="42.1991430" lon="-7.8037100">
        <ele>458.3</ele>
        <time>2019-08-17T12:37:21Z</time>
      </trkpt>
      <trkpt lat="42.1991600" lon="-7.8037460">
        <ele>458.5</ele>
        <time>2019-08-17T12:37:22Z</time>
      </trkpt>
      <trkpt lat="42.1991770" lon="-7.8037810">
        <ele>458.7</ele>
        <time>2019-08-17T12:37:23Z</time>
      </trkpt>
      <trkpt lat="42.1991940" lon="-7.8038140">
        <ele>458.9</ele>
        <time>2019-08-17T12:37:24Z</time>
      </trkpt>
      <trkpt lat="42.1992110" lon="-7.8038480">
        <ele>459.1</ele>
        <time>2019-08-17T12:37:25Z</time>
      </trkpt>
      <trkpt lat="42.1992280" lon="-7.8038810">
        <ele>459.3</ele>
        <time>2019-08-17T12:37:26Z</time>
      </trkpt>
      <trkpt lat="42.1992450" lon="-7.8039130">
        <ele>459.5</ele>
        <time>2019-08-17T12:37:27Z</time>
      </trkpt>
      <trkpt lat="42.1992620" lon="-7.8039460">
        <ele>459.7</ele>
        <time>2019-08-17T12:37:28Z</time>
      </trkpt>
      <trkpt lat="42.1992800" lon="-7.8039790">
        <ele>459.9</ele>
        <time>2019-08-17T12:37:29Z</time>
      </trkpt>
      <trkpt lat="42.1992970" lon="-7.8040130">
        <ele>460.1</ele>
        <time>2019-08-17T12:37:30Z</time>
      </trkpt>
      <trkpt lat="42.1993140" lon="-7.8040460">
        <ele>460.3</ele>
        <time>2019-08-17T12:37:31Z</time>
      </trkpt>
      <trkpt lat="42.1993310" lon="-7.8040790">
        <ele>460.5</ele>
        <time>2019-08-17T12:37:32Z</time>
      </trkpt>
      <trkpt lat="42.1993470" lon="-7.8041110">
        <ele>460.7</ele>
        <time>2019-08-17T12:37:33Z</time>
      </trkpt>
      <trkpt lat="42.1993630" lon="-7.8041430">
        <ele>460.9</ele>
        <time>2019-08-17T12:37:34Z</time>
      </trkpt>
      <trkpt lat="42.1993780" lon="-7.8041750">
        <ele>461.1</ele>
        <time>2019-08-17T12:37:35Z</time>
      </trkpt>
      <trkpt lat="42.1993920" lon="-7.8042050">
        <ele>461.3</ele>
        <time>2019-08-17T12:37:36Z</time>
      </trkpt>
      <trkpt lat="42.1994060" lon="-7.8042340">
        <ele>461.5</ele>
        <time>2019-08-17T12:37:37Z</time>
      </trkpt>
      <trkpt lat="42.1994190" lon="-7.8042630">
        <ele>461.7</ele>
        <time>2019-08-17T12:37:38Z</time>
      </trkpt>
      <trkpt lat="42.1994330" lon="-7.8042910">
        <ele>461.8</ele>
        <time>2019-08-17T12:37:39Z</time>
      </trkpt>
      <trkpt lat="42.1994470" lon="-7.8043190">
        <ele>462.0</ele>
        <time>2019-08-17T12:37:40Z</time>
      </trkpt>
      <trkpt lat="42.1994630" lon="-7.8043470">
        <ele>462.2</ele>
        <time>2019-08-17T12:37:41Z</time>
      </trkpt>
      <trkpt lat="42.1994790" lon="-7.8043760">
        <ele>462.3</ele>
        <time>2019-08-17T12:37:42Z</time>
      </trkpt>
      <trkpt lat="42.1994960" lon="-7.8044050">
        <ele>462.5</ele>
        <time>2019-08-17T12:37:43Z</time>
      </trkpt>
      <trkpt lat="42.1995140" lon="-7.8044350">
        <ele>462.7</ele>
        <time>2019-08-17T12:37:44Z</time>
      </trkpt>
      <trkpt lat="42.1995320" lon="-7.8044670">
        <ele>462.9</ele>
        <time>2019-08-17T12:37:45Z</time>
      </trkpt>
      <trkpt lat="42.1995510" lon="-7.8044980">
        <ele>463.1</ele>
        <time>2019-08-17T12:37:46Z</time>
      </trkpt>
      <trkpt lat="42.1995700" lon="-7.8045310">
        <ele>463.3</ele>
        <time>2019-08-17T12:37:47Z</time>
      </trkpt>
      <trkpt lat="42.1995890" lon="-7.8045630">
        <ele>463.5</ele>
        <time>2019-08-17T12:37:48Z</time>
      </trkpt>
      <trkpt lat="42.1996070" lon="-7.8045950">
        <ele>463.6</ele>
        <time>2019-08-17T12:37:49Z</time>
      </trkpt>
      <trkpt lat="42.1996260" lon="-7.8046260">
        <ele>463.8</ele>
        <time>2019-08-17T12:37:50Z</time>
      </trkpt>
      <trkpt lat="42.1996440" lon="-7.8046550">
        <ele>464.0</ele>
        <time>2019-08-17T12:37:51Z</time>
      </trkpt>
      <trkpt lat="42.1996620" lon="-7.8046840">
        <ele>464.2</ele>
        <time>2019-08-17T12:37:52Z</time>
      </trkpt>
      <trkpt lat="42.1996790" lon="-7.8047100">
        <ele>464.3</ele>
        <time>2019-08-17T12:37:53Z</time>
      </trkpt>
      <trkpt lat="42.1996960" lon="-7.8047350">
        <ele>464.5</ele>
        <time>2019-08-17T12:37:54Z</time>
      </trkpt>
      <trkpt lat="42.1997120" lon="-7.8047590">
        <ele>464.6</ele>
        <time>2019-08-17T12:37:55Z</time>
      </trkpt>
      <trkpt lat="42.1997280" lon="-7.8047810">
        <ele>464.7</ele>
        <time>2019-08-17T12:37:56Z</time>
      </trkpt>
      <trkpt lat="42.1997430" lon="-7.8048030">
        <ele>464.9</ele>
        <time>2019-08-17T12:37:57Z</time>
      </trkpt>
      <trkpt lat="42.1997580" lon="-7.8048240">
        <ele>465.0</ele>
        <time>2019-08-17T12:37:58Z</time>
      </trkpt>
      <trkpt lat="42.1997740" lon="-7.8048470">
        <ele>465.1</ele>
        <time>2019-08-17T12:37:59Z</time>
      </trkpt>
      <trkpt lat="42.1997910" lon="-7.8048720">
        <ele>465.3</ele>
        <time>2019-08-17T12:38:00Z</time>
      </trkpt>
      <trkpt lat="42.1998090" lon="-7.8048980">
        <ele>465.5</ele>
        <time>2019-08-17T12:38:01Z</time>
      </trkpt>
      <trkpt lat="42.1998280" lon="-7.8049260">
        <ele>465.6</ele>
        <time>2019-08-17T12:38:02Z</time>
      </trkpt>
      <trkpt lat="42.1998480" lon="-7.8049560">
        <ele>465.8</ele>
        <time>2019-08-17T12:38:03Z</time>
      </trkpt>
      <trkpt lat="42.1998680" lon="-7.8049860">
        <ele>465.9</ele>
        <time>2019-08-17T12:38:04Z</time>
      </trkpt>
      <trkpt lat="42.1998890" lon="-7.8050160">
        <ele>466.1</ele>
        <time>2019-08-17T12:38:05Z</time>
      </trkpt>
      <trkpt lat="42.1999110" lon="-7.8050470">
        <ele>466.3</ele>
        <time>2019-08-17T12:38:06Z</time>
      </trkpt>
      <trkpt lat="42.1999330" lon="-7.8050780">
        <ele>466.5</ele>
        <time>2019-08-17T12:38:07Z</time>
      </trkpt>
      <trkpt lat="42.1999550" lon="-7.8051090">
        <ele>466.6</ele>
        <time>2019-08-17T12:38:08Z</time>
      </trkpt>
      <trkpt lat="42.1999770" lon="-7.8051390">
        <ele>466.8</ele>
        <time>2019-08-17T12:38:09Z</time>
      </trkpt>
      <trkpt lat="42.1999990" lon="-7.8051690">
        <ele>467.0</ele>
        <time>2019-08-17T12:38:10Z</time>
      </trkpt>
      <trkpt lat="42.2000220" lon="-7.8051990">
        <ele>467.1</ele>
        <time>2019-08-17T12:38:11Z</time>
      </trkpt>
      <trkpt lat="42.2000450" lon="-7.8052290">
        <ele>467.3</ele>
        <time>2019-08-17T12:38:12Z</time>
      </trkpt>
      <trkpt lat="42.2000670" lon="-7.8052590">
        <ele>467.4</ele>
        <time>2019-08-17T12:38:13Z</time>
      </trkpt>
      <trkpt lat="42.2000900" lon="-7.8052880">
        <ele>467.6</ele>
        <time>2019-08-17T12:38:14Z</time>
      </trkpt>
      <trkpt lat="42.2001130" lon="-7.8053170">
        <ele>467.8</ele>
        <time>2019-08-17T12:38:15Z</time>
      </trkpt>
      <trkpt lat="42.2001360" lon="-7.8053460">
        <ele>467.9</ele>
        <time>2019-08-17T12:38:16Z</time>
      </trkpt>
      <trkpt lat="42.2001590" lon="-7.8053750">
        <ele>468.1</ele>
        <time>2019-08-17T12:38:17Z</time>
      </trkpt>
      <trkpt lat="42.2001820" lon="-7.8054040">
        <ele>468.2</ele>
        <time>2019-08-17T12:38:18Z</time>
      </trkpt>
      <trkpt lat="42.2002050" lon="-7.8054330">
        <ele>468.4</ele>
        <time>2019-08-17T12:38:19Z</time>
      </trkpt>
      <trkpt lat="42.2002280" lon="-7.8054620">
        <ele>468.5</ele>
        <time>2019-08-17T12:38:20Z</time>
      </trkpt>
      <trkpt lat="42.2002510" lon="-7.8054910">
        <ele>468.7</ele>
        <time>2019-08-17T12:38:21Z</time>
      </trkpt>
      <trkpt lat="42.2002730" lon="-7.8055200">
        <ele>468.8</ele>
        <time>2019-08-17T12:38:22Z</time>
      </trkpt>
      <trkpt lat="42.2002950" lon="-7.8055480">
        <ele>468.9</ele>
        <time>2019-08-17T12:38:23Z</time>
      </trkpt>
      <trkpt lat="42.2003170" lon="-7.8055770">
        <ele>469.1</ele>
        <time>2019-08-17T12:38:24Z</time>
      </trkpt>
      <trkpt lat="42.2003390" lon="-7.8056060">
        <ele>469.2</ele>
        <time>2019-08-17T12:38:25Z</time>
      </trkpt>
      <trkpt lat="42.2003610" lon="-7.8056340">
        <ele>469.3</ele>
        <time>2019-08-17T12:38:26Z</time>
      </trkpt>
      <trkpt lat="42.2003830" lon="-7.8056620">
        <ele>469.4</ele>
        <time>2019-08-17T12:38:27Z</time>
      </trkpt>
      <trkpt lat="42.2004050" lon="-7.8056900">
        <ele>469.6</ele>
        <time>2019-08-17T12:38:28Z</time>
      </trkpt>
      <trkpt lat="42.2004260" lon="-7.8057180">
        <ele>469.7</ele>
        <time>2019-08-17T12:38:29Z</time>
      </trkpt>
      <trkpt lat="42.2004480" lon="-7.8057450">
        <ele>469.8</ele>
        <time>2019-08-17T12:38:30Z</time>
      </trkpt>
      <trkpt lat="42.2004700" lon="-7.8057710">
        <ele>469.6</ele>
        <time>2019-08-17T12:38:31Z</time>
      </trkpt>
      <trkpt lat="42.2004910" lon="-7.8057980">
        <ele>469.5</ele>
        <time>2019-08-17T12:38:32Z</time>
      </trkpt>
      <trkpt lat="42.2005130" lon="-7.8058240">
        <ele>469.4</ele>
        <time>2019-08-17T12:38:33Z</time>
      </trkpt>
      <trkpt lat="42.2005340" lon="-7.8058490">
        <ele>469.3</ele>
        <time>2019-08-17T12:38:34Z</time>
      </trkpt>
      <trkpt lat="42.2005560" lon="-7.8058750">
        <ele>469.2</ele>
        <time>2019-08-17T12:38:35Z</time>
      </trkpt>
      <trkpt lat="42.2005770" lon="-7.8059010">
        <ele>469.0</ele>
        <time>2019-08-17T12:38:36Z</time>
      </trkpt>
      <trkpt lat="42.2005990" lon="-7.8059270">
        <ele>468.9</ele>
        <time>2019-08-17T12:38:37Z</time>
      </trkpt>
      <trkpt lat="42.2006200" lon="-7.8059530">
        <ele>468.8</ele>
        <time>2019-08-17T12:38:38Z</time>
      </trkpt>
      <trkpt lat="42.2006420" lon="-7.8059800">
        <ele>468.7</ele>
        <time>2019-08-17T12:38:39Z</time>
      </trkpt>
      <trkpt lat="42.2006630" lon="-7.8060070">
        <ele>468.6</ele>
        <time>2019-08-17T12:38:40Z</time>
      </trkpt>
      <trkpt lat="42.2006850" lon="-7.8060340">
        <ele>468.4</ele>
        <time>2019-08-17T12:38:41Z</time>
      </trkpt>
      <trkpt lat="42.2007070" lon="-7.8060620">
        <ele>468.3</ele>
        <time>2019-08-17T12:38:42Z</time>
      </trkpt>
      <trkpt lat="42.2007290" lon="-7.8060900">
        <ele>468.2</ele>
        <time>2019-08-17T12:38:43Z</time>
      </trkpt>
      <trkpt lat="42.2007500" lon="-7.8061180">
        <ele>468.0</ele>
        <time>2019-08-17T12:38:44Z</time>
      </trkpt>
      <trkpt lat="42.2007720" lon="-7.8061470">
        <ele>467.9</ele>
        <time>2019-08-17T12:38:45Z</time>
      </trkpt>
      <trkpt lat="42.2007940" lon="-7.8061760">
        <ele>467.8</ele>
        <time>2019-08-17T12:38:46Z</time>
      </trkpt>
      <trkpt lat="42.2008160" lon="-7.8062060">
        <ele>467.7</ele>
        <time>2019-08-17T12:38:47Z</time>
      </trkpt>
      <trkpt lat="42.2008390" lon="-7.8062350">
        <ele>467.5</ele>
        <time>2019-08-17T12:38:48Z</time>
      </trkpt>
      <trkpt lat="42.2008610" lon="-7.8062650">
        <ele>467.4</ele>
        <time>2019-08-17T12:38:49Z</time>
      </trkpt>
      <trkpt lat="42.2008830" lon="-7.8062950">
        <ele>467.3</ele>
        <time>2019-08-17T12:38:50Z</time>
      </trkpt>
      <trkpt lat="42.2009060" lon="-7.8063250">
        <ele>467.2</ele>
        <time>2019-08-17T12:38:51Z</time>
      </trkpt>
      <trkpt lat="42.2009280" lon="-7.8063550">
        <ele>467.0</ele>
        <time>2019-08-17T12:38:52Z</time>
      </trkpt>
      <trkpt lat="42.2009500" lon="-7.8063850">
        <ele>466.9</ele>
        <time>2019-08-17T12:38:53Z</time>
      </trkpt>
      <trkpt lat="42.2009720" lon="-7.8064150">
        <ele>466.8</ele>
        <time>2019-08-17T12:38:54Z</time>
      </trkpt>
      <trkpt lat="42.2009940" lon="-7.8064440">
        <ele>466.7</ele>
        <time>2019-08-17T12:38:55Z</time>
      </trkpt>
      <trkpt lat="42.2010160" lon="-7.8064730">
        <ele>466.6</ele>
        <time>2019-08-17T12:38:56Z</time>
      </trkpt>
      <trkpt lat="42.2010370" lon="-7.8065030">
        <ele>466.6</ele>
        <time>2019-08-17T12:38:57Z</time>
      </trkpt>
      <trkpt lat="42.2010590" lon="-7.8065320">
        <ele>466.5</ele>
        <time>2019-08-17T12:38:58Z</time>
      </trkpt>
      <trkpt lat="42.2010800" lon="-7.8065610">
        <ele>466.4</ele>
        <time>2019-08-17T12:38:59Z</time>
      </trkpt>
      <trkpt lat="42.2011020" lon="-7.8065900">
        <ele>466.3</ele>
        <time>2019-08-17T12:39:00Z</time>
      </trkpt>
      <trkpt lat="42.2011230" lon="-7.8066190">
        <ele>466.2</ele>
        <time>2019-08-17T12:39:01Z</time>
      </trkpt>
      <trkpt lat="42.2011440" lon="-7.8066480">
        <ele>466.3</ele>
        <time>2019-08-17T12:39:02Z</time>
      </trkpt>
      <trkpt lat="42.2011650" lon="-7.8066770">
        <ele>466.5</ele>
        <time>2019-08-17T12:39:03Z</time>
      </trkpt>
      <trkpt lat="42.2011860" lon="-7.8067070">
        <ele>466.6</ele>
        <time>2019-08-17T12:39:04Z</time>
      </trkpt>
      <trkpt lat="42.2012070" lon="-7.8067360">
        <ele>466.8</ele>
        <time>2019-08-17T12:39:05Z</time>
      </trkpt>
      <trkpt lat="42.2012270" lon="-7.8067660">
        <ele>467.0</ele>
        <time>2019-08-17T12:39:06Z</time>
      </trkpt>
      <trkpt lat="42.2012480" lon="-7.8067960">
        <ele>467.2</ele>
        <time>2019-08-17T12:39:07Z</time>
      </trkpt>
      <trkpt lat="42.2012690" lon="-7.8068260">
        <ele>467.4</ele>
        <time>2019-08-17T12:39:08Z</time>
      </trkpt>
      <trkpt lat="42.2012890" lon="-7.8068560">
        <ele>467.5</ele>
        <time>2019-08-17T12:39:09Z</time>
      </trkpt>
      <trkpt lat="42.2013100" lon="-7.8068860">
        <ele>467.7</ele>
        <time>2019-08-17T12:39:10Z</time>
      </trkpt>
      <trkpt lat="42.2013300" lon="-7.8069170">
        <ele>467.9</ele>
        <time>2019-08-17T12:39:11Z</time>
      </trkpt>
      <trkpt lat="42.2013500" lon="-7.8069480">
        <ele>468.0</ele>
        <time>2019-08-17T12:39:12Z</time>
      </trkpt>
      <trkpt lat="42.2013700" lon="-7.8069790">
        <ele>468.2</ele>
        <time>2019-08-17T12:39:13Z</time>
      </trkpt>
      <trkpt lat="42.2013910" lon="-7.8070100">
        <ele>468.3</ele>
        <time>2019-08-17T12:39:14Z</time>
      </trkpt>
      <trkpt lat="42.2014100" lon="-7.8070410">
        <ele>468.5</ele>
        <time>2019-08-17T12:39:15Z</time>
      </trkpt>
      <trkpt lat="42.2014300" lon="-7.8070730">
        <ele>468.6</ele>
        <time>2019-08-17T12:39:16Z</time>
      </trkpt>
      <trkpt lat="42.2014500" lon="-7.8071040">
        <ele>468.8</ele>
        <time>2019-08-17T12:39:17Z</time>
      </trkpt>
      <trkpt lat="42.2014690" lon="-7.8071350">
        <ele>469.0</ele>
        <time>2019-08-17T12:39:18Z</time>
      </trkpt>
      <trkpt lat="42.2014890" lon="-7.8071660">
        <ele>469.2</ele>
        <time>2019-08-17T12:39:19Z</time>
      </trkpt>
      <trkpt lat="42.2015080" lon="-7.8071970">
        <ele>469.4</ele>
        <time>2019-08-17T12:39:20Z</time>
      </trkpt>
      <trkpt lat="42.2015270" lon="-7.8072270">
        <ele>469.6</ele>
        <time>2019-08-17T12:39:21Z</time>
      </trkpt>
      <trkpt lat="42.2015460" lon="-7.8072570">
        <ele>469.7</ele>
        <time>2019-08-17T12:39:22Z</time>
      </trkpt>
      <trkpt lat="42.2015650" lon="-7.8072870">
        <ele>469.9</ele>
        <time>2019-08-17T12:39:23Z</time>
      </trkpt>
      <trkpt lat="42.2015830" lon="-7.8073170">
        <ele>470.0</ele>
        <time>2019-08-17T12:39:24Z</time>
      </trkpt>
      <trkpt lat="42.2016010" lon="-7.8073460">
        <ele>470.2</ele>
        <time>2019-08-17T12:39:25Z</time>
      </trkpt>
      <trkpt lat="42.2016200" lon="-7.8073750">
        <ele>470.3</ele>
        <time>2019-08-17T12:39:26Z</time>
      </trkpt>
      <trkpt lat="42.2016380" lon="-7.8074040">
        <ele>470.4</ele>
        <time>2019-08-17T12:39:27Z</time>
      </trkpt>
      <trkpt lat="42.2016560" lon="-7.8074330">
        <ele>470.5</ele>
        <time>2019-08-17T12:39:28Z</time>
      </trkpt>
      <trkpt lat="42.2016740" lon="-7.8074620">
        <ele>470.6</ele>
        <time>2019-08-17T12:39:29Z</time>
      </trkpt>
      <trkpt lat="42.2016920" lon="-7.8074930">
        <ele>470.8</ele>
        <time>2019-08-17T12:39:30Z</time>
      </trkpt>
      <trkpt lat="42.2017100" lon="-7.8075240">
        <ele>470.9</ele>
        <time>2019-08-17T12:39:31Z</time>
      </trkpt>
      <trkpt lat="42.2017290" lon="-7.8075560">
        <ele>471.0</ele>
        <time>2019-08-17T12:39:32Z</time>
      </trkpt>
      <trkpt lat="42.2017470" lon="-7.8075900">
        <ele>471.2</ele>
        <time>2019-08-17T12:39:33Z</time>
      </trkpt>
      <trkpt lat="42.2017660" lon="-7.8076250">
        <ele>471.3</ele>
        <time>2019-08-17T12:39:34Z</time>
      </trkpt>
      <trkpt lat="42.2017850" lon="-7.8076600">
        <ele>471.5</ele>
        <time>2019-08-17T12:39:35Z</time>
      </trkpt>
      <trkpt lat="42.2018040" lon="-7.8076970">
        <ele>471.7</ele>
        <time>2019-08-17T12:39:36Z</time>
      </trkpt>
      <trkpt lat="42.2018220" lon="-7.8077340">
        <ele>471.9</ele>
        <time>2019-08-17T12:39:37Z</time>
      </trkpt>
      <trkpt lat="42.2018400" lon="-7.8077710">
        <ele>472.1</ele>
        <time>2019-08-17T12:39:38Z</time>
      </trkpt>
      <trkpt lat="42.2018580" lon="-7.8078080">
        <ele>472.2</ele>
        <time>2019-08-17T12:39:39Z</time>
      </trkpt>
      <trkpt lat="42.2018760" lon="-7.8078450">
        <ele>472.4</ele>
        <time>2019-08-17T12:39:40Z</time>
      </trkpt>
      <trkpt lat="42.2018930" lon="-7.8078810">
        <ele>472.6</ele>
        <time>2019-08-17T12:39:41Z</time>
      </trkpt>
      <trkpt lat="42.2019100" lon="-7.8079170">
        <ele>472.8</ele>
        <time>2019-08-17T12:39:42Z</time>
      </trkpt>
      <trkpt lat="42.2019270" lon="-7.8079520">
        <ele>472.9</ele>
        <time>2019-08-17T12:39:43Z</time>
      </trkpt>
      <trkpt lat="42.2019440" lon="-7.8079850">
        <ele>473.1</ele>
        <time>2019-08-17T12:39:44Z</time>
      </trkpt>
      <trkpt lat="42.2019630" lon="-7.8080170">
        <ele>473.3</ele>
        <time>2019-08-17T12:39:45Z</time>
      </trkpt>
      <trkpt lat="42.2019830" lon="-7.8080480">
        <ele>473.4</ele>
        <time>2019-08-17T12:39:46Z</time>
      </trkpt>
      <trkpt lat="42.2020020" lon="-7.8080800">
        <ele>473.6</ele>
        <time>2019-08-17T12:39:47Z</time>
      </trkpt>
      <trkpt lat="42.2020210" lon="-7.8081120">
        <ele>473.8</ele>
        <time>2019-08-17T12:39:48Z</time>
      </trkpt>
      <trkpt lat="42.2020400" lon="-7.8081470">
        <ele>473.9</ele>
        <time>2019-08-17T12:39:49Z</time>
      </trkpt>
      <trkpt lat="42.2020570" lon="-7.8081840">
        <ele>474.1</ele>
        <time>2019-08-17T12:39:50Z</time>
      </trkpt>
      <trkpt lat="42.2020740" lon="-7.8082210">
        <ele>474.2</ele>
        <time>2019-08-17T12:39:51Z</time>
      </trkpt>
      <trkpt lat="42.2020920" lon="-7.8082590">
        <ele>474.3</ele>
        <time>2019-08-17T12:39:52Z</time>
      </trkpt>
      <trkpt lat="42.2021090" lon="-7.8082960">
        <ele>474.4</ele>
        <time>2019-08-17T12:39:53Z</time>
      </trkpt>
      <trkpt lat="42.2021280" lon="-7.8083330">
        <ele>474.5</ele>
        <time>2019-08-17T12:39:54Z</time>
      </trkpt>
      <trkpt lat="42.2021470" lon="-7.8083680">
        <ele>474.6</ele>
        <time>2019-08-17T12:39:55Z</time>
      </trkpt>
      <trkpt lat="42.2021680" lon="-7.8084000">
        <ele>474.8</ele>
        <time>2019-08-17T12:39:56Z</time>
      </trkpt>
      <trkpt lat="42.2021910" lon="-7.8084310">
        <ele>474.9</ele>
        <time>2019-08-17T12:39:57Z</time>
      </trkpt>
      <trkpt lat="42.2022140" lon="-7.8084600">
        <ele>475.1</ele>
        <time>2019-08-17T12:39:58Z</time>
      </trkpt>
      <trkpt lat="42.2022370" lon="-7.8084880">
        <ele>475.2</ele>
        <time>2019-08-17T12:39:59Z</time>
      </trkpt>
      <trkpt lat="42.2022610" lon="-7.8085140">
        <ele>475.4</ele>
        <time>2019-08-17T12:40:00Z</time>
      </trkpt>
      <trkpt lat="42.2022850" lon="-7.8085400">
        <ele>475.6</ele>
        <time>2019-08-17T12:40:01Z</time>
      </trkpt>
      <trkpt lat="42.2023070" lon="-7.8085670">
        <ele>475.8</ele>
        <time>2019-08-17T12:40:02Z</time>
      </trkpt>
      <trkpt lat="42.2023280" lon="-7.8085960">
        <ele>475.9</ele>
        <time>2019-08-17T12:40:03Z</time>
      </trkpt>
      <trkpt lat="42.2023480" lon="-7.8086270">
        <ele>476.1</ele>
        <time>2019-08-17T12:40:04Z</time>
      </trkpt>
      <trkpt lat="42.2023660" lon="-7.8086610">
        <ele>476.4</ele>
        <time>2019-08-17T12:40:05Z</time>
      </trkpt>
      <trkpt lat="42.2023810" lon="-7.8086970">
        <ele>476.6</ele>
        <time>2019-08-17T12:40:06Z</time>
      </trkpt>
      <trkpt lat="42.2023960" lon="-7.8087350">
        <ele>476.9</ele>
        <time>2019-08-17T12:40:07Z</time>
      </trkpt>
      <trkpt lat="42.2024080" lon="-7.8087750">
        <ele>477.1</ele>
        <time>2019-08-17T12:40:08Z</time>
      </trkpt>
      <trkpt lat="42.2024170" lon="-7.8088160">
        <ele>477.3</ele>
        <time>2019-08-17T12:40:09Z</time>
      </trkpt>
      <trkpt lat="42.2024230" lon="-7.8088580">
        <ele>477.6</ele>
        <time>2019-08-17T12:40:10Z</time>
      </trkpt>
      <trkpt lat="42.2024260" lon="-7.8089020">
        <ele>477.7</ele>
        <time>2019-08-17T12:40:11Z</time>
      </trkpt>
      <trkpt lat="42.2024240" lon="-7.8089450">
        <ele>477.8</ele>
        <time>2019-08-17T12:40:12Z</time>
      </trkpt>
      <trkpt lat="42.2024200" lon="-7.8089880">
        <ele>477.9</ele>
        <time>2019-08-17T12:40:13Z</time>
      </trkpt>
      <trkpt lat="42.2024160" lon="-7.8090310">
        <ele>478.0</ele>
        <time>2019-08-17T12:40:14Z</time>
      </trkpt>
      <trkpt lat="42.2024170" lon="-7.8090730">
        <ele>478.2</ele>
        <time>2019-08-17T12:40:15Z</time>
      </trkpt>
      <trkpt lat="42.2024230" lon="-7.8091140">
        <ele>478.3</ele>
        <time>2019-08-17T12:40:16Z</time>
      </trkpt>
      <trkpt lat="42.2024340" lon="-7.8091540">
        <ele>478.4</ele>
        <time>2019-08-17T12:40:17Z</time>
      </trkpt>
      <trkpt lat="42.2024480" lon="-7.8091930">
        <ele>478.6</ele>
        <time>2019-08-17T12:40:18Z</time>
      </trkpt>
      <trkpt lat="42.2024630" lon="-7.8092320">
        <ele>478.8</ele>
        <time>2019-08-17T12:40:19Z</time>
      </trkpt>
      <trkpt lat="42.2024770" lon="-7.8092690">
        <ele>478.9</ele>
        <time>2019-08-17T12:40:20Z</time>
      </trkpt>
      <trkpt lat="42.2024910" lon="-7.8093050">
        <ele>479.1</ele>
        <time>2019-08-17T12:40:21Z</time>
      </trkpt>
      <trkpt lat="42.2025050" lon="-7.8093410">
        <ele>479.3</ele>
        <time>2019-08-17T12:40:22Z</time>
      </trkpt>
      <trkpt lat="42.2025180" lon="-7.8093770">
        <ele>479.4</ele>
        <time>2019-08-17T12:40:23Z</time>
      </trkpt>
      <trkpt lat="42.2025300" lon="-7.8094130">
        <ele>479.6</ele>
        <time>2019-08-17T12:40:24Z</time>
      </trkpt>
      <trkpt lat="42.2025430" lon="-7.8094480">
        <ele>479.8</ele>
        <time>2019-08-17T12:40:25Z</time>
      </trkpt>
      <trkpt lat="42.2025550" lon="-7.8094840">
        <ele>479.9</ele>
        <time>2019-08-17T12:40:26Z</time>
      </trkpt>
      <trkpt lat="42.2025680" lon="-7.8095210">
        <ele>480.1</ele>
        <time>2019-08-17T12:40:27Z</time>
      </trkpt>
      <trkpt lat="42.2025810" lon="-7.8095570">
        <ele>480.2</ele>
        <time>2019-08-17T12:40:28Z</time>
      </trkpt>
      <trkpt lat="42.2025930" lon="-7.8095940">
        <ele>480.4</ele>
        <time>2019-08-17T12:40:29Z</time>
      </trkpt>
      <trkpt lat="42.2026060" lon="-7.8096300">
        <ele>480.6</ele>
        <time>2019-08-17T12:40:30Z</time>
      </trkpt>
      <trkpt lat="42.2026180" lon="-7.8096670">
        <ele>480.7</ele>
        <time>2019-08-17T12:40:31Z</time>
      </trkpt>
      <trkpt lat="42.2026300" lon="-7.8097030">
        <ele>480.9</ele>
        <time>2019-08-17T12:40:32Z</time>
      </trkpt>
      <trkpt lat="42.2026430" lon="-7.8097380">
        <ele>481.0</ele>
        <time>2019-08-17T12:40:33Z</time>
      </trkpt>
      <trkpt lat="42.2026550" lon="-7.8097720">
        <ele>481.2</ele>
        <time>2019-08-17T12:40:34Z</time>
      </trkpt>
      <trkpt lat="42.2026660" lon="-7.8098050">
        <ele>481.3</ele>
        <time>2019-08-17T12:40:35Z</time>
      </trkpt>
      <trkpt lat="42.2026780" lon="-7.8098370">
        <ele>481.4</ele>
        <time>2019-08-17T12:40:36Z</time>
      </trkpt>
      <trkpt lat="42.2026900" lon="-7.8098700">
        <ele>481.6</ele>
        <time>2019-08-17T12:40:37Z</time>
      </trkpt>
      <trkpt lat="42.2027020" lon="-7.8099020">
        <ele>481.8</ele>
        <time>2019-08-17T12:40:38Z</time>
      </trkpt>
      <trkpt lat="42.2027150" lon="-7.8099360">
        <ele>482.0</ele>
        <time>2019-08-17T12:40:39Z</time>
      </trkpt>
      <trkpt lat="42.2027280" lon="-7.8099700">
        <ele>482.1</ele>
        <time>2019-08-17T12:40:40Z</time>
      </trkpt>
      <trkpt lat="42.2027410" lon="-7.8100040">
        <ele>482.3</ele>
        <time>2019-08-17T12:40:41Z</time>
      </trkpt>
      <trkpt lat="42.2027550" lon="-7.8100400">
        <ele>482.4</ele>
        <time>2019-08-17T12:40:42Z</time>
      </trkpt>
      <trkpt lat="42.2027690" lon="-7.8100750">
        <ele>482.6</ele>
        <time>2019-08-17T12:40:43Z</time>
      </trkpt>
      <trkpt lat="42.2027830" lon="-7.8101110">
        <ele>482.7</ele>
        <time>2019-08-17T12:40:44Z</time>
      </trkpt>
      <trkpt lat="42.2027970" lon="-7.8101480">
        <ele>482.9</ele>
        <time>2019-08-17T12:40:45Z</time>
      </trkpt>
      <trkpt lat="42.2028110" lon="-7.8101850">
        <ele>483.1</ele>
        <time>2019-08-17T12:40:46Z</time>
      </trkpt>
      <trkpt lat="42.2028260" lon="-7.8102220">
        <ele>483.3</ele>
        <time>2019-08-17T12:40:47Z</time>
      </trkpt>
      <trkpt lat="42.2028410" lon="-7.8102590">
        <ele>483.5</ele>
        <time>2019-08-17T12:40:48Z</time>
      </trkpt>
      <trkpt lat="42.2028560" lon="-7.8102970">
        <ele>483.7</ele>
        <time>2019-08-17T12:40:49Z</time>
      </trkpt>
      <trkpt lat="42.2028710" lon="-7.8103350">
        <ele>483.9</ele>
        <time>2019-08-17T12:40:50Z</time>
      </trkpt>
      <trkpt lat="42.2028860" lon="-7.8103730">
        <ele>484.2</ele>
        <time>2019-08-17T12:40:51Z</time>
      </trkpt>
      <trkpt lat="42.2029020" lon="-7.8104110">
        <ele>484.4</ele>
        <time>2019-08-17T12:40:52Z</time>
      </trkpt>
      <trkpt lat="42.2029170" lon="-7.8104490">
        <ele>484.7</ele>
        <time>2019-08-17T12:40:53Z</time>
      </trkpt>
      <trkpt lat="42.2029330" lon="-7.8104880">
        <ele>484.9</ele>
        <time>2019-08-17T12:40:54Z</time>
      </trkpt>
      <trkpt lat="42.2029490" lon="-7.8105260">
        <ele>485.2</ele>
        <time>2019-08-17T12:40:55Z</time>
      </trkpt>
      <trkpt lat="42.2029650" lon="-7.8105640">
        <ele>485.5</ele>
        <time>2019-08-17T12:40:56Z</time>
      </trkpt>
      <trkpt lat="42.2029810" lon="-7.8106030">
        <ele>485.8</ele>
        <time>2019-08-17T12:40:57Z</time>
      </trkpt>
      <trkpt lat="42.2029970" lon="-7.8106410">
        <ele>486.1</ele>
        <time>2019-08-17T12:40:58Z</time>
      </trkpt>
      <trkpt lat="42.2030130" lon="-7.8106790">
        <ele>486.4</ele>
        <time>2019-08-17T12:40:59Z</time>
      </trkpt>
      <trkpt lat="42.2030290" lon="-7.8107170">
        <ele>486.7</ele>
        <time>2019-08-17T12:41:00Z</time>
      </trkpt>
      <trkpt lat="42.2030460" lon="-7.8107540">
        <ele>487.0</ele>
        <time>2019-08-17T12:41:01Z</time>
      </trkpt>
      <trkpt lat="42.2030620" lon="-7.8107920">
        <ele>487.4</ele>
        <time>2019-08-17T12:41:02Z</time>
      </trkpt>
      <trkpt lat="42.2030780" lon="-7.8108280">
        <ele>487.7</ele>
        <time>2019-08-17T12:41:03Z</time>
      </trkpt>
      <trkpt lat="42.2030940" lon="-7.8108650">
        <ele>488.0</ele>
        <time>2019-08-17T12:41:04Z</time>
      </trkpt>
      <trkpt lat="42.2031100" lon="-7.8109000">
        <ele>488.3</ele>
        <time>2019-08-17T12:41:05Z</time>
      </trkpt>
      <trkpt lat="42.2031260" lon="-7.8109360">
        <ele>488.6</ele>
        <time>2019-08-17T12:41:06Z</time>
      </trkpt>
      <trkpt lat="42.2031420" lon="-7.8109700">
        <ele>488.9</ele>
        <time>2019-08-17T12:41:07Z</time>
      </trkpt>
      <trkpt lat="42.2031580" lon="-7.8110040">
        <ele>489.3</ele>
        <time>2019-08-17T12:41:08Z</time>
      </trkpt>
      <trkpt lat="42.2031730" lon="-7.8110380">
        <ele>489.7</ele>
        <time>2019-08-17T12:41:09Z</time>
      </trkpt>
      <trkpt lat="42.2031890" lon="-7.8110710">
        <ele>490.1</ele>
        <time>2019-08-17T12:41:10Z</time>
      </trkpt>
      <trkpt lat="42.2032040" lon="-7.8111050">
        <ele>490.3</ele>
        <time>2019-08-17T12:41:11Z</time>
      </trkpt>
      <trkpt lat="42.2032200" lon="-7.8111370">
        <ele>490.6</ele>
        <time>2019-08-17T12:41:12Z</time>
      </trkpt>
      <trkpt lat="42.2032350" lon="-7.8111700">
        <ele>490.8</ele>
        <time>2019-08-17T12:41:13Z</time>
      </trkpt>
      <trkpt lat="42.2032510" lon="-7.8112030">
        <ele>491.1</ele>
        <time>2019-08-17T12:41:14Z</time>
      </trkpt>
      <trkpt lat="42.2032670" lon="-7.8112360">
        <ele>491.3</ele>
        <time>2019-08-17T12:41:15Z</time>
      </trkpt>
      <trkpt lat="42.2032820" lon="-7.8112680">
        <ele>491.6</ele>
        <time>2019-08-17T12:41:16Z</time>
      </trkpt>
      <trkpt lat="42.2032980" lon="-7.8113010">
        <ele>491.9</ele>
        <time>2019-08-17T12:41:17Z</time>
      </trkpt>
      <trkpt lat="42.2033140" lon="-7.8113330">
        <ele>492.2</ele>
        <time>2019-08-17T12:41:18Z</time>
      </trkpt>
      <trkpt lat="42.2033300" lon="-7.8113650">
        <ele>492.5</ele>
        <time>2019-08-17T12:41:19Z</time>
      </trkpt>
      <trkpt lat="42.2033470" lon="-7.8113980">
        <ele>492.8</ele>
        <time>2019-08-17T12:41:20Z</time>
      </trkpt>
      <trkpt lat="42.2033630" lon="-7.8114300">
        <ele>493.1</ele>
        <time>2019-08-17T12:41:21Z</time>
      </trkpt>
      <trkpt lat="42.2033790" lon="-7.8114620">
        <ele>493.5</ele>
        <time>2019-08-17T12:41:22Z</time>
      </trkpt>
      <trkpt lat="42.2033960" lon="-7.8114940">
        <ele>493.9</ele>
        <time>2019-08-17T12:41:23Z</time>
      </trkpt>
      <trkpt lat="42.2034130" lon="-7.8115260">
        <ele>494.2</ele>
        <time>2019-08-17T12:41:24Z</time>
      </trkpt>
      <trkpt lat="42.2034290" lon="-7.8115580">
        <ele>494.4</ele>
        <time>2019-08-17T12:41:25Z</time>
      </trkpt>
      <trkpt lat="42.2034460" lon="-7.8115900">
        <ele>494.6</ele>
        <time>2019-08-17T12:41:26Z</time>
      </trkpt>
      <trkpt lat="42.2034630" lon="-7.8116220">
        <ele>494.9</ele>
        <time>2019-08-17T12:41:27Z</time>
      </trkpt>
      <trkpt lat="42.2034810" lon="-7.8116530">
        <ele>495.1</ele>
        <time>2019-08-17T12:41:28Z</time>
      </trkpt>
      <trkpt lat="42.2034980" lon="-7.8116850">
        <ele>495.3</ele>
        <time>2019-08-17T12:41:29Z</time>
      </trkpt>
      <trkpt lat="42.2035160" lon="-7.8117170">
        <ele>495.6</ele>
        <time>2019-08-17T12:41:30Z</time>
      </trkpt>
      <trkpt lat="42.2035340" lon="-7.8117480">
        <ele>495.8</ele>
        <time>2019-08-17T12:41:31Z</time>
      </trkpt>
      <trkpt lat="42.2035520" lon="-7.8117800">
        <ele>496.1</ele>
        <time>2019-08-17T12:41:32Z</time>
      </trkpt>
      <trkpt lat="42.2035700" lon="-7.8118110">
        <ele>496.4</ele>
        <time>2019-08-17T12:41:33Z</time>
      </trkpt>
      <trkpt lat="42.2035880" lon="-7.8118420">
        <ele>496.7</ele>
        <time>2019-08-17T12:41:34Z</time>
      </trkpt>
      <trkpt lat="42.2036060" lon="-7.8118740">
        <ele>496.9</ele>
        <time>2019-08-17T12:41:35Z</time>
      </trkpt>
      <trkpt lat="42.2036250" lon="-7.8119050">
        <ele>497.2</ele>
        <time>2019-08-17T12:41:36Z</time>
      </trkpt>
      <trkpt lat="42.2036430" lon="-7.8119360">
        <ele>497.4</ele>
        <time>2019-08-17T12:41:37Z</time>
      </trkpt>
      <trkpt lat="42.2036620" lon="-7.8119670">
        <ele>497.7</ele>
        <time>2019-08-17T12:41:38Z</time>
      </trkpt>
      <trkpt lat="42.2036810" lon="-7.8119980">
        <ele>497.9</ele>
        <time>2019-08-17T12:41:39Z</time>
      </trkpt>
      <trkpt lat="42.2037000" lon="-7.8120290">
        <ele>498.1</ele>
        <time>2019-08-17T12:41:40Z</time>
      </trkpt>
      <trkpt lat="42.2037200" lon="-7.8120600">
        <ele>498.3</ele>
        <time>2019-08-17T12:41:41Z</time>
      </trkpt>
      <trkpt lat="42.2037390" lon="-7.8120900">
        <ele>498.6</ele>
        <time>2019-08-17T12:41:42Z</time>
      </trkpt>
      <trkpt lat="42.2037580" lon="-7.8121210">
        <ele>498.8</ele>
        <time>2019-08-17T12:41:43Z</time>
      </trkpt>
      <trkpt lat="42.2037780" lon="-7.8121510">
        <ele>499.0</ele>
        <time>2019-08-17T12:41:44Z</time>
      </trkpt>
      <trkpt lat="42.2037980" lon="-7.8121820">
        <ele>499.2</ele>
        <time>2019-08-17T12:41:45Z</time>
      </trkpt>
      <trkpt lat="42.2038180" lon="-7.8122120">
        <ele>499.3</ele>
        <time>2019-08-17T12:41:46Z</time>
      </trkpt>
      <trkpt lat="42.2038370" lon="-7.8122420">
        <ele>499.5</ele>
        <time>2019-08-17T12:41:47Z</time>
      </trkpt>
      <trkpt lat="42.2038580" lon="-7.8122720">
        <ele>499.7</ele>
        <time>2019-08-17T12:41:48Z</time>
      </trkpt>
      <trkpt lat="42.2038780" lon="-7.8123020">
        <ele>499.8</ele>
        <time>2019-08-17T12:41:49Z</time>
      </trkpt>
      <trkpt lat="42.2038980" lon="-7.8123320">
        <ele>500.0</ele>
        <time>2019-08-17T12:41:50Z</time>
      </trkpt>
      <trkpt lat="42.2039180" lon="-7.8123620">
        <ele>500.1</ele>
        <time>2019-08-17T12:41:51Z</time>
      </trkpt>
      <trkpt lat="42.2039390" lon="-7.8123920">
        <ele>500.3</ele>
        <time>2019-08-17T12:41:52Z</time>
      </trkpt>
      <trkpt lat="42.2039590" lon="-7.8124210">
        <ele>500.4</ele>
        <time>2019-08-17T12:41:53Z</time>
      </trkpt>
      <trkpt lat="42.2039800" lon="-7.8124510">
        <ele>500.5</ele>
        <time>2019-08-17T12:41:54Z</time>
      </trkpt>
      <trkpt lat="42.2040010" lon="-7.8124800">
        <ele>500.6</ele>
        <time>2019-08-17T12:41:55Z</time>
      </trkpt>
      <trkpt lat="42.2040220" lon="-7.8125090">
        <ele>500.7</ele>
        <time>2019-08-17T12:41:56Z</time>
      </trkpt>
      <trkpt lat="42.2040420" lon="-7.8125380">
        <ele>500.8</ele>
        <time>2019-08-17T12:41:57Z</time>
      </trkpt>
      <trkpt lat="42.2040630" lon="-7.8125670">
        <ele>500.9</ele>
        <time>2019-08-17T12:41:58Z</time>
      </trkpt>
      <trkpt lat="42.2040840" lon="-7.8125960">
        <ele>501.0</ele>
        <time>2019-08-17T12:41:59Z</time>
      </trkpt>
      <trkpt lat="42.2041060" lon="-7.8126240">
        <ele>501.1</ele>
        <time>2019-08-17T12:42:00Z</time>
      </trkpt>
      <trkpt lat="42.2041270" lon="-7.8126530">
        <ele>501.2</ele>
        <time>2019-08-17T12:42:01Z</time>
      </trkpt>
      <trkpt lat="42.2041480" lon="-7.8126810">
        <ele>501.2</ele>
        <time>2019-08-17T12:42:02Z</time>
      </trkpt>
      <trkpt lat="42.2041700" lon="-7.8127100">
        <ele>501.3</ele>
        <time>2019-08-17T12:42:03Z</time>
      </trkpt>
      <trkpt lat="42.2041910" lon="-7.8127380">
        <ele>501.4</ele>
        <time>2019-08-17T12:42:04Z</time>
      </trkpt>
      <trkpt lat="42.2042130" lon="-7.8127660">
        <ele>501.4</ele>
        <time>2019-08-17T12:42:05Z</time>
      </trkpt>
      <trkpt lat="42.2042360" lon="-7.8127950">
        <ele>501.5</ele>
        <time>2019-08-17T12:42:06Z</time>
      </trkpt>
      <trkpt lat="42.2042580" lon="-7.8128230">
        <ele>501.5</ele>
        <time>2019-08-17T12:42:07Z</time>
      </trkpt>
      <trkpt lat="42.2042810" lon="-7.8128520">
        <ele>501.6</ele>
        <time>2019-08-17T12:42:08Z</time>
      </trkpt>
      <trkpt lat="42.2043040" lon="-7.8128800">
        <ele>501.7</ele>
        <time>2019-08-17T12:42:09Z</time>
      </trkpt>
      <trkpt lat="42.2043270" lon="-7.8129090">
        <ele>501.7</ele>
        <time>2019-08-17T12:42:10Z</time>
      </trkpt>
      <trkpt lat="42.2043510" lon="-7.8129370">
        <ele>501.8</ele>
        <time>2019-08-17T12:42:11Z</time>
      </trkpt>
      <trkpt lat="42.2043750" lon="-7.8129660">
        <ele>501.9</ele>
        <time>2019-08-17T12:42:12Z</time>
      </trkpt>
      <trkpt lat="42.2044000" lon="-7.8129950">
        <ele>501.9</ele>
        <time>2019-08-17T12:42:13Z</time>
      </trkpt>
      <trkpt lat="42.2044250" lon="-7.8130240">
        <ele>502.0</ele>
        <time>2019-08-17T12:42:14Z</time>
      </trkpt>
      <trkpt lat="42.2044500" lon="-7.8130540">
        <ele>502.0</ele>
        <time>2019-08-17T12:42:15Z</time>
      </trkpt>
      <trkpt lat="42.2044770" lon="-7.8130830">
        <ele>502.1</ele>
        <time>2019-08-17T12:42:16Z</time>
      </trkpt>
      <trkpt lat="42.2045030" lon="-7.8131130">
        <ele>502.1</ele>
        <time>2019-08-17T12:42:17Z</time>
      </trkpt>
      <trkpt lat="42.2045280" lon="-7.8131420">
        <ele>502.2</ele>
        <time>2019-08-17T12:42:18Z</time>
      </trkpt>
      <trkpt lat="42.2045530" lon="-7.8131700">
        <ele>502.3</ele>
        <time>2019-08-17T12:42:19Z</time>
      </trkpt>
      <trkpt lat="42.2045760" lon="-7.8131980">
        <ele>502.4</ele>
        <time>2019-08-17T12:42:20Z</time>
      </trkpt>
      <trkpt lat="42.2045980" lon="-7.8132240">
        <ele>502.4</ele>
        <time>2019-08-17T12:42:21Z</time>
      </trkpt>
      <trkpt lat="42.2046200" lon="-7.8132490">
        <ele>502.5</ele>
        <time>2019-08-17T12:42:22Z</time>
      </trkpt>
      <trkpt lat="42.2046410" lon="-7.8132740">
        <ele>502.5</ele>
        <time>2019-08-17T12:42:23Z</time>
      </trkpt>
      <trkpt lat="42.2046630" lon="-7.8132980">
        <ele>502.6</ele>
        <time>2019-08-17T12:42:24Z</time>
      </trkpt>
      <trkpt lat="42.2046840" lon="-7.8133220">
        <ele>502.7</ele>
        <time>2019-08-17T12:42:25Z</time>
      </trkpt>
      <trkpt lat="42.2047060" lon="-7.8133460">
        <ele>502.7</ele>
        <time>2019-08-17T12:42:26Z</time>
      </trkpt>
      <trkpt lat="42.2047280" lon="-7.8133690">
        <ele>502.8</ele>
        <time>2019-08-17T12:42:27Z</time>
      </trkpt>
      <trkpt lat="42.2047510" lon="-7.8133930">
        <ele>502.9</ele>
        <time>2019-08-17T12:42:28Z</time>
      </trkpt>
      <trkpt lat="42.2047740" lon="-7.8134180">
        <ele>503.0</ele>
        <time>2019-08-17T12:42:29Z</time>
      </trkpt>
      <trkpt lat="42.2047980" lon="-7.8134430">
        <ele>503.0</ele>
        <time>2019-08-17T12:42:30Z</time>
      </trkpt>
      <trkpt lat="42.2048230" lon="-7.8134680">
        <ele>503.1</ele>
        <time>2019-08-17T12:42:31Z</time>
      </trkpt>
      <trkpt lat="42.2048490" lon="-7.8134940">
        <ele>503.2</ele>
        <time>2019-08-17T12:42:32Z</time>
      </trkpt>
      <trkpt lat="42.2048750" lon="-7.8135210">
        <ele>503.3</ele>
        <time>2019-08-17T12:42:33Z</time>
      </trkpt>
      <trkpt lat="42.2049010" lon="-7.8135480">
        <ele>503.4</ele>
        <time>2019-08-17T12:42:34Z</time>
      </trkpt>
      <trkpt lat="42.2049280" lon="-7.8135750">
        <ele>503.5</ele>
        <time>2019-08-17T12:42:35Z</time>
      </trkpt>
      <trkpt lat="42.2049540" lon="-7.8136010">
        <ele>503.6</ele>
        <time>2019-08-17T12:42:36Z</time>
      </trkpt>
      <trkpt lat="42.2049800" lon="-7.8136280">
        <ele>503.7</ele>
        <time>2019-08-17T12:42:37Z</time>
      </trkpt>
      <trkpt lat="42.2050050" lon="-7.8136530">
        <ele>503.8</ele>
        <time>2019-08-17T12:42:38Z</time>
      </trkpt>
      <trkpt lat="42.2050300" lon="-7.8136780">
        <ele>503.9</ele>
        <time>2019-08-17T12:42:39Z</time>
      </trkpt>
      <trkpt lat="42.2050540" lon="-7.8137020">
        <ele>504.0</ele>
        <time>2019-08-17T12:42:40Z</time>
      </trkpt>
      <trkpt lat="42.2050770" lon="-7.8137260">
        <ele>504.1</ele>
        <time>2019-08-17T12:42:41Z</time>
      </trkpt>
      <trkpt lat="42.2051010" lon="-7.8137490">
        <ele>504.2</ele>
        <time>2019-08-17T12:42:42Z</time>
      </trkpt>
      <trkpt lat="42.2051240" lon="-7.8137730">
        <ele>504.3</ele>
        <time>2019-08-17T12:42:43Z</time>
      </trkpt>
      <trkpt lat="42.2051470" lon="-7.8137960">
        <ele>504.4</ele>
        <time>2019-08-17T12:42:44Z</time>
      </trkpt>
      <trkpt lat="42.2051690" lon="-7.8138190">
        <ele>504.5</ele>
        <time>2019-08-17T12:42:45Z</time>
      </trkpt>
      <trkpt lat="42.2051920" lon="-7.8138420">
        <ele>504.6</ele>
        <time>2019-08-17T12:42:46Z</time>
      </trkpt>
      <trkpt lat="42.2052160" lon="-7.8138650">
        <ele>504.7</ele>
        <time>2019-08-17T12:42:47Z</time>
      </trkpt>
      <trkpt lat="42.2052390" lon="-7.8138890">
        <ele>504.8</ele>
        <time>2019-08-17T12:42:48Z</time>
      </trkpt>
      <trkpt lat="42.2052620" lon="-7.8139130">
        <ele>505.0</ele>
        <time>2019-08-17T12:42:49Z</time>
      </trkpt>
      <trkpt lat="42.2052860" lon="-7.8139370">
        <ele>505.1</ele>
        <time>2019-08-17T12:42:50Z</time>
      </trkpt>
      <trkpt lat="42.2053100" lon="-7.8139610">
        <ele>505.2</ele>
        <time>2019-08-17T12:42:51Z</time>
      </trkpt>
      <trkpt lat="42.2053330" lon="-7.8139850">
        <ele>505.3</ele>
        <time>2019-08-17T12:42:52Z</time>
      </trkpt>
      <trkpt lat="42.2053570" lon="-7.8140100">
        <ele>505.4</ele>
        <time>2019-08-17T12:42:53Z</time>
      </trkpt>
      <trkpt lat="42.2053800" lon="-7.8140340">
        <ele>505.6</ele>
        <time>2019-08-17T12:42:54Z</time>
      </trkpt>
      <trkpt lat="42.2054040" lon="-7.8140590">
        <ele>505.7</ele>
        <time>2019-08-17T12:42:55Z</time>
      </trkpt>
      <trkpt lat="42.2054270" lon="-7.8140830">
        <ele>505.9</ele>
        <time>2019-08-17T12:42:56Z</time>
      </trkpt>
      <trkpt lat="42.2054510" lon="-7.8141080">
        <ele>506.0</ele>
        <time>2019-08-17T12:42:57Z</time>
      </trkpt>
      <trkpt lat="42.2054740" lon="-7.8141320">
        <ele>506.1</ele>
        <time>2019-08-17T12:42:58Z</time>
      </trkpt>
      <trkpt lat="42.2054970" lon="-7.8141570">
        <ele>506.3</ele>
        <time>2019-08-17T12:42:59Z</time>
      </trkpt>
      <trkpt lat="42.2055190" lon="-7.8141810">
        <ele>506.4</ele>
        <time>2019-08-17T12:43:00Z</time>
      </trkpt>
      <trkpt lat="42.2055420" lon="-7.8142050">
        <ele>506.6</ele>
        <time>2019-08-17T12:43:01Z</time>
      </trkpt>
      <trkpt lat="42.2055640" lon="-7.8142290">
        <ele>506.7</ele>
        <time>2019-08-17T12:43:02Z</time>
      </trkpt>
      <trkpt lat="42.2055850" lon="-7.8142530">
        <ele>506.9</ele>
        <time>2019-08-17T12:43:03Z</time>
      </trkpt>
      <trkpt lat="42.2056070" lon="-7.8142770">
        <ele>507.0</ele>
        <time>2019-08-17T12:43:04Z</time>
      </trkpt>
      <trkpt lat="42.2056280" lon="-7.8143010">
        <ele>507.2</ele>
        <time>2019-08-17T12:43:05Z</time>
      </trkpt>
      <trkpt lat="42.2056490" lon="-7.8143240">
        <ele>507.3</ele>
        <time>2019-08-17T12:43:06Z</time>
      </trkpt>
      <trkpt lat="42.2056700" lon="-7.8143480">
        <ele>507.5</ele>
        <time>2019-08-17T12:43:07Z</time>
      </trkpt>
      <trkpt lat="42.2056910" lon="-7.8143710">
        <ele>507.6</ele>
        <time>2019-08-17T12:43:08Z</time>
      </trkpt>
      <trkpt lat="42.2057120" lon="-7.8143950">
        <ele>507.8</ele>
        <time>2019-08-17T12:43:09Z</time>
      </trkpt>
      <trkpt lat="42.2057320" lon="-7.8144180">
        <ele>507.9</ele>
        <time>2019-08-17T12:43:10Z</time>
      </trkpt>
      <trkpt lat="42.2057530" lon="-7.8144420">
        <ele>508.0</ele>
        <time>2019-08-17T12:43:11Z</time>
      </trkpt>
      <trkpt lat="42.2057740" lon="-7.8144650">
        <ele>508.2</ele>
        <time>2019-08-17T12:43:12Z</time>
      </trkpt>
      <trkpt lat="42.2057940" lon="-7.8144890">
        <ele>508.3</ele>
        <time>2019-08-17T12:43:13Z</time>
      </trkpt>
      <trkpt lat="42.2058150" lon="-7.8145130">
        <ele>508.5</ele>
        <time>2019-08-17T12:43:14Z</time>
      </trkpt>
      <trkpt lat="42.2058360" lon="-7.8145360">
        <ele>508.6</ele>
        <time>2019-08-17T12:43:15Z</time>
      </trkpt>
      <trkpt lat="42.2058570" lon="-7.8145600">
        <ele>508.8</ele>
        <time>2019-08-17T12:43:16Z</time>
      </trkpt>
      <trkpt lat="42.2058780" lon="-7.8145840">
        <ele>508.9</ele>
        <time>2019-08-17T12:43:17Z</time>
      </trkpt>
      <trkpt lat="42.2059000" lon="-7.8146090">
        <ele>509.1</ele>
        <time>2019-08-17T12:43:18Z</time>
      </trkpt>
      <trkpt lat="42.2059210" lon="-7.8146330">
        <ele>509.2</ele>
        <time>2019-08-17T12:43:19Z</time>
      </trkpt>
      <trkpt lat="42.2059430" lon="-7.8146580">
        <ele>509.3</ele>
        <time>2019-08-17T12:43:20Z</time>
      </trkpt>
      <trkpt lat="42.2059650" lon="-7.8146840">
        <ele>509.5</ele>
        <time>2019-08-17T12:43:21Z</time>
      </trkpt>
      <trkpt lat="42.2059870" lon="-7.8147100">
        <ele>509.6</ele>
        <time>2019-08-17T12:43:22Z</time>
      </trkpt>
      <trkpt lat="42.2060090" lon="-7.8147380">
        <ele>509.8</ele>
        <time>2019-08-17T12:43:23Z</time>
      </trkpt>
      <trkpt lat="42.2060320" lon="-7.8147660">
        <ele>509.9</ele>
        <time>2019-08-17T12:43:24Z</time>
      </trkpt>
      <trkpt lat="42.2060540" lon="-7.8147960">
        <ele>510.0</ele>
        <time>2019-08-17T12:43:25Z</time>
      </trkpt>
      <trkpt lat="42.2060770" lon="-7.8148260">
        <ele>510.2</ele>
        <time>2019-08-17T12:43:26Z</time>
      </trkpt>
      <trkpt lat="42.2060990" lon="-7.8148580">
        <ele>510.3</ele>
        <time>2019-08-17T12:43:27Z</time>
      </trkpt>
      <trkpt lat="42.2061220" lon="-7.8148910">
        <ele>510.4</ele>
        <time>2019-08-17T12:43:28Z</time>
      </trkpt>
      <trkpt lat="42.2061440" lon="-7.8149240">
        <ele>510.6</ele>
        <time>2019-08-17T12:43:29Z</time>
      </trkpt>
      <trkpt lat="42.2061660" lon="-7.8149580">
        <ele>510.7</ele>
        <time>2019-08-17T12:43:30Z</time>
      </trkpt>
      <trkpt lat="42.2061880" lon="-7.8149920">
        <ele>510.8</ele>
        <time>2019-08-17T12:43:31Z</time>
      </trkpt>
      <trkpt lat="42.2062100" lon="-7.8150250">
        <ele>510.9</ele>
        <time>2019-08-17T12:43:32Z</time>
      </trkpt>
      <trkpt lat="42.2062320" lon="-7.8150580">
        <ele>511.1</ele>
        <time>2019-08-17T12:43:33Z</time>
      </trkpt>
      <trkpt lat="42.2062540" lon="-7.8150900">
        <ele>511.2</ele>
        <time>2019-08-17T12:43:34Z</time>
      </trkpt>
      <trkpt lat="42.2062750" lon="-7.8151220">
        <ele>511.4</ele>
        <time>2019-08-17T12:43:35Z</time>
      </trkpt>
      <trkpt lat="42.2062950" lon="-7.8151520">
        <ele>511.5</ele>
        <time>2019-08-17T12:43:36Z</time>
      </trkpt>
      <trkpt lat="42.2063150" lon="-7.8151820">
        <ele>511.6</ele>
        <time>2019-08-17T12:43:37Z</time>
      </trkpt>
      <trkpt lat="42.2063350" lon="-7.8152110">
        <ele>511.7</ele>
        <time>2019-08-17T12:43:38Z</time>
      </trkpt>
      <trkpt lat="42.2063530" lon="-7.8152380">
        <ele>511.7</ele>
        <time>2019-08-17T12:43:39Z</time>
      </trkpt>
      <trkpt lat="42.2063710" lon="-7.8152640">
        <ele>511.8</ele>
        <time>2019-08-17T12:43:40Z</time>
      </trkpt>
      <trkpt lat="42.2063880" lon="-7.8152890">
        <ele>511.9</ele>
        <time>2019-08-17T12:43:41Z</time>
      </trkpt>
      <trkpt lat="42.2064050" lon="-7.8153130">
        <ele>512.0</ele>
        <time>2019-08-17T12:43:42Z</time>
      </trkpt>
      <trkpt lat="42.2064200" lon="-7.8153360">
        <ele>512.0</ele>
        <time>2019-08-17T12:43:43Z</time>
      </trkpt>
      <trkpt lat="42.2064360" lon="-7.8153580">
        <ele>512.1</ele>
        <time>2019-08-17T12:43:44Z</time>
      </trkpt>
      <trkpt lat="42.2064510" lon="-7.8153810">
        <ele>512.1</ele>
        <time>2019-08-17T12:43:45Z</time>
      </trkpt>
      <trkpt lat="42.2064660" lon="-7.8154030">
        <ele>512.2</ele>
        <time>2019-08-17T12:43:46Z</time>
      </trkpt>
      <trkpt lat="42.2064800" lon="-7.8154270">
        <ele>512.4</ele>
        <time>2019-08-17T12:43:47Z</time>
      </trkpt>
      <trkpt lat="42.2064950" lon="-7.8154510">
        <ele>512.5</ele>
        <time>2019-08-17T12:43:48Z</time>
      </trkpt>
      <trkpt lat="42.2065100" lon="-7.8154770">
        <ele>512.6</ele>
        <time>2019-08-17T12:43:49Z</time>
      </trkpt>
      <trkpt lat="42.2065260" lon="-7.8155040">
        <ele>512.7</ele>
        <time>2019-08-17T12:43:50Z</time>
      </trkpt>
      <trkpt lat="42.2065410" lon="-7.8155320">
        <ele>512.8</ele>
        <time>2019-08-17T12:43:51Z</time>
      </trkpt>
      <trkpt lat="42.2065570" lon="-7.8155620">
        <ele>513.0</ele>
        <time>2019-08-17T12:43:52Z</time>
      </trkpt>
      <trkpt lat="42.2065740" lon="-7.8155910">
        <ele>513.1</ele>
        <time>2019-08-17T12:43:53Z</time>
      </trkpt>
      <trkpt lat="42.2065900" lon="-7.8156220">
        <ele>513.3</ele>
        <time>2019-08-17T12:43:54Z</time>
      </trkpt>
      <trkpt lat="42.2066070" lon="-7.8156530">
        <ele>513.4</ele>
        <time>2019-08-17T12:43:55Z</time>
      </trkpt>
      <trkpt lat="42.2066250" lon="-7.8156850">
        <ele>513.5</ele>
        <time>2019-08-17T12:43:56Z</time>
      </trkpt>
      <trkpt lat="42.2066430" lon="-7.8157170">
        <ele>513.6</ele>
        <time>2019-08-17T12:43:57Z</time>
      </trkpt>
      <trkpt lat="42.2066610" lon="-7.8157490">
        <ele>513.8</ele>
        <time>2019-08-17T12:43:58Z</time>
      </trkpt>
      <trkpt lat="42.2066790" lon="-7.8157810">
        <ele>513.9</ele>
        <time>2019-08-17T12:43:59Z</time>
      </trkpt>
      <trkpt lat="42.2066980" lon="-7.8158130">
        <ele>514.0</ele>
        <time>2019-08-17T12:44:00Z</time>
      </trkpt>
      <trkpt lat="42.2067160" lon="-7.8158450">
        <ele>514.2</ele>
        <time>2019-08-17T12:44:01Z</time>
      </trkpt>
      <trkpt lat="42.2067340" lon="-7.8158780">
        <ele>514.3</ele>
        <time>2019-08-17T12:44:02Z</time>
      </trkpt>
      <trkpt lat="42.2067520" lon="-7.8159100">
        <ele>514.4</ele>
        <time>2019-08-17T12:44:03Z</time>
      </trkpt>
      <trkpt lat="42.2067700" lon="-7.8159420">
        <ele>514.5</ele>
        <time>2019-08-17T12:44:04Z</time>
      </trkpt>
      <trkpt lat="42.2067880" lon="-7.8159740">
        <ele>514.7</ele>
        <time>2019-08-17T12:44:05Z</time>
      </trkpt>
      <trkpt lat="42.2068050" lon="-7.8160070">
        <ele>514.8</ele>
        <time>2019-08-17T12:44:06Z</time>
      </trkpt>
      <trkpt lat="42.2068220" lon="-7.8160390">
        <ele>514.9</ele>
        <time>2019-08-17T12:44:07Z</time>
      </trkpt>
      <trkpt lat="42.2068380" lon="-7.8160710">
        <ele>515.0</ele>
        <time>2019-08-17T12:44:08Z</time>
      </trkpt>
      <trkpt lat="42.2068550" lon="-7.8161030">
        <ele>515.4</ele>
        <time>2019-08-17T12:44:09Z</time>
      </trkpt>
      <trkpt lat="42.2068710" lon="-7.8161350">
        <ele>515.5</ele>
        <time>2019-08-17T12:44:10Z</time>
      </trkpt>
      <trkpt lat="42.2068870" lon="-7.8161670">
        <ele>515.6</ele>
        <time>2019-08-17T12:44:11Z</time>
      </trkpt>
      <trkpt lat="42.2069040" lon="-7.8161990">
        <ele>515.8</ele>
        <time>2019-08-17T12:44:12Z</time>
      </trkpt>
      <trkpt lat="42.2069200" lon="-7.8162320">
        <ele>515.9</ele>
        <time>2019-08-17T12:44:13Z</time>
      </trkpt>
      <trkpt lat="42.2069360" lon="-7.8162640">
        <ele>516.1</ele>
        <time>2019-08-17T12:44:14Z</time>
      </trkpt>
      <trkpt lat="42.2069520" lon="-7.8162960">
        <ele>516.2</ele>
        <time>2019-08-17T12:44:15Z</time>
      </trkpt>
      <trkpt lat="42.2069680" lon="-7.8163280">
        <ele>516.4</ele>
        <time>2019-08-17T12:44:16Z</time>
      </trkpt>
      <trkpt lat="42.2069840" lon="-7.8163610">
        <ele>516.5</ele>
        <time>2019-08-17T12:44:17Z</time>
      </trkpt>
      <trkpt lat="42.2070000" lon="-7.8163940">
        <ele>516.7</ele>
        <time>2019-08-17T12:44:18Z</time>
      </trkpt>
      <trkpt lat="42.2070160" lon="-7.8164260">
        <ele>516.8</ele>
        <time>2019-08-17T12:44:19Z</time>
      </trkpt>
      <trkpt lat="42.2070330" lon="-7.8164590">
        <ele>516.9</ele>
        <time>2019-08-17T12:44:20Z</time>
      </trkpt>
      <trkpt lat="42.2070500" lon="-7.8164920">
        <ele>517.1</ele>
        <time>2019-08-17T12:44:21Z</time>
      </trkpt>
      <trkpt lat="42.2070660" lon="-7.8165250">
        <ele>517.2</ele>
        <time>2019-08-17T12:44:22Z</time>
      </trkpt>
      <trkpt lat="42.2070830" lon="-7.8165580">
        <ele>517.4</ele>
        <time>2019-08-17T12:44:23Z</time>
      </trkpt>
      <trkpt lat="42.2071000" lon="-7.8165910">
        <ele>517.5</ele>
        <time>2019-08-17T12:44:24Z</time>
      </trkpt>
      <trkpt lat="42.2071170" lon="-7.8166240">
        <ele>517.6</ele>
        <time>2019-08-17T12:44:25Z</time>
      </trkpt>
      <trkpt lat="42.2071340" lon="-7.8166570">
        <ele>517.8</ele>
        <time>2019-08-17T12:44:26Z</time>
      </trkpt>
      <trkpt lat="42.2071520" lon="-7.8166900">
        <ele>517.9</ele>
        <time>2019-08-17T12:44:27Z</time>
      </trkpt>
      <trkpt lat="42.2071690" lon="-7.8167230">
        <ele>518.0</ele>
        <time>2019-08-17T12:44:28Z</time>
      </trkpt>
      <trkpt lat="42.2071860" lon="-7.8167560">
        <ele>518.1</ele>
        <time>2019-08-17T12:44:29Z</time>
      </trkpt>
      <trkpt lat="42.2072030" lon="-7.8167880">
        <ele>518.3</ele>
        <time>2019-08-17T12:44:30Z</time>
      </trkpt>
      <trkpt lat="42.2072200" lon="-7.8168210">
        <ele>518.4</ele>
        <time>2019-08-17T12:44:31Z</time>
      </trkpt>
      <trkpt lat="42.2072370" lon="-7.8168540">
        <ele>518.5</ele>
        <time>2019-08-17T12:44:32Z</time>
      </trkpt>
      <trkpt lat="42.2072540" lon="-7.8168860">
        <ele>518.6</ele>
        <time>2019-08-17T12:44:33Z</time>
      </trkpt>
      <trkpt lat="42.2072710" lon="-7.8169180">
        <ele>518.8</ele>
        <time>2019-08-17T12:44:34Z</time>
      </trkpt>
      <trkpt lat="42.2072880" lon="-7.8169500">
        <ele>518.9</ele>
        <time>2019-08-17T12:44:35Z</time>
      </trkpt>
      <trkpt lat="42.2073050" lon="-7.8169820">
        <ele>519.0</ele>
        <time>2019-08-17T12:44:36Z</time>
      </trkpt>
      <trkpt lat="42.2073210" lon="-7.8170130">
        <ele>519.1</ele>
        <time>2019-08-17T12:44:37Z</time>
      </trkpt>
      <trkpt lat="42.2073380" lon="-7.8170450">
        <ele>519.3</ele>
        <time>2019-08-17T12:44:38Z</time>
      </trkpt>
      <trkpt lat="42.2073550" lon="-7.8170770">
        <ele>519.4</ele>
        <time>2019-08-17T12:44:39Z</time>
      </trkpt>
      <trkpt lat="42.2073720" lon="-7.8171080">
        <ele>519.5</ele>
        <time>2019-08-17T12:44:40Z</time>
      </trkpt>
      <trkpt lat="42.2073900" lon="-7.8171410">
        <ele>519.7</ele>
        <time>2019-08-17T12:44:41Z</time>
      </trkpt>
      <trkpt lat="42.2074070" lon="-7.8171730">
        <ele>519.8</ele>
        <time>2019-08-17T12:44:42Z</time>
      </trkpt>
      <trkpt lat="42.2074260" lon="-7.8172060">
        <ele>519.9</ele>
        <time>2019-08-17T12:44:43Z</time>
      </trkpt>
      <trkpt lat="42.2074450" lon="-7.8172400">
        <ele>520.1</ele>
        <time>2019-08-17T12:44:44Z</time>
      </trkpt>
      <trkpt lat="42.2074640" lon="-7.8172740">
        <ele>520.2</ele>
        <time>2019-08-17T12:44:45Z</time>
      </trkpt>
      <trkpt lat="42.2074840" lon="-7.8173080">
        <ele>520.3</ele>
        <time>2019-08-17T12:44:46Z</time>
      </trkpt>
      <trkpt lat="42.2075040" lon="-7.8173430">
        <ele>520.5</ele>
        <time>2019-08-17T12:44:47Z</time>
      </trkpt>
      <trkpt lat="42.2075250" lon="-7.8173780">
        <ele>520.6</ele>
        <time>2019-08-17T12:44:48Z</time>
      </trkpt>
      <trkpt lat="42.2075460" lon="-7.8174140">
        <ele>520.8</ele>
        <time>2019-08-17T12:44:49Z</time>
      </trkpt>
      <trkpt lat="42.2075670" lon="-7.8174500">
        <ele>520.9</ele>
        <time>2019-08-17T12:44:50Z</time>
      </trkpt>
      <trkpt lat="42.2075880" lon="-7.8174850">
        <ele>521.1</ele>
        <time>2019-08-17T12:44:51Z</time>
      </trkpt>
      <trkpt lat="42.2076090" lon="-7.8175210">
        <ele>521.2</ele>
        <time>2019-08-17T12:44:52Z</time>
      </trkpt>
      <trkpt lat="42.2076310" lon="-7.8175570">
        <ele>521.3</ele>
        <time>2019-08-17T12:44:53Z</time>
      </trkpt>
      <trkpt lat="42.2076520" lon="-7.8175930">
        <ele>521.5</ele>
        <time>2019-08-17T12:44:54Z</time>
      </trkpt>
      <trkpt lat="42.2076740" lon="-7.8176290">
        <ele>521.6</ele>
        <time>2019-08-17T12:44:55Z</time>
      </trkpt>
      <trkpt lat="42.2076960" lon="-7.8176650">
        <ele>521.8</ele>
        <time>2019-08-17T12:44:56Z</time>
      </trkpt>
      <trkpt lat="42.2077180" lon="-7.8177010">
        <ele>521.9</ele>
        <time>2019-08-17T12:44:57Z</time>
      </trkpt>
      <trkpt lat="42.2077400" lon="-7.8177370">
        <ele>522.0</ele>
        <time>2019-08-17T12:44:58Z</time>
      </trkpt>
      <trkpt lat="42.2077630" lon="-7.8177730">
        <ele>522.0</ele>
        <time>2019-08-17T12:44:59Z</time>
      </trkpt>
      <trkpt lat="42.2077850" lon="-7.8178080">
        <ele>522.2</ele>
        <time>2019-08-17T12:45:00Z</time>
      </trkpt>
      <trkpt lat="42.2078080" lon="-7.8178440">
        <ele>522.4</ele>
        <time>2019-08-17T12:45:01Z</time>
      </trkpt>
      <trkpt lat="42.2078310" lon="-7.8178790">
        <ele>522.5</ele>
        <time>2019-08-17T12:45:02Z</time>
      </trkpt>
      <trkpt lat="42.2078550" lon="-7.8179150">
        <ele>522.6</ele>
        <time>2019-08-17T12:45:03Z</time>
      </trkpt>
      <trkpt lat="42.2078780" lon="-7.8179500">
        <ele>522.7</ele>
        <time>2019-08-17T12:45:04Z</time>
      </trkpt>
      <trkpt lat="42.2079020" lon="-7.8179850">
        <ele>522.8</ele>
        <time>2019-08-17T12:45:05Z</time>
      </trkpt>
      <trkpt lat="42.2079260" lon="-7.8180210">
        <ele>523.0</ele>
        <time>2019-08-17T12:45:06Z</time>
      </trkpt>
      <trkpt lat="42.2079500" lon="-7.8180560">
        <ele>523.1</ele>
        <time>2019-08-17T12:45:07Z</time>
      </trkpt>
      <trkpt lat="42.2079740" lon="-7.8180910">
        <ele>523.2</ele>
        <time>2019-08-17T12:45:08Z</time>
      </trkpt>
      <trkpt lat="42.2079990" lon="-7.8181260">
        <ele>523.3</ele>
        <time>2019-08-17T12:45:09Z</time>
      </trkpt>
      <trkpt lat="42.2080240" lon="-7.8181610">
        <ele>523.4</ele>
        <time>2019-08-17T12:45:10Z</time>
      </trkpt>
      <trkpt lat="42.2080490" lon="-7.8181960">
        <ele>523.6</ele>
        <time>2019-08-17T12:45:11Z</time>
      </trkpt>
      <trkpt lat="42.2080740" lon="-7.8182310">
        <ele>523.7</ele>
        <time>2019-08-17T12:45:12Z</time>
      </trkpt>
      <trkpt lat="42.2081000" lon="-7.8182650">
        <ele>523.8</ele>
        <time>2019-08-17T12:45:13Z</time>
      </trkpt>
      <trkpt lat="42.2081260" lon="-7.8182990">
        <ele>523.9</ele>
        <time>2019-08-17T12:45:14Z</time>
      </trkpt>
      <trkpt lat="42.2081520" lon="-7.8183330">
        <ele>524.0</ele>
        <time>2019-08-17T12:45:15Z</time>
      </trkpt>
      <trkpt lat="42.2081780" lon="-7.8183660">
        <ele>524.1</ele>
        <time>2019-08-17T12:45:16Z</time>
      </trkpt>
      <trkpt lat="42.2082020" lon="-7.8184010">
        <ele>524.2</ele>
        <time>2019-08-17T12:45:17Z</time>
      </trkpt>
      <trkpt lat="42.2082250" lon="-7.8184360">
        <ele>524.3</ele>
        <time>2019-08-17T12:45:18Z</time>
      </trkpt>
      <trkpt lat="42.2082440" lon="-7.8184720">
        <ele>524.4</ele>
        <time>2019-08-17T12:45:19Z</time>
      </trkpt>
      <trkpt lat="42.2082630" lon="-7.8185080">
        <ele>524.5</ele>
        <time>2019-08-17T12:45:20Z</time>
      </trkpt>
      <trkpt lat="42.2082810" lon="-7.8185430">
        <ele>524.5</ele>
        <time>2019-08-17T12:45:21Z</time>
      </trkpt>
      <trkpt lat="42.2083020" lon="-7.8185770">
        <ele>524.6</ele>
        <time>2019-08-17T12:45:22Z</time>
      </trkpt>
      <trkpt lat="42.2083250" lon="-7.8186070">
        <ele>524.6</ele>
        <time>2019-08-17T12:45:23Z</time>
      </trkpt>
      <trkpt lat="42.2083510" lon="-7.8186360">
        <ele>524.6</ele>
        <time>2019-08-17T12:45:24Z</time>
      </trkpt>
      <trkpt lat="42.2083790" lon="-7.8186660">
        <ele>524.7</ele>
        <time>2019-08-17T12:45:25Z</time>
      </trkpt>
      <trkpt lat="42.2084080" lon="-7.8186970">
        <ele>524.7</ele>
        <time>2019-08-17T12:45:26Z</time>
      </trkpt>
      <trkpt lat="42.2084380" lon="-7.8187320">
        <ele>524.7</ele>
        <time>2019-08-17T12:45:27Z</time>
      </trkpt>
      <trkpt lat="42.2084690" lon="-7.8187700">
        <ele>524.8</ele>
        <time>2019-08-17T12:45:28Z</time>
      </trkpt>
      <trkpt lat="42.2085000" lon="-7.8188080">
        <ele>524.7</ele>
        <time>2019-08-17T12:45:29Z</time>
      </trkpt>
      <trkpt lat="42.2085320" lon="-7.8188460">
        <ele>524.7</ele>
        <time>2019-08-17T12:45:30Z</time>
      </trkpt>
      <trkpt lat="42.2085660" lon="-7.8188840">
        <ele>524.7</ele>
        <time>2019-08-17T12:45:31Z</time>
      </trkpt>
      <trkpt lat="42.2085990" lon="-7.8189190">
        <ele>524.8</ele>
        <time>2019-08-17T12:45:32Z</time>
      </trkpt>
      <trkpt lat="42.2086340" lon="-7.8189540">
        <ele>524.8</ele>
        <time>2019-08-17T12:45:33Z</time>
      </trkpt>
      <trkpt lat="42.2086700" lon="-7.8189880">
        <ele>524.9</ele>
        <time>2019-08-17T12:45:34Z</time>
      </trkpt>
      <trkpt lat="42.2087060" lon="-7.8190220">
        <ele>525.0</ele>
        <time>2019-08-17T12:45:35Z</time>
      </trkpt>
      <trkpt lat="42.2087420" lon="-7.8190550">
        <ele>525.1</ele>
        <time>2019-08-17T12:45:36Z</time>
      </trkpt>
      <trkpt lat="42.2087800" lon="-7.8190880">
        <ele>525.2</ele>
        <time>2019-08-17T12:45:37Z</time>
      </trkpt>
      <trkpt lat="42.2088170" lon="-7.8191210">
        <ele>525.3</ele>
        <time>2019-08-17T12:45:38Z</time>
      </trkpt>
      <trkpt lat="42.2088560" lon="-7.8191540">
        <ele>525.4</ele>
        <time>2019-08-17T12:45:39Z</time>
      </trkpt>
      <trkpt lat="42.2088940" lon="-7.8191870">
        <ele>525.5</ele>
        <time>2019-08-17T12:45:40Z</time>
      </trkpt>
      <trkpt lat="42.2089330" lon="-7.8192200">
        <ele>525.6</ele>
        <time>2019-08-17T12:45:41Z</time>
      </trkpt>
      <trkpt lat="42.2089720" lon="-7.8192530">
        <ele>525.7</ele>
        <time>2019-08-17T12:45:42Z</time>
      </trkpt>
      <trkpt lat="42.2090100" lon="-7.8192850">
        <ele>525.8</ele>
        <time>2019-08-17T12:45:43Z</time>
      </trkpt>
      <trkpt lat="42.2090490" lon="-7.8193160">
        <ele>526.0</ele>
        <time>2019-08-17T12:45:44Z</time>
      </trkpt>
      <trkpt lat="42.2090880" lon="-7.8193470">
        <ele>526.1</ele>
        <time>2019-08-17T12:45:45Z</time>
      </trkpt>
      <trkpt lat="42.2091260" lon="-7.8193760">
        <ele>526.2</ele>
        <time>2019-08-17T12:45:46Z</time>
      </trkpt>
      <trkpt lat="42.2091650" lon="-7.8194030">
        <ele>526.3</ele>
        <time>2019-08-17T12:45:47Z</time>
      </trkpt>
      <trkpt lat="42.2092030" lon="-7.8194300">
        <ele>526.4</ele>
        <time>2019-08-17T12:45:48Z</time>
      </trkpt>
      <trkpt lat="42.2092420" lon="-7.8194560">
        <ele>526.5</ele>
        <time>2019-08-17T12:45:49Z</time>
      </trkpt>
      <trkpt lat="42.2092800" lon="-7.8194810">
        <ele>526.7</ele>
        <time>2019-08-17T12:45:50Z</time>
      </trkpt>
      <trkpt lat="42.2093180" lon="-7.8195060">
        <ele>526.8</ele>
        <time>2019-08-17T12:45:51Z</time>
      </trkpt>
      <trkpt lat="42.2093560" lon="-7.8195300">
        <ele>526.9</ele>
        <time>2019-08-17T12:45:52Z</time>
      </trkpt>
      <trkpt lat="42.2093940" lon="-7.8195540">
        <ele>526.9</ele>
        <time>2019-08-17T12:45:53Z</time>
      </trkpt>
      <trkpt lat="42.2094320" lon="-7.8195780">
        <ele>527.0</ele>
        <time>2019-08-17T12:45:54Z</time>
      </trkpt>
      <trkpt lat="42.2094700" lon="-7.8196020">
        <ele>527.1</ele>
        <time>2019-08-17T12:45:55Z</time>
      </trkpt>
      <trkpt lat="42.2095070" lon="-7.8196260">
        <ele>527.2</ele>
        <time>2019-08-17T12:45:56Z</time>
      </trkpt>
      <trkpt lat="42.2095440" lon="-7.8196490">
        <ele>527.3</ele>
        <time>2019-08-17T12:45:57Z</time>
      </trkpt>
      <trkpt lat="42.2095800" lon="-7.8196730">
        <ele>527.4</ele>
        <time>2019-08-17T12:45:58Z</time>
      </trkpt>
      <trkpt lat="42.2096160" lon="-7.8196960">
        <ele>527.5</ele>
        <time>2019-08-17T12:45:59Z</time>
      </trkpt>
      <trkpt lat="42.2096520" lon="-7.8197180">
        <ele>527.6</ele>
        <time>2019-08-17T12:46:00Z</time>
      </trkpt>
      <trkpt lat="42.2096870" lon="-7.8197400">
        <ele>527.6</ele>
        <time>2019-08-17T12:46:01Z</time>
      </trkpt>
      <trkpt lat="42.2097210" lon="-7.8197620">
        <ele>527.7</ele>
        <time>2019-08-17T12:46:02Z</time>
      </trkpt>
      <trkpt lat="42.2097550" lon="-7.8197830">
        <ele>527.8</ele>
        <time>2019-08-17T12:46:03Z</time>
      </trkpt>
      <trkpt lat="42.2097880" lon="-7.8198040">
        <ele>527.9</ele>
        <time>2019-08-17T12:46:04Z</time>
      </trkpt>
      <trkpt lat="42.2098200" lon="-7.8198230">
        <ele>528.0</ele>
        <time>2019-08-17T12:46:05Z</time>
      </trkpt>
      <trkpt lat="42.2098510" lon="-7.8198420">
        <ele>528.1</ele>
        <time>2019-08-17T12:46:06Z</time>
      </trkpt>
      <trkpt lat="42.2098810" lon="-7.8198600">
        <ele>528.2</ele>
        <time>2019-08-17T12:46:07Z</time>
      </trkpt>
      <trkpt lat="42.2099100" lon="-7.8198770">
        <ele>528.3</ele>
        <time>2019-08-17T12:46:08Z</time>
      </trkpt>
      <trkpt lat="42.2099380" lon="-7.8198930">
        <ele>528.4</ele>
        <time>2019-08-17T12:46:09Z</time>
      </trkpt>
      <trkpt lat="42.2099650" lon="-7.8199090">
        <ele>528.6</ele>
        <time>2019-08-17T12:46:10Z</time>
      </trkpt>
      <trkpt lat="42.2099930" lon="-7.8199240">
        <ele>528.8</ele>
        <time>2019-08-17T12:46:11Z</time>
      </trkpt>
      <trkpt lat="42.2100230" lon="-7.8199390">
        <ele>529.0</ele>
        <time>2019-08-17T12:46:12Z</time>
      </trkpt>
      <trkpt lat="42.2100540" lon="-7.8199550">
        <ele>529.3</ele>
        <time>2019-08-17T12:46:13Z</time>
      </trkpt>
      <trkpt lat="42.2100860" lon="-7.8199720">
        <ele>529.5</ele>
        <time>2019-08-17T12:46:14Z</time>
      </trkpt>
      <trkpt lat="42.2101170" lon="-7.8199880">
        <ele>529.8</ele>
        <time>2019-08-17T12:46:15Z</time>
      </trkpt>
      <trkpt lat="42.2101470" lon="-7.8200050">
        <ele>530.0</ele>
        <time>2019-08-17T12:46:16Z</time>
      </trkpt>
      <trkpt lat="42.2101750" lon="-7.8200220">
        <ele>530.2</ele>
        <time>2019-08-17T12:46:17Z</time>
      </trkpt>
      <trkpt lat="42.2102000" lon="-7.8200390">
        <ele>530.4</ele>
        <time>2019-08-17T12:46:18Z</time>
      </trkpt>
      <trkpt lat="42.2102220" lon="-7.8200550">
        <ele>530.6</ele>
        <time>2019-08-17T12:46:19Z</time>
      </trkpt>
      <trkpt lat="42.2102420" lon="-7.8200690">
        <ele>530.7</ele>
        <time>2019-08-17T12:46:20Z</time>
      </trkpt>
      <trkpt lat="42.2102600" lon="-7.8200830">
        <ele>530.8</ele>
        <time>2019-08-17T12:46:21Z</time>
      </trkpt>
      <trkpt lat="42.2102780" lon="-7.8200950">
        <ele>530.9</ele>
        <time>2019-08-17T12:46:22Z</time>
      </trkpt>
      <trkpt lat="42.2103070" lon="-7.8201110">
        <ele>531.1</ele>
        <time>2019-08-17T12:46:23Z</time>
      </trkpt>
      <trkpt lat="42.2103170" lon="-7.8201170">
        <ele>531.1</ele>
        <time>2019-08-17T12:46:24Z</time>
      </trkpt>
      <trkpt lat="42.2103410" lon="-7.8201280">
        <ele>531.3</ele>
        <time>2019-08-17T12:46:25Z</time>
      </trkpt>
      <trkpt lat="42.2103680" lon="-7.8201390">
        <ele>531.5</ele>
        <time>2019-08-17T12:46:26Z</time>
      </trkpt>
      <trkpt lat="42.2103950" lon="-7.8201500">
        <ele>531.6</ele>
        <time>2019-08-17T12:46:27Z</time>
      </trkpt>
      <trkpt lat="42.2104210" lon="-7.8201610">
        <ele>531.8</ele>
        <time>2019-08-17T12:46:28Z</time>
      </trkpt>
      <trkpt lat="42.2104450" lon="-7.8201730">
        <ele>532.0</ele>
        <time>2019-08-17T12:46:29Z</time>
      </trkpt>
      <trkpt lat="42.2104670" lon="-7.8201840">
        <ele>532.1</ele>
        <time>2019-08-17T12:46:30Z</time>
      </trkpt>
      <trkpt lat="42.2104900" lon="-7.8201960">
        <ele>532.3</ele>
        <time>2019-08-17T12:46:31Z</time>
      </trkpt>
      <trkpt lat="42.2105120" lon="-7.8202070">
        <ele>532.4</ele>
        <time>2019-08-17T12:46:32Z</time>
      </trkpt>
      <trkpt lat="42.2105360" lon="-7.8202180">
        <ele>532.5</ele>
        <time>2019-08-17T12:46:33Z</time>
      </trkpt>
      <trkpt lat="42.2105610" lon="-7.8202300">
        <ele>532.6</ele>
        <time>2019-08-17T12:46:34Z</time>
      </trkpt>
      <trkpt lat="42.2105870" lon="-7.8202410">
        <ele>532.8</ele>
        <time>2019-08-17T12:46:35Z</time>
      </trkpt>
      <trkpt lat="42.2106140" lon="-7.8202520">
        <ele>532.9</ele>
        <time>2019-08-17T12:46:36Z</time>
      </trkpt>
      <trkpt lat="42.2106410" lon="-7.8202640">
        <ele>533.1</ele>
        <time>2019-08-17T12:46:37Z</time>
      </trkpt>
      <trkpt lat="42.2106700" lon="-7.8202760">
        <ele>533.2</ele>
        <time>2019-08-17T12:46:38Z</time>
      </trkpt>
      <trkpt lat="42.2106980" lon="-7.8202880">
        <ele>533.4</ele>
        <time>2019-08-17T12:46:39Z</time>
      </trkpt>
      <trkpt lat="42.2107270" lon="-7.8203000">
        <ele>533.6</ele>
        <time>2019-08-17T12:46:40Z</time>
      </trkpt>
      <trkpt lat="42.2107560" lon="-7.8203120">
        <ele>533.7</ele>
        <time>2019-08-17T12:46:41Z</time>
      </trkpt>
      <trkpt lat="42.2107860" lon="-7.8203250">
        <ele>533.9</ele>
        <time>2019-08-17T12:46:42Z</time>
      </trkpt>
      <trkpt lat="42.2108150" lon="-7.8203370">
        <ele>534.1</ele>
        <time>2019-08-17T12:46:43Z</time>
      </trkpt>
      <trkpt lat="42.2108440" lon="-7.8203500">
        <ele>534.2</ele>
        <time>2019-08-17T12:46:44Z</time>
      </trkpt>
      <trkpt lat="42.2108740" lon="-7.8203630">
        <ele>534.4</ele>
        <time>2019-08-17T12:46:45Z</time>
      </trkpt>
      <trkpt lat="42.2109040" lon="-7.8203760">
        <ele>534.6</ele>
        <time>2019-08-17T12:46:46Z</time>
      </trkpt>
      <trkpt lat="42.2109330" lon="-7.8203900">
        <ele>534.8</ele>
        <time>2019-08-17T12:46:47Z</time>
      </trkpt>
      <trkpt lat="42.2109630" lon="-7.8204030">
        <ele>535.0</ele>
        <time>2019-08-17T12:46:48Z</time>
      </trkpt>
      <trkpt lat="42.2109920" lon="-7.8204160">
        <ele>535.2</ele>
        <time>2019-08-17T12:46:49Z</time>
      </trkpt>
      <trkpt lat="42.2110210" lon="-7.8204290">
        <ele>535.4</ele>
        <time>2019-08-17T12:46:50Z</time>
      </trkpt>
      <trkpt lat="42.2110500" lon="-7.8204420">
        <ele>535.5</ele>
        <time>2019-08-17T12:46:51Z</time>
      </trkpt>
      <trkpt lat="42.2110790" lon="-7.8204550">
        <ele>535.8</ele>
        <time>2019-08-17T12:46:52Z</time>
      </trkpt>
      <trkpt lat="42.2111070" lon="-7.8204680">
        <ele>536.0</ele>
        <time>2019-08-17T12:46:53Z</time>
      </trkpt>
      <trkpt lat="42.2111350" lon="-7.8204810">
        <ele>536.2</ele>
        <time>2019-08-17T12:46:54Z</time>
      </trkpt>
      <trkpt lat="42.2111630" lon="-7.8204930">
        <ele>536.4</ele>
        <time>2019-08-17T12:46:55Z</time>
      </trkpt>
      <trkpt lat="42.2111900" lon="-7.8205060">
        <ele>536.6</ele>
        <time>2019-08-17T12:46:56Z</time>
      </trkpt>
      <trkpt lat="42.2112170" lon="-7.8205180">
        <ele>536.7</ele>
        <time>2019-08-17T12:46:57Z</time>
      </trkpt>
      <trkpt lat="42.2112440" lon="-7.8205300">
        <ele>536.9</ele>
        <time>2019-08-17T12:46:58Z</time>
      </trkpt>
      <trkpt lat="42.2112700" lon="-7.8205430">
        <ele>537.1</ele>
        <time>2019-08-17T12:46:59Z</time>
      </trkpt>
      <trkpt lat="42.2112970" lon="-7.8205550">
        <ele>537.3</ele>
        <time>2019-08-17T12:47:00Z</time>
      </trkpt>
      <trkpt lat="42.2113230" lon="-7.8205670">
        <ele>537.5</ele>
        <time>2019-08-17T12:47:01Z</time>
      </trkpt>
      <trkpt lat="42.2113490" lon="-7.8205800">
        <ele>537.7</ele>
        <time>2019-08-17T12:47:02Z</time>
      </trkpt>
      <trkpt lat="42.2113760" lon="-7.8205930">
        <ele>537.9</ele>
        <time>2019-08-17T12:47:03Z</time>
      </trkpt>
      <trkpt lat="42.2114030" lon="-7.8206060">
        <ele>538.1</ele>
        <time>2019-08-17T12:47:04Z</time>
      </trkpt>
      <trkpt lat="42.2114300" lon="-7.8206200">
        <ele>538.2</ele>
        <time>2019-08-17T12:47:05Z</time>
      </trkpt>
      <trkpt lat="42.2114570" lon="-7.8206340">
        <ele>538.4</ele>
        <time>2019-08-17T12:47:06Z</time>
      </trkpt>
      <trkpt lat="42.2114850" lon="-7.8206480">
        <ele>538.6</ele>
        <time>2019-08-17T12:47:07Z</time>
      </trkpt>
      <trkpt lat="42.2115130" lon="-7.8206630">
        <ele>538.8</ele>
        <time>2019-08-17T12:47:08Z</time>
      </trkpt>
      <trkpt lat="42.2115420" lon="-7.8206780">
        <ele>539.0</ele>
        <time>2019-08-17T12:47:09Z</time>
      </trkpt>
      <trkpt lat="42.2115710" lon="-7.8206930">
        <ele>539.2</ele>
        <time>2019-08-17T12:47:10Z</time>
      </trkpt>
      <trkpt lat="42.2116010" lon="-7.8207080">
        <ele>539.5</ele>
        <time>2019-08-17T12:47:11Z</time>
      </trkpt>
      <trkpt lat="42.2116320" lon="-7.8207240">
        <ele>539.7</ele>
        <time>2019-08-17T12:47:12Z</time>
      </trkpt>
      <trkpt lat="42.2116630" lon="-7.8207400">
        <ele>540.0</ele>
        <time>2019-08-17T12:47:13Z</time>
      </trkpt>
      <trkpt lat="42.2116940" lon="-7.8207570">
        <ele>540.2</ele>
        <time>2019-08-17T12:47:14Z</time>
      </trkpt>
      <trkpt lat="42.2117260" lon="-7.8207740">
        <ele>540.9</ele>
        <time>2019-08-17T12:47:15Z</time>
      </trkpt>
      <trkpt lat="42.2117580" lon="-7.8207910">
        <ele>541.4</ele>
        <time>2019-08-17T12:47:16Z</time>
      </trkpt>
      <trkpt lat="42.2117890" lon="-7.8208090">
        <ele>541.9</ele>
        <time>2019-08-17T12:47:17Z</time>
      </trkpt>
      <trkpt lat="42.2118200" lon="-7.8208270">
        <ele>542.3</ele>
        <time>2019-08-17T12:47:18Z</time>
      </trkpt>
      <trkpt lat="42.2118510" lon="-7.8208460">
        <ele>542.7</ele>
        <time>2019-08-17T12:47:19Z</time>
      </trkpt>
      <trkpt lat="42.2118810" lon="-7.8208650">
        <ele>543.1</ele>
        <time>2019-08-17T12:47:20Z</time>
      </trkpt>
      <trkpt lat="42.2119110" lon="-7.8208840">
        <ele>543.4</ele>
        <time>2019-08-17T12:47:21Z</time>
      </trkpt>
      <trkpt lat="42.2119410" lon="-7.8209040">
        <ele>543.8</ele>
        <time>2019-08-17T12:47:22Z</time>
      </trkpt>
      <trkpt lat="42.2119700" lon="-7.8209240">
        <ele>544.0</ele>
        <time>2019-08-17T12:47:23Z</time>
      </trkpt>
      <trkpt lat="42.2119980" lon="-7.8209440">
        <ele>544.2</ele>
        <time>2019-08-17T12:47:24Z</time>
      </trkpt>
      <trkpt lat="42.2120270" lon="-7.8209650">
        <ele>544.5</ele>
        <time>2019-08-17T12:47:25Z</time>
      </trkpt>
      <trkpt lat="42.2120540" lon="-7.8209850">
        <ele>544.7</ele>
        <time>2019-08-17T12:47:26Z</time>
      </trkpt>
      <trkpt lat="42.2120820" lon="-7.8210050">
        <ele>544.9</ele>
        <time>2019-08-17T12:47:27Z</time>
      </trkpt>
      <trkpt lat="42.2121090" lon="-7.8210260">
        <ele>545.2</ele>
        <time>2019-08-17T12:47:28Z</time>
      </trkpt>
      <trkpt lat="42.2121350" lon="-7.8210460">
        <ele>545.5</ele>
        <time>2019-08-17T12:47:29Z</time>
      </trkpt>
      <trkpt lat="42.2121620" lon="-7.8210660">
        <ele>545.8</ele>
        <time>2019-08-17T12:47:30Z</time>
      </trkpt>
      <trkpt lat="42.2121880" lon="-7.8210870">
        <ele>546.0</ele>
        <time>2019-08-17T12:47:31Z</time>
      </trkpt>
      <trkpt lat="42.2122130" lon="-7.8211080">
        <ele>546.3</ele>
        <time>2019-08-17T12:47:32Z</time>
      </trkpt>
      <trkpt lat="42.2122390" lon="-7.8211300">
        <ele>546.5</ele>
        <time>2019-08-17T12:47:33Z</time>
      </trkpt>
      <trkpt lat="42.2122640" lon="-7.8211520">
        <ele>546.7</ele>
        <time>2019-08-17T12:47:34Z</time>
      </trkpt>
      <trkpt lat="42.2122900" lon="-7.8211740">
        <ele>547.0</ele>
        <time>2019-08-17T12:47:35Z</time>
      </trkpt>
      <trkpt lat="42.2123150" lon="-7.8211970">
        <ele>547.2</ele>
        <time>2019-08-17T12:47:36Z</time>
      </trkpt>
      <trkpt lat="42.2123400" lon="-7.8212200">
        <ele>547.5</ele>
        <time>2019-08-17T12:47:37Z</time>
      </trkpt>
      <trkpt lat="42.2123660" lon="-7.8212430">
        <ele>547.8</ele>
        <time>2019-08-17T12:47:38Z</time>
      </trkpt>
      <trkpt lat="42.2123910" lon="-7.8212660">
        <ele>548.0</ele>
        <time>2019-08-17T12:47:39Z</time>
      </trkpt>
      <trkpt lat="42.2124170" lon="-7.8212890">
        <ele>548.3</ele>
        <time>2019-08-17T12:47:40Z</time>
      </trkpt>
      <trkpt lat="42.2124430" lon="-7.8213110">
        <ele>548.6</ele>
        <time>2019-08-17T12:47:41Z</time>
      </trkpt>
      <trkpt lat="42.2124700" lon="-7.8213330">
        <ele>548.8</ele>
        <time>2019-08-17T12:47:42Z</time>
      </trkpt>
      <trkpt lat="42.2124960" lon="-7.8213550">
        <ele>549.1</ele>
        <time>2019-08-17T12:47:43Z</time>
      </trkpt>
      <trkpt lat="42.2125220" lon="-7.8213770">
        <ele>549.3</ele>
        <time>2019-08-17T12:47:44Z</time>
      </trkpt>
      <trkpt lat="42.2125470" lon="-7.8213990">
        <ele>549.5</ele>
        <time>2019-08-17T12:47:45Z</time>
      </trkpt>
      <trkpt lat="42.2125720" lon="-7.8214230">
        <ele>549.8</ele>
        <time>2019-08-17T12:47:46Z</time>
      </trkpt>
      <trkpt lat="42.2125950" lon="-7.8214460">
        <ele>550.0</ele>
        <time>2019-08-17T12:47:47Z</time>
      </trkpt>
      <trkpt lat="42.2126170" lon="-7.8214690">
        <ele>550.2</ele>
        <time>2019-08-17T12:47:48Z</time>
      </trkpt>
      <trkpt lat="42.2126390" lon="-7.8214920">
        <ele>550.4</ele>
        <time>2019-08-17T12:47:49Z</time>
      </trkpt>
      <trkpt lat="42.2126600" lon="-7.8215130">
        <ele>550.7</ele>
        <time>2019-08-17T12:47:50Z</time>
      </trkpt>
      <trkpt lat="42.2126800" lon="-7.8215340">
        <ele>550.9</ele>
        <time>2019-08-17T12:47:51Z</time>
      </trkpt>
      <trkpt lat="42.2126990" lon="-7.8215530">
        <ele>551.1</ele>
        <time>2019-08-17T12:47:52Z</time>
      </trkpt>
      <trkpt lat="42.2127180" lon="-7.8215730">
        <ele>551.3</ele>
        <time>2019-08-17T12:47:53Z</time>
      </trkpt>
      <trkpt lat="42.2127360" lon="-7.8215940">
        <ele>551.5</ele>
        <time>2019-08-17T12:47:54Z</time>
      </trkpt>
      <trkpt lat="42.2127530" lon="-7.8216140">
        <ele>551.7</ele>
        <time>2019-08-17T12:47:55Z</time>
      </trkpt>
      <trkpt lat="42.2127710" lon="-7.8216360">
        <ele>551.9</ele>
        <time>2019-08-17T12:47:56Z</time>
      </trkpt>
      <trkpt lat="42.2127890" lon="-7.8216580">
        <ele>552.1</ele>
        <time>2019-08-17T12:47:57Z</time>
      </trkpt>
      <trkpt lat="42.2128090" lon="-7.8216810">
        <ele>552.3</ele>
        <time>2019-08-17T12:47:58Z</time>
      </trkpt>
      <trkpt lat="42.2128300" lon="-7.8217050">
        <ele>552.5</ele>
        <time>2019-08-17T12:47:59Z</time>
      </trkpt>
      <trkpt lat="42.2128520" lon="-7.8217300">
        <ele>552.7</ele>
        <time>2019-08-17T12:48:00Z</time>
      </trkpt>
      <trkpt lat="42.2128740" lon="-7.8217560">
        <ele>552.9</ele>
        <time>2019-08-17T12:48:01Z</time>
      </trkpt>
      <trkpt lat="42.2128970" lon="-7.8217820">
        <ele>553.2</ele>
        <time>2019-08-17T12:48:02Z</time>
      </trkpt>
      <trkpt lat="42.2129210" lon="-7.8218090">
        <ele>553.4</ele>
        <time>2019-08-17T12:48:03Z</time>
      </trkpt>
      <trkpt lat="42.2129440" lon="-7.8218360">
        <ele>553.6</ele>
        <time>2019-08-17T12:48:04Z</time>
      </trkpt>
      <trkpt lat="42.2129670" lon="-7.8218640">
        <ele>553.9</ele>
        <time>2019-08-17T12:48:05Z</time>
      </trkpt>
      <trkpt lat="42.2129890" lon="-7.8218910">
        <ele>554.1</ele>
        <time>2019-08-17T12:48:06Z</time>
      </trkpt>
      <trkpt lat="42.2130110" lon="-7.8219190">
        <ele>554.3</ele>
        <time>2019-08-17T12:48:07Z</time>
      </trkpt>
      <trkpt lat="42.2130330" lon="-7.8219470">
        <ele>554.5</ele>
        <time>2019-08-17T12:48:08Z</time>
      </trkpt>
      <trkpt lat="42.2130540" lon="-7.8219760">
        <ele>554.6</ele>
        <time>2019-08-17T12:48:09Z</time>
      </trkpt>
      <trkpt lat="42.2130750" lon="-7.8220040">
        <ele>554.8</ele>
        <time>2019-08-17T12:48:10Z</time>
      </trkpt>
      <trkpt lat="42.2130960" lon="-7.8220320">
        <ele>555.0</ele>
        <time>2019-08-17T12:48:11Z</time>
      </trkpt>
      <trkpt lat="42.2131180" lon="-7.8220600">
        <ele>555.2</ele>
        <time>2019-08-17T12:48:12Z</time>
      </trkpt>
      <trkpt lat="42.2131390" lon="-7.8220880">
        <ele>555.3</ele>
        <time>2019-08-17T12:48:13Z</time>
      </trkpt>
      <trkpt lat="42.2131600" lon="-7.8221150">
        <ele>555.5</ele>
        <time>2019-08-17T12:48:14Z</time>
      </trkpt>
      <trkpt lat="42.2131810" lon="-7.8221430">
        <ele>555.6</ele>
        <time>2019-08-17T12:48:15Z</time>
      </trkpt>
      <trkpt lat="42.2132030" lon="-7.8221710">
        <ele>555.7</ele>
        <time>2019-08-17T12:48:16Z</time>
      </trkpt>
      <trkpt lat="42.2132240" lon="-7.8221990">
        <ele>555.8</ele>
        <time>2019-08-17T12:48:17Z</time>
      </trkpt>
      <trkpt lat="42.2132450" lon="-7.8222270">
        <ele>556.0</ele>
        <time>2019-08-17T12:48:18Z</time>
      </trkpt>
      <trkpt lat="42.2132670" lon="-7.8222560">
        <ele>556.2</ele>
        <time>2019-08-17T12:48:19Z</time>
      </trkpt>
      <trkpt lat="42.2132880" lon="-7.8222860">
        <ele>556.4</ele>
        <time>2019-08-17T12:48:20Z</time>
      </trkpt>
      <trkpt lat="42.2133090" lon="-7.8223160">
        <ele>556.5</ele>
        <time>2019-08-17T12:48:21Z</time>
      </trkpt>
      <trkpt lat="42.2133300" lon="-7.8223460">
        <ele>556.7</ele>
        <time>2019-08-17T12:48:22Z</time>
      </trkpt>
      <trkpt lat="42.2133500" lon="-7.8223770">
        <ele>556.8</ele>
        <time>2019-08-17T12:48:23Z</time>
      </trkpt>
      <trkpt lat="42.2133710" lon="-7.8224090">
        <ele>557.0</ele>
        <time>2019-08-17T12:48:24Z</time>
      </trkpt>
      <trkpt lat="42.2133910" lon="-7.8224410">
        <ele>557.2</ele>
        <time>2019-08-17T12:48:25Z</time>
      </trkpt>
      <trkpt lat="42.2134110" lon="-7.8224730">
        <ele>557.3</ele>
        <time>2019-08-17T12:48:26Z</time>
      </trkpt>
      <trkpt lat="42.2134310" lon="-7.8225050">
        <ele>557.5</ele>
        <time>2019-08-17T12:48:27Z</time>
      </trkpt>
      <trkpt lat="42.2134500" lon="-7.8225370">
        <ele>557.6</ele>
        <time>2019-08-17T12:48:28Z</time>
      </trkpt>
      <trkpt lat="42.2134690" lon="-7.8225690">
        <ele>557.7</ele>
        <time>2019-08-17T12:48:29Z</time>
      </trkpt>
      <trkpt lat="42.2134880" lon="-7.8226010">
        <ele>557.9</ele>
        <time>2019-08-17T12:48:30Z</time>
      </trkpt>
      <trkpt lat="42.2135070" lon="-7.8226340">
        <ele>558.0</ele>
        <time>2019-08-17T12:48:31Z</time>
      </trkpt>
      <trkpt lat="42.2135260" lon="-7.8226660">
        <ele>558.2</ele>
        <time>2019-08-17T12:48:32Z</time>
      </trkpt>
      <trkpt lat="42.2135450" lon="-7.8227000">
        <ele>558.3</ele>
        <time>2019-08-17T12:48:33Z</time>
      </trkpt>
      <trkpt lat="42.2135640" lon="-7.8227340">
        <ele>558.5</ele>
        <time>2019-08-17T12:48:34Z</time>
      </trkpt>
      <trkpt lat="42.2135830" lon="-7.8227690">
        <ele>558.6</ele>
        <time>2019-08-17T12:48:35Z</time>
      </trkpt>
      <trkpt lat="42.2136030" lon="-7.8228050">
        <ele>558.8</ele>
        <time>2019-08-17T12:48:36Z</time>
      </trkpt>
      <trkpt lat="42.2136240" lon="-7.8228430">
        <ele>558.9</ele>
        <time>2019-08-17T12:48:37Z</time>
      </trkpt>
      <trkpt lat="42.2136450" lon="-7.8228810">
        <ele>559.1</ele>
        <time>2019-08-17T12:48:38Z</time>
      </trkpt>
      <trkpt lat="42.2136660" lon="-7.8229200">
        <ele>559.3</ele>
        <time>2019-08-17T12:48:39Z</time>
      </trkpt>
      <trkpt lat="42.2136870" lon="-7.8229600">
        <ele>559.5</ele>
        <time>2019-08-17T12:48:40Z</time>
      </trkpt>
      <trkpt lat="42.2137080" lon="-7.8230000">
        <ele>559.6</ele>
        <time>2019-08-17T12:48:41Z</time>
      </trkpt>
      <trkpt lat="42.2137280" lon="-7.8230400">
        <ele>559.8</ele>
        <time>2019-08-17T12:48:42Z</time>
      </trkpt>
      <trkpt lat="42.2137490" lon="-7.8230800">
        <ele>560.0</ele>
        <time>2019-08-17T12:48:43Z</time>
      </trkpt>
      <trkpt lat="42.2137690" lon="-7.8231190">
        <ele>560.2</ele>
        <time>2019-08-17T12:48:44Z</time>
      </trkpt>
      <trkpt lat="42.2137880" lon="-7.8231580">
        <ele>560.4</ele>
        <time>2019-08-17T12:48:45Z</time>
      </trkpt>
      <trkpt lat="42.2138060" lon="-7.8231970">
        <ele>560.6</ele>
        <time>2019-08-17T12:48:46Z</time>
      </trkpt>
      <trkpt lat="42.2138240" lon="-7.8232350">
        <ele>560.7</ele>
        <time>2019-08-17T12:48:47Z</time>
      </trkpt>
      <trkpt lat="42.2138420" lon="-7.8232730">
        <ele>560.9</ele>
        <time>2019-08-17T12:48:48Z</time>
      </trkpt>
      <trkpt lat="42.2138590" lon="-7.8233110">
        <ele>561.1</ele>
        <time>2019-08-17T12:48:49Z</time>
      </trkpt>
      <trkpt lat="42.2138750" lon="-7.8233480">
        <ele>561.2</ele>
        <time>2019-08-17T12:48:50Z</time>
      </trkpt>
      <trkpt lat="42.2138910" lon="-7.8233850">
        <ele>561.4</ele>
        <time>2019-08-17T12:48:51Z</time>
      </trkpt>
      <trkpt lat="42.2139070" lon="-7.8234220">
        <ele>561.6</ele>
        <time>2019-08-17T12:48:52Z</time>
      </trkpt>
      <trkpt lat="42.2139220" lon="-7.8234600">
        <ele>561.7</ele>
        <time>2019-08-17T12:48:53Z</time>
      </trkpt>
      <trkpt lat="42.2139370" lon="-7.8234970">
        <ele>561.9</ele>
        <time>2019-08-17T12:48:54Z</time>
      </trkpt>
      <trkpt lat="42.2139510" lon="-7.8235350">
        <ele>562.0</ele>
        <time>2019-08-17T12:48:55Z</time>
      </trkpt>
      <trkpt lat="42.2139660" lon="-7.8235730">
        <ele>562.2</ele>
        <time>2019-08-17T12:48:56Z</time>
      </trkpt>
      <trkpt lat="42.2139800" lon="-7.8236110">
        <ele>562.4</ele>
        <time>2019-08-17T12:48:57Z</time>
      </trkpt>
      <trkpt lat="42.2139940" lon="-7.8236500">
        <ele>562.6</ele>
        <time>2019-08-17T12:48:58Z</time>
      </trkpt>
      <trkpt lat="42.2140080" lon="-7.8236890">
        <ele>562.8</ele>
        <time>2019-08-17T12:48:59Z</time>
      </trkpt>
      <trkpt lat="42.2140220" lon="-7.8237290">
        <ele>563.0</ele>
        <time>2019-08-17T12:49:00Z</time>
      </trkpt>
      <trkpt lat="42.2140360" lon="-7.8237690">
        <ele>563.2</ele>
        <time>2019-08-17T12:49:01Z</time>
      </trkpt>
      <trkpt lat="42.2140490" lon="-7.8238100">
        <ele>563.3</ele>
        <time>2019-08-17T12:49:02Z</time>
      </trkpt>
      <trkpt lat="42.2140630" lon="-7.8238510">
        <ele>563.5</ele>
        <time>2019-08-17T12:49:03Z</time>
      </trkpt>
      <trkpt lat="42.2140760" lon="-7.8238920">
        <ele>563.7</ele>
        <time>2019-08-17T12:49:04Z</time>
      </trkpt>
      <trkpt lat="42.2140880" lon="-7.8239320">
        <ele>563.8</ele>
        <time>2019-08-17T12:49:05Z</time>
      </trkpt>
      <trkpt lat="42.2141000" lon="-7.8239710">
        <ele>563.9</ele>
        <time>2019-08-17T12:49:06Z</time>
      </trkpt>
      <trkpt lat="42.2141100" lon="-7.8240080">
        <ele>564.1</ele>
        <time>2019-08-17T12:49:07Z</time>
      </trkpt>
      <trkpt lat="42.2141200" lon="-7.8240450">
        <ele>564.2</ele>
        <time>2019-08-17T12:49:08Z</time>
      </trkpt>
      <trkpt lat="42.2141290" lon="-7.8240790">
        <ele>564.3</ele>
        <time>2019-08-17T12:49:09Z</time>
      </trkpt>
      <trkpt lat="42.2141370" lon="-7.8241120">
        <ele>564.4</ele>
        <time>2019-08-17T12:49:10Z</time>
      </trkpt>
      <trkpt lat="42.2141440" lon="-7.8241440">
        <ele>564.6</ele>
        <time>2019-08-17T12:49:11Z</time>
      </trkpt>
      <trkpt lat="42.2141500" lon="-7.8241750">
        <ele>564.7</ele>
        <time>2019-08-17T12:49:12Z</time>
      </trkpt>
      <trkpt lat="42.2141570" lon="-7.8242060">
        <ele>564.8</ele>
        <time>2019-08-17T12:49:13Z</time>
      </trkpt>
      <trkpt lat="42.2141630" lon="-7.8242370">
        <ele>564.9</ele>
        <time>2019-08-17T12:49:14Z</time>
      </trkpt>
      <trkpt lat="42.2141700" lon="-7.8242690">
        <ele>565.0</ele>
        <time>2019-08-17T12:49:15Z</time>
      </trkpt>
      <trkpt lat="42.2141770" lon="-7.8243020">
        <ele>565.1</ele>
        <time>2019-08-17T12:49:16Z</time>
      </trkpt>
      <trkpt lat="42.2141840" lon="-7.8243360">
        <ele>565.2</ele>
        <time>2019-08-17T12:49:17Z</time>
      </trkpt>
      <trkpt lat="42.2141930" lon="-7.8243710">
        <ele>565.4</ele>
        <time>2019-08-17T12:49:18Z</time>
      </trkpt>
      <trkpt lat="42.2142010" lon="-7.8244070">
        <ele>565.5</ele>
        <time>2019-08-17T12:49:19Z</time>
      </trkpt>
      <trkpt lat="42.2142110" lon="-7.8244440">
        <ele>565.6</ele>
        <time>2019-08-17T12:49:20Z</time>
      </trkpt>
      <trkpt lat="42.2142210" lon="-7.8244830">
        <ele>565.8</ele>
        <time>2019-08-17T12:49:21Z</time>
      </trkpt>
      <trkpt lat="42.2142310" lon="-7.8245230">
        <ele>565.9</ele>
        <time>2019-08-17T12:49:22Z</time>
      </trkpt>
      <trkpt lat="42.2142410" lon="-7.8245650">
        <ele>566.1</ele>
        <time>2019-08-17T12:49:23Z</time>
      </trkpt>
      <trkpt lat="42.2142500" lon="-7.8246080">
        <ele>566.3</ele>
        <time>2019-08-17T12:49:24Z</time>
      </trkpt>
      <trkpt lat="42.2142590" lon="-7.8246530">
        <ele>566.5</ele>
        <time>2019-08-17T12:49:25Z</time>
      </trkpt>
      <trkpt lat="42.2142680" lon="-7.8246980">
        <ele>566.7</ele>
        <time>2019-08-17T12:49:26Z</time>
      </trkpt>
      <trkpt lat="42.2142760" lon="-7.8247440">
        <ele>566.9</ele>
        <time>2019-08-17T12:49:27Z</time>
      </trkpt>
      <trkpt lat="42.2142840" lon="-7.8247900">
        <ele>567.1</ele>
        <time>2019-08-17T12:49:28Z</time>
      </trkpt>
      <trkpt lat="42.2142910" lon="-7.8248360">
        <ele>567.3</ele>
        <time>2019-08-17T12:49:29Z</time>
      </trkpt>
      <trkpt lat="42.2142980" lon="-7.8248810">
        <ele>567.5</ele>
        <time>2019-08-17T12:49:30Z</time>
      </trkpt>
      <trkpt lat="42.2143050" lon="-7.8249250">
        <ele>567.7</ele>
        <time>2019-08-17T12:49:31Z</time>
      </trkpt>
      <trkpt lat="42.2143120" lon="-7.8249670">
        <ele>567.8</ele>
        <time>2019-08-17T12:49:32Z</time>
      </trkpt>
      <trkpt lat="42.2143190" lon="-7.8250080">
        <ele>568.0</ele>
        <time>2019-08-17T12:49:33Z</time>
      </trkpt>
      <trkpt lat="42.2143260" lon="-7.8250480">
        <ele>568.1</ele>
        <time>2019-08-17T12:49:34Z</time>
      </trkpt>
      <trkpt lat="42.2143320" lon="-7.8250870">
        <ele>568.3</ele>
        <time>2019-08-17T12:49:35Z</time>
      </trkpt>
      <trkpt lat="42.2143390" lon="-7.8251250">
        <ele>568.4</ele>
        <time>2019-08-17T12:49:36Z</time>
      </trkpt>
      <trkpt lat="42.2143450" lon="-7.8251630">
        <ele>568.6</ele>
        <time>2019-08-17T12:49:37Z</time>
      </trkpt>
      <trkpt lat="42.2143510" lon="-7.8252010">
        <ele>568.7</ele>
        <time>2019-08-17T12:49:38Z</time>
      </trkpt>
      <trkpt lat="42.2143570" lon="-7.8252390">
        <ele>568.9</ele>
        <time>2019-08-17T12:49:39Z</time>
      </trkpt>
      <trkpt lat="42.2143620" lon="-7.8252770">
        <ele>569.0</ele>
        <time>2019-08-17T12:49:40Z</time>
      </trkpt>
      <trkpt lat="42.2143680" lon="-7.8253160">
        <ele>569.1</ele>
        <time>2019-08-17T12:49:41Z</time>
      </trkpt>
      <trkpt lat="42.2143730" lon="-7.8253550">
        <ele>569.3</ele>
        <time>2019-08-17T12:49:42Z</time>
      </trkpt>
      <trkpt lat="42.2143780" lon="-7.8253940">
        <ele>569.4</ele>
        <time>2019-08-17T12:49:43Z</time>
      </trkpt>
      <trkpt lat="42.2143830" lon="-7.8254340">
        <ele>569.6</ele>
        <time>2019-08-17T12:49:44Z</time>
      </trkpt>
      <trkpt lat="42.2143880" lon="-7.8254740">
        <ele>569.7</ele>
        <time>2019-08-17T12:49:45Z</time>
      </trkpt>
      <trkpt lat="42.2143920" lon="-7.8255140">
        <ele>569.9</ele>
        <time>2019-08-17T12:49:46Z</time>
      </trkpt>
      <trkpt lat="42.2143970" lon="-7.8255540">
        <ele>570.0</ele>
        <time>2019-08-17T12:49:47Z</time>
      </trkpt>
      <trkpt lat="42.2144010" lon="-7.8255940">
        <ele>570.2</ele>
        <time>2019-08-17T12:49:48Z</time>
      </trkpt>
      <trkpt lat="42.2144060" lon="-7.8256350">
        <ele>570.3</ele>
        <time>2019-08-17T12:49:49Z</time>
      </trkpt>
      <trkpt lat="42.2144100" lon="-7.8256760">
        <ele>570.5</ele>
        <time>2019-08-17T12:49:50Z</time>
      </trkpt>
      <trkpt lat="42.2144140" lon="-7.8257170">
        <ele>570.6</ele>
        <time>2019-08-17T12:49:51Z</time>
      </trkpt>
      <trkpt lat="42.2144170" lon="-7.8257580">
        <ele>570.8</ele>
        <time>2019-08-17T12:49:52Z</time>
      </trkpt>
      <trkpt lat="42.2144210" lon="-7.8258000">
        <ele>570.9</ele>
        <time>2019-08-17T12:49:53Z</time>
      </trkpt>
      <trkpt lat="42.2144240" lon="-7.8258430">
        <ele>571.1</ele>
        <time>2019-08-17T12:49:54Z</time>
      </trkpt>
      <trkpt lat="42.2144280" lon="-7.8258850">
        <ele>571.2</ele>
        <time>2019-08-17T12:49:55Z</time>
      </trkpt>
      <trkpt lat="42.2144310" lon="-7.8259290">
        <ele>571.4</ele>
        <time>2019-08-17T12:49:56Z</time>
      </trkpt>
      <trkpt lat="42.2144330" lon="-7.8259720">
        <ele>571.5</ele>
        <time>2019-08-17T12:49:57Z</time>
      </trkpt>
      <trkpt lat="42.2144360" lon="-7.8260170">
        <ele>571.7</ele>
        <time>2019-08-17T12:49:58Z</time>
      </trkpt>
      <trkpt lat="42.2144380" lon="-7.8260620">
        <ele>571.8</ele>
        <time>2019-08-17T12:49:59Z</time>
      </trkpt>
      <trkpt lat="42.2144400" lon="-7.8261070">
        <ele>572.0</ele>
        <time>2019-08-17T12:50:00Z</time>
      </trkpt>
      <trkpt lat="42.2144420" lon="-7.8261540">
        <ele>572.1</ele>
        <time>2019-08-17T12:50:01Z</time>
      </trkpt>
      <trkpt lat="42.2144440" lon="-7.8262010">
        <ele>572.3</ele>
        <time>2019-08-17T12:50:02Z</time>
      </trkpt>
      <trkpt lat="42.2144450" lon="-7.8262480">
        <ele>572.4</ele>
        <time>2019-08-17T12:50:03Z</time>
      </trkpt>
      <trkpt lat="42.2144460" lon="-7.8262970">
        <ele>572.6</ele>
        <time>2019-08-17T12:50:04Z</time>
      </trkpt>
      <trkpt lat="42.2144470" lon="-7.8263460">
        <ele>572.8</ele>
        <time>2019-08-17T12:50:05Z</time>
      </trkpt>
      <trkpt lat="42.2144480" lon="-7.8263960">
        <ele>572.9</ele>
        <time>2019-08-17T12:50:06Z</time>
      </trkpt>
      <trkpt lat="42.2144480" lon="-7.8264470">
        <ele>573.1</ele>
        <time>2019-08-17T12:50:07Z</time>
      </trkpt>
      <trkpt lat="42.2144490" lon="-7.8264980">
        <ele>573.3</ele>
        <time>2019-08-17T12:50:08Z</time>
      </trkpt>
      <trkpt lat="42.2144490" lon="-7.8265500">
        <ele>573.5</ele>
        <time>2019-08-17T12:50:09Z</time>
      </trkpt>
      <trkpt lat="42.2144500" lon="-7.8266020">
        <ele>573.6</ele>
        <time>2019-08-17T12:50:10Z</time>
      </trkpt>
      <trkpt lat="42.2144510" lon="-7.8266540">
        <ele>573.8</ele>
        <time>2019-08-17T12:50:11Z</time>
      </trkpt>
      <trkpt lat="42.2144510" lon="-7.8267070">
        <ele>574.0</ele>
        <time>2019-08-17T12:50:12Z</time>
      </trkpt>
      <trkpt lat="42.2144520" lon="-7.8267610">
        <ele>574.1</ele>
        <time>2019-08-17T12:50:13Z</time>
      </trkpt>
      <trkpt lat="42.2144530" lon="-7.8268150">
        <ele>574.3</ele>
        <time>2019-08-17T12:50:14Z</time>
      </trkpt>
      <trkpt lat="42.2144550" lon="-7.8268690">
        <ele>574.5</ele>
        <time>2019-08-17T12:50:15Z</time>
      </trkpt>
      <trkpt lat="42.2144560" lon="-7.8269230">
        <ele>574.6</ele>
        <time>2019-08-17T12:50:16Z</time>
      </trkpt>
      <trkpt lat="42.2144580" lon="-7.8269780">
        <ele>574.8</ele>
        <time>2019-08-17T12:50:17Z</time>
      </trkpt>
      <trkpt lat="42.2144610" lon="-7.8270330">
        <ele>575.0</ele>
        <time>2019-08-17T12:50:18Z</time>
      </trkpt>
      <trkpt lat="42.2144630" lon="-7.8270880">
        <ele>575.1</ele>
        <time>2019-08-17T12:50:19Z</time>
      </trkpt>
      <trkpt lat="42.2144670" lon="-7.8271430">
        <ele>575.3</ele>
        <time>2019-08-17T12:50:20Z</time>
      </trkpt>
      <trkpt lat="42.2144700" lon="-7.8271990">
        <ele>575.5</ele>
        <time>2019-08-17T12:50:21Z</time>
      </trkpt>
      <trkpt lat="42.2144750" lon="-7.8272550">
        <ele>575.6</ele>
        <time>2019-08-17T12:50:22Z</time>
      </trkpt>
      <trkpt lat="42.2144800" lon="-7.8273120">
        <ele>575.8</ele>
        <time>2019-08-17T12:50:23Z</time>
      </trkpt>
      <trkpt lat="42.2144860" lon="-7.8273700">
        <ele>575.9</ele>
        <time>2019-08-17T12:50:24Z</time>
      </trkpt>
      <trkpt lat="42.2144930" lon="-7.8274270">
        <ele>576.1</ele>
        <time>2019-08-17T12:50:25Z</time>
      </trkpt>
      <trkpt lat="42.2145010" lon="-7.8274860">
        <ele>576.3</ele>
        <time>2019-08-17T12:50:26Z</time>
      </trkpt>
      <trkpt lat="42.2145100" lon="-7.8275450">
        <ele>576.4</ele>
        <time>2019-08-17T12:50:27Z</time>
      </trkpt>
      <trkpt lat="42.2145200" lon="-7.8276040">
        <ele>576.6</ele>
        <time>2019-08-17T12:50:28Z</time>
      </trkpt>
      <trkpt lat="42.2145310" lon="-7.8276630">
        <ele>576.7</ele>
        <time>2019-08-17T12:50:29Z</time>
      </trkpt>
      <trkpt lat="42.2145430" lon="-7.8277210">
        <ele>576.9</ele>
        <time>2019-08-17T12:50:30Z</time>
      </trkpt>
      <trkpt lat="42.2145560" lon="-7.8277790">
        <ele>577.0</ele>
        <time>2019-08-17T12:50:31Z</time>
      </trkpt>
      <trkpt lat="42.2145700" lon="-7.8278350">
        <ele>577.2</ele>
        <time>2019-08-17T12:50:32Z</time>
      </trkpt>
      <trkpt lat="42.2145840" lon="-7.8278900">
        <ele>577.3</ele>
        <time>2019-08-17T12:50:33Z</time>
      </trkpt>
      <trkpt lat="42.2145990" lon="-7.8279430">
        <ele>577.6</ele>
        <time>2019-08-17T12:50:34Z</time>
      </trkpt>
      <trkpt lat="42.2146130" lon="-7.8279950">
        <ele>577.7</ele>
        <time>2019-08-17T12:50:35Z</time>
      </trkpt>
      <trkpt lat="42.2146240" lon="-7.8280470">
        <ele>577.8</ele>
        <time>2019-08-17T12:50:36Z</time>
      </trkpt>
      <trkpt lat="42.2146300" lon="-7.8280990">
        <ele>577.9</ele>
        <time>2019-08-17T12:50:37Z</time>
      </trkpt>
      <trkpt lat="42.2146280" lon="-7.8281530">
        <ele>577.9</ele>
        <time>2019-08-17T12:50:38Z</time>
      </trkpt>
      <trkpt lat="42.2146210" lon="-7.8282080">
        <ele>578.0</ele>
        <time>2019-08-17T12:50:39Z</time>
      </trkpt>
      <trkpt lat="42.2146100" lon="-7.8282670">
        <ele>578.2</ele>
        <time>2019-08-17T12:50:40Z</time>
      </trkpt>
      <trkpt lat="42.2145960" lon="-7.8283290">
        <ele>578.2</ele>
        <time>2019-08-17T12:50:41Z</time>
      </trkpt>
      <trkpt lat="42.2145800" lon="-7.8283950">
        <ele>578.2</ele>
        <time>2019-08-17T12:50:42Z</time>
      </trkpt>
      <trkpt lat="42.2145640" lon="-7.8284650">
        <ele>578.3</ele>
        <time>2019-08-17T12:50:43Z</time>
      </trkpt>
      <trkpt lat="42.2145450" lon="-7.8285740">
        <ele>578.3</ele>
        <time>2019-08-17T12:50:44Z</time>
      </trkpt>
      <trkpt lat="42.2145390" lon="-7.8286100">
        <ele>578.4</ele>
        <time>2019-08-17T12:50:45Z</time>
      </trkpt>
      <trkpt lat="42.2145320" lon="-7.8286830">
        <ele>578.4</ele>
        <time>2019-08-17T12:50:46Z</time>
      </trkpt>
      <trkpt lat="42.2145290" lon="-7.8287550">
        <ele>578.4</ele>
        <time>2019-08-17T12:50:47Z</time>
      </trkpt>
      <trkpt lat="42.2145280" lon="-7.8288270">
        <ele>578.5</ele>
        <time>2019-08-17T12:50:48Z</time>
      </trkpt>
      <trkpt lat="42.2145290" lon="-7.8288990">
        <ele>578.5</ele>
        <time>2019-08-17T12:50:49Z</time>
      </trkpt>
      <trkpt lat="42.2145320" lon="-7.8289710">
        <ele>578.6</ele>
        <time>2019-08-17T12:50:50Z</time>
      </trkpt>
      <trkpt lat="42.2145370" lon="-7.8290440">
        <ele>578.6</ele>
        <time>2019-08-17T12:50:51Z</time>
      </trkpt>
      <trkpt lat="42.2145430" lon="-7.8291170">
        <ele>578.6</ele>
        <time>2019-08-17T12:50:52Z</time>
      </trkpt>
      <trkpt lat="42.2145500" lon="-7.8291900">
        <ele>578.7</ele>
        <time>2019-08-17T12:50:53Z</time>
      </trkpt>
      <trkpt lat="42.2145580" lon="-7.8292650">
        <ele>578.7</ele>
        <time>2019-08-17T12:50:54Z</time>
      </trkpt>
      <trkpt lat="42.2145680" lon="-7.8293400">
        <ele>578.8</ele>
        <time>2019-08-17T12:50:55Z</time>
      </trkpt>
      <trkpt lat="42.2145780" lon="-7.8294170">
        <ele>578.8</ele>
        <time>2019-08-17T12:50:56Z</time>
      </trkpt>
      <trkpt lat="42.2145890" lon="-7.8294940">
        <ele>578.9</ele>
        <time>2019-08-17T12:50:57Z</time>
      </trkpt>
      <trkpt lat="42.2146010" lon="-7.8295730">
        <ele>578.9</ele>
        <time>2019-08-17T12:50:58Z</time>
      </trkpt>
      <trkpt lat="42.2146140" lon="-7.8296520">
        <ele>578.9</ele>
        <time>2019-08-17T12:50:59Z</time>
      </trkpt>
      <trkpt lat="42.2146270" lon="-7.8297310">
        <ele>579.0</ele>
        <time>2019-08-17T12:51:00Z</time>
      </trkpt>
      <trkpt lat="42.2146410" lon="-7.8298090">
        <ele>579.0</ele>
        <time>2019-08-17T12:51:01Z</time>
      </trkpt>
      <trkpt lat="42.2146560" lon="-7.8298870">
        <ele>579.1</ele>
        <time>2019-08-17T12:51:02Z</time>
      </trkpt>
      <trkpt lat="42.2146720" lon="-7.8299650">
        <ele>579.1</ele>
        <time>2019-08-17T12:51:03Z</time>
      </trkpt>
      <trkpt lat="42.2146880" lon="-7.8300400">
        <ele>579.2</ele>
        <time>2019-08-17T12:51:04Z</time>
      </trkpt>
      <trkpt lat="42.2147050" lon="-7.8301150">
        <ele>579.2</ele>
        <time>2019-08-17T12:51:05Z</time>
      </trkpt>
      <trkpt lat="42.2147230" lon="-7.8301870">
        <ele>579.3</ele>
        <time>2019-08-17T12:51:06Z</time>
      </trkpt>
      <trkpt lat="42.2147420" lon="-7.8302590">
        <ele>579.3</ele>
        <time>2019-08-17T12:51:07Z</time>
      </trkpt>
      <trkpt lat="42.2147610" lon="-7.8303300">
        <ele>579.3</ele>
        <time>2019-08-17T12:51:08Z</time>
      </trkpt>
      <trkpt lat="42.2147800" lon="-7.8304000">
        <ele>579.3</ele>
        <time>2019-08-17T12:51:09Z</time>
      </trkpt>
      <trkpt lat="42.2148010" lon="-7.8304700">
        <ele>579.3</ele>
        <time>2019-08-17T12:51:10Z</time>
      </trkpt>
      <trkpt lat="42.2148210" lon="-7.8305400">
        <ele>579.3</ele>
        <time>2019-08-17T12:51:11Z</time>
      </trkpt>
      <trkpt lat="42.2148420" lon="-7.8306100">
        <ele>579.2</ele>
        <time>2019-08-17T12:51:12Z</time>
      </trkpt>
      <trkpt lat="42.2148640" lon="-7.8306810">
        <ele>579.1</ele>
        <time>2019-08-17T12:51:13Z</time>
      </trkpt>
      <trkpt lat="42.2148850" lon="-7.8307520">
        <ele>578.9</ele>
        <time>2019-08-17T12:51:14Z</time>
      </trkpt>
      <trkpt lat="42.2149080" lon="-7.8308250">
        <ele>578.8</ele>
        <time>2019-08-17T12:51:15Z</time>
      </trkpt>
      <trkpt lat="42.2149320" lon="-7.8308990">
        <ele>578.6</ele>
        <time>2019-08-17T12:51:16Z</time>
      </trkpt>
      <trkpt lat="42.2149570" lon="-7.8309740">
        <ele>578.4</ele>
        <time>2019-08-17T12:51:17Z</time>
      </trkpt>
      <trkpt lat="42.2149840" lon="-7.8310510">
        <ele>578.2</ele>
        <time>2019-08-17T12:51:18Z</time>
      </trkpt>
      <trkpt lat="42.2150120" lon="-7.8311300">
        <ele>578.0</ele>
        <time>2019-08-17T12:51:19Z</time>
      </trkpt>
      <trkpt lat="42.2150430" lon="-7.8312120">
        <ele>577.9</ele>
        <time>2019-08-17T12:51:20Z</time>
      </trkpt>
      <trkpt lat="42.2150750" lon="-7.8312960">
        <ele>577.7</ele>
        <time>2019-08-17T12:51:21Z</time>
      </trkpt>
      <trkpt lat="42.2151100" lon="-7.8313810">
        <ele>577.6</ele>
        <time>2019-08-17T12:51:22Z</time>
      </trkpt>
      <trkpt lat="42.2151460" lon="-7.8314690">
        <ele>577.5</ele>
        <time>2019-08-17T12:51:23Z</time>
      </trkpt>
      <trkpt lat="42.2151850" lon="-7.8315580">
        <ele>577.4</ele>
        <time>2019-08-17T12:51:24Z</time>
      </trkpt>
      <trkpt lat="42.2152250" lon="-7.8316480">
        <ele>577.0</ele>
        <time>2019-08-17T12:51:25Z</time>
      </trkpt>
      <trkpt lat="42.2152680" lon="-7.8317390">
        <ele>576.5</ele>
        <time>2019-08-17T12:51:26Z</time>
      </trkpt>
      <trkpt lat="42.2153120" lon="-7.8318320">
        <ele>575.9</ele>
        <time>2019-08-17T12:51:27Z</time>
      </trkpt>
      <trkpt lat="42.2153580" lon="-7.8319250">
        <ele>575.5</ele>
        <time>2019-08-17T12:51:28Z</time>
      </trkpt>
      <trkpt lat="42.2154060" lon="-7.8320190">
        <ele>575.1</ele>
        <time>2019-08-17T12:51:29Z</time>
      </trkpt>
      <trkpt lat="42.2154560" lon="-7.8321130">
        <ele>574.8</ele>
        <time>2019-08-17T12:51:30Z</time>
      </trkpt>
      <trkpt lat="42.2155080" lon="-7.8322080">
        <ele>574.4</ele>
        <time>2019-08-17T12:51:31Z</time>
      </trkpt>
      <trkpt lat="42.2155620" lon="-7.8323020">
        <ele>574.0</ele>
        <time>2019-08-17T12:51:32Z</time>
      </trkpt>
      <trkpt lat="42.2156170" lon="-7.8323970">
        <ele>573.4</ele>
        <time>2019-08-17T12:51:33Z</time>
      </trkpt>
      <trkpt lat="42.2156750" lon="-7.8324910">
        <ele>572.6</ele>
        <time>2019-08-17T12:51:34Z</time>
      </trkpt>
      <trkpt lat="42.2157340" lon="-7.8325840">
        <ele>571.7</ele>
        <time>2019-08-17T12:51:35Z</time>
      </trkpt>
      <trkpt lat="42.2157950" lon="-7.8326770">
        <ele>570.7</ele>
        <time>2019-08-17T12:51:36Z</time>
      </trkpt>
      <trkpt lat="42.2158570" lon="-7.8327690">
        <ele>569.8</ele>
        <time>2019-08-17T12:51:37Z</time>
      </trkpt>
      <trkpt lat="42.2159210" lon="-7.8328600">
        <ele>569.1</ele>
        <time>2019-08-17T12:51:38Z</time>
      </trkpt>
      <trkpt lat="42.2159870" lon="-7.8329500">
        <ele>568.5</ele>
        <time>2019-08-17T12:51:39Z</time>
      </trkpt>
      <trkpt lat="42.2160540" lon="-7.8330390">
        <ele>567.9</ele>
        <time>2019-08-17T12:51:40Z</time>
      </trkpt>
      <trkpt lat="42.2161230" lon="-7.8331280">
        <ele>567.2</ele>
        <time>2019-08-17T12:51:41Z</time>
      </trkpt>
      <trkpt lat="42.2161930" lon="-7.8332150">
        <ele>566.2</ele>
        <time>2019-08-17T12:51:42Z</time>
      </trkpt>
      <trkpt lat="42.2162640" lon="-7.8333010">
        <ele>565.1</ele>
        <time>2019-08-17T12:51:43Z</time>
      </trkpt>
      <trkpt lat="42.2163370" lon="-7.8333860">
        <ele>564.0</ele>
        <time>2019-08-17T12:51:44Z</time>
      </trkpt>
      <trkpt lat="42.2164110" lon="-7.8334700">
        <ele>562.9</ele>
        <time>2019-08-17T12:51:45Z</time>
      </trkpt>
      <trkpt lat="42.2164860" lon="-7.8335530">
        <ele>561.9</ele>
        <time>2019-08-17T12:51:46Z</time>
      </trkpt>
      <trkpt lat="42.2165620" lon="-7.8336360">
        <ele>561.0</ele>
        <time>2019-08-17T12:51:47Z</time>
      </trkpt>
      <trkpt lat="42.2166380" lon="-7.8337170">
        <ele>560.1</ele>
        <time>2019-08-17T12:51:48Z</time>
      </trkpt>
      <trkpt lat="42.2167160" lon="-7.8337990">
        <ele>559.4</ele>
        <time>2019-08-17T12:51:49Z</time>
      </trkpt>
      <trkpt lat="42.2167930" lon="-7.8338800">
        <ele>558.6</ele>
        <time>2019-08-17T12:51:50Z</time>
      </trkpt>
      <trkpt lat="42.2168720" lon="-7.8339600">
        <ele>557.9</ele>
        <time>2019-08-17T12:51:51Z</time>
      </trkpt>
      <trkpt lat="42.2169500" lon="-7.8340410">
        <ele>557.1</ele>
        <time>2019-08-17T12:51:52Z</time>
      </trkpt>
      <trkpt lat="42.2170290" lon="-7.8341220">
        <ele>556.4</ele>
        <time>2019-08-17T12:51:53Z</time>
      </trkpt>
      <trkpt lat="42.2171080" lon="-7.8342030">
        <ele>555.6</ele>
        <time>2019-08-17T12:51:54Z</time>
      </trkpt>
      <trkpt lat="42.2171860" lon="-7.8342850">
        <ele>554.8</ele>
        <time>2019-08-17T12:51:55Z</time>
      </trkpt>
      <trkpt lat="42.2172650" lon="-7.8343670">
        <ele>554.0</ele>
        <time>2019-08-17T12:51:56Z</time>
      </trkpt>
      <trkpt lat="42.2173420" lon="-7.8344510">
        <ele>553.2</ele>
        <time>2019-08-17T12:51:57Z</time>
      </trkpt>
      <trkpt lat="42.2174200" lon="-7.8345350">
        <ele>552.4</ele>
        <time>2019-08-17T12:51:58Z</time>
      </trkpt>
      <trkpt lat="42.2174960" lon="-7.8346210">
        <ele>551.5</ele>
        <time>2019-08-17T12:51:59Z</time>
      </trkpt>
      <trkpt lat="42.2175720" lon="-7.8347080">
        <ele>550.7</ele>
        <time>2019-08-17T12:52:00Z</time>
      </trkpt>
      <trkpt lat="42.2176460" lon="-7.8347970">
        <ele>549.9</ele>
        <time>2019-08-17T12:52:01Z</time>
      </trkpt>
      <trkpt lat="42.2177200" lon="-7.8348880">
        <ele>549.1</ele>
        <time>2019-08-17T12:52:02Z</time>
      </trkpt>
      <trkpt lat="42.2177920" lon="-7.8349810">
        <ele>548.5</ele>
        <time>2019-08-17T12:52:03Z</time>
      </trkpt>
      <trkpt lat="42.2178620" lon="-7.8350760">
        <ele>547.9</ele>
        <time>2019-08-17T12:52:04Z</time>
      </trkpt>
      <trkpt lat="42.2179310" lon="-7.8351740">
        <ele>547.6</ele>
        <time>2019-08-17T12:52:05Z</time>
      </trkpt>
      <trkpt lat="42.2179980" lon="-7.8352740">
        <ele>547.4</ele>
        <time>2019-08-17T12:52:06Z</time>
      </trkpt>
      <trkpt lat="42.2180630" lon="-7.8353770">
        <ele>547.1</ele>
        <time>2019-08-17T12:52:07Z</time>
      </trkpt>
      <trkpt lat="42.2181270" lon="-7.8354830">
        <ele>546.7</ele>
        <time>2019-08-17T12:52:08Z</time>
      </trkpt>
      <trkpt lat="42.2181880" lon="-7.8355910">
        <ele>546.3</ele>
        <time>2019-08-17T12:52:09Z</time>
      </trkpt>
      <trkpt lat="42.2182480" lon="-7.8357020">
        <ele>545.9</ele>
        <time>2019-08-17T12:52:10Z</time>
      </trkpt>
      <trkpt lat="42.2183050" lon="-7.8358150">
        <ele>545.5</ele>
        <time>2019-08-17T12:52:11Z</time>
      </trkpt>
      <trkpt lat="42.2183610" lon="-7.8359300">
        <ele>545.4</ele>
        <time>2019-08-17T12:52:12Z</time>
      </trkpt>
      <trkpt lat="42.2184140" lon="-7.8360480">
        <ele>545.2</ele>
        <time>2019-08-17T12:52:13Z</time>
      </trkpt>
      <trkpt lat="42.2184660" lon="-7.8361670">
        <ele>545.0</ele>
        <time>2019-08-17T12:52:14Z</time>
      </trkpt>
      <trkpt lat="42.2185160" lon="-7.8362880">
        <ele>544.8</ele>
        <time>2019-08-17T12:52:15Z</time>
      </trkpt>
      <trkpt lat="42.2185630" lon="-7.8364110">
        <ele>544.5</ele>
        <time>2019-08-17T12:52:16Z</time>
      </trkpt>
      <trkpt lat="42.2186080" lon="-7.8365360">
        <ele>544.2</ele>
        <time>2019-08-17T12:52:17Z</time>
      </trkpt>
      <trkpt lat="42.2186510" lon="-7.8366620">
        <ele>543.5</ele>
        <time>2019-08-17T12:52:18Z</time>
      </trkpt>
      <trkpt lat="42.2186920" lon="-7.8367910">
        <ele>542.8</ele>
        <time>2019-08-17T12:52:19Z</time>
      </trkpt>
      <trkpt lat="42.2187300" lon="-7.8369210">
        <ele>542.3</ele>
        <time>2019-08-17T12:52:20Z</time>
      </trkpt>
      <trkpt lat="42.2187660" lon="-7.8370510">
        <ele>541.8</ele>
        <time>2019-08-17T12:52:21Z</time>
      </trkpt>
      <trkpt lat="42.2187990" lon="-7.8371800">
        <ele>541.0</ele>
        <time>2019-08-17T12:52:22Z</time>
      </trkpt>
      <trkpt lat="42.2188290" lon="-7.8373090">
        <ele>540.4</ele>
        <time>2019-08-17T12:52:23Z</time>
      </trkpt>
      <trkpt lat="42.2188580" lon="-7.8374380">
        <ele>539.9</ele>
        <time>2019-08-17T12:52:24Z</time>
      </trkpt>
      <trkpt lat="42.2188850" lon="-7.8375670">
        <ele>539.2</ele>
        <time>2019-08-17T12:52:25Z</time>
      </trkpt>
      <trkpt lat="42.2189110" lon="-7.8376970">
        <ele>538.7</ele>
        <time>2019-08-17T12:52:26Z</time>
      </trkpt>
      <trkpt lat="42.2189350" lon="-7.8378280">
        <ele>538.2</ele>
        <time>2019-08-17T12:52:27Z</time>
      </trkpt>
      <trkpt lat="42.2189600" lon="-7.8379590">
        <ele>537.5</ele>
        <time>2019-08-17T12:52:28Z</time>
      </trkpt>
      <trkpt lat="42.2189840" lon="-7.8380930">
        <ele>536.8</ele>
        <time>2019-08-17T12:52:29Z</time>
      </trkpt>
      <trkpt lat="42.2190080" lon="-7.8382280">
        <ele>536.3</ele>
        <time>2019-08-17T12:52:30Z</time>
      </trkpt>
      <trkpt lat="42.2190320" lon="-7.8383650">
        <ele>535.7</ele>
        <time>2019-08-17T12:52:31Z</time>
      </trkpt>
      <trkpt lat="42.2190580" lon="-7.8385020">
        <ele>535.0</ele>
        <time>2019-08-17T12:52:32Z</time>
      </trkpt>
      <trkpt lat="42.2190840" lon="-7.8386410">
        <ele>534.4</ele>
        <time>2019-08-17T12:52:33Z</time>
      </trkpt>
      <trkpt lat="42.2191120" lon="-7.8387800">
        <ele>534.0</ele>
        <time>2019-08-17T12:52:34Z</time>
      </trkpt>
      <trkpt lat="42.2191420" lon="-7.8389180">
        <ele>533.4</ele>
        <time>2019-08-17T12:52:35Z</time>
      </trkpt>
      <trkpt lat="42.2191740" lon="-7.8390560">
        <ele>532.9</ele>
        <time>2019-08-17T12:52:36Z</time>
      </trkpt>
      <trkpt lat="42.2192080" lon="-7.8391930">
        <ele>532.3</ele>
        <time>2019-08-17T12:52:37Z</time>
      </trkpt>
      <trkpt lat="42.2192450" lon="-7.8393290">
        <ele>531.6</ele>
        <time>2019-08-17T12:52:38Z</time>
      </trkpt>
      <trkpt lat="42.2192850" lon="-7.8394630">
        <ele>531.0</ele>
        <time>2019-08-17T12:52:39Z</time>
      </trkpt>
      <trkpt lat="42.2193270" lon="-7.8395950">
        <ele>530.5</ele>
        <time>2019-08-17T12:52:40Z</time>
      </trkpt>
      <trkpt lat="42.2193720" lon="-7.8397260">
        <ele>529.9</ele>
        <time>2019-08-17T12:52:41Z</time>
      </trkpt>
      <trkpt lat="42.2194190" lon="-7.8398540">
        <ele>529.3</ele>
        <time>2019-08-17T12:52:42Z</time>
      </trkpt>
      <trkpt lat="42.2194690" lon="-7.8399810">
        <ele>528.7</ele>
        <time>2019-08-17T12:52:43Z</time>
      </trkpt>
      <trkpt lat="42.2195210" lon="-7.8401050">
        <ele>528.0</ele>
        <time>2019-08-17T12:52:44Z</time>
      </trkpt>
      <trkpt lat="42.2195740" lon="-7.8402280">
        <ele>527.3</ele>
        <time>2019-08-17T12:52:45Z</time>
      </trkpt>
      <trkpt lat="42.2196300" lon="-7.8403470">
        <ele>526.5</ele>
        <time>2019-08-17T12:52:46Z</time>
      </trkpt>
      <trkpt lat="42.2196880" lon="-7.8404650">
        <ele>526.0</ele>
        <time>2019-08-17T12:52:47Z</time>
      </trkpt>
      <trkpt lat="42.2197480" lon="-7.8405790">
        <ele>525.5</ele>
        <time>2019-08-17T12:52:48Z</time>
      </trkpt>
      <trkpt lat="42.2198090" lon="-7.8406910">
        <ele>525.0</ele>
        <time>2019-08-17T12:52:49Z</time>
      </trkpt>
      <trkpt lat="42.2198730" lon="-7.8408010">
        <ele>524.4</ele>
        <time>2019-08-17T12:52:50Z</time>
      </trkpt>
      <trkpt lat="42.2199370" lon="-7.8409070">
        <ele>523.8</ele>
        <time>2019-08-17T12:52:51Z</time>
      </trkpt>
      <trkpt lat="42.2200030" lon="-7.8410100">
        <ele>523.1</ele>
        <time>2019-08-17T12:52:52Z</time>
      </trkpt>
      <trkpt lat="42.2200710" lon="-7.8411100">
        <ele>522.5</ele>
        <time>2019-08-17T12:52:53Z</time>
      </trkpt>
      <trkpt lat="42.2201400" lon="-7.8412060">
        <ele>521.7</ele>
        <time>2019-08-17T12:52:54Z</time>
      </trkpt>
      <trkpt lat="42.2202100" lon="-7.8413000">
        <ele>521.1</ele>
        <time>2019-08-17T12:52:55Z</time>
      </trkpt>
      <trkpt lat="42.2202820" lon="-7.8413900">
        <ele>520.5</ele>
        <time>2019-08-17T12:52:56Z</time>
      </trkpt>
      <trkpt lat="42.2203550" lon="-7.8414780">
        <ele>519.9</ele>
        <time>2019-08-17T12:52:57Z</time>
      </trkpt>
      <trkpt lat="42.2204290" lon="-7.8415640">
        <ele>519.4</ele>
        <time>2019-08-17T12:52:58Z</time>
      </trkpt>
      <trkpt lat="42.2205060" lon="-7.8416470">
        <ele>518.8</ele>
        <time>2019-08-17T12:52:59Z</time>
      </trkpt>
      <trkpt lat="42.2205830" lon="-7.8417280">
        <ele>518.2</ele>
        <time>2019-08-17T12:53:00Z</time>
      </trkpt>
      <trkpt lat="42.2206630" lon="-7.8418070">
        <ele>517.5</ele>
        <time>2019-08-17T12:53:01Z</time>
      </trkpt>
      <trkpt lat="42.2207450" lon="-7.8418840">
        <ele>516.8</ele>
        <time>2019-08-17T12:53:02Z</time>
      </trkpt>
      <trkpt lat="42.2208280" lon="-7.8419600">
        <ele>516.0</ele>
        <time>2019-08-17T12:53:03Z</time>
      </trkpt>
      <trkpt lat="42.2209130" lon="-7.8420340">
        <ele>515.3</ele>
        <time>2019-08-17T12:53:04Z</time>
      </trkpt>
      <trkpt lat="42.2210000" lon="-7.8421050">
        <ele>514.7</ele>
        <time>2019-08-17T12:53:05Z</time>
      </trkpt>
      <trkpt lat="42.2210890" lon="-7.8421730">
        <ele>514.2</ele>
        <time>2019-08-17T12:53:06Z</time>
      </trkpt>
      <trkpt lat="42.2211800" lon="-7.8422390">
        <ele>513.7</ele>
        <time>2019-08-17T12:53:07Z</time>
      </trkpt>
      <trkpt lat="42.2212720" lon="-7.8423020">
        <ele>513.3</ele>
        <time>2019-08-17T12:53:08Z</time>
      </trkpt>
      <trkpt lat="42.2213670" lon="-7.8423620">
        <ele>512.7</ele>
        <time>2019-08-17T12:53:09Z</time>
      </trkpt>
      <trkpt lat="42.2214640" lon="-7.8424180">
        <ele>512.2</ele>
        <time>2019-08-17T12:53:10Z</time>
      </trkpt>
      <trkpt lat="42.2215620" lon="-7.8424710">
        <ele>511.7</ele>
        <time>2019-08-17T12:53:11Z</time>
      </trkpt>
      <trkpt lat="42.2216630" lon="-7.8425200">
        <ele>511.2</ele>
        <time>2019-08-17T12:53:12Z</time>
      </trkpt>
      <trkpt lat="42.2217650" lon="-7.8425650">
        <ele>510.6</ele>
        <time>2019-08-17T12:53:13Z</time>
      </trkpt>
      <trkpt lat="42.2218680" lon="-7.8426080">
        <ele>509.8</ele>
        <time>2019-08-17T12:53:14Z</time>
      </trkpt>
      <trkpt lat="42.2219730" lon="-7.8426460">
        <ele>509.2</ele>
        <time>2019-08-17T12:53:15Z</time>
      </trkpt>
      <trkpt lat="42.2220790" lon="-7.8426820">
        <ele>508.4</ele>
        <time>2019-08-17T12:53:16Z</time>
      </trkpt>
      <trkpt lat="42.2221860" lon="-7.8427140">
        <ele>507.7</ele>
        <time>2019-08-17T12:53:17Z</time>
      </trkpt>
      <trkpt lat="42.2222940" lon="-7.8427420">
        <ele>506.9</ele>
        <time>2019-08-17T12:53:18Z</time>
      </trkpt>
      <trkpt lat="42.2224030" lon="-7.8427670">
        <ele>506.1</ele>
        <time>2019-08-17T12:53:19Z</time>
      </trkpt>
      <trkpt lat="42.2225120" lon="-7.8427890">
        <ele>505.2</ele>
        <time>2019-08-17T12:53:20Z</time>
      </trkpt>
      <trkpt lat="42.2226210" lon="-7.8428070">
        <ele>504.5</ele>
        <time>2019-08-17T12:53:21Z</time>
      </trkpt>
      <trkpt lat="42.2227300" lon="-7.8428230">
        <ele>504.0</ele>
        <time>2019-08-17T12:53:22Z</time>
      </trkpt>
      <trkpt lat="42.2228380" lon="-7.8428350">
        <ele>503.2</ele>
        <time>2019-08-17T12:53:23Z</time>
      </trkpt>
      <trkpt lat="42.2229450" lon="-7.8428460">
        <ele>502.3</ele>
        <time>2019-08-17T12:53:24Z</time>
      </trkpt>
      <trkpt lat="42.2230510" lon="-7.8428530">
        <ele>501.3</ele>
        <time>2019-08-17T12:53:25Z</time>
      </trkpt>
      <trkpt lat="42.2231560" lon="-7.8428590">
        <ele>500.5</ele>
        <time>2019-08-17T12:53:26Z</time>
      </trkpt>
      <trkpt lat="42.2232600" lon="-7.8428640">
        <ele>499.9</ele>
        <time>2019-08-17T12:53:27Z</time>
      </trkpt>
      <trkpt lat="42.2233650" lon="-7.8428690">
        <ele>499.5</ele>
        <time>2019-08-17T12:53:28Z</time>
      </trkpt>
      <trkpt lat="42.2234710" lon="-7.8428740">
        <ele>499.0</ele>
        <time>2019-08-17T12:53:29Z</time>
      </trkpt>
      <trkpt lat="42.2235770" lon="-7.8428810">
        <ele>498.2</ele>
        <time>2019-08-17T12:53:30Z</time>
      </trkpt>
      <trkpt lat="42.2236840" lon="-7.8428880">
        <ele>497.2</ele>
        <time>2019-08-17T12:53:31Z</time>
      </trkpt>
      <trkpt lat="42.2237910" lon="-7.8428950">
        <ele>496.3</ele>
        <time>2019-08-17T12:53:32Z</time>
      </trkpt>
      <trkpt lat="42.2238980" lon="-7.8429030">
        <ele>495.7</ele>
        <time>2019-08-17T12:53:33Z</time>
      </trkpt>
      <trkpt lat="42.2240050" lon="-7.8429120">
        <ele>495.1</ele>
        <time>2019-08-17T12:53:34Z</time>
      </trkpt>
      <trkpt lat="42.2241130" lon="-7.8429220">
        <ele>494.4</ele>
        <time>2019-08-17T12:53:35Z</time>
      </trkpt>
      <trkpt lat="42.2242200" lon="-7.8429330">
        <ele>493.8</ele>
        <time>2019-08-17T12:53:36Z</time>
      </trkpt>
      <trkpt lat="42.2243280" lon="-7.8429460">
        <ele>493.2</ele>
        <time>2019-08-17T12:53:37Z</time>
      </trkpt>
      <trkpt lat="42.2244350" lon="-7.8429600">
        <ele>493.3</ele>
        <time>2019-08-17T12:53:38Z</time>
      </trkpt>
      <trkpt lat="42.2245420" lon="-7.8429770">
        <ele>493.4</ele>
        <time>2019-08-17T12:53:39Z</time>
      </trkpt>
      <trkpt lat="42.2246480" lon="-7.8429970">
        <ele>493.3</ele>
        <time>2019-08-17T12:53:40Z</time>
      </trkpt>
      <trkpt lat="42.2247540" lon="-7.8430190">
        <ele>493.2</ele>
        <time>2019-08-17T12:53:41Z</time>
      </trkpt>
      <trkpt lat="42.2248600" lon="-7.8430440">
        <ele>493.1</ele>
        <time>2019-08-17T12:53:42Z</time>
      </trkpt>
      <trkpt lat="42.2249650" lon="-7.8430710">
        <ele>492.9</ele>
        <time>2019-08-17T12:53:43Z</time>
      </trkpt>
      <trkpt lat="42.2250700" lon="-7.8431000">
        <ele>492.7</ele>
        <time>2019-08-17T12:53:44Z</time>
      </trkpt>
      <trkpt lat="42.2251750" lon="-7.8431310">
        <ele>492.4</ele>
        <time>2019-08-17T12:53:45Z</time>
      </trkpt>
      <trkpt lat="42.2252790" lon="-7.8431630">
        <ele>492.1</ele>
        <time>2019-08-17T12:53:46Z</time>
      </trkpt>
      <trkpt lat="42.2253840" lon="-7.8431970">
        <ele>491.6</ele>
        <time>2019-08-17T12:53:47Z</time>
      </trkpt>
      <trkpt lat="42.2254880" lon="-7.8432310">
        <ele>491.1</ele>
        <time>2019-08-17T12:53:48Z</time>
      </trkpt>
      <trkpt lat="42.2255930" lon="-7.8432670">
        <ele>490.6</ele>
        <time>2019-08-17T12:53:49Z</time>
      </trkpt>
      <trkpt lat="42.2256980" lon="-7.8433020">
        <ele>490.1</ele>
        <time>2019-08-17T12:53:50Z</time>
      </trkpt>
      <trkpt lat="42.2258030" lon="-7.8433380">
        <ele>489.7</ele>
        <time>2019-08-17T12:53:51Z</time>
      </trkpt>
      <trkpt lat="42.2259100" lon="-7.8433750">
        <ele>489.2</ele>
        <time>2019-08-17T12:53:52Z</time>
      </trkpt>
      <trkpt lat="42.2260170" lon="-7.8434110">
        <ele>488.8</ele>
        <time>2019-08-17T12:53:53Z</time>
      </trkpt>
      <trkpt lat="42.2261260" lon="-7.8434470">
        <ele>488.2</ele>
        <time>2019-08-17T12:53:54Z</time>
      </trkpt>
      <trkpt lat="42.2262350" lon="-7.8434810">
        <ele>487.8</ele>
        <time>2019-08-17T12:53:55Z</time>
      </trkpt>
      <trkpt lat="42.2263440" lon="-7.8435130">
        <ele>487.3</ele>
        <time>2019-08-17T12:53:56Z</time>
      </trkpt>
      <trkpt lat="42.2264530" lon="-7.8435420">
        <ele>486.8</ele>
        <time>2019-08-17T12:53:57Z</time>
      </trkpt>
      <trkpt lat="42.2265630" lon="-7.8435690">
        <ele>486.3</ele>
        <time>2019-08-17T12:53:58Z</time>
      </trkpt>
      <trkpt lat="42.2266720" lon="-7.8435930">
        <ele>485.7</ele>
        <time>2019-08-17T12:53:59Z</time>
      </trkpt>
      <trkpt lat="42.2267820" lon="-7.8436150">
        <ele>485.1</ele>
        <time>2019-08-17T12:54:00Z</time>
      </trkpt>
      <trkpt lat="42.2268910" lon="-7.8436340">
        <ele>484.4</ele>
        <time>2019-08-17T12:54:01Z</time>
      </trkpt>
      <trkpt lat="42.2270000" lon="-7.8436490">
        <ele>483.6</ele>
        <time>2019-08-17T12:54:02Z</time>
      </trkpt>
      <trkpt lat="42.2271090" lon="-7.8436620">
        <ele>482.9</ele>
        <time>2019-08-17T12:54:03Z</time>
      </trkpt>
      <trkpt lat="42.2272170" lon="-7.8436710">
        <ele>482.1</ele>
        <time>2019-08-17T12:54:04Z</time>
      </trkpt>
      <trkpt lat="42.2273250" lon="-7.8436770">
        <ele>481.4</ele>
        <time>2019-08-17T12:54:05Z</time>
      </trkpt>
      <trkpt lat="42.2274320" lon="-7.8436800">
        <ele>480.7</ele>
        <time>2019-08-17T12:54:06Z</time>
      </trkpt>
      <trkpt lat="42.2275390" lon="-7.8436770">
        <ele>480.0</ele>
        <time>2019-08-17T12:54:07Z</time>
      </trkpt>
      <trkpt lat="42.2276460" lon="-7.8436740">
        <ele>479.4</ele>
        <time>2019-08-17T12:54:08Z</time>
      </trkpt>
      <trkpt lat="42.2277530" lon="-7.8436660">
        <ele>478.8</ele>
        <time>2019-08-17T12:54:09Z</time>
      </trkpt>
      <trkpt lat="42.2278590" lon="-7.8436550">
        <ele>478.2</ele>
        <time>2019-08-17T12:54:10Z</time>
      </trkpt>
      <trkpt lat="42.2279650" lon="-7.8436390">
        <ele>477.2</ele>
        <time>2019-08-17T12:54:11Z</time>
      </trkpt>
      <trkpt lat="42.2280710" lon="-7.8436200">
        <ele>476.4</ele>
        <time>2019-08-17T12:54:12Z</time>
      </trkpt>
      <trkpt lat="42.2281770" lon="-7.8435980">
        <ele>475.6</ele>
        <time>2019-08-17T12:54:13Z</time>
      </trkpt>
      <trkpt lat="42.2282820" lon="-7.8435710">
        <ele>474.9</ele>
        <time>2019-08-17T12:54:14Z</time>
      </trkpt>
      <trkpt lat="42.2283870" lon="-7.8435410">
        <ele>474.3</ele>
        <time>2019-08-17T12:54:15Z</time>
      </trkpt>
      <trkpt lat="42.2284920" lon="-7.8435060">
        <ele>473.9</ele>
        <time>2019-08-17T12:54:16Z</time>
      </trkpt>
      <trkpt lat="42.2285950" lon="-7.8434680">
        <ele>473.6</ele>
        <time>2019-08-17T12:54:17Z</time>
      </trkpt>
      <trkpt lat="42.2286980" lon="-7.8434270">
        <ele>473.4</ele>
        <time>2019-08-17T12:54:18Z</time>
      </trkpt>
      <trkpt lat="42.2287990" lon="-7.8433810">
        <ele>473.2</ele>
        <time>2019-08-17T12:54:19Z</time>
      </trkpt>
      <trkpt lat="42.2289000" lon="-7.8433310">
        <ele>473.1</ele>
        <time>2019-08-17T12:54:20Z</time>
      </trkpt>
      <trkpt lat="42.2289990" lon="-7.8432780">
        <ele>473.0</ele>
        <time>2019-08-17T12:54:21Z</time>
      </trkpt>
      <trkpt lat="42.2290980" lon="-7.8432220">
        <ele>472.9</ele>
        <time>2019-08-17T12:54:22Z</time>
      </trkpt>
      <trkpt lat="42.2291960" lon="-7.8431630">
        <ele>472.8</ele>
        <time>2019-08-17T12:54:23Z</time>
      </trkpt>
      <trkpt lat="42.2292920" lon="-7.8431020">
        <ele>472.7</ele>
        <time>2019-08-17T12:54:24Z</time>
      </trkpt>
      <trkpt lat="42.2293880" lon="-7.8430390">
        <ele>472.5</ele>
        <time>2019-08-17T12:54:25Z</time>
      </trkpt>
      <trkpt lat="42.2294830" lon="-7.8429750">
        <ele>472.1</ele>
        <time>2019-08-17T12:54:26Z</time>
      </trkpt>
      <trkpt lat="42.2295780" lon="-7.8429090">
        <ele>471.7</ele>
        <time>2019-08-17T12:54:27Z</time>
      </trkpt>
      <trkpt lat="42.2296720" lon="-7.8428420">
        <ele>471.1</ele>
        <time>2019-08-17T12:54:28Z</time>
      </trkpt>
      <trkpt lat="42.2297650" lon="-7.8427750">
        <ele>470.5</ele>
        <time>2019-08-17T12:54:29Z</time>
      </trkpt>
      <trkpt lat="42.2298590" lon="-7.8427080">
        <ele>469.7</ele>
        <time>2019-08-17T12:54:30Z</time>
      </trkpt>
      <trkpt lat="42.2299530" lon="-7.8426400">
        <ele>469.0</ele>
        <time>2019-08-17T12:54:31Z</time>
      </trkpt>
      <trkpt lat="42.2300480" lon="-7.8425730">
        <ele>468.2</ele>
        <time>2019-08-17T12:54:32Z</time>
      </trkpt>
      <trkpt lat="42.2301430" lon="-7.8425070">
        <ele>467.5</ele>
        <time>2019-08-17T12:54:33Z</time>
      </trkpt>
      <trkpt lat="42.2302400" lon="-7.8424420">
        <ele>466.9</ele>
        <time>2019-08-17T12:54:34Z</time>
      </trkpt>
      <trkpt lat="42.2303380" lon="-7.8423780">
        <ele>466.3</ele>
        <time>2019-08-17T12:54:35Z</time>
      </trkpt>
      <trkpt lat="42.2304360" lon="-7.8423170">
        <ele>465.7</ele>
        <time>2019-08-17T12:54:36Z</time>
      </trkpt>
      <trkpt lat="42.2305350" lon="-7.8422570">
        <ele>465.1</ele>
        <time>2019-08-17T12:54:37Z</time>
      </trkpt>
      <trkpt lat="42.2306340" lon="-7.8422010">
        <ele>464.5</ele>
        <time>2019-08-17T12:54:38Z</time>
      </trkpt>
      <trkpt lat="42.2307320" lon="-7.8421480">
        <ele>463.9</ele>
        <time>2019-08-17T12:54:39Z</time>
      </trkpt>
      <trkpt lat="42.2308310" lon="-7.8421000">
        <ele>463.3</ele>
        <time>2019-08-17T12:54:40Z</time>
      </trkpt>
      <trkpt lat="42.2309290" lon="-7.8420550">
        <ele>462.6</ele>
        <time>2019-08-17T12:54:41Z</time>
      </trkpt>
      <trkpt lat="42.2310280" lon="-7.8420140">
        <ele>462.0</ele>
        <time>2019-08-17T12:54:42Z</time>
      </trkpt>
      <trkpt lat="42.2311290" lon="-7.8419780">
        <ele>461.4</ele>
        <time>2019-08-17T12:54:43Z</time>
      </trkpt>
      <trkpt lat="42.2312310" lon="-7.8419460">
        <ele>460.8</ele>
        <time>2019-08-17T12:54:44Z</time>
      </trkpt>
      <trkpt lat="42.2313330" lon="-7.8419190">
        <ele>460.2</ele>
        <time>2019-08-17T12:54:45Z</time>
      </trkpt>
      <trkpt lat="42.2314360" lon="-7.8418960">
        <ele>459.7</ele>
        <time>2019-08-17T12:54:46Z</time>
      </trkpt>
      <trkpt lat="42.2315400" lon="-7.8418780">
        <ele>459.2</ele>
        <time>2019-08-17T12:54:47Z</time>
      </trkpt>
      <trkpt lat="42.2316440" lon="-7.8418640">
        <ele>458.7</ele>
        <time>2019-08-17T12:54:48Z</time>
      </trkpt>
      <trkpt lat="42.2317490" lon="-7.8418550">
        <ele>458.2</ele>
        <time>2019-08-17T12:54:49Z</time>
      </trkpt>
      <trkpt lat="42.2318530" lon="-7.8418510">
        <ele>457.7</ele>
        <time>2019-08-17T12:54:50Z</time>
      </trkpt>
      <trkpt lat="42.2319570" lon="-7.8418510">
        <ele>457.1</ele>
        <time>2019-08-17T12:54:51Z</time>
      </trkpt>
      <trkpt lat="42.2321130" lon="-7.8418610">
        <ele>456.3</ele>
        <time>2019-08-17T12:54:52Z</time>
      </trkpt>
      <trkpt lat="42.2321650" lon="-7.8418670">
        <ele>456.0</ele>
        <time>2019-08-17T12:54:53Z</time>
      </trkpt>
      <trkpt lat="42.2322680" lon="-7.8418790">
        <ele>455.4</ele>
        <time>2019-08-17T12:54:54Z</time>
      </trkpt>
      <trkpt lat="42.2323710" lon="-7.8418980">
        <ele>454.7</ele>
        <time>2019-08-17T12:54:55Z</time>
      </trkpt>
      <trkpt lat="42.2324740" lon="-7.8419210">
        <ele>454.0</ele>
        <time>2019-08-17T12:54:56Z</time>
      </trkpt>
      <trkpt lat="42.2325770" lon="-7.8419490">
        <ele>453.2</ele>
        <time>2019-08-17T12:54:57Z</time>
      </trkpt>
      <trkpt lat="42.2326800" lon="-7.8419820">
        <ele>452.5</ele>
        <time>2019-08-17T12:54:58Z</time>
      </trkpt>
      <trkpt lat="42.2327830" lon="-7.8420200">
        <ele>451.8</ele>
        <time>2019-08-17T12:54:59Z</time>
      </trkpt>
      <trkpt lat="42.2328850" lon="-7.8420620">
        <ele>451.1</ele>
        <time>2019-08-17T12:55:00Z</time>
      </trkpt>
      <trkpt lat="42.2329870" lon="-7.8421080">
        <ele>450.4</ele>
        <time>2019-08-17T12:55:01Z</time>
      </trkpt>
      <trkpt lat="42.2330870" lon="-7.8421590">
        <ele>449.7</ele>
        <time>2019-08-17T12:55:02Z</time>
      </trkpt>
      <trkpt lat="42.2331860" lon="-7.8422140">
        <ele>449.1</ele>
        <time>2019-08-17T12:55:03Z</time>
      </trkpt>
      <trkpt lat="42.2332830" lon="-7.8422730">
        <ele>448.5</ele>
        <time>2019-08-17T12:55:04Z</time>
      </trkpt>
      <trkpt lat="42.2333790" lon="-7.8423370">
        <ele>447.9</ele>
        <time>2019-08-17T12:55:05Z</time>
      </trkpt>
      <trkpt lat="42.2334720" lon="-7.8424040">
        <ele>447.3</ele>
        <time>2019-08-17T12:55:06Z</time>
      </trkpt>
      <trkpt lat="42.2335640" lon="-7.8424760">
        <ele>446.7</ele>
        <time>2019-08-17T12:55:07Z</time>
      </trkpt>
      <trkpt lat="42.2336530" lon="-7.8425510">
        <ele>446.1</ele>
        <time>2019-08-17T12:55:08Z</time>
      </trkpt>
      <trkpt lat="42.2337390" lon="-7.8426300">
        <ele>445.5</ele>
        <time>2019-08-17T12:55:09Z</time>
      </trkpt>
      <trkpt lat="42.2338240" lon="-7.8427120">
        <ele>444.9</ele>
        <time>2019-08-17T12:55:10Z</time>
      </trkpt>
      <trkpt lat="42.2339050" lon="-7.8427970">
        <ele>444.4</ele>
        <time>2019-08-17T12:55:11Z</time>
      </trkpt>
      <trkpt lat="42.2339840" lon="-7.8428850">
        <ele>443.8</ele>
        <time>2019-08-17T12:55:12Z</time>
      </trkpt>
      <trkpt lat="42.2340600" lon="-7.8429760">
        <ele>443.2</ele>
        <time>2019-08-17T12:55:13Z</time>
      </trkpt>
      <trkpt lat="42.2341330" lon="-7.8430700">
        <ele>442.5</ele>
        <time>2019-08-17T12:55:14Z</time>
      </trkpt>
      <trkpt lat="42.2342040" lon="-7.8431650">
        <ele>441.7</ele>
        <time>2019-08-17T12:55:15Z</time>
      </trkpt>
      <trkpt lat="42.2342730" lon="-7.8432630">
        <ele>440.9</ele>
        <time>2019-08-17T12:55:16Z</time>
      </trkpt>
      <trkpt lat="42.2343390" lon="-7.8433610">
        <ele>439.9</ele>
        <time>2019-08-17T12:55:17Z</time>
      </trkpt>
      <trkpt lat="42.2344050" lon="-7.8434610">
        <ele>438.7</ele>
        <time>2019-08-17T12:55:18Z</time>
      </trkpt>
      <trkpt lat="42.2344690" lon="-7.8435610">
        <ele>437.6</ele>
        <time>2019-08-17T12:55:19Z</time>
      </trkpt>
      <trkpt lat="42.2345330" lon="-7.8436610">
        <ele>436.5</ele>
        <time>2019-08-17T12:55:20Z</time>
      </trkpt>
      <trkpt lat="42.2345970" lon="-7.8437610">
        <ele>435.6</ele>
        <time>2019-08-17T12:55:21Z</time>
      </trkpt>
      <trkpt lat="42.2346610" lon="-7.8438590">
        <ele>434.8</ele>
        <time>2019-08-17T12:55:22Z</time>
      </trkpt>
      <trkpt lat="42.2347250" lon="-7.8439570">
        <ele>434.2</ele>
        <time>2019-08-17T12:55:23Z</time>
      </trkpt>
      <trkpt lat="42.2347900" lon="-7.8440540">
        <ele>433.6</ele>
        <time>2019-08-17T12:55:24Z</time>
      </trkpt>
      <trkpt lat="42.2348540" lon="-7.8441490">
        <ele>433.2</ele>
        <time>2019-08-17T12:55:25Z</time>
      </trkpt>
      <trkpt lat="42.2349190" lon="-7.8442430">
        <ele>432.8</ele>
        <time>2019-08-17T12:55:26Z</time>
      </trkpt>
      <trkpt lat="42.2349850" lon="-7.8443350">
        <ele>432.4</ele>
        <time>2019-08-17T12:55:27Z</time>
      </trkpt>
      <trkpt lat="42.2350510" lon="-7.8444250">
        <ele>431.8</ele>
        <time>2019-08-17T12:55:28Z</time>
      </trkpt>
      <trkpt lat="42.2351620" lon="-7.8445700">
        <ele>430.7</ele>
        <time>2019-08-17T12:55:29Z</time>
      </trkpt>
      <trkpt lat="42.2352060" lon="-7.8446270">
        <ele>430.3</ele>
        <time>2019-08-17T12:55:30Z</time>
      </trkpt>
      <trkpt lat="42.2352510" lon="-7.8446840">
        <ele>429.8</ele>
        <time>2019-08-17T12:55:31Z</time>
      </trkpt>
      <trkpt lat="42.2353180" lon="-7.8447660">
        <ele>429.2</ele>
        <time>2019-08-17T12:55:32Z</time>
      </trkpt>
      <trkpt lat="42.2353860" lon="-7.8448460">
        <ele>428.6</ele>
        <time>2019-08-17T12:55:33Z</time>
      </trkpt>
      <trkpt lat="42.2355020" lon="-7.8449720">
        <ele>427.6</ele>
        <time>2019-08-17T12:55:34Z</time>
      </trkpt>
      <trkpt lat="42.2355480" lon="-7.8450210">
        <ele>427.3</ele>
        <time>2019-08-17T12:55:35Z</time>
      </trkpt>
      <trkpt lat="42.2355950" lon="-7.8450700">
        <ele>427.0</ele>
        <time>2019-08-17T12:55:36Z</time>
      </trkpt>
      <trkpt lat="42.2356660" lon="-7.8451400">
        <ele>426.5</ele>
        <time>2019-08-17T12:55:37Z</time>
      </trkpt>
      <trkpt lat="42.2357380" lon="-7.8452070">
        <ele>426.0</ele>
        <time>2019-08-17T12:55:38Z</time>
      </trkpt>
      <trkpt lat="42.2358110" lon="-7.8452720">
        <ele>425.4</ele>
        <time>2019-08-17T12:55:39Z</time>
      </trkpt>
      <trkpt lat="42.2358850" lon="-7.8453340">
        <ele>424.9</ele>
        <time>2019-08-17T12:55:40Z</time>
      </trkpt>
      <trkpt lat="42.2359590" lon="-7.8453950">
        <ele>424.3</ele>
        <time>2019-08-17T12:55:41Z</time>
      </trkpt>
      <trkpt lat="42.2360350" lon="-7.8454530">
        <ele>423.6</ele>
        <time>2019-08-17T12:55:42Z</time>
      </trkpt>
      <trkpt lat="42.2361130" lon="-7.8455090">
        <ele>423.0</ele>
        <time>2019-08-17T12:55:43Z</time>
      </trkpt>
      <trkpt lat="42.2361910" lon="-7.8455640">
        <ele>422.4</ele>
        <time>2019-08-17T12:55:44Z</time>
      </trkpt>
      <trkpt lat="42.2362710" lon="-7.8456170">
        <ele>421.9</ele>
        <time>2019-08-17T12:55:45Z</time>
      </trkpt>
      <trkpt lat="42.2363520" lon="-7.8456680">
        <ele>421.3</ele>
        <time>2019-08-17T12:55:46Z</time>
      </trkpt>
      <trkpt lat="42.2364340" lon="-7.8457170">
        <ele>420.7</ele>
        <time>2019-08-17T12:55:47Z</time>
      </trkpt>
      <trkpt lat="42.2365180" lon="-7.8457650">
        <ele>420.1</ele>
        <time>2019-08-17T12:55:48Z</time>
      </trkpt>
      <trkpt lat="42.2366040" lon="-7.8458100">
        <ele>419.6</ele>
        <time>2019-08-17T12:55:49Z</time>
      </trkpt>
      <trkpt lat="42.2366910" lon="-7.8458520">
        <ele>419.2</ele>
        <time>2019-08-17T12:55:50Z</time>
      </trkpt>
      <trkpt lat="42.2367790" lon="-7.8458930">
        <ele>419.0</ele>
        <time>2019-08-17T12:55:51Z</time>
      </trkpt>
      <trkpt lat="42.2368690" lon="-7.8459300">
        <ele>418.7</ele>
        <time>2019-08-17T12:55:52Z</time>
      </trkpt>
      <trkpt lat="42.2369600" lon="-7.8459650">
        <ele>418.3</ele>
        <time>2019-08-17T12:55:53Z</time>
      </trkpt>
      <trkpt lat="42.2370530" lon="-7.8459970">
        <ele>417.8</ele>
        <time>2019-08-17T12:55:54Z</time>
      </trkpt>
      <trkpt lat="42.2371480" lon="-7.8460260">
        <ele>417.2</ele>
        <time>2019-08-17T12:55:55Z</time>
      </trkpt>
      <trkpt lat="42.2372430" lon="-7.8460520">
        <ele>416.7</ele>
        <time>2019-08-17T12:55:56Z</time>
      </trkpt>
      <trkpt lat="42.2373400" lon="-7.8460740">
        <ele>416.1</ele>
        <time>2019-08-17T12:55:57Z</time>
      </trkpt>
      <trkpt lat="42.2374390" lon="-7.8460940">
        <ele>415.5</ele>
        <time>2019-08-17T12:55:58Z</time>
      </trkpt>
      <trkpt lat="42.2375380" lon="-7.8461100">
        <ele>415.0</ele>
        <time>2019-08-17T12:55:59Z</time>
      </trkpt>
      <trkpt lat="42.2376390" lon="-7.8461220">
        <ele>414.5</ele>
        <time>2019-08-17T12:56:00Z</time>
      </trkpt>
      <trkpt lat="42.2377410" lon="-7.8461310">
        <ele>413.9</ele>
        <time>2019-08-17T12:56:01Z</time>
      </trkpt>
      <trkpt lat="42.2378430" lon="-7.8461360">
        <ele>413.4</ele>
        <time>2019-08-17T12:56:02Z</time>
      </trkpt>
      <trkpt lat="42.2379460" lon="-7.8461370">
        <ele>413.0</ele>
        <time>2019-08-17T12:56:03Z</time>
      </trkpt>
      <trkpt lat="42.2380500" lon="-7.8461350">
        <ele>412.6</ele>
        <time>2019-08-17T12:56:04Z</time>
      </trkpt>
      <trkpt lat="42.2381550" lon="-7.8461280">
        <ele>411.9</ele>
        <time>2019-08-17T12:56:05Z</time>
      </trkpt>
      <trkpt lat="42.2382590" lon="-7.8461210">
        <ele>411.2</ele>
        <time>2019-08-17T12:56:06Z</time>
      </trkpt>
      <trkpt lat="42.2383640" lon="-7.8461080">
        <ele>410.5</ele>
        <time>2019-08-17T12:56:07Z</time>
      </trkpt>
      <trkpt lat="42.2384700" lon="-7.8460910">
        <ele>409.8</ele>
        <time>2019-08-17T12:56:08Z</time>
      </trkpt>
      <trkpt lat="42.2385750" lon="-7.8460710">
        <ele>409.3</ele>
        <time>2019-08-17T12:56:09Z</time>
      </trkpt>
      <trkpt lat="42.2386800" lon="-7.8460480">
        <ele>408.7</ele>
        <time>2019-08-17T12:56:10Z</time>
      </trkpt>
      <trkpt lat="42.2387840" lon="-7.8460210">
        <ele>408.2</ele>
        <time>2019-08-17T12:56:11Z</time>
      </trkpt>
      <trkpt lat="42.2388880" lon="-7.8459900">
        <ele>407.6</ele>
        <time>2019-08-17T12:56:12Z</time>
      </trkpt>
      <trkpt lat="42.2389920" lon="-7.8459550">
        <ele>407.1</ele>
        <time>2019-08-17T12:56:13Z</time>
      </trkpt>
      <trkpt lat="42.2390950" lon="-7.8459170">
        <ele>406.4</ele>
        <time>2019-08-17T12:56:14Z</time>
      </trkpt>
      <trkpt lat="42.2391970" lon="-7.8458760">
        <ele>405.8</ele>
        <time>2019-08-17T12:56:15Z</time>
      </trkpt>
      <trkpt lat="42.2392990" lon="-7.8458300">
        <ele>405.2</ele>
        <time>2019-08-17T12:56:16Z</time>
      </trkpt>
      <trkpt lat="42.2393990" lon="-7.8457810">
        <ele>404.7</ele>
        <time>2019-08-17T12:56:17Z</time>
      </trkpt>
      <trkpt lat="42.2394990" lon="-7.8457290">
        <ele>404.1</ele>
        <time>2019-08-17T12:56:18Z</time>
      </trkpt>
      <trkpt lat="42.2395970" lon="-7.8456730">
        <ele>403.5</ele>
        <time>2019-08-17T12:56:19Z</time>
      </trkpt>
      <trkpt lat="42.2396950" lon="-7.8456130">
        <ele>402.8</ele>
        <time>2019-08-17T12:56:20Z</time>
      </trkpt>
      <trkpt lat="42.2397920" lon="-7.8455500">
        <ele>402.1</ele>
        <time>2019-08-17T12:56:21Z</time>
      </trkpt>
      <trkpt lat="42.2398880" lon="-7.8454840">
        <ele>401.5</ele>
        <time>2019-08-17T12:56:22Z</time>
      </trkpt>
      <trkpt lat="42.2399830" lon="-7.8454140">
        <ele>400.9</ele>
        <time>2019-08-17T12:56:23Z</time>
      </trkpt>
      <trkpt lat="42.2400770" lon="-7.8453410">
        <ele>400.2</ele>
        <time>2019-08-17T12:56:24Z</time>
      </trkpt>
      <trkpt lat="42.2401700" lon="-7.8452650">
        <ele>399.5</ele>
        <time>2019-08-17T12:56:25Z</time>
      </trkpt>
      <trkpt lat="42.2402630" lon="-7.8451860">
        <ele>398.7</ele>
        <time>2019-08-17T12:56:26Z</time>
      </trkpt>
      <trkpt lat="42.2403560" lon="-7.8451050">
        <ele>398.1</ele>
        <time>2019-08-17T12:56:27Z</time>
      </trkpt>
      <trkpt lat="42.2404480" lon="-7.8450210">
        <ele>397.5</ele>
        <time>2019-08-17T12:56:28Z</time>
      </trkpt>
      <trkpt lat="42.2405410" lon="-7.8449360">
        <ele>396.8</ele>
        <time>2019-08-17T12:56:29Z</time>
      </trkpt>
      <trkpt lat="42.2406330" lon="-7.8448490">
        <ele>396.1</ele>
        <time>2019-08-17T12:56:30Z</time>
      </trkpt>
      <trkpt lat="42.2407260" lon="-7.8447600">
        <ele>395.3</ele>
        <time>2019-08-17T12:56:31Z</time>
      </trkpt>
      <trkpt lat="42.2408200" lon="-7.8446710">
        <ele>394.6</ele>
        <time>2019-08-17T12:56:32Z</time>
      </trkpt>
      <trkpt lat="42.2409130" lon="-7.8445820">
        <ele>393.9</ele>
        <time>2019-08-17T12:56:33Z</time>
      </trkpt>
      <trkpt lat="42.2410060" lon="-7.8444920">
        <ele>393.2</ele>
        <time>2019-08-17T12:56:34Z</time>
      </trkpt>
      <trkpt lat="42.2410990" lon="-7.8444030">
        <ele>392.5</ele>
        <time>2019-08-17T12:56:35Z</time>
      </trkpt>
      <trkpt lat="42.2411930" lon="-7.8443150">
        <ele>391.6</ele>
        <time>2019-08-17T12:56:36Z</time>
      </trkpt>
      <trkpt lat="42.2412850" lon="-7.8442270">
        <ele>390.9</ele>
        <time>2019-08-17T12:56:37Z</time>
      </trkpt>
      <trkpt lat="42.2413780" lon="-7.8441420">
        <ele>390.2</ele>
        <time>2019-08-17T12:56:38Z</time>
      </trkpt>
      <trkpt lat="42.2414700" lon="-7.8440590">
        <ele>389.6</ele>
        <time>2019-08-17T12:56:39Z</time>
      </trkpt>
      <trkpt lat="42.2415620" lon="-7.8439770">
        <ele>389.1</ele>
        <time>2019-08-17T12:56:40Z</time>
      </trkpt>
      <trkpt lat="42.2416530" lon="-7.8438990">
        <ele>388.5</ele>
        <time>2019-08-17T12:56:41Z</time>
      </trkpt>
      <trkpt lat="42.2417450" lon="-7.8438220">
        <ele>387.9</ele>
        <time>2019-08-17T12:56:42Z</time>
      </trkpt>
      <trkpt lat="42.2418360" lon="-7.8437480">
        <ele>387.3</ele>
        <time>2019-08-17T12:56:43Z</time>
      </trkpt>
      <trkpt lat="42.2419900" lon="-7.8436330">
        <ele>386.2</ele>
        <time>2019-08-17T12:56:44Z</time>
      </trkpt>
      <trkpt lat="42.2420510" lon="-7.8435880">
        <ele>385.8</ele>
        <time>2019-08-17T12:56:45Z</time>
      </trkpt>
      <trkpt lat="42.2421130" lon="-7.8435440">
        <ele>385.4</ele>
        <time>2019-08-17T12:56:46Z</time>
      </trkpt>
      <trkpt lat="42.2422060" lon="-7.8434790">
        <ele>384.8</ele>
        <time>2019-08-17T12:56:47Z</time>
      </trkpt>
      <trkpt lat="42.2423000" lon="-7.8434180">
        <ele>384.2</ele>
        <time>2019-08-17T12:56:48Z</time>
      </trkpt>
      <trkpt lat="42.2424580" lon="-7.8433260">
        <ele>383.1</ele>
        <time>2019-08-17T12:56:49Z</time>
      </trkpt>
      <trkpt lat="42.2425210" lon="-7.8432900">
        <ele>382.7</ele>
        <time>2019-08-17T12:56:50Z</time>
      </trkpt>
      <trkpt lat="42.2425850" lon="-7.8432550">
        <ele>382.2</ele>
        <time>2019-08-17T12:56:51Z</time>
      </trkpt>
      <trkpt lat="42.2426810" lon="-7.8432030">
        <ele>381.5</ele>
        <time>2019-08-17T12:56:52Z</time>
      </trkpt>
      <trkpt lat="42.2427770" lon="-7.8431560">
        <ele>380.9</ele>
        <time>2019-08-17T12:56:53Z</time>
      </trkpt>
      <trkpt lat="42.2428750" lon="-7.8431110">
        <ele>380.3</ele>
        <time>2019-08-17T12:56:54Z</time>
      </trkpt>
      <trkpt lat="42.2429720" lon="-7.8430680">
        <ele>379.7</ele>
        <time>2019-08-17T12:56:55Z</time>
      </trkpt>
      <trkpt lat="42.2430700" lon="-7.8430280">
        <ele>379.0</ele>
        <time>2019-08-17T12:56:56Z</time>
      </trkpt>
      <trkpt lat="42.2431690" lon="-7.8429890">
        <ele>378.1</ele>
        <time>2019-08-17T12:56:57Z</time>
      </trkpt>
      <trkpt lat="42.2432680" lon="-7.8429530">
        <ele>377.4</ele>
        <time>2019-08-17T12:56:58Z</time>
      </trkpt>
      <trkpt lat="42.2433670" lon="-7.8429190">
        <ele>376.7</ele>
        <time>2019-08-17T12:56:59Z</time>
      </trkpt>
      <trkpt lat="42.2434670" lon="-7.8428870">
        <ele>376.3</ele>
        <time>2019-08-17T12:57:00Z</time>
      </trkpt>
      <trkpt lat="42.2435670" lon="-7.8428570">
        <ele>375.9</ele>
        <time>2019-08-17T12:57:01Z</time>
      </trkpt>
      <trkpt lat="42.2436670" lon="-7.8428290">
        <ele>375.4</ele>
        <time>2019-08-17T12:57:02Z</time>
      </trkpt>
      <trkpt lat="42.2437680" lon="-7.8428020">
        <ele>375.0</ele>
        <time>2019-08-17T12:57:03Z</time>
      </trkpt>
      <trkpt lat="42.2438690" lon="-7.8427770">
        <ele>374.4</ele>
        <time>2019-08-17T12:57:04Z</time>
      </trkpt>
      <trkpt lat="42.2439700" lon="-7.8427540">
        <ele>373.8</ele>
        <time>2019-08-17T12:57:05Z</time>
      </trkpt>
      <trkpt lat="42.2440710" lon="-7.8427320">
        <ele>373.3</ele>
        <time>2019-08-17T12:57:06Z</time>
      </trkpt>
      <trkpt lat="42.2441730" lon="-7.8427120">
        <ele>372.7</ele>
        <time>2019-08-17T12:57:07Z</time>
      </trkpt>
      <trkpt lat="42.2442740" lon="-7.8426930">
        <ele>372.2</ele>
        <time>2019-08-17T12:57:08Z</time>
      </trkpt>
      <trkpt lat="42.2443750" lon="-7.8426750">
        <ele>371.7</ele>
        <time>2019-08-17T12:57:09Z</time>
      </trkpt>
      <trkpt lat="42.2444760" lon="-7.8426580">
        <ele>371.1</ele>
        <time>2019-08-17T12:57:10Z</time>
      </trkpt>
      <trkpt lat="42.2445770" lon="-7.8426410">
        <ele>370.6</ele>
        <time>2019-08-17T12:57:11Z</time>
      </trkpt>
      <trkpt lat="42.2446780" lon="-7.8426250">
        <ele>369.9</ele>
        <time>2019-08-17T12:57:12Z</time>
      </trkpt>
      <trkpt lat="42.2447790" lon="-7.8426090">
        <ele>369.3</ele>
        <time>2019-08-17T12:57:13Z</time>
      </trkpt>
      <trkpt lat="42.2448790" lon="-7.8425920">
        <ele>368.6</ele>
        <time>2019-08-17T12:57:14Z</time>
      </trkpt>
      <trkpt lat="42.2449790" lon="-7.8425750">
        <ele>367.9</ele>
        <time>2019-08-17T12:57:15Z</time>
      </trkpt>
      <trkpt lat="42.2450790" lon="-7.8425560">
        <ele>367.3</ele>
        <time>2019-08-17T12:57:16Z</time>
      </trkpt>
      <trkpt lat="42.2451790" lon="-7.8425350">
        <ele>366.8</ele>
        <time>2019-08-17T12:57:17Z</time>
      </trkpt>
      <trkpt lat="42.2452790" lon="-7.8425130">
        <ele>366.3</ele>
        <time>2019-08-17T12:57:18Z</time>
      </trkpt>
      <trkpt lat="42.2453790" lon="-7.8424880">
        <ele>365.8</ele>
        <time>2019-08-17T12:57:19Z</time>
      </trkpt>
      <trkpt lat="42.2454780" lon="-7.8424610">
        <ele>365.2</ele>
        <time>2019-08-17T12:57:20Z</time>
      </trkpt>
      <trkpt lat="42.2455760" lon="-7.8424320">
        <ele>364.7</ele>
        <time>2019-08-17T12:57:21Z</time>
      </trkpt>
      <trkpt lat="42.2456740" lon="-7.8424010">
        <ele>364.4</ele>
        <time>2019-08-17T12:57:22Z</time>
      </trkpt>
      <trkpt lat="42.2457720" lon="-7.8423680">
        <ele>364.1</ele>
        <time>2019-08-17T12:57:23Z</time>
      </trkpt>
      <trkpt lat="42.2458680" lon="-7.8423330">
        <ele>363.9</ele>
        <time>2019-08-17T12:57:24Z</time>
      </trkpt>
      <trkpt lat="42.2459640" lon="-7.8422960">
        <ele>363.7</ele>
        <time>2019-08-17T12:57:25Z</time>
      </trkpt>
      <trkpt lat="42.2460590" lon="-7.8422570">
        <ele>363.6</ele>
        <time>2019-08-17T12:57:26Z</time>
      </trkpt>
      <trkpt lat="42.2461530" lon="-7.8422160">
        <ele>363.4</ele>
        <time>2019-08-17T12:57:27Z</time>
      </trkpt>
      <trkpt lat="42.2462470" lon="-7.8421720">
        <ele>363.3</ele>
        <time>2019-08-17T12:57:28Z</time>
      </trkpt>
      <trkpt lat="42.2463400" lon="-7.8421270">
        <ele>363.2</ele>
        <time>2019-08-17T12:57:29Z</time>
      </trkpt>
      <trkpt lat="42.2464330" lon="-7.8420790">
        <ele>363.1</ele>
        <time>2019-08-17T12:57:30Z</time>
      </trkpt>
      <trkpt lat="42.2465260" lon="-7.8420290">
        <ele>362.9</ele>
        <time>2019-08-17T12:57:31Z</time>
      </trkpt>
      <trkpt lat="42.2466180" lon="-7.8419770">
        <ele>362.6</ele>
        <time>2019-08-17T12:57:32Z</time>
      </trkpt>
      <trkpt lat="42.2467120" lon="-7.8419230">
        <ele>362.1</ele>
        <time>2019-08-17T12:57:33Z</time>
      </trkpt>
      <trkpt lat="42.2468050" lon="-7.8418670">
        <ele>361.6</ele>
        <time>2019-08-17T12:57:34Z</time>
      </trkpt>
      <trkpt lat="42.2468990" lon="-7.8418080">
        <ele>361.0</ele>
        <time>2019-08-17T12:57:35Z</time>
      </trkpt>
      <trkpt lat="42.2469920" lon="-7.8417470">
        <ele>360.3</ele>
        <time>2019-08-17T12:57:36Z</time>
      </trkpt>
      <trkpt lat="42.2470850" lon="-7.8416840">
        <ele>359.7</ele>
        <time>2019-08-17T12:57:37Z</time>
      </trkpt>
      <trkpt lat="42.2471780" lon="-7.8416180">
        <ele>359.0</ele>
        <time>2019-08-17T12:57:38Z</time>
      </trkpt>
      <trkpt lat="42.2472700" lon="-7.8415500">
        <ele>358.5</ele>
        <time>2019-08-17T12:57:39Z</time>
      </trkpt>
      <trkpt lat="42.2473620" lon="-7.8414800">
        <ele>358.0</ele>
        <time>2019-08-17T12:57:40Z</time>
      </trkpt>
      <trkpt lat="42.2474530" lon="-7.8414070">
        <ele>357.6</ele>
        <time>2019-08-17T12:57:41Z</time>
      </trkpt>
      <trkpt lat="42.2475430" lon="-7.8413320">
        <ele>357.2</ele>
        <time>2019-08-17T12:57:42Z</time>
      </trkpt>
      <trkpt lat="42.2476320" lon="-7.8412540">
        <ele>356.8</ele>
        <time>2019-08-17T12:57:43Z</time>
      </trkpt>
      <trkpt lat="42.2477210" lon="-7.8411750">
        <ele>356.3</ele>
        <time>2019-08-17T12:57:44Z</time>
      </trkpt>
      <trkpt lat="42.2478080" lon="-7.8410930">
        <ele>355.9</ele>
        <time>2019-08-17T12:57:45Z</time>
      </trkpt>
      <trkpt lat="42.2478950" lon="-7.8410080">
        <ele>355.5</ele>
        <time>2019-08-17T12:57:46Z</time>
      </trkpt>
      <trkpt lat="42.2479810" lon="-7.8409220">
        <ele>355.1</ele>
        <time>2019-08-17T12:57:47Z</time>
      </trkpt>
      <trkpt lat="42.2480660" lon="-7.8408330">
        <ele>354.6</ele>
        <time>2019-08-17T12:57:48Z</time>
      </trkpt>
      <trkpt lat="42.2481500" lon="-7.8407430">
        <ele>354.1</ele>
        <time>2019-08-17T12:57:49Z</time>
      </trkpt>
      <trkpt lat="42.2482330" lon="-7.8406500">
        <ele>353.5</ele>
        <time>2019-08-17T12:57:50Z</time>
      </trkpt>
      <trkpt lat="42.2483150" lon="-7.8405560">
        <ele>353.0</ele>
        <time>2019-08-17T12:57:51Z</time>
      </trkpt>
      <trkpt lat="42.2483960" lon="-7.8404590">
        <ele>352.5</ele>
        <time>2019-08-17T12:57:52Z</time>
      </trkpt>
      <trkpt lat="42.2484760" lon="-7.8403600">
        <ele>352.1</ele>
        <time>2019-08-17T12:57:53Z</time>
      </trkpt>
      <trkpt lat="42.2485550" lon="-7.8402600">
        <ele>351.7</ele>
        <time>2019-08-17T12:57:54Z</time>
      </trkpt>
      <trkpt lat="42.2486330" lon="-7.8401570">
        <ele>351.3</ele>
        <time>2019-08-17T12:57:55Z</time>
      </trkpt>
      <trkpt lat="42.2487100" lon="-7.8400530">
        <ele>350.9</ele>
        <time>2019-08-17T12:57:56Z</time>
      </trkpt>
      <trkpt lat="42.2487850" lon="-7.8399470">
        <ele>350.5</ele>
        <time>2019-08-17T12:57:57Z</time>
      </trkpt>
      <trkpt lat="42.2488580" lon="-7.8398400">
        <ele>350.0</ele>
        <time>2019-08-17T12:57:58Z</time>
      </trkpt>
      <trkpt lat="42.2489300" lon="-7.8397330">
        <ele>349.5</ele>
        <time>2019-08-17T12:57:59Z</time>
      </trkpt>
      <trkpt lat="42.2489990" lon="-7.8396270">
        <ele>349.1</ele>
        <time>2019-08-17T12:58:00Z</time>
      </trkpt>
      <trkpt lat="42.2490660" lon="-7.8395230">
        <ele>348.6</ele>
        <time>2019-08-17T12:58:01Z</time>
      </trkpt>
      <trkpt lat="42.2491310" lon="-7.8394200">
        <ele>348.2</ele>
        <time>2019-08-17T12:58:02Z</time>
      </trkpt>
      <trkpt lat="42.2491950" lon="-7.8393170">
        <ele>347.8</ele>
        <time>2019-08-17T12:58:03Z</time>
      </trkpt>
      <trkpt lat="42.2492580" lon="-7.8392130">
        <ele>347.4</ele>
        <time>2019-08-17T12:58:04Z</time>
      </trkpt>
      <trkpt lat="42.2493210" lon="-7.8391090">
        <ele>347.1</ele>
        <time>2019-08-17T12:58:05Z</time>
      </trkpt>
      <trkpt lat="42.2493840" lon="-7.8390040">
        <ele>346.6</ele>
        <time>2019-08-17T12:58:06Z</time>
      </trkpt>
      <trkpt lat="42.2494460" lon="-7.8388990">
        <ele>346.2</ele>
        <time>2019-08-17T12:58:07Z</time>
      </trkpt>
      <trkpt lat="42.2495080" lon="-7.8387940">
        <ele>345.8</ele>
        <time>2019-08-17T12:58:08Z</time>
      </trkpt>
      <trkpt lat="42.2495700" lon="-7.8386900">
        <ele>345.5</ele>
        <time>2019-08-17T12:58:09Z</time>
      </trkpt>
      <trkpt lat="42.2496320" lon="-7.8385870">
        <ele>345.1</ele>
        <time>2019-08-17T12:58:10Z</time>
      </trkpt>
      <trkpt lat="42.2496930" lon="-7.8384850">
        <ele>344.9</ele>
        <time>2019-08-17T12:58:11Z</time>
      </trkpt>
      <trkpt lat="42.2497550" lon="-7.8383850">
        <ele>344.7</ele>
        <time>2019-08-17T12:58:12Z</time>
      </trkpt>
      <trkpt lat="42.2498160" lon="-7.8382860">
        <ele>344.6</ele>
        <time>2019-08-17T12:58:13Z</time>
      </trkpt>
      <trkpt lat="42.2498780" lon="-7.8381880">
        <ele>344.5</ele>
        <time>2019-08-17T12:58:14Z</time>
      </trkpt>
      <trkpt lat="42.2499400" lon="-7.8380920">
        <ele>344.5</ele>
        <time>2019-08-17T12:58:15Z</time>
      </trkpt>
      <trkpt lat="42.2500020" lon="-7.8379980">
        <ele>344.4</ele>
        <time>2019-08-17T12:58:16Z</time>
      </trkpt>
      <trkpt lat="42.2500650" lon="-7.8379050">
        <ele>344.3</ele>
        <time>2019-08-17T12:58:17Z</time>
      </trkpt>
      <trkpt lat="42.2501290" lon="-7.8378130">
        <ele>344.3</ele>
        <time>2019-08-17T12:58:18Z</time>
      </trkpt>
      <trkpt lat="42.2501930" lon="-7.8377220">
        <ele>344.2</ele>
        <time>2019-08-17T12:58:19Z</time>
      </trkpt>
      <trkpt lat="42.2502580" lon="-7.8376330">
        <ele>344.2</ele>
        <time>2019-08-17T12:58:20Z</time>
      </trkpt>
      <trkpt lat="42.2503250" lon="-7.8375450">
        <ele>344.1</ele>
        <time>2019-08-17T12:58:21Z</time>
      </trkpt>
      <trkpt lat="42.2503920" lon="-7.8374580">
        <ele>343.7</ele>
        <time>2019-08-17T12:58:22Z</time>
      </trkpt>
      <trkpt lat="42.2504600" lon="-7.8373730">
        <ele>343.2</ele>
        <time>2019-08-17T12:58:23Z</time>
      </trkpt>
      <trkpt lat="42.2505300" lon="-7.8372890">
        <ele>342.6</ele>
        <time>2019-08-17T12:58:24Z</time>
      </trkpt>
      <trkpt lat="42.2506000" lon="-7.8372060">
        <ele>342.1</ele>
        <time>2019-08-17T12:58:25Z</time>
      </trkpt>
      <trkpt lat="42.2506720" lon="-7.8371250">
        <ele>341.5</ele>
        <time>2019-08-17T12:58:26Z</time>
      </trkpt>
      <trkpt lat="42.2507450" lon="-7.8370460">
        <ele>340.9</ele>
        <time>2019-08-17T12:58:27Z</time>
      </trkpt>
      <trkpt lat="42.2508190" lon="-7.8369680">
        <ele>340.3</ele>
        <time>2019-08-17T12:58:28Z</time>
      </trkpt>
      <trkpt lat="42.2508940" lon="-7.8368910">
        <ele>339.7</ele>
        <time>2019-08-17T12:58:29Z</time>
      </trkpt>
      <trkpt lat="42.2509690" lon="-7.8368160">
        <ele>339.2</ele>
        <time>2019-08-17T12:58:30Z</time>
      </trkpt>
      <trkpt lat="42.2510450" lon="-7.8367430">
        <ele>338.7</ele>
        <time>2019-08-17T12:58:31Z</time>
      </trkpt>
      <trkpt lat="42.2511220" lon="-7.8366720">
        <ele>338.2</ele>
        <time>2019-08-17T12:58:32Z</time>
      </trkpt>
      <trkpt lat="42.2511980" lon="-7.8366040">
        <ele>337.8</ele>
        <time>2019-08-17T12:58:33Z</time>
      </trkpt>
      <trkpt lat="42.2512750" lon="-7.8365370">
        <ele>337.3</ele>
        <time>2019-08-17T12:58:34Z</time>
      </trkpt>
      <trkpt lat="42.2513510" lon="-7.8364730">
        <ele>336.8</ele>
        <time>2019-08-17T12:58:35Z</time>
      </trkpt>
      <trkpt lat="42.2514260" lon="-7.8364120">
        <ele>336.3</ele>
        <time>2019-08-17T12:58:36Z</time>
      </trkpt>
      <trkpt lat="42.2515010" lon="-7.8363520">
        <ele>335.8</ele>
        <time>2019-08-17T12:58:37Z</time>
      </trkpt>
      <trkpt lat="42.2515750" lon="-7.8362950">
        <ele>335.3</ele>
        <time>2019-08-17T12:58:38Z</time>
      </trkpt>
      <trkpt lat="42.2516490" lon="-7.8362410">
        <ele>334.8</ele>
        <time>2019-08-17T12:58:39Z</time>
      </trkpt>
      <trkpt lat="42.2517230" lon="-7.8361880">
        <ele>334.4</ele>
        <time>2019-08-17T12:58:40Z</time>
      </trkpt>
      <trkpt lat="42.2517950" lon="-7.8361380">
        <ele>333.9</ele>
        <time>2019-08-17T12:58:41Z</time>
      </trkpt>
      <trkpt lat="42.2518670" lon="-7.8360900">
        <ele>333.5</ele>
        <time>2019-08-17T12:58:42Z</time>
      </trkpt>
      <trkpt lat="42.2519380" lon="-7.8360440">
        <ele>333.2</ele>
        <time>2019-08-17T12:58:43Z</time>
      </trkpt>
      <trkpt lat="42.2520090" lon="-7.8360000">
        <ele>332.8</ele>
        <time>2019-08-17T12:58:44Z</time>
      </trkpt>
      <trkpt lat="42.2520790" lon="-7.8359570">
        <ele>332.5</ele>
        <time>2019-08-17T12:58:45Z</time>
      </trkpt>
      <trkpt lat="42.2521470" lon="-7.8359170">
        <ele>332.2</ele>
        <time>2019-08-17T12:58:46Z</time>
      </trkpt>
      <trkpt lat="42.2522150" lon="-7.8358790">
        <ele>331.9</ele>
        <time>2019-08-17T12:58:47Z</time>
      </trkpt>
      <trkpt lat="42.2522820" lon="-7.8358420">
        <ele>331.6</ele>
        <time>2019-08-17T12:58:48Z</time>
      </trkpt>
      <trkpt lat="42.2523490" lon="-7.8358080">
        <ele>331.3</ele>
        <time>2019-08-17T12:58:49Z</time>
      </trkpt>
      <trkpt lat="42.2524140" lon="-7.8357750">
        <ele>331.1</ele>
        <time>2019-08-17T12:58:50Z</time>
      </trkpt>
      <trkpt lat="42.2524780" lon="-7.8357440">
        <ele>330.9</ele>
        <time>2019-08-17T12:58:51Z</time>
      </trkpt>
      <trkpt lat="42.2525410" lon="-7.8357140">
        <ele>330.7</ele>
        <time>2019-08-17T12:58:52Z</time>
      </trkpt>
      <trkpt lat="42.2526030" lon="-7.8356860">
        <ele>330.5</ele>
        <time>2019-08-17T12:58:53Z</time>
      </trkpt>
      <trkpt lat="42.2526640" lon="-7.8356590">
        <ele>330.3</ele>
        <time>2019-08-17T12:58:54Z</time>
      </trkpt>
      <trkpt lat="42.2527250" lon="-7.8356330">
        <ele>330.1</ele>
        <time>2019-08-17T12:58:55Z</time>
      </trkpt>
      <trkpt lat="42.2527850" lon="-7.8356080">
        <ele>330.0</ele>
        <time>2019-08-17T12:58:56Z</time>
      </trkpt>
      <trkpt lat="42.2528450" lon="-7.8355840">
        <ele>329.8</ele>
        <time>2019-08-17T12:58:57Z</time>
      </trkpt>
      <trkpt lat="42.2529040" lon="-7.8355610">
        <ele>329.7</ele>
        <time>2019-08-17T12:58:58Z</time>
      </trkpt>
      <trkpt lat="42.2529630" lon="-7.8355380">
        <ele>329.6</ele>
        <time>2019-08-17T12:58:59Z</time>
      </trkpt>
      <trkpt lat="42.2530210" lon="-7.8355160">
        <ele>329.5</ele>
        <time>2019-08-17T12:59:00Z</time>
      </trkpt>
      <trkpt lat="42.2530790" lon="-7.8354940">
        <ele>329.4</ele>
        <time>2019-08-17T12:59:01Z</time>
      </trkpt>
      <trkpt lat="42.2531380" lon="-7.8354730">
        <ele>329.4</ele>
        <time>2019-08-17T12:59:02Z</time>
      </trkpt>
      <trkpt lat="42.2531960" lon="-7.8354530">
        <ele>329.3</ele>
        <time>2019-08-17T12:59:03Z</time>
      </trkpt>
      <trkpt lat="42.2532540" lon="-7.8354330">
        <ele>329.3</ele>
        <time>2019-08-17T12:59:04Z</time>
      </trkpt>
      <trkpt lat="42.2533130" lon="-7.8354130">
        <ele>329.2</ele>
        <time>2019-08-17T12:59:05Z</time>
      </trkpt>
      <trkpt lat="42.2533720" lon="-7.8353940">
        <ele>329.2</ele>
        <time>2019-08-17T12:59:06Z</time>
      </trkpt>
      <trkpt lat="42.2534310" lon="-7.8353760">
        <ele>329.2</ele>
        <time>2019-08-17T12:59:07Z</time>
      </trkpt>
      <trkpt lat="42.2534910" lon="-7.8353570">
        <ele>329.3</ele>
        <time>2019-08-17T12:59:08Z</time>
      </trkpt>
      <trkpt lat="42.2535520" lon="-7.8353390">
        <ele>329.3</ele>
        <time>2019-08-17T12:59:09Z</time>
      </trkpt>
      <trkpt lat="42.2536140" lon="-7.8353210">
        <ele>329.3</ele>
        <time>2019-08-17T12:59:10Z</time>
      </trkpt>
      <trkpt lat="42.2536760" lon="-7.8353030">
        <ele>329.4</ele>
        <time>2019-08-17T12:59:11Z</time>
      </trkpt>
      <trkpt lat="42.2537390" lon="-7.8352850">
        <ele>329.4</ele>
        <time>2019-08-17T12:59:12Z</time>
      </trkpt>
      <trkpt lat="42.2538030" lon="-7.8352660">
        <ele>329.5</ele>
        <time>2019-08-17T12:59:13Z</time>
      </trkpt>
      <trkpt lat="42.2538680" lon="-7.8352480">
        <ele>329.6</ele>
        <time>2019-08-17T12:59:14Z</time>
      </trkpt>
      <trkpt lat="42.2539350" lon="-7.8352280">
        <ele>329.7</ele>
        <time>2019-08-17T12:59:15Z</time>
      </trkpt>
      <trkpt lat="42.2540010" lon="-7.8352090">
        <ele>329.8</ele>
        <time>2019-08-17T12:59:16Z</time>
      </trkpt>
      <trkpt lat="42.2540680" lon="-7.8351890">
        <ele>329.9</ele>
        <time>2019-08-17T12:59:17Z</time>
      </trkpt>
      <trkpt lat="42.2541360" lon="-7.8351690">
        <ele>330.0</ele>
        <time>2019-08-17T12:59:18Z</time>
      </trkpt>
      <trkpt lat="42.2542030" lon="-7.8351480">
        <ele>330.2</ele>
        <time>2019-08-17T12:59:19Z</time>
      </trkpt>
      <trkpt lat="42.2542700" lon="-7.8351270">
        <ele>330.4</ele>
        <time>2019-08-17T12:59:20Z</time>
      </trkpt>
      <trkpt lat="42.2543370" lon="-7.8351050">
        <ele>330.7</ele>
        <time>2019-08-17T12:59:21Z</time>
      </trkpt>
      <trkpt lat="42.2544020" lon="-7.8350820">
        <ele>330.9</ele>
        <time>2019-08-17T12:59:22Z</time>
      </trkpt>
      <trkpt lat="42.2544670" lon="-7.8350590">
        <ele>331.1</ele>
        <time>2019-08-17T12:59:23Z</time>
      </trkpt>
      <trkpt lat="42.2545320" lon="-7.8350360">
        <ele>331.3</ele>
        <time>2019-08-17T12:59:24Z</time>
      </trkpt>
      <trkpt lat="42.2545950" lon="-7.8350120">
        <ele>331.5</ele>
        <time>2019-08-17T12:59:25Z</time>
      </trkpt>
      <trkpt lat="42.2546580" lon="-7.8349870">
        <ele>331.7</ele>
        <time>2019-08-17T12:59:26Z</time>
      </trkpt>
      <trkpt lat="42.2547210" lon="-7.8349610">
        <ele>331.9</ele>
        <time>2019-08-17T12:59:27Z</time>
      </trkpt>
      <trkpt lat="42.2547820" lon="-7.8349350">
        <ele>332.1</ele>
        <time>2019-08-17T12:59:28Z</time>
      </trkpt>
      <trkpt lat="42.2548430" lon="-7.8349090">
        <ele>332.3</ele>
        <time>2019-08-17T12:59:29Z</time>
      </trkpt>
      <trkpt lat="42.2549040" lon="-7.8348820">
        <ele>332.5</ele>
        <time>2019-08-17T12:59:30Z</time>
      </trkpt>
      <trkpt lat="42.2549640" lon="-7.8348540">
        <ele>332.7</ele>
        <time>2019-08-17T12:59:31Z</time>
      </trkpt>
      <trkpt lat="42.2550240" lon="-7.8348250">
        <ele>332.9</ele>
        <time>2019-08-17T12:59:32Z</time>
      </trkpt>
      <trkpt lat="42.2550830" lon="-7.8347950">
        <ele>333.1</ele>
        <time>2019-08-17T12:59:33Z</time>
      </trkpt>
      <trkpt lat="42.2551420" lon="-7.8347640">
        <ele>333.3</ele>
        <time>2019-08-17T12:59:34Z</time>
      </trkpt>
      <trkpt lat="42.2552010" lon="-7.8347330">
        <ele>333.4</ele>
        <time>2019-08-17T12:59:35Z</time>
      </trkpt>
      <trkpt lat="42.2552590" lon="-7.8347000">
        <ele>333.5</ele>
        <time>2019-08-17T12:59:36Z</time>
      </trkpt>
      <trkpt lat="42.2553160" lon="-7.8346660">
        <ele>333.6</ele>
        <time>2019-08-17T12:59:37Z</time>
      </trkpt>
      <trkpt lat="42.2553740" lon="-7.8346310">
        <ele>333.8</ele>
        <time>2019-08-17T12:59:38Z</time>
      </trkpt>
      <trkpt lat="42.2554310" lon="-7.8345940">
        <ele>333.9</ele>
        <time>2019-08-17T12:59:39Z</time>
      </trkpt>
      <trkpt lat="42.2554880" lon="-7.8345570">
        <ele>334.0</ele>
        <time>2019-08-17T12:59:40Z</time>
      </trkpt>
      <trkpt lat="42.2555440" lon="-7.8345180">
        <ele>334.0</ele>
        <time>2019-08-17T12:59:41Z</time>
      </trkpt>
      <trkpt lat="42.2556010" lon="-7.8344790">
        <ele>334.1</ele>
        <time>2019-08-17T12:59:42Z</time>
      </trkpt>
      <trkpt lat="42.2556560" lon="-7.8344380">
        <ele>334.2</ele>
        <time>2019-08-17T12:59:43Z</time>
      </trkpt>
      <trkpt lat="42.2557120" lon="-7.8343960">
        <ele>334.2</ele>
        <time>2019-08-17T12:59:44Z</time>
      </trkpt>
      <trkpt lat="42.2557670" lon="-7.8343540">
        <ele>334.3</ele>
        <time>2019-08-17T12:59:45Z</time>
      </trkpt>
      <trkpt lat="42.2558220" lon="-7.8343100">
        <ele>334.4</ele>
        <time>2019-08-17T12:59:46Z</time>
      </trkpt>
      <trkpt lat="42.2558770" lon="-7.8342660">
        <ele>334.5</ele>
        <time>2019-08-17T12:59:47Z</time>
      </trkpt>
      <trkpt lat="42.2559310" lon="-7.8342200">
        <ele>334.5</ele>
        <time>2019-08-17T12:59:48Z</time>
      </trkpt>
      <trkpt lat="42.2559850" lon="-7.8341740">
        <ele>334.6</ele>
        <time>2019-08-17T12:59:49Z</time>
      </trkpt>
      <trkpt lat="42.2560390" lon="-7.8341270">
        <ele>334.6</ele>
        <time>2019-08-17T12:59:50Z</time>
      </trkpt>
      <trkpt lat="42.2560930" lon="-7.8340800">
        <ele>334.7</ele>
        <time>2019-08-17T12:59:51Z</time>
      </trkpt>
      <trkpt lat="42.2561470" lon="-7.8340310">
        <ele>334.7</ele>
        <time>2019-08-17T12:59:52Z</time>
      </trkpt>
      <trkpt lat="42.2562000" lon="-7.8339820">
        <ele>334.7</ele>
        <time>2019-08-17T12:59:53Z</time>
      </trkpt>
      <trkpt lat="42.2562540" lon="-7.8339330">
        <ele>334.7</ele>
        <time>2019-08-17T12:59:54Z</time>
      </trkpt>
      <trkpt lat="42.2563070" lon="-7.8338830">
        <ele>334.7</ele>
        <time>2019-08-17T12:59:55Z</time>
      </trkpt>
      <trkpt lat="42.2563600" lon="-7.8338330">
        <ele>334.7</ele>
        <time>2019-08-17T12:59:56Z</time>
      </trkpt>
      <trkpt lat="42.2564140" lon="-7.8337820">
        <ele>334.7</ele>
        <time>2019-08-17T12:59:57Z</time>
      </trkpt>
      <trkpt lat="42.2564670" lon="-7.8337310">
        <ele>334.8</ele>
        <time>2019-08-17T12:59:58Z</time>
      </trkpt>
      <trkpt lat="42.2565200" lon="-7.8336810">
        <ele>334.8</ele>
        <time>2019-08-17T12:59:59Z</time>
      </trkpt>
      <trkpt lat="42.2565740" lon="-7.8336300">
        <ele>334.8</ele>
        <time>2019-08-17T13:00:00Z</time>
      </trkpt>
      <trkpt lat="42.2566270" lon="-7.8335800">
        <ele>334.8</ele>
        <time>2019-08-17T13:00:01Z</time>
      </trkpt>
      <trkpt lat="42.2566800" lon="-7.8335290">
        <ele>334.9</ele>
        <time>2019-08-17T13:00:02Z</time>
      </trkpt>
      <trkpt lat="42.2567330" lon="-7.8334800">
        <ele>334.9</ele>
        <time>2019-08-17T13:00:03Z</time>
      </trkpt>
      <trkpt lat="42.2567870" lon="-7.8334310">
        <ele>334.9</ele>
        <time>2019-08-17T13:00:04Z</time>
      </trkpt>
      <trkpt lat="42.2568400" lon="-7.8333820">
        <ele>335.0</ele>
        <time>2019-08-17T13:00:05Z</time>
      </trkpt>
      <trkpt lat="42.2568940" lon="-7.8333340">
        <ele>335.0</ele>
        <time>2019-08-17T13:00:06Z</time>
      </trkpt>
      <trkpt lat="42.2569470" lon="-7.8332870">
        <ele>335.0</ele>
        <time>2019-08-17T13:00:07Z</time>
      </trkpt>
      <trkpt lat="42.2570010" lon="-7.8332410">
        <ele>335.1</ele>
        <time>2019-08-17T13:00:08Z</time>
      </trkpt>
      <trkpt lat="42.2570550" lon="-7.8331960">
        <ele>335.1</ele>
        <time>2019-08-17T13:00:09Z</time>
      </trkpt>
      <trkpt lat="42.2571080" lon="-7.8331520">
        <ele>335.1</ele>
        <time>2019-08-17T13:00:10Z</time>
      </trkpt>
      <trkpt lat="42.2571620" lon="-7.8331090">
        <ele>335.1</ele>
        <time>2019-08-17T13:00:11Z</time>
      </trkpt>
      <trkpt lat="42.2572150" lon="-7.8330670">
        <ele>335.1</ele>
        <time>2019-08-17T13:00:12Z</time>
      </trkpt>
      <trkpt lat="42.2572690" lon="-7.8330250">
        <ele>335.1</ele>
        <time>2019-08-17T13:00:13Z</time>
      </trkpt>
      <trkpt lat="42.2573220" lon="-7.8329850">
        <ele>335.1</ele>
        <time>2019-08-17T13:00:14Z</time>
      </trkpt>
      <trkpt lat="42.2573740" lon="-7.8329450">
        <ele>335.1</ele>
        <time>2019-08-17T13:00:15Z</time>
      </trkpt>
      <trkpt lat="42.2574270" lon="-7.8329070">
        <ele>335.1</ele>
        <time>2019-08-17T13:00:16Z</time>
      </trkpt>
      <trkpt lat="42.2574790" lon="-7.8328690">
        <ele>335.1</ele>
        <time>2019-08-17T13:00:17Z</time>
      </trkpt>
      <trkpt lat="42.2575310" lon="-7.8328330">
        <ele>335.1</ele>
        <time>2019-08-17T13:00:18Z</time>
      </trkpt>
      <trkpt lat="42.2575820" lon="-7.8327970">
        <ele>335.1</ele>
        <time>2019-08-17T13:00:19Z</time>
      </trkpt>
      <trkpt lat="42.2576320" lon="-7.8327620">
        <ele>335.1</ele>
        <time>2019-08-17T13:00:20Z</time>
      </trkpt>
      <trkpt lat="42.2576820" lon="-7.8327280">
        <ele>335.1</ele>
        <time>2019-08-17T13:00:21Z</time>
      </trkpt>
      <trkpt lat="42.2577320" lon="-7.8326950">
        <ele>335.0</ele>
        <time>2019-08-17T13:00:22Z</time>
      </trkpt>
      <trkpt lat="42.2577800" lon="-7.8326630">
        <ele>334.9</ele>
        <time>2019-08-17T13:00:23Z</time>
      </trkpt>
      <trkpt lat="42.2578280" lon="-7.8326320">
        <ele>334.8</ele>
        <time>2019-08-17T13:00:24Z</time>
      </trkpt>
      <trkpt lat="42.2578730" lon="-7.8326030">
        <ele>334.7</ele>
        <time>2019-08-17T13:00:25Z</time>
      </trkpt>
      <trkpt lat="42.2579140" lon="-7.8325760">
        <ele>334.6</ele>
        <time>2019-08-17T13:00:26Z</time>
      </trkpt>
      <trkpt lat="42.2579480" lon="-7.8325520">
        <ele>334.5</ele>
        <time>2019-08-17T13:00:27Z</time>
      </trkpt>
      <trkpt lat="42.2579740" lon="-7.8325320">
        <ele>334.4</ele>
        <time>2019-08-17T13:00:28Z</time>
      </trkpt>
      <trkpt lat="42.2579930" lon="-7.8325160">
        <ele>334.3</ele>
        <time>2019-08-17T13:00:29Z</time>
      </trkpt>
      <trkpt lat="42.2580070" lon="-7.8325030">
        <ele>334.3</ele>
        <time>2019-08-17T13:00:30Z</time>
      </trkpt>
      <trkpt lat="42.2580160" lon="-7.8324930">
        <ele>334.2</ele>
        <time>2019-08-17T13:00:31Z</time>
      </trkpt>
      <trkpt lat="42.2580230" lon="-7.8324840">
        <ele>334.2</ele>
        <time>2019-08-17T13:00:32Z</time>
      </trkpt>
      <trkpt lat="42.2580270" lon="-7.8324760">
        <ele>334.2</ele>
        <time>2019-08-17T13:00:33Z</time>
      </trkpt>
      <trkpt lat="42.2580310" lon="-7.8324690">
        <ele>334.2</ele>
        <time>2019-08-17T13:00:34Z</time>
      </trkpt>
      <trkpt lat="42.2580360" lon="-7.8324620">
        <ele>334.1</ele>
        <time>2019-08-17T13:00:35Z</time>
      </trkpt>
      <trkpt lat="42.2580430" lon="-7.8324550">
        <ele>334.1</ele>
        <time>2019-08-17T13:00:36Z</time>
      </trkpt>
      <trkpt lat="42.2580540" lon="-7.8324470">
        <ele>334.1</ele>
        <time>2019-08-17T13:00:37Z</time>
      </trkpt>
      <trkpt lat="42.2580690" lon="-7.8324370">
        <ele>334.0</ele>
        <time>2019-08-17T13:00:38Z</time>
      </trkpt>
      <trkpt lat="42.2598600" lon="-7.8324650">
        <ele>329.9</ele>
        <time>2019-08-17T14:41:05Z</time>
      </trkpt>
      <trkpt lat="42.2598870" lon="-7.8324410">
        <ele>329.9</ele>
        <time>2019-08-17T14:41:06Z</time>
      </trkpt>
      <trkpt lat="42.2599120" lon="-7.8324260">
        <ele>329.9</ele>
        <time>2019-08-17T14:41:07Z</time>
      </trkpt>
      <trkpt lat="42.2599360" lon="-7.8324210">
        <ele>329.8</ele>
        <time>2019-08-17T14:41:08Z</time>
      </trkpt>
      <trkpt lat="42.2599580" lon="-7.8324230">
        <ele>329.8</ele>
        <time>2019-08-17T14:41:09Z</time>
      </trkpt>
      <trkpt lat="42.2599810" lon="-7.8324310">
        <ele>329.8</ele>
        <time>2019-08-17T14:41:10Z</time>
      </trkpt>
      <trkpt lat="42.2600040" lon="-7.8324430">
        <ele>329.8</ele>
        <time>2019-08-17T14:41:11Z</time>
      </trkpt>
      <trkpt lat="42.2600300" lon="-7.8324590">
        <ele>329.8</ele>
        <time>2019-08-17T14:41:12Z</time>
      </trkpt>
      <trkpt lat="42.2600580" lon="-7.8324760">
        <ele>329.8</ele>
        <time>2019-08-17T14:41:13Z</time>
      </trkpt>
      <trkpt lat="42.2600890" lon="-7.8324930">
        <ele>329.7</ele>
        <time>2019-08-17T14:41:14Z</time>
      </trkpt>
      <trkpt lat="42.2601240" lon="-7.8325110">
        <ele>329.7</ele>
        <time>2019-08-17T14:41:15Z</time>
      </trkpt>
      <trkpt lat="42.2601620" lon="-7.8325290">
        <ele>329.7</ele>
        <time>2019-08-17T14:41:16Z</time>
      </trkpt>
      <trkpt lat="42.2602020" lon="-7.8325470">
        <ele>329.7</ele>
        <time>2019-08-17T14:41:17Z</time>
      </trkpt>
      <trkpt lat="42.2602430" lon="-7.8325650">
        <ele>329.6</ele>
        <time>2019-08-17T14:41:18Z</time>
      </trkpt>
      <trkpt lat="42.2602870" lon="-7.8325840">
        <ele>329.6</ele>
        <time>2019-08-17T14:41:19Z</time>
      </trkpt>
      <trkpt lat="42.2603330" lon="-7.8326060">
        <ele>329.5</ele>
        <time>2019-08-17T14:41:20Z</time>
      </trkpt>
      <trkpt lat="42.2603800" lon="-7.8326290">
        <ele>329.4</ele>
        <time>2019-08-17T14:41:21Z</time>
      </trkpt>
      <trkpt lat="42.2604300" lon="-7.8326550">
        <ele>329.2</ele>
        <time>2019-08-17T14:41:22Z</time>
      </trkpt>
      <trkpt lat="42.2604810" lon="-7.8326830">
        <ele>329.0</ele>
        <time>2019-08-17T14:41:23Z</time>
      </trkpt>
      <trkpt lat="42.2605340" lon="-7.8327120">
        <ele>328.8</ele>
        <time>2019-08-17T14:41:24Z</time>
      </trkpt>
      <trkpt lat="42.2605880" lon="-7.8327440">
        <ele>328.5</ele>
        <time>2019-08-17T14:41:25Z</time>
      </trkpt>
      <trkpt lat="42.2606430" lon="-7.8327780">
        <ele>328.2</ele>
        <time>2019-08-17T14:41:26Z</time>
      </trkpt>
      <trkpt lat="42.2607000" lon="-7.8328130">
        <ele>327.9</ele>
        <time>2019-08-17T14:41:27Z</time>
      </trkpt>
      <trkpt lat="42.2607570" lon="-7.8328500">
        <ele>327.6</ele>
        <time>2019-08-17T14:41:28Z</time>
      </trkpt>
      <trkpt lat="42.2608140" lon="-7.8328880">
        <ele>327.3</ele>
        <time>2019-08-17T14:41:29Z</time>
      </trkpt>
      <trkpt lat="42.2608730" lon="-7.8329280">
        <ele>327.0</ele>
        <time>2019-08-17T14:41:30Z</time>
      </trkpt>
      <trkpt lat="42.2609320" lon="-7.8329690">
        <ele>326.7</ele>
        <time>2019-08-17T14:41:31Z</time>
      </trkpt>
      <trkpt lat="42.2609910" lon="-7.8330120">
        <ele>326.5</ele>
        <time>2019-08-17T14:41:32Z</time>
      </trkpt>
      <trkpt lat="42.2610510" lon="-7.8330550">
        <ele>326.2</ele>
        <time>2019-08-17T14:41:33Z</time>
      </trkpt>
      <trkpt lat="42.2611120" lon="-7.8331000">
        <ele>326.0</ele>
        <time>2019-08-17T14:41:34Z</time>
      </trkpt>
      <trkpt lat="42.2611730" lon="-7.8331470">
        <ele>325.7</ele>
        <time>2019-08-17T14:41:35Z</time>
      </trkpt>
      <trkpt lat="42.2612340" lon="-7.8331950">
        <ele>325.5</ele>
        <time>2019-08-17T14:41:36Z</time>
      </trkpt>
      <trkpt lat="42.2612960" lon="-7.8332430">
        <ele>325.2</ele>
        <time>2019-08-17T14:41:37Z</time>
      </trkpt>
      <trkpt lat="42.2613580" lon="-7.8332930">
        <ele>325.0</ele>
        <time>2019-08-17T14:41:38Z</time>
      </trkpt>
      <trkpt lat="42.2614210" lon="-7.8333430">
        <ele>324.8</ele>
        <time>2019-08-17T14:41:39Z</time>
      </trkpt>
      <trkpt lat="42.2614830" lon="-7.8333940">
        <ele>324.6</ele>
        <time>2019-08-17T14:41:40Z</time>
      </trkpt>
      <trkpt lat="42.2615460" lon="-7.8334440">
        <ele>324.3</ele>
        <time>2019-08-17T14:41:41Z</time>
      </trkpt>
      <trkpt lat="42.2616090" lon="-7.8334950">
        <ele>324.1</ele>
        <time>2019-08-17T14:41:42Z</time>
      </trkpt>
      <trkpt lat="42.2616720" lon="-7.8335450">
        <ele>323.9</ele>
        <time>2019-08-17T14:41:43Z</time>
      </trkpt>
      <trkpt lat="42.2617350" lon="-7.8335940">
        <ele>323.7</ele>
        <time>2019-08-17T14:41:44Z</time>
      </trkpt>
      <trkpt lat="42.2617980" lon="-7.8336430">
        <ele>323.4</ele>
        <time>2019-08-17T14:41:45Z</time>
      </trkpt>
      <trkpt lat="42.2618610" lon="-7.8336910">
        <ele>323.2</ele>
        <time>2019-08-17T14:41:46Z</time>
      </trkpt>
      <trkpt lat="42.2619240" lon="-7.8337370">
        <ele>323.0</ele>
        <time>2019-08-17T14:41:47Z</time>
      </trkpt>
      <trkpt lat="42.2619870" lon="-7.8337810">
        <ele>322.8</ele>
        <time>2019-08-17T14:41:48Z</time>
      </trkpt>
      <trkpt lat="42.2620490" lon="-7.8338240">
        <ele>322.5</ele>
        <time>2019-08-17T14:41:49Z</time>
      </trkpt>
      <trkpt lat="42.2621120" lon="-7.8338650">
        <ele>322.3</ele>
        <time>2019-08-17T14:41:50Z</time>
      </trkpt>
      <trkpt lat="42.2621740" lon="-7.8339030">
        <ele>322.0</ele>
        <time>2019-08-17T14:41:51Z</time>
      </trkpt>
      <trkpt lat="42.2622350" lon="-7.8339400">
        <ele>321.8</ele>
        <time>2019-08-17T14:41:52Z</time>
      </trkpt>
      <trkpt lat="42.2622970" lon="-7.8339750">
        <ele>321.5</ele>
        <time>2019-08-17T14:41:53Z</time>
      </trkpt>
      <trkpt lat="42.2623600" lon="-7.8340100">
        <ele>321.1</ele>
        <time>2019-08-17T14:41:54Z</time>
      </trkpt>
      <trkpt lat="42.2624230" lon="-7.8340450">
        <ele>320.8</ele>
        <time>2019-08-17T14:41:55Z</time>
      </trkpt>
      <trkpt lat="42.2624860" lon="-7.8340780">
        <ele>320.5</ele>
        <time>2019-08-17T14:41:56Z</time>
      </trkpt>
      <trkpt lat="42.2625510" lon="-7.8341090">
        <ele>320.2</ele>
        <time>2019-08-17T14:41:57Z</time>
      </trkpt>
      <trkpt lat="42.2626150" lon="-7.8341400">
        <ele>320.0</ele>
        <time>2019-08-17T14:41:58Z</time>
      </trkpt>
      <trkpt lat="42.2626800" lon="-7.8341670">
        <ele>319.8</ele>
        <time>2019-08-17T14:41:59Z</time>
      </trkpt>
      <trkpt lat="42.2627460" lon="-7.8341920">
        <ele>319.7</ele>
        <time>2019-08-17T14:42:00Z</time>
      </trkpt>
      <trkpt lat="42.2628110" lon="-7.8342150">
        <ele>319.6</ele>
        <time>2019-08-17T14:42:01Z</time>
      </trkpt>
      <trkpt lat="42.2628750" lon="-7.8342360">
        <ele>319.5</ele>
        <time>2019-08-17T14:42:02Z</time>
      </trkpt>
      <trkpt lat="42.2629400" lon="-7.8342560">
        <ele>319.5</ele>
        <time>2019-08-17T14:42:03Z</time>
      </trkpt>
      <trkpt lat="42.2630030" lon="-7.8342740">
        <ele>319.4</ele>
        <time>2019-08-17T14:42:04Z</time>
      </trkpt>
      <trkpt lat="42.2630650" lon="-7.8342910">
        <ele>319.4</ele>
        <time>2019-08-17T14:42:05Z</time>
      </trkpt>
      <trkpt lat="42.2631260" lon="-7.8343070">
        <ele>319.4</ele>
        <time>2019-08-17T14:42:06Z</time>
      </trkpt>
      <trkpt lat="42.2632240" lon="-7.8343330">
        <ele>319.5</ele>
        <time>2019-08-17T14:42:07Z</time>
      </trkpt>
      <trkpt lat="42.2632630" lon="-7.8343420">
        <ele>319.5</ele>
        <time>2019-08-17T14:42:08Z</time>
      </trkpt>
      <trkpt lat="42.2633010" lon="-7.8343520">
        <ele>319.5</ele>
        <time>2019-08-17T14:42:09Z</time>
      </trkpt>
      <trkpt lat="42.2633560" lon="-7.8343650">
        <ele>319.6</ele>
        <time>2019-08-17T14:42:10Z</time>
      </trkpt>
      <trkpt lat="42.2634100" lon="-7.8343790">
        <ele>319.6</ele>
        <time>2019-08-17T14:42:11Z</time>
      </trkpt>
      <trkpt lat="42.2634950" lon="-7.8344000">
        <ele>319.8</ele>
        <time>2019-08-17T14:42:12Z</time>
      </trkpt>
      <trkpt lat="42.2635270" lon="-7.8344090">
        <ele>319.9</ele>
        <time>2019-08-17T14:42:13Z</time>
      </trkpt>
      <trkpt lat="42.2635600" lon="-7.8344170">
        <ele>320.1</ele>
        <time>2019-08-17T14:42:14Z</time>
      </trkpt>
      <trkpt lat="42.2636070" lon="-7.8344300">
        <ele>320.2</ele>
        <time>2019-08-17T14:42:15Z</time>
      </trkpt>
      <trkpt lat="42.2636540" lon="-7.8344430">
        <ele>320.4</ele>
        <time>2019-08-17T14:42:16Z</time>
      </trkpt>
      <trkpt lat="42.2636990" lon="-7.8344570">
        <ele>320.5</ele>
        <time>2019-08-17T14:42:17Z</time>
      </trkpt>
      <trkpt lat="42.2637440" lon="-7.8344700">
        <ele>320.7</ele>
        <time>2019-08-17T14:42:18Z</time>
      </trkpt>
      <trkpt lat="42.2637880" lon="-7.8344850">
        <ele>320.9</ele>
        <time>2019-08-17T14:42:19Z</time>
      </trkpt>
      <trkpt lat="42.2638330" lon="-7.8345000">
        <ele>321.0</ele>
        <time>2019-08-17T14:42:20Z</time>
      </trkpt>
      <trkpt lat="42.2638770" lon="-7.8345160">
        <ele>321.2</ele>
        <time>2019-08-17T14:42:21Z</time>
      </trkpt>
      <trkpt lat="42.2639210" lon="-7.8345320">
        <ele>321.4</ele>
        <time>2019-08-17T14:42:22Z</time>
      </trkpt>
      <trkpt lat="42.2639640" lon="-7.8345480">
        <ele>321.6</ele>
        <time>2019-08-17T14:42:23Z</time>
      </trkpt>
      <trkpt lat="42.2640050" lon="-7.8345640">
        <ele>321.8</ele>
        <time>2019-08-17T14:42:24Z</time>
      </trkpt>
      <trkpt lat="42.2640440" lon="-7.8345800">
        <ele>321.9</ele>
        <time>2019-08-17T14:42:25Z</time>
      </trkpt>
      <trkpt lat="42.2640810" lon="-7.8345950">
        <ele>322.1</ele>
        <time>2019-08-17T14:42:26Z</time>
      </trkpt>
      <trkpt lat="42.2641150" lon="-7.8346100">
        <ele>322.2</ele>
        <time>2019-08-17T14:42:27Z</time>
      </trkpt>
      <trkpt lat="42.2641480" lon="-7.8346250">
        <ele>322.4</ele>
        <time>2019-08-17T14:42:28Z</time>
      </trkpt>
      <trkpt lat="42.2641790" lon="-7.8346400">
        <ele>322.5</ele>
        <time>2019-08-17T14:42:29Z</time>
      </trkpt>
      <trkpt lat="42.2642100" lon="-7.8346550">
        <ele>322.6</ele>
        <time>2019-08-17T14:42:30Z</time>
      </trkpt>
      <trkpt lat="42.2642420" lon="-7.8346710">
        <ele>322.7</ele>
        <time>2019-08-17T14:42:31Z</time>
      </trkpt>
      <trkpt lat="42.2642740" lon="-7.8346890">
        <ele>322.9</ele>
        <time>2019-08-17T14:42:32Z</time>
      </trkpt>
      <trkpt lat="42.2643090" lon="-7.8347080">
        <ele>323.0</ele>
        <time>2019-08-17T14:42:33Z</time>
      </trkpt>
      <trkpt lat="42.2643470" lon="-7.8347290">
        <ele>323.2</ele>
        <time>2019-08-17T14:42:34Z</time>
      </trkpt>
      <trkpt lat="42.2643860" lon="-7.8347520">
        <ele>323.3</ele>
        <time>2019-08-17T14:42:35Z</time>
      </trkpt>
      <trkpt lat="42.2644250" lon="-7.8347740">
        <ele>323.5</ele>
        <time>2019-08-17T14:42:36Z</time>
      </trkpt>
      <trkpt lat="42.2644620" lon="-7.8347970">
        <ele>323.6</ele>
        <time>2019-08-17T14:42:37Z</time>
      </trkpt>
      <trkpt lat="42.2644960" lon="-7.8348190">
        <ele>323.8</ele>
        <time>2019-08-17T14:42:38Z</time>
      </trkpt>
      <trkpt lat="42.2645280" lon="-7.8348400">
        <ele>323.9</ele>
        <time>2019-08-17T14:42:39Z</time>
      </trkpt>
      <trkpt lat="42.2645590" lon="-7.8348620">
        <ele>324.0</ele>
        <time>2019-08-17T14:42:40Z</time>
      </trkpt>
      <trkpt lat="42.2645890" lon="-7.8348840">
        <ele>324.2</ele>
        <time>2019-08-17T14:42:41Z</time>
      </trkpt>
      <trkpt lat="42.2646200" lon="-7.8349080">
        <ele>324.3</ele>
        <time>2019-08-17T14:42:42Z</time>
      </trkpt>
      <trkpt lat="42.2646530" lon="-7.8349340">
        <ele>324.4</ele>
        <time>2019-08-17T14:42:43Z</time>
      </trkpt>
      <trkpt lat="42.2646860" lon="-7.8349600">
        <ele>324.6</ele>
        <time>2019-08-17T14:42:44Z</time>
      </trkpt>
      <trkpt lat="42.2647200" lon="-7.8349880">
        <ele>324.7</ele>
        <time>2019-08-17T14:42:45Z</time>
      </trkpt>
      <trkpt lat="42.2647550" lon="-7.8350170">
        <ele>324.9</ele>
        <time>2019-08-17T14:42:46Z</time>
      </trkpt>
      <trkpt lat="42.2647900" lon="-7.8350460">
        <ele>325.1</ele>
        <time>2019-08-17T14:42:47Z</time>
      </trkpt>
      <trkpt lat="42.2648260" lon="-7.8350760">
        <ele>325.2</ele>
        <time>2019-08-17T14:42:48Z</time>
      </trkpt>
      <trkpt lat="42.2648620" lon="-7.8351070">
        <ele>325.4</ele>
        <time>2019-08-17T14:42:49Z</time>
      </trkpt>
      <trkpt lat="42.2648990" lon="-7.8351390">
        <ele>325.6</ele>
        <time>2019-08-17T14:42:50Z</time>
      </trkpt>
      <trkpt lat="42.2649350" lon="-7.8351710">
        <ele>325.8</ele>
        <time>2019-08-17T14:42:51Z</time>
      </trkpt>
      <trkpt lat="42.2649720" lon="-7.8352030">
        <ele>326.0</ele>
        <time>2019-08-17T14:42:52Z</time>
      </trkpt>
      <trkpt lat="42.2650090" lon="-7.8352360">
        <ele>326.1</ele>
        <time>2019-08-17T14:42:53Z</time>
      </trkpt>
      <trkpt lat="42.2650450" lon="-7.8352690">
        <ele>326.3</ele>
        <time>2019-08-17T14:42:54Z</time>
      </trkpt>
      <trkpt lat="42.2650820" lon="-7.8353020">
        <ele>326.5</ele>
        <time>2019-08-17T14:42:55Z</time>
      </trkpt>
      <trkpt lat="42.2651190" lon="-7.8353360">
        <ele>326.7</ele>
        <time>2019-08-17T14:42:56Z</time>
      </trkpt>
      <trkpt lat="42.2651550" lon="-7.8353700">
        <ele>326.8</ele>
        <time>2019-08-17T14:42:57Z</time>
      </trkpt>
      <trkpt lat="42.2651920" lon="-7.8354030">
        <ele>327.0</ele>
        <time>2019-08-17T14:42:58Z</time>
      </trkpt>
      <trkpt lat="42.2652280" lon="-7.8354370">
        <ele>327.2</ele>
        <time>2019-08-17T14:42:59Z</time>
      </trkpt>
      <trkpt lat="42.2652640" lon="-7.8354710">
        <ele>327.3</ele>
        <time>2019-08-17T14:43:00Z</time>
      </trkpt>
      <trkpt lat="42.2653000" lon="-7.8355040">
        <ele>327.5</ele>
        <time>2019-08-17T14:43:01Z</time>
      </trkpt>
      <trkpt lat="42.2653360" lon="-7.8355380">
        <ele>327.6</ele>
        <time>2019-08-17T14:43:02Z</time>
      </trkpt>
      <trkpt lat="42.2653710" lon="-7.8355710">
        <ele>327.8</ele>
        <time>2019-08-17T14:43:03Z</time>
      </trkpt>
      <trkpt lat="42.2654070" lon="-7.8356040">
        <ele>327.9</ele>
        <time>2019-08-17T14:43:04Z</time>
      </trkpt>
      <trkpt lat="42.2654420" lon="-7.8356360">
        <ele>328.1</ele>
        <time>2019-08-17T14:43:05Z</time>
      </trkpt>
      <trkpt lat="42.2654770" lon="-7.8356680">
        <ele>328.2</ele>
        <time>2019-08-17T14:43:06Z</time>
      </trkpt>
      <trkpt lat="42.2655120" lon="-7.8357000">
        <ele>328.4</ele>
        <time>2019-08-17T14:43:07Z</time>
      </trkpt>
      <trkpt lat="42.2655460" lon="-7.8357320">
        <ele>328.5</ele>
        <time>2019-08-17T14:43:08Z</time>
      </trkpt>
      <trkpt lat="42.2655810" lon="-7.8357630">
        <ele>328.7</ele>
        <time>2019-08-17T14:43:09Z</time>
      </trkpt>
      <trkpt lat="42.2656150" lon="-7.8357930">
        <ele>328.8</ele>
        <time>2019-08-17T14:43:10Z</time>
      </trkpt>
      <trkpt lat="42.2656490" lon="-7.8358240">
        <ele>329.0</ele>
        <time>2019-08-17T14:43:11Z</time>
      </trkpt>
      <trkpt lat="42.2656840" lon="-7.8358540">
        <ele>329.1</ele>
        <time>2019-08-17T14:43:12Z</time>
      </trkpt>
      <trkpt lat="42.2657180" lon="-7.8358830">
        <ele>329.3</ele>
        <time>2019-08-17T14:43:13Z</time>
      </trkpt>
      <trkpt lat="42.2657520" lon="-7.8359120">
        <ele>329.4</ele>
        <time>2019-08-17T14:43:14Z</time>
      </trkpt>
      <trkpt lat="42.2657870" lon="-7.8359410">
        <ele>329.5</ele>
        <time>2019-08-17T14:43:15Z</time>
      </trkpt>
      <trkpt lat="42.2658210" lon="-7.8359690">
        <ele>329.6</ele>
        <time>2019-08-17T14:43:16Z</time>
      </trkpt>
      <trkpt lat="42.2658550" lon="-7.8359960">
        <ele>329.8</ele>
        <time>2019-08-17T14:43:17Z</time>
      </trkpt>
      <trkpt lat="42.2658900" lon="-7.8360230">
        <ele>329.9</ele>
        <time>2019-08-17T14:43:18Z</time>
      </trkpt>
      <trkpt lat="42.2659240" lon="-7.8360500">
        <ele>330.0</ele>
        <time>2019-08-17T14:43:19Z</time>
      </trkpt>
      <trkpt lat="42.2659590" lon="-7.8360760">
        <ele>330.1</ele>
        <time>2019-08-17T14:43:20Z</time>
      </trkpt>
      <trkpt lat="42.2659930" lon="-7.8361020">
        <ele>330.2</ele>
        <time>2019-08-17T14:43:21Z</time>
      </trkpt>
      <trkpt lat="42.2660280" lon="-7.8361260">
        <ele>330.2</ele>
        <time>2019-08-17T14:43:22Z</time>
      </trkpt>
      <trkpt lat="42.2660630" lon="-7.8361510">
        <ele>330.3</ele>
        <time>2019-08-17T14:43:23Z</time>
      </trkpt>
      <trkpt lat="42.2660980" lon="-7.8361750">
        <ele>330.4</ele>
        <time>2019-08-17T14:43:24Z</time>
      </trkpt>
      <trkpt lat="42.2661330" lon="-7.8361980">
        <ele>330.4</ele>
        <time>2019-08-17T14:43:25Z</time>
      </trkpt>
      <trkpt lat="42.2661680" lon="-7.8362200">
        <ele>330.5</ele>
        <time>2019-08-17T14:43:26Z</time>
      </trkpt>
      <trkpt lat="42.2662040" lon="-7.8362430">
        <ele>330.6</ele>
        <time>2019-08-17T14:43:27Z</time>
      </trkpt>
      <trkpt lat="42.2662390" lon="-7.8362640">
        <ele>330.6</ele>
        <time>2019-08-17T14:43:28Z</time>
      </trkpt>
      <trkpt lat="42.2662740" lon="-7.8362850">
        <ele>330.7</ele>
        <time>2019-08-17T14:43:29Z</time>
      </trkpt>
      <trkpt lat="42.2663100" lon="-7.8363050">
        <ele>330.7</ele>
        <time>2019-08-17T14:43:30Z</time>
      </trkpt>
      <trkpt lat="42.2663460" lon="-7.8363250">
        <ele>330.8</ele>
        <time>2019-08-17T14:43:31Z</time>
      </trkpt>
      <trkpt lat="42.2663810" lon="-7.8363440">
        <ele>330.9</ele>
        <time>2019-08-17T14:43:32Z</time>
      </trkpt>
      <trkpt lat="42.2664170" lon="-7.8363620">
        <ele>330.9</ele>
        <time>2019-08-17T14:43:33Z</time>
      </trkpt>
      <trkpt lat="42.2664530" lon="-7.8363800">
        <ele>331.0</ele>
        <time>2019-08-17T14:43:34Z</time>
      </trkpt>
      <trkpt lat="42.2664890" lon="-7.8363980">
        <ele>331.0</ele>
        <time>2019-08-17T14:43:35Z</time>
      </trkpt>
      <trkpt lat="42.2665260" lon="-7.8364160">
        <ele>331.1</ele>
        <time>2019-08-17T14:43:36Z</time>
      </trkpt>
      <trkpt lat="42.2665630" lon="-7.8364330">
        <ele>331.1</ele>
        <time>2019-08-17T14:43:37Z</time>
      </trkpt>
      <trkpt lat="42.2666000" lon="-7.8364520">
        <ele>331.2</ele>
        <time>2019-08-17T14:43:38Z</time>
      </trkpt>
      <trkpt lat="42.2666380" lon="-7.8364700">
        <ele>331.2</ele>
        <time>2019-08-17T14:43:39Z</time>
      </trkpt>
      <trkpt lat="42.2666760" lon="-7.8364900">
        <ele>331.3</ele>
        <time>2019-08-17T14:43:40Z</time>
      </trkpt>
      <trkpt lat="42.2667140" lon="-7.8365100">
        <ele>331.3</ele>
        <time>2019-08-17T14:43:41Z</time>
      </trkpt>
      <trkpt lat="42.2667540" lon="-7.8365300">
        <ele>331.3</ele>
        <time>2019-08-17T14:43:42Z</time>
      </trkpt>
      <trkpt lat="42.2667950" lon="-7.8365490">
        <ele>331.3</ele>
        <time>2019-08-17T14:43:43Z</time>
      </trkpt>
      <trkpt lat="42.2668370" lon="-7.8365660">
        <ele>331.3</ele>
        <time>2019-08-17T14:43:44Z</time>
      </trkpt>
      <trkpt lat="42.2668820" lon="-7.8365810">
        <ele>331.3</ele>
        <time>2019-08-17T14:43:45Z</time>
      </trkpt>
      <trkpt lat="42.2669270" lon="-7.8365930">
        <ele>331.3</ele>
        <time>2019-08-17T14:43:46Z</time>
      </trkpt>
      <trkpt lat="42.2669740" lon="-7.8366040">
        <ele>331.4</ele>
        <time>2019-08-17T14:43:47Z</time>
      </trkpt>
      <trkpt lat="42.2670210" lon="-7.8366150">
        <ele>331.4</ele>
        <time>2019-08-17T14:43:48Z</time>
      </trkpt>
      <trkpt lat="42.2670690" lon="-7.8366260">
        <ele>331.4</ele>
        <time>2019-08-17T14:43:49Z</time>
      </trkpt>
      <trkpt lat="42.2671160" lon="-7.8366360">
        <ele>331.4</ele>
        <time>2019-08-17T14:43:50Z</time>
      </trkpt>
      <trkpt lat="42.2671620" lon="-7.8366450">
        <ele>331.4</ele>
        <time>2019-08-17T14:43:51Z</time>
      </trkpt>
      <trkpt lat="42.2672070" lon="-7.8366530">
        <ele>331.3</ele>
        <time>2019-08-17T14:43:52Z</time>
      </trkpt>
      <trkpt lat="42.2672500" lon="-7.8366590">
        <ele>331.3</ele>
        <time>2019-08-17T14:43:53Z</time>
      </trkpt>
      <trkpt lat="42.2672910" lon="-7.8366650">
        <ele>331.3</ele>
        <time>2019-08-17T14:43:54Z</time>
      </trkpt>
      <trkpt lat="42.2673290" lon="-7.8366690">
        <ele>331.3</ele>
        <time>2019-08-17T14:43:55Z</time>
      </trkpt>
      <trkpt lat="42.2673670" lon="-7.8366720">
        <ele>331.3</ele>
        <time>2019-08-17T14:43:56Z</time>
      </trkpt>
      <trkpt lat="42.2674050" lon="-7.8366750">
        <ele>331.2</ele>
        <time>2019-08-17T14:43:57Z</time>
      </trkpt>
      <trkpt lat="42.2674430" lon="-7.8366780">
        <ele>331.2</ele>
        <time>2019-08-17T14:43:58Z</time>
      </trkpt>
      <trkpt lat="42.2674840" lon="-7.8366810">
        <ele>331.2</ele>
        <time>2019-08-17T14:43:59Z</time>
      </trkpt>
      <trkpt lat="42.2675270" lon="-7.8366840">
        <ele>331.2</ele>
        <time>2019-08-17T14:44:00Z</time>
      </trkpt>
      <trkpt lat="42.2675730" lon="-7.8366860">
        <ele>331.2</ele>
        <time>2019-08-17T14:44:01Z</time>
      </trkpt>
      <trkpt lat="42.2676190" lon="-7.8366880">
        <ele>331.1</ele>
        <time>2019-08-17T14:44:02Z</time>
      </trkpt>
      <trkpt lat="42.2676670" lon="-7.8366890">
        <ele>331.1</ele>
        <time>2019-08-17T14:44:03Z</time>
      </trkpt>
      <trkpt lat="42.2677170" lon="-7.8366890">
        <ele>331.0</ele>
        <time>2019-08-17T14:44:04Z</time>
      </trkpt>
      <trkpt lat="42.2677670" lon="-7.8366890">
        <ele>331.0</ele>
        <time>2019-08-17T14:44:05Z</time>
      </trkpt>
      <trkpt lat="42.2678180" lon="-7.8366890">
        <ele>330.9</ele>
        <time>2019-08-17T14:44:06Z</time>
      </trkpt>
      <trkpt lat="42.2678690" lon="-7.8366890">
        <ele>330.8</ele>
        <time>2019-08-17T14:44:07Z</time>
      </trkpt>
      <trkpt lat="42.2679200" lon="-7.8366880">
        <ele>330.7</ele>
        <time>2019-08-17T14:44:08Z</time>
      </trkpt>
      <trkpt lat="42.2679720" lon="-7.8366870">
        <ele>330.6</ele>
        <time>2019-08-17T14:44:09Z</time>
      </trkpt>
      <trkpt lat="42.2680230" lon="-7.8366870">
        <ele>330.5</ele>
        <time>2019-08-17T14:44:10Z</time>
      </trkpt>
      <trkpt lat="42.2681000" lon="-7.8366860">
        <ele>330.3</ele>
        <time>2019-08-17T14:44:11Z</time>
      </trkpt>
      <trkpt lat="42.2681250" lon="-7.8366860">
        <ele>330.3</ele>
        <time>2019-08-17T14:44:12Z</time>
      </trkpt>
      <trkpt lat="42.2681750" lon="-7.8366860">
        <ele>330.1</ele>
        <time>2019-08-17T14:44:13Z</time>
      </trkpt>
      <trkpt lat="42.2682260" lon="-7.8366860">
        <ele>330.0</ele>
        <time>2019-08-17T14:44:14Z</time>
      </trkpt>
      <trkpt lat="42.2682760" lon="-7.8366870">
        <ele>329.8</ele>
        <time>2019-08-17T14:44:15Z</time>
      </trkpt>
      <trkpt lat="42.2683260" lon="-7.8366870">
        <ele>329.7</ele>
        <time>2019-08-17T14:44:16Z</time>
      </trkpt>
      <trkpt lat="42.2683750" lon="-7.8366890">
        <ele>329.5</ele>
        <time>2019-08-17T14:44:17Z</time>
      </trkpt>
      <trkpt lat="42.2684250" lon="-7.8366900">
        <ele>329.3</ele>
        <time>2019-08-17T14:44:18Z</time>
      </trkpt>
      <trkpt lat="42.2684760" lon="-7.8366930">
        <ele>329.1</ele>
        <time>2019-08-17T14:44:19Z</time>
      </trkpt>
      <trkpt lat="42.2685270" lon="-7.8366950">
        <ele>328.9</ele>
        <time>2019-08-17T14:44:20Z</time>
      </trkpt>
      <trkpt lat="42.2685790" lon="-7.8366980">
        <ele>328.6</ele>
        <time>2019-08-17T14:44:21Z</time>
      </trkpt>
      <trkpt lat="42.2686320" lon="-7.8367020">
        <ele>328.4</ele>
        <time>2019-08-17T14:44:22Z</time>
      </trkpt>
      <trkpt lat="42.2686870" lon="-7.8367060">
        <ele>328.1</ele>
        <time>2019-08-17T14:44:23Z</time>
      </trkpt>
      <trkpt lat="42.2687740" lon="-7.8367130">
        <ele>327.7</ele>
        <time>2019-08-17T14:44:24Z</time>
      </trkpt>
      <trkpt lat="42.2688030" lon="-7.8367160">
        <ele>327.6</ele>
        <time>2019-08-17T14:44:25Z</time>
      </trkpt>
      <trkpt lat="42.2688630" lon="-7.8367220">
        <ele>327.2</ele>
        <time>2019-08-17T14:44:26Z</time>
      </trkpt>
      <trkpt lat="42.2689240" lon="-7.8367290">
        <ele>326.9</ele>
        <time>2019-08-17T14:44:27Z</time>
      </trkpt>
      <trkpt lat="42.2689860" lon="-7.8367370">
        <ele>326.5</ele>
        <time>2019-08-17T14:44:28Z</time>
      </trkpt>
      <trkpt lat="42.2690490" lon="-7.8367450">
        <ele>326.1</ele>
        <time>2019-08-17T14:44:29Z</time>
      </trkpt>
      <trkpt lat="42.2691440" lon="-7.8367600">
        <ele>325.5</ele>
        <time>2019-08-17T14:44:30Z</time>
      </trkpt>
      <trkpt lat="42.2691760" lon="-7.8367660">
        <ele>325.3</ele>
        <time>2019-08-17T14:44:31Z</time>
      </trkpt>
      <trkpt lat="42.2692400" lon="-7.8367770">
        <ele>324.9</ele>
        <time>2019-08-17T14:44:32Z</time>
      </trkpt>
      <trkpt lat="42.2693040" lon="-7.8367910">
        <ele>324.6</ele>
        <time>2019-08-17T14:44:33Z</time>
      </trkpt>
      <trkpt lat="42.2693680" lon="-7.8368050">
        <ele>324.2</ele>
        <time>2019-08-17T14:44:34Z</time>
      </trkpt>
      <trkpt lat="42.2694330" lon="-7.8368200">
        <ele>324.0</ele>
        <time>2019-08-17T14:44:35Z</time>
      </trkpt>
      <trkpt lat="42.2694980" lon="-7.8368370">
        <ele>323.6</ele>
        <time>2019-08-17T14:44:36Z</time>
      </trkpt>
      <trkpt lat="42.2695640" lon="-7.8368560">
        <ele>323.2</ele>
        <time>2019-08-17T14:44:37Z</time>
      </trkpt>
      <trkpt lat="42.2696300" lon="-7.8368760">
        <ele>322.7</ele>
        <time>2019-08-17T14:44:38Z</time>
      </trkpt>
      <trkpt lat="42.2696970" lon="-7.8368970">
        <ele>322.2</ele>
        <time>2019-08-17T14:44:39Z</time>
      </trkpt>
      <trkpt lat="42.2697640" lon="-7.8369200">
        <ele>321.8</ele>
        <time>2019-08-17T14:44:40Z</time>
      </trkpt>
      <trkpt lat="42.2698320" lon="-7.8369450">
        <ele>321.3</ele>
        <time>2019-08-17T14:44:41Z</time>
      </trkpt>
      <trkpt lat="42.2699010" lon="-7.8369710">
        <ele>320.9</ele>
        <time>2019-08-17T14:44:42Z</time>
      </trkpt>
      <trkpt lat="42.2699700" lon="-7.8369990">
        <ele>320.4</ele>
        <time>2019-08-17T14:44:43Z</time>
      </trkpt>
      <trkpt lat="42.2700890" lon="-7.8370510">
        <ele>319.5</ele>
        <time>2019-08-17T14:44:44Z</time>
      </trkpt>
      <trkpt lat="42.2701360" lon="-7.8370730">
        <ele>319.2</ele>
        <time>2019-08-17T14:44:45Z</time>
      </trkpt>
      <trkpt lat="42.2701840" lon="-7.8370950">
        <ele>318.9</ele>
        <time>2019-08-17T14:44:46Z</time>
      </trkpt>
      <trkpt lat="42.2702570" lon="-7.8371300">
        <ele>318.3</ele>
        <time>2019-08-17T14:44:47Z</time>
      </trkpt>
      <trkpt lat="42.2703310" lon="-7.8371670">
        <ele>317.8</ele>
        <time>2019-08-17T14:44:48Z</time>
      </trkpt>
      <trkpt lat="42.2704570" lon="-7.8372310">
        <ele>316.7</ele>
        <time>2019-08-17T14:44:49Z</time>
      </trkpt>
      <trkpt lat="42.2705090" lon="-7.8372570">
        <ele>316.3</ele>
        <time>2019-08-17T14:44:50Z</time>
      </trkpt>
      <trkpt lat="42.2705600" lon="-7.8372830">
        <ele>315.9</ele>
        <time>2019-08-17T14:44:51Z</time>
      </trkpt>
      <trkpt lat="42.2706390" lon="-7.8373230">
        <ele>315.2</ele>
        <time>2019-08-17T14:44:52Z</time>
      </trkpt>
      <trkpt lat="42.2707200" lon="-7.8373630">
        <ele>314.5</ele>
        <time>2019-08-17T14:44:53Z</time>
      </trkpt>
      <trkpt lat="42.2708010" lon="-7.8374040">
        <ele>313.9</ele>
        <time>2019-08-17T14:44:54Z</time>
      </trkpt>
      <trkpt lat="42.2708840" lon="-7.8374440">
        <ele>313.3</ele>
        <time>2019-08-17T14:44:55Z</time>
      </trkpt>
      <trkpt lat="42.2709690" lon="-7.8374830">
        <ele>312.7</ele>
        <time>2019-08-17T14:44:56Z</time>
      </trkpt>
      <trkpt lat="42.2710560" lon="-7.8375220">
        <ele>312.1</ele>
        <time>2019-08-17T14:44:57Z</time>
      </trkpt>
      <trkpt lat="42.2711440" lon="-7.8375600">
        <ele>311.5</ele>
        <time>2019-08-17T14:44:58Z</time>
      </trkpt>
      <trkpt lat="42.2712340" lon="-7.8375960">
        <ele>310.8</ele>
        <time>2019-08-17T14:44:59Z</time>
      </trkpt>
      <trkpt lat="42.2713250" lon="-7.8376310">
        <ele>310.1</ele>
        <time>2019-08-17T14:45:00Z</time>
      </trkpt>
      <trkpt lat="42.2714190" lon="-7.8376650">
        <ele>309.4</ele>
        <time>2019-08-17T14:45:01Z</time>
      </trkpt>
      <trkpt lat="42.2715140" lon="-7.8376960">
        <ele>308.5</ele>
        <time>2019-08-17T14:45:02Z</time>
      </trkpt>
      <trkpt lat="42.2716110" lon="-7.8377260">
        <ele>307.6</ele>
        <time>2019-08-17T14:45:03Z</time>
      </trkpt>
      <trkpt lat="42.2717100" lon="-7.8377530">
        <ele>306.6</ele>
        <time>2019-08-17T14:45:04Z</time>
      </trkpt>
      <trkpt lat="42.2718100" lon="-7.8377780">
        <ele>305.8</ele>
        <time>2019-08-17T14:45:05Z</time>
      </trkpt>
      <trkpt lat="42.2719120" lon="-7.8378000">
        <ele>305.3</ele>
        <time>2019-08-17T14:45:06Z</time>
      </trkpt>
      <trkpt lat="42.2720150" lon="-7.8378200">
        <ele>304.7</ele>
        <time>2019-08-17T14:45:07Z</time>
      </trkpt>
      <trkpt lat="42.2721190" lon="-7.8378370">
        <ele>304.2</ele>
        <time>2019-08-17T14:45:08Z</time>
      </trkpt>
      <trkpt lat="42.2722250" lon="-7.8378500">
        <ele>303.7</ele>
        <time>2019-08-17T14:45:09Z</time>
      </trkpt>
      <trkpt lat="42.2723330" lon="-7.8378610">
        <ele>303.1</ele>
        <time>2019-08-17T14:45:10Z</time>
      </trkpt>
      <trkpt lat="42.2724410" lon="-7.8378670">
        <ele>302.6</ele>
        <time>2019-08-17T14:45:11Z</time>
      </trkpt>
      <trkpt lat="42.2725510" lon="-7.8378710">
        <ele>302.0</ele>
        <time>2019-08-17T14:45:12Z</time>
      </trkpt>
      <trkpt lat="42.2726620" lon="-7.8378700">
        <ele>301.3</ele>
        <time>2019-08-17T14:45:13Z</time>
      </trkpt>
      <trkpt lat="42.2727740" lon="-7.8378650">
        <ele>300.6</ele>
        <time>2019-08-17T14:45:14Z</time>
      </trkpt>
      <trkpt lat="42.2728880" lon="-7.8378550">
        <ele>299.9</ele>
        <time>2019-08-17T14:45:15Z</time>
      </trkpt>
      <trkpt lat="42.2730010" lon="-7.8378440">
        <ele>299.3</ele>
        <time>2019-08-17T14:45:16Z</time>
      </trkpt>
      <trkpt lat="42.2731150" lon="-7.8378270">
        <ele>298.7</ele>
        <time>2019-08-17T14:45:17Z</time>
      </trkpt>
      <trkpt lat="42.2732290" lon="-7.8378060">
        <ele>298.2</ele>
        <time>2019-08-17T14:45:18Z</time>
      </trkpt>
      <trkpt lat="42.2733430" lon="-7.8377810">
        <ele>297.5</ele>
        <time>2019-08-17T14:45:19Z</time>
      </trkpt>
      <trkpt lat="42.2734550" lon="-7.8377530">
        <ele>296.9</ele>
        <time>2019-08-17T14:45:20Z</time>
      </trkpt>
      <trkpt lat="42.2735660" lon="-7.8377200">
        <ele>296.1</ele>
        <time>2019-08-17T14:45:21Z</time>
      </trkpt>
      <trkpt lat="42.2736760" lon="-7.8376840">
        <ele>295.4</ele>
        <time>2019-08-17T14:45:22Z</time>
      </trkpt>
      <trkpt lat="42.2737840" lon="-7.8376450">
        <ele>294.8</ele>
        <time>2019-08-17T14:45:23Z</time>
      </trkpt>
      <trkpt lat="42.2738900" lon="-7.8376020">
        <ele>294.3</ele>
        <time>2019-08-17T14:45:24Z</time>
      </trkpt>
      <trkpt lat="42.2739940" lon="-7.8375560">
        <ele>293.7</ele>
        <time>2019-08-17T14:45:25Z</time>
      </trkpt>
      <trkpt lat="42.2740970" lon="-7.8375070">
        <ele>293.2</ele>
        <time>2019-08-17T14:45:26Z</time>
      </trkpt>
      <trkpt lat="42.2742000" lon="-7.8374550">
        <ele>292.7</ele>
        <time>2019-08-17T14:45:27Z</time>
      </trkpt>
      <trkpt lat="42.2743020" lon="-7.8374010">
        <ele>292.1</ele>
        <time>2019-08-17T14:45:28Z</time>
      </trkpt>
      <trkpt lat="42.2744040" lon="-7.8373440">
        <ele>291.5</ele>
        <time>2019-08-17T14:45:29Z</time>
      </trkpt>
      <trkpt lat="42.2745060" lon="-7.8372860">
        <ele>290.9</ele>
        <time>2019-08-17T14:45:30Z</time>
      </trkpt>
      <trkpt lat="42.2746080" lon="-7.8372250">
        <ele>290.2</ele>
        <time>2019-08-17T14:45:31Z</time>
      </trkpt>
      <trkpt lat="42.2747110" lon="-7.8371630">
        <ele>289.7</ele>
        <time>2019-08-17T14:45:32Z</time>
      </trkpt>
      <trkpt lat="42.2748140" lon="-7.8371000">
        <ele>289.1</ele>
        <time>2019-08-17T14:45:33Z</time>
      </trkpt>
      <trkpt lat="42.2749170" lon="-7.8370370">
        <ele>288.5</ele>
        <time>2019-08-17T14:45:34Z</time>
      </trkpt>
      <trkpt lat="42.2750200" lon="-7.8369740">
        <ele>287.9</ele>
        <time>2019-08-17T14:45:35Z</time>
      </trkpt>
      <trkpt lat="42.2751230" lon="-7.8369120">
        <ele>287.3</ele>
        <time>2019-08-17T14:45:36Z</time>
      </trkpt>
      <trkpt lat="42.2752270" lon="-7.8368500">
        <ele>286.7</ele>
        <time>2019-08-17T14:45:37Z</time>
      </trkpt>
      <trkpt lat="42.2753310" lon="-7.8367900">
        <ele>286.1</ele>
        <time>2019-08-17T14:45:38Z</time>
      </trkpt>
      <trkpt lat="42.2754350" lon="-7.8367310">
        <ele>285.4</ele>
        <time>2019-08-17T14:45:39Z</time>
      </trkpt>
      <trkpt lat="42.2755390" lon="-7.8366750">
        <ele>284.9</ele>
        <time>2019-08-17T14:45:40Z</time>
      </trkpt>
      <trkpt lat="42.2756440" lon="-7.8366210">
        <ele>284.3</ele>
        <time>2019-08-17T14:45:41Z</time>
      </trkpt>
      <trkpt lat="42.2757490" lon="-7.8365700">
        <ele>283.8</ele>
        <time>2019-08-17T14:45:42Z</time>
      </trkpt>
      <trkpt lat="42.2758550" lon="-7.8365220">
        <ele>283.1</ele>
        <time>2019-08-17T14:45:43Z</time>
      </trkpt>
      <trkpt lat="42.2759610" lon="-7.8364780">
        <ele>282.5</ele>
        <time>2019-08-17T14:45:44Z</time>
      </trkpt>
      <trkpt lat="42.2760670" lon="-7.8364370">
        <ele>281.8</ele>
        <time>2019-08-17T14:45:45Z</time>
      </trkpt>
      <trkpt lat="42.2761740" lon="-7.8364000">
        <ele>281.1</ele>
        <time>2019-08-17T14:45:46Z</time>
      </trkpt>
      <trkpt lat="42.2762810" lon="-7.8363680">
        <ele>280.5</ele>
        <time>2019-08-17T14:45:47Z</time>
      </trkpt>
      <trkpt lat="42.2763880" lon="-7.8363390">
        <ele>279.9</ele>
        <time>2019-08-17T14:45:48Z</time>
      </trkpt>
      <trkpt lat="42.2764960" lon="-7.8363140">
        <ele>279.3</ele>
        <time>2019-08-17T14:45:49Z</time>
      </trkpt>
      <trkpt lat="42.2766040" lon="-7.8362920">
        <ele>278.6</ele>
        <time>2019-08-17T14:45:50Z</time>
      </trkpt>
      <trkpt lat="42.2767130" lon="-7.8362750">
        <ele>278.0</ele>
        <time>2019-08-17T14:45:51Z</time>
      </trkpt>
      <trkpt lat="42.2768220" lon="-7.8362610">
        <ele>277.5</ele>
        <time>2019-08-17T14:45:52Z</time>
      </trkpt>
      <trkpt lat="42.2769310" lon="-7.8362500">
        <ele>277.0</ele>
        <time>2019-08-17T14:45:53Z</time>
      </trkpt>
      <trkpt lat="42.2770410" lon="-7.8362440">
        <ele>276.5</ele>
        <time>2019-08-17T14:45:54Z</time>
      </trkpt>
      <trkpt lat="42.2771510" lon="-7.8362410">
        <ele>276.0</ele>
        <time>2019-08-17T14:45:55Z</time>
      </trkpt>
      <trkpt lat="42.2772610" lon="-7.8362420">
        <ele>275.6</ele>
        <time>2019-08-17T14:45:56Z</time>
      </trkpt>
      <trkpt lat="42.2773720" lon="-7.8362460">
        <ele>275.2</ele>
        <time>2019-08-17T14:45:57Z</time>
      </trkpt>
      <trkpt lat="42.2774830" lon="-7.8362550">
        <ele>274.9</ele>
        <time>2019-08-17T14:45:58Z</time>
      </trkpt>
      <trkpt lat="42.2775940" lon="-7.8362650">
        <ele>274.5</ele>
        <time>2019-08-17T14:45:59Z</time>
      </trkpt>
      <trkpt lat="42.2777060" lon="-7.8362790">
        <ele>274.1</ele>
        <time>2019-08-17T14:46:00Z</time>
      </trkpt>
      <trkpt lat="42.2778170" lon="-7.8362970">
        <ele>273.8</ele>
        <time>2019-08-17T14:46:01Z</time>
      </trkpt>
      <trkpt lat="42.2779280" lon="-7.8363180">
        <ele>273.6</ele>
        <time>2019-08-17T14:46:02Z</time>
      </trkpt>
      <trkpt lat="42.2780370" lon="-7.8363420">
        <ele>273.4</ele>
        <time>2019-08-17T14:46:03Z</time>
      </trkpt>
      <trkpt lat="42.2781450" lon="-7.8363690">
        <ele>273.2</ele>
        <time>2019-08-17T14:46:04Z</time>
      </trkpt>
      <trkpt lat="42.2782520" lon="-7.8363980">
        <ele>273.0</ele>
        <time>2019-08-17T14:46:05Z</time>
      </trkpt>
      <trkpt lat="42.2783560" lon="-7.8364300">
        <ele>272.9</ele>
        <time>2019-08-17T14:46:06Z</time>
      </trkpt>
      <trkpt lat="42.2784580" lon="-7.8364650">
        <ele>272.7</ele>
        <time>2019-08-17T14:46:07Z</time>
      </trkpt>
      <trkpt lat="42.2785580" lon="-7.8365020">
        <ele>272.6</ele>
        <time>2019-08-17T14:46:08Z</time>
      </trkpt>
      <trkpt lat="42.2786560" lon="-7.8365420">
        <ele>272.5</ele>
        <time>2019-08-17T14:46:09Z</time>
      </trkpt>
      <trkpt lat="42.2787520" lon="-7.8365840">
        <ele>272.4</ele>
        <time>2019-08-17T14:46:10Z</time>
      </trkpt>
      <trkpt lat="42.2788450" lon="-7.8366280">
        <ele>272.3</ele>
        <time>2019-08-17T14:46:11Z</time>
      </trkpt>
      <trkpt lat="42.2789370" lon="-7.8366750">
        <ele>272.2</ele>
        <time>2019-08-17T14:46:12Z</time>
      </trkpt>
      <trkpt lat="42.2790270" lon="-7.8367230">
        <ele>272.2</ele>
        <time>2019-08-17T14:46:13Z</time>
      </trkpt>
      <trkpt lat="42.2791150" lon="-7.8367740">
        <ele>271.7</ele>
        <time>2019-08-17T14:46:14Z</time>
      </trkpt>
      <trkpt lat="42.2792010" lon="-7.8368270">
        <ele>271.3</ele>
        <time>2019-08-17T14:46:15Z</time>
      </trkpt>
      <trkpt lat="42.2792840" lon="-7.8368820">
        <ele>270.9</ele>
        <time>2019-08-17T14:46:16Z</time>
      </trkpt>
      <trkpt lat="42.2793660" lon="-7.8369380">
        <ele>270.6</ele>
        <time>2019-08-17T14:46:17Z</time>
      </trkpt>
      <trkpt lat="42.2794450" lon="-7.8369940">
        <ele>270.3</ele>
        <time>2019-08-17T14:46:18Z</time>
      </trkpt>
      <trkpt lat="42.2795210" lon="-7.8370510">
        <ele>270.1</ele>
        <time>2019-08-17T14:46:19Z</time>
      </trkpt>
      <trkpt lat="42.2795950" lon="-7.8371080">
        <ele>269.9</ele>
        <time>2019-08-17T14:46:20Z</time>
      </trkpt>
      <trkpt lat="42.2796660" lon="-7.8371640">
        <ele>269.8</ele>
        <time>2019-08-17T14:46:21Z</time>
      </trkpt>
      <trkpt lat="42.2797340" lon="-7.8372210">
        <ele>269.7</ele>
        <time>2019-08-17T14:46:22Z</time>
      </trkpt>
      <trkpt lat="42.2797990" lon="-7.8372770">
        <ele>269.6</ele>
        <time>2019-08-17T14:46:23Z</time>
      </trkpt>
      <trkpt lat="42.2798630" lon="-7.8373340">
        <ele>269.5</ele>
        <time>2019-08-17T14:46:24Z</time>
      </trkpt>
      <trkpt lat="42.2799250" lon="-7.8373910">
        <ele>269.4</ele>
        <time>2019-08-17T14:46:25Z</time>
      </trkpt>
      <trkpt lat="42.2799850" lon="-7.8374500">
        <ele>269.3</ele>
        <time>2019-08-17T14:46:26Z</time>
      </trkpt>
      <trkpt lat="42.2800440" lon="-7.8375090">
        <ele>269.3</ele>
        <time>2019-08-17T14:46:27Z</time>
      </trkpt>
      <trkpt lat="42.2801020" lon="-7.8375690">
        <ele>269.2</ele>
        <time>2019-08-17T14:46:28Z</time>
      </trkpt>
      <trkpt lat="42.2801590" lon="-7.8376300">
        <ele>269.2</ele>
        <time>2019-08-17T14:46:29Z</time>
      </trkpt>
      <trkpt lat="42.2802150" lon="-7.8376910">
        <ele>269.2</ele>
        <time>2019-08-17T14:46:30Z</time>
      </trkpt>
      <trkpt lat="42.2802700" lon="-7.8377530">
        <ele>269.2</ele>
        <time>2019-08-17T14:46:31Z</time>
      </trkpt>
      <trkpt lat="42.2803250" lon="-7.8378160">
        <ele>269.2</ele>
        <time>2019-08-17T14:46:32Z</time>
      </trkpt>
      <trkpt lat="42.2803790" lon="-7.8378780">
        <ele>269.1</ele>
        <time>2019-08-17T14:46:33Z</time>
      </trkpt>
      <trkpt lat="42.2804320" lon="-7.8379400">
        <ele>269.1</ele>
        <time>2019-08-17T14:46:34Z</time>
      </trkpt>
      <trkpt lat="42.2805180" lon="-7.8380420">
        <ele>269.2</ele>
        <time>2019-08-17T14:46:35Z</time>
      </trkpt>
      <trkpt lat="42.2805520" lon="-7.8380830">
        <ele>269.2</ele>
        <time>2019-08-17T14:46:36Z</time>
      </trkpt>
      <trkpt lat="42.2805860" lon="-7.8381230">
        <ele>269.2</ele>
        <time>2019-08-17T14:46:37Z</time>
      </trkpt>
      <trkpt lat="42.2806360" lon="-7.8381820">
        <ele>269.2</ele>
        <time>2019-08-17T14:46:38Z</time>
      </trkpt>
      <trkpt lat="42.2806860" lon="-7.8382410">
        <ele>269.3</ele>
        <time>2019-08-17T14:46:39Z</time>
      </trkpt>
      <trkpt lat="42.2807680" lon="-7.8383370">
        <ele>269.3</ele>
        <time>2019-08-17T14:46:40Z</time>
      </trkpt>
      <trkpt lat="42.2808000" lon="-7.8383750">
        <ele>269.3</ele>
        <time>2019-08-17T14:46:41Z</time>
      </trkpt>
      <trkpt lat="42.2808330" lon="-7.8384130">
        <ele>269.4</ele>
        <time>2019-08-17T14:46:42Z</time>
      </trkpt>
      <trkpt lat="42.2808820" lon="-7.8384690">
        <ele>269.4</ele>
        <time>2019-08-17T14:46:43Z</time>
      </trkpt>
      <trkpt lat="42.2809310" lon="-7.8385240">
        <ele>269.4</ele>
        <time>2019-08-17T14:46:44Z</time>
      </trkpt>
      <trkpt lat="42.2809800" lon="-7.8385780">
        <ele>269.4</ele>
        <time>2019-08-17T14:46:45Z</time>
      </trkpt>
      <trkpt lat="42.2810280" lon="-7.8386320">
        <ele>269.4</ele>
        <time>2019-08-17T14:46:46Z</time>
      </trkpt>
      <trkpt lat="42.2810770" lon="-7.8386840">
        <ele>269.4</ele>
        <time>2019-08-17T14:46:47Z</time>
      </trkpt>
      <trkpt lat="42.2811260" lon="-7.8387360">
        <ele>269.4</ele>
        <time>2019-08-17T14:46:48Z</time>
      </trkpt>
      <trkpt lat="42.2811760" lon="-7.8387860">
        <ele>269.4</ele>
        <time>2019-08-17T14:46:49Z</time>
      </trkpt>
      <trkpt lat="42.2812250" lon="-7.8388360">
        <ele>269.4</ele>
        <time>2019-08-17T14:46:50Z</time>
      </trkpt>
      <trkpt lat="42.2812760" lon="-7.8388850">
        <ele>269.4</ele>
        <time>2019-08-17T14:46:51Z</time>
      </trkpt>
      <trkpt lat="42.2813260" lon="-7.8389320">
        <ele>269.4</ele>
        <time>2019-08-17T14:46:52Z</time>
      </trkpt>
      <trkpt lat="42.2813770" lon="-7.8389790">
        <ele>269.4</ele>
        <time>2019-08-17T14:46:53Z</time>
      </trkpt>
      <trkpt lat="42.2814290" lon="-7.8390240">
        <ele>269.3</ele>
        <time>2019-08-17T14:46:54Z</time>
      </trkpt>
      <trkpt lat="42.2814820" lon="-7.8390680">
        <ele>269.3</ele>
        <time>2019-08-17T14:46:55Z</time>
      </trkpt>
      <trkpt lat="42.2815350" lon="-7.8391120">
        <ele>269.3</ele>
        <time>2019-08-17T14:46:56Z</time>
      </trkpt>
      <trkpt lat="42.2815890" lon="-7.8391540">
        <ele>269.3</ele>
        <time>2019-08-17T14:46:57Z</time>
      </trkpt>
      <trkpt lat="42.2816430" lon="-7.8391950">
        <ele>269.3</ele>
        <time>2019-08-17T14:46:58Z</time>
      </trkpt>
      <trkpt lat="42.2816990" lon="-7.8392340">
        <ele>269.2</ele>
        <time>2019-08-17T14:46:59Z</time>
      </trkpt>
      <trkpt lat="42.2817550" lon="-7.8392730">
        <ele>269.2</ele>
        <time>2019-08-17T14:47:00Z</time>
      </trkpt>
      <trkpt lat="42.2818110" lon="-7.8393110">
        <ele>269.2</ele>
        <time>2019-08-17T14:47:01Z</time>
      </trkpt>
      <trkpt lat="42.2818680" lon="-7.8393480">
        <ele>269.1</ele>
        <time>2019-08-17T14:47:02Z</time>
      </trkpt>
      <trkpt lat="42.2819250" lon="-7.8393840">
        <ele>269.0</ele>
        <time>2019-08-17T14:47:03Z</time>
      </trkpt>
      <trkpt lat="42.2819830" lon="-7.8394190">
        <ele>269.0</ele>
        <time>2019-08-17T14:47:04Z</time>
      </trkpt>
      <trkpt lat="42.2820410" lon="-7.8394530">
        <ele>268.9</ele>
        <time>2019-08-17T14:47:05Z</time>
      </trkpt>
      <trkpt lat="42.2820990" lon="-7.8394870">
        <ele>268.8</ele>
        <time>2019-08-17T14:47:06Z</time>
      </trkpt>
      <trkpt lat="42.2821560" lon="-7.8395200">
        <ele>268.8</ele>
        <time>2019-08-17T14:47:07Z</time>
      </trkpt>
      <trkpt lat="42.2822140" lon="-7.8395520">
        <ele>268.8</ele>
        <time>2019-08-17T14:47:08Z</time>
      </trkpt>
      <trkpt lat="42.2822720" lon="-7.8395840">
        <ele>268.8</ele>
        <time>2019-08-17T14:47:09Z</time>
      </trkpt>
      <trkpt lat="42.2823300" lon="-7.8396150">
        <ele>268.7</ele>
        <time>2019-08-17T14:47:10Z</time>
      </trkpt>
      <trkpt lat="42.2823870" lon="-7.8396460">
        <ele>268.7</ele>
        <time>2019-08-17T14:47:11Z</time>
      </trkpt>
      <trkpt lat="42.2824440" lon="-7.8396760">
        <ele>268.7</ele>
        <time>2019-08-17T14:47:12Z</time>
      </trkpt>
      <trkpt lat="42.2825010" lon="-7.8397060">
        <ele>268.7</ele>
        <time>2019-08-17T14:47:13Z</time>
      </trkpt>
      <trkpt lat="42.2825570" lon="-7.8397350">
        <ele>268.7</ele>
        <time>2019-08-17T14:47:14Z</time>
      </trkpt>
      <trkpt lat="42.2826130" lon="-7.8397650">
        <ele>268.7</ele>
        <time>2019-08-17T14:47:15Z</time>
      </trkpt>
      <trkpt lat="42.2826690" lon="-7.8397940">
        <ele>268.7</ele>
        <time>2019-08-17T14:47:16Z</time>
      </trkpt>
      <trkpt lat="42.2827240" lon="-7.8398240">
        <ele>268.7</ele>
        <time>2019-08-17T14:47:17Z</time>
      </trkpt>
      <trkpt lat="42.2827800" lon="-7.8398540">
        <ele>268.7</ele>
        <time>2019-08-17T14:47:18Z</time>
      </trkpt>
      <trkpt lat="42.2828340" lon="-7.8398850">
        <ele>268.7</ele>
        <time>2019-08-17T14:47:19Z</time>
      </trkpt>
      <trkpt lat="42.2828890" lon="-7.8399150">
        <ele>268.7</ele>
        <time>2019-08-17T14:47:20Z</time>
      </trkpt>
      <trkpt lat="42.2829430" lon="-7.8399460">
        <ele>268.7</ele>
        <time>2019-08-17T14:47:21Z</time>
      </trkpt>
      <trkpt lat="42.2829960" lon="-7.8399770">
        <ele>268.6</ele>
        <time>2019-08-17T14:47:22Z</time>
      </trkpt>
      <trkpt lat="42.2830490" lon="-7.8400080">
        <ele>268.6</ele>
        <time>2019-08-17T14:47:23Z</time>
      </trkpt>
      <trkpt lat="42.2831000" lon="-7.8400380">
        <ele>268.6</ele>
        <time>2019-08-17T14:47:24Z</time>
      </trkpt>
      <trkpt lat="42.2831500" lon="-7.8400670">
        <ele>268.6</ele>
        <time>2019-08-17T14:47:25Z</time>
      </trkpt>
      <trkpt lat="42.2831990" lon="-7.8400940">
        <ele>268.6</ele>
        <time>2019-08-17T14:47:26Z</time>
      </trkpt>
      <trkpt lat="42.2832460" lon="-7.8401210">
        <ele>268.6</ele>
        <time>2019-08-17T14:47:27Z</time>
      </trkpt>
      <trkpt lat="42.2832910" lon="-7.8401550">
        <ele>268.6</ele>
        <time>2019-08-17T14:47:28Z</time>
      </trkpt>
      <trkpt lat="42.2833350" lon="-7.8402000">
        <ele>268.6</ele>
        <time>2019-08-17T14:47:29Z</time>
      </trkpt>
      <trkpt lat="42.2833790" lon="-7.8402510">
        <ele>268.6</ele>
        <time>2019-08-17T14:47:30Z</time>
      </trkpt>
      <trkpt lat="42.2834250" lon="-7.8402980">
        <ele>268.7</ele>
        <time>2019-08-17T14:47:31Z</time>
      </trkpt>
      <trkpt lat="42.2834720" lon="-7.8403430">
        <ele>268.7</ele>
        <time>2019-08-17T14:47:32Z</time>
      </trkpt>
      <trkpt lat="42.2835210" lon="-7.8403860">
        <ele>268.7</ele>
        <time>2019-08-17T14:47:33Z</time>
      </trkpt>
      <trkpt lat="42.2835700" lon="-7.8404300">
        <ele>268.7</ele>
        <time>2019-08-17T14:47:34Z</time>
      </trkpt>
      <trkpt lat="42.2836180" lon="-7.8404750">
        <ele>268.7</ele>
        <time>2019-08-17T14:47:35Z</time>
      </trkpt>
      <trkpt lat="42.2836660" lon="-7.8405230">
        <ele>268.7</ele>
        <time>2019-08-17T14:47:36Z</time>
      </trkpt>
      <trkpt lat="42.2837130" lon="-7.8405720">
        <ele>268.7</ele>
        <time>2019-08-17T14:47:37Z</time>
      </trkpt>
      <trkpt lat="42.2837590" lon="-7.8406230">
        <ele>268.7</ele>
        <time>2019-08-17T14:47:38Z</time>
      </trkpt>
      <trkpt lat="42.2838040" lon="-7.8406750">
        <ele>268.7</ele>
        <time>2019-08-17T14:47:39Z</time>
      </trkpt>
      <trkpt lat="42.2838480" lon="-7.8407280">
        <ele>268.8</ele>
        <time>2019-08-17T14:47:40Z</time>
      </trkpt>
      <trkpt lat="42.2838910" lon="-7.8407810">
        <ele>268.8</ele>
        <time>2019-08-17T14:47:41Z</time>
      </trkpt>
      <trkpt lat="42.2839320" lon="-7.8408360">
        <ele>268.8</ele>
        <time>2019-08-17T14:47:42Z</time>
      </trkpt>
      <trkpt lat="42.2839720" lon="-7.8408910">
        <ele>268.8</ele>
        <time>2019-08-17T14:47:43Z</time>
      </trkpt>
      <trkpt lat="42.2840110" lon="-7.8409460">
        <ele>268.8</ele>
        <time>2019-08-17T14:47:44Z</time>
      </trkpt>
      <trkpt lat="42.2840500" lon="-7.8410010">
        <ele>268.8</ele>
        <time>2019-08-17T14:47:45Z</time>
      </trkpt>
      <trkpt lat="42.2840880" lon="-7.8410560">
        <ele>268.9</ele>
        <time>2019-08-17T14:47:46Z</time>
      </trkpt>
      <trkpt lat="42.2841250" lon="-7.8411120">
        <ele>268.9</ele>
        <time>2019-08-17T14:47:47Z</time>
      </trkpt>
      <trkpt lat="42.2841630" lon="-7.8411660">
        <ele>268.9</ele>
        <time>2019-08-17T14:47:48Z</time>
      </trkpt>
      <trkpt lat="42.2842000" lon="-7.8412210">
        <ele>268.9</ele>
        <time>2019-08-17T14:47:49Z</time>
      </trkpt>
      <trkpt lat="42.2842380" lon="-7.8412740">
        <ele>268.9</ele>
        <time>2019-08-17T14:47:50Z</time>
      </trkpt>
      <trkpt lat="42.2842770" lon="-7.8413270">
        <ele>268.9</ele>
        <time>2019-08-17T14:47:51Z</time>
      </trkpt>
      <trkpt lat="42.2843140" lon="-7.8413820">
        <ele>268.9</ele>
        <time>2019-08-17T14:47:52Z</time>
      </trkpt>
      <trkpt lat="42.2843450" lon="-7.8414410">
        <ele>268.9</ele>
        <time>2019-08-17T14:47:53Z</time>
      </trkpt>
      <trkpt lat="42.2843730" lon="-7.8415040">
        <ele>268.9</ele>
        <time>2019-08-17T14:47:54Z</time>
      </trkpt>
      <trkpt lat="42.2843990" lon="-7.8415700">
        <ele>268.9</ele>
        <time>2019-08-17T14:47:55Z</time>
      </trkpt>
      <trkpt lat="42.2844250" lon="-7.8416360">
        <ele>268.9</ele>
        <time>2019-08-17T14:47:56Z</time>
      </trkpt>
      <trkpt lat="42.2844510" lon="-7.8417030">
        <ele>268.6</ele>
        <time>2019-08-17T14:47:57Z</time>
      </trkpt>
      <trkpt lat="42.2844780" lon="-7.8417700">
        <ele>268.4</ele>
        <time>2019-08-17T14:47:58Z</time>
      </trkpt>
      <trkpt lat="42.2845040" lon="-7.8418380">
        <ele>268.1</ele>
        <time>2019-08-17T14:47:59Z</time>
      </trkpt>
      <trkpt lat="42.2845310" lon="-7.8419060">
        <ele>267.9</ele>
        <time>2019-08-17T14:48:00Z</time>
      </trkpt>
      <trkpt lat="42.2845560" lon="-7.8419740">
        <ele>267.7</ele>
        <time>2019-08-17T14:48:01Z</time>
      </trkpt>
      <trkpt lat="42.2845820" lon="-7.8420420">
        <ele>267.5</ele>
        <time>2019-08-17T14:48:02Z</time>
      </trkpt>
      <trkpt lat="42.2846060" lon="-7.8421110">
        <ele>267.3</ele>
        <time>2019-08-17T14:48:03Z</time>
      </trkpt>
      <trkpt lat="42.2846300" lon="-7.8421800">
        <ele>267.1</ele>
        <time>2019-08-17T14:48:04Z</time>
      </trkpt>
      <trkpt lat="42.2846520" lon="-7.8422490">
        <ele>266.8</ele>
        <time>2019-08-17T14:48:05Z</time>
      </trkpt>
      <trkpt lat="42.2846730" lon="-7.8423180">
        <ele>266.6</ele>
        <time>2019-08-17T14:48:06Z</time>
      </trkpt>
      <trkpt lat="42.2846930" lon="-7.8423880">
        <ele>265.9</ele>
        <time>2019-08-17T14:48:07Z</time>
      </trkpt>
      <trkpt lat="42.2847130" lon="-7.8424580">
        <ele>265.6</ele>
        <time>2019-08-17T14:48:08Z</time>
      </trkpt>
      <trkpt lat="42.2847300" lon="-7.8425280">
        <ele>265.3</ele>
        <time>2019-08-17T14:48:09Z</time>
      </trkpt>
      <trkpt lat="42.2847470" lon="-7.8426000">
        <ele>265.1</ele>
        <time>2019-08-17T14:48:10Z</time>
      </trkpt>
      <trkpt lat="42.2847630" lon="-7.8426720">
        <ele>264.9</ele>
        <time>2019-08-17T14:48:11Z</time>
      </trkpt>
      <trkpt lat="42.2847780" lon="-7.8427440">
        <ele>264.7</ele>
        <time>2019-08-17T14:48:12Z</time>
      </trkpt>
      <trkpt lat="42.2847910" lon="-7.8428170">
        <ele>264.5</ele>
        <time>2019-08-17T14:48:13Z</time>
      </trkpt>
      <trkpt lat="42.2848040" lon="-7.8428900">
        <ele>264.3</ele>
        <time>2019-08-17T14:48:14Z</time>
      </trkpt>
      <trkpt lat="42.2848150" lon="-7.8429640">
        <ele>264.1</ele>
        <time>2019-08-17T14:48:15Z</time>
      </trkpt>
      <trkpt lat="42.2848260" lon="-7.8430370">
        <ele>263.8</ele>
        <time>2019-08-17T14:48:16Z</time>
      </trkpt>
      <trkpt lat="42.2848350" lon="-7.8431100">
        <ele>263.6</ele>
        <time>2019-08-17T14:48:17Z</time>
      </trkpt>
      <trkpt lat="42.2848440" lon="-7.8431830">
        <ele>263.3</ele>
        <time>2019-08-17T14:48:18Z</time>
      </trkpt>
      <trkpt lat="42.2848510" lon="-7.8432560">
        <ele>263.0</ele>
        <time>2019-08-17T14:48:19Z</time>
      </trkpt>
      <trkpt lat="42.2848580" lon="-7.8433270">
        <ele>262.8</ele>
        <time>2019-08-17T14:48:20Z</time>
      </trkpt>
      <trkpt lat="42.2848640" lon="-7.8433980">
        <ele>262.7</ele>
        <time>2019-08-17T14:48:21Z</time>
      </trkpt>
      <trkpt lat="42.2848690" lon="-7.8434680">
        <ele>262.5</ele>
        <time>2019-08-17T14:48:22Z</time>
      </trkpt>
      <trkpt lat="42.2848730" lon="-7.8435370">
        <ele>262.4</ele>
        <time>2019-08-17T14:48:23Z</time>
      </trkpt>
      <trkpt lat="42.2848770" lon="-7.8436050">
        <ele>262.2</ele>
        <time>2019-08-17T14:48:24Z</time>
      </trkpt>
      <trkpt lat="42.2848800" lon="-7.8436710">
        <ele>262.1</ele>
        <time>2019-08-17T14:48:25Z</time>
      </trkpt>
      <trkpt lat="42.2848820" lon="-7.8437360">
        <ele>262.0</ele>
        <time>2019-08-17T14:48:26Z</time>
      </trkpt>
      <trkpt lat="42.2848830" lon="-7.8438000">
        <ele>262.4</ele>
        <time>2019-08-17T14:48:27Z</time>
      </trkpt>
      <trkpt lat="42.2848830" lon="-7.8438640">
        <ele>262.6</ele>
        <time>2019-08-17T14:48:28Z</time>
      </trkpt>
      <trkpt lat="42.2848830" lon="-7.8439270">
        <ele>262.8</ele>
        <time>2019-08-17T14:48:29Z</time>
      </trkpt>
      <trkpt lat="42.2848820" lon="-7.8439910">
        <ele>263.0</ele>
        <time>2019-08-17T14:48:30Z</time>
      </trkpt>
      <trkpt lat="42.2848800" lon="-7.8440540">
        <ele>263.2</ele>
        <time>2019-08-17T14:48:31Z</time>
      </trkpt>
      <trkpt lat="42.2848770" lon="-7.8441190">
        <ele>263.4</ele>
        <time>2019-08-17T14:48:32Z</time>
      </trkpt>
      <trkpt lat="42.2848730" lon="-7.8441840">
        <ele>263.6</ele>
        <time>2019-08-17T14:48:33Z</time>
      </trkpt>
      <trkpt lat="42.2848680" lon="-7.8442500">
        <ele>263.8</ele>
        <time>2019-08-17T14:48:34Z</time>
      </trkpt>
      <trkpt lat="42.2848630" lon="-7.8443160">
        <ele>263.9</ele>
        <time>2019-08-17T14:48:35Z</time>
      </trkpt>
      <trkpt lat="42.2848560" lon="-7.8443840">
        <ele>264.1</ele>
        <time>2019-08-17T14:48:36Z</time>
      </trkpt>
      <trkpt lat="42.2848490" lon="-7.8444520">
        <ele>264.3</ele>
        <time>2019-08-17T14:48:37Z</time>
      </trkpt>
      <trkpt lat="42.2848400" lon="-7.8445210">
        <ele>264.5</ele>
        <time>2019-08-17T14:48:38Z</time>
      </trkpt>
      <trkpt lat="42.2848310" lon="-7.8445910">
        <ele>264.6</ele>
        <time>2019-08-17T14:48:39Z</time>
      </trkpt>
      <trkpt lat="42.2848210" lon="-7.8446610">
        <ele>264.8</ele>
        <time>2019-08-17T14:48:40Z</time>
      </trkpt>
      <trkpt lat="42.2848090" lon="-7.8447320">
        <ele>264.9</ele>
        <time>2019-08-17T14:48:41Z</time>
      </trkpt>
      <trkpt lat="42.2847970" lon="-7.8448030">
        <ele>265.0</ele>
        <time>2019-08-17T14:48:42Z</time>
      </trkpt>
      <trkpt lat="42.2847830" lon="-7.8448750">
        <ele>265.1</ele>
        <time>2019-08-17T14:48:43Z</time>
      </trkpt>
      <trkpt lat="42.2847690" lon="-7.8449480">
        <ele>265.3</ele>
        <time>2019-08-17T14:48:44Z</time>
      </trkpt>
      <trkpt lat="42.2847530" lon="-7.8450200">
        <ele>265.4</ele>
        <time>2019-08-17T14:48:45Z</time>
      </trkpt>
      <trkpt lat="42.2847360" lon="-7.8450930">
        <ele>265.6</ele>
        <time>2019-08-17T14:48:46Z</time>
      </trkpt>
      <trkpt lat="42.2847180" lon="-7.8451660">
        <ele>265.7</ele>
        <time>2019-08-17T14:48:47Z</time>
      </trkpt>
      <trkpt lat="42.2846990" lon="-7.8452390">
        <ele>265.8</ele>
        <time>2019-08-17T14:48:48Z</time>
      </trkpt>
      <trkpt lat="42.2846790" lon="-7.8453120">
        <ele>265.9</ele>
        <time>2019-08-17T14:48:49Z</time>
      </trkpt>
      <trkpt lat="42.2846580" lon="-7.8453850">
        <ele>266.0</ele>
        <time>2019-08-17T14:48:50Z</time>
      </trkpt>
      <trkpt lat="42.2846350" lon="-7.8454570">
        <ele>266.1</ele>
        <time>2019-08-17T14:48:51Z</time>
      </trkpt>
      <trkpt lat="42.2846120" lon="-7.8455300">
        <ele>266.1</ele>
        <time>2019-08-17T14:48:52Z</time>
      </trkpt>
      <trkpt lat="42.2845870" lon="-7.8456030">
        <ele>266.2</ele>
        <time>2019-08-17T14:48:53Z</time>
      </trkpt>
      <trkpt lat="42.2845610" lon="-7.8456750">
        <ele>266.3</ele>
        <time>2019-08-17T14:48:54Z</time>
      </trkpt>
      <trkpt lat="42.2845330" lon="-7.8457460">
        <ele>266.3</ele>
        <time>2019-08-17T14:48:55Z</time>
      </trkpt>
      <trkpt lat="42.2845050" lon="-7.8458180">
        <ele>266.4</ele>
        <time>2019-08-17T14:48:56Z</time>
      </trkpt>
      <trkpt lat="42.2844750" lon="-7.8458890">
        <ele>266.4</ele>
        <time>2019-08-17T14:48:57Z</time>
      </trkpt>
      <trkpt lat="42.2844440" lon="-7.8459590">
        <ele>266.5</ele>
        <time>2019-08-17T14:48:58Z</time>
      </trkpt>
      <trkpt lat="42.2844120" lon="-7.8460290">
        <ele>267.6</ele>
        <time>2019-08-17T14:48:59Z</time>
      </trkpt>
      <trkpt lat="42.2843790" lon="-7.8460980">
        <ele>267.9</ele>
        <time>2019-08-17T14:49:00Z</time>
      </trkpt>
      <trkpt lat="42.2843440" lon="-7.8461670">
        <ele>268.2</ele>
        <time>2019-08-17T14:49:01Z</time>
      </trkpt>
      <trkpt lat="42.2843090" lon="-7.8462350">
        <ele>268.7</ele>
        <time>2019-08-17T14:49:02Z</time>
      </trkpt>
      <trkpt lat="42.2842720" lon="-7.8463020">
        <ele>269.4</ele>
        <time>2019-08-17T14:49:03Z</time>
      </trkpt>
      <trkpt lat="42.2842340" lon="-7.8463690">
        <ele>269.9</ele>
        <time>2019-08-17T14:49:04Z</time>
      </trkpt>
      <trkpt lat="42.2841950" lon="-7.8464350">
        <ele>270.8</ele>
        <time>2019-08-17T14:49:05Z</time>
      </trkpt>
      <trkpt lat="42.2841550" lon="-7.8465000">
        <ele>271.7</ele>
        <time>2019-08-17T14:49:06Z</time>
      </trkpt>
      <trkpt lat="42.2841140" lon="-7.8465640">
        <ele>272.3</ele>
        <time>2019-08-17T14:49:07Z</time>
      </trkpt>
      <trkpt lat="42.2840720" lon="-7.8466270">
        <ele>272.6</ele>
        <time>2019-08-17T14:49:08Z</time>
      </trkpt>
      <trkpt lat="42.2840290" lon="-7.8466890">
        <ele>273.1</ele>
        <time>2019-08-17T14:49:09Z</time>
      </trkpt>
      <trkpt lat="42.2839840" lon="-7.8467500">
        <ele>273.5</ele>
        <time>2019-08-17T14:49:10Z</time>
      </trkpt>
      <trkpt lat="42.2839390" lon="-7.8468100">
        <ele>273.8</ele>
        <time>2019-08-17T14:49:11Z</time>
      </trkpt>
      <trkpt lat="42.2838920" lon="-7.8468690">
        <ele>274.0</ele>
        <time>2019-08-17T14:49:12Z</time>
      </trkpt>
      <trkpt lat="42.2838450" lon="-7.8469260">
        <ele>274.3</ele>
        <time>2019-08-17T14:49:13Z</time>
      </trkpt>
      <trkpt lat="42.2837970" lon="-7.8469820">
        <ele>274.1</ele>
        <time>2019-08-17T14:49:14Z</time>
      </trkpt>
      <trkpt lat="42.2837470" lon="-7.8470370">
        <ele>274.0</ele>
        <time>2019-08-17T14:49:15Z</time>
      </trkpt>
      <trkpt lat="42.2836970" lon="-7.8470900">
        <ele>274.1</ele>
        <time>2019-08-17T14:49:16Z</time>
      </trkpt>
      <trkpt lat="42.2836460" lon="-7.8471410">
        <ele>274.4</ele>
        <time>2019-08-17T14:49:17Z</time>
      </trkpt>
      <trkpt lat="42.2835940" lon="-7.8471910">
        <ele>274.1</ele>
        <time>2019-08-17T14:49:18Z</time>
      </trkpt>
      <trkpt lat="42.2835410" lon="-7.8472400">
        <ele>273.6</ele>
        <time>2019-08-17T14:49:19Z</time>
      </trkpt>
      <trkpt lat="42.2834870" lon="-7.8472880">
        <ele>273.2</ele>
        <time>2019-08-17T14:49:20Z</time>
      </trkpt>
      <trkpt lat="42.2834310" lon="-7.8473350">
        <ele>272.8</ele>
        <time>2019-08-17T14:49:21Z</time>
      </trkpt>
      <trkpt lat="42.2833750" lon="-7.8473810">
        <ele>272.0</ele>
        <time>2019-08-17T14:49:22Z</time>
      </trkpt>
      <trkpt lat="42.2833170" lon="-7.8474270">
        <ele>271.7</ele>
        <time>2019-08-17T14:49:23Z</time>
      </trkpt>
      <trkpt lat="42.2832580" lon="-7.8474730">
        <ele>271.4</ele>
        <time>2019-08-17T14:49:24Z</time>
      </trkpt>
      <trkpt lat="42.2831980" lon="-7.8475190">
        <ele>270.9</ele>
        <time>2019-08-17T14:49:25Z</time>
      </trkpt>
      <trkpt lat="42.2831370" lon="-7.8475660">
        <ele>269.9</ele>
        <time>2019-08-17T14:49:26Z</time>
      </trkpt>
      <trkpt lat="42.2830740" lon="-7.8476130">
        <ele>269.9</ele>
        <time>2019-08-17T14:49:27Z</time>
      </trkpt>
      <trkpt lat="42.2830090" lon="-7.8476610">
        <ele>269.2</ele>
        <time>2019-08-17T14:49:28Z</time>
      </trkpt>
      <trkpt lat="42.2829430" lon="-7.8477110">
        <ele>268.8</ele>
        <time>2019-08-17T14:49:29Z</time>
      </trkpt>
      <trkpt lat="42.2828760" lon="-7.8477620">
        <ele>268.6</ele>
        <time>2019-08-17T14:49:30Z</time>
      </trkpt>
      <trkpt lat="42.2828070" lon="-7.8478140">
        <ele>268.0</ele>
        <time>2019-08-17T14:49:31Z</time>
      </trkpt>
      <trkpt lat="42.2827370" lon="-7.8478690">
        <ele>267.2</ele>
        <time>2019-08-17T14:49:32Z</time>
      </trkpt>
      <trkpt lat="42.2826650" lon="-7.8479250">
        <ele>266.8</ele>
        <time>2019-08-17T14:49:33Z</time>
      </trkpt>
      <trkpt lat="42.2825920" lon="-7.8479850">
        <ele>266.5</ele>
        <time>2019-08-17T14:49:34Z</time>
      </trkpt>
      <trkpt lat="42.2825180" lon="-7.8480470">
        <ele>266.1</ele>
        <time>2019-08-17T14:49:35Z</time>
      </trkpt>
      <trkpt lat="42.2824430" lon="-7.8481120">
        <ele>266.3</ele>
        <time>2019-08-17T14:49:36Z</time>
      </trkpt>
      <trkpt lat="42.2823680" lon="-7.8481810">
        <ele>265.9</ele>
        <time>2019-08-17T14:49:37Z</time>
      </trkpt>
      <trkpt lat="42.2822950" lon="-7.8482550">
        <ele>266.0</ele>
        <time>2019-08-17T14:49:38Z</time>
      </trkpt>
      <trkpt lat="42.2822240" lon="-7.8483360">
        <ele>266.2</ele>
        <time>2019-08-17T14:49:39Z</time>
      </trkpt>
      <trkpt lat="42.2821550" lon="-7.8484220">
        <ele>266.2</ele>
        <time>2019-08-17T14:49:40Z</time>
      </trkpt>
      <trkpt lat="42.2820900" lon="-7.8485140">
        <ele>266.1</ele>
        <time>2019-08-17T14:49:41Z</time>
      </trkpt>
      <trkpt lat="42.2820280" lon="-7.8486120">
        <ele>266.0</ele>
        <time>2019-08-17T14:49:42Z</time>
      </trkpt>
      <trkpt lat="42.2819700" lon="-7.8487150">
        <ele>265.3</ele>
        <time>2019-08-17T14:49:43Z</time>
      </trkpt>
      <trkpt lat="42.2819160" lon="-7.8488230">
        <ele>264.4</ele>
        <time>2019-08-17T14:49:44Z</time>
      </trkpt>
      <trkpt lat="42.2818640" lon="-7.8489340">
        <ele>263.6</ele>
        <time>2019-08-17T14:49:45Z</time>
      </trkpt>
      <trkpt lat="42.2818140" lon="-7.8490460">
        <ele>262.7</ele>
        <time>2019-08-17T14:49:46Z</time>
      </trkpt>
      <trkpt lat="42.2817660" lon="-7.8491600">
        <ele>261.9</ele>
        <time>2019-08-17T14:49:47Z</time>
      </trkpt>
      <trkpt lat="42.2817190" lon="-7.8492760">
        <ele>261.2</ele>
        <time>2019-08-17T14:49:48Z</time>
      </trkpt>
      <trkpt lat="42.2816750" lon="-7.8493940">
        <ele>260.5</ele>
        <time>2019-08-17T14:49:49Z</time>
      </trkpt>
      <trkpt lat="42.2816330" lon="-7.8495130">
        <ele>259.8</ele>
        <time>2019-08-17T14:49:50Z</time>
      </trkpt>
      <trkpt lat="42.2815940" lon="-7.8496330">
        <ele>259.1</ele>
        <time>2019-08-17T14:49:51Z</time>
      </trkpt>
      <trkpt lat="42.2815590" lon="-7.8497530">
        <ele>258.4</ele>
        <time>2019-08-17T14:49:52Z</time>
      </trkpt>
      <trkpt lat="42.2815280" lon="-7.8498730">
        <ele>257.7</ele>
        <time>2019-08-17T14:49:53Z</time>
      </trkpt>
      <trkpt lat="42.2815010" lon="-7.8499920">
        <ele>257.1</ele>
        <time>2019-08-17T14:49:54Z</time>
      </trkpt>
      <trkpt lat="42.2814790" lon="-7.8501090">
        <ele>256.6</ele>
        <time>2019-08-17T14:49:55Z</time>
      </trkpt>
      <trkpt lat="42.2814620" lon="-7.8502260">
        <ele>256.1</ele>
        <time>2019-08-17T14:49:56Z</time>
      </trkpt>
      <trkpt lat="42.2814510" lon="-7.8503410">
        <ele>255.6</ele>
        <time>2019-08-17T14:49:57Z</time>
      </trkpt>
      <trkpt lat="42.2814400" lon="-7.8504550">
        <ele>255.1</ele>
        <time>2019-08-17T14:49:58Z</time>
      </trkpt>
      <trkpt lat="42.2814360" lon="-7.8505670">
        <ele>254.7</ele>
        <time>2019-08-17T14:49:59Z</time>
      </trkpt>
      <trkpt lat="42.2814360" lon="-7.8506780">
        <ele>254.2</ele>
        <time>2019-08-17T14:50:00Z</time>
      </trkpt>
      <trkpt lat="42.2814400" lon="-7.8507870">
        <ele>253.6</ele>
        <time>2019-08-17T14:50:01Z</time>
      </trkpt>
      <trkpt lat="42.2814480" lon="-7.8508950">
        <ele>253.1</ele>
        <time>2019-08-17T14:50:02Z</time>
      </trkpt>
      <trkpt lat="42.2814590" lon="-7.8510000">
        <ele>252.6</ele>
        <time>2019-08-17T14:50:03Z</time>
      </trkpt>
      <trkpt lat="42.2814740" lon="-7.8511040">
        <ele>252.0</ele>
        <time>2019-08-17T14:50:04Z</time>
      </trkpt>
      <trkpt lat="42.2814900" lon="-7.8512070">
        <ele>251.5</ele>
        <time>2019-08-17T14:50:05Z</time>
      </trkpt>
      <trkpt lat="42.2815080" lon="-7.8513070">
        <ele>251.0</ele>
        <time>2019-08-17T14:50:06Z</time>
      </trkpt>
      <trkpt lat="42.2815280" lon="-7.8514060">
        <ele>250.5</ele>
        <time>2019-08-17T14:50:07Z</time>
      </trkpt>
      <trkpt lat="42.2815480" lon="-7.8515030">
        <ele>250.1</ele>
        <time>2019-08-17T14:50:08Z</time>
      </trkpt>
      <trkpt lat="42.2815690" lon="-7.8515980">
        <ele>249.7</ele>
        <time>2019-08-17T14:50:09Z</time>
      </trkpt>
      <trkpt lat="42.2815900" lon="-7.8516920">
        <ele>249.4</ele>
        <time>2019-08-17T14:50:10Z</time>
      </trkpt>
      <trkpt lat="42.2816120" lon="-7.8517860">
        <ele>249.2</ele>
        <time>2019-08-17T14:50:11Z</time>
      </trkpt>
      <trkpt lat="42.2816340" lon="-7.8518790">
        <ele>249.0</ele>
        <time>2019-08-17T14:50:12Z</time>
      </trkpt>
      <trkpt lat="42.2816570" lon="-7.8519720">
        <ele>248.9</ele>
        <time>2019-08-17T14:50:13Z</time>
      </trkpt>
      <trkpt lat="42.2816790" lon="-7.8520660">
        <ele>248.7</ele>
        <time>2019-08-17T14:50:14Z</time>
      </trkpt>
      <trkpt lat="42.2817020" lon="-7.8521600">
        <ele>248.6</ele>
        <time>2019-08-17T14:50:15Z</time>
      </trkpt>
      <trkpt lat="42.2817240" lon="-7.8522550">
        <ele>248.6</ele>
        <time>2019-08-17T14:50:16Z</time>
      </trkpt>
      <trkpt lat="42.2817470" lon="-7.8523500">
        <ele>248.5</ele>
        <time>2019-08-17T14:50:17Z</time>
      </trkpt>
      <trkpt lat="42.2817680" lon="-7.8524460">
        <ele>248.4</ele>
        <time>2019-08-17T14:50:18Z</time>
      </trkpt>
      <trkpt lat="42.2817900" lon="-7.8525420">
        <ele>248.4</ele>
        <time>2019-08-17T14:50:19Z</time>
      </trkpt>
      <trkpt lat="42.2818110" lon="-7.8526390">
        <ele>248.4</ele>
        <time>2019-08-17T14:50:20Z</time>
      </trkpt>
      <trkpt lat="42.2818310" lon="-7.8527360">
        <ele>248.3</ele>
        <time>2019-08-17T14:50:21Z</time>
      </trkpt>
      <trkpt lat="42.2818500" lon="-7.8528320">
        <ele>248.3</ele>
        <time>2019-08-17T14:50:22Z</time>
      </trkpt>
      <trkpt lat="42.2818680" lon="-7.8529300">
        <ele>248.2</ele>
        <time>2019-08-17T14:50:23Z</time>
      </trkpt>
      <trkpt lat="42.2818960" lon="-7.8530950">
        <ele>248.1</ele>
        <time>2019-08-17T14:50:24Z</time>
      </trkpt>
      <trkpt lat="42.2819060" lon="-7.8531610">
        <ele>248.1</ele>
        <time>2019-08-17T14:50:25Z</time>
      </trkpt>
      <trkpt lat="42.2819170" lon="-7.8532280">
        <ele>248.1</ele>
        <time>2019-08-17T14:50:26Z</time>
      </trkpt>
      <trkpt lat="42.2819310" lon="-7.8533310">
        <ele>248.0</ele>
        <time>2019-08-17T14:50:27Z</time>
      </trkpt>
      <trkpt lat="42.2819440" lon="-7.8534370">
        <ele>248.0</ele>
        <time>2019-08-17T14:50:28Z</time>
      </trkpt>
      <trkpt lat="42.2819640" lon="-7.8536190">
        <ele>247.9</ele>
        <time>2019-08-17T14:50:29Z</time>
      </trkpt>
      <trkpt lat="42.2819710" lon="-7.8536940">
        <ele>247.8</ele>
        <time>2019-08-17T14:50:30Z</time>
      </trkpt>
      <trkpt lat="42.2819780" lon="-7.8537690">
        <ele>247.8</ele>
        <time>2019-08-17T14:50:31Z</time>
      </trkpt>
      <trkpt lat="42.2819870" lon="-7.8538850">
        <ele>247.6</ele>
        <time>2019-08-17T14:50:32Z</time>
      </trkpt>
      <trkpt lat="42.2819950" lon="-7.8540040">
        <ele>247.5</ele>
        <time>2019-08-17T14:50:33Z</time>
      </trkpt>
      <trkpt lat="42.2820030" lon="-7.8541240">
        <ele>247.2</ele>
        <time>2019-08-17T14:50:34Z</time>
      </trkpt>
      <trkpt lat="42.2820090" lon="-7.8542460">
        <ele>247.0</ele>
        <time>2019-08-17T14:50:35Z</time>
      </trkpt>
      <trkpt lat="42.2820160" lon="-7.8543700">
        <ele>246.7</ele>
        <time>2019-08-17T14:50:36Z</time>
      </trkpt>
      <trkpt lat="42.2820210" lon="-7.8544950">
        <ele>246.4</ele>
        <time>2019-08-17T14:50:37Z</time>
      </trkpt>
      <trkpt lat="42.2820270" lon="-7.8546210">
        <ele>246.0</ele>
        <time>2019-08-17T14:50:38Z</time>
      </trkpt>
      <trkpt lat="42.2820330" lon="-7.8547470">
        <ele>245.6</ele>
        <time>2019-08-17T14:50:39Z</time>
      </trkpt>
      <trkpt lat="42.2820420" lon="-7.8548730">
        <ele>245.2</ele>
        <time>2019-08-17T14:50:40Z</time>
      </trkpt>
      <trkpt lat="42.2820520" lon="-7.8549980">
        <ele>244.8</ele>
        <time>2019-08-17T14:50:41Z</time>
      </trkpt>
      <trkpt lat="42.2820650" lon="-7.8551220">
        <ele>244.4</ele>
        <time>2019-08-17T14:50:42Z</time>
      </trkpt>
      <trkpt lat="42.2820800" lon="-7.8552430">
        <ele>244.1</ele>
        <time>2019-08-17T14:50:43Z</time>
      </trkpt>
      <trkpt lat="42.2820980" lon="-7.8553630">
        <ele>243.9</ele>
        <time>2019-08-17T14:50:44Z</time>
      </trkpt>
      <trkpt lat="42.2821130" lon="-7.8554920">
        <ele>243.5</ele>
        <time>2019-08-17T14:50:45Z</time>
      </trkpt>
      <trkpt lat="42.2821230" lon="-7.8556370">
        <ele>243.2</ele>
        <time>2019-08-17T14:50:46Z</time>
      </trkpt>
      <trkpt lat="42.2821360" lon="-7.8557790">
        <ele>242.8</ele>
        <time>2019-08-17T14:50:47Z</time>
      </trkpt>
      <trkpt lat="42.2821600" lon="-7.8559000">
        <ele>242.7</ele>
        <time>2019-08-17T14:50:48Z</time>
      </trkpt>
      <trkpt lat="42.2821910" lon="-7.8560050">
        <ele>242.6</ele>
        <time>2019-08-17T14:50:49Z</time>
      </trkpt>
      <trkpt lat="42.2822260" lon="-7.8561070">
        <ele>242.5</ele>
        <time>2019-08-17T14:50:50Z</time>
      </trkpt>
      <trkpt lat="42.2822620" lon="-7.8562070">
        <ele>242.4</ele>
        <time>2019-08-17T14:50:51Z</time>
      </trkpt>
      <trkpt lat="42.2823010" lon="-7.8563020">
        <ele>242.3</ele>
        <time>2019-08-17T14:50:52Z</time>
      </trkpt>
      <trkpt lat="42.2823420" lon="-7.8563940">
        <ele>242.1</ele>
        <time>2019-08-17T14:50:53Z</time>
      </trkpt>
      <trkpt lat="42.2824130" lon="-7.8565360">
        <ele>241.8</ele>
        <time>2019-08-17T14:50:54Z</time>
      </trkpt>
      <trkpt lat="42.2824420" lon="-7.8565910">
        <ele>241.7</ele>
        <time>2019-08-17T14:50:55Z</time>
      </trkpt>
      <trkpt lat="42.2824710" lon="-7.8566450">
        <ele>241.6</ele>
        <time>2019-08-17T14:50:56Z</time>
      </trkpt>
      <trkpt lat="42.2825150" lon="-7.8567190">
        <ele>241.4</ele>
        <time>2019-08-17T14:50:57Z</time>
      </trkpt>
      <trkpt lat="42.2825590" lon="-7.8567880">
        <ele>241.3</ele>
        <time>2019-08-17T14:50:58Z</time>
      </trkpt>
      <trkpt lat="42.2826030" lon="-7.8568510">
        <ele>241.1</ele>
        <time>2019-08-17T14:50:59Z</time>
      </trkpt>
      <trkpt lat="42.2826470" lon="-7.8569070">
        <ele>241.0</ele>
        <time>2019-08-17T14:51:00Z</time>
      </trkpt>
      <trkpt lat="42.2826900" lon="-7.8569640">
        <ele>240.8</ele>
        <time>2019-08-17T14:51:01Z</time>
      </trkpt>
      <trkpt lat="42.2827340" lon="-7.8570160">
        <ele>240.7</ele>
        <time>2019-08-17T14:51:02Z</time>
      </trkpt>
      <trkpt lat="42.2827780" lon="-7.8570650">
        <ele>240.5</ele>
        <time>2019-08-17T14:51:03Z</time>
      </trkpt>
      <trkpt lat="42.2828230" lon="-7.8571120">
        <ele>240.3</ele>
        <time>2019-08-17T14:51:04Z</time>
      </trkpt>
      <trkpt lat="42.2828690" lon="-7.8571580">
        <ele>240.1</ele>
        <time>2019-08-17T14:51:05Z</time>
      </trkpt>
      <trkpt lat="42.2829150" lon="-7.8572040">
        <ele>239.8</ele>
        <time>2019-08-17T14:51:06Z</time>
      </trkpt>
      <trkpt lat="42.2829630" lon="-7.8572490">
        <ele>239.6</ele>
        <time>2019-08-17T14:51:07Z</time>
      </trkpt>
      <trkpt lat="42.2830110" lon="-7.8572940">
        <ele>239.3</ele>
        <time>2019-08-17T14:51:08Z</time>
      </trkpt>
      <trkpt lat="42.2830600" lon="-7.8573370">
        <ele>239.0</ele>
        <time>2019-08-17T14:51:09Z</time>
      </trkpt>
      <trkpt lat="42.2831110" lon="-7.8573790">
        <ele>238.6</ele>
        <time>2019-08-17T14:51:10Z</time>
      </trkpt>
      <trkpt lat="42.2831620" lon="-7.8574200">
        <ele>238.3</ele>
        <time>2019-08-17T14:51:11Z</time>
      </trkpt>
      <trkpt lat="42.2832140" lon="-7.8574580">
        <ele>238.0</ele>
        <time>2019-08-17T14:51:12Z</time>
      </trkpt>
      <trkpt lat="42.2832680" lon="-7.8574940">
        <ele>237.7</ele>
        <time>2019-08-17T14:51:13Z</time>
      </trkpt>
      <trkpt lat="42.2833220" lon="-7.8575280">
        <ele>237.4</ele>
        <time>2019-08-17T14:51:14Z</time>
      </trkpt>
      <trkpt lat="42.2833780" lon="-7.8575600">
        <ele>237.0</ele>
        <time>2019-08-17T14:51:15Z</time>
      </trkpt>
      <trkpt lat="42.2834340" lon="-7.8575900">
        <ele>236.6</ele>
        <time>2019-08-17T14:51:16Z</time>
      </trkpt>
      <trkpt lat="42.2834920" lon="-7.8576180">
        <ele>236.2</ele>
        <time>2019-08-17T14:51:17Z</time>
      </trkpt>
      <trkpt lat="42.2835510" lon="-7.8576440">
        <ele>235.8</ele>
        <time>2019-08-17T14:51:18Z</time>
      </trkpt>
      <trkpt lat="42.2836110" lon="-7.8576700">
        <ele>235.4</ele>
        <time>2019-08-17T14:51:19Z</time>
      </trkpt>
      <trkpt lat="42.2836720" lon="-7.8576950">
        <ele>235.0</ele>
        <time>2019-08-17T14:51:20Z</time>
      </trkpt>
      <trkpt lat="42.2837350" lon="-7.8577200">
        <ele>234.5</ele>
        <time>2019-08-17T14:51:21Z</time>
      </trkpt>
      <trkpt lat="42.2837990" lon="-7.8577440">
        <ele>234.1</ele>
        <time>2019-08-17T14:51:22Z</time>
      </trkpt>
      <trkpt lat="42.2839070" lon="-7.8577830">
        <ele>233.5</ele>
        <time>2019-08-17T14:51:23Z</time>
      </trkpt>
      <trkpt lat="42.2839520" lon="-7.8577980">
        <ele>233.2</ele>
        <time>2019-08-17T14:51:24Z</time>
      </trkpt>
      <trkpt lat="42.2839960" lon="-7.8578140">
        <ele>232.9</ele>
        <time>2019-08-17T14:51:25Z</time>
      </trkpt>
      <trkpt lat="42.2840640" lon="-7.8578370">
        <ele>232.5</ele>
        <time>2019-08-17T14:51:26Z</time>
      </trkpt>
      <trkpt lat="42.2841330" lon="-7.8578610">
        <ele>232.0</ele>
        <time>2019-08-17T14:51:27Z</time>
      </trkpt>
      <trkpt lat="42.2842490" lon="-7.8579000">
        <ele>231.3</ele>
        <time>2019-08-17T14:51:28Z</time>
      </trkpt>
      <trkpt lat="42.2842950" lon="-7.8579150">
        <ele>231.0</ele>
        <time>2019-08-17T14:51:29Z</time>
      </trkpt>
      <trkpt lat="42.2843420" lon="-7.8579310">
        <ele>230.7</ele>
        <time>2019-08-17T14:51:30Z</time>
      </trkpt>
      <trkpt lat="42.2844130" lon="-7.8579550">
        <ele>230.2</ele>
        <time>2019-08-17T14:51:31Z</time>
      </trkpt>
      <trkpt lat="42.2844850" lon="-7.8579800">
        <ele>229.7</ele>
        <time>2019-08-17T14:51:32Z</time>
      </trkpt>
      <trkpt lat="42.2845560" lon="-7.8580050">
        <ele>229.3</ele>
        <time>2019-08-17T14:51:33Z</time>
      </trkpt>
      <trkpt lat="42.2846280" lon="-7.8580300">
        <ele>228.8</ele>
        <time>2019-08-17T14:51:34Z</time>
      </trkpt>
      <trkpt lat="42.2847000" lon="-7.8580560">
        <ele>228.4</ele>
        <time>2019-08-17T14:51:35Z</time>
      </trkpt>
      <trkpt lat="42.2847720" lon="-7.8580830">
        <ele>228.0</ele>
        <time>2019-08-17T14:51:36Z</time>
      </trkpt>
      <trkpt lat="42.2848440" lon="-7.8581100">
        <ele>227.6</ele>
        <time>2019-08-17T14:51:37Z</time>
      </trkpt>
      <trkpt lat="42.2849150" lon="-7.8581380">
        <ele>227.2</ele>
        <time>2019-08-17T14:51:38Z</time>
      </trkpt>
      <trkpt lat="42.2849860" lon="-7.8581670">
        <ele>226.8</ele>
        <time>2019-08-17T14:51:39Z</time>
      </trkpt>
      <trkpt lat="42.2850570" lon="-7.8581960">
        <ele>226.4</ele>
        <time>2019-08-17T14:51:40Z</time>
      </trkpt>
      <trkpt lat="42.2851260" lon="-7.8582250">
        <ele>226.0</ele>
        <time>2019-08-17T14:51:41Z</time>
      </trkpt>
      <trkpt lat="42.2851950" lon="-7.8582550">
        <ele>225.6</ele>
        <time>2019-08-17T14:51:42Z</time>
      </trkpt>
      <trkpt lat="42.2852630" lon="-7.8582850">
        <ele>225.2</ele>
        <time>2019-08-17T14:51:43Z</time>
      </trkpt>
      <trkpt lat="42.2853300" lon="-7.8583160">
        <ele>224.9</ele>
        <time>2019-08-17T14:51:44Z</time>
      </trkpt>
      <trkpt lat="42.2853960" lon="-7.8583480">
        <ele>224.6</ele>
        <time>2019-08-17T14:51:45Z</time>
      </trkpt>
      <trkpt lat="42.2854620" lon="-7.8583810">
        <ele>224.3</ele>
        <time>2019-08-17T14:51:46Z</time>
      </trkpt>
      <trkpt lat="42.2855280" lon="-7.8584140">
        <ele>224.0</ele>
        <time>2019-08-17T14:51:47Z</time>
      </trkpt>
      <trkpt lat="42.2855950" lon="-7.8584490">
        <ele>223.9</ele>
        <time>2019-08-17T14:51:48Z</time>
      </trkpt>
      <trkpt lat="42.2856610" lon="-7.8584860">
        <ele>223.9</ele>
        <time>2019-08-17T14:51:49Z</time>
      </trkpt>
      <trkpt lat="42.2857290" lon="-7.8585240">
        <ele>223.8</ele>
        <time>2019-08-17T14:51:50Z</time>
      </trkpt>
      <trkpt lat="42.2857970" lon="-7.8585630">
        <ele>223.7</ele>
        <time>2019-08-17T14:51:51Z</time>
      </trkpt>
      <trkpt lat="42.2858660" lon="-7.8586040">
        <ele>223.7</ele>
        <time>2019-08-17T14:51:52Z</time>
      </trkpt>
      <trkpt lat="42.2859350" lon="-7.8586460">
        <ele>223.7</ele>
        <time>2019-08-17T14:51:53Z</time>
      </trkpt>
      <trkpt lat="42.2860040" lon="-7.8586900">
        <ele>224.1</ele>
        <time>2019-08-17T14:51:54Z</time>
      </trkpt>
      <trkpt lat="42.2860720" lon="-7.8587340">
        <ele>225.0</ele>
        <time>2019-08-17T14:51:55Z</time>
      </trkpt>
      <trkpt lat="42.2861410" lon="-7.8587780">
        <ele>225.5</ele>
        <time>2019-08-17T14:51:56Z</time>
      </trkpt>
      <trkpt lat="42.2862080" lon="-7.8588230">
        <ele>226.0</ele>
        <time>2019-08-17T14:51:57Z</time>
      </trkpt>
      <trkpt lat="42.2862750" lon="-7.8588690">
        <ele>226.6</ele>
        <time>2019-08-17T14:51:58Z</time>
      </trkpt>
      <trkpt lat="42.2863410" lon="-7.8589150">
        <ele>227.1</ele>
        <time>2019-08-17T14:51:59Z</time>
      </trkpt>
      <trkpt lat="42.2864060" lon="-7.8589620">
        <ele>227.5</ele>
        <time>2019-08-17T14:52:00Z</time>
      </trkpt>
      <trkpt lat="42.2864710" lon="-7.8590090">
        <ele>227.9</ele>
        <time>2019-08-17T14:52:01Z</time>
      </trkpt>
      <trkpt lat="42.2865360" lon="-7.8590570">
        <ele>228.5</ele>
        <time>2019-08-17T14:52:02Z</time>
      </trkpt>
      <trkpt lat="42.2866000" lon="-7.8591060">
        <ele>229.0</ele>
        <time>2019-08-17T14:52:03Z</time>
      </trkpt>
      <trkpt lat="42.2866650" lon="-7.8591550">
        <ele>229.5</ele>
        <time>2019-08-17T14:52:04Z</time>
      </trkpt>
      <trkpt lat="42.2867300" lon="-7.8592050">
        <ele>229.8</ele>
        <time>2019-08-17T14:52:05Z</time>
      </trkpt>
      <trkpt lat="42.2867950" lon="-7.8592560">
        <ele>229.8</ele>
        <time>2019-08-17T14:52:06Z</time>
      </trkpt>
      <trkpt lat="42.2868590" lon="-7.8593080">
        <ele>229.8</ele>
        <time>2019-08-17T14:52:07Z</time>
      </trkpt>
      <trkpt lat="42.2869240" lon="-7.8593610">
        <ele>229.7</ele>
        <time>2019-08-17T14:52:08Z</time>
      </trkpt>
      <trkpt lat="42.2869890" lon="-7.8594140">
        <ele>229.5</ele>
        <time>2019-08-17T14:52:09Z</time>
      </trkpt>
      <trkpt lat="42.2870540" lon="-7.8594670">
        <ele>229.4</ele>
        <time>2019-08-17T14:52:10Z</time>
      </trkpt>
      <trkpt lat="42.2871180" lon="-7.8595210">
        <ele>229.2</ele>
        <time>2019-08-17T14:52:11Z</time>
      </trkpt>
      <trkpt lat="42.2871830" lon="-7.8595760">
        <ele>228.7</ele>
        <time>2019-08-17T14:52:12Z</time>
      </trkpt>
      <trkpt lat="42.2872470" lon="-7.8596310">
        <ele>228.0</ele>
        <time>2019-08-17T14:52:13Z</time>
      </trkpt>
      <trkpt lat="42.2873110" lon="-7.8596860">
        <ele>227.1</ele>
        <time>2019-08-17T14:52:14Z</time>
      </trkpt>
      <trkpt lat="42.2873740" lon="-7.8597410">
        <ele>226.7</ele>
        <time>2019-08-17T14:52:15Z</time>
      </trkpt>
      <trkpt lat="42.2874370" lon="-7.8597970">
        <ele>226.4</ele>
        <time>2019-08-17T14:52:16Z</time>
      </trkpt>
      <trkpt lat="42.2874990" lon="-7.8598520">
        <ele>225.9</ele>
        <time>2019-08-17T14:52:17Z</time>
      </trkpt>
      <trkpt lat="42.2875610" lon="-7.8599080">
        <ele>225.5</ele>
        <time>2019-08-17T14:52:18Z</time>
      </trkpt>
      <trkpt lat="42.2876220" lon="-7.8599630">
        <ele>225.3</ele>
        <time>2019-08-17T14:52:19Z</time>
      </trkpt>
      <trkpt lat="42.2876820" lon="-7.8600190">
        <ele>224.9</ele>
        <time>2019-08-17T14:52:20Z</time>
      </trkpt>
      <trkpt lat="42.2877420" lon="-7.8600740">
        <ele>224.6</ele>
        <time>2019-08-17T14:52:21Z</time>
      </trkpt>
      <trkpt lat="42.2878000" lon="-7.8601280">
        <ele>224.4</ele>
        <time>2019-08-17T14:52:22Z</time>
      </trkpt>
      <trkpt lat="42.2878570" lon="-7.8601820">
        <ele>224.2</ele>
        <time>2019-08-17T14:52:23Z</time>
      </trkpt>
      <trkpt lat="42.2879130" lon="-7.8602350">
        <ele>223.9</ele>
        <time>2019-08-17T14:52:24Z</time>
      </trkpt>
      <trkpt lat="42.2879670" lon="-7.8602870">
        <ele>223.6</ele>
        <time>2019-08-17T14:52:25Z</time>
      </trkpt>
      <trkpt lat="42.2880190" lon="-7.8603380">
        <ele>223.4</ele>
        <time>2019-08-17T14:52:26Z</time>
      </trkpt>
      <trkpt lat="42.2880690" lon="-7.8603870">
        <ele>223.3</ele>
        <time>2019-08-17T14:52:27Z</time>
      </trkpt>
      <trkpt lat="42.2881180" lon="-7.8604360">
        <ele>223.2</ele>
        <time>2019-08-17T14:52:28Z</time>
      </trkpt>
      <trkpt lat="42.2881660" lon="-7.8604830">
        <ele>223.1</ele>
        <time>2019-08-17T14:52:29Z</time>
      </trkpt>
      <trkpt lat="42.2882120" lon="-7.8605310">
        <ele>223.2</ele>
        <time>2019-08-17T14:52:30Z</time>
      </trkpt>
      <trkpt lat="42.2882580" lon="-7.8605780">
        <ele>223.1</ele>
        <time>2019-08-17T14:52:31Z</time>
      </trkpt>
      <trkpt lat="42.2883040" lon="-7.8606250">
        <ele>223.0</ele>
        <time>2019-08-17T14:52:32Z</time>
      </trkpt>
      <trkpt lat="42.2883490" lon="-7.8606720">
        <ele>223.0</ele>
        <time>2019-08-17T14:52:33Z</time>
      </trkpt>
      <trkpt lat="42.2883950" lon="-7.8607210">
        <ele>223.1</ele>
        <time>2019-08-17T14:52:34Z</time>
      </trkpt>
      <trkpt lat="42.2884400" lon="-7.8607700">
        <ele>223.2</ele>
        <time>2019-08-17T14:52:35Z</time>
      </trkpt>
      <trkpt lat="42.2884860" lon="-7.8608190">
        <ele>223.4</ele>
        <time>2019-08-17T14:52:36Z</time>
      </trkpt>
      <trkpt lat="42.2885310" lon="-7.8608680">
        <ele>223.5</ele>
        <time>2019-08-17T14:52:37Z</time>
      </trkpt>
      <trkpt lat="42.2885760" lon="-7.8609180">
        <ele>223.7</ele>
        <time>2019-08-17T14:52:38Z</time>
      </trkpt>
      <trkpt lat="42.2886210" lon="-7.8609670">
        <ele>224.1</ele>
        <time>2019-08-17T14:52:39Z</time>
      </trkpt>
      <trkpt lat="42.2886640" lon="-7.8610150">
        <ele>224.6</ele>
        <time>2019-08-17T14:52:40Z</time>
      </trkpt>
      <trkpt lat="42.2887070" lon="-7.8610630">
        <ele>224.8</ele>
        <time>2019-08-17T14:52:41Z</time>
      </trkpt>
      <trkpt lat="42.2887480" lon="-7.8611100">
        <ele>224.8</ele>
        <time>2019-08-17T14:52:42Z</time>
      </trkpt>
      <trkpt lat="42.2887890" lon="-7.8611570">
        <ele>225.1</ele>
        <time>2019-08-17T14:52:43Z</time>
      </trkpt>
      <trkpt lat="42.2888290" lon="-7.8612030">
        <ele>225.4</ele>
        <time>2019-08-17T14:52:44Z</time>
      </trkpt>
      <trkpt lat="42.2888670" lon="-7.8612490">
        <ele>225.4</ele>
        <time>2019-08-17T14:52:45Z</time>
      </trkpt>
      <trkpt lat="42.2889060" lon="-7.8612950">
        <ele>225.3</ele>
        <time>2019-08-17T14:52:46Z</time>
      </trkpt>
      <trkpt lat="42.2889430" lon="-7.8613400">
        <ele>225.2</ele>
        <time>2019-08-17T14:52:47Z</time>
      </trkpt>
      <trkpt lat="42.2889800" lon="-7.8613850">
        <ele>225.2</ele>
        <time>2019-08-17T14:52:48Z</time>
      </trkpt>
      <trkpt lat="42.2890160" lon="-7.8614300">
        <ele>225.1</ele>
        <time>2019-08-17T14:52:49Z</time>
      </trkpt>
      <trkpt lat="42.2890520" lon="-7.8614750">
        <ele>225.0</ele>
        <time>2019-08-17T14:52:50Z</time>
      </trkpt>
      <trkpt lat="42.2890880" lon="-7.8615190">
        <ele>224.9</ele>
        <time>2019-08-17T14:52:51Z</time>
      </trkpt>
      <trkpt lat="42.2891240" lon="-7.8615640">
        <ele>224.8</ele>
        <time>2019-08-17T14:52:52Z</time>
      </trkpt>
      <trkpt lat="42.2891610" lon="-7.8616070">
        <ele>224.7</ele>
        <time>2019-08-17T14:52:53Z</time>
      </trkpt>
      <trkpt lat="42.2891980" lon="-7.8616500">
        <ele>224.6</ele>
        <time>2019-08-17T14:52:54Z</time>
      </trkpt>
      <trkpt lat="42.2892350" lon="-7.8616930">
        <ele>224.5</ele>
        <time>2019-08-17T14:52:55Z</time>
      </trkpt>
      <trkpt lat="42.2892730" lon="-7.8617350">
        <ele>224.4</ele>
        <time>2019-08-17T14:52:56Z</time>
      </trkpt>
      <trkpt lat="42.2893110" lon="-7.8617770">
        <ele>224.3</ele>
        <time>2019-08-17T14:52:57Z</time>
      </trkpt>
      <trkpt lat="42.2893500" lon="-7.8618190">
        <ele>224.2</ele>
        <time>2019-08-17T14:52:58Z</time>
      </trkpt>
      <trkpt lat="42.2893880" lon="-7.8618630">
        <ele>224.1</ele>
        <time>2019-08-17T14:52:59Z</time>
      </trkpt>
      <trkpt lat="42.2894250" lon="-7.8619080">
        <ele>224.0</ele>
        <time>2019-08-17T14:53:00Z</time>
      </trkpt>
      <trkpt lat="42.2894600" lon="-7.8619550">
        <ele>223.9</ele>
        <time>2019-08-17T14:53:01Z</time>
      </trkpt>
      <trkpt lat="42.2894940" lon="-7.8620040">
        <ele>223.8</ele>
        <time>2019-08-17T14:53:02Z</time>
      </trkpt>
      <trkpt lat="42.2895260" lon="-7.8620570">
        <ele>223.7</ele>
        <time>2019-08-17T14:53:03Z</time>
      </trkpt>
      <trkpt lat="42.2895560" lon="-7.8621120">
        <ele>223.6</ele>
        <time>2019-08-17T14:53:04Z</time>
      </trkpt>
      <trkpt lat="42.2895850" lon="-7.8621690">
        <ele>223.5</ele>
        <time>2019-08-17T14:53:05Z</time>
      </trkpt>
      <trkpt lat="42.2896120" lon="-7.8622280">
        <ele>223.4</ele>
        <time>2019-08-17T14:53:06Z</time>
      </trkpt>
      <trkpt lat="42.2896390" lon="-7.8622890">
        <ele>223.3</ele>
        <time>2019-08-17T14:53:07Z</time>
      </trkpt>
      <trkpt lat="42.2896650" lon="-7.8623500">
        <ele>223.2</ele>
        <time>2019-08-17T14:53:08Z</time>
      </trkpt>
      <trkpt lat="42.2896910" lon="-7.8624120">
        <ele>223.1</ele>
        <time>2019-08-17T14:53:09Z</time>
      </trkpt>
      <trkpt lat="42.2897160" lon="-7.8624750">
        <ele>223.0</ele>
        <time>2019-08-17T14:53:10Z</time>
      </trkpt>
      <trkpt lat="42.2897420" lon="-7.8625360">
        <ele>222.9</ele>
        <time>2019-08-17T14:53:11Z</time>
      </trkpt>
      <trkpt lat="42.2897690" lon="-7.8625980">
        <ele>222.8</ele>
        <time>2019-08-17T14:53:12Z</time>
      </trkpt>
      <trkpt lat="42.2897950" lon="-7.8626600">
        <ele>222.7</ele>
        <time>2019-08-17T14:53:13Z</time>
      </trkpt>
      <trkpt lat="42.2898210" lon="-7.8627220">
        <ele>222.6</ele>
        <time>2019-08-17T14:53:14Z</time>
      </trkpt>
      <trkpt lat="42.2898480" lon="-7.8627850">
        <ele>222.5</ele>
        <time>2019-08-17T14:53:15Z</time>
      </trkpt>
      <trkpt lat="42.2898740" lon="-7.8628500">
        <ele>222.4</ele>
        <time>2019-08-17T14:53:16Z</time>
      </trkpt>
      <trkpt lat="42.2899000" lon="-7.8629150">
        <ele>222.3</ele>
        <time>2019-08-17T14:53:17Z</time>
      </trkpt>
      <trkpt lat="42.2899250" lon="-7.8629830">
        <ele>222.1</ele>
        <time>2019-08-17T14:53:18Z</time>
      </trkpt>
      <trkpt lat="42.2899500" lon="-7.8630510">
        <ele>222.0</ele>
        <time>2019-08-17T14:53:19Z</time>
      </trkpt>
      <trkpt lat="42.2899750" lon="-7.8631220">
        <ele>221.9</ele>
        <time>2019-08-17T14:53:20Z</time>
      </trkpt>
      <trkpt lat="42.2899990" lon="-7.8631930">
        <ele>221.8</ele>
        <time>2019-08-17T14:53:21Z</time>
      </trkpt>
      <trkpt lat="42.2900240" lon="-7.8632660">
        <ele>221.6</ele>
        <time>2019-08-17T14:53:22Z</time>
      </trkpt>
      <trkpt lat="42.2900480" lon="-7.8633400">
        <ele>221.5</ele>
        <time>2019-08-17T14:53:23Z</time>
      </trkpt>
      <trkpt lat="42.2900720" lon="-7.8634150">
        <ele>221.3</ele>
        <time>2019-08-17T14:53:24Z</time>
      </trkpt>
      <trkpt lat="42.2900970" lon="-7.8634910">
        <ele>221.2</ele>
        <time>2019-08-17T14:53:25Z</time>
      </trkpt>
      <trkpt lat="42.2901210" lon="-7.8635680">
        <ele>221.0</ele>
        <time>2019-08-17T14:53:26Z</time>
      </trkpt>
      <trkpt lat="42.2901460" lon="-7.8636460">
        <ele>220.9</ele>
        <time>2019-08-17T14:53:27Z</time>
      </trkpt>
      <trkpt lat="42.2901720" lon="-7.8637240">
        <ele>220.7</ele>
        <time>2019-08-17T14:53:28Z</time>
      </trkpt>
      <trkpt lat="42.2901970" lon="-7.8638030">
        <ele>220.5</ele>
        <time>2019-08-17T14:53:29Z</time>
      </trkpt>
      <trkpt lat="42.2902230" lon="-7.8638820">
        <ele>220.4</ele>
        <time>2019-08-17T14:53:30Z</time>
      </trkpt>
      <trkpt lat="42.2902500" lon="-7.8639620">
        <ele>220.2</ele>
        <time>2019-08-17T14:53:31Z</time>
      </trkpt>
      <trkpt lat="42.2902780" lon="-7.8640410">
        <ele>220.0</ele>
        <time>2019-08-17T14:53:32Z</time>
      </trkpt>
      <trkpt lat="42.2903060" lon="-7.8641210">
        <ele>219.8</ele>
        <time>2019-08-17T14:53:33Z</time>
      </trkpt>
      <trkpt lat="42.2903350" lon="-7.8642000">
        <ele>219.7</ele>
        <time>2019-08-17T14:53:34Z</time>
      </trkpt>
      <trkpt lat="42.2903660" lon="-7.8642780">
        <ele>219.5</ele>
        <time>2019-08-17T14:53:35Z</time>
      </trkpt>
      <trkpt lat="42.2903980" lon="-7.8643540">
        <ele>219.4</ele>
        <time>2019-08-17T14:53:36Z</time>
      </trkpt>
      <trkpt lat="42.2904300" lon="-7.8644270">
        <ele>219.2</ele>
        <time>2019-08-17T14:53:37Z</time>
      </trkpt>
      <trkpt lat="42.2904570" lon="-7.8645000">
        <ele>219.1</ele>
        <time>2019-08-17T14:53:38Z</time>
      </trkpt>
      <trkpt lat="42.2905040" lon="-7.8646190">
        <ele>218.9</ele>
        <time>2019-08-17T14:53:39Z</time>
      </trkpt>
      <trkpt lat="42.2905200" lon="-7.8646590">
        <ele>218.8</ele>
        <time>2019-08-17T14:53:40Z</time>
      </trkpt>
      <trkpt lat="42.2905550" lon="-7.8647360">
        <ele>218.7</ele>
        <time>2019-08-17T14:53:41Z</time>
      </trkpt>
      <trkpt lat="42.2905920" lon="-7.8648100">
        <ele>218.5</ele>
        <time>2019-08-17T14:53:42Z</time>
      </trkpt>
      <trkpt lat="42.2906300" lon="-7.8648820">
        <ele>218.4</ele>
        <time>2019-08-17T14:53:43Z</time>
      </trkpt>
      <trkpt lat="42.2906680" lon="-7.8649510">
        <ele>218.2</ele>
        <time>2019-08-17T14:53:44Z</time>
      </trkpt>
      <trkpt lat="42.2907080" lon="-7.8650190">
        <ele>218.1</ele>
        <time>2019-08-17T14:53:45Z</time>
      </trkpt>
      <trkpt lat="42.2907470" lon="-7.8650840">
        <ele>217.9</ele>
        <time>2019-08-17T14:53:46Z</time>
      </trkpt>
      <trkpt lat="42.2907880" lon="-7.8651490">
        <ele>217.8</ele>
        <time>2019-08-17T14:53:47Z</time>
      </trkpt>
      <trkpt lat="42.2908300" lon="-7.8652130">
        <ele>217.6</ele>
        <time>2019-08-17T14:53:48Z</time>
      </trkpt>
      <trkpt lat="42.2908730" lon="-7.8652760">
        <ele>217.4</ele>
        <time>2019-08-17T14:53:49Z</time>
      </trkpt>
      <trkpt lat="42.2909160" lon="-7.8653380">
        <ele>217.2</ele>
        <time>2019-08-17T14:53:50Z</time>
      </trkpt>
      <trkpt lat="42.2909610" lon="-7.8654000">
        <ele>217.0</ele>
        <time>2019-08-17T14:53:51Z</time>
      </trkpt>
      <trkpt lat="42.2910070" lon="-7.8654620">
        <ele>216.8</ele>
        <time>2019-08-17T14:53:52Z</time>
      </trkpt>
      <trkpt lat="42.2910550" lon="-7.8655230">
        <ele>216.5</ele>
        <time>2019-08-17T14:53:53Z</time>
      </trkpt>
      <trkpt lat="42.2911030" lon="-7.8655840">
        <ele>216.2</ele>
        <time>2019-08-17T14:53:54Z</time>
      </trkpt>
      <trkpt lat="42.2911530" lon="-7.8656450">
        <ele>216.0</ele>
        <time>2019-08-17T14:53:55Z</time>
      </trkpt>
      <trkpt lat="42.2912050" lon="-7.8657060">
        <ele>215.8</ele>
        <time>2019-08-17T14:53:56Z</time>
      </trkpt>
      <trkpt lat="42.2912580" lon="-7.8657650">
        <ele>215.5</ele>
        <time>2019-08-17T14:53:57Z</time>
      </trkpt>
      <trkpt lat="42.2913120" lon="-7.8658230">
        <ele>215.3</ele>
        <time>2019-08-17T14:53:58Z</time>
      </trkpt>
      <trkpt lat="42.2913680" lon="-7.8658790">
        <ele>215.1</ele>
        <time>2019-08-17T14:53:59Z</time>
      </trkpt>
      <trkpt lat="42.2914240" lon="-7.8659330">
        <ele>214.9</ele>
        <time>2019-08-17T14:54:00Z</time>
      </trkpt>
      <trkpt lat="42.2914820" lon="-7.8659830">
        <ele>214.8</ele>
        <time>2019-08-17T14:54:01Z</time>
      </trkpt>
      <trkpt lat="42.2915410" lon="-7.8660310">
        <ele>214.6</ele>
        <time>2019-08-17T14:54:02Z</time>
      </trkpt>
      <trkpt lat="42.2916010" lon="-7.8660760">
        <ele>214.5</ele>
        <time>2019-08-17T14:54:03Z</time>
      </trkpt>
      <trkpt lat="42.2916620" lon="-7.8661200">
        <ele>214.4</ele>
        <time>2019-08-17T14:54:04Z</time>
      </trkpt>
      <trkpt lat="42.2917240" lon="-7.8661620">
        <ele>215.0</ele>
        <time>2019-08-17T14:54:05Z</time>
      </trkpt>
      <trkpt lat="42.2917860" lon="-7.8662040">
        <ele>215.7</ele>
        <time>2019-08-17T14:54:06Z</time>
      </trkpt>
      <trkpt lat="42.2918480" lon="-7.8662460">
        <ele>216.4</ele>
        <time>2019-08-17T14:54:07Z</time>
      </trkpt>
      <trkpt lat="42.2919100" lon="-7.8662900">
        <ele>217.2</ele>
        <time>2019-08-17T14:54:08Z</time>
      </trkpt>
      <trkpt lat="42.2919730" lon="-7.8663350">
        <ele>217.9</ele>
        <time>2019-08-17T14:54:09Z</time>
      </trkpt>
      <trkpt lat="42.2920350" lon="-7.8663810">
        <ele>218.6</ele>
        <time>2019-08-17T14:54:10Z</time>
      </trkpt>
      <trkpt lat="42.2920970" lon="-7.8664290">
        <ele>219.4</ele>
        <time>2019-08-17T14:54:11Z</time>
      </trkpt>
      <trkpt lat="42.2921590" lon="-7.8664770">
        <ele>220.2</ele>
        <time>2019-08-17T14:54:12Z</time>
      </trkpt>
      <trkpt lat="42.2922210" lon="-7.8665250">
        <ele>221.0</ele>
        <time>2019-08-17T14:54:13Z</time>
      </trkpt>
      <trkpt lat="42.2922830" lon="-7.8665730">
        <ele>221.8</ele>
        <time>2019-08-17T14:54:14Z</time>
      </trkpt>
      <trkpt lat="42.2923450" lon="-7.8666200">
        <ele>222.6</ele>
        <time>2019-08-17T14:54:15Z</time>
      </trkpt>
      <trkpt lat="42.2924070" lon="-7.8666670">
        <ele>223.4</ele>
        <time>2019-08-17T14:54:16Z</time>
      </trkpt>
      <trkpt lat="42.2924680" lon="-7.8667120">
        <ele>224.2</ele>
        <time>2019-08-17T14:54:17Z</time>
      </trkpt>
      <trkpt lat="42.2925300" lon="-7.8667570">
        <ele>225.4</ele>
        <time>2019-08-17T14:54:18Z</time>
      </trkpt>
      <trkpt lat="42.2925910" lon="-7.8668020">
        <ele>225.4</ele>
        <time>2019-08-17T14:54:19Z</time>
      </trkpt>
      <trkpt lat="42.2926510" lon="-7.8668460">
        <ele>225.4</ele>
        <time>2019-08-17T14:54:20Z</time>
      </trkpt>
      <trkpt lat="42.2927100" lon="-7.8668910">
        <ele>225.4</ele>
        <time>2019-08-17T14:54:21Z</time>
      </trkpt>
      <trkpt lat="42.2927670" lon="-7.8669360">
        <ele>225.4</ele>
        <time>2019-08-17T14:54:22Z</time>
      </trkpt>
      <trkpt lat="42.2928230" lon="-7.8669810">
        <ele>225.4</ele>
        <time>2019-08-17T14:54:23Z</time>
      </trkpt>
      <trkpt lat="42.2928770" lon="-7.8670280">
        <ele>225.4</ele>
        <time>2019-08-17T14:54:24Z</time>
      </trkpt>
      <trkpt lat="42.2929300" lon="-7.8670750">
        <ele>225.4</ele>
        <time>2019-08-17T14:54:25Z</time>
      </trkpt>
      <trkpt lat="42.2929810" lon="-7.8671230">
        <ele>225.3</ele>
        <time>2019-08-17T14:54:26Z</time>
      </trkpt>
      <trkpt lat="42.2930300" lon="-7.8671710">
        <ele>225.3</ele>
        <time>2019-08-17T14:54:27Z</time>
      </trkpt>
      <trkpt lat="42.2930780" lon="-7.8672200">
        <ele>225.3</ele>
        <time>2019-08-17T14:54:28Z</time>
      </trkpt>
      <trkpt lat="42.2931250" lon="-7.8672700">
        <ele>225.3</ele>
        <time>2019-08-17T14:54:29Z</time>
      </trkpt>
      <trkpt lat="42.2931710" lon="-7.8673200">
        <ele>225.3</ele>
        <time>2019-08-17T14:54:30Z</time>
      </trkpt>
      <trkpt lat="42.2932150" lon="-7.8673700">
        <ele>225.3</ele>
        <time>2019-08-17T14:54:31Z</time>
      </trkpt>
      <trkpt lat="42.2932580" lon="-7.8674200">
        <ele>225.3</ele>
        <time>2019-08-17T14:54:32Z</time>
      </trkpt>
      <trkpt lat="42.2933010" lon="-7.8674710">
        <ele>225.3</ele>
        <time>2019-08-17T14:54:33Z</time>
      </trkpt>
      <trkpt lat="42.2933410" lon="-7.8675210">
        <ele>225.4</ele>
        <time>2019-08-17T14:54:34Z</time>
      </trkpt>
      <trkpt lat="42.2933810" lon="-7.8675700">
        <ele>225.4</ele>
        <time>2019-08-17T14:54:35Z</time>
      </trkpt>
      <trkpt lat="42.2934190" lon="-7.8676190">
        <ele>225.4</ele>
        <time>2019-08-17T14:54:36Z</time>
      </trkpt>
      <trkpt lat="42.2934550" lon="-7.8676670">
        <ele>225.4</ele>
        <time>2019-08-17T14:54:37Z</time>
      </trkpt>
      <trkpt lat="42.2934900" lon="-7.8677140">
        <ele>225.4</ele>
        <time>2019-08-17T14:54:38Z</time>
      </trkpt>
      <trkpt lat="42.2935240" lon="-7.8677600">
        <ele>225.5</ele>
        <time>2019-08-17T14:54:39Z</time>
      </trkpt>
      <trkpt lat="42.2935570" lon="-7.8678050">
        <ele>225.5</ele>
        <time>2019-08-17T14:54:40Z</time>
      </trkpt>
      <trkpt lat="42.2935890" lon="-7.8678490">
        <ele>225.5</ele>
        <time>2019-08-17T14:54:41Z</time>
      </trkpt>
      <trkpt lat="42.2936200" lon="-7.8678930">
        <ele>225.5</ele>
        <time>2019-08-17T14:54:42Z</time>
      </trkpt>
      <trkpt lat="42.2936510" lon="-7.8679370">
        <ele>225.5</ele>
        <time>2019-08-17T14:54:43Z</time>
      </trkpt>
      <trkpt lat="42.2936820" lon="-7.8679810">
        <ele>225.6</ele>
        <time>2019-08-17T14:54:44Z</time>
      </trkpt>
      <trkpt lat="42.2937130" lon="-7.8680250">
        <ele>225.6</ele>
        <time>2019-08-17T14:54:45Z</time>
      </trkpt>
      <trkpt lat="42.2937450" lon="-7.8680690">
        <ele>225.6</ele>
        <time>2019-08-17T14:54:46Z</time>
      </trkpt>
      <trkpt lat="42.2937760" lon="-7.8681130">
        <ele>225.7</ele>
        <time>2019-08-17T14:54:47Z</time>
      </trkpt>
      <trkpt lat="42.2938080" lon="-7.8681560">
        <ele>225.7</ele>
        <time>2019-08-17T14:54:48Z</time>
      </trkpt>
      <trkpt lat="42.2938390" lon="-7.8682000">
        <ele>225.8</ele>
        <time>2019-08-17T14:54:49Z</time>
      </trkpt>
      <trkpt lat="42.2938710" lon="-7.8682440">
        <ele>225.9</ele>
        <time>2019-08-17T14:54:50Z</time>
      </trkpt>
      <trkpt lat="42.2939030" lon="-7.8682870">
        <ele>225.9</ele>
        <time>2019-08-17T14:54:51Z</time>
      </trkpt>
      <trkpt lat="42.2939350" lon="-7.8683300">
        <ele>226.0</ele>
        <time>2019-08-17T14:54:52Z</time>
      </trkpt>
      <trkpt lat="42.2939680" lon="-7.8683720">
        <ele>226.1</ele>
        <time>2019-08-17T14:54:53Z</time>
      </trkpt>
      <trkpt lat="42.2940000" lon="-7.8684140">
        <ele>226.1</ele>
        <time>2019-08-17T14:54:54Z</time>
      </trkpt>
      <trkpt lat="42.2940320" lon="-7.8684560">
        <ele>226.2</ele>
        <time>2019-08-17T14:54:55Z</time>
      </trkpt>
      <trkpt lat="42.2940650" lon="-7.8684960">
        <ele>226.3</ele>
        <time>2019-08-17T14:54:56Z</time>
      </trkpt>
      <trkpt lat="42.2940970" lon="-7.8685360">
        <ele>226.4</ele>
        <time>2019-08-17T14:54:57Z</time>
      </trkpt>
      <trkpt lat="42.2941290" lon="-7.8685760">
        <ele>226.5</ele>
        <time>2019-08-17T14:54:58Z</time>
      </trkpt>
      <trkpt lat="42.2941620" lon="-7.8686140">
        <ele>226.6</ele>
        <time>2019-08-17T14:54:59Z</time>
      </trkpt>
      <trkpt lat="42.2941940" lon="-7.8686510">
        <ele>226.6</ele>
        <time>2019-08-17T14:55:00Z</time>
      </trkpt>
      <trkpt lat="42.2942270" lon="-7.8686880">
        <ele>226.7</ele>
        <time>2019-08-17T14:55:01Z</time>
      </trkpt>
      <trkpt lat="42.2942590" lon="-7.8687230">
        <ele>226.9</ele>
        <time>2019-08-17T14:55:02Z</time>
      </trkpt>
      <trkpt lat="42.2942920" lon="-7.8687580">
        <ele>227.0</ele>
        <time>2019-08-17T14:55:03Z</time>
      </trkpt>
      <trkpt lat="42.2943240" lon="-7.8687920">
        <ele>227.1</ele>
        <time>2019-08-17T14:55:04Z</time>
      </trkpt>
      <trkpt lat="42.2943570" lon="-7.8688250">
        <ele>227.2</ele>
        <time>2019-08-17T14:55:05Z</time>
      </trkpt>
      <trkpt lat="42.2943900" lon="-7.8688580">
        <ele>227.2</ele>
        <time>2019-08-17T14:55:06Z</time>
      </trkpt>
      <trkpt lat="42.2944230" lon="-7.8688890">
        <ele>227.3</ele>
        <time>2019-08-17T14:55:07Z</time>
      </trkpt>
      <trkpt lat="42.2944560" lon="-7.8689200">
        <ele>227.5</ele>
        <time>2019-08-17T14:55:08Z</time>
      </trkpt>
      <trkpt lat="42.2944890" lon="-7.8689510">
        <ele>227.6</ele>
        <time>2019-08-17T14:55:09Z</time>
      </trkpt>
      <trkpt lat="42.2945230" lon="-7.8689810">
        <ele>227.7</ele>
        <time>2019-08-17T14:55:10Z</time>
      </trkpt>
      <trkpt lat="42.2945560" lon="-7.8690100">
        <ele>227.8</ele>
        <time>2019-08-17T14:55:11Z</time>
      </trkpt>
      <trkpt lat="42.2945900" lon="-7.8690390">
        <ele>227.9</ele>
        <time>2019-08-17T14:55:12Z</time>
      </trkpt>
      <trkpt lat="42.2946240" lon="-7.8690670">
        <ele>228.0</ele>
        <time>2019-08-17T14:55:13Z</time>
      </trkpt>
      <trkpt lat="42.2946580" lon="-7.8690950">
        <ele>228.1</ele>
        <time>2019-08-17T14:55:14Z</time>
      </trkpt>
      <trkpt lat="42.2946930" lon="-7.8691220">
        <ele>228.2</ele>
        <time>2019-08-17T14:55:15Z</time>
      </trkpt>
      <trkpt lat="42.2947270" lon="-7.8691490">
        <ele>228.3</ele>
        <time>2019-08-17T14:55:16Z</time>
      </trkpt>
      <trkpt lat="42.2947630" lon="-7.8691760">
        <ele>228.5</ele>
        <time>2019-08-17T14:55:17Z</time>
      </trkpt>
      <trkpt lat="42.2947980" lon="-7.8692020">
        <ele>228.6</ele>
        <time>2019-08-17T14:55:18Z</time>
      </trkpt>
      <trkpt lat="42.2948340" lon="-7.8692270">
        <ele>228.7</ele>
        <time>2019-08-17T14:55:19Z</time>
      </trkpt>
      <trkpt lat="42.2948700" lon="-7.8692520">
        <ele>228.8</ele>
        <time>2019-08-17T14:55:20Z</time>
      </trkpt>
      <trkpt lat="42.2949070" lon="-7.8692770">
        <ele>228.9</ele>
        <time>2019-08-17T14:55:21Z</time>
      </trkpt>
      <trkpt lat="42.2949450" lon="-7.8693000">
        <ele>229.1</ele>
        <time>2019-08-17T14:55:22Z</time>
      </trkpt>
      <trkpt lat="42.2949820" lon="-7.8693240">
        <ele>229.1</ele>
        <time>2019-08-17T14:55:23Z</time>
      </trkpt>
      <trkpt lat="42.2950210" lon="-7.8693460">
        <ele>229.2</ele>
        <time>2019-08-17T14:55:24Z</time>
      </trkpt>
      <trkpt lat="42.2950600" lon="-7.8693690">
        <ele>229.3</ele>
        <time>2019-08-17T14:55:25Z</time>
      </trkpt>
      <trkpt lat="42.2950990" lon="-7.8693900">
        <ele>229.3</ele>
        <time>2019-08-17T14:55:26Z</time>
      </trkpt>
      <trkpt lat="42.2951400" lon="-7.8694110">
        <ele>229.4</ele>
        <time>2019-08-17T14:55:27Z</time>
      </trkpt>
      <trkpt lat="42.2951800" lon="-7.8694310">
        <ele>229.4</ele>
        <time>2019-08-17T14:55:28Z</time>
      </trkpt>
      <trkpt lat="42.2952220" lon="-7.8694510">
        <ele>229.5</ele>
        <time>2019-08-17T14:55:29Z</time>
      </trkpt>
      <trkpt lat="42.2952640" lon="-7.8694700">
        <ele>229.5</ele>
        <time>2019-08-17T14:55:30Z</time>
      </trkpt>
      <trkpt lat="42.2953070" lon="-7.8694880">
        <ele>229.6</ele>
        <time>2019-08-17T14:55:31Z</time>
      </trkpt>
      <trkpt lat="42.2953510" lon="-7.8695050">
        <ele>229.6</ele>
        <time>2019-08-17T14:55:32Z</time>
      </trkpt>
      <trkpt lat="42.2953940" lon="-7.8695220">
        <ele>229.6</ele>
        <time>2019-08-17T14:55:33Z</time>
      </trkpt>
      <trkpt lat="42.2954390" lon="-7.8695380">
        <ele>229.7</ele>
        <time>2019-08-17T14:55:34Z</time>
      </trkpt>
      <trkpt lat="42.2954840" lon="-7.8695530">
        <ele>229.7</ele>
        <time>2019-08-17T14:55:35Z</time>
      </trkpt>
      <trkpt lat="42.2955290" lon="-7.8695680">
        <ele>229.7</ele>
        <time>2019-08-17T14:55:36Z</time>
      </trkpt>
      <trkpt lat="42.2955740" lon="-7.8695810">
        <ele>229.8</ele>
        <time>2019-08-17T14:55:37Z</time>
      </trkpt>
      <trkpt lat="42.2956190" lon="-7.8695940">
        <ele>229.8</ele>
        <time>2019-08-17T14:55:38Z</time>
      </trkpt>
      <trkpt lat="42.2956650" lon="-7.8696050">
        <ele>229.8</ele>
        <time>2019-08-17T14:55:39Z</time>
      </trkpt>
      <trkpt lat="42.2957110" lon="-7.8696160">
        <ele>229.9</ele>
        <time>2019-08-17T14:55:40Z</time>
      </trkpt>
      <trkpt lat="42.2957570" lon="-7.8696260">
        <ele>229.9</ele>
        <time>2019-08-17T14:55:41Z</time>
      </trkpt>
      <trkpt lat="42.2958030" lon="-7.8696350">
        <ele>229.9</ele>
        <time>2019-08-17T14:55:42Z</time>
      </trkpt>
      <trkpt lat="42.2958490" lon="-7.8696430">
        <ele>230.0</ele>
        <time>2019-08-17T14:55:43Z</time>
      </trkpt>
      <trkpt lat="42.2958950" lon="-7.8696500">
        <ele>230.0</ele>
        <time>2019-08-17T14:55:44Z</time>
      </trkpt>
      <trkpt lat="42.2959410" lon="-7.8696560">
        <ele>230.2</ele>
        <time>2019-08-17T14:55:45Z</time>
      </trkpt>
      <trkpt lat="42.2959870" lon="-7.8696610">
        <ele>230.5</ele>
        <time>2019-08-17T14:55:46Z</time>
      </trkpt>
      <trkpt lat="42.2960330" lon="-7.8696650">
        <ele>230.8</ele>
        <time>2019-08-17T14:55:47Z</time>
      </trkpt>
      <trkpt lat="42.2960790" lon="-7.8696690">
        <ele>231.0</ele>
        <time>2019-08-17T14:55:48Z</time>
      </trkpt>
      <trkpt lat="42.2961250" lon="-7.8696710">
        <ele>231.3</ele>
        <time>2019-08-17T14:55:49Z</time>
      </trkpt>
      <trkpt lat="42.2961720" lon="-7.8696730">
        <ele>231.6</ele>
        <time>2019-08-17T14:55:50Z</time>
      </trkpt>
      <trkpt lat="42.2962200" lon="-7.8696730">
        <ele>231.9</ele>
        <time>2019-08-17T14:55:51Z</time>
      </trkpt>
      <trkpt lat="42.2962670" lon="-7.8696730">
        <ele>232.1</ele>
        <time>2019-08-17T14:55:52Z</time>
      </trkpt>
      <trkpt lat="42.2963140" lon="-7.8696720">
        <ele>232.4</ele>
        <time>2019-08-17T14:55:53Z</time>
      </trkpt>
      <trkpt lat="42.2963630" lon="-7.8696700">
        <ele>232.6</ele>
        <time>2019-08-17T14:55:54Z</time>
      </trkpt>
      <trkpt lat="42.2964110" lon="-7.8696670">
        <ele>232.9</ele>
        <time>2019-08-17T14:55:55Z</time>
      </trkpt>
      <trkpt lat="42.2964600" lon="-7.8696630">
        <ele>233.1</ele>
        <time>2019-08-17T14:55:56Z</time>
      </trkpt>
      <trkpt lat="42.2965100" lon="-7.8696590">
        <ele>233.3</ele>
        <time>2019-08-17T14:55:57Z</time>
      </trkpt>
      <trkpt lat="42.2965600" lon="-7.8696540">
        <ele>233.5</ele>
        <time>2019-08-17T14:55:58Z</time>
      </trkpt>
      <trkpt lat="42.2966110" lon="-7.8696470">
        <ele>233.7</ele>
        <time>2019-08-17T14:55:59Z</time>
      </trkpt>
      <trkpt lat="42.2966620" lon="-7.8696400">
        <ele>233.9</ele>
        <time>2019-08-17T14:56:00Z</time>
      </trkpt>
      <trkpt lat="42.2967130" lon="-7.8696320">
        <ele>234.1</ele>
        <time>2019-08-17T14:56:01Z</time>
      </trkpt>
      <trkpt lat="42.2967630" lon="-7.8696220">
        <ele>234.3</ele>
        <time>2019-08-17T14:56:02Z</time>
      </trkpt>
      <trkpt lat="42.2968140" lon="-7.8696110">
        <ele>234.4</ele>
        <time>2019-08-17T14:56:03Z</time>
      </trkpt>
      <trkpt lat="42.2968640" lon="-7.8695980">
        <ele>234.6</ele>
        <time>2019-08-17T14:56:04Z</time>
      </trkpt>
      <trkpt lat="42.2969130" lon="-7.8695840">
        <ele>234.8</ele>
        <time>2019-08-17T14:56:05Z</time>
      </trkpt>
      <trkpt lat="42.2969630" lon="-7.8695680">
        <ele>234.9</ele>
        <time>2019-08-17T14:56:06Z</time>
      </trkpt>
      <trkpt lat="42.2970120" lon="-7.8695510">
        <ele>235.0</ele>
        <time>2019-08-17T14:56:07Z</time>
      </trkpt>
      <trkpt lat="42.2970610" lon="-7.8695320">
        <ele>235.2</ele>
        <time>2019-08-17T14:56:08Z</time>
      </trkpt>
      <trkpt lat="42.2971120" lon="-7.8695110">
        <ele>235.3</ele>
        <time>2019-08-17T14:56:09Z</time>
      </trkpt>
      <trkpt lat="42.2971630" lon="-7.8694890">
        <ele>235.5</ele>
        <time>2019-08-17T14:56:10Z</time>
      </trkpt>
      <trkpt lat="42.2972160" lon="-7.8694650">
        <ele>235.6</ele>
        <time>2019-08-17T14:56:11Z</time>
      </trkpt>
      <trkpt lat="42.2972710" lon="-7.8694400">
        <ele>235.7</ele>
        <time>2019-08-17T14:56:12Z</time>
      </trkpt>
      <trkpt lat="42.2973270" lon="-7.8694130">
        <ele>235.9</ele>
        <time>2019-08-17T14:56:13Z</time>
      </trkpt>
      <trkpt lat="42.2973850" lon="-7.8693850">
        <ele>235.8</ele>
        <time>2019-08-17T14:56:14Z</time>
      </trkpt>
      <trkpt lat="42.2974430" lon="-7.8693540">
        <ele>235.8</ele>
        <time>2019-08-17T14:56:15Z</time>
      </trkpt>
      <trkpt lat="42.2975010" lon="-7.8693220">
        <ele>235.7</ele>
        <time>2019-08-17T14:56:16Z</time>
      </trkpt>
      <trkpt lat="42.2975590" lon="-7.8692880">
        <ele>235.7</ele>
        <time>2019-08-17T14:56:17Z</time>
      </trkpt>
      <trkpt lat="42.2976180" lon="-7.8692520">
        <ele>235.6</ele>
        <time>2019-08-17T14:56:18Z</time>
      </trkpt>
      <trkpt lat="42.2976750" lon="-7.8692140">
        <ele>235.5</ele>
        <time>2019-08-17T14:56:19Z</time>
      </trkpt>
      <trkpt lat="42.2977310" lon="-7.8691730">
        <ele>235.5</ele>
        <time>2019-08-17T14:56:20Z</time>
      </trkpt>
      <trkpt lat="42.2977870" lon="-7.8691310">
        <ele>235.4</ele>
        <time>2019-08-17T14:56:21Z</time>
      </trkpt>
      <trkpt lat="42.2978410" lon="-7.8690870">
        <ele>235.4</ele>
        <time>2019-08-17T14:56:22Z</time>
      </trkpt>
      <trkpt lat="42.2978960" lon="-7.8690410">
        <ele>235.3</ele>
        <time>2019-08-17T14:56:23Z</time>
      </trkpt>
      <trkpt lat="42.2979500" lon="-7.8689950">
        <ele>235.2</ele>
        <time>2019-08-17T14:56:24Z</time>
      </trkpt>
      <trkpt lat="42.2980040" lon="-7.8689480">
        <ele>235.2</ele>
        <time>2019-08-17T14:56:25Z</time>
      </trkpt>
      <trkpt lat="42.2980590" lon="-7.8689010">
        <ele>235.1</ele>
        <time>2019-08-17T14:56:26Z</time>
      </trkpt>
      <trkpt lat="42.2981140" lon="-7.8688530">
        <ele>235.1</ele>
        <time>2019-08-17T14:56:27Z</time>
      </trkpt>
      <trkpt lat="42.2981690" lon="-7.8688060">
        <ele>235.1</ele>
        <time>2019-08-17T14:56:28Z</time>
      </trkpt>
      <trkpt lat="42.2982260" lon="-7.8687580">
        <ele>235.1</ele>
        <time>2019-08-17T14:56:29Z</time>
      </trkpt>
      <trkpt lat="42.2982830" lon="-7.8687100">
        <ele>234.6</ele>
        <time>2019-08-17T14:56:30Z</time>
      </trkpt>
      <trkpt lat="42.2983410" lon="-7.8686610">
        <ele>234.2</ele>
        <time>2019-08-17T14:56:31Z</time>
      </trkpt>
      <trkpt lat="42.2984010" lon="-7.8686120">
        <ele>233.8</ele>
        <time>2019-08-17T14:56:32Z</time>
      </trkpt>
      <trkpt lat="42.2985040" lon="-7.8685270">
        <ele>233.1</ele>
        <time>2019-08-17T14:56:33Z</time>
      </trkpt>
      <trkpt lat="42.2985460" lon="-7.8684920">
        <ele>232.8</ele>
        <time>2019-08-17T14:56:34Z</time>
      </trkpt>
      <trkpt lat="42.2985880" lon="-7.8684580">
        <ele>232.4</ele>
        <time>2019-08-17T14:56:35Z</time>
      </trkpt>
      <trkpt lat="42.2986530" lon="-7.8684050">
        <ele>231.9</ele>
        <time>2019-08-17T14:56:36Z</time>
      </trkpt>
      <trkpt lat="42.2987200" lon="-7.8683510">
        <ele>231.4</ele>
        <time>2019-08-17T14:56:37Z</time>
      </trkpt>
      <trkpt lat="42.2988370" lon="-7.8682590">
        <ele>230.4</ele>
        <time>2019-08-17T14:56:38Z</time>
      </trkpt>
      <trkpt lat="42.2988840" lon="-7.8682230">
        <ele>230.1</ele>
        <time>2019-08-17T14:56:39Z</time>
      </trkpt>
      <trkpt lat="42.2989320" lon="-7.8681860">
        <ele>229.7</ele>
        <time>2019-08-17T14:56:40Z</time>
      </trkpt>
      <trkpt lat="42.2990070" lon="-7.8681300">
        <ele>229.1</ele>
        <time>2019-08-17T14:56:41Z</time>
      </trkpt>
      <trkpt lat="42.2990840" lon="-7.8680750">
        <ele>228.5</ele>
        <time>2019-08-17T14:56:42Z</time>
      </trkpt>
      <trkpt lat="42.2991630" lon="-7.8680220">
        <ele>227.9</ele>
        <time>2019-08-17T14:56:43Z</time>
      </trkpt>
      <trkpt lat="42.2992450" lon="-7.8679710">
        <ele>227.2</ele>
        <time>2019-08-17T14:56:44Z</time>
      </trkpt>
      <trkpt lat="42.2993290" lon="-7.8679240">
        <ele>227.0</ele>
        <time>2019-08-17T14:56:45Z</time>
      </trkpt>
      <trkpt lat="42.2994150" lon="-7.8678790">
        <ele>226.7</ele>
        <time>2019-08-17T14:56:46Z</time>
      </trkpt>
      <trkpt lat="42.2995010" lon="-7.8678380">
        <ele>226.5</ele>
        <time>2019-08-17T14:56:47Z</time>
      </trkpt>
      <trkpt lat="42.2995860" lon="-7.8677990">
        <ele>226.4</ele>
        <time>2019-08-17T14:56:48Z</time>
      </trkpt>
      <trkpt lat="42.2996690" lon="-7.8677620">
        <ele>226.3</ele>
        <time>2019-08-17T14:56:49Z</time>
      </trkpt>
      <trkpt lat="42.2997510" lon="-7.8677280">
        <ele>226.2</ele>
        <time>2019-08-17T14:56:50Z</time>
      </trkpt>
      <trkpt lat="42.2998340" lon="-7.8676970">
        <ele>226.1</ele>
        <time>2019-08-17T14:56:51Z</time>
      </trkpt>
      <trkpt lat="42.2999180" lon="-7.8676680">
        <ele>225.9</ele>
        <time>2019-08-17T14:56:52Z</time>
      </trkpt>
      <trkpt lat="42.3000040" lon="-7.8676420">
        <ele>225.8</ele>
        <time>2019-08-17T14:56:53Z</time>
      </trkpt>
      <trkpt lat="42.3000940" lon="-7.8676180">
        <ele>225.6</ele>
        <time>2019-08-17T14:56:54Z</time>
      </trkpt>
      <trkpt lat="42.3001860" lon="-7.8675980">
        <ele>225.4</ele>
        <time>2019-08-17T14:56:55Z</time>
      </trkpt>
      <trkpt lat="42.3002810" lon="-7.8675800">
        <ele>225.3</ele>
        <time>2019-08-17T14:56:56Z</time>
      </trkpt>
      <trkpt lat="42.3003780" lon="-7.8675660">
        <ele>225.0</ele>
        <time>2019-08-17T14:56:57Z</time>
      </trkpt>
      <trkpt lat="42.3004770" lon="-7.8675560">
        <ele>224.7</ele>
        <time>2019-08-17T14:56:58Z</time>
      </trkpt>
      <trkpt lat="42.3005780" lon="-7.8675480">
        <ele>224.3</ele>
        <time>2019-08-17T14:56:59Z</time>
      </trkpt>
      <trkpt lat="42.3006800" lon="-7.8675440">
        <ele>224.0</ele>
        <time>2019-08-17T14:57:00Z</time>
      </trkpt>
      <trkpt lat="42.3007830" lon="-7.8675430">
        <ele>223.6</ele>
        <time>2019-08-17T14:57:01Z</time>
      </trkpt>
      <trkpt lat="42.3008870" lon="-7.8675450">
        <ele>223.2</ele>
        <time>2019-08-17T14:57:02Z</time>
      </trkpt>
      <trkpt lat="42.3009910" lon="-7.8675500">
        <ele>222.9</ele>
        <time>2019-08-17T14:57:03Z</time>
      </trkpt>
      <trkpt lat="42.3010960" lon="-7.8675600">
        <ele>222.5</ele>
        <time>2019-08-17T14:57:04Z</time>
      </trkpt>
      <trkpt lat="42.3012000" lon="-7.8675700">
        <ele>222.1</ele>
        <time>2019-08-17T14:57:05Z</time>
      </trkpt>
      <trkpt lat="42.3013050" lon="-7.8675830">
        <ele>221.8</ele>
        <time>2019-08-17T14:57:06Z</time>
      </trkpt>
      <trkpt lat="42.3014100" lon="-7.8675980">
        <ele>221.1</ele>
        <time>2019-08-17T14:57:07Z</time>
      </trkpt>
      <trkpt lat="42.3015150" lon="-7.8676140">
        <ele>219.9</ele>
        <time>2019-08-17T14:57:08Z</time>
      </trkpt>
      <trkpt lat="42.3016200" lon="-7.8676320">
        <ele>218.9</ele>
        <time>2019-08-17T14:57:09Z</time>
      </trkpt>
      <trkpt lat="42.3017250" lon="-7.8676490">
        <ele>217.9</ele>
        <time>2019-08-17T14:57:10Z</time>
      </trkpt>
      <trkpt lat="42.3018310" lon="-7.8676660">
        <ele>216.9</ele>
        <time>2019-08-17T14:57:11Z</time>
      </trkpt>
      <trkpt lat="42.3019360" lon="-7.8676820">
        <ele>216.0</ele>
        <time>2019-08-17T14:57:12Z</time>
      </trkpt>
      <trkpt lat="42.3020410" lon="-7.8676950">
        <ele>215.1</ele>
        <time>2019-08-17T14:57:13Z</time>
      </trkpt>
      <trkpt lat="42.3021450" lon="-7.8677030">
        <ele>214.2</ele>
        <time>2019-08-17T14:57:14Z</time>
      </trkpt>
      <trkpt lat="42.3022480" lon="-7.8677050">
        <ele>213.5</ele>
        <time>2019-08-17T14:57:15Z</time>
      </trkpt>
      <trkpt lat="42.3024180" lon="-7.8676990">
        <ele>212.4</ele>
        <time>2019-08-17T14:57:16Z</time>
      </trkpt>
      <trkpt lat="42.3024850" lon="-7.8676950">
        <ele>212.1</ele>
        <time>2019-08-17T14:57:17Z</time>
      </trkpt>
      <trkpt lat="42.3025530" lon="-7.8676910">
        <ele>211.6</ele>
        <time>2019-08-17T14:57:18Z</time>
      </trkpt>
      <trkpt lat="42.3026540" lon="-7.8676830">
        <ele>210.7</ele>
        <time>2019-08-17T14:57:19Z</time>
      </trkpt>
      <trkpt lat="42.3028080" lon="-7.8676690">
        <ele>208.5</ele>
        <time>2019-08-17T14:57:20Z</time>
      </trkpt>
      <trkpt lat="42.3028600" lon="-7.8676630">
        <ele>207.7</ele>
        <time>2019-08-17T14:57:21Z</time>
      </trkpt>
      <trkpt lat="42.3029630" lon="-7.8676510">
        <ele>206.1</ele>
        <time>2019-08-17T14:57:22Z</time>
      </trkpt>
      <trkpt lat="42.3030670" lon="-7.8676340">
        <ele>204.6</ele>
        <time>2019-08-17T14:57:23Z</time>
      </trkpt>
      <trkpt lat="42.3031710" lon="-7.8676130">
        <ele>203.5</ele>
        <time>2019-08-17T14:57:24Z</time>
      </trkpt>
      <trkpt lat="42.3033280" lon="-7.8675700">
        <ele>201.8</ele>
        <time>2019-08-17T14:57:25Z</time>
      </trkpt>
      <trkpt lat="42.3033800" lon="-7.8675520">
        <ele>201.3</ele>
        <time>2019-08-17T14:57:26Z</time>
      </trkpt>
      <trkpt lat="42.3034840" lon="-7.8675170">
        <ele>200.2</ele>
        <time>2019-08-17T14:57:27Z</time>
      </trkpt>
      <trkpt lat="42.3035880" lon="-7.8674730">
        <ele>199.2</ele>
        <time>2019-08-17T14:57:28Z</time>
      </trkpt>
      <trkpt lat="42.3036900" lon="-7.8674230">
        <ele>198.2</ele>
        <time>2019-08-17T14:57:29Z</time>
      </trkpt>
      <trkpt lat="42.3037920" lon="-7.8673690">
        <ele>197.2</ele>
        <time>2019-08-17T14:57:30Z</time>
      </trkpt>
      <trkpt lat="42.3038920" lon="-7.8673110">
        <ele>196.3</ele>
        <time>2019-08-17T14:57:31Z</time>
      </trkpt>
      <trkpt lat="42.3039900" lon="-7.8672480">
        <ele>195.5</ele>
        <time>2019-08-17T14:57:32Z</time>
      </trkpt>
      <trkpt lat="42.3040870" lon="-7.8671820">
        <ele>194.6</ele>
        <time>2019-08-17T14:57:33Z</time>
      </trkpt>
      <trkpt lat="42.3041810" lon="-7.8671120">
        <ele>193.8</ele>
        <time>2019-08-17T14:57:34Z</time>
      </trkpt>
      <trkpt lat="42.3042750" lon="-7.8670400">
        <ele>193.0</ele>
        <time>2019-08-17T14:57:35Z</time>
      </trkpt>
      <trkpt lat="42.3043680" lon="-7.8669650">
        <ele>192.2</ele>
        <time>2019-08-17T14:57:36Z</time>
      </trkpt>
      <trkpt lat="42.3044600" lon="-7.8668880">
        <ele>191.4</ele>
        <time>2019-08-17T14:57:37Z</time>
      </trkpt>
      <trkpt lat="42.3045510" lon="-7.8668100">
        <ele>190.8</ele>
        <time>2019-08-17T14:57:38Z</time>
      </trkpt>
      <trkpt lat="42.3046430" lon="-7.8667310">
        <ele>190.1</ele>
        <time>2019-08-17T14:57:39Z</time>
      </trkpt>
      <trkpt lat="42.3047360" lon="-7.8666510">
        <ele>189.5</ele>
        <time>2019-08-17T14:57:40Z</time>
      </trkpt>
      <trkpt lat="42.3048290" lon="-7.8665710">
        <ele>189.0</ele>
        <time>2019-08-17T14:57:41Z</time>
      </trkpt>
      <trkpt lat="42.3049220" lon="-7.8664920">
        <ele>188.4</ele>
        <time>2019-08-17T14:57:42Z</time>
      </trkpt>
      <trkpt lat="42.3050170" lon="-7.8664130">
        <ele>187.9</ele>
        <time>2019-08-17T14:57:43Z</time>
      </trkpt>
      <trkpt lat="42.3051120" lon="-7.8663350">
        <ele>187.4</ele>
        <time>2019-08-17T14:57:44Z</time>
      </trkpt>
      <trkpt lat="42.3052090" lon="-7.8662590">
        <ele>186.9</ele>
        <time>2019-08-17T14:57:45Z</time>
      </trkpt>
      <trkpt lat="42.3053070" lon="-7.8661850">
        <ele>186.3</ele>
        <time>2019-08-17T14:57:46Z</time>
      </trkpt>
      <trkpt lat="42.3054060" lon="-7.8661130">
        <ele>185.8</ele>
        <time>2019-08-17T14:57:47Z</time>
      </trkpt>
      <trkpt lat="42.3055060" lon="-7.8660440">
        <ele>185.3</ele>
        <time>2019-08-17T14:57:48Z</time>
      </trkpt>
      <trkpt lat="42.3056070" lon="-7.8659780">
        <ele>184.8</ele>
        <time>2019-08-17T14:57:49Z</time>
      </trkpt>
      <trkpt lat="42.3057100" lon="-7.8659140">
        <ele>184.4</ele>
        <time>2019-08-17T14:57:50Z</time>
      </trkpt>
      <trkpt lat="42.3058130" lon="-7.8658520">
        <ele>183.9</ele>
        <time>2019-08-17T14:57:51Z</time>
      </trkpt>
      <trkpt lat="42.3059170" lon="-7.8657920">
        <ele>183.3</ele>
        <time>2019-08-17T14:57:52Z</time>
      </trkpt>
      <trkpt lat="42.3060220" lon="-7.8657330">
        <ele>182.7</ele>
        <time>2019-08-17T14:57:53Z</time>
      </trkpt>
      <trkpt lat="42.3061270" lon="-7.8656750">
        <ele>182.1</ele>
        <time>2019-08-17T14:57:54Z</time>
      </trkpt>
      <trkpt lat="42.3062320" lon="-7.8656190">
        <ele>181.5</ele>
        <time>2019-08-17T14:57:55Z</time>
      </trkpt>
      <trkpt lat="42.3064080" lon="-7.8655310">
        <ele>180.3</ele>
        <time>2019-08-17T14:57:56Z</time>
      </trkpt>
      <trkpt lat="42.3064790" lon="-7.8654980">
        <ele>179.7</ele>
        <time>2019-08-17T14:57:57Z</time>
      </trkpt>
      <trkpt lat="42.3065500" lon="-7.8654640">
        <ele>179.8</ele>
        <time>2019-08-17T14:57:58Z</time>
      </trkpt>
      <trkpt lat="42.3066560" lon="-7.8654160">
        <ele>179.6</ele>
        <time>2019-08-17T14:57:59Z</time>
      </trkpt>
      <trkpt lat="42.3067640" lon="-7.8653740">
        <ele>179.8</ele>
        <time>2019-08-17T14:58:00Z</time>
      </trkpt>
      <trkpt lat="42.3069460" lon="-7.8653230">
        <ele>179.7</ele>
        <time>2019-08-17T14:58:01Z</time>
      </trkpt>
      <trkpt lat="42.3070190" lon="-7.8653080">
        <ele>179.8</ele>
        <time>2019-08-17T14:58:02Z</time>
      </trkpt>
      <trkpt lat="42.3070930" lon="-7.8652920">
        <ele>179.8</ele>
        <time>2019-08-17T14:58:03Z</time>
      </trkpt>
      <trkpt lat="42.3072040" lon="-7.8652720">
        <ele>180.0</ele>
        <time>2019-08-17T14:58:04Z</time>
      </trkpt>
      <trkpt lat="42.3073150" lon="-7.8652550">
        <ele>180.3</ele>
        <time>2019-08-17T14:58:05Z</time>
      </trkpt>
      <trkpt lat="42.3074270" lon="-7.8652370">
        <ele>180.4</ele>
        <time>2019-08-17T14:58:06Z</time>
      </trkpt>
      <trkpt lat="42.3075380" lon="-7.8652180">
        <ele>180.1</ele>
        <time>2019-08-17T14:58:07Z</time>
      </trkpt>
      <trkpt lat="42.3076490" lon="-7.8651990">
        <ele>179.6</ele>
        <time>2019-08-17T14:58:08Z</time>
      </trkpt>
      <trkpt lat="42.3077590" lon="-7.8651790">
        <ele>179.5</ele>
        <time>2019-08-17T14:58:09Z</time>
      </trkpt>
      <trkpt lat="42.3078680" lon="-7.8651590">
        <ele>179.3</ele>
        <time>2019-08-17T14:58:10Z</time>
      </trkpt>
      <trkpt lat="42.3079760" lon="-7.8651400">
        <ele>179.5</ele>
        <time>2019-08-17T14:58:11Z</time>
      </trkpt>
      <trkpt lat="42.3080820" lon="-7.8651210">
        <ele>179.5</ele>
        <time>2019-08-17T14:58:12Z</time>
      </trkpt>
      <trkpt lat="42.3081870" lon="-7.8651030">
        <ele>179.0</ele>
        <time>2019-08-17T14:58:13Z</time>
      </trkpt>
      <trkpt lat="42.3082900" lon="-7.8650860">
        <ele>178.9</ele>
        <time>2019-08-17T14:58:14Z</time>
      </trkpt>
      <trkpt lat="42.3083910" lon="-7.8650700">
        <ele>178.0</ele>
        <time>2019-08-17T14:58:15Z</time>
      </trkpt>
      <trkpt lat="42.3084890" lon="-7.8650550">
        <ele>177.8</ele>
        <time>2019-08-17T14:58:16Z</time>
      </trkpt>
      <trkpt lat="42.3085850" lon="-7.8650430">
        <ele>177.5</ele>
        <time>2019-08-17T14:58:17Z</time>
      </trkpt>
      <trkpt lat="42.3086780" lon="-7.8650320">
        <ele>177.1</ele>
        <time>2019-08-17T14:58:18Z</time>
      </trkpt>
      <trkpt lat="42.3087700" lon="-7.8650230">
        <ele>176.8</ele>
        <time>2019-08-17T14:58:19Z</time>
      </trkpt>
      <trkpt lat="42.3088590" lon="-7.8650150">
        <ele>176.5</ele>
        <time>2019-08-17T14:58:20Z</time>
      </trkpt>
      <trkpt lat="42.3089470" lon="-7.8650080">
        <ele>176.2</ele>
        <time>2019-08-17T14:58:21Z</time>
      </trkpt>
      <trkpt lat="42.3090330" lon="-7.8650020">
        <ele>175.9</ele>
        <time>2019-08-17T14:58:22Z</time>
      </trkpt>
      <trkpt lat="42.3091190" lon="-7.8649970">
        <ele>175.6</ele>
        <time>2019-08-17T14:58:23Z</time>
      </trkpt>
      <trkpt lat="42.3092030" lon="-7.8649930">
        <ele>175.3</ele>
        <time>2019-08-17T14:58:24Z</time>
      </trkpt>
      <trkpt lat="42.3092860" lon="-7.8649890">
        <ele>175.0</ele>
        <time>2019-08-17T14:58:25Z</time>
      </trkpt>
      <trkpt lat="42.3093680" lon="-7.8649860">
        <ele>174.7</ele>
        <time>2019-08-17T14:58:26Z</time>
      </trkpt>
      <trkpt lat="42.3094490" lon="-7.8649840">
        <ele>174.4</ele>
        <time>2019-08-17T14:58:27Z</time>
      </trkpt>
      <trkpt lat="42.3095300" lon="-7.8649820">
        <ele>174.2</ele>
        <time>2019-08-17T14:58:28Z</time>
      </trkpt>
      <trkpt lat="42.3096090" lon="-7.8649820">
        <ele>173.9</ele>
        <time>2019-08-17T14:58:29Z</time>
      </trkpt>
      <trkpt lat="42.3096880" lon="-7.8649820">
        <ele>173.7</ele>
        <time>2019-08-17T14:58:30Z</time>
      </trkpt>
      <trkpt lat="42.3097670" lon="-7.8649830">
        <ele>173.4</ele>
        <time>2019-08-17T14:58:31Z</time>
      </trkpt>
      <trkpt lat="42.3098450" lon="-7.8649850">
        <ele>173.2</ele>
        <time>2019-08-17T14:58:32Z</time>
      </trkpt>
      <trkpt lat="42.3099220" lon="-7.8649870">
        <ele>172.9</ele>
        <time>2019-08-17T14:58:33Z</time>
      </trkpt>
      <trkpt lat="42.3099980" lon="-7.8649900">
        <ele>172.7</ele>
        <time>2019-08-17T14:58:34Z</time>
      </trkpt>
      <trkpt lat="42.3100730" lon="-7.8649940">
        <ele>172.5</ele>
        <time>2019-08-17T14:58:35Z</time>
      </trkpt>
      <trkpt lat="42.3101470" lon="-7.8649970">
        <ele>172.2</ele>
        <time>2019-08-17T14:58:36Z</time>
      </trkpt>
      <trkpt lat="42.3102190" lon="-7.8650010">
        <ele>172.0</ele>
        <time>2019-08-17T14:58:37Z</time>
      </trkpt>
      <trkpt lat="42.3102910" lon="-7.8650040">
        <ele>171.7</ele>
        <time>2019-08-17T14:58:38Z</time>
      </trkpt>
      <trkpt lat="42.3103610" lon="-7.8650080">
        <ele>171.5</ele>
        <time>2019-08-17T14:58:39Z</time>
      </trkpt>
      <trkpt lat="42.3104300" lon="-7.8650130">
        <ele>171.3</ele>
        <time>2019-08-17T14:58:40Z</time>
      </trkpt>
      <trkpt lat="42.3104990" lon="-7.8650180">
        <ele>171.0</ele>
        <time>2019-08-17T14:58:41Z</time>
      </trkpt>
      <trkpt lat="42.3105670" lon="-7.8650240">
        <ele>170.8</ele>
        <time>2019-08-17T14:58:42Z</time>
      </trkpt>
      <trkpt lat="42.3106350" lon="-7.8650310">
        <ele>170.6</ele>
        <time>2019-08-17T14:58:43Z</time>
      </trkpt>
      <trkpt lat="42.3107040" lon="-7.8650400">
        <ele>170.4</ele>
        <time>2019-08-17T14:58:44Z</time>
      </trkpt>
      <trkpt lat="42.3107730" lon="-7.8650500">
        <ele>170.1</ele>
        <time>2019-08-17T14:58:45Z</time>
      </trkpt>
      <trkpt lat="42.3108420" lon="-7.8650620">
        <ele>169.9</ele>
        <time>2019-08-17T14:58:46Z</time>
      </trkpt>
      <trkpt lat="42.3109130" lon="-7.8650750">
        <ele>170.1</ele>
        <time>2019-08-17T14:58:47Z</time>
      </trkpt>
      <trkpt lat="42.3109830" lon="-7.8650900">
        <ele>170.3</ele>
        <time>2019-08-17T14:58:48Z</time>
      </trkpt>
      <trkpt lat="42.3110540" lon="-7.8651060">
        <ele>170.5</ele>
        <time>2019-08-17T14:58:49Z</time>
      </trkpt>
      <trkpt lat="42.3111250" lon="-7.8651230">
        <ele>170.7</ele>
        <time>2019-08-17T14:58:50Z</time>
      </trkpt>
      <trkpt lat="42.3111960" lon="-7.8651410">
        <ele>170.9</ele>
        <time>2019-08-17T14:58:51Z</time>
      </trkpt>
      <trkpt lat="42.3112670" lon="-7.8651600">
        <ele>171.1</ele>
        <time>2019-08-17T14:58:52Z</time>
      </trkpt>
      <trkpt lat="42.3113380" lon="-7.8651780">
        <ele>171.3</ele>
        <time>2019-08-17T14:58:53Z</time>
      </trkpt>
      <trkpt lat="42.3114080" lon="-7.8651970">
        <ele>171.5</ele>
        <time>2019-08-17T14:58:54Z</time>
      </trkpt>
      <trkpt lat="42.3114780" lon="-7.8652160">
        <ele>171.7</ele>
        <time>2019-08-17T14:58:55Z</time>
      </trkpt>
      <trkpt lat="42.3115460" lon="-7.8652340">
        <ele>171.9</ele>
        <time>2019-08-17T14:58:56Z</time>
      </trkpt>
      <trkpt lat="42.3116140" lon="-7.8652520">
        <ele>172.1</ele>
        <time>2019-08-17T14:58:57Z</time>
      </trkpt>
      <trkpt lat="42.3116800" lon="-7.8652700">
        <ele>172.3</ele>
        <time>2019-08-17T14:58:58Z</time>
      </trkpt>
      <trkpt lat="42.3117440" lon="-7.8652880">
        <ele>172.5</ele>
        <time>2019-08-17T14:58:59Z</time>
      </trkpt>
      <trkpt lat="42.3118080" lon="-7.8653070">
        <ele>172.7</ele>
        <time>2019-08-17T14:59:00Z</time>
      </trkpt>
      <trkpt lat="42.3118700" lon="-7.8653260">
        <ele>172.9</ele>
        <time>2019-08-17T14:59:01Z</time>
      </trkpt>
      <trkpt lat="42.3119310" lon="-7.8653470">
        <ele>173.1</ele>
        <time>2019-08-17T14:59:02Z</time>
      </trkpt>
      <trkpt lat="42.3119920" lon="-7.8653690">
        <ele>173.4</ele>
        <time>2019-08-17T14:59:03Z</time>
      </trkpt>
      <trkpt lat="42.3120530" lon="-7.8653910">
        <ele>173.6</ele>
        <time>2019-08-17T14:59:04Z</time>
      </trkpt>
      <trkpt lat="42.3121160" lon="-7.8654130">
        <ele>173.9</ele>
        <time>2019-08-17T14:59:05Z</time>
      </trkpt>
      <trkpt lat="42.3121780" lon="-7.8654370">
        <ele>174.2</ele>
        <time>2019-08-17T14:59:06Z</time>
      </trkpt>
      <trkpt lat="42.3122410" lon="-7.8654610">
        <ele>174.5</ele>
        <time>2019-08-17T14:59:07Z</time>
      </trkpt>
      <trkpt lat="42.3123030" lon="-7.8654870">
        <ele>174.9</ele>
        <time>2019-08-17T14:59:08Z</time>
      </trkpt>
      <trkpt lat="42.3123640" lon="-7.8655140">
        <ele>175.2</ele>
        <time>2019-08-17T14:59:09Z</time>
      </trkpt>
      <trkpt lat="42.3124250" lon="-7.8655420">
        <ele>175.5</ele>
        <time>2019-08-17T14:59:10Z</time>
      </trkpt>
      <trkpt lat="42.3125230" lon="-7.8655910">
        <ele>176.0</ele>
        <time>2019-08-17T14:59:11Z</time>
      </trkpt>
      <trkpt lat="42.3125610" lon="-7.8656110">
        <ele>176.2</ele>
        <time>2019-08-17T14:59:12Z</time>
      </trkpt>
      <trkpt lat="42.3126000" lon="-7.8656310">
        <ele>176.4</ele>
        <time>2019-08-17T14:59:13Z</time>
      </trkpt>
      <trkpt lat="42.3126560" lon="-7.8656610">
        <ele>176.7</ele>
        <time>2019-08-17T14:59:14Z</time>
      </trkpt>
      <trkpt lat="42.3127100" lon="-7.8656920">
        <ele>177.0</ele>
        <time>2019-08-17T14:59:15Z</time>
      </trkpt>
      <trkpt lat="42.3127980" lon="-7.8657440">
        <ele>177.4</ele>
        <time>2019-08-17T14:59:16Z</time>
      </trkpt>
      <trkpt lat="42.3128320" lon="-7.8657640">
        <ele>177.6</ele>
        <time>2019-08-17T14:59:17Z</time>
      </trkpt>
      <trkpt lat="42.3128660" lon="-7.8657850">
        <ele>178.0</ele>
        <time>2019-08-17T14:59:18Z</time>
      </trkpt>
      <trkpt lat="42.3129160" lon="-7.8658170">
        <ele>177.9</ele>
        <time>2019-08-17T14:59:19Z</time>
      </trkpt>
      <trkpt lat="42.3129660" lon="-7.8658480">
        <ele>177.8</ele>
        <time>2019-08-17T14:59:20Z</time>
      </trkpt>
      <trkpt lat="42.3130140" lon="-7.8658810">
        <ele>177.7</ele>
        <time>2019-08-17T14:59:21Z</time>
      </trkpt>
      <trkpt lat="42.3130620" lon="-7.8659130">
        <ele>177.6</ele>
        <time>2019-08-17T14:59:22Z</time>
      </trkpt>
      <trkpt lat="42.3131100" lon="-7.8659470">
        <ele>177.5</ele>
        <time>2019-08-17T14:59:23Z</time>
      </trkpt>
      <trkpt lat="42.3131580" lon="-7.8659800">
        <ele>177.5</ele>
        <time>2019-08-17T14:59:24Z</time>
      </trkpt>
      <trkpt lat="42.3132050" lon="-7.8660130">
        <ele>177.4</ele>
        <time>2019-08-17T14:59:25Z</time>
      </trkpt>
      <trkpt lat="42.3132520" lon="-7.8660460">
        <ele>177.3</ele>
        <time>2019-08-17T14:59:26Z</time>
      </trkpt>
      <trkpt lat="42.3132980" lon="-7.8660780">
        <ele>177.2</ele>
        <time>2019-08-17T14:59:27Z</time>
      </trkpt>
      <trkpt lat="42.3133430" lon="-7.8661090">
        <ele>177.1</ele>
        <time>2019-08-17T14:59:28Z</time>
      </trkpt>
      <trkpt lat="42.3133870" lon="-7.8661380">
        <ele>177.1</ele>
        <time>2019-08-17T14:59:29Z</time>
      </trkpt>
      <trkpt lat="42.3134310" lon="-7.8661650">
        <ele>177.0</ele>
        <time>2019-08-17T14:59:30Z</time>
      </trkpt>
      <trkpt lat="42.3134740" lon="-7.8661910">
        <ele>176.9</ele>
        <time>2019-08-17T14:59:31Z</time>
      </trkpt>
      <trkpt lat="42.3135160" lon="-7.8662170">
        <ele>176.8</ele>
        <time>2019-08-17T14:59:32Z</time>
      </trkpt>
      <trkpt lat="42.3135580" lon="-7.8662420">
        <ele>176.8</ele>
        <time>2019-08-17T14:59:33Z</time>
      </trkpt>
      <trkpt lat="42.3135990" lon="-7.8662680">
        <ele>176.7</ele>
        <time>2019-08-17T14:59:34Z</time>
      </trkpt>
      <trkpt lat="42.3136410" lon="-7.8662960">
        <ele>176.6</ele>
        <time>2019-08-17T14:59:35Z</time>
      </trkpt>
      <trkpt lat="42.3136820" lon="-7.8663260">
        <ele>176.5</ele>
        <time>2019-08-17T14:59:36Z</time>
      </trkpt>
      <trkpt lat="42.3137230" lon="-7.8663590">
        <ele>176.5</ele>
        <time>2019-08-17T14:59:37Z</time>
      </trkpt>
      <trkpt lat="42.3137650" lon="-7.8663940">
        <ele>176.4</ele>
        <time>2019-08-17T14:59:38Z</time>
      </trkpt>
      <trkpt lat="42.3138060" lon="-7.8664310">
        <ele>176.3</ele>
        <time>2019-08-17T14:59:39Z</time>
      </trkpt>
      <trkpt lat="42.3138470" lon="-7.8664690">
        <ele>176.2</ele>
        <time>2019-08-17T14:59:40Z</time>
      </trkpt>
      <trkpt lat="42.3138870" lon="-7.8665080">
        <ele>176.2</ele>
        <time>2019-08-17T14:59:41Z</time>
      </trkpt>
      <trkpt lat="42.3139270" lon="-7.8665470">
        <ele>176.1</ele>
        <time>2019-08-17T14:59:42Z</time>
      </trkpt>
      <trkpt lat="42.3139670" lon="-7.8665860">
        <ele>176.0</ele>
        <time>2019-08-17T14:59:43Z</time>
      </trkpt>
      <trkpt lat="42.3140060" lon="-7.8666240">
        <ele>175.9</ele>
        <time>2019-08-17T14:59:44Z</time>
      </trkpt>
      <trkpt lat="42.3140440" lon="-7.8666610">
        <ele>175.9</ele>
        <time>2019-08-17T14:59:45Z</time>
      </trkpt>
      <trkpt lat="42.3140810" lon="-7.8666960">
        <ele>175.8</ele>
        <time>2019-08-17T14:59:46Z</time>
      </trkpt>
      <trkpt lat="42.3141180" lon="-7.8667310">
        <ele>175.7</ele>
        <time>2019-08-17T14:59:47Z</time>
      </trkpt>
      <trkpt lat="42.3141550" lon="-7.8667660">
        <ele>175.7</ele>
        <time>2019-08-17T14:59:48Z</time>
      </trkpt>
      <trkpt lat="42.3141920" lon="-7.8668000">
        <ele>175.6</ele>
        <time>2019-08-17T14:59:49Z</time>
      </trkpt>
      <trkpt lat="42.3142280" lon="-7.8668350">
        <ele>175.5</ele>
        <time>2019-08-17T14:59:50Z</time>
      </trkpt>
      <trkpt lat="42.3142650" lon="-7.8668710">
        <ele>175.4</ele>
        <time>2019-08-17T14:59:51Z</time>
      </trkpt>
      <trkpt lat="42.3143030" lon="-7.8669070">
        <ele>175.4</ele>
        <time>2019-08-17T14:59:52Z</time>
      </trkpt>
      <trkpt lat="42.3143410" lon="-7.8669440">
        <ele>175.3</ele>
        <time>2019-08-17T14:59:53Z</time>
      </trkpt>
      <trkpt lat="42.3143790" lon="-7.8669820">
        <ele>175.2</ele>
        <time>2019-08-17T14:59:54Z</time>
      </trkpt>
      <trkpt lat="42.3144180" lon="-7.8670200">
        <ele>175.2</ele>
        <time>2019-08-17T14:59:55Z</time>
      </trkpt>
      <trkpt lat="42.3144570" lon="-7.8670590">
        <ele>175.1</ele>
        <time>2019-08-17T14:59:56Z</time>
      </trkpt>
      <trkpt lat="42.3144970" lon="-7.8670990">
        <ele>175.0</ele>
        <time>2019-08-17T14:59:57Z</time>
      </trkpt>
      <trkpt lat="42.3145370" lon="-7.8671390">
        <ele>175.0</ele>
        <time>2019-08-17T14:59:58Z</time>
      </trkpt>
      <trkpt lat="42.3145780" lon="-7.8671790">
        <ele>175.1</ele>
        <time>2019-08-17T14:59:59Z</time>
      </trkpt>
      <trkpt lat="42.3146190" lon="-7.8672200">
        <ele>175.1</ele>
        <time>2019-08-17T15:00:00Z</time>
      </trkpt>
      <trkpt lat="42.3146600" lon="-7.8672610">
        <ele>175.1</ele>
        <time>2019-08-17T15:00:01Z</time>
      </trkpt>
      <trkpt lat="42.3147010" lon="-7.8673020">
        <ele>175.1</ele>
        <time>2019-08-17T15:00:02Z</time>
      </trkpt>
      <trkpt lat="42.3147440" lon="-7.8673430">
        <ele>175.1</ele>
        <time>2019-08-17T15:00:03Z</time>
      </trkpt>
      <trkpt lat="42.3147860" lon="-7.8673840">
        <ele>175.1</ele>
        <time>2019-08-17T15:00:04Z</time>
      </trkpt>
      <trkpt lat="42.3148290" lon="-7.8674240">
        <ele>175.1</ele>
        <time>2019-08-17T15:00:05Z</time>
      </trkpt>
      <trkpt lat="42.3148720" lon="-7.8674650">
        <ele>175.1</ele>
        <time>2019-08-17T15:00:06Z</time>
      </trkpt>
      <trkpt lat="42.3149150" lon="-7.8675060">
        <ele>175.1</ele>
        <time>2019-08-17T15:00:07Z</time>
      </trkpt>
      <trkpt lat="42.3149580" lon="-7.8675460">
        <ele>175.0</ele>
        <time>2019-08-17T15:00:08Z</time>
      </trkpt>
      <trkpt lat="42.3150020" lon="-7.8675860">
        <ele>174.9</ele>
        <time>2019-08-17T15:00:09Z</time>
      </trkpt>
      <trkpt lat="42.3150450" lon="-7.8676260">
        <ele>174.9</ele>
        <time>2019-08-17T15:00:10Z</time>
      </trkpt>
      <trkpt lat="42.3150880" lon="-7.8676650">
        <ele>174.8</ele>
        <time>2019-08-17T15:00:11Z</time>
      </trkpt>
      <trkpt lat="42.3151310" lon="-7.8677040">
        <ele>174.8</ele>
        <time>2019-08-17T15:00:12Z</time>
      </trkpt>
      <trkpt lat="42.3151740" lon="-7.8677440">
        <ele>174.7</ele>
        <time>2019-08-17T15:00:13Z</time>
      </trkpt>
      <trkpt lat="42.3152160" lon="-7.8677820">
        <ele>174.6</ele>
        <time>2019-08-17T15:00:14Z</time>
      </trkpt>
      <trkpt lat="42.3152580" lon="-7.8678210">
        <ele>174.5</ele>
        <time>2019-08-17T15:00:15Z</time>
      </trkpt>
      <trkpt lat="42.3153010" lon="-7.8678590">
        <ele>174.5</ele>
        <time>2019-08-17T15:00:16Z</time>
      </trkpt>
      <trkpt lat="42.3153430" lon="-7.8678960">
        <ele>174.4</ele>
        <time>2019-08-17T15:00:17Z</time>
      </trkpt>
      <trkpt lat="42.3153870" lon="-7.8679320">
        <ele>174.2</ele>
        <time>2019-08-17T15:00:18Z</time>
      </trkpt>
      <trkpt lat="42.3154310" lon="-7.8679670">
        <ele>174.8</ele>
        <time>2019-08-17T15:00:19Z</time>
      </trkpt>
      <trkpt lat="42.3154770" lon="-7.8680010">
        <ele>175.3</ele>
        <time>2019-08-17T15:00:20Z</time>
      </trkpt>
      <trkpt lat="42.3155240" lon="-7.8680330">
        <ele>175.8</ele>
        <time>2019-08-17T15:00:21Z</time>
      </trkpt>
      <trkpt lat="42.3155720" lon="-7.8680630">
        <ele>176.4</ele>
        <time>2019-08-17T15:00:22Z</time>
      </trkpt>
      <trkpt lat="42.3156220" lon="-7.8680930">
        <ele>176.9</ele>
        <time>2019-08-17T15:00:23Z</time>
      </trkpt>
      <trkpt lat="42.3156720" lon="-7.8681220">
        <ele>177.5</ele>
        <time>2019-08-17T15:00:24Z</time>
      </trkpt>
      <trkpt lat="42.3157230" lon="-7.8681500">
        <ele>178.1</ele>
        <time>2019-08-17T15:00:25Z</time>
      </trkpt>
      <trkpt lat="42.3157750" lon="-7.8681780">
        <ele>179.1</ele>
        <time>2019-08-17T15:00:26Z</time>
      </trkpt>
      <trkpt lat="42.3158270" lon="-7.8682060">
        <ele>179.3</ele>
        <time>2019-08-17T15:00:27Z</time>
      </trkpt>
      <trkpt lat="42.3158790" lon="-7.8682330">
        <ele>179.6</ele>
        <time>2019-08-17T15:00:28Z</time>
      </trkpt>
      <trkpt lat="42.3159310" lon="-7.8682610">
        <ele>179.9</ele>
        <time>2019-08-17T15:00:29Z</time>
      </trkpt>
      <trkpt lat="42.3159830" lon="-7.8682890">
        <ele>180.2</ele>
        <time>2019-08-17T15:00:30Z</time>
      </trkpt>
      <trkpt lat="42.3160350" lon="-7.8683170">
        <ele>180.4</ele>
        <time>2019-08-17T15:00:31Z</time>
      </trkpt>
      <trkpt lat="42.3160880" lon="-7.8683440">
        <ele>180.6</ele>
        <time>2019-08-17T15:00:32Z</time>
      </trkpt>
      <trkpt lat="42.3161410" lon="-7.8683720">
        <ele>180.9</ele>
        <time>2019-08-17T15:00:33Z</time>
      </trkpt>
      <trkpt lat="42.3161940" lon="-7.8683990">
        <ele>181.2</ele>
        <time>2019-08-17T15:00:34Z</time>
      </trkpt>
      <trkpt lat="42.3162470" lon="-7.8684260">
        <ele>181.5</ele>
        <time>2019-08-17T15:00:35Z</time>
      </trkpt>
      <trkpt lat="42.3163020" lon="-7.8684530">
        <ele>181.8</ele>
        <time>2019-08-17T15:00:36Z</time>
      </trkpt>
      <trkpt lat="42.3163560" lon="-7.8684790">
        <ele>182.0</ele>
        <time>2019-08-17T15:00:37Z</time>
      </trkpt>
      <trkpt lat="42.3164110" lon="-7.8685050">
        <ele>182.3</ele>
        <time>2019-08-17T15:00:38Z</time>
      </trkpt>
      <trkpt lat="42.3164670" lon="-7.8685310">
        <ele>182.6</ele>
        <time>2019-08-17T15:00:39Z</time>
      </trkpt>
      <trkpt lat="42.3165230" lon="-7.8685560">
        <ele>182.8</ele>
        <time>2019-08-17T15:00:40Z</time>
      </trkpt>
      <trkpt lat="42.3165790" lon="-7.8685810">
        <ele>183.1</ele>
        <time>2019-08-17T15:00:41Z</time>
      </trkpt>
      <trkpt lat="42.3166360" lon="-7.8686060">
        <ele>182.8</ele>
        <time>2019-08-17T15:00:42Z</time>
      </trkpt>
      <trkpt lat="42.3166930" lon="-7.8686310">
        <ele>182.3</ele>
        <time>2019-08-17T15:00:43Z</time>
      </trkpt>
      <trkpt lat="42.3167510" lon="-7.8686550">
        <ele>181.8</ele>
        <time>2019-08-17T15:00:44Z</time>
      </trkpt>
      <trkpt lat="42.3168090" lon="-7.8686790">
        <ele>181.2</ele>
        <time>2019-08-17T15:00:45Z</time>
      </trkpt>
      <trkpt lat="42.3168680" lon="-7.8687030">
        <ele>180.6</ele>
        <time>2019-08-17T15:00:46Z</time>
      </trkpt>
      <trkpt lat="42.3169270" lon="-7.8687270">
        <ele>179.9</ele>
        <time>2019-08-17T15:00:47Z</time>
      </trkpt>
      <trkpt lat="42.3169870" lon="-7.8687500">
        <ele>179.1</ele>
        <time>2019-08-17T15:00:48Z</time>
      </trkpt>
      <trkpt lat="42.3170470" lon="-7.8687730">
        <ele>178.4</ele>
        <time>2019-08-17T15:00:49Z</time>
      </trkpt>
      <trkpt lat="42.3171080" lon="-7.8687960">
        <ele>177.8</ele>
        <time>2019-08-17T15:00:50Z</time>
      </trkpt>
      <trkpt lat="42.3171690" lon="-7.8688190">
        <ele>177.0</ele>
        <time>2019-08-17T15:00:51Z</time>
      </trkpt>
      <trkpt lat="42.3172310" lon="-7.8688410">
        <ele>176.5</ele>
        <time>2019-08-17T15:00:52Z</time>
      </trkpt>
      <trkpt lat="42.3172930" lon="-7.8688630">
        <ele>176.2</ele>
        <time>2019-08-17T15:00:53Z</time>
      </trkpt>
      <trkpt lat="42.3173560" lon="-7.8688850">
        <ele>175.9</ele>
        <time>2019-08-17T15:00:54Z</time>
      </trkpt>
      <trkpt lat="42.3174200" lon="-7.8689070">
        <ele>175.7</ele>
        <time>2019-08-17T15:00:55Z</time>
      </trkpt>
      <trkpt lat="42.3174850" lon="-7.8689290">
        <ele>175.6</ele>
        <time>2019-08-17T15:00:56Z</time>
      </trkpt>
      <trkpt lat="42.3175510" lon="-7.8689500">
        <ele>175.4</ele>
        <time>2019-08-17T15:00:57Z</time>
      </trkpt>
      <trkpt lat="42.3176170" lon="-7.8689710">
        <ele>175.3</ele>
        <time>2019-08-17T15:00:58Z</time>
      </trkpt>
      <trkpt lat="42.3176850" lon="-7.8689930">
        <ele>175.2</ele>
        <time>2019-08-17T15:00:59Z</time>
      </trkpt>
      <trkpt lat="42.3177530" lon="-7.8690130">
        <ele>175.1</ele>
        <time>2019-08-17T15:01:00Z</time>
      </trkpt>
      <trkpt lat="42.3178230" lon="-7.8690340">
        <ele>175.0</ele>
        <time>2019-08-17T15:01:01Z</time>
      </trkpt>
      <trkpt lat="42.3178940" lon="-7.8690550">
        <ele>174.9</ele>
        <time>2019-08-17T15:01:02Z</time>
      </trkpt>
      <trkpt lat="42.3179660" lon="-7.8690750">
        <ele>174.7</ele>
        <time>2019-08-17T15:01:03Z</time>
      </trkpt>
      <trkpt lat="42.3180390" lon="-7.8690950">
        <ele>174.6</ele>
        <time>2019-08-17T15:01:04Z</time>
      </trkpt>
      <trkpt lat="42.3181140" lon="-7.8691150">
        <ele>174.5</ele>
        <time>2019-08-17T15:01:05Z</time>
      </trkpt>
      <trkpt lat="42.3181900" lon="-7.8691360">
        <ele>174.3</ele>
        <time>2019-08-17T15:01:06Z</time>
      </trkpt>
      <trkpt lat="42.3182660" lon="-7.8691560">
        <ele>174.1</ele>
        <time>2019-08-17T15:01:07Z</time>
      </trkpt>
      <trkpt lat="42.3183440" lon="-7.8691760">
        <ele>174.0</ele>
        <time>2019-08-17T15:01:08Z</time>
      </trkpt>
      <trkpt lat="42.3184230" lon="-7.8691970">
        <ele>173.8</ele>
        <time>2019-08-17T15:01:09Z</time>
      </trkpt>
      <trkpt lat="42.3185020" lon="-7.8692180">
        <ele>173.5</ele>
        <time>2019-08-17T15:01:10Z</time>
      </trkpt>
      <trkpt lat="42.3185810" lon="-7.8692400">
        <ele>173.3</ele>
        <time>2019-08-17T15:01:11Z</time>
      </trkpt>
      <trkpt lat="42.3186610" lon="-7.8692620">
        <ele>173.1</ele>
        <time>2019-08-17T15:01:12Z</time>
      </trkpt>
      <trkpt lat="42.3187410" lon="-7.8692850">
        <ele>172.8</ele>
        <time>2019-08-17T15:01:13Z</time>
      </trkpt>
      <trkpt lat="42.3188210" lon="-7.8693090">
        <ele>172.5</ele>
        <time>2019-08-17T15:01:14Z</time>
      </trkpt>
      <trkpt lat="42.3189020" lon="-7.8693330">
        <ele>172.0</ele>
        <time>2019-08-17T15:01:15Z</time>
      </trkpt>
      <trkpt lat="42.3189840" lon="-7.8693590">
        <ele>171.5</ele>
        <time>2019-08-17T15:01:16Z</time>
      </trkpt>
      <trkpt lat="42.3190680" lon="-7.8693850">
        <ele>171.0</ele>
        <time>2019-08-17T15:01:17Z</time>
      </trkpt>
      <trkpt lat="42.3191530" lon="-7.8694130">
        <ele>170.5</ele>
        <time>2019-08-17T15:01:18Z</time>
      </trkpt>
      <trkpt lat="42.3192400" lon="-7.8694410">
        <ele>170.1</ele>
        <time>2019-08-17T15:01:19Z</time>
      </trkpt>
      <trkpt lat="42.3193290" lon="-7.8694710">
        <ele>169.7</ele>
        <time>2019-08-17T15:01:20Z</time>
      </trkpt>
      <trkpt lat="42.3194190" lon="-7.8695020">
        <ele>169.2</ele>
        <time>2019-08-17T15:01:21Z</time>
      </trkpt>
      <trkpt lat="42.3195110" lon="-7.8695350">
        <ele>168.8</ele>
        <time>2019-08-17T15:01:22Z</time>
      </trkpt>
      <trkpt lat="42.3196040" lon="-7.8695700">
        <ele>168.3</ele>
        <time>2019-08-17T15:01:23Z</time>
      </trkpt>
      <trkpt lat="42.3196980" lon="-7.8696080">
        <ele>167.9</ele>
        <time>2019-08-17T15:01:24Z</time>
      </trkpt>
      <trkpt lat="42.3197920" lon="-7.8696490">
        <ele>167.3</ele>
        <time>2019-08-17T15:01:25Z</time>
      </trkpt>
      <trkpt lat="42.3198850" lon="-7.8696940">
        <ele>166.7</ele>
        <time>2019-08-17T15:01:26Z</time>
      </trkpt>
      <trkpt lat="42.3199780" lon="-7.8697420">
        <ele>166.1</ele>
        <time>2019-08-17T15:01:27Z</time>
      </trkpt>
      <trkpt lat="42.3200710" lon="-7.8697940">
        <ele>165.5</ele>
        <time>2019-08-17T15:01:28Z</time>
      </trkpt>
      <trkpt lat="42.3201630" lon="-7.8698500">
        <ele>165.1</ele>
        <time>2019-08-17T15:01:29Z</time>
      </trkpt>
      <trkpt lat="42.3202560" lon="-7.8699080">
        <ele>164.6</ele>
        <time>2019-08-17T15:01:30Z</time>
      </trkpt>
      <trkpt lat="42.3203480" lon="-7.8699700">
        <ele>164.1</ele>
        <time>2019-08-17T15:01:31Z</time>
      </trkpt>
      <trkpt lat="42.3204410" lon="-7.8700350">
        <ele>163.4</ele>
        <time>2019-08-17T15:01:32Z</time>
      </trkpt>
      <trkpt lat="42.3205350" lon="-7.8701030">
        <ele>162.9</ele>
        <time>2019-08-17T15:01:33Z</time>
      </trkpt>
      <trkpt lat="42.3206290" lon="-7.8701740">
        <ele>162.4</ele>
        <time>2019-08-17T15:01:34Z</time>
      </trkpt>
      <trkpt lat="42.3207240" lon="-7.8702470">
        <ele>161.9</ele>
        <time>2019-08-17T15:01:35Z</time>
      </trkpt>
      <trkpt lat="42.3208200" lon="-7.8703230">
        <ele>161.2</ele>
        <time>2019-08-17T15:01:36Z</time>
      </trkpt>
      <trkpt lat="42.3209150" lon="-7.8704010">
        <ele>160.4</ele>
        <time>2019-08-17T15:01:37Z</time>
      </trkpt>
      <trkpt lat="42.3210100" lon="-7.8704830">
        <ele>159.7</ele>
        <time>2019-08-17T15:01:38Z</time>
      </trkpt>
      <trkpt lat="42.3211050" lon="-7.8705660">
        <ele>159.0</ele>
        <time>2019-08-17T15:01:39Z</time>
      </trkpt>
      <trkpt lat="42.3211990" lon="-7.8706530">
        <ele>158.4</ele>
        <time>2019-08-17T15:01:40Z</time>
      </trkpt>
      <trkpt lat="42.3212920" lon="-7.8707420">
        <ele>157.8</ele>
        <time>2019-08-17T15:01:41Z</time>
      </trkpt>
      <trkpt lat="42.3213850" lon="-7.8708340">
        <ele>157.2</ele>
        <time>2019-08-17T15:01:42Z</time>
      </trkpt>
      <trkpt lat="42.3214760" lon="-7.8709290">
        <ele>156.5</ele>
        <time>2019-08-17T15:01:43Z</time>
      </trkpt>
      <trkpt lat="42.3215660" lon="-7.8710260">
        <ele>155.8</ele>
        <time>2019-08-17T15:01:44Z</time>
      </trkpt>
      <trkpt lat="42.3216540" lon="-7.8711250">
        <ele>154.9</ele>
        <time>2019-08-17T15:01:45Z</time>
      </trkpt>
      <trkpt lat="42.3217420" lon="-7.8712260">
        <ele>153.9</ele>
        <time>2019-08-17T15:01:46Z</time>
      </trkpt>
      <trkpt lat="42.3218280" lon="-7.8713300">
        <ele>152.7</ele>
        <time>2019-08-17T15:01:47Z</time>
      </trkpt>
      <trkpt lat="42.3219130" lon="-7.8714350">
        <ele>151.4</ele>
        <time>2019-08-17T15:01:48Z</time>
      </trkpt>
      <trkpt lat="42.3219970" lon="-7.8715410">
        <ele>150.0</ele>
        <time>2019-08-17T15:01:49Z</time>
      </trkpt>
      <trkpt lat="42.3220790" lon="-7.8716490">
        <ele>148.5</ele>
        <time>2019-08-17T15:01:50Z</time>
      </trkpt>
      <trkpt lat="42.3221600" lon="-7.8717580">
        <ele>147.0</ele>
        <time>2019-08-17T15:01:51Z</time>
      </trkpt>
      <trkpt lat="42.3222390" lon="-7.8718680">
        <ele>145.4</ele>
        <time>2019-08-17T15:01:52Z</time>
      </trkpt>
      <trkpt lat="42.3223160" lon="-7.8719780">
        <ele>143.7</ele>
        <time>2019-08-17T15:01:53Z</time>
      </trkpt>
      <trkpt lat="42.3223900" lon="-7.8720890">
        <ele>142.0</ele>
        <time>2019-08-17T15:01:54Z</time>
      </trkpt>
      <trkpt lat="42.3224620" lon="-7.8722000">
        <ele>140.3</ele>
        <time>2019-08-17T15:01:55Z</time>
      </trkpt>
      <trkpt lat="42.3225310" lon="-7.8723110">
        <ele>138.6</ele>
        <time>2019-08-17T15:01:56Z</time>
      </trkpt>
      <trkpt lat="42.3225980" lon="-7.8724210">
        <ele>136.9</ele>
        <time>2019-08-17T15:01:57Z</time>
      </trkpt>
      <trkpt lat="42.3226620" lon="-7.8725310">
        <ele>135.3</ele>
        <time>2019-08-17T15:01:58Z</time>
      </trkpt>
      <trkpt lat="42.3227240" lon="-7.8726400">
        <ele>133.7</ele>
        <time>2019-08-17T15:01:59Z</time>
      </trkpt>
      <trkpt lat="42.3227830" lon="-7.8727470">
        <ele>132.2</ele>
        <time>2019-08-17T15:02:00Z</time>
      </trkpt>
      <trkpt lat="42.3228390" lon="-7.8728540">
        <ele>130.8</ele>
        <time>2019-08-17T15:02:01Z</time>
      </trkpt>
      <trkpt lat="42.3228940" lon="-7.8729580">
        <ele>129.5</ele>
        <time>2019-08-17T15:02:02Z</time>
      </trkpt>
      <trkpt lat="42.3229450" lon="-7.8730610">
        <ele>128.4</ele>
        <time>2019-08-17T15:02:03Z</time>
      </trkpt>
      <trkpt lat="42.3229950" lon="-7.8731620">
        <ele>127.4</ele>
        <time>2019-08-17T15:02:04Z</time>
      </trkpt>
      <trkpt lat="42.3230430" lon="-7.8732610">
        <ele>126.4</ele>
        <time>2019-08-17T15:02:05Z</time>
      </trkpt>
      <trkpt lat="42.3230880" lon="-7.8733590">
        <ele>125.6</ele>
        <time>2019-08-17T15:02:06Z</time>
      </trkpt>
      <trkpt lat="42.3231320" lon="-7.8734540">
        <ele>124.9</ele>
        <time>2019-08-17T15:02:07Z</time>
      </trkpt>
      <trkpt lat="42.3231740" lon="-7.8735480">
        <ele>124.4</ele>
        <time>2019-08-17T15:02:08Z</time>
      </trkpt>
      <trkpt lat="42.3232150" lon="-7.8736410">
        <ele>124.0</ele>
        <time>2019-08-17T15:02:09Z</time>
      </trkpt>
      <trkpt lat="42.3232540" lon="-7.8737310">
        <ele>123.7</ele>
        <time>2019-08-17T15:02:10Z</time>
      </trkpt>
      <trkpt lat="42.3232930" lon="-7.8738200">
        <ele>123.6</ele>
        <time>2019-08-17T15:02:11Z</time>
      </trkpt>
      <trkpt lat="42.3233300" lon="-7.8739080">
        <ele>123.4</ele>
        <time>2019-08-17T15:02:12Z</time>
      </trkpt>
      <trkpt lat="42.3233660" lon="-7.8739950">
        <ele>123.4</ele>
        <time>2019-08-17T15:02:13Z</time>
      </trkpt>
      <trkpt lat="42.3234010" lon="-7.8740800">
        <ele>123.4</ele>
        <time>2019-08-17T15:02:14Z</time>
      </trkpt>
      <trkpt lat="42.3234340" lon="-7.8741640">
        <ele>123.4</ele>
        <time>2019-08-17T15:02:15Z</time>
      </trkpt>
      <trkpt lat="42.3234670" lon="-7.8742480">
        <ele>123.4</ele>
        <time>2019-08-17T15:02:16Z</time>
      </trkpt>
      <trkpt lat="42.3234990" lon="-7.8743310">
        <ele>123.5</ele>
        <time>2019-08-17T15:02:17Z</time>
      </trkpt>
      <trkpt lat="42.3235290" lon="-7.8744130">
        <ele>123.1</ele>
        <time>2019-08-17T15:02:18Z</time>
      </trkpt>
      <trkpt lat="42.3235590" lon="-7.8744950">
        <ele>122.7</ele>
        <time>2019-08-17T15:02:19Z</time>
      </trkpt>
      <trkpt lat="42.3235880" lon="-7.8745760">
        <ele>122.3</ele>
        <time>2019-08-17T15:02:20Z</time>
      </trkpt>
      <trkpt lat="42.3236160" lon="-7.8746560">
        <ele>121.9</ele>
        <time>2019-08-17T15:02:21Z</time>
      </trkpt>
      <trkpt lat="42.3236430" lon="-7.8747340">
        <ele>121.9</ele>
        <time>2019-08-17T15:02:22Z</time>
      </trkpt>
      <trkpt lat="42.3236700" lon="-7.8748110">
        <ele>121.9</ele>
        <time>2019-08-17T15:02:23Z</time>
      </trkpt>
      <trkpt lat="42.3236960" lon="-7.8748860">
        <ele>121.9</ele>
        <time>2019-08-17T15:02:24Z</time>
      </trkpt>
      <trkpt lat="42.3237220" lon="-7.8749590">
        <ele>122.0</ele>
        <time>2019-08-17T15:02:25Z</time>
      </trkpt>
      <trkpt lat="42.3237470" lon="-7.8750300">
        <ele>122.1</ele>
        <time>2019-08-17T15:02:26Z</time>
      </trkpt>
      <trkpt lat="42.3237720" lon="-7.8750990">
        <ele>122.2</ele>
        <time>2019-08-17T15:02:27Z</time>
      </trkpt>
      <trkpt lat="42.3237970" lon="-7.8751670">
        <ele>122.3</ele>
        <time>2019-08-17T15:02:28Z</time>
      </trkpt>
      <trkpt lat="42.3238210" lon="-7.8752350">
        <ele>122.4</ele>
        <time>2019-08-17T15:02:29Z</time>
      </trkpt>
      <trkpt lat="42.3238450" lon="-7.8753010">
        <ele>122.5</ele>
        <time>2019-08-17T15:02:30Z</time>
      </trkpt>
      <trkpt lat="42.3238690" lon="-7.8753680">
        <ele>122.7</ele>
        <time>2019-08-17T15:02:31Z</time>
      </trkpt>
      <trkpt lat="42.3238920" lon="-7.8754340">
        <ele>122.8</ele>
        <time>2019-08-17T15:02:32Z</time>
      </trkpt>
      <trkpt lat="42.3239150" lon="-7.8755000">
        <ele>123.0</ele>
        <time>2019-08-17T15:02:33Z</time>
      </trkpt>
      <trkpt lat="42.3239390" lon="-7.8755670">
        <ele>123.1</ele>
        <time>2019-08-17T15:02:34Z</time>
      </trkpt>
      <trkpt lat="42.3239620" lon="-7.8756330">
        <ele>123.2</ele>
        <time>2019-08-17T15:02:35Z</time>
      </trkpt>
      <trkpt lat="42.3239850" lon="-7.8756990">
        <ele>123.4</ele>
        <time>2019-08-17T15:02:36Z</time>
      </trkpt>
      <trkpt lat="42.3240070" lon="-7.8757640">
        <ele>123.5</ele>
        <time>2019-08-17T15:02:37Z</time>
      </trkpt>
      <trkpt lat="42.3240300" lon="-7.8758300">
        <ele>123.6</ele>
        <time>2019-08-17T15:02:38Z</time>
      </trkpt>
      <trkpt lat="42.3240530" lon="-7.8758950">
        <ele>123.8</ele>
        <time>2019-08-17T15:02:39Z</time>
      </trkpt>
      <trkpt lat="42.3240770" lon="-7.8759600">
        <ele>123.9</ele>
        <time>2019-08-17T15:02:40Z</time>
      </trkpt>
      <trkpt lat="42.3241000" lon="-7.8760250">
        <ele>124.1</ele>
        <time>2019-08-17T15:02:41Z</time>
      </trkpt>
      <trkpt lat="42.3241230" lon="-7.8760890">
        <ele>124.3</ele>
        <time>2019-08-17T15:02:42Z</time>
      </trkpt>
      <trkpt lat="42.3241470" lon="-7.8761530">
        <ele>124.5</ele>
        <time>2019-08-17T15:02:43Z</time>
      </trkpt>
      <trkpt lat="42.3241700" lon="-7.8762150">
        <ele>124.7</ele>
        <time>2019-08-17T15:02:44Z</time>
      </trkpt>
      <trkpt lat="42.3241920" lon="-7.8762770">
        <ele>124.9</ele>
        <time>2019-08-17T15:02:45Z</time>
      </trkpt>
      <trkpt lat="42.3242150" lon="-7.8763380">
        <ele>125.1</ele>
        <time>2019-08-17T15:02:46Z</time>
      </trkpt>
      <trkpt lat="42.3242370" lon="-7.8763970">
        <ele>125.3</ele>
        <time>2019-08-17T15:02:47Z</time>
      </trkpt>
      <trkpt lat="42.3242590" lon="-7.8764560">
        <ele>125.5</ele>
        <time>2019-08-17T15:02:48Z</time>
      </trkpt>
      <trkpt lat="42.3242810" lon="-7.8765130">
        <ele>125.7</ele>
        <time>2019-08-17T15:02:49Z</time>
      </trkpt>
      <trkpt lat="42.3243020" lon="-7.8765700">
        <ele>125.9</ele>
        <time>2019-08-17T15:02:50Z</time>
      </trkpt>
      <trkpt lat="42.3243230" lon="-7.8766260">
        <ele>126.1</ele>
        <time>2019-08-17T15:02:51Z</time>
      </trkpt>
      <trkpt lat="42.3243440" lon="-7.8766830">
        <ele>126.3</ele>
        <time>2019-08-17T15:02:52Z</time>
      </trkpt>
      <trkpt lat="42.3243650" lon="-7.8767390">
        <ele>126.5</ele>
        <time>2019-08-17T15:02:53Z</time>
      </trkpt>
      <trkpt lat="42.3243860" lon="-7.8767950">
        <ele>126.7</ele>
        <time>2019-08-17T15:02:54Z</time>
      </trkpt>
      <trkpt lat="42.3244060" lon="-7.8768520">
        <ele>126.9</ele>
        <time>2019-08-17T15:02:55Z</time>
      </trkpt>
      <trkpt lat="42.3244270" lon="-7.8769090">
        <ele>127.0</ele>
        <time>2019-08-17T15:02:56Z</time>
      </trkpt>
      <trkpt lat="42.3244470" lon="-7.8769660">
        <ele>127.2</ele>
        <time>2019-08-17T15:02:57Z</time>
      </trkpt>
      <trkpt lat="42.3244670" lon="-7.8770230">
        <ele>127.4</ele>
        <time>2019-08-17T15:02:58Z</time>
      </trkpt>
      <trkpt lat="42.3244870" lon="-7.8770800">
        <ele>127.6</ele>
        <time>2019-08-17T15:02:59Z</time>
      </trkpt>
      <trkpt lat="42.3245080" lon="-7.8771370">
        <ele>127.8</ele>
        <time>2019-08-17T15:03:00Z</time>
      </trkpt>
      <trkpt lat="42.3245280" lon="-7.8771930">
        <ele>128.0</ele>
        <time>2019-08-17T15:03:01Z</time>
      </trkpt>
      <trkpt lat="42.3245480" lon="-7.8772490">
        <ele>128.1</ele>
        <time>2019-08-17T15:03:02Z</time>
      </trkpt>
      <trkpt lat="42.3245680" lon="-7.8773040">
        <ele>128.4</ele>
        <time>2019-08-17T15:03:03Z</time>
      </trkpt>
      <trkpt lat="42.3245890" lon="-7.8773590">
        <ele>128.7</ele>
        <time>2019-08-17T15:03:04Z</time>
      </trkpt>
      <trkpt lat="42.3246090" lon="-7.8774130">
        <ele>129.2</ele>
        <time>2019-08-17T15:03:05Z</time>
      </trkpt>
      <trkpt lat="42.3246300" lon="-7.8774660">
        <ele>129.7</ele>
        <time>2019-08-17T15:03:06Z</time>
      </trkpt>
      <trkpt lat="42.3246500" lon="-7.8775190">
        <ele>130.1</ele>
        <time>2019-08-17T15:03:07Z</time>
      </trkpt>
      <trkpt lat="42.3246710" lon="-7.8775710">
        <ele>130.6</ele>
        <time>2019-08-17T15:03:08Z</time>
      </trkpt>
      <trkpt lat="42.3246920" lon="-7.8776230">
        <ele>131.0</ele>
        <time>2019-08-17T15:03:09Z</time>
      </trkpt>
      <trkpt lat="42.3247130" lon="-7.8776740">
        <ele>131.6</ele>
        <time>2019-08-17T15:03:10Z</time>
      </trkpt>
      <trkpt lat="42.3247340" lon="-7.8777240">
        <ele>132.4</ele>
        <time>2019-08-17T15:03:11Z</time>
      </trkpt>
      <trkpt lat="42.3247560" lon="-7.8777740">
        <ele>133.1</ele>
        <time>2019-08-17T15:03:12Z</time>
      </trkpt>
      <trkpt lat="42.3247770" lon="-7.8778230">
        <ele>133.6</ele>
        <time>2019-08-17T15:03:13Z</time>
      </trkpt>
      <trkpt lat="42.3247990" lon="-7.8778710">
        <ele>134.0</ele>
        <time>2019-08-17T15:03:14Z</time>
      </trkpt>
      <trkpt lat="42.3248200" lon="-7.8779190">
        <ele>134.4</ele>
        <time>2019-08-17T15:03:15Z</time>
      </trkpt>
      <trkpt lat="42.3248430" lon="-7.8779660">
        <ele>134.8</ele>
        <time>2019-08-17T15:03:16Z</time>
      </trkpt>
      <trkpt lat="42.3248650" lon="-7.8780120">
        <ele>135.1</ele>
        <time>2019-08-17T15:03:17Z</time>
      </trkpt>
      <trkpt lat="42.3248870" lon="-7.8780570">
        <ele>135.5</ele>
        <time>2019-08-17T15:03:18Z</time>
      </trkpt>
      <trkpt lat="42.3249100" lon="-7.8781010">
        <ele>135.9</ele>
        <time>2019-08-17T15:03:19Z</time>
      </trkpt>
      <trkpt lat="42.3249330" lon="-7.8781450">
        <ele>136.3</ele>
        <time>2019-08-17T15:03:20Z</time>
      </trkpt>
      <trkpt lat="42.3249570" lon="-7.8781870">
        <ele>136.6</ele>
        <time>2019-08-17T15:03:21Z</time>
      </trkpt>
      <trkpt lat="42.3249810" lon="-7.8782290">
        <ele>137.0</ele>
        <time>2019-08-17T15:03:22Z</time>
      </trkpt>
      <trkpt lat="42.3250050" lon="-7.8782690">
        <ele>137.3</ele>
        <time>2019-08-17T15:03:23Z</time>
      </trkpt>
      <trkpt lat="42.3250300" lon="-7.8783080">
        <ele>137.6</ele>
        <time>2019-08-17T15:03:24Z</time>
      </trkpt>
      <trkpt lat="42.3250560" lon="-7.8783470">
        <ele>138.0</ele>
        <time>2019-08-17T15:03:25Z</time>
      </trkpt>
      <trkpt lat="42.3250820" lon="-7.8783830">
        <ele>138.3</ele>
        <time>2019-08-17T15:03:26Z</time>
      </trkpt>
      <trkpt lat="42.3251090" lon="-7.8784190">
        <ele>138.7</ele>
        <time>2019-08-17T15:03:27Z</time>
      </trkpt>
      <trkpt lat="42.3251370" lon="-7.8784530">
        <ele>139.0</ele>
        <time>2019-08-17T15:03:28Z</time>
      </trkpt>
      <trkpt lat="42.3251650" lon="-7.8784860">
        <ele>139.4</ele>
        <time>2019-08-17T15:03:29Z</time>
      </trkpt>
      <trkpt lat="42.3251940" lon="-7.8785170">
        <ele>139.7</ele>
        <time>2019-08-17T15:03:30Z</time>
      </trkpt>
      <trkpt lat="42.3252240" lon="-7.8785480">
        <ele>140.1</ele>
        <time>2019-08-17T15:03:31Z</time>
      </trkpt>
      <trkpt lat="42.3252540" lon="-7.8785770">
        <ele>140.5</ele>
        <time>2019-08-17T15:03:32Z</time>
      </trkpt>
      <trkpt lat="42.3252830" lon="-7.8786070">
        <ele>140.9</ele>
        <time>2019-08-17T15:03:33Z</time>
      </trkpt>
      <trkpt lat="42.3253120" lon="-7.8786390">
        <ele>141.3</ele>
        <time>2019-08-17T15:03:34Z</time>
      </trkpt>
      <trkpt lat="42.3253380" lon="-7.8786730">
        <ele>141.7</ele>
        <time>2019-08-17T15:03:35Z</time>
      </trkpt>
      <trkpt lat="42.3253630" lon="-7.8787080">
        <ele>142.1</ele>
        <time>2019-08-17T15:03:36Z</time>
      </trkpt>
      <trkpt lat="42.3253880" lon="-7.8787440">
        <ele>142.3</ele>
        <time>2019-08-17T15:03:37Z</time>
      </trkpt>
      <trkpt lat="42.3254130" lon="-7.8787790">
        <ele>142.6</ele>
        <time>2019-08-17T15:03:38Z</time>
      </trkpt>
      <trkpt lat="42.3254390" lon="-7.8788120">
        <ele>142.8</ele>
        <time>2019-08-17T15:03:39Z</time>
      </trkpt>
      <trkpt lat="42.3254660" lon="-7.8788440">
        <ele>143.0</ele>
        <time>2019-08-17T15:03:40Z</time>
      </trkpt>
      <trkpt lat="42.3254940" lon="-7.8788750">
        <ele>143.2</ele>
        <time>2019-08-17T15:03:41Z</time>
      </trkpt>
      <trkpt lat="42.3255230" lon="-7.8789050">
        <ele>143.4</ele>
        <time>2019-08-17T15:03:42Z</time>
      </trkpt>
      <trkpt lat="42.3255520" lon="-7.8789350">
        <ele>143.6</ele>
        <time>2019-08-17T15:03:43Z</time>
      </trkpt>
      <trkpt lat="42.3255820" lon="-7.8789650">
        <ele>143.7</ele>
        <time>2019-08-17T15:03:44Z</time>
      </trkpt>
      <trkpt lat="42.3256120" lon="-7.8789950">
        <ele>144.0</ele>
        <time>2019-08-17T15:03:45Z</time>
      </trkpt>
      <trkpt lat="42.3256430" lon="-7.8790260">
        <ele>144.1</ele>
        <time>2019-08-17T15:03:46Z</time>
      </trkpt>
      <trkpt lat="42.3256740" lon="-7.8790570">
        <ele>144.3</ele>
        <time>2019-08-17T15:03:47Z</time>
      </trkpt>
      <trkpt lat="42.3257060" lon="-7.8790880">
        <ele>144.6</ele>
        <time>2019-08-17T15:03:48Z</time>
      </trkpt>
      <trkpt lat="42.3257370" lon="-7.8791190">
        <ele>144.9</ele>
        <time>2019-08-17T15:03:49Z</time>
      </trkpt>
      <trkpt lat="42.3257680" lon="-7.8791500">
        <ele>145.1</ele>
        <time>2019-08-17T15:03:50Z</time>
      </trkpt>
      <trkpt lat="42.3257990" lon="-7.8791790">
        <ele>145.4</ele>
        <time>2019-08-17T15:03:51Z</time>
      </trkpt>
      <trkpt lat="42.3258300" lon="-7.8792080">
        <ele>145.6</ele>
        <time>2019-08-17T15:03:52Z</time>
      </trkpt>
      <trkpt lat="42.3258610" lon="-7.8792350">
        <ele>145.9</ele>
        <time>2019-08-17T15:03:53Z</time>
      </trkpt>
      <trkpt lat="42.3258910" lon="-7.8792600">
        <ele>146.1</ele>
        <time>2019-08-17T15:03:54Z</time>
      </trkpt>
      <trkpt lat="42.3259210" lon="-7.8792850">
        <ele>146.4</ele>
        <time>2019-08-17T15:03:55Z</time>
      </trkpt>
      <trkpt lat="42.3259510" lon="-7.8793090">
        <ele>146.6</ele>
        <time>2019-08-17T15:03:56Z</time>
      </trkpt>
      <trkpt lat="42.3259820" lon="-7.8793320">
        <ele>146.9</ele>
        <time>2019-08-17T15:03:57Z</time>
      </trkpt>
      <trkpt lat="42.3260120" lon="-7.8793550">
        <ele>147.2</ele>
        <time>2019-08-17T15:03:58Z</time>
      </trkpt>
      <trkpt lat="42.3260430" lon="-7.8793780">
        <ele>147.4</ele>
        <time>2019-08-17T15:03:59Z</time>
      </trkpt>
      <trkpt lat="42.3260750" lon="-7.8794010">
        <ele>147.7</ele>
        <time>2019-08-17T15:04:00Z</time>
      </trkpt>
      <trkpt lat="42.3261070" lon="-7.8794240">
        <ele>148.1</ele>
        <time>2019-08-17T15:04:01Z</time>
      </trkpt>
      <trkpt lat="42.3261400" lon="-7.8794470">
        <ele>148.5</ele>
        <time>2019-08-17T15:04:02Z</time>
      </trkpt>
      <trkpt lat="42.3261740" lon="-7.8794690">
        <ele>148.8</ele>
        <time>2019-08-17T15:04:03Z</time>
      </trkpt>
      <trkpt lat="42.3262080" lon="-7.8794900">
        <ele>149.3</ele>
        <time>2019-08-17T15:04:04Z</time>
      </trkpt>
      <trkpt lat="42.3262420" lon="-7.8795100">
        <ele>149.8</ele>
        <time>2019-08-17T15:04:05Z</time>
      </trkpt>
      <trkpt lat="42.3262770" lon="-7.8795290">
        <ele>150.3</ele>
        <time>2019-08-17T15:04:06Z</time>
      </trkpt>
      <trkpt lat="42.3263120" lon="-7.8795460">
        <ele>150.8</ele>
        <time>2019-08-17T15:04:07Z</time>
      </trkpt>
      <trkpt lat="42.3263470" lon="-7.8795610">
        <ele>151.4</ele>
        <time>2019-08-17T15:04:08Z</time>
      </trkpt>
      <trkpt lat="42.3263830" lon="-7.8795740">
        <ele>151.9</ele>
        <time>2019-08-17T15:04:09Z</time>
      </trkpt>
      <trkpt lat="42.3264190" lon="-7.8795860">
        <ele>152.5</ele>
        <time>2019-08-17T15:04:10Z</time>
      </trkpt>
      <trkpt lat="42.3264550" lon="-7.8795960">
        <ele>153.0</ele>
        <time>2019-08-17T15:04:11Z</time>
      </trkpt>
      <trkpt lat="42.3264910" lon="-7.8796060">
        <ele>154.0</ele>
        <time>2019-08-17T15:04:12Z</time>
      </trkpt>
      <trkpt lat="42.3265280" lon="-7.8796140">
        <ele>154.6</ele>
        <time>2019-08-17T15:04:13Z</time>
      </trkpt>
      <trkpt lat="42.3265640" lon="-7.8796220">
        <ele>155.3</ele>
        <time>2019-08-17T15:04:14Z</time>
      </trkpt>
      <trkpt lat="42.3266010" lon="-7.8796290">
        <ele>155.9</ele>
        <time>2019-08-17T15:04:15Z</time>
      </trkpt>
      <trkpt lat="42.3266380" lon="-7.8796350">
        <ele>156.5</ele>
        <time>2019-08-17T15:04:16Z</time>
      </trkpt>
      <trkpt lat="42.3266750" lon="-7.8796410">
        <ele>157.1</ele>
        <time>2019-08-17T15:04:17Z</time>
      </trkpt>
      <trkpt lat="42.3267120" lon="-7.8796470">
        <ele>157.7</ele>
        <time>2019-08-17T15:04:18Z</time>
      </trkpt>
      <trkpt lat="42.3267490" lon="-7.8796520">
        <ele>158.4</ele>
        <time>2019-08-17T15:04:19Z</time>
      </trkpt>
      <trkpt lat="42.3267870" lon="-7.8796560">
        <ele>159.0</ele>
        <time>2019-08-17T15:04:20Z</time>
      </trkpt>
      <trkpt lat="42.3268240" lon="-7.8796590">
        <ele>160.4</ele>
        <time>2019-08-17T15:04:21Z</time>
      </trkpt>
      <trkpt lat="42.3268630" lon="-7.8796620">
        <ele>160.8</ele>
        <time>2019-08-17T15:04:22Z</time>
      </trkpt>
      <trkpt lat="42.3269010" lon="-7.8796640">
        <ele>161.1</ele>
        <time>2019-08-17T15:04:23Z</time>
      </trkpt>
      <trkpt lat="42.3269400" lon="-7.8796650">
        <ele>161.5</ele>
        <time>2019-08-17T15:04:24Z</time>
      </trkpt>
      <trkpt lat="42.3269790" lon="-7.8796650">
        <ele>161.9</ele>
        <time>2019-08-17T15:04:25Z</time>
      </trkpt>
      <trkpt lat="42.3270190" lon="-7.8796640">
        <ele>162.2</ele>
        <time>2019-08-17T15:04:26Z</time>
      </trkpt>
      <trkpt lat="42.3270600" lon="-7.8796620">
        <ele>162.6</ele>
        <time>2019-08-17T15:04:27Z</time>
      </trkpt>
      <trkpt lat="42.3271000" lon="-7.8796590">
        <ele>162.9</ele>
        <time>2019-08-17T15:04:28Z</time>
      </trkpt>
      <trkpt lat="42.3271410" lon="-7.8796550">
        <ele>163.3</ele>
        <time>2019-08-17T15:04:29Z</time>
      </trkpt>
      <trkpt lat="42.3271830" lon="-7.8796500">
        <ele>163.6</ele>
        <time>2019-08-17T15:04:30Z</time>
      </trkpt>
      <trkpt lat="42.3272240" lon="-7.8796440">
        <ele>164.0</ele>
        <time>2019-08-17T15:04:31Z</time>
      </trkpt>
      <trkpt lat="42.3272660" lon="-7.8796380">
        <ele>164.3</ele>
        <time>2019-08-17T15:04:32Z</time>
      </trkpt>
      <trkpt lat="42.3273080" lon="-7.8796310">
        <ele>164.6</ele>
        <time>2019-08-17T15:04:33Z</time>
      </trkpt>
      <trkpt lat="42.3273490" lon="-7.8796240">
        <ele>165.0</ele>
        <time>2019-08-17T15:04:34Z</time>
      </trkpt>
      <trkpt lat="42.3273890" lon="-7.8796160">
        <ele>165.2</ele>
        <time>2019-08-17T15:04:35Z</time>
      </trkpt>
      <trkpt lat="42.3274290" lon="-7.8796080">
        <ele>165.5</ele>
        <time>2019-08-17T15:04:36Z</time>
      </trkpt>
      <trkpt lat="42.3274680" lon="-7.8795990">
        <ele>165.9</ele>
        <time>2019-08-17T15:04:37Z</time>
      </trkpt>
      <trkpt lat="42.3275060" lon="-7.8795910">
        <ele>166.2</ele>
        <time>2019-08-17T15:04:38Z</time>
      </trkpt>
      <trkpt lat="42.3275430" lon="-7.8795810">
        <ele>166.6</ele>
        <time>2019-08-17T15:04:39Z</time>
      </trkpt>
      <trkpt lat="42.3275800" lon="-7.8795700">
        <ele>166.9</ele>
        <time>2019-08-17T15:04:40Z</time>
      </trkpt>
      <trkpt lat="42.3276160" lon="-7.8795580">
        <ele>167.2</ele>
        <time>2019-08-17T15:04:41Z</time>
      </trkpt>
      <trkpt lat="42.3276530" lon="-7.8795440">
        <ele>167.5</ele>
        <time>2019-08-17T15:04:42Z</time>
      </trkpt>
      <trkpt lat="42.3276910" lon="-7.8795300">
        <ele>167.8</ele>
        <time>2019-08-17T15:04:43Z</time>
      </trkpt>
      <trkpt lat="42.3277330" lon="-7.8795160">
        <ele>168.0</ele>
        <time>2019-08-17T15:04:44Z</time>
      </trkpt>
      <trkpt lat="42.3277760" lon="-7.8795020">
        <ele>168.3</ele>
        <time>2019-08-17T15:04:45Z</time>
      </trkpt>
      <trkpt lat="42.3278190" lon="-7.8794880">
        <ele>168.6</ele>
        <time>2019-08-17T15:04:46Z</time>
      </trkpt>
      <trkpt lat="42.3278600" lon="-7.8794730">
        <ele>168.8</ele>
        <time>2019-08-17T15:04:47Z</time>
      </trkpt>
      <trkpt lat="42.3278970" lon="-7.8794570">
        <ele>169.1</ele>
        <time>2019-08-17T15:04:48Z</time>
      </trkpt>
      <trkpt lat="42.3279320" lon="-7.8794410">
        <ele>169.3</ele>
        <time>2019-08-17T15:04:49Z</time>
      </trkpt>
      <trkpt lat="42.3279650" lon="-7.8794230">
        <ele>169.5</ele>
        <time>2019-08-17T15:04:50Z</time>
      </trkpt>
      <trkpt lat="42.3279970" lon="-7.8794050">
        <ele>169.7</ele>
        <time>2019-08-17T15:04:51Z</time>
      </trkpt>
      <trkpt lat="42.3280290" lon="-7.8793860">
        <ele>170.0</ele>
        <time>2019-08-17T15:04:52Z</time>
      </trkpt>
      <trkpt lat="42.3280610" lon="-7.8793670">
        <ele>170.2</ele>
        <time>2019-08-17T15:04:53Z</time>
      </trkpt>
      <trkpt lat="42.3280930" lon="-7.8793470">
        <ele>170.4</ele>
        <time>2019-08-17T15:04:54Z</time>
      </trkpt>
      <trkpt lat="42.3281250" lon="-7.8793260">
        <ele>170.6</ele>
        <time>2019-08-17T15:04:55Z</time>
      </trkpt>
      <trkpt lat="42.3281570" lon="-7.8793050">
        <ele>170.9</ele>
        <time>2019-08-17T15:04:56Z</time>
      </trkpt>
      <trkpt lat="42.3281880" lon="-7.8792830">
        <ele>171.1</ele>
        <time>2019-08-17T15:04:57Z</time>
      </trkpt>
      <trkpt lat="42.3282180" lon="-7.8792610">
        <ele>171.3</ele>
        <time>2019-08-17T15:04:58Z</time>
      </trkpt>
      <trkpt lat="42.3282480" lon="-7.8792390">
        <ele>171.5</ele>
        <time>2019-08-17T15:04:59Z</time>
      </trkpt>
      <trkpt lat="42.3282770" lon="-7.8792170">
        <ele>171.8</ele>
        <time>2019-08-17T15:05:00Z</time>
      </trkpt>
      <trkpt lat="42.3283060" lon="-7.8791950">
        <ele>172.0</ele>
        <time>2019-08-17T15:05:01Z</time>
      </trkpt>
      <trkpt lat="42.3283350" lon="-7.8791720">
        <ele>172.2</ele>
        <time>2019-08-17T15:05:02Z</time>
      </trkpt>
      <trkpt lat="42.3283650" lon="-7.8791500">
        <ele>172.4</ele>
        <time>2019-08-17T15:05:03Z</time>
      </trkpt>
      <trkpt lat="42.3283940" lon="-7.8791260">
        <ele>172.6</ele>
        <time>2019-08-17T15:05:04Z</time>
      </trkpt>
      <trkpt lat="42.3284250" lon="-7.8791030">
        <ele>172.9</ele>
        <time>2019-08-17T15:05:05Z</time>
      </trkpt>
      <trkpt lat="42.3284570" lon="-7.8790790">
        <ele>173.1</ele>
        <time>2019-08-17T15:05:06Z</time>
      </trkpt>
      <trkpt lat="42.3285130" lon="-7.8790390">
        <ele>173.5</ele>
        <time>2019-08-17T15:05:07Z</time>
      </trkpt>
      <trkpt lat="42.3285370" lon="-7.8790220">
        <ele>173.7</ele>
        <time>2019-08-17T15:05:08Z</time>
      </trkpt>
      <trkpt lat="42.3285600" lon="-7.8790060">
        <ele>173.9</ele>
        <time>2019-08-17T15:05:09Z</time>
      </trkpt>
      <trkpt lat="42.3285950" lon="-7.8789810">
        <ele>174.2</ele>
        <time>2019-08-17T15:05:10Z</time>
      </trkpt>
      <trkpt lat="42.3286300" lon="-7.8789570">
        <ele>174.5</ele>
        <time>2019-08-17T15:05:11Z</time>
      </trkpt>
      <trkpt lat="42.3286870" lon="-7.8789160">
        <ele>174.9</ele>
        <time>2019-08-17T15:05:12Z</time>
      </trkpt>
      <trkpt lat="42.3287090" lon="-7.8789010">
        <ele>175.1</ele>
        <time>2019-08-17T15:05:13Z</time>
      </trkpt>
      <trkpt lat="42.3287310" lon="-7.8788850">
        <ele>175.3</ele>
        <time>2019-08-17T15:05:14Z</time>
      </trkpt>
      <trkpt lat="42.3287630" lon="-7.8788620">
        <ele>175.5</ele>
        <time>2019-08-17T15:05:15Z</time>
      </trkpt>
      <trkpt lat="42.3287950" lon="-7.8788400">
        <ele>175.8</ele>
        <time>2019-08-17T15:05:16Z</time>
      </trkpt>
      <trkpt lat="42.3288260" lon="-7.8788170">
        <ele>176.1</ele>
        <time>2019-08-17T15:05:17Z</time>
      </trkpt>
      <trkpt lat="42.3288580" lon="-7.8787940">
        <ele>176.3</ele>
        <time>2019-08-17T15:05:18Z</time>
      </trkpt>
      <trkpt lat="42.3288900" lon="-7.8787710">
        <ele>176.6</ele>
        <time>2019-08-17T15:05:19Z</time>
      </trkpt>
      <trkpt lat="42.3289230" lon="-7.8787470">
        <ele>176.9</ele>
        <time>2019-08-17T15:05:20Z</time>
      </trkpt>
      <trkpt lat="42.3289580" lon="-7.8787230">
        <ele>177.2</ele>
        <time>2019-08-17T15:05:21Z</time>
      </trkpt>
      <trkpt lat="42.3289940" lon="-7.8786990">
        <ele>177.5</ele>
        <time>2019-08-17T15:05:22Z</time>
      </trkpt>
      <trkpt lat="42.3290310" lon="-7.8786740">
        <ele>177.8</ele>
        <time>2019-08-17T15:05:23Z</time>
      </trkpt>
      <trkpt lat="42.3290680" lon="-7.8786490">
        <ele>178.1</ele>
        <time>2019-08-17T15:05:24Z</time>
      </trkpt>
      <trkpt lat="42.3291040" lon="-7.8786250">
        <ele>178.4</ele>
        <time>2019-08-17T15:05:25Z</time>
      </trkpt>
      <trkpt lat="42.3291410" lon="-7.8786000">
        <ele>178.8</ele>
        <time>2019-08-17T15:05:26Z</time>
      </trkpt>
      <trkpt lat="42.3291760" lon="-7.8785770">
        <ele>179.1</ele>
        <time>2019-08-17T15:05:27Z</time>
      </trkpt>
      <trkpt lat="42.3292100" lon="-7.8785540">
        <ele>179.4</ele>
        <time>2019-08-17T15:05:28Z</time>
      </trkpt>
      <trkpt lat="42.3292440" lon="-7.8785320">
        <ele>179.6</ele>
        <time>2019-08-17T15:05:29Z</time>
      </trkpt>
      <trkpt lat="42.3292760" lon="-7.8785110">
        <ele>179.9</ele>
        <time>2019-08-17T15:05:30Z</time>
      </trkpt>
      <trkpt lat="42.3293090" lon="-7.8784900">
        <ele>180.2</ele>
        <time>2019-08-17T15:05:31Z</time>
      </trkpt>
      <trkpt lat="42.3293420" lon="-7.8784690">
        <ele>180.4</ele>
        <time>2019-08-17T15:05:32Z</time>
      </trkpt>
      <trkpt lat="42.3293750" lon="-7.8784490">
        <ele>180.7</ele>
        <time>2019-08-17T15:05:33Z</time>
      </trkpt>
      <trkpt lat="42.3294090" lon="-7.8784300">
        <ele>180.9</ele>
        <time>2019-08-17T15:05:34Z</time>
      </trkpt>
      <trkpt lat="42.3294440" lon="-7.8784100">
        <ele>181.2</ele>
        <time>2019-08-17T15:05:35Z</time>
      </trkpt>
      <trkpt lat="42.3294810" lon="-7.8783910">
        <ele>181.5</ele>
        <time>2019-08-17T15:05:36Z</time>
      </trkpt>
      <trkpt lat="42.3295190" lon="-7.8783720">
        <ele>181.7</ele>
        <time>2019-08-17T15:05:37Z</time>
      </trkpt>
      <trkpt lat="42.3295580" lon="-7.8783540">
        <ele>182.0</ele>
        <time>2019-08-17T15:05:38Z</time>
      </trkpt>
      <trkpt lat="42.3295980" lon="-7.8783360">
        <ele>182.3</ele>
        <time>2019-08-17T15:05:39Z</time>
      </trkpt>
      <trkpt lat="42.3296380" lon="-7.8783180">
        <ele>182.6</ele>
        <time>2019-08-17T15:05:40Z</time>
      </trkpt>
      <trkpt lat="42.3296780" lon="-7.8783010">
        <ele>182.9</ele>
        <time>2019-08-17T15:05:41Z</time>
      </trkpt>
      <trkpt lat="42.3297190" lon="-7.8782840">
        <ele>183.2</ele>
        <time>2019-08-17T15:05:42Z</time>
      </trkpt>
      <trkpt lat="42.3297590" lon="-7.8782680">
        <ele>183.5</ele>
        <time>2019-08-17T15:05:43Z</time>
      </trkpt>
      <trkpt lat="42.3298000" lon="-7.8782530">
        <ele>183.8</ele>
        <time>2019-08-17T15:05:44Z</time>
      </trkpt>
      <trkpt lat="42.3298410" lon="-7.8782380">
        <ele>184.1</ele>
        <time>2019-08-17T15:05:45Z</time>
      </trkpt>
      <trkpt lat="42.3298820" lon="-7.8782240">
        <ele>184.4</ele>
        <time>2019-08-17T15:05:46Z</time>
      </trkpt>
      <trkpt lat="42.3299250" lon="-7.8782100">
        <ele>184.8</ele>
        <time>2019-08-17T15:05:47Z</time>
      </trkpt>
      <trkpt lat="42.3299680" lon="-7.8781960">
        <ele>185.1</ele>
        <time>2019-08-17T15:05:48Z</time>
      </trkpt>
      <trkpt lat="42.3300130" lon="-7.8781830">
        <ele>185.5</ele>
        <time>2019-08-17T15:05:49Z</time>
      </trkpt>
      <trkpt lat="42.3300600" lon="-7.8781710">
        <ele>185.8</ele>
        <time>2019-08-17T15:05:50Z</time>
      </trkpt>
      <trkpt lat="42.3301080" lon="-7.8781580">
        <ele>185.1</ele>
        <time>2019-08-17T15:05:51Z</time>
      </trkpt>
      <trkpt lat="42.3301570" lon="-7.8781460">
        <ele>184.4</ele>
        <time>2019-08-17T15:05:52Z</time>
      </trkpt>
      <trkpt lat="42.3302070" lon="-7.8781350">
        <ele>183.7</ele>
        <time>2019-08-17T15:05:53Z</time>
      </trkpt>
      <trkpt lat="42.3302580" lon="-7.8781240">
        <ele>183.0</ele>
        <time>2019-08-17T15:05:54Z</time>
      </trkpt>
      <trkpt lat="42.3303090" lon="-7.8781140">
        <ele>182.3</ele>
        <time>2019-08-17T15:05:55Z</time>
      </trkpt>
      <trkpt lat="42.3303600" lon="-7.8781050">
        <ele>181.6</ele>
        <time>2019-08-17T15:05:56Z</time>
      </trkpt>
      <trkpt lat="42.3304110" lon="-7.8780960">
        <ele>180.9</ele>
        <time>2019-08-17T15:05:57Z</time>
      </trkpt>
      <trkpt lat="42.3304620" lon="-7.8780890">
        <ele>180.0</ele>
        <time>2019-08-17T15:05:58Z</time>
      </trkpt>
      <trkpt lat="42.3305120" lon="-7.8780820">
        <ele>180.1</ele>
        <time>2019-08-17T15:05:59Z</time>
      </trkpt>
      <trkpt lat="42.3305630" lon="-7.8780760">
        <ele>180.2</ele>
        <time>2019-08-17T15:06:00Z</time>
      </trkpt>
      <trkpt lat="42.3306140" lon="-7.8780720">
        <ele>180.3</ele>
        <time>2019-08-17T15:06:01Z</time>
      </trkpt>
      <trkpt lat="42.3306650" lon="-7.8780680">
        <ele>180.4</ele>
        <time>2019-08-17T15:06:02Z</time>
      </trkpt>
      <trkpt lat="42.3307170" lon="-7.8780650">
        <ele>180.5</ele>
        <time>2019-08-17T15:06:03Z</time>
      </trkpt>
      <trkpt lat="42.3307690" lon="-7.8780630">
        <ele>180.6</ele>
        <time>2019-08-17T15:06:04Z</time>
      </trkpt>
      <trkpt lat="42.3308210" lon="-7.8780620">
        <ele>180.6</ele>
        <time>2019-08-17T15:06:05Z</time>
      </trkpt>
      <trkpt lat="42.3308750" lon="-7.8780620">
        <ele>180.7</ele>
        <time>2019-08-17T15:06:06Z</time>
      </trkpt>
      <trkpt lat="42.3309290" lon="-7.8780630">
        <ele>180.8</ele>
        <time>2019-08-17T15:06:07Z</time>
      </trkpt>
      <trkpt lat="42.3309840" lon="-7.8780660">
        <ele>180.8</ele>
        <time>2019-08-17T15:06:08Z</time>
      </trkpt>
      <trkpt lat="42.3310390" lon="-7.8780700">
        <ele>180.9</ele>
        <time>2019-08-17T15:06:09Z</time>
      </trkpt>
      <trkpt lat="42.3310960" lon="-7.8780750">
        <ele>180.9</ele>
        <time>2019-08-17T15:06:10Z</time>
      </trkpt>
      <trkpt lat="42.3311540" lon="-7.8780830">
        <ele>180.9</ele>
        <time>2019-08-17T15:06:11Z</time>
      </trkpt>
      <trkpt lat="42.3312130" lon="-7.8780920">
        <ele>180.9</ele>
        <time>2019-08-17T15:06:12Z</time>
      </trkpt>
      <trkpt lat="42.3312720" lon="-7.8781030">
        <ele>180.8</ele>
        <time>2019-08-17T15:06:13Z</time>
      </trkpt>
      <trkpt lat="42.3313320" lon="-7.8781160">
        <ele>180.7</ele>
        <time>2019-08-17T15:06:14Z</time>
      </trkpt>
      <trkpt lat="42.3313920" lon="-7.8781310">
        <ele>180.5</ele>
        <time>2019-08-17T15:06:15Z</time>
      </trkpt>
      <trkpt lat="42.3314530" lon="-7.8781470">
        <ele>180.3</ele>
        <time>2019-08-17T15:06:16Z</time>
      </trkpt>
      <trkpt lat="42.3315130" lon="-7.8781650">
        <ele>180.0</ele>
        <time>2019-08-17T15:06:17Z</time>
      </trkpt>
      <trkpt lat="42.3315730" lon="-7.8781860">
        <ele>179.7</ele>
        <time>2019-08-17T15:06:18Z</time>
      </trkpt>
      <trkpt lat="42.3316320" lon="-7.8782080">
        <ele>179.4</ele>
        <time>2019-08-17T15:06:19Z</time>
      </trkpt>
      <trkpt lat="42.3316900" lon="-7.8782310">
        <ele>179.0</ele>
        <time>2019-08-17T15:06:20Z</time>
      </trkpt>
      <trkpt lat="42.3317480" lon="-7.8782570">
        <ele>178.6</ele>
        <time>2019-08-17T15:06:21Z</time>
      </trkpt>
      <trkpt lat="42.3318060" lon="-7.8782850">
        <ele>178.2</ele>
        <time>2019-08-17T15:06:22Z</time>
      </trkpt>
      <trkpt lat="42.3318650" lon="-7.8783150">
        <ele>177.7</ele>
        <time>2019-08-17T15:06:23Z</time>
      </trkpt>
      <trkpt lat="42.3319230" lon="-7.8783460">
        <ele>177.2</ele>
        <time>2019-08-17T15:06:24Z</time>
      </trkpt>
      <trkpt lat="42.3319830" lon="-7.8783810">
        <ele>176.6</ele>
        <time>2019-08-17T15:06:25Z</time>
      </trkpt>
      <trkpt lat="42.3320430" lon="-7.8784170">
        <ele>176.0</ele>
        <time>2019-08-17T15:06:26Z</time>
      </trkpt>
      <trkpt lat="42.3321040" lon="-7.8784550">
        <ele>175.4</ele>
        <time>2019-08-17T15:06:27Z</time>
      </trkpt>
      <trkpt lat="42.3321660" lon="-7.8784940">
        <ele>174.8</ele>
        <time>2019-08-17T15:06:28Z</time>
      </trkpt>
      <trkpt lat="42.3322290" lon="-7.8785320">
        <ele>174.1</ele>
        <time>2019-08-17T15:06:29Z</time>
      </trkpt>
      <trkpt lat="42.3322930" lon="-7.8785690">
        <ele>173.5</ele>
        <time>2019-08-17T15:06:30Z</time>
      </trkpt>
      <trkpt lat="42.3323560" lon="-7.8786060">
        <ele>172.8</ele>
        <time>2019-08-17T15:06:31Z</time>
      </trkpt>
      <trkpt lat="42.3324200" lon="-7.8786450">
        <ele>172.1</ele>
        <time>2019-08-17T15:06:32Z</time>
      </trkpt>
      <trkpt lat="42.3324830" lon="-7.8786850">
        <ele>171.4</ele>
        <time>2019-08-17T15:06:33Z</time>
      </trkpt>
      <trkpt lat="42.3325450" lon="-7.8787280">
        <ele>170.5</ele>
        <time>2019-08-17T15:06:34Z</time>
      </trkpt>
      <trkpt lat="42.3326060" lon="-7.8787730">
        <ele>169.4</ele>
        <time>2019-08-17T15:06:35Z</time>
      </trkpt>
      <trkpt lat="42.3326680" lon="-7.8788210">
        <ele>168.4</ele>
        <time>2019-08-17T15:06:36Z</time>
      </trkpt>
      <trkpt lat="42.3327290" lon="-7.8788720">
        <ele>167.6</ele>
        <time>2019-08-17T15:06:37Z</time>
      </trkpt>
      <trkpt lat="42.3327910" lon="-7.8789240">
        <ele>166.7</ele>
        <time>2019-08-17T15:06:38Z</time>
      </trkpt>
      <trkpt lat="42.3328540" lon="-7.8789790">
        <ele>165.6</ele>
        <time>2019-08-17T15:06:39Z</time>
      </trkpt>
      <trkpt lat="42.3329180" lon="-7.8790340">
        <ele>164.3</ele>
        <time>2019-08-17T15:06:40Z</time>
      </trkpt>
      <trkpt lat="42.3329850" lon="-7.8790920">
        <ele>163.0</ele>
        <time>2019-08-17T15:06:41Z</time>
      </trkpt>
      <trkpt lat="42.3330530" lon="-7.8791500">
        <ele>162.0</ele>
        <time>2019-08-17T15:06:42Z</time>
      </trkpt>
      <trkpt lat="42.3331220" lon="-7.8792100">
        <ele>161.0</ele>
        <time>2019-08-17T15:06:43Z</time>
      </trkpt>
      <trkpt lat="42.3331930" lon="-7.8792700">
        <ele>159.6</ele>
        <time>2019-08-17T15:06:44Z</time>
      </trkpt>
      <trkpt lat="42.3332650" lon="-7.8793300">
        <ele>158.1</ele>
        <time>2019-08-17T15:06:45Z</time>
      </trkpt>
      <trkpt lat="42.3333390" lon="-7.8793910">
        <ele>156.8</ele>
        <time>2019-08-17T15:06:46Z</time>
      </trkpt>
      <trkpt lat="42.3334130" lon="-7.8794510">
        <ele>155.5</ele>
        <time>2019-08-17T15:06:47Z</time>
      </trkpt>
      <trkpt lat="42.3335370" lon="-7.8795500">
        <ele>153.9</ele>
        <time>2019-08-17T15:06:48Z</time>
      </trkpt>
      <trkpt lat="42.3335880" lon="-7.8795900">
        <ele>153.5</ele>
        <time>2019-08-17T15:06:49Z</time>
      </trkpt>
      <trkpt lat="42.3336380" lon="-7.8796290">
        <ele>153.1</ele>
        <time>2019-08-17T15:06:50Z</time>
      </trkpt>
      <trkpt lat="42.3337150" lon="-7.8796860">
        <ele>152.5</ele>
        <time>2019-08-17T15:06:51Z</time>
      </trkpt>
      <trkpt lat="42.3337930" lon="-7.8797420">
        <ele>152.0</ele>
        <time>2019-08-17T15:06:52Z</time>
      </trkpt>
      <trkpt lat="42.3339260" lon="-7.8798280">
        <ele>151.1</ele>
        <time>2019-08-17T15:06:53Z</time>
      </trkpt>
      <trkpt lat="42.3339800" lon="-7.8798600">
        <ele>150.8</ele>
        <time>2019-08-17T15:06:54Z</time>
      </trkpt>
      <trkpt lat="42.3340340" lon="-7.8798930">
        <ele>150.5</ele>
        <time>2019-08-17T15:06:55Z</time>
      </trkpt>
      <trkpt lat="42.3341180" lon="-7.8799370">
        <ele>150.0</ele>
        <time>2019-08-17T15:06:56Z</time>
      </trkpt>
      <trkpt lat="42.3342030" lon="-7.8799780">
        <ele>149.6</ele>
        <time>2019-08-17T15:06:57Z</time>
      </trkpt>
      <trkpt lat="42.3342900" lon="-7.8800150">
        <ele>149.2</ele>
        <time>2019-08-17T15:06:58Z</time>
      </trkpt>
      <trkpt lat="42.3343790" lon="-7.8800480">
        <ele>148.7</ele>
        <time>2019-08-17T15:06:59Z</time>
      </trkpt>
      <trkpt lat="42.3344680" lon="-7.8800780">
        <ele>148.3</ele>
        <time>2019-08-17T15:07:00Z</time>
      </trkpt>
      <trkpt lat="42.3345590" lon="-7.8801040">
        <ele>147.9</ele>
        <time>2019-08-17T15:07:01Z</time>
      </trkpt>
      <trkpt lat="42.3346510" lon="-7.8801260">
        <ele>147.7</ele>
        <time>2019-08-17T15:07:02Z</time>
      </trkpt>
      <trkpt lat="42.3347430" lon="-7.8801440">
        <ele>147.4</ele>
        <time>2019-08-17T15:07:03Z</time>
      </trkpt>
      <trkpt lat="42.3348370" lon="-7.8801580">
        <ele>147.2</ele>
        <time>2019-08-17T15:07:04Z</time>
      </trkpt>
      <trkpt lat="42.3349310" lon="-7.8801680">
        <ele>146.9</ele>
        <time>2019-08-17T15:07:05Z</time>
      </trkpt>
      <trkpt lat="42.3350260" lon="-7.8801740">
        <ele>146.7</ele>
        <time>2019-08-17T15:07:06Z</time>
      </trkpt>
      <trkpt lat="42.3351220" lon="-7.8801750">
        <ele>146.4</ele>
        <time>2019-08-17T15:07:07Z</time>
      </trkpt>
      <trkpt lat="42.3352180" lon="-7.8801710">
        <ele>146.0</ele>
        <time>2019-08-17T15:07:08Z</time>
      </trkpt>
      <trkpt lat="42.3353150" lon="-7.8801590">
        <ele>145.5</ele>
        <time>2019-08-17T15:07:09Z</time>
      </trkpt>
      <trkpt lat="42.3354110" lon="-7.8801470">
        <ele>144.8</ele>
        <time>2019-08-17T15:07:10Z</time>
      </trkpt>
      <trkpt lat="42.3355080" lon="-7.8801270">
        <ele>144.1</ele>
        <time>2019-08-17T15:07:11Z</time>
      </trkpt>
      <trkpt lat="42.3356040" lon="-7.8801010">
        <ele>143.3</ele>
        <time>2019-08-17T15:07:12Z</time>
      </trkpt>
      <trkpt lat="42.3356990" lon="-7.8800710">
        <ele>142.5</ele>
        <time>2019-08-17T15:07:13Z</time>
      </trkpt>
      <trkpt lat="42.3357920" lon="-7.8800360">
        <ele>141.8</ele>
        <time>2019-08-17T15:07:14Z</time>
      </trkpt>
      <trkpt lat="42.3358820" lon="-7.8799970">
        <ele>141.1</ele>
        <time>2019-08-17T15:07:15Z</time>
      </trkpt>
      <trkpt lat="42.3359700" lon="-7.8799540">
        <ele>140.5</ele>
        <time>2019-08-17T15:07:16Z</time>
      </trkpt>
      <trkpt lat="42.3360540" lon="-7.8799090">
        <ele>140.0</ele>
        <time>2019-08-17T15:07:17Z</time>
      </trkpt>
      <trkpt lat="42.3361350" lon="-7.8798620">
        <ele>139.6</ele>
        <time>2019-08-17T15:07:18Z</time>
      </trkpt>
      <trkpt lat="42.3362140" lon="-7.8798130">
        <ele>139.3</ele>
        <time>2019-08-17T15:07:19Z</time>
      </trkpt>
      <trkpt lat="42.3362910" lon="-7.8797620">
        <ele>138.7</ele>
        <time>2019-08-17T15:07:20Z</time>
      </trkpt>
      <trkpt lat="42.3363660" lon="-7.8797090">
        <ele>137.9</ele>
        <time>2019-08-17T15:07:21Z</time>
      </trkpt>
      <trkpt lat="42.3364400" lon="-7.8796550">
        <ele>137.1</ele>
        <time>2019-08-17T15:07:22Z</time>
      </trkpt>
      <trkpt lat="42.3365120" lon="-7.8796000">
        <ele>136.4</ele>
        <time>2019-08-17T15:07:23Z</time>
      </trkpt>
      <trkpt lat="42.3365840" lon="-7.8795440">
        <ele>135.7</ele>
        <time>2019-08-17T15:07:24Z</time>
      </trkpt>
      <trkpt lat="42.3366560" lon="-7.8794860">
        <ele>135.1</ele>
        <time>2019-08-17T15:07:25Z</time>
      </trkpt>
      <trkpt lat="42.3367280" lon="-7.8794280">
        <ele>134.5</ele>
        <time>2019-08-17T15:07:26Z</time>
      </trkpt>
      <trkpt lat="42.3367990" lon="-7.8793700">
        <ele>133.9</ele>
        <time>2019-08-17T15:07:27Z</time>
      </trkpt>
      <trkpt lat="42.3368710" lon="-7.8793110">
        <ele>133.4</ele>
        <time>2019-08-17T15:07:28Z</time>
      </trkpt>
      <trkpt lat="42.3369430" lon="-7.8792520">
        <ele>132.9</ele>
        <time>2019-08-17T15:07:29Z</time>
      </trkpt>
      <trkpt lat="42.3370150" lon="-7.8791930">
        <ele>132.4</ele>
        <time>2019-08-17T15:07:30Z</time>
      </trkpt>
      <trkpt lat="42.3370870" lon="-7.8791340">
        <ele>131.9</ele>
        <time>2019-08-17T15:07:31Z</time>
      </trkpt>
      <trkpt lat="42.3371600" lon="-7.8790750">
        <ele>131.4</ele>
        <time>2019-08-17T15:07:32Z</time>
      </trkpt>
      <trkpt lat="42.3372330" lon="-7.8790170">
        <ele>130.9</ele>
        <time>2019-08-17T15:07:33Z</time>
      </trkpt>
      <trkpt lat="42.3373070" lon="-7.8789600">
        <ele>130.3</ele>
        <time>2019-08-17T15:07:34Z</time>
      </trkpt>
      <trkpt lat="42.3373810" lon="-7.8789030">
        <ele>129.8</ele>
        <time>2019-08-17T15:07:35Z</time>
      </trkpt>
      <trkpt lat="42.3374560" lon="-7.8788460">
        <ele>129.3</ele>
        <time>2019-08-17T15:07:36Z</time>
      </trkpt>
      <trkpt lat="42.3375320" lon="-7.8787910">
        <ele>128.7</ele>
        <time>2019-08-17T15:07:37Z</time>
      </trkpt>
      <trkpt lat="42.3376100" lon="-7.8787350">
        <ele>128.1</ele>
        <time>2019-08-17T15:07:38Z</time>
      </trkpt>
      <trkpt lat="42.3376880" lon="-7.8786810">
        <ele>127.5</ele>
        <time>2019-08-17T15:07:39Z</time>
      </trkpt>
      <trkpt lat="42.3377690" lon="-7.8786260">
        <ele>126.9</ele>
        <time>2019-08-17T15:07:40Z</time>
      </trkpt>
      <trkpt lat="42.3378500" lon="-7.8785730">
        <ele>126.3</ele>
        <time>2019-08-17T15:07:41Z</time>
      </trkpt>
      <trkpt lat="42.3379330" lon="-7.8785210">
        <ele>125.7</ele>
        <time>2019-08-17T15:07:42Z</time>
      </trkpt>
      <trkpt lat="42.3380180" lon="-7.8784700">
        <ele>125.1</ele>
        <time>2019-08-17T15:07:43Z</time>
      </trkpt>
      <trkpt lat="42.3381040" lon="-7.8784220">
        <ele>124.5</ele>
        <time>2019-08-17T15:07:44Z</time>
      </trkpt>
      <trkpt lat="42.3381910" lon="-7.8783760">
        <ele>123.8</ele>
        <time>2019-08-17T15:07:45Z</time>
      </trkpt>
      <trkpt lat="42.3382800" lon="-7.8783330">
        <ele>123.2</ele>
        <time>2019-08-17T15:07:46Z</time>
      </trkpt>
      <trkpt lat="42.3383700" lon="-7.8782930">
        <ele>122.6</ele>
        <time>2019-08-17T15:07:47Z</time>
      </trkpt>
      <trkpt lat="42.3384610" lon="-7.8782570">
        <ele>122.0</ele>
        <time>2019-08-17T15:07:48Z</time>
      </trkpt>
      <trkpt lat="42.3385530" lon="-7.8782230">
        <ele>121.4</ele>
        <time>2019-08-17T15:07:49Z</time>
      </trkpt>
      <trkpt lat="42.3386470" lon="-7.8781920">
        <ele>120.8</ele>
        <time>2019-08-17T15:07:50Z</time>
      </trkpt>
      <trkpt lat="42.3387410" lon="-7.8781640">
        <ele>120.1</ele>
        <time>2019-08-17T15:07:51Z</time>
      </trkpt>
      <trkpt lat="42.3388990" lon="-7.8781230">
        <ele>118.8</ele>
        <time>2019-08-17T15:07:52Z</time>
      </trkpt>
      <trkpt lat="42.3389630" lon="-7.8781080">
        <ele>118.4</ele>
        <time>2019-08-17T15:07:53Z</time>
      </trkpt>
      <trkpt lat="42.3390260" lon="-7.8780930">
        <ele>118.4</ele>
        <time>2019-08-17T15:07:54Z</time>
      </trkpt>
      <trkpt lat="42.3391220" lon="-7.8780730">
        <ele>118.3</ele>
        <time>2019-08-17T15:07:55Z</time>
      </trkpt>
      <trkpt lat="42.3392180" lon="-7.8780550">
        <ele>118.2</ele>
        <time>2019-08-17T15:07:56Z</time>
      </trkpt>
      <trkpt lat="42.3393790" lon="-7.8780300">
        <ele>118.1</ele>
        <time>2019-08-17T15:07:57Z</time>
      </trkpt>
      <trkpt lat="42.3394420" lon="-7.8780200">
        <ele>118.0</ele>
        <time>2019-08-17T15:07:58Z</time>
      </trkpt>
      <trkpt lat="42.3395060" lon="-7.8780110">
        <ele>118.0</ele>
        <time>2019-08-17T15:07:59Z</time>
      </trkpt>
      <trkpt lat="42.3396010" lon="-7.8779990">
        <ele>117.9</ele>
        <time>2019-08-17T15:08:00Z</time>
      </trkpt>
      <trkpt lat="42.3396960" lon="-7.8779870">
        <ele>117.9</ele>
        <time>2019-08-17T15:08:01Z</time>
      </trkpt>
      <trkpt lat="42.3397900" lon="-7.8779770">
        <ele>117.8</ele>
        <time>2019-08-17T15:08:02Z</time>
      </trkpt>
      <trkpt lat="42.3398840" lon="-7.8779670">
        <ele>117.7</ele>
        <time>2019-08-17T15:08:03Z</time>
      </trkpt>
      <trkpt lat="42.3399760" lon="-7.8779570">
        <ele>117.6</ele>
        <time>2019-08-17T15:08:04Z</time>
      </trkpt>
      <trkpt lat="42.3400670" lon="-7.8779470">
        <ele>117.5</ele>
        <time>2019-08-17T15:08:05Z</time>
      </trkpt>
      <trkpt lat="42.3401570" lon="-7.8779360">
        <ele>117.3</ele>
        <time>2019-08-17T15:08:06Z</time>
      </trkpt>
      <trkpt lat="42.3402450" lon="-7.8779260">
        <ele>117.2</ele>
        <time>2019-08-17T15:08:07Z</time>
      </trkpt>
      <trkpt lat="42.3403310" lon="-7.8779140">
        <ele>117.1</ele>
        <time>2019-08-17T15:08:08Z</time>
      </trkpt>
      <trkpt lat="42.3404150" lon="-7.8779010">
        <ele>116.9</ele>
        <time>2019-08-17T15:08:09Z</time>
      </trkpt>
      <trkpt lat="42.3404970" lon="-7.8778870">
        <ele>116.8</ele>
        <time>2019-08-17T15:08:10Z</time>
      </trkpt>
      <trkpt lat="42.3405770" lon="-7.8778730">
        <ele>116.7</ele>
        <time>2019-08-17T15:08:11Z</time>
      </trkpt>
      <trkpt lat="42.3406530" lon="-7.8778560">
        <ele>116.6</ele>
        <time>2019-08-17T15:08:12Z</time>
      </trkpt>
      <trkpt lat="42.3407270" lon="-7.8778390">
        <ele>116.6</ele>
        <time>2019-08-17T15:08:13Z</time>
      </trkpt>
      <trkpt lat="42.3407990" lon="-7.8778210">
        <ele>116.5</ele>
        <time>2019-08-17T15:08:14Z</time>
      </trkpt>
      <trkpt lat="42.3408690" lon="-7.8778020">
        <ele>116.5</ele>
        <time>2019-08-17T15:08:15Z</time>
      </trkpt>
      <trkpt lat="42.3409390" lon="-7.8777830">
        <ele>116.5</ele>
        <time>2019-08-17T15:08:16Z</time>
      </trkpt>
      <trkpt lat="42.3410070" lon="-7.8777650">
        <ele>116.5</ele>
        <time>2019-08-17T15:08:17Z</time>
      </trkpt>
      <trkpt lat="42.3410750" lon="-7.8777460">
        <ele>116.6</ele>
        <time>2019-08-17T15:08:18Z</time>
      </trkpt>
      <trkpt lat="42.3411430" lon="-7.8777260">
        <ele>116.6</ele>
        <time>2019-08-17T15:08:19Z</time>
      </trkpt>
      <trkpt lat="42.3412100" lon="-7.8777050">
        <ele>116.7</ele>
        <time>2019-08-17T15:08:20Z</time>
      </trkpt>
      <trkpt lat="42.3412770" lon="-7.8776840">
        <ele>116.7</ele>
        <time>2019-08-17T15:08:21Z</time>
      </trkpt>
      <trkpt lat="42.3413440" lon="-7.8776610">
        <ele>116.7</ele>
        <time>2019-08-17T15:08:22Z</time>
      </trkpt>
      <trkpt lat="42.3414100" lon="-7.8776370">
        <ele>116.8</ele>
        <time>2019-08-17T15:08:23Z</time>
      </trkpt>
      <trkpt lat="42.3414760" lon="-7.8776110">
        <ele>116.8</ele>
        <time>2019-08-17T15:08:24Z</time>
      </trkpt>
      <trkpt lat="42.3415420" lon="-7.8775840">
        <ele>116.8</ele>
        <time>2019-08-17T15:08:25Z</time>
      </trkpt>
      <trkpt lat="42.3416080" lon="-7.8775550">
        <ele>116.8</ele>
        <time>2019-08-17T15:08:26Z</time>
      </trkpt>
      <trkpt lat="42.3416730" lon="-7.8775260">
        <ele>116.8</ele>
        <time>2019-08-17T15:08:27Z</time>
      </trkpt>
      <trkpt lat="42.3417380" lon="-7.8774940">
        <ele>116.8</ele>
        <time>2019-08-17T15:08:28Z</time>
      </trkpt>
      <trkpt lat="42.3418020" lon="-7.8774620">
        <ele>116.9</ele>
        <time>2019-08-17T15:08:29Z</time>
      </trkpt>
      <trkpt lat="42.3418660" lon="-7.8774280">
        <ele>117.0</ele>
        <time>2019-08-17T15:08:30Z</time>
      </trkpt>
      <trkpt lat="42.3419290" lon="-7.8773930">
        <ele>117.2</ele>
        <time>2019-08-17T15:08:31Z</time>
      </trkpt>
      <trkpt lat="42.3419910" lon="-7.8773560">
        <ele>117.4</ele>
        <time>2019-08-17T15:08:32Z</time>
      </trkpt>
      <trkpt lat="42.3420520" lon="-7.8773200">
        <ele>117.6</ele>
        <time>2019-08-17T15:08:33Z</time>
      </trkpt>
      <trkpt lat="42.3421120" lon="-7.8772830">
        <ele>117.7</ele>
        <time>2019-08-17T15:08:34Z</time>
      </trkpt>
      <trkpt lat="42.3421700" lon="-7.8772460">
        <ele>117.9</ele>
        <time>2019-08-17T15:08:35Z</time>
      </trkpt>
      <trkpt lat="42.3422270" lon="-7.8772100">
        <ele>118.1</ele>
        <time>2019-08-17T15:08:36Z</time>
      </trkpt>
      <trkpt lat="42.3422820" lon="-7.8771750">
        <ele>118.2</ele>
        <time>2019-08-17T15:08:37Z</time>
      </trkpt>
      <trkpt lat="42.3423350" lon="-7.8771410">
        <ele>118.3</ele>
        <time>2019-08-17T15:08:38Z</time>
      </trkpt>
      <trkpt lat="42.3423860" lon="-7.8771070">
        <ele>118.4</ele>
        <time>2019-08-17T15:08:39Z</time>
      </trkpt>
      <trkpt lat="42.3424350" lon="-7.8770700">
        <ele>118.5</ele>
        <time>2019-08-17T15:08:40Z</time>
      </trkpt>
      <trkpt lat="42.3424840" lon="-7.8770300">
        <ele>118.7</ele>
        <time>2019-08-17T15:08:41Z</time>
      </trkpt>
      <trkpt lat="42.3425310" lon="-7.8769850">
        <ele>118.8</ele>
        <time>2019-08-17T15:08:42Z</time>
      </trkpt>
      <trkpt lat="42.3425770" lon="-7.8769380">
        <ele>119.1</ele>
        <time>2019-08-17T15:08:43Z</time>
      </trkpt>
      <trkpt lat="42.3426240" lon="-7.8768930">
        <ele>119.3</ele>
        <time>2019-08-17T15:08:44Z</time>
      </trkpt>
      <trkpt lat="42.3426700" lon="-7.8768530">
        <ele>119.4</ele>
        <time>2019-08-17T15:08:45Z</time>
      </trkpt>
      <trkpt lat="42.3427170" lon="-7.8768210">
        <ele>119.4</ele>
        <time>2019-08-17T15:08:46Z</time>
      </trkpt>
      <trkpt lat="42.3427650" lon="-7.8767940">
        <ele>119.2</ele>
        <time>2019-08-17T15:08:47Z</time>
      </trkpt>
      <trkpt lat="42.3428120" lon="-7.8767700">
        <ele>119.3</ele>
        <time>2019-08-17T15:08:48Z</time>
      </trkpt>
      <trkpt lat="42.3428590" lon="-7.8767430">
        <ele>119.3</ele>
        <time>2019-08-17T15:08:49Z</time>
      </trkpt>
      <trkpt lat="42.3429060" lon="-7.8767130">
        <ele>119.4</ele>
        <time>2019-08-17T15:08:50Z</time>
      </trkpt>
      <trkpt lat="42.3429530" lon="-7.8766790">
        <ele>119.4</ele>
        <time>2019-08-17T15:08:51Z</time>
      </trkpt>
      <trkpt lat="42.3429990" lon="-7.8766420">
        <ele>119.5</ele>
        <time>2019-08-17T15:08:52Z</time>
      </trkpt>
      <trkpt lat="42.3430450" lon="-7.8766040">
        <ele>119.6</ele>
        <time>2019-08-17T15:08:53Z</time>
      </trkpt>
      <trkpt lat="42.3430890" lon="-7.8765660">
        <ele>119.6</ele>
        <time>2019-08-17T15:08:54Z</time>
      </trkpt>
      <trkpt lat="42.3431330" lon="-7.8765300">
        <ele>119.7</ele>
        <time>2019-08-17T15:08:55Z</time>
      </trkpt>
      <trkpt lat="42.3431770" lon="-7.8764960">
        <ele>119.8</ele>
        <time>2019-08-17T15:08:56Z</time>
      </trkpt>
      <trkpt lat="42.3432190" lon="-7.8764670">
        <ele>119.9</ele>
        <time>2019-08-17T15:08:57Z</time>
      </trkpt>
      <trkpt lat="42.3432590" lon="-7.8764380">
        <ele>120.0</ele>
        <time>2019-08-17T15:08:58Z</time>
      </trkpt>
      <trkpt lat="42.3432980" lon="-7.8764050">
        <ele>120.1</ele>
        <time>2019-08-17T15:08:59Z</time>
      </trkpt>
      <trkpt lat="42.3433330" lon="-7.8763660">
        <ele>120.0</ele>
        <time>2019-08-17T15:09:00Z</time>
      </trkpt>
      <trkpt lat="42.3433660" lon="-7.8763180">
        <ele>119.9</ele>
        <time>2019-08-17T15:09:01Z</time>
      </trkpt>
      <trkpt lat="42.3433930" lon="-7.8762660">
        <ele>119.7</ele>
        <time>2019-08-17T15:09:02Z</time>
      </trkpt>
      <trkpt lat="42.3434150" lon="-7.8762130">
        <ele>119.6</ele>
        <time>2019-08-17T15:09:03Z</time>
      </trkpt>
      <trkpt lat="42.3434370" lon="-7.8761690">
        <ele>119.5</ele>
        <time>2019-08-17T15:09:04Z</time>
      </trkpt>
      <trkpt lat="42.3434640" lon="-7.8761370">
        <ele>119.4</ele>
        <time>2019-08-17T15:09:05Z</time>
      </trkpt>
      <trkpt lat="42.3434970" lon="-7.8761160">
        <ele>119.3</ele>
        <time>2019-08-17T15:09:06Z</time>
      </trkpt>
      <trkpt lat="42.3435360" lon="-7.8760980">
        <ele>118.4</ele>
        <time>2019-08-17T15:09:07Z</time>
      </trkpt>
      <trkpt lat="42.3435810" lon="-7.8760790">
        <ele>117.8</ele>
        <time>2019-08-17T15:09:08Z</time>
      </trkpt>
      <trkpt lat="42.3436310" lon="-7.8760580">
        <ele>117.1</ele>
        <time>2019-08-17T15:09:09Z</time>
      </trkpt>
      <trkpt lat="42.3436850" lon="-7.8760360">
        <ele>116.4</ele>
        <time>2019-08-17T15:09:10Z</time>
      </trkpt>
      <trkpt lat="42.3437420" lon="-7.8760120">
        <ele>115.5</ele>
        <time>2019-08-17T15:09:11Z</time>
      </trkpt>
      <trkpt lat="42.3438450" lon="-7.8759680">
        <ele>113.9</ele>
        <time>2019-08-17T15:09:12Z</time>
      </trkpt>
      <trkpt lat="42.3438870" lon="-7.8759490">
        <ele>113.1</ele>
        <time>2019-08-17T15:09:13Z</time>
      </trkpt>
      <trkpt lat="42.3439290" lon="-7.8759310">
        <ele>112.4</ele>
        <time>2019-08-17T15:09:14Z</time>
      </trkpt>
      <trkpt lat="42.3439940" lon="-7.8759010">
        <ele>111.2</ele>
        <time>2019-08-17T15:09:15Z</time>
      </trkpt>
      <trkpt lat="42.3440570" lon="-7.8758710">
        <ele>109.9</ele>
        <time>2019-08-17T15:09:16Z</time>
      </trkpt>
      <trkpt lat="42.3441170" lon="-7.8758400">
        <ele>108.7</ele>
        <time>2019-08-17T15:09:17Z</time>
      </trkpt>
      <trkpt lat="42.3441720" lon="-7.8758090">
        <ele>107.6</ele>
        <time>2019-08-17T15:09:18Z</time>
      </trkpt>
      <trkpt lat="42.3442210" lon="-7.8757800">
        <ele>106.6</ele>
        <time>2019-08-17T15:09:19Z</time>
      </trkpt>
      <trkpt lat="42.3442670" lon="-7.8757510">
        <ele>105.6</ele>
        <time>2019-08-17T15:09:20Z</time>
      </trkpt>
      <trkpt lat="42.3443110" lon="-7.8757230">
        <ele>104.6</ele>
        <time>2019-08-17T15:09:21Z</time>
      </trkpt>
      <trkpt lat="42.3443580" lon="-7.8756970">
        <ele>103.6</ele>
        <time>2019-08-17T15:09:22Z</time>
      </trkpt>
      <trkpt lat="42.3444050" lon="-7.8756730">
        <ele>103.0</ele>
        <time>2019-08-17T15:09:23Z</time>
      </trkpt>
      <trkpt lat="42.3444520" lon="-7.8756500">
        <ele>102.5</ele>
        <time>2019-08-17T15:09:24Z</time>
      </trkpt>
      <trkpt lat="42.3444950" lon="-7.8756280">
        <ele>102.2</ele>
        <time>2019-08-17T15:09:25Z</time>
      </trkpt>
      <trkpt lat="42.3445340" lon="-7.8756060">
        <ele>101.8</ele>
        <time>2019-08-17T15:09:26Z</time>
      </trkpt>
      <trkpt lat="42.3445690" lon="-7.8755830">
        <ele>101.5</ele>
        <time>2019-08-17T15:09:27Z</time>
      </trkpt>
      <trkpt lat="42.3446010" lon="-7.8755540">
        <ele>101.1</ele>
        <time>2019-08-17T15:09:28Z</time>
      </trkpt>
      <trkpt lat="42.3446310" lon="-7.8755180">
        <ele>100.8</ele>
        <time>2019-08-17T15:09:29Z</time>
      </trkpt>
      <trkpt lat="42.3446600" lon="-7.8754730">
        <ele>100.4</ele>
        <time>2019-08-17T15:09:30Z</time>
      </trkpt>
      <trkpt lat="42.3446890" lon="-7.8754220">
        <ele>100.0</ele>
        <time>2019-08-17T15:09:31Z</time>
      </trkpt>
      <trkpt lat="42.3447200" lon="-7.8753710">
        <ele>99.7</ele>
        <time>2019-08-17T15:09:32Z</time>
      </trkpt>
      <trkpt lat="42.3447530" lon="-7.8753240">
        <ele>99.6</ele>
        <time>2019-08-17T15:09:33Z</time>
      </trkpt>
      <trkpt lat="42.3447900" lon="-7.8752870">
        <ele>99.5</ele>
        <time>2019-08-17T15:09:34Z</time>
      </trkpt>
      <trkpt lat="42.3448330" lon="-7.8752640">
        <ele>99.3</ele>
        <time>2019-08-17T15:09:35Z</time>
      </trkpt>
      <trkpt lat="42.3448820" lon="-7.8752620">
        <ele>99.4</ele>
        <time>2019-08-17T15:09:36Z</time>
      </trkpt>
      <trkpt lat="42.3449350" lon="-7.8752930">
        <ele>99.6</ele>
        <time>2019-08-17T15:09:37Z</time>
      </trkpt>
      <trkpt lat="42.3449870" lon="-7.8753240">
        <ele>99.7</ele>
        <time>2019-08-17T15:09:38Z</time>
      </trkpt>
      <trkpt lat="42.3450210" lon="-7.8753810">
        <ele>99.8</ele>
        <time>2019-08-17T15:09:39Z</time>
      </trkpt>
      <trkpt lat="42.3450390" lon="-7.8754460">
        <ele>99.8</ele>
        <time>2019-08-17T15:09:40Z</time>
      </trkpt>
      <trkpt lat="42.3450440" lon="-7.8755120">
        <ele>99.8</ele>
        <time>2019-08-17T15:09:41Z</time>
      </trkpt>
      <trkpt lat="42.3450350" lon="-7.8755780">
        <ele>99.8</ele>
        <time>2019-08-17T15:09:42Z</time>
      </trkpt>
      <trkpt lat="42.3450180" lon="-7.8756440">
        <ele>99.8</ele>
        <time>2019-08-17T15:09:43Z</time>
      </trkpt>
      <trkpt lat="42.3450040" lon="-7.8757100">
        <ele>99.7</ele>
        <time>2019-08-17T15:09:44Z</time>
      </trkpt>
      <trkpt lat="42.3449960" lon="-7.8757760">
        <ele>99.7</ele>
        <time>2019-08-17T15:09:45Z</time>
      </trkpt>
      <trkpt lat="42.3449940" lon="-7.8758440">
        <ele>99.7</ele>
        <time>2019-08-17T15:09:46Z</time>
      </trkpt>
      <trkpt lat="42.3449980" lon="-7.8759150">
        <ele>99.7</ele>
        <time>2019-08-17T15:09:47Z</time>
      </trkpt>
      <trkpt lat="42.3450070" lon="-7.8759900">
        <ele>99.7</ele>
        <time>2019-08-17T15:09:48Z</time>
      </trkpt>
      <trkpt lat="42.3450200" lon="-7.8760690">
        <ele>99.7</ele>
        <time>2019-08-17T15:09:49Z</time>
      </trkpt>
      <trkpt lat="42.3450350" lon="-7.8761480">
        <ele>99.7</ele>
        <time>2019-08-17T15:09:50Z</time>
      </trkpt>
      <trkpt lat="42.3450480" lon="-7.8762270">
        <ele>99.8</ele>
        <time>2019-08-17T15:09:51Z</time>
      </trkpt>
      <trkpt lat="42.3450610" lon="-7.8763050">
        <ele>99.9</ele>
        <time>2019-08-17T15:09:52Z</time>
      </trkpt>
      <trkpt lat="42.3450730" lon="-7.8763820">
        <ele>100.0</ele>
        <time>2019-08-17T15:09:53Z</time>
      </trkpt>
      <trkpt lat="42.3450850" lon="-7.8764570">
        <ele>100.1</ele>
        <time>2019-08-17T15:09:54Z</time>
      </trkpt>
      <trkpt lat="42.3450960" lon="-7.8765310">
        <ele>100.2</ele>
        <time>2019-08-17T15:09:55Z</time>
      </trkpt>
      <trkpt lat="42.3451070" lon="-7.8766040">
        <ele>100.3</ele>
        <time>2019-08-17T15:09:56Z</time>
      </trkpt>
      <trkpt lat="42.3451180" lon="-7.8766750">
        <ele>100.4</ele>
        <time>2019-08-17T15:09:57Z</time>
      </trkpt>
      <trkpt lat="42.3451290" lon="-7.8767440">
        <ele>100.5</ele>
        <time>2019-08-17T15:09:58Z</time>
      </trkpt>
      <trkpt lat="42.3451410" lon="-7.8768110">
        <ele>100.6</ele>
        <time>2019-08-17T15:09:59Z</time>
      </trkpt>
      <trkpt lat="42.3451520" lon="-7.8768760">
        <ele>100.7</ele>
        <time>2019-08-17T15:10:00Z</time>
      </trkpt>
      <trkpt lat="42.3451630" lon="-7.8769390">
        <ele>100.8</ele>
        <time>2019-08-17T15:10:01Z</time>
      </trkpt>
      <trkpt lat="42.3451740" lon="-7.8770010">
        <ele>100.9</ele>
        <time>2019-08-17T15:10:02Z</time>
      </trkpt>
      <trkpt lat="42.3451840" lon="-7.8770600">
        <ele>100.9</ele>
        <time>2019-08-17T15:10:03Z</time>
      </trkpt>
      <trkpt lat="42.3451930" lon="-7.8771190">
        <ele>101.0</ele>
        <time>2019-08-17T15:10:04Z</time>
      </trkpt>
      <trkpt lat="42.3452010" lon="-7.8771750">
        <ele>101.0</ele>
        <time>2019-08-17T15:10:05Z</time>
      </trkpt>
      <trkpt lat="42.3452070" lon="-7.8772310">
        <ele>101.1</ele>
        <time>2019-08-17T15:10:06Z</time>
      </trkpt>
      <trkpt lat="42.3452120" lon="-7.8772850">
        <ele>101.1</ele>
        <time>2019-08-17T15:10:07Z</time>
      </trkpt>
      <trkpt lat="42.3452150" lon="-7.8773400">
        <ele>101.2</ele>
        <time>2019-08-17T15:10:08Z</time>
      </trkpt>
      <trkpt lat="42.3452180" lon="-7.8773950">
        <ele>101.3</ele>
        <time>2019-08-17T15:10:09Z</time>
      </trkpt>
      <trkpt lat="42.3452200" lon="-7.8774510">
        <ele>101.3</ele>
        <time>2019-08-17T15:10:10Z</time>
      </trkpt>
      <trkpt lat="42.3452220" lon="-7.8775080">
        <ele>101.4</ele>
        <time>2019-08-17T15:10:11Z</time>
      </trkpt>
      <trkpt lat="42.3452240" lon="-7.8775690">
        <ele>101.4</ele>
        <time>2019-08-17T15:10:12Z</time>
      </trkpt>
      <trkpt lat="42.3452260" lon="-7.8776320">
        <ele>101.5</ele>
        <time>2019-08-17T15:10:13Z</time>
      </trkpt>
      <trkpt lat="42.3452280" lon="-7.8776970">
        <ele>102.3</ele>
        <time>2019-08-17T15:10:14Z</time>
      </trkpt>
      <trkpt lat="42.3452300" lon="-7.8777630">
        <ele>102.5</ele>
        <time>2019-08-17T15:10:15Z</time>
      </trkpt>
      <trkpt lat="42.3452330" lon="-7.8778710">
        <ele>102.9</ele>
        <time>2019-08-17T15:10:16Z</time>
      </trkpt>
      <trkpt lat="42.3452350" lon="-7.8779140">
        <ele>103.0</ele>
        <time>2019-08-17T15:10:17Z</time>
      </trkpt>
      <trkpt lat="42.3452360" lon="-7.8779560">
        <ele>103.1</ele>
        <time>2019-08-17T15:10:18Z</time>
      </trkpt>
      <trkpt lat="42.3452380" lon="-7.8780150">
        <ele>103.3</ele>
        <time>2019-08-17T15:10:19Z</time>
      </trkpt>
      <trkpt lat="42.3452390" lon="-7.8780680">
        <ele>103.4</ele>
        <time>2019-08-17T15:10:20Z</time>
      </trkpt>
      <trkpt lat="42.3452400" lon="-7.8781050">
        <ele>103.5</ele>
        <time>2019-08-17T15:10:21Z</time>
      </trkpt>
      <trkpt lat="42.3452400" lon="-7.8781050">
        <ele>103.5</ele>
        <time>2019-08-17T15:10:22Z</time>
      </trkpt>
      <trkpt lat="42.3452400" lon="-7.8781050">
        <ele>103.5</ele>
        <time>2019-08-17T15:10:23Z</time>
      </trkpt>
      <trkpt lat="42.3452400" lon="-7.8781060">
        <ele>103.5</ele>
        <time>2019-08-17T15:10:24Z</time>
      </trkpt>
      <trkpt lat="42.3452400" lon="-7.8781060">
        <ele>103.5</ele>
        <time>2019-08-17T15:10:25Z</time>
      </trkpt>
      <trkpt lat="42.3452400" lon="-7.8781060">
        <ele>103.5</ele>
        <time>2019-08-17T15:10:26Z</time>
      </trkpt>
      <trkpt lat="42.3452400" lon="-7.8781060">
        <ele>103.5</ele>
        <time>2019-08-17T15:10:27Z</time>
      </trkpt>
      <trkpt lat="42.3452400" lon="-7.8781060">
        <ele>103.5</ele>
        <time>2019-08-17T15:10:28Z</time>
      </trkpt>
      <trkpt lat="42.3452400" lon="-7.8781060">
        <ele>103.5</ele>
        <time>2019-08-17T15:10:29Z</time>
      </trkpt>
      <trkpt lat="42.3452400" lon="-7.8781060">
        <ele>103.5</ele>
        <time>2019-08-17T15:10:30Z</time>
      </trkpt>
      <trkpt lat="42.3452400" lon="-7.8781070">
        <ele>103.6</ele>
        <time>2019-08-17T15:10:31Z</time>
      </trkpt>
      <trkpt lat="42.3452400" lon="-7.8781070">
        <ele>103.6</ele>
        <time>2019-08-17T15:10:32Z</time>
      </trkpt>
      <trkpt lat="42.3452400" lon="-7.8781070">
        <ele>103.6</ele>
        <time>2019-08-17T15:10:33Z</time>
      </trkpt>
      <trkpt lat="42.3452400" lon="-7.8781070">
        <ele>103.6</ele>
        <time>2019-08-17T15:10:34Z</time>
      </trkpt>
      <trkpt lat="42.3452400" lon="-7.8781070">
        <ele>103.6</ele>
        <time>2019-08-17T15:10:35Z</time>
      </trkpt>
      <trkpt lat="42.3452400" lon="-7.8781070">
        <ele>103.6</ele>
        <time>2019-08-17T15:10:36Z</time>
      </trkpt>
      <trkpt lat="42.3452400" lon="-7.8781070">
        <ele>103.6</ele>
        <time>2019-08-17T15:10:37Z</time>
      </trkpt>
      <trkpt lat="42.3452400" lon="-7.8781080">
        <ele>103.6</ele>
        <time>2019-08-17T15:10:38Z</time>
      </trkpt>
      <trkpt lat="42.3452400" lon="-7.8781080">
        <ele>103.6</ele>
        <time>2019-08-17T15:10:39Z</time>
      </trkpt>
      <trkpt lat="42.3452400" lon="-7.8781080">
        <ele>103.6</ele>
        <time>2019-08-17T15:10:40Z</time>
      </trkpt>
      <trkpt lat="42.3452400" lon="-7.8781080">
        <ele>103.6</ele>
        <time>2019-08-17T15:10:41Z</time>
      </trkpt>
      <trkpt lat="42.3452400" lon="-7.8781080">
        <ele>103.6</ele>
        <time>2019-08-17T15:10:42Z</time>
      </trkpt>
      <trkpt lat="42.3452400" lon="-7.8781080">
        <ele>103.6</ele>
        <time>2019-08-17T15:10:43Z</time>
      </trkpt>
      <trkpt lat="42.3452400" lon="-7.8781080">
        <ele>103.6</ele>
        <time>2019-08-17T15:10:44Z</time>
      </trkpt>
      <trkpt lat="42.3452400" lon="-7.8781090">
        <ele>103.6</ele>
        <time>2019-08-17T15:10:45Z</time>
      </trkpt>
      <trkpt lat="42.3452400" lon="-7.8781090">
        <ele>103.6</ele>
        <time>2019-08-17T15:10:46Z</time>
      </trkpt>
      <trkpt lat="42.3452390" lon="-7.8781090">
        <ele>103.6</ele>
        <time>2019-08-17T15:10:47Z</time>
      </trkpt>
      <trkpt lat="42.3452390" lon="-7.8781090">
        <ele>103.6</ele>
        <time>2019-08-17T15:10:48Z</time>
      </trkpt>
      <trkpt lat="42.3452390" lon="-7.8781090">
        <ele>103.6</ele>
        <time>2019-08-17T15:10:49Z</time>
      </trkpt>
      <trkpt lat="42.3452390" lon="-7.8781090">
        <ele>103.6</ele>
        <time>2019-08-17T15:10:50Z</time>
      </trkpt>
      <trkpt lat="42.3452390" lon="-7.8781090">
        <ele>103.6</ele>
        <time>2019-08-17T15:10:51Z</time>
      </trkpt>
      <trkpt lat="42.3452390" lon="-7.8781100">
        <ele>103.6</ele>
        <time>2019-08-17T15:10:52Z</time>
      </trkpt>
      <trkpt lat="42.3452390" lon="-7.8781100">
        <ele>103.6</ele>
        <time>2019-08-17T15:10:53Z</time>
      </trkpt>
      <trkpt lat="42.3452390" lon="-7.8781100">
        <ele>103.6</ele>
        <time>2019-08-17T15:10:54Z</time>
      </trkpt>
      <trkpt lat="42.3452390" lon="-7.8781100">
        <ele>103.6</ele>
        <time>2019-08-17T15:10:55Z</time>
      </trkpt>
      <trkpt lat="42.3452390" lon="-7.8781100">
        <ele>103.6</ele>
        <time>2019-08-17T15:10:56Z</time>
      </trkpt>
      <trkpt lat="42.3452390" lon="-7.8781100">
        <ele>103.6</ele>
        <time>2019-08-17T15:10:57Z</time>
      </trkpt>
      <trkpt lat="42.3452390" lon="-7.8781100">
        <ele>103.6</ele>
        <time>2019-08-17T15:10:58Z</time>
      </trkpt>
      <trkpt lat="42.3452390" lon="-7.8781110">
        <ele>103.6</ele>
        <time>2019-08-17T15:10:59Z</time>
      </trkpt>
      <trkpt lat="42.3452390" lon="-7.8781110">
        <ele>103.6</ele>
        <time>2019-08-17T15:11:00Z</time>
      </trkpt>
      <trkpt lat="42.3452390" lon="-7.8781110">
        <ele>103.6</ele>
        <time>2019-08-17T15:11:01Z</time>
      </trkpt>
      <trkpt lat="42.3452390" lon="-7.8781110">
        <ele>103.6</ele>
        <time>2019-08-17T15:11:02Z</time>
      </trkpt>
      <trkpt lat="42.3452390" lon="-7.8781110">
        <ele>103.6</ele>
        <time>2019-08-17T15:11:03Z</time>
      </trkpt>
      <trkpt lat="42.3452390" lon="-7.8781110">
        <ele>103.6</ele>
        <time>2019-08-17T15:11:04Z</time>
      </trkpt>
      <trkpt lat="42.3452390" lon="-7.8781110">
        <ele>103.6</ele>
        <time>2019-08-17T15:11:05Z</time>
      </trkpt>
      <trkpt lat="42.3452390" lon="-7.8781120">
        <ele>103.6</ele>
        <time>2019-08-17T15:11:06Z</time>
      </trkpt>
      <trkpt lat="42.3452390" lon="-7.8781120">
        <ele>103.6</ele>
        <time>2019-08-17T15:11:07Z</time>
      </trkpt>
      <trkpt lat="42.3452390" lon="-7.8781120">
        <ele>103.6</ele>
        <time>2019-08-17T15:11:08Z</time>
      </trkpt>
      <trkpt lat="42.3452390" lon="-7.8781120">
        <ele>103.6</ele>
        <time>2019-08-17T15:11:09Z</time>
      </trkpt>
      <trkpt lat="42.3452390" lon="-7.8781120">
        <ele>103.6</ele>
        <time>2019-08-17T15:11:10Z</time>
      </trkpt>
      <trkpt lat="42.3452390" lon="-7.8781120">
        <ele>103.6</ele>
        <time>2019-08-17T15:11:11Z</time>
      </trkpt>
      <trkpt lat="42.3452390" lon="-7.8781130">
        <ele>103.6</ele>
        <time>2019-08-17T15:11:12Z</time>
      </trkpt>
      <trkpt lat="42.3452390" lon="-7.8781130">
        <ele>103.6</ele>
        <time>2019-08-17T15:11:13Z</time>
      </trkpt>
      <trkpt lat="42.3452390" lon="-7.8781130">
        <ele>103.6</ele>
        <time>2019-08-17T15:11:14Z</time>
      </trkpt>
      <trkpt lat="42.3452390" lon="-7.8781130">
        <ele>103.6</ele>
        <time>2019-08-17T15:11:15Z</time>
      </trkpt>
      <trkpt lat="42.3452390" lon="-7.8781130">
        <ele>103.6</ele>
        <time>2019-08-17T15:11:16Z</time>
      </trkpt>
      <trkpt lat="42.3452390" lon="-7.8781130">
        <ele>103.6</ele>
        <time>2019-08-17T15:11:17Z</time>
      </trkpt>
      <trkpt lat="42.3452390" lon="-7.8781130">
        <ele>103.6</ele>
        <time>2019-08-17T15:11:18Z</time>
      </trkpt>
      <trkpt lat="42.3452390" lon="-7.8781140">
        <ele>103.6</ele>
        <time>2019-08-17T15:11:19Z</time>
      </trkpt>
      <trkpt lat="42.3452390" lon="-7.8781140">
        <ele>103.6</ele>
        <time>2019-08-17T15:11:20Z</time>
      </trkpt>
      <trkpt lat="42.3452390" lon="-7.8781140">
        <ele>103.6</ele>
        <time>2019-08-17T15:11:21Z</time>
      </trkpt>
      <trkpt lat="42.3452390" lon="-7.8781140">
        <ele>103.6</ele>
        <time>2019-08-17T15:11:22Z</time>
      </trkpt>
      <trkpt lat="42.3452390" lon="-7.8781140">
        <ele>103.6</ele>
        <time>2019-08-17T15:11:23Z</time>
      </trkpt>
      <trkpt lat="42.3452390" lon="-7.8781140">
        <ele>103.6</ele>
        <time>2019-08-17T15:11:24Z</time>
      </trkpt>
      <trkpt lat="42.3452390" lon="-7.8781140">
        <ele>103.6</ele>
        <time>2019-08-17T15:11:25Z</time>
      </trkpt>
      <trkpt lat="42.3452390" lon="-7.8781150">
        <ele>103.6</ele>
        <time>2019-08-17T15:11:26Z</time>
      </trkpt>
      <trkpt lat="42.3452390" lon="-7.8781150">
        <ele>103.6</ele>
        <time>2019-08-17T15:11:27Z</time>
      </trkpt>
      <trkpt lat="42.3452390" lon="-7.8781150">
        <ele>103.6</ele>
        <time>2019-08-17T15:11:28Z</time>
      </trkpt>
      <trkpt lat="42.3452390" lon="-7.8781150">
        <ele>103.6</ele>
        <time>2019-08-17T15:11:29Z</time>
      </trkpt>
      <trkpt lat="42.3452390" lon="-7.8781150">
        <ele>103.6</ele>
        <time>2019-08-17T15:11:30Z</time>
      </trkpt>
      <trkpt lat="42.3452390" lon="-7.8781150">
        <ele>103.6</ele>
        <time>2019-08-17T15:11:31Z</time>
      </trkpt>
      <trkpt lat="42.3452390" lon="-7.8781150">
        <ele>103.6</ele>
        <time>2019-08-17T15:11:32Z</time>
      </trkpt>
      <trkpt lat="42.3452390" lon="-7.8781160">
        <ele>103.6</ele>
        <time>2019-08-17T15:11:33Z</time>
      </trkpt>
      <trkpt lat="42.3452390" lon="-7.8781160">
        <ele>103.6</ele>
        <time>2019-08-17T15:11:34Z</time>
      </trkpt>
      <trkpt lat="42.3452390" lon="-7.8781160">
        <ele>103.6</ele>
        <time>2019-08-17T15:11:35Z</time>
      </trkpt>
      <trkpt lat="42.3452390" lon="-7.8781160">
        <ele>103.6</ele>
        <time>2019-08-17T15:11:36Z</time>
      </trkpt>
      <trkpt lat="42.3452390" lon="-7.8781160">
        <ele>103.6</ele>
        <time>2019-08-17T15:11:37Z</time>
      </trkpt>
      <trkpt lat="42.3452390" lon="-7.8781160">
        <ele>103.6</ele>
        <time>2019-08-17T15:11:38Z</time>
      </trkpt>
      <trkpt lat="42.3452380" lon="-7.8781160">
        <ele>103.6</ele>
        <time>2019-08-17T15:11:39Z</time>
      </trkpt>
      <trkpt lat="42.3452380" lon="-7.8781170">
        <ele>103.6</ele>
        <time>2019-08-17T15:11:40Z</time>
      </trkpt>
      <trkpt lat="42.3452380" lon="-7.8781170">
        <ele>103.6</ele>
        <time>2019-08-17T15:11:41Z</time>
      </trkpt>
      <trkpt lat="42.3452380" lon="-7.8781170">
        <ele>103.6</ele>
        <time>2019-08-17T15:11:42Z</time>
      </trkpt>
      <trkpt lat="42.3452380" lon="-7.8781170">
        <ele>103.6</ele>
        <time>2019-08-17T15:11:43Z</time>
      </trkpt>
      <trkpt lat="42.3452380" lon="-7.8781170">
        <ele>103.6</ele>
        <time>2019-08-17T15:11:44Z</time>
      </trkpt>
      <trkpt lat="42.3452380" lon="-7.8781170">
        <ele>103.6</ele>
        <time>2019-08-17T15:11:45Z</time>
      </trkpt>
      <trkpt lat="42.3452380" lon="-7.8781170">
        <ele>103.6</ele>
        <time>2019-08-17T15:11:46Z</time>
      </trkpt>
      <trkpt lat="42.3452380" lon="-7.8781180">
        <ele>103.6</ele>
        <time>2019-08-17T15:11:47Z</time>
      </trkpt>
      <trkpt lat="42.3452380" lon="-7.8781180">
        <ele>103.6</ele>
        <time>2019-08-17T15:11:48Z</time>
      </trkpt>
      <trkpt lat="42.3452380" lon="-7.8781180">
        <ele>103.6</ele>
        <time>2019-08-17T15:11:49Z</time>
      </trkpt>
      <trkpt lat="42.3452380" lon="-7.8781180">
        <ele>103.6</ele>
        <time>2019-08-17T15:11:50Z</time>
      </trkpt>
      <trkpt lat="42.3452380" lon="-7.8781180">
        <ele>103.6</ele>
        <time>2019-08-17T15:11:51Z</time>
      </trkpt>
      <trkpt lat="42.3452380" lon="-7.8781180">
        <ele>103.6</ele>
        <time>2019-08-17T15:11:52Z</time>
      </trkpt>
      <trkpt lat="42.3452380" lon="-7.8781180">
        <ele>103.6</ele>
        <time>2019-08-17T15:11:53Z</time>
      </trkpt>
      <trkpt lat="42.3452380" lon="-7.8781190">
        <ele>103.6</ele>
        <time>2019-08-17T15:11:54Z</time>
      </trkpt>
      <trkpt lat="42.3452380" lon="-7.8781190">
        <ele>103.6</ele>
        <time>2019-08-17T15:11:55Z</time>
      </trkpt>
      <trkpt lat="42.3452380" lon="-7.8781190">
        <ele>103.6</ele>
        <time>2019-08-17T15:11:56Z</time>
      </trkpt>
      <trkpt lat="42.3452380" lon="-7.8781190">
        <ele>103.6</ele>
        <time>2019-08-17T15:11:57Z</time>
      </trkpt>
      <trkpt lat="42.3452380" lon="-7.8781190">
        <ele>103.6</ele>
        <time>2019-08-17T15:11:58Z</time>
      </trkpt>
      <trkpt lat="42.3452380" lon="-7.8781190">
        <ele>103.6</ele>
        <time>2019-08-17T15:11:59Z</time>
      </trkpt>
      <trkpt lat="42.3452380" lon="-7.8781190">
        <ele>103.6</ele>
        <time>2019-08-17T15:12:00Z</time>
      </trkpt>
      <trkpt lat="42.3452380" lon="-7.8781200">
        <ele>103.6</ele>
        <time>2019-08-17T15:12:01Z</time>
      </trkpt>
      <trkpt lat="42.3452380" lon="-7.8781200">
        <ele>103.6</ele>
        <time>2019-08-17T15:12:02Z</time>
      </trkpt>
      <trkpt lat="42.3452380" lon="-7.8781200">
        <ele>103.6</ele>
        <time>2019-08-17T15:12:03Z</time>
      </trkpt>
      <trkpt lat="42.3452380" lon="-7.8781200">
        <ele>103.6</ele>
        <time>2019-08-17T15:12:04Z</time>
      </trkpt>
      <trkpt lat="42.3452410" lon="-7.8781070">
        <ele>103.6</ele>
        <time>2019-08-17T15:12:05Z</time>
      </trkpt>
      <trkpt lat="42.3452500" lon="-7.8780740">
        <ele>103.7</ele>
        <time>2019-08-17T15:12:06Z</time>
      </trkpt>
      <trkpt lat="42.3452530" lon="-7.8780410">
        <ele>103.8</ele>
        <time>2019-08-17T15:12:07Z</time>
      </trkpt>
      <trkpt lat="42.3452510" lon="-7.8780000">
        <ele>103.9</ele>
        <time>2019-08-17T15:12:08Z</time>
      </trkpt>
      <trkpt lat="42.3452480" lon="-7.8779550">
        <ele>104.0</ele>
        <time>2019-08-17T15:12:09Z</time>
      </trkpt>
      <trkpt lat="42.3452470" lon="-7.8778730">
        <ele>103.5</ele>
        <time>2019-08-17T15:12:10Z</time>
      </trkpt>
      <trkpt lat="42.3452460" lon="-7.8778400">
        <ele>103.3</ele>
        <time>2019-08-17T15:12:11Z</time>
      </trkpt>
      <trkpt lat="42.3452460" lon="-7.8778060">
        <ele>103.1</ele>
        <time>2019-08-17T15:12:12Z</time>
      </trkpt>
      <trkpt lat="42.3452450" lon="-7.8777540">
        <ele>102.8</ele>
        <time>2019-08-17T15:12:13Z</time>
      </trkpt>
      <trkpt lat="42.3452450" lon="-7.8777020">
        <ele>102.4</ele>
        <time>2019-08-17T15:12:14Z</time>
      </trkpt>
      <trkpt lat="42.3452450" lon="-7.8776510">
        <ele>102.0</ele>
        <time>2019-08-17T15:12:15Z</time>
      </trkpt>
      <trkpt lat="42.3452440" lon="-7.8775760">
        <ele>101.5</ele>
        <time>2019-08-17T15:12:16Z</time>
      </trkpt>
      <trkpt lat="42.3452430" lon="-7.8775520">
        <ele>101.4</ele>
        <time>2019-08-17T15:12:17Z</time>
      </trkpt>
      <trkpt lat="42.3452410" lon="-7.8775040">
        <ele>101.4</ele>
        <time>2019-08-17T15:12:18Z</time>
      </trkpt>
      <trkpt lat="42.3452400" lon="-7.8774580">
        <ele>101.4</ele>
        <time>2019-08-17T15:12:19Z</time>
      </trkpt>
      <trkpt lat="42.3452380" lon="-7.8774120">
        <ele>101.3</ele>
        <time>2019-08-17T15:12:20Z</time>
      </trkpt>
      <trkpt lat="42.3452360" lon="-7.8773670">
        <ele>101.3</ele>
        <time>2019-08-17T15:12:21Z</time>
      </trkpt>
      <trkpt lat="42.3452330" lon="-7.8773190">
        <ele>101.2</ele>
        <time>2019-08-17T15:12:22Z</time>
      </trkpt>
      <trkpt lat="42.3452280" lon="-7.8772670">
        <ele>101.2</ele>
        <time>2019-08-17T15:12:23Z</time>
      </trkpt>
      <trkpt lat="42.3452220" lon="-7.8772100">
        <ele>101.1</ele>
        <time>2019-08-17T15:12:24Z</time>
      </trkpt>
      <trkpt lat="42.3452150" lon="-7.8771490">
        <ele>101.0</ele>
        <time>2019-08-17T15:12:25Z</time>
      </trkpt>
      <trkpt lat="42.3452070" lon="-7.8770830">
        <ele>101.0</ele>
        <time>2019-08-17T15:12:26Z</time>
      </trkpt>
      <trkpt lat="42.3451970" lon="-7.8770130">
        <ele>100.9</ele>
        <time>2019-08-17T15:12:27Z</time>
      </trkpt>
      <trkpt lat="42.3451870" lon="-7.8769390">
        <ele>100.8</ele>
        <time>2019-08-17T15:12:28Z</time>
      </trkpt>
      <trkpt lat="42.3451770" lon="-7.8768630">
        <ele>100.7</ele>
        <time>2019-08-17T15:12:29Z</time>
      </trkpt>
      <trkpt lat="42.3451660" lon="-7.8767840">
        <ele>100.6</ele>
        <time>2019-08-17T15:12:30Z</time>
      </trkpt>
      <trkpt lat="42.3451550" lon="-7.8767040">
        <ele>100.5</ele>
        <time>2019-08-17T15:12:31Z</time>
      </trkpt>
      <trkpt lat="42.3451440" lon="-7.8766220">
        <ele>100.3</ele>
        <time>2019-08-17T15:12:32Z</time>
      </trkpt>
      <trkpt lat="42.3451330" lon="-7.8765400">
        <ele>100.2</ele>
        <time>2019-08-17T15:12:33Z</time>
      </trkpt>
      <trkpt lat="42.3451220" lon="-7.8764590">
        <ele>100.1</ele>
        <time>2019-08-17T15:12:34Z</time>
      </trkpt>
      <trkpt lat="42.3451100" lon="-7.8763790">
        <ele>100.0</ele>
        <time>2019-08-17T15:12:35Z</time>
      </trkpt>
      <trkpt lat="42.3450980" lon="-7.8763020">
        <ele>99.8</ele>
        <time>2019-08-17T15:12:36Z</time>
      </trkpt>
      <trkpt lat="42.3450870" lon="-7.8762290">
        <ele>99.8</ele>
        <time>2019-08-17T15:12:37Z</time>
      </trkpt>
      <trkpt lat="42.3450760" lon="-7.8761600">
        <ele>99.7</ele>
        <time>2019-08-17T15:12:38Z</time>
      </trkpt>
      <trkpt lat="42.3450670" lon="-7.8760970">
        <ele>99.7</ele>
        <time>2019-08-17T15:12:39Z</time>
      </trkpt>
      <trkpt lat="42.3450590" lon="-7.8760390">
        <ele>99.7</ele>
        <time>2019-08-17T15:12:40Z</time>
      </trkpt>
      <trkpt lat="42.3450520" lon="-7.8759860">
        <ele>99.7</ele>
        <time>2019-08-17T15:12:41Z</time>
      </trkpt>
      <trkpt lat="42.3450450" lon="-7.8759380">
        <ele>99.7</ele>
        <time>2019-08-17T15:12:42Z</time>
      </trkpt>
      <trkpt lat="42.3450380" lon="-7.8758930">
        <ele>99.7</ele>
        <time>2019-08-17T15:12:43Z</time>
      </trkpt>
      <trkpt lat="42.3450310" lon="-7.8758530">
        <ele>99.7</ele>
        <time>2019-08-17T15:12:44Z</time>
      </trkpt>
      <trkpt lat="42.3450240" lon="-7.8758160">
        <ele>99.7</ele>
        <time>2019-08-17T15:12:45Z</time>
      </trkpt>
      <trkpt lat="42.3450160" lon="-7.8757820">
        <ele>99.7</ele>
        <time>2019-08-17T15:12:46Z</time>
      </trkpt>
      <trkpt lat="42.3450100" lon="-7.8757500">
        <ele>99.7</ele>
        <time>2019-08-17T15:12:47Z</time>
      </trkpt>
      <trkpt lat="42.3450070" lon="-7.8757190">
        <ele>99.8</ele>
        <time>2019-08-17T15:12:48Z</time>
      </trkpt>
      <trkpt lat="42.3450090" lon="-7.8756890">
        <ele>99.8</ele>
        <time>2019-08-17T15:12:49Z</time>
      </trkpt>
      <trkpt lat="42.3450180" lon="-7.8756590">
        <ele>99.8</ele>
        <time>2019-08-17T15:12:50Z</time>
      </trkpt>
      <trkpt lat="42.3450310" lon="-7.8756300">
        <ele>99.8</ele>
        <time>2019-08-17T15:12:51Z</time>
      </trkpt>
      <trkpt lat="42.3450450" lon="-7.8756040">
        <ele>99.8</ele>
        <time>2019-08-17T15:12:52Z</time>
      </trkpt>
      <trkpt lat="42.3450580" lon="-7.8755810">
        <ele>99.8</ele>
        <time>2019-08-17T15:12:53Z</time>
      </trkpt>
      <trkpt lat="42.3450660" lon="-7.8755640">
        <ele>99.8</ele>
        <time>2019-08-17T15:12:54Z</time>
      </trkpt>
      <trkpt lat="42.3450720" lon="-7.8755470">
        <ele>99.8</ele>
        <time>2019-08-17T15:12:55Z</time>
      </trkpt>
      <trkpt lat="42.3450730" lon="-7.8755430">
        <ele>99.8</ele>
        <time>2019-08-17T15:12:56Z</time>
      </trkpt>
      <trkpt lat="42.3450740" lon="-7.8755380">
        <ele>99.8</ele>
        <time>2019-08-17T15:12:57Z</time>
      </trkpt>
      <trkpt lat="42.3450740" lon="-7.8755350">
        <ele>99.8</ele>
        <time>2019-08-17T15:12:58Z</time>
      </trkpt>
      <trkpt lat="42.3450750" lon="-7.8755340">
        <ele>99.8</ele>
        <time>2019-08-17T15:12:59Z</time>
      </trkpt>
      <trkpt lat="42.3450750" lon="-7.8755340">
        <ele>99.8</ele>
        <time>2019-08-17T15:13:00Z</time>
      </trkpt>
      <trkpt lat="42.3450750" lon="-7.8755340">
        <ele>99.8</ele>
        <time>2019-08-17T15:13:01Z</time>
      </trkpt>
      <trkpt lat="42.3450750" lon="-7.8755340">
        <ele>99.8</ele>
        <time>2019-08-17T15:13:02Z</time>
      </trkpt>
      <trkpt lat="42.3450750" lon="-7.8755350">
        <ele>99.8</ele>
        <time>2019-08-17T15:13:03Z</time>
      </trkpt>
      <trkpt lat="42.3450750" lon="-7.8755350">
        <ele>99.8</ele>
        <time>2019-08-17T15:13:04Z</time>
      </trkpt>
      <trkpt lat="42.3450750" lon="-7.8755350">
        <ele>99.8</ele>
        <time>2019-08-17T15:13:05Z</time>
      </trkpt>
      <trkpt lat="42.3450750" lon="-7.8755350">
        <ele>99.8</ele>
        <time>2019-08-17T15:13:06Z</time>
      </trkpt>
      <trkpt lat="42.3450750" lon="-7.8755350">
        <ele>99.8</ele>
        <time>2019-08-17T15:13:07Z</time>
      </trkpt>
      <trkpt lat="42.3450750" lon="-7.8755350">
        <ele>99.8</ele>
        <time>2019-08-17T15:13:08Z</time>
      </trkpt>
      <trkpt lat="42.3450750" lon="-7.8755350">
        <ele>99.8</ele>
        <time>2019-08-17T15:13:09Z</time>
      </trkpt>
      <trkpt lat="42.3450750" lon="-7.8755350">
        <ele>99.8</ele>
        <time>2019-08-17T15:13:10Z</time>
      </trkpt>
      <trkpt lat="42.3450750" lon="-7.8755350">
        <ele>99.8</ele>
        <time>2019-08-17T15:13:11Z</time>
      </trkpt>
      <trkpt lat="42.3450750" lon="-7.8755350">
        <ele>99.8</ele>
        <time>2019-08-17T15:13:12Z</time>
      </trkpt>
      <trkpt lat="42.3450750" lon="-7.8755350">
        <ele>99.8</ele>
        <time>2019-08-17T15:13:13Z</time>
      </trkpt>
      <trkpt lat="42.3450750" lon="-7.8755350">
        <ele>99.8</ele>
        <time>2019-08-17T15:13:14Z</time>
      </trkpt>
      <trkpt lat="42.3450750" lon="-7.8755350">
        <ele>99.8</ele>
        <time>2019-08-17T15:13:15Z</time>
      </trkpt>
      <trkpt lat="42.3450750" lon="-7.8755350">
        <ele>99.8</ele>
        <time>2019-08-17T15:13:16Z</time>
      </trkpt>
      <trkpt lat="42.3450750" lon="-7.8755350">
        <ele>99.8</ele>
        <time>2019-08-17T15:13:17Z</time>
      </trkpt>
      <trkpt lat="42.3450750" lon="-7.8755350">
        <ele>99.8</ele>
        <time>2019-08-17T15:13:18Z</time>
      </trkpt>
      <trkpt lat="42.3450750" lon="-7.8755350">
        <ele>99.8</ele>
        <time>2019-08-17T15:13:19Z</time>
      </trkpt>
      <trkpt lat="42.3450750" lon="-7.8755350">
        <ele>99.8</ele>
        <time>2019-08-17T15:13:20Z</time>
      </trkpt>
      <trkpt lat="42.3450750" lon="-7.8755350">
        <ele>99.8</ele>
        <time>2019-08-17T15:13:21Z</time>
      </trkpt>
      <trkpt lat="42.3450750" lon="-7.8755350">
        <ele>99.8</ele>
        <time>2019-08-17T15:13:22Z</time>
      </trkpt>
      <trkpt lat="42.3450750" lon="-7.8755350">
        <ele>99.8</ele>
        <time>2019-08-17T15:13:23Z</time>
      </trkpt>
      <trkpt lat="42.3450750" lon="-7.8755350">
        <ele>99.8</ele>
        <time>2019-08-17T15:13:24Z</time>
      </trkpt>
      <trkpt lat="42.3450750" lon="-7.8755350">
        <ele>99.8</ele>
        <time>2019-08-17T15:13:25Z</time>
      </trkpt>
      <trkpt lat="42.3450750" lon="-7.8755350">
        <ele>99.8</ele>
        <time>2019-08-17T15:13:26Z</time>
      </trkpt>
      <trkpt lat="42.3450750" lon="-7.8755350">
        <ele>99.8</ele>
        <time>2019-08-17T15:13:27Z</time>
      </trkpt>
      <trkpt lat="42.3450750" lon="-7.8755350">
        <ele>99.8</ele>
        <time>2019-08-17T15:13:28Z</time>
      </trkpt>
      <trkpt lat="42.3450750" lon="-7.8755350">
        <ele>99.8</ele>
        <time>2019-08-17T15:13:29Z</time>
      </trkpt>
      <trkpt lat="42.3450750" lon="-7.8755350">
        <ele>99.8</ele>
        <time>2019-08-17T15:13:30Z</time>
      </trkpt>
      <trkpt lat="42.3450750" lon="-7.8755350">
        <ele>99.8</ele>
        <time>2019-08-17T15:13:31Z</time>
      </trkpt>
      <trkpt lat="42.3450750" lon="-7.8755350">
        <ele>99.8</ele>
        <time>2019-08-17T15:13:32Z</time>
      </trkpt>
      <trkpt lat="42.3450750" lon="-7.8755350">
        <ele>99.8</ele>
        <time>2019-08-17T15:13:33Z</time>
      </trkpt>
      <trkpt lat="42.3450750" lon="-7.8755350">
        <ele>99.8</ele>
        <time>2019-08-17T15:13:34Z</time>
      </trkpt>
      <trkpt lat="42.3450750" lon="-7.8755350">
        <ele>99.8</ele>
        <time>2019-08-17T15:13:35Z</time>
      </trkpt>
      <trkpt lat="42.3450750" lon="-7.8755350">
        <ele>99.8</ele>
        <time>2019-08-17T15:13:36Z</time>
      </trkpt>
      <trkpt lat="42.3450750" lon="-7.8755350">
        <ele>99.8</ele>
        <time>2019-08-17T15:13:37Z</time>
      </trkpt>
      <trkpt lat="42.3450750" lon="-7.8755350">
        <ele>99.8</ele>
        <time>2019-08-17T15:13:38Z</time>
      </trkpt>
      <trkpt lat="42.3450750" lon="-7.8755350">
        <ele>99.8</ele>
        <time>2019-08-17T15:13:39Z</time>
      </trkpt>
      <trkpt lat="42.3450750" lon="-7.8755350">
        <ele>99.8</ele>
        <time>2019-08-17T15:13:40Z</time>
      </trkpt>
      <trkpt lat="42.3450750" lon="-7.8755350">
        <ele>99.8</ele>
        <time>2019-08-17T15:13:41Z</time>
      </trkpt>
      <trkpt lat="42.3450750" lon="-7.8755350">
        <ele>99.8</ele>
        <time>2019-08-17T15:13:42Z</time>
      </trkpt>
      <trkpt lat="42.3450750" lon="-7.8755350">
        <ele>99.8</ele>
        <time>2019-08-17T15:13:43Z</time>
      </trkpt>
      <trkpt lat="42.3450750" lon="-7.8755350">
        <ele>99.8</ele>
        <time>2019-08-17T15:13:44Z</time>
      </trkpt>
      <trkpt lat="42.3450750" lon="-7.8755350">
        <ele>99.8</ele>
        <time>2019-08-17T15:13:45Z</time>
      </trkpt>
      <trkpt lat="42.3450750" lon="-7.8755350">
        <ele>99.8</ele>
        <time>2019-08-17T15:13:46Z</time>
      </trkpt>
      <trkpt lat="42.3450750" lon="-7.8755350">
        <ele>99.8</ele>
        <time>2019-08-17T15:13:47Z</time>
      </trkpt>
      <trkpt lat="42.3450750" lon="-7.8755350">
        <ele>99.8</ele>
        <time>2019-08-17T15:13:48Z</time>
      </trkpt>
      <trkpt lat="42.3450750" lon="-7.8755350">
        <ele>99.8</ele>
        <time>2019-08-17T15:13:49Z</time>
      </trkpt>
      <trkpt lat="42.3450750" lon="-7.8755350">
        <ele>99.8</ele>
        <time>2019-08-17T15:13:50Z</time>
      </trkpt>
      <trkpt lat="42.3450750" lon="-7.8755350">
        <ele>99.8</ele>
        <time>2019-08-17T15:13:51Z</time>
      </trkpt>
      <trkpt lat="42.3450750" lon="-7.8755350">
        <ele>99.8</ele>
        <time>2019-08-17T15:13:52Z</time>
      </trkpt>
      <trkpt lat="42.3450750" lon="-7.8755350">
        <ele>99.8</ele>
        <time>2019-08-17T15:13:53Z</time>
      </trkpt>
      <trkpt lat="42.3450750" lon="-7.8755350">
        <ele>99.8</ele>
        <time>2019-08-17T15:13:54Z</time>
      </trkpt>
      <trkpt lat="42.3450750" lon="-7.8755350">
        <ele>99.8</ele>
        <time>2019-08-17T15:13:55Z</time>
      </trkpt>
      <trkpt lat="42.3450750" lon="-7.8755350">
        <ele>99.8</ele>
        <time>2019-08-17T15:13:56Z</time>
      </trkpt>
      <trkpt lat="42.3450750" lon="-7.8755350">
        <ele>99.8</ele>
        <time>2019-08-17T15:13:57Z</time>
      </trkpt>
      <trkpt lat="42.3450750" lon="-7.8755350">
        <ele>99.8</ele>
        <time>2019-08-17T15:13:58Z</time>
      </trkpt>
      <trkpt lat="42.3450750" lon="-7.8755350">
        <ele>99.8</ele>
        <time>2019-08-17T15:13:59Z</time>
      </trkpt>
      <trkpt lat="42.3450750" lon="-7.8755350">
        <ele>99.8</ele>
        <time>2019-08-17T15:14:00Z</time>
      </trkpt>
      <trkpt lat="42.3450750" lon="-7.8755350">
        <ele>99.8</ele>
        <time>2019-08-17T15:14:01Z</time>
      </trkpt>
      <trkpt lat="42.3450750" lon="-7.8755350">
        <ele>99.8</ele>
        <time>2019-08-17T15:14:02Z</time>
      </trkpt>
      <trkpt lat="42.3450750" lon="-7.8755350">
        <ele>99.8</ele>
        <time>2019-08-17T15:14:03Z</time>
      </trkpt>
      <trkpt lat="42.3450750" lon="-7.8755350">
        <ele>99.8</ele>
        <time>2019-08-17T15:14:04Z</time>
      </trkpt>
      <trkpt lat="42.3450750" lon="-7.8755350">
        <ele>99.8</ele>
        <time>2019-08-17T15:14:05Z</time>
      </trkpt>
      <trkpt lat="42.3450750" lon="-7.8755350">
        <ele>99.8</ele>
        <time>2019-08-17T15:14:06Z</time>
      </trkpt>
      <trkpt lat="42.3450750" lon="-7.8755350">
        <ele>99.8</ele>
        <time>2019-08-17T15:14:07Z</time>
      </trkpt>
      <trkpt lat="42.3450750" lon="-7.8755350">
        <ele>99.8</ele>
        <time>2019-08-17T15:14:08Z</time>
      </trkpt>
      <trkpt lat="42.3450750" lon="-7.8755350">
        <ele>99.8</ele>
        <time>2019-08-17T15:14:09Z</time>
      </trkpt>
      <trkpt lat="42.3450750" lon="-7.8755350">
        <ele>99.8</ele>
        <time>2019-08-17T15:14:10Z</time>
      </trkpt>
      <trkpt lat="42.3450750" lon="-7.8755350">
        <ele>99.8</ele>
        <time>2019-08-17T15:14:11Z</time>
      </trkpt>
      <trkpt lat="42.3450750" lon="-7.8755350">
        <ele>99.8</ele>
        <time>2019-08-17T15:14:12Z</time>
      </trkpt>
      <trkpt lat="42.3450750" lon="-7.8755350">
        <ele>99.8</ele>
        <time>2019-08-17T15:14:13Z</time>
      </trkpt>
      <trkpt lat="42.3450750" lon="-7.8755350">
        <ele>99.8</ele>
        <time>2019-08-17T15:14:14Z</time>
      </trkpt>
      <trkpt lat="42.3450750" lon="-7.8755350">
        <ele>99.8</ele>
        <time>2019-08-17T15:14:15Z</time>
      </trkpt>
      <trkpt lat="42.3450750" lon="-7.8755350">
        <ele>99.8</ele>
        <time>2019-08-17T15:14:16Z</time>
      </trkpt>
      <trkpt lat="42.3450750" lon="-7.8755350">
        <ele>99.8</ele>
        <time>2019-08-17T15:14:17Z</time>
      </trkpt>
      <trkpt lat="42.3450750" lon="-7.8755350">
        <ele>99.8</ele>
        <time>2019-08-17T15:14:18Z</time>
      </trkpt>
      <trkpt lat="42.3450750" lon="-7.8755350">
        <ele>99.8</ele>
        <time>2019-08-17T15:14:19Z</time>
      </trkpt>
      <trkpt lat="42.3450750" lon="-7.8755350">
        <ele>99.8</ele>
        <time>2019-08-17T15:14:20Z</time>
      </trkpt>
      <trkpt lat="42.3450750" lon="-7.8755350">
        <ele>99.8</ele>
        <time>2019-08-17T15:14:21Z</time>
      </trkpt>
      <trkpt lat="42.3450750" lon="-7.8755350">
        <ele>99.8</ele>
        <time>2019-08-17T15:14:22Z</time>
      </trkpt>
      <trkpt lat="42.3450750" lon="-7.8755350">
        <ele>99.8</ele>
        <time>2019-08-17T15:14:23Z</time>
      </trkpt>
      <trkpt lat="42.3450750" lon="-7.8755350">
        <ele>99.8</ele>
        <time>2019-08-17T15:14:24Z</time>
      </trkpt>
      <trkpt lat="42.3450750" lon="-7.8755350">
        <ele>99.8</ele>
        <time>2019-08-17T15:14:25Z</time>
      </trkpt>
      <trkpt lat="42.3450750" lon="-7.8755350">
        <ele>99.8</ele>
        <time>2019-08-17T15:14:26Z</time>
      </trkpt>
      <trkpt lat="42.3450750" lon="-7.8755350">
        <ele>99.8</ele>
        <time>2019-08-17T15:14:27Z</time>
      </trkpt>
      <trkpt lat="42.3450750" lon="-7.8755350">
        <ele>99.8</ele>
        <time>2019-08-17T15:14:28Z</time>
      </trkpt>
      <trkpt lat="42.3450750" lon="-7.8755350">
        <ele>99.8</ele>
        <time>2019-08-17T15:14:29Z</time>
      </trkpt>
      <trkpt lat="42.3450750" lon="-7.8755350">
        <ele>99.8</ele>
        <time>2019-08-17T15:14:30Z</time>
      </trkpt>
      <trkpt lat="42.3450750" lon="-7.8755350">
        <ele>99.8</ele>
        <time>2019-08-17T15:14:31Z</time>
      </trkpt>
      <trkpt lat="42.3450750" lon="-7.8755350">
        <ele>99.8</ele>
        <time>2019-08-17T15:14:32Z</time>
      </trkpt>
      <trkpt lat="42.3450750" lon="-7.8755360">
        <ele>99.8</ele>
        <time>2019-08-17T15:14:33Z</time>
      </trkpt>
      <trkpt lat="42.3450750" lon="-7.8755380">
        <ele>99.8</ele>
        <time>2019-08-17T15:14:34Z</time>
      </trkpt>
      <trkpt lat="42.3450760" lon="-7.8755390">
        <ele>99.8</ele>
        <time>2019-08-17T15:14:35Z</time>
      </trkpt>
      <trkpt lat="42.3450620" lon="-7.8755680">
        <ele>99.8</ele>
        <time>2019-08-17T15:14:51Z</time>
      </trkpt>
      <trkpt lat="42.3450500" lon="-7.8756200">
        <ele>99.8</ele>
        <time>2019-08-17T15:14:52Z</time>
      </trkpt>
      <trkpt lat="42.3450500" lon="-7.8756850">
        <ele>99.8</ele>
        <time>2019-08-17T15:14:53Z</time>
      </trkpt>
      <trkpt lat="42.3450570" lon="-7.8757540">
        <ele>99.0</ele>
        <time>2019-08-17T15:14:54Z</time>
      </trkpt>
      <trkpt lat="42.3450670" lon="-7.8758180">
        <ele>98.9</ele>
        <time>2019-08-17T15:14:55Z</time>
      </trkpt>
      <trkpt lat="42.3450760" lon="-7.8758790">
        <ele>98.9</ele>
        <time>2019-08-17T15:14:56Z</time>
      </trkpt>
      <trkpt lat="42.3450920" lon="-7.8759760">
        <ele>98.9</ele>
        <time>2019-08-17T15:14:57Z</time>
      </trkpt>
      <trkpt lat="42.3450990" lon="-7.8760140">
        <ele>98.9</ele>
        <time>2019-08-17T15:14:58Z</time>
      </trkpt>
      <trkpt lat="42.3451050" lon="-7.8760530">
        <ele>98.9</ele>
        <time>2019-08-17T15:14:59Z</time>
      </trkpt>
      <trkpt lat="42.3451130" lon="-7.8761100">
        <ele>99.0</ele>
        <time>2019-08-17T15:15:00Z</time>
      </trkpt>
      <trkpt lat="42.3451210" lon="-7.8761650">
        <ele>99.3</ele>
        <time>2019-08-17T15:15:01Z</time>
      </trkpt>
      <trkpt lat="42.3451280" lon="-7.8762160">
        <ele>99.5</ele>
        <time>2019-08-17T15:15:02Z</time>
      </trkpt>
      <trkpt lat="42.3451390" lon="-7.8762930">
        <ele>99.8</ele>
        <time>2019-08-17T15:15:03Z</time>
      </trkpt>
      <trkpt lat="42.3451420" lon="-7.8763200">
        <ele>100.0</ele>
        <time>2019-08-17T15:15:04Z</time>
      </trkpt>
      <trkpt lat="42.3451500" lon="-7.8763750">
        <ele>100.2</ele>
        <time>2019-08-17T15:15:05Z</time>
      </trkpt>
      <trkpt lat="42.3451580" lon="-7.8764360">
        <ele>100.5</ele>
        <time>2019-08-17T15:15:06Z</time>
      </trkpt>
      <trkpt lat="42.3451670" lon="-7.8765020">
        <ele>100.7</ele>
        <time>2019-08-17T15:15:07Z</time>
      </trkpt>
      <trkpt lat="42.3451760" lon="-7.8765720">
        <ele>101.0</ele>
        <time>2019-08-17T15:15:08Z</time>
      </trkpt>
      <trkpt lat="42.3451930" lon="-7.8766950">
        <ele>101.5</ele>
        <time>2019-08-17T15:15:09Z</time>
      </trkpt>
      <trkpt lat="42.3452000" lon="-7.8767460">
        <ele>101.7</ele>
        <time>2019-08-17T15:15:10Z</time>
      </trkpt>
      <trkpt lat="42.3452070" lon="-7.8767960">
        <ele>101.8</ele>
        <time>2019-08-17T15:15:11Z</time>
      </trkpt>
      <trkpt lat="42.3452190" lon="-7.8768720">
        <ele>102.0</ele>
        <time>2019-08-17T15:15:12Z</time>
      </trkpt>
      <trkpt lat="42.3452300" lon="-7.8769480">
        <ele>102.0</ele>
        <time>2019-08-17T15:15:13Z</time>
      </trkpt>
      <trkpt lat="42.3452420" lon="-7.8770240">
        <ele>102.1</ele>
        <time>2019-08-17T15:15:14Z</time>
      </trkpt>
      <trkpt lat="42.3452540" lon="-7.8771000">
        <ele>102.1</ele>
        <time>2019-08-17T15:15:15Z</time>
      </trkpt>
      <trkpt lat="42.3452650" lon="-7.8771770">
        <ele>102.1</ele>
        <time>2019-08-17T15:15:16Z</time>
      </trkpt>
      <trkpt lat="42.3452760" lon="-7.8772550">
        <ele>102.1</ele>
        <time>2019-08-17T15:15:17Z</time>
      </trkpt>
      <trkpt lat="42.3452850" lon="-7.8773350">
        <ele>102.1</ele>
        <time>2019-08-17T15:15:18Z</time>
      </trkpt>
      <trkpt lat="42.3452930" lon="-7.8774170">
        <ele>102.1</ele>
        <time>2019-08-17T15:15:19Z</time>
      </trkpt>
      <trkpt lat="42.3452990" lon="-7.8775020">
        <ele>102.1</ele>
        <time>2019-08-17T15:15:20Z</time>
      </trkpt>
      <trkpt lat="42.3453050" lon="-7.8775880">
        <ele>102.1</ele>
        <time>2019-08-17T15:15:21Z</time>
      </trkpt>
      <trkpt lat="42.3453130" lon="-7.8776750">
        <ele>102.1</ele>
        <time>2019-08-17T15:15:22Z</time>
      </trkpt>
      <trkpt lat="42.3453250" lon="-7.8777600">
        <ele>102.1</ele>
        <time>2019-08-17T15:15:23Z</time>
      </trkpt>
      <trkpt lat="42.3453410" lon="-7.8778440">
        <ele>102.1</ele>
        <time>2019-08-17T15:15:24Z</time>
      </trkpt>
      <trkpt lat="42.3453590" lon="-7.8779280">
        <ele>102.1</ele>
        <time>2019-08-17T15:15:25Z</time>
      </trkpt>
      <trkpt lat="42.3453780" lon="-7.8780110">
        <ele>102.1</ele>
        <time>2019-08-17T15:15:26Z</time>
      </trkpt>
      <trkpt lat="42.3453940" lon="-7.8780950">
        <ele>102.1</ele>
        <time>2019-08-17T15:15:27Z</time>
      </trkpt>
      <trkpt lat="42.3454070" lon="-7.8781790">
        <ele>102.1</ele>
        <time>2019-08-17T15:15:28Z</time>
      </trkpt>
      <trkpt lat="42.3454160" lon="-7.8782620">
        <ele>102.0</ele>
        <time>2019-08-17T15:15:29Z</time>
      </trkpt>
      <trkpt lat="42.3454190" lon="-7.8783440">
        <ele>102.0</ele>
        <time>2019-08-17T15:15:30Z</time>
      </trkpt>
      <trkpt lat="42.3454170" lon="-7.8784230">
        <ele>101.9</ele>
        <time>2019-08-17T15:15:31Z</time>
      </trkpt>
      <trkpt lat="42.3454100" lon="-7.8785000">
        <ele>101.7</ele>
        <time>2019-08-17T15:15:32Z</time>
      </trkpt>
      <trkpt lat="42.3453910" lon="-7.8786220">
        <ele>101.6</ele>
        <time>2019-08-17T15:15:33Z</time>
      </trkpt>
      <trkpt lat="42.3453830" lon="-7.8786690">
        <ele>101.5</ele>
        <time>2019-08-17T15:15:34Z</time>
      </trkpt>
      <trkpt lat="42.3453750" lon="-7.8787160">
        <ele>101.4</ele>
        <time>2019-08-17T15:15:35Z</time>
      </trkpt>
      <trkpt lat="42.3453640" lon="-7.8787820">
        <ele>101.4</ele>
        <time>2019-08-17T15:15:36Z</time>
      </trkpt>
      <trkpt lat="42.3453590" lon="-7.8788460">
        <ele>101.3</ele>
        <time>2019-08-17T15:15:37Z</time>
      </trkpt>
      <trkpt lat="42.3453700" lon="-7.8789450">
        <ele>101.1</ele>
        <time>2019-08-17T15:15:38Z</time>
      </trkpt>
      <trkpt lat="42.3453800" lon="-7.8789840">
        <ele>101.0</ele>
        <time>2019-08-17T15:15:39Z</time>
      </trkpt>
      <trkpt lat="42.3453890" lon="-7.8790220">
        <ele>100.9</ele>
        <time>2019-08-17T15:15:40Z</time>
      </trkpt>
      <trkpt lat="42.3454110" lon="-7.8790800">
        <ele>100.7</ele>
        <time>2019-08-17T15:15:41Z</time>
      </trkpt>
      <trkpt lat="42.3454340" lon="-7.8791400">
        <ele>100.5</ele>
        <time>2019-08-17T15:15:42Z</time>
      </trkpt>
      <trkpt lat="42.3454580" lon="-7.8792030">
        <ele>100.3</ele>
        <time>2019-08-17T15:15:43Z</time>
      </trkpt>
      <trkpt lat="42.3454830" lon="-7.8792660">
        <ele>100.1</ele>
        <time>2019-08-17T15:15:44Z</time>
      </trkpt>
      <trkpt lat="42.3455090" lon="-7.8793300">
        <ele>100.0</ele>
        <time>2019-08-17T15:15:45Z</time>
      </trkpt>
      <trkpt lat="42.3455360" lon="-7.8793940">
        <ele>99.8</ele>
        <time>2019-08-17T15:15:46Z</time>
      </trkpt>
      <trkpt lat="42.3455640" lon="-7.8794560">
        <ele>99.5</ele>
        <time>2019-08-17T15:15:47Z</time>
      </trkpt>
      <trkpt lat="42.3455920" lon="-7.8795160">
        <ele>99.2</ele>
        <time>2019-08-17T15:15:48Z</time>
      </trkpt>
      <trkpt lat="42.3456220" lon="-7.8795740">
        <ele>98.9</ele>
        <time>2019-08-17T15:15:49Z</time>
      </trkpt>
      <trkpt lat="42.3456530" lon="-7.8796290">
        <ele>98.6</ele>
        <time>2019-08-17T15:15:50Z</time>
      </trkpt>
      <trkpt lat="42.3456850" lon="-7.8796820">
        <ele>98.3</ele>
        <time>2019-08-17T15:15:51Z</time>
      </trkpt>
      <trkpt lat="42.3457180" lon="-7.8797330">
        <ele>98.0</ele>
        <time>2019-08-17T15:15:52Z</time>
      </trkpt>
      <trkpt lat="42.3457520" lon="-7.8797820">
        <ele>97.8</ele>
        <time>2019-08-17T15:15:53Z</time>
      </trkpt>
      <trkpt lat="42.3457890" lon="-7.8798290">
        <ele>97.5</ele>
        <time>2019-08-17T15:15:54Z</time>
      </trkpt>
      <trkpt lat="42.3458250" lon="-7.8798760">
        <ele>97.2</ele>
        <time>2019-08-17T15:15:55Z</time>
      </trkpt>
      <trkpt lat="42.3458640" lon="-7.8799210">
        <ele>96.9</ele>
        <time>2019-08-17T15:15:56Z</time>
      </trkpt>
      <trkpt lat="42.3459040" lon="-7.8799650">
        <ele>96.7</ele>
        <time>2019-08-17T15:15:57Z</time>
      </trkpt>
      <trkpt lat="42.3459450" lon="-7.8800080">
        <ele>96.4</ele>
        <time>2019-08-17T15:15:58Z</time>
      </trkpt>
      <trkpt lat="42.3459880" lon="-7.8800480">
        <ele>96.2</ele>
        <time>2019-08-17T15:15:59Z</time>
      </trkpt>
      <trkpt lat="42.3460320" lon="-7.8800860">
        <ele>96.0</ele>
        <time>2019-08-17T15:16:00Z</time>
      </trkpt>
      <trkpt lat="42.3460770" lon="-7.8801220">
        <ele>95.8</ele>
        <time>2019-08-17T15:16:01Z</time>
      </trkpt>
      <trkpt lat="42.3461220" lon="-7.8801540">
        <ele>95.6</ele>
        <time>2019-08-17T15:16:02Z</time>
      </trkpt>
      <trkpt lat="42.3461690" lon="-7.8801830">
        <ele>95.4</ele>
        <time>2019-08-17T15:16:03Z</time>
      </trkpt>
      <trkpt lat="42.3462170" lon="-7.8802090">
        <ele>95.3</ele>
        <time>2019-08-17T15:16:04Z</time>
      </trkpt>
      <trkpt lat="42.3462640" lon="-7.8802320">
        <ele>95.2</ele>
        <time>2019-08-17T15:16:05Z</time>
      </trkpt>
      <trkpt lat="42.3463120" lon="-7.8802550">
        <ele>95.2</ele>
        <time>2019-08-17T15:16:06Z</time>
      </trkpt>
      <trkpt lat="42.3463610" lon="-7.8802780">
        <ele>95.4</ele>
        <time>2019-08-17T15:16:07Z</time>
      </trkpt>
      <trkpt lat="42.3464080" lon="-7.8803040">
        <ele>95.8</ele>
        <time>2019-08-17T15:16:08Z</time>
      </trkpt>
      <trkpt lat="42.3464550" lon="-7.8803330">
        <ele>96.4</ele>
        <time>2019-08-17T15:16:09Z</time>
      </trkpt>
      <trkpt lat="42.3465020" lon="-7.8803670">
        <ele>96.8</ele>
        <time>2019-08-17T15:16:10Z</time>
      </trkpt>
      <trkpt lat="42.3465470" lon="-7.8804070">
        <ele>96.9</ele>
        <time>2019-08-17T15:16:11Z</time>
      </trkpt>
      <trkpt lat="42.3465920" lon="-7.8804520">
        <ele>97.1</ele>
        <time>2019-08-17T15:16:12Z</time>
      </trkpt>
      <trkpt lat="42.3466370" lon="-7.8804980">
        <ele>97.4</ele>
        <time>2019-08-17T15:16:13Z</time>
      </trkpt>
      <trkpt lat="42.3466820" lon="-7.8805430">
        <ele>98.2</ele>
        <time>2019-08-17T15:16:14Z</time>
      </trkpt>
      <trkpt lat="42.3467280" lon="-7.8805860">
        <ele>98.8</ele>
        <time>2019-08-17T15:16:15Z</time>
      </trkpt>
      <trkpt lat="42.3468110" lon="-7.8806500">
        <ele>98.6</ele>
        <time>2019-08-17T15:16:16Z</time>
      </trkpt>
      <trkpt lat="42.3468450" lon="-7.8806730">
        <ele>98.6</ele>
        <time>2019-08-17T15:16:17Z</time>
      </trkpt>
      <trkpt lat="42.3468800" lon="-7.8806970">
        <ele>98.4</ele>
        <time>2019-08-17T15:16:18Z</time>
      </trkpt>
      <trkpt lat="42.3469350" lon="-7.8807290">
        <ele>98.0</ele>
        <time>2019-08-17T15:16:19Z</time>
      </trkpt>
      <trkpt lat="42.3469900" lon="-7.8807610">
        <ele>97.3</ele>
        <time>2019-08-17T15:16:20Z</time>
      </trkpt>
      <trkpt lat="42.3470750" lon="-7.8808190">
        <ele>96.7</ele>
        <time>2019-08-17T15:16:21Z</time>
      </trkpt>
      <trkpt lat="42.3471070" lon="-7.8808430">
        <ele>96.6</ele>
        <time>2019-08-17T15:16:22Z</time>
      </trkpt>
      <trkpt lat="42.3471390" lon="-7.8808680">
        <ele>96.4</ele>
        <time>2019-08-17T15:16:23Z</time>
      </trkpt>
      <trkpt lat="42.3471850" lon="-7.8809040">
        <ele>96.0</ele>
        <time>2019-08-17T15:16:24Z</time>
      </trkpt>
      <trkpt lat="42.3472330" lon="-7.8809370">
        <ele>95.5</ele>
        <time>2019-08-17T15:16:25Z</time>
      </trkpt>
      <trkpt lat="42.3472810" lon="-7.8809680">
        <ele>95.2</ele>
        <time>2019-08-17T15:16:26Z</time>
      </trkpt>
      <trkpt lat="42.3473310" lon="-7.8809960">
        <ele>94.9</ele>
        <time>2019-08-17T15:16:27Z</time>
      </trkpt>
      <trkpt lat="42.3473820" lon="-7.8810230">
        <ele>94.6</ele>
        <time>2019-08-17T15:16:28Z</time>
      </trkpt>
      <trkpt lat="42.3474340" lon="-7.8810490">
        <ele>94.4</ele>
        <time>2019-08-17T15:16:29Z</time>
      </trkpt>
      <trkpt lat="42.3474870" lon="-7.8810740">
        <ele>94.3</ele>
        <time>2019-08-17T15:16:30Z</time>
      </trkpt>
      <trkpt lat="42.3475400" lon="-7.8810980">
        <ele>94.1</ele>
        <time>2019-08-17T15:16:31Z</time>
      </trkpt>
      <trkpt lat="42.3475930" lon="-7.8811230">
        <ele>94.0</ele>
        <time>2019-08-17T15:16:32Z</time>
      </trkpt>
      <trkpt lat="42.3476470" lon="-7.8811480">
        <ele>94.1</ele>
        <time>2019-08-17T15:16:33Z</time>
      </trkpt>
      <trkpt lat="42.3477010" lon="-7.8811750">
        <ele>94.2</ele>
        <time>2019-08-17T15:16:34Z</time>
      </trkpt>
      <trkpt lat="42.3477540" lon="-7.8812030">
        <ele>94.3</ele>
        <time>2019-08-17T15:16:35Z</time>
      </trkpt>
      <trkpt lat="42.3478080" lon="-7.8812340">
        <ele>94.6</ele>
        <time>2019-08-17T15:16:36Z</time>
      </trkpt>
      <trkpt lat="42.3478610" lon="-7.8812670">
        <ele>94.8</ele>
        <time>2019-08-17T15:16:37Z</time>
      </trkpt>
      <trkpt lat="42.3479130" lon="-7.8813030">
        <ele>95.0</ele>
        <time>2019-08-17T15:16:38Z</time>
      </trkpt>
      <trkpt lat="42.3479640" lon="-7.8813420">
        <ele>95.0</ele>
        <time>2019-08-17T15:16:39Z</time>
      </trkpt>
      <trkpt lat="42.3480150" lon="-7.8813860">
        <ele>94.9</ele>
        <time>2019-08-17T15:16:40Z</time>
      </trkpt>
      <trkpt lat="42.3480660" lon="-7.8814330">
        <ele>94.8</ele>
        <time>2019-08-17T15:16:41Z</time>
      </trkpt>
      <trkpt lat="42.3481160" lon="-7.8814830">
        <ele>94.8</ele>
        <time>2019-08-17T15:16:42Z</time>
      </trkpt>
      <trkpt lat="42.3481660" lon="-7.8815360">
        <ele>94.8</ele>
        <time>2019-08-17T15:16:43Z</time>
      </trkpt>
      <trkpt lat="42.3482170" lon="-7.8815910">
        <ele>95.0</ele>
        <time>2019-08-17T15:16:44Z</time>
      </trkpt>
      <trkpt lat="42.3482690" lon="-7.8816480">
        <ele>95.1</ele>
        <time>2019-08-17T15:16:45Z</time>
      </trkpt>
      <trkpt lat="42.3483230" lon="-7.8817060">
        <ele>95.1</ele>
        <time>2019-08-17T15:16:46Z</time>
      </trkpt>
      <trkpt lat="42.3483780" lon="-7.8817640">
        <ele>95.0</ele>
        <time>2019-08-17T15:16:47Z</time>
      </trkpt>
      <trkpt lat="42.3484360" lon="-7.8818230">
        <ele>95.0</ele>
        <time>2019-08-17T15:16:48Z</time>
      </trkpt>
      <trkpt lat="42.3484940" lon="-7.8818820">
        <ele>95.0</ele>
        <time>2019-08-17T15:16:49Z</time>
      </trkpt>
      <trkpt lat="42.3485520" lon="-7.8819420">
        <ele>95.0</ele>
        <time>2019-08-17T15:16:50Z</time>
      </trkpt>
      <trkpt lat="42.3486090" lon="-7.8820010">
        <ele>95.0</ele>
        <time>2019-08-17T15:16:51Z</time>
      </trkpt>
      <trkpt lat="42.3486640" lon="-7.8820600">
        <ele>95.0</ele>
        <time>2019-08-17T15:16:52Z</time>
      </trkpt>
      <trkpt lat="42.3487170" lon="-7.8821170">
        <ele>95.0</ele>
        <time>2019-08-17T15:16:53Z</time>
      </trkpt>
      <trkpt lat="42.3487690" lon="-7.8821680">
        <ele>95.0</ele>
        <time>2019-08-17T15:16:54Z</time>
      </trkpt>
      <trkpt lat="42.3488180" lon="-7.8822130">
        <ele>95.1</ele>
        <time>2019-08-17T15:16:55Z</time>
      </trkpt>
      <trkpt lat="42.3488670" lon="-7.8822520">
        <ele>95.3</ele>
        <time>2019-08-17T15:16:56Z</time>
      </trkpt>
      <trkpt lat="42.3489150" lon="-7.8822900">
        <ele>95.5</ele>
        <time>2019-08-17T15:16:57Z</time>
      </trkpt>
      <trkpt lat="42.3489630" lon="-7.8823290">
        <ele>95.7</ele>
        <time>2019-08-17T15:16:58Z</time>
      </trkpt>
      <trkpt lat="42.3490110" lon="-7.8823720">
        <ele>95.8</ele>
        <time>2019-08-17T15:16:59Z</time>
      </trkpt>
      <trkpt lat="42.3490610" lon="-7.8824190">
        <ele>96.0</ele>
        <time>2019-08-17T15:17:00Z</time>
      </trkpt>
      <trkpt lat="42.3491100" lon="-7.8824690">
        <ele>96.1</ele>
        <time>2019-08-17T15:17:01Z</time>
      </trkpt>
      <trkpt lat="42.3491590" lon="-7.8825210">
        <ele>96.2</ele>
        <time>2019-08-17T15:17:02Z</time>
      </trkpt>
      <trkpt lat="42.3492080" lon="-7.8825740">
        <ele>96.3</ele>
        <time>2019-08-17T15:17:03Z</time>
      </trkpt>
      <trkpt lat="42.3492560" lon="-7.8826270">
        <ele>96.3</ele>
        <time>2019-08-17T15:17:04Z</time>
      </trkpt>
      <trkpt lat="42.3493020" lon="-7.8826790">
        <ele>96.4</ele>
        <time>2019-08-17T15:17:05Z</time>
      </trkpt>
      <trkpt lat="42.3493470" lon="-7.8827290">
        <ele>96.4</ele>
        <time>2019-08-17T15:17:06Z</time>
      </trkpt>
      <trkpt lat="42.3493890" lon="-7.8827770">
        <ele>96.4</ele>
        <time>2019-08-17T15:17:07Z</time>
      </trkpt>
      <trkpt lat="42.3494280" lon="-7.8828220">
        <ele>96.4</ele>
        <time>2019-08-17T15:17:08Z</time>
      </trkpt>
      <trkpt lat="42.3494660" lon="-7.8828670">
        <ele>96.3</ele>
        <time>2019-08-17T15:17:09Z</time>
      </trkpt>
      <trkpt lat="42.3495020" lon="-7.8829130">
        <ele>96.3</ele>
        <time>2019-08-17T15:17:10Z</time>
      </trkpt>
      <trkpt lat="42.3495370" lon="-7.8829570">
        <ele>96.3</ele>
        <time>2019-08-17T15:17:11Z</time>
      </trkpt>
      <trkpt lat="42.3495720" lon="-7.8830010">
        <ele>96.2</ele>
        <time>2019-08-17T15:17:12Z</time>
      </trkpt>
      <trkpt lat="42.3496060" lon="-7.8830430">
        <ele>96.1</ele>
        <time>2019-08-17T15:17:13Z</time>
      </trkpt>
      <trkpt lat="42.3496420" lon="-7.8830830">
        <ele>96.1</ele>
        <time>2019-08-17T15:17:14Z</time>
      </trkpt>
      <trkpt lat="42.3496780" lon="-7.8831200">
        <ele>96.0</ele>
        <time>2019-08-17T15:17:15Z</time>
      </trkpt>
      <trkpt lat="42.3497150" lon="-7.8831530">
        <ele>95.9</ele>
        <time>2019-08-17T15:17:16Z</time>
      </trkpt>
      <trkpt lat="42.3497550" lon="-7.8831820">
        <ele>95.8</ele>
        <time>2019-08-17T15:17:17Z</time>
      </trkpt>
      <trkpt lat="42.3497960" lon="-7.8832080">
        <ele>95.6</ele>
        <time>2019-08-17T15:17:18Z</time>
      </trkpt>
      <trkpt lat="42.3498390" lon="-7.8832320">
        <ele>95.6</ele>
        <time>2019-08-17T15:17:19Z</time>
      </trkpt>
      <trkpt lat="42.3498840" lon="-7.8832570">
        <ele>95.6</ele>
        <time>2019-08-17T15:17:20Z</time>
      </trkpt>
      <trkpt lat="42.3499310" lon="-7.8832820">
        <ele>95.6</ele>
        <time>2019-08-17T15:17:21Z</time>
      </trkpt>
      <trkpt lat="42.3499800" lon="-7.8833100">
        <ele>95.6</ele>
        <time>2019-08-17T15:17:22Z</time>
      </trkpt>
      <trkpt lat="42.3500300" lon="-7.8833420">
        <ele>95.6</ele>
        <time>2019-08-17T15:17:23Z</time>
      </trkpt>
      <trkpt lat="42.3500820" lon="-7.8833790">
        <ele>95.5</ele>
        <time>2019-08-17T15:17:24Z</time>
      </trkpt>
      <trkpt lat="42.3501350" lon="-7.8834210">
        <ele>95.5</ele>
        <time>2019-08-17T15:17:25Z</time>
      </trkpt>
      <trkpt lat="42.3502170" lon="-7.8834930">
        <ele>95.8</ele>
        <time>2019-08-17T15:17:26Z</time>
      </trkpt>
      <trkpt lat="42.3502440" lon="-7.8835180">
        <ele>96.0</ele>
        <time>2019-08-17T15:17:27Z</time>
      </trkpt>
      <trkpt lat="42.3502980" lon="-7.8835720">
        <ele>96.3</ele>
        <time>2019-08-17T15:17:28Z</time>
      </trkpt>
      <trkpt lat="42.3503530" lon="-7.8836290">
        <ele>96.4</ele>
        <time>2019-08-17T15:17:29Z</time>
      </trkpt>
      <trkpt lat="42.3504070" lon="-7.8836880">
        <ele>96.4</ele>
        <time>2019-08-17T15:17:30Z</time>
      </trkpt>
      <trkpt lat="42.3504850" lon="-7.8837800">
        <ele>96.5</ele>
        <time>2019-08-17T15:17:31Z</time>
      </trkpt>
      <trkpt lat="42.3505110" lon="-7.8838120">
        <ele>96.5</ele>
        <time>2019-08-17T15:17:32Z</time>
      </trkpt>
      <trkpt lat="42.3505610" lon="-7.8838760">
        <ele>96.7</ele>
        <time>2019-08-17T15:17:33Z</time>
      </trkpt>
      <trkpt lat="42.3506090" lon="-7.8839410">
        <ele>96.6</ele>
        <time>2019-08-17T15:17:34Z</time>
      </trkpt>
      <trkpt lat="42.3506570" lon="-7.8840060">
        <ele>96.4</ele>
        <time>2019-08-17T15:17:35Z</time>
      </trkpt>
      <trkpt lat="42.3507040" lon="-7.8840710">
        <ele>96.3</ele>
        <time>2019-08-17T15:17:36Z</time>
      </trkpt>
      <trkpt lat="42.3507490" lon="-7.8841370">
        <ele>96.2</ele>
        <time>2019-08-17T15:17:37Z</time>
      </trkpt>
      <trkpt lat="42.3507940" lon="-7.8842010">
        <ele>96.2</ele>
        <time>2019-08-17T15:17:38Z</time>
      </trkpt>
      <trkpt lat="42.3508390" lon="-7.8842650">
        <ele>96.0</ele>
        <time>2019-08-17T15:17:39Z</time>
      </trkpt>
      <trkpt lat="42.3508820" lon="-7.8843280">
        <ele>95.7</ele>
        <time>2019-08-17T15:17:40Z</time>
      </trkpt>
      <trkpt lat="42.3509260" lon="-7.8843910">
        <ele>95.4</ele>
        <time>2019-08-17T15:17:41Z</time>
      </trkpt>
      <trkpt lat="42.3509680" lon="-7.8844530">
        <ele>95.2</ele>
        <time>2019-08-17T15:17:42Z</time>
      </trkpt>
      <trkpt lat="42.3510100" lon="-7.8845150">
        <ele>95.2</ele>
        <time>2019-08-17T15:17:43Z</time>
      </trkpt>
      <trkpt lat="42.3510510" lon="-7.8845760">
        <ele>95.4</ele>
        <time>2019-08-17T15:17:44Z</time>
      </trkpt>
      <trkpt lat="42.3510920" lon="-7.8846370">
        <ele>95.4</ele>
        <time>2019-08-17T15:17:45Z</time>
      </trkpt>
      <trkpt lat="42.3511330" lon="-7.8846980">
        <ele>95.4</ele>
        <time>2019-08-17T15:17:46Z</time>
      </trkpt>
      <trkpt lat="42.3511730" lon="-7.8847590">
        <ele>95.3</ele>
        <time>2019-08-17T15:17:47Z</time>
      </trkpt>
      <trkpt lat="42.3512120" lon="-7.8848200">
        <ele>95.2</ele>
        <time>2019-08-17T15:17:48Z</time>
      </trkpt>
      <trkpt lat="42.3512510" lon="-7.8848810">
        <ele>95.2</ele>
        <time>2019-08-17T15:17:49Z</time>
      </trkpt>
      <trkpt lat="42.3512890" lon="-7.8849420">
        <ele>95.3</ele>
        <time>2019-08-17T15:17:50Z</time>
      </trkpt>
      <trkpt lat="42.3513280" lon="-7.8850030">
        <ele>95.5</ele>
        <time>2019-08-17T15:17:51Z</time>
      </trkpt>
      <trkpt lat="42.3513650" lon="-7.8850650">
        <ele>95.6</ele>
        <time>2019-08-17T15:17:52Z</time>
      </trkpt>
      <trkpt lat="42.3514030" lon="-7.8851280">
        <ele>95.6</ele>
        <time>2019-08-17T15:17:53Z</time>
      </trkpt>
      <trkpt lat="42.3514400" lon="-7.8851910">
        <ele>95.6</ele>
        <time>2019-08-17T15:17:54Z</time>
      </trkpt>
      <trkpt lat="42.3514770" lon="-7.8852540">
        <ele>95.7</ele>
        <time>2019-08-17T15:17:55Z</time>
      </trkpt>
      <trkpt lat="42.3515130" lon="-7.8853180">
        <ele>95.9</ele>
        <time>2019-08-17T15:17:56Z</time>
      </trkpt>
      <trkpt lat="42.3515480" lon="-7.8853820">
        <ele>96.1</ele>
        <time>2019-08-17T15:17:57Z</time>
      </trkpt>
      <trkpt lat="42.3515840" lon="-7.8854470">
        <ele>96.3</ele>
        <time>2019-08-17T15:17:58Z</time>
      </trkpt>
      <trkpt lat="42.3516180" lon="-7.8855120">
        <ele>96.4</ele>
        <time>2019-08-17T15:17:59Z</time>
      </trkpt>
      <trkpt lat="42.3516530" lon="-7.8855780">
        <ele>96.6</ele>
        <time>2019-08-17T15:18:00Z</time>
      </trkpt>
      <trkpt lat="42.3516860" lon="-7.8856440">
        <ele>96.7</ele>
        <time>2019-08-17T15:18:01Z</time>
      </trkpt>
      <trkpt lat="42.3517190" lon="-7.8857110">
        <ele>96.7</ele>
        <time>2019-08-17T15:18:02Z</time>
      </trkpt>
      <trkpt lat="42.3517510" lon="-7.8857780">
        <ele>96.7</ele>
        <time>2019-08-17T15:18:03Z</time>
      </trkpt>
      <trkpt lat="42.3517830" lon="-7.8858460">
        <ele>96.7</ele>
        <time>2019-08-17T15:18:04Z</time>
      </trkpt>
      <trkpt lat="42.3518140" lon="-7.8859140">
        <ele>96.7</ele>
        <time>2019-08-17T15:18:05Z</time>
      </trkpt>
      <trkpt lat="42.3518440" lon="-7.8859830">
        <ele>96.7</ele>
        <time>2019-08-17T15:18:06Z</time>
      </trkpt>
      <trkpt lat="42.3518730" lon="-7.8860520">
        <ele>96.8</ele>
        <time>2019-08-17T15:18:07Z</time>
      </trkpt>
      <trkpt lat="42.3519020" lon="-7.8861210">
        <ele>96.9</ele>
        <time>2019-08-17T15:18:08Z</time>
      </trkpt>
      <trkpt lat="42.3519290" lon="-7.8861910">
        <ele>97.0</ele>
        <time>2019-08-17T15:18:09Z</time>
      </trkpt>
      <trkpt lat="42.3519560" lon="-7.8862600">
        <ele>97.3</ele>
        <time>2019-08-17T15:18:10Z</time>
      </trkpt>
      <trkpt lat="42.3519820" lon="-7.8863290">
        <ele>97.6</ele>
        <time>2019-08-17T15:18:11Z</time>
      </trkpt>
      <trkpt lat="42.3520070" lon="-7.8863970">
        <ele>98.0</ele>
        <time>2019-08-17T15:18:12Z</time>
      </trkpt>
      <trkpt lat="42.3520320" lon="-7.8864630">
        <ele>98.3</ele>
        <time>2019-08-17T15:18:13Z</time>
      </trkpt>
      <trkpt lat="42.3520550" lon="-7.8865280">
        <ele>98.6</ele>
        <time>2019-08-17T15:18:14Z</time>
      </trkpt>
      <trkpt lat="42.3520770" lon="-7.8865920">
        <ele>98.8</ele>
        <time>2019-08-17T15:18:15Z</time>
      </trkpt>
      <trkpt lat="42.3520980" lon="-7.8866520">
        <ele>99.0</ele>
        <time>2019-08-17T15:18:16Z</time>
      </trkpt>
      <trkpt lat="42.3521190" lon="-7.8867100">
        <ele>99.2</ele>
        <time>2019-08-17T15:18:17Z</time>
      </trkpt>
      <trkpt lat="42.3521390" lon="-7.8867640">
        <ele>99.3</ele>
        <time>2019-08-17T15:18:18Z</time>
      </trkpt>
      <trkpt lat="42.3521580" lon="-7.8868140">
        <ele>99.5</ele>
        <time>2019-08-17T15:18:19Z</time>
      </trkpt>
      <trkpt lat="42.3521760" lon="-7.8868620">
        <ele>99.6</ele>
        <time>2019-08-17T15:18:20Z</time>
      </trkpt>
      <trkpt lat="42.3521950" lon="-7.8869100">
        <ele>99.6</ele>
        <time>2019-08-17T15:18:21Z</time>
      </trkpt>
      <trkpt lat="42.3522130" lon="-7.8869590">
        <ele>99.7</ele>
        <time>2019-08-17T15:18:22Z</time>
      </trkpt>
      <trkpt lat="42.3522310" lon="-7.8870100">
        <ele>99.7</ele>
        <time>2019-08-17T15:18:23Z</time>
      </trkpt>
      <trkpt lat="42.3522490" lon="-7.8870630">
        <ele>99.7</ele>
        <time>2019-08-17T15:18:24Z</time>
      </trkpt>
      <trkpt lat="42.3522670" lon="-7.8871180">
        <ele>99.7</ele>
        <time>2019-08-17T15:18:25Z</time>
      </trkpt>
      <trkpt lat="42.3522860" lon="-7.8871730">
        <ele>99.6</ele>
        <time>2019-08-17T15:18:26Z</time>
      </trkpt>
      <trkpt lat="42.3523040" lon="-7.8872300">
        <ele>99.6</ele>
        <time>2019-08-17T15:18:27Z</time>
      </trkpt>
      <trkpt lat="42.3523220" lon="-7.8872880">
        <ele>99.5</ele>
        <time>2019-08-17T15:18:28Z</time>
      </trkpt>
      <trkpt lat="42.3523400" lon="-7.8873470">
        <ele>99.3</ele>
        <time>2019-08-17T15:18:29Z</time>
      </trkpt>
      <trkpt lat="42.3523580" lon="-7.8874060">
        <ele>99.2</ele>
        <time>2019-08-17T15:18:30Z</time>
      </trkpt>
      <trkpt lat="42.3523790" lon="-7.8874650">
        <ele>99.0</ele>
        <time>2019-08-17T15:18:31Z</time>
      </trkpt>
      <trkpt lat="42.3524010" lon="-7.8875250">
        <ele>98.9</ele>
        <time>2019-08-17T15:18:32Z</time>
      </trkpt>
      <trkpt lat="42.3524220" lon="-7.8875880">
        <ele>98.9</ele>
        <time>2019-08-17T15:18:33Z</time>
      </trkpt>
      <trkpt lat="42.3524360" lon="-7.8876560">
        <ele>98.8</ele>
        <time>2019-08-17T15:18:34Z</time>
      </trkpt>
      <trkpt lat="42.3524460" lon="-7.8877270">
        <ele>98.9</ele>
        <time>2019-08-17T15:18:35Z</time>
      </trkpt>
      <trkpt lat="42.3524530" lon="-7.8878010">
        <ele>99.0</ele>
        <time>2019-08-17T15:18:36Z</time>
      </trkpt>
      <trkpt lat="42.3524600" lon="-7.8878750">
        <ele>99.1</ele>
        <time>2019-08-17T15:18:37Z</time>
      </trkpt>
      <trkpt lat="42.3524690" lon="-7.8879480">
        <ele>99.2</ele>
        <time>2019-08-17T15:18:38Z</time>
      </trkpt>
      <trkpt lat="42.3524780" lon="-7.8880220">
        <ele>99.3</ele>
        <time>2019-08-17T15:18:39Z</time>
      </trkpt>
      <trkpt lat="42.3524870" lon="-7.8880950">
        <ele>99.4</ele>
        <time>2019-08-17T15:18:40Z</time>
      </trkpt>
      <trkpt lat="42.3524970" lon="-7.8881690">
        <ele>99.5</ele>
        <time>2019-08-17T15:18:41Z</time>
      </trkpt>
      <trkpt lat="42.3525080" lon="-7.8882420">
        <ele>99.6</ele>
        <time>2019-08-17T15:18:42Z</time>
      </trkpt>
      <trkpt lat="42.3525200" lon="-7.8883150">
        <ele>99.7</ele>
        <time>2019-08-17T15:18:43Z</time>
      </trkpt>
      <trkpt lat="42.3525320" lon="-7.8883880">
        <ele>99.7</ele>
        <time>2019-08-17T15:18:44Z</time>
      </trkpt>
      <trkpt lat="42.3525440" lon="-7.8884610">
        <ele>99.7</ele>
        <time>2019-08-17T15:18:45Z</time>
      </trkpt>
      <trkpt lat="42.3525570" lon="-7.8885340">
        <ele>99.7</ele>
        <time>2019-08-17T15:18:46Z</time>
      </trkpt>
      <trkpt lat="42.3525710" lon="-7.8886080">
        <ele>99.7</ele>
        <time>2019-08-17T15:18:47Z</time>
      </trkpt>
      <trkpt lat="42.3525840" lon="-7.8886810">
        <ele>99.7</ele>
        <time>2019-08-17T15:18:48Z</time>
      </trkpt>
      <trkpt lat="42.3525990" lon="-7.8887550">
        <ele>99.7</ele>
        <time>2019-08-17T15:18:49Z</time>
      </trkpt>
      <trkpt lat="42.3526130" lon="-7.8888280">
        <ele>99.7</ele>
        <time>2019-08-17T15:18:50Z</time>
      </trkpt>
      <trkpt lat="42.3526280" lon="-7.8889020">
        <ele>99.7</ele>
        <time>2019-08-17T15:18:51Z</time>
      </trkpt>
      <trkpt lat="42.3526430" lon="-7.8889760">
        <ele>99.7</ele>
        <time>2019-08-17T15:18:52Z</time>
      </trkpt>
      <trkpt lat="42.3526590" lon="-7.8890500">
        <ele>99.7</ele>
        <time>2019-08-17T15:18:53Z</time>
      </trkpt>
      <trkpt lat="42.3526740" lon="-7.8891240">
        <ele>99.7</ele>
        <time>2019-08-17T15:18:54Z</time>
      </trkpt>
      <trkpt lat="42.3526890" lon="-7.8891990">
        <ele>99.7</ele>
        <time>2019-08-17T15:18:55Z</time>
      </trkpt>
      <trkpt lat="42.3527030" lon="-7.8892750">
        <ele>99.7</ele>
        <time>2019-08-17T15:18:56Z</time>
      </trkpt>
      <trkpt lat="42.3527170" lon="-7.8893500">
        <ele>99.7</ele>
        <time>2019-08-17T15:18:57Z</time>
      </trkpt>
      <trkpt lat="42.3527300" lon="-7.8894260">
        <ele>99.8</ele>
        <time>2019-08-17T15:18:58Z</time>
      </trkpt>
      <trkpt lat="42.3527420" lon="-7.8895030">
        <ele>99.8</ele>
        <time>2019-08-17T15:18:59Z</time>
      </trkpt>
      <trkpt lat="42.3527530" lon="-7.8895810">
        <ele>99.8</ele>
        <time>2019-08-17T15:19:00Z</time>
      </trkpt>
      <trkpt lat="42.3527630" lon="-7.8896580">
        <ele>99.9</ele>
        <time>2019-08-17T15:19:01Z</time>
      </trkpt>
      <trkpt lat="42.3527720" lon="-7.8897360">
        <ele>100.0</ele>
        <time>2019-08-17T15:19:02Z</time>
      </trkpt>
      <trkpt lat="42.3527800" lon="-7.8898130">
        <ele>100.2</ele>
        <time>2019-08-17T15:19:03Z</time>
      </trkpt>
      <trkpt lat="42.3527870" lon="-7.8898900">
        <ele>100.4</ele>
        <time>2019-08-17T15:19:04Z</time>
      </trkpt>
      <trkpt lat="42.3527940" lon="-7.8899660">
        <ele>100.5</ele>
        <time>2019-08-17T15:19:05Z</time>
      </trkpt>
      <trkpt lat="42.3528000" lon="-7.8900400">
        <ele>100.6</ele>
        <time>2019-08-17T15:19:06Z</time>
      </trkpt>
      <trkpt lat="42.3528060" lon="-7.8901120">
        <ele>100.7</ele>
        <time>2019-08-17T15:19:07Z</time>
      </trkpt>
      <trkpt lat="42.3528120" lon="-7.8901830">
        <ele>100.7</ele>
        <time>2019-08-17T15:19:08Z</time>
      </trkpt>
      <trkpt lat="42.3528170" lon="-7.8902530">
        <ele>100.7</ele>
        <time>2019-08-17T15:19:09Z</time>
      </trkpt>
      <trkpt lat="42.3528210" lon="-7.8903230">
        <ele>100.6</ele>
        <time>2019-08-17T15:19:10Z</time>
      </trkpt>
      <trkpt lat="42.3528250" lon="-7.8903920">
        <ele>100.6</ele>
        <time>2019-08-17T15:19:11Z</time>
      </trkpt>
      <trkpt lat="42.3528280" lon="-7.8904620">
        <ele>100.4</ele>
        <time>2019-08-17T15:19:12Z</time>
      </trkpt>
      <trkpt lat="42.3528300" lon="-7.8905320">
        <ele>100.3</ele>
        <time>2019-08-17T15:19:13Z</time>
      </trkpt>
      <trkpt lat="42.3528320" lon="-7.8906040">
        <ele>100.1</ele>
        <time>2019-08-17T15:19:14Z</time>
      </trkpt>
      <trkpt lat="42.3528320" lon="-7.8906760">
        <ele>100.1</ele>
        <time>2019-08-17T15:19:15Z</time>
      </trkpt>
      <trkpt lat="42.3528320" lon="-7.8907490">
        <ele>100.1</ele>
        <time>2019-08-17T15:19:16Z</time>
      </trkpt>
      <trkpt lat="42.3528310" lon="-7.8908230">
        <ele>100.1</ele>
        <time>2019-08-17T15:19:17Z</time>
      </trkpt>
      <trkpt lat="42.3528280" lon="-7.8908960">
        <ele>100.3</ele>
        <time>2019-08-17T15:19:18Z</time>
      </trkpt>
      <trkpt lat="42.3528250" lon="-7.8909700">
        <ele>100.4</ele>
        <time>2019-08-17T15:19:19Z</time>
      </trkpt>
      <trkpt lat="42.3528210" lon="-7.8910430">
        <ele>100.6</ele>
        <time>2019-08-17T15:19:20Z</time>
      </trkpt>
      <trkpt lat="42.3528170" lon="-7.8911150">
        <ele>100.7</ele>
        <time>2019-08-17T15:19:21Z</time>
      </trkpt>
      <trkpt lat="42.3528110" lon="-7.8911860">
        <ele>100.7</ele>
        <time>2019-08-17T15:19:22Z</time>
      </trkpt>
      <trkpt lat="42.3528070" lon="-7.8912530">
        <ele>100.7</ele>
        <time>2019-08-17T15:19:23Z</time>
      </trkpt>
      <trkpt lat="42.3528020" lon="-7.8913150">
        <ele>100.8</ele>
        <time>2019-08-17T15:19:24Z</time>
      </trkpt>
      <trkpt lat="42.3527990" lon="-7.8913730">
        <ele>100.8</ele>
        <time>2019-08-17T15:19:25Z</time>
      </trkpt>
      <trkpt lat="42.3527970" lon="-7.8914270">
        <ele>100.8</ele>
        <time>2019-08-17T15:19:26Z</time>
      </trkpt>
      <trkpt lat="42.3527970" lon="-7.8914790">
        <ele>100.8</ele>
        <time>2019-08-17T15:19:27Z</time>
      </trkpt>
      <trkpt lat="42.3527980" lon="-7.8915330">
        <ele>100.8</ele>
        <time>2019-08-17T15:19:28Z</time>
      </trkpt>
      <trkpt lat="42.3528000" lon="-7.8915890">
        <ele>100.8</ele>
        <time>2019-08-17T15:19:29Z</time>
      </trkpt>
      <trkpt lat="42.3528040" lon="-7.8916480">
        <ele>100.7</ele>
        <time>2019-08-17T15:19:30Z</time>
      </trkpt>
      <trkpt lat="42.3528070" lon="-7.8917110">
        <ele>100.7</ele>
        <time>2019-08-17T15:19:31Z</time>
      </trkpt>
      <trkpt lat="42.3528090" lon="-7.8917770">
        <ele>100.7</ele>
        <time>2019-08-17T15:19:32Z</time>
      </trkpt>
      <trkpt lat="42.3528100" lon="-7.8918470">
        <ele>100.7</ele>
        <time>2019-08-17T15:19:33Z</time>
      </trkpt>
      <trkpt lat="42.3528090" lon="-7.8919200">
        <ele>100.7</ele>
        <time>2019-08-17T15:19:34Z</time>
      </trkpt>
      <trkpt lat="42.3528080" lon="-7.8919940">
        <ele>100.7</ele>
        <time>2019-08-17T15:19:35Z</time>
      </trkpt>
      <trkpt lat="42.3528060" lon="-7.8921100">
        <ele>100.7</ele>
        <time>2019-08-17T15:19:36Z</time>
      </trkpt>
      <trkpt lat="42.3528050" lon="-7.8921480">
        <ele>100.7</ele>
        <time>2019-08-17T15:19:37Z</time>
      </trkpt>
      <trkpt lat="42.3528050" lon="-7.8922270">
        <ele>100.7</ele>
        <time>2019-08-17T15:19:38Z</time>
      </trkpt>
      <trkpt lat="42.3528040" lon="-7.8923060">
        <ele>100.7</ele>
        <time>2019-08-17T15:19:39Z</time>
      </trkpt>
      <trkpt lat="42.3528050" lon="-7.8923860">
        <ele>100.7</ele>
        <time>2019-08-17T15:19:40Z</time>
      </trkpt>
      <trkpt lat="42.3528070" lon="-7.8924670">
        <ele>100.7</ele>
        <time>2019-08-17T15:19:41Z</time>
      </trkpt>
      <trkpt lat="42.3528090" lon="-7.8925470">
        <ele>100.7</ele>
        <time>2019-08-17T15:19:42Z</time>
      </trkpt>
      <trkpt lat="42.3528130" lon="-7.8926280">
        <ele>100.7</ele>
        <time>2019-08-17T15:19:43Z</time>
      </trkpt>
      <trkpt lat="42.3528180" lon="-7.8927090">
        <ele>100.7</ele>
        <time>2019-08-17T15:19:44Z</time>
      </trkpt>
      <trkpt lat="42.3528240" lon="-7.8927890">
        <ele>100.7</ele>
        <time>2019-08-17T15:19:45Z</time>
      </trkpt>
      <trkpt lat="42.3528310" lon="-7.8928690">
        <ele>100.7</ele>
        <time>2019-08-17T15:19:46Z</time>
      </trkpt>
      <trkpt lat="42.3528370" lon="-7.8929470">
        <ele>100.7</ele>
        <time>2019-08-17T15:19:47Z</time>
      </trkpt>
      <trkpt lat="42.3528430" lon="-7.8930250">
        <ele>100.7</ele>
        <time>2019-08-17T15:19:48Z</time>
      </trkpt>
      <trkpt lat="42.3528490" lon="-7.8931000">
        <ele>100.6</ele>
        <time>2019-08-17T15:19:49Z</time>
      </trkpt>
      <trkpt lat="42.3528540" lon="-7.8931750">
        <ele>100.6</ele>
        <time>2019-08-17T15:19:50Z</time>
      </trkpt>
      <trkpt lat="42.3528580" lon="-7.8932480">
        <ele>100.6</ele>
        <time>2019-08-17T15:19:51Z</time>
      </trkpt>
      <trkpt lat="42.3528620" lon="-7.8933200">
        <ele>100.5</ele>
        <time>2019-08-17T15:19:52Z</time>
      </trkpt>
      <trkpt lat="42.3528640" lon="-7.8933920">
        <ele>100.5</ele>
        <time>2019-08-17T15:19:53Z</time>
      </trkpt>
      <trkpt lat="42.3528660" lon="-7.8934640">
        <ele>100.5</ele>
        <time>2019-08-17T15:19:54Z</time>
      </trkpt>
      <trkpt lat="42.3528670" lon="-7.8935360">
        <ele>100.5</ele>
        <time>2019-08-17T15:19:55Z</time>
      </trkpt>
      <trkpt lat="42.3528670" lon="-7.8936100">
        <ele>100.4</ele>
        <time>2019-08-17T15:19:56Z</time>
      </trkpt>
      <trkpt lat="42.3528670" lon="-7.8936840">
        <ele>100.4</ele>
        <time>2019-08-17T15:19:57Z</time>
      </trkpt>
      <trkpt lat="42.3528650" lon="-7.8937610">
        <ele>100.4</ele>
        <time>2019-08-17T15:19:58Z</time>
      </trkpt>
      <trkpt lat="42.3528630" lon="-7.8938390">
        <ele>100.3</ele>
        <time>2019-08-17T15:19:59Z</time>
      </trkpt>
      <trkpt lat="42.3528610" lon="-7.8939180">
        <ele>100.3</ele>
        <time>2019-08-17T15:20:00Z</time>
      </trkpt>
      <trkpt lat="42.3528580" lon="-7.8939970">
        <ele>100.3</ele>
        <time>2019-08-17T15:20:01Z</time>
      </trkpt>
      <trkpt lat="42.3528560" lon="-7.8940750">
        <ele>100.2</ele>
        <time>2019-08-17T15:20:02Z</time>
      </trkpt>
      <trkpt lat="42.3528530" lon="-7.8941530">
        <ele>100.2</ele>
        <time>2019-08-17T15:20:03Z</time>
      </trkpt>
      <trkpt lat="42.3528520" lon="-7.8942300">
        <ele>100.2</ele>
        <time>2019-08-17T15:20:04Z</time>
      </trkpt>
      <trkpt lat="42.3528500" lon="-7.8943050">
        <ele>100.2</ele>
        <time>2019-08-17T15:20:05Z</time>
      </trkpt>
      <trkpt lat="42.3528500" lon="-7.8943780">
        <ele>100.1</ele>
        <time>2019-08-17T15:20:06Z</time>
      </trkpt>
      <trkpt lat="42.3528490" lon="-7.8944500">
        <ele>100.1</ele>
        <time>2019-08-17T15:20:07Z</time>
      </trkpt>
      <trkpt lat="42.3528500" lon="-7.8945220">
        <ele>100.1</ele>
        <time>2019-08-17T15:20:08Z</time>
      </trkpt>
      <trkpt lat="42.3528500" lon="-7.8945930">
        <ele>100.1</ele>
        <time>2019-08-17T15:20:09Z</time>
      </trkpt>
      <trkpt lat="42.3528500" lon="-7.8946650">
        <ele>100.1</ele>
        <time>2019-08-17T15:20:10Z</time>
      </trkpt>
      <trkpt lat="42.3528510" lon="-7.8947360">
        <ele>100.1</ele>
        <time>2019-08-17T15:20:11Z</time>
      </trkpt>
      <trkpt lat="42.3528510" lon="-7.8948090">
        <ele>100.0</ele>
        <time>2019-08-17T15:20:12Z</time>
      </trkpt>
      <trkpt lat="42.3528510" lon="-7.8948830">
        <ele>100.0</ele>
        <time>2019-08-17T15:20:13Z</time>
      </trkpt>
      <trkpt lat="42.3528510" lon="-7.8949570">
        <ele>100.0</ele>
        <time>2019-08-17T15:20:14Z</time>
      </trkpt>
      <trkpt lat="42.3528510" lon="-7.8950320">
        <ele>100.0</ele>
        <time>2019-08-17T15:20:15Z</time>
      </trkpt>
      <trkpt lat="42.3528510" lon="-7.8951070">
        <ele>100.0</ele>
        <time>2019-08-17T15:20:16Z</time>
      </trkpt>
      <trkpt lat="42.3528510" lon="-7.8951830">
        <ele>100.0</ele>
        <time>2019-08-17T15:20:17Z</time>
      </trkpt>
      <trkpt lat="42.3528510" lon="-7.8952580">
        <ele>100.0</ele>
        <time>2019-08-17T15:20:18Z</time>
      </trkpt>
      <trkpt lat="42.3528500" lon="-7.8953340">
        <ele>99.9</ele>
        <time>2019-08-17T15:20:19Z</time>
      </trkpt>
      <trkpt lat="42.3528500" lon="-7.8954090">
        <ele>99.8</ele>
        <time>2019-08-17T15:20:20Z</time>
      </trkpt>
      <trkpt lat="42.3528490" lon="-7.8954830">
        <ele>99.4</ele>
        <time>2019-08-17T15:20:21Z</time>
      </trkpt>
      <trkpt lat="42.3528480" lon="-7.8955570">
        <ele>99.0</ele>
        <time>2019-08-17T15:20:22Z</time>
      </trkpt>
      <trkpt lat="42.3528460" lon="-7.8956300">
        <ele>98.6</ele>
        <time>2019-08-17T15:20:23Z</time>
      </trkpt>
      <trkpt lat="42.3528440" lon="-7.8957020">
        <ele>98.3</ele>
        <time>2019-08-17T15:20:24Z</time>
      </trkpt>
      <trkpt lat="42.3528410" lon="-7.8957720">
        <ele>98.0</ele>
        <time>2019-08-17T15:20:25Z</time>
      </trkpt>
      <trkpt lat="42.3528380" lon="-7.8958410">
        <ele>97.7</ele>
        <time>2019-08-17T15:20:26Z</time>
      </trkpt>
      <trkpt lat="42.3528330" lon="-7.8959070">
        <ele>97.4</ele>
        <time>2019-08-17T15:20:27Z</time>
      </trkpt>
      <trkpt lat="42.3528280" lon="-7.8959730">
        <ele>97.2</ele>
        <time>2019-08-17T15:20:28Z</time>
      </trkpt>
      <trkpt lat="42.3528220" lon="-7.8960360">
        <ele>96.9</ele>
        <time>2019-08-17T15:20:29Z</time>
      </trkpt>
      <trkpt lat="42.3528150" lon="-7.8960980">
        <ele>96.7</ele>
        <time>2019-08-17T15:20:30Z</time>
      </trkpt>
      <trkpt lat="42.3528080" lon="-7.8961590">
        <ele>96.5</ele>
        <time>2019-08-17T15:20:31Z</time>
      </trkpt>
      <trkpt lat="42.3528010" lon="-7.8962190">
        <ele>96.4</ele>
        <time>2019-08-17T15:20:32Z</time>
      </trkpt>
      <trkpt lat="42.3527930" lon="-7.8962770">
        <ele>96.3</ele>
        <time>2019-08-17T15:20:33Z</time>
      </trkpt>
      <trkpt lat="42.3527850" lon="-7.8963350">
        <ele>96.3</ele>
        <time>2019-08-17T15:20:34Z</time>
      </trkpt>
      <trkpt lat="42.3527760" lon="-7.8963930">
        <ele>96.3</ele>
        <time>2019-08-17T15:20:35Z</time>
      </trkpt>
      <trkpt lat="42.3527670" lon="-7.8964530">
        <ele>96.3</ele>
        <time>2019-08-17T15:20:36Z</time>
      </trkpt>
      <trkpt lat="42.3527580" lon="-7.8965160">
        <ele>97.0</ele>
        <time>2019-08-17T15:20:37Z</time>
      </trkpt>
      <trkpt lat="42.3527490" lon="-7.8965830">
        <ele>97.8</ele>
        <time>2019-08-17T15:20:38Z</time>
      </trkpt>
      <trkpt lat="42.3527380" lon="-7.8966530">
        <ele>98.6</ele>
        <time>2019-08-17T15:20:39Z</time>
      </trkpt>
      <trkpt lat="42.3527260" lon="-7.8967240">
        <ele>99.4</ele>
        <time>2019-08-17T15:20:40Z</time>
      </trkpt>
      <trkpt lat="42.3527030" lon="-7.8968300">
        <ele>100.6</ele>
        <time>2019-08-17T15:20:41Z</time>
      </trkpt>
      <trkpt lat="42.3526940" lon="-7.8968650">
        <ele>100.9</ele>
        <time>2019-08-17T15:20:42Z</time>
      </trkpt>
      <trkpt lat="42.3526740" lon="-7.8969330">
        <ele>101.6</ele>
        <time>2019-08-17T15:20:43Z</time>
      </trkpt>
      <trkpt lat="42.3526520" lon="-7.8970000">
        <ele>102.3</ele>
        <time>2019-08-17T15:20:44Z</time>
      </trkpt>
      <trkpt lat="42.3526290" lon="-7.8970660">
        <ele>102.9</ele>
        <time>2019-08-17T15:20:45Z</time>
      </trkpt>
      <trkpt lat="42.3526050" lon="-7.8971310">
        <ele>103.5</ele>
        <time>2019-08-17T15:20:46Z</time>
      </trkpt>
      <trkpt lat="42.3525810" lon="-7.8971960">
        <ele>104.0</ele>
        <time>2019-08-17T15:20:47Z</time>
      </trkpt>
      <trkpt lat="42.3525590" lon="-7.8972620">
        <ele>104.1</ele>
        <time>2019-08-17T15:20:48Z</time>
      </trkpt>
      <trkpt lat="42.3525380" lon="-7.8973280">
        <ele>104.1</ele>
        <time>2019-08-17T15:20:49Z</time>
      </trkpt>
      <trkpt lat="42.3525180" lon="-7.8973950">
        <ele>104.2</ele>
        <time>2019-08-17T15:20:50Z</time>
      </trkpt>
      <trkpt lat="42.3524990" lon="-7.8974620">
        <ele>104.3</ele>
        <time>2019-08-17T15:20:51Z</time>
      </trkpt>
      <trkpt lat="42.3524820" lon="-7.8975290">
        <ele>104.3</ele>
        <time>2019-08-17T15:20:52Z</time>
      </trkpt>
      <trkpt lat="42.3524650" lon="-7.8975960">
        <ele>104.4</ele>
        <time>2019-08-17T15:20:53Z</time>
      </trkpt>
      <trkpt lat="42.3524490" lon="-7.8976630">
        <ele>104.4</ele>
        <time>2019-08-17T15:20:54Z</time>
      </trkpt>
      <trkpt lat="42.3524340" lon="-7.8977300">
        <ele>104.5</ele>
        <time>2019-08-17T15:20:55Z</time>
      </trkpt>
      <trkpt lat="42.3524190" lon="-7.8977960">
        <ele>104.5</ele>
        <time>2019-08-17T15:20:56Z</time>
      </trkpt>
      <trkpt lat="42.3524050" lon="-7.8978620">
        <ele>104.5</ele>
        <time>2019-08-17T15:20:57Z</time>
      </trkpt>
      <trkpt lat="42.3523900" lon="-7.8979280">
        <ele>104.3</ele>
        <time>2019-08-17T15:20:58Z</time>
      </trkpt>
      <trkpt lat="42.3523750" lon="-7.8979930">
        <ele>104.0</ele>
        <time>2019-08-17T15:20:59Z</time>
      </trkpt>
      <trkpt lat="42.3523590" lon="-7.8980600">
        <ele>103.8</ele>
        <time>2019-08-17T15:21:00Z</time>
      </trkpt>
      <trkpt lat="42.3523410" lon="-7.8981270">
        <ele>103.5</ele>
        <time>2019-08-17T15:21:01Z</time>
      </trkpt>
      <trkpt lat="42.3523210" lon="-7.8981960">
        <ele>103.1</ele>
        <time>2019-08-17T15:21:02Z</time>
      </trkpt>
      <trkpt lat="42.3522990" lon="-7.8982660">
        <ele>102.7</ele>
        <time>2019-08-17T15:21:03Z</time>
      </trkpt>
      <trkpt lat="42.3522750" lon="-7.8983380">
        <ele>102.3</ele>
        <time>2019-08-17T15:21:04Z</time>
      </trkpt>
      <trkpt lat="42.3522500" lon="-7.8984090">
        <ele>101.7</ele>
        <time>2019-08-17T15:21:05Z</time>
      </trkpt>
      <trkpt lat="42.3522270" lon="-7.8984770">
        <ele>101.8</ele>
        <time>2019-08-17T15:21:06Z</time>
      </trkpt>
      <trkpt lat="42.3522090" lon="-7.8985390">
        <ele>101.8</ele>
        <time>2019-08-17T15:21:07Z</time>
      </trkpt>
      <trkpt lat="42.3521940" lon="-7.8985960">
        <ele>101.8</ele>
        <time>2019-08-17T15:21:08Z</time>
      </trkpt>
      <trkpt lat="42.3521740" lon="-7.8986570">
        <ele>101.7</ele>
        <time>2019-08-17T15:21:09Z</time>
      </trkpt>
      <trkpt lat="42.3521430" lon="-7.8987300">
        <ele>101.4</ele>
        <time>2019-08-17T15:21:10Z</time>
      </trkpt>
      <trkpt lat="42.3521120" lon="-7.8988030">
        <ele>101.0</ele>
        <time>2019-08-17T15:21:11Z</time>
      </trkpt>
      <trkpt lat="42.3520840" lon="-7.8988730">
        <ele>100.6</ele>
        <time>2019-08-17T15:21:12Z</time>
      </trkpt>
      <trkpt lat="42.3520590" lon="-7.8989400">
        <ele>100.1</ele>
        <time>2019-08-17T15:21:13Z</time>
      </trkpt>
      <trkpt lat="42.3520370" lon="-7.8990060">
        <ele>99.6</ele>
        <time>2019-08-17T15:21:14Z</time>
      </trkpt>
      <trkpt lat="42.3520150" lon="-7.8990710">
        <ele>99.1</ele>
        <time>2019-08-17T15:21:15Z</time>
      </trkpt>
      <trkpt lat="42.3519940" lon="-7.8991350">
        <ele>98.8</ele>
        <time>2019-08-17T15:21:16Z</time>
      </trkpt>
      <trkpt lat="42.3519730" lon="-7.8992000">
        <ele>98.8</ele>
        <time>2019-08-17T15:21:17Z</time>
      </trkpt>
      <trkpt lat="42.3519510" lon="-7.8992650">
        <ele>98.8</ele>
        <time>2019-08-17T15:21:18Z</time>
      </trkpt>
      <trkpt lat="42.3519280" lon="-7.8993320">
        <ele>98.8</ele>
        <time>2019-08-17T15:21:19Z</time>
      </trkpt>
      <trkpt lat="42.3519050" lon="-7.8993990">
        <ele>98.8</ele>
        <time>2019-08-17T15:21:20Z</time>
      </trkpt>
      <trkpt lat="42.3518800" lon="-7.8994670">
        <ele>98.8</ele>
        <time>2019-08-17T15:21:21Z</time>
      </trkpt>
      <trkpt lat="42.3518550" lon="-7.8995340">
        <ele>98.8</ele>
        <time>2019-08-17T15:21:22Z</time>
      </trkpt>
      <trkpt lat="42.3518300" lon="-7.8996020">
        <ele>98.8</ele>
        <time>2019-08-17T15:21:23Z</time>
      </trkpt>
      <trkpt lat="42.3518040" lon="-7.8996690">
        <ele>98.8</ele>
        <time>2019-08-17T15:21:24Z</time>
      </trkpt>
      <trkpt lat="42.3517770" lon="-7.8997360">
        <ele>98.8</ele>
        <time>2019-08-17T15:21:25Z</time>
      </trkpt>
      <trkpt lat="42.3517510" lon="-7.8998020">
        <ele>98.7</ele>
        <time>2019-08-17T15:21:26Z</time>
      </trkpt>
      <trkpt lat="42.3517230" lon="-7.8998670">
        <ele>98.6</ele>
        <time>2019-08-17T15:21:27Z</time>
      </trkpt>
      <trkpt lat="42.3516950" lon="-7.8999320">
        <ele>98.5</ele>
        <time>2019-08-17T15:21:28Z</time>
      </trkpt>
      <trkpt lat="42.3516660" lon="-7.8999960">
        <ele>98.4</ele>
        <time>2019-08-17T15:21:29Z</time>
      </trkpt>
      <trkpt lat="42.3516360" lon="-7.9000610">
        <ele>98.2</ele>
        <time>2019-08-17T15:21:30Z</time>
      </trkpt>
      <trkpt lat="42.3516040" lon="-7.9001250">
        <ele>98.1</ele>
        <time>2019-08-17T15:21:31Z</time>
      </trkpt>
      <trkpt lat="42.3515710" lon="-7.9001910">
        <ele>97.9</ele>
        <time>2019-08-17T15:21:32Z</time>
      </trkpt>
      <trkpt lat="42.3515370" lon="-7.9002560">
        <ele>97.7</ele>
        <time>2019-08-17T15:21:33Z</time>
      </trkpt>
      <trkpt lat="42.3515020" lon="-7.9003230">
        <ele>97.6</ele>
        <time>2019-08-17T15:21:34Z</time>
      </trkpt>
      <trkpt lat="42.3514680" lon="-7.9003890">
        <ele>97.6</ele>
        <time>2019-08-17T15:21:35Z</time>
      </trkpt>
      <trkpt lat="42.3514380" lon="-7.9004570">
        <ele>97.5</ele>
        <time>2019-08-17T15:21:36Z</time>
      </trkpt>
      <trkpt lat="42.3514130" lon="-7.9005240">
        <ele>97.5</ele>
        <time>2019-08-17T15:21:37Z</time>
      </trkpt>
      <trkpt lat="42.3513930" lon="-7.9005920">
        <ele>97.5</ele>
        <time>2019-08-17T15:21:38Z</time>
      </trkpt>
      <trkpt lat="42.3513820" lon="-7.9006610">
        <ele>97.5</ele>
        <time>2019-08-17T15:21:39Z</time>
      </trkpt>
      <trkpt lat="42.3513800" lon="-7.9007290">
        <ele>97.5</ele>
        <time>2019-08-17T15:21:40Z</time>
      </trkpt>
      <trkpt lat="42.3513850" lon="-7.9007980">
        <ele>97.4</ele>
        <time>2019-08-17T15:21:41Z</time>
      </trkpt>
      <trkpt lat="42.3513940" lon="-7.9008680">
        <ele>97.1</ele>
        <time>2019-08-17T15:21:42Z</time>
      </trkpt>
      <trkpt lat="42.3514060" lon="-7.9009380">
        <ele>96.7</ele>
        <time>2019-08-17T15:21:43Z</time>
      </trkpt>
      <trkpt lat="42.3514170" lon="-7.9010100">
        <ele>96.2</ele>
        <time>2019-08-17T15:21:44Z</time>
      </trkpt>
      <trkpt lat="42.3514260" lon="-7.9010820">
        <ele>95.8</ele>
        <time>2019-08-17T15:21:45Z</time>
      </trkpt>
      <trkpt lat="42.3514290" lon="-7.9011540">
        <ele>95.4</ele>
        <time>2019-08-17T15:21:46Z</time>
      </trkpt>
      <trkpt lat="42.3514250" lon="-7.9012260">
        <ele>95.0</ele>
        <time>2019-08-17T15:21:47Z</time>
      </trkpt>
      <trkpt lat="42.3514140" lon="-7.9012990">
        <ele>94.5</ele>
        <time>2019-08-17T15:21:48Z</time>
      </trkpt>
      <trkpt lat="42.3513980" lon="-7.9013700">
        <ele>94.0</ele>
        <time>2019-08-17T15:21:49Z</time>
      </trkpt>
      <trkpt lat="42.3513770" lon="-7.9014410">
        <ele>93.6</ele>
        <time>2019-08-17T15:21:50Z</time>
      </trkpt>
      <trkpt lat="42.3513520" lon="-7.9015120">
        <ele>93.5</ele>
        <time>2019-08-17T15:21:51Z</time>
      </trkpt>
      <trkpt lat="42.3513230" lon="-7.9015810">
        <ele>93.4</ele>
        <time>2019-08-17T15:21:52Z</time>
      </trkpt>
      <trkpt lat="42.3512920" lon="-7.9016490">
        <ele>93.3</ele>
        <time>2019-08-17T15:21:53Z</time>
      </trkpt>
      <trkpt lat="42.3512590" lon="-7.9017150">
        <ele>93.3</ele>
        <time>2019-08-17T15:21:54Z</time>
      </trkpt>
      <trkpt lat="42.3512260" lon="-7.9017800">
        <ele>93.3</ele>
        <time>2019-08-17T15:21:55Z</time>
      </trkpt>
      <trkpt lat="42.3511920" lon="-7.9018440">
        <ele>93.3</ele>
        <time>2019-08-17T15:21:56Z</time>
      </trkpt>
      <trkpt lat="42.3511580" lon="-7.9019060">
        <ele>93.3</ele>
        <time>2019-08-17T15:21:57Z</time>
      </trkpt>
      <trkpt lat="42.3511230" lon="-7.9019680">
        <ele>93.3</ele>
        <time>2019-08-17T15:21:58Z</time>
      </trkpt>
      <trkpt lat="42.3510890" lon="-7.9020290">
        <ele>93.3</ele>
        <time>2019-08-17T15:21:59Z</time>
      </trkpt>
      <trkpt lat="42.3510550" lon="-7.9020890">
        <ele>93.3</ele>
        <time>2019-08-17T15:22:00Z</time>
      </trkpt>
      <trkpt lat="42.3510220" lon="-7.9021500">
        <ele>93.3</ele>
        <time>2019-08-17T15:22:01Z</time>
      </trkpt>
      <trkpt lat="42.3509900" lon="-7.9022110">
        <ele>93.3</ele>
        <time>2019-08-17T15:22:02Z</time>
      </trkpt>
      <trkpt lat="42.3509580" lon="-7.9022730">
        <ele>93.3</ele>
        <time>2019-08-17T15:22:03Z</time>
      </trkpt>
      <trkpt lat="42.3509270" lon="-7.9023340">
        <ele>93.3</ele>
        <time>2019-08-17T15:22:04Z</time>
      </trkpt>
      <trkpt lat="42.3508960" lon="-7.9023950">
        <ele>93.3</ele>
        <time>2019-08-17T15:22:05Z</time>
      </trkpt>
      <trkpt lat="42.3508650" lon="-7.9024560">
        <ele>93.3</ele>
        <time>2019-08-17T15:22:06Z</time>
      </trkpt>
      <trkpt lat="42.3508340" lon="-7.9025170">
        <ele>93.3</ele>
        <time>2019-08-17T15:22:07Z</time>
      </trkpt>
      <trkpt lat="42.3508030" lon="-7.9025760">
        <ele>93.3</ele>
        <time>2019-08-17T15:22:08Z</time>
      </trkpt>
      <trkpt lat="42.3507710" lon="-7.9026350">
        <ele>93.3</ele>
        <time>2019-08-17T15:22:09Z</time>
      </trkpt>
      <trkpt lat="42.3507390" lon="-7.9026940">
        <ele>93.3</ele>
        <time>2019-08-17T15:22:10Z</time>
      </trkpt>
      <trkpt lat="42.3507070" lon="-7.9027520">
        <ele>93.3</ele>
        <time>2019-08-17T15:22:11Z</time>
      </trkpt>
      <trkpt lat="42.3506750" lon="-7.9028100">
        <ele>93.3</ele>
        <time>2019-08-17T15:22:12Z</time>
      </trkpt>
      <trkpt lat="42.3506440" lon="-7.9028670">
        <ele>93.3</ele>
        <time>2019-08-17T15:22:13Z</time>
      </trkpt>
      <trkpt lat="42.3506130" lon="-7.9029250">
        <ele>93.3</ele>
        <time>2019-08-17T15:22:14Z</time>
      </trkpt>
      <trkpt lat="42.3505840" lon="-7.9029840">
        <ele>93.3</ele>
        <time>2019-08-17T15:22:15Z</time>
      </trkpt>
      <trkpt lat="42.3505560" lon="-7.9030430">
        <ele>93.3</ele>
        <time>2019-08-17T15:22:16Z</time>
      </trkpt>
      <trkpt lat="42.3505290" lon="-7.9031030">
        <ele>93.3</ele>
        <time>2019-08-17T15:22:17Z</time>
      </trkpt>
      <trkpt lat="42.3505030" lon="-7.9031630">
        <ele>93.3</ele>
        <time>2019-08-17T15:22:18Z</time>
      </trkpt>
      <trkpt lat="42.3504780" lon="-7.9032230">
        <ele>93.3</ele>
        <time>2019-08-17T15:22:19Z</time>
      </trkpt>
      <trkpt lat="42.3504530" lon="-7.9032840">
        <ele>93.4</ele>
        <time>2019-08-17T15:22:20Z</time>
      </trkpt>
      <trkpt lat="42.3504290" lon="-7.9033440">
        <ele>93.5</ele>
        <time>2019-08-17T15:22:21Z</time>
      </trkpt>
      <trkpt lat="42.3504050" lon="-7.9034050">
        <ele>93.6</ele>
        <time>2019-08-17T15:22:22Z</time>
      </trkpt>
      <trkpt lat="42.3503800" lon="-7.9034650">
        <ele>93.9</ele>
        <time>2019-08-17T15:22:23Z</time>
      </trkpt>
      <trkpt lat="42.3503560" lon="-7.9035240">
        <ele>94.1</ele>
        <time>2019-08-17T15:22:24Z</time>
      </trkpt>
      <trkpt lat="42.3503310" lon="-7.9035830">
        <ele>94.4</ele>
        <time>2019-08-17T15:22:25Z</time>
      </trkpt>
      <trkpt lat="42.3503060" lon="-7.9036420">
        <ele>94.7</ele>
        <time>2019-08-17T15:22:26Z</time>
      </trkpt>
      <trkpt lat="42.3502820" lon="-7.9037020">
        <ele>94.9</ele>
        <time>2019-08-17T15:22:27Z</time>
      </trkpt>
      <trkpt lat="42.3502590" lon="-7.9037610">
        <ele>95.1</ele>
        <time>2019-08-17T15:22:28Z</time>
      </trkpt>
      <trkpt lat="42.3502370" lon="-7.9038210">
        <ele>95.3</ele>
        <time>2019-08-17T15:22:29Z</time>
      </trkpt>
      <trkpt lat="42.3502160" lon="-7.9038820">
        <ele>95.4</ele>
        <time>2019-08-17T15:22:30Z</time>
      </trkpt>
      <trkpt lat="42.3501970" lon="-7.9039440">
        <ele>95.4</ele>
        <time>2019-08-17T15:22:31Z</time>
      </trkpt>
      <trkpt lat="42.3501790" lon="-7.9040070">
        <ele>95.5</ele>
        <time>2019-08-17T15:22:32Z</time>
      </trkpt>
      <trkpt lat="42.3501620" lon="-7.9040700">
        <ele>95.5</ele>
        <time>2019-08-17T15:22:33Z</time>
      </trkpt>
      <trkpt lat="42.3501460" lon="-7.9041340">
        <ele>95.5</ele>
        <time>2019-08-17T15:22:34Z</time>
      </trkpt>
      <trkpt lat="42.3501290" lon="-7.9041980">
        <ele>95.5</ele>
        <time>2019-08-17T15:22:35Z</time>
      </trkpt>
      <trkpt lat="42.3501110" lon="-7.9042630">
        <ele>95.5</ele>
        <time>2019-08-17T15:22:36Z</time>
      </trkpt>
      <trkpt lat="42.3500920" lon="-7.9043280">
        <ele>95.5</ele>
        <time>2019-08-17T15:22:37Z</time>
      </trkpt>
      <trkpt lat="42.3500720" lon="-7.9043920">
        <ele>95.5</ele>
        <time>2019-08-17T15:22:38Z</time>
      </trkpt>
      <trkpt lat="42.3500500" lon="-7.9044570">
        <ele>95.5</ele>
        <time>2019-08-17T15:22:39Z</time>
      </trkpt>
      <trkpt lat="42.3500260" lon="-7.9045230">
        <ele>95.5</ele>
        <time>2019-08-17T15:22:40Z</time>
      </trkpt>
      <trkpt lat="42.3500020" lon="-7.9045890">
        <ele>95.5</ele>
        <time>2019-08-17T15:22:41Z</time>
      </trkpt>
      <trkpt lat="42.3499790" lon="-7.9046570">
        <ele>95.5</ele>
        <time>2019-08-17T15:22:42Z</time>
      </trkpt>
      <trkpt lat="42.3499580" lon="-7.9047270">
        <ele>95.5</ele>
        <time>2019-08-17T15:22:43Z</time>
      </trkpt>
      <trkpt lat="42.3499390" lon="-7.9048000">
        <ele>95.5</ele>
        <time>2019-08-17T15:22:44Z</time>
      </trkpt>
      <trkpt lat="42.3499240" lon="-7.9048750">
        <ele>95.5</ele>
        <time>2019-08-17T15:22:45Z</time>
      </trkpt>
      <trkpt lat="42.3499120" lon="-7.9049550">
        <ele>95.2</ele>
        <time>2019-08-17T15:22:46Z</time>
      </trkpt>
      <trkpt lat="42.3499020" lon="-7.9050380">
        <ele>94.7</ele>
        <time>2019-08-17T15:22:47Z</time>
      </trkpt>
      <trkpt lat="42.3498890" lon="-7.9051240">
        <ele>94.2</ele>
        <time>2019-08-17T15:22:48Z</time>
      </trkpt>
      <trkpt lat="42.3498710" lon="-7.9052150">
        <ele>93.7</ele>
        <time>2019-08-17T15:22:49Z</time>
      </trkpt>
      <trkpt lat="42.3498450" lon="-7.9053070">
        <ele>93.3</ele>
        <time>2019-08-17T15:22:50Z</time>
      </trkpt>
      <trkpt lat="42.3497860" lon="-7.9054300">
        <ele>93.0</ele>
        <time>2019-08-17T15:22:51Z</time>
      </trkpt>
      <trkpt lat="42.3497630" lon="-7.9054660">
        <ele>92.9</ele>
        <time>2019-08-17T15:22:52Z</time>
      </trkpt>
      <trkpt lat="42.3497110" lon="-7.9055270">
        <ele>92.8</ele>
        <time>2019-08-17T15:22:53Z</time>
      </trkpt>
      <trkpt lat="42.3496570" lon="-7.9055830">
        <ele>92.7</ele>
        <time>2019-08-17T15:22:54Z</time>
      </trkpt>
      <trkpt lat="42.3496040" lon="-7.9056340">
        <ele>92.7</ele>
        <time>2019-08-17T15:22:55Z</time>
      </trkpt>
      <trkpt lat="42.3495520" lon="-7.9056840">
        <ele>92.6</ele>
        <time>2019-08-17T15:22:56Z</time>
      </trkpt>
      <trkpt lat="42.3495030" lon="-7.9057340">
        <ele>92.6</ele>
        <time>2019-08-17T15:22:57Z</time>
      </trkpt>
      <trkpt lat="42.3494580" lon="-7.9057850">
        <ele>92.6</ele>
        <time>2019-08-17T15:22:58Z</time>
      </trkpt>
      <trkpt lat="42.3494150" lon="-7.9058380">
        <ele>92.6</ele>
        <time>2019-08-17T15:22:59Z</time>
      </trkpt>
      <trkpt lat="42.3493750" lon="-7.9058910">
        <ele>92.7</ele>
        <time>2019-08-17T15:23:00Z</time>
      </trkpt>
      <trkpt lat="42.3493350" lon="-7.9059430">
        <ele>92.7</ele>
        <time>2019-08-17T15:23:01Z</time>
      </trkpt>
      <trkpt lat="42.3492960" lon="-7.9059930">
        <ele>92.7</ele>
        <time>2019-08-17T15:23:02Z</time>
      </trkpt>
      <trkpt lat="42.3492580" lon="-7.9060420">
        <ele>92.7</ele>
        <time>2019-08-17T15:23:03Z</time>
      </trkpt>
      <trkpt lat="42.3492190" lon="-7.9060910">
        <ele>92.7</ele>
        <time>2019-08-17T15:23:04Z</time>
      </trkpt>
      <trkpt lat="42.3491810" lon="-7.9061400">
        <ele>92.6</ele>
        <time>2019-08-17T15:23:05Z</time>
      </trkpt>
      <trkpt lat="42.3491420" lon="-7.9061900">
        <ele>92.6</ele>
        <time>2019-08-17T15:23:06Z</time>
      </trkpt>
      <trkpt lat="42.3491020" lon="-7.9062410">
        <ele>92.6</ele>
        <time>2019-08-17T15:23:07Z</time>
      </trkpt>
      <trkpt lat="42.3490610" lon="-7.9062940">
        <ele>92.5</ele>
        <time>2019-08-17T15:23:08Z</time>
      </trkpt>
      <trkpt lat="42.3490200" lon="-7.9063480">
        <ele>92.5</ele>
        <time>2019-08-17T15:23:09Z</time>
      </trkpt>
      <trkpt lat="42.3489780" lon="-7.9064030">
        <ele>92.4</ele>
        <time>2019-08-17T15:23:10Z</time>
      </trkpt>
      <trkpt lat="42.3489360" lon="-7.9064610">
        <ele>92.4</ele>
        <time>2019-08-17T15:23:11Z</time>
      </trkpt>
      <trkpt lat="42.3488960" lon="-7.9065190">
        <ele>92.4</ele>
        <time>2019-08-17T15:23:12Z</time>
      </trkpt>
      <trkpt lat="42.3488560" lon="-7.9065800">
        <ele>92.3</ele>
        <time>2019-08-17T15:23:13Z</time>
      </trkpt>
      <trkpt lat="42.3488170" lon="-7.9066420">
        <ele>92.3</ele>
        <time>2019-08-17T15:23:14Z</time>
      </trkpt>
      <trkpt lat="42.3487810" lon="-7.9067060">
        <ele>92.3</ele>
        <time>2019-08-17T15:23:15Z</time>
      </trkpt>
      <trkpt lat="42.3487480" lon="-7.9067710">
        <ele>92.3</ele>
        <time>2019-08-17T15:23:16Z</time>
      </trkpt>
      <trkpt lat="42.3487210" lon="-7.9068390">
        <ele>92.3</ele>
        <time>2019-08-17T15:23:17Z</time>
      </trkpt>
      <trkpt lat="42.3487020" lon="-7.9069090">
        <ele>92.3</ele>
        <time>2019-08-17T15:23:18Z</time>
      </trkpt>
      <trkpt lat="42.3486920" lon="-7.9069820">
        <ele>92.3</ele>
        <time>2019-08-17T15:23:19Z</time>
      </trkpt>
      <trkpt lat="42.3486900" lon="-7.9070570">
        <ele>92.3</ele>
        <time>2019-08-17T15:23:20Z</time>
      </trkpt>
      <trkpt lat="42.3486930" lon="-7.9071340">
        <ele>92.3</ele>
        <time>2019-08-17T15:23:21Z</time>
      </trkpt>
      <trkpt lat="42.3486990" lon="-7.9072120">
        <ele>92.4</ele>
        <time>2019-08-17T15:23:22Z</time>
      </trkpt>
      <trkpt lat="42.3487060" lon="-7.9072900">
        <ele>92.4</ele>
        <time>2019-08-17T15:23:23Z</time>
      </trkpt>
      <trkpt lat="42.3487140" lon="-7.9073700">
        <ele>92.5</ele>
        <time>2019-08-17T15:23:24Z</time>
      </trkpt>
      <trkpt lat="42.3487210" lon="-7.9074490">
        <ele>92.6</ele>
        <time>2019-08-17T15:23:25Z</time>
      </trkpt>
      <trkpt lat="42.3487290" lon="-7.9075280">
        <ele>92.6</ele>
        <time>2019-08-17T15:23:26Z</time>
      </trkpt>
      <trkpt lat="42.3487360" lon="-7.9076070">
        <ele>92.7</ele>
        <time>2019-08-17T15:23:27Z</time>
      </trkpt>
      <trkpt lat="42.3487430" lon="-7.9076860">
        <ele>92.8</ele>
        <time>2019-08-17T15:23:28Z</time>
      </trkpt>
      <trkpt lat="42.3487490" lon="-7.9077640">
        <ele>92.9</ele>
        <time>2019-08-17T15:23:29Z</time>
      </trkpt>
      <trkpt lat="42.3487540" lon="-7.9078420">
        <ele>93.0</ele>
        <time>2019-08-17T15:23:30Z</time>
      </trkpt>
      <trkpt lat="42.3487580" lon="-7.9079180">
        <ele>93.1</ele>
        <time>2019-08-17T15:23:31Z</time>
      </trkpt>
      <trkpt lat="42.3487600" lon="-7.9079930">
        <ele>93.2</ele>
        <time>2019-08-17T15:23:32Z</time>
      </trkpt>
      <trkpt lat="42.3487610" lon="-7.9080660">
        <ele>93.2</ele>
        <time>2019-08-17T15:23:33Z</time>
      </trkpt>
      <trkpt lat="42.3487600" lon="-7.9081390">
        <ele>93.3</ele>
        <time>2019-08-17T15:23:34Z</time>
      </trkpt>
      <trkpt lat="42.3487560" lon="-7.9082100">
        <ele>93.3</ele>
        <time>2019-08-17T15:23:35Z</time>
      </trkpt>
      <trkpt lat="42.3487490" lon="-7.9082790">
        <ele>93.3</ele>
        <time>2019-08-17T15:23:36Z</time>
      </trkpt>
      <trkpt lat="42.3487400" lon="-7.9083470">
        <ele>93.4</ele>
        <time>2019-08-17T15:23:37Z</time>
      </trkpt>
      <trkpt lat="42.3487300" lon="-7.9084130">
        <ele>93.4</ele>
        <time>2019-08-17T15:23:38Z</time>
      </trkpt>
      <trkpt lat="42.3487210" lon="-7.9084790">
        <ele>93.4</ele>
        <time>2019-08-17T15:23:39Z</time>
      </trkpt>
      <trkpt lat="42.3487140" lon="-7.9085440">
        <ele>93.4</ele>
        <time>2019-08-17T15:23:40Z</time>
      </trkpt>
      <trkpt lat="42.3487120" lon="-7.9086100">
        <ele>93.4</ele>
        <time>2019-08-17T15:23:41Z</time>
      </trkpt>
      <trkpt lat="42.3487190" lon="-7.9087250">
        <ele>93.4</ele>
        <time>2019-08-17T15:23:42Z</time>
      </trkpt>
      <trkpt lat="42.3487220" lon="-7.9087730">
        <ele>93.4</ele>
        <time>2019-08-17T15:23:43Z</time>
      </trkpt>
      <trkpt lat="42.3487260" lon="-7.9088200">
        <ele>93.4</ele>
        <time>2019-08-17T15:23:44Z</time>
      </trkpt>
      <trkpt lat="42.3487340" lon="-7.9088960">
        <ele>93.4</ele>
        <time>2019-08-17T15:23:45Z</time>
      </trkpt>
      <trkpt lat="42.3487410" lon="-7.9089740">
        <ele>93.4</ele>
        <time>2019-08-17T15:23:46Z</time>
      </trkpt>
      <trkpt lat="42.3487490" lon="-7.9091090">
        <ele>93.4</ele>
        <time>2019-08-17T15:23:47Z</time>
      </trkpt>
      <trkpt lat="42.3487520" lon="-7.9091640">
        <ele>93.4</ele>
        <time>2019-08-17T15:23:48Z</time>
      </trkpt>
      <trkpt lat="42.3487540" lon="-7.9092190">
        <ele>93.4</ele>
        <time>2019-08-17T15:23:49Z</time>
      </trkpt>
      <trkpt lat="42.3487580" lon="-7.9093020">
        <ele>93.4</ele>
        <time>2019-08-17T15:23:50Z</time>
      </trkpt>
      <trkpt lat="42.3487650" lon="-7.9093850">
        <ele>93.4</ele>
        <time>2019-08-17T15:23:51Z</time>
      </trkpt>
      <trkpt lat="42.3487820" lon="-7.9095090">
        <ele>93.5</ele>
        <time>2019-08-17T15:23:52Z</time>
      </trkpt>
      <trkpt lat="42.3487880" lon="-7.9095500">
        <ele>93.5</ele>
        <time>2019-08-17T15:23:53Z</time>
      </trkpt>
      <trkpt lat="42.3488020" lon="-7.9096300">
        <ele>93.6</ele>
        <time>2019-08-17T15:23:54Z</time>
      </trkpt>
      <trkpt lat="42.3488170" lon="-7.9097100">
        <ele>93.7</ele>
        <time>2019-08-17T15:23:55Z</time>
      </trkpt>
      <trkpt lat="42.3488310" lon="-7.9097870">
        <ele>93.7</ele>
        <time>2019-08-17T15:23:56Z</time>
      </trkpt>
      <trkpt lat="42.3488440" lon="-7.9098620">
        <ele>93.9</ele>
        <time>2019-08-17T15:23:57Z</time>
      </trkpt>
      <trkpt lat="42.3488530" lon="-7.9099350">
        <ele>94.1</ele>
        <time>2019-08-17T15:23:58Z</time>
      </trkpt>
      <trkpt lat="42.3488580" lon="-7.9100060">
        <ele>94.3</ele>
        <time>2019-08-17T15:23:59Z</time>
      </trkpt>
      <trkpt lat="42.3488590" lon="-7.9100740">
        <ele>94.5</ele>
        <time>2019-08-17T15:24:00Z</time>
      </trkpt>
      <trkpt lat="42.3488580" lon="-7.9101400">
        <ele>94.7</ele>
        <time>2019-08-17T15:24:01Z</time>
      </trkpt>
      <trkpt lat="42.3488540" lon="-7.9102030">
        <ele>94.9</ele>
        <time>2019-08-17T15:24:02Z</time>
      </trkpt>
      <trkpt lat="42.3488490" lon="-7.9102640">
        <ele>95.2</ele>
        <time>2019-08-17T15:24:03Z</time>
      </trkpt>
      <trkpt lat="42.3488440" lon="-7.9103230">
        <ele>95.4</ele>
        <time>2019-08-17T15:24:04Z</time>
      </trkpt>
      <trkpt lat="42.3488390" lon="-7.9103800">
        <ele>95.7</ele>
        <time>2019-08-17T15:24:05Z</time>
      </trkpt>
      <trkpt lat="42.3488340" lon="-7.9104340">
        <ele>95.9</ele>
        <time>2019-08-17T15:24:06Z</time>
      </trkpt>
      <trkpt lat="42.3488310" lon="-7.9104870">
        <ele>96.1</ele>
        <time>2019-08-17T15:24:07Z</time>
      </trkpt>
      <trkpt lat="42.3488280" lon="-7.9105380">
        <ele>96.4</ele>
        <time>2019-08-17T15:24:08Z</time>
      </trkpt>
      <trkpt lat="42.3488250" lon="-7.9105870">
        <ele>96.6</ele>
        <time>2019-08-17T15:24:09Z</time>
      </trkpt>
      <trkpt lat="42.3488210" lon="-7.9106340">
        <ele>96.8</ele>
        <time>2019-08-17T15:24:10Z</time>
      </trkpt>
      <trkpt lat="42.3488170" lon="-7.9106790">
        <ele>97.0</ele>
        <time>2019-08-17T15:24:11Z</time>
      </trkpt>
      <trkpt lat="42.3488130" lon="-7.9107220">
        <ele>97.2</ele>
        <time>2019-08-17T15:24:12Z</time>
      </trkpt>
      <trkpt lat="42.3488070" lon="-7.9107630">
        <ele>97.5</ele>
        <time>2019-08-17T15:24:13Z</time>
      </trkpt>
      <trkpt lat="42.3488010" lon="-7.9108020">
        <ele>97.7</ele>
        <time>2019-08-17T15:24:14Z</time>
      </trkpt>
      <trkpt lat="42.3487940" lon="-7.9108400">
        <ele>97.9</ele>
        <time>2019-08-17T15:24:15Z</time>
      </trkpt>
      <trkpt lat="42.3487860" lon="-7.9108760">
        <ele>98.1</ele>
        <time>2019-08-17T15:24:16Z</time>
      </trkpt>
      <trkpt lat="42.3487790" lon="-7.9109120">
        <ele>98.3</ele>
        <time>2019-08-17T15:24:17Z</time>
      </trkpt>
      <trkpt lat="42.3487730" lon="-7.9109470">
        <ele>98.5</ele>
        <time>2019-08-17T15:24:18Z</time>
      </trkpt>
      <trkpt lat="42.3487660" lon="-7.9109820">
        <ele>98.7</ele>
        <time>2019-08-17T15:24:19Z</time>
      </trkpt>
      <trkpt lat="42.3487610" lon="-7.9110170">
        <ele>98.9</ele>
        <time>2019-08-17T15:24:20Z</time>
      </trkpt>
      <trkpt lat="42.3487580" lon="-7.9110520">
        <ele>99.0</ele>
        <time>2019-08-17T15:24:21Z</time>
      </trkpt>
      <trkpt lat="42.3487550" lon="-7.9110880">
        <ele>99.2</ele>
        <time>2019-08-17T15:24:22Z</time>
      </trkpt>
      <trkpt lat="42.3487540" lon="-7.9111240">
        <ele>99.4</ele>
        <time>2019-08-17T15:24:23Z</time>
      </trkpt>
      <trkpt lat="42.3487530" lon="-7.9111620">
        <ele>99.7</ele>
        <time>2019-08-17T15:24:24Z</time>
      </trkpt>
      <trkpt lat="42.3487540" lon="-7.9112010">
        <ele>99.9</ele>
        <time>2019-08-17T15:24:25Z</time>
      </trkpt>
      <trkpt lat="42.3487550" lon="-7.9112410">
        <ele>100.2</ele>
        <time>2019-08-17T15:24:26Z</time>
      </trkpt>
      <trkpt lat="42.3487570" lon="-7.9112830">
        <ele>100.4</ele>
        <time>2019-08-17T15:24:27Z</time>
      </trkpt>
      <trkpt lat="42.3487600" lon="-7.9113260">
        <ele>100.4</ele>
        <time>2019-08-17T15:24:28Z</time>
      </trkpt>
      <trkpt lat="42.3487650" lon="-7.9113710">
        <ele>100.4</ele>
        <time>2019-08-17T15:24:29Z</time>
      </trkpt>
      <trkpt lat="42.3487710" lon="-7.9114170">
        <ele>100.4</ele>
        <time>2019-08-17T15:24:30Z</time>
      </trkpt>
      <trkpt lat="42.3487790" lon="-7.9114640">
        <ele>100.4</ele>
        <time>2019-08-17T15:24:31Z</time>
      </trkpt>
      <trkpt lat="42.3487890" lon="-7.9115110">
        <ele>100.4</ele>
        <time>2019-08-17T15:24:32Z</time>
      </trkpt>
      <trkpt lat="42.3488000" lon="-7.9115580">
        <ele>100.4</ele>
        <time>2019-08-17T15:24:33Z</time>
      </trkpt>
      <trkpt lat="42.3488110" lon="-7.9116050">
        <ele>100.4</ele>
        <time>2019-08-17T15:24:34Z</time>
      </trkpt>
      <trkpt lat="42.3488180" lon="-7.9116520">
        <ele>100.4</ele>
        <time>2019-08-17T15:24:35Z</time>
      </trkpt>
      <trkpt lat="42.3488220" lon="-7.9117000">
        <ele>100.4</ele>
        <time>2019-08-17T15:24:36Z</time>
      </trkpt>
      <trkpt lat="42.3488220" lon="-7.9117470">
        <ele>100.4</ele>
        <time>2019-08-17T15:24:37Z</time>
      </trkpt>
      <trkpt lat="42.3488180" lon="-7.9117940">
        <ele>100.4</ele>
        <time>2019-08-17T15:24:38Z</time>
      </trkpt>
      <trkpt lat="42.3488100" lon="-7.9118400">
        <ele>100.4</ele>
        <time>2019-08-17T15:24:39Z</time>
      </trkpt>
      <trkpt lat="42.3488000" lon="-7.9118860">
        <ele>100.4</ele>
        <time>2019-08-17T15:24:40Z</time>
      </trkpt>
      <trkpt lat="42.3487880" lon="-7.9119310">
        <ele>100.4</ele>
        <time>2019-08-17T15:24:41Z</time>
      </trkpt>
      <trkpt lat="42.3487730" lon="-7.9119740">
        <ele>100.4</ele>
        <time>2019-08-17T15:24:42Z</time>
      </trkpt>
      <trkpt lat="42.3487560" lon="-7.9120160">
        <ele>100.4</ele>
        <time>2019-08-17T15:24:43Z</time>
      </trkpt>
      <trkpt lat="42.3487380" lon="-7.9120570">
        <ele>100.4</ele>
        <time>2019-08-17T15:24:44Z</time>
      </trkpt>
      <trkpt lat="42.3487170" lon="-7.9120980">
        <ele>100.4</ele>
        <time>2019-08-17T15:24:45Z</time>
      </trkpt>
      <trkpt lat="42.3486950" lon="-7.9121380">
        <ele>100.4</ele>
        <time>2019-08-17T15:24:46Z</time>
      </trkpt>
      <trkpt lat="42.3486720" lon="-7.9121790">
        <ele>100.4</ele>
        <time>2019-08-17T15:24:47Z</time>
      </trkpt>
      <trkpt lat="42.3486460" lon="-7.9122210">
        <ele>100.4</ele>
        <time>2019-08-17T15:24:48Z</time>
      </trkpt>
      <trkpt lat="42.3486200" lon="-7.9122640">
        <ele>100.4</ele>
        <time>2019-08-17T15:24:49Z</time>
      </trkpt>
      <trkpt lat="42.3485910" lon="-7.9123090">
        <ele>100.4</ele>
        <time>2019-08-17T15:24:50Z</time>
      </trkpt>
      <trkpt lat="42.3485610" lon="-7.9123550">
        <ele>100.4</ele>
        <time>2019-08-17T15:24:51Z</time>
      </trkpt>
      <trkpt lat="42.3485300" lon="-7.9124040">
        <ele>100.4</ele>
        <time>2019-08-17T15:24:52Z</time>
      </trkpt>
      <trkpt lat="42.3484980" lon="-7.9124560">
        <ele>100.4</ele>
        <time>2019-08-17T15:24:53Z</time>
      </trkpt>
      <trkpt lat="42.3484660" lon="-7.9125080">
        <ele>100.4</ele>
        <time>2019-08-17T15:24:54Z</time>
      </trkpt>
      <trkpt lat="42.3484340" lon="-7.9125640">
        <ele>100.3</ele>
        <time>2019-08-17T15:24:55Z</time>
      </trkpt>
      <trkpt lat="42.3484030" lon="-7.9126210">
        <ele>100.3</ele>
        <time>2019-08-17T15:24:56Z</time>
      </trkpt>
      <trkpt lat="42.3483730" lon="-7.9126810">
        <ele>100.3</ele>
        <time>2019-08-17T15:24:57Z</time>
      </trkpt>
      <trkpt lat="42.3483450" lon="-7.9127430">
        <ele>100.3</ele>
        <time>2019-08-17T15:24:58Z</time>
      </trkpt>
      <trkpt lat="42.3483170" lon="-7.9128040">
        <ele>100.3</ele>
        <time>2019-08-17T15:24:59Z</time>
      </trkpt>
      <trkpt lat="42.3482880" lon="-7.9128620">
        <ele>100.3</ele>
        <time>2019-08-17T15:25:00Z</time>
      </trkpt>
      <trkpt lat="42.3482580" lon="-7.9129150">
        <ele>100.3</ele>
        <time>2019-08-17T15:25:01Z</time>
      </trkpt>
      <trkpt lat="42.3482260" lon="-7.9129610">
        <ele>100.3</ele>
        <time>2019-08-17T15:25:02Z</time>
      </trkpt>
      <trkpt lat="42.3481920" lon="-7.9130010">
        <ele>100.3</ele>
        <time>2019-08-17T15:25:03Z</time>
      </trkpt>
      <trkpt lat="42.3481570" lon="-7.9130380">
        <ele>100.3</ele>
        <time>2019-08-17T15:25:04Z</time>
      </trkpt>
      <trkpt lat="42.3480960" lon="-7.9131010">
        <ele>100.3</ele>
        <time>2019-08-17T15:25:05Z</time>
      </trkpt>
      <trkpt lat="42.3480720" lon="-7.9131270">
        <ele>100.3</ele>
        <time>2019-08-17T15:25:06Z</time>
      </trkpt>
      <trkpt lat="42.3480470" lon="-7.9131520">
        <ele>100.3</ele>
        <time>2019-08-17T15:25:07Z</time>
      </trkpt>
      <trkpt lat="42.3480100" lon="-7.9131930">
        <ele>100.3</ele>
        <time>2019-08-17T15:25:08Z</time>
      </trkpt>
      <trkpt lat="42.3479710" lon="-7.9132350">
        <ele>100.3</ele>
        <time>2019-08-17T15:25:09Z</time>
      </trkpt>
      <trkpt lat="42.3479110" lon="-7.9133050">
        <ele>100.3</ele>
        <time>2019-08-17T15:25:10Z</time>
      </trkpt>
      <trkpt lat="42.3478870" lon="-7.9133310">
        <ele>100.3</ele>
        <time>2019-08-17T15:25:11Z</time>
      </trkpt>
      <trkpt lat="42.3478640" lon="-7.9133580">
        <ele>100.3</ele>
        <time>2019-08-17T15:25:12Z</time>
      </trkpt>
      <trkpt lat="42.3478330" lon="-7.9133950">
        <ele>100.3</ele>
        <time>2019-08-17T15:25:13Z</time>
      </trkpt>
      <trkpt lat="42.3478030" lon="-7.9134320">
        <ele>100.3</ele>
        <time>2019-08-17T15:25:14Z</time>
      </trkpt>
      <trkpt lat="42.3477730" lon="-7.9134700">
        <ele>100.3</ele>
        <time>2019-08-17T15:25:15Z</time>
      </trkpt>
      <trkpt lat="42.3477430" lon="-7.9135110">
        <ele>100.3</ele>
        <time>2019-08-17T15:25:16Z</time>
      </trkpt>
      <trkpt lat="42.3477120" lon="-7.9135550">
        <ele>100.3</ele>
        <time>2019-08-17T15:25:17Z</time>
      </trkpt>
      <trkpt lat="42.3476840" lon="-7.9136020">
        <ele>100.3</ele>
        <time>2019-08-17T15:25:18Z</time>
      </trkpt>
      <trkpt lat="42.3476590" lon="-7.9136550">
        <ele>100.0</ele>
        <time>2019-08-17T15:25:19Z</time>
      </trkpt>
      <trkpt lat="42.3476390" lon="-7.9137130">
        <ele>99.7</ele>
        <time>2019-08-17T15:25:20Z</time>
      </trkpt>
      <trkpt lat="42.3476240" lon="-7.9137760">
        <ele>99.4</ele>
        <time>2019-08-17T15:25:21Z</time>
      </trkpt>
      <trkpt lat="42.3476120" lon="-7.9138420">
        <ele>99.0</ele>
        <time>2019-08-17T15:25:22Z</time>
      </trkpt>
      <trkpt lat="42.3476020" lon="-7.9139100">
        <ele>98.5</ele>
        <time>2019-08-17T15:25:23Z</time>
      </trkpt>
      <trkpt lat="42.3475940" lon="-7.9139800">
        <ele>98.0</ele>
        <time>2019-08-17T15:25:24Z</time>
      </trkpt>
      <trkpt lat="42.3475870" lon="-7.9140500">
        <ele>97.6</ele>
        <time>2019-08-17T15:25:25Z</time>
      </trkpt>
      <trkpt lat="42.3475800" lon="-7.9141200">
        <ele>97.1</ele>
        <time>2019-08-17T15:25:26Z</time>
      </trkpt>
      <trkpt lat="42.3475720" lon="-7.9141880">
        <ele>96.7</ele>
        <time>2019-08-17T15:25:27Z</time>
      </trkpt>
      <trkpt lat="42.3475620" lon="-7.9142550">
        <ele>96.4</ele>
        <time>2019-08-17T15:25:28Z</time>
      </trkpt>
      <trkpt lat="42.3475510" lon="-7.9143200">
        <ele>96.0</ele>
        <time>2019-08-17T15:25:29Z</time>
      </trkpt>
      <trkpt lat="42.3475380" lon="-7.9143820">
        <ele>95.7</ele>
        <time>2019-08-17T15:25:30Z</time>
      </trkpt>
      <trkpt lat="42.3475220" lon="-7.9144430">
        <ele>95.4</ele>
        <time>2019-08-17T15:25:31Z</time>
      </trkpt>
      <trkpt lat="42.3475040" lon="-7.9145010">
        <ele>95.0</ele>
        <time>2019-08-17T15:25:32Z</time>
      </trkpt>
      <trkpt lat="42.3474830" lon="-7.9145560">
        <ele>94.6</ele>
        <time>2019-08-17T15:25:33Z</time>
      </trkpt>
      <trkpt lat="42.3474600" lon="-7.9146090">
        <ele>94.3</ele>
        <time>2019-08-17T15:25:34Z</time>
      </trkpt>
      <trkpt lat="42.3474330" lon="-7.9146610">
        <ele>94.0</ele>
        <time>2019-08-17T15:25:35Z</time>
      </trkpt>
      <trkpt lat="42.3474030" lon="-7.9147130">
        <ele>93.7</ele>
        <time>2019-08-17T15:25:36Z</time>
      </trkpt>
      <trkpt lat="42.3473710" lon="-7.9147680">
        <ele>93.6</ele>
        <time>2019-08-17T15:25:37Z</time>
      </trkpt>
      <trkpt lat="42.3473360" lon="-7.9148250">
        <ele>93.5</ele>
        <time>2019-08-17T15:25:38Z</time>
      </trkpt>
      <trkpt lat="42.3472990" lon="-7.9148840">
        <ele>93.5</ele>
        <time>2019-08-17T15:25:39Z</time>
      </trkpt>
      <trkpt lat="42.3472620" lon="-7.9149400">
        <ele>93.5</ele>
        <time>2019-08-17T15:25:40Z</time>
      </trkpt>
      <trkpt lat="42.3472250" lon="-7.9149920">
        <ele>93.7</ele>
        <time>2019-08-17T15:25:41Z</time>
      </trkpt>
      <trkpt lat="42.3471900" lon="-7.9150410">
        <ele>93.8</ele>
        <time>2019-08-17T15:25:42Z</time>
      </trkpt>
      <trkpt lat="42.3471560" lon="-7.9150860">
        <ele>94.0</ele>
        <time>2019-08-17T15:25:43Z</time>
      </trkpt>
      <trkpt lat="42.3471240" lon="-7.9151290">
        <ele>94.2</ele>
        <time>2019-08-17T15:25:44Z</time>
      </trkpt>
      <trkpt lat="42.3470940" lon="-7.9151690">
        <ele>94.4</ele>
        <time>2019-08-17T15:25:45Z</time>
      </trkpt>
      <trkpt lat="42.3470670" lon="-7.9152080">
        <ele>94.6</ele>
        <time>2019-08-17T15:25:46Z</time>
      </trkpt>
      <trkpt lat="42.3470440" lon="-7.9152470">
        <ele>94.7</ele>
        <time>2019-08-17T15:25:47Z</time>
      </trkpt>
      <trkpt lat="42.3470240" lon="-7.9152860">
        <ele>94.8</ele>
        <time>2019-08-17T15:25:48Z</time>
      </trkpt>
      <trkpt lat="42.3470090" lon="-7.9153250">
        <ele>94.9</ele>
        <time>2019-08-17T15:25:49Z</time>
      </trkpt>
      <trkpt lat="42.3469940" lon="-7.9153640">
        <ele>95.0</ele>
        <time>2019-08-17T15:25:50Z</time>
      </trkpt>
      <trkpt lat="42.3469780" lon="-7.9154010">
        <ele>95.1</ele>
        <time>2019-08-17T15:25:51Z</time>
      </trkpt>
      <trkpt lat="42.3469590" lon="-7.9154370">
        <ele>95.2</ele>
        <time>2019-08-17T15:25:52Z</time>
      </trkpt>
      <trkpt lat="42.3469330" lon="-7.9154690">
        <ele>95.2</ele>
        <time>2019-08-17T15:25:53Z</time>
      </trkpt>
      <trkpt lat="42.3469060" lon="-7.9154970">
        <ele>95.3</ele>
        <time>2019-08-17T15:25:54Z</time>
      </trkpt>
      <trkpt lat="42.3468790" lon="-7.9155210">
        <ele>95.4</ele>
        <time>2019-08-17T15:25:55Z</time>
      </trkpt>
      <trkpt lat="42.3468580" lon="-7.9155400">
        <ele>95.5</ele>
        <time>2019-08-17T15:25:56Z</time>
      </trkpt>
      <trkpt lat="42.3468410" lon="-7.9155550">
        <ele>95.5</ele>
        <time>2019-08-17T15:25:57Z</time>
      </trkpt>
      <trkpt lat="42.3468260" lon="-7.9155700">
        <ele>95.6</ele>
        <time>2019-08-17T15:25:58Z</time>
      </trkpt>
      <trkpt lat="42.3468210" lon="-7.9155740">
        <ele>95.6</ele>
        <time>2019-08-17T15:25:59Z</time>
      </trkpt>
      <trkpt lat="42.3468170" lon="-7.9155780">
        <ele>95.7</ele>
        <time>2019-08-17T15:26:00Z</time>
      </trkpt>
      <trkpt lat="42.3468130" lon="-7.9155820">
        <ele>95.7</ele>
        <time>2019-08-17T15:26:01Z</time>
      </trkpt>
      <trkpt lat="42.3468120" lon="-7.9155830">
        <ele>95.7</ele>
        <time>2019-08-17T15:26:02Z</time>
      </trkpt>
      <trkpt lat="42.3468110" lon="-7.9155850">
        <ele>95.7</ele>
        <time>2019-08-17T15:26:03Z</time>
      </trkpt>
      <trkpt lat="42.3468100" lon="-7.9155860">
        <ele>95.7</ele>
        <time>2019-08-17T15:26:04Z</time>
      </trkpt>
      <trkpt lat="42.3468080" lon="-7.9155870">
        <ele>95.7</ele>
        <time>2019-08-17T15:26:05Z</time>
      </trkpt>
      <trkpt lat="42.3468070" lon="-7.9155880">
        <ele>95.7</ele>
        <time>2019-08-17T15:26:06Z</time>
      </trkpt>
      <trkpt lat="42.3468060" lon="-7.9155900">
        <ele>95.7</ele>
        <time>2019-08-17T15:26:07Z</time>
      </trkpt>
      <trkpt lat="42.3468050" lon="-7.9155910">
        <ele>95.7</ele>
        <time>2019-08-17T15:26:08Z</time>
      </trkpt>
      <trkpt lat="42.3468040" lon="-7.9155920">
        <ele>95.7</ele>
        <time>2019-08-17T15:26:09Z</time>
      </trkpt>
      <trkpt lat="42.3467930" lon="-7.9156030">
        <ele>95.8</ele>
        <time>2019-08-17T15:26:10Z</time>
      </trkpt>
      <trkpt lat="42.3467790" lon="-7.9156170">
        <ele>95.9</ele>
        <time>2019-08-17T15:26:11Z</time>
      </trkpt>
      <trkpt lat="42.3467620" lon="-7.9156340">
        <ele>96.0</ele>
        <time>2019-08-17T15:26:12Z</time>
      </trkpt>
      <trkpt lat="42.3467430" lon="-7.9156540">
        <ele>96.2</ele>
        <time>2019-08-17T15:26:13Z</time>
      </trkpt>
      <trkpt lat="42.3467230" lon="-7.9156760">
        <ele>96.4</ele>
        <time>2019-08-17T15:26:14Z</time>
      </trkpt>
      <trkpt lat="42.3467020" lon="-7.9156990">
        <ele>96.6</ele>
        <time>2019-08-17T15:26:15Z</time>
      </trkpt>
      <trkpt lat="42.3466800" lon="-7.9157240">
        <ele>96.8</ele>
        <time>2019-08-17T15:26:16Z</time>
      </trkpt>
      <trkpt lat="42.3466590" lon="-7.9157500">
        <ele>97.1</ele>
        <time>2019-08-17T15:26:17Z</time>
      </trkpt>
      <trkpt lat="42.3466390" lon="-7.9157750">
        <ele>97.3</ele>
        <time>2019-08-17T15:26:18Z</time>
      </trkpt>
      <trkpt lat="42.3466200" lon="-7.9158020">
        <ele>97.6</ele>
        <time>2019-08-17T15:26:19Z</time>
      </trkpt>
      <trkpt lat="42.3466010" lon="-7.9158280">
        <ele>97.9</ele>
        <time>2019-08-17T15:26:20Z</time>
      </trkpt>
      <trkpt lat="42.3465820" lon="-7.9158550">
        <ele>98.2</ele>
        <time>2019-08-17T15:26:21Z</time>
      </trkpt>
      <trkpt lat="42.3465640" lon="-7.9158830">
        <ele>98.5</ele>
        <time>2019-08-17T15:26:22Z</time>
      </trkpt>
      <trkpt lat="42.3465450" lon="-7.9159110">
        <ele>98.8</ele>
        <time>2019-08-17T15:26:23Z</time>
      </trkpt>
      <trkpt lat="42.3465270" lon="-7.9159400">
        <ele>99.1</ele>
        <time>2019-08-17T15:26:24Z</time>
      </trkpt>
      <trkpt lat="42.3465080" lon="-7.9159690">
        <ele>99.5</ele>
        <time>2019-08-17T15:26:25Z</time>
      </trkpt>
      <trkpt lat="42.3464890" lon="-7.9159990">
        <ele>99.8</ele>
        <time>2019-08-17T15:26:26Z</time>
      </trkpt>
      <trkpt lat="42.3464700" lon="-7.9160300">
        <ele>100.1</ele>
        <time>2019-08-17T15:26:27Z</time>
      </trkpt>
      <trkpt lat="42.3464510" lon="-7.9160620">
        <ele>100.5</ele>
        <time>2019-08-17T15:26:28Z</time>
      </trkpt>
      <trkpt lat="42.3464320" lon="-7.9160960">
        <ele>100.8</ele>
        <time>2019-08-17T15:26:29Z</time>
      </trkpt>
      <trkpt lat="42.3464130" lon="-7.9161300">
        <ele>101.2</ele>
        <time>2019-08-17T15:26:30Z</time>
      </trkpt>
      <trkpt lat="42.3463960" lon="-7.9161660">
        <ele>101.5</ele>
        <time>2019-08-17T15:26:31Z</time>
      </trkpt>
      <trkpt lat="42.3463780" lon="-7.9162040">
        <ele>101.8</ele>
        <time>2019-08-17T15:26:32Z</time>
      </trkpt>
      <trkpt lat="42.3463620" lon="-7.9162430">
        <ele>102.0</ele>
        <time>2019-08-17T15:26:33Z</time>
      </trkpt>
      <trkpt lat="42.3463450" lon="-7.9162820">
        <ele>102.2</ele>
        <time>2019-08-17T15:26:34Z</time>
      </trkpt>
      <trkpt lat="42.3463280" lon="-7.9163210">
        <ele>102.4</ele>
        <time>2019-08-17T15:26:35Z</time>
      </trkpt>
      <trkpt lat="42.3463110" lon="-7.9163610">
        <ele>102.6</ele>
        <time>2019-08-17T15:26:36Z</time>
      </trkpt>
      <trkpt lat="42.3462930" lon="-7.9163990">
        <ele>102.7</ele>
        <time>2019-08-17T15:26:37Z</time>
      </trkpt>
      <trkpt lat="42.3462740" lon="-7.9164360">
        <ele>102.9</ele>
        <time>2019-08-17T15:26:38Z</time>
      </trkpt>
      <trkpt lat="42.3462560" lon="-7.9164720">
        <ele>103.0</ele>
        <time>2019-08-17T15:26:39Z</time>
      </trkpt>
      <trkpt lat="42.3462460" lon="-7.9165080">
        <ele>103.0</ele>
        <time>2019-08-17T15:26:40Z</time>
      </trkpt>
      <trkpt lat="42.3462520" lon="-7.9165470">
        <ele>103.1</ele>
        <time>2019-08-17T15:26:41Z</time>
      </trkpt>
      <trkpt lat="42.3462680" lon="-7.9165830">
        <ele>103.1</ele>
        <time>2019-08-17T15:26:42Z</time>
      </trkpt>
      <trkpt lat="42.3462870" lon="-7.9166130">
        <ele>103.0</ele>
        <time>2019-08-17T15:26:43Z</time>
      </trkpt>
      <trkpt lat="42.3463060" lon="-7.9166380">
        <ele>103.0</ele>
        <time>2019-08-17T15:26:44Z</time>
      </trkpt>
      <trkpt lat="42.3463260" lon="-7.9166600">
        <ele>102.9</ele>
        <time>2019-08-17T15:26:45Z</time>
      </trkpt>
      <trkpt lat="42.3463490" lon="-7.9166850">
        <ele>102.8</ele>
        <time>2019-08-17T15:26:46Z</time>
      </trkpt>
      <trkpt lat="42.3463740" lon="-7.9167160">
        <ele>102.6</ele>
        <time>2019-08-17T15:26:47Z</time>
      </trkpt>
      <trkpt lat="42.3464030" lon="-7.9167520">
        <ele>102.5</ele>
        <time>2019-08-17T15:26:48Z</time>
      </trkpt>
      <trkpt lat="42.3464330" lon="-7.9167920">
        <ele>102.3</ele>
        <time>2019-08-17T15:26:49Z</time>
      </trkpt>
      <trkpt lat="42.3464630" lon="-7.9168340">
        <ele>102.2</ele>
        <time>2019-08-17T15:26:50Z</time>
      </trkpt>
      <trkpt lat="42.3464930" lon="-7.9168770">
        <ele>102.0</ele>
        <time>2019-08-17T15:26:51Z</time>
      </trkpt>
      <trkpt lat="42.3465220" lon="-7.9169190">
        <ele>101.8</ele>
        <time>2019-08-17T15:26:52Z</time>
      </trkpt>
      <trkpt lat="42.3465500" lon="-7.9169610">
        <ele>101.6</ele>
        <time>2019-08-17T15:26:53Z</time>
      </trkpt>
      <trkpt lat="42.3465780" lon="-7.9170000">
        <ele>101.4</ele>
        <time>2019-08-17T15:26:54Z</time>
      </trkpt>
      <trkpt lat="42.3466040" lon="-7.9170320">
        <ele>101.2</ele>
        <time>2019-08-17T15:26:55Z</time>
      </trkpt>
      <trkpt lat="42.3466280" lon="-7.9170660">
        <ele>101.0</ele>
        <time>2019-08-17T15:26:56Z</time>
      </trkpt>
      <trkpt lat="42.3466470" lon="-7.9171030">
        <ele>100.8</ele>
        <time>2019-08-17T15:26:57Z</time>
      </trkpt>
      <trkpt lat="42.3466690" lon="-7.9171380">
        <ele>100.7</ele>
        <time>2019-08-17T15:26:58Z</time>
      </trkpt>
      <trkpt lat="42.3467120" lon="-7.9176050">
        <ele>103.3</ele>
        <time>2019-08-17T15:26:59Z</time>
      </trkpt>
      <trkpt lat="42.3467320" lon="-7.9179790">
        <ele>105.3</ele>
        <time>2019-08-17T15:28:28Z</time>
      </trkpt>
      <trkpt lat="42.3467640" lon="-7.9186570">
        <ele>109.1</ele>
        <time>2019-08-17T15:28:29Z</time>
      </trkpt>
      <trkpt lat="42.3467980" lon="-7.9192640">
        <ele>114.7</ele>
        <time>2019-08-17T15:28:30Z</time>
      </trkpt>
      <trkpt lat="42.3468050" lon="-7.9194820">
        <ele>115.0</ele>
        <time>2019-08-17T15:28:31Z</time>
      </trkpt>
      <trkpt lat="42.3468140" lon="-7.9195270">
        <ele>114.9</ele>
        <time>2019-08-17T15:28:32Z</time>
      </trkpt>
      <trkpt lat="42.3468250" lon="-7.9195620">
        <ele>114.9</ele>
        <time>2019-08-17T15:28:33Z</time>
      </trkpt>
      <trkpt lat="42.3468350" lon="-7.9196080">
        <ele>114.8</ele>
        <time>2019-08-17T15:28:34Z</time>
      </trkpt>
      <trkpt lat="42.3468490" lon="-7.9196580">
        <ele>114.7</ele>
        <time>2019-08-17T15:28:35Z</time>
      </trkpt>
      <trkpt lat="42.3468670" lon="-7.9197070">
        <ele>114.5</ele>
        <time>2019-08-17T15:28:36Z</time>
      </trkpt>
      <trkpt lat="42.3468950" lon="-7.9197870">
        <ele>114.0</ele>
        <time>2019-08-17T15:28:37Z</time>
      </trkpt>
      <trkpt lat="42.3469040" lon="-7.9198200">
        <ele>113.8</ele>
        <time>2019-08-17T15:28:38Z</time>
      </trkpt>
      <trkpt lat="42.3469130" lon="-7.9198520">
        <ele>113.5</ele>
        <time>2019-08-17T15:28:39Z</time>
      </trkpt>
      <trkpt lat="42.3469140" lon="-7.9199020">
        <ele>113.1</ele>
        <time>2019-08-17T15:28:40Z</time>
      </trkpt>
      <trkpt lat="42.3469070" lon="-7.9199510">
        <ele>112.6</ele>
        <time>2019-08-17T15:28:41Z</time>
      </trkpt>
      <trkpt lat="42.3468960" lon="-7.9199950">
        <ele>112.2</ele>
        <time>2019-08-17T15:28:42Z</time>
      </trkpt>
      <trkpt lat="42.3468840" lon="-7.9200320">
        <ele>111.8</ele>
        <time>2019-08-17T15:28:43Z</time>
      </trkpt>
      <trkpt lat="42.3468730" lon="-7.9200600">
        <ele>111.6</ele>
        <time>2019-08-17T15:28:44Z</time>
      </trkpt>
      <trkpt lat="42.3468610" lon="-7.9200860">
        <ele>111.3</ele>
        <time>2019-08-17T15:28:45Z</time>
      </trkpt>
      <trkpt lat="42.3468560" lon="-7.9200940">
        <ele>111.3</ele>
        <time>2019-08-17T15:28:46Z</time>
      </trkpt>
      <trkpt lat="42.3468520" lon="-7.9201010">
        <ele>111.2</ele>
        <time>2019-08-17T15:28:47Z</time>
      </trkpt>
      <trkpt lat="42.3468470" lon="-7.9201080">
        <ele>111.1</ele>
        <time>2019-08-17T15:28:48Z</time>
      </trkpt>
      <trkpt lat="42.3468430" lon="-7.9201150">
        <ele>111.1</ele>
        <time>2019-08-17T15:28:49Z</time>
      </trkpt>
      <trkpt lat="42.3468390" lon="-7.9201230">
        <ele>111.0</ele>
        <time>2019-08-17T15:28:50Z</time>
      </trkpt>
      <trkpt lat="42.3468360" lon="-7.9201350">
        <ele>110.9</ele>
        <time>2019-08-17T15:28:51Z</time>
      </trkpt>
      <trkpt lat="42.3468300" lon="-7.9201500">
        <ele>110.7</ele>
        <time>2019-08-17T15:28:52Z</time>
      </trkpt>
      <trkpt lat="42.3468220" lon="-7.9201670">
        <ele>110.5</ele>
        <time>2019-08-17T15:28:53Z</time>
      </trkpt>
      <trkpt lat="42.3468140" lon="-7.9201870">
        <ele>110.3</ele>
        <time>2019-08-17T15:28:54Z</time>
      </trkpt>
      <trkpt lat="42.3468050" lon="-7.9202070">
        <ele>110.1</ele>
        <time>2019-08-17T15:28:55Z</time>
      </trkpt>
      <trkpt lat="42.3467950" lon="-7.9202380">
        <ele>109.8</ele>
        <time>2019-08-17T15:28:56Z</time>
      </trkpt>
      <trkpt lat="42.3467830" lon="-7.9202860">
        <ele>109.5</ele>
        <time>2019-08-17T15:28:57Z</time>
      </trkpt>
      <trkpt lat="42.3467680" lon="-7.9203300">
        <ele>109.2</ele>
        <time>2019-08-17T15:28:58Z</time>
      </trkpt>
      <trkpt lat="42.3467520" lon="-7.9203690">
        <ele>109.0</ele>
        <time>2019-08-17T15:28:59Z</time>
      </trkpt>
      <trkpt lat="42.3467390" lon="-7.9204080">
        <ele>108.8</ele>
        <time>2019-08-17T15:29:00Z</time>
      </trkpt>
      <trkpt lat="42.3467320" lon="-7.9204520">
        <ele>108.7</ele>
        <time>2019-08-17T15:29:01Z</time>
      </trkpt>
      <trkpt lat="42.3467340" lon="-7.9205030">
        <ele>108.6</ele>
        <time>2019-08-17T15:29:02Z</time>
      </trkpt>
      <trkpt lat="42.3467410" lon="-7.9205570">
        <ele>108.5</ele>
        <time>2019-08-17T15:29:03Z</time>
      </trkpt>
      <trkpt lat="42.3467520" lon="-7.9206110">
        <ele>108.4</ele>
        <time>2019-08-17T15:29:04Z</time>
      </trkpt>
      <trkpt lat="42.3467640" lon="-7.9206590">
        <ele>108.4</ele>
        <time>2019-08-17T15:29:05Z</time>
      </trkpt>
      <trkpt lat="42.3467760" lon="-7.9207010">
        <ele>108.4</ele>
        <time>2019-08-17T15:29:06Z</time>
      </trkpt>
      <trkpt lat="42.3467880" lon="-7.9207380">
        <ele>108.4</ele>
        <time>2019-08-17T15:29:07Z</time>
      </trkpt>
      <trkpt lat="42.3467990" lon="-7.9207710">
        <ele>108.3</ele>
        <time>2019-08-17T15:29:08Z</time>
      </trkpt>
      <trkpt lat="42.3468100" lon="-7.9208000">
        <ele>108.2</ele>
        <time>2019-08-17T15:29:09Z</time>
      </trkpt>
      <trkpt lat="42.3468200" lon="-7.9208280">
        <ele>108.1</ele>
        <time>2019-08-17T15:29:10Z</time>
      </trkpt>
      <trkpt lat="42.3468290" lon="-7.9208540">
        <ele>108.0</ele>
        <time>2019-08-17T15:29:11Z</time>
      </trkpt>
      <trkpt lat="42.3468360" lon="-7.9208790">
        <ele>107.9</ele>
        <time>2019-08-17T15:29:12Z</time>
      </trkpt>
      <trkpt lat="42.3468430" lon="-7.9209040">
        <ele>107.7</ele>
        <time>2019-08-17T15:29:13Z</time>
      </trkpt>
      <trkpt lat="42.3468480" lon="-7.9209310">
        <ele>107.6</ele>
        <time>2019-08-17T15:29:14Z</time>
      </trkpt>
      <trkpt lat="42.3468530" lon="-7.9209590">
        <ele>107.4</ele>
        <time>2019-08-17T15:29:15Z</time>
      </trkpt>
      <trkpt lat="42.3468580" lon="-7.9209890">
        <ele>107.2</ele>
        <time>2019-08-17T15:29:16Z</time>
      </trkpt>
      <trkpt lat="42.3468650" lon="-7.9210230">
        <ele>107.0</ele>
        <time>2019-08-17T15:29:17Z</time>
      </trkpt>
      <trkpt lat="42.3468740" lon="-7.9210600">
        <ele>106.8</ele>
        <time>2019-08-17T15:29:18Z</time>
      </trkpt>
      <trkpt lat="42.3468850" lon="-7.9211030">
        <ele>106.6</ele>
        <time>2019-08-17T15:29:19Z</time>
      </trkpt>
      <trkpt lat="42.3468990" lon="-7.9211500">
        <ele>106.4</ele>
        <time>2019-08-17T15:29:20Z</time>
      </trkpt>
      <trkpt lat="42.3469160" lon="-7.9211990">
        <ele>106.2</ele>
        <time>2019-08-17T15:29:21Z</time>
      </trkpt>
      <trkpt lat="42.3469330" lon="-7.9212490">
        <ele>106.1</ele>
        <time>2019-08-17T15:29:22Z</time>
      </trkpt>
      <trkpt lat="42.3469500" lon="-7.9212970">
        <ele>105.9</ele>
        <time>2019-08-17T15:29:23Z</time>
      </trkpt>
      <trkpt lat="42.3469650" lon="-7.9213420">
        <ele>105.8</ele>
        <time>2019-08-17T15:29:24Z</time>
      </trkpt>
      <trkpt lat="42.3469750" lon="-7.9213850">
        <ele>105.6</ele>
        <time>2019-08-17T15:29:25Z</time>
      </trkpt>
      <trkpt lat="42.3469750" lon="-7.9214310">
        <ele>105.5</ele>
        <time>2019-08-17T15:29:26Z</time>
      </trkpt>
      <trkpt lat="42.3469630" lon="-7.9214830">
        <ele>105.3</ele>
        <time>2019-08-17T15:29:27Z</time>
      </trkpt>
      <trkpt lat="42.3469410" lon="-7.9215400">
        <ele>105.0</ele>
        <time>2019-08-17T15:29:28Z</time>
      </trkpt>
      <trkpt lat="42.3468960" lon="-7.9216390">
        <ele>104.6</ele>
        <time>2019-08-17T15:29:29Z</time>
      </trkpt>
      <trkpt lat="42.3468790" lon="-7.9216780">
        <ele>104.5</ele>
        <time>2019-08-17T15:29:30Z</time>
      </trkpt>
      <trkpt lat="42.3468610" lon="-7.9217180">
        <ele>104.4</ele>
        <time>2019-08-17T15:29:31Z</time>
      </trkpt>
      <trkpt lat="42.3468390" lon="-7.9217750">
        <ele>104.2</ele>
        <time>2019-08-17T15:29:32Z</time>
      </trkpt>
      <trkpt lat="42.3468210" lon="-7.9218290">
        <ele>104.1</ele>
        <time>2019-08-17T15:29:33Z</time>
      </trkpt>
      <trkpt lat="42.3467990" lon="-7.9219160">
        <ele>104.0</ele>
        <time>2019-08-17T15:29:34Z</time>
      </trkpt>
      <trkpt lat="42.3467910" lon="-7.9219510">
        <ele>104.0</ele>
        <time>2019-08-17T15:29:35Z</time>
      </trkpt>
      <trkpt lat="42.3467830" lon="-7.9219850">
        <ele>104.0</ele>
        <time>2019-08-17T15:29:36Z</time>
      </trkpt>
      <trkpt lat="42.3467680" lon="-7.9220370">
        <ele>103.9</ele>
        <time>2019-08-17T15:29:37Z</time>
      </trkpt>
      <trkpt lat="42.3467490" lon="-7.9220910">
        <ele>103.9</ele>
        <time>2019-08-17T15:29:38Z</time>
      </trkpt>
      <trkpt lat="42.3467260" lon="-7.9221470">
        <ele>103.9</ele>
        <time>2019-08-17T15:29:39Z</time>
      </trkpt>
      <trkpt lat="42.3466990" lon="-7.9222040">
        <ele>103.9</ele>
        <time>2019-08-17T15:29:40Z</time>
      </trkpt>
      <trkpt lat="42.3466700" lon="-7.9222620">
        <ele>104.0</ele>
        <time>2019-08-17T15:29:41Z</time>
      </trkpt>
      <trkpt lat="42.3466410" lon="-7.9223200">
        <ele>104.1</ele>
        <time>2019-08-17T15:29:42Z</time>
      </trkpt>
      <trkpt lat="42.3466110" lon="-7.9223760">
        <ele>104.2</ele>
        <time>2019-08-17T15:29:43Z</time>
      </trkpt>
      <trkpt lat="42.3465830" lon="-7.9224310">
        <ele>104.4</ele>
        <time>2019-08-17T15:29:44Z</time>
      </trkpt>
      <trkpt lat="42.3465590" lon="-7.9224830">
        <ele>104.6</ele>
        <time>2019-08-17T15:29:45Z</time>
      </trkpt>
      <trkpt lat="42.3465390" lon="-7.9225310">
        <ele>104.7</ele>
        <time>2019-08-17T15:29:46Z</time>
      </trkpt>
      <trkpt lat="42.3465220" lon="-7.9225750">
        <ele>104.8</ele>
        <time>2019-08-17T15:29:47Z</time>
      </trkpt>
      <trkpt lat="42.3465070" lon="-7.9226140">
        <ele>104.8</ele>
        <time>2019-08-17T15:29:48Z</time>
      </trkpt>
      <trkpt lat="42.3464900" lon="-7.9226490">
        <ele>104.9</ele>
        <time>2019-08-17T15:29:49Z</time>
      </trkpt>
      <trkpt lat="42.3464740" lon="-7.9226860">
        <ele>104.9</ele>
        <time>2019-08-17T15:29:50Z</time>
      </trkpt>
      <trkpt lat="42.3464580" lon="-7.9227310">
        <ele>104.9</ele>
        <time>2019-08-17T15:29:51Z</time>
      </trkpt>
      <trkpt lat="42.3464430" lon="-7.9227820">
        <ele>104.9</ele>
        <time>2019-08-17T15:29:52Z</time>
      </trkpt>
      <trkpt lat="42.3464280" lon="-7.9228320">
        <ele>104.9</ele>
        <time>2019-08-17T15:29:53Z</time>
      </trkpt>
      <trkpt lat="42.3464070" lon="-7.9229160">
        <ele>104.9</ele>
        <time>2019-08-17T15:29:54Z</time>
      </trkpt>
      <trkpt lat="42.3463990" lon="-7.9229510">
        <ele>104.8</ele>
        <time>2019-08-17T15:29:55Z</time>
      </trkpt>
      <trkpt lat="42.3463920" lon="-7.9229850">
        <ele>104.8</ele>
        <time>2019-08-17T15:29:56Z</time>
      </trkpt>
      <trkpt lat="42.3463850" lon="-7.9230410">
        <ele>104.7</ele>
        <time>2019-08-17T15:29:57Z</time>
      </trkpt>
      <trkpt lat="42.3463800" lon="-7.9231000">
        <ele>104.5</ele>
        <time>2019-08-17T15:29:58Z</time>
      </trkpt>
      <trkpt lat="42.3463740" lon="-7.9232100">
        <ele>104.2</ele>
        <time>2019-08-17T15:29:59Z</time>
      </trkpt>
      <trkpt lat="42.3463720" lon="-7.9232560">
        <ele>104.1</ele>
        <time>2019-08-17T15:30:00Z</time>
      </trkpt>
      <trkpt lat="42.3463700" lon="-7.9233030">
        <ele>104.0</ele>
        <time>2019-08-17T15:30:01Z</time>
      </trkpt>
      <trkpt lat="42.3463650" lon="-7.9233770">
        <ele>103.8</ele>
        <time>2019-08-17T15:30:02Z</time>
      </trkpt>
      <trkpt lat="42.3463580" lon="-7.9234500">
        <ele>103.6</ele>
        <time>2019-08-17T15:30:03Z</time>
      </trkpt>
      <trkpt lat="42.3463440" lon="-7.9235520">
        <ele>103.3</ele>
        <time>2019-08-17T15:30:04Z</time>
      </trkpt>
      <trkpt lat="42.3463380" lon="-7.9235850">
        <ele>103.2</ele>
        <time>2019-08-17T15:30:05Z</time>
      </trkpt>
      <trkpt lat="42.3463250" lon="-7.9236470">
        <ele>103.1</ele>
        <time>2019-08-17T15:30:06Z</time>
      </trkpt>
      <trkpt lat="42.3463100" lon="-7.9237070">
        <ele>102.9</ele>
        <time>2019-08-17T15:30:07Z</time>
      </trkpt>
      <trkpt lat="42.3462950" lon="-7.9237650">
        <ele>102.8</ele>
        <time>2019-08-17T15:30:08Z</time>
      </trkpt>
      <trkpt lat="42.3462780" lon="-7.9238220">
        <ele>102.8</ele>
        <time>2019-08-17T15:30:09Z</time>
      </trkpt>
      <trkpt lat="42.3462610" lon="-7.9238780">
        <ele>102.8</ele>
        <time>2019-08-17T15:30:10Z</time>
      </trkpt>
      <trkpt lat="42.3462430" lon="-7.9239350">
        <ele>102.8</ele>
        <time>2019-08-17T15:30:11Z</time>
      </trkpt>
      <trkpt lat="42.3462260" lon="-7.9239920">
        <ele>102.8</ele>
        <time>2019-08-17T15:30:12Z</time>
      </trkpt>
      <trkpt lat="42.3462090" lon="-7.9240500">
        <ele>102.9</ele>
        <time>2019-08-17T15:30:13Z</time>
      </trkpt>
      <trkpt lat="42.3461920" lon="-7.9241090">
        <ele>103.0</ele>
        <time>2019-08-17T15:30:14Z</time>
      </trkpt>
      <trkpt lat="42.3461750" lon="-7.9241690">
        <ele>103.1</ele>
        <time>2019-08-17T15:30:15Z</time>
      </trkpt>
      <trkpt lat="42.3461590" lon="-7.9242320">
        <ele>103.2</ele>
        <time>2019-08-17T15:30:16Z</time>
      </trkpt>
      <trkpt lat="42.3461420" lon="-7.9242950">
        <ele>103.4</ele>
        <time>2019-08-17T15:30:17Z</time>
      </trkpt>
      <trkpt lat="42.3461250" lon="-7.9243610">
        <ele>103.7</ele>
        <time>2019-08-17T15:30:18Z</time>
      </trkpt>
      <trkpt lat="42.3461070" lon="-7.9244290">
        <ele>103.9</ele>
        <time>2019-08-17T15:30:19Z</time>
      </trkpt>
      <trkpt lat="42.3460900" lon="-7.9244980">
        <ele>104.2</ele>
        <time>2019-08-17T15:30:20Z</time>
      </trkpt>
      <trkpt lat="42.3460720" lon="-7.9245680">
        <ele>104.5</ele>
        <time>2019-08-17T15:30:21Z</time>
      </trkpt>
      <trkpt lat="42.3460540" lon="-7.9246370">
        <ele>104.7</ele>
        <time>2019-08-17T15:30:22Z</time>
      </trkpt>
      <trkpt lat="42.3460360" lon="-7.9247050">
        <ele>104.8</ele>
        <time>2019-08-17T15:30:23Z</time>
      </trkpt>
      <trkpt lat="42.3460180" lon="-7.9247700">
        <ele>104.8</ele>
        <time>2019-08-17T15:30:24Z</time>
      </trkpt>
      <trkpt lat="42.3459990" lon="-7.9248330">
        <ele>104.8</ele>
        <time>2019-08-17T15:30:25Z</time>
      </trkpt>
      <trkpt lat="42.3459800" lon="-7.9248920">
        <ele>104.8</ele>
        <time>2019-08-17T15:30:26Z</time>
      </trkpt>
      <trkpt lat="42.3459610" lon="-7.9249460">
        <ele>104.8</ele>
        <time>2019-08-17T15:30:27Z</time>
      </trkpt>
      <trkpt lat="42.3459430" lon="-7.9249970">
        <ele>104.8</ele>
        <time>2019-08-17T15:30:28Z</time>
      </trkpt>
      <trkpt lat="42.3459240" lon="-7.9250440">
        <ele>104.8</ele>
        <time>2019-08-17T15:30:29Z</time>
      </trkpt>
      <trkpt lat="42.3459050" lon="-7.9250880">
        <ele>104.8</ele>
        <time>2019-08-17T15:30:30Z</time>
      </trkpt>
      <trkpt lat="42.3458870" lon="-7.9251270">
        <ele>104.8</ele>
        <time>2019-08-17T15:30:31Z</time>
      </trkpt>
      <trkpt lat="42.3458700" lon="-7.9251630">
        <ele>104.8</ele>
        <time>2019-08-17T15:30:32Z</time>
      </trkpt>
      <trkpt lat="42.3458530" lon="-7.9251960">
        <ele>104.8</ele>
        <time>2019-08-17T15:30:33Z</time>
      </trkpt>
      <trkpt lat="42.3458360" lon="-7.9252260">
        <ele>104.8</ele>
        <time>2019-08-17T15:30:34Z</time>
      </trkpt>
      <trkpt lat="42.3458200" lon="-7.9252540">
        <ele>104.8</ele>
        <time>2019-08-17T15:30:35Z</time>
      </trkpt>
      <trkpt lat="42.3458040" lon="-7.9252810">
        <ele>104.8</ele>
        <time>2019-08-17T15:30:36Z</time>
      </trkpt>
      <trkpt lat="42.3457880" lon="-7.9253080">
        <ele>104.8</ele>
        <time>2019-08-17T15:30:37Z</time>
      </trkpt>
      <trkpt lat="42.3457710" lon="-7.9253360">
        <ele>104.8</ele>
        <time>2019-08-17T15:30:38Z</time>
      </trkpt>
      <trkpt lat="42.3457540" lon="-7.9253660">
        <ele>104.8</ele>
        <time>2019-08-17T15:30:39Z</time>
      </trkpt>
      <trkpt lat="42.3457370" lon="-7.9253980">
        <ele>104.8</ele>
        <time>2019-08-17T15:30:40Z</time>
      </trkpt>
      <trkpt lat="42.3457190" lon="-7.9254340">
        <ele>104.7</ele>
        <time>2019-08-17T15:30:41Z</time>
      </trkpt>
      <trkpt lat="42.3457010" lon="-7.9254730">
        <ele>104.7</ele>
        <time>2019-08-17T15:30:42Z</time>
      </trkpt>
      <trkpt lat="42.3456820" lon="-7.9255130">
        <ele>104.7</ele>
        <time>2019-08-17T15:30:43Z</time>
      </trkpt>
      <trkpt lat="42.3456640" lon="-7.9255550">
        <ele>104.7</ele>
        <time>2019-08-17T15:30:44Z</time>
      </trkpt>
      <trkpt lat="42.3456460" lon="-7.9255970">
        <ele>104.7</ele>
        <time>2019-08-17T15:30:45Z</time>
      </trkpt>
      <trkpt lat="42.3456290" lon="-7.9256390">
        <ele>104.7</ele>
        <time>2019-08-17T15:30:46Z</time>
      </trkpt>
      <trkpt lat="42.3456130" lon="-7.9256800">
        <ele>104.7</ele>
        <time>2019-08-17T15:30:47Z</time>
      </trkpt>
      <trkpt lat="42.3455980" lon="-7.9257190">
        <ele>104.7</ele>
        <time>2019-08-17T15:30:48Z</time>
      </trkpt>
      <trkpt lat="42.3455850" lon="-7.9257580">
        <ele>104.7</ele>
        <time>2019-08-17T15:30:49Z</time>
      </trkpt>
      <trkpt lat="42.3455740" lon="-7.9257980">
        <ele>104.7</ele>
        <time>2019-08-17T15:30:50Z</time>
      </trkpt>
      <trkpt lat="42.3455660" lon="-7.9258410">
        <ele>104.7</ele>
        <time>2019-08-17T15:30:51Z</time>
      </trkpt>
      <trkpt lat="42.3455600" lon="-7.9258870">
        <ele>104.7</ele>
        <time>2019-08-17T15:30:52Z</time>
      </trkpt>
      <trkpt lat="42.3455540" lon="-7.9259350">
        <ele>104.7</ele>
        <time>2019-08-17T15:30:53Z</time>
      </trkpt>
      <trkpt lat="42.3455440" lon="-7.9259830">
        <ele>104.7</ele>
        <time>2019-08-17T15:30:54Z</time>
      </trkpt>
      <trkpt lat="42.3455290" lon="-7.9260280">
        <ele>104.7</ele>
        <time>2019-08-17T15:30:55Z</time>
      </trkpt>
      <trkpt lat="42.3455100" lon="-7.9260730">
        <ele>104.6</ele>
        <time>2019-08-17T15:30:56Z</time>
      </trkpt>
      <trkpt lat="42.3454900" lon="-7.9261170">
        <ele>104.6</ele>
        <time>2019-08-17T15:30:57Z</time>
      </trkpt>
      <trkpt lat="42.3454700" lon="-7.9261630">
        <ele>104.6</ele>
        <time>2019-08-17T15:30:58Z</time>
      </trkpt>
      <trkpt lat="42.3454530" lon="-7.9262100">
        <ele>104.5</ele>
        <time>2019-08-17T15:30:59Z</time>
      </trkpt>
      <trkpt lat="42.3454390" lon="-7.9262590">
        <ele>104.4</ele>
        <time>2019-08-17T15:31:00Z</time>
      </trkpt>
      <trkpt lat="42.3454280" lon="-7.9263080">
        <ele>104.3</ele>
        <time>2019-08-17T15:31:01Z</time>
      </trkpt>
      <trkpt lat="42.3454180" lon="-7.9263560">
        <ele>104.2</ele>
        <time>2019-08-17T15:31:02Z</time>
      </trkpt>
      <trkpt lat="42.3454080" lon="-7.9264050">
        <ele>104.0</ele>
        <time>2019-08-17T15:31:03Z</time>
      </trkpt>
      <trkpt lat="42.3453950" lon="-7.9264540">
        <ele>103.9</ele>
        <time>2019-08-17T15:31:04Z</time>
      </trkpt>
      <trkpt lat="42.3453760" lon="-7.9265040">
        <ele>103.7</ele>
        <time>2019-08-17T15:31:05Z</time>
      </trkpt>
      <trkpt lat="42.3453490" lon="-7.9265560">
        <ele>103.4</ele>
        <time>2019-08-17T15:31:06Z</time>
      </trkpt>
      <trkpt lat="42.3453160" lon="-7.9266100">
        <ele>103.2</ele>
        <time>2019-08-17T15:31:07Z</time>
      </trkpt>
      <trkpt lat="42.3452810" lon="-7.9266660">
        <ele>103.0</ele>
        <time>2019-08-17T15:31:08Z</time>
      </trkpt>
      <trkpt lat="42.3452240" lon="-7.9267660">
        <ele>102.7</ele>
        <time>2019-08-17T15:31:09Z</time>
      </trkpt>
      <trkpt lat="42.3452030" lon="-7.9268070">
        <ele>102.7</ele>
        <time>2019-08-17T15:31:10Z</time>
      </trkpt>
      <trkpt lat="42.3451820" lon="-7.9268480">
        <ele>102.6</ele>
        <time>2019-08-17T15:31:11Z</time>
      </trkpt>
      <trkpt lat="42.3451550" lon="-7.9269130">
        <ele>102.5</ele>
        <time>2019-08-17T15:31:12Z</time>
      </trkpt>
      <trkpt lat="42.3451290" lon="-7.9269780">
        <ele>102.4</ele>
        <time>2019-08-17T15:31:13Z</time>
      </trkpt>
      <trkpt lat="42.3451040" lon="-7.9270440">
        <ele>102.3</ele>
        <time>2019-08-17T15:31:14Z</time>
      </trkpt>
      <trkpt lat="42.3450810" lon="-7.9271110">
        <ele>102.2</ele>
        <time>2019-08-17T15:31:15Z</time>
      </trkpt>
      <trkpt lat="42.3450580" lon="-7.9271770">
        <ele>102.0</ele>
        <time>2019-08-17T15:31:16Z</time>
      </trkpt>
      <trkpt lat="42.3450350" lon="-7.9272420">
        <ele>101.8</ele>
        <time>2019-08-17T15:31:17Z</time>
      </trkpt>
      <trkpt lat="42.3449950" lon="-7.9273460">
        <ele>101.6</ele>
        <time>2019-08-17T15:31:18Z</time>
      </trkpt>
      <trkpt lat="42.3449790" lon="-7.9273850">
        <ele>101.5</ele>
        <time>2019-08-17T15:31:19Z</time>
      </trkpt>
      <trkpt lat="42.3449630" lon="-7.9274250">
        <ele>101.4</ele>
        <time>2019-08-17T15:31:20Z</time>
      </trkpt>
      <trkpt lat="42.3449360" lon="-7.9274790">
        <ele>101.2</ele>
        <time>2019-08-17T15:31:21Z</time>
      </trkpt>
      <trkpt lat="42.3449060" lon="-7.9275300">
        <ele>101.1</ele>
        <time>2019-08-17T15:31:22Z</time>
      </trkpt>
      <trkpt lat="42.3448660" lon="-7.9275820">
        <ele>100.9</ele>
        <time>2019-08-17T15:31:23Z</time>
      </trkpt>
      <trkpt lat="42.3448260" lon="-7.9276340">
        <ele>100.8</ele>
        <time>2019-08-17T15:31:24Z</time>
      </trkpt>
      <trkpt lat="42.3447860" lon="-7.9276910">
        <ele>100.6</ele>
        <time>2019-08-17T15:31:25Z</time>
      </trkpt>
      <trkpt lat="42.3447590" lon="-7.9277520">
        <ele>100.6</ele>
        <time>2019-08-17T15:31:26Z</time>
      </trkpt>
      <trkpt lat="42.3447420" lon="-7.9278180">
        <ele>100.6</ele>
        <time>2019-08-17T15:31:27Z</time>
      </trkpt>
      <trkpt lat="42.3447300" lon="-7.9278890">
        <ele>100.6</ele>
        <time>2019-08-17T15:31:28Z</time>
      </trkpt>
      <trkpt lat="42.3447190" lon="-7.9279630">
        <ele>100.6</ele>
        <time>2019-08-17T15:31:29Z</time>
      </trkpt>
      <trkpt lat="42.3447020" lon="-7.9280380">
        <ele>100.6</ele>
        <time>2019-08-17T15:31:30Z</time>
      </trkpt>
      <trkpt lat="42.3446780" lon="-7.9281090">
        <ele>100.7</ele>
        <time>2019-08-17T15:31:31Z</time>
      </trkpt>
      <trkpt lat="42.3446490" lon="-7.9281730">
        <ele>100.9</ele>
        <time>2019-08-17T15:31:32Z</time>
      </trkpt>
      <trkpt lat="42.3446160" lon="-7.9282320">
        <ele>101.0</ele>
        <time>2019-08-17T15:31:33Z</time>
      </trkpt>
      <trkpt lat="42.3445820" lon="-7.9282860">
        <ele>101.1</ele>
        <time>2019-08-17T15:31:34Z</time>
      </trkpt>
      <trkpt lat="42.3445480" lon="-7.9283350">
        <ele>101.2</ele>
        <time>2019-08-17T15:31:35Z</time>
      </trkpt>
      <trkpt lat="42.3445130" lon="-7.9283810">
        <ele>101.3</ele>
        <time>2019-08-17T15:31:36Z</time>
      </trkpt>
      <trkpt lat="42.3444780" lon="-7.9284260">
        <ele>101.3</ele>
        <time>2019-08-17T15:31:37Z</time>
      </trkpt>
      <trkpt lat="42.3444420" lon="-7.9284700">
        <ele>101.3</ele>
        <time>2019-08-17T15:31:38Z</time>
      </trkpt>
      <trkpt lat="42.3444050" lon="-7.9285160">
        <ele>101.3</ele>
        <time>2019-08-17T15:31:39Z</time>
      </trkpt>
      <trkpt lat="42.3443660" lon="-7.9285640">
        <ele>101.2</ele>
        <time>2019-08-17T15:31:40Z</time>
      </trkpt>
      <trkpt lat="42.3443280" lon="-7.9286130">
        <ele>101.0</ele>
        <time>2019-08-17T15:31:41Z</time>
      </trkpt>
      <trkpt lat="42.3442890" lon="-7.9286640">
        <ele>100.9</ele>
        <time>2019-08-17T15:31:42Z</time>
      </trkpt>
      <trkpt lat="42.3442510" lon="-7.9287160">
        <ele>100.8</ele>
        <time>2019-08-17T15:31:43Z</time>
      </trkpt>
      <trkpt lat="42.3442130" lon="-7.9287700">
        <ele>100.7</ele>
        <time>2019-08-17T15:31:44Z</time>
      </trkpt>
      <trkpt lat="42.3441770" lon="-7.9288250">
        <ele>100.7</ele>
        <time>2019-08-17T15:31:45Z</time>
      </trkpt>
      <trkpt lat="42.3441420" lon="-7.9288820">
        <ele>100.7</ele>
        <time>2019-08-17T15:31:46Z</time>
      </trkpt>
      <trkpt lat="42.3441090" lon="-7.9289400">
        <ele>100.8</ele>
        <time>2019-08-17T15:31:47Z</time>
      </trkpt>
      <trkpt lat="42.3440770" lon="-7.9289990">
        <ele>101.0</ele>
        <time>2019-08-17T15:31:48Z</time>
      </trkpt>
      <trkpt lat="42.3440460" lon="-7.9290590">
        <ele>101.1</ele>
        <time>2019-08-17T15:31:49Z</time>
      </trkpt>
      <trkpt lat="42.3440160" lon="-7.9291180">
        <ele>101.2</ele>
        <time>2019-08-17T15:31:50Z</time>
      </trkpt>
      <trkpt lat="42.3439850" lon="-7.9291780">
        <ele>101.2</ele>
        <time>2019-08-17T15:31:51Z</time>
      </trkpt>
      <trkpt lat="42.3439550" lon="-7.9292380">
        <ele>101.1</ele>
        <time>2019-08-17T15:31:52Z</time>
      </trkpt>
      <trkpt lat="42.3439250" lon="-7.9292970">
        <ele>100.9</ele>
        <time>2019-08-17T15:31:53Z</time>
      </trkpt>
      <trkpt lat="42.3438940" lon="-7.9293560">
        <ele>100.8</ele>
        <time>2019-08-17T15:31:54Z</time>
      </trkpt>
      <trkpt lat="42.3438620" lon="-7.9294140">
        <ele>100.6</ele>
        <time>2019-08-17T15:31:55Z</time>
      </trkpt>
      <trkpt lat="42.3438300" lon="-7.9294720">
        <ele>100.4</ele>
        <time>2019-08-17T15:31:56Z</time>
      </trkpt>
      <trkpt lat="42.3437990" lon="-7.9295310">
        <ele>100.2</ele>
        <time>2019-08-17T15:31:57Z</time>
      </trkpt>
      <trkpt lat="42.3437670" lon="-7.9295900">
        <ele>100.1</ele>
        <time>2019-08-17T15:31:58Z</time>
      </trkpt>
      <trkpt lat="42.3437350" lon="-7.9296500">
        <ele>99.9</ele>
        <time>2019-08-17T15:31:59Z</time>
      </trkpt>
      <trkpt lat="42.3437040" lon="-7.9297120">
        <ele>99.7</ele>
        <time>2019-08-17T15:32:00Z</time>
      </trkpt>
      <trkpt lat="42.3436730" lon="-7.9297750">
        <ele>99.6</ele>
        <time>2019-08-17T15:32:01Z</time>
      </trkpt>
      <trkpt lat="42.3436420" lon="-7.9298400">
        <ele>99.4</ele>
        <time>2019-08-17T15:32:02Z</time>
      </trkpt>
      <trkpt lat="42.3436110" lon="-7.9299060">
        <ele>99.3</ele>
        <time>2019-08-17T15:32:03Z</time>
      </trkpt>
      <trkpt lat="42.3435800" lon="-7.9299720">
        <ele>99.3</ele>
        <time>2019-08-17T15:32:04Z</time>
      </trkpt>
      <trkpt lat="42.3435480" lon="-7.9300360">
        <ele>99.3</ele>
        <time>2019-08-17T15:32:05Z</time>
      </trkpt>
      <trkpt lat="42.3435180" lon="-7.9300970">
        <ele>99.3</ele>
        <time>2019-08-17T15:32:06Z</time>
      </trkpt>
      <trkpt lat="42.3434930" lon="-7.9301500">
        <ele>99.3</ele>
        <time>2019-08-17T15:32:07Z</time>
      </trkpt>
      <trkpt lat="42.3434710" lon="-7.9301950">
        <ele>99.2</ele>
        <time>2019-08-17T15:32:08Z</time>
      </trkpt>
      <trkpt lat="42.3434470" lon="-7.9302360">
        <ele>99.2</ele>
        <time>2019-08-17T15:32:09Z</time>
      </trkpt>
      <trkpt lat="42.3434220" lon="-7.9302740">
        <ele>99.2</ele>
        <time>2019-08-17T15:32:10Z</time>
      </trkpt>
      <trkpt lat="42.3433960" lon="-7.9303110">
        <ele>99.2</ele>
        <time>2019-08-17T15:32:11Z</time>
      </trkpt>
      <trkpt lat="42.3433700" lon="-7.9303520">
        <ele>99.2</ele>
        <time>2019-08-17T15:32:12Z</time>
      </trkpt>
      <trkpt lat="42.3433440" lon="-7.9303970">
        <ele>99.2</ele>
        <time>2019-08-17T15:32:13Z</time>
      </trkpt>
      <trkpt lat="42.3433190" lon="-7.9304440">
        <ele>99.2</ele>
        <time>2019-08-17T15:32:14Z</time>
      </trkpt>
      <trkpt lat="42.3432950" lon="-7.9304900">
        <ele>99.2</ele>
        <time>2019-08-17T15:32:15Z</time>
      </trkpt>
      <trkpt lat="42.3432720" lon="-7.9305330">
        <ele>99.2</ele>
        <time>2019-08-17T15:32:16Z</time>
      </trkpt>
      <trkpt lat="42.3432510" lon="-7.9305720">
        <ele>99.1</ele>
        <time>2019-08-17T15:32:17Z</time>
      </trkpt>
      <trkpt lat="42.3432310" lon="-7.9306090">
        <ele>99.1</ele>
        <time>2019-08-17T15:32:18Z</time>
      </trkpt>
      <trkpt lat="42.3432130" lon="-7.9306430">
        <ele>99.1</ele>
        <time>2019-08-17T15:32:19Z</time>
      </trkpt>
      <trkpt lat="42.3431970" lon="-7.9306760">
        <ele>99.0</ele>
        <time>2019-08-17T15:32:20Z</time>
      </trkpt>
      <trkpt lat="42.3431830" lon="-7.9307070">
        <ele>99.0</ele>
        <time>2019-08-17T15:32:21Z</time>
      </trkpt>
      <trkpt lat="42.3431710" lon="-7.9307360">
        <ele>98.9</ele>
        <time>2019-08-17T15:32:22Z</time>
      </trkpt>
      <trkpt lat="42.3431600" lon="-7.9307660">
        <ele>98.9</ele>
        <time>2019-08-17T15:32:23Z</time>
      </trkpt>
      <trkpt lat="42.3431490" lon="-7.9307990">
        <ele>98.8</ele>
        <time>2019-08-17T15:32:24Z</time>
      </trkpt>
      <trkpt lat="42.3431360" lon="-7.9308370">
        <ele>98.8</ele>
        <time>2019-08-17T15:32:25Z</time>
      </trkpt>
      <trkpt lat="42.3431170" lon="-7.9308830">
        <ele>98.7</ele>
        <time>2019-08-17T15:32:26Z</time>
      </trkpt>
      <trkpt lat="42.3430920" lon="-7.9309410">
        <ele>98.5</ele>
        <time>2019-08-17T15:32:27Z</time>
      </trkpt>
      <trkpt lat="42.3430360" lon="-7.9310480">
        <ele>98.3</ele>
        <time>2019-08-17T15:32:28Z</time>
      </trkpt>
      <trkpt lat="42.3430120" lon="-7.9310920">
        <ele>98.3</ele>
        <time>2019-08-17T15:32:29Z</time>
      </trkpt>
      <trkpt lat="42.3429870" lon="-7.9311350">
        <ele>98.2</ele>
        <time>2019-08-17T15:32:30Z</time>
      </trkpt>
      <trkpt lat="42.3429470" lon="-7.9311980">
        <ele>98.1</ele>
        <time>2019-08-17T15:32:31Z</time>
      </trkpt>
      <trkpt lat="42.3429090" lon="-7.9312620">
        <ele>98.0</ele>
        <time>2019-08-17T15:32:32Z</time>
      </trkpt>
      <trkpt lat="42.3428740" lon="-7.9313310">
        <ele>97.8</ele>
        <time>2019-08-17T15:32:33Z</time>
      </trkpt>
      <trkpt lat="42.3428440" lon="-7.9314050">
        <ele>97.6</ele>
        <time>2019-08-17T15:32:34Z</time>
      </trkpt>
      <trkpt lat="42.3428180" lon="-7.9314820">
        <ele>97.4</ele>
        <time>2019-08-17T15:32:35Z</time>
      </trkpt>
      <trkpt lat="42.3427940" lon="-7.9315610">
        <ele>97.2</ele>
        <time>2019-08-17T15:32:36Z</time>
      </trkpt>
      <trkpt lat="42.3427700" lon="-7.9316390">
        <ele>97.0</ele>
        <time>2019-08-17T15:32:37Z</time>
      </trkpt>
      <trkpt lat="42.3427450" lon="-7.9317140">
        <ele>96.8</ele>
        <time>2019-08-17T15:32:38Z</time>
      </trkpt>
      <trkpt lat="42.3427190" lon="-7.9317860">
        <ele>96.7</ele>
        <time>2019-08-17T15:32:39Z</time>
      </trkpt>
      <trkpt lat="42.3426910" lon="-7.9318560">
        <ele>96.5</ele>
        <time>2019-08-17T15:32:40Z</time>
      </trkpt>
      <trkpt lat="42.3426610" lon="-7.9319240">
        <ele>96.4</ele>
        <time>2019-08-17T15:32:41Z</time>
      </trkpt>
      <trkpt lat="42.3426310" lon="-7.9319900">
        <ele>96.3</ele>
        <time>2019-08-17T15:32:42Z</time>
      </trkpt>
      <trkpt lat="42.3426000" lon="-7.9320560">
        <ele>96.2</ele>
        <time>2019-08-17T15:32:43Z</time>
      </trkpt>
      <trkpt lat="42.3425680" lon="-7.9321220">
        <ele>96.1</ele>
        <time>2019-08-17T15:32:44Z</time>
      </trkpt>
      <trkpt lat="42.3425360" lon="-7.9321870">
        <ele>96.1</ele>
        <time>2019-08-17T15:32:45Z</time>
      </trkpt>
      <trkpt lat="42.3425050" lon="-7.9322520">
        <ele>96.0</ele>
        <time>2019-08-17T15:32:46Z</time>
      </trkpt>
      <trkpt lat="42.3424750" lon="-7.9323140">
        <ele>96.0</ele>
        <time>2019-08-17T15:32:47Z</time>
      </trkpt>
      <trkpt lat="42.3424480" lon="-7.9323700">
        <ele>96.0</ele>
        <time>2019-08-17T15:32:48Z</time>
      </trkpt>
      <trkpt lat="42.3424240" lon="-7.9324210">
        <ele>96.0</ele>
        <time>2019-08-17T15:32:49Z</time>
      </trkpt>
      <trkpt lat="42.3424060" lon="-7.9324630">
        <ele>96.0</ele>
        <time>2019-08-17T15:32:50Z</time>
      </trkpt>
      <trkpt lat="42.3423940" lon="-7.9324950">
        <ele>96.0</ele>
        <time>2019-08-17T15:32:51Z</time>
      </trkpt>
      <trkpt lat="42.3423900" lon="-7.9325200">
        <ele>95.9</ele>
        <time>2019-08-17T15:32:52Z</time>
      </trkpt>
      <trkpt lat="42.3423900" lon="-7.9325250">
        <ele>95.9</ele>
        <time>2019-08-17T15:32:53Z</time>
      </trkpt>
      <trkpt lat="42.3423910" lon="-7.9325340">
        <ele>95.8</ele>
        <time>2019-08-17T15:32:54Z</time>
      </trkpt>
      <trkpt lat="42.3423940" lon="-7.9325370">
        <ele>95.8</ele>
        <time>2019-08-17T15:32:55Z</time>
      </trkpt>
      <trkpt lat="42.3423960" lon="-7.9325390">
        <ele>95.8</ele>
        <time>2019-08-17T15:32:56Z</time>
      </trkpt>
      <trkpt lat="42.3423960" lon="-7.9325410">
        <ele>95.8</ele>
        <time>2019-08-17T15:32:57Z</time>
      </trkpt>
      <trkpt lat="42.3423960" lon="-7.9325420">
        <ele>95.8</ele>
        <time>2019-08-17T15:32:58Z</time>
      </trkpt>
      <trkpt lat="42.3423960" lon="-7.9325420">
        <ele>95.8</ele>
        <time>2019-08-17T15:32:59Z</time>
      </trkpt>
      <trkpt lat="42.3423960" lon="-7.9325420">
        <ele>95.8</ele>
        <time>2019-08-17T15:33:00Z</time>
      </trkpt>
      <trkpt lat="42.3423960" lon="-7.9325420">
        <ele>95.8</ele>
        <time>2019-08-17T15:33:01Z</time>
      </trkpt>
      <trkpt lat="42.3423960" lon="-7.9325420">
        <ele>95.8</ele>
        <time>2019-08-17T15:33:02Z</time>
      </trkpt>
      <trkpt lat="42.3423960" lon="-7.9325430">
        <ele>95.8</ele>
        <time>2019-08-17T15:33:03Z</time>
      </trkpt>
      <trkpt lat="42.3423960" lon="-7.9325430">
        <ele>95.8</ele>
        <time>2019-08-17T15:33:04Z</time>
      </trkpt>
      <trkpt lat="42.3423960" lon="-7.9325440">
        <ele>95.8</ele>
        <time>2019-08-17T15:33:05Z</time>
      </trkpt>
      <trkpt lat="42.3423960" lon="-7.9325450">
        <ele>95.8</ele>
        <time>2019-08-17T15:33:06Z</time>
      </trkpt>
      <trkpt lat="42.3423960" lon="-7.9325480">
        <ele>95.8</ele>
        <time>2019-08-17T15:33:07Z</time>
      </trkpt>
      <trkpt lat="42.3423930" lon="-7.9325540">
        <ele>95.7</ele>
        <time>2019-08-17T15:33:08Z</time>
      </trkpt>
      <trkpt lat="42.3423850" lon="-7.9325640">
        <ele>95.7</ele>
        <time>2019-08-17T15:33:09Z</time>
      </trkpt>
      <trkpt lat="42.3423710" lon="-7.9325810">
        <ele>95.6</ele>
        <time>2019-08-17T15:33:10Z</time>
      </trkpt>
      <trkpt lat="42.3423480" lon="-7.9326070">
        <ele>95.4</ele>
        <time>2019-08-17T15:33:11Z</time>
      </trkpt>
      <trkpt lat="42.3423200" lon="-7.9326410">
        <ele>95.2</ele>
        <time>2019-08-17T15:33:12Z</time>
      </trkpt>
      <trkpt lat="42.3422880" lon="-7.9326820">
        <ele>95.0</ele>
        <time>2019-08-17T15:33:13Z</time>
      </trkpt>
      <trkpt lat="42.3422560" lon="-7.9327310">
        <ele>94.7</ele>
        <time>2019-08-17T15:33:14Z</time>
      </trkpt>
      <trkpt lat="42.3422250" lon="-7.9327840">
        <ele>94.5</ele>
        <time>2019-08-17T15:33:15Z</time>
      </trkpt>
      <trkpt lat="42.3421730" lon="-7.9328770">
        <ele>94.3</ele>
        <time>2019-08-17T15:33:16Z</time>
      </trkpt>
      <trkpt lat="42.3421530" lon="-7.9329150">
        <ele>94.1</ele>
        <time>2019-08-17T15:33:17Z</time>
      </trkpt>
      <trkpt lat="42.3421330" lon="-7.9329520">
        <ele>94.0</ele>
        <time>2019-08-17T15:33:18Z</time>
      </trkpt>
      <trkpt lat="42.3421030" lon="-7.9330060">
        <ele>93.9</ele>
        <time>2019-08-17T15:33:19Z</time>
      </trkpt>
      <trkpt lat="42.3420720" lon="-7.9330600">
        <ele>93.8</ele>
        <time>2019-08-17T15:33:20Z</time>
      </trkpt>
      <trkpt lat="42.3420210" lon="-7.9331510">
        <ele>93.7</ele>
        <time>2019-08-17T15:33:21Z</time>
      </trkpt>
      <trkpt lat="42.3420010" lon="-7.9331870">
        <ele>93.6</ele>
        <time>2019-08-17T15:33:22Z</time>
      </trkpt>
      <trkpt lat="42.3419800" lon="-7.9332240">
        <ele>93.6</ele>
        <time>2019-08-17T15:33:23Z</time>
      </trkpt>
      <trkpt lat="42.3419480" lon="-7.9332800">
        <ele>93.5</ele>
        <time>2019-08-17T15:33:24Z</time>
      </trkpt>
      <trkpt lat="42.3419170" lon="-7.9333360">
        <ele>93.5</ele>
        <time>2019-08-17T15:33:25Z</time>
      </trkpt>
      <trkpt lat="42.3418860" lon="-7.9333920">
        <ele>93.5</ele>
        <time>2019-08-17T15:33:26Z</time>
      </trkpt>
      <trkpt lat="42.3418560" lon="-7.9334490">
        <ele>93.5</ele>
        <time>2019-08-17T15:33:27Z</time>
      </trkpt>
      <trkpt lat="42.3418260" lon="-7.9335060">
        <ele>93.5</ele>
        <time>2019-08-17T15:33:28Z</time>
      </trkpt>
      <trkpt lat="42.3417960" lon="-7.9335630">
        <ele>93.5</ele>
        <time>2019-08-17T15:33:29Z</time>
      </trkpt>
      <trkpt lat="42.3417670" lon="-7.9336210">
        <ele>93.5</ele>
        <time>2019-08-17T15:33:30Z</time>
      </trkpt>
      <trkpt lat="42.3417380" lon="-7.9336790">
        <ele>93.5</ele>
        <time>2019-08-17T15:33:31Z</time>
      </trkpt>
      <trkpt lat="42.3417090" lon="-7.9337390">
        <ele>93.5</ele>
        <time>2019-08-17T15:33:32Z</time>
      </trkpt>
      <trkpt lat="42.3416810" lon="-7.9338000">
        <ele>93.6</ele>
        <time>2019-08-17T15:33:33Z</time>
      </trkpt>
      <trkpt lat="42.3416520" lon="-7.9338630">
        <ele>93.6</ele>
        <time>2019-08-17T15:33:34Z</time>
      </trkpt>
      <trkpt lat="42.3416240" lon="-7.9339270">
        <ele>93.6</ele>
        <time>2019-08-17T15:33:35Z</time>
      </trkpt>
      <trkpt lat="42.3415960" lon="-7.9339930">
        <ele>93.6</ele>
        <time>2019-08-17T15:33:36Z</time>
      </trkpt>
      <trkpt lat="42.3415680" lon="-7.9340600">
        <ele>93.7</ele>
        <time>2019-08-17T15:33:37Z</time>
      </trkpt>
      <trkpt lat="42.3415410" lon="-7.9341290">
        <ele>93.7</ele>
        <time>2019-08-17T15:33:38Z</time>
      </trkpt>
      <trkpt lat="42.3415170" lon="-7.9342000">
        <ele>93.7</ele>
        <time>2019-08-17T15:33:39Z</time>
      </trkpt>
      <trkpt lat="42.3414950" lon="-7.9342730">
        <ele>93.7</ele>
        <time>2019-08-17T15:33:40Z</time>
      </trkpt>
      <trkpt lat="42.3414770" lon="-7.9343460">
        <ele>93.8</ele>
        <time>2019-08-17T15:33:41Z</time>
      </trkpt>
      <trkpt lat="42.3414630" lon="-7.9344210">
        <ele>93.8</ele>
        <time>2019-08-17T15:33:42Z</time>
      </trkpt>
      <trkpt lat="42.3414540" lon="-7.9344980">
        <ele>93.9</ele>
        <time>2019-08-17T15:33:43Z</time>
      </trkpt>
      <trkpt lat="42.3414460" lon="-7.9345740">
        <ele>93.9</ele>
        <time>2019-08-17T15:33:44Z</time>
      </trkpt>
      <trkpt lat="42.3414390" lon="-7.9346510">
        <ele>94.0</ele>
        <time>2019-08-17T15:33:45Z</time>
      </trkpt>
      <trkpt lat="42.3414290" lon="-7.9347260">
        <ele>94.0</ele>
        <time>2019-08-17T15:33:46Z</time>
      </trkpt>
      <trkpt lat="42.3414160" lon="-7.9348000">
        <ele>94.1</ele>
        <time>2019-08-17T15:33:47Z</time>
      </trkpt>
      <trkpt lat="42.3414070" lon="-7.9348740">
        <ele>94.2</ele>
        <time>2019-08-17T15:33:48Z</time>
      </trkpt>
      <trkpt lat="42.3414090" lon="-7.9349490">
        <ele>94.3</ele>
        <time>2019-08-17T15:33:49Z</time>
      </trkpt>
      <trkpt lat="42.3414180" lon="-7.9350220">
        <ele>94.3</ele>
        <time>2019-08-17T15:33:50Z</time>
      </trkpt>
      <trkpt lat="42.3414270" lon="-7.9350910">
        <ele>94.4</ele>
        <time>2019-08-17T15:33:51Z</time>
      </trkpt>
      <trkpt lat="42.3414350" lon="-7.9351580">
        <ele>94.4</ele>
        <time>2019-08-17T15:33:52Z</time>
      </trkpt>
      <trkpt lat="42.3414390" lon="-7.9352220">
        <ele>94.4</ele>
        <time>2019-08-17T15:33:53Z</time>
      </trkpt>
      <trkpt lat="42.3414390" lon="-7.9352860">
        <ele>94.4</ele>
        <time>2019-08-17T15:33:54Z</time>
      </trkpt>
      <trkpt lat="42.3414340" lon="-7.9353490">
        <ele>94.4</ele>
        <time>2019-08-17T15:33:55Z</time>
      </trkpt>
      <trkpt lat="42.3414240" lon="-7.9354130">
        <ele>94.5</ele>
        <time>2019-08-17T15:33:56Z</time>
      </trkpt>
      <trkpt lat="42.3414120" lon="-7.9354750">
        <ele>94.5</ele>
        <time>2019-08-17T15:33:57Z</time>
      </trkpt>
      <trkpt lat="42.3414010" lon="-7.9355370">
        <ele>94.5</ele>
        <time>2019-08-17T15:33:58Z</time>
      </trkpt>
      <trkpt lat="42.3413890" lon="-7.9355990">
        <ele>94.5</ele>
        <time>2019-08-17T15:33:59Z</time>
      </trkpt>
      <trkpt lat="42.3413760" lon="-7.9356620">
        <ele>94.6</ele>
        <time>2019-08-17T15:34:00Z</time>
      </trkpt>
      <trkpt lat="42.3413610" lon="-7.9357260">
        <ele>94.6</ele>
        <time>2019-08-17T15:34:01Z</time>
      </trkpt>
      <trkpt lat="42.3413440" lon="-7.9357930">
        <ele>94.6</ele>
        <time>2019-08-17T15:34:02Z</time>
      </trkpt>
      <trkpt lat="42.3413260" lon="-7.9358610">
        <ele>94.6</ele>
        <time>2019-08-17T15:34:03Z</time>
      </trkpt>
      <trkpt lat="42.3413060" lon="-7.9359300">
        <ele>94.6</ele>
        <time>2019-08-17T15:34:04Z</time>
      </trkpt>
      <trkpt lat="42.3412870" lon="-7.9359980">
        <ele>94.7</ele>
        <time>2019-08-17T15:34:05Z</time>
      </trkpt>
      <trkpt lat="42.3412690" lon="-7.9360660">
        <ele>94.7</ele>
        <time>2019-08-17T15:34:06Z</time>
      </trkpt>
      <trkpt lat="42.3412510" lon="-7.9361320">
        <ele>94.7</ele>
        <time>2019-08-17T15:34:07Z</time>
      </trkpt>
      <trkpt lat="42.3412340" lon="-7.9361970">
        <ele>94.7</ele>
        <time>2019-08-17T15:34:08Z</time>
      </trkpt>
      <trkpt lat="42.3412160" lon="-7.9362620">
        <ele>94.8</ele>
        <time>2019-08-17T15:34:09Z</time>
      </trkpt>
      <trkpt lat="42.3411980" lon="-7.9363250">
        <ele>94.8</ele>
        <time>2019-08-17T15:34:10Z</time>
      </trkpt>
      <trkpt lat="42.3411800" lon="-7.9363890">
        <ele>94.8</ele>
        <time>2019-08-17T15:34:11Z</time>
      </trkpt>
      <trkpt lat="42.3411600" lon="-7.9364510">
        <ele>94.8</ele>
        <time>2019-08-17T15:34:12Z</time>
      </trkpt>
      <trkpt lat="42.3411390" lon="-7.9365140">
        <ele>94.9</ele>
        <time>2019-08-17T15:34:13Z</time>
      </trkpt>
      <trkpt lat="42.3411180" lon="-7.9365770">
        <ele>94.9</ele>
        <time>2019-08-17T15:34:14Z</time>
      </trkpt>
      <trkpt lat="42.3410960" lon="-7.9366410">
        <ele>94.9</ele>
        <time>2019-08-17T15:34:15Z</time>
      </trkpt>
      <trkpt lat="42.3410740" lon="-7.9367080">
        <ele>95.0</ele>
        <time>2019-08-17T15:34:16Z</time>
      </trkpt>
      <trkpt lat="42.3410530" lon="-7.9367770">
        <ele>95.0</ele>
        <time>2019-08-17T15:34:17Z</time>
      </trkpt>
      <trkpt lat="42.3410320" lon="-7.9368480">
        <ele>95.0</ele>
        <time>2019-08-17T15:34:18Z</time>
      </trkpt>
      <trkpt lat="42.3410100" lon="-7.9369190">
        <ele>95.1</ele>
        <time>2019-08-17T15:34:19Z</time>
      </trkpt>
      <trkpt lat="42.3409860" lon="-7.9369890">
        <ele>95.1</ele>
        <time>2019-08-17T15:34:20Z</time>
      </trkpt>
      <trkpt lat="42.3409620" lon="-7.9370590">
        <ele>95.2</ele>
        <time>2019-08-17T15:34:21Z</time>
      </trkpt>
      <trkpt lat="42.3409370" lon="-7.9371280">
        <ele>95.3</ele>
        <time>2019-08-17T15:34:22Z</time>
      </trkpt>
      <trkpt lat="42.3409130" lon="-7.9371980">
        <ele>95.4</ele>
        <time>2019-08-17T15:34:23Z</time>
      </trkpt>
      <trkpt lat="42.3408890" lon="-7.9372690">
        <ele>95.5</ele>
        <time>2019-08-17T15:34:24Z</time>
      </trkpt>
      <trkpt lat="42.3408670" lon="-7.9373410">
        <ele>95.6</ele>
        <time>2019-08-17T15:34:25Z</time>
      </trkpt>
      <trkpt lat="42.3408470" lon="-7.9374140">
        <ele>95.7</ele>
        <time>2019-08-17T15:34:26Z</time>
      </trkpt>
      <trkpt lat="42.3408290" lon="-7.9374900">
        <ele>95.9</ele>
        <time>2019-08-17T15:34:27Z</time>
      </trkpt>
      <trkpt lat="42.3408140" lon="-7.9375670">
        <ele>96.0</ele>
        <time>2019-08-17T15:34:28Z</time>
      </trkpt>
      <trkpt lat="42.3407990" lon="-7.9376450">
        <ele>96.1</ele>
        <time>2019-08-17T15:34:29Z</time>
      </trkpt>
      <trkpt lat="42.3407860" lon="-7.9377240">
        <ele>96.2</ele>
        <time>2019-08-17T15:34:30Z</time>
      </trkpt>
      <trkpt lat="42.3407720" lon="-7.9378040">
        <ele>96.3</ele>
        <time>2019-08-17T15:34:31Z</time>
      </trkpt>
      <trkpt lat="42.3407580" lon="-7.9378820">
        <ele>96.3</ele>
        <time>2019-08-17T15:34:32Z</time>
      </trkpt>
      <trkpt lat="42.3407420" lon="-7.9379600">
        <ele>96.4</ele>
        <time>2019-08-17T15:34:33Z</time>
      </trkpt>
      <trkpt lat="42.3407240" lon="-7.9380370">
        <ele>96.4</ele>
        <time>2019-08-17T15:34:34Z</time>
      </trkpt>
      <trkpt lat="42.3407030" lon="-7.9381110">
        <ele>96.4</ele>
        <time>2019-08-17T15:34:35Z</time>
      </trkpt>
      <trkpt lat="42.3406800" lon="-7.9381850">
        <ele>96.5</ele>
        <time>2019-08-17T15:34:36Z</time>
      </trkpt>
      <trkpt lat="42.3406560" lon="-7.9382570">
        <ele>96.5</ele>
        <time>2019-08-17T15:34:37Z</time>
      </trkpt>
      <trkpt lat="42.3406310" lon="-7.9383290">
        <ele>96.5</ele>
        <time>2019-08-17T15:34:38Z</time>
      </trkpt>
      <trkpt lat="42.3406050" lon="-7.9384000">
        <ele>96.5</ele>
        <time>2019-08-17T15:34:39Z</time>
      </trkpt>
      <trkpt lat="42.3405800" lon="-7.9384720">
        <ele>96.6</ele>
        <time>2019-08-17T15:34:40Z</time>
      </trkpt>
      <trkpt lat="42.3405560" lon="-7.9385440">
        <ele>96.6</ele>
        <time>2019-08-17T15:34:41Z</time>
      </trkpt>
      <trkpt lat="42.3405330" lon="-7.9386180">
        <ele>96.6</ele>
        <time>2019-08-17T15:34:42Z</time>
      </trkpt>
      <trkpt lat="42.3405110" lon="-7.9386920">
        <ele>96.7</ele>
        <time>2019-08-17T15:34:43Z</time>
      </trkpt>
      <trkpt lat="42.3404910" lon="-7.9387670">
        <ele>96.7</ele>
        <time>2019-08-17T15:34:44Z</time>
      </trkpt>
      <trkpt lat="42.3404720" lon="-7.9388420">
        <ele>96.7</ele>
        <time>2019-08-17T15:34:45Z</time>
      </trkpt>
      <trkpt lat="42.3404540" lon="-7.9389170">
        <ele>96.7</ele>
        <time>2019-08-17T15:34:46Z</time>
      </trkpt>
      <trkpt lat="42.3404360" lon="-7.9389920">
        <ele>96.8</ele>
        <time>2019-08-17T15:34:47Z</time>
      </trkpt>
      <trkpt lat="42.3404180" lon="-7.9390670">
        <ele>96.8</ele>
        <time>2019-08-17T15:34:48Z</time>
      </trkpt>
      <trkpt lat="42.3404010" lon="-7.9391420">
        <ele>96.8</ele>
        <time>2019-08-17T15:34:49Z</time>
      </trkpt>
      <trkpt lat="42.3403840" lon="-7.9392160">
        <ele>96.9</ele>
        <time>2019-08-17T15:34:50Z</time>
      </trkpt>
      <trkpt lat="42.3403680" lon="-7.9392900">
        <ele>96.9</ele>
        <time>2019-08-17T15:34:51Z</time>
      </trkpt>
      <trkpt lat="42.3403520" lon="-7.9393630">
        <ele>97.0</ele>
        <time>2019-08-17T15:34:52Z</time>
      </trkpt>
      <trkpt lat="42.3403360" lon="-7.9394370">
        <ele>97.0</ele>
        <time>2019-08-17T15:34:53Z</time>
      </trkpt>
      <trkpt lat="42.3403210" lon="-7.9395110">
        <ele>97.1</ele>
        <time>2019-08-17T15:34:54Z</time>
      </trkpt>
      <trkpt lat="42.3403060" lon="-7.9395850">
        <ele>97.2</ele>
        <time>2019-08-17T15:34:55Z</time>
      </trkpt>
      <trkpt lat="42.3402920" lon="-7.9396600">
        <ele>97.3</ele>
        <time>2019-08-17T15:34:56Z</time>
      </trkpt>
      <trkpt lat="42.3402780" lon="-7.9397350">
        <ele>97.5</ele>
        <time>2019-08-17T15:34:57Z</time>
      </trkpt>
      <trkpt lat="42.3402650" lon="-7.9398120">
        <ele>97.6</ele>
        <time>2019-08-17T15:34:58Z</time>
      </trkpt>
      <trkpt lat="42.3402540" lon="-7.9398920">
        <ele>97.8</ele>
        <time>2019-08-17T15:34:59Z</time>
      </trkpt>
      <trkpt lat="42.3402430" lon="-7.9399740">
        <ele>98.0</ele>
        <time>2019-08-17T15:35:00Z</time>
      </trkpt>
      <trkpt lat="42.3402330" lon="-7.9400570">
        <ele>98.3</ele>
        <time>2019-08-17T15:35:01Z</time>
      </trkpt>
      <trkpt lat="42.3402250" lon="-7.9401420">
        <ele>98.4</ele>
        <time>2019-08-17T15:35:02Z</time>
      </trkpt>
      <trkpt lat="42.3402190" lon="-7.9402250">
        <ele>98.6</ele>
        <time>2019-08-17T15:35:03Z</time>
      </trkpt>
      <trkpt lat="42.3402150" lon="-7.9403060">
        <ele>98.8</ele>
        <time>2019-08-17T15:35:04Z</time>
      </trkpt>
      <trkpt lat="42.3402120" lon="-7.9403860">
        <ele>99.1</ele>
        <time>2019-08-17T15:35:05Z</time>
      </trkpt>
      <trkpt lat="42.3402100" lon="-7.9404640">
        <ele>99.3</ele>
        <time>2019-08-17T15:35:06Z</time>
      </trkpt>
      <trkpt lat="42.3402090" lon="-7.9405400">
        <ele>99.5</ele>
        <time>2019-08-17T15:35:07Z</time>
      </trkpt>
      <trkpt lat="42.3402090" lon="-7.9406150">
        <ele>99.7</ele>
        <time>2019-08-17T15:35:08Z</time>
      </trkpt>
      <trkpt lat="42.3402090" lon="-7.9406880">
        <ele>99.8</ele>
        <time>2019-08-17T15:35:09Z</time>
      </trkpt>
      <trkpt lat="42.3402090" lon="-7.9407600">
        <ele>100.0</ele>
        <time>2019-08-17T15:35:10Z</time>
      </trkpt>
      <trkpt lat="42.3402090" lon="-7.9408310">
        <ele>100.1</ele>
        <time>2019-08-17T15:35:11Z</time>
      </trkpt>
      <trkpt lat="42.3402080" lon="-7.9409000">
        <ele>100.2</ele>
        <time>2019-08-17T15:35:12Z</time>
      </trkpt>
      <trkpt lat="42.3402070" lon="-7.9409690">
        <ele>100.3</ele>
        <time>2019-08-17T15:35:13Z</time>
      </trkpt>
      <trkpt lat="42.3402060" lon="-7.9410360">
        <ele>100.4</ele>
        <time>2019-08-17T15:35:14Z</time>
      </trkpt>
      <trkpt lat="42.3402040" lon="-7.9411030">
        <ele>100.5</ele>
        <time>2019-08-17T15:35:15Z</time>
      </trkpt>
      <trkpt lat="42.3402010" lon="-7.9411680">
        <ele>100.6</ele>
        <time>2019-08-17T15:35:16Z</time>
      </trkpt>
      <trkpt lat="42.3401990" lon="-7.9412320">
        <ele>100.7</ele>
        <time>2019-08-17T15:35:17Z</time>
      </trkpt>
      <trkpt lat="42.3401950" lon="-7.9412960">
        <ele>100.7</ele>
        <time>2019-08-17T15:35:18Z</time>
      </trkpt>
      <trkpt lat="42.3401910" lon="-7.9413580">
        <ele>100.8</ele>
        <time>2019-08-17T15:35:19Z</time>
      </trkpt>
      <trkpt lat="42.3401860" lon="-7.9414200">
        <ele>101.0</ele>
        <time>2019-08-17T15:35:20Z</time>
      </trkpt>
      <trkpt lat="42.3401810" lon="-7.9414810">
        <ele>101.1</ele>
        <time>2019-08-17T15:35:21Z</time>
      </trkpt>
      <trkpt lat="42.3401750" lon="-7.9415410">
        <ele>101.3</ele>
        <time>2019-08-17T15:35:22Z</time>
      </trkpt>
      <trkpt lat="42.3401690" lon="-7.9416010">
        <ele>101.4</ele>
        <time>2019-08-17T15:35:23Z</time>
      </trkpt>
      <trkpt lat="42.3401620" lon="-7.9416590">
        <ele>101.6</ele>
        <time>2019-08-17T15:35:24Z</time>
      </trkpt>
      <trkpt lat="42.3401540" lon="-7.9417170">
        <ele>101.7</ele>
        <time>2019-08-17T15:35:25Z</time>
      </trkpt>
      <trkpt lat="42.3401450" lon="-7.9417750">
        <ele>101.9</ele>
        <time>2019-08-17T15:35:26Z</time>
      </trkpt>
      <trkpt lat="42.3401370" lon="-7.9418320">
        <ele>102.1</ele>
        <time>2019-08-17T15:35:27Z</time>
      </trkpt>
      <trkpt lat="42.3401290" lon="-7.9418880">
        <ele>102.2</ele>
        <time>2019-08-17T15:35:28Z</time>
      </trkpt>
      <trkpt lat="42.3401210" lon="-7.9419440">
        <ele>102.4</ele>
        <time>2019-08-17T15:35:29Z</time>
      </trkpt>
      <trkpt lat="42.3401140" lon="-7.9419990">
        <ele>102.5</ele>
        <time>2019-08-17T15:35:30Z</time>
      </trkpt>
      <trkpt lat="42.3401080" lon="-7.9420540">
        <ele>102.7</ele>
        <time>2019-08-17T15:35:31Z</time>
      </trkpt>
      <trkpt lat="42.3401040" lon="-7.9421090">
        <ele>102.9</ele>
        <time>2019-08-17T15:35:32Z</time>
      </trkpt>
      <trkpt lat="42.3401020" lon="-7.9421630">
        <ele>103.1</ele>
        <time>2019-08-17T15:35:33Z</time>
      </trkpt>
      <trkpt lat="42.3401010" lon="-7.9422150">
        <ele>103.4</ele>
        <time>2019-08-17T15:35:34Z</time>
      </trkpt>
      <trkpt lat="42.3401010" lon="-7.9422630">
        <ele>103.6</ele>
        <time>2019-08-17T15:35:35Z</time>
      </trkpt>
      <trkpt lat="42.3401020" lon="-7.9423070">
        <ele>103.8</ele>
        <time>2019-08-17T15:35:36Z</time>
      </trkpt>
      <trkpt lat="42.3401030" lon="-7.9423430">
        <ele>104.1</ele>
        <time>2019-08-17T15:35:37Z</time>
      </trkpt>
      <trkpt lat="42.3401090" lon="-7.9423810">
        <ele>104.3</ele>
        <time>2019-08-17T15:35:38Z</time>
      </trkpt>
      <trkpt lat="42.3401120" lon="-7.9423910">
        <ele>104.4</ele>
        <time>2019-08-17T15:35:39Z</time>
      </trkpt>
      <trkpt lat="42.3401160" lon="-7.9424010">
        <ele>104.5</ele>
        <time>2019-08-17T15:35:40Z</time>
      </trkpt>
      <trkpt lat="42.3401190" lon="-7.9424110">
        <ele>104.6</ele>
        <time>2019-08-17T15:35:41Z</time>
      </trkpt>
      <trkpt lat="42.3401300" lon="-7.9424260">
        <ele>104.7</ele>
        <time>2019-08-17T15:35:42Z</time>
      </trkpt>
      <trkpt lat="42.3401510" lon="-7.9424480">
        <ele>105.0</ele>
        <time>2019-08-17T15:35:43Z</time>
      </trkpt>
      <trkpt lat="42.3401740" lon="-7.9424670">
        <ele>105.3</ele>
        <time>2019-08-17T15:35:44Z</time>
      </trkpt>
      <trkpt lat="42.3401970" lon="-7.9424800">
        <ele>105.6</ele>
        <time>2019-08-17T15:35:45Z</time>
      </trkpt>
      <trkpt lat="42.3402310" lon="-7.9424910">
        <ele>106.0</ele>
        <time>2019-08-17T15:35:46Z</time>
      </trkpt>
      <trkpt lat="42.3402420" lon="-7.9424940">
        <ele>106.2</ele>
        <time>2019-08-17T15:35:47Z</time>
      </trkpt>
      <trkpt lat="42.3402640" lon="-7.9424960">
        <ele>106.7</ele>
        <time>2019-08-17T15:35:48Z</time>
      </trkpt>
      <trkpt lat="42.3402850" lon="-7.9424950">
        <ele>107.1</ele>
        <time>2019-08-17T15:35:49Z</time>
      </trkpt>
      <trkpt lat="42.3403150" lon="-7.9424910">
        <ele>107.7</ele>
        <time>2019-08-17T15:35:50Z</time>
      </trkpt>
      <trkpt lat="42.3403250" lon="-7.9424890">
        <ele>107.9</ele>
        <time>2019-08-17T15:35:51Z</time>
      </trkpt>
      <trkpt lat="42.3403450" lon="-7.9424850">
        <ele>108.3</ele>
        <time>2019-08-17T15:35:52Z</time>
      </trkpt>
      <trkpt lat="42.3403650" lon="-7.9424810">
        <ele>108.7</ele>
        <time>2019-08-17T15:35:53Z</time>
      </trkpt>
      <trkpt lat="42.3403850" lon="-7.9424770">
        <ele>109.1</ele>
        <time>2019-08-17T15:35:54Z</time>
      </trkpt>
      <trkpt lat="42.3404050" lon="-7.9424750">
        <ele>109.6</ele>
        <time>2019-08-17T15:35:55Z</time>
      </trkpt>
      <trkpt lat="42.3404260" lon="-7.9424740">
        <ele>110.0</ele>
        <time>2019-08-17T15:35:56Z</time>
      </trkpt>
      <trkpt lat="42.3404470" lon="-7.9424750">
        <ele>110.3</ele>
        <time>2019-08-17T15:35:57Z</time>
      </trkpt>
      <trkpt lat="42.3404670" lon="-7.9424760">
        <ele>110.7</ele>
        <time>2019-08-17T15:35:58Z</time>
      </trkpt>
      <trkpt lat="42.3404860" lon="-7.9424790">
        <ele>111.0</ele>
        <time>2019-08-17T15:35:59Z</time>
      </trkpt>
      <trkpt lat="42.3405050" lon="-7.9424840">
        <ele>112.0</ele>
        <time>2019-08-17T15:36:00Z</time>
      </trkpt>
      <trkpt lat="42.3405240" lon="-7.9424900">
        <ele>112.0</ele>
        <time>2019-08-17T15:36:01Z</time>
      </trkpt>
      <trkpt lat="42.3405420" lon="-7.9425000">
        <ele>112.0</ele>
        <time>2019-08-17T15:36:02Z</time>
      </trkpt>
      <trkpt lat="42.3405610" lon="-7.9425130">
        <ele>112.0</ele>
        <time>2019-08-17T15:36:03Z</time>
      </trkpt>
      <trkpt lat="42.3405780" lon="-7.9425290">
        <ele>112.1</ele>
        <time>2019-08-17T15:36:04Z</time>
      </trkpt>
      <trkpt lat="42.3405930" lon="-7.9425470">
        <ele>112.1</ele>
        <time>2019-08-17T15:36:05Z</time>
      </trkpt>
      <trkpt lat="42.3406030" lon="-7.9425680">
        <ele>112.1</ele>
        <time>2019-08-17T15:36:06Z</time>
      </trkpt>
      <trkpt lat="42.3406080" lon="-7.9425890">
        <ele>112.1</ele>
        <time>2019-08-17T15:36:07Z</time>
      </trkpt>
      <trkpt lat="42.3406070" lon="-7.9426110">
        <ele>112.2</ele>
        <time>2019-08-17T15:36:08Z</time>
      </trkpt>
      <trkpt lat="42.3406030" lon="-7.9426320">
        <ele>112.2</ele>
        <time>2019-08-17T15:36:09Z</time>
      </trkpt>
      <trkpt lat="42.3405960" lon="-7.9426520">
        <ele>112.2</ele>
        <time>2019-08-17T15:36:10Z</time>
      </trkpt>
      <trkpt lat="42.3405870" lon="-7.9426690">
        <ele>112.2</ele>
        <time>2019-08-17T15:36:11Z</time>
      </trkpt>
      <trkpt lat="42.3405760" lon="-7.9426860">
        <ele>112.3</ele>
        <time>2019-08-17T15:36:12Z</time>
      </trkpt>
      <trkpt lat="42.3405640" lon="-7.9427020">
        <ele>112.3</ele>
        <time>2019-08-17T15:36:13Z</time>
      </trkpt>
      <trkpt lat="42.3405520" lon="-7.9427180">
        <ele>112.3</ele>
        <time>2019-08-17T15:36:14Z</time>
      </trkpt>
      <trkpt lat="42.3405400" lon="-7.9427350">
        <ele>112.4</ele>
        <time>2019-08-17T15:36:15Z</time>
      </trkpt>
      <trkpt lat="42.3405280" lon="-7.9427530">
        <ele>112.4</ele>
        <time>2019-08-17T15:36:16Z</time>
      </trkpt>
      <trkpt lat="42.3405180" lon="-7.9427720">
        <ele>112.4</ele>
        <time>2019-08-17T15:36:17Z</time>
      </trkpt>
      <trkpt lat="42.3405090" lon="-7.9427910">
        <ele>112.5</ele>
        <time>2019-08-17T15:36:18Z</time>
      </trkpt>
      <trkpt lat="42.3405030" lon="-7.9428060">
        <ele>112.5</ele>
        <time>2019-08-17T15:36:19Z</time>
      </trkpt>
      <trkpt lat="42.3404990" lon="-7.9428160">
        <ele>112.5</ele>
        <time>2019-08-17T15:36:20Z</time>
      </trkpt>
      <trkpt lat="42.3404970" lon="-7.9428190">
        <ele>112.5</ele>
        <time>2019-08-17T15:36:21Z</time>
      </trkpt>
      <trkpt lat="42.3404980" lon="-7.9428210">
        <ele>112.5</ele>
        <time>2019-08-17T15:36:22Z</time>
      </trkpt>
      <trkpt lat="42.3404990" lon="-7.9428250">
        <ele>112.5</ele>
        <time>2019-08-17T15:36:23Z</time>
      </trkpt>
      <trkpt lat="42.3404990" lon="-7.9428350">
        <ele>112.5</ele>
        <time>2019-08-17T15:36:24Z</time>
      </trkpt>
      <trkpt lat="42.3404980" lon="-7.9428520">
        <ele>112.6</ele>
        <time>2019-08-17T15:36:25Z</time>
      </trkpt>
      <trkpt lat="42.3404970" lon="-7.9428730">
        <ele>112.6</ele>
        <time>2019-08-17T15:36:26Z</time>
      </trkpt>
      <trkpt lat="42.3404940" lon="-7.9428960">
        <ele>112.6</ele>
        <time>2019-08-17T15:36:27Z</time>
      </trkpt>
      <trkpt lat="42.3404910" lon="-7.9429190">
        <ele>112.7</ele>
        <time>2019-08-17T15:36:28Z</time>
      </trkpt>
      <trkpt lat="42.3404860" lon="-7.9429420">
        <ele>112.7</ele>
        <time>2019-08-17T15:36:29Z</time>
      </trkpt>
      <trkpt lat="42.3404800" lon="-7.9429660">
        <ele>112.8</ele>
        <time>2019-08-17T15:36:30Z</time>
      </trkpt>
      <trkpt lat="42.3404720" lon="-7.9429900">
        <ele>112.8</ele>
        <time>2019-08-17T15:36:31Z</time>
      </trkpt>
      <trkpt lat="42.3404620" lon="-7.9430140">
        <ele>112.8</ele>
        <time>2019-08-17T15:36:32Z</time>
      </trkpt>
      <trkpt lat="42.3404510" lon="-7.9430400">
        <ele>112.9</ele>
        <time>2019-08-17T15:36:33Z</time>
      </trkpt>
      <trkpt lat="42.3404400" lon="-7.9430670">
        <ele>112.9</ele>
        <time>2019-08-17T15:36:34Z</time>
      </trkpt>
      <trkpt lat="42.3404300" lon="-7.9430950">
        <ele>113.0</ele>
        <time>2019-08-17T15:36:35Z</time>
      </trkpt>
      <trkpt lat="42.3404210" lon="-7.9431240">
        <ele>113.1</ele>
        <time>2019-08-17T15:36:36Z</time>
      </trkpt>
      <trkpt lat="42.3404150" lon="-7.9431550">
        <ele>113.1</ele>
        <time>2019-08-17T15:36:37Z</time>
      </trkpt>
      <trkpt lat="42.3404120" lon="-7.9431880">
        <ele>113.2</ele>
        <time>2019-08-17T15:36:38Z</time>
      </trkpt>
      <trkpt lat="42.3404130" lon="-7.9432230">
        <ele>113.2</ele>
        <time>2019-08-17T15:36:39Z</time>
      </trkpt>
      <trkpt lat="42.3404180" lon="-7.9432580">
        <ele>113.4</ele>
        <time>2019-08-17T15:36:40Z</time>
      </trkpt>
      <trkpt lat="42.3404250" lon="-7.9432940">
        <ele>113.6</ele>
        <time>2019-08-17T15:36:41Z</time>
      </trkpt>
      <trkpt lat="42.3404360" lon="-7.9433280">
        <ele>114.2</ele>
        <time>2019-08-17T15:36:42Z</time>
      </trkpt>
      <trkpt lat="42.3404490" lon="-7.9433610">
        <ele>114.3</ele>
        <time>2019-08-17T15:36:43Z</time>
      </trkpt>
      <trkpt lat="42.3404650" lon="-7.9433910">
        <ele>114.5</ele>
        <time>2019-08-17T15:36:44Z</time>
      </trkpt>
      <trkpt lat="42.3404810" lon="-7.9434160">
        <ele>115.2</ele>
        <time>2019-08-17T15:36:45Z</time>
      </trkpt>
      <trkpt lat="42.3404990" lon="-7.9434370">
        <ele>115.8</ele>
        <time>2019-08-17T15:36:46Z</time>
      </trkpt>
      <trkpt lat="42.3405180" lon="-7.9434540">
        <ele>115.8</ele>
        <time>2019-08-17T15:36:47Z</time>
      </trkpt>
      <trkpt lat="42.3405370" lon="-7.9434670">
        <ele>116.6</ele>
        <time>2019-08-17T15:36:48Z</time>
      </trkpt>
      <trkpt lat="42.3405570" lon="-7.9434790">
        <ele>116.7</ele>
        <time>2019-08-17T15:36:49Z</time>
      </trkpt>
      <trkpt lat="42.3405770" lon="-7.9434890">
        <ele>117.3</ele>
        <time>2019-08-17T15:36:50Z</time>
      </trkpt>
      <trkpt lat="42.3405980" lon="-7.9434990">
        <ele>118.0</ele>
        <time>2019-08-17T15:36:51Z</time>
      </trkpt>
      <trkpt lat="42.3406190" lon="-7.9435100">
        <ele>118.1</ele>
        <time>2019-08-17T15:36:52Z</time>
      </trkpt>
      <trkpt lat="42.3406390" lon="-7.9435220">
        <ele>118.7</ele>
        <time>2019-08-17T15:36:53Z</time>
      </trkpt>
      <trkpt lat="42.3406600" lon="-7.9435350">
        <ele>119.3</ele>
        <time>2019-08-17T15:36:54Z</time>
      </trkpt>
      <trkpt lat="42.3406810" lon="-7.9435480">
        <ele>119.5</ele>
        <time>2019-08-17T15:36:55Z</time>
      </trkpt>
      <trkpt lat="42.3407020" lon="-7.9435620">
        <ele>120.1</ele>
        <time>2019-08-17T15:36:56Z</time>
      </trkpt>
      <trkpt lat="42.3407230" lon="-7.9435760">
        <ele>120.7</ele>
        <time>2019-08-17T15:36:57Z</time>
      </trkpt>
      <trkpt lat="42.3407450" lon="-7.9435880">
        <ele>120.9</ele>
        <time>2019-08-17T15:36:58Z</time>
      </trkpt>
      <trkpt lat="42.3407670" lon="-7.9436000">
        <ele>121.5</ele>
        <time>2019-08-17T15:36:59Z</time>
      </trkpt>
      <trkpt lat="42.3407900" lon="-7.9436100">
        <ele>122.1</ele>
        <time>2019-08-17T15:37:00Z</time>
      </trkpt>
      <trkpt lat="42.3408140" lon="-7.9436170">
        <ele>122.2</ele>
        <time>2019-08-17T15:37:01Z</time>
      </trkpt>
      <trkpt lat="42.3408380" lon="-7.9436230">
        <ele>122.8</ele>
        <time>2019-08-17T15:37:02Z</time>
      </trkpt>
      <trkpt lat="42.3408620" lon="-7.9436290">
        <ele>123.4</ele>
        <time>2019-08-17T15:37:03Z</time>
      </trkpt>
      <trkpt lat="42.3408860" lon="-7.9436360">
        <ele>124.2</ele>
        <time>2019-08-17T15:37:04Z</time>
      </trkpt>
      <trkpt lat="42.3409090" lon="-7.9436440">
        <ele>124.2</ele>
        <time>2019-08-17T15:37:05Z</time>
      </trkpt>
      <trkpt lat="42.3409320" lon="-7.9436540">
        <ele>124.8</ele>
        <time>2019-08-17T15:37:06Z</time>
      </trkpt>
      <trkpt lat="42.3409530" lon="-7.9436680">
        <ele>125.4</ele>
        <time>2019-08-17T15:37:07Z</time>
      </trkpt>
      <trkpt lat="42.3409740" lon="-7.9436860">
        <ele>126.2</ele>
        <time>2019-08-17T15:37:08Z</time>
      </trkpt>
      <trkpt lat="42.3409920" lon="-7.9437070">
        <ele>126.2</ele>
        <time>2019-08-17T15:37:09Z</time>
      </trkpt>
      <trkpt lat="42.3410110" lon="-7.9437300">
        <ele>127.0</ele>
        <time>2019-08-17T15:37:10Z</time>
      </trkpt>
      <trkpt lat="42.3410280" lon="-7.9437530">
        <ele>127.0</ele>
        <time>2019-08-17T15:37:11Z</time>
      </trkpt>
      <trkpt lat="42.3410460" lon="-7.9437760">
        <ele>127.8</ele>
        <time>2019-08-17T15:37:12Z</time>
      </trkpt>
      <trkpt lat="42.3410640" lon="-7.9437970">
        <ele>127.8</ele>
        <time>2019-08-17T15:37:13Z</time>
      </trkpt>
      <trkpt lat="42.3410830" lon="-7.9438150">
        <ele>128.6</ele>
        <time>2019-08-17T15:37:14Z</time>
      </trkpt>
      <trkpt lat="42.3411020" lon="-7.9438290">
        <ele>129.3</ele>
        <time>2019-08-17T15:37:15Z</time>
      </trkpt>
      <trkpt lat="42.3411220" lon="-7.9438390">
        <ele>129.3</ele>
        <time>2019-08-17T15:37:16Z</time>
      </trkpt>
      <trkpt lat="42.3411430" lon="-7.9438450">
        <ele>130.1</ele>
        <time>2019-08-17T15:37:17Z</time>
      </trkpt>
      <trkpt lat="42.3411650" lon="-7.9438470">
        <ele>130.8</ele>
        <time>2019-08-17T15:37:18Z</time>
      </trkpt>
      <trkpt lat="42.3411980" lon="-7.9438430">
        <ele>131.3</ele>
        <time>2019-08-17T15:37:19Z</time>
      </trkpt>
      <trkpt lat="42.3412090" lon="-7.9438400">
        <ele>131.3</ele>
        <time>2019-08-17T15:37:20Z</time>
      </trkpt>
      <trkpt lat="42.3412310" lon="-7.9438320">
        <ele>131.9</ele>
        <time>2019-08-17T15:37:21Z</time>
      </trkpt>
      <trkpt lat="42.3412540" lon="-7.9438210">
        <ele>131.9</ele>
        <time>2019-08-17T15:37:22Z</time>
      </trkpt>
      <trkpt lat="42.3412750" lon="-7.9438070">
        <ele>132.5</ele>
        <time>2019-08-17T15:37:23Z</time>
      </trkpt>
      <trkpt lat="42.3412960" lon="-7.9437930">
        <ele>133.0</ele>
        <time>2019-08-17T15:37:24Z</time>
      </trkpt>
      <trkpt lat="42.3413150" lon="-7.9437800">
        <ele>133.0</ele>
        <time>2019-08-17T15:37:25Z</time>
      </trkpt>
      <trkpt lat="42.3413320" lon="-7.9437680">
        <ele>133.5</ele>
        <time>2019-08-17T15:37:26Z</time>
      </trkpt>
      <trkpt lat="42.3413470" lon="-7.9437560">
        <ele>133.5</ele>
        <time>2019-08-17T15:37:27Z</time>
      </trkpt>
      <trkpt lat="42.3413630" lon="-7.9437450">
        <ele>134.1</ele>
        <time>2019-08-17T15:37:28Z</time>
      </trkpt>
      <trkpt lat="42.3413800" lon="-7.9437330">
        <ele>134.1</ele>
        <time>2019-08-17T15:37:29Z</time>
      </trkpt>
      <trkpt lat="42.3413990" lon="-7.9437200">
        <ele>134.7</ele>
        <time>2019-08-17T15:37:30Z</time>
      </trkpt>
      <trkpt lat="42.3414200" lon="-7.9437060">
        <ele>135.3</ele>
        <time>2019-08-17T15:37:31Z</time>
      </trkpt>
      <trkpt lat="42.3414430" lon="-7.9436920">
        <ele>135.3</ele>
        <time>2019-08-17T15:37:32Z</time>
      </trkpt>
      <trkpt lat="42.3414670" lon="-7.9436770">
        <ele>136.0</ele>
        <time>2019-08-17T15:37:33Z</time>
      </trkpt>
      <trkpt lat="42.3414910" lon="-7.9436620">
        <ele>136.5</ele>
        <time>2019-08-17T15:37:34Z</time>
      </trkpt>
      <trkpt lat="42.3415160" lon="-7.9436480">
        <ele>137.1</ele>
        <time>2019-08-17T15:37:35Z</time>
      </trkpt>
      <trkpt lat="42.3415410" lon="-7.9436350">
        <ele>137.1</ele>
        <time>2019-08-17T15:37:36Z</time>
      </trkpt>
      <trkpt lat="42.3415650" lon="-7.9436230">
        <ele>137.5</ele>
        <time>2019-08-17T15:37:37Z</time>
      </trkpt>
      <trkpt lat="42.3415880" lon="-7.9436130">
        <ele>138.0</ele>
        <time>2019-08-17T15:37:38Z</time>
      </trkpt>
      <trkpt lat="42.3416110" lon="-7.9436030">
        <ele>138.6</ele>
        <time>2019-08-17T15:37:39Z</time>
      </trkpt>
      <trkpt lat="42.3416330" lon="-7.9435950">
        <ele>138.6</ele>
        <time>2019-08-17T15:37:40Z</time>
      </trkpt>
      <trkpt lat="42.3416550" lon="-7.9435870">
        <ele>139.2</ele>
        <time>2019-08-17T15:37:41Z</time>
      </trkpt>
      <trkpt lat="42.3416760" lon="-7.9435800">
        <ele>139.8</ele>
        <time>2019-08-17T15:37:42Z</time>
      </trkpt>
      <trkpt lat="42.3416970" lon="-7.9435740">
        <ele>139.8</ele>
        <time>2019-08-17T15:37:43Z</time>
      </trkpt>
      <trkpt lat="42.3417170" lon="-7.9435680">
        <ele>140.5</ele>
        <time>2019-08-17T15:37:44Z</time>
      </trkpt>
      <trkpt lat="42.3417370" lon="-7.9435620">
        <ele>141.2</ele>
        <time>2019-08-17T15:37:45Z</time>
      </trkpt>
      <trkpt lat="42.3417570" lon="-7.9435570">
        <ele>141.2</ele>
        <time>2019-08-17T15:37:46Z</time>
      </trkpt>
      <trkpt lat="42.3417760" lon="-7.9435510">
        <ele>141.8</ele>
        <time>2019-08-17T15:37:47Z</time>
      </trkpt>
      <trkpt lat="42.3417950" lon="-7.9435450">
        <ele>141.8</ele>
        <time>2019-08-17T15:37:48Z</time>
      </trkpt>
      <trkpt lat="42.3418140" lon="-7.9435390">
        <ele>142.2</ele>
        <time>2019-08-17T15:37:49Z</time>
      </trkpt>
      <trkpt lat="42.3418320" lon="-7.9435330">
        <ele>142.8</ele>
        <time>2019-08-17T15:37:50Z</time>
      </trkpt>
      <trkpt lat="42.3418500" lon="-7.9435260">
        <ele>142.8</ele>
        <time>2019-08-17T15:37:51Z</time>
      </trkpt>
      <trkpt lat="42.3418680" lon="-7.9435190">
        <ele>143.4</ele>
        <time>2019-08-17T15:37:52Z</time>
      </trkpt>
      <trkpt lat="42.3418850" lon="-7.9435120">
        <ele>143.4</ele>
        <time>2019-08-17T15:37:53Z</time>
      </trkpt>
      <trkpt lat="42.3419030" lon="-7.9435050">
        <ele>144.2</ele>
        <time>2019-08-17T15:37:54Z</time>
      </trkpt>
      <trkpt lat="42.3419190" lon="-7.9435000">
        <ele>144.0</ele>
        <time>2019-08-17T15:37:55Z</time>
      </trkpt>
      <trkpt lat="42.3419350" lon="-7.9434970">
        <ele>144.8</ele>
        <time>2019-08-17T15:37:56Z</time>
      </trkpt>
      <trkpt lat="42.3419510" lon="-7.9434960">
        <ele>144.8</ele>
        <time>2019-08-17T15:37:57Z</time>
      </trkpt>
      <trkpt lat="42.3419650" lon="-7.9435000">
        <ele>145.5</ele>
        <time>2019-08-17T15:37:58Z</time>
      </trkpt>
      <trkpt lat="42.3419790" lon="-7.9435070">
        <ele>145.7</ele>
        <time>2019-08-17T15:37:59Z</time>
      </trkpt>
      <trkpt lat="42.3419920" lon="-7.9435190">
        <ele>146.4</ele>
        <time>2019-08-17T15:38:00Z</time>
      </trkpt>
      <trkpt lat="42.3420030" lon="-7.9435350">
        <ele>146.4</ele>
        <time>2019-08-17T15:38:01Z</time>
      </trkpt>
      <trkpt lat="42.3420130" lon="-7.9435550">
        <ele>146.4</ele>
        <time>2019-08-17T15:38:02Z</time>
      </trkpt>
      <trkpt lat="42.3420220" lon="-7.9435770">
        <ele>146.4</ele>
        <time>2019-08-17T15:38:03Z</time>
      </trkpt>
      <trkpt lat="42.3420280" lon="-7.9436020">
        <ele>146.5</ele>
        <time>2019-08-17T15:38:04Z</time>
      </trkpt>
      <trkpt lat="42.3420320" lon="-7.9436280">
        <ele>146.6</ele>
        <time>2019-08-17T15:38:05Z</time>
      </trkpt>
      <trkpt lat="42.3420340" lon="-7.9436550">
        <ele>146.6</ele>
        <time>2019-08-17T15:38:06Z</time>
      </trkpt>
      <trkpt lat="42.3420340" lon="-7.9436830">
        <ele>146.6</ele>
        <time>2019-08-17T15:38:07Z</time>
      </trkpt>
      <trkpt lat="42.3420310" lon="-7.9437130">
        <ele>146.6</ele>
        <time>2019-08-17T15:38:08Z</time>
      </trkpt>
      <trkpt lat="42.3420280" lon="-7.9437450">
        <ele>146.6</ele>
        <time>2019-08-17T15:38:09Z</time>
      </trkpt>
      <trkpt lat="42.3420240" lon="-7.9437820">
        <ele>146.5</ele>
        <time>2019-08-17T15:38:10Z</time>
      </trkpt>
      <trkpt lat="42.3420200" lon="-7.9438040">
        <ele>146.5</ele>
        <time>2019-08-17T15:38:11Z</time>
      </trkpt>
      <trkpt lat="42.3420230" lon="-7.9439330">
        <ele>146.4</ele>
        <time>2019-08-17T15:38:12Z</time>
      </trkpt>
      <trkpt lat="42.3420280" lon="-7.9440340">
        <ele>146.3</ele>
        <time>2019-08-17T15:38:53Z</time>
      </trkpt>
      <trkpt lat="42.3420340" lon="-7.9441360">
        <ele>146.2</ele>
        <time>2019-08-17T15:38:54Z</time>
      </trkpt>
      <trkpt lat="42.3420290" lon="-7.9441850">
        <ele>146.2</ele>
        <time>2019-08-17T15:38:55Z</time>
      </trkpt>
      <trkpt lat="42.3420260" lon="-7.9442420">
        <ele>146.1</ele>
        <time>2019-08-17T15:38:56Z</time>
      </trkpt>
      <trkpt lat="42.3420210" lon="-7.9442940">
        <ele>146.0</ele>
        <time>2019-08-17T15:38:57Z</time>
      </trkpt>
      <trkpt lat="42.3420170" lon="-7.9443480">
        <ele>146.0</ele>
        <time>2019-08-17T15:38:58Z</time>
      </trkpt>
      <trkpt lat="42.3420110" lon="-7.9444410">
        <ele>145.8</ele>
        <time>2019-08-17T15:38:59Z</time>
      </trkpt>
      <trkpt lat="42.3420090" lon="-7.9444790">
        <ele>145.8</ele>
        <time>2019-08-17T15:39:00Z</time>
      </trkpt>
      <trkpt lat="42.3420070" lon="-7.9445160">
        <ele>145.7</ele>
        <time>2019-08-17T15:39:01Z</time>
      </trkpt>
      <trkpt lat="42.3420040" lon="-7.9445710">
        <ele>145.7</ele>
        <time>2019-08-17T15:39:02Z</time>
      </trkpt>
      <trkpt lat="42.3420020" lon="-7.9446250">
        <ele>145.6</ele>
        <time>2019-08-17T15:39:03Z</time>
      </trkpt>
      <trkpt lat="42.3420010" lon="-7.9446780">
        <ele>145.5</ele>
        <time>2019-08-17T15:39:04Z</time>
      </trkpt>
      <trkpt lat="42.3420000" lon="-7.9447590">
        <ele>145.4</ele>
        <time>2019-08-17T15:39:05Z</time>
      </trkpt>
      <trkpt lat="42.3420000" lon="-7.9447850">
        <ele>145.4</ele>
        <time>2019-08-17T15:39:06Z</time>
      </trkpt>
      <trkpt lat="42.3420010" lon="-7.9448390">
        <ele>145.3</ele>
        <time>2019-08-17T15:39:07Z</time>
      </trkpt>
      <trkpt lat="42.3420020" lon="-7.9448940">
        <ele>145.2</ele>
        <time>2019-08-17T15:39:08Z</time>
      </trkpt>
      <trkpt lat="42.3420030" lon="-7.9449500">
        <ele>145.2</ele>
        <time>2019-08-17T15:39:09Z</time>
      </trkpt>
      <trkpt lat="42.3420050" lon="-7.9450040">
        <ele>145.1</ele>
        <time>2019-08-17T15:39:10Z</time>
      </trkpt>
      <trkpt lat="42.3420070" lon="-7.9450560">
        <ele>145.1</ele>
        <time>2019-08-17T15:39:11Z</time>
      </trkpt>
      <trkpt lat="42.3420100" lon="-7.9451040">
        <ele>145.0</ele>
        <time>2019-08-17T15:39:12Z</time>
      </trkpt>
      <trkpt lat="42.3420120" lon="-7.9451460">
        <ele>144.9</ele>
        <time>2019-08-17T15:39:13Z</time>
      </trkpt>
      <trkpt lat="42.3420130" lon="-7.9451790">
        <ele>144.9</ele>
        <time>2019-08-17T15:39:14Z</time>
      </trkpt>
      <trkpt lat="42.3420150" lon="-7.9452030">
        <ele>144.9</ele>
        <time>2019-08-17T15:39:15Z</time>
      </trkpt>
      <trkpt lat="42.3420150" lon="-7.9452150">
        <ele>144.9</ele>
        <time>2019-08-17T15:39:16Z</time>
      </trkpt>
      <trkpt lat="42.3420150" lon="-7.9452200">
        <ele>144.9</ele>
        <time>2019-08-17T15:39:17Z</time>
      </trkpt>
      <trkpt lat="42.3420150" lon="-7.9452200">
        <ele>144.9</ele>
        <time>2019-08-17T15:39:18Z</time>
      </trkpt>
      <trkpt lat="42.3420150" lon="-7.9452200">
        <ele>144.9</ele>
        <time>2019-08-17T15:39:19Z</time>
      </trkpt>
      <trkpt lat="42.3420160" lon="-7.9452210">
        <ele>144.9</ele>
        <time>2019-08-17T15:39:20Z</time>
      </trkpt>
      <trkpt lat="42.3420150" lon="-7.9452230">
        <ele>144.9</ele>
        <time>2019-08-17T15:39:21Z</time>
      </trkpt>
      <trkpt lat="42.3420150" lon="-7.9452240">
        <ele>144.8</ele>
        <time>2019-08-17T15:39:22Z</time>
      </trkpt>
      <trkpt lat="42.3420130" lon="-7.9452240">
        <ele>144.8</ele>
        <time>2019-08-17T15:39:23Z</time>
      </trkpt>
      <trkpt lat="42.3420110" lon="-7.9452290">
        <ele>144.8</ele>
        <time>2019-08-17T15:39:24Z</time>
      </trkpt>
      <trkpt lat="42.3420060" lon="-7.9452480">
        <ele>144.8</ele>
        <time>2019-08-17T15:39:25Z</time>
      </trkpt>
      <trkpt lat="42.3420040" lon="-7.9452780">
        <ele>144.8</ele>
        <time>2019-08-17T15:39:26Z</time>
      </trkpt>
      <trkpt lat="42.3420050" lon="-7.9453150">
        <ele>144.7</ele>
        <time>2019-08-17T15:39:27Z</time>
      </trkpt>
      <trkpt lat="42.3420100" lon="-7.9453580">
        <ele>144.7</ele>
        <time>2019-08-17T15:39:28Z</time>
      </trkpt>
      <trkpt lat="42.3420150" lon="-7.9454050">
        <ele>144.6</ele>
        <time>2019-08-17T15:39:29Z</time>
      </trkpt>
      <trkpt lat="42.3420210" lon="-7.9454540">
        <ele>144.5</ele>
        <time>2019-08-17T15:39:30Z</time>
      </trkpt>
      <trkpt lat="42.3420290" lon="-7.9455420">
        <ele>144.4</ele>
        <time>2019-08-17T15:39:31Z</time>
      </trkpt>
      <trkpt lat="42.3420320" lon="-7.9455770">
        <ele>144.4</ele>
        <time>2019-08-17T15:39:32Z</time>
      </trkpt>
      <trkpt lat="42.3420350" lon="-7.9456130">
        <ele>144.3</ele>
        <time>2019-08-17T15:39:33Z</time>
      </trkpt>
      <trkpt lat="42.3420390" lon="-7.9456680">
        <ele>144.3</ele>
        <time>2019-08-17T15:39:34Z</time>
      </trkpt>
      <trkpt lat="42.3420430" lon="-7.9457250">
        <ele>144.2</ele>
        <time>2019-08-17T15:39:35Z</time>
      </trkpt>
      <trkpt lat="42.3420500" lon="-7.9458190">
        <ele>144.0</ele>
        <time>2019-08-17T15:39:36Z</time>
      </trkpt>
      <trkpt lat="42.3420520" lon="-7.9458560">
        <ele>144.0</ele>
        <time>2019-08-17T15:39:37Z</time>
      </trkpt>
      <trkpt lat="42.3420550" lon="-7.9458940">
        <ele>143.9</ele>
        <time>2019-08-17T15:39:38Z</time>
      </trkpt>
      <trkpt lat="42.3420600" lon="-7.9459510">
        <ele>143.8</ele>
        <time>2019-08-17T15:39:39Z</time>
      </trkpt>
      <trkpt lat="42.3420650" lon="-7.9460070">
        <ele>143.8</ele>
        <time>2019-08-17T15:39:40Z</time>
      </trkpt>
      <trkpt lat="42.3420700" lon="-7.9460630">
        <ele>143.7</ele>
        <time>2019-08-17T15:39:41Z</time>
      </trkpt>
      <trkpt lat="42.3420740" lon="-7.9461200">
        <ele>143.6</ele>
        <time>2019-08-17T15:39:42Z</time>
      </trkpt>
      <trkpt lat="42.3420780" lon="-7.9461760">
        <ele>143.6</ele>
        <time>2019-08-17T15:39:43Z</time>
      </trkpt>
      <trkpt lat="42.3420820" lon="-7.9462330">
        <ele>143.5</ele>
        <time>2019-08-17T15:39:44Z</time>
      </trkpt>
      <trkpt lat="42.3420860" lon="-7.9462890">
        <ele>143.4</ele>
        <time>2019-08-17T15:39:45Z</time>
      </trkpt>
      <trkpt lat="42.3420890" lon="-7.9463460">
        <ele>143.8</ele>
        <time>2019-08-17T15:39:46Z</time>
      </trkpt>
      <trkpt lat="42.3420910" lon="-7.9464040">
        <ele>144.2</ele>
        <time>2019-08-17T15:39:47Z</time>
      </trkpt>
      <trkpt lat="42.3420940" lon="-7.9464610">
        <ele>144.6</ele>
        <time>2019-08-17T15:39:48Z</time>
      </trkpt>
      <trkpt lat="42.3420950" lon="-7.9465180">
        <ele>145.0</ele>
        <time>2019-08-17T15:39:49Z</time>
      </trkpt>
      <trkpt lat="42.3420970" lon="-7.9465760">
        <ele>145.3</ele>
        <time>2019-08-17T15:39:50Z</time>
      </trkpt>
      <trkpt lat="42.3420980" lon="-7.9466340">
        <ele>145.7</ele>
        <time>2019-08-17T15:39:51Z</time>
      </trkpt>
      <trkpt lat="42.3420990" lon="-7.9466920">
        <ele>146.0</ele>
        <time>2019-08-17T15:39:52Z</time>
      </trkpt>
      <trkpt lat="42.3421000" lon="-7.9467500">
        <ele>146.4</ele>
        <time>2019-08-17T15:39:53Z</time>
      </trkpt>
      <trkpt lat="42.3421000" lon="-7.9468080">
        <ele>146.7</ele>
        <time>2019-08-17T15:39:54Z</time>
      </trkpt>
      <trkpt lat="42.3420990" lon="-7.9468660">
        <ele>147.0</ele>
        <time>2019-08-17T15:39:55Z</time>
      </trkpt>
      <trkpt lat="42.3420970" lon="-7.9469240">
        <ele>147.4</ele>
        <time>2019-08-17T15:39:56Z</time>
      </trkpt>
      <trkpt lat="42.3420950" lon="-7.9469820">
        <ele>147.7</ele>
        <time>2019-08-17T15:39:57Z</time>
      </trkpt>
      <trkpt lat="42.3420910" lon="-7.9470400">
        <ele>148.0</ele>
        <time>2019-08-17T15:39:58Z</time>
      </trkpt>
      <trkpt lat="42.3420860" lon="-7.9470990">
        <ele>148.3</ele>
        <time>2019-08-17T15:39:59Z</time>
      </trkpt>
      <trkpt lat="42.3420790" lon="-7.9471560">
        <ele>148.6</ele>
        <time>2019-08-17T15:40:00Z</time>
      </trkpt>
      <trkpt lat="42.3420720" lon="-7.9472140">
        <ele>148.8</ele>
        <time>2019-08-17T15:40:01Z</time>
      </trkpt>
      <trkpt lat="42.3420630" lon="-7.9472720">
        <ele>149.1</ele>
        <time>2019-08-17T15:40:02Z</time>
      </trkpt>
      <trkpt lat="42.3420540" lon="-7.9473290">
        <ele>149.4</ele>
        <time>2019-08-17T15:40:03Z</time>
      </trkpt>
      <trkpt lat="42.3420430" lon="-7.9473870">
        <ele>149.7</ele>
        <time>2019-08-17T15:40:04Z</time>
      </trkpt>
      <trkpt lat="42.3420320" lon="-7.9474440">
        <ele>150.0</ele>
        <time>2019-08-17T15:40:05Z</time>
      </trkpt>
      <trkpt lat="42.3420200" lon="-7.9475000">
        <ele>150.3</ele>
        <time>2019-08-17T15:40:06Z</time>
      </trkpt>
      <trkpt lat="42.3420080" lon="-7.9475560">
        <ele>150.6</ele>
        <time>2019-08-17T15:40:07Z</time>
      </trkpt>
      <trkpt lat="42.3419940" lon="-7.9476120">
        <ele>150.9</ele>
        <time>2019-08-17T15:40:08Z</time>
      </trkpt>
      <trkpt lat="42.3419810" lon="-7.9476680">
        <ele>151.1</ele>
        <time>2019-08-17T15:40:09Z</time>
      </trkpt>
      <trkpt lat="42.3419670" lon="-7.9477230">
        <ele>151.7</ele>
        <time>2019-08-17T15:40:10Z</time>
      </trkpt>
      <trkpt lat="42.3419530" lon="-7.9477770">
        <ele>151.4</ele>
        <time>2019-08-17T15:40:11Z</time>
      </trkpt>
      <trkpt lat="42.3419380" lon="-7.9478310">
        <ele>152.0</ele>
        <time>2019-08-17T15:40:12Z</time>
      </trkpt>
      <trkpt lat="42.3419240" lon="-7.9478840">
        <ele>152.0</ele>
        <time>2019-08-17T15:40:13Z</time>
      </trkpt>
      <trkpt lat="42.3419090" lon="-7.9479370">
        <ele>152.6</ele>
        <time>2019-08-17T15:40:14Z</time>
      </trkpt>
      <trkpt lat="42.3418940" lon="-7.9479890">
        <ele>153.1</ele>
        <time>2019-08-17T15:40:15Z</time>
      </trkpt>
      <trkpt lat="42.3418800" lon="-7.9480400">
        <ele>152.8</ele>
        <time>2019-08-17T15:40:16Z</time>
      </trkpt>
      <trkpt lat="42.3418650" lon="-7.9480910">
        <ele>153.3</ele>
        <time>2019-08-17T15:40:17Z</time>
      </trkpt>
      <trkpt lat="42.3418500" lon="-7.9481420">
        <ele>153.5</ele>
        <time>2019-08-17T15:40:18Z</time>
      </trkpt>
      <trkpt lat="42.3418360" lon="-7.9481920">
        <ele>154.1</ele>
        <time>2019-08-17T15:40:19Z</time>
      </trkpt>
      <trkpt lat="42.3418210" lon="-7.9482420">
        <ele>153.9</ele>
        <time>2019-08-17T15:40:20Z</time>
      </trkpt>
      <trkpt lat="42.3418070" lon="-7.9482920">
        <ele>154.4</ele>
        <time>2019-08-17T15:40:21Z</time>
      </trkpt>
      <trkpt lat="42.3417920" lon="-7.9483420">
        <ele>154.3</ele>
        <time>2019-08-17T15:40:22Z</time>
      </trkpt>
      <trkpt lat="42.3417780" lon="-7.9483920">
        <ele>154.7</ele>
        <time>2019-08-17T15:40:23Z</time>
      </trkpt>
      <trkpt lat="42.3417640" lon="-7.9484420">
        <ele>154.8</ele>
        <time>2019-08-17T15:40:24Z</time>
      </trkpt>
      <trkpt lat="42.3417490" lon="-7.9484910">
        <ele>155.2</ele>
        <time>2019-08-17T15:40:25Z</time>
      </trkpt>
      <trkpt lat="42.3417350" lon="-7.9485410">
        <ele>155.6</ele>
        <time>2019-08-17T15:40:26Z</time>
      </trkpt>
      <trkpt lat="42.3417210" lon="-7.9485920">
        <ele>155.3</ele>
        <time>2019-08-17T15:40:27Z</time>
      </trkpt>
      <trkpt lat="42.3417080" lon="-7.9486420">
        <ele>155.6</ele>
        <time>2019-08-17T15:40:28Z</time>
      </trkpt>
      <trkpt lat="42.3416940" lon="-7.9486930">
        <ele>155.3</ele>
        <time>2019-08-17T15:40:29Z</time>
      </trkpt>
      <trkpt lat="42.3416810" lon="-7.9487440">
        <ele>155.8</ele>
        <time>2019-08-17T15:40:30Z</time>
      </trkpt>
      <trkpt lat="42.3416670" lon="-7.9487950">
        <ele>155.3</ele>
        <time>2019-08-17T15:40:31Z</time>
      </trkpt>
      <trkpt lat="42.3416540" lon="-7.9488470">
        <ele>155.6</ele>
        <time>2019-08-17T15:40:32Z</time>
      </trkpt>
      <trkpt lat="42.3416410" lon="-7.9488990">
        <ele>155.9</ele>
        <time>2019-08-17T15:40:33Z</time>
      </trkpt>
      <trkpt lat="42.3416280" lon="-7.9489510">
        <ele>155.5</ele>
        <time>2019-08-17T15:40:34Z</time>
      </trkpt>
      <trkpt lat="42.3416150" lon="-7.9490030">
        <ele>156.0</ele>
        <time>2019-08-17T15:40:35Z</time>
      </trkpt>
      <trkpt lat="42.3416020" lon="-7.9490560">
        <ele>155.5</ele>
        <time>2019-08-17T15:40:36Z</time>
      </trkpt>
      <trkpt lat="42.3415890" lon="-7.9491080">
        <ele>155.8</ele>
        <time>2019-08-17T15:40:37Z</time>
      </trkpt>
      <trkpt lat="42.3415770" lon="-7.9491610">
        <ele>156.1</ele>
        <time>2019-08-17T15:40:38Z</time>
      </trkpt>
      <trkpt lat="42.3415640" lon="-7.9492140">
        <ele>155.9</ele>
        <time>2019-08-17T15:40:39Z</time>
      </trkpt>
      <trkpt lat="42.3415510" lon="-7.9492680">
        <ele>156.1</ele>
        <time>2019-08-17T15:40:40Z</time>
      </trkpt>
      <trkpt lat="42.3415390" lon="-7.9493210">
        <ele>155.7</ele>
        <time>2019-08-17T15:40:41Z</time>
      </trkpt>
      <trkpt lat="42.3415260" lon="-7.9493740">
        <ele>155.9</ele>
        <time>2019-08-17T15:40:42Z</time>
      </trkpt>
      <trkpt lat="42.3415130" lon="-7.9494280">
        <ele>156.4</ele>
        <time>2019-08-17T15:40:43Z</time>
      </trkpt>
      <trkpt lat="42.3415010" lon="-7.9494820">
        <ele>156.0</ele>
        <time>2019-08-17T15:40:44Z</time>
      </trkpt>
      <trkpt lat="42.3414880" lon="-7.9495350">
        <ele>156.3</ele>
        <time>2019-08-17T15:40:45Z</time>
      </trkpt>
      <trkpt lat="42.3414750" lon="-7.9495890">
        <ele>156.3</ele>
        <time>2019-08-17T15:40:46Z</time>
      </trkpt>
      <trkpt lat="42.3414630" lon="-7.9496430">
        <ele>156.3</ele>
        <time>2019-08-17T15:40:47Z</time>
      </trkpt>
      <trkpt lat="42.3414500" lon="-7.9496980">
        <ele>156.2</ele>
        <time>2019-08-17T15:40:48Z</time>
      </trkpt>
      <trkpt lat="42.3414370" lon="-7.9497520">
        <ele>156.2</ele>
        <time>2019-08-17T15:40:49Z</time>
      </trkpt>
      <trkpt lat="42.3414240" lon="-7.9498070">
        <ele>156.1</ele>
        <time>2019-08-17T15:40:50Z</time>
      </trkpt>
      <trkpt lat="42.3414120" lon="-7.9498620">
        <ele>155.9</ele>
        <time>2019-08-17T15:40:51Z</time>
      </trkpt>
      <trkpt lat="42.3413990" lon="-7.9499170">
        <ele>155.8</ele>
        <time>2019-08-17T15:40:52Z</time>
      </trkpt>
      <trkpt lat="42.3413860" lon="-7.9499730">
        <ele>155.6</ele>
        <time>2019-08-17T15:40:53Z</time>
      </trkpt>
      <trkpt lat="42.3413730" lon="-7.9500280">
        <ele>155.5</ele>
        <time>2019-08-17T15:40:54Z</time>
      </trkpt>
      <trkpt lat="42.3413600" lon="-7.9500830">
        <ele>155.7</ele>
        <time>2019-08-17T15:40:55Z</time>
      </trkpt>
      <trkpt lat="42.3413470" lon="-7.9501380">
        <ele>155.9</ele>
        <time>2019-08-17T15:40:56Z</time>
      </trkpt>
      <trkpt lat="42.3413330" lon="-7.9501930">
        <ele>156.1</ele>
        <time>2019-08-17T15:40:57Z</time>
      </trkpt>
      <trkpt lat="42.3413200" lon="-7.9502470">
        <ele>156.2</ele>
        <time>2019-08-17T15:40:58Z</time>
      </trkpt>
      <trkpt lat="42.3413060" lon="-7.9503010">
        <ele>156.3</ele>
        <time>2019-08-17T15:40:59Z</time>
      </trkpt>
      <trkpt lat="42.3412930" lon="-7.9503550">
        <ele>156.4</ele>
        <time>2019-08-17T15:41:00Z</time>
      </trkpt>
      <trkpt lat="42.3412790" lon="-7.9504080">
        <ele>156.5</ele>
        <time>2019-08-17T15:41:01Z</time>
      </trkpt>
      <trkpt lat="42.3412650" lon="-7.9504610">
        <ele>156.6</ele>
        <time>2019-08-17T15:41:02Z</time>
      </trkpt>
      <trkpt lat="42.3412520" lon="-7.9505140">
        <ele>156.7</ele>
        <time>2019-08-17T15:41:03Z</time>
      </trkpt>
      <trkpt lat="42.3412380" lon="-7.9505660">
        <ele>156.9</ele>
        <time>2019-08-17T15:41:04Z</time>
      </trkpt>
      <trkpt lat="42.3412240" lon="-7.9506180">
        <ele>157.0</ele>
        <time>2019-08-17T15:41:05Z</time>
      </trkpt>
      <trkpt lat="42.3412100" lon="-7.9506710">
        <ele>157.1</ele>
        <time>2019-08-17T15:41:06Z</time>
      </trkpt>
      <trkpt lat="42.3411960" lon="-7.9507230">
        <ele>157.2</ele>
        <time>2019-08-17T15:41:07Z</time>
      </trkpt>
      <trkpt lat="42.3411830" lon="-7.9507740">
        <ele>157.3</ele>
        <time>2019-08-17T15:41:08Z</time>
      </trkpt>
      <trkpt lat="42.3411690" lon="-7.9508260">
        <ele>157.4</ele>
        <time>2019-08-17T15:41:09Z</time>
      </trkpt>
      <trkpt lat="42.3411560" lon="-7.9508780">
        <ele>157.5</ele>
        <time>2019-08-17T15:41:10Z</time>
      </trkpt>
      <trkpt lat="42.3411420" lon="-7.9509300">
        <ele>157.6</ele>
        <time>2019-08-17T15:41:11Z</time>
      </trkpt>
      <trkpt lat="42.3411290" lon="-7.9509820">
        <ele>157.7</ele>
        <time>2019-08-17T15:41:12Z</time>
      </trkpt>
      <trkpt lat="42.3411160" lon="-7.9510340">
        <ele>157.8</ele>
        <time>2019-08-17T15:41:13Z</time>
      </trkpt>
      <trkpt lat="42.3411030" lon="-7.9510860">
        <ele>157.9</ele>
        <time>2019-08-17T15:41:14Z</time>
      </trkpt>
      <trkpt lat="42.3410900" lon="-7.9511390">
        <ele>158.0</ele>
        <time>2019-08-17T15:41:15Z</time>
      </trkpt>
      <trkpt lat="42.3410780" lon="-7.9511910">
        <ele>158.0</ele>
        <time>2019-08-17T15:41:16Z</time>
      </trkpt>
      <trkpt lat="42.3410650" lon="-7.9512440">
        <ele>158.1</ele>
        <time>2019-08-17T15:41:17Z</time>
      </trkpt>
      <trkpt lat="42.3410530" lon="-7.9512970">
        <ele>158.2</ele>
        <time>2019-08-17T15:41:18Z</time>
      </trkpt>
      <trkpt lat="42.3410400" lon="-7.9513490">
        <ele>158.3</ele>
        <time>2019-08-17T15:41:19Z</time>
      </trkpt>
      <trkpt lat="42.3410270" lon="-7.9514030">
        <ele>158.4</ele>
        <time>2019-08-17T15:41:20Z</time>
      </trkpt>
      <trkpt lat="42.3410140" lon="-7.9514560">
        <ele>158.5</ele>
        <time>2019-08-17T15:41:21Z</time>
      </trkpt>
      <trkpt lat="42.3410020" lon="-7.9515090">
        <ele>158.6</ele>
        <time>2019-08-17T15:41:22Z</time>
      </trkpt>
      <trkpt lat="42.3409890" lon="-7.9515630">
        <ele>158.7</ele>
        <time>2019-08-17T15:41:23Z</time>
      </trkpt>
      <trkpt lat="42.3409750" lon="-7.9516170">
        <ele>158.8</ele>
        <time>2019-08-17T15:41:24Z</time>
      </trkpt>
      <trkpt lat="42.3409620" lon="-7.9516710">
        <ele>158.8</ele>
        <time>2019-08-17T15:41:25Z</time>
      </trkpt>
      <trkpt lat="42.3409480" lon="-7.9517260">
        <ele>158.9</ele>
        <time>2019-08-17T15:41:26Z</time>
      </trkpt>
      <trkpt lat="42.3409350" lon="-7.9517800">
        <ele>158.9</ele>
        <time>2019-08-17T15:41:27Z</time>
      </trkpt>
      <trkpt lat="42.3409200" lon="-7.9518350">
        <ele>159.0</ele>
        <time>2019-08-17T15:41:28Z</time>
      </trkpt>
      <trkpt lat="42.3409060" lon="-7.9518900">
        <ele>159.1</ele>
        <time>2019-08-17T15:41:29Z</time>
      </trkpt>
      <trkpt lat="42.3408920" lon="-7.9519460">
        <ele>159.1</ele>
        <time>2019-08-17T15:41:30Z</time>
      </trkpt>
      <trkpt lat="42.3408780" lon="-7.9520010">
        <ele>159.1</ele>
        <time>2019-08-17T15:41:31Z</time>
      </trkpt>
      <trkpt lat="42.3408630" lon="-7.9520570">
        <ele>159.2</ele>
        <time>2019-08-17T15:41:32Z</time>
      </trkpt>
      <trkpt lat="42.3408490" lon="-7.9521130">
        <ele>159.2</ele>
        <time>2019-08-17T15:41:33Z</time>
      </trkpt>
      <trkpt lat="42.3408350" lon="-7.9521690">
        <ele>159.2</ele>
        <time>2019-08-17T15:41:34Z</time>
      </trkpt>
      <trkpt lat="42.3408210" lon="-7.9522250">
        <ele>159.2</ele>
        <time>2019-08-17T15:41:35Z</time>
      </trkpt>
      <trkpt lat="42.3408070" lon="-7.9522820">
        <ele>159.2</ele>
        <time>2019-08-17T15:41:36Z</time>
      </trkpt>
      <trkpt lat="42.3407940" lon="-7.9523380">
        <ele>159.2</ele>
        <time>2019-08-17T15:41:37Z</time>
      </trkpt>
      <trkpt lat="42.3407810" lon="-7.9523960">
        <ele>159.2</ele>
        <time>2019-08-17T15:41:38Z</time>
      </trkpt>
      <trkpt lat="42.3407680" lon="-7.9524530">
        <ele>159.2</ele>
        <time>2019-08-17T15:41:39Z</time>
      </trkpt>
      <trkpt lat="42.3407550" lon="-7.9525120">
        <ele>159.2</ele>
        <time>2019-08-17T15:41:40Z</time>
      </trkpt>
      <trkpt lat="42.3407430" lon="-7.9525720">
        <ele>159.2</ele>
        <time>2019-08-17T15:41:41Z</time>
      </trkpt>
      <trkpt lat="42.3407310" lon="-7.9526320">
        <ele>159.2</ele>
        <time>2019-08-17T15:41:42Z</time>
      </trkpt>
      <trkpt lat="42.3407200" lon="-7.9526930">
        <ele>159.2</ele>
        <time>2019-08-17T15:41:43Z</time>
      </trkpt>
      <trkpt lat="42.3407090" lon="-7.9527550">
        <ele>159.2</ele>
        <time>2019-08-17T15:41:44Z</time>
      </trkpt>
      <trkpt lat="42.3406980" lon="-7.9528180">
        <ele>159.2</ele>
        <time>2019-08-17T15:41:45Z</time>
      </trkpt>
      <trkpt lat="42.3406880" lon="-7.9528810">
        <ele>159.2</ele>
        <time>2019-08-17T15:41:46Z</time>
      </trkpt>
      <trkpt lat="42.3406770" lon="-7.9529450">
        <ele>159.1</ele>
        <time>2019-08-17T15:41:47Z</time>
      </trkpt>
      <trkpt lat="42.3406670" lon="-7.9530090">
        <ele>159.1</ele>
        <time>2019-08-17T15:41:48Z</time>
      </trkpt>
      <trkpt lat="42.3406570" lon="-7.9530720">
        <ele>159.1</ele>
        <time>2019-08-17T15:41:49Z</time>
      </trkpt>
      <trkpt lat="42.3406470" lon="-7.9531360">
        <ele>159.0</ele>
        <time>2019-08-17T15:41:50Z</time>
      </trkpt>
      <trkpt lat="42.3406350" lon="-7.9531980">
        <ele>159.0</ele>
        <time>2019-08-17T15:41:51Z</time>
      </trkpt>
      <trkpt lat="42.3406230" lon="-7.9532580">
        <ele>159.0</ele>
        <time>2019-08-17T15:41:52Z</time>
      </trkpt>
      <trkpt lat="42.3406090" lon="-7.9533170">
        <ele>158.9</ele>
        <time>2019-08-17T15:41:53Z</time>
      </trkpt>
      <trkpt lat="42.3405950" lon="-7.9533760">
        <ele>158.9</ele>
        <time>2019-08-17T15:41:54Z</time>
      </trkpt>
      <trkpt lat="42.3405840" lon="-7.9534370">
        <ele>158.8</ele>
        <time>2019-08-17T15:41:55Z</time>
      </trkpt>
      <trkpt lat="42.3405750" lon="-7.9535020">
        <ele>158.8</ele>
        <time>2019-08-17T15:41:56Z</time>
      </trkpt>
      <trkpt lat="42.3405700" lon="-7.9535700">
        <ele>158.7</ele>
        <time>2019-08-17T15:41:57Z</time>
      </trkpt>
      <trkpt lat="42.3405640" lon="-7.9536410">
        <ele>158.6</ele>
        <time>2019-08-17T15:41:58Z</time>
      </trkpt>
      <trkpt lat="42.3405580" lon="-7.9537140">
        <ele>158.5</ele>
        <time>2019-08-17T15:41:59Z</time>
      </trkpt>
      <trkpt lat="42.3405490" lon="-7.9537860">
        <ele>158.5</ele>
        <time>2019-08-17T15:42:00Z</time>
      </trkpt>
      <trkpt lat="42.3405380" lon="-7.9538590">
        <ele>158.4</ele>
        <time>2019-08-17T15:42:01Z</time>
      </trkpt>
      <trkpt lat="42.3405260" lon="-7.9539320">
        <ele>158.3</ele>
        <time>2019-08-17T15:42:02Z</time>
      </trkpt>
      <trkpt lat="42.3405140" lon="-7.9540040">
        <ele>158.2</ele>
        <time>2019-08-17T15:42:03Z</time>
      </trkpt>
      <trkpt lat="42.3405020" lon="-7.9540760">
        <ele>158.1</ele>
        <time>2019-08-17T15:42:04Z</time>
      </trkpt>
      <trkpt lat="42.3404920" lon="-7.9541470">
        <ele>158.0</ele>
        <time>2019-08-17T15:42:05Z</time>
      </trkpt>
      <trkpt lat="42.3404820" lon="-7.9542190">
        <ele>157.9</ele>
        <time>2019-08-17T15:42:06Z</time>
      </trkpt>
      <trkpt lat="42.3404730" lon="-7.9542910">
        <ele>157.8</ele>
        <time>2019-08-17T15:42:07Z</time>
      </trkpt>
      <trkpt lat="42.3404640" lon="-7.9543640">
        <ele>157.8</ele>
        <time>2019-08-17T15:42:08Z</time>
      </trkpt>
      <trkpt lat="42.3404560" lon="-7.9544370">
        <ele>157.7</ele>
        <time>2019-08-17T15:42:09Z</time>
      </trkpt>
      <trkpt lat="42.3404480" lon="-7.9545120">
        <ele>157.6</ele>
        <time>2019-08-17T15:42:10Z</time>
      </trkpt>
      <trkpt lat="42.3404410" lon="-7.9545880">
        <ele>157.6</ele>
        <time>2019-08-17T15:42:11Z</time>
      </trkpt>
      <trkpt lat="42.3404340" lon="-7.9546660">
        <ele>157.5</ele>
        <time>2019-08-17T15:42:12Z</time>
      </trkpt>
      <trkpt lat="42.3404270" lon="-7.9547450">
        <ele>157.4</ele>
        <time>2019-08-17T15:42:13Z</time>
      </trkpt>
      <trkpt lat="42.3404200" lon="-7.9548240">
        <ele>157.4</ele>
        <time>2019-08-17T15:42:14Z</time>
      </trkpt>
      <trkpt lat="42.3404130" lon="-7.9549040">
        <ele>157.3</ele>
        <time>2019-08-17T15:42:15Z</time>
      </trkpt>
      <trkpt lat="42.3404060" lon="-7.9549850">
        <ele>157.2</ele>
        <time>2019-08-17T15:42:16Z</time>
      </trkpt>
      <trkpt lat="42.3404000" lon="-7.9550660">
        <ele>157.1</ele>
        <time>2019-08-17T15:42:17Z</time>
      </trkpt>
      <trkpt lat="42.3403920" lon="-7.9551480">
        <ele>157.0</ele>
        <time>2019-08-17T15:42:18Z</time>
      </trkpt>
      <trkpt lat="42.3403850" lon="-7.9552300">
        <ele>156.9</ele>
        <time>2019-08-17T15:42:19Z</time>
      </trkpt>
      <trkpt lat="42.3403770" lon="-7.9553120">
        <ele>156.9</ele>
        <time>2019-08-17T15:42:20Z</time>
      </trkpt>
      <trkpt lat="42.3403700" lon="-7.9553940">
        <ele>156.8</ele>
        <time>2019-08-17T15:42:21Z</time>
      </trkpt>
      <trkpt lat="42.3403610" lon="-7.9554780">
        <ele>156.7</ele>
        <time>2019-08-17T15:42:22Z</time>
      </trkpt>
      <trkpt lat="42.3403530" lon="-7.9555640">
        <ele>156.6</ele>
        <time>2019-08-17T15:42:23Z</time>
      </trkpt>
      <trkpt lat="42.3403440" lon="-7.9556510">
        <ele>156.4</ele>
        <time>2019-08-17T15:42:24Z</time>
      </trkpt>
      <trkpt lat="42.3403350" lon="-7.9557400">
        <ele>156.3</ele>
        <time>2019-08-17T15:42:25Z</time>
      </trkpt>
      <trkpt lat="42.3403260" lon="-7.9558330">
        <ele>156.2</ele>
        <time>2019-08-17T15:42:26Z</time>
      </trkpt>
      <trkpt lat="42.3403170" lon="-7.9559270">
        <ele>156.0</ele>
        <time>2019-08-17T15:42:27Z</time>
      </trkpt>
      <trkpt lat="42.3403080" lon="-7.9560230">
        <ele>155.9</ele>
        <time>2019-08-17T15:42:28Z</time>
      </trkpt>
      <trkpt lat="42.3402980" lon="-7.9561210">
        <ele>155.7</ele>
        <time>2019-08-17T15:42:29Z</time>
      </trkpt>
      <trkpt lat="42.3402880" lon="-7.9562200">
        <ele>155.5</ele>
        <time>2019-08-17T15:42:30Z</time>
      </trkpt>
      <trkpt lat="42.3402790" lon="-7.9563200">
        <ele>155.3</ele>
        <time>2019-08-17T15:42:31Z</time>
      </trkpt>
      <trkpt lat="42.3402690" lon="-7.9564200">
        <ele>155.1</ele>
        <time>2019-08-17T15:42:32Z</time>
      </trkpt>
      <trkpt lat="42.3402590" lon="-7.9565210">
        <ele>155.0</ele>
        <time>2019-08-17T15:42:33Z</time>
      </trkpt>
      <trkpt lat="42.3402490" lon="-7.9566220">
        <ele>154.9</ele>
        <time>2019-08-17T15:42:34Z</time>
      </trkpt>
      <trkpt lat="42.3402390" lon="-7.9567220">
        <ele>154.9</ele>
        <time>2019-08-17T15:42:35Z</time>
      </trkpt>
      <trkpt lat="42.3402300" lon="-7.9568220">
        <ele>154.9</ele>
        <time>2019-08-17T15:42:36Z</time>
      </trkpt>
      <trkpt lat="42.3402210" lon="-7.9569220">
        <ele>154.8</ele>
        <time>2019-08-17T15:42:37Z</time>
      </trkpt>
      <trkpt lat="42.3402130" lon="-7.9570210">
        <ele>154.8</ele>
        <time>2019-08-17T15:42:38Z</time>
      </trkpt>
      <trkpt lat="42.3402070" lon="-7.9571200">
        <ele>154.8</ele>
        <time>2019-08-17T15:42:39Z</time>
      </trkpt>
      <trkpt lat="42.3402020" lon="-7.9572180">
        <ele>154.9</ele>
        <time>2019-08-17T15:42:40Z</time>
      </trkpt>
      <trkpt lat="42.3401980" lon="-7.9573150">
        <ele>154.9</ele>
        <time>2019-08-17T15:42:41Z</time>
      </trkpt>
      <trkpt lat="42.3401960" lon="-7.9574110">
        <ele>154.9</ele>
        <time>2019-08-17T15:42:42Z</time>
      </trkpt>
      <trkpt lat="42.3401950" lon="-7.9575070">
        <ele>154.9</ele>
        <time>2019-08-17T15:42:43Z</time>
      </trkpt>
      <trkpt lat="42.3401950" lon="-7.9576020">
        <ele>154.9</ele>
        <time>2019-08-17T15:42:44Z</time>
      </trkpt>
      <trkpt lat="42.3401940" lon="-7.9576970">
        <ele>155.0</ele>
        <time>2019-08-17T15:42:45Z</time>
      </trkpt>
      <trkpt lat="42.3401940" lon="-7.9577900">
        <ele>155.0</ele>
        <time>2019-08-17T15:42:46Z</time>
      </trkpt>
      <trkpt lat="42.3401930" lon="-7.9578830">
        <ele>155.0</ele>
        <time>2019-08-17T15:42:47Z</time>
      </trkpt>
      <trkpt lat="42.3401900" lon="-7.9579750">
        <ele>155.1</ele>
        <time>2019-08-17T15:42:48Z</time>
      </trkpt>
      <trkpt lat="42.3401880" lon="-7.9580670">
        <ele>155.1</ele>
        <time>2019-08-17T15:42:49Z</time>
      </trkpt>
      <trkpt lat="42.3401840" lon="-7.9581590">
        <ele>155.2</ele>
        <time>2019-08-17T15:42:50Z</time>
      </trkpt>
      <trkpt lat="42.3401790" lon="-7.9582500">
        <ele>155.2</ele>
        <time>2019-08-17T15:42:51Z</time>
      </trkpt>
      <trkpt lat="42.3401730" lon="-7.9583420">
        <ele>155.2</ele>
        <time>2019-08-17T15:42:52Z</time>
      </trkpt>
      <trkpt lat="42.3401660" lon="-7.9584330">
        <ele>155.2</ele>
        <time>2019-08-17T15:42:53Z</time>
      </trkpt>
      <trkpt lat="42.3401590" lon="-7.9585260">
        <ele>155.2</ele>
        <time>2019-08-17T15:42:54Z</time>
      </trkpt>
      <trkpt lat="42.3401510" lon="-7.9586190">
        <ele>155.2</ele>
        <time>2019-08-17T15:42:55Z</time>
      </trkpt>
      <trkpt lat="42.3401420" lon="-7.9587130">
        <ele>155.2</ele>
        <time>2019-08-17T15:42:56Z</time>
      </trkpt>
      <trkpt lat="42.3401320" lon="-7.9588080">
        <ele>155.2</ele>
        <time>2019-08-17T15:42:57Z</time>
      </trkpt>
      <trkpt lat="42.3401230" lon="-7.9589040">
        <ele>155.2</ele>
        <time>2019-08-17T15:42:58Z</time>
      </trkpt>
      <trkpt lat="42.3401140" lon="-7.9590010">
        <ele>155.2</ele>
        <time>2019-08-17T15:42:59Z</time>
      </trkpt>
      <trkpt lat="42.3401050" lon="-7.9591000">
        <ele>155.2</ele>
        <time>2019-08-17T15:43:00Z</time>
      </trkpt>
      <trkpt lat="42.3400970" lon="-7.9592000">
        <ele>155.2</ele>
        <time>2019-08-17T15:43:01Z</time>
      </trkpt>
      <trkpt lat="42.3400910" lon="-7.9593020">
        <ele>155.2</ele>
        <time>2019-08-17T15:43:02Z</time>
      </trkpt>
      <trkpt lat="42.3400860" lon="-7.9594060">
        <ele>155.3</ele>
        <time>2019-08-17T15:43:03Z</time>
      </trkpt>
      <trkpt lat="42.3400820" lon="-7.9595110">
        <ele>155.3</ele>
        <time>2019-08-17T15:43:04Z</time>
      </trkpt>
      <trkpt lat="42.3400800" lon="-7.9596150">
        <ele>155.3</ele>
        <time>2019-08-17T15:43:05Z</time>
      </trkpt>
      <trkpt lat="42.3400800" lon="-7.9597170">
        <ele>155.3</ele>
        <time>2019-08-17T15:43:06Z</time>
      </trkpt>
      <trkpt lat="42.3400820" lon="-7.9598170">
        <ele>155.4</ele>
        <time>2019-08-17T15:43:07Z</time>
      </trkpt>
      <trkpt lat="42.3400860" lon="-7.9599120">
        <ele>155.4</ele>
        <time>2019-08-17T15:43:08Z</time>
      </trkpt>
      <trkpt lat="42.3400920" lon="-7.9600020">
        <ele>155.4</ele>
        <time>2019-08-17T15:43:09Z</time>
      </trkpt>
      <trkpt lat="42.3401010" lon="-7.9600860">
        <ele>155.4</ele>
        <time>2019-08-17T15:43:10Z</time>
      </trkpt>
      <trkpt lat="42.3401120" lon="-7.9601640">
        <ele>155.4</ele>
        <time>2019-08-17T15:43:11Z</time>
      </trkpt>
      <trkpt lat="42.3401240" lon="-7.9602370">
        <ele>155.4</ele>
        <time>2019-08-17T15:43:12Z</time>
      </trkpt>
      <trkpt lat="42.3401380" lon="-7.9603060">
        <ele>155.4</ele>
        <time>2019-08-17T15:43:13Z</time>
      </trkpt>
      <trkpt lat="42.3401530" lon="-7.9603710">
        <ele>155.4</ele>
        <time>2019-08-17T15:43:14Z</time>
      </trkpt>
      <trkpt lat="42.3401680" lon="-7.9604340">
        <ele>155.5</ele>
        <time>2019-08-17T15:43:15Z</time>
      </trkpt>
      <trkpt lat="42.3401830" lon="-7.9604950">
        <ele>155.5</ele>
        <time>2019-08-17T15:43:16Z</time>
      </trkpt>
      <trkpt lat="42.3401980" lon="-7.9605560">
        <ele>155.6</ele>
        <time>2019-08-17T15:43:17Z</time>
      </trkpt>
      <trkpt lat="42.3402130" lon="-7.9606150">
        <ele>155.6</ele>
        <time>2019-08-17T15:43:18Z</time>
      </trkpt>
      <trkpt lat="42.3402280" lon="-7.9606740">
        <ele>155.6</ele>
        <time>2019-08-17T15:43:19Z</time>
      </trkpt>
      <trkpt lat="42.3402420" lon="-7.9607320">
        <ele>155.7</ele>
        <time>2019-08-17T15:43:20Z</time>
      </trkpt>
      <trkpt lat="42.3402560" lon="-7.9607900">
        <ele>155.7</ele>
        <time>2019-08-17T15:43:21Z</time>
      </trkpt>
      <trkpt lat="42.3402710" lon="-7.9608470">
        <ele>155.8</ele>
        <time>2019-08-17T15:43:22Z</time>
      </trkpt>
      <trkpt lat="42.3402840" lon="-7.9609040">
        <ele>155.8</ele>
        <time>2019-08-17T15:43:23Z</time>
      </trkpt>
      <trkpt lat="42.3402980" lon="-7.9609610">
        <ele>155.9</ele>
        <time>2019-08-17T15:43:24Z</time>
      </trkpt>
      <trkpt lat="42.3403120" lon="-7.9610170">
        <ele>155.9</ele>
        <time>2019-08-17T15:43:25Z</time>
      </trkpt>
      <trkpt lat="42.3403250" lon="-7.9610730">
        <ele>156.0</ele>
        <time>2019-08-17T15:43:26Z</time>
      </trkpt>
      <trkpt lat="42.3403380" lon="-7.9611290">
        <ele>156.0</ele>
        <time>2019-08-17T15:43:27Z</time>
      </trkpt>
      <trkpt lat="42.3403510" lon="-7.9611850">
        <ele>156.1</ele>
        <time>2019-08-17T15:43:28Z</time>
      </trkpt>
      <trkpt lat="42.3403640" lon="-7.9612410">
        <ele>156.1</ele>
        <time>2019-08-17T15:43:29Z</time>
      </trkpt>
      <trkpt lat="42.3403770" lon="-7.9612970">
        <ele>156.1</ele>
        <time>2019-08-17T15:43:30Z</time>
      </trkpt>
      <trkpt lat="42.3403890" lon="-7.9613520">
        <ele>156.1</ele>
        <time>2019-08-17T15:43:31Z</time>
      </trkpt>
      <trkpt lat="42.3404020" lon="-7.9614080">
        <ele>156.2</ele>
        <time>2019-08-17T15:43:32Z</time>
      </trkpt>
      <trkpt lat="42.3404140" lon="-7.9614640">
        <ele>156.2</ele>
        <time>2019-08-17T15:43:33Z</time>
      </trkpt>
      <trkpt lat="42.3404260" lon="-7.9615190">
        <ele>156.2</ele>
        <time>2019-08-17T15:43:34Z</time>
      </trkpt>
      <trkpt lat="42.3404380" lon="-7.9615750">
        <ele>156.3</ele>
        <time>2019-08-17T15:43:35Z</time>
      </trkpt>
      <trkpt lat="42.3404490" lon="-7.9616310">
        <ele>156.3</ele>
        <time>2019-08-17T15:43:36Z</time>
      </trkpt>
      <trkpt lat="42.3404610" lon="-7.9616870">
        <ele>156.4</ele>
        <time>2019-08-17T15:43:37Z</time>
      </trkpt>
      <trkpt lat="42.3404720" lon="-7.9617430">
        <ele>156.4</ele>
        <time>2019-08-17T15:43:38Z</time>
      </trkpt>
      <trkpt lat="42.3404830" lon="-7.9617990">
        <ele>156.5</ele>
        <time>2019-08-17T15:43:39Z</time>
      </trkpt>
      <trkpt lat="42.3404940" lon="-7.9618550">
        <ele>156.5</ele>
        <time>2019-08-17T15:43:40Z</time>
      </trkpt>
      <trkpt lat="42.3405040" lon="-7.9619110">
        <ele>156.6</ele>
        <time>2019-08-17T15:43:41Z</time>
      </trkpt>
      <trkpt lat="42.3405150" lon="-7.9619660">
        <ele>156.6</ele>
        <time>2019-08-17T15:43:42Z</time>
      </trkpt>
      <trkpt lat="42.3405250" lon="-7.9620210">
        <ele>156.7</ele>
        <time>2019-08-17T15:43:43Z</time>
      </trkpt>
      <trkpt lat="42.3405350" lon="-7.9620740">
        <ele>156.7</ele>
        <time>2019-08-17T15:43:44Z</time>
      </trkpt>
      <trkpt lat="42.3405450" lon="-7.9621270">
        <ele>156.8</ele>
        <time>2019-08-17T15:43:45Z</time>
      </trkpt>
      <trkpt lat="42.3405540" lon="-7.9621780">
        <ele>156.8</ele>
        <time>2019-08-17T15:43:46Z</time>
      </trkpt>
      <trkpt lat="42.3405640" lon="-7.9622270">
        <ele>156.9</ele>
        <time>2019-08-17T15:43:47Z</time>
      </trkpt>
      <trkpt lat="42.3405730" lon="-7.9622770">
        <ele>156.9</ele>
        <time>2019-08-17T15:43:48Z</time>
      </trkpt>
      <trkpt lat="42.3405820" lon="-7.9623250">
        <ele>157.0</ele>
        <time>2019-08-17T15:43:49Z</time>
      </trkpt>
      <trkpt lat="42.3405910" lon="-7.9623740">
        <ele>157.0</ele>
        <time>2019-08-17T15:43:50Z</time>
      </trkpt>
      <trkpt lat="42.3406000" lon="-7.9624220">
        <ele>157.0</ele>
        <time>2019-08-17T15:43:51Z</time>
      </trkpt>
      <trkpt lat="42.3406080" lon="-7.9624710">
        <ele>157.1</ele>
        <time>2019-08-17T15:43:52Z</time>
      </trkpt>
      <trkpt lat="42.3406160" lon="-7.9625210">
        <ele>157.1</ele>
        <time>2019-08-17T15:43:53Z</time>
      </trkpt>
      <trkpt lat="42.3406240" lon="-7.9625710">
        <ele>157.2</ele>
        <time>2019-08-17T15:43:54Z</time>
      </trkpt>
      <trkpt lat="42.3406320" lon="-7.9626220">
        <ele>157.2</ele>
        <time>2019-08-17T15:43:55Z</time>
      </trkpt>
      <trkpt lat="42.3406400" lon="-7.9626720">
        <ele>157.2</ele>
        <time>2019-08-17T15:43:56Z</time>
      </trkpt>
      <trkpt lat="42.3406480" lon="-7.9627230">
        <ele>157.3</ele>
        <time>2019-08-17T15:43:57Z</time>
      </trkpt>
      <trkpt lat="42.3406550" lon="-7.9627730">
        <ele>157.3</ele>
        <time>2019-08-17T15:43:58Z</time>
      </trkpt>
      <trkpt lat="42.3406630" lon="-7.9628230">
        <ele>157.4</ele>
        <time>2019-08-17T15:43:59Z</time>
      </trkpt>
      <trkpt lat="42.3406700" lon="-7.9628710">
        <ele>157.4</ele>
        <time>2019-08-17T15:44:00Z</time>
      </trkpt>
      <trkpt lat="42.3406770" lon="-7.9629190">
        <ele>157.5</ele>
        <time>2019-08-17T15:44:01Z</time>
      </trkpt>
      <trkpt lat="42.3406850" lon="-7.9629650">
        <ele>157.5</ele>
        <time>2019-08-17T15:44:02Z</time>
      </trkpt>
      <trkpt lat="42.3406920" lon="-7.9630120">
        <ele>157.6</ele>
        <time>2019-08-17T15:44:03Z</time>
      </trkpt>
      <trkpt lat="42.3406980" lon="-7.9630580">
        <ele>157.7</ele>
        <time>2019-08-17T15:44:04Z</time>
      </trkpt>
      <trkpt lat="42.3407050" lon="-7.9631040">
        <ele>157.7</ele>
        <time>2019-08-17T15:44:05Z</time>
      </trkpt>
      <trkpt lat="42.3407110" lon="-7.9631500">
        <ele>157.8</ele>
        <time>2019-08-17T15:44:06Z</time>
      </trkpt>
      <trkpt lat="42.3407170" lon="-7.9631970">
        <ele>157.8</ele>
        <time>2019-08-17T15:44:07Z</time>
      </trkpt>
      <trkpt lat="42.3407220" lon="-7.9632460">
        <ele>157.9</ele>
        <time>2019-08-17T15:44:08Z</time>
      </trkpt>
      <trkpt lat="42.3407270" lon="-7.9632950">
        <ele>157.9</ele>
        <time>2019-08-17T15:44:09Z</time>
      </trkpt>
      <trkpt lat="42.3407320" lon="-7.9633440">
        <ele>158.0</ele>
        <time>2019-08-17T15:44:10Z</time>
      </trkpt>
      <trkpt lat="42.3407370" lon="-7.9633940">
        <ele>158.0</ele>
        <time>2019-08-17T15:44:11Z</time>
      </trkpt>
      <trkpt lat="42.3407420" lon="-7.9634440">
        <ele>158.1</ele>
        <time>2019-08-17T15:44:12Z</time>
      </trkpt>
      <trkpt lat="42.3407470" lon="-7.9634930">
        <ele>158.1</ele>
        <time>2019-08-17T15:44:13Z</time>
      </trkpt>
      <trkpt lat="42.3407530" lon="-7.9635420">
        <ele>158.2</ele>
        <time>2019-08-17T15:44:14Z</time>
      </trkpt>
      <trkpt lat="42.3407590" lon="-7.9635900">
        <ele>158.2</ele>
        <time>2019-08-17T15:44:15Z</time>
      </trkpt>
      <trkpt lat="42.3407650" lon="-7.9636380">
        <ele>158.3</ele>
        <time>2019-08-17T15:44:16Z</time>
      </trkpt>
      <trkpt lat="42.3407720" lon="-7.9636840">
        <ele>158.3</ele>
        <time>2019-08-17T15:44:17Z</time>
      </trkpt>
      <trkpt lat="42.3407780" lon="-7.9637300">
        <ele>158.4</ele>
        <time>2019-08-17T15:44:18Z</time>
      </trkpt>
      <trkpt lat="42.3407840" lon="-7.9637750">
        <ele>158.4</ele>
        <time>2019-08-17T15:44:19Z</time>
      </trkpt>
      <trkpt lat="42.3407890" lon="-7.9638190">
        <ele>158.5</ele>
        <time>2019-08-17T15:44:20Z</time>
      </trkpt>
      <trkpt lat="42.3407940" lon="-7.9638620">
        <ele>158.5</ele>
        <time>2019-08-17T15:44:21Z</time>
      </trkpt>
      <trkpt lat="42.3407980" lon="-7.9639050">
        <ele>158.6</ele>
        <time>2019-08-17T15:44:22Z</time>
      </trkpt>
      <trkpt lat="42.3408000" lon="-7.9639480">
        <ele>158.6</ele>
        <time>2019-08-17T15:44:23Z</time>
      </trkpt>
      <trkpt lat="42.3408020" lon="-7.9639900">
        <ele>158.6</ele>
        <time>2019-08-17T15:44:24Z</time>
      </trkpt>
      <trkpt lat="42.3408040" lon="-7.9640310">
        <ele>158.7</ele>
        <time>2019-08-17T15:44:25Z</time>
      </trkpt>
      <trkpt lat="42.3408040" lon="-7.9640730">
        <ele>158.7</ele>
        <time>2019-08-17T15:44:26Z</time>
      </trkpt>
      <trkpt lat="42.3408040" lon="-7.9641140">
        <ele>158.8</ele>
        <time>2019-08-17T15:44:27Z</time>
      </trkpt>
      <trkpt lat="42.3408040" lon="-7.9641560">
        <ele>158.8</ele>
        <time>2019-08-17T15:44:28Z</time>
      </trkpt>
      <trkpt lat="42.3408030" lon="-7.9641980">
        <ele>158.9</ele>
        <time>2019-08-17T15:44:29Z</time>
      </trkpt>
      <trkpt lat="42.3408020" lon="-7.9642410">
        <ele>158.9</ele>
        <time>2019-08-17T15:44:30Z</time>
      </trkpt>
      <trkpt lat="42.3408000" lon="-7.9642840">
        <ele>159.0</ele>
        <time>2019-08-17T15:44:31Z</time>
      </trkpt>
      <trkpt lat="42.3407980" lon="-7.9643280">
        <ele>159.0</ele>
        <time>2019-08-17T15:44:32Z</time>
      </trkpt>
      <trkpt lat="42.3407950" lon="-7.9643710">
        <ele>159.1</ele>
        <time>2019-08-17T15:44:33Z</time>
      </trkpt>
      <trkpt lat="42.3407910" lon="-7.9644150">
        <ele>159.1</ele>
        <time>2019-08-17T15:44:34Z</time>
      </trkpt>
      <trkpt lat="42.3407870" lon="-7.9644590">
        <ele>159.2</ele>
        <time>2019-08-17T15:44:35Z</time>
      </trkpt>
      <trkpt lat="42.3407810" lon="-7.9645030">
        <ele>159.2</ele>
        <time>2019-08-17T15:44:36Z</time>
      </trkpt>
      <trkpt lat="42.3407740" lon="-7.9645470">
        <ele>159.3</ele>
        <time>2019-08-17T15:44:37Z</time>
      </trkpt>
      <trkpt lat="42.3407660" lon="-7.9645900">
        <ele>159.3</ele>
        <time>2019-08-17T15:44:38Z</time>
      </trkpt>
      <trkpt lat="42.3407570" lon="-7.9646340">
        <ele>159.3</ele>
        <time>2019-08-17T15:44:39Z</time>
      </trkpt>
      <trkpt lat="42.3407460" lon="-7.9646770">
        <ele>159.4</ele>
        <time>2019-08-17T15:44:40Z</time>
      </trkpt>
      <trkpt lat="42.3407350" lon="-7.9647200">
        <ele>159.4</ele>
        <time>2019-08-17T15:44:41Z</time>
      </trkpt>
      <trkpt lat="42.3407230" lon="-7.9647630">
        <ele>159.4</ele>
        <time>2019-08-17T15:44:42Z</time>
      </trkpt>
      <trkpt lat="42.3407090" lon="-7.9648060">
        <ele>159.5</ele>
        <time>2019-08-17T15:44:43Z</time>
      </trkpt>
      <trkpt lat="42.3406950" lon="-7.9648480">
        <ele>159.5</ele>
        <time>2019-08-17T15:44:44Z</time>
      </trkpt>
      <trkpt lat="42.3406800" lon="-7.9648910">
        <ele>159.5</ele>
        <time>2019-08-17T15:44:45Z</time>
      </trkpt>
      <trkpt lat="42.3406640" lon="-7.9649330">
        <ele>159.6</ele>
        <time>2019-08-17T15:44:46Z</time>
      </trkpt>
      <trkpt lat="42.3406480" lon="-7.9649750">
        <ele>159.6</ele>
        <time>2019-08-17T15:44:47Z</time>
      </trkpt>
      <trkpt lat="42.3406310" lon="-7.9650180">
        <ele>159.6</ele>
        <time>2019-08-17T15:44:48Z</time>
      </trkpt>
      <trkpt lat="42.3406140" lon="-7.9650610">
        <ele>159.7</ele>
        <time>2019-08-17T15:44:49Z</time>
      </trkpt>
      <trkpt lat="42.3405970" lon="-7.9651050">
        <ele>159.7</ele>
        <time>2019-08-17T15:44:50Z</time>
      </trkpt>
      <trkpt lat="42.3405790" lon="-7.9651490">
        <ele>159.7</ele>
        <time>2019-08-17T15:44:51Z</time>
      </trkpt>
      <trkpt lat="42.3405610" lon="-7.9651950">
        <ele>159.8</ele>
        <time>2019-08-17T15:44:52Z</time>
      </trkpt>
      <trkpt lat="42.3405440" lon="-7.9652410">
        <ele>159.8</ele>
        <time>2019-08-17T15:44:53Z</time>
      </trkpt>
      <trkpt lat="42.3405270" lon="-7.9652870">
        <ele>159.9</ele>
        <time>2019-08-17T15:44:54Z</time>
      </trkpt>
      <trkpt lat="42.3405100" lon="-7.9653340">
        <ele>160.0</ele>
        <time>2019-08-17T15:44:55Z</time>
      </trkpt>
      <trkpt lat="42.3404940" lon="-7.9653820">
        <ele>160.0</ele>
        <time>2019-08-17T15:44:56Z</time>
      </trkpt>
      <trkpt lat="42.3404780" lon="-7.9654300">
        <ele>160.1</ele>
        <time>2019-08-17T15:44:57Z</time>
      </trkpt>
      <trkpt lat="42.3404630" lon="-7.9654790">
        <ele>160.2</ele>
        <time>2019-08-17T15:44:58Z</time>
      </trkpt>
      <trkpt lat="42.3404490" lon="-7.9655280">
        <ele>160.2</ele>
        <time>2019-08-17T15:44:59Z</time>
      </trkpt>
      <trkpt lat="42.3404360" lon="-7.9655770">
        <ele>160.3</ele>
        <time>2019-08-17T15:45:00Z</time>
      </trkpt>
      <trkpt lat="42.3404240" lon="-7.9656270">
        <ele>160.3</ele>
        <time>2019-08-17T15:45:01Z</time>
      </trkpt>
      <trkpt lat="42.3404130" lon="-7.9656770">
        <ele>160.4</ele>
        <time>2019-08-17T15:45:02Z</time>
      </trkpt>
      <trkpt lat="42.3404040" lon="-7.9657270">
        <ele>160.4</ele>
        <time>2019-08-17T15:45:03Z</time>
      </trkpt>
      <trkpt lat="42.3403960" lon="-7.9657770">
        <ele>160.4</ele>
        <time>2019-08-17T15:45:04Z</time>
      </trkpt>
      <trkpt lat="42.3403890" lon="-7.9658280">
        <ele>160.5</ele>
        <time>2019-08-17T15:45:05Z</time>
      </trkpt>
      <trkpt lat="42.3403850" lon="-7.9658790">
        <ele>160.5</ele>
        <time>2019-08-17T15:45:06Z</time>
      </trkpt>
      <trkpt lat="42.3403820" lon="-7.9659290">
        <ele>160.5</ele>
        <time>2019-08-17T15:45:07Z</time>
      </trkpt>
      <trkpt lat="42.3403800" lon="-7.9659800">
        <ele>160.5</ele>
        <time>2019-08-17T15:45:08Z</time>
      </trkpt>
      <trkpt lat="42.3403800" lon="-7.9660310">
        <ele>160.6</ele>
        <time>2019-08-17T15:45:09Z</time>
      </trkpt>
      <trkpt lat="42.3403810" lon="-7.9660810">
        <ele>160.6</ele>
        <time>2019-08-17T15:45:10Z</time>
      </trkpt>
      <trkpt lat="42.3403830" lon="-7.9661320">
        <ele>160.6</ele>
        <time>2019-08-17T15:45:11Z</time>
      </trkpt>
      <trkpt lat="42.3403870" lon="-7.9661830">
        <ele>160.6</ele>
        <time>2019-08-17T15:45:12Z</time>
      </trkpt>
      <trkpt lat="42.3403910" lon="-7.9662340">
        <ele>160.6</ele>
        <time>2019-08-17T15:45:13Z</time>
      </trkpt>
      <trkpt lat="42.3403960" lon="-7.9662840">
        <ele>160.7</ele>
        <time>2019-08-17T15:45:14Z</time>
      </trkpt>
      <trkpt lat="42.3404010" lon="-7.9663350">
        <ele>160.7</ele>
        <time>2019-08-17T15:45:15Z</time>
      </trkpt>
      <trkpt lat="42.3404070" lon="-7.9663860">
        <ele>160.7</ele>
        <time>2019-08-17T15:45:16Z</time>
      </trkpt>
      <trkpt lat="42.3404130" lon="-7.9664360">
        <ele>160.7</ele>
        <time>2019-08-17T15:45:17Z</time>
      </trkpt>
      <trkpt lat="42.3404200" lon="-7.9664870">
        <ele>160.7</ele>
        <time>2019-08-17T15:45:18Z</time>
      </trkpt>
      <trkpt lat="42.3404270" lon="-7.9665370">
        <ele>160.7</ele>
        <time>2019-08-17T15:45:19Z</time>
      </trkpt>
      <trkpt lat="42.3404330" lon="-7.9665870">
        <ele>160.7</ele>
        <time>2019-08-17T15:45:20Z</time>
      </trkpt>
      <trkpt lat="42.3404400" lon="-7.9666370">
        <ele>160.7</ele>
        <time>2019-08-17T15:45:21Z</time>
      </trkpt>
      <trkpt lat="42.3404470" lon="-7.9666870">
        <ele>160.7</ele>
        <time>2019-08-17T15:45:22Z</time>
      </trkpt>
      <trkpt lat="42.3404540" lon="-7.9667370">
        <ele>160.8</ele>
        <time>2019-08-17T15:45:23Z</time>
      </trkpt>
      <trkpt lat="42.3404610" lon="-7.9667880">
        <ele>160.8</ele>
        <time>2019-08-17T15:45:24Z</time>
      </trkpt>
      <trkpt lat="42.3404680" lon="-7.9668380">
        <ele>160.8</ele>
        <time>2019-08-17T15:45:25Z</time>
      </trkpt>
      <trkpt lat="42.3404750" lon="-7.9668880">
        <ele>160.8</ele>
        <time>2019-08-17T15:45:26Z</time>
      </trkpt>
      <trkpt lat="42.3404820" lon="-7.9669390">
        <ele>160.8</ele>
        <time>2019-08-17T15:45:27Z</time>
      </trkpt>
      <trkpt lat="42.3404890" lon="-7.9669890">
        <ele>160.8</ele>
        <time>2019-08-17T15:45:28Z</time>
      </trkpt>
      <trkpt lat="42.3404970" lon="-7.9670400">
        <ele>160.8</ele>
        <time>2019-08-17T15:45:29Z</time>
      </trkpt>
      <trkpt lat="42.3405040" lon="-7.9670910">
        <ele>160.9</ele>
        <time>2019-08-17T15:45:30Z</time>
      </trkpt>
      <trkpt lat="42.3405120" lon="-7.9671430">
        <ele>160.9</ele>
        <time>2019-08-17T15:45:31Z</time>
      </trkpt>
      <trkpt lat="42.3405200" lon="-7.9671940">
        <ele>160.9</ele>
        <time>2019-08-17T15:45:32Z</time>
      </trkpt>
      <trkpt lat="42.3405280" lon="-7.9672460">
        <ele>160.9</ele>
        <time>2019-08-17T15:45:33Z</time>
      </trkpt>
      <trkpt lat="42.3405360" lon="-7.9672990">
        <ele>160.9</ele>
        <time>2019-08-17T15:45:34Z</time>
      </trkpt>
      <trkpt lat="42.3405440" lon="-7.9673520">
        <ele>161.0</ele>
        <time>2019-08-17T15:45:35Z</time>
      </trkpt>
      <trkpt lat="42.3405530" lon="-7.9674050">
        <ele>161.0</ele>
        <time>2019-08-17T15:45:36Z</time>
      </trkpt>
      <trkpt lat="42.3405630" lon="-7.9674590">
        <ele>161.0</ele>
        <time>2019-08-17T15:45:37Z</time>
      </trkpt>
      <trkpt lat="42.3405730" lon="-7.9675130">
        <ele>161.0</ele>
        <time>2019-08-17T15:45:38Z</time>
      </trkpt>
      <trkpt lat="42.3405840" lon="-7.9675670">
        <ele>161.0</ele>
        <time>2019-08-17T15:45:39Z</time>
      </trkpt>
      <trkpt lat="42.3405960" lon="-7.9676220">
        <ele>161.1</ele>
        <time>2019-08-17T15:45:40Z</time>
      </trkpt>
      <trkpt lat="42.3406090" lon="-7.9676760">
        <ele>161.1</ele>
        <time>2019-08-17T15:45:41Z</time>
      </trkpt>
      <trkpt lat="42.3406230" lon="-7.9677300">
        <ele>161.1</ele>
        <time>2019-08-17T15:45:42Z</time>
      </trkpt>
      <trkpt lat="42.3406390" lon="-7.9677850">
        <ele>161.1</ele>
        <time>2019-08-17T15:45:43Z</time>
      </trkpt>
      <trkpt lat="42.3406550" lon="-7.9678380">
        <ele>161.1</ele>
        <time>2019-08-17T15:45:44Z</time>
      </trkpt>
      <trkpt lat="42.3406730" lon="-7.9678910">
        <ele>161.1</ele>
        <time>2019-08-17T15:45:45Z</time>
      </trkpt>
      <trkpt lat="42.3406910" lon="-7.9679430">
        <ele>161.1</ele>
        <time>2019-08-17T15:45:46Z</time>
      </trkpt>
      <trkpt lat="42.3407090" lon="-7.9679930">
        <ele>161.2</ele>
        <time>2019-08-17T15:45:47Z</time>
      </trkpt>
      <trkpt lat="42.3407280" lon="-7.9680410">
        <ele>161.2</ele>
        <time>2019-08-17T15:45:48Z</time>
      </trkpt>
      <trkpt lat="42.3407470" lon="-7.9680870">
        <ele>161.2</ele>
        <time>2019-08-17T15:45:49Z</time>
      </trkpt>
      <trkpt lat="42.3407660" lon="-7.9681320">
        <ele>161.2</ele>
        <time>2019-08-17T15:45:50Z</time>
      </trkpt>
      <trkpt lat="42.3407870" lon="-7.9681770">
        <ele>161.2</ele>
        <time>2019-08-17T15:45:51Z</time>
      </trkpt>
      <trkpt lat="42.3408100" lon="-7.9682240">
        <ele>161.3</ele>
        <time>2019-08-17T15:45:52Z</time>
      </trkpt>
      <trkpt lat="42.3408360" lon="-7.9682720">
        <ele>161.3</ele>
        <time>2019-08-17T15:45:53Z</time>
      </trkpt>
      <trkpt lat="42.3408640" lon="-7.9683240">
        <ele>161.3</ele>
        <time>2019-08-17T15:45:54Z</time>
      </trkpt>
      <trkpt lat="42.3408960" lon="-7.9683770">
        <ele>161.3</ele>
        <time>2019-08-17T15:45:55Z</time>
      </trkpt>
      <trkpt lat="42.3409300" lon="-7.9684330">
        <ele>161.3</ele>
        <time>2019-08-17T15:45:56Z</time>
      </trkpt>
      <trkpt lat="42.3409660" lon="-7.9684910">
        <ele>161.3</ele>
        <time>2019-08-17T15:45:57Z</time>
      </trkpt>
      <trkpt lat="42.3410050" lon="-7.9685500">
        <ele>161.4</ele>
        <time>2019-08-17T15:45:58Z</time>
      </trkpt>
      <trkpt lat="42.3410450" lon="-7.9686120">
        <ele>161.4</ele>
        <time>2019-08-17T15:45:59Z</time>
      </trkpt>
      <trkpt lat="42.3410880" lon="-7.9686740">
        <ele>161.4</ele>
        <time>2019-08-17T15:46:00Z</time>
      </trkpt>
      <trkpt lat="42.3411610" lon="-7.9687800">
        <ele>161.4</ele>
        <time>2019-08-17T15:46:01Z</time>
      </trkpt>
      <trkpt lat="42.3411900" lon="-7.9688220">
        <ele>161.4</ele>
        <time>2019-08-17T15:46:02Z</time>
      </trkpt>
      <trkpt lat="42.3412200" lon="-7.9688650">
        <ele>161.4</ele>
        <time>2019-08-17T15:46:03Z</time>
      </trkpt>
      <trkpt lat="42.3412660" lon="-7.9689290">
        <ele>161.5</ele>
        <time>2019-08-17T15:46:04Z</time>
      </trkpt>
      <trkpt lat="42.3413110" lon="-7.9689920">
        <ele>161.5</ele>
        <time>2019-08-17T15:46:05Z</time>
      </trkpt>
      <trkpt lat="42.3413560" lon="-7.9690570">
        <ele>161.4</ele>
        <time>2019-08-17T15:46:06Z</time>
      </trkpt>
      <trkpt lat="42.3414000" lon="-7.9691230">
        <ele>161.4</ele>
        <time>2019-08-17T15:46:07Z</time>
      </trkpt>
      <trkpt lat="42.3414440" lon="-7.9691900">
        <ele>161.4</ele>
        <time>2019-08-17T15:46:08Z</time>
      </trkpt>
      <trkpt lat="42.3414870" lon="-7.9692610">
        <ele>161.3</ele>
        <time>2019-08-17T15:46:09Z</time>
      </trkpt>
      <trkpt lat="42.3415290" lon="-7.9693340">
        <ele>161.2</ele>
        <time>2019-08-17T15:46:10Z</time>
      </trkpt>
      <trkpt lat="42.3415700" lon="-7.9694110">
        <ele>161.1</ele>
        <time>2019-08-17T15:46:11Z</time>
      </trkpt>
      <trkpt lat="42.3416100" lon="-7.9694920">
        <ele>161.0</ele>
        <time>2019-08-17T15:46:12Z</time>
      </trkpt>
      <trkpt lat="42.3416480" lon="-7.9695770">
        <ele>160.9</ele>
        <time>2019-08-17T15:46:13Z</time>
      </trkpt>
      <trkpt lat="42.3416830" lon="-7.9696660">
        <ele>160.8</ele>
        <time>2019-08-17T15:46:14Z</time>
      </trkpt>
      <trkpt lat="42.3417170" lon="-7.9697580">
        <ele>160.6</ele>
        <time>2019-08-17T15:46:15Z</time>
      </trkpt>
      <trkpt lat="42.3417480" lon="-7.9698530">
        <ele>160.5</ele>
        <time>2019-08-17T15:46:16Z</time>
      </trkpt>
      <trkpt lat="42.3417760" lon="-7.9699520">
        <ele>160.3</ele>
        <time>2019-08-17T15:46:17Z</time>
      </trkpt>
      <trkpt lat="42.3418010" lon="-7.9700530">
        <ele>160.2</ele>
        <time>2019-08-17T15:46:18Z</time>
      </trkpt>
      <trkpt lat="42.3418220" lon="-7.9701570">
        <ele>160.1</ele>
        <time>2019-08-17T15:46:19Z</time>
      </trkpt>
      <trkpt lat="42.3418400" lon="-7.9702630">
        <ele>160.0</ele>
        <time>2019-08-17T15:46:20Z</time>
      </trkpt>
      <trkpt lat="42.3418540" lon="-7.9703710">
        <ele>159.8</ele>
        <time>2019-08-17T15:46:21Z</time>
      </trkpt>
      <trkpt lat="42.3418640" lon="-7.9704800">
        <ele>159.4</ele>
        <time>2019-08-17T15:46:22Z</time>
      </trkpt>
      <trkpt lat="42.3418710" lon="-7.9705910">
        <ele>159.1</ele>
        <time>2019-08-17T15:46:23Z</time>
      </trkpt>
      <trkpt lat="42.3418740" lon="-7.9707020">
        <ele>158.8</ele>
        <time>2019-08-17T15:46:24Z</time>
      </trkpt>
      <trkpt lat="42.3418730" lon="-7.9708130">
        <ele>158.6</ele>
        <time>2019-08-17T15:46:25Z</time>
      </trkpt>
      <trkpt lat="42.3418680" lon="-7.9709240">
        <ele>158.4</ele>
        <time>2019-08-17T15:46:26Z</time>
      </trkpt>
      <trkpt lat="42.3418600" lon="-7.9710350">
        <ele>158.3</ele>
        <time>2019-08-17T15:46:27Z</time>
      </trkpt>
      <trkpt lat="42.3418480" lon="-7.9711450">
        <ele>158.2</ele>
        <time>2019-08-17T15:46:28Z</time>
      </trkpt>
      <trkpt lat="42.3418310" lon="-7.9712530">
        <ele>158.1</ele>
        <time>2019-08-17T15:46:29Z</time>
      </trkpt>
      <trkpt lat="42.3418110" lon="-7.9713600">
        <ele>158.0</ele>
        <time>2019-08-17T15:46:30Z</time>
      </trkpt>
      <trkpt lat="42.3417850" lon="-7.9714640">
        <ele>158.0</ele>
        <time>2019-08-17T15:46:31Z</time>
      </trkpt>
      <trkpt lat="42.3417590" lon="-7.9715670">
        <ele>158.0</ele>
        <time>2019-08-17T15:46:32Z</time>
      </trkpt>
      <trkpt lat="42.3417270" lon="-7.9716670">
        <ele>158.0</ele>
        <time>2019-08-17T15:46:33Z</time>
      </trkpt>
      <trkpt lat="42.3416920" lon="-7.9717640">
        <ele>157.6</ele>
        <time>2019-08-17T15:46:34Z</time>
      </trkpt>
      <trkpt lat="42.3416520" lon="-7.9718570">
        <ele>157.3</ele>
        <time>2019-08-17T15:46:35Z</time>
      </trkpt>
      <trkpt lat="42.3416100" lon="-7.9719480">
        <ele>157.0</ele>
        <time>2019-08-17T15:46:36Z</time>
      </trkpt>
      <trkpt lat="42.3415660" lon="-7.9720370">
        <ele>156.8</ele>
        <time>2019-08-17T15:46:37Z</time>
      </trkpt>
      <trkpt lat="42.3415200" lon="-7.9721240">
        <ele>156.5</ele>
        <time>2019-08-17T15:46:38Z</time>
      </trkpt>
      <trkpt lat="42.3414730" lon="-7.9722090">
        <ele>156.3</ele>
        <time>2019-08-17T15:46:39Z</time>
      </trkpt>
      <trkpt lat="42.3414250" lon="-7.9722920">
        <ele>156.1</ele>
        <time>2019-08-17T15:46:40Z</time>
      </trkpt>
      <trkpt lat="42.3413780" lon="-7.9723740">
        <ele>156.0</ele>
        <time>2019-08-17T15:46:41Z</time>
      </trkpt>
      <trkpt lat="42.3413310" lon="-7.9724550">
        <ele>155.9</ele>
        <time>2019-08-17T15:46:42Z</time>
      </trkpt>
      <trkpt lat="42.3412840" lon="-7.9725360">
        <ele>155.7</ele>
        <time>2019-08-17T15:46:43Z</time>
      </trkpt>
      <trkpt lat="42.3412370" lon="-7.9726160">
        <ele>155.6</ele>
        <time>2019-08-17T15:46:44Z</time>
      </trkpt>
      <trkpt lat="42.3411920" lon="-7.9726950">
        <ele>155.5</ele>
        <time>2019-08-17T15:46:45Z</time>
      </trkpt>
      <trkpt lat="42.3411470" lon="-7.9727750">
        <ele>155.3</ele>
        <time>2019-08-17T15:46:46Z</time>
      </trkpt>
      <trkpt lat="42.3411030" lon="-7.9728540">
        <ele>155.2</ele>
        <time>2019-08-17T15:46:47Z</time>
      </trkpt>
      <trkpt lat="42.3410610" lon="-7.9729340">
        <ele>155.1</ele>
        <time>2019-08-17T15:46:48Z</time>
      </trkpt>
      <trkpt lat="42.3410190" lon="-7.9730140">
        <ele>155.0</ele>
        <time>2019-08-17T15:46:49Z</time>
      </trkpt>
      <trkpt lat="42.3409790" lon="-7.9730960">
        <ele>154.9</ele>
        <time>2019-08-17T15:46:50Z</time>
      </trkpt>
      <trkpt lat="42.3409420" lon="-7.9731780">
        <ele>154.8</ele>
        <time>2019-08-17T15:46:51Z</time>
      </trkpt>
      <trkpt lat="42.3409060" lon="-7.9732620">
        <ele>154.7</ele>
        <time>2019-08-17T15:46:52Z</time>
      </trkpt>
      <trkpt lat="42.3408720" lon="-7.9733470">
        <ele>154.6</ele>
        <time>2019-08-17T15:46:53Z</time>
      </trkpt>
      <trkpt lat="42.3408410" lon="-7.9734340">
        <ele>154.5</ele>
        <time>2019-08-17T15:46:54Z</time>
      </trkpt>
      <trkpt lat="42.3408120" lon="-7.9735240">
        <ele>154.4</ele>
        <time>2019-08-17T15:46:55Z</time>
      </trkpt>
      <trkpt lat="42.3407730" lon="-7.9736790">
        <ele>154.2</ele>
        <time>2019-08-17T15:46:56Z</time>
      </trkpt>
      <trkpt lat="42.3407600" lon="-7.9737430">
        <ele>154.1</ele>
        <time>2019-08-17T15:46:57Z</time>
      </trkpt>
      <trkpt lat="42.3407460" lon="-7.9738060">
        <ele>153.9</ele>
        <time>2019-08-17T15:46:58Z</time>
      </trkpt>
      <trkpt lat="42.3407320" lon="-7.9739040">
        <ele>153.7</ele>
        <time>2019-08-17T15:46:59Z</time>
      </trkpt>
      <trkpt lat="42.3407220" lon="-7.9740030">
        <ele>153.5</ele>
        <time>2019-08-17T15:47:00Z</time>
      </trkpt>
      <trkpt lat="42.3407180" lon="-7.9741700">
        <ele>153.1</ele>
        <time>2019-08-17T15:47:01Z</time>
      </trkpt>
      <trkpt lat="42.3407190" lon="-7.9742360">
        <ele>152.9</ele>
        <time>2019-08-17T15:47:02Z</time>
      </trkpt>
      <trkpt lat="42.3407210" lon="-7.9743030">
        <ele>152.8</ele>
        <time>2019-08-17T15:47:03Z</time>
      </trkpt>
      <trkpt lat="42.3407320" lon="-7.9744040">
        <ele>152.4</ele>
        <time>2019-08-17T15:47:04Z</time>
      </trkpt>
      <trkpt lat="42.3407470" lon="-7.9745040">
        <ele>151.8</ele>
        <time>2019-08-17T15:47:05Z</time>
      </trkpt>
      <trkpt lat="42.3407680" lon="-7.9746040">
        <ele>151.2</ele>
        <time>2019-08-17T15:47:06Z</time>
      </trkpt>
      <trkpt lat="42.3407930" lon="-7.9747040">
        <ele>150.7</ele>
        <time>2019-08-17T15:47:07Z</time>
      </trkpt>
      <trkpt lat="42.3408240" lon="-7.9748030">
        <ele>150.1</ele>
        <time>2019-08-17T15:47:08Z</time>
      </trkpt>
      <trkpt lat="42.3408590" lon="-7.9749010">
        <ele>149.5</ele>
        <time>2019-08-17T15:47:09Z</time>
      </trkpt>
      <trkpt lat="42.3408980" lon="-7.9749980">
        <ele>148.9</ele>
        <time>2019-08-17T15:47:10Z</time>
      </trkpt>
      <trkpt lat="42.3409440" lon="-7.9750920">
        <ele>148.3</ele>
        <time>2019-08-17T15:47:11Z</time>
      </trkpt>
      <trkpt lat="42.3409900" lon="-7.9751870">
        <ele>147.6</ele>
        <time>2019-08-17T15:47:12Z</time>
      </trkpt>
      <trkpt lat="42.3410420" lon="-7.9752800">
        <ele>146.9</ele>
        <time>2019-08-17T15:47:13Z</time>
      </trkpt>
      <trkpt lat="42.3410970" lon="-7.9753700">
        <ele>146.3</ele>
        <time>2019-08-17T15:47:14Z</time>
      </trkpt>
      <trkpt lat="42.3411570" lon="-7.9754590">
        <ele>145.7</ele>
        <time>2019-08-17T15:47:15Z</time>
      </trkpt>
      <trkpt lat="42.3412200" lon="-7.9755450">
        <ele>144.9</ele>
        <time>2019-08-17T15:47:16Z</time>
      </trkpt>
      <trkpt lat="42.3412860" lon="-7.9756280">
        <ele>144.2</ele>
        <time>2019-08-17T15:47:17Z</time>
      </trkpt>
      <trkpt lat="42.3413550" lon="-7.9757090">
        <ele>143.4</ele>
        <time>2019-08-17T15:47:18Z</time>
      </trkpt>
      <trkpt lat="42.3414270" lon="-7.9757870">
        <ele>142.7</ele>
        <time>2019-08-17T15:47:19Z</time>
      </trkpt>
      <trkpt lat="42.3415010" lon="-7.9758630">
        <ele>142.0</ele>
        <time>2019-08-17T15:47:20Z</time>
      </trkpt>
      <trkpt lat="42.3415780" lon="-7.9759370">
        <ele>141.2</ele>
        <time>2019-08-17T15:47:21Z</time>
      </trkpt>
      <trkpt lat="42.3416570" lon="-7.9760090">
        <ele>140.3</ele>
        <time>2019-08-17T15:47:22Z</time>
      </trkpt>
      <trkpt lat="42.3417370" lon="-7.9760780">
        <ele>139.4</ele>
        <time>2019-08-17T15:47:23Z</time>
      </trkpt>
      <trkpt lat="42.3418190" lon="-7.9761460">
        <ele>138.2</ele>
        <time>2019-08-17T15:47:24Z</time>
      </trkpt>
      <trkpt lat="42.3419010" lon="-7.9762120">
        <ele>137.0</ele>
        <time>2019-08-17T15:47:25Z</time>
      </trkpt>
      <trkpt lat="42.3419850" lon="-7.9762760">
        <ele>135.8</ele>
        <time>2019-08-17T15:47:26Z</time>
      </trkpt>
      <trkpt lat="42.3420700" lon="-7.9763400">
        <ele>135.4</ele>
        <time>2019-08-17T15:47:27Z</time>
      </trkpt>
      <trkpt lat="42.3421550" lon="-7.9764040">
        <ele>134.6</ele>
        <time>2019-08-17T15:47:28Z</time>
      </trkpt>
      <trkpt lat="42.3422420" lon="-7.9764680">
        <ele>133.5</ele>
        <time>2019-08-17T15:47:29Z</time>
      </trkpt>
      <trkpt lat="42.3423290" lon="-7.9765340">
        <ele>132.1</ele>
        <time>2019-08-17T15:47:30Z</time>
      </trkpt>
      <trkpt lat="42.3424180" lon="-7.9766010">
        <ele>130.9</ele>
        <time>2019-08-17T15:47:31Z</time>
      </trkpt>
      <trkpt lat="42.3425070" lon="-7.9766710">
        <ele>129.0</ele>
        <time>2019-08-17T15:47:32Z</time>
      </trkpt>
      <trkpt lat="42.3425960" lon="-7.9767440">
        <ele>127.5</ele>
        <time>2019-08-17T15:47:33Z</time>
      </trkpt>
      <trkpt lat="42.3426830" lon="-7.9768220">
        <ele>127.7</ele>
        <time>2019-08-17T15:47:34Z</time>
      </trkpt>
      <trkpt lat="42.3427690" lon="-7.9769050">
        <ele>127.9</ele>
        <time>2019-08-17T15:47:35Z</time>
      </trkpt>
      <trkpt lat="42.3428510" lon="-7.9769950">
        <ele>128.4</ele>
        <time>2019-08-17T15:47:36Z</time>
      </trkpt>
      <trkpt lat="42.3429280" lon="-7.9770910">
        <ele>128.8</ele>
        <time>2019-08-17T15:47:37Z</time>
      </trkpt>
      <trkpt lat="42.3430010" lon="-7.9771920">
        <ele>129.3</ele>
        <time>2019-08-17T15:47:38Z</time>
      </trkpt>
      <trkpt lat="42.3430680" lon="-7.9772990">
        <ele>129.7</ele>
        <time>2019-08-17T15:47:39Z</time>
      </trkpt>
      <trkpt lat="42.3431620" lon="-7.9774840">
        <ele>130.5</ele>
        <time>2019-08-17T15:47:40Z</time>
      </trkpt>
      <trkpt lat="42.3431950" lon="-7.9775590">
        <ele>130.8</ele>
        <time>2019-08-17T15:47:41Z</time>
      </trkpt>
      <trkpt lat="42.3432280" lon="-7.9776340">
        <ele>131.2</ele>
        <time>2019-08-17T15:47:42Z</time>
      </trkpt>
      <trkpt lat="42.3432650" lon="-7.9777450">
        <ele>131.6</ele>
        <time>2019-08-17T15:47:43Z</time>
      </trkpt>
      <trkpt lat="42.3432950" lon="-7.9778530">
        <ele>132.0</ele>
        <time>2019-08-17T15:47:44Z</time>
      </trkpt>
      <trkpt lat="42.3433300" lon="-7.9780230">
        <ele>132.6</ele>
        <time>2019-08-17T15:47:45Z</time>
      </trkpt>
      <trkpt lat="42.3433400" lon="-7.9780880">
        <ele>132.9</ele>
        <time>2019-08-17T15:47:46Z</time>
      </trkpt>
      <trkpt lat="42.3433510" lon="-7.9781530">
        <ele>133.2</ele>
        <time>2019-08-17T15:47:47Z</time>
      </trkpt>
      <trkpt lat="42.3433600" lon="-7.9782440">
        <ele>133.6</ele>
        <time>2019-08-17T15:47:48Z</time>
      </trkpt>
      <trkpt lat="42.3433660" lon="-7.9783320">
        <ele>133.9</ele>
        <time>2019-08-17T15:47:49Z</time>
      </trkpt>
      <trkpt lat="42.3433680" lon="-7.9784150">
        <ele>134.3</ele>
        <time>2019-08-17T15:47:50Z</time>
      </trkpt>
      <trkpt lat="42.3433660" lon="-7.9784960">
        <ele>134.6</ele>
        <time>2019-08-17T15:47:51Z</time>
      </trkpt>
      <trkpt lat="42.3433610" lon="-7.9785720">
        <ele>134.9</ele>
        <time>2019-08-17T15:47:52Z</time>
      </trkpt>
      <trkpt lat="42.3433560" lon="-7.9786480">
        <ele>135.2</ele>
        <time>2019-08-17T15:47:53Z</time>
      </trkpt>
      <trkpt lat="42.3433480" lon="-7.9787210">
        <ele>135.5</ele>
        <time>2019-08-17T15:47:54Z</time>
      </trkpt>
      <trkpt lat="42.3433390" lon="-7.9787910">
        <ele>135.7</ele>
        <time>2019-08-17T15:47:55Z</time>
      </trkpt>
      <trkpt lat="42.3433280" lon="-7.9788590">
        <ele>136.0</ele>
        <time>2019-08-17T15:47:56Z</time>
      </trkpt>
      <trkpt lat="42.3433160" lon="-7.9789250">
        <ele>136.2</ele>
        <time>2019-08-17T15:47:57Z</time>
      </trkpt>
      <trkpt lat="42.3433020" lon="-7.9789880">
        <ele>136.4</ele>
        <time>2019-08-17T15:47:58Z</time>
      </trkpt>
      <trkpt lat="42.3432880" lon="-7.9790500">
        <ele>136.8</ele>
        <time>2019-08-17T15:47:59Z</time>
      </trkpt>
      <trkpt lat="42.3432740" lon="-7.9791100">
        <ele>137.0</ele>
        <time>2019-08-17T15:48:00Z</time>
      </trkpt>
      <trkpt lat="42.3432590" lon="-7.9791670">
        <ele>137.2</ele>
        <time>2019-08-17T15:48:01Z</time>
      </trkpt>
      <trkpt lat="42.3432440" lon="-7.9792230">
        <ele>137.5</ele>
        <time>2019-08-17T15:48:02Z</time>
      </trkpt>
      <trkpt lat="42.3432280" lon="-7.9792770">
        <ele>137.7</ele>
        <time>2019-08-17T15:48:03Z</time>
      </trkpt>
      <trkpt lat="42.3432130" lon="-7.9793300">
        <ele>137.9</ele>
        <time>2019-08-17T15:48:04Z</time>
      </trkpt>
      <trkpt lat="42.3431990" lon="-7.9793820">
        <ele>138.1</ele>
        <time>2019-08-17T15:48:05Z</time>
      </trkpt>
      <trkpt lat="42.3431850" lon="-7.9794320">
        <ele>138.4</ele>
        <time>2019-08-17T15:48:06Z</time>
      </trkpt>
      <trkpt lat="42.3431710" lon="-7.9794820">
        <ele>138.6</ele>
        <time>2019-08-17T15:48:07Z</time>
      </trkpt>
      <trkpt lat="42.3431590" lon="-7.9795320">
        <ele>138.8</ele>
        <time>2019-08-17T15:48:08Z</time>
      </trkpt>
      <trkpt lat="42.3431470" lon="-7.9795810">
        <ele>139.0</ele>
        <time>2019-08-17T15:48:09Z</time>
      </trkpt>
      <trkpt lat="42.3431370" lon="-7.9796300">
        <ele>139.2</ele>
        <time>2019-08-17T15:48:10Z</time>
      </trkpt>
      <trkpt lat="42.3431280" lon="-7.9796780">
        <ele>139.4</ele>
        <time>2019-08-17T15:48:11Z</time>
      </trkpt>
      <trkpt lat="42.3431190" lon="-7.9797250">
        <ele>139.6</ele>
        <time>2019-08-17T15:48:12Z</time>
      </trkpt>
      <trkpt lat="42.3431130" lon="-7.9797720">
        <ele>139.7</ele>
        <time>2019-08-17T15:48:13Z</time>
      </trkpt>
      <trkpt lat="42.3431070" lon="-7.9798170">
        <ele>139.9</ele>
        <time>2019-08-17T15:48:14Z</time>
      </trkpt>
      <trkpt lat="42.3431020" lon="-7.9798610">
        <ele>140.1</ele>
        <time>2019-08-17T15:48:15Z</time>
      </trkpt>
      <trkpt lat="42.3430990" lon="-7.9799040">
        <ele>140.2</ele>
        <time>2019-08-17T15:48:16Z</time>
      </trkpt>
      <trkpt lat="42.3430960" lon="-7.9799440">
        <ele>140.4</ele>
        <time>2019-08-17T15:48:17Z</time>
      </trkpt>
      <trkpt lat="42.3430940" lon="-7.9799830">
        <ele>140.5</ele>
        <time>2019-08-17T15:48:18Z</time>
      </trkpt>
      <trkpt lat="42.3430910" lon="-7.9800200">
        <ele>140.6</ele>
        <time>2019-08-17T15:48:19Z</time>
      </trkpt>
      <trkpt lat="42.3430880" lon="-7.9800540">
        <ele>140.7</ele>
        <time>2019-08-17T15:48:20Z</time>
      </trkpt>
      <trkpt lat="42.3430850" lon="-7.9800870">
        <ele>140.8</ele>
        <time>2019-08-17T15:48:21Z</time>
      </trkpt>
      <trkpt lat="42.3430830" lon="-7.9801200">
        <ele>140.9</ele>
        <time>2019-08-17T15:48:22Z</time>
      </trkpt>
      <trkpt lat="42.3430810" lon="-7.9801550">
        <ele>141.0</ele>
        <time>2019-08-17T15:48:23Z</time>
      </trkpt>
      <trkpt lat="42.3430820" lon="-7.9801930">
        <ele>141.1</ele>
        <time>2019-08-17T15:48:24Z</time>
      </trkpt>
      <trkpt lat="42.3430840" lon="-7.9802330">
        <ele>141.2</ele>
        <time>2019-08-17T15:48:25Z</time>
      </trkpt>
      <trkpt lat="42.3430870" lon="-7.9802750">
        <ele>141.4</ele>
        <time>2019-08-17T15:48:26Z</time>
      </trkpt>
      <trkpt lat="42.3430930" lon="-7.9803180">
        <ele>141.5</ele>
        <time>2019-08-17T15:48:27Z</time>
      </trkpt>
      <trkpt lat="42.3430990" lon="-7.9803620">
        <ele>141.6</ele>
        <time>2019-08-17T15:48:28Z</time>
      </trkpt>
      <trkpt lat="42.3431070" lon="-7.9804060">
        <ele>141.7</ele>
        <time>2019-08-17T15:48:29Z</time>
      </trkpt>
      <trkpt lat="42.3431160" lon="-7.9804490">
        <ele>141.7</ele>
        <time>2019-08-17T15:48:30Z</time>
      </trkpt>
      <trkpt lat="42.3431260" lon="-7.9804920">
        <ele>141.8</ele>
        <time>2019-08-17T15:48:31Z</time>
      </trkpt>
      <trkpt lat="42.3431370" lon="-7.9805330">
        <ele>141.9</ele>
        <time>2019-08-17T15:48:32Z</time>
      </trkpt>
      <trkpt lat="42.3431480" lon="-7.9805730">
        <ele>142.0</ele>
        <time>2019-08-17T15:48:33Z</time>
      </trkpt>
      <trkpt lat="42.3431610" lon="-7.9806120">
        <ele>142.1</ele>
        <time>2019-08-17T15:48:34Z</time>
      </trkpt>
      <trkpt lat="42.3431740" lon="-7.9806500">
        <ele>142.1</ele>
        <time>2019-08-17T15:48:35Z</time>
      </trkpt>
      <trkpt lat="42.3431890" lon="-7.9806870">
        <ele>142.2</ele>
        <time>2019-08-17T15:48:36Z</time>
      </trkpt>
      <trkpt lat="42.3432030" lon="-7.9807240">
        <ele>142.3</ele>
        <time>2019-08-17T15:48:37Z</time>
      </trkpt>
      <trkpt lat="42.3432180" lon="-7.9807610">
        <ele>142.4</ele>
        <time>2019-08-17T15:48:38Z</time>
      </trkpt>
      <trkpt lat="42.3432340" lon="-7.9807970">
        <ele>142.5</ele>
        <time>2019-08-17T15:48:39Z</time>
      </trkpt>
      <trkpt lat="42.3432500" lon="-7.9808320">
        <ele>142.5</ele>
        <time>2019-08-17T15:48:40Z</time>
      </trkpt>
      <trkpt lat="42.3432670" lon="-7.9808660">
        <ele>142.6</ele>
        <time>2019-08-17T15:48:41Z</time>
      </trkpt>
      <trkpt lat="42.3432850" lon="-7.9809000">
        <ele>142.7</ele>
        <time>2019-08-17T15:48:42Z</time>
      </trkpt>
      <trkpt lat="42.3433040" lon="-7.9809330">
        <ele>142.8</ele>
        <time>2019-08-17T15:48:43Z</time>
      </trkpt>
      <trkpt lat="42.3433230" lon="-7.9809640">
        <ele>142.9</ele>
        <time>2019-08-17T15:48:44Z</time>
      </trkpt>
      <trkpt lat="42.3433430" lon="-7.9809950">
        <ele>142.9</ele>
        <time>2019-08-17T15:48:45Z</time>
      </trkpt>
      <trkpt lat="42.3433650" lon="-7.9810240">
        <ele>143.0</ele>
        <time>2019-08-17T15:48:46Z</time>
      </trkpt>
      <trkpt lat="42.3433870" lon="-7.9810530">
        <ele>143.1</ele>
        <time>2019-08-17T15:48:47Z</time>
      </trkpt>
      <trkpt lat="42.3434100" lon="-7.9810800">
        <ele>143.2</ele>
        <time>2019-08-17T15:48:48Z</time>
      </trkpt>
      <trkpt lat="42.3434330" lon="-7.9811070">
        <ele>143.2</ele>
        <time>2019-08-17T15:48:49Z</time>
      </trkpt>
      <trkpt lat="42.3434580" lon="-7.9811320">
        <ele>143.3</ele>
        <time>2019-08-17T15:48:50Z</time>
      </trkpt>
      <trkpt lat="42.3434840" lon="-7.9811570">
        <ele>143.3</ele>
        <time>2019-08-17T15:48:51Z</time>
      </trkpt>
      <trkpt lat="42.3435110" lon="-7.9811810">
        <ele>143.4</ele>
        <time>2019-08-17T15:48:52Z</time>
      </trkpt>
      <trkpt lat="42.3435390" lon="-7.9812030">
        <ele>143.4</ele>
        <time>2019-08-17T15:48:53Z</time>
      </trkpt>
      <trkpt lat="42.3435670" lon="-7.9812260">
        <ele>143.5</ele>
        <time>2019-08-17T15:48:54Z</time>
      </trkpt>
      <trkpt lat="42.3435970" lon="-7.9812470">
        <ele>143.5</ele>
        <time>2019-08-17T15:48:55Z</time>
      </trkpt>
      <trkpt lat="42.3436280" lon="-7.9812680">
        <ele>143.5</ele>
        <time>2019-08-17T15:48:56Z</time>
      </trkpt>
      <trkpt lat="42.3436590" lon="-7.9812880">
        <ele>143.5</ele>
        <time>2019-08-17T15:48:57Z</time>
      </trkpt>
      <trkpt lat="42.3436920" lon="-7.9813070">
        <ele>143.5</ele>
        <time>2019-08-17T15:48:58Z</time>
      </trkpt>
      <trkpt lat="42.3437250" lon="-7.9813260">
        <ele>143.6</ele>
        <time>2019-08-17T15:48:59Z</time>
      </trkpt>
      <trkpt lat="42.3437600" lon="-7.9813440">
        <ele>143.6</ele>
        <time>2019-08-17T15:49:00Z</time>
      </trkpt>
      <trkpt lat="42.3437960" lon="-7.9813620">
        <ele>143.6</ele>
        <time>2019-08-17T15:49:01Z</time>
      </trkpt>
      <trkpt lat="42.3438320" lon="-7.9813790">
        <ele>143.6</ele>
        <time>2019-08-17T15:49:02Z</time>
      </trkpt>
      <trkpt lat="42.3438700" lon="-7.9813950">
        <ele>143.6</ele>
        <time>2019-08-17T15:49:03Z</time>
      </trkpt>
      <trkpt lat="42.3439080" lon="-7.9814120">
        <ele>143.6</ele>
        <time>2019-08-17T15:49:04Z</time>
      </trkpt>
      <trkpt lat="42.3439470" lon="-7.9814270">
        <ele>143.5</ele>
        <time>2019-08-17T15:49:05Z</time>
      </trkpt>
      <trkpt lat="42.3439870" lon="-7.9814430">
        <ele>143.4</ele>
        <time>2019-08-17T15:49:06Z</time>
      </trkpt>
      <trkpt lat="42.3440270" lon="-7.9814580">
        <ele>143.3</ele>
        <time>2019-08-17T15:49:07Z</time>
      </trkpt>
      <trkpt lat="42.3440690" lon="-7.9814730">
        <ele>143.2</ele>
        <time>2019-08-17T15:49:08Z</time>
      </trkpt>
      <trkpt lat="42.3441110" lon="-7.9814870">
        <ele>143.1</ele>
        <time>2019-08-17T15:49:09Z</time>
      </trkpt>
      <trkpt lat="42.3441530" lon="-7.9815020">
        <ele>143.0</ele>
        <time>2019-08-17T15:49:10Z</time>
      </trkpt>
      <trkpt lat="42.3441960" lon="-7.9815160">
        <ele>142.9</ele>
        <time>2019-08-17T15:49:11Z</time>
      </trkpt>
      <trkpt lat="42.3442400" lon="-7.9815290">
        <ele>142.8</ele>
        <time>2019-08-17T15:49:12Z</time>
      </trkpt>
      <trkpt lat="42.3442840" lon="-7.9815430">
        <ele>142.6</ele>
        <time>2019-08-17T15:49:13Z</time>
      </trkpt>
      <trkpt lat="42.3443290" lon="-7.9815570">
        <ele>142.5</ele>
        <time>2019-08-17T15:49:14Z</time>
      </trkpt>
      <trkpt lat="42.3444060" lon="-7.9815790">
        <ele>142.2</ele>
        <time>2019-08-17T15:49:15Z</time>
      </trkpt>
      <trkpt lat="42.3444370" lon="-7.9815880">
        <ele>142.1</ele>
        <time>2019-08-17T15:49:16Z</time>
      </trkpt>
      <trkpt lat="42.3444690" lon="-7.9815970">
        <ele>142.0</ele>
        <time>2019-08-17T15:49:17Z</time>
      </trkpt>
      <trkpt lat="42.3445180" lon="-7.9816100">
        <ele>141.8</ele>
        <time>2019-08-17T15:49:18Z</time>
      </trkpt>
      <trkpt lat="42.3445690" lon="-7.9816240">
        <ele>141.6</ele>
        <time>2019-08-17T15:49:19Z</time>
      </trkpt>
      <trkpt lat="42.3446560" lon="-7.9816490">
        <ele>141.1</ele>
        <time>2019-08-17T15:49:20Z</time>
      </trkpt>
      <trkpt lat="42.3446910" lon="-7.9816600">
        <ele>140.9</ele>
        <time>2019-08-17T15:49:21Z</time>
      </trkpt>
      <trkpt lat="42.3447260" lon="-7.9816700">
        <ele>140.7</ele>
        <time>2019-08-17T15:49:22Z</time>
      </trkpt>
      <trkpt lat="42.3447790" lon="-7.9816880">
        <ele>140.4</ele>
        <time>2019-08-17T15:49:23Z</time>
      </trkpt>
      <trkpt lat="42.3448330" lon="-7.9817080">
        <ele>140.1</ele>
        <time>2019-08-17T15:49:24Z</time>
      </trkpt>
      <trkpt lat="42.3448870" lon="-7.9817290">
        <ele>139.9</ele>
        <time>2019-08-17T15:49:25Z</time>
      </trkpt>
      <trkpt lat="42.3449430" lon="-7.9817530">
        <ele>139.7</ele>
        <time>2019-08-17T15:49:26Z</time>
      </trkpt>
      <trkpt lat="42.3449990" lon="-7.9817780">
        <ele>139.5</ele>
        <time>2019-08-17T15:49:27Z</time>
      </trkpt>
      <trkpt lat="42.3450570" lon="-7.9818070">
        <ele>139.2</ele>
        <time>2019-08-17T15:49:28Z</time>
      </trkpt>
      <trkpt lat="42.3451160" lon="-7.9818370">
        <ele>139.0</ele>
        <time>2019-08-17T15:49:29Z</time>
      </trkpt>
      <trkpt lat="42.3451760" lon="-7.9818710">
        <ele>138.7</ele>
        <time>2019-08-17T15:49:30Z</time>
      </trkpt>
      <trkpt lat="42.3452370" lon="-7.9819080">
        <ele>138.3</ele>
        <time>2019-08-17T15:49:31Z</time>
      </trkpt>
      <trkpt lat="42.3452990" lon="-7.9819490">
        <ele>138.0</ele>
        <time>2019-08-17T15:49:32Z</time>
      </trkpt>
      <trkpt lat="42.3453600" lon="-7.9819940">
        <ele>137.6</ele>
        <time>2019-08-17T15:49:33Z</time>
      </trkpt>
      <trkpt lat="42.3454210" lon="-7.9820430">
        <ele>137.1</ele>
        <time>2019-08-17T15:49:34Z</time>
      </trkpt>
      <trkpt lat="42.3454810" lon="-7.9820970">
        <ele>136.7</ele>
        <time>2019-08-17T15:49:35Z</time>
      </trkpt>
      <trkpt lat="42.3455410" lon="-7.9821560">
        <ele>136.2</ele>
        <time>2019-08-17T15:49:36Z</time>
      </trkpt>
      <trkpt lat="42.3455980" lon="-7.9822200">
        <ele>135.8</ele>
        <time>2019-08-17T15:49:37Z</time>
      </trkpt>
      <trkpt lat="42.3456540" lon="-7.9822880">
        <ele>135.4</ele>
        <time>2019-08-17T15:49:38Z</time>
      </trkpt>
      <trkpt lat="42.3457080" lon="-7.9823600">
        <ele>135.0</ele>
        <time>2019-08-17T15:49:39Z</time>
      </trkpt>
      <trkpt lat="42.3457590" lon="-7.9824360">
        <ele>134.6</ele>
        <time>2019-08-17T15:49:40Z</time>
      </trkpt>
      <trkpt lat="42.3458080" lon="-7.9825160">
        <ele>134.1</ele>
        <time>2019-08-17T15:49:41Z</time>
      </trkpt>
      <trkpt lat="42.3458530" lon="-7.9825980">
        <ele>133.7</ele>
        <time>2019-08-17T15:49:42Z</time>
      </trkpt>
      <trkpt lat="42.3458940" lon="-7.9826840">
        <ele>133.3</ele>
        <time>2019-08-17T15:49:43Z</time>
      </trkpt>
      <trkpt lat="42.3459320" lon="-7.9827710">
        <ele>133.0</ele>
        <time>2019-08-17T15:49:44Z</time>
      </trkpt>
      <trkpt lat="42.3459670" lon="-7.9828620">
        <ele>132.6</ele>
        <time>2019-08-17T15:49:45Z</time>
      </trkpt>
      <trkpt lat="42.3459990" lon="-7.9829530">
        <ele>132.2</ele>
        <time>2019-08-17T15:49:46Z</time>
      </trkpt>
      <trkpt lat="42.3460270" lon="-7.9830470">
        <ele>131.8</ele>
        <time>2019-08-17T15:49:47Z</time>
      </trkpt>
      <trkpt lat="42.3460550" lon="-7.9831420">
        <ele>131.4</ele>
        <time>2019-08-17T15:49:48Z</time>
      </trkpt>
      <trkpt lat="42.3460780" lon="-7.9832370">
        <ele>131.0</ele>
        <time>2019-08-17T15:49:49Z</time>
      </trkpt>
      <trkpt lat="42.3461000" lon="-7.9833330">
        <ele>130.7</ele>
        <time>2019-08-17T15:49:50Z</time>
      </trkpt>
      <trkpt lat="42.3461190" lon="-7.9834290">
        <ele>130.3</ele>
        <time>2019-08-17T15:49:51Z</time>
      </trkpt>
      <trkpt lat="42.3461360" lon="-7.9835260">
        <ele>130.1</ele>
        <time>2019-08-17T15:49:52Z</time>
      </trkpt>
      <trkpt lat="42.3461520" lon="-7.9836230">
        <ele>129.8</ele>
        <time>2019-08-17T15:49:53Z</time>
      </trkpt>
      <trkpt lat="42.3461650" lon="-7.9837200">
        <ele>129.5</ele>
        <time>2019-08-17T15:49:54Z</time>
      </trkpt>
      <trkpt lat="42.3461780" lon="-7.9838190">
        <ele>129.2</ele>
        <time>2019-08-17T15:49:55Z</time>
      </trkpt>
      <trkpt lat="42.3461890" lon="-7.9839180">
        <ele>129.0</ele>
        <time>2019-08-17T15:49:56Z</time>
      </trkpt>
      <trkpt lat="42.3461990" lon="-7.9840180">
        <ele>128.8</ele>
        <time>2019-08-17T15:49:57Z</time>
      </trkpt>
      <trkpt lat="42.3462080" lon="-7.9841190">
        <ele>128.6</ele>
        <time>2019-08-17T15:49:58Z</time>
      </trkpt>
      <trkpt lat="42.3462170" lon="-7.9842210">
        <ele>128.3</ele>
        <time>2019-08-17T15:49:59Z</time>
      </trkpt>
      <trkpt lat="42.3462250" lon="-7.9843230">
        <ele>128.0</ele>
        <time>2019-08-17T15:50:00Z</time>
      </trkpt>
      <trkpt lat="42.3462320" lon="-7.9844270">
        <ele>127.9</ele>
        <time>2019-08-17T15:50:01Z</time>
      </trkpt>
      <trkpt lat="42.3462400" lon="-7.9845300">
        <ele>127.7</ele>
        <time>2019-08-17T15:50:02Z</time>
      </trkpt>
      <trkpt lat="42.3462470" lon="-7.9846340">
        <ele>127.4</ele>
        <time>2019-08-17T15:50:03Z</time>
      </trkpt>
      <trkpt lat="42.3462540" lon="-7.9847370">
        <ele>127.2</ele>
        <time>2019-08-17T15:50:04Z</time>
      </trkpt>
      <trkpt lat="42.3462610" lon="-7.9848410">
        <ele>127.0</ele>
        <time>2019-08-17T15:50:05Z</time>
      </trkpt>
      <trkpt lat="42.3462680" lon="-7.9849440">
        <ele>126.8</ele>
        <time>2019-08-17T15:50:06Z</time>
      </trkpt>
      <trkpt lat="42.3462760" lon="-7.9850460">
        <ele>126.6</ele>
        <time>2019-08-17T15:50:07Z</time>
      </trkpt>
      <trkpt lat="42.3462830" lon="-7.9851480">
        <ele>126.4</ele>
        <time>2019-08-17T15:50:08Z</time>
      </trkpt>
      <trkpt lat="42.3462910" lon="-7.9852500">
        <ele>126.3</ele>
        <time>2019-08-17T15:50:09Z</time>
      </trkpt>
      <trkpt lat="42.3462980" lon="-7.9853510">
        <ele>126.1</ele>
        <time>2019-08-17T15:50:10Z</time>
      </trkpt>
      <trkpt lat="42.3463110" lon="-7.9855190">
        <ele>125.9</ele>
        <time>2019-08-17T15:50:11Z</time>
      </trkpt>
      <trkpt lat="42.3463160" lon="-7.9855850">
        <ele>125.9</ele>
        <time>2019-08-17T15:50:12Z</time>
      </trkpt>
      <trkpt lat="42.3463210" lon="-7.9856520">
        <ele>125.8</ele>
        <time>2019-08-17T15:50:13Z</time>
      </trkpt>
      <trkpt lat="42.3463280" lon="-7.9857510">
        <ele>125.8</ele>
        <time>2019-08-17T15:50:14Z</time>
      </trkpt>
      <trkpt lat="42.3463360" lon="-7.9858500">
        <ele>125.7</ele>
        <time>2019-08-17T15:50:15Z</time>
      </trkpt>
      <trkpt lat="42.3463500" lon="-7.9860110">
        <ele>125.6</ele>
        <time>2019-08-17T15:50:16Z</time>
      </trkpt>
      <trkpt lat="42.3463570" lon="-7.9860760">
        <ele>125.6</ele>
        <time>2019-08-17T15:50:17Z</time>
      </trkpt>
      <trkpt lat="42.3463630" lon="-7.9861400">
        <ele>125.5</ele>
        <time>2019-08-17T15:50:18Z</time>
      </trkpt>
      <trkpt lat="42.3463730" lon="-7.9862350">
        <ele>125.5</ele>
        <time>2019-08-17T15:50:19Z</time>
      </trkpt>
      <trkpt lat="42.3463840" lon="-7.9863290">
        <ele>125.4</ele>
        <time>2019-08-17T15:50:20Z</time>
      </trkpt>
      <trkpt lat="42.3463970" lon="-7.9864220">
        <ele>125.4</ele>
        <time>2019-08-17T15:50:21Z</time>
      </trkpt>
      <trkpt lat="42.3464110" lon="-7.9865130">
        <ele>125.3</ele>
        <time>2019-08-17T15:50:22Z</time>
      </trkpt>
      <trkpt lat="42.3464260" lon="-7.9866030">
        <ele>125.3</ele>
        <time>2019-08-17T15:50:23Z</time>
      </trkpt>
      <trkpt lat="42.3464420" lon="-7.9866920">
        <ele>125.2</ele>
        <time>2019-08-17T15:50:24Z</time>
      </trkpt>
      <trkpt lat="42.3464590" lon="-7.9867790">
        <ele>125.2</ele>
        <time>2019-08-17T15:50:25Z</time>
      </trkpt>
      <trkpt lat="42.3464760" lon="-7.9868640">
        <ele>125.3</ele>
        <time>2019-08-17T15:50:26Z</time>
      </trkpt>
      <trkpt lat="42.3464950" lon="-7.9869470">
        <ele>125.3</ele>
        <time>2019-08-17T15:50:27Z</time>
      </trkpt>
      <trkpt lat="42.3465130" lon="-7.9870280">
        <ele>125.4</ele>
        <time>2019-08-17T15:50:28Z</time>
      </trkpt>
      <trkpt lat="42.3465330" lon="-7.9871080">
        <ele>125.6</ele>
        <time>2019-08-17T15:50:29Z</time>
      </trkpt>
      <trkpt lat="42.3465520" lon="-7.9871860">
        <ele>125.7</ele>
        <time>2019-08-17T15:50:30Z</time>
      </trkpt>
      <trkpt lat="42.3465720" lon="-7.9872630">
        <ele>125.8</ele>
        <time>2019-08-17T15:50:31Z</time>
      </trkpt>
      <trkpt lat="42.3465930" lon="-7.9873400">
        <ele>126.0</ele>
        <time>2019-08-17T15:50:32Z</time>
      </trkpt>
      <trkpt lat="42.3466130" lon="-7.9874150">
        <ele>126.2</ele>
        <time>2019-08-17T15:50:33Z</time>
      </trkpt>
      <trkpt lat="42.3466340" lon="-7.9874910">
        <ele>126.3</ele>
        <time>2019-08-17T15:50:34Z</time>
      </trkpt>
      <trkpt lat="42.3466550" lon="-7.9875670">
        <ele>126.5</ele>
        <time>2019-08-17T15:50:35Z</time>
      </trkpt>
      <trkpt lat="42.3466750" lon="-7.9876430">
        <ele>126.6</ele>
        <time>2019-08-17T15:50:36Z</time>
      </trkpt>
      <trkpt lat="42.3466960" lon="-7.9877190">
        <ele>126.7</ele>
        <time>2019-08-17T15:50:37Z</time>
      </trkpt>
      <trkpt lat="42.3467170" lon="-7.9877940">
        <ele>126.8</ele>
        <time>2019-08-17T15:50:38Z</time>
      </trkpt>
      <trkpt lat="42.3467370" lon="-7.9878690">
        <ele>126.9</ele>
        <time>2019-08-17T15:50:39Z</time>
      </trkpt>
      <trkpt lat="42.3467580" lon="-7.9879440">
        <ele>126.9</ele>
        <time>2019-08-17T15:50:40Z</time>
      </trkpt>
      <trkpt lat="42.3467780" lon="-7.9880170">
        <ele>127.1</ele>
        <time>2019-08-17T15:50:41Z</time>
      </trkpt>
      <trkpt lat="42.3467980" lon="-7.9880900">
        <ele>127.1</ele>
        <time>2019-08-17T15:50:42Z</time>
      </trkpt>
      <trkpt lat="42.3468180" lon="-7.9881620">
        <ele>127.1</ele>
        <time>2019-08-17T15:50:43Z</time>
      </trkpt>
      <trkpt lat="42.3468380" lon="-7.9882330">
        <ele>127.1</ele>
        <time>2019-08-17T15:50:44Z</time>
      </trkpt>
      <trkpt lat="42.3468570" lon="-7.9883030">
        <ele>127.1</ele>
        <time>2019-08-17T15:50:45Z</time>
      </trkpt>
      <trkpt lat="42.3468770" lon="-7.9883730">
        <ele>127.1</ele>
        <time>2019-08-17T15:50:46Z</time>
      </trkpt>
      <trkpt lat="42.3468960" lon="-7.9884420">
        <ele>127.0</ele>
        <time>2019-08-17T15:50:47Z</time>
      </trkpt>
      <trkpt lat="42.3469150" lon="-7.9885100">
        <ele>127.0</ele>
        <time>2019-08-17T15:50:48Z</time>
      </trkpt>
      <trkpt lat="42.3469340" lon="-7.9885780">
        <ele>127.0</ele>
        <time>2019-08-17T15:50:49Z</time>
      </trkpt>
      <trkpt lat="42.3469530" lon="-7.9886450">
        <ele>127.0</ele>
        <time>2019-08-17T15:50:50Z</time>
      </trkpt>
      <trkpt lat="42.3469720" lon="-7.9887130">
        <ele>126.9</ele>
        <time>2019-08-17T15:50:51Z</time>
      </trkpt>
      <trkpt lat="42.3469900" lon="-7.9887790">
        <ele>126.8</ele>
        <time>2019-08-17T15:50:52Z</time>
      </trkpt>
      <trkpt lat="42.3470090" lon="-7.9888460">
        <ele>126.8</ele>
        <time>2019-08-17T15:50:53Z</time>
      </trkpt>
      <trkpt lat="42.3470280" lon="-7.9889130">
        <ele>126.7</ele>
        <time>2019-08-17T15:50:54Z</time>
      </trkpt>
      <trkpt lat="42.3470470" lon="-7.9889790">
        <ele>126.6</ele>
        <time>2019-08-17T15:50:55Z</time>
      </trkpt>
      <trkpt lat="42.3470650" lon="-7.9890450">
        <ele>126.6</ele>
        <time>2019-08-17T15:50:56Z</time>
      </trkpt>
      <trkpt lat="42.3470840" lon="-7.9891120">
        <ele>126.5</ele>
        <time>2019-08-17T15:50:57Z</time>
      </trkpt>
      <trkpt lat="42.3471030" lon="-7.9891790">
        <ele>126.4</ele>
        <time>2019-08-17T15:50:58Z</time>
      </trkpt>
      <trkpt lat="42.3471220" lon="-7.9892450">
        <ele>126.3</ele>
        <time>2019-08-17T15:50:59Z</time>
      </trkpt>
      <trkpt lat="42.3471410" lon="-7.9893120">
        <ele>126.3</ele>
        <time>2019-08-17T15:51:00Z</time>
      </trkpt>
      <trkpt lat="42.3471600" lon="-7.9893800">
        <ele>126.2</ele>
        <time>2019-08-17T15:51:01Z</time>
      </trkpt>
      <trkpt lat="42.3471780" lon="-7.9894470">
        <ele>126.1</ele>
        <time>2019-08-17T15:51:02Z</time>
      </trkpt>
      <trkpt lat="42.3471970" lon="-7.9895150">
        <ele>126.0</ele>
        <time>2019-08-17T15:51:03Z</time>
      </trkpt>
      <trkpt lat="42.3472160" lon="-7.9895840">
        <ele>125.9</ele>
        <time>2019-08-17T15:51:04Z</time>
      </trkpt>
      <trkpt lat="42.3472350" lon="-7.9896530">
        <ele>125.9</ele>
        <time>2019-08-17T15:51:05Z</time>
      </trkpt>
      <trkpt lat="42.3472550" lon="-7.9897220">
        <ele>125.8</ele>
        <time>2019-08-17T15:51:06Z</time>
      </trkpt>
      <trkpt lat="42.3472740" lon="-7.9897920">
        <ele>125.7</ele>
        <time>2019-08-17T15:51:07Z</time>
      </trkpt>
      <trkpt lat="42.3472930" lon="-7.9898630">
        <ele>125.7</ele>
        <time>2019-08-17T15:51:08Z</time>
      </trkpt>
      <trkpt lat="42.3473130" lon="-7.9899340">
        <ele>125.6</ele>
        <time>2019-08-17T15:51:09Z</time>
      </trkpt>
      <trkpt lat="42.3473330" lon="-7.9900070">
        <ele>125.6</ele>
        <time>2019-08-17T15:51:10Z</time>
      </trkpt>
      <trkpt lat="42.3473530" lon="-7.9900800">
        <ele>125.5</ele>
        <time>2019-08-17T15:51:11Z</time>
      </trkpt>
      <trkpt lat="42.3473730" lon="-7.9901530">
        <ele>125.5</ele>
        <time>2019-08-17T15:51:12Z</time>
      </trkpt>
      <trkpt lat="42.3473930" lon="-7.9902280">
        <ele>125.5</ele>
        <time>2019-08-17T15:51:13Z</time>
      </trkpt>
      <trkpt lat="42.3474140" lon="-7.9903020">
        <ele>125.4</ele>
        <time>2019-08-17T15:51:14Z</time>
      </trkpt>
      <trkpt lat="42.3474340" lon="-7.9903780">
        <ele>125.4</ele>
        <time>2019-08-17T15:51:15Z</time>
      </trkpt>
      <trkpt lat="42.3474550" lon="-7.9904530">
        <ele>125.5</ele>
        <time>2019-08-17T15:51:16Z</time>
      </trkpt>
      <trkpt lat="42.3474760" lon="-7.9905290">
        <ele>125.5</ele>
        <time>2019-08-17T15:51:17Z</time>
      </trkpt>
      <trkpt lat="42.3474970" lon="-7.9906050">
        <ele>125.5</ele>
        <time>2019-08-17T15:51:18Z</time>
      </trkpt>
      <trkpt lat="42.3475190" lon="-7.9906810">
        <ele>125.5</ele>
        <time>2019-08-17T15:51:19Z</time>
      </trkpt>
      <trkpt lat="42.3475400" lon="-7.9907570">
        <ele>125.5</ele>
        <time>2019-08-17T15:51:20Z</time>
      </trkpt>
      <trkpt lat="42.3475620" lon="-7.9908320">
        <ele>125.6</ele>
        <time>2019-08-17T15:51:21Z</time>
      </trkpt>
      <trkpt lat="42.3475830" lon="-7.9909080">
        <ele>125.6</ele>
        <time>2019-08-17T15:51:22Z</time>
      </trkpt>
      <trkpt lat="42.3476050" lon="-7.9909830">
        <ele>125.5</ele>
        <time>2019-08-17T15:51:23Z</time>
      </trkpt>
      <trkpt lat="42.3476270" lon="-7.9910580">
        <ele>125.3</ele>
        <time>2019-08-17T15:51:24Z</time>
      </trkpt>
      <trkpt lat="42.3476480" lon="-7.9911320">
        <ele>125.2</ele>
        <time>2019-08-17T15:51:25Z</time>
      </trkpt>
      <trkpt lat="42.3476700" lon="-7.9912060">
        <ele>125.0</ele>
        <time>2019-08-17T15:51:26Z</time>
      </trkpt>
      <trkpt lat="42.3476920" lon="-7.9912790">
        <ele>124.9</ele>
        <time>2019-08-17T15:51:27Z</time>
      </trkpt>
      <trkpt lat="42.3477140" lon="-7.9913520">
        <ele>124.7</ele>
        <time>2019-08-17T15:51:28Z</time>
      </trkpt>
      <trkpt lat="42.3477360" lon="-7.9914250">
        <ele>124.5</ele>
        <time>2019-08-17T15:51:29Z</time>
      </trkpt>
      <trkpt lat="42.3477590" lon="-7.9914980">
        <ele>124.4</ele>
        <time>2019-08-17T15:51:30Z</time>
      </trkpt>
      <trkpt lat="42.3477810" lon="-7.9915710">
        <ele>124.3</ele>
        <time>2019-08-17T15:51:31Z</time>
      </trkpt>
      <trkpt lat="42.3478030" lon="-7.9916450">
        <ele>124.3</ele>
        <time>2019-08-17T15:51:32Z</time>
      </trkpt>
      <trkpt lat="42.3478260" lon="-7.9917200">
        <ele>124.2</ele>
        <time>2019-08-17T15:51:33Z</time>
      </trkpt>
      <trkpt lat="42.3478480" lon="-7.9917960">
        <ele>124.2</ele>
        <time>2019-08-17T15:51:34Z</time>
      </trkpt>
      <trkpt lat="42.3478700" lon="-7.9918740">
        <ele>124.2</ele>
        <time>2019-08-17T15:51:35Z</time>
      </trkpt>
      <trkpt lat="42.3478920" lon="-7.9919520">
        <ele>124.1</ele>
        <time>2019-08-17T15:51:36Z</time>
      </trkpt>
      <trkpt lat="42.3479140" lon="-7.9920330">
        <ele>124.1</ele>
        <time>2019-08-17T15:51:37Z</time>
      </trkpt>
      <trkpt lat="42.3479350" lon="-7.9921130">
        <ele>124.1</ele>
        <time>2019-08-17T15:51:38Z</time>
      </trkpt>
      <trkpt lat="42.3479560" lon="-7.9921930">
        <ele>124.1</ele>
        <time>2019-08-17T15:51:39Z</time>
      </trkpt>
      <trkpt lat="42.3479770" lon="-7.9922710">
        <ele>124.1</ele>
        <time>2019-08-17T15:51:40Z</time>
      </trkpt>
      <trkpt lat="42.3479970" lon="-7.9923460">
        <ele>124.1</ele>
        <time>2019-08-17T15:51:41Z</time>
      </trkpt>
      <trkpt lat="42.3480170" lon="-7.9924200">
        <ele>124.1</ele>
        <time>2019-08-17T15:51:42Z</time>
      </trkpt>
      <trkpt lat="42.3480370" lon="-7.9924920">
        <ele>124.1</ele>
        <time>2019-08-17T15:51:43Z</time>
      </trkpt>
      <trkpt lat="42.3480570" lon="-7.9925620">
        <ele>124.0</ele>
        <time>2019-08-17T15:51:44Z</time>
      </trkpt>
      <trkpt lat="42.3480770" lon="-7.9926320">
        <ele>124.0</ele>
        <time>2019-08-17T15:51:45Z</time>
      </trkpt>
      <trkpt lat="42.3480970" lon="-7.9926990">
        <ele>123.9</ele>
        <time>2019-08-17T15:51:46Z</time>
      </trkpt>
      <trkpt lat="42.3481170" lon="-7.9927660">
        <ele>123.8</ele>
        <time>2019-08-17T15:51:47Z</time>
      </trkpt>
      <trkpt lat="42.3481370" lon="-7.9928320">
        <ele>123.8</ele>
        <time>2019-08-17T15:51:48Z</time>
      </trkpt>
      <trkpt lat="42.3481570" lon="-7.9928970">
        <ele>123.7</ele>
        <time>2019-08-17T15:51:49Z</time>
      </trkpt>
      <trkpt lat="42.3481770" lon="-7.9929610">
        <ele>123.6</ele>
        <time>2019-08-17T15:51:50Z</time>
      </trkpt>
      <trkpt lat="42.3481980" lon="-7.9930260">
        <ele>123.4</ele>
        <time>2019-08-17T15:51:51Z</time>
      </trkpt>
      <trkpt lat="42.3482180" lon="-7.9930900">
        <ele>123.3</ele>
        <time>2019-08-17T15:51:52Z</time>
      </trkpt>
      <trkpt lat="42.3482380" lon="-7.9931560">
        <ele>123.2</ele>
        <time>2019-08-17T15:51:53Z</time>
      </trkpt>
      <trkpt lat="42.3482570" lon="-7.9932220">
        <ele>123.1</ele>
        <time>2019-08-17T15:51:54Z</time>
      </trkpt>
      <trkpt lat="42.3482770" lon="-7.9932890">
        <ele>123.0</ele>
        <time>2019-08-17T15:51:55Z</time>
      </trkpt>
      <trkpt lat="42.3482970" lon="-7.9933570">
        <ele>122.9</ele>
        <time>2019-08-17T15:51:56Z</time>
      </trkpt>
      <trkpt lat="42.3483170" lon="-7.9934250">
        <ele>122.8</ele>
        <time>2019-08-17T15:51:57Z</time>
      </trkpt>
      <trkpt lat="42.3483380" lon="-7.9934940">
        <ele>122.7</ele>
        <time>2019-08-17T15:51:58Z</time>
      </trkpt>
      <trkpt lat="42.3483610" lon="-7.9935640">
        <ele>122.6</ele>
        <time>2019-08-17T15:51:59Z</time>
      </trkpt>
      <trkpt lat="42.3483850" lon="-7.9936340">
        <ele>122.5</ele>
        <time>2019-08-17T15:52:00Z</time>
      </trkpt>
      <trkpt lat="42.3484100" lon="-7.9937040">
        <ele>122.4</ele>
        <time>2019-08-17T15:52:01Z</time>
      </trkpt>
      <trkpt lat="42.3484340" lon="-7.9937750">
        <ele>122.4</ele>
        <time>2019-08-17T15:52:02Z</time>
      </trkpt>
      <trkpt lat="42.3484590" lon="-7.9938460">
        <ele>122.3</ele>
        <time>2019-08-17T15:52:03Z</time>
      </trkpt>
      <trkpt lat="42.3484840" lon="-7.9939180">
        <ele>122.1</ele>
        <time>2019-08-17T15:52:04Z</time>
      </trkpt>
      <trkpt lat="42.3485080" lon="-7.9939910">
        <ele>122.0</ele>
        <time>2019-08-17T15:52:05Z</time>
      </trkpt>
      <trkpt lat="42.3485330" lon="-7.9940640">
        <ele>122.0</ele>
        <time>2019-08-17T15:52:06Z</time>
      </trkpt>
      <trkpt lat="42.3485580" lon="-7.9941390">
        <ele>121.9</ele>
        <time>2019-08-17T15:52:07Z</time>
      </trkpt>
      <trkpt lat="42.3485830" lon="-7.9942140">
        <ele>121.9</ele>
        <time>2019-08-17T15:52:08Z</time>
      </trkpt>
      <trkpt lat="42.3486090" lon="-7.9942910">
        <ele>121.8</ele>
        <time>2019-08-17T15:52:09Z</time>
      </trkpt>
      <trkpt lat="42.3486360" lon="-7.9943690">
        <ele>121.7</ele>
        <time>2019-08-17T15:52:10Z</time>
      </trkpt>
      <trkpt lat="42.3486640" lon="-7.9944480">
        <ele>121.6</ele>
        <time>2019-08-17T15:52:11Z</time>
      </trkpt>
      <trkpt lat="42.3486920" lon="-7.9945280">
        <ele>121.4</ele>
        <time>2019-08-17T15:52:12Z</time>
      </trkpt>
      <trkpt lat="42.3487200" lon="-7.9946100">
        <ele>121.2</ele>
        <time>2019-08-17T15:52:13Z</time>
      </trkpt>
      <trkpt lat="42.3487490" lon="-7.9946940">
        <ele>120.9</ele>
        <time>2019-08-17T15:52:14Z</time>
      </trkpt>
      <trkpt lat="42.3487780" lon="-7.9947790">
        <ele>120.7</ele>
        <time>2019-08-17T15:52:15Z</time>
      </trkpt>
      <trkpt lat="42.3488080" lon="-7.9948660">
        <ele>120.5</ele>
        <time>2019-08-17T15:52:16Z</time>
      </trkpt>
      <trkpt lat="42.3488380" lon="-7.9949540">
        <ele>120.3</ele>
        <time>2019-08-17T15:52:17Z</time>
      </trkpt>
      <trkpt lat="42.3488680" lon="-7.9950450">
        <ele>120.1</ele>
        <time>2019-08-17T15:52:18Z</time>
      </trkpt>
      <trkpt lat="42.3488980" lon="-7.9951370">
        <ele>119.8</ele>
        <time>2019-08-17T15:52:19Z</time>
      </trkpt>
      <trkpt lat="42.3489280" lon="-7.9952290">
        <ele>119.5</ele>
        <time>2019-08-17T15:52:20Z</time>
      </trkpt>
      <trkpt lat="42.3489580" lon="-7.9953220">
        <ele>119.0</ele>
        <time>2019-08-17T15:52:21Z</time>
      </trkpt>
      <trkpt lat="42.3489870" lon="-7.9954150">
        <ele>119.1</ele>
        <time>2019-08-17T15:52:22Z</time>
      </trkpt>
      <trkpt lat="42.3490160" lon="-7.9955070">
        <ele>119.3</ele>
        <time>2019-08-17T15:52:23Z</time>
      </trkpt>
      <trkpt lat="42.3490440" lon="-7.9955980">
        <ele>119.4</ele>
        <time>2019-08-17T15:52:24Z</time>
      </trkpt>
      <trkpt lat="42.3490720" lon="-7.9956870">
        <ele>119.6</ele>
        <time>2019-08-17T15:52:25Z</time>
      </trkpt>
      <trkpt lat="42.3490980" lon="-7.9957740">
        <ele>119.8</ele>
        <time>2019-08-17T15:52:26Z</time>
      </trkpt>
      <trkpt lat="42.3491240" lon="-7.9958600">
        <ele>120.0</ele>
        <time>2019-08-17T15:52:27Z</time>
      </trkpt>
      <trkpt lat="42.3491490" lon="-7.9959450">
        <ele>120.2</ele>
        <time>2019-08-17T15:52:28Z</time>
      </trkpt>
      <trkpt lat="42.3491730" lon="-7.9960300">
        <ele>120.4</ele>
        <time>2019-08-17T15:52:29Z</time>
      </trkpt>
      <trkpt lat="42.3491960" lon="-7.9961140">
        <ele>120.6</ele>
        <time>2019-08-17T15:52:30Z</time>
      </trkpt>
      <trkpt lat="42.3492180" lon="-7.9961980">
        <ele>120.9</ele>
        <time>2019-08-17T15:52:31Z</time>
      </trkpt>
      <trkpt lat="42.3492380" lon="-7.9962820">
        <ele>121.4</ele>
        <time>2019-08-17T15:52:32Z</time>
      </trkpt>
      <trkpt lat="42.3492580" lon="-7.9963660">
        <ele>121.8</ele>
        <time>2019-08-17T15:52:33Z</time>
      </trkpt>
      <trkpt lat="42.3492770" lon="-7.9964510">
        <ele>122.1</ele>
        <time>2019-08-17T15:52:34Z</time>
      </trkpt>
      <trkpt lat="42.3492950" lon="-7.9965360">
        <ele>122.4</ele>
        <time>2019-08-17T15:52:35Z</time>
      </trkpt>
      <trkpt lat="42.3493130" lon="-7.9966210">
        <ele>122.7</ele>
        <time>2019-08-17T15:52:36Z</time>
      </trkpt>
      <trkpt lat="42.3493310" lon="-7.9967060">
        <ele>123.0</ele>
        <time>2019-08-17T15:52:37Z</time>
      </trkpt>
      <trkpt lat="42.3493490" lon="-7.9967910">
        <ele>123.2</ele>
        <time>2019-08-17T15:52:38Z</time>
      </trkpt>
      <trkpt lat="42.3493670" lon="-7.9968760">
        <ele>123.5</ele>
        <time>2019-08-17T15:52:39Z</time>
      </trkpt>
      <trkpt lat="42.3493850" lon="-7.9969600">
        <ele>123.7</ele>
        <time>2019-08-17T15:52:40Z</time>
      </trkpt>
      <trkpt lat="42.3494010" lon="-7.9970430">
        <ele>123.8</ele>
        <time>2019-08-17T15:52:41Z</time>
      </trkpt>
      <trkpt lat="42.3494150" lon="-7.9971250">
        <ele>124.0</ele>
        <time>2019-08-17T15:52:42Z</time>
      </trkpt>
      <trkpt lat="42.3494270" lon="-7.9972040">
        <ele>124.1</ele>
        <time>2019-08-17T15:52:43Z</time>
      </trkpt>
      <trkpt lat="42.3494360" lon="-7.9972820">
        <ele>123.8</ele>
        <time>2019-08-17T15:52:44Z</time>
      </trkpt>
      <trkpt lat="42.3494430" lon="-7.9973600">
        <ele>123.6</ele>
        <time>2019-08-17T15:52:45Z</time>
      </trkpt>
      <trkpt lat="42.3494510" lon="-7.9974390">
        <ele>123.5</ele>
        <time>2019-08-17T15:52:46Z</time>
      </trkpt>
      <trkpt lat="42.3494590" lon="-7.9975190">
        <ele>123.3</ele>
        <time>2019-08-17T15:52:47Z</time>
      </trkpt>
      <trkpt lat="42.3494670" lon="-7.9976010">
        <ele>123.2</ele>
        <time>2019-08-17T15:52:48Z</time>
      </trkpt>
      <trkpt lat="42.3494760" lon="-7.9976840">
        <ele>123.1</ele>
        <time>2019-08-17T15:52:49Z</time>
      </trkpt>
      <trkpt lat="42.3494860" lon="-7.9977690">
        <ele>123.0</ele>
        <time>2019-08-17T15:52:50Z</time>
      </trkpt>
      <trkpt lat="42.3494960" lon="-7.9978560">
        <ele>122.9</ele>
        <time>2019-08-17T15:52:51Z</time>
      </trkpt>
      <trkpt lat="42.3495080" lon="-7.9979440">
        <ele>122.8</ele>
        <time>2019-08-17T15:52:52Z</time>
      </trkpt>
      <trkpt lat="42.3495200" lon="-7.9980340">
        <ele>122.6</ele>
        <time>2019-08-17T15:52:53Z</time>
      </trkpt>
      <trkpt lat="42.3495330" lon="-7.9981250">
        <ele>122.4</ele>
        <time>2019-08-17T15:52:54Z</time>
      </trkpt>
      <trkpt lat="42.3495470" lon="-7.9982170">
        <ele>122.2</ele>
        <time>2019-08-17T15:52:55Z</time>
      </trkpt>
      <trkpt lat="42.3495610" lon="-7.9983110">
        <ele>121.9</ele>
        <time>2019-08-17T15:52:56Z</time>
      </trkpt>
      <trkpt lat="42.3495740" lon="-7.9984060">
        <ele>121.7</ele>
        <time>2019-08-17T15:52:57Z</time>
      </trkpt>
      <trkpt lat="42.3495870" lon="-7.9985020">
        <ele>121.4</ele>
        <time>2019-08-17T15:52:58Z</time>
      </trkpt>
      <trkpt lat="42.3495990" lon="-7.9985990">
        <ele>121.2</ele>
        <time>2019-08-17T15:52:59Z</time>
      </trkpt>
      <trkpt lat="42.3496100" lon="-7.9986960">
        <ele>121.0</ele>
        <time>2019-08-17T15:53:00Z</time>
      </trkpt>
      <trkpt lat="42.3496200" lon="-7.9987950">
        <ele>120.8</ele>
        <time>2019-08-17T15:53:01Z</time>
      </trkpt>
      <trkpt lat="42.3496280" lon="-7.9988940">
        <ele>120.4</ele>
        <time>2019-08-17T15:53:02Z</time>
      </trkpt>
      <trkpt lat="42.3496360" lon="-7.9989940">
        <ele>119.9</ele>
        <time>2019-08-17T15:53:03Z</time>
      </trkpt>
      <trkpt lat="42.3496440" lon="-7.9990940">
        <ele>119.4</ele>
        <time>2019-08-17T15:53:04Z</time>
      </trkpt>
      <trkpt lat="42.3496520" lon="-7.9991960">
        <ele>119.0</ele>
        <time>2019-08-17T15:53:05Z</time>
      </trkpt>
      <trkpt lat="42.3496600" lon="-7.9992990">
        <ele>118.5</ele>
        <time>2019-08-17T15:53:06Z</time>
      </trkpt>
      <trkpt lat="42.3496710" lon="-7.9994020">
        <ele>118.0</ele>
        <time>2019-08-17T15:53:07Z</time>
      </trkpt>
      <trkpt lat="42.3496820" lon="-7.9995060">
        <ele>117.6</ele>
        <time>2019-08-17T15:53:08Z</time>
      </trkpt>
      <trkpt lat="42.3496960" lon="-7.9996110">
        <ele>117.1</ele>
        <time>2019-08-17T15:53:09Z</time>
      </trkpt>
      <trkpt lat="42.3497110" lon="-7.9997180">
        <ele>116.7</ele>
        <time>2019-08-17T15:53:10Z</time>
      </trkpt>
      <trkpt lat="42.3497260" lon="-7.9998250">
        <ele>116.3</ele>
        <time>2019-08-17T15:53:11Z</time>
      </trkpt>
      <trkpt lat="42.3497430" lon="-7.9999330">
        <ele>115.6</ele>
        <time>2019-08-17T15:53:12Z</time>
      </trkpt>
      <trkpt lat="42.3497610" lon="-8.0000420">
        <ele>115.0</ele>
        <time>2019-08-17T15:53:13Z</time>
      </trkpt>
      <trkpt lat="42.3497790" lon="-8.0001520">
        <ele>114.4</ele>
        <time>2019-08-17T15:53:14Z</time>
      </trkpt>
      <trkpt lat="42.3497980" lon="-8.0002630">
        <ele>113.7</ele>
        <time>2019-08-17T15:53:15Z</time>
      </trkpt>
      <trkpt lat="42.3498160" lon="-8.0003760">
        <ele>113.0</ele>
        <time>2019-08-17T15:53:16Z</time>
      </trkpt>
      <trkpt lat="42.3498360" lon="-8.0004880">
        <ele>112.4</ele>
        <time>2019-08-17T15:53:17Z</time>
      </trkpt>
      <trkpt lat="42.3498560" lon="-8.0005990">
        <ele>111.8</ele>
        <time>2019-08-17T15:53:18Z</time>
      </trkpt>
      <trkpt lat="42.3498780" lon="-8.0007080">
        <ele>110.9</ele>
        <time>2019-08-17T15:53:19Z</time>
      </trkpt>
      <trkpt lat="42.3499010" lon="-8.0008150">
        <ele>110.0</ele>
        <time>2019-08-17T15:53:20Z</time>
      </trkpt>
      <trkpt lat="42.3499260" lon="-8.0009200">
        <ele>109.2</ele>
        <time>2019-08-17T15:53:21Z</time>
      </trkpt>
      <trkpt lat="42.3499510" lon="-8.0010240">
        <ele>108.4</ele>
        <time>2019-08-17T15:53:22Z</time>
      </trkpt>
      <trkpt lat="42.3499760" lon="-8.0011300">
        <ele>107.7</ele>
        <time>2019-08-17T15:53:23Z</time>
      </trkpt>
      <trkpt lat="42.3500010" lon="-8.0012380">
        <ele>106.9</ele>
        <time>2019-08-17T15:53:24Z</time>
      </trkpt>
      <trkpt lat="42.3500240" lon="-8.0013490">
        <ele>106.2</ele>
        <time>2019-08-17T15:53:25Z</time>
      </trkpt>
      <trkpt lat="42.3500450" lon="-8.0014650">
        <ele>104.9</ele>
        <time>2019-08-17T15:53:26Z</time>
      </trkpt>
      <trkpt lat="42.3500630" lon="-8.0015860">
        <ele>103.6</ele>
        <time>2019-08-17T15:53:27Z</time>
      </trkpt>
      <trkpt lat="42.3500760" lon="-8.0017120">
        <ele>102.2</ele>
        <time>2019-08-17T15:53:28Z</time>
      </trkpt>
      <trkpt lat="42.3500830" lon="-8.0018430">
        <ele>100.7</ele>
        <time>2019-08-17T15:53:29Z</time>
      </trkpt>
      <trkpt lat="42.3500810" lon="-8.0019760">
        <ele>98.7</ele>
        <time>2019-08-17T15:53:30Z</time>
      </trkpt>
      <trkpt lat="42.3500710" lon="-8.0021110">
        <ele>96.8</ele>
        <time>2019-08-17T15:53:31Z</time>
      </trkpt>
      <trkpt lat="42.3500520" lon="-8.0022460">
        <ele>95.3</ele>
        <time>2019-08-17T15:53:32Z</time>
      </trkpt>
      <trkpt lat="42.3500230" lon="-8.0023800">
        <ele>93.9</ele>
        <time>2019-08-17T15:53:33Z</time>
      </trkpt>
      <trkpt lat="42.3499860" lon="-8.0025110">
        <ele>93.7</ele>
        <time>2019-08-17T15:53:34Z</time>
      </trkpt>
      <trkpt lat="42.3499440" lon="-8.0026400">
        <ele>93.6</ele>
        <time>2019-08-17T15:53:35Z</time>
      </trkpt>
      <trkpt lat="42.3499020" lon="-8.0027650">
        <ele>93.4</ele>
        <time>2019-08-17T15:53:36Z</time>
      </trkpt>
      <trkpt lat="42.3498650" lon="-8.0028870">
        <ele>93.4</ele>
        <time>2019-08-17T15:53:37Z</time>
      </trkpt>
      <trkpt lat="42.3498370" lon="-8.0030020">
        <ele>93.4</ele>
        <time>2019-08-17T15:53:38Z</time>
      </trkpt>
      <trkpt lat="42.3498210" lon="-8.0031090">
        <ele>93.5</ele>
        <time>2019-08-17T15:53:39Z</time>
      </trkpt>
      <trkpt lat="42.3498200" lon="-8.0032030">
        <ele>93.7</ele>
        <time>2019-08-17T15:53:40Z</time>
      </trkpt>
      <trkpt lat="42.3498360" lon="-8.0032840">
        <ele>93.8</ele>
        <time>2019-08-17T15:53:41Z</time>
      </trkpt>
      <trkpt lat="42.3498650" lon="-8.0033540">
        <ele>93.8</ele>
        <time>2019-08-17T15:53:42Z</time>
      </trkpt>
      <trkpt lat="42.3499020" lon="-8.0034160">
        <ele>93.7</ele>
        <time>2019-08-17T15:53:43Z</time>
      </trkpt>
      <trkpt lat="42.3499410" lon="-8.0034740">
        <ele>93.7</ele>
        <time>2019-08-17T15:53:44Z</time>
      </trkpt>
      <trkpt lat="42.3499780" lon="-8.0035300">
        <ele>93.7</ele>
        <time>2019-08-17T15:53:45Z</time>
      </trkpt>
      <trkpt lat="42.3500120" lon="-8.0035850">
        <ele>93.7</ele>
        <time>2019-08-17T15:53:46Z</time>
      </trkpt>
      <trkpt lat="42.3500460" lon="-8.0036400">
        <ele>93.8</ele>
        <time>2019-08-17T15:53:47Z</time>
      </trkpt>
      <trkpt lat="42.3500760" lon="-8.0036930">
        <ele>94.0</ele>
        <time>2019-08-17T15:53:48Z</time>
      </trkpt>
      <trkpt lat="42.3501060" lon="-8.0037450">
        <ele>94.2</ele>
        <time>2019-08-17T15:53:49Z</time>
      </trkpt>
      <trkpt lat="42.3501350" lon="-8.0037950">
        <ele>94.5</ele>
        <time>2019-08-17T15:53:50Z</time>
      </trkpt>
      <trkpt lat="42.3501630" lon="-8.0038430">
        <ele>94.7</ele>
        <time>2019-08-17T15:53:51Z</time>
      </trkpt>
      <trkpt lat="42.3501910" lon="-8.0038900">
        <ele>95.0</ele>
        <time>2019-08-17T15:53:52Z</time>
      </trkpt>
      <trkpt lat="42.3502200" lon="-8.0039360">
        <ele>95.4</ele>
        <time>2019-08-17T15:53:53Z</time>
      </trkpt>
      <trkpt lat="42.3502480" lon="-8.0039800">
        <ele>95.8</ele>
        <time>2019-08-17T15:53:54Z</time>
      </trkpt>
      <trkpt lat="42.3502760" lon="-8.0040230">
        <ele>96.1</ele>
        <time>2019-08-17T15:53:55Z</time>
      </trkpt>
      <trkpt lat="42.3503030" lon="-8.0040670">
        <ele>96.5</ele>
        <time>2019-08-17T15:53:56Z</time>
      </trkpt>
      <trkpt lat="42.3503310" lon="-8.0041100">
        <ele>96.8</ele>
        <time>2019-08-17T15:53:57Z</time>
      </trkpt>
      <trkpt lat="42.3503580" lon="-8.0041530">
        <ele>97.1</ele>
        <time>2019-08-17T15:53:58Z</time>
      </trkpt>
      <trkpt lat="42.3503840" lon="-8.0041970">
        <ele>97.5</ele>
        <time>2019-08-17T15:53:59Z</time>
      </trkpt>
      <trkpt lat="42.3504100" lon="-8.0042420">
        <ele>97.8</ele>
        <time>2019-08-17T15:54:00Z</time>
      </trkpt>
      <trkpt lat="42.3504350" lon="-8.0042880">
        <ele>98.1</ele>
        <time>2019-08-17T15:54:01Z</time>
      </trkpt>
      <trkpt lat="42.3504610" lon="-8.0043340">
        <ele>98.5</ele>
        <time>2019-08-17T15:54:02Z</time>
      </trkpt>
      <trkpt lat="42.3504860" lon="-8.0043810">
        <ele>98.9</ele>
        <time>2019-08-17T15:54:03Z</time>
      </trkpt>
      <trkpt lat="42.3505110" lon="-8.0044270">
        <ele>99.3</ele>
        <time>2019-08-17T15:54:04Z</time>
      </trkpt>
      <trkpt lat="42.3505370" lon="-8.0044730">
        <ele>99.7</ele>
        <time>2019-08-17T15:54:05Z</time>
      </trkpt>
      <trkpt lat="42.3505630" lon="-8.0045180">
        <ele>100.1</ele>
        <time>2019-08-17T15:54:06Z</time>
      </trkpt>
      <trkpt lat="42.3506070" lon="-8.0045900">
        <ele>100.5</ele>
        <time>2019-08-17T15:54:07Z</time>
      </trkpt>
      <trkpt lat="42.3506250" lon="-8.0046190">
        <ele>100.7</ele>
        <time>2019-08-17T15:54:08Z</time>
      </trkpt>
      <trkpt lat="42.3506430" lon="-8.0046470">
        <ele>100.9</ele>
        <time>2019-08-17T15:54:09Z</time>
      </trkpt>
      <trkpt lat="42.3506710" lon="-8.0046870">
        <ele>101.2</ele>
        <time>2019-08-17T15:54:10Z</time>
      </trkpt>
      <trkpt lat="42.3506990" lon="-8.0047270">
        <ele>101.5</ele>
        <time>2019-08-17T15:54:11Z</time>
      </trkpt>
      <trkpt lat="42.3507450" lon="-8.0047890">
        <ele>102.0</ele>
        <time>2019-08-17T15:54:12Z</time>
      </trkpt>
      <trkpt lat="42.3507640" lon="-8.0048140">
        <ele>102.3</ele>
        <time>2019-08-17T15:54:13Z</time>
      </trkpt>
      <trkpt lat="42.3507820" lon="-8.0048380">
        <ele>102.6</ele>
        <time>2019-08-17T15:54:14Z</time>
      </trkpt>
      <trkpt lat="42.3508100" lon="-8.0048730">
        <ele>103.1</ele>
        <time>2019-08-17T15:54:15Z</time>
      </trkpt>
      <trkpt lat="42.3508370" lon="-8.0049060">
        <ele>103.7</ele>
        <time>2019-08-17T15:54:16Z</time>
      </trkpt>
      <trkpt lat="42.3508650" lon="-8.0049390">
        <ele>104.2</ele>
        <time>2019-08-17T15:54:17Z</time>
      </trkpt>
      <trkpt lat="42.3508930" lon="-8.0049700">
        <ele>104.6</ele>
        <time>2019-08-17T15:54:18Z</time>
      </trkpt>
      <trkpt lat="42.3509220" lon="-8.0050000">
        <ele>105.1</ele>
        <time>2019-08-17T15:54:19Z</time>
      </trkpt>
      <trkpt lat="42.3509520" lon="-8.0050290">
        <ele>105.7</ele>
        <time>2019-08-17T15:54:20Z</time>
      </trkpt>
      <trkpt lat="42.3509840" lon="-8.0050570">
        <ele>106.3</ele>
        <time>2019-08-17T15:54:21Z</time>
      </trkpt>
      <trkpt lat="42.3510160" lon="-8.0050850">
        <ele>107.0</ele>
        <time>2019-08-17T15:54:22Z</time>
      </trkpt>
      <trkpt lat="42.3510500" lon="-8.0051110">
        <ele>107.6</ele>
        <time>2019-08-17T15:54:23Z</time>
      </trkpt>
      <trkpt lat="42.3510840" lon="-8.0051370">
        <ele>108.4</ele>
        <time>2019-08-17T15:54:24Z</time>
      </trkpt>
      <trkpt lat="42.3511200" lon="-8.0051610">
        <ele>109.1</ele>
        <time>2019-08-17T15:54:25Z</time>
      </trkpt>
      <trkpt lat="42.3511560" lon="-8.0051850">
        <ele>109.7</ele>
        <time>2019-08-17T15:54:26Z</time>
      </trkpt>
      <trkpt lat="42.3511920" lon="-8.0052080">
        <ele>110.1</ele>
        <time>2019-08-17T15:54:27Z</time>
      </trkpt>
      <trkpt lat="42.3512290" lon="-8.0052300">
        <ele>110.5</ele>
        <time>2019-08-17T15:54:28Z</time>
      </trkpt>
      <trkpt lat="42.3512650" lon="-8.0052520">
        <ele>110.7</ele>
        <time>2019-08-17T15:54:29Z</time>
      </trkpt>
      <trkpt lat="42.3513020" lon="-8.0052720">
        <ele>110.9</ele>
        <time>2019-08-17T15:54:30Z</time>
      </trkpt>
      <trkpt lat="42.3513380" lon="-8.0052910">
        <ele>111.1</ele>
        <time>2019-08-17T15:54:31Z</time>
      </trkpt>
      <trkpt lat="42.3513750" lon="-8.0053080">
        <ele>111.3</ele>
        <time>2019-08-17T15:54:32Z</time>
      </trkpt>
      <trkpt lat="42.3514120" lon="-8.0053250">
        <ele>111.4</ele>
        <time>2019-08-17T15:54:33Z</time>
      </trkpt>
      <trkpt lat="42.3514490" lon="-8.0053390">
        <ele>111.5</ele>
        <time>2019-08-17T15:54:34Z</time>
      </trkpt>
      <trkpt lat="42.3514870" lon="-8.0053520">
        <ele>111.6</ele>
        <time>2019-08-17T15:54:35Z</time>
      </trkpt>
      <trkpt lat="42.3515250" lon="-8.0053620">
        <ele>111.8</ele>
        <time>2019-08-17T15:54:36Z</time>
      </trkpt>
      <trkpt lat="42.3515640" lon="-8.0053710">
        <ele>111.9</ele>
        <time>2019-08-17T15:54:37Z</time>
      </trkpt>
      <trkpt lat="42.3516030" lon="-8.0053790">
        <ele>111.9</ele>
        <time>2019-08-17T15:54:38Z</time>
      </trkpt>
      <trkpt lat="42.3516420" lon="-8.0053850">
        <ele>111.9</ele>
        <time>2019-08-17T15:54:39Z</time>
      </trkpt>
      <trkpt lat="42.3516810" lon="-8.0053900">
        <ele>111.9</ele>
        <time>2019-08-17T15:54:40Z</time>
      </trkpt>
      <trkpt lat="42.3517210" lon="-8.0053940">
        <ele>111.9</ele>
        <time>2019-08-17T15:54:41Z</time>
      </trkpt>
      <trkpt lat="42.3517600" lon="-8.0053980">
        <ele>111.9</ele>
        <time>2019-08-17T15:54:42Z</time>
      </trkpt>
      <trkpt lat="42.3517990" lon="-8.0054010">
        <ele>112.0</ele>
        <time>2019-08-17T15:54:43Z</time>
      </trkpt>
      <trkpt lat="42.3518380" lon="-8.0054050">
        <ele>112.0</ele>
        <time>2019-08-17T15:54:44Z</time>
      </trkpt>
      <trkpt lat="42.3518770" lon="-8.0054080">
        <ele>112.0</ele>
        <time>2019-08-17T15:54:45Z</time>
      </trkpt>
      <trkpt lat="42.3519160" lon="-8.0054110">
        <ele>112.1</ele>
        <time>2019-08-17T15:54:46Z</time>
      </trkpt>
      <trkpt lat="42.3519550" lon="-8.0054140">
        <ele>112.1</ele>
        <time>2019-08-17T15:54:47Z</time>
      </trkpt>
      <trkpt lat="42.3519930" lon="-8.0054160">
        <ele>112.2</ele>
        <time>2019-08-17T15:54:48Z</time>
      </trkpt>
      <trkpt lat="42.3520320" lon="-8.0054180">
        <ele>112.2</ele>
        <time>2019-08-17T15:54:49Z</time>
      </trkpt>
      <trkpt lat="42.3520710" lon="-8.0054200">
        <ele>112.2</ele>
        <time>2019-08-17T15:54:50Z</time>
      </trkpt>
      <trkpt lat="42.3521100" lon="-8.0054210">
        <ele>112.3</ele>
        <time>2019-08-17T15:54:51Z</time>
      </trkpt>
      <trkpt lat="42.3521500" lon="-8.0054210">
        <ele>112.3</ele>
        <time>2019-08-17T15:54:52Z</time>
      </trkpt>
      <trkpt lat="42.3521890" lon="-8.0054210">
        <ele>112.3</ele>
        <time>2019-08-17T15:54:53Z</time>
      </trkpt>
      <trkpt lat="42.3522290" lon="-8.0054210">
        <ele>112.4</ele>
        <time>2019-08-17T15:54:54Z</time>
      </trkpt>
      <trkpt lat="42.3522680" lon="-8.0054200">
        <ele>112.4</ele>
        <time>2019-08-17T15:54:55Z</time>
      </trkpt>
      <trkpt lat="42.3523080" lon="-8.0054200">
        <ele>112.5</ele>
        <time>2019-08-17T15:54:56Z</time>
      </trkpt>
      <trkpt lat="42.3523470" lon="-8.0054200">
        <ele>112.5</ele>
        <time>2019-08-17T15:54:57Z</time>
      </trkpt>
      <trkpt lat="42.3523870" lon="-8.0054210">
        <ele>112.6</ele>
        <time>2019-08-17T15:54:58Z</time>
      </trkpt>
      <trkpt lat="42.3524270" lon="-8.0054210">
        <ele>112.6</ele>
        <time>2019-08-17T15:54:59Z</time>
      </trkpt>
      <trkpt lat="42.3524660" lon="-8.0054200">
        <ele>112.7</ele>
        <time>2019-08-17T15:55:00Z</time>
      </trkpt>
      <trkpt lat="42.3525060" lon="-8.0054170">
        <ele>112.8</ele>
        <time>2019-08-17T15:55:01Z</time>
      </trkpt>
      <trkpt lat="42.3525450" lon="-8.0054120">
        <ele>112.8</ele>
        <time>2019-08-17T15:55:02Z</time>
      </trkpt>
      <trkpt lat="42.3525850" lon="-8.0054060">
        <ele>112.9</ele>
        <time>2019-08-17T15:55:03Z</time>
      </trkpt>
      <trkpt lat="42.3526240" lon="-8.0054010">
        <ele>113.0</ele>
        <time>2019-08-17T15:55:04Z</time>
      </trkpt>
      <trkpt lat="42.3526620" lon="-8.0053970">
        <ele>113.1</ele>
        <time>2019-08-17T15:55:05Z</time>
      </trkpt>
      <trkpt lat="42.3527010" lon="-8.0053940">
        <ele>113.2</ele>
        <time>2019-08-17T15:55:06Z</time>
      </trkpt>
      <trkpt lat="42.3527380" lon="-8.0053930">
        <ele>113.3</ele>
        <time>2019-08-17T15:55:07Z</time>
      </trkpt>
      <trkpt lat="42.3527760" lon="-8.0053920">
        <ele>113.5</ele>
        <time>2019-08-17T15:55:08Z</time>
      </trkpt>
      <trkpt lat="42.3528140" lon="-8.0053920">
        <ele>113.6</ele>
        <time>2019-08-17T15:55:09Z</time>
      </trkpt>
      <trkpt lat="42.3528520" lon="-8.0053920">
        <ele>113.7</ele>
        <time>2019-08-17T15:55:10Z</time>
      </trkpt>
      <trkpt lat="42.3528890" lon="-8.0053920">
        <ele>113.8</ele>
        <time>2019-08-17T15:55:11Z</time>
      </trkpt>
      <trkpt lat="42.3529270" lon="-8.0053910">
        <ele>113.9</ele>
        <time>2019-08-17T15:55:12Z</time>
      </trkpt>
      <trkpt lat="42.3529660" lon="-8.0053900">
        <ele>114.0</ele>
        <time>2019-08-17T15:55:13Z</time>
      </trkpt>
      <trkpt lat="42.3530040" lon="-8.0053880">
        <ele>114.1</ele>
        <time>2019-08-17T15:55:14Z</time>
      </trkpt>
      <trkpt lat="42.3530430" lon="-8.0053860">
        <ele>114.2</ele>
        <time>2019-08-17T15:55:15Z</time>
      </trkpt>
      <trkpt lat="42.3530820" lon="-8.0053830">
        <ele>114.2</ele>
        <time>2019-08-17T15:55:16Z</time>
      </trkpt>
      <trkpt lat="42.3531220" lon="-8.0053800">
        <ele>114.2</ele>
        <time>2019-08-17T15:55:17Z</time>
      </trkpt>
      <trkpt lat="42.3531610" lon="-8.0053780">
        <ele>114.2</ele>
        <time>2019-08-17T15:55:18Z</time>
      </trkpt>
      <trkpt lat="42.3532010" lon="-8.0053770">
        <ele>114.2</ele>
        <time>2019-08-17T15:55:19Z</time>
      </trkpt>
      <trkpt lat="42.3532410" lon="-8.0053760">
        <ele>114.1</ele>
        <time>2019-08-17T15:55:20Z</time>
      </trkpt>
      <trkpt lat="42.3532800" lon="-8.0053750">
        <ele>114.0</ele>
        <time>2019-08-17T15:55:21Z</time>
      </trkpt>
      <trkpt lat="42.3533210" lon="-8.0053750">
        <ele>113.8</ele>
        <time>2019-08-17T15:55:22Z</time>
      </trkpt>
      <trkpt lat="42.3533610" lon="-8.0053750">
        <ele>113.7</ele>
        <time>2019-08-17T15:55:23Z</time>
      </trkpt>
      <trkpt lat="42.3534020" lon="-8.0053750">
        <ele>113.5</ele>
        <time>2019-08-17T15:55:24Z</time>
      </trkpt>
      <trkpt lat="42.3534420" lon="-8.0053740">
        <ele>113.2</ele>
        <time>2019-08-17T15:55:25Z</time>
      </trkpt>
      <trkpt lat="42.3535040" lon="-8.0053730">
        <ele>112.9</ele>
        <time>2019-08-17T15:55:26Z</time>
      </trkpt>
      <trkpt lat="42.3535250" lon="-8.0053720">
        <ele>112.7</ele>
        <time>2019-08-17T15:55:27Z</time>
      </trkpt>
      <trkpt lat="42.3535660" lon="-8.0053690">
        <ele>112.6</ele>
        <time>2019-08-17T15:55:28Z</time>
      </trkpt>
      <trkpt lat="42.3536080" lon="-8.0053670">
        <ele>112.5</ele>
        <time>2019-08-17T15:55:29Z</time>
      </trkpt>
      <trkpt lat="42.3536500" lon="-8.0053640">
        <ele>112.4</ele>
        <time>2019-08-17T15:55:30Z</time>
      </trkpt>
      <trkpt lat="42.3536910" lon="-8.0053610">
        <ele>112.4</ele>
        <time>2019-08-17T15:55:31Z</time>
      </trkpt>
      <trkpt lat="42.3537330" lon="-8.0053580">
        <ele>112.3</ele>
        <time>2019-08-17T15:55:32Z</time>
      </trkpt>
      <trkpt lat="42.3537740" lon="-8.0053550">
        <ele>112.2</ele>
        <time>2019-08-17T15:55:33Z</time>
      </trkpt>
      <trkpt lat="42.3538160" lon="-8.0053520">
        <ele>112.1</ele>
        <time>2019-08-17T15:55:34Z</time>
      </trkpt>
      <trkpt lat="42.3538560" lon="-8.0053500">
        <ele>112.0</ele>
        <time>2019-08-17T15:55:35Z</time>
      </trkpt>
      <trkpt lat="42.3538970" lon="-8.0053480">
        <ele>111.9</ele>
        <time>2019-08-17T15:55:36Z</time>
      </trkpt>
      <trkpt lat="42.3539380" lon="-8.0053470">
        <ele>111.8</ele>
        <time>2019-08-17T15:55:37Z</time>
      </trkpt>
      <trkpt lat="42.3539780" lon="-8.0053450">
        <ele>111.7</ele>
        <time>2019-08-17T15:55:38Z</time>
      </trkpt>
      <trkpt lat="42.3540190" lon="-8.0053440">
        <ele>111.6</ele>
        <time>2019-08-17T15:55:39Z</time>
      </trkpt>
      <trkpt lat="42.3540600" lon="-8.0053420">
        <ele>111.5</ele>
        <time>2019-08-17T15:55:40Z</time>
      </trkpt>
      <trkpt lat="42.3541000" lon="-8.0053410">
        <ele>111.4</ele>
        <time>2019-08-17T15:55:41Z</time>
      </trkpt>
      <trkpt lat="42.3541410" lon="-8.0053400">
        <ele>111.3</ele>
        <time>2019-08-17T15:55:42Z</time>
      </trkpt>
      <trkpt lat="42.3541820" lon="-8.0053380">
        <ele>111.1</ele>
        <time>2019-08-17T15:55:43Z</time>
      </trkpt>
      <trkpt lat="42.3542230" lon="-8.0053370">
        <ele>111.0</ele>
        <time>2019-08-17T15:55:44Z</time>
      </trkpt>
      <trkpt lat="42.3542630" lon="-8.0053360">
        <ele>110.9</ele>
        <time>2019-08-17T15:55:45Z</time>
      </trkpt>
      <trkpt lat="42.3543030" lon="-8.0053340">
        <ele>110.7</ele>
        <time>2019-08-17T15:55:46Z</time>
      </trkpt>
      <trkpt lat="42.3543430" lon="-8.0053330">
        <ele>110.6</ele>
        <time>2019-08-17T15:55:47Z</time>
      </trkpt>
      <trkpt lat="42.3543830" lon="-8.0053320">
        <ele>110.4</ele>
        <time>2019-08-17T15:55:48Z</time>
      </trkpt>
      <trkpt lat="42.3544210" lon="-8.0053310">
        <ele>110.2</ele>
        <time>2019-08-17T15:55:49Z</time>
      </trkpt>
      <trkpt lat="42.3544600" lon="-8.0053310">
        <ele>110.0</ele>
        <time>2019-08-17T15:55:50Z</time>
      </trkpt>
      <trkpt lat="42.3544980" lon="-8.0053300">
        <ele>109.9</ele>
        <time>2019-08-17T15:55:51Z</time>
      </trkpt>
      <trkpt lat="42.3545360" lon="-8.0053280">
        <ele>109.7</ele>
        <time>2019-08-17T15:55:52Z</time>
      </trkpt>
      <trkpt lat="42.3545750" lon="-8.0053270">
        <ele>109.4</ele>
        <time>2019-08-17T15:55:53Z</time>
      </trkpt>
      <trkpt lat="42.3546410" lon="-8.0053230">
        <ele>109.1</ele>
        <time>2019-08-17T15:55:54Z</time>
      </trkpt>
      <trkpt lat="42.3546670" lon="-8.0053210">
        <ele>108.9</ele>
        <time>2019-08-17T15:55:55Z</time>
      </trkpt>
      <trkpt lat="42.3546940" lon="-8.0053190">
        <ele>108.8</ele>
        <time>2019-08-17T15:55:56Z</time>
      </trkpt>
      <trkpt lat="42.3547360" lon="-8.0053150">
        <ele>108.6</ele>
        <time>2019-08-17T15:55:57Z</time>
      </trkpt>
      <trkpt lat="42.3547790" lon="-8.0053100">
        <ele>108.3</ele>
        <time>2019-08-17T15:55:58Z</time>
      </trkpt>
      <trkpt lat="42.3548510" lon="-8.0053010">
        <ele>108.0</ele>
        <time>2019-08-17T15:55:59Z</time>
      </trkpt>
      <trkpt lat="42.3548790" lon="-8.0052980">
        <ele>107.9</ele>
        <time>2019-08-17T15:56:00Z</time>
      </trkpt>
      <trkpt lat="42.3549080" lon="-8.0052940">
        <ele>107.7</ele>
        <time>2019-08-17T15:56:01Z</time>
      </trkpt>
      <trkpt lat="42.3549500" lon="-8.0052890">
        <ele>107.6</ele>
        <time>2019-08-17T15:56:02Z</time>
      </trkpt>
      <trkpt lat="42.3549920" lon="-8.0052840">
        <ele>107.4</ele>
        <time>2019-08-17T15:56:03Z</time>
      </trkpt>
      <trkpt lat="42.3550330" lon="-8.0052800">
        <ele>107.3</ele>
        <time>2019-08-17T15:56:04Z</time>
      </trkpt>
      <trkpt lat="42.3550730" lon="-8.0052760">
        <ele>107.2</ele>
        <time>2019-08-17T15:56:05Z</time>
      </trkpt>
      <trkpt lat="42.3551130" lon="-8.0052720">
        <ele>107.0</ele>
        <time>2019-08-17T15:56:06Z</time>
      </trkpt>
      <trkpt lat="42.3551540" lon="-8.0052690">
        <ele>106.9</ele>
        <time>2019-08-17T15:56:07Z</time>
      </trkpt>
      <trkpt lat="42.3551960" lon="-8.0052660">
        <ele>106.8</ele>
        <time>2019-08-17T15:56:08Z</time>
      </trkpt>
      <trkpt lat="42.3552640" lon="-8.0052610">
        <ele>106.6</ele>
        <time>2019-08-17T15:56:09Z</time>
      </trkpt>
      <trkpt lat="42.3552870" lon="-8.0052590">
        <ele>106.5</ele>
        <time>2019-08-17T15:56:10Z</time>
      </trkpt>
      <trkpt lat="42.3553360" lon="-8.0052560">
        <ele>106.4</ele>
        <time>2019-08-17T15:56:11Z</time>
      </trkpt>
      <trkpt lat="42.3553890" lon="-8.0052520">
        <ele>106.3</ele>
        <time>2019-08-17T15:56:12Z</time>
      </trkpt>
      <trkpt lat="42.3554440" lon="-8.0052490">
        <ele>106.1</ele>
        <time>2019-08-17T15:56:13Z</time>
      </trkpt>
      <trkpt lat="42.3555000" lon="-8.0052460">
        <ele>106.0</ele>
        <time>2019-08-17T15:56:14Z</time>
      </trkpt>
      <trkpt lat="42.3555540" lon="-8.0052430">
        <ele>105.8</ele>
        <time>2019-08-17T15:56:15Z</time>
      </trkpt>
      <trkpt lat="42.3556070" lon="-8.0052410">
        <ele>105.7</ele>
        <time>2019-08-17T15:56:16Z</time>
      </trkpt>
      <trkpt lat="42.3556580" lon="-8.0052390">
        <ele>105.6</ele>
        <time>2019-08-17T15:56:17Z</time>
      </trkpt>
      <trkpt lat="42.3557080" lon="-8.0052380">
        <ele>105.5</ele>
        <time>2019-08-17T15:56:18Z</time>
      </trkpt>
      <trkpt lat="42.3557900" lon="-8.0052350">
        <ele>106.0</ele>
        <time>2019-08-17T15:56:19Z</time>
      </trkpt>
      <trkpt lat="42.3558240" lon="-8.0052340">
        <ele>106.3</ele>
        <time>2019-08-17T15:56:20Z</time>
      </trkpt>
      <trkpt lat="42.3558570" lon="-8.0052330">
        <ele>106.5</ele>
        <time>2019-08-17T15:56:21Z</time>
      </trkpt>
      <trkpt lat="42.3559090" lon="-8.0052320">
        <ele>106.9</ele>
        <time>2019-08-17T15:56:22Z</time>
      </trkpt>
      <trkpt lat="42.3559880" lon="-8.0052300">
        <ele>107.4</ele>
        <time>2019-08-17T15:56:23Z</time>
      </trkpt>
      <trkpt lat="42.3560140" lon="-8.0052290">
        <ele>107.5</ele>
        <time>2019-08-17T15:56:24Z</time>
      </trkpt>
      <trkpt lat="42.3560670" lon="-8.0052280">
        <ele>107.9</ele>
        <time>2019-08-17T15:56:25Z</time>
      </trkpt>
      <trkpt lat="42.3561190" lon="-8.0052280">
        <ele>108.1</ele>
        <time>2019-08-17T15:56:26Z</time>
      </trkpt>
      <trkpt lat="42.3561710" lon="-8.0052270">
        <ele>108.4</ele>
        <time>2019-08-17T15:56:27Z</time>
      </trkpt>
      <trkpt lat="42.3562230" lon="-8.0052270">
        <ele>108.7</ele>
        <time>2019-08-17T15:56:28Z</time>
      </trkpt>
      <trkpt lat="42.3562740" lon="-8.0052270">
        <ele>109.0</ele>
        <time>2019-08-17T15:56:29Z</time>
      </trkpt>
      <trkpt lat="42.3563260" lon="-8.0052280">
        <ele>109.3</ele>
        <time>2019-08-17T15:56:30Z</time>
      </trkpt>
      <trkpt lat="42.3563790" lon="-8.0052290">
        <ele>109.6</ele>
        <time>2019-08-17T15:56:31Z</time>
      </trkpt>
      <trkpt lat="42.3564320" lon="-8.0052300">
        <ele>109.9</ele>
        <time>2019-08-17T15:56:32Z</time>
      </trkpt>
      <trkpt lat="42.3564860" lon="-8.0052310">
        <ele>110.2</ele>
        <time>2019-08-17T15:56:33Z</time>
      </trkpt>
      <trkpt lat="42.3565410" lon="-8.0052330">
        <ele>110.6</ele>
        <time>2019-08-17T15:56:34Z</time>
      </trkpt>
      <trkpt lat="42.3565960" lon="-8.0052340">
        <ele>110.9</ele>
        <time>2019-08-17T15:56:35Z</time>
      </trkpt>
      <trkpt lat="42.3566520" lon="-8.0052370">
        <ele>111.3</ele>
        <time>2019-08-17T15:56:36Z</time>
      </trkpt>
      <trkpt lat="42.3567090" lon="-8.0052400">
        <ele>111.6</ele>
        <time>2019-08-17T15:56:37Z</time>
      </trkpt>
      <trkpt lat="42.3567660" lon="-8.0052440">
        <ele>112.0</ele>
        <time>2019-08-17T15:56:38Z</time>
      </trkpt>
      <trkpt lat="42.3568240" lon="-8.0052490">
        <ele>112.4</ele>
        <time>2019-08-17T15:56:39Z</time>
      </trkpt>
      <trkpt lat="42.3568830" lon="-8.0052550">
        <ele>112.7</ele>
        <time>2019-08-17T15:56:40Z</time>
      </trkpt>
      <trkpt lat="42.3569410" lon="-8.0052630">
        <ele>113.0</ele>
        <time>2019-08-17T15:56:41Z</time>
      </trkpt>
      <trkpt lat="42.3570000" lon="-8.0052710">
        <ele>113.4</ele>
        <time>2019-08-17T15:56:42Z</time>
      </trkpt>
      <trkpt lat="42.3570600" lon="-8.0052790">
        <ele>113.7</ele>
        <time>2019-08-17T15:56:43Z</time>
      </trkpt>
      <trkpt lat="42.3571200" lon="-8.0052870">
        <ele>114.0</ele>
        <time>2019-08-17T15:56:44Z</time>
      </trkpt>
      <trkpt lat="42.3571800" lon="-8.0052950">
        <ele>114.3</ele>
        <time>2019-08-17T15:56:45Z</time>
      </trkpt>
      <trkpt lat="42.3572410" lon="-8.0053020">
        <ele>114.6</ele>
        <time>2019-08-17T15:56:46Z</time>
      </trkpt>
      <trkpt lat="42.3573020" lon="-8.0053080">
        <ele>114.9</ele>
        <time>2019-08-17T15:56:47Z</time>
      </trkpt>
      <trkpt lat="42.3573640" lon="-8.0053130">
        <ele>115.2</ele>
        <time>2019-08-17T15:56:48Z</time>
      </trkpt>
      <trkpt lat="42.3574260" lon="-8.0053150">
        <ele>115.5</ele>
        <time>2019-08-17T15:56:49Z</time>
      </trkpt>
      <trkpt lat="42.3574890" lon="-8.0053150">
        <ele>115.9</ele>
        <time>2019-08-17T15:56:50Z</time>
      </trkpt>
      <trkpt lat="42.3575520" lon="-8.0053130">
        <ele>116.2</ele>
        <time>2019-08-17T15:56:51Z</time>
      </trkpt>
      <trkpt lat="42.3576160" lon="-8.0053070">
        <ele>116.5</ele>
        <time>2019-08-17T15:56:52Z</time>
      </trkpt>
      <trkpt lat="42.3576800" lon="-8.0052990">
        <ele>116.8</ele>
        <time>2019-08-17T15:56:53Z</time>
      </trkpt>
      <trkpt lat="42.3577420" lon="-8.0052860">
        <ele>117.2</ele>
        <time>2019-08-17T15:56:54Z</time>
      </trkpt>
      <trkpt lat="42.3578330" lon="-8.0052600">
        <ele>117.7</ele>
        <time>2019-08-17T15:56:55Z</time>
      </trkpt>
      <trkpt lat="42.3578620" lon="-8.0052490">
        <ele>117.8</ele>
        <time>2019-08-17T15:56:56Z</time>
      </trkpt>
      <trkpt lat="42.3579210" lon="-8.0052270">
        <ele>118.2</ele>
        <time>2019-08-17T15:56:57Z</time>
      </trkpt>
      <trkpt lat="42.3579780" lon="-8.0052020">
        <ele>118.5</ele>
        <time>2019-08-17T15:56:58Z</time>
      </trkpt>
      <trkpt lat="42.3580330" lon="-8.0051740">
        <ele>118.9</ele>
        <time>2019-08-17T15:56:59Z</time>
      </trkpt>
      <trkpt lat="42.3580880" lon="-8.0051440">
        <ele>119.2</ele>
        <time>2019-08-17T15:57:00Z</time>
      </trkpt>
      <trkpt lat="42.3581420" lon="-8.0051130">
        <ele>119.6</ele>
        <time>2019-08-17T15:57:01Z</time>
      </trkpt>
      <trkpt lat="42.3581950" lon="-8.0050800">
        <ele>119.9</ele>
        <time>2019-08-17T15:57:02Z</time>
      </trkpt>
      <trkpt lat="42.3582480" lon="-8.0050460">
        <ele>120.2</ele>
        <time>2019-08-17T15:57:03Z</time>
      </trkpt>
      <trkpt lat="42.3583000" lon="-8.0050120">
        <ele>120.5</ele>
        <time>2019-08-17T15:57:04Z</time>
      </trkpt>
      <trkpt lat="42.3583510" lon="-8.0049760">
        <ele>120.8</ele>
        <time>2019-08-17T15:57:05Z</time>
      </trkpt>
      <trkpt lat="42.3584020" lon="-8.0049400">
        <ele>121.0</ele>
        <time>2019-08-17T15:57:06Z</time>
      </trkpt>
      <trkpt lat="42.3584520" lon="-8.0049040">
        <ele>121.3</ele>
        <time>2019-08-17T15:57:07Z</time>
      </trkpt>
      <trkpt lat="42.3585020" lon="-8.0048680">
        <ele>121.5</ele>
        <time>2019-08-17T15:57:08Z</time>
      </trkpt>
      <trkpt lat="42.3585520" lon="-8.0048320">
        <ele>121.7</ele>
        <time>2019-08-17T15:57:09Z</time>
      </trkpt>
      <trkpt lat="42.3586020" lon="-8.0047970">
        <ele>122.0</ele>
        <time>2019-08-17T15:57:10Z</time>
      </trkpt>
      <trkpt lat="42.3586510" lon="-8.0047630">
        <ele>122.2</ele>
        <time>2019-08-17T15:57:11Z</time>
      </trkpt>
      <trkpt lat="42.3587000" lon="-8.0047290">
        <ele>122.4</ele>
        <time>2019-08-17T15:57:12Z</time>
      </trkpt>
      <trkpt lat="42.3587490" lon="-8.0046960">
        <ele>122.6</ele>
        <time>2019-08-17T15:57:13Z</time>
      </trkpt>
      <trkpt lat="42.3587970" lon="-8.0046640">
        <ele>122.8</ele>
        <time>2019-08-17T15:57:14Z</time>
      </trkpt>
      <trkpt lat="42.3588460" lon="-8.0046320">
        <ele>123.0</ele>
        <time>2019-08-17T15:57:15Z</time>
      </trkpt>
      <trkpt lat="42.3588940" lon="-8.0046010">
        <ele>123.2</ele>
        <time>2019-08-17T15:57:16Z</time>
      </trkpt>
      <trkpt lat="42.3589410" lon="-8.0045700">
        <ele>123.4</ele>
        <time>2019-08-17T15:57:17Z</time>
      </trkpt>
      <trkpt lat="42.3589890" lon="-8.0045400">
        <ele>123.6</ele>
        <time>2019-08-17T15:57:18Z</time>
      </trkpt>
      <trkpt lat="42.3590370" lon="-8.0045100">
        <ele>123.8</ele>
        <time>2019-08-17T15:57:19Z</time>
      </trkpt>
      <trkpt lat="42.3590850" lon="-8.0044810">
        <ele>124.0</ele>
        <time>2019-08-17T15:57:20Z</time>
      </trkpt>
      <trkpt lat="42.3591330" lon="-8.0044520">
        <ele>124.1</ele>
        <time>2019-08-17T15:57:21Z</time>
      </trkpt>
      <trkpt lat="42.3591820" lon="-8.0044230">
        <ele>124.3</ele>
        <time>2019-08-17T15:57:22Z</time>
      </trkpt>
      <trkpt lat="42.3592310" lon="-8.0043950">
        <ele>124.5</ele>
        <time>2019-08-17T15:57:23Z</time>
      </trkpt>
      <trkpt lat="42.3592800" lon="-8.0043660">
        <ele>124.7</ele>
        <time>2019-08-17T15:57:24Z</time>
      </trkpt>
      <trkpt lat="42.3593300" lon="-8.0043370">
        <ele>124.8</ele>
        <time>2019-08-17T15:57:25Z</time>
      </trkpt>
      <trkpt lat="42.3593810" lon="-8.0043090">
        <ele>125.0</ele>
        <time>2019-08-17T15:57:26Z</time>
      </trkpt>
      <trkpt lat="42.3594320" lon="-8.0042800">
        <ele>125.2</ele>
        <time>2019-08-17T15:57:27Z</time>
      </trkpt>
      <trkpt lat="42.3594830" lon="-8.0042500">
        <ele>125.4</ele>
        <time>2019-08-17T15:57:28Z</time>
      </trkpt>
      <trkpt lat="42.3595350" lon="-8.0042210">
        <ele>125.7</ele>
        <time>2019-08-17T15:57:29Z</time>
      </trkpt>
      <trkpt lat="42.3595860" lon="-8.0041910">
        <ele>125.9</ele>
        <time>2019-08-17T15:57:30Z</time>
      </trkpt>
      <trkpt lat="42.3596380" lon="-8.0041610">
        <ele>126.2</ele>
        <time>2019-08-17T15:57:31Z</time>
      </trkpt>
      <trkpt lat="42.3596900" lon="-8.0041300">
        <ele>126.5</ele>
        <time>2019-08-17T15:57:32Z</time>
      </trkpt>
      <trkpt lat="42.3597790" lon="-8.0040790">
        <ele>127.0</ele>
        <time>2019-08-17T15:57:33Z</time>
      </trkpt>
      <trkpt lat="42.3598140" lon="-8.0040590">
        <ele>127.2</ele>
        <time>2019-08-17T15:57:34Z</time>
      </trkpt>
      <trkpt lat="42.3598500" lon="-8.0040390">
        <ele>127.4</ele>
        <time>2019-08-17T15:57:35Z</time>
      </trkpt>
      <trkpt lat="42.3599050" lon="-8.0040090">
        <ele>127.8</ele>
        <time>2019-08-17T15:57:36Z</time>
      </trkpt>
      <trkpt lat="42.3599610" lon="-8.0039800">
        <ele>128.1</ele>
        <time>2019-08-17T15:57:37Z</time>
      </trkpt>
      <trkpt lat="42.3600560" lon="-8.0039350">
        <ele>128.6</ele>
        <time>2019-08-17T15:57:38Z</time>
      </trkpt>
      <trkpt lat="42.3600950" lon="-8.0039170">
        <ele>128.8</ele>
        <time>2019-08-17T15:57:39Z</time>
      </trkpt>
      <trkpt lat="42.3601330" lon="-8.0039000">
        <ele>128.9</ele>
        <time>2019-08-17T15:57:40Z</time>
      </trkpt>
      <trkpt lat="42.3601900" lon="-8.0038740">
        <ele>129.2</ele>
        <time>2019-08-17T15:57:41Z</time>
      </trkpt>
      <trkpt lat="42.3602450" lon="-8.0038470">
        <ele>129.4</ele>
        <time>2019-08-17T15:57:42Z</time>
      </trkpt>
      <trkpt lat="42.3603000" lon="-8.0038180">
        <ele>129.4</ele>
        <time>2019-08-17T15:57:43Z</time>
      </trkpt>
      <trkpt lat="42.3603540" lon="-8.0037870">
        <ele>129.3</ele>
        <time>2019-08-17T15:57:44Z</time>
      </trkpt>
      <trkpt lat="42.3604090" lon="-8.0037550">
        <ele>129.3</ele>
        <time>2019-08-17T15:57:45Z</time>
      </trkpt>
      <trkpt lat="42.3604640" lon="-8.0037230">
        <ele>129.3</ele>
        <time>2019-08-17T15:57:46Z</time>
      </trkpt>
      <trkpt lat="42.3605200" lon="-8.0036910">
        <ele>129.2</ele>
        <time>2019-08-17T15:57:47Z</time>
      </trkpt>
      <trkpt lat="42.3605780" lon="-8.0036580">
        <ele>129.2</ele>
        <time>2019-08-17T15:57:48Z</time>
      </trkpt>
      <trkpt lat="42.3606360" lon="-8.0036250">
        <ele>129.2</ele>
        <time>2019-08-17T15:57:49Z</time>
      </trkpt>
      <trkpt lat="42.3606940" lon="-8.0035900">
        <ele>129.1</ele>
        <time>2019-08-17T15:57:50Z</time>
      </trkpt>
      <trkpt lat="42.3607530" lon="-8.0035550">
        <ele>129.0</ele>
        <time>2019-08-17T15:57:51Z</time>
      </trkpt>
      <trkpt lat="42.3608130" lon="-8.0035190">
        <ele>128.9</ele>
        <time>2019-08-17T15:57:52Z</time>
      </trkpt>
      <trkpt lat="42.3608720" lon="-8.0034810">
        <ele>128.7</ele>
        <time>2019-08-17T15:57:53Z</time>
      </trkpt>
      <trkpt lat="42.3609310" lon="-8.0034430">
        <ele>128.4</ele>
        <time>2019-08-17T15:57:54Z</time>
      </trkpt>
      <trkpt lat="42.3609900" lon="-8.0034030">
        <ele>128.1</ele>
        <time>2019-08-17T15:57:55Z</time>
      </trkpt>
      <trkpt lat="42.3610490" lon="-8.0033610">
        <ele>127.8</ele>
        <time>2019-08-17T15:57:56Z</time>
      </trkpt>
      <trkpt lat="42.3611070" lon="-8.0033180">
        <ele>127.6</ele>
        <time>2019-08-17T15:57:57Z</time>
      </trkpt>
      <trkpt lat="42.3611640" lon="-8.0032730">
        <ele>127.4</ele>
        <time>2019-08-17T15:57:58Z</time>
      </trkpt>
      <trkpt lat="42.3612210" lon="-8.0032260">
        <ele>127.3</ele>
        <time>2019-08-17T15:57:59Z</time>
      </trkpt>
      <trkpt lat="42.3612760" lon="-8.0031770">
        <ele>127.2</ele>
        <time>2019-08-17T15:58:00Z</time>
      </trkpt>
      <trkpt lat="42.3613310" lon="-8.0031260">
        <ele>127.2</ele>
        <time>2019-08-17T15:58:01Z</time>
      </trkpt>
      <trkpt lat="42.3613840" lon="-8.0030720">
        <ele>127.1</ele>
        <time>2019-08-17T15:58:02Z</time>
      </trkpt>
      <trkpt lat="42.3614360" lon="-8.0030180">
        <ele>126.9</ele>
        <time>2019-08-17T15:58:03Z</time>
      </trkpt>
      <trkpt lat="42.3614870" lon="-8.0029610">
        <ele>126.8</ele>
        <time>2019-08-17T15:58:04Z</time>
      </trkpt>
      <trkpt lat="42.3615370" lon="-8.0029040">
        <ele>126.5</ele>
        <time>2019-08-17T15:58:05Z</time>
      </trkpt>
      <trkpt lat="42.3615860" lon="-8.0028450">
        <ele>126.2</ele>
        <time>2019-08-17T15:58:06Z</time>
      </trkpt>
      <trkpt lat="42.3616340" lon="-8.0027860">
        <ele>125.9</ele>
        <time>2019-08-17T15:58:07Z</time>
      </trkpt>
      <trkpt lat="42.3616810" lon="-8.0027260">
        <ele>125.7</ele>
        <time>2019-08-17T15:58:08Z</time>
      </trkpt>
      <trkpt lat="42.3617270" lon="-8.0026660">
        <ele>125.4</ele>
        <time>2019-08-17T15:58:09Z</time>
      </trkpt>
      <trkpt lat="42.3617720" lon="-8.0026060">
        <ele>125.2</ele>
        <time>2019-08-17T15:58:10Z</time>
      </trkpt>
      <trkpt lat="42.3618160" lon="-8.0025460">
        <ele>125.0</ele>
        <time>2019-08-17T15:58:11Z</time>
      </trkpt>
      <trkpt lat="42.3618600" lon="-8.0024870">
        <ele>124.7</ele>
        <time>2019-08-17T15:58:12Z</time>
      </trkpt>
      <trkpt lat="42.3619030" lon="-8.0024280">
        <ele>124.4</ele>
        <time>2019-08-17T15:58:13Z</time>
      </trkpt>
      <trkpt lat="42.3619450" lon="-8.0023710">
        <ele>124.1</ele>
        <time>2019-08-17T15:58:14Z</time>
      </trkpt>
      <trkpt lat="42.3619870" lon="-8.0023140">
        <ele>123.9</ele>
        <time>2019-08-17T15:58:15Z</time>
      </trkpt>
      <trkpt lat="42.3620280" lon="-8.0022600">
        <ele>123.7</ele>
        <time>2019-08-17T15:58:16Z</time>
      </trkpt>
      <trkpt lat="42.3620690" lon="-8.0022060">
        <ele>123.6</ele>
        <time>2019-08-17T15:58:17Z</time>
      </trkpt>
      <trkpt lat="42.3621110" lon="-8.0021550">
        <ele>123.5</ele>
        <time>2019-08-17T15:58:18Z</time>
      </trkpt>
      <trkpt lat="42.3621520" lon="-8.0021060">
        <ele>123.4</ele>
        <time>2019-08-17T15:58:19Z</time>
      </trkpt>
      <trkpt lat="42.3621950" lon="-8.0020600">
        <ele>123.4</ele>
        <time>2019-08-17T15:58:20Z</time>
      </trkpt>
      <trkpt lat="42.3622380" lon="-8.0020150">
        <ele>123.3</ele>
        <time>2019-08-17T15:58:21Z</time>
      </trkpt>
      <trkpt lat="42.3622830" lon="-8.0019740">
        <ele>123.3</ele>
        <time>2019-08-17T15:58:22Z</time>
      </trkpt>
      <trkpt lat="42.3623290" lon="-8.0019350">
        <ele>123.2</ele>
        <time>2019-08-17T15:58:23Z</time>
      </trkpt>
      <trkpt lat="42.3623760" lon="-8.0018990">
        <ele>123.2</ele>
        <time>2019-08-17T15:58:24Z</time>
      </trkpt>
      <trkpt lat="42.3624250" lon="-8.0018660">
        <ele>123.1</ele>
        <time>2019-08-17T15:58:25Z</time>
      </trkpt>
      <trkpt lat="42.3624760" lon="-8.0018370">
        <ele>123.1</ele>
        <time>2019-08-17T15:58:26Z</time>
      </trkpt>
      <trkpt lat="42.3625280" lon="-8.0018120">
        <ele>123.1</ele>
        <time>2019-08-17T15:58:27Z</time>
      </trkpt>
      <trkpt lat="42.3625820" lon="-8.0017900">
        <ele>123.1</ele>
        <time>2019-08-17T15:58:28Z</time>
      </trkpt>
      <trkpt lat="42.3626370" lon="-8.0017710">
        <ele>123.0</ele>
        <time>2019-08-17T15:58:29Z</time>
      </trkpt>
      <trkpt lat="42.3626950" lon="-8.0017570">
        <ele>123.0</ele>
        <time>2019-08-17T15:58:30Z</time>
      </trkpt>
      <trkpt lat="42.3627530" lon="-8.0017470">
        <ele>123.0</ele>
        <time>2019-08-17T15:58:31Z</time>
      </trkpt>
      <trkpt lat="42.3628120" lon="-8.0017390">
        <ele>123.0</ele>
        <time>2019-08-17T15:58:32Z</time>
      </trkpt>
      <trkpt lat="42.3628730" lon="-8.0017350">
        <ele>123.0</ele>
        <time>2019-08-17T15:58:33Z</time>
      </trkpt>
      <trkpt lat="42.3629330" lon="-8.0017320">
        <ele>123.0</ele>
        <time>2019-08-17T15:58:34Z</time>
      </trkpt>
      <trkpt lat="42.3629930" lon="-8.0017310">
        <ele>123.0</ele>
        <time>2019-08-17T15:58:35Z</time>
      </trkpt>
      <trkpt lat="42.3630540" lon="-8.0017320">
        <ele>123.0</ele>
        <time>2019-08-17T15:58:36Z</time>
      </trkpt>
      <trkpt lat="42.3631130" lon="-8.0017330">
        <ele>122.9</ele>
        <time>2019-08-17T15:58:37Z</time>
      </trkpt>
      <trkpt lat="42.3631720" lon="-8.0017350">
        <ele>122.9</ele>
        <time>2019-08-17T15:58:38Z</time>
      </trkpt>
      <trkpt lat="42.3632300" lon="-8.0017370">
        <ele>122.8</ele>
        <time>2019-08-17T15:58:39Z</time>
      </trkpt>
      <trkpt lat="42.3632870" lon="-8.0017390">
        <ele>122.8</ele>
        <time>2019-08-17T15:58:40Z</time>
      </trkpt>
      <trkpt lat="42.3633440" lon="-8.0017420">
        <ele>122.7</ele>
        <time>2019-08-17T15:58:41Z</time>
      </trkpt>
      <trkpt lat="42.3634000" lon="-8.0017440">
        <ele>122.6</ele>
        <time>2019-08-17T15:58:42Z</time>
      </trkpt>
      <trkpt lat="42.3634570" lon="-8.0017470">
        <ele>122.5</ele>
        <time>2019-08-17T15:58:43Z</time>
      </trkpt>
      <trkpt lat="42.3635130" lon="-8.0017500">
        <ele>122.5</ele>
        <time>2019-08-17T15:58:44Z</time>
      </trkpt>
      <trkpt lat="42.3635700" lon="-8.0017530">
        <ele>122.4</ele>
        <time>2019-08-17T15:58:45Z</time>
      </trkpt>
      <trkpt lat="42.3636270" lon="-8.0017550">
        <ele>122.3</ele>
        <time>2019-08-17T15:58:46Z</time>
      </trkpt>
      <trkpt lat="42.3636840" lon="-8.0017580">
        <ele>122.2</ele>
        <time>2019-08-17T15:58:47Z</time>
      </trkpt>
      <trkpt lat="42.3637410" lon="-8.0017610">
        <ele>122.2</ele>
        <time>2019-08-17T15:58:48Z</time>
      </trkpt>
      <trkpt lat="42.3637980" lon="-8.0017640">
        <ele>122.1</ele>
        <time>2019-08-17T15:58:49Z</time>
      </trkpt>
      <trkpt lat="42.3638560" lon="-8.0017680">
        <ele>122.1</ele>
        <time>2019-08-17T15:58:50Z</time>
      </trkpt>
      <trkpt lat="42.3639140" lon="-8.0017710">
        <ele>122.1</ele>
        <time>2019-08-17T15:58:51Z</time>
      </trkpt>
      <trkpt lat="42.3639720" lon="-8.0017740">
        <ele>122.1</ele>
        <time>2019-08-17T15:58:52Z</time>
      </trkpt>
      <trkpt lat="42.3640300" lon="-8.0017780">
        <ele>122.1</ele>
        <time>2019-08-17T15:58:53Z</time>
      </trkpt>
      <trkpt lat="42.3640890" lon="-8.0017820">
        <ele>122.1</ele>
        <time>2019-08-17T15:58:54Z</time>
      </trkpt>
      <trkpt lat="42.3641480" lon="-8.0017860">
        <ele>122.1</ele>
        <time>2019-08-17T15:58:55Z</time>
      </trkpt>
      <trkpt lat="42.3642070" lon="-8.0017900">
        <ele>122.2</ele>
        <time>2019-08-17T15:58:56Z</time>
      </trkpt>
      <trkpt lat="42.3642670" lon="-8.0017930">
        <ele>122.2</ele>
        <time>2019-08-17T15:58:57Z</time>
      </trkpt>
      <trkpt lat="42.3643270" lon="-8.0017970">
        <ele>122.2</ele>
        <time>2019-08-17T15:58:58Z</time>
      </trkpt>
      <trkpt lat="42.3643880" lon="-8.0018010">
        <ele>123.0</ele>
        <time>2019-08-17T15:58:59Z</time>
      </trkpt>
      <trkpt lat="42.3644490" lon="-8.0018040">
        <ele>123.6</ele>
        <time>2019-08-17T15:59:00Z</time>
      </trkpt>
      <trkpt lat="42.3645100" lon="-8.0018070">
        <ele>124.2</ele>
        <time>2019-08-17T15:59:01Z</time>
      </trkpt>
      <trkpt lat="42.3645710" lon="-8.0018090">
        <ele>124.7</ele>
        <time>2019-08-17T15:59:02Z</time>
      </trkpt>
      <trkpt lat="42.3646320" lon="-8.0018100">
        <ele>125.3</ele>
        <time>2019-08-17T15:59:03Z</time>
      </trkpt>
      <trkpt lat="42.3646930" lon="-8.0018100">
        <ele>125.9</ele>
        <time>2019-08-17T15:59:04Z</time>
      </trkpt>
      <trkpt lat="42.3647530" lon="-8.0018080">
        <ele>126.4</ele>
        <time>2019-08-17T15:59:05Z</time>
      </trkpt>
      <trkpt lat="42.3648120" lon="-8.0018050">
        <ele>126.9</ele>
        <time>2019-08-17T15:59:06Z</time>
      </trkpt>
      <trkpt lat="42.3648990" lon="-8.0017980">
        <ele>127.7</ele>
        <time>2019-08-17T15:59:07Z</time>
      </trkpt>
      <trkpt lat="42.3649270" lon="-8.0017950">
        <ele>127.9</ele>
        <time>2019-08-17T15:59:08Z</time>
      </trkpt>
      <trkpt lat="42.3649830" lon="-8.0017860">
        <ele>128.4</ele>
        <time>2019-08-17T15:59:09Z</time>
      </trkpt>
      <trkpt lat="42.3650380" lon="-8.0017770">
        <ele>128.9</ele>
        <time>2019-08-17T15:59:10Z</time>
      </trkpt>
      <trkpt lat="42.3650910" lon="-8.0017650">
        <ele>129.3</ele>
        <time>2019-08-17T15:59:11Z</time>
      </trkpt>
      <trkpt lat="42.3651440" lon="-8.0017510">
        <ele>129.7</ele>
        <time>2019-08-17T15:59:12Z</time>
      </trkpt>
      <trkpt lat="42.3651940" lon="-8.0017360">
        <ele>130.1</ele>
        <time>2019-08-17T15:59:13Z</time>
      </trkpt>
      <trkpt lat="42.3652430" lon="-8.0017180">
        <ele>130.4</ele>
        <time>2019-08-17T15:59:14Z</time>
      </trkpt>
      <trkpt lat="42.3652900" lon="-8.0016990">
        <ele>130.8</ele>
        <time>2019-08-17T15:59:15Z</time>
      </trkpt>
      <trkpt lat="42.3653360" lon="-8.0016780">
        <ele>131.1</ele>
        <time>2019-08-17T15:59:16Z</time>
      </trkpt>
      <trkpt lat="42.3653800" lon="-8.0016560">
        <ele>131.4</ele>
        <time>2019-08-17T15:59:17Z</time>
      </trkpt>
      <trkpt lat="42.3654210" lon="-8.0016340">
        <ele>131.7</ele>
        <time>2019-08-17T15:59:18Z</time>
      </trkpt>
      <trkpt lat="42.3654610" lon="-8.0016100">
        <ele>131.9</ele>
        <time>2019-08-17T15:59:19Z</time>
      </trkpt>
      <trkpt lat="42.3654990" lon="-8.0015860">
        <ele>132.2</ele>
        <time>2019-08-17T15:59:20Z</time>
      </trkpt>
      <trkpt lat="42.3655340" lon="-8.0015620">
        <ele>132.4</ele>
        <time>2019-08-17T15:59:21Z</time>
      </trkpt>
      <trkpt lat="42.3655680" lon="-8.0015370">
        <ele>132.6</ele>
        <time>2019-08-17T15:59:22Z</time>
      </trkpt>
      <trkpt lat="42.3656000" lon="-8.0015120">
        <ele>132.8</ele>
        <time>2019-08-17T15:59:23Z</time>
      </trkpt>
      <trkpt lat="42.3656310" lon="-8.0014870">
        <ele>133.0</ele>
        <time>2019-08-17T15:59:24Z</time>
      </trkpt>
      <trkpt lat="42.3656620" lon="-8.0014620">
        <ele>133.2</ele>
        <time>2019-08-17T15:59:25Z</time>
      </trkpt>
      <trkpt lat="42.3656920" lon="-8.0014370">
        <ele>133.3</ele>
        <time>2019-08-17T15:59:26Z</time>
      </trkpt>
      <trkpt lat="42.3657220" lon="-8.0014110">
        <ele>133.5</ele>
        <time>2019-08-17T15:59:27Z</time>
      </trkpt>
      <trkpt lat="42.3657530" lon="-8.0013860">
        <ele>133.7</ele>
        <time>2019-08-17T15:59:28Z</time>
      </trkpt>
      <trkpt lat="42.3657840" lon="-8.0013600">
        <ele>133.9</ele>
        <time>2019-08-17T15:59:29Z</time>
      </trkpt>
      <trkpt lat="42.3658160" lon="-8.0013340">
        <ele>134.1</ele>
        <time>2019-08-17T15:59:30Z</time>
      </trkpt>
      <trkpt lat="42.3658480" lon="-8.0013080">
        <ele>134.2</ele>
        <time>2019-08-17T15:59:31Z</time>
      </trkpt>
      <trkpt lat="42.3658800" lon="-8.0012830">
        <ele>134.4</ele>
        <time>2019-08-17T15:59:32Z</time>
      </trkpt>
      <trkpt lat="42.3659120" lon="-8.0012570">
        <ele>134.6</ele>
        <time>2019-08-17T15:59:33Z</time>
      </trkpt>
      <trkpt lat="42.3659430" lon="-8.0012320">
        <ele>134.7</ele>
        <time>2019-08-17T15:59:34Z</time>
      </trkpt>
      <trkpt lat="42.3659750" lon="-8.0012070">
        <ele>134.9</ele>
        <time>2019-08-17T15:59:35Z</time>
      </trkpt>
      <trkpt lat="42.3660060" lon="-8.0011820">
        <ele>135.0</ele>
        <time>2019-08-17T15:59:36Z</time>
      </trkpt>
      <trkpt lat="42.3660360" lon="-8.0011580">
        <ele>135.2</ele>
        <time>2019-08-17T15:59:37Z</time>
      </trkpt>
      <trkpt lat="42.3660670" lon="-8.0011340">
        <ele>135.3</ele>
        <time>2019-08-17T15:59:38Z</time>
      </trkpt>
      <trkpt lat="42.3660980" lon="-8.0011110">
        <ele>135.4</ele>
        <time>2019-08-17T15:59:39Z</time>
      </trkpt>
      <trkpt lat="42.3661290" lon="-8.0010890">
        <ele>135.5</ele>
        <time>2019-08-17T15:59:40Z</time>
      </trkpt>
      <trkpt lat="42.3661610" lon="-8.0010680">
        <ele>135.6</ele>
        <time>2019-08-17T15:59:41Z</time>
      </trkpt>
      <trkpt lat="42.3661930" lon="-8.0010490">
        <ele>135.8</ele>
        <time>2019-08-17T15:59:42Z</time>
      </trkpt>
      <trkpt lat="42.3662250" lon="-8.0010300">
        <ele>135.9</ele>
        <time>2019-08-17T15:59:43Z</time>
      </trkpt>
      <trkpt lat="42.3662590" lon="-8.0010130">
        <ele>136.0</ele>
        <time>2019-08-17T15:59:44Z</time>
      </trkpt>
      <trkpt lat="42.3662930" lon="-8.0009980">
        <ele>136.1</ele>
        <time>2019-08-17T15:59:45Z</time>
      </trkpt>
      <trkpt lat="42.3663270" lon="-8.0009830">
        <ele>136.2</ele>
        <time>2019-08-17T15:59:46Z</time>
      </trkpt>
      <trkpt lat="42.3663610" lon="-8.0009690">
        <ele>136.3</ele>
        <time>2019-08-17T15:59:47Z</time>
      </trkpt>
      <trkpt lat="42.3663960" lon="-8.0009550">
        <ele>136.4</ele>
        <time>2019-08-17T15:59:48Z</time>
      </trkpt>
      <trkpt lat="42.3664300" lon="-8.0009430">
        <ele>136.5</ele>
        <time>2019-08-17T15:59:49Z</time>
      </trkpt>
      <trkpt lat="42.3664870" lon="-8.0009230">
        <ele>136.7</ele>
        <time>2019-08-17T15:59:50Z</time>
      </trkpt>
      <trkpt lat="42.3665100" lon="-8.0009160">
        <ele>136.8</ele>
        <time>2019-08-17T15:59:51Z</time>
      </trkpt>
      <trkpt lat="42.3665330" lon="-8.0009090">
        <ele>136.9</ele>
        <time>2019-08-17T15:59:52Z</time>
      </trkpt>
      <trkpt lat="42.3665680" lon="-8.0008990">
        <ele>137.0</ele>
        <time>2019-08-17T15:59:53Z</time>
      </trkpt>
      <trkpt lat="42.3666040" lon="-8.0008910">
        <ele>137.1</ele>
        <time>2019-08-17T15:59:54Z</time>
      </trkpt>
      <trkpt lat="42.3666400" lon="-8.0008850">
        <ele>137.2</ele>
        <time>2019-08-17T15:59:55Z</time>
      </trkpt>
      <trkpt lat="42.3666780" lon="-8.0008800">
        <ele>137.3</ele>
        <time>2019-08-17T15:59:56Z</time>
      </trkpt>
      <trkpt lat="42.3667160" lon="-8.0008770">
        <ele>137.5</ele>
        <time>2019-08-17T15:59:57Z</time>
      </trkpt>
      <trkpt lat="42.3667560" lon="-8.0008760">
        <ele>137.6</ele>
        <time>2019-08-17T15:59:58Z</time>
      </trkpt>
      <trkpt lat="42.3667960" lon="-8.0008760">
        <ele>137.7</ele>
        <time>2019-08-17T15:59:59Z</time>
      </trkpt>
      <trkpt lat="42.3668370" lon="-8.0008770">
        <ele>137.8</ele>
        <time>2019-08-17T16:00:00Z</time>
      </trkpt>
      <trkpt lat="42.3668790" lon="-8.0008800">
        <ele>137.9</ele>
        <time>2019-08-17T16:00:01Z</time>
      </trkpt>
      <trkpt lat="42.3669210" lon="-8.0008830">
        <ele>138.1</ele>
        <time>2019-08-17T16:00:02Z</time>
      </trkpt>
      <trkpt lat="42.3669620" lon="-8.0008870">
        <ele>138.2</ele>
        <time>2019-08-17T16:00:03Z</time>
      </trkpt>
      <trkpt lat="42.3670040" lon="-8.0008920">
        <ele>138.3</ele>
        <time>2019-08-17T16:00:04Z</time>
      </trkpt>
      <trkpt lat="42.3670450" lon="-8.0008960">
        <ele>138.4</ele>
        <time>2019-08-17T16:00:05Z</time>
      </trkpt>
      <trkpt lat="42.3670860" lon="-8.0009010">
        <ele>138.5</ele>
        <time>2019-08-17T16:00:06Z</time>
      </trkpt>
      <trkpt lat="42.3671270" lon="-8.0009060">
        <ele>138.6</ele>
        <time>2019-08-17T16:00:07Z</time>
      </trkpt>
      <trkpt lat="42.3671690" lon="-8.0009110">
        <ele>138.7</ele>
        <time>2019-08-17T16:00:08Z</time>
      </trkpt>
      <trkpt lat="42.3672120" lon="-8.0009160">
        <ele>138.9</ele>
        <time>2019-08-17T16:00:09Z</time>
      </trkpt>
      <trkpt lat="42.3672560" lon="-8.0009210">
        <ele>139.0</ele>
        <time>2019-08-17T16:00:10Z</time>
      </trkpt>
      <trkpt lat="42.3673020" lon="-8.0009270">
        <ele>139.1</ele>
        <time>2019-08-17T16:00:11Z</time>
      </trkpt>
      <trkpt lat="42.3673490" lon="-8.0009320">
        <ele>139.2</ele>
        <time>2019-08-17T16:00:12Z</time>
      </trkpt>
      <trkpt lat="42.3673980" lon="-8.0009370">
        <ele>139.3</ele>
        <time>2019-08-17T16:00:13Z</time>
      </trkpt>
      <trkpt lat="42.3674470" lon="-8.0009410">
        <ele>139.5</ele>
        <time>2019-08-17T16:00:14Z</time>
      </trkpt>
      <trkpt lat="42.3674980" lon="-8.0009440">
        <ele>139.6</ele>
        <time>2019-08-17T16:00:15Z</time>
      </trkpt>
      <trkpt lat="42.3675500" lon="-8.0009440">
        <ele>139.7</ele>
        <time>2019-08-17T16:00:16Z</time>
      </trkpt>
      <trkpt lat="42.3676010" lon="-8.0009420">
        <ele>139.9</ele>
        <time>2019-08-17T16:00:17Z</time>
      </trkpt>
      <trkpt lat="42.3676530" lon="-8.0009360">
        <ele>140.0</ele>
        <time>2019-08-17T16:00:18Z</time>
      </trkpt>
      <trkpt lat="42.3677040" lon="-8.0009270">
        <ele>140.2</ele>
        <time>2019-08-17T16:00:19Z</time>
      </trkpt>
      <trkpt lat="42.3677550" lon="-8.0009140">
        <ele>140.4</ele>
        <time>2019-08-17T16:00:20Z</time>
      </trkpt>
      <trkpt lat="42.3678050" lon="-8.0008970">
        <ele>140.6</ele>
        <time>2019-08-17T16:00:21Z</time>
      </trkpt>
      <trkpt lat="42.3678540" lon="-8.0008780">
        <ele>140.9</ele>
        <time>2019-08-17T16:00:22Z</time>
      </trkpt>
      <trkpt lat="42.3679260" lon="-8.0008440">
        <ele>141.3</ele>
        <time>2019-08-17T16:00:23Z</time>
      </trkpt>
      <trkpt lat="42.3679490" lon="-8.0008310">
        <ele>141.4</ele>
        <time>2019-08-17T16:00:24Z</time>
      </trkpt>
      <trkpt lat="42.3679950" lon="-8.0008050">
        <ele>141.8</ele>
        <time>2019-08-17T16:00:25Z</time>
      </trkpt>
      <trkpt lat="42.3680400" lon="-8.0007760">
        <ele>142.1</ele>
        <time>2019-08-17T16:00:26Z</time>
      </trkpt>
      <trkpt lat="42.3680840" lon="-8.0007470">
        <ele>142.8</ele>
        <time>2019-08-17T16:00:27Z</time>
      </trkpt>
      <trkpt lat="42.3681260" lon="-8.0007160">
        <ele>142.7</ele>
        <time>2019-08-17T16:00:28Z</time>
      </trkpt>
      <trkpt lat="42.3681680" lon="-8.0006840">
        <ele>142.6</ele>
        <time>2019-08-17T16:00:29Z</time>
      </trkpt>
      <trkpt lat="42.3682090" lon="-8.0006510">
        <ele>142.6</ele>
        <time>2019-08-17T16:00:30Z</time>
      </trkpt>
      <trkpt lat="42.3682490" lon="-8.0006190">
        <ele>142.5</ele>
        <time>2019-08-17T16:00:31Z</time>
      </trkpt>
      <trkpt lat="42.3682890" lon="-8.0005860">
        <ele>142.5</ele>
        <time>2019-08-17T16:00:32Z</time>
      </trkpt>
      <trkpt lat="42.3683290" lon="-8.0005540">
        <ele>142.4</ele>
        <time>2019-08-17T16:00:33Z</time>
      </trkpt>
      <trkpt lat="42.3683680" lon="-8.0005230">
        <ele>142.3</ele>
        <time>2019-08-17T16:00:34Z</time>
      </trkpt>
      <trkpt lat="42.3684080" lon="-8.0004920">
        <ele>142.2</ele>
        <time>2019-08-17T16:00:35Z</time>
      </trkpt>
      <trkpt lat="42.3684480" lon="-8.0004630">
        <ele>142.2</ele>
        <time>2019-08-17T16:00:36Z</time>
      </trkpt>
      <trkpt lat="42.3684880" lon="-8.0004340">
        <ele>142.1</ele>
        <time>2019-08-17T16:00:37Z</time>
      </trkpt>
      <trkpt lat="42.3685280" lon="-8.0004080">
        <ele>142.0</ele>
        <time>2019-08-17T16:00:38Z</time>
      </trkpt>
      <trkpt lat="42.3685690" lon="-8.0003830">
        <ele>141.9</ele>
        <time>2019-08-17T16:00:39Z</time>
      </trkpt>
      <trkpt lat="42.3686110" lon="-8.0003600">
        <ele>141.9</ele>
        <time>2019-08-17T16:00:40Z</time>
      </trkpt>
      <trkpt lat="42.3686520" lon="-8.0003400">
        <ele>141.8</ele>
        <time>2019-08-17T16:00:41Z</time>
      </trkpt>
      <trkpt lat="42.3686940" lon="-8.0003210">
        <ele>141.7</ele>
        <time>2019-08-17T16:00:42Z</time>
      </trkpt>
      <trkpt lat="42.3687360" lon="-8.0003040">
        <ele>141.6</ele>
        <time>2019-08-17T16:00:43Z</time>
      </trkpt>
      <trkpt lat="42.3687770" lon="-8.0002890">
        <ele>141.6</ele>
        <time>2019-08-17T16:00:44Z</time>
      </trkpt>
      <trkpt lat="42.3688160" lon="-8.0002750">
        <ele>141.5</ele>
        <time>2019-08-17T16:00:45Z</time>
      </trkpt>
      <trkpt lat="42.3688520" lon="-8.0002680">
        <ele>141.5</ele>
        <time>2019-08-17T16:00:46Z</time>
      </trkpt>
      <trkpt lat="42.3688830" lon="-8.0002740">
        <ele>141.4</ele>
        <time>2019-08-17T16:00:47Z</time>
      </trkpt>
      <trkpt lat="42.3689060" lon="-8.0002940">
        <ele>141.4</ele>
        <time>2019-08-17T16:00:48Z</time>
      </trkpt>
      <trkpt lat="42.3689170" lon="-8.0003200">
        <ele>141.3</ele>
        <time>2019-08-17T16:00:49Z</time>
      </trkpt>
      <trkpt lat="42.3689120" lon="-8.0003430">
        <ele>141.3</ele>
        <time>2019-08-17T16:00:50Z</time>
      </trkpt>
      <trkpt lat="42.3689010" lon="-8.0003580">
        <ele>141.3</ele>
        <time>2019-08-17T16:00:51Z</time>
      </trkpt>
      <trkpt lat="42.3688950" lon="-8.0003630">
        <ele>141.3</ele>
        <time>2019-08-17T16:00:52Z</time>
      </trkpt>
      <trkpt lat="42.3688940" lon="-8.0003610">
        <ele>141.3</ele>
        <time>2019-08-17T16:00:53Z</time>
      </trkpt>
      <trkpt lat="42.3688940" lon="-8.0003560">
        <ele>141.3</ele>
        <time>2019-08-17T16:00:54Z</time>
      </trkpt>
      <trkpt lat="42.3688920" lon="-8.0003520">
        <ele>141.3</ele>
        <time>2019-08-17T16:00:55Z</time>
      </trkpt>
      <trkpt lat="42.3688890" lon="-8.0003500">
        <ele>141.3</ele>
        <time>2019-08-17T16:00:56Z</time>
      </trkpt>
      <trkpt lat="42.3688870" lon="-8.0003490">
        <ele>141.3</ele>
        <time>2019-08-17T16:00:57Z</time>
      </trkpt>
      <trkpt lat="42.3688870" lon="-8.0003490">
        <ele>141.3</ele>
        <time>2019-08-17T16:00:58Z</time>
      </trkpt>
      <trkpt lat="42.3688920" lon="-8.0003490">
        <ele>141.3</ele>
        <time>2019-08-17T16:00:59Z</time>
      </trkpt>
      <trkpt lat="42.3689000" lon="-8.0003470">
        <ele>141.2</ele>
        <time>2019-08-17T16:01:00Z</time>
      </trkpt>
      <trkpt lat="42.3689000" lon="-8.0003470">
        <ele>141.2</ele>
        <time>2019-08-17T16:01:01Z</time>
      </trkpt>
      <trkpt lat="42.3689010" lon="-8.0003470">
        <ele>141.2</ele>
        <time>2019-08-17T16:01:02Z</time>
      </trkpt>
      <trkpt lat="42.3690450" lon="-8.0002820">
        <ele>141.0</ele>
        <time>2019-08-17T16:02:00Z</time>
      </trkpt>
      <trkpt lat="42.3690930" lon="-8.0002700">
        <ele>141.0</ele>
        <time>2019-08-17T16:02:01Z</time>
      </trkpt>
      <trkpt lat="42.3691280" lon="-8.0002690">
        <ele>140.9</ele>
        <time>2019-08-17T16:02:02Z</time>
      </trkpt>
      <trkpt lat="42.3691750" lon="-8.0002660">
        <ele>140.9</ele>
        <time>2019-08-17T16:02:03Z</time>
      </trkpt>
      <trkpt lat="42.3692190" lon="-8.0002720">
        <ele>140.8</ele>
        <time>2019-08-17T16:02:04Z</time>
      </trkpt>
      <trkpt lat="42.3692870" lon="-8.0002940">
        <ele>140.7</ele>
        <time>2019-08-17T16:02:05Z</time>
      </trkpt>
      <trkpt lat="42.3693140" lon="-8.0003040">
        <ele>140.7</ele>
        <time>2019-08-17T16:02:06Z</time>
      </trkpt>
      <trkpt lat="42.3693410" lon="-8.0003140">
        <ele>140.7</ele>
        <time>2019-08-17T16:02:07Z</time>
      </trkpt>
      <trkpt lat="42.3693830" lon="-8.0003280">
        <ele>140.7</ele>
        <time>2019-08-17T16:02:08Z</time>
      </trkpt>
      <trkpt lat="42.3694260" lon="-8.0003430">
        <ele>140.7</ele>
        <time>2019-08-17T16:02:09Z</time>
      </trkpt>
      <trkpt lat="42.3694690" lon="-8.0003560">
        <ele>140.6</ele>
        <time>2019-08-17T16:02:10Z</time>
      </trkpt>
      <trkpt lat="42.3695360" lon="-8.0003760">
        <ele>140.6</ele>
        <time>2019-08-17T16:02:11Z</time>
      </trkpt>
      <trkpt lat="42.3695580" lon="-8.0003830">
        <ele>140.6</ele>
        <time>2019-08-17T16:02:12Z</time>
      </trkpt>
      <trkpt lat="42.3696040" lon="-8.0003960">
        <ele>141.0</ele>
        <time>2019-08-17T16:02:13Z</time>
      </trkpt>
      <trkpt lat="42.3696500" lon="-8.0004100">
        <ele>141.3</ele>
        <time>2019-08-17T16:02:14Z</time>
      </trkpt>
      <trkpt lat="42.3696960" lon="-8.0004230">
        <ele>141.7</ele>
        <time>2019-08-17T16:02:15Z</time>
      </trkpt>
      <trkpt lat="42.3697430" lon="-8.0004360">
        <ele>142.0</ele>
        <time>2019-08-17T16:02:16Z</time>
      </trkpt>
      <trkpt lat="42.3697900" lon="-8.0004490">
        <ele>142.4</ele>
        <time>2019-08-17T16:02:17Z</time>
      </trkpt>
      <trkpt lat="42.3698390" lon="-8.0004620">
        <ele>142.8</ele>
        <time>2019-08-17T16:02:18Z</time>
      </trkpt>
      <trkpt lat="42.3698880" lon="-8.0004750">
        <ele>143.1</ele>
        <time>2019-08-17T16:02:19Z</time>
      </trkpt>
      <trkpt lat="42.3699380" lon="-8.0004880">
        <ele>143.5</ele>
        <time>2019-08-17T16:02:20Z</time>
      </trkpt>
      <trkpt lat="42.3699890" lon="-8.0005000">
        <ele>143.9</ele>
        <time>2019-08-17T16:02:21Z</time>
      </trkpt>
      <trkpt lat="42.3700400" lon="-8.0005130">
        <ele>144.3</ele>
        <time>2019-08-17T16:02:22Z</time>
      </trkpt>
      <trkpt lat="42.3700920" lon="-8.0005250">
        <ele>144.7</ele>
        <time>2019-08-17T16:02:23Z</time>
      </trkpt>
      <trkpt lat="42.3701440" lon="-8.0005370">
        <ele>145.1</ele>
        <time>2019-08-17T16:02:24Z</time>
      </trkpt>
      <trkpt lat="42.3701960" lon="-8.0005490">
        <ele>145.4</ele>
        <time>2019-08-17T16:02:25Z</time>
      </trkpt>
      <trkpt lat="42.3702470" lon="-8.0005610">
        <ele>145.9</ele>
        <time>2019-08-17T16:02:26Z</time>
      </trkpt>
      <trkpt lat="42.3702980" lon="-8.0005730">
        <ele>146.3</ele>
        <time>2019-08-17T16:02:27Z</time>
      </trkpt>
      <trkpt lat="42.3703470" lon="-8.0005850">
        <ele>146.7</ele>
        <time>2019-08-17T16:02:28Z</time>
      </trkpt>
      <trkpt lat="42.3703950" lon="-8.0005970">
        <ele>147.1</ele>
        <time>2019-08-17T16:02:29Z</time>
      </trkpt>
      <trkpt lat="42.3704420" lon="-8.0006080">
        <ele>147.5</ele>
        <time>2019-08-17T16:02:30Z</time>
      </trkpt>
      <trkpt lat="42.3704880" lon="-8.0006200">
        <ele>147.9</ele>
        <time>2019-08-17T16:02:31Z</time>
      </trkpt>
      <trkpt lat="42.3705330" lon="-8.0006320">
        <ele>148.4</ele>
        <time>2019-08-17T16:02:32Z</time>
      </trkpt>
      <trkpt lat="42.3705760" lon="-8.0006430">
        <ele>148.8</ele>
        <time>2019-08-17T16:02:33Z</time>
      </trkpt>
      <trkpt lat="42.3706190" lon="-8.0006540">
        <ele>149.2</ele>
        <time>2019-08-17T16:02:34Z</time>
      </trkpt>
      <trkpt lat="42.3706600" lon="-8.0006650">
        <ele>149.6</ele>
        <time>2019-08-17T16:02:35Z</time>
      </trkpt>
      <trkpt lat="42.3707010" lon="-8.0006750">
        <ele>149.9</ele>
        <time>2019-08-17T16:02:36Z</time>
      </trkpt>
      <trkpt lat="42.3707410" lon="-8.0006840">
        <ele>150.3</ele>
        <time>2019-08-17T16:02:37Z</time>
      </trkpt>
      <trkpt lat="42.3707800" lon="-8.0006940">
        <ele>150.7</ele>
        <time>2019-08-17T16:02:38Z</time>
      </trkpt>
      <trkpt lat="42.3708170" lon="-8.0007030">
        <ele>151.0</ele>
        <time>2019-08-17T16:02:39Z</time>
      </trkpt>
      <trkpt lat="42.3708530" lon="-8.0007110">
        <ele>151.3</ele>
        <time>2019-08-17T16:02:40Z</time>
      </trkpt>
      <trkpt lat="42.3708880" lon="-8.0007190">
        <ele>151.6</ele>
        <time>2019-08-17T16:02:41Z</time>
      </trkpt>
      <trkpt lat="42.3709210" lon="-8.0007270">
        <ele>151.9</ele>
        <time>2019-08-17T16:02:42Z</time>
      </trkpt>
      <trkpt lat="42.3709530" lon="-8.0007340">
        <ele>152.2</ele>
        <time>2019-08-17T16:02:43Z</time>
      </trkpt>
      <trkpt lat="42.3709830" lon="-8.0007410">
        <ele>152.5</ele>
        <time>2019-08-17T16:02:44Z</time>
      </trkpt>
      <trkpt lat="42.3710110" lon="-8.0007470">
        <ele>152.7</ele>
        <time>2019-08-17T16:02:45Z</time>
      </trkpt>
      <trkpt lat="42.3710390" lon="-8.0007530">
        <ele>152.9</ele>
        <time>2019-08-17T16:02:46Z</time>
      </trkpt>
      <trkpt lat="42.3710660" lon="-8.0007590">
        <ele>153.2</ele>
        <time>2019-08-17T16:02:47Z</time>
      </trkpt>
      <trkpt lat="42.3710930" lon="-8.0007640">
        <ele>153.4</ele>
        <time>2019-08-17T16:02:48Z</time>
      </trkpt>
      <trkpt lat="42.3711200" lon="-8.0007690">
        <ele>153.6</ele>
        <time>2019-08-17T16:02:49Z</time>
      </trkpt>
      <trkpt lat="42.3711480" lon="-8.0007730">
        <ele>153.8</ele>
        <time>2019-08-17T16:02:50Z</time>
      </trkpt>
      <trkpt lat="42.3711780" lon="-8.0007770">
        <ele>154.0</ele>
        <time>2019-08-17T16:02:51Z</time>
      </trkpt>
      <trkpt lat="42.3712080" lon="-8.0007810">
        <ele>154.3</ele>
        <time>2019-08-17T16:02:52Z</time>
      </trkpt>
      <trkpt lat="42.3712390" lon="-8.0007850">
        <ele>154.5</ele>
        <time>2019-08-17T16:02:53Z</time>
      </trkpt>
      <trkpt lat="42.3712710" lon="-8.0007880">
        <ele>154.7</ele>
        <time>2019-08-17T16:02:54Z</time>
      </trkpt>
      <trkpt lat="42.3713030" lon="-8.0007920">
        <ele>155.0</ele>
        <time>2019-08-17T16:02:55Z</time>
      </trkpt>
      <trkpt lat="42.3713350" lon="-8.0007950">
        <ele>155.2</ele>
        <time>2019-08-17T16:02:56Z</time>
      </trkpt>
      <trkpt lat="42.3713670" lon="-8.0007990">
        <ele>155.4</ele>
        <time>2019-08-17T16:02:57Z</time>
      </trkpt>
      <trkpt lat="42.3713990" lon="-8.0008030">
        <ele>155.6</ele>
        <time>2019-08-17T16:02:58Z</time>
      </trkpt>
      <trkpt lat="42.3714300" lon="-8.0008070">
        <ele>155.9</ele>
        <time>2019-08-17T16:02:59Z</time>
      </trkpt>
      <trkpt lat="42.3714600" lon="-8.0008120">
        <ele>156.1</ele>
        <time>2019-08-17T16:03:00Z</time>
      </trkpt>
      <trkpt lat="42.3714900" lon="-8.0008160">
        <ele>156.3</ele>
        <time>2019-08-17T16:03:01Z</time>
      </trkpt>
      <trkpt lat="42.3715190" lon="-8.0008190">
        <ele>156.5</ele>
        <time>2019-08-17T16:03:02Z</time>
      </trkpt>
      <trkpt lat="42.3715490" lon="-8.0008210">
        <ele>156.7</ele>
        <time>2019-08-17T16:03:03Z</time>
      </trkpt>
      <trkpt lat="42.3715770" lon="-8.0008210">
        <ele>156.8</ele>
        <time>2019-08-17T16:03:04Z</time>
      </trkpt>
      <trkpt lat="42.3716060" lon="-8.0008200">
        <ele>157.0</ele>
        <time>2019-08-17T16:03:05Z</time>
      </trkpt>
      <trkpt lat="42.3716350" lon="-8.0008160">
        <ele>157.2</ele>
        <time>2019-08-17T16:03:06Z</time>
      </trkpt>
      <trkpt lat="42.3716630" lon="-8.0008120">
        <ele>157.4</ele>
        <time>2019-08-17T16:03:07Z</time>
      </trkpt>
      <trkpt lat="42.3716910" lon="-8.0008080">
        <ele>157.6</ele>
        <time>2019-08-17T16:03:08Z</time>
      </trkpt>
      <trkpt lat="42.3717180" lon="-8.0008070">
        <ele>157.8</ele>
        <time>2019-08-17T16:03:09Z</time>
      </trkpt>
      <trkpt lat="42.3717440" lon="-8.0008090">
        <ele>157.9</ele>
        <time>2019-08-17T16:03:10Z</time>
      </trkpt>
      <trkpt lat="42.3717700" lon="-8.0008120">
        <ele>158.1</ele>
        <time>2019-08-17T16:03:11Z</time>
      </trkpt>
      <trkpt lat="42.3717960" lon="-8.0008150">
        <ele>158.3</ele>
        <time>2019-08-17T16:03:12Z</time>
      </trkpt>
      <trkpt lat="42.3718220" lon="-8.0008160">
        <ele>158.4</ele>
        <time>2019-08-17T16:03:13Z</time>
      </trkpt>
      <trkpt lat="42.3718480" lon="-8.0008140">
        <ele>158.6</ele>
        <time>2019-08-17T16:03:14Z</time>
      </trkpt>
      <trkpt lat="42.3718730" lon="-8.0008120">
        <ele>158.8</ele>
        <time>2019-08-17T16:03:15Z</time>
      </trkpt>
      <trkpt lat="42.3718980" lon="-8.0008070">
        <ele>159.0</ele>
        <time>2019-08-17T16:03:16Z</time>
      </trkpt>
      <trkpt lat="42.3719230" lon="-8.0008020">
        <ele>159.1</ele>
        <time>2019-08-17T16:03:17Z</time>
      </trkpt>
      <trkpt lat="42.3719460" lon="-8.0007970">
        <ele>159.3</ele>
        <time>2019-08-17T16:03:18Z</time>
      </trkpt>
      <trkpt lat="42.3719690" lon="-8.0007920">
        <ele>159.5</ele>
        <time>2019-08-17T16:03:19Z</time>
      </trkpt>
      <trkpt lat="42.3719900" lon="-8.0007870">
        <ele>159.6</ele>
        <time>2019-08-17T16:03:20Z</time>
      </trkpt>
      <trkpt lat="42.3720100" lon="-8.0007830">
        <ele>159.8</ele>
        <time>2019-08-17T16:03:21Z</time>
      </trkpt>
      <trkpt lat="42.3720310" lon="-8.0007810">
        <ele>159.9</ele>
        <time>2019-08-17T16:03:22Z</time>
      </trkpt>
      <trkpt lat="42.3720520" lon="-8.0007820">
        <ele>160.1</ele>
        <time>2019-08-17T16:03:23Z</time>
      </trkpt>
      <trkpt lat="42.3720750" lon="-8.0007870">
        <ele>160.3</ele>
        <time>2019-08-17T16:03:24Z</time>
      </trkpt>
      <trkpt lat="42.3720990" lon="-8.0007940">
        <ele>160.4</ele>
        <time>2019-08-17T16:03:25Z</time>
      </trkpt>
      <trkpt lat="42.3721240" lon="-8.0008010">
        <ele>160.6</ele>
        <time>2019-08-17T16:03:26Z</time>
      </trkpt>
      <trkpt lat="42.3721500" lon="-8.0008080">
        <ele>160.8</ele>
        <time>2019-08-17T16:03:27Z</time>
      </trkpt>
      <trkpt lat="42.3721760" lon="-8.0008110">
        <ele>161.0</ele>
        <time>2019-08-17T16:03:28Z</time>
      </trkpt>
      <trkpt lat="42.3722030" lon="-8.0008130">
        <ele>161.3</ele>
        <time>2019-08-17T16:03:29Z</time>
      </trkpt>
      <trkpt lat="42.3722410" lon="-8.0008140">
        <ele>161.8</ele>
        <time>2019-08-17T16:03:30Z</time>
      </trkpt>
      <trkpt lat="42.3722540" lon="-8.0008150">
        <ele>161.9</ele>
        <time>2019-08-17T16:03:31Z</time>
      </trkpt>
      <trkpt lat="42.3722780" lon="-8.0008160">
        <ele>162.2</ele>
        <time>2019-08-17T16:03:32Z</time>
      </trkpt>
      <trkpt lat="42.3723010" lon="-8.0008170">
        <ele>162.5</ele>
        <time>2019-08-17T16:03:33Z</time>
      </trkpt>
      <trkpt lat="42.3723230" lon="-8.0008190">
        <ele>162.7</ele>
        <time>2019-08-17T16:03:34Z</time>
      </trkpt>
      <trkpt lat="42.3723460" lon="-8.0008200">
        <ele>163.0</ele>
        <time>2019-08-17T16:03:35Z</time>
      </trkpt>
      <trkpt lat="42.3723700" lon="-8.0008220">
        <ele>163.3</ele>
        <time>2019-08-17T16:03:36Z</time>
      </trkpt>
      <trkpt lat="42.3723930" lon="-8.0008230">
        <ele>163.5</ele>
        <time>2019-08-17T16:03:37Z</time>
      </trkpt>
      <trkpt lat="42.3724170" lon="-8.0008240">
        <ele>163.8</ele>
        <time>2019-08-17T16:03:38Z</time>
      </trkpt>
      <trkpt lat="42.3724410" lon="-8.0008250">
        <ele>164.0</ele>
        <time>2019-08-17T16:03:39Z</time>
      </trkpt>
      <trkpt lat="42.3724640" lon="-8.0008260">
        <ele>164.2</ele>
        <time>2019-08-17T16:03:40Z</time>
      </trkpt>
      <trkpt lat="42.3724880" lon="-8.0008260">
        <ele>164.5</ele>
        <time>2019-08-17T16:03:41Z</time>
      </trkpt>
      <trkpt lat="42.3725120" lon="-8.0008260">
        <ele>164.7</ele>
        <time>2019-08-17T16:03:42Z</time>
      </trkpt>
      <trkpt lat="42.3725360" lon="-8.0008250">
        <ele>164.9</ele>
        <time>2019-08-17T16:03:43Z</time>
      </trkpt>
      <trkpt lat="42.3725600" lon="-8.0008240">
        <ele>165.1</ele>
        <time>2019-08-17T16:03:44Z</time>
      </trkpt>
      <trkpt lat="42.3725840" lon="-8.0008230">
        <ele>165.3</ele>
        <time>2019-08-17T16:03:45Z</time>
      </trkpt>
      <trkpt lat="42.3726220" lon="-8.0008220">
        <ele>165.6</ele>
        <time>2019-08-17T16:03:46Z</time>
      </trkpt>
      <trkpt lat="42.3726350" lon="-8.0008220">
        <ele>165.7</ele>
        <time>2019-08-17T16:03:47Z</time>
      </trkpt>
      <trkpt lat="42.3726620" lon="-8.0008210">
        <ele>165.8</ele>
        <time>2019-08-17T16:03:48Z</time>
      </trkpt>
      <trkpt lat="42.3726900" lon="-8.0008210">
        <ele>166.3</ele>
        <time>2019-08-17T16:03:49Z</time>
      </trkpt>
      <trkpt lat="42.3727330" lon="-8.0008210">
        <ele>166.5</ele>
        <time>2019-08-17T16:03:50Z</time>
      </trkpt>
      <trkpt lat="42.3727480" lon="-8.0008220">
        <ele>166.6</ele>
        <time>2019-08-17T16:03:51Z</time>
      </trkpt>
      <trkpt lat="42.3727790" lon="-8.0008220">
        <ele>166.7</ele>
        <time>2019-08-17T16:03:52Z</time>
      </trkpt>
      <trkpt lat="42.3728100" lon="-8.0008240">
        <ele>166.9</ele>
        <time>2019-08-17T16:03:53Z</time>
      </trkpt>
      <trkpt lat="42.3728410" lon="-8.0008250">
        <ele>167.1</ele>
        <time>2019-08-17T16:03:54Z</time>
      </trkpt>
      <trkpt lat="42.3728720" lon="-8.0008260">
        <ele>167.2</ele>
        <time>2019-08-17T16:03:55Z</time>
      </trkpt>
      <trkpt lat="42.3729030" lon="-8.0008280">
        <ele>167.4</ele>
        <time>2019-08-17T16:03:56Z</time>
      </trkpt>
      <trkpt lat="42.3729340" lon="-8.0008300">
        <ele>167.5</ele>
        <time>2019-08-17T16:03:57Z</time>
      </trkpt>
      <trkpt lat="42.3729650" lon="-8.0008320">
        <ele>167.7</ele>
        <time>2019-08-17T16:03:58Z</time>
      </trkpt>
      <trkpt lat="42.3729950" lon="-8.0008340">
        <ele>167.8</ele>
        <time>2019-08-17T16:03:59Z</time>
      </trkpt>
      <trkpt lat="42.3730250" lon="-8.0008360">
        <ele>168.0</ele>
        <time>2019-08-17T16:04:00Z</time>
      </trkpt>
      <trkpt lat="42.3730550" lon="-8.0008390">
        <ele>168.1</ele>
        <time>2019-08-17T16:04:01Z</time>
      </trkpt>
      <trkpt lat="42.3730850" lon="-8.0008410">
        <ele>168.3</ele>
        <time>2019-08-17T16:04:02Z</time>
      </trkpt>
      <trkpt lat="42.3731140" lon="-8.0008440">
        <ele>168.4</ele>
        <time>2019-08-17T16:04:03Z</time>
      </trkpt>
      <trkpt lat="42.3731430" lon="-8.0008460">
        <ele>168.5</ele>
        <time>2019-08-17T16:04:04Z</time>
      </trkpt>
      <trkpt lat="42.3731720" lon="-8.0008490">
        <ele>168.6</ele>
        <time>2019-08-17T16:04:05Z</time>
      </trkpt>
      <trkpt lat="42.3732020" lon="-8.0008510">
        <ele>168.8</ele>
        <time>2019-08-17T16:04:06Z</time>
      </trkpt>
      <trkpt lat="42.3732320" lon="-8.0008520">
        <ele>168.9</ele>
        <time>2019-08-17T16:04:07Z</time>
      </trkpt>
      <trkpt lat="42.3732630" lon="-8.0008530">
        <ele>169.0</ele>
        <time>2019-08-17T16:04:08Z</time>
      </trkpt>
      <trkpt lat="42.3732960" lon="-8.0008530">
        <ele>169.2</ele>
        <time>2019-08-17T16:04:09Z</time>
      </trkpt>
      <trkpt lat="42.3733310" lon="-8.0008520">
        <ele>169.3</ele>
        <time>2019-08-17T16:04:10Z</time>
      </trkpt>
      <trkpt lat="42.3733680" lon="-8.0008500">
        <ele>169.5</ele>
        <time>2019-08-17T16:04:11Z</time>
      </trkpt>
      <trkpt lat="42.3734270" lon="-8.0008450">
        <ele>169.7</ele>
        <time>2019-08-17T16:04:12Z</time>
      </trkpt>
      <trkpt lat="42.3734470" lon="-8.0008430">
        <ele>169.8</ele>
        <time>2019-08-17T16:04:13Z</time>
      </trkpt>
      <trkpt lat="42.3734890" lon="-8.0008390">
        <ele>170.0</ele>
        <time>2019-08-17T16:04:14Z</time>
      </trkpt>
      <trkpt lat="42.3735310" lon="-8.0008340">
        <ele>170.1</ele>
        <time>2019-08-17T16:04:15Z</time>
      </trkpt>
      <trkpt lat="42.3735730" lon="-8.0008300">
        <ele>170.3</ele>
        <time>2019-08-17T16:04:16Z</time>
      </trkpt>
      <trkpt lat="42.3736150" lon="-8.0008260">
        <ele>170.4</ele>
        <time>2019-08-17T16:04:17Z</time>
      </trkpt>
      <trkpt lat="42.3736570" lon="-8.0008220">
        <ele>170.6</ele>
        <time>2019-08-17T16:04:18Z</time>
      </trkpt>
      <trkpt lat="42.3737180" lon="-8.0008180">
        <ele>170.7</ele>
        <time>2019-08-17T16:04:19Z</time>
      </trkpt>
      <trkpt lat="42.3737380" lon="-8.0008170">
        <ele>170.8</ele>
        <time>2019-08-17T16:04:20Z</time>
      </trkpt>
      <trkpt lat="42.3737790" lon="-8.0008150">
        <ele>170.9</ele>
        <time>2019-08-17T16:04:21Z</time>
      </trkpt>
      <trkpt lat="42.3738190" lon="-8.0008140">
        <ele>171.0</ele>
        <time>2019-08-17T16:04:22Z</time>
      </trkpt>
      <trkpt lat="42.3738590" lon="-8.0008120">
        <ele>171.1</ele>
        <time>2019-08-17T16:04:23Z</time>
      </trkpt>
      <trkpt lat="42.3738990" lon="-8.0008120">
        <ele>171.2</ele>
        <time>2019-08-17T16:04:24Z</time>
      </trkpt>
      <trkpt lat="42.3739400" lon="-8.0008120">
        <ele>171.2</ele>
        <time>2019-08-17T16:04:25Z</time>
      </trkpt>
      <trkpt lat="42.3739810" lon="-8.0008120">
        <ele>171.3</ele>
        <time>2019-08-17T16:04:26Z</time>
      </trkpt>
      <trkpt lat="42.3740220" lon="-8.0008120">
        <ele>171.4</ele>
        <time>2019-08-17T16:04:27Z</time>
      </trkpt>
      <trkpt lat="42.3740630" lon="-8.0008120">
        <ele>171.5</ele>
        <time>2019-08-17T16:04:28Z</time>
      </trkpt>
      <trkpt lat="42.3741040" lon="-8.0008120">
        <ele>171.5</ele>
        <time>2019-08-17T16:04:29Z</time>
      </trkpt>
      <trkpt lat="42.3741450" lon="-8.0008110">
        <ele>171.6</ele>
        <time>2019-08-17T16:04:30Z</time>
      </trkpt>
      <trkpt lat="42.3741860" lon="-8.0008100">
        <ele>171.7</ele>
        <time>2019-08-17T16:04:31Z</time>
      </trkpt>
      <trkpt lat="42.3742470" lon="-8.0008070">
        <ele>171.9</ele>
        <time>2019-08-17T16:04:32Z</time>
      </trkpt>
      <trkpt lat="42.3742670" lon="-8.0008060">
        <ele>171.9</ele>
        <time>2019-08-17T16:04:33Z</time>
      </trkpt>
      <trkpt lat="42.3743060" lon="-8.0008020">
        <ele>172.0</ele>
        <time>2019-08-17T16:04:34Z</time>
      </trkpt>
      <trkpt lat="42.3743460" lon="-8.0007990">
        <ele>172.1</ele>
        <time>2019-08-17T16:04:35Z</time>
      </trkpt>
      <trkpt lat="42.3743860" lon="-8.0007950">
        <ele>172.2</ele>
        <time>2019-08-17T16:04:36Z</time>
      </trkpt>
      <trkpt lat="42.3744450" lon="-8.0007900">
        <ele>172.4</ele>
        <time>2019-08-17T16:04:37Z</time>
      </trkpt>
      <trkpt lat="42.3744650" lon="-8.0007880">
        <ele>172.5</ele>
        <time>2019-08-17T16:04:38Z</time>
      </trkpt>
      <trkpt lat="42.3745050" lon="-8.0007850">
        <ele>172.6</ele>
        <time>2019-08-17T16:04:39Z</time>
      </trkpt>
      <trkpt lat="42.3745460" lon="-8.0007830">
        <ele>172.7</ele>
        <time>2019-08-17T16:04:40Z</time>
      </trkpt>
      <trkpt lat="42.3745880" lon="-8.0007820">
        <ele>172.8</ele>
        <time>2019-08-17T16:04:41Z</time>
      </trkpt>
      <trkpt lat="42.3746520" lon="-8.0007820">
        <ele>172.9</ele>
        <time>2019-08-17T16:04:42Z</time>
      </trkpt>
      <trkpt lat="42.3746730" lon="-8.0007830">
        <ele>173.0</ele>
        <time>2019-08-17T16:04:43Z</time>
      </trkpt>
      <trkpt lat="42.3747160" lon="-8.0007840">
        <ele>173.1</ele>
        <time>2019-08-17T16:04:44Z</time>
      </trkpt>
      <trkpt lat="42.3747590" lon="-8.0007860">
        <ele>173.2</ele>
        <time>2019-08-17T16:04:45Z</time>
      </trkpt>
      <trkpt lat="42.3748020" lon="-8.0007880">
        <ele>173.3</ele>
        <time>2019-08-17T16:04:46Z</time>
      </trkpt>
      <trkpt lat="42.3748450" lon="-8.0007890">
        <ele>173.4</ele>
        <time>2019-08-17T16:04:47Z</time>
      </trkpt>
      <trkpt lat="42.3748870" lon="-8.0007910">
        <ele>173.5</ele>
        <time>2019-08-17T16:04:48Z</time>
      </trkpt>
      <trkpt lat="42.3749290" lon="-8.0007920">
        <ele>173.6</ele>
        <time>2019-08-17T16:04:49Z</time>
      </trkpt>
      <trkpt lat="42.3749710" lon="-8.0007930">
        <ele>173.6</ele>
        <time>2019-08-17T16:04:50Z</time>
      </trkpt>
      <trkpt lat="42.3750140" lon="-8.0007940">
        <ele>173.7</ele>
        <time>2019-08-17T16:04:51Z</time>
      </trkpt>
      <trkpt lat="42.3750570" lon="-8.0007940">
        <ele>173.7</ele>
        <time>2019-08-17T16:04:52Z</time>
      </trkpt>
      <trkpt lat="42.3751000" lon="-8.0007940">
        <ele>173.7</ele>
        <time>2019-08-17T16:04:53Z</time>
      </trkpt>
      <trkpt lat="42.3751670" lon="-8.0007950">
        <ele>173.8</ele>
        <time>2019-08-17T16:04:54Z</time>
      </trkpt>
      <trkpt lat="42.3751890" lon="-8.0007950">
        <ele>173.8</ele>
        <time>2019-08-17T16:04:55Z</time>
      </trkpt>
      <trkpt lat="42.3752350" lon="-8.0007950">
        <ele>173.9</ele>
        <time>2019-08-17T16:04:56Z</time>
      </trkpt>
      <trkpt lat="42.3752820" lon="-8.0007940">
        <ele>173.9</ele>
        <time>2019-08-17T16:04:57Z</time>
      </trkpt>
      <trkpt lat="42.3753290" lon="-8.0007940">
        <ele>174.0</ele>
        <time>2019-08-17T16:04:58Z</time>
      </trkpt>
      <trkpt lat="42.3753770" lon="-8.0007930">
        <ele>174.1</ele>
        <time>2019-08-17T16:04:59Z</time>
      </trkpt>
      <trkpt lat="42.3754250" lon="-8.0007920">
        <ele>174.2</ele>
        <time>2019-08-17T16:05:00Z</time>
      </trkpt>
      <trkpt lat="42.3754740" lon="-8.0007910">
        <ele>174.3</ele>
        <time>2019-08-17T16:05:01Z</time>
      </trkpt>
      <trkpt lat="42.3755220" lon="-8.0007890">
        <ele>174.4</ele>
        <time>2019-08-17T16:05:02Z</time>
      </trkpt>
      <trkpt lat="42.3755700" lon="-8.0007870">
        <ele>174.5</ele>
        <time>2019-08-17T16:05:03Z</time>
      </trkpt>
      <trkpt lat="42.3756190" lon="-8.0007850">
        <ele>174.5</ele>
        <time>2019-08-17T16:05:04Z</time>
      </trkpt>
      <trkpt lat="42.3756670" lon="-8.0007830">
        <ele>174.5</ele>
        <time>2019-08-17T16:05:05Z</time>
      </trkpt>
      <trkpt lat="42.3757400" lon="-8.0007790">
        <ele>174.5</ele>
        <time>2019-08-17T16:05:06Z</time>
      </trkpt>
      <trkpt lat="42.3757650" lon="-8.0007770">
        <ele>174.4</ele>
        <time>2019-08-17T16:05:07Z</time>
      </trkpt>
      <trkpt lat="42.3758140" lon="-8.0007740">
        <ele>174.3</ele>
        <time>2019-08-17T16:05:08Z</time>
      </trkpt>
      <trkpt lat="42.3758650" lon="-8.0007710">
        <ele>174.2</ele>
        <time>2019-08-17T16:05:09Z</time>
      </trkpt>
      <trkpt lat="42.3759170" lon="-8.0007680">
        <ele>174.1</ele>
        <time>2019-08-17T16:05:10Z</time>
      </trkpt>
      <trkpt lat="42.3759700" lon="-8.0007650">
        <ele>174.7</ele>
        <time>2019-08-17T16:05:11Z</time>
      </trkpt>
      <trkpt lat="42.3760230" lon="-8.0007620">
        <ele>175.2</ele>
        <time>2019-08-17T16:05:12Z</time>
      </trkpt>
      <trkpt lat="42.3760770" lon="-8.0007590">
        <ele>175.9</ele>
        <time>2019-08-17T16:05:13Z</time>
      </trkpt>
      <trkpt lat="42.3761310" lon="-8.0007550">
        <ele>176.8</ele>
        <time>2019-08-17T16:05:14Z</time>
      </trkpt>
      <trkpt lat="42.3761850" lon="-8.0007520">
        <ele>177.7</ele>
        <time>2019-08-17T16:05:15Z</time>
      </trkpt>
      <trkpt lat="42.3762400" lon="-8.0007490">
        <ele>178.7</ele>
        <time>2019-08-17T16:05:16Z</time>
      </trkpt>
      <trkpt lat="42.3762930" lon="-8.0007450">
        <ele>179.6</ele>
        <time>2019-08-17T16:05:17Z</time>
      </trkpt>
      <trkpt lat="42.3763470" lon="-8.0007420">
        <ele>180.8</ele>
        <time>2019-08-17T16:05:18Z</time>
      </trkpt>
      <trkpt lat="42.3763990" lon="-8.0007380">
        <ele>180.8</ele>
        <time>2019-08-17T16:05:19Z</time>
      </trkpt>
      <trkpt lat="42.3764500" lon="-8.0007340">
        <ele>180.7</ele>
        <time>2019-08-17T16:05:20Z</time>
      </trkpt>
      <trkpt lat="42.3765000" lon="-8.0007280">
        <ele>180.7</ele>
        <time>2019-08-17T16:05:21Z</time>
      </trkpt>
      <trkpt lat="42.3765500" lon="-8.0007220">
        <ele>180.6</ele>
        <time>2019-08-17T16:05:22Z</time>
      </trkpt>
      <trkpt lat="42.3765990" lon="-8.0007140">
        <ele>180.5</ele>
        <time>2019-08-17T16:05:23Z</time>
      </trkpt>
      <trkpt lat="42.3766480" lon="-8.0007030">
        <ele>180.5</ele>
        <time>2019-08-17T16:05:24Z</time>
      </trkpt>
      <trkpt lat="42.3766980" lon="-8.0006900">
        <ele>180.4</ele>
        <time>2019-08-17T16:05:25Z</time>
      </trkpt>
      <trkpt lat="42.3767490" lon="-8.0006740">
        <ele>180.3</ele>
        <time>2019-08-17T16:05:26Z</time>
      </trkpt>
      <trkpt lat="42.3768000" lon="-8.0006540">
        <ele>180.2</ele>
        <time>2019-08-17T16:05:27Z</time>
      </trkpt>
      <trkpt lat="42.3768520" lon="-8.0006320">
        <ele>180.1</ele>
        <time>2019-08-17T16:05:28Z</time>
      </trkpt>
      <trkpt lat="42.3769040" lon="-8.0006070">
        <ele>180.1</ele>
        <time>2019-08-17T16:05:29Z</time>
      </trkpt>
      <trkpt lat="42.3769560" lon="-8.0005790">
        <ele>180.0</ele>
        <time>2019-08-17T16:05:30Z</time>
      </trkpt>
      <trkpt lat="42.3770090" lon="-8.0005490">
        <ele>179.9</ele>
        <time>2019-08-17T16:05:31Z</time>
      </trkpt>
      <trkpt lat="42.3770610" lon="-8.0005150">
        <ele>179.8</ele>
        <time>2019-08-17T16:05:32Z</time>
      </trkpt>
      <trkpt lat="42.3771130" lon="-8.0004800">
        <ele>179.7</ele>
        <time>2019-08-17T16:05:33Z</time>
      </trkpt>
      <trkpt lat="42.3771650" lon="-8.0004430">
        <ele>179.6</ele>
        <time>2019-08-17T16:05:34Z</time>
      </trkpt>
      <trkpt lat="42.3772160" lon="-8.0004040">
        <ele>179.5</ele>
        <time>2019-08-17T16:05:35Z</time>
      </trkpt>
      <trkpt lat="42.3772680" lon="-8.0003640">
        <ele>179.5</ele>
        <time>2019-08-17T16:05:36Z</time>
      </trkpt>
      <trkpt lat="42.3773190" lon="-8.0003240">
        <ele>179.4</ele>
        <time>2019-08-17T16:05:37Z</time>
      </trkpt>
      <trkpt lat="42.3773700" lon="-8.0002850">
        <ele>179.4</ele>
        <time>2019-08-17T16:05:38Z</time>
      </trkpt>
      <trkpt lat="42.3774210" lon="-8.0002450">
        <ele>179.4</ele>
        <time>2019-08-17T16:05:39Z</time>
      </trkpt>
      <trkpt lat="42.3774710" lon="-8.0002070">
        <ele>179.4</ele>
        <time>2019-08-17T16:05:40Z</time>
      </trkpt>
      <trkpt lat="42.3775220" lon="-8.0001690">
        <ele>179.4</ele>
        <time>2019-08-17T16:05:41Z</time>
      </trkpt>
      <trkpt lat="42.3775730" lon="-8.0001320">
        <ele>179.4</ele>
        <time>2019-08-17T16:05:42Z</time>
      </trkpt>
      <trkpt lat="42.3776250" lon="-8.0000970">
        <ele>179.4</ele>
        <time>2019-08-17T16:05:43Z</time>
      </trkpt>
      <trkpt lat="42.3776760" lon="-8.0000630">
        <ele>179.4</ele>
        <time>2019-08-17T16:05:44Z</time>
      </trkpt>
      <trkpt lat="42.3777640" lon="-8.0000110">
        <ele>179.4</ele>
        <time>2019-08-17T16:05:45Z</time>
      </trkpt>
      <trkpt lat="42.3777990" lon="-7.9999920">
        <ele>179.5</ele>
        <time>2019-08-17T16:05:46Z</time>
      </trkpt>
      <trkpt lat="42.3778350" lon="-7.9999720">
        <ele>179.5</ele>
        <time>2019-08-17T16:05:47Z</time>
      </trkpt>
      <trkpt lat="42.3778880" lon="-7.9999460">
        <ele>179.5</ele>
        <time>2019-08-17T16:05:48Z</time>
      </trkpt>
      <trkpt lat="42.3779420" lon="-7.9999220">
        <ele>179.6</ele>
        <time>2019-08-17T16:05:49Z</time>
      </trkpt>
      <trkpt lat="42.3780300" lon="-7.9998900">
        <ele>179.7</ele>
        <time>2019-08-17T16:05:50Z</time>
      </trkpt>
      <trkpt lat="42.3780650" lon="-7.9998800">
        <ele>179.7</ele>
        <time>2019-08-17T16:05:51Z</time>
      </trkpt>
      <trkpt lat="42.3781000" lon="-7.9998690">
        <ele>179.8</ele>
        <time>2019-08-17T16:05:52Z</time>
      </trkpt>
      <trkpt lat="42.3781510" lon="-7.9998580">
        <ele>179.9</ele>
        <time>2019-08-17T16:05:53Z</time>
      </trkpt>
      <trkpt lat="42.3782010" lon="-7.9998510">
        <ele>179.9</ele>
        <time>2019-08-17T16:05:54Z</time>
      </trkpt>
      <trkpt lat="42.3782500" lon="-7.9998470">
        <ele>180.0</ele>
        <time>2019-08-17T16:05:55Z</time>
      </trkpt>
      <trkpt lat="42.3782980" lon="-7.9998450">
        <ele>180.1</ele>
        <time>2019-08-17T16:05:56Z</time>
      </trkpt>
      <trkpt lat="42.3783460" lon="-7.9998460">
        <ele>180.1</ele>
        <time>2019-08-17T16:05:57Z</time>
      </trkpt>
      <trkpt lat="42.3783930" lon="-7.9998480">
        <ele>180.2</ele>
        <time>2019-08-17T16:05:58Z</time>
      </trkpt>
      <trkpt lat="42.3784400" lon="-7.9998500">
        <ele>180.2</ele>
        <time>2019-08-17T16:05:59Z</time>
      </trkpt>
      <trkpt lat="42.3784860" lon="-7.9998530">
        <ele>180.2</ele>
        <time>2019-08-17T16:06:00Z</time>
      </trkpt>
      <trkpt lat="42.3785330" lon="-7.9998550">
        <ele>180.3</ele>
        <time>2019-08-17T16:06:01Z</time>
      </trkpt>
      <trkpt lat="42.3785790" lon="-7.9998560">
        <ele>180.3</ele>
        <time>2019-08-17T16:06:02Z</time>
      </trkpt>
      <trkpt lat="42.3786260" lon="-7.9998570">
        <ele>180.4</ele>
        <time>2019-08-17T16:06:03Z</time>
      </trkpt>
      <trkpt lat="42.3786720" lon="-7.9998580">
        <ele>180.4</ele>
        <time>2019-08-17T16:06:04Z</time>
      </trkpt>
      <trkpt lat="42.3787180" lon="-7.9998580">
        <ele>180.5</ele>
        <time>2019-08-17T16:06:05Z</time>
      </trkpt>
      <trkpt lat="42.3787640" lon="-7.9998570">
        <ele>180.5</ele>
        <time>2019-08-17T16:06:06Z</time>
      </trkpt>
      <trkpt lat="42.3788100" lon="-7.9998560">
        <ele>180.6</ele>
        <time>2019-08-17T16:06:07Z</time>
      </trkpt>
      <trkpt lat="42.3788560" lon="-7.9998540">
        <ele>180.6</ele>
        <time>2019-08-17T16:06:08Z</time>
      </trkpt>
      <trkpt lat="42.3789010" lon="-7.9998520">
        <ele>180.7</ele>
        <time>2019-08-17T16:06:09Z</time>
      </trkpt>
      <trkpt lat="42.3789460" lon="-7.9998490">
        <ele>180.8</ele>
        <time>2019-08-17T16:06:10Z</time>
      </trkpt>
      <trkpt lat="42.3789890" lon="-7.9998460">
        <ele>180.8</ele>
        <time>2019-08-17T16:06:11Z</time>
      </trkpt>
      <trkpt lat="42.3790300" lon="-7.9998420">
        <ele>180.9</ele>
        <time>2019-08-17T16:06:12Z</time>
      </trkpt>
      <trkpt lat="42.3790690" lon="-7.9998380">
        <ele>181.0</ele>
        <time>2019-08-17T16:06:13Z</time>
      </trkpt>
      <trkpt lat="42.3791060" lon="-7.9998340">
        <ele>181.2</ele>
        <time>2019-08-17T16:06:14Z</time>
      </trkpt>
      <trkpt lat="42.3791410" lon="-7.9998300">
        <ele>181.3</ele>
        <time>2019-08-17T16:06:15Z</time>
      </trkpt>
      <trkpt lat="42.3791720" lon="-7.9998250">
        <ele>181.4</ele>
        <time>2019-08-17T16:06:16Z</time>
      </trkpt>
      <trkpt lat="42.3792010" lon="-7.9998210">
        <ele>181.5</ele>
        <time>2019-08-17T16:06:17Z</time>
      </trkpt>
      <trkpt lat="42.3792380" lon="-7.9998160">
        <ele>181.7</ele>
        <time>2019-08-17T16:06:18Z</time>
      </trkpt>
      <trkpt lat="42.3792490" lon="-7.9998140">
        <ele>181.8</ele>
        <time>2019-08-17T16:06:19Z</time>
      </trkpt>
      <trkpt lat="42.3792700" lon="-7.9998100">
        <ele>181.9</ele>
        <time>2019-08-17T16:06:20Z</time>
      </trkpt>
      <trkpt lat="42.3792910" lon="-7.9998060">
        <ele>182.0</ele>
        <time>2019-08-17T16:06:21Z</time>
      </trkpt>
      <trkpt lat="42.3793140" lon="-7.9998010">
        <ele>182.1</ele>
        <time>2019-08-17T16:06:22Z</time>
      </trkpt>
      <trkpt lat="42.3793400" lon="-7.9997940">
        <ele>182.3</ele>
        <time>2019-08-17T16:06:23Z</time>
      </trkpt>
      <trkpt lat="42.3793680" lon="-7.9997860">
        <ele>182.4</ele>
        <time>2019-08-17T16:06:24Z</time>
      </trkpt>
      <trkpt lat="42.3793980" lon="-7.9997760">
        <ele>182.6</ele>
        <time>2019-08-17T16:06:25Z</time>
      </trkpt>
      <trkpt lat="42.3794300" lon="-7.9997650">
        <ele>182.8</ele>
        <time>2019-08-17T16:06:26Z</time>
      </trkpt>
      <trkpt lat="42.3794640" lon="-7.9997530">
        <ele>183.0</ele>
        <time>2019-08-17T16:06:27Z</time>
      </trkpt>
      <trkpt lat="42.3794980" lon="-7.9997390">
        <ele>183.2</ele>
        <time>2019-08-17T16:06:28Z</time>
      </trkpt>
      <trkpt lat="42.3795330" lon="-7.9997250">
        <ele>183.5</ele>
        <time>2019-08-17T16:06:29Z</time>
      </trkpt>
      <trkpt lat="42.3795670" lon="-7.9997100">
        <ele>183.7</ele>
        <time>2019-08-17T16:06:30Z</time>
      </trkpt>
      <trkpt lat="42.3796010" lon="-7.9996940">
        <ele>184.0</ele>
        <time>2019-08-17T16:06:31Z</time>
      </trkpt>
      <trkpt lat="42.3796350" lon="-7.9996770">
        <ele>184.2</ele>
        <time>2019-08-17T16:06:32Z</time>
      </trkpt>
      <trkpt lat="42.3796680" lon="-7.9996610">
        <ele>184.5</ele>
        <time>2019-08-17T16:06:33Z</time>
      </trkpt>
      <trkpt lat="42.3797000" lon="-7.9996440">
        <ele>184.7</ele>
        <time>2019-08-17T16:06:34Z</time>
      </trkpt>
      <trkpt lat="42.3797310" lon="-7.9996270">
        <ele>185.0</ele>
        <time>2019-08-17T16:06:35Z</time>
      </trkpt>
      <trkpt lat="42.3797620" lon="-7.9996110">
        <ele>185.3</ele>
        <time>2019-08-17T16:06:36Z</time>
      </trkpt>
      <trkpt lat="42.3797930" lon="-7.9995940">
        <ele>185.5</ele>
        <time>2019-08-17T16:06:37Z</time>
      </trkpt>
      <trkpt lat="42.3798230" lon="-7.9995780">
        <ele>185.7</ele>
        <time>2019-08-17T16:06:38Z</time>
      </trkpt>
      <trkpt lat="42.3798540" lon="-7.9995610">
        <ele>185.9</ele>
        <time>2019-08-17T16:06:39Z</time>
      </trkpt>
      <trkpt lat="42.3798840" lon="-7.9995440">
        <ele>186.1</ele>
        <time>2019-08-17T16:06:40Z</time>
      </trkpt>
      <trkpt lat="42.3799150" lon="-7.9995250">
        <ele>186.2</ele>
        <time>2019-08-17T16:06:41Z</time>
      </trkpt>
      <trkpt lat="42.3799450" lon="-7.9995050">
        <ele>186.4</ele>
        <time>2019-08-17T16:06:42Z</time>
      </trkpt>
      <trkpt lat="42.3799760" lon="-7.9994830">
        <ele>186.6</ele>
        <time>2019-08-17T16:06:43Z</time>
      </trkpt>
      <trkpt lat="42.3800070" lon="-7.9994610">
        <ele>186.7</ele>
        <time>2019-08-17T16:06:44Z</time>
      </trkpt>
      <trkpt lat="42.3800380" lon="-7.9994390">
        <ele>186.9</ele>
        <time>2019-08-17T16:06:45Z</time>
      </trkpt>
      <trkpt lat="42.3800700" lon="-7.9994180">
        <ele>187.1</ele>
        <time>2019-08-17T16:06:46Z</time>
      </trkpt>
      <trkpt lat="42.3801020" lon="-7.9993960">
        <ele>187.2</ele>
        <time>2019-08-17T16:06:47Z</time>
      </trkpt>
      <trkpt lat="42.3801340" lon="-7.9993760">
        <ele>187.3</ele>
        <time>2019-08-17T16:06:48Z</time>
      </trkpt>
      <trkpt lat="42.3801650" lon="-7.9993550">
        <ele>187.5</ele>
        <time>2019-08-17T16:06:49Z</time>
      </trkpt>
      <trkpt lat="42.3801970" lon="-7.9993350">
        <ele>187.6</ele>
        <time>2019-08-17T16:06:50Z</time>
      </trkpt>
      <trkpt lat="42.3802280" lon="-7.9993160">
        <ele>187.8</ele>
        <time>2019-08-17T16:06:51Z</time>
      </trkpt>
      <trkpt lat="42.3802580" lon="-7.9992970">
        <ele>187.9</ele>
        <time>2019-08-17T16:06:52Z</time>
      </trkpt>
      <trkpt lat="42.3802880" lon="-7.9992790">
        <ele>188.0</ele>
        <time>2019-08-17T16:06:53Z</time>
      </trkpt>
      <trkpt lat="42.3803170" lon="-7.9992610">
        <ele>188.1</ele>
        <time>2019-08-17T16:06:54Z</time>
      </trkpt>
      <trkpt lat="42.3803460" lon="-7.9992440">
        <ele>188.2</ele>
        <time>2019-08-17T16:06:55Z</time>
      </trkpt>
      <trkpt lat="42.3803740" lon="-7.9992280">
        <ele>188.3</ele>
        <time>2019-08-17T16:06:56Z</time>
      </trkpt>
      <trkpt lat="42.3804020" lon="-7.9992110">
        <ele>188.4</ele>
        <time>2019-08-17T16:06:57Z</time>
      </trkpt>
      <trkpt lat="42.3804300" lon="-7.9991950">
        <ele>188.5</ele>
        <time>2019-08-17T16:06:58Z</time>
      </trkpt>
      <trkpt lat="42.3804580" lon="-7.9991790">
        <ele>188.6</ele>
        <time>2019-08-17T16:06:59Z</time>
      </trkpt>
      <trkpt lat="42.3804860" lon="-7.9991630">
        <ele>188.7</ele>
        <time>2019-08-17T16:07:00Z</time>
      </trkpt>
      <trkpt lat="42.3805130" lon="-7.9991470">
        <ele>188.8</ele>
        <time>2019-08-17T16:07:01Z</time>
      </trkpt>
      <trkpt lat="42.3805410" lon="-7.9991320">
        <ele>188.9</ele>
        <time>2019-08-17T16:07:02Z</time>
      </trkpt>
      <trkpt lat="42.3805690" lon="-7.9991170">
        <ele>189.0</ele>
        <time>2019-08-17T16:07:03Z</time>
      </trkpt>
      <trkpt lat="42.3805970" lon="-7.9991020">
        <ele>189.1</ele>
        <time>2019-08-17T16:07:04Z</time>
      </trkpt>
      <trkpt lat="42.3806250" lon="-7.9990870">
        <ele>189.2</ele>
        <time>2019-08-17T16:07:05Z</time>
      </trkpt>
      <trkpt lat="42.3806530" lon="-7.9990730">
        <ele>189.3</ele>
        <time>2019-08-17T16:07:06Z</time>
      </trkpt>
      <trkpt lat="42.3806810" lon="-7.9990580">
        <ele>189.4</ele>
        <time>2019-08-17T16:07:07Z</time>
      </trkpt>
      <trkpt lat="42.3807090" lon="-7.9990450">
        <ele>189.6</ele>
        <time>2019-08-17T16:07:08Z</time>
      </trkpt>
      <trkpt lat="42.3807370" lon="-7.9990320">
        <ele>189.7</ele>
        <time>2019-08-17T16:07:09Z</time>
      </trkpt>
      <trkpt lat="42.3807660" lon="-7.9990190">
        <ele>189.8</ele>
        <time>2019-08-17T16:07:10Z</time>
      </trkpt>
      <trkpt lat="42.3807940" lon="-7.9990070">
        <ele>190.0</ele>
        <time>2019-08-17T16:07:11Z</time>
      </trkpt>
      <trkpt lat="42.3808220" lon="-7.9989950">
        <ele>190.1</ele>
        <time>2019-08-17T16:07:12Z</time>
      </trkpt>
      <trkpt lat="42.3808510" lon="-7.9989840">
        <ele>190.2</ele>
        <time>2019-08-17T16:07:13Z</time>
      </trkpt>
      <trkpt lat="42.3808800" lon="-7.9989730">
        <ele>190.4</ele>
        <time>2019-08-17T16:07:14Z</time>
      </trkpt>
      <trkpt lat="42.3809080" lon="-7.9989630">
        <ele>190.5</ele>
        <time>2019-08-17T16:07:15Z</time>
      </trkpt>
      <trkpt lat="42.3809370" lon="-7.9989540">
        <ele>190.8</ele>
        <time>2019-08-17T16:07:16Z</time>
      </trkpt>
      <trkpt lat="42.3809670" lon="-7.9989450">
        <ele>191.0</ele>
        <time>2019-08-17T16:07:17Z</time>
      </trkpt>
      <trkpt lat="42.3809960" lon="-7.9989370">
        <ele>191.2</ele>
        <time>2019-08-17T16:07:18Z</time>
      </trkpt>
      <trkpt lat="42.3810250" lon="-7.9989290">
        <ele>191.3</ele>
        <time>2019-08-17T16:07:19Z</time>
      </trkpt>
      <trkpt lat="42.3810550" lon="-7.9989220">
        <ele>191.5</ele>
        <time>2019-08-17T16:07:20Z</time>
      </trkpt>
      <trkpt lat="42.3810850" lon="-7.9989150">
        <ele>191.7</ele>
        <time>2019-08-17T16:07:21Z</time>
      </trkpt>
      <trkpt lat="42.3811150" lon="-7.9989080">
        <ele>191.8</ele>
        <time>2019-08-17T16:07:22Z</time>
      </trkpt>
      <trkpt lat="42.3811460" lon="-7.9989020">
        <ele>192.0</ele>
        <time>2019-08-17T16:07:23Z</time>
      </trkpt>
      <trkpt lat="42.3811770" lon="-7.9988960">
        <ele>192.2</ele>
        <time>2019-08-17T16:07:24Z</time>
      </trkpt>
      <trkpt lat="42.3812080" lon="-7.9988910">
        <ele>192.3</ele>
        <time>2019-08-17T16:07:25Z</time>
      </trkpt>
      <trkpt lat="42.3812400" lon="-7.9988850">
        <ele>192.5</ele>
        <time>2019-08-17T16:07:26Z</time>
      </trkpt>
      <trkpt lat="42.3812710" lon="-7.9988810">
        <ele>192.6</ele>
        <time>2019-08-17T16:07:27Z</time>
      </trkpt>
      <trkpt lat="42.3813040" lon="-7.9988760">
        <ele>192.8</ele>
        <time>2019-08-17T16:07:28Z</time>
      </trkpt>
      <trkpt lat="42.3813370" lon="-7.9988710">
        <ele>193.0</ele>
        <time>2019-08-17T16:07:29Z</time>
      </trkpt>
      <trkpt lat="42.3813700" lon="-7.9988670">
        <ele>193.1</ele>
        <time>2019-08-17T16:07:30Z</time>
      </trkpt>
      <trkpt lat="42.3814030" lon="-7.9988630">
        <ele>193.3</ele>
        <time>2019-08-17T16:07:31Z</time>
      </trkpt>
      <trkpt lat="42.3814360" lon="-7.9988580">
        <ele>193.4</ele>
        <time>2019-08-17T16:07:32Z</time>
      </trkpt>
      <trkpt lat="42.3814700" lon="-7.9988540">
        <ele>193.6</ele>
        <time>2019-08-17T16:07:33Z</time>
      </trkpt>
      <trkpt lat="42.3815040" lon="-7.9988500">
        <ele>193.7</ele>
        <time>2019-08-17T16:07:34Z</time>
      </trkpt>
      <trkpt lat="42.3815370" lon="-7.9988460">
        <ele>193.9</ele>
        <time>2019-08-17T16:07:35Z</time>
      </trkpt>
      <trkpt lat="42.3815700" lon="-7.9988420">
        <ele>194.0</ele>
        <time>2019-08-17T16:07:36Z</time>
      </trkpt>
      <trkpt lat="42.3816040" lon="-7.9988380">
        <ele>194.2</ele>
        <time>2019-08-17T16:07:37Z</time>
      </trkpt>
      <trkpt lat="42.3816370" lon="-7.9988330">
        <ele>194.3</ele>
        <time>2019-08-17T16:07:38Z</time>
      </trkpt>
      <trkpt lat="42.3816690" lon="-7.9988290">
        <ele>194.5</ele>
        <time>2019-08-17T16:07:39Z</time>
      </trkpt>
      <trkpt lat="42.3817020" lon="-7.9988250">
        <ele>194.7</ele>
        <time>2019-08-17T16:07:40Z</time>
      </trkpt>
      <trkpt lat="42.3817340" lon="-7.9988210">
        <ele>194.8</ele>
        <time>2019-08-17T16:07:41Z</time>
      </trkpt>
      <trkpt lat="42.3817670" lon="-7.9988170">
        <ele>195.0</ele>
        <time>2019-08-17T16:07:42Z</time>
      </trkpt>
      <trkpt lat="42.3817990" lon="-7.9988130">
        <ele>195.1</ele>
        <time>2019-08-17T16:07:43Z</time>
      </trkpt>
      <trkpt lat="42.3818300" lon="-7.9988100">
        <ele>195.3</ele>
        <time>2019-08-17T16:07:44Z</time>
      </trkpt>
      <trkpt lat="42.3818620" lon="-7.9988060">
        <ele>195.4</ele>
        <time>2019-08-17T16:07:45Z</time>
      </trkpt>
      <trkpt lat="42.3818940" lon="-7.9988030">
        <ele>195.6</ele>
        <time>2019-08-17T16:07:46Z</time>
      </trkpt>
      <trkpt lat="42.3819250" lon="-7.9988000">
        <ele>195.7</ele>
        <time>2019-08-17T16:07:47Z</time>
      </trkpt>
      <trkpt lat="42.3819560" lon="-7.9987970">
        <ele>195.9</ele>
        <time>2019-08-17T16:07:48Z</time>
      </trkpt>
      <trkpt lat="42.3819870" lon="-7.9987930">
        <ele>196.0</ele>
        <time>2019-08-17T16:07:49Z</time>
      </trkpt>
      <trkpt lat="42.3820180" lon="-7.9987900">
        <ele>196.1</ele>
        <time>2019-08-17T16:07:50Z</time>
      </trkpt>
      <trkpt lat="42.3820480" lon="-7.9987870">
        <ele>196.3</ele>
        <time>2019-08-17T16:07:51Z</time>
      </trkpt>
      <trkpt lat="42.3820790" lon="-7.9987830">
        <ele>196.4</ele>
        <time>2019-08-17T16:07:52Z</time>
      </trkpt>
      <trkpt lat="42.3821090" lon="-7.9987800">
        <ele>196.6</ele>
        <time>2019-08-17T16:07:53Z</time>
      </trkpt>
      <trkpt lat="42.3821390" lon="-7.9987760">
        <ele>196.7</ele>
        <time>2019-08-17T16:07:54Z</time>
      </trkpt>
      <trkpt lat="42.3821690" lon="-7.9987720">
        <ele>196.9</ele>
        <time>2019-08-17T16:07:55Z</time>
      </trkpt>
      <trkpt lat="42.3821980" lon="-7.9987680">
        <ele>197.0</ele>
        <time>2019-08-17T16:07:56Z</time>
      </trkpt>
      <trkpt lat="42.3822280" lon="-7.9987640">
        <ele>197.1</ele>
        <time>2019-08-17T16:07:57Z</time>
      </trkpt>
      <trkpt lat="42.3822570" lon="-7.9987590">
        <ele>197.3</ele>
        <time>2019-08-17T16:07:58Z</time>
      </trkpt>
      <trkpt lat="42.3822870" lon="-7.9987550">
        <ele>197.4</ele>
        <time>2019-08-17T16:07:59Z</time>
      </trkpt>
      <trkpt lat="42.3823170" lon="-7.9987530">
        <ele>197.6</ele>
        <time>2019-08-17T16:08:00Z</time>
      </trkpt>
      <trkpt lat="42.3823490" lon="-7.9987520">
        <ele>197.7</ele>
        <time>2019-08-17T16:08:01Z</time>
      </trkpt>
      <trkpt lat="42.3824000" lon="-7.9987550">
        <ele>198.0</ele>
        <time>2019-08-17T16:08:02Z</time>
      </trkpt>
      <trkpt lat="42.3824170" lon="-7.9987570">
        <ele>198.1</ele>
        <time>2019-08-17T16:08:03Z</time>
      </trkpt>
      <trkpt lat="42.3824520" lon="-7.9987600">
        <ele>198.2</ele>
        <time>2019-08-17T16:08:04Z</time>
      </trkpt>
      <trkpt lat="42.3824860" lon="-7.9987620">
        <ele>198.4</ele>
        <time>2019-08-17T16:08:05Z</time>
      </trkpt>
      <trkpt lat="42.3825210" lon="-7.9987620">
        <ele>199.0</ele>
        <time>2019-08-17T16:08:06Z</time>
      </trkpt>
      <trkpt lat="42.3825560" lon="-7.9987610">
        <ele>199.3</ele>
        <time>2019-08-17T16:08:07Z</time>
      </trkpt>
      <trkpt lat="42.3825910" lon="-7.9987600">
        <ele>199.7</ele>
        <time>2019-08-17T16:08:08Z</time>
      </trkpt>
      <trkpt lat="42.3826250" lon="-7.9987570">
        <ele>200.0</ele>
        <time>2019-08-17T16:08:09Z</time>
      </trkpt>
      <trkpt lat="42.3826600" lon="-7.9987550">
        <ele>200.3</ele>
        <time>2019-08-17T16:08:10Z</time>
      </trkpt>
      <trkpt lat="42.3826950" lon="-7.9987520">
        <ele>200.7</ele>
        <time>2019-08-17T16:08:11Z</time>
      </trkpt>
      <trkpt lat="42.3827300" lon="-7.9987490">
        <ele>201.0</ele>
        <time>2019-08-17T16:08:12Z</time>
      </trkpt>
      <trkpt lat="42.3827650" lon="-7.9987460">
        <ele>201.4</ele>
        <time>2019-08-17T16:08:13Z</time>
      </trkpt>
      <trkpt lat="42.3828000" lon="-7.9987430">
        <ele>201.7</ele>
        <time>2019-08-17T16:08:14Z</time>
      </trkpt>
      <trkpt lat="42.3828340" lon="-7.9987400">
        <ele>202.1</ele>
        <time>2019-08-17T16:08:15Z</time>
      </trkpt>
      <trkpt lat="42.3828680" lon="-7.9987370">
        <ele>202.4</ele>
        <time>2019-08-17T16:08:16Z</time>
      </trkpt>
      <trkpt lat="42.3829010" lon="-7.9987340">
        <ele>202.7</ele>
        <time>2019-08-17T16:08:17Z</time>
      </trkpt>
      <trkpt lat="42.3829330" lon="-7.9987310">
        <ele>203.1</ele>
        <time>2019-08-17T16:08:18Z</time>
      </trkpt>
      <trkpt lat="42.3829640" lon="-7.9987270">
        <ele>203.4</ele>
        <time>2019-08-17T16:08:19Z</time>
      </trkpt>
      <trkpt lat="42.3829930" lon="-7.9987240">
        <ele>203.7</ele>
        <time>2019-08-17T16:08:20Z</time>
      </trkpt>
      <trkpt lat="42.3830350" lon="-7.9987180">
        <ele>204.2</ele>
        <time>2019-08-17T16:08:21Z</time>
      </trkpt>
      <trkpt lat="42.3830480" lon="-7.9987160">
        <ele>204.3</ele>
        <time>2019-08-17T16:08:22Z</time>
      </trkpt>
      <trkpt lat="42.3830750" lon="-7.9987110">
        <ele>204.7</ele>
        <time>2019-08-17T16:08:23Z</time>
      </trkpt>
      <trkpt lat="42.3831010" lon="-7.9987060">
        <ele>205.0</ele>
        <time>2019-08-17T16:08:24Z</time>
      </trkpt>
      <trkpt lat="42.3831270" lon="-7.9987010">
        <ele>205.4</ele>
        <time>2019-08-17T16:08:25Z</time>
      </trkpt>
      <trkpt lat="42.3831540" lon="-7.9986950">
        <ele>205.7</ele>
        <time>2019-08-17T16:08:26Z</time>
      </trkpt>
      <trkpt lat="42.3831800" lon="-7.9986880">
        <ele>206.1</ele>
        <time>2019-08-17T16:08:27Z</time>
      </trkpt>
      <trkpt lat="42.3832070" lon="-7.9986810">
        <ele>206.5</ele>
        <time>2019-08-17T16:08:28Z</time>
      </trkpt>
      <trkpt lat="42.3832340" lon="-7.9986740">
        <ele>206.9</ele>
        <time>2019-08-17T16:08:29Z</time>
      </trkpt>
      <trkpt lat="42.3832620" lon="-7.9986660">
        <ele>207.3</ele>
        <time>2019-08-17T16:08:30Z</time>
      </trkpt>
      <trkpt lat="42.3832890" lon="-7.9986570">
        <ele>207.7</ele>
        <time>2019-08-17T16:08:31Z</time>
      </trkpt>
      <trkpt lat="42.3833160" lon="-7.9986480">
        <ele>208.1</ele>
        <time>2019-08-17T16:08:32Z</time>
      </trkpt>
      <trkpt lat="42.3833440" lon="-7.9986380">
        <ele>208.5</ele>
        <time>2019-08-17T16:08:33Z</time>
      </trkpt>
      <trkpt lat="42.3833700" lon="-7.9986270">
        <ele>208.9</ele>
        <time>2019-08-17T16:08:34Z</time>
      </trkpt>
      <trkpt lat="42.3833970" lon="-7.9986150">
        <ele>209.3</ele>
        <time>2019-08-17T16:08:35Z</time>
      </trkpt>
      <trkpt lat="42.3834230" lon="-7.9986030">
        <ele>209.7</ele>
        <time>2019-08-17T16:08:36Z</time>
      </trkpt>
      <trkpt lat="42.3834490" lon="-7.9985900">
        <ele>210.1</ele>
        <time>2019-08-17T16:08:37Z</time>
      </trkpt>
      <trkpt lat="42.3834750" lon="-7.9985770">
        <ele>210.6</ele>
        <time>2019-08-17T16:08:38Z</time>
      </trkpt>
      <trkpt lat="42.3835010" lon="-7.9985620">
        <ele>211.0</ele>
        <time>2019-08-17T16:08:39Z</time>
      </trkpt>
      <trkpt lat="42.3835260" lon="-7.9985470">
        <ele>211.4</ele>
        <time>2019-08-17T16:08:40Z</time>
      </trkpt>
      <trkpt lat="42.3835520" lon="-7.9985310">
        <ele>211.8</ele>
        <time>2019-08-17T16:08:41Z</time>
      </trkpt>
      <trkpt lat="42.3835770" lon="-7.9985150">
        <ele>212.2</ele>
        <time>2019-08-17T16:08:42Z</time>
      </trkpt>
      <trkpt lat="42.3836030" lon="-7.9984970">
        <ele>212.6</ele>
        <time>2019-08-17T16:08:43Z</time>
      </trkpt>
      <trkpt lat="42.3836280" lon="-7.9984800">
        <ele>213.0</ele>
        <time>2019-08-17T16:08:44Z</time>
      </trkpt>
      <trkpt lat="42.3836540" lon="-7.9984610">
        <ele>213.4</ele>
        <time>2019-08-17T16:08:45Z</time>
      </trkpt>
      <trkpt lat="42.3836790" lon="-7.9984430">
        <ele>213.8</ele>
        <time>2019-08-17T16:08:46Z</time>
      </trkpt>
      <trkpt lat="42.3837040" lon="-7.9984240">
        <ele>214.2</ele>
        <time>2019-08-17T16:08:47Z</time>
      </trkpt>
      <trkpt lat="42.3837290" lon="-7.9984040">
        <ele>214.5</ele>
        <time>2019-08-17T16:08:48Z</time>
      </trkpt>
      <trkpt lat="42.3837540" lon="-7.9983850">
        <ele>214.9</ele>
        <time>2019-08-17T16:08:49Z</time>
      </trkpt>
      <trkpt lat="42.3837790" lon="-7.9983660">
        <ele>215.3</ele>
        <time>2019-08-17T16:08:50Z</time>
      </trkpt>
      <trkpt lat="42.3838040" lon="-7.9983470">
        <ele>215.6</ele>
        <time>2019-08-17T16:08:51Z</time>
      </trkpt>
      <trkpt lat="42.3838290" lon="-7.9983280">
        <ele>215.9</ele>
        <time>2019-08-17T16:08:52Z</time>
      </trkpt>
      <trkpt lat="42.3838530" lon="-7.9983090">
        <ele>216.2</ele>
        <time>2019-08-17T16:08:53Z</time>
      </trkpt>
      <trkpt lat="42.3838770" lon="-7.9982910">
        <ele>216.6</ele>
        <time>2019-08-17T16:08:54Z</time>
      </trkpt>
      <trkpt lat="42.3839010" lon="-7.9982730">
        <ele>216.9</ele>
        <time>2019-08-17T16:08:55Z</time>
      </trkpt>
      <trkpt lat="42.3839240" lon="-7.9982560">
        <ele>217.2</ele>
        <time>2019-08-17T16:08:56Z</time>
      </trkpt>
      <trkpt lat="42.3839480" lon="-7.9982390">
        <ele>217.4</ele>
        <time>2019-08-17T16:08:57Z</time>
      </trkpt>
      <trkpt lat="42.3839710" lon="-7.9982240">
        <ele>217.6</ele>
        <time>2019-08-17T16:08:58Z</time>
      </trkpt>
      <trkpt lat="42.3839940" lon="-7.9982110">
        <ele>217.8</ele>
        <time>2019-08-17T16:08:59Z</time>
      </trkpt>
      <trkpt lat="42.3840160" lon="-7.9982010">
        <ele>217.9</ele>
        <time>2019-08-17T16:09:00Z</time>
      </trkpt>
      <trkpt lat="42.3840390" lon="-7.9981940">
        <ele>218.1</ele>
        <time>2019-08-17T16:09:01Z</time>
      </trkpt>
      <trkpt lat="42.3840610" lon="-7.9981880">
        <ele>218.3</ele>
        <time>2019-08-17T16:09:02Z</time>
      </trkpt>
      <trkpt lat="42.3840840" lon="-7.9981820">
        <ele>218.5</ele>
        <time>2019-08-17T16:09:03Z</time>
      </trkpt>
      <trkpt lat="42.3841080" lon="-7.9981740">
        <ele>218.6</ele>
        <time>2019-08-17T16:09:04Z</time>
      </trkpt>
      <trkpt lat="42.3841320" lon="-7.9981650">
        <ele>218.8</ele>
        <time>2019-08-17T16:09:05Z</time>
      </trkpt>
      <trkpt lat="42.3841550" lon="-7.9981540">
        <ele>219.0</ele>
        <time>2019-08-17T16:09:06Z</time>
      </trkpt>
      <trkpt lat="42.3841790" lon="-7.9981420">
        <ele>219.2</ele>
        <time>2019-08-17T16:09:07Z</time>
      </trkpt>
      <trkpt lat="42.3842020" lon="-7.9981290">
        <ele>219.4</ele>
        <time>2019-08-17T16:09:08Z</time>
      </trkpt>
      <trkpt lat="42.3842240" lon="-7.9981170">
        <ele>219.6</ele>
        <time>2019-08-17T16:09:09Z</time>
      </trkpt>
      <trkpt lat="42.3842470" lon="-7.9981040">
        <ele>219.8</ele>
        <time>2019-08-17T16:09:10Z</time>
      </trkpt>
      <trkpt lat="42.3842700" lon="-7.9980920">
        <ele>220.0</ele>
        <time>2019-08-17T16:09:11Z</time>
      </trkpt>
      <trkpt lat="42.3842940" lon="-7.9980800">
        <ele>220.2</ele>
        <time>2019-08-17T16:09:12Z</time>
      </trkpt>
      <trkpt lat="42.3843180" lon="-7.9980680">
        <ele>220.4</ele>
        <time>2019-08-17T16:09:13Z</time>
      </trkpt>
      <trkpt lat="42.3843420" lon="-7.9980560">
        <ele>220.6</ele>
        <time>2019-08-17T16:09:14Z</time>
      </trkpt>
      <trkpt lat="42.3843670" lon="-7.9980450">
        <ele>220.7</ele>
        <time>2019-08-17T16:09:15Z</time>
      </trkpt>
      <trkpt lat="42.3843920" lon="-7.9980340">
        <ele>220.9</ele>
        <time>2019-08-17T16:09:16Z</time>
      </trkpt>
      <trkpt lat="42.3844170" lon="-7.9980230">
        <ele>221.0</ele>
        <time>2019-08-17T16:09:17Z</time>
      </trkpt>
      <trkpt lat="42.3844430" lon="-7.9980120">
        <ele>221.2</ele>
        <time>2019-08-17T16:09:18Z</time>
      </trkpt>
      <trkpt lat="42.3844690" lon="-7.9980020">
        <ele>221.4</ele>
        <time>2019-08-17T16:09:19Z</time>
      </trkpt>
      <trkpt lat="42.3844950" lon="-7.9979910">
        <ele>221.5</ele>
        <time>2019-08-17T16:09:20Z</time>
      </trkpt>
      <trkpt lat="42.3845210" lon="-7.9979810">
        <ele>221.7</ele>
        <time>2019-08-17T16:09:21Z</time>
      </trkpt>
      <trkpt lat="42.3845470" lon="-7.9979720">
        <ele>221.9</ele>
        <time>2019-08-17T16:09:22Z</time>
      </trkpt>
      <trkpt lat="42.3845740" lon="-7.9979620">
        <ele>222.0</ele>
        <time>2019-08-17T16:09:23Z</time>
      </trkpt>
      <trkpt lat="42.3846010" lon="-7.9979530">
        <ele>222.2</ele>
        <time>2019-08-17T16:09:24Z</time>
      </trkpt>
      <trkpt lat="42.3846270" lon="-7.9979430">
        <ele>222.4</ele>
        <time>2019-08-17T16:09:25Z</time>
      </trkpt>
      <trkpt lat="42.3846540" lon="-7.9979340">
        <ele>222.6</ele>
        <time>2019-08-17T16:09:26Z</time>
      </trkpt>
      <trkpt lat="42.3846810" lon="-7.9979260">
        <ele>222.9</ele>
        <time>2019-08-17T16:09:27Z</time>
      </trkpt>
      <trkpt lat="42.3847080" lon="-7.9979170">
        <ele>223.1</ele>
        <time>2019-08-17T16:09:28Z</time>
      </trkpt>
      <trkpt lat="42.3847340" lon="-7.9979090">
        <ele>223.3</ele>
        <time>2019-08-17T16:09:29Z</time>
      </trkpt>
      <trkpt lat="42.3847600" lon="-7.9979000">
        <ele>223.6</ele>
        <time>2019-08-17T16:09:30Z</time>
      </trkpt>
      <trkpt lat="42.3847860" lon="-7.9978930">
        <ele>223.8</ele>
        <time>2019-08-17T16:09:31Z</time>
      </trkpt>
      <trkpt lat="42.3848120" lon="-7.9978850">
        <ele>224.0</ele>
        <time>2019-08-17T16:09:32Z</time>
      </trkpt>
      <trkpt lat="42.3848360" lon="-7.9978780">
        <ele>224.2</ele>
        <time>2019-08-17T16:09:33Z</time>
      </trkpt>
      <trkpt lat="42.3848610" lon="-7.9978710">
        <ele>224.4</ele>
        <time>2019-08-17T16:09:34Z</time>
      </trkpt>
      <trkpt lat="42.3848840" lon="-7.9978650">
        <ele>224.6</ele>
        <time>2019-08-17T16:09:35Z</time>
      </trkpt>
      <trkpt lat="42.3849070" lon="-7.9978590">
        <ele>224.8</ele>
        <time>2019-08-17T16:09:36Z</time>
      </trkpt>
      <trkpt lat="42.3849290" lon="-7.9978530">
        <ele>224.9</ele>
        <time>2019-08-17T16:09:37Z</time>
      </trkpt>
      <trkpt lat="42.3849510" lon="-7.9978490">
        <ele>225.1</ele>
        <time>2019-08-17T16:09:38Z</time>
      </trkpt>
      <trkpt lat="42.3849720" lon="-7.9978450">
        <ele>225.3</ele>
        <time>2019-08-17T16:09:39Z</time>
      </trkpt>
      <trkpt lat="42.3849920" lon="-7.9978420">
        <ele>225.4</ele>
        <time>2019-08-17T16:09:40Z</time>
      </trkpt>
      <trkpt lat="42.3850110" lon="-7.9978390">
        <ele>225.6</ele>
        <time>2019-08-17T16:09:41Z</time>
      </trkpt>
      <trkpt lat="42.3850310" lon="-7.9978370">
        <ele>225.7</ele>
        <time>2019-08-17T16:09:42Z</time>
      </trkpt>
      <trkpt lat="42.3850500" lon="-7.9978350">
        <ele>225.8</ele>
        <time>2019-08-17T16:09:43Z</time>
      </trkpt>
      <trkpt lat="42.3850690" lon="-7.9978340">
        <ele>225.9</ele>
        <time>2019-08-17T16:09:44Z</time>
      </trkpt>
      <trkpt lat="42.3850880" lon="-7.9978320">
        <ele>226.0</ele>
        <time>2019-08-17T16:09:45Z</time>
      </trkpt>
      <trkpt lat="42.3851080" lon="-7.9978310">
        <ele>226.1</ele>
        <time>2019-08-17T16:09:46Z</time>
      </trkpt>
      <trkpt lat="42.3851290" lon="-7.9978290">
        <ele>226.3</ele>
        <time>2019-08-17T16:09:47Z</time>
      </trkpt>
      <trkpt lat="42.3851510" lon="-7.9978260">
        <ele>226.4</ele>
        <time>2019-08-17T16:09:48Z</time>
      </trkpt>
      <trkpt lat="42.3851730" lon="-7.9978230">
        <ele>226.5</ele>
        <time>2019-08-17T16:09:49Z</time>
      </trkpt>
      <trkpt lat="42.3851960" lon="-7.9978190">
        <ele>226.6</ele>
        <time>2019-08-17T16:09:50Z</time>
      </trkpt>
      <trkpt lat="42.3852200" lon="-7.9978150">
        <ele>226.8</ele>
        <time>2019-08-17T16:09:51Z</time>
      </trkpt>
      <trkpt lat="42.3852430" lon="-7.9978090">
        <ele>226.9</ele>
        <time>2019-08-17T16:09:52Z</time>
      </trkpt>
      <trkpt lat="42.3852670" lon="-7.9978030">
        <ele>227.0</ele>
        <time>2019-08-17T16:09:53Z</time>
      </trkpt>
      <trkpt lat="42.3852910" lon="-7.9977950">
        <ele>227.2</ele>
        <time>2019-08-17T16:09:54Z</time>
      </trkpt>
      <trkpt lat="42.3853140" lon="-7.9977860">
        <ele>227.3</ele>
        <time>2019-08-17T16:09:55Z</time>
      </trkpt>
      <trkpt lat="42.3853370" lon="-7.9977770">
        <ele>227.4</ele>
        <time>2019-08-17T16:09:56Z</time>
      </trkpt>
      <trkpt lat="42.3853610" lon="-7.9977670">
        <ele>227.5</ele>
        <time>2019-08-17T16:09:57Z</time>
      </trkpt>
      <trkpt lat="42.3853850" lon="-7.9977580">
        <ele>227.7</ele>
        <time>2019-08-17T16:09:58Z</time>
      </trkpt>
      <trkpt lat="42.3854090" lon="-7.9977500">
        <ele>227.8</ele>
        <time>2019-08-17T16:09:59Z</time>
      </trkpt>
      <trkpt lat="42.3854340" lon="-7.9977430">
        <ele>227.9</ele>
        <time>2019-08-17T16:10:00Z</time>
      </trkpt>
      <trkpt lat="42.3854610" lon="-7.9977370">
        <ele>228.0</ele>
        <time>2019-08-17T16:10:01Z</time>
      </trkpt>
      <trkpt lat="42.3854880" lon="-7.9977350">
        <ele>228.2</ele>
        <time>2019-08-17T16:10:02Z</time>
      </trkpt>
      <trkpt lat="42.3855160" lon="-7.9977340">
        <ele>228.3</ele>
        <time>2019-08-17T16:10:03Z</time>
      </trkpt>
      <trkpt lat="42.3855450" lon="-7.9977340">
        <ele>228.5</ele>
        <time>2019-08-17T16:10:04Z</time>
      </trkpt>
      <trkpt lat="42.3855750" lon="-7.9977350">
        <ele>228.6</ele>
        <time>2019-08-17T16:10:05Z</time>
      </trkpt>
      <trkpt lat="42.3856040" lon="-7.9977350">
        <ele>228.7</ele>
        <time>2019-08-17T16:10:06Z</time>
      </trkpt>
      <trkpt lat="42.3856330" lon="-7.9977350">
        <ele>228.9</ele>
        <time>2019-08-17T16:10:07Z</time>
      </trkpt>
      <trkpt lat="42.3856610" lon="-7.9977350">
        <ele>229.0</ele>
        <time>2019-08-17T16:10:08Z</time>
      </trkpt>
      <trkpt lat="42.3856900" lon="-7.9977340">
        <ele>229.1</ele>
        <time>2019-08-17T16:10:09Z</time>
      </trkpt>
      <trkpt lat="42.3857180" lon="-7.9977320">
        <ele>229.3</ele>
        <time>2019-08-17T16:10:10Z</time>
      </trkpt>
      <trkpt lat="42.3857460" lon="-7.9977300">
        <ele>229.4</ele>
        <time>2019-08-17T16:10:11Z</time>
      </trkpt>
      <trkpt lat="42.3857740" lon="-7.9977270">
        <ele>229.5</ele>
        <time>2019-08-17T16:10:12Z</time>
      </trkpt>
      <trkpt lat="42.3858020" lon="-7.9977240">
        <ele>229.7</ele>
        <time>2019-08-17T16:10:13Z</time>
      </trkpt>
      <trkpt lat="42.3858290" lon="-7.9977200">
        <ele>229.8</ele>
        <time>2019-08-17T16:10:14Z</time>
      </trkpt>
      <trkpt lat="42.3858570" lon="-7.9977160">
        <ele>229.9</ele>
        <time>2019-08-17T16:10:15Z</time>
      </trkpt>
      <trkpt lat="42.3858850" lon="-7.9977110">
        <ele>230.3</ele>
        <time>2019-08-17T16:10:16Z</time>
      </trkpt>
      <trkpt lat="42.3859120" lon="-7.9977070">
        <ele>230.5</ele>
        <time>2019-08-17T16:10:17Z</time>
      </trkpt>
      <trkpt lat="42.3859400" lon="-7.9977020">
        <ele>230.7</ele>
        <time>2019-08-17T16:10:18Z</time>
      </trkpt>
      <trkpt lat="42.3859680" lon="-7.9976970">
        <ele>231.0</ele>
        <time>2019-08-17T16:10:19Z</time>
      </trkpt>
      <trkpt lat="42.3859960" lon="-7.9976930">
        <ele>231.2</ele>
        <time>2019-08-17T16:10:20Z</time>
      </trkpt>
      <trkpt lat="42.3860240" lon="-7.9976880">
        <ele>231.4</ele>
        <time>2019-08-17T16:10:21Z</time>
      </trkpt>
      <trkpt lat="42.3860520" lon="-7.9976840">
        <ele>231.6</ele>
        <time>2019-08-17T16:10:22Z</time>
      </trkpt>
      <trkpt lat="42.3860960" lon="-7.9976780">
        <ele>232.0</ele>
        <time>2019-08-17T16:10:23Z</time>
      </trkpt>
      <trkpt lat="42.3861100" lon="-7.9976760">
        <ele>232.1</ele>
        <time>2019-08-17T16:10:24Z</time>
      </trkpt>
      <trkpt lat="42.3861390" lon="-7.9976720">
        <ele>232.3</ele>
        <time>2019-08-17T16:10:25Z</time>
      </trkpt>
      <trkpt lat="42.3861690" lon="-7.9976680">
        <ele>232.5</ele>
        <time>2019-08-17T16:10:26Z</time>
      </trkpt>
      <trkpt lat="42.3861990" lon="-7.9976650">
        <ele>232.8</ele>
        <time>2019-08-17T16:10:27Z</time>
      </trkpt>
      <trkpt lat="42.3862290" lon="-7.9976610">
        <ele>233.0</ele>
        <time>2019-08-17T16:10:28Z</time>
      </trkpt>
      <trkpt lat="42.3862600" lon="-7.9976570">
        <ele>233.3</ele>
        <time>2019-08-17T16:10:29Z</time>
      </trkpt>
      <trkpt lat="42.3862900" lon="-7.9976520">
        <ele>233.5</ele>
        <time>2019-08-17T16:10:30Z</time>
      </trkpt>
      <trkpt lat="42.3863200" lon="-7.9976480">
        <ele>233.8</ele>
        <time>2019-08-17T16:10:31Z</time>
      </trkpt>
      <trkpt lat="42.3863500" lon="-7.9976440">
        <ele>234.0</ele>
        <time>2019-08-17T16:10:32Z</time>
      </trkpt>
      <trkpt lat="42.3863800" lon="-7.9976400">
        <ele>234.2</ele>
        <time>2019-08-17T16:10:33Z</time>
      </trkpt>
      <trkpt lat="42.3864090" lon="-7.9976360">
        <ele>234.5</ele>
        <time>2019-08-17T16:10:34Z</time>
      </trkpt>
      <trkpt lat="42.3864380" lon="-7.9976320">
        <ele>234.7</ele>
        <time>2019-08-17T16:10:35Z</time>
      </trkpt>
      <trkpt lat="42.3864660" lon="-7.9976280">
        <ele>235.0</ele>
        <time>2019-08-17T16:10:36Z</time>
      </trkpt>
      <trkpt lat="42.3864940" lon="-7.9976240">
        <ele>235.2</ele>
        <time>2019-08-17T16:10:37Z</time>
      </trkpt>
      <trkpt lat="42.3865230" lon="-7.9976210">
        <ele>235.5</ele>
        <time>2019-08-17T16:10:38Z</time>
      </trkpt>
      <trkpt lat="42.3865510" lon="-7.9976170">
        <ele>235.7</ele>
        <time>2019-08-17T16:10:39Z</time>
      </trkpt>
      <trkpt lat="42.3865790" lon="-7.9976140">
        <ele>236.0</ele>
        <time>2019-08-17T16:10:40Z</time>
      </trkpt>
      <trkpt lat="42.3866070" lon="-7.9976110">
        <ele>236.2</ele>
        <time>2019-08-17T16:10:41Z</time>
      </trkpt>
      <trkpt lat="42.3866350" lon="-7.9976080">
        <ele>236.5</ele>
        <time>2019-08-17T16:10:42Z</time>
      </trkpt>
      <trkpt lat="42.3866630" lon="-7.9976060">
        <ele>236.7</ele>
        <time>2019-08-17T16:10:43Z</time>
      </trkpt>
      <trkpt lat="42.3866910" lon="-7.9976040">
        <ele>237.0</ele>
        <time>2019-08-17T16:10:44Z</time>
      </trkpt>
      <trkpt lat="42.3867190" lon="-7.9976020">
        <ele>237.2</ele>
        <time>2019-08-17T16:10:45Z</time>
      </trkpt>
      <trkpt lat="42.3867470" lon="-7.9976010">
        <ele>237.5</ele>
        <time>2019-08-17T16:10:46Z</time>
      </trkpt>
      <trkpt lat="42.3867750" lon="-7.9976010">
        <ele>237.7</ele>
        <time>2019-08-17T16:10:47Z</time>
      </trkpt>
      <trkpt lat="42.3868030" lon="-7.9976010">
        <ele>238.0</ele>
        <time>2019-08-17T16:10:48Z</time>
      </trkpt>
      <trkpt lat="42.3868310" lon="-7.9976020">
        <ele>238.2</ele>
        <time>2019-08-17T16:10:49Z</time>
      </trkpt>
      <trkpt lat="42.3868590" lon="-7.9976030">
        <ele>238.5</ele>
        <time>2019-08-17T16:10:50Z</time>
      </trkpt>
      <trkpt lat="42.3868870" lon="-7.9976050">
        <ele>238.7</ele>
        <time>2019-08-17T16:10:51Z</time>
      </trkpt>
      <trkpt lat="42.3869150" lon="-7.9976080">
        <ele>238.9</ele>
        <time>2019-08-17T16:10:52Z</time>
      </trkpt>
      <trkpt lat="42.3869430" lon="-7.9976120">
        <ele>239.1</ele>
        <time>2019-08-17T16:10:53Z</time>
      </trkpt>
      <trkpt lat="42.3869710" lon="-7.9976160">
        <ele>239.4</ele>
        <time>2019-08-17T16:10:54Z</time>
      </trkpt>
      <trkpt lat="42.3869980" lon="-7.9976220">
        <ele>239.6</ele>
        <time>2019-08-17T16:10:55Z</time>
      </trkpt>
      <trkpt lat="42.3870260" lon="-7.9976280">
        <ele>239.8</ele>
        <time>2019-08-17T16:10:56Z</time>
      </trkpt>
      <trkpt lat="42.3870540" lon="-7.9976350">
        <ele>240.0</ele>
        <time>2019-08-17T16:10:57Z</time>
      </trkpt>
      <trkpt lat="42.3870810" lon="-7.9976440">
        <ele>240.2</ele>
        <time>2019-08-17T16:10:58Z</time>
      </trkpt>
      <trkpt lat="42.3871080" lon="-7.9976530">
        <ele>240.4</ele>
        <time>2019-08-17T16:10:59Z</time>
      </trkpt>
      <trkpt lat="42.3871350" lon="-7.9976630">
        <ele>240.5</ele>
        <time>2019-08-17T16:11:00Z</time>
      </trkpt>
      <trkpt lat="42.3871620" lon="-7.9976750">
        <ele>240.7</ele>
        <time>2019-08-17T16:11:01Z</time>
      </trkpt>
      <trkpt lat="42.3871880" lon="-7.9976870">
        <ele>240.9</ele>
        <time>2019-08-17T16:11:02Z</time>
      </trkpt>
      <trkpt lat="42.3872140" lon="-7.9977010">
        <ele>241.1</ele>
        <time>2019-08-17T16:11:03Z</time>
      </trkpt>
      <trkpt lat="42.3872400" lon="-7.9977160">
        <ele>241.3</ele>
        <time>2019-08-17T16:11:04Z</time>
      </trkpt>
      <trkpt lat="42.3872650" lon="-7.9977310">
        <ele>241.4</ele>
        <time>2019-08-17T16:11:05Z</time>
      </trkpt>
      <trkpt lat="42.3872900" lon="-7.9977490">
        <ele>241.6</ele>
        <time>2019-08-17T16:11:06Z</time>
      </trkpt>
      <trkpt lat="42.3873150" lon="-7.9977670">
        <ele>241.7</ele>
        <time>2019-08-17T16:11:07Z</time>
      </trkpt>
      <trkpt lat="42.3873380" lon="-7.9977860">
        <ele>241.9</ele>
        <time>2019-08-17T16:11:08Z</time>
      </trkpt>
      <trkpt lat="42.3873610" lon="-7.9978060">
        <ele>242.0</ele>
        <time>2019-08-17T16:11:09Z</time>
      </trkpt>
      <trkpt lat="42.3873830" lon="-7.9978260">
        <ele>242.2</ele>
        <time>2019-08-17T16:11:10Z</time>
      </trkpt>
      <trkpt lat="42.3874030" lon="-7.9978450">
        <ele>242.3</ele>
        <time>2019-08-17T16:11:11Z</time>
      </trkpt>
      <trkpt lat="42.3874220" lon="-7.9978630">
        <ele>242.4</ele>
        <time>2019-08-17T16:11:12Z</time>
      </trkpt>
      <trkpt lat="42.3874390" lon="-7.9978790">
        <ele>242.5</ele>
        <time>2019-08-17T16:11:13Z</time>
      </trkpt>
      <trkpt lat="42.3874550" lon="-7.9978950">
        <ele>242.7</ele>
        <time>2019-08-17T16:11:14Z</time>
      </trkpt>
      <trkpt lat="42.3874690" lon="-7.9979090">
        <ele>242.8</ele>
        <time>2019-08-17T16:11:15Z</time>
      </trkpt>
      <trkpt lat="42.3874820" lon="-7.9979220">
        <ele>242.8</ele>
        <time>2019-08-17T16:11:16Z</time>
      </trkpt>
      <trkpt lat="42.3874940" lon="-7.9979350">
        <ele>242.9</ele>
        <time>2019-08-17T16:11:17Z</time>
      </trkpt>
      <trkpt lat="42.3875070" lon="-7.9979480">
        <ele>243.0</ele>
        <time>2019-08-17T16:11:18Z</time>
      </trkpt>
      <trkpt lat="42.3875220" lon="-7.9979630">
        <ele>243.1</ele>
        <time>2019-08-17T16:11:19Z</time>
      </trkpt>
      <trkpt lat="42.3875380" lon="-7.9979790">
        <ele>243.2</ele>
        <time>2019-08-17T16:11:20Z</time>
      </trkpt>
      <trkpt lat="42.3875570" lon="-7.9979970">
        <ele>243.3</ele>
        <time>2019-08-17T16:11:21Z</time>
      </trkpt>
      <trkpt lat="42.3875750" lon="-7.9980170">
        <ele>243.5</ele>
        <time>2019-08-17T16:11:22Z</time>
      </trkpt>
      <trkpt lat="42.3875940" lon="-7.9980380">
        <ele>243.6</ele>
        <time>2019-08-17T16:11:23Z</time>
      </trkpt>
      <trkpt lat="42.3876120" lon="-7.9980610">
        <ele>243.7</ele>
        <time>2019-08-17T16:11:24Z</time>
      </trkpt>
      <trkpt lat="42.3876300" lon="-7.9980850">
        <ele>243.9</ele>
        <time>2019-08-17T16:11:25Z</time>
      </trkpt>
      <trkpt lat="42.3876470" lon="-7.9981110">
        <ele>244.0</ele>
        <time>2019-08-17T16:11:26Z</time>
      </trkpt>
      <trkpt lat="42.3876630" lon="-7.9981370">
        <ele>244.2</ele>
        <time>2019-08-17T16:11:27Z</time>
      </trkpt>
      <trkpt lat="42.3876780" lon="-7.9981640">
        <ele>244.3</ele>
        <time>2019-08-17T16:11:28Z</time>
      </trkpt>
      <trkpt lat="42.3876930" lon="-7.9981910">
        <ele>244.4</ele>
        <time>2019-08-17T16:11:29Z</time>
      </trkpt>
      <trkpt lat="42.3877060" lon="-7.9982180">
        <ele>244.6</ele>
        <time>2019-08-17T16:11:30Z</time>
      </trkpt>
      <trkpt lat="42.3877190" lon="-7.9982450">
        <ele>244.7</ele>
        <time>2019-08-17T16:11:31Z</time>
      </trkpt>
      <trkpt lat="42.3877310" lon="-7.9982720">
        <ele>244.9</ele>
        <time>2019-08-17T16:11:32Z</time>
      </trkpt>
      <trkpt lat="42.3877430" lon="-7.9983000">
        <ele>245.0</ele>
        <time>2019-08-17T16:11:33Z</time>
      </trkpt>
      <trkpt lat="42.3877540" lon="-7.9983270">
        <ele>245.1</ele>
        <time>2019-08-17T16:11:34Z</time>
      </trkpt>
      <trkpt lat="42.3877660" lon="-7.9983540">
        <ele>245.3</ele>
        <time>2019-08-17T16:11:35Z</time>
      </trkpt>
      <trkpt lat="42.3877770" lon="-7.9983800">
        <ele>245.4</ele>
        <time>2019-08-17T16:11:36Z</time>
      </trkpt>
      <trkpt lat="42.3877900" lon="-7.9984070">
        <ele>245.6</ele>
        <time>2019-08-17T16:11:37Z</time>
      </trkpt>
      <trkpt lat="42.3878020" lon="-7.9984330">
        <ele>245.7</ele>
        <time>2019-08-17T16:11:38Z</time>
      </trkpt>
      <trkpt lat="42.3878150" lon="-7.9984590">
        <ele>245.9</ele>
        <time>2019-08-17T16:11:39Z</time>
      </trkpt>
      <trkpt lat="42.3878290" lon="-7.9984850">
        <ele>246.0</ele>
        <time>2019-08-17T16:11:40Z</time>
      </trkpt>
      <trkpt lat="42.3878420" lon="-7.9985110">
        <ele>246.2</ele>
        <time>2019-08-17T16:11:41Z</time>
      </trkpt>
      <trkpt lat="42.3878570" lon="-7.9985360">
        <ele>246.3</ele>
        <time>2019-08-17T16:11:42Z</time>
      </trkpt>
      <trkpt lat="42.3878710" lon="-7.9985620">
        <ele>246.5</ele>
        <time>2019-08-17T16:11:43Z</time>
      </trkpt>
      <trkpt lat="42.3878870" lon="-7.9985880">
        <ele>246.6</ele>
        <time>2019-08-17T16:11:44Z</time>
      </trkpt>
      <trkpt lat="42.3879020" lon="-7.9986140">
        <ele>246.8</ele>
        <time>2019-08-17T16:11:45Z</time>
      </trkpt>
      <trkpt lat="42.3879180" lon="-7.9986400">
        <ele>247.0</ele>
        <time>2019-08-17T16:11:46Z</time>
      </trkpt>
      <trkpt lat="42.3879340" lon="-7.9986660">
        <ele>247.1</ele>
        <time>2019-08-17T16:11:47Z</time>
      </trkpt>
      <trkpt lat="42.3879510" lon="-7.9986930">
        <ele>247.3</ele>
        <time>2019-08-17T16:11:48Z</time>
      </trkpt>
      <trkpt lat="42.3879680" lon="-7.9987200">
        <ele>247.5</ele>
        <time>2019-08-17T16:11:49Z</time>
      </trkpt>
      <trkpt lat="42.3879860" lon="-7.9987480">
        <ele>247.6</ele>
        <time>2019-08-17T16:11:50Z</time>
      </trkpt>
      <trkpt lat="42.3880040" lon="-7.9987750">
        <ele>247.8</ele>
        <time>2019-08-17T16:11:51Z</time>
      </trkpt>
      <trkpt lat="42.3880220" lon="-7.9988040">
        <ele>248.0</ele>
        <time>2019-08-17T16:11:52Z</time>
      </trkpt>
      <trkpt lat="42.3880410" lon="-7.9988320">
        <ele>248.2</ele>
        <time>2019-08-17T16:11:53Z</time>
      </trkpt>
      <trkpt lat="42.3880600" lon="-7.9988610">
        <ele>248.4</ele>
        <time>2019-08-17T16:11:54Z</time>
      </trkpt>
      <trkpt lat="42.3880790" lon="-7.9988900">
        <ele>248.5</ele>
        <time>2019-08-17T16:11:55Z</time>
      </trkpt>
      <trkpt lat="42.3880990" lon="-7.9989190">
        <ele>248.7</ele>
        <time>2019-08-17T16:11:56Z</time>
      </trkpt>
      <trkpt lat="42.3881190" lon="-7.9989470">
        <ele>248.9</ele>
        <time>2019-08-17T16:11:57Z</time>
      </trkpt>
      <trkpt lat="42.3881390" lon="-7.9989740">
        <ele>249.1</ele>
        <time>2019-08-17T16:11:58Z</time>
      </trkpt>
      <trkpt lat="42.3881590" lon="-7.9990020">
        <ele>249.2</ele>
        <time>2019-08-17T16:11:59Z</time>
      </trkpt>
      <trkpt lat="42.3881800" lon="-7.9990280">
        <ele>249.4</ele>
        <time>2019-08-17T16:12:00Z</time>
      </trkpt>
      <trkpt lat="42.3882010" lon="-7.9990530">
        <ele>249.5</ele>
        <time>2019-08-17T16:12:01Z</time>
      </trkpt>
      <trkpt lat="42.3882230" lon="-7.9990780">
        <ele>249.7</ele>
        <time>2019-08-17T16:12:02Z</time>
      </trkpt>
      <trkpt lat="42.3882440" lon="-7.9991020">
        <ele>249.9</ele>
        <time>2019-08-17T16:12:03Z</time>
      </trkpt>
      <trkpt lat="42.3882660" lon="-7.9991250">
        <ele>250.0</ele>
        <time>2019-08-17T16:12:04Z</time>
      </trkpt>
      <trkpt lat="42.3882880" lon="-7.9991470">
        <ele>250.2</ele>
        <time>2019-08-17T16:12:05Z</time>
      </trkpt>
      <trkpt lat="42.3883110" lon="-7.9991670">
        <ele>250.3</ele>
        <time>2019-08-17T16:12:06Z</time>
      </trkpt>
      <trkpt lat="42.3883340" lon="-7.9991870">
        <ele>250.5</ele>
        <time>2019-08-17T16:12:07Z</time>
      </trkpt>
      <trkpt lat="42.3883570" lon="-7.9992060">
        <ele>250.6</ele>
        <time>2019-08-17T16:12:08Z</time>
      </trkpt>
      <trkpt lat="42.3883800" lon="-7.9992240">
        <ele>250.8</ele>
        <time>2019-08-17T16:12:09Z</time>
      </trkpt>
      <trkpt lat="42.3884030" lon="-7.9992410">
        <ele>250.9</ele>
        <time>2019-08-17T16:12:10Z</time>
      </trkpt>
      <trkpt lat="42.3884270" lon="-7.9992570">
        <ele>251.1</ele>
        <time>2019-08-17T16:12:11Z</time>
      </trkpt>
      <trkpt lat="42.3884510" lon="-7.9992720">
        <ele>251.2</ele>
        <time>2019-08-17T16:12:12Z</time>
      </trkpt>
      <trkpt lat="42.3884750" lon="-7.9992870">
        <ele>251.4</ele>
        <time>2019-08-17T16:12:13Z</time>
      </trkpt>
      <trkpt lat="42.3884990" lon="-7.9993000">
        <ele>251.5</ele>
        <time>2019-08-17T16:12:14Z</time>
      </trkpt>
      <trkpt lat="42.3885240" lon="-7.9993130">
        <ele>251.6</ele>
        <time>2019-08-17T16:12:15Z</time>
      </trkpt>
      <trkpt lat="42.3885480" lon="-7.9993240">
        <ele>251.8</ele>
        <time>2019-08-17T16:12:16Z</time>
      </trkpt>
      <trkpt lat="42.3885730" lon="-7.9993350">
        <ele>251.9</ele>
        <time>2019-08-17T16:12:17Z</time>
      </trkpt>
      <trkpt lat="42.3885980" lon="-7.9993450">
        <ele>252.0</ele>
        <time>2019-08-17T16:12:18Z</time>
      </trkpt>
      <trkpt lat="42.3886230" lon="-7.9993540">
        <ele>252.2</ele>
        <time>2019-08-17T16:12:19Z</time>
      </trkpt>
      <trkpt lat="42.3886480" lon="-7.9993630">
        <ele>252.3</ele>
        <time>2019-08-17T16:12:20Z</time>
      </trkpt>
      <trkpt lat="42.3886730" lon="-7.9993700">
        <ele>252.4</ele>
        <time>2019-08-17T16:12:21Z</time>
      </trkpt>
      <trkpt lat="42.3886980" lon="-7.9993770">
        <ele>252.5</ele>
        <time>2019-08-17T16:12:22Z</time>
      </trkpt>
      <trkpt lat="42.3887240" lon="-7.9993830">
        <ele>252.7</ele>
        <time>2019-08-17T16:12:23Z</time>
      </trkpt>
      <trkpt lat="42.3887490" lon="-7.9993890">
        <ele>252.8</ele>
        <time>2019-08-17T16:12:24Z</time>
      </trkpt>
      <trkpt lat="42.3887740" lon="-7.9993930">
        <ele>252.9</ele>
        <time>2019-08-17T16:12:25Z</time>
      </trkpt>
      <trkpt lat="42.3888000" lon="-7.9993970">
        <ele>253.0</ele>
        <time>2019-08-17T16:12:26Z</time>
      </trkpt>
      <trkpt lat="42.3888250" lon="-7.9994000">
        <ele>253.1</ele>
        <time>2019-08-17T16:12:27Z</time>
      </trkpt>
      <trkpt lat="42.3888510" lon="-7.9994020">
        <ele>253.3</ele>
        <time>2019-08-17T16:12:28Z</time>
      </trkpt>
      <trkpt lat="42.3888760" lon="-7.9994030">
        <ele>253.4</ele>
        <time>2019-08-17T16:12:29Z</time>
      </trkpt>
      <trkpt lat="42.3889020" lon="-7.9994030">
        <ele>253.5</ele>
        <time>2019-08-17T16:12:30Z</time>
      </trkpt>
      <trkpt lat="42.3889280" lon="-7.9994030">
        <ele>253.6</ele>
        <time>2019-08-17T16:12:31Z</time>
      </trkpt>
      <trkpt lat="42.3889530" lon="-7.9994020">
        <ele>253.7</ele>
        <time>2019-08-17T16:12:32Z</time>
      </trkpt>
      <trkpt lat="42.3889790" lon="-7.9993990">
        <ele>253.9</ele>
        <time>2019-08-17T16:12:33Z</time>
      </trkpt>
      <trkpt lat="42.3890050" lon="-7.9993960">
        <ele>254.0</ele>
        <time>2019-08-17T16:12:34Z</time>
      </trkpt>
      <trkpt lat="42.3890310" lon="-7.9993920">
        <ele>254.1</ele>
        <time>2019-08-17T16:12:35Z</time>
      </trkpt>
      <trkpt lat="42.3890560" lon="-7.9993870">
        <ele>254.2</ele>
        <time>2019-08-17T16:12:36Z</time>
      </trkpt>
      <trkpt lat="42.3890820" lon="-7.9993810">
        <ele>254.4</ele>
        <time>2019-08-17T16:12:37Z</time>
      </trkpt>
      <trkpt lat="42.3891080" lon="-7.9993740">
        <ele>254.5</ele>
        <time>2019-08-17T16:12:38Z</time>
      </trkpt>
      <trkpt lat="42.3891340" lon="-7.9993650">
        <ele>254.6</ele>
        <time>2019-08-17T16:12:39Z</time>
      </trkpt>
      <trkpt lat="42.3891610" lon="-7.9993540">
        <ele>254.8</ele>
        <time>2019-08-17T16:12:40Z</time>
      </trkpt>
      <trkpt lat="42.3891880" lon="-7.9993410">
        <ele>254.9</ele>
        <time>2019-08-17T16:12:41Z</time>
      </trkpt>
      <trkpt lat="42.3892150" lon="-7.9993270">
        <ele>255.0</ele>
        <time>2019-08-17T16:12:42Z</time>
      </trkpt>
      <trkpt lat="42.3892420" lon="-7.9993110">
        <ele>255.2</ele>
        <time>2019-08-17T16:12:43Z</time>
      </trkpt>
      <trkpt lat="42.3892700" lon="-7.9992930">
        <ele>255.3</ele>
        <time>2019-08-17T16:12:44Z</time>
      </trkpt>
      <trkpt lat="42.3892980" lon="-7.9992750">
        <ele>255.5</ele>
        <time>2019-08-17T16:12:45Z</time>
      </trkpt>
      <trkpt lat="42.3893260" lon="-7.9992570">
        <ele>255.6</ele>
        <time>2019-08-17T16:12:46Z</time>
      </trkpt>
      <trkpt lat="42.3893530" lon="-7.9992390">
        <ele>255.8</ele>
        <time>2019-08-17T16:12:47Z</time>
      </trkpt>
      <trkpt lat="42.3893780" lon="-7.9992220">
        <ele>255.9</ele>
        <time>2019-08-17T16:12:48Z</time>
      </trkpt>
      <trkpt lat="42.3894020" lon="-7.9992070">
        <ele>256.0</ele>
        <time>2019-08-17T16:12:49Z</time>
      </trkpt>
      <trkpt lat="42.3894260" lon="-7.9991910">
        <ele>256.1</ele>
        <time>2019-08-17T16:12:50Z</time>
      </trkpt>
      <trkpt lat="42.3894500" lon="-7.9991750">
        <ele>256.2</ele>
        <time>2019-08-17T16:12:51Z</time>
      </trkpt>
      <trkpt lat="42.3894740" lon="-7.9991580">
        <ele>256.4</ele>
        <time>2019-08-17T16:12:52Z</time>
      </trkpt>
      <trkpt lat="42.3894980" lon="-7.9991410">
        <ele>256.5</ele>
        <time>2019-08-17T16:12:53Z</time>
      </trkpt>
      <trkpt lat="42.3895220" lon="-7.9991240">
        <ele>256.6</ele>
        <time>2019-08-17T16:12:54Z</time>
      </trkpt>
      <trkpt lat="42.3895460" lon="-7.9991060">
        <ele>256.7</ele>
        <time>2019-08-17T16:12:55Z</time>
      </trkpt>
      <trkpt lat="42.3895700" lon="-7.9990890">
        <ele>256.8</ele>
        <time>2019-08-17T16:12:56Z</time>
      </trkpt>
      <trkpt lat="42.3895930" lon="-7.9990710">
        <ele>256.9</ele>
        <time>2019-08-17T16:12:57Z</time>
      </trkpt>
      <trkpt lat="42.3896170" lon="-7.9990530">
        <ele>257.0</ele>
        <time>2019-08-17T16:12:58Z</time>
      </trkpt>
      <trkpt lat="42.3896400" lon="-7.9990360">
        <ele>257.2</ele>
        <time>2019-08-17T16:12:59Z</time>
      </trkpt>
      <trkpt lat="42.3896620" lon="-7.9990190">
        <ele>257.3</ele>
        <time>2019-08-17T16:13:00Z</time>
      </trkpt>
      <trkpt lat="42.3896850" lon="-7.9990030">
        <ele>257.4</ele>
        <time>2019-08-17T16:13:01Z</time>
      </trkpt>
      <trkpt lat="42.3897070" lon="-7.9989870">
        <ele>257.5</ele>
        <time>2019-08-17T16:13:02Z</time>
      </trkpt>
      <trkpt lat="42.3897280" lon="-7.9989710">
        <ele>257.6</ele>
        <time>2019-08-17T16:13:03Z</time>
      </trkpt>
      <trkpt lat="42.3897490" lon="-7.9989570">
        <ele>257.7</ele>
        <time>2019-08-17T16:13:04Z</time>
      </trkpt>
      <trkpt lat="42.3897690" lon="-7.9989430">
        <ele>257.8</ele>
        <time>2019-08-17T16:13:05Z</time>
      </trkpt>
      <trkpt lat="42.3897880" lon="-7.9989290">
        <ele>257.9</ele>
        <time>2019-08-17T16:13:06Z</time>
      </trkpt>
      <trkpt lat="42.3898080" lon="-7.9989170">
        <ele>258.0</ele>
        <time>2019-08-17T16:13:07Z</time>
      </trkpt>
      <trkpt lat="42.3898270" lon="-7.9989050">
        <ele>258.1</ele>
        <time>2019-08-17T16:13:08Z</time>
      </trkpt>
      <trkpt lat="42.3898460" lon="-7.9988930">
        <ele>258.2</ele>
        <time>2019-08-17T16:13:09Z</time>
      </trkpt>
      <trkpt lat="42.3898660" lon="-7.9988820">
        <ele>258.3</ele>
        <time>2019-08-17T16:13:10Z</time>
      </trkpt>
      <trkpt lat="42.3898860" lon="-7.9988710">
        <ele>258.4</ele>
        <time>2019-08-17T16:13:11Z</time>
      </trkpt>
      <trkpt lat="42.3899060" lon="-7.9988600">
        <ele>258.5</ele>
        <time>2019-08-17T16:13:12Z</time>
      </trkpt>
      <trkpt lat="42.3899270" lon="-7.9988490">
        <ele>258.6</ele>
        <time>2019-08-17T16:13:13Z</time>
      </trkpt>
      <trkpt lat="42.3899490" lon="-7.9988380">
        <ele>258.7</ele>
        <time>2019-08-17T16:13:14Z</time>
      </trkpt>
      <trkpt lat="42.3899710" lon="-7.9988270">
        <ele>258.8</ele>
        <time>2019-08-17T16:13:15Z</time>
      </trkpt>
      <trkpt lat="42.3899930" lon="-7.9988170">
        <ele>259.0</ele>
        <time>2019-08-17T16:13:16Z</time>
      </trkpt>
      <trkpt lat="42.3900150" lon="-7.9988070">
        <ele>259.1</ele>
        <time>2019-08-17T16:13:17Z</time>
      </trkpt>
      <trkpt lat="42.3900370" lon="-7.9987970">
        <ele>259.2</ele>
        <time>2019-08-17T16:13:18Z</time>
      </trkpt>
      <trkpt lat="42.3900590" lon="-7.9987870">
        <ele>259.4</ele>
        <time>2019-08-17T16:13:19Z</time>
      </trkpt>
      <trkpt lat="42.3900800" lon="-7.9987780">
        <ele>259.5</ele>
        <time>2019-08-17T16:13:20Z</time>
      </trkpt>
      <trkpt lat="42.3901010" lon="-7.9987690">
        <ele>259.6</ele>
        <time>2019-08-17T16:13:21Z</time>
      </trkpt>
      <trkpt lat="42.3901210" lon="-7.9987610">
        <ele>259.7</ele>
        <time>2019-08-17T16:13:22Z</time>
      </trkpt>
      <trkpt lat="42.3901410" lon="-7.9987540">
        <ele>259.9</ele>
        <time>2019-08-17T16:13:23Z</time>
      </trkpt>
      <trkpt lat="42.3901610" lon="-7.9987470">
        <ele>260.0</ele>
        <time>2019-08-17T16:13:24Z</time>
      </trkpt>
      <trkpt lat="42.3901810" lon="-7.9987410">
        <ele>260.1</ele>
        <time>2019-08-17T16:13:25Z</time>
      </trkpt>
      <trkpt lat="42.3902010" lon="-7.9987370">
        <ele>260.2</ele>
        <time>2019-08-17T16:13:26Z</time>
      </trkpt>
      <trkpt lat="42.3902210" lon="-7.9987330">
        <ele>260.3</ele>
        <time>2019-08-17T16:13:27Z</time>
      </trkpt>
      <trkpt lat="42.3902420" lon="-7.9987290">
        <ele>260.5</ele>
        <time>2019-08-17T16:13:28Z</time>
      </trkpt>
      <trkpt lat="42.3902630" lon="-7.9987270">
        <ele>260.6</ele>
        <time>2019-08-17T16:13:29Z</time>
      </trkpt>
      <trkpt lat="42.3902850" lon="-7.9987250">
        <ele>260.7</ele>
        <time>2019-08-17T16:13:30Z</time>
      </trkpt>
      <trkpt lat="42.3903090" lon="-7.9987230">
        <ele>260.9</ele>
        <time>2019-08-17T16:13:31Z</time>
      </trkpt>
      <trkpt lat="42.3903330" lon="-7.9987220">
        <ele>261.0</ele>
        <time>2019-08-17T16:13:32Z</time>
      </trkpt>
      <trkpt lat="42.3903570" lon="-7.9987200">
        <ele>261.2</ele>
        <time>2019-08-17T16:13:33Z</time>
      </trkpt>
      <trkpt lat="42.3903810" lon="-7.9987190">
        <ele>261.3</ele>
        <time>2019-08-17T16:13:34Z</time>
      </trkpt>
      <trkpt lat="42.3904050" lon="-7.9987170">
        <ele>261.5</ele>
        <time>2019-08-17T16:13:35Z</time>
      </trkpt>
      <trkpt lat="42.3904300" lon="-7.9987150">
        <ele>261.6</ele>
        <time>2019-08-17T16:13:36Z</time>
      </trkpt>
      <trkpt lat="42.3904540" lon="-7.9987140">
        <ele>261.8</ele>
        <time>2019-08-17T16:13:37Z</time>
      </trkpt>
      <trkpt lat="42.3904780" lon="-7.9987120">
        <ele>261.9</ele>
        <time>2019-08-17T16:13:38Z</time>
      </trkpt>
      <trkpt lat="42.3905020" lon="-7.9987110">
        <ele>262.1</ele>
        <time>2019-08-17T16:13:39Z</time>
      </trkpt>
      <trkpt lat="42.3905270" lon="-7.9987110">
        <ele>262.3</ele>
        <time>2019-08-17T16:13:40Z</time>
      </trkpt>
      <trkpt lat="42.3905510" lon="-7.9987110">
        <ele>262.4</ele>
        <time>2019-08-17T16:13:41Z</time>
      </trkpt>
      <trkpt lat="42.3905750" lon="-7.9987120">
        <ele>262.6</ele>
        <time>2019-08-17T16:13:42Z</time>
      </trkpt>
      <trkpt lat="42.3905990" lon="-7.9987130">
        <ele>262.7</ele>
        <time>2019-08-17T16:13:43Z</time>
      </trkpt>
      <trkpt lat="42.3906240" lon="-7.9987160">
        <ele>262.9</ele>
        <time>2019-08-17T16:13:44Z</time>
      </trkpt>
      <trkpt lat="42.3906480" lon="-7.9987190">
        <ele>263.0</ele>
        <time>2019-08-17T16:13:45Z</time>
      </trkpt>
      <trkpt lat="42.3906730" lon="-7.9987240">
        <ele>263.1</ele>
        <time>2019-08-17T16:13:46Z</time>
      </trkpt>
      <trkpt lat="42.3906980" lon="-7.9987290">
        <ele>263.3</ele>
        <time>2019-08-17T16:13:47Z</time>
      </trkpt>
      <trkpt lat="42.3907230" lon="-7.9987360">
        <ele>263.4</ele>
        <time>2019-08-17T16:13:48Z</time>
      </trkpt>
      <trkpt lat="42.3907480" lon="-7.9987450">
        <ele>263.6</ele>
        <time>2019-08-17T16:13:49Z</time>
      </trkpt>
      <trkpt lat="42.3907730" lon="-7.9987550">
        <ele>263.7</ele>
        <time>2019-08-17T16:13:50Z</time>
      </trkpt>
      <trkpt lat="42.3907980" lon="-7.9987660">
        <ele>263.9</ele>
        <time>2019-08-17T16:13:51Z</time>
      </trkpt>
      <trkpt lat="42.3908230" lon="-7.9987770">
        <ele>264.0</ele>
        <time>2019-08-17T16:13:52Z</time>
      </trkpt>
      <trkpt lat="42.3908490" lon="-7.9987900">
        <ele>264.2</ele>
        <time>2019-08-17T16:13:53Z</time>
      </trkpt>
      <trkpt lat="42.3908740" lon="-7.9988030">
        <ele>264.3</ele>
        <time>2019-08-17T16:13:54Z</time>
      </trkpt>
      <trkpt lat="42.3909000" lon="-7.9988170">
        <ele>264.4</ele>
        <time>2019-08-17T16:13:55Z</time>
      </trkpt>
      <trkpt lat="42.3909250" lon="-7.9988310">
        <ele>264.6</ele>
        <time>2019-08-17T16:13:56Z</time>
      </trkpt>
      <trkpt lat="42.3909510" lon="-7.9988450">
        <ele>264.7</ele>
        <time>2019-08-17T16:13:57Z</time>
      </trkpt>
      <trkpt lat="42.3909770" lon="-7.9988600">
        <ele>264.9</ele>
        <time>2019-08-17T16:13:58Z</time>
      </trkpt>
      <trkpt lat="42.3910020" lon="-7.9988750">
        <ele>265.0</ele>
        <time>2019-08-17T16:13:59Z</time>
      </trkpt>
      <trkpt lat="42.3910280" lon="-7.9988900">
        <ele>265.2</ele>
        <time>2019-08-17T16:14:00Z</time>
      </trkpt>
      <trkpt lat="42.3910530" lon="-7.9989070">
        <ele>265.3</ele>
        <time>2019-08-17T16:14:01Z</time>
      </trkpt>
      <trkpt lat="42.3910780" lon="-7.9989240">
        <ele>265.4</ele>
        <time>2019-08-17T16:14:02Z</time>
      </trkpt>
      <trkpt lat="42.3911030" lon="-7.9989410">
        <ele>265.6</ele>
        <time>2019-08-17T16:14:03Z</time>
      </trkpt>
      <trkpt lat="42.3911280" lon="-7.9989600">
        <ele>265.7</ele>
        <time>2019-08-17T16:14:04Z</time>
      </trkpt>
      <trkpt lat="42.3911530" lon="-7.9989790">
        <ele>265.8</ele>
        <time>2019-08-17T16:14:05Z</time>
      </trkpt>
      <trkpt lat="42.3911770" lon="-7.9989990">
        <ele>266.0</ele>
        <time>2019-08-17T16:14:06Z</time>
      </trkpt>
      <trkpt lat="42.3912010" lon="-7.9990190">
        <ele>266.1</ele>
        <time>2019-08-17T16:14:07Z</time>
      </trkpt>
      <trkpt lat="42.3912260" lon="-7.9990400">
        <ele>266.2</ele>
        <time>2019-08-17T16:14:08Z</time>
      </trkpt>
      <trkpt lat="42.3912500" lon="-7.9990610">
        <ele>266.3</ele>
        <time>2019-08-17T16:14:09Z</time>
      </trkpt>
      <trkpt lat="42.3912740" lon="-7.9990830">
        <ele>266.4</ele>
        <time>2019-08-17T16:14:10Z</time>
      </trkpt>
      <trkpt lat="42.3912980" lon="-7.9991050">
        <ele>266.5</ele>
        <time>2019-08-17T16:14:11Z</time>
      </trkpt>
      <trkpt lat="42.3913220" lon="-7.9991270">
        <ele>266.6</ele>
        <time>2019-08-17T16:14:12Z</time>
      </trkpt>
      <trkpt lat="42.3913460" lon="-7.9991500">
        <ele>266.7</ele>
        <time>2019-08-17T16:14:13Z</time>
      </trkpt>
      <trkpt lat="42.3913700" lon="-7.9991730">
        <ele>266.8</ele>
        <time>2019-08-17T16:14:14Z</time>
      </trkpt>
      <trkpt lat="42.3913940" lon="-7.9991960">
        <ele>266.9</ele>
        <time>2019-08-17T16:14:15Z</time>
      </trkpt>
      <trkpt lat="42.3914180" lon="-7.9992190">
        <ele>267.0</ele>
        <time>2019-08-17T16:14:16Z</time>
      </trkpt>
      <trkpt lat="42.3914420" lon="-7.9992420">
        <ele>267.1</ele>
        <time>2019-08-17T16:14:17Z</time>
      </trkpt>
      <trkpt lat="42.3914660" lon="-7.9992650">
        <ele>267.2</ele>
        <time>2019-08-17T16:14:18Z</time>
      </trkpt>
      <trkpt lat="42.3914900" lon="-7.9992880">
        <ele>267.3</ele>
        <time>2019-08-17T16:14:19Z</time>
      </trkpt>
      <trkpt lat="42.3915140" lon="-7.9993110">
        <ele>267.3</ele>
        <time>2019-08-17T16:14:20Z</time>
      </trkpt>
      <trkpt lat="42.3915380" lon="-7.9993340">
        <ele>267.4</ele>
        <time>2019-08-17T16:14:21Z</time>
      </trkpt>
      <trkpt lat="42.3915630" lon="-7.9993570">
        <ele>267.5</ele>
        <time>2019-08-17T16:14:22Z</time>
      </trkpt>
      <trkpt lat="42.3915870" lon="-7.9993800">
        <ele>267.6</ele>
        <time>2019-08-17T16:14:23Z</time>
      </trkpt>
      <trkpt lat="42.3916110" lon="-7.9994030">
        <ele>267.6</ele>
        <time>2019-08-17T16:14:24Z</time>
      </trkpt>
      <trkpt lat="42.3916360" lon="-7.9994270">
        <ele>267.7</ele>
        <time>2019-08-17T16:14:25Z</time>
      </trkpt>
      <trkpt lat="42.3916600" lon="-7.9994500">
        <ele>267.8</ele>
        <time>2019-08-17T16:14:26Z</time>
      </trkpt>
      <trkpt lat="42.3916840" lon="-7.9994730">
        <ele>267.8</ele>
        <time>2019-08-17T16:14:27Z</time>
      </trkpt>
      <trkpt lat="42.3917090" lon="-7.9994960">
        <ele>267.9</ele>
        <time>2019-08-17T16:14:28Z</time>
      </trkpt>
      <trkpt lat="42.3917330" lon="-7.9995190">
        <ele>268.0</ele>
        <time>2019-08-17T16:14:29Z</time>
      </trkpt>
      <trkpt lat="42.3917570" lon="-7.9995420">
        <ele>268.1</ele>
        <time>2019-08-17T16:14:30Z</time>
      </trkpt>
      <trkpt lat="42.3917820" lon="-7.9995660">
        <ele>268.1</ele>
        <time>2019-08-17T16:14:31Z</time>
      </trkpt>
      <trkpt lat="42.3918050" lon="-7.9995890">
        <ele>268.2</ele>
        <time>2019-08-17T16:14:32Z</time>
      </trkpt>
      <trkpt lat="42.3918290" lon="-7.9996130">
        <ele>268.3</ele>
        <time>2019-08-17T16:14:33Z</time>
      </trkpt>
      <trkpt lat="42.3918520" lon="-7.9996370">
        <ele>268.3</ele>
        <time>2019-08-17T16:14:34Z</time>
      </trkpt>
      <trkpt lat="42.3918750" lon="-7.9996610">
        <ele>268.4</ele>
        <time>2019-08-17T16:14:35Z</time>
      </trkpt>
      <trkpt lat="42.3918980" lon="-7.9996860">
        <ele>268.5</ele>
        <time>2019-08-17T16:14:36Z</time>
      </trkpt>
      <trkpt lat="42.3919210" lon="-7.9997100">
        <ele>268.6</ele>
        <time>2019-08-17T16:14:37Z</time>
      </trkpt>
      <trkpt lat="42.3919440" lon="-7.9997350">
        <ele>268.7</ele>
        <time>2019-08-17T16:14:38Z</time>
      </trkpt>
      <trkpt lat="42.3919660" lon="-7.9997590">
        <ele>268.8</ele>
        <time>2019-08-17T16:14:39Z</time>
      </trkpt>
      <trkpt lat="42.3919880" lon="-7.9997840">
        <ele>268.8</ele>
        <time>2019-08-17T16:14:40Z</time>
      </trkpt>
      <trkpt lat="42.3920110" lon="-7.9998090">
        <ele>268.9</ele>
        <time>2019-08-17T16:14:41Z</time>
      </trkpt>
      <trkpt lat="42.3920330" lon="-7.9998340">
        <ele>269.0</ele>
        <time>2019-08-17T16:14:42Z</time>
      </trkpt>
      <trkpt lat="42.3920550" lon="-7.9998590">
        <ele>269.1</ele>
        <time>2019-08-17T16:14:43Z</time>
      </trkpt>
      <trkpt lat="42.3920780" lon="-7.9998840">
        <ele>269.2</ele>
        <time>2019-08-17T16:14:44Z</time>
      </trkpt>
      <trkpt lat="42.3921000" lon="-7.9999090">
        <ele>269.3</ele>
        <time>2019-08-17T16:14:45Z</time>
      </trkpt>
      <trkpt lat="42.3921220" lon="-7.9999340">
        <ele>269.4</ele>
        <time>2019-08-17T16:14:46Z</time>
      </trkpt>
      <trkpt lat="42.3921450" lon="-7.9999590">
        <ele>269.5</ele>
        <time>2019-08-17T16:14:47Z</time>
      </trkpt>
      <trkpt lat="42.3921670" lon="-7.9999840">
        <ele>269.6</ele>
        <time>2019-08-17T16:14:48Z</time>
      </trkpt>
      <trkpt lat="42.3921900" lon="-8.0000100">
        <ele>269.7</ele>
        <time>2019-08-17T16:14:49Z</time>
      </trkpt>
      <trkpt lat="42.3922130" lon="-8.0000350">
        <ele>269.8</ele>
        <time>2019-08-17T16:14:50Z</time>
      </trkpt>
      <trkpt lat="42.3922360" lon="-8.0000610">
        <ele>269.9</ele>
        <time>2019-08-17T16:14:51Z</time>
      </trkpt>
      <trkpt lat="42.3922600" lon="-8.0000870">
        <ele>270.0</ele>
        <time>2019-08-17T16:14:52Z</time>
      </trkpt>
      <trkpt lat="42.3922830" lon="-8.0001140">
        <ele>270.1</ele>
        <time>2019-08-17T16:14:53Z</time>
      </trkpt>
      <trkpt lat="42.3923080" lon="-8.0001420">
        <ele>270.2</ele>
        <time>2019-08-17T16:14:54Z</time>
      </trkpt>
      <trkpt lat="42.3923320" lon="-8.0001710">
        <ele>270.3</ele>
        <time>2019-08-17T16:14:55Z</time>
      </trkpt>
      <trkpt lat="42.3923570" lon="-8.0002000">
        <ele>270.5</ele>
        <time>2019-08-17T16:14:56Z</time>
      </trkpt>
      <trkpt lat="42.3923820" lon="-8.0002300">
        <ele>270.6</ele>
        <time>2019-08-17T16:14:57Z</time>
      </trkpt>
      <trkpt lat="42.3924070" lon="-8.0002610">
        <ele>270.7</ele>
        <time>2019-08-17T16:14:58Z</time>
      </trkpt>
      <trkpt lat="42.3924330" lon="-8.0002910">
        <ele>270.8</ele>
        <time>2019-08-17T16:14:59Z</time>
      </trkpt>
      <trkpt lat="42.3924580" lon="-8.0003200">
        <ele>271.0</ele>
        <time>2019-08-17T16:15:00Z</time>
      </trkpt>
      <trkpt lat="42.3924830" lon="-8.0003500">
        <ele>271.1</ele>
        <time>2019-08-17T16:15:01Z</time>
      </trkpt>
      <trkpt lat="42.3925080" lon="-8.0003780">
        <ele>271.2</ele>
        <time>2019-08-17T16:15:02Z</time>
      </trkpt>
      <trkpt lat="42.3925320" lon="-8.0004060">
        <ele>271.3</ele>
        <time>2019-08-17T16:15:03Z</time>
      </trkpt>
      <trkpt lat="42.3925570" lon="-8.0004340">
        <ele>271.4</ele>
        <time>2019-08-17T16:15:04Z</time>
      </trkpt>
      <trkpt lat="42.3925810" lon="-8.0004620">
        <ele>271.6</ele>
        <time>2019-08-17T16:15:05Z</time>
      </trkpt>
      <trkpt lat="42.3926060" lon="-8.0004890">
        <ele>271.7</ele>
        <time>2019-08-17T16:15:06Z</time>
      </trkpt>
      <trkpt lat="42.3926310" lon="-8.0005180">
        <ele>271.8</ele>
        <time>2019-08-17T16:15:07Z</time>
      </trkpt>
      <trkpt lat="42.3926560" lon="-8.0005470">
        <ele>271.9</ele>
        <time>2019-08-17T16:15:08Z</time>
      </trkpt>
      <trkpt lat="42.3926820" lon="-8.0005770">
        <ele>272.0</ele>
        <time>2019-08-17T16:15:09Z</time>
      </trkpt>
      <trkpt lat="42.3927080" lon="-8.0006080">
        <ele>272.1</ele>
        <time>2019-08-17T16:15:10Z</time>
      </trkpt>
      <trkpt lat="42.3927350" lon="-8.0006400">
        <ele>272.2</ele>
        <time>2019-08-17T16:15:11Z</time>
      </trkpt>
      <trkpt lat="42.3927620" lon="-8.0006730">
        <ele>272.3</ele>
        <time>2019-08-17T16:15:12Z</time>
      </trkpt>
      <trkpt lat="42.3927890" lon="-8.0007070">
        <ele>272.4</ele>
        <time>2019-08-17T16:15:13Z</time>
      </trkpt>
      <trkpt lat="42.3928160" lon="-8.0007410">
        <ele>272.5</ele>
        <time>2019-08-17T16:15:14Z</time>
      </trkpt>
      <trkpt lat="42.3928440" lon="-8.0007750">
        <ele>272.6</ele>
        <time>2019-08-17T16:15:15Z</time>
      </trkpt>
      <trkpt lat="42.3928720" lon="-8.0008100">
        <ele>272.7</ele>
        <time>2019-08-17T16:15:16Z</time>
      </trkpt>
      <trkpt lat="42.3929000" lon="-8.0008440">
        <ele>272.8</ele>
        <time>2019-08-17T16:15:17Z</time>
      </trkpt>
      <trkpt lat="42.3929280" lon="-8.0008790">
        <ele>273.0</ele>
        <time>2019-08-17T16:15:18Z</time>
      </trkpt>
      <trkpt lat="42.3929560" lon="-8.0009130">
        <ele>273.0</ele>
        <time>2019-08-17T16:15:19Z</time>
      </trkpt>
      <trkpt lat="42.3929840" lon="-8.0009470">
        <ele>273.1</ele>
        <time>2019-08-17T16:15:20Z</time>
      </trkpt>
      <trkpt lat="42.3930110" lon="-8.0009810">
        <ele>273.1</ele>
        <time>2019-08-17T16:15:21Z</time>
      </trkpt>
      <trkpt lat="42.3930390" lon="-8.0010160">
        <ele>273.2</ele>
        <time>2019-08-17T16:15:22Z</time>
      </trkpt>
      <trkpt lat="42.3930670" lon="-8.0010500">
        <ele>273.3</ele>
        <time>2019-08-17T16:15:23Z</time>
      </trkpt>
      <trkpt lat="42.3930940" lon="-8.0010840">
        <ele>273.3</ele>
        <time>2019-08-17T16:15:24Z</time>
      </trkpt>
      <trkpt lat="42.3931210" lon="-8.0011190">
        <ele>273.4</ele>
        <time>2019-08-17T16:15:25Z</time>
      </trkpt>
      <trkpt lat="42.3931490" lon="-8.0011540">
        <ele>273.5</ele>
        <time>2019-08-17T16:15:26Z</time>
      </trkpt>
      <trkpt lat="42.3931760" lon="-8.0011890">
        <ele>273.5</ele>
        <time>2019-08-17T16:15:27Z</time>
      </trkpt>
      <trkpt lat="42.3932030" lon="-8.0012250">
        <ele>273.6</ele>
        <time>2019-08-17T16:15:28Z</time>
      </trkpt>
      <trkpt lat="42.3932310" lon="-8.0012610">
        <ele>273.7</ele>
        <time>2019-08-17T16:15:29Z</time>
      </trkpt>
      <trkpt lat="42.3932590" lon="-8.0012970">
        <ele>273.8</ele>
        <time>2019-08-17T16:15:30Z</time>
      </trkpt>
      <trkpt lat="42.3932870" lon="-8.0013340">
        <ele>273.9</ele>
        <time>2019-08-17T16:15:31Z</time>
      </trkpt>
      <trkpt lat="42.3933150" lon="-8.0013710">
        <ele>273.9</ele>
        <time>2019-08-17T16:15:32Z</time>
      </trkpt>
      <trkpt lat="42.3933430" lon="-8.0014080">
        <ele>274.0</ele>
        <time>2019-08-17T16:15:33Z</time>
      </trkpt>
      <trkpt lat="42.3933720" lon="-8.0014450">
        <ele>274.1</ele>
        <time>2019-08-17T16:15:34Z</time>
      </trkpt>
      <trkpt lat="42.3934000" lon="-8.0014820">
        <ele>274.2</ele>
        <time>2019-08-17T16:15:35Z</time>
      </trkpt>
      <trkpt lat="42.3934290" lon="-8.0015190">
        <ele>274.3</ele>
        <time>2019-08-17T16:15:36Z</time>
      </trkpt>
      <trkpt lat="42.3934570" lon="-8.0015560">
        <ele>274.4</ele>
        <time>2019-08-17T16:15:37Z</time>
      </trkpt>
      <trkpt lat="42.3934860" lon="-8.0015920">
        <ele>274.4</ele>
        <time>2019-08-17T16:15:38Z</time>
      </trkpt>
      <trkpt lat="42.3935140" lon="-8.0016280">
        <ele>274.5</ele>
        <time>2019-08-17T16:15:39Z</time>
      </trkpt>
      <trkpt lat="42.3935420" lon="-8.0016630">
        <ele>274.6</ele>
        <time>2019-08-17T16:15:40Z</time>
      </trkpt>
      <trkpt lat="42.3935700" lon="-8.0016970">
        <ele>274.7</ele>
        <time>2019-08-17T16:15:41Z</time>
      </trkpt>
      <trkpt lat="42.3935980" lon="-8.0017310">
        <ele>274.8</ele>
        <time>2019-08-17T16:15:42Z</time>
      </trkpt>
      <trkpt lat="42.3936260" lon="-8.0017640">
        <ele>274.8</ele>
        <time>2019-08-17T16:15:43Z</time>
      </trkpt>
      <trkpt lat="42.3936540" lon="-8.0017960">
        <ele>274.9</ele>
        <time>2019-08-17T16:15:44Z</time>
      </trkpt>
      <trkpt lat="42.3936820" lon="-8.0018270">
        <ele>275.0</ele>
        <time>2019-08-17T16:15:45Z</time>
      </trkpt>
      <trkpt lat="42.3937090" lon="-8.0018580">
        <ele>275.1</ele>
        <time>2019-08-17T16:15:46Z</time>
      </trkpt>
      <trkpt lat="42.3937370" lon="-8.0018880">
        <ele>275.1</ele>
        <time>2019-08-17T16:15:47Z</time>
      </trkpt>
      <trkpt lat="42.3937640" lon="-8.0019170">
        <ele>275.2</ele>
        <time>2019-08-17T16:15:48Z</time>
      </trkpt>
      <trkpt lat="42.3937900" lon="-8.0019450">
        <ele>275.3</ele>
        <time>2019-08-17T16:15:49Z</time>
      </trkpt>
      <trkpt lat="42.3938160" lon="-8.0019720">
        <ele>275.4</ele>
        <time>2019-08-17T16:15:50Z</time>
      </trkpt>
      <trkpt lat="42.3938400" lon="-8.0019980">
        <ele>275.4</ele>
        <time>2019-08-17T16:15:51Z</time>
      </trkpt>
      <trkpt lat="42.3938640" lon="-8.0020230">
        <ele>275.5</ele>
        <time>2019-08-17T16:15:52Z</time>
      </trkpt>
      <trkpt lat="42.3938860" lon="-8.0020470">
        <ele>275.6</ele>
        <time>2019-08-17T16:15:53Z</time>
      </trkpt>
      <trkpt lat="42.3939080" lon="-8.0020710">
        <ele>275.7</ele>
        <time>2019-08-17T16:15:54Z</time>
      </trkpt>
      <trkpt lat="42.3939290" lon="-8.0020930">
        <ele>275.7</ele>
        <time>2019-08-17T16:15:55Z</time>
      </trkpt>
      <trkpt lat="42.3939490" lon="-8.0021150">
        <ele>275.8</ele>
        <time>2019-08-17T16:15:56Z</time>
      </trkpt>
      <trkpt lat="42.3939700" lon="-8.0021370">
        <ele>275.9</ele>
        <time>2019-08-17T16:15:57Z</time>
      </trkpt>
      <trkpt lat="42.3939910" lon="-8.0021580">
        <ele>276.0</ele>
        <time>2019-08-17T16:15:58Z</time>
      </trkpt>
      <trkpt lat="42.3940130" lon="-8.0021800">
        <ele>276.1</ele>
        <time>2019-08-17T16:15:59Z</time>
      </trkpt>
      <trkpt lat="42.3940360" lon="-8.0022020">
        <ele>276.2</ele>
        <time>2019-08-17T16:16:00Z</time>
      </trkpt>
      <trkpt lat="42.3940590" lon="-8.0022240">
        <ele>276.2</ele>
        <time>2019-08-17T16:16:01Z</time>
      </trkpt>
      <trkpt lat="42.3940840" lon="-8.0022460">
        <ele>276.3</ele>
        <time>2019-08-17T16:16:02Z</time>
      </trkpt>
      <trkpt lat="42.3941090" lon="-8.0022690">
        <ele>276.4</ele>
        <time>2019-08-17T16:16:03Z</time>
      </trkpt>
      <trkpt lat="42.3941350" lon="-8.0022920">
        <ele>276.5</ele>
        <time>2019-08-17T16:16:04Z</time>
      </trkpt>
      <trkpt lat="42.3941610" lon="-8.0023160">
        <ele>276.7</ele>
        <time>2019-08-17T16:16:05Z</time>
      </trkpt>
      <trkpt lat="42.3941880" lon="-8.0023390">
        <ele>276.8</ele>
        <time>2019-08-17T16:16:06Z</time>
      </trkpt>
      <trkpt lat="42.3942150" lon="-8.0023630">
        <ele>276.9</ele>
        <time>2019-08-17T16:16:07Z</time>
      </trkpt>
      <trkpt lat="42.3942440" lon="-8.0023870">
        <ele>277.0</ele>
        <time>2019-08-17T16:16:08Z</time>
      </trkpt>
      <trkpt lat="42.3942730" lon="-8.0024100">
        <ele>277.1</ele>
        <time>2019-08-17T16:16:09Z</time>
      </trkpt>
      <trkpt lat="42.3943030" lon="-8.0024330">
        <ele>277.3</ele>
        <time>2019-08-17T16:16:10Z</time>
      </trkpt>
      <trkpt lat="42.3943330" lon="-8.0024560">
        <ele>277.4</ele>
        <time>2019-08-17T16:16:11Z</time>
      </trkpt>
      <trkpt lat="42.3943630" lon="-8.0024790">
        <ele>277.5</ele>
        <time>2019-08-17T16:16:12Z</time>
      </trkpt>
      <trkpt lat="42.3943930" lon="-8.0025010">
        <ele>277.6</ele>
        <time>2019-08-17T16:16:13Z</time>
      </trkpt>
      <trkpt lat="42.3944220" lon="-8.0025230">
        <ele>277.7</ele>
        <time>2019-08-17T16:16:14Z</time>
      </trkpt>
      <trkpt lat="42.3944510" lon="-8.0025450">
        <ele>277.9</ele>
        <time>2019-08-17T16:16:15Z</time>
      </trkpt>
      <trkpt lat="42.3944800" lon="-8.0025660">
        <ele>278.0</ele>
        <time>2019-08-17T16:16:16Z</time>
      </trkpt>
      <trkpt lat="42.3945080" lon="-8.0025870">
        <ele>278.1</ele>
        <time>2019-08-17T16:16:17Z</time>
      </trkpt>
      <trkpt lat="42.3945360" lon="-8.0026070">
        <ele>278.2</ele>
        <time>2019-08-17T16:16:18Z</time>
      </trkpt>
      <trkpt lat="42.3945640" lon="-8.0026280">
        <ele>278.3</ele>
        <time>2019-08-17T16:16:19Z</time>
      </trkpt>
      <trkpt lat="42.3945920" lon="-8.0026480">
        <ele>278.4</ele>
        <time>2019-08-17T16:16:20Z</time>
      </trkpt>
      <trkpt lat="42.3946200" lon="-8.0026680">
        <ele>278.6</ele>
        <time>2019-08-17T16:16:21Z</time>
      </trkpt>
      <trkpt lat="42.3946480" lon="-8.0026880">
        <ele>278.7</ele>
        <time>2019-08-17T16:16:22Z</time>
      </trkpt>
      <trkpt lat="42.3946760" lon="-8.0027070">
        <ele>278.9</ele>
        <time>2019-08-17T16:16:23Z</time>
      </trkpt>
      <trkpt lat="42.3947040" lon="-8.0027260">
        <ele>279.0</ele>
        <time>2019-08-17T16:16:24Z</time>
      </trkpt>
      <trkpt lat="42.3947320" lon="-8.0027450">
        <ele>279.1</ele>
        <time>2019-08-17T16:16:25Z</time>
      </trkpt>
      <trkpt lat="42.3947610" lon="-8.0027630">
        <ele>279.2</ele>
        <time>2019-08-17T16:16:26Z</time>
      </trkpt>
      <trkpt lat="42.3947900" lon="-8.0027810">
        <ele>279.3</ele>
        <time>2019-08-17T16:16:27Z</time>
      </trkpt>
      <trkpt lat="42.3948190" lon="-8.0027970">
        <ele>279.4</ele>
        <time>2019-08-17T16:16:28Z</time>
      </trkpt>
      <trkpt lat="42.3948490" lon="-8.0028140">
        <ele>279.5</ele>
        <time>2019-08-17T16:16:29Z</time>
      </trkpt>
      <trkpt lat="42.3948790" lon="-8.0028290">
        <ele>279.6</ele>
        <time>2019-08-17T16:16:30Z</time>
      </trkpt>
      <trkpt lat="42.3949090" lon="-8.0028440">
        <ele>279.8</ele>
        <time>2019-08-17T16:16:31Z</time>
      </trkpt>
      <trkpt lat="42.3949390" lon="-8.0028590">
        <ele>279.9</ele>
        <time>2019-08-17T16:16:32Z</time>
      </trkpt>
      <trkpt lat="42.3949690" lon="-8.0028730">
        <ele>280.1</ele>
        <time>2019-08-17T16:16:33Z</time>
      </trkpt>
      <trkpt lat="42.3950000" lon="-8.0028870">
        <ele>280.2</ele>
        <time>2019-08-17T16:16:34Z</time>
      </trkpt>
      <trkpt lat="42.3950300" lon="-8.0029010">
        <ele>280.3</ele>
        <time>2019-08-17T16:16:35Z</time>
      </trkpt>
      <trkpt lat="42.3950600" lon="-8.0029150">
        <ele>280.4</ele>
        <time>2019-08-17T16:16:36Z</time>
      </trkpt>
      <trkpt lat="42.3950890" lon="-8.0029300">
        <ele>280.5</ele>
        <time>2019-08-17T16:16:37Z</time>
      </trkpt>
      <trkpt lat="42.3951190" lon="-8.0029440">
        <ele>280.6</ele>
        <time>2019-08-17T16:16:38Z</time>
      </trkpt>
      <trkpt lat="42.3951480" lon="-8.0029580">
        <ele>280.8</ele>
        <time>2019-08-17T16:16:39Z</time>
      </trkpt>
      <trkpt lat="42.3951770" lon="-8.0029720">
        <ele>280.9</ele>
        <time>2019-08-17T16:16:40Z</time>
      </trkpt>
      <trkpt lat="42.3952050" lon="-8.0029860">
        <ele>281.0</ele>
        <time>2019-08-17T16:16:41Z</time>
      </trkpt>
      <trkpt lat="42.3952330" lon="-8.0029990">
        <ele>281.1</ele>
        <time>2019-08-17T16:16:42Z</time>
      </trkpt>
      <trkpt lat="42.3952620" lon="-8.0030120">
        <ele>281.2</ele>
        <time>2019-08-17T16:16:43Z</time>
      </trkpt>
      <trkpt lat="42.3952890" lon="-8.0030240">
        <ele>281.3</ele>
        <time>2019-08-17T16:16:44Z</time>
      </trkpt>
      <trkpt lat="42.3953170" lon="-8.0030360">
        <ele>281.4</ele>
        <time>2019-08-17T16:16:45Z</time>
      </trkpt>
      <trkpt lat="42.3953440" lon="-8.0030480">
        <ele>281.5</ele>
        <time>2019-08-17T16:16:46Z</time>
      </trkpt>
      <trkpt lat="42.3953710" lon="-8.0030610">
        <ele>281.7</ele>
        <time>2019-08-17T16:16:47Z</time>
      </trkpt>
      <trkpt lat="42.3953970" lon="-8.0030750">
        <ele>281.8</ele>
        <time>2019-08-17T16:16:48Z</time>
      </trkpt>
      <trkpt lat="42.3954230" lon="-8.0030910">
        <ele>281.9</ele>
        <time>2019-08-17T16:16:49Z</time>
      </trkpt>
      <trkpt lat="42.3954480" lon="-8.0031090">
        <ele>282.1</ele>
        <time>2019-08-17T16:16:50Z</time>
      </trkpt>
      <trkpt lat="42.3954730" lon="-8.0031280">
        <ele>282.2</ele>
        <time>2019-08-17T16:16:51Z</time>
      </trkpt>
      <trkpt lat="42.3954980" lon="-8.0031460">
        <ele>282.3</ele>
        <time>2019-08-17T16:16:52Z</time>
      </trkpt>
      <trkpt lat="42.3955240" lon="-8.0031580">
        <ele>282.4</ele>
        <time>2019-08-17T16:16:53Z</time>
      </trkpt>
      <trkpt lat="42.3955520" lon="-8.0031670">
        <ele>282.5</ele>
        <time>2019-08-17T16:16:54Z</time>
      </trkpt>
      <trkpt lat="42.3955780" lon="-8.0031760">
        <ele>282.7</ele>
        <time>2019-08-17T16:16:55Z</time>
      </trkpt>
      <trkpt lat="42.3956040" lon="-8.0031850">
        <ele>282.8</ele>
        <time>2019-08-17T16:16:56Z</time>
      </trkpt>
      <trkpt lat="42.3956290" lon="-8.0031950">
        <ele>282.9</ele>
        <time>2019-08-17T16:16:57Z</time>
      </trkpt>
      <trkpt lat="42.3956530" lon="-8.0032080">
        <ele>283.1</ele>
        <time>2019-08-17T16:16:58Z</time>
      </trkpt>
      <trkpt lat="42.3956750" lon="-8.0032230">
        <ele>283.2</ele>
        <time>2019-08-17T16:16:59Z</time>
      </trkpt>
      <trkpt lat="42.3956970" lon="-8.0032370">
        <ele>283.4</ele>
        <time>2019-08-17T16:17:00Z</time>
      </trkpt>
      <trkpt lat="42.3957200" lon="-8.0032510">
        <ele>283.5</ele>
        <time>2019-08-17T16:17:01Z</time>
      </trkpt>
      <trkpt lat="42.3957420" lon="-8.0032640">
        <ele>283.5</ele>
        <time>2019-08-17T16:17:02Z</time>
      </trkpt>
      <trkpt lat="42.3957650" lon="-8.0032750">
        <ele>283.6</ele>
        <time>2019-08-17T16:17:03Z</time>
      </trkpt>
      <trkpt lat="42.3957890" lon="-8.0032850">
        <ele>283.7</ele>
        <time>2019-08-17T16:17:04Z</time>
      </trkpt>
      <trkpt lat="42.3958140" lon="-8.0032950">
        <ele>283.8</ele>
        <time>2019-08-17T16:17:05Z</time>
      </trkpt>
      <trkpt lat="42.3958390" lon="-8.0033050">
        <ele>283.9</ele>
        <time>2019-08-17T16:17:06Z</time>
      </trkpt>
      <trkpt lat="42.3958650" lon="-8.0033150">
        <ele>284.0</ele>
        <time>2019-08-17T16:17:07Z</time>
      </trkpt>
      <trkpt lat="42.3958910" lon="-8.0033250">
        <ele>284.1</ele>
        <time>2019-08-17T16:17:08Z</time>
      </trkpt>
      <trkpt lat="42.3959170" lon="-8.0033360">
        <ele>284.3</ele>
        <time>2019-08-17T16:17:09Z</time>
      </trkpt>
      <trkpt lat="42.3959420" lon="-8.0033470">
        <ele>284.4</ele>
        <time>2019-08-17T16:17:10Z</time>
      </trkpt>
      <trkpt lat="42.3959680" lon="-8.0033580">
        <ele>284.5</ele>
        <time>2019-08-17T16:17:11Z</time>
      </trkpt>
      <trkpt lat="42.3959920" lon="-8.0033690">
        <ele>284.7</ele>
        <time>2019-08-17T16:17:12Z</time>
      </trkpt>
      <trkpt lat="42.3960150" lon="-8.0033800">
        <ele>284.8</ele>
        <time>2019-08-17T16:17:13Z</time>
      </trkpt>
      <trkpt lat="42.3960370" lon="-8.0033920">
        <ele>284.9</ele>
        <time>2019-08-17T16:17:14Z</time>
      </trkpt>
      <trkpt lat="42.3960590" lon="-8.0034040">
        <ele>285.1</ele>
        <time>2019-08-17T16:17:15Z</time>
      </trkpt>
      <trkpt lat="42.3960800" lon="-8.0034160">
        <ele>285.2</ele>
        <time>2019-08-17T16:17:16Z</time>
      </trkpt>
      <trkpt lat="42.3961010" lon="-8.0034290">
        <ele>285.2</ele>
        <time>2019-08-17T16:17:17Z</time>
      </trkpt>
      <trkpt lat="42.3961210" lon="-8.0034420">
        <ele>285.3</ele>
        <time>2019-08-17T16:17:18Z</time>
      </trkpt>
      <trkpt lat="42.3961420" lon="-8.0034560">
        <ele>285.4</ele>
        <time>2019-08-17T16:17:19Z</time>
      </trkpt>
      <trkpt lat="42.3961630" lon="-8.0034690">
        <ele>285.5</ele>
        <time>2019-08-17T16:17:20Z</time>
      </trkpt>
      <trkpt lat="42.3961850" lon="-8.0034830">
        <ele>285.6</ele>
        <time>2019-08-17T16:17:21Z</time>
      </trkpt>
      <trkpt lat="42.3962060" lon="-8.0034980">
        <ele>285.7</ele>
        <time>2019-08-17T16:17:22Z</time>
      </trkpt>
      <trkpt lat="42.3962280" lon="-8.0035120">
        <ele>285.7</ele>
        <time>2019-08-17T16:17:23Z</time>
      </trkpt>
      <trkpt lat="42.3962490" lon="-8.0035260">
        <ele>285.8</ele>
        <time>2019-08-17T16:17:24Z</time>
      </trkpt>
      <trkpt lat="42.3962700" lon="-8.0035410">
        <ele>285.9</ele>
        <time>2019-08-17T16:17:25Z</time>
      </trkpt>
      <trkpt lat="42.3962900" lon="-8.0035550">
        <ele>286.0</ele>
        <time>2019-08-17T16:17:26Z</time>
      </trkpt>
      <trkpt lat="42.3963100" lon="-8.0035700">
        <ele>286.1</ele>
        <time>2019-08-17T16:17:27Z</time>
      </trkpt>
      <trkpt lat="42.3963290" lon="-8.0035840">
        <ele>286.2</ele>
        <time>2019-08-17T16:17:28Z</time>
      </trkpt>
      <trkpt lat="42.3963470" lon="-8.0035980">
        <ele>286.2</ele>
        <time>2019-08-17T16:17:29Z</time>
      </trkpt>
      <trkpt lat="42.3963650" lon="-8.0036130">
        <ele>286.3</ele>
        <time>2019-08-17T16:17:30Z</time>
      </trkpt>
      <trkpt lat="42.3963820" lon="-8.0036270">
        <ele>286.4</ele>
        <time>2019-08-17T16:17:31Z</time>
      </trkpt>
      <trkpt lat="42.3963990" lon="-8.0036420">
        <ele>286.5</ele>
        <time>2019-08-17T16:17:32Z</time>
      </trkpt>
      <trkpt lat="42.3964150" lon="-8.0036560">
        <ele>286.6</ele>
        <time>2019-08-17T16:17:33Z</time>
      </trkpt>
      <trkpt lat="42.3964300" lon="-8.0036710">
        <ele>286.6</ele>
        <time>2019-08-17T16:17:34Z</time>
      </trkpt>
      <trkpt lat="42.3964440" lon="-8.0036870">
        <ele>286.7</ele>
        <time>2019-08-17T16:17:35Z</time>
      </trkpt>
      <trkpt lat="42.3964590" lon="-8.0037030">
        <ele>286.8</ele>
        <time>2019-08-17T16:17:36Z</time>
      </trkpt>
      <trkpt lat="42.3964730" lon="-8.0037190">
        <ele>286.9</ele>
        <time>2019-08-17T16:17:37Z</time>
      </trkpt>
      <trkpt lat="42.3964870" lon="-8.0037350">
        <ele>287.1</ele>
        <time>2019-08-17T16:17:38Z</time>
      </trkpt>
      <trkpt lat="42.3965010" lon="-8.0037520">
        <ele>287.2</ele>
        <time>2019-08-17T16:17:39Z</time>
      </trkpt>
      <trkpt lat="42.3965160" lon="-8.0037700">
        <ele>287.3</ele>
        <time>2019-08-17T16:17:40Z</time>
      </trkpt>
      <trkpt lat="42.3965330" lon="-8.0037880">
        <ele>287.5</ele>
        <time>2019-08-17T16:17:41Z</time>
      </trkpt>
      <trkpt lat="42.3965500" lon="-8.0038070">
        <ele>287.7</ele>
        <time>2019-08-17T16:17:42Z</time>
      </trkpt>
      <trkpt lat="42.3965680" lon="-8.0038260">
        <ele>287.9</ele>
        <time>2019-08-17T16:17:43Z</time>
      </trkpt>
      <trkpt lat="42.3965870" lon="-8.0038460">
        <ele>288.1</ele>
        <time>2019-08-17T16:17:44Z</time>
      </trkpt>
      <trkpt lat="42.3966070" lon="-8.0038660">
        <ele>288.3</ele>
        <time>2019-08-17T16:17:45Z</time>
      </trkpt>
      <trkpt lat="42.3966270" lon="-8.0038870">
        <ele>288.5</ele>
        <time>2019-08-17T16:17:46Z</time>
      </trkpt>
      <trkpt lat="42.3966470" lon="-8.0039080">
        <ele>288.7</ele>
        <time>2019-08-17T16:17:47Z</time>
      </trkpt>
      <trkpt lat="42.3966660" lon="-8.0039300">
        <ele>288.9</ele>
        <time>2019-08-17T16:17:48Z</time>
      </trkpt>
      <trkpt lat="42.3966850" lon="-8.0039510">
        <ele>289.1</ele>
        <time>2019-08-17T16:17:49Z</time>
      </trkpt>
      <trkpt lat="42.3967040" lon="-8.0039730">
        <ele>289.3</ele>
        <time>2019-08-17T16:17:50Z</time>
      </trkpt>
      <trkpt lat="42.3967230" lon="-8.0039950">
        <ele>289.4</ele>
        <time>2019-08-17T16:17:51Z</time>
      </trkpt>
      <trkpt lat="42.3967410" lon="-8.0040180">
        <ele>289.6</ele>
        <time>2019-08-17T16:17:52Z</time>
      </trkpt>
      <trkpt lat="42.3967590" lon="-8.0040410">
        <ele>289.8</ele>
        <time>2019-08-17T16:17:53Z</time>
      </trkpt>
      <trkpt lat="42.3967760" lon="-8.0040640">
        <ele>290.0</ele>
        <time>2019-08-17T16:17:54Z</time>
      </trkpt>
      <trkpt lat="42.3967940" lon="-8.0040880">
        <ele>290.1</ele>
        <time>2019-08-17T16:17:55Z</time>
      </trkpt>
      <trkpt lat="42.3968120" lon="-8.0041120">
        <ele>290.3</ele>
        <time>2019-08-17T16:17:56Z</time>
      </trkpt>
      <trkpt lat="42.3968300" lon="-8.0041370">
        <ele>290.5</ele>
        <time>2019-08-17T16:17:57Z</time>
      </trkpt>
      <trkpt lat="42.3968480" lon="-8.0041620">
        <ele>290.6</ele>
        <time>2019-08-17T16:17:58Z</time>
      </trkpt>
      <trkpt lat="42.3968660" lon="-8.0041880">
        <ele>290.8</ele>
        <time>2019-08-17T16:17:59Z</time>
      </trkpt>
      <trkpt lat="42.3968830" lon="-8.0042140">
        <ele>291.0</ele>
        <time>2019-08-17T16:18:00Z</time>
      </trkpt>
      <trkpt lat="42.3969000" lon="-8.0042400">
        <ele>291.5</ele>
        <time>2019-08-17T16:18:01Z</time>
      </trkpt>
      <trkpt lat="42.3969170" lon="-8.0042670">
        <ele>291.7</ele>
        <time>2019-08-17T16:18:02Z</time>
      </trkpt>
      <trkpt lat="42.3969340" lon="-8.0042930">
        <ele>292.0</ele>
        <time>2019-08-17T16:18:03Z</time>
      </trkpt>
      <trkpt lat="42.3969500" lon="-8.0043200">
        <ele>292.2</ele>
        <time>2019-08-17T16:18:04Z</time>
      </trkpt>
      <trkpt lat="42.3969660" lon="-8.0043470">
        <ele>292.4</ele>
        <time>2019-08-17T16:18:05Z</time>
      </trkpt>
      <trkpt lat="42.3969810" lon="-8.0043730">
        <ele>292.7</ele>
        <time>2019-08-17T16:18:06Z</time>
      </trkpt>
      <trkpt lat="42.3969970" lon="-8.0044000">
        <ele>292.9</ele>
        <time>2019-08-17T16:18:07Z</time>
      </trkpt>
      <trkpt lat="42.3970120" lon="-8.0044270">
        <ele>293.0</ele>
        <time>2019-08-17T16:18:08Z</time>
      </trkpt>
      <trkpt lat="42.3970280" lon="-8.0044540">
        <ele>293.2</ele>
        <time>2019-08-17T16:18:09Z</time>
      </trkpt>
      <trkpt lat="42.3970430" lon="-8.0044810">
        <ele>293.4</ele>
        <time>2019-08-17T16:18:10Z</time>
      </trkpt>
      <trkpt lat="42.3970590" lon="-8.0045080">
        <ele>293.6</ele>
        <time>2019-08-17T16:18:11Z</time>
      </trkpt>
      <trkpt lat="42.3970760" lon="-8.0045360">
        <ele>293.8</ele>
        <time>2019-08-17T16:18:12Z</time>
      </trkpt>
      <trkpt lat="42.3970920" lon="-8.0045630">
        <ele>293.9</ele>
        <time>2019-08-17T16:18:13Z</time>
      </trkpt>
      <trkpt lat="42.3971090" lon="-8.0045910">
        <ele>294.1</ele>
        <time>2019-08-17T16:18:14Z</time>
      </trkpt>
      <trkpt lat="42.3971260" lon="-8.0046180">
        <ele>294.3</ele>
        <time>2019-08-17T16:18:15Z</time>
      </trkpt>
      <trkpt lat="42.3971430" lon="-8.0046460">
        <ele>294.4</ele>
        <time>2019-08-17T16:18:16Z</time>
      </trkpt>
      <trkpt lat="42.3971600" lon="-8.0046730">
        <ele>294.6</ele>
        <time>2019-08-17T16:18:17Z</time>
      </trkpt>
      <trkpt lat="42.3971770" lon="-8.0047010">
        <ele>294.7</ele>
        <time>2019-08-17T16:18:18Z</time>
      </trkpt>
      <trkpt lat="42.3971940" lon="-8.0047280">
        <ele>294.9</ele>
        <time>2019-08-17T16:18:19Z</time>
      </trkpt>
      <trkpt lat="42.3972110" lon="-8.0047550">
        <ele>295.1</ele>
        <time>2019-08-17T16:18:20Z</time>
      </trkpt>
      <trkpt lat="42.3972280" lon="-8.0047820">
        <ele>295.2</ele>
        <time>2019-08-17T16:18:21Z</time>
      </trkpt>
      <trkpt lat="42.3972450" lon="-8.0048090">
        <ele>295.4</ele>
        <time>2019-08-17T16:18:22Z</time>
      </trkpt>
      <trkpt lat="42.3972620" lon="-8.0048360">
        <ele>295.6</ele>
        <time>2019-08-17T16:18:23Z</time>
      </trkpt>
      <trkpt lat="42.3972790" lon="-8.0048620">
        <ele>295.9</ele>
        <time>2019-08-17T16:18:24Z</time>
      </trkpt>
      <trkpt lat="42.3972950" lon="-8.0048890">
        <ele>296.1</ele>
        <time>2019-08-17T16:18:25Z</time>
      </trkpt>
      <trkpt lat="42.3973110" lon="-8.0049150">
        <ele>296.3</ele>
        <time>2019-08-17T16:18:26Z</time>
      </trkpt>
      <trkpt lat="42.3973220" lon="-8.0049430">
        <ele>296.5</ele>
        <time>2019-08-17T16:18:27Z</time>
      </trkpt>
      <trkpt lat="42.3973270" lon="-8.0049730">
        <ele>296.7</ele>
        <time>2019-08-17T16:18:28Z</time>
      </trkpt>
      <trkpt lat="42.3973270" lon="-8.0050060">
        <ele>296.9</ele>
        <time>2019-08-17T16:18:29Z</time>
      </trkpt>
      <trkpt lat="42.3973280" lon="-8.0050410">
        <ele>297.1</ele>
        <time>2019-08-17T16:18:30Z</time>
      </trkpt>
      <trkpt lat="42.3973320" lon="-8.0050740">
        <ele>297.3</ele>
        <time>2019-08-17T16:18:31Z</time>
      </trkpt>
      <trkpt lat="42.3973440" lon="-8.0051030">
        <ele>297.5</ele>
        <time>2019-08-17T16:18:32Z</time>
      </trkpt>
      <trkpt lat="42.3973620" lon="-8.0051230">
        <ele>297.8</ele>
        <time>2019-08-17T16:18:33Z</time>
      </trkpt>
      <trkpt lat="42.3973830" lon="-8.0051330">
        <ele>298.0</ele>
        <time>2019-08-17T16:18:34Z</time>
      </trkpt>
      <trkpt lat="42.3974180" lon="-8.0051370">
        <ele>298.4</ele>
        <time>2019-08-17T16:18:35Z</time>
      </trkpt>
      <trkpt lat="42.3974300" lon="-8.0051380">
        <ele>298.5</ele>
        <time>2019-08-17T16:18:36Z</time>
      </trkpt>
      <trkpt lat="42.3974560" lon="-8.0051430">
        <ele>298.7</ele>
        <time>2019-08-17T16:18:37Z</time>
      </trkpt>
      <trkpt lat="42.3974810" lon="-8.0051530">
        <ele>298.8</ele>
        <time>2019-08-17T16:18:38Z</time>
      </trkpt>
      <trkpt lat="42.3975070" lon="-8.0051680">
        <ele>299.0</ele>
        <time>2019-08-17T16:18:39Z</time>
      </trkpt>
      <trkpt lat="42.3975320" lon="-8.0051850">
        <ele>299.1</ele>
        <time>2019-08-17T16:18:40Z</time>
      </trkpt>
      <trkpt lat="42.3975550" lon="-8.0052020">
        <ele>299.3</ele>
        <time>2019-08-17T16:18:41Z</time>
      </trkpt>
      <trkpt lat="42.3975770" lon="-8.0052190">
        <ele>299.5</ele>
        <time>2019-08-17T16:18:42Z</time>
      </trkpt>
      <trkpt lat="42.3975980" lon="-8.0052350">
        <ele>299.6</ele>
        <time>2019-08-17T16:18:43Z</time>
      </trkpt>
      <trkpt lat="42.3976190" lon="-8.0052490">
        <ele>299.7</ele>
        <time>2019-08-17T16:18:44Z</time>
      </trkpt>
      <trkpt lat="42.3976380" lon="-8.0052610">
        <ele>299.9</ele>
        <time>2019-08-17T16:18:45Z</time>
      </trkpt>
      <trkpt lat="42.3976580" lon="-8.0052730">
        <ele>300.0</ele>
        <time>2019-08-17T16:18:46Z</time>
      </trkpt>
      <trkpt lat="42.3976790" lon="-8.0052840">
        <ele>300.1</ele>
        <time>2019-08-17T16:18:47Z</time>
      </trkpt>
      <trkpt lat="42.3977020" lon="-8.0052960">
        <ele>300.3</ele>
        <time>2019-08-17T16:18:48Z</time>
      </trkpt>
      <trkpt lat="42.3977250" lon="-8.0053090">
        <ele>300.4</ele>
        <time>2019-08-17T16:18:49Z</time>
      </trkpt>
      <trkpt lat="42.3977500" lon="-8.0053210">
        <ele>300.6</ele>
        <time>2019-08-17T16:18:50Z</time>
      </trkpt>
      <trkpt lat="42.3977760" lon="-8.0053320">
        <ele>300.8</ele>
        <time>2019-08-17T16:18:51Z</time>
      </trkpt>
      <trkpt lat="42.3978010" lon="-8.0053420">
        <ele>301.0</ele>
        <time>2019-08-17T16:18:52Z</time>
      </trkpt>
      <trkpt lat="42.3978270" lon="-8.0053510">
        <ele>301.2</ele>
        <time>2019-08-17T16:18:53Z</time>
      </trkpt>
      <trkpt lat="42.3978510" lon="-8.0053590">
        <ele>301.4</ele>
        <time>2019-08-17T16:18:54Z</time>
      </trkpt>
      <trkpt lat="42.3978730" lon="-8.0053660">
        <ele>301.6</ele>
        <time>2019-08-17T16:18:55Z</time>
      </trkpt>
      <trkpt lat="42.3978940" lon="-8.0053720">
        <ele>301.8</ele>
        <time>2019-08-17T16:18:56Z</time>
      </trkpt>
      <trkpt lat="42.3979140" lon="-8.0053770">
        <ele>302.0</ele>
        <time>2019-08-17T16:18:57Z</time>
      </trkpt>
      <trkpt lat="42.3979330" lon="-8.0053820">
        <ele>302.1</ele>
        <time>2019-08-17T16:18:58Z</time>
      </trkpt>
      <trkpt lat="42.3979520" lon="-8.0053860">
        <ele>302.3</ele>
        <time>2019-08-17T16:18:59Z</time>
      </trkpt>
      <trkpt lat="42.3979710" lon="-8.0053900">
        <ele>302.5</ele>
        <time>2019-08-17T16:19:00Z</time>
      </trkpt>
      <trkpt lat="42.3979890" lon="-8.0053940">
        <ele>302.6</ele>
        <time>2019-08-17T16:19:01Z</time>
      </trkpt>
      <trkpt lat="42.3980090" lon="-8.0053970">
        <ele>302.8</ele>
        <time>2019-08-17T16:19:02Z</time>
      </trkpt>
      <trkpt lat="42.3980290" lon="-8.0054010">
        <ele>303.0</ele>
        <time>2019-08-17T16:19:03Z</time>
      </trkpt>
      <trkpt lat="42.3980500" lon="-8.0054040">
        <ele>303.2</ele>
        <time>2019-08-17T16:19:04Z</time>
      </trkpt>
      <trkpt lat="42.3980720" lon="-8.0054080">
        <ele>303.4</ele>
        <time>2019-08-17T16:19:05Z</time>
      </trkpt>
      <trkpt lat="42.3980930" lon="-8.0054120">
        <ele>303.6</ele>
        <time>2019-08-17T16:19:06Z</time>
      </trkpt>
      <trkpt lat="42.3981150" lon="-8.0054160">
        <ele>303.8</ele>
        <time>2019-08-17T16:19:07Z</time>
      </trkpt>
      <trkpt lat="42.3981370" lon="-8.0054200">
        <ele>304.0</ele>
        <time>2019-08-17T16:19:08Z</time>
      </trkpt>
      <trkpt lat="42.3981590" lon="-8.0054240">
        <ele>304.2</ele>
        <time>2019-08-17T16:19:09Z</time>
      </trkpt>
      <trkpt lat="42.3981800" lon="-8.0054280">
        <ele>304.4</ele>
        <time>2019-08-17T16:19:10Z</time>
      </trkpt>
      <trkpt lat="42.3982010" lon="-8.0054330">
        <ele>304.6</ele>
        <time>2019-08-17T16:19:11Z</time>
      </trkpt>
      <trkpt lat="42.3982220" lon="-8.0054380">
        <ele>304.8</ele>
        <time>2019-08-17T16:19:12Z</time>
      </trkpt>
      <trkpt lat="42.3982420" lon="-8.0054430">
        <ele>305.0</ele>
        <time>2019-08-17T16:19:13Z</time>
      </trkpt>
      <trkpt lat="42.3982630" lon="-8.0054480">
        <ele>305.3</ele>
        <time>2019-08-17T16:19:14Z</time>
      </trkpt>
      <trkpt lat="42.3982840" lon="-8.0054530">
        <ele>305.5</ele>
        <time>2019-08-17T16:19:15Z</time>
      </trkpt>
      <trkpt lat="42.3983050" lon="-8.0054590">
        <ele>305.7</ele>
        <time>2019-08-17T16:19:16Z</time>
      </trkpt>
      <trkpt lat="42.3983260" lon="-8.0054640">
        <ele>305.9</ele>
        <time>2019-08-17T16:19:17Z</time>
      </trkpt>
      <trkpt lat="42.3983480" lon="-8.0054700">
        <ele>306.1</ele>
        <time>2019-08-17T16:19:18Z</time>
      </trkpt>
      <trkpt lat="42.3983700" lon="-8.0054760">
        <ele>306.3</ele>
        <time>2019-08-17T16:19:19Z</time>
      </trkpt>
      <trkpt lat="42.3983920" lon="-8.0054830">
        <ele>306.5</ele>
        <time>2019-08-17T16:19:20Z</time>
      </trkpt>
      <trkpt lat="42.3984150" lon="-8.0054900">
        <ele>306.7</ele>
        <time>2019-08-17T16:19:21Z</time>
      </trkpt>
      <trkpt lat="42.3984370" lon="-8.0054990">
        <ele>306.9</ele>
        <time>2019-08-17T16:19:22Z</time>
      </trkpt>
      <trkpt lat="42.3984590" lon="-8.0055080">
        <ele>307.0</ele>
        <time>2019-08-17T16:19:23Z</time>
      </trkpt>
      <trkpt lat="42.3984820" lon="-8.0055190">
        <ele>307.2</ele>
        <time>2019-08-17T16:19:24Z</time>
      </trkpt>
      <trkpt lat="42.3985030" lon="-8.0055300">
        <ele>307.4</ele>
        <time>2019-08-17T16:19:25Z</time>
      </trkpt>
      <trkpt lat="42.3985230" lon="-8.0055410">
        <ele>307.5</ele>
        <time>2019-08-17T16:19:26Z</time>
      </trkpt>
      <trkpt lat="42.3985420" lon="-8.0055500">
        <ele>307.7</ele>
        <time>2019-08-17T16:19:27Z</time>
      </trkpt>
      <trkpt lat="42.3985580" lon="-8.0055590">
        <ele>307.8</ele>
        <time>2019-08-17T16:19:28Z</time>
      </trkpt>
      <trkpt lat="42.3985740" lon="-8.0055670">
        <ele>307.9</ele>
        <time>2019-08-17T16:19:29Z</time>
      </trkpt>
      <trkpt lat="42.3985890" lon="-8.0055760">
        <ele>308.0</ele>
        <time>2019-08-17T16:19:30Z</time>
      </trkpt>
      <trkpt lat="42.3986050" lon="-8.0055870">
        <ele>308.2</ele>
        <time>2019-08-17T16:19:31Z</time>
      </trkpt>
      <trkpt lat="42.3986230" lon="-8.0056010">
        <ele>308.3</ele>
        <time>2019-08-17T16:19:32Z</time>
      </trkpt>
      <trkpt lat="42.3986430" lon="-8.0056180">
        <ele>308.5</ele>
        <time>2019-08-17T16:19:33Z</time>
      </trkpt>
      <trkpt lat="42.3986640" lon="-8.0056370">
        <ele>308.7</ele>
        <time>2019-08-17T16:19:34Z</time>
      </trkpt>
      <trkpt lat="42.3986870" lon="-8.0056600">
        <ele>308.9</ele>
        <time>2019-08-17T16:19:35Z</time>
      </trkpt>
      <trkpt lat="42.3987100" lon="-8.0056840">
        <ele>309.1</ele>
        <time>2019-08-17T16:19:36Z</time>
      </trkpt>
      <trkpt lat="42.3987340" lon="-8.0057100">
        <ele>309.4</ele>
        <time>2019-08-17T16:19:37Z</time>
      </trkpt>
      <trkpt lat="42.3987570" lon="-8.0057360">
        <ele>309.6</ele>
        <time>2019-08-17T16:19:38Z</time>
      </trkpt>
      <trkpt lat="42.3987790" lon="-8.0057630">
        <ele>309.9</ele>
        <time>2019-08-17T16:19:39Z</time>
      </trkpt>
      <trkpt lat="42.3988010" lon="-8.0057890">
        <ele>310.1</ele>
        <time>2019-08-17T16:19:40Z</time>
      </trkpt>
      <trkpt lat="42.3988210" lon="-8.0058160">
        <ele>310.3</ele>
        <time>2019-08-17T16:19:41Z</time>
      </trkpt>
      <trkpt lat="42.3988410" lon="-8.0058430">
        <ele>310.5</ele>
        <time>2019-08-17T16:19:42Z</time>
      </trkpt>
      <trkpt lat="42.3988610" lon="-8.0058710">
        <ele>310.7</ele>
        <time>2019-08-17T16:19:43Z</time>
      </trkpt>
      <trkpt lat="42.3988800" lon="-8.0059000">
        <ele>310.9</ele>
        <time>2019-08-17T16:19:44Z</time>
      </trkpt>
      <trkpt lat="42.3988980" lon="-8.0059310">
        <ele>311.1</ele>
        <time>2019-08-17T16:19:45Z</time>
      </trkpt>
      <trkpt lat="42.3989170" lon="-8.0059630">
        <ele>311.3</ele>
        <time>2019-08-17T16:19:46Z</time>
      </trkpt>
      <trkpt lat="42.3989350" lon="-8.0059970">
        <ele>311.6</ele>
        <time>2019-08-17T16:19:47Z</time>
      </trkpt>
      <trkpt lat="42.3989530" lon="-8.0060320">
        <ele>311.8</ele>
        <time>2019-08-17T16:19:48Z</time>
      </trkpt>
      <trkpt lat="42.3989710" lon="-8.0060690">
        <ele>312.0</ele>
        <time>2019-08-17T16:19:49Z</time>
      </trkpt>
      <trkpt lat="42.3989880" lon="-8.0061070">
        <ele>312.3</ele>
        <time>2019-08-17T16:19:50Z</time>
      </trkpt>
      <trkpt lat="42.3990060" lon="-8.0061450">
        <ele>312.5</ele>
        <time>2019-08-17T16:19:51Z</time>
      </trkpt>
      <trkpt lat="42.3990230" lon="-8.0061850">
        <ele>312.6</ele>
        <time>2019-08-17T16:19:52Z</time>
      </trkpt>
      <trkpt lat="42.3990390" lon="-8.0062260">
        <ele>312.6</ele>
        <time>2019-08-17T16:19:53Z</time>
      </trkpt>
      <trkpt lat="42.3990560" lon="-8.0062680">
        <ele>312.6</ele>
        <time>2019-08-17T16:19:54Z</time>
      </trkpt>
      <trkpt lat="42.3990710" lon="-8.0063110">
        <ele>312.6</ele>
        <time>2019-08-17T16:19:55Z</time>
      </trkpt>
      <trkpt lat="42.3990870" lon="-8.0063550">
        <ele>312.6</ele>
        <time>2019-08-17T16:19:56Z</time>
      </trkpt>
      <trkpt lat="42.3991010" lon="-8.0064010">
        <ele>312.6</ele>
        <time>2019-08-17T16:19:57Z</time>
      </trkpt>
      <trkpt lat="42.3991140" lon="-8.0064490">
        <ele>312.7</ele>
        <time>2019-08-17T16:19:58Z</time>
      </trkpt>
      <trkpt lat="42.3991270" lon="-8.0065000">
        <ele>312.7</ele>
        <time>2019-08-17T16:19:59Z</time>
      </trkpt>
      <trkpt lat="42.3991380" lon="-8.0065520">
        <ele>312.7</ele>
        <time>2019-08-17T16:20:00Z</time>
      </trkpt>
      <trkpt lat="42.3991480" lon="-8.0066070">
        <ele>312.7</ele>
        <time>2019-08-17T16:20:01Z</time>
      </trkpt>
      <trkpt lat="42.3991570" lon="-8.0066650">
        <ele>312.7</ele>
        <time>2019-08-17T16:20:02Z</time>
      </trkpt>
      <trkpt lat="42.3991640" lon="-8.0067240">
        <ele>312.7</ele>
        <time>2019-08-17T16:20:03Z</time>
      </trkpt>
      <trkpt lat="42.3991710" lon="-8.0067840">
        <ele>312.6</ele>
        <time>2019-08-17T16:20:04Z</time>
      </trkpt>
      <trkpt lat="42.3991760" lon="-8.0068470">
        <ele>312.6</ele>
        <time>2019-08-17T16:20:05Z</time>
      </trkpt>
      <trkpt lat="42.3991790" lon="-8.0069090">
        <ele>312.6</ele>
        <time>2019-08-17T16:20:06Z</time>
      </trkpt>
      <trkpt lat="42.3991810" lon="-8.0069730">
        <ele>312.6</ele>
        <time>2019-08-17T16:20:07Z</time>
      </trkpt>
      <trkpt lat="42.3991820" lon="-8.0070370">
        <ele>312.6</ele>
        <time>2019-08-17T16:20:08Z</time>
      </trkpt>
      <trkpt lat="42.3991810" lon="-8.0071010">
        <ele>312.6</ele>
        <time>2019-08-17T16:20:09Z</time>
      </trkpt>
      <trkpt lat="42.3991790" lon="-8.0071660">
        <ele>312.6</ele>
        <time>2019-08-17T16:20:10Z</time>
      </trkpt>
      <trkpt lat="42.3991770" lon="-8.0072310">
        <ele>312.8</ele>
        <time>2019-08-17T16:20:11Z</time>
      </trkpt>
      <trkpt lat="42.3991740" lon="-8.0072970">
        <ele>312.9</ele>
        <time>2019-08-17T16:20:12Z</time>
      </trkpt>
      <trkpt lat="42.3991700" lon="-8.0073630">
        <ele>313.0</ele>
        <time>2019-08-17T16:20:13Z</time>
      </trkpt>
      <trkpt lat="42.3991660" lon="-8.0074300">
        <ele>313.2</ele>
        <time>2019-08-17T16:20:14Z</time>
      </trkpt>
      <trkpt lat="42.3991620" lon="-8.0074980">
        <ele>313.3</ele>
        <time>2019-08-17T16:20:15Z</time>
      </trkpt>
      <trkpt lat="42.3991580" lon="-8.0075660">
        <ele>313.4</ele>
        <time>2019-08-17T16:20:16Z</time>
      </trkpt>
      <trkpt lat="42.3991550" lon="-8.0076350">
        <ele>313.5</ele>
        <time>2019-08-17T16:20:17Z</time>
      </trkpt>
      <trkpt lat="42.3991530" lon="-8.0077050">
        <ele>313.7</ele>
        <time>2019-08-17T16:20:18Z</time>
      </trkpt>
      <trkpt lat="42.3991510" lon="-8.0077750">
        <ele>313.8</ele>
        <time>2019-08-17T16:20:19Z</time>
      </trkpt>
      <trkpt lat="42.3991520" lon="-8.0078470">
        <ele>313.9</ele>
        <time>2019-08-17T16:20:20Z</time>
      </trkpt>
      <trkpt lat="42.3991540" lon="-8.0079180">
        <ele>313.9</ele>
        <time>2019-08-17T16:20:21Z</time>
      </trkpt>
      <trkpt lat="42.3991590" lon="-8.0079900">
        <ele>314.0</ele>
        <time>2019-08-17T16:20:22Z</time>
      </trkpt>
      <trkpt lat="42.3991660" lon="-8.0080630">
        <ele>314.1</ele>
        <time>2019-08-17T16:20:23Z</time>
      </trkpt>
      <trkpt lat="42.3991750" lon="-8.0081350">
        <ele>314.2</ele>
        <time>2019-08-17T16:20:24Z</time>
      </trkpt>
      <trkpt lat="42.3991870" lon="-8.0082080">
        <ele>314.3</ele>
        <time>2019-08-17T16:20:25Z</time>
      </trkpt>
      <trkpt lat="42.3992000" lon="-8.0082800">
        <ele>314.3</ele>
        <time>2019-08-17T16:20:26Z</time>
      </trkpt>
      <trkpt lat="42.3992140" lon="-8.0083510">
        <ele>314.2</ele>
        <time>2019-08-17T16:20:27Z</time>
      </trkpt>
      <trkpt lat="42.3992290" lon="-8.0084210">
        <ele>313.9</ele>
        <time>2019-08-17T16:20:28Z</time>
      </trkpt>
      <trkpt lat="42.3992450" lon="-8.0084900">
        <ele>313.6</ele>
        <time>2019-08-17T16:20:29Z</time>
      </trkpt>
      <trkpt lat="42.3992600" lon="-8.0085570">
        <ele>313.4</ele>
        <time>2019-08-17T16:20:30Z</time>
      </trkpt>
      <trkpt lat="42.3992770" lon="-8.0086230">
        <ele>313.2</ele>
        <time>2019-08-17T16:20:31Z</time>
      </trkpt>
      <trkpt lat="42.3992970" lon="-8.0086880">
        <ele>313.0</ele>
        <time>2019-08-17T16:20:32Z</time>
      </trkpt>
      <trkpt lat="42.3993220" lon="-8.0087540">
        <ele>312.9</ele>
        <time>2019-08-17T16:20:33Z</time>
      </trkpt>
      <trkpt lat="42.3993500" lon="-8.0088180">
        <ele>312.8</ele>
        <time>2019-08-17T16:20:34Z</time>
      </trkpt>
      <trkpt lat="42.3993780" lon="-8.0088800">
        <ele>312.7</ele>
        <time>2019-08-17T16:20:35Z</time>
      </trkpt>
      <trkpt lat="42.3994050" lon="-8.0089390">
        <ele>312.7</ele>
        <time>2019-08-17T16:20:36Z</time>
      </trkpt>
      <trkpt lat="42.3994340" lon="-8.0089970">
        <ele>312.7</ele>
        <time>2019-08-17T16:20:37Z</time>
      </trkpt>
      <trkpt lat="42.3994660" lon="-8.0090530">
        <ele>312.6</ele>
        <time>2019-08-17T16:20:38Z</time>
      </trkpt>
      <trkpt lat="42.3995010" lon="-8.0091080">
        <ele>312.6</ele>
        <time>2019-08-17T16:20:39Z</time>
      </trkpt>
      <trkpt lat="42.3995370" lon="-8.0091610">
        <ele>312.7</ele>
        <time>2019-08-17T16:20:40Z</time>
      </trkpt>
      <trkpt lat="42.3995750" lon="-8.0092120">
        <ele>312.7</ele>
        <time>2019-08-17T16:20:41Z</time>
      </trkpt>
      <trkpt lat="42.3996150" lon="-8.0092620">
        <ele>312.7</ele>
        <time>2019-08-17T16:20:42Z</time>
      </trkpt>
      <trkpt lat="42.3996560" lon="-8.0093100">
        <ele>312.7</ele>
        <time>2019-08-17T16:20:43Z</time>
      </trkpt>
      <trkpt lat="42.3996980" lon="-8.0093560">
        <ele>312.8</ele>
        <time>2019-08-17T16:20:44Z</time>
      </trkpt>
      <trkpt lat="42.3997400" lon="-8.0093990">
        <ele>312.8</ele>
        <time>2019-08-17T16:20:45Z</time>
      </trkpt>
      <trkpt lat="42.3997830" lon="-8.0094410">
        <ele>312.8</ele>
        <time>2019-08-17T16:20:46Z</time>
      </trkpt>
      <trkpt lat="42.3998270" lon="-8.0094800">
        <ele>312.9</ele>
        <time>2019-08-17T16:20:47Z</time>
      </trkpt>
      <trkpt lat="42.3998700" lon="-8.0095190">
        <ele>313.0</ele>
        <time>2019-08-17T16:20:48Z</time>
      </trkpt>
      <trkpt lat="42.3999140" lon="-8.0095560">
        <ele>313.1</ele>
        <time>2019-08-17T16:20:49Z</time>
      </trkpt>
      <trkpt lat="42.3999590" lon="-8.0095920">
        <ele>313.2</ele>
        <time>2019-08-17T16:20:50Z</time>
      </trkpt>
      <trkpt lat="42.4000040" lon="-8.0096270">
        <ele>313.3</ele>
        <time>2019-08-17T16:20:51Z</time>
      </trkpt>
      <trkpt lat="42.4000490" lon="-8.0096610">
        <ele>313.4</ele>
        <time>2019-08-17T16:20:52Z</time>
      </trkpt>
      <trkpt lat="42.4000950" lon="-8.0096950">
        <ele>313.5</ele>
        <time>2019-08-17T16:20:53Z</time>
      </trkpt>
      <trkpt lat="42.4001410" lon="-8.0097290">
        <ele>313.6</ele>
        <time>2019-08-17T16:20:54Z</time>
      </trkpt>
      <trkpt lat="42.4001870" lon="-8.0097620">
        <ele>313.6</ele>
        <time>2019-08-17T16:20:55Z</time>
      </trkpt>
      <trkpt lat="42.4002340" lon="-8.0097950">
        <ele>313.7</ele>
        <time>2019-08-17T16:20:56Z</time>
      </trkpt>
      <trkpt lat="42.4002800" lon="-8.0098270">
        <ele>313.8</ele>
        <time>2019-08-17T16:20:57Z</time>
      </trkpt>
      <trkpt lat="42.4003270" lon="-8.0098590">
        <ele>313.8</ele>
        <time>2019-08-17T16:20:58Z</time>
      </trkpt>
      <trkpt lat="42.4003740" lon="-8.0098900">
        <ele>313.9</ele>
        <time>2019-08-17T16:20:59Z</time>
      </trkpt>
      <trkpt lat="42.4004210" lon="-8.0099210">
        <ele>314.0</ele>
        <time>2019-08-17T16:21:00Z</time>
      </trkpt>
      <trkpt lat="42.4004680" lon="-8.0099520">
        <ele>314.1</ele>
        <time>2019-08-17T16:21:01Z</time>
      </trkpt>
      <trkpt lat="42.4005150" lon="-8.0099820">
        <ele>314.3</ele>
        <time>2019-08-17T16:21:02Z</time>
      </trkpt>
      <trkpt lat="42.4005930" lon="-8.0100320">
        <ele>314.5</ele>
        <time>2019-08-17T16:21:03Z</time>
      </trkpt>
      <trkpt lat="42.4006240" lon="-8.0100510">
        <ele>314.6</ele>
        <time>2019-08-17T16:21:04Z</time>
      </trkpt>
      <trkpt lat="42.4006550" lon="-8.0100710">
        <ele>314.7</ele>
        <time>2019-08-17T16:21:05Z</time>
      </trkpt>
      <trkpt lat="42.4007010" lon="-8.0101000">
        <ele>314.9</ele>
        <time>2019-08-17T16:21:06Z</time>
      </trkpt>
      <trkpt lat="42.4007470" lon="-8.0101290">
        <ele>315.1</ele>
        <time>2019-08-17T16:21:07Z</time>
      </trkpt>
      <trkpt lat="42.4008230" lon="-8.0101760">
        <ele>315.5</ele>
        <time>2019-08-17T16:21:08Z</time>
      </trkpt>
      <trkpt lat="42.4008530" lon="-8.0101950">
        <ele>315.6</ele>
        <time>2019-08-17T16:21:09Z</time>
      </trkpt>
      <trkpt lat="42.4008830" lon="-8.0102140">
        <ele>315.7</ele>
        <time>2019-08-17T16:21:10Z</time>
      </trkpt>
      <trkpt lat="42.4009280" lon="-8.0102410">
        <ele>315.9</ele>
        <time>2019-08-17T16:21:11Z</time>
      </trkpt>
      <trkpt lat="42.4009720" lon="-8.0102680">
        <ele>316.1</ele>
        <time>2019-08-17T16:21:12Z</time>
      </trkpt>
      <trkpt lat="42.4010160" lon="-8.0102950">
        <ele>316.3</ele>
        <time>2019-08-17T16:21:13Z</time>
      </trkpt>
      <trkpt lat="42.4010600" lon="-8.0103220">
        <ele>316.4</ele>
        <time>2019-08-17T16:21:14Z</time>
      </trkpt>
      <trkpt lat="42.4011040" lon="-8.0103480">
        <ele>316.5</ele>
        <time>2019-08-17T16:21:15Z</time>
      </trkpt>
      <trkpt lat="42.4011480" lon="-8.0103730">
        <ele>316.6</ele>
        <time>2019-08-17T16:21:16Z</time>
      </trkpt>
      <trkpt lat="42.4011910" lon="-8.0103980">
        <ele>316.7</ele>
        <time>2019-08-17T16:21:17Z</time>
      </trkpt>
      <trkpt lat="42.4012340" lon="-8.0104230">
        <ele>316.8</ele>
        <time>2019-08-17T16:21:18Z</time>
      </trkpt>
      <trkpt lat="42.4012770" lon="-8.0104470">
        <ele>316.9</ele>
        <time>2019-08-17T16:21:19Z</time>
      </trkpt>
      <trkpt lat="42.4013190" lon="-8.0104700">
        <ele>317.0</ele>
        <time>2019-08-17T16:21:20Z</time>
      </trkpt>
      <trkpt lat="42.4013620" lon="-8.0104930">
        <ele>317.1</ele>
        <time>2019-08-17T16:21:21Z</time>
      </trkpt>
      <trkpt lat="42.4014040" lon="-8.0105150">
        <ele>317.2</ele>
        <time>2019-08-17T16:21:22Z</time>
      </trkpt>
      <trkpt lat="42.4014460" lon="-8.0105370">
        <ele>317.3</ele>
        <time>2019-08-17T16:21:23Z</time>
      </trkpt>
      <trkpt lat="42.4014880" lon="-8.0105590">
        <ele>317.4</ele>
        <time>2019-08-17T16:21:24Z</time>
      </trkpt>
      <trkpt lat="42.4015300" lon="-8.0105800">
        <ele>317.5</ele>
        <time>2019-08-17T16:21:25Z</time>
      </trkpt>
      <trkpt lat="42.4015710" lon="-8.0106020">
        <ele>317.5</ele>
        <time>2019-08-17T16:21:26Z</time>
      </trkpt>
      <trkpt lat="42.4016120" lon="-8.0106230">
        <ele>317.6</ele>
        <time>2019-08-17T16:21:27Z</time>
      </trkpt>
      <trkpt lat="42.4016530" lon="-8.0106450">
        <ele>317.7</ele>
        <time>2019-08-17T16:21:28Z</time>
      </trkpt>
      <trkpt lat="42.4016940" lon="-8.0106670">
        <ele>317.7</ele>
        <time>2019-08-17T16:21:29Z</time>
      </trkpt>
      <trkpt lat="42.4017350" lon="-8.0106890">
        <ele>317.7</ele>
        <time>2019-08-17T16:21:30Z</time>
      </trkpt>
      <trkpt lat="42.4017750" lon="-8.0107110">
        <ele>317.7</ele>
        <time>2019-08-17T16:21:31Z</time>
      </trkpt>
      <trkpt lat="42.4018160" lon="-8.0107330">
        <ele>317.8</ele>
        <time>2019-08-17T16:21:32Z</time>
      </trkpt>
      <trkpt lat="42.4018560" lon="-8.0107550">
        <ele>317.8</ele>
        <time>2019-08-17T16:21:33Z</time>
      </trkpt>
      <trkpt lat="42.4018960" lon="-8.0107760">
        <ele>317.8</ele>
        <time>2019-08-17T16:21:34Z</time>
      </trkpt>
      <trkpt lat="42.4019370" lon="-8.0107970">
        <ele>317.9</ele>
        <time>2019-08-17T16:21:35Z</time>
      </trkpt>
      <trkpt lat="42.4019770" lon="-8.0108180">
        <ele>318.0</ele>
        <time>2019-08-17T16:21:36Z</time>
      </trkpt>
      <trkpt lat="42.4020180" lon="-8.0108380">
        <ele>318.0</ele>
        <time>2019-08-17T16:21:37Z</time>
      </trkpt>
      <trkpt lat="42.4020590" lon="-8.0108580">
        <ele>318.1</ele>
        <time>2019-08-17T16:21:38Z</time>
      </trkpt>
      <trkpt lat="42.4021000" lon="-8.0108770">
        <ele>318.3</ele>
        <time>2019-08-17T16:21:39Z</time>
      </trkpt>
      <trkpt lat="42.4021410" lon="-8.0108960">
        <ele>318.4</ele>
        <time>2019-08-17T16:21:40Z</time>
      </trkpt>
      <trkpt lat="42.4021820" lon="-8.0109150">
        <ele>318.5</ele>
        <time>2019-08-17T16:21:41Z</time>
      </trkpt>
      <trkpt lat="42.4022230" lon="-8.0109340">
        <ele>318.7</ele>
        <time>2019-08-17T16:21:42Z</time>
      </trkpt>
      <trkpt lat="42.4022640" lon="-8.0109520">
        <ele>318.8</ele>
        <time>2019-08-17T16:21:43Z</time>
      </trkpt>
      <trkpt lat="42.4023050" lon="-8.0109700">
        <ele>318.9</ele>
        <time>2019-08-17T16:21:44Z</time>
      </trkpt>
      <trkpt lat="42.4023460" lon="-8.0109870">
        <ele>319.0</ele>
        <time>2019-08-17T16:21:45Z</time>
      </trkpt>
      <trkpt lat="42.4023880" lon="-8.0110050">
        <ele>319.1</ele>
        <time>2019-08-17T16:21:46Z</time>
      </trkpt>
      <trkpt lat="42.4024290" lon="-8.0110220">
        <ele>319.2</ele>
        <time>2019-08-17T16:21:47Z</time>
      </trkpt>
      <trkpt lat="42.4024700" lon="-8.0110400">
        <ele>319.3</ele>
        <time>2019-08-17T16:21:48Z</time>
      </trkpt>
      <trkpt lat="42.4025120" lon="-8.0110570">
        <ele>319.4</ele>
        <time>2019-08-17T16:21:49Z</time>
      </trkpt>
      <trkpt lat="42.4025530" lon="-8.0110740">
        <ele>319.6</ele>
        <time>2019-08-17T16:21:50Z</time>
      </trkpt>
      <trkpt lat="42.4025950" lon="-8.0110920">
        <ele>319.7</ele>
        <time>2019-08-17T16:21:51Z</time>
      </trkpt>
      <trkpt lat="42.4026360" lon="-8.0111090">
        <ele>319.8</ele>
        <time>2019-08-17T16:21:52Z</time>
      </trkpt>
      <trkpt lat="42.4026780" lon="-8.0111260">
        <ele>319.9</ele>
        <time>2019-08-17T16:21:53Z</time>
      </trkpt>
      <trkpt lat="42.4027190" lon="-8.0111430">
        <ele>320.0</ele>
        <time>2019-08-17T16:21:54Z</time>
      </trkpt>
      <trkpt lat="42.4027610" lon="-8.0111610">
        <ele>320.1</ele>
        <time>2019-08-17T16:21:55Z</time>
      </trkpt>
      <trkpt lat="42.4028020" lon="-8.0111780">
        <ele>320.2</ele>
        <time>2019-08-17T16:21:56Z</time>
      </trkpt>
      <trkpt lat="42.4028430" lon="-8.0111960">
        <ele>320.3</ele>
        <time>2019-08-17T16:21:57Z</time>
      </trkpt>
      <trkpt lat="42.4028850" lon="-8.0112130">
        <ele>320.5</ele>
        <time>2019-08-17T16:21:58Z</time>
      </trkpt>
      <trkpt lat="42.4029260" lon="-8.0112310">
        <ele>320.6</ele>
        <time>2019-08-17T16:21:59Z</time>
      </trkpt>
      <trkpt lat="42.4029670" lon="-8.0112490">
        <ele>320.7</ele>
        <time>2019-08-17T16:22:00Z</time>
      </trkpt>
      <trkpt lat="42.4030090" lon="-8.0112670">
        <ele>320.8</ele>
        <time>2019-08-17T16:22:01Z</time>
      </trkpt>
      <trkpt lat="42.4030500" lon="-8.0112850">
        <ele>320.9</ele>
        <time>2019-08-17T16:22:02Z</time>
      </trkpt>
      <trkpt lat="42.4030910" lon="-8.0113040">
        <ele>321.0</ele>
        <time>2019-08-17T16:22:03Z</time>
      </trkpt>
      <trkpt lat="42.4031320" lon="-8.0113220">
        <ele>321.1</ele>
        <time>2019-08-17T16:22:04Z</time>
      </trkpt>
      <trkpt lat="42.4031730" lon="-8.0113410">
        <ele>321.2</ele>
        <time>2019-08-17T16:22:05Z</time>
      </trkpt>
      <trkpt lat="42.4032140" lon="-8.0113600">
        <ele>321.3</ele>
        <time>2019-08-17T16:22:06Z</time>
      </trkpt>
      <trkpt lat="42.4032550" lon="-8.0113790">
        <ele>321.3</ele>
        <time>2019-08-17T16:22:07Z</time>
      </trkpt>
      <trkpt lat="42.4032950" lon="-8.0113990">
        <ele>321.4</ele>
        <time>2019-08-17T16:22:08Z</time>
      </trkpt>
      <trkpt lat="42.4033350" lon="-8.0114190">
        <ele>321.5</ele>
        <time>2019-08-17T16:22:09Z</time>
      </trkpt>
      <trkpt lat="42.4033740" lon="-8.0114390">
        <ele>321.5</ele>
        <time>2019-08-17T16:22:10Z</time>
      </trkpt>
      <trkpt lat="42.4034130" lon="-8.0114600">
        <ele>321.6</ele>
        <time>2019-08-17T16:22:11Z</time>
      </trkpt>
      <trkpt lat="42.4034500" lon="-8.0114810">
        <ele>321.7</ele>
        <time>2019-08-17T16:22:12Z</time>
      </trkpt>
      <trkpt lat="42.4034870" lon="-8.0115030">
        <ele>321.7</ele>
        <time>2019-08-17T16:22:13Z</time>
      </trkpt>
      <trkpt lat="42.4035230" lon="-8.0115250">
        <ele>321.8</ele>
        <time>2019-08-17T16:22:14Z</time>
      </trkpt>
      <trkpt lat="42.4035570" lon="-8.0115480">
        <ele>321.8</ele>
        <time>2019-08-17T16:22:15Z</time>
      </trkpt>
      <trkpt lat="42.4035900" lon="-8.0115710">
        <ele>321.8</ele>
        <time>2019-08-17T16:22:16Z</time>
      </trkpt>
      <trkpt lat="42.4036220" lon="-8.0115950">
        <ele>321.9</ele>
        <time>2019-08-17T16:22:17Z</time>
      </trkpt>
      <trkpt lat="42.4036530" lon="-8.0116200">
        <ele>321.9</ele>
        <time>2019-08-17T16:22:18Z</time>
      </trkpt>
      <trkpt lat="42.4036820" lon="-8.0116460">
        <ele>322.0</ele>
        <time>2019-08-17T16:22:19Z</time>
      </trkpt>
      <trkpt lat="42.4037090" lon="-8.0116720">
        <ele>322.0</ele>
        <time>2019-08-17T16:22:20Z</time>
      </trkpt>
      <trkpt lat="42.4037350" lon="-8.0116980">
        <ele>322.0</ele>
        <time>2019-08-17T16:22:21Z</time>
      </trkpt>
      <trkpt lat="42.4037590" lon="-8.0117240">
        <ele>322.0</ele>
        <time>2019-08-17T16:22:22Z</time>
      </trkpt>
      <trkpt lat="42.4037830" lon="-8.0117480">
        <ele>322.1</ele>
        <time>2019-08-17T16:22:23Z</time>
      </trkpt>
      <trkpt lat="42.4038060" lon="-8.0117720">
        <ele>322.1</ele>
        <time>2019-08-17T16:22:24Z</time>
      </trkpt>
      <trkpt lat="42.4038280" lon="-8.0117960">
        <ele>322.1</ele>
        <time>2019-08-17T16:22:25Z</time>
      </trkpt>
      <trkpt lat="42.4038510" lon="-8.0118210">
        <ele>322.2</ele>
        <time>2019-08-17T16:22:26Z</time>
      </trkpt>
      <trkpt lat="42.4038750" lon="-8.0118490">
        <ele>322.2</ele>
        <time>2019-08-17T16:22:27Z</time>
      </trkpt>
      <trkpt lat="42.4039000" lon="-8.0118800">
        <ele>322.2</ele>
        <time>2019-08-17T16:22:28Z</time>
      </trkpt>
      <trkpt lat="42.4039270" lon="-8.0119150">
        <ele>322.3</ele>
        <time>2019-08-17T16:22:29Z</time>
      </trkpt>
      <trkpt lat="42.4039540" lon="-8.0119530">
        <ele>322.3</ele>
        <time>2019-08-17T16:22:30Z</time>
      </trkpt>
      <trkpt lat="42.4039810" lon="-8.0119930">
        <ele>322.3</ele>
        <time>2019-08-17T16:22:31Z</time>
      </trkpt>
      <trkpt lat="42.4040090" lon="-8.0120370">
        <ele>322.3</ele>
        <time>2019-08-17T16:22:32Z</time>
      </trkpt>
      <trkpt lat="42.4040530" lon="-8.0121140">
        <ele>322.3</ele>
        <time>2019-08-17T16:22:33Z</time>
      </trkpt>
      <trkpt lat="42.4040710" lon="-8.0121450">
        <ele>322.3</ele>
        <time>2019-08-17T16:22:34Z</time>
      </trkpt>
      <trkpt lat="42.4040880" lon="-8.0121770">
        <ele>322.3</ele>
        <time>2019-08-17T16:22:35Z</time>
      </trkpt>
      <trkpt lat="42.4041130" lon="-8.0122260">
        <ele>322.3</ele>
        <time>2019-08-17T16:22:36Z</time>
      </trkpt>
      <trkpt lat="42.4041360" lon="-8.0122760">
        <ele>322.4</ele>
        <time>2019-08-17T16:22:37Z</time>
      </trkpt>
      <trkpt lat="42.4041580" lon="-8.0123280">
        <ele>322.4</ele>
        <time>2019-08-17T16:22:38Z</time>
      </trkpt>
      <trkpt lat="42.4041790" lon="-8.0123820">
        <ele>322.4</ele>
        <time>2019-08-17T16:22:39Z</time>
      </trkpt>
      <trkpt lat="42.4041990" lon="-8.0124360">
        <ele>322.4</ele>
        <time>2019-08-17T16:22:40Z</time>
      </trkpt>
      <trkpt lat="42.4042180" lon="-8.0124920">
        <ele>322.4</ele>
        <time>2019-08-17T16:22:41Z</time>
      </trkpt>
      <trkpt lat="42.4042360" lon="-8.0125500">
        <ele>322.4</ele>
        <time>2019-08-17T16:22:42Z</time>
      </trkpt>
      <trkpt lat="42.4042540" lon="-8.0126080">
        <ele>322.5</ele>
        <time>2019-08-17T16:22:43Z</time>
      </trkpt>
      <trkpt lat="42.4042700" lon="-8.0126670">
        <ele>322.5</ele>
        <time>2019-08-17T16:22:44Z</time>
      </trkpt>
      <trkpt lat="42.4042840" lon="-8.0127270">
        <ele>322.5</ele>
        <time>2019-08-17T16:22:45Z</time>
      </trkpt>
      <trkpt lat="42.4042980" lon="-8.0127880">
        <ele>322.6</ele>
        <time>2019-08-17T16:22:46Z</time>
      </trkpt>
      <trkpt lat="42.4043100" lon="-8.0128480">
        <ele>322.6</ele>
        <time>2019-08-17T16:22:47Z</time>
      </trkpt>
      <trkpt lat="42.4043200" lon="-8.0129080">
        <ele>322.7</ele>
        <time>2019-08-17T16:22:48Z</time>
      </trkpt>
      <trkpt lat="42.4043290" lon="-8.0129670">
        <ele>322.7</ele>
        <time>2019-08-17T16:22:49Z</time>
      </trkpt>
      <trkpt lat="42.4043370" lon="-8.0130260">
        <ele>322.7</ele>
        <time>2019-08-17T16:22:50Z</time>
      </trkpt>
      <trkpt lat="42.4043440" lon="-8.0130850">
        <ele>322.8</ele>
        <time>2019-08-17T16:22:51Z</time>
      </trkpt>
      <trkpt lat="42.4043500" lon="-8.0131440">
        <ele>322.8</ele>
        <time>2019-08-17T16:22:52Z</time>
      </trkpt>
      <trkpt lat="42.4043550" lon="-8.0132040">
        <ele>322.8</ele>
        <time>2019-08-17T16:22:53Z</time>
      </trkpt>
      <trkpt lat="42.4043590" lon="-8.0132640">
        <ele>322.8</ele>
        <time>2019-08-17T16:22:54Z</time>
      </trkpt>
      <trkpt lat="42.4043640" lon="-8.0133250">
        <ele>322.8</ele>
        <time>2019-08-17T16:22:55Z</time>
      </trkpt>
      <trkpt lat="42.4043690" lon="-8.0133880">
        <ele>322.9</ele>
        <time>2019-08-17T16:22:56Z</time>
      </trkpt>
      <trkpt lat="42.4043730" lon="-8.0134510">
        <ele>322.9</ele>
        <time>2019-08-17T16:22:57Z</time>
      </trkpt>
      <trkpt lat="42.4043790" lon="-8.0135160">
        <ele>322.9</ele>
        <time>2019-08-17T16:22:58Z</time>
      </trkpt>
      <trkpt lat="42.4043850" lon="-8.0135820">
        <ele>322.9</ele>
        <time>2019-08-17T16:22:59Z</time>
      </trkpt>
      <trkpt lat="42.4043920" lon="-8.0136480">
        <ele>322.9</ele>
        <time>2019-08-17T16:23:00Z</time>
      </trkpt>
      <trkpt lat="42.4044010" lon="-8.0137150">
        <ele>322.9</ele>
        <time>2019-08-17T16:23:01Z</time>
      </trkpt>
      <trkpt lat="42.4044100" lon="-8.0137820">
        <ele>322.9</ele>
        <time>2019-08-17T16:23:02Z</time>
      </trkpt>
      <trkpt lat="42.4044220" lon="-8.0138490">
        <ele>322.9</ele>
        <time>2019-08-17T16:23:03Z</time>
      </trkpt>
      <trkpt lat="42.4044350" lon="-8.0139150">
        <ele>322.9</ele>
        <time>2019-08-17T16:23:04Z</time>
      </trkpt>
      <trkpt lat="42.4044510" lon="-8.0139820">
        <ele>322.9</ele>
        <time>2019-08-17T16:23:05Z</time>
      </trkpt>
      <trkpt lat="42.4044680" lon="-8.0140470">
        <ele>322.9</ele>
        <time>2019-08-17T16:23:06Z</time>
      </trkpt>
      <trkpt lat="42.4044860" lon="-8.0141120">
        <ele>322.3</ele>
        <time>2019-08-17T16:23:07Z</time>
      </trkpt>
      <trkpt lat="42.4045060" lon="-8.0141760">
        <ele>321.9</ele>
        <time>2019-08-17T16:23:08Z</time>
      </trkpt>
      <trkpt lat="42.4045280" lon="-8.0142380">
        <ele>321.6</ele>
        <time>2019-08-17T16:23:09Z</time>
      </trkpt>
      <trkpt lat="42.4045500" lon="-8.0142990">
        <ele>321.3</ele>
        <time>2019-08-17T16:23:10Z</time>
      </trkpt>
      <trkpt lat="42.4045740" lon="-8.0143590">
        <ele>320.9</ele>
        <time>2019-08-17T16:23:11Z</time>
      </trkpt>
      <trkpt lat="42.4045990" lon="-8.0144160">
        <ele>320.6</ele>
        <time>2019-08-17T16:23:12Z</time>
      </trkpt>
      <trkpt lat="42.4046250" lon="-8.0144720">
        <ele>320.3</ele>
        <time>2019-08-17T16:23:13Z</time>
      </trkpt>
      <trkpt lat="42.4046530" lon="-8.0145260">
        <ele>320.1</ele>
        <time>2019-08-17T16:23:14Z</time>
      </trkpt>
      <trkpt lat="42.4046830" lon="-8.0145780">
        <ele>319.8</ele>
        <time>2019-08-17T16:23:15Z</time>
      </trkpt>
      <trkpt lat="42.4047150" lon="-8.0146290">
        <ele>319.6</ele>
        <time>2019-08-17T16:23:16Z</time>
      </trkpt>
      <trkpt lat="42.4047490" lon="-8.0146770">
        <ele>319.6</ele>
        <time>2019-08-17T16:23:17Z</time>
      </trkpt>
      <trkpt lat="42.4047860" lon="-8.0147240">
        <ele>319.6</ele>
        <time>2019-08-17T16:23:18Z</time>
      </trkpt>
      <trkpt lat="42.4048240" lon="-8.0147690">
        <ele>319.6</ele>
        <time>2019-08-17T16:23:19Z</time>
      </trkpt>
      <trkpt lat="42.4048640" lon="-8.0148110">
        <ele>319.6</ele>
        <time>2019-08-17T16:23:20Z</time>
      </trkpt>
      <trkpt lat="42.4049070" lon="-8.0148520">
        <ele>319.6</ele>
        <time>2019-08-17T16:23:21Z</time>
      </trkpt>
      <trkpt lat="42.4049500" lon="-8.0148900">
        <ele>319.6</ele>
        <time>2019-08-17T16:23:22Z</time>
      </trkpt>
      <trkpt lat="42.4049950" lon="-8.0149250">
        <ele>319.6</ele>
        <time>2019-08-17T16:23:23Z</time>
      </trkpt>
      <trkpt lat="42.4050420" lon="-8.0149580">
        <ele>319.6</ele>
        <time>2019-08-17T16:23:24Z</time>
      </trkpt>
      <trkpt lat="42.4050890" lon="-8.0149880">
        <ele>319.6</ele>
        <time>2019-08-17T16:23:25Z</time>
      </trkpt>
      <trkpt lat="42.4051370" lon="-8.0150150">
        <ele>319.7</ele>
        <time>2019-08-17T16:23:26Z</time>
      </trkpt>
      <trkpt lat="42.4051860" lon="-8.0150390">
        <ele>319.7</ele>
        <time>2019-08-17T16:23:27Z</time>
      </trkpt>
      <trkpt lat="42.4052350" lon="-8.0150620">
        <ele>319.7</ele>
        <time>2019-08-17T16:23:28Z</time>
      </trkpt>
      <trkpt lat="42.4052850" lon="-8.0150820">
        <ele>319.7</ele>
        <time>2019-08-17T16:23:29Z</time>
      </trkpt>
      <trkpt lat="42.4053360" lon="-8.0151010">
        <ele>319.8</ele>
        <time>2019-08-17T16:23:30Z</time>
      </trkpt>
      <trkpt lat="42.4053860" lon="-8.0151180">
        <ele>319.8</ele>
        <time>2019-08-17T16:23:31Z</time>
      </trkpt>
      <trkpt lat="42.4054370" lon="-8.0151350">
        <ele>319.8</ele>
        <time>2019-08-17T16:23:32Z</time>
      </trkpt>
      <trkpt lat="42.4054890" lon="-8.0151510">
        <ele>319.8</ele>
        <time>2019-08-17T16:23:33Z</time>
      </trkpt>
      <trkpt lat="42.4055400" lon="-8.0151660">
        <ele>319.8</ele>
        <time>2019-08-17T16:23:34Z</time>
      </trkpt>
      <trkpt lat="42.4055920" lon="-8.0151820">
        <ele>319.8</ele>
        <time>2019-08-17T16:23:35Z</time>
      </trkpt>
      <trkpt lat="42.4056430" lon="-8.0151970">
        <ele>319.9</ele>
        <time>2019-08-17T16:23:36Z</time>
      </trkpt>
      <trkpt lat="42.4056950" lon="-8.0152120">
        <ele>319.9</ele>
        <time>2019-08-17T16:23:37Z</time>
      </trkpt>
      <trkpt lat="42.4057470" lon="-8.0152280">
        <ele>319.9</ele>
        <time>2019-08-17T16:23:38Z</time>
      </trkpt>
      <trkpt lat="42.4057980" lon="-8.0152440">
        <ele>320.0</ele>
        <time>2019-08-17T16:23:39Z</time>
      </trkpt>
      <trkpt lat="42.4058490" lon="-8.0152610">
        <ele>320.0</ele>
        <time>2019-08-17T16:23:40Z</time>
      </trkpt>
      <trkpt lat="42.4059010" lon="-8.0152780">
        <ele>320.1</ele>
        <time>2019-08-17T16:23:41Z</time>
      </trkpt>
      <trkpt lat="42.4059520" lon="-8.0152970">
        <ele>320.2</ele>
        <time>2019-08-17T16:23:42Z</time>
      </trkpt>
      <trkpt lat="42.4060020" lon="-8.0153170">
        <ele>320.2</ele>
        <time>2019-08-17T16:23:43Z</time>
      </trkpt>
      <trkpt lat="42.4060530" lon="-8.0153380">
        <ele>320.3</ele>
        <time>2019-08-17T16:23:44Z</time>
      </trkpt>
      <trkpt lat="42.4061030" lon="-8.0153610">
        <ele>320.3</ele>
        <time>2019-08-17T16:23:45Z</time>
      </trkpt>
      <trkpt lat="42.4061530" lon="-8.0153850">
        <ele>320.4</ele>
        <time>2019-08-17T16:23:46Z</time>
      </trkpt>
      <trkpt lat="42.4062340" lon="-8.0154300">
        <ele>320.5</ele>
        <time>2019-08-17T16:23:47Z</time>
      </trkpt>
      <trkpt lat="42.4062670" lon="-8.0154500">
        <ele>320.5</ele>
        <time>2019-08-17T16:23:48Z</time>
      </trkpt>
      <trkpt lat="42.4062990" lon="-8.0154690">
        <ele>320.6</ele>
        <time>2019-08-17T16:23:49Z</time>
      </trkpt>
      <trkpt lat="42.4063470" lon="-8.0155000">
        <ele>320.6</ele>
        <time>2019-08-17T16:23:50Z</time>
      </trkpt>
      <trkpt lat="42.4063940" lon="-8.0155330">
        <ele>320.7</ele>
        <time>2019-08-17T16:23:51Z</time>
      </trkpt>
      <trkpt lat="42.4064720" lon="-8.0155920">
        <ele>320.8</ele>
        <time>2019-08-17T16:23:52Z</time>
      </trkpt>
      <trkpt lat="42.4065040" lon="-8.0156170">
        <ele>320.8</ele>
        <time>2019-08-17T16:23:53Z</time>
      </trkpt>
      <trkpt lat="42.4065350" lon="-8.0156410">
        <ele>321.2</ele>
        <time>2019-08-17T16:23:54Z</time>
      </trkpt>
      <trkpt lat="42.4065810" lon="-8.0156790">
        <ele>321.6</ele>
        <time>2019-08-17T16:23:55Z</time>
      </trkpt>
      <trkpt lat="42.4066270" lon="-8.0157190">
        <ele>321.9</ele>
        <time>2019-08-17T16:23:56Z</time>
      </trkpt>
      <trkpt lat="42.4066730" lon="-8.0157600">
        <ele>322.3</ele>
        <time>2019-08-17T16:23:57Z</time>
      </trkpt>
      <trkpt lat="42.4067180" lon="-8.0158020">
        <ele>322.9</ele>
        <time>2019-08-17T16:23:58Z</time>
      </trkpt>
      <trkpt lat="42.4067630" lon="-8.0158440">
        <ele>323.3</ele>
        <time>2019-08-17T16:23:59Z</time>
      </trkpt>
      <trkpt lat="42.4068080" lon="-8.0158880">
        <ele>323.6</ele>
        <time>2019-08-17T16:24:00Z</time>
      </trkpt>
      <trkpt lat="42.4068530" lon="-8.0159320">
        <ele>324.0</ele>
        <time>2019-08-17T16:24:01Z</time>
      </trkpt>
      <trkpt lat="42.4068980" lon="-8.0159770">
        <ele>324.5</ele>
        <time>2019-08-17T16:24:02Z</time>
      </trkpt>
      <trkpt lat="42.4069420" lon="-8.0160230">
        <ele>324.6</ele>
        <time>2019-08-17T16:24:03Z</time>
      </trkpt>
      <trkpt lat="42.4069850" lon="-8.0160680">
        <ele>324.6</ele>
        <time>2019-08-17T16:24:04Z</time>
      </trkpt>
      <trkpt lat="42.4070280" lon="-8.0161140">
        <ele>324.7</ele>
        <time>2019-08-17T16:24:05Z</time>
      </trkpt>
      <trkpt lat="42.4070690" lon="-8.0161600">
        <ele>324.8</ele>
        <time>2019-08-17T16:24:06Z</time>
      </trkpt>
      <trkpt lat="42.4071100" lon="-8.0162050">
        <ele>324.9</ele>
        <time>2019-08-17T16:24:07Z</time>
      </trkpt>
      <trkpt lat="42.4071500" lon="-8.0162500">
        <ele>325.0</ele>
        <time>2019-08-17T16:24:08Z</time>
      </trkpt>
      <trkpt lat="42.4071910" lon="-8.0162950">
        <ele>325.0</ele>
        <time>2019-08-17T16:24:09Z</time>
      </trkpt>
      <trkpt lat="42.4072340" lon="-8.0163400">
        <ele>325.1</ele>
        <time>2019-08-17T16:24:10Z</time>
      </trkpt>
      <trkpt lat="42.4072760" lon="-8.0163860">
        <ele>325.3</ele>
        <time>2019-08-17T16:24:11Z</time>
      </trkpt>
      <trkpt lat="42.4073190" lon="-8.0164310">
        <ele>325.4</ele>
        <time>2019-08-17T16:24:12Z</time>
      </trkpt>
      <trkpt lat="42.4073620" lon="-8.0164760">
        <ele>325.6</ele>
        <time>2019-08-17T16:24:13Z</time>
      </trkpt>
      <trkpt lat="42.4074040" lon="-8.0165210">
        <ele>325.8</ele>
        <time>2019-08-17T16:24:14Z</time>
      </trkpt>
      <trkpt lat="42.4074460" lon="-8.0165650">
        <ele>326.0</ele>
        <time>2019-08-17T16:24:15Z</time>
      </trkpt>
      <trkpt lat="42.4074870" lon="-8.0166090">
        <ele>326.2</ele>
        <time>2019-08-17T16:24:16Z</time>
      </trkpt>
      <trkpt lat="42.4075270" lon="-8.0166530">
        <ele>326.5</ele>
        <time>2019-08-17T16:24:17Z</time>
      </trkpt>
      <trkpt lat="42.4075670" lon="-8.0166950">
        <ele>326.7</ele>
        <time>2019-08-17T16:24:18Z</time>
      </trkpt>
      <trkpt lat="42.4076060" lon="-8.0167370">
        <ele>326.9</ele>
        <time>2019-08-17T16:24:19Z</time>
      </trkpt>
      <trkpt lat="42.4076450" lon="-8.0167770">
        <ele>327.1</ele>
        <time>2019-08-17T16:24:20Z</time>
      </trkpt>
      <trkpt lat="42.4076830" lon="-8.0168170">
        <ele>327.3</ele>
        <time>2019-08-17T16:24:21Z</time>
      </trkpt>
      <trkpt lat="42.4077200" lon="-8.0168570">
        <ele>327.5</ele>
        <time>2019-08-17T16:24:22Z</time>
      </trkpt>
      <trkpt lat="42.4077570" lon="-8.0168950">
        <ele>327.6</ele>
        <time>2019-08-17T16:24:23Z</time>
      </trkpt>
      <trkpt lat="42.4077930" lon="-8.0169330">
        <ele>327.8</ele>
        <time>2019-08-17T16:24:24Z</time>
      </trkpt>
      <trkpt lat="42.4078290" lon="-8.0169700">
        <ele>328.0</ele>
        <time>2019-08-17T16:24:25Z</time>
      </trkpt>
      <trkpt lat="42.4078640" lon="-8.0170070">
        <ele>328.1</ele>
        <time>2019-08-17T16:24:26Z</time>
      </trkpt>
      <trkpt lat="42.4078980" lon="-8.0170430">
        <ele>328.3</ele>
        <time>2019-08-17T16:24:27Z</time>
      </trkpt>
      <trkpt lat="42.4079320" lon="-8.0170780">
        <ele>328.4</ele>
        <time>2019-08-17T16:24:28Z</time>
      </trkpt>
      <trkpt lat="42.4079650" lon="-8.0171120">
        <ele>328.6</ele>
        <time>2019-08-17T16:24:29Z</time>
      </trkpt>
      <trkpt lat="42.4079970" lon="-8.0171460">
        <ele>328.7</ele>
        <time>2019-08-17T16:24:30Z</time>
      </trkpt>
      <trkpt lat="42.4080290" lon="-8.0171800">
        <ele>328.9</ele>
        <time>2019-08-17T16:24:31Z</time>
      </trkpt>
      <trkpt lat="42.4080600" lon="-8.0172130">
        <ele>329.0</ele>
        <time>2019-08-17T16:24:32Z</time>
      </trkpt>
      <trkpt lat="42.4080900" lon="-8.0172450">
        <ele>329.0</ele>
        <time>2019-08-17T16:24:33Z</time>
      </trkpt>
      <trkpt lat="42.4081200" lon="-8.0172770">
        <ele>329.0</ele>
        <time>2019-08-17T16:24:34Z</time>
      </trkpt>
      <trkpt lat="42.4081500" lon="-8.0173080">
        <ele>329.0</ele>
        <time>2019-08-17T16:24:35Z</time>
      </trkpt>
      <trkpt lat="42.4081790" lon="-8.0173390">
        <ele>328.9</ele>
        <time>2019-08-17T16:24:36Z</time>
      </trkpt>
      <trkpt lat="42.4082070" lon="-8.0173690">
        <ele>328.9</ele>
        <time>2019-08-17T16:24:37Z</time>
      </trkpt>
      <trkpt lat="42.4082350" lon="-8.0173990">
        <ele>328.9</ele>
        <time>2019-08-17T16:24:38Z</time>
      </trkpt>
      <trkpt lat="42.4082630" lon="-8.0174290">
        <ele>328.9</ele>
        <time>2019-08-17T16:24:39Z</time>
      </trkpt>
      <trkpt lat="42.4082910" lon="-8.0174580">
        <ele>328.9</ele>
        <time>2019-08-17T16:24:40Z</time>
      </trkpt>
      <trkpt lat="42.4083180" lon="-8.0174870">
        <ele>328.9</ele>
        <time>2019-08-17T16:24:41Z</time>
      </trkpt>
      <trkpt lat="42.4083450" lon="-8.0175160">
        <ele>328.8</ele>
        <time>2019-08-17T16:24:42Z</time>
      </trkpt>
      <trkpt lat="42.4083720" lon="-8.0175440">
        <ele>328.8</ele>
        <time>2019-08-17T16:24:43Z</time>
      </trkpt>
      <trkpt lat="42.4083980" lon="-8.0175730">
        <ele>328.8</ele>
        <time>2019-08-17T16:24:44Z</time>
      </trkpt>
      <trkpt lat="42.4084250" lon="-8.0176010">
        <ele>328.8</ele>
        <time>2019-08-17T16:24:45Z</time>
      </trkpt>
      <trkpt lat="42.4084510" lon="-8.0176290">
        <ele>328.7</ele>
        <time>2019-08-17T16:24:46Z</time>
      </trkpt>
      <trkpt lat="42.4084770" lon="-8.0176570">
        <ele>328.7</ele>
        <time>2019-08-17T16:24:47Z</time>
      </trkpt>
      <trkpt lat="42.4085040" lon="-8.0176850">
        <ele>328.7</ele>
        <time>2019-08-17T16:24:48Z</time>
      </trkpt>
      <trkpt lat="42.4085300" lon="-8.0177120">
        <ele>328.7</ele>
        <time>2019-08-17T16:24:49Z</time>
      </trkpt>
      <trkpt lat="42.4085560" lon="-8.0177400">
        <ele>328.6</ele>
        <time>2019-08-17T16:24:50Z</time>
      </trkpt>
      <trkpt lat="42.4085820" lon="-8.0177680">
        <ele>328.9</ele>
        <time>2019-08-17T16:24:51Z</time>
      </trkpt>
      <trkpt lat="42.4086080" lon="-8.0177950">
        <ele>329.0</ele>
        <time>2019-08-17T16:24:52Z</time>
      </trkpt>
      <trkpt lat="42.4086340" lon="-8.0178230">
        <ele>329.2</ele>
        <time>2019-08-17T16:24:53Z</time>
      </trkpt>
      <trkpt lat="42.4086600" lon="-8.0178510">
        <ele>329.3</ele>
        <time>2019-08-17T16:24:54Z</time>
      </trkpt>
      <trkpt lat="42.4086860" lon="-8.0178790">
        <ele>329.5</ele>
        <time>2019-08-17T16:24:55Z</time>
      </trkpt>
      <trkpt lat="42.4087120" lon="-8.0179070">
        <ele>329.7</ele>
        <time>2019-08-17T16:24:56Z</time>
      </trkpt>
      <trkpt lat="42.4087380" lon="-8.0179360">
        <ele>329.8</ele>
        <time>2019-08-17T16:24:57Z</time>
      </trkpt>
      <trkpt lat="42.4087630" lon="-8.0179640">
        <ele>330.0</ele>
        <time>2019-08-17T16:24:58Z</time>
      </trkpt>
      <trkpt lat="42.4087890" lon="-8.0179930">
        <ele>330.1</ele>
        <time>2019-08-17T16:24:59Z</time>
      </trkpt>
      <trkpt lat="42.4088150" lon="-8.0180220">
        <ele>330.3</ele>
        <time>2019-08-17T16:25:00Z</time>
      </trkpt>
      <trkpt lat="42.4088400" lon="-8.0180510">
        <ele>330.4</ele>
        <time>2019-08-17T16:25:01Z</time>
      </trkpt>
      <trkpt lat="42.4088660" lon="-8.0180810">
        <ele>330.6</ele>
        <time>2019-08-17T16:25:02Z</time>
      </trkpt>
      <trkpt lat="42.4088910" lon="-8.0181100">
        <ele>330.8</ele>
        <time>2019-08-17T16:25:03Z</time>
      </trkpt>
      <trkpt lat="42.4089170" lon="-8.0181400">
        <ele>330.9</ele>
        <time>2019-08-17T16:25:04Z</time>
      </trkpt>
      <trkpt lat="42.4089430" lon="-8.0181700">
        <ele>331.1</ele>
        <time>2019-08-17T16:25:05Z</time>
      </trkpt>
      <trkpt lat="42.4089680" lon="-8.0181990">
        <ele>331.2</ele>
        <time>2019-08-17T16:25:06Z</time>
      </trkpt>
      <trkpt lat="42.4089940" lon="-8.0182280">
        <ele>331.4</ele>
        <time>2019-08-17T16:25:07Z</time>
      </trkpt>
      <trkpt lat="42.4090200" lon="-8.0182570">
        <ele>331.6</ele>
        <time>2019-08-17T16:25:08Z</time>
      </trkpt>
      <trkpt lat="42.4090460" lon="-8.0182860">
        <ele>331.8</ele>
        <time>2019-08-17T16:25:09Z</time>
      </trkpt>
      <trkpt lat="42.4090710" lon="-8.0183130">
        <ele>332.0</ele>
        <time>2019-08-17T16:25:10Z</time>
      </trkpt>
      <trkpt lat="42.4090960" lon="-8.0183400">
        <ele>332.1</ele>
        <time>2019-08-17T16:25:11Z</time>
      </trkpt>
      <trkpt lat="42.4091200" lon="-8.0183660">
        <ele>332.2</ele>
        <time>2019-08-17T16:25:12Z</time>
      </trkpt>
      <trkpt lat="42.4091430" lon="-8.0183900">
        <ele>332.4</ele>
        <time>2019-08-17T16:25:13Z</time>
      </trkpt>
      <trkpt lat="42.4091650" lon="-8.0184130">
        <ele>332.5</ele>
        <time>2019-08-17T16:25:14Z</time>
      </trkpt>
      <trkpt lat="42.4091850" lon="-8.0184340">
        <ele>332.5</ele>
        <time>2019-08-17T16:25:15Z</time>
      </trkpt>
      <trkpt lat="42.4092040" lon="-8.0184540">
        <ele>332.6</ele>
        <time>2019-08-17T16:25:16Z</time>
      </trkpt>
      <trkpt lat="42.4092220" lon="-8.0184730">
        <ele>332.7</ele>
        <time>2019-08-17T16:25:17Z</time>
      </trkpt>
      <trkpt lat="42.4092390" lon="-8.0184910">
        <ele>332.8</ele>
        <time>2019-08-17T16:25:18Z</time>
      </trkpt>
      <trkpt lat="42.4092550" lon="-8.0185090">
        <ele>332.8</ele>
        <time>2019-08-17T16:25:19Z</time>
      </trkpt>
      <trkpt lat="42.4092720" lon="-8.0185260">
        <ele>332.9</ele>
        <time>2019-08-17T16:25:20Z</time>
      </trkpt>
      <trkpt lat="42.4092890" lon="-8.0185430">
        <ele>333.0</ele>
        <time>2019-08-17T16:25:21Z</time>
      </trkpt>
      <trkpt lat="42.4093060" lon="-8.0185610">
        <ele>333.1</ele>
        <time>2019-08-17T16:25:22Z</time>
      </trkpt>
      <trkpt lat="42.4093230" lon="-8.0185790">
        <ele>333.2</ele>
        <time>2019-08-17T16:25:23Z</time>
      </trkpt>
      <trkpt lat="42.4093420" lon="-8.0185980">
        <ele>333.3</ele>
        <time>2019-08-17T16:25:24Z</time>
      </trkpt>
      <trkpt lat="42.4093600" lon="-8.0186170">
        <ele>333.4</ele>
        <time>2019-08-17T16:25:25Z</time>
      </trkpt>
      <trkpt lat="42.4093790" lon="-8.0186360">
        <ele>333.6</ele>
        <time>2019-08-17T16:25:26Z</time>
      </trkpt>
      <trkpt lat="42.4093990" lon="-8.0186560">
        <ele>333.7</ele>
        <time>2019-08-17T16:25:27Z</time>
      </trkpt>
      <trkpt lat="42.4094180" lon="-8.0186760">
        <ele>333.8</ele>
        <time>2019-08-17T16:25:28Z</time>
      </trkpt>
      <trkpt lat="42.4094380" lon="-8.0186960">
        <ele>333.9</ele>
        <time>2019-08-17T16:25:29Z</time>
      </trkpt>
      <trkpt lat="42.4094570" lon="-8.0187170">
        <ele>334.0</ele>
        <time>2019-08-17T16:25:30Z</time>
      </trkpt>
      <trkpt lat="42.4094770" lon="-8.0187370">
        <ele>334.1</ele>
        <time>2019-08-17T16:25:31Z</time>
      </trkpt>
      <trkpt lat="42.4094960" lon="-8.0187580">
        <ele>334.3</ele>
        <time>2019-08-17T16:25:32Z</time>
      </trkpt>
      <trkpt lat="42.4095150" lon="-8.0187790">
        <ele>334.4</ele>
        <time>2019-08-17T16:25:33Z</time>
      </trkpt>
      <trkpt lat="42.4095350" lon="-8.0187990">
        <ele>334.5</ele>
        <time>2019-08-17T16:25:34Z</time>
      </trkpt>
      <trkpt lat="42.4095540" lon="-8.0188200">
        <ele>334.7</ele>
        <time>2019-08-17T16:25:35Z</time>
      </trkpt>
      <trkpt lat="42.4095740" lon="-8.0188420">
        <ele>334.8</ele>
        <time>2019-08-17T16:25:36Z</time>
      </trkpt>
      <trkpt lat="42.4095930" lon="-8.0188630">
        <ele>334.9</ele>
        <time>2019-08-17T16:25:37Z</time>
      </trkpt>
      <trkpt lat="42.4096130" lon="-8.0188840">
        <ele>335.1</ele>
        <time>2019-08-17T16:25:38Z</time>
      </trkpt>
      <trkpt lat="42.4096330" lon="-8.0189060">
        <ele>335.2</ele>
        <time>2019-08-17T16:25:39Z</time>
      </trkpt>
      <trkpt lat="42.4096530" lon="-8.0189280">
        <ele>335.4</ele>
        <time>2019-08-17T16:25:40Z</time>
      </trkpt>
      <trkpt lat="42.4096740" lon="-8.0189490">
        <ele>335.5</ele>
        <time>2019-08-17T16:25:41Z</time>
      </trkpt>
      <trkpt lat="42.4096940" lon="-8.0189710">
        <ele>335.6</ele>
        <time>2019-08-17T16:25:42Z</time>
      </trkpt>
      <trkpt lat="42.4097150" lon="-8.0189930">
        <ele>335.8</ele>
        <time>2019-08-17T16:25:43Z</time>
      </trkpt>
      <trkpt lat="42.4097360" lon="-8.0190150">
        <ele>335.9</ele>
        <time>2019-08-17T16:25:44Z</time>
      </trkpt>
      <trkpt lat="42.4097570" lon="-8.0190380">
        <ele>336.0</ele>
        <time>2019-08-17T16:25:45Z</time>
      </trkpt>
      <trkpt lat="42.4097790" lon="-8.0190600">
        <ele>336.1</ele>
        <time>2019-08-17T16:25:46Z</time>
      </trkpt>
      <trkpt lat="42.4098010" lon="-8.0190820">
        <ele>336.3</ele>
        <time>2019-08-17T16:25:47Z</time>
      </trkpt>
      <trkpt lat="42.4098230" lon="-8.0191050">
        <ele>336.4</ele>
        <time>2019-08-17T16:25:48Z</time>
      </trkpt>
      <trkpt lat="42.4098450" lon="-8.0191270">
        <ele>336.5</ele>
        <time>2019-08-17T16:25:49Z</time>
      </trkpt>
      <trkpt lat="42.4098670" lon="-8.0191500">
        <ele>336.7</ele>
        <time>2019-08-17T16:25:50Z</time>
      </trkpt>
      <trkpt lat="42.4098890" lon="-8.0191730">
        <ele>336.8</ele>
        <time>2019-08-17T16:25:51Z</time>
      </trkpt>
      <trkpt lat="42.4099110" lon="-8.0191950">
        <ele>336.9</ele>
        <time>2019-08-17T16:25:52Z</time>
      </trkpt>
      <trkpt lat="42.4099330" lon="-8.0192180">
        <ele>337.3</ele>
        <time>2019-08-17T16:25:53Z</time>
      </trkpt>
      <trkpt lat="42.4099550" lon="-8.0192410">
        <ele>337.4</ele>
        <time>2019-08-17T16:25:54Z</time>
      </trkpt>
      <trkpt lat="42.4099770" lon="-8.0192640">
        <ele>337.6</ele>
        <time>2019-08-17T16:25:55Z</time>
      </trkpt>
      <trkpt lat="42.4099990" lon="-8.0192870">
        <ele>337.8</ele>
        <time>2019-08-17T16:25:56Z</time>
      </trkpt>
      <trkpt lat="42.4100200" lon="-8.0193100">
        <ele>338.0</ele>
        <time>2019-08-17T16:25:57Z</time>
      </trkpt>
      <trkpt lat="42.4100420" lon="-8.0193330">
        <ele>338.2</ele>
        <time>2019-08-17T16:25:58Z</time>
      </trkpt>
      <trkpt lat="42.4100630" lon="-8.0193550">
        <ele>338.4</ele>
        <time>2019-08-17T16:25:59Z</time>
      </trkpt>
      <trkpt lat="42.4100840" lon="-8.0193780">
        <ele>338.6</ele>
        <time>2019-08-17T16:26:00Z</time>
      </trkpt>
      <trkpt lat="42.4101050" lon="-8.0194010">
        <ele>338.8</ele>
        <time>2019-08-17T16:26:01Z</time>
      </trkpt>
      <trkpt lat="42.4101260" lon="-8.0194240">
        <ele>339.0</ele>
        <time>2019-08-17T16:26:02Z</time>
      </trkpt>
      <trkpt lat="42.4101460" lon="-8.0194470">
        <ele>339.2</ele>
        <time>2019-08-17T16:26:03Z</time>
      </trkpt>
      <trkpt lat="42.4101670" lon="-8.0194690">
        <ele>339.4</ele>
        <time>2019-08-17T16:26:04Z</time>
      </trkpt>
      <trkpt lat="42.4101870" lon="-8.0194920">
        <ele>339.6</ele>
        <time>2019-08-17T16:26:05Z</time>
      </trkpt>
      <trkpt lat="42.4102070" lon="-8.0195150">
        <ele>339.8</ele>
        <time>2019-08-17T16:26:06Z</time>
      </trkpt>
      <trkpt lat="42.4102280" lon="-8.0195370">
        <ele>340.0</ele>
        <time>2019-08-17T16:26:07Z</time>
      </trkpt>
      <trkpt lat="42.4102480" lon="-8.0195600">
        <ele>340.2</ele>
        <time>2019-08-17T16:26:08Z</time>
      </trkpt>
      <trkpt lat="42.4102680" lon="-8.0195830">
        <ele>340.4</ele>
        <time>2019-08-17T16:26:09Z</time>
      </trkpt>
      <trkpt lat="42.4102880" lon="-8.0196050">
        <ele>340.7</ele>
        <time>2019-08-17T16:26:10Z</time>
      </trkpt>
      <trkpt lat="42.4103080" lon="-8.0196270">
        <ele>340.9</ele>
        <time>2019-08-17T16:26:11Z</time>
      </trkpt>
      <trkpt lat="42.4103290" lon="-8.0196500">
        <ele>341.1</ele>
        <time>2019-08-17T16:26:12Z</time>
      </trkpt>
      <trkpt lat="42.4103490" lon="-8.0196720">
        <ele>341.4</ele>
        <time>2019-08-17T16:26:13Z</time>
      </trkpt>
      <trkpt lat="42.4103700" lon="-8.0196940">
        <ele>341.6</ele>
        <time>2019-08-17T16:26:14Z</time>
      </trkpt>
      <trkpt lat="42.4103900" lon="-8.0197160">
        <ele>341.8</ele>
        <time>2019-08-17T16:26:15Z</time>
      </trkpt>
      <trkpt lat="42.4104110" lon="-8.0197380">
        <ele>342.0</ele>
        <time>2019-08-17T16:26:16Z</time>
      </trkpt>
      <trkpt lat="42.4104310" lon="-8.0197600">
        <ele>342.2</ele>
        <time>2019-08-17T16:26:17Z</time>
      </trkpt>
      <trkpt lat="42.4104520" lon="-8.0197810">
        <ele>342.3</ele>
        <time>2019-08-17T16:26:18Z</time>
      </trkpt>
      <trkpt lat="42.4104720" lon="-8.0198030">
        <ele>342.5</ele>
        <time>2019-08-17T16:26:19Z</time>
      </trkpt>
      <trkpt lat="42.4104930" lon="-8.0198250">
        <ele>342.7</ele>
        <time>2019-08-17T16:26:20Z</time>
      </trkpt>
      <trkpt lat="42.4105130" lon="-8.0198470">
        <ele>342.9</ele>
        <time>2019-08-17T16:26:21Z</time>
      </trkpt>
      <trkpt lat="42.4105330" lon="-8.0198690">
        <ele>343.1</ele>
        <time>2019-08-17T16:26:22Z</time>
      </trkpt>
      <trkpt lat="42.4105540" lon="-8.0198910">
        <ele>343.4</ele>
        <time>2019-08-17T16:26:23Z</time>
      </trkpt>
      <trkpt lat="42.4105740" lon="-8.0199130">
        <ele>343.6</ele>
        <time>2019-08-17T16:26:24Z</time>
      </trkpt>
      <trkpt lat="42.4105940" lon="-8.0199350">
        <ele>343.9</ele>
        <time>2019-08-17T16:26:25Z</time>
      </trkpt>
      <trkpt lat="42.4106140" lon="-8.0199570">
        <ele>344.1</ele>
        <time>2019-08-17T16:26:26Z</time>
      </trkpt>
      <trkpt lat="42.4106350" lon="-8.0199800">
        <ele>344.3</ele>
        <time>2019-08-17T16:26:27Z</time>
      </trkpt>
      <trkpt lat="42.4106560" lon="-8.0200020">
        <ele>344.4</ele>
        <time>2019-08-17T16:26:28Z</time>
      </trkpt>
      <trkpt lat="42.4106760" lon="-8.0200250">
        <ele>344.5</ele>
        <time>2019-08-17T16:26:29Z</time>
      </trkpt>
      <trkpt lat="42.4106970" lon="-8.0200470">
        <ele>344.7</ele>
        <time>2019-08-17T16:26:30Z</time>
      </trkpt>
      <trkpt lat="42.4107190" lon="-8.0200700">
        <ele>344.8</ele>
        <time>2019-08-17T16:26:31Z</time>
      </trkpt>
      <trkpt lat="42.4107400" lon="-8.0200930">
        <ele>344.9</ele>
        <time>2019-08-17T16:26:32Z</time>
      </trkpt>
      <trkpt lat="42.4107620" lon="-8.0201160">
        <ele>345.1</ele>
        <time>2019-08-17T16:26:33Z</time>
      </trkpt>
      <trkpt lat="42.4107840" lon="-8.0201380">
        <ele>345.2</ele>
        <time>2019-08-17T16:26:34Z</time>
      </trkpt>
      <trkpt lat="42.4108060" lon="-8.0201610">
        <ele>345.3</ele>
        <time>2019-08-17T16:26:35Z</time>
      </trkpt>
      <trkpt lat="42.4108280" lon="-8.0201840">
        <ele>345.5</ele>
        <time>2019-08-17T16:26:36Z</time>
      </trkpt>
      <trkpt lat="42.4108500" lon="-8.0202060">
        <ele>345.6</ele>
        <time>2019-08-17T16:26:37Z</time>
      </trkpt>
      <trkpt lat="42.4108720" lon="-8.0202290">
        <ele>345.8</ele>
        <time>2019-08-17T16:26:38Z</time>
      </trkpt>
      <trkpt lat="42.4108950" lon="-8.0202510">
        <ele>346.1</ele>
        <time>2019-08-17T16:26:39Z</time>
      </trkpt>
      <trkpt lat="42.4109170" lon="-8.0202730">
        <ele>346.4</ele>
        <time>2019-08-17T16:26:40Z</time>
      </trkpt>
      <trkpt lat="42.4109400" lon="-8.0202950">
        <ele>346.7</ele>
        <time>2019-08-17T16:26:41Z</time>
      </trkpt>
      <trkpt lat="42.4109620" lon="-8.0203160">
        <ele>347.0</ele>
        <time>2019-08-17T16:26:42Z</time>
      </trkpt>
      <trkpt lat="42.4109850" lon="-8.0203380">
        <ele>347.2</ele>
        <time>2019-08-17T16:26:43Z</time>
      </trkpt>
      <trkpt lat="42.4110080" lon="-8.0203590">
        <ele>347.4</ele>
        <time>2019-08-17T16:26:44Z</time>
      </trkpt>
      <trkpt lat="42.4110310" lon="-8.0203790">
        <ele>347.6</ele>
        <time>2019-08-17T16:26:45Z</time>
      </trkpt>
      <trkpt lat="42.4110540" lon="-8.0204000">
        <ele>347.8</ele>
        <time>2019-08-17T16:26:46Z</time>
      </trkpt>
      <trkpt lat="42.4110770" lon="-8.0204200">
        <ele>348.0</ele>
        <time>2019-08-17T16:26:47Z</time>
      </trkpt>
      <trkpt lat="42.4111010" lon="-8.0204400">
        <ele>348.2</ele>
        <time>2019-08-17T16:26:48Z</time>
      </trkpt>
      <trkpt lat="42.4111250" lon="-8.0204600">
        <ele>348.3</ele>
        <time>2019-08-17T16:26:49Z</time>
      </trkpt>
      <trkpt lat="42.4111490" lon="-8.0204800">
        <ele>348.5</ele>
        <time>2019-08-17T16:26:50Z</time>
      </trkpt>
      <trkpt lat="42.4111740" lon="-8.0205000">
        <ele>348.7</ele>
        <time>2019-08-17T16:26:51Z</time>
      </trkpt>
      <trkpt lat="42.4111990" lon="-8.0205200">
        <ele>348.8</ele>
        <time>2019-08-17T16:26:52Z</time>
      </trkpt>
      <trkpt lat="42.4112240" lon="-8.0205390">
        <ele>349.0</ele>
        <time>2019-08-17T16:26:53Z</time>
      </trkpt>
      <trkpt lat="42.4112500" lon="-8.0205590">
        <ele>349.1</ele>
        <time>2019-08-17T16:26:54Z</time>
      </trkpt>
      <trkpt lat="42.4112770" lon="-8.0205780">
        <ele>349.3</ele>
        <time>2019-08-17T16:26:55Z</time>
      </trkpt>
      <trkpt lat="42.4113040" lon="-8.0205970">
        <ele>349.4</ele>
        <time>2019-08-17T16:26:56Z</time>
      </trkpt>
      <trkpt lat="42.4113310" lon="-8.0206160">
        <ele>349.7</ele>
        <time>2019-08-17T16:26:57Z</time>
      </trkpt>
      <trkpt lat="42.4113600" lon="-8.0206350">
        <ele>350.0</ele>
        <time>2019-08-17T16:26:58Z</time>
      </trkpt>
      <trkpt lat="42.4113880" lon="-8.0206530">
        <ele>350.3</ele>
        <time>2019-08-17T16:26:59Z</time>
      </trkpt>
      <trkpt lat="42.4114160" lon="-8.0206720">
        <ele>350.6</ele>
        <time>2019-08-17T16:27:00Z</time>
      </trkpt>
      <trkpt lat="42.4114430" lon="-8.0206890">
        <ele>350.9</ele>
        <time>2019-08-17T16:27:01Z</time>
      </trkpt>
      <trkpt lat="42.4114700" lon="-8.0207060">
        <ele>351.1</ele>
        <time>2019-08-17T16:27:02Z</time>
      </trkpt>
      <trkpt lat="42.4114950" lon="-8.0207220">
        <ele>351.3</ele>
        <time>2019-08-17T16:27:03Z</time>
      </trkpt>
      <trkpt lat="42.4115180" lon="-8.0207370">
        <ele>351.5</ele>
        <time>2019-08-17T16:27:04Z</time>
      </trkpt>
      <trkpt lat="42.4115390" lon="-8.0207520">
        <ele>351.7</ele>
        <time>2019-08-17T16:27:05Z</time>
      </trkpt>
      <trkpt lat="42.4115590" lon="-8.0207650">
        <ele>351.8</ele>
        <time>2019-08-17T16:27:06Z</time>
      </trkpt>
      <trkpt lat="42.4115790" lon="-8.0207780">
        <ele>352.0</ele>
        <time>2019-08-17T16:27:07Z</time>
      </trkpt>
      <trkpt lat="42.4116000" lon="-8.0207910">
        <ele>352.1</ele>
        <time>2019-08-17T16:27:08Z</time>
      </trkpt>
      <trkpt lat="42.4116240" lon="-8.0208040">
        <ele>352.3</ele>
        <time>2019-08-17T16:27:09Z</time>
      </trkpt>
      <trkpt lat="42.4116500" lon="-8.0208170">
        <ele>352.6</ele>
        <time>2019-08-17T16:27:10Z</time>
      </trkpt>
      <trkpt lat="42.4116770" lon="-8.0208300">
        <ele>352.8</ele>
        <time>2019-08-17T16:27:11Z</time>
      </trkpt>
      <trkpt lat="42.4117040" lon="-8.0208440">
        <ele>353.1</ele>
        <time>2019-08-17T16:27:12Z</time>
      </trkpt>
      <trkpt lat="42.4117300" lon="-8.0208570">
        <ele>353.4</ele>
        <time>2019-08-17T16:27:13Z</time>
      </trkpt>
      <trkpt lat="42.4117570" lon="-8.0208690">
        <ele>353.7</ele>
        <time>2019-08-17T16:27:14Z</time>
      </trkpt>
      <trkpt lat="42.4117830" lon="-8.0208820">
        <ele>354.0</ele>
        <time>2019-08-17T16:27:15Z</time>
      </trkpt>
      <trkpt lat="42.4118100" lon="-8.0208950">
        <ele>354.3</ele>
        <time>2019-08-17T16:27:16Z</time>
      </trkpt>
      <trkpt lat="42.4118370" lon="-8.0209070">
        <ele>354.6</ele>
        <time>2019-08-17T16:27:17Z</time>
      </trkpt>
      <trkpt lat="42.4118640" lon="-8.0209200">
        <ele>354.8</ele>
        <time>2019-08-17T16:27:18Z</time>
      </trkpt>
      <trkpt lat="42.4118910" lon="-8.0209320">
        <ele>355.0</ele>
        <time>2019-08-17T16:27:19Z</time>
      </trkpt>
      <trkpt lat="42.4119190" lon="-8.0209440">
        <ele>355.2</ele>
        <time>2019-08-17T16:27:20Z</time>
      </trkpt>
      <trkpt lat="42.4119480" lon="-8.0209560">
        <ele>355.5</ele>
        <time>2019-08-17T16:27:21Z</time>
      </trkpt>
      <trkpt lat="42.4119760" lon="-8.0209660">
        <ele>355.7</ele>
        <time>2019-08-17T16:27:22Z</time>
      </trkpt>
      <trkpt lat="42.4120050" lon="-8.0209760">
        <ele>355.9</ele>
        <time>2019-08-17T16:27:23Z</time>
      </trkpt>
      <trkpt lat="42.4120350" lon="-8.0209830">
        <ele>356.1</ele>
        <time>2019-08-17T16:27:24Z</time>
      </trkpt>
      <trkpt lat="42.4120640" lon="-8.0209880">
        <ele>356.4</ele>
        <time>2019-08-17T16:27:25Z</time>
      </trkpt>
      <trkpt lat="42.4120940" lon="-8.0209910">
        <ele>356.6</ele>
        <time>2019-08-17T16:27:26Z</time>
      </trkpt>
      <trkpt lat="42.4121250" lon="-8.0209900">
        <ele>356.9</ele>
        <time>2019-08-17T16:27:27Z</time>
      </trkpt>
      <trkpt lat="42.4121550" lon="-8.0209880">
        <ele>357.1</ele>
        <time>2019-08-17T16:27:28Z</time>
      </trkpt>
      <trkpt lat="42.4121860" lon="-8.0209870">
        <ele>357.4</ele>
        <time>2019-08-17T16:27:29Z</time>
      </trkpt>
      <trkpt lat="42.4122170" lon="-8.0209890">
        <ele>357.7</ele>
        <time>2019-08-17T16:27:30Z</time>
      </trkpt>
      <trkpt lat="42.4122490" lon="-8.0209960">
        <ele>358.0</ele>
        <time>2019-08-17T16:27:31Z</time>
      </trkpt>
      <trkpt lat="42.4122810" lon="-8.0210060">
        <ele>358.3</ele>
        <time>2019-08-17T16:27:32Z</time>
      </trkpt>
      <trkpt lat="42.4123120" lon="-8.0210190">
        <ele>358.6</ele>
        <time>2019-08-17T16:27:33Z</time>
      </trkpt>
      <trkpt lat="42.4123410" lon="-8.0210330">
        <ele>358.9</ele>
        <time>2019-08-17T16:27:34Z</time>
      </trkpt>
      <trkpt lat="42.4123700" lon="-8.0210490">
        <ele>359.3</ele>
        <time>2019-08-17T16:27:35Z</time>
      </trkpt>
      <trkpt lat="42.4123980" lon="-8.0210650">
        <ele>359.5</ele>
        <time>2019-08-17T16:27:36Z</time>
      </trkpt>
      <trkpt lat="42.4124260" lon="-8.0210810">
        <ele>359.8</ele>
        <time>2019-08-17T16:27:37Z</time>
      </trkpt>
      <trkpt lat="42.4124540" lon="-8.0210980">
        <ele>360.1</ele>
        <time>2019-08-17T16:27:38Z</time>
      </trkpt>
      <trkpt lat="42.4124830" lon="-8.0211130">
        <ele>360.4</ele>
        <time>2019-08-17T16:27:39Z</time>
      </trkpt>
      <trkpt lat="42.4125110" lon="-8.0211290">
        <ele>360.7</ele>
        <time>2019-08-17T16:27:40Z</time>
      </trkpt>
      <trkpt lat="42.4125380" lon="-8.0211440">
        <ele>360.8</ele>
        <time>2019-08-17T16:27:41Z</time>
      </trkpt>
      <trkpt lat="42.4125630" lon="-8.0211580">
        <ele>360.9</ele>
        <time>2019-08-17T16:27:42Z</time>
      </trkpt>
      <trkpt lat="42.4125880" lon="-8.0211710">
        <ele>360.9</ele>
        <time>2019-08-17T16:27:43Z</time>
      </trkpt>
      <trkpt lat="42.4126120" lon="-8.0211820">
        <ele>361.0</ele>
        <time>2019-08-17T16:27:44Z</time>
      </trkpt>
      <trkpt lat="42.4126340" lon="-8.0211920">
        <ele>361.1</ele>
        <time>2019-08-17T16:27:45Z</time>
      </trkpt>
      <trkpt lat="42.4126560" lon="-8.0212000">
        <ele>361.1</ele>
        <time>2019-08-17T16:27:46Z</time>
      </trkpt>
      <trkpt lat="42.4126780" lon="-8.0212090">
        <ele>361.2</ele>
        <time>2019-08-17T16:27:47Z</time>
      </trkpt>
      <trkpt lat="42.4127010" lon="-8.0212180">
        <ele>361.2</ele>
        <time>2019-08-17T16:27:48Z</time>
      </trkpt>
      <trkpt lat="42.4127270" lon="-8.0212280">
        <ele>361.3</ele>
        <time>2019-08-17T16:27:49Z</time>
      </trkpt>
      <trkpt lat="42.4127540" lon="-8.0212390">
        <ele>361.3</ele>
        <time>2019-08-17T16:27:50Z</time>
      </trkpt>
      <trkpt lat="42.4127830" lon="-8.0212510">
        <ele>361.4</ele>
        <time>2019-08-17T16:27:51Z</time>
      </trkpt>
      <trkpt lat="42.4128140" lon="-8.0212640">
        <ele>361.5</ele>
        <time>2019-08-17T16:27:52Z</time>
      </trkpt>
      <trkpt lat="42.4128450" lon="-8.0212760">
        <ele>361.6</ele>
        <time>2019-08-17T16:27:53Z</time>
      </trkpt>
      <trkpt lat="42.4128770" lon="-8.0212880">
        <ele>361.6</ele>
        <time>2019-08-17T16:27:54Z</time>
      </trkpt>
      <trkpt lat="42.4129100" lon="-8.0213000">
        <ele>361.7</ele>
        <time>2019-08-17T16:27:55Z</time>
      </trkpt>
      <trkpt lat="42.4129420" lon="-8.0213130">
        <ele>361.8</ele>
        <time>2019-08-17T16:27:56Z</time>
      </trkpt>
      <trkpt lat="42.4129750" lon="-8.0213250">
        <ele>361.9</ele>
        <time>2019-08-17T16:27:57Z</time>
      </trkpt>
      <trkpt lat="42.4130070" lon="-8.0213380">
        <ele>361.9</ele>
        <time>2019-08-17T16:27:58Z</time>
      </trkpt>
      <trkpt lat="42.4130390" lon="-8.0213500">
        <ele>362.0</ele>
        <time>2019-08-17T16:27:59Z</time>
      </trkpt>
      <trkpt lat="42.4130710" lon="-8.0213630">
        <ele>362.1</ele>
        <time>2019-08-17T16:28:00Z</time>
      </trkpt>
      <trkpt lat="42.4131020" lon="-8.0213760">
        <ele>362.2</ele>
        <time>2019-08-17T16:28:01Z</time>
      </trkpt>
      <trkpt lat="42.4131340" lon="-8.0213900">
        <ele>362.2</ele>
        <time>2019-08-17T16:28:02Z</time>
      </trkpt>
      <trkpt lat="42.4131660" lon="-8.0214030">
        <ele>362.3</ele>
        <time>2019-08-17T16:28:03Z</time>
      </trkpt>
      <trkpt lat="42.4131970" lon="-8.0214170">
        <ele>362.4</ele>
        <time>2019-08-17T16:28:04Z</time>
      </trkpt>
      <trkpt lat="42.4132290" lon="-8.0214320">
        <ele>362.5</ele>
        <time>2019-08-17T16:28:05Z</time>
      </trkpt>
      <trkpt lat="42.4132610" lon="-8.0214460">
        <ele>362.5</ele>
        <time>2019-08-17T16:28:06Z</time>
      </trkpt>
      <trkpt lat="42.4132920" lon="-8.0214610">
        <ele>362.6</ele>
        <time>2019-08-17T16:28:07Z</time>
      </trkpt>
      <trkpt lat="42.4133240" lon="-8.0214760">
        <ele>362.8</ele>
        <time>2019-08-17T16:28:08Z</time>
      </trkpt>
      <trkpt lat="42.4133550" lon="-8.0214920">
        <ele>362.9</ele>
        <time>2019-08-17T16:28:09Z</time>
      </trkpt>
      <trkpt lat="42.4133870" lon="-8.0215070">
        <ele>363.1</ele>
        <time>2019-08-17T16:28:10Z</time>
      </trkpt>
      <trkpt lat="42.4134190" lon="-8.0215230">
        <ele>363.3</ele>
        <time>2019-08-17T16:28:11Z</time>
      </trkpt>
      <trkpt lat="42.4134500" lon="-8.0215400">
        <ele>363.5</ele>
        <time>2019-08-17T16:28:12Z</time>
      </trkpt>
      <trkpt lat="42.4134820" lon="-8.0215570">
        <ele>363.7</ele>
        <time>2019-08-17T16:28:13Z</time>
      </trkpt>
      <trkpt lat="42.4135130" lon="-8.0215750">
        <ele>363.9</ele>
        <time>2019-08-17T16:28:14Z</time>
      </trkpt>
      <trkpt lat="42.4135440" lon="-8.0215940">
        <ele>364.1</ele>
        <time>2019-08-17T16:28:15Z</time>
      </trkpt>
      <trkpt lat="42.4135750" lon="-8.0216140">
        <ele>364.3</ele>
        <time>2019-08-17T16:28:16Z</time>
      </trkpt>
      <trkpt lat="42.4136050" lon="-8.0216350">
        <ele>364.4</ele>
        <time>2019-08-17T16:28:17Z</time>
      </trkpt>
      <trkpt lat="42.4136350" lon="-8.0216590">
        <ele>364.6</ele>
        <time>2019-08-17T16:28:18Z</time>
      </trkpt>
      <trkpt lat="42.4136640" lon="-8.0216830">
        <ele>364.8</ele>
        <time>2019-08-17T16:28:19Z</time>
      </trkpt>
      <trkpt lat="42.4136930" lon="-8.0217090">
        <ele>365.0</ele>
        <time>2019-08-17T16:28:20Z</time>
      </trkpt>
      <trkpt lat="42.4137220" lon="-8.0217340">
        <ele>365.2</ele>
        <time>2019-08-17T16:28:21Z</time>
      </trkpt>
      <trkpt lat="42.4137520" lon="-8.0217580">
        <ele>365.4</ele>
        <time>2019-08-17T16:28:22Z</time>
      </trkpt>
      <trkpt lat="42.4137810" lon="-8.0217800">
        <ele>365.6</ele>
        <time>2019-08-17T16:28:23Z</time>
      </trkpt>
      <trkpt lat="42.4138090" lon="-8.0218000">
        <ele>365.8</ele>
        <time>2019-08-17T16:28:24Z</time>
      </trkpt>
      <trkpt lat="42.4138370" lon="-8.0218210">
        <ele>365.9</ele>
        <time>2019-08-17T16:28:25Z</time>
      </trkpt>
      <trkpt lat="42.4138630" lon="-8.0218420">
        <ele>366.0</ele>
        <time>2019-08-17T16:28:26Z</time>
      </trkpt>
      <trkpt lat="42.4138880" lon="-8.0218630">
        <ele>366.2</ele>
        <time>2019-08-17T16:28:27Z</time>
      </trkpt>
      <trkpt lat="42.4139110" lon="-8.0218850">
        <ele>366.3</ele>
        <time>2019-08-17T16:28:28Z</time>
      </trkpt>
      <trkpt lat="42.4139330" lon="-8.0219060">
        <ele>366.5</ele>
        <time>2019-08-17T16:28:29Z</time>
      </trkpt>
      <trkpt lat="42.4139550" lon="-8.0219280">
        <ele>366.6</ele>
        <time>2019-08-17T16:28:30Z</time>
      </trkpt>
      <trkpt lat="42.4139750" lon="-8.0219490">
        <ele>366.8</ele>
        <time>2019-08-17T16:28:31Z</time>
      </trkpt>
      <trkpt lat="42.4139960" lon="-8.0219690">
        <ele>366.9</ele>
        <time>2019-08-17T16:28:32Z</time>
      </trkpt>
      <trkpt lat="42.4140160" lon="-8.0219880">
        <ele>367.1</ele>
        <time>2019-08-17T16:28:33Z</time>
      </trkpt>
      <trkpt lat="42.4140350" lon="-8.0220070">
        <ele>367.2</ele>
        <time>2019-08-17T16:28:34Z</time>
      </trkpt>
      <trkpt lat="42.4140550" lon="-8.0220270">
        <ele>367.3</ele>
        <time>2019-08-17T16:28:35Z</time>
      </trkpt>
      <trkpt lat="42.4140760" lon="-8.0220480">
        <ele>367.5</ele>
        <time>2019-08-17T16:28:36Z</time>
      </trkpt>
      <trkpt lat="42.4140960" lon="-8.0220710">
        <ele>367.6</ele>
        <time>2019-08-17T16:28:37Z</time>
      </trkpt>
      <trkpt lat="42.4141160" lon="-8.0220950">
        <ele>367.8</ele>
        <time>2019-08-17T16:28:38Z</time>
      </trkpt>
      <trkpt lat="42.4141360" lon="-8.0221180">
        <ele>368.0</ele>
        <time>2019-08-17T16:28:39Z</time>
      </trkpt>
      <trkpt lat="42.4141560" lon="-8.0221410">
        <ele>368.1</ele>
        <time>2019-08-17T16:28:40Z</time>
      </trkpt>
      <trkpt lat="42.4141750" lon="-8.0221610">
        <ele>368.2</ele>
        <time>2019-08-17T16:28:41Z</time>
      </trkpt>
      <trkpt lat="42.4141930" lon="-8.0221810">
        <ele>368.3</ele>
        <time>2019-08-17T16:28:42Z</time>
      </trkpt>
      <trkpt lat="42.4142100" lon="-8.0222000">
        <ele>368.5</ele>
        <time>2019-08-17T16:28:43Z</time>
      </trkpt>
      <trkpt lat="42.4142260" lon="-8.0222190">
        <ele>368.6</ele>
        <time>2019-08-17T16:28:44Z</time>
      </trkpt>
      <trkpt lat="42.4142410" lon="-8.0222390">
        <ele>368.7</ele>
        <time>2019-08-17T16:28:45Z</time>
      </trkpt>
      <trkpt lat="42.4142570" lon="-8.0222580">
        <ele>368.8</ele>
        <time>2019-08-17T16:28:46Z</time>
      </trkpt>
      <trkpt lat="42.4142720" lon="-8.0222780">
        <ele>368.9</ele>
        <time>2019-08-17T16:28:47Z</time>
      </trkpt>
      <trkpt lat="42.4142880" lon="-8.0222990">
        <ele>369.0</ele>
        <time>2019-08-17T16:28:48Z</time>
      </trkpt>
      <trkpt lat="42.4143050" lon="-8.0223200">
        <ele>369.1</ele>
        <time>2019-08-17T16:28:49Z</time>
      </trkpt>
      <trkpt lat="42.4143220" lon="-8.0223420">
        <ele>369.2</ele>
        <time>2019-08-17T16:28:50Z</time>
      </trkpt>
      <trkpt lat="42.4143390" lon="-8.0223640">
        <ele>369.3</ele>
        <time>2019-08-17T16:28:51Z</time>
      </trkpt>
      <trkpt lat="42.4143550" lon="-8.0223860">
        <ele>369.4</ele>
        <time>2019-08-17T16:28:52Z</time>
      </trkpt>
      <trkpt lat="42.4143720" lon="-8.0224080">
        <ele>369.6</ele>
        <time>2019-08-17T16:28:53Z</time>
      </trkpt>
      <trkpt lat="42.4143880" lon="-8.0224290">
        <ele>369.7</ele>
        <time>2019-08-17T16:28:54Z</time>
      </trkpt>
      <trkpt lat="42.4144030" lon="-8.0224490">
        <ele>369.8</ele>
        <time>2019-08-17T16:28:55Z</time>
      </trkpt>
      <trkpt lat="42.4144180" lon="-8.0224690">
        <ele>369.9</ele>
        <time>2019-08-17T16:28:56Z</time>
      </trkpt>
      <trkpt lat="42.4144320" lon="-8.0224880">
        <ele>370.0</ele>
        <time>2019-08-17T16:28:57Z</time>
      </trkpt>
      <trkpt lat="42.4144460" lon="-8.0225070">
        <ele>370.1</ele>
        <time>2019-08-17T16:28:58Z</time>
      </trkpt>
      <trkpt lat="42.4144590" lon="-8.0225260">
        <ele>370.2</ele>
        <time>2019-08-17T16:28:59Z</time>
      </trkpt>
      <trkpt lat="42.4144720" lon="-8.0225450">
        <ele>370.3</ele>
        <time>2019-08-17T16:29:00Z</time>
      </trkpt>
      <trkpt lat="42.4144850" lon="-8.0225640">
        <ele>370.4</ele>
        <time>2019-08-17T16:29:01Z</time>
      </trkpt>
      <trkpt lat="42.4144980" lon="-8.0225830">
        <ele>370.5</ele>
        <time>2019-08-17T16:29:02Z</time>
      </trkpt>
      <trkpt lat="42.4145110" lon="-8.0226030">
        <ele>370.6</ele>
        <time>2019-08-17T16:29:03Z</time>
      </trkpt>
      <trkpt lat="42.4145230" lon="-8.0226230">
        <ele>370.7</ele>
        <time>2019-08-17T16:29:04Z</time>
      </trkpt>
      <trkpt lat="42.4145360" lon="-8.0226430">
        <ele>370.8</ele>
        <time>2019-08-17T16:29:05Z</time>
      </trkpt>
      <trkpt lat="42.4145480" lon="-8.0226640">
        <ele>370.8</ele>
        <time>2019-08-17T16:29:06Z</time>
      </trkpt>
      <trkpt lat="42.4145610" lon="-8.0226850">
        <ele>370.9</ele>
        <time>2019-08-17T16:29:07Z</time>
      </trkpt>
      <trkpt lat="42.4145730" lon="-8.0227060">
        <ele>371.0</ele>
        <time>2019-08-17T16:29:08Z</time>
      </trkpt>
      <trkpt lat="42.4145850" lon="-8.0227280">
        <ele>371.1</ele>
        <time>2019-08-17T16:29:09Z</time>
      </trkpt>
      <trkpt lat="42.4145980" lon="-8.0227500">
        <ele>371.2</ele>
        <time>2019-08-17T16:29:10Z</time>
      </trkpt>
      <trkpt lat="42.4146100" lon="-8.0227730">
        <ele>371.3</ele>
        <time>2019-08-17T16:29:11Z</time>
      </trkpt>
      <trkpt lat="42.4146230" lon="-8.0227950">
        <ele>371.5</ele>
        <time>2019-08-17T16:29:12Z</time>
      </trkpt>
      <trkpt lat="42.4146350" lon="-8.0228180">
        <ele>371.6</ele>
        <time>2019-08-17T16:29:13Z</time>
      </trkpt>
      <trkpt lat="42.4146470" lon="-8.0228410">
        <ele>371.7</ele>
        <time>2019-08-17T16:29:14Z</time>
      </trkpt>
      <trkpt lat="42.4146600" lon="-8.0228640">
        <ele>371.8</ele>
        <time>2019-08-17T16:29:15Z</time>
      </trkpt>
      <trkpt lat="42.4146720" lon="-8.0228870">
        <ele>371.9</ele>
        <time>2019-08-17T16:29:16Z</time>
      </trkpt>
      <trkpt lat="42.4146850" lon="-8.0229090">
        <ele>372.0</ele>
        <time>2019-08-17T16:29:17Z</time>
      </trkpt>
      <trkpt lat="42.4146970" lon="-8.0229320">
        <ele>372.1</ele>
        <time>2019-08-17T16:29:18Z</time>
      </trkpt>
      <trkpt lat="42.4147100" lon="-8.0229550">
        <ele>372.2</ele>
        <time>2019-08-17T16:29:19Z</time>
      </trkpt>
      <trkpt lat="42.4147220" lon="-8.0229780">
        <ele>372.3</ele>
        <time>2019-08-17T16:29:20Z</time>
      </trkpt>
      <trkpt lat="42.4147350" lon="-8.0230010">
        <ele>372.4</ele>
        <time>2019-08-17T16:29:21Z</time>
      </trkpt>
      <trkpt lat="42.4147470" lon="-8.0230250">
        <ele>372.5</ele>
        <time>2019-08-17T16:29:22Z</time>
      </trkpt>
      <trkpt lat="42.4147590" lon="-8.0230480">
        <ele>372.6</ele>
        <time>2019-08-17T16:29:23Z</time>
      </trkpt>
      <trkpt lat="42.4147710" lon="-8.0230720">
        <ele>372.7</ele>
        <time>2019-08-17T16:29:24Z</time>
      </trkpt>
      <trkpt lat="42.4147830" lon="-8.0230970">
        <ele>373.0</ele>
        <time>2019-08-17T16:29:25Z</time>
      </trkpt>
      <trkpt lat="42.4147950" lon="-8.0231220">
        <ele>373.2</ele>
        <time>2019-08-17T16:29:26Z</time>
      </trkpt>
      <trkpt lat="42.4148070" lon="-8.0231470">
        <ele>373.5</ele>
        <time>2019-08-17T16:29:27Z</time>
      </trkpt>
      <trkpt lat="42.4148190" lon="-8.0231730">
        <ele>373.7</ele>
        <time>2019-08-17T16:29:28Z</time>
      </trkpt>
      <trkpt lat="42.4148310" lon="-8.0231990">
        <ele>374.0</ele>
        <time>2019-08-17T16:29:29Z</time>
      </trkpt>
      <trkpt lat="42.4148420" lon="-8.0232260">
        <ele>374.2</ele>
        <time>2019-08-17T16:29:30Z</time>
      </trkpt>
      <trkpt lat="42.4148540" lon="-8.0232530">
        <ele>374.5</ele>
        <time>2019-08-17T16:29:31Z</time>
      </trkpt>
      <trkpt lat="42.4148650" lon="-8.0232800">
        <ele>374.7</ele>
        <time>2019-08-17T16:29:32Z</time>
      </trkpt>
      <trkpt lat="42.4148770" lon="-8.0233080">
        <ele>375.0</ele>
        <time>2019-08-17T16:29:33Z</time>
      </trkpt>
      <trkpt lat="42.4148880" lon="-8.0233360">
        <ele>375.2</ele>
        <time>2019-08-17T16:29:34Z</time>
      </trkpt>
      <trkpt lat="42.4148990" lon="-8.0233640">
        <ele>375.5</ele>
        <time>2019-08-17T16:29:35Z</time>
      </trkpt>
      <trkpt lat="42.4149100" lon="-8.0233920">
        <ele>375.8</ele>
        <time>2019-08-17T16:29:36Z</time>
      </trkpt>
      <trkpt lat="42.4149210" lon="-8.0234190">
        <ele>376.0</ele>
        <time>2019-08-17T16:29:37Z</time>
      </trkpt>
      <trkpt lat="42.4149320" lon="-8.0234470">
        <ele>376.3</ele>
        <time>2019-08-17T16:29:38Z</time>
      </trkpt>
      <trkpt lat="42.4149430" lon="-8.0234740">
        <ele>376.5</ele>
        <time>2019-08-17T16:29:39Z</time>
      </trkpt>
      <trkpt lat="42.4149540" lon="-8.0235010">
        <ele>376.7</ele>
        <time>2019-08-17T16:29:40Z</time>
      </trkpt>
      <trkpt lat="42.4149640" lon="-8.0235270">
        <ele>377.0</ele>
        <time>2019-08-17T16:29:41Z</time>
      </trkpt>
      <trkpt lat="42.4149740" lon="-8.0235540">
        <ele>377.2</ele>
        <time>2019-08-17T16:29:42Z</time>
      </trkpt>
      <trkpt lat="42.4149850" lon="-8.0235800">
        <ele>377.4</ele>
        <time>2019-08-17T16:29:43Z</time>
      </trkpt>
      <trkpt lat="42.4149950" lon="-8.0236060">
        <ele>377.7</ele>
        <time>2019-08-17T16:29:44Z</time>
      </trkpt>
      <trkpt lat="42.4150050" lon="-8.0236330">
        <ele>377.9</ele>
        <time>2019-08-17T16:29:45Z</time>
      </trkpt>
      <trkpt lat="42.4150140" lon="-8.0236590">
        <ele>378.1</ele>
        <time>2019-08-17T16:29:46Z</time>
      </trkpt>
      <trkpt lat="42.4150240" lon="-8.0236850">
        <ele>378.5</ele>
        <time>2019-08-17T16:29:47Z</time>
      </trkpt>
      <trkpt lat="42.4150330" lon="-8.0237110">
        <ele>378.9</ele>
        <time>2019-08-17T16:29:48Z</time>
      </trkpt>
      <trkpt lat="42.4150420" lon="-8.0237370">
        <ele>379.4</ele>
        <time>2019-08-17T16:29:49Z</time>
      </trkpt>
      <trkpt lat="42.4150510" lon="-8.0237630">
        <ele>379.7</ele>
        <time>2019-08-17T16:29:50Z</time>
      </trkpt>
      <trkpt lat="42.4150600" lon="-8.0237890">
        <ele>380.0</ele>
        <time>2019-08-17T16:29:51Z</time>
      </trkpt>
      <trkpt lat="42.4150690" lon="-8.0238150">
        <ele>380.3</ele>
        <time>2019-08-17T16:29:52Z</time>
      </trkpt>
      <trkpt lat="42.4150770" lon="-8.0238420">
        <ele>380.6</ele>
        <time>2019-08-17T16:29:53Z</time>
      </trkpt>
      <trkpt lat="42.4150850" lon="-8.0238680">
        <ele>380.9</ele>
        <time>2019-08-17T16:29:54Z</time>
      </trkpt>
      <trkpt lat="42.4150930" lon="-8.0238950">
        <ele>381.2</ele>
        <time>2019-08-17T16:29:55Z</time>
      </trkpt>
      <trkpt lat="42.4151010" lon="-8.0239210">
        <ele>381.6</ele>
        <time>2019-08-17T16:29:56Z</time>
      </trkpt>
      <trkpt lat="42.4151080" lon="-8.0239480">
        <ele>381.9</ele>
        <time>2019-08-17T16:29:57Z</time>
      </trkpt>
      <trkpt lat="42.4151150" lon="-8.0239750">
        <ele>382.3</ele>
        <time>2019-08-17T16:29:58Z</time>
      </trkpt>
      <trkpt lat="42.4151220" lon="-8.0240020">
        <ele>382.6</ele>
        <time>2019-08-17T16:29:59Z</time>
      </trkpt>
      <trkpt lat="42.4151290" lon="-8.0240290">
        <ele>383.0</ele>
        <time>2019-08-17T16:30:00Z</time>
      </trkpt>
      <trkpt lat="42.4151360" lon="-8.0240560">
        <ele>383.4</ele>
        <time>2019-08-17T16:30:01Z</time>
      </trkpt>
      <trkpt lat="42.4151420" lon="-8.0240830">
        <ele>383.8</ele>
        <time>2019-08-17T16:30:02Z</time>
      </trkpt>
      <trkpt lat="42.4151480" lon="-8.0241110">
        <ele>384.2</ele>
        <time>2019-08-17T16:30:03Z</time>
      </trkpt>
      <trkpt lat="42.4151540" lon="-8.0241380">
        <ele>384.7</ele>
        <time>2019-08-17T16:30:04Z</time>
      </trkpt>
      <trkpt lat="42.4151600" lon="-8.0241650">
        <ele>385.1</ele>
        <time>2019-08-17T16:30:05Z</time>
      </trkpt>
      <trkpt lat="42.4151650" lon="-8.0241930">
        <ele>385.5</ele>
        <time>2019-08-17T16:30:06Z</time>
      </trkpt>
      <trkpt lat="42.4151710" lon="-8.0242200">
        <ele>385.7</ele>
        <time>2019-08-17T16:30:07Z</time>
      </trkpt>
      <trkpt lat="42.4151760" lon="-8.0242480">
        <ele>386.0</ele>
        <time>2019-08-17T16:30:08Z</time>
      </trkpt>
      <trkpt lat="42.4151810" lon="-8.0242750">
        <ele>386.3</ele>
        <time>2019-08-17T16:30:09Z</time>
      </trkpt>
      <trkpt lat="42.4151850" lon="-8.0243030">
        <ele>386.6</ele>
        <time>2019-08-17T16:30:10Z</time>
      </trkpt>
      <trkpt lat="42.4151900" lon="-8.0243310">
        <ele>386.8</ele>
        <time>2019-08-17T16:30:11Z</time>
      </trkpt>
      <trkpt lat="42.4151940" lon="-8.0243580">
        <ele>387.4</ele>
        <time>2019-08-17T16:30:12Z</time>
      </trkpt>
      <trkpt lat="42.4151980" lon="-8.0243860">
        <ele>387.7</ele>
        <time>2019-08-17T16:30:13Z</time>
      </trkpt>
      <trkpt lat="42.4152020" lon="-8.0244140">
        <ele>388.1</ele>
        <time>2019-08-17T16:30:14Z</time>
      </trkpt>
      <trkpt lat="42.4152060" lon="-8.0244420">
        <ele>388.4</ele>
        <time>2019-08-17T16:30:15Z</time>
      </trkpt>
      <trkpt lat="42.4152100" lon="-8.0244700">
        <ele>388.8</ele>
        <time>2019-08-17T16:30:16Z</time>
      </trkpt>
      <trkpt lat="42.4152130" lon="-8.0244980">
        <ele>389.1</ele>
        <time>2019-08-17T16:30:17Z</time>
      </trkpt>
      <trkpt lat="42.4152170" lon="-8.0245270">
        <ele>389.5</ele>
        <time>2019-08-17T16:30:18Z</time>
      </trkpt>
      <trkpt lat="42.4152210" lon="-8.0245550">
        <ele>389.9</ele>
        <time>2019-08-17T16:30:19Z</time>
      </trkpt>
      <trkpt lat="42.4152240" lon="-8.0245830">
        <ele>390.2</ele>
        <time>2019-08-17T16:30:20Z</time>
      </trkpt>
      <trkpt lat="42.4152280" lon="-8.0246120">
        <ele>390.6</ele>
        <time>2019-08-17T16:30:21Z</time>
      </trkpt>
      <trkpt lat="42.4152310" lon="-8.0246410">
        <ele>391.2</ele>
        <time>2019-08-17T16:30:22Z</time>
      </trkpt>
      <trkpt lat="42.4152350" lon="-8.0246690">
        <ele>391.5</ele>
        <time>2019-08-17T16:30:23Z</time>
      </trkpt>
      <trkpt lat="42.4152380" lon="-8.0246980">
        <ele>391.8</ele>
        <time>2019-08-17T16:30:24Z</time>
      </trkpt>
      <trkpt lat="42.4152420" lon="-8.0247280">
        <ele>392.0</ele>
        <time>2019-08-17T16:30:25Z</time>
      </trkpt>
      <trkpt lat="42.4152450" lon="-8.0247580">
        <ele>392.3</ele>
        <time>2019-08-17T16:30:26Z</time>
      </trkpt>
      <trkpt lat="42.4152480" lon="-8.0247880">
        <ele>392.6</ele>
        <time>2019-08-17T16:30:27Z</time>
      </trkpt>
      <trkpt lat="42.4152510" lon="-8.0248200">
        <ele>393.0</ele>
        <time>2019-08-17T16:30:28Z</time>
      </trkpt>
      <trkpt lat="42.4152530" lon="-8.0248520">
        <ele>393.3</ele>
        <time>2019-08-17T16:30:29Z</time>
      </trkpt>
      <trkpt lat="42.4152540" lon="-8.0248850">
        <ele>393.6</ele>
        <time>2019-08-17T16:30:30Z</time>
      </trkpt>
      <trkpt lat="42.4152560" lon="-8.0249190">
        <ele>393.9</ele>
        <time>2019-08-17T16:30:31Z</time>
      </trkpt>
      <trkpt lat="42.4152580" lon="-8.0249520">
        <ele>394.2</ele>
        <time>2019-08-17T16:30:32Z</time>
      </trkpt>
      <trkpt lat="42.4152600" lon="-8.0249850">
        <ele>394.6</ele>
        <time>2019-08-17T16:30:33Z</time>
      </trkpt>
      <trkpt lat="42.4152620" lon="-8.0250150">
        <ele>394.7</ele>
        <time>2019-08-17T16:30:34Z</time>
      </trkpt>
      <trkpt lat="42.4152640" lon="-8.0250450">
        <ele>394.9</ele>
        <time>2019-08-17T16:30:35Z</time>
      </trkpt>
      <trkpt lat="42.4152670" lon="-8.0250750">
        <ele>395.0</ele>
        <time>2019-08-17T16:30:36Z</time>
      </trkpt>
      <trkpt lat="42.4152690" lon="-8.0251040">
        <ele>395.1</ele>
        <time>2019-08-17T16:30:37Z</time>
      </trkpt>
      <trkpt lat="42.4152710" lon="-8.0251340">
        <ele>395.3</ele>
        <time>2019-08-17T16:30:38Z</time>
      </trkpt>
      <trkpt lat="42.4152730" lon="-8.0251640">
        <ele>395.4</ele>
        <time>2019-08-17T16:30:39Z</time>
      </trkpt>
      <trkpt lat="42.4152740" lon="-8.0251940">
        <ele>395.5</ele>
        <time>2019-08-17T16:30:40Z</time>
      </trkpt>
      <trkpt lat="42.4152750" lon="-8.0252250">
        <ele>395.7</ele>
        <time>2019-08-17T16:30:41Z</time>
      </trkpt>
      <trkpt lat="42.4152760" lon="-8.0252560">
        <ele>395.8</ele>
        <time>2019-08-17T16:30:42Z</time>
      </trkpt>
      <trkpt lat="42.4152770" lon="-8.0252870">
        <ele>395.9</ele>
        <time>2019-08-17T16:30:43Z</time>
      </trkpt>
      <trkpt lat="42.4152770" lon="-8.0253180">
        <ele>396.1</ele>
        <time>2019-08-17T16:30:44Z</time>
      </trkpt>
      <trkpt lat="42.4152770" lon="-8.0253490">
        <ele>396.2</ele>
        <time>2019-08-17T16:30:45Z</time>
      </trkpt>
      <trkpt lat="42.4152780" lon="-8.0253800">
        <ele>396.4</ele>
        <time>2019-08-17T16:30:46Z</time>
      </trkpt>
      <trkpt lat="42.4152780" lon="-8.0254120">
        <ele>396.5</ele>
        <time>2019-08-17T16:30:47Z</time>
      </trkpt>
      <trkpt lat="42.4152770" lon="-8.0254430">
        <ele>396.6</ele>
        <time>2019-08-17T16:30:48Z</time>
      </trkpt>
      <trkpt lat="42.4152770" lon="-8.0254750">
        <ele>396.8</ele>
        <time>2019-08-17T16:30:49Z</time>
      </trkpt>
      <trkpt lat="42.4152770" lon="-8.0255060">
        <ele>396.9</ele>
        <time>2019-08-17T16:30:50Z</time>
      </trkpt>
      <trkpt lat="42.4152770" lon="-8.0255380">
        <ele>397.1</ele>
        <time>2019-08-17T16:30:51Z</time>
      </trkpt>
      <trkpt lat="42.4152760" lon="-8.0255700">
        <ele>397.2</ele>
        <time>2019-08-17T16:30:52Z</time>
      </trkpt>
      <trkpt lat="42.4152760" lon="-8.0256020">
        <ele>397.4</ele>
        <time>2019-08-17T16:30:53Z</time>
      </trkpt>
      <trkpt lat="42.4152750" lon="-8.0256330">
        <ele>397.5</ele>
        <time>2019-08-17T16:30:54Z</time>
      </trkpt>
      <trkpt lat="42.4152750" lon="-8.0256650">
        <ele>397.6</ele>
        <time>2019-08-17T16:30:55Z</time>
      </trkpt>
      <trkpt lat="42.4152740" lon="-8.0256970">
        <ele>397.8</ele>
        <time>2019-08-17T16:30:56Z</time>
      </trkpt>
      <trkpt lat="42.4152730" lon="-8.0257290">
        <ele>397.9</ele>
        <time>2019-08-17T16:30:57Z</time>
      </trkpt>
      <trkpt lat="42.4152720" lon="-8.0257610">
        <ele>398.1</ele>
        <time>2019-08-17T16:30:58Z</time>
      </trkpt>
      <trkpt lat="42.4152710" lon="-8.0257920">
        <ele>398.2</ele>
        <time>2019-08-17T16:30:59Z</time>
      </trkpt>
      <trkpt lat="42.4152700" lon="-8.0258240">
        <ele>398.4</ele>
        <time>2019-08-17T16:31:00Z</time>
      </trkpt>
      <trkpt lat="42.4152690" lon="-8.0258560">
        <ele>398.5</ele>
        <time>2019-08-17T16:31:01Z</time>
      </trkpt>
      <trkpt lat="42.4152670" lon="-8.0258880">
        <ele>398.6</ele>
        <time>2019-08-17T16:31:02Z</time>
      </trkpt>
      <trkpt lat="42.4152660" lon="-8.0259210">
        <ele>398.8</ele>
        <time>2019-08-17T16:31:03Z</time>
      </trkpt>
      <trkpt lat="42.4152640" lon="-8.0259530">
        <ele>398.9</ele>
        <time>2019-08-17T16:31:04Z</time>
      </trkpt>
      <trkpt lat="42.4152620" lon="-8.0259850">
        <ele>399.0</ele>
        <time>2019-08-17T16:31:05Z</time>
      </trkpt>
      <trkpt lat="42.4152590" lon="-8.0260170">
        <ele>399.2</ele>
        <time>2019-08-17T16:31:06Z</time>
      </trkpt>
      <trkpt lat="42.4152570" lon="-8.0260500">
        <ele>399.3</ele>
        <time>2019-08-17T16:31:07Z</time>
      </trkpt>
      <trkpt lat="42.4152540" lon="-8.0260820">
        <ele>399.4</ele>
        <time>2019-08-17T16:31:08Z</time>
      </trkpt>
      <trkpt lat="42.4152510" lon="-8.0261140">
        <ele>399.5</ele>
        <time>2019-08-17T16:31:09Z</time>
      </trkpt>
      <trkpt lat="42.4152470" lon="-8.0261470">
        <ele>399.6</ele>
        <time>2019-08-17T16:31:10Z</time>
      </trkpt>
      <trkpt lat="42.4152430" lon="-8.0261790">
        <ele>399.8</ele>
        <time>2019-08-17T16:31:11Z</time>
      </trkpt>
      <trkpt lat="42.4152400" lon="-8.0262110">
        <ele>399.9</ele>
        <time>2019-08-17T16:31:12Z</time>
      </trkpt>
      <trkpt lat="42.4152350" lon="-8.0262420">
        <ele>400.0</ele>
        <time>2019-08-17T16:31:13Z</time>
      </trkpt>
      <trkpt lat="42.4152310" lon="-8.0262740">
        <ele>400.1</ele>
        <time>2019-08-17T16:31:14Z</time>
      </trkpt>
      <trkpt lat="42.4152260" lon="-8.0263050">
        <ele>400.2</ele>
        <time>2019-08-17T16:31:15Z</time>
      </trkpt>
      <trkpt lat="42.4152210" lon="-8.0263360">
        <ele>400.3</ele>
        <time>2019-08-17T16:31:16Z</time>
      </trkpt>
      <trkpt lat="42.4152160" lon="-8.0263670">
        <ele>400.4</ele>
        <time>2019-08-17T16:31:17Z</time>
      </trkpt>
      <trkpt lat="42.4152110" lon="-8.0263970">
        <ele>400.5</ele>
        <time>2019-08-17T16:31:18Z</time>
      </trkpt>
      <trkpt lat="42.4152050" lon="-8.0264260">
        <ele>400.5</ele>
        <time>2019-08-17T16:31:19Z</time>
      </trkpt>
      <trkpt lat="42.4151990" lon="-8.0264560">
        <ele>400.6</ele>
        <time>2019-08-17T16:31:20Z</time>
      </trkpt>
      <trkpt lat="42.4151930" lon="-8.0264840">
        <ele>400.7</ele>
        <time>2019-08-17T16:31:21Z</time>
      </trkpt>
      <trkpt lat="42.4151870" lon="-8.0265130">
        <ele>400.8</ele>
        <time>2019-08-17T16:31:22Z</time>
      </trkpt>
      <trkpt lat="42.4151810" lon="-8.0265420">
        <ele>400.9</ele>
        <time>2019-08-17T16:31:23Z</time>
      </trkpt>
      <trkpt lat="42.4151760" lon="-8.0265710">
        <ele>400.9</ele>
        <time>2019-08-17T16:31:24Z</time>
      </trkpt>
      <trkpt lat="42.4151710" lon="-8.0266010">
        <ele>401.0</ele>
        <time>2019-08-17T16:31:25Z</time>
      </trkpt>
      <trkpt lat="42.4151660" lon="-8.0266310">
        <ele>401.1</ele>
        <time>2019-08-17T16:31:26Z</time>
      </trkpt>
      <trkpt lat="42.4151620" lon="-8.0266620">
        <ele>401.1</ele>
        <time>2019-08-17T16:31:27Z</time>
      </trkpt>
      <trkpt lat="42.4151570" lon="-8.0266940">
        <ele>401.2</ele>
        <time>2019-08-17T16:31:28Z</time>
      </trkpt>
      <trkpt lat="42.4151520" lon="-8.0267250">
        <ele>401.3</ele>
        <time>2019-08-17T16:31:29Z</time>
      </trkpt>
      <trkpt lat="42.4151470" lon="-8.0267570">
        <ele>401.4</ele>
        <time>2019-08-17T16:31:30Z</time>
      </trkpt>
      <trkpt lat="42.4151420" lon="-8.0267880">
        <ele>401.4</ele>
        <time>2019-08-17T16:31:31Z</time>
      </trkpt>
      <trkpt lat="42.4151360" lon="-8.0268200">
        <ele>401.5</ele>
        <time>2019-08-17T16:31:32Z</time>
      </trkpt>
      <trkpt lat="42.4151300" lon="-8.0268510">
        <ele>401.6</ele>
        <time>2019-08-17T16:31:33Z</time>
      </trkpt>
      <trkpt lat="42.4151240" lon="-8.0268820">
        <ele>401.7</ele>
        <time>2019-08-17T16:31:34Z</time>
      </trkpt>
      <trkpt lat="42.4151180" lon="-8.0269120">
        <ele>401.7</ele>
        <time>2019-08-17T16:31:35Z</time>
      </trkpt>
      <trkpt lat="42.4151120" lon="-8.0269410">
        <ele>401.8</ele>
        <time>2019-08-17T16:31:36Z</time>
      </trkpt>
      <trkpt lat="42.4151060" lon="-8.0269710">
        <ele>401.9</ele>
        <time>2019-08-17T16:31:37Z</time>
      </trkpt>
      <trkpt lat="42.4150990" lon="-8.0270000">
        <ele>402.0</ele>
        <time>2019-08-17T16:31:38Z</time>
      </trkpt>
      <trkpt lat="42.4150930" lon="-8.0270290">
        <ele>402.0</ele>
        <time>2019-08-17T16:31:39Z</time>
      </trkpt>
      <trkpt lat="42.4150860" lon="-8.0270570">
        <ele>402.1</ele>
        <time>2019-08-17T16:31:40Z</time>
      </trkpt>
      <trkpt lat="42.4150800" lon="-8.0270860">
        <ele>402.2</ele>
        <time>2019-08-17T16:31:41Z</time>
      </trkpt>
      <trkpt lat="42.4150740" lon="-8.0271140">
        <ele>402.2</ele>
        <time>2019-08-17T16:31:42Z</time>
      </trkpt>
      <trkpt lat="42.4150670" lon="-8.0271430">
        <ele>402.3</ele>
        <time>2019-08-17T16:31:43Z</time>
      </trkpt>
      <trkpt lat="42.4150610" lon="-8.0271710">
        <ele>402.4</ele>
        <time>2019-08-17T16:31:44Z</time>
      </trkpt>
      <trkpt lat="42.4150550" lon="-8.0272000">
        <ele>402.4</ele>
        <time>2019-08-17T16:31:45Z</time>
      </trkpt>
      <trkpt lat="42.4150490" lon="-8.0272290">
        <ele>402.5</ele>
        <time>2019-08-17T16:31:46Z</time>
      </trkpt>
      <trkpt lat="42.4150430" lon="-8.0272590">
        <ele>402.6</ele>
        <time>2019-08-17T16:31:47Z</time>
      </trkpt>
      <trkpt lat="42.4150370" lon="-8.0272880">
        <ele>402.6</ele>
        <time>2019-08-17T16:31:48Z</time>
      </trkpt>
      <trkpt lat="42.4150310" lon="-8.0273190">
        <ele>402.7</ele>
        <time>2019-08-17T16:31:49Z</time>
      </trkpt>
      <trkpt lat="42.4150250" lon="-8.0273490">
        <ele>402.8</ele>
        <time>2019-08-17T16:31:50Z</time>
      </trkpt>
      <trkpt lat="42.4150200" lon="-8.0273810">
        <ele>402.8</ele>
        <time>2019-08-17T16:31:51Z</time>
      </trkpt>
      <trkpt lat="42.4150140" lon="-8.0274120">
        <ele>402.9</ele>
        <time>2019-08-17T16:31:52Z</time>
      </trkpt>
      <trkpt lat="42.4150090" lon="-8.0274450">
        <ele>403.0</ele>
        <time>2019-08-17T16:31:53Z</time>
      </trkpt>
      <trkpt lat="42.4150040" lon="-8.0274770">
        <ele>403.1</ele>
        <time>2019-08-17T16:31:54Z</time>
      </trkpt>
      <trkpt lat="42.4149980" lon="-8.0275100">
        <ele>403.1</ele>
        <time>2019-08-17T16:31:55Z</time>
      </trkpt>
      <trkpt lat="42.4149930" lon="-8.0275440">
        <ele>403.3</ele>
        <time>2019-08-17T16:31:56Z</time>
      </trkpt>
      <trkpt lat="42.4149870" lon="-8.0275770">
        <ele>403.5</ele>
        <time>2019-08-17T16:31:57Z</time>
      </trkpt>
      <trkpt lat="42.4149820" lon="-8.0276110">
        <ele>403.7</ele>
        <time>2019-08-17T16:31:58Z</time>
      </trkpt>
      <trkpt lat="42.4149760" lon="-8.0276450">
        <ele>403.9</ele>
        <time>2019-08-17T16:31:59Z</time>
      </trkpt>
      <trkpt lat="42.4149700" lon="-8.0276790">
        <ele>404.0</ele>
        <time>2019-08-17T16:32:00Z</time>
      </trkpt>
      <trkpt lat="42.4149640" lon="-8.0277140">
        <ele>404.2</ele>
        <time>2019-08-17T16:32:01Z</time>
      </trkpt>
      <trkpt lat="42.4149570" lon="-8.0277480">
        <ele>404.4</ele>
        <time>2019-08-17T16:32:02Z</time>
      </trkpt>
      <trkpt lat="42.4149500" lon="-8.0277830">
        <ele>404.6</ele>
        <time>2019-08-17T16:32:03Z</time>
      </trkpt>
      <trkpt lat="42.4149430" lon="-8.0278180">
        <ele>404.8</ele>
        <time>2019-08-17T16:32:04Z</time>
      </trkpt>
      <trkpt lat="42.4149350" lon="-8.0278530">
        <ele>405.0</ele>
        <time>2019-08-17T16:32:05Z</time>
      </trkpt>
      <trkpt lat="42.4149270" lon="-8.0278880">
        <ele>405.2</ele>
        <time>2019-08-17T16:32:06Z</time>
      </trkpt>
      <trkpt lat="42.4149190" lon="-8.0279230">
        <ele>405.4</ele>
        <time>2019-08-17T16:32:07Z</time>
      </trkpt>
      <trkpt lat="42.4149110" lon="-8.0279580">
        <ele>405.6</ele>
        <time>2019-08-17T16:32:08Z</time>
      </trkpt>
      <trkpt lat="42.4149030" lon="-8.0279930">
        <ele>405.8</ele>
        <time>2019-08-17T16:32:09Z</time>
      </trkpt>
      <trkpt lat="42.4148950" lon="-8.0280280">
        <ele>406.0</ele>
        <time>2019-08-17T16:32:10Z</time>
      </trkpt>
      <trkpt lat="42.4148860" lon="-8.0280630">
        <ele>406.2</ele>
        <time>2019-08-17T16:32:11Z</time>
      </trkpt>
      <trkpt lat="42.4148780" lon="-8.0280980">
        <ele>406.4</ele>
        <time>2019-08-17T16:32:12Z</time>
      </trkpt>
      <trkpt lat="42.4148700" lon="-8.0281330">
        <ele>406.6</ele>
        <time>2019-08-17T16:32:13Z</time>
      </trkpt>
      <trkpt lat="42.4148620" lon="-8.0281680">
        <ele>406.8</ele>
        <time>2019-08-17T16:32:14Z</time>
      </trkpt>
      <trkpt lat="42.4148540" lon="-8.0282040">
        <ele>407.0</ele>
        <time>2019-08-17T16:32:15Z</time>
      </trkpt>
      <trkpt lat="42.4148450" lon="-8.0282410">
        <ele>407.3</ele>
        <time>2019-08-17T16:32:16Z</time>
      </trkpt>
      <trkpt lat="42.4148370" lon="-8.0282780">
        <ele>407.5</ele>
        <time>2019-08-17T16:32:17Z</time>
      </trkpt>
      <trkpt lat="42.4148280" lon="-8.0283160">
        <ele>407.7</ele>
        <time>2019-08-17T16:32:18Z</time>
      </trkpt>
      <trkpt lat="42.4148180" lon="-8.0283550">
        <ele>408.0</ele>
        <time>2019-08-17T16:32:19Z</time>
      </trkpt>
      <trkpt lat="42.4148090" lon="-8.0283940">
        <ele>408.2</ele>
        <time>2019-08-17T16:32:20Z</time>
      </trkpt>
      <trkpt lat="42.4147990" lon="-8.0284350">
        <ele>408.5</ele>
        <time>2019-08-17T16:32:21Z</time>
      </trkpt>
      <trkpt lat="42.4147880" lon="-8.0284770">
        <ele>408.7</ele>
        <time>2019-08-17T16:32:22Z</time>
      </trkpt>
      <trkpt lat="42.4147780" lon="-8.0285190">
        <ele>409.0</ele>
        <time>2019-08-17T16:32:23Z</time>
      </trkpt>
      <trkpt lat="42.4147670" lon="-8.0285620">
        <ele>409.3</ele>
        <time>2019-08-17T16:32:24Z</time>
      </trkpt>
      <trkpt lat="42.4147560" lon="-8.0286050">
        <ele>409.7</ele>
        <time>2019-08-17T16:32:25Z</time>
      </trkpt>
      <trkpt lat="42.4147440" lon="-8.0286490">
        <ele>409.9</ele>
        <time>2019-08-17T16:32:26Z</time>
      </trkpt>
      <trkpt lat="42.4147330" lon="-8.0286940">
        <ele>410.1</ele>
        <time>2019-08-17T16:32:27Z</time>
      </trkpt>
      <trkpt lat="42.4147210" lon="-8.0287390">
        <ele>410.3</ele>
        <time>2019-08-17T16:32:28Z</time>
      </trkpt>
      <trkpt lat="42.4147090" lon="-8.0287850">
        <ele>410.4</ele>
        <time>2019-08-17T16:32:29Z</time>
      </trkpt>
      <trkpt lat="42.4146970" lon="-8.0288300">
        <ele>410.6</ele>
        <time>2019-08-17T16:32:30Z</time>
      </trkpt>
      <trkpt lat="42.4146840" lon="-8.0288760">
        <ele>410.7</ele>
        <time>2019-08-17T16:32:31Z</time>
      </trkpt>
      <trkpt lat="42.4146720" lon="-8.0289230">
        <ele>410.9</ele>
        <time>2019-08-17T16:32:32Z</time>
      </trkpt>
      <trkpt lat="42.4146590" lon="-8.0289690">
        <ele>411.0</ele>
        <time>2019-08-17T16:32:33Z</time>
      </trkpt>
      <trkpt lat="42.4146460" lon="-8.0290160">
        <ele>411.2</ele>
        <time>2019-08-17T16:32:34Z</time>
      </trkpt>
      <trkpt lat="42.4146330" lon="-8.0290620">
        <ele>411.4</ele>
        <time>2019-08-17T16:32:35Z</time>
      </trkpt>
      <trkpt lat="42.4146200" lon="-8.0291090">
        <ele>411.6</ele>
        <time>2019-08-17T16:32:36Z</time>
      </trkpt>
      <trkpt lat="42.4146070" lon="-8.0291560">
        <ele>411.7</ele>
        <time>2019-08-17T16:32:37Z</time>
      </trkpt>
      <trkpt lat="42.4145940" lon="-8.0292030">
        <ele>411.9</ele>
        <time>2019-08-17T16:32:38Z</time>
      </trkpt>
      <trkpt lat="42.4145810" lon="-8.0292500">
        <ele>412.1</ele>
        <time>2019-08-17T16:32:39Z</time>
      </trkpt>
      <trkpt lat="42.4145680" lon="-8.0292970">
        <ele>412.4</ele>
        <time>2019-08-17T16:32:40Z</time>
      </trkpt>
      <trkpt lat="42.4145540" lon="-8.0293450">
        <ele>412.6</ele>
        <time>2019-08-17T16:32:41Z</time>
      </trkpt>
      <trkpt lat="42.4145410" lon="-8.0293920">
        <ele>412.9</ele>
        <time>2019-08-17T16:32:42Z</time>
      </trkpt>
      <trkpt lat="42.4145280" lon="-8.0294390">
        <ele>413.2</ele>
        <time>2019-08-17T16:32:43Z</time>
      </trkpt>
      <trkpt lat="42.4145140" lon="-8.0294870">
        <ele>413.5</ele>
        <time>2019-08-17T16:32:44Z</time>
      </trkpt>
      <trkpt lat="42.4145010" lon="-8.0295340">
        <ele>413.8</ele>
        <time>2019-08-17T16:32:45Z</time>
      </trkpt>
      <trkpt lat="42.4144870" lon="-8.0295810">
        <ele>414.1</ele>
        <time>2019-08-17T16:32:46Z</time>
      </trkpt>
      <trkpt lat="42.4144740" lon="-8.0296290">
        <ele>414.1</ele>
        <time>2019-08-17T16:32:47Z</time>
      </trkpt>
      <trkpt lat="42.4144600" lon="-8.0296760">
        <ele>414.1</ele>
        <time>2019-08-17T16:32:48Z</time>
      </trkpt>
      <trkpt lat="42.4144470" lon="-8.0297240">
        <ele>414.1</ele>
        <time>2019-08-17T16:32:49Z</time>
      </trkpt>
      <trkpt lat="42.4144340" lon="-8.0297710">
        <ele>414.2</ele>
        <time>2019-08-17T16:32:50Z</time>
      </trkpt>
      <trkpt lat="42.4144200" lon="-8.0298190">
        <ele>414.2</ele>
        <time>2019-08-17T16:32:51Z</time>
      </trkpt>
      <trkpt lat="42.4144070" lon="-8.0298670">
        <ele>414.2</ele>
        <time>2019-08-17T16:32:52Z</time>
      </trkpt>
      <trkpt lat="42.4143930" lon="-8.0299150">
        <ele>414.2</ele>
        <time>2019-08-17T16:32:53Z</time>
      </trkpt>
      <trkpt lat="42.4143800" lon="-8.0299630">
        <ele>414.3</ele>
        <time>2019-08-17T16:32:54Z</time>
      </trkpt>
      <trkpt lat="42.4143660" lon="-8.0300110">
        <ele>414.3</ele>
        <time>2019-08-17T16:32:55Z</time>
      </trkpt>
      <trkpt lat="42.4143520" lon="-8.0300600">
        <ele>414.3</ele>
        <time>2019-08-17T16:32:56Z</time>
      </trkpt>
      <trkpt lat="42.4143380" lon="-8.0301090">
        <ele>414.3</ele>
        <time>2019-08-17T16:32:57Z</time>
      </trkpt>
      <trkpt lat="42.4143240" lon="-8.0301580">
        <ele>414.3</ele>
        <time>2019-08-17T16:32:58Z</time>
      </trkpt>
      <trkpt lat="42.4143090" lon="-8.0302080">
        <ele>414.3</ele>
        <time>2019-08-17T16:32:59Z</time>
      </trkpt>
      <trkpt lat="42.4142950" lon="-8.0302580">
        <ele>414.3</ele>
        <time>2019-08-17T16:33:00Z</time>
      </trkpt>
      <trkpt lat="42.4142800" lon="-8.0303080">
        <ele>414.3</ele>
        <time>2019-08-17T16:33:01Z</time>
      </trkpt>
      <trkpt lat="42.4142650" lon="-8.0303590">
        <ele>414.3</ele>
        <time>2019-08-17T16:33:02Z</time>
      </trkpt>
      <trkpt lat="42.4142500" lon="-8.0304100">
        <ele>414.3</ele>
        <time>2019-08-17T16:33:03Z</time>
      </trkpt>
      <trkpt lat="42.4142340" lon="-8.0304620">
        <ele>414.3</ele>
        <time>2019-08-17T16:33:04Z</time>
      </trkpt>
      <trkpt lat="42.4142190" lon="-8.0305130">
        <ele>414.3</ele>
        <time>2019-08-17T16:33:05Z</time>
      </trkpt>
      <trkpt lat="42.4142040" lon="-8.0305650">
        <ele>414.3</ele>
        <time>2019-08-17T16:33:06Z</time>
      </trkpt>
      <trkpt lat="42.4141890" lon="-8.0306170">
        <ele>414.3</ele>
        <time>2019-08-17T16:33:07Z</time>
      </trkpt>
      <trkpt lat="42.4141740" lon="-8.0306700">
        <ele>414.3</ele>
        <time>2019-08-17T16:33:08Z</time>
      </trkpt>
      <trkpt lat="42.4141600" lon="-8.0307220">
        <ele>414.2</ele>
        <time>2019-08-17T16:33:09Z</time>
      </trkpt>
      <trkpt lat="42.4141460" lon="-8.0307730">
        <ele>414.2</ele>
        <time>2019-08-17T16:33:10Z</time>
      </trkpt>
      <trkpt lat="42.4141320" lon="-8.0308250">
        <ele>414.1</ele>
        <time>2019-08-17T16:33:11Z</time>
      </trkpt>
      <trkpt lat="42.4141200" lon="-8.0308770">
        <ele>414.1</ele>
        <time>2019-08-17T16:33:12Z</time>
      </trkpt>
      <trkpt lat="42.4141070" lon="-8.0309280">
        <ele>414.0</ele>
        <time>2019-08-17T16:33:13Z</time>
      </trkpt>
      <trkpt lat="42.4140960" lon="-8.0309780">
        <ele>414.0</ele>
        <time>2019-08-17T16:33:14Z</time>
      </trkpt>
      <trkpt lat="42.4140860" lon="-8.0310280">
        <ele>413.9</ele>
        <time>2019-08-17T16:33:15Z</time>
      </trkpt>
      <trkpt lat="42.4140770" lon="-8.0310780">
        <ele>413.8</ele>
        <time>2019-08-17T16:33:16Z</time>
      </trkpt>
      <trkpt lat="42.4140680" lon="-8.0311270">
        <ele>413.8</ele>
        <time>2019-08-17T16:33:17Z</time>
      </trkpt>
      <trkpt lat="42.4140610" lon="-8.0311750">
        <ele>413.7</ele>
        <time>2019-08-17T16:33:18Z</time>
      </trkpt>
      <trkpt lat="42.4140550" lon="-8.0312230">
        <ele>413.7</ele>
        <time>2019-08-17T16:33:19Z</time>
      </trkpt>
      <trkpt lat="42.4140490" lon="-8.0312710">
        <ele>413.7</ele>
        <time>2019-08-17T16:33:20Z</time>
      </trkpt>
      <trkpt lat="42.4140440" lon="-8.0313170">
        <ele>413.8</ele>
        <time>2019-08-17T16:33:21Z</time>
      </trkpt>
      <trkpt lat="42.4140390" lon="-8.0313640">
        <ele>413.9</ele>
        <time>2019-08-17T16:33:22Z</time>
      </trkpt>
      <trkpt lat="42.4140350" lon="-8.0314100">
        <ele>413.9</ele>
        <time>2019-08-17T16:33:23Z</time>
      </trkpt>
      <trkpt lat="42.4140310" lon="-8.0314560">
        <ele>414.0</ele>
        <time>2019-08-17T16:33:24Z</time>
      </trkpt>
      <trkpt lat="42.4140270" lon="-8.0315020">
        <ele>414.1</ele>
        <time>2019-08-17T16:33:25Z</time>
      </trkpt>
      <trkpt lat="42.4140240" lon="-8.0315470">
        <ele>414.2</ele>
        <time>2019-08-17T16:33:26Z</time>
      </trkpt>
      <trkpt lat="42.4140210" lon="-8.0315920">
        <ele>414.3</ele>
        <time>2019-08-17T16:33:27Z</time>
      </trkpt>
      <trkpt lat="42.4140190" lon="-8.0316370">
        <ele>414.4</ele>
        <time>2019-08-17T16:33:28Z</time>
      </trkpt>
      <trkpt lat="42.4140170" lon="-8.0316820">
        <ele>414.5</ele>
        <time>2019-08-17T16:33:29Z</time>
      </trkpt>
      <trkpt lat="42.4140160" lon="-8.0317260">
        <ele>414.6</ele>
        <time>2019-08-17T16:33:30Z</time>
      </trkpt>
      <trkpt lat="42.4140150" lon="-8.0317700">
        <ele>414.7</ele>
        <time>2019-08-17T16:33:31Z</time>
      </trkpt>
      <trkpt lat="42.4140150" lon="-8.0318140">
        <ele>414.8</ele>
        <time>2019-08-17T16:33:32Z</time>
      </trkpt>
      <trkpt lat="42.4140150" lon="-8.0318580">
        <ele>414.9</ele>
        <time>2019-08-17T16:33:33Z</time>
      </trkpt>
      <trkpt lat="42.4140160" lon="-8.0319020">
        <ele>415.0</ele>
        <time>2019-08-17T16:33:34Z</time>
      </trkpt>
      <trkpt lat="42.4140180" lon="-8.0319450">
        <ele>415.2</ele>
        <time>2019-08-17T16:33:35Z</time>
      </trkpt>
      <trkpt lat="42.4140200" lon="-8.0319880">
        <ele>415.3</ele>
        <time>2019-08-17T16:33:36Z</time>
      </trkpt>
      <trkpt lat="42.4140230" lon="-8.0320310">
        <ele>415.4</ele>
        <time>2019-08-17T16:33:37Z</time>
      </trkpt>
      <trkpt lat="42.4140270" lon="-8.0320730">
        <ele>415.5</ele>
        <time>2019-08-17T16:33:38Z</time>
      </trkpt>
      <trkpt lat="42.4140310" lon="-8.0321150">
        <ele>415.7</ele>
        <time>2019-08-17T16:33:39Z</time>
      </trkpt>
      <trkpt lat="42.4140360" lon="-8.0321570">
        <ele>415.8</ele>
        <time>2019-08-17T16:33:40Z</time>
      </trkpt>
      <trkpt lat="42.4140420" lon="-8.0321980">
        <ele>416.0</ele>
        <time>2019-08-17T16:33:41Z</time>
      </trkpt>
      <trkpt lat="42.4140480" lon="-8.0322380">
        <ele>416.1</ele>
        <time>2019-08-17T16:33:42Z</time>
      </trkpt>
      <trkpt lat="42.4140540" lon="-8.0322790">
        <ele>416.3</ele>
        <time>2019-08-17T16:33:43Z</time>
      </trkpt>
      <trkpt lat="42.4140600" lon="-8.0323190">
        <ele>416.4</ele>
        <time>2019-08-17T16:33:44Z</time>
      </trkpt>
      <trkpt lat="42.4140660" lon="-8.0323580">
        <ele>416.6</ele>
        <time>2019-08-17T16:33:45Z</time>
      </trkpt>
      <trkpt lat="42.4140730" lon="-8.0323970">
        <ele>416.7</ele>
        <time>2019-08-17T16:33:46Z</time>
      </trkpt>
      <trkpt lat="42.4140790" lon="-8.0324350">
        <ele>416.9</ele>
        <time>2019-08-17T16:33:47Z</time>
      </trkpt>
      <trkpt lat="42.4140850" lon="-8.0324720">
        <ele>417.0</ele>
        <time>2019-08-17T16:33:48Z</time>
      </trkpt>
      <trkpt lat="42.4140900" lon="-8.0325060">
        <ele>417.1</ele>
        <time>2019-08-17T16:33:49Z</time>
      </trkpt>
      <trkpt lat="42.4140950" lon="-8.0325390">
        <ele>417.2</ele>
        <time>2019-08-17T16:33:50Z</time>
      </trkpt>
      <trkpt lat="42.4141000" lon="-8.0325690">
        <ele>417.3</ele>
        <time>2019-08-17T16:33:51Z</time>
      </trkpt>
      <trkpt lat="42.4141050" lon="-8.0325950">
        <ele>417.4</ele>
        <time>2019-08-17T16:33:52Z</time>
      </trkpt>
      <trkpt lat="42.4141080" lon="-8.0326180">
        <ele>417.5</ele>
        <time>2019-08-17T16:33:53Z</time>
      </trkpt>
      <trkpt lat="42.4141120" lon="-8.0326370">
        <ele>417.6</ele>
        <time>2019-08-17T16:33:54Z</time>
      </trkpt>
      <trkpt lat="42.4141150" lon="-8.0326550">
        <ele>417.6</ele>
        <time>2019-08-17T16:33:55Z</time>
      </trkpt>
      <trkpt lat="42.4141180" lon="-8.0326730">
        <ele>417.7</ele>
        <time>2019-08-17T16:33:56Z</time>
      </trkpt>
      <trkpt lat="42.4141230" lon="-8.0326930">
        <ele>417.8</ele>
        <time>2019-08-17T16:33:57Z</time>
      </trkpt>
      <trkpt lat="42.4141290" lon="-8.0327180">
        <ele>417.9</ele>
        <time>2019-08-17T16:33:58Z</time>
      </trkpt>
      <trkpt lat="42.4141350" lon="-8.0327470">
        <ele>418.0</ele>
        <time>2019-08-17T16:33:59Z</time>
      </trkpt>
      <trkpt lat="42.4141430" lon="-8.0327770">
        <ele>418.1</ele>
        <time>2019-08-17T16:34:00Z</time>
      </trkpt>
      <trkpt lat="42.4141510" lon="-8.0328070">
        <ele>418.2</ele>
        <time>2019-08-17T16:34:01Z</time>
      </trkpt>
      <trkpt lat="42.4141590" lon="-8.0328360">
        <ele>418.3</ele>
        <time>2019-08-17T16:34:02Z</time>
      </trkpt>
      <trkpt lat="42.4141670" lon="-8.0328660">
        <ele>418.4</ele>
        <time>2019-08-17T16:34:03Z</time>
      </trkpt>
      <trkpt lat="42.4141770" lon="-8.0328950">
        <ele>418.5</ele>
        <time>2019-08-17T16:34:04Z</time>
      </trkpt>
      <trkpt lat="42.4141870" lon="-8.0329230">
        <ele>418.6</ele>
        <time>2019-08-17T16:34:05Z</time>
      </trkpt>
      <trkpt lat="42.4141980" lon="-8.0329520">
        <ele>418.7</ele>
        <time>2019-08-17T16:34:06Z</time>
      </trkpt>
      <trkpt lat="42.4142090" lon="-8.0329800">
        <ele>418.8</ele>
        <time>2019-08-17T16:34:07Z</time>
      </trkpt>
      <trkpt lat="42.4142200" lon="-8.0330080">
        <ele>418.9</ele>
        <time>2019-08-17T16:34:08Z</time>
      </trkpt>
      <trkpt lat="42.4142310" lon="-8.0330370">
        <ele>419.0</ele>
        <time>2019-08-17T16:34:09Z</time>
      </trkpt>
      <trkpt lat="42.4142420" lon="-8.0330660">
        <ele>419.2</ele>
        <time>2019-08-17T16:34:10Z</time>
      </trkpt>
      <trkpt lat="42.4142530" lon="-8.0330950">
        <ele>419.2</ele>
        <time>2019-08-17T16:34:11Z</time>
      </trkpt>
      <trkpt lat="42.4142640" lon="-8.0331240">
        <ele>419.3</ele>
        <time>2019-08-17T16:34:12Z</time>
      </trkpt>
      <trkpt lat="42.4142750" lon="-8.0331520">
        <ele>419.4</ele>
        <time>2019-08-17T16:34:13Z</time>
      </trkpt>
      <trkpt lat="42.4142860" lon="-8.0331810">
        <ele>419.5</ele>
        <time>2019-08-17T16:34:14Z</time>
      </trkpt>
      <trkpt lat="42.4142980" lon="-8.0332080">
        <ele>419.6</ele>
        <time>2019-08-17T16:34:15Z</time>
      </trkpt>
      <trkpt lat="42.4143100" lon="-8.0332360">
        <ele>419.7</ele>
        <time>2019-08-17T16:34:16Z</time>
      </trkpt>
      <trkpt lat="42.4143220" lon="-8.0332620">
        <ele>419.9</ele>
        <time>2019-08-17T16:34:17Z</time>
      </trkpt>
      <trkpt lat="42.4143340" lon="-8.0332870">
        <ele>420.1</ele>
        <time>2019-08-17T16:34:18Z</time>
      </trkpt>
      <trkpt lat="42.4143440" lon="-8.0333100">
        <ele>420.2</ele>
        <time>2019-08-17T16:34:19Z</time>
      </trkpt>
      <trkpt lat="42.4143530" lon="-8.0333310">
        <ele>420.3</ele>
        <time>2019-08-17T16:34:20Z</time>
      </trkpt>
      <trkpt lat="42.4143600" lon="-8.0333510">
        <ele>420.4</ele>
        <time>2019-08-17T16:34:21Z</time>
      </trkpt>
      <trkpt lat="42.4143680" lon="-8.0333720">
        <ele>420.5</ele>
        <time>2019-08-17T16:34:22Z</time>
      </trkpt>
      <trkpt lat="42.4143770" lon="-8.0333930">
        <ele>420.6</ele>
        <time>2019-08-17T16:34:23Z</time>
      </trkpt>
      <trkpt lat="42.4143860" lon="-8.0334170">
        <ele>420.8</ele>
        <time>2019-08-17T16:34:24Z</time>
      </trkpt>
      <trkpt lat="42.4143970" lon="-8.0334410">
        <ele>420.9</ele>
        <time>2019-08-17T16:34:25Z</time>
      </trkpt>
      <trkpt lat="42.4144080" lon="-8.0334660">
        <ele>421.0</ele>
        <time>2019-08-17T16:34:26Z</time>
      </trkpt>
      <trkpt lat="42.4144200" lon="-8.0334920">
        <ele>421.2</ele>
        <time>2019-08-17T16:34:27Z</time>
      </trkpt>
      <trkpt lat="42.4144320" lon="-8.0335180">
        <ele>421.3</ele>
        <time>2019-08-17T16:34:28Z</time>
      </trkpt>
      <trkpt lat="42.4144440" lon="-8.0335440">
        <ele>421.5</ele>
        <time>2019-08-17T16:34:29Z</time>
      </trkpt>
      <trkpt lat="42.4144560" lon="-8.0335700">
        <ele>421.6</ele>
        <time>2019-08-17T16:34:30Z</time>
      </trkpt>
      <trkpt lat="42.4144670" lon="-8.0335960">
        <ele>421.8</ele>
        <time>2019-08-17T16:34:31Z</time>
      </trkpt>
      <trkpt lat="42.4144790" lon="-8.0336220">
        <ele>421.9</ele>
        <time>2019-08-17T16:34:32Z</time>
      </trkpt>
      <trkpt lat="42.4144910" lon="-8.0336480">
        <ele>422.1</ele>
        <time>2019-08-17T16:34:33Z</time>
      </trkpt>
      <trkpt lat="42.4145020" lon="-8.0336740">
        <ele>422.2</ele>
        <time>2019-08-17T16:34:34Z</time>
      </trkpt>
      <trkpt lat="42.4145140" lon="-8.0337010">
        <ele>422.4</ele>
        <time>2019-08-17T16:34:35Z</time>
      </trkpt>
      <trkpt lat="42.4145260" lon="-8.0337270">
        <ele>422.5</ele>
        <time>2019-08-17T16:34:36Z</time>
      </trkpt>
      <trkpt lat="42.4145380" lon="-8.0337530">
        <ele>422.7</ele>
        <time>2019-08-17T16:34:37Z</time>
      </trkpt>
      <trkpt lat="42.4145510" lon="-8.0337800">
        <ele>422.8</ele>
        <time>2019-08-17T16:34:38Z</time>
      </trkpt>
      <trkpt lat="42.4145630" lon="-8.0338070">
        <ele>423.0</ele>
        <time>2019-08-17T16:34:39Z</time>
      </trkpt>
      <trkpt lat="42.4145760" lon="-8.0338340">
        <ele>423.1</ele>
        <time>2019-08-17T16:34:40Z</time>
      </trkpt>
      <trkpt lat="42.4145890" lon="-8.0338610">
        <ele>423.3</ele>
        <time>2019-08-17T16:34:41Z</time>
      </trkpt>
      <trkpt lat="42.4146030" lon="-8.0338890">
        <ele>423.4</ele>
        <time>2019-08-17T16:34:42Z</time>
      </trkpt>
      <trkpt lat="42.4146170" lon="-8.0339170">
        <ele>423.6</ele>
        <time>2019-08-17T16:34:43Z</time>
      </trkpt>
      <trkpt lat="42.4146310" lon="-8.0339450">
        <ele>423.7</ele>
        <time>2019-08-17T16:34:44Z</time>
      </trkpt>
      <trkpt lat="42.4146470" lon="-8.0339740">
        <ele>423.8</ele>
        <time>2019-08-17T16:34:45Z</time>
      </trkpt>
      <trkpt lat="42.4146620" lon="-8.0340040">
        <ele>424.0</ele>
        <time>2019-08-17T16:34:46Z</time>
      </trkpt>
      <trkpt lat="42.4146780" lon="-8.0340330">
        <ele>424.1</ele>
        <time>2019-08-17T16:34:47Z</time>
      </trkpt>
      <trkpt lat="42.4146950" lon="-8.0340630">
        <ele>424.3</ele>
        <time>2019-08-17T16:34:48Z</time>
      </trkpt>
      <trkpt lat="42.4147110" lon="-8.0340940">
        <ele>424.4</ele>
        <time>2019-08-17T16:34:49Z</time>
      </trkpt>
      <trkpt lat="42.4147280" lon="-8.0341240">
        <ele>424.6</ele>
        <time>2019-08-17T16:34:50Z</time>
      </trkpt>
      <trkpt lat="42.4147450" lon="-8.0341550">
        <ele>424.7</ele>
        <time>2019-08-17T16:34:51Z</time>
      </trkpt>
      <trkpt lat="42.4147630" lon="-8.0341860">
        <ele>425.1</ele>
        <time>2019-08-17T16:34:52Z</time>
      </trkpt>
      <trkpt lat="42.4147800" lon="-8.0342170">
        <ele>425.2</ele>
        <time>2019-08-17T16:34:53Z</time>
      </trkpt>
      <trkpt lat="42.4147970" lon="-8.0342490">
        <ele>425.4</ele>
        <time>2019-08-17T16:34:54Z</time>
      </trkpt>
      <trkpt lat="42.4148140" lon="-8.0342800">
        <ele>425.6</ele>
        <time>2019-08-17T16:34:55Z</time>
      </trkpt>
      <trkpt lat="42.4148310" lon="-8.0343110">
        <ele>425.7</ele>
        <time>2019-08-17T16:34:56Z</time>
      </trkpt>
      <trkpt lat="42.4148480" lon="-8.0343420">
        <ele>425.9</ele>
        <time>2019-08-17T16:34:57Z</time>
      </trkpt>
      <trkpt lat="42.4148640" lon="-8.0343730">
        <ele>426.1</ele>
        <time>2019-08-17T16:34:58Z</time>
      </trkpt>
      <trkpt lat="42.4148810" lon="-8.0344040">
        <ele>426.2</ele>
        <time>2019-08-17T16:34:59Z</time>
      </trkpt>
      <trkpt lat="42.4148970" lon="-8.0344350">
        <ele>426.4</ele>
        <time>2019-08-17T16:35:00Z</time>
      </trkpt>
      <trkpt lat="42.4149120" lon="-8.0344660">
        <ele>426.6</ele>
        <time>2019-08-17T16:35:01Z</time>
      </trkpt>
      <trkpt lat="42.4149280" lon="-8.0344960">
        <ele>426.7</ele>
        <time>2019-08-17T16:35:02Z</time>
      </trkpt>
      <trkpt lat="42.4149440" lon="-8.0345270">
        <ele>426.9</ele>
        <time>2019-08-17T16:35:03Z</time>
      </trkpt>
      <trkpt lat="42.4149590" lon="-8.0345580">
        <ele>427.1</ele>
        <time>2019-08-17T16:35:04Z</time>
      </trkpt>
      <trkpt lat="42.4149750" lon="-8.0345890">
        <ele>427.2</ele>
        <time>2019-08-17T16:35:05Z</time>
      </trkpt>
      <trkpt lat="42.4149910" lon="-8.0346200">
        <ele>427.4</ele>
        <time>2019-08-17T16:35:06Z</time>
      </trkpt>
      <trkpt lat="42.4150070" lon="-8.0346510">
        <ele>427.6</ele>
        <time>2019-08-17T16:35:07Z</time>
      </trkpt>
      <trkpt lat="42.4150230" lon="-8.0346820">
        <ele>427.8</ele>
        <time>2019-08-17T16:35:08Z</time>
      </trkpt>
      <trkpt lat="42.4150390" lon="-8.0347130">
        <ele>427.9</ele>
        <time>2019-08-17T16:35:09Z</time>
      </trkpt>
      <trkpt lat="42.4150560" lon="-8.0347440">
        <ele>428.1</ele>
        <time>2019-08-17T16:35:10Z</time>
      </trkpt>
      <trkpt lat="42.4150720" lon="-8.0347750">
        <ele>428.3</ele>
        <time>2019-08-17T16:35:11Z</time>
      </trkpt>
      <trkpt lat="42.4150890" lon="-8.0348060">
        <ele>428.4</ele>
        <time>2019-08-17T16:35:12Z</time>
      </trkpt>
      <trkpt lat="42.4151060" lon="-8.0348370">
        <ele>428.6</ele>
        <time>2019-08-17T16:35:13Z</time>
      </trkpt>
      <trkpt lat="42.4151230" lon="-8.0348680">
        <ele>428.7</ele>
        <time>2019-08-17T16:35:14Z</time>
      </trkpt>
      <trkpt lat="42.4151400" lon="-8.0348990">
        <ele>428.9</ele>
        <time>2019-08-17T16:35:15Z</time>
      </trkpt>
      <trkpt lat="42.4151560" lon="-8.0349300">
        <ele>429.4</ele>
        <time>2019-08-17T16:35:16Z</time>
      </trkpt>
      <trkpt lat="42.4151720" lon="-8.0349640">
        <ele>429.5</ele>
        <time>2019-08-17T16:35:17Z</time>
      </trkpt>
      <trkpt lat="42.4151870" lon="-8.0349990">
        <ele>429.7</ele>
        <time>2019-08-17T16:35:18Z</time>
      </trkpt>
      <trkpt lat="42.4152020" lon="-8.0350360">
        <ele>429.8</ele>
        <time>2019-08-17T16:35:19Z</time>
      </trkpt>
      <trkpt lat="42.4152160" lon="-8.0350730">
        <ele>430.0</ele>
        <time>2019-08-17T16:35:20Z</time>
      </trkpt>
      <trkpt lat="42.4152310" lon="-8.0351100">
        <ele>430.1</ele>
        <time>2019-08-17T16:35:21Z</time>
      </trkpt>
      <trkpt lat="42.4152460" lon="-8.0351470">
        <ele>430.3</ele>
        <time>2019-08-17T16:35:22Z</time>
      </trkpt>
      <trkpt lat="42.4152610" lon="-8.0351830">
        <ele>430.4</ele>
        <time>2019-08-17T16:35:23Z</time>
      </trkpt>
      <trkpt lat="42.4152770" lon="-8.0352190">
        <ele>430.6</ele>
        <time>2019-08-17T16:35:24Z</time>
      </trkpt>
      <trkpt lat="42.4152920" lon="-8.0352550">
        <ele>430.7</ele>
        <time>2019-08-17T16:35:25Z</time>
      </trkpt>
      <trkpt lat="42.4153080" lon="-8.0352920">
        <ele>430.9</ele>
        <time>2019-08-17T16:35:26Z</time>
      </trkpt>
      <trkpt lat="42.4153240" lon="-8.0353280">
        <ele>431.1</ele>
        <time>2019-08-17T16:35:27Z</time>
      </trkpt>
      <trkpt lat="42.4153400" lon="-8.0353650">
        <ele>431.2</ele>
        <time>2019-08-17T16:35:28Z</time>
      </trkpt>
      <trkpt lat="42.4153560" lon="-8.0354030">
        <ele>431.4</ele>
        <time>2019-08-17T16:35:29Z</time>
      </trkpt>
      <trkpt lat="42.4153720" lon="-8.0354400">
        <ele>431.5</ele>
        <time>2019-08-17T16:35:30Z</time>
      </trkpt>
      <trkpt lat="42.4153880" lon="-8.0354780">
        <ele>431.6</ele>
        <time>2019-08-17T16:35:31Z</time>
      </trkpt>
      <trkpt lat="42.4154040" lon="-8.0355150">
        <ele>431.8</ele>
        <time>2019-08-17T16:35:32Z</time>
      </trkpt>
      <trkpt lat="42.4154200" lon="-8.0355520">
        <ele>431.9</ele>
        <time>2019-08-17T16:35:33Z</time>
      </trkpt>
      <trkpt lat="42.4154360" lon="-8.0355890">
        <ele>432.1</ele>
        <time>2019-08-17T16:35:34Z</time>
      </trkpt>
      <trkpt lat="42.4154520" lon="-8.0356250">
        <ele>432.2</ele>
        <time>2019-08-17T16:35:35Z</time>
      </trkpt>
      <trkpt lat="42.4154680" lon="-8.0356600">
        <ele>432.3</ele>
        <time>2019-08-17T16:35:36Z</time>
      </trkpt>
      <trkpt lat="42.4154840" lon="-8.0356950">
        <ele>432.5</ele>
        <time>2019-08-17T16:35:37Z</time>
      </trkpt>
      <trkpt lat="42.4155010" lon="-8.0357300">
        <ele>432.6</ele>
        <time>2019-08-17T16:35:38Z</time>
      </trkpt>
      <trkpt lat="42.4155170" lon="-8.0357640">
        <ele>432.7</ele>
        <time>2019-08-17T16:35:39Z</time>
      </trkpt>
      <trkpt lat="42.4155340" lon="-8.0358000">
        <ele>432.8</ele>
        <time>2019-08-17T16:35:40Z</time>
      </trkpt>
      <trkpt lat="42.4155510" lon="-8.0358360">
        <ele>433.0</ele>
        <time>2019-08-17T16:35:41Z</time>
      </trkpt>
      <trkpt lat="42.4155690" lon="-8.0358730">
        <ele>433.1</ele>
        <time>2019-08-17T16:35:42Z</time>
      </trkpt>
      <trkpt lat="42.4155870" lon="-8.0359120">
        <ele>433.2</ele>
        <time>2019-08-17T16:35:43Z</time>
      </trkpt>
      <trkpt lat="42.4156060" lon="-8.0359520">
        <ele>433.3</ele>
        <time>2019-08-17T16:35:44Z</time>
      </trkpt>
      <trkpt lat="42.4156250" lon="-8.0359930">
        <ele>433.4</ele>
        <time>2019-08-17T16:35:45Z</time>
      </trkpt>
      <trkpt lat="42.4156460" lon="-8.0360350">
        <ele>433.5</ele>
        <time>2019-08-17T16:35:46Z</time>
      </trkpt>
      <trkpt lat="42.4156670" lon="-8.0360770">
        <ele>433.6</ele>
        <time>2019-08-17T16:35:47Z</time>
      </trkpt>
      <trkpt lat="42.4156890" lon="-8.0361190">
        <ele>433.6</ele>
        <time>2019-08-17T16:35:48Z</time>
      </trkpt>
      <trkpt lat="42.4157120" lon="-8.0361620">
        <ele>433.7</ele>
        <time>2019-08-17T16:35:49Z</time>
      </trkpt>
      <trkpt lat="42.4157360" lon="-8.0362030">
        <ele>433.7</ele>
        <time>2019-08-17T16:35:50Z</time>
      </trkpt>
      <trkpt lat="42.4157620" lon="-8.0362450">
        <ele>433.8</ele>
        <time>2019-08-17T16:35:51Z</time>
      </trkpt>
      <trkpt lat="42.4157880" lon="-8.0362850">
        <ele>433.8</ele>
        <time>2019-08-17T16:35:52Z</time>
      </trkpt>
      <trkpt lat="42.4158150" lon="-8.0363260">
        <ele>433.8</ele>
        <time>2019-08-17T16:35:53Z</time>
      </trkpt>
      <trkpt lat="42.4158420" lon="-8.0363660">
        <ele>433.7</ele>
        <time>2019-08-17T16:35:54Z</time>
      </trkpt>
      <trkpt lat="42.4158700" lon="-8.0364060">
        <ele>433.7</ele>
        <time>2019-08-17T16:35:55Z</time>
      </trkpt>
      <trkpt lat="42.4158990" lon="-8.0364460">
        <ele>433.6</ele>
        <time>2019-08-17T16:35:56Z</time>
      </trkpt>
      <trkpt lat="42.4159270" lon="-8.0364870">
        <ele>433.6</ele>
        <time>2019-08-17T16:35:57Z</time>
      </trkpt>
      <trkpt lat="42.4159560" lon="-8.0365270">
        <ele>433.5</ele>
        <time>2019-08-17T16:35:58Z</time>
      </trkpt>
      <trkpt lat="42.4159860" lon="-8.0365690">
        <ele>433.4</ele>
        <time>2019-08-17T16:35:59Z</time>
      </trkpt>
      <trkpt lat="42.4160150" lon="-8.0366110">
        <ele>433.3</ele>
        <time>2019-08-17T16:36:00Z</time>
      </trkpt>
      <trkpt lat="42.4160460" lon="-8.0366550">
        <ele>433.2</ele>
        <time>2019-08-17T16:36:01Z</time>
      </trkpt>
      <trkpt lat="42.4160770" lon="-8.0367000">
        <ele>433.1</ele>
        <time>2019-08-17T16:36:02Z</time>
      </trkpt>
      <trkpt lat="42.4161100" lon="-8.0367460">
        <ele>433.0</ele>
        <time>2019-08-17T16:36:03Z</time>
      </trkpt>
      <trkpt lat="42.4161440" lon="-8.0367940">
        <ele>432.8</ele>
        <time>2019-08-17T16:36:04Z</time>
      </trkpt>
      <trkpt lat="42.4161790" lon="-8.0368430">
        <ele>432.6</ele>
        <time>2019-08-17T16:36:05Z</time>
      </trkpt>
      <trkpt lat="42.4162160" lon="-8.0368950">
        <ele>432.4</ele>
        <time>2019-08-17T16:36:06Z</time>
      </trkpt>
      <trkpt lat="42.4162550" lon="-8.0369490">
        <ele>432.2</ele>
        <time>2019-08-17T16:36:07Z</time>
      </trkpt>
      <trkpt lat="42.4163160" lon="-8.0370330">
        <ele>431.9</ele>
        <time>2019-08-17T16:36:08Z</time>
      </trkpt>
      <trkpt lat="42.4163360" lon="-8.0370620">
        <ele>431.8</ele>
        <time>2019-08-17T16:36:09Z</time>
      </trkpt>
      <trkpt lat="42.4163790" lon="-8.0371200">
        <ele>431.5</ele>
        <time>2019-08-17T16:36:10Z</time>
      </trkpt>
      <trkpt lat="42.4164220" lon="-8.0371800">
        <ele>431.3</ele>
        <time>2019-08-17T16:36:11Z</time>
      </trkpt>
      <trkpt lat="42.4164660" lon="-8.0372400">
        <ele>431.0</ele>
        <time>2019-08-17T16:36:12Z</time>
      </trkpt>
      <trkpt lat="42.4165110" lon="-8.0373010">
        <ele>430.7</ele>
        <time>2019-08-17T16:36:13Z</time>
      </trkpt>
      <trkpt lat="42.4165560" lon="-8.0373630">
        <ele>430.5</ele>
        <time>2019-08-17T16:36:14Z</time>
      </trkpt>
      <trkpt lat="42.4166020" lon="-8.0374260">
        <ele>430.3</ele>
        <time>2019-08-17T16:36:15Z</time>
      </trkpt>
      <trkpt lat="42.4166470" lon="-8.0374900">
        <ele>430.0</ele>
        <time>2019-08-17T16:36:16Z</time>
      </trkpt>
      <trkpt lat="42.4166930" lon="-8.0375560">
        <ele>429.7</ele>
        <time>2019-08-17T16:36:17Z</time>
      </trkpt>
      <trkpt lat="42.4167390" lon="-8.0376220">
        <ele>429.5</ele>
        <time>2019-08-17T16:36:18Z</time>
      </trkpt>
      <trkpt lat="42.4167850" lon="-8.0376900">
        <ele>429.3</ele>
        <time>2019-08-17T16:36:19Z</time>
      </trkpt>
      <trkpt lat="42.4168300" lon="-8.0377590">
        <ele>429.0</ele>
        <time>2019-08-17T16:36:20Z</time>
      </trkpt>
      <trkpt lat="42.4168750" lon="-8.0378290">
        <ele>428.7</ele>
        <time>2019-08-17T16:36:21Z</time>
      </trkpt>
      <trkpt lat="42.4169200" lon="-8.0379020">
        <ele>428.4</ele>
        <time>2019-08-17T16:36:22Z</time>
      </trkpt>
      <trkpt lat="42.4169630" lon="-8.0379760">
        <ele>428.0</ele>
        <time>2019-08-17T16:36:23Z</time>
      </trkpt>
      <trkpt lat="42.4170060" lon="-8.0380520">
        <ele>427.8</ele>
        <time>2019-08-17T16:36:24Z</time>
      </trkpt>
      <trkpt lat="42.4170490" lon="-8.0381290">
        <ele>427.5</ele>
        <time>2019-08-17T16:36:25Z</time>
      </trkpt>
      <trkpt lat="42.4170900" lon="-8.0382090">
        <ele>426.6</ele>
        <time>2019-08-17T16:36:26Z</time>
      </trkpt>
      <trkpt lat="42.4171300" lon="-8.0382910">
        <ele>425.4</ele>
        <time>2019-08-17T16:36:27Z</time>
      </trkpt>
      <trkpt lat="42.4171690" lon="-8.0383750">
        <ele>424.4</ele>
        <time>2019-08-17T16:36:28Z</time>
      </trkpt>
      <trkpt lat="42.4172090" lon="-8.0384600">
        <ele>423.5</ele>
        <time>2019-08-17T16:36:29Z</time>
      </trkpt>
      <trkpt lat="42.4172490" lon="-8.0385470">
        <ele>422.9</ele>
        <time>2019-08-17T16:36:30Z</time>
      </trkpt>
      <trkpt lat="42.4172910" lon="-8.0386360">
        <ele>422.3</ele>
        <time>2019-08-17T16:36:31Z</time>
      </trkpt>
      <trkpt lat="42.4173320" lon="-8.0387270">
        <ele>421.9</ele>
        <time>2019-08-17T16:36:32Z</time>
      </trkpt>
      <trkpt lat="42.4173730" lon="-8.0388200">
        <ele>421.6</ele>
        <time>2019-08-17T16:36:33Z</time>
      </trkpt>
      <trkpt lat="42.4174120" lon="-8.0389160">
        <ele>421.4</ele>
        <time>2019-08-17T16:36:34Z</time>
      </trkpt>
      <trkpt lat="42.4174490" lon="-8.0390160">
        <ele>421.2</ele>
        <time>2019-08-17T16:36:35Z</time>
      </trkpt>
      <trkpt lat="42.4174830" lon="-8.0391190">
        <ele>421.0</ele>
        <time>2019-08-17T16:36:36Z</time>
      </trkpt>
      <trkpt lat="42.4175140" lon="-8.0392240">
        <ele>420.8</ele>
        <time>2019-08-17T16:36:37Z</time>
      </trkpt>
      <trkpt lat="42.4175450" lon="-8.0393300">
        <ele>420.6</ele>
        <time>2019-08-17T16:36:38Z</time>
      </trkpt>
      <trkpt lat="42.4175740" lon="-8.0394370">
        <ele>420.3</ele>
        <time>2019-08-17T16:36:39Z</time>
      </trkpt>
      <trkpt lat="42.4176030" lon="-8.0395440">
        <ele>419.8</ele>
        <time>2019-08-17T16:36:40Z</time>
      </trkpt>
      <trkpt lat="42.4176320" lon="-8.0396490">
        <ele>419.3</ele>
        <time>2019-08-17T16:36:41Z</time>
      </trkpt>
      <trkpt lat="42.4176610" lon="-8.0397530">
        <ele>418.6</ele>
        <time>2019-08-17T16:36:42Z</time>
      </trkpt>
      <trkpt lat="42.4176910" lon="-8.0398550">
        <ele>418.0</ele>
        <time>2019-08-17T16:36:43Z</time>
      </trkpt>
      <trkpt lat="42.4177220" lon="-8.0399530">
        <ele>417.4</ele>
        <time>2019-08-17T16:36:44Z</time>
      </trkpt>
      <trkpt lat="42.4177540" lon="-8.0400480">
        <ele>416.9</ele>
        <time>2019-08-17T16:36:45Z</time>
      </trkpt>
      <trkpt lat="42.4177880" lon="-8.0401380">
        <ele>416.6</ele>
        <time>2019-08-17T16:36:46Z</time>
      </trkpt>
      <trkpt lat="42.4178240" lon="-8.0402240">
        <ele>416.3</ele>
        <time>2019-08-17T16:36:47Z</time>
      </trkpt>
      <trkpt lat="42.4178630" lon="-8.0403040">
        <ele>416.1</ele>
        <time>2019-08-17T16:36:48Z</time>
      </trkpt>
      <trkpt lat="42.4179040" lon="-8.0403780">
        <ele>415.9</ele>
        <time>2019-08-17T16:36:49Z</time>
      </trkpt>
      <trkpt lat="42.4179470" lon="-8.0404460">
        <ele>415.7</ele>
        <time>2019-08-17T16:36:50Z</time>
      </trkpt>
      <trkpt lat="42.4179920" lon="-8.0405090">
        <ele>415.6</ele>
        <time>2019-08-17T16:36:51Z</time>
      </trkpt>
      <trkpt lat="42.4180380" lon="-8.0405690">
        <ele>415.5</ele>
        <time>2019-08-17T16:36:52Z</time>
      </trkpt>
      <trkpt lat="42.4180850" lon="-8.0406250">
        <ele>415.3</ele>
        <time>2019-08-17T16:36:53Z</time>
      </trkpt>
      <trkpt lat="42.4181330" lon="-8.0406790">
        <ele>415.2</ele>
        <time>2019-08-17T16:36:54Z</time>
      </trkpt>
      <trkpt lat="42.4181810" lon="-8.0407320">
        <ele>415.1</ele>
        <time>2019-08-17T16:36:55Z</time>
      </trkpt>
      <trkpt lat="42.4182290" lon="-8.0407830">
        <ele>415.0</ele>
        <time>2019-08-17T16:36:56Z</time>
      </trkpt>
      <trkpt lat="42.4182760" lon="-8.0408330">
        <ele>414.9</ele>
        <time>2019-08-17T16:36:57Z</time>
      </trkpt>
      <trkpt lat="42.4183240" lon="-8.0408830">
        <ele>414.8</ele>
        <time>2019-08-17T16:36:58Z</time>
      </trkpt>
      <trkpt lat="42.4183720" lon="-8.0409330">
        <ele>414.8</ele>
        <time>2019-08-17T16:36:59Z</time>
      </trkpt>
      <trkpt lat="42.4184200" lon="-8.0409820">
        <ele>414.7</ele>
        <time>2019-08-17T16:37:00Z</time>
      </trkpt>
      <trkpt lat="42.4184700" lon="-8.0410310">
        <ele>414.5</ele>
        <time>2019-08-17T16:37:01Z</time>
      </trkpt>
      <trkpt lat="42.4185200" lon="-8.0410800">
        <ele>414.4</ele>
        <time>2019-08-17T16:37:02Z</time>
      </trkpt>
      <trkpt lat="42.4185710" lon="-8.0411300">
        <ele>414.1</ele>
        <time>2019-08-17T16:37:03Z</time>
      </trkpt>
      <trkpt lat="42.4186240" lon="-8.0411790">
        <ele>413.9</ele>
        <time>2019-08-17T16:37:04Z</time>
      </trkpt>
      <trkpt lat="42.4186780" lon="-8.0412270">
        <ele>413.6</ele>
        <time>2019-08-17T16:37:05Z</time>
      </trkpt>
      <trkpt lat="42.4187330" lon="-8.0412740">
        <ele>413.3</ele>
        <time>2019-08-17T16:37:06Z</time>
      </trkpt>
      <trkpt lat="42.4187900" lon="-8.0413160">
        <ele>412.8</ele>
        <time>2019-08-17T16:37:07Z</time>
      </trkpt>
      <trkpt lat="42.4188470" lon="-8.0413530">
        <ele>412.7</ele>
        <time>2019-08-17T16:37:08Z</time>
      </trkpt>
      <trkpt lat="42.4189060" lon="-8.0413860">
        <ele>412.6</ele>
        <time>2019-08-17T16:37:09Z</time>
      </trkpt>
      <trkpt lat="42.4189650" lon="-8.0414160">
        <ele>412.5</ele>
        <time>2019-08-17T16:37:10Z</time>
      </trkpt>
      <trkpt lat="42.4190240" lon="-8.0414430">
        <ele>412.4</ele>
        <time>2019-08-17T16:37:11Z</time>
      </trkpt>
      <trkpt lat="42.4190850" lon="-8.0414670">
        <ele>412.3</ele>
        <time>2019-08-17T16:37:12Z</time>
      </trkpt>
      <trkpt lat="42.4191450" lon="-8.0414900">
        <ele>412.2</ele>
        <time>2019-08-17T16:37:13Z</time>
      </trkpt>
      <trkpt lat="42.4192060" lon="-8.0415120">
        <ele>412.1</ele>
        <time>2019-08-17T16:37:14Z</time>
      </trkpt>
      <trkpt lat="42.4192670" lon="-8.0415330">
        <ele>411.9</ele>
        <time>2019-08-17T16:37:15Z</time>
      </trkpt>
      <trkpt lat="42.4193290" lon="-8.0415540">
        <ele>411.7</ele>
        <time>2019-08-17T16:37:16Z</time>
      </trkpt>
      <trkpt lat="42.4193910" lon="-8.0415770">
        <ele>411.4</ele>
        <time>2019-08-17T16:37:17Z</time>
      </trkpt>
      <trkpt lat="42.4194530" lon="-8.0416000">
        <ele>411.2</ele>
        <time>2019-08-17T16:37:18Z</time>
      </trkpt>
      <trkpt lat="42.4195160" lon="-8.0416240">
        <ele>410.8</ele>
        <time>2019-08-17T16:37:19Z</time>
      </trkpt>
      <trkpt lat="42.4195780" lon="-8.0416480">
        <ele>410.3</ele>
        <time>2019-08-17T16:37:20Z</time>
      </trkpt>
      <trkpt lat="42.4196420" lon="-8.0416710">
        <ele>409.8</ele>
        <time>2019-08-17T16:37:21Z</time>
      </trkpt>
      <trkpt lat="42.4197060" lon="-8.0416930">
        <ele>409.3</ele>
        <time>2019-08-17T16:37:22Z</time>
      </trkpt>
      <trkpt lat="42.4197710" lon="-8.0417150">
        <ele>408.9</ele>
        <time>2019-08-17T16:37:23Z</time>
      </trkpt>
      <trkpt lat="42.4198360" lon="-8.0417360">
        <ele>408.5</ele>
        <time>2019-08-17T16:37:24Z</time>
      </trkpt>
      <trkpt lat="42.4199010" lon="-8.0417580">
        <ele>408.0</ele>
        <time>2019-08-17T16:37:25Z</time>
      </trkpt>
      <trkpt lat="42.4199660" lon="-8.0417800">
        <ele>407.6</ele>
        <time>2019-08-17T16:37:26Z</time>
      </trkpt>
      <trkpt lat="42.4200300" lon="-8.0418040">
        <ele>407.2</ele>
        <time>2019-08-17T16:37:27Z</time>
      </trkpt>
      <trkpt lat="42.4200930" lon="-8.0418300">
        <ele>406.8</ele>
        <time>2019-08-17T16:37:28Z</time>
      </trkpt>
      <trkpt lat="42.4201540" lon="-8.0418580">
        <ele>406.4</ele>
        <time>2019-08-17T16:37:29Z</time>
      </trkpt>
      <trkpt lat="42.4202150" lon="-8.0418890">
        <ele>406.1</ele>
        <time>2019-08-17T16:37:30Z</time>
      </trkpt>
      <trkpt lat="42.4202740" lon="-8.0419210">
        <ele>405.9</ele>
        <time>2019-08-17T16:37:31Z</time>
      </trkpt>
      <trkpt lat="42.4203340" lon="-8.0419530">
        <ele>405.7</ele>
        <time>2019-08-17T16:37:32Z</time>
      </trkpt>
      <trkpt lat="42.4203930" lon="-8.0419860">
        <ele>405.6</ele>
        <time>2019-08-17T16:37:33Z</time>
      </trkpt>
      <trkpt lat="42.4204520" lon="-8.0420200">
        <ele>405.5</ele>
        <time>2019-08-17T16:37:34Z</time>
      </trkpt>
      <trkpt lat="42.4205110" lon="-8.0420550">
        <ele>405.4</ele>
        <time>2019-08-17T16:37:35Z</time>
      </trkpt>
      <trkpt lat="42.4205710" lon="-8.0420910">
        <ele>405.4</ele>
        <time>2019-08-17T16:37:36Z</time>
      </trkpt>
      <trkpt lat="42.4206300" lon="-8.0421300">
        <ele>405.4</ele>
        <time>2019-08-17T16:37:37Z</time>
      </trkpt>
      <trkpt lat="42.4206900" lon="-8.0421710">
        <ele>405.4</ele>
        <time>2019-08-17T16:37:38Z</time>
      </trkpt>
      <trkpt lat="42.4207500" lon="-8.0422160">
        <ele>405.4</ele>
        <time>2019-08-17T16:37:39Z</time>
      </trkpt>
      <trkpt lat="42.4208100" lon="-8.0422640">
        <ele>405.5</ele>
        <time>2019-08-17T16:37:40Z</time>
      </trkpt>
      <trkpt lat="42.4208690" lon="-8.0423150">
        <ele>405.5</ele>
        <time>2019-08-17T16:37:41Z</time>
      </trkpt>
      <trkpt lat="42.4209280" lon="-8.0423700">
        <ele>405.6</ele>
        <time>2019-08-17T16:37:42Z</time>
      </trkpt>
      <trkpt lat="42.4209860" lon="-8.0424260">
        <ele>405.7</ele>
        <time>2019-08-17T16:37:43Z</time>
      </trkpt>
      <trkpt lat="42.4210430" lon="-8.0424850">
        <ele>405.9</ele>
        <time>2019-08-17T16:37:44Z</time>
      </trkpt>
      <trkpt lat="42.4210980" lon="-8.0425450">
        <ele>406.0</ele>
        <time>2019-08-17T16:37:45Z</time>
      </trkpt>
      <trkpt lat="42.4211510" lon="-8.0426060">
        <ele>406.2</ele>
        <time>2019-08-17T16:37:46Z</time>
      </trkpt>
      <trkpt lat="42.4212020" lon="-8.0426670">
        <ele>406.4</ele>
        <time>2019-08-17T16:37:47Z</time>
      </trkpt>
      <trkpt lat="42.4212500" lon="-8.0427280">
        <ele>406.7</ele>
        <time>2019-08-17T16:37:48Z</time>
      </trkpt>
      <trkpt lat="42.4212960" lon="-8.0427900">
        <ele>406.9</ele>
        <time>2019-08-17T16:37:49Z</time>
      </trkpt>
      <trkpt lat="42.4213400" lon="-8.0428510">
        <ele>407.1</ele>
        <time>2019-08-17T16:37:50Z</time>
      </trkpt>
      <trkpt lat="42.4213820" lon="-8.0429130">
        <ele>407.4</ele>
        <time>2019-08-17T16:37:51Z</time>
      </trkpt>
      <trkpt lat="42.4214220" lon="-8.0429750">
        <ele>407.6</ele>
        <time>2019-08-17T16:37:52Z</time>
      </trkpt>
      <trkpt lat="42.4214610" lon="-8.0430370">
        <ele>407.8</ele>
        <time>2019-08-17T16:37:53Z</time>
      </trkpt>
      <trkpt lat="42.4214990" lon="-8.0430990">
        <ele>408.0</ele>
        <time>2019-08-17T16:37:54Z</time>
      </trkpt>
      <trkpt lat="42.4215370" lon="-8.0431610">
        <ele>408.2</ele>
        <time>2019-08-17T16:37:55Z</time>
      </trkpt>
      <trkpt lat="42.4215730" lon="-8.0432230">
        <ele>408.4</ele>
        <time>2019-08-17T16:37:56Z</time>
      </trkpt>
      <trkpt lat="42.4216080" lon="-8.0432840">
        <ele>408.6</ele>
        <time>2019-08-17T16:37:57Z</time>
      </trkpt>
      <trkpt lat="42.4216420" lon="-8.0433430">
        <ele>408.8</ele>
        <time>2019-08-17T16:37:58Z</time>
      </trkpt>
      <trkpt lat="42.4216750" lon="-8.0434010">
        <ele>409.0</ele>
        <time>2019-08-17T16:37:59Z</time>
      </trkpt>
      <trkpt lat="42.4217060" lon="-8.0434560">
        <ele>409.1</ele>
        <time>2019-08-17T16:38:00Z</time>
      </trkpt>
      <trkpt lat="42.4217350" lon="-8.0435080">
        <ele>409.3</ele>
        <time>2019-08-17T16:38:01Z</time>
      </trkpt>
      <trkpt lat="42.4217620" lon="-8.0435570">
        <ele>409.4</ele>
        <time>2019-08-17T16:38:02Z</time>
      </trkpt>
      <trkpt lat="42.4217860" lon="-8.0436010">
        <ele>409.6</ele>
        <time>2019-08-17T16:38:03Z</time>
      </trkpt>
      <trkpt lat="42.4218090" lon="-8.0436420">
        <ele>409.7</ele>
        <time>2019-08-17T16:38:04Z</time>
      </trkpt>
      <trkpt lat="42.4218290" lon="-8.0436800">
        <ele>409.8</ele>
        <time>2019-08-17T16:38:05Z</time>
      </trkpt>
      <trkpt lat="42.4218480" lon="-8.0437150">
        <ele>410.0</ele>
        <time>2019-08-17T16:38:06Z</time>
      </trkpt>
      <trkpt lat="42.4218660" lon="-8.0437480">
        <ele>410.1</ele>
        <time>2019-08-17T16:38:07Z</time>
      </trkpt>
      <trkpt lat="42.4218820" lon="-8.0437790">
        <ele>410.2</ele>
        <time>2019-08-17T16:38:08Z</time>
      </trkpt>
      <trkpt lat="42.4218980" lon="-8.0438090">
        <ele>410.3</ele>
        <time>2019-08-17T16:38:09Z</time>
      </trkpt>
      <trkpt lat="42.4219120" lon="-8.0438380">
        <ele>410.4</ele>
        <time>2019-08-17T16:38:10Z</time>
      </trkpt>
      <trkpt lat="42.4219270" lon="-8.0438670">
        <ele>410.5</ele>
        <time>2019-08-17T16:38:11Z</time>
      </trkpt>
      <trkpt lat="42.4219400" lon="-8.0438950">
        <ele>410.6</ele>
        <time>2019-08-17T16:38:12Z</time>
      </trkpt>
      <trkpt lat="42.4219540" lon="-8.0439250">
        <ele>410.7</ele>
        <time>2019-08-17T16:38:13Z</time>
      </trkpt>
      <trkpt lat="42.4219680" lon="-8.0439550">
        <ele>410.7</ele>
        <time>2019-08-17T16:38:14Z</time>
      </trkpt>
      <trkpt lat="42.4219830" lon="-8.0439870">
        <ele>410.8</ele>
        <time>2019-08-17T16:38:15Z</time>
      </trkpt>
      <trkpt lat="42.4219980" lon="-8.0440210">
        <ele>410.9</ele>
        <time>2019-08-17T16:38:16Z</time>
      </trkpt>
      <trkpt lat="42.4220130" lon="-8.0440580">
        <ele>411.0</ele>
        <time>2019-08-17T16:38:17Z</time>
      </trkpt>
      <trkpt lat="42.4220300" lon="-8.0440970">
        <ele>411.2</ele>
        <time>2019-08-17T16:38:18Z</time>
      </trkpt>
      <trkpt lat="42.4220470" lon="-8.0441380">
        <ele>411.3</ele>
        <time>2019-08-17T16:38:19Z</time>
      </trkpt>
      <trkpt lat="42.4220630" lon="-8.0441820">
        <ele>411.4</ele>
        <time>2019-08-17T16:38:20Z</time>
      </trkpt>
      <trkpt lat="42.4220800" lon="-8.0442290">
        <ele>411.7</ele>
        <time>2019-08-17T16:38:21Z</time>
      </trkpt>
      <trkpt lat="42.4220960" lon="-8.0442770">
        <ele>411.9</ele>
        <time>2019-08-17T16:38:22Z</time>
      </trkpt>
      <trkpt lat="42.4221180" lon="-8.0443540">
        <ele>412.3</ele>
        <time>2019-08-17T16:38:23Z</time>
      </trkpt>
      <trkpt lat="42.4221250" lon="-8.0443810">
        <ele>412.4</ele>
        <time>2019-08-17T16:38:24Z</time>
      </trkpt>
      <trkpt lat="42.4221390" lon="-8.0444360">
        <ele>412.7</ele>
        <time>2019-08-17T16:38:25Z</time>
      </trkpt>
      <trkpt lat="42.4221500" lon="-8.0444920">
        <ele>413.1</ele>
        <time>2019-08-17T16:38:26Z</time>
      </trkpt>
      <trkpt lat="42.4221610" lon="-8.0445500">
        <ele>413.5</ele>
        <time>2019-08-17T16:38:27Z</time>
      </trkpt>
      <trkpt lat="42.4221740" lon="-8.0446370">
        <ele>414.2</ele>
        <time>2019-08-17T16:38:28Z</time>
      </trkpt>
      <trkpt lat="42.4221780" lon="-8.0446670">
        <ele>414.4</ele>
        <time>2019-08-17T16:38:29Z</time>
      </trkpt>
      <trkpt lat="42.4221840" lon="-8.0447270">
        <ele>414.9</ele>
        <time>2019-08-17T16:38:30Z</time>
      </trkpt>
      <trkpt lat="42.4221880" lon="-8.0447860">
        <ele>415.3</ele>
        <time>2019-08-17T16:38:31Z</time>
      </trkpt>
      <trkpt lat="42.4221900" lon="-8.0448450">
        <ele>415.9</ele>
        <time>2019-08-17T16:38:32Z</time>
      </trkpt>
      <trkpt lat="42.4221910" lon="-8.0449040">
        <ele>416.4</ele>
        <time>2019-08-17T16:38:33Z</time>
      </trkpt>
      <trkpt lat="42.4221900" lon="-8.0449630">
        <ele>416.8</ele>
        <time>2019-08-17T16:38:34Z</time>
      </trkpt>
      <trkpt lat="42.4221880" lon="-8.0450210">
        <ele>417.2</ele>
        <time>2019-08-17T16:38:35Z</time>
      </trkpt>
      <trkpt lat="42.4221840" lon="-8.0450800">
        <ele>417.6</ele>
        <time>2019-08-17T16:38:36Z</time>
      </trkpt>
      <trkpt lat="42.4221780" lon="-8.0451370">
        <ele>417.9</ele>
        <time>2019-08-17T16:38:37Z</time>
      </trkpt>
      <trkpt lat="42.4221710" lon="-8.0451950">
        <ele>418.2</ele>
        <time>2019-08-17T16:38:38Z</time>
      </trkpt>
      <trkpt lat="42.4221630" lon="-8.0452530">
        <ele>418.5</ele>
        <time>2019-08-17T16:38:39Z</time>
      </trkpt>
      <trkpt lat="42.4221530" lon="-8.0453100">
        <ele>418.7</ele>
        <time>2019-08-17T16:38:40Z</time>
      </trkpt>
      <trkpt lat="42.4221430" lon="-8.0453670">
        <ele>418.9</ele>
        <time>2019-08-17T16:38:41Z</time>
      </trkpt>
      <trkpt lat="42.4221320" lon="-8.0454240">
        <ele>419.1</ele>
        <time>2019-08-17T16:38:42Z</time>
      </trkpt>
      <trkpt lat="42.4221200" lon="-8.0454800">
        <ele>419.3</ele>
        <time>2019-08-17T16:38:43Z</time>
      </trkpt>
      <trkpt lat="42.4221080" lon="-8.0455360">
        <ele>419.4</ele>
        <time>2019-08-17T16:38:44Z</time>
      </trkpt>
      <trkpt lat="42.4220960" lon="-8.0455920">
        <ele>419.6</ele>
        <time>2019-08-17T16:38:45Z</time>
      </trkpt>
      <trkpt lat="42.4220840" lon="-8.0456480">
        <ele>419.7</ele>
        <time>2019-08-17T16:38:46Z</time>
      </trkpt>
      <trkpt lat="42.4220720" lon="-8.0457030">
        <ele>419.8</ele>
        <time>2019-08-17T16:38:47Z</time>
      </trkpt>
      <trkpt lat="42.4220610" lon="-8.0457580">
        <ele>419.9</ele>
        <time>2019-08-17T16:38:48Z</time>
      </trkpt>
      <trkpt lat="42.4220500" lon="-8.0458130">
        <ele>420.1</ele>
        <time>2019-08-17T16:38:49Z</time>
      </trkpt>
      <trkpt lat="42.4220400" lon="-8.0458680">
        <ele>420.2</ele>
        <time>2019-08-17T16:38:50Z</time>
      </trkpt>
      <trkpt lat="42.4220310" lon="-8.0459230">
        <ele>420.3</ele>
        <time>2019-08-17T16:38:51Z</time>
      </trkpt>
      <trkpt lat="42.4220230" lon="-8.0459790">
        <ele>420.4</ele>
        <time>2019-08-17T16:38:52Z</time>
      </trkpt>
      <trkpt lat="42.4220130" lon="-8.0460730">
        <ele>420.6</ele>
        <time>2019-08-17T16:38:53Z</time>
      </trkpt>
      <trkpt lat="42.4220100" lon="-8.0461100">
        <ele>420.6</ele>
        <time>2019-08-17T16:38:54Z</time>
      </trkpt>
      <trkpt lat="42.4220070" lon="-8.0461480">
        <ele>420.7</ele>
        <time>2019-08-17T16:38:55Z</time>
      </trkpt>
      <trkpt lat="42.4220040" lon="-8.0462050">
        <ele>420.8</ele>
        <time>2019-08-17T16:38:56Z</time>
      </trkpt>
      <trkpt lat="42.4220010" lon="-8.0462610">
        <ele>420.9</ele>
        <time>2019-08-17T16:38:57Z</time>
      </trkpt>
      <trkpt lat="42.4220000" lon="-8.0463540">
        <ele>421.0</ele>
        <time>2019-08-17T16:38:58Z</time>
      </trkpt>
      <trkpt lat="42.4220000" lon="-8.0463910">
        <ele>421.0</ele>
        <time>2019-08-17T16:38:59Z</time>
      </trkpt>
      <trkpt lat="42.4220000" lon="-8.0464280">
        <ele>421.1</ele>
        <time>2019-08-17T16:39:00Z</time>
      </trkpt>
      <trkpt lat="42.4220010" lon="-8.0464820">
        <ele>421.1</ele>
        <time>2019-08-17T16:39:01Z</time>
      </trkpt>
      <trkpt lat="42.4220030" lon="-8.0465350">
        <ele>421.2</ele>
        <time>2019-08-17T16:39:02Z</time>
      </trkpt>
      <trkpt lat="42.4220050" lon="-8.0465870">
        <ele>421.3</ele>
        <time>2019-08-17T16:39:03Z</time>
      </trkpt>
      <trkpt lat="42.4220070" lon="-8.0466380">
        <ele>421.4</ele>
        <time>2019-08-17T16:39:04Z</time>
      </trkpt>
      <trkpt lat="42.4220100" lon="-8.0466880">
        <ele>421.5</ele>
        <time>2019-08-17T16:39:05Z</time>
      </trkpt>
      <trkpt lat="42.4220140" lon="-8.0467360">
        <ele>421.6</ele>
        <time>2019-08-17T16:39:06Z</time>
      </trkpt>
      <trkpt lat="42.4220170" lon="-8.0467820">
        <ele>421.7</ele>
        <time>2019-08-17T16:39:07Z</time>
      </trkpt>
      <trkpt lat="42.4220200" lon="-8.0468270">
        <ele>421.8</ele>
        <time>2019-08-17T16:39:08Z</time>
      </trkpt>
      <trkpt lat="42.4220240" lon="-8.0468690">
        <ele>421.9</ele>
        <time>2019-08-17T16:39:09Z</time>
      </trkpt>
      <trkpt lat="42.4220270" lon="-8.0469100">
        <ele>421.9</ele>
        <time>2019-08-17T16:39:10Z</time>
      </trkpt>
      <trkpt lat="42.4220300" lon="-8.0469500">
        <ele>422.0</ele>
        <time>2019-08-17T16:39:11Z</time>
      </trkpt>
      <trkpt lat="42.4220330" lon="-8.0469880">
        <ele>422.1</ele>
        <time>2019-08-17T16:39:12Z</time>
      </trkpt>
      <trkpt lat="42.4220360" lon="-8.0470250">
        <ele>422.2</ele>
        <time>2019-08-17T16:39:13Z</time>
      </trkpt>
      <trkpt lat="42.4220370" lon="-8.0470610">
        <ele>422.3</ele>
        <time>2019-08-17T16:39:14Z</time>
      </trkpt>
      <trkpt lat="42.4220380" lon="-8.0470950">
        <ele>422.4</ele>
        <time>2019-08-17T16:39:15Z</time>
      </trkpt>
      <trkpt lat="42.4220390" lon="-8.0471300">
        <ele>422.4</ele>
        <time>2019-08-17T16:39:16Z</time>
      </trkpt>
      <trkpt lat="42.4220400" lon="-8.0471640">
        <ele>422.5</ele>
        <time>2019-08-17T16:39:17Z</time>
      </trkpt>
      <trkpt lat="42.4220400" lon="-8.0471990">
        <ele>422.7</ele>
        <time>2019-08-17T16:39:18Z</time>
      </trkpt>
      <trkpt lat="42.4220410" lon="-8.0472360">
        <ele>422.7</ele>
        <time>2019-08-17T16:39:19Z</time>
      </trkpt>
      <trkpt lat="42.4220430" lon="-8.0472750">
        <ele>422.8</ele>
        <time>2019-08-17T16:39:20Z</time>
      </trkpt>
      <trkpt lat="42.4220460" lon="-8.0473170">
        <ele>422.9</ele>
        <time>2019-08-17T16:39:21Z</time>
      </trkpt>
      <trkpt lat="42.4220500" lon="-8.0473610">
        <ele>423.0</ele>
        <time>2019-08-17T16:39:22Z</time>
      </trkpt>
      <trkpt lat="42.4220580" lon="-8.0474330">
        <ele>423.1</ele>
        <time>2019-08-17T16:39:23Z</time>
      </trkpt>
      <trkpt lat="42.4220600" lon="-8.0474580">
        <ele>423.2</ele>
        <time>2019-08-17T16:39:24Z</time>
      </trkpt>
      <trkpt lat="42.4220660" lon="-8.0475090">
        <ele>423.3</ele>
        <time>2019-08-17T16:39:25Z</time>
      </trkpt>
      <trkpt lat="42.4220720" lon="-8.0475600">
        <ele>423.4</ele>
        <time>2019-08-17T16:39:26Z</time>
      </trkpt>
      <trkpt lat="42.4220780" lon="-8.0476110">
        <ele>423.4</ele>
        <time>2019-08-17T16:39:27Z</time>
      </trkpt>
      <trkpt lat="42.4220850" lon="-8.0476930">
        <ele>423.6</ele>
        <time>2019-08-17T16:39:28Z</time>
      </trkpt>
      <trkpt lat="42.4220880" lon="-8.0477240">
        <ele>423.6</ele>
        <time>2019-08-17T16:39:29Z</time>
      </trkpt>
      <trkpt lat="42.4220900" lon="-8.0477560">
        <ele>423.7</ele>
        <time>2019-08-17T16:39:30Z</time>
      </trkpt>
      <trkpt lat="42.4220930" lon="-8.0478010">
        <ele>423.8</ele>
        <time>2019-08-17T16:39:31Z</time>
      </trkpt>
      <trkpt lat="42.4220940" lon="-8.0478440">
        <ele>423.8</ele>
        <time>2019-08-17T16:39:32Z</time>
      </trkpt>
      <trkpt lat="42.4220960" lon="-8.0478870">
        <ele>423.9</ele>
        <time>2019-08-17T16:39:33Z</time>
      </trkpt>
      <trkpt lat="42.4220980" lon="-8.0479310">
        <ele>424.0</ele>
        <time>2019-08-17T16:39:34Z</time>
      </trkpt>
      <trkpt lat="42.4221000" lon="-8.0479750">
        <ele>424.1</ele>
        <time>2019-08-17T16:39:35Z</time>
      </trkpt>
      <trkpt lat="42.4221030" lon="-8.0480220">
        <ele>424.1</ele>
        <time>2019-08-17T16:39:36Z</time>
      </trkpt>
      <trkpt lat="42.4221080" lon="-8.0480700">
        <ele>424.2</ele>
        <time>2019-08-17T16:39:37Z</time>
      </trkpt>
      <trkpt lat="42.4221120" lon="-8.0481190">
        <ele>424.3</ele>
        <time>2019-08-17T16:39:38Z</time>
      </trkpt>
      <trkpt lat="42.4221170" lon="-8.0481690">
        <ele>424.4</ele>
        <time>2019-08-17T16:39:39Z</time>
      </trkpt>
      <trkpt lat="42.4221210" lon="-8.0482190">
        <ele>424.5</ele>
        <time>2019-08-17T16:39:40Z</time>
      </trkpt>
      <trkpt lat="42.4221230" lon="-8.0482670">
        <ele>424.6</ele>
        <time>2019-08-17T16:39:41Z</time>
      </trkpt>
      <trkpt lat="42.4221240" lon="-8.0483130">
        <ele>424.6</ele>
        <time>2019-08-17T16:39:42Z</time>
      </trkpt>
      <trkpt lat="42.4221210" lon="-8.0483560">
        <ele>424.7</ele>
        <time>2019-08-17T16:39:43Z</time>
      </trkpt>
      <trkpt lat="42.4221150" lon="-8.0483960">
        <ele>424.8</ele>
        <time>2019-08-17T16:39:44Z</time>
      </trkpt>
      <trkpt lat="42.4221120" lon="-8.0484370">
        <ele>424.8</ele>
        <time>2019-08-17T16:39:45Z</time>
      </trkpt>
      <trkpt lat="42.4221180" lon="-8.0484810">
        <ele>424.9</ele>
        <time>2019-08-17T16:39:46Z</time>
      </trkpt>
      <trkpt lat="42.4221270" lon="-8.0485290">
        <ele>425.0</ele>
        <time>2019-08-17T16:39:47Z</time>
      </trkpt>
      <trkpt lat="42.4221360" lon="-8.0485780">
        <ele>425.1</ele>
        <time>2019-08-17T16:39:48Z</time>
      </trkpt>
      <trkpt lat="42.4221430" lon="-8.0486270">
        <ele>425.2</ele>
        <time>2019-08-17T16:39:49Z</time>
      </trkpt>
      <trkpt lat="42.4221490" lon="-8.0486760">
        <ele>425.2</ele>
        <time>2019-08-17T16:39:50Z</time>
      </trkpt>
      <trkpt lat="42.4221540" lon="-8.0487260">
        <ele>425.3</ele>
        <time>2019-08-17T16:39:51Z</time>
      </trkpt>
      <trkpt lat="42.4221580" lon="-8.0487760">
        <ele>425.4</ele>
        <time>2019-08-17T16:39:52Z</time>
      </trkpt>
      <trkpt lat="42.4221610" lon="-8.0488270">
        <ele>425.5</ele>
        <time>2019-08-17T16:39:53Z</time>
      </trkpt>
      <trkpt lat="42.4221640" lon="-8.0488780">
        <ele>425.6</ele>
        <time>2019-08-17T16:39:54Z</time>
      </trkpt>
      <trkpt lat="42.4221660" lon="-8.0489290">
        <ele>425.9</ele>
        <time>2019-08-17T16:39:55Z</time>
      </trkpt>
      <trkpt lat="42.4221680" lon="-8.0489810">
        <ele>426.1</ele>
        <time>2019-08-17T16:39:56Z</time>
      </trkpt>
      <trkpt lat="42.4221710" lon="-8.0490320">
        <ele>426.3</ele>
        <time>2019-08-17T16:39:57Z</time>
      </trkpt>
      <trkpt lat="42.4221740" lon="-8.0490830">
        <ele>426.4</ele>
        <time>2019-08-17T16:39:58Z</time>
      </trkpt>
      <trkpt lat="42.4221780" lon="-8.0491340">
        <ele>426.5</ele>
        <time>2019-08-17T16:39:59Z</time>
      </trkpt>
      <trkpt lat="42.4221820" lon="-8.0491840">
        <ele>426.6</ele>
        <time>2019-08-17T16:40:00Z</time>
      </trkpt>
      <trkpt lat="42.4221870" lon="-8.0492350">
        <ele>426.6</ele>
        <time>2019-08-17T16:40:01Z</time>
      </trkpt>
      <trkpt lat="42.4221920" lon="-8.0492850">
        <ele>426.7</ele>
        <time>2019-08-17T16:40:02Z</time>
      </trkpt>
      <trkpt lat="42.4221980" lon="-8.0493360">
        <ele>426.8</ele>
        <time>2019-08-17T16:40:03Z</time>
      </trkpt>
      <trkpt lat="42.4222040" lon="-8.0493860">
        <ele>426.8</ele>
        <time>2019-08-17T16:40:04Z</time>
      </trkpt>
      <trkpt lat="42.4222100" lon="-8.0494360">
        <ele>426.9</ele>
        <time>2019-08-17T16:40:05Z</time>
      </trkpt>
      <trkpt lat="42.4222170" lon="-8.0494870">
        <ele>426.9</ele>
        <time>2019-08-17T16:40:06Z</time>
      </trkpt>
      <trkpt lat="42.4222230" lon="-8.0495380">
        <ele>426.9</ele>
        <time>2019-08-17T16:40:07Z</time>
      </trkpt>
      <trkpt lat="42.4222290" lon="-8.0495880">
        <ele>427.0</ele>
        <time>2019-08-17T16:40:08Z</time>
      </trkpt>
      <trkpt lat="42.4222360" lon="-8.0496400">
        <ele>427.0</ele>
        <time>2019-08-17T16:40:09Z</time>
      </trkpt>
      <trkpt lat="42.4222420" lon="-8.0496910">
        <ele>427.0</ele>
        <time>2019-08-17T16:40:10Z</time>
      </trkpt>
      <trkpt lat="42.4222480" lon="-8.0497430">
        <ele>427.0</ele>
        <time>2019-08-17T16:40:11Z</time>
      </trkpt>
      <trkpt lat="42.4222530" lon="-8.0497960">
        <ele>427.0</ele>
        <time>2019-08-17T16:40:12Z</time>
      </trkpt>
      <trkpt lat="42.4222590" lon="-8.0498490">
        <ele>427.0</ele>
        <time>2019-08-17T16:40:13Z</time>
      </trkpt>
      <trkpt lat="42.4222640" lon="-8.0499030">
        <ele>427.0</ele>
        <time>2019-08-17T16:40:14Z</time>
      </trkpt>
      <trkpt lat="42.4222690" lon="-8.0499570">
        <ele>427.0</ele>
        <time>2019-08-17T16:40:15Z</time>
      </trkpt>
      <trkpt lat="42.4222730" lon="-8.0500120">
        <ele>427.0</ele>
        <time>2019-08-17T16:40:16Z</time>
      </trkpt>
      <trkpt lat="42.4222760" lon="-8.0500690">
        <ele>426.9</ele>
        <time>2019-08-17T16:40:17Z</time>
      </trkpt>
      <trkpt lat="42.4222800" lon="-8.0501260">
        <ele>426.9</ele>
        <time>2019-08-17T16:40:18Z</time>
      </trkpt>
      <trkpt lat="42.4222820" lon="-8.0501830">
        <ele>426.8</ele>
        <time>2019-08-17T16:40:19Z</time>
      </trkpt>
      <trkpt lat="42.4222840" lon="-8.0502420">
        <ele>426.8</ele>
        <time>2019-08-17T16:40:20Z</time>
      </trkpt>
      <trkpt lat="42.4222860" lon="-8.0503020">
        <ele>426.7</ele>
        <time>2019-08-17T16:40:21Z</time>
      </trkpt>
      <trkpt lat="42.4222880" lon="-8.0503630">
        <ele>426.6</ele>
        <time>2019-08-17T16:40:22Z</time>
      </trkpt>
      <trkpt lat="42.4222910" lon="-8.0504240">
        <ele>426.5</ele>
        <time>2019-08-17T16:40:23Z</time>
      </trkpt>
      <trkpt lat="42.4222960" lon="-8.0504860">
        <ele>426.2</ele>
        <time>2019-08-17T16:40:24Z</time>
      </trkpt>
      <trkpt lat="42.4223030" lon="-8.0505480">
        <ele>425.9</ele>
        <time>2019-08-17T16:40:25Z</time>
      </trkpt>
      <trkpt lat="42.4223130" lon="-8.0506100">
        <ele>425.5</ele>
        <time>2019-08-17T16:40:26Z</time>
      </trkpt>
      <trkpt lat="42.4223260" lon="-8.0506720">
        <ele>425.1</ele>
        <time>2019-08-17T16:40:27Z</time>
      </trkpt>
      <trkpt lat="42.4223440" lon="-8.0507340">
        <ele>424.7</ele>
        <time>2019-08-17T16:40:28Z</time>
      </trkpt>
      <trkpt lat="42.4223660" lon="-8.0507950">
        <ele>424.0</ele>
        <time>2019-08-17T16:40:29Z</time>
      </trkpt>
      <trkpt lat="42.4223950" lon="-8.0508550">
        <ele>423.4</ele>
        <time>2019-08-17T16:40:30Z</time>
      </trkpt>
      <trkpt lat="42.4224310" lon="-8.0509130">
        <ele>422.9</ele>
        <time>2019-08-17T16:40:31Z</time>
      </trkpt>
      <trkpt lat="42.4224740" lon="-8.0509680">
        <ele>422.3</ele>
        <time>2019-08-17T16:40:32Z</time>
      </trkpt>
      <trkpt lat="42.4225510" lon="-8.0510500">
        <ele>422.0</ele>
        <time>2019-08-17T16:40:33Z</time>
      </trkpt>
      <trkpt lat="42.4225780" lon="-8.0510770">
        <ele>421.9</ele>
        <time>2019-08-17T16:40:34Z</time>
      </trkpt>
      <trkpt lat="42.4226330" lon="-8.0511330">
        <ele>421.7</ele>
        <time>2019-08-17T16:40:35Z</time>
      </trkpt>
      <trkpt lat="42.4226890" lon="-8.0511910">
        <ele>421.7</ele>
        <time>2019-08-17T16:40:36Z</time>
      </trkpt>
      <trkpt lat="42.4227460" lon="-8.0512500">
        <ele>421.6</ele>
        <time>2019-08-17T16:40:37Z</time>
      </trkpt>
      <trkpt lat="42.4228340" lon="-8.0513420">
        <ele>421.6</ele>
        <time>2019-08-17T16:40:38Z</time>
      </trkpt>
      <trkpt lat="42.4228630" lon="-8.0513730">
        <ele>421.6</ele>
        <time>2019-08-17T16:40:39Z</time>
      </trkpt>
      <trkpt lat="42.4229220" lon="-8.0514350">
        <ele>421.6</ele>
        <time>2019-08-17T16:40:40Z</time>
      </trkpt>
      <trkpt lat="42.4229820" lon="-8.0514990">
        <ele>421.6</ele>
        <time>2019-08-17T16:40:41Z</time>
      </trkpt>
      <trkpt lat="42.4230430" lon="-8.0515630">
        <ele>421.6</ele>
        <time>2019-08-17T16:40:42Z</time>
      </trkpt>
      <trkpt lat="42.4231030" lon="-8.0516290">
        <ele>421.6</ele>
        <time>2019-08-17T16:40:43Z</time>
      </trkpt>
      <trkpt lat="42.4231620" lon="-8.0516970">
        <ele>421.6</ele>
        <time>2019-08-17T16:40:44Z</time>
      </trkpt>
      <trkpt lat="42.4232190" lon="-8.0517670">
        <ele>421.6</ele>
        <time>2019-08-17T16:40:45Z</time>
      </trkpt>
      <trkpt lat="42.4232740" lon="-8.0518390">
        <ele>421.6</ele>
        <time>2019-08-17T16:40:46Z</time>
      </trkpt>
      <trkpt lat="42.4233250" lon="-8.0519150">
        <ele>421.6</ele>
        <time>2019-08-17T16:40:47Z</time>
      </trkpt>
      <trkpt lat="42.4233720" lon="-8.0519940">
        <ele>421.5</ele>
        <time>2019-08-17T16:40:48Z</time>
      </trkpt>
      <trkpt lat="42.4234150" lon="-8.0520780">
        <ele>421.5</ele>
        <time>2019-08-17T16:40:49Z</time>
      </trkpt>
      <trkpt lat="42.4234520" lon="-8.0521630">
        <ele>421.5</ele>
        <time>2019-08-17T16:40:50Z</time>
      </trkpt>
      <trkpt lat="42.4234850" lon="-8.0522490">
        <ele>421.5</ele>
        <time>2019-08-17T16:40:51Z</time>
      </trkpt>
      <trkpt lat="42.4235130" lon="-8.0523330">
        <ele>421.4</ele>
        <time>2019-08-17T16:40:52Z</time>
      </trkpt>
      <trkpt lat="42.4235480" lon="-8.0524680">
        <ele>421.4</ele>
        <time>2019-08-17T16:40:53Z</time>
      </trkpt>
      <trkpt lat="42.4235590" lon="-8.0525200">
        <ele>421.4</ele>
        <time>2019-08-17T16:40:54Z</time>
      </trkpt>
      <trkpt lat="42.4235710" lon="-8.0525730">
        <ele>421.3</ele>
        <time>2019-08-17T16:40:55Z</time>
      </trkpt>
      <trkpt lat="42.4235830" lon="-8.0526500">
        <ele>421.3</ele>
        <time>2019-08-17T16:40:56Z</time>
      </trkpt>
      <trkpt lat="42.4235930" lon="-8.0527270">
        <ele>421.2</ele>
        <time>2019-08-17T16:40:57Z</time>
      </trkpt>
      <trkpt lat="42.4236070" lon="-8.0528550">
        <ele>421.1</ele>
        <time>2019-08-17T16:40:58Z</time>
      </trkpt>
      <trkpt lat="42.4236110" lon="-8.0529060">
        <ele>421.0</ele>
        <time>2019-08-17T16:40:59Z</time>
      </trkpt>
      <trkpt lat="42.4236160" lon="-8.0529570">
        <ele>421.0</ele>
        <time>2019-08-17T16:41:00Z</time>
      </trkpt>
      <trkpt lat="42.4236230" lon="-8.0530340">
        <ele>420.9</ele>
        <time>2019-08-17T16:41:01Z</time>
      </trkpt>
      <trkpt lat="42.4236310" lon="-8.0531090">
        <ele>420.8</ele>
        <time>2019-08-17T16:41:02Z</time>
      </trkpt>
      <trkpt lat="42.4236400" lon="-8.0531850">
        <ele>420.8</ele>
        <time>2019-08-17T16:41:03Z</time>
      </trkpt>
      <trkpt lat="42.4236500" lon="-8.0532600">
        <ele>420.7</ele>
        <time>2019-08-17T16:41:04Z</time>
      </trkpt>
      <trkpt lat="42.4236630" lon="-8.0533350">
        <ele>420.7</ele>
        <time>2019-08-17T16:41:05Z</time>
      </trkpt>
      <trkpt lat="42.4236770" lon="-8.0534090">
        <ele>420.7</ele>
        <time>2019-08-17T16:41:06Z</time>
      </trkpt>
      <trkpt lat="42.4236930" lon="-8.0534820">
        <ele>420.7</ele>
        <time>2019-08-17T16:41:07Z</time>
      </trkpt>
      <trkpt lat="42.4237100" lon="-8.0535540">
        <ele>420.7</ele>
        <time>2019-08-17T16:41:08Z</time>
      </trkpt>
      <trkpt lat="42.4237300" lon="-8.0536250">
        <ele>420.7</ele>
        <time>2019-08-17T16:41:09Z</time>
      </trkpt>
      <trkpt lat="42.4237500" lon="-8.0536950">
        <ele>420.7</ele>
        <time>2019-08-17T16:41:10Z</time>
      </trkpt>
      <trkpt lat="42.4237720" lon="-8.0537640">
        <ele>420.7</ele>
        <time>2019-08-17T16:41:11Z</time>
      </trkpt>
      <trkpt lat="42.4237960" lon="-8.0538310">
        <ele>420.7</ele>
        <time>2019-08-17T16:41:12Z</time>
      </trkpt>
      <trkpt lat="42.4238210" lon="-8.0538980">
        <ele>420.6</ele>
        <time>2019-08-17T16:41:13Z</time>
      </trkpt>
      <trkpt lat="42.4238460" lon="-8.0539630">
        <ele>420.6</ele>
        <time>2019-08-17T16:41:14Z</time>
      </trkpt>
      <trkpt lat="42.4238720" lon="-8.0540290">
        <ele>420.6</ele>
        <time>2019-08-17T16:41:15Z</time>
      </trkpt>
      <trkpt lat="42.4238990" lon="-8.0540930">
        <ele>420.5</ele>
        <time>2019-08-17T16:41:16Z</time>
      </trkpt>
      <trkpt lat="42.4239260" lon="-8.0541570">
        <ele>420.5</ele>
        <time>2019-08-17T16:41:17Z</time>
      </trkpt>
      <trkpt lat="42.4239530" lon="-8.0542210">
        <ele>420.5</ele>
        <time>2019-08-17T16:41:18Z</time>
      </trkpt>
      <trkpt lat="42.4239810" lon="-8.0542850">
        <ele>420.4</ele>
        <time>2019-08-17T16:41:19Z</time>
      </trkpt>
      <trkpt lat="42.4240080" lon="-8.0543480">
        <ele>420.4</ele>
        <time>2019-08-17T16:41:20Z</time>
      </trkpt>
      <trkpt lat="42.4240360" lon="-8.0544120">
        <ele>420.4</ele>
        <time>2019-08-17T16:41:21Z</time>
      </trkpt>
      <trkpt lat="42.4240630" lon="-8.0544750">
        <ele>420.3</ele>
        <time>2019-08-17T16:41:22Z</time>
      </trkpt>
      <trkpt lat="42.4240900" lon="-8.0545390">
        <ele>420.3</ele>
        <time>2019-08-17T16:41:23Z</time>
      </trkpt>
      <trkpt lat="42.4241180" lon="-8.0546020">
        <ele>420.3</ele>
        <time>2019-08-17T16:41:24Z</time>
      </trkpt>
      <trkpt lat="42.4241450" lon="-8.0546660">
        <ele>420.3</ele>
        <time>2019-08-17T16:41:25Z</time>
      </trkpt>
      <trkpt lat="42.4241720" lon="-8.0547300">
        <ele>420.3</ele>
        <time>2019-08-17T16:41:26Z</time>
      </trkpt>
      <trkpt lat="42.4241990" lon="-8.0547940">
        <ele>420.2</ele>
        <time>2019-08-17T16:41:27Z</time>
      </trkpt>
      <trkpt lat="42.4242250" lon="-8.0548580">
        <ele>420.2</ele>
        <time>2019-08-17T16:41:28Z</time>
      </trkpt>
      <trkpt lat="42.4242520" lon="-8.0549220">
        <ele>420.1</ele>
        <time>2019-08-17T16:41:29Z</time>
      </trkpt>
      <trkpt lat="42.4242780" lon="-8.0549870">
        <ele>420.0</ele>
        <time>2019-08-17T16:41:30Z</time>
      </trkpt>
      <trkpt lat="42.4243030" lon="-8.0550520">
        <ele>419.9</ele>
        <time>2019-08-17T16:41:31Z</time>
      </trkpt>
      <trkpt lat="42.4243290" lon="-8.0551170">
        <ele>419.7</ele>
        <time>2019-08-17T16:41:32Z</time>
      </trkpt>
      <trkpt lat="42.4243540" lon="-8.0551830">
        <ele>419.6</ele>
        <time>2019-08-17T16:41:33Z</time>
      </trkpt>
      <trkpt lat="42.4243790" lon="-8.0552500">
        <ele>419.5</ele>
        <time>2019-08-17T16:41:34Z</time>
      </trkpt>
      <trkpt lat="42.4244030" lon="-8.0553170">
        <ele>419.3</ele>
        <time>2019-08-17T16:41:35Z</time>
      </trkpt>
      <trkpt lat="42.4244270" lon="-8.0553840">
        <ele>419.2</ele>
        <time>2019-08-17T16:41:36Z</time>
      </trkpt>
      <trkpt lat="42.4244510" lon="-8.0554520">
        <ele>419.1</ele>
        <time>2019-08-17T16:41:37Z</time>
      </trkpt>
      <trkpt lat="42.4244760" lon="-8.0555210">
        <ele>419.0</ele>
        <time>2019-08-17T16:41:38Z</time>
      </trkpt>
      <trkpt lat="42.4245000" lon="-8.0555900">
        <ele>418.8</ele>
        <time>2019-08-17T16:41:39Z</time>
      </trkpt>
      <trkpt lat="42.4245240" lon="-8.0556610">
        <ele>418.6</ele>
        <time>2019-08-17T16:41:40Z</time>
      </trkpt>
      <trkpt lat="42.4245480" lon="-8.0557310">
        <ele>418.3</ele>
        <time>2019-08-17T16:41:41Z</time>
      </trkpt>
      <trkpt lat="42.4245730" lon="-8.0558030">
        <ele>418.0</ele>
        <time>2019-08-17T16:41:42Z</time>
      </trkpt>
      <trkpt lat="42.4245980" lon="-8.0558750">
        <ele>417.6</ele>
        <time>2019-08-17T16:41:43Z</time>
      </trkpt>
      <trkpt lat="42.4246230" lon="-8.0559480">
        <ele>417.3</ele>
        <time>2019-08-17T16:41:44Z</time>
      </trkpt>
      <trkpt lat="42.4246490" lon="-8.0560220">
        <ele>417.0</ele>
        <time>2019-08-17T16:41:45Z</time>
      </trkpt>
      <trkpt lat="42.4246750" lon="-8.0560960">
        <ele>416.6</ele>
        <time>2019-08-17T16:41:46Z</time>
      </trkpt>
      <trkpt lat="42.4247030" lon="-8.0561720">
        <ele>416.2</ele>
        <time>2019-08-17T16:41:47Z</time>
      </trkpt>
      <trkpt lat="42.4247300" lon="-8.0562480">
        <ele>415.9</ele>
        <time>2019-08-17T16:41:48Z</time>
      </trkpt>
      <trkpt lat="42.4247590" lon="-8.0563240">
        <ele>415.6</ele>
        <time>2019-08-17T16:41:49Z</time>
      </trkpt>
      <trkpt lat="42.4247880" lon="-8.0564020">
        <ele>415.2</ele>
        <time>2019-08-17T16:41:50Z</time>
      </trkpt>
      <trkpt lat="42.4248180" lon="-8.0564800">
        <ele>414.9</ele>
        <time>2019-08-17T16:41:51Z</time>
      </trkpt>
      <trkpt lat="42.4248480" lon="-8.0565600">
        <ele>414.4</ele>
        <time>2019-08-17T16:41:52Z</time>
      </trkpt>
      <trkpt lat="42.4248780" lon="-8.0566410">
        <ele>414.0</ele>
        <time>2019-08-17T16:41:53Z</time>
      </trkpt>
      <trkpt lat="42.4249090" lon="-8.0567240">
        <ele>413.5</ele>
        <time>2019-08-17T16:41:54Z</time>
      </trkpt>
      <trkpt lat="42.4249390" lon="-8.0568080">
        <ele>412.9</ele>
        <time>2019-08-17T16:41:55Z</time>
      </trkpt>
      <trkpt lat="42.4249700" lon="-8.0568930">
        <ele>412.4</ele>
        <time>2019-08-17T16:41:56Z</time>
      </trkpt>
      <trkpt lat="42.4250010" lon="-8.0569800">
        <ele>411.9</ele>
        <time>2019-08-17T16:41:57Z</time>
      </trkpt>
      <trkpt lat="42.4250320" lon="-8.0570660">
        <ele>411.5</ele>
        <time>2019-08-17T16:41:58Z</time>
      </trkpt>
      <trkpt lat="42.4250630" lon="-8.0571520">
        <ele>411.0</ele>
        <time>2019-08-17T16:41:59Z</time>
      </trkpt>
      <trkpt lat="42.4250960" lon="-8.0572360">
        <ele>410.5</ele>
        <time>2019-08-17T16:42:00Z</time>
      </trkpt>
      <trkpt lat="42.4251290" lon="-8.0573190">
        <ele>410.1</ele>
        <time>2019-08-17T16:42:01Z</time>
      </trkpt>
      <trkpt lat="42.4251630" lon="-8.0573990">
        <ele>409.7</ele>
        <time>2019-08-17T16:42:02Z</time>
      </trkpt>
      <trkpt lat="42.4251980" lon="-8.0574750">
        <ele>409.3</ele>
        <time>2019-08-17T16:42:03Z</time>
      </trkpt>
      <trkpt lat="42.4252340" lon="-8.0575490">
        <ele>408.9</ele>
        <time>2019-08-17T16:42:04Z</time>
      </trkpt>
      <trkpt lat="42.4252710" lon="-8.0576220">
        <ele>408.6</ele>
        <time>2019-08-17T16:42:05Z</time>
      </trkpt>
      <trkpt lat="42.4253090" lon="-8.0576940">
        <ele>408.2</ele>
        <time>2019-08-17T16:42:06Z</time>
      </trkpt>
      <trkpt lat="42.4253480" lon="-8.0577670">
        <ele>407.7</ele>
        <time>2019-08-17T16:42:07Z</time>
      </trkpt>
      <trkpt lat="42.4253870" lon="-8.0578410">
        <ele>407.0</ele>
        <time>2019-08-17T16:42:08Z</time>
      </trkpt>
      <trkpt lat="42.4254240" lon="-8.0579170">
        <ele>406.7</ele>
        <time>2019-08-17T16:42:09Z</time>
      </trkpt>
      <trkpt lat="42.4254610" lon="-8.0579930">
        <ele>406.4</ele>
        <time>2019-08-17T16:42:10Z</time>
      </trkpt>
      <trkpt lat="42.4254960" lon="-8.0580700">
        <ele>406.1</ele>
        <time>2019-08-17T16:42:11Z</time>
      </trkpt>
      <trkpt lat="42.4255300" lon="-8.0581470">
        <ele>405.6</ele>
        <time>2019-08-17T16:42:12Z</time>
      </trkpt>
      <trkpt lat="42.4255630" lon="-8.0582250">
        <ele>405.0</ele>
        <time>2019-08-17T16:42:13Z</time>
      </trkpt>
      <trkpt lat="42.4255970" lon="-8.0583030">
        <ele>404.4</ele>
        <time>2019-08-17T16:42:14Z</time>
      </trkpt>
      <trkpt lat="42.4256310" lon="-8.0583800">
        <ele>404.0</ele>
        <time>2019-08-17T16:42:15Z</time>
      </trkpt>
      <trkpt lat="42.4256660" lon="-8.0584580">
        <ele>403.6</ele>
        <time>2019-08-17T16:42:16Z</time>
      </trkpt>
      <trkpt lat="42.4257020" lon="-8.0585350">
        <ele>403.2</ele>
        <time>2019-08-17T16:42:17Z</time>
      </trkpt>
      <trkpt lat="42.4257390" lon="-8.0586130">
        <ele>402.9</ele>
        <time>2019-08-17T16:42:18Z</time>
      </trkpt>
      <trkpt lat="42.4257770" lon="-8.0586910">
        <ele>403.2</ele>
        <time>2019-08-17T16:42:19Z</time>
      </trkpt>
      <trkpt lat="42.4258150" lon="-8.0587700">
        <ele>403.4</ele>
        <time>2019-08-17T16:42:20Z</time>
      </trkpt>
      <trkpt lat="42.4258540" lon="-8.0588520">
        <ele>403.4</ele>
        <time>2019-08-17T16:42:21Z</time>
      </trkpt>
      <trkpt lat="42.4258920" lon="-8.0589340">
        <ele>403.6</ele>
        <time>2019-08-17T16:42:22Z</time>
      </trkpt>
      <trkpt lat="42.4259290" lon="-8.0590190">
        <ele>403.8</ele>
        <time>2019-08-17T16:42:23Z</time>
      </trkpt>
      <trkpt lat="42.4259630" lon="-8.0591040">
        <ele>404.0</ele>
        <time>2019-08-17T16:42:24Z</time>
      </trkpt>
      <trkpt lat="42.4259960" lon="-8.0591920">
        <ele>404.1</ele>
        <time>2019-08-17T16:42:25Z</time>
      </trkpt>
      <trkpt lat="42.4260280" lon="-8.0592800">
        <ele>404.1</ele>
        <time>2019-08-17T16:42:26Z</time>
      </trkpt>
      <trkpt lat="42.4260610" lon="-8.0593700">
        <ele>404.0</ele>
        <time>2019-08-17T16:42:27Z</time>
      </trkpt>
      <trkpt lat="42.4260960" lon="-8.0594610">
        <ele>404.0</ele>
        <time>2019-08-17T16:42:28Z</time>
      </trkpt>
      <trkpt lat="42.4261360" lon="-8.0595540">
        <ele>404.0</ele>
        <time>2019-08-17T16:42:29Z</time>
      </trkpt>
      <trkpt lat="42.4261790" lon="-8.0596470">
        <ele>404.0</ele>
        <time>2019-08-17T16:42:30Z</time>
      </trkpt>
      <trkpt lat="42.4262240" lon="-8.0597420">
        <ele>404.0</ele>
        <time>2019-08-17T16:42:31Z</time>
      </trkpt>
      <trkpt lat="42.4262680" lon="-8.0598370">
        <ele>403.9</ele>
        <time>2019-08-17T16:42:32Z</time>
      </trkpt>
      <trkpt lat="42.4263130" lon="-8.0599340">
        <ele>403.9</ele>
        <time>2019-08-17T16:42:33Z</time>
      </trkpt>
      <trkpt lat="42.4263580" lon="-8.0600300">
        <ele>403.9</ele>
        <time>2019-08-17T16:42:34Z</time>
      </trkpt>
      <trkpt lat="42.4264030" lon="-8.0601270">
        <ele>403.8</ele>
        <time>2019-08-17T16:42:35Z</time>
      </trkpt>
      <trkpt lat="42.4264480" lon="-8.0602240">
        <ele>403.7</ele>
        <time>2019-08-17T16:42:36Z</time>
      </trkpt>
      <trkpt lat="42.4264940" lon="-8.0603220">
        <ele>403.5</ele>
        <time>2019-08-17T16:42:37Z</time>
      </trkpt>
      <trkpt lat="42.4265390" lon="-8.0604190">
        <ele>403.0</ele>
        <time>2019-08-17T16:42:38Z</time>
      </trkpt>
      <trkpt lat="42.4265860" lon="-8.0605150">
        <ele>402.4</ele>
        <time>2019-08-17T16:42:39Z</time>
      </trkpt>
      <trkpt lat="42.4266320" lon="-8.0606120">
        <ele>401.7</ele>
        <time>2019-08-17T16:42:40Z</time>
      </trkpt>
      <trkpt lat="42.4266780" lon="-8.0607070">
        <ele>400.5</ele>
        <time>2019-08-17T16:42:41Z</time>
      </trkpt>
      <trkpt lat="42.4267240" lon="-8.0608010">
        <ele>399.5</ele>
        <time>2019-08-17T16:42:42Z</time>
      </trkpt>
      <trkpt lat="42.4267690" lon="-8.0608930">
        <ele>398.5</ele>
        <time>2019-08-17T16:42:43Z</time>
      </trkpt>
      <trkpt lat="42.4268150" lon="-8.0609850">
        <ele>397.5</ele>
        <time>2019-08-17T16:42:44Z</time>
      </trkpt>
      <trkpt lat="42.4268600" lon="-8.0610780">
        <ele>396.4</ele>
        <time>2019-08-17T16:42:45Z</time>
      </trkpt>
      <trkpt lat="42.4269050" lon="-8.0611730">
        <ele>395.1</ele>
        <time>2019-08-17T16:42:46Z</time>
      </trkpt>
      <trkpt lat="42.4269510" lon="-8.0612700">
        <ele>393.9</ele>
        <time>2019-08-17T16:42:47Z</time>
      </trkpt>
      <trkpt lat="42.4269960" lon="-8.0613680">
        <ele>392.5</ele>
        <time>2019-08-17T16:42:48Z</time>
      </trkpt>
      <trkpt lat="42.4270410" lon="-8.0614670">
        <ele>391.0</ele>
        <time>2019-08-17T16:42:49Z</time>
      </trkpt>
      <trkpt lat="42.4270850" lon="-8.0615660">
        <ele>389.8</ele>
        <time>2019-08-17T16:42:50Z</time>
      </trkpt>
      <trkpt lat="42.4271290" lon="-8.0616640">
        <ele>389.6</ele>
        <time>2019-08-17T16:42:51Z</time>
      </trkpt>
      <trkpt lat="42.4271740" lon="-8.0617610">
        <ele>389.6</ele>
        <time>2019-08-17T16:42:52Z</time>
      </trkpt>
      <trkpt lat="42.4272190" lon="-8.0618560">
        <ele>389.5</ele>
        <time>2019-08-17T16:42:53Z</time>
      </trkpt>
      <trkpt lat="42.4272650" lon="-8.0619480">
        <ele>389.4</ele>
        <time>2019-08-17T16:42:54Z</time>
      </trkpt>
      <trkpt lat="42.4273130" lon="-8.0620380">
        <ele>389.4</ele>
        <time>2019-08-17T16:42:55Z</time>
      </trkpt>
      <trkpt lat="42.4273620" lon="-8.0621250">
        <ele>389.3</ele>
        <time>2019-08-17T16:42:56Z</time>
      </trkpt>
      <trkpt lat="42.4274120" lon="-8.0622110">
        <ele>389.2</ele>
        <time>2019-08-17T16:42:57Z</time>
      </trkpt>
      <trkpt lat="42.4274640" lon="-8.0622960">
        <ele>389.2</ele>
        <time>2019-08-17T16:42:58Z</time>
      </trkpt>
      <trkpt lat="42.4275160" lon="-8.0623810">
        <ele>389.1</ele>
        <time>2019-08-17T16:42:59Z</time>
      </trkpt>
      <trkpt lat="42.4275700" lon="-8.0624650">
        <ele>389.0</ele>
        <time>2019-08-17T16:43:00Z</time>
      </trkpt>
      <trkpt lat="42.4276260" lon="-8.0625490">
        <ele>388.9</ele>
        <time>2019-08-17T16:43:01Z</time>
      </trkpt>
      <trkpt lat="42.4276830" lon="-8.0626320">
        <ele>388.8</ele>
        <time>2019-08-17T16:43:02Z</time>
      </trkpt>
      <trkpt lat="42.4277430" lon="-8.0627120">
        <ele>388.7</ele>
        <time>2019-08-17T16:43:03Z</time>
      </trkpt>
      <trkpt lat="42.4278060" lon="-8.0627860">
        <ele>388.8</ele>
        <time>2019-08-17T16:43:04Z</time>
      </trkpt>
      <trkpt lat="42.4278740" lon="-8.0628500">
        <ele>388.8</ele>
        <time>2019-08-17T16:43:05Z</time>
      </trkpt>
      <trkpt lat="42.4279440" lon="-8.0628900">
        <ele>389.1</ele>
        <time>2019-08-17T16:43:06Z</time>
      </trkpt>
      <trkpt lat="42.4280150" lon="-8.0628970">
        <ele>389.4</ele>
        <time>2019-08-17T16:43:07Z</time>
      </trkpt>
      <trkpt lat="42.4280850" lon="-8.0628990">
        <ele>389.5</ele>
        <time>2019-08-17T16:43:08Z</time>
      </trkpt>
      <trkpt lat="42.4281520" lon="-8.0629050">
        <ele>389.4</ele>
        <time>2019-08-17T16:43:09Z</time>
      </trkpt>
      <trkpt lat="42.4282140" lon="-8.0629200">
        <ele>389.4</ele>
        <time>2019-08-17T16:43:10Z</time>
      </trkpt>
      <trkpt lat="42.4282710" lon="-8.0629480">
        <ele>389.5</ele>
        <time>2019-08-17T16:43:11Z</time>
      </trkpt>
      <trkpt lat="42.4283220" lon="-8.0629910">
        <ele>389.5</ele>
        <time>2019-08-17T16:43:12Z</time>
      </trkpt>
      <trkpt lat="42.4283640" lon="-8.0630460">
        <ele>389.6</ele>
        <time>2019-08-17T16:43:13Z</time>
      </trkpt>
      <trkpt lat="42.4283960" lon="-8.0631110">
        <ele>389.8</ele>
        <time>2019-08-17T16:43:14Z</time>
      </trkpt>
      <trkpt lat="42.4284170" lon="-8.0631800">
        <ele>389.7</ele>
        <time>2019-08-17T16:43:15Z</time>
      </trkpt>
      <trkpt lat="42.4284280" lon="-8.0632520">
        <ele>389.5</ele>
        <time>2019-08-17T16:43:16Z</time>
      </trkpt>
      <trkpt lat="42.4284270" lon="-8.0633250">
        <ele>389.4</ele>
        <time>2019-08-17T16:43:17Z</time>
      </trkpt>
      <trkpt lat="42.4284170" lon="-8.0633940">
        <ele>389.3</ele>
        <time>2019-08-17T16:43:18Z</time>
      </trkpt>
      <trkpt lat="42.4283970" lon="-8.0634600">
        <ele>389.2</ele>
        <time>2019-08-17T16:43:19Z</time>
      </trkpt>
      <trkpt lat="42.4283690" lon="-8.0635200">
        <ele>389.1</ele>
        <time>2019-08-17T16:43:20Z</time>
      </trkpt>
      <trkpt lat="42.4283350" lon="-8.0635760">
        <ele>389.0</ele>
        <time>2019-08-17T16:43:21Z</time>
      </trkpt>
      <trkpt lat="42.4282970" lon="-8.0636280">
        <ele>388.8</ele>
        <time>2019-08-17T16:43:22Z</time>
      </trkpt>
      <trkpt lat="42.4282580" lon="-8.0636770">
        <ele>388.7</ele>
        <time>2019-08-17T16:43:23Z</time>
      </trkpt>
      <trkpt lat="42.4282180" lon="-8.0637250">
        <ele>388.6</ele>
        <time>2019-08-17T16:43:24Z</time>
      </trkpt>
      <trkpt lat="42.4281880" lon="-8.0637770">
        <ele>388.6</ele>
        <time>2019-08-17T16:43:25Z</time>
      </trkpt>
      <trkpt lat="42.4281720" lon="-8.0638370">
        <ele>388.5</ele>
        <time>2019-08-17T16:43:26Z</time>
      </trkpt>
      <trkpt lat="42.4281720" lon="-8.0639080">
        <ele>388.5</ele>
        <time>2019-08-17T16:43:27Z</time>
      </trkpt>
      <trkpt lat="42.4281860" lon="-8.0639850">
        <ele>388.4</ele>
        <time>2019-08-17T16:43:28Z</time>
      </trkpt>
      <trkpt lat="42.4282180" lon="-8.0641050">
        <ele>388.3</ele>
        <time>2019-08-17T16:43:29Z</time>
      </trkpt>
      <trkpt lat="42.4282290" lon="-8.0641440">
        <ele>388.3</ele>
        <time>2019-08-17T16:43:30Z</time>
      </trkpt>
      <trkpt lat="42.4282520" lon="-8.0642200">
        <ele>388.2</ele>
        <time>2019-08-17T16:43:31Z</time>
      </trkpt>
      <trkpt lat="42.4282760" lon="-8.0642940">
        <ele>388.1</ele>
        <time>2019-08-17T16:43:32Z</time>
      </trkpt>
      <trkpt lat="42.4283000" lon="-8.0643670">
        <ele>388.0</ele>
        <time>2019-08-17T16:43:33Z</time>
      </trkpt>
      <trkpt lat="42.4283250" lon="-8.0644400">
        <ele>387.9</ele>
        <time>2019-08-17T16:43:34Z</time>
      </trkpt>
      <trkpt lat="42.4283500" lon="-8.0645110">
        <ele>387.9</ele>
        <time>2019-08-17T16:43:35Z</time>
      </trkpt>
      <trkpt lat="42.4283760" lon="-8.0645830">
        <ele>387.9</ele>
        <time>2019-08-17T16:43:36Z</time>
      </trkpt>
      <trkpt lat="42.4284200" lon="-8.0647040">
        <ele>387.9</ele>
        <time>2019-08-17T16:43:37Z</time>
      </trkpt>
      <trkpt lat="42.4284370" lon="-8.0647520">
        <ele>387.9</ele>
        <time>2019-08-17T16:43:38Z</time>
      </trkpt>
      <trkpt lat="42.4284550" lon="-8.0648010">
        <ele>387.9</ele>
        <time>2019-08-17T16:43:39Z</time>
      </trkpt>
      <trkpt lat="42.4284820" lon="-8.0648750">
        <ele>387.9</ele>
        <time>2019-08-17T16:43:40Z</time>
      </trkpt>
      <trkpt lat="42.4285090" lon="-8.0649500">
        <ele>387.9</ele>
        <time>2019-08-17T16:43:41Z</time>
      </trkpt>
      <trkpt lat="42.4285540" lon="-8.0650740">
        <ele>387.8</ele>
        <time>2019-08-17T16:43:42Z</time>
      </trkpt>
      <trkpt lat="42.4285730" lon="-8.0651240">
        <ele>387.8</ele>
        <time>2019-08-17T16:43:43Z</time>
      </trkpt>
      <trkpt lat="42.4285910" lon="-8.0651740">
        <ele>387.8</ele>
        <time>2019-08-17T16:43:44Z</time>
      </trkpt>
      <trkpt lat="42.4286180" lon="-8.0652490">
        <ele>387.8</ele>
        <time>2019-08-17T16:43:45Z</time>
      </trkpt>
      <trkpt lat="42.4286450" lon="-8.0653240">
        <ele>387.8</ele>
        <time>2019-08-17T16:43:46Z</time>
      </trkpt>
      <trkpt lat="42.4286730" lon="-8.0653990">
        <ele>387.8</ele>
        <time>2019-08-17T16:43:47Z</time>
      </trkpt>
      <trkpt lat="42.4287010" lon="-8.0654740">
        <ele>387.8</ele>
        <time>2019-08-17T16:43:48Z</time>
      </trkpt>
      <trkpt lat="42.4287290" lon="-8.0655500">
        <ele>387.8</ele>
        <time>2019-08-17T16:43:49Z</time>
      </trkpt>
      <trkpt lat="42.4287580" lon="-8.0656270">
        <ele>387.9</ele>
        <time>2019-08-17T16:43:50Z</time>
      </trkpt>
      <trkpt lat="42.4288080" lon="-8.0657560">
        <ele>387.9</ele>
        <time>2019-08-17T16:43:51Z</time>
      </trkpt>
      <trkpt lat="42.4288280" lon="-8.0658080">
        <ele>387.9</ele>
        <time>2019-08-17T16:43:52Z</time>
      </trkpt>
      <trkpt lat="42.4288490" lon="-8.0658600">
        <ele>387.9</ele>
        <time>2019-08-17T16:43:53Z</time>
      </trkpt>
      <trkpt lat="42.4288800" lon="-8.0659380">
        <ele>387.9</ele>
        <time>2019-08-17T16:43:54Z</time>
      </trkpt>
      <trkpt lat="42.4289120" lon="-8.0660160">
        <ele>387.9</ele>
        <time>2019-08-17T16:43:55Z</time>
      </trkpt>
      <trkpt lat="42.4289610" lon="-8.0661420">
        <ele>387.9</ele>
        <time>2019-08-17T16:43:56Z</time>
      </trkpt>
      <trkpt lat="42.4289800" lon="-8.0661910">
        <ele>387.9</ele>
        <time>2019-08-17T16:43:57Z</time>
      </trkpt>
      <trkpt lat="42.4289990" lon="-8.0662400">
        <ele>387.9</ele>
        <time>2019-08-17T16:43:58Z</time>
      </trkpt>
      <trkpt lat="42.4290260" lon="-8.0663120">
        <ele>387.9</ele>
        <time>2019-08-17T16:43:59Z</time>
      </trkpt>
      <trkpt lat="42.4290530" lon="-8.0663840">
        <ele>387.9</ele>
        <time>2019-08-17T16:44:00Z</time>
      </trkpt>
      <trkpt lat="42.4290800" lon="-8.0664560">
        <ele>387.9</ele>
        <time>2019-08-17T16:44:01Z</time>
      </trkpt>
      <trkpt lat="42.4291070" lon="-8.0665280">
        <ele>388.0</ele>
        <time>2019-08-17T16:44:02Z</time>
      </trkpt>
      <trkpt lat="42.4291330" lon="-8.0666000">
        <ele>388.0</ele>
        <time>2019-08-17T16:44:03Z</time>
      </trkpt>
      <trkpt lat="42.4291600" lon="-8.0666720">
        <ele>388.0</ele>
        <time>2019-08-17T16:44:04Z</time>
      </trkpt>
      <trkpt lat="42.4291870" lon="-8.0667450">
        <ele>388.0</ele>
        <time>2019-08-17T16:44:05Z</time>
      </trkpt>
      <trkpt lat="42.4292140" lon="-8.0668180">
        <ele>388.0</ele>
        <time>2019-08-17T16:44:06Z</time>
      </trkpt>
      <trkpt lat="42.4292410" lon="-8.0668920">
        <ele>388.0</ele>
        <time>2019-08-17T16:44:07Z</time>
      </trkpt>
      <trkpt lat="42.4292680" lon="-8.0669650">
        <ele>388.0</ele>
        <time>2019-08-17T16:44:08Z</time>
      </trkpt>
      <trkpt lat="42.4292950" lon="-8.0670390">
        <ele>388.0</ele>
        <time>2019-08-17T16:44:09Z</time>
      </trkpt>
      <trkpt lat="42.4293220" lon="-8.0671130">
        <ele>388.0</ele>
        <time>2019-08-17T16:44:10Z</time>
      </trkpt>
      <trkpt lat="42.4293500" lon="-8.0671860">
        <ele>388.1</ele>
        <time>2019-08-17T16:44:11Z</time>
      </trkpt>
      <trkpt lat="42.4293770" lon="-8.0672580">
        <ele>388.1</ele>
        <time>2019-08-17T16:44:12Z</time>
      </trkpt>
      <trkpt lat="42.4294050" lon="-8.0673290">
        <ele>388.1</ele>
        <time>2019-08-17T16:44:13Z</time>
      </trkpt>
      <trkpt lat="42.4294330" lon="-8.0674000">
        <ele>388.2</ele>
        <time>2019-08-17T16:44:14Z</time>
      </trkpt>
      <trkpt lat="42.4294600" lon="-8.0674690">
        <ele>388.2</ele>
        <time>2019-08-17T16:44:15Z</time>
      </trkpt>
      <trkpt lat="42.4294870" lon="-8.0675380">
        <ele>388.3</ele>
        <time>2019-08-17T16:44:16Z</time>
      </trkpt>
      <trkpt lat="42.4295130" lon="-8.0676060">
        <ele>388.3</ele>
        <time>2019-08-17T16:44:17Z</time>
      </trkpt>
      <trkpt lat="42.4295370" lon="-8.0676740">
        <ele>388.4</ele>
        <time>2019-08-17T16:44:18Z</time>
      </trkpt>
      <trkpt lat="42.4295600" lon="-8.0677420">
        <ele>388.4</ele>
        <time>2019-08-17T16:44:19Z</time>
      </trkpt>
      <trkpt lat="42.4295810" lon="-8.0678100">
        <ele>388.5</ele>
        <time>2019-08-17T16:44:20Z</time>
      </trkpt>
      <trkpt lat="42.4296000" lon="-8.0678790">
        <ele>388.5</ele>
        <time>2019-08-17T16:44:21Z</time>
      </trkpt>
      <trkpt lat="42.4296160" lon="-8.0679480">
        <ele>388.6</ele>
        <time>2019-08-17T16:44:22Z</time>
      </trkpt>
      <trkpt lat="42.4296290" lon="-8.0680170">
        <ele>388.7</ele>
        <time>2019-08-17T16:44:23Z</time>
      </trkpt>
      <trkpt lat="42.4296390" lon="-8.0680870">
        <ele>388.8</ele>
        <time>2019-08-17T16:44:24Z</time>
      </trkpt>
      <trkpt lat="42.4296480" lon="-8.0681560">
        <ele>388.9</ele>
        <time>2019-08-17T16:44:25Z</time>
      </trkpt>
      <trkpt lat="42.4296530" lon="-8.0682250">
        <ele>389.0</ele>
        <time>2019-08-17T16:44:26Z</time>
      </trkpt>
      <trkpt lat="42.4296570" lon="-8.0682930">
        <ele>389.1</ele>
        <time>2019-08-17T16:44:27Z</time>
      </trkpt>
      <trkpt lat="42.4296580" lon="-8.0683610">
        <ele>389.2</ele>
        <time>2019-08-17T16:44:28Z</time>
      </trkpt>
      <trkpt lat="42.4296570" lon="-8.0684270">
        <ele>389.3</ele>
        <time>2019-08-17T16:44:29Z</time>
      </trkpt>
      <trkpt lat="42.4296540" lon="-8.0684920">
        <ele>389.3</ele>
        <time>2019-08-17T16:44:30Z</time>
      </trkpt>
      <trkpt lat="42.4296520" lon="-8.0685560">
        <ele>389.3</ele>
        <time>2019-08-17T16:44:31Z</time>
      </trkpt>
      <trkpt lat="42.4296490" lon="-8.0686190">
        <ele>389.4</ele>
        <time>2019-08-17T16:44:32Z</time>
      </trkpt>
      <trkpt lat="42.4296490" lon="-8.0686820">
        <ele>389.4</ele>
        <time>2019-08-17T16:44:33Z</time>
      </trkpt>
      <trkpt lat="42.4296500" lon="-8.0687450">
        <ele>389.4</ele>
        <time>2019-08-17T16:44:34Z</time>
      </trkpt>
      <trkpt lat="42.4296550" lon="-8.0688070">
        <ele>389.4</ele>
        <time>2019-08-17T16:44:35Z</time>
      </trkpt>
      <trkpt lat="42.4296630" lon="-8.0688690">
        <ele>389.4</ele>
        <time>2019-08-17T16:44:36Z</time>
      </trkpt>
      <trkpt lat="42.4296680" lon="-8.0689300">
        <ele>389.4</ele>
        <time>2019-08-17T16:44:37Z</time>
      </trkpt>
      <trkpt lat="42.4296650" lon="-8.0689890">
        <ele>389.4</ele>
        <time>2019-08-17T16:44:38Z</time>
      </trkpt>
      <trkpt lat="42.4296590" lon="-8.0690480">
        <ele>389.4</ele>
        <time>2019-08-17T16:44:39Z</time>
      </trkpt>
      <trkpt lat="42.4296550" lon="-8.0691060">
        <ele>389.4</ele>
        <time>2019-08-17T16:44:40Z</time>
      </trkpt>
      <trkpt lat="42.4296540" lon="-8.0691640">
        <ele>389.3</ele>
        <time>2019-08-17T16:44:41Z</time>
      </trkpt>
      <trkpt lat="42.4296550" lon="-8.0692220">
        <ele>389.3</ele>
        <time>2019-08-17T16:44:42Z</time>
      </trkpt>
      <trkpt lat="42.4296560" lon="-8.0692800">
        <ele>389.3</ele>
        <time>2019-08-17T16:44:43Z</time>
      </trkpt>
      <trkpt lat="42.4296590" lon="-8.0693370">
        <ele>389.4</ele>
        <time>2019-08-17T16:44:44Z</time>
      </trkpt>
      <trkpt lat="42.4296620" lon="-8.0693930">
        <ele>389.4</ele>
        <time>2019-08-17T16:44:45Z</time>
      </trkpt>
      <trkpt lat="42.4296650" lon="-8.0694490">
        <ele>389.5</ele>
        <time>2019-08-17T16:44:46Z</time>
      </trkpt>
      <trkpt lat="42.4296680" lon="-8.0695050">
        <ele>389.6</ele>
        <time>2019-08-17T16:44:47Z</time>
      </trkpt>
      <trkpt lat="42.4296700" lon="-8.0695610">
        <ele>389.7</ele>
        <time>2019-08-17T16:44:48Z</time>
      </trkpt>
      <trkpt lat="42.4296710" lon="-8.0696170">
        <ele>389.8</ele>
        <time>2019-08-17T16:44:49Z</time>
      </trkpt>
      <trkpt lat="42.4296710" lon="-8.0696720">
        <ele>389.9</ele>
        <time>2019-08-17T16:44:50Z</time>
      </trkpt>
      <trkpt lat="42.4296690" lon="-8.0697270">
        <ele>390.0</ele>
        <time>2019-08-17T16:44:51Z</time>
      </trkpt>
      <trkpt lat="42.4296670" lon="-8.0697830">
        <ele>390.2</ele>
        <time>2019-08-17T16:44:52Z</time>
      </trkpt>
      <trkpt lat="42.4296640" lon="-8.0698390">
        <ele>390.3</ele>
        <time>2019-08-17T16:44:53Z</time>
      </trkpt>
      <trkpt lat="42.4296600" lon="-8.0698950">
        <ele>390.5</ele>
        <time>2019-08-17T16:44:54Z</time>
      </trkpt>
      <trkpt lat="42.4296580" lon="-8.0699520">
        <ele>390.6</ele>
        <time>2019-08-17T16:44:55Z</time>
      </trkpt>
      <trkpt lat="42.4296560" lon="-8.0700090">
        <ele>390.8</ele>
        <time>2019-08-17T16:44:56Z</time>
      </trkpt>
      <trkpt lat="42.4296560" lon="-8.0700680">
        <ele>390.8</ele>
        <time>2019-08-17T16:44:57Z</time>
      </trkpt>
      <trkpt lat="42.4296580" lon="-8.0701280">
        <ele>390.7</ele>
        <time>2019-08-17T16:44:58Z</time>
      </trkpt>
      <trkpt lat="42.4296620" lon="-8.0701890">
        <ele>390.7</ele>
        <time>2019-08-17T16:44:59Z</time>
      </trkpt>
      <trkpt lat="42.4296660" lon="-8.0702520">
        <ele>390.7</ele>
        <time>2019-08-17T16:45:00Z</time>
      </trkpt>
      <trkpt lat="42.4296690" lon="-8.0703170">
        <ele>390.7</ele>
        <time>2019-08-17T16:45:01Z</time>
      </trkpt>
      <trkpt lat="42.4296710" lon="-8.0703850">
        <ele>390.6</ele>
        <time>2019-08-17T16:45:02Z</time>
      </trkpt>
      <trkpt lat="42.4296720" lon="-8.0704530">
        <ele>390.6</ele>
        <time>2019-08-17T16:45:03Z</time>
      </trkpt>
      <trkpt lat="42.4296750" lon="-8.0705210">
        <ele>390.6</ele>
        <time>2019-08-17T16:45:04Z</time>
      </trkpt>
      <trkpt lat="42.4296800" lon="-8.0705880">
        <ele>390.5</ele>
        <time>2019-08-17T16:45:05Z</time>
      </trkpt>
      <trkpt lat="42.4296870" lon="-8.0706530">
        <ele>390.5</ele>
        <time>2019-08-17T16:45:06Z</time>
      </trkpt>
      <trkpt lat="42.4296950" lon="-8.0707160">
        <ele>390.5</ele>
        <time>2019-08-17T16:45:07Z</time>
      </trkpt>
      <trkpt lat="42.4297040" lon="-8.0707780">
        <ele>390.5</ele>
        <time>2019-08-17T16:45:08Z</time>
      </trkpt>
      <trkpt lat="42.4297140" lon="-8.0708370">
        <ele>390.5</ele>
        <time>2019-08-17T16:45:09Z</time>
      </trkpt>
      <trkpt lat="42.4297230" lon="-8.0708960">
        <ele>390.4</ele>
        <time>2019-08-17T16:45:10Z</time>
      </trkpt>
      <trkpt lat="42.4297330" lon="-8.0709550">
        <ele>390.4</ele>
        <time>2019-08-17T16:45:11Z</time>
      </trkpt>
      <trkpt lat="42.4297430" lon="-8.0710150">
        <ele>390.4</ele>
        <time>2019-08-17T16:45:12Z</time>
      </trkpt>
      <trkpt lat="42.4297540" lon="-8.0710760">
        <ele>390.6</ele>
        <time>2019-08-17T16:45:13Z</time>
      </trkpt>
      <trkpt lat="42.4297660" lon="-8.0711390">
        <ele>390.8</ele>
        <time>2019-08-17T16:45:14Z</time>
      </trkpt>
      <trkpt lat="42.4297770" lon="-8.0712020">
        <ele>390.9</ele>
        <time>2019-08-17T16:45:15Z</time>
      </trkpt>
      <trkpt lat="42.4297890" lon="-8.0712650">
        <ele>391.0</ele>
        <time>2019-08-17T16:45:16Z</time>
      </trkpt>
      <trkpt lat="42.4298020" lon="-8.0713290">
        <ele>391.2</ele>
        <time>2019-08-17T16:45:17Z</time>
      </trkpt>
      <trkpt lat="42.4298140" lon="-8.0713930">
        <ele>391.3</ele>
        <time>2019-08-17T16:45:18Z</time>
      </trkpt>
      <trkpt lat="42.4298270" lon="-8.0714560">
        <ele>391.5</ele>
        <time>2019-08-17T16:45:19Z</time>
      </trkpt>
      <trkpt lat="42.4298400" lon="-8.0715180">
        <ele>391.6</ele>
        <time>2019-08-17T16:45:20Z</time>
      </trkpt>
      <trkpt lat="42.4298540" lon="-8.0715790">
        <ele>391.8</ele>
        <time>2019-08-17T16:45:21Z</time>
      </trkpt>
      <trkpt lat="42.4298670" lon="-8.0716400">
        <ele>391.9</ele>
        <time>2019-08-17T16:45:22Z</time>
      </trkpt>
      <trkpt lat="42.4298800" lon="-8.0717000">
        <ele>392.1</ele>
        <time>2019-08-17T16:45:23Z</time>
      </trkpt>
      <trkpt lat="42.4298930" lon="-8.0717580">
        <ele>392.2</ele>
        <time>2019-08-17T16:45:24Z</time>
      </trkpt>
      <trkpt lat="42.4299060" lon="-8.0718160">
        <ele>392.4</ele>
        <time>2019-08-17T16:45:25Z</time>
      </trkpt>
      <trkpt lat="42.4299190" lon="-8.0718720">
        <ele>392.6</ele>
        <time>2019-08-17T16:45:26Z</time>
      </trkpt>
      <trkpt lat="42.4299310" lon="-8.0719260">
        <ele>392.7</ele>
        <time>2019-08-17T16:45:27Z</time>
      </trkpt>
      <trkpt lat="42.4299440" lon="-8.0719800">
        <ele>392.9</ele>
        <time>2019-08-17T16:45:28Z</time>
      </trkpt>
      <trkpt lat="42.4299570" lon="-8.0720320">
        <ele>393.1</ele>
        <time>2019-08-17T16:45:29Z</time>
      </trkpt>
      <trkpt lat="42.4299720" lon="-8.0720830">
        <ele>393.2</ele>
        <time>2019-08-17T16:45:30Z</time>
      </trkpt>
      <trkpt lat="42.4299880" lon="-8.0721340">
        <ele>393.4</ele>
        <time>2019-08-17T16:45:31Z</time>
      </trkpt>
      <trkpt lat="42.4300040" lon="-8.0721830">
        <ele>393.4</ele>
        <time>2019-08-17T16:45:32Z</time>
      </trkpt>
      <trkpt lat="42.4300190" lon="-8.0722330">
        <ele>393.5</ele>
        <time>2019-08-17T16:45:33Z</time>
      </trkpt>
      <trkpt lat="42.4300300" lon="-8.0722840">
        <ele>393.5</ele>
        <time>2019-08-17T16:45:34Z</time>
      </trkpt>
      <trkpt lat="42.4300360" lon="-8.0723350">
        <ele>393.5</ele>
        <time>2019-08-17T16:45:35Z</time>
      </trkpt>
      <trkpt lat="42.4300390" lon="-8.0723870">
        <ele>393.5</ele>
        <time>2019-08-17T16:45:36Z</time>
      </trkpt>
      <trkpt lat="42.4300400" lon="-8.0724370">
        <ele>393.5</ele>
        <time>2019-08-17T16:45:37Z</time>
      </trkpt>
      <trkpt lat="42.4300430" lon="-8.0724850">
        <ele>393.6</ele>
        <time>2019-08-17T16:45:38Z</time>
      </trkpt>
      <trkpt lat="42.4300480" lon="-8.0725300">
        <ele>393.6</ele>
        <time>2019-08-17T16:45:39Z</time>
      </trkpt>
      <trkpt lat="42.4300540" lon="-8.0725730">
        <ele>393.6</ele>
        <time>2019-08-17T16:45:40Z</time>
      </trkpt>
      <trkpt lat="42.4300620" lon="-8.0726150">
        <ele>393.6</ele>
        <time>2019-08-17T16:45:41Z</time>
      </trkpt>
      <trkpt lat="42.4300700" lon="-8.0726560">
        <ele>393.7</ele>
        <time>2019-08-17T16:45:42Z</time>
      </trkpt>
      <trkpt lat="42.4300770" lon="-8.0726960">
        <ele>393.7</ele>
        <time>2019-08-17T16:45:43Z</time>
      </trkpt>
      <trkpt lat="42.4300850" lon="-8.0727360">
        <ele>393.7</ele>
        <time>2019-08-17T16:45:44Z</time>
      </trkpt>
      <trkpt lat="42.4300930" lon="-8.0727760">
        <ele>393.8</ele>
        <time>2019-08-17T16:45:45Z</time>
      </trkpt>
      <trkpt lat="42.4301000" lon="-8.0728160">
        <ele>393.8</ele>
        <time>2019-08-17T16:45:46Z</time>
      </trkpt>
      <trkpt lat="42.4301080" lon="-8.0728550">
        <ele>393.8</ele>
        <time>2019-08-17T16:45:47Z</time>
      </trkpt>
      <trkpt lat="42.4301150" lon="-8.0728940">
        <ele>393.9</ele>
        <time>2019-08-17T16:45:48Z</time>
      </trkpt>
      <trkpt lat="42.4301220" lon="-8.0729330">
        <ele>393.9</ele>
        <time>2019-08-17T16:45:49Z</time>
      </trkpt>
      <trkpt lat="42.4301290" lon="-8.0729710">
        <ele>394.0</ele>
        <time>2019-08-17T16:45:50Z</time>
      </trkpt>
      <trkpt lat="42.4301360" lon="-8.0730100">
        <ele>394.1</ele>
        <time>2019-08-17T16:45:51Z</time>
      </trkpt>
      <trkpt lat="42.4301430" lon="-8.0730480">
        <ele>394.2</ele>
        <time>2019-08-17T16:45:52Z</time>
      </trkpt>
      <trkpt lat="42.4301510" lon="-8.0730850">
        <ele>394.2</ele>
        <time>2019-08-17T16:45:53Z</time>
      </trkpt>
      <trkpt lat="42.4301590" lon="-8.0731220">
        <ele>394.4</ele>
        <time>2019-08-17T16:45:54Z</time>
      </trkpt>
      <trkpt lat="42.4301690" lon="-8.0731590">
        <ele>394.5</ele>
        <time>2019-08-17T16:45:55Z</time>
      </trkpt>
      <trkpt lat="42.4301790" lon="-8.0731950">
        <ele>394.6</ele>
        <time>2019-08-17T16:45:56Z</time>
      </trkpt>
      <trkpt lat="42.4301900" lon="-8.0732300">
        <ele>394.7</ele>
        <time>2019-08-17T16:45:57Z</time>
      </trkpt>
      <trkpt lat="42.4302030" lon="-8.0732640">
        <ele>394.8</ele>
        <time>2019-08-17T16:45:58Z</time>
      </trkpt>
      <trkpt lat="42.4302160" lon="-8.0732990">
        <ele>395.0</ele>
        <time>2019-08-17T16:45:59Z</time>
      </trkpt>
      <trkpt lat="42.4302290" lon="-8.0733340">
        <ele>395.1</ele>
        <time>2019-08-17T16:46:00Z</time>
      </trkpt>
      <trkpt lat="42.4302420" lon="-8.0733680">
        <ele>395.3</ele>
        <time>2019-08-17T16:46:01Z</time>
      </trkpt>
      <trkpt lat="42.4302540" lon="-8.0734040">
        <ele>395.4</ele>
        <time>2019-08-17T16:46:02Z</time>
      </trkpt>
      <trkpt lat="42.4302650" lon="-8.0734400">
        <ele>395.6</ele>
        <time>2019-08-17T16:46:03Z</time>
      </trkpt>
      <trkpt lat="42.4302750" lon="-8.0734770">
        <ele>395.7</ele>
        <time>2019-08-17T16:46:04Z</time>
      </trkpt>
      <trkpt lat="42.4302830" lon="-8.0735150">
        <ele>395.9</ele>
        <time>2019-08-17T16:46:05Z</time>
      </trkpt>
      <trkpt lat="42.4302900" lon="-8.0735540">
        <ele>396.1</ele>
        <time>2019-08-17T16:46:06Z</time>
      </trkpt>
      <trkpt lat="42.4302960" lon="-8.0735930">
        <ele>396.2</ele>
        <time>2019-08-17T16:46:07Z</time>
      </trkpt>
      <trkpt lat="42.4303020" lon="-8.0736330">
        <ele>396.4</ele>
        <time>2019-08-17T16:46:08Z</time>
      </trkpt>
      <trkpt lat="42.4303060" lon="-8.0736720">
        <ele>396.6</ele>
        <time>2019-08-17T16:46:09Z</time>
      </trkpt>
      <trkpt lat="42.4303100" lon="-8.0737120">
        <ele>396.8</ele>
        <time>2019-08-17T16:46:10Z</time>
      </trkpt>
      <trkpt lat="42.4303140" lon="-8.0737510">
        <ele>397.0</ele>
        <time>2019-08-17T16:46:11Z</time>
      </trkpt>
      <trkpt lat="42.4303170" lon="-8.0737900">
        <ele>397.1</ele>
        <time>2019-08-17T16:46:12Z</time>
      </trkpt>
      <trkpt lat="42.4303200" lon="-8.0738280">
        <ele>397.6</ele>
        <time>2019-08-17T16:46:13Z</time>
      </trkpt>
      <trkpt lat="42.4303240" lon="-8.0738660">
        <ele>397.8</ele>
        <time>2019-08-17T16:46:14Z</time>
      </trkpt>
      <trkpt lat="42.4303280" lon="-8.0739040">
        <ele>398.0</ele>
        <time>2019-08-17T16:46:15Z</time>
      </trkpt>
      <trkpt lat="42.4303320" lon="-8.0739410">
        <ele>398.2</ele>
        <time>2019-08-17T16:46:16Z</time>
      </trkpt>
      <trkpt lat="42.4303370" lon="-8.0739770">
        <ele>398.3</ele>
        <time>2019-08-17T16:46:17Z</time>
      </trkpt>
      <trkpt lat="42.4303430" lon="-8.0740130">
        <ele>398.5</ele>
        <time>2019-08-17T16:46:18Z</time>
      </trkpt>
      <trkpt lat="42.4303510" lon="-8.0740490">
        <ele>398.6</ele>
        <time>2019-08-17T16:46:19Z</time>
      </trkpt>
      <trkpt lat="42.4303600" lon="-8.0740820">
        <ele>398.8</ele>
        <time>2019-08-17T16:46:20Z</time>
      </trkpt>
      <trkpt lat="42.4303710" lon="-8.0741140">
        <ele>399.0</ele>
        <time>2019-08-17T16:46:21Z</time>
      </trkpt>
      <trkpt lat="42.4303860" lon="-8.0741430">
        <ele>399.2</ele>
        <time>2019-08-17T16:46:22Z</time>
      </trkpt>
      <trkpt lat="42.4304030" lon="-8.0741690">
        <ele>399.4</ele>
        <time>2019-08-17T16:46:23Z</time>
      </trkpt>
      <trkpt lat="42.4304210" lon="-8.0741930">
        <ele>399.5</ele>
        <time>2019-08-17T16:46:24Z</time>
      </trkpt>
      <trkpt lat="42.4304380" lon="-8.0742190">
        <ele>399.7</ele>
        <time>2019-08-17T16:46:25Z</time>
      </trkpt>
      <trkpt lat="42.4304510" lon="-8.0742480">
        <ele>399.8</ele>
        <time>2019-08-17T16:46:26Z</time>
      </trkpt>
      <trkpt lat="42.4304620" lon="-8.0742800">
        <ele>400.0</ele>
        <time>2019-08-17T16:46:27Z</time>
      </trkpt>
      <trkpt lat="42.4304690" lon="-8.0743150">
        <ele>400.2</ele>
        <time>2019-08-17T16:46:28Z</time>
      </trkpt>
      <trkpt lat="42.4304740" lon="-8.0743520">
        <ele>400.4</ele>
        <time>2019-08-17T16:46:29Z</time>
      </trkpt>
      <trkpt lat="42.4304780" lon="-8.0743900">
        <ele>400.5</ele>
        <time>2019-08-17T16:46:30Z</time>
      </trkpt>
      <trkpt lat="42.4304800" lon="-8.0744290">
        <ele>400.7</ele>
        <time>2019-08-17T16:46:31Z</time>
      </trkpt>
      <trkpt lat="42.4304820" lon="-8.0744680">
        <ele>400.8</ele>
        <time>2019-08-17T16:46:32Z</time>
      </trkpt>
      <trkpt lat="42.4304840" lon="-8.0745060">
        <ele>401.1</ele>
        <time>2019-08-17T16:46:33Z</time>
      </trkpt>
      <trkpt lat="42.4304870" lon="-8.0745430">
        <ele>401.3</ele>
        <time>2019-08-17T16:46:34Z</time>
      </trkpt>
      <trkpt lat="42.4304910" lon="-8.0745800">
        <ele>401.5</ele>
        <time>2019-08-17T16:46:35Z</time>
      </trkpt>
      <trkpt lat="42.4304950" lon="-8.0746160">
        <ele>401.8</ele>
        <time>2019-08-17T16:46:36Z</time>
      </trkpt>
      <trkpt lat="42.4305010" lon="-8.0746520">
        <ele>402.0</ele>
        <time>2019-08-17T16:46:37Z</time>
      </trkpt>
      <trkpt lat="42.4305080" lon="-8.0746870">
        <ele>402.3</ele>
        <time>2019-08-17T16:46:38Z</time>
      </trkpt>
      <trkpt lat="42.4305180" lon="-8.0747220">
        <ele>402.6</ele>
        <time>2019-08-17T16:46:39Z</time>
      </trkpt>
      <trkpt lat="42.4305290" lon="-8.0747570">
        <ele>402.8</ele>
        <time>2019-08-17T16:46:40Z</time>
      </trkpt>
      <trkpt lat="42.4305390" lon="-8.0747910">
        <ele>402.9</ele>
        <time>2019-08-17T16:46:41Z</time>
      </trkpt>
      <trkpt lat="42.4305480" lon="-8.0748230">
        <ele>403.0</ele>
        <time>2019-08-17T16:46:42Z</time>
      </trkpt>
      <trkpt lat="42.4305510" lon="-8.0748520">
        <ele>403.1</ele>
        <time>2019-08-17T16:46:43Z</time>
      </trkpt>
      <trkpt lat="42.4305490" lon="-8.0748800">
        <ele>403.2</ele>
        <time>2019-08-17T16:46:44Z</time>
      </trkpt>
      <trkpt lat="42.4305450" lon="-8.0749080">
        <ele>403.2</ele>
        <time>2019-08-17T16:46:45Z</time>
      </trkpt>
      <trkpt lat="42.4305440" lon="-8.0749410">
        <ele>403.3</ele>
        <time>2019-08-17T16:46:46Z</time>
      </trkpt>
      <trkpt lat="42.4305490" lon="-8.0749740">
        <ele>403.4</ele>
        <time>2019-08-17T16:46:47Z</time>
      </trkpt>
      <trkpt lat="42.4305590" lon="-8.0750050">
        <ele>403.5</ele>
        <time>2019-08-17T16:46:48Z</time>
      </trkpt>
      <trkpt lat="42.4305740" lon="-8.0750330">
        <ele>403.5</ele>
        <time>2019-08-17T16:46:49Z</time>
      </trkpt>
      <trkpt lat="42.4305890" lon="-8.0750620">
        <ele>403.6</ele>
        <time>2019-08-17T16:46:50Z</time>
      </trkpt>
      <trkpt lat="42.4306020" lon="-8.0750950">
        <ele>403.7</ele>
        <time>2019-08-17T16:46:51Z</time>
      </trkpt>
      <trkpt lat="42.4306120" lon="-8.0751330">
        <ele>403.8</ele>
        <time>2019-08-17T16:46:52Z</time>
      </trkpt>
      <trkpt lat="42.4306190" lon="-8.0751740">
        <ele>403.9</ele>
        <time>2019-08-17T16:46:53Z</time>
      </trkpt>
      <trkpt lat="42.4306250" lon="-8.0752150">
        <ele>404.0</ele>
        <time>2019-08-17T16:46:54Z</time>
      </trkpt>
      <trkpt lat="42.4306330" lon="-8.0752550">
        <ele>404.1</ele>
        <time>2019-08-17T16:46:55Z</time>
      </trkpt>
      <trkpt lat="42.4306410" lon="-8.0752910">
        <ele>404.3</ele>
        <time>2019-08-17T16:46:56Z</time>
      </trkpt>
      <trkpt lat="42.4306490" lon="-8.0753260">
        <ele>404.5</ele>
        <time>2019-08-17T16:46:57Z</time>
      </trkpt>
      <trkpt lat="42.4306570" lon="-8.0753590">
        <ele>404.7</ele>
        <time>2019-08-17T16:46:58Z</time>
      </trkpt>
      <trkpt lat="42.4306630" lon="-8.0753900">
        <ele>404.9</ele>
        <time>2019-08-17T16:46:59Z</time>
      </trkpt>
      <trkpt lat="42.4306670" lon="-8.0754210">
        <ele>405.0</ele>
        <time>2019-08-17T16:47:00Z</time>
      </trkpt>
      <trkpt lat="42.4306710" lon="-8.0754510">
        <ele>405.2</ele>
        <time>2019-08-17T16:47:01Z</time>
      </trkpt>
      <trkpt lat="42.4306760" lon="-8.0754810">
        <ele>405.3</ele>
        <time>2019-08-17T16:47:02Z</time>
      </trkpt>
      <trkpt lat="42.4306800" lon="-8.0755110">
        <ele>405.5</ele>
        <time>2019-08-17T16:47:03Z</time>
      </trkpt>
      <trkpt lat="42.4306840" lon="-8.0755400">
        <ele>405.6</ele>
        <time>2019-08-17T16:47:04Z</time>
      </trkpt>
      <trkpt lat="42.4306890" lon="-8.0755670">
        <ele>405.7</ele>
        <time>2019-08-17T16:47:05Z</time>
      </trkpt>
      <trkpt lat="42.4306930" lon="-8.0755920">
        <ele>405.9</ele>
        <time>2019-08-17T16:47:06Z</time>
      </trkpt>
      <trkpt lat="42.4306980" lon="-8.0756180">
        <ele>406.0</ele>
        <time>2019-08-17T16:47:07Z</time>
      </trkpt>
      <trkpt lat="42.4307030" lon="-8.0756480">
        <ele>406.1</ele>
        <time>2019-08-17T16:47:08Z</time>
      </trkpt>
      <trkpt lat="42.4307100" lon="-8.0756820">
        <ele>406.2</ele>
        <time>2019-08-17T16:47:09Z</time>
      </trkpt>
      <trkpt lat="42.4307170" lon="-8.0757210">
        <ele>406.4</ele>
        <time>2019-08-17T16:47:10Z</time>
      </trkpt>
      <trkpt lat="42.4307240" lon="-8.0757630">
        <ele>406.6</ele>
        <time>2019-08-17T16:47:11Z</time>
      </trkpt>
      <trkpt lat="42.4307320" lon="-8.0758050">
        <ele>406.7</ele>
        <time>2019-08-17T16:47:12Z</time>
      </trkpt>
      <trkpt lat="42.4307400" lon="-8.0758460">
        <ele>406.9</ele>
        <time>2019-08-17T16:47:13Z</time>
      </trkpt>
      <trkpt lat="42.4307470" lon="-8.0758870">
        <ele>407.1</ele>
        <time>2019-08-17T16:47:14Z</time>
      </trkpt>
      <trkpt lat="42.4307540" lon="-8.0759280">
        <ele>407.2</ele>
        <time>2019-08-17T16:47:15Z</time>
      </trkpt>
      <trkpt lat="42.4307590" lon="-8.0759680">
        <ele>407.4</ele>
        <time>2019-08-17T16:47:16Z</time>
      </trkpt>
      <trkpt lat="42.4307640" lon="-8.0760100">
        <ele>407.6</ele>
        <time>2019-08-17T16:47:17Z</time>
      </trkpt>
      <trkpt lat="42.4307680" lon="-8.0760520">
        <ele>407.7</ele>
        <time>2019-08-17T16:47:18Z</time>
      </trkpt>
      <trkpt lat="42.4307740" lon="-8.0760930">
        <ele>407.9</ele>
        <time>2019-08-17T16:47:19Z</time>
      </trkpt>
      <trkpt lat="42.4307810" lon="-8.0761340">
        <ele>408.0</ele>
        <time>2019-08-17T16:47:20Z</time>
      </trkpt>
      <trkpt lat="42.4307910" lon="-8.0761750">
        <ele>408.1</ele>
        <time>2019-08-17T16:47:21Z</time>
      </trkpt>
      <trkpt lat="42.4308030" lon="-8.0762140">
        <ele>408.3</ele>
        <time>2019-08-17T16:47:22Z</time>
      </trkpt>
      <trkpt lat="42.4308160" lon="-8.0762540">
        <ele>408.5</ele>
        <time>2019-08-17T16:47:23Z</time>
      </trkpt>
      <trkpt lat="42.4308270" lon="-8.0762940">
        <ele>408.6</ele>
        <time>2019-08-17T16:47:24Z</time>
      </trkpt>
      <trkpt lat="42.4308380" lon="-8.0763350">
        <ele>408.8</ele>
        <time>2019-08-17T16:47:25Z</time>
      </trkpt>
      <trkpt lat="42.4308490" lon="-8.0763770">
        <ele>408.9</ele>
        <time>2019-08-17T16:47:26Z</time>
      </trkpt>
      <trkpt lat="42.4308590" lon="-8.0764180">
        <ele>409.1</ele>
        <time>2019-08-17T16:47:27Z</time>
      </trkpt>
      <trkpt lat="42.4308690" lon="-8.0764610">
        <ele>409.2</ele>
        <time>2019-08-17T16:47:28Z</time>
      </trkpt>
      <trkpt lat="42.4308790" lon="-8.0765030">
        <ele>409.4</ele>
        <time>2019-08-17T16:47:29Z</time>
      </trkpt>
      <trkpt lat="42.4308880" lon="-8.0765450">
        <ele>409.5</ele>
        <time>2019-08-17T16:47:30Z</time>
      </trkpt>
      <trkpt lat="42.4308980" lon="-8.0765870">
        <ele>409.7</ele>
        <time>2019-08-17T16:47:31Z</time>
      </trkpt>
      <trkpt lat="42.4309080" lon="-8.0766290">
        <ele>409.8</ele>
        <time>2019-08-17T16:47:32Z</time>
      </trkpt>
      <trkpt lat="42.4309180" lon="-8.0766710">
        <ele>410.0</ele>
        <time>2019-08-17T16:47:33Z</time>
      </trkpt>
      <trkpt lat="42.4309280" lon="-8.0767130">
        <ele>410.0</ele>
        <time>2019-08-17T16:47:34Z</time>
      </trkpt>
      <trkpt lat="42.4309380" lon="-8.0767540">
        <ele>410.1</ele>
        <time>2019-08-17T16:47:35Z</time>
      </trkpt>
      <trkpt lat="42.4309470" lon="-8.0767960">
        <ele>410.2</ele>
        <time>2019-08-17T16:47:36Z</time>
      </trkpt>
      <trkpt lat="42.4309560" lon="-8.0768380">
        <ele>410.2</ele>
        <time>2019-08-17T16:47:37Z</time>
      </trkpt>
      <trkpt lat="42.4309650" lon="-8.0768790">
        <ele>410.3</ele>
        <time>2019-08-17T16:47:38Z</time>
      </trkpt>
      <trkpt lat="42.4309740" lon="-8.0769210">
        <ele>410.3</ele>
        <time>2019-08-17T16:47:39Z</time>
      </trkpt>
      <trkpt lat="42.4309830" lon="-8.0769620">
        <ele>410.3</ele>
        <time>2019-08-17T16:47:40Z</time>
      </trkpt>
      <trkpt lat="42.4309910" lon="-8.0770030">
        <ele>410.3</ele>
        <time>2019-08-17T16:47:41Z</time>
      </trkpt>
      <trkpt lat="42.4310000" lon="-8.0770440">
        <ele>410.3</ele>
        <time>2019-08-17T16:47:42Z</time>
      </trkpt>
      <trkpt lat="42.4310080" lon="-8.0770850">
        <ele>410.3</ele>
        <time>2019-08-17T16:47:43Z</time>
      </trkpt>
      <trkpt lat="42.4310170" lon="-8.0771260">
        <ele>410.2</ele>
        <time>2019-08-17T16:47:44Z</time>
      </trkpt>
      <trkpt lat="42.4310260" lon="-8.0771660">
        <ele>410.2</ele>
        <time>2019-08-17T16:47:45Z</time>
      </trkpt>
      <trkpt lat="42.4310350" lon="-8.0772060">
        <ele>410.2</ele>
        <time>2019-08-17T16:47:46Z</time>
      </trkpt>
      <trkpt lat="42.4310450" lon="-8.0772450">
        <ele>410.2</ele>
        <time>2019-08-17T16:47:47Z</time>
      </trkpt>
      <trkpt lat="42.4310550" lon="-8.0772840">
        <ele>410.1</ele>
        <time>2019-08-17T16:47:48Z</time>
      </trkpt>
      <trkpt lat="42.4310670" lon="-8.0773230">
        <ele>410.1</ele>
        <time>2019-08-17T16:47:49Z</time>
      </trkpt>
      <trkpt lat="42.4310800" lon="-8.0773600">
        <ele>410.1</ele>
        <time>2019-08-17T16:47:50Z</time>
      </trkpt>
      <trkpt lat="42.4310950" lon="-8.0773980">
        <ele>410.1</ele>
        <time>2019-08-17T16:47:51Z</time>
      </trkpt>
      <trkpt lat="42.4311110" lon="-8.0774350">
        <ele>410.1</ele>
        <time>2019-08-17T16:47:52Z</time>
      </trkpt>
      <trkpt lat="42.4311300" lon="-8.0774720">
        <ele>410.0</ele>
        <time>2019-08-17T16:47:53Z</time>
      </trkpt>
      <trkpt lat="42.4311500" lon="-8.0775040">
        <ele>410.0</ele>
        <time>2019-08-17T16:47:54Z</time>
      </trkpt>
      <trkpt lat="42.4311710" lon="-8.0775290">
        <ele>410.0</ele>
        <time>2019-08-17T16:47:55Z</time>
      </trkpt>
      <trkpt lat="42.4311960" lon="-8.0775510">
        <ele>410.0</ele>
        <time>2019-08-17T16:47:56Z</time>
      </trkpt>
      <trkpt lat="42.4312260" lon="-8.0775760">
        <ele>410.1</ele>
        <time>2019-08-17T16:47:57Z</time>
      </trkpt>
      <trkpt lat="42.4312580" lon="-8.0776070">
        <ele>410.1</ele>
        <time>2019-08-17T16:47:58Z</time>
      </trkpt>
      <trkpt lat="42.4312860" lon="-8.0776420">
        <ele>410.2</ele>
        <time>2019-08-17T16:47:59Z</time>
      </trkpt>
      <trkpt lat="42.4313040" lon="-8.0776810">
        <ele>409.9</ele>
        <time>2019-08-17T16:48:00Z</time>
      </trkpt>
      <trkpt lat="42.4313150" lon="-8.0777250">
        <ele>409.9</ele>
        <time>2019-08-17T16:48:01Z</time>
      </trkpt>
      <trkpt lat="42.4313230" lon="-8.0777710">
        <ele>409.8</ele>
        <time>2019-08-17T16:48:02Z</time>
      </trkpt>
      <trkpt lat="42.4313300" lon="-8.0778190">
        <ele>409.6</ele>
        <time>2019-08-17T16:48:03Z</time>
      </trkpt>
      <trkpt lat="42.4313400" lon="-8.0778670">
        <ele>409.5</ele>
        <time>2019-08-17T16:48:04Z</time>
      </trkpt>
      <trkpt lat="42.4313510" lon="-8.0779150">
        <ele>409.3</ele>
        <time>2019-08-17T16:48:05Z</time>
      </trkpt>
      <trkpt lat="42.4313640" lon="-8.0779610">
        <ele>409.1</ele>
        <time>2019-08-17T16:48:06Z</time>
      </trkpt>
      <trkpt lat="42.4313760" lon="-8.0780020">
        <ele>409.0</ele>
        <time>2019-08-17T16:48:07Z</time>
      </trkpt>
      <trkpt lat="42.4313880" lon="-8.0780410">
        <ele>408.8</ele>
        <time>2019-08-17T16:48:08Z</time>
      </trkpt>
      <trkpt lat="42.4313990" lon="-8.0780770">
        <ele>408.7</ele>
        <time>2019-08-17T16:48:09Z</time>
      </trkpt>
      <trkpt lat="42.4314080" lon="-8.0781130">
        <ele>408.5</ele>
        <time>2019-08-17T16:48:10Z</time>
      </trkpt>
      <trkpt lat="42.4314150" lon="-8.0781480">
        <ele>408.4</ele>
        <time>2019-08-17T16:48:11Z</time>
      </trkpt>
      <trkpt lat="42.4314200" lon="-8.0781840">
        <ele>408.3</ele>
        <time>2019-08-17T16:48:12Z</time>
      </trkpt>
      <trkpt lat="42.4314230" lon="-8.0782230">
        <ele>408.1</ele>
        <time>2019-08-17T16:48:13Z</time>
      </trkpt>
      <trkpt lat="42.4314220" lon="-8.0782640">
        <ele>408.0</ele>
        <time>2019-08-17T16:48:14Z</time>
      </trkpt>
      <trkpt lat="42.4314180" lon="-8.0783090">
        <ele>407.7</ele>
        <time>2019-08-17T16:48:15Z</time>
      </trkpt>
      <trkpt lat="42.4314100" lon="-8.0783580">
        <ele>407.7</ele>
        <time>2019-08-17T16:48:16Z</time>
      </trkpt>
      <trkpt lat="42.4313980" lon="-8.0784070">
        <ele>407.7</ele>
        <time>2019-08-17T16:48:17Z</time>
      </trkpt>
      <trkpt lat="42.4313830" lon="-8.0784570">
        <ele>407.6</ele>
        <time>2019-08-17T16:48:18Z</time>
      </trkpt>
      <trkpt lat="42.4313650" lon="-8.0785050">
        <ele>407.6</ele>
        <time>2019-08-17T16:48:19Z</time>
      </trkpt>
      <trkpt lat="42.4313430" lon="-8.0785480">
        <ele>407.5</ele>
        <time>2019-08-17T16:48:20Z</time>
      </trkpt>
      <trkpt lat="42.4313200" lon="-8.0785910">
        <ele>407.4</ele>
        <time>2019-08-17T16:48:21Z</time>
      </trkpt>
      <trkpt lat="42.4312930" lon="-8.0786270">
        <ele>407.3</ele>
        <time>2019-08-17T16:48:22Z</time>
      </trkpt>
      <trkpt lat="42.4312640" lon="-8.0786590">
        <ele>407.3</ele>
        <time>2019-08-17T16:48:23Z</time>
      </trkpt>
      <trkpt lat="42.4312340" lon="-8.0786880">
        <ele>407.2</ele>
        <time>2019-08-17T16:48:24Z</time>
      </trkpt>
      <trkpt lat="42.4312060" lon="-8.0787170">
        <ele>407.1</ele>
        <time>2019-08-17T16:48:25Z</time>
      </trkpt>
      <trkpt lat="42.4311780" lon="-8.0787440">
        <ele>407.0</ele>
        <time>2019-08-17T16:48:26Z</time>
      </trkpt>
      <trkpt lat="42.4311500" lon="-8.0787700">
        <ele>406.9</ele>
        <time>2019-08-17T16:48:27Z</time>
      </trkpt>
      <trkpt lat="42.4311190" lon="-8.0787910">
        <ele>406.8</ele>
        <time>2019-08-17T16:48:28Z</time>
      </trkpt>
      <trkpt lat="42.4310810" lon="-8.0788070">
        <ele>406.7</ele>
        <time>2019-08-17T16:48:29Z</time>
      </trkpt>
      <trkpt lat="42.4310410" lon="-8.0788190">
        <ele>406.6</ele>
        <time>2019-08-17T16:48:30Z</time>
      </trkpt>
      <trkpt lat="42.4310000" lon="-8.0788300">
        <ele>406.5</ele>
        <time>2019-08-17T16:48:31Z</time>
      </trkpt>
      <trkpt lat="42.4309610" lon="-8.0788430">
        <ele>406.4</ele>
        <time>2019-08-17T16:48:32Z</time>
      </trkpt>
      <trkpt lat="42.4309270" lon="-8.0788600">
        <ele>406.3</ele>
        <time>2019-08-17T16:48:33Z</time>
      </trkpt>
      <trkpt lat="42.4308970" lon="-8.0788810">
        <ele>406.3</ele>
        <time>2019-08-17T16:48:34Z</time>
      </trkpt>
      <trkpt lat="42.4308680" lon="-8.0789060">
        <ele>406.3</ele>
        <time>2019-08-17T16:48:35Z</time>
      </trkpt>
      <trkpt lat="42.4308400" lon="-8.0789330">
        <ele>406.3</ele>
        <time>2019-08-17T16:48:36Z</time>
      </trkpt>
      <trkpt lat="42.4308110" lon="-8.0789610">
        <ele>406.3</ele>
        <time>2019-08-17T16:48:37Z</time>
      </trkpt>
      <trkpt lat="42.4307820" lon="-8.0789920">
        <ele>406.2</ele>
        <time>2019-08-17T16:48:38Z</time>
      </trkpt>
      <trkpt lat="42.4307520" lon="-8.0790240">
        <ele>406.1</ele>
        <time>2019-08-17T16:48:39Z</time>
      </trkpt>
      <trkpt lat="42.4307220" lon="-8.0790570">
        <ele>406.0</ele>
        <time>2019-08-17T16:48:40Z</time>
      </trkpt>
      <trkpt lat="42.4306910" lon="-8.0790900">
        <ele>405.9</ele>
        <time>2019-08-17T16:48:41Z</time>
      </trkpt>
      <trkpt lat="42.4306590" lon="-8.0791230">
        <ele>405.7</ele>
        <time>2019-08-17T16:48:42Z</time>
      </trkpt>
      <trkpt lat="42.4306260" lon="-8.0791560">
        <ele>405.5</ele>
        <time>2019-08-17T16:48:43Z</time>
      </trkpt>
      <trkpt lat="42.4305920" lon="-8.0791880">
        <ele>405.2</ele>
        <time>2019-08-17T16:48:44Z</time>
      </trkpt>
      <trkpt lat="42.4305580" lon="-8.0792190">
        <ele>404.9</ele>
        <time>2019-08-17T16:48:45Z</time>
      </trkpt>
      <trkpt lat="42.4305250" lon="-8.0792470">
        <ele>404.7</ele>
        <time>2019-08-17T16:48:46Z</time>
      </trkpt>
      <trkpt lat="42.4304940" lon="-8.0792730">
        <ele>404.4</ele>
        <time>2019-08-17T16:48:47Z</time>
      </trkpt>
      <trkpt lat="42.4304650" lon="-8.0792960">
        <ele>404.3</ele>
        <time>2019-08-17T16:48:48Z</time>
      </trkpt>
      <trkpt lat="42.4304370" lon="-8.0793180">
        <ele>404.1</ele>
        <time>2019-08-17T16:48:49Z</time>
      </trkpt>
      <trkpt lat="42.4303870" lon="-8.0793580">
        <ele>403.9</ele>
        <time>2019-08-17T16:48:50Z</time>
      </trkpt>
      <trkpt lat="42.4303660" lon="-8.0793760">
        <ele>403.8</ele>
        <time>2019-08-17T16:48:51Z</time>
      </trkpt>
      <trkpt lat="42.4303450" lon="-8.0793930">
        <ele>403.7</ele>
        <time>2019-08-17T16:48:52Z</time>
      </trkpt>
      <trkpt lat="42.4303150" lon="-8.0794190">
        <ele>403.5</ele>
        <time>2019-08-17T16:48:53Z</time>
      </trkpt>
      <trkpt lat="42.4302880" lon="-8.0794410">
        <ele>403.3</ele>
        <time>2019-08-17T16:48:54Z</time>
      </trkpt>
      <trkpt lat="42.4302650" lon="-8.0794590">
        <ele>403.2</ele>
        <time>2019-08-17T16:48:55Z</time>
      </trkpt>
      <trkpt lat="42.4302350" lon="-8.0794820">
        <ele>403.0</ele>
        <time>2019-08-17T16:48:56Z</time>
      </trkpt>
      <trkpt lat="42.4302250" lon="-8.0794900">
        <ele>403.0</ele>
        <time>2019-08-17T16:48:57Z</time>
      </trkpt>
      <trkpt lat="42.4302140" lon="-8.0794990">
        <ele>402.9</ele>
        <time>2019-08-17T16:48:58Z</time>
      </trkpt>
      <trkpt lat="42.4302030" lon="-8.0795070">
        <ele>402.8</ele>
        <time>2019-08-17T16:48:59Z</time>
      </trkpt>
      <trkpt lat="42.4301930" lon="-8.0795160">
        <ele>402.8</ele>
        <time>2019-08-17T16:49:00Z</time>
      </trkpt>
      <trkpt lat="42.4301820" lon="-8.0795240">
        <ele>402.7</ele>
        <time>2019-08-17T16:49:01Z</time>
      </trkpt>
      <trkpt lat="42.4301690" lon="-8.0795400">
        <ele>402.6</ele>
        <time>2019-08-17T16:49:02Z</time>
      </trkpt>
      <trkpt lat="42.4301530" lon="-8.0795620">
        <ele>402.4</ele>
        <time>2019-08-17T16:49:03Z</time>
      </trkpt>
      <trkpt lat="42.4301350" lon="-8.0795890">
        <ele>402.2</ele>
        <time>2019-08-17T16:49:04Z</time>
      </trkpt>
      <trkpt lat="42.4396980" lon="-8.0785940">
        <ele>380.2</ele>
        <time>2019-08-18T05:55:56Z</time>
      </trkpt>
      <trkpt lat="42.4397990" lon="-8.0785720">
        <ele>381.3</ele>
        <time>2019-08-18T05:55:57Z</time>
      </trkpt>
      <trkpt lat="42.4398430" lon="-8.0785660">
        <ele>381.8</ele>
        <time>2019-08-18T05:55:58Z</time>
      </trkpt>
      <trkpt lat="42.4398870" lon="-8.0785590">
        <ele>382.1</ele>
        <time>2019-08-18T05:55:59Z</time>
      </trkpt>
      <trkpt lat="42.4398890" lon="-8.0785600">
        <ele>382.1</ele>
        <time>2019-08-18T05:56:00Z</time>
      </trkpt>
      <trkpt lat="42.4398900" lon="-8.0785620">
        <ele>382.1</ele>
        <time>2019-08-18T05:56:01Z</time>
      </trkpt>
      <trkpt lat="42.4398920" lon="-8.0785630">
        <ele>382.2</ele>
        <time>2019-08-18T05:56:02Z</time>
      </trkpt>
      <trkpt lat="42.4398930" lon="-8.0785650">
        <ele>382.2</ele>
        <time>2019-08-18T05:56:03Z</time>
      </trkpt>
      <trkpt lat="42.4398950" lon="-8.0785660">
        <ele>382.2</ele>
        <time>2019-08-18T05:56:04Z</time>
      </trkpt>
      <trkpt lat="42.4398960" lon="-8.0785670">
        <ele>382.2</ele>
        <time>2019-08-18T05:56:05Z</time>
      </trkpt>
      <trkpt lat="42.4398980" lon="-8.0785690">
        <ele>382.2</ele>
        <time>2019-08-18T05:56:06Z</time>
      </trkpt>
      <trkpt lat="42.4398990" lon="-8.0785700">
        <ele>382.2</ele>
        <time>2019-08-18T05:56:07Z</time>
      </trkpt>
      <trkpt lat="42.4399010" lon="-8.0785720">
        <ele>382.2</ele>
        <time>2019-08-18T05:56:08Z</time>
      </trkpt>
      <trkpt lat="42.4399020" lon="-8.0785730">
        <ele>382.2</ele>
        <time>2019-08-18T05:56:09Z</time>
      </trkpt>
      <trkpt lat="42.4399040" lon="-8.0785740">
        <ele>382.2</ele>
        <time>2019-08-18T05:56:10Z</time>
      </trkpt>
      <trkpt lat="42.4399050" lon="-8.0785760">
        <ele>382.2</ele>
        <time>2019-08-18T05:56:11Z</time>
      </trkpt>
      <trkpt lat="42.4399070" lon="-8.0785770">
        <ele>382.3</ele>
        <time>2019-08-18T05:56:12Z</time>
      </trkpt>
      <trkpt lat="42.4399080" lon="-8.0785780">
        <ele>382.3</ele>
        <time>2019-08-18T05:56:13Z</time>
      </trkpt>
      <trkpt lat="42.4399100" lon="-8.0785800">
        <ele>382.3</ele>
        <time>2019-08-18T05:56:14Z</time>
      </trkpt>
      <trkpt lat="42.4399120" lon="-8.0785810">
        <ele>382.3</ele>
        <time>2019-08-18T05:56:15Z</time>
      </trkpt>
      <trkpt lat="42.4399130" lon="-8.0785830">
        <ele>382.3</ele>
        <time>2019-08-18T05:56:16Z</time>
      </trkpt>
      <trkpt lat="42.4399150" lon="-8.0785840">
        <ele>382.3</ele>
        <time>2019-08-18T05:56:17Z</time>
      </trkpt>
      <trkpt lat="42.4399160" lon="-8.0785850">
        <ele>382.3</ele>
        <time>2019-08-18T05:56:18Z</time>
      </trkpt>
      <trkpt lat="42.4399180" lon="-8.0785870">
        <ele>382.3</ele>
        <time>2019-08-18T05:56:19Z</time>
      </trkpt>
      <trkpt lat="42.4399190" lon="-8.0785880">
        <ele>382.3</ele>
        <time>2019-08-18T05:56:20Z</time>
      </trkpt>
      <trkpt lat="42.4399210" lon="-8.0785900">
        <ele>382.3</ele>
        <time>2019-08-18T05:56:21Z</time>
      </trkpt>
      <trkpt lat="42.4399220" lon="-8.0785910">
        <ele>382.3</ele>
        <time>2019-08-18T05:56:22Z</time>
      </trkpt>
      <trkpt lat="42.4399240" lon="-8.0785920">
        <ele>382.3</ele>
        <time>2019-08-18T05:56:23Z</time>
      </trkpt>
      <trkpt lat="42.4399250" lon="-8.0785940">
        <ele>382.3</ele>
        <time>2019-08-18T05:56:24Z</time>
      </trkpt>
      <trkpt lat="42.4399270" lon="-8.0785950">
        <ele>382.3</ele>
        <time>2019-08-18T05:56:25Z</time>
      </trkpt>
      <trkpt lat="42.4399280" lon="-8.0785970">
        <ele>382.3</ele>
        <time>2019-08-18T05:56:26Z</time>
      </trkpt>
      <trkpt lat="42.4399300" lon="-8.0785980">
        <ele>382.3</ele>
        <time>2019-08-18T05:56:27Z</time>
      </trkpt>
      <trkpt lat="42.4399310" lon="-8.0785990">
        <ele>382.3</ele>
        <time>2019-08-18T05:56:28Z</time>
      </trkpt>
      <trkpt lat="42.4399330" lon="-8.0786010">
        <ele>382.4</ele>
        <time>2019-08-18T05:56:29Z</time>
      </trkpt>
      <trkpt lat="42.4399340" lon="-8.0786020">
        <ele>382.4</ele>
        <time>2019-08-18T05:56:30Z</time>
      </trkpt>
      <trkpt lat="42.4399360" lon="-8.0786040">
        <ele>382.4</ele>
        <time>2019-08-18T05:56:31Z</time>
      </trkpt>
      <trkpt lat="42.4399380" lon="-8.0786050">
        <ele>382.4</ele>
        <time>2019-08-18T05:56:32Z</time>
      </trkpt>
      <trkpt lat="42.4399390" lon="-8.0786060">
        <ele>382.4</ele>
        <time>2019-08-18T05:56:33Z</time>
      </trkpt>
      <trkpt lat="42.4399410" lon="-8.0786080">
        <ele>382.4</ele>
        <time>2019-08-18T05:56:34Z</time>
      </trkpt>
      <trkpt lat="42.4399420" lon="-8.0786090">
        <ele>382.4</ele>
        <time>2019-08-18T05:56:35Z</time>
      </trkpt>
      <trkpt lat="42.4399440" lon="-8.0786110">
        <ele>382.4</ele>
        <time>2019-08-18T05:56:36Z</time>
      </trkpt>
      <trkpt lat="42.4399450" lon="-8.0786120">
        <ele>382.4</ele>
        <time>2019-08-18T05:56:37Z</time>
      </trkpt>
      <trkpt lat="42.4399470" lon="-8.0786130">
        <ele>382.4</ele>
        <time>2019-08-18T05:56:38Z</time>
      </trkpt>
      <trkpt lat="42.4399480" lon="-8.0786150">
        <ele>382.4</ele>
        <time>2019-08-18T05:56:39Z</time>
      </trkpt>
      <trkpt lat="42.4399500" lon="-8.0786160">
        <ele>382.4</ele>
        <time>2019-08-18T05:56:40Z</time>
      </trkpt>
      <trkpt lat="42.4399510" lon="-8.0786170">
        <ele>382.4</ele>
        <time>2019-08-18T05:56:41Z</time>
      </trkpt>
      <trkpt lat="42.4399530" lon="-8.0786190">
        <ele>382.4</ele>
        <time>2019-08-18T05:56:42Z</time>
      </trkpt>
      <trkpt lat="42.4399540" lon="-8.0786200">
        <ele>382.4</ele>
        <time>2019-08-18T05:56:43Z</time>
      </trkpt>
      <trkpt lat="42.4399560" lon="-8.0786220">
        <ele>382.4</ele>
        <time>2019-08-18T05:56:44Z</time>
      </trkpt>
      <trkpt lat="42.4399570" lon="-8.0786230">
        <ele>382.4</ele>
        <time>2019-08-18T05:56:45Z</time>
      </trkpt>
      <trkpt lat="42.4399590" lon="-8.0786240">
        <ele>382.4</ele>
        <time>2019-08-18T05:56:46Z</time>
      </trkpt>
      <trkpt lat="42.4399610" lon="-8.0786260">
        <ele>382.4</ele>
        <time>2019-08-18T05:56:47Z</time>
      </trkpt>
      <trkpt lat="42.4399620" lon="-8.0786270">
        <ele>382.4</ele>
        <time>2019-08-18T05:56:48Z</time>
      </trkpt>
      <trkpt lat="42.4399640" lon="-8.0786290">
        <ele>382.4</ele>
        <time>2019-08-18T05:56:49Z</time>
      </trkpt>
      <trkpt lat="42.4399650" lon="-8.0786300">
        <ele>382.4</ele>
        <time>2019-08-18T05:56:50Z</time>
      </trkpt>
      <trkpt lat="42.4399670" lon="-8.0786310">
        <ele>382.4</ele>
        <time>2019-08-18T05:56:51Z</time>
      </trkpt>
      <trkpt lat="42.4399680" lon="-8.0786330">
        <ele>382.4</ele>
        <time>2019-08-18T05:56:52Z</time>
      </trkpt>
      <trkpt lat="42.4399700" lon="-8.0786340">
        <ele>382.4</ele>
        <time>2019-08-18T05:56:53Z</time>
      </trkpt>
      <trkpt lat="42.4399710" lon="-8.0786360">
        <ele>382.4</ele>
        <time>2019-08-18T05:56:54Z</time>
      </trkpt>
      <trkpt lat="42.4399730" lon="-8.0786370">
        <ele>382.4</ele>
        <time>2019-08-18T05:56:55Z</time>
      </trkpt>
      <trkpt lat="42.4399740" lon="-8.0786380">
        <ele>382.4</ele>
        <time>2019-08-18T05:56:56Z</time>
      </trkpt>
      <trkpt lat="42.4399760" lon="-8.0786400">
        <ele>382.4</ele>
        <time>2019-08-18T05:56:57Z</time>
      </trkpt>
      <trkpt lat="42.4399770" lon="-8.0786410">
        <ele>382.4</ele>
        <time>2019-08-18T05:56:58Z</time>
      </trkpt>
      <trkpt lat="42.4399790" lon="-8.0786430">
        <ele>382.3</ele>
        <time>2019-08-18T05:56:59Z</time>
      </trkpt>
      <trkpt lat="42.4399800" lon="-8.0786440">
        <ele>382.3</ele>
        <time>2019-08-18T05:57:00Z</time>
      </trkpt>
      <trkpt lat="42.4399820" lon="-8.0786450">
        <ele>382.3</ele>
        <time>2019-08-18T05:57:01Z</time>
      </trkpt>
      <trkpt lat="42.4399830" lon="-8.0786470">
        <ele>382.3</ele>
        <time>2019-08-18T05:57:02Z</time>
      </trkpt>
      <trkpt lat="42.4399850" lon="-8.0786480">
        <ele>382.3</ele>
        <time>2019-08-18T05:57:03Z</time>
      </trkpt>
      <trkpt lat="42.4399870" lon="-8.0786500">
        <ele>382.3</ele>
        <time>2019-08-18T05:57:04Z</time>
      </trkpt>
      <trkpt lat="42.4399880" lon="-8.0786510">
        <ele>382.3</ele>
        <time>2019-08-18T05:57:05Z</time>
      </trkpt>
      <trkpt lat="42.4399900" lon="-8.0786520">
        <ele>382.3</ele>
        <time>2019-08-18T05:57:06Z</time>
      </trkpt>
      <trkpt lat="42.4399910" lon="-8.0786540">
        <ele>382.3</ele>
        <time>2019-08-18T05:57:07Z</time>
      </trkpt>
      <trkpt lat="42.4399930" lon="-8.0786550">
        <ele>382.3</ele>
        <time>2019-08-18T05:57:08Z</time>
      </trkpt>
      <trkpt lat="42.4399940" lon="-8.0786560">
        <ele>382.3</ele>
        <time>2019-08-18T05:57:09Z</time>
      </trkpt>
      <trkpt lat="42.4399960" lon="-8.0786580">
        <ele>382.3</ele>
        <time>2019-08-18T05:57:10Z</time>
      </trkpt>
      <trkpt lat="42.4399970" lon="-8.0786590">
        <ele>382.3</ele>
        <time>2019-08-18T05:57:11Z</time>
      </trkpt>
      <trkpt lat="42.4399990" lon="-8.0786610">
        <ele>382.3</ele>
        <time>2019-08-18T05:57:12Z</time>
      </trkpt>
      <trkpt lat="42.4400000" lon="-8.0786620">
        <ele>382.3</ele>
        <time>2019-08-18T05:57:13Z</time>
      </trkpt>
      <trkpt lat="42.4400020" lon="-8.0786630">
        <ele>382.3</ele>
        <time>2019-08-18T05:57:14Z</time>
      </trkpt>
      <trkpt lat="42.4400030" lon="-8.0786650">
        <ele>382.3</ele>
        <time>2019-08-18T05:57:15Z</time>
      </trkpt>
      <trkpt lat="42.4400050" lon="-8.0786660">
        <ele>382.3</ele>
        <time>2019-08-18T05:57:16Z</time>
      </trkpt>
      <trkpt lat="42.4400060" lon="-8.0786680">
        <ele>382.3</ele>
        <time>2019-08-18T05:57:17Z</time>
      </trkpt>
      <trkpt lat="42.4400080" lon="-8.0786690">
        <ele>382.3</ele>
        <time>2019-08-18T05:57:18Z</time>
      </trkpt>
      <trkpt lat="42.4401280" lon="-8.0787800">
        <ele>381.8</ele>
        <time>2019-08-18T05:57:19Z</time>
      </trkpt>
      <trkpt lat="42.4405660" lon="-8.0791180">
        <ele>382.0</ele>
        <time>2019-08-18T05:57:20Z</time>
      </trkpt>
      <trkpt lat="42.4408550" lon="-8.0793450">
        <ele>383.4</ele>
        <time>2019-08-18T05:57:21Z</time>
      </trkpt>
      <trkpt lat="42.4409910" lon="-8.0794690">
        <ele>384.2</ele>
        <time>2019-08-18T05:57:22Z</time>
      </trkpt>
      <trkpt lat="42.4410800" lon="-8.0795620">
        <ele>385.4</ele>
        <time>2019-08-18T05:57:23Z</time>
      </trkpt>
      <trkpt lat="42.4411460" lon="-8.0796390">
        <ele>386.3</ele>
        <time>2019-08-18T05:57:24Z</time>
      </trkpt>
      <trkpt lat="42.4411920" lon="-8.0797030">
        <ele>387.0</ele>
        <time>2019-08-18T05:57:25Z</time>
      </trkpt>
      <trkpt lat="42.4412230" lon="-8.0797590">
        <ele>387.8</ele>
        <time>2019-08-18T05:57:26Z</time>
      </trkpt>
      <trkpt lat="42.4412420" lon="-8.0798080">
        <ele>388.2</ele>
        <time>2019-08-18T05:57:27Z</time>
      </trkpt>
      <trkpt lat="42.4412540" lon="-8.0798550">
        <ele>388.5</ele>
        <time>2019-08-18T05:57:28Z</time>
      </trkpt>
      <trkpt lat="42.4412620" lon="-8.0799010">
        <ele>388.8</ele>
        <time>2019-08-18T05:57:29Z</time>
      </trkpt>
      <trkpt lat="42.4412700" lon="-8.0799510">
        <ele>389.1</ele>
        <time>2019-08-18T05:57:30Z</time>
      </trkpt>
      <trkpt lat="42.4412780" lon="-8.0800030">
        <ele>389.5</ele>
        <time>2019-08-18T05:57:31Z</time>
      </trkpt>
      <trkpt lat="42.4412860" lon="-8.0800560">
        <ele>390.2</ele>
        <time>2019-08-18T05:57:32Z</time>
      </trkpt>
      <trkpt lat="42.4412930" lon="-8.0801080">
        <ele>390.5</ele>
        <time>2019-08-18T05:57:33Z</time>
      </trkpt>
      <trkpt lat="42.4412990" lon="-8.0801590">
        <ele>390.7</ele>
        <time>2019-08-18T05:57:34Z</time>
      </trkpt>
      <trkpt lat="42.4413040" lon="-8.0802080">
        <ele>390.9</ele>
        <time>2019-08-18T05:57:35Z</time>
      </trkpt>
      <trkpt lat="42.4413080" lon="-8.0802530">
        <ele>391.1</ele>
        <time>2019-08-18T05:57:36Z</time>
      </trkpt>
      <trkpt lat="42.4413090" lon="-8.0802920">
        <ele>391.3</ele>
        <time>2019-08-18T05:57:37Z</time>
      </trkpt>
      <trkpt lat="42.4413090" lon="-8.0803270">
        <ele>391.5</ele>
        <time>2019-08-18T05:57:38Z</time>
      </trkpt>
      <trkpt lat="42.4413080" lon="-8.0803590">
        <ele>391.6</ele>
        <time>2019-08-18T05:57:39Z</time>
      </trkpt>
      <trkpt lat="42.4413070" lon="-8.0803930">
        <ele>391.8</ele>
        <time>2019-08-18T05:57:40Z</time>
      </trkpt>
      <trkpt lat="42.4413060" lon="-8.0804320">
        <ele>392.0</ele>
        <time>2019-08-18T05:57:41Z</time>
      </trkpt>
      <trkpt lat="42.4413070" lon="-8.0804790">
        <ele>392.2</ele>
        <time>2019-08-18T05:57:42Z</time>
      </trkpt>
      <trkpt lat="42.4413100" lon="-8.0805300">
        <ele>392.4</ele>
        <time>2019-08-18T05:57:43Z</time>
      </trkpt>
      <trkpt lat="42.4413150" lon="-8.0805830">
        <ele>392.7</ele>
        <time>2019-08-18T05:57:44Z</time>
      </trkpt>
      <trkpt lat="42.4413240" lon="-8.0806370">
        <ele>392.8</ele>
        <time>2019-08-18T05:57:45Z</time>
      </trkpt>
      <trkpt lat="42.4413340" lon="-8.0806890">
        <ele>392.9</ele>
        <time>2019-08-18T05:57:46Z</time>
      </trkpt>
      <trkpt lat="42.4413440" lon="-8.0807390">
        <ele>392.9</ele>
        <time>2019-08-18T05:57:47Z</time>
      </trkpt>
      <trkpt lat="42.4413530" lon="-8.0807860">
        <ele>393.0</ele>
        <time>2019-08-18T05:57:48Z</time>
      </trkpt>
      <trkpt lat="42.4413580" lon="-8.0808290">
        <ele>393.0</ele>
        <time>2019-08-18T05:57:49Z</time>
      </trkpt>
      <trkpt lat="42.4413610" lon="-8.0808710">
        <ele>393.0</ele>
        <time>2019-08-18T05:57:50Z</time>
      </trkpt>
      <trkpt lat="42.4413620" lon="-8.0809100">
        <ele>393.1</ele>
        <time>2019-08-18T05:57:51Z</time>
      </trkpt>
      <trkpt lat="42.4413630" lon="-8.0809500">
        <ele>393.1</ele>
        <time>2019-08-18T05:57:52Z</time>
      </trkpt>
      <trkpt lat="42.4413650" lon="-8.0809890">
        <ele>393.1</ele>
        <time>2019-08-18T05:57:53Z</time>
      </trkpt>
      <trkpt lat="42.4413680" lon="-8.0810300">
        <ele>393.2</ele>
        <time>2019-08-18T05:57:54Z</time>
      </trkpt>
      <trkpt lat="42.4413720" lon="-8.0810710">
        <ele>393.2</ele>
        <time>2019-08-18T05:57:55Z</time>
      </trkpt>
      <trkpt lat="42.4413760" lon="-8.0811130">
        <ele>393.2</ele>
        <time>2019-08-18T05:57:56Z</time>
      </trkpt>
      <trkpt lat="42.4413800" lon="-8.0811560">
        <ele>393.3</ele>
        <time>2019-08-18T05:57:57Z</time>
      </trkpt>
      <trkpt lat="42.4413850" lon="-8.0812000">
        <ele>393.3</ele>
        <time>2019-08-18T05:57:58Z</time>
      </trkpt>
      <trkpt lat="42.4413890" lon="-8.0812450">
        <ele>393.3</ele>
        <time>2019-08-18T05:57:59Z</time>
      </trkpt>
      <trkpt lat="42.4413930" lon="-8.0812910">
        <ele>393.4</ele>
        <time>2019-08-18T05:58:00Z</time>
      </trkpt>
      <trkpt lat="42.4413980" lon="-8.0813370">
        <ele>393.4</ele>
        <time>2019-08-18T05:58:01Z</time>
      </trkpt>
      <trkpt lat="42.4414020" lon="-8.0813850">
        <ele>393.4</ele>
        <time>2019-08-18T05:58:02Z</time>
      </trkpt>
      <trkpt lat="42.4414060" lon="-8.0814330">
        <ele>393.4</ele>
        <time>2019-08-18T05:58:03Z</time>
      </trkpt>
      <trkpt lat="42.4414100" lon="-8.0814810">
        <ele>393.4</ele>
        <time>2019-08-18T05:58:04Z</time>
      </trkpt>
      <trkpt lat="42.4414150" lon="-8.0815300">
        <ele>393.5</ele>
        <time>2019-08-18T05:58:05Z</time>
      </trkpt>
      <trkpt lat="42.4414190" lon="-8.0815790">
        <ele>393.5</ele>
        <time>2019-08-18T05:58:06Z</time>
      </trkpt>
      <trkpt lat="42.4414230" lon="-8.0816290">
        <ele>393.5</ele>
        <time>2019-08-18T05:58:07Z</time>
      </trkpt>
      <trkpt lat="42.4414280" lon="-8.0816780">
        <ele>393.5</ele>
        <time>2019-08-18T05:58:08Z</time>
      </trkpt>
      <trkpt lat="42.4414330" lon="-8.0817270">
        <ele>393.6</ele>
        <time>2019-08-18T05:58:09Z</time>
      </trkpt>
      <trkpt lat="42.4414390" lon="-8.0817760">
        <ele>393.6</ele>
        <time>2019-08-18T05:58:10Z</time>
      </trkpt>
      <trkpt lat="42.4414450" lon="-8.0818250">
        <ele>393.6</ele>
        <time>2019-08-18T05:58:11Z</time>
      </trkpt>
      <trkpt lat="42.4414510" lon="-8.0818730">
        <ele>393.7</ele>
        <time>2019-08-18T05:58:12Z</time>
      </trkpt>
      <trkpt lat="42.4414580" lon="-8.0819200">
        <ele>393.7</ele>
        <time>2019-08-18T05:58:13Z</time>
      </trkpt>
      <trkpt lat="42.4414650" lon="-8.0819670">
        <ele>393.8</ele>
        <time>2019-08-18T05:58:14Z</time>
      </trkpt>
      <trkpt lat="42.4414730" lon="-8.0820130">
        <ele>393.8</ele>
        <time>2019-08-18T05:58:15Z</time>
      </trkpt>
      <trkpt lat="42.4414820" lon="-8.0820580">
        <ele>393.8</ele>
        <time>2019-08-18T05:58:16Z</time>
      </trkpt>
      <trkpt lat="42.4414920" lon="-8.0821030">
        <ele>393.9</ele>
        <time>2019-08-18T05:58:17Z</time>
      </trkpt>
      <trkpt lat="42.4415170" lon="-8.0821830">
        <ele>394.0</ele>
        <time>2019-08-18T05:58:18Z</time>
      </trkpt>
      <trkpt lat="42.4415310" lon="-8.0822170">
        <ele>394.0</ele>
        <time>2019-08-18T05:58:19Z</time>
      </trkpt>
      <trkpt lat="42.4415450" lon="-8.0822520">
        <ele>394.1</ele>
        <time>2019-08-18T05:58:20Z</time>
      </trkpt>
      <trkpt lat="42.4415590" lon="-8.0822870">
        <ele>394.1</ele>
        <time>2019-08-18T05:58:21Z</time>
      </trkpt>
      <trkpt lat="42.4415730" lon="-8.0823220">
        <ele>394.2</ele>
        <time>2019-08-18T05:58:22Z</time>
      </trkpt>
      <trkpt lat="42.4415870" lon="-8.0823560">
        <ele>394.3</ele>
        <time>2019-08-18T05:58:23Z</time>
      </trkpt>
      <trkpt lat="42.4416010" lon="-8.0823910">
        <ele>394.3</ele>
        <time>2019-08-18T05:58:24Z</time>
      </trkpt>
      <trkpt lat="42.4416200" lon="-8.0824280">
        <ele>394.4</ele>
        <time>2019-08-18T05:58:25Z</time>
      </trkpt>
      <trkpt lat="42.4416520" lon="-8.0824800">
        <ele>394.5</ele>
        <time>2019-08-18T05:58:26Z</time>
      </trkpt>
      <trkpt lat="42.4416630" lon="-8.0824970">
        <ele>394.5</ele>
        <time>2019-08-18T05:58:27Z</time>
      </trkpt>
      <trkpt lat="42.4416860" lon="-8.0825300">
        <ele>394.6</ele>
        <time>2019-08-18T05:58:28Z</time>
      </trkpt>
      <trkpt lat="42.4417100" lon="-8.0825630">
        <ele>394.6</ele>
        <time>2019-08-18T05:58:29Z</time>
      </trkpt>
      <trkpt lat="42.4417350" lon="-8.0825950">
        <ele>394.7</ele>
        <time>2019-08-18T05:58:30Z</time>
      </trkpt>
      <trkpt lat="42.4417610" lon="-8.0826260">
        <ele>394.7</ele>
        <time>2019-08-18T05:58:31Z</time>
      </trkpt>
      <trkpt lat="42.4417870" lon="-8.0826570">
        <ele>394.8</ele>
        <time>2019-08-18T05:58:32Z</time>
      </trkpt>
      <trkpt lat="42.4418140" lon="-8.0826870">
        <ele>394.8</ele>
        <time>2019-08-18T05:58:33Z</time>
      </trkpt>
      <trkpt lat="42.4418420" lon="-8.0827170">
        <ele>394.8</ele>
        <time>2019-08-18T05:58:34Z</time>
      </trkpt>
      <trkpt lat="42.4418700" lon="-8.0827460">
        <ele>394.8</ele>
        <time>2019-08-18T05:58:35Z</time>
      </trkpt>
      <trkpt lat="42.4418990" lon="-8.0827750">
        <ele>394.9</ele>
        <time>2019-08-18T05:58:36Z</time>
      </trkpt>
      <trkpt lat="42.4419280" lon="-8.0828030">
        <ele>394.9</ele>
        <time>2019-08-18T05:58:37Z</time>
      </trkpt>
      <trkpt lat="42.4419570" lon="-8.0828320">
        <ele>394.9</ele>
        <time>2019-08-18T05:58:38Z</time>
      </trkpt>
      <trkpt lat="42.4419870" lon="-8.0828590">
        <ele>394.9</ele>
        <time>2019-08-18T05:58:39Z</time>
      </trkpt>
      <trkpt lat="42.4420170" lon="-8.0828870">
        <ele>394.9</ele>
        <time>2019-08-18T05:58:40Z</time>
      </trkpt>
      <trkpt lat="42.4420470" lon="-8.0829140">
        <ele>394.9</ele>
        <time>2019-08-18T05:58:41Z</time>
      </trkpt>
      <trkpt lat="42.4420770" lon="-8.0829420">
        <ele>394.8</ele>
        <time>2019-08-18T05:58:42Z</time>
      </trkpt>
      <trkpt lat="42.4421070" lon="-8.0829690">
        <ele>394.8</ele>
        <time>2019-08-18T05:58:43Z</time>
      </trkpt>
      <trkpt lat="42.4421370" lon="-8.0829960">
        <ele>395.1</ele>
        <time>2019-08-18T05:58:44Z</time>
      </trkpt>
      <trkpt lat="42.4421670" lon="-8.0830230">
        <ele>395.2</ele>
        <time>2019-08-18T05:58:45Z</time>
      </trkpt>
      <trkpt lat="42.4421980" lon="-8.0830490">
        <ele>395.3</ele>
        <time>2019-08-18T05:58:46Z</time>
      </trkpt>
      <trkpt lat="42.4422290" lon="-8.0830760">
        <ele>395.6</ele>
        <time>2019-08-18T05:58:47Z</time>
      </trkpt>
      <trkpt lat="42.4422610" lon="-8.0831020">
        <ele>395.7</ele>
        <time>2019-08-18T05:58:48Z</time>
      </trkpt>
      <trkpt lat="42.4422940" lon="-8.0831280">
        <ele>395.8</ele>
        <time>2019-08-18T05:58:49Z</time>
      </trkpt>
      <trkpt lat="42.4423270" lon="-8.0831540">
        <ele>396.0</ele>
        <time>2019-08-18T05:58:50Z</time>
      </trkpt>
      <trkpt lat="42.4423620" lon="-8.0831800">
        <ele>396.1</ele>
        <time>2019-08-18T05:58:51Z</time>
      </trkpt>
      <trkpt lat="42.4423970" lon="-8.0832050">
        <ele>396.2</ele>
        <time>2019-08-18T05:58:52Z</time>
      </trkpt>
      <trkpt lat="42.4424330" lon="-8.0832310">
        <ele>396.3</ele>
        <time>2019-08-18T05:58:53Z</time>
      </trkpt>
      <trkpt lat="42.4424690" lon="-8.0832570">
        <ele>396.4</ele>
        <time>2019-08-18T05:58:54Z</time>
      </trkpt>
      <trkpt lat="42.4425060" lon="-8.0832840">
        <ele>396.5</ele>
        <time>2019-08-18T05:58:55Z</time>
      </trkpt>
      <trkpt lat="42.4425420" lon="-8.0833120">
        <ele>396.6</ele>
        <time>2019-08-18T05:58:56Z</time>
      </trkpt>
      <trkpt lat="42.4425790" lon="-8.0833400">
        <ele>396.7</ele>
        <time>2019-08-18T05:58:57Z</time>
      </trkpt>
      <trkpt lat="42.4426150" lon="-8.0833700">
        <ele>396.8</ele>
        <time>2019-08-18T05:58:58Z</time>
      </trkpt>
      <trkpt lat="42.4426500" lon="-8.0834010">
        <ele>396.8</ele>
        <time>2019-08-18T05:58:59Z</time>
      </trkpt>
      <trkpt lat="42.4426860" lon="-8.0834310">
        <ele>396.8</ele>
        <time>2019-08-18T05:59:00Z</time>
      </trkpt>
      <trkpt lat="42.4427220" lon="-8.0834620">
        <ele>396.8</ele>
        <time>2019-08-18T05:59:01Z</time>
      </trkpt>
      <trkpt lat="42.4427580" lon="-8.0834910">
        <ele>396.9</ele>
        <time>2019-08-18T05:59:02Z</time>
      </trkpt>
      <trkpt lat="42.4427940" lon="-8.0835190">
        <ele>396.9</ele>
        <time>2019-08-18T05:59:03Z</time>
      </trkpt>
      <trkpt lat="42.4428310" lon="-8.0835460">
        <ele>396.9</ele>
        <time>2019-08-18T05:59:04Z</time>
      </trkpt>
      <trkpt lat="42.4428690" lon="-8.0835700">
        <ele>396.9</ele>
        <time>2019-08-18T05:59:05Z</time>
      </trkpt>
      <trkpt lat="42.4429070" lon="-8.0835910">
        <ele>397.0</ele>
        <time>2019-08-18T05:59:06Z</time>
      </trkpt>
      <trkpt lat="42.4429460" lon="-8.0836110">
        <ele>397.0</ele>
        <time>2019-08-18T05:59:07Z</time>
      </trkpt>
      <trkpt lat="42.4429860" lon="-8.0836290">
        <ele>397.0</ele>
        <time>2019-08-18T05:59:08Z</time>
      </trkpt>
      <trkpt lat="42.4430260" lon="-8.0836460">
        <ele>397.1</ele>
        <time>2019-08-18T05:59:09Z</time>
      </trkpt>
      <trkpt lat="42.4430660" lon="-8.0836610">
        <ele>397.1</ele>
        <time>2019-08-18T05:59:10Z</time>
      </trkpt>
      <trkpt lat="42.4431060" lon="-8.0836750">
        <ele>397.1</ele>
        <time>2019-08-18T05:59:11Z</time>
      </trkpt>
      <trkpt lat="42.4431470" lon="-8.0836870">
        <ele>397.1</ele>
        <time>2019-08-18T05:59:12Z</time>
      </trkpt>
      <trkpt lat="42.4431870" lon="-8.0836990">
        <ele>397.1</ele>
        <time>2019-08-18T05:59:13Z</time>
      </trkpt>
      <trkpt lat="42.4432280" lon="-8.0837100">
        <ele>397.1</ele>
        <time>2019-08-18T05:59:14Z</time>
      </trkpt>
      <trkpt lat="42.4432690" lon="-8.0837190">
        <ele>397.2</ele>
        <time>2019-08-18T05:59:15Z</time>
      </trkpt>
      <trkpt lat="42.4433090" lon="-8.0837270">
        <ele>397.2</ele>
        <time>2019-08-18T05:59:16Z</time>
      </trkpt>
      <trkpt lat="42.4433500" lon="-8.0837350">
        <ele>397.2</ele>
        <time>2019-08-18T05:59:17Z</time>
      </trkpt>
      <trkpt lat="42.4433900" lon="-8.0837410">
        <ele>397.3</ele>
        <time>2019-08-18T05:59:18Z</time>
      </trkpt>
      <trkpt lat="42.4434300" lon="-8.0837470">
        <ele>397.5</ele>
        <time>2019-08-18T05:59:19Z</time>
      </trkpt>
      <trkpt lat="42.4434700" lon="-8.0837510">
        <ele>397.6</ele>
        <time>2019-08-18T05:59:20Z</time>
      </trkpt>
      <trkpt lat="42.4435100" lon="-8.0837540">
        <ele>397.8</ele>
        <time>2019-08-18T05:59:21Z</time>
      </trkpt>
      <trkpt lat="42.4435500" lon="-8.0837570">
        <ele>397.9</ele>
        <time>2019-08-18T05:59:22Z</time>
      </trkpt>
      <trkpt lat="42.4435900" lon="-8.0837590">
        <ele>398.0</ele>
        <time>2019-08-18T05:59:23Z</time>
      </trkpt>
      <trkpt lat="42.4436300" lon="-8.0837600">
        <ele>398.2</ele>
        <time>2019-08-18T05:59:24Z</time>
      </trkpt>
      <trkpt lat="42.4436700" lon="-8.0837610">
        <ele>398.3</ele>
        <time>2019-08-18T05:59:25Z</time>
      </trkpt>
      <trkpt lat="42.4437110" lon="-8.0837610">
        <ele>398.4</ele>
        <time>2019-08-18T05:59:26Z</time>
      </trkpt>
      <trkpt lat="42.4437520" lon="-8.0837610">
        <ele>398.5</ele>
        <time>2019-08-18T05:59:27Z</time>
      </trkpt>
      <trkpt lat="42.4437930" lon="-8.0837620">
        <ele>398.6</ele>
        <time>2019-08-18T05:59:28Z</time>
      </trkpt>
      <trkpt lat="42.4438350" lon="-8.0837610">
        <ele>398.8</ele>
        <time>2019-08-18T05:59:29Z</time>
      </trkpt>
      <trkpt lat="42.4438770" lon="-8.0837610">
        <ele>398.9</ele>
        <time>2019-08-18T05:59:30Z</time>
      </trkpt>
      <trkpt lat="42.4439190" lon="-8.0837600">
        <ele>399.1</ele>
        <time>2019-08-18T05:59:31Z</time>
      </trkpt>
      <trkpt lat="42.4439610" lon="-8.0837590">
        <ele>399.2</ele>
        <time>2019-08-18T05:59:32Z</time>
      </trkpt>
      <trkpt lat="42.4440040" lon="-8.0837580">
        <ele>399.3</ele>
        <time>2019-08-18T05:59:33Z</time>
      </trkpt>
      <trkpt lat="42.4440460" lon="-8.0837570">
        <ele>399.5</ele>
        <time>2019-08-18T05:59:34Z</time>
      </trkpt>
      <trkpt lat="42.4440880" lon="-8.0837550">
        <ele>399.6</ele>
        <time>2019-08-18T05:59:35Z</time>
      </trkpt>
      <trkpt lat="42.4441300" lon="-8.0837530">
        <ele>399.7</ele>
        <time>2019-08-18T05:59:36Z</time>
      </trkpt>
      <trkpt lat="42.4441720" lon="-8.0837510">
        <ele>399.8</ele>
        <time>2019-08-18T05:59:37Z</time>
      </trkpt>
      <trkpt lat="42.4442140" lon="-8.0837490">
        <ele>399.9</ele>
        <time>2019-08-18T05:59:38Z</time>
      </trkpt>
      <trkpt lat="42.4442560" lon="-8.0837480">
        <ele>400.0</ele>
        <time>2019-08-18T05:59:39Z</time>
      </trkpt>
      <trkpt lat="42.4442980" lon="-8.0837470">
        <ele>400.1</ele>
        <time>2019-08-18T05:59:40Z</time>
      </trkpt>
      <trkpt lat="42.4443400" lon="-8.0837470">
        <ele>400.2</ele>
        <time>2019-08-18T05:59:41Z</time>
      </trkpt>
      <trkpt lat="42.4443820" lon="-8.0837470">
        <ele>400.3</ele>
        <time>2019-08-18T05:59:42Z</time>
      </trkpt>
      <trkpt lat="42.4444240" lon="-8.0837480">
        <ele>400.4</ele>
        <time>2019-08-18T05:59:43Z</time>
      </trkpt>
      <trkpt lat="42.4444670" lon="-8.0837500">
        <ele>400.5</ele>
        <time>2019-08-18T05:59:44Z</time>
      </trkpt>
      <trkpt lat="42.4445090" lon="-8.0837520">
        <ele>400.7</ele>
        <time>2019-08-18T05:59:45Z</time>
      </trkpt>
      <trkpt lat="42.4445510" lon="-8.0837560">
        <ele>400.8</ele>
        <time>2019-08-18T05:59:46Z</time>
      </trkpt>
      <trkpt lat="42.4445940" lon="-8.0837600">
        <ele>401.0</ele>
        <time>2019-08-18T05:59:47Z</time>
      </trkpt>
      <trkpt lat="42.4446360" lon="-8.0837640">
        <ele>401.2</ele>
        <time>2019-08-18T05:59:48Z</time>
      </trkpt>
      <trkpt lat="42.4446790" lon="-8.0837700">
        <ele>401.4</ele>
        <time>2019-08-18T05:59:49Z</time>
      </trkpt>
      <trkpt lat="42.4447210" lon="-8.0837760">
        <ele>401.6</ele>
        <time>2019-08-18T05:59:50Z</time>
      </trkpt>
      <trkpt lat="42.4447640" lon="-8.0837820">
        <ele>401.8</ele>
        <time>2019-08-18T05:59:51Z</time>
      </trkpt>
      <trkpt lat="42.4448060" lon="-8.0837900">
        <ele>402.1</ele>
        <time>2019-08-18T05:59:52Z</time>
      </trkpt>
      <trkpt lat="42.4448480" lon="-8.0837980">
        <ele>402.3</ele>
        <time>2019-08-18T05:59:53Z</time>
      </trkpt>
      <trkpt lat="42.4448900" lon="-8.0838070">
        <ele>402.6</ele>
        <time>2019-08-18T05:59:54Z</time>
      </trkpt>
      <trkpt lat="42.4449310" lon="-8.0838160">
        <ele>402.9</ele>
        <time>2019-08-18T05:59:55Z</time>
      </trkpt>
      <trkpt lat="42.4449730" lon="-8.0838260">
        <ele>403.1</ele>
        <time>2019-08-18T05:59:56Z</time>
      </trkpt>
      <trkpt lat="42.4450140" lon="-8.0838360">
        <ele>403.4</ele>
        <time>2019-08-18T05:59:57Z</time>
      </trkpt>
      <trkpt lat="42.4450550" lon="-8.0838470">
        <ele>403.8</ele>
        <time>2019-08-18T05:59:58Z</time>
      </trkpt>
      <trkpt lat="42.4450960" lon="-8.0838590">
        <ele>404.1</ele>
        <time>2019-08-18T05:59:59Z</time>
      </trkpt>
      <trkpt lat="42.4451370" lon="-8.0838710">
        <ele>404.3</ele>
        <time>2019-08-18T06:00:00Z</time>
      </trkpt>
      <trkpt lat="42.4451770" lon="-8.0838830">
        <ele>404.5</ele>
        <time>2019-08-18T06:00:01Z</time>
      </trkpt>
      <trkpt lat="42.4452170" lon="-8.0838960">
        <ele>404.7</ele>
        <time>2019-08-18T06:00:02Z</time>
      </trkpt>
      <trkpt lat="42.4452570" lon="-8.0839080">
        <ele>404.9</ele>
        <time>2019-08-18T06:00:03Z</time>
      </trkpt>
      <trkpt lat="42.4452960" lon="-8.0839220">
        <ele>405.1</ele>
        <time>2019-08-18T06:00:04Z</time>
      </trkpt>
      <trkpt lat="42.4453350" lon="-8.0839350">
        <ele>405.3</ele>
        <time>2019-08-18T06:00:05Z</time>
      </trkpt>
      <trkpt lat="42.4453740" lon="-8.0839480">
        <ele>405.6</ele>
        <time>2019-08-18T06:00:06Z</time>
      </trkpt>
      <trkpt lat="42.4454130" lon="-8.0839620">
        <ele>405.8</ele>
        <time>2019-08-18T06:00:07Z</time>
      </trkpt>
      <trkpt lat="42.4454510" lon="-8.0839750">
        <ele>406.0</ele>
        <time>2019-08-18T06:00:08Z</time>
      </trkpt>
      <trkpt lat="42.4454890" lon="-8.0839890">
        <ele>406.2</ele>
        <time>2019-08-18T06:00:09Z</time>
      </trkpt>
      <trkpt lat="42.4455260" lon="-8.0840020">
        <ele>406.5</ele>
        <time>2019-08-18T06:00:10Z</time>
      </trkpt>
      <trkpt lat="42.4455640" lon="-8.0840150">
        <ele>406.7</ele>
        <time>2019-08-18T06:00:11Z</time>
      </trkpt>
      <trkpt lat="42.4456010" lon="-8.0840280">
        <ele>406.9</ele>
        <time>2019-08-18T06:00:12Z</time>
      </trkpt>
      <trkpt lat="42.4456370" lon="-8.0840400">
        <ele>407.2</ele>
        <time>2019-08-18T06:00:13Z</time>
      </trkpt>
      <trkpt lat="42.4456730" lon="-8.0840520">
        <ele>407.4</ele>
        <time>2019-08-18T06:00:14Z</time>
      </trkpt>
      <trkpt lat="42.4457080" lon="-8.0840640">
        <ele>407.7</ele>
        <time>2019-08-18T06:00:15Z</time>
      </trkpt>
      <trkpt lat="42.4457430" lon="-8.0840750">
        <ele>407.9</ele>
        <time>2019-08-18T06:00:16Z</time>
      </trkpt>
      <trkpt lat="42.4457770" lon="-8.0840860">
        <ele>408.2</ele>
        <time>2019-08-18T06:00:17Z</time>
      </trkpt>
      <trkpt lat="42.4458100" lon="-8.0840960">
        <ele>408.4</ele>
        <time>2019-08-18T06:00:18Z</time>
      </trkpt>
      <trkpt lat="42.4458430" lon="-8.0841050">
        <ele>408.6</ele>
        <time>2019-08-18T06:00:19Z</time>
      </trkpt>
      <trkpt lat="42.4458750" lon="-8.0841140">
        <ele>408.9</ele>
        <time>2019-08-18T06:00:20Z</time>
      </trkpt>
      <trkpt lat="42.4459060" lon="-8.0841220">
        <ele>409.1</ele>
        <time>2019-08-18T06:00:21Z</time>
      </trkpt>
      <trkpt lat="42.4459370" lon="-8.0841290">
        <ele>409.3</ele>
        <time>2019-08-18T06:00:22Z</time>
      </trkpt>
      <trkpt lat="42.4459680" lon="-8.0841370">
        <ele>409.5</ele>
        <time>2019-08-18T06:00:23Z</time>
      </trkpt>
      <trkpt lat="42.4459980" lon="-8.0841450">
        <ele>409.7</ele>
        <time>2019-08-18T06:00:24Z</time>
      </trkpt>
      <trkpt lat="42.4460280" lon="-8.0841520">
        <ele>409.9</ele>
        <time>2019-08-18T06:00:25Z</time>
      </trkpt>
      <trkpt lat="42.4460570" lon="-8.0841600">
        <ele>410.1</ele>
        <time>2019-08-18T06:00:26Z</time>
      </trkpt>
      <trkpt lat="42.4460860" lon="-8.0841680">
        <ele>410.3</ele>
        <time>2019-08-18T06:00:27Z</time>
      </trkpt>
      <trkpt lat="42.4461160" lon="-8.0841760">
        <ele>410.5</ele>
        <time>2019-08-18T06:00:28Z</time>
      </trkpt>
      <trkpt lat="42.4461450" lon="-8.0841840">
        <ele>410.7</ele>
        <time>2019-08-18T06:00:29Z</time>
      </trkpt>
      <trkpt lat="42.4461730" lon="-8.0841930">
        <ele>410.9</ele>
        <time>2019-08-18T06:00:30Z</time>
      </trkpt>
      <trkpt lat="42.4462020" lon="-8.0842010">
        <ele>411.1</ele>
        <time>2019-08-18T06:00:31Z</time>
      </trkpt>
      <trkpt lat="42.4462300" lon="-8.0842090">
        <ele>411.3</ele>
        <time>2019-08-18T06:00:32Z</time>
      </trkpt>
      <trkpt lat="42.4462580" lon="-8.0842180">
        <ele>411.5</ele>
        <time>2019-08-18T06:00:33Z</time>
      </trkpt>
      <trkpt lat="42.4462860" lon="-8.0842270">
        <ele>411.7</ele>
        <time>2019-08-18T06:00:34Z</time>
      </trkpt>
      <trkpt lat="42.4463130" lon="-8.0842350">
        <ele>411.9</ele>
        <time>2019-08-18T06:00:35Z</time>
      </trkpt>
      <trkpt lat="42.4463410" lon="-8.0842440">
        <ele>412.1</ele>
        <time>2019-08-18T06:00:36Z</time>
      </trkpt>
      <trkpt lat="42.4463680" lon="-8.0842520">
        <ele>412.3</ele>
        <time>2019-08-18T06:00:37Z</time>
      </trkpt>
      <trkpt lat="42.4463940" lon="-8.0842600">
        <ele>412.5</ele>
        <time>2019-08-18T06:00:38Z</time>
      </trkpt>
      <trkpt lat="42.4464210" lon="-8.0842690">
        <ele>412.7</ele>
        <time>2019-08-18T06:00:39Z</time>
      </trkpt>
      <trkpt lat="42.4464470" lon="-8.0842770">
        <ele>412.9</ele>
        <time>2019-08-18T06:00:40Z</time>
      </trkpt>
      <trkpt lat="42.4464730" lon="-8.0842850">
        <ele>413.1</ele>
        <time>2019-08-18T06:00:41Z</time>
      </trkpt>
      <trkpt lat="42.4464980" lon="-8.0842930">
        <ele>413.2</ele>
        <time>2019-08-18T06:00:42Z</time>
      </trkpt>
      <trkpt lat="42.4465240" lon="-8.0843010">
        <ele>413.4</ele>
        <time>2019-08-18T06:00:43Z</time>
      </trkpt>
      <trkpt lat="42.4465490" lon="-8.0843090">
        <ele>413.6</ele>
        <time>2019-08-18T06:00:44Z</time>
      </trkpt>
      <trkpt lat="42.4465740" lon="-8.0843170">
        <ele>413.8</ele>
        <time>2019-08-18T06:00:45Z</time>
      </trkpt>
      <trkpt lat="42.4465980" lon="-8.0843250">
        <ele>414.0</ele>
        <time>2019-08-18T06:00:46Z</time>
      </trkpt>
      <trkpt lat="42.4466230" lon="-8.0843330">
        <ele>414.2</ele>
        <time>2019-08-18T06:00:47Z</time>
      </trkpt>
      <trkpt lat="42.4466470" lon="-8.0843410">
        <ele>414.4</ele>
        <time>2019-08-18T06:00:48Z</time>
      </trkpt>
      <trkpt lat="42.4466710" lon="-8.0843490">
        <ele>414.6</ele>
        <time>2019-08-18T06:00:49Z</time>
      </trkpt>
      <trkpt lat="42.4466950" lon="-8.0843570">
        <ele>414.8</ele>
        <time>2019-08-18T06:00:50Z</time>
      </trkpt>
      <trkpt lat="42.4467180" lon="-8.0843660">
        <ele>415.1</ele>
        <time>2019-08-18T06:00:51Z</time>
      </trkpt>
      <trkpt lat="42.4467420" lon="-8.0843740">
        <ele>415.3</ele>
        <time>2019-08-18T06:00:52Z</time>
      </trkpt>
      <trkpt lat="42.4467650" lon="-8.0843830">
        <ele>415.6</ele>
        <time>2019-08-18T06:00:53Z</time>
      </trkpt>
      <trkpt lat="42.4467890" lon="-8.0843920">
        <ele>415.8</ele>
        <time>2019-08-18T06:00:54Z</time>
      </trkpt>
      <trkpt lat="42.4468120" lon="-8.0844010">
        <ele>416.0</ele>
        <time>2019-08-18T06:00:55Z</time>
      </trkpt>
      <trkpt lat="42.4468350" lon="-8.0844100">
        <ele>416.1</ele>
        <time>2019-08-18T06:00:56Z</time>
      </trkpt>
      <trkpt lat="42.4468580" lon="-8.0844190">
        <ele>416.3</ele>
        <time>2019-08-18T06:00:57Z</time>
      </trkpt>
      <trkpt lat="42.4468800" lon="-8.0844290">
        <ele>416.4</ele>
        <time>2019-08-18T06:00:58Z</time>
      </trkpt>
      <trkpt lat="42.4469030" lon="-8.0844380">
        <ele>416.6</ele>
        <time>2019-08-18T06:00:59Z</time>
      </trkpt>
      <trkpt lat="42.4469260" lon="-8.0844480">
        <ele>416.7</ele>
        <time>2019-08-18T06:01:00Z</time>
      </trkpt>
      <trkpt lat="42.4469480" lon="-8.0844580">
        <ele>416.9</ele>
        <time>2019-08-18T06:01:01Z</time>
      </trkpt>
      <trkpt lat="42.4469710" lon="-8.0844670">
        <ele>417.0</ele>
        <time>2019-08-18T06:01:02Z</time>
      </trkpt>
      <trkpt lat="42.4469930" lon="-8.0844770">
        <ele>417.2</ele>
        <time>2019-08-18T06:01:03Z</time>
      </trkpt>
      <trkpt lat="42.4470150" lon="-8.0844870">
        <ele>417.3</ele>
        <time>2019-08-18T06:01:04Z</time>
      </trkpt>
      <trkpt lat="42.4470370" lon="-8.0844970">
        <ele>417.5</ele>
        <time>2019-08-18T06:01:05Z</time>
      </trkpt>
      <trkpt lat="42.4470590" lon="-8.0845060">
        <ele>417.7</ele>
        <time>2019-08-18T06:01:06Z</time>
      </trkpt>
      <trkpt lat="42.4470810" lon="-8.0845160">
        <ele>417.8</ele>
        <time>2019-08-18T06:01:07Z</time>
      </trkpt>
      <trkpt lat="42.4471030" lon="-8.0845260">
        <ele>418.0</ele>
        <time>2019-08-18T06:01:08Z</time>
      </trkpt>
      <trkpt lat="42.4471250" lon="-8.0845350">
        <ele>418.1</ele>
        <time>2019-08-18T06:01:09Z</time>
      </trkpt>
      <trkpt lat="42.4471460" lon="-8.0845440">
        <ele>418.3</ele>
        <time>2019-08-18T06:01:10Z</time>
      </trkpt>
      <trkpt lat="42.4471670" lon="-8.0845540">
        <ele>418.4</ele>
        <time>2019-08-18T06:01:11Z</time>
      </trkpt>
      <trkpt lat="42.4471860" lon="-8.0845650">
        <ele>418.5</ele>
        <time>2019-08-18T06:01:12Z</time>
      </trkpt>
      <trkpt lat="42.4472040" lon="-8.0845760">
        <ele>418.7</ele>
        <time>2019-08-18T06:01:13Z</time>
      </trkpt>
      <trkpt lat="42.4472210" lon="-8.0845870">
        <ele>418.8</ele>
        <time>2019-08-18T06:01:14Z</time>
      </trkpt>
      <trkpt lat="42.4472380" lon="-8.0845990">
        <ele>418.9</ele>
        <time>2019-08-18T06:01:15Z</time>
      </trkpt>
      <trkpt lat="42.4472550" lon="-8.0846110">
        <ele>419.0</ele>
        <time>2019-08-18T06:01:16Z</time>
      </trkpt>
      <trkpt lat="42.4472740" lon="-8.0846220">
        <ele>419.1</ele>
        <time>2019-08-18T06:01:17Z</time>
      </trkpt>
      <trkpt lat="42.4472940" lon="-8.0846330">
        <ele>419.2</ele>
        <time>2019-08-18T06:01:18Z</time>
      </trkpt>
      <trkpt lat="42.4473160" lon="-8.0846440">
        <ele>419.4</ele>
        <time>2019-08-18T06:01:19Z</time>
      </trkpt>
      <trkpt lat="42.4473370" lon="-8.0846560">
        <ele>419.5</ele>
        <time>2019-08-18T06:01:20Z</time>
      </trkpt>
      <trkpt lat="42.4473600" lon="-8.0846680">
        <ele>419.7</ele>
        <time>2019-08-18T06:01:21Z</time>
      </trkpt>
      <trkpt lat="42.4473820" lon="-8.0846810">
        <ele>419.8</ele>
        <time>2019-08-18T06:01:22Z</time>
      </trkpt>
      <trkpt lat="42.4474040" lon="-8.0846940">
        <ele>419.9</ele>
        <time>2019-08-18T06:01:23Z</time>
      </trkpt>
      <trkpt lat="42.4474260" lon="-8.0847090">
        <ele>420.1</ele>
        <time>2019-08-18T06:01:24Z</time>
      </trkpt>
      <trkpt lat="42.4474480" lon="-8.0847250">
        <ele>420.2</ele>
        <time>2019-08-18T06:01:25Z</time>
      </trkpt>
      <trkpt lat="42.4474690" lon="-8.0847420">
        <ele>420.4</ele>
        <time>2019-08-18T06:01:26Z</time>
      </trkpt>
      <trkpt lat="42.4474900" lon="-8.0847590">
        <ele>420.6</ele>
        <time>2019-08-18T06:01:27Z</time>
      </trkpt>
      <trkpt lat="42.4475110" lon="-8.0847770">
        <ele>420.7</ele>
        <time>2019-08-18T06:01:28Z</time>
      </trkpt>
      <trkpt lat="42.4475320" lon="-8.0847960">
        <ele>420.9</ele>
        <time>2019-08-18T06:01:29Z</time>
      </trkpt>
      <trkpt lat="42.4475530" lon="-8.0848150">
        <ele>421.0</ele>
        <time>2019-08-18T06:01:30Z</time>
      </trkpt>
      <trkpt lat="42.4475740" lon="-8.0848340">
        <ele>421.2</ele>
        <time>2019-08-18T06:01:31Z</time>
      </trkpt>
      <trkpt lat="42.4475940" lon="-8.0848530">
        <ele>421.4</ele>
        <time>2019-08-18T06:01:32Z</time>
      </trkpt>
      <trkpt lat="42.4476150" lon="-8.0848720">
        <ele>421.5</ele>
        <time>2019-08-18T06:01:33Z</time>
      </trkpt>
      <trkpt lat="42.4476350" lon="-8.0848910">
        <ele>421.7</ele>
        <time>2019-08-18T06:01:34Z</time>
      </trkpt>
      <trkpt lat="42.4476560" lon="-8.0849100">
        <ele>421.9</ele>
        <time>2019-08-18T06:01:35Z</time>
      </trkpt>
      <trkpt lat="42.4476760" lon="-8.0849300">
        <ele>422.0</ele>
        <time>2019-08-18T06:01:36Z</time>
      </trkpt>
      <trkpt lat="42.4476970" lon="-8.0849500">
        <ele>422.2</ele>
        <time>2019-08-18T06:01:37Z</time>
      </trkpt>
      <trkpt lat="42.4477170" lon="-8.0849700">
        <ele>422.4</ele>
        <time>2019-08-18T06:01:38Z</time>
      </trkpt>
      <trkpt lat="42.4477370" lon="-8.0849910">
        <ele>422.5</ele>
        <time>2019-08-18T06:01:39Z</time>
      </trkpt>
      <trkpt lat="42.4477570" lon="-8.0850120">
        <ele>422.7</ele>
        <time>2019-08-18T06:01:40Z</time>
      </trkpt>
      <trkpt lat="42.4477760" lon="-8.0850340">
        <ele>422.9</ele>
        <time>2019-08-18T06:01:41Z</time>
      </trkpt>
      <trkpt lat="42.4477960" lon="-8.0850560">
        <ele>423.0</ele>
        <time>2019-08-18T06:01:42Z</time>
      </trkpt>
      <trkpt lat="42.4478150" lon="-8.0850790">
        <ele>423.2</ele>
        <time>2019-08-18T06:01:43Z</time>
      </trkpt>
      <trkpt lat="42.4478340" lon="-8.0851020">
        <ele>423.4</ele>
        <time>2019-08-18T06:01:44Z</time>
      </trkpt>
      <trkpt lat="42.4478530" lon="-8.0851260">
        <ele>423.6</ele>
        <time>2019-08-18T06:01:45Z</time>
      </trkpt>
      <trkpt lat="42.4478720" lon="-8.0851500">
        <ele>423.7</ele>
        <time>2019-08-18T06:01:46Z</time>
      </trkpt>
      <trkpt lat="42.4478900" lon="-8.0851740">
        <ele>423.9</ele>
        <time>2019-08-18T06:01:47Z</time>
      </trkpt>
      <trkpt lat="42.4479090" lon="-8.0851990">
        <ele>424.1</ele>
        <time>2019-08-18T06:01:48Z</time>
      </trkpt>
      <trkpt lat="42.4479270" lon="-8.0852240">
        <ele>424.3</ele>
        <time>2019-08-18T06:01:49Z</time>
      </trkpt>
      <trkpt lat="42.4479450" lon="-8.0852490">
        <ele>424.4</ele>
        <time>2019-08-18T06:01:50Z</time>
      </trkpt>
      <trkpt lat="42.4479620" lon="-8.0852750">
        <ele>424.6</ele>
        <time>2019-08-18T06:01:51Z</time>
      </trkpt>
      <trkpt lat="42.4479800" lon="-8.0853010">
        <ele>424.8</ele>
        <time>2019-08-18T06:01:52Z</time>
      </trkpt>
      <trkpt lat="42.4479970" lon="-8.0853270">
        <ele>425.0</ele>
        <time>2019-08-18T06:01:53Z</time>
      </trkpt>
      <trkpt lat="42.4480140" lon="-8.0853530">
        <ele>425.2</ele>
        <time>2019-08-18T06:01:54Z</time>
      </trkpt>
      <trkpt lat="42.4480310" lon="-8.0853800">
        <ele>425.4</ele>
        <time>2019-08-18T06:01:55Z</time>
      </trkpt>
      <trkpt lat="42.4480480" lon="-8.0854070">
        <ele>425.6</ele>
        <time>2019-08-18T06:01:56Z</time>
      </trkpt>
      <trkpt lat="42.4480640" lon="-8.0854340">
        <ele>425.7</ele>
        <time>2019-08-18T06:01:57Z</time>
      </trkpt>
      <trkpt lat="42.4480810" lon="-8.0854610">
        <ele>425.9</ele>
        <time>2019-08-18T06:01:58Z</time>
      </trkpt>
      <trkpt lat="42.4480960" lon="-8.0854890">
        <ele>426.1</ele>
        <time>2019-08-18T06:01:59Z</time>
      </trkpt>
      <trkpt lat="42.4481120" lon="-8.0855160">
        <ele>426.3</ele>
        <time>2019-08-18T06:02:00Z</time>
      </trkpt>
      <trkpt lat="42.4481280" lon="-8.0855440">
        <ele>426.5</ele>
        <time>2019-08-18T06:02:01Z</time>
      </trkpt>
      <trkpt lat="42.4481430" lon="-8.0855720">
        <ele>426.7</ele>
        <time>2019-08-18T06:02:02Z</time>
      </trkpt>
      <trkpt lat="42.4481580" lon="-8.0856000">
        <ele>426.9</ele>
        <time>2019-08-18T06:02:03Z</time>
      </trkpt>
      <trkpt lat="42.4481730" lon="-8.0856280">
        <ele>427.2</ele>
        <time>2019-08-18T06:02:04Z</time>
      </trkpt>
      <trkpt lat="42.4481870" lon="-8.0856560">
        <ele>427.5</ele>
        <time>2019-08-18T06:02:05Z</time>
      </trkpt>
      <trkpt lat="42.4482010" lon="-8.0856840">
        <ele>427.7</ele>
        <time>2019-08-18T06:02:06Z</time>
      </trkpt>
      <trkpt lat="42.4482150" lon="-8.0857120">
        <ele>427.8</ele>
        <time>2019-08-18T06:02:07Z</time>
      </trkpt>
      <trkpt lat="42.4482290" lon="-8.0857410">
        <ele>428.0</ele>
        <time>2019-08-18T06:02:08Z</time>
      </trkpt>
      <trkpt lat="42.4482420" lon="-8.0857690">
        <ele>428.2</ele>
        <time>2019-08-18T06:02:09Z</time>
      </trkpt>
      <trkpt lat="42.4482560" lon="-8.0857970">
        <ele>428.3</ele>
        <time>2019-08-18T06:02:10Z</time>
      </trkpt>
      <trkpt lat="42.4482690" lon="-8.0858260">
        <ele>428.5</ele>
        <time>2019-08-18T06:02:11Z</time>
      </trkpt>
      <trkpt lat="42.4482810" lon="-8.0858540">
        <ele>428.6</ele>
        <time>2019-08-18T06:02:12Z</time>
      </trkpt>
      <trkpt lat="42.4482940" lon="-8.0858830">
        <ele>428.8</ele>
        <time>2019-08-18T06:02:13Z</time>
      </trkpt>
      <trkpt lat="42.4483060" lon="-8.0859120">
        <ele>429.0</ele>
        <time>2019-08-18T06:02:14Z</time>
      </trkpt>
      <trkpt lat="42.4483180" lon="-8.0859410">
        <ele>429.1</ele>
        <time>2019-08-18T06:02:15Z</time>
      </trkpt>
      <trkpt lat="42.4483290" lon="-8.0859700">
        <ele>429.3</ele>
        <time>2019-08-18T06:02:16Z</time>
      </trkpt>
      <trkpt lat="42.4483410" lon="-8.0860000">
        <ele>429.5</ele>
        <time>2019-08-18T06:02:17Z</time>
      </trkpt>
      <trkpt lat="42.4483520" lon="-8.0860300">
        <ele>429.7</ele>
        <time>2019-08-18T06:02:18Z</time>
      </trkpt>
      <trkpt lat="42.4483630" lon="-8.0860600">
        <ele>430.0</ele>
        <time>2019-08-18T06:02:19Z</time>
      </trkpt>
      <trkpt lat="42.4483740" lon="-8.0860910">
        <ele>430.2</ele>
        <time>2019-08-18T06:02:20Z</time>
      </trkpt>
      <trkpt lat="42.4483840" lon="-8.0861220">
        <ele>430.4</ele>
        <time>2019-08-18T06:02:21Z</time>
      </trkpt>
      <trkpt lat="42.4483950" lon="-8.0861530">
        <ele>430.6</ele>
        <time>2019-08-18T06:02:22Z</time>
      </trkpt>
      <trkpt lat="42.4484050" lon="-8.0861850">
        <ele>430.8</ele>
        <time>2019-08-18T06:02:23Z</time>
      </trkpt>
      <trkpt lat="42.4484150" lon="-8.0862170">
        <ele>431.0</ele>
        <time>2019-08-18T06:02:24Z</time>
      </trkpt>
      <trkpt lat="42.4484240" lon="-8.0862490">
        <ele>431.2</ele>
        <time>2019-08-18T06:02:25Z</time>
      </trkpt>
      <trkpt lat="42.4484340" lon="-8.0862820">
        <ele>431.5</ele>
        <time>2019-08-18T06:02:26Z</time>
      </trkpt>
      <trkpt lat="42.4484430" lon="-8.0863140">
        <ele>431.7</ele>
        <time>2019-08-18T06:02:27Z</time>
      </trkpt>
      <trkpt lat="42.4484520" lon="-8.0863470">
        <ele>431.9</ele>
        <time>2019-08-18T06:02:28Z</time>
      </trkpt>
      <trkpt lat="42.4484600" lon="-8.0863800">
        <ele>432.1</ele>
        <time>2019-08-18T06:02:29Z</time>
      </trkpt>
      <trkpt lat="42.4484690" lon="-8.0864130">
        <ele>432.3</ele>
        <time>2019-08-18T06:02:30Z</time>
      </trkpt>
      <trkpt lat="42.4484770" lon="-8.0864460">
        <ele>432.5</ele>
        <time>2019-08-18T06:02:31Z</time>
      </trkpt>
      <trkpt lat="42.4484850" lon="-8.0864780">
        <ele>432.7</ele>
        <time>2019-08-18T06:02:32Z</time>
      </trkpt>
      <trkpt lat="42.4484930" lon="-8.0865110">
        <ele>432.9</ele>
        <time>2019-08-18T06:02:33Z</time>
      </trkpt>
      <trkpt lat="42.4485000" lon="-8.0865430">
        <ele>433.1</ele>
        <time>2019-08-18T06:02:34Z</time>
      </trkpt>
      <trkpt lat="42.4485070" lon="-8.0865740">
        <ele>433.2</ele>
        <time>2019-08-18T06:02:35Z</time>
      </trkpt>
      <trkpt lat="42.4485140" lon="-8.0866050">
        <ele>433.4</ele>
        <time>2019-08-18T06:02:36Z</time>
      </trkpt>
      <trkpt lat="42.4485210" lon="-8.0866360">
        <ele>433.6</ele>
        <time>2019-08-18T06:02:37Z</time>
      </trkpt>
      <trkpt lat="42.4485270" lon="-8.0866670">
        <ele>433.7</ele>
        <time>2019-08-18T06:02:38Z</time>
      </trkpt>
      <trkpt lat="42.4485330" lon="-8.0866970">
        <ele>433.9</ele>
        <time>2019-08-18T06:02:39Z</time>
      </trkpt>
      <trkpt lat="42.4485390" lon="-8.0867270">
        <ele>434.1</ele>
        <time>2019-08-18T06:02:40Z</time>
      </trkpt>
      <trkpt lat="42.4485440" lon="-8.0867570">
        <ele>434.2</ele>
        <time>2019-08-18T06:02:41Z</time>
      </trkpt>
      <trkpt lat="42.4485500" lon="-8.0867870">
        <ele>434.4</ele>
        <time>2019-08-18T06:02:42Z</time>
      </trkpt>
      <trkpt lat="42.4485550" lon="-8.0868180">
        <ele>434.5</ele>
        <time>2019-08-18T06:02:43Z</time>
      </trkpt>
      <trkpt lat="42.4485600" lon="-8.0868490">
        <ele>434.7</ele>
        <time>2019-08-18T06:02:44Z</time>
      </trkpt>
      <trkpt lat="42.4485650" lon="-8.0868800">
        <ele>434.8</ele>
        <time>2019-08-18T06:02:45Z</time>
      </trkpt>
      <trkpt lat="42.4485690" lon="-8.0869120">
        <ele>435.0</ele>
        <time>2019-08-18T06:02:46Z</time>
      </trkpt>
      <trkpt lat="42.4485740" lon="-8.0869440">
        <ele>435.1</ele>
        <time>2019-08-18T06:02:47Z</time>
      </trkpt>
      <trkpt lat="42.4485780" lon="-8.0869770">
        <ele>435.3</ele>
        <time>2019-08-18T06:02:48Z</time>
      </trkpt>
      <trkpt lat="42.4485820" lon="-8.0870090">
        <ele>435.4</ele>
        <time>2019-08-18T06:02:49Z</time>
      </trkpt>
      <trkpt lat="42.4485870" lon="-8.0870420">
        <ele>435.6</ele>
        <time>2019-08-18T06:02:50Z</time>
      </trkpt>
      <trkpt lat="42.4485910" lon="-8.0870760">
        <ele>435.8</ele>
        <time>2019-08-18T06:02:51Z</time>
      </trkpt>
      <trkpt lat="42.4485960" lon="-8.0871090">
        <ele>436.0</ele>
        <time>2019-08-18T06:02:52Z</time>
      </trkpt>
      <trkpt lat="42.4486000" lon="-8.0871420">
        <ele>436.1</ele>
        <time>2019-08-18T06:02:53Z</time>
      </trkpt>
      <trkpt lat="42.4486050" lon="-8.0871750">
        <ele>436.3</ele>
        <time>2019-08-18T06:02:54Z</time>
      </trkpt>
      <trkpt lat="42.4486100" lon="-8.0872090">
        <ele>436.5</ele>
        <time>2019-08-18T06:02:55Z</time>
      </trkpt>
      <trkpt lat="42.4486150" lon="-8.0872420">
        <ele>436.7</ele>
        <time>2019-08-18T06:02:56Z</time>
      </trkpt>
      <trkpt lat="42.4486190" lon="-8.0872760">
        <ele>436.9</ele>
        <time>2019-08-18T06:02:57Z</time>
      </trkpt>
      <trkpt lat="42.4486240" lon="-8.0873090">
        <ele>437.1</ele>
        <time>2019-08-18T06:02:58Z</time>
      </trkpt>
      <trkpt lat="42.4486290" lon="-8.0873430">
        <ele>437.3</ele>
        <time>2019-08-18T06:02:59Z</time>
      </trkpt>
      <trkpt lat="42.4486340" lon="-8.0873760">
        <ele>437.5</ele>
        <time>2019-08-18T06:03:00Z</time>
      </trkpt>
      <trkpt lat="42.4486390" lon="-8.0874100">
        <ele>437.8</ele>
        <time>2019-08-18T06:03:01Z</time>
      </trkpt>
      <trkpt lat="42.4486440" lon="-8.0874440">
        <ele>438.0</ele>
        <time>2019-08-18T06:03:02Z</time>
      </trkpt>
      <trkpt lat="42.4486490" lon="-8.0874770">
        <ele>438.2</ele>
        <time>2019-08-18T06:03:03Z</time>
      </trkpt>
      <trkpt lat="42.4486540" lon="-8.0875110">
        <ele>438.4</ele>
        <time>2019-08-18T06:03:04Z</time>
      </trkpt>
      <trkpt lat="42.4486580" lon="-8.0875450">
        <ele>438.7</ele>
        <time>2019-08-18T06:03:05Z</time>
      </trkpt>
      <trkpt lat="42.4486630" lon="-8.0875780">
        <ele>438.9</ele>
        <time>2019-08-18T06:03:06Z</time>
      </trkpt>
      <trkpt lat="42.4486680" lon="-8.0876120">
        <ele>439.1</ele>
        <time>2019-08-18T06:03:07Z</time>
      </trkpt>
      <trkpt lat="42.4486730" lon="-8.0876460">
        <ele>439.4</ele>
        <time>2019-08-18T06:03:08Z</time>
      </trkpt>
      <trkpt lat="42.4486780" lon="-8.0876800">
        <ele>439.6</ele>
        <time>2019-08-18T06:03:09Z</time>
      </trkpt>
      <trkpt lat="42.4486820" lon="-8.0877130">
        <ele>439.8</ele>
        <time>2019-08-18T06:03:10Z</time>
      </trkpt>
      <trkpt lat="42.4486870" lon="-8.0877470">
        <ele>440.1</ele>
        <time>2019-08-18T06:03:11Z</time>
      </trkpt>
      <trkpt lat="42.4486920" lon="-8.0877810">
        <ele>440.3</ele>
        <time>2019-08-18T06:03:12Z</time>
      </trkpt>
      <trkpt lat="42.4486970" lon="-8.0878150">
        <ele>440.6</ele>
        <time>2019-08-18T06:03:13Z</time>
      </trkpt>
      <trkpt lat="42.4487020" lon="-8.0878490">
        <ele>440.8</ele>
        <time>2019-08-18T06:03:14Z</time>
      </trkpt>
      <trkpt lat="42.4487070" lon="-8.0878830">
        <ele>441.0</ele>
        <time>2019-08-18T06:03:15Z</time>
      </trkpt>
      <trkpt lat="42.4487120" lon="-8.0879170">
        <ele>441.2</ele>
        <time>2019-08-18T06:03:16Z</time>
      </trkpt>
      <trkpt lat="42.4487180" lon="-8.0879510">
        <ele>441.5</ele>
        <time>2019-08-18T06:03:17Z</time>
      </trkpt>
      <trkpt lat="42.4487230" lon="-8.0879860">
        <ele>441.7</ele>
        <time>2019-08-18T06:03:18Z</time>
      </trkpt>
      <trkpt lat="42.4487290" lon="-8.0880200">
        <ele>441.9</ele>
        <time>2019-08-18T06:03:19Z</time>
      </trkpt>
      <trkpt lat="42.4487350" lon="-8.0880550">
        <ele>442.0</ele>
        <time>2019-08-18T06:03:20Z</time>
      </trkpt>
      <trkpt lat="42.4487410" lon="-8.0880890">
        <ele>442.1</ele>
        <time>2019-08-18T06:03:21Z</time>
      </trkpt>
      <trkpt lat="42.4487470" lon="-8.0881240">
        <ele>442.2</ele>
        <time>2019-08-18T06:03:22Z</time>
      </trkpt>
      <trkpt lat="42.4487530" lon="-8.0881590">
        <ele>442.4</ele>
        <time>2019-08-18T06:03:23Z</time>
      </trkpt>
      <trkpt lat="42.4487590" lon="-8.0881940">
        <ele>442.5</ele>
        <time>2019-08-18T06:03:24Z</time>
      </trkpt>
      <trkpt lat="42.4487650" lon="-8.0882290">
        <ele>442.6</ele>
        <time>2019-08-18T06:03:25Z</time>
      </trkpt>
      <trkpt lat="42.4487710" lon="-8.0882650">
        <ele>442.7</ele>
        <time>2019-08-18T06:03:26Z</time>
      </trkpt>
      <trkpt lat="42.4487760" lon="-8.0883000">
        <ele>442.8</ele>
        <time>2019-08-18T06:03:27Z</time>
      </trkpt>
      <trkpt lat="42.4487820" lon="-8.0883360">
        <ele>442.9</ele>
        <time>2019-08-18T06:03:28Z</time>
      </trkpt>
      <trkpt lat="42.4487870" lon="-8.0883710">
        <ele>443.0</ele>
        <time>2019-08-18T06:03:29Z</time>
      </trkpt>
      <trkpt lat="42.4487920" lon="-8.0884070">
        <ele>443.1</ele>
        <time>2019-08-18T06:03:30Z</time>
      </trkpt>
      <trkpt lat="42.4487980" lon="-8.0884400">
        <ele>443.1</ele>
        <time>2019-08-18T06:03:31Z</time>
      </trkpt>
      <trkpt lat="42.4488060" lon="-8.0884720">
        <ele>443.4</ele>
        <time>2019-08-18T06:03:32Z</time>
      </trkpt>
      <trkpt lat="42.4488150" lon="-8.0885010">
        <ele>443.5</ele>
        <time>2019-08-18T06:03:33Z</time>
      </trkpt>
      <trkpt lat="42.4488270" lon="-8.0885260">
        <ele>443.6</ele>
        <time>2019-08-18T06:03:34Z</time>
      </trkpt>
      <trkpt lat="42.4488430" lon="-8.0885460">
        <ele>443.7</ele>
        <time>2019-08-18T06:03:35Z</time>
      </trkpt>
      <trkpt lat="42.4488610" lon="-8.0885620">
        <ele>443.8</ele>
        <time>2019-08-18T06:03:36Z</time>
      </trkpt>
      <trkpt lat="42.4488810" lon="-8.0885760">
        <ele>443.9</ele>
        <time>2019-08-18T06:03:37Z</time>
      </trkpt>
      <trkpt lat="42.4489000" lon="-8.0885900">
        <ele>444.0</ele>
        <time>2019-08-18T06:03:38Z</time>
      </trkpt>
      <trkpt lat="42.4489160" lon="-8.0886080">
        <ele>444.1</ele>
        <time>2019-08-18T06:03:39Z</time>
      </trkpt>
      <trkpt lat="42.4489270" lon="-8.0886310">
        <ele>444.2</ele>
        <time>2019-08-18T06:03:40Z</time>
      </trkpt>
      <trkpt lat="42.4489350" lon="-8.0886570">
        <ele>444.3</ele>
        <time>2019-08-18T06:03:41Z</time>
      </trkpt>
      <trkpt lat="42.4489430" lon="-8.0886800">
        <ele>444.3</ele>
        <time>2019-08-18T06:03:42Z</time>
      </trkpt>
      <trkpt lat="42.4489510" lon="-8.0886960">
        <ele>444.5</ele>
        <time>2019-08-18T06:03:43Z</time>
      </trkpt>
      <trkpt lat="42.4489630" lon="-8.0887030">
        <ele>444.6</ele>
        <time>2019-08-18T06:03:44Z</time>
      </trkpt>
      <trkpt lat="42.4489780" lon="-8.0887000">
        <ele>444.7</ele>
        <time>2019-08-18T06:03:45Z</time>
      </trkpt>
      <trkpt lat="42.4489950" lon="-8.0886920">
        <ele>444.9</ele>
        <time>2019-08-18T06:03:46Z</time>
      </trkpt>
      <trkpt lat="42.4490150" lon="-8.0886790">
        <ele>445.1</ele>
        <time>2019-08-18T06:03:47Z</time>
      </trkpt>
      <trkpt lat="42.4490350" lon="-8.0886630">
        <ele>445.4</ele>
        <time>2019-08-18T06:03:48Z</time>
      </trkpt>
      <trkpt lat="42.4490570" lon="-8.0886480">
        <ele>445.5</ele>
        <time>2019-08-18T06:03:49Z</time>
      </trkpt>
      <trkpt lat="42.4490790" lon="-8.0886360">
        <ele>445.6</ele>
        <time>2019-08-18T06:03:50Z</time>
      </trkpt>
      <trkpt lat="42.4491000" lon="-8.0886270">
        <ele>445.7</ele>
        <time>2019-08-18T06:03:51Z</time>
      </trkpt>
      <trkpt lat="42.4491210" lon="-8.0886210">
        <ele>445.8</ele>
        <time>2019-08-18T06:03:52Z</time>
      </trkpt>
      <trkpt lat="42.4491420" lon="-8.0886170">
        <ele>445.9</ele>
        <time>2019-08-18T06:03:53Z</time>
      </trkpt>
      <trkpt lat="42.4491630" lon="-8.0886130">
        <ele>446.0</ele>
        <time>2019-08-18T06:03:54Z</time>
      </trkpt>
      <trkpt lat="42.4491830" lon="-8.0886080">
        <ele>446.1</ele>
        <time>2019-08-18T06:03:55Z</time>
      </trkpt>
      <trkpt lat="42.4492010" lon="-8.0886030">
        <ele>446.2</ele>
        <time>2019-08-18T06:03:56Z</time>
      </trkpt>
      <trkpt lat="42.4492160" lon="-8.0886010">
        <ele>446.2</ele>
        <time>2019-08-18T06:03:57Z</time>
      </trkpt>
      <trkpt lat="42.4492250" lon="-8.0886040">
        <ele>446.3</ele>
        <time>2019-08-18T06:03:58Z</time>
      </trkpt>
      <trkpt lat="42.4492280" lon="-8.0886090">
        <ele>446.3</ele>
        <time>2019-08-18T06:03:59Z</time>
      </trkpt>
      <trkpt lat="42.4492260" lon="-8.0886140">
        <ele>446.3</ele>
        <time>2019-08-18T06:04:00Z</time>
      </trkpt>
      <trkpt lat="42.4492170" lon="-8.0886180">
        <ele>446.3</ele>
        <time>2019-08-18T06:04:01Z</time>
      </trkpt>
      <trkpt lat="42.4492020" lon="-8.0886190">
        <ele>446.4</ele>
        <time>2019-08-18T06:04:02Z</time>
      </trkpt>
      <trkpt lat="42.4491810" lon="-8.0886180">
        <ele>446.5</ele>
        <time>2019-08-18T06:04:03Z</time>
      </trkpt>
      <trkpt lat="42.4491540" lon="-8.0886190">
        <ele>446.6</ele>
        <time>2019-08-18T06:04:04Z</time>
      </trkpt>
      <trkpt lat="42.4491210" lon="-8.0886230">
        <ele>446.2</ele>
        <time>2019-08-18T06:04:05Z</time>
      </trkpt>
      <trkpt lat="42.4490860" lon="-8.0886320">
        <ele>445.8</ele>
        <time>2019-08-18T06:04:06Z</time>
      </trkpt>
      <trkpt lat="42.4490500" lon="-8.0886470">
        <ele>445.4</ele>
        <time>2019-08-18T06:04:07Z</time>
      </trkpt>
      <trkpt lat="42.4490160" lon="-8.0886710">
        <ele>445.9</ele>
        <time>2019-08-18T06:04:08Z</time>
      </trkpt>
      <trkpt lat="42.4489840" lon="-8.0887030">
        <ele>446.2</ele>
        <time>2019-08-18T06:04:09Z</time>
      </trkpt>
      <trkpt lat="42.4489570" lon="-8.0887410">
        <ele>446.5</ele>
        <time>2019-08-18T06:04:10Z</time>
      </trkpt>
      <trkpt lat="42.4489270" lon="-8.0888060">
        <ele>447.0</ele>
        <time>2019-08-18T06:04:11Z</time>
      </trkpt>
      <trkpt lat="42.4489190" lon="-8.0888270">
        <ele>447.1</ele>
        <time>2019-08-18T06:04:12Z</time>
      </trkpt>
      <trkpt lat="42.4489090" lon="-8.0888690">
        <ele>447.4</ele>
        <time>2019-08-18T06:04:13Z</time>
      </trkpt>
      <trkpt lat="42.4489040" lon="-8.0889100">
        <ele>447.6</ele>
        <time>2019-08-18T06:04:14Z</time>
      </trkpt>
      <trkpt lat="42.4489050" lon="-8.0889500">
        <ele>447.8</ele>
        <time>2019-08-18T06:04:15Z</time>
      </trkpt>
      <trkpt lat="42.4489090" lon="-8.0889880">
        <ele>448.0</ele>
        <time>2019-08-18T06:04:16Z</time>
      </trkpt>
      <trkpt lat="42.4489160" lon="-8.0890260">
        <ele>448.3</ele>
        <time>2019-08-18T06:04:17Z</time>
      </trkpt>
      <trkpt lat="42.4489240" lon="-8.0890640">
        <ele>448.5</ele>
        <time>2019-08-18T06:04:18Z</time>
      </trkpt>
      <trkpt lat="42.4489340" lon="-8.0891020">
        <ele>448.7</ele>
        <time>2019-08-18T06:04:19Z</time>
      </trkpt>
      <trkpt lat="42.4489440" lon="-8.0891390">
        <ele>449.0</ele>
        <time>2019-08-18T06:04:20Z</time>
      </trkpt>
      <trkpt lat="42.4489530" lon="-8.0891770">
        <ele>449.2</ele>
        <time>2019-08-18T06:04:21Z</time>
      </trkpt>
      <trkpt lat="42.4489630" lon="-8.0892150">
        <ele>449.4</ele>
        <time>2019-08-18T06:04:22Z</time>
      </trkpt>
      <trkpt lat="42.4489730" lon="-8.0892530">
        <ele>449.6</ele>
        <time>2019-08-18T06:04:23Z</time>
      </trkpt>
      <trkpt lat="42.4489820" lon="-8.0892910">
        <ele>449.9</ele>
        <time>2019-08-18T06:04:24Z</time>
      </trkpt>
      <trkpt lat="42.4489910" lon="-8.0893290">
        <ele>450.1</ele>
        <time>2019-08-18T06:04:25Z</time>
      </trkpt>
      <trkpt lat="42.4490010" lon="-8.0893670">
        <ele>450.3</ele>
        <time>2019-08-18T06:04:26Z</time>
      </trkpt>
      <trkpt lat="42.4490100" lon="-8.0894050">
        <ele>450.6</ele>
        <time>2019-08-18T06:04:27Z</time>
      </trkpt>
      <trkpt lat="42.4490190" lon="-8.0894430">
        <ele>450.8</ele>
        <time>2019-08-18T06:04:28Z</time>
      </trkpt>
      <trkpt lat="42.4490290" lon="-8.0894810">
        <ele>451.1</ele>
        <time>2019-08-18T06:04:29Z</time>
      </trkpt>
      <trkpt lat="42.4490380" lon="-8.0895180">
        <ele>451.3</ele>
        <time>2019-08-18T06:04:30Z</time>
      </trkpt>
      <trkpt lat="42.4490470" lon="-8.0895550">
        <ele>451.5</ele>
        <time>2019-08-18T06:04:31Z</time>
      </trkpt>
      <trkpt lat="42.4490560" lon="-8.0895920">
        <ele>451.8</ele>
        <time>2019-08-18T06:04:32Z</time>
      </trkpt>
      <trkpt lat="42.4490650" lon="-8.0896290">
        <ele>452.0</ele>
        <time>2019-08-18T06:04:33Z</time>
      </trkpt>
      <trkpt lat="42.4490740" lon="-8.0896650">
        <ele>452.3</ele>
        <time>2019-08-18T06:04:34Z</time>
      </trkpt>
      <trkpt lat="42.4490830" lon="-8.0897010">
        <ele>452.5</ele>
        <time>2019-08-18T06:04:35Z</time>
      </trkpt>
      <trkpt lat="42.4490920" lon="-8.0897360">
        <ele>452.8</ele>
        <time>2019-08-18T06:04:36Z</time>
      </trkpt>
      <trkpt lat="42.4491000" lon="-8.0897720">
        <ele>453.0</ele>
        <time>2019-08-18T06:04:37Z</time>
      </trkpt>
      <trkpt lat="42.4491090" lon="-8.0898060">
        <ele>453.2</ele>
        <time>2019-08-18T06:04:38Z</time>
      </trkpt>
      <trkpt lat="42.4491180" lon="-8.0898410">
        <ele>453.5</ele>
        <time>2019-08-18T06:04:39Z</time>
      </trkpt>
      <trkpt lat="42.4491260" lon="-8.0898750">
        <ele>453.7</ele>
        <time>2019-08-18T06:04:40Z</time>
      </trkpt>
      <trkpt lat="42.4491340" lon="-8.0899090">
        <ele>453.9</ele>
        <time>2019-08-18T06:04:41Z</time>
      </trkpt>
      <trkpt lat="42.4491430" lon="-8.0899430">
        <ele>454.1</ele>
        <time>2019-08-18T06:04:42Z</time>
      </trkpt>
      <trkpt lat="42.4491510" lon="-8.0899770">
        <ele>454.4</ele>
        <time>2019-08-18T06:04:43Z</time>
      </trkpt>
      <trkpt lat="42.4491590" lon="-8.0900100">
        <ele>454.6</ele>
        <time>2019-08-18T06:04:44Z</time>
      </trkpt>
      <trkpt lat="42.4491670" lon="-8.0900430">
        <ele>454.8</ele>
        <time>2019-08-18T06:04:45Z</time>
      </trkpt>
      <trkpt lat="42.4491740" lon="-8.0900760">
        <ele>455.0</ele>
        <time>2019-08-18T06:04:46Z</time>
      </trkpt>
      <trkpt lat="42.4491820" lon="-8.0901080">
        <ele>455.3</ele>
        <time>2019-08-18T06:04:47Z</time>
      </trkpt>
      <trkpt lat="42.4491900" lon="-8.0901410">
        <ele>455.5</ele>
        <time>2019-08-18T06:04:48Z</time>
      </trkpt>
      <trkpt lat="42.4491970" lon="-8.0901730">
        <ele>455.7</ele>
        <time>2019-08-18T06:04:49Z</time>
      </trkpt>
      <trkpt lat="42.4492040" lon="-8.0902050">
        <ele>455.9</ele>
        <time>2019-08-18T06:04:50Z</time>
      </trkpt>
      <trkpt lat="42.4492120" lon="-8.0902360">
        <ele>456.0</ele>
        <time>2019-08-18T06:04:51Z</time>
      </trkpt>
      <trkpt lat="42.4492200" lon="-8.0902670">
        <ele>456.2</ele>
        <time>2019-08-18T06:04:52Z</time>
      </trkpt>
      <trkpt lat="42.4492300" lon="-8.0902980">
        <ele>456.4</ele>
        <time>2019-08-18T06:04:53Z</time>
      </trkpt>
      <trkpt lat="42.4492400" lon="-8.0903280">
        <ele>456.6</ele>
        <time>2019-08-18T06:04:54Z</time>
      </trkpt>
      <trkpt lat="42.4492520" lon="-8.0903570">
        <ele>456.8</ele>
        <time>2019-08-18T06:04:55Z</time>
      </trkpt>
      <trkpt lat="42.4492650" lon="-8.0903850">
        <ele>457.0</ele>
        <time>2019-08-18T06:04:56Z</time>
      </trkpt>
      <trkpt lat="42.4492790" lon="-8.0904130">
        <ele>457.2</ele>
        <time>2019-08-18T06:04:57Z</time>
      </trkpt>
      <trkpt lat="42.4492940" lon="-8.0904410">
        <ele>457.3</ele>
        <time>2019-08-18T06:04:58Z</time>
      </trkpt>
      <trkpt lat="42.4493100" lon="-8.0904690">
        <ele>457.3</ele>
        <time>2019-08-18T06:04:59Z</time>
      </trkpt>
      <trkpt lat="42.4493240" lon="-8.0904980">
        <ele>457.3</ele>
        <time>2019-08-18T06:05:00Z</time>
      </trkpt>
      <trkpt lat="42.4493380" lon="-8.0905270">
        <ele>457.3</ele>
        <time>2019-08-18T06:05:01Z</time>
      </trkpt>
      <trkpt lat="42.4493500" lon="-8.0905580">
        <ele>457.5</ele>
        <time>2019-08-18T06:05:02Z</time>
      </trkpt>
      <trkpt lat="42.4493610" lon="-8.0905900">
        <ele>457.6</ele>
        <time>2019-08-18T06:05:03Z</time>
      </trkpt>
      <trkpt lat="42.4493700" lon="-8.0906240">
        <ele>457.8</ele>
        <time>2019-08-18T06:05:04Z</time>
      </trkpt>
      <trkpt lat="42.4493780" lon="-8.0906580">
        <ele>457.8</ele>
        <time>2019-08-18T06:05:05Z</time>
      </trkpt>
      <trkpt lat="42.4493850" lon="-8.0906930">
        <ele>457.9</ele>
        <time>2019-08-18T06:05:06Z</time>
      </trkpt>
      <trkpt lat="42.4493920" lon="-8.0907270">
        <ele>457.9</ele>
        <time>2019-08-18T06:05:07Z</time>
      </trkpt>
      <trkpt lat="42.4493990" lon="-8.0907620">
        <ele>458.0</ele>
        <time>2019-08-18T06:05:08Z</time>
      </trkpt>
      <trkpt lat="42.4494060" lon="-8.0907960">
        <ele>458.2</ele>
        <time>2019-08-18T06:05:09Z</time>
      </trkpt>
      <trkpt lat="42.4494140" lon="-8.0908280">
        <ele>458.3</ele>
        <time>2019-08-18T06:05:10Z</time>
      </trkpt>
      <trkpt lat="42.4494230" lon="-8.0908600">
        <ele>458.4</ele>
        <time>2019-08-18T06:05:11Z</time>
      </trkpt>
      <trkpt lat="42.4494320" lon="-8.0908900">
        <ele>458.6</ele>
        <time>2019-08-18T06:05:12Z</time>
      </trkpt>
      <trkpt lat="42.4494430" lon="-8.0909190">
        <ele>458.7</ele>
        <time>2019-08-18T06:05:13Z</time>
      </trkpt>
      <trkpt lat="42.4494530" lon="-8.0909480">
        <ele>458.9</ele>
        <time>2019-08-18T06:05:14Z</time>
      </trkpt>
      <trkpt lat="42.4494630" lon="-8.0909760">
        <ele>459.0</ele>
        <time>2019-08-18T06:05:15Z</time>
      </trkpt>
      <trkpt lat="42.4494720" lon="-8.0910040">
        <ele>459.2</ele>
        <time>2019-08-18T06:05:16Z</time>
      </trkpt>
      <trkpt lat="42.4494800" lon="-8.0910320">
        <ele>459.3</ele>
        <time>2019-08-18T06:05:17Z</time>
      </trkpt>
      <trkpt lat="42.4494880" lon="-8.0910610">
        <ele>459.5</ele>
        <time>2019-08-18T06:05:18Z</time>
      </trkpt>
      <trkpt lat="42.4494940" lon="-8.0910900">
        <ele>459.6</ele>
        <time>2019-08-18T06:05:19Z</time>
      </trkpt>
      <trkpt lat="42.4494990" lon="-8.0911200">
        <ele>459.7</ele>
        <time>2019-08-18T06:05:20Z</time>
      </trkpt>
      <trkpt lat="42.4495050" lon="-8.0911490">
        <ele>459.8</ele>
        <time>2019-08-18T06:05:21Z</time>
      </trkpt>
      <trkpt lat="42.4495100" lon="-8.0911780">
        <ele>460.0</ele>
        <time>2019-08-18T06:05:22Z</time>
      </trkpt>
      <trkpt lat="42.4495160" lon="-8.0912080">
        <ele>460.1</ele>
        <time>2019-08-18T06:05:23Z</time>
      </trkpt>
      <trkpt lat="42.4495230" lon="-8.0912360">
        <ele>460.2</ele>
        <time>2019-08-18T06:05:24Z</time>
      </trkpt>
      <trkpt lat="42.4495310" lon="-8.0912650">
        <ele>460.2</ele>
        <time>2019-08-18T06:05:25Z</time>
      </trkpt>
      <trkpt lat="42.4495410" lon="-8.0912930">
        <ele>460.3</ele>
        <time>2019-08-18T06:05:26Z</time>
      </trkpt>
      <trkpt lat="42.4495510" lon="-8.0913200">
        <ele>460.3</ele>
        <time>2019-08-18T06:05:27Z</time>
      </trkpt>
      <trkpt lat="42.4495620" lon="-8.0913480">
        <ele>460.3</ele>
        <time>2019-08-18T06:05:28Z</time>
      </trkpt>
      <trkpt lat="42.4495710" lon="-8.0913750">
        <ele>460.4</ele>
        <time>2019-08-18T06:05:29Z</time>
      </trkpt>
      <trkpt lat="42.4495800" lon="-8.0914030">
        <ele>460.4</ele>
        <time>2019-08-18T06:05:30Z</time>
      </trkpt>
      <trkpt lat="42.4495880" lon="-8.0914310">
        <ele>460.4</ele>
        <time>2019-08-18T06:05:31Z</time>
      </trkpt>
      <trkpt lat="42.4495950" lon="-8.0914580">
        <ele>460.4</ele>
        <time>2019-08-18T06:05:32Z</time>
      </trkpt>
      <trkpt lat="42.4496030" lon="-8.0914850">
        <ele>460.4</ele>
        <time>2019-08-18T06:05:33Z</time>
      </trkpt>
      <trkpt lat="42.4496110" lon="-8.0915120">
        <ele>460.4</ele>
        <time>2019-08-18T06:05:34Z</time>
      </trkpt>
      <trkpt lat="42.4496190" lon="-8.0915380">
        <ele>460.3</ele>
        <time>2019-08-18T06:05:35Z</time>
      </trkpt>
      <trkpt lat="42.4496280" lon="-8.0915640">
        <ele>460.4</ele>
        <time>2019-08-18T06:05:36Z</time>
      </trkpt>
      <trkpt lat="42.4496370" lon="-8.0915890">
        <ele>460.4</ele>
        <time>2019-08-18T06:05:37Z</time>
      </trkpt>
      <trkpt lat="42.4496460" lon="-8.0916140">
        <ele>460.5</ele>
        <time>2019-08-18T06:05:38Z</time>
      </trkpt>
      <trkpt lat="42.4496560" lon="-8.0916390">
        <ele>460.6</ele>
        <time>2019-08-18T06:05:39Z</time>
      </trkpt>
      <trkpt lat="42.4496660" lon="-8.0916630">
        <ele>460.6</ele>
        <time>2019-08-18T06:05:40Z</time>
      </trkpt>
      <trkpt lat="42.4496770" lon="-8.0916870">
        <ele>460.7</ele>
        <time>2019-08-18T06:05:41Z</time>
      </trkpt>
      <trkpt lat="42.4496870" lon="-8.0917100">
        <ele>460.7</ele>
        <time>2019-08-18T06:05:42Z</time>
      </trkpt>
      <trkpt lat="42.4496980" lon="-8.0917340">
        <ele>460.7</ele>
        <time>2019-08-18T06:05:43Z</time>
      </trkpt>
      <trkpt lat="42.4497090" lon="-8.0917570">
        <ele>460.7</ele>
        <time>2019-08-18T06:05:44Z</time>
      </trkpt>
      <trkpt lat="42.4497210" lon="-8.0917800">
        <ele>460.8</ele>
        <time>2019-08-18T06:05:45Z</time>
      </trkpt>
      <trkpt lat="42.4497330" lon="-8.0918030">
        <ele>460.8</ele>
        <time>2019-08-18T06:05:46Z</time>
      </trkpt>
      <trkpt lat="42.4497450" lon="-8.0918250">
        <ele>460.8</ele>
        <time>2019-08-18T06:05:47Z</time>
      </trkpt>
      <trkpt lat="42.4497570" lon="-8.0918470">
        <ele>460.9</ele>
        <time>2019-08-18T06:05:48Z</time>
      </trkpt>
      <trkpt lat="42.4497690" lon="-8.0918700">
        <ele>460.9</ele>
        <time>2019-08-18T06:05:49Z</time>
      </trkpt>
      <trkpt lat="42.4497820" lon="-8.0918920">
        <ele>461.0</ele>
        <time>2019-08-18T06:05:50Z</time>
      </trkpt>
      <trkpt lat="42.4497940" lon="-8.0919140">
        <ele>461.1</ele>
        <time>2019-08-18T06:05:51Z</time>
      </trkpt>
      <trkpt lat="42.4498070" lon="-8.0919360">
        <ele>461.2</ele>
        <time>2019-08-18T06:05:52Z</time>
      </trkpt>
      <trkpt lat="42.4498200" lon="-8.0919570">
        <ele>461.4</ele>
        <time>2019-08-18T06:05:53Z</time>
      </trkpt>
      <trkpt lat="42.4498340" lon="-8.0919790">
        <ele>461.5</ele>
        <time>2019-08-18T06:05:54Z</time>
      </trkpt>
      <trkpt lat="42.4498470" lon="-8.0920010">
        <ele>461.5</ele>
        <time>2019-08-18T06:05:55Z</time>
      </trkpt>
      <trkpt lat="42.4498600" lon="-8.0920230">
        <ele>461.6</ele>
        <time>2019-08-18T06:05:56Z</time>
      </trkpt>
      <trkpt lat="42.4498740" lon="-8.0920450">
        <ele>461.6</ele>
        <time>2019-08-18T06:05:57Z</time>
      </trkpt>
      <trkpt lat="42.4498880" lon="-8.0920670">
        <ele>461.7</ele>
        <time>2019-08-18T06:05:58Z</time>
      </trkpt>
      <trkpt lat="42.4499020" lon="-8.0920890">
        <ele>461.9</ele>
        <time>2019-08-18T06:05:59Z</time>
      </trkpt>
      <trkpt lat="42.4499150" lon="-8.0921110">
        <ele>462.1</ele>
        <time>2019-08-18T06:06:00Z</time>
      </trkpt>
      <trkpt lat="42.4499290" lon="-8.0921330">
        <ele>462.3</ele>
        <time>2019-08-18T06:06:01Z</time>
      </trkpt>
      <trkpt lat="42.4499440" lon="-8.0921560">
        <ele>462.6</ele>
        <time>2019-08-18T06:06:02Z</time>
      </trkpt>
      <trkpt lat="42.4499580" lon="-8.0921780">
        <ele>462.8</ele>
        <time>2019-08-18T06:06:03Z</time>
      </trkpt>
      <trkpt lat="42.4499720" lon="-8.0922010">
        <ele>463.0</ele>
        <time>2019-08-18T06:06:04Z</time>
      </trkpt>
      <trkpt lat="42.4499870" lon="-8.0922230">
        <ele>463.3</ele>
        <time>2019-08-18T06:06:05Z</time>
      </trkpt>
      <trkpt lat="42.4500020" lon="-8.0922440">
        <ele>463.5</ele>
        <time>2019-08-18T06:06:06Z</time>
      </trkpt>
      <trkpt lat="42.4500180" lon="-8.0922660">
        <ele>463.8</ele>
        <time>2019-08-18T06:06:07Z</time>
      </trkpt>
      <trkpt lat="42.4500340" lon="-8.0922860">
        <ele>464.0</ele>
        <time>2019-08-18T06:06:08Z</time>
      </trkpt>
      <trkpt lat="42.4500510" lon="-8.0923060">
        <ele>464.3</ele>
        <time>2019-08-18T06:06:09Z</time>
      </trkpt>
      <trkpt lat="42.4500680" lon="-8.0923240">
        <ele>464.6</ele>
        <time>2019-08-18T06:06:10Z</time>
      </trkpt>
      <trkpt lat="42.4500860" lon="-8.0923430">
        <ele>464.9</ele>
        <time>2019-08-18T06:06:11Z</time>
      </trkpt>
      <trkpt lat="42.4501050" lon="-8.0923600">
        <ele>465.1</ele>
        <time>2019-08-18T06:06:12Z</time>
      </trkpt>
      <trkpt lat="42.4501230" lon="-8.0923780">
        <ele>465.4</ele>
        <time>2019-08-18T06:06:13Z</time>
      </trkpt>
      <trkpt lat="42.4501410" lon="-8.0923960">
        <ele>465.7</ele>
        <time>2019-08-18T06:06:14Z</time>
      </trkpt>
      <trkpt lat="42.4501580" lon="-8.0924150">
        <ele>466.0</ele>
        <time>2019-08-18T06:06:15Z</time>
      </trkpt>
      <trkpt lat="42.4501750" lon="-8.0924350">
        <ele>466.3</ele>
        <time>2019-08-18T06:06:16Z</time>
      </trkpt>
      <trkpt lat="42.4501910" lon="-8.0924550">
        <ele>466.5</ele>
        <time>2019-08-18T06:06:17Z</time>
      </trkpt>
      <trkpt lat="42.4502060" lon="-8.0924760">
        <ele>466.8</ele>
        <time>2019-08-18T06:06:18Z</time>
      </trkpt>
      <trkpt lat="42.4502230" lon="-8.0924970">
        <ele>467.1</ele>
        <time>2019-08-18T06:06:19Z</time>
      </trkpt>
      <trkpt lat="42.4502410" lon="-8.0925150">
        <ele>467.4</ele>
        <time>2019-08-18T06:06:20Z</time>
      </trkpt>
      <trkpt lat="42.4502620" lon="-8.0925320">
        <ele>467.8</ele>
        <time>2019-08-18T06:06:21Z</time>
      </trkpt>
      <trkpt lat="42.4502840" lon="-8.0925470">
        <ele>467.8</ele>
        <time>2019-08-18T06:06:22Z</time>
      </trkpt>
      <trkpt lat="42.4503060" lon="-8.0925600">
        <ele>467.8</ele>
        <time>2019-08-18T06:06:23Z</time>
      </trkpt>
      <trkpt lat="42.4503290" lon="-8.0925730">
        <ele>468.2</ele>
        <time>2019-08-18T06:06:24Z</time>
      </trkpt>
      <trkpt lat="42.4503500" lon="-8.0925850">
        <ele>468.6</ele>
        <time>2019-08-18T06:06:25Z</time>
      </trkpt>
      <trkpt lat="42.4503710" lon="-8.0925960">
        <ele>468.9</ele>
        <time>2019-08-18T06:06:26Z</time>
      </trkpt>
      <trkpt lat="42.4503920" lon="-8.0926070">
        <ele>469.2</ele>
        <time>2019-08-18T06:06:27Z</time>
      </trkpt>
      <trkpt lat="42.4504120" lon="-8.0926170">
        <ele>469.5</ele>
        <time>2019-08-18T06:06:28Z</time>
      </trkpt>
      <trkpt lat="42.4504330" lon="-8.0926270">
        <ele>469.8</ele>
        <time>2019-08-18T06:06:29Z</time>
      </trkpt>
      <trkpt lat="42.4504540" lon="-8.0926360">
        <ele>470.1</ele>
        <time>2019-08-18T06:06:30Z</time>
      </trkpt>
      <trkpt lat="42.4504750" lon="-8.0926440">
        <ele>470.6</ele>
        <time>2019-08-18T06:06:31Z</time>
      </trkpt>
      <trkpt lat="42.4504960" lon="-8.0926530">
        <ele>471.2</ele>
        <time>2019-08-18T06:06:32Z</time>
      </trkpt>
      <trkpt lat="42.4505170" lon="-8.0926610">
        <ele>471.8</ele>
        <time>2019-08-18T06:06:33Z</time>
      </trkpt>
      <trkpt lat="42.4505390" lon="-8.0926700">
        <ele>472.4</ele>
        <time>2019-08-18T06:06:34Z</time>
      </trkpt>
      <trkpt lat="42.4505610" lon="-8.0926790">
        <ele>472.9</ele>
        <time>2019-08-18T06:06:35Z</time>
      </trkpt>
      <trkpt lat="42.4505820" lon="-8.0926890">
        <ele>473.4</ele>
        <time>2019-08-18T06:06:36Z</time>
      </trkpt>
      <trkpt lat="42.4506040" lon="-8.0926990">
        <ele>473.9</ele>
        <time>2019-08-18T06:06:37Z</time>
      </trkpt>
      <trkpt lat="42.4506260" lon="-8.0927110">
        <ele>474.4</ele>
        <time>2019-08-18T06:06:38Z</time>
      </trkpt>
      <trkpt lat="42.4506480" lon="-8.0927230">
        <ele>474.9</ele>
        <time>2019-08-18T06:06:39Z</time>
      </trkpt>
      <trkpt lat="42.4506690" lon="-8.0927360">
        <ele>475.3</ele>
        <time>2019-08-18T06:06:40Z</time>
      </trkpt>
      <trkpt lat="42.4506910" lon="-8.0927470">
        <ele>475.7</ele>
        <time>2019-08-18T06:06:41Z</time>
      </trkpt>
      <trkpt lat="42.4507130" lon="-8.0927550">
        <ele>476.1</ele>
        <time>2019-08-18T06:06:42Z</time>
      </trkpt>
      <trkpt lat="42.4507340" lon="-8.0927590">
        <ele>476.5</ele>
        <time>2019-08-18T06:06:43Z</time>
      </trkpt>
      <trkpt lat="42.4507560" lon="-8.0927610">
        <ele>477.0</ele>
        <time>2019-08-18T06:06:44Z</time>
      </trkpt>
      <trkpt lat="42.4507770" lon="-8.0927610">
        <ele>477.4</ele>
        <time>2019-08-18T06:06:45Z</time>
      </trkpt>
      <trkpt lat="42.4507990" lon="-8.0927600">
        <ele>477.8</ele>
        <time>2019-08-18T06:06:46Z</time>
      </trkpt>
      <trkpt lat="42.4508200" lon="-8.0927600">
        <ele>478.3</ele>
        <time>2019-08-18T06:06:47Z</time>
      </trkpt>
      <trkpt lat="42.4508420" lon="-8.0927590">
        <ele>479.0</ele>
        <time>2019-08-18T06:06:48Z</time>
      </trkpt>
      <trkpt lat="42.4508630" lon="-8.0927590">
        <ele>479.7</ele>
        <time>2019-08-18T06:06:49Z</time>
      </trkpt>
      <trkpt lat="42.4508840" lon="-8.0927580">
        <ele>480.4</ele>
        <time>2019-08-18T06:06:50Z</time>
      </trkpt>
      <trkpt lat="42.4509050" lon="-8.0927570">
        <ele>480.9</ele>
        <time>2019-08-18T06:06:51Z</time>
      </trkpt>
      <trkpt lat="42.4509260" lon="-8.0927570">
        <ele>481.4</ele>
        <time>2019-08-18T06:06:52Z</time>
      </trkpt>
      <trkpt lat="42.4509460" lon="-8.0927560">
        <ele>481.8</ele>
        <time>2019-08-18T06:06:53Z</time>
      </trkpt>
      <trkpt lat="42.4509670" lon="-8.0927560">
        <ele>482.4</ele>
        <time>2019-08-18T06:06:54Z</time>
      </trkpt>
      <trkpt lat="42.4509870" lon="-8.0927550">
        <ele>483.2</ele>
        <time>2019-08-18T06:06:55Z</time>
      </trkpt>
      <trkpt lat="42.4510060" lon="-8.0927550">
        <ele>483.9</ele>
        <time>2019-08-18T06:06:56Z</time>
      </trkpt>
      <trkpt lat="42.4510240" lon="-8.0927540">
        <ele>484.6</ele>
        <time>2019-08-18T06:06:57Z</time>
      </trkpt>
      <trkpt lat="42.4510420" lon="-8.0927530">
        <ele>485.3</ele>
        <time>2019-08-18T06:06:58Z</time>
      </trkpt>
      <trkpt lat="42.4510590" lon="-8.0927520">
        <ele>485.7</ele>
        <time>2019-08-18T06:06:59Z</time>
      </trkpt>
      <trkpt lat="42.4510750" lon="-8.0927510">
        <ele>486.2</ele>
        <time>2019-08-18T06:07:00Z</time>
      </trkpt>
      <trkpt lat="42.4510900" lon="-8.0927490">
        <ele>486.6</ele>
        <time>2019-08-18T06:07:01Z</time>
      </trkpt>
      <trkpt lat="42.4511040" lon="-8.0927470">
        <ele>486.9</ele>
        <time>2019-08-18T06:07:02Z</time>
      </trkpt>
      <trkpt lat="42.4511180" lon="-8.0927460">
        <ele>487.3</ele>
        <time>2019-08-18T06:07:03Z</time>
      </trkpt>
      <trkpt lat="42.4511310" lon="-8.0927440">
        <ele>487.7</ele>
        <time>2019-08-18T06:07:04Z</time>
      </trkpt>
      <trkpt lat="42.4511440" lon="-8.0927420">
        <ele>488.2</ele>
        <time>2019-08-18T06:07:05Z</time>
      </trkpt>
      <trkpt lat="42.4511570" lon="-8.0927400">
        <ele>488.7</ele>
        <time>2019-08-18T06:07:06Z</time>
      </trkpt>
      <trkpt lat="42.4511700" lon="-8.0927380">
        <ele>489.2</ele>
        <time>2019-08-18T06:07:07Z</time>
      </trkpt>
      <trkpt lat="42.4511840" lon="-8.0927370">
        <ele>489.7</ele>
        <time>2019-08-18T06:07:08Z</time>
      </trkpt>
      <trkpt lat="42.4511980" lon="-8.0927350">
        <ele>490.2</ele>
        <time>2019-08-18T06:07:09Z</time>
      </trkpt>
      <trkpt lat="42.4512120" lon="-8.0927340">
        <ele>490.7</ele>
        <time>2019-08-18T06:07:10Z</time>
      </trkpt>
      <trkpt lat="42.4512260" lon="-8.0927320">
        <ele>491.1</ele>
        <time>2019-08-18T06:07:11Z</time>
      </trkpt>
      <trkpt lat="42.4512400" lon="-8.0927300">
        <ele>491.5</ele>
        <time>2019-08-18T06:07:12Z</time>
      </trkpt>
      <trkpt lat="42.4512540" lon="-8.0927270">
        <ele>492.0</ele>
        <time>2019-08-18T06:07:13Z</time>
      </trkpt>
      <trkpt lat="42.4512680" lon="-8.0927240">
        <ele>492.4</ele>
        <time>2019-08-18T06:07:14Z</time>
      </trkpt>
      <trkpt lat="42.4512820" lon="-8.0927200">
        <ele>492.8</ele>
        <time>2019-08-18T06:07:15Z</time>
      </trkpt>
      <trkpt lat="42.4512950" lon="-8.0927160">
        <ele>493.2</ele>
        <time>2019-08-18T06:07:16Z</time>
      </trkpt>
      <trkpt lat="42.4513090" lon="-8.0927110">
        <ele>493.6</ele>
        <time>2019-08-18T06:07:17Z</time>
      </trkpt>
      <trkpt lat="42.4513240" lon="-8.0927050">
        <ele>494.1</ele>
        <time>2019-08-18T06:07:18Z</time>
      </trkpt>
      <trkpt lat="42.4513390" lon="-8.0926990">
        <ele>494.4</ele>
        <time>2019-08-18T06:07:19Z</time>
      </trkpt>
      <trkpt lat="42.4513550" lon="-8.0926930">
        <ele>494.4</ele>
        <time>2019-08-18T06:07:20Z</time>
      </trkpt>
      <trkpt lat="42.4513730" lon="-8.0926860">
        <ele>494.4</ele>
        <time>2019-08-18T06:07:21Z</time>
      </trkpt>
      <trkpt lat="42.4513920" lon="-8.0926790">
        <ele>494.4</ele>
        <time>2019-08-18T06:07:22Z</time>
      </trkpt>
      <trkpt lat="42.4514130" lon="-8.0926710">
        <ele>494.4</ele>
        <time>2019-08-18T06:07:23Z</time>
      </trkpt>
      <trkpt lat="42.4514350" lon="-8.0926630">
        <ele>494.6</ele>
        <time>2019-08-18T06:07:24Z</time>
      </trkpt>
      <trkpt lat="42.4514590" lon="-8.0926550">
        <ele>495.3</ele>
        <time>2019-08-18T06:07:25Z</time>
      </trkpt>
      <trkpt lat="42.4514830" lon="-8.0926460">
        <ele>496.1</ele>
        <time>2019-08-18T06:07:26Z</time>
      </trkpt>
      <trkpt lat="42.4515070" lon="-8.0926370">
        <ele>496.8</ele>
        <time>2019-08-18T06:07:27Z</time>
      </trkpt>
      <trkpt lat="42.4515320" lon="-8.0926280">
        <ele>497.3</ele>
        <time>2019-08-18T06:07:28Z</time>
      </trkpt>
      <trkpt lat="42.4515560" lon="-8.0926180">
        <ele>497.8</ele>
        <time>2019-08-18T06:07:29Z</time>
      </trkpt>
      <trkpt lat="42.4515790" lon="-8.0926080">
        <ele>498.3</ele>
        <time>2019-08-18T06:07:30Z</time>
      </trkpt>
      <trkpt lat="42.4516020" lon="-8.0925980">
        <ele>498.8</ele>
        <time>2019-08-18T06:07:31Z</time>
      </trkpt>
      <trkpt lat="42.4516240" lon="-8.0925880">
        <ele>499.2</ele>
        <time>2019-08-18T06:07:32Z</time>
      </trkpt>
      <trkpt lat="42.4516450" lon="-8.0925770">
        <ele>499.7</ele>
        <time>2019-08-18T06:07:33Z</time>
      </trkpt>
      <trkpt lat="42.4516660" lon="-8.0925660">
        <ele>500.1</ele>
        <time>2019-08-18T06:07:34Z</time>
      </trkpt>
      <trkpt lat="42.4516860" lon="-8.0925550">
        <ele>500.5</ele>
        <time>2019-08-18T06:07:35Z</time>
      </trkpt>
      <trkpt lat="42.4517060" lon="-8.0925440">
        <ele>500.9</ele>
        <time>2019-08-18T06:07:36Z</time>
      </trkpt>
      <trkpt lat="42.4517250" lon="-8.0925330">
        <ele>501.3</ele>
        <time>2019-08-18T06:07:37Z</time>
      </trkpt>
      <trkpt lat="42.4517440" lon="-8.0925210">
        <ele>501.7</ele>
        <time>2019-08-18T06:07:38Z</time>
      </trkpt>
      <trkpt lat="42.4517620" lon="-8.0925100">
        <ele>502.0</ele>
        <time>2019-08-18T06:07:39Z</time>
      </trkpt>
      <trkpt lat="42.4517810" lon="-8.0924990">
        <ele>502.3</ele>
        <time>2019-08-18T06:07:40Z</time>
      </trkpt>
      <trkpt lat="42.4517990" lon="-8.0924870">
        <ele>502.6</ele>
        <time>2019-08-18T06:07:41Z</time>
      </trkpt>
      <trkpt lat="42.4518170" lon="-8.0924760">
        <ele>502.9</ele>
        <time>2019-08-18T06:07:42Z</time>
      </trkpt>
      <trkpt lat="42.4518350" lon="-8.0924650">
        <ele>503.2</ele>
        <time>2019-08-18T06:07:43Z</time>
      </trkpt>
      <trkpt lat="42.4518530" lon="-8.0924540">
        <ele>503.5</ele>
        <time>2019-08-18T06:07:44Z</time>
      </trkpt>
      <trkpt lat="42.4518700" lon="-8.0924430">
        <ele>503.8</ele>
        <time>2019-08-18T06:07:45Z</time>
      </trkpt>
      <trkpt lat="42.4518880" lon="-8.0924320">
        <ele>504.1</ele>
        <time>2019-08-18T06:07:46Z</time>
      </trkpt>
      <trkpt lat="42.4519060" lon="-8.0924210">
        <ele>504.4</ele>
        <time>2019-08-18T06:07:47Z</time>
      </trkpt>
      <trkpt lat="42.4519230" lon="-8.0924110">
        <ele>504.7</ele>
        <time>2019-08-18T06:07:48Z</time>
      </trkpt>
      <trkpt lat="42.4519400" lon="-8.0924000">
        <ele>505.0</ele>
        <time>2019-08-18T06:07:49Z</time>
      </trkpt>
      <trkpt lat="42.4519570" lon="-8.0923880">
        <ele>505.3</ele>
        <time>2019-08-18T06:07:50Z</time>
      </trkpt>
      <trkpt lat="42.4519730" lon="-8.0923770">
        <ele>505.6</ele>
        <time>2019-08-18T06:07:51Z</time>
      </trkpt>
      <trkpt lat="42.4519890" lon="-8.0923650">
        <ele>505.8</ele>
        <time>2019-08-18T06:07:52Z</time>
      </trkpt>
      <trkpt lat="42.4520050" lon="-8.0923530">
        <ele>505.9</ele>
        <time>2019-08-18T06:07:53Z</time>
      </trkpt>
      <trkpt lat="42.4520200" lon="-8.0923410">
        <ele>506.0</ele>
        <time>2019-08-18T06:07:54Z</time>
      </trkpt>
      <trkpt lat="42.4520350" lon="-8.0923290">
        <ele>506.1</ele>
        <time>2019-08-18T06:07:55Z</time>
      </trkpt>
      <trkpt lat="42.4520500" lon="-8.0923170">
        <ele>506.3</ele>
        <time>2019-08-18T06:07:56Z</time>
      </trkpt>
      <trkpt lat="42.4520650" lon="-8.0923050">
        <ele>506.3</ele>
        <time>2019-08-18T06:07:57Z</time>
      </trkpt>
      <trkpt lat="42.4520810" lon="-8.0922940">
        <ele>506.4</ele>
        <time>2019-08-18T06:07:58Z</time>
      </trkpt>
      <trkpt lat="42.4520970" lon="-8.0922840">
        <ele>506.5</ele>
        <time>2019-08-18T06:07:59Z</time>
      </trkpt>
      <trkpt lat="42.4521130" lon="-8.0922730">
        <ele>506.6</ele>
        <time>2019-08-18T06:08:00Z</time>
      </trkpt>
      <trkpt lat="42.4521290" lon="-8.0922630">
        <ele>506.7</ele>
        <time>2019-08-18T06:08:01Z</time>
      </trkpt>
      <trkpt lat="42.4521450" lon="-8.0922530">
        <ele>506.7</ele>
        <time>2019-08-18T06:08:02Z</time>
      </trkpt>
      <trkpt lat="42.4521610" lon="-8.0922430">
        <ele>506.7</ele>
        <time>2019-08-18T06:08:03Z</time>
      </trkpt>
      <trkpt lat="42.4521770" lon="-8.0922330">
        <ele>506.8</ele>
        <time>2019-08-18T06:08:04Z</time>
      </trkpt>
      <trkpt lat="42.4521930" lon="-8.0922220">
        <ele>506.8</ele>
        <time>2019-08-18T06:08:05Z</time>
      </trkpt>
      <trkpt lat="42.4522080" lon="-8.0922110">
        <ele>506.9</ele>
        <time>2019-08-18T06:08:06Z</time>
      </trkpt>
      <trkpt lat="42.4522230" lon="-8.0921990">
        <ele>506.9</ele>
        <time>2019-08-18T06:08:07Z</time>
      </trkpt>
      <trkpt lat="42.4522380" lon="-8.0921860">
        <ele>506.9</ele>
        <time>2019-08-18T06:08:08Z</time>
      </trkpt>
      <trkpt lat="42.4522530" lon="-8.0921740">
        <ele>506.9</ele>
        <time>2019-08-18T06:08:09Z</time>
      </trkpt>
      <trkpt lat="42.4522680" lon="-8.0921610">
        <ele>506.9</ele>
        <time>2019-08-18T06:08:10Z</time>
      </trkpt>
      <trkpt lat="42.4522830" lon="-8.0921490">
        <ele>506.9</ele>
        <time>2019-08-18T06:08:11Z</time>
      </trkpt>
      <trkpt lat="42.4522980" lon="-8.0921370">
        <ele>506.8</ele>
        <time>2019-08-18T06:08:12Z</time>
      </trkpt>
      <trkpt lat="42.4523140" lon="-8.0921250">
        <ele>506.8</ele>
        <time>2019-08-18T06:08:13Z</time>
      </trkpt>
      <trkpt lat="42.4523300" lon="-8.0921140">
        <ele>506.7</ele>
        <time>2019-08-18T06:08:14Z</time>
      </trkpt>
      <trkpt lat="42.4523480" lon="-8.0921040">
        <ele>506.7</ele>
        <time>2019-08-18T06:08:15Z</time>
      </trkpt>
      <trkpt lat="42.4523650" lon="-8.0920950">
        <ele>506.6</ele>
        <time>2019-08-18T06:08:16Z</time>
      </trkpt>
      <trkpt lat="42.4523840" lon="-8.0920860">
        <ele>506.5</ele>
        <time>2019-08-18T06:08:17Z</time>
      </trkpt>
      <trkpt lat="42.4524020" lon="-8.0920770">
        <ele>506.4</ele>
        <time>2019-08-18T06:08:18Z</time>
      </trkpt>
      <trkpt lat="42.4524210" lon="-8.0920680">
        <ele>506.2</ele>
        <time>2019-08-18T06:08:19Z</time>
      </trkpt>
      <trkpt lat="42.4524400" lon="-8.0920600">
        <ele>506.1</ele>
        <time>2019-08-18T06:08:20Z</time>
      </trkpt>
      <trkpt lat="42.4524590" lon="-8.0920510">
        <ele>506.0</ele>
        <time>2019-08-18T06:08:21Z</time>
      </trkpt>
      <trkpt lat="42.4524790" lon="-8.0920420">
        <ele>505.8</ele>
        <time>2019-08-18T06:08:22Z</time>
      </trkpt>
      <trkpt lat="42.4524980" lon="-8.0920320">
        <ele>505.7</ele>
        <time>2019-08-18T06:08:23Z</time>
      </trkpt>
      <trkpt lat="42.4525170" lon="-8.0920220">
        <ele>505.6</ele>
        <time>2019-08-18T06:08:24Z</time>
      </trkpt>
      <trkpt lat="42.4525360" lon="-8.0920110">
        <ele>505.5</ele>
        <time>2019-08-18T06:08:25Z</time>
      </trkpt>
      <trkpt lat="42.4525550" lon="-8.0919990">
        <ele>505.3</ele>
        <time>2019-08-18T06:08:26Z</time>
      </trkpt>
      <trkpt lat="42.4525730" lon="-8.0919870">
        <ele>505.1</ele>
        <time>2019-08-18T06:08:27Z</time>
      </trkpt>
      <trkpt lat="42.4525910" lon="-8.0919730">
        <ele>504.8</ele>
        <time>2019-08-18T06:08:28Z</time>
      </trkpt>
      <trkpt lat="42.4526080" lon="-8.0919580">
        <ele>504.6</ele>
        <time>2019-08-18T06:08:29Z</time>
      </trkpt>
      <trkpt lat="42.4526250" lon="-8.0919430">
        <ele>504.5</ele>
        <time>2019-08-18T06:08:30Z</time>
      </trkpt>
      <trkpt lat="42.4526420" lon="-8.0919270">
        <ele>504.4</ele>
        <time>2019-08-18T06:08:31Z</time>
      </trkpt>
      <trkpt lat="42.4526590" lon="-8.0919120">
        <ele>504.3</ele>
        <time>2019-08-18T06:08:32Z</time>
      </trkpt>
      <trkpt lat="42.4526750" lon="-8.0918960">
        <ele>504.2</ele>
        <time>2019-08-18T06:08:33Z</time>
      </trkpt>
      <trkpt lat="42.4526920" lon="-8.0918810">
        <ele>504.1</ele>
        <time>2019-08-18T06:08:34Z</time>
      </trkpt>
      <trkpt lat="42.4527090" lon="-8.0918670">
        <ele>504.0</ele>
        <time>2019-08-18T06:08:35Z</time>
      </trkpt>
      <trkpt lat="42.4527260" lon="-8.0918540">
        <ele>503.9</ele>
        <time>2019-08-18T06:08:36Z</time>
      </trkpt>
      <trkpt lat="42.4527430" lon="-8.0918420">
        <ele>503.9</ele>
        <time>2019-08-18T06:08:37Z</time>
      </trkpt>
      <trkpt lat="42.4527600" lon="-8.0918310">
        <ele>503.8</ele>
        <time>2019-08-18T06:08:38Z</time>
      </trkpt>
      <trkpt lat="42.4527790" lon="-8.0918200">
        <ele>503.7</ele>
        <time>2019-08-18T06:08:39Z</time>
      </trkpt>
      <trkpt lat="42.4527970" lon="-8.0918100">
        <ele>503.7</ele>
        <time>2019-08-18T06:08:40Z</time>
      </trkpt>
      <trkpt lat="42.4528170" lon="-8.0918000">
        <ele>503.7</ele>
        <time>2019-08-18T06:08:41Z</time>
      </trkpt>
      <trkpt lat="42.4528380" lon="-8.0917890">
        <ele>503.7</ele>
        <time>2019-08-18T06:08:42Z</time>
      </trkpt>
      <trkpt lat="42.4528590" lon="-8.0917790">
        <ele>503.7</ele>
        <time>2019-08-18T06:08:43Z</time>
      </trkpt>
      <trkpt lat="42.4528820" lon="-8.0917690">
        <ele>503.7</ele>
        <time>2019-08-18T06:08:44Z</time>
      </trkpt>
      <trkpt lat="42.4529050" lon="-8.0917580">
        <ele>503.7</ele>
        <time>2019-08-18T06:08:45Z</time>
      </trkpt>
      <trkpt lat="42.4529290" lon="-8.0917480">
        <ele>503.7</ele>
        <time>2019-08-18T06:08:46Z</time>
      </trkpt>
      <trkpt lat="42.4529530" lon="-8.0917380">
        <ele>503.7</ele>
        <time>2019-08-18T06:08:47Z</time>
      </trkpt>
      <trkpt lat="42.4529770" lon="-8.0917290">
        <ele>503.8</ele>
        <time>2019-08-18T06:08:48Z</time>
      </trkpt>
      <trkpt lat="42.4530010" lon="-8.0917200">
        <ele>503.9</ele>
        <time>2019-08-18T06:08:49Z</time>
      </trkpt>
      <trkpt lat="42.4530260" lon="-8.0917120">
        <ele>504.0</ele>
        <time>2019-08-18T06:08:50Z</time>
      </trkpt>
      <trkpt lat="42.4530500" lon="-8.0917040">
        <ele>504.0</ele>
        <time>2019-08-18T06:08:51Z</time>
      </trkpt>
      <trkpt lat="42.4530740" lon="-8.0916970">
        <ele>504.0</ele>
        <time>2019-08-18T06:08:52Z</time>
      </trkpt>
      <trkpt lat="42.4530980" lon="-8.0916900">
        <ele>504.1</ele>
        <time>2019-08-18T06:08:53Z</time>
      </trkpt>
      <trkpt lat="42.4531210" lon="-8.0916830">
        <ele>504.1</ele>
        <time>2019-08-18T06:08:54Z</time>
      </trkpt>
      <trkpt lat="42.4531450" lon="-8.0916760">
        <ele>504.2</ele>
        <time>2019-08-18T06:08:55Z</time>
      </trkpt>
      <trkpt lat="42.4531680" lon="-8.0916690">
        <ele>504.2</ele>
        <time>2019-08-18T06:08:56Z</time>
      </trkpt>
      <trkpt lat="42.4531900" lon="-8.0916610">
        <ele>504.3</ele>
        <time>2019-08-18T06:08:57Z</time>
      </trkpt>
      <trkpt lat="42.4532130" lon="-8.0916530">
        <ele>504.3</ele>
        <time>2019-08-18T06:08:58Z</time>
      </trkpt>
      <trkpt lat="42.4532360" lon="-8.0916450">
        <ele>504.3</ele>
        <time>2019-08-18T06:08:59Z</time>
      </trkpt>
      <trkpt lat="42.4532580" lon="-8.0916370">
        <ele>504.3</ele>
        <time>2019-08-18T06:09:00Z</time>
      </trkpt>
      <trkpt lat="42.4532800" lon="-8.0916290">
        <ele>504.3</ele>
        <time>2019-08-18T06:09:01Z</time>
      </trkpt>
      <trkpt lat="42.4533030" lon="-8.0916230">
        <ele>504.2</ele>
        <time>2019-08-18T06:09:02Z</time>
      </trkpt>
      <trkpt lat="42.4533250" lon="-8.0916170">
        <ele>504.2</ele>
        <time>2019-08-18T06:09:03Z</time>
      </trkpt>
      <trkpt lat="42.4533480" lon="-8.0916120">
        <ele>504.2</ele>
        <time>2019-08-18T06:09:04Z</time>
      </trkpt>
      <trkpt lat="42.4533710" lon="-8.0916090">
        <ele>504.1</ele>
        <time>2019-08-18T06:09:05Z</time>
      </trkpt>
      <trkpt lat="42.4533940" lon="-8.0916070">
        <ele>504.1</ele>
        <time>2019-08-18T06:09:06Z</time>
      </trkpt>
      <trkpt lat="42.4534170" lon="-8.0916050">
        <ele>504.1</ele>
        <time>2019-08-18T06:09:07Z</time>
      </trkpt>
      <trkpt lat="42.4534410" lon="-8.0916050">
        <ele>504.0</ele>
        <time>2019-08-18T06:09:08Z</time>
      </trkpt>
      <trkpt lat="42.4534640" lon="-8.0916050">
        <ele>504.0</ele>
        <time>2019-08-18T06:09:09Z</time>
      </trkpt>
      <trkpt lat="42.4534880" lon="-8.0916060">
        <ele>504.0</ele>
        <time>2019-08-18T06:09:10Z</time>
      </trkpt>
      <trkpt lat="42.4535110" lon="-8.0916070">
        <ele>504.0</ele>
        <time>2019-08-18T06:09:11Z</time>
      </trkpt>
      <trkpt lat="42.4535350" lon="-8.0916090">
        <ele>504.1</ele>
        <time>2019-08-18T06:09:12Z</time>
      </trkpt>
      <trkpt lat="42.4535580" lon="-8.0916100">
        <ele>504.1</ele>
        <time>2019-08-18T06:09:13Z</time>
      </trkpt>
      <trkpt lat="42.4535810" lon="-8.0916120">
        <ele>504.1</ele>
        <time>2019-08-18T06:09:14Z</time>
      </trkpt>
      <trkpt lat="42.4536040" lon="-8.0916140">
        <ele>504.1</ele>
        <time>2019-08-18T06:09:15Z</time>
      </trkpt>
      <trkpt lat="42.4536270" lon="-8.0916150">
        <ele>504.1</ele>
        <time>2019-08-18T06:09:16Z</time>
      </trkpt>
      <trkpt lat="42.4536500" lon="-8.0916170">
        <ele>504.1</ele>
        <time>2019-08-18T06:09:17Z</time>
      </trkpt>
      <trkpt lat="42.4536730" lon="-8.0916200">
        <ele>504.1</ele>
        <time>2019-08-18T06:09:18Z</time>
      </trkpt>
      <trkpt lat="42.4536960" lon="-8.0916220">
        <ele>504.1</ele>
        <time>2019-08-18T06:09:19Z</time>
      </trkpt>
      <trkpt lat="42.4537190" lon="-8.0916240">
        <ele>504.1</ele>
        <time>2019-08-18T06:09:20Z</time>
      </trkpt>
      <trkpt lat="42.4537420" lon="-8.0916270">
        <ele>504.2</ele>
        <time>2019-08-18T06:09:21Z</time>
      </trkpt>
      <trkpt lat="42.4537650" lon="-8.0916290">
        <ele>504.2</ele>
        <time>2019-08-18T06:09:22Z</time>
      </trkpt>
      <trkpt lat="42.4537880" lon="-8.0916310">
        <ele>504.3</ele>
        <time>2019-08-18T06:09:23Z</time>
      </trkpt>
      <trkpt lat="42.4538110" lon="-8.0916340">
        <ele>504.4</ele>
        <time>2019-08-18T06:09:24Z</time>
      </trkpt>
      <trkpt lat="42.4538340" lon="-8.0916370">
        <ele>504.5</ele>
        <time>2019-08-18T06:09:25Z</time>
      </trkpt>
      <trkpt lat="42.4538570" lon="-8.0916390">
        <ele>504.6</ele>
        <time>2019-08-18T06:09:26Z</time>
      </trkpt>
      <trkpt lat="42.4538810" lon="-8.0916420">
        <ele>504.7</ele>
        <time>2019-08-18T06:09:27Z</time>
      </trkpt>
      <trkpt lat="42.4539040" lon="-8.0916450">
        <ele>504.8</ele>
        <time>2019-08-18T06:09:28Z</time>
      </trkpt>
      <trkpt lat="42.4539280" lon="-8.0916470">
        <ele>505.0</ele>
        <time>2019-08-18T06:09:29Z</time>
      </trkpt>
      <trkpt lat="42.4539510" lon="-8.0916500">
        <ele>505.1</ele>
        <time>2019-08-18T06:09:30Z</time>
      </trkpt>
      <trkpt lat="42.4539750" lon="-8.0916530">
        <ele>505.2</ele>
        <time>2019-08-18T06:09:31Z</time>
      </trkpt>
      <trkpt lat="42.4539990" lon="-8.0916560">
        <ele>505.3</ele>
        <time>2019-08-18T06:09:32Z</time>
      </trkpt>
      <trkpt lat="42.4540230" lon="-8.0916590">
        <ele>505.4</ele>
        <time>2019-08-18T06:09:33Z</time>
      </trkpt>
      <trkpt lat="42.4540470" lon="-8.0916620">
        <ele>505.5</ele>
        <time>2019-08-18T06:09:34Z</time>
      </trkpt>
      <trkpt lat="42.4540710" lon="-8.0916650">
        <ele>505.7</ele>
        <time>2019-08-18T06:09:35Z</time>
      </trkpt>
      <trkpt lat="42.4540950" lon="-8.0916680">
        <ele>505.8</ele>
        <time>2019-08-18T06:09:36Z</time>
      </trkpt>
      <trkpt lat="42.4541190" lon="-8.0916720">
        <ele>505.9</ele>
        <time>2019-08-18T06:09:37Z</time>
      </trkpt>
      <trkpt lat="42.4541430" lon="-8.0916750">
        <ele>506.1</ele>
        <time>2019-08-18T06:09:38Z</time>
      </trkpt>
      <trkpt lat="42.4541670" lon="-8.0916790">
        <ele>506.4</ele>
        <time>2019-08-18T06:09:39Z</time>
      </trkpt>
      <trkpt lat="42.4541910" lon="-8.0916830">
        <ele>506.6</ele>
        <time>2019-08-18T06:09:40Z</time>
      </trkpt>
      <trkpt lat="42.4542150" lon="-8.0916870">
        <ele>506.8</ele>
        <time>2019-08-18T06:09:41Z</time>
      </trkpt>
      <trkpt lat="42.4542390" lon="-8.0916910">
        <ele>506.9</ele>
        <time>2019-08-18T06:09:42Z</time>
      </trkpt>
      <trkpt lat="42.4542630" lon="-8.0916950">
        <ele>507.0</ele>
        <time>2019-08-18T06:09:43Z</time>
      </trkpt>
      <trkpt lat="42.4542870" lon="-8.0916990">
        <ele>507.2</ele>
        <time>2019-08-18T06:09:44Z</time>
      </trkpt>
      <trkpt lat="42.4543110" lon="-8.0917040">
        <ele>507.3</ele>
        <time>2019-08-18T06:09:45Z</time>
      </trkpt>
      <trkpt lat="42.4543360" lon="-8.0917080">
        <ele>507.5</ele>
        <time>2019-08-18T06:09:46Z</time>
      </trkpt>
      <trkpt lat="42.4543600" lon="-8.0917110">
        <ele>507.6</ele>
        <time>2019-08-18T06:09:47Z</time>
      </trkpt>
      <trkpt lat="42.4543850" lon="-8.0917150">
        <ele>507.7</ele>
        <time>2019-08-18T06:09:48Z</time>
      </trkpt>
      <trkpt lat="42.4544090" lon="-8.0917180">
        <ele>507.8</ele>
        <time>2019-08-18T06:09:49Z</time>
      </trkpt>
      <trkpt lat="42.4544330" lon="-8.0917220">
        <ele>507.9</ele>
        <time>2019-08-18T06:09:50Z</time>
      </trkpt>
      <trkpt lat="42.4544550" lon="-8.0917280">
        <ele>508.1</ele>
        <time>2019-08-18T06:09:51Z</time>
      </trkpt>
      <trkpt lat="42.4544760" lon="-8.0917370">
        <ele>508.4</ele>
        <time>2019-08-18T06:09:52Z</time>
      </trkpt>
      <trkpt lat="42.4544930" lon="-8.0917520">
        <ele>508.6</ele>
        <time>2019-08-18T06:09:53Z</time>
      </trkpt>
      <trkpt lat="42.4545060" lon="-8.0917720">
        <ele>508.9</ele>
        <time>2019-08-18T06:09:54Z</time>
      </trkpt>
      <trkpt lat="42.4545140" lon="-8.0917990">
        <ele>508.9</ele>
        <time>2019-08-18T06:09:55Z</time>
      </trkpt>
      <trkpt lat="42.4545160" lon="-8.0918360">
        <ele>508.9</ele>
        <time>2019-08-18T06:09:56Z</time>
      </trkpt>
      <trkpt lat="42.4545110" lon="-8.0918880">
        <ele>508.6</ele>
        <time>2019-08-18T06:09:57Z</time>
      </trkpt>
      <trkpt lat="42.4544990" lon="-8.0919570">
        <ele>508.4</ele>
        <time>2019-08-18T06:09:58Z</time>
      </trkpt>
      <trkpt lat="42.4544940" lon="-8.0920340">
        <ele>508.3</ele>
        <time>2019-08-18T06:09:59Z</time>
      </trkpt>
      <trkpt lat="42.4545310" lon="-8.0921410">
        <ele>508.1</ele>
        <time>2019-08-18T06:10:00Z</time>
      </trkpt>
      <trkpt lat="42.4545520" lon="-8.0921750">
        <ele>508.1</ele>
        <time>2019-08-18T06:10:01Z</time>
      </trkpt>
      <trkpt lat="42.4545730" lon="-8.0922090">
        <ele>508.0</ele>
        <time>2019-08-18T06:10:02Z</time>
      </trkpt>
      <trkpt lat="42.4546060" lon="-8.0922400">
        <ele>508.0</ele>
        <time>2019-08-18T06:10:03Z</time>
      </trkpt>
      <trkpt lat="42.4546350" lon="-8.0922670">
        <ele>508.0</ele>
        <time>2019-08-18T06:10:04Z</time>
      </trkpt>
      <trkpt lat="42.4546620" lon="-8.0922910">
        <ele>508.1</ele>
        <time>2019-08-18T06:10:05Z</time>
      </trkpt>
      <trkpt lat="42.4546860" lon="-8.0923140">
        <ele>508.4</ele>
        <time>2019-08-18T06:10:06Z</time>
      </trkpt>
      <trkpt lat="42.4547080" lon="-8.0923370">
        <ele>508.8</ele>
        <time>2019-08-18T06:10:07Z</time>
      </trkpt>
      <trkpt lat="42.4547280" lon="-8.0923590">
        <ele>509.0</ele>
        <time>2019-08-18T06:10:08Z</time>
      </trkpt>
      <trkpt lat="42.4547490" lon="-8.0923810">
        <ele>509.4</ele>
        <time>2019-08-18T06:10:09Z</time>
      </trkpt>
      <trkpt lat="42.4547690" lon="-8.0924050">
        <ele>509.7</ele>
        <time>2019-08-18T06:10:10Z</time>
      </trkpt>
      <trkpt lat="42.4547890" lon="-8.0924310">
        <ele>510.0</ele>
        <time>2019-08-18T06:10:11Z</time>
      </trkpt>
      <trkpt lat="42.4548110" lon="-8.0924590">
        <ele>510.3</ele>
        <time>2019-08-18T06:10:12Z</time>
      </trkpt>
      <trkpt lat="42.4548320" lon="-8.0924880">
        <ele>510.6</ele>
        <time>2019-08-18T06:10:13Z</time>
      </trkpt>
      <trkpt lat="42.4548540" lon="-8.0925180">
        <ele>511.0</ele>
        <time>2019-08-18T06:10:14Z</time>
      </trkpt>
      <trkpt lat="42.4548760" lon="-8.0925490">
        <ele>511.3</ele>
        <time>2019-08-18T06:10:15Z</time>
      </trkpt>
      <trkpt lat="42.4548980" lon="-8.0925800">
        <ele>511.6</ele>
        <time>2019-08-18T06:10:16Z</time>
      </trkpt>
      <trkpt lat="42.4549200" lon="-8.0926120">
        <ele>511.9</ele>
        <time>2019-08-18T06:10:17Z</time>
      </trkpt>
      <trkpt lat="42.4549410" lon="-8.0926440">
        <ele>512.3</ele>
        <time>2019-08-18T06:10:18Z</time>
      </trkpt>
      <trkpt lat="42.4549620" lon="-8.0926760">
        <ele>512.6</ele>
        <time>2019-08-18T06:10:19Z</time>
      </trkpt>
      <trkpt lat="42.4549830" lon="-8.0927080">
        <ele>512.9</ele>
        <time>2019-08-18T06:10:20Z</time>
      </trkpt>
      <trkpt lat="42.4550040" lon="-8.0927410">
        <ele>513.2</ele>
        <time>2019-08-18T06:10:21Z</time>
      </trkpt>
      <trkpt lat="42.4550240" lon="-8.0927730">
        <ele>513.6</ele>
        <time>2019-08-18T06:10:22Z</time>
      </trkpt>
      <trkpt lat="42.4550450" lon="-8.0928050">
        <ele>513.9</ele>
        <time>2019-08-18T06:10:23Z</time>
      </trkpt>
      <trkpt lat="42.4550650" lon="-8.0928370">
        <ele>514.2</ele>
        <time>2019-08-18T06:10:24Z</time>
      </trkpt>
      <trkpt lat="42.4550860" lon="-8.0928690">
        <ele>514.5</ele>
        <time>2019-08-18T06:10:25Z</time>
      </trkpt>
      <trkpt lat="42.4551060" lon="-8.0929010">
        <ele>514.8</ele>
        <time>2019-08-18T06:10:26Z</time>
      </trkpt>
      <trkpt lat="42.4551270" lon="-8.0929330">
        <ele>515.1</ele>
        <time>2019-08-18T06:10:27Z</time>
      </trkpt>
      <trkpt lat="42.4551470" lon="-8.0929640">
        <ele>515.4</ele>
        <time>2019-08-18T06:10:28Z</time>
      </trkpt>
      <trkpt lat="42.4551670" lon="-8.0929960">
        <ele>515.7</ele>
        <time>2019-08-18T06:10:29Z</time>
      </trkpt>
      <trkpt lat="42.4551880" lon="-8.0930280">
        <ele>516.0</ele>
        <time>2019-08-18T06:10:30Z</time>
      </trkpt>
      <trkpt lat="42.4552080" lon="-8.0930590">
        <ele>516.3</ele>
        <time>2019-08-18T06:10:31Z</time>
      </trkpt>
      <trkpt lat="42.4552290" lon="-8.0930910">
        <ele>516.6</ele>
        <time>2019-08-18T06:10:32Z</time>
      </trkpt>
      <trkpt lat="42.4552500" lon="-8.0931220">
        <ele>516.9</ele>
        <time>2019-08-18T06:10:33Z</time>
      </trkpt>
      <trkpt lat="42.4552700" lon="-8.0931540">
        <ele>517.2</ele>
        <time>2019-08-18T06:10:34Z</time>
      </trkpt>
      <trkpt lat="42.4552910" lon="-8.0931850">
        <ele>517.5</ele>
        <time>2019-08-18T06:10:35Z</time>
      </trkpt>
      <trkpt lat="42.4553120" lon="-8.0932160">
        <ele>517.8</ele>
        <time>2019-08-18T06:10:36Z</time>
      </trkpt>
      <trkpt lat="42.4553330" lon="-8.0932480">
        <ele>518.1</ele>
        <time>2019-08-18T06:10:37Z</time>
      </trkpt>
      <trkpt lat="42.4553550" lon="-8.0932790">
        <ele>518.4</ele>
        <time>2019-08-18T06:10:38Z</time>
      </trkpt>
      <trkpt lat="42.4553760" lon="-8.0933100">
        <ele>518.7</ele>
        <time>2019-08-18T06:10:39Z</time>
      </trkpt>
      <trkpt lat="42.4553980" lon="-8.0933410">
        <ele>519.0</ele>
        <time>2019-08-18T06:10:40Z</time>
      </trkpt>
      <trkpt lat="42.4554190" lon="-8.0933730">
        <ele>519.3</ele>
        <time>2019-08-18T06:10:41Z</time>
      </trkpt>
      <trkpt lat="42.4554400" lon="-8.0934040">
        <ele>519.6</ele>
        <time>2019-08-18T06:10:42Z</time>
      </trkpt>
      <trkpt lat="42.4554610" lon="-8.0934360">
        <ele>519.9</ele>
        <time>2019-08-18T06:10:43Z</time>
      </trkpt>
      <trkpt lat="42.4554810" lon="-8.0934690">
        <ele>520.2</ele>
        <time>2019-08-18T06:10:44Z</time>
      </trkpt>
      <trkpt lat="42.4555010" lon="-8.0935030">
        <ele>520.5</ele>
        <time>2019-08-18T06:10:45Z</time>
      </trkpt>
      <trkpt lat="42.4555210" lon="-8.0935360">
        <ele>520.8</ele>
        <time>2019-08-18T06:10:46Z</time>
      </trkpt>
      <trkpt lat="42.4555410" lon="-8.0935690">
        <ele>521.1</ele>
        <time>2019-08-18T06:10:47Z</time>
      </trkpt>
      <trkpt lat="42.4555610" lon="-8.0936010">
        <ele>521.4</ele>
        <time>2019-08-18T06:10:48Z</time>
      </trkpt>
      <trkpt lat="42.4555820" lon="-8.0936330">
        <ele>521.6</ele>
        <time>2019-08-18T06:10:49Z</time>
      </trkpt>
      <trkpt lat="42.4556030" lon="-8.0936650">
        <ele>521.9</ele>
        <time>2019-08-18T06:10:50Z</time>
      </trkpt>
      <trkpt lat="42.4556250" lon="-8.0936960">
        <ele>522.2</ele>
        <time>2019-08-18T06:10:51Z</time>
      </trkpt>
      <trkpt lat="42.4556470" lon="-8.0937270">
        <ele>522.5</ele>
        <time>2019-08-18T06:10:52Z</time>
      </trkpt>
      <trkpt lat="42.4556690" lon="-8.0937570">
        <ele>522.8</ele>
        <time>2019-08-18T06:10:53Z</time>
      </trkpt>
      <trkpt lat="42.4556930" lon="-8.0937870">
        <ele>523.1</ele>
        <time>2019-08-18T06:10:54Z</time>
      </trkpt>
      <trkpt lat="42.4557160" lon="-8.0938170">
        <ele>523.3</ele>
        <time>2019-08-18T06:10:55Z</time>
      </trkpt>
      <trkpt lat="42.4557400" lon="-8.0938460">
        <ele>523.6</ele>
        <time>2019-08-18T06:10:56Z</time>
      </trkpt>
      <trkpt lat="42.4557650" lon="-8.0938750">
        <ele>523.9</ele>
        <time>2019-08-18T06:10:57Z</time>
      </trkpt>
      <trkpt lat="42.4557900" lon="-8.0939030">
        <ele>524.2</ele>
        <time>2019-08-18T06:10:58Z</time>
      </trkpt>
      <trkpt lat="42.4558150" lon="-8.0939310">
        <ele>524.4</ele>
        <time>2019-08-18T06:10:59Z</time>
      </trkpt>
      <trkpt lat="42.4558410" lon="-8.0939580">
        <ele>524.7</ele>
        <time>2019-08-18T06:11:00Z</time>
      </trkpt>
      <trkpt lat="42.4558670" lon="-8.0939850">
        <ele>525.0</ele>
        <time>2019-08-18T06:11:01Z</time>
      </trkpt>
      <trkpt lat="42.4558940" lon="-8.0940120">
        <ele>525.3</ele>
        <time>2019-08-18T06:11:02Z</time>
      </trkpt>
      <trkpt lat="42.4559200" lon="-8.0940370">
        <ele>525.5</ele>
        <time>2019-08-18T06:11:03Z</time>
      </trkpt>
      <trkpt lat="42.4559470" lon="-8.0940620">
        <ele>525.8</ele>
        <time>2019-08-18T06:11:04Z</time>
      </trkpt>
      <trkpt lat="42.4559740" lon="-8.0940870">
        <ele>526.0</ele>
        <time>2019-08-18T06:11:05Z</time>
      </trkpt>
      <trkpt lat="42.4560020" lon="-8.0941110">
        <ele>526.3</ele>
        <time>2019-08-18T06:11:06Z</time>
      </trkpt>
      <trkpt lat="42.4560300" lon="-8.0941340">
        <ele>526.5</ele>
        <time>2019-08-18T06:11:07Z</time>
      </trkpt>
      <trkpt lat="42.4560570" lon="-8.0941560">
        <ele>526.8</ele>
        <time>2019-08-18T06:11:08Z</time>
      </trkpt>
      <trkpt lat="42.4560850" lon="-8.0941780">
        <ele>527.0</ele>
        <time>2019-08-18T06:11:09Z</time>
      </trkpt>
      <trkpt lat="42.4561130" lon="-8.0941990">
        <ele>527.3</ele>
        <time>2019-08-18T06:11:10Z</time>
      </trkpt>
      <trkpt lat="42.4561420" lon="-8.0942190">
        <ele>527.6</ele>
        <time>2019-08-18T06:11:11Z</time>
      </trkpt>
      <trkpt lat="42.4561700" lon="-8.0942380">
        <ele>527.8</ele>
        <time>2019-08-18T06:11:12Z</time>
      </trkpt>
      <trkpt lat="42.4561990" lon="-8.0942570">
        <ele>528.0</ele>
        <time>2019-08-18T06:11:13Z</time>
      </trkpt>
      <trkpt lat="42.4562270" lon="-8.0942750">
        <ele>528.2</ele>
        <time>2019-08-18T06:11:14Z</time>
      </trkpt>
      <trkpt lat="42.4562560" lon="-8.0942920">
        <ele>528.5</ele>
        <time>2019-08-18T06:11:15Z</time>
      </trkpt>
      <trkpt lat="42.4562860" lon="-8.0943080">
        <ele>528.7</ele>
        <time>2019-08-18T06:11:16Z</time>
      </trkpt>
      <trkpt lat="42.4563150" lon="-8.0943240">
        <ele>528.9</ele>
        <time>2019-08-18T06:11:17Z</time>
      </trkpt>
      <trkpt lat="42.4563450" lon="-8.0943380">
        <ele>529.1</ele>
        <time>2019-08-18T06:11:18Z</time>
      </trkpt>
      <trkpt lat="42.4563750" lon="-8.0943530">
        <ele>529.3</ele>
        <time>2019-08-18T06:11:19Z</time>
      </trkpt>
      <trkpt lat="42.4564050" lon="-8.0943660">
        <ele>529.6</ele>
        <time>2019-08-18T06:11:20Z</time>
      </trkpt>
      <trkpt lat="42.4564350" lon="-8.0943780">
        <ele>529.8</ele>
        <time>2019-08-18T06:11:21Z</time>
      </trkpt>
      <trkpt lat="42.4564660" lon="-8.0943900">
        <ele>530.0</ele>
        <time>2019-08-18T06:11:22Z</time>
      </trkpt>
      <trkpt lat="42.4564970" lon="-8.0944010">
        <ele>530.2</ele>
        <time>2019-08-18T06:11:23Z</time>
      </trkpt>
      <trkpt lat="42.4565280" lon="-8.0944110">
        <ele>530.5</ele>
        <time>2019-08-18T06:11:24Z</time>
      </trkpt>
      <trkpt lat="42.4565590" lon="-8.0944200">
        <ele>530.7</ele>
        <time>2019-08-18T06:11:25Z</time>
      </trkpt>
      <trkpt lat="42.4565910" lon="-8.0944290">
        <ele>530.9</ele>
        <time>2019-08-18T06:11:26Z</time>
      </trkpt>
      <trkpt lat="42.4566230" lon="-8.0944360">
        <ele>531.2</ele>
        <time>2019-08-18T06:11:27Z</time>
      </trkpt>
      <trkpt lat="42.4566550" lon="-8.0944430">
        <ele>531.4</ele>
        <time>2019-08-18T06:11:28Z</time>
      </trkpt>
      <trkpt lat="42.4566880" lon="-8.0944500">
        <ele>531.7</ele>
        <time>2019-08-18T06:11:29Z</time>
      </trkpt>
      <trkpt lat="42.4567200" lon="-8.0944550">
        <ele>531.9</ele>
        <time>2019-08-18T06:11:30Z</time>
      </trkpt>
      <trkpt lat="42.4567530" lon="-8.0944590">
        <ele>532.2</ele>
        <time>2019-08-18T06:11:31Z</time>
      </trkpt>
      <trkpt lat="42.4567860" lon="-8.0944630">
        <ele>532.5</ele>
        <time>2019-08-18T06:11:32Z</time>
      </trkpt>
      <trkpt lat="42.4568190" lon="-8.0944660">
        <ele>532.8</ele>
        <time>2019-08-18T06:11:33Z</time>
      </trkpt>
      <trkpt lat="42.4568520" lon="-8.0944680">
        <ele>533.0</ele>
        <time>2019-08-18T06:11:34Z</time>
      </trkpt>
      <trkpt lat="42.4568850" lon="-8.0944690">
        <ele>533.3</ele>
        <time>2019-08-18T06:11:35Z</time>
      </trkpt>
      <trkpt lat="42.4569190" lon="-8.0944700">
        <ele>533.6</ele>
        <time>2019-08-18T06:11:36Z</time>
      </trkpt>
      <trkpt lat="42.4569520" lon="-8.0944700">
        <ele>533.9</ele>
        <time>2019-08-18T06:11:37Z</time>
      </trkpt>
      <trkpt lat="42.4569860" lon="-8.0944690">
        <ele>534.2</ele>
        <time>2019-08-18T06:11:38Z</time>
      </trkpt>
      <trkpt lat="42.4570190" lon="-8.0944670">
        <ele>534.4</ele>
        <time>2019-08-18T06:11:39Z</time>
      </trkpt>
      <trkpt lat="42.4570530" lon="-8.0944640">
        <ele>534.6</ele>
        <time>2019-08-18T06:11:40Z</time>
      </trkpt>
      <trkpt lat="42.4570860" lon="-8.0944600">
        <ele>534.7</ele>
        <time>2019-08-18T06:11:41Z</time>
      </trkpt>
      <trkpt lat="42.4571200" lon="-8.0944560">
        <ele>535.0</ele>
        <time>2019-08-18T06:11:42Z</time>
      </trkpt>
      <trkpt lat="42.4571530" lon="-8.0944510">
        <ele>535.3</ele>
        <time>2019-08-18T06:11:43Z</time>
      </trkpt>
      <trkpt lat="42.4571870" lon="-8.0944450">
        <ele>535.5</ele>
        <time>2019-08-18T06:11:44Z</time>
      </trkpt>
      <trkpt lat="42.4572200" lon="-8.0944380">
        <ele>535.7</ele>
        <time>2019-08-18T06:11:45Z</time>
      </trkpt>
      <trkpt lat="42.4572540" lon="-8.0944300">
        <ele>535.9</ele>
        <time>2019-08-18T06:11:46Z</time>
      </trkpt>
      <trkpt lat="42.4572870" lon="-8.0944220">
        <ele>536.1</ele>
        <time>2019-08-18T06:11:47Z</time>
      </trkpt>
      <trkpt lat="42.4573200" lon="-8.0944120">
        <ele>536.3</ele>
        <time>2019-08-18T06:11:48Z</time>
      </trkpt>
      <trkpt lat="42.4573530" lon="-8.0944020">
        <ele>536.6</ele>
        <time>2019-08-18T06:11:49Z</time>
      </trkpt>
      <trkpt lat="42.4573860" lon="-8.0943910">
        <ele>536.8</ele>
        <time>2019-08-18T06:11:50Z</time>
      </trkpt>
      <trkpt lat="42.4574190" lon="-8.0943790">
        <ele>537.0</ele>
        <time>2019-08-18T06:11:51Z</time>
      </trkpt>
      <trkpt lat="42.4574510" lon="-8.0943670">
        <ele>537.2</ele>
        <time>2019-08-18T06:11:52Z</time>
      </trkpt>
      <trkpt lat="42.4574840" lon="-8.0943530">
        <ele>537.4</ele>
        <time>2019-08-18T06:11:53Z</time>
      </trkpt>
      <trkpt lat="42.4575160" lon="-8.0943390">
        <ele>537.6</ele>
        <time>2019-08-18T06:11:54Z</time>
      </trkpt>
      <trkpt lat="42.4575480" lon="-8.0943240">
        <ele>537.8</ele>
        <time>2019-08-18T06:11:55Z</time>
      </trkpt>
      <trkpt lat="42.4575790" lon="-8.0943080">
        <ele>538.0</ele>
        <time>2019-08-18T06:11:56Z</time>
      </trkpt>
      <trkpt lat="42.4576110" lon="-8.0942910">
        <ele>538.2</ele>
        <time>2019-08-18T06:11:57Z</time>
      </trkpt>
      <trkpt lat="42.4576420" lon="-8.0942740">
        <ele>538.4</ele>
        <time>2019-08-18T06:11:58Z</time>
      </trkpt>
      <trkpt lat="42.4576730" lon="-8.0942560">
        <ele>538.6</ele>
        <time>2019-08-18T06:11:59Z</time>
      </trkpt>
      <trkpt lat="42.4577040" lon="-8.0942380">
        <ele>538.8</ele>
        <time>2019-08-18T06:12:00Z</time>
      </trkpt>
      <trkpt lat="42.4577350" lon="-8.0942180">
        <ele>539.0</ele>
        <time>2019-08-18T06:12:01Z</time>
      </trkpt>
      <trkpt lat="42.4577650" lon="-8.0941990">
        <ele>539.2</ele>
        <time>2019-08-18T06:12:02Z</time>
      </trkpt>
      <trkpt lat="42.4577950" lon="-8.0941780">
        <ele>539.4</ele>
        <time>2019-08-18T06:12:03Z</time>
      </trkpt>
      <trkpt lat="42.4578250" lon="-8.0941580">
        <ele>539.6</ele>
        <time>2019-08-18T06:12:04Z</time>
      </trkpt>
      <trkpt lat="42.4578550" lon="-8.0941360">
        <ele>539.9</ele>
        <time>2019-08-18T06:12:05Z</time>
      </trkpt>
      <trkpt lat="42.4578850" lon="-8.0941150">
        <ele>540.1</ele>
        <time>2019-08-18T06:12:06Z</time>
      </trkpt>
      <trkpt lat="42.4579140" lon="-8.0940930">
        <ele>540.3</ele>
        <time>2019-08-18T06:12:07Z</time>
      </trkpt>
      <trkpt lat="42.4579440" lon="-8.0940710">
        <ele>540.6</ele>
        <time>2019-08-18T06:12:08Z</time>
      </trkpt>
      <trkpt lat="42.4579740" lon="-8.0940480">
        <ele>540.9</ele>
        <time>2019-08-18T06:12:09Z</time>
      </trkpt>
      <trkpt lat="42.4580030" lon="-8.0940260">
        <ele>541.1</ele>
        <time>2019-08-18T06:12:10Z</time>
      </trkpt>
      <trkpt lat="42.4580330" lon="-8.0940030">
        <ele>541.4</ele>
        <time>2019-08-18T06:12:11Z</time>
      </trkpt>
      <trkpt lat="42.4580620" lon="-8.0939800">
        <ele>541.7</ele>
        <time>2019-08-18T06:12:12Z</time>
      </trkpt>
      <trkpt lat="42.4580920" lon="-8.0939570">
        <ele>542.0</ele>
        <time>2019-08-18T06:12:13Z</time>
      </trkpt>
      <trkpt lat="42.4581210" lon="-8.0939340">
        <ele>542.2</ele>
        <time>2019-08-18T06:12:14Z</time>
      </trkpt>
      <trkpt lat="42.4581500" lon="-8.0939110">
        <ele>542.5</ele>
        <time>2019-08-18T06:12:15Z</time>
      </trkpt>
      <trkpt lat="42.4581800" lon="-8.0938880">
        <ele>542.8</ele>
        <time>2019-08-18T06:12:16Z</time>
      </trkpt>
      <trkpt lat="42.4582090" lon="-8.0938650">
        <ele>543.0</ele>
        <time>2019-08-18T06:12:17Z</time>
      </trkpt>
      <trkpt lat="42.4582390" lon="-8.0938410">
        <ele>543.3</ele>
        <time>2019-08-18T06:12:18Z</time>
      </trkpt>
      <trkpt lat="42.4582680" lon="-8.0938180">
        <ele>543.5</ele>
        <time>2019-08-18T06:12:19Z</time>
      </trkpt>
      <trkpt lat="42.4582980" lon="-8.0937950">
        <ele>543.8</ele>
        <time>2019-08-18T06:12:20Z</time>
      </trkpt>
      <trkpt lat="42.4583270" lon="-8.0937720">
        <ele>544.0</ele>
        <time>2019-08-18T06:12:21Z</time>
      </trkpt>
      <trkpt lat="42.4583570" lon="-8.0937490">
        <ele>544.3</ele>
        <time>2019-08-18T06:12:22Z</time>
      </trkpt>
      <trkpt lat="42.4583870" lon="-8.0937270">
        <ele>544.5</ele>
        <time>2019-08-18T06:12:23Z</time>
      </trkpt>
      <trkpt lat="42.4584160" lon="-8.0937040">
        <ele>544.7</ele>
        <time>2019-08-18T06:12:24Z</time>
      </trkpt>
      <trkpt lat="42.4584460" lon="-8.0936820">
        <ele>545.0</ele>
        <time>2019-08-18T06:12:25Z</time>
      </trkpt>
      <trkpt lat="42.4584750" lon="-8.0936590">
        <ele>545.2</ele>
        <time>2019-08-18T06:12:26Z</time>
      </trkpt>
      <trkpt lat="42.4585050" lon="-8.0936370">
        <ele>545.4</ele>
        <time>2019-08-18T06:12:27Z</time>
      </trkpt>
      <trkpt lat="42.4585340" lon="-8.0936140">
        <ele>545.6</ele>
        <time>2019-08-18T06:12:28Z</time>
      </trkpt>
      <trkpt lat="42.4585630" lon="-8.0935920">
        <ele>545.9</ele>
        <time>2019-08-18T06:12:29Z</time>
      </trkpt>
      <trkpt lat="42.4585920" lon="-8.0935690">
        <ele>546.1</ele>
        <time>2019-08-18T06:12:30Z</time>
      </trkpt>
      <trkpt lat="42.4586200" lon="-8.0935470">
        <ele>546.2</ele>
        <time>2019-08-18T06:12:31Z</time>
      </trkpt>
      <trkpt lat="42.4586490" lon="-8.0935250">
        <ele>546.6</ele>
        <time>2019-08-18T06:12:32Z</time>
      </trkpt>
      <trkpt lat="42.4586770" lon="-8.0935020">
        <ele>547.0</ele>
        <time>2019-08-18T06:12:33Z</time>
      </trkpt>
      <trkpt lat="42.4587060" lon="-8.0934800">
        <ele>547.4</ele>
        <time>2019-08-18T06:12:34Z</time>
      </trkpt>
      <trkpt lat="42.4587340" lon="-8.0934580">
        <ele>547.7</ele>
        <time>2019-08-18T06:12:35Z</time>
      </trkpt>
      <trkpt lat="42.4587620" lon="-8.0934360">
        <ele>548.1</ele>
        <time>2019-08-18T06:12:36Z</time>
      </trkpt>
      <trkpt lat="42.4587910" lon="-8.0934140">
        <ele>548.7</ele>
        <time>2019-08-18T06:12:37Z</time>
      </trkpt>
      <trkpt lat="42.4588190" lon="-8.0933920">
        <ele>548.9</ele>
        <time>2019-08-18T06:12:38Z</time>
      </trkpt>
      <trkpt lat="42.4588480" lon="-8.0933710">
        <ele>549.1</ele>
        <time>2019-08-18T06:12:39Z</time>
      </trkpt>
      <trkpt lat="42.4588770" lon="-8.0933490">
        <ele>549.3</ele>
        <time>2019-08-18T06:12:40Z</time>
      </trkpt>
      <trkpt lat="42.4589050" lon="-8.0933280">
        <ele>549.5</ele>
        <time>2019-08-18T06:12:41Z</time>
      </trkpt>
      <trkpt lat="42.4589340" lon="-8.0933080">
        <ele>549.7</ele>
        <time>2019-08-18T06:12:42Z</time>
      </trkpt>
      <trkpt lat="42.4589620" lon="-8.0932880">
        <ele>549.9</ele>
        <time>2019-08-18T06:12:43Z</time>
      </trkpt>
      <trkpt lat="42.4589900" lon="-8.0932680">
        <ele>550.1</ele>
        <time>2019-08-18T06:12:44Z</time>
      </trkpt>
      <trkpt lat="42.4590180" lon="-8.0932490">
        <ele>550.3</ele>
        <time>2019-08-18T06:12:45Z</time>
      </trkpt>
      <trkpt lat="42.4590460" lon="-8.0932300">
        <ele>550.6</ele>
        <time>2019-08-18T06:12:46Z</time>
      </trkpt>
      <trkpt lat="42.4590740" lon="-8.0932130">
        <ele>550.8</ele>
        <time>2019-08-18T06:12:47Z</time>
      </trkpt>
      <trkpt lat="42.4591010" lon="-8.0931950">
        <ele>551.0</ele>
        <time>2019-08-18T06:12:48Z</time>
      </trkpt>
      <trkpt lat="42.4591280" lon="-8.0931790">
        <ele>551.3</ele>
        <time>2019-08-18T06:12:49Z</time>
      </trkpt>
      <trkpt lat="42.4591540" lon="-8.0931630">
        <ele>551.5</ele>
        <time>2019-08-18T06:12:50Z</time>
      </trkpt>
      <trkpt lat="42.4591810" lon="-8.0931490">
        <ele>551.7</ele>
        <time>2019-08-18T06:12:51Z</time>
      </trkpt>
      <trkpt lat="42.4592060" lon="-8.0931350">
        <ele>551.9</ele>
        <time>2019-08-18T06:12:52Z</time>
      </trkpt>
      <trkpt lat="42.4592320" lon="-8.0931220">
        <ele>552.0</ele>
        <time>2019-08-18T06:12:53Z</time>
      </trkpt>
      <trkpt lat="42.4592560" lon="-8.0931100">
        <ele>551.9</ele>
        <time>2019-08-18T06:12:54Z</time>
      </trkpt>
      <trkpt lat="42.4592800" lon="-8.0930980">
        <ele>551.9</ele>
        <time>2019-08-18T06:12:55Z</time>
      </trkpt>
      <trkpt lat="42.4593030" lon="-8.0930880">
        <ele>551.9</ele>
        <time>2019-08-18T06:12:56Z</time>
      </trkpt>
      <trkpt lat="42.4593260" lon="-8.0930780">
        <ele>551.9</ele>
        <time>2019-08-18T06:12:57Z</time>
      </trkpt>
      <trkpt lat="42.4593480" lon="-8.0930680">
        <ele>551.8</ele>
        <time>2019-08-18T06:12:58Z</time>
      </trkpt>
      <trkpt lat="42.4593680" lon="-8.0930600">
        <ele>551.8</ele>
        <time>2019-08-18T06:12:59Z</time>
      </trkpt>
      <trkpt lat="42.4593880" lon="-8.0930510">
        <ele>551.8</ele>
        <time>2019-08-18T06:13:00Z</time>
      </trkpt>
      <trkpt lat="42.4594080" lon="-8.0930430">
        <ele>551.7</ele>
        <time>2019-08-18T06:13:01Z</time>
      </trkpt>
      <trkpt lat="42.4594270" lon="-8.0930360">
        <ele>551.6</ele>
        <time>2019-08-18T06:13:02Z</time>
      </trkpt>
      <trkpt lat="42.4594470" lon="-8.0930280">
        <ele>551.6</ele>
        <time>2019-08-18T06:13:03Z</time>
      </trkpt>
      <trkpt lat="42.4594660" lon="-8.0930190">
        <ele>551.5</ele>
        <time>2019-08-18T06:13:04Z</time>
      </trkpt>
      <trkpt lat="42.4594860" lon="-8.0930110">
        <ele>551.4</ele>
        <time>2019-08-18T06:13:05Z</time>
      </trkpt>
      <trkpt lat="42.4595070" lon="-8.0930020">
        <ele>551.4</ele>
        <time>2019-08-18T06:13:06Z</time>
      </trkpt>
      <trkpt lat="42.4595290" lon="-8.0929920">
        <ele>551.3</ele>
        <time>2019-08-18T06:13:07Z</time>
      </trkpt>
      <trkpt lat="42.4595510" lon="-8.0929830">
        <ele>551.2</ele>
        <time>2019-08-18T06:13:08Z</time>
      </trkpt>
      <trkpt lat="42.4595740" lon="-8.0929730">
        <ele>551.1</ele>
        <time>2019-08-18T06:13:09Z</time>
      </trkpt>
      <trkpt lat="42.4595970" lon="-8.0929630">
        <ele>551.0</ele>
        <time>2019-08-18T06:13:10Z</time>
      </trkpt>
      <trkpt lat="42.4596210" lon="-8.0929540">
        <ele>550.8</ele>
        <time>2019-08-18T06:13:11Z</time>
      </trkpt>
      <trkpt lat="42.4596460" lon="-8.0929450">
        <ele>550.7</ele>
        <time>2019-08-18T06:13:12Z</time>
      </trkpt>
      <trkpt lat="42.4596710" lon="-8.0929360">
        <ele>550.6</ele>
        <time>2019-08-18T06:13:13Z</time>
      </trkpt>
      <trkpt lat="42.4596960" lon="-8.0929290">
        <ele>550.5</ele>
        <time>2019-08-18T06:13:14Z</time>
      </trkpt>
      <trkpt lat="42.4597220" lon="-8.0929220">
        <ele>550.1</ele>
        <time>2019-08-18T06:13:15Z</time>
      </trkpt>
      <trkpt lat="42.4597490" lon="-8.0929160">
        <ele>550.1</ele>
        <time>2019-08-18T06:13:16Z</time>
      </trkpt>
      <trkpt lat="42.4597750" lon="-8.0929100">
        <ele>550.2</ele>
        <time>2019-08-18T06:13:17Z</time>
      </trkpt>
      <trkpt lat="42.4598020" lon="-8.0929050">
        <ele>550.2</ele>
        <time>2019-08-18T06:13:18Z</time>
      </trkpt>
      <trkpt lat="42.4598280" lon="-8.0929000">
        <ele>550.2</ele>
        <time>2019-08-18T06:13:19Z</time>
      </trkpt>
      <trkpt lat="42.4598550" lon="-8.0928960">
        <ele>550.2</ele>
        <time>2019-08-18T06:13:20Z</time>
      </trkpt>
      <trkpt lat="42.4598810" lon="-8.0928920">
        <ele>550.3</ele>
        <time>2019-08-18T06:13:21Z</time>
      </trkpt>
      <trkpt lat="42.4599070" lon="-8.0928880">
        <ele>550.3</ele>
        <time>2019-08-18T06:13:22Z</time>
      </trkpt>
      <trkpt lat="42.4599330" lon="-8.0928850">
        <ele>550.3</ele>
        <time>2019-08-18T06:13:23Z</time>
      </trkpt>
      <trkpt lat="42.4599590" lon="-8.0928820">
        <ele>550.4</ele>
        <time>2019-08-18T06:13:24Z</time>
      </trkpt>
      <trkpt lat="42.4599840" lon="-8.0928790">
        <ele>550.4</ele>
        <time>2019-08-18T06:13:25Z</time>
      </trkpt>
      <trkpt lat="42.4600110" lon="-8.0928760">
        <ele>550.4</ele>
        <time>2019-08-18T06:13:26Z</time>
      </trkpt>
      <trkpt lat="42.4600370" lon="-8.0928740">
        <ele>550.4</ele>
        <time>2019-08-18T06:13:27Z</time>
      </trkpt>
      <trkpt lat="42.4600630" lon="-8.0928730">
        <ele>550.5</ele>
        <time>2019-08-18T06:13:28Z</time>
      </trkpt>
      <trkpt lat="42.4600900" lon="-8.0928720">
        <ele>550.5</ele>
        <time>2019-08-18T06:13:29Z</time>
      </trkpt>
      <trkpt lat="42.4601180" lon="-8.0928710">
        <ele>550.5</ele>
        <time>2019-08-18T06:13:30Z</time>
      </trkpt>
      <trkpt lat="42.4601450" lon="-8.0928710">
        <ele>550.5</ele>
        <time>2019-08-18T06:13:31Z</time>
      </trkpt>
      <trkpt lat="42.4601730" lon="-8.0928710">
        <ele>550.5</ele>
        <time>2019-08-18T06:13:32Z</time>
      </trkpt>
      <trkpt lat="42.4602010" lon="-8.0928710">
        <ele>550.6</ele>
        <time>2019-08-18T06:13:33Z</time>
      </trkpt>
      <trkpt lat="42.4602280" lon="-8.0928720">
        <ele>550.6</ele>
        <time>2019-08-18T06:13:34Z</time>
      </trkpt>
      <trkpt lat="42.4602560" lon="-8.0928730">
        <ele>550.6</ele>
        <time>2019-08-18T06:13:35Z</time>
      </trkpt>
      <trkpt lat="42.4602830" lon="-8.0928750">
        <ele>550.6</ele>
        <time>2019-08-18T06:13:36Z</time>
      </trkpt>
      <trkpt lat="42.4603100" lon="-8.0928760">
        <ele>550.7</ele>
        <time>2019-08-18T06:13:37Z</time>
      </trkpt>
      <trkpt lat="42.4603370" lon="-8.0928790">
        <ele>550.7</ele>
        <time>2019-08-18T06:13:38Z</time>
      </trkpt>
      <trkpt lat="42.4603640" lon="-8.0928810">
        <ele>550.7</ele>
        <time>2019-08-18T06:13:39Z</time>
      </trkpt>
      <trkpt lat="42.4603900" lon="-8.0928840">
        <ele>550.7</ele>
        <time>2019-08-18T06:13:40Z</time>
      </trkpt>
      <trkpt lat="42.4604170" lon="-8.0928870">
        <ele>550.7</ele>
        <time>2019-08-18T06:13:41Z</time>
      </trkpt>
      <trkpt lat="42.4604430" lon="-8.0928910">
        <ele>550.8</ele>
        <time>2019-08-18T06:13:42Z</time>
      </trkpt>
      <trkpt lat="42.4604690" lon="-8.0928960">
        <ele>550.8</ele>
        <time>2019-08-18T06:13:43Z</time>
      </trkpt>
      <trkpt lat="42.4604950" lon="-8.0929010">
        <ele>550.8</ele>
        <time>2019-08-18T06:13:44Z</time>
      </trkpt>
      <trkpt lat="42.4605210" lon="-8.0929060">
        <ele>550.8</ele>
        <time>2019-08-18T06:13:45Z</time>
      </trkpt>
      <trkpt lat="42.4605470" lon="-8.0929120">
        <ele>550.8</ele>
        <time>2019-08-18T06:13:46Z</time>
      </trkpt>
      <trkpt lat="42.4605730" lon="-8.0929190">
        <ele>550.9</ele>
        <time>2019-08-18T06:13:47Z</time>
      </trkpt>
      <trkpt lat="42.4605990" lon="-8.0929270">
        <ele>550.9</ele>
        <time>2019-08-18T06:13:48Z</time>
      </trkpt>
      <trkpt lat="42.4606240" lon="-8.0929350">
        <ele>550.9</ele>
        <time>2019-08-18T06:13:49Z</time>
      </trkpt>
      <trkpt lat="42.4606500" lon="-8.0929440">
        <ele>550.9</ele>
        <time>2019-08-18T06:13:50Z</time>
      </trkpt>
      <trkpt lat="42.4606760" lon="-8.0929530">
        <ele>551.0</ele>
        <time>2019-08-18T06:13:51Z</time>
      </trkpt>
      <trkpt lat="42.4607020" lon="-8.0929630">
        <ele>551.0</ele>
        <time>2019-08-18T06:13:52Z</time>
      </trkpt>
      <trkpt lat="42.4607280" lon="-8.0929740">
        <ele>551.0</ele>
        <time>2019-08-18T06:13:53Z</time>
      </trkpt>
      <trkpt lat="42.4607540" lon="-8.0929850">
        <ele>551.0</ele>
        <time>2019-08-18T06:13:54Z</time>
      </trkpt>
      <trkpt lat="42.4607800" lon="-8.0929960">
        <ele>551.1</ele>
        <time>2019-08-18T06:13:55Z</time>
      </trkpt>
      <trkpt lat="42.4608060" lon="-8.0930080">
        <ele>551.1</ele>
        <time>2019-08-18T06:13:56Z</time>
      </trkpt>
      <trkpt lat="42.4608320" lon="-8.0930190">
        <ele>551.1</ele>
        <time>2019-08-18T06:13:57Z</time>
      </trkpt>
      <trkpt lat="42.4608580" lon="-8.0930310">
        <ele>551.1</ele>
        <time>2019-08-18T06:13:58Z</time>
      </trkpt>
      <trkpt lat="42.4608850" lon="-8.0930420">
        <ele>551.2</ele>
        <time>2019-08-18T06:13:59Z</time>
      </trkpt>
      <trkpt lat="42.4609110" lon="-8.0930540">
        <ele>551.2</ele>
        <time>2019-08-18T06:14:00Z</time>
      </trkpt>
      <trkpt lat="42.4609370" lon="-8.0930660">
        <ele>551.2</ele>
        <time>2019-08-18T06:14:01Z</time>
      </trkpt>
      <trkpt lat="42.4609640" lon="-8.0930780">
        <ele>551.2</ele>
        <time>2019-08-18T06:14:02Z</time>
      </trkpt>
      <trkpt lat="42.4609900" lon="-8.0930910">
        <ele>551.2</ele>
        <time>2019-08-18T06:14:03Z</time>
      </trkpt>
      <trkpt lat="42.4610150" lon="-8.0931040">
        <ele>551.3</ele>
        <time>2019-08-18T06:14:04Z</time>
      </trkpt>
      <trkpt lat="42.4610410" lon="-8.0931170">
        <ele>551.3</ele>
        <time>2019-08-18T06:14:05Z</time>
      </trkpt>
      <trkpt lat="42.4610660" lon="-8.0931310">
        <ele>551.3</ele>
        <time>2019-08-18T06:14:06Z</time>
      </trkpt>
      <trkpt lat="42.4610910" lon="-8.0931460">
        <ele>551.3</ele>
        <time>2019-08-18T06:14:07Z</time>
      </trkpt>
      <trkpt lat="42.4611160" lon="-8.0931610">
        <ele>551.4</ele>
        <time>2019-08-18T06:14:08Z</time>
      </trkpt>
      <trkpt lat="42.4611410" lon="-8.0931770">
        <ele>551.4</ele>
        <time>2019-08-18T06:14:09Z</time>
      </trkpt>
      <trkpt lat="42.4611650" lon="-8.0931930">
        <ele>551.4</ele>
        <time>2019-08-18T06:14:10Z</time>
      </trkpt>
      <trkpt lat="42.4611890" lon="-8.0932100">
        <ele>551.5</ele>
        <time>2019-08-18T06:14:11Z</time>
      </trkpt>
      <trkpt lat="42.4612130" lon="-8.0932270">
        <ele>551.5</ele>
        <time>2019-08-18T06:14:12Z</time>
      </trkpt>
      <trkpt lat="42.4612370" lon="-8.0932440">
        <ele>551.5</ele>
        <time>2019-08-18T06:14:13Z</time>
      </trkpt>
      <trkpt lat="42.4612600" lon="-8.0932620">
        <ele>551.6</ele>
        <time>2019-08-18T06:14:14Z</time>
      </trkpt>
      <trkpt lat="42.4612840" lon="-8.0932800">
        <ele>551.6</ele>
        <time>2019-08-18T06:14:15Z</time>
      </trkpt>
      <trkpt lat="42.4613070" lon="-8.0932990">
        <ele>551.6</ele>
        <time>2019-08-18T06:14:16Z</time>
      </trkpt>
      <trkpt lat="42.4613310" lon="-8.0933170">
        <ele>551.7</ele>
        <time>2019-08-18T06:14:17Z</time>
      </trkpt>
      <trkpt lat="42.4613540" lon="-8.0933370">
        <ele>551.7</ele>
        <time>2019-08-18T06:14:18Z</time>
      </trkpt>
      <trkpt lat="42.4613770" lon="-8.0933560">
        <ele>551.7</ele>
        <time>2019-08-18T06:14:19Z</time>
      </trkpt>
      <trkpt lat="42.4613990" lon="-8.0933760">
        <ele>551.8</ele>
        <time>2019-08-18T06:14:20Z</time>
      </trkpt>
      <trkpt lat="42.4614220" lon="-8.0933960">
        <ele>551.8</ele>
        <time>2019-08-18T06:14:21Z</time>
      </trkpt>
      <trkpt lat="42.4614450" lon="-8.0934160">
        <ele>551.9</ele>
        <time>2019-08-18T06:14:22Z</time>
      </trkpt>
      <trkpt lat="42.4614670" lon="-8.0934370">
        <ele>551.9</ele>
        <time>2019-08-18T06:14:23Z</time>
      </trkpt>
      <trkpt lat="42.4614890" lon="-8.0934590">
        <ele>551.9</ele>
        <time>2019-08-18T06:14:24Z</time>
      </trkpt>
      <trkpt lat="42.4615110" lon="-8.0934810">
        <ele>552.0</ele>
        <time>2019-08-18T06:14:25Z</time>
      </trkpt>
      <trkpt lat="42.4615330" lon="-8.0935030">
        <ele>552.0</ele>
        <time>2019-08-18T06:14:26Z</time>
      </trkpt>
      <trkpt lat="42.4615540" lon="-8.0935260">
        <ele>552.1</ele>
        <time>2019-08-18T06:14:27Z</time>
      </trkpt>
      <trkpt lat="42.4615750" lon="-8.0935490">
        <ele>552.1</ele>
        <time>2019-08-18T06:14:28Z</time>
      </trkpt>
      <trkpt lat="42.4615960" lon="-8.0935730">
        <ele>552.1</ele>
        <time>2019-08-18T06:14:29Z</time>
      </trkpt>
      <trkpt lat="42.4616170" lon="-8.0935980">
        <ele>552.2</ele>
        <time>2019-08-18T06:14:30Z</time>
      </trkpt>
      <trkpt lat="42.4616370" lon="-8.0936230">
        <ele>552.2</ele>
        <time>2019-08-18T06:14:31Z</time>
      </trkpt>
      <trkpt lat="42.4616570" lon="-8.0936500">
        <ele>553.0</ele>
        <time>2019-08-18T06:14:32Z</time>
      </trkpt>
      <trkpt lat="42.4616760" lon="-8.0936760">
        <ele>553.4</ele>
        <time>2019-08-18T06:14:33Z</time>
      </trkpt>
      <trkpt lat="42.4616950" lon="-8.0937040">
        <ele>553.8</ele>
        <time>2019-08-18T06:14:34Z</time>
      </trkpt>
      <trkpt lat="42.4617140" lon="-8.0937320">
        <ele>554.2</ele>
        <time>2019-08-18T06:14:35Z</time>
      </trkpt>
      <trkpt lat="42.4617320" lon="-8.0937600">
        <ele>554.6</ele>
        <time>2019-08-18T06:14:36Z</time>
      </trkpt>
      <trkpt lat="42.4617500" lon="-8.0937890">
        <ele>554.9</ele>
        <time>2019-08-18T06:14:37Z</time>
      </trkpt>
      <trkpt lat="42.4617680" lon="-8.0938170">
        <ele>555.2</ele>
        <time>2019-08-18T06:14:38Z</time>
      </trkpt>
      <trkpt lat="42.4617860" lon="-8.0938440">
        <ele>555.5</ele>
        <time>2019-08-18T06:14:39Z</time>
      </trkpt>
      <trkpt lat="42.4618040" lon="-8.0938710">
        <ele>555.8</ele>
        <time>2019-08-18T06:14:40Z</time>
      </trkpt>
      <trkpt lat="42.4618210" lon="-8.0938970">
        <ele>556.1</ele>
        <time>2019-08-18T06:14:41Z</time>
      </trkpt>
      <trkpt lat="42.4618390" lon="-8.0939220">
        <ele>556.4</ele>
        <time>2019-08-18T06:14:42Z</time>
      </trkpt>
      <trkpt lat="42.4618560" lon="-8.0939470">
        <ele>556.7</ele>
        <time>2019-08-18T06:14:43Z</time>
      </trkpt>
      <trkpt lat="42.4618740" lon="-8.0939720">
        <ele>557.0</ele>
        <time>2019-08-18T06:14:44Z</time>
      </trkpt>
      <trkpt lat="42.4618910" lon="-8.0939960">
        <ele>557.3</ele>
        <time>2019-08-18T06:14:45Z</time>
      </trkpt>
      <trkpt lat="42.4619090" lon="-8.0940210">
        <ele>557.6</ele>
        <time>2019-08-18T06:14:46Z</time>
      </trkpt>
      <trkpt lat="42.4619270" lon="-8.0940460">
        <ele>557.9</ele>
        <time>2019-08-18T06:14:47Z</time>
      </trkpt>
      <trkpt lat="42.4619440" lon="-8.0940720">
        <ele>558.2</ele>
        <time>2019-08-18T06:14:48Z</time>
      </trkpt>
      <trkpt lat="42.4619620" lon="-8.0940990">
        <ele>558.5</ele>
        <time>2019-08-18T06:14:49Z</time>
      </trkpt>
      <trkpt lat="42.4619800" lon="-8.0941270">
        <ele>558.8</ele>
        <time>2019-08-18T06:14:50Z</time>
      </trkpt>
      <trkpt lat="42.4619970" lon="-8.0941550">
        <ele>559.2</ele>
        <time>2019-08-18T06:14:51Z</time>
      </trkpt>
      <trkpt lat="42.4620150" lon="-8.0941840">
        <ele>559.5</ele>
        <time>2019-08-18T06:14:52Z</time>
      </trkpt>
      <trkpt lat="42.4620320" lon="-8.0942130">
        <ele>559.9</ele>
        <time>2019-08-18T06:14:53Z</time>
      </trkpt>
      <trkpt lat="42.4620500" lon="-8.0942440">
        <ele>560.3</ele>
        <time>2019-08-18T06:14:54Z</time>
      </trkpt>
      <trkpt lat="42.4620670" lon="-8.0942740">
        <ele>560.7</ele>
        <time>2019-08-18T06:14:55Z</time>
      </trkpt>
      <trkpt lat="42.4620840" lon="-8.0943060">
        <ele>561.1</ele>
        <time>2019-08-18T06:14:56Z</time>
      </trkpt>
      <trkpt lat="42.4621010" lon="-8.0943390">
        <ele>561.6</ele>
        <time>2019-08-18T06:14:57Z</time>
      </trkpt>
      <trkpt lat="42.4621180" lon="-8.0943720">
        <ele>562.0</ele>
        <time>2019-08-18T06:14:58Z</time>
      </trkpt>
      <trkpt lat="42.4621350" lon="-8.0944050">
        <ele>562.4</ele>
        <time>2019-08-18T06:14:59Z</time>
      </trkpt>
      <trkpt lat="42.4621520" lon="-8.0944400">
        <ele>562.9</ele>
        <time>2019-08-18T06:15:00Z</time>
      </trkpt>
      <trkpt lat="42.4621680" lon="-8.0944740">
        <ele>563.3</ele>
        <time>2019-08-18T06:15:01Z</time>
      </trkpt>
      <trkpt lat="42.4621840" lon="-8.0945100">
        <ele>563.7</ele>
        <time>2019-08-18T06:15:02Z</time>
      </trkpt>
      <trkpt lat="42.4622000" lon="-8.0945460">
        <ele>564.1</ele>
        <time>2019-08-18T06:15:03Z</time>
      </trkpt>
      <trkpt lat="42.4622150" lon="-8.0945830">
        <ele>564.4</ele>
        <time>2019-08-18T06:15:04Z</time>
      </trkpt>
      <trkpt lat="42.4622310" lon="-8.0946210">
        <ele>564.8</ele>
        <time>2019-08-18T06:15:05Z</time>
      </trkpt>
      <trkpt lat="42.4622460" lon="-8.0946600">
        <ele>564.8</ele>
        <time>2019-08-18T06:15:06Z</time>
      </trkpt>
      <trkpt lat="42.4622610" lon="-8.0946990">
        <ele>564.9</ele>
        <time>2019-08-18T06:15:07Z</time>
      </trkpt>
      <trkpt lat="42.4622770" lon="-8.0947400">
        <ele>565.0</ele>
        <time>2019-08-18T06:15:08Z</time>
      </trkpt>
      <trkpt lat="42.4622920" lon="-8.0947810">
        <ele>565.0</ele>
        <time>2019-08-18T06:15:09Z</time>
      </trkpt>
      <trkpt lat="42.4623080" lon="-8.0948240">
        <ele>565.1</ele>
        <time>2019-08-18T06:15:10Z</time>
      </trkpt>
      <trkpt lat="42.4623240" lon="-8.0948680">
        <ele>565.2</ele>
        <time>2019-08-18T06:15:11Z</time>
      </trkpt>
      <trkpt lat="42.4623400" lon="-8.0949130">
        <ele>565.2</ele>
        <time>2019-08-18T06:15:12Z</time>
      </trkpt>
      <trkpt lat="42.4623560" lon="-8.0949590">
        <ele>565.3</ele>
        <time>2019-08-18T06:15:13Z</time>
      </trkpt>
      <trkpt lat="42.4623720" lon="-8.0950060">
        <ele>565.3</ele>
        <time>2019-08-18T06:15:14Z</time>
      </trkpt>
      <trkpt lat="42.4623880" lon="-8.0950530">
        <ele>565.4</ele>
        <time>2019-08-18T06:15:15Z</time>
      </trkpt>
      <trkpt lat="42.4624050" lon="-8.0951000">
        <ele>565.5</ele>
        <time>2019-08-18T06:15:16Z</time>
      </trkpt>
      <trkpt lat="42.4624210" lon="-8.0951480">
        <ele>565.5</ele>
        <time>2019-08-18T06:15:17Z</time>
      </trkpt>
      <trkpt lat="42.4624360" lon="-8.0951950">
        <ele>565.6</ele>
        <time>2019-08-18T06:15:18Z</time>
      </trkpt>
      <trkpt lat="42.4624520" lon="-8.0952430">
        <ele>565.6</ele>
        <time>2019-08-18T06:15:19Z</time>
      </trkpt>
      <trkpt lat="42.4624680" lon="-8.0952900">
        <ele>565.7</ele>
        <time>2019-08-18T06:15:20Z</time>
      </trkpt>
      <trkpt lat="42.4624830" lon="-8.0953380">
        <ele>565.7</ele>
        <time>2019-08-18T06:15:21Z</time>
      </trkpt>
      <trkpt lat="42.4624990" lon="-8.0953860">
        <ele>565.8</ele>
        <time>2019-08-18T06:15:22Z</time>
      </trkpt>
      <trkpt lat="42.4625140" lon="-8.0954340">
        <ele>565.9</ele>
        <time>2019-08-18T06:15:23Z</time>
      </trkpt>
      <trkpt lat="42.4625300" lon="-8.0954830">
        <ele>565.9</ele>
        <time>2019-08-18T06:15:24Z</time>
      </trkpt>
      <trkpt lat="42.4625450" lon="-8.0955320">
        <ele>566.0</ele>
        <time>2019-08-18T06:15:25Z</time>
      </trkpt>
      <trkpt lat="42.4625610" lon="-8.0955810">
        <ele>566.1</ele>
        <time>2019-08-18T06:15:26Z</time>
      </trkpt>
      <trkpt lat="42.4625770" lon="-8.0956310">
        <ele>566.2</ele>
        <time>2019-08-18T06:15:27Z</time>
      </trkpt>
      <trkpt lat="42.4625930" lon="-8.0956810">
        <ele>566.3</ele>
        <time>2019-08-18T06:15:28Z</time>
      </trkpt>
      <trkpt lat="42.4626100" lon="-8.0957330">
        <ele>566.4</ele>
        <time>2019-08-18T06:15:29Z</time>
      </trkpt>
      <trkpt lat="42.4626270" lon="-8.0957840">
        <ele>566.4</ele>
        <time>2019-08-18T06:15:30Z</time>
      </trkpt>
      <trkpt lat="42.4626440" lon="-8.0958370">
        <ele>566.5</ele>
        <time>2019-08-18T06:15:31Z</time>
      </trkpt>
      <trkpt lat="42.4626610" lon="-8.0958900">
        <ele>566.5</ele>
        <time>2019-08-18T06:15:32Z</time>
      </trkpt>
      <trkpt lat="42.4626790" lon="-8.0959440">
        <ele>566.6</ele>
        <time>2019-08-18T06:15:33Z</time>
      </trkpt>
      <trkpt lat="42.4626970" lon="-8.0959990">
        <ele>566.6</ele>
        <time>2019-08-18T06:15:34Z</time>
      </trkpt>
      <trkpt lat="42.4627160" lon="-8.0960550">
        <ele>566.6</ele>
        <time>2019-08-18T06:15:35Z</time>
      </trkpt>
      <trkpt lat="42.4627350" lon="-8.0961120">
        <ele>566.7</ele>
        <time>2019-08-18T06:15:36Z</time>
      </trkpt>
      <trkpt lat="42.4627540" lon="-8.0961690">
        <ele>566.7</ele>
        <time>2019-08-18T06:15:37Z</time>
      </trkpt>
      <trkpt lat="42.4627740" lon="-8.0962270">
        <ele>566.7</ele>
        <time>2019-08-18T06:15:38Z</time>
      </trkpt>
      <trkpt lat="42.4627940" lon="-8.0962860">
        <ele>566.7</ele>
        <time>2019-08-18T06:15:39Z</time>
      </trkpt>
      <trkpt lat="42.4628140" lon="-8.0963450">
        <ele>566.7</ele>
        <time>2019-08-18T06:15:40Z</time>
      </trkpt>
      <trkpt lat="42.4628340" lon="-8.0964050">
        <ele>566.7</ele>
        <time>2019-08-18T06:15:41Z</time>
      </trkpt>
      <trkpt lat="42.4628540" lon="-8.0964650">
        <ele>566.7</ele>
        <time>2019-08-18T06:15:42Z</time>
      </trkpt>
      <trkpt lat="42.4628750" lon="-8.0965260">
        <ele>566.7</ele>
        <time>2019-08-18T06:15:43Z</time>
      </trkpt>
      <trkpt lat="42.4628960" lon="-8.0965880">
        <ele>566.7</ele>
        <time>2019-08-18T06:15:44Z</time>
      </trkpt>
      <trkpt lat="42.4629170" lon="-8.0966500">
        <ele>566.7</ele>
        <time>2019-08-18T06:15:45Z</time>
      </trkpt>
      <trkpt lat="42.4629380" lon="-8.0967120">
        <ele>566.7</ele>
        <time>2019-08-18T06:15:46Z</time>
      </trkpt>
      <trkpt lat="42.4629590" lon="-8.0967750">
        <ele>566.6</ele>
        <time>2019-08-18T06:15:47Z</time>
      </trkpt>
      <trkpt lat="42.4629800" lon="-8.0968380">
        <ele>566.6</ele>
        <time>2019-08-18T06:15:48Z</time>
      </trkpt>
      <trkpt lat="42.4630020" lon="-8.0969010">
        <ele>566.5</ele>
        <time>2019-08-18T06:15:49Z</time>
      </trkpt>
      <trkpt lat="42.4630250" lon="-8.0969630">
        <ele>566.4</ele>
        <time>2019-08-18T06:15:50Z</time>
      </trkpt>
      <trkpt lat="42.4630500" lon="-8.0970250">
        <ele>566.3</ele>
        <time>2019-08-18T06:15:51Z</time>
      </trkpt>
      <trkpt lat="42.4630760" lon="-8.0970870">
        <ele>566.2</ele>
        <time>2019-08-18T06:15:52Z</time>
      </trkpt>
      <trkpt lat="42.4631040" lon="-8.0971470">
        <ele>566.0</ele>
        <time>2019-08-18T06:15:53Z</time>
      </trkpt>
      <trkpt lat="42.4631340" lon="-8.0972070">
        <ele>565.9</ele>
        <time>2019-08-18T06:15:54Z</time>
      </trkpt>
      <trkpt lat="42.4631660" lon="-8.0972650">
        <ele>565.7</ele>
        <time>2019-08-18T06:15:55Z</time>
      </trkpt>
      <trkpt lat="42.4632010" lon="-8.0973220">
        <ele>565.5</ele>
        <time>2019-08-18T06:15:56Z</time>
      </trkpt>
      <trkpt lat="42.4632380" lon="-8.0973770">
        <ele>565.3</ele>
        <time>2019-08-18T06:15:57Z</time>
      </trkpt>
      <trkpt lat="42.4632770" lon="-8.0974310">
        <ele>565.1</ele>
        <time>2019-08-18T06:15:58Z</time>
      </trkpt>
      <trkpt lat="42.4633180" lon="-8.0974840">
        <ele>564.9</ele>
        <time>2019-08-18T06:15:59Z</time>
      </trkpt>
      <trkpt lat="42.4633610" lon="-8.0975350">
        <ele>564.7</ele>
        <time>2019-08-18T06:16:00Z</time>
      </trkpt>
      <trkpt lat="42.4634060" lon="-8.0975840">
        <ele>564.5</ele>
        <time>2019-08-18T06:16:01Z</time>
      </trkpt>
      <trkpt lat="42.4634530" lon="-8.0976320">
        <ele>564.2</ele>
        <time>2019-08-18T06:16:02Z</time>
      </trkpt>
      <trkpt lat="42.4635010" lon="-8.0976780">
        <ele>563.9</ele>
        <time>2019-08-18T06:16:03Z</time>
      </trkpt>
      <trkpt lat="42.4635510" lon="-8.0977230">
        <ele>563.6</ele>
        <time>2019-08-18T06:16:04Z</time>
      </trkpt>
      <trkpt lat="42.4636040" lon="-8.0977640">
        <ele>563.2</ele>
        <time>2019-08-18T06:16:05Z</time>
      </trkpt>
      <trkpt lat="42.4636580" lon="-8.0978040">
        <ele>562.8</ele>
        <time>2019-08-18T06:16:06Z</time>
      </trkpt>
      <trkpt lat="42.4637150" lon="-8.0978400">
        <ele>562.4</ele>
        <time>2019-08-18T06:16:07Z</time>
      </trkpt>
      <trkpt lat="42.4637740" lon="-8.0978730">
        <ele>562.0</ele>
        <time>2019-08-18T06:16:08Z</time>
      </trkpt>
      <trkpt lat="42.4638350" lon="-8.0979030">
        <ele>561.6</ele>
        <time>2019-08-18T06:16:09Z</time>
      </trkpt>
      <trkpt lat="42.4638990" lon="-8.0979300">
        <ele>561.1</ele>
        <time>2019-08-18T06:16:10Z</time>
      </trkpt>
      <trkpt lat="42.4639650" lon="-8.0979530">
        <ele>560.6</ele>
        <time>2019-08-18T06:16:11Z</time>
      </trkpt>
      <trkpt lat="42.4640350" lon="-8.0979700">
        <ele>560.1</ele>
        <time>2019-08-18T06:16:12Z</time>
      </trkpt>
      <trkpt lat="42.4641040" lon="-8.0979880">
        <ele>559.6</ele>
        <time>2019-08-18T06:16:13Z</time>
      </trkpt>
      <trkpt lat="42.4641760" lon="-8.0980000">
        <ele>559.1</ele>
        <time>2019-08-18T06:16:14Z</time>
      </trkpt>
      <trkpt lat="42.4642500" lon="-8.0980070">
        <ele>558.6</ele>
        <time>2019-08-18T06:16:15Z</time>
      </trkpt>
      <trkpt lat="42.4643260" lon="-8.0980110">
        <ele>558.2</ele>
        <time>2019-08-18T06:16:16Z</time>
      </trkpt>
      <trkpt lat="42.4644030" lon="-8.0980110">
        <ele>557.7</ele>
        <time>2019-08-18T06:16:17Z</time>
      </trkpt>
      <trkpt lat="42.4644810" lon="-8.0980080">
        <ele>557.2</ele>
        <time>2019-08-18T06:16:18Z</time>
      </trkpt>
      <trkpt lat="42.4646020" lon="-8.0979980">
        <ele>556.5</ele>
        <time>2019-08-18T06:16:19Z</time>
      </trkpt>
      <trkpt lat="42.4646430" lon="-8.0979930">
        <ele>556.2</ele>
        <time>2019-08-18T06:16:20Z</time>
      </trkpt>
      <trkpt lat="42.4647240" lon="-8.0979830">
        <ele>555.7</ele>
        <time>2019-08-18T06:16:21Z</time>
      </trkpt>
      <trkpt lat="42.4648060" lon="-8.0979720">
        <ele>555.3</ele>
        <time>2019-08-18T06:16:22Z</time>
      </trkpt>
      <trkpt lat="42.4648900" lon="-8.0979590">
        <ele>554.7</ele>
        <time>2019-08-18T06:16:23Z</time>
      </trkpt>
      <trkpt lat="42.4649740" lon="-8.0979450">
        <ele>554.2</ele>
        <time>2019-08-18T06:16:24Z</time>
      </trkpt>
      <trkpt lat="42.4650590" lon="-8.0979320">
        <ele>553.7</ele>
        <time>2019-08-18T06:16:25Z</time>
      </trkpt>
      <trkpt lat="42.4651450" lon="-8.0979200">
        <ele>553.1</ele>
        <time>2019-08-18T06:16:26Z</time>
      </trkpt>
      <trkpt lat="42.4652310" lon="-8.0979110">
        <ele>552.6</ele>
        <time>2019-08-18T06:16:27Z</time>
      </trkpt>
      <trkpt lat="42.4653180" lon="-8.0979050">
        <ele>552.1</ele>
        <time>2019-08-18T06:16:28Z</time>
      </trkpt>
      <trkpt lat="42.4654060" lon="-8.0979030">
        <ele>551.6</ele>
        <time>2019-08-18T06:16:29Z</time>
      </trkpt>
      <trkpt lat="42.4654940" lon="-8.0979060">
        <ele>551.0</ele>
        <time>2019-08-18T06:16:30Z</time>
      </trkpt>
      <trkpt lat="42.4655830" lon="-8.0979160">
        <ele>550.4</ele>
        <time>2019-08-18T06:16:31Z</time>
      </trkpt>
      <trkpt lat="42.4656720" lon="-8.0979320">
        <ele>549.9</ele>
        <time>2019-08-18T06:16:32Z</time>
      </trkpt>
      <trkpt lat="42.4657620" lon="-8.0979540">
        <ele>549.3</ele>
        <time>2019-08-18T06:16:33Z</time>
      </trkpt>
      <trkpt lat="42.4658510" lon="-8.0979820">
        <ele>548.8</ele>
        <time>2019-08-18T06:16:34Z</time>
      </trkpt>
      <trkpt lat="42.4659390" lon="-8.0980170">
        <ele>548.3</ele>
        <time>2019-08-18T06:16:35Z</time>
      </trkpt>
      <trkpt lat="42.4660250" lon="-8.0980580">
        <ele>547.8</ele>
        <time>2019-08-18T06:16:36Z</time>
      </trkpt>
      <trkpt lat="42.4661110" lon="-8.0981050">
        <ele>547.3</ele>
        <time>2019-08-18T06:16:37Z</time>
      </trkpt>
      <trkpt lat="42.4661940" lon="-8.0981590">
        <ele>546.8</ele>
        <time>2019-08-18T06:16:38Z</time>
      </trkpt>
      <trkpt lat="42.4662750" lon="-8.0982180">
        <ele>546.3</ele>
        <time>2019-08-18T06:16:39Z</time>
      </trkpt>
      <trkpt lat="42.4663950" lon="-8.0983170">
        <ele>545.5</ele>
        <time>2019-08-18T06:16:40Z</time>
      </trkpt>
      <trkpt lat="42.4664340" lon="-8.0983520">
        <ele>545.2</ele>
        <time>2019-08-18T06:16:41Z</time>
      </trkpt>
      <trkpt lat="42.4665120" lon="-8.0984220">
        <ele>544.6</ele>
        <time>2019-08-18T06:16:42Z</time>
      </trkpt>
      <trkpt lat="42.4665900" lon="-8.0984970">
        <ele>544.0</ele>
        <time>2019-08-18T06:16:43Z</time>
      </trkpt>
      <trkpt lat="42.4666660" lon="-8.0985730">
        <ele>543.4</ele>
        <time>2019-08-18T06:16:44Z</time>
      </trkpt>
      <trkpt lat="42.4667430" lon="-8.0986510">
        <ele>542.9</ele>
        <time>2019-08-18T06:16:45Z</time>
      </trkpt>
      <trkpt lat="42.4668210" lon="-8.0987290">
        <ele>542.2</ele>
        <time>2019-08-18T06:16:46Z</time>
      </trkpt>
      <trkpt lat="42.4668990" lon="-8.0988080">
        <ele>541.6</ele>
        <time>2019-08-18T06:16:47Z</time>
      </trkpt>
      <trkpt lat="42.4669780" lon="-8.0988850">
        <ele>540.9</ele>
        <time>2019-08-18T06:16:48Z</time>
      </trkpt>
      <trkpt lat="42.4670580" lon="-8.0989620">
        <ele>540.3</ele>
        <time>2019-08-18T06:16:49Z</time>
      </trkpt>
      <trkpt lat="42.4671400" lon="-8.0990360">
        <ele>539.6</ele>
        <time>2019-08-18T06:16:50Z</time>
      </trkpt>
      <trkpt lat="42.4672250" lon="-8.0991070">
        <ele>538.9</ele>
        <time>2019-08-18T06:16:51Z</time>
      </trkpt>
      <trkpt lat="42.4673120" lon="-8.0991760">
        <ele>538.1</ele>
        <time>2019-08-18T06:16:52Z</time>
      </trkpt>
      <trkpt lat="42.4674020" lon="-8.0992400">
        <ele>537.4</ele>
        <time>2019-08-18T06:16:53Z</time>
      </trkpt>
      <trkpt lat="42.4674940" lon="-8.0992990">
        <ele>536.7</ele>
        <time>2019-08-18T06:16:54Z</time>
      </trkpt>
      <trkpt lat="42.4675890" lon="-8.0993540">
        <ele>536.0</ele>
        <time>2019-08-18T06:16:55Z</time>
      </trkpt>
      <trkpt lat="42.4676860" lon="-8.0994030">
        <ele>535.2</ele>
        <time>2019-08-18T06:16:56Z</time>
      </trkpt>
      <trkpt lat="42.4677850" lon="-8.0994470">
        <ele>534.4</ele>
        <time>2019-08-18T06:16:57Z</time>
      </trkpt>
      <trkpt lat="42.4678850" lon="-8.0994840">
        <ele>533.5</ele>
        <time>2019-08-18T06:16:58Z</time>
      </trkpt>
      <trkpt lat="42.4679860" lon="-8.0995140">
        <ele>532.6</ele>
        <time>2019-08-18T06:16:59Z</time>
      </trkpt>
      <trkpt lat="42.4680880" lon="-8.0995380">
        <ele>531.7</ele>
        <time>2019-08-18T06:17:00Z</time>
      </trkpt>
      <trkpt lat="42.4681900" lon="-8.0995550">
        <ele>530.8</ele>
        <time>2019-08-18T06:17:01Z</time>
      </trkpt>
      <trkpt lat="42.4682930" lon="-8.0995670">
        <ele>529.7</ele>
        <time>2019-08-18T06:17:02Z</time>
      </trkpt>
      <trkpt lat="42.4683960" lon="-8.0995760">
        <ele>528.5</ele>
        <time>2019-08-18T06:17:03Z</time>
      </trkpt>
      <trkpt lat="42.4685000" lon="-8.0995810">
        <ele>527.3</ele>
        <time>2019-08-18T06:17:04Z</time>
      </trkpt>
      <trkpt lat="42.4686040" lon="-8.0995850">
        <ele>526.1</ele>
        <time>2019-08-18T06:17:05Z</time>
      </trkpt>
      <trkpt lat="42.4687070" lon="-8.0995890">
        <ele>525.1</ele>
        <time>2019-08-18T06:17:06Z</time>
      </trkpt>
      <trkpt lat="42.4688110" lon="-8.0995920">
        <ele>524.1</ele>
        <time>2019-08-18T06:17:07Z</time>
      </trkpt>
      <trkpt lat="42.4689140" lon="-8.0995980">
        <ele>522.9</ele>
        <time>2019-08-18T06:17:08Z</time>
      </trkpt>
      <trkpt lat="42.4690160" lon="-8.0996050">
        <ele>521.8</ele>
        <time>2019-08-18T06:17:09Z</time>
      </trkpt>
      <trkpt lat="42.4691180" lon="-8.0996160">
        <ele>520.8</ele>
        <time>2019-08-18T06:17:10Z</time>
      </trkpt>
      <trkpt lat="42.4692190" lon="-8.0996290">
        <ele>520.0</ele>
        <time>2019-08-18T06:17:11Z</time>
      </trkpt>
      <trkpt lat="42.4693190" lon="-8.0996460">
        <ele>519.2</ele>
        <time>2019-08-18T06:17:12Z</time>
      </trkpt>
      <trkpt lat="42.4694160" lon="-8.0996680">
        <ele>518.4</ele>
        <time>2019-08-18T06:17:13Z</time>
      </trkpt>
      <trkpt lat="42.4695120" lon="-8.0996950">
        <ele>517.5</ele>
        <time>2019-08-18T06:17:14Z</time>
      </trkpt>
      <trkpt lat="42.4696060" lon="-8.0997270">
        <ele>516.7</ele>
        <time>2019-08-18T06:17:15Z</time>
      </trkpt>
      <trkpt lat="42.4696980" lon="-8.0997630">
        <ele>516.3</ele>
        <time>2019-08-18T06:17:16Z</time>
      </trkpt>
      <trkpt lat="42.4697880" lon="-8.0998040">
        <ele>516.4</ele>
        <time>2019-08-18T06:17:17Z</time>
      </trkpt>
      <trkpt lat="42.4698750" lon="-8.0998470">
        <ele>516.6</ele>
        <time>2019-08-18T06:17:18Z</time>
      </trkpt>
      <trkpt lat="42.4700130" lon="-8.0999230">
        <ele>516.8</ele>
        <time>2019-08-18T06:17:19Z</time>
      </trkpt>
      <trkpt lat="42.4700660" lon="-8.0999540">
        <ele>516.9</ele>
        <time>2019-08-18T06:17:20Z</time>
      </trkpt>
      <trkpt lat="42.4701200" lon="-8.0999850">
        <ele>517.0</ele>
        <time>2019-08-18T06:17:21Z</time>
      </trkpt>
      <trkpt lat="42.4701960" lon="-8.1000310">
        <ele>517.2</ele>
        <time>2019-08-18T06:17:22Z</time>
      </trkpt>
      <trkpt lat="42.4702700" lon="-8.1000760">
        <ele>517.4</ele>
        <time>2019-08-18T06:17:23Z</time>
      </trkpt>
      <trkpt lat="42.4703850" lon="-8.1001480">
        <ele>517.8</ele>
        <time>2019-08-18T06:17:24Z</time>
      </trkpt>
      <trkpt lat="42.4704290" lon="-8.1001750">
        <ele>517.9</ele>
        <time>2019-08-18T06:17:25Z</time>
      </trkpt>
      <trkpt lat="42.4704740" lon="-8.1002030">
        <ele>518.1</ele>
        <time>2019-08-18T06:17:26Z</time>
      </trkpt>
      <trkpt lat="42.4705370" lon="-8.1002430">
        <ele>518.3</ele>
        <time>2019-08-18T06:17:27Z</time>
      </trkpt>
      <trkpt lat="42.4705980" lon="-8.1002810">
        <ele>518.6</ele>
        <time>2019-08-18T06:17:28Z</time>
      </trkpt>
      <trkpt lat="42.4706580" lon="-8.1003190">
        <ele>518.9</ele>
        <time>2019-08-18T06:17:29Z</time>
      </trkpt>
      <trkpt lat="42.4707150" lon="-8.1003550">
        <ele>519.1</ele>
        <time>2019-08-18T06:17:30Z</time>
      </trkpt>
      <trkpt lat="42.4707710" lon="-8.1003900">
        <ele>519.4</ele>
        <time>2019-08-18T06:17:31Z</time>
      </trkpt>
      <trkpt lat="42.4708260" lon="-8.1004250">
        <ele>519.6</ele>
        <time>2019-08-18T06:17:32Z</time>
      </trkpt>
      <trkpt lat="42.4708790" lon="-8.1004590">
        <ele>519.8</ele>
        <time>2019-08-18T06:17:33Z</time>
      </trkpt>
      <trkpt lat="42.4709320" lon="-8.1004920">
        <ele>520.1</ele>
        <time>2019-08-18T06:17:34Z</time>
      </trkpt>
      <trkpt lat="42.4709840" lon="-8.1005250">
        <ele>520.3</ele>
        <time>2019-08-18T06:17:35Z</time>
      </trkpt>
      <trkpt lat="42.4710350" lon="-8.1005570">
        <ele>520.5</ele>
        <time>2019-08-18T06:17:36Z</time>
      </trkpt>
      <trkpt lat="42.4710860" lon="-8.1005890">
        <ele>520.8</ele>
        <time>2019-08-18T06:17:37Z</time>
      </trkpt>
      <trkpt lat="42.4711370" lon="-8.1006210">
        <ele>521.0</ele>
        <time>2019-08-18T06:17:38Z</time>
      </trkpt>
      <trkpt lat="42.4711870" lon="-8.1006530">
        <ele>521.2</ele>
        <time>2019-08-18T06:17:39Z</time>
      </trkpt>
      <trkpt lat="42.4712360" lon="-8.1006840">
        <ele>521.4</ele>
        <time>2019-08-18T06:17:40Z</time>
      </trkpt>
      <trkpt lat="42.4712850" lon="-8.1007140">
        <ele>521.7</ele>
        <time>2019-08-18T06:17:41Z</time>
      </trkpt>
      <trkpt lat="42.4713320" lon="-8.1007450">
        <ele>521.9</ele>
        <time>2019-08-18T06:17:42Z</time>
      </trkpt>
      <trkpt lat="42.4713790" lon="-8.1007750">
        <ele>522.1</ele>
        <time>2019-08-18T06:17:43Z</time>
      </trkpt>
      <trkpt lat="42.4714250" lon="-8.1008040">
        <ele>522.3</ele>
        <time>2019-08-18T06:17:44Z</time>
      </trkpt>
      <trkpt lat="42.4714690" lon="-8.1008330">
        <ele>522.6</ele>
        <time>2019-08-18T06:17:45Z</time>
      </trkpt>
      <trkpt lat="42.4715130" lon="-8.1008620">
        <ele>522.8</ele>
        <time>2019-08-18T06:17:46Z</time>
      </trkpt>
      <trkpt lat="42.4715550" lon="-8.1008900">
        <ele>523.0</ele>
        <time>2019-08-18T06:17:47Z</time>
      </trkpt>
      <trkpt lat="42.4715970" lon="-8.1009170">
        <ele>523.3</ele>
        <time>2019-08-18T06:17:48Z</time>
      </trkpt>
      <trkpt lat="42.4716370" lon="-8.1009450">
        <ele>523.5</ele>
        <time>2019-08-18T06:17:49Z</time>
      </trkpt>
      <trkpt lat="42.4716770" lon="-8.1009710">
        <ele>523.6</ele>
        <time>2019-08-18T06:17:50Z</time>
      </trkpt>
      <trkpt lat="42.4717160" lon="-8.1009970">
        <ele>523.7</ele>
        <time>2019-08-18T06:17:51Z</time>
      </trkpt>
      <trkpt lat="42.4717550" lon="-8.1010230">
        <ele>523.7</ele>
        <time>2019-08-18T06:17:52Z</time>
      </trkpt>
      <trkpt lat="42.4717920" lon="-8.1010490">
        <ele>523.8</ele>
        <time>2019-08-18T06:17:53Z</time>
      </trkpt>
      <trkpt lat="42.4718290" lon="-8.1010740">
        <ele>523.8</ele>
        <time>2019-08-18T06:17:54Z</time>
      </trkpt>
      <trkpt lat="42.4718660" lon="-8.1010980">
        <ele>523.8</ele>
        <time>2019-08-18T06:17:55Z</time>
      </trkpt>
      <trkpt lat="42.4719030" lon="-8.1011230">
        <ele>523.8</ele>
        <time>2019-08-18T06:17:56Z</time>
      </trkpt>
      <trkpt lat="42.4719390" lon="-8.1011470">
        <ele>523.8</ele>
        <time>2019-08-18T06:17:57Z</time>
      </trkpt>
      <trkpt lat="42.4719760" lon="-8.1011710">
        <ele>523.9</ele>
        <time>2019-08-18T06:17:58Z</time>
      </trkpt>
      <trkpt lat="42.4720120" lon="-8.1011950">
        <ele>523.9</ele>
        <time>2019-08-18T06:17:59Z</time>
      </trkpt>
      <trkpt lat="42.4720490" lon="-8.1012180">
        <ele>523.9</ele>
        <time>2019-08-18T06:18:00Z</time>
      </trkpt>
      <trkpt lat="42.4720860" lon="-8.1012420">
        <ele>523.9</ele>
        <time>2019-08-18T06:18:01Z</time>
      </trkpt>
      <trkpt lat="42.4721220" lon="-8.1012660">
        <ele>523.9</ele>
        <time>2019-08-18T06:18:02Z</time>
      </trkpt>
      <trkpt lat="42.4721590" lon="-8.1012890">
        <ele>524.0</ele>
        <time>2019-08-18T06:18:03Z</time>
      </trkpt>
      <trkpt lat="42.4721960" lon="-8.1013130">
        <ele>524.0</ele>
        <time>2019-08-18T06:18:04Z</time>
      </trkpt>
      <trkpt lat="42.4722320" lon="-8.1013360">
        <ele>524.0</ele>
        <time>2019-08-18T06:18:05Z</time>
      </trkpt>
      <trkpt lat="42.4722690" lon="-8.1013600">
        <ele>524.1</ele>
        <time>2019-08-18T06:18:06Z</time>
      </trkpt>
      <trkpt lat="42.4723050" lon="-8.1013840">
        <ele>524.1</ele>
        <time>2019-08-18T06:18:07Z</time>
      </trkpt>
      <trkpt lat="42.4723420" lon="-8.1014080">
        <ele>524.1</ele>
        <time>2019-08-18T06:18:08Z</time>
      </trkpt>
      <trkpt lat="42.4723780" lon="-8.1014310">
        <ele>524.2</ele>
        <time>2019-08-18T06:18:09Z</time>
      </trkpt>
      <trkpt lat="42.4724150" lon="-8.1014550">
        <ele>524.2</ele>
        <time>2019-08-18T06:18:10Z</time>
      </trkpt>
      <trkpt lat="42.4724510" lon="-8.1014790">
        <ele>524.3</ele>
        <time>2019-08-18T06:18:11Z</time>
      </trkpt>
      <trkpt lat="42.4724880" lon="-8.1015030">
        <ele>524.3</ele>
        <time>2019-08-18T06:18:12Z</time>
      </trkpt>
      <trkpt lat="42.4725250" lon="-8.1015270">
        <ele>524.4</ele>
        <time>2019-08-18T06:18:13Z</time>
      </trkpt>
      <trkpt lat="42.4725610" lon="-8.1015510">
        <ele>524.4</ele>
        <time>2019-08-18T06:18:14Z</time>
      </trkpt>
      <trkpt lat="42.4725980" lon="-8.1015750">
        <ele>524.5</ele>
        <time>2019-08-18T06:18:15Z</time>
      </trkpt>
      <trkpt lat="42.4726350" lon="-8.1015990">
        <ele>524.6</ele>
        <time>2019-08-18T06:18:16Z</time>
      </trkpt>
      <trkpt lat="42.4726720" lon="-8.1016230">
        <ele>524.6</ele>
        <time>2019-08-18T06:18:17Z</time>
      </trkpt>
      <trkpt lat="42.4727090" lon="-8.1016470">
        <ele>524.7</ele>
        <time>2019-08-18T06:18:18Z</time>
      </trkpt>
      <trkpt lat="42.4727460" lon="-8.1016710">
        <ele>524.8</ele>
        <time>2019-08-18T06:18:19Z</time>
      </trkpt>
      <trkpt lat="42.4727830" lon="-8.1016950">
        <ele>524.8</ele>
        <time>2019-08-18T06:18:20Z</time>
      </trkpt>
      <trkpt lat="42.4728210" lon="-8.1017190">
        <ele>524.9</ele>
        <time>2019-08-18T06:18:21Z</time>
      </trkpt>
      <trkpt lat="42.4728580" lon="-8.1017430">
        <ele>525.0</ele>
        <time>2019-08-18T06:18:22Z</time>
      </trkpt>
      <trkpt lat="42.4728950" lon="-8.1017660">
        <ele>525.0</ele>
        <time>2019-08-18T06:18:23Z</time>
      </trkpt>
      <trkpt lat="42.4729330" lon="-8.1017900">
        <ele>525.1</ele>
        <time>2019-08-18T06:18:24Z</time>
      </trkpt>
      <trkpt lat="42.4729700" lon="-8.1018140">
        <ele>525.1</ele>
        <time>2019-08-18T06:18:25Z</time>
      </trkpt>
      <trkpt lat="42.4730070" lon="-8.1018370">
        <ele>525.2</ele>
        <time>2019-08-18T06:18:26Z</time>
      </trkpt>
      <trkpt lat="42.4730440" lon="-8.1018610">
        <ele>525.2</ele>
        <time>2019-08-18T06:18:27Z</time>
      </trkpt>
      <trkpt lat="42.4730810" lon="-8.1018850">
        <ele>525.2</ele>
        <time>2019-08-18T06:18:28Z</time>
      </trkpt>
      <trkpt lat="42.4731180" lon="-8.1019080">
        <ele>525.2</ele>
        <time>2019-08-18T06:18:29Z</time>
      </trkpt>
      <trkpt lat="42.4731550" lon="-8.1019320">
        <ele>525.2</ele>
        <time>2019-08-18T06:18:30Z</time>
      </trkpt>
      <trkpt lat="42.4731920" lon="-8.1019550">
        <ele>525.2</ele>
        <time>2019-08-18T06:18:31Z</time>
      </trkpt>
      <trkpt lat="42.4732290" lon="-8.1019780">
        <ele>525.1</ele>
        <time>2019-08-18T06:18:32Z</time>
      </trkpt>
      <trkpt lat="42.4732660" lon="-8.1020020">
        <ele>525.1</ele>
        <time>2019-08-18T06:18:33Z</time>
      </trkpt>
      <trkpt lat="42.4733020" lon="-8.1020250">
        <ele>525.0</ele>
        <time>2019-08-18T06:18:34Z</time>
      </trkpt>
      <trkpt lat="42.4733390" lon="-8.1020480">
        <ele>525.0</ele>
        <time>2019-08-18T06:18:35Z</time>
      </trkpt>
      <trkpt lat="42.4733760" lon="-8.1020710">
        <ele>524.9</ele>
        <time>2019-08-18T06:18:36Z</time>
      </trkpt>
      <trkpt lat="42.4734120" lon="-8.1020940">
        <ele>524.8</ele>
        <time>2019-08-18T06:18:37Z</time>
      </trkpt>
      <trkpt lat="42.4734490" lon="-8.1021170">
        <ele>524.7</ele>
        <time>2019-08-18T06:18:38Z</time>
      </trkpt>
      <trkpt lat="42.4734860" lon="-8.1021400">
        <ele>524.7</ele>
        <time>2019-08-18T06:18:39Z</time>
      </trkpt>
      <trkpt lat="42.4735230" lon="-8.1021630">
        <ele>524.6</ele>
        <time>2019-08-18T06:18:40Z</time>
      </trkpt>
      <trkpt lat="42.4735600" lon="-8.1021860">
        <ele>524.5</ele>
        <time>2019-08-18T06:18:41Z</time>
      </trkpt>
      <trkpt lat="42.4735980" lon="-8.1022080">
        <ele>524.5</ele>
        <time>2019-08-18T06:18:42Z</time>
      </trkpt>
      <trkpt lat="42.4736350" lon="-8.1022310">
        <ele>524.4</ele>
        <time>2019-08-18T06:18:43Z</time>
      </trkpt>
      <trkpt lat="42.4736720" lon="-8.1022540">
        <ele>524.4</ele>
        <time>2019-08-18T06:18:44Z</time>
      </trkpt>
      <trkpt lat="42.4737100" lon="-8.1022760">
        <ele>524.4</ele>
        <time>2019-08-18T06:18:45Z</time>
      </trkpt>
      <trkpt lat="42.4737480" lon="-8.1022990">
        <ele>524.4</ele>
        <time>2019-08-18T06:18:46Z</time>
      </trkpt>
      <trkpt lat="42.4737860" lon="-8.1023210">
        <ele>524.4</ele>
        <time>2019-08-18T06:18:47Z</time>
      </trkpt>
      <trkpt lat="42.4738240" lon="-8.1023440">
        <ele>524.4</ele>
        <time>2019-08-18T06:18:48Z</time>
      </trkpt>
      <trkpt lat="42.4738620" lon="-8.1023670">
        <ele>524.4</ele>
        <time>2019-08-18T06:18:49Z</time>
      </trkpt>
      <trkpt lat="42.4739000" lon="-8.1023890">
        <ele>524.5</ele>
        <time>2019-08-18T06:18:50Z</time>
      </trkpt>
      <trkpt lat="42.4739380" lon="-8.1024120">
        <ele>524.6</ele>
        <time>2019-08-18T06:18:51Z</time>
      </trkpt>
      <trkpt lat="42.4739760" lon="-8.1024350">
        <ele>524.7</ele>
        <time>2019-08-18T06:18:52Z</time>
      </trkpt>
      <trkpt lat="42.4740150" lon="-8.1024580">
        <ele>524.8</ele>
        <time>2019-08-18T06:18:53Z</time>
      </trkpt>
      <trkpt lat="42.4740530" lon="-8.1024810">
        <ele>525.0</ele>
        <time>2019-08-18T06:18:54Z</time>
      </trkpt>
      <trkpt lat="42.4740910" lon="-8.1025040">
        <ele>525.1</ele>
        <time>2019-08-18T06:18:55Z</time>
      </trkpt>
      <trkpt lat="42.4741300" lon="-8.1025270">
        <ele>525.3</ele>
        <time>2019-08-18T06:18:56Z</time>
      </trkpt>
      <trkpt lat="42.4741680" lon="-8.1025500">
        <ele>525.5</ele>
        <time>2019-08-18T06:18:57Z</time>
      </trkpt>
      <trkpt lat="42.4742070" lon="-8.1025740">
        <ele>525.8</ele>
        <time>2019-08-18T06:18:58Z</time>
      </trkpt>
      <trkpt lat="42.4742460" lon="-8.1025970">
        <ele>526.0</ele>
        <time>2019-08-18T06:18:59Z</time>
      </trkpt>
      <trkpt lat="42.4742860" lon="-8.1026210">
        <ele>526.2</ele>
        <time>2019-08-18T06:19:00Z</time>
      </trkpt>
      <trkpt lat="42.4743270" lon="-8.1026450">
        <ele>526.5</ele>
        <time>2019-08-18T06:19:01Z</time>
      </trkpt>
      <trkpt lat="42.4743690" lon="-8.1026700">
        <ele>526.8</ele>
        <time>2019-08-18T06:19:02Z</time>
      </trkpt>
      <trkpt lat="42.4744110" lon="-8.1026940">
        <ele>527.1</ele>
        <time>2019-08-18T06:19:03Z</time>
      </trkpt>
      <trkpt lat="42.4744530" lon="-8.1027190">
        <ele>527.4</ele>
        <time>2019-08-18T06:19:04Z</time>
      </trkpt>
      <trkpt lat="42.4744940" lon="-8.1027440">
        <ele>527.6</ele>
        <time>2019-08-18T06:19:05Z</time>
      </trkpt>
      <trkpt lat="42.4745340" lon="-8.1027690">
        <ele>527.9</ele>
        <time>2019-08-18T06:19:06Z</time>
      </trkpt>
      <trkpt lat="42.4745740" lon="-8.1027950">
        <ele>528.1</ele>
        <time>2019-08-18T06:19:07Z</time>
      </trkpt>
      <trkpt lat="42.4746140" lon="-8.1028200">
        <ele>528.3</ele>
        <time>2019-08-18T06:19:08Z</time>
      </trkpt>
      <trkpt lat="42.4746530" lon="-8.1028450">
        <ele>528.5</ele>
        <time>2019-08-18T06:19:09Z</time>
      </trkpt>
      <trkpt lat="42.4746920" lon="-8.1028710">
        <ele>528.7</ele>
        <time>2019-08-18T06:19:10Z</time>
      </trkpt>
      <trkpt lat="42.4747310" lon="-8.1028960">
        <ele>528.9</ele>
        <time>2019-08-18T06:19:11Z</time>
      </trkpt>
      <trkpt lat="42.4747710" lon="-8.1029210">
        <ele>529.0</ele>
        <time>2019-08-18T06:19:12Z</time>
      </trkpt>
      <trkpt lat="42.4748100" lon="-8.1029460">
        <ele>529.1</ele>
        <time>2019-08-18T06:19:13Z</time>
      </trkpt>
      <trkpt lat="42.4748480" lon="-8.1029710">
        <ele>529.3</ele>
        <time>2019-08-18T06:19:14Z</time>
      </trkpt>
      <trkpt lat="42.4748870" lon="-8.1029950">
        <ele>529.4</ele>
        <time>2019-08-18T06:19:15Z</time>
      </trkpt>
      <trkpt lat="42.4749260" lon="-8.1030200">
        <ele>529.5</ele>
        <time>2019-08-18T06:19:16Z</time>
      </trkpt>
      <trkpt lat="42.4749640" lon="-8.1030440">
        <ele>529.6</ele>
        <time>2019-08-18T06:19:17Z</time>
      </trkpt>
      <trkpt lat="42.4750020" lon="-8.1030680">
        <ele>529.7</ele>
        <time>2019-08-18T06:19:18Z</time>
      </trkpt>
      <trkpt lat="42.4750400" lon="-8.1030910">
        <ele>529.8</ele>
        <time>2019-08-18T06:19:19Z</time>
      </trkpt>
      <trkpt lat="42.4750780" lon="-8.1031150">
        <ele>529.9</ele>
        <time>2019-08-18T06:19:20Z</time>
      </trkpt>
      <trkpt lat="42.4751150" lon="-8.1031380">
        <ele>530.1</ele>
        <time>2019-08-18T06:19:21Z</time>
      </trkpt>
      <trkpt lat="42.4751520" lon="-8.1031620">
        <ele>530.2</ele>
        <time>2019-08-18T06:19:22Z</time>
      </trkpt>
      <trkpt lat="42.4751890" lon="-8.1031850">
        <ele>530.3</ele>
        <time>2019-08-18T06:19:23Z</time>
      </trkpt>
      <trkpt lat="42.4752250" lon="-8.1032080">
        <ele>530.4</ele>
        <time>2019-08-18T06:19:24Z</time>
      </trkpt>
      <trkpt lat="42.4752600" lon="-8.1032300">
        <ele>530.5</ele>
        <time>2019-08-18T06:19:25Z</time>
      </trkpt>
      <trkpt lat="42.4752950" lon="-8.1032530">
        <ele>530.7</ele>
        <time>2019-08-18T06:19:26Z</time>
      </trkpt>
      <trkpt lat="42.4753300" lon="-8.1032750">
        <ele>530.8</ele>
        <time>2019-08-18T06:19:27Z</time>
      </trkpt>
      <trkpt lat="42.4753630" lon="-8.1032970">
        <ele>530.9</ele>
        <time>2019-08-18T06:19:28Z</time>
      </trkpt>
      <trkpt lat="42.4753970" lon="-8.1033190">
        <ele>531.0</ele>
        <time>2019-08-18T06:19:29Z</time>
      </trkpt>
      <trkpt lat="42.4754300" lon="-8.1033410">
        <ele>531.1</ele>
        <time>2019-08-18T06:19:30Z</time>
      </trkpt>
      <trkpt lat="42.4754630" lon="-8.1033630">
        <ele>531.2</ele>
        <time>2019-08-18T06:19:31Z</time>
      </trkpt>
      <trkpt lat="42.4754960" lon="-8.1033840">
        <ele>531.3</ele>
        <time>2019-08-18T06:19:32Z</time>
      </trkpt>
      <trkpt lat="42.4755290" lon="-8.1034050">
        <ele>531.4</ele>
        <time>2019-08-18T06:19:33Z</time>
      </trkpt>
      <trkpt lat="42.4755620" lon="-8.1034260">
        <ele>531.4</ele>
        <time>2019-08-18T06:19:34Z</time>
      </trkpt>
      <trkpt lat="42.4755950" lon="-8.1034460">
        <ele>531.5</ele>
        <time>2019-08-18T06:19:35Z</time>
      </trkpt>
      <trkpt lat="42.4756270" lon="-8.1034670">
        <ele>531.6</ele>
        <time>2019-08-18T06:19:36Z</time>
      </trkpt>
      <trkpt lat="42.4756600" lon="-8.1034870">
        <ele>531.7</ele>
        <time>2019-08-18T06:19:37Z</time>
      </trkpt>
      <trkpt lat="42.4756920" lon="-8.1035070">
        <ele>531.7</ele>
        <time>2019-08-18T06:19:38Z</time>
      </trkpt>
      <trkpt lat="42.4757250" lon="-8.1035270">
        <ele>531.8</ele>
        <time>2019-08-18T06:19:39Z</time>
      </trkpt>
      <trkpt lat="42.4757560" lon="-8.1035470">
        <ele>531.9</ele>
        <time>2019-08-18T06:19:40Z</time>
      </trkpt>
      <trkpt lat="42.4757880" lon="-8.1035660">
        <ele>532.0</ele>
        <time>2019-08-18T06:19:41Z</time>
      </trkpt>
      <trkpt lat="42.4758190" lon="-8.1035860">
        <ele>532.0</ele>
        <time>2019-08-18T06:19:42Z</time>
      </trkpt>
      <trkpt lat="42.4758500" lon="-8.1036050">
        <ele>532.1</ele>
        <time>2019-08-18T06:19:43Z</time>
      </trkpt>
      <trkpt lat="42.4758810" lon="-8.1036240">
        <ele>532.2</ele>
        <time>2019-08-18T06:19:44Z</time>
      </trkpt>
      <trkpt lat="42.4759110" lon="-8.1036440">
        <ele>532.3</ele>
        <time>2019-08-18T06:19:45Z</time>
      </trkpt>
      <trkpt lat="42.4759410" lon="-8.1036630">
        <ele>532.4</ele>
        <time>2019-08-18T06:19:46Z</time>
      </trkpt>
      <trkpt lat="42.4759710" lon="-8.1036830">
        <ele>532.5</ele>
        <time>2019-08-18T06:19:47Z</time>
      </trkpt>
      <trkpt lat="42.4760000" lon="-8.1037020">
        <ele>532.6</ele>
        <time>2019-08-18T06:19:48Z</time>
      </trkpt>
      <trkpt lat="42.4760290" lon="-8.1037220">
        <ele>532.7</ele>
        <time>2019-08-18T06:19:49Z</time>
      </trkpt>
      <trkpt lat="42.4760580" lon="-8.1037420">
        <ele>532.8</ele>
        <time>2019-08-18T06:19:50Z</time>
      </trkpt>
      <trkpt lat="42.4760860" lon="-8.1037610">
        <ele>532.9</ele>
        <time>2019-08-18T06:19:51Z</time>
      </trkpt>
      <trkpt lat="42.4761150" lon="-8.1037810">
        <ele>533.1</ele>
        <time>2019-08-18T06:19:52Z</time>
      </trkpt>
      <trkpt lat="42.4761430" lon="-8.1038010">
        <ele>533.2</ele>
        <time>2019-08-18T06:19:53Z</time>
      </trkpt>
      <trkpt lat="42.4761720" lon="-8.1038210">
        <ele>533.3</ele>
        <time>2019-08-18T06:19:54Z</time>
      </trkpt>
      <trkpt lat="42.4762000" lon="-8.1038400">
        <ele>533.5</ele>
        <time>2019-08-18T06:19:55Z</time>
      </trkpt>
      <trkpt lat="42.4762280" lon="-8.1038600">
        <ele>533.6</ele>
        <time>2019-08-18T06:19:56Z</time>
      </trkpt>
      <trkpt lat="42.4762560" lon="-8.1038790">
        <ele>533.7</ele>
        <time>2019-08-18T06:19:57Z</time>
      </trkpt>
      <trkpt lat="42.4762850" lon="-8.1038980">
        <ele>533.9</ele>
        <time>2019-08-18T06:19:58Z</time>
      </trkpt>
      <trkpt lat="42.4763130" lon="-8.1039180">
        <ele>534.1</ele>
        <time>2019-08-18T06:19:59Z</time>
      </trkpt>
      <trkpt lat="42.4763410" lon="-8.1039380">
        <ele>534.2</ele>
        <time>2019-08-18T06:20:00Z</time>
      </trkpt>
      <trkpt lat="42.4763690" lon="-8.1039580">
        <ele>534.4</ele>
        <time>2019-08-18T06:20:01Z</time>
      </trkpt>
      <trkpt lat="42.4763970" lon="-8.1039780">
        <ele>534.5</ele>
        <time>2019-08-18T06:20:02Z</time>
      </trkpt>
      <trkpt lat="42.4764250" lon="-8.1039970">
        <ele>534.7</ele>
        <time>2019-08-18T06:20:03Z</time>
      </trkpt>
      <trkpt lat="42.4764530" lon="-8.1040150">
        <ele>534.8</ele>
        <time>2019-08-18T06:20:04Z</time>
      </trkpt>
      <trkpt lat="42.4764820" lon="-8.1040330">
        <ele>535.0</ele>
        <time>2019-08-18T06:20:05Z</time>
      </trkpt>
      <trkpt lat="42.4765100" lon="-8.1040510">
        <ele>535.1</ele>
        <time>2019-08-18T06:20:06Z</time>
      </trkpt>
      <trkpt lat="42.4765390" lon="-8.1040690">
        <ele>535.2</ele>
        <time>2019-08-18T06:20:07Z</time>
      </trkpt>
      <trkpt lat="42.4765670" lon="-8.1040860">
        <ele>535.3</ele>
        <time>2019-08-18T06:20:08Z</time>
      </trkpt>
      <trkpt lat="42.4765960" lon="-8.1041030">
        <ele>535.4</ele>
        <time>2019-08-18T06:20:09Z</time>
      </trkpt>
      <trkpt lat="42.4766240" lon="-8.1041200">
        <ele>535.5</ele>
        <time>2019-08-18T06:20:10Z</time>
      </trkpt>
      <trkpt lat="42.4766530" lon="-8.1041370">
        <ele>535.6</ele>
        <time>2019-08-18T06:20:11Z</time>
      </trkpt>
      <trkpt lat="42.4766810" lon="-8.1041540">
        <ele>535.7</ele>
        <time>2019-08-18T06:20:12Z</time>
      </trkpt>
      <trkpt lat="42.4767090" lon="-8.1041710">
        <ele>535.8</ele>
        <time>2019-08-18T06:20:13Z</time>
      </trkpt>
      <trkpt lat="42.4767370" lon="-8.1041880">
        <ele>535.9</ele>
        <time>2019-08-18T06:20:14Z</time>
      </trkpt>
      <trkpt lat="42.4767650" lon="-8.1042040">
        <ele>536.0</ele>
        <time>2019-08-18T06:20:15Z</time>
      </trkpt>
      <trkpt lat="42.4767920" lon="-8.1042210">
        <ele>536.1</ele>
        <time>2019-08-18T06:20:16Z</time>
      </trkpt>
      <trkpt lat="42.4768190" lon="-8.1042370">
        <ele>536.1</ele>
        <time>2019-08-18T06:20:17Z</time>
      </trkpt>
      <trkpt lat="42.4768450" lon="-8.1042520">
        <ele>536.2</ele>
        <time>2019-08-18T06:20:18Z</time>
      </trkpt>
      <trkpt lat="42.4768700" lon="-8.1042680">
        <ele>536.3</ele>
        <time>2019-08-18T06:20:19Z</time>
      </trkpt>
      <trkpt lat="42.4768960" lon="-8.1042830">
        <ele>536.4</ele>
        <time>2019-08-18T06:20:20Z</time>
      </trkpt>
      <trkpt lat="42.4769210" lon="-8.1042980">
        <ele>536.5</ele>
        <time>2019-08-18T06:20:21Z</time>
      </trkpt>
      <trkpt lat="42.4769450" lon="-8.1043130">
        <ele>536.6</ele>
        <time>2019-08-18T06:20:22Z</time>
      </trkpt>
      <trkpt lat="42.4769690" lon="-8.1043280">
        <ele>536.7</ele>
        <time>2019-08-18T06:20:23Z</time>
      </trkpt>
      <trkpt lat="42.4769930" lon="-8.1043430">
        <ele>536.7</ele>
        <time>2019-08-18T06:20:24Z</time>
      </trkpt>
      <trkpt lat="42.4770170" lon="-8.1043580">
        <ele>536.8</ele>
        <time>2019-08-18T06:20:25Z</time>
      </trkpt>
      <trkpt lat="42.4770410" lon="-8.1043730">
        <ele>536.9</ele>
        <time>2019-08-18T06:20:26Z</time>
      </trkpt>
      <trkpt lat="42.4770650" lon="-8.1043890">
        <ele>537.0</ele>
        <time>2019-08-18T06:20:27Z</time>
      </trkpt>
      <trkpt lat="42.4770880" lon="-8.1044050">
        <ele>537.1</ele>
        <time>2019-08-18T06:20:28Z</time>
      </trkpt>
      <trkpt lat="42.4771120" lon="-8.1044200">
        <ele>537.2</ele>
        <time>2019-08-18T06:20:29Z</time>
      </trkpt>
      <trkpt lat="42.4771360" lon="-8.1044360">
        <ele>537.2</ele>
        <time>2019-08-18T06:20:30Z</time>
      </trkpt>
      <trkpt lat="42.4771610" lon="-8.1044520">
        <ele>537.3</ele>
        <time>2019-08-18T06:20:31Z</time>
      </trkpt>
      <trkpt lat="42.4771850" lon="-8.1044680">
        <ele>537.4</ele>
        <time>2019-08-18T06:20:32Z</time>
      </trkpt>
      <trkpt lat="42.4772100" lon="-8.1044830">
        <ele>537.5</ele>
        <time>2019-08-18T06:20:33Z</time>
      </trkpt>
      <trkpt lat="42.4772350" lon="-8.1044990">
        <ele>537.6</ele>
        <time>2019-08-18T06:20:34Z</time>
      </trkpt>
      <trkpt lat="42.4772600" lon="-8.1045150">
        <ele>537.7</ele>
        <time>2019-08-18T06:20:35Z</time>
      </trkpt>
      <trkpt lat="42.4772850" lon="-8.1045300">
        <ele>537.8</ele>
        <time>2019-08-18T06:20:36Z</time>
      </trkpt>
      <trkpt lat="42.4773100" lon="-8.1045450">
        <ele>537.9</ele>
        <time>2019-08-18T06:20:37Z</time>
      </trkpt>
      <trkpt lat="42.4773350" lon="-8.1045600">
        <ele>538.0</ele>
        <time>2019-08-18T06:20:38Z</time>
      </trkpt>
      <trkpt lat="42.4773590" lon="-8.1045750">
        <ele>538.1</ele>
        <time>2019-08-18T06:20:39Z</time>
      </trkpt>
      <trkpt lat="42.4773830" lon="-8.1045900">
        <ele>538.1</ele>
        <time>2019-08-18T06:20:40Z</time>
      </trkpt>
      <trkpt lat="42.4774060" lon="-8.1046050">
        <ele>538.2</ele>
        <time>2019-08-18T06:20:41Z</time>
      </trkpt>
      <trkpt lat="42.4774290" lon="-8.1046190">
        <ele>538.3</ele>
        <time>2019-08-18T06:20:42Z</time>
      </trkpt>
      <trkpt lat="42.4774530" lon="-8.1046330">
        <ele>538.5</ele>
        <time>2019-08-18T06:20:43Z</time>
      </trkpt>
      <trkpt lat="42.4774760" lon="-8.1046480">
        <ele>538.6</ele>
        <time>2019-08-18T06:20:44Z</time>
      </trkpt>
      <trkpt lat="42.4774990" lon="-8.1046620">
        <ele>538.7</ele>
        <time>2019-08-18T06:20:45Z</time>
      </trkpt>
      <trkpt lat="42.4775220" lon="-8.1046770">
        <ele>538.8</ele>
        <time>2019-08-18T06:20:46Z</time>
      </trkpt>
      <trkpt lat="42.4775450" lon="-8.1046920">
        <ele>538.9</ele>
        <time>2019-08-18T06:20:47Z</time>
      </trkpt>
      <trkpt lat="42.4775690" lon="-8.1047070">
        <ele>539.0</ele>
        <time>2019-08-18T06:20:48Z</time>
      </trkpt>
      <trkpt lat="42.4775920" lon="-8.1047220">
        <ele>539.1</ele>
        <time>2019-08-18T06:20:49Z</time>
      </trkpt>
      <trkpt lat="42.4776160" lon="-8.1047370">
        <ele>539.3</ele>
        <time>2019-08-18T06:20:50Z</time>
      </trkpt>
      <trkpt lat="42.4776400" lon="-8.1047520">
        <ele>539.4</ele>
        <time>2019-08-18T06:20:51Z</time>
      </trkpt>
      <trkpt lat="42.4776640" lon="-8.1047660">
        <ele>539.5</ele>
        <time>2019-08-18T06:20:52Z</time>
      </trkpt>
      <trkpt lat="42.4776880" lon="-8.1047810">
        <ele>539.7</ele>
        <time>2019-08-18T06:20:53Z</time>
      </trkpt>
      <trkpt lat="42.4777120" lon="-8.1047960">
        <ele>539.8</ele>
        <time>2019-08-18T06:20:54Z</time>
      </trkpt>
      <trkpt lat="42.4777350" lon="-8.1048110">
        <ele>540.0</ele>
        <time>2019-08-18T06:20:55Z</time>
      </trkpt>
      <trkpt lat="42.4777590" lon="-8.1048250">
        <ele>540.1</ele>
        <time>2019-08-18T06:20:56Z</time>
      </trkpt>
      <trkpt lat="42.4777830" lon="-8.1048400">
        <ele>540.3</ele>
        <time>2019-08-18T06:20:57Z</time>
      </trkpt>
      <trkpt lat="42.4778070" lon="-8.1048540">
        <ele>540.4</ele>
        <time>2019-08-18T06:20:58Z</time>
      </trkpt>
      <trkpt lat="42.4778310" lon="-8.1048690">
        <ele>540.6</ele>
        <time>2019-08-18T06:20:59Z</time>
      </trkpt>
      <trkpt lat="42.4778550" lon="-8.1048830">
        <ele>540.7</ele>
        <time>2019-08-18T06:21:00Z</time>
      </trkpt>
      <trkpt lat="42.4778780" lon="-8.1048970">
        <ele>540.9</ele>
        <time>2019-08-18T06:21:01Z</time>
      </trkpt>
      <trkpt lat="42.4779020" lon="-8.1049120">
        <ele>541.1</ele>
        <time>2019-08-18T06:21:02Z</time>
      </trkpt>
      <trkpt lat="42.4779250" lon="-8.1049260">
        <ele>541.2</ele>
        <time>2019-08-18T06:21:03Z</time>
      </trkpt>
      <trkpt lat="42.4779480" lon="-8.1049410">
        <ele>541.4</ele>
        <time>2019-08-18T06:21:04Z</time>
      </trkpt>
      <trkpt lat="42.4779720" lon="-8.1049550">
        <ele>541.6</ele>
        <time>2019-08-18T06:21:05Z</time>
      </trkpt>
      <trkpt lat="42.4779950" lon="-8.1049700">
        <ele>541.8</ele>
        <time>2019-08-18T06:21:06Z</time>
      </trkpt>
      <trkpt lat="42.4780170" lon="-8.1049850">
        <ele>541.9</ele>
        <time>2019-08-18T06:21:07Z</time>
      </trkpt>
      <trkpt lat="42.4780400" lon="-8.1050000">
        <ele>542.1</ele>
        <time>2019-08-18T06:21:08Z</time>
      </trkpt>
      <trkpt lat="42.4780620" lon="-8.1050150">
        <ele>542.3</ele>
        <time>2019-08-18T06:21:09Z</time>
      </trkpt>
      <trkpt lat="42.4780840" lon="-8.1050300">
        <ele>542.5</ele>
        <time>2019-08-18T06:21:10Z</time>
      </trkpt>
      <trkpt lat="42.4781060" lon="-8.1050450">
        <ele>542.6</ele>
        <time>2019-08-18T06:21:11Z</time>
      </trkpt>
      <trkpt lat="42.4781280" lon="-8.1050600">
        <ele>542.8</ele>
        <time>2019-08-18T06:21:12Z</time>
      </trkpt>
      <trkpt lat="42.4781500" lon="-8.1050750">
        <ele>543.0</ele>
        <time>2019-08-18T06:21:13Z</time>
      </trkpt>
      <trkpt lat="42.4781720" lon="-8.1050890">
        <ele>543.2</ele>
        <time>2019-08-18T06:21:14Z</time>
      </trkpt>
      <trkpt lat="42.4781930" lon="-8.1051040">
        <ele>543.3</ele>
        <time>2019-08-18T06:21:15Z</time>
      </trkpt>
      <trkpt lat="42.4782150" lon="-8.1051180">
        <ele>543.5</ele>
        <time>2019-08-18T06:21:16Z</time>
      </trkpt>
      <trkpt lat="42.4782360" lon="-8.1051320">
        <ele>543.7</ele>
        <time>2019-08-18T06:21:17Z</time>
      </trkpt>
      <trkpt lat="42.4782580" lon="-8.1051450">
        <ele>543.8</ele>
        <time>2019-08-18T06:21:18Z</time>
      </trkpt>
      <trkpt lat="42.4782790" lon="-8.1051570">
        <ele>544.0</ele>
        <time>2019-08-18T06:21:19Z</time>
      </trkpt>
      <trkpt lat="42.4783020" lon="-8.1051680">
        <ele>544.1</ele>
        <time>2019-08-18T06:21:20Z</time>
      </trkpt>
      <trkpt lat="42.4783250" lon="-8.1051780">
        <ele>544.3</ele>
        <time>2019-08-18T06:21:21Z</time>
      </trkpt>
      <trkpt lat="42.4783480" lon="-8.1051880">
        <ele>544.5</ele>
        <time>2019-08-18T06:21:22Z</time>
      </trkpt>
      <trkpt lat="42.4783720" lon="-8.1051980">
        <ele>544.6</ele>
        <time>2019-08-18T06:21:23Z</time>
      </trkpt>
      <trkpt lat="42.4783940" lon="-8.1052110">
        <ele>544.7</ele>
        <time>2019-08-18T06:21:24Z</time>
      </trkpt>
      <trkpt lat="42.4784170" lon="-8.1052250">
        <ele>544.9</ele>
        <time>2019-08-18T06:21:25Z</time>
      </trkpt>
      <trkpt lat="42.4784390" lon="-8.1052410">
        <ele>545.0</ele>
        <time>2019-08-18T06:21:26Z</time>
      </trkpt>
      <trkpt lat="42.4784600" lon="-8.1052580">
        <ele>545.2</ele>
        <time>2019-08-18T06:21:27Z</time>
      </trkpt>
      <trkpt lat="42.4784820" lon="-8.1052750">
        <ele>545.3</ele>
        <time>2019-08-18T06:21:28Z</time>
      </trkpt>
      <trkpt lat="42.4785030" lon="-8.1052920">
        <ele>545.5</ele>
        <time>2019-08-18T06:21:29Z</time>
      </trkpt>
      <trkpt lat="42.4785240" lon="-8.1053090">
        <ele>545.6</ele>
        <time>2019-08-18T06:21:30Z</time>
      </trkpt>
      <trkpt lat="42.4785460" lon="-8.1053260">
        <ele>545.7</ele>
        <time>2019-08-18T06:21:31Z</time>
      </trkpt>
      <trkpt lat="42.4785680" lon="-8.1053420">
        <ele>545.9</ele>
        <time>2019-08-18T06:21:32Z</time>
      </trkpt>
      <trkpt lat="42.4785900" lon="-8.1053570">
        <ele>546.0</ele>
        <time>2019-08-18T06:21:33Z</time>
      </trkpt>
      <trkpt lat="42.4786120" lon="-8.1053720">
        <ele>546.1</ele>
        <time>2019-08-18T06:21:34Z</time>
      </trkpt>
      <trkpt lat="42.4786340" lon="-8.1053870">
        <ele>546.3</ele>
        <time>2019-08-18T06:21:35Z</time>
      </trkpt>
      <trkpt lat="42.4786560" lon="-8.1054010">
        <ele>546.4</ele>
        <time>2019-08-18T06:21:36Z</time>
      </trkpt>
      <trkpt lat="42.4786790" lon="-8.1054150">
        <ele>546.5</ele>
        <time>2019-08-18T06:21:37Z</time>
      </trkpt>
      <trkpt lat="42.4787020" lon="-8.1054290">
        <ele>546.7</ele>
        <time>2019-08-18T06:21:38Z</time>
      </trkpt>
      <trkpt lat="42.4787250" lon="-8.1054420">
        <ele>546.8</ele>
        <time>2019-08-18T06:21:39Z</time>
      </trkpt>
      <trkpt lat="42.4787470" lon="-8.1054560">
        <ele>547.0</ele>
        <time>2019-08-18T06:21:40Z</time>
      </trkpt>
      <trkpt lat="42.4787710" lon="-8.1054690">
        <ele>547.1</ele>
        <time>2019-08-18T06:21:41Z</time>
      </trkpt>
      <trkpt lat="42.4787940" lon="-8.1054830">
        <ele>547.3</ele>
        <time>2019-08-18T06:21:42Z</time>
      </trkpt>
      <trkpt lat="42.4788170" lon="-8.1054960">
        <ele>547.5</ele>
        <time>2019-08-18T06:21:43Z</time>
      </trkpt>
      <trkpt lat="42.4788400" lon="-8.1055100">
        <ele>547.6</ele>
        <time>2019-08-18T06:21:44Z</time>
      </trkpt>
      <trkpt lat="42.4788640" lon="-8.1055240">
        <ele>547.8</ele>
        <time>2019-08-18T06:21:45Z</time>
      </trkpt>
      <trkpt lat="42.4788870" lon="-8.1055390">
        <ele>548.0</ele>
        <time>2019-08-18T06:21:46Z</time>
      </trkpt>
      <trkpt lat="42.4789100" lon="-8.1055530">
        <ele>548.1</ele>
        <time>2019-08-18T06:21:47Z</time>
      </trkpt>
      <trkpt lat="42.4789330" lon="-8.1055680">
        <ele>548.3</ele>
        <time>2019-08-18T06:21:48Z</time>
      </trkpt>
      <trkpt lat="42.4789570" lon="-8.1055830">
        <ele>548.5</ele>
        <time>2019-08-18T06:21:49Z</time>
      </trkpt>
      <trkpt lat="42.4789800" lon="-8.1055980">
        <ele>548.7</ele>
        <time>2019-08-18T06:21:50Z</time>
      </trkpt>
      <trkpt lat="42.4790030" lon="-8.1056130">
        <ele>548.9</ele>
        <time>2019-08-18T06:21:51Z</time>
      </trkpt>
      <trkpt lat="42.4790270" lon="-8.1056290">
        <ele>549.1</ele>
        <time>2019-08-18T06:21:52Z</time>
      </trkpt>
      <trkpt lat="42.4790500" lon="-8.1056440">
        <ele>549.3</ele>
        <time>2019-08-18T06:21:53Z</time>
      </trkpt>
      <trkpt lat="42.4790730" lon="-8.1056590">
        <ele>549.5</ele>
        <time>2019-08-18T06:21:54Z</time>
      </trkpt>
      <trkpt lat="42.4790960" lon="-8.1056740">
        <ele>549.7</ele>
        <time>2019-08-18T06:21:55Z</time>
      </trkpt>
      <trkpt lat="42.4791200" lon="-8.1056890">
        <ele>549.9</ele>
        <time>2019-08-18T06:21:56Z</time>
      </trkpt>
      <trkpt lat="42.4791430" lon="-8.1057050">
        <ele>550.1</ele>
        <time>2019-08-18T06:21:57Z</time>
      </trkpt>
      <trkpt lat="42.4791660" lon="-8.1057200">
        <ele>550.3</ele>
        <time>2019-08-18T06:21:58Z</time>
      </trkpt>
      <trkpt lat="42.4791900" lon="-8.1057350">
        <ele>550.5</ele>
        <time>2019-08-18T06:21:59Z</time>
      </trkpt>
      <trkpt lat="42.4792130" lon="-8.1057500">
        <ele>550.7</ele>
        <time>2019-08-18T06:22:00Z</time>
      </trkpt>
      <trkpt lat="42.4792360" lon="-8.1057650">
        <ele>550.9</ele>
        <time>2019-08-18T06:22:01Z</time>
      </trkpt>
      <trkpt lat="42.4792590" lon="-8.1057800">
        <ele>551.1</ele>
        <time>2019-08-18T06:22:02Z</time>
      </trkpt>
      <trkpt lat="42.4792820" lon="-8.1057950">
        <ele>551.3</ele>
        <time>2019-08-18T06:22:03Z</time>
      </trkpt>
      <trkpt lat="42.4793060" lon="-8.1058100">
        <ele>551.5</ele>
        <time>2019-08-18T06:22:04Z</time>
      </trkpt>
      <trkpt lat="42.4793290" lon="-8.1058250">
        <ele>551.7</ele>
        <time>2019-08-18T06:22:05Z</time>
      </trkpt>
      <trkpt lat="42.4793520" lon="-8.1058400">
        <ele>551.9</ele>
        <time>2019-08-18T06:22:06Z</time>
      </trkpt>
      <trkpt lat="42.4793750" lon="-8.1058550">
        <ele>552.1</ele>
        <time>2019-08-18T06:22:07Z</time>
      </trkpt>
      <trkpt lat="42.4793980" lon="-8.1058700">
        <ele>552.3</ele>
        <time>2019-08-18T06:22:08Z</time>
      </trkpt>
      <trkpt lat="42.4794210" lon="-8.1058840">
        <ele>552.5</ele>
        <time>2019-08-18T06:22:09Z</time>
      </trkpt>
      <trkpt lat="42.4794450" lon="-8.1058990">
        <ele>552.7</ele>
        <time>2019-08-18T06:22:10Z</time>
      </trkpt>
      <trkpt lat="42.4794680" lon="-8.1059140">
        <ele>552.9</ele>
        <time>2019-08-18T06:22:11Z</time>
      </trkpt>
      <trkpt lat="42.4794910" lon="-8.1059290">
        <ele>553.1</ele>
        <time>2019-08-18T06:22:12Z</time>
      </trkpt>
      <trkpt lat="42.4795140" lon="-8.1059440">
        <ele>553.2</ele>
        <time>2019-08-18T06:22:13Z</time>
      </trkpt>
      <trkpt lat="42.4795370" lon="-8.1059590">
        <ele>553.4</ele>
        <time>2019-08-18T06:22:14Z</time>
      </trkpt>
      <trkpt lat="42.4795600" lon="-8.1059740">
        <ele>553.6</ele>
        <time>2019-08-18T06:22:15Z</time>
      </trkpt>
      <trkpt lat="42.4795840" lon="-8.1059880">
        <ele>553.8</ele>
        <time>2019-08-18T06:22:16Z</time>
      </trkpt>
      <trkpt lat="42.4796070" lon="-8.1060030">
        <ele>554.0</ele>
        <time>2019-08-18T06:22:17Z</time>
      </trkpt>
      <trkpt lat="42.4796300" lon="-8.1060180">
        <ele>554.2</ele>
        <time>2019-08-18T06:22:18Z</time>
      </trkpt>
      <trkpt lat="42.4796540" lon="-8.1060330">
        <ele>554.4</ele>
        <time>2019-08-18T06:22:19Z</time>
      </trkpt>
      <trkpt lat="42.4796770" lon="-8.1060480">
        <ele>554.6</ele>
        <time>2019-08-18T06:22:20Z</time>
      </trkpt>
      <trkpt lat="42.4797000" lon="-8.1060630">
        <ele>554.8</ele>
        <time>2019-08-18T06:22:21Z</time>
      </trkpt>
      <trkpt lat="42.4797240" lon="-8.1060780">
        <ele>555.0</ele>
        <time>2019-08-18T06:22:22Z</time>
      </trkpt>
      <trkpt lat="42.4797470" lon="-8.1060940">
        <ele>555.2</ele>
        <time>2019-08-18T06:22:23Z</time>
      </trkpt>
      <trkpt lat="42.4797710" lon="-8.1061090">
        <ele>555.4</ele>
        <time>2019-08-18T06:22:24Z</time>
      </trkpt>
      <trkpt lat="42.4797940" lon="-8.1061240">
        <ele>555.5</ele>
        <time>2019-08-18T06:22:25Z</time>
      </trkpt>
      <trkpt lat="42.4798180" lon="-8.1061390">
        <ele>555.7</ele>
        <time>2019-08-18T06:22:26Z</time>
      </trkpt>
      <trkpt lat="42.4798410" lon="-8.1061540">
        <ele>555.9</ele>
        <time>2019-08-18T06:22:27Z</time>
      </trkpt>
      <trkpt lat="42.4798650" lon="-8.1061690">
        <ele>556.1</ele>
        <time>2019-08-18T06:22:28Z</time>
      </trkpt>
      <trkpt lat="42.4798880" lon="-8.1061840">
        <ele>556.3</ele>
        <time>2019-08-18T06:22:29Z</time>
      </trkpt>
      <trkpt lat="42.4799120" lon="-8.1061990">
        <ele>556.5</ele>
        <time>2019-08-18T06:22:30Z</time>
      </trkpt>
      <trkpt lat="42.4799360" lon="-8.1062140">
        <ele>556.7</ele>
        <time>2019-08-18T06:22:31Z</time>
      </trkpt>
      <trkpt lat="42.4799590" lon="-8.1062290">
        <ele>556.9</ele>
        <time>2019-08-18T06:22:32Z</time>
      </trkpt>
      <trkpt lat="42.4799830" lon="-8.1062430">
        <ele>557.1</ele>
        <time>2019-08-18T06:22:33Z</time>
      </trkpt>
      <trkpt lat="42.4800060" lon="-8.1062580">
        <ele>557.3</ele>
        <time>2019-08-18T06:22:34Z</time>
      </trkpt>
      <trkpt lat="42.4800300" lon="-8.1062720">
        <ele>557.4</ele>
        <time>2019-08-18T06:22:35Z</time>
      </trkpt>
      <trkpt lat="42.4800530" lon="-8.1062860">
        <ele>557.6</ele>
        <time>2019-08-18T06:22:36Z</time>
      </trkpt>
      <trkpt lat="42.4800770" lon="-8.1063000">
        <ele>557.8</ele>
        <time>2019-08-18T06:22:37Z</time>
      </trkpt>
      <trkpt lat="42.4801000" lon="-8.1063140">
        <ele>558.0</ele>
        <time>2019-08-18T06:22:38Z</time>
      </trkpt>
      <trkpt lat="42.4801240" lon="-8.1063280">
        <ele>558.1</ele>
        <time>2019-08-18T06:22:39Z</time>
      </trkpt>
      <trkpt lat="42.4801470" lon="-8.1063420">
        <ele>558.3</ele>
        <time>2019-08-18T06:22:40Z</time>
      </trkpt>
      <trkpt lat="42.4801710" lon="-8.1063560">
        <ele>558.4</ele>
        <time>2019-08-18T06:22:41Z</time>
      </trkpt>
      <trkpt lat="42.4801950" lon="-8.1063700">
        <ele>558.6</ele>
        <time>2019-08-18T06:22:42Z</time>
      </trkpt>
      <trkpt lat="42.4802190" lon="-8.1063840">
        <ele>558.8</ele>
        <time>2019-08-18T06:22:43Z</time>
      </trkpt>
      <trkpt lat="42.4802430" lon="-8.1063980">
        <ele>558.9</ele>
        <time>2019-08-18T06:22:44Z</time>
      </trkpt>
      <trkpt lat="42.4802670" lon="-8.1064130">
        <ele>559.1</ele>
        <time>2019-08-18T06:22:45Z</time>
      </trkpt>
      <trkpt lat="42.4802910" lon="-8.1064280">
        <ele>559.3</ele>
        <time>2019-08-18T06:22:46Z</time>
      </trkpt>
      <trkpt lat="42.4803150" lon="-8.1064430">
        <ele>559.4</ele>
        <time>2019-08-18T06:22:47Z</time>
      </trkpt>
      <trkpt lat="42.4803390" lon="-8.1064580">
        <ele>559.6</ele>
        <time>2019-08-18T06:22:48Z</time>
      </trkpt>
      <trkpt lat="42.4803630" lon="-8.1064740">
        <ele>559.8</ele>
        <time>2019-08-18T06:22:49Z</time>
      </trkpt>
      <trkpt lat="42.4803860" lon="-8.1064890">
        <ele>559.9</ele>
        <time>2019-08-18T06:22:50Z</time>
      </trkpt>
      <trkpt lat="42.4804100" lon="-8.1065040">
        <ele>560.1</ele>
        <time>2019-08-18T06:22:51Z</time>
      </trkpt>
      <trkpt lat="42.4804330" lon="-8.1065200">
        <ele>560.3</ele>
        <time>2019-08-18T06:22:52Z</time>
      </trkpt>
      <trkpt lat="42.4804550" lon="-8.1065350">
        <ele>560.4</ele>
        <time>2019-08-18T06:22:53Z</time>
      </trkpt>
      <trkpt lat="42.4804780" lon="-8.1065500">
        <ele>560.6</ele>
        <time>2019-08-18T06:22:54Z</time>
      </trkpt>
      <trkpt lat="42.4805000" lon="-8.1065650">
        <ele>560.8</ele>
        <time>2019-08-18T06:22:55Z</time>
      </trkpt>
      <trkpt lat="42.4805230" lon="-8.1065800">
        <ele>561.0</ele>
        <time>2019-08-18T06:22:56Z</time>
      </trkpt>
      <trkpt lat="42.4805450" lon="-8.1065940">
        <ele>561.1</ele>
        <time>2019-08-18T06:22:57Z</time>
      </trkpt>
      <trkpt lat="42.4805670" lon="-8.1066070">
        <ele>561.3</ele>
        <time>2019-08-18T06:22:58Z</time>
      </trkpt>
      <trkpt lat="42.4805900" lon="-8.1066210">
        <ele>561.5</ele>
        <time>2019-08-18T06:22:59Z</time>
      </trkpt>
      <trkpt lat="42.4806120" lon="-8.1066340">
        <ele>561.7</ele>
        <time>2019-08-18T06:23:00Z</time>
      </trkpt>
      <trkpt lat="42.4806350" lon="-8.1066460">
        <ele>561.9</ele>
        <time>2019-08-18T06:23:01Z</time>
      </trkpt>
      <trkpt lat="42.4806570" lon="-8.1066590">
        <ele>562.1</ele>
        <time>2019-08-18T06:23:02Z</time>
      </trkpt>
      <trkpt lat="42.4806800" lon="-8.1066710">
        <ele>562.3</ele>
        <time>2019-08-18T06:23:03Z</time>
      </trkpt>
      <trkpt lat="42.4807030" lon="-8.1066840">
        <ele>562.5</ele>
        <time>2019-08-18T06:23:04Z</time>
      </trkpt>
      <trkpt lat="42.4807260" lon="-8.1066970">
        <ele>562.7</ele>
        <time>2019-08-18T06:23:05Z</time>
      </trkpt>
      <trkpt lat="42.4807490" lon="-8.1067110">
        <ele>562.9</ele>
        <time>2019-08-18T06:23:06Z</time>
      </trkpt>
      <trkpt lat="42.4807730" lon="-8.1067250">
        <ele>563.1</ele>
        <time>2019-08-18T06:23:07Z</time>
      </trkpt>
      <trkpt lat="42.4807970" lon="-8.1067400">
        <ele>563.3</ele>
        <time>2019-08-18T06:23:08Z</time>
      </trkpt>
      <trkpt lat="42.4808200" lon="-8.1067550">
        <ele>563.5</ele>
        <time>2019-08-18T06:23:09Z</time>
      </trkpt>
      <trkpt lat="42.4808440" lon="-8.1067700">
        <ele>563.7</ele>
        <time>2019-08-18T06:23:10Z</time>
      </trkpt>
      <trkpt lat="42.4808690" lon="-8.1067860">
        <ele>564.0</ele>
        <time>2019-08-18T06:23:11Z</time>
      </trkpt>
      <trkpt lat="42.4808930" lon="-8.1068020">
        <ele>564.2</ele>
        <time>2019-08-18T06:23:12Z</time>
      </trkpt>
      <trkpt lat="42.4809180" lon="-8.1068180">
        <ele>564.4</ele>
        <time>2019-08-18T06:23:13Z</time>
      </trkpt>
      <trkpt lat="42.4809420" lon="-8.1068350">
        <ele>564.6</ele>
        <time>2019-08-18T06:23:14Z</time>
      </trkpt>
      <trkpt lat="42.4809670" lon="-8.1068510">
        <ele>564.8</ele>
        <time>2019-08-18T06:23:15Z</time>
      </trkpt>
      <trkpt lat="42.4809920" lon="-8.1068680">
        <ele>565.0</ele>
        <time>2019-08-18T06:23:16Z</time>
      </trkpt>
      <trkpt lat="42.4810170" lon="-8.1068850">
        <ele>565.2</ele>
        <time>2019-08-18T06:23:17Z</time>
      </trkpt>
      <trkpt lat="42.4810430" lon="-8.1069020">
        <ele>565.4</ele>
        <time>2019-08-18T06:23:18Z</time>
      </trkpt>
      <trkpt lat="42.4810680" lon="-8.1069190">
        <ele>565.6</ele>
        <time>2019-08-18T06:23:19Z</time>
      </trkpt>
      <trkpt lat="42.4810940" lon="-8.1069350">
        <ele>565.8</ele>
        <time>2019-08-18T06:23:20Z</time>
      </trkpt>
      <trkpt lat="42.4811200" lon="-8.1069520">
        <ele>566.0</ele>
        <time>2019-08-18T06:23:21Z</time>
      </trkpt>
      <trkpt lat="42.4811460" lon="-8.1069690">
        <ele>566.3</ele>
        <time>2019-08-18T06:23:22Z</time>
      </trkpt>
      <trkpt lat="42.4811720" lon="-8.1069850">
        <ele>566.5</ele>
        <time>2019-08-18T06:23:23Z</time>
      </trkpt>
      <trkpt lat="42.4811980" lon="-8.1070020">
        <ele>566.7</ele>
        <time>2019-08-18T06:23:24Z</time>
      </trkpt>
      <trkpt lat="42.4812250" lon="-8.1070180">
        <ele>566.9</ele>
        <time>2019-08-18T06:23:25Z</time>
      </trkpt>
      <trkpt lat="42.4812510" lon="-8.1070350">
        <ele>567.1</ele>
        <time>2019-08-18T06:23:26Z</time>
      </trkpt>
      <trkpt lat="42.4812770" lon="-8.1070520">
        <ele>567.3</ele>
        <time>2019-08-18T06:23:27Z</time>
      </trkpt>
      <trkpt lat="42.4813040" lon="-8.1070680">
        <ele>567.6</ele>
        <time>2019-08-18T06:23:28Z</time>
      </trkpt>
      <trkpt lat="42.4813300" lon="-8.1070850">
        <ele>567.8</ele>
        <time>2019-08-18T06:23:29Z</time>
      </trkpt>
      <trkpt lat="42.4813560" lon="-8.1071010">
        <ele>568.0</ele>
        <time>2019-08-18T06:23:30Z</time>
      </trkpt>
      <trkpt lat="42.4813830" lon="-8.1071180">
        <ele>568.3</ele>
        <time>2019-08-18T06:23:31Z</time>
      </trkpt>
      <trkpt lat="42.4814090" lon="-8.1071350">
        <ele>568.5</ele>
        <time>2019-08-18T06:23:32Z</time>
      </trkpt>
      <trkpt lat="42.4814350" lon="-8.1071520">
        <ele>568.8</ele>
        <time>2019-08-18T06:23:33Z</time>
      </trkpt>
      <trkpt lat="42.4814610" lon="-8.1071690">
        <ele>569.0</ele>
        <time>2019-08-18T06:23:34Z</time>
      </trkpt>
      <trkpt lat="42.4814870" lon="-8.1071860">
        <ele>569.3</ele>
        <time>2019-08-18T06:23:35Z</time>
      </trkpt>
      <trkpt lat="42.4815120" lon="-8.1072030">
        <ele>569.5</ele>
        <time>2019-08-18T06:23:36Z</time>
      </trkpt>
      <trkpt lat="42.4815380" lon="-8.1072210">
        <ele>569.7</ele>
        <time>2019-08-18T06:23:37Z</time>
      </trkpt>
      <trkpt lat="42.4815630" lon="-8.1072380">
        <ele>570.0</ele>
        <time>2019-08-18T06:23:38Z</time>
      </trkpt>
      <trkpt lat="42.4815890" lon="-8.1072560">
        <ele>570.2</ele>
        <time>2019-08-18T06:23:39Z</time>
      </trkpt>
      <trkpt lat="42.4816140" lon="-8.1072730">
        <ele>570.5</ele>
        <time>2019-08-18T06:23:40Z</time>
      </trkpt>
      <trkpt lat="42.4816390" lon="-8.1072900">
        <ele>570.7</ele>
        <time>2019-08-18T06:23:41Z</time>
      </trkpt>
      <trkpt lat="42.4816640" lon="-8.1073070">
        <ele>570.9</ele>
        <time>2019-08-18T06:23:42Z</time>
      </trkpt>
      <trkpt lat="42.4816900" lon="-8.1073240">
        <ele>571.2</ele>
        <time>2019-08-18T06:23:43Z</time>
      </trkpt>
      <trkpt lat="42.4817150" lon="-8.1073410">
        <ele>571.4</ele>
        <time>2019-08-18T06:23:44Z</time>
      </trkpt>
      <trkpt lat="42.4817390" lon="-8.1073570">
        <ele>571.6</ele>
        <time>2019-08-18T06:23:45Z</time>
      </trkpt>
      <trkpt lat="42.4817640" lon="-8.1073740">
        <ele>571.8</ele>
        <time>2019-08-18T06:23:46Z</time>
      </trkpt>
      <trkpt lat="42.4817880" lon="-8.1073900">
        <ele>572.0</ele>
        <time>2019-08-18T06:23:47Z</time>
      </trkpt>
      <trkpt lat="42.4818110" lon="-8.1074060">
        <ele>572.2</ele>
        <time>2019-08-18T06:23:48Z</time>
      </trkpt>
      <trkpt lat="42.4818340" lon="-8.1074220">
        <ele>572.4</ele>
        <time>2019-08-18T06:23:49Z</time>
      </trkpt>
      <trkpt lat="42.4818560" lon="-8.1074380">
        <ele>572.6</ele>
        <time>2019-08-18T06:23:50Z</time>
      </trkpt>
      <trkpt lat="42.4818780" lon="-8.1074540">
        <ele>572.8</ele>
        <time>2019-08-18T06:23:51Z</time>
      </trkpt>
      <trkpt lat="42.4818990" lon="-8.1074690">
        <ele>573.0</ele>
        <time>2019-08-18T06:23:52Z</time>
      </trkpt>
      <trkpt lat="42.4819200" lon="-8.1074840">
        <ele>573.2</ele>
        <time>2019-08-18T06:23:53Z</time>
      </trkpt>
      <trkpt lat="42.4819410" lon="-8.1074990">
        <ele>573.4</ele>
        <time>2019-08-18T06:23:54Z</time>
      </trkpt>
      <trkpt lat="42.4819610" lon="-8.1075130">
        <ele>573.5</ele>
        <time>2019-08-18T06:23:55Z</time>
      </trkpt>
      <trkpt lat="42.4819810" lon="-8.1075270">
        <ele>573.7</ele>
        <time>2019-08-18T06:23:56Z</time>
      </trkpt>
      <trkpt lat="42.4820020" lon="-8.1075410">
        <ele>573.9</ele>
        <time>2019-08-18T06:23:57Z</time>
      </trkpt>
      <trkpt lat="42.4820220" lon="-8.1075540">
        <ele>574.0</ele>
        <time>2019-08-18T06:23:58Z</time>
      </trkpt>
      <trkpt lat="42.4820420" lon="-8.1075660">
        <ele>574.2</ele>
        <time>2019-08-18T06:23:59Z</time>
      </trkpt>
      <trkpt lat="42.4820630" lon="-8.1075790">
        <ele>574.3</ele>
        <time>2019-08-18T06:24:00Z</time>
      </trkpt>
      <trkpt lat="42.4820840" lon="-8.1075910">
        <ele>574.5</ele>
        <time>2019-08-18T06:24:01Z</time>
      </trkpt>
      <trkpt lat="42.4821050" lon="-8.1076030">
        <ele>574.7</ele>
        <time>2019-08-18T06:24:02Z</time>
      </trkpt>
      <trkpt lat="42.4821260" lon="-8.1076160">
        <ele>574.8</ele>
        <time>2019-08-18T06:24:03Z</time>
      </trkpt>
      <trkpt lat="42.4821470" lon="-8.1076290">
        <ele>575.0</ele>
        <time>2019-08-18T06:24:04Z</time>
      </trkpt>
      <trkpt lat="42.4821690" lon="-8.1076420">
        <ele>575.1</ele>
        <time>2019-08-18T06:24:05Z</time>
      </trkpt>
      <trkpt lat="42.4821910" lon="-8.1076550">
        <ele>575.3</ele>
        <time>2019-08-18T06:24:06Z</time>
      </trkpt>
      <trkpt lat="42.4822130" lon="-8.1076690">
        <ele>575.4</ele>
        <time>2019-08-18T06:24:07Z</time>
      </trkpt>
      <trkpt lat="42.4822350" lon="-8.1076820">
        <ele>575.6</ele>
        <time>2019-08-18T06:24:08Z</time>
      </trkpt>
      <trkpt lat="42.4822580" lon="-8.1076960">
        <ele>575.7</ele>
        <time>2019-08-18T06:24:09Z</time>
      </trkpt>
      <trkpt lat="42.4822800" lon="-8.1077100">
        <ele>575.9</ele>
        <time>2019-08-18T06:24:10Z</time>
      </trkpt>
      <trkpt lat="42.4823030" lon="-8.1077250">
        <ele>576.0</ele>
        <time>2019-08-18T06:24:11Z</time>
      </trkpt>
      <trkpt lat="42.4823270" lon="-8.1077390">
        <ele>576.2</ele>
        <time>2019-08-18T06:24:12Z</time>
      </trkpt>
      <trkpt lat="42.4823500" lon="-8.1077540">
        <ele>576.3</ele>
        <time>2019-08-18T06:24:13Z</time>
      </trkpt>
      <trkpt lat="42.4823730" lon="-8.1077690">
        <ele>576.5</ele>
        <time>2019-08-18T06:24:14Z</time>
      </trkpt>
      <trkpt lat="42.4823970" lon="-8.1077840">
        <ele>576.6</ele>
        <time>2019-08-18T06:24:15Z</time>
      </trkpt>
      <trkpt lat="42.4824210" lon="-8.1077990">
        <ele>576.8</ele>
        <time>2019-08-18T06:24:16Z</time>
      </trkpt>
      <trkpt lat="42.4824450" lon="-8.1078140">
        <ele>576.9</ele>
        <time>2019-08-18T06:24:17Z</time>
      </trkpt>
      <trkpt lat="42.4824690" lon="-8.1078300">
        <ele>577.0</ele>
        <time>2019-08-18T06:24:18Z</time>
      </trkpt>
      <trkpt lat="42.4824940" lon="-8.1078450">
        <ele>577.1</ele>
        <time>2019-08-18T06:24:19Z</time>
      </trkpt>
      <trkpt lat="42.4825190" lon="-8.1078610">
        <ele>577.3</ele>
        <time>2019-08-18T06:24:20Z</time>
      </trkpt>
      <trkpt lat="42.4825430" lon="-8.1078770">
        <ele>577.4</ele>
        <time>2019-08-18T06:24:21Z</time>
      </trkpt>
      <trkpt lat="42.4825680" lon="-8.1078930">
        <ele>577.5</ele>
        <time>2019-08-18T06:24:22Z</time>
      </trkpt>
      <trkpt lat="42.4825940" lon="-8.1079090">
        <ele>577.6</ele>
        <time>2019-08-18T06:24:23Z</time>
      </trkpt>
      <trkpt lat="42.4826190" lon="-8.1079250">
        <ele>577.7</ele>
        <time>2019-08-18T06:24:24Z</time>
      </trkpt>
      <trkpt lat="42.4826450" lon="-8.1079410">
        <ele>577.8</ele>
        <time>2019-08-18T06:24:25Z</time>
      </trkpt>
      <trkpt lat="42.4826710" lon="-8.1079580">
        <ele>577.9</ele>
        <time>2019-08-18T06:24:26Z</time>
      </trkpt>
      <trkpt lat="42.4826970" lon="-8.1079750">
        <ele>578.0</ele>
        <time>2019-08-18T06:24:27Z</time>
      </trkpt>
      <trkpt lat="42.4827240" lon="-8.1079920">
        <ele>578.1</ele>
        <time>2019-08-18T06:24:28Z</time>
      </trkpt>
      <trkpt lat="42.4827510" lon="-8.1080090">
        <ele>578.2</ele>
        <time>2019-08-18T06:24:29Z</time>
      </trkpt>
      <trkpt lat="42.4827780" lon="-8.1080260">
        <ele>578.3</ele>
        <time>2019-08-18T06:24:30Z</time>
      </trkpt>
      <trkpt lat="42.4828060" lon="-8.1080440">
        <ele>578.3</ele>
        <time>2019-08-18T06:24:31Z</time>
      </trkpt>
      <trkpt lat="42.4828340" lon="-8.1080620">
        <ele>578.4</ele>
        <time>2019-08-18T06:24:32Z</time>
      </trkpt>
      <trkpt lat="42.4828620" lon="-8.1080800">
        <ele>578.5</ele>
        <time>2019-08-18T06:24:33Z</time>
      </trkpt>
      <trkpt lat="42.4828900" lon="-8.1080980">
        <ele>578.6</ele>
        <time>2019-08-18T06:24:34Z</time>
      </trkpt>
      <trkpt lat="42.4829190" lon="-8.1081170">
        <ele>578.7</ele>
        <time>2019-08-18T06:24:35Z</time>
      </trkpt>
      <trkpt lat="42.4829490" lon="-8.1081360">
        <ele>578.8</ele>
        <time>2019-08-18T06:24:36Z</time>
      </trkpt>
      <trkpt lat="42.4829780" lon="-8.1081550">
        <ele>578.9</ele>
        <time>2019-08-18T06:24:37Z</time>
      </trkpt>
      <trkpt lat="42.4830080" lon="-8.1081740">
        <ele>579.0</ele>
        <time>2019-08-18T06:24:38Z</time>
      </trkpt>
      <trkpt lat="42.4830390" lon="-8.1081930">
        <ele>579.1</ele>
        <time>2019-08-18T06:24:39Z</time>
      </trkpt>
      <trkpt lat="42.4830700" lon="-8.1082130">
        <ele>579.2</ele>
        <time>2019-08-18T06:24:40Z</time>
      </trkpt>
      <trkpt lat="42.4831010" lon="-8.1082330">
        <ele>579.3</ele>
        <time>2019-08-18T06:24:41Z</time>
      </trkpt>
      <trkpt lat="42.4831330" lon="-8.1082530">
        <ele>579.4</ele>
        <time>2019-08-18T06:24:42Z</time>
      </trkpt>
      <trkpt lat="42.4831650" lon="-8.1082740">
        <ele>579.5</ele>
        <time>2019-08-18T06:24:43Z</time>
      </trkpt>
      <trkpt lat="42.4831970" lon="-8.1082940">
        <ele>579.6</ele>
        <time>2019-08-18T06:24:44Z</time>
      </trkpt>
      <trkpt lat="42.4832300" lon="-8.1083150">
        <ele>579.7</ele>
        <time>2019-08-18T06:24:45Z</time>
      </trkpt>
      <trkpt lat="42.4832640" lon="-8.1083360">
        <ele>579.8</ele>
        <time>2019-08-18T06:24:46Z</time>
      </trkpt>
      <trkpt lat="42.4832980" lon="-8.1083580">
        <ele>579.9</ele>
        <time>2019-08-18T06:24:47Z</time>
      </trkpt>
      <trkpt lat="42.4833320" lon="-8.1083790">
        <ele>580.1</ele>
        <time>2019-08-18T06:24:48Z</time>
      </trkpt>
      <trkpt lat="42.4833660" lon="-8.1084010">
        <ele>580.2</ele>
        <time>2019-08-18T06:24:49Z</time>
      </trkpt>
      <trkpt lat="42.4834010" lon="-8.1084230">
        <ele>580.3</ele>
        <time>2019-08-18T06:24:50Z</time>
      </trkpt>
      <trkpt lat="42.4834360" lon="-8.1084450">
        <ele>580.4</ele>
        <time>2019-08-18T06:24:51Z</time>
      </trkpt>
      <trkpt lat="42.4834720" lon="-8.1084660">
        <ele>580.5</ele>
        <time>2019-08-18T06:24:52Z</time>
      </trkpt>
      <trkpt lat="42.4835070" lon="-8.1084880">
        <ele>580.6</ele>
        <time>2019-08-18T06:24:53Z</time>
      </trkpt>
      <trkpt lat="42.4835420" lon="-8.1085100">
        <ele>580.7</ele>
        <time>2019-08-18T06:24:54Z</time>
      </trkpt>
      <trkpt lat="42.4835770" lon="-8.1085320">
        <ele>580.8</ele>
        <time>2019-08-18T06:24:55Z</time>
      </trkpt>
      <trkpt lat="42.4836120" lon="-8.1085530">
        <ele>580.9</ele>
        <time>2019-08-18T06:24:56Z</time>
      </trkpt>
      <trkpt lat="42.4836470" lon="-8.1085750">
        <ele>581.0</ele>
        <time>2019-08-18T06:24:57Z</time>
      </trkpt>
      <trkpt lat="42.4836810" lon="-8.1085960">
        <ele>581.1</ele>
        <time>2019-08-18T06:24:58Z</time>
      </trkpt>
      <trkpt lat="42.4837150" lon="-8.1086170">
        <ele>581.1</ele>
        <time>2019-08-18T06:24:59Z</time>
      </trkpt>
      <trkpt lat="42.4837490" lon="-8.1086380">
        <ele>581.2</ele>
        <time>2019-08-18T06:25:00Z</time>
      </trkpt>
      <trkpt lat="42.4837820" lon="-8.1086580">
        <ele>581.2</ele>
        <time>2019-08-18T06:25:01Z</time>
      </trkpt>
      <trkpt lat="42.4838140" lon="-8.1086780">
        <ele>581.3</ele>
        <time>2019-08-18T06:25:02Z</time>
      </trkpt>
      <trkpt lat="42.4838460" lon="-8.1086980">
        <ele>581.4</ele>
        <time>2019-08-18T06:25:03Z</time>
      </trkpt>
      <trkpt lat="42.4838770" lon="-8.1087170">
        <ele>581.4</ele>
        <time>2019-08-18T06:25:04Z</time>
      </trkpt>
      <trkpt lat="42.4839080" lon="-8.1087370">
        <ele>581.5</ele>
        <time>2019-08-18T06:25:05Z</time>
      </trkpt>
      <trkpt lat="42.4839390" lon="-8.1087550">
        <ele>581.5</ele>
        <time>2019-08-18T06:25:06Z</time>
      </trkpt>
      <trkpt lat="42.4839690" lon="-8.1087740">
        <ele>581.6</ele>
        <time>2019-08-18T06:25:07Z</time>
      </trkpt>
      <trkpt lat="42.4839980" lon="-8.1087920">
        <ele>581.6</ele>
        <time>2019-08-18T06:25:08Z</time>
      </trkpt>
      <trkpt lat="42.4840270" lon="-8.1088110">
        <ele>581.7</ele>
        <time>2019-08-18T06:25:09Z</time>
      </trkpt>
      <trkpt lat="42.4840560" lon="-8.1088290">
        <ele>581.7</ele>
        <time>2019-08-18T06:25:10Z</time>
      </trkpt>
      <trkpt lat="42.4840850" lon="-8.1088470">
        <ele>581.8</ele>
        <time>2019-08-18T06:25:11Z</time>
      </trkpt>
      <trkpt lat="42.4841130" lon="-8.1088650">
        <ele>581.8</ele>
        <time>2019-08-18T06:25:12Z</time>
      </trkpt>
      <trkpt lat="42.4841420" lon="-8.1088820">
        <ele>581.9</ele>
        <time>2019-08-18T06:25:13Z</time>
      </trkpt>
      <trkpt lat="42.4841700" lon="-8.1089000">
        <ele>581.9</ele>
        <time>2019-08-18T06:25:14Z</time>
      </trkpt>
      <trkpt lat="42.4841980" lon="-8.1089180">
        <ele>582.0</ele>
        <time>2019-08-18T06:25:15Z</time>
      </trkpt>
      <trkpt lat="42.4842270" lon="-8.1089370">
        <ele>582.0</ele>
        <time>2019-08-18T06:25:16Z</time>
      </trkpt>
      <trkpt lat="42.4842550" lon="-8.1089550">
        <ele>582.1</ele>
        <time>2019-08-18T06:25:17Z</time>
      </trkpt>
      <trkpt lat="42.4842830" lon="-8.1089730">
        <ele>582.1</ele>
        <time>2019-08-18T06:25:18Z</time>
      </trkpt>
      <trkpt lat="42.4843120" lon="-8.1089920">
        <ele>582.2</ele>
        <time>2019-08-18T06:25:19Z</time>
      </trkpt>
      <trkpt lat="42.4843410" lon="-8.1090100">
        <ele>582.2</ele>
        <time>2019-08-18T06:25:20Z</time>
      </trkpt>
      <trkpt lat="42.4843690" lon="-8.1090290">
        <ele>582.3</ele>
        <time>2019-08-18T06:25:21Z</time>
      </trkpt>
      <trkpt lat="42.4843990" lon="-8.1090480">
        <ele>582.4</ele>
        <time>2019-08-18T06:25:22Z</time>
      </trkpt>
      <trkpt lat="42.4844280" lon="-8.1090670">
        <ele>582.4</ele>
        <time>2019-08-18T06:25:23Z</time>
      </trkpt>
      <trkpt lat="42.4844580" lon="-8.1090860">
        <ele>582.5</ele>
        <time>2019-08-18T06:25:24Z</time>
      </trkpt>
      <trkpt lat="42.4844880" lon="-8.1091060">
        <ele>582.6</ele>
        <time>2019-08-18T06:25:25Z</time>
      </trkpt>
      <trkpt lat="42.4845180" lon="-8.1091250">
        <ele>582.7</ele>
        <time>2019-08-18T06:25:26Z</time>
      </trkpt>
      <trkpt lat="42.4845490" lon="-8.1091450">
        <ele>582.8</ele>
        <time>2019-08-18T06:25:27Z</time>
      </trkpt>
      <trkpt lat="42.4845800" lon="-8.1091650">
        <ele>582.9</ele>
        <time>2019-08-18T06:25:28Z</time>
      </trkpt>
      <trkpt lat="42.4846110" lon="-8.1091850">
        <ele>583.0</ele>
        <time>2019-08-18T06:25:29Z</time>
      </trkpt>
      <trkpt lat="42.4846430" lon="-8.1092050">
        <ele>583.1</ele>
        <time>2019-08-18T06:25:30Z</time>
      </trkpt>
      <trkpt lat="42.4846750" lon="-8.1092250">
        <ele>583.2</ele>
        <time>2019-08-18T06:25:31Z</time>
      </trkpt>
      <trkpt lat="42.4847080" lon="-8.1092450">
        <ele>583.4</ele>
        <time>2019-08-18T06:25:32Z</time>
      </trkpt>
      <trkpt lat="42.4847400" lon="-8.1092660">
        <ele>583.5</ele>
        <time>2019-08-18T06:25:33Z</time>
      </trkpt>
      <trkpt lat="42.4847740" lon="-8.1092860">
        <ele>583.6</ele>
        <time>2019-08-18T06:25:34Z</time>
      </trkpt>
      <trkpt lat="42.4848070" lon="-8.1093070">
        <ele>583.7</ele>
        <time>2019-08-18T06:25:35Z</time>
      </trkpt>
      <trkpt lat="42.4848410" lon="-8.1093280">
        <ele>583.8</ele>
        <time>2019-08-18T06:25:36Z</time>
      </trkpt>
      <trkpt lat="42.4848740" lon="-8.1093490">
        <ele>583.9</ele>
        <time>2019-08-18T06:25:37Z</time>
      </trkpt>
      <trkpt lat="42.4849090" lon="-8.1093700">
        <ele>584.0</ele>
        <time>2019-08-18T06:25:38Z</time>
      </trkpt>
      <trkpt lat="42.4849430" lon="-8.1093910">
        <ele>584.1</ele>
        <time>2019-08-18T06:25:39Z</time>
      </trkpt>
      <trkpt lat="42.4849770" lon="-8.1094130">
        <ele>584.2</ele>
        <time>2019-08-18T06:25:40Z</time>
      </trkpt>
      <trkpt lat="42.4850110" lon="-8.1094340">
        <ele>584.3</ele>
        <time>2019-08-18T06:25:41Z</time>
      </trkpt>
      <trkpt lat="42.4850460" lon="-8.1094560">
        <ele>584.4</ele>
        <time>2019-08-18T06:25:42Z</time>
      </trkpt>
      <trkpt lat="42.4850800" lon="-8.1094770">
        <ele>584.5</ele>
        <time>2019-08-18T06:25:43Z</time>
      </trkpt>
      <trkpt lat="42.4851150" lon="-8.1094990">
        <ele>584.6</ele>
        <time>2019-08-18T06:25:44Z</time>
      </trkpt>
      <trkpt lat="42.4851490" lon="-8.1095210">
        <ele>584.7</ele>
        <time>2019-08-18T06:25:45Z</time>
      </trkpt>
      <trkpt lat="42.4851840" lon="-8.1095420">
        <ele>584.8</ele>
        <time>2019-08-18T06:25:46Z</time>
      </trkpt>
      <trkpt lat="42.4852180" lon="-8.1095640">
        <ele>584.9</ele>
        <time>2019-08-18T06:25:47Z</time>
      </trkpt>
      <trkpt lat="42.4852520" lon="-8.1095860">
        <ele>585.0</ele>
        <time>2019-08-18T06:25:48Z</time>
      </trkpt>
      <trkpt lat="42.4852860" lon="-8.1096080">
        <ele>585.2</ele>
        <time>2019-08-18T06:25:49Z</time>
      </trkpt>
      <trkpt lat="42.4853210" lon="-8.1096290">
        <ele>585.3</ele>
        <time>2019-08-18T06:25:50Z</time>
      </trkpt>
      <trkpt lat="42.4853550" lon="-8.1096510">
        <ele>585.4</ele>
        <time>2019-08-18T06:25:51Z</time>
      </trkpt>
      <trkpt lat="42.4853890" lon="-8.1096730">
        <ele>585.6</ele>
        <time>2019-08-18T06:25:52Z</time>
      </trkpt>
      <trkpt lat="42.4854240" lon="-8.1096950">
        <ele>585.7</ele>
        <time>2019-08-18T06:25:53Z</time>
      </trkpt>
      <trkpt lat="42.4854590" lon="-8.1097160">
        <ele>585.9</ele>
        <time>2019-08-18T06:25:54Z</time>
      </trkpt>
      <trkpt lat="42.4854940" lon="-8.1097380">
        <ele>586.0</ele>
        <time>2019-08-18T06:25:55Z</time>
      </trkpt>
      <trkpt lat="42.4855300" lon="-8.1097600">
        <ele>586.1</ele>
        <time>2019-08-18T06:25:56Z</time>
      </trkpt>
      <trkpt lat="42.4855650" lon="-8.1097810">
        <ele>586.3</ele>
        <time>2019-08-18T06:25:57Z</time>
      </trkpt>
      <trkpt lat="42.4856020" lon="-8.1098020">
        <ele>586.4</ele>
        <time>2019-08-18T06:25:58Z</time>
      </trkpt>
      <trkpt lat="42.4856380" lon="-8.1098240">
        <ele>586.5</ele>
        <time>2019-08-18T06:25:59Z</time>
      </trkpt>
      <trkpt lat="42.4856760" lon="-8.1098450">
        <ele>586.7</ele>
        <time>2019-08-18T06:26:00Z</time>
      </trkpt>
      <trkpt lat="42.4857130" lon="-8.1098660">
        <ele>586.8</ele>
        <time>2019-08-18T06:26:01Z</time>
      </trkpt>
      <trkpt lat="42.4857520" lon="-8.1098860">
        <ele>586.9</ele>
        <time>2019-08-18T06:26:02Z</time>
      </trkpt>
      <trkpt lat="42.4857910" lon="-8.1099070">
        <ele>587.0</ele>
        <time>2019-08-18T06:26:03Z</time>
      </trkpt>
      <trkpt lat="42.4858300" lon="-8.1099260">
        <ele>587.1</ele>
        <time>2019-08-18T06:26:04Z</time>
      </trkpt>
      <trkpt lat="42.4858700" lon="-8.1099450">
        <ele>587.2</ele>
        <time>2019-08-18T06:26:05Z</time>
      </trkpt>
      <trkpt lat="42.4859100" lon="-8.1099630">
        <ele>587.3</ele>
        <time>2019-08-18T06:26:06Z</time>
      </trkpt>
      <trkpt lat="42.4859510" lon="-8.1099800">
        <ele>587.4</ele>
        <time>2019-08-18T06:26:07Z</time>
      </trkpt>
      <trkpt lat="42.4859920" lon="-8.1099960">
        <ele>587.5</ele>
        <time>2019-08-18T06:26:08Z</time>
      </trkpt>
      <trkpt lat="42.4860340" lon="-8.1100110">
        <ele>587.7</ele>
        <time>2019-08-18T06:26:09Z</time>
      </trkpt>
      <trkpt lat="42.4860760" lon="-8.1100240">
        <ele>587.8</ele>
        <time>2019-08-18T06:26:10Z</time>
      </trkpt>
      <trkpt lat="42.4861180" lon="-8.1100360">
        <ele>587.9</ele>
        <time>2019-08-18T06:26:11Z</time>
      </trkpt>
      <trkpt lat="42.4861600" lon="-8.1100480">
        <ele>588.0</ele>
        <time>2019-08-18T06:26:12Z</time>
      </trkpt>
      <trkpt lat="42.4862030" lon="-8.1100590">
        <ele>588.2</ele>
        <time>2019-08-18T06:26:13Z</time>
      </trkpt>
      <trkpt lat="42.4862450" lon="-8.1100690">
        <ele>588.3</ele>
        <time>2019-08-18T06:26:14Z</time>
      </trkpt>
      <trkpt lat="42.4862870" lon="-8.1100790">
        <ele>588.3</ele>
        <time>2019-08-18T06:26:15Z</time>
      </trkpt>
      <trkpt lat="42.4863290" lon="-8.1100880">
        <ele>588.4</ele>
        <time>2019-08-18T06:26:16Z</time>
      </trkpt>
      <trkpt lat="42.4863700" lon="-8.1100970">
        <ele>588.5</ele>
        <time>2019-08-18T06:26:17Z</time>
      </trkpt>
      <trkpt lat="42.4864110" lon="-8.1101060">
        <ele>588.6</ele>
        <time>2019-08-18T06:26:18Z</time>
      </trkpt>
      <trkpt lat="42.4864520" lon="-8.1101130">
        <ele>588.7</ele>
        <time>2019-08-18T06:26:19Z</time>
      </trkpt>
      <trkpt lat="42.4864930" lon="-8.1101190">
        <ele>588.8</ele>
        <time>2019-08-18T06:26:20Z</time>
      </trkpt>
      <trkpt lat="42.4865340" lon="-8.1101230">
        <ele>588.9</ele>
        <time>2019-08-18T06:26:21Z</time>
      </trkpt>
      <trkpt lat="42.4865740" lon="-8.1101260">
        <ele>588.8</ele>
        <time>2019-08-18T06:26:22Z</time>
      </trkpt>
      <trkpt lat="42.4866150" lon="-8.1101260">
        <ele>588.8</ele>
        <time>2019-08-18T06:26:23Z</time>
      </trkpt>
      <trkpt lat="42.4866550" lon="-8.1101250">
        <ele>588.7</ele>
        <time>2019-08-18T06:26:24Z</time>
      </trkpt>
      <trkpt lat="42.4866950" lon="-8.1101220">
        <ele>588.7</ele>
        <time>2019-08-18T06:26:25Z</time>
      </trkpt>
      <trkpt lat="42.4867370" lon="-8.1101200">
        <ele>588.6</ele>
        <time>2019-08-18T06:26:26Z</time>
      </trkpt>
      <trkpt lat="42.4867780" lon="-8.1101170">
        <ele>588.6</ele>
        <time>2019-08-18T06:26:27Z</time>
      </trkpt>
      <trkpt lat="42.4868200" lon="-8.1101150">
        <ele>588.5</ele>
        <time>2019-08-18T06:26:28Z</time>
      </trkpt>
      <trkpt lat="42.4868640" lon="-8.1101150">
        <ele>588.5</ele>
        <time>2019-08-18T06:26:29Z</time>
      </trkpt>
      <trkpt lat="42.4869080" lon="-8.1101160">
        <ele>588.5</ele>
        <time>2019-08-18T06:26:30Z</time>
      </trkpt>
      <trkpt lat="42.4869540" lon="-8.1101180">
        <ele>588.4</ele>
        <time>2019-08-18T06:26:31Z</time>
      </trkpt>
      <trkpt lat="42.4870010" lon="-8.1101210">
        <ele>588.3</ele>
        <time>2019-08-18T06:26:32Z</time>
      </trkpt>
      <trkpt lat="42.4870490" lon="-8.1101240">
        <ele>588.3</ele>
        <time>2019-08-18T06:26:33Z</time>
      </trkpt>
      <trkpt lat="42.4870980" lon="-8.1101270">
        <ele>588.3</ele>
        <time>2019-08-18T06:26:34Z</time>
      </trkpt>
      <trkpt lat="42.4871470" lon="-8.1101290">
        <ele>588.2</ele>
        <time>2019-08-18T06:26:35Z</time>
      </trkpt>
      <trkpt lat="42.4871960" lon="-8.1101320">
        <ele>588.2</ele>
        <time>2019-08-18T06:26:36Z</time>
      </trkpt>
      <trkpt lat="42.4872440" lon="-8.1101350">
        <ele>588.2</ele>
        <time>2019-08-18T06:26:37Z</time>
      </trkpt>
      <trkpt lat="42.4872910" lon="-8.1101380">
        <ele>588.2</ele>
        <time>2019-08-18T06:26:38Z</time>
      </trkpt>
      <trkpt lat="42.4873360" lon="-8.1101410">
        <ele>588.2</ele>
        <time>2019-08-18T06:26:39Z</time>
      </trkpt>
      <trkpt lat="42.4873790" lon="-8.1101440">
        <ele>588.1</ele>
        <time>2019-08-18T06:26:40Z</time>
      </trkpt>
      <trkpt lat="42.4874220" lon="-8.1101460">
        <ele>588.1</ele>
        <time>2019-08-18T06:26:41Z</time>
      </trkpt>
      <trkpt lat="42.4874630" lon="-8.1101470">
        <ele>588.1</ele>
        <time>2019-08-18T06:26:42Z</time>
      </trkpt>
      <trkpt lat="42.4875050" lon="-8.1101460">
        <ele>588.1</ele>
        <time>2019-08-18T06:26:43Z</time>
      </trkpt>
      <trkpt lat="42.4875490" lon="-8.1101460">
        <ele>588.1</ele>
        <time>2019-08-18T06:26:44Z</time>
      </trkpt>
      <trkpt lat="42.4875940" lon="-8.1101450">
        <ele>588.0</ele>
        <time>2019-08-18T06:26:45Z</time>
      </trkpt>
      <trkpt lat="42.4876420" lon="-8.1101450">
        <ele>588.0</ele>
        <time>2019-08-18T06:26:46Z</time>
      </trkpt>
      <trkpt lat="42.4876910" lon="-8.1101450">
        <ele>588.0</ele>
        <time>2019-08-18T06:26:47Z</time>
      </trkpt>
      <trkpt lat="42.4877410" lon="-8.1101450">
        <ele>587.9</ele>
        <time>2019-08-18T06:26:48Z</time>
      </trkpt>
      <trkpt lat="42.4877920" lon="-8.1101450">
        <ele>587.9</ele>
        <time>2019-08-18T06:26:49Z</time>
      </trkpt>
      <trkpt lat="42.4878690" lon="-8.1101460">
        <ele>587.7</ele>
        <time>2019-08-18T06:26:50Z</time>
      </trkpt>
      <trkpt lat="42.4878940" lon="-8.1101470">
        <ele>587.6</ele>
        <time>2019-08-18T06:26:51Z</time>
      </trkpt>
      <trkpt lat="42.4879440" lon="-8.1101490">
        <ele>587.5</ele>
        <time>2019-08-18T06:26:52Z</time>
      </trkpt>
      <trkpt lat="42.4879920" lon="-8.1101510">
        <ele>587.3</ele>
        <time>2019-08-18T06:26:53Z</time>
      </trkpt>
      <trkpt lat="42.4880390" lon="-8.1101540">
        <ele>587.1</ele>
        <time>2019-08-18T06:26:54Z</time>
      </trkpt>
      <trkpt lat="42.4880860" lon="-8.1101560">
        <ele>586.9</ele>
        <time>2019-08-18T06:26:55Z</time>
      </trkpt>
      <trkpt lat="42.4881310" lon="-8.1101600">
        <ele>586.7</ele>
        <time>2019-08-18T06:26:56Z</time>
      </trkpt>
      <trkpt lat="42.4881770" lon="-8.1101630">
        <ele>586.5</ele>
        <time>2019-08-18T06:26:57Z</time>
      </trkpt>
      <trkpt lat="42.4882220" lon="-8.1101670">
        <ele>586.3</ele>
        <time>2019-08-18T06:26:58Z</time>
      </trkpt>
      <trkpt lat="42.4882670" lon="-8.1101720">
        <ele>586.1</ele>
        <time>2019-08-18T06:26:59Z</time>
      </trkpt>
      <trkpt lat="42.4883350" lon="-8.1101790">
        <ele>585.9</ele>
        <time>2019-08-18T06:27:00Z</time>
      </trkpt>
      <trkpt lat="42.4883580" lon="-8.1101820">
        <ele>585.8</ele>
        <time>2019-08-18T06:27:01Z</time>
      </trkpt>
      <trkpt lat="42.4884030" lon="-8.1101880">
        <ele>585.7</ele>
        <time>2019-08-18T06:27:02Z</time>
      </trkpt>
      <trkpt lat="42.4884500" lon="-8.1101950">
        <ele>585.5</ele>
        <time>2019-08-18T06:27:03Z</time>
      </trkpt>
      <trkpt lat="42.4884960" lon="-8.1102020">
        <ele>585.4</ele>
        <time>2019-08-18T06:27:04Z</time>
      </trkpt>
      <trkpt lat="42.4885430" lon="-8.1102110">
        <ele>585.2</ele>
        <time>2019-08-18T06:27:05Z</time>
      </trkpt>
      <trkpt lat="42.4885900" lon="-8.1102220">
        <ele>585.1</ele>
        <time>2019-08-18T06:27:06Z</time>
      </trkpt>
      <trkpt lat="42.4886370" lon="-8.1102340">
        <ele>584.9</ele>
        <time>2019-08-18T06:27:07Z</time>
      </trkpt>
      <trkpt lat="42.4886850" lon="-8.1102480">
        <ele>584.7</ele>
        <time>2019-08-18T06:27:08Z</time>
      </trkpt>
      <trkpt lat="42.4887330" lon="-8.1102640">
        <ele>584.4</ele>
        <time>2019-08-18T06:27:09Z</time>
      </trkpt>
      <trkpt lat="42.4887810" lon="-8.1102810">
        <ele>584.2</ele>
        <time>2019-08-18T06:27:10Z</time>
      </trkpt>
      <trkpt lat="42.4888300" lon="-8.1103000">
        <ele>583.9</ele>
        <time>2019-08-18T06:27:11Z</time>
      </trkpt>
      <trkpt lat="42.4888790" lon="-8.1103210">
        <ele>583.6</ele>
        <time>2019-08-18T06:27:12Z</time>
      </trkpt>
      <trkpt lat="42.4889290" lon="-8.1103440">
        <ele>583.4</ele>
        <time>2019-08-18T06:27:13Z</time>
      </trkpt>
      <trkpt lat="42.4889790" lon="-8.1103680">
        <ele>583.1</ele>
        <time>2019-08-18T06:27:14Z</time>
      </trkpt>
      <trkpt lat="42.4890290" lon="-8.1103940">
        <ele>582.8</ele>
        <time>2019-08-18T06:27:15Z</time>
      </trkpt>
      <trkpt lat="42.4890800" lon="-8.1104220">
        <ele>582.5</ele>
        <time>2019-08-18T06:27:16Z</time>
      </trkpt>
      <trkpt lat="42.4891320" lon="-8.1104520">
        <ele>582.2</ele>
        <time>2019-08-18T06:27:17Z</time>
      </trkpt>
      <trkpt lat="42.4891840" lon="-8.1104830">
        <ele>581.9</ele>
        <time>2019-08-18T06:27:18Z</time>
      </trkpt>
      <trkpt lat="42.4892370" lon="-8.1105170">
        <ele>581.5</ele>
        <time>2019-08-18T06:27:19Z</time>
      </trkpt>
      <trkpt lat="42.4892910" lon="-8.1105520">
        <ele>581.2</ele>
        <time>2019-08-18T06:27:20Z</time>
      </trkpt>
      <trkpt lat="42.4893460" lon="-8.1105890">
        <ele>580.9</ele>
        <time>2019-08-18T06:27:21Z</time>
      </trkpt>
      <trkpt lat="42.4894010" lon="-8.1106280">
        <ele>580.6</ele>
        <time>2019-08-18T06:27:22Z</time>
      </trkpt>
      <trkpt lat="42.4894580" lon="-8.1106690">
        <ele>580.2</ele>
        <time>2019-08-18T06:27:23Z</time>
      </trkpt>
      <trkpt lat="42.4895150" lon="-8.1107110">
        <ele>579.9</ele>
        <time>2019-08-18T06:27:24Z</time>
      </trkpt>
      <trkpt lat="42.4895740" lon="-8.1107550">
        <ele>579.6</ele>
        <time>2019-08-18T06:27:25Z</time>
      </trkpt>
      <trkpt lat="42.4896730" lon="-8.1108310">
        <ele>579.0</ele>
        <time>2019-08-18T06:27:26Z</time>
      </trkpt>
      <trkpt lat="42.4897130" lon="-8.1108610">
        <ele>578.8</ele>
        <time>2019-08-18T06:27:27Z</time>
      </trkpt>
      <trkpt lat="42.4897530" lon="-8.1108920">
        <ele>578.6</ele>
        <time>2019-08-18T06:27:28Z</time>
      </trkpt>
      <trkpt lat="42.4898130" lon="-8.1109400">
        <ele>578.2</ele>
        <time>2019-08-18T06:27:29Z</time>
      </trkpt>
      <trkpt lat="42.4898750" lon="-8.1109870">
        <ele>577.9</ele>
        <time>2019-08-18T06:27:30Z</time>
      </trkpt>
      <trkpt lat="42.4899790" lon="-8.1110670">
        <ele>577.4</ele>
        <time>2019-08-18T06:27:31Z</time>
      </trkpt>
      <trkpt lat="42.4900200" lon="-8.1111000">
        <ele>577.1</ele>
        <time>2019-08-18T06:27:32Z</time>
      </trkpt>
      <trkpt lat="42.4900620" lon="-8.1111320">
        <ele>576.9</ele>
        <time>2019-08-18T06:27:33Z</time>
      </trkpt>
      <trkpt lat="42.4901250" lon="-8.1111800">
        <ele>576.5</ele>
        <time>2019-08-18T06:27:34Z</time>
      </trkpt>
      <trkpt lat="42.4901890" lon="-8.1112280">
        <ele>576.2</ele>
        <time>2019-08-18T06:27:35Z</time>
      </trkpt>
      <trkpt lat="42.4902530" lon="-8.1112770">
        <ele>575.9</ele>
        <time>2019-08-18T06:27:36Z</time>
      </trkpt>
      <trkpt lat="42.4903160" lon="-8.1113250">
        <ele>575.5</ele>
        <time>2019-08-18T06:27:37Z</time>
      </trkpt>
      <trkpt lat="42.4903800" lon="-8.1113730">
        <ele>575.2</ele>
        <time>2019-08-18T06:27:38Z</time>
      </trkpt>
      <trkpt lat="42.4904440" lon="-8.1114210">
        <ele>574.8</ele>
        <time>2019-08-18T06:27:39Z</time>
      </trkpt>
      <trkpt lat="42.4905080" lon="-8.1114690">
        <ele>574.4</ele>
        <time>2019-08-18T06:27:40Z</time>
      </trkpt>
      <trkpt lat="42.4905730" lon="-8.1115170">
        <ele>573.9</ele>
        <time>2019-08-18T06:27:41Z</time>
      </trkpt>
      <trkpt lat="42.4906370" lon="-8.1115660">
        <ele>573.5</ele>
        <time>2019-08-18T06:27:42Z</time>
      </trkpt>
      <trkpt lat="42.4907010" lon="-8.1116150">
        <ele>573.1</ele>
        <time>2019-08-18T06:27:43Z</time>
      </trkpt>
      <trkpt lat="42.4907650" lon="-8.1116650">
        <ele>572.6</ele>
        <time>2019-08-18T06:27:44Z</time>
      </trkpt>
      <trkpt lat="42.4908300" lon="-8.1117150">
        <ele>572.1</ele>
        <time>2019-08-18T06:27:45Z</time>
      </trkpt>
      <trkpt lat="42.4908940" lon="-8.1117670">
        <ele>571.7</ele>
        <time>2019-08-18T06:27:46Z</time>
      </trkpt>
      <trkpt lat="42.4909580" lon="-8.1118180">
        <ele>571.2</ele>
        <time>2019-08-18T06:27:47Z</time>
      </trkpt>
      <trkpt lat="42.4910230" lon="-8.1118710">
        <ele>570.7</ele>
        <time>2019-08-18T06:27:48Z</time>
      </trkpt>
      <trkpt lat="42.4910880" lon="-8.1119240">
        <ele>570.2</ele>
        <time>2019-08-18T06:27:49Z</time>
      </trkpt>
      <trkpt lat="42.4911520" lon="-8.1119780">
        <ele>569.8</ele>
        <time>2019-08-18T06:27:50Z</time>
      </trkpt>
      <trkpt lat="42.4912170" lon="-8.1120320">
        <ele>569.3</ele>
        <time>2019-08-18T06:27:51Z</time>
      </trkpt>
      <trkpt lat="42.4912830" lon="-8.1120870">
        <ele>568.9</ele>
        <time>2019-08-18T06:27:52Z</time>
      </trkpt>
      <trkpt lat="42.4913480" lon="-8.1121430">
        <ele>568.5</ele>
        <time>2019-08-18T06:27:53Z</time>
      </trkpt>
      <trkpt lat="42.4914140" lon="-8.1122000">
        <ele>568.1</ele>
        <time>2019-08-18T06:27:54Z</time>
      </trkpt>
      <trkpt lat="42.4914800" lon="-8.1122570">
        <ele>567.7</ele>
        <time>2019-08-18T06:27:55Z</time>
      </trkpt>
      <trkpt lat="42.4915460" lon="-8.1123140">
        <ele>567.3</ele>
        <time>2019-08-18T06:27:56Z</time>
      </trkpt>
      <trkpt lat="42.4916130" lon="-8.1123730">
        <ele>566.9</ele>
        <time>2019-08-18T06:27:57Z</time>
      </trkpt>
      <trkpt lat="42.4916800" lon="-8.1124320">
        <ele>566.4</ele>
        <time>2019-08-18T06:27:58Z</time>
      </trkpt>
      <trkpt lat="42.4917470" lon="-8.1124920">
        <ele>565.9</ele>
        <time>2019-08-18T06:27:59Z</time>
      </trkpt>
      <trkpt lat="42.4918150" lon="-8.1125520">
        <ele>565.5</ele>
        <time>2019-08-18T06:28:00Z</time>
      </trkpt>
      <trkpt lat="42.4918830" lon="-8.1126130">
        <ele>565.0</ele>
        <time>2019-08-18T06:28:01Z</time>
      </trkpt>
      <trkpt lat="42.4919510" lon="-8.1126750">
        <ele>564.5</ele>
        <time>2019-08-18T06:28:02Z</time>
      </trkpt>
      <trkpt lat="42.4920200" lon="-8.1127370">
        <ele>564.0</ele>
        <time>2019-08-18T06:28:03Z</time>
      </trkpt>
      <trkpt lat="42.4920890" lon="-8.1128000">
        <ele>563.5</ele>
        <time>2019-08-18T06:28:04Z</time>
      </trkpt>
      <trkpt lat="42.4921590" lon="-8.1128630">
        <ele>563.0</ele>
        <time>2019-08-18T06:28:05Z</time>
      </trkpt>
      <trkpt lat="42.4922300" lon="-8.1129270">
        <ele>563.0</ele>
        <time>2019-08-18T06:28:06Z</time>
      </trkpt>
      <trkpt lat="42.4923000" lon="-8.1129910">
        <ele>563.4</ele>
        <time>2019-08-18T06:28:07Z</time>
      </trkpt>
      <trkpt lat="42.4923720" lon="-8.1130550">
        <ele>563.8</ele>
        <time>2019-08-18T06:28:08Z</time>
      </trkpt>
      <trkpt lat="42.4924430" lon="-8.1131210">
        <ele>563.4</ele>
        <time>2019-08-18T06:28:09Z</time>
      </trkpt>
      <trkpt lat="42.4925160" lon="-8.1131860">
        <ele>563.1</ele>
        <time>2019-08-18T06:28:10Z</time>
      </trkpt>
      <trkpt lat="42.4925890" lon="-8.1132520">
        <ele>562.8</ele>
        <time>2019-08-18T06:28:11Z</time>
      </trkpt>
      <trkpt lat="42.4926620" lon="-8.1133180">
        <ele>562.4</ele>
        <time>2019-08-18T06:28:12Z</time>
      </trkpt>
      <trkpt lat="42.4927360" lon="-8.1133850">
        <ele>562.0</ele>
        <time>2019-08-18T06:28:13Z</time>
      </trkpt>
      <trkpt lat="42.4928110" lon="-8.1134520">
        <ele>561.5</ele>
        <time>2019-08-18T06:28:14Z</time>
      </trkpt>
      <trkpt lat="42.4928860" lon="-8.1135190">
        <ele>561.0</ele>
        <time>2019-08-18T06:28:15Z</time>
      </trkpt>
      <trkpt lat="42.4929620" lon="-8.1135870">
        <ele>560.5</ele>
        <time>2019-08-18T06:28:16Z</time>
      </trkpt>
      <trkpt lat="42.4930400" lon="-8.1136560">
        <ele>560.1</ele>
        <time>2019-08-18T06:28:17Z</time>
      </trkpt>
      <trkpt lat="42.4931180" lon="-8.1137250">
        <ele>559.5</ele>
        <time>2019-08-18T06:28:18Z</time>
      </trkpt>
      <trkpt lat="42.4931970" lon="-8.1137960">
        <ele>558.9</ele>
        <time>2019-08-18T06:28:19Z</time>
      </trkpt>
      <trkpt lat="42.4932770" lon="-8.1138670">
        <ele>558.2</ele>
        <time>2019-08-18T06:28:20Z</time>
      </trkpt>
      <trkpt lat="42.4933570" lon="-8.1139380">
        <ele>557.5</ele>
        <time>2019-08-18T06:28:21Z</time>
      </trkpt>
      <trkpt lat="42.4934390" lon="-8.1140100">
        <ele>556.6</ele>
        <time>2019-08-18T06:28:22Z</time>
      </trkpt>
      <trkpt lat="42.4935200" lon="-8.1140830">
        <ele>555.8</ele>
        <time>2019-08-18T06:28:23Z</time>
      </trkpt>
      <trkpt lat="42.4936020" lon="-8.1141550">
        <ele>555.1</ele>
        <time>2019-08-18T06:28:24Z</time>
      </trkpt>
      <trkpt lat="42.4936830" lon="-8.1142280">
        <ele>554.4</ele>
        <time>2019-08-18T06:28:25Z</time>
      </trkpt>
      <trkpt lat="42.4937630" lon="-8.1143000">
        <ele>553.9</ele>
        <time>2019-08-18T06:28:26Z</time>
      </trkpt>
      <trkpt lat="42.4938430" lon="-8.1143720">
        <ele>553.5</ele>
        <time>2019-08-18T06:28:27Z</time>
      </trkpt>
      <trkpt lat="42.4939220" lon="-8.1144440">
        <ele>553.2</ele>
        <time>2019-08-18T06:28:28Z</time>
      </trkpt>
      <trkpt lat="42.4940010" lon="-8.1145140">
        <ele>552.8</ele>
        <time>2019-08-18T06:28:29Z</time>
      </trkpt>
      <trkpt lat="42.4940790" lon="-8.1145830">
        <ele>552.3</ele>
        <time>2019-08-18T06:28:30Z</time>
      </trkpt>
      <trkpt lat="42.4941580" lon="-8.1146520">
        <ele>551.7</ele>
        <time>2019-08-18T06:28:31Z</time>
      </trkpt>
      <trkpt lat="42.4942380" lon="-8.1147180">
        <ele>551.2</ele>
        <time>2019-08-18T06:28:32Z</time>
      </trkpt>
      <trkpt lat="42.4943190" lon="-8.1147830">
        <ele>550.6</ele>
        <time>2019-08-18T06:28:33Z</time>
      </trkpt>
      <trkpt lat="42.4944010" lon="-8.1148450">
        <ele>550.1</ele>
        <time>2019-08-18T06:28:34Z</time>
      </trkpt>
      <trkpt lat="42.4944850" lon="-8.1149050">
        <ele>549.6</ele>
        <time>2019-08-18T06:28:35Z</time>
      </trkpt>
      <trkpt lat="42.4945700" lon="-8.1149630">
        <ele>549.2</ele>
        <time>2019-08-18T06:28:36Z</time>
      </trkpt>
      <trkpt lat="42.4946570" lon="-8.1150170">
        <ele>548.8</ele>
        <time>2019-08-18T06:28:37Z</time>
      </trkpt>
      <trkpt lat="42.4947450" lon="-8.1150680">
        <ele>548.2</ele>
        <time>2019-08-18T06:28:38Z</time>
      </trkpt>
      <trkpt lat="42.4948340" lon="-8.1151150">
        <ele>547.5</ele>
        <time>2019-08-18T06:28:39Z</time>
      </trkpt>
      <trkpt lat="42.4949230" lon="-8.1151570">
        <ele>546.8</ele>
        <time>2019-08-18T06:28:40Z</time>
      </trkpt>
      <trkpt lat="42.4950140" lon="-8.1151950">
        <ele>546.0</ele>
        <time>2019-08-18T06:28:41Z</time>
      </trkpt>
      <trkpt lat="42.4951050" lon="-8.1152280">
        <ele>545.3</ele>
        <time>2019-08-18T06:28:42Z</time>
      </trkpt>
      <trkpt lat="42.4951970" lon="-8.1152560">
        <ele>544.6</ele>
        <time>2019-08-18T06:28:43Z</time>
      </trkpt>
      <trkpt lat="42.4952890" lon="-8.1152810">
        <ele>544.0</ele>
        <time>2019-08-18T06:28:44Z</time>
      </trkpt>
      <trkpt lat="42.4953820" lon="-8.1153020">
        <ele>543.3</ele>
        <time>2019-08-18T06:28:45Z</time>
      </trkpt>
      <trkpt lat="42.4954760" lon="-8.1153200">
        <ele>542.7</ele>
        <time>2019-08-18T06:28:46Z</time>
      </trkpt>
      <trkpt lat="42.4955710" lon="-8.1153370">
        <ele>542.0</ele>
        <time>2019-08-18T06:28:47Z</time>
      </trkpt>
      <trkpt lat="42.4956660" lon="-8.1153520">
        <ele>541.3</ele>
        <time>2019-08-18T06:28:48Z</time>
      </trkpt>
      <trkpt lat="42.4957620" lon="-8.1153660">
        <ele>540.7</ele>
        <time>2019-08-18T06:28:49Z</time>
      </trkpt>
      <trkpt lat="42.4958590" lon="-8.1153800">
        <ele>540.2</ele>
        <time>2019-08-18T06:28:50Z</time>
      </trkpt>
      <trkpt lat="42.4959570" lon="-8.1153930">
        <ele>539.8</ele>
        <time>2019-08-18T06:28:51Z</time>
      </trkpt>
      <trkpt lat="42.4960550" lon="-8.1154060">
        <ele>539.5</ele>
        <time>2019-08-18T06:28:52Z</time>
      </trkpt>
      <trkpt lat="42.4961530" lon="-8.1154190">
        <ele>539.2</ele>
        <time>2019-08-18T06:28:53Z</time>
      </trkpt>
      <trkpt lat="42.4962500" lon="-8.1154320">
        <ele>538.8</ele>
        <time>2019-08-18T06:28:54Z</time>
      </trkpt>
      <trkpt lat="42.4963470" lon="-8.1154450">
        <ele>538.4</ele>
        <time>2019-08-18T06:28:55Z</time>
      </trkpt>
      <trkpt lat="42.4964430" lon="-8.1154570">
        <ele>538.1</ele>
        <time>2019-08-18T06:28:56Z</time>
      </trkpt>
      <trkpt lat="42.4965370" lon="-8.1154680">
        <ele>537.7</ele>
        <time>2019-08-18T06:28:57Z</time>
      </trkpt>
      <trkpt lat="42.4966310" lon="-8.1154790">
        <ele>537.4</ele>
        <time>2019-08-18T06:28:58Z</time>
      </trkpt>
      <trkpt lat="42.4967220" lon="-8.1154900">
        <ele>537.2</ele>
        <time>2019-08-18T06:28:59Z</time>
      </trkpt>
      <trkpt lat="42.4968130" lon="-8.1155010">
        <ele>536.9</ele>
        <time>2019-08-18T06:29:00Z</time>
      </trkpt>
      <trkpt lat="42.4969020" lon="-8.1155120">
        <ele>536.7</ele>
        <time>2019-08-18T06:29:01Z</time>
      </trkpt>
      <trkpt lat="42.4969900" lon="-8.1155230">
        <ele>536.4</ele>
        <time>2019-08-18T06:29:02Z</time>
      </trkpt>
      <trkpt lat="42.4970760" lon="-8.1155340">
        <ele>536.2</ele>
        <time>2019-08-18T06:29:03Z</time>
      </trkpt>
      <trkpt lat="42.4971600" lon="-8.1155450">
        <ele>535.8</ele>
        <time>2019-08-18T06:29:04Z</time>
      </trkpt>
      <trkpt lat="42.4972430" lon="-8.1155560">
        <ele>535.5</ele>
        <time>2019-08-18T06:29:05Z</time>
      </trkpt>
      <trkpt lat="42.4973250" lon="-8.1155670">
        <ele>535.2</ele>
        <time>2019-08-18T06:29:06Z</time>
      </trkpt>
      <trkpt lat="42.4974050" lon="-8.1155780">
        <ele>534.9</ele>
        <time>2019-08-18T06:29:07Z</time>
      </trkpt>
      <trkpt lat="42.4974840" lon="-8.1155890">
        <ele>534.6</ele>
        <time>2019-08-18T06:29:08Z</time>
      </trkpt>
      <trkpt lat="42.4975630" lon="-8.1155990">
        <ele>534.4</ele>
        <time>2019-08-18T06:29:09Z</time>
      </trkpt>
      <trkpt lat="42.4976410" lon="-8.1156090">
        <ele>534.3</ele>
        <time>2019-08-18T06:29:10Z</time>
      </trkpt>
      <trkpt lat="42.4977190" lon="-8.1156190">
        <ele>534.1</ele>
        <time>2019-08-18T06:29:11Z</time>
      </trkpt>
      <trkpt lat="42.4977970" lon="-8.1156280">
        <ele>534.0</ele>
        <time>2019-08-18T06:29:12Z</time>
      </trkpt>
      <trkpt lat="42.4978750" lon="-8.1156370">
        <ele>534.0</ele>
        <time>2019-08-18T06:29:13Z</time>
      </trkpt>
      <trkpt lat="42.4979520" lon="-8.1156460">
        <ele>533.9</ele>
        <time>2019-08-18T06:29:14Z</time>
      </trkpt>
      <trkpt lat="42.4980300" lon="-8.1156540">
        <ele>533.9</ele>
        <time>2019-08-18T06:29:15Z</time>
      </trkpt>
      <trkpt lat="42.4981080" lon="-8.1156630">
        <ele>533.9</ele>
        <time>2019-08-18T06:29:16Z</time>
      </trkpt>
      <trkpt lat="42.4981860" lon="-8.1156720">
        <ele>533.9</ele>
        <time>2019-08-18T06:29:17Z</time>
      </trkpt>
      <trkpt lat="42.4982640" lon="-8.1156820">
        <ele>533.9</ele>
        <time>2019-08-18T06:29:18Z</time>
      </trkpt>
      <trkpt lat="42.4983430" lon="-8.1156920">
        <ele>533.9</ele>
        <time>2019-08-18T06:29:19Z</time>
      </trkpt>
      <trkpt lat="42.4984210" lon="-8.1157030">
        <ele>533.9</ele>
        <time>2019-08-18T06:29:20Z</time>
      </trkpt>
      <trkpt lat="42.4984990" lon="-8.1157150">
        <ele>533.9</ele>
        <time>2019-08-18T06:29:21Z</time>
      </trkpt>
      <trkpt lat="42.4985760" lon="-8.1157270">
        <ele>533.9</ele>
        <time>2019-08-18T06:29:22Z</time>
      </trkpt>
      <trkpt lat="42.4986530" lon="-8.1157390">
        <ele>533.9</ele>
        <time>2019-08-18T06:29:23Z</time>
      </trkpt>
      <trkpt lat="42.4987280" lon="-8.1157520">
        <ele>533.9</ele>
        <time>2019-08-18T06:29:24Z</time>
      </trkpt>
      <trkpt lat="42.4988020" lon="-8.1157640">
        <ele>533.9</ele>
        <time>2019-08-18T06:29:25Z</time>
      </trkpt>
      <trkpt lat="42.4988750" lon="-8.1157760">
        <ele>534.0</ele>
        <time>2019-08-18T06:29:26Z</time>
      </trkpt>
      <trkpt lat="42.4989460" lon="-8.1157880">
        <ele>534.0</ele>
        <time>2019-08-18T06:29:27Z</time>
      </trkpt>
      <trkpt lat="42.4990150" lon="-8.1158000">
        <ele>534.0</ele>
        <time>2019-08-18T06:29:28Z</time>
      </trkpt>
      <trkpt lat="42.4990830" lon="-8.1158120">
        <ele>534.0</ele>
        <time>2019-08-18T06:29:29Z</time>
      </trkpt>
      <trkpt lat="42.4991500" lon="-8.1158240">
        <ele>534.0</ele>
        <time>2019-08-18T06:29:30Z</time>
      </trkpt>
      <trkpt lat="42.4992160" lon="-8.1158360">
        <ele>534.0</ele>
        <time>2019-08-18T06:29:31Z</time>
      </trkpt>
      <trkpt lat="42.4992810" lon="-8.1158470">
        <ele>534.1</ele>
        <time>2019-08-18T06:29:32Z</time>
      </trkpt>
      <trkpt lat="42.4993450" lon="-8.1158590">
        <ele>534.1</ele>
        <time>2019-08-18T06:29:33Z</time>
      </trkpt>
      <trkpt lat="42.4994080" lon="-8.1158710">
        <ele>534.1</ele>
        <time>2019-08-18T06:29:34Z</time>
      </trkpt>
      <trkpt lat="42.4994700" lon="-8.1158830">
        <ele>534.1</ele>
        <time>2019-08-18T06:29:35Z</time>
      </trkpt>
      <trkpt lat="42.4995320" lon="-8.1158960">
        <ele>534.1</ele>
        <time>2019-08-18T06:29:36Z</time>
      </trkpt>
      <trkpt lat="42.4995930" lon="-8.1159080">
        <ele>534.1</ele>
        <time>2019-08-18T06:29:37Z</time>
      </trkpt>
      <trkpt lat="42.4996540" lon="-8.1159210">
        <ele>534.0</ele>
        <time>2019-08-18T06:29:38Z</time>
      </trkpt>
      <trkpt lat="42.4997150" lon="-8.1159340">
        <ele>534.0</ele>
        <time>2019-08-18T06:29:39Z</time>
      </trkpt>
      <trkpt lat="42.4997750" lon="-8.1159470">
        <ele>533.9</ele>
        <time>2019-08-18T06:29:40Z</time>
      </trkpt>
      <trkpt lat="42.4998360" lon="-8.1159600">
        <ele>533.9</ele>
        <time>2019-08-18T06:29:41Z</time>
      </trkpt>
      <trkpt lat="42.4998960" lon="-8.1159740">
        <ele>533.9</ele>
        <time>2019-08-18T06:29:42Z</time>
      </trkpt>
      <trkpt lat="42.4999560" lon="-8.1159880">
        <ele>533.8</ele>
        <time>2019-08-18T06:29:43Z</time>
      </trkpt>
      <trkpt lat="42.5000160" lon="-8.1160030">
        <ele>533.8</ele>
        <time>2019-08-18T06:29:44Z</time>
      </trkpt>
      <trkpt lat="42.5000760" lon="-8.1160170">
        <ele>533.8</ele>
        <time>2019-08-18T06:29:45Z</time>
      </trkpt>
      <trkpt lat="42.5001360" lon="-8.1160320">
        <ele>533.5</ele>
        <time>2019-08-18T06:29:46Z</time>
      </trkpt>
      <trkpt lat="42.5001960" lon="-8.1160470">
        <ele>533.2</ele>
        <time>2019-08-18T06:29:47Z</time>
      </trkpt>
      <trkpt lat="42.5002560" lon="-8.1160620">
        <ele>532.9</ele>
        <time>2019-08-18T06:29:48Z</time>
      </trkpt>
      <trkpt lat="42.5003150" lon="-8.1160760">
        <ele>532.6</ele>
        <time>2019-08-18T06:29:49Z</time>
      </trkpt>
      <trkpt lat="42.5003750" lon="-8.1160910">
        <ele>531.9</ele>
        <time>2019-08-18T06:29:50Z</time>
      </trkpt>
      <trkpt lat="42.5004340" lon="-8.1161060">
        <ele>531.5</ele>
        <time>2019-08-18T06:29:51Z</time>
      </trkpt>
      <trkpt lat="42.5004930" lon="-8.1161210">
        <ele>531.1</ele>
        <time>2019-08-18T06:29:52Z</time>
      </trkpt>
      <trkpt lat="42.5005520" lon="-8.1161360">
        <ele>530.8</ele>
        <time>2019-08-18T06:29:53Z</time>
      </trkpt>
      <trkpt lat="42.5006110" lon="-8.1161510">
        <ele>530.4</ele>
        <time>2019-08-18T06:29:54Z</time>
      </trkpt>
      <trkpt lat="42.5006690" lon="-8.1161660">
        <ele>530.1</ele>
        <time>2019-08-18T06:29:55Z</time>
      </trkpt>
      <trkpt lat="42.5007280" lon="-8.1161820">
        <ele>529.8</ele>
        <time>2019-08-18T06:29:56Z</time>
      </trkpt>
      <trkpt lat="42.5007860" lon="-8.1162000">
        <ele>529.5</ele>
        <time>2019-08-18T06:29:57Z</time>
      </trkpt>
      <trkpt lat="42.5008430" lon="-8.1162220">
        <ele>529.3</ele>
        <time>2019-08-18T06:29:58Z</time>
      </trkpt>
      <trkpt lat="42.5009000" lon="-8.1162490">
        <ele>529.0</ele>
        <time>2019-08-18T06:29:59Z</time>
      </trkpt>
      <trkpt lat="42.5009570" lon="-8.1162760">
        <ele>528.8</ele>
        <time>2019-08-18T06:30:00Z</time>
      </trkpt>
      <trkpt lat="42.5010120" lon="-8.1163010">
        <ele>528.5</ele>
        <time>2019-08-18T06:30:01Z</time>
      </trkpt>
      <trkpt lat="42.5010660" lon="-8.1163200">
        <ele>528.3</ele>
        <time>2019-08-18T06:30:02Z</time>
      </trkpt>
      <trkpt lat="42.5011190" lon="-8.1163290">
        <ele>528.1</ele>
        <time>2019-08-18T06:30:03Z</time>
      </trkpt>
      <trkpt lat="42.5011690" lon="-8.1163270">
        <ele>527.8</ele>
        <time>2019-08-18T06:30:04Z</time>
      </trkpt>
      <trkpt lat="42.5012190" lon="-8.1163250">
        <ele>527.6</ele>
        <time>2019-08-18T06:30:05Z</time>
      </trkpt>
      <trkpt lat="42.5012670" lon="-8.1163150">
        <ele>527.4</ele>
        <time>2019-08-18T06:30:06Z</time>
      </trkpt>
      <trkpt lat="42.5013140" lon="-8.1163030">
        <ele>527.2</ele>
        <time>2019-08-18T06:30:07Z</time>
      </trkpt>
      <trkpt lat="42.5013610" lon="-8.1162900">
        <ele>526.9</ele>
        <time>2019-08-18T06:30:08Z</time>
      </trkpt>
      <trkpt lat="42.5014070" lon="-8.1162790">
        <ele>526.7</ele>
        <time>2019-08-18T06:30:09Z</time>
      </trkpt>
      <trkpt lat="42.5014540" lon="-8.1162710">
        <ele>526.4</ele>
        <time>2019-08-18T06:30:10Z</time>
      </trkpt>
      <trkpt lat="42.5015000" lon="-8.1162650">
        <ele>526.1</ele>
        <time>2019-08-18T06:30:11Z</time>
      </trkpt>
      <trkpt lat="42.5015470" lon="-8.1162580">
        <ele>525.8</ele>
        <time>2019-08-18T06:30:12Z</time>
      </trkpt>
      <trkpt lat="42.5015940" lon="-8.1162490">
        <ele>525.4</ele>
        <time>2019-08-18T06:30:13Z</time>
      </trkpt>
      <trkpt lat="42.5016420" lon="-8.1162370">
        <ele>525.0</ele>
        <time>2019-08-18T06:30:14Z</time>
      </trkpt>
      <trkpt lat="42.5016910" lon="-8.1162230">
        <ele>524.6</ele>
        <time>2019-08-18T06:30:15Z</time>
      </trkpt>
      <trkpt lat="42.5017400" lon="-8.1162090">
        <ele>524.7</ele>
        <time>2019-08-18T06:30:16Z</time>
      </trkpt>
      <trkpt lat="42.5017890" lon="-8.1161960">
        <ele>524.8</ele>
        <time>2019-08-18T06:30:17Z</time>
      </trkpt>
      <trkpt lat="42.5018390" lon="-8.1161850">
        <ele>524.8</ele>
        <time>2019-08-18T06:30:18Z</time>
      </trkpt>
      <trkpt lat="42.5018890" lon="-8.1161750">
        <ele>524.9</ele>
        <time>2019-08-18T06:30:19Z</time>
      </trkpt>
      <trkpt lat="42.5019380" lon="-8.1161670">
        <ele>525.0</ele>
        <time>2019-08-18T06:30:20Z</time>
      </trkpt>
      <trkpt lat="42.5019880" lon="-8.1161590">
        <ele>525.1</ele>
        <time>2019-08-18T06:30:21Z</time>
      </trkpt>
      <trkpt lat="42.5020380" lon="-8.1161530">
        <ele>525.2</ele>
        <time>2019-08-18T06:30:22Z</time>
      </trkpt>
      <trkpt lat="42.5020870" lon="-8.1161470">
        <ele>525.3</ele>
        <time>2019-08-18T06:30:23Z</time>
      </trkpt>
      <trkpt lat="42.5021360" lon="-8.1161400">
        <ele>525.4</ele>
        <time>2019-08-18T06:30:24Z</time>
      </trkpt>
      <trkpt lat="42.5021850" lon="-8.1161330">
        <ele>525.5</ele>
        <time>2019-08-18T06:30:25Z</time>
      </trkpt>
      <trkpt lat="42.5022340" lon="-8.1161230">
        <ele>525.6</ele>
        <time>2019-08-18T06:30:26Z</time>
      </trkpt>
      <trkpt lat="42.5022830" lon="-8.1161080">
        <ele>525.8</ele>
        <time>2019-08-18T06:30:27Z</time>
      </trkpt>
      <trkpt lat="42.5023310" lon="-8.1160900">
        <ele>525.9</ele>
        <time>2019-08-18T06:30:28Z</time>
      </trkpt>
      <trkpt lat="42.5023760" lon="-8.1160750">
        <ele>526.0</ele>
        <time>2019-08-18T06:30:29Z</time>
      </trkpt>
      <trkpt lat="42.5024160" lon="-8.1160700">
        <ele>526.0</ele>
        <time>2019-08-18T06:30:30Z</time>
      </trkpt>
      <trkpt lat="42.5024550" lon="-8.1160700">
        <ele>526.1</ele>
        <time>2019-08-18T06:30:31Z</time>
      </trkpt>
      <trkpt lat="42.5024980" lon="-8.1160700">
        <ele>526.2</ele>
        <time>2019-08-18T06:30:32Z</time>
      </trkpt>
      <trkpt lat="42.5025430" lon="-8.1160680">
        <ele>526.3</ele>
        <time>2019-08-18T06:30:33Z</time>
      </trkpt>
      <trkpt lat="42.5025900" lon="-8.1160630">
        <ele>526.4</ele>
        <time>2019-08-18T06:30:34Z</time>
      </trkpt>
      <trkpt lat="42.5026390" lon="-8.1160530">
        <ele>526.6</ele>
        <time>2019-08-18T06:30:35Z</time>
      </trkpt>
      <trkpt lat="42.5026870" lon="-8.1160390">
        <ele>526.7</ele>
        <time>2019-08-18T06:30:36Z</time>
      </trkpt>
      <trkpt lat="42.5027690" lon="-8.1160160">
        <ele>527.0</ele>
        <time>2019-08-18T06:30:37Z</time>
      </trkpt>
      <trkpt lat="42.5028020" lon="-8.1160070">
        <ele>527.2</ele>
        <time>2019-08-18T06:30:38Z</time>
      </trkpt>
      <trkpt lat="42.5028350" lon="-8.1159980">
        <ele>527.3</ele>
        <time>2019-08-18T06:30:39Z</time>
      </trkpt>
      <trkpt lat="42.5028850" lon="-8.1159820">
        <ele>527.6</ele>
        <time>2019-08-18T06:30:40Z</time>
      </trkpt>
      <trkpt lat="42.5029350" lon="-8.1159640">
        <ele>527.9</ele>
        <time>2019-08-18T06:30:41Z</time>
      </trkpt>
      <trkpt lat="42.5030210" lon="-8.1159320">
        <ele>527.9</ele>
        <time>2019-08-18T06:30:42Z</time>
      </trkpt>
      <trkpt lat="42.5030560" lon="-8.1159180">
        <ele>527.5</ele>
        <time>2019-08-18T06:30:43Z</time>
      </trkpt>
      <trkpt lat="42.5030910" lon="-8.1159050">
        <ele>527.2</ele>
        <time>2019-08-18T06:30:44Z</time>
      </trkpt>
      <trkpt lat="42.5031470" lon="-8.1158840">
        <ele>526.6</ele>
        <time>2019-08-18T06:30:45Z</time>
      </trkpt>
      <trkpt lat="42.5032060" lon="-8.1158630">
        <ele>526.1</ele>
        <time>2019-08-18T06:30:46Z</time>
      </trkpt>
      <trkpt lat="42.5032670" lon="-8.1158440">
        <ele>525.6</ele>
        <time>2019-08-18T06:30:47Z</time>
      </trkpt>
      <trkpt lat="42.5033310" lon="-8.1158270">
        <ele>525.1</ele>
        <time>2019-08-18T06:30:48Z</time>
      </trkpt>
      <trkpt lat="42.5033960" lon="-8.1158150">
        <ele>524.6</ele>
        <time>2019-08-18T06:30:49Z</time>
      </trkpt>
      <trkpt lat="42.5034620" lon="-8.1158120">
        <ele>524.2</ele>
        <time>2019-08-18T06:30:50Z</time>
      </trkpt>
      <trkpt lat="42.5035280" lon="-8.1158180">
        <ele>523.9</ele>
        <time>2019-08-18T06:30:51Z</time>
      </trkpt>
      <trkpt lat="42.5035930" lon="-8.1158370">
        <ele>523.6</ele>
        <time>2019-08-18T06:30:52Z</time>
      </trkpt>
      <trkpt lat="42.5036560" lon="-8.1158790">
        <ele>523.3</ele>
        <time>2019-08-18T06:30:53Z</time>
      </trkpt>
      <trkpt lat="42.5037180" lon="-8.1159210">
        <ele>523.0</ele>
        <time>2019-08-18T06:30:54Z</time>
      </trkpt>
      <trkpt lat="42.5037780" lon="-8.1159830">
        <ele>522.9</ele>
        <time>2019-08-18T06:30:55Z</time>
      </trkpt>
      <trkpt lat="42.5038360" lon="-8.1160510">
        <ele>522.8</ele>
        <time>2019-08-18T06:30:56Z</time>
      </trkpt>
      <trkpt lat="42.5038930" lon="-8.1161220">
        <ele>522.7</ele>
        <time>2019-08-18T06:30:57Z</time>
      </trkpt>
      <trkpt lat="42.5039500" lon="-8.1161900">
        <ele>522.6</ele>
        <time>2019-08-18T06:30:58Z</time>
      </trkpt>
      <trkpt lat="42.5040070" lon="-8.1162550">
        <ele>522.6</ele>
        <time>2019-08-18T06:30:59Z</time>
      </trkpt>
      <trkpt lat="42.5040630" lon="-8.1163180">
        <ele>522.6</ele>
        <time>2019-08-18T06:31:00Z</time>
      </trkpt>
      <trkpt lat="42.5041190" lon="-8.1163790">
        <ele>522.7</ele>
        <time>2019-08-18T06:31:01Z</time>
      </trkpt>
      <trkpt lat="42.5041750" lon="-8.1164400">
        <ele>522.7</ele>
        <time>2019-08-18T06:31:02Z</time>
      </trkpt>
      <trkpt lat="42.5042320" lon="-8.1164980">
        <ele>522.8</ele>
        <time>2019-08-18T06:31:03Z</time>
      </trkpt>
      <trkpt lat="42.5042910" lon="-8.1165540">
        <ele>522.9</ele>
        <time>2019-08-18T06:31:04Z</time>
      </trkpt>
      <trkpt lat="42.5043520" lon="-8.1166050">
        <ele>523.0</ele>
        <time>2019-08-18T06:31:05Z</time>
      </trkpt>
      <trkpt lat="42.5044150" lon="-8.1166520">
        <ele>523.1</ele>
        <time>2019-08-18T06:31:06Z</time>
      </trkpt>
      <trkpt lat="42.5044800" lon="-8.1166900">
        <ele>523.1</ele>
        <time>2019-08-18T06:31:07Z</time>
      </trkpt>
      <trkpt lat="42.5045450" lon="-8.1167170">
        <ele>523.2</ele>
        <time>2019-08-18T06:31:08Z</time>
      </trkpt>
      <trkpt lat="42.5046090" lon="-8.1167300">
        <ele>523.3</ele>
        <time>2019-08-18T06:31:09Z</time>
      </trkpt>
      <trkpt lat="42.5046710" lon="-8.1167310">
        <ele>523.4</ele>
        <time>2019-08-18T06:31:10Z</time>
      </trkpt>
      <trkpt lat="42.5047330" lon="-8.1167230">
        <ele>523.4</ele>
        <time>2019-08-18T06:31:11Z</time>
      </trkpt>
      <trkpt lat="42.5047930" lon="-8.1167090">
        <ele>523.3</ele>
        <time>2019-08-18T06:31:12Z</time>
      </trkpt>
      <trkpt lat="42.5048540" lon="-8.1166910">
        <ele>523.3</ele>
        <time>2019-08-18T06:31:13Z</time>
      </trkpt>
      <trkpt lat="42.5049140" lon="-8.1166710">
        <ele>523.3</ele>
        <time>2019-08-18T06:31:14Z</time>
      </trkpt>
      <trkpt lat="42.5049740" lon="-8.1166490">
        <ele>523.2</ele>
        <time>2019-08-18T06:31:15Z</time>
      </trkpt>
      <trkpt lat="42.5050640" lon="-8.1166160">
        <ele>523.0</ele>
        <time>2019-08-18T06:31:16Z</time>
      </trkpt>
      <trkpt lat="42.5050940" lon="-8.1166040">
        <ele>523.0</ele>
        <time>2019-08-18T06:31:17Z</time>
      </trkpt>
      <trkpt lat="42.5051530" lon="-8.1165810">
        <ele>522.7</ele>
        <time>2019-08-18T06:31:18Z</time>
      </trkpt>
      <trkpt lat="42.5052130" lon="-8.1165600">
        <ele>522.5</ele>
        <time>2019-08-18T06:31:19Z</time>
      </trkpt>
      <trkpt lat="42.5052730" lon="-8.1165410">
        <ele>522.3</ele>
        <time>2019-08-18T06:31:20Z</time>
      </trkpt>
      <trkpt lat="42.5053350" lon="-8.1165230">
        <ele>522.0</ele>
        <time>2019-08-18T06:31:21Z</time>
      </trkpt>
      <trkpt lat="42.5053970" lon="-8.1165090">
        <ele>521.6</ele>
        <time>2019-08-18T06:31:22Z</time>
      </trkpt>
      <trkpt lat="42.5054610" lon="-8.1164990">
        <ele>521.3</ele>
        <time>2019-08-18T06:31:23Z</time>
      </trkpt>
      <trkpt lat="42.5055260" lon="-8.1164920">
        <ele>520.8</ele>
        <time>2019-08-18T06:31:24Z</time>
      </trkpt>
      <trkpt lat="42.5055920" lon="-8.1164890">
        <ele>520.4</ele>
        <time>2019-08-18T06:31:25Z</time>
      </trkpt>
      <trkpt lat="42.5056590" lon="-8.1164900">
        <ele>519.9</ele>
        <time>2019-08-18T06:31:26Z</time>
      </trkpt>
      <trkpt lat="42.5057280" lon="-8.1164940">
        <ele>519.4</ele>
        <time>2019-08-18T06:31:27Z</time>
      </trkpt>
      <trkpt lat="42.5057970" lon="-8.1165010">
        <ele>518.9</ele>
        <time>2019-08-18T06:31:28Z</time>
      </trkpt>
      <trkpt lat="42.5058680" lon="-8.1165120">
        <ele>518.4</ele>
        <time>2019-08-18T06:31:29Z</time>
      </trkpt>
      <trkpt lat="42.5059390" lon="-8.1165270">
        <ele>517.8</ele>
        <time>2019-08-18T06:31:30Z</time>
      </trkpt>
      <trkpt lat="42.5060110" lon="-8.1165440">
        <ele>517.4</ele>
        <time>2019-08-18T06:31:31Z</time>
      </trkpt>
      <trkpt lat="42.5060840" lon="-8.1165640">
        <ele>517.0</ele>
        <time>2019-08-18T06:31:32Z</time>
      </trkpt>
      <trkpt lat="42.5061580" lon="-8.1165860">
        <ele>516.5</ele>
        <time>2019-08-18T06:31:33Z</time>
      </trkpt>
      <trkpt lat="42.5062700" lon="-8.1166170">
        <ele>515.9</ele>
        <time>2019-08-18T06:31:34Z</time>
      </trkpt>
      <trkpt lat="42.5063070" lon="-8.1166270">
        <ele>515.8</ele>
        <time>2019-08-18T06:31:35Z</time>
      </trkpt>
      <trkpt lat="42.5063820" lon="-8.1166470">
        <ele>515.5</ele>
        <time>2019-08-18T06:31:36Z</time>
      </trkpt>
      <trkpt lat="42.5064560" lon="-8.1166670">
        <ele>515.2</ele>
        <time>2019-08-18T06:31:37Z</time>
      </trkpt>
      <trkpt lat="42.5065290" lon="-8.1166860">
        <ele>514.9</ele>
        <time>2019-08-18T06:31:38Z</time>
      </trkpt>
      <trkpt lat="42.5066010" lon="-8.1167040">
        <ele>514.7</ele>
        <time>2019-08-18T06:31:39Z</time>
      </trkpt>
      <trkpt lat="42.5066730" lon="-8.1167220">
        <ele>514.6</ele>
        <time>2019-08-18T06:31:40Z</time>
      </trkpt>
      <trkpt lat="42.5067430" lon="-8.1167400">
        <ele>514.5</ele>
        <time>2019-08-18T06:31:41Z</time>
      </trkpt>
      <trkpt lat="42.5068120" lon="-8.1167580">
        <ele>514.4</ele>
        <time>2019-08-18T06:31:42Z</time>
      </trkpt>
      <trkpt lat="42.5068810" lon="-8.1167750">
        <ele>514.3</ele>
        <time>2019-08-18T06:31:43Z</time>
      </trkpt>
      <trkpt lat="42.5069480" lon="-8.1167920">
        <ele>514.2</ele>
        <time>2019-08-18T06:31:44Z</time>
      </trkpt>
      <trkpt lat="42.5070150" lon="-8.1168090">
        <ele>514.3</ele>
        <time>2019-08-18T06:31:45Z</time>
      </trkpt>
      <trkpt lat="42.5070810" lon="-8.1168250">
        <ele>514.3</ele>
        <time>2019-08-18T06:31:46Z</time>
      </trkpt>
      <trkpt lat="42.5071460" lon="-8.1168410">
        <ele>514.4</ele>
        <time>2019-08-18T06:31:47Z</time>
      </trkpt>
      <trkpt lat="42.5072110" lon="-8.1168570">
        <ele>514.4</ele>
        <time>2019-08-18T06:31:48Z</time>
      </trkpt>
      <trkpt lat="42.5072750" lon="-8.1168730">
        <ele>514.6</ele>
        <time>2019-08-18T06:31:49Z</time>
      </trkpt>
      <trkpt lat="42.5073380" lon="-8.1168890">
        <ele>514.7</ele>
        <time>2019-08-18T06:31:50Z</time>
      </trkpt>
      <trkpt lat="42.5074000" lon="-8.1169050">
        <ele>514.8</ele>
        <time>2019-08-18T06:31:51Z</time>
      </trkpt>
      <trkpt lat="42.5074620" lon="-8.1169200">
        <ele>515.0</ele>
        <time>2019-08-18T06:31:52Z</time>
      </trkpt>
      <trkpt lat="42.5075230" lon="-8.1169350">
        <ele>515.1</ele>
        <time>2019-08-18T06:31:53Z</time>
      </trkpt>
      <trkpt lat="42.5075830" lon="-8.1169500">
        <ele>515.4</ele>
        <time>2019-08-18T06:31:54Z</time>
      </trkpt>
      <trkpt lat="42.5076410" lon="-8.1169650">
        <ele>515.6</ele>
        <time>2019-08-18T06:31:55Z</time>
      </trkpt>
      <trkpt lat="42.5076980" lon="-8.1169790">
        <ele>515.8</ele>
        <time>2019-08-18T06:31:56Z</time>
      </trkpt>
      <trkpt lat="42.5077530" lon="-8.1169920">
        <ele>516.0</ele>
        <time>2019-08-18T06:31:57Z</time>
      </trkpt>
      <trkpt lat="42.5078060" lon="-8.1170050">
        <ele>516.2</ele>
        <time>2019-08-18T06:31:58Z</time>
      </trkpt>
      <trkpt lat="42.5078570" lon="-8.1170170">
        <ele>516.4</ele>
        <time>2019-08-18T06:31:59Z</time>
      </trkpt>
      <trkpt lat="42.5079060" lon="-8.1170290">
        <ele>516.6</ele>
        <time>2019-08-18T06:32:00Z</time>
      </trkpt>
      <trkpt lat="42.5079520" lon="-8.1170400">
        <ele>516.7</ele>
        <time>2019-08-18T06:32:01Z</time>
      </trkpt>
      <trkpt lat="42.5079960" lon="-8.1170510">
        <ele>516.9</ele>
        <time>2019-08-18T06:32:02Z</time>
      </trkpt>
      <trkpt lat="42.5080390" lon="-8.1170610">
        <ele>517.1</ele>
        <time>2019-08-18T06:32:03Z</time>
      </trkpt>
      <trkpt lat="42.5080810" lon="-8.1170710">
        <ele>517.2</ele>
        <time>2019-08-18T06:32:04Z</time>
      </trkpt>
      <trkpt lat="42.5081220" lon="-8.1170810">
        <ele>517.4</ele>
        <time>2019-08-18T06:32:05Z</time>
      </trkpt>
      <trkpt lat="42.5081620" lon="-8.1170910">
        <ele>517.5</ele>
        <time>2019-08-18T06:32:06Z</time>
      </trkpt>
      <trkpt lat="42.5082030" lon="-8.1171020">
        <ele>517.7</ele>
        <time>2019-08-18T06:32:07Z</time>
      </trkpt>
      <trkpt lat="42.5082430" lon="-8.1171130">
        <ele>517.8</ele>
        <time>2019-08-18T06:32:08Z</time>
      </trkpt>
      <trkpt lat="42.5082830" lon="-8.1171240">
        <ele>517.9</ele>
        <time>2019-08-18T06:32:09Z</time>
      </trkpt>
      <trkpt lat="42.5083500" lon="-8.1171440">
        <ele>518.1</ele>
        <time>2019-08-18T06:32:10Z</time>
      </trkpt>
      <trkpt lat="42.5083770" lon="-8.1171510">
        <ele>518.2</ele>
        <time>2019-08-18T06:32:11Z</time>
      </trkpt>
      <trkpt lat="42.5084040" lon="-8.1171590">
        <ele>518.3</ele>
        <time>2019-08-18T06:32:12Z</time>
      </trkpt>
      <trkpt lat="42.5084440" lon="-8.1171700">
        <ele>518.4</ele>
        <time>2019-08-18T06:32:13Z</time>
      </trkpt>
      <trkpt lat="42.5084850" lon="-8.1171820">
        <ele>518.6</ele>
        <time>2019-08-18T06:32:14Z</time>
      </trkpt>
      <trkpt lat="42.5085540" lon="-8.1172000">
        <ele>518.8</ele>
        <time>2019-08-18T06:32:15Z</time>
      </trkpt>
      <trkpt lat="42.5085810" lon="-8.1172080">
        <ele>518.9</ele>
        <time>2019-08-18T06:32:16Z</time>
      </trkpt>
      <trkpt lat="42.5086090" lon="-8.1172150">
        <ele>518.9</ele>
        <time>2019-08-18T06:32:17Z</time>
      </trkpt>
      <trkpt lat="42.5086500" lon="-8.1172260">
        <ele>519.0</ele>
        <time>2019-08-18T06:32:18Z</time>
      </trkpt>
      <trkpt lat="42.5086920" lon="-8.1172360">
        <ele>519.2</ele>
        <time>2019-08-18T06:32:19Z</time>
      </trkpt>
      <trkpt lat="42.5087340" lon="-8.1172470">
        <ele>519.3</ele>
        <time>2019-08-18T06:32:20Z</time>
      </trkpt>
      <trkpt lat="42.5087750" lon="-8.1172570">
        <ele>519.4</ele>
        <time>2019-08-18T06:32:21Z</time>
      </trkpt>
      <trkpt lat="42.5088170" lon="-8.1172680">
        <ele>519.5</ele>
        <time>2019-08-18T06:32:22Z</time>
      </trkpt>
      <trkpt lat="42.5088590" lon="-8.1172770">
        <ele>519.6</ele>
        <time>2019-08-18T06:32:23Z</time>
      </trkpt>
      <trkpt lat="42.5089010" lon="-8.1172870">
        <ele>519.6</ele>
        <time>2019-08-18T06:32:24Z</time>
      </trkpt>
      <trkpt lat="42.5089430" lon="-8.1172960">
        <ele>519.7</ele>
        <time>2019-08-18T06:32:25Z</time>
      </trkpt>
      <trkpt lat="42.5089850" lon="-8.1173050">
        <ele>519.8</ele>
        <time>2019-08-18T06:32:26Z</time>
      </trkpt>
      <trkpt lat="42.5090270" lon="-8.1173130">
        <ele>519.9</ele>
        <time>2019-08-18T06:32:27Z</time>
      </trkpt>
      <trkpt lat="42.5090690" lon="-8.1173200">
        <ele>519.9</ele>
        <time>2019-08-18T06:32:28Z</time>
      </trkpt>
      <trkpt lat="42.5091110" lon="-8.1173270">
        <ele>519.9</ele>
        <time>2019-08-18T06:32:29Z</time>
      </trkpt>
      <trkpt lat="42.5091540" lon="-8.1173350">
        <ele>519.9</ele>
        <time>2019-08-18T06:32:30Z</time>
      </trkpt>
      <trkpt lat="42.5091960" lon="-8.1173440">
        <ele>519.9</ele>
        <time>2019-08-18T06:32:31Z</time>
      </trkpt>
      <trkpt lat="42.5092390" lon="-8.1173550">
        <ele>519.9</ele>
        <time>2019-08-18T06:32:32Z</time>
      </trkpt>
      <trkpt lat="42.5092830" lon="-8.1173670">
        <ele>519.8</ele>
        <time>2019-08-18T06:32:33Z</time>
      </trkpt>
      <trkpt lat="42.5093270" lon="-8.1173800">
        <ele>519.7</ele>
        <time>2019-08-18T06:32:34Z</time>
      </trkpt>
      <trkpt lat="42.5093710" lon="-8.1173930">
        <ele>519.6</ele>
        <time>2019-08-18T06:32:35Z</time>
      </trkpt>
      <trkpt lat="42.5094140" lon="-8.1174070">
        <ele>519.6</ele>
        <time>2019-08-18T06:32:36Z</time>
      </trkpt>
      <trkpt lat="42.5094560" lon="-8.1174200">
        <ele>519.5</ele>
        <time>2019-08-18T06:32:37Z</time>
      </trkpt>
      <trkpt lat="42.5094970" lon="-8.1174330">
        <ele>519.4</ele>
        <time>2019-08-18T06:32:38Z</time>
      </trkpt>
      <trkpt lat="42.5095380" lon="-8.1174460">
        <ele>519.3</ele>
        <time>2019-08-18T06:32:39Z</time>
      </trkpt>
      <trkpt lat="42.5095790" lon="-8.1174580">
        <ele>519.1</ele>
        <time>2019-08-18T06:32:40Z</time>
      </trkpt>
      <trkpt lat="42.5096210" lon="-8.1174700">
        <ele>519.0</ele>
        <time>2019-08-18T06:32:41Z</time>
      </trkpt>
      <trkpt lat="42.5096630" lon="-8.1174810">
        <ele>518.9</ele>
        <time>2019-08-18T06:32:42Z</time>
      </trkpt>
      <trkpt lat="42.5097070" lon="-8.1174910">
        <ele>518.8</ele>
        <time>2019-08-18T06:32:43Z</time>
      </trkpt>
      <trkpt lat="42.5097520" lon="-8.1175000">
        <ele>518.6</ele>
        <time>2019-08-18T06:32:44Z</time>
      </trkpt>
      <trkpt lat="42.5098000" lon="-8.1175080">
        <ele>518.5</ele>
        <time>2019-08-18T06:32:45Z</time>
      </trkpt>
      <trkpt lat="42.5098500" lon="-8.1175130">
        <ele>518.3</ele>
        <time>2019-08-18T06:32:46Z</time>
      </trkpt>
      <trkpt lat="42.5099000" lon="-8.1175190">
        <ele>518.2</ele>
        <time>2019-08-18T06:32:47Z</time>
      </trkpt>
      <trkpt lat="42.5099530" lon="-8.1175220">
        <ele>518.1</ele>
        <time>2019-08-18T06:32:48Z</time>
      </trkpt>
      <trkpt lat="42.5100090" lon="-8.1175230">
        <ele>518.0</ele>
        <time>2019-08-18T06:32:49Z</time>
      </trkpt>
      <trkpt lat="42.5100670" lon="-8.1175220">
        <ele>517.8</ele>
        <time>2019-08-18T06:32:50Z</time>
      </trkpt>
      <trkpt lat="42.5101280" lon="-8.1175190">
        <ele>517.7</ele>
        <time>2019-08-18T06:32:51Z</time>
      </trkpt>
      <trkpt lat="42.5101900" lon="-8.1175140">
        <ele>517.6</ele>
        <time>2019-08-18T06:32:52Z</time>
      </trkpt>
      <trkpt lat="42.5102540" lon="-8.1175090">
        <ele>517.5</ele>
        <time>2019-08-18T06:32:53Z</time>
      </trkpt>
      <trkpt lat="42.5103190" lon="-8.1175050">
        <ele>517.0</ele>
        <time>2019-08-18T06:32:54Z</time>
      </trkpt>
      <trkpt lat="42.5103850" lon="-8.1175030">
        <ele>516.6</ele>
        <time>2019-08-18T06:32:55Z</time>
      </trkpt>
      <trkpt lat="42.5104510" lon="-8.1175050">
        <ele>516.2</ele>
        <time>2019-08-18T06:32:56Z</time>
      </trkpt>
      <trkpt lat="42.5105160" lon="-8.1175110">
        <ele>515.7</ele>
        <time>2019-08-18T06:32:57Z</time>
      </trkpt>
      <trkpt lat="42.5105810" lon="-8.1175240">
        <ele>515.3</ele>
        <time>2019-08-18T06:32:58Z</time>
      </trkpt>
      <trkpt lat="42.5106440" lon="-8.1175430">
        <ele>514.9</ele>
        <time>2019-08-18T06:32:59Z</time>
      </trkpt>
      <trkpt lat="42.5107060" lon="-8.1175680">
        <ele>514.5</ele>
        <time>2019-08-18T06:33:00Z</time>
      </trkpt>
      <trkpt lat="42.5107660" lon="-8.1175980">
        <ele>514.2</ele>
        <time>2019-08-18T06:33:01Z</time>
      </trkpt>
      <trkpt lat="42.5108250" lon="-8.1176310">
        <ele>514.2</ele>
        <time>2019-08-18T06:33:02Z</time>
      </trkpt>
      <trkpt lat="42.5108820" lon="-8.1176650">
        <ele>514.1</ele>
        <time>2019-08-18T06:33:03Z</time>
      </trkpt>
      <trkpt lat="42.5109360" lon="-8.1177010">
        <ele>514.1</ele>
        <time>2019-08-18T06:33:04Z</time>
      </trkpt>
      <trkpt lat="42.5109890" lon="-8.1177350">
        <ele>514.1</ele>
        <time>2019-08-18T06:33:05Z</time>
      </trkpt>
      <trkpt lat="42.5110400" lon="-8.1177680">
        <ele>514.1</ele>
        <time>2019-08-18T06:33:06Z</time>
      </trkpt>
      <trkpt lat="42.5110880" lon="-8.1177990">
        <ele>514.0</ele>
        <time>2019-08-18T06:33:07Z</time>
      </trkpt>
      <trkpt lat="42.5111360" lon="-8.1178290">
        <ele>514.0</ele>
        <time>2019-08-18T06:33:08Z</time>
      </trkpt>
      <trkpt lat="42.5112050" lon="-8.1178720">
        <ele>514.0</ele>
        <time>2019-08-18T06:33:09Z</time>
      </trkpt>
      <trkpt lat="42.5112270" lon="-8.1178860">
        <ele>514.0</ele>
        <time>2019-08-18T06:33:10Z</time>
      </trkpt>
      <trkpt lat="42.5112720" lon="-8.1179150">
        <ele>514.0</ele>
        <time>2019-08-18T06:33:11Z</time>
      </trkpt>
      <trkpt lat="42.5113170" lon="-8.1179430">
        <ele>514.0</ele>
        <time>2019-08-18T06:33:12Z</time>
      </trkpt>
      <trkpt lat="42.5113620" lon="-8.1179710">
        <ele>513.9</ele>
        <time>2019-08-18T06:33:13Z</time>
      </trkpt>
      <trkpt lat="42.5114070" lon="-8.1179990">
        <ele>513.9</ele>
        <time>2019-08-18T06:33:14Z</time>
      </trkpt>
      <trkpt lat="42.5114510" lon="-8.1180270">
        <ele>513.9</ele>
        <time>2019-08-18T06:33:15Z</time>
      </trkpt>
      <trkpt lat="42.5114960" lon="-8.1180530">
        <ele>513.8</ele>
        <time>2019-08-18T06:33:16Z</time>
      </trkpt>
      <trkpt lat="42.5115390" lon="-8.1180760">
        <ele>513.8</ele>
        <time>2019-08-18T06:33:17Z</time>
      </trkpt>
      <trkpt lat="42.5115810" lon="-8.1180970">
        <ele>513.8</ele>
        <time>2019-08-18T06:33:18Z</time>
      </trkpt>
      <trkpt lat="42.5116220" lon="-8.1181140">
        <ele>513.7</ele>
        <time>2019-08-18T06:33:19Z</time>
      </trkpt>
      <trkpt lat="42.5116610" lon="-8.1181270">
        <ele>513.7</ele>
        <time>2019-08-18T06:33:20Z</time>
      </trkpt>
      <trkpt lat="42.5116990" lon="-8.1181360">
        <ele>513.7</ele>
        <time>2019-08-18T06:33:21Z</time>
      </trkpt>
      <trkpt lat="42.5117370" lon="-8.1181430">
        <ele>513.6</ele>
        <time>2019-08-18T06:33:22Z</time>
      </trkpt>
      <trkpt lat="42.5117730" lon="-8.1181470">
        <ele>513.6</ele>
        <time>2019-08-18T06:33:23Z</time>
      </trkpt>
      <trkpt lat="42.5118100" lon="-8.1181500">
        <ele>513.6</ele>
        <time>2019-08-18T06:33:24Z</time>
      </trkpt>
      <trkpt lat="42.5118470" lon="-8.1181520">
        <ele>513.5</ele>
        <time>2019-08-18T06:33:25Z</time>
      </trkpt>
      <trkpt lat="42.5118850" lon="-8.1181540">
        <ele>513.5</ele>
        <time>2019-08-18T06:33:26Z</time>
      </trkpt>
      <trkpt lat="42.5119240" lon="-8.1181570">
        <ele>513.4</ele>
        <time>2019-08-18T06:33:27Z</time>
      </trkpt>
      <trkpt lat="42.5119650" lon="-8.1181610">
        <ele>513.4</ele>
        <time>2019-08-18T06:33:28Z</time>
      </trkpt>
      <trkpt lat="42.5120050" lon="-8.1181660">
        <ele>513.3</ele>
        <time>2019-08-18T06:33:29Z</time>
      </trkpt>
      <trkpt lat="42.5120460" lon="-8.1181730">
        <ele>513.2</ele>
        <time>2019-08-18T06:33:30Z</time>
      </trkpt>
      <trkpt lat="42.5120860" lon="-8.1181810">
        <ele>513.2</ele>
        <time>2019-08-18T06:33:31Z</time>
      </trkpt>
      <trkpt lat="42.5121230" lon="-8.1181900">
        <ele>513.3</ele>
        <time>2019-08-18T06:33:32Z</time>
      </trkpt>
      <trkpt lat="42.5121580" lon="-8.1182010">
        <ele>513.3</ele>
        <time>2019-08-18T06:33:33Z</time>
      </trkpt>
      <trkpt lat="42.5121900" lon="-8.1182140">
        <ele>513.4</ele>
        <time>2019-08-18T06:33:34Z</time>
      </trkpt>
      <trkpt lat="42.5122160" lon="-8.1182280">
        <ele>513.0</ele>
        <time>2019-08-18T06:33:35Z</time>
      </trkpt>
      <trkpt lat="42.5122390" lon="-8.1182430">
        <ele>512.7</ele>
        <time>2019-08-18T06:33:36Z</time>
      </trkpt>
      <trkpt lat="42.5122580" lon="-8.1182570">
        <ele>512.5</ele>
        <time>2019-08-18T06:33:37Z</time>
      </trkpt>
      <trkpt lat="42.5122730" lon="-8.1182700">
        <ele>512.3</ele>
        <time>2019-08-18T06:33:38Z</time>
      </trkpt>
      <trkpt lat="42.5122850" lon="-8.1182800">
        <ele>512.2</ele>
        <time>2019-08-18T06:33:39Z</time>
      </trkpt>
      <trkpt lat="42.5122950" lon="-8.1182860">
        <ele>512.1</ele>
        <time>2019-08-18T06:33:40Z</time>
      </trkpt>
      <trkpt lat="42.5123020" lon="-8.1182880">
        <ele>512.0</ele>
        <time>2019-08-18T06:33:41Z</time>
      </trkpt>
      <trkpt lat="42.5123060" lon="-8.1182860">
        <ele>512.0</ele>
        <time>2019-08-18T06:33:42Z</time>
      </trkpt>
      <trkpt lat="42.5123160" lon="-8.1182960">
        <ele>511.9</ele>
        <time>2019-08-18T06:33:43Z</time>
      </trkpt>
      <trkpt lat="42.5123230" lon="-8.1183100">
        <ele>511.8</ele>
        <time>2019-08-18T06:33:44Z</time>
      </trkpt>
      <trkpt lat="42.5123290" lon="-8.1183250">
        <ele>511.7</ele>
        <time>2019-08-18T06:33:45Z</time>
      </trkpt>
      <trkpt lat="42.5123360" lon="-8.1183390">
        <ele>511.6</ele>
        <time>2019-08-18T06:33:46Z</time>
      </trkpt>
      <trkpt lat="42.5123420" lon="-8.1183540">
        <ele>511.5</ele>
        <time>2019-08-18T06:33:47Z</time>
      </trkpt>
      <trkpt lat="42.5123480" lon="-8.1183690">
        <ele>511.5</ele>
        <time>2019-08-18T06:33:48Z</time>
      </trkpt>
      <trkpt lat="42.5123550" lon="-8.1183830">
        <ele>511.4</ele>
        <time>2019-08-18T06:34:25Z</time>
      </trkpt>
      <trkpt lat="42.5123610" lon="-8.1183980">
        <ele>511.3</ele>
        <time>2019-08-18T06:34:26Z</time>
      </trkpt>
      <trkpt lat="42.5123830" lon="-8.1184760">
        <ele>511.2</ele>
        <time>2019-08-18T06:34:27Z</time>
      </trkpt>
      <trkpt lat="42.5124100" lon="-8.1185580">
        <ele>511.2</ele>
        <time>2019-08-18T06:34:28Z</time>
      </trkpt>
      <trkpt lat="42.5124380" lon="-8.1186400">
        <ele>511.3</ele>
        <time>2019-08-18T06:34:29Z</time>
      </trkpt>
      <trkpt lat="42.5124860" lon="-8.1187800">
        <ele>511.5</ele>
        <time>2019-08-18T06:34:30Z</time>
      </trkpt>
      <trkpt lat="42.5125060" lon="-8.1188370">
        <ele>511.6</ele>
        <time>2019-08-18T06:34:31Z</time>
      </trkpt>
      <trkpt lat="42.5125250" lon="-8.1188950">
        <ele>511.4</ele>
        <time>2019-08-18T06:34:32Z</time>
      </trkpt>
      <trkpt lat="42.5125530" lon="-8.1189890">
        <ele>511.2</ele>
        <time>2019-08-18T06:34:33Z</time>
      </trkpt>
      <trkpt lat="42.5125780" lon="-8.1190870">
        <ele>511.0</ele>
        <time>2019-08-18T06:34:34Z</time>
      </trkpt>
      <trkpt lat="42.5126030" lon="-8.1191890">
        <ele>510.8</ele>
        <time>2019-08-18T06:34:35Z</time>
      </trkpt>
      <trkpt lat="42.5126410" lon="-8.1193600">
        <ele>509.9</ele>
        <time>2019-08-18T06:34:36Z</time>
      </trkpt>
      <trkpt lat="42.5126570" lon="-8.1194290">
        <ele>509.7</ele>
        <time>2019-08-18T06:34:37Z</time>
      </trkpt>
      <trkpt lat="42.5126720" lon="-8.1194970">
        <ele>509.5</ele>
        <time>2019-08-18T06:34:38Z</time>
      </trkpt>
      <trkpt lat="42.5126950" lon="-8.1195950">
        <ele>509.2</ele>
        <time>2019-08-18T06:34:39Z</time>
      </trkpt>
      <trkpt lat="42.5127180" lon="-8.1196870">
        <ele>509.0</ele>
        <time>2019-08-18T06:34:40Z</time>
      </trkpt>
      <trkpt lat="42.5127410" lon="-8.1197800">
        <ele>508.9</ele>
        <time>2019-08-18T06:34:41Z</time>
      </trkpt>
      <trkpt lat="42.5127630" lon="-8.1198660">
        <ele>508.9</ele>
        <time>2019-08-18T06:34:42Z</time>
      </trkpt>
      <trkpt lat="42.5127840" lon="-8.1199490">
        <ele>508.9</ele>
        <time>2019-08-18T06:34:43Z</time>
      </trkpt>
      <trkpt lat="42.5128030" lon="-8.1200280">
        <ele>509.0</ele>
        <time>2019-08-18T06:34:44Z</time>
      </trkpt>
      <trkpt lat="42.5128220" lon="-8.1201040">
        <ele>509.1</ele>
        <time>2019-08-18T06:34:45Z</time>
      </trkpt>
      <trkpt lat="42.5128420" lon="-8.1201760">
        <ele>509.2</ele>
        <time>2019-08-18T06:34:46Z</time>
      </trkpt>
      <trkpt lat="42.5128650" lon="-8.1202440">
        <ele>509.3</ele>
        <time>2019-08-18T06:34:47Z</time>
      </trkpt>
      <trkpt lat="42.5128910" lon="-8.1203070">
        <ele>509.2</ele>
        <time>2019-08-18T06:34:48Z</time>
      </trkpt>
      <trkpt lat="42.5129190" lon="-8.1203670">
        <ele>509.0</ele>
        <time>2019-08-18T06:34:49Z</time>
      </trkpt>
      <trkpt lat="42.5129510" lon="-8.1204230">
        <ele>508.9</ele>
        <time>2019-08-18T06:34:50Z</time>
      </trkpt>
      <trkpt lat="42.5129840" lon="-8.1204740">
        <ele>508.7</ele>
        <time>2019-08-18T06:34:51Z</time>
      </trkpt>
      <trkpt lat="42.5130200" lon="-8.1205200">
        <ele>508.5</ele>
        <time>2019-08-18T06:34:52Z</time>
      </trkpt>
      <trkpt lat="42.5130550" lon="-8.1205570">
        <ele>508.4</ele>
        <time>2019-08-18T06:34:53Z</time>
      </trkpt>
      <trkpt lat="42.5130900" lon="-8.1205830">
        <ele>508.3</ele>
        <time>2019-08-18T06:34:54Z</time>
      </trkpt>
      <trkpt lat="42.5131240" lon="-8.1206010">
        <ele>508.2</ele>
        <time>2019-08-18T06:34:55Z</time>
      </trkpt>
      <trkpt lat="42.5131580" lon="-8.1206140">
        <ele>508.0</ele>
        <time>2019-08-18T06:34:56Z</time>
      </trkpt>
      <trkpt lat="42.5131900" lon="-8.1206240">
        <ele>508.0</ele>
        <time>2019-08-18T06:34:57Z</time>
      </trkpt>
      <trkpt lat="42.5132210" lon="-8.1206350">
        <ele>508.1</ele>
        <time>2019-08-18T06:34:58Z</time>
      </trkpt>
      <trkpt lat="42.5132520" lon="-8.1206470">
        <ele>508.2</ele>
        <time>2019-08-18T06:34:59Z</time>
      </trkpt>
      <trkpt lat="42.5132820" lon="-8.1206580">
        <ele>508.4</ele>
        <time>2019-08-18T06:35:00Z</time>
      </trkpt>
      <trkpt lat="42.5133120" lon="-8.1206680">
        <ele>508.5</ele>
        <time>2019-08-18T06:35:01Z</time>
      </trkpt>
      <trkpt lat="42.5133420" lon="-8.1206770">
        <ele>508.7</ele>
        <time>2019-08-18T06:35:02Z</time>
      </trkpt>
      <trkpt lat="42.5133720" lon="-8.1206850">
        <ele>509.0</ele>
        <time>2019-08-18T06:35:03Z</time>
      </trkpt>
      <trkpt lat="42.5134010" lon="-8.1206940">
        <ele>509.3</ele>
        <time>2019-08-18T06:35:04Z</time>
      </trkpt>
      <trkpt lat="42.5134300" lon="-8.1207020">
        <ele>509.6</ele>
        <time>2019-08-18T06:35:05Z</time>
      </trkpt>
      <trkpt lat="42.5134580" lon="-8.1207120">
        <ele>509.9</ele>
        <time>2019-08-18T06:35:06Z</time>
      </trkpt>
      <trkpt lat="42.5134850" lon="-8.1207210">
        <ele>510.2</ele>
        <time>2019-08-18T06:35:07Z</time>
      </trkpt>
      <trkpt lat="42.5135100" lon="-8.1207280">
        <ele>510.4</ele>
        <time>2019-08-18T06:35:08Z</time>
      </trkpt>
      <trkpt lat="42.5135330" lon="-8.1207320">
        <ele>510.7</ele>
        <time>2019-08-18T06:35:09Z</time>
      </trkpt>
      <trkpt lat="42.5135540" lon="-8.1207340">
        <ele>510.9</ele>
        <time>2019-08-18T06:35:10Z</time>
      </trkpt>
      <trkpt lat="42.5135750" lon="-8.1207380">
        <ele>511.1</ele>
        <time>2019-08-18T06:35:11Z</time>
      </trkpt>
      <trkpt lat="42.5135960" lon="-8.1207430">
        <ele>511.2</ele>
        <time>2019-08-18T06:35:12Z</time>
      </trkpt>
      <trkpt lat="42.5136180" lon="-8.1207540">
        <ele>511.2</ele>
        <time>2019-08-18T06:35:13Z</time>
      </trkpt>
      <trkpt lat="42.5136400" lon="-8.1207690">
        <ele>511.2</ele>
        <time>2019-08-18T06:35:14Z</time>
      </trkpt>
      <trkpt lat="42.5136600" lon="-8.1207890">
        <ele>511.5</ele>
        <time>2019-08-18T06:35:15Z</time>
      </trkpt>
      <trkpt lat="42.5136740" lon="-8.1208140">
        <ele>511.8</ele>
        <time>2019-08-18T06:35:16Z</time>
      </trkpt>
      <trkpt lat="42.5136820" lon="-8.1208440">
        <ele>512.2</ele>
        <time>2019-08-18T06:35:17Z</time>
      </trkpt>
      <trkpt lat="42.5136870" lon="-8.1208770">
        <ele>512.5</ele>
        <time>2019-08-18T06:35:18Z</time>
      </trkpt>
      <trkpt lat="42.5136920" lon="-8.1209090">
        <ele>512.8</ele>
        <time>2019-08-18T06:35:19Z</time>
      </trkpt>
      <trkpt lat="42.5137030" lon="-8.1209390">
        <ele>513.5</ele>
        <time>2019-08-18T06:35:20Z</time>
      </trkpt>
      <trkpt lat="42.5137200" lon="-8.1209630">
        <ele>513.7</ele>
        <time>2019-08-18T06:35:21Z</time>
      </trkpt>
      <trkpt lat="42.5137430" lon="-8.1209860">
        <ele>514.0</ele>
        <time>2019-08-18T06:35:22Z</time>
      </trkpt>
      <trkpt lat="42.5137670" lon="-8.1210120">
        <ele>514.3</ele>
        <time>2019-08-18T06:35:23Z</time>
      </trkpt>
      <trkpt lat="42.5137880" lon="-8.1210430">
        <ele>514.6</ele>
        <time>2019-08-18T06:35:24Z</time>
      </trkpt>
      <trkpt lat="42.5138060" lon="-8.1210780">
        <ele>514.9</ele>
        <time>2019-08-18T06:35:25Z</time>
      </trkpt>
      <trkpt lat="42.5138220" lon="-8.1211160">
        <ele>515.3</ele>
        <time>2019-08-18T06:35:26Z</time>
      </trkpt>
      <trkpt lat="42.5138340" lon="-8.1211550">
        <ele>515.6</ele>
        <time>2019-08-18T06:35:27Z</time>
      </trkpt>
      <trkpt lat="42.5138430" lon="-8.1211920">
        <ele>515.9</ele>
        <time>2019-08-18T06:35:28Z</time>
      </trkpt>
      <trkpt lat="42.5138500" lon="-8.1212280">
        <ele>516.1</ele>
        <time>2019-08-18T06:35:29Z</time>
      </trkpt>
      <trkpt lat="42.5138580" lon="-8.1212620">
        <ele>516.3</ele>
        <time>2019-08-18T06:35:30Z</time>
      </trkpt>
      <trkpt lat="42.5138680" lon="-8.1212960">
        <ele>516.5</ele>
        <time>2019-08-18T06:35:31Z</time>
      </trkpt>
      <trkpt lat="42.5138800" lon="-8.1213280">
        <ele>516.8</ele>
        <time>2019-08-18T06:35:32Z</time>
      </trkpt>
      <trkpt lat="42.5138960" lon="-8.1213590">
        <ele>517.1</ele>
        <time>2019-08-18T06:35:33Z</time>
      </trkpt>
      <trkpt lat="42.5139140" lon="-8.1213890">
        <ele>517.4</ele>
        <time>2019-08-18T06:35:34Z</time>
      </trkpt>
      <trkpt lat="42.5139340" lon="-8.1214190">
        <ele>517.7</ele>
        <time>2019-08-18T06:35:35Z</time>
      </trkpt>
      <trkpt lat="42.5139550" lon="-8.1214480">
        <ele>517.9</ele>
        <time>2019-08-18T06:35:36Z</time>
      </trkpt>
      <trkpt lat="42.5139760" lon="-8.1214770">
        <ele>518.1</ele>
        <time>2019-08-18T06:35:37Z</time>
      </trkpt>
      <trkpt lat="42.5139980" lon="-8.1215050">
        <ele>518.3</ele>
        <time>2019-08-18T06:35:38Z</time>
      </trkpt>
      <trkpt lat="42.5140180" lon="-8.1215330">
        <ele>518.5</ele>
        <time>2019-08-18T06:35:39Z</time>
      </trkpt>
      <trkpt lat="42.5140380" lon="-8.1215620">
        <ele>518.6</ele>
        <time>2019-08-18T06:35:40Z</time>
      </trkpt>
      <trkpt lat="42.5140580" lon="-8.1215910">
        <ele>518.7</ele>
        <time>2019-08-18T06:35:41Z</time>
      </trkpt>
      <trkpt lat="42.5140780" lon="-8.1216200">
        <ele>518.8</ele>
        <time>2019-08-18T06:35:42Z</time>
      </trkpt>
      <trkpt lat="42.5140990" lon="-8.1216500">
        <ele>518.9</ele>
        <time>2019-08-18T06:35:43Z</time>
      </trkpt>
      <trkpt lat="42.5141190" lon="-8.1216800">
        <ele>519.0</ele>
        <time>2019-08-18T06:35:44Z</time>
      </trkpt>
      <trkpt lat="42.5141410" lon="-8.1217120">
        <ele>519.2</ele>
        <time>2019-08-18T06:35:45Z</time>
      </trkpt>
      <trkpt lat="42.5141640" lon="-8.1217440">
        <ele>519.4</ele>
        <time>2019-08-18T06:35:46Z</time>
      </trkpt>
      <trkpt lat="42.5141880" lon="-8.1217770">
        <ele>519.6</ele>
        <time>2019-08-18T06:35:47Z</time>
      </trkpt>
      <trkpt lat="42.5142120" lon="-8.1218090">
        <ele>519.7</ele>
        <time>2019-08-18T06:35:48Z</time>
      </trkpt>
      <trkpt lat="42.5142370" lon="-8.1218400">
        <ele>519.8</ele>
        <time>2019-08-18T06:35:49Z</time>
      </trkpt>
      <trkpt lat="42.5142620" lon="-8.1218690">
        <ele>520.0</ele>
        <time>2019-08-18T06:35:50Z</time>
      </trkpt>
      <trkpt lat="42.5142860" lon="-8.1218960">
        <ele>520.1</ele>
        <time>2019-08-18T06:35:51Z</time>
      </trkpt>
      <trkpt lat="42.5143090" lon="-8.1219190">
        <ele>520.2</ele>
        <time>2019-08-18T06:35:52Z</time>
      </trkpt>
      <trkpt lat="42.5143290" lon="-8.1219390">
        <ele>520.3</ele>
        <time>2019-08-18T06:35:53Z</time>
      </trkpt>
      <trkpt lat="42.5143480" lon="-8.1219580">
        <ele>520.4</ele>
        <time>2019-08-18T06:35:54Z</time>
      </trkpt>
      <trkpt lat="42.5143660" lon="-8.1219760">
        <ele>520.5</ele>
        <time>2019-08-18T06:35:55Z</time>
      </trkpt>
      <trkpt lat="42.5143860" lon="-8.1219960">
        <ele>520.6</ele>
        <time>2019-08-18T06:35:56Z</time>
      </trkpt>
      <trkpt lat="42.5144080" lon="-8.1220200">
        <ele>520.8</ele>
        <time>2019-08-18T06:35:57Z</time>
      </trkpt>
      <trkpt lat="42.5144320" lon="-8.1220470">
        <ele>520.9</ele>
        <time>2019-08-18T06:35:58Z</time>
      </trkpt>
      <trkpt lat="42.5144570" lon="-8.1220770">
        <ele>521.1</ele>
        <time>2019-08-18T06:35:59Z</time>
      </trkpt>
      <trkpt lat="42.5144820" lon="-8.1221090">
        <ele>521.3</ele>
        <time>2019-08-18T06:36:00Z</time>
      </trkpt>
      <trkpt lat="42.5145070" lon="-8.1221420">
        <ele>521.5</ele>
        <time>2019-08-18T06:36:01Z</time>
      </trkpt>
      <trkpt lat="42.5145330" lon="-8.1221750">
        <ele>521.7</ele>
        <time>2019-08-18T06:36:02Z</time>
      </trkpt>
      <trkpt lat="42.5145580" lon="-8.1222100">
        <ele>521.9</ele>
        <time>2019-08-18T06:36:03Z</time>
      </trkpt>
      <trkpt lat="42.5145840" lon="-8.1222450">
        <ele>522.2</ele>
        <time>2019-08-18T06:36:04Z</time>
      </trkpt>
      <trkpt lat="42.5146100" lon="-8.1222800">
        <ele>522.4</ele>
        <time>2019-08-18T06:36:05Z</time>
      </trkpt>
      <trkpt lat="42.5146370" lon="-8.1223160">
        <ele>522.8</ele>
        <time>2019-08-18T06:36:06Z</time>
      </trkpt>
      <trkpt lat="42.5146650" lon="-8.1223510">
        <ele>523.2</ele>
        <time>2019-08-18T06:36:07Z</time>
      </trkpt>
      <trkpt lat="42.5146940" lon="-8.1223860">
        <ele>523.5</ele>
        <time>2019-08-18T06:36:08Z</time>
      </trkpt>
      <trkpt lat="42.5147230" lon="-8.1224210">
        <ele>523.8</ele>
        <time>2019-08-18T06:36:09Z</time>
      </trkpt>
      <trkpt lat="42.5147530" lon="-8.1224550">
        <ele>524.2</ele>
        <time>2019-08-18T06:36:10Z</time>
      </trkpt>
      <trkpt lat="42.5147830" lon="-8.1224900">
        <ele>524.5</ele>
        <time>2019-08-18T06:36:11Z</time>
      </trkpt>
      <trkpt lat="42.5148140" lon="-8.1225250">
        <ele>524.9</ele>
        <time>2019-08-18T06:36:12Z</time>
      </trkpt>
      <trkpt lat="42.5148440" lon="-8.1225600">
        <ele>525.2</ele>
        <time>2019-08-18T06:36:13Z</time>
      </trkpt>
      <trkpt lat="42.5148730" lon="-8.1225970">
        <ele>525.6</ele>
        <time>2019-08-18T06:36:14Z</time>
      </trkpt>
      <trkpt lat="42.5149020" lon="-8.1226340">
        <ele>526.0</ele>
        <time>2019-08-18T06:36:15Z</time>
      </trkpt>
      <trkpt lat="42.5149310" lon="-8.1226710">
        <ele>526.5</ele>
        <time>2019-08-18T06:36:16Z</time>
      </trkpt>
      <trkpt lat="42.5149590" lon="-8.1227090">
        <ele>526.9</ele>
        <time>2019-08-18T06:36:17Z</time>
      </trkpt>
      <trkpt lat="42.5149870" lon="-8.1227470">
        <ele>527.3</ele>
        <time>2019-08-18T06:36:18Z</time>
      </trkpt>
      <trkpt lat="42.5150160" lon="-8.1227840">
        <ele>527.5</ele>
        <time>2019-08-18T06:36:19Z</time>
      </trkpt>
      <trkpt lat="42.5150460" lon="-8.1228200">
        <ele>527.8</ele>
        <time>2019-08-18T06:36:20Z</time>
      </trkpt>
      <trkpt lat="42.5150760" lon="-8.1228560">
        <ele>528.0</ele>
        <time>2019-08-18T06:36:21Z</time>
      </trkpt>
      <trkpt lat="42.5151070" lon="-8.1228890">
        <ele>528.3</ele>
        <time>2019-08-18T06:36:22Z</time>
      </trkpt>
      <trkpt lat="42.5151390" lon="-8.1229200">
        <ele>528.5</ele>
        <time>2019-08-18T06:36:23Z</time>
      </trkpt>
      <trkpt lat="42.5151700" lon="-8.1229460">
        <ele>528.8</ele>
        <time>2019-08-18T06:36:24Z</time>
      </trkpt>
      <trkpt lat="42.5152000" lon="-8.1229670">
        <ele>529.1</ele>
        <time>2019-08-18T06:36:25Z</time>
      </trkpt>
      <trkpt lat="42.5152280" lon="-8.1229820">
        <ele>529.4</ele>
        <time>2019-08-18T06:36:26Z</time>
      </trkpt>
      <trkpt lat="42.5152540" lon="-8.1229920">
        <ele>529.8</ele>
        <time>2019-08-18T06:36:27Z</time>
      </trkpt>
      <trkpt lat="42.5152780" lon="-8.1230000">
        <ele>530.1</ele>
        <time>2019-08-18T06:36:28Z</time>
      </trkpt>
      <trkpt lat="42.5153000" lon="-8.1230070">
        <ele>530.3</ele>
        <time>2019-08-18T06:36:29Z</time>
      </trkpt>
      <trkpt lat="42.5153210" lon="-8.1230150">
        <ele>530.6</ele>
        <time>2019-08-18T06:36:30Z</time>
      </trkpt>
      <trkpt lat="42.5153410" lon="-8.1230240">
        <ele>530.9</ele>
        <time>2019-08-18T06:36:31Z</time>
      </trkpt>
      <trkpt lat="42.5153600" lon="-8.1230350">
        <ele>531.2</ele>
        <time>2019-08-18T06:36:32Z</time>
      </trkpt>
      <trkpt lat="42.5153790" lon="-8.1230450">
        <ele>531.6</ele>
        <time>2019-08-18T06:36:33Z</time>
      </trkpt>
      <trkpt lat="42.5153970" lon="-8.1230560">
        <ele>531.9</ele>
        <time>2019-08-18T06:36:34Z</time>
      </trkpt>
      <trkpt lat="42.5154150" lon="-8.1230660">
        <ele>532.2</ele>
        <time>2019-08-18T06:36:35Z</time>
      </trkpt>
      <trkpt lat="42.5154340" lon="-8.1230740">
        <ele>532.5</ele>
        <time>2019-08-18T06:36:36Z</time>
      </trkpt>
      <trkpt lat="42.5154520" lon="-8.1230820">
        <ele>532.7</ele>
        <time>2019-08-18T06:36:37Z</time>
      </trkpt>
      <trkpt lat="42.5154710" lon="-8.1230880">
        <ele>533.0</ele>
        <time>2019-08-18T06:36:38Z</time>
      </trkpt>
      <trkpt lat="42.5154900" lon="-8.1230930">
        <ele>533.2</ele>
        <time>2019-08-18T06:36:39Z</time>
      </trkpt>
      <trkpt lat="42.5155080" lon="-8.1230990">
        <ele>533.5</ele>
        <time>2019-08-18T06:36:40Z</time>
      </trkpt>
      <trkpt lat="42.5155260" lon="-8.1231040">
        <ele>533.8</ele>
        <time>2019-08-18T06:36:41Z</time>
      </trkpt>
      <trkpt lat="42.5155430" lon="-8.1231090">
        <ele>534.1</ele>
        <time>2019-08-18T06:36:42Z</time>
      </trkpt>
      <trkpt lat="42.5155580" lon="-8.1231160">
        <ele>534.4</ele>
        <time>2019-08-18T06:36:43Z</time>
      </trkpt>
      <trkpt lat="42.5155730" lon="-8.1231230">
        <ele>534.6</ele>
        <time>2019-08-18T06:36:44Z</time>
      </trkpt>
      <trkpt lat="42.5155860" lon="-8.1231330">
        <ele>534.9</ele>
        <time>2019-08-18T06:36:45Z</time>
      </trkpt>
      <trkpt lat="42.5155980" lon="-8.1231460">
        <ele>535.1</ele>
        <time>2019-08-18T06:36:46Z</time>
      </trkpt>
      <trkpt lat="42.5156100" lon="-8.1231620">
        <ele>535.3</ele>
        <time>2019-08-18T06:36:47Z</time>
      </trkpt>
      <trkpt lat="42.5156210" lon="-8.1231830">
        <ele>535.6</ele>
        <time>2019-08-18T06:36:48Z</time>
      </trkpt>
      <trkpt lat="42.5156310" lon="-8.1232070">
        <ele>536.7</ele>
        <time>2019-08-18T06:36:49Z</time>
      </trkpt>
      <trkpt lat="42.5156380" lon="-8.1232330">
        <ele>536.9</ele>
        <time>2019-08-18T06:36:50Z</time>
      </trkpt>
      <trkpt lat="42.5156400" lon="-8.1232610">
        <ele>537.0</ele>
        <time>2019-08-18T06:36:51Z</time>
      </trkpt>
      <trkpt lat="42.5156390" lon="-8.1232890">
        <ele>537.2</ele>
        <time>2019-08-18T06:36:52Z</time>
      </trkpt>
      <trkpt lat="42.5156350" lon="-8.1233180">
        <ele>537.5</ele>
        <time>2019-08-18T06:36:53Z</time>
      </trkpt>
      <trkpt lat="42.5156250" lon="-8.1233630">
        <ele>537.8</ele>
        <time>2019-08-18T06:36:54Z</time>
      </trkpt>
      <trkpt lat="42.5156210" lon="-8.1233780">
        <ele>537.9</ele>
        <time>2019-08-18T06:36:55Z</time>
      </trkpt>
      <trkpt lat="42.5156140" lon="-8.1234090">
        <ele>538.2</ele>
        <time>2019-08-18T06:36:56Z</time>
      </trkpt>
      <trkpt lat="42.5156080" lon="-8.1234390">
        <ele>538.4</ele>
        <time>2019-08-18T06:36:57Z</time>
      </trkpt>
      <trkpt lat="42.5156030" lon="-8.1234700">
        <ele>538.6</ele>
        <time>2019-08-18T06:36:58Z</time>
      </trkpt>
      <trkpt lat="42.5156010" lon="-8.1235010">
        <ele>538.8</ele>
        <time>2019-08-18T06:36:59Z</time>
      </trkpt>
      <trkpt lat="42.5156000" lon="-8.1235310">
        <ele>539.0</ele>
        <time>2019-08-18T06:37:00Z</time>
      </trkpt>
      <trkpt lat="42.5156020" lon="-8.1235620">
        <ele>539.2</ele>
        <time>2019-08-18T06:37:01Z</time>
      </trkpt>
      <trkpt lat="42.5156060" lon="-8.1235940">
        <ele>539.4</ele>
        <time>2019-08-18T06:37:02Z</time>
      </trkpt>
      <trkpt lat="42.5156100" lon="-8.1236260">
        <ele>539.6</ele>
        <time>2019-08-18T06:37:03Z</time>
      </trkpt>
      <trkpt lat="42.5156160" lon="-8.1236580">
        <ele>539.8</ele>
        <time>2019-08-18T06:37:04Z</time>
      </trkpt>
      <trkpt lat="42.5156210" lon="-8.1236920">
        <ele>540.0</ele>
        <time>2019-08-18T06:37:05Z</time>
      </trkpt>
      <trkpt lat="42.5156280" lon="-8.1237270">
        <ele>540.2</ele>
        <time>2019-08-18T06:37:06Z</time>
      </trkpt>
      <trkpt lat="42.5156330" lon="-8.1237620">
        <ele>540.4</ele>
        <time>2019-08-18T06:37:07Z</time>
      </trkpt>
      <trkpt lat="42.5156390" lon="-8.1237980">
        <ele>540.7</ele>
        <time>2019-08-18T06:37:08Z</time>
      </trkpt>
      <trkpt lat="42.5156430" lon="-8.1238340">
        <ele>540.9</ele>
        <time>2019-08-18T06:37:09Z</time>
      </trkpt>
      <trkpt lat="42.5156470" lon="-8.1238700">
        <ele>541.1</ele>
        <time>2019-08-18T06:37:10Z</time>
      </trkpt>
      <trkpt lat="42.5156510" lon="-8.1239060">
        <ele>541.3</ele>
        <time>2019-08-18T06:37:11Z</time>
      </trkpt>
      <trkpt lat="42.5156560" lon="-8.1239420">
        <ele>541.5</ele>
        <time>2019-08-18T06:37:12Z</time>
      </trkpt>
      <trkpt lat="42.5156630" lon="-8.1239780">
        <ele>541.7</ele>
        <time>2019-08-18T06:37:13Z</time>
      </trkpt>
      <trkpt lat="42.5156750" lon="-8.1240150">
        <ele>542.0</ele>
        <time>2019-08-18T06:37:14Z</time>
      </trkpt>
      <trkpt lat="42.5156900" lon="-8.1240510">
        <ele>542.2</ele>
        <time>2019-08-18T06:37:15Z</time>
      </trkpt>
      <trkpt lat="42.5157090" lon="-8.1240840">
        <ele>542.2</ele>
        <time>2019-08-18T06:37:16Z</time>
      </trkpt>
      <trkpt lat="42.5157300" lon="-8.1241140">
        <ele>542.2</ele>
        <time>2019-08-18T06:37:17Z</time>
      </trkpt>
      <trkpt lat="42.5157540" lon="-8.1241380">
        <ele>542.3</ele>
        <time>2019-08-18T06:37:18Z</time>
      </trkpt>
      <trkpt lat="42.5157780" lon="-8.1241570">
        <ele>542.4</ele>
        <time>2019-08-18T06:37:19Z</time>
      </trkpt>
      <trkpt lat="42.5158010" lon="-8.1241720">
        <ele>542.6</ele>
        <time>2019-08-18T06:37:20Z</time>
      </trkpt>
      <trkpt lat="42.5158230" lon="-8.1241860">
        <ele>542.7</ele>
        <time>2019-08-18T06:37:21Z</time>
      </trkpt>
      <trkpt lat="42.5158430" lon="-8.1242000">
        <ele>542.8</ele>
        <time>2019-08-18T06:37:22Z</time>
      </trkpt>
      <trkpt lat="42.5158600" lon="-8.1242150">
        <ele>542.9</ele>
        <time>2019-08-18T06:37:23Z</time>
      </trkpt>
      <trkpt lat="42.5158750" lon="-8.1242340">
        <ele>542.9</ele>
        <time>2019-08-18T06:37:24Z</time>
      </trkpt>
      <trkpt lat="42.5158870" lon="-8.1242580">
        <ele>543.0</ele>
        <time>2019-08-18T06:37:25Z</time>
      </trkpt>
      <trkpt lat="42.5158980" lon="-8.1242870">
        <ele>543.1</ele>
        <time>2019-08-18T06:37:26Z</time>
      </trkpt>
      <trkpt lat="42.5159070" lon="-8.1243170">
        <ele>543.2</ele>
        <time>2019-08-18T06:37:27Z</time>
      </trkpt>
      <trkpt lat="42.5159160" lon="-8.1243480">
        <ele>543.4</ele>
        <time>2019-08-18T06:37:28Z</time>
      </trkpt>
      <trkpt lat="42.5159250" lon="-8.1243780">
        <ele>543.4</ele>
        <time>2019-08-18T06:37:29Z</time>
      </trkpt>
      <trkpt lat="42.5159350" lon="-8.1244060">
        <ele>543.5</ele>
        <time>2019-08-18T06:37:30Z</time>
      </trkpt>
      <trkpt lat="42.5159440" lon="-8.1244330">
        <ele>543.5</ele>
        <time>2019-08-18T06:37:31Z</time>
      </trkpt>
      <trkpt lat="42.5159540" lon="-8.1244600">
        <ele>543.5</ele>
        <time>2019-08-18T06:37:32Z</time>
      </trkpt>
      <trkpt lat="42.5159640" lon="-8.1244860">
        <ele>543.5</ele>
        <time>2019-08-18T06:37:33Z</time>
      </trkpt>
      <trkpt lat="42.5159740" lon="-8.1245120">
        <ele>543.6</ele>
        <time>2019-08-18T06:37:34Z</time>
      </trkpt>
      <trkpt lat="42.5159840" lon="-8.1245390">
        <ele>543.6</ele>
        <time>2019-08-18T06:37:35Z</time>
      </trkpt>
      <trkpt lat="42.5159940" lon="-8.1245650">
        <ele>543.6</ele>
        <time>2019-08-18T06:37:36Z</time>
      </trkpt>
      <trkpt lat="42.5160040" lon="-8.1245920">
        <ele>543.6</ele>
        <time>2019-08-18T06:37:37Z</time>
      </trkpt>
      <trkpt lat="42.5160140" lon="-8.1246200">
        <ele>543.5</ele>
        <time>2019-08-18T06:37:38Z</time>
      </trkpt>
      <trkpt lat="42.5160250" lon="-8.1246470">
        <ele>543.5</ele>
        <time>2019-08-18T06:37:39Z</time>
      </trkpt>
      <trkpt lat="42.5160360" lon="-8.1246750">
        <ele>543.4</ele>
        <time>2019-08-18T06:37:40Z</time>
      </trkpt>
      <trkpt lat="42.5160480" lon="-8.1247020">
        <ele>543.3</ele>
        <time>2019-08-18T06:37:41Z</time>
      </trkpt>
      <trkpt lat="42.5160600" lon="-8.1247290">
        <ele>543.2</ele>
        <time>2019-08-18T06:37:42Z</time>
      </trkpt>
      <trkpt lat="42.5160720" lon="-8.1247560">
        <ele>543.0</ele>
        <time>2019-08-18T06:37:43Z</time>
      </trkpt>
      <trkpt lat="42.5160850" lon="-8.1247830">
        <ele>542.9</ele>
        <time>2019-08-18T06:37:44Z</time>
      </trkpt>
      <trkpt lat="42.5160990" lon="-8.1248090">
        <ele>542.8</ele>
        <time>2019-08-18T06:37:45Z</time>
      </trkpt>
      <trkpt lat="42.5161140" lon="-8.1248340">
        <ele>542.7</ele>
        <time>2019-08-18T06:37:46Z</time>
      </trkpt>
      <trkpt lat="42.5161290" lon="-8.1248590">
        <ele>542.6</ele>
        <time>2019-08-18T06:37:47Z</time>
      </trkpt>
      <trkpt lat="42.5161450" lon="-8.1248830">
        <ele>542.5</ele>
        <time>2019-08-18T06:37:48Z</time>
      </trkpt>
      <trkpt lat="42.5161620" lon="-8.1249060">
        <ele>542.5</ele>
        <time>2019-08-18T06:37:49Z</time>
      </trkpt>
      <trkpt lat="42.5161800" lon="-8.1249280">
        <ele>542.4</ele>
        <time>2019-08-18T06:37:50Z</time>
      </trkpt>
      <trkpt lat="42.5161990" lon="-8.1249480">
        <ele>542.3</ele>
        <time>2019-08-18T06:37:51Z</time>
      </trkpt>
      <trkpt lat="42.5162190" lon="-8.1249620">
        <ele>542.2</ele>
        <time>2019-08-18T06:37:52Z</time>
      </trkpt>
      <trkpt lat="42.5162400" lon="-8.1249700">
        <ele>542.6</ele>
        <time>2019-08-18T06:37:53Z</time>
      </trkpt>
      <trkpt lat="42.5162610" lon="-8.1249700">
        <ele>542.7</ele>
        <time>2019-08-18T06:37:54Z</time>
      </trkpt>
      <trkpt lat="42.5162830" lon="-8.1249660">
        <ele>542.9</ele>
        <time>2019-08-18T06:37:55Z</time>
      </trkpt>
      <trkpt lat="42.5163040" lon="-8.1249600">
        <ele>543.0</ele>
        <time>2019-08-18T06:37:56Z</time>
      </trkpt>
      <trkpt lat="42.5163260" lon="-8.1249570">
        <ele>543.2</ele>
        <time>2019-08-18T06:37:57Z</time>
      </trkpt>
      <trkpt lat="42.5163470" lon="-8.1249590">
        <ele>543.3</ele>
        <time>2019-08-18T06:37:58Z</time>
      </trkpt>
      <trkpt lat="42.5163670" lon="-8.1249660">
        <ele>543.4</ele>
        <time>2019-08-18T06:37:59Z</time>
      </trkpt>
      <trkpt lat="42.5163870" lon="-8.1249770">
        <ele>543.6</ele>
        <time>2019-08-18T06:38:00Z</time>
      </trkpt>
      <trkpt lat="42.5164060" lon="-8.1249910">
        <ele>543.9</ele>
        <time>2019-08-18T06:38:01Z</time>
      </trkpt>
      <trkpt lat="42.5164250" lon="-8.1250080">
        <ele>544.2</ele>
        <time>2019-08-18T06:38:02Z</time>
      </trkpt>
      <trkpt lat="42.5164430" lon="-8.1250250">
        <ele>544.5</ele>
        <time>2019-08-18T06:38:03Z</time>
      </trkpt>
      <trkpt lat="42.5164600" lon="-8.1250420">
        <ele>544.7</ele>
        <time>2019-08-18T06:38:04Z</time>
      </trkpt>
      <trkpt lat="42.5164760" lon="-8.1250590">
        <ele>544.8</ele>
        <time>2019-08-18T06:38:05Z</time>
      </trkpt>
      <trkpt lat="42.5164920" lon="-8.1250750">
        <ele>545.0</ele>
        <time>2019-08-18T06:38:06Z</time>
      </trkpt>
      <trkpt lat="42.5165070" lon="-8.1250900">
        <ele>545.2</ele>
        <time>2019-08-18T06:38:07Z</time>
      </trkpt>
      <trkpt lat="42.5165220" lon="-8.1251040">
        <ele>545.3</ele>
        <time>2019-08-18T06:38:08Z</time>
      </trkpt>
      <trkpt lat="42.5165370" lon="-8.1251170">
        <ele>545.5</ele>
        <time>2019-08-18T06:38:09Z</time>
      </trkpt>
      <trkpt lat="42.5165520" lon="-8.1251300">
        <ele>545.6</ele>
        <time>2019-08-18T06:38:10Z</time>
      </trkpt>
      <trkpt lat="42.5165670" lon="-8.1251420">
        <ele>545.8</ele>
        <time>2019-08-18T06:38:11Z</time>
      </trkpt>
      <trkpt lat="42.5165820" lon="-8.1251540">
        <ele>545.9</ele>
        <time>2019-08-18T06:38:12Z</time>
      </trkpt>
      <trkpt lat="42.5166050" lon="-8.1251710">
        <ele>546.2</ele>
        <time>2019-08-18T06:38:13Z</time>
      </trkpt>
      <trkpt lat="42.5166120" lon="-8.1251770">
        <ele>546.2</ele>
        <time>2019-08-18T06:38:14Z</time>
      </trkpt>
      <trkpt lat="42.5166280" lon="-8.1251900">
        <ele>546.4</ele>
        <time>2019-08-18T06:38:15Z</time>
      </trkpt>
      <trkpt lat="42.5166430" lon="-8.1252030">
        <ele>546.6</ele>
        <time>2019-08-18T06:38:16Z</time>
      </trkpt>
      <trkpt lat="42.5166570" lon="-8.1252180">
        <ele>546.7</ele>
        <time>2019-08-18T06:38:17Z</time>
      </trkpt>
      <trkpt lat="42.5166710" lon="-8.1252350">
        <ele>546.8</ele>
        <time>2019-08-18T06:38:18Z</time>
      </trkpt>
      <trkpt lat="42.5166840" lon="-8.1252540">
        <ele>546.9</ele>
        <time>2019-08-18T06:38:19Z</time>
      </trkpt>
      <trkpt lat="42.5166960" lon="-8.1252750">
        <ele>547.0</ele>
        <time>2019-08-18T06:38:20Z</time>
      </trkpt>
      <trkpt lat="42.5167060" lon="-8.1252980">
        <ele>547.1</ele>
        <time>2019-08-18T06:38:21Z</time>
      </trkpt>
      <trkpt lat="42.5167150" lon="-8.1253230">
        <ele>547.1</ele>
        <time>2019-08-18T06:38:22Z</time>
      </trkpt>
      <trkpt lat="42.5167210" lon="-8.1253480">
        <ele>547.1</ele>
        <time>2019-08-18T06:38:23Z</time>
      </trkpt>
      <trkpt lat="42.5167260" lon="-8.1253750">
        <ele>547.1</ele>
        <time>2019-08-18T06:38:24Z</time>
      </trkpt>
      <trkpt lat="42.5167310" lon="-8.1254000">
        <ele>547.1</ele>
        <time>2019-08-18T06:38:25Z</time>
      </trkpt>
      <trkpt lat="42.5167380" lon="-8.1254250">
        <ele>547.1</ele>
        <time>2019-08-18T06:38:26Z</time>
      </trkpt>
      <trkpt lat="42.5167470" lon="-8.1254470">
        <ele>547.2</ele>
        <time>2019-08-18T06:38:27Z</time>
      </trkpt>
      <trkpt lat="42.5167590" lon="-8.1254670">
        <ele>547.3</ele>
        <time>2019-08-18T06:38:28Z</time>
      </trkpt>
      <trkpt lat="42.5167740" lon="-8.1254850">
        <ele>547.4</ele>
        <time>2019-08-18T06:38:29Z</time>
      </trkpt>
      <trkpt lat="42.5167900" lon="-8.1255010">
        <ele>547.6</ele>
        <time>2019-08-18T06:38:30Z</time>
      </trkpt>
      <trkpt lat="42.5168070" lon="-8.1255150">
        <ele>547.7</ele>
        <time>2019-08-18T06:38:31Z</time>
      </trkpt>
      <trkpt lat="42.5168250" lon="-8.1255270">
        <ele>547.9</ele>
        <time>2019-08-18T06:38:32Z</time>
      </trkpt>
      <trkpt lat="42.5168430" lon="-8.1255380">
        <ele>548.0</ele>
        <time>2019-08-18T06:38:33Z</time>
      </trkpt>
      <trkpt lat="42.5168610" lon="-8.1255480">
        <ele>548.3</ele>
        <time>2019-08-18T06:38:34Z</time>
      </trkpt>
      <trkpt lat="42.5168790" lon="-8.1255560">
        <ele>548.5</ele>
        <time>2019-08-18T06:38:35Z</time>
      </trkpt>
      <trkpt lat="42.5168970" lon="-8.1255630">
        <ele>548.7</ele>
        <time>2019-08-18T06:38:36Z</time>
      </trkpt>
      <trkpt lat="42.5169140" lon="-8.1255690">
        <ele>549.0</ele>
        <time>2019-08-18T06:38:37Z</time>
      </trkpt>
      <trkpt lat="42.5169320" lon="-8.1255740">
        <ele>549.3</ele>
        <time>2019-08-18T06:38:38Z</time>
      </trkpt>
      <trkpt lat="42.5169490" lon="-8.1255790">
        <ele>549.6</ele>
        <time>2019-08-18T06:38:39Z</time>
      </trkpt>
      <trkpt lat="42.5169670" lon="-8.1255830">
        <ele>550.0</ele>
        <time>2019-08-18T06:38:40Z</time>
      </trkpt>
      <trkpt lat="42.5169840" lon="-8.1255860">
        <ele>550.2</ele>
        <time>2019-08-18T06:38:41Z</time>
      </trkpt>
      <trkpt lat="42.5170010" lon="-8.1255900">
        <ele>550.4</ele>
        <time>2019-08-18T06:38:42Z</time>
      </trkpt>
      <trkpt lat="42.5170180" lon="-8.1255930">
        <ele>550.6</ele>
        <time>2019-08-18T06:38:43Z</time>
      </trkpt>
      <trkpt lat="42.5170350" lon="-8.1255960">
        <ele>550.8</ele>
        <time>2019-08-18T06:38:44Z</time>
      </trkpt>
      <trkpt lat="42.5170520" lon="-8.1255990">
        <ele>551.0</ele>
        <time>2019-08-18T06:38:45Z</time>
      </trkpt>
      <trkpt lat="42.5170700" lon="-8.1256020">
        <ele>551.2</ele>
        <time>2019-08-18T06:38:46Z</time>
      </trkpt>
      <trkpt lat="42.5170870" lon="-8.1256060">
        <ele>551.5</ele>
        <time>2019-08-18T06:38:47Z</time>
      </trkpt>
      <trkpt lat="42.5171040" lon="-8.1256110">
        <ele>551.7</ele>
        <time>2019-08-18T06:38:48Z</time>
      </trkpt>
      <trkpt lat="42.5171210" lon="-8.1256160">
        <ele>551.9</ele>
        <time>2019-08-18T06:38:49Z</time>
      </trkpt>
      <trkpt lat="42.5171380" lon="-8.1256210">
        <ele>552.1</ele>
        <time>2019-08-18T06:38:50Z</time>
      </trkpt>
      <trkpt lat="42.5171560" lon="-8.1256260">
        <ele>552.3</ele>
        <time>2019-08-18T06:38:51Z</time>
      </trkpt>
      <trkpt lat="42.5171740" lon="-8.1256310">
        <ele>552.5</ele>
        <time>2019-08-18T06:38:52Z</time>
      </trkpt>
      <trkpt lat="42.5171920" lon="-8.1256360">
        <ele>552.6</ele>
        <time>2019-08-18T06:38:53Z</time>
      </trkpt>
      <trkpt lat="42.5172100" lon="-8.1256400">
        <ele>552.8</ele>
        <time>2019-08-18T06:38:54Z</time>
      </trkpt>
      <trkpt lat="42.5172280" lon="-8.1256440">
        <ele>552.9</ele>
        <time>2019-08-18T06:38:55Z</time>
      </trkpt>
      <trkpt lat="42.5172470" lon="-8.1256460">
        <ele>553.1</ele>
        <time>2019-08-18T06:38:56Z</time>
      </trkpt>
      <trkpt lat="42.5172670" lon="-8.1256490">
        <ele>553.2</ele>
        <time>2019-08-18T06:38:57Z</time>
      </trkpt>
      <trkpt lat="42.5172960" lon="-8.1256510">
        <ele>553.4</ele>
        <time>2019-08-18T06:38:58Z</time>
      </trkpt>
      <trkpt lat="42.5173060" lon="-8.1256520">
        <ele>553.5</ele>
        <time>2019-08-18T06:38:59Z</time>
      </trkpt>
      <trkpt lat="42.5173250" lon="-8.1256530">
        <ele>553.6</ele>
        <time>2019-08-18T06:39:00Z</time>
      </trkpt>
      <trkpt lat="42.5173440" lon="-8.1256540">
        <ele>553.7</ele>
        <time>2019-08-18T06:39:01Z</time>
      </trkpt>
      <trkpt lat="42.5173630" lon="-8.1256550">
        <ele>553.8</ele>
        <time>2019-08-18T06:39:02Z</time>
      </trkpt>
      <trkpt lat="42.5173810" lon="-8.1256560">
        <ele>553.8</ele>
        <time>2019-08-18T06:39:03Z</time>
      </trkpt>
      <trkpt lat="42.5173990" lon="-8.1256570">
        <ele>553.9</ele>
        <time>2019-08-18T06:39:04Z</time>
      </trkpt>
      <trkpt lat="42.5174160" lon="-8.1256590">
        <ele>554.0</ele>
        <time>2019-08-18T06:39:05Z</time>
      </trkpt>
      <trkpt lat="42.5174340" lon="-8.1256630">
        <ele>554.0</ele>
        <time>2019-08-18T06:39:06Z</time>
      </trkpt>
      <trkpt lat="42.5174510" lon="-8.1256670">
        <ele>554.0</ele>
        <time>2019-08-18T06:39:07Z</time>
      </trkpt>
      <trkpt lat="42.5174690" lon="-8.1256730">
        <ele>554.1</ele>
        <time>2019-08-18T06:39:08Z</time>
      </trkpt>
      <trkpt lat="42.5174870" lon="-8.1256800">
        <ele>554.6</ele>
        <time>2019-08-18T06:39:09Z</time>
      </trkpt>
      <trkpt lat="42.5175050" lon="-8.1256900">
        <ele>554.7</ele>
        <time>2019-08-18T06:39:10Z</time>
      </trkpt>
      <trkpt lat="42.5175240" lon="-8.1257010">
        <ele>554.7</ele>
        <time>2019-08-18T06:39:11Z</time>
      </trkpt>
      <trkpt lat="42.5175430" lon="-8.1257150">
        <ele>554.8</ele>
        <time>2019-08-18T06:39:12Z</time>
      </trkpt>
      <trkpt lat="42.5175620" lon="-8.1257320">
        <ele>555.4</ele>
        <time>2019-08-18T06:39:13Z</time>
      </trkpt>
      <trkpt lat="42.5175800" lon="-8.1257510">
        <ele>555.5</ele>
        <time>2019-08-18T06:39:14Z</time>
      </trkpt>
      <trkpt lat="42.5175990" lon="-8.1257720">
        <ele>556.0</ele>
        <time>2019-08-18T06:39:15Z</time>
      </trkpt>
      <trkpt lat="42.5176160" lon="-8.1257960">
        <ele>556.1</ele>
        <time>2019-08-18T06:39:16Z</time>
      </trkpt>
      <trkpt lat="42.5176320" lon="-8.1258220">
        <ele>556.7</ele>
        <time>2019-08-18T06:39:17Z</time>
      </trkpt>
      <trkpt lat="42.5176480" lon="-8.1258510">
        <ele>557.2</ele>
        <time>2019-08-18T06:39:18Z</time>
      </trkpt>
      <trkpt lat="42.5176690" lon="-8.1258970">
        <ele>557.8</ele>
        <time>2019-08-18T06:39:19Z</time>
      </trkpt>
      <trkpt lat="42.5176760" lon="-8.1259140">
        <ele>557.9</ele>
        <time>2019-08-18T06:39:20Z</time>
      </trkpt>
      <trkpt lat="42.5176890" lon="-8.1259480">
        <ele>558.4</ele>
        <time>2019-08-18T06:39:21Z</time>
      </trkpt>
      <trkpt lat="42.5177030" lon="-8.1259830">
        <ele>559.1</ele>
        <time>2019-08-18T06:39:22Z</time>
      </trkpt>
      <trkpt lat="42.5177160" lon="-8.1260190">
        <ele>559.1</ele>
        <time>2019-08-18T06:39:23Z</time>
      </trkpt>
      <trkpt lat="42.5177310" lon="-8.1260540">
        <ele>559.9</ele>
        <time>2019-08-18T06:39:24Z</time>
      </trkpt>
      <trkpt lat="42.5177460" lon="-8.1260890">
        <ele>560.6</ele>
        <time>2019-08-18T06:39:25Z</time>
      </trkpt>
      <trkpt lat="42.5177630" lon="-8.1261240">
        <ele>561.5</ele>
        <time>2019-08-18T06:39:26Z</time>
      </trkpt>
      <trkpt lat="42.5177810" lon="-8.1261580">
        <ele>562.2</ele>
        <time>2019-08-18T06:39:27Z</time>
      </trkpt>
      <trkpt lat="42.5178000" lon="-8.1261920">
        <ele>562.4</ele>
        <time>2019-08-18T06:39:28Z</time>
      </trkpt>
      <trkpt lat="42.5178180" lon="-8.1262260">
        <ele>563.1</ele>
        <time>2019-08-18T06:39:29Z</time>
      </trkpt>
      <trkpt lat="42.5178370" lon="-8.1262600">
        <ele>563.9</ele>
        <time>2019-08-18T06:39:30Z</time>
      </trkpt>
      <trkpt lat="42.5178560" lon="-8.1262950">
        <ele>564.7</ele>
        <time>2019-08-18T06:39:31Z</time>
      </trkpt>
      <trkpt lat="42.5178740" lon="-8.1263300">
        <ele>565.4</ele>
        <time>2019-08-18T06:39:32Z</time>
      </trkpt>
      <trkpt lat="42.5178910" lon="-8.1263660">
        <ele>566.1</ele>
        <time>2019-08-18T06:39:33Z</time>
      </trkpt>
      <trkpt lat="42.5179070" lon="-8.1264030">
        <ele>566.1</ele>
        <time>2019-08-18T06:39:34Z</time>
      </trkpt>
      <trkpt lat="42.5179230" lon="-8.1264390">
        <ele>566.9</ele>
        <time>2019-08-18T06:39:35Z</time>
      </trkpt>
      <trkpt lat="42.5179380" lon="-8.1264760">
        <ele>567.6</ele>
        <time>2019-08-18T06:39:36Z</time>
      </trkpt>
      <trkpt lat="42.5179520" lon="-8.1265110">
        <ele>568.5</ele>
        <time>2019-08-18T06:39:37Z</time>
      </trkpt>
      <trkpt lat="42.5179650" lon="-8.1265450">
        <ele>569.2</ele>
        <time>2019-08-18T06:39:38Z</time>
      </trkpt>
      <trkpt lat="42.5179780" lon="-8.1265770">
        <ele>569.2</ele>
        <time>2019-08-18T06:39:39Z</time>
      </trkpt>
      <trkpt lat="42.5179910" lon="-8.1266080">
        <ele>570.1</ele>
        <time>2019-08-18T06:39:40Z</time>
      </trkpt>
      <trkpt lat="42.5180040" lon="-8.1266360">
        <ele>570.9</ele>
        <time>2019-08-18T06:39:41Z</time>
      </trkpt>
      <trkpt lat="42.5180160" lon="-8.1266620">
        <ele>571.1</ele>
        <time>2019-08-18T06:39:42Z</time>
      </trkpt>
      <trkpt lat="42.5180290" lon="-8.1266870">
        <ele>571.9</ele>
        <time>2019-08-18T06:39:43Z</time>
      </trkpt>
      <trkpt lat="42.5180420" lon="-8.1267090">
        <ele>572.6</ele>
        <time>2019-08-18T06:39:44Z</time>
      </trkpt>
      <trkpt lat="42.5180540" lon="-8.1267290">
        <ele>572.9</ele>
        <time>2019-08-18T06:39:45Z</time>
      </trkpt>
      <trkpt lat="42.5180680" lon="-8.1267470">
        <ele>572.9</ele>
        <time>2019-08-18T06:39:46Z</time>
      </trkpt>
      <trkpt lat="42.5180810" lon="-8.1267640">
        <ele>573.9</ele>
        <time>2019-08-18T06:39:47Z</time>
      </trkpt>
      <trkpt lat="42.5181000" lon="-8.1267830">
        <ele>573.9</ele>
        <time>2019-08-18T06:39:48Z</time>
      </trkpt>
      <trkpt lat="42.5181050" lon="-8.1267890">
        <ele>573.9</ele>
        <time>2019-08-18T06:39:49Z</time>
      </trkpt>
      <trkpt lat="42.5181120" lon="-8.1267980">
        <ele>574.8</ele>
        <time>2019-08-18T06:39:50Z</time>
      </trkpt>
      <trkpt lat="42.5181170" lon="-8.1268040">
        <ele>574.8</ele>
        <time>2019-08-18T06:39:51Z</time>
      </trkpt>
      <trkpt lat="42.5181250" lon="-8.1268140">
        <ele>574.8</ele>
        <time>2019-08-18T06:39:52Z</time>
      </trkpt>
      <trkpt lat="42.5181400" lon="-8.1268320">
        <ele>575.1</ele>
        <time>2019-08-18T06:39:53Z</time>
      </trkpt>
      <trkpt lat="42.5181590" lon="-8.1268530">
        <ele>575.8</ele>
        <time>2019-08-18T06:39:54Z</time>
      </trkpt>
      <trkpt lat="42.5181780" lon="-8.1268730">
        <ele>576.0</ele>
        <time>2019-08-18T06:39:55Z</time>
      </trkpt>
      <trkpt lat="42.5181970" lon="-8.1268910">
        <ele>576.7</ele>
        <time>2019-08-18T06:39:56Z</time>
      </trkpt>
      <trkpt lat="42.5181990" lon="-8.1268930">
        <ele>576.7</ele>
        <time>2019-08-18T06:39:57Z</time>
      </trkpt>
      <trkpt lat="42.5182000" lon="-8.1268940">
        <ele>576.8</ele>
        <time>2019-08-18T06:39:58Z</time>
      </trkpt>
      <trkpt lat="42.5182010" lon="-8.1268960">
        <ele>577.0</ele>
        <time>2019-08-18T06:39:59Z</time>
      </trkpt>
      <trkpt lat="42.5182030" lon="-8.1268980">
        <ele>577.0</ele>
        <time>2019-08-18T06:40:00Z</time>
      </trkpt>
      <trkpt lat="42.5182040" lon="-8.1269000">
        <ele>577.0</ele>
        <time>2019-08-18T06:40:01Z</time>
      </trkpt>
      <trkpt lat="42.5182050" lon="-8.1269020">
        <ele>577.0</ele>
        <time>2019-08-18T06:40:02Z</time>
      </trkpt>
      <trkpt lat="42.5182070" lon="-8.1269030">
        <ele>577.0</ele>
        <time>2019-08-18T06:40:03Z</time>
      </trkpt>
      <trkpt lat="42.5182080" lon="-8.1269050">
        <ele>577.0</ele>
        <time>2019-08-18T06:40:04Z</time>
      </trkpt>
      <trkpt lat="42.5182090" lon="-8.1269070">
        <ele>577.0</ele>
        <time>2019-08-18T06:40:05Z</time>
      </trkpt>
      <trkpt lat="42.5182110" lon="-8.1269090">
        <ele>577.1</ele>
        <time>2019-08-18T06:40:06Z</time>
      </trkpt>
      <trkpt lat="42.5182120" lon="-8.1269110">
        <ele>577.1</ele>
        <time>2019-08-18T06:40:07Z</time>
      </trkpt>
      <trkpt lat="42.5182130" lon="-8.1269120">
        <ele>577.1</ele>
        <time>2019-08-18T06:40:08Z</time>
      </trkpt>
      <trkpt lat="42.5182150" lon="-8.1269140">
        <ele>577.1</ele>
        <time>2019-08-18T06:40:09Z</time>
      </trkpt>
      <trkpt lat="42.5182160" lon="-8.1269160">
        <ele>577.1</ele>
        <time>2019-08-18T06:40:10Z</time>
      </trkpt>
      <trkpt lat="42.5182170" lon="-8.1269180">
        <ele>577.1</ele>
        <time>2019-08-18T06:40:11Z</time>
      </trkpt>
      <trkpt lat="42.5182190" lon="-8.1269200">
        <ele>577.1</ele>
        <time>2019-08-18T06:40:12Z</time>
      </trkpt>
      <trkpt lat="42.5182200" lon="-8.1269210">
        <ele>577.1</ele>
        <time>2019-08-18T06:40:13Z</time>
      </trkpt>
      <trkpt lat="42.5182210" lon="-8.1269230">
        <ele>577.9</ele>
        <time>2019-08-18T06:40:14Z</time>
      </trkpt>
      <trkpt lat="42.5182230" lon="-8.1269250">
        <ele>577.9</ele>
        <time>2019-08-18T06:40:15Z</time>
      </trkpt>
      <trkpt lat="42.5182240" lon="-8.1269270">
        <ele>577.9</ele>
        <time>2019-08-18T06:40:16Z</time>
      </trkpt>
      <trkpt lat="42.5182250" lon="-8.1269290">
        <ele>577.9</ele>
        <time>2019-08-18T06:40:17Z</time>
      </trkpt>
      <trkpt lat="42.5182270" lon="-8.1269300">
        <ele>577.9</ele>
        <time>2019-08-18T06:40:18Z</time>
      </trkpt>
      <trkpt lat="42.5182280" lon="-8.1269320">
        <ele>577.9</ele>
        <time>2019-08-18T06:40:19Z</time>
      </trkpt>
      <trkpt lat="42.5182290" lon="-8.1269340">
        <ele>577.9</ele>
        <time>2019-08-18T06:40:20Z</time>
      </trkpt>
      <trkpt lat="42.5182300" lon="-8.1269360">
        <ele>577.9</ele>
        <time>2019-08-18T06:40:21Z</time>
      </trkpt>
      <trkpt lat="42.5182320" lon="-8.1269370">
        <ele>577.9</ele>
        <time>2019-08-18T06:40:22Z</time>
      </trkpt>
      <trkpt lat="42.5182330" lon="-8.1269390">
        <ele>578.2</ele>
        <time>2019-08-18T06:40:23Z</time>
      </trkpt>
      <trkpt lat="42.5182340" lon="-8.1269410">
        <ele>578.2</ele>
        <time>2019-08-18T06:40:24Z</time>
      </trkpt>
      <trkpt lat="42.5182360" lon="-8.1269430">
        <ele>578.2</ele>
        <time>2019-08-18T06:40:25Z</time>
      </trkpt>
      <trkpt lat="42.5182370" lon="-8.1269450">
        <ele>578.2</ele>
        <time>2019-08-18T06:40:26Z</time>
      </trkpt>
      <trkpt lat="42.5182380" lon="-8.1269460">
        <ele>578.2</ele>
        <time>2019-08-18T06:40:27Z</time>
      </trkpt>
      <trkpt lat="42.5182400" lon="-8.1269480">
        <ele>578.2</ele>
        <time>2019-08-18T06:40:28Z</time>
      </trkpt>
      <trkpt lat="42.5182410" lon="-8.1269500">
        <ele>578.2</ele>
        <time>2019-08-18T06:40:29Z</time>
      </trkpt>
      <trkpt lat="42.5182420" lon="-8.1269520">
        <ele>578.3</ele>
        <time>2019-08-18T06:40:30Z</time>
      </trkpt>
      <trkpt lat="42.5182440" lon="-8.1269540">
        <ele>578.3</ele>
        <time>2019-08-18T06:40:31Z</time>
      </trkpt>
      <trkpt lat="42.5182450" lon="-8.1269550">
        <ele>578.3</ele>
        <time>2019-08-18T06:40:32Z</time>
      </trkpt>
      <trkpt lat="42.5182460" lon="-8.1269570">
        <ele>578.3</ele>
        <time>2019-08-18T06:40:33Z</time>
      </trkpt>
      <trkpt lat="42.5182480" lon="-8.1269590">
        <ele>578.3</ele>
        <time>2019-08-18T06:40:34Z</time>
      </trkpt>
      <trkpt lat="42.5182490" lon="-8.1269610">
        <ele>578.3</ele>
        <time>2019-08-18T06:40:35Z</time>
      </trkpt>
      <trkpt lat="42.5182500" lon="-8.1269630">
        <ele>578.3</ele>
        <time>2019-08-18T06:40:36Z</time>
      </trkpt>
      <trkpt lat="42.5182520" lon="-8.1269640">
        <ele>578.3</ele>
        <time>2019-08-18T06:40:37Z</time>
      </trkpt>
      <trkpt lat="42.5182530" lon="-8.1269660">
        <ele>579.1</ele>
        <time>2019-08-18T06:40:38Z</time>
      </trkpt>
      <trkpt lat="42.5182540" lon="-8.1269680">
        <ele>579.1</ele>
        <time>2019-08-18T06:40:39Z</time>
      </trkpt>
      <trkpt lat="42.5182560" lon="-8.1269700">
        <ele>579.1</ele>
        <time>2019-08-18T06:40:40Z</time>
      </trkpt>
      <trkpt lat="42.5182570" lon="-8.1269720">
        <ele>579.1</ele>
        <time>2019-08-18T06:40:41Z</time>
      </trkpt>
      <trkpt lat="42.5182580" lon="-8.1269730">
        <ele>579.1</ele>
        <time>2019-08-18T06:40:42Z</time>
      </trkpt>
      <trkpt lat="42.5182600" lon="-8.1269750">
        <ele>579.1</ele>
        <time>2019-08-18T06:40:43Z</time>
      </trkpt>
      <trkpt lat="42.5182610" lon="-8.1269770">
        <ele>579.2</ele>
        <time>2019-08-18T06:40:44Z</time>
      </trkpt>
      <trkpt lat="42.5182660" lon="-8.1269930">
        <ele>579.4</ele>
        <time>2019-08-18T06:40:45Z</time>
      </trkpt>
      <trkpt lat="42.5182760" lon="-8.1270140">
        <ele>580.2</ele>
        <time>2019-08-18T06:40:46Z</time>
      </trkpt>
      <trkpt lat="42.5182840" lon="-8.1270280">
        <ele>580.2</ele>
        <time>2019-08-18T06:40:47Z</time>
      </trkpt>
      <trkpt lat="42.5182930" lon="-8.1270380">
        <ele>580.2</ele>
        <time>2019-08-18T06:40:48Z</time>
      </trkpt>
      <trkpt lat="42.5183060" lon="-8.1270490">
        <ele>580.5</ele>
        <time>2019-08-18T06:40:49Z</time>
      </trkpt>
      <trkpt lat="42.5183230" lon="-8.1270600">
        <ele>581.3</ele>
        <time>2019-08-18T06:40:50Z</time>
      </trkpt>
      <trkpt lat="42.5183400" lon="-8.1270700">
        <ele>581.6</ele>
        <time>2019-08-18T06:40:51Z</time>
      </trkpt>
      <trkpt lat="42.5183550" lon="-8.1270790">
        <ele>581.6</ele>
        <time>2019-08-18T06:40:52Z</time>
      </trkpt>
      <trkpt lat="42.5183660" lon="-8.1270860">
        <ele>581.9</ele>
        <time>2019-08-18T06:40:53Z</time>
      </trkpt>
      <trkpt lat="42.5183740" lon="-8.1270910">
        <ele>581.9</ele>
        <time>2019-08-18T06:40:54Z</time>
      </trkpt>
      <trkpt lat="42.5183820" lon="-8.1270960">
        <ele>582.7</ele>
        <time>2019-08-18T06:40:55Z</time>
      </trkpt>
      <trkpt lat="42.5183910" lon="-8.1271030">
        <ele>583.0</ele>
        <time>2019-08-18T06:40:56Z</time>
      </trkpt>
      <trkpt lat="42.5184030" lon="-8.1271110">
        <ele>583.0</ele>
        <time>2019-08-18T06:40:57Z</time>
      </trkpt>
      <trkpt lat="42.5184160" lon="-8.1271210">
        <ele>583.0</ele>
        <time>2019-08-18T06:40:58Z</time>
      </trkpt>
      <trkpt lat="42.5184290" lon="-8.1271300">
        <ele>583.3</ele>
        <time>2019-08-18T06:40:59Z</time>
      </trkpt>
      <trkpt lat="42.5184390" lon="-8.1271370">
        <ele>584.1</ele>
        <time>2019-08-18T06:41:00Z</time>
      </trkpt>
      <trkpt lat="42.5184470" lon="-8.1271430">
        <ele>584.1</ele>
        <time>2019-08-18T06:41:01Z</time>
      </trkpt>
      <trkpt lat="42.5184530" lon="-8.1271470">
        <ele>584.1</ele>
        <time>2019-08-18T06:41:02Z</time>
      </trkpt>
      <trkpt lat="42.5184570" lon="-8.1271500">
        <ele>584.4</ele>
        <time>2019-08-18T06:41:03Z</time>
      </trkpt>
      <trkpt lat="42.5184600" lon="-8.1271520">
        <ele>584.4</ele>
        <time>2019-08-18T06:41:04Z</time>
      </trkpt>
      <trkpt lat="42.5184620" lon="-8.1271530">
        <ele>584.4</ele>
        <time>2019-08-18T06:41:05Z</time>
      </trkpt>
      <trkpt lat="42.5184630" lon="-8.1271530">
        <ele>584.4</ele>
        <time>2019-08-18T06:41:06Z</time>
      </trkpt>
      <trkpt lat="42.5184630" lon="-8.1271530">
        <ele>584.5</ele>
        <time>2019-08-18T06:41:07Z</time>
      </trkpt>
      <trkpt lat="42.5184630" lon="-8.1271530">
        <ele>584.5</ele>
        <time>2019-08-18T06:41:08Z</time>
      </trkpt>
      <trkpt lat="42.5184630" lon="-8.1271530">
        <ele>584.5</ele>
        <time>2019-08-18T06:41:09Z</time>
      </trkpt>
      <trkpt lat="42.5184630" lon="-8.1271530">
        <ele>584.5</ele>
        <time>2019-08-18T06:41:10Z</time>
      </trkpt>
      <trkpt lat="42.5184640" lon="-8.1271540">
        <ele>584.5</ele>
        <time>2019-08-18T06:41:11Z</time>
      </trkpt>
      <trkpt lat="42.5184660" lon="-8.1271550">
        <ele>584.5</ele>
        <time>2019-08-18T06:41:12Z</time>
      </trkpt>
      <trkpt lat="42.5184690" lon="-8.1271570">
        <ele>584.5</ele>
        <time>2019-08-18T06:41:13Z</time>
      </trkpt>
      <trkpt lat="42.5184730" lon="-8.1271610">
        <ele>584.5</ele>
        <time>2019-08-18T06:41:14Z</time>
      </trkpt>
      <trkpt lat="42.5184790" lon="-8.1271660">
        <ele>584.5</ele>
        <time>2019-08-18T06:41:15Z</time>
      </trkpt>
      <trkpt lat="42.5184860" lon="-8.1271720">
        <ele>584.9</ele>
        <time>2019-08-18T06:41:16Z</time>
      </trkpt>
      <trkpt lat="42.5184940" lon="-8.1271780">
        <ele>584.9</ele>
        <time>2019-08-18T06:41:17Z</time>
      </trkpt>
      <trkpt lat="42.5185030" lon="-8.1271860">
        <ele>585.6</ele>
        <time>2019-08-18T06:41:18Z</time>
      </trkpt>
      <trkpt lat="42.5185100" lon="-8.1271930">
        <ele>585.6</ele>
        <time>2019-08-18T06:41:19Z</time>
      </trkpt>
      <trkpt lat="42.5185240" lon="-8.1272050">
        <ele>586.0</ele>
        <time>2019-08-18T06:41:20Z</time>
      </trkpt>
      <trkpt lat="42.5185320" lon="-8.1272080">
        <ele>586.0</ele>
        <time>2019-08-18T06:41:21Z</time>
      </trkpt>
      <trkpt lat="42.5185390" lon="-8.1272120">
        <ele>586.0</ele>
        <time>2019-08-18T06:41:22Z</time>
      </trkpt>
      <trkpt lat="42.5185460" lon="-8.1272150">
        <ele>586.0</ele>
        <time>2019-08-18T06:41:23Z</time>
      </trkpt>
      <trkpt lat="42.5185530" lon="-8.1272190">
        <ele>586.3</ele>
        <time>2019-08-18T06:41:24Z</time>
      </trkpt>
      <trkpt lat="42.5185610" lon="-8.1272220">
        <ele>586.3</ele>
        <time>2019-08-18T06:41:25Z</time>
      </trkpt>
      <trkpt lat="42.5185680" lon="-8.1272260">
        <ele>587.0</ele>
        <time>2019-08-18T06:41:26Z</time>
      </trkpt>
      <trkpt lat="42.5185750" lon="-8.1272300">
        <ele>587.1</ele>
        <time>2019-08-18T06:41:27Z</time>
      </trkpt>
      <trkpt lat="42.5185820" lon="-8.1272330">
        <ele>587.3</ele>
        <time>2019-08-18T06:41:28Z</time>
      </trkpt>
      <trkpt lat="42.5185900" lon="-8.1272370">
        <ele>587.4</ele>
        <time>2019-08-18T06:41:29Z</time>
      </trkpt>
      <trkpt lat="42.5185970" lon="-8.1272400">
        <ele>587.4</ele>
        <time>2019-08-18T06:41:30Z</time>
      </trkpt>
      <trkpt lat="42.5186040" lon="-8.1272440">
        <ele>587.4</ele>
        <time>2019-08-18T06:41:31Z</time>
      </trkpt>
      <trkpt lat="42.5186120" lon="-8.1272470">
        <ele>587.6</ele>
        <time>2019-08-18T06:41:32Z</time>
      </trkpt>
      <trkpt lat="42.5186190" lon="-8.1272510">
        <ele>587.7</ele>
        <time>2019-08-18T06:41:33Z</time>
      </trkpt>
      <trkpt lat="42.5186260" lon="-8.1272550">
        <ele>587.7</ele>
        <time>2019-08-18T06:41:34Z</time>
      </trkpt>
      <trkpt lat="42.5186330" lon="-8.1272580">
        <ele>587.7</ele>
        <time>2019-08-18T06:41:35Z</time>
      </trkpt>
      <trkpt lat="42.5186410" lon="-8.1272620">
        <ele>587.7</ele>
        <time>2019-08-18T06:41:36Z</time>
      </trkpt>
      <trkpt lat="42.5186480" lon="-8.1272650">
        <ele>588.6</ele>
        <time>2019-08-18T06:41:37Z</time>
      </trkpt>
      <trkpt lat="42.5186550" lon="-8.1272690">
        <ele>588.6</ele>
        <time>2019-08-18T06:41:38Z</time>
      </trkpt>
      <trkpt lat="42.5186620" lon="-8.1272730">
        <ele>588.6</ele>
        <time>2019-08-18T06:41:39Z</time>
      </trkpt>
      <trkpt lat="42.5186700" lon="-8.1272760">
        <ele>588.7</ele>
        <time>2019-08-18T06:41:40Z</time>
      </trkpt>
      <trkpt lat="42.5186770" lon="-8.1272800">
        <ele>588.9</ele>
        <time>2019-08-18T06:41:41Z</time>
      </trkpt>
      <trkpt lat="42.5186840" lon="-8.1272830">
        <ele>588.9</ele>
        <time>2019-08-18T06:41:42Z</time>
      </trkpt>
      <trkpt lat="42.5186910" lon="-8.1272870">
        <ele>588.9</ele>
        <time>2019-08-18T06:41:43Z</time>
      </trkpt>
      <trkpt lat="42.5186990" lon="-8.1272900">
        <ele>588.9</ele>
        <time>2019-08-18T06:41:44Z</time>
      </trkpt>
      <trkpt lat="42.5187060" lon="-8.1272940">
        <ele>588.9</ele>
        <time>2019-08-18T06:41:45Z</time>
      </trkpt>
      <trkpt lat="42.5187150" lon="-8.1273010">
        <ele>589.1</ele>
        <time>2019-08-18T06:41:46Z</time>
      </trkpt>
      <trkpt lat="42.5187240" lon="-8.1273040">
        <ele>589.1</ele>
        <time>2019-08-18T06:41:47Z</time>
      </trkpt>
      <trkpt lat="42.5187340" lon="-8.1273070">
        <ele>589.1</ele>
        <time>2019-08-18T06:41:48Z</time>
      </trkpt>
      <trkpt lat="42.5187470" lon="-8.1273220">
        <ele>589.9</ele>
        <time>2019-08-18T06:41:49Z</time>
      </trkpt>
      <trkpt lat="42.5187530" lon="-8.1273300">
        <ele>589.9</ele>
        <time>2019-08-18T06:41:50Z</time>
      </trkpt>
      <trkpt lat="42.5187540" lon="-8.1273320">
        <ele>589.9</ele>
        <time>2019-08-18T06:41:51Z</time>
      </trkpt>
      <trkpt lat="42.5187550" lon="-8.1273340">
        <ele>589.9</ele>
        <time>2019-08-18T06:41:52Z</time>
      </trkpt>
      <trkpt lat="42.5187570" lon="-8.1273360">
        <ele>589.9</ele>
        <time>2019-08-18T06:41:53Z</time>
      </trkpt>
      <trkpt lat="42.5187600" lon="-8.1273380">
        <ele>590.0</ele>
        <time>2019-08-18T06:41:54Z</time>
      </trkpt>
      <trkpt lat="42.5187650" lon="-8.1273400">
        <ele>590.0</ele>
        <time>2019-08-18T06:41:55Z</time>
      </trkpt>
      <trkpt lat="42.5187690" lon="-8.1273410">
        <ele>590.0</ele>
        <time>2019-08-18T06:41:56Z</time>
      </trkpt>
      <trkpt lat="42.5187750" lon="-8.1273410">
        <ele>590.1</ele>
        <time>2019-08-18T06:41:57Z</time>
      </trkpt>
      <trkpt lat="42.5187810" lon="-8.1273400">
        <ele>590.1</ele>
        <time>2019-08-18T06:41:58Z</time>
      </trkpt>
      <trkpt lat="42.5187870" lon="-8.1273380">
        <ele>590.1</ele>
        <time>2019-08-18T06:41:59Z</time>
      </trkpt>
      <trkpt lat="42.5187930" lon="-8.1273350">
        <ele>590.1</ele>
        <time>2019-08-18T06:42:00Z</time>
      </trkpt>
      <trkpt lat="42.5188000" lon="-8.1273310">
        <ele>590.1</ele>
        <time>2019-08-18T06:42:01Z</time>
      </trkpt>
      <trkpt lat="42.5188080" lon="-8.1273290">
        <ele>590.2</ele>
        <time>2019-08-18T06:42:02Z</time>
      </trkpt>
      <trkpt lat="42.5188170" lon="-8.1273300">
        <ele>590.2</ele>
        <time>2019-08-18T06:42:03Z</time>
      </trkpt>
      <trkpt lat="42.5188280" lon="-8.1273400">
        <ele>590.2</ele>
        <time>2019-08-18T06:42:04Z</time>
      </trkpt>
      <trkpt lat="42.5188410" lon="-8.1273440">
        <ele>590.3</ele>
        <time>2019-08-18T06:42:05Z</time>
      </trkpt>
      <trkpt lat="42.5188540" lon="-8.1273440">
        <ele>590.3</ele>
        <time>2019-08-18T06:42:06Z</time>
      </trkpt>
      <trkpt lat="42.5188620" lon="-8.1273480">
        <ele>590.3</ele>
        <time>2019-08-18T06:42:07Z</time>
      </trkpt>
      <trkpt lat="42.5188690" lon="-8.1273550">
        <ele>591.0</ele>
        <time>2019-08-18T06:42:08Z</time>
      </trkpt>
      <trkpt lat="42.5188750" lon="-8.1273630">
        <ele>591.0</ele>
        <time>2019-08-18T06:42:09Z</time>
      </trkpt>
      <trkpt lat="42.5188820" lon="-8.1273720">
        <ele>591.0</ele>
        <time>2019-08-18T06:42:10Z</time>
      </trkpt>
      <trkpt lat="42.5188900" lon="-8.1273800">
        <ele>591.0</ele>
        <time>2019-08-18T06:42:11Z</time>
      </trkpt>
      <trkpt lat="42.5188960" lon="-8.1273860">
        <ele>591.0</ele>
        <time>2019-08-18T06:42:12Z</time>
      </trkpt>
      <trkpt lat="42.5188990" lon="-8.1273890">
        <ele>591.1</ele>
        <time>2019-08-18T06:42:13Z</time>
      </trkpt>
      <trkpt lat="42.5189010" lon="-8.1273890">
        <ele>591.1</ele>
        <time>2019-08-18T06:42:14Z</time>
      </trkpt>
      <trkpt lat="42.5189020" lon="-8.1273900">
        <ele>591.1</ele>
        <time>2019-08-18T06:42:15Z</time>
      </trkpt>
      <trkpt lat="42.5189050" lon="-8.1273920">
        <ele>591.1</ele>
        <time>2019-08-18T06:42:16Z</time>
      </trkpt>
      <trkpt lat="42.5189150" lon="-8.1273960">
        <ele>591.7</ele>
        <time>2019-08-18T06:42:17Z</time>
      </trkpt>
      <trkpt lat="42.5189270" lon="-8.1274010">
        <ele>591.7</ele>
        <time>2019-08-18T06:42:18Z</time>
      </trkpt>
      <trkpt lat="42.5189390" lon="-8.1274070">
        <ele>591.7</ele>
        <time>2019-08-18T06:42:19Z</time>
      </trkpt>
      <trkpt lat="42.5189490" lon="-8.1274100">
        <ele>591.7</ele>
        <time>2019-08-18T06:42:20Z</time>
      </trkpt>
      <trkpt lat="42.5189530" lon="-8.1274140">
        <ele>591.7</ele>
        <time>2019-08-18T06:42:21Z</time>
      </trkpt>
      <trkpt lat="42.5189640" lon="-8.1274180">
        <ele>591.8</ele>
        <time>2019-08-18T06:42:22Z</time>
      </trkpt>
      <trkpt lat="42.5189760" lon="-8.1274210">
        <ele>591.8</ele>
        <time>2019-08-18T06:42:23Z</time>
      </trkpt>
      <trkpt lat="42.5189840" lon="-8.1274240">
        <ele>591.8</ele>
        <time>2019-08-18T06:42:24Z</time>
      </trkpt>
      <trkpt lat="42.5189890" lon="-8.1274250">
        <ele>591.8</ele>
        <time>2019-08-18T06:42:25Z</time>
      </trkpt>
      <trkpt lat="42.5189920" lon="-8.1274270">
        <ele>591.8</ele>
        <time>2019-08-18T06:42:26Z</time>
      </trkpt>
      <trkpt lat="42.5189920" lon="-8.1274270">
        <ele>591.8</ele>
        <time>2019-08-18T06:42:27Z</time>
      </trkpt>
      <trkpt lat="42.5189920" lon="-8.1274270">
        <ele>591.8</ele>
        <time>2019-08-18T06:42:28Z</time>
      </trkpt>
      <trkpt lat="42.5189920" lon="-8.1274270">
        <ele>591.8</ele>
        <time>2019-08-18T06:42:29Z</time>
      </trkpt>
      <trkpt lat="42.5189930" lon="-8.1274280">
        <ele>591.9</ele>
        <time>2019-08-18T06:42:30Z</time>
      </trkpt>
      <trkpt lat="42.5189940" lon="-8.1274300">
        <ele>591.9</ele>
        <time>2019-08-18T06:42:31Z</time>
      </trkpt>
      <trkpt lat="42.5189960" lon="-8.1274330">
        <ele>591.9</ele>
        <time>2019-08-18T06:42:32Z</time>
      </trkpt>
      <trkpt lat="42.5190000" lon="-8.1274400">
        <ele>592.4</ele>
        <time>2019-08-18T06:42:33Z</time>
      </trkpt>
      <trkpt lat="42.5190060" lon="-8.1274490">
        <ele>592.4</ele>
        <time>2019-08-18T06:42:34Z</time>
      </trkpt>
      <trkpt lat="42.5190140" lon="-8.1274620">
        <ele>592.4</ele>
        <time>2019-08-18T06:42:35Z</time>
      </trkpt>
      <trkpt lat="42.5190220" lon="-8.1274770">
        <ele>592.4</ele>
        <time>2019-08-18T06:42:36Z</time>
      </trkpt>
      <trkpt lat="42.5190320" lon="-8.1274920">
        <ele>592.9</ele>
        <time>2019-08-18T06:42:37Z</time>
      </trkpt>
      <trkpt lat="42.5190400" lon="-8.1275050">
        <ele>592.9</ele>
        <time>2019-08-18T06:42:38Z</time>
      </trkpt>
      <trkpt lat="42.5190470" lon="-8.1275160">
        <ele>592.9</ele>
        <time>2019-08-18T06:42:39Z</time>
      </trkpt>
      <trkpt lat="42.5190620" lon="-8.1275390">
        <ele>593.3</ele>
        <time>2019-08-18T06:42:40Z</time>
      </trkpt>
      <trkpt lat="42.5190710" lon="-8.1275520">
        <ele>593.3</ele>
        <time>2019-08-18T06:42:41Z</time>
      </trkpt>
      <trkpt lat="42.5190790" lon="-8.1275650">
        <ele>593.3</ele>
        <time>2019-08-18T06:42:42Z</time>
      </trkpt>
      <trkpt lat="42.5190870" lon="-8.1275790">
        <ele>593.6</ele>
        <time>2019-08-18T06:42:43Z</time>
      </trkpt>
      <trkpt lat="42.5190950" lon="-8.1275920">
        <ele>593.6</ele>
        <time>2019-08-18T06:42:44Z</time>
      </trkpt>
      <trkpt lat="42.5191040" lon="-8.1276050">
        <ele>593.6</ele>
        <time>2019-08-18T06:42:45Z</time>
      </trkpt>
      <trkpt lat="42.5191120" lon="-8.1276180">
        <ele>593.8</ele>
        <time>2019-08-18T06:42:46Z</time>
      </trkpt>
      <trkpt lat="42.5191200" lon="-8.1276310">
        <ele>593.8</ele>
        <time>2019-08-18T06:42:47Z</time>
      </trkpt>
      <trkpt lat="42.5191280" lon="-8.1276440">
        <ele>593.8</ele>
        <time>2019-08-18T06:42:48Z</time>
      </trkpt>
      <trkpt lat="42.5191370" lon="-8.1276580">
        <ele>593.9</ele>
        <time>2019-08-18T06:42:49Z</time>
      </trkpt>
      <trkpt lat="42.5191450" lon="-8.1276710">
        <ele>593.9</ele>
        <time>2019-08-18T06:42:50Z</time>
      </trkpt>
      <trkpt lat="42.5191530" lon="-8.1276840">
        <ele>593.9</ele>
        <time>2019-08-18T06:42:51Z</time>
      </trkpt>
      <trkpt lat="42.5191620" lon="-8.1276970">
        <ele>594.0</ele>
        <time>2019-08-18T06:42:52Z</time>
      </trkpt>
      <trkpt lat="42.5191700" lon="-8.1277100">
        <ele>594.0</ele>
        <time>2019-08-18T06:42:53Z</time>
      </trkpt>
      <trkpt lat="42.5191780" lon="-8.1277230">
        <ele>594.0</ele>
        <time>2019-08-18T06:42:54Z</time>
      </trkpt>
      <trkpt lat="42.5191860" lon="-8.1277360">
        <ele>593.9</ele>
        <time>2019-08-18T06:42:55Z</time>
      </trkpt>
      <trkpt lat="42.5191950" lon="-8.1277500">
        <ele>594.0</ele>
        <time>2019-08-18T06:42:56Z</time>
      </trkpt>
      <trkpt lat="42.5192030" lon="-8.1277630">
        <ele>594.0</ele>
        <time>2019-08-18T06:42:57Z</time>
      </trkpt>
      <trkpt lat="42.5192110" lon="-8.1277760">
        <ele>594.0</ele>
        <time>2019-08-18T06:42:58Z</time>
      </trkpt>
      <trkpt lat="42.5192190" lon="-8.1277890">
        <ele>594.0</ele>
        <time>2019-08-18T06:42:59Z</time>
      </trkpt>
      <trkpt lat="42.5192280" lon="-8.1278020">
        <ele>594.0</ele>
        <time>2019-08-18T06:43:00Z</time>
      </trkpt>
      <trkpt lat="42.5192360" lon="-8.1278150">
        <ele>594.0</ele>
        <time>2019-08-18T06:43:01Z</time>
      </trkpt>
      <trkpt lat="42.5192440" lon="-8.1278290">
        <ele>594.1</ele>
        <time>2019-08-18T06:43:02Z</time>
      </trkpt>
      <trkpt lat="42.5192520" lon="-8.1278420">
        <ele>594.0</ele>
        <time>2019-08-18T06:43:03Z</time>
      </trkpt>
      <trkpt lat="42.5192610" lon="-8.1278550">
        <ele>594.0</ele>
        <time>2019-08-18T06:43:04Z</time>
      </trkpt>
      <trkpt lat="42.5192690" lon="-8.1278680">
        <ele>594.2</ele>
        <time>2019-08-18T06:43:05Z</time>
      </trkpt>
      <trkpt lat="42.5192790" lon="-8.1278840">
        <ele>594.1</ele>
        <time>2019-08-18T06:43:06Z</time>
      </trkpt>
      <trkpt lat="42.5192870" lon="-8.1279000">
        <ele>594.1</ele>
        <time>2019-08-18T06:43:07Z</time>
      </trkpt>
      <trkpt lat="42.5192960" lon="-8.1279130">
        <ele>594.3</ele>
        <time>2019-08-18T06:43:08Z</time>
      </trkpt>
      <trkpt lat="42.5193030" lon="-8.1279230">
        <ele>594.3</ele>
        <time>2019-08-18T06:43:09Z</time>
      </trkpt>
      <trkpt lat="42.5193090" lon="-8.1279310">
        <ele>594.3</ele>
        <time>2019-08-18T06:43:10Z</time>
      </trkpt>
      <trkpt lat="42.5193150" lon="-8.1279380">
        <ele>594.3</ele>
        <time>2019-08-18T06:43:11Z</time>
      </trkpt>
      <trkpt lat="42.5193190" lon="-8.1279450">
        <ele>594.3</ele>
        <time>2019-08-18T06:43:12Z</time>
      </trkpt>
      <trkpt lat="42.5193250" lon="-8.1279530">
        <ele>594.5</ele>
        <time>2019-08-18T06:43:13Z</time>
      </trkpt>
      <trkpt lat="42.5193310" lon="-8.1279620">
        <ele>594.6</ele>
        <time>2019-08-18T06:43:14Z</time>
      </trkpt>
      <trkpt lat="42.5193400" lon="-8.1279740">
        <ele>594.5</ele>
        <time>2019-08-18T06:43:15Z</time>
      </trkpt>
      <trkpt lat="42.5193510" lon="-8.1279890">
        <ele>594.5</ele>
        <time>2019-08-18T06:43:16Z</time>
      </trkpt>
      <trkpt lat="42.5193620" lon="-8.1280030">
        <ele>594.8</ele>
        <time>2019-08-18T06:43:17Z</time>
      </trkpt>
      <trkpt lat="42.5193710" lon="-8.1280150">
        <ele>594.8</ele>
        <time>2019-08-18T06:43:18Z</time>
      </trkpt>
      <trkpt lat="42.5193850" lon="-8.1280320">
        <ele>594.7</ele>
        <time>2019-08-18T06:43:19Z</time>
      </trkpt>
      <trkpt lat="42.5193990" lon="-8.1280460">
        <ele>595.1</ele>
        <time>2019-08-18T06:43:20Z</time>
      </trkpt>
      <trkpt lat="42.5194120" lon="-8.1280560">
        <ele>595.0</ele>
        <time>2019-08-18T06:43:21Z</time>
      </trkpt>
      <trkpt lat="42.5194210" lon="-8.1280630">
        <ele>595.0</ele>
        <time>2019-08-18T06:43:22Z</time>
      </trkpt>
      <trkpt lat="42.5194290" lon="-8.1280690">
        <ele>595.0</ele>
        <time>2019-08-18T06:43:23Z</time>
      </trkpt>
      <trkpt lat="42.5194380" lon="-8.1280760">
        <ele>595.0</ele>
        <time>2019-08-18T06:43:24Z</time>
      </trkpt>
      <trkpt lat="42.5194480" lon="-8.1280850">
        <ele>595.3</ele>
        <time>2019-08-18T06:43:25Z</time>
      </trkpt>
      <trkpt lat="42.5194590" lon="-8.1280950">
        <ele>595.3</ele>
        <time>2019-08-18T06:43:26Z</time>
      </trkpt>
      <trkpt lat="42.5194720" lon="-8.1281090">
        <ele>595.3</ele>
        <time>2019-08-18T06:43:27Z</time>
      </trkpt>
      <trkpt lat="42.5194830" lon="-8.1281220">
        <ele>595.3</ele>
        <time>2019-08-18T06:43:28Z</time>
      </trkpt>
      <trkpt lat="42.5194900" lon="-8.1281350">
        <ele>595.6</ele>
        <time>2019-08-18T06:43:29Z</time>
      </trkpt>
      <trkpt lat="42.5194970" lon="-8.1281470">
        <ele>595.6</ele>
        <time>2019-08-18T06:43:30Z</time>
      </trkpt>
      <trkpt lat="42.5195040" lon="-8.1281600">
        <ele>595.6</ele>
        <time>2019-08-18T06:43:31Z</time>
      </trkpt>
      <trkpt lat="42.5195130" lon="-8.1281720">
        <ele>596.0</ele>
        <time>2019-08-18T06:43:32Z</time>
      </trkpt>
      <trkpt lat="42.5195220" lon="-8.1281840">
        <ele>596.0</ele>
        <time>2019-08-18T06:43:33Z</time>
      </trkpt>
      <trkpt lat="42.5195310" lon="-8.1281950">
        <ele>595.9</ele>
        <time>2019-08-18T06:43:34Z</time>
      </trkpt>
      <trkpt lat="42.5195400" lon="-8.1282060">
        <ele>595.9</ele>
        <time>2019-08-18T06:43:35Z</time>
      </trkpt>
      <trkpt lat="42.5195490" lon="-8.1282170">
        <ele>596.4</ele>
        <time>2019-08-18T06:43:36Z</time>
      </trkpt>
      <trkpt lat="42.5195590" lon="-8.1282270">
        <ele>596.4</ele>
        <time>2019-08-18T06:43:37Z</time>
      </trkpt>
      <trkpt lat="42.5195690" lon="-8.1282370">
        <ele>596.3</ele>
        <time>2019-08-18T06:43:38Z</time>
      </trkpt>
      <trkpt lat="42.5195790" lon="-8.1282460">
        <ele>596.4</ele>
        <time>2019-08-18T06:43:39Z</time>
      </trkpt>
      <trkpt lat="42.5195890" lon="-8.1282540">
        <ele>596.9</ele>
        <time>2019-08-18T06:43:40Z</time>
      </trkpt>
      <trkpt lat="42.5196000" lon="-8.1282610">
        <ele>596.8</ele>
        <time>2019-08-18T06:43:41Z</time>
      </trkpt>
      <trkpt lat="42.5196110" lon="-8.1282680">
        <ele>596.8</ele>
        <time>2019-08-18T06:43:42Z</time>
      </trkpt>
      <trkpt lat="42.5196200" lon="-8.1282750">
        <ele>596.9</ele>
        <time>2019-08-18T06:43:43Z</time>
      </trkpt>
      <trkpt lat="42.5196300" lon="-8.1282810">
        <ele>596.8</ele>
        <time>2019-08-18T06:43:44Z</time>
      </trkpt>
      <trkpt lat="42.5196410" lon="-8.1282850">
        <ele>596.8</ele>
        <time>2019-08-18T06:43:45Z</time>
      </trkpt>
      <trkpt lat="42.5196540" lon="-8.1283030">
        <ele>597.4</ele>
        <time>2019-08-18T06:43:46Z</time>
      </trkpt>
      <trkpt lat="42.5196570" lon="-8.1283150">
        <ele>597.4</ele>
        <time>2019-08-18T06:43:47Z</time>
      </trkpt>
      <trkpt lat="42.5196590" lon="-8.1283280">
        <ele>597.4</ele>
        <time>2019-08-18T06:43:48Z</time>
      </trkpt>
      <trkpt lat="42.5196620" lon="-8.1283400">
        <ele>598.0</ele>
        <time>2019-08-18T06:43:49Z</time>
      </trkpt>
      <trkpt lat="42.5196650" lon="-8.1283520">
        <ele>598.0</ele>
        <time>2019-08-18T06:43:50Z</time>
      </trkpt>
      <trkpt lat="42.5196680" lon="-8.1283640">
        <ele>598.0</ele>
        <time>2019-08-18T06:43:51Z</time>
      </trkpt>
      <trkpt lat="42.5196700" lon="-8.1283770">
        <ele>598.0</ele>
        <time>2019-08-18T06:43:52Z</time>
      </trkpt>
      <trkpt lat="42.5196730" lon="-8.1283890">
        <ele>598.6</ele>
        <time>2019-08-18T06:43:53Z</time>
      </trkpt>
      <trkpt lat="42.5196760" lon="-8.1284010">
        <ele>598.6</ele>
        <time>2019-08-18T06:43:54Z</time>
      </trkpt>
      <trkpt lat="42.5196790" lon="-8.1284130">
        <ele>598.6</ele>
        <time>2019-08-18T06:43:55Z</time>
      </trkpt>
      <trkpt lat="42.5196810" lon="-8.1284260">
        <ele>599.0</ele>
        <time>2019-08-18T06:43:56Z</time>
      </trkpt>
      <trkpt lat="42.5196840" lon="-8.1284380">
        <ele>599.0</ele>
        <time>2019-08-18T06:43:57Z</time>
      </trkpt>
      <trkpt lat="42.5196870" lon="-8.1284500">
        <ele>599.1</ele>
        <time>2019-08-18T06:43:58Z</time>
      </trkpt>
      <trkpt lat="42.5196910" lon="-8.1284600">
        <ele>599.1</ele>
        <time>2019-08-18T06:43:59Z</time>
      </trkpt>
      <trkpt lat="42.5197080" lon="-8.1284710">
        <ele>599.4</ele>
        <time>2019-08-18T06:44:00Z</time>
      </trkpt>
      <trkpt lat="42.5197180" lon="-8.1284730">
        <ele>599.4</ele>
        <time>2019-08-18T06:44:01Z</time>
      </trkpt>
      <trkpt lat="42.5197280" lon="-8.1284760">
        <ele>599.5</ele>
        <time>2019-08-18T06:44:02Z</time>
      </trkpt>
      <trkpt lat="42.5197380" lon="-8.1284790">
        <ele>599.5</ele>
        <time>2019-08-18T06:44:03Z</time>
      </trkpt>
      <trkpt lat="42.5197490" lon="-8.1284810">
        <ele>599.5</ele>
        <time>2019-08-18T06:44:04Z</time>
      </trkpt>
      <trkpt lat="42.5197590" lon="-8.1284840">
        <ele>599.5</ele>
        <time>2019-08-18T06:44:05Z</time>
      </trkpt>
      <trkpt lat="42.5197690" lon="-8.1284860">
        <ele>599.5</ele>
        <time>2019-08-18T06:44:06Z</time>
      </trkpt>
      <trkpt lat="42.5197790" lon="-8.1284890">
        <ele>599.5</ele>
        <time>2019-08-18T06:44:07Z</time>
      </trkpt>
      <trkpt lat="42.5197890" lon="-8.1284920">
        <ele>599.6</ele>
        <time>2019-08-18T06:44:08Z</time>
      </trkpt>
      <trkpt lat="42.5197990" lon="-8.1284940">
        <ele>599.6</ele>
        <time>2019-08-18T06:44:09Z</time>
      </trkpt>
      <trkpt lat="42.5198090" lon="-8.1284970">
        <ele>599.6</ele>
        <time>2019-08-18T06:44:10Z</time>
      </trkpt>
      <trkpt lat="42.5198190" lon="-8.1285000">
        <ele>599.6</ele>
        <time>2019-08-18T06:44:11Z</time>
      </trkpt>
      <trkpt lat="42.5198290" lon="-8.1285020">
        <ele>599.7</ele>
        <time>2019-08-18T06:44:12Z</time>
      </trkpt>
      <trkpt lat="42.5198390" lon="-8.1285050">
        <ele>599.7</ele>
        <time>2019-08-18T06:44:13Z</time>
      </trkpt>
      <trkpt lat="42.5198500" lon="-8.1285070">
        <ele>599.7</ele>
        <time>2019-08-18T06:44:14Z</time>
      </trkpt>
      <trkpt lat="42.5198600" lon="-8.1285100">
        <ele>600.2</ele>
        <time>2019-08-18T06:44:15Z</time>
      </trkpt>
      <trkpt lat="42.5198700" lon="-8.1285130">
        <ele>600.2</ele>
        <time>2019-08-18T06:44:16Z</time>
      </trkpt>
      <trkpt lat="42.5198800" lon="-8.1285150">
        <ele>600.3</ele>
        <time>2019-08-18T06:44:17Z</time>
      </trkpt>
      <trkpt lat="42.5198900" lon="-8.1285180">
        <ele>600.3</ele>
        <time>2019-08-18T06:44:18Z</time>
      </trkpt>
      <trkpt lat="42.5199010" lon="-8.1285140">
        <ele>600.3</ele>
        <time>2019-08-18T06:44:19Z</time>
      </trkpt>
      <trkpt lat="42.5199150" lon="-8.1285090">
        <ele>599.9</ele>
        <time>2019-08-18T06:44:20Z</time>
      </trkpt>
      <trkpt lat="42.5199310" lon="-8.1285030">
        <ele>599.9</ele>
        <time>2019-08-18T06:44:21Z</time>
      </trkpt>
      <trkpt lat="42.5199470" lon="-8.1285000">
        <ele>600.0</ele>
        <time>2019-08-18T06:44:22Z</time>
      </trkpt>
      <trkpt lat="42.5199650" lon="-8.1284980">
        <ele>600.0</ele>
        <time>2019-08-18T06:44:23Z</time>
      </trkpt>
      <trkpt lat="42.5199840" lon="-8.1284960">
        <ele>600.1</ele>
        <time>2019-08-18T06:44:24Z</time>
      </trkpt>
      <trkpt lat="42.5200040" lon="-8.1284940">
        <ele>600.2</ele>
        <time>2019-08-18T06:44:25Z</time>
      </trkpt>
      <trkpt lat="42.5200260" lon="-8.1284920">
        <ele>600.2</ele>
        <time>2019-08-18T06:44:26Z</time>
      </trkpt>
      <trkpt lat="42.5200490" lon="-8.1284900">
        <ele>600.3</ele>
        <time>2019-08-18T06:44:27Z</time>
      </trkpt>
      <trkpt lat="42.5200720" lon="-8.1284890">
        <ele>600.4</ele>
        <time>2019-08-18T06:44:28Z</time>
      </trkpt>
      <trkpt lat="42.5200960" lon="-8.1284900">
        <ele>600.4</ele>
        <time>2019-08-18T06:44:29Z</time>
      </trkpt>
      <trkpt lat="42.5201310" lon="-8.1284950">
        <ele>600.5</ele>
        <time>2019-08-18T06:44:30Z</time>
      </trkpt>
      <trkpt lat="42.5201420" lon="-8.1284980">
        <ele>600.5</ele>
        <time>2019-08-18T06:44:31Z</time>
      </trkpt>
      <trkpt lat="42.5201630" lon="-8.1285070">
        <ele>600.6</ele>
        <time>2019-08-18T06:44:32Z</time>
      </trkpt>
      <trkpt lat="42.5201840" lon="-8.1285190">
        <ele>601.1</ele>
        <time>2019-08-18T06:44:33Z</time>
      </trkpt>
      <trkpt lat="42.5202030" lon="-8.1285340">
        <ele>601.1</ele>
        <time>2019-08-18T06:44:34Z</time>
      </trkpt>
      <trkpt lat="42.5202230" lon="-8.1285510">
        <ele>601.1</ele>
        <time>2019-08-18T06:44:35Z</time>
      </trkpt>
      <trkpt lat="42.5202420" lon="-8.1285710">
        <ele>601.7</ele>
        <time>2019-08-18T06:44:36Z</time>
      </trkpt>
      <trkpt lat="42.5202620" lon="-8.1285920">
        <ele>601.7</ele>
        <time>2019-08-18T06:44:37Z</time>
      </trkpt>
      <trkpt lat="42.5202820" lon="-8.1286150">
        <ele>602.2</ele>
        <time>2019-08-18T06:44:38Z</time>
      </trkpt>
      <trkpt lat="42.5203030" lon="-8.1286380">
        <ele>602.2</ele>
        <time>2019-08-18T06:44:39Z</time>
      </trkpt>
      <trkpt lat="42.5203240" lon="-8.1286630">
        <ele>602.7</ele>
        <time>2019-08-18T06:44:40Z</time>
      </trkpt>
      <trkpt lat="42.5203450" lon="-8.1286880">
        <ele>603.2</ele>
        <time>2019-08-18T06:44:41Z</time>
      </trkpt>
      <trkpt lat="42.5203650" lon="-8.1287120">
        <ele>603.2</ele>
        <time>2019-08-18T06:44:42Z</time>
      </trkpt>
      <trkpt lat="42.5203830" lon="-8.1287360">
        <ele>603.7</ele>
        <time>2019-08-18T06:44:43Z</time>
      </trkpt>
      <trkpt lat="42.5204000" lon="-8.1287580">
        <ele>603.7</ele>
        <time>2019-08-18T06:44:44Z</time>
      </trkpt>
      <trkpt lat="42.5204140" lon="-8.1287790">
        <ele>604.2</ele>
        <time>2019-08-18T06:44:45Z</time>
      </trkpt>
      <trkpt lat="42.5204260" lon="-8.1287970">
        <ele>604.2</ele>
        <time>2019-08-18T06:44:46Z</time>
      </trkpt>
      <trkpt lat="42.5204340" lon="-8.1288120">
        <ele>604.7</ele>
        <time>2019-08-18T06:44:47Z</time>
      </trkpt>
      <trkpt lat="42.5204390" lon="-8.1288250">
        <ele>604.7</ele>
        <time>2019-08-18T06:44:48Z</time>
      </trkpt>
      <trkpt lat="42.5204420" lon="-8.1288340">
        <ele>604.7</ele>
        <time>2019-08-18T06:44:49Z</time>
      </trkpt>
      <trkpt lat="42.5204430" lon="-8.1288400">
        <ele>604.7</ele>
        <time>2019-08-18T06:44:50Z</time>
      </trkpt>
      <trkpt lat="42.5204430" lon="-8.1288420">
        <ele>604.7</ele>
        <time>2019-08-18T06:44:51Z</time>
      </trkpt>
      <trkpt lat="42.5204430" lon="-8.1288440">
        <ele>604.7</ele>
        <time>2019-08-18T06:44:52Z</time>
      </trkpt>
      <trkpt lat="42.5204450" lon="-8.1288470">
        <ele>604.7</ele>
        <time>2019-08-18T06:44:53Z</time>
      </trkpt>
      <trkpt lat="42.5204500" lon="-8.1288550">
        <ele>605.2</ele>
        <time>2019-08-18T06:44:54Z</time>
      </trkpt>
      <trkpt lat="42.5204590" lon="-8.1288690">
        <ele>605.2</ele>
        <time>2019-08-18T06:44:55Z</time>
      </trkpt>
      <trkpt lat="42.5204700" lon="-8.1288880">
        <ele>605.2</ele>
        <time>2019-08-18T06:44:56Z</time>
      </trkpt>
      <trkpt lat="42.5204830" lon="-8.1289140">
        <ele>605.7</ele>
        <time>2019-08-18T06:44:57Z</time>
      </trkpt>
      <trkpt lat="42.5204980" lon="-8.1289460">
        <ele>606.2</ele>
        <time>2019-08-18T06:44:58Z</time>
      </trkpt>
      <trkpt lat="42.5205150" lon="-8.1289830">
        <ele>606.6</ele>
        <time>2019-08-18T06:44:59Z</time>
      </trkpt>
      <trkpt lat="42.5205320" lon="-8.1290220">
        <ele>606.6</ele>
        <time>2019-08-18T06:45:00Z</time>
      </trkpt>
      <trkpt lat="42.5205500" lon="-8.1290620">
        <ele>606.9</ele>
        <time>2019-08-18T06:45:01Z</time>
      </trkpt>
      <trkpt lat="42.5205690" lon="-8.1291030">
        <ele>607.4</ele>
        <time>2019-08-18T06:45:02Z</time>
      </trkpt>
      <trkpt lat="42.5205880" lon="-8.1291420">
        <ele>607.8</ele>
        <time>2019-08-18T06:45:03Z</time>
      </trkpt>
      <trkpt lat="42.5206080" lon="-8.1291810">
        <ele>608.1</ele>
        <time>2019-08-18T06:45:04Z</time>
      </trkpt>
      <trkpt lat="42.5206280" lon="-8.1292200">
        <ele>608.6</ele>
        <time>2019-08-18T06:45:05Z</time>
      </trkpt>
      <trkpt lat="42.5206490" lon="-8.1292570">
        <ele>608.9</ele>
        <time>2019-08-18T06:45:06Z</time>
      </trkpt>
      <trkpt lat="42.5206690" lon="-8.1292930">
        <ele>609.2</ele>
        <time>2019-08-18T06:45:07Z</time>
      </trkpt>
      <trkpt lat="42.5206900" lon="-8.1293270">
        <ele>609.7</ele>
        <time>2019-08-18T06:45:08Z</time>
      </trkpt>
      <trkpt lat="42.5207110" lon="-8.1293610">
        <ele>609.5</ele>
        <time>2019-08-18T06:45:09Z</time>
      </trkpt>
      <trkpt lat="42.5207310" lon="-8.1293930">
        <ele>610.0</ele>
        <time>2019-08-18T06:45:10Z</time>
      </trkpt>
      <trkpt lat="42.5207520" lon="-8.1294240">
        <ele>610.3</ele>
        <time>2019-08-18T06:45:11Z</time>
      </trkpt>
      <trkpt lat="42.5207730" lon="-8.1294540">
        <ele>610.7</ele>
        <time>2019-08-18T06:45:12Z</time>
      </trkpt>
      <trkpt lat="42.5207930" lon="-8.1294850">
        <ele>610.7</ele>
        <time>2019-08-18T06:45:13Z</time>
      </trkpt>
      <trkpt lat="42.5208130" lon="-8.1295150">
        <ele>611.0</ele>
        <time>2019-08-18T06:45:14Z</time>
      </trkpt>
      <trkpt lat="42.5208340" lon="-8.1295450">
        <ele>611.3</ele>
        <time>2019-08-18T06:45:15Z</time>
      </trkpt>
      <trkpt lat="42.5208540" lon="-8.1295750">
        <ele>611.3</ele>
        <time>2019-08-18T06:45:16Z</time>
      </trkpt>
      <trkpt lat="42.5208740" lon="-8.1296060">
        <ele>611.6</ele>
        <time>2019-08-18T06:45:17Z</time>
      </trkpt>
      <trkpt lat="42.5208940" lon="-8.1296370">
        <ele>611.9</ele>
        <time>2019-08-18T06:45:18Z</time>
      </trkpt>
      <trkpt lat="42.5209140" lon="-8.1296670">
        <ele>611.9</ele>
        <time>2019-08-18T06:45:19Z</time>
      </trkpt>
      <trkpt lat="42.5209330" lon="-8.1296970">
        <ele>612.3</ele>
        <time>2019-08-18T06:45:20Z</time>
      </trkpt>
      <trkpt lat="42.5209510" lon="-8.1297250">
        <ele>612.7</ele>
        <time>2019-08-18T06:45:21Z</time>
      </trkpt>
      <trkpt lat="42.5209680" lon="-8.1297510">
        <ele>612.6</ele>
        <time>2019-08-18T06:45:22Z</time>
      </trkpt>
      <trkpt lat="42.5209840" lon="-8.1297740">
        <ele>613.0</ele>
        <time>2019-08-18T06:45:23Z</time>
      </trkpt>
      <trkpt lat="42.5210000" lon="-8.1297950">
        <ele>612.8</ele>
        <time>2019-08-18T06:45:24Z</time>
      </trkpt>
      <trkpt lat="42.5210140" lon="-8.1298140">
        <ele>613.3</ele>
        <time>2019-08-18T06:45:25Z</time>
      </trkpt>
      <trkpt lat="42.5210280" lon="-8.1298330">
        <ele>613.1</ele>
        <time>2019-08-18T06:45:26Z</time>
      </trkpt>
      <trkpt lat="42.5210500" lon="-8.1298660">
        <ele>613.3</ele>
        <time>2019-08-18T06:45:27Z</time>
      </trkpt>
      <trkpt lat="42.5210570" lon="-8.1298780">
        <ele>613.3</ele>
        <time>2019-08-18T06:45:28Z</time>
      </trkpt>
      <trkpt lat="42.5210720" lon="-8.1299040">
        <ele>613.9</ele>
        <time>2019-08-18T06:45:29Z</time>
      </trkpt>
      <trkpt lat="42.5210870" lon="-8.1299310">
        <ele>614.0</ele>
        <time>2019-08-18T06:45:30Z</time>
      </trkpt>
      <trkpt lat="42.5211020" lon="-8.1299570">
        <ele>614.0</ele>
        <time>2019-08-18T06:45:31Z</time>
      </trkpt>
      <trkpt lat="42.5211160" lon="-8.1299840">
        <ele>614.2</ele>
        <time>2019-08-18T06:45:32Z</time>
      </trkpt>
      <trkpt lat="42.5211300" lon="-8.1300100">
        <ele>614.2</ele>
        <time>2019-08-18T06:45:33Z</time>
      </trkpt>
      <trkpt lat="42.5211430" lon="-8.1300360">
        <ele>614.4</ele>
        <time>2019-08-18T06:45:34Z</time>
      </trkpt>
      <trkpt lat="42.5211560" lon="-8.1300630">
        <ele>614.7</ele>
        <time>2019-08-18T06:45:35Z</time>
      </trkpt>
      <trkpt lat="42.5211670" lon="-8.1300900">
        <ele>614.7</ele>
        <time>2019-08-18T06:45:36Z</time>
      </trkpt>
      <trkpt lat="42.5211780" lon="-8.1301180">
        <ele>614.9</ele>
        <time>2019-08-18T06:45:37Z</time>
      </trkpt>
      <trkpt lat="42.5211880" lon="-8.1301480">
        <ele>615.1</ele>
        <time>2019-08-18T06:45:38Z</time>
      </trkpt>
      <trkpt lat="42.5211980" lon="-8.1301780">
        <ele>615.1</ele>
        <time>2019-08-18T06:45:39Z</time>
      </trkpt>
      <trkpt lat="42.5212080" lon="-8.1302080">
        <ele>615.3</ele>
        <time>2019-08-18T06:45:40Z</time>
      </trkpt>
      <trkpt lat="42.5212170" lon="-8.1302380">
        <ele>615.5</ele>
        <time>2019-08-18T06:45:41Z</time>
      </trkpt>
      <trkpt lat="42.5212270" lon="-8.1302680">
        <ele>615.5</ele>
        <time>2019-08-18T06:45:42Z</time>
      </trkpt>
      <trkpt lat="42.5212380" lon="-8.1302970">
        <ele>615.7</ele>
        <time>2019-08-18T06:45:43Z</time>
      </trkpt>
      <trkpt lat="42.5212500" lon="-8.1303240">
        <ele>615.8</ele>
        <time>2019-08-18T06:45:44Z</time>
      </trkpt>
      <trkpt lat="42.5212630" lon="-8.1303500">
        <ele>615.8</ele>
        <time>2019-08-18T06:45:45Z</time>
      </trkpt>
      <trkpt lat="42.5212780" lon="-8.1303730">
        <ele>616.0</ele>
        <time>2019-08-18T06:45:46Z</time>
      </trkpt>
      <trkpt lat="42.5212940" lon="-8.1303950">
        <ele>616.0</ele>
        <time>2019-08-18T06:45:47Z</time>
      </trkpt>
      <trkpt lat="42.5213120" lon="-8.1304160">
        <ele>616.2</ele>
        <time>2019-08-18T06:45:48Z</time>
      </trkpt>
      <trkpt lat="42.5213310" lon="-8.1304370">
        <ele>616.2</ele>
        <time>2019-08-18T06:45:49Z</time>
      </trkpt>
      <trkpt lat="42.5213500" lon="-8.1304580">
        <ele>616.3</ele>
        <time>2019-08-18T06:45:50Z</time>
      </trkpt>
      <trkpt lat="42.5213700" lon="-8.1304810">
        <ele>616.4</ele>
        <time>2019-08-18T06:45:51Z</time>
      </trkpt>
      <trkpt lat="42.5213910" lon="-8.1305060">
        <ele>616.5</ele>
        <time>2019-08-18T06:45:52Z</time>
      </trkpt>
      <trkpt lat="42.5214110" lon="-8.1305330">
        <ele>616.7</ele>
        <time>2019-08-18T06:45:53Z</time>
      </trkpt>
      <trkpt lat="42.5214320" lon="-8.1305630">
        <ele>616.8</ele>
        <time>2019-08-18T06:45:54Z</time>
      </trkpt>
      <trkpt lat="42.5214520" lon="-8.1305960">
        <ele>616.9</ele>
        <time>2019-08-18T06:45:55Z</time>
      </trkpt>
      <trkpt lat="42.5214730" lon="-8.1306310">
        <ele>617.0</ele>
        <time>2019-08-18T06:45:56Z</time>
      </trkpt>
      <trkpt lat="42.5214920" lon="-8.1306680">
        <ele>617.1</ele>
        <time>2019-08-18T06:45:57Z</time>
      </trkpt>
      <trkpt lat="42.5215110" lon="-8.1307080">
        <ele>617.1</ele>
        <time>2019-08-18T06:45:58Z</time>
      </trkpt>
      <trkpt lat="42.5215300" lon="-8.1307490">
        <ele>617.1</ele>
        <time>2019-08-18T06:45:59Z</time>
      </trkpt>
      <trkpt lat="42.5215470" lon="-8.1307920">
        <ele>617.0</ele>
        <time>2019-08-18T06:46:00Z</time>
      </trkpt>
      <trkpt lat="42.5215650" lon="-8.1308360">
        <ele>617.0</ele>
        <time>2019-08-18T06:46:01Z</time>
      </trkpt>
      <trkpt lat="42.5215820" lon="-8.1308820">
        <ele>616.8</ele>
        <time>2019-08-18T06:46:02Z</time>
      </trkpt>
      <trkpt lat="42.5216010" lon="-8.1309290">
        <ele>616.7</ele>
        <time>2019-08-18T06:46:03Z</time>
      </trkpt>
      <trkpt lat="42.5216220" lon="-8.1309760">
        <ele>616.6</ele>
        <time>2019-08-18T06:46:04Z</time>
      </trkpt>
      <trkpt lat="42.5216450" lon="-8.1310230">
        <ele>616.4</ele>
        <time>2019-08-18T06:46:05Z</time>
      </trkpt>
      <trkpt lat="42.5216710" lon="-8.1310690">
        <ele>616.3</ele>
        <time>2019-08-18T06:46:06Z</time>
      </trkpt>
      <trkpt lat="42.5217010" lon="-8.1311160">
        <ele>616.1</ele>
        <time>2019-08-18T06:46:07Z</time>
      </trkpt>
      <trkpt lat="42.5217330" lon="-8.1311620">
        <ele>616.0</ele>
        <time>2019-08-18T06:46:08Z</time>
      </trkpt>
      <trkpt lat="42.5217670" lon="-8.1312080">
        <ele>615.9</ele>
        <time>2019-08-18T06:46:09Z</time>
      </trkpt>
      <trkpt lat="42.5218010" lon="-8.1312550">
        <ele>615.8</ele>
        <time>2019-08-18T06:46:10Z</time>
      </trkpt>
      <trkpt lat="42.5218340" lon="-8.1313020">
        <ele>615.6</ele>
        <time>2019-08-18T06:46:11Z</time>
      </trkpt>
      <trkpt lat="42.5218650" lon="-8.1313500">
        <ele>615.7</ele>
        <time>2019-08-18T06:46:12Z</time>
      </trkpt>
      <trkpt lat="42.5218920" lon="-8.1314000">
        <ele>615.9</ele>
        <time>2019-08-18T06:46:13Z</time>
      </trkpt>
      <trkpt lat="42.5219150" lon="-8.1314520">
        <ele>616.1</ele>
        <time>2019-08-18T06:46:14Z</time>
      </trkpt>
      <trkpt lat="42.5219320" lon="-8.1315050">
        <ele>616.1</ele>
        <time>2019-08-18T06:46:15Z</time>
      </trkpt>
      <trkpt lat="42.5219450" lon="-8.1315590">
        <ele>616.3</ele>
        <time>2019-08-18T06:46:16Z</time>
      </trkpt>
      <trkpt lat="42.5219540" lon="-8.1316110">
        <ele>616.2</ele>
        <time>2019-08-18T06:46:17Z</time>
      </trkpt>
      <trkpt lat="42.5219600" lon="-8.1316590">
        <ele>616.2</ele>
        <time>2019-08-18T06:46:18Z</time>
      </trkpt>
      <trkpt lat="42.5219650" lon="-8.1317030">
        <ele>616.5</ele>
        <time>2019-08-18T06:46:19Z</time>
      </trkpt>
      <trkpt lat="42.5219680" lon="-8.1317440">
        <ele>616.6</ele>
        <time>2019-08-18T06:46:20Z</time>
      </trkpt>
      <trkpt lat="42.5219690" lon="-8.1317840">
        <ele>616.6</ele>
        <time>2019-08-18T06:46:21Z</time>
      </trkpt>
      <trkpt lat="42.5219690" lon="-8.1318270">
        <ele>616.6</ele>
        <time>2019-08-18T06:46:22Z</time>
      </trkpt>
      <trkpt lat="42.5219670" lon="-8.1318690">
        <ele>616.6</ele>
        <time>2019-08-18T06:46:23Z</time>
      </trkpt>
      <trkpt lat="42.5219620" lon="-8.1319110">
        <ele>616.1</ele>
        <time>2019-08-18T06:46:24Z</time>
      </trkpt>
      <trkpt lat="42.5219520" lon="-8.1319490">
        <ele>616.1</ele>
        <time>2019-08-18T06:46:25Z</time>
      </trkpt>
      <trkpt lat="42.5219370" lon="-8.1319810">
        <ele>616.2</ele>
        <time>2019-08-18T06:46:26Z</time>
      </trkpt>
      <trkpt lat="42.5219200" lon="-8.1320020">
        <ele>615.6</ele>
        <time>2019-08-18T06:46:27Z</time>
      </trkpt>
      <trkpt lat="42.5219030" lon="-8.1320140">
        <ele>615.6</ele>
        <time>2019-08-18T06:46:28Z</time>
      </trkpt>
      <trkpt lat="42.5218860" lon="-8.1320350">
        <ele>615.1</ele>
        <time>2019-08-18T06:46:29Z</time>
      </trkpt>
      <trkpt lat="42.5218690" lon="-8.1320670">
        <ele>614.7</ele>
        <time>2019-08-18T06:46:30Z</time>
      </trkpt>
      <trkpt lat="42.5218560" lon="-8.1321060">
        <ele>614.7</ele>
        <time>2019-08-18T06:46:31Z</time>
      </trkpt>
      <trkpt lat="42.5218480" lon="-8.1321500">
        <ele>615.0</ele>
        <time>2019-08-18T06:46:32Z</time>
      </trkpt>
      <trkpt lat="42.5218470" lon="-8.1321950">
        <ele>615.3</ele>
        <time>2019-08-18T06:46:33Z</time>
      </trkpt>
      <trkpt lat="42.5218500" lon="-8.1322400">
        <ele>615.6</ele>
        <time>2019-08-18T06:46:34Z</time>
      </trkpt>
      <trkpt lat="42.5218550" lon="-8.1322850">
        <ele>615.9</ele>
        <time>2019-08-18T06:46:35Z</time>
      </trkpt>
      <trkpt lat="42.5218600" lon="-8.1323310">
        <ele>616.2</ele>
        <time>2019-08-18T06:46:36Z</time>
      </trkpt>
      <trkpt lat="42.5218650" lon="-8.1323760">
        <ele>616.5</ele>
        <time>2019-08-18T06:46:37Z</time>
      </trkpt>
      <trkpt lat="42.5218700" lon="-8.1324220">
        <ele>616.9</ele>
        <time>2019-08-18T06:46:38Z</time>
      </trkpt>
      <trkpt lat="42.5218740" lon="-8.1324670">
        <ele>617.2</ele>
        <time>2019-08-18T06:46:39Z</time>
      </trkpt>
      <trkpt lat="42.5218770" lon="-8.1325120">
        <ele>617.5</ele>
        <time>2019-08-18T06:46:40Z</time>
      </trkpt>
      <trkpt lat="42.5218800" lon="-8.1325560">
        <ele>617.8</ele>
        <time>2019-08-18T06:46:41Z</time>
      </trkpt>
      <trkpt lat="42.5218810" lon="-8.1326000">
        <ele>618.2</ele>
        <time>2019-08-18T06:46:42Z</time>
      </trkpt>
      <trkpt lat="42.5218820" lon="-8.1326440">
        <ele>618.5</ele>
        <time>2019-08-18T06:46:43Z</time>
      </trkpt>
      <trkpt lat="42.5218810" lon="-8.1326870">
        <ele>618.7</ele>
        <time>2019-08-18T06:46:44Z</time>
      </trkpt>
      <trkpt lat="42.5218800" lon="-8.1327300">
        <ele>619.0</ele>
        <time>2019-08-18T06:46:45Z</time>
      </trkpt>
      <trkpt lat="42.5218790" lon="-8.1327720">
        <ele>619.3</ele>
        <time>2019-08-18T06:46:46Z</time>
      </trkpt>
      <trkpt lat="42.5218780" lon="-8.1328140">
        <ele>619.5</ele>
        <time>2019-08-18T06:46:47Z</time>
      </trkpt>
      <trkpt lat="42.5218780" lon="-8.1328550">
        <ele>619.8</ele>
        <time>2019-08-18T06:46:48Z</time>
      </trkpt>
      <trkpt lat="42.5218800" lon="-8.1328970">
        <ele>620.0</ele>
        <time>2019-08-18T06:46:49Z</time>
      </trkpt>
      <trkpt lat="42.5218830" lon="-8.1329390">
        <ele>620.3</ele>
        <time>2019-08-18T06:46:50Z</time>
      </trkpt>
      <trkpt lat="42.5218900" lon="-8.1329810">
        <ele>620.5</ele>
        <time>2019-08-18T06:46:51Z</time>
      </trkpt>
      <trkpt lat="42.5218990" lon="-8.1330230">
        <ele>620.8</ele>
        <time>2019-08-18T06:46:52Z</time>
      </trkpt>
      <trkpt lat="42.5219100" lon="-8.1330630">
        <ele>621.0</ele>
        <time>2019-08-18T06:46:53Z</time>
      </trkpt>
      <trkpt lat="42.5219240" lon="-8.1331020">
        <ele>621.1</ele>
        <time>2019-08-18T06:46:54Z</time>
      </trkpt>
      <trkpt lat="42.5219410" lon="-8.1331380">
        <ele>621.3</ele>
        <time>2019-08-18T06:46:55Z</time>
      </trkpt>
      <trkpt lat="42.5219600" lon="-8.1331710">
        <ele>621.5</ele>
        <time>2019-08-18T06:46:56Z</time>
      </trkpt>
      <trkpt lat="42.5219820" lon="-8.1331990">
        <ele>621.7</ele>
        <time>2019-08-18T06:46:57Z</time>
      </trkpt>
      <trkpt lat="42.5220060" lon="-8.1332230">
        <ele>621.9</ele>
        <time>2019-08-18T06:46:58Z</time>
      </trkpt>
      <trkpt lat="42.5220320" lon="-8.1332410">
        <ele>622.0</ele>
        <time>2019-08-18T06:46:59Z</time>
      </trkpt>
      <trkpt lat="42.5220600" lon="-8.1332530">
        <ele>622.2</ele>
        <time>2019-08-18T06:47:00Z</time>
      </trkpt>
      <trkpt lat="42.5220890" lon="-8.1332620">
        <ele>622.4</ele>
        <time>2019-08-18T06:47:01Z</time>
      </trkpt>
      <trkpt lat="42.5221170" lon="-8.1332670">
        <ele>622.6</ele>
        <time>2019-08-18T06:47:02Z</time>
      </trkpt>
      <trkpt lat="42.5221450" lon="-8.1332700">
        <ele>622.8</ele>
        <time>2019-08-18T06:47:03Z</time>
      </trkpt>
      <trkpt lat="42.5221720" lon="-8.1332710">
        <ele>623.1</ele>
        <time>2019-08-18T06:47:04Z</time>
      </trkpt>
      <trkpt lat="42.5221980" lon="-8.1332700">
        <ele>623.3</ele>
        <time>2019-08-18T06:47:05Z</time>
      </trkpt>
      <trkpt lat="42.5222380" lon="-8.1332680">
        <ele>623.6</ele>
        <time>2019-08-18T06:47:06Z</time>
      </trkpt>
      <trkpt lat="42.5222510" lon="-8.1332670">
        <ele>623.7</ele>
        <time>2019-08-18T06:47:07Z</time>
      </trkpt>
      <trkpt lat="42.5222780" lon="-8.1332650">
        <ele>623.9</ele>
        <time>2019-08-18T06:47:08Z</time>
      </trkpt>
      <trkpt lat="42.5223040" lon="-8.1332620">
        <ele>624.1</ele>
        <time>2019-08-18T06:47:09Z</time>
      </trkpt>
      <trkpt lat="42.5223310" lon="-8.1332590">
        <ele>624.3</ele>
        <time>2019-08-18T06:47:10Z</time>
      </trkpt>
      <trkpt lat="42.5223570" lon="-8.1332550">
        <ele>624.5</ele>
        <time>2019-08-18T06:47:11Z</time>
      </trkpt>
      <trkpt lat="42.5223840" lon="-8.1332510">
        <ele>624.8</ele>
        <time>2019-08-18T06:47:12Z</time>
      </trkpt>
      <trkpt lat="42.5224110" lon="-8.1332460">
        <ele>625.0</ele>
        <time>2019-08-18T06:47:13Z</time>
      </trkpt>
      <trkpt lat="42.5224380" lon="-8.1332410">
        <ele>625.2</ele>
        <time>2019-08-18T06:47:14Z</time>
      </trkpt>
      <trkpt lat="42.5224650" lon="-8.1332360">
        <ele>625.4</ele>
        <time>2019-08-18T06:47:15Z</time>
      </trkpt>
      <trkpt lat="42.5224930" lon="-8.1332310">
        <ele>625.6</ele>
        <time>2019-08-18T06:47:16Z</time>
      </trkpt>
      <trkpt lat="42.5225200" lon="-8.1332260">
        <ele>625.9</ele>
        <time>2019-08-18T06:47:17Z</time>
      </trkpt>
      <trkpt lat="42.5225490" lon="-8.1332210">
        <ele>626.1</ele>
        <time>2019-08-18T06:47:18Z</time>
      </trkpt>
      <trkpt lat="42.5225770" lon="-8.1332150">
        <ele>626.3</ele>
        <time>2019-08-18T06:47:19Z</time>
      </trkpt>
      <trkpt lat="42.5226060" lon="-8.1332100">
        <ele>626.6</ele>
        <time>2019-08-18T06:47:20Z</time>
      </trkpt>
      <trkpt lat="42.5226360" lon="-8.1332050">
        <ele>626.8</ele>
        <time>2019-08-18T06:47:21Z</time>
      </trkpt>
      <trkpt lat="42.5226660" lon="-8.1332000">
        <ele>627.0</ele>
        <time>2019-08-18T06:47:22Z</time>
      </trkpt>
      <trkpt lat="42.5226970" lon="-8.1331940">
        <ele>627.3</ele>
        <time>2019-08-18T06:47:23Z</time>
      </trkpt>
      <trkpt lat="42.5227280" lon="-8.1331890">
        <ele>627.5</ele>
        <time>2019-08-18T06:47:24Z</time>
      </trkpt>
      <trkpt lat="42.5227600" lon="-8.1331840">
        <ele>627.7</ele>
        <time>2019-08-18T06:47:25Z</time>
      </trkpt>
      <trkpt lat="42.5227930" lon="-8.1331780">
        <ele>628.0</ele>
        <time>2019-08-18T06:47:26Z</time>
      </trkpt>
      <trkpt lat="42.5228270" lon="-8.1331730">
        <ele>628.2</ele>
        <time>2019-08-18T06:47:27Z</time>
      </trkpt>
      <trkpt lat="42.5228610" lon="-8.1331670">
        <ele>628.5</ele>
        <time>2019-08-18T06:47:28Z</time>
      </trkpt>
      <trkpt lat="42.5228970" lon="-8.1331610">
        <ele>628.8</ele>
        <time>2019-08-18T06:47:29Z</time>
      </trkpt>
      <trkpt lat="42.5229340" lon="-8.1331550">
        <ele>629.0</ele>
        <time>2019-08-18T06:47:30Z</time>
      </trkpt>
      <trkpt lat="42.5229710" lon="-8.1331480">
        <ele>629.2</ele>
        <time>2019-08-18T06:47:31Z</time>
      </trkpt>
      <trkpt lat="42.5230100" lon="-8.1331410">
        <ele>629.4</ele>
        <time>2019-08-18T06:47:32Z</time>
      </trkpt>
      <trkpt lat="42.5230500" lon="-8.1331330">
        <ele>629.6</ele>
        <time>2019-08-18T06:47:33Z</time>
      </trkpt>
      <trkpt lat="42.5230920" lon="-8.1331260">
        <ele>629.7</ele>
        <time>2019-08-18T06:47:34Z</time>
      </trkpt>
      <trkpt lat="42.5231340" lon="-8.1331170">
        <ele>629.8</ele>
        <time>2019-08-18T06:47:35Z</time>
      </trkpt>
      <trkpt lat="42.5231780" lon="-8.1331080">
        <ele>629.8</ele>
        <time>2019-08-18T06:47:36Z</time>
      </trkpt>
      <trkpt lat="42.5232240" lon="-8.1330990">
        <ele>629.9</ele>
        <time>2019-08-18T06:47:37Z</time>
      </trkpt>
      <trkpt lat="42.5232720" lon="-8.1330880">
        <ele>629.9</ele>
        <time>2019-08-18T06:47:38Z</time>
      </trkpt>
      <trkpt lat="42.5233210" lon="-8.1330770">
        <ele>629.9</ele>
        <time>2019-08-18T06:47:39Z</time>
      </trkpt>
      <trkpt lat="42.5233730" lon="-8.1330660">
        <ele>629.9</ele>
        <time>2019-08-18T06:47:40Z</time>
      </trkpt>
      <trkpt lat="42.5234280" lon="-8.1330540">
        <ele>629.9</ele>
        <time>2019-08-18T06:47:41Z</time>
      </trkpt>
      <trkpt lat="42.5234860" lon="-8.1330420">
        <ele>629.9</ele>
        <time>2019-08-18T06:47:42Z</time>
      </trkpt>
      <trkpt lat="42.5235480" lon="-8.1330310">
        <ele>629.9</ele>
        <time>2019-08-18T06:47:43Z</time>
      </trkpt>
      <trkpt lat="42.5236130" lon="-8.1330210">
        <ele>629.9</ele>
        <time>2019-08-18T06:47:44Z</time>
      </trkpt>
      <trkpt lat="42.5236810" lon="-8.1330160">
        <ele>629.9</ele>
        <time>2019-08-18T06:47:45Z</time>
      </trkpt>
      <trkpt lat="42.5237490" lon="-8.1330180">
        <ele>629.8</ele>
        <time>2019-08-18T06:47:46Z</time>
      </trkpt>
      <trkpt lat="42.5238510" lon="-8.1330380">
        <ele>629.7</ele>
        <time>2019-08-18T06:47:47Z</time>
      </trkpt>
      <trkpt lat="42.5238850" lon="-8.1330490">
        <ele>629.6</ele>
        <time>2019-08-18T06:47:48Z</time>
      </trkpt>
      <trkpt lat="42.5239500" lon="-8.1330830">
        <ele>629.5</ele>
        <time>2019-08-18T06:47:49Z</time>
      </trkpt>
      <trkpt lat="42.5240140" lon="-8.1331320">
        <ele>629.3</ele>
        <time>2019-08-18T06:47:50Z</time>
      </trkpt>
      <trkpt lat="42.5240740" lon="-8.1331930">
        <ele>629.1</ele>
        <time>2019-08-18T06:47:51Z</time>
      </trkpt>
      <trkpt lat="42.5241330" lon="-8.1332610">
        <ele>628.8</ele>
        <time>2019-08-18T06:47:52Z</time>
      </trkpt>
      <trkpt lat="42.5241890" lon="-8.1333340">
        <ele>628.5</ele>
        <time>2019-08-18T06:47:53Z</time>
      </trkpt>
      <trkpt lat="42.5242440" lon="-8.1334090">
        <ele>628.1</ele>
        <time>2019-08-18T06:47:54Z</time>
      </trkpt>
      <trkpt lat="42.5242980" lon="-8.1334850">
        <ele>627.7</ele>
        <time>2019-08-18T06:47:55Z</time>
      </trkpt>
      <trkpt lat="42.5243500" lon="-8.1335630">
        <ele>627.3</ele>
        <time>2019-08-18T06:47:56Z</time>
      </trkpt>
      <trkpt lat="42.5244010" lon="-8.1336430">
        <ele>626.8</ele>
        <time>2019-08-18T06:47:57Z</time>
      </trkpt>
      <trkpt lat="42.5244510" lon="-8.1337250">
        <ele>626.2</ele>
        <time>2019-08-18T06:47:58Z</time>
      </trkpt>
      <trkpt lat="42.5244990" lon="-8.1338070">
        <ele>625.7</ele>
        <time>2019-08-18T06:47:59Z</time>
      </trkpt>
      <trkpt lat="42.5245460" lon="-8.1338880">
        <ele>625.0</ele>
        <time>2019-08-18T06:48:00Z</time>
      </trkpt>
      <trkpt lat="42.5245910" lon="-8.1339680">
        <ele>624.4</ele>
        <time>2019-08-18T06:48:01Z</time>
      </trkpt>
      <trkpt lat="42.5246340" lon="-8.1340450">
        <ele>623.8</ele>
        <time>2019-08-18T06:48:02Z</time>
      </trkpt>
      <trkpt lat="42.5246740" lon="-8.1341190">
        <ele>623.1</ele>
        <time>2019-08-18T06:48:03Z</time>
      </trkpt>
      <trkpt lat="42.5247130" lon="-8.1341880">
        <ele>622.6</ele>
        <time>2019-08-18T06:48:04Z</time>
      </trkpt>
      <trkpt lat="42.5247500" lon="-8.1342530">
        <ele>622.1</ele>
        <time>2019-08-18T06:48:05Z</time>
      </trkpt>
      <trkpt lat="42.5247840" lon="-8.1343140">
        <ele>621.7</ele>
        <time>2019-08-18T06:48:06Z</time>
      </trkpt>
      <trkpt lat="42.5248170" lon="-8.1343720">
        <ele>621.3</ele>
        <time>2019-08-18T06:48:07Z</time>
      </trkpt>
      <trkpt lat="42.5248490" lon="-8.1344260">
        <ele>621.1</ele>
        <time>2019-08-18T06:48:08Z</time>
      </trkpt>
      <trkpt lat="42.5248790" lon="-8.1344770">
        <ele>620.8</ele>
        <time>2019-08-18T06:48:09Z</time>
      </trkpt>
      <trkpt lat="42.5249070" lon="-8.1345250">
        <ele>620.7</ele>
        <time>2019-08-18T06:48:10Z</time>
      </trkpt>
      <trkpt lat="42.5249350" lon="-8.1345720">
        <ele>620.5</ele>
        <time>2019-08-18T06:48:11Z</time>
      </trkpt>
      <trkpt lat="42.5249620" lon="-8.1346160">
        <ele>620.4</ele>
        <time>2019-08-18T06:48:12Z</time>
      </trkpt>
      <trkpt lat="42.5249880" lon="-8.1346590">
        <ele>620.3</ele>
        <time>2019-08-18T06:48:13Z</time>
      </trkpt>
      <trkpt lat="42.5250130" lon="-8.1347000">
        <ele>620.3</ele>
        <time>2019-08-18T06:48:14Z</time>
      </trkpt>
      <trkpt lat="42.5250380" lon="-8.1347410">
        <ele>620.2</ele>
        <time>2019-08-18T06:48:15Z</time>
      </trkpt>
      <trkpt lat="42.5250620" lon="-8.1347810">
        <ele>620.2</ele>
        <time>2019-08-18T06:48:16Z</time>
      </trkpt>
      <trkpt lat="42.5250850" lon="-8.1348210">
        <ele>620.1</ele>
        <time>2019-08-18T06:48:17Z</time>
      </trkpt>
      <trkpt lat="42.5251080" lon="-8.1348610">
        <ele>620.1</ele>
        <time>2019-08-18T06:48:18Z</time>
      </trkpt>
      <trkpt lat="42.5251300" lon="-8.1349020">
        <ele>620.1</ele>
        <time>2019-08-18T06:48:19Z</time>
      </trkpt>
      <trkpt lat="42.5251520" lon="-8.1349440">
        <ele>620.1</ele>
        <time>2019-08-18T06:48:20Z</time>
      </trkpt>
      <trkpt lat="42.5251720" lon="-8.1349860">
        <ele>620.1</ele>
        <time>2019-08-18T06:48:21Z</time>
      </trkpt>
      <trkpt lat="42.5251920" lon="-8.1350290">
        <ele>620.1</ele>
        <time>2019-08-18T06:48:22Z</time>
      </trkpt>
      <trkpt lat="42.5252100" lon="-8.1350740">
        <ele>620.2</ele>
        <time>2019-08-18T06:48:23Z</time>
      </trkpt>
      <trkpt lat="42.5252270" lon="-8.1351190">
        <ele>620.2</ele>
        <time>2019-08-18T06:48:24Z</time>
      </trkpt>
      <trkpt lat="42.5252420" lon="-8.1351650">
        <ele>620.3</ele>
        <time>2019-08-18T06:48:25Z</time>
      </trkpt>
      <trkpt lat="42.5252550" lon="-8.1352120">
        <ele>620.4</ele>
        <time>2019-08-18T06:48:26Z</time>
      </trkpt>
      <trkpt lat="42.5252660" lon="-8.1352610">
        <ele>620.6</ele>
        <time>2019-08-18T06:48:27Z</time>
      </trkpt>
      <trkpt lat="42.5252810" lon="-8.1353410">
        <ele>621.0</ele>
        <time>2019-08-18T06:48:28Z</time>
      </trkpt>
      <trkpt lat="42.5252860" lon="-8.1353740">
        <ele>621.1</ele>
        <time>2019-08-18T06:48:29Z</time>
      </trkpt>
      <trkpt lat="42.5252910" lon="-8.1354060">
        <ele>621.3</ele>
        <time>2019-08-18T06:48:30Z</time>
      </trkpt>
      <trkpt lat="42.5252980" lon="-8.1354540">
        <ele>621.5</ele>
        <time>2019-08-18T06:48:31Z</time>
      </trkpt>
      <trkpt lat="42.5253030" lon="-8.1355000">
        <ele>621.8</ele>
        <time>2019-08-18T06:48:32Z</time>
      </trkpt>
      <trkpt lat="42.5253080" lon="-8.1355450">
        <ele>622.1</ele>
        <time>2019-08-18T06:48:33Z</time>
      </trkpt>
      <trkpt lat="42.5253130" lon="-8.1355890">
        <ele>622.3</ele>
        <time>2019-08-18T06:48:34Z</time>
      </trkpt>
      <trkpt lat="42.5253150" lon="-8.1356320">
        <ele>622.6</ele>
        <time>2019-08-18T06:48:35Z</time>
      </trkpt>
      <trkpt lat="42.5253170" lon="-8.1356740">
        <ele>622.9</ele>
        <time>2019-08-18T06:48:36Z</time>
      </trkpt>
      <trkpt lat="42.5253160" lon="-8.1357160">
        <ele>623.2</ele>
        <time>2019-08-18T06:48:37Z</time>
      </trkpt>
      <trkpt lat="42.5253140" lon="-8.1357570">
        <ele>623.5</ele>
        <time>2019-08-18T06:48:38Z</time>
      </trkpt>
      <trkpt lat="42.5253110" lon="-8.1357970">
        <ele>623.8</ele>
        <time>2019-08-18T06:48:39Z</time>
      </trkpt>
      <trkpt lat="42.5253080" lon="-8.1358380">
        <ele>624.1</ele>
        <time>2019-08-18T06:48:40Z</time>
      </trkpt>
      <trkpt lat="42.5253050" lon="-8.1358780">
        <ele>624.4</ele>
        <time>2019-08-18T06:48:41Z</time>
      </trkpt>
      <trkpt lat="42.5253020" lon="-8.1359190">
        <ele>624.7</ele>
        <time>2019-08-18T06:48:42Z</time>
      </trkpt>
      <trkpt lat="42.5253000" lon="-8.1359600">
        <ele>625.0</ele>
        <time>2019-08-18T06:48:43Z</time>
      </trkpt>
      <trkpt lat="42.5252980" lon="-8.1360010">
        <ele>625.3</ele>
        <time>2019-08-18T06:48:44Z</time>
      </trkpt>
      <trkpt lat="42.5252970" lon="-8.1360410">
        <ele>625.6</ele>
        <time>2019-08-18T06:48:45Z</time>
      </trkpt>
      <trkpt lat="42.5252950" lon="-8.1360820">
        <ele>626.0</ele>
        <time>2019-08-18T06:48:46Z</time>
      </trkpt>
      <trkpt lat="42.5252950" lon="-8.1361220">
        <ele>626.2</ele>
        <time>2019-08-18T06:48:47Z</time>
      </trkpt>
      <trkpt lat="42.5252950" lon="-8.1361620">
        <ele>626.5</ele>
        <time>2019-08-18T06:48:48Z</time>
      </trkpt>
      <trkpt lat="42.5252950" lon="-8.1362010">
        <ele>626.8</ele>
        <time>2019-08-18T06:48:49Z</time>
      </trkpt>
      <trkpt lat="42.5252950" lon="-8.1362400">
        <ele>627.0</ele>
        <time>2019-08-18T06:48:50Z</time>
      </trkpt>
      <trkpt lat="42.5252960" lon="-8.1362800">
        <ele>627.3</ele>
        <time>2019-08-18T06:48:51Z</time>
      </trkpt>
      <trkpt lat="42.5252970" lon="-8.1363190">
        <ele>627.5</ele>
        <time>2019-08-18T06:48:52Z</time>
      </trkpt>
      <trkpt lat="42.5252970" lon="-8.1363580">
        <ele>627.7</ele>
        <time>2019-08-18T06:48:53Z</time>
      </trkpt>
      <trkpt lat="42.5252970" lon="-8.1363970">
        <ele>628.0</ele>
        <time>2019-08-18T06:48:54Z</time>
      </trkpt>
      <trkpt lat="42.5252970" lon="-8.1364360">
        <ele>628.2</ele>
        <time>2019-08-18T06:48:55Z</time>
      </trkpt>
      <trkpt lat="42.5252960" lon="-8.1364750">
        <ele>628.4</ele>
        <time>2019-08-18T06:48:56Z</time>
      </trkpt>
      <trkpt lat="42.5252950" lon="-8.1365140">
        <ele>628.6</ele>
        <time>2019-08-18T06:48:57Z</time>
      </trkpt>
      <trkpt lat="42.5252940" lon="-8.1365530">
        <ele>628.9</ele>
        <time>2019-08-18T06:48:58Z</time>
      </trkpt>
      <trkpt lat="42.5252920" lon="-8.1365910">
        <ele>629.1</ele>
        <time>2019-08-18T06:48:59Z</time>
      </trkpt>
      <trkpt lat="42.5252900" lon="-8.1366280">
        <ele>629.3</ele>
        <time>2019-08-18T06:49:00Z</time>
      </trkpt>
      <trkpt lat="42.5252880" lon="-8.1366650">
        <ele>629.6</ele>
        <time>2019-08-18T06:49:01Z</time>
      </trkpt>
      <trkpt lat="42.5252860" lon="-8.1367000">
        <ele>629.8</ele>
        <time>2019-08-18T06:49:02Z</time>
      </trkpt>
      <trkpt lat="42.5252840" lon="-8.1367340">
        <ele>630.0</ele>
        <time>2019-08-18T06:49:03Z</time>
      </trkpt>
      <trkpt lat="42.5252820" lon="-8.1367660">
        <ele>630.2</ele>
        <time>2019-08-18T06:49:04Z</time>
      </trkpt>
      <trkpt lat="42.5252800" lon="-8.1367970">
        <ele>630.4</ele>
        <time>2019-08-18T06:49:05Z</time>
      </trkpt>
      <trkpt lat="42.5252790" lon="-8.1368270">
        <ele>630.6</ele>
        <time>2019-08-18T06:49:06Z</time>
      </trkpt>
      <trkpt lat="42.5252780" lon="-8.1368560">
        <ele>630.7</ele>
        <time>2019-08-18T06:49:07Z</time>
      </trkpt>
      <trkpt lat="42.5252780" lon="-8.1368860">
        <ele>630.9</ele>
        <time>2019-08-18T06:49:08Z</time>
      </trkpt>
      <trkpt lat="42.5252780" lon="-8.1369150">
        <ele>631.1</ele>
        <time>2019-08-18T06:49:09Z</time>
      </trkpt>
      <trkpt lat="42.5252770" lon="-8.1369470">
        <ele>631.3</ele>
        <time>2019-08-18T06:49:10Z</time>
      </trkpt>
      <trkpt lat="42.5252760" lon="-8.1369810">
        <ele>631.5</ele>
        <time>2019-08-18T06:49:11Z</time>
      </trkpt>
      <trkpt lat="42.5252750" lon="-8.1370170">
        <ele>631.7</ele>
        <time>2019-08-18T06:49:12Z</time>
      </trkpt>
      <trkpt lat="42.5252740" lon="-8.1370540">
        <ele>631.9</ele>
        <time>2019-08-18T06:49:13Z</time>
      </trkpt>
      <trkpt lat="42.5252730" lon="-8.1370930">
        <ele>632.1</ele>
        <time>2019-08-18T06:49:14Z</time>
      </trkpt>
      <trkpt lat="42.5252720" lon="-8.1371320">
        <ele>632.3</ele>
        <time>2019-08-18T06:49:15Z</time>
      </trkpt>
      <trkpt lat="42.5252710" lon="-8.1371720">
        <ele>632.6</ele>
        <time>2019-08-18T06:49:16Z</time>
      </trkpt>
      <trkpt lat="42.5252700" lon="-8.1372120">
        <ele>632.8</ele>
        <time>2019-08-18T06:49:17Z</time>
      </trkpt>
      <trkpt lat="42.5252690" lon="-8.1372510">
        <ele>633.0</ele>
        <time>2019-08-18T06:49:18Z</time>
      </trkpt>
      <trkpt lat="42.5252690" lon="-8.1372890">
        <ele>633.3</ele>
        <time>2019-08-18T06:49:19Z</time>
      </trkpt>
      <trkpt lat="42.5252690" lon="-8.1373270">
        <ele>633.5</ele>
        <time>2019-08-18T06:49:20Z</time>
      </trkpt>
      <trkpt lat="42.5252690" lon="-8.1373630">
        <ele>633.7</ele>
        <time>2019-08-18T06:49:21Z</time>
      </trkpt>
      <trkpt lat="42.5252690" lon="-8.1373990">
        <ele>634.0</ele>
        <time>2019-08-18T06:49:22Z</time>
      </trkpt>
      <trkpt lat="42.5252690" lon="-8.1374340">
        <ele>634.2</ele>
        <time>2019-08-18T06:49:23Z</time>
      </trkpt>
      <trkpt lat="42.5252700" lon="-8.1374680">
        <ele>634.4</ele>
        <time>2019-08-18T06:49:24Z</time>
      </trkpt>
      <trkpt lat="42.5252700" lon="-8.1375010">
        <ele>634.6</ele>
        <time>2019-08-18T06:49:25Z</time>
      </trkpt>
      <trkpt lat="42.5252710" lon="-8.1375340">
        <ele>634.9</ele>
        <time>2019-08-18T06:49:26Z</time>
      </trkpt>
      <trkpt lat="42.5252710" lon="-8.1375680">
        <ele>635.1</ele>
        <time>2019-08-18T06:49:27Z</time>
      </trkpt>
      <trkpt lat="42.5252700" lon="-8.1376040">
        <ele>635.3</ele>
        <time>2019-08-18T06:49:28Z</time>
      </trkpt>
      <trkpt lat="42.5252690" lon="-8.1376430">
        <ele>635.5</ele>
        <time>2019-08-18T06:49:29Z</time>
      </trkpt>
      <trkpt lat="42.5252670" lon="-8.1376840">
        <ele>635.7</ele>
        <time>2019-08-18T06:49:30Z</time>
      </trkpt>
      <trkpt lat="42.5252660" lon="-8.1377260">
        <ele>636.0</ele>
        <time>2019-08-18T06:49:31Z</time>
      </trkpt>
      <trkpt lat="42.5252640" lon="-8.1377680">
        <ele>636.2</ele>
        <time>2019-08-18T06:49:32Z</time>
      </trkpt>
      <trkpt lat="42.5252630" lon="-8.1378100">
        <ele>636.4</ele>
        <time>2019-08-18T06:49:33Z</time>
      </trkpt>
      <trkpt lat="42.5252620" lon="-8.1378510">
        <ele>636.7</ele>
        <time>2019-08-18T06:49:34Z</time>
      </trkpt>
      <trkpt lat="42.5252620" lon="-8.1378920">
        <ele>636.9</ele>
        <time>2019-08-18T06:49:35Z</time>
      </trkpt>
      <trkpt lat="42.5252610" lon="-8.1379330">
        <ele>637.1</ele>
        <time>2019-08-18T06:49:36Z</time>
      </trkpt>
      <trkpt lat="42.5252610" lon="-8.1379740">
        <ele>637.4</ele>
        <time>2019-08-18T06:49:37Z</time>
      </trkpt>
      <trkpt lat="42.5252610" lon="-8.1380140">
        <ele>637.6</ele>
        <time>2019-08-18T06:49:38Z</time>
      </trkpt>
      <trkpt lat="42.5252620" lon="-8.1380550">
        <ele>637.8</ele>
        <time>2019-08-18T06:49:39Z</time>
      </trkpt>
      <trkpt lat="42.5252630" lon="-8.1380950">
        <ele>638.0</ele>
        <time>2019-08-18T06:49:40Z</time>
      </trkpt>
      <trkpt lat="42.5252630" lon="-8.1381350">
        <ele>638.3</ele>
        <time>2019-08-18T06:49:41Z</time>
      </trkpt>
      <trkpt lat="42.5252640" lon="-8.1381760">
        <ele>638.5</ele>
        <time>2019-08-18T06:49:42Z</time>
      </trkpt>
      <trkpt lat="42.5252650" lon="-8.1382150">
        <ele>638.8</ele>
        <time>2019-08-18T06:49:43Z</time>
      </trkpt>
      <trkpt lat="42.5252650" lon="-8.1382550">
        <ele>639.0</ele>
        <time>2019-08-18T06:49:44Z</time>
      </trkpt>
      <trkpt lat="42.5252640" lon="-8.1382940">
        <ele>639.2</ele>
        <time>2019-08-18T06:49:45Z</time>
      </trkpt>
      <trkpt lat="42.5252620" lon="-8.1383330">
        <ele>639.4</ele>
        <time>2019-08-18T06:49:46Z</time>
      </trkpt>
      <trkpt lat="42.5252600" lon="-8.1383720">
        <ele>639.6</ele>
        <time>2019-08-18T06:49:47Z</time>
      </trkpt>
      <trkpt lat="42.5252570" lon="-8.1384100">
        <ele>639.8</ele>
        <time>2019-08-18T06:49:48Z</time>
      </trkpt>
      <trkpt lat="42.5252530" lon="-8.1384490">
        <ele>640.0</ele>
        <time>2019-08-18T06:49:49Z</time>
      </trkpt>
      <trkpt lat="42.5252500" lon="-8.1384870">
        <ele>640.2</ele>
        <time>2019-08-18T06:49:50Z</time>
      </trkpt>
      <trkpt lat="42.5252470" lon="-8.1385260">
        <ele>640.4</ele>
        <time>2019-08-18T06:49:51Z</time>
      </trkpt>
      <trkpt lat="42.5252450" lon="-8.1385640">
        <ele>640.6</ele>
        <time>2019-08-18T06:49:52Z</time>
      </trkpt>
      <trkpt lat="42.5252450" lon="-8.1386040">
        <ele>640.8</ele>
        <time>2019-08-18T06:49:53Z</time>
      </trkpt>
      <trkpt lat="42.5252460" lon="-8.1386430">
        <ele>641.1</ele>
        <time>2019-08-18T06:49:54Z</time>
      </trkpt>
      <trkpt lat="42.5252480" lon="-8.1386830">
        <ele>641.3</ele>
        <time>2019-08-18T06:49:55Z</time>
      </trkpt>
      <trkpt lat="42.5252500" lon="-8.1387230">
        <ele>641.5</ele>
        <time>2019-08-18T06:49:56Z</time>
      </trkpt>
      <trkpt lat="42.5252520" lon="-8.1387620">
        <ele>641.7</ele>
        <time>2019-08-18T06:49:57Z</time>
      </trkpt>
      <trkpt lat="42.5252520" lon="-8.1387990">
        <ele>641.9</ele>
        <time>2019-08-18T06:49:58Z</time>
      </trkpt>
      <trkpt lat="42.5252500" lon="-8.1388360">
        <ele>642.1</ele>
        <time>2019-08-18T06:49:59Z</time>
      </trkpt>
      <trkpt lat="42.5252490" lon="-8.1388720">
        <ele>642.3</ele>
        <time>2019-08-18T06:50:00Z</time>
      </trkpt>
      <trkpt lat="42.5252470" lon="-8.1389070">
        <ele>642.5</ele>
        <time>2019-08-18T06:50:01Z</time>
      </trkpt>
      <trkpt lat="42.5252460" lon="-8.1389430">
        <ele>642.7</ele>
        <time>2019-08-18T06:50:02Z</time>
      </trkpt>
      <trkpt lat="42.5252440" lon="-8.1389790">
        <ele>642.9</ele>
        <time>2019-08-18T06:50:03Z</time>
      </trkpt>
      <trkpt lat="42.5252430" lon="-8.1390140">
        <ele>643.1</ele>
        <time>2019-08-18T06:50:04Z</time>
      </trkpt>
      <trkpt lat="42.5252420" lon="-8.1390500">
        <ele>643.3</ele>
        <time>2019-08-18T06:50:05Z</time>
      </trkpt>
      <trkpt lat="42.5252410" lon="-8.1390850">
        <ele>643.4</ele>
        <time>2019-08-18T06:50:06Z</time>
      </trkpt>
      <trkpt lat="42.5252400" lon="-8.1391210">
        <ele>643.6</ele>
        <time>2019-08-18T06:50:07Z</time>
      </trkpt>
      <trkpt lat="42.5252390" lon="-8.1391560">
        <ele>643.8</ele>
        <time>2019-08-18T06:50:08Z</time>
      </trkpt>
      <trkpt lat="42.5252390" lon="-8.1391920">
        <ele>644.0</ele>
        <time>2019-08-18T06:50:09Z</time>
      </trkpt>
      <trkpt lat="42.5252380" lon="-8.1392270">
        <ele>644.2</ele>
        <time>2019-08-18T06:50:10Z</time>
      </trkpt>
      <trkpt lat="42.5252370" lon="-8.1392630">
        <ele>644.3</ele>
        <time>2019-08-18T06:50:11Z</time>
      </trkpt>
      <trkpt lat="42.5252370" lon="-8.1392990">
        <ele>644.5</ele>
        <time>2019-08-18T06:50:12Z</time>
      </trkpt>
      <trkpt lat="42.5252370" lon="-8.1393350">
        <ele>644.7</ele>
        <time>2019-08-18T06:50:13Z</time>
      </trkpt>
      <trkpt lat="42.5252360" lon="-8.1393710">
        <ele>644.9</ele>
        <time>2019-08-18T06:50:14Z</time>
      </trkpt>
      <trkpt lat="42.5252360" lon="-8.1394070">
        <ele>645.1</ele>
        <time>2019-08-18T06:50:15Z</time>
      </trkpt>
      <trkpt lat="42.5252360" lon="-8.1394440">
        <ele>645.2</ele>
        <time>2019-08-18T06:50:16Z</time>
      </trkpt>
      <trkpt lat="42.5252360" lon="-8.1394800">
        <ele>645.4</ele>
        <time>2019-08-18T06:50:17Z</time>
      </trkpt>
      <trkpt lat="42.5252360" lon="-8.1395170">
        <ele>645.6</ele>
        <time>2019-08-18T06:50:18Z</time>
      </trkpt>
      <trkpt lat="42.5252360" lon="-8.1395540">
        <ele>645.7</ele>
        <time>2019-08-18T06:50:19Z</time>
      </trkpt>
      <trkpt lat="42.5252360" lon="-8.1395910">
        <ele>645.9</ele>
        <time>2019-08-18T06:50:20Z</time>
      </trkpt>
      <trkpt lat="42.5252350" lon="-8.1396270">
        <ele>646.1</ele>
        <time>2019-08-18T06:50:21Z</time>
      </trkpt>
      <trkpt lat="42.5252350" lon="-8.1396640">
        <ele>646.2</ele>
        <time>2019-08-18T06:50:22Z</time>
      </trkpt>
      <trkpt lat="42.5252350" lon="-8.1397000">
        <ele>646.4</ele>
        <time>2019-08-18T06:50:23Z</time>
      </trkpt>
      <trkpt lat="42.5252340" lon="-8.1397360">
        <ele>646.6</ele>
        <time>2019-08-18T06:50:24Z</time>
      </trkpt>
      <trkpt lat="42.5252330" lon="-8.1397720">
        <ele>646.7</ele>
        <time>2019-08-18T06:50:25Z</time>
      </trkpt>
      <trkpt lat="42.5252330" lon="-8.1398070">
        <ele>646.8</ele>
        <time>2019-08-18T06:50:26Z</time>
      </trkpt>
      <trkpt lat="42.5252320" lon="-8.1398430">
        <ele>647.0</ele>
        <time>2019-08-18T06:50:27Z</time>
      </trkpt>
      <trkpt lat="42.5252310" lon="-8.1398790">
        <ele>647.1</ele>
        <time>2019-08-18T06:50:28Z</time>
      </trkpt>
      <trkpt lat="42.5252310" lon="-8.1399150">
        <ele>647.3</ele>
        <time>2019-08-18T06:50:29Z</time>
      </trkpt>
      <trkpt lat="42.5252300" lon="-8.1399510">
        <ele>647.4</ele>
        <time>2019-08-18T06:50:30Z</time>
      </trkpt>
      <trkpt lat="42.5252300" lon="-8.1399880">
        <ele>647.5</ele>
        <time>2019-08-18T06:50:31Z</time>
      </trkpt>
      <trkpt lat="42.5252300" lon="-8.1400240">
        <ele>647.7</ele>
        <time>2019-08-18T06:50:32Z</time>
      </trkpt>
      <trkpt lat="42.5252300" lon="-8.1400610">
        <ele>647.8</ele>
        <time>2019-08-18T06:50:33Z</time>
      </trkpt>
      <trkpt lat="42.5252300" lon="-8.1400970">
        <ele>648.0</ele>
        <time>2019-08-18T06:50:34Z</time>
      </trkpt>
      <trkpt lat="42.5252310" lon="-8.1401330">
        <ele>648.2</ele>
        <time>2019-08-18T06:50:35Z</time>
      </trkpt>
      <trkpt lat="42.5252320" lon="-8.1401690">
        <ele>648.3</ele>
        <time>2019-08-18T06:50:36Z</time>
      </trkpt>
      <trkpt lat="42.5252340" lon="-8.1402050">
        <ele>648.5</ele>
        <time>2019-08-18T06:50:37Z</time>
      </trkpt>
      <trkpt lat="42.5252360" lon="-8.1402400">
        <ele>648.6</ele>
        <time>2019-08-18T06:50:38Z</time>
      </trkpt>
      <trkpt lat="42.5252390" lon="-8.1402750">
        <ele>648.8</ele>
        <time>2019-08-18T06:50:39Z</time>
      </trkpt>
      <trkpt lat="42.5252420" lon="-8.1403090">
        <ele>649.0</ele>
        <time>2019-08-18T06:50:40Z</time>
      </trkpt>
      <trkpt lat="42.5252460" lon="-8.1403440">
        <ele>649.2</ele>
        <time>2019-08-18T06:50:41Z</time>
      </trkpt>
      <trkpt lat="42.5252490" lon="-8.1403780">
        <ele>649.4</ele>
        <time>2019-08-18T06:50:42Z</time>
      </trkpt>
      <trkpt lat="42.5252530" lon="-8.1404130">
        <ele>649.7</ele>
        <time>2019-08-18T06:50:43Z</time>
      </trkpt>
      <trkpt lat="42.5252560" lon="-8.1404470">
        <ele>649.9</ele>
        <time>2019-08-18T06:50:44Z</time>
      </trkpt>
      <trkpt lat="42.5252600" lon="-8.1404820">
        <ele>650.1</ele>
        <time>2019-08-18T06:50:45Z</time>
      </trkpt>
      <trkpt lat="42.5252630" lon="-8.1405170">
        <ele>650.3</ele>
        <time>2019-08-18T06:50:46Z</time>
      </trkpt>
      <trkpt lat="42.5252660" lon="-8.1405530">
        <ele>650.5</ele>
        <time>2019-08-18T06:50:47Z</time>
      </trkpt>
      <trkpt lat="42.5252700" lon="-8.1405880">
        <ele>650.7</ele>
        <time>2019-08-18T06:50:48Z</time>
      </trkpt>
      <trkpt lat="42.5252730" lon="-8.1406230">
        <ele>650.9</ele>
        <time>2019-08-18T06:50:49Z</time>
      </trkpt>
      <trkpt lat="42.5252760" lon="-8.1406590">
        <ele>651.1</ele>
        <time>2019-08-18T06:50:50Z</time>
      </trkpt>
      <trkpt lat="42.5252800" lon="-8.1406940">
        <ele>651.3</ele>
        <time>2019-08-18T06:50:51Z</time>
      </trkpt>
      <trkpt lat="42.5252830" lon="-8.1407290">
        <ele>651.5</ele>
        <time>2019-08-18T06:50:52Z</time>
      </trkpt>
      <trkpt lat="42.5252870" lon="-8.1407640">
        <ele>651.7</ele>
        <time>2019-08-18T06:50:53Z</time>
      </trkpt>
      <trkpt lat="42.5252910" lon="-8.1407980">
        <ele>651.8</ele>
        <time>2019-08-18T06:50:54Z</time>
      </trkpt>
      <trkpt lat="42.5252950" lon="-8.1408330">
        <ele>652.0</ele>
        <time>2019-08-18T06:50:55Z</time>
      </trkpt>
      <trkpt lat="42.5252990" lon="-8.1408660">
        <ele>652.2</ele>
        <time>2019-08-18T06:50:56Z</time>
      </trkpt>
      <trkpt lat="42.5253030" lon="-8.1408990">
        <ele>652.3</ele>
        <time>2019-08-18T06:50:57Z</time>
      </trkpt>
      <trkpt lat="42.5253070" lon="-8.1409310">
        <ele>652.5</ele>
        <time>2019-08-18T06:50:58Z</time>
      </trkpt>
      <trkpt lat="42.5253110" lon="-8.1409630">
        <ele>652.7</ele>
        <time>2019-08-18T06:50:59Z</time>
      </trkpt>
      <trkpt lat="42.5253150" lon="-8.1409930">
        <ele>652.8</ele>
        <time>2019-08-18T06:51:00Z</time>
      </trkpt>
      <trkpt lat="42.5253190" lon="-8.1410230">
        <ele>653.0</ele>
        <time>2019-08-18T06:51:01Z</time>
      </trkpt>
      <trkpt lat="42.5253230" lon="-8.1410520">
        <ele>653.1</ele>
        <time>2019-08-18T06:51:02Z</time>
      </trkpt>
      <trkpt lat="42.5253270" lon="-8.1410810">
        <ele>653.2</ele>
        <time>2019-08-18T06:51:03Z</time>
      </trkpt>
      <trkpt lat="42.5253310" lon="-8.1411100">
        <ele>653.4</ele>
        <time>2019-08-18T06:51:04Z</time>
      </trkpt>
      <trkpt lat="42.5253350" lon="-8.1411400">
        <ele>653.5</ele>
        <time>2019-08-18T06:51:05Z</time>
      </trkpt>
      <trkpt lat="42.5253390" lon="-8.1411710">
        <ele>653.6</ele>
        <time>2019-08-18T06:51:06Z</time>
      </trkpt>
      <trkpt lat="42.5253430" lon="-8.1412030">
        <ele>653.8</ele>
        <time>2019-08-18T06:51:07Z</time>
      </trkpt>
      <trkpt lat="42.5253470" lon="-8.1412370">
        <ele>653.9</ele>
        <time>2019-08-18T06:51:08Z</time>
      </trkpt>
      <trkpt lat="42.5253520" lon="-8.1412710">
        <ele>654.1</ele>
        <time>2019-08-18T06:51:09Z</time>
      </trkpt>
      <trkpt lat="42.5253560" lon="-8.1413060">
        <ele>654.3</ele>
        <time>2019-08-18T06:51:10Z</time>
      </trkpt>
      <trkpt lat="42.5253610" lon="-8.1413420">
        <ele>654.4</ele>
        <time>2019-08-18T06:51:11Z</time>
      </trkpt>
      <trkpt lat="42.5253650" lon="-8.1413770">
        <ele>654.6</ele>
        <time>2019-08-18T06:51:12Z</time>
      </trkpt>
      <trkpt lat="42.5253700" lon="-8.1414120">
        <ele>654.7</ele>
        <time>2019-08-18T06:51:13Z</time>
      </trkpt>
      <trkpt lat="42.5253740" lon="-8.1414460">
        <ele>654.9</ele>
        <time>2019-08-18T06:51:14Z</time>
      </trkpt>
      <trkpt lat="42.5253780" lon="-8.1414790">
        <ele>655.0</ele>
        <time>2019-08-18T06:51:15Z</time>
      </trkpt>
      <trkpt lat="42.5253820" lon="-8.1415110">
        <ele>655.2</ele>
        <time>2019-08-18T06:51:16Z</time>
      </trkpt>
      <trkpt lat="42.5253860" lon="-8.1415420">
        <ele>655.3</ele>
        <time>2019-08-18T06:51:17Z</time>
      </trkpt>
      <trkpt lat="42.5253890" lon="-8.1415720">
        <ele>655.5</ele>
        <time>2019-08-18T06:51:18Z</time>
      </trkpt>
      <trkpt lat="42.5253930" lon="-8.1416010">
        <ele>655.6</ele>
        <time>2019-08-18T06:51:19Z</time>
      </trkpt>
      <trkpt lat="42.5253960" lon="-8.1416300">
        <ele>655.7</ele>
        <time>2019-08-18T06:51:20Z</time>
      </trkpt>
      <trkpt lat="42.5254000" lon="-8.1416590">
        <ele>655.9</ele>
        <time>2019-08-18T06:51:21Z</time>
      </trkpt>
      <trkpt lat="42.5254030" lon="-8.1416870">
        <ele>656.0</ele>
        <time>2019-08-18T06:51:22Z</time>
      </trkpt>
      <trkpt lat="42.5254060" lon="-8.1417160">
        <ele>656.2</ele>
        <time>2019-08-18T06:51:23Z</time>
      </trkpt>
      <trkpt lat="42.5254100" lon="-8.1417440">
        <ele>656.3</ele>
        <time>2019-08-18T06:51:24Z</time>
      </trkpt>
      <trkpt lat="42.5254130" lon="-8.1417720">
        <ele>656.5</ele>
        <time>2019-08-18T06:51:25Z</time>
      </trkpt>
      <trkpt lat="42.5254170" lon="-8.1418000">
        <ele>656.7</ele>
        <time>2019-08-18T06:51:26Z</time>
      </trkpt>
      <trkpt lat="42.5254200" lon="-8.1418280">
        <ele>656.8</ele>
        <time>2019-08-18T06:51:27Z</time>
      </trkpt>
      <trkpt lat="42.5254240" lon="-8.1418560">
        <ele>657.0</ele>
        <time>2019-08-18T06:51:28Z</time>
      </trkpt>
      <trkpt lat="42.5254280" lon="-8.1418840">
        <ele>657.2</ele>
        <time>2019-08-18T06:51:29Z</time>
      </trkpt>
      <trkpt lat="42.5254320" lon="-8.1419130">
        <ele>657.4</ele>
        <time>2019-08-18T06:51:30Z</time>
      </trkpt>
      <trkpt lat="42.5254360" lon="-8.1419410">
        <ele>657.6</ele>
        <time>2019-08-18T06:51:31Z</time>
      </trkpt>
      <trkpt lat="42.5254410" lon="-8.1419700">
        <ele>657.8</ele>
        <time>2019-08-18T06:51:32Z</time>
      </trkpt>
      <trkpt lat="42.5254450" lon="-8.1419980">
        <ele>658.0</ele>
        <time>2019-08-18T06:51:33Z</time>
      </trkpt>
      <trkpt lat="42.5254490" lon="-8.1420270">
        <ele>658.2</ele>
        <time>2019-08-18T06:51:34Z</time>
      </trkpt>
      <trkpt lat="42.5254540" lon="-8.1420560">
        <ele>658.4</ele>
        <time>2019-08-18T06:51:35Z</time>
      </trkpt>
      <trkpt lat="42.5254580" lon="-8.1420840">
        <ele>658.6</ele>
        <time>2019-08-18T06:51:36Z</time>
      </trkpt>
      <trkpt lat="42.5254630" lon="-8.1421130">
        <ele>658.9</ele>
        <time>2019-08-18T06:51:37Z</time>
      </trkpt>
      <trkpt lat="42.5254670" lon="-8.1421420">
        <ele>659.1</ele>
        <time>2019-08-18T06:51:38Z</time>
      </trkpt>
      <trkpt lat="42.5254710" lon="-8.1421710">
        <ele>659.3</ele>
        <time>2019-08-18T06:51:39Z</time>
      </trkpt>
      <trkpt lat="42.5254760" lon="-8.1422000">
        <ele>659.5</ele>
        <time>2019-08-18T06:51:40Z</time>
      </trkpt>
      <trkpt lat="42.5254800" lon="-8.1422300">
        <ele>659.7</ele>
        <time>2019-08-18T06:51:41Z</time>
      </trkpt>
      <trkpt lat="42.5254840" lon="-8.1422590">
        <ele>660.0</ele>
        <time>2019-08-18T06:51:42Z</time>
      </trkpt>
      <trkpt lat="42.5254880" lon="-8.1422880">
        <ele>660.2</ele>
        <time>2019-08-18T06:51:43Z</time>
      </trkpt>
      <trkpt lat="42.5254910" lon="-8.1423180">
        <ele>660.4</ele>
        <time>2019-08-18T06:51:44Z</time>
      </trkpt>
      <trkpt lat="42.5254950" lon="-8.1423470">
        <ele>660.6</ele>
        <time>2019-08-18T06:51:45Z</time>
      </trkpt>
      <trkpt lat="42.5254980" lon="-8.1423770">
        <ele>660.8</ele>
        <time>2019-08-18T06:51:46Z</time>
      </trkpt>
      <trkpt lat="42.5255020" lon="-8.1424060">
        <ele>661.0</ele>
        <time>2019-08-18T06:51:47Z</time>
      </trkpt>
      <trkpt lat="42.5255050" lon="-8.1424360">
        <ele>661.2</ele>
        <time>2019-08-18T06:51:48Z</time>
      </trkpt>
      <trkpt lat="42.5255080" lon="-8.1424650">
        <ele>661.4</ele>
        <time>2019-08-18T06:51:49Z</time>
      </trkpt>
      <trkpt lat="42.5255120" lon="-8.1424940">
        <ele>661.5</ele>
        <time>2019-08-18T06:51:50Z</time>
      </trkpt>
      <trkpt lat="42.5255150" lon="-8.1425240">
        <ele>661.7</ele>
        <time>2019-08-18T06:51:51Z</time>
      </trkpt>
      <trkpt lat="42.5255180" lon="-8.1425530">
        <ele>661.9</ele>
        <time>2019-08-18T06:51:52Z</time>
      </trkpt>
      <trkpt lat="42.5255220" lon="-8.1425810">
        <ele>662.1</ele>
        <time>2019-08-18T06:51:53Z</time>
      </trkpt>
      <trkpt lat="42.5255260" lon="-8.1426100">
        <ele>662.2</ele>
        <time>2019-08-18T06:51:54Z</time>
      </trkpt>
      <trkpt lat="42.5255300" lon="-8.1426380">
        <ele>662.4</ele>
        <time>2019-08-18T06:51:55Z</time>
      </trkpt>
      <trkpt lat="42.5255340" lon="-8.1426660">
        <ele>662.5</ele>
        <time>2019-08-18T06:51:56Z</time>
      </trkpt>
      <trkpt lat="42.5255380" lon="-8.1426940">
        <ele>662.7</ele>
        <time>2019-08-18T06:51:57Z</time>
      </trkpt>
      <trkpt lat="42.5255430" lon="-8.1427220">
        <ele>662.9</ele>
        <time>2019-08-18T06:51:58Z</time>
      </trkpt>
      <trkpt lat="42.5255480" lon="-8.1427490">
        <ele>663.0</ele>
        <time>2019-08-18T06:51:59Z</time>
      </trkpt>
      <trkpt lat="42.5255540" lon="-8.1427750">
        <ele>663.2</ele>
        <time>2019-08-18T06:52:00Z</time>
      </trkpt>
      <trkpt lat="42.5255610" lon="-8.1428020">
        <ele>663.3</ele>
        <time>2019-08-18T06:52:01Z</time>
      </trkpt>
      <trkpt lat="42.5255690" lon="-8.1428270">
        <ele>663.5</ele>
        <time>2019-08-18T06:52:02Z</time>
      </trkpt>
      <trkpt lat="42.5255780" lon="-8.1428530">
        <ele>663.7</ele>
        <time>2019-08-18T06:52:03Z</time>
      </trkpt>
      <trkpt lat="42.5255890" lon="-8.1428770">
        <ele>663.9</ele>
        <time>2019-08-18T06:52:04Z</time>
      </trkpt>
      <trkpt lat="42.5256010" lon="-8.1429010">
        <ele>664.0</ele>
        <time>2019-08-18T06:52:05Z</time>
      </trkpt>
      <trkpt lat="42.5256150" lon="-8.1429240">
        <ele>664.1</ele>
        <time>2019-08-18T06:52:06Z</time>
      </trkpt>
      <trkpt lat="42.5256310" lon="-8.1429470">
        <ele>664.3</ele>
        <time>2019-08-18T06:52:07Z</time>
      </trkpt>
      <trkpt lat="42.5256480" lon="-8.1429680">
        <ele>664.4</ele>
        <time>2019-08-18T06:52:08Z</time>
      </trkpt>
      <trkpt lat="42.5256660" lon="-8.1429880">
        <ele>664.6</ele>
        <time>2019-08-18T06:52:09Z</time>
      </trkpt>
      <trkpt lat="42.5256850" lon="-8.1430060">
        <ele>664.7</ele>
        <time>2019-08-18T06:52:10Z</time>
      </trkpt>
      <trkpt lat="42.5257040" lon="-8.1430230">
        <ele>664.9</ele>
        <time>2019-08-18T06:52:11Z</time>
      </trkpt>
      <trkpt lat="42.5257240" lon="-8.1430370">
        <ele>665.0</ele>
        <time>2019-08-18T06:52:12Z</time>
      </trkpt>
      <trkpt lat="42.5257530" lon="-8.1430540">
        <ele>665.2</ele>
        <time>2019-08-18T06:52:13Z</time>
      </trkpt>
      <trkpt lat="42.5257630" lon="-8.1430590">
        <ele>665.3</ele>
        <time>2019-08-18T06:52:14Z</time>
      </trkpt>
      <trkpt lat="42.5257820" lon="-8.1430670">
        <ele>665.4</ele>
        <time>2019-08-18T06:52:15Z</time>
      </trkpt>
      <trkpt lat="42.5258020" lon="-8.1430730">
        <ele>665.5</ele>
        <time>2019-08-18T06:52:16Z</time>
      </trkpt>
      <trkpt lat="42.5258220" lon="-8.1430770">
        <ele>665.7</ele>
        <time>2019-08-18T06:52:17Z</time>
      </trkpt>
      <trkpt lat="42.5258410" lon="-8.1430780">
        <ele>665.8</ele>
        <time>2019-08-18T06:52:18Z</time>
      </trkpt>
      <trkpt lat="42.5258610" lon="-8.1430780">
        <ele>666.0</ele>
        <time>2019-08-18T06:52:19Z</time>
      </trkpt>
      <trkpt lat="42.5258800" lon="-8.1430760">
        <ele>666.1</ele>
        <time>2019-08-18T06:52:20Z</time>
      </trkpt>
      <trkpt lat="42.5258990" lon="-8.1430730">
        <ele>666.3</ele>
        <time>2019-08-18T06:52:21Z</time>
      </trkpt>
      <trkpt lat="42.5259190" lon="-8.1430690">
        <ele>666.4</ele>
        <time>2019-08-18T06:52:22Z</time>
      </trkpt>
      <trkpt lat="42.5259380" lon="-8.1430660">
        <ele>666.6</ele>
        <time>2019-08-18T06:52:23Z</time>
      </trkpt>
      <trkpt lat="42.5259570" lon="-8.1430620">
        <ele>666.8</ele>
        <time>2019-08-18T06:52:24Z</time>
      </trkpt>
      <trkpt lat="42.5259760" lon="-8.1430600">
        <ele>666.9</ele>
        <time>2019-08-18T06:52:25Z</time>
      </trkpt>
      <trkpt lat="42.5259950" lon="-8.1430600">
        <ele>667.1</ele>
        <time>2019-08-18T06:52:26Z</time>
      </trkpt>
      <trkpt lat="42.5260140" lon="-8.1430620">
        <ele>667.3</ele>
        <time>2019-08-18T06:52:27Z</time>
      </trkpt>
      <trkpt lat="42.5260320" lon="-8.1430650">
        <ele>667.4</ele>
        <time>2019-08-18T06:52:28Z</time>
      </trkpt>
      <trkpt lat="42.5260500" lon="-8.1430670">
        <ele>667.6</ele>
        <time>2019-08-18T06:52:29Z</time>
      </trkpt>
      <trkpt lat="42.5260660" lon="-8.1430680">
        <ele>667.7</ele>
        <time>2019-08-18T06:52:30Z</time>
      </trkpt>
      <trkpt lat="42.5260820" lon="-8.1430660">
        <ele>667.9</ele>
        <time>2019-08-18T06:52:31Z</time>
      </trkpt>
      <trkpt lat="42.5260970" lon="-8.1430620">
        <ele>668.0</ele>
        <time>2019-08-18T06:52:32Z</time>
      </trkpt>
      <trkpt lat="42.5261110" lon="-8.1430570">
        <ele>668.1</ele>
        <time>2019-08-18T06:52:33Z</time>
      </trkpt>
      <trkpt lat="42.5261260" lon="-8.1430520">
        <ele>668.3</ele>
        <time>2019-08-18T06:52:34Z</time>
      </trkpt>
      <trkpt lat="42.5261420" lon="-8.1430470">
        <ele>668.4</ele>
        <time>2019-08-18T06:52:35Z</time>
      </trkpt>
      <trkpt lat="42.5261580" lon="-8.1430440">
        <ele>668.6</ele>
        <time>2019-08-18T06:52:36Z</time>
      </trkpt>
      <trkpt lat="42.5261750" lon="-8.1430410">
        <ele>668.7</ele>
        <time>2019-08-18T06:52:37Z</time>
      </trkpt>
      <trkpt lat="42.5261920" lon="-8.1430380">
        <ele>668.9</ele>
        <time>2019-08-18T06:52:38Z</time>
      </trkpt>
      <trkpt lat="42.5262100" lon="-8.1430360">
        <ele>669.1</ele>
        <time>2019-08-18T06:52:39Z</time>
      </trkpt>
      <trkpt lat="42.5262280" lon="-8.1430340">
        <ele>669.3</ele>
        <time>2019-08-18T06:52:40Z</time>
      </trkpt>
      <trkpt lat="42.5262460" lon="-8.1430320">
        <ele>669.4</ele>
        <time>2019-08-18T06:52:41Z</time>
      </trkpt>
      <trkpt lat="42.5262640" lon="-8.1430310">
        <ele>669.6</ele>
        <time>2019-08-18T06:52:42Z</time>
      </trkpt>
      <trkpt lat="42.5262820" lon="-8.1430290">
        <ele>669.8</ele>
        <time>2019-08-18T06:52:43Z</time>
      </trkpt>
      <trkpt lat="42.5262990" lon="-8.1430270">
        <ele>669.9</ele>
        <time>2019-08-18T06:52:44Z</time>
      </trkpt>
      <trkpt lat="42.5263170" lon="-8.1430250">
        <ele>670.1</ele>
        <time>2019-08-18T06:52:45Z</time>
      </trkpt>
      <trkpt lat="42.5263350" lon="-8.1430230">
        <ele>670.3</ele>
        <time>2019-08-18T06:52:46Z</time>
      </trkpt>
      <trkpt lat="42.5263530" lon="-8.1430190">
        <ele>670.4</ele>
        <time>2019-08-18T06:52:47Z</time>
      </trkpt>
      <trkpt lat="42.5263700" lon="-8.1430150">
        <ele>670.6</ele>
        <time>2019-08-18T06:52:48Z</time>
      </trkpt>
      <trkpt lat="42.5263880" lon="-8.1430110">
        <ele>670.8</ele>
        <time>2019-08-18T06:52:49Z</time>
      </trkpt>
      <trkpt lat="42.5264050" lon="-8.1430050">
        <ele>670.9</ele>
        <time>2019-08-18T06:52:50Z</time>
      </trkpt>
      <trkpt lat="42.5264230" lon="-8.1429980">
        <ele>671.1</ele>
        <time>2019-08-18T06:52:51Z</time>
      </trkpt>
      <trkpt lat="42.5264410" lon="-8.1429910">
        <ele>671.3</ele>
        <time>2019-08-18T06:52:52Z</time>
      </trkpt>
      <trkpt lat="42.5264590" lon="-8.1429840">
        <ele>671.4</ele>
        <time>2019-08-18T06:52:53Z</time>
      </trkpt>
      <trkpt lat="42.5264770" lon="-8.1429770">
        <ele>671.6</ele>
        <time>2019-08-18T06:52:54Z</time>
      </trkpt>
      <trkpt lat="42.5264960" lon="-8.1429700">
        <ele>671.8</ele>
        <time>2019-08-18T06:52:55Z</time>
      </trkpt>
      <trkpt lat="42.5265150" lon="-8.1429650">
        <ele>672.0</ele>
        <time>2019-08-18T06:52:56Z</time>
      </trkpt>
      <trkpt lat="42.5265350" lon="-8.1429600">
        <ele>672.2</ele>
        <time>2019-08-18T06:52:57Z</time>
      </trkpt>
      <trkpt lat="42.5265560" lon="-8.1429560">
        <ele>672.4</ele>
        <time>2019-08-18T06:52:58Z</time>
      </trkpt>
      <trkpt lat="42.5265760" lon="-8.1429530">
        <ele>672.6</ele>
        <time>2019-08-18T06:52:59Z</time>
      </trkpt>
      <trkpt lat="42.5265970" lon="-8.1429510">
        <ele>672.8</ele>
        <time>2019-08-18T06:53:00Z</time>
      </trkpt>
      <trkpt lat="42.5266190" lon="-8.1429500">
        <ele>673.0</ele>
        <time>2019-08-18T06:53:01Z</time>
      </trkpt>
      <trkpt lat="42.5266400" lon="-8.1429490">
        <ele>673.2</ele>
        <time>2019-08-18T06:53:02Z</time>
      </trkpt>
      <trkpt lat="42.5266620" lon="-8.1429490">
        <ele>673.5</ele>
        <time>2019-08-18T06:53:03Z</time>
      </trkpt>
      <trkpt lat="42.5266830" lon="-8.1429490">
        <ele>673.7</ele>
        <time>2019-08-18T06:53:04Z</time>
      </trkpt>
      <trkpt lat="42.5267040" lon="-8.1429500">
        <ele>673.9</ele>
        <time>2019-08-18T06:53:05Z</time>
      </trkpt>
      <trkpt lat="42.5267250" lon="-8.1429510">
        <ele>674.0</ele>
        <time>2019-08-18T06:53:06Z</time>
      </trkpt>
      <trkpt lat="42.5267460" lon="-8.1429530">
        <ele>674.2</ele>
        <time>2019-08-18T06:53:07Z</time>
      </trkpt>
      <trkpt lat="42.5267670" lon="-8.1429550">
        <ele>674.4</ele>
        <time>2019-08-18T06:53:08Z</time>
      </trkpt>
      <trkpt lat="42.5267990" lon="-8.1429580">
        <ele>674.7</ele>
        <time>2019-08-18T06:53:09Z</time>
      </trkpt>
      <trkpt lat="42.5268090" lon="-8.1429600">
        <ele>674.8</ele>
        <time>2019-08-18T06:53:10Z</time>
      </trkpt>
      <trkpt lat="42.5268290" lon="-8.1429630">
        <ele>674.9</ele>
        <time>2019-08-18T06:53:11Z</time>
      </trkpt>
      <trkpt lat="42.5268500" lon="-8.1429670">
        <ele>675.1</ele>
        <time>2019-08-18T06:53:12Z</time>
      </trkpt>
      <trkpt lat="42.5268710" lon="-8.1429710">
        <ele>675.3</ele>
        <time>2019-08-18T06:53:13Z</time>
      </trkpt>
      <trkpt lat="42.5268920" lon="-8.1429750">
        <ele>675.5</ele>
        <time>2019-08-18T06:53:14Z</time>
      </trkpt>
      <trkpt lat="42.5269130" lon="-8.1429800">
        <ele>675.6</ele>
        <time>2019-08-18T06:53:15Z</time>
      </trkpt>
      <trkpt lat="42.5269340" lon="-8.1429840">
        <ele>675.8</ele>
        <time>2019-08-18T06:53:16Z</time>
      </trkpt>
      <trkpt lat="42.5269550" lon="-8.1429870">
        <ele>676.0</ele>
        <time>2019-08-18T06:53:17Z</time>
      </trkpt>
      <trkpt lat="42.5269770" lon="-8.1429900">
        <ele>676.1</ele>
        <time>2019-08-18T06:53:18Z</time>
      </trkpt>
      <trkpt lat="42.5269990" lon="-8.1429920">
        <ele>676.3</ele>
        <time>2019-08-18T06:53:19Z</time>
      </trkpt>
      <trkpt lat="42.5270210" lon="-8.1429940">
        <ele>676.5</ele>
        <time>2019-08-18T06:53:20Z</time>
      </trkpt>
      <trkpt lat="42.5270420" lon="-8.1429960">
        <ele>676.6</ele>
        <time>2019-08-18T06:53:21Z</time>
      </trkpt>
      <trkpt lat="42.5270640" lon="-8.1429990">
        <ele>676.8</ele>
        <time>2019-08-18T06:53:22Z</time>
      </trkpt>
      <trkpt lat="42.5270850" lon="-8.1430020">
        <ele>677.0</ele>
        <time>2019-08-18T06:53:23Z</time>
      </trkpt>
      <trkpt lat="42.5271060" lon="-8.1430070">
        <ele>677.1</ele>
        <time>2019-08-18T06:53:24Z</time>
      </trkpt>
      <trkpt lat="42.5271260" lon="-8.1430140">
        <ele>677.3</ele>
        <time>2019-08-18T06:53:25Z</time>
      </trkpt>
      <trkpt lat="42.5271450" lon="-8.1430240">
        <ele>677.4</ele>
        <time>2019-08-18T06:53:26Z</time>
      </trkpt>
      <trkpt lat="42.5271640" lon="-8.1430340">
        <ele>677.6</ele>
        <time>2019-08-18T06:53:27Z</time>
      </trkpt>
      <trkpt lat="42.5271810" lon="-8.1430460">
        <ele>677.7</ele>
        <time>2019-08-18T06:53:28Z</time>
      </trkpt>
      <trkpt lat="42.5271980" lon="-8.1430570">
        <ele>677.9</ele>
        <time>2019-08-18T06:53:29Z</time>
      </trkpt>
      <trkpt lat="42.5272140" lon="-8.1430670">
        <ele>678.0</ele>
        <time>2019-08-18T06:53:30Z</time>
      </trkpt>
      <trkpt lat="42.5272290" lon="-8.1430770">
        <ele>678.1</ele>
        <time>2019-08-18T06:53:31Z</time>
      </trkpt>
      <trkpt lat="42.5272450" lon="-8.1430870">
        <ele>678.2</ele>
        <time>2019-08-18T06:53:32Z</time>
      </trkpt>
      <trkpt lat="42.5272620" lon="-8.1430970">
        <ele>678.4</ele>
        <time>2019-08-18T06:53:33Z</time>
      </trkpt>
      <trkpt lat="42.5272810" lon="-8.1431070">
        <ele>678.5</ele>
        <time>2019-08-18T06:53:34Z</time>
      </trkpt>
      <trkpt lat="42.5273010" lon="-8.1431190">
        <ele>678.6</ele>
        <time>2019-08-18T06:53:35Z</time>
      </trkpt>
      <trkpt lat="42.5273210" lon="-8.1431330">
        <ele>678.8</ele>
        <time>2019-08-18T06:53:36Z</time>
      </trkpt>
      <trkpt lat="42.5273410" lon="-8.1431480">
        <ele>678.9</ele>
        <time>2019-08-18T06:53:37Z</time>
      </trkpt>
      <trkpt lat="42.5273590" lon="-8.1431660">
        <ele>679.1</ele>
        <time>2019-08-18T06:53:38Z</time>
      </trkpt>
      <trkpt lat="42.5273760" lon="-8.1431860">
        <ele>679.2</ele>
        <time>2019-08-18T06:53:39Z</time>
      </trkpt>
      <trkpt lat="42.5273920" lon="-8.1432070">
        <ele>679.4</ele>
        <time>2019-08-18T06:53:40Z</time>
      </trkpt>
      <trkpt lat="42.5274060" lon="-8.1432280">
        <ele>679.5</ele>
        <time>2019-08-18T06:53:41Z</time>
      </trkpt>
      <trkpt lat="42.5274200" lon="-8.1432510">
        <ele>679.6</ele>
        <time>2019-08-18T06:53:42Z</time>
      </trkpt>
      <trkpt lat="42.5274330" lon="-8.1432740">
        <ele>679.7</ele>
        <time>2019-08-18T06:53:43Z</time>
      </trkpt>
      <trkpt lat="42.5274450" lon="-8.1432980">
        <ele>679.9</ele>
        <time>2019-08-18T06:53:44Z</time>
      </trkpt>
      <trkpt lat="42.5274570" lon="-8.1433220">
        <ele>680.0</ele>
        <time>2019-08-18T06:53:45Z</time>
      </trkpt>
      <trkpt lat="42.5274690" lon="-8.1433480">
        <ele>680.1</ele>
        <time>2019-08-18T06:53:46Z</time>
      </trkpt>
      <trkpt lat="42.5274820" lon="-8.1433740">
        <ele>680.2</ele>
        <time>2019-08-18T06:53:47Z</time>
      </trkpt>
      <trkpt lat="42.5274950" lon="-8.1434010">
        <ele>680.4</ele>
        <time>2019-08-18T06:53:48Z</time>
      </trkpt>
      <trkpt lat="42.5275080" lon="-8.1434300">
        <ele>680.5</ele>
        <time>2019-08-18T06:53:49Z</time>
      </trkpt>
      <trkpt lat="42.5275220" lon="-8.1434580">
        <ele>680.7</ele>
        <time>2019-08-18T06:53:50Z</time>
      </trkpt>
      <trkpt lat="42.5275350" lon="-8.1434880">
        <ele>680.9</ele>
        <time>2019-08-18T06:53:51Z</time>
      </trkpt>
      <trkpt lat="42.5275490" lon="-8.1435180">
        <ele>681.1</ele>
        <time>2019-08-18T06:53:52Z</time>
      </trkpt>
      <trkpt lat="42.5275620" lon="-8.1435480">
        <ele>681.2</ele>
        <time>2019-08-18T06:53:53Z</time>
      </trkpt>
      <trkpt lat="42.5275750" lon="-8.1435780">
        <ele>681.4</ele>
        <time>2019-08-18T06:53:54Z</time>
      </trkpt>
      <trkpt lat="42.5275860" lon="-8.1436080">
        <ele>681.5</ele>
        <time>2019-08-18T06:53:55Z</time>
      </trkpt>
      <trkpt lat="42.5275980" lon="-8.1436380">
        <ele>681.7</ele>
        <time>2019-08-18T06:53:56Z</time>
      </trkpt>
      <trkpt lat="42.5276090" lon="-8.1436680">
        <ele>681.8</ele>
        <time>2019-08-18T06:53:57Z</time>
      </trkpt>
      <trkpt lat="42.5276190" lon="-8.1436980">
        <ele>681.9</ele>
        <time>2019-08-18T06:53:58Z</time>
      </trkpt>
      <trkpt lat="42.5276290" lon="-8.1437280">
        <ele>682.0</ele>
        <time>2019-08-18T06:53:59Z</time>
      </trkpt>
      <trkpt lat="42.5276380" lon="-8.1437580">
        <ele>682.1</ele>
        <time>2019-08-18T06:54:00Z</time>
      </trkpt>
      <trkpt lat="42.5276480" lon="-8.1437890">
        <ele>682.2</ele>
        <time>2019-08-18T06:54:01Z</time>
      </trkpt>
      <trkpt lat="42.5276570" lon="-8.1438200">
        <ele>682.3</ele>
        <time>2019-08-18T06:54:02Z</time>
      </trkpt>
      <trkpt lat="42.5276660" lon="-8.1438510">
        <ele>682.4</ele>
        <time>2019-08-18T06:54:03Z</time>
      </trkpt>
      <trkpt lat="42.5276750" lon="-8.1438830">
        <ele>682.5</ele>
        <time>2019-08-18T06:54:04Z</time>
      </trkpt>
      <trkpt lat="42.5276840" lon="-8.1439140">
        <ele>682.6</ele>
        <time>2019-08-18T06:54:05Z</time>
      </trkpt>
      <trkpt lat="42.5276930" lon="-8.1439470">
        <ele>682.7</ele>
        <time>2019-08-18T06:54:06Z</time>
      </trkpt>
      <trkpt lat="42.5277030" lon="-8.1439800">
        <ele>682.7</ele>
        <time>2019-08-18T06:54:07Z</time>
      </trkpt>
      <trkpt lat="42.5277120" lon="-8.1440130">
        <ele>682.8</ele>
        <time>2019-08-18T06:54:08Z</time>
      </trkpt>
      <trkpt lat="42.5277220" lon="-8.1440470">
        <ele>682.9</ele>
        <time>2019-08-18T06:54:09Z</time>
      </trkpt>
      <trkpt lat="42.5277330" lon="-8.1440810">
        <ele>683.0</ele>
        <time>2019-08-18T06:54:10Z</time>
      </trkpt>
      <trkpt lat="42.5277440" lon="-8.1441170">
        <ele>683.0</ele>
        <time>2019-08-18T06:54:11Z</time>
      </trkpt>
      <trkpt lat="42.5277550" lon="-8.1441520">
        <ele>683.1</ele>
        <time>2019-08-18T06:54:12Z</time>
      </trkpt>
      <trkpt lat="42.5277670" lon="-8.1441880">
        <ele>683.2</ele>
        <time>2019-08-18T06:54:13Z</time>
      </trkpt>
      <trkpt lat="42.5277790" lon="-8.1442250">
        <ele>683.3</ele>
        <time>2019-08-18T06:54:14Z</time>
      </trkpt>
      <trkpt lat="42.5277910" lon="-8.1442610">
        <ele>683.3</ele>
        <time>2019-08-18T06:54:15Z</time>
      </trkpt>
      <trkpt lat="42.5278030" lon="-8.1442980">
        <ele>683.5</ele>
        <time>2019-08-18T06:54:16Z</time>
      </trkpt>
      <trkpt lat="42.5278150" lon="-8.1443350">
        <ele>683.6</ele>
        <time>2019-08-18T06:54:17Z</time>
      </trkpt>
      <trkpt lat="42.5278280" lon="-8.1443730">
        <ele>683.7</ele>
        <time>2019-08-18T06:54:18Z</time>
      </trkpt>
      <trkpt lat="42.5278400" lon="-8.1444100">
        <ele>683.9</ele>
        <time>2019-08-18T06:54:19Z</time>
      </trkpt>
      <trkpt lat="42.5278530" lon="-8.1444480">
        <ele>684.1</ele>
        <time>2019-08-18T06:54:20Z</time>
      </trkpt>
      <trkpt lat="42.5278650" lon="-8.1444870">
        <ele>684.3</ele>
        <time>2019-08-18T06:54:21Z</time>
      </trkpt>
      <trkpt lat="42.5278780" lon="-8.1445260">
        <ele>684.5</ele>
        <time>2019-08-18T06:54:22Z</time>
      </trkpt>
      <trkpt lat="42.5278910" lon="-8.1445660">
        <ele>684.7</ele>
        <time>2019-08-18T06:54:23Z</time>
      </trkpt>
      <trkpt lat="42.5279040" lon="-8.1446070">
        <ele>684.9</ele>
        <time>2019-08-18T06:54:24Z</time>
      </trkpt>
      <trkpt lat="42.5279160" lon="-8.1446490">
        <ele>685.1</ele>
        <time>2019-08-18T06:54:25Z</time>
      </trkpt>
      <trkpt lat="42.5279290" lon="-8.1446900">
        <ele>685.2</ele>
        <time>2019-08-18T06:54:26Z</time>
      </trkpt>
      <trkpt lat="42.5279410" lon="-8.1447320">
        <ele>685.4</ele>
        <time>2019-08-18T06:54:27Z</time>
      </trkpt>
      <trkpt lat="42.5279540" lon="-8.1447740">
        <ele>685.6</ele>
        <time>2019-08-18T06:54:28Z</time>
      </trkpt>
      <trkpt lat="42.5279660" lon="-8.1448150">
        <ele>685.7</ele>
        <time>2019-08-18T06:54:29Z</time>
      </trkpt>
      <trkpt lat="42.5279780" lon="-8.1448550">
        <ele>685.8</ele>
        <time>2019-08-18T06:54:30Z</time>
      </trkpt>
      <trkpt lat="42.5279900" lon="-8.1448950">
        <ele>685.9</ele>
        <time>2019-08-18T06:54:31Z</time>
      </trkpt>
      <trkpt lat="42.5280020" lon="-8.1449330">
        <ele>686.0</ele>
        <time>2019-08-18T06:54:32Z</time>
      </trkpt>
      <trkpt lat="42.5280140" lon="-8.1449700">
        <ele>686.1</ele>
        <time>2019-08-18T06:54:33Z</time>
      </trkpt>
      <trkpt lat="42.5280250" lon="-8.1450060">
        <ele>686.2</ele>
        <time>2019-08-18T06:54:34Z</time>
      </trkpt>
      <trkpt lat="42.5280370" lon="-8.1450420">
        <ele>686.2</ele>
        <time>2019-08-18T06:54:35Z</time>
      </trkpt>
      <trkpt lat="42.5280480" lon="-8.1450760">
        <ele>686.3</ele>
        <time>2019-08-18T06:54:36Z</time>
      </trkpt>
      <trkpt lat="42.5280580" lon="-8.1451090">
        <ele>686.3</ele>
        <time>2019-08-18T06:54:37Z</time>
      </trkpt>
      <trkpt lat="42.5280690" lon="-8.1451420">
        <ele>686.4</ele>
        <time>2019-08-18T06:54:38Z</time>
      </trkpt>
      <trkpt lat="42.5280790" lon="-8.1451740">
        <ele>686.4</ele>
        <time>2019-08-18T06:54:39Z</time>
      </trkpt>
      <trkpt lat="42.5280890" lon="-8.1452060">
        <ele>686.5</ele>
        <time>2019-08-18T06:54:40Z</time>
      </trkpt>
      <trkpt lat="42.5280980" lon="-8.1452370">
        <ele>686.5</ele>
        <time>2019-08-18T06:54:41Z</time>
      </trkpt>
      <trkpt lat="42.5281080" lon="-8.1452670">
        <ele>686.5</ele>
        <time>2019-08-18T06:54:42Z</time>
      </trkpt>
      <trkpt lat="42.5281170" lon="-8.1452980">
        <ele>686.6</ele>
        <time>2019-08-18T06:54:43Z</time>
      </trkpt>
      <trkpt lat="42.5281270" lon="-8.1453280">
        <ele>686.6</ele>
        <time>2019-08-18T06:54:44Z</time>
      </trkpt>
      <trkpt lat="42.5281360" lon="-8.1453570">
        <ele>686.7</ele>
        <time>2019-08-18T06:54:45Z</time>
      </trkpt>
      <trkpt lat="42.5281460" lon="-8.1453870">
        <ele>686.7</ele>
        <time>2019-08-18T06:54:46Z</time>
      </trkpt>
      <trkpt lat="42.5281550" lon="-8.1454160">
        <ele>686.8</ele>
        <time>2019-08-18T06:54:47Z</time>
      </trkpt>
      <trkpt lat="42.5281650" lon="-8.1454450">
        <ele>686.8</ele>
        <time>2019-08-18T06:54:48Z</time>
      </trkpt>
      <trkpt lat="42.5281740" lon="-8.1454740">
        <ele>686.8</ele>
        <time>2019-08-18T06:54:49Z</time>
      </trkpt>
      <trkpt lat="42.5281840" lon="-8.1455040">
        <ele>686.9</ele>
        <time>2019-08-18T06:54:50Z</time>
      </trkpt>
      <trkpt lat="42.5281940" lon="-8.1455330">
        <ele>687.0</ele>
        <time>2019-08-18T06:54:51Z</time>
      </trkpt>
      <trkpt lat="42.5282050" lon="-8.1455620">
        <ele>687.1</ele>
        <time>2019-08-18T06:54:52Z</time>
      </trkpt>
      <trkpt lat="42.5282150" lon="-8.1455920">
        <ele>687.1</ele>
        <time>2019-08-18T06:54:53Z</time>
      </trkpt>
      <trkpt lat="42.5282260" lon="-8.1456220">
        <ele>687.2</ele>
        <time>2019-08-18T06:54:54Z</time>
      </trkpt>
      <trkpt lat="42.5282380" lon="-8.1456520">
        <ele>687.3</ele>
        <time>2019-08-18T06:54:55Z</time>
      </trkpt>
      <trkpt lat="42.5282490" lon="-8.1456820">
        <ele>687.5</ele>
        <time>2019-08-18T06:54:56Z</time>
      </trkpt>
      <trkpt lat="42.5282610" lon="-8.1457120">
        <ele>687.6</ele>
        <time>2019-08-18T06:54:57Z</time>
      </trkpt>
      <trkpt lat="42.5282720" lon="-8.1457430">
        <ele>687.8</ele>
        <time>2019-08-18T06:54:58Z</time>
      </trkpt>
      <trkpt lat="42.5282840" lon="-8.1457740">
        <ele>687.9</ele>
        <time>2019-08-18T06:54:59Z</time>
      </trkpt>
      <trkpt lat="42.5282950" lon="-8.1458050">
        <ele>688.1</ele>
        <time>2019-08-18T06:55:00Z</time>
      </trkpt>
      <trkpt lat="42.5283060" lon="-8.1458360">
        <ele>688.3</ele>
        <time>2019-08-18T06:55:01Z</time>
      </trkpt>
      <trkpt lat="42.5283160" lon="-8.1458680">
        <ele>688.5</ele>
        <time>2019-08-18T06:55:02Z</time>
      </trkpt>
      <trkpt lat="42.5283260" lon="-8.1459000">
        <ele>688.7</ele>
        <time>2019-08-18T06:55:03Z</time>
      </trkpt>
      <trkpt lat="42.5283360" lon="-8.1459310">
        <ele>688.9</ele>
        <time>2019-08-18T06:55:04Z</time>
      </trkpt>
      <trkpt lat="42.5283450" lon="-8.1459640">
        <ele>689.1</ele>
        <time>2019-08-18T06:55:05Z</time>
      </trkpt>
      <trkpt lat="42.5283530" lon="-8.1459960">
        <ele>689.3</ele>
        <time>2019-08-18T06:55:06Z</time>
      </trkpt>
      <trkpt lat="42.5283600" lon="-8.1460280">
        <ele>689.5</ele>
        <time>2019-08-18T06:55:07Z</time>
      </trkpt>
      <trkpt lat="42.5283660" lon="-8.1460610">
        <ele>689.6</ele>
        <time>2019-08-18T06:55:08Z</time>
      </trkpt>
      <trkpt lat="42.5283710" lon="-8.1460940">
        <ele>689.8</ele>
        <time>2019-08-18T06:55:09Z</time>
      </trkpt>
      <trkpt lat="42.5283750" lon="-8.1461270">
        <ele>689.9</ele>
        <time>2019-08-18T06:55:10Z</time>
      </trkpt>
      <trkpt lat="42.5283770" lon="-8.1461610">
        <ele>690.2</ele>
        <time>2019-08-18T06:55:11Z</time>
      </trkpt>
      <trkpt lat="42.5283780" lon="-8.1461950">
        <ele>690.4</ele>
        <time>2019-08-18T06:55:12Z</time>
      </trkpt>
      <trkpt lat="42.5283780" lon="-8.1462290">
        <ele>690.6</ele>
        <time>2019-08-18T06:55:13Z</time>
      </trkpt>
      <trkpt lat="42.5283760" lon="-8.1462640">
        <ele>690.7</ele>
        <time>2019-08-18T06:55:14Z</time>
      </trkpt>
      <trkpt lat="42.5283730" lon="-8.1462990">
        <ele>690.8</ele>
        <time>2019-08-18T06:55:15Z</time>
      </trkpt>
      <trkpt lat="42.5283670" lon="-8.1463350">
        <ele>691.0</ele>
        <time>2019-08-18T06:55:16Z</time>
      </trkpt>
      <trkpt lat="42.5283610" lon="-8.1463720">
        <ele>691.2</ele>
        <time>2019-08-18T06:55:17Z</time>
      </trkpt>
      <trkpt lat="42.5283530" lon="-8.1464090">
        <ele>691.4</ele>
        <time>2019-08-18T06:55:18Z</time>
      </trkpt>
      <trkpt lat="42.5283440" lon="-8.1464470">
        <ele>691.6</ele>
        <time>2019-08-18T06:55:19Z</time>
      </trkpt>
      <trkpt lat="42.5283340" lon="-8.1464850">
        <ele>691.8</ele>
        <time>2019-08-18T06:55:20Z</time>
      </trkpt>
      <trkpt lat="42.5283240" lon="-8.1465240">
        <ele>692.0</ele>
        <time>2019-08-18T06:55:21Z</time>
      </trkpt>
      <trkpt lat="42.5283130" lon="-8.1465630">
        <ele>692.2</ele>
        <time>2019-08-18T06:55:22Z</time>
      </trkpt>
      <trkpt lat="42.5283030" lon="-8.1466030">
        <ele>692.4</ele>
        <time>2019-08-18T06:55:23Z</time>
      </trkpt>
      <trkpt lat="42.5282920" lon="-8.1466440">
        <ele>692.6</ele>
        <time>2019-08-18T06:55:24Z</time>
      </trkpt>
      <trkpt lat="42.5282820" lon="-8.1466840">
        <ele>692.8</ele>
        <time>2019-08-18T06:55:25Z</time>
      </trkpt>
      <trkpt lat="42.5282720" lon="-8.1467250">
        <ele>693.0</ele>
        <time>2019-08-18T06:55:26Z</time>
      </trkpt>
      <trkpt lat="42.5282630" lon="-8.1467660">
        <ele>693.2</ele>
        <time>2019-08-18T06:55:27Z</time>
      </trkpt>
      <trkpt lat="42.5282530" lon="-8.1468070">
        <ele>693.4</ele>
        <time>2019-08-18T06:55:28Z</time>
      </trkpt>
      <trkpt lat="42.5282440" lon="-8.1468470">
        <ele>693.6</ele>
        <time>2019-08-18T06:55:29Z</time>
      </trkpt>
      <trkpt lat="42.5282350" lon="-8.1468880">
        <ele>693.8</ele>
        <time>2019-08-18T06:55:30Z</time>
      </trkpt>
      <trkpt lat="42.5282270" lon="-8.1469280">
        <ele>694.0</ele>
        <time>2019-08-18T06:55:31Z</time>
      </trkpt>
      <trkpt lat="42.5282200" lon="-8.1469670">
        <ele>694.2</ele>
        <time>2019-08-18T06:55:32Z</time>
      </trkpt>
      <trkpt lat="42.5282130" lon="-8.1470060">
        <ele>694.4</ele>
        <time>2019-08-18T06:55:33Z</time>
      </trkpt>
      <trkpt lat="42.5282060" lon="-8.1470430">
        <ele>694.6</ele>
        <time>2019-08-18T06:55:34Z</time>
      </trkpt>
      <trkpt lat="42.5282000" lon="-8.1470800">
        <ele>694.8</ele>
        <time>2019-08-18T06:55:35Z</time>
      </trkpt>
      <trkpt lat="42.5281950" lon="-8.1471160">
        <ele>694.9</ele>
        <time>2019-08-18T06:55:36Z</time>
      </trkpt>
      <trkpt lat="42.5281910" lon="-8.1471510">
        <ele>695.1</ele>
        <time>2019-08-18T06:55:37Z</time>
      </trkpt>
      <trkpt lat="42.5281880" lon="-8.1471840">
        <ele>695.2</ele>
        <time>2019-08-18T06:55:38Z</time>
      </trkpt>
      <trkpt lat="42.5281850" lon="-8.1472170">
        <ele>695.3</ele>
        <time>2019-08-18T06:55:39Z</time>
      </trkpt>
      <trkpt lat="42.5281830" lon="-8.1472490">
        <ele>695.4</ele>
        <time>2019-08-18T06:55:40Z</time>
      </trkpt>
      <trkpt lat="42.5281820" lon="-8.1472800">
        <ele>695.5</ele>
        <time>2019-08-18T06:55:41Z</time>
      </trkpt>
      <trkpt lat="42.5281810" lon="-8.1473120">
        <ele>695.6</ele>
        <time>2019-08-18T06:55:42Z</time>
      </trkpt>
      <trkpt lat="42.5281810" lon="-8.1473430">
        <ele>695.7</ele>
        <time>2019-08-18T06:55:43Z</time>
      </trkpt>
      <trkpt lat="42.5281820" lon="-8.1473750">
        <ele>695.8</ele>
        <time>2019-08-18T06:55:44Z</time>
      </trkpt>
      <trkpt lat="42.5281830" lon="-8.1474080">
        <ele>695.9</ele>
        <time>2019-08-18T06:55:45Z</time>
      </trkpt>
      <trkpt lat="42.5281850" lon="-8.1474420">
        <ele>695.9</ele>
        <time>2019-08-18T06:55:46Z</time>
      </trkpt>
      <trkpt lat="42.5281870" lon="-8.1474760">
        <ele>696.0</ele>
        <time>2019-08-18T06:55:47Z</time>
      </trkpt>
      <trkpt lat="42.5281890" lon="-8.1475100">
        <ele>696.1</ele>
        <time>2019-08-18T06:55:48Z</time>
      </trkpt>
      <trkpt lat="42.5281920" lon="-8.1475450">
        <ele>696.2</ele>
        <time>2019-08-18T06:55:49Z</time>
      </trkpt>
      <trkpt lat="42.5281940" lon="-8.1475790">
        <ele>696.3</ele>
        <time>2019-08-18T06:55:50Z</time>
      </trkpt>
      <trkpt lat="42.5281960" lon="-8.1476130">
        <ele>696.3</ele>
        <time>2019-08-18T06:55:51Z</time>
      </trkpt>
      <trkpt lat="42.5281980" lon="-8.1476460">
        <ele>696.4</ele>
        <time>2019-08-18T06:55:52Z</time>
      </trkpt>
      <trkpt lat="42.5282000" lon="-8.1476790">
        <ele>696.5</ele>
        <time>2019-08-18T06:55:53Z</time>
      </trkpt>
      <trkpt lat="42.5282020" lon="-8.1477120">
        <ele>696.6</ele>
        <time>2019-08-18T06:55:54Z</time>
      </trkpt>
      <trkpt lat="42.5282050" lon="-8.1477440">
        <ele>696.7</ele>
        <time>2019-08-18T06:55:55Z</time>
      </trkpt>
      <trkpt lat="42.5282070" lon="-8.1477760">
        <ele>696.8</ele>
        <time>2019-08-18T06:55:56Z</time>
      </trkpt>
      <trkpt lat="42.5282100" lon="-8.1478080">
        <ele>696.9</ele>
        <time>2019-08-18T06:55:57Z</time>
      </trkpt>
      <trkpt lat="42.5282140" lon="-8.1478400">
        <ele>697.1</ele>
        <time>2019-08-18T06:55:58Z</time>
      </trkpt>
      <trkpt lat="42.5282190" lon="-8.1478730">
        <ele>697.2</ele>
        <time>2019-08-18T06:55:59Z</time>
      </trkpt>
      <trkpt lat="42.5282240" lon="-8.1479050">
        <ele>697.3</ele>
        <time>2019-08-18T06:56:00Z</time>
      </trkpt>
      <trkpt lat="42.5282310" lon="-8.1479370">
        <ele>697.4</ele>
        <time>2019-08-18T06:56:01Z</time>
      </trkpt>
      <trkpt lat="42.5282390" lon="-8.1479690">
        <ele>697.5</ele>
        <time>2019-08-18T06:56:02Z</time>
      </trkpt>
      <trkpt lat="42.5282480" lon="-8.1480000">
        <ele>697.6</ele>
        <time>2019-08-18T06:56:03Z</time>
      </trkpt>
      <trkpt lat="42.5282590" lon="-8.1480300">
        <ele>697.7</ele>
        <time>2019-08-18T06:56:04Z</time>
      </trkpt>
      <trkpt lat="42.5282710" lon="-8.1480590">
        <ele>697.9</ele>
        <time>2019-08-18T06:56:05Z</time>
      </trkpt>
      <trkpt lat="42.5282850" lon="-8.1480860">
        <ele>698.0</ele>
        <time>2019-08-18T06:56:06Z</time>
      </trkpt>
      <trkpt lat="42.5283000" lon="-8.1481110">
        <ele>698.1</ele>
        <time>2019-08-18T06:56:07Z</time>
      </trkpt>
      <trkpt lat="42.5283170" lon="-8.1481350">
        <ele>698.3</ele>
        <time>2019-08-18T06:56:08Z</time>
      </trkpt>
      <trkpt lat="42.5283350" lon="-8.1481570">
        <ele>698.4</ele>
        <time>2019-08-18T06:56:09Z</time>
      </trkpt>
      <trkpt lat="42.5283540" lon="-8.1481790">
        <ele>698.5</ele>
        <time>2019-08-18T06:56:10Z</time>
      </trkpt>
      <trkpt lat="42.5283740" lon="-8.1481990">
        <ele>698.6</ele>
        <time>2019-08-18T06:56:11Z</time>
      </trkpt>
      <trkpt lat="42.5283940" lon="-8.1482190">
        <ele>698.7</ele>
        <time>2019-08-18T06:56:12Z</time>
      </trkpt>
      <trkpt lat="42.5284150" lon="-8.1482380">
        <ele>698.8</ele>
        <time>2019-08-18T06:56:13Z</time>
      </trkpt>
      <trkpt lat="42.5284360" lon="-8.1482580">
        <ele>699.0</ele>
        <time>2019-08-18T06:56:14Z</time>
      </trkpt>
      <trkpt lat="42.5284560" lon="-8.1482770">
        <ele>699.1</ele>
        <time>2019-08-18T06:56:15Z</time>
      </trkpt>
      <trkpt lat="42.5284770" lon="-8.1482960">
        <ele>699.3</ele>
        <time>2019-08-18T06:56:16Z</time>
      </trkpt>
      <trkpt lat="42.5284970" lon="-8.1483160">
        <ele>699.5</ele>
        <time>2019-08-18T06:56:17Z</time>
      </trkpt>
      <trkpt lat="42.5285180" lon="-8.1483350">
        <ele>699.7</ele>
        <time>2019-08-18T06:56:18Z</time>
      </trkpt>
      <trkpt lat="42.5285380" lon="-8.1483550">
        <ele>699.8</ele>
        <time>2019-08-18T06:56:19Z</time>
      </trkpt>
      <trkpt lat="42.5285590" lon="-8.1483740">
        <ele>700.0</ele>
        <time>2019-08-18T06:56:20Z</time>
      </trkpt>
      <trkpt lat="42.5285800" lon="-8.1483940">
        <ele>700.2</ele>
        <time>2019-08-18T06:56:21Z</time>
      </trkpt>
      <trkpt lat="42.5286000" lon="-8.1484140">
        <ele>700.4</ele>
        <time>2019-08-18T06:56:22Z</time>
      </trkpt>
      <trkpt lat="42.5286210" lon="-8.1484340">
        <ele>700.6</ele>
        <time>2019-08-18T06:56:23Z</time>
      </trkpt>
      <trkpt lat="42.5286410" lon="-8.1484540">
        <ele>700.8</ele>
        <time>2019-08-18T06:56:24Z</time>
      </trkpt>
      <trkpt lat="42.5286610" lon="-8.1484750">
        <ele>701.0</ele>
        <time>2019-08-18T06:56:25Z</time>
      </trkpt>
      <trkpt lat="42.5286820" lon="-8.1484950">
        <ele>701.2</ele>
        <time>2019-08-18T06:56:26Z</time>
      </trkpt>
      <trkpt lat="42.5287020" lon="-8.1485160">
        <ele>701.4</ele>
        <time>2019-08-18T06:56:27Z</time>
      </trkpt>
      <trkpt lat="42.5287230" lon="-8.1485360">
        <ele>701.6</ele>
        <time>2019-08-18T06:56:28Z</time>
      </trkpt>
      <trkpt lat="42.5287430" lon="-8.1485570">
        <ele>701.7</ele>
        <time>2019-08-18T06:56:29Z</time>
      </trkpt>
      <trkpt lat="42.5287640" lon="-8.1485780">
        <ele>701.9</ele>
        <time>2019-08-18T06:56:30Z</time>
      </trkpt>
      <trkpt lat="42.5287850" lon="-8.1485990">
        <ele>702.1</ele>
        <time>2019-08-18T06:56:31Z</time>
      </trkpt>
      <trkpt lat="42.5288050" lon="-8.1486200">
        <ele>702.2</ele>
        <time>2019-08-18T06:56:32Z</time>
      </trkpt>
      <trkpt lat="42.5288260" lon="-8.1486420">
        <ele>702.4</ele>
        <time>2019-08-18T06:56:33Z</time>
      </trkpt>
      <trkpt lat="42.5288460" lon="-8.1486630">
        <ele>702.6</ele>
        <time>2019-08-18T06:56:34Z</time>
      </trkpt>
      <trkpt lat="42.5288670" lon="-8.1486850">
        <ele>702.7</ele>
        <time>2019-08-18T06:56:35Z</time>
      </trkpt>
      <trkpt lat="42.5288880" lon="-8.1487070">
        <ele>702.9</ele>
        <time>2019-08-18T06:56:36Z</time>
      </trkpt>
      <trkpt lat="42.5289090" lon="-8.1487280">
        <ele>703.0</ele>
        <time>2019-08-18T06:56:37Z</time>
      </trkpt>
      <trkpt lat="42.5289290" lon="-8.1487500">
        <ele>703.2</ele>
        <time>2019-08-18T06:56:38Z</time>
      </trkpt>
      <trkpt lat="42.5289500" lon="-8.1487720">
        <ele>703.3</ele>
        <time>2019-08-18T06:56:39Z</time>
      </trkpt>
      <trkpt lat="42.5289710" lon="-8.1487930">
        <ele>703.5</ele>
        <time>2019-08-18T06:56:40Z</time>
      </trkpt>
      <trkpt lat="42.5289930" lon="-8.1488150">
        <ele>703.6</ele>
        <time>2019-08-18T06:56:41Z</time>
      </trkpt>
      <trkpt lat="42.5290140" lon="-8.1488360">
        <ele>703.8</ele>
        <time>2019-08-18T06:56:42Z</time>
      </trkpt>
      <trkpt lat="42.5290360" lon="-8.1488570">
        <ele>703.9</ele>
        <time>2019-08-18T06:56:43Z</time>
      </trkpt>
      <trkpt lat="42.5290570" lon="-8.1488770">
        <ele>704.1</ele>
        <time>2019-08-18T06:56:44Z</time>
      </trkpt>
      <trkpt lat="42.5290790" lon="-8.1488970">
        <ele>704.2</ele>
        <time>2019-08-18T06:56:45Z</time>
      </trkpt>
      <trkpt lat="42.5291020" lon="-8.1489170">
        <ele>704.3</ele>
        <time>2019-08-18T06:56:46Z</time>
      </trkpt>
      <trkpt lat="42.5291240" lon="-8.1489360">
        <ele>704.5</ele>
        <time>2019-08-18T06:56:47Z</time>
      </trkpt>
      <trkpt lat="42.5291470" lon="-8.1489540">
        <ele>704.6</ele>
        <time>2019-08-18T06:56:48Z</time>
      </trkpt>
      <trkpt lat="42.5291700" lon="-8.1489720">
        <ele>704.8</ele>
        <time>2019-08-18T06:56:49Z</time>
      </trkpt>
      <trkpt lat="42.5291930" lon="-8.1489890">
        <ele>704.9</ele>
        <time>2019-08-18T06:56:50Z</time>
      </trkpt>
      <trkpt lat="42.5292170" lon="-8.1490060">
        <ele>705.1</ele>
        <time>2019-08-18T06:56:51Z</time>
      </trkpt>
      <trkpt lat="42.5292410" lon="-8.1490210">
        <ele>705.2</ele>
        <time>2019-08-18T06:56:52Z</time>
      </trkpt>
      <trkpt lat="42.5292660" lon="-8.1490340">
        <ele>705.4</ele>
        <time>2019-08-18T06:56:53Z</time>
      </trkpt>
      <trkpt lat="42.5292900" lon="-8.1490460">
        <ele>705.6</ele>
        <time>2019-08-18T06:56:54Z</time>
      </trkpt>
      <trkpt lat="42.5293150" lon="-8.1490560">
        <ele>705.7</ele>
        <time>2019-08-18T06:56:55Z</time>
      </trkpt>
      <trkpt lat="42.5293400" lon="-8.1490640">
        <ele>705.9</ele>
        <time>2019-08-18T06:56:56Z</time>
      </trkpt>
      <trkpt lat="42.5293660" lon="-8.1490680">
        <ele>706.0</ele>
        <time>2019-08-18T06:56:57Z</time>
      </trkpt>
      <trkpt lat="42.5293920" lon="-8.1490700">
        <ele>706.2</ele>
        <time>2019-08-18T06:56:58Z</time>
      </trkpt>
      <trkpt lat="42.5294170" lon="-8.1490680">
        <ele>706.3</ele>
        <time>2019-08-18T06:56:59Z</time>
      </trkpt>
      <trkpt lat="42.5294430" lon="-8.1490640">
        <ele>706.4</ele>
        <time>2019-08-18T06:57:00Z</time>
      </trkpt>
      <trkpt lat="42.5294690" lon="-8.1490590">
        <ele>706.6</ele>
        <time>2019-08-18T06:57:01Z</time>
      </trkpt>
      <trkpt lat="42.5294950" lon="-8.1490530">
        <ele>706.7</ele>
        <time>2019-08-18T06:57:02Z</time>
      </trkpt>
      <trkpt lat="42.5295200" lon="-8.1490460">
        <ele>706.9</ele>
        <time>2019-08-18T06:57:03Z</time>
      </trkpt>
      <trkpt lat="42.5295450" lon="-8.1490390">
        <ele>707.1</ele>
        <time>2019-08-18T06:57:04Z</time>
      </trkpt>
      <trkpt lat="42.5295690" lon="-8.1490290">
        <ele>707.2</ele>
        <time>2019-08-18T06:57:05Z</time>
      </trkpt>
      <trkpt lat="42.5295910" lon="-8.1490160">
        <ele>707.3</ele>
        <time>2019-08-18T06:57:06Z</time>
      </trkpt>
      <trkpt lat="42.5296130" lon="-8.1490000">
        <ele>707.5</ele>
        <time>2019-08-18T06:57:07Z</time>
      </trkpt>
      <trkpt lat="42.5296330" lon="-8.1489810">
        <ele>707.6</ele>
        <time>2019-08-18T06:57:08Z</time>
      </trkpt>
      <trkpt lat="42.5296530" lon="-8.1489610">
        <ele>707.8</ele>
        <time>2019-08-18T06:57:09Z</time>
      </trkpt>
      <trkpt lat="42.5296730" lon="-8.1489380">
        <ele>707.9</ele>
        <time>2019-08-18T06:57:10Z</time>
      </trkpt>
      <trkpt lat="42.5296930" lon="-8.1489160">
        <ele>708.1</ele>
        <time>2019-08-18T06:57:11Z</time>
      </trkpt>
      <trkpt lat="42.5297120" lon="-8.1488940">
        <ele>708.2</ele>
        <time>2019-08-18T06:57:12Z</time>
      </trkpt>
      <trkpt lat="42.5297310" lon="-8.1488730">
        <ele>708.3</ele>
        <time>2019-08-18T06:57:13Z</time>
      </trkpt>
      <trkpt lat="42.5297500" lon="-8.1488540">
        <ele>708.4</ele>
        <time>2019-08-18T06:57:14Z</time>
      </trkpt>
      <trkpt lat="42.5297690" lon="-8.1488360">
        <ele>708.6</ele>
        <time>2019-08-18T06:57:15Z</time>
      </trkpt>
      <trkpt lat="42.5297880" lon="-8.1488190">
        <ele>708.7</ele>
        <time>2019-08-18T06:57:16Z</time>
      </trkpt>
      <trkpt lat="42.5298060" lon="-8.1488030">
        <ele>708.8</ele>
        <time>2019-08-18T06:57:17Z</time>
      </trkpt>
      <trkpt lat="42.5298240" lon="-8.1487860">
        <ele>709.0</ele>
        <time>2019-08-18T06:57:18Z</time>
      </trkpt>
      <trkpt lat="42.5298420" lon="-8.1487700">
        <ele>709.1</ele>
        <time>2019-08-18T06:57:19Z</time>
      </trkpt>
      <trkpt lat="42.5298590" lon="-8.1487530">
        <ele>709.3</ele>
        <time>2019-08-18T06:57:20Z</time>
      </trkpt>
      <trkpt lat="42.5298760" lon="-8.1487350">
        <ele>709.5</ele>
        <time>2019-08-18T06:57:21Z</time>
      </trkpt>
      <trkpt lat="42.5298930" lon="-8.1487170">
        <ele>709.6</ele>
        <time>2019-08-18T06:57:22Z</time>
      </trkpt>
      <trkpt lat="42.5299090" lon="-8.1486990">
        <ele>709.8</ele>
        <time>2019-08-18T06:57:23Z</time>
      </trkpt>
      <trkpt lat="42.5299260" lon="-8.1486810">
        <ele>710.0</ele>
        <time>2019-08-18T06:57:24Z</time>
      </trkpt>
      <trkpt lat="42.5299420" lon="-8.1486630">
        <ele>710.2</ele>
        <time>2019-08-18T06:57:25Z</time>
      </trkpt>
      <trkpt lat="42.5299580" lon="-8.1486450">
        <ele>710.3</ele>
        <time>2019-08-18T06:57:26Z</time>
      </trkpt>
      <trkpt lat="42.5299750" lon="-8.1486270">
        <ele>710.5</ele>
        <time>2019-08-18T06:57:27Z</time>
      </trkpt>
      <trkpt lat="42.5299910" lon="-8.1486090">
        <ele>710.6</ele>
        <time>2019-08-18T06:57:28Z</time>
      </trkpt>
      <trkpt lat="42.5300080" lon="-8.1485920">
        <ele>710.8</ele>
        <time>2019-08-18T06:57:29Z</time>
      </trkpt>
      <trkpt lat="42.5300250" lon="-8.1485760">
        <ele>711.0</ele>
        <time>2019-08-18T06:57:30Z</time>
      </trkpt>
      <trkpt lat="42.5300430" lon="-8.1485600">
        <ele>711.2</ele>
        <time>2019-08-18T06:57:31Z</time>
      </trkpt>
      <trkpt lat="42.5300610" lon="-8.1485450">
        <ele>711.4</ele>
        <time>2019-08-18T06:57:32Z</time>
      </trkpt>
      <trkpt lat="42.5300800" lon="-8.1485310">
        <ele>711.7</ele>
        <time>2019-08-18T06:57:33Z</time>
      </trkpt>
      <trkpt lat="42.5300990" lon="-8.1485180">
        <ele>711.9</ele>
        <time>2019-08-18T06:57:34Z</time>
      </trkpt>
      <trkpt lat="42.5301190" lon="-8.1485060">
        <ele>712.1</ele>
        <time>2019-08-18T06:57:35Z</time>
      </trkpt>
      <trkpt lat="42.5301400" lon="-8.1484950">
        <ele>712.4</ele>
        <time>2019-08-18T06:57:36Z</time>
      </trkpt>
      <trkpt lat="42.5301610" lon="-8.1484870">
        <ele>712.6</ele>
        <time>2019-08-18T06:57:37Z</time>
      </trkpt>
      <trkpt lat="42.5301820" lon="-8.1484820">
        <ele>712.8</ele>
        <time>2019-08-18T06:57:38Z</time>
      </trkpt>
      <trkpt lat="42.5302020" lon="-8.1484800">
        <ele>713.1</ele>
        <time>2019-08-18T06:57:39Z</time>
      </trkpt>
      <trkpt lat="42.5302310" lon="-8.1484890">
        <ele>713.4</ele>
        <time>2019-08-18T06:57:40Z</time>
      </trkpt>
      <trkpt lat="42.5302420" lon="-8.1484950">
        <ele>713.6</ele>
        <time>2019-08-18T06:57:41Z</time>
      </trkpt>
      <trkpt lat="42.5302530" lon="-8.1485020">
        <ele>713.7</ele>
        <time>2019-08-18T06:57:42Z</time>
      </trkpt>
      <trkpt lat="42.5302680" lon="-8.1485190">
        <ele>714.0</ele>
        <time>2019-08-18T06:57:43Z</time>
      </trkpt>
      <trkpt lat="42.5302800" lon="-8.1485390">
        <ele>714.2</ele>
        <time>2019-08-18T06:57:44Z</time>
      </trkpt>
      <trkpt lat="42.5302930" lon="-8.1485630">
        <ele>714.5</ele>
        <time>2019-08-18T06:57:45Z</time>
      </trkpt>
      <trkpt lat="42.5303040" lon="-8.1485880">
        <ele>714.7</ele>
        <time>2019-08-18T06:57:46Z</time>
      </trkpt>
      <trkpt lat="42.5303160" lon="-8.1486140">
        <ele>715.0</ele>
        <time>2019-08-18T06:57:47Z</time>
      </trkpt>
      <trkpt lat="42.5303270" lon="-8.1486410">
        <ele>715.3</ele>
        <time>2019-08-18T06:57:48Z</time>
      </trkpt>
      <trkpt lat="42.5303390" lon="-8.1486670">
        <ele>715.7</ele>
        <time>2019-08-18T06:57:49Z</time>
      </trkpt>
      <trkpt lat="42.5303510" lon="-8.1486920">
        <ele>715.9</ele>
        <time>2019-08-18T06:57:50Z</time>
      </trkpt>
      <trkpt lat="42.5303640" lon="-8.1487170">
        <ele>716.2</ele>
        <time>2019-08-18T06:57:51Z</time>
      </trkpt>
      <trkpt lat="42.5303760" lon="-8.1487410">
        <ele>716.5</ele>
        <time>2019-08-18T06:57:52Z</time>
      </trkpt>
      <trkpt lat="42.5303890" lon="-8.1487660">
        <ele>716.7</ele>
        <time>2019-08-18T06:57:53Z</time>
      </trkpt>
      <trkpt lat="42.5304000" lon="-8.1487900">
        <ele>716.9</ele>
        <time>2019-08-18T06:57:54Z</time>
      </trkpt>
      <trkpt lat="42.5304120" lon="-8.1488150">
        <ele>717.2</ele>
        <time>2019-08-18T06:57:55Z</time>
      </trkpt>
      <trkpt lat="42.5304220" lon="-8.1488400">
        <ele>717.4</ele>
        <time>2019-08-18T06:57:56Z</time>
      </trkpt>
      <trkpt lat="42.5304320" lon="-8.1488660">
        <ele>717.6</ele>
        <time>2019-08-18T06:57:57Z</time>
      </trkpt>
      <trkpt lat="42.5304410" lon="-8.1488920">
        <ele>717.8</ele>
        <time>2019-08-18T06:57:58Z</time>
      </trkpt>
      <trkpt lat="42.5304500" lon="-8.1489190">
        <ele>718.0</ele>
        <time>2019-08-18T06:57:59Z</time>
      </trkpt>
      <trkpt lat="42.5304580" lon="-8.1489470">
        <ele>718.2</ele>
        <time>2019-08-18T06:58:00Z</time>
      </trkpt>
      <trkpt lat="42.5304660" lon="-8.1489750">
        <ele>718.4</ele>
        <time>2019-08-18T06:58:01Z</time>
      </trkpt>
      <trkpt lat="42.5304730" lon="-8.1490040">
        <ele>718.6</ele>
        <time>2019-08-18T06:58:02Z</time>
      </trkpt>
      <trkpt lat="42.5304810" lon="-8.1490330">
        <ele>718.8</ele>
        <time>2019-08-18T06:58:03Z</time>
      </trkpt>
      <trkpt lat="42.5304880" lon="-8.1490630">
        <ele>719.0</ele>
        <time>2019-08-18T06:58:04Z</time>
      </trkpt>
      <trkpt lat="42.5304960" lon="-8.1490930">
        <ele>719.2</ele>
        <time>2019-08-18T06:58:05Z</time>
      </trkpt>
      <trkpt lat="42.5305030" lon="-8.1491240">
        <ele>719.4</ele>
        <time>2019-08-18T06:58:06Z</time>
      </trkpt>
      <trkpt lat="42.5305110" lon="-8.1491550">
        <ele>719.6</ele>
        <time>2019-08-18T06:58:07Z</time>
      </trkpt>
      <trkpt lat="42.5305190" lon="-8.1491860">
        <ele>719.8</ele>
        <time>2019-08-18T06:58:08Z</time>
      </trkpt>
      <trkpt lat="42.5305270" lon="-8.1492160">
        <ele>719.9</ele>
        <time>2019-08-18T06:58:09Z</time>
      </trkpt>
      <trkpt lat="42.5305350" lon="-8.1492460">
        <ele>720.1</ele>
        <time>2019-08-18T06:58:10Z</time>
      </trkpt>
      <trkpt lat="42.5305440" lon="-8.1492760">
        <ele>720.3</ele>
        <time>2019-08-18T06:58:11Z</time>
      </trkpt>
      <trkpt lat="42.5305520" lon="-8.1493050">
        <ele>720.5</ele>
        <time>2019-08-18T06:58:12Z</time>
      </trkpt>
      <trkpt lat="42.5305610" lon="-8.1493340">
        <ele>720.6</ele>
        <time>2019-08-18T06:58:13Z</time>
      </trkpt>
      <trkpt lat="42.5305690" lon="-8.1493620">
        <ele>720.8</ele>
        <time>2019-08-18T06:58:14Z</time>
      </trkpt>
      <trkpt lat="42.5305780" lon="-8.1493900">
        <ele>720.9</ele>
        <time>2019-08-18T06:58:15Z</time>
      </trkpt>
      <trkpt lat="42.5305870" lon="-8.1494180">
        <ele>721.1</ele>
        <time>2019-08-18T06:58:16Z</time>
      </trkpt>
      <trkpt lat="42.5305950" lon="-8.1494450">
        <ele>721.3</ele>
        <time>2019-08-18T06:58:17Z</time>
      </trkpt>
      <trkpt lat="42.5306030" lon="-8.1494730">
        <ele>721.4</ele>
        <time>2019-08-18T06:58:18Z</time>
      </trkpt>
      <trkpt lat="42.5306110" lon="-8.1495010">
        <ele>721.6</ele>
        <time>2019-08-18T06:58:19Z</time>
      </trkpt>
      <trkpt lat="42.5306190" lon="-8.1495290">
        <ele>721.7</ele>
        <time>2019-08-18T06:58:20Z</time>
      </trkpt>
      <trkpt lat="42.5306270" lon="-8.1495570">
        <ele>721.9</ele>
        <time>2019-08-18T06:58:21Z</time>
      </trkpt>
      <trkpt lat="42.5306350" lon="-8.1495850">
        <ele>722.1</ele>
        <time>2019-08-18T06:58:22Z</time>
      </trkpt>
      <trkpt lat="42.5306430" lon="-8.1496130">
        <ele>722.3</ele>
        <time>2019-08-18T06:58:23Z</time>
      </trkpt>
      <trkpt lat="42.5306520" lon="-8.1496410">
        <ele>722.4</ele>
        <time>2019-08-18T06:58:24Z</time>
      </trkpt>
      <trkpt lat="42.5306610" lon="-8.1496690">
        <ele>722.6</ele>
        <time>2019-08-18T06:58:25Z</time>
      </trkpt>
      <trkpt lat="42.5306700" lon="-8.1496970">
        <ele>722.8</ele>
        <time>2019-08-18T06:58:26Z</time>
      </trkpt>
      <trkpt lat="42.5306800" lon="-8.1497260">
        <ele>722.9</ele>
        <time>2019-08-18T06:58:27Z</time>
      </trkpt>
      <trkpt lat="42.5306910" lon="-8.1497550">
        <ele>723.1</ele>
        <time>2019-08-18T06:58:28Z</time>
      </trkpt>
      <trkpt lat="42.5307010" lon="-8.1497830">
        <ele>723.3</ele>
        <time>2019-08-18T06:58:29Z</time>
      </trkpt>
      <trkpt lat="42.5307120" lon="-8.1498120">
        <ele>723.4</ele>
        <time>2019-08-18T06:58:30Z</time>
      </trkpt>
      <trkpt lat="42.5307220" lon="-8.1498410">
        <ele>723.6</ele>
        <time>2019-08-18T06:58:31Z</time>
      </trkpt>
      <trkpt lat="42.5307320" lon="-8.1498710">
        <ele>723.8</ele>
        <time>2019-08-18T06:58:32Z</time>
      </trkpt>
      <trkpt lat="42.5307420" lon="-8.1499000">
        <ele>724.0</ele>
        <time>2019-08-18T06:58:33Z</time>
      </trkpt>
      <trkpt lat="42.5307510" lon="-8.1499290">
        <ele>724.2</ele>
        <time>2019-08-18T06:58:34Z</time>
      </trkpt>
      <trkpt lat="42.5307600" lon="-8.1499590">
        <ele>724.3</ele>
        <time>2019-08-18T06:58:35Z</time>
      </trkpt>
      <trkpt lat="42.5307690" lon="-8.1499890">
        <ele>724.5</ele>
        <time>2019-08-18T06:58:36Z</time>
      </trkpt>
      <trkpt lat="42.5307780" lon="-8.1500200">
        <ele>724.7</ele>
        <time>2019-08-18T06:58:37Z</time>
      </trkpt>
      <trkpt lat="42.5307860" lon="-8.1500500">
        <ele>724.9</ele>
        <time>2019-08-18T06:58:38Z</time>
      </trkpt>
      <trkpt lat="42.5307950" lon="-8.1500820">
        <ele>725.1</ele>
        <time>2019-08-18T06:58:39Z</time>
      </trkpt>
      <trkpt lat="42.5308030" lon="-8.1501140">
        <ele>725.2</ele>
        <time>2019-08-18T06:58:40Z</time>
      </trkpt>
      <trkpt lat="42.5308110" lon="-8.1501460">
        <ele>725.4</ele>
        <time>2019-08-18T06:58:41Z</time>
      </trkpt>
      <trkpt lat="42.5308190" lon="-8.1501790">
        <ele>725.5</ele>
        <time>2019-08-18T06:58:42Z</time>
      </trkpt>
      <trkpt lat="42.5308270" lon="-8.1502130">
        <ele>725.6</ele>
        <time>2019-08-18T06:58:43Z</time>
      </trkpt>
      <trkpt lat="42.5308340" lon="-8.1502470">
        <ele>725.7</ele>
        <time>2019-08-18T06:58:44Z</time>
      </trkpt>
      <trkpt lat="42.5308400" lon="-8.1502810">
        <ele>725.8</ele>
        <time>2019-08-18T06:58:45Z</time>
      </trkpt>
      <trkpt lat="42.5308460" lon="-8.1503150">
        <ele>725.9</ele>
        <time>2019-08-18T06:58:46Z</time>
      </trkpt>
      <trkpt lat="42.5308510" lon="-8.1503490">
        <ele>726.0</ele>
        <time>2019-08-18T06:58:47Z</time>
      </trkpt>
      <trkpt lat="42.5308560" lon="-8.1503840">
        <ele>726.2</ele>
        <time>2019-08-18T06:58:48Z</time>
      </trkpt>
      <trkpt lat="42.5308590" lon="-8.1504190">
        <ele>726.3</ele>
        <time>2019-08-18T06:58:49Z</time>
      </trkpt>
      <trkpt lat="42.5308620" lon="-8.1504530">
        <ele>726.4</ele>
        <time>2019-08-18T06:58:50Z</time>
      </trkpt>
      <trkpt lat="42.5308650" lon="-8.1504880">
        <ele>726.4</ele>
        <time>2019-08-18T06:58:51Z</time>
      </trkpt>
      <trkpt lat="42.5308670" lon="-8.1505240">
        <ele>726.5</ele>
        <time>2019-08-18T06:58:52Z</time>
      </trkpt>
      <trkpt lat="42.5308690" lon="-8.1505590">
        <ele>726.6</ele>
        <time>2019-08-18T06:58:53Z</time>
      </trkpt>
      <trkpt lat="42.5308700" lon="-8.1505940">
        <ele>726.7</ele>
        <time>2019-08-18T06:58:54Z</time>
      </trkpt>
      <trkpt lat="42.5308710" lon="-8.1506290">
        <ele>726.8</ele>
        <time>2019-08-18T06:58:55Z</time>
      </trkpt>
      <trkpt lat="42.5308720" lon="-8.1506650">
        <ele>726.8</ele>
        <time>2019-08-18T06:58:56Z</time>
      </trkpt>
      <trkpt lat="42.5308730" lon="-8.1507000">
        <ele>726.9</ele>
        <time>2019-08-18T06:58:57Z</time>
      </trkpt>
      <trkpt lat="42.5308740" lon="-8.1507350">
        <ele>726.9</ele>
        <time>2019-08-18T06:58:58Z</time>
      </trkpt>
      <trkpt lat="42.5308750" lon="-8.1507710">
        <ele>727.0</ele>
        <time>2019-08-18T06:58:59Z</time>
      </trkpt>
      <trkpt lat="42.5308750" lon="-8.1508070">
        <ele>727.1</ele>
        <time>2019-08-18T06:59:00Z</time>
      </trkpt>
      <trkpt lat="42.5308760" lon="-8.1508420">
        <ele>727.1</ele>
        <time>2019-08-18T06:59:01Z</time>
      </trkpt>
      <trkpt lat="42.5308770" lon="-8.1508780">
        <ele>727.2</ele>
        <time>2019-08-18T06:59:02Z</time>
      </trkpt>
      <trkpt lat="42.5308790" lon="-8.1509130">
        <ele>727.2</ele>
        <time>2019-08-18T06:59:03Z</time>
      </trkpt>
      <trkpt lat="42.5308800" lon="-8.1509490">
        <ele>727.3</ele>
        <time>2019-08-18T06:59:04Z</time>
      </trkpt>
      <trkpt lat="42.5308820" lon="-8.1509850">
        <ele>727.4</ele>
        <time>2019-08-18T06:59:05Z</time>
      </trkpt>
      <trkpt lat="42.5308840" lon="-8.1510200">
        <ele>727.4</ele>
        <time>2019-08-18T06:59:06Z</time>
      </trkpt>
      <trkpt lat="42.5308850" lon="-8.1510560">
        <ele>727.5</ele>
        <time>2019-08-18T06:59:07Z</time>
      </trkpt>
      <trkpt lat="42.5308870" lon="-8.1510920">
        <ele>727.6</ele>
        <time>2019-08-18T06:59:08Z</time>
      </trkpt>
      <trkpt lat="42.5308890" lon="-8.1511280">
        <ele>727.7</ele>
        <time>2019-08-18T06:59:09Z</time>
      </trkpt>
      <trkpt lat="42.5308910" lon="-8.1511640">
        <ele>727.8</ele>
        <time>2019-08-18T06:59:10Z</time>
      </trkpt>
      <trkpt lat="42.5308930" lon="-8.1512010">
        <ele>727.9</ele>
        <time>2019-08-18T06:59:11Z</time>
      </trkpt>
      <trkpt lat="42.5308950" lon="-8.1512370">
        <ele>728.0</ele>
        <time>2019-08-18T06:59:12Z</time>
      </trkpt>
      <trkpt lat="42.5308970" lon="-8.1512740">
        <ele>728.1</ele>
        <time>2019-08-18T06:59:13Z</time>
      </trkpt>
      <trkpt lat="42.5308980" lon="-8.1513110">
        <ele>728.3</ele>
        <time>2019-08-18T06:59:14Z</time>
      </trkpt>
      <trkpt lat="42.5309000" lon="-8.1513480">
        <ele>728.4</ele>
        <time>2019-08-18T06:59:15Z</time>
      </trkpt>
      <trkpt lat="42.5309020" lon="-8.1513860">
        <ele>728.5</ele>
        <time>2019-08-18T06:59:16Z</time>
      </trkpt>
      <trkpt lat="42.5309030" lon="-8.1514230">
        <ele>728.6</ele>
        <time>2019-08-18T06:59:17Z</time>
      </trkpt>
      <trkpt lat="42.5309040" lon="-8.1514610">
        <ele>728.7</ele>
        <time>2019-08-18T06:59:18Z</time>
      </trkpt>
      <trkpt lat="42.5309050" lon="-8.1514990">
        <ele>728.8</ele>
        <time>2019-08-18T06:59:19Z</time>
      </trkpt>
      <trkpt lat="42.5309060" lon="-8.1515370">
        <ele>728.9</ele>
        <time>2019-08-18T06:59:20Z</time>
      </trkpt>
      <trkpt lat="42.5309070" lon="-8.1515750">
        <ele>729.0</ele>
        <time>2019-08-18T06:59:21Z</time>
      </trkpt>
      <trkpt lat="42.5309080" lon="-8.1516130">
        <ele>729.1</ele>
        <time>2019-08-18T06:59:22Z</time>
      </trkpt>
      <trkpt lat="42.5309090" lon="-8.1516500">
        <ele>729.2</ele>
        <time>2019-08-18T06:59:23Z</time>
      </trkpt>
      <trkpt lat="42.5309090" lon="-8.1516880">
        <ele>729.3</ele>
        <time>2019-08-18T06:59:24Z</time>
      </trkpt>
      <trkpt lat="42.5309100" lon="-8.1517250">
        <ele>729.5</ele>
        <time>2019-08-18T06:59:25Z</time>
      </trkpt>
      <trkpt lat="42.5309110" lon="-8.1517620">
        <ele>729.6</ele>
        <time>2019-08-18T06:59:26Z</time>
      </trkpt>
      <trkpt lat="42.5309120" lon="-8.1517980">
        <ele>729.7</ele>
        <time>2019-08-18T06:59:27Z</time>
      </trkpt>
      <trkpt lat="42.5309130" lon="-8.1518330">
        <ele>729.9</ele>
        <time>2019-08-18T06:59:28Z</time>
      </trkpt>
      <trkpt lat="42.5309150" lon="-8.1518670">
        <ele>730.0</ele>
        <time>2019-08-18T06:59:29Z</time>
      </trkpt>
      <trkpt lat="42.5309170" lon="-8.1519000">
        <ele>730.1</ele>
        <time>2019-08-18T06:59:30Z</time>
      </trkpt>
      <trkpt lat="42.5309200" lon="-8.1519320">
        <ele>730.3</ele>
        <time>2019-08-18T06:59:31Z</time>
      </trkpt>
      <trkpt lat="42.5309240" lon="-8.1519640">
        <ele>730.4</ele>
        <time>2019-08-18T06:59:32Z</time>
      </trkpt>
      <trkpt lat="42.5309270" lon="-8.1519940">
        <ele>730.5</ele>
        <time>2019-08-18T06:59:33Z</time>
      </trkpt>
      <trkpt lat="42.5309310" lon="-8.1520250">
        <ele>730.6</ele>
        <time>2019-08-18T06:59:34Z</time>
      </trkpt>
      <trkpt lat="42.5309330" lon="-8.1520550">
        <ele>730.7</ele>
        <time>2019-08-18T06:59:35Z</time>
      </trkpt>
      <trkpt lat="42.5309350" lon="-8.1520860">
        <ele>730.9</ele>
        <time>2019-08-18T06:59:36Z</time>
      </trkpt>
      <trkpt lat="42.5309350" lon="-8.1521180">
        <ele>731.0</ele>
        <time>2019-08-18T06:59:37Z</time>
      </trkpt>
      <trkpt lat="42.5309340" lon="-8.1521510">
        <ele>731.1</ele>
        <time>2019-08-18T06:59:38Z</time>
      </trkpt>
      <trkpt lat="42.5309310" lon="-8.1521840">
        <ele>731.3</ele>
        <time>2019-08-18T06:59:39Z</time>
      </trkpt>
      <trkpt lat="42.5309270" lon="-8.1522190">
        <ele>731.4</ele>
        <time>2019-08-18T06:59:40Z</time>
      </trkpt>
      <trkpt lat="42.5309220" lon="-8.1522540">
        <ele>731.5</ele>
        <time>2019-08-18T06:59:41Z</time>
      </trkpt>
      <trkpt lat="42.5309160" lon="-8.1522900">
        <ele>731.7</ele>
        <time>2019-08-18T06:59:42Z</time>
      </trkpt>
      <trkpt lat="42.5309100" lon="-8.1523270">
        <ele>731.8</ele>
        <time>2019-08-18T06:59:43Z</time>
      </trkpt>
      <trkpt lat="42.5309030" lon="-8.1523640">
        <ele>732.0</ele>
        <time>2019-08-18T06:59:44Z</time>
      </trkpt>
      <trkpt lat="42.5308960" lon="-8.1524020">
        <ele>732.1</ele>
        <time>2019-08-18T06:59:45Z</time>
      </trkpt>
      <trkpt lat="42.5308890" lon="-8.1524400">
        <ele>732.3</ele>
        <time>2019-08-18T06:59:46Z</time>
      </trkpt>
      <trkpt lat="42.5308820" lon="-8.1524800">
        <ele>732.4</ele>
        <time>2019-08-18T06:59:47Z</time>
      </trkpt>
      <trkpt lat="42.5308740" lon="-8.1525200">
        <ele>732.6</ele>
        <time>2019-08-18T06:59:48Z</time>
      </trkpt>
      <trkpt lat="42.5308650" lon="-8.1525630">
        <ele>732.8</ele>
        <time>2019-08-18T06:59:49Z</time>
      </trkpt>
      <trkpt lat="42.5308490" lon="-8.1526390">
        <ele>733.1</ele>
        <time>2019-08-18T06:59:50Z</time>
      </trkpt>
      <trkpt lat="42.5308430" lon="-8.1526710">
        <ele>733.2</ele>
        <time>2019-08-18T06:59:51Z</time>
      </trkpt>
      <trkpt lat="42.5308360" lon="-8.1527030">
        <ele>733.3</ele>
        <time>2019-08-18T06:59:52Z</time>
      </trkpt>
      <trkpt lat="42.5308250" lon="-8.1527540">
        <ele>733.6</ele>
        <time>2019-08-18T06:59:53Z</time>
      </trkpt>
      <trkpt lat="42.5308170" lon="-8.1528050">
        <ele>733.8</ele>
        <time>2019-08-18T06:59:54Z</time>
      </trkpt>
      <trkpt lat="42.5308130" lon="-8.1528520">
        <ele>734.0</ele>
        <time>2019-08-18T06:59:55Z</time>
      </trkpt>
      <trkpt lat="42.5308190" lon="-8.1528900">
        <ele>734.1</ele>
        <time>2019-08-18T06:59:56Z</time>
      </trkpt>
      <trkpt lat="42.5308340" lon="-8.1529180">
        <ele>734.2</ele>
        <time>2019-08-18T06:59:57Z</time>
      </trkpt>
      <trkpt lat="42.5308580" lon="-8.1529370">
        <ele>734.3</ele>
        <time>2019-08-18T06:59:58Z</time>
      </trkpt>
      <trkpt lat="42.5308870" lon="-8.1529470">
        <ele>734.4</ele>
        <time>2019-08-18T06:59:59Z</time>
      </trkpt>
      <trkpt lat="42.5309170" lon="-8.1529520">
        <ele>734.4</ele>
        <time>2019-08-18T07:00:00Z</time>
      </trkpt>
      <trkpt lat="42.5309480" lon="-8.1529510">
        <ele>734.5</ele>
        <time>2019-08-18T07:00:01Z</time>
      </trkpt>
      <trkpt lat="42.5309790" lon="-8.1529450">
        <ele>734.6</ele>
        <time>2019-08-18T07:00:02Z</time>
      </trkpt>
      <trkpt lat="42.5310110" lon="-8.1529350">
        <ele>734.6</ele>
        <time>2019-08-18T07:00:03Z</time>
      </trkpt>
      <trkpt lat="42.5310430" lon="-8.1529220">
        <ele>734.7</ele>
        <time>2019-08-18T07:00:04Z</time>
      </trkpt>
      <trkpt lat="42.5310750" lon="-8.1529060">
        <ele>734.7</ele>
        <time>2019-08-18T07:00:05Z</time>
      </trkpt>
      <trkpt lat="42.5311060" lon="-8.1528890">
        <ele>734.7</ele>
        <time>2019-08-18T07:00:06Z</time>
      </trkpt>
      <trkpt lat="42.5311370" lon="-8.1528710">
        <ele>734.8</ele>
        <time>2019-08-18T07:00:07Z</time>
      </trkpt>
      <trkpt lat="42.5311680" lon="-8.1528510">
        <ele>735.0</ele>
        <time>2019-08-18T07:00:08Z</time>
      </trkpt>
      <trkpt lat="42.5311980" lon="-8.1528320">
        <ele>735.2</ele>
        <time>2019-08-18T07:00:09Z</time>
      </trkpt>
      <trkpt lat="42.5312270" lon="-8.1528110">
        <ele>735.4</ele>
        <time>2019-08-18T07:00:10Z</time>
      </trkpt>
      <trkpt lat="42.5312560" lon="-8.1527910">
        <ele>735.5</ele>
        <time>2019-08-18T07:00:11Z</time>
      </trkpt>
      <trkpt lat="42.5312840" lon="-8.1527710">
        <ele>735.7</ele>
        <time>2019-08-18T07:00:12Z</time>
      </trkpt>
      <trkpt lat="42.5313120" lon="-8.1527510">
        <ele>735.8</ele>
        <time>2019-08-18T07:00:13Z</time>
      </trkpt>
      <trkpt lat="42.5313400" lon="-8.1527320">
        <ele>736.0</ele>
        <time>2019-08-18T07:00:14Z</time>
      </trkpt>
      <trkpt lat="42.5313670" lon="-8.1527130">
        <ele>736.1</ele>
        <time>2019-08-18T07:00:15Z</time>
      </trkpt>
      <trkpt lat="42.5313940" lon="-8.1526950">
        <ele>736.3</ele>
        <time>2019-08-18T07:00:16Z</time>
      </trkpt>
      <trkpt lat="42.5314200" lon="-8.1526770">
        <ele>736.5</ele>
        <time>2019-08-18T07:00:17Z</time>
      </trkpt>
      <trkpt lat="42.5314460" lon="-8.1526600">
        <ele>736.7</ele>
        <time>2019-08-18T07:00:18Z</time>
      </trkpt>
      <trkpt lat="42.5314720" lon="-8.1526440">
        <ele>736.8</ele>
        <time>2019-08-18T07:00:19Z</time>
      </trkpt>
      <trkpt lat="42.5314970" lon="-8.1526280">
        <ele>736.9</ele>
        <time>2019-08-18T07:00:20Z</time>
      </trkpt>
      <trkpt lat="42.5315230" lon="-8.1526120">
        <ele>737.0</ele>
        <time>2019-08-18T07:00:21Z</time>
      </trkpt>
      <trkpt lat="42.5315470" lon="-8.1525970">
        <ele>737.1</ele>
        <time>2019-08-18T07:00:22Z</time>
      </trkpt>
      <trkpt lat="42.5315720" lon="-8.1525820">
        <ele>737.2</ele>
        <time>2019-08-18T07:00:23Z</time>
      </trkpt>
      <trkpt lat="42.5315960" lon="-8.1525680">
        <ele>737.3</ele>
        <time>2019-08-18T07:00:24Z</time>
      </trkpt>
      <trkpt lat="42.5316210" lon="-8.1525540">
        <ele>737.4</ele>
        <time>2019-08-18T07:00:25Z</time>
      </trkpt>
      <trkpt lat="42.5316440" lon="-8.1525410">
        <ele>737.5</ele>
        <time>2019-08-18T07:00:26Z</time>
      </trkpt>
      <trkpt lat="42.5316680" lon="-8.1525280">
        <ele>737.6</ele>
        <time>2019-08-18T07:00:27Z</time>
      </trkpt>
      <trkpt lat="42.5316920" lon="-8.1525150">
        <ele>737.7</ele>
        <time>2019-08-18T07:00:28Z</time>
      </trkpt>
      <trkpt lat="42.5317150" lon="-8.1525020">
        <ele>737.7</ele>
        <time>2019-08-18T07:00:29Z</time>
      </trkpt>
      <trkpt lat="42.5317380" lon="-8.1524900">
        <ele>737.8</ele>
        <time>2019-08-18T07:00:30Z</time>
      </trkpt>
      <trkpt lat="42.5317610" lon="-8.1524790">
        <ele>737.9</ele>
        <time>2019-08-18T07:00:31Z</time>
      </trkpt>
      <trkpt lat="42.5317840" lon="-8.1524670">
        <ele>738.0</ele>
        <time>2019-08-18T07:00:32Z</time>
      </trkpt>
      <trkpt lat="42.5318070" lon="-8.1524560">
        <ele>738.0</ele>
        <time>2019-08-18T07:00:33Z</time>
      </trkpt>
      <trkpt lat="42.5318300" lon="-8.1524450">
        <ele>738.1</ele>
        <time>2019-08-18T07:00:34Z</time>
      </trkpt>
      <trkpt lat="42.5318530" lon="-8.1524340">
        <ele>738.1</ele>
        <time>2019-08-18T07:00:35Z</time>
      </trkpt>
      <trkpt lat="42.5318760" lon="-8.1524230">
        <ele>738.0</ele>
        <time>2019-08-18T07:00:36Z</time>
      </trkpt>
      <trkpt lat="42.5318990" lon="-8.1524130">
        <ele>737.9</ele>
        <time>2019-08-18T07:00:37Z</time>
      </trkpt>
      <trkpt lat="42.5319220" lon="-8.1524020">
        <ele>737.8</ele>
        <time>2019-08-18T07:00:38Z</time>
      </trkpt>
      <trkpt lat="42.5319450" lon="-8.1523920">
        <ele>737.8</ele>
        <time>2019-08-18T07:00:39Z</time>
      </trkpt>
      <trkpt lat="42.5319690" lon="-8.1523810">
        <ele>737.8</ele>
        <time>2019-08-18T07:00:40Z</time>
      </trkpt>
      <trkpt lat="42.5319930" lon="-8.1523710">
        <ele>737.8</ele>
        <time>2019-08-18T07:00:41Z</time>
      </trkpt>
      <trkpt lat="42.5320170" lon="-8.1523600">
        <ele>737.9</ele>
        <time>2019-08-18T07:00:42Z</time>
      </trkpt>
      <trkpt lat="42.5320410" lon="-8.1523500">
        <ele>737.9</ele>
        <time>2019-08-18T07:00:43Z</time>
      </trkpt>
      <trkpt lat="42.5320650" lon="-8.1523390">
        <ele>738.0</ele>
        <time>2019-08-18T07:00:44Z</time>
      </trkpt>
      <trkpt lat="42.5320900" lon="-8.1523290">
        <ele>738.0</ele>
        <time>2019-08-18T07:00:45Z</time>
      </trkpt>
      <trkpt lat="42.5321150" lon="-8.1523180">
        <ele>738.1</ele>
        <time>2019-08-18T07:00:46Z</time>
      </trkpt>
      <trkpt lat="42.5321410" lon="-8.1523070">
        <ele>738.1</ele>
        <time>2019-08-18T07:00:47Z</time>
      </trkpt>
      <trkpt lat="42.5321660" lon="-8.1522970">
        <ele>738.1</ele>
        <time>2019-08-18T07:00:48Z</time>
      </trkpt>
      <trkpt lat="42.5321920" lon="-8.1522860">
        <ele>738.2</ele>
        <time>2019-08-18T07:00:49Z</time>
      </trkpt>
      <trkpt lat="42.5322180" lon="-8.1522750">
        <ele>738.3</ele>
        <time>2019-08-18T07:00:50Z</time>
      </trkpt>
      <trkpt lat="42.5322440" lon="-8.1522640">
        <ele>738.3</ele>
        <time>2019-08-18T07:00:51Z</time>
      </trkpt>
      <trkpt lat="42.5322700" lon="-8.1522530">
        <ele>738.4</ele>
        <time>2019-08-18T07:00:52Z</time>
      </trkpt>
      <trkpt lat="42.5322960" lon="-8.1522420">
        <ele>738.5</ele>
        <time>2019-08-18T07:00:53Z</time>
      </trkpt>
      <trkpt lat="42.5323220" lon="-8.1522310">
        <ele>738.7</ele>
        <time>2019-08-18T07:00:54Z</time>
      </trkpt>
      <trkpt lat="42.5323480" lon="-8.1522200">
        <ele>738.8</ele>
        <time>2019-08-18T07:00:55Z</time>
      </trkpt>
      <trkpt lat="42.5323740" lon="-8.1522080">
        <ele>738.9</ele>
        <time>2019-08-18T07:00:56Z</time>
      </trkpt>
      <trkpt lat="42.5324000" lon="-8.1521970">
        <ele>739.1</ele>
        <time>2019-08-18T07:00:57Z</time>
      </trkpt>
      <trkpt lat="42.5324260" lon="-8.1521860">
        <ele>739.2</ele>
        <time>2019-08-18T07:00:58Z</time>
      </trkpt>
      <trkpt lat="42.5324520" lon="-8.1521740">
        <ele>739.1</ele>
        <time>2019-08-18T07:00:59Z</time>
      </trkpt>
      <trkpt lat="42.5324770" lon="-8.1521630">
        <ele>739.1</ele>
        <time>2019-08-18T07:01:00Z</time>
      </trkpt>
      <trkpt lat="42.5325020" lon="-8.1521510">
        <ele>739.1</ele>
        <time>2019-08-18T07:01:01Z</time>
      </trkpt>
      <trkpt lat="42.5325280" lon="-8.1521400">
        <ele>739.3</ele>
        <time>2019-08-18T07:01:02Z</time>
      </trkpt>
      <trkpt lat="42.5325530" lon="-8.1521290">
        <ele>739.5</ele>
        <time>2019-08-18T07:01:03Z</time>
      </trkpt>
      <trkpt lat="42.5325790" lon="-8.1521170">
        <ele>739.7</ele>
        <time>2019-08-18T07:01:04Z</time>
      </trkpt>
      <trkpt lat="42.5326040" lon="-8.1521060">
        <ele>740.0</ele>
        <time>2019-08-18T07:01:05Z</time>
      </trkpt>
      <trkpt lat="42.5326300" lon="-8.1520950">
        <ele>740.3</ele>
        <time>2019-08-18T07:01:06Z</time>
      </trkpt>
      <trkpt lat="42.5326550" lon="-8.1520840">
        <ele>740.6</ele>
        <time>2019-08-18T07:01:07Z</time>
      </trkpt>
      <trkpt lat="42.5326810" lon="-8.1520730">
        <ele>740.9</ele>
        <time>2019-08-18T07:01:08Z</time>
      </trkpt>
      <trkpt lat="42.5327060" lon="-8.1520620">
        <ele>741.2</ele>
        <time>2019-08-18T07:01:09Z</time>
      </trkpt>
      <trkpt lat="42.5327320" lon="-8.1520510">
        <ele>741.5</ele>
        <time>2019-08-18T07:01:10Z</time>
      </trkpt>
      <trkpt lat="42.5327560" lon="-8.1520400">
        <ele>741.8</ele>
        <time>2019-08-18T07:01:11Z</time>
      </trkpt>
      <trkpt lat="42.5327810" lon="-8.1520290">
        <ele>742.1</ele>
        <time>2019-08-18T07:01:12Z</time>
      </trkpt>
      <trkpt lat="42.5328050" lon="-8.1520190">
        <ele>742.4</ele>
        <time>2019-08-18T07:01:13Z</time>
      </trkpt>
      <trkpt lat="42.5328280" lon="-8.1520080">
        <ele>742.7</ele>
        <time>2019-08-18T07:01:14Z</time>
      </trkpt>
      <trkpt lat="42.5328510" lon="-8.1519970">
        <ele>742.9</ele>
        <time>2019-08-18T07:01:15Z</time>
      </trkpt>
      <trkpt lat="42.5328730" lon="-8.1519860">
        <ele>743.2</ele>
        <time>2019-08-18T07:01:16Z</time>
      </trkpt>
      <trkpt lat="42.5328950" lon="-8.1519760">
        <ele>743.4</ele>
        <time>2019-08-18T07:01:17Z</time>
      </trkpt>
      <trkpt lat="42.5329160" lon="-8.1519660">
        <ele>743.6</ele>
        <time>2019-08-18T07:01:18Z</time>
      </trkpt>
      <trkpt lat="42.5329370" lon="-8.1519560">
        <ele>743.8</ele>
        <time>2019-08-18T07:01:19Z</time>
      </trkpt>
      <trkpt lat="42.5329570" lon="-8.1519460">
        <ele>744.0</ele>
        <time>2019-08-18T07:01:20Z</time>
      </trkpt>
      <trkpt lat="42.5329760" lon="-8.1519370">
        <ele>744.2</ele>
        <time>2019-08-18T07:01:21Z</time>
      </trkpt>
      <trkpt lat="42.5329950" lon="-8.1519290">
        <ele>744.4</ele>
        <time>2019-08-18T07:01:22Z</time>
      </trkpt>
      <trkpt lat="42.5330140" lon="-8.1519200">
        <ele>744.6</ele>
        <time>2019-08-18T07:01:23Z</time>
      </trkpt>
      <trkpt lat="42.5330320" lon="-8.1519110">
        <ele>744.8</ele>
        <time>2019-08-18T07:01:24Z</time>
      </trkpt>
      <trkpt lat="42.5330490" lon="-8.1519030">
        <ele>744.9</ele>
        <time>2019-08-18T07:01:25Z</time>
      </trkpt>
      <trkpt lat="42.5330670" lon="-8.1518940">
        <ele>745.1</ele>
        <time>2019-08-18T07:01:26Z</time>
      </trkpt>
      <trkpt lat="42.5330840" lon="-8.1518850">
        <ele>745.3</ele>
        <time>2019-08-18T07:01:27Z</time>
      </trkpt>
      <trkpt lat="42.5331020" lon="-8.1518760">
        <ele>745.6</ele>
        <time>2019-08-18T07:01:28Z</time>
      </trkpt>
      <trkpt lat="42.5331190" lon="-8.1518660">
        <ele>745.9</ele>
        <time>2019-08-18T07:01:29Z</time>
      </trkpt>
      <trkpt lat="42.5331370" lon="-8.1518560">
        <ele>746.2</ele>
        <time>2019-08-18T07:01:30Z</time>
      </trkpt>
      <trkpt lat="42.5331540" lon="-8.1518450">
        <ele>746.5</ele>
        <time>2019-08-18T07:01:31Z</time>
      </trkpt>
      <trkpt lat="42.5331720" lon="-8.1518340">
        <ele>746.7</ele>
        <time>2019-08-18T07:01:32Z</time>
      </trkpt>
      <trkpt lat="42.5331890" lon="-8.1518230">
        <ele>746.9</ele>
        <time>2019-08-18T07:01:33Z</time>
      </trkpt>
      <trkpt lat="42.5332070" lon="-8.1518120">
        <ele>747.1</ele>
        <time>2019-08-18T07:01:34Z</time>
      </trkpt>
      <trkpt lat="42.5332250" lon="-8.1518000">
        <ele>747.2</ele>
        <time>2019-08-18T07:01:35Z</time>
      </trkpt>
      <trkpt lat="42.5332420" lon="-8.1517880">
        <ele>747.5</ele>
        <time>2019-08-18T07:01:36Z</time>
      </trkpt>
      <trkpt lat="42.5332600" lon="-8.1517760">
        <ele>747.8</ele>
        <time>2019-08-18T07:01:37Z</time>
      </trkpt>
      <trkpt lat="42.5332770" lon="-8.1517640">
        <ele>748.0</ele>
        <time>2019-08-18T07:01:38Z</time>
      </trkpt>
      <trkpt lat="42.5332950" lon="-8.1517520">
        <ele>748.3</ele>
        <time>2019-08-18T07:01:39Z</time>
      </trkpt>
      <trkpt lat="42.5333130" lon="-8.1517390">
        <ele>748.6</ele>
        <time>2019-08-18T07:01:40Z</time>
      </trkpt>
      <trkpt lat="42.5333310" lon="-8.1517260">
        <ele>748.8</ele>
        <time>2019-08-18T07:01:41Z</time>
      </trkpt>
      <trkpt lat="42.5333490" lon="-8.1517140">
        <ele>749.0</ele>
        <time>2019-08-18T07:01:42Z</time>
      </trkpt>
      <trkpt lat="42.5333670" lon="-8.1517010">
        <ele>749.2</ele>
        <time>2019-08-18T07:01:43Z</time>
      </trkpt>
      <trkpt lat="42.5333850" lon="-8.1516880">
        <ele>749.4</ele>
        <time>2019-08-18T07:01:44Z</time>
      </trkpt>
      <trkpt lat="42.5334030" lon="-8.1516750">
        <ele>749.6</ele>
        <time>2019-08-18T07:01:45Z</time>
      </trkpt>
      <trkpt lat="42.5334200" lon="-8.1516620">
        <ele>749.8</ele>
        <time>2019-08-18T07:01:46Z</time>
      </trkpt>
      <trkpt lat="42.5334380" lon="-8.1516500">
        <ele>750.1</ele>
        <time>2019-08-18T07:01:47Z</time>
      </trkpt>
      <trkpt lat="42.5334560" lon="-8.1516370">
        <ele>750.3</ele>
        <time>2019-08-18T07:01:48Z</time>
      </trkpt>
      <trkpt lat="42.5334730" lon="-8.1516240">
        <ele>750.5</ele>
        <time>2019-08-18T07:01:49Z</time>
      </trkpt>
      <trkpt lat="42.5334900" lon="-8.1516120">
        <ele>750.7</ele>
        <time>2019-08-18T07:01:50Z</time>
      </trkpt>
      <trkpt lat="42.5335070" lon="-8.1515990">
        <ele>750.8</ele>
        <time>2019-08-18T07:01:51Z</time>
      </trkpt>
      <trkpt lat="42.5335240" lon="-8.1515870">
        <ele>751.0</ele>
        <time>2019-08-18T07:01:52Z</time>
      </trkpt>
      <trkpt lat="42.5335400" lon="-8.1515750">
        <ele>751.2</ele>
        <time>2019-08-18T07:01:53Z</time>
      </trkpt>
      <trkpt lat="42.5335560" lon="-8.1515630">
        <ele>751.4</ele>
        <time>2019-08-18T07:01:54Z</time>
      </trkpt>
      <trkpt lat="42.5335710" lon="-8.1515520">
        <ele>751.6</ele>
        <time>2019-08-18T07:01:55Z</time>
      </trkpt>
      <trkpt lat="42.5335860" lon="-8.1515410">
        <ele>751.8</ele>
        <time>2019-08-18T07:01:56Z</time>
      </trkpt>
      <trkpt lat="42.5336010" lon="-8.1515300">
        <ele>752.1</ele>
        <time>2019-08-18T07:01:57Z</time>
      </trkpt>
      <trkpt lat="42.5336160" lon="-8.1515200">
        <ele>752.3</ele>
        <time>2019-08-18T07:01:58Z</time>
      </trkpt>
      <trkpt lat="42.5336300" lon="-8.1515110">
        <ele>752.4</ele>
        <time>2019-08-18T07:01:59Z</time>
      </trkpt>
      <trkpt lat="42.5336440" lon="-8.1515010">
        <ele>752.5</ele>
        <time>2019-08-18T07:02:00Z</time>
      </trkpt>
      <trkpt lat="42.5336590" lon="-8.1514910">
        <ele>752.6</ele>
        <time>2019-08-18T07:02:01Z</time>
      </trkpt>
      <trkpt lat="42.5336740" lon="-8.1514810">
        <ele>752.8</ele>
        <time>2019-08-18T07:02:02Z</time>
      </trkpt>
      <trkpt lat="42.5336900" lon="-8.1514710">
        <ele>752.9</ele>
        <time>2019-08-18T07:02:03Z</time>
      </trkpt>
      <trkpt lat="42.5337060" lon="-8.1514600">
        <ele>753.1</ele>
        <time>2019-08-18T07:02:04Z</time>
      </trkpt>
      <trkpt lat="42.5337230" lon="-8.1514490">
        <ele>753.3</ele>
        <time>2019-08-18T07:02:05Z</time>
      </trkpt>
      <trkpt lat="42.5337410" lon="-8.1514380">
        <ele>753.6</ele>
        <time>2019-08-18T07:02:06Z</time>
      </trkpt>
      <trkpt lat="42.5337590" lon="-8.1514270">
        <ele>753.8</ele>
        <time>2019-08-18T07:02:07Z</time>
      </trkpt>
      <trkpt lat="42.5337770" lon="-8.1514160">
        <ele>754.1</ele>
        <time>2019-08-18T07:02:08Z</time>
      </trkpt>
      <trkpt lat="42.5337960" lon="-8.1514040">
        <ele>754.3</ele>
        <time>2019-08-18T07:02:09Z</time>
      </trkpt>
      <trkpt lat="42.5338150" lon="-8.1513940">
        <ele>754.5</ele>
        <time>2019-08-18T07:02:10Z</time>
      </trkpt>
      <trkpt lat="42.5338340" lon="-8.1513830">
        <ele>754.8</ele>
        <time>2019-08-18T07:02:11Z</time>
      </trkpt>
      <trkpt lat="42.5338520" lon="-8.1513730">
        <ele>755.0</ele>
        <time>2019-08-18T07:02:12Z</time>
      </trkpt>
      <trkpt lat="42.5338710" lon="-8.1513630">
        <ele>755.2</ele>
        <time>2019-08-18T07:02:13Z</time>
      </trkpt>
      <trkpt lat="42.5338900" lon="-8.1513540">
        <ele>755.5</ele>
        <time>2019-08-18T07:02:14Z</time>
      </trkpt>
      <trkpt lat="42.5339090" lon="-8.1513450">
        <ele>755.7</ele>
        <time>2019-08-18T07:02:15Z</time>
      </trkpt>
      <trkpt lat="42.5339280" lon="-8.1513360">
        <ele>756.0</ele>
        <time>2019-08-18T07:02:16Z</time>
      </trkpt>
      <trkpt lat="42.5339470" lon="-8.1513270">
        <ele>756.3</ele>
        <time>2019-08-18T07:02:17Z</time>
      </trkpt>
      <trkpt lat="42.5339650" lon="-8.1513190">
        <ele>756.6</ele>
        <time>2019-08-18T07:02:18Z</time>
      </trkpt>
      <trkpt lat="42.5339840" lon="-8.1513110">
        <ele>757.0</ele>
        <time>2019-08-18T07:02:19Z</time>
      </trkpt>
      <trkpt lat="42.5340030" lon="-8.1513030">
        <ele>757.4</ele>
        <time>2019-08-18T07:02:20Z</time>
      </trkpt>
      <trkpt lat="42.5340220" lon="-8.1512950">
        <ele>757.7</ele>
        <time>2019-08-18T07:02:21Z</time>
      </trkpt>
      <trkpt lat="42.5340410" lon="-8.1512870">
        <ele>757.9</ele>
        <time>2019-08-18T07:02:22Z</time>
      </trkpt>
      <trkpt lat="42.5340590" lon="-8.1512800">
        <ele>758.1</ele>
        <time>2019-08-18T07:02:23Z</time>
      </trkpt>
      <trkpt lat="42.5340780" lon="-8.1512730">
        <ele>758.4</ele>
        <time>2019-08-18T07:02:24Z</time>
      </trkpt>
      <trkpt lat="42.5340970" lon="-8.1512650">
        <ele>758.7</ele>
        <time>2019-08-18T07:02:25Z</time>
      </trkpt>
      <trkpt lat="42.5341160" lon="-8.1512580">
        <ele>758.9</ele>
        <time>2019-08-18T07:02:26Z</time>
      </trkpt>
      <trkpt lat="42.5341340" lon="-8.1512510">
        <ele>759.1</ele>
        <time>2019-08-18T07:02:27Z</time>
      </trkpt>
      <trkpt lat="42.5341530" lon="-8.1512440">
        <ele>759.4</ele>
        <time>2019-08-18T07:02:28Z</time>
      </trkpt>
      <trkpt lat="42.5341720" lon="-8.1512370">
        <ele>759.6</ele>
        <time>2019-08-18T07:02:29Z</time>
      </trkpt>
      <trkpt lat="42.5341910" lon="-8.1512310">
        <ele>759.7</ele>
        <time>2019-08-18T07:02:30Z</time>
      </trkpt>
      <trkpt lat="42.5342090" lon="-8.1512250">
        <ele>759.8</ele>
        <time>2019-08-18T07:02:31Z</time>
      </trkpt>
      <trkpt lat="42.5342280" lon="-8.1512200">
        <ele>760.0</ele>
        <time>2019-08-18T07:02:32Z</time>
      </trkpt>
      <trkpt lat="42.5342470" lon="-8.1512160">
        <ele>760.1</ele>
        <time>2019-08-18T07:02:33Z</time>
      </trkpt>
      <trkpt lat="42.5342660" lon="-8.1512120">
        <ele>760.1</ele>
        <time>2019-08-18T07:02:34Z</time>
      </trkpt>
      <trkpt lat="42.5342850" lon="-8.1512090">
        <ele>760.2</ele>
        <time>2019-08-18T07:02:35Z</time>
      </trkpt>
      <trkpt lat="42.5343040" lon="-8.1512060">
        <ele>760.2</ele>
        <time>2019-08-18T07:02:36Z</time>
      </trkpt>
      <trkpt lat="42.5343230" lon="-8.1512030">
        <ele>760.3</ele>
        <time>2019-08-18T07:02:37Z</time>
      </trkpt>
      <trkpt lat="42.5343420" lon="-8.1512010">
        <ele>760.3</ele>
        <time>2019-08-18T07:02:38Z</time>
      </trkpt>
      <trkpt lat="42.5343610" lon="-8.1512000">
        <ele>760.3</ele>
        <time>2019-08-18T07:02:39Z</time>
      </trkpt>
      <trkpt lat="42.5343800" lon="-8.1511980">
        <ele>760.4</ele>
        <time>2019-08-18T07:02:40Z</time>
      </trkpt>
      <trkpt lat="42.5343990" lon="-8.1511970">
        <ele>760.4</ele>
        <time>2019-08-18T07:02:41Z</time>
      </trkpt>
      <trkpt lat="42.5344170" lon="-8.1511950">
        <ele>760.4</ele>
        <time>2019-08-18T07:02:42Z</time>
      </trkpt>
      <trkpt lat="42.5344360" lon="-8.1511940">
        <ele>760.4</ele>
        <time>2019-08-18T07:02:43Z</time>
      </trkpt>
      <trkpt lat="42.5344540" lon="-8.1511930">
        <ele>760.5</ele>
        <time>2019-08-18T07:02:44Z</time>
      </trkpt>
      <trkpt lat="42.5344720" lon="-8.1511920">
        <ele>760.5</ele>
        <time>2019-08-18T07:02:45Z</time>
      </trkpt>
      <trkpt lat="42.5344900" lon="-8.1511910">
        <ele>760.5</ele>
        <time>2019-08-18T07:02:46Z</time>
      </trkpt>
      <trkpt lat="42.5345070" lon="-8.1511910">
        <ele>760.5</ele>
        <time>2019-08-18T07:02:47Z</time>
      </trkpt>
      <trkpt lat="42.5345240" lon="-8.1511910">
        <ele>760.5</ele>
        <time>2019-08-18T07:02:48Z</time>
      </trkpt>
      <trkpt lat="42.5345400" lon="-8.1511910">
        <ele>760.5</ele>
        <time>2019-08-18T07:02:49Z</time>
      </trkpt>
      <trkpt lat="42.5345560" lon="-8.1511920">
        <ele>760.5</ele>
        <time>2019-08-18T07:02:50Z</time>
      </trkpt>
      <trkpt lat="42.5345710" lon="-8.1511920">
        <ele>760.4</ele>
        <time>2019-08-18T07:02:51Z</time>
      </trkpt>
      <trkpt lat="42.5345870" lon="-8.1511930">
        <ele>760.4</ele>
        <time>2019-08-18T07:02:52Z</time>
      </trkpt>
      <trkpt lat="42.5346030" lon="-8.1511930">
        <ele>760.4</ele>
        <time>2019-08-18T07:02:53Z</time>
      </trkpt>
      <trkpt lat="42.5346190" lon="-8.1511930">
        <ele>760.4</ele>
        <time>2019-08-18T07:02:54Z</time>
      </trkpt>
      <trkpt lat="42.5346350" lon="-8.1511920">
        <ele>760.5</ele>
        <time>2019-08-18T07:02:55Z</time>
      </trkpt>
      <trkpt lat="42.5346520" lon="-8.1511910">
        <ele>760.5</ele>
        <time>2019-08-18T07:02:56Z</time>
      </trkpt>
      <trkpt lat="42.5346690" lon="-8.1511890">
        <ele>760.5</ele>
        <time>2019-08-18T07:02:57Z</time>
      </trkpt>
      <trkpt lat="42.5346870" lon="-8.1511860">
        <ele>760.5</ele>
        <time>2019-08-18T07:02:58Z</time>
      </trkpt>
      <trkpt lat="42.5347050" lon="-8.1511840">
        <ele>760.6</ele>
        <time>2019-08-18T07:02:59Z</time>
      </trkpt>
      <trkpt lat="42.5347220" lon="-8.1511810">
        <ele>760.6</ele>
        <time>2019-08-18T07:03:00Z</time>
      </trkpt>
      <trkpt lat="42.5347400" lon="-8.1511790">
        <ele>760.7</ele>
        <time>2019-08-18T07:03:01Z</time>
      </trkpt>
      <trkpt lat="42.5347570" lon="-8.1511770">
        <ele>760.8</ele>
        <time>2019-08-18T07:03:02Z</time>
      </trkpt>
      <trkpt lat="42.5347730" lon="-8.1511750">
        <ele>760.8</ele>
        <time>2019-08-18T07:03:03Z</time>
      </trkpt>
      <trkpt lat="42.5347890" lon="-8.1511740">
        <ele>760.9</ele>
        <time>2019-08-18T07:03:04Z</time>
      </trkpt>
      <trkpt lat="42.5348050" lon="-8.1511730">
        <ele>760.9</ele>
        <time>2019-08-18T07:03:05Z</time>
      </trkpt>
      <trkpt lat="42.5348210" lon="-8.1511730">
        <ele>761.0</ele>
        <time>2019-08-18T07:03:06Z</time>
      </trkpt>
      <trkpt lat="42.5348360" lon="-8.1511740">
        <ele>761.0</ele>
        <time>2019-08-18T07:03:07Z</time>
      </trkpt>
      <trkpt lat="42.5348500" lon="-8.1511750">
        <ele>761.0</ele>
        <time>2019-08-18T07:03:08Z</time>
      </trkpt>
      <trkpt lat="42.5348650" lon="-8.1511770">
        <ele>761.1</ele>
        <time>2019-08-18T07:03:09Z</time>
      </trkpt>
      <trkpt lat="42.5348790" lon="-8.1511800">
        <ele>761.1</ele>
        <time>2019-08-18T07:03:10Z</time>
      </trkpt>
      <trkpt lat="42.5348940" lon="-8.1511840">
        <ele>761.2</ele>
        <time>2019-08-18T07:03:11Z</time>
      </trkpt>
      <trkpt lat="42.5349080" lon="-8.1511880">
        <ele>761.3</ele>
        <time>2019-08-18T07:03:12Z</time>
      </trkpt>
      <trkpt lat="42.5349220" lon="-8.1511920">
        <ele>761.4</ele>
        <time>2019-08-18T07:03:13Z</time>
      </trkpt>
      <trkpt lat="42.5349370" lon="-8.1511950">
        <ele>761.5</ele>
        <time>2019-08-18T07:03:14Z</time>
      </trkpt>
      <trkpt lat="42.5349520" lon="-8.1511980">
        <ele>761.6</ele>
        <time>2019-08-18T07:03:15Z</time>
      </trkpt>
      <trkpt lat="42.5349680" lon="-8.1511990">
        <ele>761.8</ele>
        <time>2019-08-18T07:03:16Z</time>
      </trkpt>
      <trkpt lat="42.5349840" lon="-8.1511980">
        <ele>762.0</ele>
        <time>2019-08-18T07:03:17Z</time>
      </trkpt>
      <trkpt lat="42.5350010" lon="-8.1511960">
        <ele>762.1</ele>
        <time>2019-08-18T07:03:18Z</time>
      </trkpt>
      <trkpt lat="42.5350180" lon="-8.1511930">
        <ele>762.3</ele>
        <time>2019-08-18T07:03:19Z</time>
      </trkpt>
      <trkpt lat="42.5350340" lon="-8.1511900">
        <ele>762.5</ele>
        <time>2019-08-18T07:03:20Z</time>
      </trkpt>
      <trkpt lat="42.5350490" lon="-8.1511880">
        <ele>762.7</ele>
        <time>2019-08-18T07:03:21Z</time>
      </trkpt>
      <trkpt lat="42.5350620" lon="-8.1511870">
        <ele>762.8</ele>
        <time>2019-08-18T07:03:22Z</time>
      </trkpt>
      <trkpt lat="42.5350740" lon="-8.1511860">
        <ele>763.0</ele>
        <time>2019-08-18T07:03:23Z</time>
      </trkpt>
      <trkpt lat="42.5350880" lon="-8.1511860">
        <ele>763.1</ele>
        <time>2019-08-18T07:03:24Z</time>
      </trkpt>
      <trkpt lat="42.5351040" lon="-8.1511850">
        <ele>763.3</ele>
        <time>2019-08-18T07:03:25Z</time>
      </trkpt>
      <trkpt lat="42.5351210" lon="-8.1511840">
        <ele>763.5</ele>
        <time>2019-08-18T07:03:26Z</time>
      </trkpt>
      <trkpt lat="42.5351410" lon="-8.1511820">
        <ele>763.8</ele>
        <time>2019-08-18T07:03:27Z</time>
      </trkpt>
      <trkpt lat="42.5351610" lon="-8.1511800">
        <ele>764.1</ele>
        <time>2019-08-18T07:03:28Z</time>
      </trkpt>
      <trkpt lat="42.5351820" lon="-8.1511770">
        <ele>764.4</ele>
        <time>2019-08-18T07:03:29Z</time>
      </trkpt>
      <trkpt lat="42.5352030" lon="-8.1511760">
        <ele>764.7</ele>
        <time>2019-08-18T07:03:30Z</time>
      </trkpt>
      <trkpt lat="42.5352240" lon="-8.1511740">
        <ele>765.1</ele>
        <time>2019-08-18T07:03:31Z</time>
      </trkpt>
      <trkpt lat="42.5352440" lon="-8.1511740">
        <ele>765.3</ele>
        <time>2019-08-18T07:03:32Z</time>
      </trkpt>
      <trkpt lat="42.5352630" lon="-8.1511740">
        <ele>765.5</ele>
        <time>2019-08-18T07:03:33Z</time>
      </trkpt>
      <trkpt lat="42.5352820" lon="-8.1511740">
        <ele>765.7</ele>
        <time>2019-08-18T07:03:34Z</time>
      </trkpt>
      <trkpt lat="42.5353010" lon="-8.1511740">
        <ele>765.9</ele>
        <time>2019-08-18T07:03:35Z</time>
      </trkpt>
      <trkpt lat="42.5353190" lon="-8.1511750">
        <ele>766.2</ele>
        <time>2019-08-18T07:03:36Z</time>
      </trkpt>
      <trkpt lat="42.5353370" lon="-8.1511750">
        <ele>766.5</ele>
        <time>2019-08-18T07:03:37Z</time>
      </trkpt>
      <trkpt lat="42.5353550" lon="-8.1511750">
        <ele>766.9</ele>
        <time>2019-08-18T07:03:38Z</time>
      </trkpt>
      <trkpt lat="42.5353730" lon="-8.1511740">
        <ele>767.3</ele>
        <time>2019-08-18T07:03:39Z</time>
      </trkpt>
      <trkpt lat="42.5353910" lon="-8.1511720">
        <ele>767.6</ele>
        <time>2019-08-18T07:03:40Z</time>
      </trkpt>
      <trkpt lat="42.5354090" lon="-8.1511700">
        <ele>767.9</ele>
        <time>2019-08-18T07:03:41Z</time>
      </trkpt>
      <trkpt lat="42.5354270" lon="-8.1511670">
        <ele>768.3</ele>
        <time>2019-08-18T07:03:42Z</time>
      </trkpt>
      <trkpt lat="42.5354450" lon="-8.1511640">
        <ele>768.6</ele>
        <time>2019-08-18T07:03:43Z</time>
      </trkpt>
      <trkpt lat="42.5354620" lon="-8.1511600">
        <ele>768.9</ele>
        <time>2019-08-18T07:03:44Z</time>
      </trkpt>
      <trkpt lat="42.5354800" lon="-8.1511550">
        <ele>769.3</ele>
        <time>2019-08-18T07:03:45Z</time>
      </trkpt>
      <trkpt lat="42.5354980" lon="-8.1511500">
        <ele>769.6</ele>
        <time>2019-08-18T07:03:46Z</time>
      </trkpt>
      <trkpt lat="42.5355160" lon="-8.1511440">
        <ele>769.8</ele>
        <time>2019-08-18T07:03:47Z</time>
      </trkpt>
      <trkpt lat="42.5355340" lon="-8.1511370">
        <ele>770.1</ele>
        <time>2019-08-18T07:03:48Z</time>
      </trkpt>
      <trkpt lat="42.5355510" lon="-8.1511290">
        <ele>770.3</ele>
        <time>2019-08-18T07:03:49Z</time>
      </trkpt>
      <trkpt lat="42.5355690" lon="-8.1511210">
        <ele>770.6</ele>
        <time>2019-08-18T07:03:50Z</time>
      </trkpt>
      <trkpt lat="42.5355860" lon="-8.1511120">
        <ele>770.8</ele>
        <time>2019-08-18T07:03:51Z</time>
      </trkpt>
      <trkpt lat="42.5356030" lon="-8.1511020">
        <ele>771.1</ele>
        <time>2019-08-18T07:03:52Z</time>
      </trkpt>
      <trkpt lat="42.5356200" lon="-8.1510920">
        <ele>771.4</ele>
        <time>2019-08-18T07:03:53Z</time>
      </trkpt>
      <trkpt lat="42.5356370" lon="-8.1510810">
        <ele>771.7</ele>
        <time>2019-08-18T07:03:54Z</time>
      </trkpt>
      <trkpt lat="42.5356540" lon="-8.1510690">
        <ele>772.0</ele>
        <time>2019-08-18T07:03:55Z</time>
      </trkpt>
      <trkpt lat="42.5356710" lon="-8.1510560">
        <ele>772.2</ele>
        <time>2019-08-18T07:03:56Z</time>
      </trkpt>
      <trkpt lat="42.5356880" lon="-8.1510440">
        <ele>772.3</ele>
        <time>2019-08-18T07:03:57Z</time>
      </trkpt>
      <trkpt lat="42.5357050" lon="-8.1510310">
        <ele>772.5</ele>
        <time>2019-08-18T07:03:58Z</time>
      </trkpt>
      <trkpt lat="42.5357220" lon="-8.1510170">
        <ele>772.6</ele>
        <time>2019-08-18T07:03:59Z</time>
      </trkpt>
      <trkpt lat="42.5357390" lon="-8.1510040">
        <ele>772.8</ele>
        <time>2019-08-18T07:04:00Z</time>
      </trkpt>
      <trkpt lat="42.5357560" lon="-8.1509900">
        <ele>773.0</ele>
        <time>2019-08-18T07:04:01Z</time>
      </trkpt>
      <trkpt lat="42.5357740" lon="-8.1509770">
        <ele>773.1</ele>
        <time>2019-08-18T07:04:02Z</time>
      </trkpt>
      <trkpt lat="42.5357920" lon="-8.1509630">
        <ele>773.3</ele>
        <time>2019-08-18T07:04:03Z</time>
      </trkpt>
      <trkpt lat="42.5358100" lon="-8.1509490">
        <ele>773.4</ele>
        <time>2019-08-18T07:04:04Z</time>
      </trkpt>
      <trkpt lat="42.5358280" lon="-8.1509360">
        <ele>773.5</ele>
        <time>2019-08-18T07:04:05Z</time>
      </trkpt>
      <trkpt lat="42.5358470" lon="-8.1509220">
        <ele>773.5</ele>
        <time>2019-08-18T07:04:06Z</time>
      </trkpt>
      <trkpt lat="42.5358660" lon="-8.1509080">
        <ele>773.5</ele>
        <time>2019-08-18T07:04:07Z</time>
      </trkpt>
      <trkpt lat="42.5358860" lon="-8.1508940">
        <ele>773.6</ele>
        <time>2019-08-18T07:04:08Z</time>
      </trkpt>
      <trkpt lat="42.5359060" lon="-8.1508790">
        <ele>773.6</ele>
        <time>2019-08-18T07:04:09Z</time>
      </trkpt>
      <trkpt lat="42.5359270" lon="-8.1508650">
        <ele>773.7</ele>
        <time>2019-08-18T07:04:10Z</time>
      </trkpt>
      <trkpt lat="42.5359480" lon="-8.1508500">
        <ele>773.7</ele>
        <time>2019-08-18T07:04:11Z</time>
      </trkpt>
      <trkpt lat="42.5359700" lon="-8.1508340">
        <ele>773.7</ele>
        <time>2019-08-18T07:04:12Z</time>
      </trkpt>
      <trkpt lat="42.5359920" lon="-8.1508190">
        <ele>773.8</ele>
        <time>2019-08-18T07:04:13Z</time>
      </trkpt>
      <trkpt lat="42.5360140" lon="-8.1508030">
        <ele>773.8</ele>
        <time>2019-08-18T07:04:14Z</time>
      </trkpt>
      <trkpt lat="42.5360370" lon="-8.1507870">
        <ele>773.9</ele>
        <time>2019-08-18T07:04:15Z</time>
      </trkpt>
      <trkpt lat="42.5360600" lon="-8.1507700">
        <ele>773.9</ele>
        <time>2019-08-18T07:04:16Z</time>
      </trkpt>
      <trkpt lat="42.5360840" lon="-8.1507530">
        <ele>773.8</ele>
        <time>2019-08-18T07:04:17Z</time>
      </trkpt>
      <trkpt lat="42.5361070" lon="-8.1507350">
        <ele>773.8</ele>
        <time>2019-08-18T07:04:18Z</time>
      </trkpt>
      <trkpt lat="42.5361320" lon="-8.1507180">
        <ele>773.8</ele>
        <time>2019-08-18T07:04:19Z</time>
      </trkpt>
      <trkpt lat="42.5361560" lon="-8.1507000">
        <ele>773.7</ele>
        <time>2019-08-18T07:04:20Z</time>
      </trkpt>
      <trkpt lat="42.5361800" lon="-8.1506820">
        <ele>773.6</ele>
        <time>2019-08-18T07:04:21Z</time>
      </trkpt>
      <trkpt lat="42.5362050" lon="-8.1506630">
        <ele>773.6</ele>
        <time>2019-08-18T07:04:22Z</time>
      </trkpt>
      <trkpt lat="42.5362290" lon="-8.1506450">
        <ele>773.5</ele>
        <time>2019-08-18T07:04:23Z</time>
      </trkpt>
      <trkpt lat="42.5362530" lon="-8.1506260">
        <ele>773.5</ele>
        <time>2019-08-18T07:04:24Z</time>
      </trkpt>
      <trkpt lat="42.5362780" lon="-8.1506080">
        <ele>773.5</ele>
        <time>2019-08-18T07:04:25Z</time>
      </trkpt>
      <trkpt lat="42.5363020" lon="-8.1505890">
        <ele>773.4</ele>
        <time>2019-08-18T07:04:26Z</time>
      </trkpt>
      <trkpt lat="42.5363270" lon="-8.1505710">
        <ele>773.4</ele>
        <time>2019-08-18T07:04:27Z</time>
      </trkpt>
      <trkpt lat="42.5363510" lon="-8.1505520">
        <ele>773.4</ele>
        <time>2019-08-18T07:04:28Z</time>
      </trkpt>
      <trkpt lat="42.5363760" lon="-8.1505340">
        <ele>773.4</ele>
        <time>2019-08-18T07:04:29Z</time>
      </trkpt>
      <trkpt lat="42.5364000" lon="-8.1505150">
        <ele>773.4</ele>
        <time>2019-08-18T07:04:30Z</time>
      </trkpt>
      <trkpt lat="42.5364250" lon="-8.1504970">
        <ele>773.4</ele>
        <time>2019-08-18T07:04:31Z</time>
      </trkpt>
      <trkpt lat="42.5364500" lon="-8.1504800">
        <ele>773.4</ele>
        <time>2019-08-18T07:04:32Z</time>
      </trkpt>
      <trkpt lat="42.5364750" lon="-8.1504620">
        <ele>773.4</ele>
        <time>2019-08-18T07:04:33Z</time>
      </trkpt>
      <trkpt lat="42.5365000" lon="-8.1504440">
        <ele>773.4</ele>
        <time>2019-08-18T07:04:34Z</time>
      </trkpt>
      <trkpt lat="42.5365250" lon="-8.1504270">
        <ele>773.4</ele>
        <time>2019-08-18T07:04:35Z</time>
      </trkpt>
      <trkpt lat="42.5365500" lon="-8.1504100">
        <ele>773.4</ele>
        <time>2019-08-18T07:04:36Z</time>
      </trkpt>
      <trkpt lat="42.5365760" lon="-8.1503940">
        <ele>773.4</ele>
        <time>2019-08-18T07:04:37Z</time>
      </trkpt>
      <trkpt lat="42.5366020" lon="-8.1503780">
        <ele>773.4</ele>
        <time>2019-08-18T07:04:38Z</time>
      </trkpt>
      <trkpt lat="42.5366270" lon="-8.1503620">
        <ele>773.4</ele>
        <time>2019-08-18T07:04:39Z</time>
      </trkpt>
      <trkpt lat="42.5366530" lon="-8.1503460">
        <ele>773.4</ele>
        <time>2019-08-18T07:04:40Z</time>
      </trkpt>
      <trkpt lat="42.5366780" lon="-8.1503290">
        <ele>773.4</ele>
        <time>2019-08-18T07:04:41Z</time>
      </trkpt>
      <trkpt lat="42.5367030" lon="-8.1503110">
        <ele>773.4</ele>
        <time>2019-08-18T07:04:42Z</time>
      </trkpt>
      <trkpt lat="42.5367280" lon="-8.1502930">
        <ele>773.4</ele>
        <time>2019-08-18T07:04:43Z</time>
      </trkpt>
      <trkpt lat="42.5367540" lon="-8.1502750">
        <ele>773.5</ele>
        <time>2019-08-18T07:04:44Z</time>
      </trkpt>
      <trkpt lat="42.5367800" lon="-8.1502570">
        <ele>773.5</ele>
        <time>2019-08-18T07:04:45Z</time>
      </trkpt>
      <trkpt lat="42.5368080" lon="-8.1502400">
        <ele>773.5</ele>
        <time>2019-08-18T07:04:46Z</time>
      </trkpt>
      <trkpt lat="42.5368360" lon="-8.1502220">
        <ele>773.6</ele>
        <time>2019-08-18T07:04:47Z</time>
      </trkpt>
      <trkpt lat="42.5368640" lon="-8.1502020">
        <ele>773.6</ele>
        <time>2019-08-18T07:04:48Z</time>
      </trkpt>
      <trkpt lat="42.5368910" lon="-8.1501850">
        <ele>773.7</ele>
        <time>2019-08-18T07:04:49Z</time>
      </trkpt>
      <trkpt lat="42.5371060" lon="-8.1501640">
        <ele>774.1</ele>
        <time>2019-08-18T07:04:50Z</time>
      </trkpt>
      <trkpt lat="42.5373010" lon="-8.1501510">
        <ele>773.7</ele>
        <time>2019-08-18T07:05:34Z</time>
      </trkpt>
      <trkpt lat="42.5374960" lon="-8.1501370">
        <ele>772.6</ele>
        <time>2019-08-18T07:05:35Z</time>
      </trkpt>
      <trkpt lat="42.5375960" lon="-8.1501440">
        <ele>772.6</ele>
        <time>2019-08-18T07:05:36Z</time>
      </trkpt>
      <trkpt lat="42.5376350" lon="-8.1501550">
        <ele>772.7</ele>
        <time>2019-08-18T07:05:37Z</time>
      </trkpt>
      <trkpt lat="42.5376850" lon="-8.1501680">
        <ele>773.1</ele>
        <time>2019-08-18T07:05:38Z</time>
      </trkpt>
      <trkpt lat="42.5377270" lon="-8.1501830">
        <ele>773.3</ele>
        <time>2019-08-18T07:05:39Z</time>
      </trkpt>
      <trkpt lat="42.5377960" lon="-8.1502080">
        <ele>773.5</ele>
        <time>2019-08-18T07:05:40Z</time>
      </trkpt>
      <trkpt lat="42.5378240" lon="-8.1502170">
        <ele>773.6</ele>
        <time>2019-08-18T07:05:41Z</time>
      </trkpt>
      <trkpt lat="42.5378520" lon="-8.1502260">
        <ele>773.6</ele>
        <time>2019-08-18T07:05:42Z</time>
      </trkpt>
      <trkpt lat="42.5378940" lon="-8.1502390">
        <ele>773.7</ele>
        <time>2019-08-18T07:05:43Z</time>
      </trkpt>
      <trkpt lat="42.5379360" lon="-8.1502490">
        <ele>773.9</ele>
        <time>2019-08-18T07:05:44Z</time>
      </trkpt>
      <trkpt lat="42.5379790" lon="-8.1502580">
        <ele>774.4</ele>
        <time>2019-08-18T07:05:45Z</time>
      </trkpt>
      <trkpt lat="42.5380520" lon="-8.1502670">
        <ele>775.0</ele>
        <time>2019-08-18T07:05:46Z</time>
      </trkpt>
      <trkpt lat="42.5380820" lon="-8.1502680">
        <ele>775.2</ele>
        <time>2019-08-18T07:05:47Z</time>
      </trkpt>
      <trkpt lat="42.5381110" lon="-8.1502700">
        <ele>775.4</ele>
        <time>2019-08-18T07:05:48Z</time>
      </trkpt>
      <trkpt lat="42.5381570" lon="-8.1502690">
        <ele>775.7</ele>
        <time>2019-08-18T07:05:49Z</time>
      </trkpt>
      <trkpt lat="42.5382040" lon="-8.1502670">
        <ele>775.9</ele>
        <time>2019-08-18T07:05:50Z</time>
      </trkpt>
      <trkpt lat="42.5382530" lon="-8.1502650">
        <ele>776.0</ele>
        <time>2019-08-18T07:05:51Z</time>
      </trkpt>
      <trkpt lat="42.5383020" lon="-8.1502610">
        <ele>776.2</ele>
        <time>2019-08-18T07:05:52Z</time>
      </trkpt>
      <trkpt lat="42.5383530" lon="-8.1502570">
        <ele>776.3</ele>
        <time>2019-08-18T07:05:53Z</time>
      </trkpt>
      <trkpt lat="42.5384040" lon="-8.1502520">
        <ele>776.3</ele>
        <time>2019-08-18T07:05:54Z</time>
      </trkpt>
      <trkpt lat="42.5384550" lon="-8.1502480">
        <ele>776.7</ele>
        <time>2019-08-18T07:05:55Z</time>
      </trkpt>
      <trkpt lat="42.5385080" lon="-8.1502430">
        <ele>776.9</ele>
        <time>2019-08-18T07:05:56Z</time>
      </trkpt>
      <trkpt lat="42.5385600" lon="-8.1502390">
        <ele>776.9</ele>
        <time>2019-08-18T07:05:57Z</time>
      </trkpt>
      <trkpt lat="42.5386390" lon="-8.1502320">
        <ele>776.7</ele>
        <time>2019-08-18T07:05:58Z</time>
      </trkpt>
      <trkpt lat="42.5386650" lon="-8.1502300">
        <ele>776.6</ele>
        <time>2019-08-18T07:05:59Z</time>
      </trkpt>
      <trkpt lat="42.5387180" lon="-8.1502260">
        <ele>776.4</ele>
        <time>2019-08-18T07:06:00Z</time>
      </trkpt>
      <trkpt lat="42.5387710" lon="-8.1502220">
        <ele>776.5</ele>
        <time>2019-08-18T07:06:01Z</time>
      </trkpt>
      <trkpt lat="42.5388250" lon="-8.1502160">
        <ele>776.6</ele>
        <time>2019-08-18T07:06:02Z</time>
      </trkpt>
      <trkpt lat="42.5388790" lon="-8.1502090">
        <ele>776.3</ele>
        <time>2019-08-18T07:06:03Z</time>
      </trkpt>
      <trkpt lat="42.5389330" lon="-8.1502010">
        <ele>776.0</ele>
        <time>2019-08-18T07:06:04Z</time>
      </trkpt>
      <trkpt lat="42.5389880" lon="-8.1501910">
        <ele>775.7</ele>
        <time>2019-08-18T07:06:05Z</time>
      </trkpt>
      <trkpt lat="42.5390430" lon="-8.1501790">
        <ele>775.4</ele>
        <time>2019-08-18T07:06:06Z</time>
      </trkpt>
      <trkpt lat="42.5390980" lon="-8.1501660">
        <ele>775.5</ele>
        <time>2019-08-18T07:06:07Z</time>
      </trkpt>
      <trkpt lat="42.5391540" lon="-8.1501510">
        <ele>775.6</ele>
        <time>2019-08-18T07:06:08Z</time>
      </trkpt>
      <trkpt lat="42.5392100" lon="-8.1501350">
        <ele>775.2</ele>
        <time>2019-08-18T07:06:09Z</time>
      </trkpt>
      <trkpt lat="42.5392670" lon="-8.1501170">
        <ele>775.0</ele>
        <time>2019-08-18T07:06:10Z</time>
      </trkpt>
      <trkpt lat="42.5393240" lon="-8.1500980">
        <ele>775.0</ele>
        <time>2019-08-18T07:06:11Z</time>
      </trkpt>
      <trkpt lat="42.5393810" lon="-8.1500770">
        <ele>775.1</ele>
        <time>2019-08-18T07:06:12Z</time>
      </trkpt>
      <trkpt lat="42.5394380" lon="-8.1500550">
        <ele>774.9</ele>
        <time>2019-08-18T07:06:13Z</time>
      </trkpt>
      <trkpt lat="42.5394960" lon="-8.1500320">
        <ele>774.7</ele>
        <time>2019-08-18T07:06:14Z</time>
      </trkpt>
      <trkpt lat="42.5395530" lon="-8.1500080">
        <ele>774.8</ele>
        <time>2019-08-18T07:06:15Z</time>
      </trkpt>
      <trkpt lat="42.5396120" lon="-8.1499830">
        <ele>774.6</ele>
        <time>2019-08-18T07:06:16Z</time>
      </trkpt>
      <trkpt lat="42.5396700" lon="-8.1499570">
        <ele>774.1</ele>
        <time>2019-08-18T07:06:17Z</time>
      </trkpt>
      <trkpt lat="42.5397280" lon="-8.1499300">
        <ele>773.1</ele>
        <time>2019-08-18T07:06:18Z</time>
      </trkpt>
      <trkpt lat="42.5397870" lon="-8.1499030">
        <ele>773.0</ele>
        <time>2019-08-18T07:06:19Z</time>
      </trkpt>
      <trkpt lat="42.5398460" lon="-8.1498750">
        <ele>773.1</ele>
        <time>2019-08-18T07:06:20Z</time>
      </trkpt>
      <trkpt lat="42.5399050" lon="-8.1498460">
        <ele>773.0</ele>
        <time>2019-08-18T07:06:21Z</time>
      </trkpt>
      <trkpt lat="42.5399640" lon="-8.1498170">
        <ele>773.0</ele>
        <time>2019-08-18T07:06:22Z</time>
      </trkpt>
      <trkpt lat="42.5400240" lon="-8.1497880">
        <ele>773.2</ele>
        <time>2019-08-18T07:06:23Z</time>
      </trkpt>
      <trkpt lat="42.5400840" lon="-8.1497580">
        <ele>773.4</ele>
        <time>2019-08-18T07:06:24Z</time>
      </trkpt>
      <trkpt lat="42.5401440" lon="-8.1497290">
        <ele>773.5</ele>
        <time>2019-08-18T07:06:25Z</time>
      </trkpt>
      <trkpt lat="42.5402050" lon="-8.1497000">
        <ele>772.8</ele>
        <time>2019-08-18T07:06:26Z</time>
      </trkpt>
      <trkpt lat="42.5402660" lon="-8.1496720">
        <ele>772.6</ele>
        <time>2019-08-18T07:06:27Z</time>
      </trkpt>
      <trkpt lat="42.5403700" lon="-8.1496260">
        <ele>772.8</ele>
        <time>2019-08-18T07:06:28Z</time>
      </trkpt>
      <trkpt lat="42.5404120" lon="-8.1496080">
        <ele>772.8</ele>
        <time>2019-08-18T07:06:29Z</time>
      </trkpt>
      <trkpt lat="42.5404540" lon="-8.1495900">
        <ele>773.0</ele>
        <time>2019-08-18T07:06:30Z</time>
      </trkpt>
      <trkpt lat="42.5405180" lon="-8.1495650">
        <ele>773.3</ele>
        <time>2019-08-18T07:06:31Z</time>
      </trkpt>
      <trkpt lat="42.5405830" lon="-8.1495410">
        <ele>773.7</ele>
        <time>2019-08-18T07:06:32Z</time>
      </trkpt>
      <trkpt lat="42.5406930" lon="-8.1495040">
        <ele>773.6</ele>
        <time>2019-08-18T07:06:33Z</time>
      </trkpt>
      <trkpt lat="42.5407380" lon="-8.1494910">
        <ele>773.1</ele>
        <time>2019-08-18T07:06:34Z</time>
      </trkpt>
      <trkpt lat="42.5407820" lon="-8.1494770">
        <ele>773.1</ele>
        <time>2019-08-18T07:06:35Z</time>
      </trkpt>
      <trkpt lat="42.5408490" lon="-8.1494580">
        <ele>772.9</ele>
        <time>2019-08-18T07:06:36Z</time>
      </trkpt>
      <trkpt lat="42.5409160" lon="-8.1494400">
        <ele>772.3</ele>
        <time>2019-08-18T07:06:37Z</time>
      </trkpt>
      <trkpt lat="42.5409840" lon="-8.1494230">
        <ele>772.5</ele>
        <time>2019-08-18T07:06:38Z</time>
      </trkpt>
      <trkpt lat="42.5410510" lon="-8.1494080">
        <ele>772.2</ele>
        <time>2019-08-18T07:06:39Z</time>
      </trkpt>
      <trkpt lat="42.5411170" lon="-8.1493930">
        <ele>771.9</ele>
        <time>2019-08-18T07:06:40Z</time>
      </trkpt>
      <trkpt lat="42.5411830" lon="-8.1493780">
        <ele>772.3</ele>
        <time>2019-08-18T07:06:41Z</time>
      </trkpt>
      <trkpt lat="42.5412480" lon="-8.1493640">
        <ele>772.0</ele>
        <time>2019-08-18T07:06:42Z</time>
      </trkpt>
      <trkpt lat="42.5413130" lon="-8.1493510">
        <ele>772.1</ele>
        <time>2019-08-18T07:06:43Z</time>
      </trkpt>
      <trkpt lat="42.5413770" lon="-8.1493380">
        <ele>772.4</ele>
        <time>2019-08-18T07:06:44Z</time>
      </trkpt>
      <trkpt lat="42.5414400" lon="-8.1493250">
        <ele>772.0</ele>
        <time>2019-08-18T07:06:45Z</time>
      </trkpt>
      <trkpt lat="42.5415020" lon="-8.1493120">
        <ele>772.2</ele>
        <time>2019-08-18T07:06:46Z</time>
      </trkpt>
      <trkpt lat="42.5415640" lon="-8.1492990">
        <ele>772.3</ele>
        <time>2019-08-18T07:06:47Z</time>
      </trkpt>
      <trkpt lat="42.5416260" lon="-8.1492860">
        <ele>772.1</ele>
        <time>2019-08-18T07:06:48Z</time>
      </trkpt>
      <trkpt lat="42.5416870" lon="-8.1492730">
        <ele>772.5</ele>
        <time>2019-08-18T07:06:49Z</time>
      </trkpt>
      <trkpt lat="42.5417470" lon="-8.1492590">
        <ele>772.5</ele>
        <time>2019-08-18T07:06:50Z</time>
      </trkpt>
      <trkpt lat="42.5418070" lon="-8.1492450">
        <ele>772.3</ele>
        <time>2019-08-18T07:06:51Z</time>
      </trkpt>
      <trkpt lat="42.5418670" lon="-8.1492310">
        <ele>772.6</ele>
        <time>2019-08-18T07:06:52Z</time>
      </trkpt>
      <trkpt lat="42.5419260" lon="-8.1492160">
        <ele>772.9</ele>
        <time>2019-08-18T07:06:53Z</time>
      </trkpt>
      <trkpt lat="42.5419860" lon="-8.1492000">
        <ele>773.2</ele>
        <time>2019-08-18T07:06:54Z</time>
      </trkpt>
      <trkpt lat="42.5420450" lon="-8.1491840">
        <ele>773.0</ele>
        <time>2019-08-18T07:06:55Z</time>
      </trkpt>
      <trkpt lat="42.5421030" lon="-8.1491670">
        <ele>773.2</ele>
        <time>2019-08-18T07:06:56Z</time>
      </trkpt>
      <trkpt lat="42.5421620" lon="-8.1491490">
        <ele>773.7</ele>
        <time>2019-08-18T07:06:57Z</time>
      </trkpt>
      <trkpt lat="42.5422210" lon="-8.1491300">
        <ele>773.7</ele>
        <time>2019-08-18T07:06:58Z</time>
      </trkpt>
      <trkpt lat="42.5422790" lon="-8.1491100">
        <ele>774.0</ele>
        <time>2019-08-18T07:06:59Z</time>
      </trkpt>
      <trkpt lat="42.5423380" lon="-8.1490890">
        <ele>774.3</ele>
        <time>2019-08-18T07:07:00Z</time>
      </trkpt>
      <trkpt lat="42.5423970" lon="-8.1490670">
        <ele>774.3</ele>
        <time>2019-08-18T07:07:01Z</time>
      </trkpt>
      <trkpt lat="42.5424550" lon="-8.1490430">
        <ele>774.6</ele>
        <time>2019-08-18T07:07:02Z</time>
      </trkpt>
      <trkpt lat="42.5425140" lon="-8.1490190">
        <ele>775.1</ele>
        <time>2019-08-18T07:07:03Z</time>
      </trkpt>
      <trkpt lat="42.5425730" lon="-8.1489930">
        <ele>775.7</ele>
        <time>2019-08-18T07:07:04Z</time>
      </trkpt>
      <trkpt lat="42.5426320" lon="-8.1489650">
        <ele>776.3</ele>
        <time>2019-08-18T07:07:05Z</time>
      </trkpt>
      <trkpt lat="42.5426910" lon="-8.1489370">
        <ele>777.0</ele>
        <time>2019-08-18T07:07:06Z</time>
      </trkpt>
      <trkpt lat="42.5427490" lon="-8.1489080">
        <ele>777.5</ele>
        <time>2019-08-18T07:07:07Z</time>
      </trkpt>
      <trkpt lat="42.5428080" lon="-8.1488780">
        <ele>777.7</ele>
        <time>2019-08-18T07:07:08Z</time>
      </trkpt>
      <trkpt lat="42.5428670" lon="-8.1488490">
        <ele>778.4</ele>
        <time>2019-08-18T07:07:09Z</time>
      </trkpt>
      <trkpt lat="42.5429270" lon="-8.1488230">
        <ele>779.1</ele>
        <time>2019-08-18T07:07:10Z</time>
      </trkpt>
      <trkpt lat="42.5429880" lon="-8.1488000">
        <ele>779.6</ele>
        <time>2019-08-18T07:07:11Z</time>
      </trkpt>
      <trkpt lat="42.5430510" lon="-8.1487880">
        <ele>780.2</ele>
        <time>2019-08-18T07:07:12Z</time>
      </trkpt>
      <trkpt lat="42.5431160" lon="-8.1487900">
        <ele>779.6</ele>
        <time>2019-08-18T07:07:13Z</time>
      </trkpt>
      <trkpt lat="42.5431770" lon="-8.1488200">
        <ele>778.9</ele>
        <time>2019-08-18T07:07:14Z</time>
      </trkpt>
      <trkpt lat="42.5432370" lon="-8.1488500">
        <ele>778.1</ele>
        <time>2019-08-18T07:07:15Z</time>
      </trkpt>
      <trkpt lat="42.5432860" lon="-8.1489040">
        <ele>776.8</ele>
        <time>2019-08-18T07:07:16Z</time>
      </trkpt>
      <trkpt lat="42.5433240" lon="-8.1489660">
        <ele>775.6</ele>
        <time>2019-08-18T07:07:17Z</time>
      </trkpt>
      <trkpt lat="42.5433560" lon="-8.1490310">
        <ele>774.4</ele>
        <time>2019-08-18T07:07:18Z</time>
      </trkpt>
      <trkpt lat="42.5433860" lon="-8.1490950">
        <ele>773.3</ele>
        <time>2019-08-18T07:07:19Z</time>
      </trkpt>
      <trkpt lat="42.5434170" lon="-8.1491560">
        <ele>772.2</ele>
        <time>2019-08-18T07:07:20Z</time>
      </trkpt>
      <trkpt lat="42.5434500" lon="-8.1492120">
        <ele>770.9</ele>
        <time>2019-08-18T07:07:21Z</time>
      </trkpt>
      <trkpt lat="42.5434870" lon="-8.1492640">
        <ele>769.4</ele>
        <time>2019-08-18T07:07:22Z</time>
      </trkpt>
      <trkpt lat="42.5435270" lon="-8.1493110">
        <ele>768.9</ele>
        <time>2019-08-18T07:07:23Z</time>
      </trkpt>
      <trkpt lat="42.5435710" lon="-8.1493560">
        <ele>768.2</ele>
        <time>2019-08-18T07:07:24Z</time>
      </trkpt>
      <trkpt lat="42.5436160" lon="-8.1493990">
        <ele>767.4</ele>
        <time>2019-08-18T07:07:25Z</time>
      </trkpt>
      <trkpt lat="42.5436630" lon="-8.1494420">
        <ele>765.7</ele>
        <time>2019-08-18T07:07:26Z</time>
      </trkpt>
      <trkpt lat="42.5437120" lon="-8.1494850">
        <ele>764.6</ele>
        <time>2019-08-18T07:07:27Z</time>
      </trkpt>
      <trkpt lat="42.5437640" lon="-8.1495280">
        <ele>763.6</ele>
        <time>2019-08-18T07:07:28Z</time>
      </trkpt>
      <trkpt lat="42.5438210" lon="-8.1495710">
        <ele>762.5</ele>
        <time>2019-08-18T07:07:29Z</time>
      </trkpt>
      <trkpt lat="42.5438830" lon="-8.1496130">
        <ele>761.2</ele>
        <time>2019-08-18T07:07:30Z</time>
      </trkpt>
      <trkpt lat="42.5439500" lon="-8.1496510">
        <ele>760.0</ele>
        <time>2019-08-18T07:07:31Z</time>
      </trkpt>
      <trkpt lat="42.5440220" lon="-8.1496820">
        <ele>759.2</ele>
        <time>2019-08-18T07:07:32Z</time>
      </trkpt>
      <trkpt lat="42.5441000" lon="-8.1497050">
        <ele>758.1</ele>
        <time>2019-08-18T07:07:33Z</time>
      </trkpt>
      <trkpt lat="42.5441820" lon="-8.1497190">
        <ele>757.5</ele>
        <time>2019-08-18T07:07:34Z</time>
      </trkpt>
      <trkpt lat="42.5442670" lon="-8.1497280">
        <ele>757.0</ele>
        <time>2019-08-18T07:07:35Z</time>
      </trkpt>
      <trkpt lat="42.5443550" lon="-8.1497330">
        <ele>756.3</ele>
        <time>2019-08-18T07:07:36Z</time>
      </trkpt>
      <trkpt lat="42.5444430" lon="-8.1497360">
        <ele>755.7</ele>
        <time>2019-08-18T07:07:37Z</time>
      </trkpt>
      <trkpt lat="42.5445330" lon="-8.1497400">
        <ele>754.7</ele>
        <time>2019-08-18T07:07:38Z</time>
      </trkpt>
      <trkpt lat="42.5446250" lon="-8.1497440">
        <ele>753.1</ele>
        <time>2019-08-18T07:07:39Z</time>
      </trkpt>
      <trkpt lat="42.5447180" lon="-8.1497500">
        <ele>752.4</ele>
        <time>2019-08-18T07:07:40Z</time>
      </trkpt>
      <trkpt lat="42.5448120" lon="-8.1497580">
        <ele>751.4</ele>
        <time>2019-08-18T07:07:41Z</time>
      </trkpt>
      <trkpt lat="42.5449060" lon="-8.1497690">
        <ele>750.6</ele>
        <time>2019-08-18T07:07:42Z</time>
      </trkpt>
      <trkpt lat="42.5449990" lon="-8.1497830">
        <ele>749.7</ele>
        <time>2019-08-18T07:07:43Z</time>
      </trkpt>
      <trkpt lat="42.5450900" lon="-8.1498010">
        <ele>748.4</ele>
        <time>2019-08-18T07:07:44Z</time>
      </trkpt>
      <trkpt lat="42.5451790" lon="-8.1498230">
        <ele>746.8</ele>
        <time>2019-08-18T07:07:45Z</time>
      </trkpt>
      <trkpt lat="42.5452670" lon="-8.1498490">
        <ele>745.6</ele>
        <time>2019-08-18T07:07:46Z</time>
      </trkpt>
      <trkpt lat="42.5453540" lon="-8.1498780">
        <ele>744.2</ele>
        <time>2019-08-18T07:07:47Z</time>
      </trkpt>
      <trkpt lat="42.5454390" lon="-8.1499090">
        <ele>743.3</ele>
        <time>2019-08-18T07:07:48Z</time>
      </trkpt>
      <trkpt lat="42.5455250" lon="-8.1499380">
        <ele>741.8</ele>
        <time>2019-08-18T07:07:49Z</time>
      </trkpt>
      <trkpt lat="42.5456100" lon="-8.1499660">
        <ele>740.9</ele>
        <time>2019-08-18T07:07:50Z</time>
      </trkpt>
      <trkpt lat="42.5456960" lon="-8.1499890">
        <ele>739.6</ele>
        <time>2019-08-18T07:07:51Z</time>
      </trkpt>
      <trkpt lat="42.5457820" lon="-8.1500090">
        <ele>738.9</ele>
        <time>2019-08-18T07:07:52Z</time>
      </trkpt>
      <trkpt lat="42.5458680" lon="-8.1500280">
        <ele>737.9</ele>
        <time>2019-08-18T07:07:53Z</time>
      </trkpt>
      <trkpt lat="42.5459560" lon="-8.1500470">
        <ele>737.6</ele>
        <time>2019-08-18T07:07:54Z</time>
      </trkpt>
      <trkpt lat="42.5460440" lon="-8.1500670">
        <ele>737.1</ele>
        <time>2019-08-18T07:07:55Z</time>
      </trkpt>
      <trkpt lat="42.5461320" lon="-8.1500900">
        <ele>737.0</ele>
        <time>2019-08-18T07:07:56Z</time>
      </trkpt>
      <trkpt lat="42.5462210" lon="-8.1501170">
        <ele>736.8</ele>
        <time>2019-08-18T07:07:57Z</time>
      </trkpt>
      <trkpt lat="42.5463100" lon="-8.1501510">
        <ele>736.7</ele>
        <time>2019-08-18T07:07:58Z</time>
      </trkpt>
      <trkpt lat="42.5463980" lon="-8.1501920">
        <ele>736.2</ele>
        <time>2019-08-18T07:07:59Z</time>
      </trkpt>
      <trkpt lat="42.5465460" lon="-8.1502740">
        <ele>736.5</ele>
        <time>2019-08-18T07:08:00Z</time>
      </trkpt>
      <trkpt lat="42.5466070" lon="-8.1503090">
        <ele>736.1</ele>
        <time>2019-08-18T07:08:01Z</time>
      </trkpt>
      <trkpt lat="42.5466670" lon="-8.1503440">
        <ele>735.7</ele>
        <time>2019-08-18T07:08:02Z</time>
      </trkpt>
      <trkpt lat="42.5467600" lon="-8.1504000">
        <ele>734.3</ele>
        <time>2019-08-18T07:08:03Z</time>
      </trkpt>
      <trkpt lat="42.5468550" lon="-8.1504600">
        <ele>734.1</ele>
        <time>2019-08-18T07:08:04Z</time>
      </trkpt>
      <trkpt lat="42.5470110" lon="-8.1505690">
        <ele>733.4</ele>
        <time>2019-08-18T07:08:05Z</time>
      </trkpt>
      <trkpt lat="42.5470730" lon="-8.1506150">
        <ele>733.6</ele>
        <time>2019-08-18T07:08:06Z</time>
      </trkpt>
      <trkpt lat="42.5471350" lon="-8.1506620">
        <ele>733.8</ele>
        <time>2019-08-18T07:08:07Z</time>
      </trkpt>
      <trkpt lat="42.5472260" lon="-8.1507350">
        <ele>733.0</ele>
        <time>2019-08-18T07:08:08Z</time>
      </trkpt>
      <trkpt lat="42.5473140" lon="-8.1508150">
        <ele>732.3</ele>
        <time>2019-08-18T07:08:09Z</time>
      </trkpt>
      <trkpt lat="42.5474000" lon="-8.1508980">
        <ele>731.6</ele>
        <time>2019-08-18T07:08:10Z</time>
      </trkpt>
      <trkpt lat="42.5474850" lon="-8.1509840">
        <ele>730.5</ele>
        <time>2019-08-18T07:08:11Z</time>
      </trkpt>
      <trkpt lat="42.5475680" lon="-8.1510700">
        <ele>730.8</ele>
        <time>2019-08-18T07:08:12Z</time>
      </trkpt>
      <trkpt lat="42.5476510" lon="-8.1511540">
        <ele>729.8</ele>
        <time>2019-08-18T07:08:13Z</time>
      </trkpt>
      <trkpt lat="42.5477340" lon="-8.1512360">
        <ele>729.4</ele>
        <time>2019-08-18T07:08:14Z</time>
      </trkpt>
      <trkpt lat="42.5478170" lon="-8.1513140">
        <ele>729.1</ele>
        <time>2019-08-18T07:08:15Z</time>
      </trkpt>
      <trkpt lat="42.5479010" lon="-8.1513870">
        <ele>728.4</ele>
        <time>2019-08-18T07:08:16Z</time>
      </trkpt>
      <trkpt lat="42.5479850" lon="-8.1514560">
        <ele>728.7</ele>
        <time>2019-08-18T07:08:17Z</time>
      </trkpt>
      <trkpt lat="42.5480690" lon="-8.1515210">
        <ele>728.8</ele>
        <time>2019-08-18T07:08:18Z</time>
      </trkpt>
      <trkpt lat="42.5481510" lon="-8.1515850">
        <ele>728.2</ele>
        <time>2019-08-18T07:08:19Z</time>
      </trkpt>
      <trkpt lat="42.5482320" lon="-8.1516490">
        <ele>728.9</ele>
        <time>2019-08-18T07:08:20Z</time>
      </trkpt>
      <trkpt lat="42.5483100" lon="-8.1517090">
        <ele>729.4</ele>
        <time>2019-08-18T07:08:21Z</time>
      </trkpt>
      <trkpt lat="42.5483870" lon="-8.1517650">
        <ele>730.0</ele>
        <time>2019-08-18T07:08:22Z</time>
      </trkpt>
      <trkpt lat="42.5484620" lon="-8.1518130">
        <ele>731.2</ele>
        <time>2019-08-18T07:08:23Z</time>
      </trkpt>
      <trkpt lat="42.5485350" lon="-8.1518530">
        <ele>732.5</ele>
        <time>2019-08-18T07:08:24Z</time>
      </trkpt>
      <trkpt lat="42.5486070" lon="-8.1518850">
        <ele>733.0</ele>
        <time>2019-08-18T07:08:25Z</time>
      </trkpt>
      <trkpt lat="42.5486750" lon="-8.1519160">
        <ele>733.7</ele>
        <time>2019-08-18T07:08:26Z</time>
      </trkpt>
      <trkpt lat="42.5487370" lon="-8.1519570">
        <ele>735.2</ele>
        <time>2019-08-18T07:08:27Z</time>
      </trkpt>
      <trkpt lat="42.5487890" lon="-8.1520180">
        <ele>734.9</ele>
        <time>2019-08-18T07:08:28Z</time>
      </trkpt>
      <trkpt lat="42.5488280" lon="-8.1520930">
        <ele>733.4</ele>
        <time>2019-08-18T07:08:29Z</time>
      </trkpt>
      <trkpt lat="42.5488520" lon="-8.1521760">
        <ele>731.7</ele>
        <time>2019-08-18T07:08:30Z</time>
      </trkpt>
      <trkpt lat="42.5488590" lon="-8.1522580">
        <ele>730.3</ele>
        <time>2019-08-18T07:08:31Z</time>
      </trkpt>
      <trkpt lat="42.5488540" lon="-8.1523370">
        <ele>728.5</ele>
        <time>2019-08-18T07:08:32Z</time>
      </trkpt>
      <trkpt lat="42.5488400" lon="-8.1524110">
        <ele>727.0</ele>
        <time>2019-08-18T07:08:33Z</time>
      </trkpt>
      <trkpt lat="42.5488220" lon="-8.1524770">
        <ele>725.6</ele>
        <time>2019-08-18T07:08:34Z</time>
      </trkpt>
      <trkpt lat="42.5488040" lon="-8.1525350">
        <ele>723.7</ele>
        <time>2019-08-18T07:08:35Z</time>
      </trkpt>
      <trkpt lat="42.5487900" lon="-8.1525870">
        <ele>722.5</ele>
        <time>2019-08-18T07:08:36Z</time>
      </trkpt>
      <trkpt lat="42.5487750" lon="-8.1526380">
        <ele>721.6</ele>
        <time>2019-08-18T07:08:37Z</time>
      </trkpt>
      <trkpt lat="42.5487670" lon="-8.1526910">
        <ele>720.4</ele>
        <time>2019-08-18T07:08:38Z</time>
      </trkpt>
      <trkpt lat="42.5487640" lon="-8.1527460">
        <ele>719.0</ele>
        <time>2019-08-18T07:08:39Z</time>
      </trkpt>
      <trkpt lat="42.5487660" lon="-8.1528030">
        <ele>718.0</ele>
        <time>2019-08-18T07:08:40Z</time>
      </trkpt>
      <trkpt lat="42.5487720" lon="-8.1528610">
        <ele>717.4</ele>
        <time>2019-08-18T07:08:41Z</time>
      </trkpt>
      <trkpt lat="42.5487830" lon="-8.1529190">
        <ele>716.9</ele>
        <time>2019-08-18T07:08:42Z</time>
      </trkpt>
      <trkpt lat="42.5487970" lon="-8.1529770">
        <ele>716.3</ele>
        <time>2019-08-18T07:08:43Z</time>
      </trkpt>
      <trkpt lat="42.5488160" lon="-8.1530350">
        <ele>715.7</ele>
        <time>2019-08-18T07:08:44Z</time>
      </trkpt>
      <trkpt lat="42.5488380" lon="-8.1530930">
        <ele>715.0</ele>
        <time>2019-08-18T07:08:45Z</time>
      </trkpt>
      <trkpt lat="42.5488640" lon="-8.1531500">
        <ele>714.3</ele>
        <time>2019-08-18T07:08:46Z</time>
      </trkpt>
      <trkpt lat="42.5488930" lon="-8.1532080">
        <ele>713.9</ele>
        <time>2019-08-18T07:08:47Z</time>
      </trkpt>
      <trkpt lat="42.5489260" lon="-8.1532660">
        <ele>713.7</ele>
        <time>2019-08-18T07:08:48Z</time>
      </trkpt>
      <trkpt lat="42.5489630" lon="-8.1533270">
        <ele>713.5</ele>
        <time>2019-08-18T07:08:49Z</time>
      </trkpt>
      <trkpt lat="42.5490040" lon="-8.1533900">
        <ele>713.1</ele>
        <time>2019-08-18T07:08:50Z</time>
      </trkpt>
      <trkpt lat="42.5490480" lon="-8.1534570">
        <ele>712.3</ele>
        <time>2019-08-18T07:08:51Z</time>
      </trkpt>
      <trkpt lat="42.5490960" lon="-8.1535270">
        <ele>711.6</ele>
        <time>2019-08-18T07:08:52Z</time>
      </trkpt>
      <trkpt lat="42.5491470" lon="-8.1536020">
        <ele>710.7</ele>
        <time>2019-08-18T07:08:53Z</time>
      </trkpt>
      <trkpt lat="42.5492400" lon="-8.1537320">
        <ele>709.3</ele>
        <time>2019-08-18T07:08:54Z</time>
      </trkpt>
      <trkpt lat="42.5492790" lon="-8.1537850">
        <ele>708.7</ele>
        <time>2019-08-18T07:08:55Z</time>
      </trkpt>
      <trkpt lat="42.5493170" lon="-8.1538380">
        <ele>708.1</ele>
        <time>2019-08-18T07:08:56Z</time>
      </trkpt>
      <trkpt lat="42.5493760" lon="-8.1539170">
        <ele>707.4</ele>
        <time>2019-08-18T07:08:57Z</time>
      </trkpt>
      <trkpt lat="42.5494360" lon="-8.1539940">
        <ele>707.1</ele>
        <time>2019-08-18T07:08:58Z</time>
      </trkpt>
      <trkpt lat="42.5495340" lon="-8.1541090">
        <ele>705.6</ele>
        <time>2019-08-18T07:08:59Z</time>
      </trkpt>
      <trkpt lat="42.5495730" lon="-8.1541520">
        <ele>705.0</ele>
        <time>2019-08-18T07:09:00Z</time>
      </trkpt>
      <trkpt lat="42.5496120" lon="-8.1541950">
        <ele>704.3</ele>
        <time>2019-08-18T07:09:01Z</time>
      </trkpt>
      <trkpt lat="42.5496700" lon="-8.1542500">
        <ele>703.8</ele>
        <time>2019-08-18T07:09:02Z</time>
      </trkpt>
      <trkpt lat="42.5497300" lon="-8.1542970">
        <ele>702.9</ele>
        <time>2019-08-18T07:09:03Z</time>
      </trkpt>
      <trkpt lat="42.5497920" lon="-8.1543370">
        <ele>702.3</ele>
        <time>2019-08-18T07:09:04Z</time>
      </trkpt>
      <trkpt lat="42.5498550" lon="-8.1543660">
        <ele>702.0</ele>
        <time>2019-08-18T07:09:05Z</time>
      </trkpt>
      <trkpt lat="42.5499180" lon="-8.1543960">
        <ele>701.3</ele>
        <time>2019-08-18T07:09:06Z</time>
      </trkpt>
      <trkpt lat="42.5499810" lon="-8.1544180">
        <ele>700.5</ele>
        <time>2019-08-18T07:09:07Z</time>
      </trkpt>
      <trkpt lat="42.5500420" lon="-8.1544360">
        <ele>700.0</ele>
        <time>2019-08-18T07:09:08Z</time>
      </trkpt>
      <trkpt lat="42.5501030" lon="-8.1544500">
        <ele>699.3</ele>
        <time>2019-08-18T07:09:09Z</time>
      </trkpt>
      <trkpt lat="42.5501630" lon="-8.1544600">
        <ele>698.5</ele>
        <time>2019-08-18T07:09:10Z</time>
      </trkpt>
      <trkpt lat="42.5502250" lon="-8.1544660">
        <ele>698.1</ele>
        <time>2019-08-18T07:09:11Z</time>
      </trkpt>
      <trkpt lat="42.5502870" lon="-8.1544680">
        <ele>697.8</ele>
        <time>2019-08-18T07:09:12Z</time>
      </trkpt>
      <trkpt lat="42.5503480" lon="-8.1544610">
        <ele>697.8</ele>
        <time>2019-08-18T07:09:13Z</time>
      </trkpt>
      <trkpt lat="42.5504070" lon="-8.1544400">
        <ele>698.1</ele>
        <time>2019-08-18T07:09:14Z</time>
      </trkpt>
      <trkpt lat="42.5504860" lon="-8.1543730">
        <ele>699.0</ele>
        <time>2019-08-18T07:09:15Z</time>
      </trkpt>
      <trkpt lat="42.5505110" lon="-8.1543440">
        <ele>699.6</ele>
        <time>2019-08-18T07:09:16Z</time>
      </trkpt>
      <trkpt lat="42.5505610" lon="-8.1542860">
        <ele>700.1</ele>
        <time>2019-08-18T07:09:17Z</time>
      </trkpt>
      <trkpt lat="42.5506140" lon="-8.1542140">
        <ele>700.9</ele>
        <time>2019-08-18T07:09:18Z</time>
      </trkpt>
      <trkpt lat="42.5506680" lon="-8.1541380">
        <ele>700.9</ele>
        <time>2019-08-18T07:09:19Z</time>
      </trkpt>
      <trkpt lat="42.5507140" lon="-8.1540620">
        <ele>703.3</ele>
        <time>2019-08-18T07:09:20Z</time>
      </trkpt>
      <trkpt lat="42.5507420" lon="-8.1539900">
        <ele>705.0</ele>
        <time>2019-08-18T07:09:21Z</time>
      </trkpt>
      <trkpt lat="42.5507570" lon="-8.1539230">
        <ele>706.3</ele>
        <time>2019-08-18T07:09:22Z</time>
      </trkpt>
      <trkpt lat="42.5507660" lon="-8.1538640">
        <ele>707.4</ele>
        <time>2019-08-18T07:09:23Z</time>
      </trkpt>
      <trkpt lat="42.5507710" lon="-8.1538120">
        <ele>708.8</ele>
        <time>2019-08-18T07:09:24Z</time>
      </trkpt>
      <trkpt lat="42.5507760" lon="-8.1537660">
        <ele>710.1</ele>
        <time>2019-08-18T07:09:25Z</time>
      </trkpt>
      <trkpt lat="42.5507830" lon="-8.1537260">
        <ele>710.6</ele>
        <time>2019-08-18T07:09:26Z</time>
      </trkpt>
      <trkpt lat="42.5507930" lon="-8.1536900">
        <ele>711.1</ele>
        <time>2019-08-18T07:09:27Z</time>
      </trkpt>
      <trkpt lat="42.5508070" lon="-8.1536610">
        <ele>711.7</ele>
        <time>2019-08-18T07:09:28Z</time>
      </trkpt>
      <trkpt lat="42.5508230" lon="-8.1536380">
        <ele>712.5</ele>
        <time>2019-08-18T07:09:29Z</time>
      </trkpt>
      <trkpt lat="42.5508390" lon="-8.1536220">
        <ele>713.1</ele>
        <time>2019-08-18T07:09:30Z</time>
      </trkpt>
      <trkpt lat="42.5508570" lon="-8.1536130">
        <ele>713.6</ele>
        <time>2019-08-18T07:09:31Z</time>
      </trkpt>
      <trkpt lat="42.5508740" lon="-8.1536090">
        <ele>713.7</ele>
        <time>2019-08-18T07:09:32Z</time>
      </trkpt>
      <trkpt lat="42.5508930" lon="-8.1536090">
        <ele>713.8</ele>
        <time>2019-08-18T07:09:33Z</time>
      </trkpt>
      <trkpt lat="42.5509110" lon="-8.1536120">
        <ele>714.0</ele>
        <time>2019-08-18T07:09:34Z</time>
      </trkpt>
      <trkpt lat="42.5509300" lon="-8.1536160">
        <ele>714.0</ele>
        <time>2019-08-18T07:09:35Z</time>
      </trkpt>
      <trkpt lat="42.5509490" lon="-8.1536210">
        <ele>714.1</ele>
        <time>2019-08-18T07:09:36Z</time>
      </trkpt>
      <trkpt lat="42.5509680" lon="-8.1536250">
        <ele>714.1</ele>
        <time>2019-08-18T07:09:37Z</time>
      </trkpt>
      <trkpt lat="42.5509870" lon="-8.1536280">
        <ele>714.1</ele>
        <time>2019-08-18T07:09:38Z</time>
      </trkpt>
      <trkpt lat="42.5510060" lon="-8.1536320">
        <ele>714.0</ele>
        <time>2019-08-18T07:09:39Z</time>
      </trkpt>
      <trkpt lat="42.5510250" lon="-8.1536350">
        <ele>713.9</ele>
        <time>2019-08-18T07:09:40Z</time>
      </trkpt>
      <trkpt lat="42.5510440" lon="-8.1536370">
        <ele>713.8</ele>
        <time>2019-08-18T07:09:41Z</time>
      </trkpt>
      <trkpt lat="42.5510640" lon="-8.1536410">
        <ele>713.8</ele>
        <time>2019-08-18T07:09:42Z</time>
      </trkpt>
      <trkpt lat="42.5510840" lon="-8.1536440">
        <ele>713.8</ele>
        <time>2019-08-18T07:09:43Z</time>
      </trkpt>
      <trkpt lat="42.5511040" lon="-8.1536480">
        <ele>713.7</ele>
        <time>2019-08-18T07:09:44Z</time>
      </trkpt>
      <trkpt lat="42.5511250" lon="-8.1536520">
        <ele>713.7</ele>
        <time>2019-08-18T07:09:45Z</time>
      </trkpt>
      <trkpt lat="42.5511460" lon="-8.1536570">
        <ele>713.7</ele>
        <time>2019-08-18T07:09:46Z</time>
      </trkpt>
      <trkpt lat="42.5511670" lon="-8.1536600">
        <ele>713.6</ele>
        <time>2019-08-18T07:09:47Z</time>
      </trkpt>
      <trkpt lat="42.5511880" lon="-8.1536630">
        <ele>713.6</ele>
        <time>2019-08-18T07:09:48Z</time>
      </trkpt>
      <trkpt lat="42.5512080" lon="-8.1536650">
        <ele>713.5</ele>
        <time>2019-08-18T07:09:49Z</time>
      </trkpt>
      <trkpt lat="42.5512290" lon="-8.1536650">
        <ele>713.6</ele>
        <time>2019-08-18T07:09:50Z</time>
      </trkpt>
      <trkpt lat="42.5512490" lon="-8.1536640">
        <ele>714.1</ele>
        <time>2019-08-18T07:09:51Z</time>
      </trkpt>
      <trkpt lat="42.5512680" lon="-8.1536600">
        <ele>714.6</ele>
        <time>2019-08-18T07:09:52Z</time>
      </trkpt>
      <trkpt lat="42.5512870" lon="-8.1536550">
        <ele>715.1</ele>
        <time>2019-08-18T07:09:53Z</time>
      </trkpt>
      <trkpt lat="42.5513060" lon="-8.1536480">
        <ele>715.4</ele>
        <time>2019-08-18T07:09:54Z</time>
      </trkpt>
      <trkpt lat="42.5513240" lon="-8.1536400">
        <ele>715.6</ele>
        <time>2019-08-18T07:09:55Z</time>
      </trkpt>
      <trkpt lat="42.5513420" lon="-8.1536320">
        <ele>715.9</ele>
        <time>2019-08-18T07:09:56Z</time>
      </trkpt>
      <trkpt lat="42.5513600" lon="-8.1536230">
        <ele>716.4</ele>
        <time>2019-08-18T07:09:57Z</time>
      </trkpt>
      <trkpt lat="42.5513790" lon="-8.1536140">
        <ele>717.0</ele>
        <time>2019-08-18T07:09:58Z</time>
      </trkpt>
      <trkpt lat="42.5513970" lon="-8.1536050">
        <ele>717.6</ele>
        <time>2019-08-18T07:09:59Z</time>
      </trkpt>
      <trkpt lat="42.5514150" lon="-8.1535970">
        <ele>718.2</ele>
        <time>2019-08-18T07:10:00Z</time>
      </trkpt>
      <trkpt lat="42.5514340" lon="-8.1535900">
        <ele>718.8</ele>
        <time>2019-08-18T07:10:01Z</time>
      </trkpt>
      <trkpt lat="42.5514520" lon="-8.1535830">
        <ele>719.4</ele>
        <time>2019-08-18T07:10:02Z</time>
      </trkpt>
      <trkpt lat="42.5514710" lon="-8.1535760">
        <ele>720.1</ele>
        <time>2019-08-18T07:10:03Z</time>
      </trkpt>
      <trkpt lat="42.5514890" lon="-8.1535700">
        <ele>720.7</ele>
        <time>2019-08-18T07:10:04Z</time>
      </trkpt>
      <trkpt lat="42.5515080" lon="-8.1535640">
        <ele>721.3</ele>
        <time>2019-08-18T07:10:05Z</time>
      </trkpt>
      <trkpt lat="42.5515260" lon="-8.1535590">
        <ele>722.0</ele>
        <time>2019-08-18T07:10:06Z</time>
      </trkpt>
      <trkpt lat="42.5515440" lon="-8.1535550">
        <ele>722.6</ele>
        <time>2019-08-18T07:10:07Z</time>
      </trkpt>
      <trkpt lat="42.5515610" lon="-8.1535510">
        <ele>723.1</ele>
        <time>2019-08-18T07:10:08Z</time>
      </trkpt>
      <trkpt lat="42.5515790" lon="-8.1535480">
        <ele>723.7</ele>
        <time>2019-08-18T07:10:09Z</time>
      </trkpt>
      <trkpt lat="42.5515960" lon="-8.1535450">
        <ele>724.3</ele>
        <time>2019-08-18T07:10:10Z</time>
      </trkpt>
      <trkpt lat="42.5516120" lon="-8.1535430">
        <ele>724.8</ele>
        <time>2019-08-18T07:10:11Z</time>
      </trkpt>
      <trkpt lat="42.5516280" lon="-8.1535410">
        <ele>725.2</ele>
        <time>2019-08-18T07:10:12Z</time>
      </trkpt>
      <trkpt lat="42.5516440" lon="-8.1535410">
        <ele>725.7</ele>
        <time>2019-08-18T07:10:13Z</time>
      </trkpt>
      <trkpt lat="42.5516600" lon="-8.1535410">
        <ele>726.1</ele>
        <time>2019-08-18T07:10:14Z</time>
      </trkpt>
      <trkpt lat="42.5516750" lon="-8.1535410">
        <ele>726.5</ele>
        <time>2019-08-18T07:10:15Z</time>
      </trkpt>
      <trkpt lat="42.5516900" lon="-8.1535420">
        <ele>726.9</ele>
        <time>2019-08-18T07:10:16Z</time>
      </trkpt>
      <trkpt lat="42.5517060" lon="-8.1535430">
        <ele>727.3</ele>
        <time>2019-08-18T07:10:17Z</time>
      </trkpt>
      <trkpt lat="42.5517220" lon="-8.1535440">
        <ele>727.6</ele>
        <time>2019-08-18T07:10:18Z</time>
      </trkpt>
      <trkpt lat="42.5517390" lon="-8.1535460">
        <ele>728.0</ele>
        <time>2019-08-18T07:10:19Z</time>
      </trkpt>
      <trkpt lat="42.5517570" lon="-8.1535480">
        <ele>728.3</ele>
        <time>2019-08-18T07:10:20Z</time>
      </trkpt>
      <trkpt lat="42.5517760" lon="-8.1535500">
        <ele>728.8</ele>
        <time>2019-08-18T07:10:21Z</time>
      </trkpt>
      <trkpt lat="42.5517960" lon="-8.1535510">
        <ele>729.4</ele>
        <time>2019-08-18T07:10:22Z</time>
      </trkpt>
      <trkpt lat="42.5518160" lon="-8.1535530">
        <ele>729.9</ele>
        <time>2019-08-18T07:10:23Z</time>
      </trkpt>
      <trkpt lat="42.5518360" lon="-8.1535560">
        <ele>730.5</ele>
        <time>2019-08-18T07:10:24Z</time>
      </trkpt>
      <trkpt lat="42.5518560" lon="-8.1535580">
        <ele>731.1</ele>
        <time>2019-08-18T07:10:25Z</time>
      </trkpt>
      <trkpt lat="42.5518740" lon="-8.1535610">
        <ele>731.4</ele>
        <time>2019-08-18T07:10:26Z</time>
      </trkpt>
      <trkpt lat="42.5518920" lon="-8.1535630">
        <ele>731.8</ele>
        <time>2019-08-18T07:10:27Z</time>
      </trkpt>
      <trkpt lat="42.5519080" lon="-8.1535660">
        <ele>732.1</ele>
        <time>2019-08-18T07:10:28Z</time>
      </trkpt>
      <trkpt lat="42.5519230" lon="-8.1535700">
        <ele>732.4</ele>
        <time>2019-08-18T07:10:29Z</time>
      </trkpt>
      <trkpt lat="42.5519380" lon="-8.1535740">
        <ele>732.8</ele>
        <time>2019-08-18T07:10:30Z</time>
      </trkpt>
      <trkpt lat="42.5519510" lon="-8.1535790">
        <ele>733.3</ele>
        <time>2019-08-18T07:10:31Z</time>
      </trkpt>
      <trkpt lat="42.5519650" lon="-8.1535850">
        <ele>733.7</ele>
        <time>2019-08-18T07:10:32Z</time>
      </trkpt>
      <trkpt lat="42.5519780" lon="-8.1535910">
        <ele>734.2</ele>
        <time>2019-08-18T07:10:33Z</time>
      </trkpt>
      <trkpt lat="42.5519890" lon="-8.1535980">
        <ele>734.6</ele>
        <time>2019-08-18T07:10:34Z</time>
      </trkpt>
      <trkpt lat="42.5519970" lon="-8.1536060">
        <ele>734.9</ele>
        <time>2019-08-18T07:10:35Z</time>
      </trkpt>
      <trkpt lat="42.5520040" lon="-8.1536210">
        <ele>735.1</ele>
        <time>2019-08-18T07:10:36Z</time>
      </trkpt>
      <trkpt lat="42.5520090" lon="-8.1536440">
        <ele>735.0</ele>
        <time>2019-08-18T07:10:37Z</time>
      </trkpt>
      <trkpt lat="42.5520140" lon="-8.1536610">
        <ele>734.9</ele>
        <time>2019-08-18T07:10:51Z</time>
      </trkpt>
      <trkpt lat="42.5520200" lon="-8.1536780">
        <ele>734.8</ele>
        <time>2019-08-18T07:10:52Z</time>
      </trkpt>
      <trkpt lat="42.5520280" lon="-8.1536950">
        <ele>734.7</ele>
        <time>2019-08-18T07:10:53Z</time>
      </trkpt>
      <trkpt lat="42.5520350" lon="-8.1537130">
        <ele>734.9</ele>
        <time>2019-08-18T07:10:54Z</time>
      </trkpt>
      <trkpt lat="42.5520430" lon="-8.1537390">
        <ele>735.1</ele>
        <time>2019-08-18T07:10:55Z</time>
      </trkpt>
      <trkpt lat="42.5520520" lon="-8.1537720">
        <ele>735.4</ele>
        <time>2019-08-18T07:10:56Z</time>
      </trkpt>
      <trkpt lat="42.5520590" lon="-8.1538050">
        <ele>735.1</ele>
        <time>2019-08-18T07:10:57Z</time>
      </trkpt>
      <trkpt lat="42.5520640" lon="-8.1538350">
        <ele>734.6</ele>
        <time>2019-08-18T07:10:58Z</time>
      </trkpt>
      <trkpt lat="42.5520680" lon="-8.1538600">
        <ele>734.2</ele>
        <time>2019-08-18T07:10:59Z</time>
      </trkpt>
      <trkpt lat="42.5520710" lon="-8.1538810">
        <ele>733.8</ele>
        <time>2019-08-18T07:11:00Z</time>
      </trkpt>
      <trkpt lat="42.5520760" lon="-8.1539040">
        <ele>733.4</ele>
        <time>2019-08-18T07:11:01Z</time>
      </trkpt>
      <trkpt lat="42.5520830" lon="-8.1539290">
        <ele>732.9</ele>
        <time>2019-08-18T07:11:02Z</time>
      </trkpt>
      <trkpt lat="42.5520900" lon="-8.1539530">
        <ele>732.5</ele>
        <time>2019-08-18T07:11:03Z</time>
      </trkpt>
      <trkpt lat="42.5520990" lon="-8.1539770">
        <ele>732.0</ele>
        <time>2019-08-18T07:11:04Z</time>
      </trkpt>
      <trkpt lat="42.5521080" lon="-8.1540010">
        <ele>731.7</ele>
        <time>2019-08-18T07:11:05Z</time>
      </trkpt>
      <trkpt lat="42.5521180" lon="-8.1540250">
        <ele>731.6</ele>
        <time>2019-08-18T07:11:06Z</time>
      </trkpt>
      <trkpt lat="42.5521290" lon="-8.1540490">
        <ele>731.4</ele>
        <time>2019-08-18T07:11:07Z</time>
      </trkpt>
      <trkpt lat="42.5521400" lon="-8.1540720">
        <ele>731.2</ele>
        <time>2019-08-18T07:11:08Z</time>
      </trkpt>
      <trkpt lat="42.5521520" lon="-8.1540940">
        <ele>731.1</ele>
        <time>2019-08-18T07:11:09Z</time>
      </trkpt>
      <trkpt lat="42.5521640" lon="-8.1541160">
        <ele>730.9</ele>
        <time>2019-08-18T07:11:10Z</time>
      </trkpt>
      <trkpt lat="42.5521760" lon="-8.1541380">
        <ele>730.7</ele>
        <time>2019-08-18T07:11:11Z</time>
      </trkpt>
      <trkpt lat="42.5521890" lon="-8.1541580">
        <ele>730.6</ele>
        <time>2019-08-18T07:11:12Z</time>
      </trkpt>
      <trkpt lat="42.5522020" lon="-8.1541780">
        <ele>730.4</ele>
        <time>2019-08-18T07:11:13Z</time>
      </trkpt>
      <trkpt lat="42.5522150" lon="-8.1541970">
        <ele>730.3</ele>
        <time>2019-08-18T07:11:14Z</time>
      </trkpt>
      <trkpt lat="42.5522280" lon="-8.1542160">
        <ele>730.2</ele>
        <time>2019-08-18T07:11:15Z</time>
      </trkpt>
      <trkpt lat="42.5522420" lon="-8.1542340">
        <ele>730.2</ele>
        <time>2019-08-18T07:11:16Z</time>
      </trkpt>
      <trkpt lat="42.5522560" lon="-8.1542520">
        <ele>730.3</ele>
        <time>2019-08-18T07:11:17Z</time>
      </trkpt>
      <trkpt lat="42.5522700" lon="-8.1542690">
        <ele>730.4</ele>
        <time>2019-08-18T07:11:18Z</time>
      </trkpt>
      <trkpt lat="42.5522850" lon="-8.1542850">
        <ele>730.5</ele>
        <time>2019-08-18T07:11:19Z</time>
      </trkpt>
      <trkpt lat="42.5523000" lon="-8.1543010">
        <ele>730.6</ele>
        <time>2019-08-18T07:11:20Z</time>
      </trkpt>
      <trkpt lat="42.5523160" lon="-8.1543160">
        <ele>730.7</ele>
        <time>2019-08-18T07:11:21Z</time>
      </trkpt>
      <trkpt lat="42.5523310" lon="-8.1543310">
        <ele>730.8</ele>
        <time>2019-08-18T07:11:22Z</time>
      </trkpt>
      <trkpt lat="42.5523470" lon="-8.1543450">
        <ele>730.9</ele>
        <time>2019-08-18T07:11:23Z</time>
      </trkpt>
      <trkpt lat="42.5523640" lon="-8.1543590">
        <ele>731.0</ele>
        <time>2019-08-18T07:11:24Z</time>
      </trkpt>
      <trkpt lat="42.5523800" lon="-8.1543730">
        <ele>731.0</ele>
        <time>2019-08-18T07:11:25Z</time>
      </trkpt>
      <trkpt lat="42.5523970" lon="-8.1543860">
        <ele>731.1</ele>
        <time>2019-08-18T07:11:26Z</time>
      </trkpt>
      <trkpt lat="42.5524130" lon="-8.1543990">
        <ele>731.1</ele>
        <time>2019-08-18T07:11:27Z</time>
      </trkpt>
      <trkpt lat="42.5524300" lon="-8.1544130">
        <ele>731.3</ele>
        <time>2019-08-18T07:11:28Z</time>
      </trkpt>
      <trkpt lat="42.5524450" lon="-8.1544280">
        <ele>731.4</ele>
        <time>2019-08-18T07:11:29Z</time>
      </trkpt>
      <trkpt lat="42.5524600" lon="-8.1544430">
        <ele>731.5</ele>
        <time>2019-08-18T07:11:30Z</time>
      </trkpt>
      <trkpt lat="42.5524740" lon="-8.1544600">
        <ele>731.7</ele>
        <time>2019-08-18T07:11:31Z</time>
      </trkpt>
      <trkpt lat="42.5524870" lon="-8.1544780">
        <ele>731.8</ele>
        <time>2019-08-18T07:11:32Z</time>
      </trkpt>
      <trkpt lat="42.5524990" lon="-8.1544980">
        <ele>731.8</ele>
        <time>2019-08-18T07:11:33Z</time>
      </trkpt>
      <trkpt lat="42.5525100" lon="-8.1545190">
        <ele>731.8</ele>
        <time>2019-08-18T07:11:34Z</time>
      </trkpt>
      <trkpt lat="42.5525220" lon="-8.1545400">
        <ele>731.8</ele>
        <time>2019-08-18T07:11:35Z</time>
      </trkpt>
      <trkpt lat="42.5525360" lon="-8.1545590">
        <ele>731.8</ele>
        <time>2019-08-18T07:11:36Z</time>
      </trkpt>
      <trkpt lat="42.5525530" lon="-8.1545760">
        <ele>731.8</ele>
        <time>2019-08-18T07:11:37Z</time>
      </trkpt>
      <trkpt lat="42.5525720" lon="-8.1545930">
        <ele>731.8</ele>
        <time>2019-08-18T07:11:38Z</time>
      </trkpt>
      <trkpt lat="42.5525910" lon="-8.1546110">
        <ele>731.8</ele>
        <time>2019-08-18T07:11:39Z</time>
      </trkpt>
      <trkpt lat="42.5526090" lon="-8.1546310">
        <ele>731.8</ele>
        <time>2019-08-18T07:11:40Z</time>
      </trkpt>
      <trkpt lat="42.5526260" lon="-8.1546520">
        <ele>732.0</ele>
        <time>2019-08-18T07:11:41Z</time>
      </trkpt>
      <trkpt lat="42.5526420" lon="-8.1546740">
        <ele>732.1</ele>
        <time>2019-08-18T07:11:42Z</time>
      </trkpt>
      <trkpt lat="42.5526580" lon="-8.1546970">
        <ele>732.2</ele>
        <time>2019-08-18T07:11:43Z</time>
      </trkpt>
      <trkpt lat="42.5526740" lon="-8.1547180">
        <ele>732.3</ele>
        <time>2019-08-18T07:11:44Z</time>
      </trkpt>
      <trkpt lat="42.5526900" lon="-8.1547380">
        <ele>732.4</ele>
        <time>2019-08-18T07:11:45Z</time>
      </trkpt>
      <trkpt lat="42.5527060" lon="-8.1547560">
        <ele>732.5</ele>
        <time>2019-08-18T07:11:46Z</time>
      </trkpt>
      <trkpt lat="42.5527230" lon="-8.1547710">
        <ele>732.6</ele>
        <time>2019-08-18T07:11:47Z</time>
      </trkpt>
      <trkpt lat="42.5527390" lon="-8.1547840">
        <ele>732.6</ele>
        <time>2019-08-18T07:11:48Z</time>
      </trkpt>
      <trkpt lat="42.5527570" lon="-8.1547950">
        <ele>732.5</ele>
        <time>2019-08-18T07:11:49Z</time>
      </trkpt>
      <trkpt lat="42.5527740" lon="-8.1548050">
        <ele>732.5</ele>
        <time>2019-08-18T07:11:50Z</time>
      </trkpt>
      <trkpt lat="42.5527910" lon="-8.1548160">
        <ele>732.4</ele>
        <time>2019-08-18T07:11:51Z</time>
      </trkpt>
      <trkpt lat="42.5528080" lon="-8.1548260">
        <ele>732.4</ele>
        <time>2019-08-18T07:11:52Z</time>
      </trkpt>
      <trkpt lat="42.5528250" lon="-8.1548380">
        <ele>732.4</ele>
        <time>2019-08-18T07:11:53Z</time>
      </trkpt>
      <trkpt lat="42.5528420" lon="-8.1548520">
        <ele>732.3</ele>
        <time>2019-08-18T07:11:54Z</time>
      </trkpt>
      <trkpt lat="42.5528580" lon="-8.1548680">
        <ele>732.3</ele>
        <time>2019-08-18T07:11:55Z</time>
      </trkpt>
      <trkpt lat="42.5528740" lon="-8.1548850">
        <ele>732.2</ele>
        <time>2019-08-18T07:11:56Z</time>
      </trkpt>
      <trkpt lat="42.5528900" lon="-8.1549020">
        <ele>732.3</ele>
        <time>2019-08-18T07:11:57Z</time>
      </trkpt>
      <trkpt lat="42.5529070" lon="-8.1549190">
        <ele>732.4</ele>
        <time>2019-08-18T07:11:58Z</time>
      </trkpt>
      <trkpt lat="42.5529230" lon="-8.1549360">
        <ele>732.4</ele>
        <time>2019-08-18T07:11:59Z</time>
      </trkpt>
      <trkpt lat="42.5529400" lon="-8.1549520">
        <ele>732.5</ele>
        <time>2019-08-18T07:12:00Z</time>
      </trkpt>
      <trkpt lat="42.5529570" lon="-8.1549660">
        <ele>732.6</ele>
        <time>2019-08-18T07:12:01Z</time>
      </trkpt>
      <trkpt lat="42.5529740" lon="-8.1549780">
        <ele>732.6</ele>
        <time>2019-08-18T07:12:02Z</time>
      </trkpt>
      <trkpt lat="42.5529920" lon="-8.1549890">
        <ele>732.7</ele>
        <time>2019-08-18T07:12:03Z</time>
      </trkpt>
      <trkpt lat="42.5530100" lon="-8.1549990">
        <ele>732.8</ele>
        <time>2019-08-18T07:12:04Z</time>
      </trkpt>
      <trkpt lat="42.5530290" lon="-8.1550070">
        <ele>732.9</ele>
        <time>2019-08-18T07:12:05Z</time>
      </trkpt>
      <trkpt lat="42.5530470" lon="-8.1550160">
        <ele>733.1</ele>
        <time>2019-08-18T07:12:06Z</time>
      </trkpt>
      <trkpt lat="42.5530660" lon="-8.1550240">
        <ele>733.3</ele>
        <time>2019-08-18T07:12:07Z</time>
      </trkpt>
      <trkpt lat="42.5530860" lon="-8.1550330">
        <ele>733.5</ele>
        <time>2019-08-18T07:12:08Z</time>
      </trkpt>
      <trkpt lat="42.5531050" lon="-8.1550420">
        <ele>733.7</ele>
        <time>2019-08-18T07:12:09Z</time>
      </trkpt>
      <trkpt lat="42.5531240" lon="-8.1550530">
        <ele>733.9</ele>
        <time>2019-08-18T07:12:10Z</time>
      </trkpt>
      <trkpt lat="42.5531430" lon="-8.1550640">
        <ele>734.1</ele>
        <time>2019-08-18T07:12:11Z</time>
      </trkpt>
      <trkpt lat="42.5531630" lon="-8.1550750">
        <ele>734.4</ele>
        <time>2019-08-18T07:12:12Z</time>
      </trkpt>
      <trkpt lat="42.5531820" lon="-8.1550870">
        <ele>734.6</ele>
        <time>2019-08-18T07:12:13Z</time>
      </trkpt>
      <trkpt lat="42.5532020" lon="-8.1551000">
        <ele>734.8</ele>
        <time>2019-08-18T07:12:14Z</time>
      </trkpt>
      <trkpt lat="42.5532220" lon="-8.1551120">
        <ele>735.1</ele>
        <time>2019-08-18T07:12:15Z</time>
      </trkpt>
      <trkpt lat="42.5532420" lon="-8.1551250">
        <ele>735.3</ele>
        <time>2019-08-18T07:12:16Z</time>
      </trkpt>
      <trkpt lat="42.5532630" lon="-8.1551380">
        <ele>735.4</ele>
        <time>2019-08-18T07:12:17Z</time>
      </trkpt>
      <trkpt lat="42.5532840" lon="-8.1551510">
        <ele>735.5</ele>
        <time>2019-08-18T07:12:18Z</time>
      </trkpt>
      <trkpt lat="42.5533050" lon="-8.1551650">
        <ele>735.6</ele>
        <time>2019-08-18T07:12:19Z</time>
      </trkpt>
      <trkpt lat="42.5533260" lon="-8.1551780">
        <ele>735.7</ele>
        <time>2019-08-18T07:12:20Z</time>
      </trkpt>
      <trkpt lat="42.5533470" lon="-8.1551900">
        <ele>736.0</ele>
        <time>2019-08-18T07:12:21Z</time>
      </trkpt>
      <trkpt lat="42.5533690" lon="-8.1552030">
        <ele>736.3</ele>
        <time>2019-08-18T07:12:22Z</time>
      </trkpt>
      <trkpt lat="42.5533920" lon="-8.1552150">
        <ele>736.6</ele>
        <time>2019-08-18T07:12:23Z</time>
      </trkpt>
      <trkpt lat="42.5534140" lon="-8.1552270">
        <ele>736.8</ele>
        <time>2019-08-18T07:12:24Z</time>
      </trkpt>
      <trkpt lat="42.5534370" lon="-8.1552390">
        <ele>737.0</ele>
        <time>2019-08-18T07:12:25Z</time>
      </trkpt>
      <trkpt lat="42.5534610" lon="-8.1552500">
        <ele>737.2</ele>
        <time>2019-08-18T07:12:26Z</time>
      </trkpt>
      <trkpt lat="42.5534840" lon="-8.1552620">
        <ele>737.4</ele>
        <time>2019-08-18T07:12:27Z</time>
      </trkpt>
      <trkpt lat="42.5535080" lon="-8.1552740">
        <ele>737.8</ele>
        <time>2019-08-18T07:12:28Z</time>
      </trkpt>
      <trkpt lat="42.5535330" lon="-8.1552860">
        <ele>738.1</ele>
        <time>2019-08-18T07:12:29Z</time>
      </trkpt>
      <trkpt lat="42.5535570" lon="-8.1552980">
        <ele>738.5</ele>
        <time>2019-08-18T07:12:30Z</time>
      </trkpt>
      <trkpt lat="42.5535820" lon="-8.1553110">
        <ele>738.8</ele>
        <time>2019-08-18T07:12:31Z</time>
      </trkpt>
      <trkpt lat="42.5536080" lon="-8.1553240">
        <ele>739.1</ele>
        <time>2019-08-18T07:12:32Z</time>
      </trkpt>
      <trkpt lat="42.5536330" lon="-8.1553380">
        <ele>739.4</ele>
        <time>2019-08-18T07:12:33Z</time>
      </trkpt>
      <trkpt lat="42.5536580" lon="-8.1553510">
        <ele>739.9</ele>
        <time>2019-08-18T07:12:34Z</time>
      </trkpt>
      <trkpt lat="42.5536830" lon="-8.1553650">
        <ele>740.5</ele>
        <time>2019-08-18T07:12:35Z</time>
      </trkpt>
      <trkpt lat="42.5537070" lon="-8.1553790">
        <ele>741.0</ele>
        <time>2019-08-18T07:12:36Z</time>
      </trkpt>
      <trkpt lat="42.5537320" lon="-8.1553930">
        <ele>741.3</ele>
        <time>2019-08-18T07:12:37Z</time>
      </trkpt>
      <trkpt lat="42.5537550" lon="-8.1554060">
        <ele>741.6</ele>
        <time>2019-08-18T07:12:38Z</time>
      </trkpt>
      <trkpt lat="42.5537780" lon="-8.1554200">
        <ele>741.9</ele>
        <time>2019-08-18T07:12:39Z</time>
      </trkpt>
      <trkpt lat="42.5538010" lon="-8.1554330">
        <ele>742.4</ele>
        <time>2019-08-18T07:12:40Z</time>
      </trkpt>
      <trkpt lat="42.5538240" lon="-8.1554470">
        <ele>742.9</ele>
        <time>2019-08-18T07:12:41Z</time>
      </trkpt>
      <trkpt lat="42.5538460" lon="-8.1554610">
        <ele>743.4</ele>
        <time>2019-08-18T07:12:42Z</time>
      </trkpt>
      <trkpt lat="42.5538700" lon="-8.1554740">
        <ele>744.0</ele>
        <time>2019-08-18T07:12:43Z</time>
      </trkpt>
      <trkpt lat="42.5538930" lon="-8.1554880">
        <ele>744.4</ele>
        <time>2019-08-18T07:12:44Z</time>
      </trkpt>
      <trkpt lat="42.5539180" lon="-8.1555020">
        <ele>744.8</ele>
        <time>2019-08-18T07:12:45Z</time>
      </trkpt>
      <trkpt lat="42.5539420" lon="-8.1555170">
        <ele>745.2</ele>
        <time>2019-08-18T07:12:46Z</time>
      </trkpt>
      <trkpt lat="42.5539680" lon="-8.1555310">
        <ele>745.7</ele>
        <time>2019-08-18T07:12:47Z</time>
      </trkpt>
      <trkpt lat="42.5539940" lon="-8.1555470">
        <ele>746.1</ele>
        <time>2019-08-18T07:12:48Z</time>
      </trkpt>
      <trkpt lat="42.5540200" lon="-8.1555630">
        <ele>746.6</ele>
        <time>2019-08-18T07:12:49Z</time>
      </trkpt>
      <trkpt lat="42.5540470" lon="-8.1555800">
        <ele>747.3</ele>
        <time>2019-08-18T07:12:50Z</time>
      </trkpt>
      <trkpt lat="42.5540740" lon="-8.1555980">
        <ele>748.0</ele>
        <time>2019-08-18T07:12:51Z</time>
      </trkpt>
      <trkpt lat="42.5541010" lon="-8.1556180">
        <ele>748.6</ele>
        <time>2019-08-18T07:12:52Z</time>
      </trkpt>
      <trkpt lat="42.5541290" lon="-8.1556380">
        <ele>749.0</ele>
        <time>2019-08-18T07:12:53Z</time>
      </trkpt>
      <trkpt lat="42.5541570" lon="-8.1556600">
        <ele>749.5</ele>
        <time>2019-08-18T07:12:54Z</time>
      </trkpt>
      <trkpt lat="42.5541860" lon="-8.1556820">
        <ele>750.1</ele>
        <time>2019-08-18T07:12:55Z</time>
      </trkpt>
      <trkpt lat="42.5542170" lon="-8.1557050">
        <ele>750.7</ele>
        <time>2019-08-18T07:12:56Z</time>
      </trkpt>
      <trkpt lat="42.5542480" lon="-8.1557290">
        <ele>751.3</ele>
        <time>2019-08-18T07:12:57Z</time>
      </trkpt>
      <trkpt lat="42.5542810" lon="-8.1557530">
        <ele>751.8</ele>
        <time>2019-08-18T07:12:58Z</time>
      </trkpt>
      <trkpt lat="42.5543150" lon="-8.1557770">
        <ele>752.2</ele>
        <time>2019-08-18T07:12:59Z</time>
      </trkpt>
      <trkpt lat="42.5543510" lon="-8.1558010">
        <ele>752.6</ele>
        <time>2019-08-18T07:13:00Z</time>
      </trkpt>
      <trkpt lat="42.5543880" lon="-8.1558250">
        <ele>753.0</ele>
        <time>2019-08-18T07:13:01Z</time>
      </trkpt>
      <trkpt lat="42.5544260" lon="-8.1558500">
        <ele>753.1</ele>
        <time>2019-08-18T07:13:02Z</time>
      </trkpt>
      <trkpt lat="42.5544640" lon="-8.1558750">
        <ele>753.3</ele>
        <time>2019-08-18T07:13:03Z</time>
      </trkpt>
      <trkpt lat="42.5545010" lon="-8.1559010">
        <ele>753.9</ele>
        <time>2019-08-18T07:13:04Z</time>
      </trkpt>
      <trkpt lat="42.5545380" lon="-8.1559290">
        <ele>754.5</ele>
        <time>2019-08-18T07:13:05Z</time>
      </trkpt>
      <trkpt lat="42.5545740" lon="-8.1559570">
        <ele>754.5</ele>
        <time>2019-08-18T07:13:06Z</time>
      </trkpt>
      <trkpt lat="42.5546080" lon="-8.1559860">
        <ele>754.5</ele>
        <time>2019-08-18T07:13:07Z</time>
      </trkpt>
      <trkpt lat="42.5546390" lon="-8.1560160">
        <ele>754.6</ele>
        <time>2019-08-18T07:13:08Z</time>
      </trkpt>
      <trkpt lat="42.5546700" lon="-8.1560460">
        <ele>754.8</ele>
        <time>2019-08-18T07:13:09Z</time>
      </trkpt>
      <trkpt lat="42.5546980" lon="-8.1560760">
        <ele>755.2</ele>
        <time>2019-08-18T07:13:10Z</time>
      </trkpt>
      <trkpt lat="42.5547260" lon="-8.1561060">
        <ele>755.5</ele>
        <time>2019-08-18T07:13:11Z</time>
      </trkpt>
      <trkpt lat="42.5547510" lon="-8.1561340">
        <ele>755.7</ele>
        <time>2019-08-18T07:13:12Z</time>
      </trkpt>
      <trkpt lat="42.5547760" lon="-8.1561610">
        <ele>755.7</ele>
        <time>2019-08-18T07:13:13Z</time>
      </trkpt>
      <trkpt lat="42.5547990" lon="-8.1561860">
        <ele>755.7</ele>
        <time>2019-08-18T07:13:14Z</time>
      </trkpt>
      <trkpt lat="42.5548210" lon="-8.1562080">
        <ele>755.8</ele>
        <time>2019-08-18T07:13:15Z</time>
      </trkpt>
      <trkpt lat="42.5548420" lon="-8.1562280">
        <ele>755.9</ele>
        <time>2019-08-18T07:13:16Z</time>
      </trkpt>
      <trkpt lat="42.5548630" lon="-8.1562470">
        <ele>756.0</ele>
        <time>2019-08-18T07:13:17Z</time>
      </trkpt>
      <trkpt lat="42.5548820" lon="-8.1562660">
        <ele>756.0</ele>
        <time>2019-08-18T07:13:18Z</time>
      </trkpt>
      <trkpt lat="42.5549010" lon="-8.1562840">
        <ele>756.0</ele>
        <time>2019-08-18T07:13:19Z</time>
      </trkpt>
      <trkpt lat="42.5549190" lon="-8.1563030">
        <ele>756.0</ele>
        <time>2019-08-18T07:13:20Z</time>
      </trkpt>
      <trkpt lat="42.5549370" lon="-8.1563230">
        <ele>755.9</ele>
        <time>2019-08-18T07:13:21Z</time>
      </trkpt>
      <trkpt lat="42.5549540" lon="-8.1563450">
        <ele>756.0</ele>
        <time>2019-08-18T07:13:22Z</time>
      </trkpt>
      <trkpt lat="42.5549710" lon="-8.1563690">
        <ele>756.1</ele>
        <time>2019-08-18T07:13:23Z</time>
      </trkpt>
      <trkpt lat="42.5549870" lon="-8.1563940">
        <ele>756.2</ele>
        <time>2019-08-18T07:13:24Z</time>
      </trkpt>
      <trkpt lat="42.5550030" lon="-8.1564210">
        <ele>756.2</ele>
        <time>2019-08-18T07:13:25Z</time>
      </trkpt>
      <trkpt lat="42.5550170" lon="-8.1564480">
        <ele>756.2</ele>
        <time>2019-08-18T07:13:26Z</time>
      </trkpt>
      <trkpt lat="42.5550310" lon="-8.1564770">
        <ele>756.2</ele>
        <time>2019-08-18T07:13:27Z</time>
      </trkpt>
      <trkpt lat="42.5550440" lon="-8.1565070">
        <ele>756.3</ele>
        <time>2019-08-18T07:13:28Z</time>
      </trkpt>
      <trkpt lat="42.5550560" lon="-8.1565370">
        <ele>756.4</ele>
        <time>2019-08-18T07:13:29Z</time>
      </trkpt>
      <trkpt lat="42.5550660" lon="-8.1565680">
        <ele>756.4</ele>
        <time>2019-08-18T07:13:30Z</time>
      </trkpt>
      <trkpt lat="42.5550760" lon="-8.1565990">
        <ele>756.6</ele>
        <time>2019-08-18T07:13:31Z</time>
      </trkpt>
      <trkpt lat="42.5550840" lon="-8.1566300">
        <ele>756.8</ele>
        <time>2019-08-18T07:13:32Z</time>
      </trkpt>
      <trkpt lat="42.5550910" lon="-8.1566610">
        <ele>757.0</ele>
        <time>2019-08-18T07:13:33Z</time>
      </trkpt>
      <trkpt lat="42.5550960" lon="-8.1566910">
        <ele>757.2</ele>
        <time>2019-08-18T07:13:34Z</time>
      </trkpt>
      <trkpt lat="42.5551000" lon="-8.1567210">
        <ele>757.3</ele>
        <time>2019-08-18T07:13:35Z</time>
      </trkpt>
      <trkpt lat="42.5551030" lon="-8.1567500">
        <ele>757.4</ele>
        <time>2019-08-18T07:13:36Z</time>
      </trkpt>
      <trkpt lat="42.5551050" lon="-8.1567790">
        <ele>757.5</ele>
        <time>2019-08-18T07:13:37Z</time>
      </trkpt>
      <trkpt lat="42.5551060" lon="-8.1568060">
        <ele>757.6</ele>
        <time>2019-08-18T07:13:38Z</time>
      </trkpt>
      <trkpt lat="42.5551050" lon="-8.1568320">
        <ele>757.8</ele>
        <time>2019-08-18T07:13:39Z</time>
      </trkpt>
      <trkpt lat="42.5551040" lon="-8.1568570">
        <ele>757.9</ele>
        <time>2019-08-18T07:13:40Z</time>
      </trkpt>
      <trkpt lat="42.5551020" lon="-8.1568820">
        <ele>758.0</ele>
        <time>2019-08-18T07:13:41Z</time>
      </trkpt>
      <trkpt lat="42.5551000" lon="-8.1569060">
        <ele>758.1</ele>
        <time>2019-08-18T07:13:42Z</time>
      </trkpt>
      <trkpt lat="42.5550970" lon="-8.1569290">
        <ele>758.3</ele>
        <time>2019-08-18T07:13:43Z</time>
      </trkpt>
      <trkpt lat="42.5550940" lon="-8.1569510">
        <ele>758.5</ele>
        <time>2019-08-18T07:13:44Z</time>
      </trkpt>
      <trkpt lat="42.5550910" lon="-8.1569720">
        <ele>758.7</ele>
        <time>2019-08-18T07:13:45Z</time>
      </trkpt>
      <trkpt lat="42.5550880" lon="-8.1569940">
        <ele>758.9</ele>
        <time>2019-08-18T07:13:46Z</time>
      </trkpt>
      <trkpt lat="42.5550850" lon="-8.1570150">
        <ele>759.1</ele>
        <time>2019-08-18T07:13:47Z</time>
      </trkpt>
      <trkpt lat="42.5550820" lon="-8.1570360">
        <ele>759.4</ele>
        <time>2019-08-18T07:13:48Z</time>
      </trkpt>
      <trkpt lat="42.5550780" lon="-8.1570580">
        <ele>759.6</ele>
        <time>2019-08-18T07:13:49Z</time>
      </trkpt>
      <trkpt lat="42.5550750" lon="-8.1570800">
        <ele>759.9</ele>
        <time>2019-08-18T07:13:50Z</time>
      </trkpt>
      <trkpt lat="42.5550710" lon="-8.1571030">
        <ele>760.1</ele>
        <time>2019-08-18T07:13:51Z</time>
      </trkpt>
      <trkpt lat="42.5550670" lon="-8.1571270">
        <ele>760.4</ele>
        <time>2019-08-18T07:13:52Z</time>
      </trkpt>
      <trkpt lat="42.5550630" lon="-8.1571510">
        <ele>760.6</ele>
        <time>2019-08-18T07:13:53Z</time>
      </trkpt>
      <trkpt lat="42.5550590" lon="-8.1571760">
        <ele>760.8</ele>
        <time>2019-08-18T07:13:54Z</time>
      </trkpt>
      <trkpt lat="42.5550550" lon="-8.1572000">
        <ele>761.0</ele>
        <time>2019-08-18T07:13:55Z</time>
      </trkpt>
      <trkpt lat="42.5550500" lon="-8.1572250">
        <ele>761.1</ele>
        <time>2019-08-18T07:13:56Z</time>
      </trkpt>
      <trkpt lat="42.5550440" lon="-8.1572500">
        <ele>761.3</ele>
        <time>2019-08-18T07:13:57Z</time>
      </trkpt>
      <trkpt lat="42.5550390" lon="-8.1572740">
        <ele>761.5</ele>
        <time>2019-08-18T07:13:58Z</time>
      </trkpt>
      <trkpt lat="42.5550330" lon="-8.1572980">
        <ele>761.6</ele>
        <time>2019-08-18T07:13:59Z</time>
      </trkpt>
      <trkpt lat="42.5550260" lon="-8.1573210">
        <ele>761.8</ele>
        <time>2019-08-18T07:14:00Z</time>
      </trkpt>
      <trkpt lat="42.5550200" lon="-8.1573440">
        <ele>761.9</ele>
        <time>2019-08-18T07:14:01Z</time>
      </trkpt>
      <trkpt lat="42.5550140" lon="-8.1573670">
        <ele>762.1</ele>
        <time>2019-08-18T07:14:02Z</time>
      </trkpt>
      <trkpt lat="42.5550080" lon="-8.1573910">
        <ele>762.1</ele>
        <time>2019-08-18T07:14:03Z</time>
      </trkpt>
      <trkpt lat="42.5550030" lon="-8.1574140">
        <ele>762.2</ele>
        <time>2019-08-18T07:14:04Z</time>
      </trkpt>
      <trkpt lat="42.5549990" lon="-8.1574380">
        <ele>762.2</ele>
        <time>2019-08-18T07:14:05Z</time>
      </trkpt>
      <trkpt lat="42.5549960" lon="-8.1574620">
        <ele>762.3</ele>
        <time>2019-08-18T07:14:06Z</time>
      </trkpt>
      <trkpt lat="42.5549950" lon="-8.1574860">
        <ele>762.4</ele>
        <time>2019-08-18T07:14:07Z</time>
      </trkpt>
      <trkpt lat="42.5549940" lon="-8.1575110">
        <ele>762.5</ele>
        <time>2019-08-18T07:14:08Z</time>
      </trkpt>
      <trkpt lat="42.5549930" lon="-8.1575350">
        <ele>762.6</ele>
        <time>2019-08-18T07:14:09Z</time>
      </trkpt>
      <trkpt lat="42.5549930" lon="-8.1575600">
        <ele>762.7</ele>
        <time>2019-08-18T07:14:10Z</time>
      </trkpt>
      <trkpt lat="42.5549920" lon="-8.1575840">
        <ele>762.8</ele>
        <time>2019-08-18T07:14:11Z</time>
      </trkpt>
      <trkpt lat="42.5549920" lon="-8.1576070">
        <ele>762.7</ele>
        <time>2019-08-18T07:14:12Z</time>
      </trkpt>
      <trkpt lat="42.5549910" lon="-8.1576300">
        <ele>762.6</ele>
        <time>2019-08-18T07:14:13Z</time>
      </trkpt>
      <trkpt lat="42.5549900" lon="-8.1576520">
        <ele>762.6</ele>
        <time>2019-08-18T07:14:14Z</time>
      </trkpt>
      <trkpt lat="42.5549880" lon="-8.1576740">
        <ele>762.5</ele>
        <time>2019-08-18T07:14:15Z</time>
      </trkpt>
      <trkpt lat="42.5549860" lon="-8.1576950">
        <ele>762.5</ele>
        <time>2019-08-18T07:14:16Z</time>
      </trkpt>
      <trkpt lat="42.5549840" lon="-8.1577170">
        <ele>762.5</ele>
        <time>2019-08-18T07:14:17Z</time>
      </trkpt>
      <trkpt lat="42.5549820" lon="-8.1577380">
        <ele>762.5</ele>
        <time>2019-08-18T07:14:18Z</time>
      </trkpt>
      <trkpt lat="42.5549790" lon="-8.1577590">
        <ele>762.5</ele>
        <time>2019-08-18T07:14:19Z</time>
      </trkpt>
      <trkpt lat="42.5549770" lon="-8.1577800">
        <ele>762.5</ele>
        <time>2019-08-18T07:14:20Z</time>
      </trkpt>
      <trkpt lat="42.5549740" lon="-8.1578010">
        <ele>762.5</ele>
        <time>2019-08-18T07:14:21Z</time>
      </trkpt>
      <trkpt lat="42.5549720" lon="-8.1578220">
        <ele>762.5</ele>
        <time>2019-08-18T07:14:22Z</time>
      </trkpt>
      <trkpt lat="42.5549700" lon="-8.1578440">
        <ele>762.5</ele>
        <time>2019-08-18T07:14:23Z</time>
      </trkpt>
      <trkpt lat="42.5549680" lon="-8.1578650">
        <ele>762.4</ele>
        <time>2019-08-18T07:14:24Z</time>
      </trkpt>
      <trkpt lat="42.5549670" lon="-8.1578870">
        <ele>762.4</ele>
        <time>2019-08-18T07:14:25Z</time>
      </trkpt>
      <trkpt lat="42.5549670" lon="-8.1579080">
        <ele>762.4</ele>
        <time>2019-08-18T07:14:26Z</time>
      </trkpt>
      <trkpt lat="42.5549680" lon="-8.1579300">
        <ele>762.4</ele>
        <time>2019-08-18T07:14:27Z</time>
      </trkpt>
      <trkpt lat="42.5549690" lon="-8.1579520">
        <ele>762.3</ele>
        <time>2019-08-18T07:14:28Z</time>
      </trkpt>
      <trkpt lat="42.5549710" lon="-8.1579740">
        <ele>762.3</ele>
        <time>2019-08-18T07:14:29Z</time>
      </trkpt>
      <trkpt lat="42.5549730" lon="-8.1579960">
        <ele>762.2</ele>
        <time>2019-08-18T07:14:30Z</time>
      </trkpt>
      <trkpt lat="42.5549760" lon="-8.1580190">
        <ele>762.2</ele>
        <time>2019-08-18T07:14:31Z</time>
      </trkpt>
      <trkpt lat="42.5549780" lon="-8.1580410">
        <ele>762.1</ele>
        <time>2019-08-18T07:14:32Z</time>
      </trkpt>
      <trkpt lat="42.5549790" lon="-8.1580640">
        <ele>762.1</ele>
        <time>2019-08-18T07:14:33Z</time>
      </trkpt>
      <trkpt lat="42.5549790" lon="-8.1580860">
        <ele>762.1</ele>
        <time>2019-08-18T07:14:34Z</time>
      </trkpt>
      <trkpt lat="42.5549780" lon="-8.1581090">
        <ele>762.2</ele>
        <time>2019-08-18T07:14:35Z</time>
      </trkpt>
      <trkpt lat="42.5549750" lon="-8.1581310">
        <ele>762.2</ele>
        <time>2019-08-18T07:14:36Z</time>
      </trkpt>
      <trkpt lat="42.5549730" lon="-8.1581540">
        <ele>762.1</ele>
        <time>2019-08-18T07:14:37Z</time>
      </trkpt>
      <trkpt lat="42.5549700" lon="-8.1581770">
        <ele>762.1</ele>
        <time>2019-08-18T07:14:38Z</time>
      </trkpt>
      <trkpt lat="42.5549690" lon="-8.1581990">
        <ele>762.0</ele>
        <time>2019-08-18T07:14:39Z</time>
      </trkpt>
      <trkpt lat="42.5549680" lon="-8.1582210">
        <ele>762.0</ele>
        <time>2019-08-18T07:14:40Z</time>
      </trkpt>
      <trkpt lat="42.5549690" lon="-8.1582440">
        <ele>761.9</ele>
        <time>2019-08-18T07:14:41Z</time>
      </trkpt>
      <trkpt lat="42.5549720" lon="-8.1582660">
        <ele>761.9</ele>
        <time>2019-08-18T07:14:42Z</time>
      </trkpt>
      <trkpt lat="42.5549760" lon="-8.1582870">
        <ele>761.8</ele>
        <time>2019-08-18T07:14:43Z</time>
      </trkpt>
      <trkpt lat="42.5549820" lon="-8.1583090">
        <ele>761.7</ele>
        <time>2019-08-18T07:14:44Z</time>
      </trkpt>
      <trkpt lat="42.5549890" lon="-8.1583310">
        <ele>761.6</ele>
        <time>2019-08-18T07:14:45Z</time>
      </trkpt>
      <trkpt lat="42.5549950" lon="-8.1583530">
        <ele>761.5</ele>
        <time>2019-08-18T07:14:46Z</time>
      </trkpt>
      <trkpt lat="42.5550010" lon="-8.1583750">
        <ele>761.4</ele>
        <time>2019-08-18T07:14:47Z</time>
      </trkpt>
      <trkpt lat="42.5550060" lon="-8.1583970">
        <ele>761.3</ele>
        <time>2019-08-18T07:14:48Z</time>
      </trkpt>
      <trkpt lat="42.5550090" lon="-8.1584200">
        <ele>761.1</ele>
        <time>2019-08-18T07:14:49Z</time>
      </trkpt>
      <trkpt lat="42.5550120" lon="-8.1584420">
        <ele>761.0</ele>
        <time>2019-08-18T07:14:50Z</time>
      </trkpt>
      <trkpt lat="42.5550130" lon="-8.1584660">
        <ele>760.9</ele>
        <time>2019-08-18T07:14:51Z</time>
      </trkpt>
      <trkpt lat="42.5550140" lon="-8.1584890">
        <ele>760.8</ele>
        <time>2019-08-18T07:14:52Z</time>
      </trkpt>
      <trkpt lat="42.5550140" lon="-8.1585120">
        <ele>760.7</ele>
        <time>2019-08-18T07:14:53Z</time>
      </trkpt>
      <trkpt lat="42.5550140" lon="-8.1585360">
        <ele>760.6</ele>
        <time>2019-08-18T07:14:54Z</time>
      </trkpt>
      <trkpt lat="42.5550150" lon="-8.1585590">
        <ele>760.6</ele>
        <time>2019-08-18T07:14:55Z</time>
      </trkpt>
      <trkpt lat="42.5550160" lon="-8.1585830">
        <ele>760.5</ele>
        <time>2019-08-18T07:14:56Z</time>
      </trkpt>
      <trkpt lat="42.5550170" lon="-8.1586060">
        <ele>760.4</ele>
        <time>2019-08-18T07:14:57Z</time>
      </trkpt>
      <trkpt lat="42.5550200" lon="-8.1586290">
        <ele>760.3</ele>
        <time>2019-08-18T07:14:58Z</time>
      </trkpt>
      <trkpt lat="42.5550230" lon="-8.1586520">
        <ele>760.2</ele>
        <time>2019-08-18T07:14:59Z</time>
      </trkpt>
      <trkpt lat="42.5550260" lon="-8.1586760">
        <ele>760.1</ele>
        <time>2019-08-18T07:15:00Z</time>
      </trkpt>
      <trkpt lat="42.5550300" lon="-8.1586990">
        <ele>760.1</ele>
        <time>2019-08-18T07:15:01Z</time>
      </trkpt>
      <trkpt lat="42.5550340" lon="-8.1587230">
        <ele>759.9</ele>
        <time>2019-08-18T07:15:02Z</time>
      </trkpt>
      <trkpt lat="42.5550380" lon="-8.1587470">
        <ele>759.9</ele>
        <time>2019-08-18T07:15:03Z</time>
      </trkpt>
      <trkpt lat="42.5550430" lon="-8.1587710">
        <ele>759.8</ele>
        <time>2019-08-18T07:15:04Z</time>
      </trkpt>
      <trkpt lat="42.5550470" lon="-8.1587960">
        <ele>759.7</ele>
        <time>2019-08-18T07:15:05Z</time>
      </trkpt>
      <trkpt lat="42.5550520" lon="-8.1588210">
        <ele>759.6</ele>
        <time>2019-08-18T07:15:06Z</time>
      </trkpt>
      <trkpt lat="42.5550560" lon="-8.1588460">
        <ele>759.5</ele>
        <time>2019-08-18T07:15:07Z</time>
      </trkpt>
      <trkpt lat="42.5550610" lon="-8.1588710">
        <ele>759.4</ele>
        <time>2019-08-18T07:15:08Z</time>
      </trkpt>
      <trkpt lat="42.5550660" lon="-8.1588970">
        <ele>759.3</ele>
        <time>2019-08-18T07:15:09Z</time>
      </trkpt>
      <trkpt lat="42.5550700" lon="-8.1589230">
        <ele>759.3</ele>
        <time>2019-08-18T07:15:10Z</time>
      </trkpt>
      <trkpt lat="42.5550750" lon="-8.1589500">
        <ele>759.3</ele>
        <time>2019-08-18T07:15:11Z</time>
      </trkpt>
      <trkpt lat="42.5550800" lon="-8.1589760">
        <ele>759.4</ele>
        <time>2019-08-18T07:15:12Z</time>
      </trkpt>
      <trkpt lat="42.5550850" lon="-8.1590030">
        <ele>759.3</ele>
        <time>2019-08-18T07:15:13Z</time>
      </trkpt>
      <trkpt lat="42.5550900" lon="-8.1590310">
        <ele>759.2</ele>
        <time>2019-08-18T07:15:14Z</time>
      </trkpt>
      <trkpt lat="42.5550950" lon="-8.1590580">
        <ele>759.1</ele>
        <time>2019-08-18T07:15:15Z</time>
      </trkpt>
      <trkpt lat="42.5551000" lon="-8.1590860">
        <ele>759.1</ele>
        <time>2019-08-18T07:15:16Z</time>
      </trkpt>
      <trkpt lat="42.5551050" lon="-8.1591140">
        <ele>759.0</ele>
        <time>2019-08-18T07:15:17Z</time>
      </trkpt>
      <trkpt lat="42.5551100" lon="-8.1591430">
        <ele>759.0</ele>
        <time>2019-08-18T07:15:18Z</time>
      </trkpt>
      <trkpt lat="42.5551150" lon="-8.1591710">
        <ele>758.9</ele>
        <time>2019-08-18T07:15:19Z</time>
      </trkpt>
      <trkpt lat="42.5551200" lon="-8.1592000">
        <ele>758.9</ele>
        <time>2019-08-18T07:15:20Z</time>
      </trkpt>
      <trkpt lat="42.5551260" lon="-8.1592290">
        <ele>759.0</ele>
        <time>2019-08-18T07:15:21Z</time>
      </trkpt>
      <trkpt lat="42.5551310" lon="-8.1592580">
        <ele>759.1</ele>
        <time>2019-08-18T07:15:22Z</time>
      </trkpt>
      <trkpt lat="42.5551370" lon="-8.1592870">
        <ele>759.2</ele>
        <time>2019-08-18T07:15:23Z</time>
      </trkpt>
      <trkpt lat="42.5551430" lon="-8.1593160">
        <ele>759.4</ele>
        <time>2019-08-18T07:15:24Z</time>
      </trkpt>
      <trkpt lat="42.5551500" lon="-8.1593440">
        <ele>759.6</ele>
        <time>2019-08-18T07:15:25Z</time>
      </trkpt>
      <trkpt lat="42.5551570" lon="-8.1593720">
        <ele>759.9</ele>
        <time>2019-08-18T07:15:26Z</time>
      </trkpt>
      <trkpt lat="42.5551640" lon="-8.1594000">
        <ele>760.2</ele>
        <time>2019-08-18T07:15:27Z</time>
      </trkpt>
      <trkpt lat="42.5551720" lon="-8.1594280">
        <ele>760.5</ele>
        <time>2019-08-18T07:15:28Z</time>
      </trkpt>
      <trkpt lat="42.5551810" lon="-8.1594540">
        <ele>760.8</ele>
        <time>2019-08-18T07:15:29Z</time>
      </trkpt>
      <trkpt lat="42.5551900" lon="-8.1594810">
        <ele>761.2</ele>
        <time>2019-08-18T07:15:30Z</time>
      </trkpt>
      <trkpt lat="42.5552000" lon="-8.1595060">
        <ele>761.5</ele>
        <time>2019-08-18T07:15:31Z</time>
      </trkpt>
      <trkpt lat="42.5552110" lon="-8.1595310">
        <ele>761.9</ele>
        <time>2019-08-18T07:15:32Z</time>
      </trkpt>
      <trkpt lat="42.5552220" lon="-8.1595550">
        <ele>762.3</ele>
        <time>2019-08-18T07:15:33Z</time>
      </trkpt>
      <trkpt lat="42.5552350" lon="-8.1595780">
        <ele>762.7</ele>
        <time>2019-08-18T07:15:34Z</time>
      </trkpt>
      <trkpt lat="42.5552480" lon="-8.1596000">
        <ele>763.3</ele>
        <time>2019-08-18T07:15:35Z</time>
      </trkpt>
      <trkpt lat="42.5552620" lon="-8.1596220">
        <ele>763.9</ele>
        <time>2019-08-18T07:15:36Z</time>
      </trkpt>
      <trkpt lat="42.5552760" lon="-8.1596430">
        <ele>764.5</ele>
        <time>2019-08-18T07:15:37Z</time>
      </trkpt>
      <trkpt lat="42.5552920" lon="-8.1596630">
        <ele>765.0</ele>
        <time>2019-08-18T07:15:38Z</time>
      </trkpt>
      <trkpt lat="42.5553080" lon="-8.1596840">
        <ele>765.5</ele>
        <time>2019-08-18T07:15:39Z</time>
      </trkpt>
      <trkpt lat="42.5553240" lon="-8.1597040">
        <ele>765.8</ele>
        <time>2019-08-18T07:15:40Z</time>
      </trkpt>
      <trkpt lat="42.5553420" lon="-8.1597240">
        <ele>766.3</ele>
        <time>2019-08-18T07:15:41Z</time>
      </trkpt>
      <trkpt lat="42.5553590" lon="-8.1597450">
        <ele>766.9</ele>
        <time>2019-08-18T07:15:42Z</time>
      </trkpt>
      <trkpt lat="42.5553780" lon="-8.1597650">
        <ele>767.7</ele>
        <time>2019-08-18T07:15:43Z</time>
      </trkpt>
      <trkpt lat="42.5553970" lon="-8.1597850">
        <ele>768.5</ele>
        <time>2019-08-18T07:15:44Z</time>
      </trkpt>
      <trkpt lat="42.5554160" lon="-8.1598050">
        <ele>769.1</ele>
        <time>2019-08-18T07:15:45Z</time>
      </trkpt>
      <trkpt lat="42.5554370" lon="-8.1598250">
        <ele>769.6</ele>
        <time>2019-08-18T07:15:46Z</time>
      </trkpt>
      <trkpt lat="42.5554580" lon="-8.1598440">
        <ele>770.0</ele>
        <time>2019-08-18T07:15:47Z</time>
      </trkpt>
      <trkpt lat="42.5554790" lon="-8.1598630">
        <ele>770.3</ele>
        <time>2019-08-18T07:15:48Z</time>
      </trkpt>
      <trkpt lat="42.5555010" lon="-8.1598820">
        <ele>770.6</ele>
        <time>2019-08-18T07:15:49Z</time>
      </trkpt>
      <trkpt lat="42.5555230" lon="-8.1599000">
        <ele>770.7</ele>
        <time>2019-08-18T07:15:50Z</time>
      </trkpt>
      <trkpt lat="42.5555440" lon="-8.1599190">
        <ele>771.0</ele>
        <time>2019-08-18T07:15:51Z</time>
      </trkpt>
      <trkpt lat="42.5555630" lon="-8.1599370">
        <ele>771.0</ele>
        <time>2019-08-18T07:15:52Z</time>
      </trkpt>
      <trkpt lat="42.5555830" lon="-8.1599560">
        <ele>771.0</ele>
        <time>2019-08-18T07:15:53Z</time>
      </trkpt>
      <trkpt lat="42.5556020" lon="-8.1599750">
        <ele>771.0</ele>
        <time>2019-08-18T07:15:54Z</time>
      </trkpt>
      <trkpt lat="42.5556240" lon="-8.1599940">
        <ele>771.0</ele>
        <time>2019-08-18T07:15:55Z</time>
      </trkpt>
      <trkpt lat="42.5556480" lon="-8.1600140">
        <ele>770.8</ele>
        <time>2019-08-18T07:15:56Z</time>
      </trkpt>
      <trkpt lat="42.5556740" lon="-8.1600350">
        <ele>770.6</ele>
        <time>2019-08-18T07:15:57Z</time>
      </trkpt>
      <trkpt lat="42.5557020" lon="-8.1600570">
        <ele>770.3</ele>
        <time>2019-08-18T07:15:58Z</time>
      </trkpt>
      <trkpt lat="42.5557320" lon="-8.1600800">
        <ele>770.0</ele>
        <time>2019-08-18T07:15:59Z</time>
      </trkpt>
      <trkpt lat="42.5557630" lon="-8.1601050">
        <ele>769.5</ele>
        <time>2019-08-18T07:16:00Z</time>
      </trkpt>
      <trkpt lat="42.5557960" lon="-8.1601310">
        <ele>769.1</ele>
        <time>2019-08-18T07:16:01Z</time>
      </trkpt>
      <trkpt lat="42.5558540" lon="-8.1601780">
        <ele>768.2</ele>
        <time>2019-08-18T07:16:02Z</time>
      </trkpt>
      <trkpt lat="42.5558770" lon="-8.1601980">
        <ele>767.7</ele>
        <time>2019-08-18T07:16:03Z</time>
      </trkpt>
      <trkpt lat="42.5559010" lon="-8.1602180">
        <ele>767.1</ele>
        <time>2019-08-18T07:16:04Z</time>
      </trkpt>
      <trkpt lat="42.5559380" lon="-8.1602500">
        <ele>766.5</ele>
        <time>2019-08-18T07:16:05Z</time>
      </trkpt>
      <trkpt lat="42.5559780" lon="-8.1602840">
        <ele>765.8</ele>
        <time>2019-08-18T07:16:06Z</time>
      </trkpt>
      <trkpt lat="42.5560510" lon="-8.1603440">
        <ele>764.8</ele>
        <time>2019-08-18T07:16:07Z</time>
      </trkpt>
      <trkpt lat="42.5560810" lon="-8.1603690">
        <ele>764.2</ele>
        <time>2019-08-18T07:16:08Z</time>
      </trkpt>
      <trkpt lat="42.5561120" lon="-8.1603940">
        <ele>763.6</ele>
        <time>2019-08-18T07:16:09Z</time>
      </trkpt>
      <trkpt lat="42.5561630" lon="-8.1604320">
        <ele>762.9</ele>
        <time>2019-08-18T07:16:10Z</time>
      </trkpt>
      <trkpt lat="42.5562170" lon="-8.1604720">
        <ele>762.3</ele>
        <time>2019-08-18T07:16:11Z</time>
      </trkpt>
      <trkpt lat="42.5562730" lon="-8.1605140">
        <ele>761.7</ele>
        <time>2019-08-18T07:16:12Z</time>
      </trkpt>
      <trkpt lat="42.5563320" lon="-8.1605560">
        <ele>760.7</ele>
        <time>2019-08-18T07:16:13Z</time>
      </trkpt>
      <trkpt lat="42.5563930" lon="-8.1605990">
        <ele>759.9</ele>
        <time>2019-08-18T07:16:14Z</time>
      </trkpt>
      <trkpt lat="42.5564550" lon="-8.1606440">
        <ele>759.1</ele>
        <time>2019-08-18T07:16:15Z</time>
      </trkpt>
      <trkpt lat="42.5565180" lon="-8.1606890">
        <ele>758.3</ele>
        <time>2019-08-18T07:16:16Z</time>
      </trkpt>
      <trkpt lat="42.5566150" lon="-8.1607590">
        <ele>757.5</ele>
        <time>2019-08-18T07:16:17Z</time>
      </trkpt>
      <trkpt lat="42.5566470" lon="-8.1607830">
        <ele>757.3</ele>
        <time>2019-08-18T07:16:18Z</time>
      </trkpt>
      <trkpt lat="42.5567130" lon="-8.1608310">
        <ele>757.0</ele>
        <time>2019-08-18T07:16:19Z</time>
      </trkpt>
      <trkpt lat="42.5567800" lon="-8.1608780">
        <ele>756.8</ele>
        <time>2019-08-18T07:16:20Z</time>
      </trkpt>
      <trkpt lat="42.5568480" lon="-8.1609230">
        <ele>756.8</ele>
        <time>2019-08-18T07:16:21Z</time>
      </trkpt>
      <trkpt lat="42.5569170" lon="-8.1609670">
        <ele>757.0</ele>
        <time>2019-08-18T07:16:22Z</time>
      </trkpt>
      <trkpt lat="42.5569880" lon="-8.1610090">
        <ele>757.3</ele>
        <time>2019-08-18T07:16:23Z</time>
      </trkpt>
      <trkpt lat="42.5570610" lon="-8.1610480">
        <ele>757.5</ele>
        <time>2019-08-18T07:16:24Z</time>
      </trkpt>
      <trkpt lat="42.5571350" lon="-8.1610840">
        <ele>757.8</ele>
        <time>2019-08-18T07:16:25Z</time>
      </trkpt>
      <trkpt lat="42.5572080" lon="-8.1611210">
        <ele>758.0</ele>
        <time>2019-08-18T07:16:26Z</time>
      </trkpt>
      <trkpt lat="42.5572770" lon="-8.1611610">
        <ele>758.3</ele>
        <time>2019-08-18T07:16:27Z</time>
      </trkpt>
      <trkpt lat="42.5573390" lon="-8.1612090">
        <ele>758.3</ele>
        <time>2019-08-18T07:16:28Z</time>
      </trkpt>
      <trkpt lat="42.5573920" lon="-8.1612670">
        <ele>758.3</ele>
        <time>2019-08-18T07:16:29Z</time>
      </trkpt>
      <trkpt lat="42.5574380" lon="-8.1613300">
        <ele>758.2</ele>
        <time>2019-08-18T07:16:30Z</time>
      </trkpt>
      <trkpt lat="42.5574800" lon="-8.1613940">
        <ele>758.1</ele>
        <time>2019-08-18T07:16:31Z</time>
      </trkpt>
      <trkpt lat="42.5575200" lon="-8.1614530">
        <ele>758.1</ele>
        <time>2019-08-18T07:16:32Z</time>
      </trkpt>
      <trkpt lat="42.5575590" lon="-8.1615070">
        <ele>758.1</ele>
        <time>2019-08-18T07:16:33Z</time>
      </trkpt>
      <trkpt lat="42.5575970" lon="-8.1615580">
        <ele>758.1</ele>
        <time>2019-08-18T07:16:34Z</time>
      </trkpt>
      <trkpt lat="42.5576350" lon="-8.1616060">
        <ele>758.1</ele>
        <time>2019-08-18T07:16:35Z</time>
      </trkpt>
      <trkpt lat="42.5576720" lon="-8.1616510">
        <ele>758.2</ele>
        <time>2019-08-18T07:16:36Z</time>
      </trkpt>
      <trkpt lat="42.5577090" lon="-8.1616950">
        <ele>758.2</ele>
        <time>2019-08-18T07:16:37Z</time>
      </trkpt>
      <trkpt lat="42.5577460" lon="-8.1617380">
        <ele>758.3</ele>
        <time>2019-08-18T07:16:38Z</time>
      </trkpt>
      <trkpt lat="42.5577830" lon="-8.1617820">
        <ele>758.3</ele>
        <time>2019-08-18T07:16:39Z</time>
      </trkpt>
      <trkpt lat="42.5578200" lon="-8.1618260">
        <ele>758.4</ele>
        <time>2019-08-18T07:16:40Z</time>
      </trkpt>
      <trkpt lat="42.5578570" lon="-8.1618720">
        <ele>758.4</ele>
        <time>2019-08-18T07:16:41Z</time>
      </trkpt>
      <trkpt lat="42.5578920" lon="-8.1619190">
        <ele>758.4</ele>
        <time>2019-08-18T07:16:42Z</time>
      </trkpt>
      <trkpt lat="42.5579260" lon="-8.1619670">
        <ele>758.5</ele>
        <time>2019-08-18T07:16:43Z</time>
      </trkpt>
      <trkpt lat="42.5579580" lon="-8.1620190">
        <ele>758.5</ele>
        <time>2019-08-18T07:16:44Z</time>
      </trkpt>
      <trkpt lat="42.5579880" lon="-8.1620720">
        <ele>758.5</ele>
        <time>2019-08-18T07:16:45Z</time>
      </trkpt>
      <trkpt lat="42.5580160" lon="-8.1621290">
        <ele>758.6</ele>
        <time>2019-08-18T07:16:46Z</time>
      </trkpt>
      <trkpt lat="42.5580410" lon="-8.1621880">
        <ele>758.6</ele>
        <time>2019-08-18T07:16:47Z</time>
      </trkpt>
      <trkpt lat="42.5580630" lon="-8.1622490">
        <ele>758.7</ele>
        <time>2019-08-18T07:16:48Z</time>
      </trkpt>
      <trkpt lat="42.5580840" lon="-8.1623100">
        <ele>758.8</ele>
        <time>2019-08-18T07:16:49Z</time>
      </trkpt>
      <trkpt lat="42.5581030" lon="-8.1623700">
        <ele>758.9</ele>
        <time>2019-08-18T07:16:50Z</time>
      </trkpt>
      <trkpt lat="42.5581200" lon="-8.1624300">
        <ele>759.0</ele>
        <time>2019-08-18T07:16:51Z</time>
      </trkpt>
      <trkpt lat="42.5581360" lon="-8.1624870">
        <ele>759.1</ele>
        <time>2019-08-18T07:16:52Z</time>
      </trkpt>
      <trkpt lat="42.5581500" lon="-8.1625420">
        <ele>759.1</ele>
        <time>2019-08-18T07:16:53Z</time>
      </trkpt>
      <trkpt lat="42.5581640" lon="-8.1625910">
        <ele>759.1</ele>
        <time>2019-08-18T07:16:54Z</time>
      </trkpt>
      <trkpt lat="42.5581730" lon="-8.1626270">
        <ele>759.1</ele>
        <time>2019-08-18T07:16:55Z</time>
      </trkpt>
      <trkpt lat="42.5581750" lon="-8.1626450">
        <ele>759.1</ele>
        <time>2019-08-18T07:16:56Z</time>
      </trkpt>
      <trkpt lat="42.5581740" lon="-8.1626460">
        <ele>759.1</ele>
        <time>2019-08-18T07:16:57Z</time>
      </trkpt>
      <trkpt lat="42.5581730" lon="-8.1626440">
        <ele>759.1</ele>
        <time>2019-08-18T07:16:58Z</time>
      </trkpt>
      <trkpt lat="42.5581730" lon="-8.1626430">
        <ele>759.1</ele>
        <time>2019-08-18T07:16:59Z</time>
      </trkpt>
      <trkpt lat="42.5581720" lon="-8.1626410">
        <ele>759.2</ele>
        <time>2019-08-18T07:17:00Z</time>
      </trkpt>
      <trkpt lat="42.5581710" lon="-8.1626390">
        <ele>759.2</ele>
        <time>2019-08-18T07:17:01Z</time>
      </trkpt>
      <trkpt lat="42.5581710" lon="-8.1626380">
        <ele>759.2</ele>
        <time>2019-08-18T07:17:02Z</time>
      </trkpt>
      <trkpt lat="42.5581700" lon="-8.1626360">
        <ele>759.2</ele>
        <time>2019-08-18T07:17:03Z</time>
      </trkpt>
      <trkpt lat="42.5581690" lon="-8.1626340">
        <ele>759.2</ele>
        <time>2019-08-18T07:17:04Z</time>
      </trkpt>
      <trkpt lat="42.5581680" lon="-8.1626320">
        <ele>759.2</ele>
        <time>2019-08-18T07:17:05Z</time>
      </trkpt>
      <trkpt lat="42.5581680" lon="-8.1626310">
        <ele>759.2</ele>
        <time>2019-08-18T07:17:06Z</time>
      </trkpt>
      <trkpt lat="42.5581670" lon="-8.1626290">
        <ele>759.2</ele>
        <time>2019-08-18T07:17:07Z</time>
      </trkpt>
      <trkpt lat="42.5581660" lon="-8.1626270">
        <ele>759.2</ele>
        <time>2019-08-18T07:17:08Z</time>
      </trkpt>
      <trkpt lat="42.5581660" lon="-8.1626260">
        <ele>759.2</ele>
        <time>2019-08-18T07:17:09Z</time>
      </trkpt>
      <trkpt lat="42.5581650" lon="-8.1626240">
        <ele>759.2</ele>
        <time>2019-08-18T07:17:10Z</time>
      </trkpt>
      <trkpt lat="42.5581600" lon="-8.1625930">
        <ele>759.2</ele>
        <time>2019-08-18T07:17:11Z</time>
      </trkpt>
      <trkpt lat="42.5581540" lon="-8.1625560">
        <ele>759.1</ele>
        <time>2019-08-18T07:17:12Z</time>
      </trkpt>
      <trkpt lat="42.5581450" lon="-8.1625130">
        <ele>759.1</ele>
        <time>2019-08-18T07:17:13Z</time>
      </trkpt>
      <trkpt lat="42.5581340" lon="-8.1624660">
        <ele>759.1</ele>
        <time>2019-08-18T07:17:14Z</time>
      </trkpt>
      <trkpt lat="42.5581200" lon="-8.1624160">
        <ele>759.1</ele>
        <time>2019-08-18T07:17:15Z</time>
      </trkpt>
      <trkpt lat="42.5581030" lon="-8.1623630">
        <ele>759.1</ele>
        <time>2019-08-18T07:17:16Z</time>
      </trkpt>
      <trkpt lat="42.5580860" lon="-8.1623110">
        <ele>759.0</ele>
        <time>2019-08-18T07:17:17Z</time>
      </trkpt>
      <trkpt lat="42.5580720" lon="-8.1622620">
        <ele>759.0</ele>
        <time>2019-08-18T07:17:18Z</time>
      </trkpt>
      <trkpt lat="42.5580620" lon="-8.1622190">
        <ele>759.0</ele>
        <time>2019-08-18T07:17:19Z</time>
      </trkpt>
      <trkpt lat="42.5580600" lon="-8.1621840">
        <ele>758.8</ele>
        <time>2019-08-18T07:17:20Z</time>
      </trkpt>
      <trkpt lat="42.5580650" lon="-8.1621570">
        <ele>758.7</ele>
        <time>2019-08-18T07:17:21Z</time>
      </trkpt>
      <trkpt lat="42.5580750" lon="-8.1621370">
        <ele>758.7</ele>
        <time>2019-08-18T07:17:22Z</time>
      </trkpt>
      <trkpt lat="42.5580880" lon="-8.1621240">
        <ele>758.7</ele>
        <time>2019-08-18T07:17:23Z</time>
      </trkpt>
      <trkpt lat="42.5581050" lon="-8.1621170">
        <ele>758.7</ele>
        <time>2019-08-18T07:17:24Z</time>
      </trkpt>
      <trkpt lat="42.5581240" lon="-8.1621150">
        <ele>758.7</ele>
        <time>2019-08-18T07:17:25Z</time>
      </trkpt>
      <trkpt lat="42.5581460" lon="-8.1621170">
        <ele>758.7</ele>
        <time>2019-08-18T07:17:26Z</time>
      </trkpt>
      <trkpt lat="42.5581700" lon="-8.1621230">
        <ele>758.7</ele>
        <time>2019-08-18T07:17:27Z</time>
      </trkpt>
      <trkpt lat="42.5581960" lon="-8.1621310">
        <ele>758.7</ele>
        <time>2019-08-18T07:17:28Z</time>
      </trkpt>
      <trkpt lat="42.5582230" lon="-8.1621410">
        <ele>758.6</ele>
        <time>2019-08-18T07:17:29Z</time>
      </trkpt>
      <trkpt lat="42.5582530" lon="-8.1621510">
        <ele>758.6</ele>
        <time>2019-08-18T07:17:30Z</time>
      </trkpt>
      <trkpt lat="42.5582830" lon="-8.1621620">
        <ele>758.3</ele>
        <time>2019-08-18T07:17:31Z</time>
      </trkpt>
      <trkpt lat="42.5583140" lon="-8.1621730">
        <ele>758.2</ele>
        <time>2019-08-18T07:17:32Z</time>
      </trkpt>
      <trkpt lat="42.5583610" lon="-8.1621890">
        <ele>758.0</ele>
        <time>2019-08-18T07:17:33Z</time>
      </trkpt>
      <trkpt lat="42.5583760" lon="-8.1621950">
        <ele>758.0</ele>
        <time>2019-08-18T07:17:34Z</time>
      </trkpt>
      <trkpt lat="42.5584060" lon="-8.1622080">
        <ele>757.7</ele>
        <time>2019-08-18T07:17:35Z</time>
      </trkpt>
      <trkpt lat="42.5584340" lon="-8.1622210">
        <ele>757.5</ele>
        <time>2019-08-18T07:17:36Z</time>
      </trkpt>
      <trkpt lat="42.5584590" lon="-8.1622360">
        <ele>757.3</ele>
        <time>2019-08-18T07:17:37Z</time>
      </trkpt>
      <trkpt lat="42.5584820" lon="-8.1622530">
        <ele>757.2</ele>
        <time>2019-08-18T07:17:38Z</time>
      </trkpt>
      <trkpt lat="42.5585020" lon="-8.1622700">
        <ele>757.0</ele>
        <time>2019-08-18T07:17:39Z</time>
      </trkpt>
      <trkpt lat="42.5585200" lon="-8.1622880">
        <ele>756.6</ele>
        <time>2019-08-18T07:17:40Z</time>
      </trkpt>
      <trkpt lat="42.5585370" lon="-8.1623070">
        <ele>756.6</ele>
        <time>2019-08-18T07:17:41Z</time>
      </trkpt>
      <trkpt lat="42.5585530" lon="-8.1623250">
        <ele>756.4</ele>
        <time>2019-08-18T07:17:42Z</time>
      </trkpt>
      <trkpt lat="42.5585690" lon="-8.1623420">
        <ele>756.2</ele>
        <time>2019-08-18T07:17:43Z</time>
      </trkpt>
      <trkpt lat="42.5585850" lon="-8.1623580">
        <ele>756.0</ele>
        <time>2019-08-18T07:17:44Z</time>
      </trkpt>
      <trkpt lat="42.5586020" lon="-8.1623720">
        <ele>755.9</ele>
        <time>2019-08-18T07:17:45Z</time>
      </trkpt>
      <trkpt lat="42.5586200" lon="-8.1623850">
        <ele>755.7</ele>
        <time>2019-08-18T07:17:46Z</time>
      </trkpt>
      <trkpt lat="42.5586380" lon="-8.1623970">
        <ele>755.7</ele>
        <time>2019-08-18T07:17:47Z</time>
      </trkpt>
      <trkpt lat="42.5586560" lon="-8.1624080">
        <ele>755.5</ele>
        <time>2019-08-18T07:17:48Z</time>
      </trkpt>
      <trkpt lat="42.5586750" lon="-8.1624190">
        <ele>755.5</ele>
        <time>2019-08-18T07:17:49Z</time>
      </trkpt>
      <trkpt lat="42.5586930" lon="-8.1624300">
        <ele>755.3</ele>
        <time>2019-08-18T07:17:50Z</time>
      </trkpt>
      <trkpt lat="42.5587120" lon="-8.1624410">
        <ele>755.3</ele>
        <time>2019-08-18T07:17:51Z</time>
      </trkpt>
      <trkpt lat="42.5587290" lon="-8.1624530">
        <ele>755.3</ele>
        <time>2019-08-18T07:17:52Z</time>
      </trkpt>
      <trkpt lat="42.5587460" lon="-8.1624660">
        <ele>755.2</ele>
        <time>2019-08-18T07:17:53Z</time>
      </trkpt>
      <trkpt lat="42.5587620" lon="-8.1624800">
        <ele>755.2</ele>
        <time>2019-08-18T07:17:54Z</time>
      </trkpt>
      <trkpt lat="42.5587780" lon="-8.1624940">
        <ele>755.2</ele>
        <time>2019-08-18T07:17:55Z</time>
      </trkpt>
      <trkpt lat="42.5587930" lon="-8.1625100">
        <ele>755.3</ele>
        <time>2019-08-18T07:17:56Z</time>
      </trkpt>
      <trkpt lat="42.5588070" lon="-8.1625260">
        <ele>755.4</ele>
        <time>2019-08-18T07:17:57Z</time>
      </trkpt>
      <trkpt lat="42.5588210" lon="-8.1625430">
        <ele>755.5</ele>
        <time>2019-08-18T07:17:58Z</time>
      </trkpt>
      <trkpt lat="42.5588340" lon="-8.1625610">
        <ele>755.6</ele>
        <time>2019-08-18T07:17:59Z</time>
      </trkpt>
      <trkpt lat="42.5588470" lon="-8.1625800">
        <ele>755.6</ele>
        <time>2019-08-18T07:18:00Z</time>
      </trkpt>
      <trkpt lat="42.5588600" lon="-8.1625990">
        <ele>755.7</ele>
        <time>2019-08-18T07:18:01Z</time>
      </trkpt>
      <trkpt lat="42.5588720" lon="-8.1626180">
        <ele>755.9</ele>
        <time>2019-08-18T07:18:02Z</time>
      </trkpt>
      <trkpt lat="42.5588840" lon="-8.1626380">
        <ele>756.0</ele>
        <time>2019-08-18T07:18:03Z</time>
      </trkpt>
      <trkpt lat="42.5588960" lon="-8.1626580">
        <ele>756.0</ele>
        <time>2019-08-18T07:18:04Z</time>
      </trkpt>
      <trkpt lat="42.5589070" lon="-8.1626780">
        <ele>756.4</ele>
        <time>2019-08-18T07:18:05Z</time>
      </trkpt>
      <trkpt lat="42.5589180" lon="-8.1626980">
        <ele>756.4</ele>
        <time>2019-08-18T07:18:06Z</time>
      </trkpt>
      <trkpt lat="42.5589280" lon="-8.1627180">
        <ele>756.6</ele>
        <time>2019-08-18T07:18:07Z</time>
      </trkpt>
      <trkpt lat="42.5589380" lon="-8.1627380">
        <ele>756.8</ele>
        <time>2019-08-18T07:18:08Z</time>
      </trkpt>
      <trkpt lat="42.5589480" lon="-8.1627570">
        <ele>757.0</ele>
        <time>2019-08-18T07:18:09Z</time>
      </trkpt>
      <trkpt lat="42.5589590" lon="-8.1627760">
        <ele>757.0</ele>
        <time>2019-08-18T07:18:10Z</time>
      </trkpt>
      <trkpt lat="42.5589700" lon="-8.1627950">
        <ele>757.3</ele>
        <time>2019-08-18T07:18:11Z</time>
      </trkpt>
      <trkpt lat="42.5589820" lon="-8.1628130">
        <ele>757.6</ele>
        <time>2019-08-18T07:18:12Z</time>
      </trkpt>
      <trkpt lat="42.5589950" lon="-8.1628310">
        <ele>757.9</ele>
        <time>2019-08-18T07:18:13Z</time>
      </trkpt>
      <trkpt lat="42.5590100" lon="-8.1628480">
        <ele>758.6</ele>
        <time>2019-08-18T07:18:14Z</time>
      </trkpt>
      <trkpt lat="42.5590260" lon="-8.1628660">
        <ele>758.9</ele>
        <time>2019-08-18T07:18:15Z</time>
      </trkpt>
      <trkpt lat="42.5590430" lon="-8.1628820">
        <ele>758.9</ele>
        <time>2019-08-18T07:18:16Z</time>
      </trkpt>
      <trkpt lat="42.5590600" lon="-8.1628980">
        <ele>759.8</ele>
        <time>2019-08-18T07:18:17Z</time>
      </trkpt>
      <trkpt lat="42.5590780" lon="-8.1629130">
        <ele>759.8</ele>
        <time>2019-08-18T07:18:18Z</time>
      </trkpt>
      <trkpt lat="42.5590970" lon="-8.1629270">
        <ele>760.1</ele>
        <time>2019-08-18T07:18:19Z</time>
      </trkpt>
      <trkpt lat="42.5591150" lon="-8.1629400">
        <ele>760.7</ele>
        <time>2019-08-18T07:18:20Z</time>
      </trkpt>
      <trkpt lat="42.5591330" lon="-8.1629520">
        <ele>761.1</ele>
        <time>2019-08-18T07:18:21Z</time>
      </trkpt>
      <trkpt lat="42.5591510" lon="-8.1629630">
        <ele>761.4</ele>
        <time>2019-08-18T07:18:22Z</time>
      </trkpt>
      <trkpt lat="42.5591690" lon="-8.1629730">
        <ele>762.1</ele>
        <time>2019-08-18T07:18:23Z</time>
      </trkpt>
      <trkpt lat="42.5591860" lon="-8.1629830">
        <ele>762.5</ele>
        <time>2019-08-18T07:18:24Z</time>
      </trkpt>
      <trkpt lat="42.5592030" lon="-8.1629920">
        <ele>762.4</ele>
        <time>2019-08-18T07:18:25Z</time>
      </trkpt>
      <trkpt lat="42.5592190" lon="-8.1630000">
        <ele>762.8</ele>
        <time>2019-08-18T07:18:26Z</time>
      </trkpt>
      <trkpt lat="42.5592360" lon="-8.1630090">
        <ele>762.7</ele>
        <time>2019-08-18T07:18:27Z</time>
      </trkpt>
      <trkpt lat="42.5592520" lon="-8.1630170">
        <ele>763.8</ele>
        <time>2019-08-18T07:18:28Z</time>
      </trkpt>
      <trkpt lat="42.5592670" lon="-8.1630260">
        <ele>763.8</ele>
        <time>2019-08-18T07:18:29Z</time>
      </trkpt>
      <trkpt lat="42.5592830" lon="-8.1630350">
        <ele>764.0</ele>
        <time>2019-08-18T07:18:30Z</time>
      </trkpt>
      <trkpt lat="42.5592990" lon="-8.1630440">
        <ele>764.0</ele>
        <time>2019-08-18T07:18:31Z</time>
      </trkpt>
      <trkpt lat="42.5593140" lon="-8.1630530">
        <ele>764.3</ele>
        <time>2019-08-18T07:18:32Z</time>
      </trkpt>
      <trkpt lat="42.5593300" lon="-8.1630620">
        <ele>765.1</ele>
        <time>2019-08-18T07:18:33Z</time>
      </trkpt>
      <trkpt lat="42.5593460" lon="-8.1630700">
        <ele>765.3</ele>
        <time>2019-08-18T07:18:34Z</time>
      </trkpt>
      <trkpt lat="42.5593630" lon="-8.1630790">
        <ele>765.3</ele>
        <time>2019-08-18T07:18:35Z</time>
      </trkpt>
      <trkpt lat="42.5593800" lon="-8.1630870">
        <ele>765.6</ele>
        <time>2019-08-18T07:18:36Z</time>
      </trkpt>
      <trkpt lat="42.5593980" lon="-8.1630960">
        <ele>765.6</ele>
        <time>2019-08-18T07:18:37Z</time>
      </trkpt>
      <trkpt lat="42.5594150" lon="-8.1631030">
        <ele>766.7</ele>
        <time>2019-08-18T07:18:38Z</time>
      </trkpt>
      <trkpt lat="42.5594330" lon="-8.1631110">
        <ele>766.7</ele>
        <time>2019-08-18T07:18:39Z</time>
      </trkpt>
      <trkpt lat="42.5594510" lon="-8.1631190">
        <ele>767.0</ele>
        <time>2019-08-18T07:18:40Z</time>
      </trkpt>
      <trkpt lat="42.5594680" lon="-8.1631260">
        <ele>767.2</ele>
        <time>2019-08-18T07:18:41Z</time>
      </trkpt>
      <trkpt lat="42.5594850" lon="-8.1631330">
        <ele>767.2</ele>
        <time>2019-08-18T07:18:42Z</time>
      </trkpt>
      <trkpt lat="42.5595010" lon="-8.1631400">
        <ele>767.5</ele>
        <time>2019-08-18T07:18:43Z</time>
      </trkpt>
      <trkpt lat="42.5595160" lon="-8.1631470">
        <ele>768.3</ele>
        <time>2019-08-18T07:18:44Z</time>
      </trkpt>
      <trkpt lat="42.5595310" lon="-8.1631540">
        <ele>768.5</ele>
        <time>2019-08-18T07:18:45Z</time>
      </trkpt>
      <trkpt lat="42.5595460" lon="-8.1631590">
        <ele>768.5</ele>
        <time>2019-08-18T07:18:46Z</time>
      </trkpt>
      <trkpt lat="42.5595600" lon="-8.1631650">
        <ele>768.5</ele>
        <time>2019-08-18T07:18:47Z</time>
      </trkpt>
      <trkpt lat="42.5595740" lon="-8.1631690">
        <ele>768.7</ele>
        <time>2019-08-18T07:18:48Z</time>
      </trkpt>
      <trkpt lat="42.5595860" lon="-8.1631720">
        <ele>768.7</ele>
        <time>2019-08-18T07:18:49Z</time>
      </trkpt>
      <trkpt lat="42.5595980" lon="-8.1631730">
        <ele>768.9</ele>
        <time>2019-08-18T07:18:50Z</time>
      </trkpt>
      <trkpt lat="42.5596090" lon="-8.1631740">
        <ele>768.8</ele>
        <time>2019-08-18T07:18:51Z</time>
      </trkpt>
      <trkpt lat="42.5596190" lon="-8.1631780">
        <ele>768.8</ele>
        <time>2019-08-18T07:18:52Z</time>
      </trkpt>
      <trkpt lat="42.5596290" lon="-8.1631890">
        <ele>769.9</ele>
        <time>2019-08-18T07:18:53Z</time>
      </trkpt>
      <trkpt lat="42.5596400" lon="-8.1632020">
        <ele>769.9</ele>
        <time>2019-08-18T07:18:54Z</time>
      </trkpt>
      <trkpt lat="42.5596520" lon="-8.1632120">
        <ele>769.8</ele>
        <time>2019-08-18T07:18:55Z</time>
      </trkpt>
      <trkpt lat="42.5596650" lon="-8.1632190">
        <ele>770.0</ele>
        <time>2019-08-18T07:18:56Z</time>
      </trkpt>
      <trkpt lat="42.5596790" lon="-8.1632240">
        <ele>770.0</ele>
        <time>2019-08-18T07:18:57Z</time>
      </trkpt>
      <trkpt lat="42.5596940" lon="-8.1632290">
        <ele>771.1</ele>
        <time>2019-08-18T07:18:58Z</time>
      </trkpt>
      <trkpt lat="42.5597090" lon="-8.1632340">
        <ele>771.1</ele>
        <time>2019-08-18T07:18:59Z</time>
      </trkpt>
      <trkpt lat="42.5597250" lon="-8.1632400">
        <ele>771.2</ele>
        <time>2019-08-18T07:19:00Z</time>
      </trkpt>
      <trkpt lat="42.5597410" lon="-8.1632450">
        <ele>771.2</ele>
        <time>2019-08-18T07:19:01Z</time>
      </trkpt>
      <trkpt lat="42.5597570" lon="-8.1632510">
        <ele>771.4</ele>
        <time>2019-08-18T07:19:02Z</time>
      </trkpt>
      <trkpt lat="42.5597730" lon="-8.1632570">
        <ele>771.4</ele>
        <time>2019-08-18T07:19:03Z</time>
      </trkpt>
      <trkpt lat="42.5597890" lon="-8.1632640">
        <ele>771.5</ele>
        <time>2019-08-18T07:19:04Z</time>
      </trkpt>
      <trkpt lat="42.5598050" lon="-8.1632730">
        <ele>772.5</ele>
        <time>2019-08-18T07:19:05Z</time>
      </trkpt>
      <trkpt lat="42.5598200" lon="-8.1632820">
        <ele>772.6</ele>
        <time>2019-08-18T07:19:06Z</time>
      </trkpt>
      <trkpt lat="42.5598350" lon="-8.1632920">
        <ele>772.6</ele>
        <time>2019-08-18T07:19:07Z</time>
      </trkpt>
      <trkpt lat="42.5598490" lon="-8.1633020">
        <ele>772.8</ele>
        <time>2019-08-18T07:19:08Z</time>
      </trkpt>
      <trkpt lat="42.5598640" lon="-8.1633120">
        <ele>772.7</ele>
        <time>2019-08-18T07:19:09Z</time>
      </trkpt>
      <trkpt lat="42.5598790" lon="-8.1633220">
        <ele>773.8</ele>
        <time>2019-08-18T07:19:10Z</time>
      </trkpt>
      <trkpt lat="42.5598940" lon="-8.1633300">
        <ele>773.8</ele>
        <time>2019-08-18T07:19:11Z</time>
      </trkpt>
      <trkpt lat="42.5599100" lon="-8.1633370">
        <ele>773.9</ele>
        <time>2019-08-18T07:19:12Z</time>
      </trkpt>
      <trkpt lat="42.5599270" lon="-8.1633420">
        <ele>773.9</ele>
        <time>2019-08-18T07:19:13Z</time>
      </trkpt>
      <trkpt lat="42.5599440" lon="-8.1633450">
        <ele>774.1</ele>
        <time>2019-08-18T07:19:14Z</time>
      </trkpt>
      <trkpt lat="42.5599620" lon="-8.1633480">
        <ele>774.1</ele>
        <time>2019-08-18T07:19:15Z</time>
      </trkpt>
      <trkpt lat="42.5599800" lon="-8.1633500">
        <ele>774.2</ele>
        <time>2019-08-18T07:19:16Z</time>
      </trkpt>
      <trkpt lat="42.5599980" lon="-8.1633520">
        <ele>774.2</ele>
        <time>2019-08-18T07:19:17Z</time>
      </trkpt>
      <trkpt lat="42.5600170" lon="-8.1633550">
        <ele>774.3</ele>
        <time>2019-08-18T07:19:18Z</time>
      </trkpt>
      <trkpt lat="42.5600360" lon="-8.1633580">
        <ele>775.3</ele>
        <time>2019-08-18T07:19:19Z</time>
      </trkpt>
      <trkpt lat="42.5600550" lon="-8.1633630">
        <ele>775.3</ele>
        <time>2019-08-18T07:19:20Z</time>
      </trkpt>
      <trkpt lat="42.5600740" lon="-8.1633690">
        <ele>775.4</ele>
        <time>2019-08-18T07:19:21Z</time>
      </trkpt>
      <trkpt lat="42.5600930" lon="-8.1633780">
        <ele>775.4</ele>
        <time>2019-08-18T07:19:22Z</time>
      </trkpt>
      <trkpt lat="42.5601120" lon="-8.1633880">
        <ele>775.5</ele>
        <time>2019-08-18T07:19:23Z</time>
      </trkpt>
      <trkpt lat="42.5601310" lon="-8.1633990">
        <ele>775.6</ele>
        <time>2019-08-18T07:19:24Z</time>
      </trkpt>
      <trkpt lat="42.5601510" lon="-8.1634120">
        <ele>776.3</ele>
        <time>2019-08-18T07:19:25Z</time>
      </trkpt>
      <trkpt lat="42.5601710" lon="-8.1634270">
        <ele>776.4</ele>
        <time>2019-08-18T07:19:26Z</time>
      </trkpt>
      <trkpt lat="42.5601920" lon="-8.1634430">
        <ele>777.0</ele>
        <time>2019-08-18T07:19:27Z</time>
      </trkpt>
      <trkpt lat="42.5602140" lon="-8.1634600">
        <ele>777.0</ele>
        <time>2019-08-18T07:19:28Z</time>
      </trkpt>
      <trkpt lat="42.5602360" lon="-8.1634790">
        <ele>777.0</ele>
        <time>2019-08-18T07:19:29Z</time>
      </trkpt>
      <trkpt lat="42.5602590" lon="-8.1634980">
        <ele>777.5</ele>
        <time>2019-08-18T07:19:30Z</time>
      </trkpt>
      <trkpt lat="42.5602820" lon="-8.1635180">
        <ele>777.5</ele>
        <time>2019-08-18T07:19:31Z</time>
      </trkpt>
      <trkpt lat="42.5603060" lon="-8.1635390">
        <ele>777.8</ele>
        <time>2019-08-18T07:19:32Z</time>
      </trkpt>
      <trkpt lat="42.5603310" lon="-8.1635590">
        <ele>777.8</ele>
        <time>2019-08-18T07:19:33Z</time>
      </trkpt>
      <trkpt lat="42.5603570" lon="-8.1635800">
        <ele>778.0</ele>
        <time>2019-08-18T07:19:34Z</time>
      </trkpt>
      <trkpt lat="42.5603830" lon="-8.1636010">
        <ele>778.0</ele>
        <time>2019-08-18T07:19:35Z</time>
      </trkpt>
      <trkpt lat="42.5604100" lon="-8.1636210">
        <ele>778.1</ele>
        <time>2019-08-18T07:19:36Z</time>
      </trkpt>
      <trkpt lat="42.5604380" lon="-8.1636400">
        <ele>778.1</ele>
        <time>2019-08-18T07:19:37Z</time>
      </trkpt>
      <trkpt lat="42.5604660" lon="-8.1636590">
        <ele>778.1</ele>
        <time>2019-08-18T07:19:38Z</time>
      </trkpt>
      <trkpt lat="42.5604950" lon="-8.1636770">
        <ele>778.1</ele>
        <time>2019-08-18T07:19:39Z</time>
      </trkpt>
      <trkpt lat="42.5605240" lon="-8.1636930">
        <ele>778.1</ele>
        <time>2019-08-18T07:19:40Z</time>
      </trkpt>
      <trkpt lat="42.5605540" lon="-8.1637080">
        <ele>778.1</ele>
        <time>2019-08-18T07:19:41Z</time>
      </trkpt>
      <trkpt lat="42.5605850" lon="-8.1637210">
        <ele>778.1</ele>
        <time>2019-08-18T07:19:42Z</time>
      </trkpt>
      <trkpt lat="42.5606160" lon="-8.1637320">
        <ele>778.1</ele>
        <time>2019-08-18T07:19:43Z</time>
      </trkpt>
      <trkpt lat="42.5606480" lon="-8.1637420">
        <ele>778.0</ele>
        <time>2019-08-18T07:19:44Z</time>
      </trkpt>
      <trkpt lat="42.5606800" lon="-8.1637490">
        <ele>777.9</ele>
        <time>2019-08-18T07:19:45Z</time>
      </trkpt>
      <trkpt lat="42.5607120" lon="-8.1637540">
        <ele>777.8</ele>
        <time>2019-08-18T07:19:46Z</time>
      </trkpt>
      <trkpt lat="42.5607440" lon="-8.1637580">
        <ele>777.6</ele>
        <time>2019-08-18T07:19:47Z</time>
      </trkpt>
      <trkpt lat="42.5607750" lon="-8.1637590">
        <ele>777.5</ele>
        <time>2019-08-18T07:19:48Z</time>
      </trkpt>
      <trkpt lat="42.5608220" lon="-8.1637550">
        <ele>777.4</ele>
        <time>2019-08-18T07:19:49Z</time>
      </trkpt>
      <trkpt lat="42.5608370" lon="-8.1637530">
        <ele>777.2</ele>
        <time>2019-08-18T07:19:50Z</time>
      </trkpt>
      <trkpt lat="42.5608670" lon="-8.1637480">
        <ele>777.1</ele>
        <time>2019-08-18T07:19:51Z</time>
      </trkpt>
      <trkpt lat="42.5608960" lon="-8.1637400">
        <ele>777.0</ele>
        <time>2019-08-18T07:19:52Z</time>
      </trkpt>
      <trkpt lat="42.5609250" lon="-8.1637320">
        <ele>776.9</ele>
        <time>2019-08-18T07:19:53Z</time>
      </trkpt>
      <trkpt lat="42.5609530" lon="-8.1637230">
        <ele>776.9</ele>
        <time>2019-08-18T07:19:54Z</time>
      </trkpt>
      <trkpt lat="42.5609810" lon="-8.1637130">
        <ele>776.9</ele>
        <time>2019-08-18T07:19:55Z</time>
      </trkpt>
      <trkpt lat="42.5610070" lon="-8.1637040">
        <ele>777.0</ele>
        <time>2019-08-18T07:19:56Z</time>
      </trkpt>
      <trkpt lat="42.5610340" lon="-8.1636940">
        <ele>777.0</ele>
        <time>2019-08-18T07:19:57Z</time>
      </trkpt>
      <trkpt lat="42.5610590" lon="-8.1636860">
        <ele>777.2</ele>
        <time>2019-08-18T07:19:58Z</time>
      </trkpt>
      <trkpt lat="42.5610840" lon="-8.1636760">
        <ele>777.5</ele>
        <time>2019-08-18T07:19:59Z</time>
      </trkpt>
      <trkpt lat="42.5611090" lon="-8.1636670">
        <ele>777.5</ele>
        <time>2019-08-18T07:20:00Z</time>
      </trkpt>
      <trkpt lat="42.5611350" lon="-8.1636560">
        <ele>777.6</ele>
        <time>2019-08-18T07:20:01Z</time>
      </trkpt>
      <trkpt lat="42.5611600" lon="-8.1636440">
        <ele>778.0</ele>
        <time>2019-08-18T07:20:02Z</time>
      </trkpt>
      <trkpt lat="42.5611850" lon="-8.1636310">
        <ele>778.7</ele>
        <time>2019-08-18T07:20:03Z</time>
      </trkpt>
      <trkpt lat="42.5612120" lon="-8.1636150">
        <ele>779.1</ele>
        <time>2019-08-18T07:20:04Z</time>
      </trkpt>
      <trkpt lat="42.5612380" lon="-8.1635980">
        <ele>779.4</ele>
        <time>2019-08-18T07:20:05Z</time>
      </trkpt>
      <trkpt lat="42.5612650" lon="-8.1635800">
        <ele>779.4</ele>
        <time>2019-08-18T07:20:06Z</time>
      </trkpt>
      <trkpt lat="42.5612910" lon="-8.1635610">
        <ele>779.6</ele>
        <time>2019-08-18T07:20:07Z</time>
      </trkpt>
      <trkpt lat="42.5613180" lon="-8.1635420">
        <ele>780.1</ele>
        <time>2019-08-18T07:20:08Z</time>
      </trkpt>
      <trkpt lat="42.5613440" lon="-8.1635220">
        <ele>780.3</ele>
        <time>2019-08-18T07:20:09Z</time>
      </trkpt>
      <trkpt lat="42.5613690" lon="-8.1635030">
        <ele>780.8</ele>
        <time>2019-08-18T07:20:10Z</time>
      </trkpt>
      <trkpt lat="42.5613930" lon="-8.1634840">
        <ele>780.5</ele>
        <time>2019-08-18T07:20:11Z</time>
      </trkpt>
      <trkpt lat="42.5614170" lon="-8.1634650">
        <ele>781.0</ele>
        <time>2019-08-18T07:20:12Z</time>
      </trkpt>
      <trkpt lat="42.5614400" lon="-8.1634470">
        <ele>781.5</ele>
        <time>2019-08-18T07:20:13Z</time>
      </trkpt>
      <trkpt lat="42.5614630" lon="-8.1634280">
        <ele>781.7</ele>
        <time>2019-08-18T07:20:14Z</time>
      </trkpt>
      <trkpt lat="42.5614850" lon="-8.1634090">
        <ele>781.7</ele>
        <time>2019-08-18T07:20:15Z</time>
      </trkpt>
      <trkpt lat="42.5615070" lon="-8.1633900">
        <ele>781.9</ele>
        <time>2019-08-18T07:20:16Z</time>
      </trkpt>
      <trkpt lat="42.5615290" lon="-8.1633700">
        <ele>782.3</ele>
        <time>2019-08-18T07:20:17Z</time>
      </trkpt>
      <trkpt lat="42.5615500" lon="-8.1633480">
        <ele>782.1</ele>
        <time>2019-08-18T07:20:18Z</time>
      </trkpt>
      <trkpt lat="42.5615720" lon="-8.1633260">
        <ele>782.5</ele>
        <time>2019-08-18T07:20:19Z</time>
      </trkpt>
      <trkpt lat="42.5615930" lon="-8.1633030">
        <ele>782.7</ele>
        <time>2019-08-18T07:20:20Z</time>
      </trkpt>
      <trkpt lat="42.5616130" lon="-8.1632790">
        <ele>782.7</ele>
        <time>2019-08-18T07:20:21Z</time>
      </trkpt>
      <trkpt lat="42.5616320" lon="-8.1632550">
        <ele>782.9</ele>
        <time>2019-08-18T07:20:22Z</time>
      </trkpt>
      <trkpt lat="42.5616500" lon="-8.1632310">
        <ele>783.2</ele>
        <time>2019-08-18T07:20:23Z</time>
      </trkpt>
      <trkpt lat="42.5616660" lon="-8.1632080">
        <ele>783.1</ele>
        <time>2019-08-18T07:20:24Z</time>
      </trkpt>
      <trkpt lat="42.5616800" lon="-8.1631860">
        <ele>783.4</ele>
        <time>2019-08-18T07:20:25Z</time>
      </trkpt>
      <trkpt lat="42.5616920" lon="-8.1631650">
        <ele>783.2</ele>
        <time>2019-08-18T07:20:26Z</time>
      </trkpt>
      <trkpt lat="42.5617020" lon="-8.1631450">
        <ele>783.2</ele>
        <time>2019-08-18T07:20:27Z</time>
      </trkpt>
      <trkpt lat="42.5617110" lon="-8.1631270">
        <ele>783.4</ele>
        <time>2019-08-18T07:20:28Z</time>
      </trkpt>
      <trkpt lat="42.5617210" lon="-8.1631110">
        <ele>783.4</ele>
        <time>2019-08-18T07:20:29Z</time>
      </trkpt>
      <trkpt lat="42.5617320" lon="-8.1630960">
        <ele>783.3</ele>
        <time>2019-08-18T07:20:30Z</time>
      </trkpt>
      <trkpt lat="42.5617440" lon="-8.1630830">
        <ele>783.6</ele>
        <time>2019-08-18T07:20:31Z</time>
      </trkpt>
      <trkpt lat="42.5617580" lon="-8.1630700">
        <ele>783.6</ele>
        <time>2019-08-18T07:20:32Z</time>
      </trkpt>
      <trkpt lat="42.5617730" lon="-8.1630570">
        <ele>783.6</ele>
        <time>2019-08-18T07:20:33Z</time>
      </trkpt>
      <trkpt lat="42.5617890" lon="-8.1630450">
        <ele>783.8</ele>
        <time>2019-08-18T07:20:34Z</time>
      </trkpt>
      <trkpt lat="42.5618050" lon="-8.1630320">
        <ele>783.8</ele>
        <time>2019-08-18T07:20:35Z</time>
      </trkpt>
      <trkpt lat="42.5618220" lon="-8.1630170">
        <ele>784.1</ele>
        <time>2019-08-18T07:20:36Z</time>
      </trkpt>
      <trkpt lat="42.5618400" lon="-8.1630010">
        <ele>784.3</ele>
        <time>2019-08-18T07:20:37Z</time>
      </trkpt>
      <trkpt lat="42.5618570" lon="-8.1629840">
        <ele>784.3</ele>
        <time>2019-08-18T07:20:38Z</time>
      </trkpt>
      <trkpt lat="42.5618750" lon="-8.1629670">
        <ele>784.5</ele>
        <time>2019-08-18T07:20:39Z</time>
      </trkpt>
      <trkpt lat="42.5618930" lon="-8.1629510">
        <ele>784.5</ele>
        <time>2019-08-18T07:20:40Z</time>
      </trkpt>
      <trkpt lat="42.5619100" lon="-8.1629350">
        <ele>784.8</ele>
        <time>2019-08-18T07:20:41Z</time>
      </trkpt>
      <trkpt lat="42.5619270" lon="-8.1629210">
        <ele>784.8</ele>
        <time>2019-08-18T07:20:42Z</time>
      </trkpt>
      <trkpt lat="42.5619450" lon="-8.1629060">
        <ele>785.2</ele>
        <time>2019-08-18T07:20:43Z</time>
      </trkpt>
      <trkpt lat="42.5619620" lon="-8.1628930">
        <ele>785.1</ele>
        <time>2019-08-18T07:20:44Z</time>
      </trkpt>
      <trkpt lat="42.5619790" lon="-8.1628790">
        <ele>785.5</ele>
        <time>2019-08-18T07:20:45Z</time>
      </trkpt>
      <trkpt lat="42.5619960" lon="-8.1628660">
        <ele>785.7</ele>
        <time>2019-08-18T07:20:46Z</time>
      </trkpt>
      <trkpt lat="42.5620140" lon="-8.1628530">
        <ele>785.7</ele>
        <time>2019-08-18T07:20:47Z</time>
      </trkpt>
      <trkpt lat="42.5620310" lon="-8.1628400">
        <ele>786.0</ele>
        <time>2019-08-18T07:20:48Z</time>
      </trkpt>
      <trkpt lat="42.5620480" lon="-8.1628270">
        <ele>786.0</ele>
        <time>2019-08-18T07:20:49Z</time>
      </trkpt>
      <trkpt lat="42.5620660" lon="-8.1628140">
        <ele>786.2</ele>
        <time>2019-08-18T07:20:50Z</time>
      </trkpt>
      <trkpt lat="42.5620840" lon="-8.1628000">
        <ele>786.2</ele>
        <time>2019-08-18T07:20:51Z</time>
      </trkpt>
      <trkpt lat="42.5621020" lon="-8.1627860">
        <ele>786.5</ele>
        <time>2019-08-18T07:20:52Z</time>
      </trkpt>
      <trkpt lat="42.5621200" lon="-8.1627720">
        <ele>786.5</ele>
        <time>2019-08-18T07:20:53Z</time>
      </trkpt>
      <trkpt lat="42.5621380" lon="-8.1627560">
        <ele>786.7</ele>
        <time>2019-08-18T07:20:54Z</time>
      </trkpt>
      <trkpt lat="42.5621560" lon="-8.1627400">
        <ele>787.0</ele>
        <time>2019-08-18T07:20:55Z</time>
      </trkpt>
      <trkpt lat="42.5621750" lon="-8.1627230">
        <ele>787.0</ele>
        <time>2019-08-18T07:20:56Z</time>
      </trkpt>
      <trkpt lat="42.5621940" lon="-8.1627060">
        <ele>787.3</ele>
        <time>2019-08-18T07:20:57Z</time>
      </trkpt>
      <trkpt lat="42.5622140" lon="-8.1626880">
        <ele>787.3</ele>
        <time>2019-08-18T07:20:58Z</time>
      </trkpt>
      <trkpt lat="42.5622340" lon="-8.1626700">
        <ele>787.6</ele>
        <time>2019-08-18T07:20:59Z</time>
      </trkpt>
      <trkpt lat="42.5622540" lon="-8.1626520">
        <ele>787.8</ele>
        <time>2019-08-18T07:21:00Z</time>
      </trkpt>
      <trkpt lat="42.5622750" lon="-8.1626340">
        <ele>787.8</ele>
        <time>2019-08-18T07:21:01Z</time>
      </trkpt>
      <trkpt lat="42.5622970" lon="-8.1626160">
        <ele>788.1</ele>
        <time>2019-08-18T07:21:02Z</time>
      </trkpt>
      <trkpt lat="42.5623190" lon="-8.1625980">
        <ele>788.2</ele>
        <time>2019-08-18T07:21:03Z</time>
      </trkpt>
      <trkpt lat="42.5623420" lon="-8.1625810">
        <ele>788.3</ele>
        <time>2019-08-18T07:21:04Z</time>
      </trkpt>
      <trkpt lat="42.5623660" lon="-8.1625650">
        <ele>788.4</ele>
        <time>2019-08-18T07:21:05Z</time>
      </trkpt>
      <trkpt lat="42.5623910" lon="-8.1625490">
        <ele>788.5</ele>
        <time>2019-08-18T07:21:06Z</time>
      </trkpt>
      <trkpt lat="42.5624160" lon="-8.1625340">
        <ele>788.8</ele>
        <time>2019-08-18T07:21:07Z</time>
      </trkpt>
      <trkpt lat="42.5624430" lon="-8.1625210">
        <ele>788.9</ele>
        <time>2019-08-18T07:21:08Z</time>
      </trkpt>
      <trkpt lat="42.5624700" lon="-8.1625080">
        <ele>789.0</ele>
        <time>2019-08-18T07:21:09Z</time>
      </trkpt>
      <trkpt lat="42.5624990" lon="-8.1624970">
        <ele>789.1</ele>
        <time>2019-08-18T07:21:10Z</time>
      </trkpt>
      <trkpt lat="42.5625280" lon="-8.1624870">
        <ele>789.2</ele>
        <time>2019-08-18T07:21:11Z</time>
      </trkpt>
      <trkpt lat="42.5625580" lon="-8.1624780">
        <ele>789.2</ele>
        <time>2019-08-18T07:21:12Z</time>
      </trkpt>
      <trkpt lat="42.5625890" lon="-8.1624690">
        <ele>789.3</ele>
        <time>2019-08-18T07:21:13Z</time>
      </trkpt>
      <trkpt lat="42.5626210" lon="-8.1624600">
        <ele>789.3</ele>
        <time>2019-08-18T07:21:14Z</time>
      </trkpt>
      <trkpt lat="42.5626530" lon="-8.1624510">
        <ele>789.5</ele>
        <time>2019-08-18T07:21:15Z</time>
      </trkpt>
      <trkpt lat="42.5626850" lon="-8.1624420">
        <ele>789.5</ele>
        <time>2019-08-18T07:21:16Z</time>
      </trkpt>
      <trkpt lat="42.5627170" lon="-8.1624310">
        <ele>789.5</ele>
        <time>2019-08-18T07:21:17Z</time>
      </trkpt>
      <trkpt lat="42.5627500" lon="-8.1624190">
        <ele>789.5</ele>
        <time>2019-08-18T07:21:18Z</time>
      </trkpt>
      <trkpt lat="42.5627820" lon="-8.1624060">
        <ele>789.6</ele>
        <time>2019-08-18T07:21:19Z</time>
      </trkpt>
      <trkpt lat="42.5628150" lon="-8.1623920">
        <ele>789.6</ele>
        <time>2019-08-18T07:21:20Z</time>
      </trkpt>
      <trkpt lat="42.5628470" lon="-8.1623750">
        <ele>789.6</ele>
        <time>2019-08-18T07:21:21Z</time>
      </trkpt>
      <trkpt lat="42.5628790" lon="-8.1623570">
        <ele>789.6</ele>
        <time>2019-08-18T07:21:22Z</time>
      </trkpt>
      <trkpt lat="42.5629100" lon="-8.1623360">
        <ele>789.7</ele>
        <time>2019-08-18T07:21:23Z</time>
      </trkpt>
      <trkpt lat="42.5629410" lon="-8.1623140">
        <ele>789.7</ele>
        <time>2019-08-18T07:21:24Z</time>
      </trkpt>
      <trkpt lat="42.5629720" lon="-8.1622880">
        <ele>789.7</ele>
        <time>2019-08-18T07:21:25Z</time>
      </trkpt>
      <trkpt lat="42.5630020" lon="-8.1622610">
        <ele>789.7</ele>
        <time>2019-08-18T07:21:26Z</time>
      </trkpt>
      <trkpt lat="42.5630320" lon="-8.1622330">
        <ele>789.7</ele>
        <time>2019-08-18T07:21:27Z</time>
      </trkpt>
      <trkpt lat="42.5630620" lon="-8.1622030">
        <ele>789.7</ele>
        <time>2019-08-18T07:21:28Z</time>
      </trkpt>
      <trkpt lat="42.5630920" lon="-8.1621730">
        <ele>789.8</ele>
        <time>2019-08-18T07:21:29Z</time>
      </trkpt>
      <trkpt lat="42.5631220" lon="-8.1621430">
        <ele>789.8</ele>
        <time>2019-08-18T07:21:30Z</time>
      </trkpt>
      <trkpt lat="42.5631520" lon="-8.1621140">
        <ele>789.7</ele>
        <time>2019-08-18T07:21:31Z</time>
      </trkpt>
      <trkpt lat="42.5631820" lon="-8.1620860">
        <ele>789.7</ele>
        <time>2019-08-18T07:21:32Z</time>
      </trkpt>
      <trkpt lat="42.5632130" lon="-8.1620590">
        <ele>789.7</ele>
        <time>2019-08-18T07:21:33Z</time>
      </trkpt>
      <trkpt lat="42.5632440" lon="-8.1620350">
        <ele>789.6</ele>
        <time>2019-08-18T07:21:34Z</time>
      </trkpt>
      <trkpt lat="42.5632760" lon="-8.1620130">
        <ele>789.6</ele>
        <time>2019-08-18T07:21:35Z</time>
      </trkpt>
      <trkpt lat="42.5633090" lon="-8.1619950">
        <ele>789.6</ele>
        <time>2019-08-18T07:21:36Z</time>
      </trkpt>
      <trkpt lat="42.5633420" lon="-8.1619800">
        <ele>789.6</ele>
        <time>2019-08-18T07:21:37Z</time>
      </trkpt>
      <trkpt lat="42.5633770" lon="-8.1619690">
        <ele>789.6</ele>
        <time>2019-08-18T07:21:38Z</time>
      </trkpt>
      <trkpt lat="42.5634130" lon="-8.1619630">
        <ele>789.6</ele>
        <time>2019-08-18T07:21:39Z</time>
      </trkpt>
      <trkpt lat="42.5634490" lon="-8.1619620">
        <ele>789.7</ele>
        <time>2019-08-18T07:21:40Z</time>
      </trkpt>
      <trkpt lat="42.5634870" lon="-8.1619640">
        <ele>789.7</ele>
        <time>2019-08-18T07:21:41Z</time>
      </trkpt>
      <trkpt lat="42.5635270" lon="-8.1619710">
        <ele>789.7</ele>
        <time>2019-08-18T07:21:42Z</time>
      </trkpt>
      <trkpt lat="42.5635680" lon="-8.1619810">
        <ele>789.8</ele>
        <time>2019-08-18T07:21:43Z</time>
      </trkpt>
      <trkpt lat="42.5636100" lon="-8.1619950">
        <ele>789.4</ele>
        <time>2019-08-18T07:21:44Z</time>
      </trkpt>
      <trkpt lat="42.5636540" lon="-8.1620120">
        <ele>789.1</ele>
        <time>2019-08-18T07:21:45Z</time>
      </trkpt>
      <trkpt lat="42.5637000" lon="-8.1620310">
        <ele>788.7</ele>
        <time>2019-08-18T07:21:46Z</time>
      </trkpt>
      <trkpt lat="42.5637480" lon="-8.1620540">
        <ele>788.3</ele>
        <time>2019-08-18T07:21:47Z</time>
      </trkpt>
      <trkpt lat="42.5637960" lon="-8.1620780">
        <ele>788.0</ele>
        <time>2019-08-18T07:21:48Z</time>
      </trkpt>
      <trkpt lat="42.5638440" lon="-8.1621060">
        <ele>787.6</ele>
        <time>2019-08-18T07:21:49Z</time>
      </trkpt>
      <trkpt lat="42.5638920" lon="-8.1621350">
        <ele>787.2</ele>
        <time>2019-08-18T07:21:50Z</time>
      </trkpt>
      <trkpt lat="42.5639380" lon="-8.1621670">
        <ele>786.7</ele>
        <time>2019-08-18T07:21:51Z</time>
      </trkpt>
      <trkpt lat="42.5639810" lon="-8.1622020">
        <ele>786.3</ele>
        <time>2019-08-18T07:21:52Z</time>
      </trkpt>
      <trkpt lat="42.5640210" lon="-8.1622390">
        <ele>785.8</ele>
        <time>2019-08-18T07:21:53Z</time>
      </trkpt>
      <trkpt lat="42.5640570" lon="-8.1622780">
        <ele>785.5</ele>
        <time>2019-08-18T07:21:54Z</time>
      </trkpt>
      <trkpt lat="42.5640900" lon="-8.1623190">
        <ele>785.3</ele>
        <time>2019-08-18T07:21:55Z</time>
      </trkpt>
      <trkpt lat="42.5641190" lon="-8.1623620">
        <ele>785.1</ele>
        <time>2019-08-18T07:21:56Z</time>
      </trkpt>
      <trkpt lat="42.5641460" lon="-8.1624060">
        <ele>784.9</ele>
        <time>2019-08-18T07:21:57Z</time>
      </trkpt>
      <trkpt lat="42.5641720" lon="-8.1624500">
        <ele>784.7</ele>
        <time>2019-08-18T07:21:58Z</time>
      </trkpt>
      <trkpt lat="42.5641970" lon="-8.1624950">
        <ele>784.4</ele>
        <time>2019-08-18T07:21:59Z</time>
      </trkpt>
      <trkpt lat="42.5642230" lon="-8.1625400">
        <ele>784.2</ele>
        <time>2019-08-18T07:22:00Z</time>
      </trkpt>
      <trkpt lat="42.5642480" lon="-8.1625840">
        <ele>783.8</ele>
        <time>2019-08-18T07:22:01Z</time>
      </trkpt>
      <trkpt lat="42.5642750" lon="-8.1626280">
        <ele>783.4</ele>
        <time>2019-08-18T07:22:02Z</time>
      </trkpt>
      <trkpt lat="42.5643020" lon="-8.1626720">
        <ele>783.1</ele>
        <time>2019-08-18T07:22:03Z</time>
      </trkpt>
      <trkpt lat="42.5643310" lon="-8.1627150">
        <ele>782.7</ele>
        <time>2019-08-18T07:22:04Z</time>
      </trkpt>
      <trkpt lat="42.5643600" lon="-8.1627570">
        <ele>782.3</ele>
        <time>2019-08-18T07:22:05Z</time>
      </trkpt>
      <trkpt lat="42.5643910" lon="-8.1628000">
        <ele>781.9</ele>
        <time>2019-08-18T07:22:06Z</time>
      </trkpt>
      <trkpt lat="42.5644230" lon="-8.1628420">
        <ele>781.4</ele>
        <time>2019-08-18T07:22:07Z</time>
      </trkpt>
      <trkpt lat="42.5644570" lon="-8.1628830">
        <ele>781.0</ele>
        <time>2019-08-18T07:22:08Z</time>
      </trkpt>
      <trkpt lat="42.5644910" lon="-8.1629230">
        <ele>780.6</ele>
        <time>2019-08-18T07:22:09Z</time>
      </trkpt>
      <trkpt lat="42.5645270" lon="-8.1629600">
        <ele>780.1</ele>
        <time>2019-08-18T07:22:10Z</time>
      </trkpt>
      <trkpt lat="42.5645630" lon="-8.1629950">
        <ele>779.7</ele>
        <time>2019-08-18T07:22:11Z</time>
      </trkpt>
      <trkpt lat="42.5646000" lon="-8.1630250">
        <ele>779.2</ele>
        <time>2019-08-18T07:22:12Z</time>
      </trkpt>
      <trkpt lat="42.5646370" lon="-8.1630510">
        <ele>778.8</ele>
        <time>2019-08-18T07:22:13Z</time>
      </trkpt>
      <trkpt lat="42.5646740" lon="-8.1630750">
        <ele>778.3</ele>
        <time>2019-08-18T07:22:14Z</time>
      </trkpt>
      <trkpt lat="42.5647120" lon="-8.1630980">
        <ele>777.8</ele>
        <time>2019-08-18T07:22:15Z</time>
      </trkpt>
      <trkpt lat="42.5647510" lon="-8.1631210">
        <ele>777.3</ele>
        <time>2019-08-18T07:22:16Z</time>
      </trkpt>
      <trkpt lat="42.5647910" lon="-8.1631470">
        <ele>776.8</ele>
        <time>2019-08-18T07:22:17Z</time>
      </trkpt>
      <trkpt lat="42.5648330" lon="-8.1631780">
        <ele>776.2</ele>
        <time>2019-08-18T07:22:18Z</time>
      </trkpt>
      <trkpt lat="42.5648740" lon="-8.1632070">
        <ele>775.6</ele>
        <time>2019-08-18T07:22:19Z</time>
      </trkpt>
      <trkpt lat="42.5649130" lon="-8.1632300">
        <ele>775.1</ele>
        <time>2019-08-18T07:22:20Z</time>
      </trkpt>
      <trkpt lat="42.5649490" lon="-8.1632460">
        <ele>774.6</ele>
        <time>2019-08-18T07:22:21Z</time>
      </trkpt>
      <trkpt lat="42.5649830" lon="-8.1632600">
        <ele>774.1</ele>
        <time>2019-08-18T07:22:22Z</time>
      </trkpt>
      <trkpt lat="42.5650160" lon="-8.1632740">
        <ele>773.7</ele>
        <time>2019-08-18T07:22:23Z</time>
      </trkpt>
      <trkpt lat="42.5650470" lon="-8.1632880">
        <ele>773.2</ele>
        <time>2019-08-18T07:22:24Z</time>
      </trkpt>
      <trkpt lat="42.5650780" lon="-8.1633030">
        <ele>772.8</ele>
        <time>2019-08-18T07:22:25Z</time>
      </trkpt>
      <trkpt lat="42.5651070" lon="-8.1633170">
        <ele>772.4</ele>
        <time>2019-08-18T07:22:26Z</time>
      </trkpt>
      <trkpt lat="42.5651360" lon="-8.1633330">
        <ele>772.0</ele>
        <time>2019-08-18T07:22:27Z</time>
      </trkpt>
      <trkpt lat="42.5651640" lon="-8.1633480">
        <ele>771.6</ele>
        <time>2019-08-18T07:22:28Z</time>
      </trkpt>
      <trkpt lat="42.5651910" lon="-8.1633640">
        <ele>771.2</ele>
        <time>2019-08-18T07:22:29Z</time>
      </trkpt>
      <trkpt lat="42.5652180" lon="-8.1633800">
        <ele>770.8</ele>
        <time>2019-08-18T07:22:30Z</time>
      </trkpt>
      <trkpt lat="42.5652450" lon="-8.1633960">
        <ele>770.4</ele>
        <time>2019-08-18T07:22:31Z</time>
      </trkpt>
      <trkpt lat="42.5652710" lon="-8.1634130">
        <ele>770.1</ele>
        <time>2019-08-18T07:22:32Z</time>
      </trkpt>
      <trkpt lat="42.5652980" lon="-8.1634290">
        <ele>769.7</ele>
        <time>2019-08-18T07:22:33Z</time>
      </trkpt>
      <trkpt lat="42.5653240" lon="-8.1634460">
        <ele>769.3</ele>
        <time>2019-08-18T07:22:34Z</time>
      </trkpt>
      <trkpt lat="42.5653510" lon="-8.1634630">
        <ele>768.9</ele>
        <time>2019-08-18T07:22:35Z</time>
      </trkpt>
      <trkpt lat="42.5653790" lon="-8.1634810">
        <ele>768.5</ele>
        <time>2019-08-18T07:22:36Z</time>
      </trkpt>
      <trkpt lat="42.5654070" lon="-8.1634980">
        <ele>768.1</ele>
        <time>2019-08-18T07:22:37Z</time>
      </trkpt>
      <trkpt lat="42.5654350" lon="-8.1635160">
        <ele>767.7</ele>
        <time>2019-08-18T07:22:38Z</time>
      </trkpt>
      <trkpt lat="42.5654640" lon="-8.1635350">
        <ele>767.3</ele>
        <time>2019-08-18T07:22:39Z</time>
      </trkpt>
      <trkpt lat="42.5654940" lon="-8.1635550">
        <ele>766.9</ele>
        <time>2019-08-18T07:22:40Z</time>
      </trkpt>
      <trkpt lat="42.5655240" lon="-8.1635760">
        <ele>766.5</ele>
        <time>2019-08-18T07:22:41Z</time>
      </trkpt>
      <trkpt lat="42.5655560" lon="-8.1635990">
        <ele>766.1</ele>
        <time>2019-08-18T07:22:42Z</time>
      </trkpt>
      <trkpt lat="42.5655870" lon="-8.1636250">
        <ele>765.7</ele>
        <time>2019-08-18T07:22:43Z</time>
      </trkpt>
      <trkpt lat="42.5656200" lon="-8.1636520">
        <ele>765.3</ele>
        <time>2019-08-18T07:22:44Z</time>
      </trkpt>
      <trkpt lat="42.5656530" lon="-8.1636830">
        <ele>764.8</ele>
        <time>2019-08-18T07:22:45Z</time>
      </trkpt>
      <trkpt lat="42.5656860" lon="-8.1637160">
        <ele>764.4</ele>
        <time>2019-08-18T07:22:46Z</time>
      </trkpt>
      <trkpt lat="42.5657190" lon="-8.1637510">
        <ele>763.9</ele>
        <time>2019-08-18T07:22:47Z</time>
      </trkpt>
      <trkpt lat="42.5657510" lon="-8.1637890">
        <ele>763.5</ele>
        <time>2019-08-18T07:22:48Z</time>
      </trkpt>
      <trkpt lat="42.5657810" lon="-8.1638280">
        <ele>763.1</ele>
        <time>2019-08-18T07:22:49Z</time>
      </trkpt>
      <trkpt lat="42.5658090" lon="-8.1638690">
        <ele>762.7</ele>
        <time>2019-08-18T07:22:50Z</time>
      </trkpt>
      <trkpt lat="42.5658340" lon="-8.1639110">
        <ele>762.4</ele>
        <time>2019-08-18T07:22:51Z</time>
      </trkpt>
      <trkpt lat="42.5658550" lon="-8.1639550">
        <ele>762.0</ele>
        <time>2019-08-18T07:22:52Z</time>
      </trkpt>
      <trkpt lat="42.5658740" lon="-8.1640000">
        <ele>761.6</ele>
        <time>2019-08-18T07:22:53Z</time>
      </trkpt>
      <trkpt lat="42.5658900" lon="-8.1640450">
        <ele>761.3</ele>
        <time>2019-08-18T07:22:54Z</time>
      </trkpt>
      <trkpt lat="42.5659040" lon="-8.1640910">
        <ele>760.9</ele>
        <time>2019-08-18T07:22:55Z</time>
      </trkpt>
      <trkpt lat="42.5659170" lon="-8.1641370">
        <ele>760.6</ele>
        <time>2019-08-18T07:22:56Z</time>
      </trkpt>
      <trkpt lat="42.5659290" lon="-8.1641830">
        <ele>760.3</ele>
        <time>2019-08-18T07:22:57Z</time>
      </trkpt>
      <trkpt lat="42.5659410" lon="-8.1642280">
        <ele>759.9</ele>
        <time>2019-08-18T07:22:58Z</time>
      </trkpt>
      <trkpt lat="42.5659530" lon="-8.1642730">
        <ele>759.6</ele>
        <time>2019-08-18T07:22:59Z</time>
      </trkpt>
      <trkpt lat="42.5659670" lon="-8.1643180">
        <ele>759.4</ele>
        <time>2019-08-18T07:23:00Z</time>
      </trkpt>
      <trkpt lat="42.5659820" lon="-8.1643610">
        <ele>759.1</ele>
        <time>2019-08-18T07:23:01Z</time>
      </trkpt>
      <trkpt lat="42.5660000" lon="-8.1644040">
        <ele>758.8</ele>
        <time>2019-08-18T07:23:02Z</time>
      </trkpt>
      <trkpt lat="42.5660220" lon="-8.1644460">
        <ele>758.6</ele>
        <time>2019-08-18T07:23:03Z</time>
      </trkpt>
      <trkpt lat="42.5660490" lon="-8.1644860">
        <ele>758.3</ele>
        <time>2019-08-18T07:23:04Z</time>
      </trkpt>
      <trkpt lat="42.5660790" lon="-8.1645260">
        <ele>758.0</ele>
        <time>2019-08-18T07:23:05Z</time>
      </trkpt>
      <trkpt lat="42.5661130" lon="-8.1645630">
        <ele>757.6</ele>
        <time>2019-08-18T07:23:06Z</time>
      </trkpt>
      <trkpt lat="42.5661730" lon="-8.1646170">
        <ele>757.1</ele>
        <time>2019-08-18T07:23:07Z</time>
      </trkpt>
      <trkpt lat="42.5661990" lon="-8.1646370">
        <ele>756.9</ele>
        <time>2019-08-18T07:23:08Z</time>
      </trkpt>
      <trkpt lat="42.5662240" lon="-8.1646570">
        <ele>756.7</ele>
        <time>2019-08-18T07:23:09Z</time>
      </trkpt>
      <trkpt lat="42.5662620" lon="-8.1646830">
        <ele>756.4</ele>
        <time>2019-08-18T07:23:10Z</time>
      </trkpt>
      <trkpt lat="42.5663010" lon="-8.1647080">
        <ele>755.9</ele>
        <time>2019-08-18T07:23:11Z</time>
      </trkpt>
      <trkpt lat="42.5663640" lon="-8.1647440">
        <ele>755.1</ele>
        <time>2019-08-18T07:23:12Z</time>
      </trkpt>
      <trkpt lat="42.5663890" lon="-8.1647570">
        <ele>754.8</ele>
        <time>2019-08-18T07:23:13Z</time>
      </trkpt>
      <trkpt lat="42.5664130" lon="-8.1647710">
        <ele>754.4</ele>
        <time>2019-08-18T07:23:14Z</time>
      </trkpt>
      <trkpt lat="42.5664480" lon="-8.1647890">
        <ele>754.0</ele>
        <time>2019-08-18T07:23:15Z</time>
      </trkpt>
      <trkpt lat="42.5664800" lon="-8.1648070">
        <ele>753.5</ele>
        <time>2019-08-18T07:23:16Z</time>
      </trkpt>
      <trkpt lat="42.5665110" lon="-8.1648240">
        <ele>753.2</ele>
        <time>2019-08-18T07:23:17Z</time>
      </trkpt>
      <trkpt lat="42.5665420" lon="-8.1648420">
        <ele>752.9</ele>
        <time>2019-08-18T07:23:18Z</time>
      </trkpt>
      <trkpt lat="42.5665710" lon="-8.1648600">
        <ele>752.6</ele>
        <time>2019-08-18T07:23:19Z</time>
      </trkpt>
      <trkpt lat="42.5666010" lon="-8.1648790">
        <ele>752.3</ele>
        <time>2019-08-18T07:23:20Z</time>
      </trkpt>
      <trkpt lat="42.5666300" lon="-8.1649000">
        <ele>752.0</ele>
        <time>2019-08-18T07:23:21Z</time>
      </trkpt>
      <trkpt lat="42.5666590" lon="-8.1649230">
        <ele>751.7</ele>
        <time>2019-08-18T07:23:22Z</time>
      </trkpt>
      <trkpt lat="42.5666890" lon="-8.1649480">
        <ele>751.3</ele>
        <time>2019-08-18T07:23:23Z</time>
      </trkpt>
      <trkpt lat="42.5667180" lon="-8.1649740">
        <ele>750.9</ele>
        <time>2019-08-18T07:23:24Z</time>
      </trkpt>
      <trkpt lat="42.5667480" lon="-8.1650020">
        <ele>750.4</ele>
        <time>2019-08-18T07:23:25Z</time>
      </trkpt>
      <trkpt lat="42.5667760" lon="-8.1650320">
        <ele>749.9</ele>
        <time>2019-08-18T07:23:26Z</time>
      </trkpt>
      <trkpt lat="42.5668040" lon="-8.1650640">
        <ele>749.4</ele>
        <time>2019-08-18T07:23:27Z</time>
      </trkpt>
      <trkpt lat="42.5668310" lon="-8.1650960">
        <ele>748.9</ele>
        <time>2019-08-18T07:23:28Z</time>
      </trkpt>
      <trkpt lat="42.5668570" lon="-8.1651300">
        <ele>748.4</ele>
        <time>2019-08-18T07:23:29Z</time>
      </trkpt>
      <trkpt lat="42.5668820" lon="-8.1651660">
        <ele>748.0</ele>
        <time>2019-08-18T07:23:30Z</time>
      </trkpt>
      <trkpt lat="42.5669070" lon="-8.1652030">
        <ele>747.5</ele>
        <time>2019-08-18T07:23:31Z</time>
      </trkpt>
      <trkpt lat="42.5669310" lon="-8.1652420">
        <ele>747.0</ele>
        <time>2019-08-18T07:23:32Z</time>
      </trkpt>
      <trkpt lat="42.5669550" lon="-8.1652830">
        <ele>746.5</ele>
        <time>2019-08-18T07:23:33Z</time>
      </trkpt>
      <trkpt lat="42.5669800" lon="-8.1653260">
        <ele>746.0</ele>
        <time>2019-08-18T07:23:34Z</time>
      </trkpt>
      <trkpt lat="42.5670050" lon="-8.1653720">
        <ele>745.6</ele>
        <time>2019-08-18T07:23:35Z</time>
      </trkpt>
      <trkpt lat="42.5670300" lon="-8.1654190">
        <ele>745.1</ele>
        <time>2019-08-18T07:23:36Z</time>
      </trkpt>
      <trkpt lat="42.5670560" lon="-8.1654680">
        <ele>744.8</ele>
        <time>2019-08-18T07:23:37Z</time>
      </trkpt>
      <trkpt lat="42.5670820" lon="-8.1655170">
        <ele>744.5</ele>
        <time>2019-08-18T07:23:38Z</time>
      </trkpt>
      <trkpt lat="42.5671080" lon="-8.1655630">
        <ele>744.2</ele>
        <time>2019-08-18T07:23:39Z</time>
      </trkpt>
      <trkpt lat="42.5671340" lon="-8.1656070">
        <ele>743.9</ele>
        <time>2019-08-18T07:23:40Z</time>
      </trkpt>
      <trkpt lat="42.5671590" lon="-8.1656480">
        <ele>743.6</ele>
        <time>2019-08-18T07:23:41Z</time>
      </trkpt>
      <trkpt lat="42.5671850" lon="-8.1656890">
        <ele>743.4</ele>
        <time>2019-08-18T07:23:42Z</time>
      </trkpt>
      <trkpt lat="42.5672100" lon="-8.1657300">
        <ele>743.1</ele>
        <time>2019-08-18T07:23:43Z</time>
      </trkpt>
      <trkpt lat="42.5672360" lon="-8.1657730">
        <ele>742.8</ele>
        <time>2019-08-18T07:23:44Z</time>
      </trkpt>
      <trkpt lat="42.5672620" lon="-8.1658180">
        <ele>742.6</ele>
        <time>2019-08-18T07:23:45Z</time>
      </trkpt>
      <trkpt lat="42.5672890" lon="-8.1658650">
        <ele>742.3</ele>
        <time>2019-08-18T07:23:46Z</time>
      </trkpt>
      <trkpt lat="42.5673170" lon="-8.1659140">
        <ele>742.0</ele>
        <time>2019-08-18T07:23:47Z</time>
      </trkpt>
      <trkpt lat="42.5673470" lon="-8.1659650">
        <ele>741.7</ele>
        <time>2019-08-18T07:23:48Z</time>
      </trkpt>
      <trkpt lat="42.5673780" lon="-8.1660170">
        <ele>741.4</ele>
        <time>2019-08-18T07:23:49Z</time>
      </trkpt>
      <trkpt lat="42.5674110" lon="-8.1660700">
        <ele>741.1</ele>
        <time>2019-08-18T07:23:50Z</time>
      </trkpt>
      <trkpt lat="42.5674450" lon="-8.1661210">
        <ele>740.8</ele>
        <time>2019-08-18T07:23:51Z</time>
      </trkpt>
      <trkpt lat="42.5674800" lon="-8.1661710">
        <ele>740.4</ele>
        <time>2019-08-18T07:23:52Z</time>
      </trkpt>
      <trkpt lat="42.5675160" lon="-8.1662200">
        <ele>740.0</ele>
        <time>2019-08-18T07:23:53Z</time>
      </trkpt>
      <trkpt lat="42.5675520" lon="-8.1662690">
        <ele>739.7</ele>
        <time>2019-08-18T07:23:54Z</time>
      </trkpt>
      <trkpt lat="42.5675890" lon="-8.1663190">
        <ele>739.5</ele>
        <time>2019-08-18T07:23:55Z</time>
      </trkpt>
      <trkpt lat="42.5676270" lon="-8.1663690">
        <ele>739.3</ele>
        <time>2019-08-18T07:23:56Z</time>
      </trkpt>
      <trkpt lat="42.5676640" lon="-8.1664190">
        <ele>739.1</ele>
        <time>2019-08-18T07:23:57Z</time>
      </trkpt>
      <trkpt lat="42.5677020" lon="-8.1664710">
        <ele>738.9</ele>
        <time>2019-08-18T07:23:58Z</time>
      </trkpt>
      <trkpt lat="42.5677390" lon="-8.1665240">
        <ele>738.7</ele>
        <time>2019-08-18T07:23:59Z</time>
      </trkpt>
      <trkpt lat="42.5677760" lon="-8.1665770">
        <ele>738.5</ele>
        <time>2019-08-18T07:24:00Z</time>
      </trkpt>
      <trkpt lat="42.5678120" lon="-8.1666310">
        <ele>738.3</ele>
        <time>2019-08-18T07:24:01Z</time>
      </trkpt>
      <trkpt lat="42.5678480" lon="-8.1666850">
        <ele>738.1</ele>
        <time>2019-08-18T07:24:02Z</time>
      </trkpt>
      <trkpt lat="42.5678820" lon="-8.1667380">
        <ele>738.0</ele>
        <time>2019-08-18T07:24:03Z</time>
      </trkpt>
      <trkpt lat="42.5679160" lon="-8.1667910">
        <ele>737.8</ele>
        <time>2019-08-18T07:24:04Z</time>
      </trkpt>
      <trkpt lat="42.5679480" lon="-8.1668430">
        <ele>737.6</ele>
        <time>2019-08-18T07:24:05Z</time>
      </trkpt>
      <trkpt lat="42.5679780" lon="-8.1668960">
        <ele>737.4</ele>
        <time>2019-08-18T07:24:06Z</time>
      </trkpt>
      <trkpt lat="42.5680060" lon="-8.1669510">
        <ele>737.1</ele>
        <time>2019-08-18T07:24:07Z</time>
      </trkpt>
      <trkpt lat="42.5680300" lon="-8.1670120">
        <ele>736.8</ele>
        <time>2019-08-18T07:24:08Z</time>
      </trkpt>
      <trkpt lat="42.5680510" lon="-8.1670780">
        <ele>736.6</ele>
        <time>2019-08-18T07:24:09Z</time>
      </trkpt>
      <trkpt lat="42.5680680" lon="-8.1671480">
        <ele>736.3</ele>
        <time>2019-08-18T07:24:10Z</time>
      </trkpt>
      <trkpt lat="42.5680820" lon="-8.1672200">
        <ele>736.1</ele>
        <time>2019-08-18T07:24:11Z</time>
      </trkpt>
      <trkpt lat="42.5680950" lon="-8.1672920">
        <ele>735.9</ele>
        <time>2019-08-18T07:24:12Z</time>
      </trkpt>
      <trkpt lat="42.5681060" lon="-8.1673620">
        <ele>735.7</ele>
        <time>2019-08-18T07:24:13Z</time>
      </trkpt>
      <trkpt lat="42.5681170" lon="-8.1674300">
        <ele>735.3</ele>
        <time>2019-08-18T07:24:14Z</time>
      </trkpt>
      <trkpt lat="42.5681290" lon="-8.1674970">
        <ele>734.9</ele>
        <time>2019-08-18T07:24:15Z</time>
      </trkpt>
      <trkpt lat="42.5681420" lon="-8.1675630">
        <ele>734.6</ele>
        <time>2019-08-18T07:24:16Z</time>
      </trkpt>
      <trkpt lat="42.5681570" lon="-8.1676270">
        <ele>734.3</ele>
        <time>2019-08-18T07:24:17Z</time>
      </trkpt>
      <trkpt lat="42.5681740" lon="-8.1676900">
        <ele>734.0</ele>
        <time>2019-08-18T07:24:18Z</time>
      </trkpt>
      <trkpt lat="42.5681930" lon="-8.1677510">
        <ele>733.7</ele>
        <time>2019-08-18T07:24:19Z</time>
      </trkpt>
      <trkpt lat="42.5682130" lon="-8.1678080">
        <ele>733.4</ele>
        <time>2019-08-18T07:24:20Z</time>
      </trkpt>
      <trkpt lat="42.5682340" lon="-8.1678610">
        <ele>733.1</ele>
        <time>2019-08-18T07:24:21Z</time>
      </trkpt>
      <trkpt lat="42.5682560" lon="-8.1679110">
        <ele>732.9</ele>
        <time>2019-08-18T07:24:22Z</time>
      </trkpt>
      <trkpt lat="42.5682790" lon="-8.1679590">
        <ele>732.6</ele>
        <time>2019-08-18T07:24:23Z</time>
      </trkpt>
      <trkpt lat="42.5683030" lon="-8.1680040">
        <ele>732.4</ele>
        <time>2019-08-18T07:24:24Z</time>
      </trkpt>
      <trkpt lat="42.5683280" lon="-8.1680480">
        <ele>732.1</ele>
        <time>2019-08-18T07:24:25Z</time>
      </trkpt>
      <trkpt lat="42.5683540" lon="-8.1680910">
        <ele>731.9</ele>
        <time>2019-08-18T07:24:26Z</time>
      </trkpt>
      <trkpt lat="42.5683810" lon="-8.1681320">
        <ele>731.6</ele>
        <time>2019-08-18T07:24:27Z</time>
      </trkpt>
      <trkpt lat="42.5684080" lon="-8.1681730">
        <ele>731.4</ele>
        <time>2019-08-18T07:24:28Z</time>
      </trkpt>
      <trkpt lat="42.5684360" lon="-8.1682130">
        <ele>731.1</ele>
        <time>2019-08-18T07:24:29Z</time>
      </trkpt>
      <trkpt lat="42.5684640" lon="-8.1682520">
        <ele>730.9</ele>
        <time>2019-08-18T07:24:30Z</time>
      </trkpt>
      <trkpt lat="42.5684930" lon="-8.1682900">
        <ele>730.6</ele>
        <time>2019-08-18T07:24:31Z</time>
      </trkpt>
      <trkpt lat="42.5685230" lon="-8.1683280">
        <ele>730.2</ele>
        <time>2019-08-18T07:24:32Z</time>
      </trkpt>
      <trkpt lat="42.5685530" lon="-8.1683640">
        <ele>729.9</ele>
        <time>2019-08-18T07:24:33Z</time>
      </trkpt>
      <trkpt lat="42.5685830" lon="-8.1684010">
        <ele>729.6</ele>
        <time>2019-08-18T07:24:34Z</time>
      </trkpt>
      <trkpt lat="42.5686140" lon="-8.1684370">
        <ele>729.2</ele>
        <time>2019-08-18T07:24:35Z</time>
      </trkpt>
      <trkpt lat="42.5686440" lon="-8.1684730">
        <ele>728.9</ele>
        <time>2019-08-18T07:24:36Z</time>
      </trkpt>
      <trkpt lat="42.5686740" lon="-8.1685100">
        <ele>728.5</ele>
        <time>2019-08-18T07:24:37Z</time>
      </trkpt>
      <trkpt lat="42.5687020" lon="-8.1685480">
        <ele>728.1</ele>
        <time>2019-08-18T07:24:38Z</time>
      </trkpt>
      <trkpt lat="42.5687290" lon="-8.1685870">
        <ele>727.7</ele>
        <time>2019-08-18T07:24:39Z</time>
      </trkpt>
      <trkpt lat="42.5687550" lon="-8.1686260">
        <ele>727.3</ele>
        <time>2019-08-18T07:24:40Z</time>
      </trkpt>
      <trkpt lat="42.5687800" lon="-8.1686640">
        <ele>726.9</ele>
        <time>2019-08-18T07:24:41Z</time>
      </trkpt>
      <trkpt lat="42.5688030" lon="-8.1687020">
        <ele>726.5</ele>
        <time>2019-08-18T07:24:42Z</time>
      </trkpt>
      <trkpt lat="42.5688240" lon="-8.1687390">
        <ele>726.1</ele>
        <time>2019-08-18T07:24:43Z</time>
      </trkpt>
      <trkpt lat="42.5688460" lon="-8.1687760">
        <ele>725.9</ele>
        <time>2019-08-18T07:24:44Z</time>
      </trkpt>
      <trkpt lat="42.5688680" lon="-8.1688130">
        <ele>725.6</ele>
        <time>2019-08-18T07:24:45Z</time>
      </trkpt>
      <trkpt lat="42.5688910" lon="-8.1688500">
        <ele>725.3</ele>
        <time>2019-08-18T07:24:46Z</time>
      </trkpt>
      <trkpt lat="42.5689150" lon="-8.1688860">
        <ele>725.1</ele>
        <time>2019-08-18T07:24:47Z</time>
      </trkpt>
      <trkpt lat="42.5689410" lon="-8.1689240">
        <ele>724.8</ele>
        <time>2019-08-18T07:24:48Z</time>
      </trkpt>
      <trkpt lat="42.5689700" lon="-8.1689610">
        <ele>724.5</ele>
        <time>2019-08-18T07:24:49Z</time>
      </trkpt>
      <trkpt lat="42.5690000" lon="-8.1690000">
        <ele>724.2</ele>
        <time>2019-08-18T07:24:50Z</time>
      </trkpt>
      <trkpt lat="42.5690330" lon="-8.1690400">
        <ele>723.9</ele>
        <time>2019-08-18T07:24:51Z</time>
      </trkpt>
      <trkpt lat="42.5690840" lon="-8.1691020">
        <ele>723.4</ele>
        <time>2019-08-18T07:24:52Z</time>
      </trkpt>
      <trkpt lat="42.5691010" lon="-8.1691240">
        <ele>723.2</ele>
        <time>2019-08-18T07:24:53Z</time>
      </trkpt>
      <trkpt lat="42.5691350" lon="-8.1691690">
        <ele>722.9</ele>
        <time>2019-08-18T07:24:54Z</time>
      </trkpt>
      <trkpt lat="42.5691690" lon="-8.1692160">
        <ele>722.6</ele>
        <time>2019-08-18T07:24:55Z</time>
      </trkpt>
      <trkpt lat="42.5692010" lon="-8.1692670">
        <ele>722.3</ele>
        <time>2019-08-18T07:24:56Z</time>
      </trkpt>
      <trkpt lat="42.5692330" lon="-8.1693200">
        <ele>721.9</ele>
        <time>2019-08-18T07:24:57Z</time>
      </trkpt>
      <trkpt lat="42.5692630" lon="-8.1693760">
        <ele>721.6</ele>
        <time>2019-08-18T07:24:58Z</time>
      </trkpt>
      <trkpt lat="42.5692930" lon="-8.1694340">
        <ele>721.2</ele>
        <time>2019-08-18T07:24:59Z</time>
      </trkpt>
      <trkpt lat="42.5693220" lon="-8.1694940">
        <ele>720.8</ele>
        <time>2019-08-18T07:25:00Z</time>
      </trkpt>
      <trkpt lat="42.5693520" lon="-8.1695560">
        <ele>720.3</ele>
        <time>2019-08-18T07:25:01Z</time>
      </trkpt>
      <trkpt lat="42.5693830" lon="-8.1696200">
        <ele>719.8</ele>
        <time>2019-08-18T07:25:02Z</time>
      </trkpt>
      <trkpt lat="42.5694160" lon="-8.1696850">
        <ele>719.3</ele>
        <time>2019-08-18T07:25:03Z</time>
      </trkpt>
      <trkpt lat="42.5694500" lon="-8.1697510">
        <ele>719.0</ele>
        <time>2019-08-18T07:25:04Z</time>
      </trkpt>
      <trkpt lat="42.5694840" lon="-8.1698180">
        <ele>718.6</ele>
        <time>2019-08-18T07:25:05Z</time>
      </trkpt>
      <trkpt lat="42.5695190" lon="-8.1698840">
        <ele>718.2</ele>
        <time>2019-08-18T07:25:06Z</time>
      </trkpt>
      <trkpt lat="42.5695530" lon="-8.1699500">
        <ele>717.8</ele>
        <time>2019-08-18T07:25:07Z</time>
      </trkpt>
      <trkpt lat="42.5695850" lon="-8.1700150">
        <ele>717.4</ele>
        <time>2019-08-18T07:25:08Z</time>
      </trkpt>
      <trkpt lat="42.5696160" lon="-8.1700770">
        <ele>717.1</ele>
        <time>2019-08-18T07:25:09Z</time>
      </trkpt>
      <trkpt lat="42.5696460" lon="-8.1701350">
        <ele>716.7</ele>
        <time>2019-08-18T07:25:10Z</time>
      </trkpt>
      <trkpt lat="42.5696760" lon="-8.1701870">
        <ele>716.3</ele>
        <time>2019-08-18T07:25:11Z</time>
      </trkpt>
      <trkpt lat="42.5697070" lon="-8.1702320">
        <ele>715.8</ele>
        <time>2019-08-18T07:25:12Z</time>
      </trkpt>
      <trkpt lat="42.5697380" lon="-8.1702710">
        <ele>715.8</ele>
        <time>2019-08-18T07:25:13Z</time>
      </trkpt>
      <trkpt lat="42.5697710" lon="-8.1703050">
        <ele>715.9</ele>
        <time>2019-08-18T07:25:14Z</time>
      </trkpt>
      <trkpt lat="42.5698060" lon="-8.1703360">
        <ele>716.0</ele>
        <time>2019-08-18T07:25:15Z</time>
      </trkpt>
      <trkpt lat="42.5698410" lon="-8.1703660">
        <ele>716.0</ele>
        <time>2019-08-18T07:25:16Z</time>
      </trkpt>
      <trkpt lat="42.5698770" lon="-8.1703960">
        <ele>716.1</ele>
        <time>2019-08-18T07:25:17Z</time>
      </trkpt>
      <trkpt lat="42.5699120" lon="-8.1704290">
        <ele>716.1</ele>
        <time>2019-08-18T07:25:18Z</time>
      </trkpt>
      <trkpt lat="42.5699450" lon="-8.1704680">
        <ele>716.2</ele>
        <time>2019-08-18T07:25:19Z</time>
      </trkpt>
      <trkpt lat="42.5699760" lon="-8.1705130">
        <ele>716.3</ele>
        <time>2019-08-18T07:25:20Z</time>
      </trkpt>
      <trkpt lat="42.5700050" lon="-8.1705610">
        <ele>716.1</ele>
        <time>2019-08-18T07:25:21Z</time>
      </trkpt>
      <trkpt lat="42.5700310" lon="-8.1706140">
        <ele>715.9</ele>
        <time>2019-08-18T07:25:22Z</time>
      </trkpt>
      <trkpt lat="42.5700560" lon="-8.1706680">
        <ele>715.6</ele>
        <time>2019-08-18T07:25:23Z</time>
      </trkpt>
      <trkpt lat="42.5700780" lon="-8.1707240">
        <ele>715.4</ele>
        <time>2019-08-18T07:25:24Z</time>
      </trkpt>
      <trkpt lat="42.5700990" lon="-8.1707780">
        <ele>715.1</ele>
        <time>2019-08-18T07:25:25Z</time>
      </trkpt>
      <trkpt lat="42.5701190" lon="-8.1708300">
        <ele>715.0</ele>
        <time>2019-08-18T07:25:26Z</time>
      </trkpt>
      <trkpt lat="42.5701380" lon="-8.1708790">
        <ele>715.0</ele>
        <time>2019-08-18T07:25:27Z</time>
      </trkpt>
      <trkpt lat="42.5701590" lon="-8.1709270">
        <ele>715.0</ele>
        <time>2019-08-18T07:25:28Z</time>
      </trkpt>
      <trkpt lat="42.5701810" lon="-8.1709750">
        <ele>714.9</ele>
        <time>2019-08-18T07:25:29Z</time>
      </trkpt>
      <trkpt lat="42.5702060" lon="-8.1710240">
        <ele>714.9</ele>
        <time>2019-08-18T07:25:30Z</time>
      </trkpt>
      <trkpt lat="42.5702340" lon="-8.1710740">
        <ele>714.9</ele>
        <time>2019-08-18T07:25:31Z</time>
      </trkpt>
      <trkpt lat="42.5702630" lon="-8.1711250">
        <ele>714.9</ele>
        <time>2019-08-18T07:25:32Z</time>
      </trkpt>
      <trkpt lat="42.5702940" lon="-8.1711790">
        <ele>714.8</ele>
        <time>2019-08-18T07:25:33Z</time>
      </trkpt>
      <trkpt lat="42.5703250" lon="-8.1712350">
        <ele>714.8</ele>
        <time>2019-08-18T07:25:34Z</time>
      </trkpt>
      <trkpt lat="42.5703570" lon="-8.1712930">
        <ele>714.7</ele>
        <time>2019-08-18T07:25:35Z</time>
      </trkpt>
      <trkpt lat="42.5703910" lon="-8.1713520">
        <ele>714.7</ele>
        <time>2019-08-18T07:25:36Z</time>
      </trkpt>
      <trkpt lat="42.5704430" lon="-8.1714430">
        <ele>714.5</ele>
        <time>2019-08-18T07:25:37Z</time>
      </trkpt>
      <trkpt lat="42.5704610" lon="-8.1714740">
        <ele>714.5</ele>
        <time>2019-08-18T07:25:38Z</time>
      </trkpt>
      <trkpt lat="42.5704990" lon="-8.1715360">
        <ele>714.4</ele>
        <time>2019-08-18T07:25:39Z</time>
      </trkpt>
      <trkpt lat="42.5705380" lon="-8.1715980">
        <ele>714.4</ele>
        <time>2019-08-18T07:25:40Z</time>
      </trkpt>
      <trkpt lat="42.5705790" lon="-8.1716590">
        <ele>714.3</ele>
        <time>2019-08-18T07:25:41Z</time>
      </trkpt>
      <trkpt lat="42.5706210" lon="-8.1717210">
        <ele>714.2</ele>
        <time>2019-08-18T07:25:42Z</time>
      </trkpt>
      <trkpt lat="42.5706650" lon="-8.1717830">
        <ele>714.1</ele>
        <time>2019-08-18T07:25:43Z</time>
      </trkpt>
      <trkpt lat="42.5707100" lon="-8.1718440">
        <ele>714.0</ele>
        <time>2019-08-18T07:25:44Z</time>
      </trkpt>
      <trkpt lat="42.5707560" lon="-8.1719050">
        <ele>713.8</ele>
        <time>2019-08-18T07:25:45Z</time>
      </trkpt>
      <trkpt lat="42.5708030" lon="-8.1719650">
        <ele>713.7</ele>
        <time>2019-08-18T07:25:46Z</time>
      </trkpt>
      <trkpt lat="42.5708500" lon="-8.1720250">
        <ele>713.6</ele>
        <time>2019-08-18T07:25:47Z</time>
      </trkpt>
      <trkpt lat="42.5708980" lon="-8.1720850">
        <ele>713.5</ele>
        <time>2019-08-18T07:25:48Z</time>
      </trkpt>
      <trkpt lat="42.5709460" lon="-8.1721440">
        <ele>713.4</ele>
        <time>2019-08-18T07:25:49Z</time>
      </trkpt>
      <trkpt lat="42.5709950" lon="-8.1722030">
        <ele>713.2</ele>
        <time>2019-08-18T07:25:50Z</time>
      </trkpt>
      <trkpt lat="42.5710430" lon="-8.1722610">
        <ele>713.1</ele>
        <time>2019-08-18T07:25:51Z</time>
      </trkpt>
      <trkpt lat="42.5710920" lon="-8.1723200">
        <ele>713.0</ele>
        <time>2019-08-18T07:25:52Z</time>
      </trkpt>
      <trkpt lat="42.5711400" lon="-8.1723790">
        <ele>712.9</ele>
        <time>2019-08-18T07:25:53Z</time>
      </trkpt>
      <trkpt lat="42.5711890" lon="-8.1724380">
        <ele>712.8</ele>
        <time>2019-08-18T07:25:54Z</time>
      </trkpt>
      <trkpt lat="42.5712370" lon="-8.1724970">
        <ele>712.6</ele>
        <time>2019-08-18T07:25:55Z</time>
      </trkpt>
      <trkpt lat="42.5712840" lon="-8.1725570">
        <ele>712.5</ele>
        <time>2019-08-18T07:25:56Z</time>
      </trkpt>
      <trkpt lat="42.5713310" lon="-8.1726160">
        <ele>712.4</ele>
        <time>2019-08-18T07:25:57Z</time>
      </trkpt>
      <trkpt lat="42.5713770" lon="-8.1726740">
        <ele>712.3</ele>
        <time>2019-08-18T07:25:58Z</time>
      </trkpt>
      <trkpt lat="42.5714220" lon="-8.1727320">
        <ele>712.1</ele>
        <time>2019-08-18T07:25:59Z</time>
      </trkpt>
      <trkpt lat="42.5714660" lon="-8.1727880">
        <ele>712.1</ele>
        <time>2019-08-18T07:26:00Z</time>
      </trkpt>
      <trkpt lat="42.5715080" lon="-8.1728430">
        <ele>712.0</ele>
        <time>2019-08-18T07:26:01Z</time>
      </trkpt>
      <trkpt lat="42.5715490" lon="-8.1728960">
        <ele>711.9</ele>
        <time>2019-08-18T07:26:02Z</time>
      </trkpt>
      <trkpt lat="42.5715890" lon="-8.1729470">
        <ele>711.9</ele>
        <time>2019-08-18T07:26:03Z</time>
      </trkpt>
      <trkpt lat="42.5716280" lon="-8.1729970">
        <ele>711.8</ele>
        <time>2019-08-18T07:26:04Z</time>
      </trkpt>
      <trkpt lat="42.5716650" lon="-8.1730460">
        <ele>711.7</ele>
        <time>2019-08-18T07:26:05Z</time>
      </trkpt>
      <trkpt lat="42.5717010" lon="-8.1730930">
        <ele>711.7</ele>
        <time>2019-08-18T07:26:06Z</time>
      </trkpt>
      <trkpt lat="42.5717350" lon="-8.1731400">
        <ele>711.6</ele>
        <time>2019-08-18T07:26:07Z</time>
      </trkpt>
      <trkpt lat="42.5717690" lon="-8.1731860">
        <ele>711.5</ele>
        <time>2019-08-18T07:26:08Z</time>
      </trkpt>
      <trkpt lat="42.5718010" lon="-8.1732320">
        <ele>711.4</ele>
        <time>2019-08-18T07:26:09Z</time>
      </trkpt>
      <trkpt lat="42.5718330" lon="-8.1732780">
        <ele>711.3</ele>
        <time>2019-08-18T07:26:10Z</time>
      </trkpt>
      <trkpt lat="42.5718640" lon="-8.1733230">
        <ele>711.2</ele>
        <time>2019-08-18T07:26:11Z</time>
      </trkpt>
      <trkpt lat="42.5718940" lon="-8.1733660">
        <ele>711.2</ele>
        <time>2019-08-18T07:26:12Z</time>
      </trkpt>
      <trkpt lat="42.5719250" lon="-8.1734070">
        <ele>711.1</ele>
        <time>2019-08-18T07:26:13Z</time>
      </trkpt>
      <trkpt lat="42.5719560" lon="-8.1734460">
        <ele>711.0</ele>
        <time>2019-08-18T07:26:14Z</time>
      </trkpt>
      <trkpt lat="42.5719880" lon="-8.1734840">
        <ele>711.0</ele>
        <time>2019-08-18T07:26:15Z</time>
      </trkpt>
      <trkpt lat="42.5720220" lon="-8.1735220">
        <ele>710.9</ele>
        <time>2019-08-18T07:26:16Z</time>
      </trkpt>
      <trkpt lat="42.5720580" lon="-8.1735630">
        <ele>710.9</ele>
        <time>2019-08-18T07:26:17Z</time>
      </trkpt>
      <trkpt lat="42.5720960" lon="-8.1736060">
        <ele>710.8</ele>
        <time>2019-08-18T07:26:18Z</time>
      </trkpt>
      <trkpt lat="42.5721340" lon="-8.1736510">
        <ele>710.7</ele>
        <time>2019-08-18T07:26:19Z</time>
      </trkpt>
      <trkpt lat="42.5721720" lon="-8.1736970">
        <ele>710.7</ele>
        <time>2019-08-18T07:26:20Z</time>
      </trkpt>
      <trkpt lat="42.5722090" lon="-8.1737440">
        <ele>710.6</ele>
        <time>2019-08-18T07:26:21Z</time>
      </trkpt>
      <trkpt lat="42.5722460" lon="-8.1737920">
        <ele>710.6</ele>
        <time>2019-08-18T07:26:22Z</time>
      </trkpt>
      <trkpt lat="42.5722830" lon="-8.1738390">
        <ele>710.6</ele>
        <time>2019-08-18T07:26:23Z</time>
      </trkpt>
      <trkpt lat="42.5723200" lon="-8.1738860">
        <ele>710.5</ele>
        <time>2019-08-18T07:26:24Z</time>
      </trkpt>
      <trkpt lat="42.5723580" lon="-8.1739310">
        <ele>710.5</ele>
        <time>2019-08-18T07:26:25Z</time>
      </trkpt>
      <trkpt lat="42.5723960" lon="-8.1739750">
        <ele>710.5</ele>
        <time>2019-08-18T07:26:26Z</time>
      </trkpt>
      <trkpt lat="42.5724340" lon="-8.1740180">
        <ele>710.5</ele>
        <time>2019-08-18T07:26:27Z</time>
      </trkpt>
      <trkpt lat="42.5724720" lon="-8.1740590">
        <ele>710.5</ele>
        <time>2019-08-18T07:26:28Z</time>
      </trkpt>
      <trkpt lat="42.5725100" lon="-8.1740980">
        <ele>710.4</ele>
        <time>2019-08-18T07:26:29Z</time>
      </trkpt>
      <trkpt lat="42.5725480" lon="-8.1741380">
        <ele>710.4</ele>
        <time>2019-08-18T07:26:30Z</time>
      </trkpt>
      <trkpt lat="42.5725860" lon="-8.1741790">
        <ele>710.4</ele>
        <time>2019-08-18T07:26:31Z</time>
      </trkpt>
      <trkpt lat="42.5726250" lon="-8.1742200">
        <ele>710.4</ele>
        <time>2019-08-18T07:26:32Z</time>
      </trkpt>
      <trkpt lat="42.5726630" lon="-8.1742620">
        <ele>710.3</ele>
        <time>2019-08-18T07:26:33Z</time>
      </trkpt>
      <trkpt lat="42.5727030" lon="-8.1743040">
        <ele>710.3</ele>
        <time>2019-08-18T07:26:34Z</time>
      </trkpt>
      <trkpt lat="42.5727420" lon="-8.1743470">
        <ele>710.3</ele>
        <time>2019-08-18T07:26:35Z</time>
      </trkpt>
      <trkpt lat="42.5727820" lon="-8.1743890">
        <ele>710.2</ele>
        <time>2019-08-18T07:26:36Z</time>
      </trkpt>
      <trkpt lat="42.5728230" lon="-8.1744310">
        <ele>710.2</ele>
        <time>2019-08-18T07:26:37Z</time>
      </trkpt>
      <trkpt lat="42.5728650" lon="-8.1744730">
        <ele>710.2</ele>
        <time>2019-08-18T07:26:38Z</time>
      </trkpt>
      <trkpt lat="42.5729070" lon="-8.1745140">
        <ele>710.1</ele>
        <time>2019-08-18T07:26:39Z</time>
      </trkpt>
      <trkpt lat="42.5729490" lon="-8.1745540">
        <ele>710.1</ele>
        <time>2019-08-18T07:26:40Z</time>
      </trkpt>
      <trkpt lat="42.5729930" lon="-8.1745940">
        <ele>710.0</ele>
        <time>2019-08-18T07:26:41Z</time>
      </trkpt>
      <trkpt lat="42.5730370" lon="-8.1746310">
        <ele>710.0</ele>
        <time>2019-08-18T07:26:42Z</time>
      </trkpt>
      <trkpt lat="42.5730830" lon="-8.1746680">
        <ele>710.0</ele>
        <time>2019-08-18T07:26:43Z</time>
      </trkpt>
      <trkpt lat="42.5731290" lon="-8.1747020">
        <ele>709.9</ele>
        <time>2019-08-18T07:26:44Z</time>
      </trkpt>
      <trkpt lat="42.5731770" lon="-8.1747350">
        <ele>709.9</ele>
        <time>2019-08-18T07:26:45Z</time>
      </trkpt>
      <trkpt lat="42.5732250" lon="-8.1747660">
        <ele>709.8</ele>
        <time>2019-08-18T07:26:46Z</time>
      </trkpt>
      <trkpt lat="42.5732750" lon="-8.1747940">
        <ele>709.8</ele>
        <time>2019-08-18T07:26:47Z</time>
      </trkpt>
      <trkpt lat="42.5733250" lon="-8.1748210">
        <ele>709.7</ele>
        <time>2019-08-18T07:26:48Z</time>
      </trkpt>
      <trkpt lat="42.5733760" lon="-8.1748460">
        <ele>709.7</ele>
        <time>2019-08-18T07:26:49Z</time>
      </trkpt>
      <trkpt lat="42.5734290" lon="-8.1748690">
        <ele>709.6</ele>
        <time>2019-08-18T07:26:50Z</time>
      </trkpt>
      <trkpt lat="42.5734810" lon="-8.1748900">
        <ele>709.6</ele>
        <time>2019-08-18T07:26:51Z</time>
      </trkpt>
      <trkpt lat="42.5735350" lon="-8.1749100">
        <ele>709.5</ele>
        <time>2019-08-18T07:26:52Z</time>
      </trkpt>
      <trkpt lat="42.5735890" lon="-8.1749280">
        <ele>709.5</ele>
        <time>2019-08-18T07:26:53Z</time>
      </trkpt>
      <trkpt lat="42.5736440" lon="-8.1749450">
        <ele>709.4</ele>
        <time>2019-08-18T07:26:54Z</time>
      </trkpt>
      <trkpt lat="42.5737000" lon="-8.1749610">
        <ele>709.4</ele>
        <time>2019-08-18T07:26:55Z</time>
      </trkpt>
      <trkpt lat="42.5737570" lon="-8.1749760">
        <ele>708.7</ele>
        <time>2019-08-18T07:26:56Z</time>
      </trkpt>
      <trkpt lat="42.5738150" lon="-8.1749900">
        <ele>708.3</ele>
        <time>2019-08-18T07:26:57Z</time>
      </trkpt>
      <trkpt lat="42.5738750" lon="-8.1750030">
        <ele>707.9</ele>
        <time>2019-08-18T07:26:58Z</time>
      </trkpt>
      <trkpt lat="42.5739370" lon="-8.1750170">
        <ele>707.5</ele>
        <time>2019-08-18T07:26:59Z</time>
      </trkpt>
      <trkpt lat="42.5740020" lon="-8.1750300">
        <ele>707.1</ele>
        <time>2019-08-18T07:27:00Z</time>
      </trkpt>
      <trkpt lat="42.5740680" lon="-8.1750430">
        <ele>706.8</ele>
        <time>2019-08-18T07:27:01Z</time>
      </trkpt>
      <trkpt lat="42.5741370" lon="-8.1750570">
        <ele>706.5</ele>
        <time>2019-08-18T07:27:02Z</time>
      </trkpt>
      <trkpt lat="42.5742080" lon="-8.1750710">
        <ele>706.3</ele>
        <time>2019-08-18T07:27:03Z</time>
      </trkpt>
      <trkpt lat="42.5742800" lon="-8.1750860">
        <ele>706.1</ele>
        <time>2019-08-18T07:27:04Z</time>
      </trkpt>
      <trkpt lat="42.5743540" lon="-8.1751020">
        <ele>705.9</ele>
        <time>2019-08-18T07:27:05Z</time>
      </trkpt>
      <trkpt lat="42.5744280" lon="-8.1751190">
        <ele>705.8</ele>
        <time>2019-08-18T07:27:06Z</time>
      </trkpt>
      <trkpt lat="42.5745030" lon="-8.1751380">
        <ele>705.6</ele>
        <time>2019-08-18T07:27:07Z</time>
      </trkpt>
      <trkpt lat="42.5745770" lon="-8.1751580">
        <ele>705.5</ele>
        <time>2019-08-18T07:27:08Z</time>
      </trkpt>
      <trkpt lat="42.5746520" lon="-8.1751800">
        <ele>705.3</ele>
        <time>2019-08-18T07:27:09Z</time>
      </trkpt>
      <trkpt lat="42.5747260" lon="-8.1752020">
        <ele>705.0</ele>
        <time>2019-08-18T07:27:10Z</time>
      </trkpt>
      <trkpt lat="42.5747980" lon="-8.1752240">
        <ele>704.7</ele>
        <time>2019-08-18T07:27:11Z</time>
      </trkpt>
      <trkpt lat="42.5748690" lon="-8.1752440">
        <ele>704.3</ele>
        <time>2019-08-18T07:27:12Z</time>
      </trkpt>
      <trkpt lat="42.5749380" lon="-8.1752610">
        <ele>704.0</ele>
        <time>2019-08-18T07:27:13Z</time>
      </trkpt>
      <trkpt lat="42.5750050" lon="-8.1752790">
        <ele>703.7</ele>
        <time>2019-08-18T07:27:14Z</time>
      </trkpt>
      <trkpt lat="42.5750700" lon="-8.1753010">
        <ele>703.2</ele>
        <time>2019-08-18T07:27:15Z</time>
      </trkpt>
      <trkpt lat="42.5751350" lon="-8.1753290">
        <ele>702.8</ele>
        <time>2019-08-18T07:27:16Z</time>
      </trkpt>
      <trkpt lat="42.5751990" lon="-8.1753620">
        <ele>702.3</ele>
        <time>2019-08-18T07:27:17Z</time>
      </trkpt>
      <trkpt lat="42.5752630" lon="-8.1753970">
        <ele>701.8</ele>
        <time>2019-08-18T07:27:18Z</time>
      </trkpt>
      <trkpt lat="42.5753280" lon="-8.1754320">
        <ele>701.3</ele>
        <time>2019-08-18T07:27:19Z</time>
      </trkpt>
      <trkpt lat="42.5753940" lon="-8.1754640">
        <ele>700.8</ele>
        <time>2019-08-18T07:27:20Z</time>
      </trkpt>
      <trkpt lat="42.5754610" lon="-8.1754960">
        <ele>700.2</ele>
        <time>2019-08-18T07:27:21Z</time>
      </trkpt>
      <trkpt lat="42.5755300" lon="-8.1755300">
        <ele>699.7</ele>
        <time>2019-08-18T07:27:22Z</time>
      </trkpt>
      <trkpt lat="42.5756000" lon="-8.1755680">
        <ele>699.1</ele>
        <time>2019-08-18T07:27:23Z</time>
      </trkpt>
      <trkpt lat="42.5756710" lon="-8.1756110">
        <ele>698.5</ele>
        <time>2019-08-18T07:27:24Z</time>
      </trkpt>
      <trkpt lat="42.5757440" lon="-8.1756580">
        <ele>697.9</ele>
        <time>2019-08-18T07:27:25Z</time>
      </trkpt>
      <trkpt lat="42.5758170" lon="-8.1757090">
        <ele>697.3</ele>
        <time>2019-08-18T07:27:26Z</time>
      </trkpt>
      <trkpt lat="42.5758910" lon="-8.1757650">
        <ele>696.7</ele>
        <time>2019-08-18T07:27:27Z</time>
      </trkpt>
      <trkpt lat="42.5759660" lon="-8.1758240">
        <ele>696.2</ele>
        <time>2019-08-18T07:27:28Z</time>
      </trkpt>
      <trkpt lat="42.5760410" lon="-8.1758880">
        <ele>695.8</ele>
        <time>2019-08-18T07:27:29Z</time>
      </trkpt>
      <trkpt lat="42.5761160" lon="-8.1759560">
        <ele>695.4</ele>
        <time>2019-08-18T07:27:30Z</time>
      </trkpt>
      <trkpt lat="42.5761900" lon="-8.1760280">
        <ele>695.1</ele>
        <time>2019-08-18T07:27:31Z</time>
      </trkpt>
      <trkpt lat="42.5762620" lon="-8.1761060">
        <ele>694.7</ele>
        <time>2019-08-18T07:27:32Z</time>
      </trkpt>
      <trkpt lat="42.5763320" lon="-8.1761900">
        <ele>694.3</ele>
        <time>2019-08-18T07:27:33Z</time>
      </trkpt>
      <trkpt lat="42.5763980" lon="-8.1762800">
        <ele>693.8</ele>
        <time>2019-08-18T07:27:34Z</time>
      </trkpt>
      <trkpt lat="42.5764610" lon="-8.1763740">
        <ele>693.3</ele>
        <time>2019-08-18T07:27:35Z</time>
      </trkpt>
      <trkpt lat="42.5765220" lon="-8.1764700">
        <ele>692.8</ele>
        <time>2019-08-18T07:27:36Z</time>
      </trkpt>
      <trkpt lat="42.5765820" lon="-8.1765640">
        <ele>692.3</ele>
        <time>2019-08-18T07:27:37Z</time>
      </trkpt>
      <trkpt lat="42.5766420" lon="-8.1766540">
        <ele>691.8</ele>
        <time>2019-08-18T07:27:38Z</time>
      </trkpt>
      <trkpt lat="42.5767020" lon="-8.1767410">
        <ele>691.3</ele>
        <time>2019-08-18T07:27:39Z</time>
      </trkpt>
      <trkpt lat="42.5767630" lon="-8.1768260">
        <ele>690.8</ele>
        <time>2019-08-18T07:27:40Z</time>
      </trkpt>
      <trkpt lat="42.5768240" lon="-8.1769110">
        <ele>690.3</ele>
        <time>2019-08-18T07:27:41Z</time>
      </trkpt>
      <trkpt lat="42.5768860" lon="-8.1769960">
        <ele>689.8</ele>
        <time>2019-08-18T07:27:42Z</time>
      </trkpt>
      <trkpt lat="42.5769490" lon="-8.1770820">
        <ele>689.3</ele>
        <time>2019-08-18T07:27:43Z</time>
      </trkpt>
      <trkpt lat="42.5770100" lon="-8.1771680">
        <ele>688.9</ele>
        <time>2019-08-18T07:27:44Z</time>
      </trkpt>
      <trkpt lat="42.5770710" lon="-8.1772540">
        <ele>688.4</ele>
        <time>2019-08-18T07:27:45Z</time>
      </trkpt>
      <trkpt lat="42.5771320" lon="-8.1773410">
        <ele>687.9</ele>
        <time>2019-08-18T07:27:46Z</time>
      </trkpt>
      <trkpt lat="42.5771920" lon="-8.1774270">
        <ele>687.4</ele>
        <time>2019-08-18T07:27:47Z</time>
      </trkpt>
      <trkpt lat="42.5772520" lon="-8.1775130">
        <ele>686.7</ele>
        <time>2019-08-18T07:27:48Z</time>
      </trkpt>
      <trkpt lat="42.5773130" lon="-8.1775990">
        <ele>686.1</ele>
        <time>2019-08-18T07:27:49Z</time>
      </trkpt>
      <trkpt lat="42.5773740" lon="-8.1776860">
        <ele>685.4</ele>
        <time>2019-08-18T07:27:50Z</time>
      </trkpt>
      <trkpt lat="42.5774380" lon="-8.1777710">
        <ele>684.8</ele>
        <time>2019-08-18T07:27:51Z</time>
      </trkpt>
      <trkpt lat="42.5775030" lon="-8.1778570">
        <ele>684.1</ele>
        <time>2019-08-18T07:27:52Z</time>
      </trkpt>
      <trkpt lat="42.5775700" lon="-8.1779420">
        <ele>683.4</ele>
        <time>2019-08-18T07:27:53Z</time>
      </trkpt>
      <trkpt lat="42.5776390" lon="-8.1780250">
        <ele>682.8</ele>
        <time>2019-08-18T07:27:54Z</time>
      </trkpt>
      <trkpt lat="42.5777100" lon="-8.1781060">
        <ele>682.1</ele>
        <time>2019-08-18T07:27:55Z</time>
      </trkpt>
      <trkpt lat="42.5777840" lon="-8.1781840">
        <ele>681.5</ele>
        <time>2019-08-18T07:27:56Z</time>
      </trkpt>
      <trkpt lat="42.5778610" lon="-8.1782590">
        <ele>680.8</ele>
        <time>2019-08-18T07:27:57Z</time>
      </trkpt>
      <trkpt lat="42.5779400" lon="-8.1783300">
        <ele>680.1</ele>
        <time>2019-08-18T07:27:58Z</time>
      </trkpt>
      <trkpt lat="42.5780220" lon="-8.1783960">
        <ele>679.3</ele>
        <time>2019-08-18T07:27:59Z</time>
      </trkpt>
      <trkpt lat="42.5781070" lon="-8.1784580">
        <ele>678.6</ele>
        <time>2019-08-18T07:28:00Z</time>
      </trkpt>
      <trkpt lat="42.5781930" lon="-8.1785160">
        <ele>677.8</ele>
        <time>2019-08-18T07:28:01Z</time>
      </trkpt>
      <trkpt lat="42.5782820" lon="-8.1785700">
        <ele>677.1</ele>
        <time>2019-08-18T07:28:02Z</time>
      </trkpt>
      <trkpt lat="42.5783720" lon="-8.1786200">
        <ele>676.4</ele>
        <time>2019-08-18T07:28:03Z</time>
      </trkpt>
      <trkpt lat="42.5784640" lon="-8.1786670">
        <ele>675.7</ele>
        <time>2019-08-18T07:28:04Z</time>
      </trkpt>
      <trkpt lat="42.5785560" lon="-8.1787110">
        <ele>675.0</ele>
        <time>2019-08-18T07:28:05Z</time>
      </trkpt>
      <trkpt lat="42.5786500" lon="-8.1787520">
        <ele>674.4</ele>
        <time>2019-08-18T07:28:06Z</time>
      </trkpt>
      <trkpt lat="42.5787430" lon="-8.1787910">
        <ele>673.8</ele>
        <time>2019-08-18T07:28:07Z</time>
      </trkpt>
      <trkpt lat="42.5788370" lon="-8.1788270">
        <ele>673.2</ele>
        <time>2019-08-18T07:28:08Z</time>
      </trkpt>
      <trkpt lat="42.5789310" lon="-8.1788610">
        <ele>672.6</ele>
        <time>2019-08-18T07:28:09Z</time>
      </trkpt>
      <trkpt lat="42.5790240" lon="-8.1788930">
        <ele>672.0</ele>
        <time>2019-08-18T07:28:10Z</time>
      </trkpt>
      <trkpt lat="42.5791160" lon="-8.1789240">
        <ele>671.5</ele>
        <time>2019-08-18T07:28:11Z</time>
      </trkpt>
      <trkpt lat="42.5792070" lon="-8.1789520">
        <ele>670.9</ele>
        <time>2019-08-18T07:28:12Z</time>
      </trkpt>
      <trkpt lat="42.5792970" lon="-8.1789790">
        <ele>670.3</ele>
        <time>2019-08-18T07:28:13Z</time>
      </trkpt>
      <trkpt lat="42.5793850" lon="-8.1790040">
        <ele>669.7</ele>
        <time>2019-08-18T07:28:14Z</time>
      </trkpt>
      <trkpt lat="42.5794720" lon="-8.1790280">
        <ele>669.0</ele>
        <time>2019-08-18T07:28:15Z</time>
      </trkpt>
      <trkpt lat="42.5795570" lon="-8.1790520">
        <ele>668.2</ele>
        <time>2019-08-18T07:28:16Z</time>
      </trkpt>
      <trkpt lat="42.5796420" lon="-8.1790740">
        <ele>667.5</ele>
        <time>2019-08-18T07:28:17Z</time>
      </trkpt>
      <trkpt lat="42.5797260" lon="-8.1790960">
        <ele>666.8</ele>
        <time>2019-08-18T07:28:18Z</time>
      </trkpt>
      <trkpt lat="42.5798090" lon="-8.1791180">
        <ele>666.1</ele>
        <time>2019-08-18T07:28:19Z</time>
      </trkpt>
      <trkpt lat="42.5798920" lon="-8.1791400">
        <ele>665.4</ele>
        <time>2019-08-18T07:28:20Z</time>
      </trkpt>
      <trkpt lat="42.5799750" lon="-8.1791630">
        <ele>664.7</ele>
        <time>2019-08-18T07:28:21Z</time>
      </trkpt>
      <trkpt lat="42.5800570" lon="-8.1791850">
        <ele>664.0</ele>
        <time>2019-08-18T07:28:22Z</time>
      </trkpt>
      <trkpt lat="42.5801400" lon="-8.1792070">
        <ele>663.3</ele>
        <time>2019-08-18T07:28:23Z</time>
      </trkpt>
      <trkpt lat="42.5802220" lon="-8.1792300">
        <ele>662.6</ele>
        <time>2019-08-18T07:28:24Z</time>
      </trkpt>
      <trkpt lat="42.5803040" lon="-8.1792520">
        <ele>661.8</ele>
        <time>2019-08-18T07:28:25Z</time>
      </trkpt>
      <trkpt lat="42.5803860" lon="-8.1792730">
        <ele>661.1</ele>
        <time>2019-08-18T07:28:26Z</time>
      </trkpt>
      <trkpt lat="42.5804670" lon="-8.1792940">
        <ele>660.3</ele>
        <time>2019-08-18T07:28:27Z</time>
      </trkpt>
      <trkpt lat="42.5805480" lon="-8.1793140">
        <ele>659.6</ele>
        <time>2019-08-18T07:28:28Z</time>
      </trkpt>
      <trkpt lat="42.5806280" lon="-8.1793340">
        <ele>658.8</ele>
        <time>2019-08-18T07:28:29Z</time>
      </trkpt>
      <trkpt lat="42.5807080" lon="-8.1793530">
        <ele>658.0</ele>
        <time>2019-08-18T07:28:30Z</time>
      </trkpt>
      <trkpt lat="42.5807870" lon="-8.1793710">
        <ele>657.2</ele>
        <time>2019-08-18T07:28:31Z</time>
      </trkpt>
      <trkpt lat="42.5808660" lon="-8.1793890">
        <ele>656.3</ele>
        <time>2019-08-18T07:28:32Z</time>
      </trkpt>
      <trkpt lat="42.5809440" lon="-8.1794060">
        <ele>655.4</ele>
        <time>2019-08-18T07:28:33Z</time>
      </trkpt>
      <trkpt lat="42.5810210" lon="-8.1794230">
        <ele>654.5</ele>
        <time>2019-08-18T07:28:34Z</time>
      </trkpt>
      <trkpt lat="42.5810970" lon="-8.1794400">
        <ele>653.7</ele>
        <time>2019-08-18T07:28:35Z</time>
      </trkpt>
      <trkpt lat="42.5811720" lon="-8.1794570">
        <ele>652.9</ele>
        <time>2019-08-18T07:28:36Z</time>
      </trkpt>
      <trkpt lat="42.5812470" lon="-8.1794740">
        <ele>652.3</ele>
        <time>2019-08-18T07:28:37Z</time>
      </trkpt>
      <trkpt lat="42.5813230" lon="-8.1794900">
        <ele>651.7</ele>
        <time>2019-08-18T07:28:38Z</time>
      </trkpt>
      <trkpt lat="42.5814010" lon="-8.1795050">
        <ele>651.1</ele>
        <time>2019-08-18T07:28:39Z</time>
      </trkpt>
      <trkpt lat="42.5814800" lon="-8.1795190">
        <ele>650.6</ele>
        <time>2019-08-18T07:28:40Z</time>
      </trkpt>
      <trkpt lat="42.5815600" lon="-8.1795310">
        <ele>650.0</ele>
        <time>2019-08-18T07:28:41Z</time>
      </trkpt>
      <trkpt lat="42.5816400" lon="-8.1795400">
        <ele>649.4</ele>
        <time>2019-08-18T07:28:42Z</time>
      </trkpt>
      <trkpt lat="42.5817190" lon="-8.1795440">
        <ele>648.8</ele>
        <time>2019-08-18T07:28:43Z</time>
      </trkpt>
      <trkpt lat="42.5817980" lon="-8.1795450">
        <ele>648.2</ele>
        <time>2019-08-18T07:28:44Z</time>
      </trkpt>
      <trkpt lat="42.5818760" lon="-8.1795440">
        <ele>647.6</ele>
        <time>2019-08-18T07:28:45Z</time>
      </trkpt>
      <trkpt lat="42.5819530" lon="-8.1795400">
        <ele>647.0</ele>
        <time>2019-08-18T07:28:46Z</time>
      </trkpt>
      <trkpt lat="42.5820320" lon="-8.1795350">
        <ele>646.4</ele>
        <time>2019-08-18T07:28:47Z</time>
      </trkpt>
      <trkpt lat="42.5821110" lon="-8.1795290">
        <ele>645.8</ele>
        <time>2019-08-18T07:28:48Z</time>
      </trkpt>
      <trkpt lat="42.5821930" lon="-8.1795250">
        <ele>645.4</ele>
        <time>2019-08-18T07:28:49Z</time>
      </trkpt>
      <trkpt lat="42.5822760" lon="-8.1795240">
        <ele>645.0</ele>
        <time>2019-08-18T07:28:50Z</time>
      </trkpt>
      <trkpt lat="42.5823630" lon="-8.1795270">
        <ele>644.7</ele>
        <time>2019-08-18T07:28:51Z</time>
      </trkpt>
      <trkpt lat="42.5824510" lon="-8.1795370">
        <ele>644.6</ele>
        <time>2019-08-18T07:28:52Z</time>
      </trkpt>
      <trkpt lat="42.5825390" lon="-8.1795560">
        <ele>644.6</ele>
        <time>2019-08-18T07:28:53Z</time>
      </trkpt>
      <trkpt lat="42.5826260" lon="-8.1795860">
        <ele>644.6</ele>
        <time>2019-08-18T07:28:54Z</time>
      </trkpt>
      <trkpt lat="42.5827110" lon="-8.1796300">
        <ele>644.7</ele>
        <time>2019-08-18T07:28:55Z</time>
      </trkpt>
      <trkpt lat="42.5827920" lon="-8.1796830">
        <ele>644.8</ele>
        <time>2019-08-18T07:28:56Z</time>
      </trkpt>
      <trkpt lat="42.5828710" lon="-8.1797420">
        <ele>645.1</ele>
        <time>2019-08-18T07:28:57Z</time>
      </trkpt>
      <trkpt lat="42.5829470" lon="-8.1798040">
        <ele>645.4</ele>
        <time>2019-08-18T07:28:58Z</time>
      </trkpt>
      <trkpt lat="42.5830190" lon="-8.1798680">
        <ele>645.6</ele>
        <time>2019-08-18T07:28:59Z</time>
      </trkpt>
      <trkpt lat="42.5830870" lon="-8.1799330">
        <ele>645.8</ele>
        <time>2019-08-18T07:29:00Z</time>
      </trkpt>
      <trkpt lat="42.5831520" lon="-8.1800000">
        <ele>645.9</ele>
        <time>2019-08-18T07:29:01Z</time>
      </trkpt>
      <trkpt lat="42.5832140" lon="-8.1800670">
        <ele>646.0</ele>
        <time>2019-08-18T07:29:02Z</time>
      </trkpt>
      <trkpt lat="42.5832720" lon="-8.1801330">
        <ele>646.0</ele>
        <time>2019-08-18T07:29:03Z</time>
      </trkpt>
      <trkpt lat="42.5833270" lon="-8.1801960">
        <ele>646.1</ele>
        <time>2019-08-18T07:29:04Z</time>
      </trkpt>
      <trkpt lat="42.5833790" lon="-8.1802550">
        <ele>646.1</ele>
        <time>2019-08-18T07:29:05Z</time>
      </trkpt>
      <trkpt lat="42.5834520" lon="-8.1803250">
        <ele>646.1</ele>
        <time>2019-08-18T07:29:06Z</time>
      </trkpt>
      <trkpt lat="42.5834750" lon="-8.1803440">
        <ele>646.1</ele>
        <time>2019-08-18T07:29:07Z</time>
      </trkpt>
      <trkpt lat="42.5835210" lon="-8.1803820">
        <ele>646.1</ele>
        <time>2019-08-18T07:29:08Z</time>
      </trkpt>
      <trkpt lat="42.5835650" lon="-8.1804020">
        <ele>646.0</ele>
        <time>2019-08-18T07:29:09Z</time>
      </trkpt>
      <trkpt lat="42.5836090" lon="-8.1804090">
        <ele>645.8</ele>
        <time>2019-08-18T07:29:10Z</time>
      </trkpt>
      <trkpt lat="42.5836520" lon="-8.1804070">
        <ele>645.7</ele>
        <time>2019-08-18T07:29:11Z</time>
      </trkpt>
      <trkpt lat="42.5836950" lon="-8.1804000">
        <ele>645.6</ele>
        <time>2019-08-18T07:29:12Z</time>
      </trkpt>
      <trkpt lat="42.5837390" lon="-8.1803910">
        <ele>645.6</ele>
        <time>2019-08-18T07:29:13Z</time>
      </trkpt>
      <trkpt lat="42.5838040" lon="-8.1803790">
        <ele>645.5</ele>
        <time>2019-08-18T07:29:14Z</time>
      </trkpt>
      <trkpt lat="42.5838260" lon="-8.1803740">
        <ele>645.5</ele>
        <time>2019-08-18T07:29:15Z</time>
      </trkpt>
      <trkpt lat="42.5838700" lon="-8.1803640">
        <ele>645.5</ele>
        <time>2019-08-18T07:29:16Z</time>
      </trkpt>
      <trkpt lat="42.5839150" lon="-8.1803530">
        <ele>645.5</ele>
        <time>2019-08-18T07:29:17Z</time>
      </trkpt>
      <trkpt lat="42.5839620" lon="-8.1803420">
        <ele>645.5</ele>
        <time>2019-08-18T07:29:18Z</time>
      </trkpt>
      <trkpt lat="42.5840100" lon="-8.1803290">
        <ele>645.5</ele>
        <time>2019-08-18T07:29:19Z</time>
      </trkpt>
      <trkpt lat="42.5840590" lon="-8.1803160">
        <ele>645.5</ele>
        <time>2019-08-18T07:29:20Z</time>
      </trkpt>
      <trkpt lat="42.5841100" lon="-8.1803010">
        <ele>645.5</ele>
        <time>2019-08-18T07:29:21Z</time>
      </trkpt>
      <trkpt lat="42.5841620" lon="-8.1802850">
        <ele>645.5</ele>
        <time>2019-08-18T07:29:22Z</time>
      </trkpt>
      <trkpt lat="42.5842160" lon="-8.1802690">
        <ele>645.6</ele>
        <time>2019-08-18T07:29:23Z</time>
      </trkpt>
      <trkpt lat="42.5842700" lon="-8.1802520">
        <ele>645.6</ele>
        <time>2019-08-18T07:29:24Z</time>
      </trkpt>
      <trkpt lat="42.5843250" lon="-8.1802340">
        <ele>645.6</ele>
        <time>2019-08-18T07:29:25Z</time>
      </trkpt>
      <trkpt lat="42.5843810" lon="-8.1802170">
        <ele>645.6</ele>
        <time>2019-08-18T07:29:26Z</time>
      </trkpt>
      <trkpt lat="42.5844370" lon="-8.1801990">
        <ele>645.6</ele>
        <time>2019-08-18T07:29:27Z</time>
      </trkpt>
      <trkpt lat="42.5844940" lon="-8.1801810">
        <ele>645.7</ele>
        <time>2019-08-18T07:29:28Z</time>
      </trkpt>
      <trkpt lat="42.5845510" lon="-8.1801630">
        <ele>645.7</ele>
        <time>2019-08-18T07:29:29Z</time>
      </trkpt>
      <trkpt lat="42.5846070" lon="-8.1801450">
        <ele>645.7</ele>
        <time>2019-08-18T07:29:30Z</time>
      </trkpt>
      <trkpt lat="42.5846630" lon="-8.1801260">
        <ele>645.7</ele>
        <time>2019-08-18T07:29:31Z</time>
      </trkpt>
      <trkpt lat="42.5847190" lon="-8.1801070">
        <ele>645.7</ele>
        <time>2019-08-18T07:29:32Z</time>
      </trkpt>
      <trkpt lat="42.5847750" lon="-8.1800890">
        <ele>645.7</ele>
        <time>2019-08-18T07:29:33Z</time>
      </trkpt>
      <trkpt lat="42.5848330" lon="-8.1800700">
        <ele>645.7</ele>
        <time>2019-08-18T07:29:34Z</time>
      </trkpt>
      <trkpt lat="42.5848930" lon="-8.1800510">
        <ele>645.7</ele>
        <time>2019-08-18T07:29:35Z</time>
      </trkpt>
      <trkpt lat="42.5849540" lon="-8.1800320">
        <ele>645.6</ele>
        <time>2019-08-18T07:29:36Z</time>
      </trkpt>
      <trkpt lat="42.5850190" lon="-8.1800130">
        <ele>645.5</ele>
        <time>2019-08-18T07:29:37Z</time>
      </trkpt>
      <trkpt lat="42.5850870" lon="-8.1799930">
        <ele>645.4</ele>
        <time>2019-08-18T07:29:38Z</time>
      </trkpt>
      <trkpt lat="42.5851580" lon="-8.1799720">
        <ele>645.3</ele>
        <time>2019-08-18T07:29:39Z</time>
      </trkpt>
      <trkpt lat="42.5852340" lon="-8.1799490">
        <ele>645.2</ele>
        <time>2019-08-18T07:29:40Z</time>
      </trkpt>
      <trkpt lat="42.5853150" lon="-8.1799240">
        <ele>645.1</ele>
        <time>2019-08-18T07:29:41Z</time>
      </trkpt>
      <trkpt lat="42.5854000" lon="-8.1798960">
        <ele>645.0</ele>
        <time>2019-08-18T07:29:42Z</time>
      </trkpt>
      <trkpt lat="42.5854890" lon="-8.1798640">
        <ele>644.8</ele>
        <time>2019-08-18T07:29:43Z</time>
      </trkpt>
      <trkpt lat="42.5855790" lon="-8.1798230">
        <ele>644.6</ele>
        <time>2019-08-18T07:29:44Z</time>
      </trkpt>
      <trkpt lat="42.5856680" lon="-8.1797700">
        <ele>644.3</ele>
        <time>2019-08-18T07:29:45Z</time>
      </trkpt>
      <trkpt lat="42.5857540" lon="-8.1797050">
        <ele>643.9</ele>
        <time>2019-08-18T07:29:46Z</time>
      </trkpt>
      <trkpt lat="42.5858380" lon="-8.1796310">
        <ele>643.5</ele>
        <time>2019-08-18T07:29:47Z</time>
      </trkpt>
      <trkpt lat="42.5859200" lon="-8.1795540">
        <ele>643.1</ele>
        <time>2019-08-18T07:29:48Z</time>
      </trkpt>
      <trkpt lat="42.5860010" lon="-8.1794790">
        <ele>642.6</ele>
        <time>2019-08-18T07:29:49Z</time>
      </trkpt>
      <trkpt lat="42.5860810" lon="-8.1794060">
        <ele>642.0</ele>
        <time>2019-08-18T07:29:50Z</time>
      </trkpt>
      <trkpt lat="42.5861620" lon="-8.1793380">
        <ele>641.5</ele>
        <time>2019-08-18T07:29:51Z</time>
      </trkpt>
      <trkpt lat="42.5862990" lon="-8.1792380">
        <ele>640.5</ele>
        <time>2019-08-18T07:29:52Z</time>
      </trkpt>
      <trkpt lat="42.5863550" lon="-8.1792010">
        <ele>640.1</ele>
        <time>2019-08-18T07:29:53Z</time>
      </trkpt>
      <trkpt lat="42.5864110" lon="-8.1791650">
        <ele>639.6</ele>
        <time>2019-08-18T07:29:54Z</time>
      </trkpt>
      <trkpt lat="42.5864970" lon="-8.1791220">
        <ele>639.0</ele>
        <time>2019-08-18T07:29:55Z</time>
      </trkpt>
      <trkpt lat="42.5865840" lon="-8.1790910">
        <ele>638.4</ele>
        <time>2019-08-18T07:29:56Z</time>
      </trkpt>
      <trkpt lat="42.5867240" lon="-8.1790660">
        <ele>637.4</ele>
        <time>2019-08-18T07:29:57Z</time>
      </trkpt>
      <trkpt lat="42.5867760" lon="-8.1790630">
        <ele>637.1</ele>
        <time>2019-08-18T07:29:58Z</time>
      </trkpt>
      <trkpt lat="42.5868290" lon="-8.1790590">
        <ele>636.7</ele>
        <time>2019-08-18T07:29:59Z</time>
      </trkpt>
      <trkpt lat="42.5868960" lon="-8.1790680">
        <ele>636.2</ele>
        <time>2019-08-18T07:30:00Z</time>
      </trkpt>
      <trkpt lat="42.5869560" lon="-8.1790870">
        <ele>635.8</ele>
        <time>2019-08-18T07:30:01Z</time>
      </trkpt>
      <trkpt lat="42.5870160" lon="-8.1791060">
        <ele>635.3</ele>
        <time>2019-08-18T07:30:02Z</time>
      </trkpt>
      <trkpt lat="42.5870760" lon="-8.1791280">
        <ele>634.8</ele>
        <time>2019-08-18T07:30:03Z</time>
      </trkpt>
      <trkpt lat="42.5871380" lon="-8.1791480">
        <ele>634.4</ele>
        <time>2019-08-18T07:30:04Z</time>
      </trkpt>
      <trkpt lat="42.5872040" lon="-8.1791610">
        <ele>633.9</ele>
        <time>2019-08-18T07:30:05Z</time>
      </trkpt>
      <trkpt lat="42.5872720" lon="-8.1791630">
        <ele>633.4</ele>
        <time>2019-08-18T07:30:06Z</time>
      </trkpt>
      <trkpt lat="42.5873400" lon="-8.1791500">
        <ele>632.8</ele>
        <time>2019-08-18T07:30:07Z</time>
      </trkpt>
      <trkpt lat="42.5874090" lon="-8.1791190">
        <ele>632.3</ele>
        <time>2019-08-18T07:30:08Z</time>
      </trkpt>
      <trkpt lat="42.5874780" lon="-8.1790770">
        <ele>631.6</ele>
        <time>2019-08-18T07:30:09Z</time>
      </trkpt>
      <trkpt lat="42.5875510" lon="-8.1790320">
        <ele>631.0</ele>
        <time>2019-08-18T07:30:10Z</time>
      </trkpt>
      <trkpt lat="42.5876270" lon="-8.1789900">
        <ele>630.3</ele>
        <time>2019-08-18T07:30:11Z</time>
      </trkpt>
      <trkpt lat="42.5877070" lon="-8.1789530">
        <ele>629.7</ele>
        <time>2019-08-18T07:30:12Z</time>
      </trkpt>
      <trkpt lat="42.5877900" lon="-8.1789190">
        <ele>629.0</ele>
        <time>2019-08-18T07:30:13Z</time>
      </trkpt>
      <trkpt lat="42.5878750" lon="-8.1788870">
        <ele>628.4</ele>
        <time>2019-08-18T07:30:14Z</time>
      </trkpt>
      <trkpt lat="42.5879610" lon="-8.1788570">
        <ele>627.7</ele>
        <time>2019-08-18T07:30:15Z</time>
      </trkpt>
      <trkpt lat="42.5880490" lon="-8.1788280">
        <ele>627.1</ele>
        <time>2019-08-18T07:30:16Z</time>
      </trkpt>
      <trkpt lat="42.5881360" lon="-8.1787980">
        <ele>626.5</ele>
        <time>2019-08-18T07:30:17Z</time>
      </trkpt>
      <trkpt lat="42.5882220" lon="-8.1787670">
        <ele>625.8</ele>
        <time>2019-08-18T07:30:18Z</time>
      </trkpt>
      <trkpt lat="42.5883080" lon="-8.1787340">
        <ele>625.1</ele>
        <time>2019-08-18T07:30:19Z</time>
      </trkpt>
      <trkpt lat="42.5883940" lon="-8.1787000">
        <ele>624.4</ele>
        <time>2019-08-18T07:30:20Z</time>
      </trkpt>
      <trkpt lat="42.5884810" lon="-8.1786630">
        <ele>623.7</ele>
        <time>2019-08-18T07:30:21Z</time>
      </trkpt>
      <trkpt lat="42.5885670" lon="-8.1786250">
        <ele>623.0</ele>
        <time>2019-08-18T07:30:22Z</time>
      </trkpt>
      <trkpt lat="42.5886530" lon="-8.1785880">
        <ele>622.3</ele>
        <time>2019-08-18T07:30:23Z</time>
      </trkpt>
      <trkpt lat="42.5887380" lon="-8.1785540">
        <ele>621.6</ele>
        <time>2019-08-18T07:30:24Z</time>
      </trkpt>
      <trkpt lat="42.5888210" lon="-8.1785270">
        <ele>620.9</ele>
        <time>2019-08-18T07:30:25Z</time>
      </trkpt>
      <trkpt lat="42.5889030" lon="-8.1785070">
        <ele>620.3</ele>
        <time>2019-08-18T07:30:26Z</time>
      </trkpt>
      <trkpt lat="42.5889810" lon="-8.1784950">
        <ele>619.8</ele>
        <time>2019-08-18T07:30:27Z</time>
      </trkpt>
      <trkpt lat="42.5890550" lon="-8.1784910">
        <ele>619.3</ele>
        <time>2019-08-18T07:30:28Z</time>
      </trkpt>
      <trkpt lat="42.5891260" lon="-8.1784960">
        <ele>618.8</ele>
        <time>2019-08-18T07:30:29Z</time>
      </trkpt>
      <trkpt lat="42.5891920" lon="-8.1785090">
        <ele>618.4</ele>
        <time>2019-08-18T07:30:30Z</time>
      </trkpt>
      <trkpt lat="42.5892560" lon="-8.1785280">
        <ele>617.9</ele>
        <time>2019-08-18T07:30:31Z</time>
      </trkpt>
      <trkpt lat="42.5893460" lon="-8.1785640">
        <ele>617.3</ele>
        <time>2019-08-18T07:30:32Z</time>
      </trkpt>
      <trkpt lat="42.5893740" lon="-8.1785780">
        <ele>617.1</ele>
        <time>2019-08-18T07:30:33Z</time>
      </trkpt>
      <trkpt lat="42.5894310" lon="-8.1786060">
        <ele>616.7</ele>
        <time>2019-08-18T07:30:34Z</time>
      </trkpt>
      <trkpt lat="42.5894850" lon="-8.1786370">
        <ele>616.3</ele>
        <time>2019-08-18T07:30:35Z</time>
      </trkpt>
      <trkpt lat="42.5895350" lon="-8.1786690">
        <ele>615.9</ele>
        <time>2019-08-18T07:30:36Z</time>
      </trkpt>
      <trkpt lat="42.5895830" lon="-8.1787020">
        <ele>615.4</ele>
        <time>2019-08-18T07:30:37Z</time>
      </trkpt>
      <trkpt lat="42.5896270" lon="-8.1787370">
        <ele>615.0</ele>
        <time>2019-08-18T07:30:38Z</time>
      </trkpt>
      <trkpt lat="42.5896680" lon="-8.1787710">
        <ele>614.0</ele>
        <time>2019-08-18T07:30:39Z</time>
      </trkpt>
      <trkpt lat="42.5897050" lon="-8.1788060">
        <ele>613.6</ele>
        <time>2019-08-18T07:30:40Z</time>
      </trkpt>
      <trkpt lat="42.5897390" lon="-8.1788420">
        <ele>613.3</ele>
        <time>2019-08-18T07:30:41Z</time>
      </trkpt>
      <trkpt lat="42.5897710" lon="-8.1788810">
        <ele>612.9</ele>
        <time>2019-08-18T07:30:42Z</time>
      </trkpt>
      <trkpt lat="42.5898000" lon="-8.1789250">
        <ele>612.5</ele>
        <time>2019-08-18T07:30:43Z</time>
      </trkpt>
      <trkpt lat="42.5898280" lon="-8.1789750">
        <ele>612.2</ele>
        <time>2019-08-18T07:30:44Z</time>
      </trkpt>
      <trkpt lat="42.5898550" lon="-8.1790290">
        <ele>611.8</ele>
        <time>2019-08-18T07:30:45Z</time>
      </trkpt>
      <trkpt lat="42.5898810" lon="-8.1790870">
        <ele>611.4</ele>
        <time>2019-08-18T07:30:46Z</time>
      </trkpt>
      <trkpt lat="42.5899060" lon="-8.1791480">
        <ele>610.9</ele>
        <time>2019-08-18T07:30:47Z</time>
      </trkpt>
      <trkpt lat="42.5899310" lon="-8.1792090">
        <ele>610.5</ele>
        <time>2019-08-18T07:30:48Z</time>
      </trkpt>
      <trkpt lat="42.5899560" lon="-8.1792710">
        <ele>610.1</ele>
        <time>2019-08-18T07:30:49Z</time>
      </trkpt>
      <trkpt lat="42.5899810" lon="-8.1793340">
        <ele>609.7</ele>
        <time>2019-08-18T07:30:50Z</time>
      </trkpt>
      <trkpt lat="42.5900060" lon="-8.1793970">
        <ele>609.3</ele>
        <time>2019-08-18T07:30:51Z</time>
      </trkpt>
      <trkpt lat="42.5900310" lon="-8.1794600">
        <ele>609.0</ele>
        <time>2019-08-18T07:30:52Z</time>
      </trkpt>
      <trkpt lat="42.5900560" lon="-8.1795240">
        <ele>608.7</ele>
        <time>2019-08-18T07:30:53Z</time>
      </trkpt>
      <trkpt lat="42.5900820" lon="-8.1795870">
        <ele>608.4</ele>
        <time>2019-08-18T07:30:54Z</time>
      </trkpt>
      <trkpt lat="42.5901090" lon="-8.1796500">
        <ele>608.2</ele>
        <time>2019-08-18T07:30:55Z</time>
      </trkpt>
      <trkpt lat="42.5901390" lon="-8.1797100">
        <ele>607.9</ele>
        <time>2019-08-18T07:30:56Z</time>
      </trkpt>
      <trkpt lat="42.5901720" lon="-8.1797630">
        <ele>607.8</ele>
        <time>2019-08-18T07:30:57Z</time>
      </trkpt>
      <trkpt lat="42.5902120" lon="-8.1798070">
        <ele>607.6</ele>
        <time>2019-08-18T07:30:58Z</time>
      </trkpt>
      <trkpt lat="42.5902580" lon="-8.1798390">
        <ele>607.5</ele>
        <time>2019-08-18T07:30:59Z</time>
      </trkpt>
      <trkpt lat="42.5903090" lon="-8.1798610">
        <ele>607.4</ele>
        <time>2019-08-18T07:31:00Z</time>
      </trkpt>
      <trkpt lat="42.5903620" lon="-8.1798730">
        <ele>607.3</ele>
        <time>2019-08-18T07:31:01Z</time>
      </trkpt>
      <trkpt lat="42.5904140" lon="-8.1798770">
        <ele>607.2</ele>
        <time>2019-08-18T07:31:02Z</time>
      </trkpt>
      <trkpt lat="42.5904630" lon="-8.1798750">
        <ele>607.1</ele>
        <time>2019-08-18T07:31:03Z</time>
      </trkpt>
      <trkpt lat="42.5905330" lon="-8.1798690">
        <ele>606.9</ele>
        <time>2019-08-18T07:31:04Z</time>
      </trkpt>
      <trkpt lat="42.5905560" lon="-8.1798680">
        <ele>606.9</ele>
        <time>2019-08-18T07:31:05Z</time>
      </trkpt>
      <trkpt lat="42.5906030" lon="-8.1798720">
        <ele>606.8</ele>
        <time>2019-08-18T07:31:06Z</time>
      </trkpt>
      <trkpt lat="42.5906520" lon="-8.1798860">
        <ele>606.7</ele>
        <time>2019-08-18T07:31:07Z</time>
      </trkpt>
      <trkpt lat="42.5907040" lon="-8.1799070">
        <ele>606.6</ele>
        <time>2019-08-18T07:31:08Z</time>
      </trkpt>
      <trkpt lat="42.5907560" lon="-8.1799310">
        <ele>606.5</ele>
        <time>2019-08-18T07:31:09Z</time>
      </trkpt>
      <trkpt lat="42.5908460" lon="-8.1799720">
        <ele>606.2</ele>
        <time>2019-08-18T07:31:10Z</time>
      </trkpt>
      <trkpt lat="42.5908830" lon="-8.1799890">
        <ele>606.1</ele>
        <time>2019-08-18T07:31:11Z</time>
      </trkpt>
      <trkpt lat="42.5909190" lon="-8.1800050">
        <ele>606.1</ele>
        <time>2019-08-18T07:31:12Z</time>
      </trkpt>
      <trkpt lat="42.5909750" lon="-8.1800290">
        <ele>605.9</ele>
        <time>2019-08-18T07:31:13Z</time>
      </trkpt>
      <trkpt lat="42.5910310" lon="-8.1800530">
        <ele>605.8</ele>
        <time>2019-08-18T07:31:14Z</time>
      </trkpt>
      <trkpt lat="42.5911260" lon="-8.1800950">
        <ele>605.5</ele>
        <time>2019-08-18T07:31:15Z</time>
      </trkpt>
      <trkpt lat="42.5911640" lon="-8.1801110">
        <ele>605.4</ele>
        <time>2019-08-18T07:31:16Z</time>
      </trkpt>
      <trkpt lat="42.5912020" lon="-8.1801280">
        <ele>605.3</ele>
        <time>2019-08-18T07:31:17Z</time>
      </trkpt>
      <trkpt lat="42.5912600" lon="-8.1801530">
        <ele>605.1</ele>
        <time>2019-08-18T07:31:18Z</time>
      </trkpt>
      <trkpt lat="42.5913170" lon="-8.1801780">
        <ele>605.0</ele>
        <time>2019-08-18T07:31:19Z</time>
      </trkpt>
      <trkpt lat="42.5913740" lon="-8.1802020">
        <ele>604.8</ele>
        <time>2019-08-18T07:31:20Z</time>
      </trkpt>
      <trkpt lat="42.5914310" lon="-8.1802230">
        <ele>604.7</ele>
        <time>2019-08-18T07:31:21Z</time>
      </trkpt>
      <trkpt lat="42.5914870" lon="-8.1802450">
        <ele>604.5</ele>
        <time>2019-08-18T07:31:22Z</time>
      </trkpt>
      <trkpt lat="42.5915430" lon="-8.1802630">
        <ele>604.4</ele>
        <time>2019-08-18T07:31:23Z</time>
      </trkpt>
      <trkpt lat="42.5915980" lon="-8.1802780">
        <ele>604.2</ele>
        <time>2019-08-18T07:31:24Z</time>
      </trkpt>
      <trkpt lat="42.5916520" lon="-8.1802900">
        <ele>604.0</ele>
        <time>2019-08-18T07:31:25Z</time>
      </trkpt>
      <trkpt lat="42.5917050" lon="-8.1803000">
        <ele>603.8</ele>
        <time>2019-08-18T07:31:26Z</time>
      </trkpt>
      <trkpt lat="42.5917580" lon="-8.1803070">
        <ele>603.6</ele>
        <time>2019-08-18T07:31:27Z</time>
      </trkpt>
      <trkpt lat="42.5918110" lon="-8.1803130">
        <ele>603.3</ele>
        <time>2019-08-18T07:31:28Z</time>
      </trkpt>
      <trkpt lat="42.5918640" lon="-8.1803170">
        <ele>603.1</ele>
        <time>2019-08-18T07:31:29Z</time>
      </trkpt>
      <trkpt lat="42.5919180" lon="-8.1803190">
        <ele>602.8</ele>
        <time>2019-08-18T07:31:30Z</time>
      </trkpt>
      <trkpt lat="42.5919720" lon="-8.1803190">
        <ele>602.4</ele>
        <time>2019-08-18T07:31:31Z</time>
      </trkpt>
      <trkpt lat="42.5920560" lon="-8.1803180">
        <ele>601.7</ele>
        <time>2019-08-18T07:31:32Z</time>
      </trkpt>
      <trkpt lat="42.5920830" lon="-8.1803170">
        <ele>601.5</ele>
        <time>2019-08-18T07:31:33Z</time>
      </trkpt>
      <trkpt lat="42.5921400" lon="-8.1803150">
        <ele>601.0</ele>
        <time>2019-08-18T07:31:34Z</time>
      </trkpt>
      <trkpt lat="42.5921980" lon="-8.1803120">
        <ele>600.6</ele>
        <time>2019-08-18T07:31:35Z</time>
      </trkpt>
      <trkpt lat="42.5922560" lon="-8.1803080">
        <ele>600.1</ele>
        <time>2019-08-18T07:31:36Z</time>
      </trkpt>
      <trkpt lat="42.5923160" lon="-8.1803040">
        <ele>600.1</ele>
        <time>2019-08-18T07:31:37Z</time>
      </trkpt>
      <trkpt lat="42.5923760" lon="-8.1802990">
        <ele>600.1</ele>
        <time>2019-08-18T07:31:38Z</time>
      </trkpt>
      <trkpt lat="42.5924370" lon="-8.1802940">
        <ele>600.0</ele>
        <time>2019-08-18T07:31:39Z</time>
      </trkpt>
      <trkpt lat="42.5924990" lon="-8.1802890">
        <ele>600.0</ele>
        <time>2019-08-18T07:31:40Z</time>
      </trkpt>
      <trkpt lat="42.5925610" lon="-8.1802840">
        <ele>600.0</ele>
        <time>2019-08-18T07:31:41Z</time>
      </trkpt>
      <trkpt lat="42.5926240" lon="-8.1802790">
        <ele>600.0</ele>
        <time>2019-08-18T07:31:42Z</time>
      </trkpt>
      <trkpt lat="42.5926870" lon="-8.1802750">
        <ele>599.9</ele>
        <time>2019-08-18T07:31:43Z</time>
      </trkpt>
      <trkpt lat="42.5927500" lon="-8.1802700">
        <ele>599.9</ele>
        <time>2019-08-18T07:31:44Z</time>
      </trkpt>
      <trkpt lat="42.5928130" lon="-8.1802660">
        <ele>599.8</ele>
        <time>2019-08-18T07:31:45Z</time>
      </trkpt>
      <trkpt lat="42.5928750" lon="-8.1802620">
        <ele>599.8</ele>
        <time>2019-08-18T07:31:46Z</time>
      </trkpt>
      <trkpt lat="42.5929370" lon="-8.1802590">
        <ele>599.8</ele>
        <time>2019-08-18T07:31:47Z</time>
      </trkpt>
      <trkpt lat="42.5929990" lon="-8.1802560">
        <ele>599.7</ele>
        <time>2019-08-18T07:31:48Z</time>
      </trkpt>
      <trkpt lat="42.5930610" lon="-8.1802520">
        <ele>599.6</ele>
        <time>2019-08-18T07:31:49Z</time>
      </trkpt>
      <trkpt lat="42.5931220" lon="-8.1802490">
        <ele>599.6</ele>
        <time>2019-08-18T07:31:50Z</time>
      </trkpt>
      <trkpt lat="42.5931840" lon="-8.1802460">
        <ele>599.5</ele>
        <time>2019-08-18T07:31:51Z</time>
      </trkpt>
      <trkpt lat="42.5932450" lon="-8.1802420">
        <ele>599.4</ele>
        <time>2019-08-18T07:31:52Z</time>
      </trkpt>
      <trkpt lat="42.5933060" lon="-8.1802370">
        <ele>599.3</ele>
        <time>2019-08-18T07:31:53Z</time>
      </trkpt>
      <trkpt lat="42.5933670" lon="-8.1802330">
        <ele>599.3</ele>
        <time>2019-08-18T07:31:54Z</time>
      </trkpt>
      <trkpt lat="42.5934270" lon="-8.1802310">
        <ele>599.2</ele>
        <time>2019-08-18T07:31:55Z</time>
      </trkpt>
      <trkpt lat="42.5934860" lon="-8.1802300">
        <ele>599.2</ele>
        <time>2019-08-18T07:31:56Z</time>
      </trkpt>
      <trkpt lat="42.5935450" lon="-8.1802310">
        <ele>599.2</ele>
        <time>2019-08-18T07:31:57Z</time>
      </trkpt>
      <trkpt lat="42.5936020" lon="-8.1802370">
        <ele>599.2</ele>
        <time>2019-08-18T07:31:58Z</time>
      </trkpt>
      <trkpt lat="42.5936570" lon="-8.1802470">
        <ele>599.2</ele>
        <time>2019-08-18T07:31:59Z</time>
      </trkpt>
      <trkpt lat="42.5937370" lon="-8.1802730">
        <ele>599.2</ele>
        <time>2019-08-18T07:32:00Z</time>
      </trkpt>
      <trkpt lat="42.5937630" lon="-8.1802840">
        <ele>599.2</ele>
        <time>2019-08-18T07:32:01Z</time>
      </trkpt>
      <trkpt lat="42.5938130" lon="-8.1803110">
        <ele>599.2</ele>
        <time>2019-08-18T07:32:02Z</time>
      </trkpt>
      <trkpt lat="42.5938610" lon="-8.1803440">
        <ele>599.2</ele>
        <time>2019-08-18T07:32:03Z</time>
      </trkpt>
      <trkpt lat="42.5939070" lon="-8.1803820">
        <ele>599.2</ele>
        <time>2019-08-18T07:32:04Z</time>
      </trkpt>
      <trkpt lat="42.5939530" lon="-8.1804260">
        <ele>599.2</ele>
        <time>2019-08-18T07:32:05Z</time>
      </trkpt>
      <trkpt lat="42.5939970" lon="-8.1804750">
        <ele>599.2</ele>
        <time>2019-08-18T07:32:06Z</time>
      </trkpt>
      <trkpt lat="42.5940400" lon="-8.1805280">
        <ele>599.2</ele>
        <time>2019-08-18T07:32:07Z</time>
      </trkpt>
      <trkpt lat="42.5940830" lon="-8.1805860">
        <ele>599.2</ele>
        <time>2019-08-18T07:32:08Z</time>
      </trkpt>
      <trkpt lat="42.5941250" lon="-8.1806480">
        <ele>599.2</ele>
        <time>2019-08-18T07:32:09Z</time>
      </trkpt>
      <trkpt lat="42.5941670" lon="-8.1807110">
        <ele>599.2</ele>
        <time>2019-08-18T07:32:10Z</time>
      </trkpt>
      <trkpt lat="42.5942080" lon="-8.1807760">
        <ele>599.2</ele>
        <time>2019-08-18T07:32:11Z</time>
      </trkpt>
      <trkpt lat="42.5942500" lon="-8.1808400">
        <ele>599.2</ele>
        <time>2019-08-18T07:32:12Z</time>
      </trkpt>
      <trkpt lat="42.5942920" lon="-8.1809020">
        <ele>599.2</ele>
        <time>2019-08-18T07:32:13Z</time>
      </trkpt>
      <trkpt lat="42.5943340" lon="-8.1809610">
        <ele>599.2</ele>
        <time>2019-08-18T07:32:14Z</time>
      </trkpt>
      <trkpt lat="42.5943770" lon="-8.1810170">
        <ele>599.2</ele>
        <time>2019-08-18T07:32:15Z</time>
      </trkpt>
      <trkpt lat="42.5944210" lon="-8.1810680">
        <ele>599.2</ele>
        <time>2019-08-18T07:32:16Z</time>
      </trkpt>
      <trkpt lat="42.5944650" lon="-8.1811150">
        <ele>599.2</ele>
        <time>2019-08-18T07:32:17Z</time>
      </trkpt>
      <trkpt lat="42.5945100" lon="-8.1811580">
        <ele>599.1</ele>
        <time>2019-08-18T07:32:18Z</time>
      </trkpt>
      <trkpt lat="42.5945570" lon="-8.1811970">
        <ele>599.1</ele>
        <time>2019-08-18T07:32:19Z</time>
      </trkpt>
      <trkpt lat="42.5946040" lon="-8.1812330">
        <ele>599.0</ele>
        <time>2019-08-18T07:32:20Z</time>
      </trkpt>
      <trkpt lat="42.5946520" lon="-8.1812650">
        <ele>599.0</ele>
        <time>2019-08-18T07:32:21Z</time>
      </trkpt>
      <trkpt lat="42.5947010" lon="-8.1812930">
        <ele>598.9</ele>
        <time>2019-08-18T07:32:22Z</time>
      </trkpt>
      <trkpt lat="42.5947500" lon="-8.1813190">
        <ele>598.8</ele>
        <time>2019-08-18T07:32:23Z</time>
      </trkpt>
      <trkpt lat="42.5948010" lon="-8.1813440">
        <ele>598.7</ele>
        <time>2019-08-18T07:32:24Z</time>
      </trkpt>
      <trkpt lat="42.5948510" lon="-8.1813680">
        <ele>598.6</ele>
        <time>2019-08-18T07:32:25Z</time>
      </trkpt>
      <trkpt lat="42.5949010" lon="-8.1813940">
        <ele>598.5</ele>
        <time>2019-08-18T07:32:26Z</time>
      </trkpt>
      <trkpt lat="42.5949510" lon="-8.1814210">
        <ele>598.5</ele>
        <time>2019-08-18T07:32:27Z</time>
      </trkpt>
      <trkpt lat="42.5950010" lon="-8.1814510">
        <ele>598.4</ele>
        <time>2019-08-18T07:32:28Z</time>
      </trkpt>
      <trkpt lat="42.5950490" lon="-8.1814850">
        <ele>598.3</ele>
        <time>2019-08-18T07:32:29Z</time>
      </trkpt>
      <trkpt lat="42.5950960" lon="-8.1815240">
        <ele>598.3</ele>
        <time>2019-08-18T07:32:30Z</time>
      </trkpt>
      <trkpt lat="42.5951420" lon="-8.1815650">
        <ele>598.3</ele>
        <time>2019-08-18T07:32:31Z</time>
      </trkpt>
      <trkpt lat="42.5951880" lon="-8.1816050">
        <ele>598.3</ele>
        <time>2019-08-18T07:32:32Z</time>
      </trkpt>
      <trkpt lat="42.5952350" lon="-8.1816420">
        <ele>598.3</ele>
        <time>2019-08-18T07:32:33Z</time>
      </trkpt>
      <trkpt lat="42.5952820" lon="-8.1816740">
        <ele>598.3</ele>
        <time>2019-08-18T07:32:34Z</time>
      </trkpt>
      <trkpt lat="42.5953290" lon="-8.1817040">
        <ele>598.3</ele>
        <time>2019-08-18T07:32:35Z</time>
      </trkpt>
      <trkpt lat="42.5953730" lon="-8.1817370">
        <ele>598.3</ele>
        <time>2019-08-18T07:32:36Z</time>
      </trkpt>
      <trkpt lat="42.5954140" lon="-8.1817760">
        <ele>598.3</ele>
        <time>2019-08-18T07:32:37Z</time>
      </trkpt>
      <trkpt lat="42.5954490" lon="-8.1818210">
        <ele>598.3</ele>
        <time>2019-08-18T07:32:38Z</time>
      </trkpt>
      <trkpt lat="42.5954790" lon="-8.1818730">
        <ele>598.3</ele>
        <time>2019-08-18T07:32:39Z</time>
      </trkpt>
      <trkpt lat="42.5955030" lon="-8.1819310">
        <ele>598.3</ele>
        <time>2019-08-18T07:32:40Z</time>
      </trkpt>
      <trkpt lat="42.5955210" lon="-8.1819940">
        <ele>598.4</ele>
        <time>2019-08-18T07:32:41Z</time>
      </trkpt>
      <trkpt lat="42.5955350" lon="-8.1820600">
        <ele>598.4</ele>
        <time>2019-08-18T07:32:42Z</time>
      </trkpt>
      <trkpt lat="42.5955630" lon="-8.1821720">
        <ele>598.5</ele>
        <time>2019-08-18T07:32:43Z</time>
      </trkpt>
      <trkpt lat="42.5955760" lon="-8.1822160">
        <ele>598.5</ele>
        <time>2019-08-18T07:32:44Z</time>
      </trkpt>
      <trkpt lat="42.5955900" lon="-8.1822600">
        <ele>598.5</ele>
        <time>2019-08-18T07:32:45Z</time>
      </trkpt>
      <trkpt lat="42.5956200" lon="-8.1823210">
        <ele>598.6</ele>
        <time>2019-08-18T07:32:46Z</time>
      </trkpt>
      <trkpt lat="42.5956540" lon="-8.1823790">
        <ele>598.6</ele>
        <time>2019-08-18T07:32:47Z</time>
      </trkpt>
      <trkpt lat="42.5957190" lon="-8.1824640">
        <ele>598.6</ele>
        <time>2019-08-18T07:32:48Z</time>
      </trkpt>
      <trkpt lat="42.5957460" lon="-8.1824950">
        <ele>598.6</ele>
        <time>2019-08-18T07:32:49Z</time>
      </trkpt>
      <trkpt lat="42.5957730" lon="-8.1825270">
        <ele>598.6</ele>
        <time>2019-08-18T07:32:50Z</time>
      </trkpt>
      <trkpt lat="42.5958160" lon="-8.1825710">
        <ele>598.7</ele>
        <time>2019-08-18T07:32:51Z</time>
      </trkpt>
      <trkpt lat="42.5958590" lon="-8.1826160">
        <ele>598.7</ele>
        <time>2019-08-18T07:32:52Z</time>
      </trkpt>
      <trkpt lat="42.5959250" lon="-8.1826830">
        <ele>598.7</ele>
        <time>2019-08-18T07:32:53Z</time>
      </trkpt>
      <trkpt lat="42.5959470" lon="-8.1827060">
        <ele>598.7</ele>
        <time>2019-08-18T07:32:54Z</time>
      </trkpt>
      <trkpt lat="42.5959930" lon="-8.1827510">
        <ele>598.7</ele>
        <time>2019-08-18T07:32:55Z</time>
      </trkpt>
      <trkpt lat="42.5960400" lon="-8.1827950">
        <ele>598.7</ele>
        <time>2019-08-18T07:32:56Z</time>
      </trkpt>
      <trkpt lat="42.5960880" lon="-8.1828400">
        <ele>598.7</ele>
        <time>2019-08-18T07:32:57Z</time>
      </trkpt>
      <trkpt lat="42.5961380" lon="-8.1828840">
        <ele>598.7</ele>
        <time>2019-08-18T07:32:58Z</time>
      </trkpt>
      <trkpt lat="42.5961890" lon="-8.1829280">
        <ele>598.7</ele>
        <time>2019-08-18T07:32:59Z</time>
      </trkpt>
      <trkpt lat="42.5962410" lon="-8.1829710">
        <ele>598.7</ele>
        <time>2019-08-18T07:33:00Z</time>
      </trkpt>
      <trkpt lat="42.5962960" lon="-8.1830130">
        <ele>598.7</ele>
        <time>2019-08-18T07:33:01Z</time>
      </trkpt>
      <trkpt lat="42.5963510" lon="-8.1830560">
        <ele>598.7</ele>
        <time>2019-08-18T07:33:02Z</time>
      </trkpt>
      <trkpt lat="42.5964060" lon="-8.1830980">
        <ele>598.7</ele>
        <time>2019-08-18T07:33:03Z</time>
      </trkpt>
      <trkpt lat="42.5964620" lon="-8.1831400">
        <ele>598.4</ele>
        <time>2019-08-18T07:33:04Z</time>
      </trkpt>
      <trkpt lat="42.5965180" lon="-8.1831830">
        <ele>598.2</ele>
        <time>2019-08-18T07:33:05Z</time>
      </trkpt>
      <trkpt lat="42.5965730" lon="-8.1832260">
        <ele>597.9</ele>
        <time>2019-08-18T07:33:06Z</time>
      </trkpt>
      <trkpt lat="42.5966270" lon="-8.1832690">
        <ele>597.7</ele>
        <time>2019-08-18T07:33:07Z</time>
      </trkpt>
      <trkpt lat="42.5966800" lon="-8.1833140">
        <ele>597.6</ele>
        <time>2019-08-18T07:33:08Z</time>
      </trkpt>
      <trkpt lat="42.5967320" lon="-8.1833590">
        <ele>597.4</ele>
        <time>2019-08-18T07:33:09Z</time>
      </trkpt>
      <trkpt lat="42.5967830" lon="-8.1834070">
        <ele>597.2</ele>
        <time>2019-08-18T07:33:10Z</time>
      </trkpt>
      <trkpt lat="42.5968320" lon="-8.1834560">
        <ele>597.1</ele>
        <time>2019-08-18T07:33:11Z</time>
      </trkpt>
      <trkpt lat="42.5968790" lon="-8.1835080">
        <ele>596.9</ele>
        <time>2019-08-18T07:33:12Z</time>
      </trkpt>
      <trkpt lat="42.5969250" lon="-8.1835620">
        <ele>596.8</ele>
        <time>2019-08-18T07:33:13Z</time>
      </trkpt>
      <trkpt lat="42.5969680" lon="-8.1836200">
        <ele>596.6</ele>
        <time>2019-08-18T07:33:14Z</time>
      </trkpt>
      <trkpt lat="42.5970110" lon="-8.1836790">
        <ele>596.4</ele>
        <time>2019-08-18T07:33:15Z</time>
      </trkpt>
      <trkpt lat="42.5970530" lon="-8.1837410">
        <ele>596.2</ele>
        <time>2019-08-18T07:33:16Z</time>
      </trkpt>
      <trkpt lat="42.5970950" lon="-8.1838030">
        <ele>595.9</ele>
        <time>2019-08-18T07:33:17Z</time>
      </trkpt>
      <trkpt lat="42.5971380" lon="-8.1838650">
        <ele>595.7</ele>
        <time>2019-08-18T07:33:18Z</time>
      </trkpt>
      <trkpt lat="42.5971820" lon="-8.1839270">
        <ele>595.4</ele>
        <time>2019-08-18T07:33:19Z</time>
      </trkpt>
      <trkpt lat="42.5972270" lon="-8.1839870">
        <ele>595.1</ele>
        <time>2019-08-18T07:33:20Z</time>
      </trkpt>
      <trkpt lat="42.5972750" lon="-8.1840450">
        <ele>594.8</ele>
        <time>2019-08-18T07:33:21Z</time>
      </trkpt>
      <trkpt lat="42.5973260" lon="-8.1841010">
        <ele>594.7</ele>
        <time>2019-08-18T07:33:22Z</time>
      </trkpt>
      <trkpt lat="42.5973780" lon="-8.1841530">
        <ele>594.7</ele>
        <time>2019-08-18T07:33:23Z</time>
      </trkpt>
      <trkpt lat="42.5974320" lon="-8.1842030">
        <ele>594.7</ele>
        <time>2019-08-18T07:33:24Z</time>
      </trkpt>
      <trkpt lat="42.5974880" lon="-8.1842480">
        <ele>594.7</ele>
        <time>2019-08-18T07:33:25Z</time>
      </trkpt>
      <trkpt lat="42.5975450" lon="-8.1842890">
        <ele>594.7</ele>
        <time>2019-08-18T07:33:26Z</time>
      </trkpt>
      <trkpt lat="42.5976030" lon="-8.1843250">
        <ele>594.7</ele>
        <time>2019-08-18T07:33:27Z</time>
      </trkpt>
      <trkpt lat="42.5976620" lon="-8.1843560">
        <ele>594.6</ele>
        <time>2019-08-18T07:33:28Z</time>
      </trkpt>
      <trkpt lat="42.5977220" lon="-8.1843820">
        <ele>594.6</ele>
        <time>2019-08-18T07:33:29Z</time>
      </trkpt>
      <trkpt lat="42.5977820" lon="-8.1844030">
        <ele>594.5</ele>
        <time>2019-08-18T07:33:30Z</time>
      </trkpt>
      <trkpt lat="42.5978430" lon="-8.1844220">
        <ele>594.5</ele>
        <time>2019-08-18T07:33:31Z</time>
      </trkpt>
      <trkpt lat="42.5979050" lon="-8.1844380">
        <ele>594.4</ele>
        <time>2019-08-18T07:33:32Z</time>
      </trkpt>
      <trkpt lat="42.5979670" lon="-8.1844540">
        <ele>594.3</ele>
        <time>2019-08-18T07:33:33Z</time>
      </trkpt>
      <trkpt lat="42.5980290" lon="-8.1844690">
        <ele>594.2</ele>
        <time>2019-08-18T07:33:34Z</time>
      </trkpt>
      <trkpt lat="42.5980920" lon="-8.1844810">
        <ele>594.1</ele>
        <time>2019-08-18T07:33:35Z</time>
      </trkpt>
      <trkpt lat="42.5981550" lon="-8.1844910">
        <ele>594.0</ele>
        <time>2019-08-18T07:33:36Z</time>
      </trkpt>
      <trkpt lat="42.5982180" lon="-8.1844990">
        <ele>593.9</ele>
        <time>2019-08-18T07:33:37Z</time>
      </trkpt>
      <trkpt lat="42.5982820" lon="-8.1845040">
        <ele>593.8</ele>
        <time>2019-08-18T07:33:38Z</time>
      </trkpt>
      <trkpt lat="42.5983450" lon="-8.1845070">
        <ele>593.7</ele>
        <time>2019-08-18T07:33:39Z</time>
      </trkpt>
      <trkpt lat="42.5984080" lon="-8.1845080">
        <ele>593.7</ele>
        <time>2019-08-18T07:33:40Z</time>
      </trkpt>
      <trkpt lat="42.5984710" lon="-8.1845080">
        <ele>593.6</ele>
        <time>2019-08-18T07:33:41Z</time>
      </trkpt>
      <trkpt lat="42.5985330" lon="-8.1845050">
        <ele>593.5</ele>
        <time>2019-08-18T07:33:42Z</time>
      </trkpt>
      <trkpt lat="42.5985960" lon="-8.1845020">
        <ele>593.5</ele>
        <time>2019-08-18T07:33:43Z</time>
      </trkpt>
      <trkpt lat="42.5986580" lon="-8.1844960">
        <ele>593.4</ele>
        <time>2019-08-18T07:33:44Z</time>
      </trkpt>
      <trkpt lat="42.5987200" lon="-8.1844900">
        <ele>593.3</ele>
        <time>2019-08-18T07:33:45Z</time>
      </trkpt>
      <trkpt lat="42.5987830" lon="-8.1844830">
        <ele>593.2</ele>
        <time>2019-08-18T07:33:46Z</time>
      </trkpt>
      <trkpt lat="42.5988460" lon="-8.1844740">
        <ele>593.1</ele>
        <time>2019-08-18T07:33:47Z</time>
      </trkpt>
      <trkpt lat="42.5989100" lon="-8.1844650">
        <ele>592.9</ele>
        <time>2019-08-18T07:33:48Z</time>
      </trkpt>
      <trkpt lat="42.5989750" lon="-8.1844540">
        <ele>592.7</ele>
        <time>2019-08-18T07:33:49Z</time>
      </trkpt>
      <trkpt lat="42.5990410" lon="-8.1844430">
        <ele>592.5</ele>
        <time>2019-08-18T07:33:50Z</time>
      </trkpt>
      <trkpt lat="42.5991080" lon="-8.1844320">
        <ele>592.2</ele>
        <time>2019-08-18T07:33:51Z</time>
      </trkpt>
      <trkpt lat="42.5991760" lon="-8.1844190">
        <ele>591.9</ele>
        <time>2019-08-18T07:33:52Z</time>
      </trkpt>
      <trkpt lat="42.5992460" lon="-8.1844060">
        <ele>591.6</ele>
        <time>2019-08-18T07:33:53Z</time>
      </trkpt>
      <trkpt lat="42.5993160" lon="-8.1843930">
        <ele>591.3</ele>
        <time>2019-08-18T07:33:54Z</time>
      </trkpt>
      <trkpt lat="42.5993870" lon="-8.1843790">
        <ele>590.9</ele>
        <time>2019-08-18T07:33:55Z</time>
      </trkpt>
      <trkpt lat="42.5994600" lon="-8.1843650">
        <ele>590.5</ele>
        <time>2019-08-18T07:33:56Z</time>
      </trkpt>
      <trkpt lat="42.5995330" lon="-8.1843500">
        <ele>590.0</ele>
        <time>2019-08-18T07:33:57Z</time>
      </trkpt>
      <trkpt lat="42.5996080" lon="-8.1843350">
        <ele>589.6</ele>
        <time>2019-08-18T07:33:58Z</time>
      </trkpt>
      <trkpt lat="42.5996840" lon="-8.1843190">
        <ele>589.2</ele>
        <time>2019-08-18T07:33:59Z</time>
      </trkpt>
      <trkpt lat="42.5997600" lon="-8.1843030">
        <ele>588.9</ele>
        <time>2019-08-18T07:34:00Z</time>
      </trkpt>
      <trkpt lat="42.5998380" lon="-8.1842870">
        <ele>588.6</ele>
        <time>2019-08-18T07:34:01Z</time>
      </trkpt>
      <trkpt lat="42.5999170" lon="-8.1842710">
        <ele>588.2</ele>
        <time>2019-08-18T07:34:02Z</time>
      </trkpt>
      <trkpt lat="42.5999960" lon="-8.1842540">
        <ele>587.9</ele>
        <time>2019-08-18T07:34:03Z</time>
      </trkpt>
      <trkpt lat="42.6000770" lon="-8.1842380">
        <ele>587.6</ele>
        <time>2019-08-18T07:34:04Z</time>
      </trkpt>
      <trkpt lat="42.6001590" lon="-8.1842210">
        <ele>587.4</ele>
        <time>2019-08-18T07:34:05Z</time>
      </trkpt>
      <trkpt lat="42.6002400" lon="-8.1842040">
        <ele>587.1</ele>
        <time>2019-08-18T07:34:06Z</time>
      </trkpt>
      <trkpt lat="42.6003210" lon="-8.1841880">
        <ele>586.9</ele>
        <time>2019-08-18T07:34:07Z</time>
      </trkpt>
      <trkpt lat="42.6004010" lon="-8.1841720">
        <ele>586.6</ele>
        <time>2019-08-18T07:34:08Z</time>
      </trkpt>
      <trkpt lat="42.6004780" lon="-8.1841560">
        <ele>586.3</ele>
        <time>2019-08-18T07:34:09Z</time>
      </trkpt>
      <trkpt lat="42.6005550" lon="-8.1841390">
        <ele>585.4</ele>
        <time>2019-08-18T07:34:10Z</time>
      </trkpt>
      <trkpt lat="42.6006320" lon="-8.1841230">
        <ele>584.7</ele>
        <time>2019-08-18T07:34:11Z</time>
      </trkpt>
      <trkpt lat="42.6007100" lon="-8.1841060">
        <ele>584.1</ele>
        <time>2019-08-18T07:34:12Z</time>
      </trkpt>
      <trkpt lat="42.6007910" lon="-8.1840890">
        <ele>583.4</ele>
        <time>2019-08-18T07:34:13Z</time>
      </trkpt>
      <trkpt lat="42.6008720" lon="-8.1840720">
        <ele>582.8</ele>
        <time>2019-08-18T07:34:14Z</time>
      </trkpt>
      <trkpt lat="42.6009550" lon="-8.1840570">
        <ele>582.1</ele>
        <time>2019-08-18T07:34:15Z</time>
      </trkpt>
      <trkpt lat="42.6010380" lon="-8.1840440">
        <ele>581.5</ele>
        <time>2019-08-18T07:34:16Z</time>
      </trkpt>
      <trkpt lat="42.6011210" lon="-8.1840330">
        <ele>580.8</ele>
        <time>2019-08-18T07:34:17Z</time>
      </trkpt>
      <trkpt lat="42.6012050" lon="-8.1840260">
        <ele>580.2</ele>
        <time>2019-08-18T07:34:18Z</time>
      </trkpt>
      <trkpt lat="42.6012890" lon="-8.1840210">
        <ele>579.6</ele>
        <time>2019-08-18T07:34:19Z</time>
      </trkpt>
      <trkpt lat="42.6013730" lon="-8.1840190">
        <ele>579.0</ele>
        <time>2019-08-18T07:34:20Z</time>
      </trkpt>
      <trkpt lat="42.6014570" lon="-8.1840190">
        <ele>578.4</ele>
        <time>2019-08-18T07:34:21Z</time>
      </trkpt>
      <trkpt lat="42.6015830" lon="-8.1840220">
        <ele>577.4</ele>
        <time>2019-08-18T07:34:22Z</time>
      </trkpt>
      <trkpt lat="42.6016250" lon="-8.1840240">
        <ele>577.0</ele>
        <time>2019-08-18T07:34:23Z</time>
      </trkpt>
      <trkpt lat="42.6017080" lon="-8.1840280">
        <ele>576.1</ele>
        <time>2019-08-18T07:34:24Z</time>
      </trkpt>
      <trkpt lat="42.6017910" lon="-8.1840330">
        <ele>575.5</ele>
        <time>2019-08-18T07:34:25Z</time>
      </trkpt>
      <trkpt lat="42.6018740" lon="-8.1840380">
        <ele>574.8</ele>
        <time>2019-08-18T07:34:26Z</time>
      </trkpt>
      <trkpt lat="42.6019550" lon="-8.1840430">
        <ele>574.2</ele>
        <time>2019-08-18T07:34:27Z</time>
      </trkpt>
      <trkpt lat="42.6020360" lon="-8.1840480">
        <ele>573.4</ele>
        <time>2019-08-18T07:34:28Z</time>
      </trkpt>
      <trkpt lat="42.6021170" lon="-8.1840520">
        <ele>572.7</ele>
        <time>2019-08-18T07:34:29Z</time>
      </trkpt>
      <trkpt lat="42.6021970" lon="-8.1840560">
        <ele>572.5</ele>
        <time>2019-08-18T07:34:30Z</time>
      </trkpt>
      <trkpt lat="42.6022760" lon="-8.1840600">
        <ele>572.3</ele>
        <time>2019-08-18T07:34:31Z</time>
      </trkpt>
      <trkpt lat="42.6023550" lon="-8.1840630">
        <ele>572.1</ele>
        <time>2019-08-18T07:34:32Z</time>
      </trkpt>
      <trkpt lat="42.6024330" lon="-8.1840670">
        <ele>571.9</ele>
        <time>2019-08-18T07:34:33Z</time>
      </trkpt>
      <trkpt lat="42.6025110" lon="-8.1840700">
        <ele>571.7</ele>
        <time>2019-08-18T07:34:34Z</time>
      </trkpt>
      <trkpt lat="42.6025880" lon="-8.1840730">
        <ele>571.5</ele>
        <time>2019-08-18T07:34:35Z</time>
      </trkpt>
      <trkpt lat="42.6026640" lon="-8.1840760">
        <ele>571.2</ele>
        <time>2019-08-18T07:34:36Z</time>
      </trkpt>
      <trkpt lat="42.6027400" lon="-8.1840790">
        <ele>571.0</ele>
        <time>2019-08-18T07:34:37Z</time>
      </trkpt>
      <trkpt lat="42.6028160" lon="-8.1840820">
        <ele>570.8</ele>
        <time>2019-08-18T07:34:38Z</time>
      </trkpt>
      <trkpt lat="42.6028910" lon="-8.1840850">
        <ele>570.7</ele>
        <time>2019-08-18T07:34:39Z</time>
      </trkpt>
      <trkpt lat="42.6029660" lon="-8.1840880">
        <ele>570.7</ele>
        <time>2019-08-18T07:34:40Z</time>
      </trkpt>
      <trkpt lat="42.6030400" lon="-8.1840910">
        <ele>570.7</ele>
        <time>2019-08-18T07:34:41Z</time>
      </trkpt>
      <trkpt lat="42.6031140" lon="-8.1840940">
        <ele>570.7</ele>
        <time>2019-08-18T07:34:42Z</time>
      </trkpt>
      <trkpt lat="42.6031880" lon="-8.1840970">
        <ele>570.6</ele>
        <time>2019-08-18T07:34:43Z</time>
      </trkpt>
      <trkpt lat="42.6032610" lon="-8.1841000">
        <ele>570.6</ele>
        <time>2019-08-18T07:34:44Z</time>
      </trkpt>
      <trkpt lat="42.6033340" lon="-8.1841040">
        <ele>570.5</ele>
        <time>2019-08-18T07:34:45Z</time>
      </trkpt>
      <trkpt lat="42.6034060" lon="-8.1841070">
        <ele>570.5</ele>
        <time>2019-08-18T07:34:46Z</time>
      </trkpt>
      <trkpt lat="42.6034790" lon="-8.1841110">
        <ele>570.4</ele>
        <time>2019-08-18T07:34:47Z</time>
      </trkpt>
      <trkpt lat="42.6035510" lon="-8.1841140">
        <ele>570.3</ele>
        <time>2019-08-18T07:34:48Z</time>
      </trkpt>
      <trkpt lat="42.6036220" lon="-8.1841180">
        <ele>570.2</ele>
        <time>2019-08-18T07:34:49Z</time>
      </trkpt>
      <trkpt lat="42.6036940" lon="-8.1841220">
        <ele>570.1</ele>
        <time>2019-08-18T07:34:50Z</time>
      </trkpt>
      <trkpt lat="42.6037660" lon="-8.1841260">
        <ele>569.9</ele>
        <time>2019-08-18T07:34:51Z</time>
      </trkpt>
      <trkpt lat="42.6038390" lon="-8.1841290">
        <ele>569.8</ele>
        <time>2019-08-18T07:34:52Z</time>
      </trkpt>
      <trkpt lat="42.6039120" lon="-8.1841320">
        <ele>569.7</ele>
        <time>2019-08-18T07:34:53Z</time>
      </trkpt>
      <trkpt lat="42.6039870" lon="-8.1841360">
        <ele>569.5</ele>
        <time>2019-08-18T07:34:54Z</time>
      </trkpt>
      <trkpt lat="42.6040620" lon="-8.1841430">
        <ele>569.4</ele>
        <time>2019-08-18T07:34:55Z</time>
      </trkpt>
      <trkpt lat="42.6041890" lon="-8.1841680">
        <ele>569.0</ele>
        <time>2019-08-18T07:34:56Z</time>
      </trkpt>
      <trkpt lat="42.6042400" lon="-8.1841810">
        <ele>568.9</ele>
        <time>2019-08-18T07:34:57Z</time>
      </trkpt>
      <trkpt lat="42.6042910" lon="-8.1841950">
        <ele>568.6</ele>
        <time>2019-08-18T07:34:58Z</time>
      </trkpt>
      <trkpt lat="42.6043680" lon="-8.1842230">
        <ele>568.3</ele>
        <time>2019-08-18T07:34:59Z</time>
      </trkpt>
      <trkpt lat="42.6044820" lon="-8.1842750">
        <ele>567.7</ele>
        <time>2019-08-18T07:35:00Z</time>
      </trkpt>
      <trkpt lat="42.6045190" lon="-8.1842950">
        <ele>567.5</ele>
        <time>2019-08-18T07:35:01Z</time>
      </trkpt>
      <trkpt lat="42.6045930" lon="-8.1843340">
        <ele>567.1</ele>
        <time>2019-08-18T07:35:02Z</time>
      </trkpt>
      <trkpt lat="42.6046660" lon="-8.1843780">
        <ele>566.8</ele>
        <time>2019-08-18T07:35:03Z</time>
      </trkpt>
      <trkpt lat="42.6047360" lon="-8.1844250">
        <ele>566.4</ele>
        <time>2019-08-18T07:35:04Z</time>
      </trkpt>
      <trkpt lat="42.6048050" lon="-8.1844730">
        <ele>566.1</ele>
        <time>2019-08-18T07:35:05Z</time>
      </trkpt>
      <trkpt lat="42.6048720" lon="-8.1845230">
        <ele>565.8</ele>
        <time>2019-08-18T07:35:06Z</time>
      </trkpt>
      <trkpt lat="42.6049370" lon="-8.1845730">
        <ele>565.5</ele>
        <time>2019-08-18T07:35:07Z</time>
      </trkpt>
      <trkpt lat="42.6050000" lon="-8.1846240">
        <ele>565.2</ele>
        <time>2019-08-18T07:35:08Z</time>
      </trkpt>
      <trkpt lat="42.6050620" lon="-8.1846740">
        <ele>564.8</ele>
        <time>2019-08-18T07:35:09Z</time>
      </trkpt>
      <trkpt lat="42.6051530" lon="-8.1847460">
        <ele>564.3</ele>
        <time>2019-08-18T07:35:10Z</time>
      </trkpt>
      <trkpt lat="42.6051820" lon="-8.1847700">
        <ele>564.2</ele>
        <time>2019-08-18T07:35:11Z</time>
      </trkpt>
      <trkpt lat="42.6052400" lon="-8.1848170">
        <ele>563.8</ele>
        <time>2019-08-18T07:35:12Z</time>
      </trkpt>
      <trkpt lat="42.6052970" lon="-8.1848620">
        <ele>563.6</ele>
        <time>2019-08-18T07:35:13Z</time>
      </trkpt>
      <trkpt lat="42.6053530" lon="-8.1849060">
        <ele>563.3</ele>
        <time>2019-08-18T07:35:14Z</time>
      </trkpt>
      <trkpt lat="42.6054080" lon="-8.1849490">
        <ele>563.1</ele>
        <time>2019-08-18T07:35:15Z</time>
      </trkpt>
      <trkpt lat="42.6054630" lon="-8.1849910">
        <ele>562.9</ele>
        <time>2019-08-18T07:35:16Z</time>
      </trkpt>
      <trkpt lat="42.6055540" lon="-8.1850620">
        <ele>562.6</ele>
        <time>2019-08-18T07:35:17Z</time>
      </trkpt>
      <trkpt lat="42.6055910" lon="-8.1850890">
        <ele>562.5</ele>
        <time>2019-08-18T07:35:18Z</time>
      </trkpt>
      <trkpt lat="42.6056270" lon="-8.1851170">
        <ele>562.4</ele>
        <time>2019-08-18T07:35:19Z</time>
      </trkpt>
      <trkpt lat="42.6056820" lon="-8.1851590">
        <ele>562.3</ele>
        <time>2019-08-18T07:35:20Z</time>
      </trkpt>
      <trkpt lat="42.6057380" lon="-8.1852010">
        <ele>562.2</ele>
        <time>2019-08-18T07:35:21Z</time>
      </trkpt>
      <trkpt lat="42.6058320" lon="-8.1852660">
        <ele>562.0</ele>
        <time>2019-08-18T07:35:22Z</time>
      </trkpt>
      <trkpt lat="42.6058700" lon="-8.1852910">
        <ele>561.9</ele>
        <time>2019-08-18T07:35:23Z</time>
      </trkpt>
      <trkpt lat="42.6059080" lon="-8.1853160">
        <ele>561.9</ele>
        <time>2019-08-18T07:35:24Z</time>
      </trkpt>
      <trkpt lat="42.6059660" lon="-8.1853450">
        <ele>561.8</ele>
        <time>2019-08-18T07:35:25Z</time>
      </trkpt>
      <trkpt lat="42.6060240" lon="-8.1853680">
        <ele>561.7</ele>
        <time>2019-08-18T07:35:26Z</time>
      </trkpt>
      <trkpt lat="42.6060830" lon="-8.1853850">
        <ele>561.6</ele>
        <time>2019-08-18T07:35:27Z</time>
      </trkpt>
      <trkpt lat="42.6061420" lon="-8.1853970">
        <ele>561.5</ele>
        <time>2019-08-18T07:35:28Z</time>
      </trkpt>
      <trkpt lat="42.6062010" lon="-8.1854040">
        <ele>561.4</ele>
        <time>2019-08-18T07:35:29Z</time>
      </trkpt>
      <trkpt lat="42.6062610" lon="-8.1854080">
        <ele>561.3</ele>
        <time>2019-08-18T07:35:30Z</time>
      </trkpt>
      <trkpt lat="42.6063200" lon="-8.1854100">
        <ele>561.2</ele>
        <time>2019-08-18T07:35:31Z</time>
      </trkpt>
      <trkpt lat="42.6063790" lon="-8.1854100">
        <ele>561.1</ele>
        <time>2019-08-18T07:35:32Z</time>
      </trkpt>
      <trkpt lat="42.6064380" lon="-8.1854100">
        <ele>561.1</ele>
        <time>2019-08-18T07:35:33Z</time>
      </trkpt>
      <trkpt lat="42.6064960" lon="-8.1854090">
        <ele>561.0</ele>
        <time>2019-08-18T07:35:34Z</time>
      </trkpt>
      <trkpt lat="42.6065550" lon="-8.1854070">
        <ele>561.1</ele>
        <time>2019-08-18T07:35:35Z</time>
      </trkpt>
      <trkpt lat="42.6066130" lon="-8.1854060">
        <ele>561.2</ele>
        <time>2019-08-18T07:35:36Z</time>
      </trkpt>
      <trkpt lat="42.6066710" lon="-8.1854040">
        <ele>561.3</ele>
        <time>2019-08-18T07:35:37Z</time>
      </trkpt>
      <trkpt lat="42.6067280" lon="-8.1854020">
        <ele>561.4</ele>
        <time>2019-08-18T07:35:38Z</time>
      </trkpt>
      <trkpt lat="42.6067850" lon="-8.1853990">
        <ele>561.6</ele>
        <time>2019-08-18T07:35:39Z</time>
      </trkpt>
      <trkpt lat="42.6068420" lon="-8.1853960">
        <ele>561.7</ele>
        <time>2019-08-18T07:35:40Z</time>
      </trkpt>
      <trkpt lat="42.6068990" lon="-8.1853940">
        <ele>561.8</ele>
        <time>2019-08-18T07:35:41Z</time>
      </trkpt>
      <trkpt lat="42.6069560" lon="-8.1853910">
        <ele>561.9</ele>
        <time>2019-08-18T07:35:42Z</time>
      </trkpt>
      <trkpt lat="42.6070120" lon="-8.1853880">
        <ele>562.1</ele>
        <time>2019-08-18T07:35:43Z</time>
      </trkpt>
      <trkpt lat="42.6070690" lon="-8.1853860">
        <ele>562.2</ele>
        <time>2019-08-18T07:35:44Z</time>
      </trkpt>
      <trkpt lat="42.6071250" lon="-8.1853840">
        <ele>562.3</ele>
        <time>2019-08-18T07:35:45Z</time>
      </trkpt>
      <trkpt lat="42.6071820" lon="-8.1853820">
        <ele>562.4</ele>
        <time>2019-08-18T07:35:46Z</time>
      </trkpt>
      <trkpt lat="42.6072380" lon="-8.1853810">
        <ele>562.6</ele>
        <time>2019-08-18T07:35:47Z</time>
      </trkpt>
      <trkpt lat="42.6072950" lon="-8.1853810">
        <ele>562.8</ele>
        <time>2019-08-18T07:35:48Z</time>
      </trkpt>
      <trkpt lat="42.6073510" lon="-8.1853810">
        <ele>563.0</ele>
        <time>2019-08-18T07:35:49Z</time>
      </trkpt>
      <trkpt lat="42.6074070" lon="-8.1853800">
        <ele>563.1</ele>
        <time>2019-08-18T07:35:50Z</time>
      </trkpt>
      <trkpt lat="42.6074630" lon="-8.1853790">
        <ele>563.3</ele>
        <time>2019-08-18T07:35:51Z</time>
      </trkpt>
      <trkpt lat="42.6075190" lon="-8.1853780">
        <ele>563.6</ele>
        <time>2019-08-18T07:35:52Z</time>
      </trkpt>
      <trkpt lat="42.6075750" lon="-8.1853760">
        <ele>563.7</ele>
        <time>2019-08-18T07:35:53Z</time>
      </trkpt>
      <trkpt lat="42.6076300" lon="-8.1853730">
        <ele>563.9</ele>
        <time>2019-08-18T07:35:54Z</time>
      </trkpt>
      <trkpt lat="42.6076850" lon="-8.1853690">
        <ele>564.2</ele>
        <time>2019-08-18T07:35:55Z</time>
      </trkpt>
      <trkpt lat="42.6077400" lon="-8.1853640">
        <ele>564.4</ele>
        <time>2019-08-18T07:35:56Z</time>
      </trkpt>
      <trkpt lat="42.6077940" lon="-8.1853600">
        <ele>564.5</ele>
        <time>2019-08-18T07:35:57Z</time>
      </trkpt>
      <trkpt lat="42.6078500" lon="-8.1853580">
        <ele>564.8</ele>
        <time>2019-08-18T07:35:58Z</time>
      </trkpt>
      <trkpt lat="42.6079060" lon="-8.1853590">
        <ele>565.1</ele>
        <time>2019-08-18T07:35:59Z</time>
      </trkpt>
      <trkpt lat="42.6079620" lon="-8.1853610">
        <ele>565.3</ele>
        <time>2019-08-18T07:36:00Z</time>
      </trkpt>
      <trkpt lat="42.6080180" lon="-8.1853650">
        <ele>565.5</ele>
        <time>2019-08-18T07:36:01Z</time>
      </trkpt>
      <trkpt lat="42.6080740" lon="-8.1853700">
        <ele>565.8</ele>
        <time>2019-08-18T07:36:02Z</time>
      </trkpt>
      <trkpt lat="42.6081290" lon="-8.1853760">
        <ele>566.0</ele>
        <time>2019-08-18T07:36:03Z</time>
      </trkpt>
      <trkpt lat="42.6082100" lon="-8.1853890">
        <ele>566.0</ele>
        <time>2019-08-18T07:36:04Z</time>
      </trkpt>
      <trkpt lat="42.6082360" lon="-8.1853940">
        <ele>565.9</ele>
        <time>2019-08-18T07:36:05Z</time>
      </trkpt>
      <trkpt lat="42.6082880" lon="-8.1854050">
        <ele>565.9</ele>
        <time>2019-08-18T07:36:06Z</time>
      </trkpt>
      <trkpt lat="42.6083400" lon="-8.1854190">
        <ele>565.8</ele>
        <time>2019-08-18T07:36:07Z</time>
      </trkpt>
      <trkpt lat="42.6083900" lon="-8.1854350">
        <ele>565.7</ele>
        <time>2019-08-18T07:36:08Z</time>
      </trkpt>
      <trkpt lat="42.6084400" lon="-8.1854530">
        <ele>565.6</ele>
        <time>2019-08-18T07:36:09Z</time>
      </trkpt>
      <trkpt lat="42.6084880" lon="-8.1854740">
        <ele>565.6</ele>
        <time>2019-08-18T07:36:10Z</time>
      </trkpt>
      <trkpt lat="42.6085370" lon="-8.1854960">
        <ele>565.4</ele>
        <time>2019-08-18T07:36:11Z</time>
      </trkpt>
      <trkpt lat="42.6085850" lon="-8.1855210">
        <ele>565.3</ele>
        <time>2019-08-18T07:36:12Z</time>
      </trkpt>
      <trkpt lat="42.6086350" lon="-8.1855470">
        <ele>565.1</ele>
        <time>2019-08-18T07:36:13Z</time>
      </trkpt>
      <trkpt lat="42.6086850" lon="-8.1855750">
        <ele>564.9</ele>
        <time>2019-08-18T07:36:14Z</time>
      </trkpt>
      <trkpt lat="42.6087360" lon="-8.1856030">
        <ele>564.7</ele>
        <time>2019-08-18T07:36:15Z</time>
      </trkpt>
      <trkpt lat="42.6087900" lon="-8.1856330">
        <ele>564.5</ele>
        <time>2019-08-18T07:36:16Z</time>
      </trkpt>
      <trkpt lat="42.6088450" lon="-8.1856630">
        <ele>564.2</ele>
        <time>2019-08-18T07:36:17Z</time>
      </trkpt>
      <trkpt lat="42.6089010" lon="-8.1856940">
        <ele>563.9</ele>
        <time>2019-08-18T07:36:18Z</time>
      </trkpt>
      <trkpt lat="42.6089590" lon="-8.1857260">
        <ele>563.6</ele>
        <time>2019-08-18T07:36:19Z</time>
      </trkpt>
      <trkpt lat="42.6090170" lon="-8.1857580">
        <ele>563.4</ele>
        <time>2019-08-18T07:36:20Z</time>
      </trkpt>
      <trkpt lat="42.6090770" lon="-8.1857920">
        <ele>563.1</ele>
        <time>2019-08-18T07:36:21Z</time>
      </trkpt>
      <trkpt lat="42.6091390" lon="-8.1858270">
        <ele>562.9</ele>
        <time>2019-08-18T07:36:22Z</time>
      </trkpt>
      <trkpt lat="42.6092030" lon="-8.1858640">
        <ele>562.6</ele>
        <time>2019-08-18T07:36:23Z</time>
      </trkpt>
      <trkpt lat="42.6092690" lon="-8.1859040">
        <ele>562.3</ele>
        <time>2019-08-18T07:36:24Z</time>
      </trkpt>
      <trkpt lat="42.6093380" lon="-8.1859450">
        <ele>561.9</ele>
        <time>2019-08-18T07:36:25Z</time>
      </trkpt>
      <trkpt lat="42.6094080" lon="-8.1859870">
        <ele>561.6</ele>
        <time>2019-08-18T07:36:26Z</time>
      </trkpt>
      <trkpt lat="42.6094790" lon="-8.1860290">
        <ele>561.2</ele>
        <time>2019-08-18T07:36:27Z</time>
      </trkpt>
      <trkpt lat="42.6095510" lon="-8.1860700">
        <ele>560.7</ele>
        <time>2019-08-18T07:36:28Z</time>
      </trkpt>
      <trkpt lat="42.6096230" lon="-8.1861100">
        <ele>560.0</ele>
        <time>2019-08-18T07:36:29Z</time>
      </trkpt>
      <trkpt lat="42.6096960" lon="-8.1861480">
        <ele>559.6</ele>
        <time>2019-08-18T07:36:30Z</time>
      </trkpt>
      <trkpt lat="42.6097690" lon="-8.1861840">
        <ele>559.1</ele>
        <time>2019-08-18T07:36:31Z</time>
      </trkpt>
      <trkpt lat="42.6098430" lon="-8.1862180">
        <ele>558.6</ele>
        <time>2019-08-18T07:36:32Z</time>
      </trkpt>
      <trkpt lat="42.6099190" lon="-8.1862490">
        <ele>558.0</ele>
        <time>2019-08-18T07:36:33Z</time>
      </trkpt>
      <trkpt lat="42.6099960" lon="-8.1862780">
        <ele>557.4</ele>
        <time>2019-08-18T07:36:34Z</time>
      </trkpt>
      <trkpt lat="42.6100750" lon="-8.1863040">
        <ele>556.9</ele>
        <time>2019-08-18T07:36:35Z</time>
      </trkpt>
      <trkpt lat="42.6101560" lon="-8.1863270">
        <ele>556.4</ele>
        <time>2019-08-18T07:36:36Z</time>
      </trkpt>
      <trkpt lat="42.6102390" lon="-8.1863480">
        <ele>555.8</ele>
        <time>2019-08-18T07:36:37Z</time>
      </trkpt>
      <trkpt lat="42.6103240" lon="-8.1863690">
        <ele>555.0</ele>
        <time>2019-08-18T07:36:38Z</time>
      </trkpt>
      <trkpt lat="42.6104100" lon="-8.1863900">
        <ele>554.2</ele>
        <time>2019-08-18T07:36:39Z</time>
      </trkpt>
      <trkpt lat="42.6104980" lon="-8.1864110">
        <ele>553.4</ele>
        <time>2019-08-18T07:36:40Z</time>
      </trkpt>
      <trkpt lat="42.6105870" lon="-8.1864330">
        <ele>552.5</ele>
        <time>2019-08-18T07:36:41Z</time>
      </trkpt>
      <trkpt lat="42.6106750" lon="-8.1864560">
        <ele>551.7</ele>
        <time>2019-08-18T07:36:42Z</time>
      </trkpt>
      <trkpt lat="42.6107620" lon="-8.1864800">
        <ele>550.9</ele>
        <time>2019-08-18T07:36:43Z</time>
      </trkpt>
      <trkpt lat="42.6108480" lon="-8.1865070">
        <ele>550.1</ele>
        <time>2019-08-18T07:36:44Z</time>
      </trkpt>
      <trkpt lat="42.6109320" lon="-8.1865370">
        <ele>549.4</ele>
        <time>2019-08-18T07:36:45Z</time>
      </trkpt>
      <trkpt lat="42.6110130" lon="-8.1865700">
        <ele>548.6</ele>
        <time>2019-08-18T07:36:46Z</time>
      </trkpt>
      <trkpt lat="42.6111410" lon="-8.1866300">
        <ele>548.3</ele>
        <time>2019-08-18T07:36:47Z</time>
      </trkpt>
      <trkpt lat="42.6111910" lon="-8.1866560">
        <ele>548.2</ele>
        <time>2019-08-18T07:36:48Z</time>
      </trkpt>
      <trkpt lat="42.6112410" lon="-8.1866810">
        <ele>548.1</ele>
        <time>2019-08-18T07:36:49Z</time>
      </trkpt>
      <trkpt lat="42.6113120" lon="-8.1867210">
        <ele>548.0</ele>
        <time>2019-08-18T07:36:50Z</time>
      </trkpt>
      <trkpt lat="42.6113820" lon="-8.1867620">
        <ele>548.0</ele>
        <time>2019-08-18T07:36:51Z</time>
      </trkpt>
      <trkpt lat="42.6114950" lon="-8.1868290">
        <ele>548.0</ele>
        <time>2019-08-18T07:36:52Z</time>
      </trkpt>
      <trkpt lat="42.6115400" lon="-8.1868550">
        <ele>548.0</ele>
        <time>2019-08-18T07:36:53Z</time>
      </trkpt>
      <trkpt lat="42.6115840" lon="-8.1868820">
        <ele>548.0</ele>
        <time>2019-08-18T07:36:54Z</time>
      </trkpt>
      <trkpt lat="42.6116490" lon="-8.1869200">
        <ele>548.0</ele>
        <time>2019-08-18T07:36:55Z</time>
      </trkpt>
      <trkpt lat="42.6117130" lon="-8.1869580">
        <ele>548.0</ele>
        <time>2019-08-18T07:36:56Z</time>
      </trkpt>
      <trkpt lat="42.6117760" lon="-8.1869960">
        <ele>548.0</ele>
        <time>2019-08-18T07:36:57Z</time>
      </trkpt>
      <trkpt lat="42.6118380" lon="-8.1870340">
        <ele>548.0</ele>
        <time>2019-08-18T07:36:58Z</time>
      </trkpt>
      <trkpt lat="42.6118980" lon="-8.1870720">
        <ele>548.0</ele>
        <time>2019-08-18T07:36:59Z</time>
      </trkpt>
      <trkpt lat="42.6119580" lon="-8.1871100">
        <ele>547.9</ele>
        <time>2019-08-18T07:37:00Z</time>
      </trkpt>
      <trkpt lat="42.6120160" lon="-8.1871480">
        <ele>547.9</ele>
        <time>2019-08-18T07:37:01Z</time>
      </trkpt>
      <trkpt lat="42.6120730" lon="-8.1871870">
        <ele>547.9</ele>
        <time>2019-08-18T07:37:02Z</time>
      </trkpt>
      <trkpt lat="42.6121290" lon="-8.1872270">
        <ele>547.8</ele>
        <time>2019-08-18T07:37:03Z</time>
      </trkpt>
      <trkpt lat="42.6121860" lon="-8.1872670">
        <ele>547.8</ele>
        <time>2019-08-18T07:37:04Z</time>
      </trkpt>
      <trkpt lat="42.6122420" lon="-8.1873070">
        <ele>547.8</ele>
        <time>2019-08-18T07:37:05Z</time>
      </trkpt>
      <trkpt lat="42.6122990" lon="-8.1873470">
        <ele>547.8</ele>
        <time>2019-08-18T07:37:06Z</time>
      </trkpt>
      <trkpt lat="42.6123560" lon="-8.1873880">
        <ele>547.7</ele>
        <time>2019-08-18T07:37:07Z</time>
      </trkpt>
      <trkpt lat="42.6124150" lon="-8.1874290">
        <ele>547.7</ele>
        <time>2019-08-18T07:37:08Z</time>
      </trkpt>
      <trkpt lat="42.6124740" lon="-8.1874700">
        <ele>547.7</ele>
        <time>2019-08-18T07:37:09Z</time>
      </trkpt>
      <trkpt lat="42.6125350" lon="-8.1875110">
        <ele>547.6</ele>
        <time>2019-08-18T07:37:10Z</time>
      </trkpt>
      <trkpt lat="42.6125960" lon="-8.1875520">
        <ele>547.6</ele>
        <time>2019-08-18T07:37:11Z</time>
      </trkpt>
      <trkpt lat="42.6126580" lon="-8.1875930">
        <ele>547.5</ele>
        <time>2019-08-18T07:37:12Z</time>
      </trkpt>
      <trkpt lat="42.6127210" lon="-8.1876340">
        <ele>547.5</ele>
        <time>2019-08-18T07:37:13Z</time>
      </trkpt>
      <trkpt lat="42.6127840" lon="-8.1876750">
        <ele>547.4</ele>
        <time>2019-08-18T07:37:14Z</time>
      </trkpt>
      <trkpt lat="42.6128480" lon="-8.1877150">
        <ele>547.2</ele>
        <time>2019-08-18T07:37:15Z</time>
      </trkpt>
      <trkpt lat="42.6129110" lon="-8.1877540">
        <ele>547.3</ele>
        <time>2019-08-18T07:37:16Z</time>
      </trkpt>
      <trkpt lat="42.6129760" lon="-8.1877940">
        <ele>547.3</ele>
        <time>2019-08-18T07:37:17Z</time>
      </trkpt>
      <trkpt lat="42.6130400" lon="-8.1878340">
        <ele>547.3</ele>
        <time>2019-08-18T07:37:18Z</time>
      </trkpt>
      <trkpt lat="42.6131040" lon="-8.1878740">
        <ele>547.3</ele>
        <time>2019-08-18T07:37:19Z</time>
      </trkpt>
      <trkpt lat="42.6131670" lon="-8.1879140">
        <ele>547.4</ele>
        <time>2019-08-18T07:37:20Z</time>
      </trkpt>
      <trkpt lat="42.6132310" lon="-8.1879560">
        <ele>547.4</ele>
        <time>2019-08-18T07:37:21Z</time>
      </trkpt>
      <trkpt lat="42.6132940" lon="-8.1879980">
        <ele>547.1</ele>
        <time>2019-08-18T07:37:22Z</time>
      </trkpt>
      <trkpt lat="42.6133560" lon="-8.1880410">
        <ele>546.9</ele>
        <time>2019-08-18T07:37:23Z</time>
      </trkpt>
      <trkpt lat="42.6134170" lon="-8.1880850">
        <ele>546.7</ele>
        <time>2019-08-18T07:37:24Z</time>
      </trkpt>
      <trkpt lat="42.6134780" lon="-8.1881300">
        <ele>546.4</ele>
        <time>2019-08-18T07:37:25Z</time>
      </trkpt>
      <trkpt lat="42.6135380" lon="-8.1881770">
        <ele>546.3</ele>
        <time>2019-08-18T07:37:26Z</time>
      </trkpt>
      <trkpt lat="42.6135980" lon="-8.1882250">
        <ele>546.2</ele>
        <time>2019-08-18T07:37:27Z</time>
      </trkpt>
      <trkpt lat="42.6136560" lon="-8.1882730">
        <ele>546.1</ele>
        <time>2019-08-18T07:37:28Z</time>
      </trkpt>
      <trkpt lat="42.6137150" lon="-8.1883240">
        <ele>545.9</ele>
        <time>2019-08-18T07:37:29Z</time>
      </trkpt>
      <trkpt lat="42.6137720" lon="-8.1883750">
        <ele>545.8</ele>
        <time>2019-08-18T07:37:30Z</time>
      </trkpt>
      <trkpt lat="42.6138290" lon="-8.1884280">
        <ele>545.6</ele>
        <time>2019-08-18T07:37:31Z</time>
      </trkpt>
      <trkpt lat="42.6138850" lon="-8.1884810">
        <ele>545.4</ele>
        <time>2019-08-18T07:37:32Z</time>
      </trkpt>
      <trkpt lat="42.6139410" lon="-8.1885340">
        <ele>545.1</ele>
        <time>2019-08-18T07:37:33Z</time>
      </trkpt>
      <trkpt lat="42.6139960" lon="-8.1885870">
        <ele>544.8</ele>
        <time>2019-08-18T07:37:34Z</time>
      </trkpt>
      <trkpt lat="42.6140500" lon="-8.1886400">
        <ele>544.5</ele>
        <time>2019-08-18T07:37:35Z</time>
      </trkpt>
      <trkpt lat="42.6141040" lon="-8.1886920">
        <ele>544.2</ele>
        <time>2019-08-18T07:37:36Z</time>
      </trkpt>
      <trkpt lat="42.6141580" lon="-8.1887430">
        <ele>544.0</ele>
        <time>2019-08-18T07:37:37Z</time>
      </trkpt>
      <trkpt lat="42.6142110" lon="-8.1887940">
        <ele>543.7</ele>
        <time>2019-08-18T07:37:38Z</time>
      </trkpt>
      <trkpt lat="42.6142630" lon="-8.1888440">
        <ele>543.6</ele>
        <time>2019-08-18T07:37:39Z</time>
      </trkpt>
      <trkpt lat="42.6143160" lon="-8.1888940">
        <ele>543.4</ele>
        <time>2019-08-18T07:37:40Z</time>
      </trkpt>
      <trkpt lat="42.6143690" lon="-8.1889450">
        <ele>543.1</ele>
        <time>2019-08-18T07:37:41Z</time>
      </trkpt>
      <trkpt lat="42.6144230" lon="-8.1889960">
        <ele>542.9</ele>
        <time>2019-08-18T07:37:42Z</time>
      </trkpt>
      <trkpt lat="42.6144770" lon="-8.1890480">
        <ele>542.7</ele>
        <time>2019-08-18T07:37:43Z</time>
      </trkpt>
      <trkpt lat="42.6145320" lon="-8.1891020">
        <ele>542.4</ele>
        <time>2019-08-18T07:37:44Z</time>
      </trkpt>
      <trkpt lat="42.6145880" lon="-8.1891560">
        <ele>542.1</ele>
        <time>2019-08-18T07:37:45Z</time>
      </trkpt>
      <trkpt lat="42.6146440" lon="-8.1892110">
        <ele>541.8</ele>
        <time>2019-08-18T07:37:46Z</time>
      </trkpt>
      <trkpt lat="42.6147010" lon="-8.1892660">
        <ele>541.6</ele>
        <time>2019-08-18T07:37:47Z</time>
      </trkpt>
      <trkpt lat="42.6147580" lon="-8.1893200">
        <ele>541.4</ele>
        <time>2019-08-18T07:37:48Z</time>
      </trkpt>
      <trkpt lat="42.6148150" lon="-8.1893740">
        <ele>541.2</ele>
        <time>2019-08-18T07:37:49Z</time>
      </trkpt>
      <trkpt lat="42.6148720" lon="-8.1894270">
        <ele>541.0</ele>
        <time>2019-08-18T07:37:50Z</time>
      </trkpt>
      <trkpt lat="42.6149290" lon="-8.1894790">
        <ele>540.9</ele>
        <time>2019-08-18T07:37:51Z</time>
      </trkpt>
      <trkpt lat="42.6149860" lon="-8.1895320">
        <ele>540.8</ele>
        <time>2019-08-18T07:37:52Z</time>
      </trkpt>
      <trkpt lat="42.6150430" lon="-8.1895840">
        <ele>540.7</ele>
        <time>2019-08-18T07:37:53Z</time>
      </trkpt>
      <trkpt lat="42.6151000" lon="-8.1896370">
        <ele>540.5</ele>
        <time>2019-08-18T07:37:54Z</time>
      </trkpt>
      <trkpt lat="42.6151570" lon="-8.1896890">
        <ele>540.3</ele>
        <time>2019-08-18T07:37:55Z</time>
      </trkpt>
      <trkpt lat="42.6152130" lon="-8.1897420">
        <ele>540.1</ele>
        <time>2019-08-18T07:37:56Z</time>
      </trkpt>
      <trkpt lat="42.6152690" lon="-8.1897950">
        <ele>539.8</ele>
        <time>2019-08-18T07:37:57Z</time>
      </trkpt>
      <trkpt lat="42.6153250" lon="-8.1898480">
        <ele>539.5</ele>
        <time>2019-08-18T07:37:58Z</time>
      </trkpt>
      <trkpt lat="42.6153800" lon="-8.1899010">
        <ele>539.3</ele>
        <time>2019-08-18T07:37:59Z</time>
      </trkpt>
      <trkpt lat="42.6154350" lon="-8.1899550">
        <ele>539.0</ele>
        <time>2019-08-18T07:38:00Z</time>
      </trkpt>
      <trkpt lat="42.6154910" lon="-8.1900090">
        <ele>538.7</ele>
        <time>2019-08-18T07:38:01Z</time>
      </trkpt>
      <trkpt lat="42.6155470" lon="-8.1900630">
        <ele>538.4</ele>
        <time>2019-08-18T07:38:02Z</time>
      </trkpt>
      <trkpt lat="42.6156030" lon="-8.1901170">
        <ele>538.2</ele>
        <time>2019-08-18T07:38:03Z</time>
      </trkpt>
      <trkpt lat="42.6156600" lon="-8.1901710">
        <ele>537.9</ele>
        <time>2019-08-18T07:38:04Z</time>
      </trkpt>
      <trkpt lat="42.6157180" lon="-8.1902250">
        <ele>537.6</ele>
        <time>2019-08-18T07:38:05Z</time>
      </trkpt>
      <trkpt lat="42.6157780" lon="-8.1902790">
        <ele>537.2</ele>
        <time>2019-08-18T07:38:06Z</time>
      </trkpt>
      <trkpt lat="42.6158380" lon="-8.1903330">
        <ele>536.9</ele>
        <time>2019-08-18T07:38:07Z</time>
      </trkpt>
      <trkpt lat="42.6158980" lon="-8.1903850">
        <ele>536.4</ele>
        <time>2019-08-18T07:38:08Z</time>
      </trkpt>
      <trkpt lat="42.6159570" lon="-8.1904370">
        <ele>535.9</ele>
        <time>2019-08-18T07:38:09Z</time>
      </trkpt>
      <trkpt lat="42.6160150" lon="-8.1904860">
        <ele>535.4</ele>
        <time>2019-08-18T07:38:10Z</time>
      </trkpt>
      <trkpt lat="42.6160700" lon="-8.1905340">
        <ele>534.7</ele>
        <time>2019-08-18T07:38:11Z</time>
      </trkpt>
      <trkpt lat="42.6161230" lon="-8.1905780">
        <ele>534.1</ele>
        <time>2019-08-18T07:38:12Z</time>
      </trkpt>
      <trkpt lat="42.6161720" lon="-8.1906210">
        <ele>533.7</ele>
        <time>2019-08-18T07:38:13Z</time>
      </trkpt>
      <trkpt lat="42.6162180" lon="-8.1906620">
        <ele>533.5</ele>
        <time>2019-08-18T07:38:14Z</time>
      </trkpt>
      <trkpt lat="42.6162630" lon="-8.1907030">
        <ele>533.3</ele>
        <time>2019-08-18T07:38:15Z</time>
      </trkpt>
      <trkpt lat="42.6163070" lon="-8.1907460">
        <ele>533.1</ele>
        <time>2019-08-18T07:38:16Z</time>
      </trkpt>
      <trkpt lat="42.6163520" lon="-8.1907930">
        <ele>532.8</ele>
        <time>2019-08-18T07:38:17Z</time>
      </trkpt>
      <trkpt lat="42.6163960" lon="-8.1908440">
        <ele>532.6</ele>
        <time>2019-08-18T07:38:18Z</time>
      </trkpt>
      <trkpt lat="42.6164380" lon="-8.1909000">
        <ele>532.4</ele>
        <time>2019-08-18T07:38:19Z</time>
      </trkpt>
      <trkpt lat="42.6164800" lon="-8.1909620">
        <ele>532.2</ele>
        <time>2019-08-18T07:38:20Z</time>
      </trkpt>
      <trkpt lat="42.6165180" lon="-8.1910300">
        <ele>531.9</ele>
        <time>2019-08-18T07:38:21Z</time>
      </trkpt>
      <trkpt lat="42.6165550" lon="-8.1911040">
        <ele>531.7</ele>
        <time>2019-08-18T07:38:22Z</time>
      </trkpt>
      <trkpt lat="42.6165900" lon="-8.1911830">
        <ele>531.5</ele>
        <time>2019-08-18T07:38:23Z</time>
      </trkpt>
      <trkpt lat="42.6166240" lon="-8.1912660">
        <ele>531.1</ele>
        <time>2019-08-18T07:38:24Z</time>
      </trkpt>
      <trkpt lat="42.6166560" lon="-8.1913530">
        <ele>530.8</ele>
        <time>2019-08-18T07:38:25Z</time>
      </trkpt>
      <trkpt lat="42.6166890" lon="-8.1914420">
        <ele>530.5</ele>
        <time>2019-08-18T07:38:26Z</time>
      </trkpt>
      <trkpt lat="42.6167210" lon="-8.1915340">
        <ele>530.2</ele>
        <time>2019-08-18T07:38:27Z</time>
      </trkpt>
      <trkpt lat="42.6167530" lon="-8.1916280">
        <ele>529.8</ele>
        <time>2019-08-18T07:38:28Z</time>
      </trkpt>
      <trkpt lat="42.6167860" lon="-8.1917240">
        <ele>529.4</ele>
        <time>2019-08-18T07:38:29Z</time>
      </trkpt>
      <trkpt lat="42.6168190" lon="-8.1918210">
        <ele>528.9</ele>
        <time>2019-08-18T07:38:30Z</time>
      </trkpt>
      <trkpt lat="42.6168530" lon="-8.1919190">
        <ele>528.5</ele>
        <time>2019-08-18T07:38:31Z</time>
      </trkpt>
      <trkpt lat="42.6168870" lon="-8.1920190">
        <ele>528.1</ele>
        <time>2019-08-18T07:38:32Z</time>
      </trkpt>
      <trkpt lat="42.6169220" lon="-8.1921200">
        <ele>527.7</ele>
        <time>2019-08-18T07:38:33Z</time>
      </trkpt>
      <trkpt lat="42.6169580" lon="-8.1922220">
        <ele>527.3</ele>
        <time>2019-08-18T07:38:34Z</time>
      </trkpt>
      <trkpt lat="42.6169940" lon="-8.1923260">
        <ele>526.9</ele>
        <time>2019-08-18T07:38:35Z</time>
      </trkpt>
      <trkpt lat="42.6170310" lon="-8.1924310">
        <ele>526.6</ele>
        <time>2019-08-18T07:38:36Z</time>
      </trkpt>
      <trkpt lat="42.6170690" lon="-8.1925360">
        <ele>526.2</ele>
        <time>2019-08-18T07:38:37Z</time>
      </trkpt>
      <trkpt lat="42.6171070" lon="-8.1926430">
        <ele>525.8</ele>
        <time>2019-08-18T07:38:38Z</time>
      </trkpt>
      <trkpt lat="42.6171460" lon="-8.1927500">
        <ele>525.3</ele>
        <time>2019-08-18T07:38:39Z</time>
      </trkpt>
      <trkpt lat="42.6171840" lon="-8.1928570">
        <ele>524.8</ele>
        <time>2019-08-18T07:38:40Z</time>
      </trkpt>
      <trkpt lat="42.6172230" lon="-8.1929640">
        <ele>524.2</ele>
        <time>2019-08-18T07:38:41Z</time>
      </trkpt>
      <trkpt lat="42.6172620" lon="-8.1930710">
        <ele>523.6</ele>
        <time>2019-08-18T07:38:42Z</time>
      </trkpt>
      <trkpt lat="42.6173000" lon="-8.1931770">
        <ele>523.1</ele>
        <time>2019-08-18T07:38:43Z</time>
      </trkpt>
      <trkpt lat="42.6173370" lon="-8.1932830">
        <ele>522.5</ele>
        <time>2019-08-18T07:38:44Z</time>
      </trkpt>
      <trkpt lat="42.6173750" lon="-8.1933880">
        <ele>522.0</ele>
        <time>2019-08-18T07:38:45Z</time>
      </trkpt>
      <trkpt lat="42.6174120" lon="-8.1934920">
        <ele>521.6</ele>
        <time>2019-08-18T07:38:46Z</time>
      </trkpt>
      <trkpt lat="42.6174490" lon="-8.1935940">
        <ele>521.2</ele>
        <time>2019-08-18T07:38:47Z</time>
      </trkpt>
      <trkpt lat="42.6174850" lon="-8.1936960">
        <ele>520.8</ele>
        <time>2019-08-18T07:38:48Z</time>
      </trkpt>
      <trkpt lat="42.6175210" lon="-8.1937960">
        <ele>520.4</ele>
        <time>2019-08-18T07:38:49Z</time>
      </trkpt>
      <trkpt lat="42.6175570" lon="-8.1938940">
        <ele>520.0</ele>
        <time>2019-08-18T07:38:50Z</time>
      </trkpt>
      <trkpt lat="42.6175920" lon="-8.1939910">
        <ele>519.7</ele>
        <time>2019-08-18T07:38:51Z</time>
      </trkpt>
      <trkpt lat="42.6176270" lon="-8.1940870">
        <ele>519.3</ele>
        <time>2019-08-18T07:38:52Z</time>
      </trkpt>
      <trkpt lat="42.6176610" lon="-8.1941810">
        <ele>519.0</ele>
        <time>2019-08-18T07:38:53Z</time>
      </trkpt>
      <trkpt lat="42.6176950" lon="-8.1942740">
        <ele>518.7</ele>
        <time>2019-08-18T07:38:54Z</time>
      </trkpt>
      <trkpt lat="42.6177290" lon="-8.1943660">
        <ele>518.4</ele>
        <time>2019-08-18T07:38:55Z</time>
      </trkpt>
      <trkpt lat="42.6177630" lon="-8.1944580">
        <ele>518.1</ele>
        <time>2019-08-18T07:38:56Z</time>
      </trkpt>
      <trkpt lat="42.6177970" lon="-8.1945490">
        <ele>517.7</ele>
        <time>2019-08-18T07:38:57Z</time>
      </trkpt>
      <trkpt lat="42.6178300" lon="-8.1946400">
        <ele>517.5</ele>
        <time>2019-08-18T07:38:58Z</time>
      </trkpt>
      <trkpt lat="42.6178640" lon="-8.1947300">
        <ele>517.2</ele>
        <time>2019-08-18T07:38:59Z</time>
      </trkpt>
      <trkpt lat="42.6178970" lon="-8.1948210">
        <ele>516.9</ele>
        <time>2019-08-18T07:39:00Z</time>
      </trkpt>
      <trkpt lat="42.6179300" lon="-8.1949110">
        <ele>516.1</ele>
        <time>2019-08-18T07:39:01Z</time>
      </trkpt>
      <trkpt lat="42.6179620" lon="-8.1950010">
        <ele>516.0</ele>
        <time>2019-08-18T07:39:02Z</time>
      </trkpt>
      <trkpt lat="42.6179950" lon="-8.1950910">
        <ele>515.9</ele>
        <time>2019-08-18T07:39:03Z</time>
      </trkpt>
      <trkpt lat="42.6180270" lon="-8.1951810">
        <ele>515.7</ele>
        <time>2019-08-18T07:39:04Z</time>
      </trkpt>
      <trkpt lat="42.6180590" lon="-8.1952710">
        <ele>515.6</ele>
        <time>2019-08-18T07:39:05Z</time>
      </trkpt>
      <trkpt lat="42.6180910" lon="-8.1953610">
        <ele>515.4</ele>
        <time>2019-08-18T07:39:06Z</time>
      </trkpt>
      <trkpt lat="42.6181220" lon="-8.1954510">
        <ele>515.2</ele>
        <time>2019-08-18T07:39:07Z</time>
      </trkpt>
      <trkpt lat="42.6181530" lon="-8.1955410">
        <ele>514.9</ele>
        <time>2019-08-18T07:39:08Z</time>
      </trkpt>
      <trkpt lat="42.6181840" lon="-8.1956300">
        <ele>514.7</ele>
        <time>2019-08-18T07:39:09Z</time>
      </trkpt>
      <trkpt lat="42.6182140" lon="-8.1957200">
        <ele>514.5</ele>
        <time>2019-08-18T07:39:10Z</time>
      </trkpt>
      <trkpt lat="42.6182440" lon="-8.1958100">
        <ele>514.3</ele>
        <time>2019-08-18T07:39:11Z</time>
      </trkpt>
      <trkpt lat="42.6182730" lon="-8.1959000">
        <ele>514.1</ele>
        <time>2019-08-18T07:39:12Z</time>
      </trkpt>
      <trkpt lat="42.6183030" lon="-8.1959900">
        <ele>513.9</ele>
        <time>2019-08-18T07:39:13Z</time>
      </trkpt>
      <trkpt lat="42.6183320" lon="-8.1960800">
        <ele>513.8</ele>
        <time>2019-08-18T07:39:14Z</time>
      </trkpt>
      <trkpt lat="42.6183610" lon="-8.1961700">
        <ele>513.6</ele>
        <time>2019-08-18T07:39:15Z</time>
      </trkpt>
      <trkpt lat="42.6183910" lon="-8.1962590">
        <ele>513.4</ele>
        <time>2019-08-18T07:39:16Z</time>
      </trkpt>
      <trkpt lat="42.6184210" lon="-8.1963490">
        <ele>513.3</ele>
        <time>2019-08-18T07:39:17Z</time>
      </trkpt>
      <trkpt lat="42.6184510" lon="-8.1964380">
        <ele>513.1</ele>
        <time>2019-08-18T07:39:18Z</time>
      </trkpt>
      <trkpt lat="42.6184830" lon="-8.1965280">
        <ele>513.0</ele>
        <time>2019-08-18T07:39:19Z</time>
      </trkpt>
      <trkpt lat="42.6185150" lon="-8.1966170">
        <ele>512.8</ele>
        <time>2019-08-18T07:39:20Z</time>
      </trkpt>
      <trkpt lat="42.6185490" lon="-8.1967050">
        <ele>512.7</ele>
        <time>2019-08-18T07:39:21Z</time>
      </trkpt>
      <trkpt lat="42.6185850" lon="-8.1967920">
        <ele>512.5</ele>
        <time>2019-08-18T07:39:22Z</time>
      </trkpt>
      <trkpt lat="42.6186240" lon="-8.1968780">
        <ele>512.4</ele>
        <time>2019-08-18T07:39:23Z</time>
      </trkpt>
      <trkpt lat="42.6186660" lon="-8.1969620">
        <ele>512.2</ele>
        <time>2019-08-18T07:39:24Z</time>
      </trkpt>
      <trkpt lat="42.6187130" lon="-8.1970440">
        <ele>512.0</ele>
        <time>2019-08-18T07:39:25Z</time>
      </trkpt>
      <trkpt lat="42.6187630" lon="-8.1971230">
        <ele>511.8</ele>
        <time>2019-08-18T07:39:26Z</time>
      </trkpt>
      <trkpt lat="42.6188190" lon="-8.1972000">
        <ele>511.6</ele>
        <time>2019-08-18T07:39:27Z</time>
      </trkpt>
      <trkpt lat="42.6188800" lon="-8.1972730">
        <ele>511.4</ele>
        <time>2019-08-18T07:39:28Z</time>
      </trkpt>
      <trkpt lat="42.6189440" lon="-8.1973420">
        <ele>511.1</ele>
        <time>2019-08-18T07:39:29Z</time>
      </trkpt>
      <trkpt lat="42.6190120" lon="-8.1974080">
        <ele>510.9</ele>
        <time>2019-08-18T07:39:30Z</time>
      </trkpt>
      <trkpt lat="42.6190830" lon="-8.1974690">
        <ele>510.7</ele>
        <time>2019-08-18T07:39:31Z</time>
      </trkpt>
      <trkpt lat="42.6191560" lon="-8.1975260">
        <ele>510.4</ele>
        <time>2019-08-18T07:39:32Z</time>
      </trkpt>
      <trkpt lat="42.6192310" lon="-8.1975790">
        <ele>510.1</ele>
        <time>2019-08-18T07:39:33Z</time>
      </trkpt>
      <trkpt lat="42.6193070" lon="-8.1976260">
        <ele>509.8</ele>
        <time>2019-08-18T07:39:34Z</time>
      </trkpt>
      <trkpt lat="42.6193850" lon="-8.1976700">
        <ele>509.5</ele>
        <time>2019-08-18T07:39:35Z</time>
      </trkpt>
      <trkpt lat="42.6194630" lon="-8.1977100">
        <ele>509.1</ele>
        <time>2019-08-18T07:39:36Z</time>
      </trkpt>
      <trkpt lat="42.6195410" lon="-8.1977480">
        <ele>508.8</ele>
        <time>2019-08-18T07:39:37Z</time>
      </trkpt>
      <trkpt lat="42.6196200" lon="-8.1977840">
        <ele>508.3</ele>
        <time>2019-08-18T07:39:38Z</time>
      </trkpt>
      <trkpt lat="42.6196990" lon="-8.1978190">
        <ele>507.9</ele>
        <time>2019-08-18T07:39:39Z</time>
      </trkpt>
      <trkpt lat="42.6197780" lon="-8.1978540">
        <ele>507.5</ele>
        <time>2019-08-18T07:39:40Z</time>
      </trkpt>
      <trkpt lat="42.6198560" lon="-8.1978890">
        <ele>507.2</ele>
        <time>2019-08-18T07:39:41Z</time>
      </trkpt>
      <trkpt lat="42.6199330" lon="-8.1979270">
        <ele>506.7</ele>
        <time>2019-08-18T07:39:42Z</time>
      </trkpt>
      <trkpt lat="42.6200100" lon="-8.1979690">
        <ele>506.4</ele>
        <time>2019-08-18T07:39:43Z</time>
      </trkpt>
      <trkpt lat="42.6200840" lon="-8.1980150">
        <ele>506.1</ele>
        <time>2019-08-18T07:39:44Z</time>
      </trkpt>
      <trkpt lat="42.6201570" lon="-8.1980690">
        <ele>505.8</ele>
        <time>2019-08-18T07:39:45Z</time>
      </trkpt>
      <trkpt lat="42.6202280" lon="-8.1981300">
        <ele>505.3</ele>
        <time>2019-08-18T07:39:46Z</time>
      </trkpt>
      <trkpt lat="42.6202970" lon="-8.1981970">
        <ele>504.7</ele>
        <time>2019-08-18T07:39:47Z</time>
      </trkpt>
      <trkpt lat="42.6203640" lon="-8.1982700">
        <ele>504.2</ele>
        <time>2019-08-18T07:39:48Z</time>
      </trkpt>
      <trkpt lat="42.6204280" lon="-8.1983490">
        <ele>503.7</ele>
        <time>2019-08-18T07:39:49Z</time>
      </trkpt>
      <trkpt lat="42.6204900" lon="-8.1984350">
        <ele>503.2</ele>
        <time>2019-08-18T07:39:50Z</time>
      </trkpt>
      <trkpt lat="42.6205840" lon="-8.1985920">
        <ele>502.4</ele>
        <time>2019-08-18T07:39:51Z</time>
      </trkpt>
      <trkpt lat="42.6206200" lon="-8.1986590">
        <ele>502.0</ele>
        <time>2019-08-18T07:39:52Z</time>
      </trkpt>
      <trkpt lat="42.6206550" lon="-8.1987250">
        <ele>501.7</ele>
        <time>2019-08-18T07:39:53Z</time>
      </trkpt>
      <trkpt lat="42.6207010" lon="-8.1988320">
        <ele>501.0</ele>
        <time>2019-08-18T07:39:54Z</time>
      </trkpt>
      <trkpt lat="42.6207420" lon="-8.1989450">
        <ele>500.4</ele>
        <time>2019-08-18T07:39:55Z</time>
      </trkpt>
      <trkpt lat="42.6207940" lon="-8.1991440">
        <ele>499.4</ele>
        <time>2019-08-18T07:39:56Z</time>
      </trkpt>
      <trkpt lat="42.6208120" lon="-8.1992260">
        <ele>499.1</ele>
        <time>2019-08-18T07:39:57Z</time>
      </trkpt>
      <trkpt lat="42.6208290" lon="-8.1993070">
        <ele>498.8</ele>
        <time>2019-08-18T07:39:58Z</time>
      </trkpt>
      <trkpt lat="42.6208460" lon="-8.1994320">
        <ele>498.2</ele>
        <time>2019-08-18T07:39:59Z</time>
      </trkpt>
      <trkpt lat="42.6208580" lon="-8.1995570">
        <ele>497.6</ele>
        <time>2019-08-18T07:40:00Z</time>
      </trkpt>
      <trkpt lat="42.6208630" lon="-8.1996800">
        <ele>497.0</ele>
        <time>2019-08-18T07:40:01Z</time>
      </trkpt>
      <trkpt lat="42.6208600" lon="-8.1997990">
        <ele>496.3</ele>
        <time>2019-08-18T07:40:02Z</time>
      </trkpt>
      <trkpt lat="42.6208560" lon="-8.1999180">
        <ele>495.6</ele>
        <time>2019-08-18T07:40:03Z</time>
      </trkpt>
      <trkpt lat="42.6208450" lon="-8.2000300">
        <ele>494.6</ele>
        <time>2019-08-18T07:40:04Z</time>
      </trkpt>
      <trkpt lat="42.6208300" lon="-8.2001350">
        <ele>494.0</ele>
        <time>2019-08-18T07:40:05Z</time>
      </trkpt>
      <trkpt lat="42.6208130" lon="-8.2002330">
        <ele>493.5</ele>
        <time>2019-08-18T07:40:06Z</time>
      </trkpt>
      <trkpt lat="42.6207950" lon="-8.2003220">
        <ele>493.1</ele>
        <time>2019-08-18T07:40:07Z</time>
      </trkpt>
      <trkpt lat="42.6207770" lon="-8.2004020">
        <ele>492.1</ele>
        <time>2019-08-18T07:40:08Z</time>
      </trkpt>
      <trkpt lat="42.6207620" lon="-8.2004700">
        <ele>491.8</ele>
        <time>2019-08-18T07:40:09Z</time>
      </trkpt>
      <trkpt lat="42.6207490" lon="-8.2005260">
        <ele>491.4</ele>
        <time>2019-08-18T07:40:10Z</time>
      </trkpt>
      <trkpt lat="42.6207400" lon="-8.2005680">
        <ele>491.2</ele>
        <time>2019-08-18T07:40:11Z</time>
      </trkpt>
      <trkpt lat="42.6207340" lon="-8.2005950">
        <ele>491.0</ele>
        <time>2019-08-18T07:40:12Z</time>
      </trkpt>
      <trkpt lat="42.6207330" lon="-8.2006050">
        <ele>491.0</ele>
        <time>2019-08-18T07:40:13Z</time>
      </trkpt>
      <trkpt lat="42.6207360" lon="-8.2006010">
        <ele>490.9</ele>
        <time>2019-08-18T07:40:14Z</time>
      </trkpt>
      <trkpt lat="42.6207310" lon="-8.2006090">
        <ele>490.9</ele>
        <time>2019-08-18T07:40:15Z</time>
      </trkpt>
      <trkpt lat="42.6207140" lon="-8.2006470">
        <ele>490.6</ele>
        <time>2019-08-18T07:40:30Z</time>
      </trkpt>
      <trkpt lat="42.6206990" lon="-8.2006920">
        <ele>490.4</ele>
        <time>2019-08-18T07:40:31Z</time>
      </trkpt>
      <trkpt lat="42.6206860" lon="-8.2007430">
        <ele>490.1</ele>
        <time>2019-08-18T07:40:32Z</time>
      </trkpt>
      <trkpt lat="42.6206710" lon="-8.2008010">
        <ele>489.7</ele>
        <time>2019-08-18T07:40:33Z</time>
      </trkpt>
      <trkpt lat="42.6206560" lon="-8.2008650">
        <ele>489.2</ele>
        <time>2019-08-18T07:40:34Z</time>
      </trkpt>
      <trkpt lat="42.6206270" lon="-8.2009870">
        <ele>488.3</ele>
        <time>2019-08-18T07:40:35Z</time>
      </trkpt>
      <trkpt lat="42.6206140" lon="-8.2010400">
        <ele>487.9</ele>
        <time>2019-08-18T07:40:36Z</time>
      </trkpt>
      <trkpt lat="42.6206020" lon="-8.2010920">
        <ele>487.5</ele>
        <time>2019-08-18T07:40:37Z</time>
      </trkpt>
      <trkpt lat="42.6205820" lon="-8.2011780">
        <ele>486.8</ele>
        <time>2019-08-18T07:40:38Z</time>
      </trkpt>
      <trkpt lat="42.6205610" lon="-8.2012690">
        <ele>486.1</ele>
        <time>2019-08-18T07:40:39Z</time>
      </trkpt>
      <trkpt lat="42.6205390" lon="-8.2013640">
        <ele>485.4</ele>
        <time>2019-08-18T07:40:40Z</time>
      </trkpt>
      <trkpt lat="42.6205010" lon="-8.2015320">
        <ele>484.1</ele>
        <time>2019-08-18T07:40:41Z</time>
      </trkpt>
      <trkpt lat="42.6204850" lon="-8.2016000">
        <ele>483.6</ele>
        <time>2019-08-18T07:40:42Z</time>
      </trkpt>
      <trkpt lat="42.6204700" lon="-8.2016690">
        <ele>483.3</ele>
        <time>2019-08-18T07:40:43Z</time>
      </trkpt>
      <trkpt lat="42.6204470" lon="-8.2017750">
        <ele>482.6</ele>
        <time>2019-08-18T07:40:44Z</time>
      </trkpt>
      <trkpt lat="42.6204250" lon="-8.2018840">
        <ele>482.0</ele>
        <time>2019-08-18T07:40:45Z</time>
      </trkpt>
      <trkpt lat="42.6203910" lon="-8.2020670">
        <ele>480.8</ele>
        <time>2019-08-18T07:40:46Z</time>
      </trkpt>
      <trkpt lat="42.6203770" lon="-8.2021400">
        <ele>480.1</ele>
        <time>2019-08-18T07:40:47Z</time>
      </trkpt>
      <trkpt lat="42.6203640" lon="-8.2022140">
        <ele>479.5</ele>
        <time>2019-08-18T07:40:48Z</time>
      </trkpt>
      <trkpt lat="42.6203450" lon="-8.2023240">
        <ele>478.4</ele>
        <time>2019-08-18T07:40:49Z</time>
      </trkpt>
      <trkpt lat="42.6203270" lon="-8.2024330">
        <ele>477.4</ele>
        <time>2019-08-18T07:40:50Z</time>
      </trkpt>
      <trkpt lat="42.6203080" lon="-8.2025410">
        <ele>476.4</ele>
        <time>2019-08-18T07:40:51Z</time>
      </trkpt>
      <trkpt lat="42.6202890" lon="-8.2026470">
        <ele>475.4</ele>
        <time>2019-08-18T07:40:52Z</time>
      </trkpt>
      <trkpt lat="42.6202690" lon="-8.2027520">
        <ele>474.3</ele>
        <time>2019-08-18T07:40:53Z</time>
      </trkpt>
      <trkpt lat="42.6202480" lon="-8.2028530">
        <ele>473.4</ele>
        <time>2019-08-18T07:40:54Z</time>
      </trkpt>
      <trkpt lat="42.6202260" lon="-8.2029530">
        <ele>472.5</ele>
        <time>2019-08-18T07:40:55Z</time>
      </trkpt>
      <trkpt lat="42.6202020" lon="-8.2030500">
        <ele>471.7</ele>
        <time>2019-08-18T07:40:56Z</time>
      </trkpt>
      <trkpt lat="42.6201770" lon="-8.2031460">
        <ele>470.9</ele>
        <time>2019-08-18T07:40:57Z</time>
      </trkpt>
      <trkpt lat="42.6201500" lon="-8.2032410">
        <ele>470.1</ele>
        <time>2019-08-18T07:40:58Z</time>
      </trkpt>
      <trkpt lat="42.6201200" lon="-8.2033350">
        <ele>469.2</ele>
        <time>2019-08-18T07:40:59Z</time>
      </trkpt>
      <trkpt lat="42.6200880" lon="-8.2034290">
        <ele>468.4</ele>
        <time>2019-08-18T07:41:00Z</time>
      </trkpt>
      <trkpt lat="42.6200540" lon="-8.2035220">
        <ele>467.6</ele>
        <time>2019-08-18T07:41:01Z</time>
      </trkpt>
      <trkpt lat="42.6200160" lon="-8.2036160">
        <ele>466.9</ele>
        <time>2019-08-18T07:41:02Z</time>
      </trkpt>
      <trkpt lat="42.6199760" lon="-8.2037110">
        <ele>466.3</ele>
        <time>2019-08-18T07:41:03Z</time>
      </trkpt>
      <trkpt lat="42.6199340" lon="-8.2038060">
        <ele>465.7</ele>
        <time>2019-08-18T07:41:04Z</time>
      </trkpt>
      <trkpt lat="42.6198900" lon="-8.2039030">
        <ele>465.1</ele>
        <time>2019-08-18T07:41:05Z</time>
      </trkpt>
      <trkpt lat="42.6198460" lon="-8.2040020">
        <ele>464.4</ele>
        <time>2019-08-18T07:41:06Z</time>
      </trkpt>
      <trkpt lat="42.6198000" lon="-8.2041020">
        <ele>463.6</ele>
        <time>2019-08-18T07:41:07Z</time>
      </trkpt>
      <trkpt lat="42.6197540" lon="-8.2042060">
        <ele>462.9</ele>
        <time>2019-08-18T07:41:08Z</time>
      </trkpt>
      <trkpt lat="42.6197080" lon="-8.2043110">
        <ele>462.3</ele>
        <time>2019-08-18T07:41:09Z</time>
      </trkpt>
      <trkpt lat="42.6196630" lon="-8.2044200">
        <ele>461.6</ele>
        <time>2019-08-18T07:41:10Z</time>
      </trkpt>
      <trkpt lat="42.6196200" lon="-8.2045330">
        <ele>461.0</ele>
        <time>2019-08-18T07:41:11Z</time>
      </trkpt>
      <trkpt lat="42.6195780" lon="-8.2046480">
        <ele>460.2</ele>
        <time>2019-08-18T07:41:12Z</time>
      </trkpt>
      <trkpt lat="42.6195400" lon="-8.2047670">
        <ele>459.4</ele>
        <time>2019-08-18T07:41:13Z</time>
      </trkpt>
      <trkpt lat="42.6195050" lon="-8.2048900">
        <ele>458.8</ele>
        <time>2019-08-18T07:41:14Z</time>
      </trkpt>
      <trkpt lat="42.6194730" lon="-8.2050160">
        <ele>458.2</ele>
        <time>2019-08-18T07:41:15Z</time>
      </trkpt>
      <trkpt lat="42.6194470" lon="-8.2051470">
        <ele>457.5</ele>
        <time>2019-08-18T07:41:16Z</time>
      </trkpt>
      <trkpt lat="42.6194250" lon="-8.2052810">
        <ele>456.8</ele>
        <time>2019-08-18T07:41:17Z</time>
      </trkpt>
      <trkpt lat="42.6194080" lon="-8.2054190">
        <ele>456.2</ele>
        <time>2019-08-18T07:41:18Z</time>
      </trkpt>
      <trkpt lat="42.6193940" lon="-8.2055590">
        <ele>455.5</ele>
        <time>2019-08-18T07:41:19Z</time>
      </trkpt>
      <trkpt lat="42.6193850" lon="-8.2057010">
        <ele>454.5</ele>
        <time>2019-08-18T07:41:20Z</time>
      </trkpt>
      <trkpt lat="42.6193790" lon="-8.2058460">
        <ele>453.5</ele>
        <time>2019-08-18T07:41:21Z</time>
      </trkpt>
      <trkpt lat="42.6193770" lon="-8.2059920">
        <ele>452.4</ele>
        <time>2019-08-18T07:41:22Z</time>
      </trkpt>
      <trkpt lat="42.6193780" lon="-8.2061380">
        <ele>451.4</ele>
        <time>2019-08-18T07:41:23Z</time>
      </trkpt>
      <trkpt lat="42.6193820" lon="-8.2062860">
        <ele>450.3</ele>
        <time>2019-08-18T07:41:24Z</time>
      </trkpt>
      <trkpt lat="42.6193890" lon="-8.2064340">
        <ele>449.3</ele>
        <time>2019-08-18T07:41:25Z</time>
      </trkpt>
      <trkpt lat="42.6193980" lon="-8.2065830">
        <ele>448.2</ele>
        <time>2019-08-18T07:41:26Z</time>
      </trkpt>
      <trkpt lat="42.6194110" lon="-8.2067310">
        <ele>447.2</ele>
        <time>2019-08-18T07:41:27Z</time>
      </trkpt>
      <trkpt lat="42.6194260" lon="-8.2068800">
        <ele>446.4</ele>
        <time>2019-08-18T07:41:28Z</time>
      </trkpt>
      <trkpt lat="42.6194430" lon="-8.2070280">
        <ele>445.6</ele>
        <time>2019-08-18T07:41:29Z</time>
      </trkpt>
      <trkpt lat="42.6194640" lon="-8.2071750">
        <ele>444.7</ele>
        <time>2019-08-18T07:41:30Z</time>
      </trkpt>
      <trkpt lat="42.6194880" lon="-8.2073220">
        <ele>443.6</ele>
        <time>2019-08-18T07:41:31Z</time>
      </trkpt>
      <trkpt lat="42.6195140" lon="-8.2074680">
        <ele>442.8</ele>
        <time>2019-08-18T07:41:32Z</time>
      </trkpt>
      <trkpt lat="42.6195430" lon="-8.2076140">
        <ele>442.0</ele>
        <time>2019-08-18T07:41:33Z</time>
      </trkpt>
      <trkpt lat="42.6195760" lon="-8.2077580">
        <ele>441.2</ele>
        <time>2019-08-18T07:41:34Z</time>
      </trkpt>
      <trkpt lat="42.6196100" lon="-8.2079000">
        <ele>440.0</ele>
        <time>2019-08-18T07:41:35Z</time>
      </trkpt>
      <trkpt lat="42.6196480" lon="-8.2080410">
        <ele>438.8</ele>
        <time>2019-08-18T07:41:36Z</time>
      </trkpt>
      <trkpt lat="42.6196890" lon="-8.2081810">
        <ele>437.5</ele>
        <time>2019-08-18T07:41:37Z</time>
      </trkpt>
      <trkpt lat="42.6197310" lon="-8.2083180">
        <ele>436.3</ele>
        <time>2019-08-18T07:41:38Z</time>
      </trkpt>
      <trkpt lat="42.6197760" lon="-8.2084540">
        <ele>435.1</ele>
        <time>2019-08-18T07:41:39Z</time>
      </trkpt>
      <trkpt lat="42.6198230" lon="-8.2085880">
        <ele>433.9</ele>
        <time>2019-08-18T07:41:40Z</time>
      </trkpt>
      <trkpt lat="42.6198710" lon="-8.2087200">
        <ele>432.8</ele>
        <time>2019-08-18T07:41:41Z</time>
      </trkpt>
      <trkpt lat="42.6199190" lon="-8.2088510">
        <ele>431.7</ele>
        <time>2019-08-18T07:41:42Z</time>
      </trkpt>
      <trkpt lat="42.6199680" lon="-8.2089800">
        <ele>430.6</ele>
        <time>2019-08-18T07:41:43Z</time>
      </trkpt>
      <trkpt lat="42.6200160" lon="-8.2091080">
        <ele>429.6</ele>
        <time>2019-08-18T07:41:44Z</time>
      </trkpt>
      <trkpt lat="42.6200630" lon="-8.2092340">
        <ele>428.7</ele>
        <time>2019-08-18T07:41:45Z</time>
      </trkpt>
      <trkpt lat="42.6201090" lon="-8.2093600">
        <ele>427.7</ele>
        <time>2019-08-18T07:41:46Z</time>
      </trkpt>
      <trkpt lat="42.6201540" lon="-8.2094840">
        <ele>426.8</ele>
        <time>2019-08-18T07:41:47Z</time>
      </trkpt>
      <trkpt lat="42.6201970" lon="-8.2096070">
        <ele>425.9</ele>
        <time>2019-08-18T07:41:48Z</time>
      </trkpt>
      <trkpt lat="42.6202390" lon="-8.2097300">
        <ele>425.0</ele>
        <time>2019-08-18T07:41:49Z</time>
      </trkpt>
      <trkpt lat="42.6202780" lon="-8.2098530">
        <ele>424.2</ele>
        <time>2019-08-18T07:41:50Z</time>
      </trkpt>
      <trkpt lat="42.6203160" lon="-8.2099750">
        <ele>423.3</ele>
        <time>2019-08-18T07:41:51Z</time>
      </trkpt>
      <trkpt lat="42.6203510" lon="-8.2100970">
        <ele>422.5</ele>
        <time>2019-08-18T07:41:52Z</time>
      </trkpt>
      <trkpt lat="42.6203840" lon="-8.2102190">
        <ele>421.9</ele>
        <time>2019-08-18T07:41:53Z</time>
      </trkpt>
      <trkpt lat="42.6204150" lon="-8.2103420">
        <ele>421.3</ele>
        <time>2019-08-18T07:41:54Z</time>
      </trkpt>
      <trkpt lat="42.6204440" lon="-8.2104650">
        <ele>420.7</ele>
        <time>2019-08-18T07:41:55Z</time>
      </trkpt>
      <trkpt lat="42.6204720" lon="-8.2105880">
        <ele>420.0</ele>
        <time>2019-08-18T07:41:56Z</time>
      </trkpt>
      <trkpt lat="42.6204990" lon="-8.2107130">
        <ele>419.1</ele>
        <time>2019-08-18T07:41:57Z</time>
      </trkpt>
      <trkpt lat="42.6205260" lon="-8.2108380">
        <ele>417.8</ele>
        <time>2019-08-18T07:41:58Z</time>
      </trkpt>
      <trkpt lat="42.6205520" lon="-8.2109640">
        <ele>416.5</ele>
        <time>2019-08-18T07:41:59Z</time>
      </trkpt>
      <trkpt lat="42.6205780" lon="-8.2110910">
        <ele>415.3</ele>
        <time>2019-08-18T07:42:00Z</time>
      </trkpt>
      <trkpt lat="42.6206040" lon="-8.2112190">
        <ele>414.2</ele>
        <time>2019-08-18T07:42:01Z</time>
      </trkpt>
      <trkpt lat="42.6206310" lon="-8.2113490">
        <ele>413.0</ele>
        <time>2019-08-18T07:42:02Z</time>
      </trkpt>
      <trkpt lat="42.6206590" lon="-8.2114800">
        <ele>411.8</ele>
        <time>2019-08-18T07:42:03Z</time>
      </trkpt>
      <trkpt lat="42.6206870" lon="-8.2116130">
        <ele>410.7</ele>
        <time>2019-08-18T07:42:04Z</time>
      </trkpt>
      <trkpt lat="42.6207180" lon="-8.2117480">
        <ele>410.2</ele>
        <time>2019-08-18T07:42:05Z</time>
      </trkpt>
      <trkpt lat="42.6207490" lon="-8.2118850">
        <ele>410.7</ele>
        <time>2019-08-18T07:42:06Z</time>
      </trkpt>
      <trkpt lat="42.6207830" lon="-8.2120240">
        <ele>411.2</ele>
        <time>2019-08-18T07:42:07Z</time>
      </trkpt>
      <trkpt lat="42.6208190" lon="-8.2121640">
        <ele>411.7</ele>
        <time>2019-08-18T07:42:08Z</time>
      </trkpt>
      <trkpt lat="42.6208560" lon="-8.2123050">
        <ele>412.1</ele>
        <time>2019-08-18T07:42:09Z</time>
      </trkpt>
      <trkpt lat="42.6208960" lon="-8.2124460">
        <ele>412.4</ele>
        <time>2019-08-18T07:42:10Z</time>
      </trkpt>
      <trkpt lat="42.6209380" lon="-8.2125860">
        <ele>412.7</ele>
        <time>2019-08-18T07:42:11Z</time>
      </trkpt>
      <trkpt lat="42.6209830" lon="-8.2127250">
        <ele>413.0</ele>
        <time>2019-08-18T07:42:12Z</time>
      </trkpt>
      <trkpt lat="42.6210290" lon="-8.2128620">
        <ele>413.3</ele>
        <time>2019-08-18T07:42:13Z</time>
      </trkpt>
      <trkpt lat="42.6210780" lon="-8.2129960">
        <ele>413.6</ele>
        <time>2019-08-18T07:42:14Z</time>
      </trkpt>
      <trkpt lat="42.6211290" lon="-8.2131280">
        <ele>413.9</ele>
        <time>2019-08-18T07:42:15Z</time>
      </trkpt>
      <trkpt lat="42.6211810" lon="-8.2132550">
        <ele>414.1</ele>
        <time>2019-08-18T07:42:16Z</time>
      </trkpt>
      <trkpt lat="42.6212340" lon="-8.2133800">
        <ele>414.9</ele>
        <time>2019-08-18T07:42:17Z</time>
      </trkpt>
      <trkpt lat="42.6212880" lon="-8.2135000">
        <ele>416.1</ele>
        <time>2019-08-18T07:42:18Z</time>
      </trkpt>
      <trkpt lat="42.6213420" lon="-8.2136160">
        <ele>417.2</ele>
        <time>2019-08-18T07:42:19Z</time>
      </trkpt>
      <trkpt lat="42.6213960" lon="-8.2137280">
        <ele>418.3</ele>
        <time>2019-08-18T07:42:20Z</time>
      </trkpt>
      <trkpt lat="42.6214500" lon="-8.2138340">
        <ele>418.7</ele>
        <time>2019-08-18T07:42:21Z</time>
      </trkpt>
      <trkpt lat="42.6215030" lon="-8.2139360">
        <ele>417.6</ele>
        <time>2019-08-18T07:42:22Z</time>
      </trkpt>
      <trkpt lat="42.6215550" lon="-8.2140340">
        <ele>416.6</ele>
        <time>2019-08-18T07:42:23Z</time>
      </trkpt>
      <trkpt lat="42.6216060" lon="-8.2141270">
        <ele>415.7</ele>
        <time>2019-08-18T07:42:24Z</time>
      </trkpt>
      <trkpt lat="42.6216560" lon="-8.2142150">
        <ele>415.0</ele>
        <time>2019-08-18T07:42:25Z</time>
      </trkpt>
      <trkpt lat="42.6217060" lon="-8.2142990">
        <ele>414.3</ele>
        <time>2019-08-18T07:42:26Z</time>
      </trkpt>
      <trkpt lat="42.6217540" lon="-8.2143790">
        <ele>413.9</ele>
        <time>2019-08-18T07:42:27Z</time>
      </trkpt>
      <trkpt lat="42.6218010" lon="-8.2144550">
        <ele>413.4</ele>
        <time>2019-08-18T07:42:28Z</time>
      </trkpt>
      <trkpt lat="42.6218460" lon="-8.2145270">
        <ele>413.1</ele>
        <time>2019-08-18T07:42:29Z</time>
      </trkpt>
      <trkpt lat="42.6218910" lon="-8.2145950">
        <ele>412.9</ele>
        <time>2019-08-18T07:42:30Z</time>
      </trkpt>
      <trkpt lat="42.6219340" lon="-8.2146600">
        <ele>412.6</ele>
        <time>2019-08-18T07:42:31Z</time>
      </trkpt>
      <trkpt lat="42.6219770" lon="-8.2147230">
        <ele>412.4</ele>
        <time>2019-08-18T07:42:32Z</time>
      </trkpt>
      <trkpt lat="42.6220180" lon="-8.2147840">
        <ele>412.4</ele>
        <time>2019-08-18T07:42:33Z</time>
      </trkpt>
      <trkpt lat="42.6220580" lon="-8.2148440">
        <ele>412.8</ele>
        <time>2019-08-18T07:42:34Z</time>
      </trkpt>
      <trkpt lat="42.6220980" lon="-8.2149020">
        <ele>413.2</ele>
        <time>2019-08-18T07:42:35Z</time>
      </trkpt>
      <trkpt lat="42.6221370" lon="-8.2149600">
        <ele>413.7</ele>
        <time>2019-08-18T07:42:36Z</time>
      </trkpt>
      <trkpt lat="42.6221750" lon="-8.2150170">
        <ele>414.1</ele>
        <time>2019-08-18T07:42:37Z</time>
      </trkpt>
      <trkpt lat="42.6222130" lon="-8.2150740">
        <ele>414.5</ele>
        <time>2019-08-18T07:42:38Z</time>
      </trkpt>
      <trkpt lat="42.6222500" lon="-8.2151300">
        <ele>414.8</ele>
        <time>2019-08-18T07:42:39Z</time>
      </trkpt>
      <trkpt lat="42.6222870" lon="-8.2151850">
        <ele>415.2</ele>
        <time>2019-08-18T07:42:40Z</time>
      </trkpt>
      <trkpt lat="42.6223220" lon="-8.2152410">
        <ele>415.5</ele>
        <time>2019-08-18T07:42:41Z</time>
      </trkpt>
      <trkpt lat="42.6223580" lon="-8.2152950">
        <ele>415.8</ele>
        <time>2019-08-18T07:42:42Z</time>
      </trkpt>
      <trkpt lat="42.6223930" lon="-8.2153490">
        <ele>416.1</ele>
        <time>2019-08-18T07:42:43Z</time>
      </trkpt>
      <trkpt lat="42.6224270" lon="-8.2154020">
        <ele>416.4</ele>
        <time>2019-08-18T07:42:44Z</time>
      </trkpt>
      <trkpt lat="42.6224610" lon="-8.2154550">
        <ele>416.8</ele>
        <time>2019-08-18T07:42:45Z</time>
      </trkpt>
      <trkpt lat="42.6224950" lon="-8.2155070">
        <ele>417.1</ele>
        <time>2019-08-18T07:42:46Z</time>
      </trkpt>
      <trkpt lat="42.6225280" lon="-8.2155590">
        <ele>417.4</ele>
        <time>2019-08-18T07:42:47Z</time>
      </trkpt>
      <trkpt lat="42.6225600" lon="-8.2156100">
        <ele>417.7</ele>
        <time>2019-08-18T07:42:48Z</time>
      </trkpt>
      <trkpt lat="42.6225920" lon="-8.2156600">
        <ele>418.2</ele>
        <time>2019-08-18T07:42:49Z</time>
      </trkpt>
      <trkpt lat="42.6226240" lon="-8.2157090">
        <ele>418.6</ele>
        <time>2019-08-18T07:42:50Z</time>
      </trkpt>
      <trkpt lat="42.6226540" lon="-8.2157570">
        <ele>419.0</ele>
        <time>2019-08-18T07:42:51Z</time>
      </trkpt>
      <trkpt lat="42.6226840" lon="-8.2158050">
        <ele>419.4</ele>
        <time>2019-08-18T07:42:52Z</time>
      </trkpt>
      <trkpt lat="42.6227140" lon="-8.2158510">
        <ele>419.8</ele>
        <time>2019-08-18T07:42:53Z</time>
      </trkpt>
      <trkpt lat="42.6227420" lon="-8.2158970">
        <ele>420.2</ele>
        <time>2019-08-18T07:42:54Z</time>
      </trkpt>
      <trkpt lat="42.6227710" lon="-8.2159420">
        <ele>420.6</ele>
        <time>2019-08-18T07:42:55Z</time>
      </trkpt>
      <trkpt lat="42.6227980" lon="-8.2159870">
        <ele>421.0</ele>
        <time>2019-08-18T07:42:56Z</time>
      </trkpt>
      <trkpt lat="42.6228250" lon="-8.2160300">
        <ele>421.4</ele>
        <time>2019-08-18T07:42:57Z</time>
      </trkpt>
      <trkpt lat="42.6228520" lon="-8.2160730">
        <ele>421.7</ele>
        <time>2019-08-18T07:42:58Z</time>
      </trkpt>
      <trkpt lat="42.6228780" lon="-8.2161150">
        <ele>422.1</ele>
        <time>2019-08-18T07:42:59Z</time>
      </trkpt>
      <trkpt lat="42.6229040" lon="-8.2161570">
        <ele>422.5</ele>
        <time>2019-08-18T07:43:00Z</time>
      </trkpt>
      <trkpt lat="42.6229290" lon="-8.2161980">
        <ele>422.9</ele>
        <time>2019-08-18T07:43:01Z</time>
      </trkpt>
      <trkpt lat="42.6229540" lon="-8.2162380">
        <ele>423.3</ele>
        <time>2019-08-18T07:43:02Z</time>
      </trkpt>
      <trkpt lat="42.6229780" lon="-8.2162780">
        <ele>423.7</ele>
        <time>2019-08-18T07:43:03Z</time>
      </trkpt>
      <trkpt lat="42.6230020" lon="-8.2163170">
        <ele>424.1</ele>
        <time>2019-08-18T07:43:04Z</time>
      </trkpt>
      <trkpt lat="42.6230250" lon="-8.2163550">
        <ele>424.4</ele>
        <time>2019-08-18T07:43:05Z</time>
      </trkpt>
      <trkpt lat="42.6230480" lon="-8.2163930">
        <ele>424.8</ele>
        <time>2019-08-18T07:43:06Z</time>
      </trkpt>
      <trkpt lat="42.6230710" lon="-8.2164300">
        <ele>425.2</ele>
        <time>2019-08-18T07:43:07Z</time>
      </trkpt>
      <trkpt lat="42.6230920" lon="-8.2164670">
        <ele>425.6</ele>
        <time>2019-08-18T07:43:08Z</time>
      </trkpt>
      <trkpt lat="42.6231130" lon="-8.2165030">
        <ele>426.0</ele>
        <time>2019-08-18T07:43:09Z</time>
      </trkpt>
      <trkpt lat="42.6231330" lon="-8.2165380">
        <ele>426.3</ele>
        <time>2019-08-18T07:43:10Z</time>
      </trkpt>
      <trkpt lat="42.6231520" lon="-8.2165730">
        <ele>426.6</ele>
        <time>2019-08-18T07:43:11Z</time>
      </trkpt>
      <trkpt lat="42.6231700" lon="-8.2166070">
        <ele>426.8</ele>
        <time>2019-08-18T07:43:12Z</time>
      </trkpt>
      <trkpt lat="42.6231860" lon="-8.2166390">
        <ele>427.1</ele>
        <time>2019-08-18T07:43:13Z</time>
      </trkpt>
      <trkpt lat="42.6232010" lon="-8.2166720">
        <ele>427.3</ele>
        <time>2019-08-18T07:43:14Z</time>
      </trkpt>
      <trkpt lat="42.6232150" lon="-8.2167030">
        <ele>427.5</ele>
        <time>2019-08-18T07:43:15Z</time>
      </trkpt>
      <trkpt lat="42.6232290" lon="-8.2167340">
        <ele>427.7</ele>
        <time>2019-08-18T07:43:16Z</time>
      </trkpt>
      <trkpt lat="42.6232420" lon="-8.2167650">
        <ele>428.0</ele>
        <time>2019-08-18T07:43:17Z</time>
      </trkpt>
      <trkpt lat="42.6232560" lon="-8.2167950">
        <ele>428.2</ele>
        <time>2019-08-18T07:43:18Z</time>
      </trkpt>
      <trkpt lat="42.6232690" lon="-8.2168260">
        <ele>428.4</ele>
        <time>2019-08-18T07:43:19Z</time>
      </trkpt>
      <trkpt lat="42.6232840" lon="-8.2168560">
        <ele>428.6</ele>
        <time>2019-08-18T07:43:20Z</time>
      </trkpt>
      <trkpt lat="42.6232980" lon="-8.2168860">
        <ele>428.8</ele>
        <time>2019-08-18T07:43:21Z</time>
      </trkpt>
      <trkpt lat="42.6233130" lon="-8.2169160">
        <ele>429.1</ele>
        <time>2019-08-18T07:43:22Z</time>
      </trkpt>
      <trkpt lat="42.6233290" lon="-8.2169470">
        <ele>429.5</ele>
        <time>2019-08-18T07:43:23Z</time>
      </trkpt>
      <trkpt lat="42.6233440" lon="-8.2169770">
        <ele>429.8</ele>
        <time>2019-08-18T07:43:24Z</time>
      </trkpt>
      <trkpt lat="42.6233590" lon="-8.2170070">
        <ele>430.1</ele>
        <time>2019-08-18T07:43:25Z</time>
      </trkpt>
      <trkpt lat="42.6233740" lon="-8.2170360">
        <ele>430.4</ele>
        <time>2019-08-18T07:43:26Z</time>
      </trkpt>
      <trkpt lat="42.6233880" lon="-8.2170660">
        <ele>430.7</ele>
        <time>2019-08-18T07:43:27Z</time>
      </trkpt>
      <trkpt lat="42.6234030" lon="-8.2170960">
        <ele>431.0</ele>
        <time>2019-08-18T07:43:28Z</time>
      </trkpt>
      <trkpt lat="42.6234160" lon="-8.2171260">
        <ele>431.3</ele>
        <time>2019-08-18T07:43:29Z</time>
      </trkpt>
      <trkpt lat="42.6234300" lon="-8.2171550">
        <ele>431.6</ele>
        <time>2019-08-18T07:43:30Z</time>
      </trkpt>
      <trkpt lat="42.6234430" lon="-8.2171850">
        <ele>431.9</ele>
        <time>2019-08-18T07:43:31Z</time>
      </trkpt>
      <trkpt lat="42.6234560" lon="-8.2172140">
        <ele>432.2</ele>
        <time>2019-08-18T07:43:32Z</time>
      </trkpt>
      <trkpt lat="42.6234690" lon="-8.2172440">
        <ele>432.5</ele>
        <time>2019-08-18T07:43:33Z</time>
      </trkpt>
      <trkpt lat="42.6234810" lon="-8.2172730">
        <ele>432.6</ele>
        <time>2019-08-18T07:43:34Z</time>
      </trkpt>
      <trkpt lat="42.6234940" lon="-8.2173020">
        <ele>432.8</ele>
        <time>2019-08-18T07:43:35Z</time>
      </trkpt>
      <trkpt lat="42.6235070" lon="-8.2173320">
        <ele>433.0</ele>
        <time>2019-08-18T07:43:36Z</time>
      </trkpt>
      <trkpt lat="42.6235200" lon="-8.2173610">
        <ele>433.2</ele>
        <time>2019-08-18T07:43:37Z</time>
      </trkpt>
      <trkpt lat="42.6235330" lon="-8.2173900">
        <ele>433.4</ele>
        <time>2019-08-18T07:43:38Z</time>
      </trkpt>
      <trkpt lat="42.6235460" lon="-8.2174200">
        <ele>433.6</ele>
        <time>2019-08-18T07:43:39Z</time>
      </trkpt>
      <trkpt lat="42.6235590" lon="-8.2174490">
        <ele>433.8</ele>
        <time>2019-08-18T07:43:40Z</time>
      </trkpt>
      <trkpt lat="42.6235720" lon="-8.2174790">
        <ele>434.0</ele>
        <time>2019-08-18T07:43:41Z</time>
      </trkpt>
      <trkpt lat="42.6235850" lon="-8.2175080">
        <ele>434.2</ele>
        <time>2019-08-18T07:43:42Z</time>
      </trkpt>
      <trkpt lat="42.6235990" lon="-8.2175370">
        <ele>434.3</ele>
        <time>2019-08-18T07:43:43Z</time>
      </trkpt>
      <trkpt lat="42.6236120" lon="-8.2175670">
        <ele>434.5</ele>
        <time>2019-08-18T07:43:44Z</time>
      </trkpt>
      <trkpt lat="42.6236250" lon="-8.2175960">
        <ele>434.7</ele>
        <time>2019-08-18T07:43:45Z</time>
      </trkpt>
      <trkpt lat="42.6236380" lon="-8.2176260">
        <ele>435.0</ele>
        <time>2019-08-18T07:43:46Z</time>
      </trkpt>
      <trkpt lat="42.6236520" lon="-8.2176550">
        <ele>435.2</ele>
        <time>2019-08-18T07:43:47Z</time>
      </trkpt>
      <trkpt lat="42.6236650" lon="-8.2176850">
        <ele>435.5</ele>
        <time>2019-08-18T07:43:48Z</time>
      </trkpt>
      <trkpt lat="42.6236790" lon="-8.2177140">
        <ele>435.7</ele>
        <time>2019-08-18T07:43:49Z</time>
      </trkpt>
      <trkpt lat="42.6236930" lon="-8.2177430">
        <ele>435.9</ele>
        <time>2019-08-18T07:43:50Z</time>
      </trkpt>
      <trkpt lat="42.6237070" lon="-8.2177720">
        <ele>436.2</ele>
        <time>2019-08-18T07:43:51Z</time>
      </trkpt>
      <trkpt lat="42.6237210" lon="-8.2178020">
        <ele>436.4</ele>
        <time>2019-08-18T07:43:52Z</time>
      </trkpt>
      <trkpt lat="42.6237350" lon="-8.2178310">
        <ele>436.7</ele>
        <time>2019-08-18T07:43:53Z</time>
      </trkpt>
      <trkpt lat="42.6237490" lon="-8.2178600">
        <ele>436.9</ele>
        <time>2019-08-18T07:43:54Z</time>
      </trkpt>
      <trkpt lat="42.6237640" lon="-8.2178890">
        <ele>437.1</ele>
        <time>2019-08-18T07:43:55Z</time>
      </trkpt>
      <trkpt lat="42.6237780" lon="-8.2179180">
        <ele>437.4</ele>
        <time>2019-08-18T07:43:56Z</time>
      </trkpt>
      <trkpt lat="42.6237930" lon="-8.2179460">
        <ele>437.6</ele>
        <time>2019-08-18T07:43:57Z</time>
      </trkpt>
      <trkpt lat="42.6238070" lon="-8.2179750">
        <ele>437.8</ele>
        <time>2019-08-18T07:43:58Z</time>
      </trkpt>
      <trkpt lat="42.6238220" lon="-8.2180040">
        <ele>438.1</ele>
        <time>2019-08-18T07:43:59Z</time>
      </trkpt>
      <trkpt lat="42.6238360" lon="-8.2180320">
        <ele>438.3</ele>
        <time>2019-08-18T07:44:00Z</time>
      </trkpt>
      <trkpt lat="42.6238510" lon="-8.2180610">
        <ele>438.5</ele>
        <time>2019-08-18T07:44:01Z</time>
      </trkpt>
      <trkpt lat="42.6238660" lon="-8.2180890">
        <ele>438.7</ele>
        <time>2019-08-18T07:44:02Z</time>
      </trkpt>
      <trkpt lat="42.6238810" lon="-8.2181170">
        <ele>439.0</ele>
        <time>2019-08-18T07:44:03Z</time>
      </trkpt>
      <trkpt lat="42.6238960" lon="-8.2181460">
        <ele>439.4</ele>
        <time>2019-08-18T07:44:04Z</time>
      </trkpt>
      <trkpt lat="42.6239110" lon="-8.2181740">
        <ele>439.6</ele>
        <time>2019-08-18T07:44:05Z</time>
      </trkpt>
      <trkpt lat="42.6239260" lon="-8.2182020">
        <ele>439.7</ele>
        <time>2019-08-18T07:44:06Z</time>
      </trkpt>
      <trkpt lat="42.6239410" lon="-8.2182290">
        <ele>439.9</ele>
        <time>2019-08-18T07:44:07Z</time>
      </trkpt>
      <trkpt lat="42.6239560" lon="-8.2182570">
        <ele>440.1</ele>
        <time>2019-08-18T07:44:08Z</time>
      </trkpt>
      <trkpt lat="42.6239720" lon="-8.2182850">
        <ele>440.3</ele>
        <time>2019-08-18T07:44:09Z</time>
      </trkpt>
      <trkpt lat="42.6239870" lon="-8.2183120">
        <ele>440.5</ele>
        <time>2019-08-18T07:44:10Z</time>
      </trkpt>
      <trkpt lat="42.6240020" lon="-8.2183400">
        <ele>440.6</ele>
        <time>2019-08-18T07:44:11Z</time>
      </trkpt>
      <trkpt lat="42.6240170" lon="-8.2183670">
        <ele>440.8</ele>
        <time>2019-08-18T07:44:12Z</time>
      </trkpt>
      <trkpt lat="42.6240330" lon="-8.2183940">
        <ele>441.0</ele>
        <time>2019-08-18T07:44:13Z</time>
      </trkpt>
      <trkpt lat="42.6240480" lon="-8.2184210">
        <ele>441.2</ele>
        <time>2019-08-18T07:44:14Z</time>
      </trkpt>
      <trkpt lat="42.6240630" lon="-8.2184470">
        <ele>441.4</ele>
        <time>2019-08-18T07:44:15Z</time>
      </trkpt>
      <trkpt lat="42.6240780" lon="-8.2184740">
        <ele>441.6</ele>
        <time>2019-08-18T07:44:16Z</time>
      </trkpt>
      <trkpt lat="42.6240940" lon="-8.2185010">
        <ele>441.8</ele>
        <time>2019-08-18T07:44:17Z</time>
      </trkpt>
      <trkpt lat="42.6241090" lon="-8.2185270">
        <ele>442.1</ele>
        <time>2019-08-18T07:44:18Z</time>
      </trkpt>
      <trkpt lat="42.6241240" lon="-8.2185530">
        <ele>442.3</ele>
        <time>2019-08-18T07:44:19Z</time>
      </trkpt>
      <trkpt lat="42.6241390" lon="-8.2185790">
        <ele>442.5</ele>
        <time>2019-08-18T07:44:20Z</time>
      </trkpt>
      <trkpt lat="42.6241550" lon="-8.2186050">
        <ele>442.7</ele>
        <time>2019-08-18T07:44:21Z</time>
      </trkpt>
      <trkpt lat="42.6241700" lon="-8.2186310">
        <ele>442.9</ele>
        <time>2019-08-18T07:44:22Z</time>
      </trkpt>
      <trkpt lat="42.6241860" lon="-8.2186560">
        <ele>443.2</ele>
        <time>2019-08-18T07:44:23Z</time>
      </trkpt>
      <trkpt lat="42.6242010" lon="-8.2186810">
        <ele>443.5</ele>
        <time>2019-08-18T07:44:24Z</time>
      </trkpt>
      <trkpt lat="42.6242170" lon="-8.2187060">
        <ele>443.8</ele>
        <time>2019-08-18T07:44:25Z</time>
      </trkpt>
      <trkpt lat="42.6242320" lon="-8.2187310">
        <ele>444.0</ele>
        <time>2019-08-18T07:44:26Z</time>
      </trkpt>
      <trkpt lat="42.6242480" lon="-8.2187560">
        <ele>444.3</ele>
        <time>2019-08-18T07:44:27Z</time>
      </trkpt>
      <trkpt lat="42.6242640" lon="-8.2187810">
        <ele>444.6</ele>
        <time>2019-08-18T07:44:28Z</time>
      </trkpt>
      <trkpt lat="42.6242800" lon="-8.2188050">
        <ele>444.9</ele>
        <time>2019-08-18T07:44:29Z</time>
      </trkpt>
      <trkpt lat="42.6242960" lon="-8.2188300">
        <ele>445.2</ele>
        <time>2019-08-18T07:44:30Z</time>
      </trkpt>
      <trkpt lat="42.6243130" lon="-8.2188540">
        <ele>445.6</ele>
        <time>2019-08-18T07:44:31Z</time>
      </trkpt>
      <trkpt lat="42.6243290" lon="-8.2188790">
        <ele>445.9</ele>
        <time>2019-08-18T07:44:32Z</time>
      </trkpt>
      <trkpt lat="42.6243460" lon="-8.2189030">
        <ele>446.3</ele>
        <time>2019-08-18T07:44:33Z</time>
      </trkpt>
      <trkpt lat="42.6243630" lon="-8.2189270">
        <ele>446.7</ele>
        <time>2019-08-18T07:44:34Z</time>
      </trkpt>
      <trkpt lat="42.6243790" lon="-8.2189510">
        <ele>446.5</ele>
        <time>2019-08-18T07:44:35Z</time>
      </trkpt>
      <trkpt lat="42.6243950" lon="-8.2189740">
        <ele>446.3</ele>
        <time>2019-08-18T07:44:36Z</time>
      </trkpt>
      <trkpt lat="42.6244090" lon="-8.2189960">
        <ele>446.2</ele>
        <time>2019-08-18T07:44:37Z</time>
      </trkpt>
      <trkpt lat="42.6244230" lon="-8.2190160">
        <ele>446.0</ele>
        <time>2019-08-18T07:44:38Z</time>
      </trkpt>
      <trkpt lat="42.6244350" lon="-8.2190350">
        <ele>445.9</ele>
        <time>2019-08-18T07:44:39Z</time>
      </trkpt>
      <trkpt lat="42.6244460" lon="-8.2190520">
        <ele>445.8</ele>
        <time>2019-08-18T07:44:40Z</time>
      </trkpt>
      <trkpt lat="42.6244550" lon="-8.2190670">
        <ele>445.7</ele>
        <time>2019-08-18T07:44:41Z</time>
      </trkpt>
      <trkpt lat="42.6244660" lon="-8.2190830">
        <ele>445.6</ele>
        <time>2019-08-18T07:44:42Z</time>
      </trkpt>
      <trkpt lat="42.6244810" lon="-8.2191020">
        <ele>445.4</ele>
        <time>2019-08-18T07:44:43Z</time>
      </trkpt>
      <trkpt lat="42.6244970" lon="-8.2191220">
        <ele>445.3</ele>
        <time>2019-08-18T07:44:44Z</time>
      </trkpt>
      <trkpt lat="42.6245120" lon="-8.2191410">
        <ele>445.1</ele>
        <time>2019-08-18T07:44:45Z</time>
      </trkpt>
      <trkpt lat="42.6245250" lon="-8.2191580">
        <ele>445.0</ele>
        <time>2019-08-18T07:44:46Z</time>
      </trkpt>
      <trkpt lat="42.6245380" lon="-8.2191720">
        <ele>444.9</ele>
        <time>2019-08-18T07:44:47Z</time>
      </trkpt>
      <trkpt lat="42.6245500" lon="-8.2191860">
        <ele>444.8</ele>
        <time>2019-08-18T07:44:48Z</time>
      </trkpt>
      <trkpt lat="42.6245640" lon="-8.2192020">
        <ele>444.7</ele>
        <time>2019-08-18T07:44:49Z</time>
      </trkpt>
      <trkpt lat="42.6245780" lon="-8.2192200">
        <ele>444.6</ele>
        <time>2019-08-18T07:44:50Z</time>
      </trkpt>
      <trkpt lat="42.6245930" lon="-8.2192380">
        <ele>444.5</ele>
        <time>2019-08-18T07:44:51Z</time>
      </trkpt>
      <trkpt lat="42.6246080" lon="-8.2192580">
        <ele>444.3</ele>
        <time>2019-08-18T07:44:52Z</time>
      </trkpt>
      <trkpt lat="42.6246240" lon="-8.2192780">
        <ele>444.2</ele>
        <time>2019-08-18T07:44:53Z</time>
      </trkpt>
      <trkpt lat="42.6246400" lon="-8.2192990">
        <ele>444.1</ele>
        <time>2019-08-18T07:44:54Z</time>
      </trkpt>
      <trkpt lat="42.6246570" lon="-8.2193210">
        <ele>443.9</ele>
        <time>2019-08-18T07:44:55Z</time>
      </trkpt>
      <trkpt lat="42.6246740" lon="-8.2193430">
        <ele>443.8</ele>
        <time>2019-08-18T07:44:56Z</time>
      </trkpt>
      <trkpt lat="42.6246920" lon="-8.2193660">
        <ele>443.7</ele>
        <time>2019-08-18T07:44:57Z</time>
      </trkpt>
      <trkpt lat="42.6247100" lon="-8.2193890">
        <ele>443.5</ele>
        <time>2019-08-18T07:44:58Z</time>
      </trkpt>
      <trkpt lat="42.6247280" lon="-8.2194120">
        <ele>443.4</ele>
        <time>2019-08-18T07:44:59Z</time>
      </trkpt>
      <trkpt lat="42.6247460" lon="-8.2194340">
        <ele>443.3</ele>
        <time>2019-08-18T07:45:00Z</time>
      </trkpt>
      <trkpt lat="42.6247650" lon="-8.2194570">
        <ele>443.1</ele>
        <time>2019-08-18T07:45:01Z</time>
      </trkpt>
      <trkpt lat="42.6247840" lon="-8.2194800">
        <ele>443.0</ele>
        <time>2019-08-18T07:45:02Z</time>
      </trkpt>
      <trkpt lat="42.6248030" lon="-8.2195020">
        <ele>442.9</ele>
        <time>2019-08-18T07:45:03Z</time>
      </trkpt>
      <trkpt lat="42.6248220" lon="-8.2195230">
        <ele>442.8</ele>
        <time>2019-08-18T07:45:04Z</time>
      </trkpt>
      <trkpt lat="42.6248420" lon="-8.2195450">
        <ele>442.6</ele>
        <time>2019-08-18T07:45:05Z</time>
      </trkpt>
      <trkpt lat="42.6248610" lon="-8.2195660">
        <ele>442.5</ele>
        <time>2019-08-18T07:45:06Z</time>
      </trkpt>
      <trkpt lat="42.6248810" lon="-8.2195870">
        <ele>442.4</ele>
        <time>2019-08-18T07:45:07Z</time>
      </trkpt>
      <trkpt lat="42.6249010" lon="-8.2196070">
        <ele>442.3</ele>
        <time>2019-08-18T07:45:08Z</time>
      </trkpt>
      <trkpt lat="42.6249210" lon="-8.2196280">
        <ele>442.1</ele>
        <time>2019-08-18T07:45:09Z</time>
      </trkpt>
      <trkpt lat="42.6249410" lon="-8.2196480">
        <ele>442.0</ele>
        <time>2019-08-18T07:45:10Z</time>
      </trkpt>
      <trkpt lat="42.6249620" lon="-8.2196690">
        <ele>441.9</ele>
        <time>2019-08-18T07:45:11Z</time>
      </trkpt>
      <trkpt lat="42.6249830" lon="-8.2196890">
        <ele>441.7</ele>
        <time>2019-08-18T07:45:12Z</time>
      </trkpt>
      <trkpt lat="42.6250030" lon="-8.2197100">
        <ele>441.6</ele>
        <time>2019-08-18T07:45:13Z</time>
      </trkpt>
      <trkpt lat="42.6250250" lon="-8.2197300">
        <ele>441.5</ele>
        <time>2019-08-18T07:45:14Z</time>
      </trkpt>
      <trkpt lat="42.6250460" lon="-8.2197510">
        <ele>441.4</ele>
        <time>2019-08-18T07:45:15Z</time>
      </trkpt>
      <trkpt lat="42.6250670" lon="-8.2197710">
        <ele>441.4</ele>
        <time>2019-08-18T07:45:16Z</time>
      </trkpt>
      <trkpt lat="42.6250890" lon="-8.2197920">
        <ele>441.4</ele>
        <time>2019-08-18T07:45:17Z</time>
      </trkpt>
      <trkpt lat="42.6251110" lon="-8.2198130">
        <ele>441.5</ele>
        <time>2019-08-18T07:45:18Z</time>
      </trkpt>
      <trkpt lat="42.6251330" lon="-8.2198350">
        <ele>441.5</ele>
        <time>2019-08-18T07:45:19Z</time>
      </trkpt>
      <trkpt lat="42.6251550" lon="-8.2198560">
        <ele>441.6</ele>
        <time>2019-08-18T07:45:20Z</time>
      </trkpt>
      <trkpt lat="42.6251770" lon="-8.2198780">
        <ele>441.6</ele>
        <time>2019-08-18T07:45:21Z</time>
      </trkpt>
      <trkpt lat="42.6251990" lon="-8.2199000">
        <ele>441.7</ele>
        <time>2019-08-18T07:45:22Z</time>
      </trkpt>
      <trkpt lat="42.6252200" lon="-8.2199220">
        <ele>441.7</ele>
        <time>2019-08-18T07:45:23Z</time>
      </trkpt>
      <trkpt lat="42.6252410" lon="-8.2199440">
        <ele>441.7</ele>
        <time>2019-08-18T07:45:24Z</time>
      </trkpt>
      <trkpt lat="42.6252620" lon="-8.2199660">
        <ele>441.8</ele>
        <time>2019-08-18T07:45:25Z</time>
      </trkpt>
      <trkpt lat="42.6252830" lon="-8.2199880">
        <ele>441.8</ele>
        <time>2019-08-18T07:45:26Z</time>
      </trkpt>
      <trkpt lat="42.6253030" lon="-8.2200100">
        <ele>441.9</ele>
        <time>2019-08-18T07:45:27Z</time>
      </trkpt>
      <trkpt lat="42.6253230" lon="-8.2200320">
        <ele>441.9</ele>
        <time>2019-08-18T07:45:28Z</time>
      </trkpt>
      <trkpt lat="42.6253430" lon="-8.2200530">
        <ele>441.9</ele>
        <time>2019-08-18T07:45:29Z</time>
      </trkpt>
      <trkpt lat="42.6253630" lon="-8.2200750">
        <ele>442.0</ele>
        <time>2019-08-18T07:45:30Z</time>
      </trkpt>
      <trkpt lat="42.6253840" lon="-8.2200960">
        <ele>442.0</ele>
        <time>2019-08-18T07:45:31Z</time>
      </trkpt>
      <trkpt lat="42.6254040" lon="-8.2201170">
        <ele>442.1</ele>
        <time>2019-08-18T07:45:32Z</time>
      </trkpt>
      <trkpt lat="42.6254250" lon="-8.2201380">
        <ele>442.1</ele>
        <time>2019-08-18T07:45:33Z</time>
      </trkpt>
      <trkpt lat="42.6254450" lon="-8.2201580">
        <ele>442.1</ele>
        <time>2019-08-18T07:45:34Z</time>
      </trkpt>
      <trkpt lat="42.6254660" lon="-8.2201780">
        <ele>442.2</ele>
        <time>2019-08-18T07:45:35Z</time>
      </trkpt>
      <trkpt lat="42.6254870" lon="-8.2201980">
        <ele>442.2</ele>
        <time>2019-08-18T07:45:36Z</time>
      </trkpt>
      <trkpt lat="42.6255080" lon="-8.2202180">
        <ele>442.2</ele>
        <time>2019-08-18T07:45:37Z</time>
      </trkpt>
      <trkpt lat="42.6255300" lon="-8.2202370">
        <ele>442.3</ele>
        <time>2019-08-18T07:45:38Z</time>
      </trkpt>
      <trkpt lat="42.6255510" lon="-8.2202560">
        <ele>442.3</ele>
        <time>2019-08-18T07:45:39Z</time>
      </trkpt>
      <trkpt lat="42.6255720" lon="-8.2202760">
        <ele>442.4</ele>
        <time>2019-08-18T07:45:40Z</time>
      </trkpt>
      <trkpt lat="42.6255940" lon="-8.2202950">
        <ele>442.4</ele>
        <time>2019-08-18T07:45:41Z</time>
      </trkpt>
      <trkpt lat="42.6256150" lon="-8.2203140">
        <ele>442.4</ele>
        <time>2019-08-18T07:45:42Z</time>
      </trkpt>
      <trkpt lat="42.6256370" lon="-8.2203320">
        <ele>442.5</ele>
        <time>2019-08-18T07:45:43Z</time>
      </trkpt>
      <trkpt lat="42.6256580" lon="-8.2203500">
        <ele>442.5</ele>
        <time>2019-08-18T07:45:44Z</time>
      </trkpt>
      <trkpt lat="42.6256800" lon="-8.2203690">
        <ele>442.6</ele>
        <time>2019-08-18T07:45:45Z</time>
      </trkpt>
      <trkpt lat="42.6257020" lon="-8.2203860">
        <ele>442.6</ele>
        <time>2019-08-18T07:45:46Z</time>
      </trkpt>
      <trkpt lat="42.6257230" lon="-8.2204040">
        <ele>442.7</ele>
        <time>2019-08-18T07:45:47Z</time>
      </trkpt>
      <trkpt lat="42.6257450" lon="-8.2204210">
        <ele>442.7</ele>
        <time>2019-08-18T07:45:48Z</time>
      </trkpt>
      <trkpt lat="42.6257670" lon="-8.2204380">
        <ele>442.7</ele>
        <time>2019-08-18T07:45:49Z</time>
      </trkpt>
      <trkpt lat="42.6257890" lon="-8.2204540">
        <ele>442.8</ele>
        <time>2019-08-18T07:45:50Z</time>
      </trkpt>
      <trkpt lat="42.6258110" lon="-8.2204710">
        <ele>442.8</ele>
        <time>2019-08-18T07:45:51Z</time>
      </trkpt>
      <trkpt lat="42.6258330" lon="-8.2204870">
        <ele>442.9</ele>
        <time>2019-08-18T07:45:52Z</time>
      </trkpt>
      <trkpt lat="42.6258550" lon="-8.2205030">
        <ele>442.9</ele>
        <time>2019-08-18T07:45:53Z</time>
      </trkpt>
      <trkpt lat="42.6258770" lon="-8.2205180">
        <ele>443.0</ele>
        <time>2019-08-18T07:45:54Z</time>
      </trkpt>
      <trkpt lat="42.6258990" lon="-8.2205340">
        <ele>443.0</ele>
        <time>2019-08-18T07:45:55Z</time>
      </trkpt>
      <trkpt lat="42.6259200" lon="-8.2205490">
        <ele>443.0</ele>
        <time>2019-08-18T07:45:56Z</time>
      </trkpt>
      <trkpt lat="42.6259420" lon="-8.2205640">
        <ele>443.1</ele>
        <time>2019-08-18T07:45:57Z</time>
      </trkpt>
      <trkpt lat="42.6259640" lon="-8.2205790">
        <ele>443.1</ele>
        <time>2019-08-18T07:45:58Z</time>
      </trkpt>
      <trkpt lat="42.6259860" lon="-8.2205930">
        <ele>443.2</ele>
        <time>2019-08-18T07:45:59Z</time>
      </trkpt>
      <trkpt lat="42.6260080" lon="-8.2206080">
        <ele>443.2</ele>
        <time>2019-08-18T07:46:00Z</time>
      </trkpt>
      <trkpt lat="42.6260300" lon="-8.2206220">
        <ele>443.3</ele>
        <time>2019-08-18T07:46:01Z</time>
      </trkpt>
      <trkpt lat="42.6260510" lon="-8.2206370">
        <ele>443.4</ele>
        <time>2019-08-18T07:46:02Z</time>
      </trkpt>
      <trkpt lat="42.6260730" lon="-8.2206510">
        <ele>443.5</ele>
        <time>2019-08-18T07:46:03Z</time>
      </trkpt>
      <trkpt lat="42.6260950" lon="-8.2206650">
        <ele>443.5</ele>
        <time>2019-08-18T07:46:04Z</time>
      </trkpt>
      <trkpt lat="42.6261160" lon="-8.2206790">
        <ele>443.6</ele>
        <time>2019-08-18T07:46:05Z</time>
      </trkpt>
      <trkpt lat="42.6261380" lon="-8.2206930">
        <ele>443.6</ele>
        <time>2019-08-18T07:46:06Z</time>
      </trkpt>
      <trkpt lat="42.6261600" lon="-8.2207070">
        <ele>443.7</ele>
        <time>2019-08-18T07:46:07Z</time>
      </trkpt>
      <trkpt lat="42.6261810" lon="-8.2207210">
        <ele>443.8</ele>
        <time>2019-08-18T07:46:08Z</time>
      </trkpt>
      <trkpt lat="42.6262030" lon="-8.2207350">
        <ele>443.8</ele>
        <time>2019-08-18T07:46:09Z</time>
      </trkpt>
      <trkpt lat="42.6262250" lon="-8.2207490">
        <ele>443.9</ele>
        <time>2019-08-18T07:46:10Z</time>
      </trkpt>
      <trkpt lat="42.6262460" lon="-8.2207630">
        <ele>443.9</ele>
        <time>2019-08-18T07:46:11Z</time>
      </trkpt>
      <trkpt lat="42.6262680" lon="-8.2207770">
        <ele>444.0</ele>
        <time>2019-08-18T07:46:12Z</time>
      </trkpt>
      <trkpt lat="42.6262890" lon="-8.2207920">
        <ele>444.1</ele>
        <time>2019-08-18T07:46:13Z</time>
      </trkpt>
      <trkpt lat="42.6263110" lon="-8.2208060">
        <ele>444.2</ele>
        <time>2019-08-18T07:46:14Z</time>
      </trkpt>
      <trkpt lat="42.6263330" lon="-8.2208210">
        <ele>444.4</ele>
        <time>2019-08-18T07:46:15Z</time>
      </trkpt>
      <trkpt lat="42.6263540" lon="-8.2208360">
        <ele>444.7</ele>
        <time>2019-08-18T07:46:16Z</time>
      </trkpt>
      <trkpt lat="42.6263760" lon="-8.2208510">
        <ele>445.0</ele>
        <time>2019-08-18T07:46:17Z</time>
      </trkpt>
      <trkpt lat="42.6263980" lon="-8.2208660">
        <ele>445.3</ele>
        <time>2019-08-18T07:46:18Z</time>
      </trkpt>
      <trkpt lat="42.6264200" lon="-8.2208800">
        <ele>445.6</ele>
        <time>2019-08-18T07:46:19Z</time>
      </trkpt>
      <trkpt lat="42.6264420" lon="-8.2208950">
        <ele>445.9</ele>
        <time>2019-08-18T07:46:20Z</time>
      </trkpt>
      <trkpt lat="42.6264640" lon="-8.2209100">
        <ele>446.2</ele>
        <time>2019-08-18T07:46:21Z</time>
      </trkpt>
      <trkpt lat="42.6264860" lon="-8.2209250">
        <ele>446.5</ele>
        <time>2019-08-18T07:46:22Z</time>
      </trkpt>
      <trkpt lat="42.6265080" lon="-8.2209400">
        <ele>446.8</ele>
        <time>2019-08-18T07:46:23Z</time>
      </trkpt>
      <trkpt lat="42.6265300" lon="-8.2209540">
        <ele>447.1</ele>
        <time>2019-08-18T07:46:24Z</time>
      </trkpt>
      <trkpt lat="42.6265520" lon="-8.2209690">
        <ele>447.4</ele>
        <time>2019-08-18T07:46:25Z</time>
      </trkpt>
      <trkpt lat="42.6265740" lon="-8.2209830">
        <ele>447.7</ele>
        <time>2019-08-18T07:46:26Z</time>
      </trkpt>
      <trkpt lat="42.6265960" lon="-8.2209970">
        <ele>448.0</ele>
        <time>2019-08-18T07:46:27Z</time>
      </trkpt>
      <trkpt lat="42.6266190" lon="-8.2210110">
        <ele>448.3</ele>
        <time>2019-08-18T07:46:28Z</time>
      </trkpt>
      <trkpt lat="42.6266410" lon="-8.2210240">
        <ele>448.6</ele>
        <time>2019-08-18T07:46:29Z</time>
      </trkpt>
      <trkpt lat="42.6266630" lon="-8.2210370">
        <ele>448.9</ele>
        <time>2019-08-18T07:46:30Z</time>
      </trkpt>
      <trkpt lat="42.6266860" lon="-8.2210500">
        <ele>449.2</ele>
        <time>2019-08-18T07:46:31Z</time>
      </trkpt>
      <trkpt lat="42.6267080" lon="-8.2210630">
        <ele>449.9</ele>
        <time>2019-08-18T07:46:32Z</time>
      </trkpt>
      <trkpt lat="42.6267310" lon="-8.2210760">
        <ele>449.9</ele>
        <time>2019-08-18T07:46:33Z</time>
      </trkpt>
      <trkpt lat="42.6267540" lon="-8.2210900">
        <ele>450.0</ele>
        <time>2019-08-18T07:46:34Z</time>
      </trkpt>
      <trkpt lat="42.6267760" lon="-8.2211040">
        <ele>450.0</ele>
        <time>2019-08-18T07:46:35Z</time>
      </trkpt>
      <trkpt lat="42.6267990" lon="-8.2211180">
        <ele>450.2</ele>
        <time>2019-08-18T07:46:36Z</time>
      </trkpt>
      <trkpt lat="42.6268220" lon="-8.2211340">
        <ele>450.3</ele>
        <time>2019-08-18T07:46:37Z</time>
      </trkpt>
      <trkpt lat="42.6268450" lon="-8.2211510">
        <ele>450.4</ele>
        <time>2019-08-18T07:46:38Z</time>
      </trkpt>
      <trkpt lat="42.6268670" lon="-8.2211680">
        <ele>450.5</ele>
        <time>2019-08-18T07:46:39Z</time>
      </trkpt>
      <trkpt lat="42.6268900" lon="-8.2211850">
        <ele>450.6</ele>
        <time>2019-08-18T07:46:40Z</time>
      </trkpt>
      <trkpt lat="42.6269120" lon="-8.2212010">
        <ele>450.7</ele>
        <time>2019-08-18T07:46:41Z</time>
      </trkpt>
      <trkpt lat="42.6269340" lon="-8.2212170">
        <ele>450.8</ele>
        <time>2019-08-18T07:46:42Z</time>
      </trkpt>
      <trkpt lat="42.6269560" lon="-8.2212310">
        <ele>451.0</ele>
        <time>2019-08-18T07:46:43Z</time>
      </trkpt>
      <trkpt lat="42.6269780" lon="-8.2212450">
        <ele>451.1</ele>
        <time>2019-08-18T07:46:44Z</time>
      </trkpt>
      <trkpt lat="42.6270000" lon="-8.2212600">
        <ele>451.2</ele>
        <time>2019-08-18T07:46:45Z</time>
      </trkpt>
      <trkpt lat="42.6270230" lon="-8.2212750">
        <ele>451.3</ele>
        <time>2019-08-18T07:46:46Z</time>
      </trkpt>
      <trkpt lat="42.6270460" lon="-8.2212900">
        <ele>451.5</ele>
        <time>2019-08-18T07:46:47Z</time>
      </trkpt>
      <trkpt lat="42.6270690" lon="-8.2213060">
        <ele>451.6</ele>
        <time>2019-08-18T07:46:48Z</time>
      </trkpt>
      <trkpt lat="42.6270930" lon="-8.2213220">
        <ele>451.7</ele>
        <time>2019-08-18T07:46:49Z</time>
      </trkpt>
      <trkpt lat="42.6271180" lon="-8.2213380">
        <ele>451.9</ele>
        <time>2019-08-18T07:46:50Z</time>
      </trkpt>
      <trkpt lat="42.6271420" lon="-8.2213550">
        <ele>452.0</ele>
        <time>2019-08-18T07:46:51Z</time>
      </trkpt>
      <trkpt lat="42.6271670" lon="-8.2213720">
        <ele>452.2</ele>
        <time>2019-08-18T07:46:52Z</time>
      </trkpt>
      <trkpt lat="42.6271930" lon="-8.2213900">
        <ele>452.3</ele>
        <time>2019-08-18T07:46:53Z</time>
      </trkpt>
      <trkpt lat="42.6272180" lon="-8.2214080">
        <ele>452.5</ele>
        <time>2019-08-18T07:46:54Z</time>
      </trkpt>
      <trkpt lat="42.6272440" lon="-8.2214260">
        <ele>452.8</ele>
        <time>2019-08-18T07:46:55Z</time>
      </trkpt>
      <trkpt lat="42.6272700" lon="-8.2214430">
        <ele>453.1</ele>
        <time>2019-08-18T07:46:56Z</time>
      </trkpt>
      <trkpt lat="42.6272960" lon="-8.2214610">
        <ele>453.3</ele>
        <time>2019-08-18T07:46:57Z</time>
      </trkpt>
      <trkpt lat="42.6273220" lon="-8.2214790">
        <ele>453.6</ele>
        <time>2019-08-18T07:46:58Z</time>
      </trkpt>
      <trkpt lat="42.6273470" lon="-8.2214970">
        <ele>453.9</ele>
        <time>2019-08-18T07:46:59Z</time>
      </trkpt>
      <trkpt lat="42.6273730" lon="-8.2215140">
        <ele>454.2</ele>
        <time>2019-08-18T07:47:00Z</time>
      </trkpt>
      <trkpt lat="42.6273980" lon="-8.2215310">
        <ele>454.5</ele>
        <time>2019-08-18T07:47:01Z</time>
      </trkpt>
      <trkpt lat="42.6274240" lon="-8.2215470">
        <ele>454.8</ele>
        <time>2019-08-18T07:47:02Z</time>
      </trkpt>
      <trkpt lat="42.6274490" lon="-8.2215640">
        <ele>455.0</ele>
        <time>2019-08-18T07:47:03Z</time>
      </trkpt>
      <trkpt lat="42.6274740" lon="-8.2215810">
        <ele>455.3</ele>
        <time>2019-08-18T07:47:04Z</time>
      </trkpt>
      <trkpt lat="42.6274990" lon="-8.2215980">
        <ele>455.6</ele>
        <time>2019-08-18T07:47:05Z</time>
      </trkpt>
      <trkpt lat="42.6275250" lon="-8.2216150">
        <ele>455.8</ele>
        <time>2019-08-18T07:47:06Z</time>
      </trkpt>
      <trkpt lat="42.6275500" lon="-8.2216320">
        <ele>456.0</ele>
        <time>2019-08-18T07:47:07Z</time>
      </trkpt>
      <trkpt lat="42.6275750" lon="-8.2216490">
        <ele>456.1</ele>
        <time>2019-08-18T07:47:08Z</time>
      </trkpt>
      <trkpt lat="42.6276010" lon="-8.2216660">
        <ele>456.3</ele>
        <time>2019-08-18T07:47:09Z</time>
      </trkpt>
      <trkpt lat="42.6276260" lon="-8.2216820">
        <ele>456.5</ele>
        <time>2019-08-18T07:47:10Z</time>
      </trkpt>
      <trkpt lat="42.6276520" lon="-8.2216970">
        <ele>456.6</ele>
        <time>2019-08-18T07:47:11Z</time>
      </trkpt>
      <trkpt lat="42.6276790" lon="-8.2217100">
        <ele>456.8</ele>
        <time>2019-08-18T07:47:12Z</time>
      </trkpt>
      <trkpt lat="42.6277060" lon="-8.2217210">
        <ele>457.0</ele>
        <time>2019-08-18T07:47:13Z</time>
      </trkpt>
      <trkpt lat="42.6277330" lon="-8.2217300">
        <ele>457.1</ele>
        <time>2019-08-18T07:47:14Z</time>
      </trkpt>
      <trkpt lat="42.6277610" lon="-8.2217360">
        <ele>457.2</ele>
        <time>2019-08-18T07:47:15Z</time>
      </trkpt>
      <trkpt lat="42.6277900" lon="-8.2217410">
        <ele>457.3</ele>
        <time>2019-08-18T07:47:16Z</time>
      </trkpt>
      <trkpt lat="42.6278180" lon="-8.2217430">
        <ele>457.4</ele>
        <time>2019-08-18T07:47:17Z</time>
      </trkpt>
      <trkpt lat="42.6278470" lon="-8.2217430">
        <ele>457.5</ele>
        <time>2019-08-18T07:47:18Z</time>
      </trkpt>
      <trkpt lat="42.6278750" lon="-8.2217400">
        <ele>457.6</ele>
        <time>2019-08-18T07:47:19Z</time>
      </trkpt>
      <trkpt lat="42.6279040" lon="-8.2217360">
        <ele>457.7</ele>
        <time>2019-08-18T07:47:20Z</time>
      </trkpt>
      <trkpt lat="42.6279320" lon="-8.2217300">
        <ele>457.8</ele>
        <time>2019-08-18T07:47:21Z</time>
      </trkpt>
      <trkpt lat="42.6279590" lon="-8.2217230">
        <ele>457.9</ele>
        <time>2019-08-18T07:47:22Z</time>
      </trkpt>
      <trkpt lat="42.6279860" lon="-8.2217140">
        <ele>458.0</ele>
        <time>2019-08-18T07:47:23Z</time>
      </trkpt>
      <trkpt lat="42.6280120" lon="-8.2217050">
        <ele>458.2</ele>
        <time>2019-08-18T07:47:24Z</time>
      </trkpt>
      <trkpt lat="42.6280360" lon="-8.2216970">
        <ele>458.3</ele>
        <time>2019-08-18T07:47:25Z</time>
      </trkpt>
      <trkpt lat="42.6280590" lon="-8.2216900">
        <ele>458.4</ele>
        <time>2019-08-18T07:47:26Z</time>
      </trkpt>
      <trkpt lat="42.6280840" lon="-8.2216800">
        <ele>458.5</ele>
        <time>2019-08-18T07:47:27Z</time>
      </trkpt>
      <trkpt lat="42.6281130" lon="-8.2216660">
        <ele>458.7</ele>
        <time>2019-08-18T07:47:28Z</time>
      </trkpt>
      <trkpt lat="42.6281440" lon="-8.2216540">
        <ele>458.8</ele>
        <time>2019-08-18T07:47:29Z</time>
      </trkpt>
      <trkpt lat="42.6281760" lon="-8.2216430">
        <ele>459.0</ele>
        <time>2019-08-18T07:47:30Z</time>
      </trkpt>
      <trkpt lat="42.6282090" lon="-8.2216330">
        <ele>459.1</ele>
        <time>2019-08-18T07:47:31Z</time>
      </trkpt>
      <trkpt lat="42.6282420" lon="-8.2216250">
        <ele>459.3</ele>
        <time>2019-08-18T07:47:32Z</time>
      </trkpt>
      <trkpt lat="42.6282760" lon="-8.2216160">
        <ele>459.5</ele>
        <time>2019-08-18T07:47:33Z</time>
      </trkpt>
      <trkpt lat="42.6283090" lon="-8.2216070">
        <ele>459.7</ele>
        <time>2019-08-18T07:47:34Z</time>
      </trkpt>
      <trkpt lat="42.6283430" lon="-8.2215970">
        <ele>459.9</ele>
        <time>2019-08-18T07:47:35Z</time>
      </trkpt>
      <trkpt lat="42.6283760" lon="-8.2215850">
        <ele>460.1</ele>
        <time>2019-08-18T07:47:36Z</time>
      </trkpt>
      <trkpt lat="42.6284090" lon="-8.2215720">
        <ele>460.2</ele>
        <time>2019-08-18T07:47:37Z</time>
      </trkpt>
      <trkpt lat="42.6284420" lon="-8.2215580">
        <ele>460.4</ele>
        <time>2019-08-18T07:47:38Z</time>
      </trkpt>
      <trkpt lat="42.6284740" lon="-8.2215440">
        <ele>460.6</ele>
        <time>2019-08-18T07:47:39Z</time>
      </trkpt>
      <trkpt lat="42.6285060" lon="-8.2215290">
        <ele>460.9</ele>
        <time>2019-08-18T07:47:40Z</time>
      </trkpt>
      <trkpt lat="42.6285380" lon="-8.2215150">
        <ele>461.1</ele>
        <time>2019-08-18T07:47:41Z</time>
      </trkpt>
      <trkpt lat="42.6285690" lon="-8.2215020">
        <ele>461.3</ele>
        <time>2019-08-18T07:47:42Z</time>
      </trkpt>
      <trkpt lat="42.6286000" lon="-8.2214890">
        <ele>461.5</ele>
        <time>2019-08-18T07:47:43Z</time>
      </trkpt>
      <trkpt lat="42.6286300" lon="-8.2214770">
        <ele>461.7</ele>
        <time>2019-08-18T07:47:44Z</time>
      </trkpt>
      <trkpt lat="42.6286600" lon="-8.2214660">
        <ele>461.9</ele>
        <time>2019-08-18T07:47:45Z</time>
      </trkpt>
      <trkpt lat="42.6286900" lon="-8.2214560">
        <ele>462.2</ele>
        <time>2019-08-18T07:47:46Z</time>
      </trkpt>
      <trkpt lat="42.6287190" lon="-8.2214460">
        <ele>462.4</ele>
        <time>2019-08-18T07:47:47Z</time>
      </trkpt>
      <trkpt lat="42.6287490" lon="-8.2214360">
        <ele>462.7</ele>
        <time>2019-08-18T07:47:48Z</time>
      </trkpt>
      <trkpt lat="42.6287770" lon="-8.2214270">
        <ele>463.0</ele>
        <time>2019-08-18T07:47:49Z</time>
      </trkpt>
      <trkpt lat="42.6288060" lon="-8.2214170">
        <ele>463.2</ele>
        <time>2019-08-18T07:47:50Z</time>
      </trkpt>
      <trkpt lat="42.6288350" lon="-8.2214070">
        <ele>463.5</ele>
        <time>2019-08-18T07:47:51Z</time>
      </trkpt>
      <trkpt lat="42.6288630" lon="-8.2213980">
        <ele>463.7</ele>
        <time>2019-08-18T07:47:52Z</time>
      </trkpt>
      <trkpt lat="42.6288910" lon="-8.2213890">
        <ele>463.9</ele>
        <time>2019-08-18T07:47:53Z</time>
      </trkpt>
      <trkpt lat="42.6289190" lon="-8.2213800">
        <ele>464.1</ele>
        <time>2019-08-18T07:47:54Z</time>
      </trkpt>
      <trkpt lat="42.6289460" lon="-8.2213730">
        <ele>464.3</ele>
        <time>2019-08-18T07:47:55Z</time>
      </trkpt>
      <trkpt lat="42.6289730" lon="-8.2213670">
        <ele>464.5</ele>
        <time>2019-08-18T07:47:56Z</time>
      </trkpt>
      <trkpt lat="42.6289990" lon="-8.2213630">
        <ele>464.7</ele>
        <time>2019-08-18T07:47:57Z</time>
      </trkpt>
      <trkpt lat="42.6290250" lon="-8.2213610">
        <ele>464.9</ele>
        <time>2019-08-18T07:47:58Z</time>
      </trkpt>
      <trkpt lat="42.6290500" lon="-8.2213610">
        <ele>465.2</ele>
        <time>2019-08-18T07:47:59Z</time>
      </trkpt>
      <trkpt lat="42.6290760" lon="-8.2213630">
        <ele>465.5</ele>
        <time>2019-08-18T07:48:00Z</time>
      </trkpt>
      <trkpt lat="42.6291010" lon="-8.2213670">
        <ele>465.7</ele>
        <time>2019-08-18T07:48:01Z</time>
      </trkpt>
      <trkpt lat="42.6291260" lon="-8.2213720">
        <ele>466.0</ele>
        <time>2019-08-18T07:48:02Z</time>
      </trkpt>
      <trkpt lat="42.6291510" lon="-8.2213800">
        <ele>466.3</ele>
        <time>2019-08-18T07:48:03Z</time>
      </trkpt>
      <trkpt lat="42.6291770" lon="-8.2213900">
        <ele>466.5</ele>
        <time>2019-08-18T07:48:04Z</time>
      </trkpt>
      <trkpt lat="42.6292020" lon="-8.2214020">
        <ele>466.7</ele>
        <time>2019-08-18T07:48:05Z</time>
      </trkpt>
      <trkpt lat="42.6292280" lon="-8.2214160">
        <ele>467.0</ele>
        <time>2019-08-18T07:48:06Z</time>
      </trkpt>
      <trkpt lat="42.6292540" lon="-8.2214320">
        <ele>467.2</ele>
        <time>2019-08-18T07:48:07Z</time>
      </trkpt>
      <trkpt lat="42.6292790" lon="-8.2214480">
        <ele>467.5</ele>
        <time>2019-08-18T07:48:08Z</time>
      </trkpt>
      <trkpt lat="42.6293040" lon="-8.2214660">
        <ele>468.1</ele>
        <time>2019-08-18T07:48:09Z</time>
      </trkpt>
      <trkpt lat="42.6293290" lon="-8.2214850">
        <ele>468.1</ele>
        <time>2019-08-18T07:48:10Z</time>
      </trkpt>
      <trkpt lat="42.6293530" lon="-8.2215040">
        <ele>468.2</ele>
        <time>2019-08-18T07:48:11Z</time>
      </trkpt>
      <trkpt lat="42.6293760" lon="-8.2215240">
        <ele>468.2</ele>
        <time>2019-08-18T07:48:12Z</time>
      </trkpt>
      <trkpt lat="42.6293990" lon="-8.2215440">
        <ele>468.2</ele>
        <time>2019-08-18T07:48:13Z</time>
      </trkpt>
      <trkpt lat="42.6294200" lon="-8.2215640">
        <ele>468.3</ele>
        <time>2019-08-18T07:48:14Z</time>
      </trkpt>
      <trkpt lat="42.6294410" lon="-8.2215840">
        <ele>468.3</ele>
        <time>2019-08-18T07:48:15Z</time>
      </trkpt>
      <trkpt lat="42.6294610" lon="-8.2216040">
        <ele>468.3</ele>
        <time>2019-08-18T07:48:16Z</time>
      </trkpt>
      <trkpt lat="42.6294810" lon="-8.2216250">
        <ele>468.3</ele>
        <time>2019-08-18T07:48:17Z</time>
      </trkpt>
      <trkpt lat="42.6295000" lon="-8.2216450">
        <ele>468.4</ele>
        <time>2019-08-18T07:48:18Z</time>
      </trkpt>
      <trkpt lat="42.6295190" lon="-8.2216650">
        <ele>468.4</ele>
        <time>2019-08-18T07:48:19Z</time>
      </trkpt>
      <trkpt lat="42.6295380" lon="-8.2216840">
        <ele>468.4</ele>
        <time>2019-08-18T07:48:20Z</time>
      </trkpt>
      <trkpt lat="42.6295560" lon="-8.2217040">
        <ele>468.4</ele>
        <time>2019-08-18T07:48:21Z</time>
      </trkpt>
      <trkpt lat="42.6295740" lon="-8.2217220">
        <ele>468.5</ele>
        <time>2019-08-18T07:48:22Z</time>
      </trkpt>
      <trkpt lat="42.6295910" lon="-8.2217410">
        <ele>468.5</ele>
        <time>2019-08-18T07:48:23Z</time>
      </trkpt>
      <trkpt lat="42.6296090" lon="-8.2217580">
        <ele>468.5</ele>
        <time>2019-08-18T07:48:24Z</time>
      </trkpt>
      <trkpt lat="42.6296260" lon="-8.2217750">
        <ele>468.5</ele>
        <time>2019-08-18T07:48:25Z</time>
      </trkpt>
      <trkpt lat="42.6296440" lon="-8.2217910">
        <ele>468.5</ele>
        <time>2019-08-18T07:48:26Z</time>
      </trkpt>
      <trkpt lat="42.6296610" lon="-8.2218070">
        <ele>468.5</ele>
        <time>2019-08-18T07:48:27Z</time>
      </trkpt>
      <trkpt lat="42.6296790" lon="-8.2218220">
        <ele>468.5</ele>
        <time>2019-08-18T07:48:28Z</time>
      </trkpt>
      <trkpt lat="42.6296970" lon="-8.2218370">
        <ele>468.5</ele>
        <time>2019-08-18T07:48:29Z</time>
      </trkpt>
      <trkpt lat="42.6297160" lon="-8.2218520">
        <ele>468.5</ele>
        <time>2019-08-18T07:48:30Z</time>
      </trkpt>
      <trkpt lat="42.6297350" lon="-8.2218680">
        <ele>468.5</ele>
        <time>2019-08-18T07:48:31Z</time>
      </trkpt>
      <trkpt lat="42.6297540" lon="-8.2218860">
        <ele>468.5</ele>
        <time>2019-08-18T07:48:32Z</time>
      </trkpt>
      <trkpt lat="42.6297740" lon="-8.2219040">
        <ele>468.5</ele>
        <time>2019-08-18T07:48:33Z</time>
      </trkpt>
      <trkpt lat="42.6297940" lon="-8.2219240">
        <ele>468.6</ele>
        <time>2019-08-18T07:48:34Z</time>
      </trkpt>
      <trkpt lat="42.6298130" lon="-8.2219450">
        <ele>468.6</ele>
        <time>2019-08-18T07:48:35Z</time>
      </trkpt>
      <trkpt lat="42.6298330" lon="-8.2219670">
        <ele>468.6</ele>
        <time>2019-08-18T07:48:36Z</time>
      </trkpt>
      <trkpt lat="42.6298530" lon="-8.2219870">
        <ele>468.6</ele>
        <time>2019-08-18T07:48:37Z</time>
      </trkpt>
      <trkpt lat="42.6298730" lon="-8.2220060">
        <ele>468.6</ele>
        <time>2019-08-18T07:48:38Z</time>
      </trkpt>
      <trkpt lat="42.6298940" lon="-8.2220220">
        <ele>468.6</ele>
        <time>2019-08-18T07:48:39Z</time>
      </trkpt>
      <trkpt lat="42.6299160" lon="-8.2220330">
        <ele>468.6</ele>
        <time>2019-08-18T07:48:40Z</time>
      </trkpt>
      <trkpt lat="42.6299390" lon="-8.2220400">
        <ele>468.6</ele>
        <time>2019-08-18T07:48:41Z</time>
      </trkpt>
      <trkpt lat="42.6299630" lon="-8.2220400">
        <ele>468.6</ele>
        <time>2019-08-18T07:48:42Z</time>
      </trkpt>
      <trkpt lat="42.6299890" lon="-8.2220370">
        <ele>468.5</ele>
        <time>2019-08-18T07:48:43Z</time>
      </trkpt>
      <trkpt lat="42.6300150" lon="-8.2220330">
        <ele>468.5</ele>
        <time>2019-08-18T07:48:44Z</time>
      </trkpt>
      <trkpt lat="42.6300430" lon="-8.2220300">
        <ele>468.6</ele>
        <time>2019-08-18T07:48:45Z</time>
      </trkpt>
      <trkpt lat="42.6300710" lon="-8.2220310">
        <ele>468.6</ele>
        <time>2019-08-18T07:48:46Z</time>
      </trkpt>
      <trkpt lat="42.6300970" lon="-8.2220350">
        <ele>468.6</ele>
        <time>2019-08-18T07:48:47Z</time>
      </trkpt>
      <trkpt lat="42.6301200" lon="-8.2220410">
        <ele>468.7</ele>
        <time>2019-08-18T07:48:48Z</time>
      </trkpt>
      <trkpt lat="42.6301360" lon="-8.2220460">
        <ele>468.7</ele>
        <time>2019-08-18T07:48:49Z</time>
      </trkpt>
      <trkpt lat="42.6301450" lon="-8.2220510">
        <ele>468.8</ele>
        <time>2019-08-18T07:48:50Z</time>
      </trkpt>
      <trkpt lat="42.6301480" lon="-8.2220550">
        <ele>468.8</ele>
        <time>2019-08-18T07:48:51Z</time>
      </trkpt>
      <trkpt lat="42.6301490" lon="-8.2220580">
        <ele>468.8</ele>
        <time>2019-08-18T07:48:52Z</time>
      </trkpt>
      <trkpt lat="42.6301510" lon="-8.2220590">
        <ele>468.8</ele>
        <time>2019-08-18T07:48:53Z</time>
      </trkpt>
      <trkpt lat="42.6301550" lon="-8.2220610">
        <ele>468.8</ele>
        <time>2019-08-18T07:48:54Z</time>
      </trkpt>
      <trkpt lat="42.6301630" lon="-8.2220650">
        <ele>468.9</ele>
        <time>2019-08-18T07:48:55Z</time>
      </trkpt>
      <trkpt lat="42.6301750" lon="-8.2220770">
        <ele>468.9</ele>
        <time>2019-08-18T07:48:56Z</time>
      </trkpt>
      <trkpt lat="42.6301910" lon="-8.2220990">
        <ele>469.0</ele>
        <time>2019-08-18T07:48:57Z</time>
      </trkpt>
      <trkpt lat="42.6302070" lon="-8.2221290">
        <ele>469.1</ele>
        <time>2019-08-18T07:48:58Z</time>
      </trkpt>
      <trkpt lat="42.6302230" lon="-8.2221660">
        <ele>469.2</ele>
        <time>2019-08-18T07:48:59Z</time>
      </trkpt>
      <trkpt lat="42.6302340" lon="-8.2222070">
        <ele>469.6</ele>
        <time>2019-08-18T07:49:00Z</time>
      </trkpt>
      <trkpt lat="42.6302400" lon="-8.2222500">
        <ele>469.7</ele>
        <time>2019-08-18T07:49:01Z</time>
      </trkpt>
      <trkpt lat="42.6302440" lon="-8.2222960">
        <ele>469.9</ele>
        <time>2019-08-18T07:49:02Z</time>
      </trkpt>
      <trkpt lat="42.6302580" lon="-8.2223670">
        <ele>470.2</ele>
        <time>2019-08-18T07:49:03Z</time>
      </trkpt>
      <trkpt lat="42.6302640" lon="-8.2223910">
        <ele>470.3</ele>
        <time>2019-08-18T07:49:04Z</time>
      </trkpt>
      <trkpt lat="42.6302840" lon="-8.2224370">
        <ele>470.6</ele>
        <time>2019-08-18T07:49:05Z</time>
      </trkpt>
      <trkpt lat="42.6303090" lon="-8.2224770">
        <ele>470.8</ele>
        <time>2019-08-18T07:49:06Z</time>
      </trkpt>
      <trkpt lat="42.6303390" lon="-8.2225100">
        <ele>471.0</ele>
        <time>2019-08-18T07:49:07Z</time>
      </trkpt>
      <trkpt lat="42.6303780" lon="-8.2225460">
        <ele>471.3</ele>
        <time>2019-08-18T07:49:08Z</time>
      </trkpt>
      <trkpt lat="42.6304390" lon="-8.2226180">
        <ele>471.0</ele>
        <time>2019-08-18T07:51:05Z</time>
      </trkpt>
      <trkpt lat="42.6304730" lon="-8.2226560">
        <ele>470.8</ele>
        <time>2019-08-18T07:51:06Z</time>
      </trkpt>
      <trkpt lat="42.6304970" lon="-8.2226890">
        <ele>470.6</ele>
        <time>2019-08-18T07:51:07Z</time>
      </trkpt>
      <trkpt lat="42.6305200" lon="-8.2227280">
        <ele>470.4</ele>
        <time>2019-08-18T07:51:08Z</time>
      </trkpt>
      <trkpt lat="42.6305460" lon="-8.2227710">
        <ele>470.2</ele>
        <time>2019-08-18T07:51:09Z</time>
      </trkpt>
      <trkpt lat="42.6306000" lon="-8.2228450">
        <ele>469.9</ele>
        <time>2019-08-18T07:51:10Z</time>
      </trkpt>
      <trkpt lat="42.6306250" lon="-8.2228740">
        <ele>469.7</ele>
        <time>2019-08-18T07:51:11Z</time>
      </trkpt>
      <trkpt lat="42.6306500" lon="-8.2229040">
        <ele>469.5</ele>
        <time>2019-08-18T07:51:12Z</time>
      </trkpt>
      <trkpt lat="42.6306930" lon="-8.2229490">
        <ele>469.2</ele>
        <time>2019-08-18T07:51:13Z</time>
      </trkpt>
      <trkpt lat="42.6307370" lon="-8.2229940">
        <ele>468.9</ele>
        <time>2019-08-18T07:51:14Z</time>
      </trkpt>
      <trkpt lat="42.6307820" lon="-8.2230410">
        <ele>468.6</ele>
        <time>2019-08-18T07:51:15Z</time>
      </trkpt>
      <trkpt lat="42.6308500" lon="-8.2231130">
        <ele>468.1</ele>
        <time>2019-08-18T07:51:16Z</time>
      </trkpt>
      <trkpt lat="42.6308730" lon="-8.2231380">
        <ele>467.9</ele>
        <time>2019-08-18T07:51:17Z</time>
      </trkpt>
      <trkpt lat="42.6309200" lon="-8.2231880">
        <ele>467.6</ele>
        <time>2019-08-18T07:51:18Z</time>
      </trkpt>
      <trkpt lat="42.6309670" lon="-8.2232380">
        <ele>467.2</ele>
        <time>2019-08-18T07:51:19Z</time>
      </trkpt>
      <trkpt lat="42.6310150" lon="-8.2232900">
        <ele>466.8</ele>
        <time>2019-08-18T07:51:20Z</time>
      </trkpt>
      <trkpt lat="42.6310650" lon="-8.2233420">
        <ele>466.4</ele>
        <time>2019-08-18T07:51:21Z</time>
      </trkpt>
      <trkpt lat="42.6311160" lon="-8.2233950">
        <ele>466.0</ele>
        <time>2019-08-18T07:51:22Z</time>
      </trkpt>
      <trkpt lat="42.6311680" lon="-8.2234470">
        <ele>465.5</ele>
        <time>2019-08-18T07:51:23Z</time>
      </trkpt>
      <trkpt lat="42.6312220" lon="-8.2235000">
        <ele>465.1</ele>
        <time>2019-08-18T07:51:24Z</time>
      </trkpt>
      <trkpt lat="42.6313150" lon="-8.2235870">
        <ele>464.4</ele>
        <time>2019-08-18T07:51:25Z</time>
      </trkpt>
      <trkpt lat="42.6313520" lon="-8.2236220">
        <ele>464.2</ele>
        <time>2019-08-18T07:51:26Z</time>
      </trkpt>
      <trkpt lat="42.6313900" lon="-8.2236560">
        <ele>463.9</ele>
        <time>2019-08-18T07:51:27Z</time>
      </trkpt>
      <trkpt lat="42.6314490" lon="-8.2237060">
        <ele>463.6</ele>
        <time>2019-08-18T07:51:28Z</time>
      </trkpt>
      <trkpt lat="42.6315100" lon="-8.2237550">
        <ele>463.2</ele>
        <time>2019-08-18T07:51:29Z</time>
      </trkpt>
      <trkpt lat="42.6316140" lon="-8.2238330">
        <ele>462.5</ele>
        <time>2019-08-18T07:51:30Z</time>
      </trkpt>
      <trkpt lat="42.6316560" lon="-8.2238620">
        <ele>462.2</ele>
        <time>2019-08-18T07:51:31Z</time>
      </trkpt>
      <trkpt lat="42.6316990" lon="-8.2238920">
        <ele>461.9</ele>
        <time>2019-08-18T07:51:32Z</time>
      </trkpt>
      <trkpt lat="42.6317640" lon="-8.2239330">
        <ele>461.3</ele>
        <time>2019-08-18T07:51:33Z</time>
      </trkpt>
      <trkpt lat="42.6318310" lon="-8.2239710">
        <ele>461.5</ele>
        <time>2019-08-18T07:51:34Z</time>
      </trkpt>
      <trkpt lat="42.6318990" lon="-8.2240070">
        <ele>461.7</ele>
        <time>2019-08-18T07:51:35Z</time>
      </trkpt>
      <trkpt lat="42.6319690" lon="-8.2240400">
        <ele>461.9</ele>
        <time>2019-08-18T07:51:36Z</time>
      </trkpt>
      <trkpt lat="42.6320390" lon="-8.2240690">
        <ele>462.2</ele>
        <time>2019-08-18T07:51:37Z</time>
      </trkpt>
      <trkpt lat="42.6321110" lon="-8.2240960">
        <ele>462.4</ele>
        <time>2019-08-18T07:51:38Z</time>
      </trkpt>
      <trkpt lat="42.6321830" lon="-8.2241190">
        <ele>462.6</ele>
        <time>2019-08-18T07:51:39Z</time>
      </trkpt>
      <trkpt lat="42.6322570" lon="-8.2241380">
        <ele>462.8</ele>
        <time>2019-08-18T07:51:40Z</time>
      </trkpt>
      <trkpt lat="42.6323300" lon="-8.2241540">
        <ele>463.0</ele>
        <time>2019-08-18T07:51:41Z</time>
      </trkpt>
      <trkpt lat="42.6324050" lon="-8.2241660">
        <ele>463.2</ele>
        <time>2019-08-18T07:51:42Z</time>
      </trkpt>
      <trkpt lat="42.6324800" lon="-8.2241750">
        <ele>463.4</ele>
        <time>2019-08-18T07:51:43Z</time>
      </trkpt>
      <trkpt lat="42.6325550" lon="-8.2241800">
        <ele>463.5</ele>
        <time>2019-08-18T07:51:44Z</time>
      </trkpt>
      <trkpt lat="42.6326300" lon="-8.2241810">
        <ele>463.7</ele>
        <time>2019-08-18T07:51:45Z</time>
      </trkpt>
      <trkpt lat="42.6327050" lon="-8.2241780">
        <ele>463.8</ele>
        <time>2019-08-18T07:51:46Z</time>
      </trkpt>
      <trkpt lat="42.6327800" lon="-8.2241690">
        <ele>463.9</ele>
        <time>2019-08-18T07:51:47Z</time>
      </trkpt>
      <trkpt lat="42.6328540" lon="-8.2241590">
        <ele>464.0</ele>
        <time>2019-08-18T07:51:48Z</time>
      </trkpt>
      <trkpt lat="42.6329290" lon="-8.2241440">
        <ele>464.0</ele>
        <time>2019-08-18T07:51:49Z</time>
      </trkpt>
      <trkpt lat="42.6330020" lon="-8.2241240">
        <ele>464.1</ele>
        <time>2019-08-18T07:51:50Z</time>
      </trkpt>
      <trkpt lat="42.6330760" lon="-8.2240990">
        <ele>464.1</ele>
        <time>2019-08-18T07:51:51Z</time>
      </trkpt>
      <trkpt lat="42.6331480" lon="-8.2240710">
        <ele>464.2</ele>
        <time>2019-08-18T07:51:52Z</time>
      </trkpt>
      <trkpt lat="42.6332210" lon="-8.2240390">
        <ele>464.2</ele>
        <time>2019-08-18T07:51:53Z</time>
      </trkpt>
      <trkpt lat="42.6332930" lon="-8.2240030">
        <ele>464.2</ele>
        <time>2019-08-18T07:51:54Z</time>
      </trkpt>
      <trkpt lat="42.6333650" lon="-8.2239630">
        <ele>464.1</ele>
        <time>2019-08-18T07:51:55Z</time>
      </trkpt>
      <trkpt lat="42.6334370" lon="-8.2239190">
        <ele>464.1</ele>
        <time>2019-08-18T07:51:56Z</time>
      </trkpt>
      <trkpt lat="42.6335080" lon="-8.2238700">
        <ele>464.0</ele>
        <time>2019-08-18T07:51:57Z</time>
      </trkpt>
      <trkpt lat="42.6335780" lon="-8.2238140">
        <ele>464.0</ele>
        <time>2019-08-18T07:51:58Z</time>
      </trkpt>
      <trkpt lat="42.6336480" lon="-8.2237520">
        <ele>463.9</ele>
        <time>2019-08-18T07:51:59Z</time>
      </trkpt>
      <trkpt lat="42.6337160" lon="-8.2236850">
        <ele>463.9</ele>
        <time>2019-08-18T07:52:00Z</time>
      </trkpt>
      <trkpt lat="42.6337830" lon="-8.2236130">
        <ele>463.8</ele>
        <time>2019-08-18T07:52:01Z</time>
      </trkpt>
      <trkpt lat="42.6338480" lon="-8.2235370">
        <ele>463.7</ele>
        <time>2019-08-18T07:52:02Z</time>
      </trkpt>
      <trkpt lat="42.6339100" lon="-8.2234580">
        <ele>463.6</ele>
        <time>2019-08-18T07:52:03Z</time>
      </trkpt>
      <trkpt lat="42.6339710" lon="-8.2233760">
        <ele>463.5</ele>
        <time>2019-08-18T07:52:04Z</time>
      </trkpt>
      <trkpt lat="42.6340290" lon="-8.2232920">
        <ele>463.4</ele>
        <time>2019-08-18T07:52:05Z</time>
      </trkpt>
      <trkpt lat="42.6340850" lon="-8.2232060">
        <ele>463.3</ele>
        <time>2019-08-18T07:52:06Z</time>
      </trkpt>
      <trkpt lat="42.6341390" lon="-8.2231190">
        <ele>463.1</ele>
        <time>2019-08-18T07:52:07Z</time>
      </trkpt>
      <trkpt lat="42.6341920" lon="-8.2230320">
        <ele>463.0</ele>
        <time>2019-08-18T07:52:08Z</time>
      </trkpt>
      <trkpt lat="42.6342440" lon="-8.2229440">
        <ele>462.9</ele>
        <time>2019-08-18T07:52:09Z</time>
      </trkpt>
      <trkpt lat="42.6342960" lon="-8.2228570">
        <ele>462.8</ele>
        <time>2019-08-18T07:52:10Z</time>
      </trkpt>
      <trkpt lat="42.6343470" lon="-8.2227700">
        <ele>462.7</ele>
        <time>2019-08-18T07:52:11Z</time>
      </trkpt>
      <trkpt lat="42.6343990" lon="-8.2226850">
        <ele>462.6</ele>
        <time>2019-08-18T07:52:12Z</time>
      </trkpt>
      <trkpt lat="42.6344510" lon="-8.2226010">
        <ele>462.5</ele>
        <time>2019-08-18T07:52:13Z</time>
      </trkpt>
      <trkpt lat="42.6345040" lon="-8.2225190">
        <ele>462.4</ele>
        <time>2019-08-18T07:52:14Z</time>
      </trkpt>
      <trkpt lat="42.6345570" lon="-8.2224400">
        <ele>462.4</ele>
        <time>2019-08-18T07:52:15Z</time>
      </trkpt>
      <trkpt lat="42.6346110" lon="-8.2223650">
        <ele>462.4</ele>
        <time>2019-08-18T07:52:16Z</time>
      </trkpt>
      <trkpt lat="42.6346660" lon="-8.2222930">
        <ele>462.4</ele>
        <time>2019-08-18T07:52:17Z</time>
      </trkpt>
      <trkpt lat="42.6347210" lon="-8.2222260">
        <ele>462.3</ele>
        <time>2019-08-18T07:52:18Z</time>
      </trkpt>
      <trkpt lat="42.6347760" lon="-8.2221630">
        <ele>462.3</ele>
        <time>2019-08-18T07:52:19Z</time>
      </trkpt>
      <trkpt lat="42.6348330" lon="-8.2221060">
        <ele>462.4</ele>
        <time>2019-08-18T07:52:20Z</time>
      </trkpt>
      <trkpt lat="42.6348890" lon="-8.2220550">
        <ele>462.4</ele>
        <time>2019-08-18T07:52:21Z</time>
      </trkpt>
      <trkpt lat="42.6349460" lon="-8.2220080">
        <ele>462.4</ele>
        <time>2019-08-18T07:52:22Z</time>
      </trkpt>
      <trkpt lat="42.6350030" lon="-8.2219650">
        <ele>462.4</ele>
        <time>2019-08-18T07:52:23Z</time>
      </trkpt>
      <trkpt lat="42.6350600" lon="-8.2219260">
        <ele>462.5</ele>
        <time>2019-08-18T07:52:24Z</time>
      </trkpt>
      <trkpt lat="42.6351160" lon="-8.2218900">
        <ele>462.5</ele>
        <time>2019-08-18T07:52:25Z</time>
      </trkpt>
      <trkpt lat="42.6352080" lon="-8.2218380">
        <ele>462.6</ele>
        <time>2019-08-18T07:52:26Z</time>
      </trkpt>
      <trkpt lat="42.6352440" lon="-8.2218190">
        <ele>462.7</ele>
        <time>2019-08-18T07:52:27Z</time>
      </trkpt>
      <trkpt lat="42.6352800" lon="-8.2217990">
        <ele>462.8</ele>
        <time>2019-08-18T07:52:28Z</time>
      </trkpt>
      <trkpt lat="42.6353330" lon="-8.2217730">
        <ele>462.9</ele>
        <time>2019-08-18T07:52:29Z</time>
      </trkpt>
      <trkpt lat="42.6353850" lon="-8.2217490">
        <ele>463.0</ele>
        <time>2019-08-18T07:52:30Z</time>
      </trkpt>
      <trkpt lat="42.6354700" lon="-8.2217150">
        <ele>463.2</ele>
        <time>2019-08-18T07:52:31Z</time>
      </trkpt>
      <trkpt lat="42.6355030" lon="-8.2217030">
        <ele>463.3</ele>
        <time>2019-08-18T07:52:32Z</time>
      </trkpt>
      <trkpt lat="42.6355370" lon="-8.2216900">
        <ele>463.3</ele>
        <time>2019-08-18T07:52:33Z</time>
      </trkpt>
      <trkpt lat="42.6355860" lon="-8.2216760">
        <ele>463.4</ele>
        <time>2019-08-18T07:52:34Z</time>
      </trkpt>
      <trkpt lat="42.6356350" lon="-8.2216610">
        <ele>463.5</ele>
        <time>2019-08-18T07:52:35Z</time>
      </trkpt>
      <trkpt lat="42.6356830" lon="-8.2216500">
        <ele>463.6</ele>
        <time>2019-08-18T07:52:36Z</time>
      </trkpt>
      <trkpt lat="42.6357300" lon="-8.2216400">
        <ele>463.6</ele>
        <time>2019-08-18T07:52:37Z</time>
      </trkpt>
      <trkpt lat="42.6357780" lon="-8.2216330">
        <ele>463.7</ele>
        <time>2019-08-18T07:52:38Z</time>
      </trkpt>
      <trkpt lat="42.6358250" lon="-8.2216270">
        <ele>463.7</ele>
        <time>2019-08-18T07:52:39Z</time>
      </trkpt>
      <trkpt lat="42.6358720" lon="-8.2216240">
        <ele>463.8</ele>
        <time>2019-08-18T07:52:40Z</time>
      </trkpt>
      <trkpt lat="42.6359180" lon="-8.2216220">
        <ele>463.8</ele>
        <time>2019-08-18T07:52:41Z</time>
      </trkpt>
      <trkpt lat="42.6359650" lon="-8.2216210">
        <ele>463.9</ele>
        <time>2019-08-18T07:52:42Z</time>
      </trkpt>
      <trkpt lat="42.6360110" lon="-8.2216230">
        <ele>463.9</ele>
        <time>2019-08-18T07:52:43Z</time>
      </trkpt>
      <trkpt lat="42.6360810" lon="-8.2216280">
        <ele>464.0</ele>
        <time>2019-08-18T07:52:44Z</time>
      </trkpt>
      <trkpt lat="42.6361040" lon="-8.2216310">
        <ele>464.0</ele>
        <time>2019-08-18T07:52:45Z</time>
      </trkpt>
      <trkpt lat="42.6361500" lon="-8.2216370">
        <ele>464.1</ele>
        <time>2019-08-18T07:52:46Z</time>
      </trkpt>
      <trkpt lat="42.6361970" lon="-8.2216440">
        <ele>464.1</ele>
        <time>2019-08-18T07:52:47Z</time>
      </trkpt>
      <trkpt lat="42.6362440" lon="-8.2216540">
        <ele>464.1</ele>
        <time>2019-08-18T07:52:48Z</time>
      </trkpt>
      <trkpt lat="42.6362910" lon="-8.2216640">
        <ele>464.2</ele>
        <time>2019-08-18T07:52:49Z</time>
      </trkpt>
      <trkpt lat="42.6363380" lon="-8.2216760">
        <ele>464.2</ele>
        <time>2019-08-18T07:52:50Z</time>
      </trkpt>
      <trkpt lat="42.6363860" lon="-8.2216880">
        <ele>464.3</ele>
        <time>2019-08-18T07:52:51Z</time>
      </trkpt>
      <trkpt lat="42.6364340" lon="-8.2217020">
        <ele>464.3</ele>
        <time>2019-08-18T07:52:52Z</time>
      </trkpt>
      <trkpt lat="42.6364820" lon="-8.2217170">
        <ele>464.4</ele>
        <time>2019-08-18T07:52:53Z</time>
      </trkpt>
      <trkpt lat="42.6365310" lon="-8.2217330">
        <ele>464.4</ele>
        <time>2019-08-18T07:52:54Z</time>
      </trkpt>
      <trkpt lat="42.6365790" lon="-8.2217500">
        <ele>464.5</ele>
        <time>2019-08-18T07:52:55Z</time>
      </trkpt>
      <trkpt lat="42.6366280" lon="-8.2217670">
        <ele>464.6</ele>
        <time>2019-08-18T07:52:56Z</time>
      </trkpt>
      <trkpt lat="42.6366770" lon="-8.2217850">
        <ele>464.7</ele>
        <time>2019-08-18T07:52:57Z</time>
      </trkpt>
      <trkpt lat="42.6367260" lon="-8.2218030">
        <ele>464.7</ele>
        <time>2019-08-18T07:52:58Z</time>
      </trkpt>
      <trkpt lat="42.6367750" lon="-8.2218220">
        <ele>464.8</ele>
        <time>2019-08-18T07:52:59Z</time>
      </trkpt>
      <trkpt lat="42.6368240" lon="-8.2218410">
        <ele>465.0</ele>
        <time>2019-08-18T07:53:00Z</time>
      </trkpt>
      <trkpt lat="42.6368720" lon="-8.2218600">
        <ele>465.1</ele>
        <time>2019-08-18T07:53:01Z</time>
      </trkpt>
      <trkpt lat="42.6369210" lon="-8.2218800">
        <ele>465.2</ele>
        <time>2019-08-18T07:53:02Z</time>
      </trkpt>
      <trkpt lat="42.6369700" lon="-8.2218990">
        <ele>465.3</ele>
        <time>2019-08-18T07:53:03Z</time>
      </trkpt>
      <trkpt lat="42.6370190" lon="-8.2219180">
        <ele>465.4</ele>
        <time>2019-08-18T07:53:04Z</time>
      </trkpt>
      <trkpt lat="42.6370670" lon="-8.2219370">
        <ele>465.5</ele>
        <time>2019-08-18T07:53:05Z</time>
      </trkpt>
      <trkpt lat="42.6371150" lon="-8.2219560">
        <ele>465.5</ele>
        <time>2019-08-18T07:53:06Z</time>
      </trkpt>
      <trkpt lat="42.6371640" lon="-8.2219750">
        <ele>465.6</ele>
        <time>2019-08-18T07:53:07Z</time>
      </trkpt>
      <trkpt lat="42.6372120" lon="-8.2219940">
        <ele>465.7</ele>
        <time>2019-08-18T07:53:08Z</time>
      </trkpt>
      <trkpt lat="42.6372600" lon="-8.2220130">
        <ele>465.7</ele>
        <time>2019-08-18T07:53:09Z</time>
      </trkpt>
      <trkpt lat="42.6373080" lon="-8.2220310">
        <ele>465.7</ele>
        <time>2019-08-18T07:53:10Z</time>
      </trkpt>
      <trkpt lat="42.6373560" lon="-8.2220500">
        <ele>465.7</ele>
        <time>2019-08-18T07:53:11Z</time>
      </trkpt>
      <trkpt lat="42.6374040" lon="-8.2220680">
        <ele>465.7</ele>
        <time>2019-08-18T07:53:12Z</time>
      </trkpt>
      <trkpt lat="42.6374520" lon="-8.2220860">
        <ele>465.7</ele>
        <time>2019-08-18T07:53:13Z</time>
      </trkpt>
      <trkpt lat="42.6375010" lon="-8.2221040">
        <ele>465.7</ele>
        <time>2019-08-18T07:53:14Z</time>
      </trkpt>
      <trkpt lat="42.6375490" lon="-8.2221220">
        <ele>465.6</ele>
        <time>2019-08-18T07:53:15Z</time>
      </trkpt>
      <trkpt lat="42.6375970" lon="-8.2221400">
        <ele>465.6</ele>
        <time>2019-08-18T07:53:16Z</time>
      </trkpt>
      <trkpt lat="42.6376460" lon="-8.2221580">
        <ele>465.6</ele>
        <time>2019-08-18T07:53:17Z</time>
      </trkpt>
      <trkpt lat="42.6376940" lon="-8.2221760">
        <ele>465.5</ele>
        <time>2019-08-18T07:53:18Z</time>
      </trkpt>
      <trkpt lat="42.6377430" lon="-8.2221940">
        <ele>465.5</ele>
        <time>2019-08-18T07:53:19Z</time>
      </trkpt>
      <trkpt lat="42.6377920" lon="-8.2222110">
        <ele>465.4</ele>
        <time>2019-08-18T07:53:20Z</time>
      </trkpt>
      <trkpt lat="42.6378410" lon="-8.2222290">
        <ele>465.4</ele>
        <time>2019-08-18T07:53:21Z</time>
      </trkpt>
      <trkpt lat="42.6378900" lon="-8.2222460">
        <ele>465.3</ele>
        <time>2019-08-18T07:53:22Z</time>
      </trkpt>
      <trkpt lat="42.6379390" lon="-8.2222640">
        <ele>465.3</ele>
        <time>2019-08-18T07:53:23Z</time>
      </trkpt>
      <trkpt lat="42.6379880" lon="-8.2222810">
        <ele>465.2</ele>
        <time>2019-08-18T07:53:24Z</time>
      </trkpt>
      <trkpt lat="42.6380370" lon="-8.2222990">
        <ele>465.2</ele>
        <time>2019-08-18T07:53:25Z</time>
      </trkpt>
      <trkpt lat="42.6381170" lon="-8.2223270">
        <ele>465.1</ele>
        <time>2019-08-18T07:53:26Z</time>
      </trkpt>
      <trkpt lat="42.6381500" lon="-8.2223390">
        <ele>465.1</ele>
        <time>2019-08-18T07:53:27Z</time>
      </trkpt>
      <trkpt lat="42.6381820" lon="-8.2223500">
        <ele>465.1</ele>
        <time>2019-08-18T07:53:28Z</time>
      </trkpt>
      <trkpt lat="42.6382300" lon="-8.2223670">
        <ele>465.0</ele>
        <time>2019-08-18T07:53:29Z</time>
      </trkpt>
      <trkpt lat="42.6382780" lon="-8.2223840">
        <ele>465.0</ele>
        <time>2019-08-18T07:53:30Z</time>
      </trkpt>
      <trkpt lat="42.6383560" lon="-8.2224120">
        <ele>464.9</ele>
        <time>2019-08-18T07:53:31Z</time>
      </trkpt>
      <trkpt lat="42.6383880" lon="-8.2224240">
        <ele>464.8</ele>
        <time>2019-08-18T07:53:32Z</time>
      </trkpt>
      <trkpt lat="42.6384190" lon="-8.2224350">
        <ele>464.8</ele>
        <time>2019-08-18T07:53:33Z</time>
      </trkpt>
      <trkpt lat="42.6384670" lon="-8.2224500">
        <ele>464.7</ele>
        <time>2019-08-18T07:53:34Z</time>
      </trkpt>
      <trkpt lat="42.6385150" lon="-8.2224620">
        <ele>464.6</ele>
        <time>2019-08-18T07:53:35Z</time>
      </trkpt>
      <trkpt lat="42.6385660" lon="-8.2224690">
        <ele>464.5</ele>
        <time>2019-08-18T07:53:36Z</time>
      </trkpt>
      <trkpt lat="42.6386200" lon="-8.2224700">
        <ele>464.3</ele>
        <time>2019-08-18T07:53:37Z</time>
      </trkpt>
      <trkpt lat="42.6386760" lon="-8.2224660">
        <ele>464.1</ele>
        <time>2019-08-18T07:53:38Z</time>
      </trkpt>
      <trkpt lat="42.6387330" lon="-8.2224570">
        <ele>463.9</ele>
        <time>2019-08-18T07:53:39Z</time>
      </trkpt>
      <trkpt lat="42.6387900" lon="-8.2224460">
        <ele>463.7</ele>
        <time>2019-08-18T07:53:40Z</time>
      </trkpt>
      <trkpt lat="42.6388460" lon="-8.2224320">
        <ele>463.5</ele>
        <time>2019-08-18T07:53:41Z</time>
      </trkpt>
      <trkpt lat="42.6389010" lon="-8.2224160">
        <ele>463.2</ele>
        <time>2019-08-18T07:53:42Z</time>
      </trkpt>
      <trkpt lat="42.6389550" lon="-8.2223970">
        <ele>462.9</ele>
        <time>2019-08-18T07:53:43Z</time>
      </trkpt>
      <trkpt lat="42.6390090" lon="-8.2223750">
        <ele>462.7</ele>
        <time>2019-08-18T07:53:44Z</time>
      </trkpt>
      <trkpt lat="42.6390620" lon="-8.2223510">
        <ele>462.4</ele>
        <time>2019-08-18T07:53:45Z</time>
      </trkpt>
      <trkpt lat="42.6391140" lon="-8.2223230">
        <ele>462.2</ele>
        <time>2019-08-18T07:53:46Z</time>
      </trkpt>
      <trkpt lat="42.6391670" lon="-8.2222920">
        <ele>462.0</ele>
        <time>2019-08-18T07:53:47Z</time>
      </trkpt>
      <trkpt lat="42.6392200" lon="-8.2222570">
        <ele>461.8</ele>
        <time>2019-08-18T07:53:48Z</time>
      </trkpt>
      <trkpt lat="42.6392720" lon="-8.2222180">
        <ele>461.6</ele>
        <time>2019-08-18T07:53:49Z</time>
      </trkpt>
      <trkpt lat="42.6393240" lon="-8.2221760">
        <ele>461.5</ele>
        <time>2019-08-18T07:53:50Z</time>
      </trkpt>
      <trkpt lat="42.6393750" lon="-8.2221300">
        <ele>461.4</ele>
        <time>2019-08-18T07:53:51Z</time>
      </trkpt>
      <trkpt lat="42.6394240" lon="-8.2220800">
        <ele>461.3</ele>
        <time>2019-08-18T07:53:52Z</time>
      </trkpt>
      <trkpt lat="42.6394730" lon="-8.2220270">
        <ele>461.1</ele>
        <time>2019-08-18T07:53:53Z</time>
      </trkpt>
      <trkpt lat="42.6395200" lon="-8.2219710">
        <ele>461.0</ele>
        <time>2019-08-18T07:53:54Z</time>
      </trkpt>
      <trkpt lat="42.6395650" lon="-8.2219120">
        <ele>460.8</ele>
        <time>2019-08-18T07:53:55Z</time>
      </trkpt>
      <trkpt lat="42.6396080" lon="-8.2218500">
        <ele>460.6</ele>
        <time>2019-08-18T07:53:56Z</time>
      </trkpt>
      <trkpt lat="42.6396500" lon="-8.2217850">
        <ele>460.4</ele>
        <time>2019-08-18T07:53:57Z</time>
      </trkpt>
      <trkpt lat="42.6396900" lon="-8.2217190">
        <ele>460.2</ele>
        <time>2019-08-18T07:53:58Z</time>
      </trkpt>
      <trkpt lat="42.6397290" lon="-8.2216510">
        <ele>460.0</ele>
        <time>2019-08-18T07:53:59Z</time>
      </trkpt>
      <trkpt lat="42.6397670" lon="-8.2215830">
        <ele>459.8</ele>
        <time>2019-08-18T07:54:00Z</time>
      </trkpt>
      <trkpt lat="42.6398040" lon="-8.2215130">
        <ele>459.6</ele>
        <time>2019-08-18T07:54:01Z</time>
      </trkpt>
      <trkpt lat="42.6398410" lon="-8.2214440">
        <ele>459.5</ele>
        <time>2019-08-18T07:54:02Z</time>
      </trkpt>
      <trkpt lat="42.6398770" lon="-8.2213750">
        <ele>459.4</ele>
        <time>2019-08-18T07:54:03Z</time>
      </trkpt>
      <trkpt lat="42.6399130" lon="-8.2213060">
        <ele>459.3</ele>
        <time>2019-08-18T07:54:04Z</time>
      </trkpt>
      <trkpt lat="42.6399490" lon="-8.2212380">
        <ele>459.2</ele>
        <time>2019-08-18T07:54:05Z</time>
      </trkpt>
      <trkpt lat="42.6399850" lon="-8.2211700">
        <ele>459.2</ele>
        <time>2019-08-18T07:54:06Z</time>
      </trkpt>
      <trkpt lat="42.6400220" lon="-8.2211030">
        <ele>459.2</ele>
        <time>2019-08-18T07:54:07Z</time>
      </trkpt>
      <trkpt lat="42.6400610" lon="-8.2210360">
        <ele>459.1</ele>
        <time>2019-08-18T07:54:08Z</time>
      </trkpt>
      <trkpt lat="42.6401000" lon="-8.2209710">
        <ele>459.1</ele>
        <time>2019-08-18T07:54:09Z</time>
      </trkpt>
      <trkpt lat="42.6401410" lon="-8.2209070">
        <ele>459.1</ele>
        <time>2019-08-18T07:54:10Z</time>
      </trkpt>
      <trkpt lat="42.6401830" lon="-8.2208430">
        <ele>459.1</ele>
        <time>2019-08-18T07:54:11Z</time>
      </trkpt>
      <trkpt lat="42.6402270" lon="-8.2207810">
        <ele>459.1</ele>
        <time>2019-08-18T07:54:12Z</time>
      </trkpt>
      <trkpt lat="42.6402720" lon="-8.2207200">
        <ele>459.1</ele>
        <time>2019-08-18T07:54:13Z</time>
      </trkpt>
      <trkpt lat="42.6403180" lon="-8.2206610">
        <ele>459.1</ele>
        <time>2019-08-18T07:54:14Z</time>
      </trkpt>
      <trkpt lat="42.6403650" lon="-8.2206020">
        <ele>459.1</ele>
        <time>2019-08-18T07:54:15Z</time>
      </trkpt>
      <trkpt lat="42.6404450" lon="-8.2205070">
        <ele>459.2</ele>
        <time>2019-08-18T07:54:16Z</time>
      </trkpt>
      <trkpt lat="42.6404780" lon="-8.2204690">
        <ele>459.2</ele>
        <time>2019-08-18T07:54:17Z</time>
      </trkpt>
      <trkpt lat="42.6405110" lon="-8.2204320">
        <ele>459.2</ele>
        <time>2019-08-18T07:54:18Z</time>
      </trkpt>
      <trkpt lat="42.6405610" lon="-8.2203770">
        <ele>459.3</ele>
        <time>2019-08-18T07:54:19Z</time>
      </trkpt>
      <trkpt lat="42.6406110" lon="-8.2203230">
        <ele>459.3</ele>
        <time>2019-08-18T07:54:20Z</time>
      </trkpt>
      <trkpt lat="42.6406970" lon="-8.2202340">
        <ele>459.4</ele>
        <time>2019-08-18T07:54:21Z</time>
      </trkpt>
      <trkpt lat="42.6407310" lon="-8.2201980">
        <ele>459.4</ele>
        <time>2019-08-18T07:54:22Z</time>
      </trkpt>
      <trkpt lat="42.6407660" lon="-8.2201630">
        <ele>459.4</ele>
        <time>2019-08-18T07:54:23Z</time>
      </trkpt>
      <trkpt lat="42.6408180" lon="-8.2201090">
        <ele>459.4</ele>
        <time>2019-08-18T07:54:24Z</time>
      </trkpt>
      <trkpt lat="42.6408710" lon="-8.2200560">
        <ele>459.5</ele>
        <time>2019-08-18T07:54:25Z</time>
      </trkpt>
      <trkpt lat="42.6409230" lon="-8.2200020">
        <ele>459.5</ele>
        <time>2019-08-18T07:54:26Z</time>
      </trkpt>
      <trkpt lat="42.6409760" lon="-8.2199490">
        <ele>459.5</ele>
        <time>2019-08-18T07:54:27Z</time>
      </trkpt>
      <trkpt lat="42.6410280" lon="-8.2198950">
        <ele>459.5</ele>
        <time>2019-08-18T07:54:28Z</time>
      </trkpt>
      <trkpt lat="42.6410810" lon="-8.2198420">
        <ele>459.4</ele>
        <time>2019-08-18T07:54:29Z</time>
      </trkpt>
      <trkpt lat="42.6411320" lon="-8.2197880">
        <ele>459.4</ele>
        <time>2019-08-18T07:54:30Z</time>
      </trkpt>
      <trkpt lat="42.6411840" lon="-8.2197350">
        <ele>459.4</ele>
        <time>2019-08-18T07:54:31Z</time>
      </trkpt>
      <trkpt lat="42.6412350" lon="-8.2196830">
        <ele>459.5</ele>
        <time>2019-08-18T07:54:32Z</time>
      </trkpt>
      <trkpt lat="42.6412850" lon="-8.2196310">
        <ele>459.5</ele>
        <time>2019-08-18T07:54:33Z</time>
      </trkpt>
      <trkpt lat="42.6413340" lon="-8.2195790">
        <ele>459.5</ele>
        <time>2019-08-18T07:54:34Z</time>
      </trkpt>
      <trkpt lat="42.6413830" lon="-8.2195280">
        <ele>459.5</ele>
        <time>2019-08-18T07:54:35Z</time>
      </trkpt>
      <trkpt lat="42.6414320" lon="-8.2194790">
        <ele>459.6</ele>
        <time>2019-08-18T07:54:36Z</time>
      </trkpt>
      <trkpt lat="42.6414790" lon="-8.2194300">
        <ele>459.6</ele>
        <time>2019-08-18T07:54:37Z</time>
      </trkpt>
      <trkpt lat="42.6415260" lon="-8.2193830">
        <ele>459.6</ele>
        <time>2019-08-18T07:54:38Z</time>
      </trkpt>
      <trkpt lat="42.6415720" lon="-8.2193380">
        <ele>459.6</ele>
        <time>2019-08-18T07:54:39Z</time>
      </trkpt>
      <trkpt lat="42.6416170" lon="-8.2192940">
        <ele>459.6</ele>
        <time>2019-08-18T07:54:40Z</time>
      </trkpt>
      <trkpt lat="42.6416620" lon="-8.2192520">
        <ele>459.6</ele>
        <time>2019-08-18T07:54:41Z</time>
      </trkpt>
      <trkpt lat="42.6417070" lon="-8.2192120">
        <ele>459.6</ele>
        <time>2019-08-18T07:54:42Z</time>
      </trkpt>
      <trkpt lat="42.6417510" lon="-8.2191720">
        <ele>459.6</ele>
        <time>2019-08-18T07:54:43Z</time>
      </trkpt>
      <trkpt lat="42.6417960" lon="-8.2191340">
        <ele>459.6</ele>
        <time>2019-08-18T07:54:44Z</time>
      </trkpt>
      <trkpt lat="42.6418410" lon="-8.2190970">
        <ele>459.6</ele>
        <time>2019-08-18T07:54:45Z</time>
      </trkpt>
      <trkpt lat="42.6418870" lon="-8.2190610">
        <ele>459.6</ele>
        <time>2019-08-18T07:54:46Z</time>
      </trkpt>
      <trkpt lat="42.6419330" lon="-8.2190250">
        <ele>459.6</ele>
        <time>2019-08-18T07:54:47Z</time>
      </trkpt>
      <trkpt lat="42.6419810" lon="-8.2189900">
        <ele>459.6</ele>
        <time>2019-08-18T07:54:48Z</time>
      </trkpt>
      <trkpt lat="42.6420290" lon="-8.2189560">
        <ele>459.6</ele>
        <time>2019-08-18T07:54:49Z</time>
      </trkpt>
      <trkpt lat="42.6420770" lon="-8.2189220">
        <ele>459.6</ele>
        <time>2019-08-18T07:54:50Z</time>
      </trkpt>
      <trkpt lat="42.6421260" lon="-8.2188890">
        <ele>459.6</ele>
        <time>2019-08-18T07:54:51Z</time>
      </trkpt>
      <trkpt lat="42.6421750" lon="-8.2188560">
        <ele>459.6</ele>
        <time>2019-08-18T07:54:52Z</time>
      </trkpt>
      <trkpt lat="42.6422240" lon="-8.2188240">
        <ele>459.6</ele>
        <time>2019-08-18T07:54:53Z</time>
      </trkpt>
      <trkpt lat="42.6422740" lon="-8.2187930">
        <ele>459.6</ele>
        <time>2019-08-18T07:54:54Z</time>
      </trkpt>
      <trkpt lat="42.6423230" lon="-8.2187620">
        <ele>459.6</ele>
        <time>2019-08-18T07:54:55Z</time>
      </trkpt>
      <trkpt lat="42.6423730" lon="-8.2187310">
        <ele>459.6</ele>
        <time>2019-08-18T07:54:56Z</time>
      </trkpt>
      <trkpt lat="42.6424220" lon="-8.2187010">
        <ele>459.6</ele>
        <time>2019-08-18T07:54:57Z</time>
      </trkpt>
      <trkpt lat="42.6424700" lon="-8.2186720">
        <ele>459.6</ele>
        <time>2019-08-18T07:54:58Z</time>
      </trkpt>
      <trkpt lat="42.6425190" lon="-8.2186430">
        <ele>459.6</ele>
        <time>2019-08-18T07:54:59Z</time>
      </trkpt>
      <trkpt lat="42.6425660" lon="-8.2186150">
        <ele>459.6</ele>
        <time>2019-08-18T07:55:00Z</time>
      </trkpt>
      <trkpt lat="42.6426140" lon="-8.2185870">
        <ele>459.6</ele>
        <time>2019-08-18T07:55:01Z</time>
      </trkpt>
      <trkpt lat="42.6426600" lon="-8.2185600">
        <ele>459.6</ele>
        <time>2019-08-18T07:55:02Z</time>
      </trkpt>
      <trkpt lat="42.6427060" lon="-8.2185340">
        <ele>459.6</ele>
        <time>2019-08-18T07:55:03Z</time>
      </trkpt>
      <trkpt lat="42.6427520" lon="-8.2185080">
        <ele>459.7</ele>
        <time>2019-08-18T07:55:04Z</time>
      </trkpt>
      <trkpt lat="42.6427970" lon="-8.2184840">
        <ele>459.7</ele>
        <time>2019-08-18T07:55:05Z</time>
      </trkpt>
      <trkpt lat="42.6428430" lon="-8.2184600">
        <ele>459.7</ele>
        <time>2019-08-18T07:55:06Z</time>
      </trkpt>
      <trkpt lat="42.6428880" lon="-8.2184390">
        <ele>459.7</ele>
        <time>2019-08-18T07:55:07Z</time>
      </trkpt>
      <trkpt lat="42.6429340" lon="-8.2184180">
        <ele>459.7</ele>
        <time>2019-08-18T07:55:08Z</time>
      </trkpt>
      <trkpt lat="42.6429800" lon="-8.2184000">
        <ele>459.7</ele>
        <time>2019-08-18T07:55:09Z</time>
      </trkpt>
      <trkpt lat="42.6430260" lon="-8.2183830">
        <ele>459.7</ele>
        <time>2019-08-18T07:55:10Z</time>
      </trkpt>
      <trkpt lat="42.6430720" lon="-8.2183680">
        <ele>459.7</ele>
        <time>2019-08-18T07:55:11Z</time>
      </trkpt>
      <trkpt lat="42.6431190" lon="-8.2183550">
        <ele>459.7</ele>
        <time>2019-08-18T07:55:12Z</time>
      </trkpt>
      <trkpt lat="42.6431660" lon="-8.2183440">
        <ele>459.7</ele>
        <time>2019-08-18T07:55:13Z</time>
      </trkpt>
      <trkpt lat="42.6432130" lon="-8.2183350">
        <ele>459.9</ele>
        <time>2019-08-18T07:55:14Z</time>
      </trkpt>
      <trkpt lat="42.6432610" lon="-8.2183280">
        <ele>460.0</ele>
        <time>2019-08-18T07:55:15Z</time>
      </trkpt>
      <trkpt lat="42.6433090" lon="-8.2183230">
        <ele>460.2</ele>
        <time>2019-08-18T07:55:16Z</time>
      </trkpt>
      <trkpt lat="42.6433580" lon="-8.2183210">
        <ele>460.3</ele>
        <time>2019-08-18T07:55:17Z</time>
      </trkpt>
      <trkpt lat="42.6434070" lon="-8.2183210">
        <ele>460.4</ele>
        <time>2019-08-18T07:55:18Z</time>
      </trkpt>
      <trkpt lat="42.6434560" lon="-8.2183230">
        <ele>460.5</ele>
        <time>2019-08-18T07:55:19Z</time>
      </trkpt>
      <trkpt lat="42.6435050" lon="-8.2183270">
        <ele>460.6</ele>
        <time>2019-08-18T07:55:20Z</time>
      </trkpt>
      <trkpt lat="42.6435540" lon="-8.2183340">
        <ele>460.7</ele>
        <time>2019-08-18T07:55:21Z</time>
      </trkpt>
      <trkpt lat="42.6436030" lon="-8.2183430">
        <ele>460.8</ele>
        <time>2019-08-18T07:55:22Z</time>
      </trkpt>
      <trkpt lat="42.6436520" lon="-8.2183540">
        <ele>460.8</ele>
        <time>2019-08-18T07:55:23Z</time>
      </trkpt>
      <trkpt lat="42.6437010" lon="-8.2183670">
        <ele>460.9</ele>
        <time>2019-08-18T07:55:24Z</time>
      </trkpt>
      <trkpt lat="42.6437490" lon="-8.2183820">
        <ele>461.0</ele>
        <time>2019-08-18T07:55:25Z</time>
      </trkpt>
      <trkpt lat="42.6437980" lon="-8.2183990">
        <ele>461.1</ele>
        <time>2019-08-18T07:55:26Z</time>
      </trkpt>
      <trkpt lat="42.6438450" lon="-8.2184190">
        <ele>461.2</ele>
        <time>2019-08-18T07:55:27Z</time>
      </trkpt>
      <trkpt lat="42.6438930" lon="-8.2184400">
        <ele>461.3</ele>
        <time>2019-08-18T07:55:28Z</time>
      </trkpt>
      <trkpt lat="42.6439390" lon="-8.2184640">
        <ele>461.4</ele>
        <time>2019-08-18T07:55:29Z</time>
      </trkpt>
      <trkpt lat="42.6439860" lon="-8.2184900">
        <ele>461.5</ele>
        <time>2019-08-18T07:55:30Z</time>
      </trkpt>
      <trkpt lat="42.6440310" lon="-8.2185180">
        <ele>461.6</ele>
        <time>2019-08-18T07:55:31Z</time>
      </trkpt>
      <trkpt lat="42.6440760" lon="-8.2185480">
        <ele>461.7</ele>
        <time>2019-08-18T07:55:32Z</time>
      </trkpt>
      <trkpt lat="42.6441200" lon="-8.2185790">
        <ele>461.8</ele>
        <time>2019-08-18T07:55:33Z</time>
      </trkpt>
      <trkpt lat="42.6441630" lon="-8.2186130">
        <ele>461.9</ele>
        <time>2019-08-18T07:55:34Z</time>
      </trkpt>
      <trkpt lat="42.6442060" lon="-8.2186490">
        <ele>462.1</ele>
        <time>2019-08-18T07:55:35Z</time>
      </trkpt>
      <trkpt lat="42.6442480" lon="-8.2186860">
        <ele>462.2</ele>
        <time>2019-08-18T07:55:36Z</time>
      </trkpt>
      <trkpt lat="42.6442900" lon="-8.2187260">
        <ele>462.4</ele>
        <time>2019-08-18T07:55:37Z</time>
      </trkpt>
      <trkpt lat="42.6443300" lon="-8.2187670">
        <ele>462.6</ele>
        <time>2019-08-18T07:55:38Z</time>
      </trkpt>
      <trkpt lat="42.6443700" lon="-8.2188100">
        <ele>462.8</ele>
        <time>2019-08-18T07:55:39Z</time>
      </trkpt>
      <trkpt lat="42.6444090" lon="-8.2188540">
        <ele>463.0</ele>
        <time>2019-08-18T07:55:40Z</time>
      </trkpt>
      <trkpt lat="42.6444480" lon="-8.2189000">
        <ele>463.2</ele>
        <time>2019-08-18T07:55:41Z</time>
      </trkpt>
      <trkpt lat="42.6444860" lon="-8.2189480">
        <ele>463.5</ele>
        <time>2019-08-18T07:55:42Z</time>
      </trkpt>
      <trkpt lat="42.6445230" lon="-8.2189970">
        <ele>463.7</ele>
        <time>2019-08-18T07:55:43Z</time>
      </trkpt>
      <trkpt lat="42.6445590" lon="-8.2190480">
        <ele>464.0</ele>
        <time>2019-08-18T07:55:44Z</time>
      </trkpt>
      <trkpt lat="42.6445940" lon="-8.2191000">
        <ele>464.2</ele>
        <time>2019-08-18T07:55:45Z</time>
      </trkpt>
      <trkpt lat="42.6446290" lon="-8.2191540">
        <ele>464.4</ele>
        <time>2019-08-18T07:55:46Z</time>
      </trkpt>
      <trkpt lat="42.6446630" lon="-8.2192080">
        <ele>464.6</ele>
        <time>2019-08-18T07:55:47Z</time>
      </trkpt>
      <trkpt lat="42.6446970" lon="-8.2192640">
        <ele>464.8</ele>
        <time>2019-08-18T07:55:48Z</time>
      </trkpt>
      <trkpt lat="42.6447310" lon="-8.2193200">
        <ele>464.9</ele>
        <time>2019-08-18T07:55:49Z</time>
      </trkpt>
      <trkpt lat="42.6447650" lon="-8.2193770">
        <ele>465.1</ele>
        <time>2019-08-18T07:55:50Z</time>
      </trkpt>
      <trkpt lat="42.6447980" lon="-8.2194340">
        <ele>465.2</ele>
        <time>2019-08-18T07:55:51Z</time>
      </trkpt>
      <trkpt lat="42.6448320" lon="-8.2194910">
        <ele>465.3</ele>
        <time>2019-08-18T07:55:52Z</time>
      </trkpt>
      <trkpt lat="42.6448660" lon="-8.2195490">
        <ele>465.4</ele>
        <time>2019-08-18T07:55:53Z</time>
      </trkpt>
      <trkpt lat="42.6449000" lon="-8.2196060">
        <ele>465.5</ele>
        <time>2019-08-18T07:55:54Z</time>
      </trkpt>
      <trkpt lat="42.6449350" lon="-8.2196630">
        <ele>465.5</ele>
        <time>2019-08-18T07:55:55Z</time>
      </trkpt>
      <trkpt lat="42.6449700" lon="-8.2197190">
        <ele>465.6</ele>
        <time>2019-08-18T07:55:56Z</time>
      </trkpt>
      <trkpt lat="42.6450320" lon="-8.2198100">
        <ele>465.7</ele>
        <time>2019-08-18T07:55:57Z</time>
      </trkpt>
      <trkpt lat="42.6450570" lon="-8.2198460">
        <ele>465.8</ele>
        <time>2019-08-18T07:55:58Z</time>
      </trkpt>
      <trkpt lat="42.6450820" lon="-8.2198820">
        <ele>465.9</ele>
        <time>2019-08-18T07:55:59Z</time>
      </trkpt>
      <trkpt lat="42.6451210" lon="-8.2199350">
        <ele>465.9</ele>
        <time>2019-08-18T07:56:00Z</time>
      </trkpt>
      <trkpt lat="42.6451610" lon="-8.2199860">
        <ele>466.0</ele>
        <time>2019-08-18T07:56:01Z</time>
      </trkpt>
      <trkpt lat="42.6452320" lon="-8.2200660">
        <ele>466.1</ele>
        <time>2019-08-18T07:56:02Z</time>
      </trkpt>
      <trkpt lat="42.6452600" lon="-8.2200980">
        <ele>466.2</ele>
        <time>2019-08-18T07:56:03Z</time>
      </trkpt>
      <trkpt lat="42.6452890" lon="-8.2201290">
        <ele>466.2</ele>
        <time>2019-08-18T07:56:04Z</time>
      </trkpt>
      <trkpt lat="42.6453330" lon="-8.2201730">
        <ele>466.3</ele>
        <time>2019-08-18T07:56:05Z</time>
      </trkpt>
      <trkpt lat="42.6453790" lon="-8.2202160">
        <ele>466.3</ele>
        <time>2019-08-18T07:56:06Z</time>
      </trkpt>
      <trkpt lat="42.6454260" lon="-8.2202560">
        <ele>466.4</ele>
        <time>2019-08-18T07:56:07Z</time>
      </trkpt>
      <trkpt lat="42.6454750" lon="-8.2202940">
        <ele>466.4</ele>
        <time>2019-08-18T07:56:08Z</time>
      </trkpt>
      <trkpt lat="42.6455240" lon="-8.2203310">
        <ele>466.5</ele>
        <time>2019-08-18T07:56:09Z</time>
      </trkpt>
      <trkpt lat="42.6455740" lon="-8.2203660">
        <ele>466.6</ele>
        <time>2019-08-18T07:56:10Z</time>
      </trkpt>
      <trkpt lat="42.6456260" lon="-8.2203990">
        <ele>466.6</ele>
        <time>2019-08-18T07:56:11Z</time>
      </trkpt>
      <trkpt lat="42.6456780" lon="-8.2204320">
        <ele>466.7</ele>
        <time>2019-08-18T07:56:12Z</time>
      </trkpt>
      <trkpt lat="42.6457310" lon="-8.2204630">
        <ele>466.8</ele>
        <time>2019-08-18T07:56:13Z</time>
      </trkpt>
      <trkpt lat="42.6457840" lon="-8.2204930">
        <ele>466.9</ele>
        <time>2019-08-18T07:56:14Z</time>
      </trkpt>
      <trkpt lat="42.6458380" lon="-8.2205230">
        <ele>466.9</ele>
        <time>2019-08-18T07:56:15Z</time>
      </trkpt>
      <trkpt lat="42.6458930" lon="-8.2205520">
        <ele>467.0</ele>
        <time>2019-08-18T07:56:16Z</time>
      </trkpt>
      <trkpt lat="42.6459490" lon="-8.2205810">
        <ele>467.1</ele>
        <time>2019-08-18T07:56:17Z</time>
      </trkpt>
      <trkpt lat="42.6460050" lon="-8.2206090">
        <ele>467.1</ele>
        <time>2019-08-18T07:56:18Z</time>
      </trkpt>
      <trkpt lat="42.6460620" lon="-8.2206370">
        <ele>467.1</ele>
        <time>2019-08-18T07:56:19Z</time>
      </trkpt>
      <trkpt lat="42.6461190" lon="-8.2206660">
        <ele>467.1</ele>
        <time>2019-08-18T07:56:20Z</time>
      </trkpt>
      <trkpt lat="42.6461770" lon="-8.2206950">
        <ele>467.1</ele>
        <time>2019-08-18T07:56:21Z</time>
      </trkpt>
      <trkpt lat="42.6462350" lon="-8.2207240">
        <ele>467.0</ele>
        <time>2019-08-18T07:56:22Z</time>
      </trkpt>
      <trkpt lat="42.6462930" lon="-8.2207530">
        <ele>467.0</ele>
        <time>2019-08-18T07:56:23Z</time>
      </trkpt>
      <trkpt lat="42.6463520" lon="-8.2207830">
        <ele>466.9</ele>
        <time>2019-08-18T07:56:24Z</time>
      </trkpt>
      <trkpt lat="42.6464110" lon="-8.2208130">
        <ele>466.8</ele>
        <time>2019-08-18T07:56:25Z</time>
      </trkpt>
      <trkpt lat="42.6464700" lon="-8.2208430">
        <ele>466.7</ele>
        <time>2019-08-18T07:56:26Z</time>
      </trkpt>
      <trkpt lat="42.6465280" lon="-8.2208720">
        <ele>466.7</ele>
        <time>2019-08-18T07:56:27Z</time>
      </trkpt>
      <trkpt lat="42.6465850" lon="-8.2209010">
        <ele>466.6</ele>
        <time>2019-08-18T07:56:28Z</time>
      </trkpt>
      <trkpt lat="42.6466420" lon="-8.2209300">
        <ele>466.6</ele>
        <time>2019-08-18T07:56:29Z</time>
      </trkpt>
      <trkpt lat="42.6466990" lon="-8.2209590">
        <ele>466.6</ele>
        <time>2019-08-18T07:56:30Z</time>
      </trkpt>
      <trkpt lat="42.6467550" lon="-8.2209870">
        <ele>466.5</ele>
        <time>2019-08-18T07:56:31Z</time>
      </trkpt>
      <trkpt lat="42.6468120" lon="-8.2210150">
        <ele>466.5</ele>
        <time>2019-08-18T07:56:32Z</time>
      </trkpt>
      <trkpt lat="42.6468690" lon="-8.2210440">
        <ele>466.5</ele>
        <time>2019-08-18T07:56:33Z</time>
      </trkpt>
      <trkpt lat="42.6469260" lon="-8.2210720">
        <ele>466.4</ele>
        <time>2019-08-18T07:56:34Z</time>
      </trkpt>
      <trkpt lat="42.6469840" lon="-8.2211010">
        <ele>466.4</ele>
        <time>2019-08-18T07:56:35Z</time>
      </trkpt>
      <trkpt lat="42.6470430" lon="-8.2211300">
        <ele>466.3</ele>
        <time>2019-08-18T07:56:36Z</time>
      </trkpt>
      <trkpt lat="42.6471030" lon="-8.2211600">
        <ele>466.2</ele>
        <time>2019-08-18T07:56:37Z</time>
      </trkpt>
      <trkpt lat="42.6471640" lon="-8.2211900">
        <ele>466.1</ele>
        <time>2019-08-18T07:56:38Z</time>
      </trkpt>
      <trkpt lat="42.6472260" lon="-8.2212200">
        <ele>465.9</ele>
        <time>2019-08-18T07:56:39Z</time>
      </trkpt>
      <trkpt lat="42.6472890" lon="-8.2212510">
        <ele>465.8</ele>
        <time>2019-08-18T07:56:40Z</time>
      </trkpt>
      <trkpt lat="42.6473520" lon="-8.2212820">
        <ele>465.7</ele>
        <time>2019-08-18T07:56:41Z</time>
      </trkpt>
      <trkpt lat="42.6474150" lon="-8.2213120">
        <ele>465.6</ele>
        <time>2019-08-18T07:56:42Z</time>
      </trkpt>
      <trkpt lat="42.6474770" lon="-8.2213420">
        <ele>465.5</ele>
        <time>2019-08-18T07:56:43Z</time>
      </trkpt>
      <trkpt lat="42.6475400" lon="-8.2213720">
        <ele>465.5</ele>
        <time>2019-08-18T07:56:44Z</time>
      </trkpt>
      <trkpt lat="42.6476020" lon="-8.2214010">
        <ele>465.4</ele>
        <time>2019-08-18T07:56:45Z</time>
      </trkpt>
      <trkpt lat="42.6476630" lon="-8.2214300">
        <ele>465.4</ele>
        <time>2019-08-18T07:56:46Z</time>
      </trkpt>
      <trkpt lat="42.6477250" lon="-8.2214590">
        <ele>465.4</ele>
        <time>2019-08-18T07:56:47Z</time>
      </trkpt>
      <trkpt lat="42.6477880" lon="-8.2214880">
        <ele>465.4</ele>
        <time>2019-08-18T07:56:48Z</time>
      </trkpt>
      <trkpt lat="42.6478500" lon="-8.2215170">
        <ele>465.4</ele>
        <time>2019-08-18T07:56:49Z</time>
      </trkpt>
      <trkpt lat="42.6479130" lon="-8.2215450">
        <ele>465.4</ele>
        <time>2019-08-18T07:56:50Z</time>
      </trkpt>
      <trkpt lat="42.6479770" lon="-8.2215740">
        <ele>465.4</ele>
        <time>2019-08-18T07:56:51Z</time>
      </trkpt>
      <trkpt lat="42.6480410" lon="-8.2216010">
        <ele>465.5</ele>
        <time>2019-08-18T07:56:52Z</time>
      </trkpt>
      <trkpt lat="42.6481050" lon="-8.2216280">
        <ele>465.5</ele>
        <time>2019-08-18T07:56:53Z</time>
      </trkpt>
      <trkpt lat="42.6481680" lon="-8.2216530">
        <ele>465.5</ele>
        <time>2019-08-18T07:56:54Z</time>
      </trkpt>
      <trkpt lat="42.6482300" lon="-8.2216750">
        <ele>465.5</ele>
        <time>2019-08-18T07:56:55Z</time>
      </trkpt>
      <trkpt lat="42.6482900" lon="-8.2216960">
        <ele>465.1</ele>
        <time>2019-08-18T07:56:56Z</time>
      </trkpt>
      <trkpt lat="42.6483500" lon="-8.2217140">
        <ele>465.2</ele>
        <time>2019-08-18T07:56:57Z</time>
      </trkpt>
      <trkpt lat="42.6484080" lon="-8.2217310">
        <ele>465.0</ele>
        <time>2019-08-18T07:56:58Z</time>
      </trkpt>
      <trkpt lat="42.6484660" lon="-8.2217470">
        <ele>464.7</ele>
        <time>2019-08-18T07:56:59Z</time>
      </trkpt>
      <trkpt lat="42.6485230" lon="-8.2217610">
        <ele>464.9</ele>
        <time>2019-08-18T07:57:00Z</time>
      </trkpt>
      <trkpt lat="42.6485800" lon="-8.2217740">
        <ele>464.5</ele>
        <time>2019-08-18T07:57:01Z</time>
      </trkpt>
      <trkpt lat="42.6486360" lon="-8.2217850">
        <ele>464.1</ele>
        <time>2019-08-18T07:57:02Z</time>
      </trkpt>
      <trkpt lat="42.6486920" lon="-8.2217950">
        <ele>463.9</ele>
        <time>2019-08-18T07:57:03Z</time>
      </trkpt>
      <trkpt lat="42.6487460" lon="-8.2218040">
        <ele>463.9</ele>
        <time>2019-08-18T07:57:04Z</time>
      </trkpt>
      <trkpt lat="42.6488010" lon="-8.2218110">
        <ele>463.8</ele>
        <time>2019-08-18T07:57:05Z</time>
      </trkpt>
      <trkpt lat="42.6488550" lon="-8.2218180">
        <ele>463.6</ele>
        <time>2019-08-18T07:57:06Z</time>
      </trkpt>
      <trkpt lat="42.6489090" lon="-8.2218230">
        <ele>463.5</ele>
        <time>2019-08-18T07:57:07Z</time>
      </trkpt>
      <trkpt lat="42.6489620" lon="-8.2218260">
        <ele>463.4</ele>
        <time>2019-08-18T07:57:08Z</time>
      </trkpt>
      <trkpt lat="42.6490140" lon="-8.2218290">
        <ele>463.4</ele>
        <time>2019-08-18T07:57:09Z</time>
      </trkpt>
      <trkpt lat="42.6490660" lon="-8.2218310">
        <ele>463.7</ele>
        <time>2019-08-18T07:57:10Z</time>
      </trkpt>
      <trkpt lat="42.6491170" lon="-8.2218320">
        <ele>464.0</ele>
        <time>2019-08-18T07:57:11Z</time>
      </trkpt>
      <trkpt lat="42.6491680" lon="-8.2218320">
        <ele>464.3</ele>
        <time>2019-08-18T07:57:12Z</time>
      </trkpt>
      <trkpt lat="42.6492180" lon="-8.2218310">
        <ele>464.7</ele>
        <time>2019-08-18T07:57:13Z</time>
      </trkpt>
      <trkpt lat="42.6492670" lon="-8.2218290">
        <ele>465.0</ele>
        <time>2019-08-18T07:57:14Z</time>
      </trkpt>
      <trkpt lat="42.6493140" lon="-8.2218270">
        <ele>465.3</ele>
        <time>2019-08-18T07:57:15Z</time>
      </trkpt>
      <trkpt lat="42.6493610" lon="-8.2218240">
        <ele>465.7</ele>
        <time>2019-08-18T07:57:16Z</time>
      </trkpt>
      <trkpt lat="42.6494060" lon="-8.2218210">
        <ele>466.0</ele>
        <time>2019-08-18T07:57:17Z</time>
      </trkpt>
      <trkpt lat="42.6494490" lon="-8.2218180">
        <ele>466.4</ele>
        <time>2019-08-18T07:57:18Z</time>
      </trkpt>
      <trkpt lat="42.6494910" lon="-8.2218150">
        <ele>466.9</ele>
        <time>2019-08-18T07:57:19Z</time>
      </trkpt>
      <trkpt lat="42.6495310" lon="-8.2218120">
        <ele>467.3</ele>
        <time>2019-08-18T07:57:20Z</time>
      </trkpt>
      <trkpt lat="42.6495690" lon="-8.2218100">
        <ele>467.7</ele>
        <time>2019-08-18T07:57:21Z</time>
      </trkpt>
      <trkpt lat="42.6496060" lon="-8.2218070">
        <ele>468.0</ele>
        <time>2019-08-18T07:57:22Z</time>
      </trkpt>
      <trkpt lat="42.6496410" lon="-8.2218050">
        <ele>468.2</ele>
        <time>2019-08-18T07:57:23Z</time>
      </trkpt>
      <trkpt lat="42.6496750" lon="-8.2218030">
        <ele>468.5</ele>
        <time>2019-08-18T07:57:24Z</time>
      </trkpt>
      <trkpt lat="42.6497090" lon="-8.2218010">
        <ele>468.9</ele>
        <time>2019-08-18T07:57:25Z</time>
      </trkpt>
      <trkpt lat="42.6497410" lon="-8.2218000">
        <ele>469.2</ele>
        <time>2019-08-18T07:57:26Z</time>
      </trkpt>
      <trkpt lat="42.6497730" lon="-8.2217990">
        <ele>469.4</ele>
        <time>2019-08-18T07:57:27Z</time>
      </trkpt>
      <trkpt lat="42.6498050" lon="-8.2217980">
        <ele>469.6</ele>
        <time>2019-08-18T07:57:28Z</time>
      </trkpt>
      <trkpt lat="42.6498360" lon="-8.2217970">
        <ele>469.7</ele>
        <time>2019-08-18T07:57:29Z</time>
      </trkpt>
      <trkpt lat="42.6498680" lon="-8.2217970">
        <ele>469.9</ele>
        <time>2019-08-18T07:57:30Z</time>
      </trkpt>
      <trkpt lat="42.6499000" lon="-8.2217960">
        <ele>470.1</ele>
        <time>2019-08-18T07:57:31Z</time>
      </trkpt>
      <trkpt lat="42.6499320" lon="-8.2217960">
        <ele>470.3</ele>
        <time>2019-08-18T07:57:32Z</time>
      </trkpt>
      <trkpt lat="42.6499660" lon="-8.2217950">
        <ele>470.5</ele>
        <time>2019-08-18T07:57:33Z</time>
      </trkpt>
      <trkpt lat="42.6500000" lon="-8.2217950">
        <ele>470.7</ele>
        <time>2019-08-18T07:57:34Z</time>
      </trkpt>
      <trkpt lat="42.6500360" lon="-8.2217940">
        <ele>471.0</ele>
        <time>2019-08-18T07:57:35Z</time>
      </trkpt>
      <trkpt lat="42.6500730" lon="-8.2217930">
        <ele>471.3</ele>
        <time>2019-08-18T07:57:36Z</time>
      </trkpt>
      <trkpt lat="42.6501110" lon="-8.2217920">
        <ele>471.5</ele>
        <time>2019-08-18T07:57:37Z</time>
      </trkpt>
      <trkpt lat="42.6501490" lon="-8.2217910">
        <ele>471.7</ele>
        <time>2019-08-18T07:57:38Z</time>
      </trkpt>
      <trkpt lat="42.6501880" lon="-8.2217890">
        <ele>471.8</ele>
        <time>2019-08-18T07:57:39Z</time>
      </trkpt>
      <trkpt lat="42.6502270" lon="-8.2217870">
        <ele>471.9</ele>
        <time>2019-08-18T07:57:40Z</time>
      </trkpt>
      <trkpt lat="42.6502650" lon="-8.2217850">
        <ele>472.0</ele>
        <time>2019-08-18T07:57:41Z</time>
      </trkpt>
      <trkpt lat="42.6503030" lon="-8.2217830">
        <ele>472.1</ele>
        <time>2019-08-18T07:57:42Z</time>
      </trkpt>
      <trkpt lat="42.6503400" lon="-8.2217800">
        <ele>472.2</ele>
        <time>2019-08-18T07:57:43Z</time>
      </trkpt>
      <trkpt lat="42.6503770" lon="-8.2217770">
        <ele>472.3</ele>
        <time>2019-08-18T07:57:44Z</time>
      </trkpt>
      <trkpt lat="42.6504130" lon="-8.2217750">
        <ele>472.4</ele>
        <time>2019-08-18T07:57:45Z</time>
      </trkpt>
      <trkpt lat="42.6504500" lon="-8.2217740">
        <ele>472.6</ele>
        <time>2019-08-18T07:57:46Z</time>
      </trkpt>
      <trkpt lat="42.6504860" lon="-8.2217730">
        <ele>472.8</ele>
        <time>2019-08-18T07:57:47Z</time>
      </trkpt>
      <trkpt lat="42.6505220" lon="-8.2217740">
        <ele>473.0</ele>
        <time>2019-08-18T07:57:48Z</time>
      </trkpt>
      <trkpt lat="42.6505590" lon="-8.2217770">
        <ele>473.1</ele>
        <time>2019-08-18T07:57:49Z</time>
      </trkpt>
      <trkpt lat="42.6506130" lon="-8.2217810">
        <ele>473.3</ele>
        <time>2019-08-18T07:57:50Z</time>
      </trkpt>
      <trkpt lat="42.6506310" lon="-8.2217820">
        <ele>473.4</ele>
        <time>2019-08-18T07:57:51Z</time>
      </trkpt>
      <trkpt lat="42.6506670" lon="-8.2217830">
        <ele>473.5</ele>
        <time>2019-08-18T07:57:52Z</time>
      </trkpt>
      <trkpt lat="42.6507020" lon="-8.2217820">
        <ele>473.7</ele>
        <time>2019-08-18T07:57:53Z</time>
      </trkpt>
      <trkpt lat="42.6507370" lon="-8.2217810">
        <ele>473.9</ele>
        <time>2019-08-18T07:57:54Z</time>
      </trkpt>
      <trkpt lat="42.6507720" lon="-8.2217790">
        <ele>474.0</ele>
        <time>2019-08-18T07:57:55Z</time>
      </trkpt>
      <trkpt lat="42.6508070" lon="-8.2217800">
        <ele>474.2</ele>
        <time>2019-08-18T07:57:56Z</time>
      </trkpt>
      <trkpt lat="42.6508600" lon="-8.2217840">
        <ele>474.4</ele>
        <time>2019-08-18T07:57:57Z</time>
      </trkpt>
      <trkpt lat="42.6508780" lon="-8.2217860">
        <ele>474.5</ele>
        <time>2019-08-18T07:57:58Z</time>
      </trkpt>
      <trkpt lat="42.6509140" lon="-8.2217910">
        <ele>474.6</ele>
        <time>2019-08-18T07:57:59Z</time>
      </trkpt>
      <trkpt lat="42.6509500" lon="-8.2217980">
        <ele>474.7</ele>
        <time>2019-08-18T07:58:00Z</time>
      </trkpt>
      <trkpt lat="42.6509860" lon="-8.2218060">
        <ele>474.8</ele>
        <time>2019-08-18T07:58:01Z</time>
      </trkpt>
      <trkpt lat="42.6510220" lon="-8.2218160">
        <ele>474.9</ele>
        <time>2019-08-18T07:58:02Z</time>
      </trkpt>
      <trkpt lat="42.6510580" lon="-8.2218260">
        <ele>475.0</ele>
        <time>2019-08-18T07:58:03Z</time>
      </trkpt>
      <trkpt lat="42.6510940" lon="-8.2218380">
        <ele>475.1</ele>
        <time>2019-08-18T07:58:04Z</time>
      </trkpt>
      <trkpt lat="42.6511310" lon="-8.2218510">
        <ele>475.3</ele>
        <time>2019-08-18T07:58:05Z</time>
      </trkpt>
      <trkpt lat="42.6511670" lon="-8.2218640">
        <ele>475.4</ele>
        <time>2019-08-18T07:58:06Z</time>
      </trkpt>
      <trkpt lat="42.6512030" lon="-8.2218780">
        <ele>475.5</ele>
        <time>2019-08-18T07:58:07Z</time>
      </trkpt>
      <trkpt lat="42.6512390" lon="-8.2218930">
        <ele>475.6</ele>
        <time>2019-08-18T07:58:08Z</time>
      </trkpt>
      <trkpt lat="42.6512750" lon="-8.2219080">
        <ele>475.6</ele>
        <time>2019-08-18T07:58:09Z</time>
      </trkpt>
      <trkpt lat="42.6513110" lon="-8.2219230">
        <ele>475.7</ele>
        <time>2019-08-18T07:58:10Z</time>
      </trkpt>
      <trkpt lat="42.6513460" lon="-8.2219390">
        <ele>475.7</ele>
        <time>2019-08-18T07:58:11Z</time>
      </trkpt>
      <trkpt lat="42.6513810" lon="-8.2219550">
        <ele>475.8</ele>
        <time>2019-08-18T07:58:12Z</time>
      </trkpt>
      <trkpt lat="42.6514160" lon="-8.2219710">
        <ele>475.8</ele>
        <time>2019-08-18T07:58:13Z</time>
      </trkpt>
      <trkpt lat="42.6514510" lon="-8.2219880">
        <ele>475.9</ele>
        <time>2019-08-18T07:58:14Z</time>
      </trkpt>
      <trkpt lat="42.6514860" lon="-8.2220050">
        <ele>476.0</ele>
        <time>2019-08-18T07:58:15Z</time>
      </trkpt>
      <trkpt lat="42.6515210" lon="-8.2220220">
        <ele>476.0</ele>
        <time>2019-08-18T07:58:16Z</time>
      </trkpt>
      <trkpt lat="42.6515560" lon="-8.2220400">
        <ele>476.0</ele>
        <time>2019-08-18T07:58:17Z</time>
      </trkpt>
      <trkpt lat="42.6515910" lon="-8.2220580">
        <ele>476.0</ele>
        <time>2019-08-18T07:58:18Z</time>
      </trkpt>
      <trkpt lat="42.6516270" lon="-8.2220770">
        <ele>475.9</ele>
        <time>2019-08-18T07:58:19Z</time>
      </trkpt>
      <trkpt lat="42.6516620" lon="-8.2220960">
        <ele>475.9</ele>
        <time>2019-08-18T07:58:20Z</time>
      </trkpt>
      <trkpt lat="42.6516980" lon="-8.2221160">
        <ele>475.9</ele>
        <time>2019-08-18T07:58:21Z</time>
      </trkpt>
      <trkpt lat="42.6517340" lon="-8.2221370">
        <ele>475.9</ele>
        <time>2019-08-18T07:58:22Z</time>
      </trkpt>
      <trkpt lat="42.6517710" lon="-8.2221570">
        <ele>475.9</ele>
        <time>2019-08-18T07:58:23Z</time>
      </trkpt>
      <trkpt lat="42.6518080" lon="-8.2221790">
        <ele>475.9</ele>
        <time>2019-08-18T07:58:24Z</time>
      </trkpt>
      <trkpt lat="42.6518450" lon="-8.2222010">
        <ele>475.9</ele>
        <time>2019-08-18T07:58:25Z</time>
      </trkpt>
      <trkpt lat="42.6518830" lon="-8.2222240">
        <ele>475.8</ele>
        <time>2019-08-18T07:58:26Z</time>
      </trkpt>
      <trkpt lat="42.6519210" lon="-8.2222470">
        <ele>475.8</ele>
        <time>2019-08-18T07:58:27Z</time>
      </trkpt>
      <trkpt lat="42.6519590" lon="-8.2222710">
        <ele>475.8</ele>
        <time>2019-08-18T07:58:28Z</time>
      </trkpt>
      <trkpt lat="42.6519970" lon="-8.2222940">
        <ele>475.7</ele>
        <time>2019-08-18T07:58:29Z</time>
      </trkpt>
      <trkpt lat="42.6520350" lon="-8.2223160">
        <ele>475.7</ele>
        <time>2019-08-18T07:58:30Z</time>
      </trkpt>
      <trkpt lat="42.6520710" lon="-8.2223380">
        <ele>475.7</ele>
        <time>2019-08-18T07:58:31Z</time>
      </trkpt>
      <trkpt lat="42.6521050" lon="-8.2223600">
        <ele>475.6</ele>
        <time>2019-08-18T07:58:32Z</time>
      </trkpt>
      <trkpt lat="42.6521370" lon="-8.2223820">
        <ele>475.6</ele>
        <time>2019-08-18T07:58:33Z</time>
      </trkpt>
      <trkpt lat="42.6521670" lon="-8.2224040">
        <ele>475.6</ele>
        <time>2019-08-18T07:58:34Z</time>
      </trkpt>
      <trkpt lat="42.6521950" lon="-8.2224270">
        <ele>475.6</ele>
        <time>2019-08-18T07:58:35Z</time>
      </trkpt>
      <trkpt lat="42.6522240" lon="-8.2224510">
        <ele>475.6</ele>
        <time>2019-08-18T07:58:36Z</time>
      </trkpt>
      <trkpt lat="42.6522540" lon="-8.2224760">
        <ele>475.5</ele>
        <time>2019-08-18T07:58:37Z</time>
      </trkpt>
      <trkpt lat="42.6522880" lon="-8.2225030">
        <ele>475.5</ele>
        <time>2019-08-18T07:58:38Z</time>
      </trkpt>
      <trkpt lat="42.6523240" lon="-8.2225310">
        <ele>475.5</ele>
        <time>2019-08-18T07:58:39Z</time>
      </trkpt>
      <trkpt lat="42.6523870" lon="-8.2225790">
        <ele>475.4</ele>
        <time>2019-08-18T07:58:40Z</time>
      </trkpt>
      <trkpt lat="42.6524130" lon="-8.2226000">
        <ele>475.4</ele>
        <time>2019-08-18T07:58:41Z</time>
      </trkpt>
      <trkpt lat="42.6524380" lon="-8.2226200">
        <ele>475.4</ele>
        <time>2019-08-18T07:58:42Z</time>
      </trkpt>
      <trkpt lat="42.6524760" lon="-8.2226510">
        <ele>475.3</ele>
        <time>2019-08-18T07:58:43Z</time>
      </trkpt>
      <trkpt lat="42.6525140" lon="-8.2226840">
        <ele>475.3</ele>
        <time>2019-08-18T07:58:44Z</time>
      </trkpt>
      <trkpt lat="42.6525520" lon="-8.2227170">
        <ele>475.3</ele>
        <time>2019-08-18T07:58:45Z</time>
      </trkpt>
      <trkpt lat="42.6525910" lon="-8.2227510">
        <ele>475.3</ele>
        <time>2019-08-18T07:58:46Z</time>
      </trkpt>
      <trkpt lat="42.6526310" lon="-8.2227870">
        <ele>475.2</ele>
        <time>2019-08-18T07:58:47Z</time>
      </trkpt>
      <trkpt lat="42.6526710" lon="-8.2228230">
        <ele>475.2</ele>
        <time>2019-08-18T07:58:48Z</time>
      </trkpt>
      <trkpt lat="42.6527110" lon="-8.2228600">
        <ele>475.2</ele>
        <time>2019-08-18T07:58:49Z</time>
      </trkpt>
      <trkpt lat="42.6527530" lon="-8.2228970">
        <ele>475.1</ele>
        <time>2019-08-18T07:58:50Z</time>
      </trkpt>
      <trkpt lat="42.6527950" lon="-8.2229360">
        <ele>475.1</ele>
        <time>2019-08-18T07:58:51Z</time>
      </trkpt>
      <trkpt lat="42.6528370" lon="-8.2229760">
        <ele>475.1</ele>
        <time>2019-08-18T07:58:52Z</time>
      </trkpt>
      <trkpt lat="42.6528810" lon="-8.2230160">
        <ele>475.0</ele>
        <time>2019-08-18T07:58:53Z</time>
      </trkpt>
      <trkpt lat="42.6529260" lon="-8.2230580">
        <ele>475.0</ele>
        <time>2019-08-18T07:58:54Z</time>
      </trkpt>
      <trkpt lat="42.6529720" lon="-8.2231000">
        <ele>475.0</ele>
        <time>2019-08-18T07:58:55Z</time>
      </trkpt>
      <trkpt lat="42.6530190" lon="-8.2231430">
        <ele>474.9</ele>
        <time>2019-08-18T07:58:56Z</time>
      </trkpt>
      <trkpt lat="42.6530660" lon="-8.2231870">
        <ele>474.9</ele>
        <time>2019-08-18T07:58:57Z</time>
      </trkpt>
      <trkpt lat="42.6531150" lon="-8.2232310">
        <ele>474.9</ele>
        <time>2019-08-18T07:58:58Z</time>
      </trkpt>
      <trkpt lat="42.6531630" lon="-8.2232750">
        <ele>474.8</ele>
        <time>2019-08-18T07:58:59Z</time>
      </trkpt>
      <trkpt lat="42.6532130" lon="-8.2233200">
        <ele>474.8</ele>
        <time>2019-08-18T07:59:00Z</time>
      </trkpt>
      <trkpt lat="42.6532630" lon="-8.2233650">
        <ele>474.7</ele>
        <time>2019-08-18T07:59:01Z</time>
      </trkpt>
      <trkpt lat="42.6533130" lon="-8.2234100">
        <ele>474.7</ele>
        <time>2019-08-18T07:59:02Z</time>
      </trkpt>
      <trkpt lat="42.6533630" lon="-8.2234550">
        <ele>474.7</ele>
        <time>2019-08-18T07:59:03Z</time>
      </trkpt>
      <trkpt lat="42.6534140" lon="-8.2234990">
        <ele>474.6</ele>
        <time>2019-08-18T07:59:04Z</time>
      </trkpt>
      <trkpt lat="42.6534650" lon="-8.2235440">
        <ele>474.6</ele>
        <time>2019-08-18T07:59:05Z</time>
      </trkpt>
      <trkpt lat="42.6535160" lon="-8.2235880">
        <ele>474.5</ele>
        <time>2019-08-18T07:59:06Z</time>
      </trkpt>
      <trkpt lat="42.6535680" lon="-8.2236330">
        <ele>474.5</ele>
        <time>2019-08-18T07:59:07Z</time>
      </trkpt>
      <trkpt lat="42.6536210" lon="-8.2236780">
        <ele>474.5</ele>
        <time>2019-08-18T07:59:08Z</time>
      </trkpt>
      <trkpt lat="42.6536740" lon="-8.2237230">
        <ele>474.4</ele>
        <time>2019-08-18T07:59:09Z</time>
      </trkpt>
      <trkpt lat="42.6537280" lon="-8.2237680">
        <ele>474.4</ele>
        <time>2019-08-18T07:59:10Z</time>
      </trkpt>
      <trkpt lat="42.6537830" lon="-8.2238130">
        <ele>474.3</ele>
        <time>2019-08-18T07:59:11Z</time>
      </trkpt>
      <trkpt lat="42.6538370" lon="-8.2238590">
        <ele>474.3</ele>
        <time>2019-08-18T07:59:12Z</time>
      </trkpt>
      <trkpt lat="42.6538910" lon="-8.2239050">
        <ele>474.3</ele>
        <time>2019-08-18T07:59:13Z</time>
      </trkpt>
      <trkpt lat="42.6539450" lon="-8.2239520">
        <ele>474.2</ele>
        <time>2019-08-18T07:59:14Z</time>
      </trkpt>
      <trkpt lat="42.6539990" lon="-8.2239990">
        <ele>474.2</ele>
        <time>2019-08-18T07:59:15Z</time>
      </trkpt>
      <trkpt lat="42.6540520" lon="-8.2240450">
        <ele>474.2</ele>
        <time>2019-08-18T07:59:16Z</time>
      </trkpt>
      <trkpt lat="42.6541060" lon="-8.2240890">
        <ele>474.1</ele>
        <time>2019-08-18T07:59:17Z</time>
      </trkpt>
      <trkpt lat="42.6541610" lon="-8.2241330">
        <ele>474.1</ele>
        <time>2019-08-18T07:59:18Z</time>
      </trkpt>
      <trkpt lat="42.6542150" lon="-8.2241770">
        <ele>474.1</ele>
        <time>2019-08-18T07:59:19Z</time>
      </trkpt>
      <trkpt lat="42.6542700" lon="-8.2242200">
        <ele>474.1</ele>
        <time>2019-08-18T07:59:20Z</time>
      </trkpt>
      <trkpt lat="42.6543250" lon="-8.2242640">
        <ele>474.0</ele>
        <time>2019-08-18T07:59:21Z</time>
      </trkpt>
      <trkpt lat="42.6543800" lon="-8.2243070">
        <ele>474.0</ele>
        <time>2019-08-18T07:59:22Z</time>
      </trkpt>
      <trkpt lat="42.6544350" lon="-8.2243510">
        <ele>474.0</ele>
        <time>2019-08-18T07:59:23Z</time>
      </trkpt>
      <trkpt lat="42.6544890" lon="-8.2243940">
        <ele>474.0</ele>
        <time>2019-08-18T07:59:24Z</time>
      </trkpt>
      <trkpt lat="42.6545430" lon="-8.2244370">
        <ele>474.0</ele>
        <time>2019-08-18T07:59:25Z</time>
      </trkpt>
      <trkpt lat="42.6545970" lon="-8.2244790">
        <ele>473.9</ele>
        <time>2019-08-18T07:59:26Z</time>
      </trkpt>
      <trkpt lat="42.6546510" lon="-8.2245210">
        <ele>473.9</ele>
        <time>2019-08-18T07:59:27Z</time>
      </trkpt>
      <trkpt lat="42.6547040" lon="-8.2245620">
        <ele>473.9</ele>
        <time>2019-08-18T07:59:28Z</time>
      </trkpt>
      <trkpt lat="42.6547570" lon="-8.2246030">
        <ele>473.9</ele>
        <time>2019-08-18T07:59:29Z</time>
      </trkpt>
      <trkpt lat="42.6548100" lon="-8.2246430">
        <ele>473.9</ele>
        <time>2019-08-18T07:59:30Z</time>
      </trkpt>
      <trkpt lat="42.6548620" lon="-8.2246830">
        <ele>473.8</ele>
        <time>2019-08-18T07:59:31Z</time>
      </trkpt>
      <trkpt lat="42.6549140" lon="-8.2247230">
        <ele>473.8</ele>
        <time>2019-08-18T07:59:32Z</time>
      </trkpt>
      <trkpt lat="42.6549650" lon="-8.2247620">
        <ele>473.8</ele>
        <time>2019-08-18T07:59:33Z</time>
      </trkpt>
      <trkpt lat="42.6550170" lon="-8.2248010">
        <ele>473.8</ele>
        <time>2019-08-18T07:59:34Z</time>
      </trkpt>
      <trkpt lat="42.6550670" lon="-8.2248400">
        <ele>473.8</ele>
        <time>2019-08-18T07:59:35Z</time>
      </trkpt>
      <trkpt lat="42.6551180" lon="-8.2248780">
        <ele>473.8</ele>
        <time>2019-08-18T07:59:36Z</time>
      </trkpt>
      <trkpt lat="42.6551680" lon="-8.2249160">
        <ele>473.8</ele>
        <time>2019-08-18T07:59:37Z</time>
      </trkpt>
      <trkpt lat="42.6552180" lon="-8.2249530">
        <ele>473.8</ele>
        <time>2019-08-18T07:59:38Z</time>
      </trkpt>
      <trkpt lat="42.6552670" lon="-8.2249910">
        <ele>473.8</ele>
        <time>2019-08-18T07:59:39Z</time>
      </trkpt>
      <trkpt lat="42.6553160" lon="-8.2250280">
        <ele>473.8</ele>
        <time>2019-08-18T07:59:40Z</time>
      </trkpt>
      <trkpt lat="42.6553640" lon="-8.2250640">
        <ele>473.9</ele>
        <time>2019-08-18T07:59:41Z</time>
      </trkpt>
      <trkpt lat="42.6554130" lon="-8.2251000">
        <ele>473.9</ele>
        <time>2019-08-18T07:59:42Z</time>
      </trkpt>
      <trkpt lat="42.6554600" lon="-8.2251360">
        <ele>473.9</ele>
        <time>2019-08-18T07:59:43Z</time>
      </trkpt>
      <trkpt lat="42.6555080" lon="-8.2251720">
        <ele>474.0</ele>
        <time>2019-08-18T07:59:44Z</time>
      </trkpt>
      <trkpt lat="42.6555550" lon="-8.2252070">
        <ele>474.0</ele>
        <time>2019-08-18T07:59:45Z</time>
      </trkpt>
      <trkpt lat="42.6556010" lon="-8.2252420">
        <ele>474.1</ele>
        <time>2019-08-18T07:59:46Z</time>
      </trkpt>
      <trkpt lat="42.6556480" lon="-8.2252770">
        <ele>474.1</ele>
        <time>2019-08-18T07:59:47Z</time>
      </trkpt>
      <trkpt lat="42.6556940" lon="-8.2253110">
        <ele>474.2</ele>
        <time>2019-08-18T07:59:48Z</time>
      </trkpt>
      <trkpt lat="42.6557400" lon="-8.2253450">
        <ele>474.2</ele>
        <time>2019-08-18T07:59:49Z</time>
      </trkpt>
      <trkpt lat="42.6557850" lon="-8.2253790">
        <ele>474.3</ele>
        <time>2019-08-18T07:59:50Z</time>
      </trkpt>
      <trkpt lat="42.6558300" lon="-8.2254120">
        <ele>474.3</ele>
        <time>2019-08-18T07:59:51Z</time>
      </trkpt>
      <trkpt lat="42.6558750" lon="-8.2254450">
        <ele>474.4</ele>
        <time>2019-08-18T07:59:52Z</time>
      </trkpt>
      <trkpt lat="42.6559200" lon="-8.2254780">
        <ele>474.4</ele>
        <time>2019-08-18T07:59:53Z</time>
      </trkpt>
      <trkpt lat="42.6559640" lon="-8.2255100">
        <ele>474.4</ele>
        <time>2019-08-18T07:59:54Z</time>
      </trkpt>
      <trkpt lat="42.6560090" lon="-8.2255420">
        <ele>474.5</ele>
        <time>2019-08-18T07:59:55Z</time>
      </trkpt>
      <trkpt lat="42.6560530" lon="-8.2255740">
        <ele>474.5</ele>
        <time>2019-08-18T07:59:56Z</time>
      </trkpt>
      <trkpt lat="42.6560970" lon="-8.2256060">
        <ele>474.5</ele>
        <time>2019-08-18T07:59:57Z</time>
      </trkpt>
      <trkpt lat="42.6561410" lon="-8.2256380">
        <ele>474.5</ele>
        <time>2019-08-18T07:59:58Z</time>
      </trkpt>
      <trkpt lat="42.6561850" lon="-8.2256700">
        <ele>474.5</ele>
        <time>2019-08-18T07:59:59Z</time>
      </trkpt>
      <trkpt lat="42.6562290" lon="-8.2257020">
        <ele>474.5</ele>
        <time>2019-08-18T08:00:00Z</time>
      </trkpt>
      <trkpt lat="42.6562730" lon="-8.2257350">
        <ele>474.5</ele>
        <time>2019-08-18T08:00:01Z</time>
      </trkpt>
      <trkpt lat="42.6563170" lon="-8.2257670">
        <ele>474.5</ele>
        <time>2019-08-18T08:00:02Z</time>
      </trkpt>
      <trkpt lat="42.6563610" lon="-8.2258000">
        <ele>474.5</ele>
        <time>2019-08-18T08:00:03Z</time>
      </trkpt>
      <trkpt lat="42.6564060" lon="-8.2258330">
        <ele>474.5</ele>
        <time>2019-08-18T08:00:04Z</time>
      </trkpt>
      <trkpt lat="42.6564510" lon="-8.2258660">
        <ele>474.5</ele>
        <time>2019-08-18T08:00:05Z</time>
      </trkpt>
      <trkpt lat="42.6564960" lon="-8.2259000">
        <ele>474.5</ele>
        <time>2019-08-18T08:00:06Z</time>
      </trkpt>
      <trkpt lat="42.6565410" lon="-8.2259350">
        <ele>474.5</ele>
        <time>2019-08-18T08:00:07Z</time>
      </trkpt>
      <trkpt lat="42.6565870" lon="-8.2259700">
        <ele>474.5</ele>
        <time>2019-08-18T08:00:08Z</time>
      </trkpt>
      <trkpt lat="42.6566330" lon="-8.2260050">
        <ele>474.5</ele>
        <time>2019-08-18T08:00:09Z</time>
      </trkpt>
      <trkpt lat="42.6566790" lon="-8.2260410">
        <ele>474.5</ele>
        <time>2019-08-18T08:00:10Z</time>
      </trkpt>
      <trkpt lat="42.6567260" lon="-8.2260780">
        <ele>474.4</ele>
        <time>2019-08-18T08:00:11Z</time>
      </trkpt>
      <trkpt lat="42.6567730" lon="-8.2261140">
        <ele>474.4</ele>
        <time>2019-08-18T08:00:12Z</time>
      </trkpt>
      <trkpt lat="42.6568190" lon="-8.2261510">
        <ele>474.4</ele>
        <time>2019-08-18T08:00:13Z</time>
      </trkpt>
      <trkpt lat="42.6568660" lon="-8.2261880">
        <ele>474.4</ele>
        <time>2019-08-18T08:00:14Z</time>
      </trkpt>
      <trkpt lat="42.6569130" lon="-8.2262240">
        <ele>474.4</ele>
        <time>2019-08-18T08:00:15Z</time>
      </trkpt>
      <trkpt lat="42.6569600" lon="-8.2262610">
        <ele>474.4</ele>
        <time>2019-08-18T08:00:16Z</time>
      </trkpt>
      <trkpt lat="42.6570070" lon="-8.2262970">
        <ele>474.4</ele>
        <time>2019-08-18T08:00:17Z</time>
      </trkpt>
      <trkpt lat="42.6570530" lon="-8.2263330">
        <ele>474.3</ele>
        <time>2019-08-18T08:00:18Z</time>
      </trkpt>
      <trkpt lat="42.6570990" lon="-8.2263690">
        <ele>474.3</ele>
        <time>2019-08-18T08:00:19Z</time>
      </trkpt>
      <trkpt lat="42.6571440" lon="-8.2264040">
        <ele>474.3</ele>
        <time>2019-08-18T08:00:20Z</time>
      </trkpt>
      <trkpt lat="42.6571890" lon="-8.2264380">
        <ele>474.3</ele>
        <time>2019-08-18T08:00:21Z</time>
      </trkpt>
      <trkpt lat="42.6572330" lon="-8.2264710">
        <ele>474.3</ele>
        <time>2019-08-18T08:00:22Z</time>
      </trkpt>
      <trkpt lat="42.6572750" lon="-8.2265040">
        <ele>474.3</ele>
        <time>2019-08-18T08:00:23Z</time>
      </trkpt>
      <trkpt lat="42.6573180" lon="-8.2265370">
        <ele>474.2</ele>
        <time>2019-08-18T08:00:24Z</time>
      </trkpt>
      <trkpt lat="42.6573610" lon="-8.2265690">
        <ele>474.2</ele>
        <time>2019-08-18T08:00:25Z</time>
      </trkpt>
      <trkpt lat="42.6574050" lon="-8.2266030">
        <ele>474.2</ele>
        <time>2019-08-18T08:00:26Z</time>
      </trkpt>
      <trkpt lat="42.6574510" lon="-8.2266370">
        <ele>474.2</ele>
        <time>2019-08-18T08:00:27Z</time>
      </trkpt>
      <trkpt lat="42.6574980" lon="-8.2266720">
        <ele>474.2</ele>
        <time>2019-08-18T08:00:28Z</time>
      </trkpt>
      <trkpt lat="42.6575460" lon="-8.2267090">
        <ele>474.2</ele>
        <time>2019-08-18T08:00:29Z</time>
      </trkpt>
      <trkpt lat="42.6575940" lon="-8.2267450">
        <ele>474.1</ele>
        <time>2019-08-18T08:00:30Z</time>
      </trkpt>
      <trkpt lat="42.6576440" lon="-8.2267830">
        <ele>474.1</ele>
        <time>2019-08-18T08:00:31Z</time>
      </trkpt>
      <trkpt lat="42.6576930" lon="-8.2268200">
        <ele>474.1</ele>
        <time>2019-08-18T08:00:32Z</time>
      </trkpt>
      <trkpt lat="42.6577440" lon="-8.2268580">
        <ele>474.1</ele>
        <time>2019-08-18T08:00:33Z</time>
      </trkpt>
      <trkpt lat="42.6577950" lon="-8.2268970">
        <ele>474.0</ele>
        <time>2019-08-18T08:00:34Z</time>
      </trkpt>
      <trkpt lat="42.6578460" lon="-8.2269360">
        <ele>474.0</ele>
        <time>2019-08-18T08:00:35Z</time>
      </trkpt>
      <trkpt lat="42.6578980" lon="-8.2269760">
        <ele>474.0</ele>
        <time>2019-08-18T08:00:36Z</time>
      </trkpt>
      <trkpt lat="42.6579510" lon="-8.2270160">
        <ele>474.0</ele>
        <time>2019-08-18T08:00:37Z</time>
      </trkpt>
      <trkpt lat="42.6580050" lon="-8.2270570">
        <ele>473.9</ele>
        <time>2019-08-18T08:00:38Z</time>
      </trkpt>
      <trkpt lat="42.6580590" lon="-8.2270990">
        <ele>473.9</ele>
        <time>2019-08-18T08:00:39Z</time>
      </trkpt>
      <trkpt lat="42.6581140" lon="-8.2271410">
        <ele>473.9</ele>
        <time>2019-08-18T08:00:40Z</time>
      </trkpt>
      <trkpt lat="42.6581700" lon="-8.2271840">
        <ele>473.8</ele>
        <time>2019-08-18T08:00:41Z</time>
      </trkpt>
      <trkpt lat="42.6582250" lon="-8.2272260">
        <ele>473.8</ele>
        <time>2019-08-18T08:00:42Z</time>
      </trkpt>
      <trkpt lat="42.6582810" lon="-8.2272700">
        <ele>473.8</ele>
        <time>2019-08-18T08:00:43Z</time>
      </trkpt>
      <trkpt lat="42.6583370" lon="-8.2273130">
        <ele>473.8</ele>
        <time>2019-08-18T08:00:44Z</time>
      </trkpt>
      <trkpt lat="42.6583930" lon="-8.2273560">
        <ele>473.7</ele>
        <time>2019-08-18T08:00:45Z</time>
      </trkpt>
      <trkpt lat="42.6584480" lon="-8.2273990">
        <ele>473.7</ele>
        <time>2019-08-18T08:00:46Z</time>
      </trkpt>
      <trkpt lat="42.6585040" lon="-8.2274420">
        <ele>473.7</ele>
        <time>2019-08-18T08:00:47Z</time>
      </trkpt>
      <trkpt lat="42.6585590" lon="-8.2274840">
        <ele>473.6</ele>
        <time>2019-08-18T08:00:48Z</time>
      </trkpt>
      <trkpt lat="42.6586130" lon="-8.2275260">
        <ele>473.6</ele>
        <time>2019-08-18T08:00:49Z</time>
      </trkpt>
      <trkpt lat="42.6586670" lon="-8.2275670">
        <ele>473.6</ele>
        <time>2019-08-18T08:00:50Z</time>
      </trkpt>
      <trkpt lat="42.6587200" lon="-8.2276080">
        <ele>473.5</ele>
        <time>2019-08-18T08:00:51Z</time>
      </trkpt>
      <trkpt lat="42.6587720" lon="-8.2276480">
        <ele>473.5</ele>
        <time>2019-08-18T08:00:52Z</time>
      </trkpt>
      <trkpt lat="42.6588230" lon="-8.2276880">
        <ele>473.5</ele>
        <time>2019-08-18T08:00:53Z</time>
      </trkpt>
      <trkpt lat="42.6588740" lon="-8.2277260">
        <ele>473.4</ele>
        <time>2019-08-18T08:00:54Z</time>
      </trkpt>
      <trkpt lat="42.6589240" lon="-8.2277650">
        <ele>473.4</ele>
        <time>2019-08-18T08:00:55Z</time>
      </trkpt>
      <trkpt lat="42.6589740" lon="-8.2278030">
        <ele>473.4</ele>
        <time>2019-08-18T08:00:56Z</time>
      </trkpt>
      <trkpt lat="42.6590240" lon="-8.2278420">
        <ele>473.3</ele>
        <time>2019-08-18T08:00:57Z</time>
      </trkpt>
      <trkpt lat="42.6590740" lon="-8.2278800">
        <ele>473.3</ele>
        <time>2019-08-18T08:00:58Z</time>
      </trkpt>
      <trkpt lat="42.6591230" lon="-8.2279180">
        <ele>473.3</ele>
        <time>2019-08-18T08:00:59Z</time>
      </trkpt>
      <trkpt lat="42.6591730" lon="-8.2279570">
        <ele>473.3</ele>
        <time>2019-08-18T08:01:00Z</time>
      </trkpt>
      <trkpt lat="42.6592230" lon="-8.2279970">
        <ele>473.2</ele>
        <time>2019-08-18T08:01:01Z</time>
      </trkpt>
      <trkpt lat="42.6592730" lon="-8.2280370">
        <ele>473.2</ele>
        <time>2019-08-18T08:01:02Z</time>
      </trkpt>
      <trkpt lat="42.6593240" lon="-8.2280770">
        <ele>473.2</ele>
        <time>2019-08-18T08:01:03Z</time>
      </trkpt>
      <trkpt lat="42.6593760" lon="-8.2281170">
        <ele>473.1</ele>
        <time>2019-08-18T08:01:04Z</time>
      </trkpt>
      <trkpt lat="42.6594270" lon="-8.2281580">
        <ele>473.1</ele>
        <time>2019-08-18T08:01:05Z</time>
      </trkpt>
      <trkpt lat="42.6594800" lon="-8.2282000">
        <ele>473.0</ele>
        <time>2019-08-18T08:01:06Z</time>
      </trkpt>
      <trkpt lat="42.6595330" lon="-8.2282420">
        <ele>473.0</ele>
        <time>2019-08-18T08:01:07Z</time>
      </trkpt>
      <trkpt lat="42.6595870" lon="-8.2282850">
        <ele>473.0</ele>
        <time>2019-08-18T08:01:08Z</time>
      </trkpt>
      <trkpt lat="42.6596410" lon="-8.2283270">
        <ele>472.9</ele>
        <time>2019-08-18T08:01:09Z</time>
      </trkpt>
      <trkpt lat="42.6596950" lon="-8.2283700">
        <ele>472.9</ele>
        <time>2019-08-18T08:01:10Z</time>
      </trkpt>
      <trkpt lat="42.6597500" lon="-8.2284130">
        <ele>472.9</ele>
        <time>2019-08-18T08:01:11Z</time>
      </trkpt>
      <trkpt lat="42.6598050" lon="-8.2284560">
        <ele>472.9</ele>
        <time>2019-08-18T08:01:12Z</time>
      </trkpt>
      <trkpt lat="42.6598590" lon="-8.2284990">
        <ele>472.8</ele>
        <time>2019-08-18T08:01:13Z</time>
      </trkpt>
      <trkpt lat="42.6599140" lon="-8.2285420">
        <ele>472.8</ele>
        <time>2019-08-18T08:01:14Z</time>
      </trkpt>
      <trkpt lat="42.6599680" lon="-8.2285850">
        <ele>472.8</ele>
        <time>2019-08-18T08:01:15Z</time>
      </trkpt>
      <trkpt lat="42.6600220" lon="-8.2286270">
        <ele>472.8</ele>
        <time>2019-08-18T08:01:16Z</time>
      </trkpt>
      <trkpt lat="42.6600760" lon="-8.2286700">
        <ele>472.8</ele>
        <time>2019-08-18T08:01:17Z</time>
      </trkpt>
      <trkpt lat="42.6601300" lon="-8.2287120">
        <ele>472.7</ele>
        <time>2019-08-18T08:01:18Z</time>
      </trkpt>
      <trkpt lat="42.6601840" lon="-8.2287540">
        <ele>472.7</ele>
        <time>2019-08-18T08:01:19Z</time>
      </trkpt>
      <trkpt lat="42.6602380" lon="-8.2287960">
        <ele>472.7</ele>
        <time>2019-08-18T08:01:20Z</time>
      </trkpt>
      <trkpt lat="42.6602920" lon="-8.2288380">
        <ele>472.7</ele>
        <time>2019-08-18T08:01:21Z</time>
      </trkpt>
      <trkpt lat="42.6603460" lon="-8.2288800">
        <ele>472.7</ele>
        <time>2019-08-18T08:01:22Z</time>
      </trkpt>
      <trkpt lat="42.6604000" lon="-8.2289220">
        <ele>472.7</ele>
        <time>2019-08-18T08:01:23Z</time>
      </trkpt>
      <trkpt lat="42.6604540" lon="-8.2289640">
        <ele>472.6</ele>
        <time>2019-08-18T08:01:24Z</time>
      </trkpt>
      <trkpt lat="42.6605090" lon="-8.2290070">
        <ele>472.6</ele>
        <time>2019-08-18T08:01:25Z</time>
      </trkpt>
      <trkpt lat="42.6605630" lon="-8.2290490">
        <ele>472.6</ele>
        <time>2019-08-18T08:01:26Z</time>
      </trkpt>
      <trkpt lat="42.6606180" lon="-8.2290920">
        <ele>472.5</ele>
        <time>2019-08-18T08:01:27Z</time>
      </trkpt>
      <trkpt lat="42.6606740" lon="-8.2291350">
        <ele>472.5</ele>
        <time>2019-08-18T08:01:28Z</time>
      </trkpt>
      <trkpt lat="42.6607300" lon="-8.2291790">
        <ele>472.5</ele>
        <time>2019-08-18T08:01:29Z</time>
      </trkpt>
      <trkpt lat="42.6607860" lon="-8.2292230">
        <ele>472.4</ele>
        <time>2019-08-18T08:01:30Z</time>
      </trkpt>
      <trkpt lat="42.6608420" lon="-8.2292660">
        <ele>472.4</ele>
        <time>2019-08-18T08:01:31Z</time>
      </trkpt>
      <trkpt lat="42.6608980" lon="-8.2293100">
        <ele>472.3</ele>
        <time>2019-08-18T08:01:32Z</time>
      </trkpt>
      <trkpt lat="42.6609530" lon="-8.2293530">
        <ele>472.3</ele>
        <time>2019-08-18T08:01:33Z</time>
      </trkpt>
      <trkpt lat="42.6610080" lon="-8.2293960">
        <ele>472.2</ele>
        <time>2019-08-18T08:01:34Z</time>
      </trkpt>
      <trkpt lat="42.6610630" lon="-8.2294380">
        <ele>472.2</ele>
        <time>2019-08-18T08:01:35Z</time>
      </trkpt>
      <trkpt lat="42.6611170" lon="-8.2294790">
        <ele>472.2</ele>
        <time>2019-08-18T08:01:36Z</time>
      </trkpt>
      <trkpt lat="42.6611690" lon="-8.2295190">
        <ele>472.1</ele>
        <time>2019-08-18T08:01:37Z</time>
      </trkpt>
      <trkpt lat="42.6612210" lon="-8.2295580">
        <ele>472.1</ele>
        <time>2019-08-18T08:01:38Z</time>
      </trkpt>
      <trkpt lat="42.6612730" lon="-8.2295970">
        <ele>472.0</ele>
        <time>2019-08-18T08:01:39Z</time>
      </trkpt>
      <trkpt lat="42.6613230" lon="-8.2296340">
        <ele>472.0</ele>
        <time>2019-08-18T08:01:40Z</time>
      </trkpt>
      <trkpt lat="42.6613730" lon="-8.2296720">
        <ele>472.0</ele>
        <time>2019-08-18T08:01:41Z</time>
      </trkpt>
      <trkpt lat="42.6614230" lon="-8.2297080">
        <ele>472.0</ele>
        <time>2019-08-18T08:01:42Z</time>
      </trkpt>
      <trkpt lat="42.6614720" lon="-8.2297440">
        <ele>471.9</ele>
        <time>2019-08-18T08:01:43Z</time>
      </trkpt>
      <trkpt lat="42.6615200" lon="-8.2297800">
        <ele>471.9</ele>
        <time>2019-08-18T08:01:44Z</time>
      </trkpt>
      <trkpt lat="42.6615680" lon="-8.2298150">
        <ele>471.9</ele>
        <time>2019-08-18T08:01:45Z</time>
      </trkpt>
      <trkpt lat="42.6616150" lon="-8.2298500">
        <ele>471.9</ele>
        <time>2019-08-18T08:01:46Z</time>
      </trkpt>
      <trkpt lat="42.6616630" lon="-8.2298840">
        <ele>471.9</ele>
        <time>2019-08-18T08:01:47Z</time>
      </trkpt>
      <trkpt lat="42.6617090" lon="-8.2299180">
        <ele>471.9</ele>
        <time>2019-08-18T08:01:48Z</time>
      </trkpt>
      <trkpt lat="42.6617560" lon="-8.2299520">
        <ele>471.9</ele>
        <time>2019-08-18T08:01:49Z</time>
      </trkpt>
      <trkpt lat="42.6618020" lon="-8.2299860">
        <ele>471.9</ele>
        <time>2019-08-18T08:01:50Z</time>
      </trkpt>
      <trkpt lat="42.6618480" lon="-8.2300190">
        <ele>472.0</ele>
        <time>2019-08-18T08:01:51Z</time>
      </trkpt>
      <trkpt lat="42.6618950" lon="-8.2300520">
        <ele>472.0</ele>
        <time>2019-08-18T08:01:52Z</time>
      </trkpt>
      <trkpt lat="42.6619410" lon="-8.2300830">
        <ele>472.0</ele>
        <time>2019-08-18T08:01:53Z</time>
      </trkpt>
      <trkpt lat="42.6619870" lon="-8.2301130">
        <ele>472.0</ele>
        <time>2019-08-18T08:01:54Z</time>
      </trkpt>
      <trkpt lat="42.6620330" lon="-8.2301420">
        <ele>472.0</ele>
        <time>2019-08-18T08:01:55Z</time>
      </trkpt>
      <trkpt lat="42.6620790" lon="-8.2301690">
        <ele>472.1</ele>
        <time>2019-08-18T08:01:56Z</time>
      </trkpt>
      <trkpt lat="42.6621260" lon="-8.2301940">
        <ele>472.1</ele>
        <time>2019-08-18T08:01:57Z</time>
      </trkpt>
      <trkpt lat="42.6621730" lon="-8.2302170">
        <ele>472.1</ele>
        <time>2019-08-18T08:01:58Z</time>
      </trkpt>
      <trkpt lat="42.6622200" lon="-8.2302380">
        <ele>472.2</ele>
        <time>2019-08-18T08:01:59Z</time>
      </trkpt>
      <trkpt lat="42.6622670" lon="-8.2302570">
        <ele>472.2</ele>
        <time>2019-08-18T08:02:00Z</time>
      </trkpt>
      <trkpt lat="42.6623150" lon="-8.2302750">
        <ele>472.3</ele>
        <time>2019-08-18T08:02:01Z</time>
      </trkpt>
      <trkpt lat="42.6623620" lon="-8.2302910">
        <ele>472.3</ele>
        <time>2019-08-18T08:02:02Z</time>
      </trkpt>
      <trkpt lat="42.6624100" lon="-8.2303050">
        <ele>472.4</ele>
        <time>2019-08-18T08:02:03Z</time>
      </trkpt>
      <trkpt lat="42.6624570" lon="-8.2303190">
        <ele>472.5</ele>
        <time>2019-08-18T08:02:04Z</time>
      </trkpt>
      <trkpt lat="42.6625040" lon="-8.2303320">
        <ele>472.5</ele>
        <time>2019-08-18T08:02:05Z</time>
      </trkpt>
      <trkpt lat="42.6625520" lon="-8.2303450">
        <ele>472.6</ele>
        <time>2019-08-18T08:02:06Z</time>
      </trkpt>
      <trkpt lat="42.6625990" lon="-8.2303570">
        <ele>472.7</ele>
        <time>2019-08-18T08:02:07Z</time>
      </trkpt>
      <trkpt lat="42.6626460" lon="-8.2303680">
        <ele>472.8</ele>
        <time>2019-08-18T08:02:08Z</time>
      </trkpt>
      <trkpt lat="42.6626930" lon="-8.2303790">
        <ele>472.9</ele>
        <time>2019-08-18T08:02:09Z</time>
      </trkpt>
      <trkpt lat="42.6627390" lon="-8.2303890">
        <ele>473.0</ele>
        <time>2019-08-18T08:02:10Z</time>
      </trkpt>
      <trkpt lat="42.6627860" lon="-8.2303990">
        <ele>473.1</ele>
        <time>2019-08-18T08:02:11Z</time>
      </trkpt>
      <trkpt lat="42.6628330" lon="-8.2304080">
        <ele>473.2</ele>
        <time>2019-08-18T08:02:12Z</time>
      </trkpt>
      <trkpt lat="42.6628800" lon="-8.2304170">
        <ele>473.3</ele>
        <time>2019-08-18T08:02:13Z</time>
      </trkpt>
      <trkpt lat="42.6629270" lon="-8.2304260">
        <ele>473.4</ele>
        <time>2019-08-18T08:02:14Z</time>
      </trkpt>
      <trkpt lat="42.6629740" lon="-8.2304350">
        <ele>473.6</ele>
        <time>2019-08-18T08:02:15Z</time>
      </trkpt>
      <trkpt lat="42.6630210" lon="-8.2304430">
        <ele>473.7</ele>
        <time>2019-08-18T08:02:16Z</time>
      </trkpt>
      <trkpt lat="42.6630690" lon="-8.2304520">
        <ele>473.8</ele>
        <time>2019-08-18T08:02:17Z</time>
      </trkpt>
      <trkpt lat="42.6631160" lon="-8.2304600">
        <ele>474.0</ele>
        <time>2019-08-18T08:02:18Z</time>
      </trkpt>
      <trkpt lat="42.6631640" lon="-8.2304690">
        <ele>474.1</ele>
        <time>2019-08-18T08:02:19Z</time>
      </trkpt>
      <trkpt lat="42.6632120" lon="-8.2304770">
        <ele>474.2</ele>
        <time>2019-08-18T08:02:20Z</time>
      </trkpt>
      <trkpt lat="42.6632600" lon="-8.2304860">
        <ele>474.4</ele>
        <time>2019-08-18T08:02:21Z</time>
      </trkpt>
      <trkpt lat="42.6633080" lon="-8.2304940">
        <ele>474.5</ele>
        <time>2019-08-18T08:02:22Z</time>
      </trkpt>
      <trkpt lat="42.6633560" lon="-8.2305030">
        <ele>474.6</ele>
        <time>2019-08-18T08:02:23Z</time>
      </trkpt>
      <trkpt lat="42.6634050" lon="-8.2305110">
        <ele>474.7</ele>
        <time>2019-08-18T08:02:24Z</time>
      </trkpt>
      <trkpt lat="42.6634530" lon="-8.2305200">
        <ele>474.8</ele>
        <time>2019-08-18T08:02:25Z</time>
      </trkpt>
      <trkpt lat="42.6635020" lon="-8.2305290">
        <ele>474.9</ele>
        <time>2019-08-18T08:02:26Z</time>
      </trkpt>
      <trkpt lat="42.6635500" lon="-8.2305370">
        <ele>475.0</ele>
        <time>2019-08-18T08:02:27Z</time>
      </trkpt>
      <trkpt lat="42.6635990" lon="-8.2305460">
        <ele>475.1</ele>
        <time>2019-08-18T08:02:28Z</time>
      </trkpt>
      <trkpt lat="42.6636470" lon="-8.2305540">
        <ele>475.2</ele>
        <time>2019-08-18T08:02:29Z</time>
      </trkpt>
      <trkpt lat="42.6636950" lon="-8.2305620">
        <ele>475.2</ele>
        <time>2019-08-18T08:02:30Z</time>
      </trkpt>
      <trkpt lat="42.6637430" lon="-8.2305700">
        <ele>475.3</ele>
        <time>2019-08-18T08:02:31Z</time>
      </trkpt>
      <trkpt lat="42.6637900" lon="-8.2305780">
        <ele>475.4</ele>
        <time>2019-08-18T08:02:32Z</time>
      </trkpt>
      <trkpt lat="42.6638370" lon="-8.2305840">
        <ele>475.4</ele>
        <time>2019-08-18T08:02:33Z</time>
      </trkpt>
      <trkpt lat="42.6638820" lon="-8.2305900">
        <ele>475.5</ele>
        <time>2019-08-18T08:02:34Z</time>
      </trkpt>
      <trkpt lat="42.6639270" lon="-8.2305960">
        <ele>475.6</ele>
        <time>2019-08-18T08:02:35Z</time>
      </trkpt>
      <trkpt lat="42.6639710" lon="-8.2306010">
        <ele>475.6</ele>
        <time>2019-08-18T08:02:36Z</time>
      </trkpt>
      <trkpt lat="42.6640140" lon="-8.2306050">
        <ele>475.7</ele>
        <time>2019-08-18T08:02:37Z</time>
      </trkpt>
      <trkpt lat="42.6640560" lon="-8.2306090">
        <ele>475.7</ele>
        <time>2019-08-18T08:02:38Z</time>
      </trkpt>
      <trkpt lat="42.6640970" lon="-8.2306130">
        <ele>475.8</ele>
        <time>2019-08-18T08:02:39Z</time>
      </trkpt>
      <trkpt lat="42.6641370" lon="-8.2306170">
        <ele>475.9</ele>
        <time>2019-08-18T08:02:40Z</time>
      </trkpt>
      <trkpt lat="42.6641760" lon="-8.2306210">
        <ele>475.9</ele>
        <time>2019-08-18T08:02:41Z</time>
      </trkpt>
      <trkpt lat="42.6642140" lon="-8.2306250">
        <ele>476.0</ele>
        <time>2019-08-18T08:02:42Z</time>
      </trkpt>
      <trkpt lat="42.6642510" lon="-8.2306290">
        <ele>476.1</ele>
        <time>2019-08-18T08:02:43Z</time>
      </trkpt>
      <trkpt lat="42.6642870" lon="-8.2306340">
        <ele>476.2</ele>
        <time>2019-08-18T08:02:44Z</time>
      </trkpt>
      <trkpt lat="42.6643230" lon="-8.2306390">
        <ele>476.3</ele>
        <time>2019-08-18T08:02:45Z</time>
      </trkpt>
      <trkpt lat="42.6643590" lon="-8.2306430">
        <ele>476.4</ele>
        <time>2019-08-18T08:02:46Z</time>
      </trkpt>
      <trkpt lat="42.6643940" lon="-8.2306480">
        <ele>476.4</ele>
        <time>2019-08-18T08:02:47Z</time>
      </trkpt>
      <trkpt lat="42.6644290" lon="-8.2306530">
        <ele>476.5</ele>
        <time>2019-08-18T08:02:48Z</time>
      </trkpt>
      <trkpt lat="42.6644640" lon="-8.2306570">
        <ele>476.7</ele>
        <time>2019-08-18T08:02:49Z</time>
      </trkpt>
      <trkpt lat="42.6645000" lon="-8.2306620">
        <ele>476.8</ele>
        <time>2019-08-18T08:02:50Z</time>
      </trkpt>
      <trkpt lat="42.6645350" lon="-8.2306660">
        <ele>476.9</ele>
        <time>2019-08-18T08:02:51Z</time>
      </trkpt>
      <trkpt lat="42.6645700" lon="-8.2306700">
        <ele>477.1</ele>
        <time>2019-08-18T08:02:52Z</time>
      </trkpt>
      <trkpt lat="42.6646050" lon="-8.2306740">
        <ele>477.2</ele>
        <time>2019-08-18T08:02:53Z</time>
      </trkpt>
      <trkpt lat="42.6646400" lon="-8.2306780">
        <ele>477.4</ele>
        <time>2019-08-18T08:02:54Z</time>
      </trkpt>
      <trkpt lat="42.6646750" lon="-8.2306820">
        <ele>477.6</ele>
        <time>2019-08-18T08:02:55Z</time>
      </trkpt>
      <trkpt lat="42.6647090" lon="-8.2306860">
        <ele>477.7</ele>
        <time>2019-08-18T08:02:56Z</time>
      </trkpt>
      <trkpt lat="42.6647430" lon="-8.2306900">
        <ele>477.9</ele>
        <time>2019-08-18T08:02:57Z</time>
      </trkpt>
      <trkpt lat="42.6647760" lon="-8.2306940">
        <ele>478.1</ele>
        <time>2019-08-18T08:02:58Z</time>
      </trkpt>
      <trkpt lat="42.6648090" lon="-8.2306990">
        <ele>478.3</ele>
        <time>2019-08-18T08:02:59Z</time>
      </trkpt>
      <trkpt lat="42.6648410" lon="-8.2307030">
        <ele>478.4</ele>
        <time>2019-08-18T08:03:00Z</time>
      </trkpt>
      <trkpt lat="42.6648740" lon="-8.2307070">
        <ele>478.6</ele>
        <time>2019-08-18T08:03:01Z</time>
      </trkpt>
      <trkpt lat="42.6649050" lon="-8.2307120">
        <ele>478.8</ele>
        <time>2019-08-18T08:03:02Z</time>
      </trkpt>
      <trkpt lat="42.6649370" lon="-8.2307160">
        <ele>479.0</ele>
        <time>2019-08-18T08:03:03Z</time>
      </trkpt>
      <trkpt lat="42.6649680" lon="-8.2307210">
        <ele>479.2</ele>
        <time>2019-08-18T08:03:04Z</time>
      </trkpt>
      <trkpt lat="42.6650000" lon="-8.2307260">
        <ele>479.4</ele>
        <time>2019-08-18T08:03:05Z</time>
      </trkpt>
      <trkpt lat="42.6650310" lon="-8.2307310">
        <ele>479.6</ele>
        <time>2019-08-18T08:03:06Z</time>
      </trkpt>
      <trkpt lat="42.6650620" lon="-8.2307370">
        <ele>479.8</ele>
        <time>2019-08-18T08:03:07Z</time>
      </trkpt>
      <trkpt lat="42.6650920" lon="-8.2307420">
        <ele>480.0</ele>
        <time>2019-08-18T08:03:08Z</time>
      </trkpt>
      <trkpt lat="42.6651230" lon="-8.2307470">
        <ele>480.2</ele>
        <time>2019-08-18T08:03:09Z</time>
      </trkpt>
      <trkpt lat="42.6651530" lon="-8.2307530">
        <ele>480.4</ele>
        <time>2019-08-18T08:03:10Z</time>
      </trkpt>
      <trkpt lat="42.6651830" lon="-8.2307580">
        <ele>480.6</ele>
        <time>2019-08-18T08:03:11Z</time>
      </trkpt>
      <trkpt lat="42.6652130" lon="-8.2307630">
        <ele>480.8</ele>
        <time>2019-08-18T08:03:12Z</time>
      </trkpt>
      <trkpt lat="42.6652430" lon="-8.2307690">
        <ele>481.0</ele>
        <time>2019-08-18T08:03:13Z</time>
      </trkpt>
      <trkpt lat="42.6652730" lon="-8.2307740">
        <ele>481.2</ele>
        <time>2019-08-18T08:03:14Z</time>
      </trkpt>
      <trkpt lat="42.6653030" lon="-8.2307790">
        <ele>481.4</ele>
        <time>2019-08-18T08:03:15Z</time>
      </trkpt>
      <trkpt lat="42.6653330" lon="-8.2307840">
        <ele>481.6</ele>
        <time>2019-08-18T08:03:16Z</time>
      </trkpt>
      <trkpt lat="42.6653630" lon="-8.2307880">
        <ele>481.8</ele>
        <time>2019-08-18T08:03:17Z</time>
      </trkpt>
      <trkpt lat="42.6653920" lon="-8.2307930">
        <ele>482.1</ele>
        <time>2019-08-18T08:03:18Z</time>
      </trkpt>
      <trkpt lat="42.6654210" lon="-8.2307980">
        <ele>482.3</ele>
        <time>2019-08-18T08:03:19Z</time>
      </trkpt>
      <trkpt lat="42.6654500" lon="-8.2308040">
        <ele>482.6</ele>
        <time>2019-08-18T08:03:20Z</time>
      </trkpt>
      <trkpt lat="42.6654780" lon="-8.2308120">
        <ele>482.8</ele>
        <time>2019-08-18T08:03:21Z</time>
      </trkpt>
      <trkpt lat="42.6655050" lon="-8.2308220">
        <ele>483.0</ele>
        <time>2019-08-18T08:03:22Z</time>
      </trkpt>
      <trkpt lat="42.6655320" lon="-8.2308340">
        <ele>483.2</ele>
        <time>2019-08-18T08:03:23Z</time>
      </trkpt>
      <trkpt lat="42.6655580" lon="-8.2308470">
        <ele>483.3</ele>
        <time>2019-08-18T08:03:24Z</time>
      </trkpt>
      <trkpt lat="42.6655840" lon="-8.2308580">
        <ele>483.5</ele>
        <time>2019-08-18T08:03:25Z</time>
      </trkpt>
      <trkpt lat="42.6656110" lon="-8.2308680">
        <ele>483.6</ele>
        <time>2019-08-18T08:03:26Z</time>
      </trkpt>
      <trkpt lat="42.6656390" lon="-8.2308760">
        <ele>483.7</ele>
        <time>2019-08-18T08:03:27Z</time>
      </trkpt>
      <trkpt lat="42.6656660" lon="-8.2308820">
        <ele>483.8</ele>
        <time>2019-08-18T08:03:28Z</time>
      </trkpt>
      <trkpt lat="42.6656940" lon="-8.2308880">
        <ele>484.0</ele>
        <time>2019-08-18T08:03:29Z</time>
      </trkpt>
      <trkpt lat="42.6657220" lon="-8.2308940">
        <ele>484.1</ele>
        <time>2019-08-18T08:03:30Z</time>
      </trkpt>
      <trkpt lat="42.6657500" lon="-8.2308990">
        <ele>484.2</ele>
        <time>2019-08-18T08:03:31Z</time>
      </trkpt>
      <trkpt lat="42.6657780" lon="-8.2309050">
        <ele>484.4</ele>
        <time>2019-08-18T08:03:32Z</time>
      </trkpt>
      <trkpt lat="42.6658050" lon="-8.2309120">
        <ele>484.7</ele>
        <time>2019-08-18T08:03:33Z</time>
      </trkpt>
      <trkpt lat="42.6658320" lon="-8.2309190">
        <ele>484.9</ele>
        <time>2019-08-18T08:03:34Z</time>
      </trkpt>
      <trkpt lat="42.6658590" lon="-8.2309260">
        <ele>485.1</ele>
        <time>2019-08-18T08:03:35Z</time>
      </trkpt>
      <trkpt lat="42.6658860" lon="-8.2309340">
        <ele>485.3</ele>
        <time>2019-08-18T08:03:36Z</time>
      </trkpt>
      <trkpt lat="42.6659130" lon="-8.2309410">
        <ele>485.6</ele>
        <time>2019-08-18T08:03:37Z</time>
      </trkpt>
      <trkpt lat="42.6659400" lon="-8.2309480">
        <ele>485.7</ele>
        <time>2019-08-18T08:03:38Z</time>
      </trkpt>
      <trkpt lat="42.6659670" lon="-8.2309550">
        <ele>485.9</ele>
        <time>2019-08-18T08:03:39Z</time>
      </trkpt>
      <trkpt lat="42.6659940" lon="-8.2309600">
        <ele>486.0</ele>
        <time>2019-08-18T08:03:40Z</time>
      </trkpt>
      <trkpt lat="42.6660220" lon="-8.2309650">
        <ele>486.2</ele>
        <time>2019-08-18T08:03:41Z</time>
      </trkpt>
      <trkpt lat="42.6660490" lon="-8.2309690">
        <ele>486.3</ele>
        <time>2019-08-18T08:03:42Z</time>
      </trkpt>
      <trkpt lat="42.6660770" lon="-8.2309730">
        <ele>486.5</ele>
        <time>2019-08-18T08:03:43Z</time>
      </trkpt>
      <trkpt lat="42.6661050" lon="-8.2309760">
        <ele>486.8</ele>
        <time>2019-08-18T08:03:44Z</time>
      </trkpt>
      <trkpt lat="42.6661330" lon="-8.2309790">
        <ele>487.0</ele>
        <time>2019-08-18T08:03:45Z</time>
      </trkpt>
      <trkpt lat="42.6661610" lon="-8.2309810">
        <ele>487.2</ele>
        <time>2019-08-18T08:03:46Z</time>
      </trkpt>
      <trkpt lat="42.6661880" lon="-8.2309820">
        <ele>487.4</ele>
        <time>2019-08-18T08:03:47Z</time>
      </trkpt>
      <trkpt lat="42.6662160" lon="-8.2309840">
        <ele>487.7</ele>
        <time>2019-08-18T08:03:48Z</time>
      </trkpt>
      <trkpt lat="42.6662430" lon="-8.2309850">
        <ele>487.8</ele>
        <time>2019-08-18T08:03:49Z</time>
      </trkpt>
      <trkpt lat="42.6662830" lon="-8.2309850">
        <ele>488.1</ele>
        <time>2019-08-18T08:03:50Z</time>
      </trkpt>
      <trkpt lat="42.6662960" lon="-8.2309860">
        <ele>488.1</ele>
        <time>2019-08-18T08:03:51Z</time>
      </trkpt>
      <trkpt lat="42.6663220" lon="-8.2309860">
        <ele>488.3</ele>
        <time>2019-08-18T08:03:52Z</time>
      </trkpt>
      <trkpt lat="42.6663470" lon="-8.2309860">
        <ele>488.4</ele>
        <time>2019-08-18T08:03:53Z</time>
      </trkpt>
      <trkpt lat="42.6663710" lon="-8.2309860">
        <ele>488.6</ele>
        <time>2019-08-18T08:03:54Z</time>
      </trkpt>
      <trkpt lat="42.6663950" lon="-8.2309860">
        <ele>488.7</ele>
        <time>2019-08-18T08:03:55Z</time>
      </trkpt>
      <trkpt lat="42.6664170" lon="-8.2309860">
        <ele>488.9</ele>
        <time>2019-08-18T08:03:56Z</time>
      </trkpt>
      <trkpt lat="42.6664380" lon="-8.2309860">
        <ele>489.1</ele>
        <time>2019-08-18T08:03:57Z</time>
      </trkpt>
      <trkpt lat="42.6664590" lon="-8.2309860">
        <ele>489.2</ele>
        <time>2019-08-18T08:03:58Z</time>
      </trkpt>
      <trkpt lat="42.6664790" lon="-8.2309860">
        <ele>489.4</ele>
        <time>2019-08-18T08:03:59Z</time>
      </trkpt>
      <trkpt lat="42.6664980" lon="-8.2309860">
        <ele>489.5</ele>
        <time>2019-08-18T08:04:00Z</time>
      </trkpt>
      <trkpt lat="42.6665160" lon="-8.2309860">
        <ele>489.7</ele>
        <time>2019-08-18T08:04:01Z</time>
      </trkpt>
      <trkpt lat="42.6665330" lon="-8.2309860">
        <ele>489.8</ele>
        <time>2019-08-18T08:04:02Z</time>
      </trkpt>
      <trkpt lat="42.6665500" lon="-8.2309860">
        <ele>489.9</ele>
        <time>2019-08-18T08:04:03Z</time>
      </trkpt>
      <trkpt lat="42.6665670" lon="-8.2309870">
        <ele>490.0</ele>
        <time>2019-08-18T08:04:04Z</time>
      </trkpt>
      <trkpt lat="42.6665840" lon="-8.2309880">
        <ele>490.1</ele>
        <time>2019-08-18T08:04:05Z</time>
      </trkpt>
      <trkpt lat="42.6666010" lon="-8.2309880">
        <ele>490.2</ele>
        <time>2019-08-18T08:04:06Z</time>
      </trkpt>
      <trkpt lat="42.6666190" lon="-8.2309890">
        <ele>490.4</ele>
        <time>2019-08-18T08:04:07Z</time>
      </trkpt>
      <trkpt lat="42.6666380" lon="-8.2309900">
        <ele>490.5</ele>
        <time>2019-08-18T08:04:08Z</time>
      </trkpt>
      <trkpt lat="42.6666580" lon="-8.2309910">
        <ele>490.6</ele>
        <time>2019-08-18T08:04:09Z</time>
      </trkpt>
      <trkpt lat="42.6666780" lon="-8.2309920">
        <ele>490.7</ele>
        <time>2019-08-18T08:04:10Z</time>
      </trkpt>
      <trkpt lat="42.6666990" lon="-8.2309930">
        <ele>490.9</ele>
        <time>2019-08-18T08:04:11Z</time>
      </trkpt>
      <trkpt lat="42.6667200" lon="-8.2309950">
        <ele>491.0</ele>
        <time>2019-08-18T08:04:12Z</time>
      </trkpt>
      <trkpt lat="42.6667420" lon="-8.2309960">
        <ele>491.1</ele>
        <time>2019-08-18T08:04:13Z</time>
      </trkpt>
      <trkpt lat="42.6667630" lon="-8.2309980">
        <ele>491.3</ele>
        <time>2019-08-18T08:04:14Z</time>
      </trkpt>
      <trkpt lat="42.6667850" lon="-8.2309990">
        <ele>491.5</ele>
        <time>2019-08-18T08:04:15Z</time>
      </trkpt>
      <trkpt lat="42.6668060" lon="-8.2309990">
        <ele>491.6</ele>
        <time>2019-08-18T08:04:16Z</time>
      </trkpt>
      <trkpt lat="42.6668270" lon="-8.2309980">
        <ele>491.8</ele>
        <time>2019-08-18T08:04:17Z</time>
      </trkpt>
      <trkpt lat="42.6668480" lon="-8.2309970">
        <ele>491.9</ele>
        <time>2019-08-18T08:04:18Z</time>
      </trkpt>
      <trkpt lat="42.6668690" lon="-8.2309950">
        <ele>492.1</ele>
        <time>2019-08-18T08:04:19Z</time>
      </trkpt>
      <trkpt lat="42.6668900" lon="-8.2309920">
        <ele>492.2</ele>
        <time>2019-08-18T08:04:20Z</time>
      </trkpt>
      <trkpt lat="42.6669110" lon="-8.2309890">
        <ele>492.3</ele>
        <time>2019-08-18T08:04:21Z</time>
      </trkpt>
      <trkpt lat="42.6669320" lon="-8.2309850">
        <ele>492.5</ele>
        <time>2019-08-18T08:04:22Z</time>
      </trkpt>
      <trkpt lat="42.6669530" lon="-8.2309810">
        <ele>492.6</ele>
        <time>2019-08-18T08:04:23Z</time>
      </trkpt>
      <trkpt lat="42.6669740" lon="-8.2309760">
        <ele>492.7</ele>
        <time>2019-08-18T08:04:24Z</time>
      </trkpt>
      <trkpt lat="42.6669950" lon="-8.2309710">
        <ele>492.8</ele>
        <time>2019-08-18T08:04:25Z</time>
      </trkpt>
      <trkpt lat="42.6670160" lon="-8.2309650">
        <ele>492.9</ele>
        <time>2019-08-18T08:04:26Z</time>
      </trkpt>
      <trkpt lat="42.6670360" lon="-8.2309600">
        <ele>493.1</ele>
        <time>2019-08-18T08:04:27Z</time>
      </trkpt>
      <trkpt lat="42.6670570" lon="-8.2309540">
        <ele>493.3</ele>
        <time>2019-08-18T08:04:28Z</time>
      </trkpt>
      <trkpt lat="42.6670780" lon="-8.2309480">
        <ele>493.4</ele>
        <time>2019-08-18T08:04:29Z</time>
      </trkpt>
      <trkpt lat="42.6670980" lon="-8.2309420">
        <ele>493.6</ele>
        <time>2019-08-18T08:04:30Z</time>
      </trkpt>
      <trkpt lat="42.6671190" lon="-8.2309360">
        <ele>493.8</ele>
        <time>2019-08-18T08:04:31Z</time>
      </trkpt>
      <trkpt lat="42.6671390" lon="-8.2309290">
        <ele>493.9</ele>
        <time>2019-08-18T08:04:32Z</time>
      </trkpt>
      <trkpt lat="42.6671600" lon="-8.2309230">
        <ele>494.1</ele>
        <time>2019-08-18T08:04:33Z</time>
      </trkpt>
      <trkpt lat="42.6671800" lon="-8.2309170">
        <ele>494.3</ele>
        <time>2019-08-18T08:04:34Z</time>
      </trkpt>
      <trkpt lat="42.6672010" lon="-8.2309100">
        <ele>494.4</ele>
        <time>2019-08-18T08:04:35Z</time>
      </trkpt>
      <trkpt lat="42.6672220" lon="-8.2309040">
        <ele>494.5</ele>
        <time>2019-08-18T08:04:36Z</time>
      </trkpt>
      <trkpt lat="42.6672420" lon="-8.2308970">
        <ele>494.5</ele>
        <time>2019-08-18T08:04:37Z</time>
      </trkpt>
      <trkpt lat="42.6672630" lon="-8.2308900">
        <ele>494.6</ele>
        <time>2019-08-18T08:04:38Z</time>
      </trkpt>
      <trkpt lat="42.6672840" lon="-8.2308830">
        <ele>494.7</ele>
        <time>2019-08-18T08:04:39Z</time>
      </trkpt>
      <trkpt lat="42.6673050" lon="-8.2308760">
        <ele>494.8</ele>
        <time>2019-08-18T08:04:40Z</time>
      </trkpt>
      <trkpt lat="42.6673260" lon="-8.2308690">
        <ele>494.9</ele>
        <time>2019-08-18T08:04:41Z</time>
      </trkpt>
      <trkpt lat="42.6673480" lon="-8.2308620">
        <ele>495.0</ele>
        <time>2019-08-18T08:04:42Z</time>
      </trkpt>
      <trkpt lat="42.6673700" lon="-8.2308540">
        <ele>495.1</ele>
        <time>2019-08-18T08:04:43Z</time>
      </trkpt>
      <trkpt lat="42.6673910" lon="-8.2308470">
        <ele>495.2</ele>
        <time>2019-08-18T08:04:44Z</time>
      </trkpt>
      <trkpt lat="42.6674140" lon="-8.2308390">
        <ele>495.4</ele>
        <time>2019-08-18T08:04:45Z</time>
      </trkpt>
      <trkpt lat="42.6674360" lon="-8.2308310">
        <ele>495.6</ele>
        <time>2019-08-18T08:04:46Z</time>
      </trkpt>
      <trkpt lat="42.6674580" lon="-8.2308220">
        <ele>495.8</ele>
        <time>2019-08-18T08:04:47Z</time>
      </trkpt>
      <trkpt lat="42.6674810" lon="-8.2308140">
        <ele>495.9</ele>
        <time>2019-08-18T08:04:48Z</time>
      </trkpt>
      <trkpt lat="42.6675040" lon="-8.2308060">
        <ele>496.1</ele>
        <time>2019-08-18T08:04:49Z</time>
      </trkpt>
      <trkpt lat="42.6675270" lon="-8.2307970">
        <ele>496.3</ele>
        <time>2019-08-18T08:04:50Z</time>
      </trkpt>
      <trkpt lat="42.6675500" lon="-8.2307890">
        <ele>496.5</ele>
        <time>2019-08-18T08:04:51Z</time>
      </trkpt>
      <trkpt lat="42.6675730" lon="-8.2307800">
        <ele>496.6</ele>
        <time>2019-08-18T08:04:52Z</time>
      </trkpt>
      <trkpt lat="42.6675960" lon="-8.2307710">
        <ele>496.8</ele>
        <time>2019-08-18T08:04:53Z</time>
      </trkpt>
      <trkpt lat="42.6676190" lon="-8.2307630">
        <ele>496.9</ele>
        <time>2019-08-18T08:04:54Z</time>
      </trkpt>
      <trkpt lat="42.6676410" lon="-8.2307540">
        <ele>497.0</ele>
        <time>2019-08-18T08:04:55Z</time>
      </trkpt>
      <trkpt lat="42.6676640" lon="-8.2307450">
        <ele>497.2</ele>
        <time>2019-08-18T08:04:56Z</time>
      </trkpt>
      <trkpt lat="42.6676870" lon="-8.2307370">
        <ele>497.3</ele>
        <time>2019-08-18T08:04:57Z</time>
      </trkpt>
      <trkpt lat="42.6677090" lon="-8.2307280">
        <ele>497.5</ele>
        <time>2019-08-18T08:04:58Z</time>
      </trkpt>
      <trkpt lat="42.6677310" lon="-8.2307200">
        <ele>497.7</ele>
        <time>2019-08-18T08:04:59Z</time>
      </trkpt>
      <trkpt lat="42.6677540" lon="-8.2307120">
        <ele>497.8</ele>
        <time>2019-08-18T08:05:00Z</time>
      </trkpt>
      <trkpt lat="42.6677750" lon="-8.2307040">
        <ele>498.0</ele>
        <time>2019-08-18T08:05:01Z</time>
      </trkpt>
      <trkpt lat="42.6677970" lon="-8.2306960">
        <ele>498.2</ele>
        <time>2019-08-18T08:05:02Z</time>
      </trkpt>
      <trkpt lat="42.6678190" lon="-8.2306880">
        <ele>498.4</ele>
        <time>2019-08-18T08:05:03Z</time>
      </trkpt>
      <trkpt lat="42.6678400" lon="-8.2306800">
        <ele>498.5</ele>
        <time>2019-08-18T08:05:04Z</time>
      </trkpt>
      <trkpt lat="42.6678620" lon="-8.2306720">
        <ele>498.6</ele>
        <time>2019-08-18T08:05:05Z</time>
      </trkpt>
      <trkpt lat="42.6678840" lon="-8.2306640">
        <ele>498.7</ele>
        <time>2019-08-18T08:05:06Z</time>
      </trkpt>
      <trkpt lat="42.6679060" lon="-8.2306570">
        <ele>498.8</ele>
        <time>2019-08-18T08:05:07Z</time>
      </trkpt>
      <trkpt lat="42.6679280" lon="-8.2306490">
        <ele>498.9</ele>
        <time>2019-08-18T08:05:08Z</time>
      </trkpt>
      <trkpt lat="42.6679510" lon="-8.2306420">
        <ele>499.0</ele>
        <time>2019-08-18T08:05:09Z</time>
      </trkpt>
      <trkpt lat="42.6679730" lon="-8.2306350">
        <ele>499.1</ele>
        <time>2019-08-18T08:05:10Z</time>
      </trkpt>
      <trkpt lat="42.6679960" lon="-8.2306270">
        <ele>499.2</ele>
        <time>2019-08-18T08:05:11Z</time>
      </trkpt>
      <trkpt lat="42.6680200" lon="-8.2306200">
        <ele>499.3</ele>
        <time>2019-08-18T08:05:12Z</time>
      </trkpt>
      <trkpt lat="42.6680440" lon="-8.2306130">
        <ele>499.4</ele>
        <time>2019-08-18T08:05:13Z</time>
      </trkpt>
      <trkpt lat="42.6680680" lon="-8.2306060">
        <ele>499.5</ele>
        <time>2019-08-18T08:05:14Z</time>
      </trkpt>
      <trkpt lat="42.6680940" lon="-8.2305990">
        <ele>499.7</ele>
        <time>2019-08-18T08:05:15Z</time>
      </trkpt>
      <trkpt lat="42.6681190" lon="-8.2305930">
        <ele>499.9</ele>
        <time>2019-08-18T08:05:16Z</time>
      </trkpt>
      <trkpt lat="42.6681450" lon="-8.2305860">
        <ele>500.1</ele>
        <time>2019-08-18T08:05:17Z</time>
      </trkpt>
      <trkpt lat="42.6681710" lon="-8.2305790">
        <ele>500.3</ele>
        <time>2019-08-18T08:05:18Z</time>
      </trkpt>
      <trkpt lat="42.6681970" lon="-8.2305720">
        <ele>500.5</ele>
        <time>2019-08-18T08:05:19Z</time>
      </trkpt>
      <trkpt lat="42.6682230" lon="-8.2305650">
        <ele>500.7</ele>
        <time>2019-08-18T08:05:20Z</time>
      </trkpt>
      <trkpt lat="42.6682500" lon="-8.2305570">
        <ele>500.8</ele>
        <time>2019-08-18T08:05:21Z</time>
      </trkpt>
      <trkpt lat="42.6682770" lon="-8.2305500">
        <ele>501.0</ele>
        <time>2019-08-18T08:05:22Z</time>
      </trkpt>
      <trkpt lat="42.6683030" lon="-8.2305420">
        <ele>501.1</ele>
        <time>2019-08-18T08:05:23Z</time>
      </trkpt>
      <trkpt lat="42.6683300" lon="-8.2305350">
        <ele>501.2</ele>
        <time>2019-08-18T08:05:24Z</time>
      </trkpt>
      <trkpt lat="42.6683560" lon="-8.2305270">
        <ele>501.3</ele>
        <time>2019-08-18T08:05:25Z</time>
      </trkpt>
      <trkpt lat="42.6683820" lon="-8.2305180">
        <ele>501.4</ele>
        <time>2019-08-18T08:05:26Z</time>
      </trkpt>
      <trkpt lat="42.6684080" lon="-8.2305100">
        <ele>501.5</ele>
        <time>2019-08-18T08:05:27Z</time>
      </trkpt>
      <trkpt lat="42.6684340" lon="-8.2305010">
        <ele>501.7</ele>
        <time>2019-08-18T08:05:28Z</time>
      </trkpt>
      <trkpt lat="42.6684590" lon="-8.2304910">
        <ele>501.8</ele>
        <time>2019-08-18T08:05:29Z</time>
      </trkpt>
      <trkpt lat="42.6684840" lon="-8.2304820">
        <ele>501.9</ele>
        <time>2019-08-18T08:05:30Z</time>
      </trkpt>
      <trkpt lat="42.6685090" lon="-8.2304720">
        <ele>502.0</ele>
        <time>2019-08-18T08:05:31Z</time>
      </trkpt>
      <trkpt lat="42.6685340" lon="-8.2304630">
        <ele>502.3</ele>
        <time>2019-08-18T08:05:32Z</time>
      </trkpt>
      <trkpt lat="42.6685600" lon="-8.2304550">
        <ele>502.5</ele>
        <time>2019-08-18T08:05:33Z</time>
      </trkpt>
      <trkpt lat="42.6685870" lon="-8.2304470">
        <ele>502.8</ele>
        <time>2019-08-18T08:05:34Z</time>
      </trkpt>
      <trkpt lat="42.6686150" lon="-8.2304410">
        <ele>503.0</ele>
        <time>2019-08-18T08:05:35Z</time>
      </trkpt>
      <trkpt lat="42.6686440" lon="-8.2304360">
        <ele>503.3</ele>
        <time>2019-08-18T08:05:36Z</time>
      </trkpt>
      <trkpt lat="42.6686740" lon="-8.2304320">
        <ele>503.5</ele>
        <time>2019-08-18T08:05:37Z</time>
      </trkpt>
      <trkpt lat="42.6687170" lon="-8.2304290">
        <ele>503.8</ele>
        <time>2019-08-18T08:05:38Z</time>
      </trkpt>
      <trkpt lat="42.6687310" lon="-8.2304280">
        <ele>503.9</ele>
        <time>2019-08-18T08:05:39Z</time>
      </trkpt>
      <trkpt lat="42.6687580" lon="-8.2304270">
        <ele>504.1</ele>
        <time>2019-08-18T08:05:40Z</time>
      </trkpt>
      <trkpt lat="42.6687820" lon="-8.2304280">
        <ele>504.2</ele>
        <time>2019-08-18T08:05:41Z</time>
      </trkpt>
      <trkpt lat="42.6688030" lon="-8.2304310">
        <ele>504.4</ele>
        <time>2019-08-18T08:05:42Z</time>
      </trkpt>
      <trkpt lat="42.6688210" lon="-8.2304340">
        <ele>504.5</ele>
        <time>2019-08-18T08:05:43Z</time>
      </trkpt>
      <trkpt lat="42.6688370" lon="-8.2304380">
        <ele>504.6</ele>
        <time>2019-08-18T08:05:44Z</time>
      </trkpt>
      <trkpt lat="42.6688540" lon="-8.2304430">
        <ele>504.7</ele>
        <time>2019-08-18T08:05:45Z</time>
      </trkpt>
      <trkpt lat="42.6688760" lon="-8.2304470">
        <ele>504.8</ele>
        <time>2019-08-18T08:05:46Z</time>
      </trkpt>
      <trkpt lat="42.6689020" lon="-8.2304510">
        <ele>504.9</ele>
        <time>2019-08-18T08:05:47Z</time>
      </trkpt>
      <trkpt lat="42.6689320" lon="-8.2304550">
        <ele>505.1</ele>
        <time>2019-08-18T08:05:48Z</time>
      </trkpt>
      <trkpt lat="42.6689630" lon="-8.2304580">
        <ele>505.3</ele>
        <time>2019-08-18T08:05:49Z</time>
      </trkpt>
      <trkpt lat="42.6689910" lon="-8.2304610">
        <ele>505.4</ele>
        <time>2019-08-18T08:05:50Z</time>
      </trkpt>
      <trkpt lat="42.6690130" lon="-8.2304630">
        <ele>505.5</ele>
        <time>2019-08-18T08:05:51Z</time>
      </trkpt>
      <trkpt lat="42.6690330" lon="-8.2304650">
        <ele>505.6</ele>
        <time>2019-08-18T08:05:52Z</time>
      </trkpt>
      <trkpt lat="42.6690530" lon="-8.2304670">
        <ele>505.7</ele>
        <time>2019-08-18T08:05:53Z</time>
      </trkpt>
      <trkpt lat="42.6690750" lon="-8.2304700">
        <ele>505.9</ele>
        <time>2019-08-18T08:05:54Z</time>
      </trkpt>
      <trkpt lat="42.6691010" lon="-8.2304720">
        <ele>506.0</ele>
        <time>2019-08-18T08:05:55Z</time>
      </trkpt>
      <trkpt lat="42.6691310" lon="-8.2304740">
        <ele>506.2</ele>
        <time>2019-08-18T08:05:56Z</time>
      </trkpt>
      <trkpt lat="42.6691620" lon="-8.2304770">
        <ele>506.4</ele>
        <time>2019-08-18T08:05:57Z</time>
      </trkpt>
      <trkpt lat="42.6691940" lon="-8.2304800">
        <ele>506.6</ele>
        <time>2019-08-18T08:05:58Z</time>
      </trkpt>
      <trkpt lat="42.6692270" lon="-8.2304830">
        <ele>506.8</ele>
        <time>2019-08-18T08:05:59Z</time>
      </trkpt>
      <trkpt lat="42.6692590" lon="-8.2304870">
        <ele>506.9</ele>
        <time>2019-08-18T08:06:00Z</time>
      </trkpt>
      <trkpt lat="42.6692920" lon="-8.2304910">
        <ele>507.0</ele>
        <time>2019-08-18T08:06:01Z</time>
      </trkpt>
      <trkpt lat="42.6693250" lon="-8.2304950">
        <ele>507.2</ele>
        <time>2019-08-18T08:06:02Z</time>
      </trkpt>
      <trkpt lat="42.6693580" lon="-8.2305000">
        <ele>507.3</ele>
        <time>2019-08-18T08:06:03Z</time>
      </trkpt>
      <trkpt lat="42.6693920" lon="-8.2305050">
        <ele>507.5</ele>
        <time>2019-08-18T08:06:04Z</time>
      </trkpt>
      <trkpt lat="42.6694250" lon="-8.2305110">
        <ele>507.6</ele>
        <time>2019-08-18T08:06:05Z</time>
      </trkpt>
      <trkpt lat="42.6694590" lon="-8.2305170">
        <ele>507.8</ele>
        <time>2019-08-18T08:06:06Z</time>
      </trkpt>
      <trkpt lat="42.6694920" lon="-8.2305240">
        <ele>507.9</ele>
        <time>2019-08-18T08:06:07Z</time>
      </trkpt>
      <trkpt lat="42.6695260" lon="-8.2305310">
        <ele>508.0</ele>
        <time>2019-08-18T08:06:08Z</time>
      </trkpt>
      <trkpt lat="42.6695600" lon="-8.2305390">
        <ele>508.2</ele>
        <time>2019-08-18T08:06:09Z</time>
      </trkpt>
      <trkpt lat="42.6695930" lon="-8.2305470">
        <ele>508.4</ele>
        <time>2019-08-18T08:06:10Z</time>
      </trkpt>
      <trkpt lat="42.6696270" lon="-8.2305560">
        <ele>508.6</ele>
        <time>2019-08-18T08:06:11Z</time>
      </trkpt>
      <trkpt lat="42.6696600" lon="-8.2305650">
        <ele>508.8</ele>
        <time>2019-08-18T08:06:12Z</time>
      </trkpt>
      <trkpt lat="42.6696940" lon="-8.2305760">
        <ele>509.0</ele>
        <time>2019-08-18T08:06:13Z</time>
      </trkpt>
      <trkpt lat="42.6697270" lon="-8.2305860">
        <ele>509.2</ele>
        <time>2019-08-18T08:06:14Z</time>
      </trkpt>
      <trkpt lat="42.6697610" lon="-8.2305980">
        <ele>509.4</ele>
        <time>2019-08-18T08:06:15Z</time>
      </trkpt>
      <trkpt lat="42.6697940" lon="-8.2306090">
        <ele>509.6</ele>
        <time>2019-08-18T08:06:16Z</time>
      </trkpt>
      <trkpt lat="42.6698270" lon="-8.2306220">
        <ele>509.8</ele>
        <time>2019-08-18T08:06:17Z</time>
      </trkpt>
      <trkpt lat="42.6698600" lon="-8.2306350">
        <ele>509.9</ele>
        <time>2019-08-18T08:06:18Z</time>
      </trkpt>
      <trkpt lat="42.6698930" lon="-8.2306480">
        <ele>510.0</ele>
        <time>2019-08-18T08:06:19Z</time>
      </trkpt>
      <trkpt lat="42.6699250" lon="-8.2306610">
        <ele>510.1</ele>
        <time>2019-08-18T08:06:20Z</time>
      </trkpt>
      <trkpt lat="42.6699580" lon="-8.2306750">
        <ele>510.3</ele>
        <time>2019-08-18T08:06:21Z</time>
      </trkpt>
      <trkpt lat="42.6699900" lon="-8.2306890">
        <ele>510.3</ele>
        <time>2019-08-18T08:06:22Z</time>
      </trkpt>
      <trkpt lat="42.6700230" lon="-8.2307040">
        <ele>510.4</ele>
        <time>2019-08-18T08:06:23Z</time>
      </trkpt>
      <trkpt lat="42.6700550" lon="-8.2307200">
        <ele>510.5</ele>
        <time>2019-08-18T08:06:24Z</time>
      </trkpt>
      <trkpt lat="42.6700880" lon="-8.2307380">
        <ele>510.6</ele>
        <time>2019-08-18T08:06:25Z</time>
      </trkpt>
      <trkpt lat="42.6701210" lon="-8.2307570">
        <ele>510.6</ele>
        <time>2019-08-18T08:06:26Z</time>
      </trkpt>
      <trkpt lat="42.6701540" lon="-8.2307770">
        <ele>510.7</ele>
        <time>2019-08-18T08:06:27Z</time>
      </trkpt>
      <trkpt lat="42.6701880" lon="-8.2308000">
        <ele>510.7</ele>
        <time>2019-08-18T08:06:28Z</time>
      </trkpt>
      <trkpt lat="42.6702450" lon="-8.2308420">
        <ele>510.8</ele>
        <time>2019-08-18T08:06:29Z</time>
      </trkpt>
      <trkpt lat="42.6702670" lon="-8.2308590">
        <ele>510.8</ele>
        <time>2019-08-18T08:06:30Z</time>
      </trkpt>
      <trkpt lat="42.6702900" lon="-8.2308770">
        <ele>510.9</ele>
        <time>2019-08-18T08:06:31Z</time>
      </trkpt>
      <trkpt lat="42.6703240" lon="-8.2309050">
        <ele>510.9</ele>
        <time>2019-08-18T08:06:32Z</time>
      </trkpt>
      <trkpt lat="42.6703590" lon="-8.2309340">
        <ele>511.0</ele>
        <time>2019-08-18T08:06:33Z</time>
      </trkpt>
      <trkpt lat="42.6703930" lon="-8.2309640">
        <ele>511.0</ele>
        <time>2019-08-18T08:06:34Z</time>
      </trkpt>
      <trkpt lat="42.6704270" lon="-8.2309950">
        <ele>511.0</ele>
        <time>2019-08-18T08:06:35Z</time>
      </trkpt>
      <trkpt lat="42.6704610" lon="-8.2310260">
        <ele>511.1</ele>
        <time>2019-08-18T08:06:36Z</time>
      </trkpt>
      <trkpt lat="42.6704950" lon="-8.2310570">
        <ele>511.2</ele>
        <time>2019-08-18T08:06:37Z</time>
      </trkpt>
      <trkpt lat="42.6705280" lon="-8.2310880">
        <ele>511.2</ele>
        <time>2019-08-18T08:06:38Z</time>
      </trkpt>
      <trkpt lat="42.6705620" lon="-8.2311200">
        <ele>511.3</ele>
        <time>2019-08-18T08:06:39Z</time>
      </trkpt>
      <trkpt lat="42.6705960" lon="-8.2311520">
        <ele>511.3</ele>
        <time>2019-08-18T08:06:40Z</time>
      </trkpt>
      <trkpt lat="42.6706290" lon="-8.2311840">
        <ele>511.3</ele>
        <time>2019-08-18T08:06:41Z</time>
      </trkpt>
      <trkpt lat="42.6706620" lon="-8.2312160">
        <ele>511.4</ele>
        <time>2019-08-18T08:06:42Z</time>
      </trkpt>
      <trkpt lat="42.6706960" lon="-8.2312490">
        <ele>511.4</ele>
        <time>2019-08-18T08:06:43Z</time>
      </trkpt>
      <trkpt lat="42.6707290" lon="-8.2312820">
        <ele>511.5</ele>
        <time>2019-08-18T08:06:44Z</time>
      </trkpt>
      <trkpt lat="42.6707630" lon="-8.2313140">
        <ele>511.5</ele>
        <time>2019-08-18T08:06:45Z</time>
      </trkpt>
      <trkpt lat="42.6707970" lon="-8.2313480">
        <ele>511.6</ele>
        <time>2019-08-18T08:06:46Z</time>
      </trkpt>
      <trkpt lat="42.6708310" lon="-8.2313810">
        <ele>511.8</ele>
        <time>2019-08-18T08:06:47Z</time>
      </trkpt>
      <trkpt lat="42.6708650" lon="-8.2314160">
        <ele>511.8</ele>
        <time>2019-08-18T08:06:48Z</time>
      </trkpt>
      <trkpt lat="42.6709000" lon="-8.2314500">
        <ele>511.9</ele>
        <time>2019-08-18T08:06:49Z</time>
      </trkpt>
      <trkpt lat="42.6709360" lon="-8.2314860">
        <ele>512.0</ele>
        <time>2019-08-18T08:06:50Z</time>
      </trkpt>
      <trkpt lat="42.6709720" lon="-8.2315210">
        <ele>512.1</ele>
        <time>2019-08-18T08:06:51Z</time>
      </trkpt>
      <trkpt lat="42.6710090" lon="-8.2315560">
        <ele>512.2</ele>
        <time>2019-08-18T08:06:52Z</time>
      </trkpt>
      <trkpt lat="42.6710460" lon="-8.2315910">
        <ele>512.2</ele>
        <time>2019-08-18T08:06:53Z</time>
      </trkpt>
      <trkpt lat="42.6710840" lon="-8.2316250">
        <ele>512.3</ele>
        <time>2019-08-18T08:06:54Z</time>
      </trkpt>
      <trkpt lat="42.6711220" lon="-8.2316580">
        <ele>512.4</ele>
        <time>2019-08-18T08:06:55Z</time>
      </trkpt>
      <trkpt lat="42.6711610" lon="-8.2316900">
        <ele>512.5</ele>
        <time>2019-08-18T08:06:56Z</time>
      </trkpt>
      <trkpt lat="42.6712010" lon="-8.2317190">
        <ele>512.6</ele>
        <time>2019-08-18T08:06:57Z</time>
      </trkpt>
      <trkpt lat="42.6712410" lon="-8.2317470">
        <ele>512.7</ele>
        <time>2019-08-18T08:06:58Z</time>
      </trkpt>
      <trkpt lat="42.6712820" lon="-8.2317740">
        <ele>512.7</ele>
        <time>2019-08-18T08:06:59Z</time>
      </trkpt>
      <trkpt lat="42.6713240" lon="-8.2317980">
        <ele>512.8</ele>
        <time>2019-08-18T08:07:00Z</time>
      </trkpt>
      <trkpt lat="42.6713660" lon="-8.2318210">
        <ele>512.9</ele>
        <time>2019-08-18T08:07:01Z</time>
      </trkpt>
      <trkpt lat="42.6714090" lon="-8.2318430">
        <ele>513.0</ele>
        <time>2019-08-18T08:07:02Z</time>
      </trkpt>
      <trkpt lat="42.6714520" lon="-8.2318640">
        <ele>513.1</ele>
        <time>2019-08-18T08:07:03Z</time>
      </trkpt>
      <trkpt lat="42.6714950" lon="-8.2318830">
        <ele>513.2</ele>
        <time>2019-08-18T08:07:04Z</time>
      </trkpt>
      <trkpt lat="42.6715390" lon="-8.2319020">
        <ele>513.3</ele>
        <time>2019-08-18T08:07:05Z</time>
      </trkpt>
      <trkpt lat="42.6715830" lon="-8.2319190">
        <ele>513.4</ele>
        <time>2019-08-18T08:07:06Z</time>
      </trkpt>
      <trkpt lat="42.6716280" lon="-8.2319360">
        <ele>513.5</ele>
        <time>2019-08-18T08:07:07Z</time>
      </trkpt>
      <trkpt lat="42.6716730" lon="-8.2319520">
        <ele>513.6</ele>
        <time>2019-08-18T08:07:08Z</time>
      </trkpt>
      <trkpt lat="42.6717180" lon="-8.2319670">
        <ele>513.7</ele>
        <time>2019-08-18T08:07:09Z</time>
      </trkpt>
      <trkpt lat="42.6717630" lon="-8.2319820">
        <ele>513.9</ele>
        <time>2019-08-18T08:07:10Z</time>
      </trkpt>
      <trkpt lat="42.6718080" lon="-8.2319960">
        <ele>514.2</ele>
        <time>2019-08-18T08:07:11Z</time>
      </trkpt>
      <trkpt lat="42.6718540" lon="-8.2320100">
        <ele>514.4</ele>
        <time>2019-08-18T08:07:12Z</time>
      </trkpt>
      <trkpt lat="42.6719000" lon="-8.2320240">
        <ele>514.7</ele>
        <time>2019-08-18T08:07:13Z</time>
      </trkpt>
      <trkpt lat="42.6719460" lon="-8.2320380">
        <ele>515.0</ele>
        <time>2019-08-18T08:07:14Z</time>
      </trkpt>
      <trkpt lat="42.6719920" lon="-8.2320510">
        <ele>515.3</ele>
        <time>2019-08-18T08:07:15Z</time>
      </trkpt>
      <trkpt lat="42.6720380" lon="-8.2320650">
        <ele>515.5</ele>
        <time>2019-08-18T08:07:16Z</time>
      </trkpt>
      <trkpt lat="42.6720840" lon="-8.2320790">
        <ele>515.8</ele>
        <time>2019-08-18T08:07:17Z</time>
      </trkpt>
      <trkpt lat="42.6721300" lon="-8.2320930">
        <ele>516.0</ele>
        <time>2019-08-18T08:07:18Z</time>
      </trkpt>
      <trkpt lat="42.6721770" lon="-8.2321070">
        <ele>516.2</ele>
        <time>2019-08-18T08:07:19Z</time>
      </trkpt>
      <trkpt lat="42.6722230" lon="-8.2321220">
        <ele>516.3</ele>
        <time>2019-08-18T08:07:20Z</time>
      </trkpt>
      <trkpt lat="42.6722700" lon="-8.2321370">
        <ele>516.4</ele>
        <time>2019-08-18T08:07:21Z</time>
      </trkpt>
      <trkpt lat="42.6723170" lon="-8.2321530">
        <ele>516.5</ele>
        <time>2019-08-18T08:07:22Z</time>
      </trkpt>
      <trkpt lat="42.6723630" lon="-8.2321690">
        <ele>516.6</ele>
        <time>2019-08-18T08:07:23Z</time>
      </trkpt>
      <trkpt lat="42.6724100" lon="-8.2321870">
        <ele>516.6</ele>
        <time>2019-08-18T08:07:24Z</time>
      </trkpt>
      <trkpt lat="42.6724570" lon="-8.2322050">
        <ele>516.7</ele>
        <time>2019-08-18T08:07:25Z</time>
      </trkpt>
      <trkpt lat="42.6725040" lon="-8.2322240">
        <ele>516.7</ele>
        <time>2019-08-18T08:07:26Z</time>
      </trkpt>
      <trkpt lat="42.6725510" lon="-8.2322440">
        <ele>516.8</ele>
        <time>2019-08-18T08:07:27Z</time>
      </trkpt>
      <trkpt lat="42.6725980" lon="-8.2322650">
        <ele>516.8</ele>
        <time>2019-08-18T08:07:28Z</time>
      </trkpt>
      <trkpt lat="42.6726440" lon="-8.2322870">
        <ele>516.9</ele>
        <time>2019-08-18T08:07:29Z</time>
      </trkpt>
      <trkpt lat="42.6726910" lon="-8.2323100">
        <ele>517.0</ele>
        <time>2019-08-18T08:07:30Z</time>
      </trkpt>
      <trkpt lat="42.6727380" lon="-8.2323350">
        <ele>517.1</ele>
        <time>2019-08-18T08:07:31Z</time>
      </trkpt>
      <trkpt lat="42.6727840" lon="-8.2323600">
        <ele>517.2</ele>
        <time>2019-08-18T08:07:32Z</time>
      </trkpt>
      <trkpt lat="42.6728300" lon="-8.2323860">
        <ele>517.3</ele>
        <time>2019-08-18T08:07:33Z</time>
      </trkpt>
      <trkpt lat="42.6728760" lon="-8.2324130">
        <ele>517.4</ele>
        <time>2019-08-18T08:07:34Z</time>
      </trkpt>
      <trkpt lat="42.6729220" lon="-8.2324420">
        <ele>517.7</ele>
        <time>2019-08-18T08:07:35Z</time>
      </trkpt>
      <trkpt lat="42.6729680" lon="-8.2324710">
        <ele>517.9</ele>
        <time>2019-08-18T08:07:36Z</time>
      </trkpt>
      <trkpt lat="42.6730130" lon="-8.2325020">
        <ele>518.2</ele>
        <time>2019-08-18T08:07:37Z</time>
      </trkpt>
      <trkpt lat="42.6730580" lon="-8.2325340">
        <ele>518.5</ele>
        <time>2019-08-18T08:07:38Z</time>
      </trkpt>
      <trkpt lat="42.6731020" lon="-8.2325660">
        <ele>518.8</ele>
        <time>2019-08-18T08:07:39Z</time>
      </trkpt>
      <trkpt lat="42.6731460" lon="-8.2326000">
        <ele>519.1</ele>
        <time>2019-08-18T08:07:40Z</time>
      </trkpt>
      <trkpt lat="42.6731900" lon="-8.2326350">
        <ele>519.5</ele>
        <time>2019-08-18T08:07:41Z</time>
      </trkpt>
      <trkpt lat="42.6732340" lon="-8.2326710">
        <ele>519.5</ele>
        <time>2019-08-18T08:07:42Z</time>
      </trkpt>
      <trkpt lat="42.6732770" lon="-8.2327070">
        <ele>519.5</ele>
        <time>2019-08-18T08:07:43Z</time>
      </trkpt>
      <trkpt lat="42.6733200" lon="-8.2327440">
        <ele>519.5</ele>
        <time>2019-08-18T08:07:44Z</time>
      </trkpt>
      <trkpt lat="42.6733630" lon="-8.2327810">
        <ele>519.5</ele>
        <time>2019-08-18T08:07:45Z</time>
      </trkpt>
      <trkpt lat="42.6734060" lon="-8.2328190">
        <ele>519.5</ele>
        <time>2019-08-18T08:07:46Z</time>
      </trkpt>
      <trkpt lat="42.6734490" lon="-8.2328560">
        <ele>519.5</ele>
        <time>2019-08-18T08:07:47Z</time>
      </trkpt>
      <trkpt lat="42.6734920" lon="-8.2328940">
        <ele>519.5</ele>
        <time>2019-08-18T08:07:48Z</time>
      </trkpt>
      <trkpt lat="42.6735350" lon="-8.2329310">
        <ele>519.5</ele>
        <time>2019-08-18T08:07:49Z</time>
      </trkpt>
      <trkpt lat="42.6735780" lon="-8.2329680">
        <ele>519.4</ele>
        <time>2019-08-18T08:07:50Z</time>
      </trkpt>
      <trkpt lat="42.6736220" lon="-8.2330050">
        <ele>519.4</ele>
        <time>2019-08-18T08:07:51Z</time>
      </trkpt>
      <trkpt lat="42.6736650" lon="-8.2330410">
        <ele>519.4</ele>
        <time>2019-08-18T08:07:52Z</time>
      </trkpt>
      <trkpt lat="42.6737090" lon="-8.2330760">
        <ele>519.4</ele>
        <time>2019-08-18T08:07:53Z</time>
      </trkpt>
      <trkpt lat="42.6737540" lon="-8.2331100">
        <ele>519.4</ele>
        <time>2019-08-18T08:07:54Z</time>
      </trkpt>
      <trkpt lat="42.6737990" lon="-8.2331430">
        <ele>519.4</ele>
        <time>2019-08-18T08:07:55Z</time>
      </trkpt>
      <trkpt lat="42.6738440" lon="-8.2331750">
        <ele>519.4</ele>
        <time>2019-08-18T08:07:56Z</time>
      </trkpt>
      <trkpt lat="42.6738900" lon="-8.2332060">
        <ele>519.4</ele>
        <time>2019-08-18T08:07:57Z</time>
      </trkpt>
      <trkpt lat="42.6739360" lon="-8.2332360">
        <ele>519.5</ele>
        <time>2019-08-18T08:07:58Z</time>
      </trkpt>
      <trkpt lat="42.6739820" lon="-8.2332640">
        <ele>519.5</ele>
        <time>2019-08-18T08:07:59Z</time>
      </trkpt>
      <trkpt lat="42.6740280" lon="-8.2332920">
        <ele>519.6</ele>
        <time>2019-08-18T08:08:00Z</time>
      </trkpt>
      <trkpt lat="42.6740740" lon="-8.2333180">
        <ele>519.7</ele>
        <time>2019-08-18T08:08:01Z</time>
      </trkpt>
      <trkpt lat="42.6741200" lon="-8.2333430">
        <ele>519.8</ele>
        <time>2019-08-18T08:08:02Z</time>
      </trkpt>
      <trkpt lat="42.6741660" lon="-8.2333660">
        <ele>520.0</ele>
        <time>2019-08-18T08:08:03Z</time>
      </trkpt>
      <trkpt lat="42.6742120" lon="-8.2333880">
        <ele>520.2</ele>
        <time>2019-08-18T08:08:04Z</time>
      </trkpt>
      <trkpt lat="42.6742580" lon="-8.2334090">
        <ele>520.4</ele>
        <time>2019-08-18T08:08:05Z</time>
      </trkpt>
      <trkpt lat="42.6743030" lon="-8.2334290">
        <ele>520.6</ele>
        <time>2019-08-18T08:08:06Z</time>
      </trkpt>
      <trkpt lat="42.6743480" lon="-8.2334470">
        <ele>520.8</ele>
        <time>2019-08-18T08:08:07Z</time>
      </trkpt>
      <trkpt lat="42.6743930" lon="-8.2334630">
        <ele>521.0</ele>
        <time>2019-08-18T08:08:08Z</time>
      </trkpt>
      <trkpt lat="42.6744370" lon="-8.2334780">
        <ele>521.1</ele>
        <time>2019-08-18T08:08:09Z</time>
      </trkpt>
      <trkpt lat="42.6744800" lon="-8.2334920">
        <ele>521.2</ele>
        <time>2019-08-18T08:08:10Z</time>
      </trkpt>
      <trkpt lat="42.6745230" lon="-8.2335040">
        <ele>521.2</ele>
        <time>2019-08-18T08:08:11Z</time>
      </trkpt>
      <trkpt lat="42.6745650" lon="-8.2335150">
        <ele>521.3</ele>
        <time>2019-08-18T08:08:12Z</time>
      </trkpt>
      <trkpt lat="42.6746070" lon="-8.2335240">
        <ele>521.3</ele>
        <time>2019-08-18T08:08:13Z</time>
      </trkpt>
      <trkpt lat="42.6746480" lon="-8.2335320">
        <ele>521.4</ele>
        <time>2019-08-18T08:08:14Z</time>
      </trkpt>
      <trkpt lat="42.6746890" lon="-8.2335390">
        <ele>521.4</ele>
        <time>2019-08-18T08:08:15Z</time>
      </trkpt>
      <trkpt lat="42.6747290" lon="-8.2335450">
        <ele>521.5</ele>
        <time>2019-08-18T08:08:16Z</time>
      </trkpt>
      <trkpt lat="42.6747690" lon="-8.2335490">
        <ele>521.6</ele>
        <time>2019-08-18T08:08:17Z</time>
      </trkpt>
      <trkpt lat="42.6748080" lon="-8.2335530">
        <ele>521.8</ele>
        <time>2019-08-18T08:08:18Z</time>
      </trkpt>
      <trkpt lat="42.6748460" lon="-8.2335550">
        <ele>521.9</ele>
        <time>2019-08-18T08:08:19Z</time>
      </trkpt>
      <trkpt lat="42.6748850" lon="-8.2335570">
        <ele>522.1</ele>
        <time>2019-08-18T08:08:20Z</time>
      </trkpt>
      <trkpt lat="42.6749220" lon="-8.2335570">
        <ele>522.4</ele>
        <time>2019-08-18T08:08:21Z</time>
      </trkpt>
      <trkpt lat="42.6749600" lon="-8.2335570">
        <ele>522.6</ele>
        <time>2019-08-18T08:08:22Z</time>
      </trkpt>
      <trkpt lat="42.6749970" lon="-8.2335560">
        <ele>522.8</ele>
        <time>2019-08-18T08:08:23Z</time>
      </trkpt>
      <trkpt lat="42.6750330" lon="-8.2335540">
        <ele>523.0</ele>
        <time>2019-08-18T08:08:24Z</time>
      </trkpt>
      <trkpt lat="42.6750690" lon="-8.2335520">
        <ele>523.2</ele>
        <time>2019-08-18T08:08:25Z</time>
      </trkpt>
      <trkpt lat="42.6751050" lon="-8.2335490">
        <ele>523.4</ele>
        <time>2019-08-18T08:08:26Z</time>
      </trkpt>
      <trkpt lat="42.6751410" lon="-8.2335450">
        <ele>523.5</ele>
        <time>2019-08-18T08:08:27Z</time>
      </trkpt>
      <trkpt lat="42.6751760" lon="-8.2335400">
        <ele>523.7</ele>
        <time>2019-08-18T08:08:28Z</time>
      </trkpt>
      <trkpt lat="42.6752110" lon="-8.2335350">
        <ele>523.8</ele>
        <time>2019-08-18T08:08:29Z</time>
      </trkpt>
      <trkpt lat="42.6752460" lon="-8.2335300">
        <ele>523.9</ele>
        <time>2019-08-18T08:08:30Z</time>
      </trkpt>
      <trkpt lat="42.6752810" lon="-8.2335240">
        <ele>524.1</ele>
        <time>2019-08-18T08:08:31Z</time>
      </trkpt>
      <trkpt lat="42.6753150" lon="-8.2335170">
        <ele>524.2</ele>
        <time>2019-08-18T08:08:32Z</time>
      </trkpt>
      <trkpt lat="42.6753500" lon="-8.2335100">
        <ele>524.4</ele>
        <time>2019-08-18T08:08:33Z</time>
      </trkpt>
      <trkpt lat="42.6753850" lon="-8.2335020">
        <ele>524.6</ele>
        <time>2019-08-18T08:08:34Z</time>
      </trkpt>
      <trkpt lat="42.6754190" lon="-8.2334940">
        <ele>524.8</ele>
        <time>2019-08-18T08:08:35Z</time>
      </trkpt>
      <trkpt lat="42.6754540" lon="-8.2334850">
        <ele>525.0</ele>
        <time>2019-08-18T08:08:36Z</time>
      </trkpt>
      <trkpt lat="42.6754890" lon="-8.2334760">
        <ele>525.2</ele>
        <time>2019-08-18T08:08:37Z</time>
      </trkpt>
      <trkpt lat="42.6755240" lon="-8.2334670">
        <ele>525.4</ele>
        <time>2019-08-18T08:08:38Z</time>
      </trkpt>
      <trkpt lat="42.6755600" lon="-8.2334570">
        <ele>525.6</ele>
        <time>2019-08-18T08:08:39Z</time>
      </trkpt>
      <trkpt lat="42.6755950" lon="-8.2334470">
        <ele>525.9</ele>
        <time>2019-08-18T08:08:40Z</time>
      </trkpt>
      <trkpt lat="42.6756300" lon="-8.2334370">
        <ele>526.1</ele>
        <time>2019-08-18T08:08:41Z</time>
      </trkpt>
      <trkpt lat="42.6756660" lon="-8.2334260">
        <ele>526.3</ele>
        <time>2019-08-18T08:08:42Z</time>
      </trkpt>
      <trkpt lat="42.6757010" lon="-8.2334150">
        <ele>526.5</ele>
        <time>2019-08-18T08:08:43Z</time>
      </trkpt>
      <trkpt lat="42.6757360" lon="-8.2334040">
        <ele>526.7</ele>
        <time>2019-08-18T08:08:44Z</time>
      </trkpt>
      <trkpt lat="42.6757700" lon="-8.2333920">
        <ele>526.9</ele>
        <time>2019-08-18T08:08:45Z</time>
      </trkpt>
      <trkpt lat="42.6758040" lon="-8.2333810">
        <ele>527.1</ele>
        <time>2019-08-18T08:08:46Z</time>
      </trkpt>
      <trkpt lat="42.6758380" lon="-8.2333690">
        <ele>527.2</ele>
        <time>2019-08-18T08:08:47Z</time>
      </trkpt>
      <trkpt lat="42.6758710" lon="-8.2333580">
        <ele>527.4</ele>
        <time>2019-08-18T08:08:48Z</time>
      </trkpt>
      <trkpt lat="42.6759030" lon="-8.2333460">
        <ele>527.6</ele>
        <time>2019-08-18T08:08:49Z</time>
      </trkpt>
      <trkpt lat="42.6759350" lon="-8.2333350">
        <ele>527.8</ele>
        <time>2019-08-18T08:08:50Z</time>
      </trkpt>
      <trkpt lat="42.6759670" lon="-8.2333240">
        <ele>527.9</ele>
        <time>2019-08-18T08:08:51Z</time>
      </trkpt>
      <trkpt lat="42.6759980" lon="-8.2333130">
        <ele>528.1</ele>
        <time>2019-08-18T08:08:52Z</time>
      </trkpt>
      <trkpt lat="42.6760300" lon="-8.2333030">
        <ele>528.3</ele>
        <time>2019-08-18T08:08:53Z</time>
      </trkpt>
      <trkpt lat="42.6760610" lon="-8.2332930">
        <ele>528.4</ele>
        <time>2019-08-18T08:08:54Z</time>
      </trkpt>
      <trkpt lat="42.6760910" lon="-8.2332830">
        <ele>528.6</ele>
        <time>2019-08-18T08:08:55Z</time>
      </trkpt>
      <trkpt lat="42.6761220" lon="-8.2332750">
        <ele>528.8</ele>
        <time>2019-08-18T08:08:56Z</time>
      </trkpt>
      <trkpt lat="42.6761510" lon="-8.2332670">
        <ele>528.9</ele>
        <time>2019-08-18T08:08:57Z</time>
      </trkpt>
      <trkpt lat="42.6761800" lon="-8.2332590">
        <ele>529.1</ele>
        <time>2019-08-18T08:08:58Z</time>
      </trkpt>
      <trkpt lat="42.6762080" lon="-8.2332520">
        <ele>529.3</ele>
        <time>2019-08-18T08:08:59Z</time>
      </trkpt>
      <trkpt lat="42.6762350" lon="-8.2332460">
        <ele>529.4</ele>
        <time>2019-08-18T08:09:00Z</time>
      </trkpt>
      <trkpt lat="42.6762600" lon="-8.2332400">
        <ele>529.5</ele>
        <time>2019-08-18T08:09:01Z</time>
      </trkpt>
      <trkpt lat="42.6762850" lon="-8.2332350">
        <ele>529.7</ele>
        <time>2019-08-18T08:09:02Z</time>
      </trkpt>
      <trkpt lat="42.6763090" lon="-8.2332300">
        <ele>529.9</ele>
        <time>2019-08-18T08:09:03Z</time>
      </trkpt>
      <trkpt lat="42.6763340" lon="-8.2332260">
        <ele>529.9</ele>
        <time>2019-08-18T08:09:04Z</time>
      </trkpt>
      <trkpt lat="42.6763590" lon="-8.2332210">
        <ele>529.9</ele>
        <time>2019-08-18T08:09:05Z</time>
      </trkpt>
      <trkpt lat="42.6763850" lon="-8.2332170">
        <ele>530.0</ele>
        <time>2019-08-18T08:09:06Z</time>
      </trkpt>
      <trkpt lat="42.6764120" lon="-8.2332130">
        <ele>530.0</ele>
        <time>2019-08-18T08:09:07Z</time>
      </trkpt>
      <trkpt lat="42.6764420" lon="-8.2332090">
        <ele>530.0</ele>
        <time>2019-08-18T08:09:08Z</time>
      </trkpt>
      <trkpt lat="42.6764720" lon="-8.2332040">
        <ele>530.0</ele>
        <time>2019-08-18T08:09:09Z</time>
      </trkpt>
      <trkpt lat="42.6765040" lon="-8.2332000">
        <ele>530.1</ele>
        <time>2019-08-18T08:09:10Z</time>
      </trkpt>
      <trkpt lat="42.6765350" lon="-8.2331950">
        <ele>530.1</ele>
        <time>2019-08-18T08:09:11Z</time>
      </trkpt>
      <trkpt lat="42.6765670" lon="-8.2331900">
        <ele>530.1</ele>
        <time>2019-08-18T08:09:12Z</time>
      </trkpt>
      <trkpt lat="42.6765980" lon="-8.2331860">
        <ele>530.2</ele>
        <time>2019-08-18T08:09:13Z</time>
      </trkpt>
      <trkpt lat="42.6766290" lon="-8.2331820">
        <ele>530.2</ele>
        <time>2019-08-18T08:09:14Z</time>
      </trkpt>
      <trkpt lat="42.6766610" lon="-8.2331800">
        <ele>530.3</ele>
        <time>2019-08-18T08:09:15Z</time>
      </trkpt>
      <trkpt lat="42.6767180" lon="-8.2331820">
        <ele>530.3</ele>
        <time>2019-08-18T08:09:16Z</time>
      </trkpt>
      <trkpt lat="42.6767410" lon="-8.2331830">
        <ele>530.4</ele>
        <time>2019-08-18T08:09:17Z</time>
      </trkpt>
      <trkpt lat="42.6767650" lon="-8.2331850">
        <ele>530.4</ele>
        <time>2019-08-18T08:09:18Z</time>
      </trkpt>
      <trkpt lat="42.6768000" lon="-8.2331890">
        <ele>530.5</ele>
        <time>2019-08-18T08:09:19Z</time>
      </trkpt>
      <trkpt lat="42.6768360" lon="-8.2331940">
        <ele>530.5</ele>
        <time>2019-08-18T08:09:20Z</time>
      </trkpt>
      <trkpt lat="42.6768730" lon="-8.2332000">
        <ele>530.6</ele>
        <time>2019-08-18T08:09:21Z</time>
      </trkpt>
      <trkpt lat="42.6769090" lon="-8.2332060">
        <ele>530.6</ele>
        <time>2019-08-18T08:09:22Z</time>
      </trkpt>
      <trkpt lat="42.6769460" lon="-8.2332130">
        <ele>530.7</ele>
        <time>2019-08-18T08:09:23Z</time>
      </trkpt>
      <trkpt lat="42.6769820" lon="-8.2332200">
        <ele>530.8</ele>
        <time>2019-08-18T08:09:24Z</time>
      </trkpt>
      <trkpt lat="42.6770190" lon="-8.2332270">
        <ele>530.8</ele>
        <time>2019-08-18T08:09:25Z</time>
      </trkpt>
      <trkpt lat="42.6770550" lon="-8.2332350">
        <ele>530.9</ele>
        <time>2019-08-18T08:09:26Z</time>
      </trkpt>
      <trkpt lat="42.6770920" lon="-8.2332440">
        <ele>530.9</ele>
        <time>2019-08-18T08:09:27Z</time>
      </trkpt>
      <trkpt lat="42.6771290" lon="-8.2332520">
        <ele>531.0</ele>
        <time>2019-08-18T08:09:28Z</time>
      </trkpt>
      <trkpt lat="42.6771650" lon="-8.2332620">
        <ele>531.0</ele>
        <time>2019-08-18T08:09:29Z</time>
      </trkpt>
      <trkpt lat="42.6772030" lon="-8.2332730">
        <ele>531.1</ele>
        <time>2019-08-18T08:09:30Z</time>
      </trkpt>
      <trkpt lat="42.6772400" lon="-8.2332840">
        <ele>531.1</ele>
        <time>2019-08-18T08:09:31Z</time>
      </trkpt>
      <trkpt lat="42.6772780" lon="-8.2332970">
        <ele>531.2</ele>
        <time>2019-08-18T08:09:32Z</time>
      </trkpt>
      <trkpt lat="42.6773160" lon="-8.2333100">
        <ele>531.2</ele>
        <time>2019-08-18T08:09:33Z</time>
      </trkpt>
      <trkpt lat="42.6773550" lon="-8.2333250">
        <ele>531.3</ele>
        <time>2019-08-18T08:09:34Z</time>
      </trkpt>
      <trkpt lat="42.6773940" lon="-8.2333410">
        <ele>531.3</ele>
        <time>2019-08-18T08:09:35Z</time>
      </trkpt>
      <trkpt lat="42.6774340" lon="-8.2333580">
        <ele>531.4</ele>
        <time>2019-08-18T08:09:36Z</time>
      </trkpt>
      <trkpt lat="42.6774740" lon="-8.2333770">
        <ele>531.4</ele>
        <time>2019-08-18T08:09:37Z</time>
      </trkpt>
      <trkpt lat="42.6775150" lon="-8.2333970">
        <ele>531.5</ele>
        <time>2019-08-18T08:09:38Z</time>
      </trkpt>
      <trkpt lat="42.6775560" lon="-8.2334180">
        <ele>531.6</ele>
        <time>2019-08-18T08:09:39Z</time>
      </trkpt>
      <trkpt lat="42.6775970" lon="-8.2334400">
        <ele>531.6</ele>
        <time>2019-08-18T08:09:40Z</time>
      </trkpt>
      <trkpt lat="42.6776390" lon="-8.2334630">
        <ele>531.7</ele>
        <time>2019-08-18T08:09:41Z</time>
      </trkpt>
      <trkpt lat="42.6776810" lon="-8.2334870">
        <ele>531.8</ele>
        <time>2019-08-18T08:09:42Z</time>
      </trkpt>
      <trkpt lat="42.6777220" lon="-8.2335120">
        <ele>531.8</ele>
        <time>2019-08-18T08:09:43Z</time>
      </trkpt>
      <trkpt lat="42.6777640" lon="-8.2335370">
        <ele>531.9</ele>
        <time>2019-08-18T08:09:44Z</time>
      </trkpt>
      <trkpt lat="42.6778050" lon="-8.2335630">
        <ele>531.9</ele>
        <time>2019-08-18T08:09:45Z</time>
      </trkpt>
      <trkpt lat="42.6778460" lon="-8.2335890">
        <ele>531.8</ele>
        <time>2019-08-18T08:09:46Z</time>
      </trkpt>
      <trkpt lat="42.6778870" lon="-8.2336160">
        <ele>531.8</ele>
        <time>2019-08-18T08:09:47Z</time>
      </trkpt>
      <trkpt lat="42.6779280" lon="-8.2336430">
        <ele>531.8</ele>
        <time>2019-08-18T08:09:48Z</time>
      </trkpt>
      <trkpt lat="42.6779700" lon="-8.2336690">
        <ele>531.8</ele>
        <time>2019-08-18T08:09:49Z</time>
      </trkpt>
      <trkpt lat="42.6780120" lon="-8.2336960">
        <ele>531.8</ele>
        <time>2019-08-18T08:09:50Z</time>
      </trkpt>
      <trkpt lat="42.6780560" lon="-8.2337230">
        <ele>531.7</ele>
        <time>2019-08-18T08:09:51Z</time>
      </trkpt>
      <trkpt lat="42.6781000" lon="-8.2337500">
        <ele>531.6</ele>
        <time>2019-08-18T08:09:52Z</time>
      </trkpt>
      <trkpt lat="42.6781440" lon="-8.2337770">
        <ele>531.4</ele>
        <time>2019-08-18T08:09:53Z</time>
      </trkpt>
      <trkpt lat="42.6781900" lon="-8.2338040">
        <ele>531.3</ele>
        <time>2019-08-18T08:09:54Z</time>
      </trkpt>
      <trkpt lat="42.6782350" lon="-8.2338320">
        <ele>531.0</ele>
        <time>2019-08-18T08:09:55Z</time>
      </trkpt>
      <trkpt lat="42.6782800" lon="-8.2338610">
        <ele>530.9</ele>
        <time>2019-08-18T08:09:56Z</time>
      </trkpt>
      <trkpt lat="42.6783250" lon="-8.2338910">
        <ele>530.8</ele>
        <time>2019-08-18T08:09:57Z</time>
      </trkpt>
      <trkpt lat="42.6783700" lon="-8.2339230">
        <ele>530.6</ele>
        <time>2019-08-18T08:09:58Z</time>
      </trkpt>
      <trkpt lat="42.6784420" lon="-8.2339800">
        <ele>530.4</ele>
        <time>2019-08-18T08:09:59Z</time>
      </trkpt>
      <trkpt lat="42.6784710" lon="-8.2340030">
        <ele>530.3</ele>
        <time>2019-08-18T08:10:00Z</time>
      </trkpt>
      <trkpt lat="42.6784990" lon="-8.2340270">
        <ele>530.2</ele>
        <time>2019-08-18T08:10:01Z</time>
      </trkpt>
      <trkpt lat="42.6785410" lon="-8.2340650">
        <ele>530.0</ele>
        <time>2019-08-18T08:10:02Z</time>
      </trkpt>
      <trkpt lat="42.6785830" lon="-8.2341050">
        <ele>529.8</ele>
        <time>2019-08-18T08:10:03Z</time>
      </trkpt>
      <trkpt lat="42.6786560" lon="-8.2341760">
        <ele>529.4</ele>
        <time>2019-08-18T08:10:04Z</time>
      </trkpt>
      <trkpt lat="42.6786860" lon="-8.2342060">
        <ele>529.3</ele>
        <time>2019-08-18T08:10:05Z</time>
      </trkpt>
      <trkpt lat="42.6787160" lon="-8.2342350">
        <ele>529.1</ele>
        <time>2019-08-18T08:10:06Z</time>
      </trkpt>
      <trkpt lat="42.6787640" lon="-8.2342810">
        <ele>528.8</ele>
        <time>2019-08-18T08:10:07Z</time>
      </trkpt>
      <trkpt lat="42.6788130" lon="-8.2343290">
        <ele>528.4</ele>
        <time>2019-08-18T08:10:08Z</time>
      </trkpt>
      <trkpt lat="42.6788650" lon="-8.2343790">
        <ele>528.0</ele>
        <time>2019-08-18T08:10:09Z</time>
      </trkpt>
      <trkpt lat="42.6789190" lon="-8.2344310">
        <ele>527.5</ele>
        <time>2019-08-18T08:10:10Z</time>
      </trkpt>
      <trkpt lat="42.6789740" lon="-8.2344850">
        <ele>527.1</ele>
        <time>2019-08-18T08:10:11Z</time>
      </trkpt>
      <trkpt lat="42.6790320" lon="-8.2345420">
        <ele>526.5</ele>
        <time>2019-08-18T08:10:12Z</time>
      </trkpt>
      <trkpt lat="42.6790910" lon="-8.2346010">
        <ele>525.9</ele>
        <time>2019-08-18T08:10:13Z</time>
      </trkpt>
      <trkpt lat="42.6791850" lon="-8.2346960">
        <ele>525.0</ele>
        <time>2019-08-18T08:10:14Z</time>
      </trkpt>
      <trkpt lat="42.6792160" lon="-8.2347290">
        <ele>524.7</ele>
        <time>2019-08-18T08:10:15Z</time>
      </trkpt>
      <trkpt lat="42.6792800" lon="-8.2347970">
        <ele>524.0</ele>
        <time>2019-08-18T08:10:16Z</time>
      </trkpt>
      <trkpt lat="42.6793440" lon="-8.2348690">
        <ele>523.3</ele>
        <time>2019-08-18T08:10:17Z</time>
      </trkpt>
      <trkpt lat="42.6794060" lon="-8.2349460">
        <ele>522.6</ele>
        <time>2019-08-18T08:10:18Z</time>
      </trkpt>
      <trkpt lat="42.6794660" lon="-8.2350270">
        <ele>522.0</ele>
        <time>2019-08-18T08:10:19Z</time>
      </trkpt>
      <trkpt lat="42.6795230" lon="-8.2351120">
        <ele>521.6</ele>
        <time>2019-08-18T08:10:20Z</time>
      </trkpt>
      <trkpt lat="42.6795750" lon="-8.2352030">
        <ele>521.2</ele>
        <time>2019-08-18T08:10:21Z</time>
      </trkpt>
      <trkpt lat="42.6796220" lon="-8.2353000">
        <ele>520.8</ele>
        <time>2019-08-18T08:10:22Z</time>
      </trkpt>
      <trkpt lat="42.6796640" lon="-8.2354010">
        <ele>520.3</ele>
        <time>2019-08-18T08:10:23Z</time>
      </trkpt>
      <trkpt lat="42.6797010" lon="-8.2355080">
        <ele>519.8</ele>
        <time>2019-08-18T08:10:24Z</time>
      </trkpt>
      <trkpt lat="42.6797340" lon="-8.2356190">
        <ele>519.3</ele>
        <time>2019-08-18T08:10:25Z</time>
      </trkpt>
      <trkpt lat="42.6797630" lon="-8.2357340">
        <ele>518.7</ele>
        <time>2019-08-18T08:10:26Z</time>
      </trkpt>
      <trkpt lat="42.6797900" lon="-8.2358530">
        <ele>518.5</ele>
        <time>2019-08-18T08:10:27Z</time>
      </trkpt>
      <trkpt lat="42.6798140" lon="-8.2359750">
        <ele>518.3</ele>
        <time>2019-08-18T08:10:28Z</time>
      </trkpt>
      <trkpt lat="42.6798350" lon="-8.2361000">
        <ele>518.2</ele>
        <time>2019-08-18T08:10:29Z</time>
      </trkpt>
      <trkpt lat="42.6798560" lon="-8.2362260">
        <ele>517.9</ele>
        <time>2019-08-18T08:10:30Z</time>
      </trkpt>
      <trkpt lat="42.6798760" lon="-8.2363530">
        <ele>517.8</ele>
        <time>2019-08-18T08:10:31Z</time>
      </trkpt>
      <trkpt lat="42.6798960" lon="-8.2364790">
        <ele>517.7</ele>
        <time>2019-08-18T08:10:32Z</time>
      </trkpt>
      <trkpt lat="42.6799180" lon="-8.2366030">
        <ele>517.5</ele>
        <time>2019-08-18T08:10:33Z</time>
      </trkpt>
      <trkpt lat="42.6799440" lon="-8.2367220">
        <ele>517.3</ele>
        <time>2019-08-18T08:10:34Z</time>
      </trkpt>
      <trkpt lat="42.6799690" lon="-8.2368420">
        <ele>517.0</ele>
        <time>2019-08-18T08:10:35Z</time>
      </trkpt>
      <trkpt lat="42.6800000" lon="-8.2369530">
        <ele>516.7</ele>
        <time>2019-08-18T08:10:36Z</time>
      </trkpt>
      <trkpt lat="42.6800350" lon="-8.2370600">
        <ele>516.4</ele>
        <time>2019-08-18T08:10:37Z</time>
      </trkpt>
      <trkpt lat="42.6800730" lon="-8.2371610">
        <ele>516.1</ele>
        <time>2019-08-18T08:10:38Z</time>
      </trkpt>
      <trkpt lat="42.6801150" lon="-8.2372580">
        <ele>515.7</ele>
        <time>2019-08-18T08:10:39Z</time>
      </trkpt>
      <trkpt lat="42.6801600" lon="-8.2373510">
        <ele>515.2</ele>
        <time>2019-08-18T08:10:40Z</time>
      </trkpt>
      <trkpt lat="42.6802090" lon="-8.2374400">
        <ele>514.7</ele>
        <time>2019-08-18T08:10:41Z</time>
      </trkpt>
      <trkpt lat="42.6802990" lon="-8.2375780">
        <ele>513.9</ele>
        <time>2019-08-18T08:10:42Z</time>
      </trkpt>
      <trkpt lat="42.6803370" lon="-8.2376310">
        <ele>513.4</ele>
        <time>2019-08-18T08:10:43Z</time>
      </trkpt>
      <trkpt lat="42.6803750" lon="-8.2376850">
        <ele>513.0</ele>
        <time>2019-08-18T08:10:44Z</time>
      </trkpt>
      <trkpt lat="42.6804370" lon="-8.2377600">
        <ele>512.2</ele>
        <time>2019-08-18T08:10:45Z</time>
      </trkpt>
      <trkpt lat="42.6805010" lon="-8.2378330">
        <ele>511.6</ele>
        <time>2019-08-18T08:10:46Z</time>
      </trkpt>
      <trkpt lat="42.6806160" lon="-8.2379500">
        <ele>510.6</ele>
        <time>2019-08-18T08:10:47Z</time>
      </trkpt>
      <trkpt lat="42.6806640" lon="-8.2379960">
        <ele>510.2</ele>
        <time>2019-08-18T08:10:48Z</time>
      </trkpt>
      <trkpt lat="42.6807110" lon="-8.2380410">
        <ele>509.7</ele>
        <time>2019-08-18T08:10:49Z</time>
      </trkpt>
      <trkpt lat="42.6807870" lon="-8.2381080">
        <ele>509.1</ele>
        <time>2019-08-18T08:10:50Z</time>
      </trkpt>
      <trkpt lat="42.6808640" lon="-8.2381730">
        <ele>508.6</ele>
        <time>2019-08-18T08:10:51Z</time>
      </trkpt>
      <trkpt lat="42.6809430" lon="-8.2382390">
        <ele>507.9</ele>
        <time>2019-08-18T08:10:52Z</time>
      </trkpt>
      <trkpt lat="42.6810230" lon="-8.2383050">
        <ele>507.2</ele>
        <time>2019-08-18T08:10:53Z</time>
      </trkpt>
      <trkpt lat="42.6811040" lon="-8.2383730">
        <ele>506.5</ele>
        <time>2019-08-18T08:10:54Z</time>
      </trkpt>
      <trkpt lat="42.6811830" lon="-8.2384450">
        <ele>505.7</ele>
        <time>2019-08-18T08:10:55Z</time>
      </trkpt>
      <trkpt lat="42.6812610" lon="-8.2385200">
        <ele>504.8</ele>
        <time>2019-08-18T08:10:56Z</time>
      </trkpt>
      <trkpt lat="42.6813370" lon="-8.2385990">
        <ele>503.9</ele>
        <time>2019-08-18T08:10:57Z</time>
      </trkpt>
      <trkpt lat="42.6814110" lon="-8.2386850">
        <ele>503.2</ele>
        <time>2019-08-18T08:10:58Z</time>
      </trkpt>
      <trkpt lat="42.6814810" lon="-8.2387750">
        <ele>503.1</ele>
        <time>2019-08-18T08:10:59Z</time>
      </trkpt>
      <trkpt lat="42.6815500" lon="-8.2388700">
        <ele>502.9</ele>
        <time>2019-08-18T08:11:00Z</time>
      </trkpt>
      <trkpt lat="42.6816160" lon="-8.2389680">
        <ele>502.7</ele>
        <time>2019-08-18T08:11:01Z</time>
      </trkpt>
      <trkpt lat="42.6816820" lon="-8.2390690">
        <ele>502.3</ele>
        <time>2019-08-18T08:11:02Z</time>
      </trkpt>
      <trkpt lat="42.6817460" lon="-8.2391730">
        <ele>502.1</ele>
        <time>2019-08-18T08:11:03Z</time>
      </trkpt>
      <trkpt lat="42.6818100" lon="-8.2392780">
        <ele>501.8</ele>
        <time>2019-08-18T08:11:04Z</time>
      </trkpt>
      <trkpt lat="42.6818740" lon="-8.2393840">
        <ele>501.4</ele>
        <time>2019-08-18T08:11:05Z</time>
      </trkpt>
      <trkpt lat="42.6819370" lon="-8.2394910">
        <ele>501.2</ele>
        <time>2019-08-18T08:11:06Z</time>
      </trkpt>
      <trkpt lat="42.6820000" lon="-8.2395990">
        <ele>501.0</ele>
        <time>2019-08-18T08:11:07Z</time>
      </trkpt>
      <trkpt lat="42.6820620" lon="-8.2397060">
        <ele>500.6</ele>
        <time>2019-08-18T08:11:08Z</time>
      </trkpt>
      <trkpt lat="42.6821240" lon="-8.2398140">
        <ele>500.3</ele>
        <time>2019-08-18T08:11:09Z</time>
      </trkpt>
      <trkpt lat="42.6821860" lon="-8.2399210">
        <ele>500.0</ele>
        <time>2019-08-18T08:11:10Z</time>
      </trkpt>
      <trkpt lat="42.6822460" lon="-8.2400270">
        <ele>499.7</ele>
        <time>2019-08-18T08:11:11Z</time>
      </trkpt>
      <trkpt lat="42.6823060" lon="-8.2401320">
        <ele>499.5</ele>
        <time>2019-08-18T08:11:12Z</time>
      </trkpt>
      <trkpt lat="42.6823650" lon="-8.2402360">
        <ele>499.2</ele>
        <time>2019-08-18T08:11:13Z</time>
      </trkpt>
      <trkpt lat="42.6824220" lon="-8.2403380">
        <ele>498.9</ele>
        <time>2019-08-18T08:11:14Z</time>
      </trkpt>
      <trkpt lat="42.6824800" lon="-8.2404400">
        <ele>498.4</ele>
        <time>2019-08-18T08:11:15Z</time>
      </trkpt>
      <trkpt lat="42.6825360" lon="-8.2405390">
        <ele>498.0</ele>
        <time>2019-08-18T08:11:16Z</time>
      </trkpt>
      <trkpt lat="42.6825930" lon="-8.2406370">
        <ele>497.5</ele>
        <time>2019-08-18T08:11:17Z</time>
      </trkpt>
      <trkpt lat="42.6826490" lon="-8.2407330">
        <ele>497.0</ele>
        <time>2019-08-18T08:11:18Z</time>
      </trkpt>
      <trkpt lat="42.6827060" lon="-8.2408280">
        <ele>496.4</ele>
        <time>2019-08-18T08:11:19Z</time>
      </trkpt>
      <trkpt lat="42.6827630" lon="-8.2409210">
        <ele>495.9</ele>
        <time>2019-08-18T08:11:20Z</time>
      </trkpt>
      <trkpt lat="42.6828210" lon="-8.2410110">
        <ele>495.3</ele>
        <time>2019-08-18T08:11:21Z</time>
      </trkpt>
      <trkpt lat="42.6828800" lon="-8.2411010">
        <ele>494.6</ele>
        <time>2019-08-18T08:11:22Z</time>
      </trkpt>
      <trkpt lat="42.6829420" lon="-8.2411880">
        <ele>493.8</ele>
        <time>2019-08-18T08:11:23Z</time>
      </trkpt>
      <trkpt lat="42.6830070" lon="-8.2412740">
        <ele>493.0</ele>
        <time>2019-08-18T08:11:24Z</time>
      </trkpt>
      <trkpt lat="42.6830750" lon="-8.2413590">
        <ele>492.2</ele>
        <time>2019-08-18T08:11:25Z</time>
      </trkpt>
      <trkpt lat="42.6831470" lon="-8.2414420">
        <ele>491.2</ele>
        <time>2019-08-18T08:11:26Z</time>
      </trkpt>
      <trkpt lat="42.6832230" lon="-8.2415240">
        <ele>489.9</ele>
        <time>2019-08-18T08:11:27Z</time>
      </trkpt>
      <trkpt lat="42.6833030" lon="-8.2416060">
        <ele>488.2</ele>
        <time>2019-08-18T08:11:28Z</time>
      </trkpt>
      <trkpt lat="42.6833860" lon="-8.2416890">
        <ele>486.9</ele>
        <time>2019-08-18T08:11:29Z</time>
      </trkpt>
      <trkpt lat="42.6834700" lon="-8.2417740">
        <ele>485.7</ele>
        <time>2019-08-18T08:11:30Z</time>
      </trkpt>
      <trkpt lat="42.6835550" lon="-8.2418620">
        <ele>484.4</ele>
        <time>2019-08-18T08:11:31Z</time>
      </trkpt>
      <trkpt lat="42.6836410" lon="-8.2419510">
        <ele>483.3</ele>
        <time>2019-08-18T08:11:32Z</time>
      </trkpt>
      <trkpt lat="42.6837280" lon="-8.2420430">
        <ele>482.3</ele>
        <time>2019-08-18T08:11:33Z</time>
      </trkpt>
      <trkpt lat="42.6838150" lon="-8.2421350">
        <ele>481.4</ele>
        <time>2019-08-18T08:11:34Z</time>
      </trkpt>
      <trkpt lat="42.6839040" lon="-8.2422280">
        <ele>480.4</ele>
        <time>2019-08-18T08:11:35Z</time>
      </trkpt>
      <trkpt lat="42.6839940" lon="-8.2423210">
        <ele>479.3</ele>
        <time>2019-08-18T08:11:36Z</time>
      </trkpt>
      <trkpt lat="42.6840840" lon="-8.2424140">
        <ele>478.1</ele>
        <time>2019-08-18T08:11:37Z</time>
      </trkpt>
      <trkpt lat="42.6841750" lon="-8.2425060">
        <ele>477.5</ele>
        <time>2019-08-18T08:11:38Z</time>
      </trkpt>
      <trkpt lat="42.6842650" lon="-8.2425960">
        <ele>477.1</ele>
        <time>2019-08-18T08:11:39Z</time>
      </trkpt>
      <trkpt lat="42.6843550" lon="-8.2426860">
        <ele>476.8</ele>
        <time>2019-08-18T08:11:40Z</time>
      </trkpt>
      <trkpt lat="42.6844450" lon="-8.2427730">
        <ele>476.7</ele>
        <time>2019-08-18T08:11:41Z</time>
      </trkpt>
      <trkpt lat="42.6845340" lon="-8.2428570">
        <ele>476.6</ele>
        <time>2019-08-18T08:11:42Z</time>
      </trkpt>
      <trkpt lat="42.6846230" lon="-8.2429380">
        <ele>476.5</ele>
        <time>2019-08-18T08:11:43Z</time>
      </trkpt>
      <trkpt lat="42.6847120" lon="-8.2430120">
        <ele>476.5</ele>
        <time>2019-08-18T08:11:44Z</time>
      </trkpt>
      <trkpt lat="42.6848020" lon="-8.2430790">
        <ele>476.5</ele>
        <time>2019-08-18T08:11:45Z</time>
      </trkpt>
      <trkpt lat="42.6848930" lon="-8.2431370">
        <ele>476.6</ele>
        <time>2019-08-18T08:11:46Z</time>
      </trkpt>
      <trkpt lat="42.6849830" lon="-8.2431860">
        <ele>476.6</ele>
        <time>2019-08-18T08:11:47Z</time>
      </trkpt>
      <trkpt lat="42.6850720" lon="-8.2432290">
        <ele>476.8</ele>
        <time>2019-08-18T08:11:48Z</time>
      </trkpt>
      <trkpt lat="42.6851580" lon="-8.2432660">
        <ele>477.1</ele>
        <time>2019-08-18T08:11:49Z</time>
      </trkpt>
      <trkpt lat="42.6852410" lon="-8.2432990">
        <ele>477.3</ele>
        <time>2019-08-18T08:11:50Z</time>
      </trkpt>
      <trkpt lat="42.6853210" lon="-8.2433290">
        <ele>477.6</ele>
        <time>2019-08-18T08:11:51Z</time>
      </trkpt>
      <trkpt lat="42.6853980" lon="-8.2433560">
        <ele>477.9</ele>
        <time>2019-08-18T08:11:52Z</time>
      </trkpt>
      <trkpt lat="42.6854720" lon="-8.2433830">
        <ele>478.2</ele>
        <time>2019-08-18T08:11:53Z</time>
      </trkpt>
      <trkpt lat="42.6855430" lon="-8.2434080">
        <ele>478.4</ele>
        <time>2019-08-18T08:11:54Z</time>
      </trkpt>
      <trkpt lat="42.6856110" lon="-8.2434320">
        <ele>478.7</ele>
        <time>2019-08-18T08:11:55Z</time>
      </trkpt>
      <trkpt lat="42.6856750" lon="-8.2434550">
        <ele>479.0</ele>
        <time>2019-08-18T08:11:56Z</time>
      </trkpt>
      <trkpt lat="42.6857370" lon="-8.2434770">
        <ele>479.3</ele>
        <time>2019-08-18T08:11:57Z</time>
      </trkpt>
      <trkpt lat="42.6857950" lon="-8.2434980">
        <ele>479.6</ele>
        <time>2019-08-18T08:11:58Z</time>
      </trkpt>
      <trkpt lat="42.6858500" lon="-8.2435180">
        <ele>479.9</ele>
        <time>2019-08-18T08:11:59Z</time>
      </trkpt>
      <trkpt lat="42.6859030" lon="-8.2435360">
        <ele>480.2</ele>
        <time>2019-08-18T08:12:00Z</time>
      </trkpt>
      <trkpt lat="42.6859520" lon="-8.2435540">
        <ele>480.4</ele>
        <time>2019-08-18T08:12:01Z</time>
      </trkpt>
      <trkpt lat="42.6859990" lon="-8.2435700">
        <ele>480.7</ele>
        <time>2019-08-18T08:12:02Z</time>
      </trkpt>
      <trkpt lat="42.6860440" lon="-8.2435850">
        <ele>480.9</ele>
        <time>2019-08-18T08:12:03Z</time>
      </trkpt>
      <trkpt lat="42.6860860" lon="-8.2435980">
        <ele>481.2</ele>
        <time>2019-08-18T08:12:04Z</time>
      </trkpt>
      <trkpt lat="42.6861260" lon="-8.2436100">
        <ele>481.4</ele>
        <time>2019-08-18T08:12:05Z</time>
      </trkpt>
      <trkpt lat="42.6861650" lon="-8.2436200">
        <ele>481.6</ele>
        <time>2019-08-18T08:12:06Z</time>
      </trkpt>
      <trkpt lat="42.6862020" lon="-8.2436270">
        <ele>481.8</ele>
        <time>2019-08-18T08:12:07Z</time>
      </trkpt>
      <trkpt lat="42.6862380" lon="-8.2436320">
        <ele>482.0</ele>
        <time>2019-08-18T08:12:08Z</time>
      </trkpt>
      <trkpt lat="42.6862730" lon="-8.2436350">
        <ele>482.2</ele>
        <time>2019-08-18T08:12:09Z</time>
      </trkpt>
      <trkpt lat="42.6863060" lon="-8.2436360">
        <ele>482.4</ele>
        <time>2019-08-18T08:12:10Z</time>
      </trkpt>
      <trkpt lat="42.6863370" lon="-8.2436360">
        <ele>482.6</ele>
        <time>2019-08-18T08:12:11Z</time>
      </trkpt>
      <trkpt lat="42.6863650" lon="-8.2436350">
        <ele>482.7</ele>
        <time>2019-08-18T08:12:12Z</time>
      </trkpt>
      <trkpt lat="42.6863920" lon="-8.2436340">
        <ele>482.8</ele>
        <time>2019-08-18T08:12:13Z</time>
      </trkpt>
      <trkpt lat="42.6864180" lon="-8.2436320">
        <ele>483.0</ele>
        <time>2019-08-18T08:12:14Z</time>
      </trkpt>
      <trkpt lat="42.6864430" lon="-8.2436290">
        <ele>483.1</ele>
        <time>2019-08-18T08:12:15Z</time>
      </trkpt>
      <trkpt lat="42.6864690" lon="-8.2436250">
        <ele>483.2</ele>
        <time>2019-08-18T08:12:16Z</time>
      </trkpt>
      <trkpt lat="42.6864960" lon="-8.2436200">
        <ele>483.3</ele>
        <time>2019-08-18T08:12:17Z</time>
      </trkpt>
      <trkpt lat="42.6865250" lon="-8.2436140">
        <ele>483.5</ele>
        <time>2019-08-18T08:12:18Z</time>
      </trkpt>
      <trkpt lat="42.6865560" lon="-8.2436060">
        <ele>483.6</ele>
        <time>2019-08-18T08:12:19Z</time>
      </trkpt>
      <trkpt lat="42.6865900" lon="-8.2435970">
        <ele>483.7</ele>
        <time>2019-08-18T08:12:20Z</time>
      </trkpt>
      <trkpt lat="42.6866250" lon="-8.2435860">
        <ele>483.9</ele>
        <time>2019-08-18T08:12:21Z</time>
      </trkpt>
      <trkpt lat="42.6866620" lon="-8.2435750">
        <ele>484.0</ele>
        <time>2019-08-18T08:12:22Z</time>
      </trkpt>
      <trkpt lat="42.6867000" lon="-8.2435630">
        <ele>484.1</ele>
        <time>2019-08-18T08:12:23Z</time>
      </trkpt>
      <trkpt lat="42.6867390" lon="-8.2435510">
        <ele>484.3</ele>
        <time>2019-08-18T08:12:24Z</time>
      </trkpt>
      <trkpt lat="42.6867790" lon="-8.2435390">
        <ele>484.4</ele>
        <time>2019-08-18T08:12:25Z</time>
      </trkpt>
      <trkpt lat="42.6868190" lon="-8.2435260">
        <ele>484.5</ele>
        <time>2019-08-18T08:12:26Z</time>
      </trkpt>
      <trkpt lat="42.6868590" lon="-8.2435130">
        <ele>484.6</ele>
        <time>2019-08-18T08:12:27Z</time>
      </trkpt>
      <trkpt lat="42.6868990" lon="-8.2435000">
        <ele>484.7</ele>
        <time>2019-08-18T08:12:28Z</time>
      </trkpt>
      <trkpt lat="42.6869390" lon="-8.2434880">
        <ele>484.9</ele>
        <time>2019-08-18T08:12:29Z</time>
      </trkpt>
      <trkpt lat="42.6869780" lon="-8.2434760">
        <ele>485.0</ele>
        <time>2019-08-18T08:12:30Z</time>
      </trkpt>
      <trkpt lat="42.6870160" lon="-8.2434640">
        <ele>485.1</ele>
        <time>2019-08-18T08:12:31Z</time>
      </trkpt>
      <trkpt lat="42.6870530" lon="-8.2434520">
        <ele>485.2</ele>
        <time>2019-08-18T08:12:32Z</time>
      </trkpt>
      <trkpt lat="42.6870900" lon="-8.2434420">
        <ele>485.3</ele>
        <time>2019-08-18T08:12:33Z</time>
      </trkpt>
      <trkpt lat="42.6871250" lon="-8.2434320">
        <ele>485.4</ele>
        <time>2019-08-18T08:12:34Z</time>
      </trkpt>
      <trkpt lat="42.6871610" lon="-8.2434220">
        <ele>485.6</ele>
        <time>2019-08-18T08:12:35Z</time>
      </trkpt>
      <trkpt lat="42.6871960" lon="-8.2434140">
        <ele>485.7</ele>
        <time>2019-08-18T08:12:36Z</time>
      </trkpt>
      <trkpt lat="42.6872320" lon="-8.2434070">
        <ele>485.8</ele>
        <time>2019-08-18T08:12:37Z</time>
      </trkpt>
      <trkpt lat="42.6872680" lon="-8.2433990">
        <ele>485.9</ele>
        <time>2019-08-18T08:12:38Z</time>
      </trkpt>
      <trkpt lat="42.6873040" lon="-8.2433920">
        <ele>486.0</ele>
        <time>2019-08-18T08:12:39Z</time>
      </trkpt>
      <trkpt lat="42.6873400" lon="-8.2433830">
        <ele>486.2</ele>
        <time>2019-08-18T08:12:40Z</time>
      </trkpt>
      <trkpt lat="42.6873750" lon="-8.2433720">
        <ele>486.3</ele>
        <time>2019-08-18T08:12:41Z</time>
      </trkpt>
      <trkpt lat="42.6874100" lon="-8.2433600">
        <ele>486.4</ele>
        <time>2019-08-18T08:12:42Z</time>
      </trkpt>
      <trkpt lat="42.6874440" lon="-8.2433480">
        <ele>486.5</ele>
        <time>2019-08-18T08:12:43Z</time>
      </trkpt>
      <trkpt lat="42.6874790" lon="-8.2433370">
        <ele>486.6</ele>
        <time>2019-08-18T08:12:44Z</time>
      </trkpt>
      <trkpt lat="42.6875140" lon="-8.2433280">
        <ele>486.7</ele>
        <time>2019-08-18T08:12:45Z</time>
      </trkpt>
      <trkpt lat="42.6875490" lon="-8.2433190">
        <ele>486.7</ele>
        <time>2019-08-18T08:12:46Z</time>
      </trkpt>
      <trkpt lat="42.6875840" lon="-8.2433110">
        <ele>486.8</ele>
        <time>2019-08-18T08:12:47Z</time>
      </trkpt>
      <trkpt lat="42.6876190" lon="-8.2433010">
        <ele>486.9</ele>
        <time>2019-08-18T08:12:48Z</time>
      </trkpt>
      <trkpt lat="42.6876530" lon="-8.2432910">
        <ele>487.0</ele>
        <time>2019-08-18T08:12:49Z</time>
      </trkpt>
      <trkpt lat="42.6876870" lon="-8.2432790">
        <ele>487.0</ele>
        <time>2019-08-18T08:12:50Z</time>
      </trkpt>
      <trkpt lat="42.6877210" lon="-8.2432680">
        <ele>487.1</ele>
        <time>2019-08-18T08:12:51Z</time>
      </trkpt>
      <trkpt lat="42.6877790" lon="-8.2432480">
        <ele>487.2</ele>
        <time>2019-08-18T08:12:52Z</time>
      </trkpt>
      <trkpt lat="42.6878010" lon="-8.2432400">
        <ele>487.2</ele>
        <time>2019-08-18T08:12:53Z</time>
      </trkpt>
      <trkpt lat="42.6878240" lon="-8.2432320">
        <ele>487.2</ele>
        <time>2019-08-18T08:12:54Z</time>
      </trkpt>
      <trkpt lat="42.6878580" lon="-8.2432210">
        <ele>487.3</ele>
        <time>2019-08-18T08:12:55Z</time>
      </trkpt>
      <trkpt lat="42.6878920" lon="-8.2432110">
        <ele>487.3</ele>
        <time>2019-08-18T08:12:56Z</time>
      </trkpt>
      <trkpt lat="42.6879270" lon="-8.2432030">
        <ele>487.4</ele>
        <time>2019-08-18T08:12:57Z</time>
      </trkpt>
      <trkpt lat="42.6879610" lon="-8.2431960">
        <ele>487.4</ele>
        <time>2019-08-18T08:12:58Z</time>
      </trkpt>
      <trkpt lat="42.6879960" lon="-8.2431910">
        <ele>487.5</ele>
        <time>2019-08-18T08:12:59Z</time>
      </trkpt>
      <trkpt lat="42.6880310" lon="-8.2431890">
        <ele>487.5</ele>
        <time>2019-08-18T08:13:00Z</time>
      </trkpt>
      <trkpt lat="42.6880650" lon="-8.2431900">
        <ele>487.6</ele>
        <time>2019-08-18T08:13:01Z</time>
      </trkpt>
      <trkpt lat="42.6881000" lon="-8.2431930">
        <ele>487.6</ele>
        <time>2019-08-18T08:13:02Z</time>
      </trkpt>
      <trkpt lat="42.6881350" lon="-8.2432000">
        <ele>487.7</ele>
        <time>2019-08-18T08:13:03Z</time>
      </trkpt>
      <trkpt lat="42.6881700" lon="-8.2432100">
        <ele>487.8</ele>
        <time>2019-08-18T08:13:04Z</time>
      </trkpt>
      <trkpt lat="42.6882060" lon="-8.2432220">
        <ele>487.9</ele>
        <time>2019-08-18T08:13:05Z</time>
      </trkpt>
      <trkpt lat="42.6882410" lon="-8.2432370">
        <ele>488.0</ele>
        <time>2019-08-18T08:13:06Z</time>
      </trkpt>
      <trkpt lat="42.6882770" lon="-8.2432540">
        <ele>488.0</ele>
        <time>2019-08-18T08:13:07Z</time>
      </trkpt>
      <trkpt lat="42.6883130" lon="-8.2432730">
        <ele>488.1</ele>
        <time>2019-08-18T08:13:08Z</time>
      </trkpt>
      <trkpt lat="42.6883490" lon="-8.2432940">
        <ele>488.2</ele>
        <time>2019-08-18T08:13:09Z</time>
      </trkpt>
      <trkpt lat="42.6883860" lon="-8.2433170">
        <ele>488.3</ele>
        <time>2019-08-18T08:13:10Z</time>
      </trkpt>
      <trkpt lat="42.6884220" lon="-8.2433410">
        <ele>488.4</ele>
        <time>2019-08-18T08:13:11Z</time>
      </trkpt>
      <trkpt lat="42.6884590" lon="-8.2433670">
        <ele>488.6</ele>
        <time>2019-08-18T08:13:12Z</time>
      </trkpt>
      <trkpt lat="42.6884960" lon="-8.2433930">
        <ele>488.7</ele>
        <time>2019-08-18T08:13:13Z</time>
      </trkpt>
      <trkpt lat="42.6885330" lon="-8.2434190">
        <ele>488.8</ele>
        <time>2019-08-18T08:13:14Z</time>
      </trkpt>
      <trkpt lat="42.6885690" lon="-8.2434450">
        <ele>488.9</ele>
        <time>2019-08-18T08:13:15Z</time>
      </trkpt>
      <trkpt lat="42.6886060" lon="-8.2434700">
        <ele>489.0</ele>
        <time>2019-08-18T08:13:16Z</time>
      </trkpt>
      <trkpt lat="42.6886410" lon="-8.2434950">
        <ele>489.2</ele>
        <time>2019-08-18T08:13:17Z</time>
      </trkpt>
      <trkpt lat="42.6886770" lon="-8.2435190">
        <ele>489.3</ele>
        <time>2019-08-18T08:13:18Z</time>
      </trkpt>
      <trkpt lat="42.6887110" lon="-8.2435420">
        <ele>489.4</ele>
        <time>2019-08-18T08:13:19Z</time>
      </trkpt>
      <trkpt lat="42.6887450" lon="-8.2435650">
        <ele>489.5</ele>
        <time>2019-08-18T08:13:20Z</time>
      </trkpt>
      <trkpt lat="42.6887780" lon="-8.2435870">
        <ele>489.6</ele>
        <time>2019-08-18T08:13:21Z</time>
      </trkpt>
      <trkpt lat="42.6888090" lon="-8.2436080">
        <ele>489.7</ele>
        <time>2019-08-18T08:13:22Z</time>
      </trkpt>
      <trkpt lat="42.6888390" lon="-8.2436290">
        <ele>489.8</ele>
        <time>2019-08-18T08:13:23Z</time>
      </trkpt>
      <trkpt lat="42.6888680" lon="-8.2436490">
        <ele>489.9</ele>
        <time>2019-08-18T08:13:24Z</time>
      </trkpt>
      <trkpt lat="42.6888960" lon="-8.2436700">
        <ele>490.0</ele>
        <time>2019-08-18T08:13:25Z</time>
      </trkpt>
      <trkpt lat="42.6889240" lon="-8.2436900">
        <ele>490.0</ele>
        <time>2019-08-18T08:13:26Z</time>
      </trkpt>
      <trkpt lat="42.6889530" lon="-8.2437110">
        <ele>490.1</ele>
        <time>2019-08-18T08:13:27Z</time>
      </trkpt>
      <trkpt lat="42.6889820" lon="-8.2437320">
        <ele>490.2</ele>
        <time>2019-08-18T08:13:28Z</time>
      </trkpt>
      <trkpt lat="42.6890130" lon="-8.2437530">
        <ele>490.2</ele>
        <time>2019-08-18T08:13:29Z</time>
      </trkpt>
      <trkpt lat="42.6890470" lon="-8.2437760">
        <ele>490.3</ele>
        <time>2019-08-18T08:13:30Z</time>
      </trkpt>
      <trkpt lat="42.6890830" lon="-8.2437990">
        <ele>490.4</ele>
        <time>2019-08-18T08:13:31Z</time>
      </trkpt>
      <trkpt lat="42.6891220" lon="-8.2438240">
        <ele>490.4</ele>
        <time>2019-08-18T08:13:32Z</time>
      </trkpt>
      <trkpt lat="42.6891830" lon="-8.2438610">
        <ele>490.5</ele>
        <time>2019-08-18T08:13:33Z</time>
      </trkpt>
      <trkpt lat="42.6892040" lon="-8.2438740">
        <ele>490.5</ele>
        <time>2019-08-18T08:13:34Z</time>
      </trkpt>
      <trkpt lat="42.6892460" lon="-8.2439010">
        <ele>490.5</ele>
        <time>2019-08-18T08:13:35Z</time>
      </trkpt>
      <trkpt lat="42.6892880" lon="-8.2439280">
        <ele>490.6</ele>
        <time>2019-08-18T08:13:36Z</time>
      </trkpt>
      <trkpt lat="42.6893300" lon="-8.2439550">
        <ele>490.6</ele>
        <time>2019-08-18T08:13:37Z</time>
      </trkpt>
      <trkpt lat="42.6893700" lon="-8.2439830">
        <ele>490.6</ele>
        <time>2019-08-18T08:13:38Z</time>
      </trkpt>
      <trkpt lat="42.6894090" lon="-8.2440120">
        <ele>490.7</ele>
        <time>2019-08-18T08:13:39Z</time>
      </trkpt>
      <trkpt lat="42.6894460" lon="-8.2440400">
        <ele>490.7</ele>
        <time>2019-08-18T08:13:40Z</time>
      </trkpt>
      <trkpt lat="42.6894820" lon="-8.2440690">
        <ele>490.7</ele>
        <time>2019-08-18T08:13:41Z</time>
      </trkpt>
      <trkpt lat="42.6895180" lon="-8.2440980">
        <ele>490.8</ele>
        <time>2019-08-18T08:13:42Z</time>
      </trkpt>
      <trkpt lat="42.6895540" lon="-8.2441270">
        <ele>490.8</ele>
        <time>2019-08-18T08:13:43Z</time>
      </trkpt>
      <trkpt lat="42.6895900" lon="-8.2441570">
        <ele>490.9</ele>
        <time>2019-08-18T08:13:44Z</time>
      </trkpt>
      <trkpt lat="42.6896270" lon="-8.2441870">
        <ele>490.9</ele>
        <time>2019-08-18T08:13:45Z</time>
      </trkpt>
      <trkpt lat="42.6896910" lon="-8.2442370">
        <ele>491.1</ele>
        <time>2019-08-18T08:13:46Z</time>
      </trkpt>
      <trkpt lat="42.6897180" lon="-8.2442580">
        <ele>491.1</ele>
        <time>2019-08-18T08:13:47Z</time>
      </trkpt>
      <trkpt lat="42.6897440" lon="-8.2442780">
        <ele>491.2</ele>
        <time>2019-08-18T08:13:48Z</time>
      </trkpt>
      <trkpt lat="42.6897850" lon="-8.2443080">
        <ele>491.3</ele>
        <time>2019-08-18T08:13:49Z</time>
      </trkpt>
      <trkpt lat="42.6898260" lon="-8.2443390">
        <ele>491.4</ele>
        <time>2019-08-18T08:13:50Z</time>
      </trkpt>
      <trkpt lat="42.6898980" lon="-8.2443910">
        <ele>491.6</ele>
        <time>2019-08-18T08:13:51Z</time>
      </trkpt>
      <trkpt lat="42.6899270" lon="-8.2444110">
        <ele>491.7</ele>
        <time>2019-08-18T08:13:52Z</time>
      </trkpt>
      <trkpt lat="42.6899560" lon="-8.2444320">
        <ele>491.7</ele>
        <time>2019-08-18T08:13:53Z</time>
      </trkpt>
      <trkpt lat="42.6900000" lon="-8.2444630">
        <ele>491.9</ele>
        <time>2019-08-18T08:13:54Z</time>
      </trkpt>
      <trkpt lat="42.6900440" lon="-8.2444940">
        <ele>492.0</ele>
        <time>2019-08-18T08:13:55Z</time>
      </trkpt>
      <trkpt lat="42.6900880" lon="-8.2445240">
        <ele>492.2</ele>
        <time>2019-08-18T08:13:56Z</time>
      </trkpt>
      <trkpt lat="42.6901320" lon="-8.2445530">
        <ele>492.3</ele>
        <time>2019-08-18T08:13:57Z</time>
      </trkpt>
      <trkpt lat="42.6901740" lon="-8.2445810">
        <ele>492.4</ele>
        <time>2019-08-18T08:13:58Z</time>
      </trkpt>
      <trkpt lat="42.6902160" lon="-8.2446080">
        <ele>492.5</ele>
        <time>2019-08-18T08:13:59Z</time>
      </trkpt>
      <trkpt lat="42.6902560" lon="-8.2446340">
        <ele>492.6</ele>
        <time>2019-08-18T08:14:00Z</time>
      </trkpt>
      <trkpt lat="42.6902940" lon="-8.2446570">
        <ele>492.7</ele>
        <time>2019-08-18T08:14:01Z</time>
      </trkpt>
      <trkpt lat="42.6903310" lon="-8.2446790">
        <ele>492.8</ele>
        <time>2019-08-18T08:14:02Z</time>
      </trkpt>
      <trkpt lat="42.6903660" lon="-8.2447000">
        <ele>492.8</ele>
        <time>2019-08-18T08:14:03Z</time>
      </trkpt>
      <trkpt lat="42.6904010" lon="-8.2447190">
        <ele>492.9</ele>
        <time>2019-08-18T08:14:04Z</time>
      </trkpt>
      <trkpt lat="42.6904350" lon="-8.2447370">
        <ele>492.9</ele>
        <time>2019-08-18T08:14:05Z</time>
      </trkpt>
      <trkpt lat="42.6904700" lon="-8.2447540">
        <ele>493.0</ele>
        <time>2019-08-18T08:14:06Z</time>
      </trkpt>
      <trkpt lat="42.6905050" lon="-8.2447710">
        <ele>493.0</ele>
        <time>2019-08-18T08:14:07Z</time>
      </trkpt>
      <trkpt lat="42.6905400" lon="-8.2447870">
        <ele>493.0</ele>
        <time>2019-08-18T08:14:08Z</time>
      </trkpt>
      <trkpt lat="42.6905770" lon="-8.2448030">
        <ele>493.0</ele>
        <time>2019-08-18T08:14:09Z</time>
      </trkpt>
      <trkpt lat="42.6906140" lon="-8.2448180">
        <ele>493.0</ele>
        <time>2019-08-18T08:14:10Z</time>
      </trkpt>
      <trkpt lat="42.6906510" lon="-8.2448320">
        <ele>493.0</ele>
        <time>2019-08-18T08:14:11Z</time>
      </trkpt>
      <trkpt lat="42.6906850" lon="-8.2448450">
        <ele>493.0</ele>
        <time>2019-08-18T08:14:12Z</time>
      </trkpt>
      <trkpt lat="42.6907180" lon="-8.2448560">
        <ele>493.0</ele>
        <time>2019-08-18T08:14:13Z</time>
      </trkpt>
      <trkpt lat="42.6907490" lon="-8.2448660">
        <ele>493.0</ele>
        <time>2019-08-18T08:14:14Z</time>
      </trkpt>
      <trkpt lat="42.6907800" lon="-8.2448760">
        <ele>493.0</ele>
        <time>2019-08-18T08:14:15Z</time>
      </trkpt>
      <trkpt lat="42.6908120" lon="-8.2448870">
        <ele>493.0</ele>
        <time>2019-08-18T08:14:16Z</time>
      </trkpt>
      <trkpt lat="42.6908440" lon="-8.2448980">
        <ele>493.0</ele>
        <time>2019-08-18T08:14:17Z</time>
      </trkpt>
      <trkpt lat="42.6908780" lon="-8.2449090">
        <ele>493.0</ele>
        <time>2019-08-18T08:14:18Z</time>
      </trkpt>
      <trkpt lat="42.6909130" lon="-8.2449190">
        <ele>493.1</ele>
        <time>2019-08-18T08:14:19Z</time>
      </trkpt>
      <trkpt lat="42.6909500" lon="-8.2449270">
        <ele>493.1</ele>
        <time>2019-08-18T08:14:20Z</time>
      </trkpt>
      <trkpt lat="42.6909860" lon="-8.2449300">
        <ele>493.1</ele>
        <time>2019-08-18T08:14:21Z</time>
      </trkpt>
      <trkpt lat="42.6910210" lon="-8.2449250">
        <ele>493.1</ele>
        <time>2019-08-18T08:14:22Z</time>
      </trkpt>
      <trkpt lat="42.6910530" lon="-8.2449040">
        <ele>493.1</ele>
        <time>2019-08-18T08:14:23Z</time>
      </trkpt>
      <trkpt lat="42.6910850" lon="-8.2448820">
        <ele>493.1</ele>
        <time>2019-08-18T08:14:24Z</time>
      </trkpt>
      <trkpt lat="42.6911150" lon="-8.2448470">
        <ele>493.1</ele>
        <time>2019-08-18T08:14:25Z</time>
      </trkpt>
      <trkpt lat="42.6911420" lon="-8.2448070">
        <ele>493.1</ele>
        <time>2019-08-18T08:14:26Z</time>
      </trkpt>
      <trkpt lat="42.6911690" lon="-8.2447630">
        <ele>493.1</ele>
        <time>2019-08-18T08:14:27Z</time>
      </trkpt>
      <trkpt lat="42.6911950" lon="-8.2447160">
        <ele>493.1</ele>
        <time>2019-08-18T08:14:28Z</time>
      </trkpt>
      <trkpt lat="42.6912230" lon="-8.2446690">
        <ele>493.1</ele>
        <time>2019-08-18T08:14:29Z</time>
      </trkpt>
      <trkpt lat="42.6912520" lon="-8.2446240">
        <ele>493.1</ele>
        <time>2019-08-18T08:14:30Z</time>
      </trkpt>
      <trkpt lat="42.6912840" lon="-8.2445790">
        <ele>493.1</ele>
        <time>2019-08-18T08:14:31Z</time>
      </trkpt>
      <trkpt lat="42.6913180" lon="-8.2445360">
        <ele>493.1</ele>
        <time>2019-08-18T08:14:32Z</time>
      </trkpt>
      <trkpt lat="42.6913530" lon="-8.2444940">
        <ele>493.1</ele>
        <time>2019-08-18T08:14:33Z</time>
      </trkpt>
      <trkpt lat="42.6913900" lon="-8.2444530">
        <ele>493.1</ele>
        <time>2019-08-18T08:14:34Z</time>
      </trkpt>
      <trkpt lat="42.6914290" lon="-8.2444110">
        <ele>493.0</ele>
        <time>2019-08-18T08:14:35Z</time>
      </trkpt>
      <trkpt lat="42.6914690" lon="-8.2443700">
        <ele>493.0</ele>
        <time>2019-08-18T08:14:36Z</time>
      </trkpt>
      <trkpt lat="42.6915100" lon="-8.2443290">
        <ele>493.0</ele>
        <time>2019-08-18T08:14:37Z</time>
      </trkpt>
      <trkpt lat="42.6915520" lon="-8.2442870">
        <ele>493.0</ele>
        <time>2019-08-18T08:14:38Z</time>
      </trkpt>
      <trkpt lat="42.6915960" lon="-8.2442450">
        <ele>492.9</ele>
        <time>2019-08-18T08:14:39Z</time>
      </trkpt>
      <trkpt lat="42.6916400" lon="-8.2442020">
        <ele>492.9</ele>
        <time>2019-08-18T08:14:40Z</time>
      </trkpt>
      <trkpt lat="42.6916850" lon="-8.2441590">
        <ele>492.9</ele>
        <time>2019-08-18T08:14:41Z</time>
      </trkpt>
      <trkpt lat="42.6917300" lon="-8.2441140">
        <ele>492.8</ele>
        <time>2019-08-18T08:14:42Z</time>
      </trkpt>
      <trkpt lat="42.6917750" lon="-8.2440690">
        <ele>492.8</ele>
        <time>2019-08-18T08:14:43Z</time>
      </trkpt>
      <trkpt lat="42.6918210" lon="-8.2440240">
        <ele>492.7</ele>
        <time>2019-08-18T08:14:44Z</time>
      </trkpt>
      <trkpt lat="42.6918670" lon="-8.2439770">
        <ele>492.7</ele>
        <time>2019-08-18T08:14:45Z</time>
      </trkpt>
      <trkpt lat="42.6919120" lon="-8.2439330">
        <ele>492.7</ele>
        <time>2019-08-18T08:14:46Z</time>
      </trkpt>
      <trkpt lat="42.6919550" lon="-8.2438940">
        <ele>492.6</ele>
        <time>2019-08-18T08:14:47Z</time>
      </trkpt>
      <trkpt lat="42.6919960" lon="-8.2438620">
        <ele>492.5</ele>
        <time>2019-08-18T08:14:48Z</time>
      </trkpt>
      <trkpt lat="42.6920350" lon="-8.2438390">
        <ele>492.5</ele>
        <time>2019-08-18T08:14:49Z</time>
      </trkpt>
      <trkpt lat="42.6920710" lon="-8.2438160">
        <ele>492.4</ele>
        <time>2019-08-18T08:14:50Z</time>
      </trkpt>
      <trkpt lat="42.6921090" lon="-8.2437870">
        <ele>492.4</ele>
        <time>2019-08-18T08:14:51Z</time>
      </trkpt>
      <trkpt lat="42.6921470" lon="-8.2437730">
        <ele>492.3</ele>
        <time>2019-08-18T08:14:52Z</time>
      </trkpt>
      <trkpt lat="42.6921880" lon="-8.2437780">
        <ele>492.3</ele>
        <time>2019-08-18T08:14:53Z</time>
      </trkpt>
      <trkpt lat="42.6922290" lon="-8.2437980">
        <ele>492.5</ele>
        <time>2019-08-18T08:14:54Z</time>
      </trkpt>
      <trkpt lat="42.6922710" lon="-8.2438300">
        <ele>492.6</ele>
        <time>2019-08-18T08:14:55Z</time>
      </trkpt>
      <trkpt lat="42.6923140" lon="-8.2438720">
        <ele>492.8</ele>
        <time>2019-08-18T08:14:56Z</time>
      </trkpt>
      <trkpt lat="42.6923790" lon="-8.2439470">
        <ele>493.1</ele>
        <time>2019-08-18T08:14:57Z</time>
      </trkpt>
      <trkpt lat="42.6924000" lon="-8.2439730">
        <ele>493.3</ele>
        <time>2019-08-18T08:14:58Z</time>
      </trkpt>
      <trkpt lat="42.6924430" lon="-8.2440260">
        <ele>493.5</ele>
        <time>2019-08-18T08:14:59Z</time>
      </trkpt>
      <trkpt lat="42.6924850" lon="-8.2440790">
        <ele>493.8</ele>
        <time>2019-08-18T08:15:00Z</time>
      </trkpt>
      <trkpt lat="42.6925280" lon="-8.2441330">
        <ele>494.1</ele>
        <time>2019-08-18T08:15:01Z</time>
      </trkpt>
      <trkpt lat="42.6925700" lon="-8.2441870">
        <ele>494.3</ele>
        <time>2019-08-18T08:15:02Z</time>
      </trkpt>
      <trkpt lat="42.6926320" lon="-8.2442680">
        <ele>494.6</ele>
        <time>2019-08-18T08:15:03Z</time>
      </trkpt>
      <trkpt lat="42.6926530" lon="-8.2442950">
        <ele>494.7</ele>
        <time>2019-08-18T08:15:04Z</time>
      </trkpt>
      <trkpt lat="42.6926940" lon="-8.2443490">
        <ele>494.9</ele>
        <time>2019-08-18T08:15:05Z</time>
      </trkpt>
      <trkpt lat="42.6927340" lon="-8.2444020">
        <ele>495.1</ele>
        <time>2019-08-18T08:15:06Z</time>
      </trkpt>
      <trkpt lat="42.6927750" lon="-8.2444560">
        <ele>495.3</ele>
        <time>2019-08-18T08:15:07Z</time>
      </trkpt>
      <trkpt lat="42.6928150" lon="-8.2445080">
        <ele>495.3</ele>
        <time>2019-08-18T08:15:08Z</time>
      </trkpt>
      <trkpt lat="42.6928550" lon="-8.2445600">
        <ele>495.2</ele>
        <time>2019-08-18T08:15:09Z</time>
      </trkpt>
      <trkpt lat="42.6928950" lon="-8.2446120">
        <ele>495.1</ele>
        <time>2019-08-18T08:15:10Z</time>
      </trkpt>
      <trkpt lat="42.6929350" lon="-8.2446620">
        <ele>495.0</ele>
        <time>2019-08-18T08:15:11Z</time>
      </trkpt>
      <trkpt lat="42.6929740" lon="-8.2447120">
        <ele>494.9</ele>
        <time>2019-08-18T08:15:12Z</time>
      </trkpt>
      <trkpt lat="42.6930130" lon="-8.2447600">
        <ele>494.8</ele>
        <time>2019-08-18T08:15:13Z</time>
      </trkpt>
      <trkpt lat="42.6930520" lon="-8.2448080">
        <ele>494.7</ele>
        <time>2019-08-18T08:15:14Z</time>
      </trkpt>
      <trkpt lat="42.6930900" lon="-8.2448550">
        <ele>494.6</ele>
        <time>2019-08-18T08:15:15Z</time>
      </trkpt>
      <trkpt lat="42.6931280" lon="-8.2449010">
        <ele>494.6</ele>
        <time>2019-08-18T08:15:16Z</time>
      </trkpt>
      <trkpt lat="42.6931660" lon="-8.2449470">
        <ele>494.5</ele>
        <time>2019-08-18T08:15:17Z</time>
      </trkpt>
      <trkpt lat="42.6932040" lon="-8.2449940">
        <ele>494.5</ele>
        <time>2019-08-18T08:15:18Z</time>
      </trkpt>
      <trkpt lat="42.6932410" lon="-8.2450420">
        <ele>494.4</ele>
        <time>2019-08-18T08:15:19Z</time>
      </trkpt>
      <trkpt lat="42.6932780" lon="-8.2450920">
        <ele>494.3</ele>
        <time>2019-08-18T08:15:20Z</time>
      </trkpt>
      <trkpt lat="42.6933150" lon="-8.2451430">
        <ele>494.2</ele>
        <time>2019-08-18T08:15:21Z</time>
      </trkpt>
      <trkpt lat="42.6933520" lon="-8.2451950">
        <ele>494.1</ele>
        <time>2019-08-18T08:15:22Z</time>
      </trkpt>
      <trkpt lat="42.6933890" lon="-8.2452450">
        <ele>494.0</ele>
        <time>2019-08-18T08:15:23Z</time>
      </trkpt>
      <trkpt lat="42.6934280" lon="-8.2452930">
        <ele>493.8</ele>
        <time>2019-08-18T08:15:24Z</time>
      </trkpt>
      <trkpt lat="42.6934690" lon="-8.2453380">
        <ele>493.7</ele>
        <time>2019-08-18T08:15:25Z</time>
      </trkpt>
      <trkpt lat="42.6935130" lon="-8.2453770">
        <ele>494.0</ele>
        <time>2019-08-18T08:15:26Z</time>
      </trkpt>
      <trkpt lat="42.6935600" lon="-8.2454100">
        <ele>494.2</ele>
        <time>2019-08-18T08:15:27Z</time>
      </trkpt>
      <trkpt lat="42.6936100" lon="-8.2454340">
        <ele>494.4</ele>
        <time>2019-08-18T08:15:28Z</time>
      </trkpt>
      <trkpt lat="42.6936630" lon="-8.2454520">
        <ele>494.6</ele>
        <time>2019-08-18T08:15:29Z</time>
      </trkpt>
      <trkpt lat="42.6937190" lon="-8.2454620">
        <ele>494.9</ele>
        <time>2019-08-18T08:15:30Z</time>
      </trkpt>
      <trkpt lat="42.6937760" lon="-8.2454660">
        <ele>495.2</ele>
        <time>2019-08-18T08:15:31Z</time>
      </trkpt>
      <trkpt lat="42.6938350" lon="-8.2454640">
        <ele>495.5</ele>
        <time>2019-08-18T08:15:32Z</time>
      </trkpt>
      <trkpt lat="42.6938940" lon="-8.2454570">
        <ele>495.8</ele>
        <time>2019-08-18T08:15:33Z</time>
      </trkpt>
      <trkpt lat="42.6939820" lon="-8.2454370">
        <ele>496.2</ele>
        <time>2019-08-18T08:15:34Z</time>
      </trkpt>
      <trkpt lat="42.6940100" lon="-8.2454290">
        <ele>496.3</ele>
        <time>2019-08-18T08:15:35Z</time>
      </trkpt>
      <trkpt lat="42.6940670" lon="-8.2454090">
        <ele>496.6</ele>
        <time>2019-08-18T08:15:36Z</time>
      </trkpt>
      <trkpt lat="42.6941220" lon="-8.2453870">
        <ele>497.0</ele>
        <time>2019-08-18T08:15:37Z</time>
      </trkpt>
      <trkpt lat="42.6941770" lon="-8.2453630">
        <ele>497.3</ele>
        <time>2019-08-18T08:15:38Z</time>
      </trkpt>
      <trkpt lat="42.6942310" lon="-8.2453380">
        <ele>497.5</ele>
        <time>2019-08-18T08:15:39Z</time>
      </trkpt>
      <trkpt lat="42.6942850" lon="-8.2453140">
        <ele>497.7</ele>
        <time>2019-08-18T08:15:40Z</time>
      </trkpt>
      <trkpt lat="42.6943390" lon="-8.2452900">
        <ele>497.8</ele>
        <time>2019-08-18T08:15:41Z</time>
      </trkpt>
      <trkpt lat="42.6943940" lon="-8.2452690">
        <ele>498.0</ele>
        <time>2019-08-18T08:15:42Z</time>
      </trkpt>
      <trkpt lat="42.6944500" lon="-8.2452500">
        <ele>498.1</ele>
        <time>2019-08-18T08:15:43Z</time>
      </trkpt>
      <trkpt lat="42.6945070" lon="-8.2452320">
        <ele>498.1</ele>
        <time>2019-08-18T08:15:44Z</time>
      </trkpt>
      <trkpt lat="42.6945640" lon="-8.2452130">
        <ele>498.2</ele>
        <time>2019-08-18T08:15:45Z</time>
      </trkpt>
      <trkpt lat="42.6946210" lon="-8.2451910">
        <ele>498.2</ele>
        <time>2019-08-18T08:15:46Z</time>
      </trkpt>
      <trkpt lat="42.6946780" lon="-8.2451640">
        <ele>498.1</ele>
        <time>2019-08-18T08:15:47Z</time>
      </trkpt>
      <trkpt lat="42.6947350" lon="-8.2451330">
        <ele>498.0</ele>
        <time>2019-08-18T08:15:48Z</time>
      </trkpt>
      <trkpt lat="42.6947920" lon="-8.2451010">
        <ele>497.7</ele>
        <time>2019-08-18T08:15:49Z</time>
      </trkpt>
      <trkpt lat="42.6948480" lon="-8.2450680">
        <ele>497.3</ele>
        <time>2019-08-18T08:15:50Z</time>
      </trkpt>
      <trkpt lat="42.6949050" lon="-8.2450360">
        <ele>497.0</ele>
        <time>2019-08-18T08:15:51Z</time>
      </trkpt>
      <trkpt lat="42.6949600" lon="-8.2450060">
        <ele>496.7</ele>
        <time>2019-08-18T08:15:52Z</time>
      </trkpt>
      <trkpt lat="42.6950170" lon="-8.2449780">
        <ele>496.4</ele>
        <time>2019-08-18T08:15:53Z</time>
      </trkpt>
      <trkpt lat="42.6950730" lon="-8.2449510">
        <ele>496.1</ele>
        <time>2019-08-18T08:15:54Z</time>
      </trkpt>
      <trkpt lat="42.6951300" lon="-8.2449260">
        <ele>495.8</ele>
        <time>2019-08-18T08:15:55Z</time>
      </trkpt>
      <trkpt lat="42.6951890" lon="-8.2449020">
        <ele>495.4</ele>
        <time>2019-08-18T08:15:56Z</time>
      </trkpt>
      <trkpt lat="42.6952480" lon="-8.2448800">
        <ele>494.8</ele>
        <time>2019-08-18T08:15:57Z</time>
      </trkpt>
      <trkpt lat="42.6953080" lon="-8.2448590">
        <ele>494.2</ele>
        <time>2019-08-18T08:15:58Z</time>
      </trkpt>
      <trkpt lat="42.6953690" lon="-8.2448390">
        <ele>493.7</ele>
        <time>2019-08-18T08:15:59Z</time>
      </trkpt>
      <trkpt lat="42.6954270" lon="-8.2448210">
        <ele>493.2</ele>
        <time>2019-08-18T08:16:00Z</time>
      </trkpt>
      <trkpt lat="42.6954830" lon="-8.2448050">
        <ele>492.8</ele>
        <time>2019-08-18T08:16:01Z</time>
      </trkpt>
      <trkpt lat="42.6955330" lon="-8.2447900">
        <ele>492.5</ele>
        <time>2019-08-18T08:16:02Z</time>
      </trkpt>
      <trkpt lat="42.6955770" lon="-8.2447770">
        <ele>492.2</ele>
        <time>2019-08-18T08:16:03Z</time>
      </trkpt>
      <trkpt lat="42.6956130" lon="-8.2447660">
        <ele>491.8</ele>
        <time>2019-08-18T08:16:04Z</time>
      </trkpt>
      <trkpt lat="42.6956390" lon="-8.2447570">
        <ele>491.6</ele>
        <time>2019-08-18T08:16:05Z</time>
      </trkpt>
      <trkpt lat="42.6956550" lon="-8.2447490">
        <ele>491.4</ele>
        <time>2019-08-18T08:16:06Z</time>
      </trkpt>
      <trkpt lat="42.6956640" lon="-8.2447370">
        <ele>491.3</ele>
        <time>2019-08-18T08:16:07Z</time>
      </trkpt>
      <trkpt lat="42.6956710" lon="-8.2447170">
        <ele>491.2</ele>
        <time>2019-08-18T08:16:08Z</time>
      </trkpt>
      <trkpt lat="42.6956810" lon="-8.2447010">
        <ele>491.0</ele>
        <time>2019-08-18T08:16:09Z</time>
      </trkpt>
      <trkpt lat="42.6956990" lon="-8.2446990">
        <ele>490.9</ele>
        <time>2019-08-18T08:16:10Z</time>
      </trkpt>
      <trkpt lat="42.6957200" lon="-8.2447080">
        <ele>490.7</ele>
        <time>2019-08-18T08:16:11Z</time>
      </trkpt>
      <trkpt lat="42.6957360" lon="-8.2447220">
        <ele>490.5</ele>
        <time>2019-08-18T08:16:12Z</time>
      </trkpt>
      <trkpt lat="42.6957430" lon="-8.2447360">
        <ele>490.7</ele>
        <time>2019-08-18T08:16:13Z</time>
      </trkpt>
      <trkpt lat="42.6957410" lon="-8.2447520">
        <ele>490.7</ele>
        <time>2019-08-18T08:16:14Z</time>
      </trkpt>
      <trkpt lat="42.6957330" lon="-8.2447710">
        <ele>490.8</ele>
        <time>2019-08-18T08:16:15Z</time>
      </trkpt>
      <trkpt lat="42.6957240" lon="-8.2447950">
        <ele>490.9</ele>
        <time>2019-08-18T08:16:16Z</time>
      </trkpt>
      <trkpt lat="42.6957160" lon="-8.2448270">
        <ele>491.0</ele>
        <time>2019-08-18T08:16:17Z</time>
      </trkpt>
      <trkpt lat="42.6957100" lon="-8.2448660">
        <ele>491.1</ele>
        <time>2019-08-18T08:16:18Z</time>
      </trkpt>
      <trkpt lat="42.6957090" lon="-8.2449110">
        <ele>491.2</ele>
        <time>2019-08-18T08:16:19Z</time>
      </trkpt>
      <trkpt lat="42.6957120" lon="-8.2449620">
        <ele>491.3</ele>
        <time>2019-08-18T08:16:20Z</time>
      </trkpt>
      <trkpt lat="42.6957210" lon="-8.2450170">
        <ele>491.4</ele>
        <time>2019-08-18T08:16:21Z</time>
      </trkpt>
      <trkpt lat="42.6957320" lon="-8.2450770">
        <ele>491.6</ele>
        <time>2019-08-18T08:16:22Z</time>
      </trkpt>
      <trkpt lat="42.6957460" lon="-8.2451380">
        <ele>491.7</ele>
        <time>2019-08-18T08:16:23Z</time>
      </trkpt>
      <trkpt lat="42.6957620" lon="-8.2452020">
        <ele>491.8</ele>
        <time>2019-08-18T08:16:24Z</time>
      </trkpt>
      <trkpt lat="42.6957770" lon="-8.2452660">
        <ele>491.9</ele>
        <time>2019-08-18T08:16:25Z</time>
      </trkpt>
      <trkpt lat="42.6957910" lon="-8.2453290">
        <ele>492.0</ele>
        <time>2019-08-18T08:16:26Z</time>
      </trkpt>
      <trkpt lat="42.6958030" lon="-8.2453920">
        <ele>492.2</ele>
        <time>2019-08-18T08:16:27Z</time>
      </trkpt>
      <trkpt lat="42.6958140" lon="-8.2454530">
        <ele>492.3</ele>
        <time>2019-08-18T08:16:28Z</time>
      </trkpt>
      <trkpt lat="42.6958230" lon="-8.2455140">
        <ele>492.4</ele>
        <time>2019-08-18T08:16:29Z</time>
      </trkpt>
      <trkpt lat="42.6958310" lon="-8.2455750">
        <ele>492.5</ele>
        <time>2019-08-18T08:16:30Z</time>
      </trkpt>
      <trkpt lat="42.6958380" lon="-8.2456350">
        <ele>492.6</ele>
        <time>2019-08-18T08:16:31Z</time>
      </trkpt>
      <trkpt lat="42.6958450" lon="-8.2456970">
        <ele>492.8</ele>
        <time>2019-08-18T08:16:32Z</time>
      </trkpt>
      <trkpt lat="42.6958520" lon="-8.2457590">
        <ele>492.9</ele>
        <time>2019-08-18T08:16:33Z</time>
      </trkpt>
      <trkpt lat="42.6958590" lon="-8.2458240">
        <ele>493.0</ele>
        <time>2019-08-18T08:16:34Z</time>
      </trkpt>
      <trkpt lat="42.6958660" lon="-8.2458890">
        <ele>493.1</ele>
        <time>2019-08-18T08:16:35Z</time>
      </trkpt>
      <trkpt lat="42.6958750" lon="-8.2459560">
        <ele>493.2</ele>
        <time>2019-08-18T08:16:36Z</time>
      </trkpt>
      <trkpt lat="42.6958840" lon="-8.2460240">
        <ele>493.3</ele>
        <time>2019-08-18T08:16:37Z</time>
      </trkpt>
      <trkpt lat="42.6958950" lon="-8.2460910">
        <ele>493.4</ele>
        <time>2019-08-18T08:16:38Z</time>
      </trkpt>
      <trkpt lat="42.6959060" lon="-8.2461570">
        <ele>493.4</ele>
        <time>2019-08-18T08:16:39Z</time>
      </trkpt>
      <trkpt lat="42.6959180" lon="-8.2462230">
        <ele>493.5</ele>
        <time>2019-08-18T08:16:40Z</time>
      </trkpt>
      <trkpt lat="42.6959290" lon="-8.2462890">
        <ele>493.5</ele>
        <time>2019-08-18T08:16:41Z</time>
      </trkpt>
      <trkpt lat="42.6959410" lon="-8.2463550">
        <ele>493.6</ele>
        <time>2019-08-18T08:16:42Z</time>
      </trkpt>
      <trkpt lat="42.6959510" lon="-8.2464220">
        <ele>493.7</ele>
        <time>2019-08-18T08:16:43Z</time>
      </trkpt>
      <trkpt lat="42.6959610" lon="-8.2464890">
        <ele>493.7</ele>
        <time>2019-08-18T08:16:44Z</time>
      </trkpt>
      <trkpt lat="42.6959710" lon="-8.2465550">
        <ele>493.6</ele>
        <time>2019-08-18T08:16:45Z</time>
      </trkpt>
      <trkpt lat="42.6959810" lon="-8.2466200">
        <ele>493.5</ele>
        <time>2019-08-18T08:16:46Z</time>
      </trkpt>
      <trkpt lat="42.6959900" lon="-8.2466840">
        <ele>493.4</ele>
        <time>2019-08-18T08:16:47Z</time>
      </trkpt>
      <trkpt lat="42.6959990" lon="-8.2467460">
        <ele>493.1</ele>
        <time>2019-08-18T08:16:48Z</time>
      </trkpt>
      <trkpt lat="42.6960080" lon="-8.2468050">
        <ele>492.9</ele>
        <time>2019-08-18T08:16:49Z</time>
      </trkpt>
      <trkpt lat="42.6960170" lon="-8.2468630">
        <ele>492.7</ele>
        <time>2019-08-18T08:16:50Z</time>
      </trkpt>
      <trkpt lat="42.6960250" lon="-8.2469210">
        <ele>492.5</ele>
        <time>2019-08-18T08:16:51Z</time>
      </trkpt>
      <trkpt lat="42.6960340" lon="-8.2469780">
        <ele>492.3</ele>
        <time>2019-08-18T08:16:52Z</time>
      </trkpt>
      <trkpt lat="42.6960460" lon="-8.2470780">
        <ele>491.9</ele>
        <time>2019-08-18T08:16:53Z</time>
      </trkpt>
      <trkpt lat="42.6960510" lon="-8.2471200">
        <ele>491.8</ele>
        <time>2019-08-18T08:16:54Z</time>
      </trkpt>
      <trkpt lat="42.6960560" lon="-8.2471610">
        <ele>491.7</ele>
        <time>2019-08-18T08:16:55Z</time>
      </trkpt>
      <trkpt lat="42.6960620" lon="-8.2472260">
        <ele>491.4</ele>
        <time>2019-08-18T08:16:56Z</time>
      </trkpt>
      <trkpt lat="42.6960700" lon="-8.2472920">
        <ele>491.1</ele>
        <time>2019-08-18T08:16:57Z</time>
      </trkpt>
      <trkpt lat="42.6960940" lon="-8.2473850">
        <ele>490.5</ele>
        <time>2019-08-18T08:16:58Z</time>
      </trkpt>
      <trkpt lat="42.6961060" lon="-8.2474170">
        <ele>490.3</ele>
        <time>2019-08-18T08:16:59Z</time>
      </trkpt>
      <trkpt lat="42.6961190" lon="-8.2474490">
        <ele>490.0</ele>
        <time>2019-08-18T08:17:00Z</time>
      </trkpt>
      <trkpt lat="42.6961460" lon="-8.2474800">
        <ele>489.7</ele>
        <time>2019-08-18T08:17:01Z</time>
      </trkpt>
      <trkpt lat="42.6961790" lon="-8.2474970">
        <ele>489.7</ele>
        <time>2019-08-18T08:17:02Z</time>
      </trkpt>
      <trkpt lat="42.6962170" lon="-8.2475020">
        <ele>489.7</ele>
        <time>2019-08-18T08:17:03Z</time>
      </trkpt>
      <trkpt lat="42.6962570" lon="-8.2474950">
        <ele>489.8</ele>
        <time>2019-08-18T08:17:04Z</time>
      </trkpt>
      <trkpt lat="42.6963010" lon="-8.2474790">
        <ele>489.8</ele>
        <time>2019-08-18T08:17:05Z</time>
      </trkpt>
      <trkpt lat="42.6963450" lon="-8.2474580">
        <ele>489.8</ele>
        <time>2019-08-18T08:17:06Z</time>
      </trkpt>
      <trkpt lat="42.6963890" lon="-8.2474390">
        <ele>489.9</ele>
        <time>2019-08-18T08:17:07Z</time>
      </trkpt>
      <trkpt lat="42.6964330" lon="-8.2474240">
        <ele>489.9</ele>
        <time>2019-08-18T08:17:08Z</time>
      </trkpt>
      <trkpt lat="42.6964760" lon="-8.2474120">
        <ele>489.9</ele>
        <time>2019-08-18T08:17:09Z</time>
      </trkpt>
      <trkpt lat="42.6965180" lon="-8.2474020">
        <ele>490.0</ele>
        <time>2019-08-18T08:17:10Z</time>
      </trkpt>
      <trkpt lat="42.6965610" lon="-8.2473910">
        <ele>490.0</ele>
        <time>2019-08-18T08:17:11Z</time>
      </trkpt>
      <trkpt lat="42.6966040" lon="-8.2473790">
        <ele>490.0</ele>
        <time>2019-08-18T08:17:12Z</time>
      </trkpt>
      <trkpt lat="42.6966480" lon="-8.2473660">
        <ele>490.1</ele>
        <time>2019-08-18T08:17:13Z</time>
      </trkpt>
      <trkpt lat="42.6966930" lon="-8.2473530">
        <ele>490.1</ele>
        <time>2019-08-18T08:17:14Z</time>
      </trkpt>
      <trkpt lat="42.6967380" lon="-8.2473380">
        <ele>490.1</ele>
        <time>2019-08-18T08:17:15Z</time>
      </trkpt>
      <trkpt lat="42.6967850" lon="-8.2473220">
        <ele>490.2</ele>
        <time>2019-08-18T08:17:16Z</time>
      </trkpt>
      <trkpt lat="42.6968340" lon="-8.2473060">
        <ele>490.2</ele>
        <time>2019-08-18T08:17:17Z</time>
      </trkpt>
      <trkpt lat="42.6968840" lon="-8.2472880">
        <ele>490.3</ele>
        <time>2019-08-18T08:17:18Z</time>
      </trkpt>
      <trkpt lat="42.6969350" lon="-8.2472690">
        <ele>490.3</ele>
        <time>2019-08-18T08:17:19Z</time>
      </trkpt>
      <trkpt lat="42.6969860" lon="-8.2472510">
        <ele>490.3</ele>
        <time>2019-08-18T08:17:20Z</time>
      </trkpt>
      <trkpt lat="42.6970370" lon="-8.2472330">
        <ele>490.3</ele>
        <time>2019-08-18T08:17:21Z</time>
      </trkpt>
      <trkpt lat="42.6970880" lon="-8.2472170">
        <ele>490.3</ele>
        <time>2019-08-18T08:17:22Z</time>
      </trkpt>
      <trkpt lat="42.6971360" lon="-8.2472030">
        <ele>490.3</ele>
        <time>2019-08-18T08:17:23Z</time>
      </trkpt>
      <trkpt lat="42.6971820" lon="-8.2471920">
        <ele>490.3</ele>
        <time>2019-08-18T08:17:24Z</time>
      </trkpt>
      <trkpt lat="42.6972250" lon="-8.2471840">
        <ele>490.3</ele>
        <time>2019-08-18T08:17:25Z</time>
      </trkpt>
      <trkpt lat="42.6972640" lon="-8.2471800">
        <ele>490.3</ele>
        <time>2019-08-18T08:17:26Z</time>
      </trkpt>
      <trkpt lat="42.6972990" lon="-8.2471820">
        <ele>490.3</ele>
        <time>2019-08-18T08:17:27Z</time>
      </trkpt>
      <trkpt lat="42.6973270" lon="-8.2471910">
        <ele>490.3</ele>
        <time>2019-08-18T08:17:28Z</time>
      </trkpt>
      <trkpt lat="42.6973500" lon="-8.2472070">
        <ele>490.3</ele>
        <time>2019-08-18T08:17:29Z</time>
      </trkpt>
      <trkpt lat="42.6973660" lon="-8.2472290">
        <ele>489.6</ele>
        <time>2019-08-18T08:17:30Z</time>
      </trkpt>
      <trkpt lat="42.6973770" lon="-8.2472580">
        <ele>489.5</ele>
        <time>2019-08-18T08:17:31Z</time>
      </trkpt>
      <trkpt lat="42.6973830" lon="-8.2472910">
        <ele>489.4</ele>
        <time>2019-08-18T08:17:32Z</time>
      </trkpt>
      <trkpt lat="42.6973860" lon="-8.2473280">
        <ele>489.3</ele>
        <time>2019-08-18T08:17:33Z</time>
      </trkpt>
      <trkpt lat="42.6973870" lon="-8.2473670">
        <ele>489.2</ele>
        <time>2019-08-18T08:17:34Z</time>
      </trkpt>
      <trkpt lat="42.6973900" lon="-8.2474070">
        <ele>489.1</ele>
        <time>2019-08-18T08:17:35Z</time>
      </trkpt>
      <trkpt lat="42.6973960" lon="-8.2474470">
        <ele>489.0</ele>
        <time>2019-08-18T08:17:36Z</time>
      </trkpt>
      <trkpt lat="42.6974070" lon="-8.2474850">
        <ele>488.9</ele>
        <time>2019-08-18T08:17:37Z</time>
      </trkpt>
      <trkpt lat="42.6974210" lon="-8.2475240">
        <ele>488.8</ele>
        <time>2019-08-18T08:17:38Z</time>
      </trkpt>
      <trkpt lat="42.6974350" lon="-8.2475670">
        <ele>488.7</ele>
        <time>2019-08-18T08:17:39Z</time>
      </trkpt>
      <trkpt lat="42.6974470" lon="-8.2476170">
        <ele>488.5</ele>
        <time>2019-08-18T08:17:40Z</time>
      </trkpt>
      <trkpt lat="42.6974570" lon="-8.2476720">
        <ele>488.4</ele>
        <time>2019-08-18T08:17:41Z</time>
      </trkpt>
      <trkpt lat="42.6974650" lon="-8.2477320">
        <ele>488.2</ele>
        <time>2019-08-18T08:17:42Z</time>
      </trkpt>
      <trkpt lat="42.6974710" lon="-8.2477950">
        <ele>488.1</ele>
        <time>2019-08-18T08:17:43Z</time>
      </trkpt>
      <trkpt lat="42.6974760" lon="-8.2478610">
        <ele>487.4</ele>
        <time>2019-08-18T08:17:44Z</time>
      </trkpt>
      <trkpt lat="42.6974810" lon="-8.2479710">
        <ele>486.8</ele>
        <time>2019-08-18T08:17:45Z</time>
      </trkpt>
      <trkpt lat="42.6974820" lon="-8.2480150">
        <ele>486.5</ele>
        <time>2019-08-18T08:17:46Z</time>
      </trkpt>
      <trkpt lat="42.6974840" lon="-8.2480590">
        <ele>486.2</ele>
        <time>2019-08-18T08:17:47Z</time>
      </trkpt>
      <trkpt lat="42.6974860" lon="-8.2481220">
        <ele>485.7</ele>
        <time>2019-08-18T08:17:48Z</time>
      </trkpt>
      <trkpt lat="42.6974900" lon="-8.2481820">
        <ele>485.2</ele>
        <time>2019-08-18T08:17:49Z</time>
      </trkpt>
      <trkpt lat="42.6974970" lon="-8.2482370">
        <ele>484.8</ele>
        <time>2019-08-18T08:17:50Z</time>
      </trkpt>
      <trkpt lat="42.6975170" lon="-8.2483080">
        <ele>484.0</ele>
        <time>2019-08-18T08:17:51Z</time>
      </trkpt>
      <trkpt lat="42.6975270" lon="-8.2483290">
        <ele>483.8</ele>
        <time>2019-08-18T08:17:52Z</time>
      </trkpt>
      <trkpt lat="42.6975460" lon="-8.2483710">
        <ele>483.3</ele>
        <time>2019-08-18T08:17:53Z</time>
      </trkpt>
      <trkpt lat="42.6975750" lon="-8.2484080">
        <ele>482.7</ele>
        <time>2019-08-18T08:17:54Z</time>
      </trkpt>
      <trkpt lat="42.6976110" lon="-8.2484450">
        <ele>482.5</ele>
        <time>2019-08-18T08:17:55Z</time>
      </trkpt>
      <trkpt lat="42.6976520" lon="-8.2484830">
        <ele>482.3</ele>
        <time>2019-08-18T08:17:56Z</time>
      </trkpt>
      <trkpt lat="42.6976980" lon="-8.2485220">
        <ele>482.0</ele>
        <time>2019-08-18T08:17:57Z</time>
      </trkpt>
      <trkpt lat="42.6977470" lon="-8.2485630">
        <ele>481.8</ele>
        <time>2019-08-18T08:17:58Z</time>
      </trkpt>
      <trkpt lat="42.6977980" lon="-8.2486050">
        <ele>481.4</ele>
        <time>2019-08-18T08:17:59Z</time>
      </trkpt>
      <trkpt lat="42.6978490" lon="-8.2486470">
        <ele>481.0</ele>
        <time>2019-08-18T08:18:00Z</time>
      </trkpt>
      <trkpt lat="42.6978990" lon="-8.2486870">
        <ele>480.7</ele>
        <time>2019-08-18T08:18:01Z</time>
      </trkpt>
      <trkpt lat="42.6979460" lon="-8.2487230">
        <ele>480.5</ele>
        <time>2019-08-18T08:18:02Z</time>
      </trkpt>
      <trkpt lat="42.6979890" lon="-8.2487520">
        <ele>480.3</ele>
        <time>2019-08-18T08:18:03Z</time>
      </trkpt>
      <trkpt lat="42.6980260" lon="-8.2487750">
        <ele>480.0</ele>
        <time>2019-08-18T08:18:04Z</time>
      </trkpt>
      <trkpt lat="42.6980570" lon="-8.2487910">
        <ele>479.9</ele>
        <time>2019-08-18T08:18:05Z</time>
      </trkpt>
      <trkpt lat="42.6980800" lon="-8.2488010">
        <ele>479.7</ele>
        <time>2019-08-18T08:18:06Z</time>
      </trkpt>
      <trkpt lat="42.6980970" lon="-8.2488070">
        <ele>479.7</ele>
        <time>2019-08-18T08:18:07Z</time>
      </trkpt>
      <trkpt lat="42.6981120" lon="-8.2488220">
        <ele>479.6</ele>
        <time>2019-08-18T08:18:08Z</time>
      </trkpt>
      <trkpt lat="42.6981330" lon="-8.2488530">
        <ele>479.4</ele>
        <time>2019-08-18T08:19:48Z</time>
      </trkpt>
      <trkpt lat="42.6981630" lon="-8.2488900">
        <ele>479.2</ele>
        <time>2019-08-18T08:19:49Z</time>
      </trkpt>
      <trkpt lat="42.6982000" lon="-8.2489270">
        <ele>478.9</ele>
        <time>2019-08-18T08:19:50Z</time>
      </trkpt>
      <trkpt lat="42.6982440" lon="-8.2489670">
        <ele>478.7</ele>
        <time>2019-08-18T08:19:51Z</time>
      </trkpt>
      <trkpt lat="42.6982930" lon="-8.2490080">
        <ele>478.4</ele>
        <time>2019-08-18T08:19:52Z</time>
      </trkpt>
      <trkpt lat="42.6983470" lon="-8.2490510">
        <ele>478.0</ele>
        <time>2019-08-18T08:19:53Z</time>
      </trkpt>
      <trkpt lat="42.6984440" lon="-8.2491300">
        <ele>477.4</ele>
        <time>2019-08-18T08:19:54Z</time>
      </trkpt>
      <trkpt lat="42.6984840" lon="-8.2491630">
        <ele>477.1</ele>
        <time>2019-08-18T08:19:55Z</time>
      </trkpt>
      <trkpt lat="42.6985240" lon="-8.2491960">
        <ele>476.9</ele>
        <time>2019-08-18T08:19:56Z</time>
      </trkpt>
      <trkpt lat="42.6985850" lon="-8.2492500">
        <ele>476.7</ele>
        <time>2019-08-18T08:19:57Z</time>
      </trkpt>
      <trkpt lat="42.6986450" lon="-8.2493070">
        <ele>476.5</ele>
        <time>2019-08-18T08:19:58Z</time>
      </trkpt>
      <trkpt lat="42.6987050" lon="-8.2493660">
        <ele>476.4</ele>
        <time>2019-08-18T08:19:59Z</time>
      </trkpt>
      <trkpt lat="42.6987990" lon="-8.2494700">
        <ele>476.0</ele>
        <time>2019-08-18T08:20:00Z</time>
      </trkpt>
      <trkpt lat="42.6988350" lon="-8.2495140">
        <ele>475.9</ele>
        <time>2019-08-18T08:20:01Z</time>
      </trkpt>
      <trkpt lat="42.6988710" lon="-8.2495570">
        <ele>475.9</ele>
        <time>2019-08-18T08:20:02Z</time>
      </trkpt>
      <trkpt lat="42.6989190" lon="-8.2496250">
        <ele>475.4</ele>
        <time>2019-08-18T08:20:03Z</time>
      </trkpt>
      <trkpt lat="42.6989640" lon="-8.2496950">
        <ele>475.0</ele>
        <time>2019-08-18T08:20:04Z</time>
      </trkpt>
      <trkpt lat="42.6990270" lon="-8.2498150">
        <ele>474.3</ele>
        <time>2019-08-18T08:20:05Z</time>
      </trkpt>
      <trkpt lat="42.6990510" lon="-8.2498640">
        <ele>474.0</ele>
        <time>2019-08-18T08:20:06Z</time>
      </trkpt>
      <trkpt lat="42.6990740" lon="-8.2499120">
        <ele>473.8</ele>
        <time>2019-08-18T08:20:07Z</time>
      </trkpt>
      <trkpt lat="42.6991020" lon="-8.2499850">
        <ele>473.5</ele>
        <time>2019-08-18T08:20:08Z</time>
      </trkpt>
      <trkpt lat="42.6991280" lon="-8.2500580">
        <ele>473.3</ele>
        <time>2019-08-18T08:20:09Z</time>
      </trkpt>
      <trkpt lat="42.6991490" lon="-8.2501310">
        <ele>473.1</ele>
        <time>2019-08-18T08:20:10Z</time>
      </trkpt>
      <trkpt lat="42.6991690" lon="-8.2502030">
        <ele>472.9</ele>
        <time>2019-08-18T08:20:11Z</time>
      </trkpt>
      <trkpt lat="42.6991950" lon="-8.2502750">
        <ele>472.8</ele>
        <time>2019-08-18T08:20:12Z</time>
      </trkpt>
      <trkpt lat="42.6992350" lon="-8.2503490">
        <ele>472.6</ele>
        <time>2019-08-18T08:20:13Z</time>
      </trkpt>
      <trkpt lat="42.6992760" lon="-8.2504260">
        <ele>472.5</ele>
        <time>2019-08-18T08:20:14Z</time>
      </trkpt>
      <trkpt lat="42.6993070" lon="-8.2505080">
        <ele>472.4</ele>
        <time>2019-08-18T08:20:15Z</time>
      </trkpt>
      <trkpt lat="42.6993280" lon="-8.2505960">
        <ele>472.3</ele>
        <time>2019-08-18T08:20:16Z</time>
      </trkpt>
      <trkpt lat="42.6993420" lon="-8.2506880">
        <ele>472.2</ele>
        <time>2019-08-18T08:20:17Z</time>
      </trkpt>
      <trkpt lat="42.6993500" lon="-8.2507820">
        <ele>472.2</ele>
        <time>2019-08-18T08:20:18Z</time>
      </trkpt>
      <trkpt lat="42.6993540" lon="-8.2508790">
        <ele>472.1</ele>
        <time>2019-08-18T08:20:19Z</time>
      </trkpt>
      <trkpt lat="42.6993540" lon="-8.2509770">
        <ele>472.1</ele>
        <time>2019-08-18T08:20:20Z</time>
      </trkpt>
      <trkpt lat="42.6993500" lon="-8.2510760">
        <ele>472.1</ele>
        <time>2019-08-18T08:20:21Z</time>
      </trkpt>
      <trkpt lat="42.6993460" lon="-8.2511740">
        <ele>471.9</ele>
        <time>2019-08-18T08:20:22Z</time>
      </trkpt>
      <trkpt lat="42.6993380" lon="-8.2512710">
        <ele>471.8</ele>
        <time>2019-08-18T08:20:23Z</time>
      </trkpt>
      <trkpt lat="42.6993300" lon="-8.2513680">
        <ele>471.7</ele>
        <time>2019-08-18T08:20:24Z</time>
      </trkpt>
      <trkpt lat="42.6993210" lon="-8.2514620">
        <ele>471.5</ele>
        <time>2019-08-18T08:20:25Z</time>
      </trkpt>
      <trkpt lat="42.6993110" lon="-8.2515550">
        <ele>471.4</ele>
        <time>2019-08-18T08:20:26Z</time>
      </trkpt>
      <trkpt lat="42.6993010" lon="-8.2516470">
        <ele>471.3</ele>
        <time>2019-08-18T08:20:27Z</time>
      </trkpt>
      <trkpt lat="42.6992910" lon="-8.2517400">
        <ele>471.2</ele>
        <time>2019-08-18T08:20:28Z</time>
      </trkpt>
      <trkpt lat="42.6992810" lon="-8.2518330">
        <ele>471.1</ele>
        <time>2019-08-18T08:20:29Z</time>
      </trkpt>
      <trkpt lat="42.6992720" lon="-8.2519280">
        <ele>470.9</ele>
        <time>2019-08-18T08:20:30Z</time>
      </trkpt>
      <trkpt lat="42.6992630" lon="-8.2520260">
        <ele>470.7</ele>
        <time>2019-08-18T08:20:31Z</time>
      </trkpt>
      <trkpt lat="42.6992550" lon="-8.2521270">
        <ele>470.3</ele>
        <time>2019-08-18T08:20:32Z</time>
      </trkpt>
      <trkpt lat="42.6992490" lon="-8.2522300">
        <ele>470.0</ele>
        <time>2019-08-18T08:20:33Z</time>
      </trkpt>
      <trkpt lat="42.6992440" lon="-8.2523370">
        <ele>469.6</ele>
        <time>2019-08-18T08:20:34Z</time>
      </trkpt>
      <trkpt lat="42.6992420" lon="-8.2524450">
        <ele>469.2</ele>
        <time>2019-08-18T08:20:35Z</time>
      </trkpt>
      <trkpt lat="42.6992420" lon="-8.2525560">
        <ele>468.4</ele>
        <time>2019-08-18T08:20:36Z</time>
      </trkpt>
      <trkpt lat="42.6992460" lon="-8.2526700">
        <ele>468.0</ele>
        <time>2019-08-18T08:20:37Z</time>
      </trkpt>
      <trkpt lat="42.6992520" lon="-8.2527840">
        <ele>467.8</ele>
        <time>2019-08-18T08:20:38Z</time>
      </trkpt>
      <trkpt lat="42.6992630" lon="-8.2529010">
        <ele>467.6</ele>
        <time>2019-08-18T08:20:39Z</time>
      </trkpt>
      <trkpt lat="42.6992780" lon="-8.2530180">
        <ele>467.4</ele>
        <time>2019-08-18T08:20:40Z</time>
      </trkpt>
      <trkpt lat="42.6993140" lon="-8.2532140">
        <ele>467.3</ele>
        <time>2019-08-18T08:20:41Z</time>
      </trkpt>
      <trkpt lat="42.6993320" lon="-8.2532910">
        <ele>467.3</ele>
        <time>2019-08-18T08:20:42Z</time>
      </trkpt>
      <trkpt lat="42.6993490" lon="-8.2533690">
        <ele>467.3</ele>
        <time>2019-08-18T08:20:43Z</time>
      </trkpt>
      <trkpt lat="42.6993810" lon="-8.2534830">
        <ele>467.1</ele>
        <time>2019-08-18T08:20:44Z</time>
      </trkpt>
      <trkpt lat="42.6994180" lon="-8.2535940">
        <ele>466.7</ele>
        <time>2019-08-18T08:20:45Z</time>
      </trkpt>
      <trkpt lat="42.6994910" lon="-8.2537690">
        <ele>465.4</ele>
        <time>2019-08-18T08:20:46Z</time>
      </trkpt>
      <trkpt lat="42.6995230" lon="-8.2538350">
        <ele>464.6</ele>
        <time>2019-08-18T08:20:47Z</time>
      </trkpt>
      <trkpt lat="42.6995550" lon="-8.2539020">
        <ele>463.7</ele>
        <time>2019-08-18T08:20:48Z</time>
      </trkpt>
      <trkpt lat="42.6996090" lon="-8.2539960">
        <ele>461.0</ele>
        <time>2019-08-18T08:20:49Z</time>
      </trkpt>
      <trkpt lat="42.6996660" lon="-8.2540850">
        <ele>461.0</ele>
        <time>2019-08-18T08:20:50Z</time>
      </trkpt>
      <trkpt lat="42.6997270" lon="-8.2541700">
        <ele>460.9</ele>
        <time>2019-08-18T08:20:51Z</time>
      </trkpt>
      <trkpt lat="42.6997920" lon="-8.2542520">
        <ele>460.9</ele>
        <time>2019-08-18T08:20:52Z</time>
      </trkpt>
      <trkpt lat="42.6998590" lon="-8.2543290">
        <ele>460.9</ele>
        <time>2019-08-18T08:20:53Z</time>
      </trkpt>
      <trkpt lat="42.6999290" lon="-8.2544030">
        <ele>460.8</ele>
        <time>2019-08-18T08:20:54Z</time>
      </trkpt>
      <trkpt lat="42.7000020" lon="-8.2544730">
        <ele>460.8</ele>
        <time>2019-08-18T08:20:55Z</time>
      </trkpt>
      <trkpt lat="42.7000780" lon="-8.2545380">
        <ele>460.7</ele>
        <time>2019-08-18T08:20:56Z</time>
      </trkpt>
      <trkpt lat="42.7001540" lon="-8.2546040">
        <ele>460.3</ele>
        <time>2019-08-18T08:20:57Z</time>
      </trkpt>
      <trkpt lat="42.7002330" lon="-8.2546650">
        <ele>460.1</ele>
        <time>2019-08-18T08:20:58Z</time>
      </trkpt>
      <trkpt lat="42.7003130" lon="-8.2547230">
        <ele>459.8</ele>
        <time>2019-08-18T08:20:59Z</time>
      </trkpt>
      <trkpt lat="42.7003950" lon="-8.2547780">
        <ele>459.5</ele>
        <time>2019-08-18T08:21:00Z</time>
      </trkpt>
      <trkpt lat="42.7004780" lon="-8.2548310">
        <ele>459.2</ele>
        <time>2019-08-18T08:21:01Z</time>
      </trkpt>
      <trkpt lat="42.7005620" lon="-8.2548820">
        <ele>458.9</ele>
        <time>2019-08-18T08:21:02Z</time>
      </trkpt>
      <trkpt lat="42.7006450" lon="-8.2549330">
        <ele>458.5</ele>
        <time>2019-08-18T08:21:03Z</time>
      </trkpt>
      <trkpt lat="42.7007280" lon="-8.2549860">
        <ele>458.1</ele>
        <time>2019-08-18T08:21:04Z</time>
      </trkpt>
      <trkpt lat="42.7008090" lon="-8.2550410">
        <ele>457.7</ele>
        <time>2019-08-18T08:21:05Z</time>
      </trkpt>
      <trkpt lat="42.7008870" lon="-8.2551000">
        <ele>457.3</ele>
        <time>2019-08-18T08:21:06Z</time>
      </trkpt>
      <trkpt lat="42.7009640" lon="-8.2551640">
        <ele>456.8</ele>
        <time>2019-08-18T08:21:07Z</time>
      </trkpt>
      <trkpt lat="42.7010360" lon="-8.2552340">
        <ele>456.4</ele>
        <time>2019-08-18T08:21:08Z</time>
      </trkpt>
      <trkpt lat="42.7011050" lon="-8.2553110">
        <ele>455.7</ele>
        <time>2019-08-18T08:21:09Z</time>
      </trkpt>
      <trkpt lat="42.7011690" lon="-8.2553950">
        <ele>455.1</ele>
        <time>2019-08-18T08:21:10Z</time>
      </trkpt>
      <trkpt lat="42.7012290" lon="-8.2554850">
        <ele>454.7</ele>
        <time>2019-08-18T08:21:11Z</time>
      </trkpt>
      <trkpt lat="42.7012850" lon="-8.2555810">
        <ele>454.3</ele>
        <time>2019-08-18T08:21:12Z</time>
      </trkpt>
      <trkpt lat="42.7013350" lon="-8.2556810">
        <ele>453.9</ele>
        <time>2019-08-18T08:21:13Z</time>
      </trkpt>
      <trkpt lat="42.7013810" lon="-8.2557850">
        <ele>453.7</ele>
        <time>2019-08-18T08:21:14Z</time>
      </trkpt>
      <trkpt lat="42.7014440" lon="-8.2559650">
        <ele>453.6</ele>
        <time>2019-08-18T08:21:15Z</time>
      </trkpt>
      <trkpt lat="42.7014670" lon="-8.2560380">
        <ele>453.6</ele>
        <time>2019-08-18T08:21:16Z</time>
      </trkpt>
      <trkpt lat="42.7014890" lon="-8.2561110">
        <ele>453.5</ele>
        <time>2019-08-18T08:21:17Z</time>
      </trkpt>
      <trkpt lat="42.7015170" lon="-8.2562220">
        <ele>453.5</ele>
        <time>2019-08-18T08:21:18Z</time>
      </trkpt>
      <trkpt lat="42.7015420" lon="-8.2563320">
        <ele>453.4</ele>
        <time>2019-08-18T08:21:19Z</time>
      </trkpt>
      <trkpt lat="42.7015810" lon="-8.2565130">
        <ele>453.4</ele>
        <time>2019-08-18T08:21:20Z</time>
      </trkpt>
      <trkpt lat="42.7015970" lon="-8.2565850">
        <ele>453.4</ele>
        <time>2019-08-18T08:21:21Z</time>
      </trkpt>
      <trkpt lat="42.7016120" lon="-8.2566560">
        <ele>453.5</ele>
        <time>2019-08-18T08:21:22Z</time>
      </trkpt>
      <trkpt lat="42.7016350" lon="-8.2567610">
        <ele>453.6</ele>
        <time>2019-08-18T08:21:23Z</time>
      </trkpt>
      <trkpt lat="42.7016590" lon="-8.2568630">
        <ele>453.6</ele>
        <time>2019-08-18T08:21:24Z</time>
      </trkpt>
      <trkpt lat="42.7016830" lon="-8.2569630">
        <ele>453.6</ele>
        <time>2019-08-18T08:21:25Z</time>
      </trkpt>
      <trkpt lat="42.7017070" lon="-8.2570620">
        <ele>453.5</ele>
        <time>2019-08-18T08:21:26Z</time>
      </trkpt>
      <trkpt lat="42.7017310" lon="-8.2571610">
        <ele>453.1</ele>
        <time>2019-08-18T08:21:27Z</time>
      </trkpt>
      <trkpt lat="42.7017530" lon="-8.2572610">
        <ele>452.8</ele>
        <time>2019-08-18T08:21:28Z</time>
      </trkpt>
      <trkpt lat="42.7017750" lon="-8.2573600">
        <ele>452.5</ele>
        <time>2019-08-18T08:21:29Z</time>
      </trkpt>
      <trkpt lat="42.7018000" lon="-8.2574590">
        <ele>452.2</ele>
        <time>2019-08-18T08:21:30Z</time>
      </trkpt>
      <trkpt lat="42.7018290" lon="-8.2575580">
        <ele>451.9</ele>
        <time>2019-08-18T08:21:31Z</time>
      </trkpt>
      <trkpt lat="42.7018610" lon="-8.2576560">
        <ele>451.5</ele>
        <time>2019-08-18T08:21:32Z</time>
      </trkpt>
      <trkpt lat="42.7018980" lon="-8.2577510">
        <ele>451.2</ele>
        <time>2019-08-18T08:21:33Z</time>
      </trkpt>
      <trkpt lat="42.7019380" lon="-8.2578410">
        <ele>450.8</ele>
        <time>2019-08-18T08:21:34Z</time>
      </trkpt>
      <trkpt lat="42.7019810" lon="-8.2579260">
        <ele>450.5</ele>
        <time>2019-08-18T08:21:35Z</time>
      </trkpt>
      <trkpt lat="42.7020280" lon="-8.2580060">
        <ele>450.7</ele>
        <time>2019-08-18T08:21:36Z</time>
      </trkpt>
      <trkpt lat="42.7020780" lon="-8.2580830">
        <ele>450.8</ele>
        <time>2019-08-18T08:21:37Z</time>
      </trkpt>
      <trkpt lat="42.7021300" lon="-8.2581580">
        <ele>450.9</ele>
        <time>2019-08-18T08:21:38Z</time>
      </trkpt>
      <trkpt lat="42.7021840" lon="-8.2582310">
        <ele>451.1</ele>
        <time>2019-08-18T08:21:39Z</time>
      </trkpt>
      <trkpt lat="42.7022410" lon="-8.2583030">
        <ele>451.2</ele>
        <time>2019-08-18T08:21:40Z</time>
      </trkpt>
      <trkpt lat="42.7022990" lon="-8.2583710">
        <ele>451.3</ele>
        <time>2019-08-18T08:21:41Z</time>
      </trkpt>
      <trkpt lat="42.7023590" lon="-8.2584360">
        <ele>451.5</ele>
        <time>2019-08-18T08:21:42Z</time>
      </trkpt>
      <trkpt lat="42.7024220" lon="-8.2584960">
        <ele>451.7</ele>
        <time>2019-08-18T08:21:43Z</time>
      </trkpt>
      <trkpt lat="42.7024880" lon="-8.2585500">
        <ele>451.8</ele>
        <time>2019-08-18T08:21:44Z</time>
      </trkpt>
      <trkpt lat="42.7025560" lon="-8.2585980">
        <ele>452.0</ele>
        <time>2019-08-18T08:21:45Z</time>
      </trkpt>
      <trkpt lat="42.7026260" lon="-8.2586380">
        <ele>452.2</ele>
        <time>2019-08-18T08:21:46Z</time>
      </trkpt>
      <trkpt lat="42.7026990" lon="-8.2586720">
        <ele>452.3</ele>
        <time>2019-08-18T08:21:47Z</time>
      </trkpt>
      <trkpt lat="42.7027740" lon="-8.2586990">
        <ele>452.5</ele>
        <time>2019-08-18T08:21:48Z</time>
      </trkpt>
      <trkpt lat="42.7028510" lon="-8.2587210">
        <ele>452.7</ele>
        <time>2019-08-18T08:21:49Z</time>
      </trkpt>
      <trkpt lat="42.7029290" lon="-8.2587360">
        <ele>452.9</ele>
        <time>2019-08-18T08:21:50Z</time>
      </trkpt>
      <trkpt lat="42.7030070" lon="-8.2587510">
        <ele>453.1</ele>
        <time>2019-08-18T08:21:51Z</time>
      </trkpt>
      <trkpt lat="42.7030860" lon="-8.2587600">
        <ele>453.3</ele>
        <time>2019-08-18T08:21:52Z</time>
      </trkpt>
      <trkpt lat="42.7031650" lon="-8.2587670">
        <ele>453.6</ele>
        <time>2019-08-18T08:21:53Z</time>
      </trkpt>
      <trkpt lat="42.7032440" lon="-8.2587710">
        <ele>453.8</ele>
        <time>2019-08-18T08:21:54Z</time>
      </trkpt>
      <trkpt lat="42.7033240" lon="-8.2587730">
        <ele>454.0</ele>
        <time>2019-08-18T08:21:55Z</time>
      </trkpt>
      <trkpt lat="42.7034040" lon="-8.2587730">
        <ele>454.2</ele>
        <time>2019-08-18T08:21:56Z</time>
      </trkpt>
      <trkpt lat="42.7034840" lon="-8.2587720">
        <ele>454.5</ele>
        <time>2019-08-18T08:21:57Z</time>
      </trkpt>
      <trkpt lat="42.7036070" lon="-8.2587690">
        <ele>454.9</ele>
        <time>2019-08-18T08:21:58Z</time>
      </trkpt>
      <trkpt lat="42.7036480" lon="-8.2587680">
        <ele>455.0</ele>
        <time>2019-08-18T08:21:59Z</time>
      </trkpt>
      <trkpt lat="42.7037310" lon="-8.2587650">
        <ele>455.3</ele>
        <time>2019-08-18T08:22:00Z</time>
      </trkpt>
      <trkpt lat="42.7038150" lon="-8.2587630">
        <ele>455.6</ele>
        <time>2019-08-18T08:22:01Z</time>
      </trkpt>
      <trkpt lat="42.7039000" lon="-8.2587600">
        <ele>455.9</ele>
        <time>2019-08-18T08:22:02Z</time>
      </trkpt>
      <trkpt lat="42.7039870" lon="-8.2587580">
        <ele>456.3</ele>
        <time>2019-08-18T08:22:03Z</time>
      </trkpt>
      <trkpt lat="42.7040740" lon="-8.2587550">
        <ele>456.6</ele>
        <time>2019-08-18T08:22:04Z</time>
      </trkpt>
      <trkpt lat="42.7041620" lon="-8.2587540">
        <ele>457.0</ele>
        <time>2019-08-18T08:22:05Z</time>
      </trkpt>
      <trkpt lat="42.7042500" lon="-8.2587520">
        <ele>453.7</ele>
        <time>2019-08-18T08:22:06Z</time>
      </trkpt>
      <trkpt lat="42.7043400" lon="-8.2587520">
        <ele>451.9</ele>
        <time>2019-08-18T08:22:07Z</time>
      </trkpt>
      <trkpt lat="42.7044300" lon="-8.2587520">
        <ele>450.0</ele>
        <time>2019-08-18T08:22:08Z</time>
      </trkpt>
      <trkpt lat="42.7045200" lon="-8.2587530">
        <ele>448.2</ele>
        <time>2019-08-18T08:22:09Z</time>
      </trkpt>
      <trkpt lat="42.7046090" lon="-8.2587550">
        <ele>446.5</ele>
        <time>2019-08-18T08:22:10Z</time>
      </trkpt>
      <trkpt lat="42.7046960" lon="-8.2587600">
        <ele>444.9</ele>
        <time>2019-08-18T08:22:11Z</time>
      </trkpt>
      <trkpt lat="42.7047800" lon="-8.2587660">
        <ele>443.3</ele>
        <time>2019-08-18T08:22:12Z</time>
      </trkpt>
      <trkpt lat="42.7048600" lon="-8.2587740">
        <ele>441.9</ele>
        <time>2019-08-18T08:22:13Z</time>
      </trkpt>
      <trkpt lat="42.7049350" lon="-8.2587850">
        <ele>439.6</ele>
        <time>2019-08-18T08:22:14Z</time>
      </trkpt>
      <trkpt lat="42.7050050" lon="-8.2587980">
        <ele>438.9</ele>
        <time>2019-08-18T08:22:15Z</time>
      </trkpt>
      <trkpt lat="42.7050700" lon="-8.2588150">
        <ele>435.7</ele>
        <time>2019-08-18T08:22:16Z</time>
      </trkpt>
      <trkpt lat="42.7051320" lon="-8.2588350">
        <ele>435.3</ele>
        <time>2019-08-18T08:22:17Z</time>
      </trkpt>
      <trkpt lat="42.7052200" lon="-8.2588730">
        <ele>433.4</ele>
        <time>2019-08-18T08:22:18Z</time>
      </trkpt>
      <trkpt lat="42.7052490" lon="-8.2588870">
        <ele>432.8</ele>
        <time>2019-08-18T08:22:19Z</time>
      </trkpt>
      <trkpt lat="42.7053070" lon="-8.2589200">
        <ele>431.7</ele>
        <time>2019-08-18T08:22:20Z</time>
      </trkpt>
      <trkpt lat="42.7053650" lon="-8.2589580">
        <ele>430.5</ele>
        <time>2019-08-18T08:22:21Z</time>
      </trkpt>
      <trkpt lat="42.7054260" lon="-8.2590010">
        <ele>428.9</ele>
        <time>2019-08-18T08:22:22Z</time>
      </trkpt>
      <trkpt lat="42.7054880" lon="-8.2590490">
        <ele>427.4</ele>
        <time>2019-08-18T08:22:23Z</time>
      </trkpt>
      <trkpt lat="42.7055520" lon="-8.2591020">
        <ele>425.9</ele>
        <time>2019-08-18T08:22:24Z</time>
      </trkpt>
      <trkpt lat="42.7056160" lon="-8.2591590">
        <ele>424.3</ele>
        <time>2019-08-18T08:22:25Z</time>
      </trkpt>
      <trkpt lat="42.7056810" lon="-8.2592200">
        <ele>424.0</ele>
        <time>2019-08-18T08:22:26Z</time>
      </trkpt>
      <trkpt lat="42.7057450" lon="-8.2592860">
        <ele>423.9</ele>
        <time>2019-08-18T08:22:27Z</time>
      </trkpt>
      <trkpt lat="42.7058100" lon="-8.2593550">
        <ele>423.7</ele>
        <time>2019-08-18T08:22:28Z</time>
      </trkpt>
      <trkpt lat="42.7058730" lon="-8.2594280">
        <ele>423.6</ele>
        <time>2019-08-18T08:22:29Z</time>
      </trkpt>
      <trkpt lat="42.7059350" lon="-8.2595040">
        <ele>423.4</ele>
        <time>2019-08-18T08:22:30Z</time>
      </trkpt>
      <trkpt lat="42.7059950" lon="-8.2595850">
        <ele>423.4</ele>
        <time>2019-08-18T08:22:31Z</time>
      </trkpt>
      <trkpt lat="42.7060540" lon="-8.2596690">
        <ele>423.3</ele>
        <time>2019-08-18T08:22:32Z</time>
      </trkpt>
      <trkpt lat="42.7061090" lon="-8.2597580">
        <ele>423.4</ele>
        <time>2019-08-18T08:22:33Z</time>
      </trkpt>
      <trkpt lat="42.7061620" lon="-8.2598510">
        <ele>423.5</ele>
        <time>2019-08-18T08:22:34Z</time>
      </trkpt>
      <trkpt lat="42.7062120" lon="-8.2599490">
        <ele>423.8</ele>
        <time>2019-08-18T08:22:35Z</time>
      </trkpt>
      <trkpt lat="42.7062580" lon="-8.2600520">
        <ele>424.1</ele>
        <time>2019-08-18T08:22:36Z</time>
      </trkpt>
      <trkpt lat="42.7063000" lon="-8.2601600">
        <ele>424.5</ele>
        <time>2019-08-18T08:22:37Z</time>
      </trkpt>
      <trkpt lat="42.7063380" lon="-8.2602730">
        <ele>425.0</ele>
        <time>2019-08-18T08:22:38Z</time>
      </trkpt>
      <trkpt lat="42.7063720" lon="-8.2603900">
        <ele>425.5</ele>
        <time>2019-08-18T08:22:39Z</time>
      </trkpt>
      <trkpt lat="42.7064010" lon="-8.2605100">
        <ele>426.0</ele>
        <time>2019-08-18T08:22:40Z</time>
      </trkpt>
      <trkpt lat="42.7064260" lon="-8.2606350">
        <ele>426.4</ele>
        <time>2019-08-18T08:22:41Z</time>
      </trkpt>
      <trkpt lat="42.7064450" lon="-8.2607630">
        <ele>426.8</ele>
        <time>2019-08-18T08:22:42Z</time>
      </trkpt>
      <trkpt lat="42.7064640" lon="-8.2609830">
        <ele>427.2</ele>
        <time>2019-08-18T08:22:43Z</time>
      </trkpt>
      <trkpt lat="42.7064690" lon="-8.2610720">
        <ele>427.4</ele>
        <time>2019-08-18T08:22:44Z</time>
      </trkpt>
      <trkpt lat="42.7064730" lon="-8.2611620">
        <ele>427.5</ele>
        <time>2019-08-18T08:22:45Z</time>
      </trkpt>
      <trkpt lat="42.7064760" lon="-8.2612980">
        <ele>427.6</ele>
        <time>2019-08-18T08:22:46Z</time>
      </trkpt>
      <trkpt lat="42.7064740" lon="-8.2614360">
        <ele>427.6</ele>
        <time>2019-08-18T08:22:47Z</time>
      </trkpt>
      <trkpt lat="42.7064620" lon="-8.2616690">
        <ele>427.7</ele>
        <time>2019-08-18T08:22:48Z</time>
      </trkpt>
      <trkpt lat="42.7064570" lon="-8.2617620">
        <ele>427.7</ele>
        <time>2019-08-18T08:22:49Z</time>
      </trkpt>
      <trkpt lat="42.7064510" lon="-8.2618560">
        <ele>427.2</ele>
        <time>2019-08-18T08:22:50Z</time>
      </trkpt>
      <trkpt lat="42.7064410" lon="-8.2619970">
        <ele>426.3</ele>
        <time>2019-08-18T08:22:51Z</time>
      </trkpt>
      <trkpt lat="42.7064290" lon="-8.2621380">
        <ele>425.3</ele>
        <time>2019-08-18T08:22:52Z</time>
      </trkpt>
      <trkpt lat="42.7064180" lon="-8.2622800">
        <ele>424.2</ele>
        <time>2019-08-18T08:22:53Z</time>
      </trkpt>
      <trkpt lat="42.7064070" lon="-8.2624230">
        <ele>423.2</ele>
        <time>2019-08-18T08:22:54Z</time>
      </trkpt>
      <trkpt lat="42.7063960" lon="-8.2625660">
        <ele>422.2</ele>
        <time>2019-08-18T08:22:55Z</time>
      </trkpt>
      <trkpt lat="42.7063870" lon="-8.2627100">
        <ele>421.3</ele>
        <time>2019-08-18T08:22:56Z</time>
      </trkpt>
      <trkpt lat="42.7063800" lon="-8.2628560">
        <ele>420.3</ele>
        <time>2019-08-18T08:22:57Z</time>
      </trkpt>
      <trkpt lat="42.7063760" lon="-8.2630030">
        <ele>419.3</ele>
        <time>2019-08-18T08:22:58Z</time>
      </trkpt>
      <trkpt lat="42.7063740" lon="-8.2631510">
        <ele>418.5</ele>
        <time>2019-08-18T08:22:59Z</time>
      </trkpt>
      <trkpt lat="42.7063760" lon="-8.2632990">
        <ele>417.6</ele>
        <time>2019-08-18T08:23:00Z</time>
      </trkpt>
      <trkpt lat="42.7063810" lon="-8.2634470">
        <ele>416.5</ele>
        <time>2019-08-18T08:23:01Z</time>
      </trkpt>
      <trkpt lat="42.7063900" lon="-8.2635950">
        <ele>415.4</ele>
        <time>2019-08-18T08:23:02Z</time>
      </trkpt>
      <trkpt lat="42.7064160" lon="-8.2638360">
        <ele>413.7</ele>
        <time>2019-08-18T08:23:03Z</time>
      </trkpt>
      <trkpt lat="42.7064300" lon="-8.2639310">
        <ele>413.1</ele>
        <time>2019-08-18T08:23:04Z</time>
      </trkpt>
      <trkpt lat="42.7064440" lon="-8.2640260">
        <ele>412.5</ele>
        <time>2019-08-18T08:23:05Z</time>
      </trkpt>
      <trkpt lat="42.7064680" lon="-8.2641670">
        <ele>411.7</ele>
        <time>2019-08-18T08:23:06Z</time>
      </trkpt>
      <trkpt lat="42.7065000" lon="-8.2643030">
        <ele>411.0</ele>
        <time>2019-08-18T08:23:07Z</time>
      </trkpt>
      <trkpt lat="42.7065640" lon="-8.2645230">
        <ele>409.9</ele>
        <time>2019-08-18T08:23:08Z</time>
      </trkpt>
      <trkpt lat="42.7065930" lon="-8.2646080">
        <ele>409.5</ele>
        <time>2019-08-18T08:23:09Z</time>
      </trkpt>
      <trkpt lat="42.7066220" lon="-8.2646940">
        <ele>409.1</ele>
        <time>2019-08-18T08:23:10Z</time>
      </trkpt>
      <trkpt lat="42.7066680" lon="-8.2648210">
        <ele>408.5</ele>
        <time>2019-08-18T08:23:11Z</time>
      </trkpt>
      <trkpt lat="42.7067190" lon="-8.2649440">
        <ele>408.0</ele>
        <time>2019-08-18T08:23:12Z</time>
      </trkpt>
      <trkpt lat="42.7067740" lon="-8.2650630">
        <ele>407.4</ele>
        <time>2019-08-18T08:23:13Z</time>
      </trkpt>
      <trkpt lat="42.7068310" lon="-8.2651810">
        <ele>406.9</ele>
        <time>2019-08-18T08:23:14Z</time>
      </trkpt>
      <trkpt lat="42.7068900" lon="-8.2652960">
        <ele>406.4</ele>
        <time>2019-08-18T08:23:15Z</time>
      </trkpt>
      <trkpt lat="42.7069510" lon="-8.2654100">
        <ele>405.8</ele>
        <time>2019-08-18T08:23:16Z</time>
      </trkpt>
      <trkpt lat="42.7070120" lon="-8.2655220">
        <ele>405.3</ele>
        <time>2019-08-18T08:23:17Z</time>
      </trkpt>
      <trkpt lat="42.7070730" lon="-8.2656340">
        <ele>404.8</ele>
        <time>2019-08-18T08:23:18Z</time>
      </trkpt>
      <trkpt lat="42.7071340" lon="-8.2657450">
        <ele>404.3</ele>
        <time>2019-08-18T08:23:19Z</time>
      </trkpt>
      <trkpt lat="42.7071950" lon="-8.2658560">
        <ele>403.7</ele>
        <time>2019-08-18T08:23:20Z</time>
      </trkpt>
      <trkpt lat="42.7072550" lon="-8.2659680">
        <ele>403.2</ele>
        <time>2019-08-18T08:23:21Z</time>
      </trkpt>
      <trkpt lat="42.7073130" lon="-8.2660810">
        <ele>402.7</ele>
        <time>2019-08-18T08:23:22Z</time>
      </trkpt>
      <trkpt lat="42.7073690" lon="-8.2661960">
        <ele>402.2</ele>
        <time>2019-08-18T08:23:23Z</time>
      </trkpt>
      <trkpt lat="42.7074210" lon="-8.2663120">
        <ele>401.6</ele>
        <time>2019-08-18T08:23:24Z</time>
      </trkpt>
      <trkpt lat="42.7074690" lon="-8.2664310">
        <ele>401.1</ele>
        <time>2019-08-18T08:23:25Z</time>
      </trkpt>
      <trkpt lat="42.7075150" lon="-8.2665510">
        <ele>400.6</ele>
        <time>2019-08-18T08:23:26Z</time>
      </trkpt>
      <trkpt lat="42.7075600" lon="-8.2666720">
        <ele>400.1</ele>
        <time>2019-08-18T08:23:27Z</time>
      </trkpt>
      <trkpt lat="42.7076040" lon="-8.2667930">
        <ele>399.6</ele>
        <time>2019-08-18T08:23:28Z</time>
      </trkpt>
      <trkpt lat="42.7076490" lon="-8.2669140">
        <ele>399.3</ele>
        <time>2019-08-18T08:23:29Z</time>
      </trkpt>
      <trkpt lat="42.7076940" lon="-8.2670350">
        <ele>399.0</ele>
        <time>2019-08-18T08:23:30Z</time>
      </trkpt>
      <trkpt lat="42.7077390" lon="-8.2671560">
        <ele>398.6</ele>
        <time>2019-08-18T08:23:31Z</time>
      </trkpt>
      <trkpt lat="42.7077850" lon="-8.2672770">
        <ele>398.3</ele>
        <time>2019-08-18T08:23:32Z</time>
      </trkpt>
      <trkpt lat="42.7078300" lon="-8.2673980">
        <ele>398.0</ele>
        <time>2019-08-18T08:23:33Z</time>
      </trkpt>
      <trkpt lat="42.7078750" lon="-8.2675180">
        <ele>397.7</ele>
        <time>2019-08-18T08:23:34Z</time>
      </trkpt>
      <trkpt lat="42.7079210" lon="-8.2676390">
        <ele>397.4</ele>
        <time>2019-08-18T08:23:35Z</time>
      </trkpt>
      <trkpt lat="42.7079660" lon="-8.2677600">
        <ele>397.0</ele>
        <time>2019-08-18T08:23:36Z</time>
      </trkpt>
      <trkpt lat="42.7080110" lon="-8.2678800">
        <ele>396.6</ele>
        <time>2019-08-18T08:23:37Z</time>
      </trkpt>
      <trkpt lat="42.7080560" lon="-8.2680010">
        <ele>396.1</ele>
        <time>2019-08-18T08:23:38Z</time>
      </trkpt>
      <trkpt lat="42.7081000" lon="-8.2681210">
        <ele>395.7</ele>
        <time>2019-08-18T08:23:39Z</time>
      </trkpt>
      <trkpt lat="42.7081440" lon="-8.2682420">
        <ele>395.4</ele>
        <time>2019-08-18T08:23:40Z</time>
      </trkpt>
      <trkpt lat="42.7081880" lon="-8.2683620">
        <ele>395.1</ele>
        <time>2019-08-18T08:23:41Z</time>
      </trkpt>
      <trkpt lat="42.7082320" lon="-8.2684820">
        <ele>394.8</ele>
        <time>2019-08-18T08:23:42Z</time>
      </trkpt>
      <trkpt lat="42.7082750" lon="-8.2686030">
        <ele>394.4</ele>
        <time>2019-08-18T08:23:43Z</time>
      </trkpt>
      <trkpt lat="42.7083170" lon="-8.2687230">
        <ele>394.0</ele>
        <time>2019-08-18T08:23:44Z</time>
      </trkpt>
      <trkpt lat="42.7083600" lon="-8.2688420">
        <ele>393.7</ele>
        <time>2019-08-18T08:23:45Z</time>
      </trkpt>
      <trkpt lat="42.7084030" lon="-8.2689610">
        <ele>393.3</ele>
        <time>2019-08-18T08:23:46Z</time>
      </trkpt>
      <trkpt lat="42.7084460" lon="-8.2690800">
        <ele>392.7</ele>
        <time>2019-08-18T08:23:47Z</time>
      </trkpt>
      <trkpt lat="42.7084900" lon="-8.2691980">
        <ele>392.0</ele>
        <time>2019-08-18T08:23:48Z</time>
      </trkpt>
      <trkpt lat="42.7085350" lon="-8.2693140">
        <ele>391.4</ele>
        <time>2019-08-18T08:23:49Z</time>
      </trkpt>
      <trkpt lat="42.7085800" lon="-8.2694300">
        <ele>390.8</ele>
        <time>2019-08-18T08:23:50Z</time>
      </trkpt>
      <trkpt lat="42.7086270" lon="-8.2695450">
        <ele>390.2</ele>
        <time>2019-08-18T08:23:51Z</time>
      </trkpt>
      <trkpt lat="42.7086740" lon="-8.2696580">
        <ele>389.6</ele>
        <time>2019-08-18T08:23:52Z</time>
      </trkpt>
      <trkpt lat="42.7087220" lon="-8.2697690">
        <ele>389.1</ele>
        <time>2019-08-18T08:23:53Z</time>
      </trkpt>
      <trkpt lat="42.7087690" lon="-8.2698800">
        <ele>388.7</ele>
        <time>2019-08-18T08:23:54Z</time>
      </trkpt>
      <trkpt lat="42.7088170" lon="-8.2699880">
        <ele>388.3</ele>
        <time>2019-08-18T08:23:55Z</time>
      </trkpt>
      <trkpt lat="42.7088650" lon="-8.2700950">
        <ele>388.0</ele>
        <time>2019-08-18T08:23:56Z</time>
      </trkpt>
      <trkpt lat="42.7089110" lon="-8.2702000">
        <ele>387.7</ele>
        <time>2019-08-18T08:23:57Z</time>
      </trkpt>
      <trkpt lat="42.7089570" lon="-8.2703030">
        <ele>387.6</ele>
        <time>2019-08-18T08:23:58Z</time>
      </trkpt>
      <trkpt lat="42.7090010" lon="-8.2704060">
        <ele>387.4</ele>
        <time>2019-08-18T08:23:59Z</time>
      </trkpt>
      <trkpt lat="42.7090420" lon="-8.2705090">
        <ele>387.2</ele>
        <time>2019-08-18T08:24:00Z</time>
      </trkpt>
      <trkpt lat="42.7090790" lon="-8.2706130">
        <ele>387.0</ele>
        <time>2019-08-18T08:24:01Z</time>
      </trkpt>
      <trkpt lat="42.7091140" lon="-8.2707170">
        <ele>386.8</ele>
        <time>2019-08-18T08:24:02Z</time>
      </trkpt>
      <trkpt lat="42.7091480" lon="-8.2708200">
        <ele>386.6</ele>
        <time>2019-08-18T08:24:03Z</time>
      </trkpt>
      <trkpt lat="42.7091810" lon="-8.2709230">
        <ele>386.4</ele>
        <time>2019-08-18T08:24:04Z</time>
      </trkpt>
      <trkpt lat="42.7092150" lon="-8.2710240">
        <ele>386.2</ele>
        <time>2019-08-18T08:24:05Z</time>
      </trkpt>
      <trkpt lat="42.7092480" lon="-8.2711250">
        <ele>385.9</ele>
        <time>2019-08-18T08:24:06Z</time>
      </trkpt>
      <trkpt lat="42.7092820" lon="-8.2712240">
        <ele>385.9</ele>
        <time>2019-08-18T08:24:07Z</time>
      </trkpt>
      <trkpt lat="42.7093170" lon="-8.2713230">
        <ele>385.8</ele>
        <time>2019-08-18T08:24:08Z</time>
      </trkpt>
      <trkpt lat="42.7093520" lon="-8.2714220">
        <ele>385.8</ele>
        <time>2019-08-18T08:24:09Z</time>
      </trkpt>
      <trkpt lat="42.7093870" lon="-8.2715200">
        <ele>385.7</ele>
        <time>2019-08-18T08:24:10Z</time>
      </trkpt>
      <trkpt lat="42.7094230" lon="-8.2716190">
        <ele>385.7</ele>
        <time>2019-08-18T08:24:11Z</time>
      </trkpt>
      <trkpt lat="42.7094590" lon="-8.2717170">
        <ele>385.3</ele>
        <time>2019-08-18T08:24:12Z</time>
      </trkpt>
      <trkpt lat="42.7094960" lon="-8.2718160">
        <ele>384.7</ele>
        <time>2019-08-18T08:24:13Z</time>
      </trkpt>
      <trkpt lat="42.7095330" lon="-8.2719150">
        <ele>384.2</ele>
        <time>2019-08-18T08:24:14Z</time>
      </trkpt>
      <trkpt lat="42.7095710" lon="-8.2720150">
        <ele>383.6</ele>
        <time>2019-08-18T08:24:15Z</time>
      </trkpt>
      <trkpt lat="42.7096090" lon="-8.2721150">
        <ele>383.1</ele>
        <time>2019-08-18T08:24:16Z</time>
      </trkpt>
      <trkpt lat="42.7096480" lon="-8.2722150">
        <ele>382.6</ele>
        <time>2019-08-18T08:24:17Z</time>
      </trkpt>
      <trkpt lat="42.7096870" lon="-8.2723160">
        <ele>382.0</ele>
        <time>2019-08-18T08:24:18Z</time>
      </trkpt>
      <trkpt lat="42.7097260" lon="-8.2724160">
        <ele>381.5</ele>
        <time>2019-08-18T08:24:19Z</time>
      </trkpt>
      <trkpt lat="42.7097660" lon="-8.2725170">
        <ele>381.0</ele>
        <time>2019-08-18T08:24:20Z</time>
      </trkpt>
      <trkpt lat="42.7098060" lon="-8.2726190">
        <ele>380.5</ele>
        <time>2019-08-18T08:24:21Z</time>
      </trkpt>
      <trkpt lat="42.7098460" lon="-8.2727200">
        <ele>380.0</ele>
        <time>2019-08-18T08:24:22Z</time>
      </trkpt>
      <trkpt lat="42.7098870" lon="-8.2728220">
        <ele>379.5</ele>
        <time>2019-08-18T08:24:23Z</time>
      </trkpt>
      <trkpt lat="42.7099280" lon="-8.2729240">
        <ele>379.0</ele>
        <time>2019-08-18T08:24:24Z</time>
      </trkpt>
      <trkpt lat="42.7099690" lon="-8.2730260">
        <ele>378.4</ele>
        <time>2019-08-18T08:24:25Z</time>
      </trkpt>
      <trkpt lat="42.7100100" lon="-8.2731290">
        <ele>377.8</ele>
        <time>2019-08-18T08:24:26Z</time>
      </trkpt>
      <trkpt lat="42.7100510" lon="-8.2732320">
        <ele>377.3</ele>
        <time>2019-08-18T08:24:27Z</time>
      </trkpt>
      <trkpt lat="42.7100930" lon="-8.2733350">
        <ele>376.9</ele>
        <time>2019-08-18T08:24:28Z</time>
      </trkpt>
      <trkpt lat="42.7101350" lon="-8.2734380">
        <ele>376.5</ele>
        <time>2019-08-18T08:24:29Z</time>
      </trkpt>
      <trkpt lat="42.7101770" lon="-8.2735420">
        <ele>375.9</ele>
        <time>2019-08-18T08:24:30Z</time>
      </trkpt>
      <trkpt lat="42.7102200" lon="-8.2736460">
        <ele>375.2</ele>
        <time>2019-08-18T08:24:31Z</time>
      </trkpt>
      <trkpt lat="42.7102630" lon="-8.2737490">
        <ele>374.5</ele>
        <time>2019-08-18T08:24:32Z</time>
      </trkpt>
      <trkpt lat="42.7103060" lon="-8.2738530">
        <ele>373.9</ele>
        <time>2019-08-18T08:24:33Z</time>
      </trkpt>
      <trkpt lat="42.7103500" lon="-8.2739570">
        <ele>373.3</ele>
        <time>2019-08-18T08:24:34Z</time>
      </trkpt>
      <trkpt lat="42.7103940" lon="-8.2740610">
        <ele>372.8</ele>
        <time>2019-08-18T08:24:35Z</time>
      </trkpt>
      <trkpt lat="42.7104390" lon="-8.2741650">
        <ele>372.2</ele>
        <time>2019-08-18T08:24:36Z</time>
      </trkpt>
      <trkpt lat="42.7104840" lon="-8.2742690">
        <ele>371.5</ele>
        <time>2019-08-18T08:24:37Z</time>
      </trkpt>
      <trkpt lat="42.7105290" lon="-8.2743730">
        <ele>370.8</ele>
        <time>2019-08-18T08:24:38Z</time>
      </trkpt>
      <trkpt lat="42.7105750" lon="-8.2744770">
        <ele>370.3</ele>
        <time>2019-08-18T08:24:39Z</time>
      </trkpt>
      <trkpt lat="42.7106220" lon="-8.2745810">
        <ele>369.8</ele>
        <time>2019-08-18T08:24:40Z</time>
      </trkpt>
      <trkpt lat="42.7106690" lon="-8.2746840">
        <ele>369.3</ele>
        <time>2019-08-18T08:24:41Z</time>
      </trkpt>
      <trkpt lat="42.7107170" lon="-8.2747880">
        <ele>368.8</ele>
        <time>2019-08-18T08:24:42Z</time>
      </trkpt>
      <trkpt lat="42.7107660" lon="-8.2748920">
        <ele>368.2</ele>
        <time>2019-08-18T08:24:43Z</time>
      </trkpt>
      <trkpt lat="42.7108140" lon="-8.2749970">
        <ele>367.5</ele>
        <time>2019-08-18T08:24:44Z</time>
      </trkpt>
      <trkpt lat="42.7108630" lon="-8.2751010">
        <ele>366.8</ele>
        <time>2019-08-18T08:24:45Z</time>
      </trkpt>
      <trkpt lat="42.7109120" lon="-8.2752070">
        <ele>366.2</ele>
        <time>2019-08-18T08:24:46Z</time>
      </trkpt>
      <trkpt lat="42.7109620" lon="-8.2753130">
        <ele>365.6</ele>
        <time>2019-08-18T08:24:47Z</time>
      </trkpt>
      <trkpt lat="42.7110110" lon="-8.2754200">
        <ele>365.1</ele>
        <time>2019-08-18T08:24:48Z</time>
      </trkpt>
      <trkpt lat="42.7110610" lon="-8.2755280">
        <ele>364.5</ele>
        <time>2019-08-18T08:24:49Z</time>
      </trkpt>
      <trkpt lat="42.7111110" lon="-8.2756360">
        <ele>364.0</ele>
        <time>2019-08-18T08:24:50Z</time>
      </trkpt>
      <trkpt lat="42.7111610" lon="-8.2757460">
        <ele>363.2</ele>
        <time>2019-08-18T08:24:51Z</time>
      </trkpt>
      <trkpt lat="42.7112110" lon="-8.2758560">
        <ele>362.4</ele>
        <time>2019-08-18T08:24:52Z</time>
      </trkpt>
      <trkpt lat="42.7112620" lon="-8.2759670">
        <ele>361.6</ele>
        <time>2019-08-18T08:24:53Z</time>
      </trkpt>
      <trkpt lat="42.7113130" lon="-8.2760800">
        <ele>360.8</ele>
        <time>2019-08-18T08:24:54Z</time>
      </trkpt>
      <trkpt lat="42.7113650" lon="-8.2761920">
        <ele>359.6</ele>
        <time>2019-08-18T08:24:55Z</time>
      </trkpt>
      <trkpt lat="42.7114180" lon="-8.2763060">
        <ele>358.4</ele>
        <time>2019-08-18T08:24:56Z</time>
      </trkpt>
      <trkpt lat="42.7114700" lon="-8.2764190">
        <ele>357.7</ele>
        <time>2019-08-18T08:24:57Z</time>
      </trkpt>
      <trkpt lat="42.7115230" lon="-8.2765330">
        <ele>357.1</ele>
        <time>2019-08-18T08:24:58Z</time>
      </trkpt>
      <trkpt lat="42.7115770" lon="-8.2766460">
        <ele>356.1</ele>
        <time>2019-08-18T08:24:59Z</time>
      </trkpt>
      <trkpt lat="42.7116300" lon="-8.2767590">
        <ele>355.0</ele>
        <time>2019-08-18T08:25:00Z</time>
      </trkpt>
      <trkpt lat="42.7116840" lon="-8.2768710">
        <ele>354.9</ele>
        <time>2019-08-18T08:25:01Z</time>
      </trkpt>
      <trkpt lat="42.7117380" lon="-8.2769820">
        <ele>354.7</ele>
        <time>2019-08-18T08:25:02Z</time>
      </trkpt>
      <trkpt lat="42.7117920" lon="-8.2770920">
        <ele>354.5</ele>
        <time>2019-08-18T08:25:03Z</time>
      </trkpt>
      <trkpt lat="42.7118460" lon="-8.2772000">
        <ele>354.3</ele>
        <time>2019-08-18T08:25:04Z</time>
      </trkpt>
      <trkpt lat="42.7119000" lon="-8.2773080">
        <ele>354.2</ele>
        <time>2019-08-18T08:25:05Z</time>
      </trkpt>
      <trkpt lat="42.7119540" lon="-8.2774140">
        <ele>354.0</ele>
        <time>2019-08-18T08:25:06Z</time>
      </trkpt>
      <trkpt lat="42.7120080" lon="-8.2775190">
        <ele>353.9</ele>
        <time>2019-08-18T08:25:07Z</time>
      </trkpt>
      <trkpt lat="42.7120610" lon="-8.2776240">
        <ele>353.7</ele>
        <time>2019-08-18T08:25:08Z</time>
      </trkpt>
      <trkpt lat="42.7121140" lon="-8.2777280">
        <ele>353.6</ele>
        <time>2019-08-18T08:25:09Z</time>
      </trkpt>
      <trkpt lat="42.7121660" lon="-8.2778320">
        <ele>353.4</ele>
        <time>2019-08-18T08:25:10Z</time>
      </trkpt>
      <trkpt lat="42.7122170" lon="-8.2779350">
        <ele>353.3</ele>
        <time>2019-08-18T08:25:11Z</time>
      </trkpt>
      <trkpt lat="42.7122680" lon="-8.2780380">
        <ele>353.2</ele>
        <time>2019-08-18T08:25:12Z</time>
      </trkpt>
      <trkpt lat="42.7123190" lon="-8.2781400">
        <ele>353.1</ele>
        <time>2019-08-18T08:25:13Z</time>
      </trkpt>
      <trkpt lat="42.7123690" lon="-8.2782420">
        <ele>353.0</ele>
        <time>2019-08-18T08:25:14Z</time>
      </trkpt>
      <trkpt lat="42.7124190" lon="-8.2783440">
        <ele>352.9</ele>
        <time>2019-08-18T08:25:15Z</time>
      </trkpt>
      <trkpt lat="42.7124680" lon="-8.2784460">
        <ele>352.7</ele>
        <time>2019-08-18T08:25:16Z</time>
      </trkpt>
      <trkpt lat="42.7125190" lon="-8.2785480">
        <ele>352.5</ele>
        <time>2019-08-18T08:25:17Z</time>
      </trkpt>
      <trkpt lat="42.7125690" lon="-8.2786520">
        <ele>352.1</ele>
        <time>2019-08-18T08:25:18Z</time>
      </trkpt>
      <trkpt lat="42.7126210" lon="-8.2787550">
        <ele>351.6</ele>
        <time>2019-08-18T08:25:19Z</time>
      </trkpt>
      <trkpt lat="42.7126740" lon="-8.2788580">
        <ele>351.2</ele>
        <time>2019-08-18T08:25:20Z</time>
      </trkpt>
      <trkpt lat="42.7127290" lon="-8.2789590">
        <ele>350.6</ele>
        <time>2019-08-18T08:25:21Z</time>
      </trkpt>
      <trkpt lat="42.7127870" lon="-8.2790590">
        <ele>350.1</ele>
        <time>2019-08-18T08:25:22Z</time>
      </trkpt>
      <trkpt lat="42.7128490" lon="-8.2791550">
        <ele>349.5</ele>
        <time>2019-08-18T08:25:23Z</time>
      </trkpt>
      <trkpt lat="42.7129150" lon="-8.2792480">
        <ele>348.9</ele>
        <time>2019-08-18T08:25:24Z</time>
      </trkpt>
      <trkpt lat="42.7129850" lon="-8.2793370">
        <ele>348.1</ele>
        <time>2019-08-18T08:25:25Z</time>
      </trkpt>
      <trkpt lat="42.7130590" lon="-8.2794210">
        <ele>347.1</ele>
        <time>2019-08-18T08:25:26Z</time>
      </trkpt>
      <trkpt lat="42.7131370" lon="-8.2795000">
        <ele>346.1</ele>
        <time>2019-08-18T08:25:27Z</time>
      </trkpt>
      <trkpt lat="42.7132190" lon="-8.2795730">
        <ele>345.5</ele>
        <time>2019-08-18T08:25:28Z</time>
      </trkpt>
      <trkpt lat="42.7133040" lon="-8.2796400">
        <ele>345.0</ele>
        <time>2019-08-18T08:25:29Z</time>
      </trkpt>
      <trkpt lat="42.7133920" lon="-8.2797000">
        <ele>344.5</ele>
        <time>2019-08-18T08:25:30Z</time>
      </trkpt>
      <trkpt lat="42.7134820" lon="-8.2797530">
        <ele>344.0</ele>
        <time>2019-08-18T08:25:31Z</time>
      </trkpt>
      <trkpt lat="42.7135750" lon="-8.2797990">
        <ele>343.3</ele>
        <time>2019-08-18T08:25:32Z</time>
      </trkpt>
      <trkpt lat="42.7136700" lon="-8.2798370">
        <ele>342.6</ele>
        <time>2019-08-18T08:25:33Z</time>
      </trkpt>
      <trkpt lat="42.7137670" lon="-8.2798680">
        <ele>341.8</ele>
        <time>2019-08-18T08:25:34Z</time>
      </trkpt>
      <trkpt lat="42.7138650" lon="-8.2798930">
        <ele>341.0</ele>
        <time>2019-08-18T08:25:35Z</time>
      </trkpt>
      <trkpt lat="42.7139650" lon="-8.2799120">
        <ele>340.2</ele>
        <time>2019-08-18T08:25:36Z</time>
      </trkpt>
      <trkpt lat="42.7140650" lon="-8.2799270">
        <ele>339.4</ele>
        <time>2019-08-18T08:25:37Z</time>
      </trkpt>
      <trkpt lat="42.7141660" lon="-8.2799380">
        <ele>338.5</ele>
        <time>2019-08-18T08:25:38Z</time>
      </trkpt>
      <trkpt lat="42.7142680" lon="-8.2799440">
        <ele>337.6</ele>
        <time>2019-08-18T08:25:39Z</time>
      </trkpt>
      <trkpt lat="42.7143700" lon="-8.2799510">
        <ele>336.8</ele>
        <time>2019-08-18T08:25:40Z</time>
      </trkpt>
      <trkpt lat="42.7144730" lon="-8.2799550">
        <ele>336.0</ele>
        <time>2019-08-18T08:25:41Z</time>
      </trkpt>
      <trkpt lat="42.7145740" lon="-8.2799610">
        <ele>335.3</ele>
        <time>2019-08-18T08:25:42Z</time>
      </trkpt>
      <trkpt lat="42.7146750" lon="-8.2799670">
        <ele>334.6</ele>
        <time>2019-08-18T08:25:43Z</time>
      </trkpt>
      <trkpt lat="42.7147750" lon="-8.2799770">
        <ele>334.1</ele>
        <time>2019-08-18T08:25:44Z</time>
      </trkpt>
      <trkpt lat="42.7148740" lon="-8.2799910">
        <ele>333.6</ele>
        <time>2019-08-18T08:25:45Z</time>
      </trkpt>
      <trkpt lat="42.7149700" lon="-8.2800110">
        <ele>333.2</ele>
        <time>2019-08-18T08:25:46Z</time>
      </trkpt>
      <trkpt lat="42.7150640" lon="-8.2800380">
        <ele>332.9</ele>
        <time>2019-08-18T08:25:47Z</time>
      </trkpt>
      <trkpt lat="42.7151560" lon="-8.2800710">
        <ele>332.7</ele>
        <time>2019-08-18T08:25:48Z</time>
      </trkpt>
      <trkpt lat="42.7152450" lon="-8.2801110">
        <ele>332.7</ele>
        <time>2019-08-18T08:25:49Z</time>
      </trkpt>
      <trkpt lat="42.7153310" lon="-8.2801570">
        <ele>332.6</ele>
        <time>2019-08-18T08:25:50Z</time>
      </trkpt>
      <trkpt lat="42.7154130" lon="-8.2802080">
        <ele>332.6</ele>
        <time>2019-08-18T08:25:51Z</time>
      </trkpt>
      <trkpt lat="42.7154920" lon="-8.2802640">
        <ele>332.4</ele>
        <time>2019-08-18T08:25:52Z</time>
      </trkpt>
      <trkpt lat="42.7155670" lon="-8.2803260">
        <ele>332.3</ele>
        <time>2019-08-18T08:25:53Z</time>
      </trkpt>
      <trkpt lat="42.7156820" lon="-8.2804390">
        <ele>332.4</ele>
        <time>2019-08-18T08:25:54Z</time>
      </trkpt>
      <trkpt lat="42.7157250" lon="-8.2804860">
        <ele>332.5</ele>
        <time>2019-08-18T08:25:55Z</time>
      </trkpt>
      <trkpt lat="42.7157690" lon="-8.2805340">
        <ele>332.6</ele>
        <time>2019-08-18T08:25:56Z</time>
      </trkpt>
      <trkpt lat="42.7158300" lon="-8.2806090">
        <ele>332.6</ele>
        <time>2019-08-18T08:25:57Z</time>
      </trkpt>
      <trkpt lat="42.7158890" lon="-8.2806860">
        <ele>332.7</ele>
        <time>2019-08-18T08:25:58Z</time>
      </trkpt>
      <trkpt lat="42.7159850" lon="-8.2808160">
        <ele>332.8</ele>
        <time>2019-08-18T08:25:59Z</time>
      </trkpt>
      <trkpt lat="42.7160220" lon="-8.2808680">
        <ele>332.9</ele>
        <time>2019-08-18T08:26:00Z</time>
      </trkpt>
      <trkpt lat="42.7160600" lon="-8.2809200">
        <ele>332.9</ele>
        <time>2019-08-18T08:26:01Z</time>
      </trkpt>
      <trkpt lat="42.7161170" lon="-8.2809980">
        <ele>333.0</ele>
        <time>2019-08-18T08:26:02Z</time>
      </trkpt>
      <trkpt lat="42.7161730" lon="-8.2810740">
        <ele>333.0</ele>
        <time>2019-08-18T08:26:03Z</time>
      </trkpt>
      <trkpt lat="42.7162280" lon="-8.2811490">
        <ele>333.0</ele>
        <time>2019-08-18T08:26:04Z</time>
      </trkpt>
      <trkpt lat="42.7162830" lon="-8.2812240">
        <ele>333.0</ele>
        <time>2019-08-18T08:26:05Z</time>
      </trkpt>
      <trkpt lat="42.7163380" lon="-8.2812970">
        <ele>333.1</ele>
        <time>2019-08-18T08:26:06Z</time>
      </trkpt>
      <trkpt lat="42.7163910" lon="-8.2813700">
        <ele>333.1</ele>
        <time>2019-08-18T08:26:07Z</time>
      </trkpt>
      <trkpt lat="42.7164430" lon="-8.2814420">
        <ele>333.1</ele>
        <time>2019-08-18T08:26:08Z</time>
      </trkpt>
      <trkpt lat="42.7164940" lon="-8.2815140">
        <ele>333.1</ele>
        <time>2019-08-18T08:26:09Z</time>
      </trkpt>
      <trkpt lat="42.7165430" lon="-8.2815850">
        <ele>333.1</ele>
        <time>2019-08-18T08:26:10Z</time>
      </trkpt>
      <trkpt lat="42.7165920" lon="-8.2816550">
        <ele>333.1</ele>
        <time>2019-08-18T08:26:11Z</time>
      </trkpt>
      <trkpt lat="42.7166400" lon="-8.2817240">
        <ele>333.2</ele>
        <time>2019-08-18T08:26:12Z</time>
      </trkpt>
      <trkpt lat="42.7166880" lon="-8.2817930">
        <ele>333.2</ele>
        <time>2019-08-18T08:26:13Z</time>
      </trkpt>
      <trkpt lat="42.7167360" lon="-8.2818610">
        <ele>333.2</ele>
        <time>2019-08-18T08:26:14Z</time>
      </trkpt>
      <trkpt lat="42.7167840" lon="-8.2819280">
        <ele>333.3</ele>
        <time>2019-08-18T08:26:15Z</time>
      </trkpt>
      <trkpt lat="42.7168330" lon="-8.2819940">
        <ele>333.3</ele>
        <time>2019-08-18T08:26:16Z</time>
      </trkpt>
      <trkpt lat="42.7168830" lon="-8.2820600">
        <ele>333.3</ele>
        <time>2019-08-18T08:26:17Z</time>
      </trkpt>
      <trkpt lat="42.7169340" lon="-8.2821250">
        <ele>333.4</ele>
        <time>2019-08-18T08:26:18Z</time>
      </trkpt>
      <trkpt lat="42.7169850" lon="-8.2821900">
        <ele>333.4</ele>
        <time>2019-08-18T08:26:19Z</time>
      </trkpt>
      <trkpt lat="42.7170370" lon="-8.2822540">
        <ele>333.3</ele>
        <time>2019-08-18T08:26:20Z</time>
      </trkpt>
      <trkpt lat="42.7170890" lon="-8.2823170">
        <ele>333.2</ele>
        <time>2019-08-18T08:26:21Z</time>
      </trkpt>
      <trkpt lat="42.7171420" lon="-8.2823800">
        <ele>333.2</ele>
        <time>2019-08-18T08:26:22Z</time>
      </trkpt>
      <trkpt lat="42.7171960" lon="-8.2824430">
        <ele>333.1</ele>
        <time>2019-08-18T08:26:23Z</time>
      </trkpt>
      <trkpt lat="42.7172500" lon="-8.2825040">
        <ele>333.0</ele>
        <time>2019-08-18T08:26:24Z</time>
      </trkpt>
      <trkpt lat="42.7173050" lon="-8.2825660">
        <ele>333.0</ele>
        <time>2019-08-18T08:26:25Z</time>
      </trkpt>
      <trkpt lat="42.7173600" lon="-8.2826260">
        <ele>333.0</ele>
        <time>2019-08-18T08:26:26Z</time>
      </trkpt>
      <trkpt lat="42.7174150" lon="-8.2826850">
        <ele>333.0</ele>
        <time>2019-08-18T08:26:27Z</time>
      </trkpt>
      <trkpt lat="42.7174710" lon="-8.2827440">
        <ele>333.0</ele>
        <time>2019-08-18T08:26:28Z</time>
      </trkpt>
      <trkpt lat="42.7175270" lon="-8.2828010">
        <ele>332.9</ele>
        <time>2019-08-18T08:26:29Z</time>
      </trkpt>
      <trkpt lat="42.7175830" lon="-8.2828570">
        <ele>332.8</ele>
        <time>2019-08-18T08:26:30Z</time>
      </trkpt>
      <trkpt lat="42.7176400" lon="-8.2829120">
        <ele>332.8</ele>
        <time>2019-08-18T08:26:31Z</time>
      </trkpt>
      <trkpt lat="42.7176970" lon="-8.2829650">
        <ele>332.6</ele>
        <time>2019-08-18T08:26:32Z</time>
      </trkpt>
      <trkpt lat="42.7177540" lon="-8.2830170">
        <ele>332.5</ele>
        <time>2019-08-18T08:26:33Z</time>
      </trkpt>
      <trkpt lat="42.7178110" lon="-8.2830670">
        <ele>332.3</ele>
        <time>2019-08-18T08:26:34Z</time>
      </trkpt>
      <trkpt lat="42.7178680" lon="-8.2831160">
        <ele>332.2</ele>
        <time>2019-08-18T08:26:35Z</time>
      </trkpt>
      <trkpt lat="42.7179250" lon="-8.2831630">
        <ele>332.0</ele>
        <time>2019-08-18T08:26:36Z</time>
      </trkpt>
      <trkpt lat="42.7179820" lon="-8.2832070">
        <ele>331.8</ele>
        <time>2019-08-18T08:26:37Z</time>
      </trkpt>
      <trkpt lat="42.7180390" lon="-8.2832500">
        <ele>331.6</ele>
        <time>2019-08-18T08:26:38Z</time>
      </trkpt>
      <trkpt lat="42.7180960" lon="-8.2832930">
        <ele>331.4</ele>
        <time>2019-08-18T08:26:39Z</time>
      </trkpt>
      <trkpt lat="42.7181530" lon="-8.2833360">
        <ele>331.2</ele>
        <time>2019-08-18T08:26:40Z</time>
      </trkpt>
      <trkpt lat="42.7182090" lon="-8.2833800">
        <ele>331.1</ele>
        <time>2019-08-18T08:26:41Z</time>
      </trkpt>
      <trkpt lat="42.7182660" lon="-8.2834280">
        <ele>331.0</ele>
        <time>2019-08-18T08:26:42Z</time>
      </trkpt>
      <trkpt lat="42.7183220" lon="-8.2834770">
        <ele>330.9</ele>
        <time>2019-08-18T08:26:43Z</time>
      </trkpt>
      <trkpt lat="42.7183790" lon="-8.2835250">
        <ele>330.9</ele>
        <time>2019-08-18T08:26:44Z</time>
      </trkpt>
      <trkpt lat="42.7184350" lon="-8.2835700">
        <ele>330.8</ele>
        <time>2019-08-18T08:26:45Z</time>
      </trkpt>
      <trkpt lat="42.7184920" lon="-8.2836140">
        <ele>330.8</ele>
        <time>2019-08-18T08:26:46Z</time>
      </trkpt>
      <trkpt lat="42.7185480" lon="-8.2836550">
        <ele>330.8</ele>
        <time>2019-08-18T08:26:47Z</time>
      </trkpt>
      <trkpt lat="42.7186040" lon="-8.2836950">
        <ele>330.8</ele>
        <time>2019-08-18T08:26:48Z</time>
      </trkpt>
      <trkpt lat="42.7186590" lon="-8.2837330">
        <ele>330.8</ele>
        <time>2019-08-18T08:26:49Z</time>
      </trkpt>
      <trkpt lat="42.7187140" lon="-8.2837710">
        <ele>330.8</ele>
        <time>2019-08-18T08:26:50Z</time>
      </trkpt>
      <trkpt lat="42.7187670" lon="-8.2838080">
        <ele>330.9</ele>
        <time>2019-08-18T08:26:51Z</time>
      </trkpt>
      <trkpt lat="42.7188200" lon="-8.2838450">
        <ele>331.0</ele>
        <time>2019-08-18T08:26:52Z</time>
      </trkpt>
      <trkpt lat="42.7188720" lon="-8.2838810">
        <ele>331.2</ele>
        <time>2019-08-18T08:26:53Z</time>
      </trkpt>
      <trkpt lat="42.7189230" lon="-8.2839180">
        <ele>331.3</ele>
        <time>2019-08-18T08:26:54Z</time>
      </trkpt>
      <trkpt lat="42.7189740" lon="-8.2839540">
        <ele>331.5</ele>
        <time>2019-08-18T08:26:55Z</time>
      </trkpt>
      <trkpt lat="42.7190230" lon="-8.2839890">
        <ele>331.7</ele>
        <time>2019-08-18T08:26:56Z</time>
      </trkpt>
      <trkpt lat="42.7190720" lon="-8.2840250">
        <ele>331.8</ele>
        <time>2019-08-18T08:26:57Z</time>
      </trkpt>
      <trkpt lat="42.7191200" lon="-8.2840590">
        <ele>332.0</ele>
        <time>2019-08-18T08:26:58Z</time>
      </trkpt>
      <trkpt lat="42.7191670" lon="-8.2840940">
        <ele>332.1</ele>
        <time>2019-08-18T08:26:59Z</time>
      </trkpt>
      <trkpt lat="42.7192140" lon="-8.2841270">
        <ele>332.3</ele>
        <time>2019-08-18T08:27:00Z</time>
      </trkpt>
      <trkpt lat="42.7192600" lon="-8.2841610">
        <ele>332.4</ele>
        <time>2019-08-18T08:27:01Z</time>
      </trkpt>
      <trkpt lat="42.7193060" lon="-8.2841930">
        <ele>332.6</ele>
        <time>2019-08-18T08:27:02Z</time>
      </trkpt>
      <trkpt lat="42.7193510" lon="-8.2842250">
        <ele>332.8</ele>
        <time>2019-08-18T08:27:03Z</time>
      </trkpt>
      <trkpt lat="42.7193960" lon="-8.2842560">
        <ele>333.0</ele>
        <time>2019-08-18T08:27:04Z</time>
      </trkpt>
      <trkpt lat="42.7194400" lon="-8.2842870">
        <ele>333.2</ele>
        <time>2019-08-18T08:27:05Z</time>
      </trkpt>
      <trkpt lat="42.7194840" lon="-8.2843160">
        <ele>333.4</ele>
        <time>2019-08-18T08:27:06Z</time>
      </trkpt>
      <trkpt lat="42.7195280" lon="-8.2843450">
        <ele>333.6</ele>
        <time>2019-08-18T08:27:07Z</time>
      </trkpt>
      <trkpt lat="42.7195720" lon="-8.2843740">
        <ele>333.7</ele>
        <time>2019-08-18T08:27:08Z</time>
      </trkpt>
      <trkpt lat="42.7196180" lon="-8.2844040">
        <ele>333.8</ele>
        <time>2019-08-18T08:27:09Z</time>
      </trkpt>
      <trkpt lat="42.7196660" lon="-8.2844350">
        <ele>333.9</ele>
        <time>2019-08-18T08:27:10Z</time>
      </trkpt>
      <trkpt lat="42.7197160" lon="-8.2844660">
        <ele>333.9</ele>
        <time>2019-08-18T08:27:11Z</time>
      </trkpt>
      <trkpt lat="42.7197660" lon="-8.2844990">
        <ele>334.0</ele>
        <time>2019-08-18T08:27:12Z</time>
      </trkpt>
      <trkpt lat="42.7198160" lon="-8.2845340">
        <ele>334.0</ele>
        <time>2019-08-18T08:27:13Z</time>
      </trkpt>
      <trkpt lat="42.7198660" lon="-8.2845700">
        <ele>334.1</ele>
        <time>2019-08-18T08:27:14Z</time>
      </trkpt>
      <trkpt lat="42.7199150" lon="-8.2846060">
        <ele>334.1</ele>
        <time>2019-08-18T08:27:15Z</time>
      </trkpt>
      <trkpt lat="42.7199650" lon="-8.2846420">
        <ele>334.1</ele>
        <time>2019-08-18T08:27:16Z</time>
      </trkpt>
      <trkpt lat="42.7200130" lon="-8.2846770">
        <ele>334.1</ele>
        <time>2019-08-18T08:27:17Z</time>
      </trkpt>
      <trkpt lat="42.7200620" lon="-8.2847120">
        <ele>334.1</ele>
        <time>2019-08-18T08:27:18Z</time>
      </trkpt>
      <trkpt lat="42.7201090" lon="-8.2847460">
        <ele>334.2</ele>
        <time>2019-08-18T08:27:19Z</time>
      </trkpt>
      <trkpt lat="42.7201560" lon="-8.2847790">
        <ele>334.2</ele>
        <time>2019-08-18T08:27:20Z</time>
      </trkpt>
      <trkpt lat="42.7202010" lon="-8.2848110">
        <ele>334.2</ele>
        <time>2019-08-18T08:27:21Z</time>
      </trkpt>
      <trkpt lat="42.7202450" lon="-8.2848420">
        <ele>334.2</ele>
        <time>2019-08-18T08:27:22Z</time>
      </trkpt>
      <trkpt lat="42.7202880" lon="-8.2848710">
        <ele>334.2</ele>
        <time>2019-08-18T08:27:23Z</time>
      </trkpt>
      <trkpt lat="42.7203310" lon="-8.2849010">
        <ele>334.2</ele>
        <time>2019-08-18T08:27:24Z</time>
      </trkpt>
      <trkpt lat="42.7203720" lon="-8.2849300">
        <ele>334.2</ele>
        <time>2019-08-18T08:27:25Z</time>
      </trkpt>
      <trkpt lat="42.7204130" lon="-8.2849600">
        <ele>334.2</ele>
        <time>2019-08-18T08:27:26Z</time>
      </trkpt>
      <trkpt lat="42.7204540" lon="-8.2849900">
        <ele>334.3</ele>
        <time>2019-08-18T08:27:27Z</time>
      </trkpt>
      <trkpt lat="42.7204950" lon="-8.2850220">
        <ele>334.4</ele>
        <time>2019-08-18T08:27:28Z</time>
      </trkpt>
      <trkpt lat="42.7205350" lon="-8.2850560">
        <ele>334.4</ele>
        <time>2019-08-18T08:27:29Z</time>
      </trkpt>
      <trkpt lat="42.7205760" lon="-8.2850910">
        <ele>334.5</ele>
        <time>2019-08-18T08:27:30Z</time>
      </trkpt>
      <trkpt lat="42.7206170" lon="-8.2851280">
        <ele>334.5</ele>
        <time>2019-08-18T08:27:31Z</time>
      </trkpt>
      <trkpt lat="42.7206580" lon="-8.2851670">
        <ele>334.6</ele>
        <time>2019-08-18T08:27:32Z</time>
      </trkpt>
      <trkpt lat="42.7206990" lon="-8.2852060">
        <ele>334.6</ele>
        <time>2019-08-18T08:27:33Z</time>
      </trkpt>
      <trkpt lat="42.7207400" lon="-8.2852470">
        <ele>334.7</ele>
        <time>2019-08-18T08:27:34Z</time>
      </trkpt>
      <trkpt lat="42.7207800" lon="-8.2852890">
        <ele>334.8</ele>
        <time>2019-08-18T08:27:35Z</time>
      </trkpt>
      <trkpt lat="42.7208190" lon="-8.2853320">
        <ele>334.8</ele>
        <time>2019-08-18T08:27:36Z</time>
      </trkpt>
      <trkpt lat="42.7208580" lon="-8.2853750">
        <ele>334.9</ele>
        <time>2019-08-18T08:27:37Z</time>
      </trkpt>
      <trkpt lat="42.7208950" lon="-8.2854180">
        <ele>335.0</ele>
        <time>2019-08-18T08:27:38Z</time>
      </trkpt>
      <trkpt lat="42.7209320" lon="-8.2854620">
        <ele>335.1</ele>
        <time>2019-08-18T08:27:39Z</time>
      </trkpt>
      <trkpt lat="42.7209690" lon="-8.2855080">
        <ele>335.2</ele>
        <time>2019-08-18T08:27:40Z</time>
      </trkpt>
      <trkpt lat="42.7210040" lon="-8.2855540">
        <ele>335.3</ele>
        <time>2019-08-18T08:27:41Z</time>
      </trkpt>
      <trkpt lat="42.7210400" lon="-8.2856030">
        <ele>335.5</ele>
        <time>2019-08-18T08:27:42Z</time>
      </trkpt>
      <trkpt lat="42.7210740" lon="-8.2856530">
        <ele>335.6</ele>
        <time>2019-08-18T08:27:43Z</time>
      </trkpt>
      <trkpt lat="42.7211080" lon="-8.2857050">
        <ele>335.8</ele>
        <time>2019-08-18T08:27:44Z</time>
      </trkpt>
      <trkpt lat="42.7211420" lon="-8.2857580">
        <ele>335.9</ele>
        <time>2019-08-18T08:27:45Z</time>
      </trkpt>
      <trkpt lat="42.7211740" lon="-8.2858130">
        <ele>336.1</ele>
        <time>2019-08-18T08:27:46Z</time>
      </trkpt>
      <trkpt lat="42.7212060" lon="-8.2858680">
        <ele>336.2</ele>
        <time>2019-08-18T08:27:47Z</time>
      </trkpt>
      <trkpt lat="42.7212370" lon="-8.2859240">
        <ele>336.3</ele>
        <time>2019-08-18T08:27:48Z</time>
      </trkpt>
      <trkpt lat="42.7212670" lon="-8.2859800">
        <ele>336.5</ele>
        <time>2019-08-18T08:27:49Z</time>
      </trkpt>
      <trkpt lat="42.7212950" lon="-8.2860350">
        <ele>336.6</ele>
        <time>2019-08-18T08:27:50Z</time>
      </trkpt>
      <trkpt lat="42.7213220" lon="-8.2860890">
        <ele>336.7</ele>
        <time>2019-08-18T08:27:51Z</time>
      </trkpt>
      <trkpt lat="42.7213480" lon="-8.2861420">
        <ele>336.9</ele>
        <time>2019-08-18T08:27:52Z</time>
      </trkpt>
      <trkpt lat="42.7213720" lon="-8.2861950">
        <ele>337.0</ele>
        <time>2019-08-18T08:27:53Z</time>
      </trkpt>
      <trkpt lat="42.7213960" lon="-8.2862490">
        <ele>337.1</ele>
        <time>2019-08-18T08:27:54Z</time>
      </trkpt>
      <trkpt lat="42.7214180" lon="-8.2863030">
        <ele>337.3</ele>
        <time>2019-08-18T08:27:55Z</time>
      </trkpt>
      <trkpt lat="42.7214390" lon="-8.2863570">
        <ele>337.4</ele>
        <time>2019-08-18T08:27:56Z</time>
      </trkpt>
      <trkpt lat="42.7214600" lon="-8.2864140">
        <ele>337.6</ele>
        <time>2019-08-18T08:27:57Z</time>
      </trkpt>
      <trkpt lat="42.7214800" lon="-8.2864710">
        <ele>337.7</ele>
        <time>2019-08-18T08:27:58Z</time>
      </trkpt>
      <trkpt lat="42.7215000" lon="-8.2865310">
        <ele>337.9</ele>
        <time>2019-08-18T08:27:59Z</time>
      </trkpt>
      <trkpt lat="42.7215190" lon="-8.2865930">
        <ele>338.1</ele>
        <time>2019-08-18T08:28:00Z</time>
      </trkpt>
      <trkpt lat="42.7215380" lon="-8.2866560">
        <ele>338.2</ele>
        <time>2019-08-18T08:28:01Z</time>
      </trkpt>
      <trkpt lat="42.7215560" lon="-8.2867190">
        <ele>338.4</ele>
        <time>2019-08-18T08:28:02Z</time>
      </trkpt>
      <trkpt lat="42.7215740" lon="-8.2867840">
        <ele>338.5</ele>
        <time>2019-08-18T08:28:03Z</time>
      </trkpt>
      <trkpt lat="42.7215930" lon="-8.2868480">
        <ele>338.6</ele>
        <time>2019-08-18T08:28:04Z</time>
      </trkpt>
      <trkpt lat="42.7216110" lon="-8.2869130">
        <ele>338.8</ele>
        <time>2019-08-18T08:28:05Z</time>
      </trkpt>
      <trkpt lat="42.7216300" lon="-8.2869760">
        <ele>338.9</ele>
        <time>2019-08-18T08:28:06Z</time>
      </trkpt>
      <trkpt lat="42.7216480" lon="-8.2870400">
        <ele>339.0</ele>
        <time>2019-08-18T08:28:07Z</time>
      </trkpt>
      <trkpt lat="42.7216660" lon="-8.2871030">
        <ele>339.1</ele>
        <time>2019-08-18T08:28:08Z</time>
      </trkpt>
      <trkpt lat="42.7216840" lon="-8.2871660">
        <ele>339.2</ele>
        <time>2019-08-18T08:28:09Z</time>
      </trkpt>
      <trkpt lat="42.7217020" lon="-8.2872290">
        <ele>339.3</ele>
        <time>2019-08-18T08:28:10Z</time>
      </trkpt>
      <trkpt lat="42.7217190" lon="-8.2872920">
        <ele>339.4</ele>
        <time>2019-08-18T08:28:11Z</time>
      </trkpt>
      <trkpt lat="42.7217360" lon="-8.2873550">
        <ele>339.5</ele>
        <time>2019-08-18T08:28:12Z</time>
      </trkpt>
      <trkpt lat="42.7217520" lon="-8.2874190">
        <ele>339.5</ele>
        <time>2019-08-18T08:28:13Z</time>
      </trkpt>
      <trkpt lat="42.7217670" lon="-8.2874830">
        <ele>339.6</ele>
        <time>2019-08-18T08:28:14Z</time>
      </trkpt>
      <trkpt lat="42.7217820" lon="-8.2875460">
        <ele>339.7</ele>
        <time>2019-08-18T08:28:15Z</time>
      </trkpt>
      <trkpt lat="42.7217970" lon="-8.2876090">
        <ele>339.8</ele>
        <time>2019-08-18T08:28:16Z</time>
      </trkpt>
      <trkpt lat="42.7218120" lon="-8.2876720">
        <ele>339.9</ele>
        <time>2019-08-18T08:28:17Z</time>
      </trkpt>
      <trkpt lat="42.7218260" lon="-8.2877330">
        <ele>340.0</ele>
        <time>2019-08-18T08:28:18Z</time>
      </trkpt>
      <trkpt lat="42.7218410" lon="-8.2877930">
        <ele>340.1</ele>
        <time>2019-08-18T08:28:19Z</time>
      </trkpt>
      <trkpt lat="42.7218560" lon="-8.2878510">
        <ele>340.2</ele>
        <time>2019-08-18T08:28:20Z</time>
      </trkpt>
      <trkpt lat="42.7218720" lon="-8.2879080">
        <ele>340.3</ele>
        <time>2019-08-18T08:28:21Z</time>
      </trkpt>
      <trkpt lat="42.7218880" lon="-8.2879650">
        <ele>340.5</ele>
        <time>2019-08-18T08:28:22Z</time>
      </trkpt>
      <trkpt lat="42.7219040" lon="-8.2880210">
        <ele>340.7</ele>
        <time>2019-08-18T08:28:23Z</time>
      </trkpt>
      <trkpt lat="42.7219200" lon="-8.2880760">
        <ele>340.8</ele>
        <time>2019-08-18T08:28:24Z</time>
      </trkpt>
      <trkpt lat="42.7219360" lon="-8.2881330">
        <ele>341.0</ele>
        <time>2019-08-18T08:28:25Z</time>
      </trkpt>
      <trkpt lat="42.7219520" lon="-8.2881890">
        <ele>341.1</ele>
        <time>2019-08-18T08:28:26Z</time>
      </trkpt>
      <trkpt lat="42.7219680" lon="-8.2882470">
        <ele>341.2</ele>
        <time>2019-08-18T08:28:27Z</time>
      </trkpt>
      <trkpt lat="42.7219830" lon="-8.2883070">
        <ele>341.2</ele>
        <time>2019-08-18T08:28:28Z</time>
      </trkpt>
      <trkpt lat="42.7219990" lon="-8.2883680">
        <ele>341.2</ele>
        <time>2019-08-18T08:28:29Z</time>
      </trkpt>
      <trkpt lat="42.7220140" lon="-8.2884300">
        <ele>341.2</ele>
        <time>2019-08-18T08:28:30Z</time>
      </trkpt>
      <trkpt lat="42.7220300" lon="-8.2884930">
        <ele>341.2</ele>
        <time>2019-08-18T08:28:31Z</time>
      </trkpt>
      <trkpt lat="42.7220460" lon="-8.2885570">
        <ele>341.1</ele>
        <time>2019-08-18T08:28:32Z</time>
      </trkpt>
      <trkpt lat="42.7220610" lon="-8.2886220">
        <ele>341.1</ele>
        <time>2019-08-18T08:28:33Z</time>
      </trkpt>
      <trkpt lat="42.7220770" lon="-8.2886880">
        <ele>341.0</ele>
        <time>2019-08-18T08:28:34Z</time>
      </trkpt>
      <trkpt lat="42.7220930" lon="-8.2887550">
        <ele>341.0</ele>
        <time>2019-08-18T08:28:35Z</time>
      </trkpt>
      <trkpt lat="42.7221090" lon="-8.2888220">
        <ele>340.9</ele>
        <time>2019-08-18T08:28:36Z</time>
      </trkpt>
      <trkpt lat="42.7221260" lon="-8.2888910">
        <ele>340.7</ele>
        <time>2019-08-18T08:28:37Z</time>
      </trkpt>
      <trkpt lat="42.7221420" lon="-8.2889600">
        <ele>340.6</ele>
        <time>2019-08-18T08:28:38Z</time>
      </trkpt>
      <trkpt lat="42.7221580" lon="-8.2890320">
        <ele>340.4</ele>
        <time>2019-08-18T08:28:39Z</time>
      </trkpt>
      <trkpt lat="42.7221740" lon="-8.2891050">
        <ele>340.3</ele>
        <time>2019-08-18T08:28:40Z</time>
      </trkpt>
      <trkpt lat="42.7221890" lon="-8.2891800">
        <ele>340.1</ele>
        <time>2019-08-18T08:28:41Z</time>
      </trkpt>
      <trkpt lat="42.7222040" lon="-8.2892570">
        <ele>339.8</ele>
        <time>2019-08-18T08:28:42Z</time>
      </trkpt>
      <trkpt lat="42.7222180" lon="-8.2893370">
        <ele>339.5</ele>
        <time>2019-08-18T08:28:43Z</time>
      </trkpt>
      <trkpt lat="42.7222310" lon="-8.2894200">
        <ele>339.2</ele>
        <time>2019-08-18T08:28:44Z</time>
      </trkpt>
      <trkpt lat="42.7222430" lon="-8.2895050">
        <ele>338.9</ele>
        <time>2019-08-18T08:28:45Z</time>
      </trkpt>
      <trkpt lat="42.7222550" lon="-8.2895930">
        <ele>338.5</ele>
        <time>2019-08-18T08:28:46Z</time>
      </trkpt>
      <trkpt lat="42.7222650" lon="-8.2896850">
        <ele>338.2</ele>
        <time>2019-08-18T08:28:47Z</time>
      </trkpt>
      <trkpt lat="42.7222750" lon="-8.2897800">
        <ele>337.9</ele>
        <time>2019-08-18T08:28:48Z</time>
      </trkpt>
      <trkpt lat="42.7222830" lon="-8.2898780">
        <ele>337.6</ele>
        <time>2019-08-18T08:28:49Z</time>
      </trkpt>
      <trkpt lat="42.7222900" lon="-8.2899800">
        <ele>337.3</ele>
        <time>2019-08-18T08:28:50Z</time>
      </trkpt>
      <trkpt lat="42.7222970" lon="-8.2900860">
        <ele>337.0</ele>
        <time>2019-08-18T08:28:51Z</time>
      </trkpt>
      <trkpt lat="42.7223030" lon="-8.2901940">
        <ele>336.7</ele>
        <time>2019-08-18T08:28:52Z</time>
      </trkpt>
      <trkpt lat="42.7223100" lon="-8.2903050">
        <ele>336.3</ele>
        <time>2019-08-18T08:28:53Z</time>
      </trkpt>
      <trkpt lat="42.7223180" lon="-8.2904180">
        <ele>336.0</ele>
        <time>2019-08-18T08:28:54Z</time>
      </trkpt>
      <trkpt lat="42.7223260" lon="-8.2905330">
        <ele>335.6</ele>
        <time>2019-08-18T08:28:55Z</time>
      </trkpt>
      <trkpt lat="42.7223360" lon="-8.2906500">
        <ele>335.2</ele>
        <time>2019-08-18T08:28:56Z</time>
      </trkpt>
      <trkpt lat="42.7223480" lon="-8.2907690">
        <ele>334.8</ele>
        <time>2019-08-18T08:28:57Z</time>
      </trkpt>
      <trkpt lat="42.7223630" lon="-8.2908880">
        <ele>334.4</ele>
        <time>2019-08-18T08:28:58Z</time>
      </trkpt>
      <trkpt lat="42.7223790" lon="-8.2910080">
        <ele>334.1</ele>
        <time>2019-08-18T08:28:59Z</time>
      </trkpt>
      <trkpt lat="42.7223990" lon="-8.2911270">
        <ele>333.7</ele>
        <time>2019-08-18T08:29:00Z</time>
      </trkpt>
      <trkpt lat="42.7224220" lon="-8.2912460">
        <ele>333.3</ele>
        <time>2019-08-18T08:29:01Z</time>
      </trkpt>
      <trkpt lat="42.7224480" lon="-8.2913630">
        <ele>332.9</ele>
        <time>2019-08-18T08:29:02Z</time>
      </trkpt>
      <trkpt lat="42.7224790" lon="-8.2914780">
        <ele>332.5</ele>
        <time>2019-08-18T08:29:03Z</time>
      </trkpt>
      <trkpt lat="42.7225130" lon="-8.2915910">
        <ele>332.0</ele>
        <time>2019-08-18T08:29:04Z</time>
      </trkpt>
      <trkpt lat="42.7225500" lon="-8.2917010">
        <ele>331.6</ele>
        <time>2019-08-18T08:29:05Z</time>
      </trkpt>
      <trkpt lat="42.7225900" lon="-8.2918090">
        <ele>331.2</ele>
        <time>2019-08-18T08:29:06Z</time>
      </trkpt>
      <trkpt lat="42.7226300" lon="-8.2919160">
        <ele>330.8</ele>
        <time>2019-08-18T08:29:07Z</time>
      </trkpt>
      <trkpt lat="42.7226710" lon="-8.2920210">
        <ele>330.4</ele>
        <time>2019-08-18T08:29:08Z</time>
      </trkpt>
      <trkpt lat="42.7227110" lon="-8.2921250">
        <ele>330.1</ele>
        <time>2019-08-18T08:29:09Z</time>
      </trkpt>
      <trkpt lat="42.7227480" lon="-8.2922290">
        <ele>329.7</ele>
        <time>2019-08-18T08:29:10Z</time>
      </trkpt>
      <trkpt lat="42.7227830" lon="-8.2923330">
        <ele>329.3</ele>
        <time>2019-08-18T08:29:11Z</time>
      </trkpt>
      <trkpt lat="42.7228140" lon="-8.2924370">
        <ele>329.0</ele>
        <time>2019-08-18T08:29:12Z</time>
      </trkpt>
      <trkpt lat="42.7228410" lon="-8.2925420">
        <ele>328.6</ele>
        <time>2019-08-18T08:29:13Z</time>
      </trkpt>
      <trkpt lat="42.7228650" lon="-8.2926470">
        <ele>328.3</ele>
        <time>2019-08-18T08:29:14Z</time>
      </trkpt>
      <trkpt lat="42.7228860" lon="-8.2927530">
        <ele>327.9</ele>
        <time>2019-08-18T08:29:15Z</time>
      </trkpt>
      <trkpt lat="42.7229040" lon="-8.2928600">
        <ele>327.6</ele>
        <time>2019-08-18T08:29:16Z</time>
      </trkpt>
      <trkpt lat="42.7229190" lon="-8.2929680">
        <ele>327.3</ele>
        <time>2019-08-18T08:29:17Z</time>
      </trkpt>
      <trkpt lat="42.7229320" lon="-8.2930770">
        <ele>327.1</ele>
        <time>2019-08-18T08:29:18Z</time>
      </trkpt>
      <trkpt lat="42.7229440" lon="-8.2931870">
        <ele>326.9</ele>
        <time>2019-08-18T08:29:19Z</time>
      </trkpt>
      <trkpt lat="42.7229540" lon="-8.2932990">
        <ele>326.5</ele>
        <time>2019-08-18T08:29:20Z</time>
      </trkpt>
      <trkpt lat="42.7229640" lon="-8.2934100">
        <ele>326.2</ele>
        <time>2019-08-18T08:29:21Z</time>
      </trkpt>
      <trkpt lat="42.7229750" lon="-8.2935210">
        <ele>325.9</ele>
        <time>2019-08-18T08:29:22Z</time>
      </trkpt>
      <trkpt lat="42.7229870" lon="-8.2936320">
        <ele>325.6</ele>
        <time>2019-08-18T08:29:23Z</time>
      </trkpt>
      <trkpt lat="42.7230010" lon="-8.2937400">
        <ele>325.3</ele>
        <time>2019-08-18T08:29:24Z</time>
      </trkpt>
      <trkpt lat="42.7230180" lon="-8.2938470">
        <ele>325.1</ele>
        <time>2019-08-18T08:29:25Z</time>
      </trkpt>
      <trkpt lat="42.7230390" lon="-8.2939500">
        <ele>324.9</ele>
        <time>2019-08-18T08:29:26Z</time>
      </trkpt>
      <trkpt lat="42.7230640" lon="-8.2940510">
        <ele>324.6</ele>
        <time>2019-08-18T08:29:27Z</time>
      </trkpt>
      <trkpt lat="42.7230930" lon="-8.2941480">
        <ele>324.4</ele>
        <time>2019-08-18T08:29:28Z</time>
      </trkpt>
      <trkpt lat="42.7231240" lon="-8.2942430">
        <ele>324.1</ele>
        <time>2019-08-18T08:29:29Z</time>
      </trkpt>
      <trkpt lat="42.7231580" lon="-8.2943350">
        <ele>323.9</ele>
        <time>2019-08-18T08:29:30Z</time>
      </trkpt>
      <trkpt lat="42.7231930" lon="-8.2944260">
        <ele>323.6</ele>
        <time>2019-08-18T08:29:31Z</time>
      </trkpt>
      <trkpt lat="42.7232290" lon="-8.2945150">
        <ele>323.3</ele>
        <time>2019-08-18T08:29:32Z</time>
      </trkpt>
      <trkpt lat="42.7232640" lon="-8.2946030">
        <ele>322.9</ele>
        <time>2019-08-18T08:29:33Z</time>
      </trkpt>
      <trkpt lat="42.7232990" lon="-8.2946910">
        <ele>322.7</ele>
        <time>2019-08-18T08:29:34Z</time>
      </trkpt>
      <trkpt lat="42.7233330" lon="-8.2947770">
        <ele>322.5</ele>
        <time>2019-08-18T08:29:35Z</time>
      </trkpt>
      <trkpt lat="42.7233660" lon="-8.2948630">
        <ele>322.2</ele>
        <time>2019-08-18T08:29:36Z</time>
      </trkpt>
      <trkpt lat="42.7233980" lon="-8.2949470">
        <ele>321.9</ele>
        <time>2019-08-18T08:29:37Z</time>
      </trkpt>
      <trkpt lat="42.7234290" lon="-8.2950300">
        <ele>321.5</ele>
        <time>2019-08-18T08:29:38Z</time>
      </trkpt>
      <trkpt lat="42.7234590" lon="-8.2951120">
        <ele>321.5</ele>
        <time>2019-08-18T08:29:39Z</time>
      </trkpt>
      <trkpt lat="42.7234890" lon="-8.2951910">
        <ele>321.4</ele>
        <time>2019-08-18T08:29:40Z</time>
      </trkpt>
      <trkpt lat="42.7235170" lon="-8.2952690">
        <ele>321.4</ele>
        <time>2019-08-18T08:29:41Z</time>
      </trkpt>
      <trkpt lat="42.7235440" lon="-8.2953450">
        <ele>321.5</ele>
        <time>2019-08-18T08:29:42Z</time>
      </trkpt>
      <trkpt lat="42.7235720" lon="-8.2954200">
        <ele>321.5</ele>
        <time>2019-08-18T08:29:43Z</time>
      </trkpt>
      <trkpt lat="42.7235990" lon="-8.2954920">
        <ele>321.5</ele>
        <time>2019-08-18T08:29:44Z</time>
      </trkpt>
      <trkpt lat="42.7236270" lon="-8.2955630">
        <ele>321.5</ele>
        <time>2019-08-18T08:29:45Z</time>
      </trkpt>
      <trkpt lat="42.7236560" lon="-8.2956330">
        <ele>321.6</ele>
        <time>2019-08-18T08:29:46Z</time>
      </trkpt>
      <trkpt lat="42.7236860" lon="-8.2957000">
        <ele>321.6</ele>
        <time>2019-08-18T08:29:47Z</time>
      </trkpt>
      <trkpt lat="42.7237180" lon="-8.2957660">
        <ele>321.7</ele>
        <time>2019-08-18T08:29:48Z</time>
      </trkpt>
      <trkpt lat="42.7237510" lon="-8.2958300">
        <ele>321.7</ele>
        <time>2019-08-18T08:29:49Z</time>
      </trkpt>
      <trkpt lat="42.7237850" lon="-8.2958930">
        <ele>321.8</ele>
        <time>2019-08-18T08:29:50Z</time>
      </trkpt>
      <trkpt lat="42.7238210" lon="-8.2959540">
        <ele>321.9</ele>
        <time>2019-08-18T08:29:51Z</time>
      </trkpt>
      <trkpt lat="42.7238570" lon="-8.2960130">
        <ele>322.0</ele>
        <time>2019-08-18T08:29:52Z</time>
      </trkpt>
      <trkpt lat="42.7238950" lon="-8.2960700">
        <ele>322.1</ele>
        <time>2019-08-18T08:29:53Z</time>
      </trkpt>
      <trkpt lat="42.7239330" lon="-8.2961250">
        <ele>322.2</ele>
        <time>2019-08-18T08:29:54Z</time>
      </trkpt>
      <trkpt lat="42.7239720" lon="-8.2961780">
        <ele>322.2</ele>
        <time>2019-08-18T08:29:55Z</time>
      </trkpt>
      <trkpt lat="42.7240110" lon="-8.2962290">
        <ele>322.3</ele>
        <time>2019-08-18T08:29:56Z</time>
      </trkpt>
      <trkpt lat="42.7240500" lon="-8.2962790">
        <ele>322.4</ele>
        <time>2019-08-18T08:29:57Z</time>
      </trkpt>
      <trkpt lat="42.7240900" lon="-8.2963270">
        <ele>322.4</ele>
        <time>2019-08-18T08:29:58Z</time>
      </trkpt>
      <trkpt lat="42.7241300" lon="-8.2963740">
        <ele>322.5</ele>
        <time>2019-08-18T08:29:59Z</time>
      </trkpt>
      <trkpt lat="42.7241690" lon="-8.2964200">
        <ele>322.5</ele>
        <time>2019-08-18T08:30:00Z</time>
      </trkpt>
      <trkpt lat="42.7242080" lon="-8.2964660">
        <ele>322.6</ele>
        <time>2019-08-18T08:30:01Z</time>
      </trkpt>
      <trkpt lat="42.7242470" lon="-8.2965120">
        <ele>322.6</ele>
        <time>2019-08-18T08:30:02Z</time>
      </trkpt>
      <trkpt lat="42.7242860" lon="-8.2965580">
        <ele>322.7</ele>
        <time>2019-08-18T08:30:03Z</time>
      </trkpt>
      <trkpt lat="42.7243240" lon="-8.2966050">
        <ele>322.8</ele>
        <time>2019-08-18T08:30:04Z</time>
      </trkpt>
      <trkpt lat="42.7243610" lon="-8.2966510">
        <ele>323.0</ele>
        <time>2019-08-18T08:30:05Z</time>
      </trkpt>
      <trkpt lat="42.7243980" lon="-8.2966970">
        <ele>323.2</ele>
        <time>2019-08-18T08:30:06Z</time>
      </trkpt>
      <trkpt lat="42.7244350" lon="-8.2967430">
        <ele>323.5</ele>
        <time>2019-08-18T08:30:07Z</time>
      </trkpt>
      <trkpt lat="42.7244710" lon="-8.2967880">
        <ele>323.7</ele>
        <time>2019-08-18T08:30:08Z</time>
      </trkpt>
      <trkpt lat="42.7245070" lon="-8.2968330">
        <ele>323.9</ele>
        <time>2019-08-18T08:30:09Z</time>
      </trkpt>
      <trkpt lat="42.7245430" lon="-8.2968760">
        <ele>324.1</ele>
        <time>2019-08-18T08:30:10Z</time>
      </trkpt>
      <trkpt lat="42.7245780" lon="-8.2969190">
        <ele>324.3</ele>
        <time>2019-08-18T08:30:11Z</time>
      </trkpt>
      <trkpt lat="42.7246120" lon="-8.2969610">
        <ele>324.5</ele>
        <time>2019-08-18T08:30:12Z</time>
      </trkpt>
      <trkpt lat="42.7246470" lon="-8.2970020">
        <ele>324.6</ele>
        <time>2019-08-18T08:30:13Z</time>
      </trkpt>
      <trkpt lat="42.7246800" lon="-8.2970430">
        <ele>324.8</ele>
        <time>2019-08-18T08:30:14Z</time>
      </trkpt>
      <trkpt lat="42.7247130" lon="-8.2970840">
        <ele>325.0</ele>
        <time>2019-08-18T08:30:15Z</time>
      </trkpt>
      <trkpt lat="42.7247460" lon="-8.2971230">
        <ele>325.1</ele>
        <time>2019-08-18T08:30:16Z</time>
      </trkpt>
      <trkpt lat="42.7247780" lon="-8.2971630">
        <ele>325.2</ele>
        <time>2019-08-18T08:30:17Z</time>
      </trkpt>
      <trkpt lat="42.7248100" lon="-8.2972020">
        <ele>325.3</ele>
        <time>2019-08-18T08:30:18Z</time>
      </trkpt>
      <trkpt lat="42.7248410" lon="-8.2972410">
        <ele>325.4</ele>
        <time>2019-08-18T08:30:19Z</time>
      </trkpt>
      <trkpt lat="42.7248710" lon="-8.2972790">
        <ele>325.5</ele>
        <time>2019-08-18T08:30:20Z</time>
      </trkpt>
      <trkpt lat="42.7249020" lon="-8.2973170">
        <ele>325.6</ele>
        <time>2019-08-18T08:30:21Z</time>
      </trkpt>
      <trkpt lat="42.7249320" lon="-8.2973550">
        <ele>325.7</ele>
        <time>2019-08-18T08:30:22Z</time>
      </trkpt>
      <trkpt lat="42.7249620" lon="-8.2973920">
        <ele>325.8</ele>
        <time>2019-08-18T08:30:23Z</time>
      </trkpt>
      <trkpt lat="42.7249920" lon="-8.2974290">
        <ele>325.9</ele>
        <time>2019-08-18T08:30:24Z</time>
      </trkpt>
      <trkpt lat="42.7250230" lon="-8.2974650">
        <ele>326.0</ele>
        <time>2019-08-18T08:30:25Z</time>
      </trkpt>
      <trkpt lat="42.7250530" lon="-8.2975020">
        <ele>326.1</ele>
        <time>2019-08-18T08:30:26Z</time>
      </trkpt>
      <trkpt lat="42.7250830" lon="-8.2975380">
        <ele>326.2</ele>
        <time>2019-08-18T08:30:27Z</time>
      </trkpt>
      <trkpt lat="42.7251130" lon="-8.2975730">
        <ele>326.3</ele>
        <time>2019-08-18T08:30:28Z</time>
      </trkpt>
      <trkpt lat="42.7251420" lon="-8.2976090">
        <ele>326.4</ele>
        <time>2019-08-18T08:30:29Z</time>
      </trkpt>
      <trkpt lat="42.7251720" lon="-8.2976440">
        <ele>326.6</ele>
        <time>2019-08-18T08:30:30Z</time>
      </trkpt>
      <trkpt lat="42.7252000" lon="-8.2976800">
        <ele>326.7</ele>
        <time>2019-08-18T08:30:31Z</time>
      </trkpt>
      <trkpt lat="42.7252290" lon="-8.2977150">
        <ele>326.8</ele>
        <time>2019-08-18T08:30:32Z</time>
      </trkpt>
      <trkpt lat="42.7252560" lon="-8.2977500">
        <ele>326.9</ele>
        <time>2019-08-18T08:30:33Z</time>
      </trkpt>
      <trkpt lat="42.7252810" lon="-8.2977820">
        <ele>327.0</ele>
        <time>2019-08-18T08:30:34Z</time>
      </trkpt>
      <trkpt lat="42.7253030" lon="-8.2978100">
        <ele>327.2</ele>
        <time>2019-08-18T08:30:35Z</time>
      </trkpt>
      <trkpt lat="42.7253230" lon="-8.2978350">
        <ele>327.3</ele>
        <time>2019-08-18T08:30:36Z</time>
      </trkpt>
      <trkpt lat="42.7253420" lon="-8.2978590">
        <ele>327.4</ele>
        <time>2019-08-18T08:30:37Z</time>
      </trkpt>
      <trkpt lat="42.7253600" lon="-8.2978830">
        <ele>327.5</ele>
        <time>2019-08-18T08:30:38Z</time>
      </trkpt>
      <trkpt lat="42.7253800" lon="-8.2979090">
        <ele>327.7</ele>
        <time>2019-08-18T08:30:39Z</time>
      </trkpt>
      <trkpt lat="42.7254020" lon="-8.2979380">
        <ele>327.8</ele>
        <time>2019-08-18T08:30:40Z</time>
      </trkpt>
      <trkpt lat="42.7254240" lon="-8.2979690">
        <ele>327.9</ele>
        <time>2019-08-18T08:30:41Z</time>
      </trkpt>
      <trkpt lat="42.7254480" lon="-8.2980000">
        <ele>328.1</ele>
        <time>2019-08-18T08:30:42Z</time>
      </trkpt>
      <trkpt lat="42.7254720" lon="-8.2980320">
        <ele>328.2</ele>
        <time>2019-08-18T08:30:43Z</time>
      </trkpt>
      <trkpt lat="42.7254960" lon="-8.2980640">
        <ele>328.3</ele>
        <time>2019-08-18T08:30:44Z</time>
      </trkpt>
      <trkpt lat="42.7255200" lon="-8.2980950">
        <ele>328.5</ele>
        <time>2019-08-18T08:30:45Z</time>
      </trkpt>
      <trkpt lat="42.7255440" lon="-8.2981260">
        <ele>328.6</ele>
        <time>2019-08-18T08:30:46Z</time>
      </trkpt>
      <trkpt lat="42.7255680" lon="-8.2981570">
        <ele>328.7</ele>
        <time>2019-08-18T08:30:47Z</time>
      </trkpt>
      <trkpt lat="42.7255920" lon="-8.2981870">
        <ele>328.9</ele>
        <time>2019-08-18T08:30:48Z</time>
      </trkpt>
      <trkpt lat="42.7256150" lon="-8.2982180">
        <ele>329.0</ele>
        <time>2019-08-18T08:30:49Z</time>
      </trkpt>
      <trkpt lat="42.7256390" lon="-8.2982480">
        <ele>329.2</ele>
        <time>2019-08-18T08:30:50Z</time>
      </trkpt>
      <trkpt lat="42.7256620" lon="-8.2982780">
        <ele>329.3</ele>
        <time>2019-08-18T08:30:51Z</time>
      </trkpt>
      <trkpt lat="42.7256850" lon="-8.2983080">
        <ele>329.5</ele>
        <time>2019-08-18T08:30:52Z</time>
      </trkpt>
      <trkpt lat="42.7257080" lon="-8.2983380">
        <ele>329.7</ele>
        <time>2019-08-18T08:30:53Z</time>
      </trkpt>
      <trkpt lat="42.7257310" lon="-8.2983690">
        <ele>329.9</ele>
        <time>2019-08-18T08:30:54Z</time>
      </trkpt>
      <trkpt lat="42.7257540" lon="-8.2983990">
        <ele>330.1</ele>
        <time>2019-08-18T08:30:55Z</time>
      </trkpt>
      <trkpt lat="42.7257760" lon="-8.2984290">
        <ele>330.3</ele>
        <time>2019-08-18T08:30:56Z</time>
      </trkpt>
      <trkpt lat="42.7257980" lon="-8.2984600">
        <ele>330.4</ele>
        <time>2019-08-18T08:30:57Z</time>
      </trkpt>
      <trkpt lat="42.7258210" lon="-8.2984910">
        <ele>330.6</ele>
        <time>2019-08-18T08:30:58Z</time>
      </trkpt>
      <trkpt lat="42.7258430" lon="-8.2985230">
        <ele>330.8</ele>
        <time>2019-08-18T08:30:59Z</time>
      </trkpt>
      <trkpt lat="42.7258650" lon="-8.2985550">
        <ele>331.0</ele>
        <time>2019-08-18T08:31:00Z</time>
      </trkpt>
      <trkpt lat="42.7258870" lon="-8.2985870">
        <ele>331.2</ele>
        <time>2019-08-18T08:31:01Z</time>
      </trkpt>
      <trkpt lat="42.7259080" lon="-8.2986200">
        <ele>331.4</ele>
        <time>2019-08-18T08:31:02Z</time>
      </trkpt>
      <trkpt lat="42.7259300" lon="-8.2986530">
        <ele>331.6</ele>
        <time>2019-08-18T08:31:03Z</time>
      </trkpt>
      <trkpt lat="42.7259510" lon="-8.2986870">
        <ele>331.8</ele>
        <time>2019-08-18T08:31:04Z</time>
      </trkpt>
      <trkpt lat="42.7259720" lon="-8.2987210">
        <ele>332.0</ele>
        <time>2019-08-18T08:31:05Z</time>
      </trkpt>
      <trkpt lat="42.7259920" lon="-8.2987560">
        <ele>332.2</ele>
        <time>2019-08-18T08:31:06Z</time>
      </trkpt>
      <trkpt lat="42.7260130" lon="-8.2987910">
        <ele>332.5</ele>
        <time>2019-08-18T08:31:07Z</time>
      </trkpt>
      <trkpt lat="42.7260330" lon="-8.2988260">
        <ele>332.8</ele>
        <time>2019-08-18T08:31:08Z</time>
      </trkpt>
      <trkpt lat="42.7260520" lon="-8.2988620">
        <ele>333.0</ele>
        <time>2019-08-18T08:31:09Z</time>
      </trkpt>
      <trkpt lat="42.7260720" lon="-8.2988990">
        <ele>333.2</ele>
        <time>2019-08-18T08:31:10Z</time>
      </trkpt>
      <trkpt lat="42.7260910" lon="-8.2989350">
        <ele>333.3</ele>
        <time>2019-08-18T08:31:11Z</time>
      </trkpt>
      <trkpt lat="42.7261090" lon="-8.2989730">
        <ele>333.5</ele>
        <time>2019-08-18T08:31:12Z</time>
      </trkpt>
      <trkpt lat="42.7261270" lon="-8.2990110">
        <ele>333.7</ele>
        <time>2019-08-18T08:31:13Z</time>
      </trkpt>
      <trkpt lat="42.7261440" lon="-8.2990490">
        <ele>333.9</ele>
        <time>2019-08-18T08:31:14Z</time>
      </trkpt>
      <trkpt lat="42.7261610" lon="-8.2990870">
        <ele>334.0</ele>
        <time>2019-08-18T08:31:15Z</time>
      </trkpt>
      <trkpt lat="42.7261770" lon="-8.2991260">
        <ele>334.2</ele>
        <time>2019-08-18T08:31:16Z</time>
      </trkpt>
      <trkpt lat="42.7261930" lon="-8.2991660">
        <ele>334.5</ele>
        <time>2019-08-18T08:31:17Z</time>
      </trkpt>
      <trkpt lat="42.7262090" lon="-8.2992060">
        <ele>334.7</ele>
        <time>2019-08-18T08:31:18Z</time>
      </trkpt>
      <trkpt lat="42.7262240" lon="-8.2992460">
        <ele>334.9</ele>
        <time>2019-08-18T08:31:19Z</time>
      </trkpt>
      <trkpt lat="42.7262380" lon="-8.2992860">
        <ele>335.1</ele>
        <time>2019-08-18T08:31:20Z</time>
      </trkpt>
      <trkpt lat="42.7262530" lon="-8.2993260">
        <ele>335.2</ele>
        <time>2019-08-18T08:31:21Z</time>
      </trkpt>
      <trkpt lat="42.7262670" lon="-8.2993660">
        <ele>335.4</ele>
        <time>2019-08-18T08:31:22Z</time>
      </trkpt>
      <trkpt lat="42.7262800" lon="-8.2994060">
        <ele>335.5</ele>
        <time>2019-08-18T08:31:23Z</time>
      </trkpt>
      <trkpt lat="42.7262940" lon="-8.2994460">
        <ele>335.7</ele>
        <time>2019-08-18T08:31:24Z</time>
      </trkpt>
      <trkpt lat="42.7263080" lon="-8.2994870">
        <ele>335.8</ele>
        <time>2019-08-18T08:31:25Z</time>
      </trkpt>
      <trkpt lat="42.7263210" lon="-8.2995270">
        <ele>336.0</ele>
        <time>2019-08-18T08:31:26Z</time>
      </trkpt>
      <trkpt lat="42.7263340" lon="-8.2995670">
        <ele>336.2</ele>
        <time>2019-08-18T08:31:27Z</time>
      </trkpt>
      <trkpt lat="42.7263470" lon="-8.2996080">
        <ele>336.4</ele>
        <time>2019-08-18T08:31:28Z</time>
      </trkpt>
      <trkpt lat="42.7263600" lon="-8.2996490">
        <ele>336.6</ele>
        <time>2019-08-18T08:31:29Z</time>
      </trkpt>
      <trkpt lat="42.7263730" lon="-8.2996910">
        <ele>336.7</ele>
        <time>2019-08-18T08:31:30Z</time>
      </trkpt>
      <trkpt lat="42.7263850" lon="-8.2997330">
        <ele>336.8</ele>
        <time>2019-08-18T08:31:31Z</time>
      </trkpt>
      <trkpt lat="42.7263980" lon="-8.2997760">
        <ele>337.0</ele>
        <time>2019-08-18T08:31:32Z</time>
      </trkpt>
      <trkpt lat="42.7264100" lon="-8.2998190">
        <ele>337.1</ele>
        <time>2019-08-18T08:31:33Z</time>
      </trkpt>
      <trkpt lat="42.7264230" lon="-8.2998630">
        <ele>337.2</ele>
        <time>2019-08-18T08:31:34Z</time>
      </trkpt>
      <trkpt lat="42.7264350" lon="-8.2999070">
        <ele>337.3</ele>
        <time>2019-08-18T08:31:35Z</time>
      </trkpt>
      <trkpt lat="42.7264480" lon="-8.2999520">
        <ele>337.5</ele>
        <time>2019-08-18T08:31:36Z</time>
      </trkpt>
      <trkpt lat="42.7264610" lon="-8.2999970">
        <ele>337.7</ele>
        <time>2019-08-18T08:31:37Z</time>
      </trkpt>
      <trkpt lat="42.7264750" lon="-8.3000430">
        <ele>337.9</ele>
        <time>2019-08-18T08:31:38Z</time>
      </trkpt>
      <trkpt lat="42.7264880" lon="-8.3000890">
        <ele>338.0</ele>
        <time>2019-08-18T08:31:39Z</time>
      </trkpt>
      <trkpt lat="42.7265020" lon="-8.3001350">
        <ele>338.2</ele>
        <time>2019-08-18T08:31:40Z</time>
      </trkpt>
      <trkpt lat="42.7265160" lon="-8.3001810">
        <ele>338.3</ele>
        <time>2019-08-18T08:31:41Z</time>
      </trkpt>
      <trkpt lat="42.7265300" lon="-8.3002270">
        <ele>338.5</ele>
        <time>2019-08-18T08:31:42Z</time>
      </trkpt>
      <trkpt lat="42.7265450" lon="-8.3002730">
        <ele>338.7</ele>
        <time>2019-08-18T08:31:43Z</time>
      </trkpt>
      <trkpt lat="42.7265590" lon="-8.3003190">
        <ele>338.9</ele>
        <time>2019-08-18T08:31:44Z</time>
      </trkpt>
      <trkpt lat="42.7265740" lon="-8.3003650">
        <ele>339.1</ele>
        <time>2019-08-18T08:31:45Z</time>
      </trkpt>
      <trkpt lat="42.7265890" lon="-8.3004100">
        <ele>339.4</ele>
        <time>2019-08-18T08:31:46Z</time>
      </trkpt>
      <trkpt lat="42.7266050" lon="-8.3004550">
        <ele>339.6</ele>
        <time>2019-08-18T08:31:47Z</time>
      </trkpt>
      <trkpt lat="42.7266210" lon="-8.3005000">
        <ele>339.8</ele>
        <time>2019-08-18T08:31:48Z</time>
      </trkpt>
      <trkpt lat="42.7266380" lon="-8.3005450">
        <ele>340.1</ele>
        <time>2019-08-18T08:31:49Z</time>
      </trkpt>
      <trkpt lat="42.7266550" lon="-8.3005900">
        <ele>340.3</ele>
        <time>2019-08-18T08:31:50Z</time>
      </trkpt>
      <trkpt lat="42.7266730" lon="-8.3006350">
        <ele>340.4</ele>
        <time>2019-08-18T08:31:51Z</time>
      </trkpt>
      <trkpt lat="42.7266920" lon="-8.3006790">
        <ele>340.8</ele>
        <time>2019-08-18T08:31:52Z</time>
      </trkpt>
      <trkpt lat="42.7267130" lon="-8.3007240">
        <ele>340.9</ele>
        <time>2019-08-18T08:31:53Z</time>
      </trkpt>
      <trkpt lat="42.7267340" lon="-8.3007690">
        <ele>341.1</ele>
        <time>2019-08-18T08:31:54Z</time>
      </trkpt>
      <trkpt lat="42.7267570" lon="-8.3008130">
        <ele>341.3</ele>
        <time>2019-08-18T08:31:55Z</time>
      </trkpt>
      <trkpt lat="42.7267810" lon="-8.3008580">
        <ele>341.5</ele>
        <time>2019-08-18T08:31:56Z</time>
      </trkpt>
      <trkpt lat="42.7268070" lon="-8.3009030">
        <ele>341.7</ele>
        <time>2019-08-18T08:31:57Z</time>
      </trkpt>
      <trkpt lat="42.7268340" lon="-8.3009490">
        <ele>341.9</ele>
        <time>2019-08-18T08:31:58Z</time>
      </trkpt>
      <trkpt lat="42.7268640" lon="-8.3009940">
        <ele>342.1</ele>
        <time>2019-08-18T08:31:59Z</time>
      </trkpt>
      <trkpt lat="42.7269120" lon="-8.3010630">
        <ele>342.4</ele>
        <time>2019-08-18T08:32:00Z</time>
      </trkpt>
      <trkpt lat="42.7269280" lon="-8.3010860">
        <ele>342.5</ele>
        <time>2019-08-18T08:32:01Z</time>
      </trkpt>
      <trkpt lat="42.7269620" lon="-8.3011310">
        <ele>342.8</ele>
        <time>2019-08-18T08:32:02Z</time>
      </trkpt>
      <trkpt lat="42.7269980" lon="-8.3011770">
        <ele>343.1</ele>
        <time>2019-08-18T08:32:03Z</time>
      </trkpt>
      <trkpt lat="42.7270350" lon="-8.3012210">
        <ele>343.4</ele>
        <time>2019-08-18T08:32:04Z</time>
      </trkpt>
      <trkpt lat="42.7270740" lon="-8.3012650">
        <ele>343.7</ele>
        <time>2019-08-18T08:32:05Z</time>
      </trkpt>
      <trkpt lat="42.7271130" lon="-8.3013080">
        <ele>344.0</ele>
        <time>2019-08-18T08:32:06Z</time>
      </trkpt>
      <trkpt lat="42.7271540" lon="-8.3013490">
        <ele>344.3</ele>
        <time>2019-08-18T08:32:07Z</time>
      </trkpt>
      <trkpt lat="42.7271950" lon="-8.3013890">
        <ele>344.7</ele>
        <time>2019-08-18T08:32:08Z</time>
      </trkpt>
      <trkpt lat="42.7272370" lon="-8.3014270">
        <ele>345.1</ele>
        <time>2019-08-18T08:32:09Z</time>
      </trkpt>
      <trkpt lat="42.7272800" lon="-8.3014640">
        <ele>345.4</ele>
        <time>2019-08-18T08:32:10Z</time>
      </trkpt>
      <trkpt lat="42.7273230" lon="-8.3014970">
        <ele>345.6</ele>
        <time>2019-08-18T08:32:11Z</time>
      </trkpt>
      <trkpt lat="42.7273670" lon="-8.3015290">
        <ele>345.9</ele>
        <time>2019-08-18T08:32:12Z</time>
      </trkpt>
      <trkpt lat="42.7274100" lon="-8.3015580">
        <ele>346.1</ele>
        <time>2019-08-18T08:32:13Z</time>
      </trkpt>
      <trkpt lat="42.7274540" lon="-8.3015840">
        <ele>346.3</ele>
        <time>2019-08-18T08:32:14Z</time>
      </trkpt>
      <trkpt lat="42.7274970" lon="-8.3016070">
        <ele>346.5</ele>
        <time>2019-08-18T08:32:15Z</time>
      </trkpt>
      <trkpt lat="42.7275410" lon="-8.3016280">
        <ele>346.8</ele>
        <time>2019-08-18T08:32:16Z</time>
      </trkpt>
      <trkpt lat="42.7275840" lon="-8.3016480">
        <ele>347.1</ele>
        <time>2019-08-18T08:32:17Z</time>
      </trkpt>
      <trkpt lat="42.7276260" lon="-8.3016660">
        <ele>347.3</ele>
        <time>2019-08-18T08:32:18Z</time>
      </trkpt>
      <trkpt lat="42.7276680" lon="-8.3016830">
        <ele>347.6</ele>
        <time>2019-08-18T08:32:19Z</time>
      </trkpt>
      <trkpt lat="42.7277090" lon="-8.3017000">
        <ele>347.8</ele>
        <time>2019-08-18T08:32:20Z</time>
      </trkpt>
      <trkpt lat="42.7277490" lon="-8.3017160">
        <ele>348.1</ele>
        <time>2019-08-18T08:32:21Z</time>
      </trkpt>
      <trkpt lat="42.7277880" lon="-8.3017320">
        <ele>348.3</ele>
        <time>2019-08-18T08:32:22Z</time>
      </trkpt>
      <trkpt lat="42.7278260" lon="-8.3017480">
        <ele>348.5</ele>
        <time>2019-08-18T08:32:23Z</time>
      </trkpt>
      <trkpt lat="42.7278640" lon="-8.3017640">
        <ele>348.7</ele>
        <time>2019-08-18T08:32:24Z</time>
      </trkpt>
      <trkpt lat="42.7279010" lon="-8.3017800">
        <ele>348.9</ele>
        <time>2019-08-18T08:32:25Z</time>
      </trkpt>
      <trkpt lat="42.7279370" lon="-8.3017960">
        <ele>349.2</ele>
        <time>2019-08-18T08:32:26Z</time>
      </trkpt>
      <trkpt lat="42.7279730" lon="-8.3018120">
        <ele>349.5</ele>
        <time>2019-08-18T08:32:27Z</time>
      </trkpt>
      <trkpt lat="42.7280080" lon="-8.3018270">
        <ele>349.7</ele>
        <time>2019-08-18T08:32:28Z</time>
      </trkpt>
      <trkpt lat="42.7280440" lon="-8.3018410">
        <ele>349.8</ele>
        <time>2019-08-18T08:32:29Z</time>
      </trkpt>
      <trkpt lat="42.7280790" lon="-8.3018560">
        <ele>349.8</ele>
        <time>2019-08-18T08:32:30Z</time>
      </trkpt>
      <trkpt lat="42.7281140" lon="-8.3018700">
        <ele>350.1</ele>
        <time>2019-08-18T08:32:31Z</time>
      </trkpt>
      <trkpt lat="42.7281490" lon="-8.3018840">
        <ele>350.2</ele>
        <time>2019-08-18T08:32:32Z</time>
      </trkpt>
      <trkpt lat="42.7281830" lon="-8.3018980">
        <ele>350.3</ele>
        <time>2019-08-18T08:32:33Z</time>
      </trkpt>
      <trkpt lat="42.7282170" lon="-8.3019120">
        <ele>350.4</ele>
        <time>2019-08-18T08:32:34Z</time>
      </trkpt>
      <trkpt lat="42.7282510" lon="-8.3019260">
        <ele>350.5</ele>
        <time>2019-08-18T08:32:35Z</time>
      </trkpt>
      <trkpt lat="42.7282850" lon="-8.3019410">
        <ele>350.6</ele>
        <time>2019-08-18T08:32:36Z</time>
      </trkpt>
      <trkpt lat="42.7283180" lon="-8.3019570">
        <ele>350.7</ele>
        <time>2019-08-18T08:32:37Z</time>
      </trkpt>
      <trkpt lat="42.7283510" lon="-8.3019740">
        <ele>350.8</ele>
        <time>2019-08-18T08:32:38Z</time>
      </trkpt>
      <trkpt lat="42.7283830" lon="-8.3019910">
        <ele>350.9</ele>
        <time>2019-08-18T08:32:39Z</time>
      </trkpt>
      <trkpt lat="42.7284140" lon="-8.3020100">
        <ele>351.0</ele>
        <time>2019-08-18T08:32:40Z</time>
      </trkpt>
      <trkpt lat="42.7284450" lon="-8.3020300">
        <ele>351.0</ele>
        <time>2019-08-18T08:32:41Z</time>
      </trkpt>
      <trkpt lat="42.7284750" lon="-8.3020520">
        <ele>351.1</ele>
        <time>2019-08-18T08:32:42Z</time>
      </trkpt>
      <trkpt lat="42.7285040" lon="-8.3020760">
        <ele>351.3</ele>
        <time>2019-08-18T08:32:43Z</time>
      </trkpt>
      <trkpt lat="42.7285330" lon="-8.3021010">
        <ele>351.5</ele>
        <time>2019-08-18T08:32:44Z</time>
      </trkpt>
      <trkpt lat="42.7285610" lon="-8.3021280">
        <ele>351.6</ele>
        <time>2019-08-18T08:32:45Z</time>
      </trkpt>
      <trkpt lat="42.7285880" lon="-8.3021560">
        <ele>351.8</ele>
        <time>2019-08-18T08:32:46Z</time>
      </trkpt>
      <trkpt lat="42.7286150" lon="-8.3021850">
        <ele>352.0</ele>
        <time>2019-08-18T08:32:47Z</time>
      </trkpt>
      <trkpt lat="42.7286420" lon="-8.3022150">
        <ele>352.1</ele>
        <time>2019-08-18T08:32:48Z</time>
      </trkpt>
      <trkpt lat="42.7286680" lon="-8.3022450">
        <ele>352.2</ele>
        <time>2019-08-18T08:32:49Z</time>
      </trkpt>
      <trkpt lat="42.7286950" lon="-8.3022760">
        <ele>352.2</ele>
        <time>2019-08-18T08:32:50Z</time>
      </trkpt>
      <trkpt lat="42.7287220" lon="-8.3023070">
        <ele>352.3</ele>
        <time>2019-08-18T08:32:51Z</time>
      </trkpt>
      <trkpt lat="42.7287480" lon="-8.3023390">
        <ele>352.3</ele>
        <time>2019-08-18T08:32:52Z</time>
      </trkpt>
      <trkpt lat="42.7287740" lon="-8.3023710">
        <ele>352.3</ele>
        <time>2019-08-18T08:32:53Z</time>
      </trkpt>
      <trkpt lat="42.7288000" lon="-8.3024030">
        <ele>352.3</ele>
        <time>2019-08-18T08:32:54Z</time>
      </trkpt>
      <trkpt lat="42.7288250" lon="-8.3024360">
        <ele>352.4</ele>
        <time>2019-08-18T08:32:55Z</time>
      </trkpt>
      <trkpt lat="42.7288490" lon="-8.3024690">
        <ele>352.4</ele>
        <time>2019-08-18T08:32:56Z</time>
      </trkpt>
      <trkpt lat="42.7288710" lon="-8.3025030">
        <ele>352.4</ele>
        <time>2019-08-18T08:32:57Z</time>
      </trkpt>
      <trkpt lat="42.7288940" lon="-8.3025390">
        <ele>352.4</ele>
        <time>2019-08-18T08:32:58Z</time>
      </trkpt>
      <trkpt lat="42.7289240" lon="-8.3025840">
        <ele>352.5</ele>
        <time>2019-08-18T08:32:59Z</time>
      </trkpt>
      <trkpt lat="42.7289390" lon="-8.3026000">
        <ele>352.5</ele>
        <time>2019-08-18T08:33:00Z</time>
      </trkpt>
      <trkpt lat="42.7290530" lon="-8.3027890">
        <ele>353.0</ele>
        <time>2019-08-18T08:33:01Z</time>
      </trkpt>
      <trkpt lat="42.7291590" lon="-8.3029620">
        <ele>353.5</ele>
        <time>2019-08-18T08:35:09Z</time>
      </trkpt>
      <trkpt lat="42.7292640" lon="-8.3031350">
        <ele>353.8</ele>
        <time>2019-08-18T08:35:10Z</time>
      </trkpt>
      <trkpt lat="42.7292870" lon="-8.3031790">
        <ele>353.8</ele>
        <time>2019-08-18T08:35:11Z</time>
      </trkpt>
      <trkpt lat="42.7293190" lon="-8.3032320">
        <ele>353.8</ele>
        <time>2019-08-18T08:35:12Z</time>
      </trkpt>
      <trkpt lat="42.7293490" lon="-8.3032770">
        <ele>353.8</ele>
        <time>2019-08-18T08:35:13Z</time>
      </trkpt>
      <trkpt lat="42.7293800" lon="-8.3033240">
        <ele>353.7</ele>
        <time>2019-08-18T08:35:14Z</time>
      </trkpt>
      <trkpt lat="42.7294120" lon="-8.3033730">
        <ele>353.7</ele>
        <time>2019-08-18T08:35:15Z</time>
      </trkpt>
      <trkpt lat="42.7294450" lon="-8.3034230">
        <ele>353.7</ele>
        <time>2019-08-18T08:35:16Z</time>
      </trkpt>
      <trkpt lat="42.7294800" lon="-8.3034730">
        <ele>353.6</ele>
        <time>2019-08-18T08:35:17Z</time>
      </trkpt>
      <trkpt lat="42.7295150" lon="-8.3035260">
        <ele>353.6</ele>
        <time>2019-08-18T08:35:18Z</time>
      </trkpt>
      <trkpt lat="42.7295750" lon="-8.3036160">
        <ele>353.5</ele>
        <time>2019-08-18T08:35:19Z</time>
      </trkpt>
      <trkpt lat="42.7296000" lon="-8.3036530">
        <ele>353.5</ele>
        <time>2019-08-18T08:35:20Z</time>
      </trkpt>
      <trkpt lat="42.7296240" lon="-8.3036900">
        <ele>353.5</ele>
        <time>2019-08-18T08:35:21Z</time>
      </trkpt>
      <trkpt lat="42.7296610" lon="-8.3037470">
        <ele>353.4</ele>
        <time>2019-08-18T08:35:22Z</time>
      </trkpt>
      <trkpt lat="42.7296990" lon="-8.3038050">
        <ele>353.3</ele>
        <time>2019-08-18T08:35:23Z</time>
      </trkpt>
      <trkpt lat="42.7297630" lon="-8.3039040">
        <ele>353.1</ele>
        <time>2019-08-18T08:35:24Z</time>
      </trkpt>
      <trkpt lat="42.7297900" lon="-8.3039450">
        <ele>353.0</ele>
        <time>2019-08-18T08:35:25Z</time>
      </trkpt>
      <trkpt lat="42.7298160" lon="-8.3039850">
        <ele>352.9</ele>
        <time>2019-08-18T08:35:26Z</time>
      </trkpt>
      <trkpt lat="42.7298560" lon="-8.3040460">
        <ele>352.6</ele>
        <time>2019-08-18T08:35:27Z</time>
      </trkpt>
      <trkpt lat="42.7298970" lon="-8.3041080">
        <ele>352.3</ele>
        <time>2019-08-18T08:35:28Z</time>
      </trkpt>
      <trkpt lat="42.7299660" lon="-8.3042110">
        <ele>351.9</ele>
        <time>2019-08-18T08:35:29Z</time>
      </trkpt>
      <trkpt lat="42.7299930" lon="-8.3042520">
        <ele>351.7</ele>
        <time>2019-08-18T08:35:30Z</time>
      </trkpt>
      <trkpt lat="42.7300210" lon="-8.3042930">
        <ele>351.6</ele>
        <time>2019-08-18T08:35:31Z</time>
      </trkpt>
      <trkpt lat="42.7300630" lon="-8.3043540">
        <ele>351.4</ele>
        <time>2019-08-18T08:35:32Z</time>
      </trkpt>
      <trkpt lat="42.7301040" lon="-8.3044140">
        <ele>351.2</ele>
        <time>2019-08-18T08:35:33Z</time>
      </trkpt>
      <trkpt lat="42.7301440" lon="-8.3044730">
        <ele>351.0</ele>
        <time>2019-08-18T08:35:34Z</time>
      </trkpt>
      <trkpt lat="42.7301840" lon="-8.3045300">
        <ele>350.8</ele>
        <time>2019-08-18T08:35:35Z</time>
      </trkpt>
      <trkpt lat="42.7302230" lon="-8.3045860">
        <ele>350.6</ele>
        <time>2019-08-18T08:35:36Z</time>
      </trkpt>
      <trkpt lat="42.7302620" lon="-8.3046430">
        <ele>350.4</ele>
        <time>2019-08-18T08:35:37Z</time>
      </trkpt>
      <trkpt lat="42.7303010" lon="-8.3046990">
        <ele>350.2</ele>
        <time>2019-08-18T08:35:38Z</time>
      </trkpt>
      <trkpt lat="42.7303390" lon="-8.3047570">
        <ele>350.0</ele>
        <time>2019-08-18T08:35:39Z</time>
      </trkpt>
      <trkpt lat="42.7303780" lon="-8.3048160">
        <ele>349.7</ele>
        <time>2019-08-18T08:35:40Z</time>
      </trkpt>
      <trkpt lat="42.7304180" lon="-8.3048770">
        <ele>349.3</ele>
        <time>2019-08-18T08:35:41Z</time>
      </trkpt>
      <trkpt lat="42.7304580" lon="-8.3049410">
        <ele>349.0</ele>
        <time>2019-08-18T08:35:42Z</time>
      </trkpt>
      <trkpt lat="42.7304990" lon="-8.3050060">
        <ele>348.8</ele>
        <time>2019-08-18T08:35:43Z</time>
      </trkpt>
      <trkpt lat="42.7305400" lon="-8.3050740">
        <ele>348.6</ele>
        <time>2019-08-18T08:35:44Z</time>
      </trkpt>
      <trkpt lat="42.7305820" lon="-8.3051430">
        <ele>348.3</ele>
        <time>2019-08-18T08:35:45Z</time>
      </trkpt>
      <trkpt lat="42.7306250" lon="-8.3052120">
        <ele>348.0</ele>
        <time>2019-08-18T08:35:46Z</time>
      </trkpt>
      <trkpt lat="42.7306680" lon="-8.3052810">
        <ele>347.7</ele>
        <time>2019-08-18T08:35:47Z</time>
      </trkpt>
      <trkpt lat="42.7307120" lon="-8.3053500">
        <ele>347.4</ele>
        <time>2019-08-18T08:35:48Z</time>
      </trkpt>
      <trkpt lat="42.7307570" lon="-8.3054180">
        <ele>347.1</ele>
        <time>2019-08-18T08:35:49Z</time>
      </trkpt>
      <trkpt lat="42.7308030" lon="-8.3054850">
        <ele>346.9</ele>
        <time>2019-08-18T08:35:50Z</time>
      </trkpt>
      <trkpt lat="42.7308490" lon="-8.3055520">
        <ele>346.6</ele>
        <time>2019-08-18T08:35:51Z</time>
      </trkpt>
      <trkpt lat="42.7308950" lon="-8.3056180">
        <ele>346.4</ele>
        <time>2019-08-18T08:35:52Z</time>
      </trkpt>
      <trkpt lat="42.7309410" lon="-8.3056850">
        <ele>346.1</ele>
        <time>2019-08-18T08:35:53Z</time>
      </trkpt>
      <trkpt lat="42.7309870" lon="-8.3057530">
        <ele>345.8</ele>
        <time>2019-08-18T08:35:54Z</time>
      </trkpt>
      <trkpt lat="42.7310330" lon="-8.3058220">
        <ele>345.4</ele>
        <time>2019-08-18T08:35:55Z</time>
      </trkpt>
      <trkpt lat="42.7310780" lon="-8.3058920">
        <ele>345.1</ele>
        <time>2019-08-18T08:35:56Z</time>
      </trkpt>
      <trkpt lat="42.7311230" lon="-8.3059640">
        <ele>344.9</ele>
        <time>2019-08-18T08:35:57Z</time>
      </trkpt>
      <trkpt lat="42.7311660" lon="-8.3060380">
        <ele>344.7</ele>
        <time>2019-08-18T08:35:58Z</time>
      </trkpt>
      <trkpt lat="42.7312080" lon="-8.3061140">
        <ele>344.5</ele>
        <time>2019-08-18T08:35:59Z</time>
      </trkpt>
      <trkpt lat="42.7312470" lon="-8.3061910">
        <ele>344.2</ele>
        <time>2019-08-18T08:36:00Z</time>
      </trkpt>
      <trkpt lat="42.7312840" lon="-8.3062720">
        <ele>344.0</ele>
        <time>2019-08-18T08:36:01Z</time>
      </trkpt>
      <trkpt lat="42.7313170" lon="-8.3063540">
        <ele>343.8</ele>
        <time>2019-08-18T08:36:02Z</time>
      </trkpt>
      <trkpt lat="42.7313470" lon="-8.3064390">
        <ele>343.5</ele>
        <time>2019-08-18T08:36:03Z</time>
      </trkpt>
      <trkpt lat="42.7313730" lon="-8.3065270">
        <ele>343.3</ele>
        <time>2019-08-18T08:36:04Z</time>
      </trkpt>
      <trkpt lat="42.7313960" lon="-8.3066160">
        <ele>343.1</ele>
        <time>2019-08-18T08:36:05Z</time>
      </trkpt>
      <trkpt lat="42.7314160" lon="-8.3067080">
        <ele>342.9</ele>
        <time>2019-08-18T08:36:06Z</time>
      </trkpt>
      <trkpt lat="42.7314330" lon="-8.3068020">
        <ele>342.7</ele>
        <time>2019-08-18T08:36:07Z</time>
      </trkpt>
      <trkpt lat="42.7314500" lon="-8.3068970">
        <ele>342.6</ele>
        <time>2019-08-18T08:36:08Z</time>
      </trkpt>
      <trkpt lat="42.7314660" lon="-8.3069940">
        <ele>342.5</ele>
        <time>2019-08-18T08:36:09Z</time>
      </trkpt>
      <trkpt lat="42.7314820" lon="-8.3070910">
        <ele>342.4</ele>
        <time>2019-08-18T08:36:10Z</time>
      </trkpt>
      <trkpt lat="42.7314980" lon="-8.3071890">
        <ele>342.3</ele>
        <time>2019-08-18T08:36:11Z</time>
      </trkpt>
      <trkpt lat="42.7315160" lon="-8.3072880">
        <ele>342.2</ele>
        <time>2019-08-18T08:36:12Z</time>
      </trkpt>
      <trkpt lat="42.7315330" lon="-8.3073880">
        <ele>342.1</ele>
        <time>2019-08-18T08:36:13Z</time>
      </trkpt>
      <trkpt lat="42.7315490" lon="-8.3074880">
        <ele>342.0</ele>
        <time>2019-08-18T08:36:14Z</time>
      </trkpt>
      <trkpt lat="42.7315640" lon="-8.3075890">
        <ele>341.9</ele>
        <time>2019-08-18T08:36:15Z</time>
      </trkpt>
      <trkpt lat="42.7315780" lon="-8.3076900">
        <ele>341.7</ele>
        <time>2019-08-18T08:36:16Z</time>
      </trkpt>
      <trkpt lat="42.7315900" lon="-8.3077920">
        <ele>341.4</ele>
        <time>2019-08-18T08:36:17Z</time>
      </trkpt>
      <trkpt lat="42.7316000" lon="-8.3078950">
        <ele>341.2</ele>
        <time>2019-08-18T08:36:18Z</time>
      </trkpt>
      <trkpt lat="42.7316070" lon="-8.3079990">
        <ele>341.0</ele>
        <time>2019-08-18T08:36:19Z</time>
      </trkpt>
      <trkpt lat="42.7316100" lon="-8.3081020">
        <ele>340.8</ele>
        <time>2019-08-18T08:36:20Z</time>
      </trkpt>
      <trkpt lat="42.7316110" lon="-8.3082060">
        <ele>340.6</ele>
        <time>2019-08-18T08:36:21Z</time>
      </trkpt>
      <trkpt lat="42.7316080" lon="-8.3083090">
        <ele>340.4</ele>
        <time>2019-08-18T08:36:22Z</time>
      </trkpt>
      <trkpt lat="42.7316010" lon="-8.3084130">
        <ele>340.2</ele>
        <time>2019-08-18T08:36:23Z</time>
      </trkpt>
      <trkpt lat="42.7315910" lon="-8.3085150">
        <ele>340.0</ele>
        <time>2019-08-18T08:36:24Z</time>
      </trkpt>
      <trkpt lat="42.7315760" lon="-8.3086170">
        <ele>339.8</ele>
        <time>2019-08-18T08:36:25Z</time>
      </trkpt>
      <trkpt lat="42.7315570" lon="-8.3087180">
        <ele>339.6</ele>
        <time>2019-08-18T08:36:26Z</time>
      </trkpt>
      <trkpt lat="42.7315330" lon="-8.3088180">
        <ele>339.3</ele>
        <time>2019-08-18T08:36:27Z</time>
      </trkpt>
      <trkpt lat="42.7315040" lon="-8.3089160">
        <ele>339.1</ele>
        <time>2019-08-18T08:36:28Z</time>
      </trkpt>
      <trkpt lat="42.7314690" lon="-8.3090130">
        <ele>338.9</ele>
        <time>2019-08-18T08:36:29Z</time>
      </trkpt>
      <trkpt lat="42.7314270" lon="-8.3091080">
        <ele>338.7</ele>
        <time>2019-08-18T08:36:30Z</time>
      </trkpt>
      <trkpt lat="42.7313840" lon="-8.3092020">
        <ele>338.4</ele>
        <time>2019-08-18T08:36:31Z</time>
      </trkpt>
      <trkpt lat="42.7313320" lon="-8.3092930">
        <ele>338.2</ele>
        <time>2019-08-18T08:36:32Z</time>
      </trkpt>
      <trkpt lat="42.7312740" lon="-8.3093810">
        <ele>338.0</ele>
        <time>2019-08-18T08:36:33Z</time>
      </trkpt>
      <trkpt lat="42.7312110" lon="-8.3094680">
        <ele>337.8</ele>
        <time>2019-08-18T08:36:34Z</time>
      </trkpt>
      <trkpt lat="42.7311430" lon="-8.3095530">
        <ele>337.5</ele>
        <time>2019-08-18T08:36:35Z</time>
      </trkpt>
      <trkpt lat="42.7310710" lon="-8.3096360">
        <ele>337.3</ele>
        <time>2019-08-18T08:36:36Z</time>
      </trkpt>
      <trkpt lat="42.7309960" lon="-8.3097180">
        <ele>337.0</ele>
        <time>2019-08-18T08:36:37Z</time>
      </trkpt>
      <trkpt lat="42.7309190" lon="-8.3097990">
        <ele>336.5</ele>
        <time>2019-08-18T08:36:38Z</time>
      </trkpt>
      <trkpt lat="42.7308400" lon="-8.3098790">
        <ele>335.7</ele>
        <time>2019-08-18T08:36:39Z</time>
      </trkpt>
      <trkpt lat="42.7307210" lon="-8.3100000">
        <ele>334.6</ele>
        <time>2019-08-18T08:36:40Z</time>
      </trkpt>
      <trkpt lat="42.7306810" lon="-8.3100400">
        <ele>334.2</ele>
        <time>2019-08-18T08:36:41Z</time>
      </trkpt>
      <trkpt lat="42.7306010" lon="-8.3101210">
        <ele>333.5</ele>
        <time>2019-08-18T08:36:42Z</time>
      </trkpt>
      <trkpt lat="42.7305220" lon="-8.3102050">
        <ele>332.5</ele>
        <time>2019-08-18T08:36:43Z</time>
      </trkpt>
      <trkpt lat="42.7304440" lon="-8.3102920">
        <ele>331.6</ele>
        <time>2019-08-18T08:36:44Z</time>
      </trkpt>
      <trkpt lat="42.7303680" lon="-8.3103840">
        <ele>331.1</ele>
        <time>2019-08-18T08:36:45Z</time>
      </trkpt>
      <trkpt lat="42.7302940" lon="-8.3104800">
        <ele>330.7</ele>
        <time>2019-08-18T08:36:46Z</time>
      </trkpt>
      <trkpt lat="42.7302240" lon="-8.3105830">
        <ele>330.1</ele>
        <time>2019-08-18T08:36:47Z</time>
      </trkpt>
      <trkpt lat="42.7301570" lon="-8.3106910">
        <ele>329.2</ele>
        <time>2019-08-18T08:36:48Z</time>
      </trkpt>
      <trkpt lat="42.7300940" lon="-8.3108050">
        <ele>328.1</ele>
        <time>2019-08-18T08:36:49Z</time>
      </trkpt>
      <trkpt lat="42.7300370" lon="-8.3109240">
        <ele>326.7</ele>
        <time>2019-08-18T08:36:50Z</time>
      </trkpt>
      <trkpt lat="42.7299870" lon="-8.3110490">
        <ele>325.5</ele>
        <time>2019-08-18T08:36:51Z</time>
      </trkpt>
      <trkpt lat="42.7299440" lon="-8.3111780">
        <ele>324.2</ele>
        <time>2019-08-18T08:36:52Z</time>
      </trkpt>
      <trkpt lat="42.7299090" lon="-8.3113110">
        <ele>323.2</ele>
        <time>2019-08-18T08:36:53Z</time>
      </trkpt>
      <trkpt lat="42.7298830" lon="-8.3114480">
        <ele>322.1</ele>
        <time>2019-08-18T08:36:54Z</time>
      </trkpt>
      <trkpt lat="42.7298640" lon="-8.3116860">
        <ele>320.0</ele>
        <time>2019-08-18T08:36:55Z</time>
      </trkpt>
      <trkpt lat="42.7298610" lon="-8.3117820">
        <ele>319.4</ele>
        <time>2019-08-18T08:36:56Z</time>
      </trkpt>
      <trkpt lat="42.7298590" lon="-8.3118790">
        <ele>318.7</ele>
        <time>2019-08-18T08:36:57Z</time>
      </trkpt>
      <trkpt lat="42.7298600" lon="-8.3120260">
        <ele>317.6</ele>
        <time>2019-08-18T08:36:58Z</time>
      </trkpt>
      <trkpt lat="42.7298660" lon="-8.3121730">
        <ele>316.5</ele>
        <time>2019-08-18T08:36:59Z</time>
      </trkpt>
      <trkpt lat="42.7298770" lon="-8.3124150">
        <ele>314.5</ele>
        <time>2019-08-18T08:37:00Z</time>
      </trkpt>
      <trkpt lat="42.7298800" lon="-8.3125110">
        <ele>313.7</ele>
        <time>2019-08-18T08:37:01Z</time>
      </trkpt>
      <trkpt lat="42.7298840" lon="-8.3126060">
        <ele>312.9</ele>
        <time>2019-08-18T08:37:02Z</time>
      </trkpt>
      <trkpt lat="42.7298870" lon="-8.3127480">
        <ele>312.0</ele>
        <time>2019-08-18T08:37:03Z</time>
      </trkpt>
      <trkpt lat="42.7298870" lon="-8.3128860">
        <ele>311.3</ele>
        <time>2019-08-18T08:37:04Z</time>
      </trkpt>
      <trkpt lat="42.7298850" lon="-8.3130220">
        <ele>310.8</ele>
        <time>2019-08-18T08:37:05Z</time>
      </trkpt>
      <trkpt lat="42.7298820" lon="-8.3131570">
        <ele>310.3</ele>
        <time>2019-08-18T08:37:06Z</time>
      </trkpt>
      <trkpt lat="42.7298770" lon="-8.3132900">
        <ele>309.5</ele>
        <time>2019-08-18T08:37:07Z</time>
      </trkpt>
      <trkpt lat="42.7298700" lon="-8.3134220">
        <ele>308.9</ele>
        <time>2019-08-18T08:37:08Z</time>
      </trkpt>
      <trkpt lat="42.7298610" lon="-8.3135530">
        <ele>308.5</ele>
        <time>2019-08-18T08:37:09Z</time>
      </trkpt>
      <trkpt lat="42.7298510" lon="-8.3136820">
        <ele>307.9</ele>
        <time>2019-08-18T08:37:10Z</time>
      </trkpt>
      <trkpt lat="42.7298410" lon="-8.3138110">
        <ele>307.1</ele>
        <time>2019-08-18T08:37:11Z</time>
      </trkpt>
      <trkpt lat="42.7298320" lon="-8.3139390">
        <ele>306.4</ele>
        <time>2019-08-18T08:37:12Z</time>
      </trkpt>
      <trkpt lat="42.7298260" lon="-8.3140660">
        <ele>305.4</ele>
        <time>2019-08-18T08:37:13Z</time>
      </trkpt>
      <trkpt lat="42.7298240" lon="-8.3141920">
        <ele>304.5</ele>
        <time>2019-08-18T08:37:14Z</time>
      </trkpt>
      <trkpt lat="42.7298230" lon="-8.3143200">
        <ele>303.8</ele>
        <time>2019-08-18T08:37:15Z</time>
      </trkpt>
      <trkpt lat="42.7298200" lon="-8.3144510">
        <ele>303.0</ele>
        <time>2019-08-18T08:37:16Z</time>
      </trkpt>
      <trkpt lat="42.7298120" lon="-8.3145880">
        <ele>302.2</ele>
        <time>2019-08-18T08:37:17Z</time>
      </trkpt>
      <trkpt lat="42.7297990" lon="-8.3147290">
        <ele>301.4</ele>
        <time>2019-08-18T08:37:18Z</time>
      </trkpt>
      <trkpt lat="42.7297820" lon="-8.3148720">
        <ele>300.6</ele>
        <time>2019-08-18T08:37:19Z</time>
      </trkpt>
      <trkpt lat="42.7297640" lon="-8.3150150">
        <ele>299.7</ele>
        <time>2019-08-18T08:37:20Z</time>
      </trkpt>
      <trkpt lat="42.7297300" lon="-8.3152480">
        <ele>298.0</ele>
        <time>2019-08-18T08:37:21Z</time>
      </trkpt>
      <trkpt lat="42.7297160" lon="-8.3153400">
        <ele>297.1</ele>
        <time>2019-08-18T08:37:22Z</time>
      </trkpt>
      <trkpt lat="42.7297020" lon="-8.3154330">
        <ele>296.3</ele>
        <time>2019-08-18T08:37:23Z</time>
      </trkpt>
      <trkpt lat="42.7296810" lon="-8.3155710">
        <ele>295.3</ele>
        <time>2019-08-18T08:37:24Z</time>
      </trkpt>
      <trkpt lat="42.7296610" lon="-8.3157130">
        <ele>294.7</ele>
        <time>2019-08-18T08:37:25Z</time>
      </trkpt>
      <trkpt lat="42.7296440" lon="-8.3158570">
        <ele>294.1</ele>
        <time>2019-08-18T08:37:26Z</time>
      </trkpt>
      <trkpt lat="42.7296280" lon="-8.3160020">
        <ele>293.5</ele>
        <time>2019-08-18T08:37:27Z</time>
      </trkpt>
      <trkpt lat="42.7296170" lon="-8.3161480">
        <ele>293.1</ele>
        <time>2019-08-18T08:37:28Z</time>
      </trkpt>
      <trkpt lat="42.7296090" lon="-8.3162950">
        <ele>292.5</ele>
        <time>2019-08-18T08:37:29Z</time>
      </trkpt>
      <trkpt lat="42.7296070" lon="-8.3164430">
        <ele>292.1</ele>
        <time>2019-08-18T08:37:30Z</time>
      </trkpt>
      <trkpt lat="42.7296220" lon="-8.3166890">
        <ele>291.4</ele>
        <time>2019-08-18T08:37:31Z</time>
      </trkpt>
      <trkpt lat="42.7296320" lon="-8.3167860">
        <ele>291.0</ele>
        <time>2019-08-18T08:37:32Z</time>
      </trkpt>
      <trkpt lat="42.7296430" lon="-8.3168840">
        <ele>290.6</ele>
        <time>2019-08-18T08:37:33Z</time>
      </trkpt>
      <trkpt lat="42.7296640" lon="-8.3170290">
        <ele>290.2</ele>
        <time>2019-08-18T08:37:34Z</time>
      </trkpt>
      <trkpt lat="42.7296950" lon="-8.3171710">
        <ele>289.8</ele>
        <time>2019-08-18T08:37:35Z</time>
      </trkpt>
      <trkpt lat="42.7297330" lon="-8.3173090">
        <ele>289.3</ele>
        <time>2019-08-18T08:37:36Z</time>
      </trkpt>
      <trkpt lat="42.7298140" lon="-8.3175240">
        <ele>288.6</ele>
        <time>2019-08-18T08:37:37Z</time>
      </trkpt>
      <trkpt lat="42.7298500" lon="-8.3176060">
        <ele>288.4</ele>
        <time>2019-08-18T08:37:38Z</time>
      </trkpt>
      <trkpt lat="42.7298870" lon="-8.3176880">
        <ele>288.1</ele>
        <time>2019-08-18T08:37:39Z</time>
      </trkpt>
      <trkpt lat="42.7299450" lon="-8.3178080">
        <ele>287.8</ele>
        <time>2019-08-18T08:37:40Z</time>
      </trkpt>
      <trkpt lat="42.7300100" lon="-8.3179190">
        <ele>287.4</ele>
        <time>2019-08-18T08:37:41Z</time>
      </trkpt>
      <trkpt lat="42.7300800" lon="-8.3180220">
        <ele>286.9</ele>
        <time>2019-08-18T08:37:42Z</time>
      </trkpt>
      <trkpt lat="42.7301500" lon="-8.3181260">
        <ele>286.5</ele>
        <time>2019-08-18T08:37:43Z</time>
      </trkpt>
      <trkpt lat="42.7302270" lon="-8.3182150">
        <ele>286.4</ele>
        <time>2019-08-18T08:37:44Z</time>
      </trkpt>
      <trkpt lat="42.7303040" lon="-8.3183050">
        <ele>286.2</ele>
        <time>2019-08-18T08:37:45Z</time>
      </trkpt>
      <trkpt lat="42.7303830" lon="-8.3183820">
        <ele>286.0</ele>
        <time>2019-08-18T08:37:46Z</time>
      </trkpt>
      <trkpt lat="42.7304640" lon="-8.3184510">
        <ele>285.8</ele>
        <time>2019-08-18T08:37:47Z</time>
      </trkpt>
      <trkpt lat="42.7305450" lon="-8.3185140">
        <ele>285.4</ele>
        <time>2019-08-18T08:37:48Z</time>
      </trkpt>
      <trkpt lat="42.7306270" lon="-8.3185710">
        <ele>285.1</ele>
        <time>2019-08-18T08:37:49Z</time>
      </trkpt>
      <trkpt lat="42.7307100" lon="-8.3186230">
        <ele>285.0</ele>
        <time>2019-08-18T08:37:50Z</time>
      </trkpt>
      <trkpt lat="42.7307930" lon="-8.3186720">
        <ele>284.8</ele>
        <time>2019-08-18T08:37:51Z</time>
      </trkpt>
      <trkpt lat="42.7308770" lon="-8.3187190">
        <ele>284.8</ele>
        <time>2019-08-18T08:37:52Z</time>
      </trkpt>
      <trkpt lat="42.7309600" lon="-8.3187640">
        <ele>284.7</ele>
        <time>2019-08-18T08:37:53Z</time>
      </trkpt>
      <trkpt lat="42.7310430" lon="-8.3188090">
        <ele>284.2</ele>
        <time>2019-08-18T08:37:54Z</time>
      </trkpt>
      <trkpt lat="42.7311260" lon="-8.3188530">
        <ele>283.9</ele>
        <time>2019-08-18T08:37:55Z</time>
      </trkpt>
      <trkpt lat="42.7312080" lon="-8.3188970">
        <ele>283.5</ele>
        <time>2019-08-18T08:37:56Z</time>
      </trkpt>
      <trkpt lat="42.7312890" lon="-8.3189410">
        <ele>283.1</ele>
        <time>2019-08-18T08:37:57Z</time>
      </trkpt>
      <trkpt lat="42.7313700" lon="-8.3189850">
        <ele>282.7</ele>
        <time>2019-08-18T08:37:58Z</time>
      </trkpt>
      <trkpt lat="42.7314490" lon="-8.3190280">
        <ele>282.3</ele>
        <time>2019-08-18T08:37:59Z</time>
      </trkpt>
      <trkpt lat="42.7315270" lon="-8.3190710">
        <ele>281.9</ele>
        <time>2019-08-18T08:38:00Z</time>
      </trkpt>
      <trkpt lat="42.7316040" lon="-8.3191130">
        <ele>281.6</ele>
        <time>2019-08-18T08:38:01Z</time>
      </trkpt>
      <trkpt lat="42.7316790" lon="-8.3191550">
        <ele>281.2</ele>
        <time>2019-08-18T08:38:02Z</time>
      </trkpt>
      <trkpt lat="42.7317540" lon="-8.3191970">
        <ele>281.0</ele>
        <time>2019-08-18T08:38:03Z</time>
      </trkpt>
      <trkpt lat="42.7318270" lon="-8.3192390">
        <ele>280.7</ele>
        <time>2019-08-18T08:38:04Z</time>
      </trkpt>
      <trkpt lat="42.7319010" lon="-8.3192790">
        <ele>280.5</ele>
        <time>2019-08-18T08:38:05Z</time>
      </trkpt>
      <trkpt lat="42.7319740" lon="-8.3193190">
        <ele>280.3</ele>
        <time>2019-08-18T08:38:06Z</time>
      </trkpt>
      <trkpt lat="42.7320480" lon="-8.3193590">
        <ele>280.1</ele>
        <time>2019-08-18T08:38:07Z</time>
      </trkpt>
      <trkpt lat="42.7321220" lon="-8.3193980">
        <ele>279.9</ele>
        <time>2019-08-18T08:38:08Z</time>
      </trkpt>
      <trkpt lat="42.7321970" lon="-8.3194360">
        <ele>279.8</ele>
        <time>2019-08-18T08:38:09Z</time>
      </trkpt>
      <trkpt lat="42.7322710" lon="-8.3194730">
        <ele>279.8</ele>
        <time>2019-08-18T08:38:10Z</time>
      </trkpt>
      <trkpt lat="42.7323900" lon="-8.3195340">
        <ele>279.7</ele>
        <time>2019-08-18T08:38:11Z</time>
      </trkpt>
      <trkpt lat="42.7324370" lon="-8.3195570">
        <ele>279.6</ele>
        <time>2019-08-18T08:38:12Z</time>
      </trkpt>
      <trkpt lat="42.7324840" lon="-8.3195810">
        <ele>279.6</ele>
        <time>2019-08-18T08:38:13Z</time>
      </trkpt>
      <trkpt lat="42.7325500" lon="-8.3196160">
        <ele>279.6</ele>
        <time>2019-08-18T08:38:14Z</time>
      </trkpt>
      <trkpt lat="42.7326130" lon="-8.3196500">
        <ele>279.5</ele>
        <time>2019-08-18T08:38:15Z</time>
      </trkpt>
      <trkpt lat="42.7327100" lon="-8.3197050">
        <ele>279.5</ele>
        <time>2019-08-18T08:38:16Z</time>
      </trkpt>
      <trkpt lat="42.7327480" lon="-8.3197250">
        <ele>279.5</ele>
        <time>2019-08-18T08:38:17Z</time>
      </trkpt>
      <trkpt lat="42.7327850" lon="-8.3197460">
        <ele>279.5</ele>
        <time>2019-08-18T08:38:18Z</time>
      </trkpt>
      <trkpt lat="42.7328370" lon="-8.3197750">
        <ele>279.5</ele>
        <time>2019-08-18T08:38:19Z</time>
      </trkpt>
      <trkpt lat="42.7328880" lon="-8.3198020">
        <ele>279.4</ele>
        <time>2019-08-18T08:38:20Z</time>
      </trkpt>
      <trkpt lat="42.7329360" lon="-8.3198260">
        <ele>279.4</ele>
        <time>2019-08-18T08:38:21Z</time>
      </trkpt>
      <trkpt lat="42.7329830" lon="-8.3198470">
        <ele>279.4</ele>
        <time>2019-08-18T08:38:22Z</time>
      </trkpt>
      <trkpt lat="42.7330290" lon="-8.3198660">
        <ele>279.4</ele>
        <time>2019-08-18T08:38:23Z</time>
      </trkpt>
      <trkpt lat="42.7330740" lon="-8.3198830">
        <ele>279.4</ele>
        <time>2019-08-18T08:38:24Z</time>
      </trkpt>
      <trkpt lat="42.7331160" lon="-8.3199000">
        <ele>279.4</ele>
        <time>2019-08-18T08:38:25Z</time>
      </trkpt>
      <trkpt lat="42.7331570" lon="-8.3199190">
        <ele>279.4</ele>
        <time>2019-08-18T08:38:26Z</time>
      </trkpt>
      <trkpt lat="42.7331960" lon="-8.3199410">
        <ele>280.1</ele>
        <time>2019-08-18T08:38:27Z</time>
      </trkpt>
      <trkpt lat="42.7332330" lon="-8.3199650">
        <ele>280.5</ele>
        <time>2019-08-18T08:38:28Z</time>
      </trkpt>
      <trkpt lat="42.7332680" lon="-8.3199900">
        <ele>281.0</ele>
        <time>2019-08-18T08:38:29Z</time>
      </trkpt>
      <trkpt lat="42.7333030" lon="-8.3200150">
        <ele>281.4</ele>
        <time>2019-08-18T08:38:30Z</time>
      </trkpt>
      <trkpt lat="42.7333370" lon="-8.3200380">
        <ele>281.8</ele>
        <time>2019-08-18T08:38:31Z</time>
      </trkpt>
      <trkpt lat="42.7333700" lon="-8.3200610">
        <ele>282.3</ele>
        <time>2019-08-18T08:38:32Z</time>
      </trkpt>
      <trkpt lat="42.7334020" lon="-8.3200840">
        <ele>282.8</ele>
        <time>2019-08-18T08:38:33Z</time>
      </trkpt>
      <trkpt lat="42.7334340" lon="-8.3201060">
        <ele>283.2</ele>
        <time>2019-08-18T08:38:34Z</time>
      </trkpt>
      <trkpt lat="42.7334650" lon="-8.3201280">
        <ele>283.7</ele>
        <time>2019-08-18T08:38:35Z</time>
      </trkpt>
      <trkpt lat="42.7334960" lon="-8.3201490">
        <ele>284.1</ele>
        <time>2019-08-18T08:38:36Z</time>
      </trkpt>
      <trkpt lat="42.7335260" lon="-8.3201710">
        <ele>284.6</ele>
        <time>2019-08-18T08:38:37Z</time>
      </trkpt>
      <trkpt lat="42.7335550" lon="-8.3201920">
        <ele>285.0</ele>
        <time>2019-08-18T08:38:38Z</time>
      </trkpt>
      <trkpt lat="42.7335850" lon="-8.3202130">
        <ele>285.4</ele>
        <time>2019-08-18T08:38:39Z</time>
      </trkpt>
      <trkpt lat="42.7336140" lon="-8.3202330">
        <ele>285.8</ele>
        <time>2019-08-18T08:38:40Z</time>
      </trkpt>
      <trkpt lat="42.7336430" lon="-8.3202540">
        <ele>286.2</ele>
        <time>2019-08-18T08:38:41Z</time>
      </trkpt>
      <trkpt lat="42.7336730" lon="-8.3202750">
        <ele>286.6</ele>
        <time>2019-08-18T08:38:42Z</time>
      </trkpt>
      <trkpt lat="42.7337020" lon="-8.3202960">
        <ele>286.9</ele>
        <time>2019-08-18T08:38:43Z</time>
      </trkpt>
      <trkpt lat="42.7337310" lon="-8.3203170">
        <ele>287.2</ele>
        <time>2019-08-18T08:38:44Z</time>
      </trkpt>
      <trkpt lat="42.7337600" lon="-8.3203390">
        <ele>287.5</ele>
        <time>2019-08-18T08:38:45Z</time>
      </trkpt>
      <trkpt lat="42.7337890" lon="-8.3203600">
        <ele>287.8</ele>
        <time>2019-08-18T08:38:46Z</time>
      </trkpt>
      <trkpt lat="42.7338190" lon="-8.3203820">
        <ele>288.1</ele>
        <time>2019-08-18T08:38:47Z</time>
      </trkpt>
      <trkpt lat="42.7338480" lon="-8.3204040">
        <ele>288.4</ele>
        <time>2019-08-18T08:38:48Z</time>
      </trkpt>
      <trkpt lat="42.7338780" lon="-8.3204270">
        <ele>288.7</ele>
        <time>2019-08-18T08:38:49Z</time>
      </trkpt>
      <trkpt lat="42.7339070" lon="-8.3204500">
        <ele>289.0</ele>
        <time>2019-08-18T08:38:50Z</time>
      </trkpt>
      <trkpt lat="42.7339370" lon="-8.3204730">
        <ele>289.3</ele>
        <time>2019-08-18T08:38:51Z</time>
      </trkpt>
      <trkpt lat="42.7339660" lon="-8.3204960">
        <ele>289.5</ele>
        <time>2019-08-18T08:38:52Z</time>
      </trkpt>
      <trkpt lat="42.7339960" lon="-8.3205200">
        <ele>289.8</ele>
        <time>2019-08-18T08:38:53Z</time>
      </trkpt>
      <trkpt lat="42.7340250" lon="-8.3205440">
        <ele>290.0</ele>
        <time>2019-08-18T08:38:54Z</time>
      </trkpt>
      <trkpt lat="42.7340550" lon="-8.3205680">
        <ele>290.2</ele>
        <time>2019-08-18T08:38:55Z</time>
      </trkpt>
      <trkpt lat="42.7340840" lon="-8.3205930">
        <ele>290.5</ele>
        <time>2019-08-18T08:38:56Z</time>
      </trkpt>
      <trkpt lat="42.7341140" lon="-8.3206190">
        <ele>290.7</ele>
        <time>2019-08-18T08:38:57Z</time>
      </trkpt>
      <trkpt lat="42.7341440" lon="-8.3206450">
        <ele>291.0</ele>
        <time>2019-08-18T08:38:58Z</time>
      </trkpt>
      <trkpt lat="42.7341730" lon="-8.3206710">
        <ele>291.3</ele>
        <time>2019-08-18T08:38:59Z</time>
      </trkpt>
      <trkpt lat="42.7342030" lon="-8.3206980">
        <ele>291.6</ele>
        <time>2019-08-18T08:39:00Z</time>
      </trkpt>
      <trkpt lat="42.7342320" lon="-8.3207250">
        <ele>291.8</ele>
        <time>2019-08-18T08:39:01Z</time>
      </trkpt>
      <trkpt lat="42.7342620" lon="-8.3207530">
        <ele>292.3</ele>
        <time>2019-08-18T08:39:02Z</time>
      </trkpt>
      <trkpt lat="42.7342910" lon="-8.3207820">
        <ele>292.7</ele>
        <time>2019-08-18T08:39:03Z</time>
      </trkpt>
      <trkpt lat="42.7343210" lon="-8.3208110">
        <ele>292.9</ele>
        <time>2019-08-18T08:39:04Z</time>
      </trkpt>
      <trkpt lat="42.7343510" lon="-8.3208410">
        <ele>293.2</ele>
        <time>2019-08-18T08:39:05Z</time>
      </trkpt>
      <trkpt lat="42.7343800" lon="-8.3208710">
        <ele>293.4</ele>
        <time>2019-08-18T08:39:06Z</time>
      </trkpt>
      <trkpt lat="42.7344100" lon="-8.3209030">
        <ele>293.7</ele>
        <time>2019-08-18T08:39:07Z</time>
      </trkpt>
      <trkpt lat="42.7344400" lon="-8.3209350">
        <ele>293.9</ele>
        <time>2019-08-18T08:39:08Z</time>
      </trkpt>
      <trkpt lat="42.7344690" lon="-8.3209680">
        <ele>294.1</ele>
        <time>2019-08-18T08:39:09Z</time>
      </trkpt>
      <trkpt lat="42.7344990" lon="-8.3210010">
        <ele>294.1</ele>
        <time>2019-08-18T08:39:10Z</time>
      </trkpt>
      <trkpt lat="42.7345290" lon="-8.3210360">
        <ele>294.2</ele>
        <time>2019-08-18T08:39:11Z</time>
      </trkpt>
      <trkpt lat="42.7345590" lon="-8.3210710">
        <ele>294.3</ele>
        <time>2019-08-18T08:39:12Z</time>
      </trkpt>
      <trkpt lat="42.7345890" lon="-8.3211070">
        <ele>294.4</ele>
        <time>2019-08-18T08:39:13Z</time>
      </trkpt>
      <trkpt lat="42.7346190" lon="-8.3211440">
        <ele>294.5</ele>
        <time>2019-08-18T08:39:14Z</time>
      </trkpt>
      <trkpt lat="42.7346490" lon="-8.3211820">
        <ele>294.6</ele>
        <time>2019-08-18T08:39:15Z</time>
      </trkpt>
      <trkpt lat="42.7346790" lon="-8.3212210">
        <ele>294.7</ele>
        <time>2019-08-18T08:39:16Z</time>
      </trkpt>
      <trkpt lat="42.7347100" lon="-8.3212600">
        <ele>294.8</ele>
        <time>2019-08-18T08:39:17Z</time>
      </trkpt>
      <trkpt lat="42.7347400" lon="-8.3213000">
        <ele>294.8</ele>
        <time>2019-08-18T08:39:18Z</time>
      </trkpt>
      <trkpt lat="42.7347700" lon="-8.3213400">
        <ele>294.9</ele>
        <time>2019-08-18T08:39:19Z</time>
      </trkpt>
      <trkpt lat="42.7348000" lon="-8.3213800">
        <ele>295.0</ele>
        <time>2019-08-18T08:39:20Z</time>
      </trkpt>
      <trkpt lat="42.7348300" lon="-8.3214210">
        <ele>295.1</ele>
        <time>2019-08-18T08:39:21Z</time>
      </trkpt>
      <trkpt lat="42.7348590" lon="-8.3214610">
        <ele>295.2</ele>
        <time>2019-08-18T08:39:22Z</time>
      </trkpt>
      <trkpt lat="42.7348890" lon="-8.3215010">
        <ele>295.3</ele>
        <time>2019-08-18T08:39:23Z</time>
      </trkpt>
      <trkpt lat="42.7349180" lon="-8.3215410">
        <ele>295.4</ele>
        <time>2019-08-18T08:39:24Z</time>
      </trkpt>
      <trkpt lat="42.7349470" lon="-8.3215800">
        <ele>295.5</ele>
        <time>2019-08-18T08:39:25Z</time>
      </trkpt>
      <trkpt lat="42.7349750" lon="-8.3216190">
        <ele>295.6</ele>
        <time>2019-08-18T08:39:26Z</time>
      </trkpt>
      <trkpt lat="42.7350040" lon="-8.3216580">
        <ele>295.7</ele>
        <time>2019-08-18T08:39:27Z</time>
      </trkpt>
      <trkpt lat="42.7350320" lon="-8.3216950">
        <ele>295.7</ele>
        <time>2019-08-18T08:39:28Z</time>
      </trkpt>
      <trkpt lat="42.7350590" lon="-8.3217320">
        <ele>295.8</ele>
        <time>2019-08-18T08:39:29Z</time>
      </trkpt>
      <trkpt lat="42.7350870" lon="-8.3217680">
        <ele>295.8</ele>
        <time>2019-08-18T08:39:30Z</time>
      </trkpt>
      <trkpt lat="42.7351140" lon="-8.3218040">
        <ele>295.9</ele>
        <time>2019-08-18T08:39:31Z</time>
      </trkpt>
      <trkpt lat="42.7351410" lon="-8.3218400">
        <ele>295.9</ele>
        <time>2019-08-18T08:39:32Z</time>
      </trkpt>
      <trkpt lat="42.7351680" lon="-8.3218760">
        <ele>296.1</ele>
        <time>2019-08-18T08:39:33Z</time>
      </trkpt>
      <trkpt lat="42.7351950" lon="-8.3219130">
        <ele>296.2</ele>
        <time>2019-08-18T08:39:34Z</time>
      </trkpt>
      <trkpt lat="42.7352220" lon="-8.3219510">
        <ele>296.4</ele>
        <time>2019-08-18T08:39:35Z</time>
      </trkpt>
      <trkpt lat="42.7352500" lon="-8.3219890">
        <ele>296.5</ele>
        <time>2019-08-18T08:39:36Z</time>
      </trkpt>
      <trkpt lat="42.7352770" lon="-8.3220290">
        <ele>296.5</ele>
        <time>2019-08-18T08:39:37Z</time>
      </trkpt>
      <trkpt lat="42.7353060" lon="-8.3220690">
        <ele>296.6</ele>
        <time>2019-08-18T08:39:38Z</time>
      </trkpt>
      <trkpt lat="42.7353340" lon="-8.3221090">
        <ele>296.6</ele>
        <time>2019-08-18T08:39:39Z</time>
      </trkpt>
      <trkpt lat="42.7353620" lon="-8.3221500">
        <ele>296.6</ele>
        <time>2019-08-18T08:39:40Z</time>
      </trkpt>
      <trkpt lat="42.7353910" lon="-8.3221920">
        <ele>296.7</ele>
        <time>2019-08-18T08:39:41Z</time>
      </trkpt>
      <trkpt lat="42.7354190" lon="-8.3222330">
        <ele>296.7</ele>
        <time>2019-08-18T08:39:42Z</time>
      </trkpt>
      <trkpt lat="42.7354480" lon="-8.3222730">
        <ele>296.7</ele>
        <time>2019-08-18T08:39:43Z</time>
      </trkpt>
      <trkpt lat="42.7354770" lon="-8.3223140">
        <ele>296.8</ele>
        <time>2019-08-18T08:39:44Z</time>
      </trkpt>
      <trkpt lat="42.7355050" lon="-8.3223540">
        <ele>296.8</ele>
        <time>2019-08-18T08:39:45Z</time>
      </trkpt>
      <trkpt lat="42.7355330" lon="-8.3223950">
        <ele>296.9</ele>
        <time>2019-08-18T08:39:46Z</time>
      </trkpt>
      <trkpt lat="42.7355620" lon="-8.3224350">
        <ele>296.9</ele>
        <time>2019-08-18T08:39:47Z</time>
      </trkpt>
      <trkpt lat="42.7355900" lon="-8.3224750">
        <ele>297.0</ele>
        <time>2019-08-18T08:39:48Z</time>
      </trkpt>
      <trkpt lat="42.7356180" lon="-8.3225150">
        <ele>297.0</ele>
        <time>2019-08-18T08:39:49Z</time>
      </trkpt>
      <trkpt lat="42.7356460" lon="-8.3225550">
        <ele>297.1</ele>
        <time>2019-08-18T08:39:50Z</time>
      </trkpt>
      <trkpt lat="42.7356730" lon="-8.3225950">
        <ele>297.1</ele>
        <time>2019-08-18T08:39:51Z</time>
      </trkpt>
      <trkpt lat="42.7357000" lon="-8.3226360">
        <ele>297.2</ele>
        <time>2019-08-18T08:39:52Z</time>
      </trkpt>
      <trkpt lat="42.7357270" lon="-8.3226770">
        <ele>297.2</ele>
        <time>2019-08-18T08:39:53Z</time>
      </trkpt>
      <trkpt lat="42.7357530" lon="-8.3227170">
        <ele>297.2</ele>
        <time>2019-08-18T08:39:54Z</time>
      </trkpt>
      <trkpt lat="42.7357800" lon="-8.3227590">
        <ele>297.3</ele>
        <time>2019-08-18T08:39:55Z</time>
      </trkpt>
      <trkpt lat="42.7358050" lon="-8.3228000">
        <ele>297.3</ele>
        <time>2019-08-18T08:39:56Z</time>
      </trkpt>
      <trkpt lat="42.7358310" lon="-8.3228420">
        <ele>297.4</ele>
        <time>2019-08-18T08:39:57Z</time>
      </trkpt>
      <trkpt lat="42.7358550" lon="-8.3228840">
        <ele>297.4</ele>
        <time>2019-08-18T08:39:58Z</time>
      </trkpt>
      <trkpt lat="42.7358800" lon="-8.3229260">
        <ele>297.5</ele>
        <time>2019-08-18T08:39:59Z</time>
      </trkpt>
      <trkpt lat="42.7359050" lon="-8.3229670">
        <ele>297.5</ele>
        <time>2019-08-18T08:40:00Z</time>
      </trkpt>
      <trkpt lat="42.7359310" lon="-8.3230070">
        <ele>297.6</ele>
        <time>2019-08-18T08:40:01Z</time>
      </trkpt>
      <trkpt lat="42.7359580" lon="-8.3230450">
        <ele>297.6</ele>
        <time>2019-08-18T08:40:02Z</time>
      </trkpt>
      <trkpt lat="42.7359860" lon="-8.3230830">
        <ele>297.7</ele>
        <time>2019-08-18T08:40:03Z</time>
      </trkpt>
      <trkpt lat="42.7360140" lon="-8.3231200">
        <ele>297.7</ele>
        <time>2019-08-18T08:40:04Z</time>
      </trkpt>
      <trkpt lat="42.7360410" lon="-8.3231580">
        <ele>297.8</ele>
        <time>2019-08-18T08:40:05Z</time>
      </trkpt>
      <trkpt lat="42.7360690" lon="-8.3231980">
        <ele>297.9</ele>
        <time>2019-08-18T08:40:06Z</time>
      </trkpt>
      <trkpt lat="42.7360960" lon="-8.3232370">
        <ele>297.9</ele>
        <time>2019-08-18T08:40:07Z</time>
      </trkpt>
      <trkpt lat="42.7361230" lon="-8.3232770">
        <ele>298.0</ele>
        <time>2019-08-18T08:40:08Z</time>
      </trkpt>
      <trkpt lat="42.7361500" lon="-8.3233170">
        <ele>298.1</ele>
        <time>2019-08-18T08:40:09Z</time>
      </trkpt>
      <trkpt lat="42.7361760" lon="-8.3233570">
        <ele>298.2</ele>
        <time>2019-08-18T08:40:10Z</time>
      </trkpt>
      <trkpt lat="42.7362030" lon="-8.3233960">
        <ele>298.2</ele>
        <time>2019-08-18T08:40:11Z</time>
      </trkpt>
      <trkpt lat="42.7362290" lon="-8.3234340">
        <ele>298.3</ele>
        <time>2019-08-18T08:40:12Z</time>
      </trkpt>
      <trkpt lat="42.7362560" lon="-8.3234710">
        <ele>298.3</ele>
        <time>2019-08-18T08:40:13Z</time>
      </trkpt>
      <trkpt lat="42.7362820" lon="-8.3235070">
        <ele>298.4</ele>
        <time>2019-08-18T08:40:14Z</time>
      </trkpt>
      <trkpt lat="42.7363080" lon="-8.3235440">
        <ele>298.5</ele>
        <time>2019-08-18T08:40:15Z</time>
      </trkpt>
      <trkpt lat="42.7363340" lon="-8.3235800">
        <ele>298.5</ele>
        <time>2019-08-18T08:40:16Z</time>
      </trkpt>
      <trkpt lat="42.7363600" lon="-8.3236160">
        <ele>298.6</ele>
        <time>2019-08-18T08:40:17Z</time>
      </trkpt>
      <trkpt lat="42.7363850" lon="-8.3236530">
        <ele>298.6</ele>
        <time>2019-08-18T08:40:18Z</time>
      </trkpt>
      <trkpt lat="42.7364110" lon="-8.3236900">
        <ele>298.7</ele>
        <time>2019-08-18T08:40:19Z</time>
      </trkpt>
      <trkpt lat="42.7364360" lon="-8.3237280">
        <ele>298.7</ele>
        <time>2019-08-18T08:40:20Z</time>
      </trkpt>
      <trkpt lat="42.7364600" lon="-8.3237660">
        <ele>298.8</ele>
        <time>2019-08-18T08:40:21Z</time>
      </trkpt>
      <trkpt lat="42.7364850" lon="-8.3238060">
        <ele>298.8</ele>
        <time>2019-08-18T08:40:22Z</time>
      </trkpt>
      <trkpt lat="42.7365100" lon="-8.3238450">
        <ele>298.9</ele>
        <time>2019-08-18T08:40:23Z</time>
      </trkpt>
      <trkpt lat="42.7365350" lon="-8.3238860">
        <ele>299.0</ele>
        <time>2019-08-18T08:40:24Z</time>
      </trkpt>
      <trkpt lat="42.7365600" lon="-8.3239260">
        <ele>299.1</ele>
        <time>2019-08-18T08:40:25Z</time>
      </trkpt>
      <trkpt lat="42.7365860" lon="-8.3239680">
        <ele>299.3</ele>
        <time>2019-08-18T08:40:26Z</time>
      </trkpt>
      <trkpt lat="42.7366120" lon="-8.3240090">
        <ele>299.4</ele>
        <time>2019-08-18T08:40:27Z</time>
      </trkpt>
      <trkpt lat="42.7366380" lon="-8.3240510">
        <ele>299.5</ele>
        <time>2019-08-18T08:40:28Z</time>
      </trkpt>
      <trkpt lat="42.7366650" lon="-8.3240930">
        <ele>299.6</ele>
        <time>2019-08-18T08:40:29Z</time>
      </trkpt>
      <trkpt lat="42.7366930" lon="-8.3241350">
        <ele>299.7</ele>
        <time>2019-08-18T08:40:30Z</time>
      </trkpt>
      <trkpt lat="42.7367210" lon="-8.3241770">
        <ele>299.8</ele>
        <time>2019-08-18T08:40:31Z</time>
      </trkpt>
      <trkpt lat="42.7367500" lon="-8.3242190">
        <ele>299.9</ele>
        <time>2019-08-18T08:40:32Z</time>
      </trkpt>
      <trkpt lat="42.7367790" lon="-8.3242620">
        <ele>300.0</ele>
        <time>2019-08-18T08:40:33Z</time>
      </trkpt>
      <trkpt lat="42.7368080" lon="-8.3243040">
        <ele>300.1</ele>
        <time>2019-08-18T08:40:34Z</time>
      </trkpt>
      <trkpt lat="42.7368370" lon="-8.3243450">
        <ele>300.1</ele>
        <time>2019-08-18T08:40:35Z</time>
      </trkpt>
      <trkpt lat="42.7368670" lon="-8.3243870">
        <ele>300.2</ele>
        <time>2019-08-18T08:40:36Z</time>
      </trkpt>
      <trkpt lat="42.7368970" lon="-8.3244280">
        <ele>300.3</ele>
        <time>2019-08-18T08:40:37Z</time>
      </trkpt>
      <trkpt lat="42.7369260" lon="-8.3244690">
        <ele>300.4</ele>
        <time>2019-08-18T08:40:38Z</time>
      </trkpt>
      <trkpt lat="42.7369560" lon="-8.3245100">
        <ele>300.4</ele>
        <time>2019-08-18T08:40:39Z</time>
      </trkpt>
      <trkpt lat="42.7369840" lon="-8.3245500">
        <ele>300.5</ele>
        <time>2019-08-18T08:40:40Z</time>
      </trkpt>
      <trkpt lat="42.7370120" lon="-8.3245900">
        <ele>300.6</ele>
        <time>2019-08-18T08:40:41Z</time>
      </trkpt>
      <trkpt lat="42.7370400" lon="-8.3246300">
        <ele>300.6</ele>
        <time>2019-08-18T08:40:42Z</time>
      </trkpt>
      <trkpt lat="42.7370670" lon="-8.3246690">
        <ele>300.7</ele>
        <time>2019-08-18T08:40:43Z</time>
      </trkpt>
      <trkpt lat="42.7370940" lon="-8.3247080">
        <ele>300.8</ele>
        <time>2019-08-18T08:40:44Z</time>
      </trkpt>
      <trkpt lat="42.7371200" lon="-8.3247470">
        <ele>300.9</ele>
        <time>2019-08-18T08:40:45Z</time>
      </trkpt>
      <trkpt lat="42.7371460" lon="-8.3247860">
        <ele>301.0</ele>
        <time>2019-08-18T08:40:46Z</time>
      </trkpt>
      <trkpt lat="42.7371730" lon="-8.3248250">
        <ele>301.1</ele>
        <time>2019-08-18T08:40:47Z</time>
      </trkpt>
      <trkpt lat="42.7371990" lon="-8.3248650">
        <ele>301.2</ele>
        <time>2019-08-18T08:40:48Z</time>
      </trkpt>
      <trkpt lat="42.7372250" lon="-8.3249050">
        <ele>301.3</ele>
        <time>2019-08-18T08:40:49Z</time>
      </trkpt>
      <trkpt lat="42.7372510" lon="-8.3249450">
        <ele>301.3</ele>
        <time>2019-08-18T08:40:50Z</time>
      </trkpt>
      <trkpt lat="42.7372770" lon="-8.3249850">
        <ele>301.4</ele>
        <time>2019-08-18T08:40:51Z</time>
      </trkpt>
      <trkpt lat="42.7373040" lon="-8.3250260">
        <ele>301.5</ele>
        <time>2019-08-18T08:40:52Z</time>
      </trkpt>
      <trkpt lat="42.7373300" lon="-8.3250670">
        <ele>301.5</ele>
        <time>2019-08-18T08:40:53Z</time>
      </trkpt>
      <trkpt lat="42.7373560" lon="-8.3251080">
        <ele>301.6</ele>
        <time>2019-08-18T08:40:54Z</time>
      </trkpt>
      <trkpt lat="42.7373830" lon="-8.3251490">
        <ele>301.6</ele>
        <time>2019-08-18T08:40:55Z</time>
      </trkpt>
      <trkpt lat="42.7374090" lon="-8.3251900">
        <ele>301.6</ele>
        <time>2019-08-18T08:40:56Z</time>
      </trkpt>
      <trkpt lat="42.7374360" lon="-8.3252310">
        <ele>301.7</ele>
        <time>2019-08-18T08:40:57Z</time>
      </trkpt>
      <trkpt lat="42.7374630" lon="-8.3252720">
        <ele>301.8</ele>
        <time>2019-08-18T08:40:58Z</time>
      </trkpt>
      <trkpt lat="42.7374900" lon="-8.3253130">
        <ele>301.9</ele>
        <time>2019-08-18T08:40:59Z</time>
      </trkpt>
      <trkpt lat="42.7375170" lon="-8.3253540">
        <ele>301.9</ele>
        <time>2019-08-18T08:41:00Z</time>
      </trkpt>
      <trkpt lat="42.7375440" lon="-8.3253940">
        <ele>302.0</ele>
        <time>2019-08-18T08:41:01Z</time>
      </trkpt>
      <trkpt lat="42.7375720" lon="-8.3254340">
        <ele>302.1</ele>
        <time>2019-08-18T08:41:02Z</time>
      </trkpt>
      <trkpt lat="42.7376000" lon="-8.3254730">
        <ele>302.2</ele>
        <time>2019-08-18T08:41:03Z</time>
      </trkpt>
      <trkpt lat="42.7376280" lon="-8.3255120">
        <ele>302.3</ele>
        <time>2019-08-18T08:41:04Z</time>
      </trkpt>
      <trkpt lat="42.7376570" lon="-8.3255500">
        <ele>302.3</ele>
        <time>2019-08-18T08:41:05Z</time>
      </trkpt>
      <trkpt lat="42.7376860" lon="-8.3255890">
        <ele>302.4</ele>
        <time>2019-08-18T08:41:06Z</time>
      </trkpt>
      <trkpt lat="42.7377140" lon="-8.3256270">
        <ele>302.5</ele>
        <time>2019-08-18T08:41:07Z</time>
      </trkpt>
      <trkpt lat="42.7377430" lon="-8.3256660">
        <ele>302.7</ele>
        <time>2019-08-18T08:41:08Z</time>
      </trkpt>
      <trkpt lat="42.7377720" lon="-8.3257040">
        <ele>302.8</ele>
        <time>2019-08-18T08:41:09Z</time>
      </trkpt>
      <trkpt lat="42.7378000" lon="-8.3257430">
        <ele>303.0</ele>
        <time>2019-08-18T08:41:10Z</time>
      </trkpt>
      <trkpt lat="42.7378290" lon="-8.3257830">
        <ele>303.1</ele>
        <time>2019-08-18T08:41:11Z</time>
      </trkpt>
      <trkpt lat="42.7378560" lon="-8.3258230">
        <ele>303.3</ele>
        <time>2019-08-18T08:41:12Z</time>
      </trkpt>
      <trkpt lat="42.7378840" lon="-8.3258630">
        <ele>303.4</ele>
        <time>2019-08-18T08:41:13Z</time>
      </trkpt>
      <trkpt lat="42.7379110" lon="-8.3259040">
        <ele>303.5</ele>
        <time>2019-08-18T08:41:14Z</time>
      </trkpt>
      <trkpt lat="42.7379380" lon="-8.3259450">
        <ele>303.6</ele>
        <time>2019-08-18T08:41:15Z</time>
      </trkpt>
      <trkpt lat="42.7379650" lon="-8.3259860">
        <ele>303.7</ele>
        <time>2019-08-18T08:41:16Z</time>
      </trkpt>
      <trkpt lat="42.7379910" lon="-8.3260270">
        <ele>303.8</ele>
        <time>2019-08-18T08:41:17Z</time>
      </trkpt>
      <trkpt lat="42.7380170" lon="-8.3260680">
        <ele>303.9</ele>
        <time>2019-08-18T08:41:18Z</time>
      </trkpt>
      <trkpt lat="42.7380430" lon="-8.3261080">
        <ele>304.0</ele>
        <time>2019-08-18T08:41:19Z</time>
      </trkpt>
      <trkpt lat="42.7380690" lon="-8.3261490">
        <ele>304.1</ele>
        <time>2019-08-18T08:41:20Z</time>
      </trkpt>
      <trkpt lat="42.7380940" lon="-8.3261890">
        <ele>304.2</ele>
        <time>2019-08-18T08:41:21Z</time>
      </trkpt>
      <trkpt lat="42.7381200" lon="-8.3262280">
        <ele>304.3</ele>
        <time>2019-08-18T08:41:22Z</time>
      </trkpt>
      <trkpt lat="42.7381450" lon="-8.3262670">
        <ele>304.4</ele>
        <time>2019-08-18T08:41:23Z</time>
      </trkpt>
      <trkpt lat="42.7381690" lon="-8.3263050">
        <ele>304.8</ele>
        <time>2019-08-18T08:41:24Z</time>
      </trkpt>
      <trkpt lat="42.7381940" lon="-8.3263430">
        <ele>304.9</ele>
        <time>2019-08-18T08:41:25Z</time>
      </trkpt>
      <trkpt lat="42.7382180" lon="-8.3263790">
        <ele>305.1</ele>
        <time>2019-08-18T08:41:26Z</time>
      </trkpt>
      <trkpt lat="42.7382420" lon="-8.3264150">
        <ele>305.2</ele>
        <time>2019-08-18T08:41:27Z</time>
      </trkpt>
      <trkpt lat="42.7382660" lon="-8.3264490">
        <ele>305.4</ele>
        <time>2019-08-18T08:41:28Z</time>
      </trkpt>
      <trkpt lat="42.7382890" lon="-8.3264820">
        <ele>305.5</ele>
        <time>2019-08-18T08:41:29Z</time>
      </trkpt>
      <trkpt lat="42.7383120" lon="-8.3265140">
        <ele>305.7</ele>
        <time>2019-08-18T08:41:30Z</time>
      </trkpt>
      <trkpt lat="42.7383330" lon="-8.3265430">
        <ele>305.8</ele>
        <time>2019-08-18T08:41:31Z</time>
      </trkpt>
      <trkpt lat="42.7383540" lon="-8.3265710">
        <ele>305.9</ele>
        <time>2019-08-18T08:41:32Z</time>
      </trkpt>
      <trkpt lat="42.7383740" lon="-8.3265960">
        <ele>306.1</ele>
        <time>2019-08-18T08:41:33Z</time>
      </trkpt>
      <trkpt lat="42.7383930" lon="-8.3266210">
        <ele>306.3</ele>
        <time>2019-08-18T08:41:34Z</time>
      </trkpt>
      <trkpt lat="42.7384120" lon="-8.3266460">
        <ele>306.5</ele>
        <time>2019-08-18T08:41:35Z</time>
      </trkpt>
      <trkpt lat="42.7384310" lon="-8.3266710">
        <ele>306.7</ele>
        <time>2019-08-18T08:41:36Z</time>
      </trkpt>
      <trkpt lat="42.7384500" lon="-8.3266980">
        <ele>307.0</ele>
        <time>2019-08-18T08:41:37Z</time>
      </trkpt>
      <trkpt lat="42.7384690" lon="-8.3267270">
        <ele>307.2</ele>
        <time>2019-08-18T08:41:38Z</time>
      </trkpt>
      <trkpt lat="42.7384890" lon="-8.3267560">
        <ele>307.5</ele>
        <time>2019-08-18T08:41:39Z</time>
      </trkpt>
      <trkpt lat="42.7385110" lon="-8.3267870">
        <ele>307.7</ele>
        <time>2019-08-18T08:41:40Z</time>
      </trkpt>
      <trkpt lat="42.7385320" lon="-8.3268180">
        <ele>308.0</ele>
        <time>2019-08-18T08:41:41Z</time>
      </trkpt>
      <trkpt lat="42.7385550" lon="-8.3268490">
        <ele>308.2</ele>
        <time>2019-08-18T08:41:42Z</time>
      </trkpt>
      <trkpt lat="42.7385780" lon="-8.3268810">
        <ele>308.4</ele>
        <time>2019-08-18T08:41:43Z</time>
      </trkpt>
      <trkpt lat="42.7386010" lon="-8.3269120">
        <ele>308.6</ele>
        <time>2019-08-18T08:41:44Z</time>
      </trkpt>
      <trkpt lat="42.7386250" lon="-8.3269440">
        <ele>308.8</ele>
        <time>2019-08-18T08:41:45Z</time>
      </trkpt>
      <trkpt lat="42.7386480" lon="-8.3269760">
        <ele>309.0</ele>
        <time>2019-08-18T08:41:46Z</time>
      </trkpt>
      <trkpt lat="42.7386710" lon="-8.3270080">
        <ele>309.2</ele>
        <time>2019-08-18T08:41:47Z</time>
      </trkpt>
      <trkpt lat="42.7386940" lon="-8.3270400">
        <ele>309.3</ele>
        <time>2019-08-18T08:41:48Z</time>
      </trkpt>
      <trkpt lat="42.7387160" lon="-8.3270720">
        <ele>309.4</ele>
        <time>2019-08-18T08:41:49Z</time>
      </trkpt>
      <trkpt lat="42.7387380" lon="-8.3271030">
        <ele>309.6</ele>
        <time>2019-08-18T08:41:50Z</time>
      </trkpt>
      <trkpt lat="42.7387610" lon="-8.3271350">
        <ele>309.7</ele>
        <time>2019-08-18T08:41:51Z</time>
      </trkpt>
      <trkpt lat="42.7387830" lon="-8.3271670">
        <ele>309.8</ele>
        <time>2019-08-18T08:41:52Z</time>
      </trkpt>
      <trkpt lat="42.7388050" lon="-8.3271990">
        <ele>309.9</ele>
        <time>2019-08-18T08:41:53Z</time>
      </trkpt>
      <trkpt lat="42.7388270" lon="-8.3272310">
        <ele>310.0</ele>
        <time>2019-08-18T08:41:54Z</time>
      </trkpt>
      <trkpt lat="42.7388500" lon="-8.3272640">
        <ele>310.1</ele>
        <time>2019-08-18T08:41:55Z</time>
      </trkpt>
      <trkpt lat="42.7388730" lon="-8.3272970">
        <ele>310.2</ele>
        <time>2019-08-18T08:41:56Z</time>
      </trkpt>
      <trkpt lat="42.7388970" lon="-8.3273300">
        <ele>310.3</ele>
        <time>2019-08-18T08:41:57Z</time>
      </trkpt>
      <trkpt lat="42.7389200" lon="-8.3273640">
        <ele>310.5</ele>
        <time>2019-08-18T08:41:58Z</time>
      </trkpt>
      <trkpt lat="42.7389440" lon="-8.3273980">
        <ele>310.5</ele>
        <time>2019-08-18T08:41:59Z</time>
      </trkpt>
      <trkpt lat="42.7389680" lon="-8.3274310">
        <ele>310.5</ele>
        <time>2019-08-18T08:42:00Z</time>
      </trkpt>
      <trkpt lat="42.7389930" lon="-8.3274650">
        <ele>310.5</ele>
        <time>2019-08-18T08:42:01Z</time>
      </trkpt>
      <trkpt lat="42.7390170" lon="-8.3274990">
        <ele>310.5</ele>
        <time>2019-08-18T08:42:02Z</time>
      </trkpt>
      <trkpt lat="42.7390420" lon="-8.3275320">
        <ele>310.5</ele>
        <time>2019-08-18T08:42:03Z</time>
      </trkpt>
      <trkpt lat="42.7390670" lon="-8.3275650">
        <ele>310.5</ele>
        <time>2019-08-18T08:42:04Z</time>
      </trkpt>
      <trkpt lat="42.7390920" lon="-8.3275980">
        <ele>310.5</ele>
        <time>2019-08-18T08:42:05Z</time>
      </trkpt>
      <trkpt lat="42.7391170" lon="-8.3276310">
        <ele>310.5</ele>
        <time>2019-08-18T08:42:06Z</time>
      </trkpt>
      <trkpt lat="42.7391420" lon="-8.3276630">
        <ele>310.5</ele>
        <time>2019-08-18T08:42:07Z</time>
      </trkpt>
      <trkpt lat="42.7391680" lon="-8.3276940">
        <ele>310.5</ele>
        <time>2019-08-18T08:42:08Z</time>
      </trkpt>
      <trkpt lat="42.7391940" lon="-8.3277260">
        <ele>310.5</ele>
        <time>2019-08-18T08:42:09Z</time>
      </trkpt>
      <trkpt lat="42.7392190" lon="-8.3277560">
        <ele>310.5</ele>
        <time>2019-08-18T08:42:10Z</time>
      </trkpt>
      <trkpt lat="42.7392450" lon="-8.3277860">
        <ele>310.5</ele>
        <time>2019-08-18T08:42:11Z</time>
      </trkpt>
      <trkpt lat="42.7392700" lon="-8.3278150">
        <ele>310.6</ele>
        <time>2019-08-18T08:42:12Z</time>
      </trkpt>
      <trkpt lat="42.7392950" lon="-8.3278440">
        <ele>310.6</ele>
        <time>2019-08-18T08:42:13Z</time>
      </trkpt>
      <trkpt lat="42.7393200" lon="-8.3278720">
        <ele>310.7</ele>
        <time>2019-08-18T08:42:14Z</time>
      </trkpt>
      <trkpt lat="42.7393450" lon="-8.3279000">
        <ele>310.8</ele>
        <time>2019-08-18T08:42:15Z</time>
      </trkpt>
      <trkpt lat="42.7393700" lon="-8.3279270">
        <ele>310.9</ele>
        <time>2019-08-18T08:42:16Z</time>
      </trkpt>
      <trkpt lat="42.7393930" lon="-8.3279540">
        <ele>311.0</ele>
        <time>2019-08-18T08:42:17Z</time>
      </trkpt>
      <trkpt lat="42.7394160" lon="-8.3279800">
        <ele>311.1</ele>
        <time>2019-08-18T08:42:18Z</time>
      </trkpt>
      <trkpt lat="42.7394380" lon="-8.3280040">
        <ele>311.3</ele>
        <time>2019-08-18T08:42:19Z</time>
      </trkpt>
      <trkpt lat="42.7394590" lon="-8.3280250">
        <ele>311.4</ele>
        <time>2019-08-18T08:42:20Z</time>
      </trkpt>
      <trkpt lat="42.7394780" lon="-8.3280440">
        <ele>311.5</ele>
        <time>2019-08-18T08:42:21Z</time>
      </trkpt>
      <trkpt lat="42.7394970" lon="-8.3280610">
        <ele>311.7</ele>
        <time>2019-08-18T08:42:22Z</time>
      </trkpt>
      <trkpt lat="42.7395150" lon="-8.3280780">
        <ele>311.8</ele>
        <time>2019-08-18T08:42:23Z</time>
      </trkpt>
      <trkpt lat="42.7395330" lon="-8.3280960">
        <ele>311.9</ele>
        <time>2019-08-18T08:42:24Z</time>
      </trkpt>
      <trkpt lat="42.7395530" lon="-8.3281150">
        <ele>312.0</ele>
        <time>2019-08-18T08:42:25Z</time>
      </trkpt>
      <trkpt lat="42.7395730" lon="-8.3281340">
        <ele>312.1</ele>
        <time>2019-08-18T08:42:26Z</time>
      </trkpt>
      <trkpt lat="42.7395930" lon="-8.3281530">
        <ele>312.2</ele>
        <time>2019-08-18T08:42:27Z</time>
      </trkpt>
      <trkpt lat="42.7396150" lon="-8.3281740">
        <ele>312.2</ele>
        <time>2019-08-18T08:42:28Z</time>
      </trkpt>
      <trkpt lat="42.7396360" lon="-8.3281940">
        <ele>312.3</ele>
        <time>2019-08-18T08:42:29Z</time>
      </trkpt>
      <trkpt lat="42.7396590" lon="-8.3282150">
        <ele>312.3</ele>
        <time>2019-08-18T08:42:30Z</time>
      </trkpt>
      <trkpt lat="42.7396820" lon="-8.3282360">
        <ele>312.4</ele>
        <time>2019-08-18T08:42:31Z</time>
      </trkpt>
      <trkpt lat="42.7397050" lon="-8.3282570">
        <ele>312.4</ele>
        <time>2019-08-18T08:42:32Z</time>
      </trkpt>
      <trkpt lat="42.7397290" lon="-8.3282790">
        <ele>312.8</ele>
        <time>2019-08-18T08:42:33Z</time>
      </trkpt>
      <trkpt lat="42.7397540" lon="-8.3283000">
        <ele>312.9</ele>
        <time>2019-08-18T08:42:34Z</time>
      </trkpt>
      <trkpt lat="42.7397780" lon="-8.3283220">
        <ele>313.1</ele>
        <time>2019-08-18T08:42:35Z</time>
      </trkpt>
      <trkpt lat="42.7398030" lon="-8.3283430">
        <ele>313.2</ele>
        <time>2019-08-18T08:42:36Z</time>
      </trkpt>
      <trkpt lat="42.7398280" lon="-8.3283650">
        <ele>313.4</ele>
        <time>2019-08-18T08:42:37Z</time>
      </trkpt>
      <trkpt lat="42.7398530" lon="-8.3283870">
        <ele>313.5</ele>
        <time>2019-08-18T08:42:38Z</time>
      </trkpt>
      <trkpt lat="42.7398780" lon="-8.3284080">
        <ele>313.7</ele>
        <time>2019-08-18T08:42:39Z</time>
      </trkpt>
      <trkpt lat="42.7399030" lon="-8.3284300">
        <ele>313.8</ele>
        <time>2019-08-18T08:42:40Z</time>
      </trkpt>
      <trkpt lat="42.7399290" lon="-8.3284510">
        <ele>314.0</ele>
        <time>2019-08-18T08:42:41Z</time>
      </trkpt>
      <trkpt lat="42.7399540" lon="-8.3284730">
        <ele>314.1</ele>
        <time>2019-08-18T08:42:42Z</time>
      </trkpt>
      <trkpt lat="42.7399790" lon="-8.3284940">
        <ele>314.3</ele>
        <time>2019-08-18T08:42:43Z</time>
      </trkpt>
      <trkpt lat="42.7400050" lon="-8.3285150">
        <ele>314.4</ele>
        <time>2019-08-18T08:42:44Z</time>
      </trkpt>
      <trkpt lat="42.7400300" lon="-8.3285370">
        <ele>314.6</ele>
        <time>2019-08-18T08:42:45Z</time>
      </trkpt>
      <trkpt lat="42.7400560" lon="-8.3285580">
        <ele>314.7</ele>
        <time>2019-08-18T08:42:46Z</time>
      </trkpt>
      <trkpt lat="42.7400810" lon="-8.3285800">
        <ele>314.9</ele>
        <time>2019-08-18T08:42:47Z</time>
      </trkpt>
      <trkpt lat="42.7401070" lon="-8.3286010">
        <ele>315.0</ele>
        <time>2019-08-18T08:42:48Z</time>
      </trkpt>
      <trkpt lat="42.7401320" lon="-8.3286220">
        <ele>315.2</ele>
        <time>2019-08-18T08:42:49Z</time>
      </trkpt>
      <trkpt lat="42.7401580" lon="-8.3286440">
        <ele>315.3</ele>
        <time>2019-08-18T08:42:50Z</time>
      </trkpt>
      <trkpt lat="42.7401840" lon="-8.3286650">
        <ele>315.4</ele>
        <time>2019-08-18T08:42:51Z</time>
      </trkpt>
      <trkpt lat="42.7402090" lon="-8.3286870">
        <ele>315.6</ele>
        <time>2019-08-18T08:42:52Z</time>
      </trkpt>
      <trkpt lat="42.7402350" lon="-8.3287080">
        <ele>315.7</ele>
        <time>2019-08-18T08:42:53Z</time>
      </trkpt>
      <trkpt lat="42.7402610" lon="-8.3287300">
        <ele>315.9</ele>
        <time>2019-08-18T08:42:54Z</time>
      </trkpt>
      <trkpt lat="42.7402870" lon="-8.3287520">
        <ele>316.1</ele>
        <time>2019-08-18T08:42:55Z</time>
      </trkpt>
      <trkpt lat="42.7403130" lon="-8.3287730">
        <ele>316.3</ele>
        <time>2019-08-18T08:42:56Z</time>
      </trkpt>
      <trkpt lat="42.7403380" lon="-8.3287950">
        <ele>316.4</ele>
        <time>2019-08-18T08:42:57Z</time>
      </trkpt>
      <trkpt lat="42.7403640" lon="-8.3288170">
        <ele>316.5</ele>
        <time>2019-08-18T08:42:58Z</time>
      </trkpt>
      <trkpt lat="42.7403900" lon="-8.3288380">
        <ele>316.7</ele>
        <time>2019-08-18T08:42:59Z</time>
      </trkpt>
      <trkpt lat="42.7404160" lon="-8.3288600">
        <ele>316.8</ele>
        <time>2019-08-18T08:43:00Z</time>
      </trkpt>
      <trkpt lat="42.7404420" lon="-8.3288820">
        <ele>317.0</ele>
        <time>2019-08-18T08:43:01Z</time>
      </trkpt>
      <trkpt lat="42.7404680" lon="-8.3289040">
        <ele>317.1</ele>
        <time>2019-08-18T08:43:02Z</time>
      </trkpt>
      <trkpt lat="42.7404930" lon="-8.3289260">
        <ele>317.2</ele>
        <time>2019-08-18T08:43:03Z</time>
      </trkpt>
      <trkpt lat="42.7405190" lon="-8.3289490">
        <ele>317.4</ele>
        <time>2019-08-18T08:43:04Z</time>
      </trkpt>
      <trkpt lat="42.7405450" lon="-8.3289710">
        <ele>317.5</ele>
        <time>2019-08-18T08:43:05Z</time>
      </trkpt>
      <trkpt lat="42.7405710" lon="-8.3289930">
        <ele>317.7</ele>
        <time>2019-08-18T08:43:06Z</time>
      </trkpt>
      <trkpt lat="42.7405970" lon="-8.3290160">
        <ele>317.9</ele>
        <time>2019-08-18T08:43:07Z</time>
      </trkpt>
      <trkpt lat="42.7406220" lon="-8.3290380">
        <ele>318.1</ele>
        <time>2019-08-18T08:43:08Z</time>
      </trkpt>
      <trkpt lat="42.7406480" lon="-8.3290610">
        <ele>318.3</ele>
        <time>2019-08-18T08:43:09Z</time>
      </trkpt>
      <trkpt lat="42.7406740" lon="-8.3290840">
        <ele>318.5</ele>
        <time>2019-08-18T08:43:10Z</time>
      </trkpt>
      <trkpt lat="42.7407000" lon="-8.3291060">
        <ele>318.7</ele>
        <time>2019-08-18T08:43:11Z</time>
      </trkpt>
      <trkpt lat="42.7407260" lon="-8.3291290">
        <ele>318.8</ele>
        <time>2019-08-18T08:43:12Z</time>
      </trkpt>
      <trkpt lat="42.7407520" lon="-8.3291510">
        <ele>319.0</ele>
        <time>2019-08-18T08:43:13Z</time>
      </trkpt>
      <trkpt lat="42.7407780" lon="-8.3291730">
        <ele>319.1</ele>
        <time>2019-08-18T08:43:14Z</time>
      </trkpt>
      <trkpt lat="42.7408040" lon="-8.3291950">
        <ele>319.3</ele>
        <time>2019-08-18T08:43:15Z</time>
      </trkpt>
      <trkpt lat="42.7408310" lon="-8.3292160">
        <ele>319.4</ele>
        <time>2019-08-18T08:43:16Z</time>
      </trkpt>
      <trkpt lat="42.7408570" lon="-8.3292380">
        <ele>319.5</ele>
        <time>2019-08-18T08:43:17Z</time>
      </trkpt>
      <trkpt lat="42.7408830" lon="-8.3292590">
        <ele>319.7</ele>
        <time>2019-08-18T08:43:18Z</time>
      </trkpt>
      <trkpt lat="42.7409100" lon="-8.3292800">
        <ele>319.8</ele>
        <time>2019-08-18T08:43:19Z</time>
      </trkpt>
      <trkpt lat="42.7409360" lon="-8.3293010">
        <ele>320.0</ele>
        <time>2019-08-18T08:43:20Z</time>
      </trkpt>
      <trkpt lat="42.7409620" lon="-8.3293230">
        <ele>320.1</ele>
        <time>2019-08-18T08:43:21Z</time>
      </trkpt>
      <trkpt lat="42.7409870" lon="-8.3293450">
        <ele>320.2</ele>
        <time>2019-08-18T08:43:22Z</time>
      </trkpt>
      <trkpt lat="42.7410120" lon="-8.3293680">
        <ele>320.4</ele>
        <time>2019-08-18T08:43:23Z</time>
      </trkpt>
      <trkpt lat="42.7410370" lon="-8.3293910">
        <ele>320.5</ele>
        <time>2019-08-18T08:43:24Z</time>
      </trkpt>
      <trkpt lat="42.7410610" lon="-8.3294140">
        <ele>320.7</ele>
        <time>2019-08-18T08:43:25Z</time>
      </trkpt>
      <trkpt lat="42.7410850" lon="-8.3294370">
        <ele>320.8</ele>
        <time>2019-08-18T08:43:26Z</time>
      </trkpt>
      <trkpt lat="42.7411090" lon="-8.3294600">
        <ele>321.0</ele>
        <time>2019-08-18T08:43:27Z</time>
      </trkpt>
      <trkpt lat="42.7411330" lon="-8.3294830">
        <ele>321.2</ele>
        <time>2019-08-18T08:43:28Z</time>
      </trkpt>
      <trkpt lat="42.7411570" lon="-8.3295060">
        <ele>321.4</ele>
        <time>2019-08-18T08:43:29Z</time>
      </trkpt>
      <trkpt lat="42.7411820" lon="-8.3295280">
        <ele>321.5</ele>
        <time>2019-08-18T08:43:30Z</time>
      </trkpt>
      <trkpt lat="42.7412070" lon="-8.3295490">
        <ele>321.7</ele>
        <time>2019-08-18T08:43:31Z</time>
      </trkpt>
      <trkpt lat="42.7412310" lon="-8.3295710">
        <ele>321.9</ele>
        <time>2019-08-18T08:43:32Z</time>
      </trkpt>
      <trkpt lat="42.7412560" lon="-8.3295920">
        <ele>322.1</ele>
        <time>2019-08-18T08:43:33Z</time>
      </trkpt>
      <trkpt lat="42.7412800" lon="-8.3296140">
        <ele>322.2</ele>
        <time>2019-08-18T08:43:34Z</time>
      </trkpt>
      <trkpt lat="42.7413040" lon="-8.3296370">
        <ele>322.4</ele>
        <time>2019-08-18T08:43:35Z</time>
      </trkpt>
      <trkpt lat="42.7413280" lon="-8.3296590">
        <ele>322.6</ele>
        <time>2019-08-18T08:43:36Z</time>
      </trkpt>
      <trkpt lat="42.7413510" lon="-8.3296830">
        <ele>322.7</ele>
        <time>2019-08-18T08:43:37Z</time>
      </trkpt>
      <trkpt lat="42.7413740" lon="-8.3297080">
        <ele>322.9</ele>
        <time>2019-08-18T08:43:38Z</time>
      </trkpt>
      <trkpt lat="42.7413970" lon="-8.3297330">
        <ele>323.1</ele>
        <time>2019-08-18T08:43:39Z</time>
      </trkpt>
      <trkpt lat="42.7414190" lon="-8.3297590">
        <ele>323.2</ele>
        <time>2019-08-18T08:43:40Z</time>
      </trkpt>
      <trkpt lat="42.7414410" lon="-8.3297860">
        <ele>323.4</ele>
        <time>2019-08-18T08:43:41Z</time>
      </trkpt>
      <trkpt lat="42.7414630" lon="-8.3298130">
        <ele>323.5</ele>
        <time>2019-08-18T08:43:42Z</time>
      </trkpt>
      <trkpt lat="42.7414850" lon="-8.3298400">
        <ele>323.7</ele>
        <time>2019-08-18T08:43:43Z</time>
      </trkpt>
      <trkpt lat="42.7415070" lon="-8.3298680">
        <ele>323.8</ele>
        <time>2019-08-18T08:43:44Z</time>
      </trkpt>
      <trkpt lat="42.7415300" lon="-8.3298970">
        <ele>324.0</ele>
        <time>2019-08-18T08:43:45Z</time>
      </trkpt>
      <trkpt lat="42.7415520" lon="-8.3299260">
        <ele>324.1</ele>
        <time>2019-08-18T08:43:46Z</time>
      </trkpt>
      <trkpt lat="42.7415750" lon="-8.3299550">
        <ele>324.3</ele>
        <time>2019-08-18T08:43:47Z</time>
      </trkpt>
      <trkpt lat="42.7415970" lon="-8.3299850">
        <ele>324.1</ele>
        <time>2019-08-18T08:43:48Z</time>
      </trkpt>
      <trkpt lat="42.7416200" lon="-8.3300160">
        <ele>324.0</ele>
        <time>2019-08-18T08:43:49Z</time>
      </trkpt>
      <trkpt lat="42.7416420" lon="-8.3300480">
        <ele>323.9</ele>
        <time>2019-08-18T08:43:50Z</time>
      </trkpt>
      <trkpt lat="42.7416650" lon="-8.3300810">
        <ele>323.8</ele>
        <time>2019-08-18T08:43:51Z</time>
      </trkpt>
      <trkpt lat="42.7416860" lon="-8.3301140">
        <ele>323.7</ele>
        <time>2019-08-18T08:43:52Z</time>
      </trkpt>
      <trkpt lat="42.7417080" lon="-8.3301490">
        <ele>323.6</ele>
        <time>2019-08-18T08:43:53Z</time>
      </trkpt>
      <trkpt lat="42.7417290" lon="-8.3301850">
        <ele>323.5</ele>
        <time>2019-08-18T08:43:54Z</time>
      </trkpt>
      <trkpt lat="42.7417500" lon="-8.3302220">
        <ele>323.4</ele>
        <time>2019-08-18T08:43:55Z</time>
      </trkpt>
      <trkpt lat="42.7417710" lon="-8.3302600">
        <ele>323.3</ele>
        <time>2019-08-18T08:43:56Z</time>
      </trkpt>
      <trkpt lat="42.7417920" lon="-8.3302980">
        <ele>323.2</ele>
        <time>2019-08-18T08:43:57Z</time>
      </trkpt>
      <trkpt lat="42.7418130" lon="-8.3303380">
        <ele>323.0</ele>
        <time>2019-08-18T08:43:58Z</time>
      </trkpt>
      <trkpt lat="42.7418330" lon="-8.3303780">
        <ele>322.9</ele>
        <time>2019-08-18T08:43:59Z</time>
      </trkpt>
      <trkpt lat="42.7418520" lon="-8.3304180">
        <ele>322.8</ele>
        <time>2019-08-18T08:44:00Z</time>
      </trkpt>
      <trkpt lat="42.7418700" lon="-8.3304560">
        <ele>322.7</ele>
        <time>2019-08-18T08:44:01Z</time>
      </trkpt>
      <trkpt lat="42.7418860" lon="-8.3304920">
        <ele>322.6</ele>
        <time>2019-08-18T08:44:02Z</time>
      </trkpt>
      <trkpt lat="42.7419000" lon="-8.3305240">
        <ele>322.5</ele>
        <time>2019-08-18T08:44:03Z</time>
      </trkpt>
      <trkpt lat="42.7419120" lon="-8.3305550">
        <ele>322.4</ele>
        <time>2019-08-18T08:44:04Z</time>
      </trkpt>
      <trkpt lat="42.7419250" lon="-8.3305860">
        <ele>322.3</ele>
        <time>2019-08-18T08:44:05Z</time>
      </trkpt>
      <trkpt lat="42.7419390" lon="-8.3306190">
        <ele>322.2</ele>
        <time>2019-08-18T08:44:06Z</time>
      </trkpt>
      <trkpt lat="42.7419540" lon="-8.3306550">
        <ele>322.1</ele>
        <time>2019-08-18T08:44:07Z</time>
      </trkpt>
      <trkpt lat="42.7419690" lon="-8.3306930">
        <ele>322.0</ele>
        <time>2019-08-18T08:44:08Z</time>
      </trkpt>
      <trkpt lat="42.7419850" lon="-8.3307330">
        <ele>321.9</ele>
        <time>2019-08-18T08:44:09Z</time>
      </trkpt>
      <trkpt lat="42.7420020" lon="-8.3307750">
        <ele>321.8</ele>
        <time>2019-08-18T08:44:10Z</time>
      </trkpt>
      <trkpt lat="42.7420180" lon="-8.3308180">
        <ele>321.7</ele>
        <time>2019-08-18T08:44:11Z</time>
      </trkpt>
      <trkpt lat="42.7420340" lon="-8.3308620">
        <ele>321.6</ele>
        <time>2019-08-18T08:44:12Z</time>
      </trkpt>
      <trkpt lat="42.7420490" lon="-8.3309070">
        <ele>321.5</ele>
        <time>2019-08-18T08:44:13Z</time>
      </trkpt>
      <trkpt lat="42.7420630" lon="-8.3309520">
        <ele>321.4</ele>
        <time>2019-08-18T08:44:14Z</time>
      </trkpt>
      <trkpt lat="42.7420760" lon="-8.3309980">
        <ele>321.3</ele>
        <time>2019-08-18T08:44:15Z</time>
      </trkpt>
      <trkpt lat="42.7420880" lon="-8.3310450">
        <ele>321.2</ele>
        <time>2019-08-18T08:44:16Z</time>
      </trkpt>
      <trkpt lat="42.7421000" lon="-8.3310930">
        <ele>321.0</ele>
        <time>2019-08-18T08:44:17Z</time>
      </trkpt>
      <trkpt lat="42.7421110" lon="-8.3311410">
        <ele>320.9</ele>
        <time>2019-08-18T08:44:18Z</time>
      </trkpt>
      <trkpt lat="42.7421220" lon="-8.3311900">
        <ele>320.8</ele>
        <time>2019-08-18T08:44:19Z</time>
      </trkpt>
      <trkpt lat="42.7421330" lon="-8.3312400">
        <ele>320.7</ele>
        <time>2019-08-18T08:44:20Z</time>
      </trkpt>
      <trkpt lat="42.7421440" lon="-8.3312910">
        <ele>320.5</ele>
        <time>2019-08-18T08:44:21Z</time>
      </trkpt>
      <trkpt lat="42.7421550" lon="-8.3313440">
        <ele>320.4</ele>
        <time>2019-08-18T08:44:22Z</time>
      </trkpt>
      <trkpt lat="42.7421660" lon="-8.3313970">
        <ele>320.3</ele>
        <time>2019-08-18T08:44:23Z</time>
      </trkpt>
      <trkpt lat="42.7421780" lon="-8.3314510">
        <ele>320.2</ele>
        <time>2019-08-18T08:44:24Z</time>
      </trkpt>
      <trkpt lat="42.7421890" lon="-8.3315050">
        <ele>320.4</ele>
        <time>2019-08-18T08:44:25Z</time>
      </trkpt>
      <trkpt lat="42.7422000" lon="-8.3315600">
        <ele>320.6</ele>
        <time>2019-08-18T08:44:26Z</time>
      </trkpt>
      <trkpt lat="42.7422110" lon="-8.3316160">
        <ele>320.8</ele>
        <time>2019-08-18T08:44:27Z</time>
      </trkpt>
      <trkpt lat="42.7422220" lon="-8.3316720">
        <ele>321.0</ele>
        <time>2019-08-18T08:44:28Z</time>
      </trkpt>
      <trkpt lat="42.7422340" lon="-8.3317280">
        <ele>321.2</ele>
        <time>2019-08-18T08:44:29Z</time>
      </trkpt>
      <trkpt lat="42.7422450" lon="-8.3317850">
        <ele>321.4</ele>
        <time>2019-08-18T08:44:30Z</time>
      </trkpt>
      <trkpt lat="42.7422560" lon="-8.3318410">
        <ele>321.5</ele>
        <time>2019-08-18T08:44:31Z</time>
      </trkpt>
      <trkpt lat="42.7422670" lon="-8.3318970">
        <ele>321.7</ele>
        <time>2019-08-18T08:44:32Z</time>
      </trkpt>
      <trkpt lat="42.7422780" lon="-8.3319530">
        <ele>321.8</ele>
        <time>2019-08-18T08:44:33Z</time>
      </trkpt>
      <trkpt lat="42.7422890" lon="-8.3320090">
        <ele>322.0</ele>
        <time>2019-08-18T08:44:34Z</time>
      </trkpt>
      <trkpt lat="42.7423000" lon="-8.3320650">
        <ele>322.2</ele>
        <time>2019-08-18T08:44:35Z</time>
      </trkpt>
      <trkpt lat="42.7423110" lon="-8.3321200">
        <ele>322.4</ele>
        <time>2019-08-18T08:44:36Z</time>
      </trkpt>
      <trkpt lat="42.7423220" lon="-8.3321750">
        <ele>322.6</ele>
        <time>2019-08-18T08:44:37Z</time>
      </trkpt>
      <trkpt lat="42.7423320" lon="-8.3322300">
        <ele>322.8</ele>
        <time>2019-08-18T08:44:38Z</time>
      </trkpt>
      <trkpt lat="42.7423430" lon="-8.3322840">
        <ele>323.1</ele>
        <time>2019-08-18T08:44:39Z</time>
      </trkpt>
      <trkpt lat="42.7423540" lon="-8.3323390">
        <ele>323.4</ele>
        <time>2019-08-18T08:44:40Z</time>
      </trkpt>
      <trkpt lat="42.7423650" lon="-8.3323940">
        <ele>323.8</ele>
        <time>2019-08-18T08:44:41Z</time>
      </trkpt>
      <trkpt lat="42.7423760" lon="-8.3324480">
        <ele>324.2</ele>
        <time>2019-08-18T08:44:42Z</time>
      </trkpt>
      <trkpt lat="42.7423870" lon="-8.3325030">
        <ele>324.7</ele>
        <time>2019-08-18T08:44:43Z</time>
      </trkpt>
      <trkpt lat="42.7423980" lon="-8.3325580">
        <ele>325.3</ele>
        <time>2019-08-18T08:44:44Z</time>
      </trkpt>
      <trkpt lat="42.7424090" lon="-8.3326140">
        <ele>325.8</ele>
        <time>2019-08-18T08:44:45Z</time>
      </trkpt>
      <trkpt lat="42.7424210" lon="-8.3326700">
        <ele>326.4</ele>
        <time>2019-08-18T08:44:46Z</time>
      </trkpt>
      <trkpt lat="42.7424320" lon="-8.3327260">
        <ele>327.0</ele>
        <time>2019-08-18T08:44:47Z</time>
      </trkpt>
      <trkpt lat="42.7424440" lon="-8.3327830">
        <ele>327.5</ele>
        <time>2019-08-18T08:44:48Z</time>
      </trkpt>
      <trkpt lat="42.7424560" lon="-8.3328400">
        <ele>328.0</ele>
        <time>2019-08-18T08:44:49Z</time>
      </trkpt>
      <trkpt lat="42.7424680" lon="-8.3328980">
        <ele>328.5</ele>
        <time>2019-08-18T08:44:50Z</time>
      </trkpt>
      <trkpt lat="42.7424810" lon="-8.3329560">
        <ele>329.0</ele>
        <time>2019-08-18T08:44:51Z</time>
      </trkpt>
      <trkpt lat="42.7424930" lon="-8.3330150">
        <ele>329.4</ele>
        <time>2019-08-18T08:44:52Z</time>
      </trkpt>
      <trkpt lat="42.7425060" lon="-8.3330750">
        <ele>329.7</ele>
        <time>2019-08-18T08:44:53Z</time>
      </trkpt>
      <trkpt lat="42.7425190" lon="-8.3331340">
        <ele>330.1</ele>
        <time>2019-08-18T08:44:54Z</time>
      </trkpt>
      <trkpt lat="42.7425310" lon="-8.3331940">
        <ele>330.4</ele>
        <time>2019-08-18T08:44:55Z</time>
      </trkpt>
      <trkpt lat="42.7425440" lon="-8.3332540">
        <ele>330.7</ele>
        <time>2019-08-18T08:44:56Z</time>
      </trkpt>
      <trkpt lat="42.7425570" lon="-8.3333140">
        <ele>331.0</ele>
        <time>2019-08-18T08:44:57Z</time>
      </trkpt>
      <trkpt lat="42.7425700" lon="-8.3333740">
        <ele>331.3</ele>
        <time>2019-08-18T08:44:58Z</time>
      </trkpt>
      <trkpt lat="42.7425830" lon="-8.3334340">
        <ele>331.6</ele>
        <time>2019-08-18T08:44:59Z</time>
      </trkpt>
      <trkpt lat="42.7425950" lon="-8.3334930">
        <ele>331.9</ele>
        <time>2019-08-18T08:45:00Z</time>
      </trkpt>
      <trkpt lat="42.7426080" lon="-8.3335530">
        <ele>332.2</ele>
        <time>2019-08-18T08:45:01Z</time>
      </trkpt>
      <trkpt lat="42.7426200" lon="-8.3336110">
        <ele>332.4</ele>
        <time>2019-08-18T08:45:02Z</time>
      </trkpt>
      <trkpt lat="42.7426320" lon="-8.3336700">
        <ele>332.6</ele>
        <time>2019-08-18T08:45:03Z</time>
      </trkpt>
      <trkpt lat="42.7426440" lon="-8.3337270">
        <ele>332.8</ele>
        <time>2019-08-18T08:45:04Z</time>
      </trkpt>
      <trkpt lat="42.7426560" lon="-8.3337840">
        <ele>333.0</ele>
        <time>2019-08-18T08:45:05Z</time>
      </trkpt>
      <trkpt lat="42.7426680" lon="-8.3338410">
        <ele>333.2</ele>
        <time>2019-08-18T08:45:06Z</time>
      </trkpt>
      <trkpt lat="42.7426790" lon="-8.3338970">
        <ele>333.3</ele>
        <time>2019-08-18T08:45:07Z</time>
      </trkpt>
      <trkpt lat="42.7426900" lon="-8.3339530">
        <ele>333.5</ele>
        <time>2019-08-18T08:45:08Z</time>
      </trkpt>
      <trkpt lat="42.7427000" lon="-8.3340080">
        <ele>333.6</ele>
        <time>2019-08-18T08:45:09Z</time>
      </trkpt>
      <trkpt lat="42.7427100" lon="-8.3340640">
        <ele>333.8</ele>
        <time>2019-08-18T08:45:10Z</time>
      </trkpt>
      <trkpt lat="42.7427200" lon="-8.3341200">
        <ele>333.9</ele>
        <time>2019-08-18T08:45:11Z</time>
      </trkpt>
      <trkpt lat="42.7427290" lon="-8.3341750">
        <ele>334.1</ele>
        <time>2019-08-18T08:45:12Z</time>
      </trkpt>
      <trkpt lat="42.7427370" lon="-8.3342320">
        <ele>334.2</ele>
        <time>2019-08-18T08:45:13Z</time>
      </trkpt>
      <trkpt lat="42.7427460" lon="-8.3342880">
        <ele>334.4</ele>
        <time>2019-08-18T08:45:14Z</time>
      </trkpt>
      <trkpt lat="42.7427540" lon="-8.3343440">
        <ele>334.6</ele>
        <time>2019-08-18T08:45:15Z</time>
      </trkpt>
      <trkpt lat="42.7427620" lon="-8.3344000">
        <ele>334.9</ele>
        <time>2019-08-18T08:45:16Z</time>
      </trkpt>
      <trkpt lat="42.7427710" lon="-8.3344550">
        <ele>335.1</ele>
        <time>2019-08-18T08:45:17Z</time>
      </trkpt>
      <trkpt lat="42.7427800" lon="-8.3345100">
        <ele>335.3</ele>
        <time>2019-08-18T08:45:18Z</time>
      </trkpt>
      <trkpt lat="42.7427900" lon="-8.3345630">
        <ele>335.6</ele>
        <time>2019-08-18T08:45:19Z</time>
      </trkpt>
      <trkpt lat="42.7428010" lon="-8.3346160">
        <ele>335.8</ele>
        <time>2019-08-18T08:45:20Z</time>
      </trkpt>
      <trkpt lat="42.7428120" lon="-8.3346680">
        <ele>335.8</ele>
        <time>2019-08-18T08:45:21Z</time>
      </trkpt>
      <trkpt lat="42.7428240" lon="-8.3347190">
        <ele>335.8</ele>
        <time>2019-08-18T08:45:22Z</time>
      </trkpt>
      <trkpt lat="42.7428360" lon="-8.3347700">
        <ele>335.8</ele>
        <time>2019-08-18T08:45:23Z</time>
      </trkpt>
      <trkpt lat="42.7428480" lon="-8.3348210">
        <ele>335.8</ele>
        <time>2019-08-18T08:45:24Z</time>
      </trkpt>
      <trkpt lat="42.7428600" lon="-8.3348720">
        <ele>335.8</ele>
        <time>2019-08-18T08:45:25Z</time>
      </trkpt>
      <trkpt lat="42.7428710" lon="-8.3349240">
        <ele>335.8</ele>
        <time>2019-08-18T08:45:26Z</time>
      </trkpt>
      <trkpt lat="42.7428820" lon="-8.3349770">
        <ele>335.8</ele>
        <time>2019-08-18T08:45:27Z</time>
      </trkpt>
      <trkpt lat="42.7428930" lon="-8.3350310">
        <ele>335.8</ele>
        <time>2019-08-18T08:45:28Z</time>
      </trkpt>
      <trkpt lat="42.7429030" lon="-8.3350850">
        <ele>335.8</ele>
        <time>2019-08-18T08:45:29Z</time>
      </trkpt>
      <trkpt lat="42.7429130" lon="-8.3351400">
        <ele>335.8</ele>
        <time>2019-08-18T08:45:30Z</time>
      </trkpt>
      <trkpt lat="42.7429230" lon="-8.3351950">
        <ele>335.8</ele>
        <time>2019-08-18T08:45:31Z</time>
      </trkpt>
      <trkpt lat="42.7429340" lon="-8.3352500">
        <ele>335.8</ele>
        <time>2019-08-18T08:45:32Z</time>
      </trkpt>
      <trkpt lat="42.7429450" lon="-8.3353050">
        <ele>335.8</ele>
        <time>2019-08-18T08:45:33Z</time>
      </trkpt>
      <trkpt lat="42.7429560" lon="-8.3353600">
        <ele>335.8</ele>
        <time>2019-08-18T08:45:34Z</time>
      </trkpt>
      <trkpt lat="42.7429680" lon="-8.3354150">
        <ele>335.8</ele>
        <time>2019-08-18T08:45:35Z</time>
      </trkpt>
      <trkpt lat="42.7429810" lon="-8.3354700">
        <ele>335.8</ele>
        <time>2019-08-18T08:45:36Z</time>
      </trkpt>
      <trkpt lat="42.7429930" lon="-8.3355250">
        <ele>335.8</ele>
        <time>2019-08-18T08:45:37Z</time>
      </trkpt>
      <trkpt lat="42.7430060" lon="-8.3355800">
        <ele>335.8</ele>
        <time>2019-08-18T08:45:38Z</time>
      </trkpt>
      <trkpt lat="42.7430190" lon="-8.3356340">
        <ele>335.8</ele>
        <time>2019-08-18T08:45:39Z</time>
      </trkpt>
      <trkpt lat="42.7430320" lon="-8.3356890">
        <ele>335.8</ele>
        <time>2019-08-18T08:45:40Z</time>
      </trkpt>
      <trkpt lat="42.7430450" lon="-8.3357430">
        <ele>335.8</ele>
        <time>2019-08-18T08:45:41Z</time>
      </trkpt>
      <trkpt lat="42.7430570" lon="-8.3357970">
        <ele>335.9</ele>
        <time>2019-08-18T08:45:42Z</time>
      </trkpt>
      <trkpt lat="42.7430690" lon="-8.3358510">
        <ele>335.9</ele>
        <time>2019-08-18T08:45:43Z</time>
      </trkpt>
      <trkpt lat="42.7430810" lon="-8.3359050">
        <ele>336.0</ele>
        <time>2019-08-18T08:45:44Z</time>
      </trkpt>
      <trkpt lat="42.7430930" lon="-8.3359580">
        <ele>336.1</ele>
        <time>2019-08-18T08:45:45Z</time>
      </trkpt>
      <trkpt lat="42.7431050" lon="-8.3360120">
        <ele>336.3</ele>
        <time>2019-08-18T08:45:46Z</time>
      </trkpt>
      <trkpt lat="42.7431160" lon="-8.3360650">
        <ele>336.5</ele>
        <time>2019-08-18T08:45:47Z</time>
      </trkpt>
      <trkpt lat="42.7431260" lon="-8.3361180">
        <ele>336.9</ele>
        <time>2019-08-18T08:45:48Z</time>
      </trkpt>
      <trkpt lat="42.7431360" lon="-8.3361700">
        <ele>337.3</ele>
        <time>2019-08-18T08:45:49Z</time>
      </trkpt>
      <trkpt lat="42.7431460" lon="-8.3362220">
        <ele>337.7</ele>
        <time>2019-08-18T08:45:50Z</time>
      </trkpt>
      <trkpt lat="42.7431560" lon="-8.3362740">
        <ele>337.2</ele>
        <time>2019-08-18T08:45:51Z</time>
      </trkpt>
      <trkpt lat="42.7431660" lon="-8.3363250">
        <ele>337.2</ele>
        <time>2019-08-18T08:45:52Z</time>
      </trkpt>
      <trkpt lat="42.7431750" lon="-8.3363750">
        <ele>337.3</ele>
        <time>2019-08-18T08:45:53Z</time>
      </trkpt>
      <trkpt lat="42.7431840" lon="-8.3364240">
        <ele>337.3</ele>
        <time>2019-08-18T08:45:54Z</time>
      </trkpt>
      <trkpt lat="42.7431940" lon="-8.3364730">
        <ele>337.4</ele>
        <time>2019-08-18T08:45:55Z</time>
      </trkpt>
      <trkpt lat="42.7432030" lon="-8.3365200">
        <ele>337.4</ele>
        <time>2019-08-18T08:45:56Z</time>
      </trkpt>
      <trkpt lat="42.7432130" lon="-8.3365670">
        <ele>337.5</ele>
        <time>2019-08-18T08:45:57Z</time>
      </trkpt>
      <trkpt lat="42.7432240" lon="-8.3366140">
        <ele>337.5</ele>
        <time>2019-08-18T08:45:58Z</time>
      </trkpt>
      <trkpt lat="42.7432350" lon="-8.3366610">
        <ele>337.5</ele>
        <time>2019-08-18T08:45:59Z</time>
      </trkpt>
      <trkpt lat="42.7432470" lon="-8.3367100">
        <ele>337.6</ele>
        <time>2019-08-18T08:46:00Z</time>
      </trkpt>
      <trkpt lat="42.7432600" lon="-8.3367600">
        <ele>337.6</ele>
        <time>2019-08-18T08:46:01Z</time>
      </trkpt>
      <trkpt lat="42.7432720" lon="-8.3368100">
        <ele>337.6</ele>
        <time>2019-08-18T08:46:02Z</time>
      </trkpt>
      <trkpt lat="42.7432840" lon="-8.3368610">
        <ele>337.7</ele>
        <time>2019-08-18T08:46:03Z</time>
      </trkpt>
      <trkpt lat="42.7432950" lon="-8.3369110">
        <ele>337.7</ele>
        <time>2019-08-18T08:46:04Z</time>
      </trkpt>
      <trkpt lat="42.7433060" lon="-8.3369610">
        <ele>337.7</ele>
        <time>2019-08-18T08:46:05Z</time>
      </trkpt>
      <trkpt lat="42.7433160" lon="-8.3370120">
        <ele>337.8</ele>
        <time>2019-08-18T08:46:06Z</time>
      </trkpt>
      <trkpt lat="42.7433240" lon="-8.3370640">
        <ele>337.8</ele>
        <time>2019-08-18T08:46:07Z</time>
      </trkpt>
      <trkpt lat="42.7433330" lon="-8.3371160">
        <ele>337.8</ele>
        <time>2019-08-18T08:46:08Z</time>
      </trkpt>
      <trkpt lat="42.7433420" lon="-8.3371690">
        <ele>337.9</ele>
        <time>2019-08-18T08:46:09Z</time>
      </trkpt>
      <trkpt lat="42.7433530" lon="-8.3372210">
        <ele>337.9</ele>
        <time>2019-08-18T08:46:10Z</time>
      </trkpt>
      <trkpt lat="42.7433670" lon="-8.3372720">
        <ele>337.9</ele>
        <time>2019-08-18T08:46:11Z</time>
      </trkpt>
      <trkpt lat="42.7433830" lon="-8.3373230">
        <ele>337.9</ele>
        <time>2019-08-18T08:46:12Z</time>
      </trkpt>
      <trkpt lat="42.7434020" lon="-8.3373730">
        <ele>338.0</ele>
        <time>2019-08-18T08:46:13Z</time>
      </trkpt>
      <trkpt lat="42.7434240" lon="-8.3374210">
        <ele>338.0</ele>
        <time>2019-08-18T08:46:14Z</time>
      </trkpt>
      <trkpt lat="42.7434470" lon="-8.3374670">
        <ele>338.0</ele>
        <time>2019-08-18T08:46:15Z</time>
      </trkpt>
      <trkpt lat="42.7434730" lon="-8.3375120">
        <ele>338.0</ele>
        <time>2019-08-18T08:46:16Z</time>
      </trkpt>
      <trkpt lat="42.7434990" lon="-8.3375560">
        <ele>338.1</ele>
        <time>2019-08-18T08:46:17Z</time>
      </trkpt>
      <trkpt lat="42.7435260" lon="-8.3375990">
        <ele>338.1</ele>
        <time>2019-08-18T08:46:18Z</time>
      </trkpt>
      <trkpt lat="42.7435540" lon="-8.3376400">
        <ele>338.1</ele>
        <time>2019-08-18T08:46:19Z</time>
      </trkpt>
      <trkpt lat="42.7435830" lon="-8.3376810">
        <ele>338.1</ele>
        <time>2019-08-18T08:46:20Z</time>
      </trkpt>
      <trkpt lat="42.7436140" lon="-8.3377210">
        <ele>338.1</ele>
        <time>2019-08-18T08:46:21Z</time>
      </trkpt>
      <trkpt lat="42.7436450" lon="-8.3377600">
        <ele>338.1</ele>
        <time>2019-08-18T08:46:22Z</time>
      </trkpt>
      <trkpt lat="42.7436780" lon="-8.3377980">
        <ele>338.2</ele>
        <time>2019-08-18T08:46:23Z</time>
      </trkpt>
      <trkpt lat="42.7437130" lon="-8.3378350">
        <ele>338.2</ele>
        <time>2019-08-18T08:46:24Z</time>
      </trkpt>
      <trkpt lat="42.7437500" lon="-8.3378710">
        <ele>338.2</ele>
        <time>2019-08-18T08:46:25Z</time>
      </trkpt>
      <trkpt lat="42.7437890" lon="-8.3379060">
        <ele>338.2</ele>
        <time>2019-08-18T08:46:26Z</time>
      </trkpt>
      <trkpt lat="42.7438290" lon="-8.3379400">
        <ele>338.2</ele>
        <time>2019-08-18T08:46:27Z</time>
      </trkpt>
      <trkpt lat="42.7438690" lon="-8.3379730">
        <ele>338.2</ele>
        <time>2019-08-18T08:46:28Z</time>
      </trkpt>
      <trkpt lat="42.7439110" lon="-8.3380050">
        <ele>338.2</ele>
        <time>2019-08-18T08:46:29Z</time>
      </trkpt>
      <trkpt lat="42.7439530" lon="-8.3380360">
        <ele>338.2</ele>
        <time>2019-08-18T08:46:30Z</time>
      </trkpt>
      <trkpt lat="42.7439950" lon="-8.3380650">
        <ele>338.3</ele>
        <time>2019-08-18T08:46:31Z</time>
      </trkpt>
      <trkpt lat="42.7440380" lon="-8.3380920">
        <ele>338.3</ele>
        <time>2019-08-18T08:46:32Z</time>
      </trkpt>
      <trkpt lat="42.7440800" lon="-8.3381190">
        <ele>338.4</ele>
        <time>2019-08-18T08:46:33Z</time>
      </trkpt>
      <trkpt lat="42.7441220" lon="-8.3381440">
        <ele>338.4</ele>
        <time>2019-08-18T08:46:34Z</time>
      </trkpt>
      <trkpt lat="42.7441640" lon="-8.3381680">
        <ele>338.4</ele>
        <time>2019-08-18T08:46:35Z</time>
      </trkpt>
      <trkpt lat="42.7442060" lon="-8.3381900">
        <ele>338.5</ele>
        <time>2019-08-18T08:46:36Z</time>
      </trkpt>
      <trkpt lat="42.7442490" lon="-8.3382120">
        <ele>338.5</ele>
        <time>2019-08-18T08:46:37Z</time>
      </trkpt>
      <trkpt lat="42.7442920" lon="-8.3382330">
        <ele>338.5</ele>
        <time>2019-08-18T08:46:38Z</time>
      </trkpt>
      <trkpt lat="42.7443360" lon="-8.3382520">
        <ele>338.6</ele>
        <time>2019-08-18T08:46:39Z</time>
      </trkpt>
      <trkpt lat="42.7443800" lon="-8.3382710">
        <ele>338.6</ele>
        <time>2019-08-18T08:46:40Z</time>
      </trkpt>
      <trkpt lat="42.7444250" lon="-8.3382880">
        <ele>338.7</ele>
        <time>2019-08-18T08:46:41Z</time>
      </trkpt>
      <trkpt lat="42.7445000" lon="-8.3383170">
        <ele>338.7</ele>
        <time>2019-08-18T08:46:42Z</time>
      </trkpt>
      <trkpt lat="42.7445310" lon="-8.3383270">
        <ele>338.8</ele>
        <time>2019-08-18T08:46:43Z</time>
      </trkpt>
      <trkpt lat="42.7445610" lon="-8.3383380">
        <ele>338.8</ele>
        <time>2019-08-18T08:46:44Z</time>
      </trkpt>
      <trkpt lat="42.7446050" lon="-8.3383540">
        <ele>338.8</ele>
        <time>2019-08-18T08:46:45Z</time>
      </trkpt>
      <trkpt lat="42.7446490" lon="-8.3383700">
        <ele>338.9</ele>
        <time>2019-08-18T08:46:46Z</time>
      </trkpt>
      <trkpt lat="42.7446930" lon="-8.3383860">
        <ele>338.9</ele>
        <time>2019-08-18T08:46:47Z</time>
      </trkpt>
      <trkpt lat="42.7447360" lon="-8.3384020">
        <ele>339.0</ele>
        <time>2019-08-18T08:46:48Z</time>
      </trkpt>
      <trkpt lat="42.7447780" lon="-8.3384190">
        <ele>339.0</ele>
        <time>2019-08-18T08:46:49Z</time>
      </trkpt>
      <trkpt lat="42.7448200" lon="-8.3384360">
        <ele>339.1</ele>
        <time>2019-08-18T08:46:50Z</time>
      </trkpt>
      <trkpt lat="42.7448610" lon="-8.3384550">
        <ele>339.1</ele>
        <time>2019-08-18T08:46:51Z</time>
      </trkpt>
      <trkpt lat="42.7449020" lon="-8.3384740">
        <ele>339.2</ele>
        <time>2019-08-18T08:46:52Z</time>
      </trkpt>
      <trkpt lat="42.7449430" lon="-8.3384950">
        <ele>339.2</ele>
        <time>2019-08-18T08:46:53Z</time>
      </trkpt>
      <trkpt lat="42.7449840" lon="-8.3385180">
        <ele>339.3</ele>
        <time>2019-08-18T08:46:54Z</time>
      </trkpt>
      <trkpt lat="42.7450250" lon="-8.3385420">
        <ele>339.3</ele>
        <time>2019-08-18T08:46:55Z</time>
      </trkpt>
      <trkpt lat="42.7450660" lon="-8.3385680">
        <ele>339.4</ele>
        <time>2019-08-18T08:46:56Z</time>
      </trkpt>
      <trkpt lat="42.7451340" lon="-8.3386140">
        <ele>339.5</ele>
        <time>2019-08-18T08:46:57Z</time>
      </trkpt>
      <trkpt lat="42.7451620" lon="-8.3386320">
        <ele>339.5</ele>
        <time>2019-08-18T08:46:58Z</time>
      </trkpt>
      <trkpt lat="42.7451890" lon="-8.3386510">
        <ele>339.5</ele>
        <time>2019-08-18T08:46:59Z</time>
      </trkpt>
      <trkpt lat="42.7452300" lon="-8.3386800">
        <ele>339.6</ele>
        <time>2019-08-18T08:47:00Z</time>
      </trkpt>
      <trkpt lat="42.7452720" lon="-8.3387080">
        <ele>339.6</ele>
        <time>2019-08-18T08:47:01Z</time>
      </trkpt>
      <trkpt lat="42.7453140" lon="-8.3387360">
        <ele>339.7</ele>
        <time>2019-08-18T08:47:02Z</time>
      </trkpt>
      <trkpt lat="42.7453550" lon="-8.3387640">
        <ele>339.7</ele>
        <time>2019-08-18T08:47:03Z</time>
      </trkpt>
      <trkpt lat="42.7453960" lon="-8.3387920">
        <ele>339.8</ele>
        <time>2019-08-18T08:47:04Z</time>
      </trkpt>
      <trkpt lat="42.7454370" lon="-8.3388220">
        <ele>339.8</ele>
        <time>2019-08-18T08:47:05Z</time>
      </trkpt>
      <trkpt lat="42.7454770" lon="-8.3388520">
        <ele>339.9</ele>
        <time>2019-08-18T08:47:06Z</time>
      </trkpt>
      <trkpt lat="42.7455160" lon="-8.3388850">
        <ele>339.9</ele>
        <time>2019-08-18T08:47:07Z</time>
      </trkpt>
      <trkpt lat="42.7455540" lon="-8.3389190">
        <ele>340.0</ele>
        <time>2019-08-18T08:47:08Z</time>
      </trkpt>
      <trkpt lat="42.7455900" lon="-8.3389570">
        <ele>340.0</ele>
        <time>2019-08-18T08:47:09Z</time>
      </trkpt>
      <trkpt lat="42.7456250" lon="-8.3389970">
        <ele>340.1</ele>
        <time>2019-08-18T08:47:10Z</time>
      </trkpt>
      <trkpt lat="42.7456580" lon="-8.3390400">
        <ele>340.2</ele>
        <time>2019-08-18T08:47:11Z</time>
      </trkpt>
      <trkpt lat="42.7456910" lon="-8.3390850">
        <ele>340.2</ele>
        <time>2019-08-18T08:47:12Z</time>
      </trkpt>
      <trkpt lat="42.7457240" lon="-8.3391310">
        <ele>340.3</ele>
        <time>2019-08-18T08:47:13Z</time>
      </trkpt>
      <trkpt lat="42.7457560" lon="-8.3391780">
        <ele>340.3</ele>
        <time>2019-08-18T08:47:14Z</time>
      </trkpt>
      <trkpt lat="42.7457890" lon="-8.3392250">
        <ele>340.4</ele>
        <time>2019-08-18T08:47:15Z</time>
      </trkpt>
      <trkpt lat="42.7458240" lon="-8.3392710">
        <ele>340.5</ele>
        <time>2019-08-18T08:47:16Z</time>
      </trkpt>
      <trkpt lat="42.7458600" lon="-8.3393160">
        <ele>340.5</ele>
        <time>2019-08-18T08:47:17Z</time>
      </trkpt>
      <trkpt lat="42.7458970" lon="-8.3393600">
        <ele>340.6</ele>
        <time>2019-08-18T08:47:18Z</time>
      </trkpt>
      <trkpt lat="42.7459350" lon="-8.3394040">
        <ele>340.6</ele>
        <time>2019-08-18T08:47:19Z</time>
      </trkpt>
      <trkpt lat="42.7459730" lon="-8.3394470">
        <ele>340.7</ele>
        <time>2019-08-18T08:47:20Z</time>
      </trkpt>
      <trkpt lat="42.7460120" lon="-8.3394910">
        <ele>340.7</ele>
        <time>2019-08-18T08:47:21Z</time>
      </trkpt>
      <trkpt lat="42.7460510" lon="-8.3395350">
        <ele>340.7</ele>
        <time>2019-08-18T08:47:22Z</time>
      </trkpt>
      <trkpt lat="42.7460880" lon="-8.3395800">
        <ele>340.7</ele>
        <time>2019-08-18T08:47:23Z</time>
      </trkpt>
      <trkpt lat="42.7461250" lon="-8.3396270">
        <ele>340.7</ele>
        <time>2019-08-18T08:47:24Z</time>
      </trkpt>
      <trkpt lat="42.7461620" lon="-8.3396750">
        <ele>340.7</ele>
        <time>2019-08-18T08:47:25Z</time>
      </trkpt>
      <trkpt lat="42.7461980" lon="-8.3397240">
        <ele>340.8</ele>
        <time>2019-08-18T08:47:26Z</time>
      </trkpt>
      <trkpt lat="42.7462340" lon="-8.3397740">
        <ele>340.8</ele>
        <time>2019-08-18T08:47:27Z</time>
      </trkpt>
      <trkpt lat="42.7462700" lon="-8.3398240">
        <ele>340.8</ele>
        <time>2019-08-18T08:47:28Z</time>
      </trkpt>
      <trkpt lat="42.7463070" lon="-8.3398740">
        <ele>340.8</ele>
        <time>2019-08-18T08:47:29Z</time>
      </trkpt>
      <trkpt lat="42.7463450" lon="-8.3399240">
        <ele>340.8</ele>
        <time>2019-08-18T08:47:30Z</time>
      </trkpt>
      <trkpt lat="42.7463840" lon="-8.3399740">
        <ele>340.8</ele>
        <time>2019-08-18T08:47:31Z</time>
      </trkpt>
      <trkpt lat="42.7464230" lon="-8.3400240">
        <ele>340.9</ele>
        <time>2019-08-18T08:47:32Z</time>
      </trkpt>
      <trkpt lat="42.7464640" lon="-8.3400720">
        <ele>340.9</ele>
        <time>2019-08-18T08:47:33Z</time>
      </trkpt>
      <trkpt lat="42.7465060" lon="-8.3401210">
        <ele>340.9</ele>
        <time>2019-08-18T08:47:34Z</time>
      </trkpt>
      <trkpt lat="42.7465480" lon="-8.3401680">
        <ele>341.0</ele>
        <time>2019-08-18T08:47:35Z</time>
      </trkpt>
      <trkpt lat="42.7465910" lon="-8.3402150">
        <ele>341.2</ele>
        <time>2019-08-18T08:47:36Z</time>
      </trkpt>
      <trkpt lat="42.7466350" lon="-8.3402620">
        <ele>341.3</ele>
        <time>2019-08-18T08:47:37Z</time>
      </trkpt>
      <trkpt lat="42.7466780" lon="-8.3403070">
        <ele>341.4</ele>
        <time>2019-08-18T08:47:38Z</time>
      </trkpt>
      <trkpt lat="42.7467220" lon="-8.3403520">
        <ele>341.6</ele>
        <time>2019-08-18T08:47:39Z</time>
      </trkpt>
      <trkpt lat="42.7467660" lon="-8.3403960">
        <ele>341.7</ele>
        <time>2019-08-18T08:47:40Z</time>
      </trkpt>
      <trkpt lat="42.7468090" lon="-8.3404390">
        <ele>341.8</ele>
        <time>2019-08-18T08:47:41Z</time>
      </trkpt>
      <trkpt lat="42.7468530" lon="-8.3404810">
        <ele>341.9</ele>
        <time>2019-08-18T08:47:42Z</time>
      </trkpt>
      <trkpt lat="42.7468960" lon="-8.3405220">
        <ele>342.0</ele>
        <time>2019-08-18T08:47:43Z</time>
      </trkpt>
      <trkpt lat="42.7469380" lon="-8.3405620">
        <ele>342.1</ele>
        <time>2019-08-18T08:47:44Z</time>
      </trkpt>
      <trkpt lat="42.7469800" lon="-8.3406000">
        <ele>342.2</ele>
        <time>2019-08-18T08:47:45Z</time>
      </trkpt>
      <trkpt lat="42.7470210" lon="-8.3406380">
        <ele>342.3</ele>
        <time>2019-08-18T08:47:46Z</time>
      </trkpt>
      <trkpt lat="42.7470610" lon="-8.3406750">
        <ele>342.4</ele>
        <time>2019-08-18T08:47:47Z</time>
      </trkpt>
      <trkpt lat="42.7471010" lon="-8.3407110">
        <ele>342.5</ele>
        <time>2019-08-18T08:47:48Z</time>
      </trkpt>
      <trkpt lat="42.7471400" lon="-8.3407460">
        <ele>342.5</ele>
        <time>2019-08-18T08:47:49Z</time>
      </trkpt>
      <trkpt lat="42.7471780" lon="-8.3407800">
        <ele>342.6</ele>
        <time>2019-08-18T08:47:50Z</time>
      </trkpt>
      <trkpt lat="42.7472160" lon="-8.3408140">
        <ele>342.7</ele>
        <time>2019-08-18T08:47:51Z</time>
      </trkpt>
      <trkpt lat="42.7472530" lon="-8.3408470">
        <ele>342.8</ele>
        <time>2019-08-18T08:47:52Z</time>
      </trkpt>
      <trkpt lat="42.7472900" lon="-8.3408800">
        <ele>342.8</ele>
        <time>2019-08-18T08:47:53Z</time>
      </trkpt>
      <trkpt lat="42.7473260" lon="-8.3409130">
        <ele>342.9</ele>
        <time>2019-08-18T08:47:54Z</time>
      </trkpt>
      <trkpt lat="42.7473610" lon="-8.3409450">
        <ele>342.9</ele>
        <time>2019-08-18T08:47:55Z</time>
      </trkpt>
      <trkpt lat="42.7473970" lon="-8.3409780">
        <ele>343.0</ele>
        <time>2019-08-18T08:47:56Z</time>
      </trkpt>
      <trkpt lat="42.7474320" lon="-8.3410110">
        <ele>343.1</ele>
        <time>2019-08-18T08:47:57Z</time>
      </trkpt>
      <trkpt lat="42.7474670" lon="-8.3410440">
        <ele>343.1</ele>
        <time>2019-08-18T08:47:58Z</time>
      </trkpt>
      <trkpt lat="42.7475010" lon="-8.3410770">
        <ele>343.2</ele>
        <time>2019-08-18T08:47:59Z</time>
      </trkpt>
      <trkpt lat="42.7475350" lon="-8.3411110">
        <ele>343.2</ele>
        <time>2019-08-18T08:48:00Z</time>
      </trkpt>
      <trkpt lat="42.7475690" lon="-8.3411450">
        <ele>343.3</ele>
        <time>2019-08-18T08:48:01Z</time>
      </trkpt>
      <trkpt lat="42.7476030" lon="-8.3411800">
        <ele>343.4</ele>
        <time>2019-08-18T08:48:02Z</time>
      </trkpt>
      <trkpt lat="42.7476370" lon="-8.3412150">
        <ele>343.5</ele>
        <time>2019-08-18T08:48:03Z</time>
      </trkpt>
      <trkpt lat="42.7476700" lon="-8.3412510">
        <ele>343.5</ele>
        <time>2019-08-18T08:48:04Z</time>
      </trkpt>
      <trkpt lat="42.7477020" lon="-8.3412870">
        <ele>343.6</ele>
        <time>2019-08-18T08:48:05Z</time>
      </trkpt>
      <trkpt lat="42.7477340" lon="-8.3413230">
        <ele>343.6</ele>
        <time>2019-08-18T08:48:06Z</time>
      </trkpt>
      <trkpt lat="42.7477660" lon="-8.3413590">
        <ele>343.6</ele>
        <time>2019-08-18T08:48:07Z</time>
      </trkpt>
      <trkpt lat="42.7477970" lon="-8.3413960">
        <ele>343.7</ele>
        <time>2019-08-18T08:48:08Z</time>
      </trkpt>
      <trkpt lat="42.7478280" lon="-8.3414330">
        <ele>343.7</ele>
        <time>2019-08-18T08:48:09Z</time>
      </trkpt>
      <trkpt lat="42.7478580" lon="-8.3414700">
        <ele>343.7</ele>
        <time>2019-08-18T08:48:10Z</time>
      </trkpt>
      <trkpt lat="42.7478880" lon="-8.3415090">
        <ele>343.8</ele>
        <time>2019-08-18T08:48:11Z</time>
      </trkpt>
      <trkpt lat="42.7479170" lon="-8.3415480">
        <ele>343.8</ele>
        <time>2019-08-18T08:48:12Z</time>
      </trkpt>
      <trkpt lat="42.7479460" lon="-8.3415890">
        <ele>343.8</ele>
        <time>2019-08-18T08:48:13Z</time>
      </trkpt>
      <trkpt lat="42.7479740" lon="-8.3416310">
        <ele>343.8</ele>
        <time>2019-08-18T08:48:14Z</time>
      </trkpt>
      <trkpt lat="42.7480010" lon="-8.3416740">
        <ele>343.8</ele>
        <time>2019-08-18T08:48:15Z</time>
      </trkpt>
      <trkpt lat="42.7480270" lon="-8.3417200">
        <ele>343.8</ele>
        <time>2019-08-18T08:48:16Z</time>
      </trkpt>
      <trkpt lat="42.7480530" lon="-8.3417660">
        <ele>343.8</ele>
        <time>2019-08-18T08:48:17Z</time>
      </trkpt>
      <trkpt lat="42.7480780" lon="-8.3418140">
        <ele>343.8</ele>
        <time>2019-08-18T08:48:18Z</time>
      </trkpt>
      <trkpt lat="42.7481020" lon="-8.3418630">
        <ele>343.8</ele>
        <time>2019-08-18T08:48:19Z</time>
      </trkpt>
      <trkpt lat="42.7481240" lon="-8.3419140">
        <ele>343.8</ele>
        <time>2019-08-18T08:48:20Z</time>
      </trkpt>
      <trkpt lat="42.7481460" lon="-8.3419660">
        <ele>343.8</ele>
        <time>2019-08-18T08:48:21Z</time>
      </trkpt>
      <trkpt lat="42.7481660" lon="-8.3420180">
        <ele>343.8</ele>
        <time>2019-08-18T08:48:22Z</time>
      </trkpt>
      <trkpt lat="42.7481840" lon="-8.3420720">
        <ele>343.8</ele>
        <time>2019-08-18T08:48:23Z</time>
      </trkpt>
      <trkpt lat="42.7482020" lon="-8.3421270">
        <ele>343.8</ele>
        <time>2019-08-18T08:48:24Z</time>
      </trkpt>
      <trkpt lat="42.7482180" lon="-8.3421840">
        <ele>343.8</ele>
        <time>2019-08-18T08:48:25Z</time>
      </trkpt>
      <trkpt lat="42.7482330" lon="-8.3422420">
        <ele>343.8</ele>
        <time>2019-08-18T08:48:26Z</time>
      </trkpt>
      <trkpt lat="42.7482470" lon="-8.3423020">
        <ele>343.7</ele>
        <time>2019-08-18T08:48:27Z</time>
      </trkpt>
      <trkpt lat="42.7482590" lon="-8.3423630">
        <ele>343.7</ele>
        <time>2019-08-18T08:48:28Z</time>
      </trkpt>
      <trkpt lat="42.7482710" lon="-8.3424270">
        <ele>343.7</ele>
        <time>2019-08-18T08:48:29Z</time>
      </trkpt>
      <trkpt lat="42.7482820" lon="-8.3424930">
        <ele>343.6</ele>
        <time>2019-08-18T08:48:30Z</time>
      </trkpt>
      <trkpt lat="42.7482910" lon="-8.3425590">
        <ele>343.6</ele>
        <time>2019-08-18T08:48:31Z</time>
      </trkpt>
      <trkpt lat="42.7482990" lon="-8.3426270">
        <ele>343.6</ele>
        <time>2019-08-18T08:48:32Z</time>
      </trkpt>
      <trkpt lat="42.7483050" lon="-8.3426960">
        <ele>343.5</ele>
        <time>2019-08-18T08:48:33Z</time>
      </trkpt>
      <trkpt lat="42.7483090" lon="-8.3427660">
        <ele>342.9</ele>
        <time>2019-08-18T08:48:34Z</time>
      </trkpt>
      <trkpt lat="42.7483120" lon="-8.3428350">
        <ele>342.5</ele>
        <time>2019-08-18T08:48:35Z</time>
      </trkpt>
      <trkpt lat="42.7483130" lon="-8.3429050">
        <ele>341.8</ele>
        <time>2019-08-18T08:48:36Z</time>
      </trkpt>
      <trkpt lat="42.7483120" lon="-8.3429740">
        <ele>341.4</ele>
        <time>2019-08-18T08:48:37Z</time>
      </trkpt>
      <trkpt lat="42.7483090" lon="-8.3430430">
        <ele>340.9</ele>
        <time>2019-08-18T08:48:38Z</time>
      </trkpt>
      <trkpt lat="42.7483060" lon="-8.3431120">
        <ele>340.6</ele>
        <time>2019-08-18T08:48:39Z</time>
      </trkpt>
      <trkpt lat="42.7483020" lon="-8.3431800">
        <ele>340.3</ele>
        <time>2019-08-18T08:48:40Z</time>
      </trkpt>
      <trkpt lat="42.7482980" lon="-8.3432480">
        <ele>339.9</ele>
        <time>2019-08-18T08:48:41Z</time>
      </trkpt>
      <trkpt lat="42.7482940" lon="-8.3433170">
        <ele>339.6</ele>
        <time>2019-08-18T08:48:42Z</time>
      </trkpt>
      <trkpt lat="42.7482900" lon="-8.3433880">
        <ele>339.3</ele>
        <time>2019-08-18T08:48:43Z</time>
      </trkpt>
      <trkpt lat="42.7482840" lon="-8.3434640">
        <ele>339.0</ele>
        <time>2019-08-18T08:48:44Z</time>
      </trkpt>
      <trkpt lat="42.7482770" lon="-8.3435440">
        <ele>338.7</ele>
        <time>2019-08-18T08:48:45Z</time>
      </trkpt>
      <trkpt lat="42.7482700" lon="-8.3436270">
        <ele>338.3</ele>
        <time>2019-08-18T08:48:46Z</time>
      </trkpt>
      <trkpt lat="42.7482610" lon="-8.3437130">
        <ele>337.9</ele>
        <time>2019-08-18T08:48:47Z</time>
      </trkpt>
      <trkpt lat="42.7482530" lon="-8.3438020">
        <ele>337.4</ele>
        <time>2019-08-18T08:48:48Z</time>
      </trkpt>
      <trkpt lat="42.7482430" lon="-8.3438940">
        <ele>336.8</ele>
        <time>2019-08-18T08:48:49Z</time>
      </trkpt>
      <trkpt lat="42.7482270" lon="-8.3440510">
        <ele>336.1</ele>
        <time>2019-08-18T08:48:50Z</time>
      </trkpt>
      <trkpt lat="42.7482210" lon="-8.3441140">
        <ele>335.9</ele>
        <time>2019-08-18T08:48:51Z</time>
      </trkpt>
      <trkpt lat="42.7482140" lon="-8.3441780">
        <ele>335.6</ele>
        <time>2019-08-18T08:48:52Z</time>
      </trkpt>
      <trkpt lat="42.7482050" lon="-8.3442760">
        <ele>335.3</ele>
        <time>2019-08-18T08:48:53Z</time>
      </trkpt>
      <trkpt lat="42.7481960" lon="-8.3443750">
        <ele>335.0</ele>
        <time>2019-08-18T08:48:54Z</time>
      </trkpt>
      <trkpt lat="42.7481840" lon="-8.3445440">
        <ele>334.5</ele>
        <time>2019-08-18T08:48:55Z</time>
      </trkpt>
      <trkpt lat="42.7481800" lon="-8.3446130">
        <ele>334.3</ele>
        <time>2019-08-18T08:48:56Z</time>
      </trkpt>
      <trkpt lat="42.7481760" lon="-8.3446820">
        <ele>334.1</ele>
        <time>2019-08-18T08:48:57Z</time>
      </trkpt>
      <trkpt lat="42.7481730" lon="-8.3447890">
        <ele>333.9</ele>
        <time>2019-08-18T08:48:58Z</time>
      </trkpt>
      <trkpt lat="42.7481720" lon="-8.3448970">
        <ele>333.7</ele>
        <time>2019-08-18T08:48:59Z</time>
      </trkpt>
      <trkpt lat="42.7481750" lon="-8.3450630">
        <ele>333.3</ele>
        <time>2019-08-18T08:49:00Z</time>
      </trkpt>
      <trkpt lat="42.7481770" lon="-8.3451190">
        <ele>333.2</ele>
        <time>2019-08-18T08:49:01Z</time>
      </trkpt>
      <trkpt lat="42.7481840" lon="-8.3452310">
        <ele>332.8</ele>
        <time>2019-08-18T08:49:02Z</time>
      </trkpt>
      <trkpt lat="42.7481940" lon="-8.3453430">
        <ele>332.5</ele>
        <time>2019-08-18T08:49:03Z</time>
      </trkpt>
      <trkpt lat="42.7482080" lon="-8.3454540">
        <ele>332.2</ele>
        <time>2019-08-18T08:49:04Z</time>
      </trkpt>
      <trkpt lat="42.7482250" lon="-8.3455640">
        <ele>332.0</ele>
        <time>2019-08-18T08:49:05Z</time>
      </trkpt>
      <trkpt lat="42.7482460" lon="-8.3456720">
        <ele>331.7</ele>
        <time>2019-08-18T08:49:06Z</time>
      </trkpt>
      <trkpt lat="42.7482720" lon="-8.3457780">
        <ele>331.5</ele>
        <time>2019-08-18T08:49:07Z</time>
      </trkpt>
      <trkpt lat="42.7483010" lon="-8.3458810">
        <ele>331.2</ele>
        <time>2019-08-18T08:49:08Z</time>
      </trkpt>
      <trkpt lat="42.7483340" lon="-8.3459810">
        <ele>330.9</ele>
        <time>2019-08-18T08:49:09Z</time>
      </trkpt>
      <trkpt lat="42.7483690" lon="-8.3460790">
        <ele>330.6</ele>
        <time>2019-08-18T08:49:10Z</time>
      </trkpt>
      <trkpt lat="42.7484070" lon="-8.3461730">
        <ele>330.3</ele>
        <time>2019-08-18T08:49:11Z</time>
      </trkpt>
      <trkpt lat="42.7484470" lon="-8.3462650">
        <ele>330.1</ele>
        <time>2019-08-18T08:49:12Z</time>
      </trkpt>
      <trkpt lat="42.7484880" lon="-8.3463530">
        <ele>330.1</ele>
        <time>2019-08-18T08:49:13Z</time>
      </trkpt>
      <trkpt lat="42.7485310" lon="-8.3464370">
        <ele>330.1</ele>
        <time>2019-08-18T08:49:14Z</time>
      </trkpt>
      <trkpt lat="42.7485740" lon="-8.3465190">
        <ele>330.1</ele>
        <time>2019-08-18T08:49:15Z</time>
      </trkpt>
      <trkpt lat="42.7486180" lon="-8.3465970">
        <ele>330.1</ele>
        <time>2019-08-18T08:49:16Z</time>
      </trkpt>
      <trkpt lat="42.7486610" lon="-8.3466730">
        <ele>330.1</ele>
        <time>2019-08-18T08:49:17Z</time>
      </trkpt>
      <trkpt lat="42.7487050" lon="-8.3467460">
        <ele>330.1</ele>
        <time>2019-08-18T08:49:18Z</time>
      </trkpt>
      <trkpt lat="42.7487490" lon="-8.3468170">
        <ele>330.1</ele>
        <time>2019-08-18T08:49:19Z</time>
      </trkpt>
      <trkpt lat="42.7487910" lon="-8.3468850">
        <ele>330.1</ele>
        <time>2019-08-18T08:49:20Z</time>
      </trkpt>
      <trkpt lat="42.7488330" lon="-8.3469520">
        <ele>330.2</ele>
        <time>2019-08-18T08:49:21Z</time>
      </trkpt>
      <trkpt lat="42.7488740" lon="-8.3470170">
        <ele>330.2</ele>
        <time>2019-08-18T08:49:22Z</time>
      </trkpt>
      <trkpt lat="42.7489140" lon="-8.3470790">
        <ele>330.2</ele>
        <time>2019-08-18T08:49:23Z</time>
      </trkpt>
      <trkpt lat="42.7489530" lon="-8.3471410">
        <ele>330.2</ele>
        <time>2019-08-18T08:49:24Z</time>
      </trkpt>
      <trkpt lat="42.7489920" lon="-8.3472010">
        <ele>330.4</ele>
        <time>2019-08-18T08:49:25Z</time>
      </trkpt>
      <trkpt lat="42.7490290" lon="-8.3472590">
        <ele>330.6</ele>
        <time>2019-08-18T08:49:26Z</time>
      </trkpt>
      <trkpt lat="42.7490660" lon="-8.3473160">
        <ele>330.8</ele>
        <time>2019-08-18T08:49:27Z</time>
      </trkpt>
      <trkpt lat="42.7491190" lon="-8.3473990">
        <ele>331.1</ele>
        <time>2019-08-18T08:49:28Z</time>
      </trkpt>
      <trkpt lat="42.7491360" lon="-8.3474260">
        <ele>331.2</ele>
        <time>2019-08-18T08:49:29Z</time>
      </trkpt>
      <trkpt lat="42.7491710" lon="-8.3474790">
        <ele>331.4</ele>
        <time>2019-08-18T08:49:30Z</time>
      </trkpt>
      <trkpt lat="42.7492050" lon="-8.3475310">
        <ele>331.6</ele>
        <time>2019-08-18T08:49:31Z</time>
      </trkpt>
      <trkpt lat="42.7492380" lon="-8.3475820">
        <ele>331.9</ele>
        <time>2019-08-18T08:49:32Z</time>
      </trkpt>
      <trkpt lat="42.7492710" lon="-8.3476320">
        <ele>332.1</ele>
        <time>2019-08-18T08:49:33Z</time>
      </trkpt>
      <trkpt lat="42.7493040" lon="-8.3476810">
        <ele>332.3</ele>
        <time>2019-08-18T08:49:34Z</time>
      </trkpt>
      <trkpt lat="42.7493370" lon="-8.3477300">
        <ele>332.6</ele>
        <time>2019-08-18T08:49:35Z</time>
      </trkpt>
      <trkpt lat="42.7493700" lon="-8.3477780">
        <ele>332.9</ele>
        <time>2019-08-18T08:49:36Z</time>
      </trkpt>
      <trkpt lat="42.7494030" lon="-8.3478260">
        <ele>333.2</ele>
        <time>2019-08-18T08:49:37Z</time>
      </trkpt>
      <trkpt lat="42.7494350" lon="-8.3478730">
        <ele>333.5</ele>
        <time>2019-08-18T08:49:38Z</time>
      </trkpt>
      <trkpt lat="42.7494680" lon="-8.3479210">
        <ele>333.8</ele>
        <time>2019-08-18T08:49:39Z</time>
      </trkpt>
      <trkpt lat="42.7495000" lon="-8.3479680">
        <ele>334.1</ele>
        <time>2019-08-18T08:49:40Z</time>
      </trkpt>
      <trkpt lat="42.7495330" lon="-8.3480150">
        <ele>334.4</ele>
        <time>2019-08-18T08:49:41Z</time>
      </trkpt>
      <trkpt lat="42.7495650" lon="-8.3480630">
        <ele>334.7</ele>
        <time>2019-08-18T08:49:42Z</time>
      </trkpt>
      <trkpt lat="42.7495960" lon="-8.3481100">
        <ele>335.0</ele>
        <time>2019-08-18T08:49:43Z</time>
      </trkpt>
      <trkpt lat="42.7496280" lon="-8.3481590">
        <ele>335.3</ele>
        <time>2019-08-18T08:49:44Z</time>
      </trkpt>
      <trkpt lat="42.7496590" lon="-8.3482070">
        <ele>335.5</ele>
        <time>2019-08-18T08:49:45Z</time>
      </trkpt>
      <trkpt lat="42.7496900" lon="-8.3482550">
        <ele>335.7</ele>
        <time>2019-08-18T08:49:46Z</time>
      </trkpt>
      <trkpt lat="42.7497210" lon="-8.3483040">
        <ele>336.0</ele>
        <time>2019-08-18T08:49:47Z</time>
      </trkpt>
      <trkpt lat="42.7497520" lon="-8.3483530">
        <ele>336.2</ele>
        <time>2019-08-18T08:49:48Z</time>
      </trkpt>
      <trkpt lat="42.7497820" lon="-8.3484020">
        <ele>336.4</ele>
        <time>2019-08-18T08:49:49Z</time>
      </trkpt>
      <trkpt lat="42.7498120" lon="-8.3484510">
        <ele>336.6</ele>
        <time>2019-08-18T08:49:50Z</time>
      </trkpt>
      <trkpt lat="42.7498430" lon="-8.3485000">
        <ele>336.8</ele>
        <time>2019-08-18T08:49:51Z</time>
      </trkpt>
      <trkpt lat="42.7498730" lon="-8.3485480">
        <ele>337.0</ele>
        <time>2019-08-18T08:49:52Z</time>
      </trkpt>
      <trkpt lat="42.7499030" lon="-8.3485970">
        <ele>337.2</ele>
        <time>2019-08-18T08:49:53Z</time>
      </trkpt>
      <trkpt lat="42.7499330" lon="-8.3486450">
        <ele>337.3</ele>
        <time>2019-08-18T08:49:54Z</time>
      </trkpt>
      <trkpt lat="42.7499630" lon="-8.3486930">
        <ele>337.5</ele>
        <time>2019-08-18T08:49:55Z</time>
      </trkpt>
      <trkpt lat="42.7499930" lon="-8.3487410">
        <ele>337.7</ele>
        <time>2019-08-18T08:49:56Z</time>
      </trkpt>
      <trkpt lat="42.7500230" lon="-8.3487880">
        <ele>337.5</ele>
        <time>2019-08-18T08:49:57Z</time>
      </trkpt>
      <trkpt lat="42.7500530" lon="-8.3488350">
        <ele>337.3</ele>
        <time>2019-08-18T08:49:58Z</time>
      </trkpt>
      <trkpt lat="42.7500830" lon="-8.3488820">
        <ele>337.1</ele>
        <time>2019-08-18T08:49:59Z</time>
      </trkpt>
      <trkpt lat="42.7501130" lon="-8.3489280">
        <ele>336.9</ele>
        <time>2019-08-18T08:50:00Z</time>
      </trkpt>
      <trkpt lat="42.7501430" lon="-8.3489750">
        <ele>336.7</ele>
        <time>2019-08-18T08:50:01Z</time>
      </trkpt>
      <trkpt lat="42.7501720" lon="-8.3490210">
        <ele>336.5</ele>
        <time>2019-08-18T08:50:02Z</time>
      </trkpt>
      <trkpt lat="42.7502010" lon="-8.3490680">
        <ele>336.3</ele>
        <time>2019-08-18T08:50:03Z</time>
      </trkpt>
      <trkpt lat="42.7502300" lon="-8.3491140">
        <ele>336.1</ele>
        <time>2019-08-18T08:50:04Z</time>
      </trkpt>
      <trkpt lat="42.7502580" lon="-8.3491610">
        <ele>335.8</ele>
        <time>2019-08-18T08:50:05Z</time>
      </trkpt>
      <trkpt lat="42.7502860" lon="-8.3492090">
        <ele>335.4</ele>
        <time>2019-08-18T08:50:06Z</time>
      </trkpt>
      <trkpt lat="42.7503130" lon="-8.3492570">
        <ele>335.0</ele>
        <time>2019-08-18T08:50:07Z</time>
      </trkpt>
      <trkpt lat="42.7503410" lon="-8.3493060">
        <ele>334.6</ele>
        <time>2019-08-18T08:50:08Z</time>
      </trkpt>
      <trkpt lat="42.7503690" lon="-8.3493550">
        <ele>334.1</ele>
        <time>2019-08-18T08:50:09Z</time>
      </trkpt>
      <trkpt lat="42.7503980" lon="-8.3494070">
        <ele>333.6</ele>
        <time>2019-08-18T08:50:10Z</time>
      </trkpt>
      <trkpt lat="42.7504270" lon="-8.3494590">
        <ele>333.1</ele>
        <time>2019-08-18T08:50:11Z</time>
      </trkpt>
      <trkpt lat="42.7504580" lon="-8.3495130">
        <ele>332.6</ele>
        <time>2019-08-18T08:50:12Z</time>
      </trkpt>
      <trkpt lat="42.7504890" lon="-8.3495690">
        <ele>332.1</ele>
        <time>2019-08-18T08:50:13Z</time>
      </trkpt>
      <trkpt lat="42.7505210" lon="-8.3496270">
        <ele>331.6</ele>
        <time>2019-08-18T08:50:14Z</time>
      </trkpt>
      <trkpt lat="42.7505540" lon="-8.3496850">
        <ele>331.1</ele>
        <time>2019-08-18T08:50:15Z</time>
      </trkpt>
      <trkpt lat="42.7505870" lon="-8.3497460">
        <ele>330.7</ele>
        <time>2019-08-18T08:50:16Z</time>
      </trkpt>
      <trkpt lat="42.7506220" lon="-8.3498080">
        <ele>330.3</ele>
        <time>2019-08-18T08:50:17Z</time>
      </trkpt>
      <trkpt lat="42.7506570" lon="-8.3498710">
        <ele>329.9</ele>
        <time>2019-08-18T08:50:18Z</time>
      </trkpt>
      <trkpt lat="42.7506930" lon="-8.3499350">
        <ele>329.5</ele>
        <time>2019-08-18T08:50:19Z</time>
      </trkpt>
      <trkpt lat="42.7507300" lon="-8.3500010">
        <ele>329.0</ele>
        <time>2019-08-18T08:50:20Z</time>
      </trkpt>
      <trkpt lat="42.7507670" lon="-8.3500680">
        <ele>328.6</ele>
        <time>2019-08-18T08:50:21Z</time>
      </trkpt>
      <trkpt lat="42.7508050" lon="-8.3501350">
        <ele>328.2</ele>
        <time>2019-08-18T08:50:22Z</time>
      </trkpt>
      <trkpt lat="42.7508430" lon="-8.3502030">
        <ele>327.8</ele>
        <time>2019-08-18T08:50:23Z</time>
      </trkpt>
      <trkpt lat="42.7508810" lon="-8.3502720">
        <ele>327.4</ele>
        <time>2019-08-18T08:50:24Z</time>
      </trkpt>
      <trkpt lat="42.7509200" lon="-8.3503410">
        <ele>327.1</ele>
        <time>2019-08-18T08:50:25Z</time>
      </trkpt>
      <trkpt lat="42.7509590" lon="-8.3504110">
        <ele>326.7</ele>
        <time>2019-08-18T08:50:26Z</time>
      </trkpt>
      <trkpt lat="42.7509970" lon="-8.3504800">
        <ele>326.2</ele>
        <time>2019-08-18T08:50:27Z</time>
      </trkpt>
      <trkpt lat="42.7510360" lon="-8.3505500">
        <ele>325.3</ele>
        <time>2019-08-18T08:50:28Z</time>
      </trkpt>
      <trkpt lat="42.7510750" lon="-8.3506200">
        <ele>325.4</ele>
        <time>2019-08-18T08:50:29Z</time>
      </trkpt>
      <trkpt lat="42.7511130" lon="-8.3506900">
        <ele>325.4</ele>
        <time>2019-08-18T08:50:30Z</time>
      </trkpt>
      <trkpt lat="42.7511520" lon="-8.3507610">
        <ele>325.5</ele>
        <time>2019-08-18T08:50:31Z</time>
      </trkpt>
      <trkpt lat="42.7511910" lon="-8.3508320">
        <ele>325.5</ele>
        <time>2019-08-18T08:50:32Z</time>
      </trkpt>
      <trkpt lat="42.7512290" lon="-8.3509020">
        <ele>325.6</ele>
        <time>2019-08-18T08:50:33Z</time>
      </trkpt>
      <trkpt lat="42.7512680" lon="-8.3509740">
        <ele>325.7</ele>
        <time>2019-08-18T08:50:34Z</time>
      </trkpt>
      <trkpt lat="42.7513060" lon="-8.3510450">
        <ele>325.6</ele>
        <time>2019-08-18T08:50:35Z</time>
      </trkpt>
      <trkpt lat="42.7513450" lon="-8.3511170">
        <ele>325.6</ele>
        <time>2019-08-18T08:50:36Z</time>
      </trkpt>
      <trkpt lat="42.7513830" lon="-8.3511880">
        <ele>325.6</ele>
        <time>2019-08-18T08:50:37Z</time>
      </trkpt>
      <trkpt lat="42.7514220" lon="-8.3512600">
        <ele>325.5</ele>
        <time>2019-08-18T08:50:38Z</time>
      </trkpt>
      <trkpt lat="42.7514610" lon="-8.3513320">
        <ele>325.4</ele>
        <time>2019-08-18T08:50:39Z</time>
      </trkpt>
      <trkpt lat="42.7515000" lon="-8.3514040">
        <ele>325.4</ele>
        <time>2019-08-18T08:50:40Z</time>
      </trkpt>
      <trkpt lat="42.7515390" lon="-8.3514750">
        <ele>325.3</ele>
        <time>2019-08-18T08:50:41Z</time>
      </trkpt>
      <trkpt lat="42.7515780" lon="-8.3515470">
        <ele>325.2</ele>
        <time>2019-08-18T08:50:42Z</time>
      </trkpt>
      <trkpt lat="42.7516170" lon="-8.3516190">
        <ele>325.1</ele>
        <time>2019-08-18T08:50:43Z</time>
      </trkpt>
      <trkpt lat="42.7516570" lon="-8.3516900">
        <ele>325.1</ele>
        <time>2019-08-18T08:50:44Z</time>
      </trkpt>
      <trkpt lat="42.7516960" lon="-8.3517620">
        <ele>325.0</ele>
        <time>2019-08-18T08:50:45Z</time>
      </trkpt>
      <trkpt lat="42.7517350" lon="-8.3518340">
        <ele>325.0</ele>
        <time>2019-08-18T08:50:46Z</time>
      </trkpt>
      <trkpt lat="42.7517750" lon="-8.3519060">
        <ele>324.9</ele>
        <time>2019-08-18T08:50:47Z</time>
      </trkpt>
      <trkpt lat="42.7518140" lon="-8.3519780">
        <ele>324.9</ele>
        <time>2019-08-18T08:50:48Z</time>
      </trkpt>
      <trkpt lat="42.7518530" lon="-8.3520500">
        <ele>324.8</ele>
        <time>2019-08-18T08:50:49Z</time>
      </trkpt>
      <trkpt lat="42.7518920" lon="-8.3521220">
        <ele>324.7</ele>
        <time>2019-08-18T08:50:50Z</time>
      </trkpt>
      <trkpt lat="42.7519310" lon="-8.3521940">
        <ele>324.6</ele>
        <time>2019-08-18T08:50:51Z</time>
      </trkpt>
      <trkpt lat="42.7519710" lon="-8.3522670">
        <ele>324.4</ele>
        <time>2019-08-18T08:50:52Z</time>
      </trkpt>
      <trkpt lat="42.7520110" lon="-8.3523380">
        <ele>324.3</ele>
        <time>2019-08-18T08:50:53Z</time>
      </trkpt>
      <trkpt lat="42.7520510" lon="-8.3524100">
        <ele>324.3</ele>
        <time>2019-08-18T08:50:54Z</time>
      </trkpt>
      <trkpt lat="42.7520930" lon="-8.3524810">
        <ele>324.2</ele>
        <time>2019-08-18T08:50:55Z</time>
      </trkpt>
      <trkpt lat="42.7521350" lon="-8.3525520">
        <ele>324.1</ele>
        <time>2019-08-18T08:50:56Z</time>
      </trkpt>
      <trkpt lat="42.7521780" lon="-8.3526220">
        <ele>324.1</ele>
        <time>2019-08-18T08:50:57Z</time>
      </trkpt>
      <trkpt lat="42.7522220" lon="-8.3526910">
        <ele>324.1</ele>
        <time>2019-08-18T08:50:58Z</time>
      </trkpt>
      <trkpt lat="42.7522670" lon="-8.3527590">
        <ele>324.0</ele>
        <time>2019-08-18T08:50:59Z</time>
      </trkpt>
      <trkpt lat="42.7523140" lon="-8.3528250">
        <ele>324.0</ele>
        <time>2019-08-18T08:51:00Z</time>
      </trkpt>
      <trkpt lat="42.7523610" lon="-8.3528890">
        <ele>323.9</ele>
        <time>2019-08-18T08:51:01Z</time>
      </trkpt>
      <trkpt lat="42.7524100" lon="-8.3529510">
        <ele>323.9</ele>
        <time>2019-08-18T08:51:02Z</time>
      </trkpt>
      <trkpt lat="42.7524600" lon="-8.3530110">
        <ele>323.8</ele>
        <time>2019-08-18T08:51:03Z</time>
      </trkpt>
      <trkpt lat="42.7525110" lon="-8.3530680">
        <ele>323.7</ele>
        <time>2019-08-18T08:51:04Z</time>
      </trkpt>
      <trkpt lat="42.7525640" lon="-8.3531220">
        <ele>323.6</ele>
        <time>2019-08-18T08:51:05Z</time>
      </trkpt>
      <trkpt lat="42.7526170" lon="-8.3531740">
        <ele>323.5</ele>
        <time>2019-08-18T08:51:06Z</time>
      </trkpt>
      <trkpt lat="42.7526720" lon="-8.3532240">
        <ele>323.5</ele>
        <time>2019-08-18T08:51:07Z</time>
      </trkpt>
      <trkpt lat="42.7527270" lon="-8.3532720">
        <ele>323.5</ele>
        <time>2019-08-18T08:51:08Z</time>
      </trkpt>
      <trkpt lat="42.7527830" lon="-8.3533170">
        <ele>323.5</ele>
        <time>2019-08-18T08:51:09Z</time>
      </trkpt>
      <trkpt lat="42.7528400" lon="-8.3533600">
        <ele>323.6</ele>
        <time>2019-08-18T08:51:10Z</time>
      </trkpt>
      <trkpt lat="42.7528970" lon="-8.3534020">
        <ele>323.3</ele>
        <time>2019-08-18T08:51:11Z</time>
      </trkpt>
      <trkpt lat="42.7529540" lon="-8.3534420">
        <ele>323.0</ele>
        <time>2019-08-18T08:51:12Z</time>
      </trkpt>
      <trkpt lat="42.7530130" lon="-8.3534800">
        <ele>322.7</ele>
        <time>2019-08-18T08:51:13Z</time>
      </trkpt>
      <trkpt lat="42.7530710" lon="-8.3535170">
        <ele>322.4</ele>
        <time>2019-08-18T08:51:14Z</time>
      </trkpt>
      <trkpt lat="42.7531310" lon="-8.3535540">
        <ele>322.2</ele>
        <time>2019-08-18T08:51:15Z</time>
      </trkpt>
      <trkpt lat="42.7531910" lon="-8.3535900">
        <ele>322.0</ele>
        <time>2019-08-18T08:51:16Z</time>
      </trkpt>
      <trkpt lat="42.7532520" lon="-8.3536250">
        <ele>321.9</ele>
        <time>2019-08-18T08:51:17Z</time>
      </trkpt>
      <trkpt lat="42.7533140" lon="-8.3536600">
        <ele>321.7</ele>
        <time>2019-08-18T08:51:18Z</time>
      </trkpt>
      <trkpt lat="42.7533760" lon="-8.3536960">
        <ele>321.6</ele>
        <time>2019-08-18T08:51:19Z</time>
      </trkpt>
      <trkpt lat="42.7534390" lon="-8.3537310">
        <ele>321.4</ele>
        <time>2019-08-18T08:51:20Z</time>
      </trkpt>
      <trkpt lat="42.7535020" lon="-8.3537660">
        <ele>321.3</ele>
        <time>2019-08-18T08:51:21Z</time>
      </trkpt>
      <trkpt lat="42.7535650" lon="-8.3538020">
        <ele>321.2</ele>
        <time>2019-08-18T08:51:22Z</time>
      </trkpt>
      <trkpt lat="42.7536280" lon="-8.3538380">
        <ele>321.1</ele>
        <time>2019-08-18T08:51:23Z</time>
      </trkpt>
      <trkpt lat="42.7536910" lon="-8.3538750">
        <ele>321.0</ele>
        <time>2019-08-18T08:51:24Z</time>
      </trkpt>
      <trkpt lat="42.7537530" lon="-8.3539120">
        <ele>320.9</ele>
        <time>2019-08-18T08:51:25Z</time>
      </trkpt>
      <trkpt lat="42.7538140" lon="-8.3539490">
        <ele>320.9</ele>
        <time>2019-08-18T08:51:26Z</time>
      </trkpt>
      <trkpt lat="42.7538740" lon="-8.3539880">
        <ele>320.9</ele>
        <time>2019-08-18T08:51:27Z</time>
      </trkpt>
      <trkpt lat="42.7539340" lon="-8.3540260">
        <ele>320.9</ele>
        <time>2019-08-18T08:51:28Z</time>
      </trkpt>
      <trkpt lat="42.7539920" lon="-8.3540660">
        <ele>321.0</ele>
        <time>2019-08-18T08:51:29Z</time>
      </trkpt>
      <trkpt lat="42.7540500" lon="-8.3541060">
        <ele>321.0</ele>
        <time>2019-08-18T08:51:30Z</time>
      </trkpt>
      <trkpt lat="42.7541060" lon="-8.3541470">
        <ele>321.1</ele>
        <time>2019-08-18T08:51:31Z</time>
      </trkpt>
      <trkpt lat="42.7541620" lon="-8.3541880">
        <ele>321.3</ele>
        <time>2019-08-18T08:51:32Z</time>
      </trkpt>
      <trkpt lat="42.7542160" lon="-8.3542300">
        <ele>321.4</ele>
        <time>2019-08-18T08:51:33Z</time>
      </trkpt>
      <trkpt lat="42.7542690" lon="-8.3542720">
        <ele>321.6</ele>
        <time>2019-08-18T08:51:34Z</time>
      </trkpt>
      <trkpt lat="42.7543200" lon="-8.3543160">
        <ele>321.7</ele>
        <time>2019-08-18T08:51:35Z</time>
      </trkpt>
      <trkpt lat="42.7543700" lon="-8.3543600">
        <ele>321.9</ele>
        <time>2019-08-18T08:51:36Z</time>
      </trkpt>
      <trkpt lat="42.7544190" lon="-8.3544050">
        <ele>322.1</ele>
        <time>2019-08-18T08:51:37Z</time>
      </trkpt>
      <trkpt lat="42.7544650" lon="-8.3544500">
        <ele>322.2</ele>
        <time>2019-08-18T08:51:38Z</time>
      </trkpt>
      <trkpt lat="42.7545110" lon="-8.3544960">
        <ele>322.3</ele>
        <time>2019-08-18T08:51:39Z</time>
      </trkpt>
      <trkpt lat="42.7545540" lon="-8.3545430">
        <ele>322.5</ele>
        <time>2019-08-18T08:51:40Z</time>
      </trkpt>
      <trkpt lat="42.7545960" lon="-8.3545910">
        <ele>322.6</ele>
        <time>2019-08-18T08:51:41Z</time>
      </trkpt>
      <trkpt lat="42.7546360" lon="-8.3546390">
        <ele>322.7</ele>
        <time>2019-08-18T08:51:42Z</time>
      </trkpt>
      <trkpt lat="42.7546750" lon="-8.3546890">
        <ele>322.8</ele>
        <time>2019-08-18T08:51:43Z</time>
      </trkpt>
      <trkpt lat="42.7547120" lon="-8.3547390">
        <ele>322.9</ele>
        <time>2019-08-18T08:51:44Z</time>
      </trkpt>
      <trkpt lat="42.7547480" lon="-8.3547900">
        <ele>323.0</ele>
        <time>2019-08-18T08:51:45Z</time>
      </trkpt>
      <trkpt lat="42.7547820" lon="-8.3548410">
        <ele>323.1</ele>
        <time>2019-08-18T08:51:46Z</time>
      </trkpt>
      <trkpt lat="42.7548160" lon="-8.3548940">
        <ele>323.1</ele>
        <time>2019-08-18T08:51:47Z</time>
      </trkpt>
      <trkpt lat="42.7548480" lon="-8.3549470">
        <ele>323.2</ele>
        <time>2019-08-18T08:51:48Z</time>
      </trkpt>
      <trkpt lat="42.7548790" lon="-8.3550010">
        <ele>323.2</ele>
        <time>2019-08-18T08:51:49Z</time>
      </trkpt>
      <trkpt lat="42.7549100" lon="-8.3550560">
        <ele>323.3</ele>
        <time>2019-08-18T08:51:50Z</time>
      </trkpt>
      <trkpt lat="42.7549390" lon="-8.3551110">
        <ele>323.3</ele>
        <time>2019-08-18T08:51:51Z</time>
      </trkpt>
      <trkpt lat="42.7549680" lon="-8.3551680">
        <ele>323.3</ele>
        <time>2019-08-18T08:51:52Z</time>
      </trkpt>
      <trkpt lat="42.7549960" lon="-8.3552250">
        <ele>323.3</ele>
        <time>2019-08-18T08:51:53Z</time>
      </trkpt>
      <trkpt lat="42.7550230" lon="-8.3552840">
        <ele>323.4</ele>
        <time>2019-08-18T08:51:54Z</time>
      </trkpt>
      <trkpt lat="42.7550500" lon="-8.3553430">
        <ele>323.4</ele>
        <time>2019-08-18T08:51:55Z</time>
      </trkpt>
      <trkpt lat="42.7550750" lon="-8.3554030">
        <ele>323.4</ele>
        <time>2019-08-18T08:51:56Z</time>
      </trkpt>
      <trkpt lat="42.7551000" lon="-8.3554640">
        <ele>323.2</ele>
        <time>2019-08-18T08:51:57Z</time>
      </trkpt>
      <trkpt lat="42.7551250" lon="-8.3555270">
        <ele>323.1</ele>
        <time>2019-08-18T08:51:58Z</time>
      </trkpt>
      <trkpt lat="42.7551480" lon="-8.3555910">
        <ele>322.9</ele>
        <time>2019-08-18T08:51:59Z</time>
      </trkpt>
      <trkpt lat="42.7551700" lon="-8.3556560">
        <ele>322.7</ele>
        <time>2019-08-18T08:52:00Z</time>
      </trkpt>
      <trkpt lat="42.7551910" lon="-8.3557230">
        <ele>322.5</ele>
        <time>2019-08-18T08:52:01Z</time>
      </trkpt>
      <trkpt lat="42.7552110" lon="-8.3557910">
        <ele>322.3</ele>
        <time>2019-08-18T08:52:02Z</time>
      </trkpt>
      <trkpt lat="42.7552310" lon="-8.3558610">
        <ele>322.0</ele>
        <time>2019-08-18T08:52:03Z</time>
      </trkpt>
      <trkpt lat="42.7552490" lon="-8.3559320">
        <ele>321.7</ele>
        <time>2019-08-18T08:52:04Z</time>
      </trkpt>
      <trkpt lat="42.7552650" lon="-8.3560040">
        <ele>321.4</ele>
        <time>2019-08-18T08:52:05Z</time>
      </trkpt>
      <trkpt lat="42.7552810" lon="-8.3560760">
        <ele>321.1</ele>
        <time>2019-08-18T08:52:06Z</time>
      </trkpt>
      <trkpt lat="42.7552960" lon="-8.3561490">
        <ele>320.9</ele>
        <time>2019-08-18T08:52:07Z</time>
      </trkpt>
      <trkpt lat="42.7553100" lon="-8.3562210">
        <ele>320.6</ele>
        <time>2019-08-18T08:52:08Z</time>
      </trkpt>
      <trkpt lat="42.7553230" lon="-8.3562940">
        <ele>320.2</ele>
        <time>2019-08-18T08:52:09Z</time>
      </trkpt>
      <trkpt lat="42.7553340" lon="-8.3563670">
        <ele>319.9</ele>
        <time>2019-08-18T08:52:10Z</time>
      </trkpt>
      <trkpt lat="42.7553460" lon="-8.3564400">
        <ele>319.6</ele>
        <time>2019-08-18T08:52:11Z</time>
      </trkpt>
      <trkpt lat="42.7553570" lon="-8.3565140">
        <ele>319.3</ele>
        <time>2019-08-18T08:52:12Z</time>
      </trkpt>
      <trkpt lat="42.7553680" lon="-8.3565890">
        <ele>319.0</ele>
        <time>2019-08-18T08:52:13Z</time>
      </trkpt>
      <trkpt lat="42.7553790" lon="-8.3566660">
        <ele>318.6</ele>
        <time>2019-08-18T08:52:14Z</time>
      </trkpt>
      <trkpt lat="42.7553910" lon="-8.3567450">
        <ele>318.3</ele>
        <time>2019-08-18T08:52:15Z</time>
      </trkpt>
      <trkpt lat="42.7554030" lon="-8.3568270">
        <ele>318.0</ele>
        <time>2019-08-18T08:52:16Z</time>
      </trkpt>
      <trkpt lat="42.7554170" lon="-8.3569100">
        <ele>317.6</ele>
        <time>2019-08-18T08:52:17Z</time>
      </trkpt>
      <trkpt lat="42.7554300" lon="-8.3569960">
        <ele>317.3</ele>
        <time>2019-08-18T08:52:18Z</time>
      </trkpt>
      <trkpt lat="42.7554450" lon="-8.3570850">
        <ele>316.9</ele>
        <time>2019-08-18T08:52:19Z</time>
      </trkpt>
      <trkpt lat="42.7554600" lon="-8.3571760">
        <ele>316.6</ele>
        <time>2019-08-18T08:52:20Z</time>
      </trkpt>
      <trkpt lat="42.7554750" lon="-8.3572690">
        <ele>316.2</ele>
        <time>2019-08-18T08:52:21Z</time>
      </trkpt>
      <trkpt lat="42.7554910" lon="-8.3573660">
        <ele>315.9</ele>
        <time>2019-08-18T08:52:22Z</time>
      </trkpt>
      <trkpt lat="42.7555070" lon="-8.3574650">
        <ele>315.6</ele>
        <time>2019-08-18T08:52:23Z</time>
      </trkpt>
      <trkpt lat="42.7555240" lon="-8.3575670">
        <ele>315.2</ele>
        <time>2019-08-18T08:52:24Z</time>
      </trkpt>
      <trkpt lat="42.7555400" lon="-8.3576710">
        <ele>314.9</ele>
        <time>2019-08-18T08:52:25Z</time>
      </trkpt>
      <trkpt lat="42.7555570" lon="-8.3577760">
        <ele>314.7</ele>
        <time>2019-08-18T08:52:26Z</time>
      </trkpt>
      <trkpt lat="42.7555740" lon="-8.3578830">
        <ele>314.4</ele>
        <time>2019-08-18T08:52:27Z</time>
      </trkpt>
      <trkpt lat="42.7555910" lon="-8.3579910">
        <ele>314.1</ele>
        <time>2019-08-18T08:52:28Z</time>
      </trkpt>
      <trkpt lat="42.7556090" lon="-8.3580990">
        <ele>313.8</ele>
        <time>2019-08-18T08:52:29Z</time>
      </trkpt>
      <trkpt lat="42.7556260" lon="-8.3582080">
        <ele>313.6</ele>
        <time>2019-08-18T08:52:30Z</time>
      </trkpt>
      <trkpt lat="42.7556430" lon="-8.3583170">
        <ele>313.4</ele>
        <time>2019-08-18T08:52:31Z</time>
      </trkpt>
      <trkpt lat="42.7556610" lon="-8.3584250">
        <ele>313.2</ele>
        <time>2019-08-18T08:52:32Z</time>
      </trkpt>
      <trkpt lat="42.7556780" lon="-8.3585330">
        <ele>312.9</ele>
        <time>2019-08-18T08:52:33Z</time>
      </trkpt>
      <trkpt lat="42.7556950" lon="-8.3586390">
        <ele>312.7</ele>
        <time>2019-08-18T08:52:34Z</time>
      </trkpt>
      <trkpt lat="42.7557120" lon="-8.3587440">
        <ele>312.5</ele>
        <time>2019-08-18T08:52:35Z</time>
      </trkpt>
      <trkpt lat="42.7557290" lon="-8.3588470">
        <ele>312.2</ele>
        <time>2019-08-18T08:52:36Z</time>
      </trkpt>
      <trkpt lat="42.7557460" lon="-8.3589480">
        <ele>311.9</ele>
        <time>2019-08-18T08:52:37Z</time>
      </trkpt>
      <trkpt lat="42.7557620" lon="-8.3590460">
        <ele>311.6</ele>
        <time>2019-08-18T08:52:38Z</time>
      </trkpt>
      <trkpt lat="42.7557780" lon="-8.3591420">
        <ele>311.3</ele>
        <time>2019-08-18T08:52:39Z</time>
      </trkpt>
      <trkpt lat="42.7557940" lon="-8.3592350">
        <ele>311.1</ele>
        <time>2019-08-18T08:52:40Z</time>
      </trkpt>
      <trkpt lat="42.7558100" lon="-8.3593260">
        <ele>310.9</ele>
        <time>2019-08-18T08:52:41Z</time>
      </trkpt>
      <trkpt lat="42.7558260" lon="-8.3594150">
        <ele>310.8</ele>
        <time>2019-08-18T08:52:42Z</time>
      </trkpt>
      <trkpt lat="42.7558410" lon="-8.3595020">
        <ele>310.7</ele>
        <time>2019-08-18T08:52:43Z</time>
      </trkpt>
      <trkpt lat="42.7558560" lon="-8.3595860">
        <ele>310.6</ele>
        <time>2019-08-18T08:52:44Z</time>
      </trkpt>
      <trkpt lat="42.7558710" lon="-8.3596690">
        <ele>310.5</ele>
        <time>2019-08-18T08:52:45Z</time>
      </trkpt>
      <trkpt lat="42.7558850" lon="-8.3597490">
        <ele>310.5</ele>
        <time>2019-08-18T08:52:46Z</time>
      </trkpt>
      <trkpt lat="42.7559000" lon="-8.3598280">
        <ele>310.6</ele>
        <time>2019-08-18T08:52:47Z</time>
      </trkpt>
      <trkpt lat="42.7559140" lon="-8.3599050">
        <ele>310.8</ele>
        <time>2019-08-18T08:52:48Z</time>
      </trkpt>
      <trkpt lat="42.7559280" lon="-8.3599800">
        <ele>311.0</ele>
        <time>2019-08-18T08:52:49Z</time>
      </trkpt>
      <trkpt lat="42.7559420" lon="-8.3600540">
        <ele>311.1</ele>
        <time>2019-08-18T08:52:50Z</time>
      </trkpt>
      <trkpt lat="42.7559550" lon="-8.3601260">
        <ele>311.3</ele>
        <time>2019-08-18T08:52:51Z</time>
      </trkpt>
      <trkpt lat="42.7559690" lon="-8.3601960">
        <ele>311.4</ele>
        <time>2019-08-18T08:52:52Z</time>
      </trkpt>
      <trkpt lat="42.7559820" lon="-8.3602650">
        <ele>311.6</ele>
        <time>2019-08-18T08:52:53Z</time>
      </trkpt>
      <trkpt lat="42.7559950" lon="-8.3603330">
        <ele>311.8</ele>
        <time>2019-08-18T08:52:54Z</time>
      </trkpt>
      <trkpt lat="42.7560080" lon="-8.3604010">
        <ele>311.9</ele>
        <time>2019-08-18T08:52:55Z</time>
      </trkpt>
      <trkpt lat="42.7560200" lon="-8.3604670">
        <ele>312.0</ele>
        <time>2019-08-18T08:52:56Z</time>
      </trkpt>
      <trkpt lat="42.7560330" lon="-8.3605330">
        <ele>312.1</ele>
        <time>2019-08-18T08:52:57Z</time>
      </trkpt>
      <trkpt lat="42.7560460" lon="-8.3605990">
        <ele>312.2</ele>
        <time>2019-08-18T08:52:58Z</time>
      </trkpt>
      <trkpt lat="42.7560580" lon="-8.3606650">
        <ele>312.3</ele>
        <time>2019-08-18T08:52:59Z</time>
      </trkpt>
      <trkpt lat="42.7560710" lon="-8.3607310">
        <ele>312.5</ele>
        <time>2019-08-18T08:53:00Z</time>
      </trkpt>
      <trkpt lat="42.7560830" lon="-8.3607980">
        <ele>312.6</ele>
        <time>2019-08-18T08:53:01Z</time>
      </trkpt>
      <trkpt lat="42.7560960" lon="-8.3608650">
        <ele>312.7</ele>
        <time>2019-08-18T08:53:02Z</time>
      </trkpt>
      <trkpt lat="42.7561080" lon="-8.3609320">
        <ele>312.8</ele>
        <time>2019-08-18T08:53:03Z</time>
      </trkpt>
      <trkpt lat="42.7561210" lon="-8.3610000">
        <ele>313.0</ele>
        <time>2019-08-18T08:53:04Z</time>
      </trkpt>
      <trkpt lat="42.7561340" lon="-8.3610670">
        <ele>313.1</ele>
        <time>2019-08-18T08:53:05Z</time>
      </trkpt>
      <trkpt lat="42.7561470" lon="-8.3611340">
        <ele>313.2</ele>
        <time>2019-08-18T08:53:06Z</time>
      </trkpt>
      <trkpt lat="42.7561590" lon="-8.3612000">
        <ele>313.4</ele>
        <time>2019-08-18T08:53:07Z</time>
      </trkpt>
      <trkpt lat="42.7561720" lon="-8.3612660">
        <ele>313.5</ele>
        <time>2019-08-18T08:53:08Z</time>
      </trkpt>
      <trkpt lat="42.7561850" lon="-8.3613300">
        <ele>313.6</ele>
        <time>2019-08-18T08:53:09Z</time>
      </trkpt>
      <trkpt lat="42.7561980" lon="-8.3613950">
        <ele>313.7</ele>
        <time>2019-08-18T08:53:10Z</time>
      </trkpt>
      <trkpt lat="42.7562110" lon="-8.3614580">
        <ele>313.8</ele>
        <time>2019-08-18T08:53:11Z</time>
      </trkpt>
      <trkpt lat="42.7562250" lon="-8.3615210">
        <ele>313.9</ele>
        <time>2019-08-18T08:53:12Z</time>
      </trkpt>
      <trkpt lat="42.7562380" lon="-8.3615830">
        <ele>314.0</ele>
        <time>2019-08-18T08:53:13Z</time>
      </trkpt>
      <trkpt lat="42.7562520" lon="-8.3616450">
        <ele>314.1</ele>
        <time>2019-08-18T08:53:14Z</time>
      </trkpt>
      <trkpt lat="42.7562660" lon="-8.3617070">
        <ele>314.1</ele>
        <time>2019-08-18T08:53:15Z</time>
      </trkpt>
      <trkpt lat="42.7562790" lon="-8.3617680">
        <ele>314.2</ele>
        <time>2019-08-18T08:53:16Z</time>
      </trkpt>
      <trkpt lat="42.7562930" lon="-8.3618290">
        <ele>314.3</ele>
        <time>2019-08-18T08:53:17Z</time>
      </trkpt>
      <trkpt lat="42.7563070" lon="-8.3618910">
        <ele>314.4</ele>
        <time>2019-08-18T08:53:18Z</time>
      </trkpt>
      <trkpt lat="42.7563200" lon="-8.3619520">
        <ele>314.5</ele>
        <time>2019-08-18T08:53:19Z</time>
      </trkpt>
      <trkpt lat="42.7563330" lon="-8.3620150">
        <ele>314.6</ele>
        <time>2019-08-18T08:53:20Z</time>
      </trkpt>
      <trkpt lat="42.7563450" lon="-8.3620780">
        <ele>314.7</ele>
        <time>2019-08-18T08:53:21Z</time>
      </trkpt>
      <trkpt lat="42.7563560" lon="-8.3621430">
        <ele>314.8</ele>
        <time>2019-08-18T08:53:22Z</time>
      </trkpt>
      <trkpt lat="42.7563670" lon="-8.3622080">
        <ele>314.9</ele>
        <time>2019-08-18T08:53:23Z</time>
      </trkpt>
      <trkpt lat="42.7563770" lon="-8.3622740">
        <ele>315.0</ele>
        <time>2019-08-18T08:53:24Z</time>
      </trkpt>
      <trkpt lat="42.7563880" lon="-8.3623400">
        <ele>315.2</ele>
        <time>2019-08-18T08:53:25Z</time>
      </trkpt>
      <trkpt lat="42.7563990" lon="-8.3624070">
        <ele>315.3</ele>
        <time>2019-08-18T08:53:26Z</time>
      </trkpt>
      <trkpt lat="42.7564100" lon="-8.3624730">
        <ele>315.4</ele>
        <time>2019-08-18T08:53:27Z</time>
      </trkpt>
      <trkpt lat="42.7564230" lon="-8.3625390">
        <ele>315.5</ele>
        <time>2019-08-18T08:53:28Z</time>
      </trkpt>
      <trkpt lat="42.7564370" lon="-8.3626040">
        <ele>315.5</ele>
        <time>2019-08-18T08:53:29Z</time>
      </trkpt>
      <trkpt lat="42.7564530" lon="-8.3626690">
        <ele>315.6</ele>
        <time>2019-08-18T08:53:30Z</time>
      </trkpt>
      <trkpt lat="42.7564700" lon="-8.3627330">
        <ele>315.6</ele>
        <time>2019-08-18T08:53:31Z</time>
      </trkpt>
      <trkpt lat="42.7564870" lon="-8.3627970">
        <ele>315.6</ele>
        <time>2019-08-18T08:53:32Z</time>
      </trkpt>
      <trkpt lat="42.7565050" lon="-8.3628620">
        <ele>315.6</ele>
        <time>2019-08-18T08:53:33Z</time>
      </trkpt>
      <trkpt lat="42.7565230" lon="-8.3629270">
        <ele>315.7</ele>
        <time>2019-08-18T08:53:34Z</time>
      </trkpt>
      <trkpt lat="42.7565400" lon="-8.3629940">
        <ele>315.7</ele>
        <time>2019-08-18T08:53:35Z</time>
      </trkpt>
      <trkpt lat="42.7565550" lon="-8.3630630">
        <ele>315.8</ele>
        <time>2019-08-18T08:53:36Z</time>
      </trkpt>
      <trkpt lat="42.7565700" lon="-8.3631340">
        <ele>315.9</ele>
        <time>2019-08-18T08:53:37Z</time>
      </trkpt>
      <trkpt lat="42.7565830" lon="-8.3632050">
        <ele>316.0</ele>
        <time>2019-08-18T08:53:38Z</time>
      </trkpt>
      <trkpt lat="42.7565950" lon="-8.3632770">
        <ele>316.1</ele>
        <time>2019-08-18T08:53:39Z</time>
      </trkpt>
      <trkpt lat="42.7566070" lon="-8.3633460">
        <ele>316.1</ele>
        <time>2019-08-18T08:53:40Z</time>
      </trkpt>
      <trkpt lat="42.7566190" lon="-8.3634130">
        <ele>316.2</ele>
        <time>2019-08-18T08:53:41Z</time>
      </trkpt>
      <trkpt lat="42.7566310" lon="-8.3634750">
        <ele>316.3</ele>
        <time>2019-08-18T08:53:42Z</time>
      </trkpt>
      <trkpt lat="42.7566450" lon="-8.3635310">
        <ele>316.3</ele>
        <time>2019-08-18T08:53:43Z</time>
      </trkpt>
      <trkpt lat="42.7566590" lon="-8.3635950">
        <ele>316.4</ele>
        <time>2019-08-18T08:53:44Z</time>
      </trkpt>
      <trkpt lat="42.7566770" lon="-8.3637370">
        <ele>316.5</ele>
        <time>2019-08-18T08:53:45Z</time>
      </trkpt>
      <trkpt lat="42.7566940" lon="-8.3639510">
        <ele>316.6</ele>
        <time>2019-08-18T08:53:46Z</time>
      </trkpt>
      <trkpt lat="42.7567060" lon="-8.3640280">
        <ele>316.7</ele>
        <time>2019-08-18T08:55:02Z</time>
      </trkpt>
      <trkpt lat="42.7567110" lon="-8.3640540">
        <ele>316.7</ele>
        <time>2019-08-18T08:55:03Z</time>
      </trkpt>
      <trkpt lat="42.7567250" lon="-8.3641020">
        <ele>316.8</ele>
        <time>2019-08-18T08:55:04Z</time>
      </trkpt>
      <trkpt lat="42.7567410" lon="-8.3641560">
        <ele>316.8</ele>
        <time>2019-08-18T08:55:05Z</time>
      </trkpt>
      <trkpt lat="42.7567490" lon="-8.3642210">
        <ele>316.9</ele>
        <time>2019-08-18T08:55:06Z</time>
      </trkpt>
      <trkpt lat="42.7567500" lon="-8.3642920">
        <ele>316.9</ele>
        <time>2019-08-18T08:55:07Z</time>
      </trkpt>
      <trkpt lat="42.7567480" lon="-8.3643680">
        <ele>317.0</ele>
        <time>2019-08-18T08:55:08Z</time>
      </trkpt>
      <trkpt lat="42.7567460" lon="-8.3644460">
        <ele>317.0</ele>
        <time>2019-08-18T08:55:09Z</time>
      </trkpt>
      <trkpt lat="42.7567490" lon="-8.3645230">
        <ele>317.1</ele>
        <time>2019-08-18T08:55:10Z</time>
      </trkpt>
      <trkpt lat="42.7567600" lon="-8.3646510">
        <ele>317.2</ele>
        <time>2019-08-18T08:55:11Z</time>
      </trkpt>
      <trkpt lat="42.7567650" lon="-8.3647010">
        <ele>317.3</ele>
        <time>2019-08-18T08:55:12Z</time>
      </trkpt>
      <trkpt lat="42.7567710" lon="-8.3647520">
        <ele>317.5</ele>
        <time>2019-08-18T08:55:13Z</time>
      </trkpt>
      <trkpt lat="42.7567800" lon="-8.3648280">
        <ele>317.8</ele>
        <time>2019-08-18T08:55:14Z</time>
      </trkpt>
      <trkpt lat="42.7567870" lon="-8.3649030">
        <ele>318.1</ele>
        <time>2019-08-18T08:55:15Z</time>
      </trkpt>
      <trkpt lat="42.7567980" lon="-8.3650280">
        <ele>318.5</ele>
        <time>2019-08-18T08:55:16Z</time>
      </trkpt>
      <trkpt lat="42.7568010" lon="-8.3650790">
        <ele>318.6</ele>
        <time>2019-08-18T08:55:17Z</time>
      </trkpt>
      <trkpt lat="42.7568050" lon="-8.3651290">
        <ele>318.6</ele>
        <time>2019-08-18T08:55:18Z</time>
      </trkpt>
      <trkpt lat="42.7568080" lon="-8.3652040">
        <ele>318.7</ele>
        <time>2019-08-18T08:55:19Z</time>
      </trkpt>
      <trkpt lat="42.7568110" lon="-8.3652810">
        <ele>318.7</ele>
        <time>2019-08-18T08:55:20Z</time>
      </trkpt>
      <trkpt lat="42.7568110" lon="-8.3654100">
        <ele>318.6</ele>
        <time>2019-08-18T08:55:21Z</time>
      </trkpt>
      <trkpt lat="42.7568100" lon="-8.3654620">
        <ele>318.5</ele>
        <time>2019-08-18T08:55:22Z</time>
      </trkpt>
      <trkpt lat="42.7568090" lon="-8.3655140">
        <ele>318.5</ele>
        <time>2019-08-18T08:55:23Z</time>
      </trkpt>
      <trkpt lat="42.7568050" lon="-8.3655930">
        <ele>318.5</ele>
        <time>2019-08-18T08:55:24Z</time>
      </trkpt>
      <trkpt lat="42.7568000" lon="-8.3656740">
        <ele>318.5</ele>
        <time>2019-08-18T08:55:25Z</time>
      </trkpt>
      <trkpt lat="42.7567850" lon="-8.3658100">
        <ele>318.6</ele>
        <time>2019-08-18T08:55:26Z</time>
      </trkpt>
      <trkpt lat="42.7567770" lon="-8.3658640">
        <ele>318.6</ele>
        <time>2019-08-18T08:55:27Z</time>
      </trkpt>
      <trkpt lat="42.7567700" lon="-8.3659190">
        <ele>318.5</ele>
        <time>2019-08-18T08:55:28Z</time>
      </trkpt>
      <trkpt lat="42.7567560" lon="-8.3660030">
        <ele>318.5</ele>
        <time>2019-08-18T08:55:29Z</time>
      </trkpt>
      <trkpt lat="42.7567400" lon="-8.3660860">
        <ele>318.4</ele>
        <time>2019-08-18T08:55:30Z</time>
      </trkpt>
      <trkpt lat="42.7567070" lon="-8.3662250">
        <ele>318.0</ele>
        <time>2019-08-18T08:55:31Z</time>
      </trkpt>
      <trkpt lat="42.7566920" lon="-8.3662790">
        <ele>317.9</ele>
        <time>2019-08-18T08:55:32Z</time>
      </trkpt>
      <trkpt lat="42.7566780" lon="-8.3663340">
        <ele>317.7</ele>
        <time>2019-08-18T08:55:33Z</time>
      </trkpt>
      <trkpt lat="42.7566530" lon="-8.3664150">
        <ele>317.5</ele>
        <time>2019-08-18T08:55:34Z</time>
      </trkpt>
      <trkpt lat="42.7566270" lon="-8.3664940">
        <ele>317.2</ele>
        <time>2019-08-18T08:55:35Z</time>
      </trkpt>
      <trkpt lat="42.7565980" lon="-8.3665720">
        <ele>317.1</ele>
        <time>2019-08-18T08:55:36Z</time>
      </trkpt>
      <trkpt lat="42.7565690" lon="-8.3666490">
        <ele>317.0</ele>
        <time>2019-08-18T08:55:37Z</time>
      </trkpt>
      <trkpt lat="42.7565370" lon="-8.3667240">
        <ele>316.9</ele>
        <time>2019-08-18T08:55:38Z</time>
      </trkpt>
      <trkpt lat="42.7565050" lon="-8.3667980">
        <ele>316.9</ele>
        <time>2019-08-18T08:55:39Z</time>
      </trkpt>
      <trkpt lat="42.7564720" lon="-8.3668710">
        <ele>316.9</ele>
        <time>2019-08-18T08:55:40Z</time>
      </trkpt>
      <trkpt lat="42.7564380" lon="-8.3669430">
        <ele>316.8</ele>
        <time>2019-08-18T08:55:41Z</time>
      </trkpt>
      <trkpt lat="42.7564040" lon="-8.3670140">
        <ele>316.7</ele>
        <time>2019-08-18T08:55:42Z</time>
      </trkpt>
      <trkpt lat="42.7563690" lon="-8.3670840">
        <ele>316.6</ele>
        <time>2019-08-18T08:55:43Z</time>
      </trkpt>
      <trkpt lat="42.7563340" lon="-8.3671530">
        <ele>316.5</ele>
        <time>2019-08-18T08:55:44Z</time>
      </trkpt>
      <trkpt lat="42.7562980" lon="-8.3672220">
        <ele>316.3</ele>
        <time>2019-08-18T08:55:45Z</time>
      </trkpt>
      <trkpt lat="42.7562610" lon="-8.3672900">
        <ele>316.2</ele>
        <time>2019-08-18T08:55:46Z</time>
      </trkpt>
      <trkpt lat="42.7562230" lon="-8.3673580">
        <ele>316.2</ele>
        <time>2019-08-18T08:55:47Z</time>
      </trkpt>
      <trkpt lat="42.7561840" lon="-8.3674250">
        <ele>316.2</ele>
        <time>2019-08-18T08:55:48Z</time>
      </trkpt>
      <trkpt lat="42.7561420" lon="-8.3674930">
        <ele>316.1</ele>
        <time>2019-08-18T08:55:49Z</time>
      </trkpt>
      <trkpt lat="42.7560990" lon="-8.3675600">
        <ele>315.9</ele>
        <time>2019-08-18T08:55:50Z</time>
      </trkpt>
      <trkpt lat="42.7560550" lon="-8.3676270">
        <ele>315.7</ele>
        <time>2019-08-18T08:55:51Z</time>
      </trkpt>
      <trkpt lat="42.7560080" lon="-8.3676950">
        <ele>315.5</ele>
        <time>2019-08-18T08:55:52Z</time>
      </trkpt>
      <trkpt lat="42.7559610" lon="-8.3677630">
        <ele>315.3</ele>
        <time>2019-08-18T08:55:53Z</time>
      </trkpt>
      <trkpt lat="42.7559130" lon="-8.3678310">
        <ele>315.0</ele>
        <time>2019-08-18T08:55:54Z</time>
      </trkpt>
      <trkpt lat="42.7558640" lon="-8.3678990">
        <ele>314.8</ele>
        <time>2019-08-18T08:55:55Z</time>
      </trkpt>
      <trkpt lat="42.7558150" lon="-8.3679680">
        <ele>314.5</ele>
        <time>2019-08-18T08:55:56Z</time>
      </trkpt>
      <trkpt lat="42.7557660" lon="-8.3680370">
        <ele>314.3</ele>
        <time>2019-08-18T08:55:57Z</time>
      </trkpt>
      <trkpt lat="42.7557170" lon="-8.3681070">
        <ele>314.0</ele>
        <time>2019-08-18T08:55:58Z</time>
      </trkpt>
      <trkpt lat="42.7556680" lon="-8.3681770">
        <ele>313.7</ele>
        <time>2019-08-18T08:55:59Z</time>
      </trkpt>
      <trkpt lat="42.7556200" lon="-8.3682470">
        <ele>313.4</ele>
        <time>2019-08-18T08:56:00Z</time>
      </trkpt>
      <trkpt lat="42.7555720" lon="-8.3683170">
        <ele>313.2</ele>
        <time>2019-08-18T08:56:01Z</time>
      </trkpt>
      <trkpt lat="42.7555250" lon="-8.3683860">
        <ele>312.9</ele>
        <time>2019-08-18T08:56:02Z</time>
      </trkpt>
      <trkpt lat="42.7554780" lon="-8.3684550">
        <ele>312.7</ele>
        <time>2019-08-18T08:56:03Z</time>
      </trkpt>
      <trkpt lat="42.7554320" lon="-8.3685230">
        <ele>312.4</ele>
        <time>2019-08-18T08:56:04Z</time>
      </trkpt>
      <trkpt lat="42.7553870" lon="-8.3685890">
        <ele>312.2</ele>
        <time>2019-08-18T08:56:05Z</time>
      </trkpt>
      <trkpt lat="42.7553420" lon="-8.3686550">
        <ele>311.9</ele>
        <time>2019-08-18T08:56:06Z</time>
      </trkpt>
      <trkpt lat="42.7552970" lon="-8.3687200">
        <ele>311.5</ele>
        <time>2019-08-18T08:56:07Z</time>
      </trkpt>
      <trkpt lat="42.7552530" lon="-8.3687840">
        <ele>311.2</ele>
        <time>2019-08-18T08:56:08Z</time>
      </trkpt>
      <trkpt lat="42.7552090" lon="-8.3688480">
        <ele>310.9</ele>
        <time>2019-08-18T08:56:09Z</time>
      </trkpt>
      <trkpt lat="42.7551650" lon="-8.3689130">
        <ele>310.6</ele>
        <time>2019-08-18T08:56:10Z</time>
      </trkpt>
      <trkpt lat="42.7551200" lon="-8.3689770">
        <ele>310.3</ele>
        <time>2019-08-18T08:56:11Z</time>
      </trkpt>
      <trkpt lat="42.7550760" lon="-8.3690420">
        <ele>310.1</ele>
        <time>2019-08-18T08:56:12Z</time>
      </trkpt>
      <trkpt lat="42.7550310" lon="-8.3691080">
        <ele>309.8</ele>
        <time>2019-08-18T08:56:13Z</time>
      </trkpt>
      <trkpt lat="42.7549860" lon="-8.3691740">
        <ele>309.5</ele>
        <time>2019-08-18T08:56:14Z</time>
      </trkpt>
      <trkpt lat="42.7549410" lon="-8.3692410">
        <ele>309.2</ele>
        <time>2019-08-18T08:56:15Z</time>
      </trkpt>
      <trkpt lat="42.7548960" lon="-8.3693100">
        <ele>309.0</ele>
        <time>2019-08-18T08:56:16Z</time>
      </trkpt>
      <trkpt lat="42.7548510" lon="-8.3693790">
        <ele>308.7</ele>
        <time>2019-08-18T08:56:17Z</time>
      </trkpt>
      <trkpt lat="42.7548070" lon="-8.3694500">
        <ele>308.4</ele>
        <time>2019-08-18T08:56:18Z</time>
      </trkpt>
      <trkpt lat="42.7547630" lon="-8.3695210">
        <ele>308.1</ele>
        <time>2019-08-18T08:56:19Z</time>
      </trkpt>
      <trkpt lat="42.7547190" lon="-8.3695950">
        <ele>307.8</ele>
        <time>2019-08-18T08:56:20Z</time>
      </trkpt>
      <trkpt lat="42.7546760" lon="-8.3696690">
        <ele>307.4</ele>
        <time>2019-08-18T08:56:21Z</time>
      </trkpt>
      <trkpt lat="42.7546350" lon="-8.3697460">
        <ele>307.1</ele>
        <time>2019-08-18T08:56:22Z</time>
      </trkpt>
      <trkpt lat="42.7545960" lon="-8.3698240">
        <ele>306.7</ele>
        <time>2019-08-18T08:56:23Z</time>
      </trkpt>
      <trkpt lat="42.7545580" lon="-8.3699050">
        <ele>306.3</ele>
        <time>2019-08-18T08:56:24Z</time>
      </trkpt>
      <trkpt lat="42.7545230" lon="-8.3699880">
        <ele>305.9</ele>
        <time>2019-08-18T08:56:25Z</time>
      </trkpt>
      <trkpt lat="42.7544910" lon="-8.3700740">
        <ele>305.5</ele>
        <time>2019-08-18T08:56:26Z</time>
      </trkpt>
      <trkpt lat="42.7544620" lon="-8.3701620">
        <ele>305.1</ele>
        <time>2019-08-18T08:56:27Z</time>
      </trkpt>
      <trkpt lat="42.7544360" lon="-8.3702530">
        <ele>304.7</ele>
        <time>2019-08-18T08:56:28Z</time>
      </trkpt>
      <trkpt lat="42.7544130" lon="-8.3703470">
        <ele>304.3</ele>
        <time>2019-08-18T08:56:29Z</time>
      </trkpt>
      <trkpt lat="42.7543940" lon="-8.3704430">
        <ele>303.8</ele>
        <time>2019-08-18T08:56:30Z</time>
      </trkpt>
      <trkpt lat="42.7543770" lon="-8.3705410">
        <ele>303.3</ele>
        <time>2019-08-18T08:56:31Z</time>
      </trkpt>
      <trkpt lat="42.7543640" lon="-8.3706410">
        <ele>302.8</ele>
        <time>2019-08-18T08:56:32Z</time>
      </trkpt>
      <trkpt lat="42.7543530" lon="-8.3707430">
        <ele>302.2</ele>
        <time>2019-08-18T08:56:33Z</time>
      </trkpt>
      <trkpt lat="42.7543460" lon="-8.3708470">
        <ele>301.8</ele>
        <time>2019-08-18T08:56:34Z</time>
      </trkpt>
      <trkpt lat="42.7543420" lon="-8.3709520">
        <ele>301.4</ele>
        <time>2019-08-18T08:56:35Z</time>
      </trkpt>
      <trkpt lat="42.7543400" lon="-8.3710590">
        <ele>301.0</ele>
        <time>2019-08-18T08:56:36Z</time>
      </trkpt>
      <trkpt lat="42.7543400" lon="-8.3711670">
        <ele>300.6</ele>
        <time>2019-08-18T08:56:37Z</time>
      </trkpt>
      <trkpt lat="42.7543410" lon="-8.3712760">
        <ele>300.2</ele>
        <time>2019-08-18T08:56:38Z</time>
      </trkpt>
      <trkpt lat="42.7543440" lon="-8.3713860">
        <ele>299.9</ele>
        <time>2019-08-18T08:56:39Z</time>
      </trkpt>
      <trkpt lat="42.7543470" lon="-8.3714970">
        <ele>299.6</ele>
        <time>2019-08-18T08:56:40Z</time>
      </trkpt>
      <trkpt lat="42.7543510" lon="-8.3716090">
        <ele>299.3</ele>
        <time>2019-08-18T08:56:41Z</time>
      </trkpt>
      <trkpt lat="42.7543550" lon="-8.3717210">
        <ele>299.0</ele>
        <time>2019-08-18T08:56:42Z</time>
      </trkpt>
      <trkpt lat="42.7543590" lon="-8.3718340">
        <ele>298.8</ele>
        <time>2019-08-18T08:56:43Z</time>
      </trkpt>
      <trkpt lat="42.7543630" lon="-8.3719470">
        <ele>298.6</ele>
        <time>2019-08-18T08:56:44Z</time>
      </trkpt>
      <trkpt lat="42.7543680" lon="-8.3720590">
        <ele>298.5</ele>
        <time>2019-08-18T08:56:45Z</time>
      </trkpt>
      <trkpt lat="42.7543720" lon="-8.3721700">
        <ele>298.4</ele>
        <time>2019-08-18T08:56:46Z</time>
      </trkpt>
      <trkpt lat="42.7543770" lon="-8.3722800">
        <ele>298.4</ele>
        <time>2019-08-18T08:56:47Z</time>
      </trkpt>
      <trkpt lat="42.7543810" lon="-8.3723880">
        <ele>298.3</ele>
        <time>2019-08-18T08:56:48Z</time>
      </trkpt>
      <trkpt lat="42.7543860" lon="-8.3724940">
        <ele>298.3</ele>
        <time>2019-08-18T08:56:49Z</time>
      </trkpt>
      <trkpt lat="42.7543910" lon="-8.3725980">
        <ele>298.2</ele>
        <time>2019-08-18T08:56:50Z</time>
      </trkpt>
      <trkpt lat="42.7544000" lon="-8.3727660">
        <ele>298.1</ele>
        <time>2019-08-18T08:56:51Z</time>
      </trkpt>
      <trkpt lat="42.7544030" lon="-8.3728330">
        <ele>298.1</ele>
        <time>2019-08-18T08:56:52Z</time>
      </trkpt>
      <trkpt lat="42.7544070" lon="-8.3728990">
        <ele>298.1</ele>
        <time>2019-08-18T08:56:53Z</time>
      </trkpt>
      <trkpt lat="42.7544120" lon="-8.3729960">
        <ele>298.0</ele>
        <time>2019-08-18T08:56:54Z</time>
      </trkpt>
      <trkpt lat="42.7544170" lon="-8.3730910">
        <ele>297.8</ele>
        <time>2019-08-18T08:56:55Z</time>
      </trkpt>
      <trkpt lat="42.7544250" lon="-8.3732470">
        <ele>297.5</ele>
        <time>2019-08-18T08:56:56Z</time>
      </trkpt>
      <trkpt lat="42.7544290" lon="-8.3733080">
        <ele>297.4</ele>
        <time>2019-08-18T08:56:57Z</time>
      </trkpt>
      <trkpt lat="42.7544320" lon="-8.3733700">
        <ele>297.4</ele>
        <time>2019-08-18T08:56:58Z</time>
      </trkpt>
      <trkpt lat="42.7544360" lon="-8.3734610">
        <ele>297.3</ele>
        <time>2019-08-18T08:56:59Z</time>
      </trkpt>
      <trkpt lat="42.7544410" lon="-8.3735510">
        <ele>297.2</ele>
        <time>2019-08-18T08:57:00Z</time>
      </trkpt>
      <trkpt lat="42.7544450" lon="-8.3736400">
        <ele>297.0</ele>
        <time>2019-08-18T08:57:01Z</time>
      </trkpt>
      <trkpt lat="42.7544490" lon="-8.3737280">
        <ele>296.9</ele>
        <time>2019-08-18T08:57:02Z</time>
      </trkpt>
      <trkpt lat="42.7544530" lon="-8.3738160">
        <ele>296.7</ele>
        <time>2019-08-18T08:57:03Z</time>
      </trkpt>
      <trkpt lat="42.7544570" lon="-8.3739030">
        <ele>296.6</ele>
        <time>2019-08-18T08:57:04Z</time>
      </trkpt>
      <trkpt lat="42.7544600" lon="-8.3739910">
        <ele>296.5</ele>
        <time>2019-08-18T08:57:05Z</time>
      </trkpt>
      <trkpt lat="42.7544640" lon="-8.3740780">
        <ele>296.4</ele>
        <time>2019-08-18T08:57:06Z</time>
      </trkpt>
      <trkpt lat="42.7544670" lon="-8.3741660">
        <ele>296.2</ele>
        <time>2019-08-18T08:57:07Z</time>
      </trkpt>
      <trkpt lat="42.7544700" lon="-8.3742540">
        <ele>296.1</ele>
        <time>2019-08-18T08:57:08Z</time>
      </trkpt>
      <trkpt lat="42.7544730" lon="-8.3743430">
        <ele>295.9</ele>
        <time>2019-08-18T08:57:09Z</time>
      </trkpt>
      <trkpt lat="42.7544760" lon="-8.3744330">
        <ele>295.7</ele>
        <time>2019-08-18T08:57:10Z</time>
      </trkpt>
      <trkpt lat="42.7544800" lon="-8.3745240">
        <ele>295.4</ele>
        <time>2019-08-18T08:57:11Z</time>
      </trkpt>
      <trkpt lat="42.7544830" lon="-8.3746170">
        <ele>295.2</ele>
        <time>2019-08-18T08:57:12Z</time>
      </trkpt>
      <trkpt lat="42.7544870" lon="-8.3747110">
        <ele>294.9</ele>
        <time>2019-08-18T08:57:13Z</time>
      </trkpt>
      <trkpt lat="42.7544910" lon="-8.3748070">
        <ele>294.6</ele>
        <time>2019-08-18T08:57:14Z</time>
      </trkpt>
      <trkpt lat="42.7544950" lon="-8.3749050">
        <ele>294.3</ele>
        <time>2019-08-18T08:57:15Z</time>
      </trkpt>
      <trkpt lat="42.7544990" lon="-8.3750050">
        <ele>294.0</ele>
        <time>2019-08-18T08:57:16Z</time>
      </trkpt>
      <trkpt lat="42.7545040" lon="-8.3751080">
        <ele>293.7</ele>
        <time>2019-08-18T08:57:17Z</time>
      </trkpt>
      <trkpt lat="42.7545090" lon="-8.3752140">
        <ele>293.3</ele>
        <time>2019-08-18T08:57:18Z</time>
      </trkpt>
      <trkpt lat="42.7545150" lon="-8.3753220">
        <ele>292.9</ele>
        <time>2019-08-18T08:57:19Z</time>
      </trkpt>
      <trkpt lat="42.7545210" lon="-8.3754340">
        <ele>292.5</ele>
        <time>2019-08-18T08:57:20Z</time>
      </trkpt>
      <trkpt lat="42.7545280" lon="-8.3755480">
        <ele>291.9</ele>
        <time>2019-08-18T08:57:21Z</time>
      </trkpt>
      <trkpt lat="42.7545360" lon="-8.3756660">
        <ele>291.3</ele>
        <time>2019-08-18T08:57:22Z</time>
      </trkpt>
      <trkpt lat="42.7545450" lon="-8.3757880">
        <ele>290.7</ele>
        <time>2019-08-18T08:57:23Z</time>
      </trkpt>
      <trkpt lat="42.7545550" lon="-8.3759130">
        <ele>290.1</ele>
        <time>2019-08-18T08:57:24Z</time>
      </trkpt>
      <trkpt lat="42.7545660" lon="-8.3760420">
        <ele>289.5</ele>
        <time>2019-08-18T08:57:25Z</time>
      </trkpt>
      <trkpt lat="42.7545780" lon="-8.3761740">
        <ele>288.9</ele>
        <time>2019-08-18T08:57:26Z</time>
      </trkpt>
      <trkpt lat="42.7545930" lon="-8.3763080">
        <ele>288.3</ele>
        <time>2019-08-18T08:57:27Z</time>
      </trkpt>
      <trkpt lat="42.7546090" lon="-8.3764440">
        <ele>287.7</ele>
        <time>2019-08-18T08:57:28Z</time>
      </trkpt>
      <trkpt lat="42.7546290" lon="-8.3765810">
        <ele>287.1</ele>
        <time>2019-08-18T08:57:29Z</time>
      </trkpt>
      <trkpt lat="42.7546510" lon="-8.3767180">
        <ele>286.4</ele>
        <time>2019-08-18T08:57:30Z</time>
      </trkpt>
      <trkpt lat="42.7546770" lon="-8.3768550">
        <ele>285.8</ele>
        <time>2019-08-18T08:57:31Z</time>
      </trkpt>
      <trkpt lat="42.7547070" lon="-8.3769910">
        <ele>285.2</ele>
        <time>2019-08-18T08:57:32Z</time>
      </trkpt>
      <trkpt lat="42.7547390" lon="-8.3771260">
        <ele>284.6</ele>
        <time>2019-08-18T08:57:33Z</time>
      </trkpt>
      <trkpt lat="42.7547730" lon="-8.3772620">
        <ele>284.0</ele>
        <time>2019-08-18T08:57:34Z</time>
      </trkpt>
      <trkpt lat="42.7548070" lon="-8.3773970">
        <ele>283.5</ele>
        <time>2019-08-18T08:57:35Z</time>
      </trkpt>
      <trkpt lat="42.7548410" lon="-8.3775340">
        <ele>283.0</ele>
        <time>2019-08-18T08:57:36Z</time>
      </trkpt>
      <trkpt lat="42.7548730" lon="-8.3776720">
        <ele>282.4</ele>
        <time>2019-08-18T08:57:37Z</time>
      </trkpt>
      <trkpt lat="42.7549010" lon="-8.3778120">
        <ele>281.9</ele>
        <time>2019-08-18T08:57:38Z</time>
      </trkpt>
      <trkpt lat="42.7549250" lon="-8.3779540">
        <ele>281.3</ele>
        <time>2019-08-18T08:57:39Z</time>
      </trkpt>
      <trkpt lat="42.7549440" lon="-8.3780990">
        <ele>280.7</ele>
        <time>2019-08-18T08:57:40Z</time>
      </trkpt>
      <trkpt lat="42.7549560" lon="-8.3782460">
        <ele>280.1</ele>
        <time>2019-08-18T08:57:41Z</time>
      </trkpt>
      <trkpt lat="42.7549580" lon="-8.3783930">
        <ele>279.3</ele>
        <time>2019-08-18T08:57:42Z</time>
      </trkpt>
      <trkpt lat="42.7549490" lon="-8.3785410">
        <ele>278.5</ele>
        <time>2019-08-18T08:57:43Z</time>
      </trkpt>
      <trkpt lat="42.7549270" lon="-8.3786870">
        <ele>277.7</ele>
        <time>2019-08-18T08:57:44Z</time>
      </trkpt>
      <trkpt lat="42.7548950" lon="-8.3788310">
        <ele>276.9</ele>
        <time>2019-08-18T08:57:45Z</time>
      </trkpt>
      <trkpt lat="42.7548560" lon="-8.3789710">
        <ele>276.2</ele>
        <time>2019-08-18T08:57:46Z</time>
      </trkpt>
      <trkpt lat="42.7548120" lon="-8.3791070">
        <ele>275.5</ele>
        <time>2019-08-18T08:57:47Z</time>
      </trkpt>
      <trkpt lat="42.7547630" lon="-8.3792400">
        <ele>274.8</ele>
        <time>2019-08-18T08:57:48Z</time>
      </trkpt>
      <trkpt lat="42.7547120" lon="-8.3793690">
        <ele>274.1</ele>
        <time>2019-08-18T08:57:49Z</time>
      </trkpt>
      <trkpt lat="42.7546580" lon="-8.3794950">
        <ele>273.3</ele>
        <time>2019-08-18T08:57:50Z</time>
      </trkpt>
      <trkpt lat="42.7546020" lon="-8.3796190">
        <ele>272.5</ele>
        <time>2019-08-18T08:57:51Z</time>
      </trkpt>
      <trkpt lat="42.7545450" lon="-8.3797420">
        <ele>271.8</ele>
        <time>2019-08-18T08:57:52Z</time>
      </trkpt>
      <trkpt lat="42.7544870" lon="-8.3798630">
        <ele>271.1</ele>
        <time>2019-08-18T08:57:53Z</time>
      </trkpt>
      <trkpt lat="42.7544290" lon="-8.3799840">
        <ele>270.5</ele>
        <time>2019-08-18T08:57:54Z</time>
      </trkpt>
      <trkpt lat="42.7543720" lon="-8.3801050">
        <ele>269.9</ele>
        <time>2019-08-18T08:57:55Z</time>
      </trkpt>
      <trkpt lat="42.7543160" lon="-8.3802250">
        <ele>269.4</ele>
        <time>2019-08-18T08:57:56Z</time>
      </trkpt>
      <trkpt lat="42.7542600" lon="-8.3803450">
        <ele>269.0</ele>
        <time>2019-08-18T08:57:57Z</time>
      </trkpt>
      <trkpt lat="42.7542050" lon="-8.3804640">
        <ele>268.6</ele>
        <time>2019-08-18T08:57:58Z</time>
      </trkpt>
      <trkpt lat="42.7541510" lon="-8.3805810">
        <ele>268.2</ele>
        <time>2019-08-18T08:57:59Z</time>
      </trkpt>
      <trkpt lat="42.7540970" lon="-8.3806970">
        <ele>267.8</ele>
        <time>2019-08-18T08:58:00Z</time>
      </trkpt>
      <trkpt lat="42.7540440" lon="-8.3808110">
        <ele>267.5</ele>
        <time>2019-08-18T08:58:01Z</time>
      </trkpt>
      <trkpt lat="42.7539920" lon="-8.3809230">
        <ele>267.2</ele>
        <time>2019-08-18T08:58:02Z</time>
      </trkpt>
      <trkpt lat="42.7539400" lon="-8.3810330">
        <ele>266.9</ele>
        <time>2019-08-18T08:58:03Z</time>
      </trkpt>
      <trkpt lat="42.7538880" lon="-8.3811410">
        <ele>266.7</ele>
        <time>2019-08-18T08:58:04Z</time>
      </trkpt>
      <trkpt lat="42.7538380" lon="-8.3812470">
        <ele>266.4</ele>
        <time>2019-08-18T08:58:05Z</time>
      </trkpt>
      <trkpt lat="42.7537880" lon="-8.3813510">
        <ele>266.1</ele>
        <time>2019-08-18T08:58:06Z</time>
      </trkpt>
      <trkpt lat="42.7537380" lon="-8.3814540">
        <ele>265.8</ele>
        <time>2019-08-18T08:58:07Z</time>
      </trkpt>
      <trkpt lat="42.7536900" lon="-8.3815550">
        <ele>265.6</ele>
        <time>2019-08-18T08:58:08Z</time>
      </trkpt>
      <trkpt lat="42.7536110" lon="-8.3817210">
        <ele>265.2</ele>
        <time>2019-08-18T08:58:09Z</time>
      </trkpt>
      <trkpt lat="42.7535810" lon="-8.3817870">
        <ele>265.0</ele>
        <time>2019-08-18T08:58:10Z</time>
      </trkpt>
      <trkpt lat="42.7535500" lon="-8.3818530">
        <ele>264.9</ele>
        <time>2019-08-18T08:58:11Z</time>
      </trkpt>
      <trkpt lat="42.7535050" lon="-8.3819500">
        <ele>264.7</ele>
        <time>2019-08-18T08:58:12Z</time>
      </trkpt>
      <trkpt lat="42.7534610" lon="-8.3820480">
        <ele>264.4</ele>
        <time>2019-08-18T08:58:13Z</time>
      </trkpt>
      <trkpt lat="42.7533910" lon="-8.3822080">
        <ele>264.1</ele>
        <time>2019-08-18T08:58:14Z</time>
      </trkpt>
      <trkpt lat="42.7533630" lon="-8.3822730">
        <ele>264.0</ele>
        <time>2019-08-18T08:58:15Z</time>
      </trkpt>
      <trkpt lat="42.7533360" lon="-8.3823370">
        <ele>263.8</ele>
        <time>2019-08-18T08:58:16Z</time>
      </trkpt>
      <trkpt lat="42.7532960" lon="-8.3824330">
        <ele>263.6</ele>
        <time>2019-08-18T08:58:17Z</time>
      </trkpt>
      <trkpt lat="42.7532580" lon="-8.3825290">
        <ele>263.4</ele>
        <time>2019-08-18T08:58:18Z</time>
      </trkpt>
      <trkpt lat="42.7532220" lon="-8.3826260">
        <ele>263.2</ele>
        <time>2019-08-18T08:58:19Z</time>
      </trkpt>
      <trkpt lat="42.7531870" lon="-8.3827230">
        <ele>262.9</ele>
        <time>2019-08-18T08:58:20Z</time>
      </trkpt>
      <trkpt lat="42.7531530" lon="-8.3828210">
        <ele>262.7</ele>
        <time>2019-08-18T08:58:21Z</time>
      </trkpt>
      <trkpt lat="42.7531220" lon="-8.3829190">
        <ele>262.4</ele>
        <time>2019-08-18T08:58:22Z</time>
      </trkpt>
      <trkpt lat="42.7530930" lon="-8.3830180">
        <ele>262.2</ele>
        <time>2019-08-18T08:58:23Z</time>
      </trkpt>
      <trkpt lat="42.7530650" lon="-8.3831180">
        <ele>261.9</ele>
        <time>2019-08-18T08:58:24Z</time>
      </trkpt>
      <trkpt lat="42.7530410" lon="-8.3832190">
        <ele>261.7</ele>
        <time>2019-08-18T08:58:25Z</time>
      </trkpt>
      <trkpt lat="42.7530180" lon="-8.3833210">
        <ele>261.4</ele>
        <time>2019-08-18T08:58:26Z</time>
      </trkpt>
      <trkpt lat="42.7529980" lon="-8.3834240">
        <ele>261.4</ele>
        <time>2019-08-18T08:58:27Z</time>
      </trkpt>
      <trkpt lat="42.7529810" lon="-8.3835280">
        <ele>261.4</ele>
        <time>2019-08-18T08:58:28Z</time>
      </trkpt>
      <trkpt lat="42.7529670" lon="-8.3836340">
        <ele>261.4</ele>
        <time>2019-08-18T08:58:29Z</time>
      </trkpt>
      <trkpt lat="42.7529550" lon="-8.3837410">
        <ele>261.5</ele>
        <time>2019-08-18T08:58:30Z</time>
      </trkpt>
      <trkpt lat="42.7529470" lon="-8.3838500">
        <ele>261.5</ele>
        <time>2019-08-18T08:58:31Z</time>
      </trkpt>
      <trkpt lat="42.7529420" lon="-8.3839600">
        <ele>261.5</ele>
        <time>2019-08-18T08:58:32Z</time>
      </trkpt>
      <trkpt lat="42.7529400" lon="-8.3840720">
        <ele>261.5</ele>
        <time>2019-08-18T08:58:33Z</time>
      </trkpt>
      <trkpt lat="42.7529410" lon="-8.3841840">
        <ele>261.5</ele>
        <time>2019-08-18T08:58:34Z</time>
      </trkpt>
      <trkpt lat="42.7529460" lon="-8.3842970">
        <ele>261.5</ele>
        <time>2019-08-18T08:58:35Z</time>
      </trkpt>
      <trkpt lat="42.7529530" lon="-8.3844110">
        <ele>261.6</ele>
        <time>2019-08-18T08:58:36Z</time>
      </trkpt>
      <trkpt lat="42.7529640" lon="-8.3845250">
        <ele>261.6</ele>
        <time>2019-08-18T08:58:37Z</time>
      </trkpt>
      <trkpt lat="42.7529780" lon="-8.3846390">
        <ele>261.5</ele>
        <time>2019-08-18T08:58:38Z</time>
      </trkpt>
      <trkpt lat="42.7529940" lon="-8.3847520">
        <ele>260.9</ele>
        <time>2019-08-18T08:58:39Z</time>
      </trkpt>
      <trkpt lat="42.7530150" lon="-8.3848660">
        <ele>260.5</ele>
        <time>2019-08-18T08:58:40Z</time>
      </trkpt>
      <trkpt lat="42.7530380" lon="-8.3849780">
        <ele>260.2</ele>
        <time>2019-08-18T08:58:41Z</time>
      </trkpt>
      <trkpt lat="42.7530640" lon="-8.3850900">
        <ele>259.8</ele>
        <time>2019-08-18T08:58:42Z</time>
      </trkpt>
      <trkpt lat="42.7530940" lon="-8.3852010">
        <ele>259.4</ele>
        <time>2019-08-18T08:58:43Z</time>
      </trkpt>
      <trkpt lat="42.7531270" lon="-8.3853100">
        <ele>258.8</ele>
        <time>2019-08-18T08:58:44Z</time>
      </trkpt>
      <trkpt lat="42.7531650" lon="-8.3854170">
        <ele>258.1</ele>
        <time>2019-08-18T08:58:45Z</time>
      </trkpt>
      <trkpt lat="42.7532020" lon="-8.3855240">
        <ele>257.4</ele>
        <time>2019-08-18T08:58:46Z</time>
      </trkpt>
      <trkpt lat="42.7532440" lon="-8.3856280">
        <ele>256.7</ele>
        <time>2019-08-18T08:58:47Z</time>
      </trkpt>
      <trkpt lat="42.7532890" lon="-8.3857300">
        <ele>256.1</ele>
        <time>2019-08-18T08:58:48Z</time>
      </trkpt>
      <trkpt lat="42.7533370" lon="-8.3858310">
        <ele>255.6</ele>
        <time>2019-08-18T08:58:49Z</time>
      </trkpt>
      <trkpt lat="42.7533880" lon="-8.3859290">
        <ele>254.9</ele>
        <time>2019-08-18T08:58:50Z</time>
      </trkpt>
      <trkpt lat="42.7534410" lon="-8.3860260">
        <ele>254.3</ele>
        <time>2019-08-18T08:58:51Z</time>
      </trkpt>
      <trkpt lat="42.7534970" lon="-8.3861210">
        <ele>253.9</ele>
        <time>2019-08-18T08:58:52Z</time>
      </trkpt>
      <trkpt lat="42.7535550" lon="-8.3862140">
        <ele>253.4</ele>
        <time>2019-08-18T08:58:53Z</time>
      </trkpt>
      <trkpt lat="42.7536150" lon="-8.3863060">
        <ele>252.6</ele>
        <time>2019-08-18T08:58:54Z</time>
      </trkpt>
      <trkpt lat="42.7536780" lon="-8.3863970">
        <ele>252.0</ele>
        <time>2019-08-18T08:58:55Z</time>
      </trkpt>
      <trkpt lat="42.7537410" lon="-8.3864880">
        <ele>251.4</ele>
        <time>2019-08-18T08:58:56Z</time>
      </trkpt>
      <trkpt lat="42.7538060" lon="-8.3865800">
        <ele>250.7</ele>
        <time>2019-08-18T08:58:57Z</time>
      </trkpt>
      <trkpt lat="42.7538720" lon="-8.3866720">
        <ele>249.8</ele>
        <time>2019-08-18T08:58:58Z</time>
      </trkpt>
      <trkpt lat="42.7539380" lon="-8.3867670">
        <ele>249.2</ele>
        <time>2019-08-18T08:58:59Z</time>
      </trkpt>
      <trkpt lat="42.7540040" lon="-8.3868630">
        <ele>248.6</ele>
        <time>2019-08-18T08:59:00Z</time>
      </trkpt>
      <trkpt lat="42.7540710" lon="-8.3869620">
        <ele>247.9</ele>
        <time>2019-08-18T08:59:01Z</time>
      </trkpt>
      <trkpt lat="42.7541370" lon="-8.3870630">
        <ele>246.9</ele>
        <time>2019-08-18T08:59:02Z</time>
      </trkpt>
      <trkpt lat="42.7542030" lon="-8.3871660">
        <ele>246.7</ele>
        <time>2019-08-18T08:59:03Z</time>
      </trkpt>
      <trkpt lat="42.7542690" lon="-8.3872720">
        <ele>246.8</ele>
        <time>2019-08-18T08:59:04Z</time>
      </trkpt>
      <trkpt lat="42.7543340" lon="-8.3873800">
        <ele>246.0</ele>
        <time>2019-08-18T08:59:05Z</time>
      </trkpt>
      <trkpt lat="42.7543980" lon="-8.3874900">
        <ele>245.2</ele>
        <time>2019-08-18T08:59:06Z</time>
      </trkpt>
      <trkpt lat="42.7544620" lon="-8.3876020">
        <ele>244.3</ele>
        <time>2019-08-18T08:59:07Z</time>
      </trkpt>
      <trkpt lat="42.7545650" lon="-8.3877940">
        <ele>243.0</ele>
        <time>2019-08-18T08:59:08Z</time>
      </trkpt>
      <trkpt lat="42.7546070" lon="-8.3878730">
        <ele>242.5</ele>
        <time>2019-08-18T08:59:09Z</time>
      </trkpt>
      <trkpt lat="42.7546480" lon="-8.3879510">
        <ele>242.0</ele>
        <time>2019-08-18T08:59:10Z</time>
      </trkpt>
      <trkpt lat="42.7547100" lon="-8.3880690">
        <ele>241.0</ele>
        <time>2019-08-18T08:59:11Z</time>
      </trkpt>
      <trkpt lat="42.7547720" lon="-8.3881890">
        <ele>239.9</ele>
        <time>2019-08-18T08:59:12Z</time>
      </trkpt>
      <trkpt lat="42.7548790" lon="-8.3883890">
        <ele>238.2</ele>
        <time>2019-08-18T08:59:13Z</time>
      </trkpt>
      <trkpt lat="42.7549230" lon="-8.3884680">
        <ele>237.7</ele>
        <time>2019-08-18T08:59:14Z</time>
      </trkpt>
      <trkpt lat="42.7549670" lon="-8.3885480">
        <ele>237.2</ele>
        <time>2019-08-18T08:59:15Z</time>
      </trkpt>
      <trkpt lat="42.7550340" lon="-8.3886680">
        <ele>236.2</ele>
        <time>2019-08-18T08:59:16Z</time>
      </trkpt>
      <trkpt lat="42.7551010" lon="-8.3887880">
        <ele>235.3</ele>
        <time>2019-08-18T08:59:17Z</time>
      </trkpt>
      <trkpt lat="42.7551670" lon="-8.3889090">
        <ele>234.4</ele>
        <time>2019-08-18T08:59:18Z</time>
      </trkpt>
      <trkpt lat="42.7552320" lon="-8.3890320">
        <ele>233.4</ele>
        <time>2019-08-18T08:59:19Z</time>
      </trkpt>
      <trkpt lat="42.7552940" lon="-8.3891560">
        <ele>232.6</ele>
        <time>2019-08-18T08:59:20Z</time>
      </trkpt>
      <trkpt lat="42.7553540" lon="-8.3892820">
        <ele>231.4</ele>
        <time>2019-08-18T08:59:21Z</time>
      </trkpt>
      <trkpt lat="42.7554120" lon="-8.3894090">
        <ele>230.4</ele>
        <time>2019-08-18T08:59:22Z</time>
      </trkpt>
      <trkpt lat="42.7554670" lon="-8.3895380">
        <ele>229.5</ele>
        <time>2019-08-18T08:59:23Z</time>
      </trkpt>
      <trkpt lat="42.7555230" lon="-8.3896680">
        <ele>228.6</ele>
        <time>2019-08-18T08:59:24Z</time>
      </trkpt>
      <trkpt lat="42.7555780" lon="-8.3897980">
        <ele>227.5</ele>
        <time>2019-08-18T08:59:25Z</time>
      </trkpt>
      <trkpt lat="42.7556350" lon="-8.3899280">
        <ele>226.7</ele>
        <time>2019-08-18T08:59:26Z</time>
      </trkpt>
      <trkpt lat="42.7556930" lon="-8.3900580">
        <ele>225.8</ele>
        <time>2019-08-18T08:59:27Z</time>
      </trkpt>
      <trkpt lat="42.7557520" lon="-8.3901850">
        <ele>224.5</ele>
        <time>2019-08-18T08:59:28Z</time>
      </trkpt>
      <trkpt lat="42.7558120" lon="-8.3903110">
        <ele>223.5</ele>
        <time>2019-08-18T08:59:29Z</time>
      </trkpt>
      <trkpt lat="42.7558730" lon="-8.3904340">
        <ele>222.7</ele>
        <time>2019-08-18T08:59:30Z</time>
      </trkpt>
      <trkpt lat="42.7559330" lon="-8.3905550">
        <ele>221.8</ele>
        <time>2019-08-18T08:59:31Z</time>
      </trkpt>
      <trkpt lat="42.7559930" lon="-8.3906750">
        <ele>221.2</ele>
        <time>2019-08-18T08:59:32Z</time>
      </trkpt>
      <trkpt lat="42.7560500" lon="-8.3907940">
        <ele>220.7</ele>
        <time>2019-08-18T08:59:33Z</time>
      </trkpt>
      <trkpt lat="42.7561040" lon="-8.3909130">
        <ele>220.3</ele>
        <time>2019-08-18T08:59:34Z</time>
      </trkpt>
      <trkpt lat="42.7561560" lon="-8.3910330">
        <ele>219.9</ele>
        <time>2019-08-18T08:59:35Z</time>
      </trkpt>
      <trkpt lat="42.7562030" lon="-8.3911530">
        <ele>219.5</ele>
        <time>2019-08-18T08:59:36Z</time>
      </trkpt>
      <trkpt lat="42.7562450" lon="-8.3912740">
        <ele>219.0</ele>
        <time>2019-08-18T08:59:37Z</time>
      </trkpt>
      <trkpt lat="42.7562820" lon="-8.3913970">
        <ele>218.6</ele>
        <time>2019-08-18T08:59:38Z</time>
      </trkpt>
      <trkpt lat="42.7563150" lon="-8.3915200">
        <ele>218.1</ele>
        <time>2019-08-18T08:59:39Z</time>
      </trkpt>
      <trkpt lat="42.7563430" lon="-8.3916440">
        <ele>217.6</ele>
        <time>2019-08-18T08:59:40Z</time>
      </trkpt>
      <trkpt lat="42.7563680" lon="-8.3917680">
        <ele>217.1</ele>
        <time>2019-08-18T08:59:41Z</time>
      </trkpt>
      <trkpt lat="42.7563890" lon="-8.3918920">
        <ele>216.6</ele>
        <time>2019-08-18T08:59:42Z</time>
      </trkpt>
      <trkpt lat="42.7564060" lon="-8.3920150">
        <ele>216.2</ele>
        <time>2019-08-18T08:59:43Z</time>
      </trkpt>
      <trkpt lat="42.7564200" lon="-8.3921390">
        <ele>215.9</ele>
        <time>2019-08-18T08:59:44Z</time>
      </trkpt>
      <trkpt lat="42.7564310" lon="-8.3922610">
        <ele>215.5</ele>
        <time>2019-08-18T08:59:45Z</time>
      </trkpt>
      <trkpt lat="42.7564390" lon="-8.3923840">
        <ele>215.0</ele>
        <time>2019-08-18T08:59:46Z</time>
      </trkpt>
      <trkpt lat="42.7564440" lon="-8.3925060">
        <ele>214.3</ele>
        <time>2019-08-18T08:59:47Z</time>
      </trkpt>
      <trkpt lat="42.7564460" lon="-8.3926290">
        <ele>213.6</ele>
        <time>2019-08-18T08:59:48Z</time>
      </trkpt>
      <trkpt lat="42.7564460" lon="-8.3927510">
        <ele>213.0</ele>
        <time>2019-08-18T08:59:49Z</time>
      </trkpt>
      <trkpt lat="42.7564430" lon="-8.3928730">
        <ele>212.4</ele>
        <time>2019-08-18T08:59:50Z</time>
      </trkpt>
      <trkpt lat="42.7564380" lon="-8.3929960">
        <ele>211.9</ele>
        <time>2019-08-18T08:59:51Z</time>
      </trkpt>
      <trkpt lat="42.7564310" lon="-8.3931190">
        <ele>211.5</ele>
        <time>2019-08-18T08:59:52Z</time>
      </trkpt>
      <trkpt lat="42.7564220" lon="-8.3932420">
        <ele>211.0</ele>
        <time>2019-08-18T08:59:53Z</time>
      </trkpt>
      <trkpt lat="42.7564140" lon="-8.3933650">
        <ele>210.6</ele>
        <time>2019-08-18T08:59:54Z</time>
      </trkpt>
      <trkpt lat="42.7564070" lon="-8.3934890">
        <ele>210.3</ele>
        <time>2019-08-18T08:59:55Z</time>
      </trkpt>
      <trkpt lat="42.7564030" lon="-8.3936140">
        <ele>210.0</ele>
        <time>2019-08-18T08:59:56Z</time>
      </trkpt>
      <trkpt lat="42.7564030" lon="-8.3937390">
        <ele>209.8</ele>
        <time>2019-08-18T08:59:57Z</time>
      </trkpt>
      <trkpt lat="42.7564090" lon="-8.3938640">
        <ele>209.5</ele>
        <time>2019-08-18T08:59:58Z</time>
      </trkpt>
      <trkpt lat="42.7564200" lon="-8.3939910">
        <ele>209.2</ele>
        <time>2019-08-18T08:59:59Z</time>
      </trkpt>
      <trkpt lat="42.7564380" lon="-8.3941160">
        <ele>208.2</ele>
        <time>2019-08-18T09:00:00Z</time>
      </trkpt>
      <trkpt lat="42.7564620" lon="-8.3942400">
        <ele>207.1</ele>
        <time>2019-08-18T09:00:01Z</time>
      </trkpt>
      <trkpt lat="42.7564920" lon="-8.3943610">
        <ele>205.9</ele>
        <time>2019-08-18T09:00:02Z</time>
      </trkpt>
      <trkpt lat="42.7565280" lon="-8.3944790">
        <ele>204.6</ele>
        <time>2019-08-18T09:00:03Z</time>
      </trkpt>
      <trkpt lat="42.7565700" lon="-8.3945900">
        <ele>203.3</ele>
        <time>2019-08-18T09:00:04Z</time>
      </trkpt>
      <trkpt lat="42.7566170" lon="-8.3946960">
        <ele>201.8</ele>
        <time>2019-08-18T09:00:05Z</time>
      </trkpt>
      <trkpt lat="42.7566700" lon="-8.3947930">
        <ele>200.3</ele>
        <time>2019-08-18T09:00:06Z</time>
      </trkpt>
      <trkpt lat="42.7567280" lon="-8.3948820">
        <ele>198.5</ele>
        <time>2019-08-18T09:00:07Z</time>
      </trkpt>
      <trkpt lat="42.7567900" lon="-8.3949620">
        <ele>195.8</ele>
        <time>2019-08-18T09:00:08Z</time>
      </trkpt>
      <trkpt lat="42.7568570" lon="-8.3950330">
        <ele>195.1</ele>
        <time>2019-08-18T09:00:09Z</time>
      </trkpt>
      <trkpt lat="42.7569280" lon="-8.3950960">
        <ele>194.4</ele>
        <time>2019-08-18T09:00:10Z</time>
      </trkpt>
      <trkpt lat="42.7570040" lon="-8.3951500">
        <ele>193.8</ele>
        <time>2019-08-18T09:00:11Z</time>
      </trkpt>
      <trkpt lat="42.7570820" lon="-8.3951950">
        <ele>193.3</ele>
        <time>2019-08-18T09:00:12Z</time>
      </trkpt>
      <trkpt lat="42.7571640" lon="-8.3952310">
        <ele>192.8</ele>
        <time>2019-08-18T09:00:13Z</time>
      </trkpt>
      <trkpt lat="42.7572500" lon="-8.3952560">
        <ele>192.3</ele>
        <time>2019-08-18T09:00:14Z</time>
      </trkpt>
      <trkpt lat="42.7573350" lon="-8.3952810">
        <ele>191.9</ele>
        <time>2019-08-18T09:00:15Z</time>
      </trkpt>
      <trkpt lat="42.7574240" lon="-8.3952970">
        <ele>191.5</ele>
        <time>2019-08-18T09:00:16Z</time>
      </trkpt>
      <trkpt lat="42.7575130" lon="-8.3953100">
        <ele>191.2</ele>
        <time>2019-08-18T09:00:17Z</time>
      </trkpt>
      <trkpt lat="42.7576030" lon="-8.3953210">
        <ele>191.0</ele>
        <time>2019-08-18T09:00:18Z</time>
      </trkpt>
      <trkpt lat="42.7576930" lon="-8.3953320">
        <ele>190.8</ele>
        <time>2019-08-18T09:00:19Z</time>
      </trkpt>
      <trkpt lat="42.7577820" lon="-8.3953450">
        <ele>190.6</ele>
        <time>2019-08-18T09:00:20Z</time>
      </trkpt>
      <trkpt lat="42.7578700" lon="-8.3953620">
        <ele>190.4</ele>
        <time>2019-08-18T09:00:21Z</time>
      </trkpt>
      <trkpt lat="42.7579570" lon="-8.3953830">
        <ele>190.2</ele>
        <time>2019-08-18T09:00:22Z</time>
      </trkpt>
      <trkpt lat="42.7580420" lon="-8.3954100">
        <ele>190.0</ele>
        <time>2019-08-18T09:00:23Z</time>
      </trkpt>
      <trkpt lat="42.7581250" lon="-8.3954430">
        <ele>189.9</ele>
        <time>2019-08-18T09:00:24Z</time>
      </trkpt>
      <trkpt lat="42.7582060" lon="-8.3954840">
        <ele>189.8</ele>
        <time>2019-08-18T09:00:25Z</time>
      </trkpt>
      <trkpt lat="42.7582840" lon="-8.3955330">
        <ele>189.7</ele>
        <time>2019-08-18T09:00:26Z</time>
      </trkpt>
      <trkpt lat="42.7583600" lon="-8.3955920">
        <ele>189.6</ele>
        <time>2019-08-18T09:00:27Z</time>
      </trkpt>
      <trkpt lat="42.7584320" lon="-8.3956620">
        <ele>189.5</ele>
        <time>2019-08-18T09:00:28Z</time>
      </trkpt>
      <trkpt lat="42.7585010" lon="-8.3957410">
        <ele>189.4</ele>
        <time>2019-08-18T09:00:29Z</time>
      </trkpt>
      <trkpt lat="42.7585660" lon="-8.3958280">
        <ele>189.2</ele>
        <time>2019-08-18T09:00:30Z</time>
      </trkpt>
      <trkpt lat="42.7586270" lon="-8.3959230">
        <ele>188.8</ele>
        <time>2019-08-18T09:00:31Z</time>
      </trkpt>
      <trkpt lat="42.7586820" lon="-8.3960240">
        <ele>188.2</ele>
        <time>2019-08-18T09:00:32Z</time>
      </trkpt>
      <trkpt lat="42.7587310" lon="-8.3961310">
        <ele>187.5</ele>
        <time>2019-08-18T09:00:33Z</time>
      </trkpt>
      <trkpt lat="42.7587730" lon="-8.3962420">
        <ele>186.7</ele>
        <time>2019-08-18T09:00:34Z</time>
      </trkpt>
      <trkpt lat="42.7588250" lon="-8.3964340">
        <ele>185.6</ele>
        <time>2019-08-18T09:00:35Z</time>
      </trkpt>
      <trkpt lat="42.7588410" lon="-8.3965130">
        <ele>185.2</ele>
        <time>2019-08-18T09:00:36Z</time>
      </trkpt>
      <trkpt lat="42.7588580" lon="-8.3965910">
        <ele>184.9</ele>
        <time>2019-08-18T09:00:37Z</time>
      </trkpt>
      <trkpt lat="42.7588740" lon="-8.3967110">
        <ele>184.8</ele>
        <time>2019-08-18T09:00:38Z</time>
      </trkpt>
      <trkpt lat="42.7588880" lon="-8.3968310">
        <ele>185.2</ele>
        <time>2019-08-18T09:00:39Z</time>
      </trkpt>
      <trkpt lat="42.7589060" lon="-8.3970090">
        <ele>185.4</ele>
        <time>2019-08-18T09:00:40Z</time>
      </trkpt>
      <trkpt lat="42.7589120" lon="-8.3970680">
        <ele>185.3</ele>
        <time>2019-08-18T09:00:41Z</time>
      </trkpt>
      <trkpt lat="42.7589230" lon="-8.3971860">
        <ele>185.2</ele>
        <time>2019-08-18T09:00:42Z</time>
      </trkpt>
      <trkpt lat="42.7589380" lon="-8.3973010">
        <ele>185.0</ele>
        <time>2019-08-18T09:00:43Z</time>
      </trkpt>
      <trkpt lat="42.7589560" lon="-8.3974130">
        <ele>184.8</ele>
        <time>2019-08-18T09:00:44Z</time>
      </trkpt>
      <trkpt lat="42.7589770" lon="-8.3975230">
        <ele>184.4</ele>
        <time>2019-08-18T09:00:45Z</time>
      </trkpt>
      <trkpt lat="42.7590020" lon="-8.3976300">
        <ele>183.8</ele>
        <time>2019-08-18T09:00:46Z</time>
      </trkpt>
      <trkpt lat="42.7590300" lon="-8.3977340">
        <ele>183.2</ele>
        <time>2019-08-18T09:00:47Z</time>
      </trkpt>
      <trkpt lat="42.7590630" lon="-8.3978350">
        <ele>182.6</ele>
        <time>2019-08-18T09:00:48Z</time>
      </trkpt>
      <trkpt lat="42.7591010" lon="-8.3979310">
        <ele>182.1</ele>
        <time>2019-08-18T09:00:49Z</time>
      </trkpt>
      <trkpt lat="42.7591440" lon="-8.3980240">
        <ele>181.6</ele>
        <time>2019-08-18T09:00:50Z</time>
      </trkpt>
      <trkpt lat="42.7591910" lon="-8.3981120">
        <ele>181.1</ele>
        <time>2019-08-18T09:00:51Z</time>
      </trkpt>
      <trkpt lat="42.7592430" lon="-8.3981920">
        <ele>180.6</ele>
        <time>2019-08-18T09:00:52Z</time>
      </trkpt>
      <trkpt lat="42.7592990" lon="-8.3982650">
        <ele>180.0</ele>
        <time>2019-08-18T09:00:53Z</time>
      </trkpt>
      <trkpt lat="42.7593600" lon="-8.3983290">
        <ele>179.3</ele>
        <time>2019-08-18T09:00:54Z</time>
      </trkpt>
      <trkpt lat="42.7594240" lon="-8.3983870">
        <ele>178.8</ele>
        <time>2019-08-18T09:00:55Z</time>
      </trkpt>
      <trkpt lat="42.7595350" lon="-8.3984760">
        <ele>178.0</ele>
        <time>2019-08-18T09:00:56Z</time>
      </trkpt>
      <trkpt lat="42.7595790" lon="-8.3985110">
        <ele>177.8</ele>
        <time>2019-08-18T09:00:57Z</time>
      </trkpt>
      <trkpt lat="42.7596240" lon="-8.3985460">
        <ele>177.4</ele>
        <time>2019-08-18T09:00:58Z</time>
      </trkpt>
      <trkpt lat="42.7596930" lon="-8.3985970">
        <ele>176.9</ele>
        <time>2019-08-18T09:00:59Z</time>
      </trkpt>
      <trkpt lat="42.7597630" lon="-8.3986490">
        <ele>176.4</ele>
        <time>2019-08-18T09:01:00Z</time>
      </trkpt>
      <trkpt lat="42.7598820" lon="-8.3987340">
        <ele>175.9</ele>
        <time>2019-08-18T09:01:01Z</time>
      </trkpt>
      <trkpt lat="42.7599300" lon="-8.3987670">
        <ele>175.6</ele>
        <time>2019-08-18T09:01:02Z</time>
      </trkpt>
      <trkpt lat="42.7599780" lon="-8.3988010">
        <ele>175.4</ele>
        <time>2019-08-18T09:01:03Z</time>
      </trkpt>
      <trkpt lat="42.7600500" lon="-8.3988520">
        <ele>174.8</ele>
        <time>2019-08-18T09:01:04Z</time>
      </trkpt>
      <trkpt lat="42.7601210" lon="-8.3989020">
        <ele>174.4</ele>
        <time>2019-08-18T09:01:05Z</time>
      </trkpt>
      <trkpt lat="42.7601910" lon="-8.3989520">
        <ele>174.1</ele>
        <time>2019-08-18T09:01:06Z</time>
      </trkpt>
      <trkpt lat="42.7602600" lon="-8.3990010">
        <ele>173.9</ele>
        <time>2019-08-18T09:01:07Z</time>
      </trkpt>
      <trkpt lat="42.7603280" lon="-8.3990510">
        <ele>173.7</ele>
        <time>2019-08-18T09:01:08Z</time>
      </trkpt>
      <trkpt lat="42.7603950" lon="-8.3991000">
        <ele>173.4</ele>
        <time>2019-08-18T09:01:09Z</time>
      </trkpt>
      <trkpt lat="42.7604620" lon="-8.3991470">
        <ele>173.0</ele>
        <time>2019-08-18T09:01:10Z</time>
      </trkpt>
      <trkpt lat="42.7605280" lon="-8.3991930">
        <ele>172.5</ele>
        <time>2019-08-18T09:01:11Z</time>
      </trkpt>
      <trkpt lat="42.7605930" lon="-8.3992390">
        <ele>172.2</ele>
        <time>2019-08-18T09:01:12Z</time>
      </trkpt>
      <trkpt lat="42.7606580" lon="-8.3992820">
        <ele>171.9</ele>
        <time>2019-08-18T09:01:13Z</time>
      </trkpt>
      <trkpt lat="42.7607230" lon="-8.3993220">
        <ele>171.6</ele>
        <time>2019-08-18T09:01:14Z</time>
      </trkpt>
      <trkpt lat="42.7608330" lon="-8.3993780">
        <ele>171.1</ele>
        <time>2019-08-18T09:01:15Z</time>
      </trkpt>
      <trkpt lat="42.7608780" lon="-8.3993970">
        <ele>170.8</ele>
        <time>2019-08-18T09:01:16Z</time>
      </trkpt>
      <trkpt lat="42.7609220" lon="-8.3994170">
        <ele>170.4</ele>
        <time>2019-08-18T09:01:17Z</time>
      </trkpt>
      <trkpt lat="42.7609910" lon="-8.3994390">
        <ele>169.7</ele>
        <time>2019-08-18T09:01:18Z</time>
      </trkpt>
      <trkpt lat="42.7610630" lon="-8.3994560">
        <ele>169.3</ele>
        <time>2019-08-18T09:01:19Z</time>
      </trkpt>
      <trkpt lat="42.7611860" lon="-8.3994680">
        <ele>168.7</ele>
        <time>2019-08-18T09:01:20Z</time>
      </trkpt>
      <trkpt lat="42.7612350" lon="-8.3994680">
        <ele>168.4</ele>
        <time>2019-08-18T09:01:21Z</time>
      </trkpt>
      <trkpt lat="42.7612840" lon="-8.3994690">
        <ele>168.2</ele>
        <time>2019-08-18T09:01:22Z</time>
      </trkpt>
      <trkpt lat="42.7613560" lon="-8.3994560">
        <ele>167.8</ele>
        <time>2019-08-18T09:01:23Z</time>
      </trkpt>
      <trkpt lat="42.7614270" lon="-8.3994420">
        <ele>167.4</ele>
        <time>2019-08-18T09:01:24Z</time>
      </trkpt>
      <trkpt lat="42.7614970" lon="-8.3994200">
        <ele>167.1</ele>
        <time>2019-08-18T09:01:25Z</time>
      </trkpt>
      <trkpt lat="42.7615660" lon="-8.3993940">
        <ele>166.7</ele>
        <time>2019-08-18T09:01:26Z</time>
      </trkpt>
      <trkpt lat="42.7616350" lon="-8.3993660">
        <ele>166.3</ele>
        <time>2019-08-18T09:01:27Z</time>
      </trkpt>
      <trkpt lat="42.7617030" lon="-8.3993370">
        <ele>166.0</ele>
        <time>2019-08-18T09:01:28Z</time>
      </trkpt>
      <trkpt lat="42.7617720" lon="-8.3993080">
        <ele>165.6</ele>
        <time>2019-08-18T09:01:29Z</time>
      </trkpt>
      <trkpt lat="42.7618410" lon="-8.3992790">
        <ele>165.3</ele>
        <time>2019-08-18T09:01:30Z</time>
      </trkpt>
      <trkpt lat="42.7619100" lon="-8.3992520">
        <ele>164.9</ele>
        <time>2019-08-18T09:01:31Z</time>
      </trkpt>
      <trkpt lat="42.7619810" lon="-8.3992280">
        <ele>164.6</ele>
        <time>2019-08-18T09:01:32Z</time>
      </trkpt>
      <trkpt lat="42.7620540" lon="-8.3992080">
        <ele>164.5</ele>
        <time>2019-08-18T09:01:33Z</time>
      </trkpt>
      <trkpt lat="42.7621280" lon="-8.3991920">
        <ele>164.3</ele>
        <time>2019-08-18T09:01:34Z</time>
      </trkpt>
      <trkpt lat="42.7622040" lon="-8.3991810">
        <ele>164.1</ele>
        <time>2019-08-18T09:01:35Z</time>
      </trkpt>
      <trkpt lat="42.7622810" lon="-8.3991750">
        <ele>164.0</ele>
        <time>2019-08-18T09:01:36Z</time>
      </trkpt>
      <trkpt lat="42.7623580" lon="-8.3991750">
        <ele>163.7</ele>
        <time>2019-08-18T09:01:37Z</time>
      </trkpt>
      <trkpt lat="42.7624350" lon="-8.3991810">
        <ele>163.4</ele>
        <time>2019-08-18T09:01:38Z</time>
      </trkpt>
      <trkpt lat="42.7625120" lon="-8.3991930">
        <ele>163.1</ele>
        <time>2019-08-18T09:01:39Z</time>
      </trkpt>
      <trkpt lat="42.7625880" lon="-8.3992120">
        <ele>162.8</ele>
        <time>2019-08-18T09:01:40Z</time>
      </trkpt>
      <trkpt lat="42.7626640" lon="-8.3992380">
        <ele>162.5</ele>
        <time>2019-08-18T09:01:41Z</time>
      </trkpt>
      <trkpt lat="42.7627380" lon="-8.3992690">
        <ele>162.2</ele>
        <time>2019-08-18T09:01:42Z</time>
      </trkpt>
      <trkpt lat="42.7628120" lon="-8.3993050">
        <ele>161.9</ele>
        <time>2019-08-18T09:01:43Z</time>
      </trkpt>
      <trkpt lat="42.7628860" lon="-8.3993460">
        <ele>161.1</ele>
        <time>2019-08-18T09:01:44Z</time>
      </trkpt>
      <trkpt lat="42.7629970" lon="-8.3994120">
        <ele>160.6</ele>
        <time>2019-08-18T09:01:45Z</time>
      </trkpt>
      <trkpt lat="42.7630340" lon="-8.3994350">
        <ele>160.4</ele>
        <time>2019-08-18T09:01:46Z</time>
      </trkpt>
      <trkpt lat="42.7631080" lon="-8.3994820">
        <ele>160.2</ele>
        <time>2019-08-18T09:01:47Z</time>
      </trkpt>
      <trkpt lat="42.7631840" lon="-8.3995290">
        <ele>159.9</ele>
        <time>2019-08-18T09:01:48Z</time>
      </trkpt>
      <trkpt lat="42.7632610" lon="-8.3995750">
        <ele>159.7</ele>
        <time>2019-08-18T09:01:49Z</time>
      </trkpt>
      <trkpt lat="42.7633390" lon="-8.3996200">
        <ele>159.4</ele>
        <time>2019-08-18T09:01:50Z</time>
      </trkpt>
      <trkpt lat="42.7634190" lon="-8.3996630">
        <ele>159.1</ele>
        <time>2019-08-18T09:01:51Z</time>
      </trkpt>
      <trkpt lat="42.7634990" lon="-8.3997040">
        <ele>158.8</ele>
        <time>2019-08-18T09:01:52Z</time>
      </trkpt>
      <trkpt lat="42.7635800" lon="-8.3997420">
        <ele>158.5</ele>
        <time>2019-08-18T09:01:53Z</time>
      </trkpt>
      <trkpt lat="42.7636630" lon="-8.3997760">
        <ele>158.2</ele>
        <time>2019-08-18T09:01:54Z</time>
      </trkpt>
      <trkpt lat="42.7637460" lon="-8.3998060">
        <ele>157.9</ele>
        <time>2019-08-18T09:01:55Z</time>
      </trkpt>
      <trkpt lat="42.7638300" lon="-8.3998310">
        <ele>157.5</ele>
        <time>2019-08-18T09:01:56Z</time>
      </trkpt>
      <trkpt lat="42.7639150" lon="-8.3998510">
        <ele>157.2</ele>
        <time>2019-08-18T09:01:57Z</time>
      </trkpt>
      <trkpt lat="42.7640000" lon="-8.3998670">
        <ele>157.0</ele>
        <time>2019-08-18T09:01:58Z</time>
      </trkpt>
      <trkpt lat="42.7640860" lon="-8.3998770">
        <ele>156.9</ele>
        <time>2019-08-18T09:01:59Z</time>
      </trkpt>
      <trkpt lat="42.7641720" lon="-8.3998820">
        <ele>156.7</ele>
        <time>2019-08-18T09:02:00Z</time>
      </trkpt>
      <trkpt lat="42.7642600" lon="-8.3998810">
        <ele>156.6</ele>
        <time>2019-08-18T09:02:01Z</time>
      </trkpt>
      <trkpt lat="42.7643470" lon="-8.3998750">
        <ele>156.4</ele>
        <time>2019-08-18T09:02:02Z</time>
      </trkpt>
      <trkpt lat="42.7644350" lon="-8.3998630">
        <ele>156.3</ele>
        <time>2019-08-18T09:02:03Z</time>
      </trkpt>
      <trkpt lat="42.7645240" lon="-8.3998450">
        <ele>156.1</ele>
        <time>2019-08-18T09:02:04Z</time>
      </trkpt>
      <trkpt lat="42.7646580" lon="-8.3998040">
        <ele>155.9</ele>
        <time>2019-08-18T09:02:05Z</time>
      </trkpt>
      <trkpt lat="42.7647020" lon="-8.3997870">
        <ele>155.9</ele>
        <time>2019-08-18T09:02:06Z</time>
      </trkpt>
      <trkpt lat="42.7647900" lon="-8.3997520">
        <ele>155.8</ele>
        <time>2019-08-18T09:02:07Z</time>
      </trkpt>
      <trkpt lat="42.7648790" lon="-8.3997060">
        <ele>155.7</ele>
        <time>2019-08-18T09:02:08Z</time>
      </trkpt>
      <trkpt lat="42.7649670" lon="-8.3996530">
        <ele>155.5</ele>
        <time>2019-08-18T09:02:09Z</time>
      </trkpt>
      <trkpt lat="42.7650540" lon="-8.3995920">
        <ele>155.4</ele>
        <time>2019-08-18T09:02:10Z</time>
      </trkpt>
      <trkpt lat="42.7651400" lon="-8.3995220">
        <ele>155.3</ele>
        <time>2019-08-18T09:02:11Z</time>
      </trkpt>
      <trkpt lat="42.7652240" lon="-8.3994460">
        <ele>155.2</ele>
        <time>2019-08-18T09:02:12Z</time>
      </trkpt>
      <trkpt lat="42.7653070" lon="-8.3993650">
        <ele>154.9</ele>
        <time>2019-08-18T09:02:13Z</time>
      </trkpt>
      <trkpt lat="42.7653860" lon="-8.3992810">
        <ele>154.6</ele>
        <time>2019-08-18T09:02:14Z</time>
      </trkpt>
      <trkpt lat="42.7654610" lon="-8.3991960">
        <ele>154.3</ele>
        <time>2019-08-18T09:02:15Z</time>
      </trkpt>
      <trkpt lat="42.7655350" lon="-8.3991100">
        <ele>153.9</ele>
        <time>2019-08-18T09:02:16Z</time>
      </trkpt>
      <trkpt lat="42.7656080" lon="-8.3990220">
        <ele>153.6</ele>
        <time>2019-08-18T09:02:17Z</time>
      </trkpt>
      <trkpt lat="42.7656810" lon="-8.3989320">
        <ele>153.2</ele>
        <time>2019-08-18T09:02:18Z</time>
      </trkpt>
      <trkpt lat="42.7657560" lon="-8.3988430">
        <ele>152.9</ele>
        <time>2019-08-18T09:02:19Z</time>
      </trkpt>
      <trkpt lat="42.7658320" lon="-8.3987550">
        <ele>152.6</ele>
        <time>2019-08-18T09:02:20Z</time>
      </trkpt>
      <trkpt lat="42.7659110" lon="-8.3986700">
        <ele>152.2</ele>
        <time>2019-08-18T09:02:21Z</time>
      </trkpt>
      <trkpt lat="42.7659920" lon="-8.3985900">
        <ele>151.8</ele>
        <time>2019-08-18T09:02:22Z</time>
      </trkpt>
      <trkpt lat="42.7660760" lon="-8.3985160">
        <ele>151.5</ele>
        <time>2019-08-18T09:02:23Z</time>
      </trkpt>
      <trkpt lat="42.7661640" lon="-8.3984490">
        <ele>151.1</ele>
        <time>2019-08-18T09:02:24Z</time>
      </trkpt>
      <trkpt lat="42.7662560" lon="-8.3983910">
        <ele>150.7</ele>
        <time>2019-08-18T09:02:25Z</time>
      </trkpt>
      <trkpt lat="42.7663510" lon="-8.3983410">
        <ele>150.4</ele>
        <time>2019-08-18T09:02:26Z</time>
      </trkpt>
      <trkpt lat="42.7664480" lon="-8.3982990">
        <ele>150.0</ele>
        <time>2019-08-18T09:02:27Z</time>
      </trkpt>
      <trkpt lat="42.7665460" lon="-8.3982640">
        <ele>149.6</ele>
        <time>2019-08-18T09:02:28Z</time>
      </trkpt>
      <trkpt lat="42.7666460" lon="-8.3982350">
        <ele>149.2</ele>
        <time>2019-08-18T09:02:29Z</time>
      </trkpt>
      <trkpt lat="42.7667450" lon="-8.3982120">
        <ele>148.5</ele>
        <time>2019-08-18T09:02:30Z</time>
      </trkpt>
      <trkpt lat="42.7668430" lon="-8.3981940">
        <ele>147.6</ele>
        <time>2019-08-18T09:02:31Z</time>
      </trkpt>
      <trkpt lat="42.7669400" lon="-8.3981800">
        <ele>146.1</ele>
        <time>2019-08-18T09:02:32Z</time>
      </trkpt>
      <trkpt lat="42.7670340" lon="-8.3981700">
        <ele>144.9</ele>
        <time>2019-08-18T09:02:33Z</time>
      </trkpt>
      <trkpt lat="42.7671260" lon="-8.3981630">
        <ele>143.8</ele>
        <time>2019-08-18T09:02:34Z</time>
      </trkpt>
      <trkpt lat="42.7672160" lon="-8.3981580">
        <ele>142.9</ele>
        <time>2019-08-18T09:02:35Z</time>
      </trkpt>
      <trkpt lat="42.7673060" lon="-8.3981550">
        <ele>141.9</ele>
        <time>2019-08-18T09:02:36Z</time>
      </trkpt>
      <trkpt lat="42.7673940" lon="-8.3981530">
        <ele>141.0</ele>
        <time>2019-08-18T09:02:37Z</time>
      </trkpt>
      <trkpt lat="42.7674830" lon="-8.3981530">
        <ele>140.1</ele>
        <time>2019-08-18T09:02:38Z</time>
      </trkpt>
      <trkpt lat="42.7675710" lon="-8.3981530">
        <ele>139.2</ele>
        <time>2019-08-18T09:02:39Z</time>
      </trkpt>
      <trkpt lat="42.7676600" lon="-8.3981520">
        <ele>138.3</ele>
        <time>2019-08-18T09:02:40Z</time>
      </trkpt>
      <trkpt lat="42.7677500" lon="-8.3981520">
        <ele>137.3</ele>
        <time>2019-08-18T09:02:41Z</time>
      </trkpt>
      <trkpt lat="42.7678400" lon="-8.3981510">
        <ele>136.3</ele>
        <time>2019-08-18T09:02:42Z</time>
      </trkpt>
      <trkpt lat="42.7679310" lon="-8.3981500">
        <ele>135.3</ele>
        <time>2019-08-18T09:02:43Z</time>
      </trkpt>
      <trkpt lat="42.7680230" lon="-8.3981480">
        <ele>134.3</ele>
        <time>2019-08-18T09:02:44Z</time>
      </trkpt>
      <trkpt lat="42.7681150" lon="-8.3981470">
        <ele>133.3</ele>
        <time>2019-08-18T09:02:45Z</time>
      </trkpt>
      <trkpt lat="42.7682700" lon="-8.3981430">
        <ele>131.6</ele>
        <time>2019-08-18T09:02:46Z</time>
      </trkpt>
      <trkpt lat="42.7683330" lon="-8.3981420">
        <ele>131.0</ele>
        <time>2019-08-18T09:02:47Z</time>
      </trkpt>
      <trkpt lat="42.7683950" lon="-8.3981400">
        <ele>130.4</ele>
        <time>2019-08-18T09:02:48Z</time>
      </trkpt>
      <trkpt lat="42.7684900" lon="-8.3981370">
        <ele>129.4</ele>
        <time>2019-08-18T09:02:49Z</time>
      </trkpt>
      <trkpt lat="42.7685850" lon="-8.3981340">
        <ele>128.5</ele>
        <time>2019-08-18T09:02:50Z</time>
      </trkpt>
      <trkpt lat="42.7687450" lon="-8.3981270">
        <ele>127.0</ele>
        <time>2019-08-18T09:02:51Z</time>
      </trkpt>
      <trkpt lat="42.7688100" lon="-8.3981250">
        <ele>126.5</ele>
        <time>2019-08-18T09:02:52Z</time>
      </trkpt>
      <trkpt lat="42.7688740" lon="-8.3981220">
        <ele>126.0</ele>
        <time>2019-08-18T09:02:53Z</time>
      </trkpt>
      <trkpt lat="42.7689710" lon="-8.3981170">
        <ele>125.3</ele>
        <time>2019-08-18T09:02:54Z</time>
      </trkpt>
      <trkpt lat="42.7690690" lon="-8.3981120">
        <ele>124.5</ele>
        <time>2019-08-18T09:02:55Z</time>
      </trkpt>
      <trkpt lat="42.7691680" lon="-8.3981070">
        <ele>123.6</ele>
        <time>2019-08-18T09:02:56Z</time>
      </trkpt>
      <trkpt lat="42.7692670" lon="-8.3981010">
        <ele>122.9</ele>
        <time>2019-08-18T09:02:57Z</time>
      </trkpt>
      <trkpt lat="42.7693680" lon="-8.3980950">
        <ele>122.2</ele>
        <time>2019-08-18T09:02:58Z</time>
      </trkpt>
      <trkpt lat="42.7694690" lon="-8.3980900">
        <ele>121.5</ele>
        <time>2019-08-18T09:02:59Z</time>
      </trkpt>
      <trkpt lat="42.7695720" lon="-8.3980840">
        <ele>120.8</ele>
        <time>2019-08-18T09:03:00Z</time>
      </trkpt>
      <trkpt lat="42.7696760" lon="-8.3980780">
        <ele>120.0</ele>
        <time>2019-08-18T09:03:01Z</time>
      </trkpt>
      <trkpt lat="42.7697810" lon="-8.3980740">
        <ele>119.2</ele>
        <time>2019-08-18T09:03:02Z</time>
      </trkpt>
      <trkpt lat="42.7698860" lon="-8.3980690">
        <ele>118.4</ele>
        <time>2019-08-18T09:03:03Z</time>
      </trkpt>
      <trkpt lat="42.7699930" lon="-8.3980690">
        <ele>117.4</ele>
        <time>2019-08-18T09:03:04Z</time>
      </trkpt>
      <trkpt lat="42.7701000" lon="-8.3980730">
        <ele>116.4</ele>
        <time>2019-08-18T09:03:05Z</time>
      </trkpt>
      <trkpt lat="42.7702070" lon="-8.3980840">
        <ele>115.5</ele>
        <time>2019-08-18T09:03:06Z</time>
      </trkpt>
      <trkpt lat="42.7703130" lon="-8.3981040">
        <ele>114.5</ele>
        <time>2019-08-18T09:03:07Z</time>
      </trkpt>
      <trkpt lat="42.7704190" lon="-8.3981330">
        <ele>113.7</ele>
        <time>2019-08-18T09:03:08Z</time>
      </trkpt>
      <trkpt lat="42.7705920" lon="-8.3982130">
        <ele>112.2</ele>
        <time>2019-08-18T09:03:09Z</time>
      </trkpt>
      <trkpt lat="42.7706600" lon="-8.3982530">
        <ele>111.5</ele>
        <time>2019-08-18T09:03:10Z</time>
      </trkpt>
      <trkpt lat="42.7707280" lon="-8.3982930">
        <ele>110.9</ele>
        <time>2019-08-18T09:03:11Z</time>
      </trkpt>
      <trkpt lat="42.7708270" lon="-8.3983610">
        <ele>109.9</ele>
        <time>2019-08-18T09:03:12Z</time>
      </trkpt>
      <trkpt lat="42.7709220" lon="-8.3984450">
        <ele>108.8</ele>
        <time>2019-08-18T09:03:13Z</time>
      </trkpt>
      <trkpt lat="42.7710130" lon="-8.3985390">
        <ele>107.9</ele>
        <time>2019-08-18T09:03:14Z</time>
      </trkpt>
      <trkpt lat="42.7711480" lon="-8.3987220">
        <ele>106.5</ele>
        <time>2019-08-18T09:03:15Z</time>
      </trkpt>
      <trkpt lat="42.7711970" lon="-8.3988000">
        <ele>105.9</ele>
        <time>2019-08-18T09:03:16Z</time>
      </trkpt>
      <trkpt lat="42.7712470" lon="-8.3988790">
        <ele>105.4</ele>
        <time>2019-08-18T09:03:17Z</time>
      </trkpt>
      <trkpt lat="42.7713180" lon="-8.3990020">
        <ele>104.4</ele>
        <time>2019-08-18T09:03:18Z</time>
      </trkpt>
      <trkpt lat="42.7713850" lon="-8.3991310">
        <ele>103.5</ele>
        <time>2019-08-18T09:03:19Z</time>
      </trkpt>
      <trkpt lat="42.7714510" lon="-8.3992600">
        <ele>102.7</ele>
        <time>2019-08-18T09:03:20Z</time>
      </trkpt>
      <trkpt lat="42.7715160" lon="-8.3993890">
        <ele>102.0</ele>
        <time>2019-08-18T09:03:21Z</time>
      </trkpt>
      <trkpt lat="42.7715840" lon="-8.3995140">
        <ele>101.2</ele>
        <time>2019-08-18T09:03:22Z</time>
      </trkpt>
      <trkpt lat="42.7716550" lon="-8.3996340">
        <ele>100.5</ele>
        <time>2019-08-18T09:03:23Z</time>
      </trkpt>
      <trkpt lat="42.7717310" lon="-8.3997460">
        <ele>99.7</ele>
        <time>2019-08-18T09:03:24Z</time>
      </trkpt>
      <trkpt lat="42.7718120" lon="-8.3998490">
        <ele>99.1</ele>
        <time>2019-08-18T09:03:25Z</time>
      </trkpt>
      <trkpt lat="42.7718990" lon="-8.3999400">
        <ele>98.5</ele>
        <time>2019-08-18T09:03:26Z</time>
      </trkpt>
      <trkpt lat="42.7719920" lon="-8.4000200">
        <ele>97.9</ele>
        <time>2019-08-18T09:03:27Z</time>
      </trkpt>
      <trkpt lat="42.7720910" lon="-8.4000880">
        <ele>97.4</ele>
        <time>2019-08-18T09:03:28Z</time>
      </trkpt>
      <trkpt lat="42.7721920" lon="-8.4001470">
        <ele>96.8</ele>
        <time>2019-08-18T09:03:29Z</time>
      </trkpt>
      <trkpt lat="42.7722960" lon="-8.4002000">
        <ele>96.3</ele>
        <time>2019-08-18T09:03:30Z</time>
      </trkpt>
      <trkpt lat="42.7723990" lon="-8.4002480">
        <ele>95.7</ele>
        <time>2019-08-18T09:03:31Z</time>
      </trkpt>
      <trkpt lat="42.7725020" lon="-8.4002930">
        <ele>95.1</ele>
        <time>2019-08-18T09:03:32Z</time>
      </trkpt>
      <trkpt lat="42.7726050" lon="-8.4003350">
        <ele>94.5</ele>
        <time>2019-08-18T09:03:33Z</time>
      </trkpt>
      <trkpt lat="42.7727070" lon="-8.4003760">
        <ele>93.7</ele>
        <time>2019-08-18T09:03:34Z</time>
      </trkpt>
      <trkpt lat="42.7728090" lon="-8.4004160">
        <ele>92.9</ele>
        <time>2019-08-18T09:03:35Z</time>
      </trkpt>
      <trkpt lat="42.7729110" lon="-8.4004570">
        <ele>92.1</ele>
        <time>2019-08-18T09:03:36Z</time>
      </trkpt>
      <trkpt lat="42.7730160" lon="-8.4004970">
        <ele>91.2</ele>
        <time>2019-08-18T09:03:37Z</time>
      </trkpt>
      <trkpt lat="42.7731220" lon="-8.4005380">
        <ele>90.3</ele>
        <time>2019-08-18T09:03:38Z</time>
      </trkpt>
      <trkpt lat="42.7732310" lon="-8.4005790">
        <ele>89.4</ele>
        <time>2019-08-18T09:03:39Z</time>
      </trkpt>
      <trkpt lat="42.7733410" lon="-8.4006190">
        <ele>88.6</ele>
        <time>2019-08-18T09:03:40Z</time>
      </trkpt>
      <trkpt lat="42.7734530" lon="-8.4006580">
        <ele>87.8</ele>
        <time>2019-08-18T09:03:41Z</time>
      </trkpt>
      <trkpt lat="42.7736400" lon="-8.4007190">
        <ele>86.5</ele>
        <time>2019-08-18T09:03:42Z</time>
      </trkpt>
      <trkpt lat="42.7737140" lon="-8.4007420">
        <ele>86.0</ele>
        <time>2019-08-18T09:03:43Z</time>
      </trkpt>
      <trkpt lat="42.7737890" lon="-8.4007650">
        <ele>85.5</ele>
        <time>2019-08-18T09:03:44Z</time>
      </trkpt>
      <trkpt lat="42.7739010" lon="-8.4007980">
        <ele>84.8</ele>
        <time>2019-08-18T09:03:45Z</time>
      </trkpt>
      <trkpt lat="42.7740110" lon="-8.4008260">
        <ele>84.1</ele>
        <time>2019-08-18T09:03:46Z</time>
      </trkpt>
      <trkpt lat="42.7741210" lon="-8.4008520">
        <ele>83.4</ele>
        <time>2019-08-18T09:03:47Z</time>
      </trkpt>
      <trkpt lat="42.7742840" lon="-8.4008860">
        <ele>82.4</ele>
        <time>2019-08-18T09:03:48Z</time>
      </trkpt>
      <trkpt lat="42.7743380" lon="-8.4008970">
        <ele>82.1</ele>
        <time>2019-08-18T09:03:49Z</time>
      </trkpt>
      <trkpt lat="42.7744470" lon="-8.4009180">
        <ele>80.8</ele>
        <time>2019-08-18T09:03:50Z</time>
      </trkpt>
      <trkpt lat="42.7745570" lon="-8.4009380">
        <ele>79.9</ele>
        <time>2019-08-18T09:03:51Z</time>
      </trkpt>
      <trkpt lat="42.7746680" lon="-8.4009570">
        <ele>78.9</ele>
        <time>2019-08-18T09:03:52Z</time>
      </trkpt>
      <trkpt lat="42.7747780" lon="-8.4009770">
        <ele>77.9</ele>
        <time>2019-08-18T09:03:53Z</time>
      </trkpt>
      <trkpt lat="42.7748830" lon="-8.4010000">
        <ele>76.9</ele>
        <time>2019-08-18T09:03:54Z</time>
      </trkpt>
      <trkpt lat="42.7749840" lon="-8.4010260">
        <ele>75.9</ele>
        <time>2019-08-18T09:03:55Z</time>
      </trkpt>
      <trkpt lat="42.7750830" lon="-8.4010550">
        <ele>74.9</ele>
        <time>2019-08-18T09:03:56Z</time>
      </trkpt>
      <trkpt lat="42.7751790" lon="-8.4010870">
        <ele>73.9</ele>
        <time>2019-08-18T09:03:57Z</time>
      </trkpt>
      <trkpt lat="42.7752720" lon="-8.4011230">
        <ele>72.7</ele>
        <time>2019-08-18T09:03:58Z</time>
      </trkpt>
      <trkpt lat="42.7753630" lon="-8.4011610">
        <ele>71.5</ele>
        <time>2019-08-18T09:03:59Z</time>
      </trkpt>
      <trkpt lat="42.7754530" lon="-8.4012010">
        <ele>69.9</ele>
        <time>2019-08-18T09:04:00Z</time>
      </trkpt>
      <trkpt lat="42.7756010" lon="-8.4012710">
        <ele>67.5</ele>
        <time>2019-08-18T09:04:01Z</time>
      </trkpt>
      <trkpt lat="42.7756590" lon="-8.4013000">
        <ele>66.5</ele>
        <time>2019-08-18T09:04:02Z</time>
      </trkpt>
      <trkpt lat="42.7757170" lon="-8.4013280">
        <ele>65.5</ele>
        <time>2019-08-18T09:04:03Z</time>
      </trkpt>
      <trkpt lat="42.7758030" lon="-8.4013730">
        <ele>64.8</ele>
        <time>2019-08-18T09:04:04Z</time>
      </trkpt>
      <trkpt lat="42.7758860" lon="-8.4014200">
        <ele>64.8</ele>
        <time>2019-08-18T09:04:05Z</time>
      </trkpt>
      <trkpt lat="42.7759670" lon="-8.4014690">
        <ele>64.8</ele>
        <time>2019-08-18T09:04:06Z</time>
      </trkpt>
      <trkpt lat="42.7760460" lon="-8.4015200">
        <ele>64.8</ele>
        <time>2019-08-18T09:04:07Z</time>
      </trkpt>
      <trkpt lat="42.7761220" lon="-8.4015730">
        <ele>64.8</ele>
        <time>2019-08-18T09:04:08Z</time>
      </trkpt>
      <trkpt lat="42.7762420" lon="-8.4016660">
        <ele>64.9</ele>
        <time>2019-08-18T09:04:09Z</time>
      </trkpt>
      <trkpt lat="42.7762890" lon="-8.4017050">
        <ele>65.0</ele>
        <time>2019-08-18T09:04:10Z</time>
      </trkpt>
      <trkpt lat="42.7763350" lon="-8.4017430">
        <ele>65.0</ele>
        <time>2019-08-18T09:04:11Z</time>
      </trkpt>
      <trkpt lat="42.7764010" lon="-8.4018030">
        <ele>65.2</ele>
        <time>2019-08-18T09:04:12Z</time>
      </trkpt>
      <trkpt lat="42.7764640" lon="-8.4018640">
        <ele>65.4</ele>
        <time>2019-08-18T09:04:13Z</time>
      </trkpt>
      <trkpt lat="42.7765240" lon="-8.4019260">
        <ele>65.5</ele>
        <time>2019-08-18T09:04:14Z</time>
      </trkpt>
      <trkpt lat="42.7765820" lon="-8.4019890">
        <ele>65.7</ele>
        <time>2019-08-18T09:04:15Z</time>
      </trkpt>
      <trkpt lat="42.7766380" lon="-8.4020530">
        <ele>66.0</ele>
        <time>2019-08-18T09:04:16Z</time>
      </trkpt>
      <trkpt lat="42.7766900" lon="-8.4021170">
        <ele>66.2</ele>
        <time>2019-08-18T09:04:17Z</time>
      </trkpt>
      <trkpt lat="42.7767410" lon="-8.4021810">
        <ele>66.4</ele>
        <time>2019-08-18T09:04:18Z</time>
      </trkpt>
      <trkpt lat="42.7767890" lon="-8.4022450">
        <ele>66.7</ele>
        <time>2019-08-18T09:04:19Z</time>
      </trkpt>
      <trkpt lat="42.7768340" lon="-8.4023080">
        <ele>66.9</ele>
        <time>2019-08-18T09:04:20Z</time>
      </trkpt>
      <trkpt lat="42.7768770" lon="-8.4023720">
        <ele>67.1</ele>
        <time>2019-08-18T09:04:21Z</time>
      </trkpt>
      <trkpt lat="42.7769170" lon="-8.4024340">
        <ele>67.4</ele>
        <time>2019-08-18T09:04:22Z</time>
      </trkpt>
      <trkpt lat="42.7769550" lon="-8.4024950">
        <ele>67.6</ele>
        <time>2019-08-18T09:04:23Z</time>
      </trkpt>
      <trkpt lat="42.7769910" lon="-8.4025560">
        <ele>67.9</ele>
        <time>2019-08-18T09:04:24Z</time>
      </trkpt>
      <trkpt lat="42.7770240" lon="-8.4026150">
        <ele>68.1</ele>
        <time>2019-08-18T09:04:25Z</time>
      </trkpt>
      <trkpt lat="42.7770560" lon="-8.4026720">
        <ele>68.3</ele>
        <time>2019-08-18T09:04:26Z</time>
      </trkpt>
      <trkpt lat="42.7770850" lon="-8.4027280">
        <ele>68.6</ele>
        <time>2019-08-18T09:04:27Z</time>
      </trkpt>
      <trkpt lat="42.7771130" lon="-8.4027810">
        <ele>68.8</ele>
        <time>2019-08-18T09:04:28Z</time>
      </trkpt>
      <trkpt lat="42.7771380" lon="-8.4028330">
        <ele>69.1</ele>
        <time>2019-08-18T09:04:29Z</time>
      </trkpt>
      <trkpt lat="42.7771620" lon="-8.4028820">
        <ele>69.3</ele>
        <time>2019-08-18T09:04:30Z</time>
      </trkpt>
      <trkpt lat="42.7771850" lon="-8.4029290">
        <ele>69.5</ele>
        <time>2019-08-18T09:04:31Z</time>
      </trkpt>
      <trkpt lat="42.7772060" lon="-8.4029750">
        <ele>69.8</ele>
        <time>2019-08-18T09:04:32Z</time>
      </trkpt>
      <trkpt lat="42.7772260" lon="-8.4030200">
        <ele>70.0</ele>
        <time>2019-08-18T09:04:33Z</time>
      </trkpt>
      <trkpt lat="42.7772450" lon="-8.4030650">
        <ele>70.2</ele>
        <time>2019-08-18T09:04:34Z</time>
      </trkpt>
      <trkpt lat="42.7772630" lon="-8.4031110">
        <ele>70.4</ele>
        <time>2019-08-18T09:04:35Z</time>
      </trkpt>
      <trkpt lat="42.7772810" lon="-8.4031570">
        <ele>70.7</ele>
        <time>2019-08-18T09:04:36Z</time>
      </trkpt>
      <trkpt lat="42.7772990" lon="-8.4032050">
        <ele>70.9</ele>
        <time>2019-08-18T09:04:37Z</time>
      </trkpt>
      <trkpt lat="42.7773160" lon="-8.4032540">
        <ele>71.2</ele>
        <time>2019-08-18T09:04:38Z</time>
      </trkpt>
      <trkpt lat="42.7773330" lon="-8.4033040">
        <ele>71.4</ele>
        <time>2019-08-18T09:04:39Z</time>
      </trkpt>
      <trkpt lat="42.7773490" lon="-8.4033540">
        <ele>71.7</ele>
        <time>2019-08-18T09:04:40Z</time>
      </trkpt>
      <trkpt lat="42.7773640" lon="-8.4034030">
        <ele>71.9</ele>
        <time>2019-08-18T09:04:41Z</time>
      </trkpt>
      <trkpt lat="42.7773790" lon="-8.4034520">
        <ele>72.2</ele>
        <time>2019-08-18T09:04:42Z</time>
      </trkpt>
      <trkpt lat="42.7773920" lon="-8.4035000">
        <ele>72.4</ele>
        <time>2019-08-18T09:04:43Z</time>
      </trkpt>
      <trkpt lat="42.7774050" lon="-8.4035460">
        <ele>72.6</ele>
        <time>2019-08-18T09:04:44Z</time>
      </trkpt>
      <trkpt lat="42.7774170" lon="-8.4035910">
        <ele>72.9</ele>
        <time>2019-08-18T09:04:45Z</time>
      </trkpt>
      <trkpt lat="42.7774270" lon="-8.4036350">
        <ele>73.1</ele>
        <time>2019-08-18T09:04:46Z</time>
      </trkpt>
      <trkpt lat="42.7774370" lon="-8.4036790">
        <ele>73.2</ele>
        <time>2019-08-18T09:04:47Z</time>
      </trkpt>
      <trkpt lat="42.7774460" lon="-8.4037240">
        <ele>73.4</ele>
        <time>2019-08-18T09:04:48Z</time>
      </trkpt>
      <trkpt lat="42.7774540" lon="-8.4037680">
        <ele>73.6</ele>
        <time>2019-08-18T09:04:49Z</time>
      </trkpt>
      <trkpt lat="42.7774630" lon="-8.4038130">
        <ele>73.8</ele>
        <time>2019-08-18T09:04:50Z</time>
      </trkpt>
      <trkpt lat="42.7774720" lon="-8.4038570">
        <ele>73.9</ele>
        <time>2019-08-18T09:04:51Z</time>
      </trkpt>
      <trkpt lat="42.7774810" lon="-8.4039020">
        <ele>74.1</ele>
        <time>2019-08-18T09:04:52Z</time>
      </trkpt>
      <trkpt lat="42.7774900" lon="-8.4039460">
        <ele>74.2</ele>
        <time>2019-08-18T09:04:53Z</time>
      </trkpt>
      <trkpt lat="42.7774990" lon="-8.4039900">
        <ele>74.4</ele>
        <time>2019-08-18T09:04:54Z</time>
      </trkpt>
      <trkpt lat="42.7775080" lon="-8.4040340">
        <ele>74.5</ele>
        <time>2019-08-18T09:04:55Z</time>
      </trkpt>
      <trkpt lat="42.7775160" lon="-8.4040780">
        <ele>74.6</ele>
        <time>2019-08-18T09:04:56Z</time>
      </trkpt>
      <trkpt lat="42.7775240" lon="-8.4041220">
        <ele>74.7</ele>
        <time>2019-08-18T09:04:57Z</time>
      </trkpt>
      <trkpt lat="42.7775310" lon="-8.4041650">
        <ele>75.0</ele>
        <time>2019-08-18T09:04:58Z</time>
      </trkpt>
      <trkpt lat="42.7775370" lon="-8.4042090">
        <ele>75.2</ele>
        <time>2019-08-18T09:04:59Z</time>
      </trkpt>
      <trkpt lat="42.7775430" lon="-8.4042530">
        <ele>75.5</ele>
        <time>2019-08-18T09:05:00Z</time>
      </trkpt>
      <trkpt lat="42.7775470" lon="-8.4042970">
        <ele>75.8</ele>
        <time>2019-08-18T09:05:01Z</time>
      </trkpt>
      <trkpt lat="42.7775510" lon="-8.4043400">
        <ele>76.1</ele>
        <time>2019-08-18T09:05:02Z</time>
      </trkpt>
      <trkpt lat="42.7775550" lon="-8.4043830">
        <ele>76.3</ele>
        <time>2019-08-18T09:05:03Z</time>
      </trkpt>
      <trkpt lat="42.7775580" lon="-8.4044270">
        <ele>76.6</ele>
        <time>2019-08-18T09:05:04Z</time>
      </trkpt>
      <trkpt lat="42.7775610" lon="-8.4044700">
        <ele>77.0</ele>
        <time>2019-08-18T09:05:05Z</time>
      </trkpt>
      <trkpt lat="42.7775630" lon="-8.4045130">
        <ele>77.3</ele>
        <time>2019-08-18T09:05:06Z</time>
      </trkpt>
      <trkpt lat="42.7775650" lon="-8.4045560">
        <ele>77.7</ele>
        <time>2019-08-18T09:05:07Z</time>
      </trkpt>
      <trkpt lat="42.7775670" lon="-8.4045990">
        <ele>78.0</ele>
        <time>2019-08-18T09:05:08Z</time>
      </trkpt>
      <trkpt lat="42.7775680" lon="-8.4046420">
        <ele>78.4</ele>
        <time>2019-08-18T09:05:09Z</time>
      </trkpt>
      <trkpt lat="42.7775690" lon="-8.4046840">
        <ele>78.7</ele>
        <time>2019-08-18T09:05:10Z</time>
      </trkpt>
      <trkpt lat="42.7775700" lon="-8.4047270">
        <ele>79.1</ele>
        <time>2019-08-18T09:05:11Z</time>
      </trkpt>
      <trkpt lat="42.7775700" lon="-8.4047700">
        <ele>79.4</ele>
        <time>2019-08-18T09:05:12Z</time>
      </trkpt>
      <trkpt lat="42.7775710" lon="-8.4048130">
        <ele>79.7</ele>
        <time>2019-08-18T09:05:13Z</time>
      </trkpt>
      <trkpt lat="42.7775710" lon="-8.4048550">
        <ele>80.0</ele>
        <time>2019-08-18T09:05:14Z</time>
      </trkpt>
      <trkpt lat="42.7775710" lon="-8.4048980">
        <ele>80.3</ele>
        <time>2019-08-18T09:05:15Z</time>
      </trkpt>
      <trkpt lat="42.7775710" lon="-8.4049410">
        <ele>80.6</ele>
        <time>2019-08-18T09:05:16Z</time>
      </trkpt>
      <trkpt lat="42.7775700" lon="-8.4049840">
        <ele>80.9</ele>
        <time>2019-08-18T09:05:17Z</time>
      </trkpt>
      <trkpt lat="42.7775700" lon="-8.4050280">
        <ele>81.2</ele>
        <time>2019-08-18T09:05:18Z</time>
      </trkpt>
      <trkpt lat="42.7775690" lon="-8.4050710">
        <ele>81.5</ele>
        <time>2019-08-18T09:05:19Z</time>
      </trkpt>
      <trkpt lat="42.7775680" lon="-8.4051150">
        <ele>81.8</ele>
        <time>2019-08-18T09:05:20Z</time>
      </trkpt>
      <trkpt lat="42.7775680" lon="-8.4051580">
        <ele>82.1</ele>
        <time>2019-08-18T09:05:21Z</time>
      </trkpt>
      <trkpt lat="42.7775670" lon="-8.4052010">
        <ele>82.4</ele>
        <time>2019-08-18T09:05:22Z</time>
      </trkpt>
      <trkpt lat="42.7775660" lon="-8.4052420">
        <ele>82.7</ele>
        <time>2019-08-18T09:05:23Z</time>
      </trkpt>
      <trkpt lat="42.7775650" lon="-8.4052830">
        <ele>83.1</ele>
        <time>2019-08-18T09:05:24Z</time>
      </trkpt>
      <trkpt lat="42.7775620" lon="-8.4053300">
        <ele>83.4</ele>
        <time>2019-08-18T09:05:25Z</time>
      </trkpt>
      <trkpt lat="42.7775600" lon="-8.4053660">
        <ele>83.6</ele>
        <time>2019-08-18T09:05:26Z</time>
      </trkpt>
      <trkpt lat="42.7775570" lon="-8.4054080">
        <ele>83.9</ele>
        <time>2019-08-18T09:05:27Z</time>
      </trkpt>
      <trkpt lat="42.7775100" lon="-8.4056950">
        <ele>85.9</ele>
        <time>2019-08-18T09:08:08Z</time>
      </trkpt>
      <trkpt lat="42.7775000" lon="-8.4057640">
        <ele>86.4</ele>
        <time>2019-08-18T09:08:09Z</time>
      </trkpt>
      <trkpt lat="42.7774950" lon="-8.4057950">
        <ele>86.6</ele>
        <time>2019-08-18T09:08:10Z</time>
      </trkpt>
      <trkpt lat="42.7774860" lon="-8.4058460">
        <ele>86.9</ele>
        <time>2019-08-18T09:08:11Z</time>
      </trkpt>
      <trkpt lat="42.7774790" lon="-8.4058920">
        <ele>87.1</ele>
        <time>2019-08-18T09:08:12Z</time>
      </trkpt>
      <trkpt lat="42.7774760" lon="-8.4059300">
        <ele>87.3</ele>
        <time>2019-08-18T09:08:13Z</time>
      </trkpt>
      <trkpt lat="42.7774730" lon="-8.4059670">
        <ele>87.5</ele>
        <time>2019-08-18T09:08:14Z</time>
      </trkpt>
      <trkpt lat="42.7774710" lon="-8.4060060">
        <ele>87.7</ele>
        <time>2019-08-18T09:08:15Z</time>
      </trkpt>
      <trkpt lat="42.7774670" lon="-8.4060470">
        <ele>87.9</ele>
        <time>2019-08-18T09:08:16Z</time>
      </trkpt>
      <trkpt lat="42.7774640" lon="-8.4060910">
        <ele>88.1</ele>
        <time>2019-08-18T09:08:17Z</time>
      </trkpt>
      <trkpt lat="42.7774590" lon="-8.4061360">
        <ele>88.3</ele>
        <time>2019-08-18T09:08:18Z</time>
      </trkpt>
      <trkpt lat="42.7774540" lon="-8.4061830">
        <ele>88.5</ele>
        <time>2019-08-18T09:08:19Z</time>
      </trkpt>
      <trkpt lat="42.7774490" lon="-8.4062310">
        <ele>88.8</ele>
        <time>2019-08-18T09:08:20Z</time>
      </trkpt>
      <trkpt lat="42.7774420" lon="-8.4062800">
        <ele>89.1</ele>
        <time>2019-08-18T09:08:21Z</time>
      </trkpt>
      <trkpt lat="42.7774340" lon="-8.4063290">
        <ele>89.3</ele>
        <time>2019-08-18T09:08:22Z</time>
      </trkpt>
      <trkpt lat="42.7774190" lon="-8.4064110">
        <ele>89.6</ele>
        <time>2019-08-18T09:08:23Z</time>
      </trkpt>
      <trkpt lat="42.7774120" lon="-8.4064430">
        <ele>89.7</ele>
        <time>2019-08-18T09:08:24Z</time>
      </trkpt>
      <trkpt lat="42.7774050" lon="-8.4064760">
        <ele>89.9</ele>
        <time>2019-08-18T09:08:25Z</time>
      </trkpt>
      <trkpt lat="42.7773930" lon="-8.4065240">
        <ele>90.3</ele>
        <time>2019-08-18T09:08:26Z</time>
      </trkpt>
      <trkpt lat="42.7773800" lon="-8.4065710">
        <ele>90.8</ele>
        <time>2019-08-18T09:08:27Z</time>
      </trkpt>
      <trkpt lat="42.7773660" lon="-8.4066160">
        <ele>91.1</ele>
        <time>2019-08-18T09:08:28Z</time>
      </trkpt>
      <trkpt lat="42.7773500" lon="-8.4066590">
        <ele>91.4</ele>
        <time>2019-08-18T09:08:29Z</time>
      </trkpt>
      <trkpt lat="42.7773330" lon="-8.4067000">
        <ele>91.6</ele>
        <time>2019-08-18T09:08:30Z</time>
      </trkpt>
      <trkpt lat="42.7773150" lon="-8.4067380">
        <ele>91.9</ele>
        <time>2019-08-18T09:08:31Z</time>
      </trkpt>
      <trkpt lat="42.7772960" lon="-8.4067750">
        <ele>92.0</ele>
        <time>2019-08-18T09:08:32Z</time>
      </trkpt>
      <trkpt lat="42.7772760" lon="-8.4068090">
        <ele>92.1</ele>
        <time>2019-08-18T09:08:33Z</time>
      </trkpt>
      <trkpt lat="42.7772570" lon="-8.4068410">
        <ele>92.2</ele>
        <time>2019-08-18T09:08:34Z</time>
      </trkpt>
      <trkpt lat="42.7772390" lon="-8.4068710">
        <ele>92.3</ele>
        <time>2019-08-18T09:08:35Z</time>
      </trkpt>
      <trkpt lat="42.7772210" lon="-8.4068990">
        <ele>92.5</ele>
        <time>2019-08-18T09:08:36Z</time>
      </trkpt>
      <trkpt lat="42.7772050" lon="-8.4069250">
        <ele>92.7</ele>
        <time>2019-08-18T09:08:37Z</time>
      </trkpt>
      <trkpt lat="42.7771900" lon="-8.4069480">
        <ele>92.9</ele>
        <time>2019-08-18T09:08:38Z</time>
      </trkpt>
      <trkpt lat="42.7771770" lon="-8.4069710">
        <ele>93.1</ele>
        <time>2019-08-18T09:08:39Z</time>
      </trkpt>
      <trkpt lat="42.7771650" lon="-8.4069920">
        <ele>93.2</ele>
        <time>2019-08-18T09:08:40Z</time>
      </trkpt>
      <trkpt lat="42.7771540" lon="-8.4070130">
        <ele>93.4</ele>
        <time>2019-08-18T09:08:41Z</time>
      </trkpt>
      <trkpt lat="42.7771440" lon="-8.4070340">
        <ele>93.5</ele>
        <time>2019-08-18T09:08:42Z</time>
      </trkpt>
      <trkpt lat="42.7771350" lon="-8.4070560">
        <ele>93.5</ele>
        <time>2019-08-18T09:08:43Z</time>
      </trkpt>
      <trkpt lat="42.7771270" lon="-8.4070800">
        <ele>93.5</ele>
        <time>2019-08-18T09:08:44Z</time>
      </trkpt>
      <trkpt lat="42.7771190" lon="-8.4071060">
        <ele>93.5</ele>
        <time>2019-08-18T09:08:45Z</time>
      </trkpt>
      <trkpt lat="42.7771120" lon="-8.4071330">
        <ele>93.7</ele>
        <time>2019-08-18T09:08:46Z</time>
      </trkpt>
      <trkpt lat="42.7771060" lon="-8.4071630">
        <ele>93.9</ele>
        <time>2019-08-18T09:08:47Z</time>
      </trkpt>
      <trkpt lat="42.7770990" lon="-8.4071930">
        <ele>94.1</ele>
        <time>2019-08-18T09:08:48Z</time>
      </trkpt>
      <trkpt lat="42.7770940" lon="-8.4072250">
        <ele>94.3</ele>
        <time>2019-08-18T09:08:49Z</time>
      </trkpt>
      <trkpt lat="42.7770890" lon="-8.4072580">
        <ele>94.6</ele>
        <time>2019-08-18T09:08:50Z</time>
      </trkpt>
      <trkpt lat="42.7770850" lon="-8.4072910">
        <ele>94.8</ele>
        <time>2019-08-18T09:08:51Z</time>
      </trkpt>
      <trkpt lat="42.7770810" lon="-8.4073250">
        <ele>95.0</ele>
        <time>2019-08-18T09:08:52Z</time>
      </trkpt>
      <trkpt lat="42.7770780" lon="-8.4073600">
        <ele>95.2</ele>
        <time>2019-08-18T09:08:53Z</time>
      </trkpt>
      <trkpt lat="42.7770750" lon="-8.4073940">
        <ele>95.4</ele>
        <time>2019-08-18T09:08:54Z</time>
      </trkpt>
      <trkpt lat="42.7770720" lon="-8.4074280">
        <ele>95.7</ele>
        <time>2019-08-18T09:08:55Z</time>
      </trkpt>
      <trkpt lat="42.7770690" lon="-8.4074610">
        <ele>95.9</ele>
        <time>2019-08-18T09:08:56Z</time>
      </trkpt>
      <trkpt lat="42.7770660" lon="-8.4074940">
        <ele>96.3</ele>
        <time>2019-08-18T09:08:57Z</time>
      </trkpt>
      <trkpt lat="42.7770630" lon="-8.4075250">
        <ele>96.5</ele>
        <time>2019-08-18T09:08:58Z</time>
      </trkpt>
      <trkpt lat="42.7770590" lon="-8.4075560">
        <ele>96.7</ele>
        <time>2019-08-18T09:08:59Z</time>
      </trkpt>
      <trkpt lat="42.7770550" lon="-8.4075850">
        <ele>96.8</ele>
        <time>2019-08-18T09:09:00Z</time>
      </trkpt>
      <trkpt lat="42.7770510" lon="-8.4076140">
        <ele>97.0</ele>
        <time>2019-08-18T09:09:01Z</time>
      </trkpt>
      <trkpt lat="42.7770480" lon="-8.4076430">
        <ele>97.2</ele>
        <time>2019-08-18T09:09:02Z</time>
      </trkpt>
      <trkpt lat="42.7770450" lon="-8.4076730">
        <ele>97.4</ele>
        <time>2019-08-18T09:09:03Z</time>
      </trkpt>
      <trkpt lat="42.7770420" lon="-8.4077030">
        <ele>97.6</ele>
        <time>2019-08-18T09:09:04Z</time>
      </trkpt>
      <trkpt lat="42.7770400" lon="-8.4077350">
        <ele>97.8</ele>
        <time>2019-08-18T09:09:05Z</time>
      </trkpt>
      <trkpt lat="42.7770380" lon="-8.4077690">
        <ele>98.0</ele>
        <time>2019-08-18T09:09:06Z</time>
      </trkpt>
      <trkpt lat="42.7770370" lon="-8.4078060">
        <ele>98.3</ele>
        <time>2019-08-18T09:09:07Z</time>
      </trkpt>
      <trkpt lat="42.7770350" lon="-8.4078440">
        <ele>98.5</ele>
        <time>2019-08-18T09:09:08Z</time>
      </trkpt>
      <trkpt lat="42.7770340" lon="-8.4078840">
        <ele>98.8</ele>
        <time>2019-08-18T09:09:09Z</time>
      </trkpt>
      <trkpt lat="42.7770320" lon="-8.4079240">
        <ele>99.0</ele>
        <time>2019-08-18T09:09:10Z</time>
      </trkpt>
      <trkpt lat="42.7770310" lon="-8.4079640">
        <ele>99.3</ele>
        <time>2019-08-18T09:09:11Z</time>
      </trkpt>
      <trkpt lat="42.7770300" lon="-8.4080040">
        <ele>99.5</ele>
        <time>2019-08-18T09:09:12Z</time>
      </trkpt>
      <trkpt lat="42.7770300" lon="-8.4080440">
        <ele>99.8</ele>
        <time>2019-08-18T09:09:13Z</time>
      </trkpt>
      <trkpt lat="42.7770310" lon="-8.4080830">
        <ele>100.0</ele>
        <time>2019-08-18T09:09:14Z</time>
      </trkpt>
      <trkpt lat="42.7770320" lon="-8.4081220">
        <ele>100.2</ele>
        <time>2019-08-18T09:09:15Z</time>
      </trkpt>
      <trkpt lat="42.7770340" lon="-8.4081610">
        <ele>100.3</ele>
        <time>2019-08-18T09:09:16Z</time>
      </trkpt>
      <trkpt lat="42.7770370" lon="-8.4082000">
        <ele>100.4</ele>
        <time>2019-08-18T09:09:17Z</time>
      </trkpt>
      <trkpt lat="42.7770410" lon="-8.4082380">
        <ele>100.5</ele>
        <time>2019-08-18T09:09:18Z</time>
      </trkpt>
      <trkpt lat="42.7770450" lon="-8.4082770">
        <ele>100.7</ele>
        <time>2019-08-18T09:09:19Z</time>
      </trkpt>
      <trkpt lat="42.7770500" lon="-8.4083150">
        <ele>100.8</ele>
        <time>2019-08-18T09:09:20Z</time>
      </trkpt>
      <trkpt lat="42.7770550" lon="-8.4083540">
        <ele>100.9</ele>
        <time>2019-08-18T09:09:21Z</time>
      </trkpt>
      <trkpt lat="42.7770600" lon="-8.4083920">
        <ele>101.1</ele>
        <time>2019-08-18T09:09:22Z</time>
      </trkpt>
      <trkpt lat="42.7770660" lon="-8.4084310">
        <ele>101.2</ele>
        <time>2019-08-18T09:09:23Z</time>
      </trkpt>
      <trkpt lat="42.7770720" lon="-8.4084690">
        <ele>101.3</ele>
        <time>2019-08-18T09:09:24Z</time>
      </trkpt>
      <trkpt lat="42.7770790" lon="-8.4085080">
        <ele>101.4</ele>
        <time>2019-08-18T09:09:25Z</time>
      </trkpt>
      <trkpt lat="42.7770860" lon="-8.4085460">
        <ele>101.6</ele>
        <time>2019-08-18T09:09:26Z</time>
      </trkpt>
      <trkpt lat="42.7770930" lon="-8.4085850">
        <ele>101.7</ele>
        <time>2019-08-18T09:09:27Z</time>
      </trkpt>
      <trkpt lat="42.7771000" lon="-8.4086240">
        <ele>101.8</ele>
        <time>2019-08-18T09:09:28Z</time>
      </trkpt>
      <trkpt lat="42.7771070" lon="-8.4086630">
        <ele>102.0</ele>
        <time>2019-08-18T09:09:29Z</time>
      </trkpt>
      <trkpt lat="42.7771150" lon="-8.4087020">
        <ele>102.1</ele>
        <time>2019-08-18T09:09:30Z</time>
      </trkpt>
      <trkpt lat="42.7771230" lon="-8.4087410">
        <ele>102.3</ele>
        <time>2019-08-18T09:09:31Z</time>
      </trkpt>
      <trkpt lat="42.7771310" lon="-8.4087800">
        <ele>102.4</ele>
        <time>2019-08-18T09:09:32Z</time>
      </trkpt>
      <trkpt lat="42.7771400" lon="-8.4088190">
        <ele>102.5</ele>
        <time>2019-08-18T09:09:33Z</time>
      </trkpt>
      <trkpt lat="42.7771500" lon="-8.4088580">
        <ele>102.7</ele>
        <time>2019-08-18T09:09:34Z</time>
      </trkpt>
      <trkpt lat="42.7771600" lon="-8.4088960">
        <ele>102.8</ele>
        <time>2019-08-18T09:09:35Z</time>
      </trkpt>
      <trkpt lat="42.7771720" lon="-8.4089350">
        <ele>102.9</ele>
        <time>2019-08-18T09:09:36Z</time>
      </trkpt>
      <trkpt lat="42.7771830" lon="-8.4089740">
        <ele>103.1</ele>
        <time>2019-08-18T09:09:37Z</time>
      </trkpt>
      <trkpt lat="42.7771960" lon="-8.4090130">
        <ele>103.2</ele>
        <time>2019-08-18T09:09:38Z</time>
      </trkpt>
      <trkpt lat="42.7772080" lon="-8.4090510">
        <ele>103.4</ele>
        <time>2019-08-18T09:09:39Z</time>
      </trkpt>
      <trkpt lat="42.7772210" lon="-8.4090900">
        <ele>103.5</ele>
        <time>2019-08-18T09:09:40Z</time>
      </trkpt>
      <trkpt lat="42.7772340" lon="-8.4091290">
        <ele>103.6</ele>
        <time>2019-08-18T09:09:41Z</time>
      </trkpt>
      <trkpt lat="42.7772470" lon="-8.4091670">
        <ele>103.7</ele>
        <time>2019-08-18T09:09:42Z</time>
      </trkpt>
      <trkpt lat="42.7772590" lon="-8.4092060">
        <ele>103.9</ele>
        <time>2019-08-18T09:09:43Z</time>
      </trkpt>
      <trkpt lat="42.7772710" lon="-8.4092450">
        <ele>104.0</ele>
        <time>2019-08-18T09:09:44Z</time>
      </trkpt>
      <trkpt lat="42.7772840" lon="-8.4092830">
        <ele>104.1</ele>
        <time>2019-08-18T09:09:45Z</time>
      </trkpt>
      <trkpt lat="42.7772970" lon="-8.4093210">
        <ele>104.2</ele>
        <time>2019-08-18T09:09:46Z</time>
      </trkpt>
      <trkpt lat="42.7773100" lon="-8.4093590">
        <ele>104.4</ele>
        <time>2019-08-18T09:09:47Z</time>
      </trkpt>
      <trkpt lat="42.7773240" lon="-8.4093960">
        <ele>104.5</ele>
        <time>2019-08-18T09:09:48Z</time>
      </trkpt>
      <trkpt lat="42.7773390" lon="-8.4094320">
        <ele>104.3</ele>
        <time>2019-08-18T09:09:49Z</time>
      </trkpt>
      <trkpt lat="42.7773550" lon="-8.4094670">
        <ele>104.3</ele>
        <time>2019-08-18T09:09:50Z</time>
      </trkpt>
      <trkpt lat="42.7773720" lon="-8.4095020">
        <ele>104.2</ele>
        <time>2019-08-18T09:09:51Z</time>
      </trkpt>
      <trkpt lat="42.7773910" lon="-8.4095360">
        <ele>104.3</ele>
        <time>2019-08-18T09:09:52Z</time>
      </trkpt>
      <trkpt lat="42.7774090" lon="-8.4095700">
        <ele>104.4</ele>
        <time>2019-08-18T09:09:53Z</time>
      </trkpt>
      <trkpt lat="42.7774290" lon="-8.4096030">
        <ele>104.5</ele>
        <time>2019-08-18T09:09:54Z</time>
      </trkpt>
      <trkpt lat="42.7774490" lon="-8.4096370">
        <ele>104.6</ele>
        <time>2019-08-18T09:09:55Z</time>
      </trkpt>
      <trkpt lat="42.7774690" lon="-8.4096710">
        <ele>104.7</ele>
        <time>2019-08-18T09:09:56Z</time>
      </trkpt>
      <trkpt lat="42.7774900" lon="-8.4097050">
        <ele>104.9</ele>
        <time>2019-08-18T09:09:57Z</time>
      </trkpt>
      <trkpt lat="42.7775110" lon="-8.4097390">
        <ele>105.0</ele>
        <time>2019-08-18T09:09:58Z</time>
      </trkpt>
      <trkpt lat="42.7775320" lon="-8.4097740">
        <ele>105.2</ele>
        <time>2019-08-18T09:09:59Z</time>
      </trkpt>
      <trkpt lat="42.7775530" lon="-8.4098090">
        <ele>105.3</ele>
        <time>2019-08-18T09:10:00Z</time>
      </trkpt>
      <trkpt lat="42.7775750" lon="-8.4098430">
        <ele>105.5</ele>
        <time>2019-08-18T09:10:01Z</time>
      </trkpt>
      <trkpt lat="42.7775960" lon="-8.4098780">
        <ele>105.7</ele>
        <time>2019-08-18T09:10:02Z</time>
      </trkpt>
      <trkpt lat="42.7776170" lon="-8.4099130">
        <ele>105.8</ele>
        <time>2019-08-18T09:10:03Z</time>
      </trkpt>
      <trkpt lat="42.7776380" lon="-8.4099470">
        <ele>106.0</ele>
        <time>2019-08-18T09:10:04Z</time>
      </trkpt>
      <trkpt lat="42.7776590" lon="-8.4099810">
        <ele>106.2</ele>
        <time>2019-08-18T09:10:05Z</time>
      </trkpt>
      <trkpt lat="42.7776800" lon="-8.4100150">
        <ele>106.4</ele>
        <time>2019-08-18T09:10:06Z</time>
      </trkpt>
      <trkpt lat="42.7777010" lon="-8.4100480">
        <ele>106.5</ele>
        <time>2019-08-18T09:10:07Z</time>
      </trkpt>
      <trkpt lat="42.7777210" lon="-8.4100810">
        <ele>106.7</ele>
        <time>2019-08-18T09:10:08Z</time>
      </trkpt>
      <trkpt lat="42.7777410" lon="-8.4101130">
        <ele>106.9</ele>
        <time>2019-08-18T09:10:09Z</time>
      </trkpt>
      <trkpt lat="42.7777610" lon="-8.4101450">
        <ele>107.2</ele>
        <time>2019-08-18T09:10:10Z</time>
      </trkpt>
      <trkpt lat="42.7777820" lon="-8.4101770">
        <ele>107.5</ele>
        <time>2019-08-18T09:10:11Z</time>
      </trkpt>
      <trkpt lat="42.7778010" lon="-8.4102080">
        <ele>107.7</ele>
        <time>2019-08-18T09:10:12Z</time>
      </trkpt>
      <trkpt lat="42.7778210" lon="-8.4102390">
        <ele>107.9</ele>
        <time>2019-08-18T09:10:13Z</time>
      </trkpt>
      <trkpt lat="42.7778410" lon="-8.4102700">
        <ele>108.2</ele>
        <time>2019-08-18T09:10:14Z</time>
      </trkpt>
      <trkpt lat="42.7778610" lon="-8.4103000">
        <ele>108.5</ele>
        <time>2019-08-18T09:10:15Z</time>
      </trkpt>
      <trkpt lat="42.7778800" lon="-8.4103300">
        <ele>108.8</ele>
        <time>2019-08-18T09:10:16Z</time>
      </trkpt>
      <trkpt lat="42.7779000" lon="-8.4103600">
        <ele>109.1</ele>
        <time>2019-08-18T09:10:17Z</time>
      </trkpt>
      <trkpt lat="42.7779190" lon="-8.4103900">
        <ele>109.4</ele>
        <time>2019-08-18T09:10:18Z</time>
      </trkpt>
      <trkpt lat="42.7779390" lon="-8.4104200">
        <ele>109.7</ele>
        <time>2019-08-18T09:10:19Z</time>
      </trkpt>
      <trkpt lat="42.7779580" lon="-8.4104490">
        <ele>109.9</ele>
        <time>2019-08-18T09:10:20Z</time>
      </trkpt>
      <trkpt lat="42.7779780" lon="-8.4104790">
        <ele>110.2</ele>
        <time>2019-08-18T09:10:21Z</time>
      </trkpt>
      <trkpt lat="42.7779970" lon="-8.4105090">
        <ele>110.5</ele>
        <time>2019-08-18T09:10:22Z</time>
      </trkpt>
      <trkpt lat="42.7780160" lon="-8.4105390">
        <ele>110.7</ele>
        <time>2019-08-18T09:10:23Z</time>
      </trkpt>
      <trkpt lat="42.7780360" lon="-8.4105690">
        <ele>111.0</ele>
        <time>2019-08-18T09:10:24Z</time>
      </trkpt>
      <trkpt lat="42.7780550" lon="-8.4105990">
        <ele>111.3</ele>
        <time>2019-08-18T09:10:25Z</time>
      </trkpt>
      <trkpt lat="42.7780750" lon="-8.4106300">
        <ele>111.6</ele>
        <time>2019-08-18T09:10:26Z</time>
      </trkpt>
      <trkpt lat="42.7780940" lon="-8.4106600">
        <ele>111.9</ele>
        <time>2019-08-18T09:10:27Z</time>
      </trkpt>
      <trkpt lat="42.7781130" lon="-8.4106910">
        <ele>112.1</ele>
        <time>2019-08-18T09:10:28Z</time>
      </trkpt>
      <trkpt lat="42.7781330" lon="-8.4107230">
        <ele>112.4</ele>
        <time>2019-08-18T09:10:29Z</time>
      </trkpt>
      <trkpt lat="42.7781520" lon="-8.4107550">
        <ele>112.6</ele>
        <time>2019-08-18T09:10:30Z</time>
      </trkpt>
      <trkpt lat="42.7781710" lon="-8.4107870">
        <ele>112.8</ele>
        <time>2019-08-18T09:10:31Z</time>
      </trkpt>
      <trkpt lat="42.7781900" lon="-8.4108190">
        <ele>113.1</ele>
        <time>2019-08-18T09:10:32Z</time>
      </trkpt>
      <trkpt lat="42.7782090" lon="-8.4108520">
        <ele>113.4</ele>
        <time>2019-08-18T09:10:33Z</time>
      </trkpt>
      <trkpt lat="42.7782280" lon="-8.4108850">
        <ele>113.8</ele>
        <time>2019-08-18T09:10:34Z</time>
      </trkpt>
      <trkpt lat="42.7782460" lon="-8.4109190">
        <ele>114.0</ele>
        <time>2019-08-18T09:10:35Z</time>
      </trkpt>
      <trkpt lat="42.7782640" lon="-8.4109530">
        <ele>114.3</ele>
        <time>2019-08-18T09:10:36Z</time>
      </trkpt>
      <trkpt lat="42.7782820" lon="-8.4109880">
        <ele>114.6</ele>
        <time>2019-08-18T09:10:37Z</time>
      </trkpt>
      <trkpt lat="42.7782990" lon="-8.4110230">
        <ele>114.9</ele>
        <time>2019-08-18T09:10:38Z</time>
      </trkpt>
      <trkpt lat="42.7783160" lon="-8.4110590">
        <ele>115.2</ele>
        <time>2019-08-18T09:10:39Z</time>
      </trkpt>
      <trkpt lat="42.7783320" lon="-8.4110950">
        <ele>115.5</ele>
        <time>2019-08-18T09:10:40Z</time>
      </trkpt>
      <trkpt lat="42.7783480" lon="-8.4111320">
        <ele>115.8</ele>
        <time>2019-08-18T09:10:41Z</time>
      </trkpt>
      <trkpt lat="42.7783630" lon="-8.4111690">
        <ele>116.1</ele>
        <time>2019-08-18T09:10:42Z</time>
      </trkpt>
      <trkpt lat="42.7783780" lon="-8.4112070">
        <ele>116.3</ele>
        <time>2019-08-18T09:10:43Z</time>
      </trkpt>
      <trkpt lat="42.7783920" lon="-8.4112440">
        <ele>116.6</ele>
        <time>2019-08-18T09:10:44Z</time>
      </trkpt>
      <trkpt lat="42.7784040" lon="-8.4112820">
        <ele>116.8</ele>
        <time>2019-08-18T09:10:45Z</time>
      </trkpt>
      <trkpt lat="42.7784160" lon="-8.4113190">
        <ele>117.1</ele>
        <time>2019-08-18T09:10:46Z</time>
      </trkpt>
      <trkpt lat="42.7784270" lon="-8.4113550">
        <ele>117.4</ele>
        <time>2019-08-18T09:10:47Z</time>
      </trkpt>
      <trkpt lat="42.7784370" lon="-8.4113910">
        <ele>117.7</ele>
        <time>2019-08-18T09:10:48Z</time>
      </trkpt>
      <trkpt lat="42.7784450" lon="-8.4114260">
        <ele>117.9</ele>
        <time>2019-08-18T09:10:49Z</time>
      </trkpt>
      <trkpt lat="42.7784520" lon="-8.4114600">
        <ele>118.1</ele>
        <time>2019-08-18T09:10:50Z</time>
      </trkpt>
      <trkpt lat="42.7784580" lon="-8.4114930">
        <ele>118.4</ele>
        <time>2019-08-18T09:10:51Z</time>
      </trkpt>
      <trkpt lat="42.7784650" lon="-8.4115250">
        <ele>118.6</ele>
        <time>2019-08-18T09:10:52Z</time>
      </trkpt>
      <trkpt lat="42.7784720" lon="-8.4115570">
        <ele>118.8</ele>
        <time>2019-08-18T09:10:53Z</time>
      </trkpt>
      <trkpt lat="42.7784790" lon="-8.4115890">
        <ele>119.0</ele>
        <time>2019-08-18T09:10:54Z</time>
      </trkpt>
      <trkpt lat="42.7784870" lon="-8.4116210">
        <ele>119.2</ele>
        <time>2019-08-18T09:10:55Z</time>
      </trkpt>
      <trkpt lat="42.7784970" lon="-8.4116540">
        <ele>119.5</ele>
        <time>2019-08-18T09:10:56Z</time>
      </trkpt>
      <trkpt lat="42.7785080" lon="-8.4116860">
        <ele>119.8</ele>
        <time>2019-08-18T09:10:57Z</time>
      </trkpt>
      <trkpt lat="42.7785190" lon="-8.4117190">
        <ele>120.0</ele>
        <time>2019-08-18T09:10:58Z</time>
      </trkpt>
      <trkpt lat="42.7785300" lon="-8.4117530">
        <ele>120.3</ele>
        <time>2019-08-18T09:10:59Z</time>
      </trkpt>
      <trkpt lat="42.7785420" lon="-8.4117870">
        <ele>120.6</ele>
        <time>2019-08-18T09:11:00Z</time>
      </trkpt>
      <trkpt lat="42.7785530" lon="-8.4118210">
        <ele>120.9</ele>
        <time>2019-08-18T09:11:01Z</time>
      </trkpt>
      <trkpt lat="42.7785620" lon="-8.4118570">
        <ele>121.1</ele>
        <time>2019-08-18T09:11:02Z</time>
      </trkpt>
      <trkpt lat="42.7785710" lon="-8.4118940">
        <ele>121.4</ele>
        <time>2019-08-18T09:11:03Z</time>
      </trkpt>
      <trkpt lat="42.7785780" lon="-8.4119310">
        <ele>121.6</ele>
        <time>2019-08-18T09:11:04Z</time>
      </trkpt>
      <trkpt lat="42.7785830" lon="-8.4119690">
        <ele>121.9</ele>
        <time>2019-08-18T09:11:05Z</time>
      </trkpt>
      <trkpt lat="42.7785870" lon="-8.4120080">
        <ele>122.1</ele>
        <time>2019-08-18T09:11:06Z</time>
      </trkpt>
      <trkpt lat="42.7785910" lon="-8.4120470">
        <ele>122.3</ele>
        <time>2019-08-18T09:11:07Z</time>
      </trkpt>
      <trkpt lat="42.7785950" lon="-8.4120850">
        <ele>122.5</ele>
        <time>2019-08-18T09:11:08Z</time>
      </trkpt>
      <trkpt lat="42.7785990" lon="-8.4121230">
        <ele>122.7</ele>
        <time>2019-08-18T09:11:09Z</time>
      </trkpt>
      <trkpt lat="42.7786030" lon="-8.4121600">
        <ele>122.9</ele>
        <time>2019-08-18T09:11:10Z</time>
      </trkpt>
      <trkpt lat="42.7786090" lon="-8.4121960">
        <ele>123.1</ele>
        <time>2019-08-18T09:11:11Z</time>
      </trkpt>
      <trkpt lat="42.7786150" lon="-8.4122320">
        <ele>123.4</ele>
        <time>2019-08-18T09:11:12Z</time>
      </trkpt>
      <trkpt lat="42.7786220" lon="-8.4122670">
        <ele>123.6</ele>
        <time>2019-08-18T09:11:13Z</time>
      </trkpt>
      <trkpt lat="42.7786280" lon="-8.4123020">
        <ele>123.8</ele>
        <time>2019-08-18T09:11:14Z</time>
      </trkpt>
      <trkpt lat="42.7786340" lon="-8.4123380">
        <ele>124.0</ele>
        <time>2019-08-18T09:11:15Z</time>
      </trkpt>
      <trkpt lat="42.7786380" lon="-8.4123740">
        <ele>124.2</ele>
        <time>2019-08-18T09:11:16Z</time>
      </trkpt>
      <trkpt lat="42.7786420" lon="-8.4124110">
        <ele>124.4</ele>
        <time>2019-08-18T09:11:17Z</time>
      </trkpt>
      <trkpt lat="42.7786440" lon="-8.4124500">
        <ele>124.6</ele>
        <time>2019-08-18T09:11:18Z</time>
      </trkpt>
      <trkpt lat="42.7786440" lon="-8.4124900">
        <ele>125.1</ele>
        <time>2019-08-18T09:11:19Z</time>
      </trkpt>
      <trkpt lat="42.7786430" lon="-8.4125310">
        <ele>125.2</ele>
        <time>2019-08-18T09:11:20Z</time>
      </trkpt>
      <trkpt lat="42.7786400" lon="-8.4125740">
        <ele>125.4</ele>
        <time>2019-08-18T09:11:21Z</time>
      </trkpt>
      <trkpt lat="42.7786370" lon="-8.4126170">
        <ele>125.5</ele>
        <time>2019-08-18T09:11:22Z</time>
      </trkpt>
      <trkpt lat="42.7786330" lon="-8.4126610">
        <ele>125.6</ele>
        <time>2019-08-18T09:11:23Z</time>
      </trkpt>
      <trkpt lat="42.7786280" lon="-8.4127050">
        <ele>125.8</ele>
        <time>2019-08-18T09:11:24Z</time>
      </trkpt>
      <trkpt lat="42.7786220" lon="-8.4127500">
        <ele>125.9</ele>
        <time>2019-08-18T09:11:25Z</time>
      </trkpt>
      <trkpt lat="42.7786160" lon="-8.4127950">
        <ele>126.1</ele>
        <time>2019-08-18T09:11:26Z</time>
      </trkpt>
      <trkpt lat="42.7786090" lon="-8.4128400">
        <ele>126.3</ele>
        <time>2019-08-18T09:11:27Z</time>
      </trkpt>
      <trkpt lat="42.7786030" lon="-8.4128860">
        <ele>126.5</ele>
        <time>2019-08-18T09:11:28Z</time>
      </trkpt>
      <trkpt lat="42.7785950" lon="-8.4129310">
        <ele>126.8</ele>
        <time>2019-08-18T09:11:29Z</time>
      </trkpt>
      <trkpt lat="42.7785880" lon="-8.4129760">
        <ele>127.0</ele>
        <time>2019-08-18T09:11:30Z</time>
      </trkpt>
      <trkpt lat="42.7785800" lon="-8.4130220">
        <ele>127.3</ele>
        <time>2019-08-18T09:11:31Z</time>
      </trkpt>
      <trkpt lat="42.7785730" lon="-8.4130670">
        <ele>127.6</ele>
        <time>2019-08-18T09:11:32Z</time>
      </trkpt>
      <trkpt lat="42.7785650" lon="-8.4131120">
        <ele>127.8</ele>
        <time>2019-08-18T09:11:33Z</time>
      </trkpt>
      <trkpt lat="42.7785570" lon="-8.4131560">
        <ele>128.1</ele>
        <time>2019-08-18T09:11:34Z</time>
      </trkpt>
      <trkpt lat="42.7785490" lon="-8.4132000">
        <ele>128.3</ele>
        <time>2019-08-18T09:11:35Z</time>
      </trkpt>
      <trkpt lat="42.7785410" lon="-8.4132440">
        <ele>128.6</ele>
        <time>2019-08-18T09:11:36Z</time>
      </trkpt>
      <trkpt lat="42.7785340" lon="-8.4132870">
        <ele>128.8</ele>
        <time>2019-08-18T09:11:37Z</time>
      </trkpt>
      <trkpt lat="42.7785260" lon="-8.4133290">
        <ele>129.0</ele>
        <time>2019-08-18T09:11:38Z</time>
      </trkpt>
      <trkpt lat="42.7785190" lon="-8.4133700">
        <ele>129.2</ele>
        <time>2019-08-18T09:11:39Z</time>
      </trkpt>
      <trkpt lat="42.7785120" lon="-8.4134110">
        <ele>129.4</ele>
        <time>2019-08-18T09:11:40Z</time>
      </trkpt>
      <trkpt lat="42.7785050" lon="-8.4134510">
        <ele>129.6</ele>
        <time>2019-08-18T09:11:41Z</time>
      </trkpt>
      <trkpt lat="42.7784990" lon="-8.4134900">
        <ele>129.8</ele>
        <time>2019-08-18T09:11:42Z</time>
      </trkpt>
      <trkpt lat="42.7784920" lon="-8.4135290">
        <ele>130.0</ele>
        <time>2019-08-18T09:11:43Z</time>
      </trkpt>
      <trkpt lat="42.7784860" lon="-8.4135670">
        <ele>130.2</ele>
        <time>2019-08-18T09:11:44Z</time>
      </trkpt>
      <trkpt lat="42.7784800" lon="-8.4136050">
        <ele>130.4</ele>
        <time>2019-08-18T09:11:45Z</time>
      </trkpt>
      <trkpt lat="42.7784730" lon="-8.4136420">
        <ele>130.6</ele>
        <time>2019-08-18T09:11:46Z</time>
      </trkpt>
      <trkpt lat="42.7784660" lon="-8.4136790">
        <ele>130.9</ele>
        <time>2019-08-18T09:11:47Z</time>
      </trkpt>
      <trkpt lat="42.7784590" lon="-8.4137150">
        <ele>131.1</ele>
        <time>2019-08-18T09:11:48Z</time>
      </trkpt>
      <trkpt lat="42.7784520" lon="-8.4137520">
        <ele>131.3</ele>
        <time>2019-08-18T09:11:49Z</time>
      </trkpt>
      <trkpt lat="42.7784440" lon="-8.4137880">
        <ele>131.6</ele>
        <time>2019-08-18T09:11:50Z</time>
      </trkpt>
      <trkpt lat="42.7784360" lon="-8.4138250">
        <ele>131.8</ele>
        <time>2019-08-18T09:11:51Z</time>
      </trkpt>
      <trkpt lat="42.7784270" lon="-8.4138610">
        <ele>132.1</ele>
        <time>2019-08-18T09:11:52Z</time>
      </trkpt>
      <trkpt lat="42.7784180" lon="-8.4138970">
        <ele>132.3</ele>
        <time>2019-08-18T09:11:53Z</time>
      </trkpt>
      <trkpt lat="42.7784080" lon="-8.4139340">
        <ele>132.5</ele>
        <time>2019-08-18T09:11:54Z</time>
      </trkpt>
      <trkpt lat="42.7783980" lon="-8.4139710">
        <ele>132.7</ele>
        <time>2019-08-18T09:11:55Z</time>
      </trkpt>
      <trkpt lat="42.7783870" lon="-8.4140080">
        <ele>132.9</ele>
        <time>2019-08-18T09:11:56Z</time>
      </trkpt>
      <trkpt lat="42.7783750" lon="-8.4140450">
        <ele>133.2</ele>
        <time>2019-08-18T09:11:57Z</time>
      </trkpt>
      <trkpt lat="42.7783630" lon="-8.4140820">
        <ele>133.4</ele>
        <time>2019-08-18T09:11:58Z</time>
      </trkpt>
      <trkpt lat="42.7783500" lon="-8.4141190">
        <ele>133.6</ele>
        <time>2019-08-18T09:11:59Z</time>
      </trkpt>
      <trkpt lat="42.7783360" lon="-8.4141560">
        <ele>134.0</ele>
        <time>2019-08-18T09:12:00Z</time>
      </trkpt>
      <trkpt lat="42.7783220" lon="-8.4141930">
        <ele>134.4</ele>
        <time>2019-08-18T09:12:01Z</time>
      </trkpt>
      <trkpt lat="42.7783080" lon="-8.4142290">
        <ele>134.6</ele>
        <time>2019-08-18T09:12:02Z</time>
      </trkpt>
      <trkpt lat="42.7782930" lon="-8.4142660">
        <ele>134.9</ele>
        <time>2019-08-18T09:12:03Z</time>
      </trkpt>
      <trkpt lat="42.7782780" lon="-8.4143020">
        <ele>135.2</ele>
        <time>2019-08-18T09:12:04Z</time>
      </trkpt>
      <trkpt lat="42.7782620" lon="-8.4143380">
        <ele>135.4</ele>
        <time>2019-08-18T09:12:05Z</time>
      </trkpt>
      <trkpt lat="42.7782460" lon="-8.4143740">
        <ele>135.5</ele>
        <time>2019-08-18T09:12:06Z</time>
      </trkpt>
      <trkpt lat="42.7782290" lon="-8.4144100">
        <ele>135.7</ele>
        <time>2019-08-18T09:12:07Z</time>
      </trkpt>
      <trkpt lat="42.7782120" lon="-8.4144450">
        <ele>135.9</ele>
        <time>2019-08-18T09:12:08Z</time>
      </trkpt>
      <trkpt lat="42.7781950" lon="-8.4144790">
        <ele>136.0</ele>
        <time>2019-08-18T09:12:09Z</time>
      </trkpt>
      <trkpt lat="42.7781780" lon="-8.4145140">
        <ele>136.2</ele>
        <time>2019-08-18T09:12:10Z</time>
      </trkpt>
      <trkpt lat="42.7781600" lon="-8.4145470">
        <ele>136.4</ele>
        <time>2019-08-18T09:12:11Z</time>
      </trkpt>
      <trkpt lat="42.7781420" lon="-8.4145810">
        <ele>136.5</ele>
        <time>2019-08-18T09:12:12Z</time>
      </trkpt>
      <trkpt lat="42.7781230" lon="-8.4146140">
        <ele>136.7</ele>
        <time>2019-08-18T09:12:13Z</time>
      </trkpt>
      <trkpt lat="42.7781050" lon="-8.4146470">
        <ele>136.9</ele>
        <time>2019-08-18T09:12:14Z</time>
      </trkpt>
      <trkpt lat="42.7780860" lon="-8.4146790">
        <ele>137.1</ele>
        <time>2019-08-18T09:12:15Z</time>
      </trkpt>
      <trkpt lat="42.7780670" lon="-8.4147120">
        <ele>137.2</ele>
        <time>2019-08-18T09:12:16Z</time>
      </trkpt>
      <trkpt lat="42.7780480" lon="-8.4147440">
        <ele>137.4</ele>
        <time>2019-08-18T09:12:17Z</time>
      </trkpt>
      <trkpt lat="42.7780280" lon="-8.4147760">
        <ele>137.6</ele>
        <time>2019-08-18T09:12:18Z</time>
      </trkpt>
      <trkpt lat="42.7780090" lon="-8.4148070">
        <ele>137.7</ele>
        <time>2019-08-18T09:12:19Z</time>
      </trkpt>
      <trkpt lat="42.7779890" lon="-8.4148390">
        <ele>137.9</ele>
        <time>2019-08-18T09:12:20Z</time>
      </trkpt>
      <trkpt lat="42.7779690" lon="-8.4148700">
        <ele>138.0</ele>
        <time>2019-08-18T09:12:21Z</time>
      </trkpt>
      <trkpt lat="42.7779500" lon="-8.4149010">
        <ele>138.2</ele>
        <time>2019-08-18T09:12:22Z</time>
      </trkpt>
      <trkpt lat="42.7779300" lon="-8.4149320">
        <ele>138.3</ele>
        <time>2019-08-18T09:12:23Z</time>
      </trkpt>
      <trkpt lat="42.7779100" lon="-8.4149630">
        <ele>138.5</ele>
        <time>2019-08-18T09:12:24Z</time>
      </trkpt>
      <trkpt lat="42.7778900" lon="-8.4149940">
        <ele>138.7</ele>
        <time>2019-08-18T09:12:25Z</time>
      </trkpt>
      <trkpt lat="42.7778700" lon="-8.4150250">
        <ele>138.8</ele>
        <time>2019-08-18T09:12:26Z</time>
      </trkpt>
      <trkpt lat="42.7778500" lon="-8.4150560">
        <ele>139.0</ele>
        <time>2019-08-18T09:12:27Z</time>
      </trkpt>
      <trkpt lat="42.7778290" lon="-8.4150860">
        <ele>139.2</ele>
        <time>2019-08-18T09:12:28Z</time>
      </trkpt>
      <trkpt lat="42.7778090" lon="-8.4151170">
        <ele>139.3</ele>
        <time>2019-08-18T09:12:29Z</time>
      </trkpt>
      <trkpt lat="42.7777890" lon="-8.4151480">
        <ele>139.5</ele>
        <time>2019-08-18T09:12:30Z</time>
      </trkpt>
      <trkpt lat="42.7777690" lon="-8.4151780">
        <ele>139.7</ele>
        <time>2019-08-18T09:12:31Z</time>
      </trkpt>
      <trkpt lat="42.7777490" lon="-8.4152090">
        <ele>139.8</ele>
        <time>2019-08-18T09:12:32Z</time>
      </trkpt>
      <trkpt lat="42.7777290" lon="-8.4152400">
        <ele>140.0</ele>
        <time>2019-08-18T09:12:33Z</time>
      </trkpt>
      <trkpt lat="42.7777090" lon="-8.4152700">
        <ele>140.1</ele>
        <time>2019-08-18T09:12:34Z</time>
      </trkpt>
      <trkpt lat="42.7776880" lon="-8.4153010">
        <ele>140.3</ele>
        <time>2019-08-18T09:12:35Z</time>
      </trkpt>
      <trkpt lat="42.7776680" lon="-8.4153310">
        <ele>140.4</ele>
        <time>2019-08-18T09:12:36Z</time>
      </trkpt>
      <trkpt lat="42.7776480" lon="-8.4153620">
        <ele>140.6</ele>
        <time>2019-08-18T09:12:37Z</time>
      </trkpt>
      <trkpt lat="42.7776280" lon="-8.4153930">
        <ele>140.7</ele>
        <time>2019-08-18T09:12:38Z</time>
      </trkpt>
      <trkpt lat="42.7776080" lon="-8.4154240">
        <ele>140.9</ele>
        <time>2019-08-18T09:12:39Z</time>
      </trkpt>
      <trkpt lat="42.7775880" lon="-8.4154540">
        <ele>141.1</ele>
        <time>2019-08-18T09:12:40Z</time>
      </trkpt>
      <trkpt lat="42.7775680" lon="-8.4154850">
        <ele>141.3</ele>
        <time>2019-08-18T09:12:41Z</time>
      </trkpt>
      <trkpt lat="42.7775480" lon="-8.4155160">
        <ele>141.5</ele>
        <time>2019-08-18T09:12:42Z</time>
      </trkpt>
      <trkpt lat="42.7775290" lon="-8.4155480">
        <ele>141.7</ele>
        <time>2019-08-18T09:12:43Z</time>
      </trkpt>
      <trkpt lat="42.7775090" lon="-8.4155790">
        <ele>141.8</ele>
        <time>2019-08-18T09:12:44Z</time>
      </trkpt>
      <trkpt lat="42.7774890" lon="-8.4156100">
        <ele>142.0</ele>
        <time>2019-08-18T09:12:45Z</time>
      </trkpt>
      <trkpt lat="42.7774700" lon="-8.4156420">
        <ele>142.2</ele>
        <time>2019-08-18T09:12:46Z</time>
      </trkpt>
      <trkpt lat="42.7774500" lon="-8.4156730">
        <ele>142.5</ele>
        <time>2019-08-18T09:12:47Z</time>
      </trkpt>
      <trkpt lat="42.7774310" lon="-8.4157050">
        <ele>142.7</ele>
        <time>2019-08-18T09:12:48Z</time>
      </trkpt>
      <trkpt lat="42.7774110" lon="-8.4157370">
        <ele>142.9</ele>
        <time>2019-08-18T09:12:49Z</time>
      </trkpt>
      <trkpt lat="42.7773920" lon="-8.4157690">
        <ele>143.1</ele>
        <time>2019-08-18T09:12:50Z</time>
      </trkpt>
      <trkpt lat="42.7773730" lon="-8.4158010">
        <ele>143.3</ele>
        <time>2019-08-18T09:12:51Z</time>
      </trkpt>
      <trkpt lat="42.7773540" lon="-8.4158330">
        <ele>143.5</ele>
        <time>2019-08-18T09:12:52Z</time>
      </trkpt>
      <trkpt lat="42.7773350" lon="-8.4158660">
        <ele>143.8</ele>
        <time>2019-08-18T09:12:53Z</time>
      </trkpt>
      <trkpt lat="42.7773160" lon="-8.4158990">
        <ele>144.0</ele>
        <time>2019-08-18T09:12:54Z</time>
      </trkpt>
      <trkpt lat="42.7772980" lon="-8.4159320">
        <ele>144.3</ele>
        <time>2019-08-18T09:12:55Z</time>
      </trkpt>
      <trkpt lat="42.7772800" lon="-8.4159650">
        <ele>144.6</ele>
        <time>2019-08-18T09:12:56Z</time>
      </trkpt>
      <trkpt lat="42.7772620" lon="-8.4159980">
        <ele>144.8</ele>
        <time>2019-08-18T09:12:57Z</time>
      </trkpt>
      <trkpt lat="42.7772440" lon="-8.4160320">
        <ele>145.0</ele>
        <time>2019-08-18T09:12:58Z</time>
      </trkpt>
      <trkpt lat="42.7772270" lon="-8.4160660">
        <ele>145.1</ele>
        <time>2019-08-18T09:12:59Z</time>
      </trkpt>
      <trkpt lat="42.7772100" lon="-8.4161000">
        <ele>145.5</ele>
        <time>2019-08-18T09:13:00Z</time>
      </trkpt>
      <trkpt lat="42.7771930" lon="-8.4161340">
        <ele>145.5</ele>
        <time>2019-08-18T09:13:01Z</time>
      </trkpt>
      <trkpt lat="42.7771770" lon="-8.4161690">
        <ele>145.6</ele>
        <time>2019-08-18T09:13:02Z</time>
      </trkpt>
      <trkpt lat="42.7771620" lon="-8.4162040">
        <ele>145.6</ele>
        <time>2019-08-18T09:13:03Z</time>
      </trkpt>
      <trkpt lat="42.7771470" lon="-8.4162390">
        <ele>145.8</ele>
        <time>2019-08-18T09:13:04Z</time>
      </trkpt>
      <trkpt lat="42.7771330" lon="-8.4162750">
        <ele>146.0</ele>
        <time>2019-08-18T09:13:05Z</time>
      </trkpt>
      <trkpt lat="42.7771190" lon="-8.4163110">
        <ele>146.1</ele>
        <time>2019-08-18T09:13:06Z</time>
      </trkpt>
      <trkpt lat="42.7771060" lon="-8.4163470">
        <ele>146.3</ele>
        <time>2019-08-18T09:13:07Z</time>
      </trkpt>
      <trkpt lat="42.7770940" lon="-8.4163830">
        <ele>146.5</ele>
        <time>2019-08-18T09:13:08Z</time>
      </trkpt>
      <trkpt lat="42.7770820" lon="-8.4164200">
        <ele>146.7</ele>
        <time>2019-08-18T09:13:09Z</time>
      </trkpt>
      <trkpt lat="42.7770710" lon="-8.4164570">
        <ele>146.8</ele>
        <time>2019-08-18T09:13:10Z</time>
      </trkpt>
      <trkpt lat="42.7770600" lon="-8.4164950">
        <ele>147.0</ele>
        <time>2019-08-18T09:13:11Z</time>
      </trkpt>
      <trkpt lat="42.7770480" lon="-8.4165320">
        <ele>147.2</ele>
        <time>2019-08-18T09:13:12Z</time>
      </trkpt>
      <trkpt lat="42.7770370" lon="-8.4165710">
        <ele>147.4</ele>
        <time>2019-08-18T09:13:13Z</time>
      </trkpt>
      <trkpt lat="42.7770260" lon="-8.4166090">
        <ele>147.6</ele>
        <time>2019-08-18T09:13:14Z</time>
      </trkpt>
      <trkpt lat="42.7770150" lon="-8.4166480">
        <ele>147.8</ele>
        <time>2019-08-18T09:13:15Z</time>
      </trkpt>
      <trkpt lat="42.7770050" lon="-8.4166880">
        <ele>147.9</ele>
        <time>2019-08-18T09:13:16Z</time>
      </trkpt>
      <trkpt lat="42.7769950" lon="-8.4167270">
        <ele>148.1</ele>
        <time>2019-08-18T09:13:17Z</time>
      </trkpt>
      <trkpt lat="42.7769850" lon="-8.4167660">
        <ele>148.3</ele>
        <time>2019-08-18T09:13:18Z</time>
      </trkpt>
      <trkpt lat="42.7769750" lon="-8.4168040">
        <ele>148.4</ele>
        <time>2019-08-18T09:13:19Z</time>
      </trkpt>
      <trkpt lat="42.7769660" lon="-8.4168410">
        <ele>148.5</ele>
        <time>2019-08-18T09:13:20Z</time>
      </trkpt>
      <trkpt lat="42.7769580" lon="-8.4168770">
        <ele>148.5</ele>
        <time>2019-08-18T09:13:21Z</time>
      </trkpt>
      <trkpt lat="42.7769490" lon="-8.4169110">
        <ele>148.6</ele>
        <time>2019-08-18T09:13:22Z</time>
      </trkpt>
      <trkpt lat="42.7769410" lon="-8.4169440">
        <ele>148.6</ele>
        <time>2019-08-18T09:13:23Z</time>
      </trkpt>
      <trkpt lat="42.7769330" lon="-8.4169760">
        <ele>148.7</ele>
        <time>2019-08-18T09:13:24Z</time>
      </trkpt>
      <trkpt lat="42.7769260" lon="-8.4170060">
        <ele>148.7</ele>
        <time>2019-08-18T09:13:25Z</time>
      </trkpt>
      <trkpt lat="42.7769180" lon="-8.4170360">
        <ele>148.8</ele>
        <time>2019-08-18T09:13:26Z</time>
      </trkpt>
      <trkpt lat="42.7769110" lon="-8.4170650">
        <ele>148.8</ele>
        <time>2019-08-18T09:13:27Z</time>
      </trkpt>
      <trkpt lat="42.7769040" lon="-8.4170930">
        <ele>148.9</ele>
        <time>2019-08-18T09:13:28Z</time>
      </trkpt>
      <trkpt lat="42.7768970" lon="-8.4171210">
        <ele>148.9</ele>
        <time>2019-08-18T09:13:29Z</time>
      </trkpt>
      <trkpt lat="42.7768910" lon="-8.4171490">
        <ele>149.0</ele>
        <time>2019-08-18T09:13:30Z</time>
      </trkpt>
      <trkpt lat="42.7768840" lon="-8.4171760">
        <ele>149.0</ele>
        <time>2019-08-18T09:13:31Z</time>
      </trkpt>
      <trkpt lat="42.7768770" lon="-8.4172040">
        <ele>149.1</ele>
        <time>2019-08-18T09:13:32Z</time>
      </trkpt>
      <trkpt lat="42.7768700" lon="-8.4172320">
        <ele>149.1</ele>
        <time>2019-08-18T09:13:33Z</time>
      </trkpt>
      <trkpt lat="42.7768640" lon="-8.4172610">
        <ele>149.2</ele>
        <time>2019-08-18T09:13:34Z</time>
      </trkpt>
      <trkpt lat="42.7768570" lon="-8.4172900">
        <ele>149.2</ele>
        <time>2019-08-18T09:13:35Z</time>
      </trkpt>
      <trkpt lat="42.7768500" lon="-8.4173210">
        <ele>149.3</ele>
        <time>2019-08-18T09:13:36Z</time>
      </trkpt>
      <trkpt lat="42.7768420" lon="-8.4173520">
        <ele>149.3</ele>
        <time>2019-08-18T09:13:37Z</time>
      </trkpt>
      <trkpt lat="42.7768350" lon="-8.4173840">
        <ele>149.4</ele>
        <time>2019-08-18T09:13:38Z</time>
      </trkpt>
      <trkpt lat="42.7768280" lon="-8.4174160">
        <ele>149.5</ele>
        <time>2019-08-18T09:13:39Z</time>
      </trkpt>
      <trkpt lat="42.7768200" lon="-8.4174500">
        <ele>149.5</ele>
        <time>2019-08-18T09:13:40Z</time>
      </trkpt>
      <trkpt lat="42.7768130" lon="-8.4174840">
        <ele>149.6</ele>
        <time>2019-08-18T09:13:41Z</time>
      </trkpt>
      <trkpt lat="42.7768050" lon="-8.4175190">
        <ele>149.7</ele>
        <time>2019-08-18T09:13:42Z</time>
      </trkpt>
      <trkpt lat="42.7767970" lon="-8.4175540">
        <ele>149.7</ele>
        <time>2019-08-18T09:13:43Z</time>
      </trkpt>
      <trkpt lat="42.7767890" lon="-8.4175900">
        <ele>149.8</ele>
        <time>2019-08-18T09:13:44Z</time>
      </trkpt>
      <trkpt lat="42.7767810" lon="-8.4176260">
        <ele>149.9</ele>
        <time>2019-08-18T09:13:45Z</time>
      </trkpt>
      <trkpt lat="42.7767730" lon="-8.4176630">
        <ele>150.0</ele>
        <time>2019-08-18T09:13:46Z</time>
      </trkpt>
      <trkpt lat="42.7767650" lon="-8.4176990">
        <ele>150.1</ele>
        <time>2019-08-18T09:13:47Z</time>
      </trkpt>
      <trkpt lat="42.7767570" lon="-8.4177360">
        <ele>150.1</ele>
        <time>2019-08-18T09:13:48Z</time>
      </trkpt>
      <trkpt lat="42.7767490" lon="-8.4177720">
        <ele>150.2</ele>
        <time>2019-08-18T09:13:49Z</time>
      </trkpt>
      <trkpt lat="42.7767410" lon="-8.4178090">
        <ele>150.3</ele>
        <time>2019-08-18T09:13:50Z</time>
      </trkpt>
      <trkpt lat="42.7767330" lon="-8.4178450">
        <ele>150.4</ele>
        <time>2019-08-18T09:13:51Z</time>
      </trkpt>
      <trkpt lat="42.7767250" lon="-8.4178810">
        <ele>150.5</ele>
        <time>2019-08-18T09:13:52Z</time>
      </trkpt>
      <trkpt lat="42.7767170" lon="-8.4179180">
        <ele>150.6</ele>
        <time>2019-08-18T09:13:53Z</time>
      </trkpt>
      <trkpt lat="42.7767090" lon="-8.4179540">
        <ele>150.7</ele>
        <time>2019-08-18T09:13:54Z</time>
      </trkpt>
      <trkpt lat="42.7767010" lon="-8.4179900">
        <ele>150.8</ele>
        <time>2019-08-18T09:13:55Z</time>
      </trkpt>
      <trkpt lat="42.7766930" lon="-8.4180260">
        <ele>150.9</ele>
        <time>2019-08-18T09:13:56Z</time>
      </trkpt>
      <trkpt lat="42.7766850" lon="-8.4180620">
        <ele>151.0</ele>
        <time>2019-08-18T09:13:57Z</time>
      </trkpt>
      <trkpt lat="42.7766770" lon="-8.4180980">
        <ele>151.1</ele>
        <time>2019-08-18T09:13:58Z</time>
      </trkpt>
      <trkpt lat="42.7766690" lon="-8.4181340">
        <ele>151.3</ele>
        <time>2019-08-18T09:13:59Z</time>
      </trkpt>
      <trkpt lat="42.7766610" lon="-8.4181710">
        <ele>151.4</ele>
        <time>2019-08-18T09:14:00Z</time>
      </trkpt>
      <trkpt lat="42.7766530" lon="-8.4182070">
        <ele>151.5</ele>
        <time>2019-08-18T09:14:01Z</time>
      </trkpt>
      <trkpt lat="42.7766450" lon="-8.4182440">
        <ele>151.6</ele>
        <time>2019-08-18T09:14:02Z</time>
      </trkpt>
      <trkpt lat="42.7766370" lon="-8.4182810">
        <ele>151.8</ele>
        <time>2019-08-18T09:14:03Z</time>
      </trkpt>
      <trkpt lat="42.7766290" lon="-8.4183190">
        <ele>151.9</ele>
        <time>2019-08-18T09:14:04Z</time>
      </trkpt>
      <trkpt lat="42.7766210" lon="-8.4183560">
        <ele>152.0</ele>
        <time>2019-08-18T09:14:05Z</time>
      </trkpt>
      <trkpt lat="42.7766130" lon="-8.4183940">
        <ele>152.2</ele>
        <time>2019-08-18T09:14:06Z</time>
      </trkpt>
      <trkpt lat="42.7766050" lon="-8.4184330">
        <ele>152.3</ele>
        <time>2019-08-18T09:14:07Z</time>
      </trkpt>
      <trkpt lat="42.7765970" lon="-8.4184710">
        <ele>152.5</ele>
        <time>2019-08-18T09:14:08Z</time>
      </trkpt>
      <trkpt lat="42.7765880" lon="-8.4185100">
        <ele>152.7</ele>
        <time>2019-08-18T09:14:09Z</time>
      </trkpt>
      <trkpt lat="42.7765800" lon="-8.4185480">
        <ele>152.9</ele>
        <time>2019-08-18T09:14:10Z</time>
      </trkpt>
      <trkpt lat="42.7765720" lon="-8.4185870">
        <ele>153.0</ele>
        <time>2019-08-18T09:14:11Z</time>
      </trkpt>
      <trkpt lat="42.7765640" lon="-8.4186250">
        <ele>153.2</ele>
        <time>2019-08-18T09:14:12Z</time>
      </trkpt>
      <trkpt lat="42.7765560" lon="-8.4186640">
        <ele>153.4</ele>
        <time>2019-08-18T09:14:13Z</time>
      </trkpt>
      <trkpt lat="42.7765480" lon="-8.4187020">
        <ele>153.5</ele>
        <time>2019-08-18T09:14:14Z</time>
      </trkpt>
      <trkpt lat="42.7765400" lon="-8.4187390">
        <ele>153.7</ele>
        <time>2019-08-18T09:14:15Z</time>
      </trkpt>
      <trkpt lat="42.7765330" lon="-8.4187760">
        <ele>153.9</ele>
        <time>2019-08-18T09:14:16Z</time>
      </trkpt>
      <trkpt lat="42.7765250" lon="-8.4188130">
        <ele>154.0</ele>
        <time>2019-08-18T09:14:17Z</time>
      </trkpt>
      <trkpt lat="42.7765180" lon="-8.4188490">
        <ele>154.2</ele>
        <time>2019-08-18T09:14:18Z</time>
      </trkpt>
      <trkpt lat="42.7765100" lon="-8.4188850">
        <ele>154.3</ele>
        <time>2019-08-18T09:14:19Z</time>
      </trkpt>
      <trkpt lat="42.7765030" lon="-8.4189200">
        <ele>154.5</ele>
        <time>2019-08-18T09:14:20Z</time>
      </trkpt>
      <trkpt lat="42.7764960" lon="-8.4189540">
        <ele>154.7</ele>
        <time>2019-08-18T09:14:21Z</time>
      </trkpt>
      <trkpt lat="42.7764890" lon="-8.4189880">
        <ele>154.8</ele>
        <time>2019-08-18T09:14:22Z</time>
      </trkpt>
      <trkpt lat="42.7764820" lon="-8.4190220">
        <ele>155.0</ele>
        <time>2019-08-18T09:14:23Z</time>
      </trkpt>
      <trkpt lat="42.7764750" lon="-8.4190560">
        <ele>155.1</ele>
        <time>2019-08-18T09:14:24Z</time>
      </trkpt>
      <trkpt lat="42.7764680" lon="-8.4190910">
        <ele>155.3</ele>
        <time>2019-08-18T09:14:25Z</time>
      </trkpt>
      <trkpt lat="42.7764620" lon="-8.4191260">
        <ele>155.5</ele>
        <time>2019-08-18T09:14:26Z</time>
      </trkpt>
      <trkpt lat="42.7764550" lon="-8.4191630">
        <ele>155.7</ele>
        <time>2019-08-18T09:14:27Z</time>
      </trkpt>
      <trkpt lat="42.7764480" lon="-8.4192000">
        <ele>155.9</ele>
        <time>2019-08-18T09:14:28Z</time>
      </trkpt>
      <trkpt lat="42.7764400" lon="-8.4192380">
        <ele>156.1</ele>
        <time>2019-08-18T09:14:29Z</time>
      </trkpt>
      <trkpt lat="42.7764330" lon="-8.4192770">
        <ele>156.3</ele>
        <time>2019-08-18T09:14:30Z</time>
      </trkpt>
      <trkpt lat="42.7764260" lon="-8.4193160">
        <ele>156.5</ele>
        <time>2019-08-18T09:14:31Z</time>
      </trkpt>
      <trkpt lat="42.7764180" lon="-8.4193550">
        <ele>156.7</ele>
        <time>2019-08-18T09:14:32Z</time>
      </trkpt>
      <trkpt lat="42.7764110" lon="-8.4193940">
        <ele>157.0</ele>
        <time>2019-08-18T09:14:33Z</time>
      </trkpt>
      <trkpt lat="42.7764030" lon="-8.4194310">
        <ele>157.4</ele>
        <time>2019-08-18T09:14:34Z</time>
      </trkpt>
      <trkpt lat="42.7763950" lon="-8.4194680">
        <ele>157.8</ele>
        <time>2019-08-18T09:14:35Z</time>
      </trkpt>
      <trkpt lat="42.7763860" lon="-8.4195040">
        <ele>158.2</ele>
        <time>2019-08-18T09:14:36Z</time>
      </trkpt>
      <trkpt lat="42.7763780" lon="-8.4195400">
        <ele>158.6</ele>
        <time>2019-08-18T09:14:37Z</time>
      </trkpt>
      <trkpt lat="42.7763700" lon="-8.4195750">
        <ele>159.0</ele>
        <time>2019-08-18T09:14:38Z</time>
      </trkpt>
      <trkpt lat="42.7763620" lon="-8.4196090">
        <ele>159.4</ele>
        <time>2019-08-18T09:14:39Z</time>
      </trkpt>
      <trkpt lat="42.7763540" lon="-8.4196430">
        <ele>159.7</ele>
        <time>2019-08-18T09:14:40Z</time>
      </trkpt>
      <trkpt lat="42.7763460" lon="-8.4196770">
        <ele>160.0</ele>
        <time>2019-08-18T09:14:41Z</time>
      </trkpt>
      <trkpt lat="42.7763390" lon="-8.4197110">
        <ele>160.3</ele>
        <time>2019-08-18T09:14:42Z</time>
      </trkpt>
      <trkpt lat="42.7763320" lon="-8.4197450">
        <ele>160.6</ele>
        <time>2019-08-18T09:14:43Z</time>
      </trkpt>
      <trkpt lat="42.7763250" lon="-8.4197790">
        <ele>160.9</ele>
        <time>2019-08-18T09:14:44Z</time>
      </trkpt>
      <trkpt lat="42.7763180" lon="-8.4198130">
        <ele>161.2</ele>
        <time>2019-08-18T09:14:45Z</time>
      </trkpt>
      <trkpt lat="42.7763110" lon="-8.4198470">
        <ele>161.5</ele>
        <time>2019-08-18T09:14:46Z</time>
      </trkpt>
      <trkpt lat="42.7763040" lon="-8.4198810">
        <ele>161.9</ele>
        <time>2019-08-18T09:14:47Z</time>
      </trkpt>
      <trkpt lat="42.7762970" lon="-8.4199150">
        <ele>162.3</ele>
        <time>2019-08-18T09:14:48Z</time>
      </trkpt>
      <trkpt lat="42.7762900" lon="-8.4199490">
        <ele>162.7</ele>
        <time>2019-08-18T09:14:49Z</time>
      </trkpt>
      <trkpt lat="42.7762830" lon="-8.4199820">
        <ele>163.1</ele>
        <time>2019-08-18T09:14:50Z</time>
      </trkpt>
      <trkpt lat="42.7762760" lon="-8.4200160">
        <ele>163.4</ele>
        <time>2019-08-18T09:14:51Z</time>
      </trkpt>
      <trkpt lat="42.7762680" lon="-8.4200490">
        <ele>163.7</ele>
        <time>2019-08-18T09:14:52Z</time>
      </trkpt>
      <trkpt lat="42.7762610" lon="-8.4200820">
        <ele>164.0</ele>
        <time>2019-08-18T09:14:53Z</time>
      </trkpt>
      <trkpt lat="42.7762540" lon="-8.4201140">
        <ele>164.2</ele>
        <time>2019-08-18T09:14:54Z</time>
      </trkpt>
      <trkpt lat="42.7762470" lon="-8.4201460">
        <ele>164.5</ele>
        <time>2019-08-18T09:14:55Z</time>
      </trkpt>
      <trkpt lat="42.7762390" lon="-8.4201780">
        <ele>164.8</ele>
        <time>2019-08-18T09:14:56Z</time>
      </trkpt>
      <trkpt lat="42.7762320" lon="-8.4202090">
        <ele>165.1</ele>
        <time>2019-08-18T09:14:57Z</time>
      </trkpt>
      <trkpt lat="42.7762260" lon="-8.4202390">
        <ele>165.3</ele>
        <time>2019-08-18T09:14:58Z</time>
      </trkpt>
      <trkpt lat="42.7762190" lon="-8.4202670">
        <ele>165.6</ele>
        <time>2019-08-18T09:14:59Z</time>
      </trkpt>
      <trkpt lat="42.7762120" lon="-8.4202950">
        <ele>165.8</ele>
        <time>2019-08-18T09:15:00Z</time>
      </trkpt>
      <trkpt lat="42.7762050" lon="-8.4203200">
        <ele>166.1</ele>
        <time>2019-08-18T09:15:01Z</time>
      </trkpt>
      <trkpt lat="42.7761980" lon="-8.4203430">
        <ele>166.2</ele>
        <time>2019-08-18T09:15:02Z</time>
      </trkpt>
      <trkpt lat="42.7761910" lon="-8.4203630">
        <ele>166.4</ele>
        <time>2019-08-18T09:15:03Z</time>
      </trkpt>
      <trkpt lat="42.7761840" lon="-8.4203810">
        <ele>166.6</ele>
        <time>2019-08-18T09:15:04Z</time>
      </trkpt>
      <trkpt lat="42.7761770" lon="-8.4203970">
        <ele>166.7</ele>
        <time>2019-08-18T09:15:05Z</time>
      </trkpt>
      <trkpt lat="42.7761690" lon="-8.4204130">
        <ele>166.9</ele>
        <time>2019-08-18T09:15:06Z</time>
      </trkpt>
      <trkpt lat="42.7761620" lon="-8.4204290">
        <ele>167.0</ele>
        <time>2019-08-18T09:15:07Z</time>
      </trkpt>
      <trkpt lat="42.7761550" lon="-8.4204460">
        <ele>167.1</ele>
        <time>2019-08-18T09:15:08Z</time>
      </trkpt>
      <trkpt lat="42.7761480" lon="-8.4204650">
        <ele>167.3</ele>
        <time>2019-08-18T09:15:09Z</time>
      </trkpt>
      <trkpt lat="42.7761410" lon="-8.4204890">
        <ele>167.6</ele>
        <time>2019-08-18T09:15:10Z</time>
      </trkpt>
      <trkpt lat="42.7761340" lon="-8.4205160">
        <ele>167.7</ele>
        <time>2019-08-18T09:15:11Z</time>
      </trkpt>
      <trkpt lat="42.7761270" lon="-8.4205470">
        <ele>167.8</ele>
        <time>2019-08-18T09:15:12Z</time>
      </trkpt>
      <trkpt lat="42.7761200" lon="-8.4205800">
        <ele>168.0</ele>
        <time>2019-08-18T09:15:13Z</time>
      </trkpt>
      <trkpt lat="42.7761140" lon="-8.4206140">
        <ele>168.1</ele>
        <time>2019-08-18T09:15:14Z</time>
      </trkpt>
      <trkpt lat="42.7761080" lon="-8.4206490">
        <ele>168.2</ele>
        <time>2019-08-18T09:15:15Z</time>
      </trkpt>
      <trkpt lat="42.7761020" lon="-8.4206820">
        <ele>168.3</ele>
        <time>2019-08-18T09:15:16Z</time>
      </trkpt>
      <trkpt lat="42.7760960" lon="-8.4207120">
        <ele>168.5</ele>
        <time>2019-08-18T09:15:17Z</time>
      </trkpt>
      <trkpt lat="42.7760910" lon="-8.4207400">
        <ele>168.6</ele>
        <time>2019-08-18T09:15:18Z</time>
      </trkpt>
      <trkpt lat="42.7760860" lon="-8.4207640">
        <ele>168.6</ele>
        <time>2019-08-18T09:15:19Z</time>
      </trkpt>
      <trkpt lat="42.7760810" lon="-8.4207870">
        <ele>168.7</ele>
        <time>2019-08-18T09:15:20Z</time>
      </trkpt>
      <trkpt lat="42.7760760" lon="-8.4208080">
        <ele>168.8</ele>
        <time>2019-08-18T09:15:21Z</time>
      </trkpt>
      <trkpt lat="42.7760720" lon="-8.4208290">
        <ele>168.9</ele>
        <time>2019-08-18T09:15:22Z</time>
      </trkpt>
      <trkpt lat="42.7760670" lon="-8.4208500">
        <ele>169.0</ele>
        <time>2019-08-18T09:15:23Z</time>
      </trkpt>
      <trkpt lat="42.7760620" lon="-8.4208720">
        <ele>169.1</ele>
        <time>2019-08-18T09:15:24Z</time>
      </trkpt>
      <trkpt lat="42.7760570" lon="-8.4208960">
        <ele>169.2</ele>
        <time>2019-08-18T09:15:25Z</time>
      </trkpt>
      <trkpt lat="42.7760520" lon="-8.4209230">
        <ele>169.3</ele>
        <time>2019-08-18T09:15:26Z</time>
      </trkpt>
      <trkpt lat="42.7760460" lon="-8.4209510">
        <ele>169.4</ele>
        <time>2019-08-18T09:15:27Z</time>
      </trkpt>
      <trkpt lat="42.7760410" lon="-8.4209820">
        <ele>169.5</ele>
        <time>2019-08-18T09:15:28Z</time>
      </trkpt>
      <trkpt lat="42.7760350" lon="-8.4210140">
        <ele>169.6</ele>
        <time>2019-08-18T09:15:29Z</time>
      </trkpt>
      <trkpt lat="42.7760290" lon="-8.4210470">
        <ele>169.7</ele>
        <time>2019-08-18T09:15:30Z</time>
      </trkpt>
      <trkpt lat="42.7760230" lon="-8.4210820">
        <ele>169.9</ele>
        <time>2019-08-18T09:15:31Z</time>
      </trkpt>
      <trkpt lat="42.7760160" lon="-8.4211160">
        <ele>170.0</ele>
        <time>2019-08-18T09:15:32Z</time>
      </trkpt>
      <trkpt lat="42.7760100" lon="-8.4211510">
        <ele>170.1</ele>
        <time>2019-08-18T09:15:33Z</time>
      </trkpt>
      <trkpt lat="42.7760030" lon="-8.4211860">
        <ele>170.3</ele>
        <time>2019-08-18T09:15:34Z</time>
      </trkpt>
      <trkpt lat="42.7759970" lon="-8.4212210">
        <ele>170.4</ele>
        <time>2019-08-18T09:15:35Z</time>
      </trkpt>
      <trkpt lat="42.7759900" lon="-8.4212560">
        <ele>170.5</ele>
        <time>2019-08-18T09:15:36Z</time>
      </trkpt>
      <trkpt lat="42.7759840" lon="-8.4212910">
        <ele>170.7</ele>
        <time>2019-08-18T09:15:37Z</time>
      </trkpt>
      <trkpt lat="42.7759770" lon="-8.4213260">
        <ele>170.8</ele>
        <time>2019-08-18T09:15:38Z</time>
      </trkpt>
      <trkpt lat="42.7759710" lon="-8.4213610">
        <ele>170.9</ele>
        <time>2019-08-18T09:15:39Z</time>
      </trkpt>
      <trkpt lat="42.7759650" lon="-8.4213950">
        <ele>171.1</ele>
        <time>2019-08-18T09:15:40Z</time>
      </trkpt>
      <trkpt lat="42.7759580" lon="-8.4214300">
        <ele>171.2</ele>
        <time>2019-08-18T09:15:41Z</time>
      </trkpt>
      <trkpt lat="42.7759520" lon="-8.4214640">
        <ele>171.4</ele>
        <time>2019-08-18T09:15:42Z</time>
      </trkpt>
      <trkpt lat="42.7759460" lon="-8.4214980">
        <ele>171.5</ele>
        <time>2019-08-18T09:15:43Z</time>
      </trkpt>
      <trkpt lat="42.7759400" lon="-8.4215320">
        <ele>171.6</ele>
        <time>2019-08-18T09:15:44Z</time>
      </trkpt>
      <trkpt lat="42.7759340" lon="-8.4215660">
        <ele>171.8</ele>
        <time>2019-08-18T09:15:45Z</time>
      </trkpt>
      <trkpt lat="42.7759280" lon="-8.4216000">
        <ele>171.9</ele>
        <time>2019-08-18T09:15:46Z</time>
      </trkpt>
      <trkpt lat="42.7759230" lon="-8.4216340">
        <ele>172.1</ele>
        <time>2019-08-18T09:15:47Z</time>
      </trkpt>
      <trkpt lat="42.7759170" lon="-8.4216680">
        <ele>172.2</ele>
        <time>2019-08-18T09:15:48Z</time>
      </trkpt>
      <trkpt lat="42.7759110" lon="-8.4217010">
        <ele>172.4</ele>
        <time>2019-08-18T09:15:49Z</time>
      </trkpt>
      <trkpt lat="42.7759060" lon="-8.4217350">
        <ele>172.5</ele>
        <time>2019-08-18T09:15:50Z</time>
      </trkpt>
      <trkpt lat="42.7759000" lon="-8.4217680">
        <ele>172.7</ele>
        <time>2019-08-18T09:15:51Z</time>
      </trkpt>
      <trkpt lat="42.7758940" lon="-8.4218020">
        <ele>172.8</ele>
        <time>2019-08-18T09:15:52Z</time>
      </trkpt>
      <trkpt lat="42.7758890" lon="-8.4218350">
        <ele>173.0</ele>
        <time>2019-08-18T09:15:53Z</time>
      </trkpt>
      <trkpt lat="42.7758830" lon="-8.4218690">
        <ele>173.1</ele>
        <time>2019-08-18T09:15:54Z</time>
      </trkpt>
      <trkpt lat="42.7758770" lon="-8.4219020">
        <ele>173.3</ele>
        <time>2019-08-18T09:15:55Z</time>
      </trkpt>
      <trkpt lat="42.7758710" lon="-8.4219360">
        <ele>173.4</ele>
        <time>2019-08-18T09:15:56Z</time>
      </trkpt>
      <trkpt lat="42.7758660" lon="-8.4219690">
        <ele>173.6</ele>
        <time>2019-08-18T09:15:57Z</time>
      </trkpt>
      <trkpt lat="42.7758600" lon="-8.4220030">
        <ele>173.7</ele>
        <time>2019-08-18T09:15:58Z</time>
      </trkpt>
      <trkpt lat="42.7758540" lon="-8.4220370">
        <ele>173.8</ele>
        <time>2019-08-18T09:15:59Z</time>
      </trkpt>
      <trkpt lat="42.7758470" lon="-8.4220710">
        <ele>173.9</ele>
        <time>2019-08-18T09:16:00Z</time>
      </trkpt>
      <trkpt lat="42.7758410" lon="-8.4221050">
        <ele>173.9</ele>
        <time>2019-08-18T09:16:01Z</time>
      </trkpt>
      <trkpt lat="42.7758350" lon="-8.4221390">
        <ele>174.0</ele>
        <time>2019-08-18T09:16:02Z</time>
      </trkpt>
      <trkpt lat="42.7758280" lon="-8.4221730">
        <ele>174.1</ele>
        <time>2019-08-18T09:16:03Z</time>
      </trkpt>
      <trkpt lat="42.7758210" lon="-8.4222070">
        <ele>174.2</ele>
        <time>2019-08-18T09:16:04Z</time>
      </trkpt>
      <trkpt lat="42.7758150" lon="-8.4222420">
        <ele>174.3</ele>
        <time>2019-08-18T09:16:05Z</time>
      </trkpt>
      <trkpt lat="42.7758080" lon="-8.4222760">
        <ele>174.3</ele>
        <time>2019-08-18T09:16:06Z</time>
      </trkpt>
      <trkpt lat="42.7758020" lon="-8.4223110">
        <ele>174.4</ele>
        <time>2019-08-18T09:16:07Z</time>
      </trkpt>
      <trkpt lat="42.7757960" lon="-8.4223460">
        <ele>174.5</ele>
        <time>2019-08-18T09:16:08Z</time>
      </trkpt>
      <trkpt lat="42.7757900" lon="-8.4223810">
        <ele>174.6</ele>
        <time>2019-08-18T09:16:09Z</time>
      </trkpt>
      <trkpt lat="42.7757840" lon="-8.4224160">
        <ele>174.6</ele>
        <time>2019-08-18T09:16:10Z</time>
      </trkpt>
      <trkpt lat="42.7757780" lon="-8.4224510">
        <ele>174.7</ele>
        <time>2019-08-18T09:16:11Z</time>
      </trkpt>
      <trkpt lat="42.7757730" lon="-8.4224860">
        <ele>174.8</ele>
        <time>2019-08-18T09:16:12Z</time>
      </trkpt>
      <trkpt lat="42.7757690" lon="-8.4225210">
        <ele>174.9</ele>
        <time>2019-08-18T09:16:13Z</time>
      </trkpt>
      <trkpt lat="42.7757650" lon="-8.4225560">
        <ele>175.0</ele>
        <time>2019-08-18T09:16:14Z</time>
      </trkpt>
      <trkpt lat="42.7757610" lon="-8.4225920">
        <ele>175.1</ele>
        <time>2019-08-18T09:16:15Z</time>
      </trkpt>
      <trkpt lat="42.7757580" lon="-8.4226270">
        <ele>175.2</ele>
        <time>2019-08-18T09:16:16Z</time>
      </trkpt>
      <trkpt lat="42.7757560" lon="-8.4226620">
        <ele>175.3</ele>
        <time>2019-08-18T09:16:17Z</time>
      </trkpt>
      <trkpt lat="42.7757540" lon="-8.4226980">
        <ele>175.4</ele>
        <time>2019-08-18T09:16:18Z</time>
      </trkpt>
      <trkpt lat="42.7757530" lon="-8.4227340">
        <ele>175.5</ele>
        <time>2019-08-18T09:16:19Z</time>
      </trkpt>
      <trkpt lat="42.7757520" lon="-8.4227700">
        <ele>175.7</ele>
        <time>2019-08-18T09:16:20Z</time>
      </trkpt>
      <trkpt lat="42.7757510" lon="-8.4228070">
        <ele>175.8</ele>
        <time>2019-08-18T09:16:21Z</time>
      </trkpt>
      <trkpt lat="42.7757510" lon="-8.4228440">
        <ele>175.9</ele>
        <time>2019-08-18T09:16:22Z</time>
      </trkpt>
      <trkpt lat="42.7757500" lon="-8.4228820">
        <ele>176.0</ele>
        <time>2019-08-18T09:16:23Z</time>
      </trkpt>
      <trkpt lat="42.7757500" lon="-8.4229220">
        <ele>176.1</ele>
        <time>2019-08-18T09:16:24Z</time>
      </trkpt>
      <trkpt lat="42.7757490" lon="-8.4229620">
        <ele>176.3</ele>
        <time>2019-08-18T09:16:25Z</time>
      </trkpt>
      <trkpt lat="42.7757490" lon="-8.4230020">
        <ele>176.4</ele>
        <time>2019-08-18T09:16:26Z</time>
      </trkpt>
      <trkpt lat="42.7757480" lon="-8.4230440">
        <ele>176.5</ele>
        <time>2019-08-18T09:16:27Z</time>
      </trkpt>
      <trkpt lat="42.7757480" lon="-8.4230860">
        <ele>176.7</ele>
        <time>2019-08-18T09:16:28Z</time>
      </trkpt>
      <trkpt lat="42.7757470" lon="-8.4231290">
        <ele>176.8</ele>
        <time>2019-08-18T09:16:29Z</time>
      </trkpt>
      <trkpt lat="42.7757470" lon="-8.4231720">
        <ele>176.9</ele>
        <time>2019-08-18T09:16:30Z</time>
      </trkpt>
      <trkpt lat="42.7757470" lon="-8.4232150">
        <ele>177.1</ele>
        <time>2019-08-18T09:16:31Z</time>
      </trkpt>
      <trkpt lat="42.7757470" lon="-8.4232580">
        <ele>177.1</ele>
        <time>2019-08-18T09:16:32Z</time>
      </trkpt>
      <trkpt lat="42.7757480" lon="-8.4233010">
        <ele>177.1</ele>
        <time>2019-08-18T09:16:33Z</time>
      </trkpt>
      <trkpt lat="42.7757490" lon="-8.4233440">
        <ele>177.1</ele>
        <time>2019-08-18T09:16:34Z</time>
      </trkpt>
      <trkpt lat="42.7757500" lon="-8.4233870">
        <ele>177.2</ele>
        <time>2019-08-18T09:16:35Z</time>
      </trkpt>
      <trkpt lat="42.7757510" lon="-8.4234290">
        <ele>177.2</ele>
        <time>2019-08-18T09:16:36Z</time>
      </trkpt>
      <trkpt lat="42.7757530" lon="-8.4234720">
        <ele>177.2</ele>
        <time>2019-08-18T09:16:37Z</time>
      </trkpt>
      <trkpt lat="42.7757560" lon="-8.4235150">
        <ele>177.2</ele>
        <time>2019-08-18T09:16:38Z</time>
      </trkpt>
      <trkpt lat="42.7757590" lon="-8.4235580">
        <ele>177.2</ele>
        <time>2019-08-18T09:16:39Z</time>
      </trkpt>
      <trkpt lat="42.7757620" lon="-8.4236010">
        <ele>177.2</ele>
        <time>2019-08-18T09:16:40Z</time>
      </trkpt>
      <trkpt lat="42.7757660" lon="-8.4236430">
        <ele>177.2</ele>
        <time>2019-08-18T09:16:41Z</time>
      </trkpt>
      <trkpt lat="42.7757700" lon="-8.4236860">
        <ele>177.3</ele>
        <time>2019-08-18T09:16:42Z</time>
      </trkpt>
      <trkpt lat="42.7757750" lon="-8.4237280">
        <ele>177.3</ele>
        <time>2019-08-18T09:16:43Z</time>
      </trkpt>
      <trkpt lat="42.7757810" lon="-8.4237710">
        <ele>177.3</ele>
        <time>2019-08-18T09:16:44Z</time>
      </trkpt>
      <trkpt lat="42.7757870" lon="-8.4238130">
        <ele>177.3</ele>
        <time>2019-08-18T09:16:45Z</time>
      </trkpt>
      <trkpt lat="42.7757940" lon="-8.4238560">
        <ele>177.3</ele>
        <time>2019-08-18T09:16:46Z</time>
      </trkpt>
      <trkpt lat="42.7758010" lon="-8.4238980">
        <ele>177.3</ele>
        <time>2019-08-18T09:16:47Z</time>
      </trkpt>
      <trkpt lat="42.7758090" lon="-8.4239400">
        <ele>177.3</ele>
        <time>2019-08-18T09:16:48Z</time>
      </trkpt>
      <trkpt lat="42.7758170" lon="-8.4239820">
        <ele>177.3</ele>
        <time>2019-08-18T09:16:49Z</time>
      </trkpt>
      <trkpt lat="42.7758260" lon="-8.4240240">
        <ele>177.3</ele>
        <time>2019-08-18T09:16:50Z</time>
      </trkpt>
      <trkpt lat="42.7758360" lon="-8.4240650">
        <ele>177.4</ele>
        <time>2019-08-18T09:16:51Z</time>
      </trkpt>
      <trkpt lat="42.7758460" lon="-8.4241060">
        <ele>177.4</ele>
        <time>2019-08-18T09:16:52Z</time>
      </trkpt>
      <trkpt lat="42.7758560" lon="-8.4241470">
        <ele>177.4</ele>
        <time>2019-08-18T09:16:53Z</time>
      </trkpt>
      <trkpt lat="42.7758660" lon="-8.4241880">
        <ele>177.4</ele>
        <time>2019-08-18T09:16:54Z</time>
      </trkpt>
      <trkpt lat="42.7758770" lon="-8.4242280">
        <ele>177.4</ele>
        <time>2019-08-18T09:16:55Z</time>
      </trkpt>
      <trkpt lat="42.7758880" lon="-8.4242680">
        <ele>177.4</ele>
        <time>2019-08-18T09:16:56Z</time>
      </trkpt>
      <trkpt lat="42.7758990" lon="-8.4243070">
        <ele>177.4</ele>
        <time>2019-08-18T09:16:57Z</time>
      </trkpt>
      <trkpt lat="42.7759100" lon="-8.4243460">
        <ele>177.4</ele>
        <time>2019-08-18T09:16:58Z</time>
      </trkpt>
      <trkpt lat="42.7759210" lon="-8.4243850">
        <ele>177.5</ele>
        <time>2019-08-18T09:16:59Z</time>
      </trkpt>
      <trkpt lat="42.7759320" lon="-8.4244230">
        <ele>177.5</ele>
        <time>2019-08-18T09:17:00Z</time>
      </trkpt>
      <trkpt lat="42.7759440" lon="-8.4244600">
        <ele>177.5</ele>
        <time>2019-08-18T09:17:01Z</time>
      </trkpt>
      <trkpt lat="42.7759550" lon="-8.4244970">
        <ele>177.5</ele>
        <time>2019-08-18T09:17:02Z</time>
      </trkpt>
      <trkpt lat="42.7759670" lon="-8.4245330">
        <ele>177.5</ele>
        <time>2019-08-18T09:17:03Z</time>
      </trkpt>
      <trkpt lat="42.7759780" lon="-8.4245690">
        <ele>177.5</ele>
        <time>2019-08-18T09:17:04Z</time>
      </trkpt>
      <trkpt lat="42.7759900" lon="-8.4246050">
        <ele>177.5</ele>
        <time>2019-08-18T09:17:05Z</time>
      </trkpt>
      <trkpt lat="42.7760020" lon="-8.4246400">
        <ele>177.6</ele>
        <time>2019-08-18T09:17:06Z</time>
      </trkpt>
      <trkpt lat="42.7760140" lon="-8.4246750">
        <ele>177.6</ele>
        <time>2019-08-18T09:17:07Z</time>
      </trkpt>
      <trkpt lat="42.7760260" lon="-8.4247100">
        <ele>177.6</ele>
        <time>2019-08-18T09:17:08Z</time>
      </trkpt>
      <trkpt lat="42.7760390" lon="-8.4247440">
        <ele>177.6</ele>
        <time>2019-08-18T09:17:09Z</time>
      </trkpt>
      <trkpt lat="42.7760520" lon="-8.4247780">
        <ele>177.6</ele>
        <time>2019-08-18T09:17:10Z</time>
      </trkpt>
      <trkpt lat="42.7760650" lon="-8.4248120">
        <ele>177.6</ele>
        <time>2019-08-18T09:17:11Z</time>
      </trkpt>
      <trkpt lat="42.7760790" lon="-8.4248460">
        <ele>177.7</ele>
        <time>2019-08-18T09:17:12Z</time>
      </trkpt>
      <trkpt lat="42.7760930" lon="-8.4248800">
        <ele>177.7</ele>
        <time>2019-08-18T09:17:13Z</time>
      </trkpt>
      <trkpt lat="42.7761080" lon="-8.4249140">
        <ele>177.7</ele>
        <time>2019-08-18T09:17:14Z</time>
      </trkpt>
      <trkpt lat="42.7761230" lon="-8.4249470">
        <ele>177.8</ele>
        <time>2019-08-18T09:17:15Z</time>
      </trkpt>
      <trkpt lat="42.7761390" lon="-8.4249810">
        <ele>177.8</ele>
        <time>2019-08-18T09:17:16Z</time>
      </trkpt>
      <trkpt lat="42.7761550" lon="-8.4250150">
        <ele>177.8</ele>
        <time>2019-08-18T09:17:17Z</time>
      </trkpt>
      <trkpt lat="42.7761720" lon="-8.4250480">
        <ele>177.8</ele>
        <time>2019-08-18T09:17:18Z</time>
      </trkpt>
      <trkpt lat="42.7761890" lon="-8.4250810">
        <ele>177.9</ele>
        <time>2019-08-18T09:17:19Z</time>
      </trkpt>
      <trkpt lat="42.7762060" lon="-8.4251140">
        <ele>177.9</ele>
        <time>2019-08-18T09:17:20Z</time>
      </trkpt>
      <trkpt lat="42.7762240" lon="-8.4251470">
        <ele>177.9</ele>
        <time>2019-08-18T09:17:21Z</time>
      </trkpt>
      <trkpt lat="42.7762420" lon="-8.4251790">
        <ele>178.0</ele>
        <time>2019-08-18T09:17:22Z</time>
      </trkpt>
      <trkpt lat="42.7762600" lon="-8.4252110">
        <ele>178.0</ele>
        <time>2019-08-18T09:17:23Z</time>
      </trkpt>
      <trkpt lat="42.7762780" lon="-8.4252430">
        <ele>178.0</ele>
        <time>2019-08-18T09:17:24Z</time>
      </trkpt>
      <trkpt lat="42.7762960" lon="-8.4252740">
        <ele>178.0</ele>
        <time>2019-08-18T09:17:25Z</time>
      </trkpt>
      <trkpt lat="42.7763150" lon="-8.4253060">
        <ele>178.1</ele>
        <time>2019-08-18T09:17:26Z</time>
      </trkpt>
      <trkpt lat="42.7763350" lon="-8.4253370">
        <ele>178.1</ele>
        <time>2019-08-18T09:17:27Z</time>
      </trkpt>
      <trkpt lat="42.7763550" lon="-8.4253680">
        <ele>178.1</ele>
        <time>2019-08-18T09:17:28Z</time>
      </trkpt>
      <trkpt lat="42.7763760" lon="-8.4254000">
        <ele>178.2</ele>
        <time>2019-08-18T09:17:29Z</time>
      </trkpt>
      <trkpt lat="42.7763970" lon="-8.4254320">
        <ele>178.2</ele>
        <time>2019-08-18T09:17:30Z</time>
      </trkpt>
      <trkpt lat="42.7764200" lon="-8.4254640">
        <ele>178.3</ele>
        <time>2019-08-18T09:17:31Z</time>
      </trkpt>
      <trkpt lat="42.7764420" lon="-8.4254960">
        <ele>178.3</ele>
        <time>2019-08-18T09:17:32Z</time>
      </trkpt>
      <trkpt lat="42.7764660" lon="-8.4255280">
        <ele>178.4</ele>
        <time>2019-08-18T09:17:33Z</time>
      </trkpt>
      <trkpt lat="42.7764900" lon="-8.4255600">
        <ele>178.4</ele>
        <time>2019-08-18T09:17:34Z</time>
      </trkpt>
      <trkpt lat="42.7765140" lon="-8.4255920">
        <ele>178.5</ele>
        <time>2019-08-18T09:17:35Z</time>
      </trkpt>
      <trkpt lat="42.7765390" lon="-8.4256230">
        <ele>178.6</ele>
        <time>2019-08-18T09:17:36Z</time>
      </trkpt>
      <trkpt lat="42.7765640" lon="-8.4256550">
        <ele>179.0</ele>
        <time>2019-08-18T09:17:37Z</time>
      </trkpt>
      <trkpt lat="42.7765900" lon="-8.4256860">
        <ele>179.4</ele>
        <time>2019-08-18T09:17:38Z</time>
      </trkpt>
      <trkpt lat="42.7766160" lon="-8.4257170">
        <ele>179.9</ele>
        <time>2019-08-18T09:17:39Z</time>
      </trkpt>
      <trkpt lat="42.7766420" lon="-8.4257470">
        <ele>180.2</ele>
        <time>2019-08-18T09:17:40Z</time>
      </trkpt>
      <trkpt lat="42.7766680" lon="-8.4257760">
        <ele>180.6</ele>
        <time>2019-08-18T09:17:41Z</time>
      </trkpt>
      <trkpt lat="42.7766950" lon="-8.4258050">
        <ele>181.0</ele>
        <time>2019-08-18T09:17:42Z</time>
      </trkpt>
      <trkpt lat="42.7767210" lon="-8.4258330">
        <ele>181.3</ele>
        <time>2019-08-18T09:17:43Z</time>
      </trkpt>
      <trkpt lat="42.7767480" lon="-8.4258600">
        <ele>181.6</ele>
        <time>2019-08-18T09:17:44Z</time>
      </trkpt>
      <trkpt lat="42.7767750" lon="-8.4258870">
        <ele>181.8</ele>
        <time>2019-08-18T09:17:45Z</time>
      </trkpt>
      <trkpt lat="42.7768020" lon="-8.4259150">
        <ele>182.1</ele>
        <time>2019-08-18T09:17:46Z</time>
      </trkpt>
      <trkpt lat="42.7768300" lon="-8.4259440">
        <ele>182.3</ele>
        <time>2019-08-18T09:17:47Z</time>
      </trkpt>
      <trkpt lat="42.7768590" lon="-8.4259740">
        <ele>182.5</ele>
        <time>2019-08-18T09:17:48Z</time>
      </trkpt>
      <trkpt lat="42.7768880" lon="-8.4260050">
        <ele>182.7</ele>
        <time>2019-08-18T09:17:49Z</time>
      </trkpt>
      <trkpt lat="42.7769190" lon="-8.4260380">
        <ele>182.9</ele>
        <time>2019-08-18T09:17:50Z</time>
      </trkpt>
      <trkpt lat="42.7769510" lon="-8.4260700">
        <ele>183.1</ele>
        <time>2019-08-18T09:17:51Z</time>
      </trkpt>
      <trkpt lat="42.7769830" lon="-8.4261030">
        <ele>183.2</ele>
        <time>2019-08-18T09:17:52Z</time>
      </trkpt>
      <trkpt lat="42.7770160" lon="-8.4261350">
        <ele>183.4</ele>
        <time>2019-08-18T09:17:53Z</time>
      </trkpt>
      <trkpt lat="42.7770500" lon="-8.4261680">
        <ele>183.5</ele>
        <time>2019-08-18T09:17:54Z</time>
      </trkpt>
      <trkpt lat="42.7770840" lon="-8.4262000">
        <ele>183.6</ele>
        <time>2019-08-18T09:17:55Z</time>
      </trkpt>
      <trkpt lat="42.7771180" lon="-8.4262330">
        <ele>183.8</ele>
        <time>2019-08-18T09:17:56Z</time>
      </trkpt>
      <trkpt lat="42.7771520" lon="-8.4262670">
        <ele>184.0</ele>
        <time>2019-08-18T09:17:57Z</time>
      </trkpt>
      <trkpt lat="42.7771860" lon="-8.4263000">
        <ele>184.3</ele>
        <time>2019-08-18T09:17:58Z</time>
      </trkpt>
      <trkpt lat="42.7772200" lon="-8.4263340">
        <ele>184.5</ele>
        <time>2019-08-18T09:17:59Z</time>
      </trkpt>
      <trkpt lat="42.7772540" lon="-8.4263680">
        <ele>184.8</ele>
        <time>2019-08-18T09:18:00Z</time>
      </trkpt>
      <trkpt lat="42.7772870" lon="-8.4264020">
        <ele>185.0</ele>
        <time>2019-08-18T09:18:01Z</time>
      </trkpt>
      <trkpt lat="42.7773200" lon="-8.4264360">
        <ele>185.3</ele>
        <time>2019-08-18T09:18:02Z</time>
      </trkpt>
      <trkpt lat="42.7773520" lon="-8.4264700">
        <ele>185.6</ele>
        <time>2019-08-18T09:18:03Z</time>
      </trkpt>
      <trkpt lat="42.7773840" lon="-8.4265030">
        <ele>185.9</ele>
        <time>2019-08-18T09:18:04Z</time>
      </trkpt>
      <trkpt lat="42.7774150" lon="-8.4265360">
        <ele>186.2</ele>
        <time>2019-08-18T09:18:05Z</time>
      </trkpt>
      <trkpt lat="42.7774450" lon="-8.4265670">
        <ele>186.6</ele>
        <time>2019-08-18T09:18:06Z</time>
      </trkpt>
      <trkpt lat="42.7774750" lon="-8.4265970">
        <ele>186.9</ele>
        <time>2019-08-18T09:18:07Z</time>
      </trkpt>
      <trkpt lat="42.7775040" lon="-8.4266270">
        <ele>187.2</ele>
        <time>2019-08-18T09:18:08Z</time>
      </trkpt>
      <trkpt lat="42.7775320" lon="-8.4266550">
        <ele>187.5</ele>
        <time>2019-08-18T09:18:09Z</time>
      </trkpt>
      <trkpt lat="42.7775590" lon="-8.4266830">
        <ele>187.8</ele>
        <time>2019-08-18T09:18:10Z</time>
      </trkpt>
      <trkpt lat="42.7775850" lon="-8.4267090">
        <ele>188.0</ele>
        <time>2019-08-18T09:18:11Z</time>
      </trkpt>
      <trkpt lat="42.7776100" lon="-8.4267350">
        <ele>188.5</ele>
        <time>2019-08-18T09:18:12Z</time>
      </trkpt>
      <trkpt lat="42.7776330" lon="-8.4267600">
        <ele>188.8</ele>
        <time>2019-08-18T09:18:13Z</time>
      </trkpt>
      <trkpt lat="42.7776550" lon="-8.4267840">
        <ele>189.1</ele>
        <time>2019-08-18T09:18:14Z</time>
      </trkpt>
      <trkpt lat="42.7776760" lon="-8.4268080">
        <ele>189.3</ele>
        <time>2019-08-18T09:18:15Z</time>
      </trkpt>
      <trkpt lat="42.7776960" lon="-8.4268320">
        <ele>189.6</ele>
        <time>2019-08-18T09:18:16Z</time>
      </trkpt>
      <trkpt lat="42.7777150" lon="-8.4268550">
        <ele>189.8</ele>
        <time>2019-08-18T09:18:17Z</time>
      </trkpt>
      <trkpt lat="42.7777350" lon="-8.4268770">
        <ele>190.0</ele>
        <time>2019-08-18T09:18:18Z</time>
      </trkpt>
      <trkpt lat="42.7777540" lon="-8.4269000">
        <ele>190.2</ele>
        <time>2019-08-18T09:18:19Z</time>
      </trkpt>
      <trkpt lat="42.7777750" lon="-8.4269220">
        <ele>190.4</ele>
        <time>2019-08-18T09:18:20Z</time>
      </trkpt>
      <trkpt lat="42.7777960" lon="-8.4269440">
        <ele>190.6</ele>
        <time>2019-08-18T09:18:21Z</time>
      </trkpt>
      <trkpt lat="42.7778180" lon="-8.4269660">
        <ele>190.9</ele>
        <time>2019-08-18T09:18:22Z</time>
      </trkpt>
      <trkpt lat="42.7778420" lon="-8.4269890">
        <ele>191.2</ele>
        <time>2019-08-18T09:18:23Z</time>
      </trkpt>
      <trkpt lat="42.7778660" lon="-8.4270110">
        <ele>191.4</ele>
        <time>2019-08-18T09:18:24Z</time>
      </trkpt>
      <trkpt lat="42.7778900" lon="-8.4270340">
        <ele>191.7</ele>
        <time>2019-08-18T09:18:25Z</time>
      </trkpt>
      <trkpt lat="42.7779150" lon="-8.4270570">
        <ele>192.0</ele>
        <time>2019-08-18T09:18:26Z</time>
      </trkpt>
      <trkpt lat="42.7779390" lon="-8.4270810">
        <ele>192.3</ele>
        <time>2019-08-18T09:18:27Z</time>
      </trkpt>
      <trkpt lat="42.7779630" lon="-8.4271060">
        <ele>192.6</ele>
        <time>2019-08-18T09:18:28Z</time>
      </trkpt>
      <trkpt lat="42.7779860" lon="-8.4271310">
        <ele>192.9</ele>
        <time>2019-08-18T09:18:29Z</time>
      </trkpt>
      <trkpt lat="42.7780090" lon="-8.4271570">
        <ele>193.1</ele>
        <time>2019-08-18T09:18:30Z</time>
      </trkpt>
      <trkpt lat="42.7780310" lon="-8.4271830">
        <ele>193.4</ele>
        <time>2019-08-18T09:18:31Z</time>
      </trkpt>
      <trkpt lat="42.7780540" lon="-8.4272090">
        <ele>193.7</ele>
        <time>2019-08-18T09:18:32Z</time>
      </trkpt>
      <trkpt lat="42.7780760" lon="-8.4272350">
        <ele>194.0</ele>
        <time>2019-08-18T09:18:33Z</time>
      </trkpt>
      <trkpt lat="42.7780980" lon="-8.4272620">
        <ele>194.3</ele>
        <time>2019-08-18T09:18:34Z</time>
      </trkpt>
      <trkpt lat="42.7781210" lon="-8.4272870">
        <ele>194.6</ele>
        <time>2019-08-18T09:18:35Z</time>
      </trkpt>
      <trkpt lat="42.7781440" lon="-8.4273130">
        <ele>194.8</ele>
        <time>2019-08-18T09:18:36Z</time>
      </trkpt>
      <trkpt lat="42.7781670" lon="-8.4273370">
        <ele>195.1</ele>
        <time>2019-08-18T09:18:37Z</time>
      </trkpt>
      <trkpt lat="42.7781900" lon="-8.4273620">
        <ele>195.4</ele>
        <time>2019-08-18T09:18:38Z</time>
      </trkpt>
      <trkpt lat="42.7782130" lon="-8.4273870">
        <ele>195.6</ele>
        <time>2019-08-18T09:18:39Z</time>
      </trkpt>
      <trkpt lat="42.7782360" lon="-8.4274120">
        <ele>195.8</ele>
        <time>2019-08-18T09:18:40Z</time>
      </trkpt>
      <trkpt lat="42.7782590" lon="-8.4274370">
        <ele>196.0</ele>
        <time>2019-08-18T09:18:41Z</time>
      </trkpt>
      <trkpt lat="42.7782810" lon="-8.4274630">
        <ele>196.2</ele>
        <time>2019-08-18T09:18:42Z</time>
      </trkpt>
      <trkpt lat="42.7783020" lon="-8.4274890">
        <ele>196.4</ele>
        <time>2019-08-18T09:18:43Z</time>
      </trkpt>
      <trkpt lat="42.7783230" lon="-8.4275160">
        <ele>196.6</ele>
        <time>2019-08-18T09:18:44Z</time>
      </trkpt>
      <trkpt lat="42.7783430" lon="-8.4275430">
        <ele>196.8</ele>
        <time>2019-08-18T09:18:45Z</time>
      </trkpt>
      <trkpt lat="42.7783640" lon="-8.4275710">
        <ele>197.0</ele>
        <time>2019-08-18T09:18:46Z</time>
      </trkpt>
      <trkpt lat="42.7783840" lon="-8.4275990">
        <ele>197.2</ele>
        <time>2019-08-18T09:18:47Z</time>
      </trkpt>
      <trkpt lat="42.7784040" lon="-8.4276260">
        <ele>197.3</ele>
        <time>2019-08-18T09:18:48Z</time>
      </trkpt>
      <trkpt lat="42.7784250" lon="-8.4276540">
        <ele>197.5</ele>
        <time>2019-08-18T09:18:49Z</time>
      </trkpt>
      <trkpt lat="42.7784460" lon="-8.4276800">
        <ele>197.6</ele>
        <time>2019-08-18T09:18:50Z</time>
      </trkpt>
      <trkpt lat="42.7784690" lon="-8.4277060">
        <ele>197.7</ele>
        <time>2019-08-18T09:18:51Z</time>
      </trkpt>
      <trkpt lat="42.7784910" lon="-8.4277320">
        <ele>197.9</ele>
        <time>2019-08-18T09:18:52Z</time>
      </trkpt>
      <trkpt lat="42.7785150" lon="-8.4277570">
        <ele>198.0</ele>
        <time>2019-08-18T09:18:53Z</time>
      </trkpt>
      <trkpt lat="42.7785390" lon="-8.4277810">
        <ele>198.1</ele>
        <time>2019-08-18T09:18:54Z</time>
      </trkpt>
      <trkpt lat="42.7785630" lon="-8.4278060">
        <ele>198.3</ele>
        <time>2019-08-18T09:18:55Z</time>
      </trkpt>
      <trkpt lat="42.7785870" lon="-8.4278300">
        <ele>198.4</ele>
        <time>2019-08-18T09:18:56Z</time>
      </trkpt>
      <trkpt lat="42.7786110" lon="-8.4278530">
        <ele>198.5</ele>
        <time>2019-08-18T09:18:57Z</time>
      </trkpt>
      <trkpt lat="42.7786360" lon="-8.4278770">
        <ele>198.7</ele>
        <time>2019-08-18T09:18:58Z</time>
      </trkpt>
      <trkpt lat="42.7786600" lon="-8.4279010">
        <ele>198.8</ele>
        <time>2019-08-18T09:18:59Z</time>
      </trkpt>
      <trkpt lat="42.7786850" lon="-8.4279240">
        <ele>199.0</ele>
        <time>2019-08-18T09:19:00Z</time>
      </trkpt>
      <trkpt lat="42.7787090" lon="-8.4279470">
        <ele>199.1</ele>
        <time>2019-08-18T09:19:01Z</time>
      </trkpt>
      <trkpt lat="42.7787330" lon="-8.4279700">
        <ele>199.2</ele>
        <time>2019-08-18T09:19:02Z</time>
      </trkpt>
      <trkpt lat="42.7787580" lon="-8.4279920">
        <ele>199.4</ele>
        <time>2019-08-18T09:19:03Z</time>
      </trkpt>
      <trkpt lat="42.7787820" lon="-8.4280140">
        <ele>199.5</ele>
        <time>2019-08-18T09:19:04Z</time>
      </trkpt>
      <trkpt lat="42.7788070" lon="-8.4280360">
        <ele>199.6</ele>
        <time>2019-08-18T09:19:05Z</time>
      </trkpt>
      <trkpt lat="42.7788320" lon="-8.4280580">
        <ele>199.8</ele>
        <time>2019-08-18T09:19:06Z</time>
      </trkpt>
      <trkpt lat="42.7788570" lon="-8.4280780">
        <ele>199.9</ele>
        <time>2019-08-18T09:19:07Z</time>
      </trkpt>
      <trkpt lat="42.7788820" lon="-8.4280990">
        <ele>200.0</ele>
        <time>2019-08-18T09:19:08Z</time>
      </trkpt>
      <trkpt lat="42.7789070" lon="-8.4281180">
        <ele>200.1</ele>
        <time>2019-08-18T09:19:09Z</time>
      </trkpt>
      <trkpt lat="42.7789330" lon="-8.4281380">
        <ele>200.3</ele>
        <time>2019-08-18T09:19:10Z</time>
      </trkpt>
      <trkpt lat="42.7789590" lon="-8.4281560">
        <ele>200.4</ele>
        <time>2019-08-18T09:19:11Z</time>
      </trkpt>
      <trkpt lat="42.7789850" lon="-8.4281740">
        <ele>200.5</ele>
        <time>2019-08-18T09:19:12Z</time>
      </trkpt>
      <trkpt lat="42.7790110" lon="-8.4281910">
        <ele>200.7</ele>
        <time>2019-08-18T09:19:13Z</time>
      </trkpt>
      <trkpt lat="42.7790380" lon="-8.4282080">
        <ele>200.8</ele>
        <time>2019-08-18T09:19:14Z</time>
      </trkpt>
      <trkpt lat="42.7790650" lon="-8.4282240">
        <ele>201.0</ele>
        <time>2019-08-18T09:19:15Z</time>
      </trkpt>
      <trkpt lat="42.7790920" lon="-8.4282400">
        <ele>201.1</ele>
        <time>2019-08-18T09:19:16Z</time>
      </trkpt>
      <trkpt lat="42.7791180" lon="-8.4282560">
        <ele>201.3</ele>
        <time>2019-08-18T09:19:17Z</time>
      </trkpt>
      <trkpt lat="42.7791450" lon="-8.4282710">
        <ele>201.4</ele>
        <time>2019-08-18T09:19:18Z</time>
      </trkpt>
      <trkpt lat="42.7791720" lon="-8.4282870">
        <ele>201.6</ele>
        <time>2019-08-18T09:19:19Z</time>
      </trkpt>
      <trkpt lat="42.7791980" lon="-8.4283030">
        <ele>201.8</ele>
        <time>2019-08-18T09:19:20Z</time>
      </trkpt>
      <trkpt lat="42.7792250" lon="-8.4283190">
        <ele>201.9</ele>
        <time>2019-08-18T09:19:21Z</time>
      </trkpt>
      <trkpt lat="42.7792510" lon="-8.4283360">
        <ele>202.1</ele>
        <time>2019-08-18T09:19:22Z</time>
      </trkpt>
      <trkpt lat="42.7792770" lon="-8.4283520">
        <ele>202.2</ele>
        <time>2019-08-18T09:19:23Z</time>
      </trkpt>
      <trkpt lat="42.7793020" lon="-8.4283700">
        <ele>202.3</ele>
        <time>2019-08-18T09:19:24Z</time>
      </trkpt>
      <trkpt lat="42.7793280" lon="-8.4283880">
        <ele>202.4</ele>
        <time>2019-08-18T09:19:25Z</time>
      </trkpt>
      <trkpt lat="42.7793520" lon="-8.4284070">
        <ele>202.5</ele>
        <time>2019-08-18T09:19:26Z</time>
      </trkpt>
      <trkpt lat="42.7793770" lon="-8.4284260">
        <ele>202.6</ele>
        <time>2019-08-18T09:19:27Z</time>
      </trkpt>
      <trkpt lat="42.7794010" lon="-8.4284460">
        <ele>202.7</ele>
        <time>2019-08-18T09:19:28Z</time>
      </trkpt>
      <trkpt lat="42.7794240" lon="-8.4284670">
        <ele>202.8</ele>
        <time>2019-08-18T09:19:29Z</time>
      </trkpt>
      <trkpt lat="42.7794490" lon="-8.4284870">
        <ele>202.9</ele>
        <time>2019-08-18T09:19:30Z</time>
      </trkpt>
      <trkpt lat="42.7794730" lon="-8.4285080">
        <ele>203.0</ele>
        <time>2019-08-18T09:19:31Z</time>
      </trkpt>
      <trkpt lat="42.7794980" lon="-8.4285290">
        <ele>203.1</ele>
        <time>2019-08-18T09:19:32Z</time>
      </trkpt>
      <trkpt lat="42.7795230" lon="-8.4285490">
        <ele>203.2</ele>
        <time>2019-08-18T09:19:33Z</time>
      </trkpt>
      <trkpt lat="42.7795500" lon="-8.4285680">
        <ele>203.3</ele>
        <time>2019-08-18T09:19:34Z</time>
      </trkpt>
      <trkpt lat="42.7795770" lon="-8.4285860">
        <ele>203.4</ele>
        <time>2019-08-18T09:19:35Z</time>
      </trkpt>
      <trkpt lat="42.7796050" lon="-8.4286050">
        <ele>203.5</ele>
        <time>2019-08-18T09:19:36Z</time>
      </trkpt>
      <trkpt lat="42.7796330" lon="-8.4286220">
        <ele>203.6</ele>
        <time>2019-08-18T09:19:37Z</time>
      </trkpt>
      <trkpt lat="42.7796620" lon="-8.4286400">
        <ele>203.7</ele>
        <time>2019-08-18T09:19:38Z</time>
      </trkpt>
      <trkpt lat="42.7796900" lon="-8.4286570">
        <ele>203.8</ele>
        <time>2019-08-18T09:19:39Z</time>
      </trkpt>
      <trkpt lat="42.7797170" lon="-8.4286740">
        <ele>203.9</ele>
        <time>2019-08-18T09:19:40Z</time>
      </trkpt>
      <trkpt lat="42.7797440" lon="-8.4286910">
        <ele>204.0</ele>
        <time>2019-08-18T09:19:41Z</time>
      </trkpt>
      <trkpt lat="42.7797710" lon="-8.4287080">
        <ele>204.1</ele>
        <time>2019-08-18T09:19:42Z</time>
      </trkpt>
      <trkpt lat="42.7797970" lon="-8.4287260">
        <ele>204.3</ele>
        <time>2019-08-18T09:19:43Z</time>
      </trkpt>
      <trkpt lat="42.7798220" lon="-8.4287430">
        <ele>204.4</ele>
        <time>2019-08-18T09:19:44Z</time>
      </trkpt>
      <trkpt lat="42.7798470" lon="-8.4287610">
        <ele>204.5</ele>
        <time>2019-08-18T09:19:45Z</time>
      </trkpt>
      <trkpt lat="42.7798720" lon="-8.4287790">
        <ele>204.6</ele>
        <time>2019-08-18T09:19:46Z</time>
      </trkpt>
      <trkpt lat="42.7798970" lon="-8.4287980">
        <ele>204.8</ele>
        <time>2019-08-18T09:19:47Z</time>
      </trkpt>
      <trkpt lat="42.7799210" lon="-8.4288170">
        <ele>204.9</ele>
        <time>2019-08-18T09:19:48Z</time>
      </trkpt>
      <trkpt lat="42.7799450" lon="-8.4288370">
        <ele>205.0</ele>
        <time>2019-08-18T09:19:49Z</time>
      </trkpt>
      <trkpt lat="42.7799680" lon="-8.4288570">
        <ele>205.1</ele>
        <time>2019-08-18T09:19:50Z</time>
      </trkpt>
      <trkpt lat="42.7799920" lon="-8.4288790">
        <ele>205.2</ele>
        <time>2019-08-18T09:19:51Z</time>
      </trkpt>
      <trkpt lat="42.7800160" lon="-8.4289010">
        <ele>205.4</ele>
        <time>2019-08-18T09:19:52Z</time>
      </trkpt>
      <trkpt lat="42.7800390" lon="-8.4289240">
        <ele>205.5</ele>
        <time>2019-08-18T09:19:53Z</time>
      </trkpt>
      <trkpt lat="42.7800630" lon="-8.4289480">
        <ele>205.6</ele>
        <time>2019-08-18T09:19:54Z</time>
      </trkpt>
      <trkpt lat="42.7800860" lon="-8.4289730">
        <ele>205.7</ele>
        <time>2019-08-18T09:19:55Z</time>
      </trkpt>
      <trkpt lat="42.7801100" lon="-8.4290000">
        <ele>205.9</ele>
        <time>2019-08-18T09:19:56Z</time>
      </trkpt>
      <trkpt lat="42.7801340" lon="-8.4290270">
        <ele>206.0</ele>
        <time>2019-08-18T09:19:57Z</time>
      </trkpt>
      <trkpt lat="42.7801580" lon="-8.4290550">
        <ele>206.1</ele>
        <time>2019-08-18T09:19:58Z</time>
      </trkpt>
      <trkpt lat="42.7801820" lon="-8.4290840">
        <ele>206.3</ele>
        <time>2019-08-18T09:19:59Z</time>
      </trkpt>
      <trkpt lat="42.7802050" lon="-8.4291130">
        <ele>206.4</ele>
        <time>2019-08-18T09:20:00Z</time>
      </trkpt>
      <trkpt lat="42.7802290" lon="-8.4291420">
        <ele>206.7</ele>
        <time>2019-08-18T09:20:01Z</time>
      </trkpt>
      <trkpt lat="42.7802520" lon="-8.4291700">
        <ele>206.9</ele>
        <time>2019-08-18T09:20:02Z</time>
      </trkpt>
      <trkpt lat="42.7802750" lon="-8.4291990">
        <ele>207.0</ele>
        <time>2019-08-18T09:20:03Z</time>
      </trkpt>
      <trkpt lat="42.7802980" lon="-8.4292270">
        <ele>207.2</ele>
        <time>2019-08-18T09:20:04Z</time>
      </trkpt>
      <trkpt lat="42.7803180" lon="-8.4292550">
        <ele>207.4</ele>
        <time>2019-08-18T09:20:05Z</time>
      </trkpt>
      <trkpt lat="42.7803350" lon="-8.4292860">
        <ele>207.5</ele>
        <time>2019-08-18T09:20:06Z</time>
      </trkpt>
      <trkpt lat="42.7803500" lon="-8.4293180">
        <ele>207.7</ele>
        <time>2019-08-18T09:20:07Z</time>
      </trkpt>
      <trkpt lat="42.7803660" lon="-8.4293510">
        <ele>207.8</ele>
        <time>2019-08-18T09:20:08Z</time>
      </trkpt>
      <trkpt lat="42.7803830" lon="-8.4293840">
        <ele>208.0</ele>
        <time>2019-08-18T09:20:09Z</time>
      </trkpt>
      <trkpt lat="42.7804000" lon="-8.4294170">
        <ele>208.2</ele>
        <time>2019-08-18T09:20:10Z</time>
      </trkpt>
      <trkpt lat="42.7804180" lon="-8.4294510">
        <ele>208.4</ele>
        <time>2019-08-18T09:20:11Z</time>
      </trkpt>
      <trkpt lat="42.7804350" lon="-8.4294850">
        <ele>208.6</ele>
        <time>2019-08-18T09:20:12Z</time>
      </trkpt>
      <trkpt lat="42.7804520" lon="-8.4295180">
        <ele>208.7</ele>
        <time>2019-08-18T09:20:13Z</time>
      </trkpt>
      <trkpt lat="42.7804690" lon="-8.4295520">
        <ele>208.9</ele>
        <time>2019-08-18T09:20:14Z</time>
      </trkpt>
      <trkpt lat="42.7804860" lon="-8.4295860">
        <ele>209.1</ele>
        <time>2019-08-18T09:20:15Z</time>
      </trkpt>
      <trkpt lat="42.7805030" lon="-8.4296200">
        <ele>209.3</ele>
        <time>2019-08-18T09:20:16Z</time>
      </trkpt>
      <trkpt lat="42.7805190" lon="-8.4296550">
        <ele>209.5</ele>
        <time>2019-08-18T09:20:17Z</time>
      </trkpt>
      <trkpt lat="42.7805350" lon="-8.4296890">
        <ele>209.7</ele>
        <time>2019-08-18T09:20:18Z</time>
      </trkpt>
      <trkpt lat="42.7805510" lon="-8.4297240">
        <ele>209.8</ele>
        <time>2019-08-18T09:20:19Z</time>
      </trkpt>
      <trkpt lat="42.7805660" lon="-8.4297590">
        <ele>210.0</ele>
        <time>2019-08-18T09:20:20Z</time>
      </trkpt>
      <trkpt lat="42.7805810" lon="-8.4297940">
        <ele>210.2</ele>
        <time>2019-08-18T09:20:21Z</time>
      </trkpt>
      <trkpt lat="42.7805950" lon="-8.4298290">
        <ele>210.3</ele>
        <time>2019-08-18T09:20:22Z</time>
      </trkpt>
      <trkpt lat="42.7806090" lon="-8.4298650">
        <ele>210.5</ele>
        <time>2019-08-18T09:20:23Z</time>
      </trkpt>
      <trkpt lat="42.7806220" lon="-8.4299010">
        <ele>210.7</ele>
        <time>2019-08-18T09:20:24Z</time>
      </trkpt>
      <trkpt lat="42.7806350" lon="-8.4299370">
        <ele>211.1</ele>
        <time>2019-08-18T09:20:25Z</time>
      </trkpt>
      <trkpt lat="42.7806470" lon="-8.4299730">
        <ele>211.4</ele>
        <time>2019-08-18T09:20:26Z</time>
      </trkpt>
      <trkpt lat="42.7806590" lon="-8.4300100">
        <ele>211.8</ele>
        <time>2019-08-18T09:20:27Z</time>
      </trkpt>
      <trkpt lat="42.7806700" lon="-8.4300480">
        <ele>212.1</ele>
        <time>2019-08-18T09:20:28Z</time>
      </trkpt>
      <trkpt lat="42.7806800" lon="-8.4300850">
        <ele>212.4</ele>
        <time>2019-08-18T09:20:29Z</time>
      </trkpt>
      <trkpt lat="42.7806900" lon="-8.4301240">
        <ele>212.7</ele>
        <time>2019-08-18T09:20:30Z</time>
      </trkpt>
      <trkpt lat="42.7807000" lon="-8.4301620">
        <ele>213.0</ele>
        <time>2019-08-18T09:20:31Z</time>
      </trkpt>
      <trkpt lat="42.7807080" lon="-8.4302020">
        <ele>213.3</ele>
        <time>2019-08-18T09:20:32Z</time>
      </trkpt>
      <trkpt lat="42.7807170" lon="-8.4302420">
        <ele>213.6</ele>
        <time>2019-08-18T09:20:33Z</time>
      </trkpt>
      <trkpt lat="42.7807250" lon="-8.4302820">
        <ele>213.8</ele>
        <time>2019-08-18T09:20:34Z</time>
      </trkpt>
      <trkpt lat="42.7807320" lon="-8.4303240">
        <ele>214.1</ele>
        <time>2019-08-18T09:20:35Z</time>
      </trkpt>
      <trkpt lat="42.7807400" lon="-8.4303660">
        <ele>214.3</ele>
        <time>2019-08-18T09:20:36Z</time>
      </trkpt>
      <trkpt lat="42.7807460" lon="-8.4304090">
        <ele>214.5</ele>
        <time>2019-08-18T09:20:37Z</time>
      </trkpt>
      <trkpt lat="42.7807530" lon="-8.4304520">
        <ele>214.8</ele>
        <time>2019-08-18T09:20:38Z</time>
      </trkpt>
      <trkpt lat="42.7807590" lon="-8.4304970">
        <ele>215.0</ele>
        <time>2019-08-18T09:20:39Z</time>
      </trkpt>
      <trkpt lat="42.7807650" lon="-8.4305420">
        <ele>215.2</ele>
        <time>2019-08-18T09:20:40Z</time>
      </trkpt>
      <trkpt lat="42.7807700" lon="-8.4305880">
        <ele>215.4</ele>
        <time>2019-08-18T09:20:41Z</time>
      </trkpt>
      <trkpt lat="42.7807750" lon="-8.4306350">
        <ele>215.6</ele>
        <time>2019-08-18T09:20:42Z</time>
      </trkpt>
      <trkpt lat="42.7807800" lon="-8.4306820">
        <ele>215.8</ele>
        <time>2019-08-18T09:20:43Z</time>
      </trkpt>
      <trkpt lat="42.7807830" lon="-8.4307290">
        <ele>215.9</ele>
        <time>2019-08-18T09:20:44Z</time>
      </trkpt>
      <trkpt lat="42.7807870" lon="-8.4307760">
        <ele>216.0</ele>
        <time>2019-08-18T09:20:45Z</time>
      </trkpt>
      <trkpt lat="42.7807900" lon="-8.4308230">
        <ele>216.0</ele>
        <time>2019-08-18T09:20:46Z</time>
      </trkpt>
      <trkpt lat="42.7807930" lon="-8.4308710">
        <ele>216.1</ele>
        <time>2019-08-18T09:20:47Z</time>
      </trkpt>
      <trkpt lat="42.7807960" lon="-8.4309200">
        <ele>216.1</ele>
        <time>2019-08-18T09:20:48Z</time>
      </trkpt>
      <trkpt lat="42.7807990" lon="-8.4309690">
        <ele>216.2</ele>
        <time>2019-08-18T09:20:49Z</time>
      </trkpt>
      <trkpt lat="42.7808030" lon="-8.4310200">
        <ele>216.2</ele>
        <time>2019-08-18T09:20:50Z</time>
      </trkpt>
      <trkpt lat="42.7808060" lon="-8.4310710">
        <ele>216.2</ele>
        <time>2019-08-18T09:20:51Z</time>
      </trkpt>
      <trkpt lat="42.7808090" lon="-8.4311240">
        <ele>216.2</ele>
        <time>2019-08-18T09:20:52Z</time>
      </trkpt>
      <trkpt lat="42.7808130" lon="-8.4311770">
        <ele>216.2</ele>
        <time>2019-08-18T09:20:53Z</time>
      </trkpt>
      <trkpt lat="42.7808160" lon="-8.4312310">
        <ele>216.2</ele>
        <time>2019-08-18T09:20:54Z</time>
      </trkpt>
      <trkpt lat="42.7808190" lon="-8.4312870">
        <ele>216.2</ele>
        <time>2019-08-18T09:20:55Z</time>
      </trkpt>
      <trkpt lat="42.7808220" lon="-8.4313430">
        <ele>216.1</ele>
        <time>2019-08-18T09:20:56Z</time>
      </trkpt>
      <trkpt lat="42.7808260" lon="-8.4313980">
        <ele>216.1</ele>
        <time>2019-08-18T09:20:57Z</time>
      </trkpt>
      <trkpt lat="42.7808290" lon="-8.4314540">
        <ele>216.1</ele>
        <time>2019-08-18T09:20:58Z</time>
      </trkpt>
      <trkpt lat="42.7808320" lon="-8.4315080">
        <ele>216.1</ele>
        <time>2019-08-18T09:20:59Z</time>
      </trkpt>
      <trkpt lat="42.7808350" lon="-8.4315600">
        <ele>216.0</ele>
        <time>2019-08-18T09:21:00Z</time>
      </trkpt>
      <trkpt lat="42.7808380" lon="-8.4316100">
        <ele>216.0</ele>
        <time>2019-08-18T09:21:01Z</time>
      </trkpt>
      <trkpt lat="42.7808410" lon="-8.4316570">
        <ele>216.0</ele>
        <time>2019-08-18T09:21:02Z</time>
      </trkpt>
      <trkpt lat="42.7808440" lon="-8.4317020">
        <ele>215.9</ele>
        <time>2019-08-18T09:21:03Z</time>
      </trkpt>
      <trkpt lat="42.7808470" lon="-8.4317480">
        <ele>215.9</ele>
        <time>2019-08-18T09:21:04Z</time>
      </trkpt>
      <trkpt lat="42.7808510" lon="-8.4317950">
        <ele>215.9</ele>
        <time>2019-08-18T09:21:05Z</time>
      </trkpt>
      <trkpt lat="42.7808570" lon="-8.4318450">
        <ele>215.8</ele>
        <time>2019-08-18T09:21:06Z</time>
      </trkpt>
      <trkpt lat="42.7808630" lon="-8.4318970">
        <ele>215.7</ele>
        <time>2019-08-18T09:21:07Z</time>
      </trkpt>
      <trkpt lat="42.7808700" lon="-8.4319510">
        <ele>215.7</ele>
        <time>2019-08-18T09:21:08Z</time>
      </trkpt>
      <trkpt lat="42.7808770" lon="-8.4320060">
        <ele>215.6</ele>
        <time>2019-08-18T09:21:09Z</time>
      </trkpt>
      <trkpt lat="42.7808860" lon="-8.4320620">
        <ele>215.5</ele>
        <time>2019-08-18T09:21:10Z</time>
      </trkpt>
      <trkpt lat="42.7808960" lon="-8.4321200">
        <ele>215.4</ele>
        <time>2019-08-18T09:21:11Z</time>
      </trkpt>
      <trkpt lat="42.7809070" lon="-8.4321790">
        <ele>215.2</ele>
        <time>2019-08-18T09:21:12Z</time>
      </trkpt>
      <trkpt lat="42.7809190" lon="-8.4322390">
        <ele>215.1</ele>
        <time>2019-08-18T09:21:13Z</time>
      </trkpt>
      <trkpt lat="42.7809320" lon="-8.4323000">
        <ele>214.9</ele>
        <time>2019-08-18T09:21:14Z</time>
      </trkpt>
      <trkpt lat="42.7809460" lon="-8.4323600">
        <ele>214.8</ele>
        <time>2019-08-18T09:21:15Z</time>
      </trkpt>
      <trkpt lat="42.7809590" lon="-8.4324180">
        <ele>214.7</ele>
        <time>2019-08-18T09:21:16Z</time>
      </trkpt>
      <trkpt lat="42.7809710" lon="-8.4324730">
        <ele>214.5</ele>
        <time>2019-08-18T09:21:17Z</time>
      </trkpt>
      <trkpt lat="42.7809830" lon="-8.4325260">
        <ele>214.4</ele>
        <time>2019-08-18T09:21:18Z</time>
      </trkpt>
      <trkpt lat="42.7809960" lon="-8.4325790">
        <ele>214.3</ele>
        <time>2019-08-18T09:21:19Z</time>
      </trkpt>
      <trkpt lat="42.7810100" lon="-8.4326310">
        <ele>214.1</ele>
        <time>2019-08-18T09:21:20Z</time>
      </trkpt>
      <trkpt lat="42.7810250" lon="-8.4326840">
        <ele>214.0</ele>
        <time>2019-08-18T09:21:21Z</time>
      </trkpt>
      <trkpt lat="42.7810430" lon="-8.4327380">
        <ele>213.8</ele>
        <time>2019-08-18T09:21:22Z</time>
      </trkpt>
      <trkpt lat="42.7810620" lon="-8.4327930">
        <ele>213.6</ele>
        <time>2019-08-18T09:21:23Z</time>
      </trkpt>
      <trkpt lat="42.7810830" lon="-8.4328510">
        <ele>213.4</ele>
        <time>2019-08-18T09:21:24Z</time>
      </trkpt>
      <trkpt lat="42.7811060" lon="-8.4329090">
        <ele>213.1</ele>
        <time>2019-08-18T09:21:25Z</time>
      </trkpt>
      <trkpt lat="42.7811300" lon="-8.4329680">
        <ele>212.8</ele>
        <time>2019-08-18T09:21:26Z</time>
      </trkpt>
      <trkpt lat="42.7811550" lon="-8.4330280">
        <ele>212.4</ele>
        <time>2019-08-18T09:21:27Z</time>
      </trkpt>
      <trkpt lat="42.7811820" lon="-8.4330880">
        <ele>212.0</ele>
        <time>2019-08-18T09:21:28Z</time>
      </trkpt>
      <trkpt lat="42.7812250" lon="-8.4331760">
        <ele>211.4</ele>
        <time>2019-08-18T09:21:29Z</time>
      </trkpt>
      <trkpt lat="42.7812390" lon="-8.4332050">
        <ele>211.1</ele>
        <time>2019-08-18T09:21:30Z</time>
      </trkpt>
      <trkpt lat="42.7812690" lon="-8.4332630">
        <ele>210.6</ele>
        <time>2019-08-18T09:21:31Z</time>
      </trkpt>
      <trkpt lat="42.7813000" lon="-8.4333190">
        <ele>210.0</ele>
        <time>2019-08-18T09:21:32Z</time>
      </trkpt>
      <trkpt lat="42.7813320" lon="-8.4333740">
        <ele>209.4</ele>
        <time>2019-08-18T09:21:33Z</time>
      </trkpt>
      <trkpt lat="42.7813650" lon="-8.4334280">
        <ele>208.8</ele>
        <time>2019-08-18T09:21:34Z</time>
      </trkpt>
      <trkpt lat="42.7814000" lon="-8.4334810">
        <ele>208.2</ele>
        <time>2019-08-18T09:21:35Z</time>
      </trkpt>
      <trkpt lat="42.7814360" lon="-8.4335330">
        <ele>208.0</ele>
        <time>2019-08-18T09:21:36Z</time>
      </trkpt>
      <trkpt lat="42.7814730" lon="-8.4335840">
        <ele>207.9</ele>
        <time>2019-08-18T09:21:37Z</time>
      </trkpt>
      <trkpt lat="42.7815120" lon="-8.4336340">
        <ele>207.9</ele>
        <time>2019-08-18T09:21:38Z</time>
      </trkpt>
      <trkpt lat="42.7815520" lon="-8.4336830">
        <ele>207.8</ele>
        <time>2019-08-18T09:21:39Z</time>
      </trkpt>
      <trkpt lat="42.7815930" lon="-8.4337320">
        <ele>207.7</ele>
        <time>2019-08-18T09:21:40Z</time>
      </trkpt>
      <trkpt lat="42.7816360" lon="-8.4337810">
        <ele>207.5</ele>
        <time>2019-08-18T09:21:41Z</time>
      </trkpt>
      <trkpt lat="42.7816800" lon="-8.4338300">
        <ele>207.4</ele>
        <time>2019-08-18T09:21:42Z</time>
      </trkpt>
      <trkpt lat="42.7817250" lon="-8.4338790">
        <ele>207.2</ele>
        <time>2019-08-18T09:21:43Z</time>
      </trkpt>
      <trkpt lat="42.7817710" lon="-8.4339290">
        <ele>207.1</ele>
        <time>2019-08-18T09:21:44Z</time>
      </trkpt>
      <trkpt lat="42.7818180" lon="-8.4339800">
        <ele>206.9</ele>
        <time>2019-08-18T09:21:45Z</time>
      </trkpt>
      <trkpt lat="42.7818650" lon="-8.4340310">
        <ele>206.7</ele>
        <time>2019-08-18T09:21:46Z</time>
      </trkpt>
      <trkpt lat="42.7819140" lon="-8.4340840">
        <ele>206.5</ele>
        <time>2019-08-18T09:21:47Z</time>
      </trkpt>
      <trkpt lat="42.7819620" lon="-8.4341370">
        <ele>206.3</ele>
        <time>2019-08-18T09:21:48Z</time>
      </trkpt>
      <trkpt lat="42.7820110" lon="-8.4341900">
        <ele>206.1</ele>
        <time>2019-08-18T09:21:49Z</time>
      </trkpt>
      <trkpt lat="42.7820600" lon="-8.4342430">
        <ele>205.9</ele>
        <time>2019-08-18T09:21:50Z</time>
      </trkpt>
      <trkpt lat="42.7821080" lon="-8.4342950">
        <ele>205.6</ele>
        <time>2019-08-18T09:21:51Z</time>
      </trkpt>
      <trkpt lat="42.7821560" lon="-8.4343460">
        <ele>205.4</ele>
        <time>2019-08-18T09:21:52Z</time>
      </trkpt>
      <trkpt lat="42.7822020" lon="-8.4343960">
        <ele>205.1</ele>
        <time>2019-08-18T09:21:53Z</time>
      </trkpt>
      <trkpt lat="42.7822480" lon="-8.4344450">
        <ele>205.4</ele>
        <time>2019-08-18T09:21:54Z</time>
      </trkpt>
      <trkpt lat="42.7822930" lon="-8.4344920">
        <ele>205.8</ele>
        <time>2019-08-18T09:21:55Z</time>
      </trkpt>
      <trkpt lat="42.7823370" lon="-8.4345390">
        <ele>206.2</ele>
        <time>2019-08-18T09:21:56Z</time>
      </trkpt>
      <trkpt lat="42.7823810" lon="-8.4345850">
        <ele>206.5</ele>
        <time>2019-08-18T09:21:57Z</time>
      </trkpt>
      <trkpt lat="42.7824230" lon="-8.4346310">
        <ele>206.9</ele>
        <time>2019-08-18T09:21:58Z</time>
      </trkpt>
      <trkpt lat="42.7824660" lon="-8.4346760">
        <ele>207.2</ele>
        <time>2019-08-18T09:21:59Z</time>
      </trkpt>
      <trkpt lat="42.7825080" lon="-8.4347210">
        <ele>207.5</ele>
        <time>2019-08-18T09:22:00Z</time>
      </trkpt>
      <trkpt lat="42.7825490" lon="-8.4347660">
        <ele>207.9</ele>
        <time>2019-08-18T09:22:01Z</time>
      </trkpt>
      <trkpt lat="42.7825900" lon="-8.4348110">
        <ele>208.2</ele>
        <time>2019-08-18T09:22:02Z</time>
      </trkpt>
      <trkpt lat="42.7826300" lon="-8.4348550">
        <ele>208.5</ele>
        <time>2019-08-18T09:22:03Z</time>
      </trkpt>
      <trkpt lat="42.7826700" lon="-8.4348990">
        <ele>208.8</ele>
        <time>2019-08-18T09:22:04Z</time>
      </trkpt>
      <trkpt lat="42.7827090" lon="-8.4349430">
        <ele>209.1</ele>
        <time>2019-08-18T09:22:05Z</time>
      </trkpt>
      <trkpt lat="42.7827460" lon="-8.4349870">
        <ele>209.3</ele>
        <time>2019-08-18T09:22:06Z</time>
      </trkpt>
      <trkpt lat="42.7827830" lon="-8.4350300">
        <ele>209.6</ele>
        <time>2019-08-18T09:22:07Z</time>
      </trkpt>
      <trkpt lat="42.7828190" lon="-8.4350720">
        <ele>209.9</ele>
        <time>2019-08-18T09:22:08Z</time>
      </trkpt>
      <trkpt lat="42.7828530" lon="-8.4351150">
        <ele>210.1</ele>
        <time>2019-08-18T09:22:09Z</time>
      </trkpt>
      <trkpt lat="42.7828870" lon="-8.4351560">
        <ele>210.4</ele>
        <time>2019-08-18T09:22:10Z</time>
      </trkpt>
      <trkpt lat="42.7829190" lon="-8.4351970">
        <ele>210.6</ele>
        <time>2019-08-18T09:22:11Z</time>
      </trkpt>
      <trkpt lat="42.7829510" lon="-8.4352380">
        <ele>210.8</ele>
        <time>2019-08-18T09:22:12Z</time>
      </trkpt>
      <trkpt lat="42.7829820" lon="-8.4352790">
        <ele>211.0</ele>
        <time>2019-08-18T09:22:13Z</time>
      </trkpt>
      <trkpt lat="42.7830120" lon="-8.4353190">
        <ele>211.2</ele>
        <time>2019-08-18T09:22:14Z</time>
      </trkpt>
      <trkpt lat="42.7830410" lon="-8.4353590">
        <ele>211.4</ele>
        <time>2019-08-18T09:22:15Z</time>
      </trkpt>
      <trkpt lat="42.7830700" lon="-8.4353980">
        <ele>211.6</ele>
        <time>2019-08-18T09:22:16Z</time>
      </trkpt>
      <trkpt lat="42.7830980" lon="-8.4354380">
        <ele>211.8</ele>
        <time>2019-08-18T09:22:17Z</time>
      </trkpt>
      <trkpt lat="42.7831250" lon="-8.4354770">
        <ele>211.9</ele>
        <time>2019-08-18T09:22:18Z</time>
      </trkpt>
      <trkpt lat="42.7831520" lon="-8.4355170">
        <ele>212.1</ele>
        <time>2019-08-18T09:22:19Z</time>
      </trkpt>
      <trkpt lat="42.7831780" lon="-8.4355560">
        <ele>212.3</ele>
        <time>2019-08-18T09:22:20Z</time>
      </trkpt>
      <trkpt lat="42.7832040" lon="-8.4355950">
        <ele>212.4</ele>
        <time>2019-08-18T09:22:21Z</time>
      </trkpt>
      <trkpt lat="42.7832300" lon="-8.4356340">
        <ele>212.6</ele>
        <time>2019-08-18T09:22:22Z</time>
      </trkpt>
      <trkpt lat="42.7832560" lon="-8.4356730">
        <ele>212.7</ele>
        <time>2019-08-18T09:22:23Z</time>
      </trkpt>
      <trkpt lat="42.7832810" lon="-8.4357130">
        <ele>212.9</ele>
        <time>2019-08-18T09:22:24Z</time>
      </trkpt>
      <trkpt lat="42.7833060" lon="-8.4357520">
        <ele>213.0</ele>
        <time>2019-08-18T09:22:25Z</time>
      </trkpt>
      <trkpt lat="42.7833310" lon="-8.4357910">
        <ele>213.2</ele>
        <time>2019-08-18T09:22:26Z</time>
      </trkpt>
      <trkpt lat="42.7833550" lon="-8.4358310">
        <ele>213.3</ele>
        <time>2019-08-18T09:22:27Z</time>
      </trkpt>
      <trkpt lat="42.7833800" lon="-8.4358700">
        <ele>213.5</ele>
        <time>2019-08-18T09:22:28Z</time>
      </trkpt>
      <trkpt lat="42.7834040" lon="-8.4359090">
        <ele>213.6</ele>
        <time>2019-08-18T09:22:29Z</time>
      </trkpt>
      <trkpt lat="42.7834280" lon="-8.4359490">
        <ele>213.7</ele>
        <time>2019-08-18T09:22:30Z</time>
      </trkpt>
      <trkpt lat="42.7834520" lon="-8.4359880">
        <ele>213.9</ele>
        <time>2019-08-18T09:22:31Z</time>
      </trkpt>
      <trkpt lat="42.7834760" lon="-8.4360280">
        <ele>214.0</ele>
        <time>2019-08-18T09:22:32Z</time>
      </trkpt>
      <trkpt lat="42.7834990" lon="-8.4360670">
        <ele>214.2</ele>
        <time>2019-08-18T09:22:33Z</time>
      </trkpt>
      <trkpt lat="42.7835230" lon="-8.4361060">
        <ele>214.3</ele>
        <time>2019-08-18T09:22:34Z</time>
      </trkpt>
      <trkpt lat="42.7835470" lon="-8.4361460">
        <ele>214.4</ele>
        <time>2019-08-18T09:22:35Z</time>
      </trkpt>
      <trkpt lat="42.7835700" lon="-8.4361850">
        <ele>214.5</ele>
        <time>2019-08-18T09:22:36Z</time>
      </trkpt>
      <trkpt lat="42.7835940" lon="-8.4362240">
        <ele>214.6</ele>
        <time>2019-08-18T09:22:37Z</time>
      </trkpt>
      <trkpt lat="42.7836180" lon="-8.4362640">
        <ele>214.7</ele>
        <time>2019-08-18T09:22:38Z</time>
      </trkpt>
      <trkpt lat="42.7836410" lon="-8.4363030">
        <ele>214.8</ele>
        <time>2019-08-18T09:22:39Z</time>
      </trkpt>
      <trkpt lat="42.7836650" lon="-8.4363420">
        <ele>214.9</ele>
        <time>2019-08-18T09:22:40Z</time>
      </trkpt>
      <trkpt lat="42.7836880" lon="-8.4363820">
        <ele>215.0</ele>
        <time>2019-08-18T09:22:41Z</time>
      </trkpt>
      <trkpt lat="42.7837120" lon="-8.4364210">
        <ele>215.1</ele>
        <time>2019-08-18T09:22:42Z</time>
      </trkpt>
      <trkpt lat="42.7837360" lon="-8.4364600">
        <ele>215.2</ele>
        <time>2019-08-18T09:22:43Z</time>
      </trkpt>
      <trkpt lat="42.7837590" lon="-8.4364990">
        <ele>215.3</ele>
        <time>2019-08-18T09:22:44Z</time>
      </trkpt>
      <trkpt lat="42.7837830" lon="-8.4365390">
        <ele>215.4</ele>
        <time>2019-08-18T09:22:45Z</time>
      </trkpt>
      <trkpt lat="42.7838070" lon="-8.4365780">
        <ele>215.5</ele>
        <time>2019-08-18T09:22:46Z</time>
      </trkpt>
      <trkpt lat="42.7838310" lon="-8.4366170">
        <ele>215.6</ele>
        <time>2019-08-18T09:22:47Z</time>
      </trkpt>
      <trkpt lat="42.7838540" lon="-8.4366560">
        <ele>215.8</ele>
        <time>2019-08-18T09:22:48Z</time>
      </trkpt>
      <trkpt lat="42.7838780" lon="-8.4366950">
        <ele>215.9</ele>
        <time>2019-08-18T09:22:49Z</time>
      </trkpt>
      <trkpt lat="42.7839020" lon="-8.4367350">
        <ele>216.0</ele>
        <time>2019-08-18T09:22:50Z</time>
      </trkpt>
      <trkpt lat="42.7839260" lon="-8.4367740">
        <ele>216.2</ele>
        <time>2019-08-18T09:22:51Z</time>
      </trkpt>
      <trkpt lat="42.7839500" lon="-8.4368130">
        <ele>216.3</ele>
        <time>2019-08-18T09:22:52Z</time>
      </trkpt>
      <trkpt lat="42.7839740" lon="-8.4368520">
        <ele>216.4</ele>
        <time>2019-08-18T09:22:53Z</time>
      </trkpt>
      <trkpt lat="42.7839990" lon="-8.4368910">
        <ele>216.6</ele>
        <time>2019-08-18T09:22:54Z</time>
      </trkpt>
      <trkpt lat="42.7840230" lon="-8.4369300">
        <ele>216.7</ele>
        <time>2019-08-18T09:22:55Z</time>
      </trkpt>
      <trkpt lat="42.7840470" lon="-8.4369700">
        <ele>216.8</ele>
        <time>2019-08-18T09:22:56Z</time>
      </trkpt>
      <trkpt lat="42.7840710" lon="-8.4370090">
        <ele>217.0</ele>
        <time>2019-08-18T09:22:57Z</time>
      </trkpt>
      <trkpt lat="42.7840960" lon="-8.4370480">
        <ele>217.1</ele>
        <time>2019-08-18T09:22:58Z</time>
      </trkpt>
      <trkpt lat="42.7841200" lon="-8.4370870">
        <ele>217.2</ele>
        <time>2019-08-18T09:22:59Z</time>
      </trkpt>
      <trkpt lat="42.7841440" lon="-8.4371270">
        <ele>217.4</ele>
        <time>2019-08-18T09:23:00Z</time>
      </trkpt>
      <trkpt lat="42.7841690" lon="-8.4371670">
        <ele>217.5</ele>
        <time>2019-08-18T09:23:01Z</time>
      </trkpt>
      <trkpt lat="42.7841930" lon="-8.4372060">
        <ele>217.7</ele>
        <time>2019-08-18T09:23:02Z</time>
      </trkpt>
      <trkpt lat="42.7842180" lon="-8.4372460">
        <ele>217.9</ele>
        <time>2019-08-18T09:23:03Z</time>
      </trkpt>
      <trkpt lat="42.7842420" lon="-8.4372860">
        <ele>218.2</ele>
        <time>2019-08-18T09:23:04Z</time>
      </trkpt>
      <trkpt lat="42.7842660" lon="-8.4373260">
        <ele>218.3</ele>
        <time>2019-08-18T09:23:05Z</time>
      </trkpt>
      <trkpt lat="42.7842910" lon="-8.4373660">
        <ele>218.5</ele>
        <time>2019-08-18T09:23:06Z</time>
      </trkpt>
      <trkpt lat="42.7843150" lon="-8.4374070">
        <ele>218.6</ele>
        <time>2019-08-18T09:23:07Z</time>
      </trkpt>
      <trkpt lat="42.7843400" lon="-8.4374470">
        <ele>218.8</ele>
        <time>2019-08-18T09:23:08Z</time>
      </trkpt>
      <trkpt lat="42.7843640" lon="-8.4374880">
        <ele>219.0</ele>
        <time>2019-08-18T09:23:09Z</time>
      </trkpt>
      <trkpt lat="42.7843890" lon="-8.4375300">
        <ele>219.2</ele>
        <time>2019-08-18T09:23:10Z</time>
      </trkpt>
      <trkpt lat="42.7844150" lon="-8.4375710">
        <ele>219.4</ele>
        <time>2019-08-18T09:23:11Z</time>
      </trkpt>
      <trkpt lat="42.7844400" lon="-8.4376130">
        <ele>219.4</ele>
        <time>2019-08-18T09:23:12Z</time>
      </trkpt>
      <trkpt lat="42.7844660" lon="-8.4376550">
        <ele>219.4</ele>
        <time>2019-08-18T09:23:13Z</time>
      </trkpt>
      <trkpt lat="42.7844930" lon="-8.4376980">
        <ele>219.4</ele>
        <time>2019-08-18T09:23:14Z</time>
      </trkpt>
      <trkpt lat="42.7845190" lon="-8.4377410">
        <ele>219.4</ele>
        <time>2019-08-18T09:23:15Z</time>
      </trkpt>
      <trkpt lat="42.7845470" lon="-8.4377850">
        <ele>219.4</ele>
        <time>2019-08-18T09:23:16Z</time>
      </trkpt>
      <trkpt lat="42.7845740" lon="-8.4378290">
        <ele>219.4</ele>
        <time>2019-08-18T09:23:17Z</time>
      </trkpt>
      <trkpt lat="42.7846010" lon="-8.4378730">
        <ele>219.4</ele>
        <time>2019-08-18T09:23:18Z</time>
      </trkpt>
      <trkpt lat="42.7846290" lon="-8.4379180">
        <ele>219.4</ele>
        <time>2019-08-18T09:23:19Z</time>
      </trkpt>
      <trkpt lat="42.7846560" lon="-8.4379630">
        <ele>219.5</ele>
        <time>2019-08-18T09:23:20Z</time>
      </trkpt>
      <trkpt lat="42.7846840" lon="-8.4380090">
        <ele>219.5</ele>
        <time>2019-08-18T09:23:21Z</time>
      </trkpt>
      <trkpt lat="42.7847110" lon="-8.4380550">
        <ele>219.6</ele>
        <time>2019-08-18T09:23:22Z</time>
      </trkpt>
      <trkpt lat="42.7847380" lon="-8.4381010">
        <ele>219.6</ele>
        <time>2019-08-18T09:23:23Z</time>
      </trkpt>
      <trkpt lat="42.7847650" lon="-8.4381480">
        <ele>219.6</ele>
        <time>2019-08-18T09:23:24Z</time>
      </trkpt>
      <trkpt lat="42.7847920" lon="-8.4381950">
        <ele>219.7</ele>
        <time>2019-08-18T09:23:25Z</time>
      </trkpt>
      <trkpt lat="42.7848180" lon="-8.4382420">
        <ele>219.7</ele>
        <time>2019-08-18T09:23:26Z</time>
      </trkpt>
      <trkpt lat="42.7848450" lon="-8.4382890">
        <ele>219.7</ele>
        <time>2019-08-18T09:23:27Z</time>
      </trkpt>
      <trkpt lat="42.7848720" lon="-8.4383360">
        <ele>219.7</ele>
        <time>2019-08-18T09:23:28Z</time>
      </trkpt>
      <trkpt lat="42.7848990" lon="-8.4383830">
        <ele>219.7</ele>
        <time>2019-08-18T09:23:29Z</time>
      </trkpt>
      <trkpt lat="42.7849260" lon="-8.4384300">
        <ele>219.7</ele>
        <time>2019-08-18T09:23:30Z</time>
      </trkpt>
      <trkpt lat="42.7849520" lon="-8.4384770">
        <ele>219.7</ele>
        <time>2019-08-18T09:23:31Z</time>
      </trkpt>
      <trkpt lat="42.7849790" lon="-8.4385240">
        <ele>219.7</ele>
        <time>2019-08-18T09:23:32Z</time>
      </trkpt>
      <trkpt lat="42.7850050" lon="-8.4385700">
        <ele>219.7</ele>
        <time>2019-08-18T09:23:33Z</time>
      </trkpt>
      <trkpt lat="42.7850320" lon="-8.4386170">
        <ele>219.6</ele>
        <time>2019-08-18T09:23:34Z</time>
      </trkpt>
      <trkpt lat="42.7850580" lon="-8.4386640">
        <ele>219.6</ele>
        <time>2019-08-18T09:23:35Z</time>
      </trkpt>
      <trkpt lat="42.7850840" lon="-8.4387100">
        <ele>219.6</ele>
        <time>2019-08-18T09:23:36Z</time>
      </trkpt>
      <trkpt lat="42.7851110" lon="-8.4387570">
        <ele>219.5</ele>
        <time>2019-08-18T09:23:37Z</time>
      </trkpt>
      <trkpt lat="42.7851390" lon="-8.4388050">
        <ele>219.5</ele>
        <time>2019-08-18T09:23:38Z</time>
      </trkpt>
      <trkpt lat="42.7851690" lon="-8.4388520">
        <ele>219.4</ele>
        <time>2019-08-18T09:23:39Z</time>
      </trkpt>
      <trkpt lat="42.7851990" lon="-8.4389010">
        <ele>219.3</ele>
        <time>2019-08-18T09:23:40Z</time>
      </trkpt>
      <trkpt lat="42.7852290" lon="-8.4389510">
        <ele>219.3</ele>
        <time>2019-08-18T09:23:41Z</time>
      </trkpt>
      <trkpt lat="42.7852600" lon="-8.4390010">
        <ele>219.2</ele>
        <time>2019-08-18T09:23:42Z</time>
      </trkpt>
      <trkpt lat="42.7852910" lon="-8.4390510">
        <ele>219.0</ele>
        <time>2019-08-18T09:23:43Z</time>
      </trkpt>
      <trkpt lat="42.7853220" lon="-8.4391030">
        <ele>218.8</ele>
        <time>2019-08-18T09:23:44Z</time>
      </trkpt>
      <trkpt lat="42.7853540" lon="-8.4391540">
        <ele>218.7</ele>
        <time>2019-08-18T09:23:45Z</time>
      </trkpt>
      <trkpt lat="42.7853850" lon="-8.4392050">
        <ele>218.5</ele>
        <time>2019-08-18T09:23:46Z</time>
      </trkpt>
      <trkpt lat="42.7854180" lon="-8.4392560">
        <ele>218.4</ele>
        <time>2019-08-18T09:23:47Z</time>
      </trkpt>
      <trkpt lat="42.7854500" lon="-8.4393070">
        <ele>218.2</ele>
        <time>2019-08-18T09:23:48Z</time>
      </trkpt>
      <trkpt lat="42.7854830" lon="-8.4393570">
        <ele>218.0</ele>
        <time>2019-08-18T09:23:49Z</time>
      </trkpt>
      <trkpt lat="42.7855150" lon="-8.4394060">
        <ele>217.8</ele>
        <time>2019-08-18T09:23:50Z</time>
      </trkpt>
      <trkpt lat="42.7855470" lon="-8.4394540">
        <ele>217.6</ele>
        <time>2019-08-18T09:23:51Z</time>
      </trkpt>
      <trkpt lat="42.7855800" lon="-8.4395020">
        <ele>217.4</ele>
        <time>2019-08-18T09:23:52Z</time>
      </trkpt>
      <trkpt lat="42.7856130" lon="-8.4395480">
        <ele>217.1</ele>
        <time>2019-08-18T09:23:53Z</time>
      </trkpt>
      <trkpt lat="42.7856490" lon="-8.4395940">
        <ele>216.9</ele>
        <time>2019-08-18T09:23:54Z</time>
      </trkpt>
      <trkpt lat="42.7856850" lon="-8.4396380">
        <ele>216.7</ele>
        <time>2019-08-18T09:23:55Z</time>
      </trkpt>
      <trkpt lat="42.7857230" lon="-8.4396810">
        <ele>216.5</ele>
        <time>2019-08-18T09:23:56Z</time>
      </trkpt>
      <trkpt lat="42.7857630" lon="-8.4397250">
        <ele>216.3</ele>
        <time>2019-08-18T09:23:57Z</time>
      </trkpt>
      <trkpt lat="42.7858030" lon="-8.4397680">
        <ele>216.1</ele>
        <time>2019-08-18T09:23:58Z</time>
      </trkpt>
      <trkpt lat="42.7858450" lon="-8.4398110">
        <ele>215.9</ele>
        <time>2019-08-18T09:23:59Z</time>
      </trkpt>
      <trkpt lat="42.7858880" lon="-8.4398530">
        <ele>215.8</ele>
        <time>2019-08-18T09:24:00Z</time>
      </trkpt>
      <trkpt lat="42.7859320" lon="-8.4398950">
        <ele>215.7</ele>
        <time>2019-08-18T09:24:01Z</time>
      </trkpt>
      <trkpt lat="42.7859780" lon="-8.4399360">
        <ele>215.6</ele>
        <time>2019-08-18T09:24:02Z</time>
      </trkpt>
      <trkpt lat="42.7860250" lon="-8.4399760">
        <ele>215.6</ele>
        <time>2019-08-18T09:24:03Z</time>
      </trkpt>
      <trkpt lat="42.7860730" lon="-8.4400150">
        <ele>215.5</ele>
        <time>2019-08-18T09:24:04Z</time>
      </trkpt>
      <trkpt lat="42.7861220" lon="-8.4400520">
        <ele>215.4</ele>
        <time>2019-08-18T09:24:05Z</time>
      </trkpt>
      <trkpt lat="42.7861720" lon="-8.4400890">
        <ele>215.4</ele>
        <time>2019-08-18T09:24:06Z</time>
      </trkpt>
      <trkpt lat="42.7862230" lon="-8.4401230">
        <ele>215.4</ele>
        <time>2019-08-18T09:24:07Z</time>
      </trkpt>
      <trkpt lat="42.7862740" lon="-8.4401570">
        <ele>215.3</ele>
        <time>2019-08-18T09:24:08Z</time>
      </trkpt>
      <trkpt lat="42.7863260" lon="-8.4401890">
        <ele>215.3</ele>
        <time>2019-08-18T09:24:09Z</time>
      </trkpt>
      <trkpt lat="42.7863790" lon="-8.4402200">
        <ele>215.3</ele>
        <time>2019-08-18T09:24:10Z</time>
      </trkpt>
      <trkpt lat="42.7864320" lon="-8.4402500">
        <ele>215.2</ele>
        <time>2019-08-18T09:24:11Z</time>
      </trkpt>
      <trkpt lat="42.7864850" lon="-8.4402790">
        <ele>215.2</ele>
        <time>2019-08-18T09:24:12Z</time>
      </trkpt>
      <trkpt lat="42.7865370" lon="-8.4403070">
        <ele>215.3</ele>
        <time>2019-08-18T09:24:13Z</time>
      </trkpt>
      <trkpt lat="42.7865900" lon="-8.4403340">
        <ele>215.5</ele>
        <time>2019-08-18T09:24:14Z</time>
      </trkpt>
      <trkpt lat="42.7866420" lon="-8.4403600">
        <ele>215.6</ele>
        <time>2019-08-18T09:24:15Z</time>
      </trkpt>
      <trkpt lat="42.7866950" lon="-8.4403850">
        <ele>215.7</ele>
        <time>2019-08-18T09:24:16Z</time>
      </trkpt>
      <trkpt lat="42.7867460" lon="-8.4404110">
        <ele>215.9</ele>
        <time>2019-08-18T09:24:17Z</time>
      </trkpt>
      <trkpt lat="42.7867970" lon="-8.4404360">
        <ele>216.0</ele>
        <time>2019-08-18T09:24:18Z</time>
      </trkpt>
      <trkpt lat="42.7868480" lon="-8.4404610">
        <ele>216.2</ele>
        <time>2019-08-18T09:24:19Z</time>
      </trkpt>
      <trkpt lat="42.7868980" lon="-8.4404860">
        <ele>216.3</ele>
        <time>2019-08-18T09:24:20Z</time>
      </trkpt>
      <trkpt lat="42.7869470" lon="-8.4405120">
        <ele>216.5</ele>
        <time>2019-08-18T09:24:21Z</time>
      </trkpt>
      <trkpt lat="42.7869950" lon="-8.4405390">
        <ele>216.7</ele>
        <time>2019-08-18T09:24:22Z</time>
      </trkpt>
      <trkpt lat="42.7870430" lon="-8.4405660">
        <ele>216.6</ele>
        <time>2019-08-18T09:24:23Z</time>
      </trkpt>
      <trkpt lat="42.7870910" lon="-8.4405950">
        <ele>216.4</ele>
        <time>2019-08-18T09:24:24Z</time>
      </trkpt>
      <trkpt lat="42.7871380" lon="-8.4406260">
        <ele>216.3</ele>
        <time>2019-08-18T09:24:25Z</time>
      </trkpt>
      <trkpt lat="42.7871850" lon="-8.4406580">
        <ele>216.2</ele>
        <time>2019-08-18T09:24:26Z</time>
      </trkpt>
      <trkpt lat="42.7872310" lon="-8.4406920">
        <ele>216.2</ele>
        <time>2019-08-18T09:24:27Z</time>
      </trkpt>
      <trkpt lat="42.7872780" lon="-8.4407280">
        <ele>216.1</ele>
        <time>2019-08-18T09:24:28Z</time>
      </trkpt>
      <trkpt lat="42.7873240" lon="-8.4407640">
        <ele>216.0</ele>
        <time>2019-08-18T09:24:29Z</time>
      </trkpt>
      <trkpt lat="42.7873720" lon="-8.4408010">
        <ele>215.9</ele>
        <time>2019-08-18T09:24:30Z</time>
      </trkpt>
      <trkpt lat="42.7874240" lon="-8.4408440">
        <ele>215.9</ele>
        <time>2019-08-18T09:24:31Z</time>
      </trkpt>
      <trkpt lat="42.7874690" lon="-8.4408840">
        <ele>215.8</ele>
        <time>2019-08-18T09:24:32Z</time>
      </trkpt>
      <trkpt lat="42.7875120" lon="-8.4409260">
        <ele>215.8</ele>
        <time>2019-08-18T09:24:33Z</time>
      </trkpt>
      <trkpt lat="42.7878090" lon="-8.4412900">
        <ele>215.8</ele>
        <time>2019-08-18T09:26:39Z</time>
      </trkpt>
      <trkpt lat="42.7878280" lon="-8.4413140">
        <ele>215.8</ele>
        <time>2019-08-18T09:26:40Z</time>
      </trkpt>
      <trkpt lat="42.7878470" lon="-8.4413400">
        <ele>215.8</ele>
        <time>2019-08-18T09:26:41Z</time>
      </trkpt>
      <trkpt lat="42.7878760" lon="-8.4413810">
        <ele>215.8</ele>
        <time>2019-08-18T09:26:42Z</time>
      </trkpt>
      <trkpt lat="42.7879010" lon="-8.4414180">
        <ele>215.8</ele>
        <time>2019-08-18T09:26:43Z</time>
      </trkpt>
      <trkpt lat="42.7879250" lon="-8.4414560">
        <ele>215.8</ele>
        <time>2019-08-18T09:26:44Z</time>
      </trkpt>
      <trkpt lat="42.7879510" lon="-8.4414950">
        <ele>215.8</ele>
        <time>2019-08-18T09:26:45Z</time>
      </trkpt>
      <trkpt lat="42.7879780" lon="-8.4415360">
        <ele>215.9</ele>
        <time>2019-08-18T09:26:46Z</time>
      </trkpt>
      <trkpt lat="42.7880070" lon="-8.4415810">
        <ele>215.9</ele>
        <time>2019-08-18T09:26:47Z</time>
      </trkpt>
      <trkpt lat="42.7880370" lon="-8.4416280">
        <ele>215.9</ele>
        <time>2019-08-18T09:26:48Z</time>
      </trkpt>
      <trkpt lat="42.7880910" lon="-8.4417100">
        <ele>215.9</ele>
        <time>2019-08-18T09:26:49Z</time>
      </trkpt>
      <trkpt lat="42.7881130" lon="-8.4417440">
        <ele>215.9</ele>
        <time>2019-08-18T09:26:50Z</time>
      </trkpt>
      <trkpt lat="42.7881350" lon="-8.4417780">
        <ele>215.9</ele>
        <time>2019-08-18T09:26:51Z</time>
      </trkpt>
      <trkpt lat="42.7881700" lon="-8.4418300">
        <ele>215.9</ele>
        <time>2019-08-18T09:26:52Z</time>
      </trkpt>
      <trkpt lat="42.7882040" lon="-8.4418820">
        <ele>215.9</ele>
        <time>2019-08-18T09:26:53Z</time>
      </trkpt>
      <trkpt lat="42.7882610" lon="-8.4419670">
        <ele>216.0</ele>
        <time>2019-08-18T09:26:54Z</time>
      </trkpt>
      <trkpt lat="42.7882850" lon="-8.4420000">
        <ele>216.0</ele>
        <time>2019-08-18T09:26:55Z</time>
      </trkpt>
      <trkpt lat="42.7883080" lon="-8.4420340">
        <ele>216.0</ele>
        <time>2019-08-18T09:26:56Z</time>
      </trkpt>
      <trkpt lat="42.7883430" lon="-8.4420840">
        <ele>216.0</ele>
        <time>2019-08-18T09:26:57Z</time>
      </trkpt>
      <trkpt lat="42.7883780" lon="-8.4421330">
        <ele>216.0</ele>
        <time>2019-08-18T09:26:58Z</time>
      </trkpt>
      <trkpt lat="42.7884380" lon="-8.4422120">
        <ele>216.1</ele>
        <time>2019-08-18T09:26:59Z</time>
      </trkpt>
      <trkpt lat="42.7884630" lon="-8.4422440">
        <ele>216.1</ele>
        <time>2019-08-18T09:27:00Z</time>
      </trkpt>
      <trkpt lat="42.7884870" lon="-8.4422750">
        <ele>216.1</ele>
        <time>2019-08-18T09:27:01Z</time>
      </trkpt>
      <trkpt lat="42.7885250" lon="-8.4423210">
        <ele>216.1</ele>
        <time>2019-08-18T09:27:02Z</time>
      </trkpt>
      <trkpt lat="42.7885630" lon="-8.4423660">
        <ele>216.1</ele>
        <time>2019-08-18T09:27:03Z</time>
      </trkpt>
      <trkpt lat="42.7886020" lon="-8.4424090">
        <ele>216.1</ele>
        <time>2019-08-18T09:27:04Z</time>
      </trkpt>
      <trkpt lat="42.7886420" lon="-8.4424520">
        <ele>216.0</ele>
        <time>2019-08-18T09:27:05Z</time>
      </trkpt>
      <trkpt lat="42.7886820" lon="-8.4424930">
        <ele>216.0</ele>
        <time>2019-08-18T09:27:06Z</time>
      </trkpt>
      <trkpt lat="42.7887240" lon="-8.4425340">
        <ele>216.0</ele>
        <time>2019-08-18T09:27:07Z</time>
      </trkpt>
      <trkpt lat="42.7887670" lon="-8.4425730">
        <ele>216.0</ele>
        <time>2019-08-18T09:27:08Z</time>
      </trkpt>
      <trkpt lat="42.7888110" lon="-8.4426110">
        <ele>215.9</ele>
        <time>2019-08-18T09:27:09Z</time>
      </trkpt>
      <trkpt lat="42.7888560" lon="-8.4426480">
        <ele>215.9</ele>
        <time>2019-08-18T09:27:10Z</time>
      </trkpt>
      <trkpt lat="42.7889030" lon="-8.4426840">
        <ele>215.8</ele>
        <time>2019-08-18T09:27:11Z</time>
      </trkpt>
      <trkpt lat="42.7889500" lon="-8.4427190">
        <ele>215.8</ele>
        <time>2019-08-18T09:27:12Z</time>
      </trkpt>
      <trkpt lat="42.7889990" lon="-8.4427540">
        <ele>215.8</ele>
        <time>2019-08-18T09:27:13Z</time>
      </trkpt>
      <trkpt lat="42.7890500" lon="-8.4427870">
        <ele>215.7</ele>
        <time>2019-08-18T09:27:14Z</time>
      </trkpt>
      <trkpt lat="42.7891020" lon="-8.4428210">
        <ele>215.6</ele>
        <time>2019-08-18T09:27:15Z</time>
      </trkpt>
      <trkpt lat="42.7891550" lon="-8.4428540">
        <ele>215.5</ele>
        <time>2019-08-18T09:27:16Z</time>
      </trkpt>
      <trkpt lat="42.7892100" lon="-8.4428870">
        <ele>215.5</ele>
        <time>2019-08-18T09:27:17Z</time>
      </trkpt>
      <trkpt lat="42.7892660" lon="-8.4429190">
        <ele>215.4</ele>
        <time>2019-08-18T09:27:18Z</time>
      </trkpt>
      <trkpt lat="42.7893250" lon="-8.4429520">
        <ele>215.3</ele>
        <time>2019-08-18T09:27:19Z</time>
      </trkpt>
      <trkpt lat="42.7893850" lon="-8.4429850">
        <ele>215.1</ele>
        <time>2019-08-18T09:27:20Z</time>
      </trkpt>
      <trkpt lat="42.7894460" lon="-8.4430170">
        <ele>215.0</ele>
        <time>2019-08-18T09:27:21Z</time>
      </trkpt>
      <trkpt lat="42.7895100" lon="-8.4430500">
        <ele>214.9</ele>
        <time>2019-08-18T09:27:22Z</time>
      </trkpt>
      <trkpt lat="42.7895750" lon="-8.4430840">
        <ele>214.7</ele>
        <time>2019-08-18T09:27:23Z</time>
      </trkpt>
      <trkpt lat="42.7896420" lon="-8.4431180">
        <ele>214.6</ele>
        <time>2019-08-18T09:27:24Z</time>
      </trkpt>
      <trkpt lat="42.7897100" lon="-8.4431540">
        <ele>214.3</ele>
        <time>2019-08-18T09:27:25Z</time>
      </trkpt>
      <trkpt lat="42.7897790" lon="-8.4431910">
        <ele>213.6</ele>
        <time>2019-08-18T09:27:26Z</time>
      </trkpt>
      <trkpt lat="42.7898500" lon="-8.4432310">
        <ele>212.8</ele>
        <time>2019-08-18T09:27:27Z</time>
      </trkpt>
      <trkpt lat="42.7899210" lon="-8.4432740">
        <ele>212.0</ele>
        <time>2019-08-18T09:27:28Z</time>
      </trkpt>
      <trkpt lat="42.7899920" lon="-8.4433200">
        <ele>211.2</ele>
        <time>2019-08-18T09:27:29Z</time>
      </trkpt>
      <trkpt lat="42.7900640" lon="-8.4433690">
        <ele>210.4</ele>
        <time>2019-08-18T09:27:30Z</time>
      </trkpt>
      <trkpt lat="42.7901350" lon="-8.4434230">
        <ele>209.7</ele>
        <time>2019-08-18T09:27:31Z</time>
      </trkpt>
      <trkpt lat="42.7902070" lon="-8.4434810">
        <ele>209.2</ele>
        <time>2019-08-18T09:27:32Z</time>
      </trkpt>
      <trkpt lat="42.7902780" lon="-8.4435430">
        <ele>208.7</ele>
        <time>2019-08-18T09:27:33Z</time>
      </trkpt>
      <trkpt lat="42.7903480" lon="-8.4436100">
        <ele>208.1</ele>
        <time>2019-08-18T09:27:34Z</time>
      </trkpt>
      <trkpt lat="42.7904160" lon="-8.4436800">
        <ele>207.3</ele>
        <time>2019-08-18T09:27:35Z</time>
      </trkpt>
      <trkpt lat="42.7904840" lon="-8.4437550">
        <ele>206.6</ele>
        <time>2019-08-18T09:27:36Z</time>
      </trkpt>
      <trkpt lat="42.7905500" lon="-8.4438350">
        <ele>205.9</ele>
        <time>2019-08-18T09:27:37Z</time>
      </trkpt>
      <trkpt lat="42.7906140" lon="-8.4439180">
        <ele>205.3</ele>
        <time>2019-08-18T09:27:38Z</time>
      </trkpt>
      <trkpt lat="42.7906760" lon="-8.4440050">
        <ele>204.9</ele>
        <time>2019-08-18T09:27:39Z</time>
      </trkpt>
      <trkpt lat="42.7907350" lon="-8.4440940">
        <ele>204.5</ele>
        <time>2019-08-18T09:27:40Z</time>
      </trkpt>
      <trkpt lat="42.7907920" lon="-8.4441850">
        <ele>204.2</ele>
        <time>2019-08-18T09:27:41Z</time>
      </trkpt>
      <trkpt lat="42.7908460" lon="-8.4442780">
        <ele>203.9</ele>
        <time>2019-08-18T09:27:42Z</time>
      </trkpt>
      <trkpt lat="42.7908960" lon="-8.4443710">
        <ele>203.6</ele>
        <time>2019-08-18T09:27:43Z</time>
      </trkpt>
      <trkpt lat="42.7909420" lon="-8.4444650">
        <ele>203.3</ele>
        <time>2019-08-18T09:27:44Z</time>
      </trkpt>
      <trkpt lat="42.7909850" lon="-8.4445590">
        <ele>203.0</ele>
        <time>2019-08-18T09:27:45Z</time>
      </trkpt>
      <trkpt lat="42.7910230" lon="-8.4446520">
        <ele>202.7</ele>
        <time>2019-08-18T09:27:46Z</time>
      </trkpt>
      <trkpt lat="42.7910590" lon="-8.4447440">
        <ele>202.4</ele>
        <time>2019-08-18T09:27:47Z</time>
      </trkpt>
      <trkpt lat="42.7910910" lon="-8.4448360">
        <ele>201.8</ele>
        <time>2019-08-18T09:27:48Z</time>
      </trkpt>
      <trkpt lat="42.7911200" lon="-8.4449270">
        <ele>202.3</ele>
        <time>2019-08-18T09:27:49Z</time>
      </trkpt>
      <trkpt lat="42.7911470" lon="-8.4450180">
        <ele>202.8</ele>
        <time>2019-08-18T09:27:50Z</time>
      </trkpt>
      <trkpt lat="42.7911720" lon="-8.4451080">
        <ele>203.3</ele>
        <time>2019-08-18T09:27:51Z</time>
      </trkpt>
      <trkpt lat="42.7911940" lon="-8.4451970">
        <ele>203.8</ele>
        <time>2019-08-18T09:27:52Z</time>
      </trkpt>
      <trkpt lat="42.7912150" lon="-8.4452860">
        <ele>204.3</ele>
        <time>2019-08-18T09:27:53Z</time>
      </trkpt>
      <trkpt lat="42.7912330" lon="-8.4453740">
        <ele>204.8</ele>
        <time>2019-08-18T09:27:54Z</time>
      </trkpt>
      <trkpt lat="42.7912490" lon="-8.4454630">
        <ele>205.4</ele>
        <time>2019-08-18T09:27:55Z</time>
      </trkpt>
      <trkpt lat="42.7912640" lon="-8.4455520">
        <ele>206.0</ele>
        <time>2019-08-18T09:27:56Z</time>
      </trkpt>
      <trkpt lat="42.7912760" lon="-8.4456410">
        <ele>206.5</ele>
        <time>2019-08-18T09:27:57Z</time>
      </trkpt>
      <trkpt lat="42.7912850" lon="-8.4457320">
        <ele>207.2</ele>
        <time>2019-08-18T09:27:58Z</time>
      </trkpt>
      <trkpt lat="42.7912920" lon="-8.4458240">
        <ele>207.9</ele>
        <time>2019-08-18T09:27:59Z</time>
      </trkpt>
      <trkpt lat="42.7912970" lon="-8.4459170">
        <ele>208.8</ele>
        <time>2019-08-18T09:28:00Z</time>
      </trkpt>
      <trkpt lat="42.7912990" lon="-8.4460110">
        <ele>208.6</ele>
        <time>2019-08-18T09:28:01Z</time>
      </trkpt>
      <trkpt lat="42.7913000" lon="-8.4461050">
        <ele>208.5</ele>
        <time>2019-08-18T09:28:02Z</time>
      </trkpt>
      <trkpt lat="42.7913000" lon="-8.4461980">
        <ele>208.4</ele>
        <time>2019-08-18T09:28:03Z</time>
      </trkpt>
      <trkpt lat="42.7913000" lon="-8.4462890">
        <ele>208.3</ele>
        <time>2019-08-18T09:28:04Z</time>
      </trkpt>
      <trkpt lat="42.7912990" lon="-8.4463780">
        <ele>208.2</ele>
        <time>2019-08-18T09:28:05Z</time>
      </trkpt>
      <trkpt lat="42.7912980" lon="-8.4464640">
        <ele>208.1</ele>
        <time>2019-08-18T09:28:06Z</time>
      </trkpt>
      <trkpt lat="42.7912980" lon="-8.4465460">
        <ele>208.0</ele>
        <time>2019-08-18T09:28:07Z</time>
      </trkpt>
      <trkpt lat="42.7912990" lon="-8.4466240">
        <ele>208.0</ele>
        <time>2019-08-18T09:28:08Z</time>
      </trkpt>
      <trkpt lat="42.7913000" lon="-8.4466990">
        <ele>207.9</ele>
        <time>2019-08-18T09:28:09Z</time>
      </trkpt>
      <trkpt lat="42.7913020" lon="-8.4467710">
        <ele>207.8</ele>
        <time>2019-08-18T09:28:10Z</time>
      </trkpt>
      <trkpt lat="42.7913070" lon="-8.4468860">
        <ele>207.7</ele>
        <time>2019-08-18T09:28:11Z</time>
      </trkpt>
      <trkpt lat="42.7913100" lon="-8.4469300">
        <ele>207.7</ele>
        <time>2019-08-18T09:28:12Z</time>
      </trkpt>
      <trkpt lat="42.7913120" lon="-8.4469750">
        <ele>207.7</ele>
        <time>2019-08-18T09:28:13Z</time>
      </trkpt>
      <trkpt lat="42.7913160" lon="-8.4470400">
        <ele>207.7</ele>
        <time>2019-08-18T09:28:14Z</time>
      </trkpt>
      <trkpt lat="42.7913210" lon="-8.4471040">
        <ele>207.7</ele>
        <time>2019-08-18T09:28:15Z</time>
      </trkpt>
      <trkpt lat="42.7913310" lon="-8.4472080">
        <ele>207.7</ele>
        <time>2019-08-18T09:28:16Z</time>
      </trkpt>
      <trkpt lat="42.7913360" lon="-8.4472500">
        <ele>207.7</ele>
        <time>2019-08-18T09:28:17Z</time>
      </trkpt>
      <trkpt lat="42.7913400" lon="-8.4472910">
        <ele>207.7</ele>
        <time>2019-08-18T09:28:18Z</time>
      </trkpt>
      <trkpt lat="42.7913480" lon="-8.4473520">
        <ele>207.7</ele>
        <time>2019-08-18T09:28:19Z</time>
      </trkpt>
      <trkpt lat="42.7913570" lon="-8.4474120">
        <ele>207.7</ele>
        <time>2019-08-18T09:28:20Z</time>
      </trkpt>
      <trkpt lat="42.7913660" lon="-8.4474710">
        <ele>207.8</ele>
        <time>2019-08-18T09:28:21Z</time>
      </trkpt>
      <trkpt lat="42.7913760" lon="-8.4475290">
        <ele>207.9</ele>
        <time>2019-08-18T09:28:22Z</time>
      </trkpt>
      <trkpt lat="42.7913870" lon="-8.4475850">
        <ele>207.9</ele>
        <time>2019-08-18T09:28:23Z</time>
      </trkpt>
      <trkpt lat="42.7913980" lon="-8.4476410">
        <ele>208.1</ele>
        <time>2019-08-18T09:28:24Z</time>
      </trkpt>
      <trkpt lat="42.7914100" lon="-8.4476940">
        <ele>208.2</ele>
        <time>2019-08-18T09:28:25Z</time>
      </trkpt>
      <trkpt lat="42.7914230" lon="-8.4477460">
        <ele>208.3</ele>
        <time>2019-08-18T09:28:26Z</time>
      </trkpt>
      <trkpt lat="42.7914360" lon="-8.4477970">
        <ele>208.3</ele>
        <time>2019-08-18T09:28:27Z</time>
      </trkpt>
      <trkpt lat="42.7914500" lon="-8.4478450">
        <ele>208.4</ele>
        <time>2019-08-18T09:28:28Z</time>
      </trkpt>
      <trkpt lat="42.7914640" lon="-8.4478910">
        <ele>208.5</ele>
        <time>2019-08-18T09:28:29Z</time>
      </trkpt>
      <trkpt lat="42.7914790" lon="-8.4479350">
        <ele>208.6</ele>
        <time>2019-08-18T09:28:30Z</time>
      </trkpt>
      <trkpt lat="42.7914940" lon="-8.4479770">
        <ele>208.8</ele>
        <time>2019-08-18T09:28:31Z</time>
      </trkpt>
      <trkpt lat="42.7915100" lon="-8.4480180">
        <ele>209.0</ele>
        <time>2019-08-18T09:28:32Z</time>
      </trkpt>
      <trkpt lat="42.7915260" lon="-8.4480580">
        <ele>209.1</ele>
        <time>2019-08-18T09:28:33Z</time>
      </trkpt>
      <trkpt lat="42.7915440" lon="-8.4480960">
        <ele>209.2</ele>
        <time>2019-08-18T09:28:34Z</time>
      </trkpt>
      <trkpt lat="42.7915630" lon="-8.4481340">
        <ele>209.3</ele>
        <time>2019-08-18T09:28:35Z</time>
      </trkpt>
      <trkpt lat="42.7915820" lon="-8.4481710">
        <ele>209.5</ele>
        <time>2019-08-18T09:28:36Z</time>
      </trkpt>
      <trkpt lat="42.7916030" lon="-8.4482080">
        <ele>209.6</ele>
        <time>2019-08-18T09:28:37Z</time>
      </trkpt>
      <trkpt lat="42.7916250" lon="-8.4482440">
        <ele>209.7</ele>
        <time>2019-08-18T09:28:38Z</time>
      </trkpt>
      <trkpt lat="42.7916470" lon="-8.4482800">
        <ele>209.8</ele>
        <time>2019-08-18T09:28:39Z</time>
      </trkpt>
      <trkpt lat="42.7916700" lon="-8.4483150">
        <ele>210.0</ele>
        <time>2019-08-18T09:28:40Z</time>
      </trkpt>
      <trkpt lat="42.7916940" lon="-8.4483500">
        <ele>210.1</ele>
        <time>2019-08-18T09:28:41Z</time>
      </trkpt>
      <trkpt lat="42.7917180" lon="-8.4483840">
        <ele>210.2</ele>
        <time>2019-08-18T09:28:42Z</time>
      </trkpt>
      <trkpt lat="42.7917430" lon="-8.4484180">
        <ele>210.4</ele>
        <time>2019-08-18T09:28:43Z</time>
      </trkpt>
      <trkpt lat="42.7917670" lon="-8.4484510">
        <ele>210.5</ele>
        <time>2019-08-18T09:28:44Z</time>
      </trkpt>
      <trkpt lat="42.7917930" lon="-8.4484850">
        <ele>210.6</ele>
        <time>2019-08-18T09:28:45Z</time>
      </trkpt>
      <trkpt lat="42.7918180" lon="-8.4485180">
        <ele>210.7</ele>
        <time>2019-08-18T09:28:46Z</time>
      </trkpt>
      <trkpt lat="42.7918430" lon="-8.4485510">
        <ele>210.8</ele>
        <time>2019-08-18T09:28:47Z</time>
      </trkpt>
      <trkpt lat="42.7918690" lon="-8.4485840">
        <ele>210.9</ele>
        <time>2019-08-18T09:28:48Z</time>
      </trkpt>
      <trkpt lat="42.7918950" lon="-8.4486180">
        <ele>211.0</ele>
        <time>2019-08-18T09:28:49Z</time>
      </trkpt>
      <trkpt lat="42.7919210" lon="-8.4486520">
        <ele>211.1</ele>
        <time>2019-08-18T09:28:50Z</time>
      </trkpt>
      <trkpt lat="42.7919470" lon="-8.4486870">
        <ele>211.2</ele>
        <time>2019-08-18T09:28:51Z</time>
      </trkpt>
      <trkpt lat="42.7919730" lon="-8.4487210">
        <ele>211.2</ele>
        <time>2019-08-18T09:28:52Z</time>
      </trkpt>
      <trkpt lat="42.7919990" lon="-8.4487550">
        <ele>211.3</ele>
        <time>2019-08-18T09:28:53Z</time>
      </trkpt>
      <trkpt lat="42.7920250" lon="-8.4487880">
        <ele>211.4</ele>
        <time>2019-08-18T09:28:54Z</time>
      </trkpt>
      <trkpt lat="42.7920520" lon="-8.4488190">
        <ele>211.5</ele>
        <time>2019-08-18T09:28:55Z</time>
      </trkpt>
      <trkpt lat="42.7920790" lon="-8.4488480">
        <ele>211.6</ele>
        <time>2019-08-18T09:28:56Z</time>
      </trkpt>
      <trkpt lat="42.7921070" lon="-8.4488780">
        <ele>211.7</ele>
        <time>2019-08-18T09:28:57Z</time>
      </trkpt>
      <trkpt lat="42.7921350" lon="-8.4489080">
        <ele>211.9</ele>
        <time>2019-08-18T09:28:58Z</time>
      </trkpt>
      <trkpt lat="42.7921620" lon="-8.4489390">
        <ele>212.0</ele>
        <time>2019-08-18T09:28:59Z</time>
      </trkpt>
      <trkpt lat="42.7921900" lon="-8.4489700">
        <ele>212.1</ele>
        <time>2019-08-18T09:29:00Z</time>
      </trkpt>
      <trkpt lat="42.7922180" lon="-8.4490010">
        <ele>212.2</ele>
        <time>2019-08-18T09:29:01Z</time>
      </trkpt>
      <trkpt lat="42.7922460" lon="-8.4490320">
        <ele>212.3</ele>
        <time>2019-08-18T09:29:02Z</time>
      </trkpt>
      <trkpt lat="42.7922740" lon="-8.4490620">
        <ele>212.5</ele>
        <time>2019-08-18T09:29:03Z</time>
      </trkpt>
      <trkpt lat="42.7923020" lon="-8.4490920">
        <ele>212.6</ele>
        <time>2019-08-18T09:29:04Z</time>
      </trkpt>
      <trkpt lat="42.7923290" lon="-8.4491220">
        <ele>212.7</ele>
        <time>2019-08-18T09:29:05Z</time>
      </trkpt>
      <trkpt lat="42.7923550" lon="-8.4491510">
        <ele>212.8</ele>
        <time>2019-08-18T09:29:06Z</time>
      </trkpt>
      <trkpt lat="42.7923820" lon="-8.4491790">
        <ele>212.9</ele>
        <time>2019-08-18T09:29:07Z</time>
      </trkpt>
      <trkpt lat="42.7924080" lon="-8.4492070">
        <ele>213.0</ele>
        <time>2019-08-18T09:29:08Z</time>
      </trkpt>
      <trkpt lat="42.7924330" lon="-8.4492340">
        <ele>213.1</ele>
        <time>2019-08-18T09:29:09Z</time>
      </trkpt>
      <trkpt lat="42.7924590" lon="-8.4492620">
        <ele>213.2</ele>
        <time>2019-08-18T09:29:10Z</time>
      </trkpt>
      <trkpt lat="42.7924840" lon="-8.4492880">
        <ele>213.3</ele>
        <time>2019-08-18T09:29:11Z</time>
      </trkpt>
      <trkpt lat="42.7925090" lon="-8.4493150">
        <ele>213.4</ele>
        <time>2019-08-18T09:29:12Z</time>
      </trkpt>
      <trkpt lat="42.7925330" lon="-8.4493410">
        <ele>213.5</ele>
        <time>2019-08-18T09:29:13Z</time>
      </trkpt>
      <trkpt lat="42.7925570" lon="-8.4493680">
        <ele>213.6</ele>
        <time>2019-08-18T09:29:14Z</time>
      </trkpt>
      <trkpt lat="42.7925810" lon="-8.4493940">
        <ele>213.6</ele>
        <time>2019-08-18T09:29:15Z</time>
      </trkpt>
      <trkpt lat="42.7926050" lon="-8.4494210">
        <ele>213.7</ele>
        <time>2019-08-18T09:29:16Z</time>
      </trkpt>
      <trkpt lat="42.7926280" lon="-8.4494470">
        <ele>213.8</ele>
        <time>2019-08-18T09:29:17Z</time>
      </trkpt>
      <trkpt lat="42.7926510" lon="-8.4494740">
        <ele>213.9</ele>
        <time>2019-08-18T09:29:18Z</time>
      </trkpt>
      <trkpt lat="42.7926740" lon="-8.4495010">
        <ele>214.0</ele>
        <time>2019-08-18T09:29:19Z</time>
      </trkpt>
      <trkpt lat="42.7926970" lon="-8.4495280">
        <ele>214.1</ele>
        <time>2019-08-18T09:29:20Z</time>
      </trkpt>
      <trkpt lat="42.7927190" lon="-8.4495560">
        <ele>214.3</ele>
        <time>2019-08-18T09:29:21Z</time>
      </trkpt>
      <trkpt lat="42.7927420" lon="-8.4495840">
        <ele>214.3</ele>
        <time>2019-08-18T09:29:22Z</time>
      </trkpt>
      <trkpt lat="42.7927640" lon="-8.4496120">
        <ele>214.4</ele>
        <time>2019-08-18T09:29:23Z</time>
      </trkpt>
      <trkpt lat="42.7927860" lon="-8.4496410">
        <ele>215.0</ele>
        <time>2019-08-18T09:29:24Z</time>
      </trkpt>
      <trkpt lat="42.7928080" lon="-8.4496690">
        <ele>215.3</ele>
        <time>2019-08-18T09:29:25Z</time>
      </trkpt>
      <trkpt lat="42.7928310" lon="-8.4496990">
        <ele>215.5</ele>
        <time>2019-08-18T09:29:26Z</time>
      </trkpt>
      <trkpt lat="42.7928530" lon="-8.4497280">
        <ele>215.8</ele>
        <time>2019-08-18T09:29:27Z</time>
      </trkpt>
      <trkpt lat="42.7928750" lon="-8.4497580">
        <ele>216.1</ele>
        <time>2019-08-18T09:29:28Z</time>
      </trkpt>
      <trkpt lat="42.7928980" lon="-8.4497890">
        <ele>216.4</ele>
        <time>2019-08-18T09:29:29Z</time>
      </trkpt>
      <trkpt lat="42.7929200" lon="-8.4498200">
        <ele>216.7</ele>
        <time>2019-08-18T09:29:30Z</time>
      </trkpt>
      <trkpt lat="42.7929420" lon="-8.4498530">
        <ele>217.0</ele>
        <time>2019-08-18T09:29:31Z</time>
      </trkpt>
      <trkpt lat="42.7929630" lon="-8.4498860">
        <ele>217.3</ele>
        <time>2019-08-18T09:29:32Z</time>
      </trkpt>
      <trkpt lat="42.7929840" lon="-8.4499210">
        <ele>217.7</ele>
        <time>2019-08-18T09:29:33Z</time>
      </trkpt>
      <trkpt lat="42.7930050" lon="-8.4499570">
        <ele>218.0</ele>
        <time>2019-08-18T09:29:34Z</time>
      </trkpt>
      <trkpt lat="42.7930240" lon="-8.4499950">
        <ele>218.3</ele>
        <time>2019-08-18T09:29:35Z</time>
      </trkpt>
      <trkpt lat="42.7930440" lon="-8.4500330">
        <ele>218.6</ele>
        <time>2019-08-18T09:29:36Z</time>
      </trkpt>
      <trkpt lat="42.7930620" lon="-8.4500730">
        <ele>218.9</ele>
        <time>2019-08-18T09:29:37Z</time>
      </trkpt>
      <trkpt lat="42.7930790" lon="-8.4501150">
        <ele>219.2</ele>
        <time>2019-08-18T09:29:38Z</time>
      </trkpt>
      <trkpt lat="42.7930960" lon="-8.4501570">
        <ele>219.5</ele>
        <time>2019-08-18T09:29:39Z</time>
      </trkpt>
      <trkpt lat="42.7931120" lon="-8.4502000">
        <ele>219.7</ele>
        <time>2019-08-18T09:29:40Z</time>
      </trkpt>
      <trkpt lat="42.7931270" lon="-8.4502440">
        <ele>219.9</ele>
        <time>2019-08-18T09:29:41Z</time>
      </trkpt>
      <trkpt lat="42.7931420" lon="-8.4502890">
        <ele>220.2</ele>
        <time>2019-08-18T09:29:42Z</time>
      </trkpt>
      <trkpt lat="42.7931550" lon="-8.4503340">
        <ele>220.4</ele>
        <time>2019-08-18T09:29:43Z</time>
      </trkpt>
      <trkpt lat="42.7931680" lon="-8.4503800">
        <ele>220.6</ele>
        <time>2019-08-18T09:29:44Z</time>
      </trkpt>
      <trkpt lat="42.7931790" lon="-8.4504270">
        <ele>220.8</ele>
        <time>2019-08-18T09:29:45Z</time>
      </trkpt>
      <trkpt lat="42.7931900" lon="-8.4504740">
        <ele>221.0</ele>
        <time>2019-08-18T09:29:46Z</time>
      </trkpt>
      <trkpt lat="42.7931990" lon="-8.4505220">
        <ele>221.2</ele>
        <time>2019-08-18T09:29:47Z</time>
      </trkpt>
      <trkpt lat="42.7932070" lon="-8.4505700">
        <ele>221.5</ele>
        <time>2019-08-18T09:29:48Z</time>
      </trkpt>
      <trkpt lat="42.7932140" lon="-8.4506180">
        <ele>221.7</ele>
        <time>2019-08-18T09:29:49Z</time>
      </trkpt>
      <trkpt lat="42.7932210" lon="-8.4506660">
        <ele>221.9</ele>
        <time>2019-08-18T09:29:50Z</time>
      </trkpt>
      <trkpt lat="42.7932260" lon="-8.4507140">
        <ele>222.1</ele>
        <time>2019-08-18T09:29:51Z</time>
      </trkpt>
      <trkpt lat="42.7932300" lon="-8.4507620">
        <ele>222.4</ele>
        <time>2019-08-18T09:29:52Z</time>
      </trkpt>
      <trkpt lat="42.7932330" lon="-8.4508100">
        <ele>222.6</ele>
        <time>2019-08-18T09:29:53Z</time>
      </trkpt>
      <trkpt lat="42.7932350" lon="-8.4508580">
        <ele>222.9</ele>
        <time>2019-08-18T09:29:54Z</time>
      </trkpt>
      <trkpt lat="42.7932370" lon="-8.4509060">
        <ele>223.2</ele>
        <time>2019-08-18T09:29:55Z</time>
      </trkpt>
      <trkpt lat="42.7932370" lon="-8.4509530">
        <ele>223.5</ele>
        <time>2019-08-18T09:29:56Z</time>
      </trkpt>
      <trkpt lat="42.7932370" lon="-8.4509990">
        <ele>223.8</ele>
        <time>2019-08-18T09:29:57Z</time>
      </trkpt>
      <trkpt lat="42.7932360" lon="-8.4510450">
        <ele>224.1</ele>
        <time>2019-08-18T09:29:58Z</time>
      </trkpt>
      <trkpt lat="42.7932340" lon="-8.4510900">
        <ele>224.4</ele>
        <time>2019-08-18T09:29:59Z</time>
      </trkpt>
      <trkpt lat="42.7932310" lon="-8.4511340">
        <ele>224.7</ele>
        <time>2019-08-18T09:30:00Z</time>
      </trkpt>
      <trkpt lat="42.7932280" lon="-8.4511780">
        <ele>225.0</ele>
        <time>2019-08-18T09:30:01Z</time>
      </trkpt>
      <trkpt lat="42.7932240" lon="-8.4512200">
        <ele>225.3</ele>
        <time>2019-08-18T09:30:02Z</time>
      </trkpt>
      <trkpt lat="42.7932200" lon="-8.4512610">
        <ele>225.6</ele>
        <time>2019-08-18T09:30:03Z</time>
      </trkpt>
      <trkpt lat="42.7932150" lon="-8.4513010">
        <ele>225.9</ele>
        <time>2019-08-18T09:30:04Z</time>
      </trkpt>
      <trkpt lat="42.7932090" lon="-8.4513400">
        <ele>226.2</ele>
        <time>2019-08-18T09:30:05Z</time>
      </trkpt>
      <trkpt lat="42.7932030" lon="-8.4513780">
        <ele>226.4</ele>
        <time>2019-08-18T09:30:06Z</time>
      </trkpt>
      <trkpt lat="42.7931970" lon="-8.4514150">
        <ele>226.7</ele>
        <time>2019-08-18T09:30:07Z</time>
      </trkpt>
      <trkpt lat="42.7931900" lon="-8.4514510">
        <ele>226.9</ele>
        <time>2019-08-18T09:30:08Z</time>
      </trkpt>
      <trkpt lat="42.7931830" lon="-8.4514870">
        <ele>227.1</ele>
        <time>2019-08-18T09:30:09Z</time>
      </trkpt>
      <trkpt lat="42.7931750" lon="-8.4515210">
        <ele>227.3</ele>
        <time>2019-08-18T09:30:10Z</time>
      </trkpt>
      <trkpt lat="42.7931670" lon="-8.4515550">
        <ele>227.6</ele>
        <time>2019-08-18T09:30:11Z</time>
      </trkpt>
      <trkpt lat="42.7931580" lon="-8.4515880">
        <ele>227.8</ele>
        <time>2019-08-18T09:30:12Z</time>
      </trkpt>
      <trkpt lat="42.7931490" lon="-8.4516210">
        <ele>228.1</ele>
        <time>2019-08-18T09:30:13Z</time>
      </trkpt>
      <trkpt lat="42.7931400" lon="-8.4516530">
        <ele>228.4</ele>
        <time>2019-08-18T09:30:14Z</time>
      </trkpt>
      <trkpt lat="42.7931310" lon="-8.4516850">
        <ele>228.7</ele>
        <time>2019-08-18T09:30:15Z</time>
      </trkpt>
      <trkpt lat="42.7931210" lon="-8.4517170">
        <ele>228.9</ele>
        <time>2019-08-18T09:30:16Z</time>
      </trkpt>
      <trkpt lat="42.7931110" lon="-8.4517490">
        <ele>229.1</ele>
        <time>2019-08-18T09:30:17Z</time>
      </trkpt>
      <trkpt lat="42.7931010" lon="-8.4517800">
        <ele>229.2</ele>
        <time>2019-08-18T09:30:18Z</time>
      </trkpt>
      <trkpt lat="42.7930910" lon="-8.4518120">
        <ele>229.5</ele>
        <time>2019-08-18T09:30:19Z</time>
      </trkpt>
      <trkpt lat="42.7930810" lon="-8.4518430">
        <ele>229.7</ele>
        <time>2019-08-18T09:30:20Z</time>
      </trkpt>
      <trkpt lat="42.7930710" lon="-8.4518740">
        <ele>229.9</ele>
        <time>2019-08-18T09:30:21Z</time>
      </trkpt>
      <trkpt lat="42.7930600" lon="-8.4519060">
        <ele>230.1</ele>
        <time>2019-08-18T09:30:22Z</time>
      </trkpt>
      <trkpt lat="42.7930490" lon="-8.4519370">
        <ele>230.3</ele>
        <time>2019-08-18T09:30:23Z</time>
      </trkpt>
      <trkpt lat="42.7930390" lon="-8.4519680">
        <ele>230.5</ele>
        <time>2019-08-18T09:30:24Z</time>
      </trkpt>
      <trkpt lat="42.7930280" lon="-8.4519990">
        <ele>230.7</ele>
        <time>2019-08-18T09:30:25Z</time>
      </trkpt>
      <trkpt lat="42.7930170" lon="-8.4520300">
        <ele>230.9</ele>
        <time>2019-08-18T09:30:26Z</time>
      </trkpt>
      <trkpt lat="42.7930060" lon="-8.4520610">
        <ele>231.1</ele>
        <time>2019-08-18T09:30:27Z</time>
      </trkpt>
      <trkpt lat="42.7929950" lon="-8.4520910">
        <ele>231.3</ele>
        <time>2019-08-18T09:30:28Z</time>
      </trkpt>
      <trkpt lat="42.7929840" lon="-8.4521220">
        <ele>231.5</ele>
        <time>2019-08-18T09:30:29Z</time>
      </trkpt>
      <trkpt lat="42.7929730" lon="-8.4521530">
        <ele>231.8</ele>
        <time>2019-08-18T09:30:30Z</time>
      </trkpt>
      <trkpt lat="42.7929620" lon="-8.4521830">
        <ele>232.0</ele>
        <time>2019-08-18T09:30:31Z</time>
      </trkpt>
      <trkpt lat="42.7929510" lon="-8.4522130">
        <ele>232.2</ele>
        <time>2019-08-18T09:30:32Z</time>
      </trkpt>
      <trkpt lat="42.7929400" lon="-8.4522440">
        <ele>232.4</ele>
        <time>2019-08-18T09:30:33Z</time>
      </trkpt>
      <trkpt lat="42.7929290" lon="-8.4522740">
        <ele>232.6</ele>
        <time>2019-08-18T09:30:34Z</time>
      </trkpt>
      <trkpt lat="42.7929180" lon="-8.4523040">
        <ele>232.8</ele>
        <time>2019-08-18T09:30:35Z</time>
      </trkpt>
      <trkpt lat="42.7929080" lon="-8.4523340">
        <ele>233.0</ele>
        <time>2019-08-18T09:30:36Z</time>
      </trkpt>
      <trkpt lat="42.7928970" lon="-8.4523630">
        <ele>233.2</ele>
        <time>2019-08-18T09:30:37Z</time>
      </trkpt>
      <trkpt lat="42.7928860" lon="-8.4523930">
        <ele>233.5</ele>
        <time>2019-08-18T09:30:38Z</time>
      </trkpt>
      <trkpt lat="42.7928750" lon="-8.4524230">
        <ele>233.7</ele>
        <time>2019-08-18T09:30:39Z</time>
      </trkpt>
      <trkpt lat="42.7928640" lon="-8.4524530">
        <ele>233.9</ele>
        <time>2019-08-18T09:30:40Z</time>
      </trkpt>
      <trkpt lat="42.7928530" lon="-8.4524830">
        <ele>234.1</ele>
        <time>2019-08-18T09:30:41Z</time>
      </trkpt>
      <trkpt lat="42.7928430" lon="-8.4525140">
        <ele>234.3</ele>
        <time>2019-08-18T09:30:42Z</time>
      </trkpt>
      <trkpt lat="42.7928320" lon="-8.4525440">
        <ele>234.5</ele>
        <time>2019-08-18T09:30:43Z</time>
      </trkpt>
      <trkpt lat="42.7928210" lon="-8.4525750">
        <ele>234.8</ele>
        <time>2019-08-18T09:30:44Z</time>
      </trkpt>
      <trkpt lat="42.7928100" lon="-8.4526060">
        <ele>235.0</ele>
        <time>2019-08-18T09:30:45Z</time>
      </trkpt>
      <trkpt lat="42.7927990" lon="-8.4526380">
        <ele>235.2</ele>
        <time>2019-08-18T09:30:46Z</time>
      </trkpt>
      <trkpt lat="42.7927880" lon="-8.4526700">
        <ele>235.4</ele>
        <time>2019-08-18T09:30:47Z</time>
      </trkpt>
      <trkpt lat="42.7927770" lon="-8.4527020">
        <ele>235.6</ele>
        <time>2019-08-18T09:30:48Z</time>
      </trkpt>
      <trkpt lat="42.7927650" lon="-8.4527350">
        <ele>235.8</ele>
        <time>2019-08-18T09:30:49Z</time>
      </trkpt>
      <trkpt lat="42.7927540" lon="-8.4527670">
        <ele>236.0</ele>
        <time>2019-08-18T09:30:50Z</time>
      </trkpt>
      <trkpt lat="42.7927430" lon="-8.4527990">
        <ele>236.2</ele>
        <time>2019-08-18T09:30:51Z</time>
      </trkpt>
      <trkpt lat="42.7927320" lon="-8.4528290">
        <ele>236.5</ele>
        <time>2019-08-18T09:30:52Z</time>
      </trkpt>
      <trkpt lat="42.7927220" lon="-8.4528580">
        <ele>236.7</ele>
        <time>2019-08-18T09:30:53Z</time>
      </trkpt>
      <trkpt lat="42.7927120" lon="-8.4528850">
        <ele>236.9</ele>
        <time>2019-08-18T09:30:54Z</time>
      </trkpt>
      <trkpt lat="42.7927030" lon="-8.4529110">
        <ele>237.1</ele>
        <time>2019-08-18T09:30:55Z</time>
      </trkpt>
      <trkpt lat="42.7926950" lon="-8.4529350">
        <ele>237.3</ele>
        <time>2019-08-18T09:30:56Z</time>
      </trkpt>
      <trkpt lat="42.7926860" lon="-8.4529590">
        <ele>237.5</ele>
        <time>2019-08-18T09:30:57Z</time>
      </trkpt>
      <trkpt lat="42.7926770" lon="-8.4529850">
        <ele>237.7</ele>
        <time>2019-08-18T09:30:58Z</time>
      </trkpt>
      <trkpt lat="42.7926680" lon="-8.4530130">
        <ele>237.9</ele>
        <time>2019-08-18T09:30:59Z</time>
      </trkpt>
      <trkpt lat="42.7926580" lon="-8.4530420">
        <ele>238.1</ele>
        <time>2019-08-18T09:31:00Z</time>
      </trkpt>
      <trkpt lat="42.7926480" lon="-8.4530720">
        <ele>238.3</ele>
        <time>2019-08-18T09:31:01Z</time>
      </trkpt>
      <trkpt lat="42.7926380" lon="-8.4531010">
        <ele>238.5</ele>
        <time>2019-08-18T09:31:02Z</time>
      </trkpt>
      <trkpt lat="42.7926280" lon="-8.4531300">
        <ele>238.7</ele>
        <time>2019-08-18T09:31:03Z</time>
      </trkpt>
      <trkpt lat="42.7926170" lon="-8.4531580">
        <ele>238.9</ele>
        <time>2019-08-18T09:31:04Z</time>
      </trkpt>
      <trkpt lat="42.7926060" lon="-8.4531860">
        <ele>239.1</ele>
        <time>2019-08-18T09:31:05Z</time>
      </trkpt>
      <trkpt lat="42.7925950" lon="-8.4532140">
        <ele>239.3</ele>
        <time>2019-08-18T09:31:06Z</time>
      </trkpt>
      <trkpt lat="42.7925840" lon="-8.4532420">
        <ele>239.5</ele>
        <time>2019-08-18T09:31:07Z</time>
      </trkpt>
      <trkpt lat="42.7925730" lon="-8.4532700">
        <ele>239.7</ele>
        <time>2019-08-18T09:31:08Z</time>
      </trkpt>
      <trkpt lat="42.7925610" lon="-8.4532970">
        <ele>239.9</ele>
        <time>2019-08-18T09:31:09Z</time>
      </trkpt>
      <trkpt lat="42.7925500" lon="-8.4533250">
        <ele>240.2</ele>
        <time>2019-08-18T09:31:10Z</time>
      </trkpt>
      <trkpt lat="42.7925390" lon="-8.4533530">
        <ele>240.4</ele>
        <time>2019-08-18T09:31:11Z</time>
      </trkpt>
      <trkpt lat="42.7925280" lon="-8.4533820">
        <ele>240.6</ele>
        <time>2019-08-18T09:31:12Z</time>
      </trkpt>
      <trkpt lat="42.7925170" lon="-8.4534100">
        <ele>240.8</ele>
        <time>2019-08-18T09:31:13Z</time>
      </trkpt>
      <trkpt lat="42.7925060" lon="-8.4534390">
        <ele>241.0</ele>
        <time>2019-08-18T09:31:14Z</time>
      </trkpt>
      <trkpt lat="42.7924960" lon="-8.4534690">
        <ele>241.3</ele>
        <time>2019-08-18T09:31:15Z</time>
      </trkpt>
      <trkpt lat="42.7924860" lon="-8.4535000">
        <ele>241.5</ele>
        <time>2019-08-18T09:31:16Z</time>
      </trkpt>
      <trkpt lat="42.7924760" lon="-8.4535310">
        <ele>241.7</ele>
        <time>2019-08-18T09:31:17Z</time>
      </trkpt>
      <trkpt lat="42.7924660" lon="-8.4535620">
        <ele>241.9</ele>
        <time>2019-08-18T09:31:18Z</time>
      </trkpt>
      <trkpt lat="42.7924560" lon="-8.4535930">
        <ele>242.1</ele>
        <time>2019-08-18T09:31:19Z</time>
      </trkpt>
      <trkpt lat="42.7924460" lon="-8.4536250">
        <ele>242.2</ele>
        <time>2019-08-18T09:31:20Z</time>
      </trkpt>
      <trkpt lat="42.7924350" lon="-8.4536560">
        <ele>242.4</ele>
        <time>2019-08-18T09:31:21Z</time>
      </trkpt>
      <trkpt lat="42.7924230" lon="-8.4536860">
        <ele>242.6</ele>
        <time>2019-08-18T09:31:22Z</time>
      </trkpt>
      <trkpt lat="42.7924090" lon="-8.4537160">
        <ele>242.8</ele>
        <time>2019-08-18T09:31:23Z</time>
      </trkpt>
      <trkpt lat="42.7923930" lon="-8.4537460">
        <ele>243.0</ele>
        <time>2019-08-18T09:31:24Z</time>
      </trkpt>
      <trkpt lat="42.7923760" lon="-8.4537750">
        <ele>243.2</ele>
        <time>2019-08-18T09:31:25Z</time>
      </trkpt>
      <trkpt lat="42.7923590" lon="-8.4538040">
        <ele>243.4</ele>
        <time>2019-08-18T09:31:26Z</time>
      </trkpt>
      <trkpt lat="42.7923440" lon="-8.4538310">
        <ele>243.6</ele>
        <time>2019-08-18T09:31:27Z</time>
      </trkpt>
      <trkpt lat="42.7923300" lon="-8.4538570">
        <ele>243.8</ele>
        <time>2019-08-18T09:31:28Z</time>
      </trkpt>
      <trkpt lat="42.7923190" lon="-8.4538830">
        <ele>243.9</ele>
        <time>2019-08-18T09:31:29Z</time>
      </trkpt>
      <trkpt lat="42.7923080" lon="-8.4539090">
        <ele>244.1</ele>
        <time>2019-08-18T09:31:30Z</time>
      </trkpt>
      <trkpt lat="42.7922970" lon="-8.4539370">
        <ele>244.3</ele>
        <time>2019-08-18T09:31:31Z</time>
      </trkpt>
      <trkpt lat="42.7922840" lon="-8.4539650">
        <ele>244.4</ele>
        <time>2019-08-18T09:31:32Z</time>
      </trkpt>
      <trkpt lat="42.7922720" lon="-8.4539950">
        <ele>244.6</ele>
        <time>2019-08-18T09:31:33Z</time>
      </trkpt>
      <trkpt lat="42.7922580" lon="-8.4540250">
        <ele>244.8</ele>
        <time>2019-08-18T09:31:34Z</time>
      </trkpt>
      <trkpt lat="42.7922450" lon="-8.4540560">
        <ele>245.0</ele>
        <time>2019-08-18T09:31:35Z</time>
      </trkpt>
      <trkpt lat="42.7922310" lon="-8.4540870">
        <ele>245.2</ele>
        <time>2019-08-18T09:31:36Z</time>
      </trkpt>
      <trkpt lat="42.7922170" lon="-8.4541170">
        <ele>245.4</ele>
        <time>2019-08-18T09:31:37Z</time>
      </trkpt>
      <trkpt lat="42.7922040" lon="-8.4541470">
        <ele>245.6</ele>
        <time>2019-08-18T09:31:38Z</time>
      </trkpt>
      <trkpt lat="42.7921900" lon="-8.4541760">
        <ele>245.7</ele>
        <time>2019-08-18T09:31:39Z</time>
      </trkpt>
      <trkpt lat="42.7921770" lon="-8.4542050">
        <ele>245.9</ele>
        <time>2019-08-18T09:31:40Z</time>
      </trkpt>
      <trkpt lat="42.7921630" lon="-8.4542320">
        <ele>246.1</ele>
        <time>2019-08-18T09:31:41Z</time>
      </trkpt>
      <trkpt lat="42.7921500" lon="-8.4542600">
        <ele>246.3</ele>
        <time>2019-08-18T09:31:42Z</time>
      </trkpt>
      <trkpt lat="42.7921360" lon="-8.4542870">
        <ele>246.5</ele>
        <time>2019-08-18T09:31:43Z</time>
      </trkpt>
      <trkpt lat="42.7921220" lon="-8.4543140">
        <ele>246.7</ele>
        <time>2019-08-18T09:31:44Z</time>
      </trkpt>
      <trkpt lat="42.7921080" lon="-8.4543410">
        <ele>246.9</ele>
        <time>2019-08-18T09:31:45Z</time>
      </trkpt>
      <trkpt lat="42.7920930" lon="-8.4543680">
        <ele>247.1</ele>
        <time>2019-08-18T09:31:46Z</time>
      </trkpt>
      <trkpt lat="42.7920770" lon="-8.4543960">
        <ele>247.4</ele>
        <time>2019-08-18T09:31:47Z</time>
      </trkpt>
      <trkpt lat="42.7920610" lon="-8.4544230">
        <ele>247.6</ele>
        <time>2019-08-18T09:31:48Z</time>
      </trkpt>
      <trkpt lat="42.7920450" lon="-8.4544500">
        <ele>247.8</ele>
        <time>2019-08-18T09:31:49Z</time>
      </trkpt>
      <trkpt lat="42.7920290" lon="-8.4544770">
        <ele>248.0</ele>
        <time>2019-08-18T09:31:50Z</time>
      </trkpt>
      <trkpt lat="42.7920120" lon="-8.4545040">
        <ele>248.2</ele>
        <time>2019-08-18T09:31:51Z</time>
      </trkpt>
      <trkpt lat="42.7919950" lon="-8.4545300">
        <ele>248.4</ele>
        <time>2019-08-18T09:31:52Z</time>
      </trkpt>
      <trkpt lat="42.7919770" lon="-8.4545560">
        <ele>248.7</ele>
        <time>2019-08-18T09:31:53Z</time>
      </trkpt>
      <trkpt lat="42.7919600" lon="-8.4545820">
        <ele>248.9</ele>
        <time>2019-08-18T09:31:54Z</time>
      </trkpt>
      <trkpt lat="42.7919420" lon="-8.4546070">
        <ele>249.1</ele>
        <time>2019-08-18T09:31:55Z</time>
      </trkpt>
      <trkpt lat="42.7919240" lon="-8.4546320">
        <ele>249.3</ele>
        <time>2019-08-18T09:31:56Z</time>
      </trkpt>
      <trkpt lat="42.7919060" lon="-8.4546570">
        <ele>249.5</ele>
        <time>2019-08-18T09:31:57Z</time>
      </trkpt>
      <trkpt lat="42.7918880" lon="-8.4546810">
        <ele>249.7</ele>
        <time>2019-08-18T09:31:58Z</time>
      </trkpt>
      <trkpt lat="42.7918700" lon="-8.4547060">
        <ele>250.0</ele>
        <time>2019-08-18T09:31:59Z</time>
      </trkpt>
      <trkpt lat="42.7918510" lon="-8.4547310">
        <ele>250.2</ele>
        <time>2019-08-18T09:32:00Z</time>
      </trkpt>
      <trkpt lat="42.7918330" lon="-8.4547560">
        <ele>250.4</ele>
        <time>2019-08-18T09:32:01Z</time>
      </trkpt>
      <trkpt lat="42.7918140" lon="-8.4547810">
        <ele>250.6</ele>
        <time>2019-08-18T09:32:02Z</time>
      </trkpt>
      <trkpt lat="42.7917960" lon="-8.4548060">
        <ele>250.8</ele>
        <time>2019-08-18T09:32:03Z</time>
      </trkpt>
      <trkpt lat="42.7917770" lon="-8.4548310">
        <ele>251.1</ele>
        <time>2019-08-18T09:32:04Z</time>
      </trkpt>
      <trkpt lat="42.7917590" lon="-8.4548550">
        <ele>251.3</ele>
        <time>2019-08-18T09:32:05Z</time>
      </trkpt>
      <trkpt lat="42.7917410" lon="-8.4548800">
        <ele>251.6</ele>
        <time>2019-08-18T09:32:06Z</time>
      </trkpt>
      <trkpt lat="42.7917230" lon="-8.4549040">
        <ele>251.8</ele>
        <time>2019-08-18T09:32:07Z</time>
      </trkpt>
      <trkpt lat="42.7917050" lon="-8.4549280">
        <ele>252.0</ele>
        <time>2019-08-18T09:32:08Z</time>
      </trkpt>
      <trkpt lat="42.7916850" lon="-8.4549520">
        <ele>252.2</ele>
        <time>2019-08-18T09:32:09Z</time>
      </trkpt>
      <trkpt lat="42.7916650" lon="-8.4549750">
        <ele>252.5</ele>
        <time>2019-08-18T09:32:10Z</time>
      </trkpt>
      <trkpt lat="42.7916450" lon="-8.4549990">
        <ele>252.7</ele>
        <time>2019-08-18T09:32:11Z</time>
      </trkpt>
      <trkpt lat="42.7916250" lon="-8.4550230">
        <ele>252.9</ele>
        <time>2019-08-18T09:32:12Z</time>
      </trkpt>
      <trkpt lat="42.7916040" lon="-8.4550460">
        <ele>253.1</ele>
        <time>2019-08-18T09:32:13Z</time>
      </trkpt>
      <trkpt lat="42.7915830" lon="-8.4550700">
        <ele>253.3</ele>
        <time>2019-08-18T09:32:14Z</time>
      </trkpt>
      <trkpt lat="42.7915630" lon="-8.4550930">
        <ele>253.5</ele>
        <time>2019-08-18T09:32:15Z</time>
      </trkpt>
      <trkpt lat="42.7915420" lon="-8.4551170">
        <ele>253.7</ele>
        <time>2019-08-18T09:32:16Z</time>
      </trkpt>
      <trkpt lat="42.7915220" lon="-8.4551400">
        <ele>253.9</ele>
        <time>2019-08-18T09:32:17Z</time>
      </trkpt>
      <trkpt lat="42.7915020" lon="-8.4551620">
        <ele>254.1</ele>
        <time>2019-08-18T09:32:18Z</time>
      </trkpt>
      <trkpt lat="42.7914810" lon="-8.4551830">
        <ele>254.3</ele>
        <time>2019-08-18T09:32:19Z</time>
      </trkpt>
      <trkpt lat="42.7914600" lon="-8.4552010">
        <ele>254.4</ele>
        <time>2019-08-18T09:32:20Z</time>
      </trkpt>
      <trkpt lat="42.7914390" lon="-8.4552200">
        <ele>254.6</ele>
        <time>2019-08-18T09:32:21Z</time>
      </trkpt>
      <trkpt lat="42.7914180" lon="-8.4552390">
        <ele>254.7</ele>
        <time>2019-08-18T09:32:22Z</time>
      </trkpt>
      <trkpt lat="42.7913960" lon="-8.4552600">
        <ele>254.9</ele>
        <time>2019-08-18T09:32:23Z</time>
      </trkpt>
      <trkpt lat="42.7913750" lon="-8.4552830">
        <ele>255.1</ele>
        <time>2019-08-18T09:32:24Z</time>
      </trkpt>
      <trkpt lat="42.7913540" lon="-8.4553070">
        <ele>255.3</ele>
        <time>2019-08-18T09:32:25Z</time>
      </trkpt>
      <trkpt lat="42.7913340" lon="-8.4553330">
        <ele>255.5</ele>
        <time>2019-08-18T09:32:26Z</time>
      </trkpt>
      <trkpt lat="42.7913130" lon="-8.4553590">
        <ele>255.6</ele>
        <time>2019-08-18T09:32:27Z</time>
      </trkpt>
      <trkpt lat="42.7912920" lon="-8.4553860">
        <ele>255.8</ele>
        <time>2019-08-18T09:32:28Z</time>
      </trkpt>
      <trkpt lat="42.7912700" lon="-8.4554120">
        <ele>256.0</ele>
        <time>2019-08-18T09:32:29Z</time>
      </trkpt>
      <trkpt lat="42.7912490" lon="-8.4554380">
        <ele>256.2</ele>
        <time>2019-08-18T09:32:30Z</time>
      </trkpt>
      <trkpt lat="42.7912270" lon="-8.4554640">
        <ele>256.4</ele>
        <time>2019-08-18T09:32:31Z</time>
      </trkpt>
      <trkpt lat="42.7912060" lon="-8.4554890">
        <ele>256.5</ele>
        <time>2019-08-18T09:32:32Z</time>
      </trkpt>
      <trkpt lat="42.7911840" lon="-8.4555140">
        <ele>256.7</ele>
        <time>2019-08-18T09:32:33Z</time>
      </trkpt>
      <trkpt lat="42.7911620" lon="-8.4555400">
        <ele>256.9</ele>
        <time>2019-08-18T09:32:34Z</time>
      </trkpt>
      <trkpt lat="42.7911400" lon="-8.4555660">
        <ele>257.1</ele>
        <time>2019-08-18T09:32:35Z</time>
      </trkpt>
      <trkpt lat="42.7911170" lon="-8.4555920">
        <ele>257.3</ele>
        <time>2019-08-18T09:32:36Z</time>
      </trkpt>
      <trkpt lat="42.7910950" lon="-8.4556190">
        <ele>257.5</ele>
        <time>2019-08-18T09:32:37Z</time>
      </trkpt>
      <trkpt lat="42.7910720" lon="-8.4556470">
        <ele>257.8</ele>
        <time>2019-08-18T09:32:38Z</time>
      </trkpt>
      <trkpt lat="42.7910500" lon="-8.4556760">
        <ele>258.0</ele>
        <time>2019-08-18T09:32:39Z</time>
      </trkpt>
      <trkpt lat="42.7910280" lon="-8.4557050">
        <ele>258.2</ele>
        <time>2019-08-18T09:32:40Z</time>
      </trkpt>
      <trkpt lat="42.7910060" lon="-8.4557350">
        <ele>258.4</ele>
        <time>2019-08-18T09:32:41Z</time>
      </trkpt>
      <trkpt lat="42.7909850" lon="-8.4557640">
        <ele>258.6</ele>
        <time>2019-08-18T09:32:42Z</time>
      </trkpt>
      <trkpt lat="42.7909650" lon="-8.4557920">
        <ele>258.8</ele>
        <time>2019-08-18T09:32:43Z</time>
      </trkpt>
      <trkpt lat="42.7909460" lon="-8.4558200">
        <ele>259.0</ele>
        <time>2019-08-18T09:32:44Z</time>
      </trkpt>
      <trkpt lat="42.7909280" lon="-8.4558470">
        <ele>259.2</ele>
        <time>2019-08-18T09:32:45Z</time>
      </trkpt>
      <trkpt lat="42.7909110" lon="-8.4558740">
        <ele>259.4</ele>
        <time>2019-08-18T09:32:46Z</time>
      </trkpt>
      <trkpt lat="42.7908940" lon="-8.4559030">
        <ele>259.6</ele>
        <time>2019-08-18T09:32:47Z</time>
      </trkpt>
      <trkpt lat="42.7908780" lon="-8.4559340">
        <ele>259.8</ele>
        <time>2019-08-18T09:32:48Z</time>
      </trkpt>
      <trkpt lat="42.7908620" lon="-8.4559680">
        <ele>260.0</ele>
        <time>2019-08-18T09:32:49Z</time>
      </trkpt>
      <trkpt lat="42.7908450" lon="-8.4560050">
        <ele>260.2</ele>
        <time>2019-08-18T09:32:50Z</time>
      </trkpt>
      <trkpt lat="42.7908280" lon="-8.4560430">
        <ele>260.4</ele>
        <time>2019-08-18T09:32:51Z</time>
      </trkpt>
      <trkpt lat="42.7908110" lon="-8.4560810">
        <ele>260.6</ele>
        <time>2019-08-18T09:32:52Z</time>
      </trkpt>
      <trkpt lat="42.7907950" lon="-8.4561200">
        <ele>260.8</ele>
        <time>2019-08-18T09:32:53Z</time>
      </trkpt>
      <trkpt lat="42.7907780" lon="-8.4561590">
        <ele>261.0</ele>
        <time>2019-08-18T09:32:54Z</time>
      </trkpt>
      <trkpt lat="42.7907620" lon="-8.4561990">
        <ele>261.2</ele>
        <time>2019-08-18T09:32:55Z</time>
      </trkpt>
      <trkpt lat="42.7907460" lon="-8.4562400">
        <ele>261.4</ele>
        <time>2019-08-18T09:32:56Z</time>
      </trkpt>
      <trkpt lat="42.7907310" lon="-8.4562820">
        <ele>261.6</ele>
        <time>2019-08-18T09:32:57Z</time>
      </trkpt>
      <trkpt lat="42.7907170" lon="-8.4563260">
        <ele>261.7</ele>
        <time>2019-08-18T09:32:58Z</time>
      </trkpt>
      <trkpt lat="42.7907040" lon="-8.4563710">
        <ele>261.9</ele>
        <time>2019-08-18T09:32:59Z</time>
      </trkpt>
      <trkpt lat="42.7906910" lon="-8.4564170">
        <ele>262.1</ele>
        <time>2019-08-18T09:33:00Z</time>
      </trkpt>
      <trkpt lat="42.7906800" lon="-8.4564640">
        <ele>262.2</ele>
        <time>2019-08-18T09:33:01Z</time>
      </trkpt>
      <trkpt lat="42.7906690" lon="-8.4565130">
        <ele>262.5</ele>
        <time>2019-08-18T09:33:02Z</time>
      </trkpt>
      <trkpt lat="42.7906600" lon="-8.4565630">
        <ele>262.4</ele>
        <time>2019-08-18T09:33:03Z</time>
      </trkpt>
      <trkpt lat="42.7906510" lon="-8.4566140">
        <ele>262.3</ele>
        <time>2019-08-18T09:33:04Z</time>
      </trkpt>
      <trkpt lat="42.7906440" lon="-8.4566650">
        <ele>262.2</ele>
        <time>2019-08-18T09:33:05Z</time>
      </trkpt>
      <trkpt lat="42.7906380" lon="-8.4567180">
        <ele>262.1</ele>
        <time>2019-08-18T09:33:06Z</time>
      </trkpt>
      <trkpt lat="42.7906330" lon="-8.4567720">
        <ele>262.0</ele>
        <time>2019-08-18T09:33:07Z</time>
      </trkpt>
      <trkpt lat="42.7906290" lon="-8.4568260">
        <ele>261.9</ele>
        <time>2019-08-18T09:33:08Z</time>
      </trkpt>
      <trkpt lat="42.7906260" lon="-8.4568810">
        <ele>261.8</ele>
        <time>2019-08-18T09:33:09Z</time>
      </trkpt>
      <trkpt lat="42.7906240" lon="-8.4569370">
        <ele>261.8</ele>
        <time>2019-08-18T09:33:10Z</time>
      </trkpt>
      <trkpt lat="42.7906240" lon="-8.4569930">
        <ele>261.7</ele>
        <time>2019-08-18T09:33:11Z</time>
      </trkpt>
      <trkpt lat="42.7906250" lon="-8.4570490">
        <ele>261.6</ele>
        <time>2019-08-18T09:33:12Z</time>
      </trkpt>
      <trkpt lat="42.7906280" lon="-8.4571060">
        <ele>261.5</ele>
        <time>2019-08-18T09:33:13Z</time>
      </trkpt>
      <trkpt lat="42.7906320" lon="-8.4571630">
        <ele>261.4</ele>
        <time>2019-08-18T09:33:14Z</time>
      </trkpt>
      <trkpt lat="42.7906370" lon="-8.4572200">
        <ele>261.4</ele>
        <time>2019-08-18T09:33:15Z</time>
      </trkpt>
      <trkpt lat="42.7906440" lon="-8.4572770">
        <ele>261.3</ele>
        <time>2019-08-18T09:33:16Z</time>
      </trkpt>
      <trkpt lat="42.7906530" lon="-8.4573340">
        <ele>261.2</ele>
        <time>2019-08-18T09:33:17Z</time>
      </trkpt>
      <trkpt lat="42.7906610" lon="-8.4573910">
        <ele>261.1</ele>
        <time>2019-08-18T09:33:18Z</time>
      </trkpt>
      <trkpt lat="42.7906730" lon="-8.4574480">
        <ele>261.0</ele>
        <time>2019-08-18T09:33:19Z</time>
      </trkpt>
      <trkpt lat="42.7906860" lon="-8.4575050">
        <ele>260.8</ele>
        <time>2019-08-18T09:33:20Z</time>
      </trkpt>
      <trkpt lat="42.7907000" lon="-8.4575610">
        <ele>260.6</ele>
        <time>2019-08-18T09:33:21Z</time>
      </trkpt>
      <trkpt lat="42.7907160" lon="-8.4576170">
        <ele>260.5</ele>
        <time>2019-08-18T09:33:22Z</time>
      </trkpt>
      <trkpt lat="42.7907340" lon="-8.4576720">
        <ele>260.3</ele>
        <time>2019-08-18T09:33:23Z</time>
      </trkpt>
      <trkpt lat="42.7907530" lon="-8.4577270">
        <ele>260.1</ele>
        <time>2019-08-18T09:33:24Z</time>
      </trkpt>
      <trkpt lat="42.7907740" lon="-8.4577810">
        <ele>259.8</ele>
        <time>2019-08-18T09:33:25Z</time>
      </trkpt>
      <trkpt lat="42.7907970" lon="-8.4578340">
        <ele>259.8</ele>
        <time>2019-08-18T09:33:26Z</time>
      </trkpt>
      <trkpt lat="42.7908220" lon="-8.4578870">
        <ele>259.9</ele>
        <time>2019-08-18T09:33:27Z</time>
      </trkpt>
      <trkpt lat="42.7908490" lon="-8.4579380">
        <ele>260.0</ele>
        <time>2019-08-18T09:33:28Z</time>
      </trkpt>
      <trkpt lat="42.7908770" lon="-8.4579890">
        <ele>260.0</ele>
        <time>2019-08-18T09:33:29Z</time>
      </trkpt>
      <trkpt lat="42.7909060" lon="-8.4580400">
        <ele>260.1</ele>
        <time>2019-08-18T09:33:30Z</time>
      </trkpt>
      <trkpt lat="42.7909370" lon="-8.4580900">
        <ele>260.1</ele>
        <time>2019-08-18T09:33:31Z</time>
      </trkpt>
      <trkpt lat="42.7909680" lon="-8.4581400">
        <ele>260.2</ele>
        <time>2019-08-18T09:33:32Z</time>
      </trkpt>
      <trkpt lat="42.7910000" lon="-8.4581900">
        <ele>260.2</ele>
        <time>2019-08-18T09:33:33Z</time>
      </trkpt>
      <trkpt lat="42.7910320" lon="-8.4582410">
        <ele>260.3</ele>
        <time>2019-08-18T09:33:34Z</time>
      </trkpt>
      <trkpt lat="42.7910650" lon="-8.4582930">
        <ele>260.3</ele>
        <time>2019-08-18T09:33:35Z</time>
      </trkpt>
      <trkpt lat="42.7910970" lon="-8.4583450">
        <ele>260.3</ele>
        <time>2019-08-18T09:33:36Z</time>
      </trkpt>
      <trkpt lat="42.7911290" lon="-8.4583980">
        <ele>260.4</ele>
        <time>2019-08-18T09:33:37Z</time>
      </trkpt>
      <trkpt lat="42.7911610" lon="-8.4584520">
        <ele>260.4</ele>
        <time>2019-08-18T09:33:38Z</time>
      </trkpt>
      <trkpt lat="42.7911940" lon="-8.4585050">
        <ele>260.4</ele>
        <time>2019-08-18T09:33:39Z</time>
      </trkpt>
      <trkpt lat="42.7912270" lon="-8.4585590">
        <ele>260.4</ele>
        <time>2019-08-18T09:33:40Z</time>
      </trkpt>
      <trkpt lat="42.7912610" lon="-8.4586120">
        <ele>260.5</ele>
        <time>2019-08-18T09:33:41Z</time>
      </trkpt>
      <trkpt lat="42.7912960" lon="-8.4586650">
        <ele>260.5</ele>
        <time>2019-08-18T09:33:42Z</time>
      </trkpt>
      <trkpt lat="42.7913310" lon="-8.4587160">
        <ele>260.5</ele>
        <time>2019-08-18T09:33:43Z</time>
      </trkpt>
      <trkpt lat="42.7913680" lon="-8.4587680">
        <ele>260.5</ele>
        <time>2019-08-18T09:33:44Z</time>
      </trkpt>
      <trkpt lat="42.7914050" lon="-8.4588180">
        <ele>260.5</ele>
        <time>2019-08-18T09:33:45Z</time>
      </trkpt>
      <trkpt lat="42.7914430" lon="-8.4588680">
        <ele>260.5</ele>
        <time>2019-08-18T09:33:46Z</time>
      </trkpt>
      <trkpt lat="42.7914800" lon="-8.4589170">
        <ele>260.5</ele>
        <time>2019-08-18T09:33:47Z</time>
      </trkpt>
      <trkpt lat="42.7915430" lon="-8.4589970">
        <ele>260.5</ele>
        <time>2019-08-18T09:33:48Z</time>
      </trkpt>
      <trkpt lat="42.7915690" lon="-8.4590280">
        <ele>260.4</ele>
        <time>2019-08-18T09:33:49Z</time>
      </trkpt>
      <trkpt lat="42.7915940" lon="-8.4590600">
        <ele>260.4</ele>
        <time>2019-08-18T09:33:50Z</time>
      </trkpt>
      <trkpt lat="42.7916310" lon="-8.4591070">
        <ele>260.4</ele>
        <time>2019-08-18T09:33:51Z</time>
      </trkpt>
      <trkpt lat="42.7916680" lon="-8.4591540">
        <ele>260.3</ele>
        <time>2019-08-18T09:33:52Z</time>
      </trkpt>
      <trkpt lat="42.7917290" lon="-8.4592300">
        <ele>260.3</ele>
        <time>2019-08-18T09:33:53Z</time>
      </trkpt>
      <trkpt lat="42.7917530" lon="-8.4592590">
        <ele>260.2</ele>
        <time>2019-08-18T09:33:54Z</time>
      </trkpt>
      <trkpt lat="42.7917770" lon="-8.4592890">
        <ele>260.2</ele>
        <time>2019-08-18T09:33:55Z</time>
      </trkpt>
      <trkpt lat="42.7918120" lon="-8.4593330">
        <ele>260.2</ele>
        <time>2019-08-18T09:33:56Z</time>
      </trkpt>
      <trkpt lat="42.7918480" lon="-8.4593770">
        <ele>260.2</ele>
        <time>2019-08-18T09:33:57Z</time>
      </trkpt>
      <trkpt lat="42.7918830" lon="-8.4594200">
        <ele>260.2</ele>
        <time>2019-08-18T09:33:58Z</time>
      </trkpt>
      <trkpt lat="42.7919180" lon="-8.4594620">
        <ele>260.2</ele>
        <time>2019-08-18T09:33:59Z</time>
      </trkpt>
      <trkpt lat="42.7919530" lon="-8.4595030">
        <ele>260.2</ele>
        <time>2019-08-18T09:34:00Z</time>
      </trkpt>
      <trkpt lat="42.7919870" lon="-8.4595450">
        <ele>260.2</ele>
        <time>2019-08-18T09:34:01Z</time>
      </trkpt>
      <trkpt lat="42.7920220" lon="-8.4595860">
        <ele>260.2</ele>
        <time>2019-08-18T09:34:02Z</time>
      </trkpt>
      <trkpt lat="42.7920570" lon="-8.4596270">
        <ele>260.2</ele>
        <time>2019-08-18T09:34:03Z</time>
      </trkpt>
      <trkpt lat="42.7920910" lon="-8.4596690">
        <ele>260.2</ele>
        <time>2019-08-18T09:34:04Z</time>
      </trkpt>
      <trkpt lat="42.7921260" lon="-8.4597100">
        <ele>260.2</ele>
        <time>2019-08-18T09:34:05Z</time>
      </trkpt>
      <trkpt lat="42.7921600" lon="-8.4597520">
        <ele>260.3</ele>
        <time>2019-08-18T09:34:06Z</time>
      </trkpt>
      <trkpt lat="42.7921950" lon="-8.4597940">
        <ele>260.3</ele>
        <time>2019-08-18T09:34:07Z</time>
      </trkpt>
      <trkpt lat="42.7922300" lon="-8.4598360">
        <ele>260.3</ele>
        <time>2019-08-18T09:34:08Z</time>
      </trkpt>
      <trkpt lat="42.7922640" lon="-8.4598790">
        <ele>260.3</ele>
        <time>2019-08-18T09:34:09Z</time>
      </trkpt>
      <trkpt lat="42.7922990" lon="-8.4599210">
        <ele>260.3</ele>
        <time>2019-08-18T09:34:10Z</time>
      </trkpt>
      <trkpt lat="42.7923340" lon="-8.4599630">
        <ele>260.4</ele>
        <time>2019-08-18T09:34:11Z</time>
      </trkpt>
      <trkpt lat="42.7923690" lon="-8.4600050">
        <ele>260.4</ele>
        <time>2019-08-18T09:34:12Z</time>
      </trkpt>
      <trkpt lat="42.7924040" lon="-8.4600460">
        <ele>260.4</ele>
        <time>2019-08-18T09:34:13Z</time>
      </trkpt>
      <trkpt lat="42.7924390" lon="-8.4600880">
        <ele>260.4</ele>
        <time>2019-08-18T09:34:14Z</time>
      </trkpt>
      <trkpt lat="42.7924740" lon="-8.4601290">
        <ele>260.4</ele>
        <time>2019-08-18T09:34:15Z</time>
      </trkpt>
      <trkpt lat="42.7925100" lon="-8.4601700">
        <ele>260.5</ele>
        <time>2019-08-18T09:34:16Z</time>
      </trkpt>
      <trkpt lat="42.7925450" lon="-8.4602110">
        <ele>260.5</ele>
        <time>2019-08-18T09:34:17Z</time>
      </trkpt>
      <trkpt lat="42.7925800" lon="-8.4602520">
        <ele>260.5</ele>
        <time>2019-08-18T09:34:18Z</time>
      </trkpt>
      <trkpt lat="42.7926150" lon="-8.4602930">
        <ele>260.5</ele>
        <time>2019-08-18T09:34:19Z</time>
      </trkpt>
      <trkpt lat="42.7926490" lon="-8.4603340">
        <ele>260.6</ele>
        <time>2019-08-18T09:34:20Z</time>
      </trkpt>
      <trkpt lat="42.7926840" lon="-8.4603750">
        <ele>260.6</ele>
        <time>2019-08-18T09:34:21Z</time>
      </trkpt>
      <trkpt lat="42.7927180" lon="-8.4604170">
        <ele>260.7</ele>
        <time>2019-08-18T09:34:22Z</time>
      </trkpt>
      <trkpt lat="42.7927530" lon="-8.4604580">
        <ele>260.8</ele>
        <time>2019-08-18T09:34:23Z</time>
      </trkpt>
      <trkpt lat="42.7927870" lon="-8.4605000">
        <ele>260.8</ele>
        <time>2019-08-18T09:34:24Z</time>
      </trkpt>
      <trkpt lat="42.7928210" lon="-8.4605410">
        <ele>260.9</ele>
        <time>2019-08-18T09:34:25Z</time>
      </trkpt>
      <trkpt lat="42.7928550" lon="-8.4605830">
        <ele>261.0</ele>
        <time>2019-08-18T09:34:26Z</time>
      </trkpt>
      <trkpt lat="42.7928880" lon="-8.4606240">
        <ele>261.1</ele>
        <time>2019-08-18T09:34:27Z</time>
      </trkpt>
      <trkpt lat="42.7929220" lon="-8.4606650">
        <ele>261.2</ele>
        <time>2019-08-18T09:34:28Z</time>
      </trkpt>
      <trkpt lat="42.7929550" lon="-8.4607070">
        <ele>261.3</ele>
        <time>2019-08-18T09:34:29Z</time>
      </trkpt>
      <trkpt lat="42.7929890" lon="-8.4607480">
        <ele>261.4</ele>
        <time>2019-08-18T09:34:30Z</time>
      </trkpt>
      <trkpt lat="42.7930220" lon="-8.4607890">
        <ele>261.4</ele>
        <time>2019-08-18T09:34:31Z</time>
      </trkpt>
      <trkpt lat="42.7930560" lon="-8.4608310">
        <ele>261.5</ele>
        <time>2019-08-18T09:34:32Z</time>
      </trkpt>
      <trkpt lat="42.7930890" lon="-8.4608720">
        <ele>261.5</ele>
        <time>2019-08-18T09:34:33Z</time>
      </trkpt>
      <trkpt lat="42.7931230" lon="-8.4609130">
        <ele>261.5</ele>
        <time>2019-08-18T09:34:34Z</time>
      </trkpt>
      <trkpt lat="42.7931560" lon="-8.4609550">
        <ele>261.6</ele>
        <time>2019-08-18T09:34:35Z</time>
      </trkpt>
      <trkpt lat="42.7931900" lon="-8.4609960">
        <ele>261.6</ele>
        <time>2019-08-18T09:34:36Z</time>
      </trkpt>
      <trkpt lat="42.7932240" lon="-8.4610380">
        <ele>261.6</ele>
        <time>2019-08-18T09:34:37Z</time>
      </trkpt>
      <trkpt lat="42.7932580" lon="-8.4610790">
        <ele>261.6</ele>
        <time>2019-08-18T09:34:38Z</time>
      </trkpt>
      <trkpt lat="42.7932920" lon="-8.4611210">
        <ele>261.6</ele>
        <time>2019-08-18T09:34:39Z</time>
      </trkpt>
      <trkpt lat="42.7933260" lon="-8.4611620">
        <ele>261.6</ele>
        <time>2019-08-18T09:34:40Z</time>
      </trkpt>
      <trkpt lat="42.7933610" lon="-8.4612040">
        <ele>261.6</ele>
        <time>2019-08-18T09:34:41Z</time>
      </trkpt>
      <trkpt lat="42.7933960" lon="-8.4612460">
        <ele>261.6</ele>
        <time>2019-08-18T09:34:42Z</time>
      </trkpt>
      <trkpt lat="42.7934310" lon="-8.4612880">
        <ele>261.6</ele>
        <time>2019-08-18T09:34:43Z</time>
      </trkpt>
      <trkpt lat="42.7934670" lon="-8.4613310">
        <ele>261.5</ele>
        <time>2019-08-18T09:34:44Z</time>
      </trkpt>
      <trkpt lat="42.7935040" lon="-8.4613750">
        <ele>261.4</ele>
        <time>2019-08-18T09:34:45Z</time>
      </trkpt>
      <trkpt lat="42.7935410" lon="-8.4614190">
        <ele>261.4</ele>
        <time>2019-08-18T09:34:46Z</time>
      </trkpt>
      <trkpt lat="42.7935780" lon="-8.4614650">
        <ele>261.3</ele>
        <time>2019-08-18T09:34:47Z</time>
      </trkpt>
      <trkpt lat="42.7936170" lon="-8.4615130">
        <ele>261.3</ele>
        <time>2019-08-18T09:34:48Z</time>
      </trkpt>
      <trkpt lat="42.7936560" lon="-8.4615620">
        <ele>261.2</ele>
        <time>2019-08-18T09:34:49Z</time>
      </trkpt>
      <trkpt lat="42.7936970" lon="-8.4616130">
        <ele>261.0</ele>
        <time>2019-08-18T09:34:50Z</time>
      </trkpt>
      <trkpt lat="42.7937380" lon="-8.4616650">
        <ele>260.9</ele>
        <time>2019-08-18T09:34:51Z</time>
      </trkpt>
      <trkpt lat="42.7937800" lon="-8.4617190">
        <ele>260.7</ele>
        <time>2019-08-18T09:34:52Z</time>
      </trkpt>
      <trkpt lat="42.7938220" lon="-8.4617730">
        <ele>260.6</ele>
        <time>2019-08-18T09:34:53Z</time>
      </trkpt>
      <trkpt lat="42.7938650" lon="-8.4618290">
        <ele>260.4</ele>
        <time>2019-08-18T09:34:54Z</time>
      </trkpt>
      <trkpt lat="42.7939090" lon="-8.4618840">
        <ele>260.2</ele>
        <time>2019-08-18T09:34:55Z</time>
      </trkpt>
      <trkpt lat="42.7939530" lon="-8.4619410">
        <ele>260.1</ele>
        <time>2019-08-18T09:34:56Z</time>
      </trkpt>
      <trkpt lat="42.7939980" lon="-8.4619970">
        <ele>259.8</ele>
        <time>2019-08-18T09:34:57Z</time>
      </trkpt>
      <trkpt lat="42.7940430" lon="-8.4620540">
        <ele>259.6</ele>
        <time>2019-08-18T09:34:58Z</time>
      </trkpt>
      <trkpt lat="42.7940880" lon="-8.4621110">
        <ele>259.4</ele>
        <time>2019-08-18T09:34:59Z</time>
      </trkpt>
      <trkpt lat="42.7941330" lon="-8.4621690">
        <ele>259.2</ele>
        <time>2019-08-18T09:35:00Z</time>
      </trkpt>
      <trkpt lat="42.7941780" lon="-8.4622270">
        <ele>259.0</ele>
        <time>2019-08-18T09:35:01Z</time>
      </trkpt>
      <trkpt lat="42.7942230" lon="-8.4622860">
        <ele>258.6</ele>
        <time>2019-08-18T09:35:02Z</time>
      </trkpt>
      <trkpt lat="42.7942680" lon="-8.4623450">
        <ele>258.2</ele>
        <time>2019-08-18T09:35:03Z</time>
      </trkpt>
      <trkpt lat="42.7943130" lon="-8.4624040">
        <ele>257.7</ele>
        <time>2019-08-18T09:35:04Z</time>
      </trkpt>
      <trkpt lat="42.7943580" lon="-8.4624640">
        <ele>257.3</ele>
        <time>2019-08-18T09:35:05Z</time>
      </trkpt>
      <trkpt lat="42.7944020" lon="-8.4625240">
        <ele>256.8</ele>
        <time>2019-08-18T09:35:06Z</time>
      </trkpt>
      <trkpt lat="42.7944460" lon="-8.4625840">
        <ele>256.4</ele>
        <time>2019-08-18T09:35:07Z</time>
      </trkpt>
      <trkpt lat="42.7944890" lon="-8.4626450">
        <ele>256.0</ele>
        <time>2019-08-18T09:35:08Z</time>
      </trkpt>
      <trkpt lat="42.7945310" lon="-8.4627070">
        <ele>255.6</ele>
        <time>2019-08-18T09:35:09Z</time>
      </trkpt>
      <trkpt lat="42.7945730" lon="-8.4627680">
        <ele>255.2</ele>
        <time>2019-08-18T09:35:10Z</time>
      </trkpt>
      <trkpt lat="42.7946140" lon="-8.4628310">
        <ele>254.8</ele>
        <time>2019-08-18T09:35:11Z</time>
      </trkpt>
      <trkpt lat="42.7946540" lon="-8.4628940">
        <ele>254.3</ele>
        <time>2019-08-18T09:35:12Z</time>
      </trkpt>
      <trkpt lat="42.7946930" lon="-8.4629580">
        <ele>253.8</ele>
        <time>2019-08-18T09:35:13Z</time>
      </trkpt>
      <trkpt lat="42.7947320" lon="-8.4630230">
        <ele>253.3</ele>
        <time>2019-08-18T09:35:14Z</time>
      </trkpt>
      <trkpt lat="42.7947690" lon="-8.4630890">
        <ele>252.8</ele>
        <time>2019-08-18T09:35:15Z</time>
      </trkpt>
      <trkpt lat="42.7948070" lon="-8.4631570">
        <ele>252.1</ele>
        <time>2019-08-18T09:35:16Z</time>
      </trkpt>
      <trkpt lat="42.7948430" lon="-8.4632270">
        <ele>251.2</ele>
        <time>2019-08-18T09:35:17Z</time>
      </trkpt>
      <trkpt lat="42.7948800" lon="-8.4632980">
        <ele>251.3</ele>
        <time>2019-08-18T09:35:18Z</time>
      </trkpt>
      <trkpt lat="42.7949150" lon="-8.4633710">
        <ele>251.4</ele>
        <time>2019-08-18T09:35:19Z</time>
      </trkpt>
      <trkpt lat="42.7949500" lon="-8.4634460">
        <ele>251.5</ele>
        <time>2019-08-18T09:35:20Z</time>
      </trkpt>
      <trkpt lat="42.7949830" lon="-8.4635210">
        <ele>251.5</ele>
        <time>2019-08-18T09:35:21Z</time>
      </trkpt>
      <trkpt lat="42.7950160" lon="-8.4635970">
        <ele>251.6</ele>
        <time>2019-08-18T09:35:22Z</time>
      </trkpt>
      <trkpt lat="42.7950470" lon="-8.4636740">
        <ele>251.7</ele>
        <time>2019-08-18T09:35:23Z</time>
      </trkpt>
      <trkpt lat="42.7950770" lon="-8.4637500">
        <ele>251.9</ele>
        <time>2019-08-18T09:35:24Z</time>
      </trkpt>
      <trkpt lat="42.7951060" lon="-8.4638260">
        <ele>252.1</ele>
        <time>2019-08-18T09:35:25Z</time>
      </trkpt>
      <trkpt lat="42.7951340" lon="-8.4639010">
        <ele>252.3</ele>
        <time>2019-08-18T09:35:26Z</time>
      </trkpt>
      <trkpt lat="42.7951600" lon="-8.4639760">
        <ele>252.5</ele>
        <time>2019-08-18T09:35:27Z</time>
      </trkpt>
      <trkpt lat="42.7951840" lon="-8.4640500">
        <ele>252.7</ele>
        <time>2019-08-18T09:35:28Z</time>
      </trkpt>
      <trkpt lat="42.7952080" lon="-8.4641230">
        <ele>252.9</ele>
        <time>2019-08-18T09:35:29Z</time>
      </trkpt>
      <trkpt lat="42.7952300" lon="-8.4641950">
        <ele>253.1</ele>
        <time>2019-08-18T09:35:30Z</time>
      </trkpt>
      <trkpt lat="42.7952510" lon="-8.4642670">
        <ele>253.4</ele>
        <time>2019-08-18T09:35:31Z</time>
      </trkpt>
      <trkpt lat="42.7952710" lon="-8.4643380">
        <ele>253.6</ele>
        <time>2019-08-18T09:35:32Z</time>
      </trkpt>
      <trkpt lat="42.7952900" lon="-8.4644070">
        <ele>253.8</ele>
        <time>2019-08-18T09:35:33Z</time>
      </trkpt>
      <trkpt lat="42.7953070" lon="-8.4644760">
        <ele>254.1</ele>
        <time>2019-08-18T09:35:34Z</time>
      </trkpt>
      <trkpt lat="42.7953240" lon="-8.4645430">
        <ele>254.4</ele>
        <time>2019-08-18T09:35:35Z</time>
      </trkpt>
      <trkpt lat="42.7953390" lon="-8.4646090">
        <ele>254.6</ele>
        <time>2019-08-18T09:35:36Z</time>
      </trkpt>
      <trkpt lat="42.7953540" lon="-8.4646740">
        <ele>254.9</ele>
        <time>2019-08-18T09:35:37Z</time>
      </trkpt>
      <trkpt lat="42.7953680" lon="-8.4647370">
        <ele>255.2</ele>
        <time>2019-08-18T09:35:38Z</time>
      </trkpt>
      <trkpt lat="42.7953800" lon="-8.4647990">
        <ele>255.4</ele>
        <time>2019-08-18T09:35:39Z</time>
      </trkpt>
      <trkpt lat="42.7953920" lon="-8.4648590">
        <ele>255.7</ele>
        <time>2019-08-18T09:35:40Z</time>
      </trkpt>
      <trkpt lat="42.7954040" lon="-8.4649170">
        <ele>255.9</ele>
        <time>2019-08-18T09:35:41Z</time>
      </trkpt>
      <trkpt lat="42.7954160" lon="-8.4649720">
        <ele>256.1</ele>
        <time>2019-08-18T09:35:42Z</time>
      </trkpt>
      <trkpt lat="42.7954280" lon="-8.4650250">
        <ele>256.4</ele>
        <time>2019-08-18T09:35:43Z</time>
      </trkpt>
      <trkpt lat="42.7954420" lon="-8.4650740">
        <ele>256.6</ele>
        <time>2019-08-18T09:35:44Z</time>
      </trkpt>
      <trkpt lat="42.7954570" lon="-8.4651210">
        <ele>256.8</ele>
        <time>2019-08-18T09:35:45Z</time>
      </trkpt>
      <trkpt lat="42.7954710" lon="-8.4651670">
        <ele>257.2</ele>
        <time>2019-08-18T09:35:46Z</time>
      </trkpt>
      <trkpt lat="42.7954850" lon="-8.4652140">
        <ele>257.5</ele>
        <time>2019-08-18T09:35:47Z</time>
      </trkpt>
      <trkpt lat="42.7954970" lon="-8.4652640">
        <ele>257.9</ele>
        <time>2019-08-18T09:35:48Z</time>
      </trkpt>
      <trkpt lat="42.7955080" lon="-8.4653160">
        <ele>258.3</ele>
        <time>2019-08-18T09:35:49Z</time>
      </trkpt>
      <trkpt lat="42.7955170" lon="-8.4653690">
        <ele>258.7</ele>
        <time>2019-08-18T09:35:50Z</time>
      </trkpt>
      <trkpt lat="42.7955260" lon="-8.4654230">
        <ele>259.1</ele>
        <time>2019-08-18T09:35:51Z</time>
      </trkpt>
      <trkpt lat="42.7955340" lon="-8.4654780">
        <ele>259.6</ele>
        <time>2019-08-18T09:35:52Z</time>
      </trkpt>
      <trkpt lat="42.7955420" lon="-8.4655330">
        <ele>260.0</ele>
        <time>2019-08-18T09:35:53Z</time>
      </trkpt>
      <trkpt lat="42.7955490" lon="-8.4655870">
        <ele>260.4</ele>
        <time>2019-08-18T09:35:54Z</time>
      </trkpt>
      <trkpt lat="42.7955570" lon="-8.4656400">
        <ele>260.8</ele>
        <time>2019-08-18T09:35:55Z</time>
      </trkpt>
      <trkpt lat="42.7955640" lon="-8.4656920">
        <ele>261.2</ele>
        <time>2019-08-18T09:35:56Z</time>
      </trkpt>
      <trkpt lat="42.7955720" lon="-8.4657430">
        <ele>261.8</ele>
        <time>2019-08-18T09:35:57Z</time>
      </trkpt>
      <trkpt lat="42.7955800" lon="-8.4657940">
        <ele>262.0</ele>
        <time>2019-08-18T09:35:58Z</time>
      </trkpt>
      <trkpt lat="42.7955880" lon="-8.4658440">
        <ele>262.3</ele>
        <time>2019-08-18T09:35:59Z</time>
      </trkpt>
      <trkpt lat="42.7955960" lon="-8.4658940">
        <ele>262.7</ele>
        <time>2019-08-18T09:36:00Z</time>
      </trkpt>
      <trkpt lat="42.7956040" lon="-8.4659440">
        <ele>262.7</ele>
        <time>2019-08-18T09:36:01Z</time>
      </trkpt>
      <trkpt lat="42.7956120" lon="-8.4659930">
        <ele>262.7</ele>
        <time>2019-08-18T09:36:02Z</time>
      </trkpt>
      <trkpt lat="42.7956200" lon="-8.4660430">
        <ele>262.8</ele>
        <time>2019-08-18T09:36:03Z</time>
      </trkpt>
      <trkpt lat="42.7956280" lon="-8.4660920">
        <ele>262.8</ele>
        <time>2019-08-18T09:36:04Z</time>
      </trkpt>
      <trkpt lat="42.7956360" lon="-8.4661410">
        <ele>262.8</ele>
        <time>2019-08-18T09:36:05Z</time>
      </trkpt>
      <trkpt lat="42.7956430" lon="-8.4661910">
        <ele>262.8</ele>
        <time>2019-08-18T09:36:06Z</time>
      </trkpt>
      <trkpt lat="42.7956500" lon="-8.4662400">
        <ele>262.9</ele>
        <time>2019-08-18T09:36:07Z</time>
      </trkpt>
      <trkpt lat="42.7956560" lon="-8.4662890">
        <ele>262.9</ele>
        <time>2019-08-18T09:36:08Z</time>
      </trkpt>
      <trkpt lat="42.7956620" lon="-8.4663390">
        <ele>262.9</ele>
        <time>2019-08-18T09:36:09Z</time>
      </trkpt>
      <trkpt lat="42.7956660" lon="-8.4663890">
        <ele>263.0</ele>
        <time>2019-08-18T09:36:10Z</time>
      </trkpt>
      <trkpt lat="42.7956700" lon="-8.4664380">
        <ele>263.0</ele>
        <time>2019-08-18T09:36:11Z</time>
      </trkpt>
      <trkpt lat="42.7956740" lon="-8.4664890">
        <ele>263.0</ele>
        <time>2019-08-18T09:36:12Z</time>
      </trkpt>
      <trkpt lat="42.7956770" lon="-8.4665390">
        <ele>263.1</ele>
        <time>2019-08-18T09:36:13Z</time>
      </trkpt>
      <trkpt lat="42.7956820" lon="-8.4665900">
        <ele>263.1</ele>
        <time>2019-08-18T09:36:14Z</time>
      </trkpt>
      <trkpt lat="42.7956870" lon="-8.4666420">
        <ele>262.4</ele>
        <time>2019-08-18T09:36:15Z</time>
      </trkpt>
      <trkpt lat="42.7956940" lon="-8.4666940">
        <ele>262.1</ele>
        <time>2019-08-18T09:36:16Z</time>
      </trkpt>
      <trkpt lat="42.7957020" lon="-8.4667470">
        <ele>261.8</ele>
        <time>2019-08-18T09:36:17Z</time>
      </trkpt>
      <trkpt lat="42.7957120" lon="-8.4668010">
        <ele>261.5</ele>
        <time>2019-08-18T09:36:18Z</time>
      </trkpt>
      <trkpt lat="42.7957230" lon="-8.4668560">
        <ele>261.3</ele>
        <time>2019-08-18T09:36:19Z</time>
      </trkpt>
      <trkpt lat="42.7957360" lon="-8.4669110">
        <ele>261.1</ele>
        <time>2019-08-18T09:36:20Z</time>
      </trkpt>
      <trkpt lat="42.7957490" lon="-8.4669660">
        <ele>260.9</ele>
        <time>2019-08-18T09:36:21Z</time>
      </trkpt>
      <trkpt lat="42.7957630" lon="-8.4670220">
        <ele>260.8</ele>
        <time>2019-08-18T09:36:22Z</time>
      </trkpt>
      <trkpt lat="42.7957780" lon="-8.4670780">
        <ele>260.6</ele>
        <time>2019-08-18T09:36:23Z</time>
      </trkpt>
      <trkpt lat="42.7957930" lon="-8.4671340">
        <ele>260.5</ele>
        <time>2019-08-18T09:36:24Z</time>
      </trkpt>
      <trkpt lat="42.7958090" lon="-8.4671900">
        <ele>260.4</ele>
        <time>2019-08-18T09:36:25Z</time>
      </trkpt>
      <trkpt lat="42.7958260" lon="-8.4672460">
        <ele>260.3</ele>
        <time>2019-08-18T09:36:26Z</time>
      </trkpt>
      <trkpt lat="42.7958430" lon="-8.4673020">
        <ele>260.2</ele>
        <time>2019-08-18T09:36:27Z</time>
      </trkpt>
      <trkpt lat="42.7958620" lon="-8.4673570">
        <ele>260.1</ele>
        <time>2019-08-18T09:36:28Z</time>
      </trkpt>
      <trkpt lat="42.7958820" lon="-8.4674130">
        <ele>260.0</ele>
        <time>2019-08-18T09:36:29Z</time>
      </trkpt>
      <trkpt lat="42.7959030" lon="-8.4674680">
        <ele>259.8</ele>
        <time>2019-08-18T09:36:30Z</time>
      </trkpt>
      <trkpt lat="42.7959260" lon="-8.4675230">
        <ele>259.7</ele>
        <time>2019-08-18T09:36:31Z</time>
      </trkpt>
      <trkpt lat="42.7959500" lon="-8.4675770">
        <ele>259.5</ele>
        <time>2019-08-18T09:36:32Z</time>
      </trkpt>
      <trkpt lat="42.7959760" lon="-8.4676310">
        <ele>259.4</ele>
        <time>2019-08-18T09:36:33Z</time>
      </trkpt>
      <trkpt lat="42.7960030" lon="-8.4676850">
        <ele>259.3</ele>
        <time>2019-08-18T09:36:34Z</time>
      </trkpt>
      <trkpt lat="42.7960310" lon="-8.4677380">
        <ele>259.1</ele>
        <time>2019-08-18T09:36:35Z</time>
      </trkpt>
      <trkpt lat="42.7960590" lon="-8.4677910">
        <ele>258.8</ele>
        <time>2019-08-18T09:36:36Z</time>
      </trkpt>
      <trkpt lat="42.7960880" lon="-8.4678440">
        <ele>258.6</ele>
        <time>2019-08-18T09:36:37Z</time>
      </trkpt>
      <trkpt lat="42.7961170" lon="-8.4678960">
        <ele>258.3</ele>
        <time>2019-08-18T09:36:38Z</time>
      </trkpt>
      <trkpt lat="42.7961460" lon="-8.4679480">
        <ele>258.0</ele>
        <time>2019-08-18T09:36:39Z</time>
      </trkpt>
      <trkpt lat="42.7961750" lon="-8.4680000">
        <ele>257.7</ele>
        <time>2019-08-18T09:36:40Z</time>
      </trkpt>
      <trkpt lat="42.7962040" lon="-8.4680520">
        <ele>257.4</ele>
        <time>2019-08-18T09:36:41Z</time>
      </trkpt>
      <trkpt lat="42.7962330" lon="-8.4681040">
        <ele>257.0</ele>
        <time>2019-08-18T09:36:42Z</time>
      </trkpt>
      <trkpt lat="42.7962630" lon="-8.4681560">
        <ele>256.7</ele>
        <time>2019-08-18T09:36:43Z</time>
      </trkpt>
      <trkpt lat="42.7962930" lon="-8.4682090">
        <ele>256.4</ele>
        <time>2019-08-18T09:36:44Z</time>
      </trkpt>
      <trkpt lat="42.7963230" lon="-8.4682620">
        <ele>256.1</ele>
        <time>2019-08-18T09:36:45Z</time>
      </trkpt>
      <trkpt lat="42.7963550" lon="-8.4683150">
        <ele>255.7</ele>
        <time>2019-08-18T09:36:46Z</time>
      </trkpt>
      <trkpt lat="42.7963870" lon="-8.4683690">
        <ele>255.4</ele>
        <time>2019-08-18T09:36:47Z</time>
      </trkpt>
      <trkpt lat="42.7964200" lon="-8.4684240">
        <ele>255.1</ele>
        <time>2019-08-18T09:36:48Z</time>
      </trkpt>
      <trkpt lat="42.7964540" lon="-8.4684770">
        <ele>255.0</ele>
        <time>2019-08-18T09:36:49Z</time>
      </trkpt>
      <trkpt lat="42.7964890" lon="-8.4685300">
        <ele>255.0</ele>
        <time>2019-08-18T09:36:50Z</time>
      </trkpt>
      <trkpt lat="42.7965250" lon="-8.4685820">
        <ele>255.0</ele>
        <time>2019-08-18T09:36:51Z</time>
      </trkpt>
      <trkpt lat="42.7965610" lon="-8.4686330">
        <ele>255.0</ele>
        <time>2019-08-18T09:36:52Z</time>
      </trkpt>
      <trkpt lat="42.7965980" lon="-8.4686820">
        <ele>255.0</ele>
        <time>2019-08-18T09:36:53Z</time>
      </trkpt>
      <trkpt lat="42.7966350" lon="-8.4687290">
        <ele>255.0</ele>
        <time>2019-08-18T09:36:54Z</time>
      </trkpt>
      <trkpt lat="42.7966730" lon="-8.4687750">
        <ele>255.0</ele>
        <time>2019-08-18T09:36:55Z</time>
      </trkpt>
      <trkpt lat="42.7967110" lon="-8.4688210">
        <ele>255.0</ele>
        <time>2019-08-18T09:36:56Z</time>
      </trkpt>
      <trkpt lat="42.7967500" lon="-8.4688660">
        <ele>255.0</ele>
        <time>2019-08-18T09:36:57Z</time>
      </trkpt>
      <trkpt lat="42.7967880" lon="-8.4689110">
        <ele>255.0</ele>
        <time>2019-08-18T09:36:58Z</time>
      </trkpt>
      <trkpt lat="42.7968270" lon="-8.4689560">
        <ele>255.0</ele>
        <time>2019-08-18T09:36:59Z</time>
      </trkpt>
      <trkpt lat="42.7968650" lon="-8.4690020">
        <ele>255.0</ele>
        <time>2019-08-18T09:37:00Z</time>
      </trkpt>
      <trkpt lat="42.7969020" lon="-8.4690490">
        <ele>255.1</ele>
        <time>2019-08-18T09:37:01Z</time>
      </trkpt>
      <trkpt lat="42.7969400" lon="-8.4690960">
        <ele>255.1</ele>
        <time>2019-08-18T09:37:02Z</time>
      </trkpt>
      <trkpt lat="42.7969780" lon="-8.4691440">
        <ele>255.1</ele>
        <time>2019-08-18T09:37:03Z</time>
      </trkpt>
      <trkpt lat="42.7970150" lon="-8.4691940">
        <ele>255.1</ele>
        <time>2019-08-18T09:37:04Z</time>
      </trkpt>
      <trkpt lat="42.7970540" lon="-8.4692440">
        <ele>255.2</ele>
        <time>2019-08-18T09:37:05Z</time>
      </trkpt>
      <trkpt lat="42.7970920" lon="-8.4692950">
        <ele>255.2</ele>
        <time>2019-08-18T09:37:06Z</time>
      </trkpt>
      <trkpt lat="42.7971320" lon="-8.4693470">
        <ele>255.1</ele>
        <time>2019-08-18T09:37:07Z</time>
      </trkpt>
      <trkpt lat="42.7971720" lon="-8.4694000">
        <ele>255.1</ele>
        <time>2019-08-18T09:37:08Z</time>
      </trkpt>
      <trkpt lat="42.7972130" lon="-8.4694540">
        <ele>255.1</ele>
        <time>2019-08-18T09:37:09Z</time>
      </trkpt>
      <trkpt lat="42.7972550" lon="-8.4695080">
        <ele>255.0</ele>
        <time>2019-08-18T09:37:10Z</time>
      </trkpt>
      <trkpt lat="42.7972970" lon="-8.4695620">
        <ele>255.0</ele>
        <time>2019-08-18T09:37:11Z</time>
      </trkpt>
      <trkpt lat="42.7973390" lon="-8.4696170">
        <ele>254.9</ele>
        <time>2019-08-18T09:37:12Z</time>
      </trkpt>
      <trkpt lat="42.7973810" lon="-8.4696710">
        <ele>254.9</ele>
        <time>2019-08-18T09:37:13Z</time>
      </trkpt>
      <trkpt lat="42.7974220" lon="-8.4697240">
        <ele>254.8</ele>
        <time>2019-08-18T09:37:14Z</time>
      </trkpt>
      <trkpt lat="42.7974630" lon="-8.4697760">
        <ele>254.8</ele>
        <time>2019-08-18T09:37:15Z</time>
      </trkpt>
      <trkpt lat="42.7975040" lon="-8.4698280">
        <ele>254.7</ele>
        <time>2019-08-18T09:37:16Z</time>
      </trkpt>
      <trkpt lat="42.7975440" lon="-8.4698790">
        <ele>254.7</ele>
        <time>2019-08-18T09:37:17Z</time>
      </trkpt>
      <trkpt lat="42.7975840" lon="-8.4699290">
        <ele>254.6</ele>
        <time>2019-08-18T09:37:18Z</time>
      </trkpt>
      <trkpt lat="42.7976230" lon="-8.4699800">
        <ele>254.6</ele>
        <time>2019-08-18T09:37:19Z</time>
      </trkpt>
      <trkpt lat="42.7976630" lon="-8.4700300">
        <ele>254.5</ele>
        <time>2019-08-18T09:37:20Z</time>
      </trkpt>
      <trkpt lat="42.7977020" lon="-8.4700790">
        <ele>254.4</ele>
        <time>2019-08-18T09:37:21Z</time>
      </trkpt>
      <trkpt lat="42.7977410" lon="-8.4701290">
        <ele>254.3</ele>
        <time>2019-08-18T09:37:22Z</time>
      </trkpt>
      <trkpt lat="42.7977790" lon="-8.4701790">
        <ele>254.2</ele>
        <time>2019-08-18T09:37:23Z</time>
      </trkpt>
      <trkpt lat="42.7978190" lon="-8.4702300">
        <ele>254.1</ele>
        <time>2019-08-18T09:37:24Z</time>
      </trkpt>
      <trkpt lat="42.7978580" lon="-8.4702810">
        <ele>254.0</ele>
        <time>2019-08-18T09:37:25Z</time>
      </trkpt>
      <trkpt lat="42.7978970" lon="-8.4703320">
        <ele>253.8</ele>
        <time>2019-08-18T09:37:26Z</time>
      </trkpt>
      <trkpt lat="42.7979380" lon="-8.4703840">
        <ele>253.6</ele>
        <time>2019-08-18T09:37:27Z</time>
      </trkpt>
      <trkpt lat="42.7979780" lon="-8.4704370">
        <ele>253.4</ele>
        <time>2019-08-18T09:37:28Z</time>
      </trkpt>
      <trkpt lat="42.7980200" lon="-8.4704910">
        <ele>253.1</ele>
        <time>2019-08-18T09:37:29Z</time>
      </trkpt>
      <trkpt lat="42.7980620" lon="-8.4705460">
        <ele>252.8</ele>
        <time>2019-08-18T09:37:30Z</time>
      </trkpt>
      <trkpt lat="42.7981050" lon="-8.4706020">
        <ele>252.5</ele>
        <time>2019-08-18T09:37:31Z</time>
      </trkpt>
      <trkpt lat="42.7981490" lon="-8.4706600">
        <ele>252.3</ele>
        <time>2019-08-18T09:37:32Z</time>
      </trkpt>
      <trkpt lat="42.7981950" lon="-8.4707180">
        <ele>252.0</ele>
        <time>2019-08-18T09:37:33Z</time>
      </trkpt>
      <trkpt lat="42.7982410" lon="-8.4707780">
        <ele>251.8</ele>
        <time>2019-08-18T09:37:34Z</time>
      </trkpt>
      <trkpt lat="42.7982880" lon="-8.4708390">
        <ele>251.5</ele>
        <time>2019-08-18T09:37:35Z</time>
      </trkpt>
      <trkpt lat="42.7983360" lon="-8.4709010">
        <ele>251.3</ele>
        <time>2019-08-18T09:37:36Z</time>
      </trkpt>
      <trkpt lat="42.7983860" lon="-8.4709650">
        <ele>251.1</ele>
        <time>2019-08-18T09:37:37Z</time>
      </trkpt>
      <trkpt lat="42.7984370" lon="-8.4710290">
        <ele>250.8</ele>
        <time>2019-08-18T09:37:38Z</time>
      </trkpt>
      <trkpt lat="42.7984880" lon="-8.4710940">
        <ele>250.8</ele>
        <time>2019-08-18T09:37:39Z</time>
      </trkpt>
      <trkpt lat="42.7985410" lon="-8.4711600">
        <ele>250.3</ele>
        <time>2019-08-18T09:37:40Z</time>
      </trkpt>
      <trkpt lat="42.7985940" lon="-8.4712250">
        <ele>250.1</ele>
        <time>2019-08-18T09:37:41Z</time>
      </trkpt>
      <trkpt lat="42.7986480" lon="-8.4712900">
        <ele>249.8</ele>
        <time>2019-08-18T09:37:42Z</time>
      </trkpt>
      <trkpt lat="42.7987040" lon="-8.4713570">
        <ele>249.5</ele>
        <time>2019-08-18T09:37:43Z</time>
      </trkpt>
      <trkpt lat="42.7987620" lon="-8.4714240">
        <ele>249.2</ele>
        <time>2019-08-18T09:37:44Z</time>
      </trkpt>
      <trkpt lat="42.7988200" lon="-8.4714920">
        <ele>248.9</ele>
        <time>2019-08-18T09:37:45Z</time>
      </trkpt>
      <trkpt lat="42.7988810" lon="-8.4715620">
        <ele>248.6</ele>
        <time>2019-08-18T09:37:46Z</time>
      </trkpt>
      <trkpt lat="42.7989420" lon="-8.4716330">
        <ele>248.2</ele>
        <time>2019-08-18T09:37:47Z</time>
      </trkpt>
      <trkpt lat="42.7990030" lon="-8.4717060">
        <ele>247.9</ele>
        <time>2019-08-18T09:37:48Z</time>
      </trkpt>
      <trkpt lat="42.7990630" lon="-8.4717800">
        <ele>247.6</ele>
        <time>2019-08-18T09:37:49Z</time>
      </trkpt>
      <trkpt lat="42.7991230" lon="-8.4718550">
        <ele>246.2</ele>
        <time>2019-08-18T09:37:50Z</time>
      </trkpt>
      <trkpt lat="42.7991820" lon="-8.4719320">
        <ele>245.1</ele>
        <time>2019-08-18T09:37:51Z</time>
      </trkpt>
      <trkpt lat="42.7992380" lon="-8.4720100">
        <ele>244.5</ele>
        <time>2019-08-18T09:37:52Z</time>
      </trkpt>
      <trkpt lat="42.7992930" lon="-8.4720890">
        <ele>244.0</ele>
        <time>2019-08-18T09:37:53Z</time>
      </trkpt>
      <trkpt lat="42.7993480" lon="-8.4721700">
        <ele>242.9</ele>
        <time>2019-08-18T09:37:54Z</time>
      </trkpt>
      <trkpt lat="42.7994010" lon="-8.4722520">
        <ele>242.0</ele>
        <time>2019-08-18T09:37:55Z</time>
      </trkpt>
      <trkpt lat="42.7994550" lon="-8.4723350">
        <ele>241.0</ele>
        <time>2019-08-18T09:37:56Z</time>
      </trkpt>
      <trkpt lat="42.7995080" lon="-8.4724210">
        <ele>239.8</ele>
        <time>2019-08-18T09:37:57Z</time>
      </trkpt>
      <trkpt lat="42.7995590" lon="-8.4725110">
        <ele>238.9</ele>
        <time>2019-08-18T09:37:58Z</time>
      </trkpt>
      <trkpt lat="42.7996060" lon="-8.4726050">
        <ele>238.1</ele>
        <time>2019-08-18T09:37:59Z</time>
      </trkpt>
      <trkpt lat="42.7996490" lon="-8.4727060">
        <ele>237.2</ele>
        <time>2019-08-18T09:38:00Z</time>
      </trkpt>
      <trkpt lat="42.7996880" lon="-8.4728110">
        <ele>236.2</ele>
        <time>2019-08-18T09:38:01Z</time>
      </trkpt>
      <trkpt lat="42.7997210" lon="-8.4729220">
        <ele>235.2</ele>
        <time>2019-08-18T09:38:02Z</time>
      </trkpt>
      <trkpt lat="42.7997510" lon="-8.4730370">
        <ele>234.3</ele>
        <time>2019-08-18T09:38:03Z</time>
      </trkpt>
      <trkpt lat="42.7997750" lon="-8.4731560">
        <ele>233.3</ele>
        <time>2019-08-18T09:38:04Z</time>
      </trkpt>
      <trkpt lat="42.7997960" lon="-8.4732770">
        <ele>232.5</ele>
        <time>2019-08-18T09:38:05Z</time>
      </trkpt>
      <trkpt lat="42.7998110" lon="-8.4734010">
        <ele>232.2</ele>
        <time>2019-08-18T09:38:06Z</time>
      </trkpt>
      <trkpt lat="42.7998220" lon="-8.4735270">
        <ele>231.9</ele>
        <time>2019-08-18T09:38:07Z</time>
      </trkpt>
      <trkpt lat="42.7998280" lon="-8.4736540">
        <ele>231.6</ele>
        <time>2019-08-18T09:38:08Z</time>
      </trkpt>
      <trkpt lat="42.7998270" lon="-8.4737810">
        <ele>231.4</ele>
        <time>2019-08-18T09:38:09Z</time>
      </trkpt>
      <trkpt lat="42.7998200" lon="-8.4739080">
        <ele>231.2</ele>
        <time>2019-08-18T09:38:10Z</time>
      </trkpt>
      <trkpt lat="42.7998020" lon="-8.4740340">
        <ele>231.0</ele>
        <time>2019-08-18T09:38:11Z</time>
      </trkpt>
      <trkpt lat="42.7997840" lon="-8.4741590">
        <ele>230.8</ele>
        <time>2019-08-18T09:38:12Z</time>
      </trkpt>
      <trkpt lat="42.7997610" lon="-8.4742830">
        <ele>230.7</ele>
        <time>2019-08-18T09:38:13Z</time>
      </trkpt>
      <trkpt lat="42.7997370" lon="-8.4744050">
        <ele>230.4</ele>
        <time>2019-08-18T09:38:14Z</time>
      </trkpt>
      <trkpt lat="42.7997120" lon="-8.4745260">
        <ele>230.4</ele>
        <time>2019-08-18T09:38:15Z</time>
      </trkpt>
      <trkpt lat="42.7996890" lon="-8.4746460">
        <ele>230.2</ele>
        <time>2019-08-18T09:38:16Z</time>
      </trkpt>
      <trkpt lat="42.7996670" lon="-8.4747630">
        <ele>230.0</ele>
        <time>2019-08-18T09:38:17Z</time>
      </trkpt>
      <trkpt lat="42.7996480" lon="-8.4748780">
        <ele>229.8</ele>
        <time>2019-08-18T09:38:18Z</time>
      </trkpt>
      <trkpt lat="42.7996300" lon="-8.4749920">
        <ele>229.6</ele>
        <time>2019-08-18T09:38:19Z</time>
      </trkpt>
      <trkpt lat="42.7996150" lon="-8.4751050">
        <ele>229.3</ele>
        <time>2019-08-18T09:38:20Z</time>
      </trkpt>
      <trkpt lat="42.7996020" lon="-8.4752180">
        <ele>228.9</ele>
        <time>2019-08-18T09:38:21Z</time>
      </trkpt>
      <trkpt lat="42.7995900" lon="-8.4753320">
        <ele>228.5</ele>
        <time>2019-08-18T09:38:22Z</time>
      </trkpt>
      <trkpt lat="42.7995820" lon="-8.4754470">
        <ele>228.2</ele>
        <time>2019-08-18T09:38:23Z</time>
      </trkpt>
      <trkpt lat="42.7995760" lon="-8.4755620">
        <ele>227.8</ele>
        <time>2019-08-18T09:38:24Z</time>
      </trkpt>
      <trkpt lat="42.7995750" lon="-8.4756770">
        <ele>227.4</ele>
        <time>2019-08-18T09:38:25Z</time>
      </trkpt>
      <trkpt lat="42.7995770" lon="-8.4757920">
        <ele>227.0</ele>
        <time>2019-08-18T09:38:26Z</time>
      </trkpt>
      <trkpt lat="42.7995850" lon="-8.4759080">
        <ele>226.6</ele>
        <time>2019-08-18T09:38:27Z</time>
      </trkpt>
      <trkpt lat="42.7995980" lon="-8.4760240">
        <ele>226.1</ele>
        <time>2019-08-18T09:38:28Z</time>
      </trkpt>
      <trkpt lat="42.7996160" lon="-8.4761390">
        <ele>225.7</ele>
        <time>2019-08-18T09:38:29Z</time>
      </trkpt>
      <trkpt lat="42.7996410" lon="-8.4762550">
        <ele>225.4</ele>
        <time>2019-08-18T09:38:30Z</time>
      </trkpt>
      <trkpt lat="42.7996970" lon="-8.4764430">
        <ele>224.9</ele>
        <time>2019-08-18T09:38:31Z</time>
      </trkpt>
      <trkpt lat="42.7997240" lon="-8.4765180">
        <ele>224.7</ele>
        <time>2019-08-18T09:38:32Z</time>
      </trkpt>
      <trkpt lat="42.7997500" lon="-8.4765920">
        <ele>224.5</ele>
        <time>2019-08-18T09:38:33Z</time>
      </trkpt>
      <trkpt lat="42.7997980" lon="-8.4767000">
        <ele>224.1</ele>
        <time>2019-08-18T09:38:34Z</time>
      </trkpt>
      <trkpt lat="42.7998510" lon="-8.4768050">
        <ele>223.5</ele>
        <time>2019-08-18T09:38:35Z</time>
      </trkpt>
      <trkpt lat="42.7999540" lon="-8.4769700">
        <ele>222.3</ele>
        <time>2019-08-18T09:38:36Z</time>
      </trkpt>
      <trkpt lat="42.7999990" lon="-8.4770340">
        <ele>221.9</ele>
        <time>2019-08-18T09:38:37Z</time>
      </trkpt>
      <trkpt lat="42.8000430" lon="-8.4770970">
        <ele>221.5</ele>
        <time>2019-08-18T09:38:38Z</time>
      </trkpt>
      <trkpt lat="42.8001170" lon="-8.4771830">
        <ele>220.9</ele>
        <time>2019-08-18T09:38:39Z</time>
      </trkpt>
      <trkpt lat="42.8001950" lon="-8.4772620">
        <ele>220.3</ele>
        <time>2019-08-18T09:38:40Z</time>
      </trkpt>
      <trkpt lat="42.8002770" lon="-8.4773340">
        <ele>219.6</ele>
        <time>2019-08-18T09:38:41Z</time>
      </trkpt>
      <trkpt lat="42.8003650" lon="-8.4773930">
        <ele>218.9</ele>
        <time>2019-08-18T09:38:42Z</time>
      </trkpt>
      <trkpt lat="42.8004520" lon="-8.4774520">
        <ele>218.2</ele>
        <time>2019-08-18T09:38:43Z</time>
      </trkpt>
      <trkpt lat="42.8005430" lon="-8.4774970">
        <ele>217.6</ele>
        <time>2019-08-18T09:38:44Z</time>
      </trkpt>
      <trkpt lat="42.8006370" lon="-8.4775320">
        <ele>217.0</ele>
        <time>2019-08-18T09:38:45Z</time>
      </trkpt>
      <trkpt lat="42.8007310" lon="-8.4775590">
        <ele>216.5</ele>
        <time>2019-08-18T09:38:46Z</time>
      </trkpt>
      <trkpt lat="42.8008260" lon="-8.4775760">
        <ele>216.0</ele>
        <time>2019-08-18T09:38:47Z</time>
      </trkpt>
      <trkpt lat="42.8009210" lon="-8.4775840">
        <ele>215.3</ele>
        <time>2019-08-18T09:38:48Z</time>
      </trkpt>
      <trkpt lat="42.8010150" lon="-8.4775840">
        <ele>214.7</ele>
        <time>2019-08-18T09:38:49Z</time>
      </trkpt>
      <trkpt lat="42.8011080" lon="-8.4775740">
        <ele>214.1</ele>
        <time>2019-08-18T09:38:50Z</time>
      </trkpt>
      <trkpt lat="42.8012440" lon="-8.4775430">
        <ele>213.3</ele>
        <time>2019-08-18T09:38:51Z</time>
      </trkpt>
      <trkpt lat="42.8012880" lon="-8.4775280">
        <ele>213.1</ele>
        <time>2019-08-18T09:38:52Z</time>
      </trkpt>
      <trkpt lat="42.8013760" lon="-8.4774980">
        <ele>212.7</ele>
        <time>2019-08-18T09:38:53Z</time>
      </trkpt>
      <trkpt lat="42.8014610" lon="-8.4774580">
        <ele>211.9</ele>
        <time>2019-08-18T09:38:54Z</time>
      </trkpt>
      <trkpt lat="42.8015450" lon="-8.4774140">
        <ele>211.0</ele>
        <time>2019-08-18T09:38:55Z</time>
      </trkpt>
      <trkpt lat="42.8016290" lon="-8.4773650">
        <ele>210.2</ele>
        <time>2019-08-18T09:38:56Z</time>
      </trkpt>
      <trkpt lat="42.8017110" lon="-8.4773140">
        <ele>209.3</ele>
        <time>2019-08-18T09:38:57Z</time>
      </trkpt>
      <trkpt lat="42.8017930" lon="-8.4772620">
        <ele>208.4</ele>
        <time>2019-08-18T09:38:58Z</time>
      </trkpt>
      <trkpt lat="42.8018760" lon="-8.4772100">
        <ele>207.5</ele>
        <time>2019-08-18T09:38:59Z</time>
      </trkpt>
      <trkpt lat="42.8019580" lon="-8.4771590">
        <ele>206.6</ele>
        <time>2019-08-18T09:39:00Z</time>
      </trkpt>
      <trkpt lat="42.8020410" lon="-8.4771090">
        <ele>206.0</ele>
        <time>2019-08-18T09:39:01Z</time>
      </trkpt>
      <trkpt lat="42.8021250" lon="-8.4770600">
        <ele>205.5</ele>
        <time>2019-08-18T09:39:02Z</time>
      </trkpt>
      <trkpt lat="42.8022100" lon="-8.4770130">
        <ele>204.8</ele>
        <time>2019-08-18T09:39:03Z</time>
      </trkpt>
      <trkpt lat="42.8022940" lon="-8.4769660">
        <ele>204.1</ele>
        <time>2019-08-18T09:39:04Z</time>
      </trkpt>
      <trkpt lat="42.8023790" lon="-8.4769190">
        <ele>203.5</ele>
        <time>2019-08-18T09:39:05Z</time>
      </trkpt>
      <trkpt lat="42.8024650" lon="-8.4768710">
        <ele>203.1</ele>
        <time>2019-08-18T09:39:06Z</time>
      </trkpt>
      <trkpt lat="42.8025500" lon="-8.4768230">
        <ele>203.0</ele>
        <time>2019-08-18T09:39:07Z</time>
      </trkpt>
      <trkpt lat="42.8026350" lon="-8.4767760">
        <ele>202.8</ele>
        <time>2019-08-18T09:39:08Z</time>
      </trkpt>
      <trkpt lat="42.8027190" lon="-8.4767290">
        <ele>202.5</ele>
        <time>2019-08-18T09:39:09Z</time>
      </trkpt>
      <trkpt lat="42.8028040" lon="-8.4766820">
        <ele>202.3</ele>
        <time>2019-08-18T09:39:10Z</time>
      </trkpt>
      <trkpt lat="42.8028870" lon="-8.4766360">
        <ele>202.1</ele>
        <time>2019-08-18T09:39:11Z</time>
      </trkpt>
      <trkpt lat="42.8029700" lon="-8.4765910">
        <ele>201.9</ele>
        <time>2019-08-18T09:39:12Z</time>
      </trkpt>
      <trkpt lat="42.8030530" lon="-8.4765470">
        <ele>201.8</ele>
        <time>2019-08-18T09:39:13Z</time>
      </trkpt>
      <trkpt lat="42.8031350" lon="-8.4765050">
        <ele>201.7</ele>
        <time>2019-08-18T09:39:14Z</time>
      </trkpt>
      <trkpt lat="42.8032170" lon="-8.4764650">
        <ele>201.6</ele>
        <time>2019-08-18T09:39:15Z</time>
      </trkpt>
      <trkpt lat="42.8032990" lon="-8.4764270">
        <ele>201.4</ele>
        <time>2019-08-18T09:39:16Z</time>
      </trkpt>
      <trkpt lat="42.8033820" lon="-8.4763920">
        <ele>201.3</ele>
        <time>2019-08-18T09:39:17Z</time>
      </trkpt>
      <trkpt lat="42.8034650" lon="-8.4763610">
        <ele>201.1</ele>
        <time>2019-08-18T09:39:18Z</time>
      </trkpt>
      <trkpt lat="42.8035500" lon="-8.4763330">
        <ele>200.8</ele>
        <time>2019-08-18T09:39:19Z</time>
      </trkpt>
      <trkpt lat="42.8036350" lon="-8.4763090">
        <ele>200.7</ele>
        <time>2019-08-18T09:39:20Z</time>
      </trkpt>
      <trkpt lat="42.8037200" lon="-8.4762890">
        <ele>200.7</ele>
        <time>2019-08-18T09:39:21Z</time>
      </trkpt>
      <trkpt lat="42.8038070" lon="-8.4762710">
        <ele>200.5</ele>
        <time>2019-08-18T09:39:22Z</time>
      </trkpt>
      <trkpt lat="42.8038940" lon="-8.4762570">
        <ele>200.2</ele>
        <time>2019-08-18T09:39:23Z</time>
      </trkpt>
      <trkpt lat="42.8039810" lon="-8.4762460">
        <ele>200.3</ele>
        <time>2019-08-18T09:39:24Z</time>
      </trkpt>
      <trkpt lat="42.8040700" lon="-8.4762380">
        <ele>200.2</ele>
        <time>2019-08-18T09:39:25Z</time>
      </trkpt>
      <trkpt lat="42.8041580" lon="-8.4762330">
        <ele>199.7</ele>
        <time>2019-08-18T09:39:26Z</time>
      </trkpt>
      <trkpt lat="42.8042470" lon="-8.4762300">
        <ele>199.3</ele>
        <time>2019-08-18T09:39:27Z</time>
      </trkpt>
      <trkpt lat="42.8043370" lon="-8.4762300">
        <ele>198.8</ele>
        <time>2019-08-18T09:39:28Z</time>
      </trkpt>
      <trkpt lat="42.8044720" lon="-8.4762350">
        <ele>198.2</ele>
        <time>2019-08-18T09:39:29Z</time>
      </trkpt>
      <trkpt lat="42.8045170" lon="-8.4762380">
        <ele>197.9</ele>
        <time>2019-08-18T09:39:30Z</time>
      </trkpt>
      <trkpt lat="42.8046070" lon="-8.4762450">
        <ele>197.5</ele>
        <time>2019-08-18T09:39:31Z</time>
      </trkpt>
      <trkpt lat="42.8046980" lon="-8.4762550">
        <ele>197.2</ele>
        <time>2019-08-18T09:39:32Z</time>
      </trkpt>
      <trkpt lat="42.8047880" lon="-8.4762680">
        <ele>196.9</ele>
        <time>2019-08-18T09:39:33Z</time>
      </trkpt>
      <trkpt lat="42.8048790" lon="-8.4762840">
        <ele>196.6</ele>
        <time>2019-08-18T09:39:34Z</time>
      </trkpt>
      <trkpt lat="42.8049690" lon="-8.4763020">
        <ele>196.4</ele>
        <time>2019-08-18T09:39:35Z</time>
      </trkpt>
      <trkpt lat="42.8050580" lon="-8.4763220">
        <ele>196.1</ele>
        <time>2019-08-18T09:39:36Z</time>
      </trkpt>
      <trkpt lat="42.8051460" lon="-8.4763450">
        <ele>195.9</ele>
        <time>2019-08-18T09:39:37Z</time>
      </trkpt>
      <trkpt lat="42.8052330" lon="-8.4763700">
        <ele>195.6</ele>
        <time>2019-08-18T09:39:38Z</time>
      </trkpt>
      <trkpt lat="42.8053170" lon="-8.4763960">
        <ele>195.3</ele>
        <time>2019-08-18T09:39:39Z</time>
      </trkpt>
      <trkpt lat="42.8053990" lon="-8.4764260">
        <ele>195.0</ele>
        <time>2019-08-18T09:39:40Z</time>
      </trkpt>
      <trkpt lat="42.8054770" lon="-8.4764560">
        <ele>194.8</ele>
        <time>2019-08-18T09:39:41Z</time>
      </trkpt>
      <trkpt lat="42.8055530" lon="-8.4764890">
        <ele>194.6</ele>
        <time>2019-08-18T09:39:42Z</time>
      </trkpt>
      <trkpt lat="42.8056250" lon="-8.4765230">
        <ele>194.4</ele>
        <time>2019-08-18T09:39:43Z</time>
      </trkpt>
      <trkpt lat="42.8056930" lon="-8.4765590">
        <ele>194.1</ele>
        <time>2019-08-18T09:39:44Z</time>
      </trkpt>
      <trkpt lat="42.8057590" lon="-8.4765940">
        <ele>193.7</ele>
        <time>2019-08-18T09:39:45Z</time>
      </trkpt>
      <trkpt lat="42.8058210" lon="-8.4766310">
        <ele>194.0</ele>
        <time>2019-08-18T09:39:46Z</time>
      </trkpt>
      <trkpt lat="42.8058800" lon="-8.4766670">
        <ele>194.2</ele>
        <time>2019-08-18T09:39:47Z</time>
      </trkpt>
      <trkpt lat="42.8059350" lon="-8.4767020">
        <ele>194.5</ele>
        <time>2019-08-18T09:39:48Z</time>
      </trkpt>
      <trkpt lat="42.8059880" lon="-8.4767370">
        <ele>194.7</ele>
        <time>2019-08-18T09:39:49Z</time>
      </trkpt>
      <trkpt lat="42.8060370" lon="-8.4767710">
        <ele>194.9</ele>
        <time>2019-08-18T09:39:50Z</time>
      </trkpt>
      <trkpt lat="42.8060840" lon="-8.4768050">
        <ele>195.1</ele>
        <time>2019-08-18T09:39:51Z</time>
      </trkpt>
      <trkpt lat="42.8061290" lon="-8.4768370">
        <ele>195.3</ele>
        <time>2019-08-18T09:39:52Z</time>
      </trkpt>
      <trkpt lat="42.8061720" lon="-8.4768700">
        <ele>195.8</ele>
        <time>2019-08-18T09:39:53Z</time>
      </trkpt>
      <trkpt lat="42.8062140" lon="-8.4769020">
        <ele>196.0</ele>
        <time>2019-08-18T09:39:54Z</time>
      </trkpt>
      <trkpt lat="42.8062550" lon="-8.4769350">
        <ele>196.2</ele>
        <time>2019-08-18T09:39:55Z</time>
      </trkpt>
      <trkpt lat="42.8062940" lon="-8.4769670">
        <ele>196.4</ele>
        <time>2019-08-18T09:39:56Z</time>
      </trkpt>
      <trkpt lat="42.8063340" lon="-8.4769990">
        <ele>196.6</ele>
        <time>2019-08-18T09:39:57Z</time>
      </trkpt>
      <trkpt lat="42.8063730" lon="-8.4770320">
        <ele>196.9</ele>
        <time>2019-08-18T09:39:58Z</time>
      </trkpt>
      <trkpt lat="42.8064120" lon="-8.4770640">
        <ele>197.2</ele>
        <time>2019-08-18T09:39:59Z</time>
      </trkpt>
      <trkpt lat="42.8064500" lon="-8.4770970">
        <ele>197.3</ele>
        <time>2019-08-18T09:40:00Z</time>
      </trkpt>
      <trkpt lat="42.8064890" lon="-8.4771300">
        <ele>197.5</ele>
        <time>2019-08-18T09:40:01Z</time>
      </trkpt>
      <trkpt lat="42.8065280" lon="-8.4771640">
        <ele>197.6</ele>
        <time>2019-08-18T09:40:02Z</time>
      </trkpt>
      <trkpt lat="42.8065660" lon="-8.4771970">
        <ele>197.7</ele>
        <time>2019-08-18T09:40:03Z</time>
      </trkpt>
      <trkpt lat="42.8066050" lon="-8.4772310">
        <ele>197.8</ele>
        <time>2019-08-18T09:40:04Z</time>
      </trkpt>
      <trkpt lat="42.8066440" lon="-8.4772640">
        <ele>197.9</ele>
        <time>2019-08-18T09:40:05Z</time>
      </trkpt>
      <trkpt lat="42.8066830" lon="-8.4772980">
        <ele>197.9</ele>
        <time>2019-08-18T09:40:06Z</time>
      </trkpt>
      <trkpt lat="42.8067500" lon="-8.4773550">
        <ele>198.1</ele>
        <time>2019-08-18T09:40:07Z</time>
      </trkpt>
      <trkpt lat="42.8067760" lon="-8.4773770">
        <ele>198.1</ele>
        <time>2019-08-18T09:40:08Z</time>
      </trkpt>
      <trkpt lat="42.8068030" lon="-8.4774000">
        <ele>198.2</ele>
        <time>2019-08-18T09:40:09Z</time>
      </trkpt>
      <trkpt lat="42.8068430" lon="-8.4774340">
        <ele>198.4</ele>
        <time>2019-08-18T09:40:10Z</time>
      </trkpt>
      <trkpt lat="42.8068840" lon="-8.4774670">
        <ele>198.5</ele>
        <time>2019-08-18T09:40:11Z</time>
      </trkpt>
      <trkpt lat="42.8069530" lon="-8.4775240">
        <ele>198.6</ele>
        <time>2019-08-18T09:40:12Z</time>
      </trkpt>
      <trkpt lat="42.8069800" lon="-8.4775470">
        <ele>198.7</ele>
        <time>2019-08-18T09:40:13Z</time>
      </trkpt>
      <trkpt lat="42.8070080" lon="-8.4775700">
        <ele>198.7</ele>
        <time>2019-08-18T09:40:14Z</time>
      </trkpt>
      <trkpt lat="42.8070490" lon="-8.4776060">
        <ele>198.8</ele>
        <time>2019-08-18T09:40:15Z</time>
      </trkpt>
      <trkpt lat="42.8070910" lon="-8.4776430">
        <ele>198.9</ele>
        <time>2019-08-18T09:40:16Z</time>
      </trkpt>
      <trkpt lat="42.8071330" lon="-8.4776820">
        <ele>199.0</ele>
        <time>2019-08-18T09:40:17Z</time>
      </trkpt>
      <trkpt lat="42.8071740" lon="-8.4777230">
        <ele>199.0</ele>
        <time>2019-08-18T09:40:18Z</time>
      </trkpt>
      <trkpt lat="42.8072140" lon="-8.4777630">
        <ele>199.1</ele>
        <time>2019-08-18T09:40:19Z</time>
      </trkpt>
      <trkpt lat="42.8072530" lon="-8.4778020">
        <ele>199.2</ele>
        <time>2019-08-18T09:40:20Z</time>
      </trkpt>
      <trkpt lat="42.8072890" lon="-8.4778380">
        <ele>199.2</ele>
        <time>2019-08-18T09:40:21Z</time>
      </trkpt>
      <trkpt lat="42.8073230" lon="-8.4778700">
        <ele>199.3</ele>
        <time>2019-08-18T09:40:22Z</time>
      </trkpt>
      <trkpt lat="42.8073540" lon="-8.4778990">
        <ele>199.3</ele>
        <time>2019-08-18T09:40:23Z</time>
      </trkpt>
      <trkpt lat="42.8073840" lon="-8.4779260">
        <ele>199.4</ele>
        <time>2019-08-18T09:40:24Z</time>
      </trkpt>
      <trkpt lat="42.8074150" lon="-8.4779530">
        <ele>199.4</ele>
        <time>2019-08-18T09:40:25Z</time>
      </trkpt>
      <trkpt lat="42.8074470" lon="-8.4779820">
        <ele>199.5</ele>
        <time>2019-08-18T09:40:26Z</time>
      </trkpt>
      <trkpt lat="42.8074810" lon="-8.4780110">
        <ele>199.5</ele>
        <time>2019-08-18T09:40:27Z</time>
      </trkpt>
      <trkpt lat="42.8075160" lon="-8.4780410">
        <ele>199.6</ele>
        <time>2019-08-18T09:40:28Z</time>
      </trkpt>
      <trkpt lat="42.8075530" lon="-8.4780700">
        <ele>199.7</ele>
        <time>2019-08-18T09:40:29Z</time>
      </trkpt>
      <trkpt lat="42.8075900" lon="-8.4780980">
        <ele>199.7</ele>
        <time>2019-08-18T09:40:30Z</time>
      </trkpt>
      <trkpt lat="42.8076280" lon="-8.4781260">
        <ele>199.8</ele>
        <time>2019-08-18T09:40:31Z</time>
      </trkpt>
      <trkpt lat="42.8076650" lon="-8.4781530">
        <ele>199.8</ele>
        <time>2019-08-18T09:40:32Z</time>
      </trkpt>
      <trkpt lat="42.8077030" lon="-8.4781820">
        <ele>199.9</ele>
        <time>2019-08-18T09:40:33Z</time>
      </trkpt>
      <trkpt lat="42.8077400" lon="-8.4782130">
        <ele>200.0</ele>
        <time>2019-08-18T09:40:34Z</time>
      </trkpt>
      <trkpt lat="42.8077770" lon="-8.4782440">
        <ele>200.0</ele>
        <time>2019-08-18T09:40:35Z</time>
      </trkpt>
      <trkpt lat="42.8078130" lon="-8.4782760">
        <ele>200.1</ele>
        <time>2019-08-18T09:40:36Z</time>
      </trkpt>
      <trkpt lat="42.8078500" lon="-8.4783090">
        <ele>200.2</ele>
        <time>2019-08-18T09:40:37Z</time>
      </trkpt>
      <trkpt lat="42.8078880" lon="-8.4783420">
        <ele>200.2</ele>
        <time>2019-08-18T09:40:38Z</time>
      </trkpt>
      <trkpt lat="42.8079250" lon="-8.4783750">
        <ele>200.3</ele>
        <time>2019-08-18T09:40:39Z</time>
      </trkpt>
      <trkpt lat="42.8079640" lon="-8.4784080">
        <ele>200.4</ele>
        <time>2019-08-18T09:40:40Z</time>
      </trkpt>
      <trkpt lat="42.8080030" lon="-8.4784420">
        <ele>200.4</ele>
        <time>2019-08-18T09:40:41Z</time>
      </trkpt>
      <trkpt lat="42.8080420" lon="-8.4784750">
        <ele>200.5</ele>
        <time>2019-08-18T09:40:42Z</time>
      </trkpt>
      <trkpt lat="42.8080820" lon="-8.4785090">
        <ele>200.5</ele>
        <time>2019-08-18T09:40:43Z</time>
      </trkpt>
      <trkpt lat="42.8081220" lon="-8.4785430">
        <ele>200.5</ele>
        <time>2019-08-18T09:40:44Z</time>
      </trkpt>
      <trkpt lat="42.8081620" lon="-8.4785780">
        <ele>200.6</ele>
        <time>2019-08-18T09:40:45Z</time>
      </trkpt>
      <trkpt lat="42.8082030" lon="-8.4786120">
        <ele>200.6</ele>
        <time>2019-08-18T09:40:46Z</time>
      </trkpt>
      <trkpt lat="42.8082440" lon="-8.4786470">
        <ele>200.6</ele>
        <time>2019-08-18T09:40:47Z</time>
      </trkpt>
      <trkpt lat="42.8082850" lon="-8.4786820">
        <ele>200.7</ele>
        <time>2019-08-18T09:40:48Z</time>
      </trkpt>
      <trkpt lat="42.8083250" lon="-8.4787180">
        <ele>200.7</ele>
        <time>2019-08-18T09:40:49Z</time>
      </trkpt>
      <trkpt lat="42.8083660" lon="-8.4787530">
        <ele>200.6</ele>
        <time>2019-08-18T09:40:50Z</time>
      </trkpt>
      <trkpt lat="42.8084070" lon="-8.4787880">
        <ele>200.5</ele>
        <time>2019-08-18T09:40:51Z</time>
      </trkpt>
      <trkpt lat="42.8084490" lon="-8.4788220">
        <ele>200.4</ele>
        <time>2019-08-18T09:40:52Z</time>
      </trkpt>
      <trkpt lat="42.8084900" lon="-8.4788560">
        <ele>200.3</ele>
        <time>2019-08-18T09:40:53Z</time>
      </trkpt>
      <trkpt lat="42.8085310" lon="-8.4788890">
        <ele>200.2</ele>
        <time>2019-08-18T09:40:54Z</time>
      </trkpt>
      <trkpt lat="42.8085720" lon="-8.4789210">
        <ele>200.0</ele>
        <time>2019-08-18T09:40:55Z</time>
      </trkpt>
      <trkpt lat="42.8086140" lon="-8.4789520">
        <ele>199.9</ele>
        <time>2019-08-18T09:40:56Z</time>
      </trkpt>
      <trkpt lat="42.8086550" lon="-8.4789830">
        <ele>199.7</ele>
        <time>2019-08-18T09:40:57Z</time>
      </trkpt>
      <trkpt lat="42.8086970" lon="-8.4790130">
        <ele>199.6</ele>
        <time>2019-08-18T09:40:58Z</time>
      </trkpt>
      <trkpt lat="42.8087400" lon="-8.4790430">
        <ele>199.5</ele>
        <time>2019-08-18T09:40:59Z</time>
      </trkpt>
      <trkpt lat="42.8087830" lon="-8.4790730">
        <ele>199.3</ele>
        <time>2019-08-18T09:41:00Z</time>
      </trkpt>
      <trkpt lat="42.8088270" lon="-8.4791020">
        <ele>199.2</ele>
        <time>2019-08-18T09:41:01Z</time>
      </trkpt>
      <trkpt lat="42.8088710" lon="-8.4791320">
        <ele>199.0</ele>
        <time>2019-08-18T09:41:02Z</time>
      </trkpt>
      <trkpt lat="42.8089160" lon="-8.4791630">
        <ele>198.9</ele>
        <time>2019-08-18T09:41:03Z</time>
      </trkpt>
      <trkpt lat="42.8089630" lon="-8.4791930">
        <ele>198.7</ele>
        <time>2019-08-18T09:41:04Z</time>
      </trkpt>
      <trkpt lat="42.8090100" lon="-8.4792240">
        <ele>198.6</ele>
        <time>2019-08-18T09:41:05Z</time>
      </trkpt>
      <trkpt lat="42.8090580" lon="-8.4792550">
        <ele>198.4</ele>
        <time>2019-08-18T09:41:06Z</time>
      </trkpt>
      <trkpt lat="42.8091070" lon="-8.4792870">
        <ele>198.2</ele>
        <time>2019-08-18T09:41:07Z</time>
      </trkpt>
      <trkpt lat="42.8091570" lon="-8.4793180">
        <ele>198.0</ele>
        <time>2019-08-18T09:41:08Z</time>
      </trkpt>
      <trkpt lat="42.8092070" lon="-8.4793500">
        <ele>197.8</ele>
        <time>2019-08-18T09:41:09Z</time>
      </trkpt>
      <trkpt lat="42.8092590" lon="-8.4793830">
        <ele>197.6</ele>
        <time>2019-08-18T09:41:10Z</time>
      </trkpt>
      <trkpt lat="42.8093120" lon="-8.4794150">
        <ele>197.4</ele>
        <time>2019-08-18T09:41:11Z</time>
      </trkpt>
      <trkpt lat="42.8093650" lon="-8.4794480">
        <ele>197.2</ele>
        <time>2019-08-18T09:41:12Z</time>
      </trkpt>
      <trkpt lat="42.8094190" lon="-8.4794810">
        <ele>197.0</ele>
        <time>2019-08-18T09:41:13Z</time>
      </trkpt>
      <trkpt lat="42.8094740" lon="-8.4795140">
        <ele>196.7</ele>
        <time>2019-08-18T09:41:14Z</time>
      </trkpt>
      <trkpt lat="42.8095300" lon="-8.4795480">
        <ele>196.6</ele>
        <time>2019-08-18T09:41:15Z</time>
      </trkpt>
      <trkpt lat="42.8095860" lon="-8.4795820">
        <ele>196.4</ele>
        <time>2019-08-18T09:41:16Z</time>
      </trkpt>
      <trkpt lat="42.8096420" lon="-8.4796160">
        <ele>196.2</ele>
        <time>2019-08-18T09:41:17Z</time>
      </trkpt>
      <trkpt lat="42.8097000" lon="-8.4796500">
        <ele>196.1</ele>
        <time>2019-08-18T09:41:18Z</time>
      </trkpt>
      <trkpt lat="42.8097580" lon="-8.4796830">
        <ele>195.9</ele>
        <time>2019-08-18T09:41:19Z</time>
      </trkpt>
      <trkpt lat="42.8098180" lon="-8.4797160">
        <ele>195.7</ele>
        <time>2019-08-18T09:41:20Z</time>
      </trkpt>
      <trkpt lat="42.8098790" lon="-8.4797490">
        <ele>195.4</ele>
        <time>2019-08-18T09:41:21Z</time>
      </trkpt>
      <trkpt lat="42.8099410" lon="-8.4797800">
        <ele>195.2</ele>
        <time>2019-08-18T09:41:22Z</time>
      </trkpt>
      <trkpt lat="42.8100040" lon="-8.4798110">
        <ele>194.8</ele>
        <time>2019-08-18T09:41:23Z</time>
      </trkpt>
      <trkpt lat="42.8100700" lon="-8.4798400">
        <ele>194.5</ele>
        <time>2019-08-18T09:41:24Z</time>
      </trkpt>
      <trkpt lat="42.8101360" lon="-8.4798680">
        <ele>194.1</ele>
        <time>2019-08-18T09:41:25Z</time>
      </trkpt>
      <trkpt lat="42.8102050" lon="-8.4798930">
        <ele>194.0</ele>
        <time>2019-08-18T09:41:26Z</time>
      </trkpt>
      <trkpt lat="42.8102740" lon="-8.4799170">
        <ele>194.2</ele>
        <time>2019-08-18T09:41:27Z</time>
      </trkpt>
      <trkpt lat="42.8103450" lon="-8.4799370">
        <ele>194.2</ele>
        <time>2019-08-18T09:41:28Z</time>
      </trkpt>
      <trkpt lat="42.8104170" lon="-8.4799550">
        <ele>194.1</ele>
        <time>2019-08-18T09:41:29Z</time>
      </trkpt>
      <trkpt lat="42.8104900" lon="-8.4799690">
        <ele>194.0</ele>
        <time>2019-08-18T09:41:30Z</time>
      </trkpt>
      <trkpt lat="42.8105630" lon="-8.4799790">
        <ele>193.9</ele>
        <time>2019-08-18T09:41:31Z</time>
      </trkpt>
      <trkpt lat="42.8106380" lon="-8.4799850">
        <ele>193.9</ele>
        <time>2019-08-18T09:41:32Z</time>
      </trkpt>
      <trkpt lat="42.8107130" lon="-8.4799880">
        <ele>193.8</ele>
        <time>2019-08-18T09:41:33Z</time>
      </trkpt>
      <trkpt lat="42.8107890" lon="-8.4799840">
        <ele>193.7</ele>
        <time>2019-08-18T09:41:34Z</time>
      </trkpt>
      <trkpt lat="42.8108650" lon="-8.4799800">
        <ele>193.7</ele>
        <time>2019-08-18T09:41:35Z</time>
      </trkpt>
      <trkpt lat="42.8109420" lon="-8.4799710">
        <ele>193.6</ele>
        <time>2019-08-18T09:41:36Z</time>
      </trkpt>
      <trkpt lat="42.8110190" lon="-8.4799570">
        <ele>193.5</ele>
        <time>2019-08-18T09:41:37Z</time>
      </trkpt>
      <trkpt lat="42.8110960" lon="-8.4799390">
        <ele>193.5</ele>
        <time>2019-08-18T09:41:38Z</time>
      </trkpt>
      <trkpt lat="42.8111730" lon="-8.4799170">
        <ele>193.4</ele>
        <time>2019-08-18T09:41:39Z</time>
      </trkpt>
      <trkpt lat="42.8112500" lon="-8.4798900">
        <ele>193.3</ele>
        <time>2019-08-18T09:41:40Z</time>
      </trkpt>
      <trkpt lat="42.8113270" lon="-8.4798600">
        <ele>193.3</ele>
        <time>2019-08-18T09:41:41Z</time>
      </trkpt>
      <trkpt lat="42.8114030" lon="-8.4798250">
        <ele>193.2</ele>
        <time>2019-08-18T09:41:42Z</time>
      </trkpt>
      <trkpt lat="42.8114780" lon="-8.4797870">
        <ele>193.2</ele>
        <time>2019-08-18T09:41:43Z</time>
      </trkpt>
      <trkpt lat="42.8115510" lon="-8.4797440">
        <ele>193.1</ele>
        <time>2019-08-18T09:41:44Z</time>
      </trkpt>
      <trkpt lat="42.8116230" lon="-8.4796970">
        <ele>193.0</ele>
        <time>2019-08-18T09:41:45Z</time>
      </trkpt>
      <trkpt lat="42.8116930" lon="-8.4796450">
        <ele>193.0</ele>
        <time>2019-08-18T09:41:46Z</time>
      </trkpt>
      <trkpt lat="42.8117610" lon="-8.4795910">
        <ele>192.9</ele>
        <time>2019-08-18T09:41:47Z</time>
      </trkpt>
      <trkpt lat="42.8118280" lon="-8.4795350">
        <ele>192.4</ele>
        <time>2019-08-18T09:41:48Z</time>
      </trkpt>
      <trkpt lat="42.8118940" lon="-8.4794770">
        <ele>191.9</ele>
        <time>2019-08-18T09:41:49Z</time>
      </trkpt>
      <trkpt lat="42.8119580" lon="-8.4794200">
        <ele>191.3</ele>
        <time>2019-08-18T09:41:50Z</time>
      </trkpt>
      <trkpt lat="42.8120220" lon="-8.4793640">
        <ele>190.7</ele>
        <time>2019-08-18T09:41:51Z</time>
      </trkpt>
      <trkpt lat="42.8120840" lon="-8.4793100">
        <ele>190.0</ele>
        <time>2019-08-18T09:41:52Z</time>
      </trkpt>
      <trkpt lat="42.8121460" lon="-8.4792600">
        <ele>189.4</ele>
        <time>2019-08-18T09:41:53Z</time>
      </trkpt>
      <trkpt lat="42.8122080" lon="-8.4792120">
        <ele>188.7</ele>
        <time>2019-08-18T09:41:54Z</time>
      </trkpt>
      <trkpt lat="42.8122680" lon="-8.4791640">
        <ele>188.1</ele>
        <time>2019-08-18T09:41:55Z</time>
      </trkpt>
      <trkpt lat="42.8123270" lon="-8.4791110">
        <ele>187.5</ele>
        <time>2019-08-18T09:41:56Z</time>
      </trkpt>
      <trkpt lat="42.8123840" lon="-8.4790580">
        <ele>186.9</ele>
        <time>2019-08-18T09:41:57Z</time>
      </trkpt>
      <trkpt lat="42.8124410" lon="-8.4790080">
        <ele>186.4</ele>
        <time>2019-08-18T09:41:58Z</time>
      </trkpt>
      <trkpt lat="42.8124970" lon="-8.4789620">
        <ele>185.9</ele>
        <time>2019-08-18T09:41:59Z</time>
      </trkpt>
      <trkpt lat="42.8125540" lon="-8.4789180">
        <ele>185.3</ele>
        <time>2019-08-18T09:42:00Z</time>
      </trkpt>
      <trkpt lat="42.8126140" lon="-8.4788750">
        <ele>184.7</ele>
        <time>2019-08-18T09:42:01Z</time>
      </trkpt>
      <trkpt lat="42.8126760" lon="-8.4788330">
        <ele>184.0</ele>
        <time>2019-08-18T09:42:02Z</time>
      </trkpt>
      <trkpt lat="42.8127400" lon="-8.4787940">
        <ele>183.4</ele>
        <time>2019-08-18T09:42:03Z</time>
      </trkpt>
      <trkpt lat="42.8128060" lon="-8.4787560">
        <ele>182.7</ele>
        <time>2019-08-18T09:42:04Z</time>
      </trkpt>
      <trkpt lat="42.8128730" lon="-8.4787220">
        <ele>182.1</ele>
        <time>2019-08-18T09:42:05Z</time>
      </trkpt>
      <trkpt lat="42.8129420" lon="-8.4786920">
        <ele>181.5</ele>
        <time>2019-08-18T09:42:06Z</time>
      </trkpt>
      <trkpt lat="42.8130130" lon="-8.4786660">
        <ele>180.8</ele>
        <time>2019-08-18T09:42:07Z</time>
      </trkpt>
      <trkpt lat="42.8130840" lon="-8.4786450">
        <ele>180.2</ele>
        <time>2019-08-18T09:42:08Z</time>
      </trkpt>
      <trkpt lat="42.8131570" lon="-8.4786280">
        <ele>179.8</ele>
        <time>2019-08-18T09:42:09Z</time>
      </trkpt>
      <trkpt lat="42.8132300" lon="-8.4786160">
        <ele>179.6</ele>
        <time>2019-08-18T09:42:10Z</time>
      </trkpt>
      <trkpt lat="42.8133050" lon="-8.4786080">
        <ele>179.3</ele>
        <time>2019-08-18T09:42:11Z</time>
      </trkpt>
      <trkpt lat="42.8133800" lon="-8.4786040">
        <ele>179.0</ele>
        <time>2019-08-18T09:42:12Z</time>
      </trkpt>
      <trkpt lat="42.8134560" lon="-8.4786020">
        <ele>178.7</ele>
        <time>2019-08-18T09:42:13Z</time>
      </trkpt>
      <trkpt lat="42.8135710" lon="-8.4786060">
        <ele>178.1</ele>
        <time>2019-08-18T09:42:14Z</time>
      </trkpt>
      <trkpt lat="42.8136090" lon="-8.4786080">
        <ele>177.9</ele>
        <time>2019-08-18T09:42:15Z</time>
      </trkpt>
      <trkpt lat="42.8136850" lon="-8.4786130">
        <ele>177.5</ele>
        <time>2019-08-18T09:42:16Z</time>
      </trkpt>
      <trkpt lat="42.8137610" lon="-8.4786210">
        <ele>177.3</ele>
        <time>2019-08-18T09:42:17Z</time>
      </trkpt>
      <trkpt lat="42.8138380" lon="-8.4786300">
        <ele>177.0</ele>
        <time>2019-08-18T09:42:18Z</time>
      </trkpt>
      <trkpt lat="42.8139140" lon="-8.4786410">
        <ele>176.8</ele>
        <time>2019-08-18T09:42:19Z</time>
      </trkpt>
      <trkpt lat="42.8139890" lon="-8.4786540">
        <ele>176.5</ele>
        <time>2019-08-18T09:42:20Z</time>
      </trkpt>
      <trkpt lat="42.8140650" lon="-8.4786670">
        <ele>176.3</ele>
        <time>2019-08-18T09:42:21Z</time>
      </trkpt>
      <trkpt lat="42.8141390" lon="-8.4786810">
        <ele>176.0</ele>
        <time>2019-08-18T09:42:22Z</time>
      </trkpt>
      <trkpt lat="42.8142120" lon="-8.4786950">
        <ele>175.8</ele>
        <time>2019-08-18T09:42:23Z</time>
      </trkpt>
      <trkpt lat="42.8142840" lon="-8.4787100">
        <ele>175.5</ele>
        <time>2019-08-18T09:42:24Z</time>
      </trkpt>
      <trkpt lat="42.8143550" lon="-8.4787260">
        <ele>175.0</ele>
        <time>2019-08-18T09:42:25Z</time>
      </trkpt>
      <trkpt lat="42.8144250" lon="-8.4787410">
        <ele>175.8</ele>
        <time>2019-08-18T09:42:26Z</time>
      </trkpt>
      <trkpt lat="42.8144930" lon="-8.4787550">
        <ele>176.5</ele>
        <time>2019-08-18T09:42:27Z</time>
      </trkpt>
      <trkpt lat="42.8145590" lon="-8.4787700">
        <ele>177.2</ele>
        <time>2019-08-18T09:42:28Z</time>
      </trkpt>
      <trkpt lat="42.8146230" lon="-8.4787830">
        <ele>177.8</ele>
        <time>2019-08-18T09:42:29Z</time>
      </trkpt>
      <trkpt lat="42.8146860" lon="-8.4787960">
        <ele>178.3</ele>
        <time>2019-08-18T09:42:30Z</time>
      </trkpt>
      <trkpt lat="42.8147460" lon="-8.4788080">
        <ele>178.8</ele>
        <time>2019-08-18T09:42:31Z</time>
      </trkpt>
      <trkpt lat="42.8148050" lon="-8.4788190">
        <ele>179.2</ele>
        <time>2019-08-18T09:42:32Z</time>
      </trkpt>
      <trkpt lat="42.8148620" lon="-8.4788300">
        <ele>179.6</ele>
        <time>2019-08-18T09:42:33Z</time>
      </trkpt>
      <trkpt lat="42.8149180" lon="-8.4788400">
        <ele>179.9</ele>
        <time>2019-08-18T09:42:34Z</time>
      </trkpt>
      <trkpt lat="42.8149720" lon="-8.4788490">
        <ele>180.2</ele>
        <time>2019-08-18T09:42:35Z</time>
      </trkpt>
      <trkpt lat="42.8150250" lon="-8.4788580">
        <ele>180.5</ele>
        <time>2019-08-18T09:42:36Z</time>
      </trkpt>
      <trkpt lat="42.8150770" lon="-8.4788670">
        <ele>180.7</ele>
        <time>2019-08-18T09:42:37Z</time>
      </trkpt>
      <trkpt lat="42.8151290" lon="-8.4788760">
        <ele>180.9</ele>
        <time>2019-08-18T09:42:38Z</time>
      </trkpt>
      <trkpt lat="42.8151790" lon="-8.4788840">
        <ele>181.2</ele>
        <time>2019-08-18T09:42:39Z</time>
      </trkpt>
      <trkpt lat="42.8152300" lon="-8.4788930">
        <ele>181.4</ele>
        <time>2019-08-18T09:42:40Z</time>
      </trkpt>
      <trkpt lat="42.8152790" lon="-8.4789020">
        <ele>181.7</ele>
        <time>2019-08-18T09:42:41Z</time>
      </trkpt>
      <trkpt lat="42.8153290" lon="-8.4789110">
        <ele>181.9</ele>
        <time>2019-08-18T09:42:42Z</time>
      </trkpt>
      <trkpt lat="42.8153780" lon="-8.4789200">
        <ele>182.1</ele>
        <time>2019-08-18T09:42:43Z</time>
      </trkpt>
      <trkpt lat="42.8154270" lon="-8.4789300">
        <ele>182.4</ele>
        <time>2019-08-18T09:42:44Z</time>
      </trkpt>
      <trkpt lat="42.8154770" lon="-8.4789400">
        <ele>182.6</ele>
        <time>2019-08-18T09:42:45Z</time>
      </trkpt>
      <trkpt lat="42.8155270" lon="-8.4789500">
        <ele>182.9</ele>
        <time>2019-08-18T09:42:46Z</time>
      </trkpt>
      <trkpt lat="42.8155760" lon="-8.4789620">
        <ele>183.2</ele>
        <time>2019-08-18T09:42:47Z</time>
      </trkpt>
      <trkpt lat="42.8156270" lon="-8.4789740">
        <ele>183.4</ele>
        <time>2019-08-18T09:42:48Z</time>
      </trkpt>
      <trkpt lat="42.8156770" lon="-8.4789860">
        <ele>183.7</ele>
        <time>2019-08-18T09:42:49Z</time>
      </trkpt>
      <trkpt lat="42.8157270" lon="-8.4789970">
        <ele>184.0</ele>
        <time>2019-08-18T09:42:50Z</time>
      </trkpt>
      <trkpt lat="42.8157750" lon="-8.4790080">
        <ele>184.2</ele>
        <time>2019-08-18T09:42:51Z</time>
      </trkpt>
      <trkpt lat="42.8158230" lon="-8.4790180">
        <ele>184.5</ele>
        <time>2019-08-18T09:42:52Z</time>
      </trkpt>
      <trkpt lat="42.8158690" lon="-8.4790270">
        <ele>184.5</ele>
        <time>2019-08-18T09:42:53Z</time>
      </trkpt>
      <trkpt lat="42.8159150" lon="-8.4790350">
        <ele>184.4</ele>
        <time>2019-08-18T09:42:54Z</time>
      </trkpt>
      <trkpt lat="42.8159590" lon="-8.4790420">
        <ele>184.3</ele>
        <time>2019-08-18T09:42:55Z</time>
      </trkpt>
      <trkpt lat="42.8160030" lon="-8.4790500">
        <ele>184.2</ele>
        <time>2019-08-18T09:42:56Z</time>
      </trkpt>
      <trkpt lat="42.8160740" lon="-8.4790620">
        <ele>184.1</ele>
        <time>2019-08-18T09:42:57Z</time>
      </trkpt>
      <trkpt lat="42.8161020" lon="-8.4790680">
        <ele>184.0</ele>
        <time>2019-08-18T09:42:58Z</time>
      </trkpt>
      <trkpt lat="42.8161300" lon="-8.4790730">
        <ele>184.0</ele>
        <time>2019-08-18T09:42:59Z</time>
      </trkpt>
      <trkpt lat="42.8161720" lon="-8.4790820">
        <ele>183.9</ele>
        <time>2019-08-18T09:43:00Z</time>
      </trkpt>
      <trkpt lat="42.8162130" lon="-8.4790910">
        <ele>183.8</ele>
        <time>2019-08-18T09:43:01Z</time>
      </trkpt>
      <trkpt lat="42.8162790" lon="-8.4791060">
        <ele>183.7</ele>
        <time>2019-08-18T09:43:02Z</time>
      </trkpt>
      <trkpt lat="42.8163060" lon="-8.4791120">
        <ele>183.7</ele>
        <time>2019-08-18T09:43:03Z</time>
      </trkpt>
      <trkpt lat="42.8163320" lon="-8.4791180">
        <ele>183.7</ele>
        <time>2019-08-18T09:43:04Z</time>
      </trkpt>
      <trkpt lat="42.8163700" lon="-8.4791270">
        <ele>183.6</ele>
        <time>2019-08-18T09:43:05Z</time>
      </trkpt>
      <trkpt lat="42.8164070" lon="-8.4791350">
        <ele>183.6</ele>
        <time>2019-08-18T09:43:06Z</time>
      </trkpt>
      <trkpt lat="42.8164440" lon="-8.4791440">
        <ele>183.5</ele>
        <time>2019-08-18T09:43:07Z</time>
      </trkpt>
      <trkpt lat="42.8164790" lon="-8.4791520">
        <ele>183.5</ele>
        <time>2019-08-18T09:43:08Z</time>
      </trkpt>
      <trkpt lat="42.8165140" lon="-8.4791600">
        <ele>183.5</ele>
        <time>2019-08-18T09:43:09Z</time>
      </trkpt>
      <trkpt lat="42.8165490" lon="-8.4791680">
        <ele>183.4</ele>
        <time>2019-08-18T09:43:10Z</time>
      </trkpt>
      <trkpt lat="42.8165820" lon="-8.4791770">
        <ele>183.4</ele>
        <time>2019-08-18T09:43:11Z</time>
      </trkpt>
      <trkpt lat="42.8166150" lon="-8.4791860">
        <ele>183.4</ele>
        <time>2019-08-18T09:43:12Z</time>
      </trkpt>
      <trkpt lat="42.8166470" lon="-8.4791950">
        <ele>183.4</ele>
        <time>2019-08-18T09:43:13Z</time>
      </trkpt>
      <trkpt lat="42.8166790" lon="-8.4792060">
        <ele>183.3</ele>
        <time>2019-08-18T09:43:14Z</time>
      </trkpt>
      <trkpt lat="42.8167100" lon="-8.4792170">
        <ele>183.3</ele>
        <time>2019-08-18T09:43:15Z</time>
      </trkpt>
      <trkpt lat="42.8167410" lon="-8.4792280">
        <ele>183.3</ele>
        <time>2019-08-18T09:43:16Z</time>
      </trkpt>
      <trkpt lat="42.8167710" lon="-8.4792400">
        <ele>183.3</ele>
        <time>2019-08-18T09:43:17Z</time>
      </trkpt>
      <trkpt lat="42.8168000" lon="-8.4792530">
        <ele>183.3</ele>
        <time>2019-08-18T09:43:18Z</time>
      </trkpt>
      <trkpt lat="42.8168290" lon="-8.4792660">
        <ele>183.2</ele>
        <time>2019-08-18T09:43:19Z</time>
      </trkpt>
      <trkpt lat="42.8168580" lon="-8.4792790">
        <ele>183.2</ele>
        <time>2019-08-18T09:43:20Z</time>
      </trkpt>
      <trkpt lat="42.8168870" lon="-8.4792930">
        <ele>183.2</ele>
        <time>2019-08-18T09:43:21Z</time>
      </trkpt>
      <trkpt lat="42.8169150" lon="-8.4793070">
        <ele>183.2</ele>
        <time>2019-08-18T09:43:22Z</time>
      </trkpt>
      <trkpt lat="42.8169420" lon="-8.4793210">
        <ele>183.1</ele>
        <time>2019-08-18T09:43:23Z</time>
      </trkpt>
      <trkpt lat="42.8169700" lon="-8.4793360">
        <ele>183.1</ele>
        <time>2019-08-18T09:43:24Z</time>
      </trkpt>
      <trkpt lat="42.8169970" lon="-8.4793510">
        <ele>183.1</ele>
        <time>2019-08-18T09:43:25Z</time>
      </trkpt>
      <trkpt lat="42.8170240" lon="-8.4793660">
        <ele>183.1</ele>
        <time>2019-08-18T09:43:26Z</time>
      </trkpt>
      <trkpt lat="42.8170510" lon="-8.4793810">
        <ele>183.0</ele>
        <time>2019-08-18T09:43:27Z</time>
      </trkpt>
      <trkpt lat="42.8170770" lon="-8.4793960">
        <ele>183.0</ele>
        <time>2019-08-18T09:43:28Z</time>
      </trkpt>
      <trkpt lat="42.8171030" lon="-8.4794120">
        <ele>183.0</ele>
        <time>2019-08-18T09:43:29Z</time>
      </trkpt>
      <trkpt lat="42.8171290" lon="-8.4794280">
        <ele>183.0</ele>
        <time>2019-08-18T09:43:30Z</time>
      </trkpt>
      <trkpt lat="42.8171550" lon="-8.4794430">
        <ele>182.9</ele>
        <time>2019-08-18T09:43:31Z</time>
      </trkpt>
      <trkpt lat="42.8171810" lon="-8.4794600">
        <ele>182.9</ele>
        <time>2019-08-18T09:43:32Z</time>
      </trkpt>
      <trkpt lat="42.8172060" lon="-8.4794760">
        <ele>182.9</ele>
        <time>2019-08-18T09:43:33Z</time>
      </trkpt>
      <trkpt lat="42.8172320" lon="-8.4794930">
        <ele>182.8</ele>
        <time>2019-08-18T09:43:34Z</time>
      </trkpt>
      <trkpt lat="42.8172570" lon="-8.4795100">
        <ele>182.8</ele>
        <time>2019-08-18T09:43:35Z</time>
      </trkpt>
      <trkpt lat="42.8172810" lon="-8.4795270">
        <ele>182.8</ele>
        <time>2019-08-18T09:43:36Z</time>
      </trkpt>
      <trkpt lat="42.8173060" lon="-8.4795450">
        <ele>182.7</ele>
        <time>2019-08-18T09:43:37Z</time>
      </trkpt>
      <trkpt lat="42.8173300" lon="-8.4795630">
        <ele>182.7</ele>
        <time>2019-08-18T09:43:38Z</time>
      </trkpt>
      <trkpt lat="42.8173540" lon="-8.4795820">
        <ele>182.7</ele>
        <time>2019-08-18T09:43:39Z</time>
      </trkpt>
      <trkpt lat="42.8173780" lon="-8.4796010">
        <ele>182.6</ele>
        <time>2019-08-18T09:43:40Z</time>
      </trkpt>
      <trkpt lat="42.8174020" lon="-8.4796200">
        <ele>182.6</ele>
        <time>2019-08-18T09:43:41Z</time>
      </trkpt>
      <trkpt lat="42.8174250" lon="-8.4796400">
        <ele>182.6</ele>
        <time>2019-08-18T09:43:42Z</time>
      </trkpt>
      <trkpt lat="42.8174480" lon="-8.4796610">
        <ele>182.5</ele>
        <time>2019-08-18T09:43:43Z</time>
      </trkpt>
      <trkpt lat="42.8174710" lon="-8.4796820">
        <ele>182.5</ele>
        <time>2019-08-18T09:43:44Z</time>
      </trkpt>
      <trkpt lat="42.8174940" lon="-8.4797030">
        <ele>182.5</ele>
        <time>2019-08-18T09:43:45Z</time>
      </trkpt>
      <trkpt lat="42.8175170" lon="-8.4797250">
        <ele>182.4</ele>
        <time>2019-08-18T09:43:46Z</time>
      </trkpt>
      <trkpt lat="42.8175390" lon="-8.4797460">
        <ele>182.4</ele>
        <time>2019-08-18T09:43:47Z</time>
      </trkpt>
      <trkpt lat="42.8175620" lon="-8.4797680">
        <ele>182.4</ele>
        <time>2019-08-18T09:43:48Z</time>
      </trkpt>
      <trkpt lat="42.8175840" lon="-8.4797900">
        <ele>182.3</ele>
        <time>2019-08-18T09:43:49Z</time>
      </trkpt>
      <trkpt lat="42.8176070" lon="-8.4798120">
        <ele>182.3</ele>
        <time>2019-08-18T09:43:50Z</time>
      </trkpt>
      <trkpt lat="42.8176300" lon="-8.4798330">
        <ele>182.2</ele>
        <time>2019-08-18T09:43:51Z</time>
      </trkpt>
      <trkpt lat="42.8176530" lon="-8.4798550">
        <ele>182.2</ele>
        <time>2019-08-18T09:43:52Z</time>
      </trkpt>
      <trkpt lat="42.8176750" lon="-8.4798770">
        <ele>182.2</ele>
        <time>2019-08-18T09:43:53Z</time>
      </trkpt>
      <trkpt lat="42.8176980" lon="-8.4798990">
        <ele>182.1</ele>
        <time>2019-08-18T09:43:54Z</time>
      </trkpt>
      <trkpt lat="42.8177190" lon="-8.4799220">
        <ele>182.1</ele>
        <time>2019-08-18T09:43:55Z</time>
      </trkpt>
      <trkpt lat="42.8177410" lon="-8.4799470">
        <ele>182.0</ele>
        <time>2019-08-18T09:43:56Z</time>
      </trkpt>
      <trkpt lat="42.8177620" lon="-8.4799720">
        <ele>182.0</ele>
        <time>2019-08-18T09:43:57Z</time>
      </trkpt>
      <trkpt lat="42.8177820" lon="-8.4799990">
        <ele>181.9</ele>
        <time>2019-08-18T09:43:58Z</time>
      </trkpt>
      <trkpt lat="42.8178010" lon="-8.4800270">
        <ele>182.2</ele>
        <time>2019-08-18T09:43:59Z</time>
      </trkpt>
      <trkpt lat="42.8178200" lon="-8.4800560">
        <ele>182.4</ele>
        <time>2019-08-18T09:44:00Z</time>
      </trkpt>
      <trkpt lat="42.8178380" lon="-8.4800850">
        <ele>182.5</ele>
        <time>2019-08-18T09:44:01Z</time>
      </trkpt>
      <trkpt lat="42.8178560" lon="-8.4801140">
        <ele>182.7</ele>
        <time>2019-08-18T09:44:02Z</time>
      </trkpt>
      <trkpt lat="42.8178740" lon="-8.4801440">
        <ele>182.9</ele>
        <time>2019-08-18T09:44:03Z</time>
      </trkpt>
      <trkpt lat="42.8178920" lon="-8.4801720">
        <ele>183.1</ele>
        <time>2019-08-18T09:44:04Z</time>
      </trkpt>
      <trkpt lat="42.8179110" lon="-8.4802000">
        <ele>183.3</ele>
        <time>2019-08-18T09:44:05Z</time>
      </trkpt>
      <trkpt lat="42.8179290" lon="-8.4802280">
        <ele>183.6</ele>
        <time>2019-08-18T09:44:06Z</time>
      </trkpt>
      <trkpt lat="42.8179480" lon="-8.4802540">
        <ele>183.8</ele>
        <time>2019-08-18T09:44:07Z</time>
      </trkpt>
      <trkpt lat="42.8179660" lon="-8.4802810">
        <ele>184.1</ele>
        <time>2019-08-18T09:44:08Z</time>
      </trkpt>
      <trkpt lat="42.8179850" lon="-8.4803080">
        <ele>184.3</ele>
        <time>2019-08-18T09:44:09Z</time>
      </trkpt>
      <trkpt lat="42.8180030" lon="-8.4803340">
        <ele>184.5</ele>
        <time>2019-08-18T09:44:10Z</time>
      </trkpt>
      <trkpt lat="42.8180200" lon="-8.4803620">
        <ele>184.7</ele>
        <time>2019-08-18T09:44:11Z</time>
      </trkpt>
      <trkpt lat="42.8180370" lon="-8.4803890">
        <ele>184.9</ele>
        <time>2019-08-18T09:44:12Z</time>
      </trkpt>
      <trkpt lat="42.8180540" lon="-8.4804180">
        <ele>185.1</ele>
        <time>2019-08-18T09:44:13Z</time>
      </trkpt>
      <trkpt lat="42.8180700" lon="-8.4804470">
        <ele>185.3</ele>
        <time>2019-08-18T09:44:14Z</time>
      </trkpt>
      <trkpt lat="42.8180860" lon="-8.4804770">
        <ele>185.5</ele>
        <time>2019-08-18T09:44:15Z</time>
      </trkpt>
      <trkpt lat="42.8181010" lon="-8.4805070">
        <ele>185.7</ele>
        <time>2019-08-18T09:44:16Z</time>
      </trkpt>
      <trkpt lat="42.8181170" lon="-8.4805380">
        <ele>185.9</ele>
        <time>2019-08-18T09:44:17Z</time>
      </trkpt>
      <trkpt lat="42.8181330" lon="-8.4805690">
        <ele>186.1</ele>
        <time>2019-08-18T09:44:18Z</time>
      </trkpt>
      <trkpt lat="42.8181480" lon="-8.4806010">
        <ele>186.3</ele>
        <time>2019-08-18T09:44:19Z</time>
      </trkpt>
      <trkpt lat="42.8181640" lon="-8.4806330">
        <ele>186.5</ele>
        <time>2019-08-18T09:44:20Z</time>
      </trkpt>
      <trkpt lat="42.8181800" lon="-8.4806660">
        <ele>186.7</ele>
        <time>2019-08-18T09:44:21Z</time>
      </trkpt>
      <trkpt lat="42.8181960" lon="-8.4806990">
        <ele>186.9</ele>
        <time>2019-08-18T09:44:22Z</time>
      </trkpt>
      <trkpt lat="42.8182110" lon="-8.4807340">
        <ele>187.2</ele>
        <time>2019-08-18T09:44:23Z</time>
      </trkpt>
      <trkpt lat="42.8182270" lon="-8.4807680">
        <ele>187.4</ele>
        <time>2019-08-18T09:44:24Z</time>
      </trkpt>
      <trkpt lat="42.8182430" lon="-8.4808040">
        <ele>187.6</ele>
        <time>2019-08-18T09:44:25Z</time>
      </trkpt>
      <trkpt lat="42.8182590" lon="-8.4808400">
        <ele>187.8</ele>
        <time>2019-08-18T09:44:26Z</time>
      </trkpt>
      <trkpt lat="42.8182740" lon="-8.4808760">
        <ele>188.0</ele>
        <time>2019-08-18T09:44:27Z</time>
      </trkpt>
      <trkpt lat="42.8182900" lon="-8.4809140">
        <ele>188.3</ele>
        <time>2019-08-18T09:44:28Z</time>
      </trkpt>
      <trkpt lat="42.8183050" lon="-8.4809520">
        <ele>188.5</ele>
        <time>2019-08-18T09:44:29Z</time>
      </trkpt>
      <trkpt lat="42.8183200" lon="-8.4809900">
        <ele>188.7</ele>
        <time>2019-08-18T09:44:30Z</time>
      </trkpt>
      <trkpt lat="42.8183350" lon="-8.4810290">
        <ele>188.9</ele>
        <time>2019-08-18T09:44:31Z</time>
      </trkpt>
      <trkpt lat="42.8183490" lon="-8.4810680">
        <ele>189.1</ele>
        <time>2019-08-18T09:44:32Z</time>
      </trkpt>
      <trkpt lat="42.8183640" lon="-8.4811080">
        <ele>189.2</ele>
        <time>2019-08-18T09:44:33Z</time>
      </trkpt>
      <trkpt lat="42.8183780" lon="-8.4811480">
        <ele>189.4</ele>
        <time>2019-08-18T09:44:34Z</time>
      </trkpt>
      <trkpt lat="42.8183920" lon="-8.4811880">
        <ele>189.5</ele>
        <time>2019-08-18T09:44:35Z</time>
      </trkpt>
      <trkpt lat="42.8184070" lon="-8.4812290">
        <ele>189.7</ele>
        <time>2019-08-18T09:44:36Z</time>
      </trkpt>
      <trkpt lat="42.8184200" lon="-8.4812690">
        <ele>189.8</ele>
        <time>2019-08-18T09:44:37Z</time>
      </trkpt>
      <trkpt lat="42.8184340" lon="-8.4813100">
        <ele>190.0</ele>
        <time>2019-08-18T09:44:38Z</time>
      </trkpt>
      <trkpt lat="42.8184480" lon="-8.4813510">
        <ele>190.2</ele>
        <time>2019-08-18T09:44:39Z</time>
      </trkpt>
      <trkpt lat="42.8184610" lon="-8.4813910">
        <ele>190.4</ele>
        <time>2019-08-18T09:44:40Z</time>
      </trkpt>
      <trkpt lat="42.8184750" lon="-8.4814320">
        <ele>190.7</ele>
        <time>2019-08-18T09:44:41Z</time>
      </trkpt>
      <trkpt lat="42.8184880" lon="-8.4814720">
        <ele>190.9</ele>
        <time>2019-08-18T09:44:42Z</time>
      </trkpt>
      <trkpt lat="42.8185010" lon="-8.4815120">
        <ele>191.2</ele>
        <time>2019-08-18T09:44:43Z</time>
      </trkpt>
      <trkpt lat="42.8185140" lon="-8.4815530">
        <ele>191.5</ele>
        <time>2019-08-18T09:44:44Z</time>
      </trkpt>
      <trkpt lat="42.8185270" lon="-8.4815930">
        <ele>191.8</ele>
        <time>2019-08-18T09:44:45Z</time>
      </trkpt>
      <trkpt lat="42.8185410" lon="-8.4816330">
        <ele>192.2</ele>
        <time>2019-08-18T09:44:46Z</time>
      </trkpt>
      <trkpt lat="42.8185540" lon="-8.4816730">
        <ele>192.5</ele>
        <time>2019-08-18T09:44:47Z</time>
      </trkpt>
      <trkpt lat="42.8185670" lon="-8.4817130">
        <ele>192.7</ele>
        <time>2019-08-18T09:44:48Z</time>
      </trkpt>
      <trkpt lat="42.8185800" lon="-8.4817530">
        <ele>192.9</ele>
        <time>2019-08-18T09:44:49Z</time>
      </trkpt>
      <trkpt lat="42.8185930" lon="-8.4817930">
        <ele>193.1</ele>
        <time>2019-08-18T09:44:50Z</time>
      </trkpt>
      <trkpt lat="42.8186070" lon="-8.4818330">
        <ele>193.4</ele>
        <time>2019-08-18T09:44:51Z</time>
      </trkpt>
      <trkpt lat="42.8186200" lon="-8.4818730">
        <ele>193.6</ele>
        <time>2019-08-18T09:44:52Z</time>
      </trkpt>
      <trkpt lat="42.8186340" lon="-8.4819140">
        <ele>194.0</ele>
        <time>2019-08-18T09:44:53Z</time>
      </trkpt>
      <trkpt lat="42.8186470" lon="-8.4819540">
        <ele>194.3</ele>
        <time>2019-08-18T09:44:54Z</time>
      </trkpt>
      <trkpt lat="42.8186620" lon="-8.4819940">
        <ele>194.7</ele>
        <time>2019-08-18T09:44:55Z</time>
      </trkpt>
      <trkpt lat="42.8186760" lon="-8.4820350">
        <ele>195.0</ele>
        <time>2019-08-18T09:44:56Z</time>
      </trkpt>
      <trkpt lat="42.8186900" lon="-8.4820750">
        <ele>195.3</ele>
        <time>2019-08-18T09:44:57Z</time>
      </trkpt>
      <trkpt lat="42.8187050" lon="-8.4821160">
        <ele>195.6</ele>
        <time>2019-08-18T09:44:58Z</time>
      </trkpt>
      <trkpt lat="42.8187200" lon="-8.4821570">
        <ele>195.9</ele>
        <time>2019-08-18T09:44:59Z</time>
      </trkpt>
      <trkpt lat="42.8187340" lon="-8.4821980">
        <ele>196.2</ele>
        <time>2019-08-18T09:45:00Z</time>
      </trkpt>
      <trkpt lat="42.8187490" lon="-8.4822390">
        <ele>196.5</ele>
        <time>2019-08-18T09:45:01Z</time>
      </trkpt>
      <trkpt lat="42.8187640" lon="-8.4822790">
        <ele>196.8</ele>
        <time>2019-08-18T09:45:02Z</time>
      </trkpt>
      <trkpt lat="42.8187790" lon="-8.4823200">
        <ele>197.1</ele>
        <time>2019-08-18T09:45:03Z</time>
      </trkpt>
      <trkpt lat="42.8187940" lon="-8.4823610">
        <ele>197.5</ele>
        <time>2019-08-18T09:45:04Z</time>
      </trkpt>
      <trkpt lat="42.8188090" lon="-8.4824020">
        <ele>197.8</ele>
        <time>2019-08-18T09:45:05Z</time>
      </trkpt>
      <trkpt lat="42.8188240" lon="-8.4824430">
        <ele>198.0</ele>
        <time>2019-08-18T09:45:06Z</time>
      </trkpt>
      <trkpt lat="42.8188380" lon="-8.4824840">
        <ele>198.3</ele>
        <time>2019-08-18T09:45:07Z</time>
      </trkpt>
      <trkpt lat="42.8188530" lon="-8.4825250">
        <ele>198.5</ele>
        <time>2019-08-18T09:45:08Z</time>
      </trkpt>
      <trkpt lat="42.8188670" lon="-8.4825660">
        <ele>198.8</ele>
        <time>2019-08-18T09:45:09Z</time>
      </trkpt>
      <trkpt lat="42.8188810" lon="-8.4826060">
        <ele>199.1</ele>
        <time>2019-08-18T09:45:10Z</time>
      </trkpt>
      <trkpt lat="42.8188950" lon="-8.4826470">
        <ele>199.3</ele>
        <time>2019-08-18T09:45:11Z</time>
      </trkpt>
      <trkpt lat="42.8189080" lon="-8.4826870">
        <ele>199.6</ele>
        <time>2019-08-18T09:45:12Z</time>
      </trkpt>
      <trkpt lat="42.8189220" lon="-8.4827280">
        <ele>199.9</ele>
        <time>2019-08-18T09:45:13Z</time>
      </trkpt>
      <trkpt lat="42.8189350" lon="-8.4827680">
        <ele>200.2</ele>
        <time>2019-08-18T09:45:14Z</time>
      </trkpt>
      <trkpt lat="42.8189480" lon="-8.4828080">
        <ele>200.4</ele>
        <time>2019-08-18T09:45:15Z</time>
      </trkpt>
      <trkpt lat="42.8189610" lon="-8.4828480">
        <ele>200.7</ele>
        <time>2019-08-18T09:45:16Z</time>
      </trkpt>
      <trkpt lat="42.8189750" lon="-8.4828880">
        <ele>201.0</ele>
        <time>2019-08-18T09:45:17Z</time>
      </trkpt>
      <trkpt lat="42.8189880" lon="-8.4829280">
        <ele>201.3</ele>
        <time>2019-08-18T09:45:18Z</time>
      </trkpt>
      <trkpt lat="42.8190010" lon="-8.4829670">
        <ele>201.5</ele>
        <time>2019-08-18T09:45:19Z</time>
      </trkpt>
      <trkpt lat="42.8190140" lon="-8.4830070">
        <ele>201.8</ele>
        <time>2019-08-18T09:45:20Z</time>
      </trkpt>
      <trkpt lat="42.8190270" lon="-8.4830460">
        <ele>202.1</ele>
        <time>2019-08-18T09:45:21Z</time>
      </trkpt>
      <trkpt lat="42.8190400" lon="-8.4830850">
        <ele>202.4</ele>
        <time>2019-08-18T09:45:22Z</time>
      </trkpt>
      <trkpt lat="42.8190540" lon="-8.4831230">
        <ele>202.7</ele>
        <time>2019-08-18T09:45:23Z</time>
      </trkpt>
      <trkpt lat="42.8190670" lon="-8.4831620">
        <ele>202.9</ele>
        <time>2019-08-18T09:45:24Z</time>
      </trkpt>
      <trkpt lat="42.8190810" lon="-8.4832000">
        <ele>203.2</ele>
        <time>2019-08-18T09:45:25Z</time>
      </trkpt>
      <trkpt lat="42.8190950" lon="-8.4832380">
        <ele>203.5</ele>
        <time>2019-08-18T09:45:26Z</time>
      </trkpt>
      <trkpt lat="42.8191090" lon="-8.4832760">
        <ele>203.8</ele>
        <time>2019-08-18T09:45:27Z</time>
      </trkpt>
      <trkpt lat="42.8191230" lon="-8.4833140">
        <ele>204.0</ele>
        <time>2019-08-18T09:45:28Z</time>
      </trkpt>
      <trkpt lat="42.8191370" lon="-8.4833520">
        <ele>204.3</ele>
        <time>2019-08-18T09:45:29Z</time>
      </trkpt>
      <trkpt lat="42.8191510" lon="-8.4833900">
        <ele>204.6</ele>
        <time>2019-08-18T09:45:30Z</time>
      </trkpt>
      <trkpt lat="42.8191650" lon="-8.4834280">
        <ele>204.8</ele>
        <time>2019-08-18T09:45:31Z</time>
      </trkpt>
      <trkpt lat="42.8191790" lon="-8.4834650">
        <ele>205.1</ele>
        <time>2019-08-18T09:45:32Z</time>
      </trkpt>
      <trkpt lat="42.8191940" lon="-8.4835040">
        <ele>205.4</ele>
        <time>2019-08-18T09:45:33Z</time>
      </trkpt>
      <trkpt lat="42.8192080" lon="-8.4835420">
        <ele>205.7</ele>
        <time>2019-08-18T09:45:34Z</time>
      </trkpt>
      <trkpt lat="42.8192220" lon="-8.4835810">
        <ele>205.9</ele>
        <time>2019-08-18T09:45:35Z</time>
      </trkpt>
      <trkpt lat="42.8192360" lon="-8.4836200">
        <ele>206.2</ele>
        <time>2019-08-18T09:45:36Z</time>
      </trkpt>
      <trkpt lat="42.8192490" lon="-8.4836590">
        <ele>206.5</ele>
        <time>2019-08-18T09:45:37Z</time>
      </trkpt>
      <trkpt lat="42.8192630" lon="-8.4836980">
        <ele>206.8</ele>
        <time>2019-08-18T09:45:38Z</time>
      </trkpt>
      <trkpt lat="42.8192770" lon="-8.4837390">
        <ele>207.0</ele>
        <time>2019-08-18T09:45:39Z</time>
      </trkpt>
      <trkpt lat="42.8192900" lon="-8.4837790">
        <ele>207.3</ele>
        <time>2019-08-18T09:45:40Z</time>
      </trkpt>
      <trkpt lat="42.8193030" lon="-8.4838200">
        <ele>207.6</ele>
        <time>2019-08-18T09:45:41Z</time>
      </trkpt>
      <trkpt lat="42.8193160" lon="-8.4838620">
        <ele>207.9</ele>
        <time>2019-08-18T09:45:42Z</time>
      </trkpt>
      <trkpt lat="42.8193290" lon="-8.4839040">
        <ele>208.2</ele>
        <time>2019-08-18T09:45:43Z</time>
      </trkpt>
      <trkpt lat="42.8193430" lon="-8.4839460">
        <ele>208.4</ele>
        <time>2019-08-18T09:45:44Z</time>
      </trkpt>
      <trkpt lat="42.8193560" lon="-8.4839880">
        <ele>208.7</ele>
        <time>2019-08-18T09:45:45Z</time>
      </trkpt>
      <trkpt lat="42.8193700" lon="-8.4840300">
        <ele>209.0</ele>
        <time>2019-08-18T09:45:46Z</time>
      </trkpt>
      <trkpt lat="42.8193840" lon="-8.4840720">
        <ele>209.3</ele>
        <time>2019-08-18T09:45:47Z</time>
      </trkpt>
      <trkpt lat="42.8193990" lon="-8.4841140">
        <ele>209.5</ele>
        <time>2019-08-18T09:45:48Z</time>
      </trkpt>
      <trkpt lat="42.8194130" lon="-8.4841560">
        <ele>209.8</ele>
        <time>2019-08-18T09:45:49Z</time>
      </trkpt>
      <trkpt lat="42.8194280" lon="-8.4841980">
        <ele>210.0</ele>
        <time>2019-08-18T09:45:50Z</time>
      </trkpt>
      <trkpt lat="42.8194430" lon="-8.4842390">
        <ele>210.3</ele>
        <time>2019-08-18T09:45:51Z</time>
      </trkpt>
      <trkpt lat="42.8194580" lon="-8.4842790">
        <ele>210.5</ele>
        <time>2019-08-18T09:45:52Z</time>
      </trkpt>
      <trkpt lat="42.8194730" lon="-8.4843170">
        <ele>210.7</ele>
        <time>2019-08-18T09:45:53Z</time>
      </trkpt>
      <trkpt lat="42.8194880" lon="-8.4843550">
        <ele>210.9</ele>
        <time>2019-08-18T09:45:54Z</time>
      </trkpt>
      <trkpt lat="42.8195020" lon="-8.4843910">
        <ele>211.1</ele>
        <time>2019-08-18T09:45:55Z</time>
      </trkpt>
      <trkpt lat="42.8195160" lon="-8.4844250">
        <ele>211.4</ele>
        <time>2019-08-18T09:45:56Z</time>
      </trkpt>
      <trkpt lat="42.8195300" lon="-8.4844600">
        <ele>211.5</ele>
        <time>2019-08-18T09:45:57Z</time>
      </trkpt>
      <trkpt lat="42.8195430" lon="-8.4844940">
        <ele>211.6</ele>
        <time>2019-08-18T09:45:58Z</time>
      </trkpt>
      <trkpt lat="42.8195570" lon="-8.4845280">
        <ele>211.7</ele>
        <time>2019-08-18T09:45:59Z</time>
      </trkpt>
      <trkpt lat="42.8195700" lon="-8.4845640">
        <ele>211.8</ele>
        <time>2019-08-18T09:46:00Z</time>
      </trkpt>
      <trkpt lat="42.8195840" lon="-8.4846010">
        <ele>211.9</ele>
        <time>2019-08-18T09:46:01Z</time>
      </trkpt>
      <trkpt lat="42.8195980" lon="-8.4846400">
        <ele>212.0</ele>
        <time>2019-08-18T09:46:02Z</time>
      </trkpt>
      <trkpt lat="42.8196120" lon="-8.4846810">
        <ele>212.1</ele>
        <time>2019-08-18T09:46:03Z</time>
      </trkpt>
      <trkpt lat="42.8196260" lon="-8.4847220">
        <ele>212.2</ele>
        <time>2019-08-18T09:46:04Z</time>
      </trkpt>
      <trkpt lat="42.8196410" lon="-8.4847650">
        <ele>212.3</ele>
        <time>2019-08-18T09:46:05Z</time>
      </trkpt>
      <trkpt lat="42.8196570" lon="-8.4848080">
        <ele>212.4</ele>
        <time>2019-08-18T09:46:06Z</time>
      </trkpt>
      <trkpt lat="42.8196740" lon="-8.4848500">
        <ele>212.6</ele>
        <time>2019-08-18T09:46:07Z</time>
      </trkpt>
      <trkpt lat="42.8196910" lon="-8.4848930">
        <ele>212.7</ele>
        <time>2019-08-18T09:46:08Z</time>
      </trkpt>
      <trkpt lat="42.8197100" lon="-8.4849340">
        <ele>212.8</ele>
        <time>2019-08-18T09:46:09Z</time>
      </trkpt>
      <trkpt lat="42.8197300" lon="-8.4849750">
        <ele>212.8</ele>
        <time>2019-08-18T09:46:10Z</time>
      </trkpt>
      <trkpt lat="42.8197500" lon="-8.4850150">
        <ele>212.8</ele>
        <time>2019-08-18T09:46:11Z</time>
      </trkpt>
      <trkpt lat="42.8197710" lon="-8.4850550">
        <ele>212.9</ele>
        <time>2019-08-18T09:46:12Z</time>
      </trkpt>
      <trkpt lat="42.8197930" lon="-8.4850960">
        <ele>212.9</ele>
        <time>2019-08-18T09:46:13Z</time>
      </trkpt>
      <trkpt lat="42.8198150" lon="-8.4851360">
        <ele>212.9</ele>
        <time>2019-08-18T09:46:14Z</time>
      </trkpt>
      <trkpt lat="42.8198380" lon="-8.4851770">
        <ele>212.9</ele>
        <time>2019-08-18T09:46:15Z</time>
      </trkpt>
      <trkpt lat="42.8198610" lon="-8.4852180">
        <ele>212.9</ele>
        <time>2019-08-18T09:46:16Z</time>
      </trkpt>
      <trkpt lat="42.8198850" lon="-8.4852600">
        <ele>212.9</ele>
        <time>2019-08-18T09:46:17Z</time>
      </trkpt>
      <trkpt lat="42.8199080" lon="-8.4853030">
        <ele>213.0</ele>
        <time>2019-08-18T09:46:18Z</time>
      </trkpt>
      <trkpt lat="42.8199320" lon="-8.4853470">
        <ele>213.0</ele>
        <time>2019-08-18T09:46:19Z</time>
      </trkpt>
      <trkpt lat="42.8199560" lon="-8.4853910">
        <ele>213.0</ele>
        <time>2019-08-18T09:46:20Z</time>
      </trkpt>
      <trkpt lat="42.8199800" lon="-8.4854360">
        <ele>213.0</ele>
        <time>2019-08-18T09:46:21Z</time>
      </trkpt>
      <trkpt lat="42.8200040" lon="-8.4854810">
        <ele>213.0</ele>
        <time>2019-08-18T09:46:22Z</time>
      </trkpt>
      <trkpt lat="42.8200290" lon="-8.4855260">
        <ele>213.0</ele>
        <time>2019-08-18T09:46:23Z</time>
      </trkpt>
      <trkpt lat="42.8200540" lon="-8.4855710">
        <ele>213.0</ele>
        <time>2019-08-18T09:46:24Z</time>
      </trkpt>
      <trkpt lat="42.8200800" lon="-8.4856170">
        <ele>213.0</ele>
        <time>2019-08-18T09:46:25Z</time>
      </trkpt>
      <trkpt lat="42.8201060" lon="-8.4856620">
        <ele>213.0</ele>
        <time>2019-08-18T09:46:26Z</time>
      </trkpt>
      <trkpt lat="42.8201320" lon="-8.4857060">
        <ele>213.0</ele>
        <time>2019-08-18T09:46:27Z</time>
      </trkpt>
      <trkpt lat="42.8201590" lon="-8.4857500">
        <ele>213.0</ele>
        <time>2019-08-18T09:46:28Z</time>
      </trkpt>
      <trkpt lat="42.8201860" lon="-8.4857920">
        <ele>213.0</ele>
        <time>2019-08-18T09:46:29Z</time>
      </trkpt>
      <trkpt lat="42.8202140" lon="-8.4858340">
        <ele>213.0</ele>
        <time>2019-08-18T09:46:30Z</time>
      </trkpt>
      <trkpt lat="42.8202420" lon="-8.4858740">
        <ele>213.1</ele>
        <time>2019-08-18T09:46:31Z</time>
      </trkpt>
      <trkpt lat="42.8202700" lon="-8.4859130">
        <ele>213.1</ele>
        <time>2019-08-18T09:46:32Z</time>
      </trkpt>
      <trkpt lat="42.8202990" lon="-8.4859510">
        <ele>213.1</ele>
        <time>2019-08-18T09:46:33Z</time>
      </trkpt>
      <trkpt lat="42.8203280" lon="-8.4859880">
        <ele>213.1</ele>
        <time>2019-08-18T09:46:34Z</time>
      </trkpt>
      <trkpt lat="42.8203570" lon="-8.4860240">
        <ele>213.0</ele>
        <time>2019-08-18T09:46:35Z</time>
      </trkpt>
      <trkpt lat="42.8203860" lon="-8.4860600">
        <ele>212.9</ele>
        <time>2019-08-18T09:46:36Z</time>
      </trkpt>
      <trkpt lat="42.8204150" lon="-8.4860960">
        <ele>212.8</ele>
        <time>2019-08-18T09:46:37Z</time>
      </trkpt>
      <trkpt lat="42.8204440" lon="-8.4861320">
        <ele>212.7</ele>
        <time>2019-08-18T09:46:38Z</time>
      </trkpt>
      <trkpt lat="42.8204730" lon="-8.4861680">
        <ele>212.6</ele>
        <time>2019-08-18T09:46:39Z</time>
      </trkpt>
      <trkpt lat="42.8205020" lon="-8.4862040">
        <ele>212.6</ele>
        <time>2019-08-18T09:46:40Z</time>
      </trkpt>
      <trkpt lat="42.8205310" lon="-8.4862400">
        <ele>212.6</ele>
        <time>2019-08-18T09:46:41Z</time>
      </trkpt>
      <trkpt lat="42.8205610" lon="-8.4862760">
        <ele>212.5</ele>
        <time>2019-08-18T09:46:42Z</time>
      </trkpt>
      <trkpt lat="42.8205900" lon="-8.4863130">
        <ele>212.5</ele>
        <time>2019-08-18T09:46:43Z</time>
      </trkpt>
      <trkpt lat="42.8206190" lon="-8.4863510">
        <ele>212.5</ele>
        <time>2019-08-18T09:46:44Z</time>
      </trkpt>
      <trkpt lat="42.8206490" lon="-8.4863890">
        <ele>212.5</ele>
        <time>2019-08-18T09:46:45Z</time>
      </trkpt>
      <trkpt lat="42.8206790" lon="-8.4864270">
        <ele>212.5</ele>
        <time>2019-08-18T09:46:46Z</time>
      </trkpt>
      <trkpt lat="42.8207100" lon="-8.4864660">
        <ele>212.4</ele>
        <time>2019-08-18T09:46:47Z</time>
      </trkpt>
      <trkpt lat="42.8207410" lon="-8.4865060">
        <ele>212.4</ele>
        <time>2019-08-18T09:46:48Z</time>
      </trkpt>
      <trkpt lat="42.8207720" lon="-8.4865450">
        <ele>212.3</ele>
        <time>2019-08-18T09:46:49Z</time>
      </trkpt>
      <trkpt lat="42.8208040" lon="-8.4865840">
        <ele>212.3</ele>
        <time>2019-08-18T09:46:50Z</time>
      </trkpt>
      <trkpt lat="42.8208370" lon="-8.4866230">
        <ele>212.2</ele>
        <time>2019-08-18T09:46:51Z</time>
      </trkpt>
      <trkpt lat="42.8208710" lon="-8.4866620">
        <ele>212.2</ele>
        <time>2019-08-18T09:46:52Z</time>
      </trkpt>
      <trkpt lat="42.8209060" lon="-8.4867000">
        <ele>212.1</ele>
        <time>2019-08-18T09:46:53Z</time>
      </trkpt>
      <trkpt lat="42.8209420" lon="-8.4867380">
        <ele>212.1</ele>
        <time>2019-08-18T09:46:54Z</time>
      </trkpt>
      <trkpt lat="42.8209790" lon="-8.4867750">
        <ele>212.0</ele>
        <time>2019-08-18T09:46:55Z</time>
      </trkpt>
      <trkpt lat="42.8210170" lon="-8.4868110">
        <ele>212.1</ele>
        <time>2019-08-18T09:46:56Z</time>
      </trkpt>
      <trkpt lat="42.8210550" lon="-8.4868470">
        <ele>212.1</ele>
        <time>2019-08-18T09:46:57Z</time>
      </trkpt>
      <trkpt lat="42.8210940" lon="-8.4868820">
        <ele>212.1</ele>
        <time>2019-08-18T09:46:58Z</time>
      </trkpt>
      <trkpt lat="42.8211340" lon="-8.4869170">
        <ele>212.2</ele>
        <time>2019-08-18T09:46:59Z</time>
      </trkpt>
      <trkpt lat="42.8211740" lon="-8.4869500">
        <ele>212.2</ele>
        <time>2019-08-18T09:47:00Z</time>
      </trkpt>
      <trkpt lat="42.8212150" lon="-8.4869840">
        <ele>212.2</ele>
        <time>2019-08-18T09:47:01Z</time>
      </trkpt>
      <trkpt lat="42.8212560" lon="-8.4870170">
        <ele>212.2</ele>
        <time>2019-08-18T09:47:02Z</time>
      </trkpt>
      <trkpt lat="42.8212980" lon="-8.4870490">
        <ele>212.3</ele>
        <time>2019-08-18T09:47:03Z</time>
      </trkpt>
      <trkpt lat="42.8213410" lon="-8.4870810">
        <ele>212.3</ele>
        <time>2019-08-18T09:47:04Z</time>
      </trkpt>
      <trkpt lat="42.8213840" lon="-8.4871120">
        <ele>212.3</ele>
        <time>2019-08-18T09:47:05Z</time>
      </trkpt>
      <trkpt lat="42.8214280" lon="-8.4871430">
        <ele>212.3</ele>
        <time>2019-08-18T09:47:06Z</time>
      </trkpt>
      <trkpt lat="42.8214730" lon="-8.4871740">
        <ele>212.3</ele>
        <time>2019-08-18T09:47:07Z</time>
      </trkpt>
      <trkpt lat="42.8215190" lon="-8.4872040">
        <ele>212.4</ele>
        <time>2019-08-18T09:47:08Z</time>
      </trkpt>
      <trkpt lat="42.8215650" lon="-8.4872340">
        <ele>212.4</ele>
        <time>2019-08-18T09:47:09Z</time>
      </trkpt>
      <trkpt lat="42.8216110" lon="-8.4872630">
        <ele>212.4</ele>
        <time>2019-08-18T09:47:10Z</time>
      </trkpt>
      <trkpt lat="42.8216580" lon="-8.4872920">
        <ele>212.1</ele>
        <time>2019-08-18T09:47:11Z</time>
      </trkpt>
      <trkpt lat="42.8217060" lon="-8.4873200">
        <ele>211.9</ele>
        <time>2019-08-18T09:47:12Z</time>
      </trkpt>
      <trkpt lat="42.8217530" lon="-8.4873480">
        <ele>211.8</ele>
        <time>2019-08-18T09:47:13Z</time>
      </trkpt>
      <trkpt lat="42.8218010" lon="-8.4873750">
        <ele>211.6</ele>
        <time>2019-08-18T09:47:14Z</time>
      </trkpt>
      <trkpt lat="42.8218490" lon="-8.4874020">
        <ele>211.5</ele>
        <time>2019-08-18T09:47:15Z</time>
      </trkpt>
      <trkpt lat="42.8218980" lon="-8.4874280">
        <ele>211.4</ele>
        <time>2019-08-18T09:47:16Z</time>
      </trkpt>
      <trkpt lat="42.8219460" lon="-8.4874530">
        <ele>211.3</ele>
        <time>2019-08-18T09:47:17Z</time>
      </trkpt>
      <trkpt lat="42.8219940" lon="-8.4874770">
        <ele>211.3</ele>
        <time>2019-08-18T09:47:18Z</time>
      </trkpt>
      <trkpt lat="42.8220420" lon="-8.4875000">
        <ele>211.2</ele>
        <time>2019-08-18T09:47:19Z</time>
      </trkpt>
      <trkpt lat="42.8220890" lon="-8.4875210">
        <ele>211.2</ele>
        <time>2019-08-18T09:47:20Z</time>
      </trkpt>
      <trkpt lat="42.8221360" lon="-8.4875420">
        <ele>211.2</ele>
        <time>2019-08-18T09:47:21Z</time>
      </trkpt>
      <trkpt lat="42.8221830" lon="-8.4875610">
        <ele>211.2</ele>
        <time>2019-08-18T09:47:22Z</time>
      </trkpt>
      <trkpt lat="42.8222290" lon="-8.4875800">
        <ele>211.2</ele>
        <time>2019-08-18T09:47:23Z</time>
      </trkpt>
      <trkpt lat="42.8222760" lon="-8.4875980">
        <ele>211.2</ele>
        <time>2019-08-18T09:47:24Z</time>
      </trkpt>
      <trkpt lat="42.8223240" lon="-8.4876150">
        <ele>211.2</ele>
        <time>2019-08-18T09:47:25Z</time>
      </trkpt>
      <trkpt lat="42.8223740" lon="-8.4876330">
        <ele>211.2</ele>
        <time>2019-08-18T09:47:26Z</time>
      </trkpt>
      <trkpt lat="42.8224250" lon="-8.4876510">
        <ele>211.2</ele>
        <time>2019-08-18T09:47:27Z</time>
      </trkpt>
      <trkpt lat="42.8224770" lon="-8.4876670">
        <ele>211.2</ele>
        <time>2019-08-18T09:47:28Z</time>
      </trkpt>
      <trkpt lat="42.8225300" lon="-8.4876830">
        <ele>211.2</ele>
        <time>2019-08-18T09:47:29Z</time>
      </trkpt>
      <trkpt lat="42.8225820" lon="-8.4876980">
        <ele>211.1</ele>
        <time>2019-08-18T09:47:30Z</time>
      </trkpt>
      <trkpt lat="42.8226340" lon="-8.4877110">
        <ele>211.1</ele>
        <time>2019-08-18T09:47:31Z</time>
      </trkpt>
      <trkpt lat="42.8226860" lon="-8.4877240">
        <ele>211.0</ele>
        <time>2019-08-18T09:47:32Z</time>
      </trkpt>
      <trkpt lat="42.8227380" lon="-8.4877360">
        <ele>210.9</ele>
        <time>2019-08-18T09:47:33Z</time>
      </trkpt>
      <trkpt lat="42.8227910" lon="-8.4877480">
        <ele>210.8</ele>
        <time>2019-08-18T09:47:34Z</time>
      </trkpt>
      <trkpt lat="42.8228440" lon="-8.4877600">
        <ele>210.7</ele>
        <time>2019-08-18T09:47:35Z</time>
      </trkpt>
      <trkpt lat="42.8228970" lon="-8.4877720">
        <ele>210.6</ele>
        <time>2019-08-18T09:47:36Z</time>
      </trkpt>
      <trkpt lat="42.8229510" lon="-8.4877860">
        <ele>210.4</ele>
        <time>2019-08-18T09:47:37Z</time>
      </trkpt>
      <trkpt lat="42.8230050" lon="-8.4878000">
        <ele>210.4</ele>
        <time>2019-08-18T09:47:38Z</time>
      </trkpt>
      <trkpt lat="42.8230590" lon="-8.4878140">
        <ele>210.4</ele>
        <time>2019-08-18T09:47:39Z</time>
      </trkpt>
      <trkpt lat="42.8231140" lon="-8.4878290">
        <ele>210.5</ele>
        <time>2019-08-18T09:47:40Z</time>
      </trkpt>
      <trkpt lat="42.8231690" lon="-8.4878430">
        <ele>210.5</ele>
        <time>2019-08-18T09:47:41Z</time>
      </trkpt>
      <trkpt lat="42.8232250" lon="-8.4878580">
        <ele>210.6</ele>
        <time>2019-08-18T09:47:42Z</time>
      </trkpt>
      <trkpt lat="42.8232800" lon="-8.4878710">
        <ele>210.6</ele>
        <time>2019-08-18T09:47:43Z</time>
      </trkpt>
      <trkpt lat="42.8233350" lon="-8.4878850">
        <ele>210.7</ele>
        <time>2019-08-18T09:47:44Z</time>
      </trkpt>
      <trkpt lat="42.8233910" lon="-8.4878970">
        <ele>210.7</ele>
        <time>2019-08-18T09:47:45Z</time>
      </trkpt>
      <trkpt lat="42.8234460" lon="-8.4879090">
        <ele>210.8</ele>
        <time>2019-08-18T09:47:46Z</time>
      </trkpt>
      <trkpt lat="42.8235010" lon="-8.4879210">
        <ele>210.9</ele>
        <time>2019-08-18T09:47:47Z</time>
      </trkpt>
      <trkpt lat="42.8235550" lon="-8.4879320">
        <ele>210.9</ele>
        <time>2019-08-18T09:47:48Z</time>
      </trkpt>
      <trkpt lat="42.8236100" lon="-8.4879430">
        <ele>210.9</ele>
        <time>2019-08-18T09:47:49Z</time>
      </trkpt>
      <trkpt lat="42.8236640" lon="-8.4879540">
        <ele>211.0</ele>
        <time>2019-08-18T09:47:50Z</time>
      </trkpt>
      <trkpt lat="42.8237180" lon="-8.4879650">
        <ele>211.0</ele>
        <time>2019-08-18T09:47:51Z</time>
      </trkpt>
      <trkpt lat="42.8237710" lon="-8.4879770">
        <ele>211.0</ele>
        <time>2019-08-18T09:47:52Z</time>
      </trkpt>
      <trkpt lat="42.8238240" lon="-8.4879900">
        <ele>211.1</ele>
        <time>2019-08-18T09:47:53Z</time>
      </trkpt>
      <trkpt lat="42.8238770" lon="-8.4880020">
        <ele>211.1</ele>
        <time>2019-08-18T09:47:54Z</time>
      </trkpt>
      <trkpt lat="42.8239290" lon="-8.4880160">
        <ele>211.1</ele>
        <time>2019-08-18T09:47:55Z</time>
      </trkpt>
      <trkpt lat="42.8239810" lon="-8.4880290">
        <ele>211.2</ele>
        <time>2019-08-18T09:47:56Z</time>
      </trkpt>
      <trkpt lat="42.8240330" lon="-8.4880420">
        <ele>211.2</ele>
        <time>2019-08-18T09:47:57Z</time>
      </trkpt>
      <trkpt lat="42.8240840" lon="-8.4880560">
        <ele>211.3</ele>
        <time>2019-08-18T09:47:58Z</time>
      </trkpt>
      <trkpt lat="42.8241350" lon="-8.4880700">
        <ele>211.3</ele>
        <time>2019-08-18T09:47:59Z</time>
      </trkpt>
      <trkpt lat="42.8241850" lon="-8.4880830">
        <ele>211.3</ele>
        <time>2019-08-18T09:48:00Z</time>
      </trkpt>
      <trkpt lat="42.8242350" lon="-8.4880970">
        <ele>211.3</ele>
        <time>2019-08-18T09:48:01Z</time>
      </trkpt>
      <trkpt lat="42.8242840" lon="-8.4881100">
        <ele>211.4</ele>
        <time>2019-08-18T09:48:02Z</time>
      </trkpt>
      <trkpt lat="42.8243330" lon="-8.4881230">
        <ele>211.4</ele>
        <time>2019-08-18T09:48:03Z</time>
      </trkpt>
      <trkpt lat="42.8243820" lon="-8.4881360">
        <ele>211.4</ele>
        <time>2019-08-18T09:48:04Z</time>
      </trkpt>
      <trkpt lat="42.8244300" lon="-8.4881480">
        <ele>211.4</ele>
        <time>2019-08-18T09:48:05Z</time>
      </trkpt>
      <trkpt lat="42.8244770" lon="-8.4881600">
        <ele>211.5</ele>
        <time>2019-08-18T09:48:06Z</time>
      </trkpt>
      <trkpt lat="42.8245250" lon="-8.4881720">
        <ele>211.5</ele>
        <time>2019-08-18T09:48:07Z</time>
      </trkpt>
      <trkpt lat="42.8245710" lon="-8.4881830">
        <ele>211.6</ele>
        <time>2019-08-18T09:48:08Z</time>
      </trkpt>
      <trkpt lat="42.8246180" lon="-8.4881940">
        <ele>211.6</ele>
        <time>2019-08-18T09:48:09Z</time>
      </trkpt>
      <trkpt lat="42.8246640" lon="-8.4882040">
        <ele>211.7</ele>
        <time>2019-08-18T09:48:10Z</time>
      </trkpt>
      <trkpt lat="42.8247100" lon="-8.4882150">
        <ele>211.7</ele>
        <time>2019-08-18T09:48:11Z</time>
      </trkpt>
      <trkpt lat="42.8247560" lon="-8.4882250">
        <ele>211.8</ele>
        <time>2019-08-18T09:48:12Z</time>
      </trkpt>
      <trkpt lat="42.8248020" lon="-8.4882350">
        <ele>211.8</ele>
        <time>2019-08-18T09:48:13Z</time>
      </trkpt>
      <trkpt lat="42.8248480" lon="-8.4882460">
        <ele>211.8</ele>
        <time>2019-08-18T09:48:14Z</time>
      </trkpt>
      <trkpt lat="42.8248940" lon="-8.4882560">
        <ele>211.9</ele>
        <time>2019-08-18T09:48:15Z</time>
      </trkpt>
      <trkpt lat="42.8249400" lon="-8.4882660">
        <ele>211.9</ele>
        <time>2019-08-18T09:48:16Z</time>
      </trkpt>
      <trkpt lat="42.8249860" lon="-8.4882770">
        <ele>211.8</ele>
        <time>2019-08-18T09:48:17Z</time>
      </trkpt>
      <trkpt lat="42.8250330" lon="-8.4882880">
        <ele>211.7</ele>
        <time>2019-08-18T09:48:18Z</time>
      </trkpt>
      <trkpt lat="42.8250790" lon="-8.4882990">
        <ele>211.7</ele>
        <time>2019-08-18T09:48:19Z</time>
      </trkpt>
      <trkpt lat="42.8251270" lon="-8.4883100">
        <ele>211.6</ele>
        <time>2019-08-18T09:48:20Z</time>
      </trkpt>
      <trkpt lat="42.8251740" lon="-8.4883220">
        <ele>211.5</ele>
        <time>2019-08-18T09:48:21Z</time>
      </trkpt>
      <trkpt lat="42.8252220" lon="-8.4883340">
        <ele>211.5</ele>
        <time>2019-08-18T09:48:22Z</time>
      </trkpt>
      <trkpt lat="42.8252700" lon="-8.4883460">
        <ele>211.4</ele>
        <time>2019-08-18T09:48:23Z</time>
      </trkpt>
      <trkpt lat="42.8253180" lon="-8.4883580">
        <ele>211.3</ele>
        <time>2019-08-18T09:48:24Z</time>
      </trkpt>
      <trkpt lat="42.8253670" lon="-8.4883710">
        <ele>211.3</ele>
        <time>2019-08-18T09:48:25Z</time>
      </trkpt>
      <trkpt lat="42.8254150" lon="-8.4883840">
        <ele>211.2</ele>
        <time>2019-08-18T09:48:26Z</time>
      </trkpt>
      <trkpt lat="42.8254640" lon="-8.4883960">
        <ele>211.2</ele>
        <time>2019-08-18T09:48:27Z</time>
      </trkpt>
      <trkpt lat="42.8255120" lon="-8.4884090">
        <ele>211.1</ele>
        <time>2019-08-18T09:48:28Z</time>
      </trkpt>
      <trkpt lat="42.8255600" lon="-8.4884220">
        <ele>211.1</ele>
        <time>2019-08-18T09:48:29Z</time>
      </trkpt>
      <trkpt lat="42.8256070" lon="-8.4884350">
        <ele>211.0</ele>
        <time>2019-08-18T09:48:30Z</time>
      </trkpt>
      <trkpt lat="42.8256520" lon="-8.4884480">
        <ele>211.0</ele>
        <time>2019-08-18T09:48:31Z</time>
      </trkpt>
      <trkpt lat="42.8256960" lon="-8.4884620">
        <ele>211.0</ele>
        <time>2019-08-18T09:48:32Z</time>
      </trkpt>
      <trkpt lat="42.8257380" lon="-8.4884750">
        <ele>211.1</ele>
        <time>2019-08-18T09:48:33Z</time>
      </trkpt>
      <trkpt lat="42.8257820" lon="-8.4884870">
        <ele>211.2</ele>
        <time>2019-08-18T09:48:34Z</time>
      </trkpt>
      <trkpt lat="42.8258260" lon="-8.4884990">
        <ele>211.3</ele>
        <time>2019-08-18T09:48:35Z</time>
      </trkpt>
      <trkpt lat="42.8258720" lon="-8.4885100">
        <ele>211.4</ele>
        <time>2019-08-18T09:48:36Z</time>
      </trkpt>
      <trkpt lat="42.8259190" lon="-8.4885200">
        <ele>211.6</ele>
        <time>2019-08-18T09:48:37Z</time>
      </trkpt>
      <trkpt lat="42.8259670" lon="-8.4885300">
        <ele>211.7</ele>
        <time>2019-08-18T09:48:38Z</time>
      </trkpt>
      <trkpt lat="42.8260160" lon="-8.4885400">
        <ele>211.8</ele>
        <time>2019-08-18T09:48:39Z</time>
      </trkpt>
      <trkpt lat="42.8260650" lon="-8.4885500">
        <ele>211.8</ele>
        <time>2019-08-18T09:48:40Z</time>
      </trkpt>
      <trkpt lat="42.8261140" lon="-8.4885610">
        <ele>211.8</ele>
        <time>2019-08-18T09:48:41Z</time>
      </trkpt>
      <trkpt lat="42.8261620" lon="-8.4885710">
        <ele>211.8</ele>
        <time>2019-08-18T09:48:42Z</time>
      </trkpt>
      <trkpt lat="42.8262100" lon="-8.4885830">
        <ele>211.7</ele>
        <time>2019-08-18T09:48:43Z</time>
      </trkpt>
      <trkpt lat="42.8262580" lon="-8.4885950">
        <ele>211.7</ele>
        <time>2019-08-18T09:48:44Z</time>
      </trkpt>
      <trkpt lat="42.8263060" lon="-8.4886070">
        <ele>211.7</ele>
        <time>2019-08-18T09:48:45Z</time>
      </trkpt>
      <trkpt lat="42.8263540" lon="-8.4886200">
        <ele>211.7</ele>
        <time>2019-08-18T09:48:46Z</time>
      </trkpt>
      <trkpt lat="42.8264010" lon="-8.4886330">
        <ele>211.7</ele>
        <time>2019-08-18T09:48:47Z</time>
      </trkpt>
      <trkpt lat="42.8264490" lon="-8.4886460">
        <ele>211.7</ele>
        <time>2019-08-18T09:48:48Z</time>
      </trkpt>
      <trkpt lat="42.8264970" lon="-8.4886600">
        <ele>211.7</ele>
        <time>2019-08-18T09:48:49Z</time>
      </trkpt>
      <trkpt lat="42.8265460" lon="-8.4886730">
        <ele>211.7</ele>
        <time>2019-08-18T09:48:50Z</time>
      </trkpt>
      <trkpt lat="42.8265950" lon="-8.4886860">
        <ele>211.7</ele>
        <time>2019-08-18T09:48:51Z</time>
      </trkpt>
      <trkpt lat="42.8266450" lon="-8.4886990">
        <ele>211.7</ele>
        <time>2019-08-18T09:48:52Z</time>
      </trkpt>
      <trkpt lat="42.8266950" lon="-8.4887130">
        <ele>211.7</ele>
        <time>2019-08-18T09:48:53Z</time>
      </trkpt>
      <trkpt lat="42.8267450" lon="-8.4887260">
        <ele>211.6</ele>
        <time>2019-08-18T09:48:54Z</time>
      </trkpt>
      <trkpt lat="42.8267960" lon="-8.4887400">
        <ele>211.6</ele>
        <time>2019-08-18T09:48:55Z</time>
      </trkpt>
      <trkpt lat="42.8268470" lon="-8.4887540">
        <ele>211.6</ele>
        <time>2019-08-18T09:48:56Z</time>
      </trkpt>
      <trkpt lat="42.8268990" lon="-8.4887680">
        <ele>211.5</ele>
        <time>2019-08-18T09:48:57Z</time>
      </trkpt>
      <trkpt lat="42.8269500" lon="-8.4887830">
        <ele>211.5</ele>
        <time>2019-08-18T09:48:58Z</time>
      </trkpt>
      <trkpt lat="42.8270020" lon="-8.4887980">
        <ele>211.4</ele>
        <time>2019-08-18T09:48:59Z</time>
      </trkpt>
      <trkpt lat="42.8270540" lon="-8.4888130">
        <ele>211.4</ele>
        <time>2019-08-18T09:49:00Z</time>
      </trkpt>
      <trkpt lat="42.8271070" lon="-8.4888290">
        <ele>211.3</ele>
        <time>2019-08-18T09:49:01Z</time>
      </trkpt>
      <trkpt lat="42.8271590" lon="-8.4888450">
        <ele>211.2</ele>
        <time>2019-08-18T09:49:02Z</time>
      </trkpt>
      <trkpt lat="42.8272120" lon="-8.4888620">
        <ele>211.1</ele>
        <time>2019-08-18T09:49:03Z</time>
      </trkpt>
      <trkpt lat="42.8272640" lon="-8.4888790">
        <ele>210.9</ele>
        <time>2019-08-18T09:49:04Z</time>
      </trkpt>
      <trkpt lat="42.8273170" lon="-8.4888970">
        <ele>210.8</ele>
        <time>2019-08-18T09:49:05Z</time>
      </trkpt>
      <trkpt lat="42.8273700" lon="-8.4889150">
        <ele>210.4</ele>
        <time>2019-08-18T09:49:06Z</time>
      </trkpt>
      <trkpt lat="42.8274240" lon="-8.4889330">
        <ele>210.2</ele>
        <time>2019-08-18T09:49:07Z</time>
      </trkpt>
      <trkpt lat="42.8274780" lon="-8.4889510">
        <ele>209.9</ele>
        <time>2019-08-18T09:49:08Z</time>
      </trkpt>
      <trkpt lat="42.8275330" lon="-8.4889690">
        <ele>209.6</ele>
        <time>2019-08-18T09:49:09Z</time>
      </trkpt>
      <trkpt lat="42.8275890" lon="-8.4889870">
        <ele>209.2</ele>
        <time>2019-08-18T09:49:10Z</time>
      </trkpt>
      <trkpt lat="42.8276460" lon="-8.4890040">
        <ele>208.7</ele>
        <time>2019-08-18T09:49:11Z</time>
      </trkpt>
      <trkpt lat="42.8277040" lon="-8.4890210">
        <ele>208.0</ele>
        <time>2019-08-18T09:49:12Z</time>
      </trkpt>
      <trkpt lat="42.8277630" lon="-8.4890380">
        <ele>207.4</ele>
        <time>2019-08-18T09:49:13Z</time>
      </trkpt>
      <trkpt lat="42.8278230" lon="-8.4890550">
        <ele>207.0</ele>
        <time>2019-08-18T09:49:14Z</time>
      </trkpt>
      <trkpt lat="42.8278840" lon="-8.4890730">
        <ele>206.6</ele>
        <time>2019-08-18T09:49:15Z</time>
      </trkpt>
      <trkpt lat="42.8279460" lon="-8.4890940">
        <ele>206.2</ele>
        <time>2019-08-18T09:49:16Z</time>
      </trkpt>
      <trkpt lat="42.8280090" lon="-8.4891160">
        <ele>205.8</ele>
        <time>2019-08-18T09:49:17Z</time>
      </trkpt>
      <trkpt lat="42.8280720" lon="-8.4891420">
        <ele>205.4</ele>
        <time>2019-08-18T09:49:18Z</time>
      </trkpt>
      <trkpt lat="42.8281370" lon="-8.4891700">
        <ele>205.0</ele>
        <time>2019-08-18T09:49:19Z</time>
      </trkpt>
      <trkpt lat="42.8282010" lon="-8.4892030">
        <ele>204.6</ele>
        <time>2019-08-18T09:49:20Z</time>
      </trkpt>
      <trkpt lat="42.8282660" lon="-8.4892390">
        <ele>204.2</ele>
        <time>2019-08-18T09:49:21Z</time>
      </trkpt>
      <trkpt lat="42.8283320" lon="-8.4892790">
        <ele>203.8</ele>
        <time>2019-08-18T09:49:22Z</time>
      </trkpt>
      <trkpt lat="42.8283970" lon="-8.4893220">
        <ele>203.3</ele>
        <time>2019-08-18T09:49:23Z</time>
      </trkpt>
      <trkpt lat="42.8284630" lon="-8.4893690">
        <ele>202.6</ele>
        <time>2019-08-18T09:49:24Z</time>
      </trkpt>
      <trkpt lat="42.8285280" lon="-8.4894190">
        <ele>202.0</ele>
        <time>2019-08-18T09:49:25Z</time>
      </trkpt>
      <trkpt lat="42.8285930" lon="-8.4894740">
        <ele>201.6</ele>
        <time>2019-08-18T09:49:26Z</time>
      </trkpt>
      <trkpt lat="42.8286580" lon="-8.4895320">
        <ele>201.3</ele>
        <time>2019-08-18T09:49:27Z</time>
      </trkpt>
      <trkpt lat="42.8287220" lon="-8.4895930">
        <ele>200.9</ele>
        <time>2019-08-18T09:49:28Z</time>
      </trkpt>
      <trkpt lat="42.8287850" lon="-8.4896590">
        <ele>200.4</ele>
        <time>2019-08-18T09:49:29Z</time>
      </trkpt>
      <trkpt lat="42.8288470" lon="-8.4897290">
        <ele>199.7</ele>
        <time>2019-08-18T09:49:30Z</time>
      </trkpt>
      <trkpt lat="42.8289090" lon="-8.4898020">
        <ele>199.0</ele>
        <time>2019-08-18T09:49:31Z</time>
      </trkpt>
      <trkpt lat="42.8289690" lon="-8.4898790">
        <ele>198.3</ele>
        <time>2019-08-18T09:49:32Z</time>
      </trkpt>
      <trkpt lat="42.8290270" lon="-8.4899600">
        <ele>197.6</ele>
        <time>2019-08-18T09:49:33Z</time>
      </trkpt>
      <trkpt lat="42.8290850" lon="-8.4900450">
        <ele>197.0</ele>
        <time>2019-08-18T09:49:34Z</time>
      </trkpt>
      <trkpt lat="42.8291400" lon="-8.4901340">
        <ele>196.5</ele>
        <time>2019-08-18T09:49:35Z</time>
      </trkpt>
      <trkpt lat="42.8291940" lon="-8.4902270">
        <ele>196.0</ele>
        <time>2019-08-18T09:49:36Z</time>
      </trkpt>
      <trkpt lat="42.8292460" lon="-8.4903240">
        <ele>195.6</ele>
        <time>2019-08-18T09:49:37Z</time>
      </trkpt>
      <trkpt lat="42.8292950" lon="-8.4904250">
        <ele>195.3</ele>
        <time>2019-08-18T09:49:38Z</time>
      </trkpt>
      <trkpt lat="42.8293420" lon="-8.4905300">
        <ele>195.0</ele>
        <time>2019-08-18T09:49:39Z</time>
      </trkpt>
      <trkpt lat="42.8293860" lon="-8.4906380">
        <ele>195.0</ele>
        <time>2019-08-18T09:49:40Z</time>
      </trkpt>
      <trkpt lat="42.8294280" lon="-8.4907510">
        <ele>195.1</ele>
        <time>2019-08-18T09:49:41Z</time>
      </trkpt>
      <trkpt lat="42.8294660" lon="-8.4908680">
        <ele>195.5</ele>
        <time>2019-08-18T09:49:42Z</time>
      </trkpt>
      <trkpt lat="42.8294990" lon="-8.4909890">
        <ele>196.5</ele>
        <time>2019-08-18T09:49:43Z</time>
      </trkpt>
      <trkpt lat="42.8295320" lon="-8.4911100">
        <ele>197.5</ele>
        <time>2019-08-18T09:49:44Z</time>
      </trkpt>
      <trkpt lat="42.8295600" lon="-8.4912360">
        <ele>197.7</ele>
        <time>2019-08-18T09:49:45Z</time>
      </trkpt>
      <trkpt lat="42.8295840" lon="-8.4913630">
        <ele>198.0</ele>
        <time>2019-08-18T09:49:46Z</time>
      </trkpt>
      <trkpt lat="42.8296040" lon="-8.4914920">
        <ele>198.2</ele>
        <time>2019-08-18T09:49:47Z</time>
      </trkpt>
      <trkpt lat="42.8296200" lon="-8.4916220">
        <ele>198.4</ele>
        <time>2019-08-18T09:49:48Z</time>
      </trkpt>
      <trkpt lat="42.8296310" lon="-8.4917530">
        <ele>198.4</ele>
        <time>2019-08-18T09:49:49Z</time>
      </trkpt>
      <trkpt lat="42.8296390" lon="-8.4918830">
        <ele>197.9</ele>
        <time>2019-08-18T09:49:50Z</time>
      </trkpt>
      <trkpt lat="42.8296430" lon="-8.4920140">
        <ele>197.3</ele>
        <time>2019-08-18T09:49:51Z</time>
      </trkpt>
      <trkpt lat="42.8296450" lon="-8.4921450">
        <ele>196.6</ele>
        <time>2019-08-18T09:49:52Z</time>
      </trkpt>
      <trkpt lat="42.8296450" lon="-8.4922770">
        <ele>195.9</ele>
        <time>2019-08-18T09:49:53Z</time>
      </trkpt>
      <trkpt lat="42.8296430" lon="-8.4924080">
        <ele>195.3</ele>
        <time>2019-08-18T09:49:54Z</time>
      </trkpt>
      <trkpt lat="42.8296410" lon="-8.4925380">
        <ele>194.6</ele>
        <time>2019-08-18T09:49:55Z</time>
      </trkpt>
      <trkpt lat="42.8296390" lon="-8.4926680">
        <ele>194.0</ele>
        <time>2019-08-18T09:49:56Z</time>
      </trkpt>
      <trkpt lat="42.8296380" lon="-8.4927980">
        <ele>193.4</ele>
        <time>2019-08-18T09:49:57Z</time>
      </trkpt>
      <trkpt lat="42.8296370" lon="-8.4929280">
        <ele>192.8</ele>
        <time>2019-08-18T09:49:58Z</time>
      </trkpt>
      <trkpt lat="42.8296380" lon="-8.4930580">
        <ele>192.0</ele>
        <time>2019-08-18T09:49:59Z</time>
      </trkpt>
      <trkpt lat="42.8296410" lon="-8.4931880">
        <ele>191.2</ele>
        <time>2019-08-18T09:50:00Z</time>
      </trkpt>
      <trkpt lat="42.8296470" lon="-8.4933180">
        <ele>190.5</ele>
        <time>2019-08-18T09:50:01Z</time>
      </trkpt>
      <trkpt lat="42.8296560" lon="-8.4934480">
        <ele>189.8</ele>
        <time>2019-08-18T09:50:02Z</time>
      </trkpt>
      <trkpt lat="42.8296690" lon="-8.4935780">
        <ele>189.3</ele>
        <time>2019-08-18T09:50:03Z</time>
      </trkpt>
      <trkpt lat="42.8296860" lon="-8.4937080">
        <ele>189.0</ele>
        <time>2019-08-18T09:50:04Z</time>
      </trkpt>
      <trkpt lat="42.8297060" lon="-8.4938360">
        <ele>188.7</ele>
        <time>2019-08-18T09:50:05Z</time>
      </trkpt>
      <trkpt lat="42.8297300" lon="-8.4939620">
        <ele>188.3</ele>
        <time>2019-08-18T09:50:06Z</time>
      </trkpt>
      <trkpt lat="42.8297580" lon="-8.4940850">
        <ele>187.9</ele>
        <time>2019-08-18T09:50:07Z</time>
      </trkpt>
      <trkpt lat="42.8298110" lon="-8.4942810">
        <ele>187.3</ele>
        <time>2019-08-18T09:50:08Z</time>
      </trkpt>
      <trkpt lat="42.8298340" lon="-8.4943580">
        <ele>187.1</ele>
        <time>2019-08-18T09:50:09Z</time>
      </trkpt>
      <trkpt lat="42.8298560" lon="-8.4944350">
        <ele>186.9</ele>
        <time>2019-08-18T09:50:10Z</time>
      </trkpt>
      <trkpt lat="42.8298900" lon="-8.4945470">
        <ele>186.5</ele>
        <time>2019-08-18T09:50:11Z</time>
      </trkpt>
      <trkpt lat="42.8299240" lon="-8.4946570">
        <ele>186.2</ele>
        <time>2019-08-18T09:50:12Z</time>
      </trkpt>
      <trkpt lat="42.8299810" lon="-8.4948360">
        <ele>185.8</ele>
        <time>2019-08-18T09:50:13Z</time>
      </trkpt>
      <trkpt lat="42.8300040" lon="-8.4949070">
        <ele>185.6</ele>
        <time>2019-08-18T09:50:14Z</time>
      </trkpt>
      <trkpt lat="42.8300270" lon="-8.4949780">
        <ele>185.4</ele>
        <time>2019-08-18T09:50:15Z</time>
      </trkpt>
      <trkpt lat="42.8300610" lon="-8.4950830">
        <ele>185.1</ele>
        <time>2019-08-18T09:50:16Z</time>
      </trkpt>
      <trkpt lat="42.8300950" lon="-8.4951890">
        <ele>184.6</ele>
        <time>2019-08-18T09:50:17Z</time>
      </trkpt>
      <trkpt lat="42.8301290" lon="-8.4952960">
        <ele>184.3</ele>
        <time>2019-08-18T09:50:18Z</time>
      </trkpt>
      <trkpt lat="42.8301630" lon="-8.4954030">
        <ele>184.0</ele>
        <time>2019-08-18T09:50:19Z</time>
      </trkpt>
      <trkpt lat="42.8301950" lon="-8.4955120">
        <ele>183.7</ele>
        <time>2019-08-18T09:50:20Z</time>
      </trkpt>
      <trkpt lat="42.8302260" lon="-8.4956220">
        <ele>183.4</ele>
        <time>2019-08-18T09:50:21Z</time>
      </trkpt>
      <trkpt lat="42.8302550" lon="-8.4957340">
        <ele>183.2</ele>
        <time>2019-08-18T09:50:22Z</time>
      </trkpt>
      <trkpt lat="42.8302820" lon="-8.4958480">
        <ele>182.9</ele>
        <time>2019-08-18T09:50:23Z</time>
      </trkpt>
      <trkpt lat="42.8303050" lon="-8.4959640">
        <ele>182.5</ele>
        <time>2019-08-18T09:50:24Z</time>
      </trkpt>
      <trkpt lat="42.8303260" lon="-8.4960830">
        <ele>182.2</ele>
        <time>2019-08-18T09:50:25Z</time>
      </trkpt>
      <trkpt lat="42.8303430" lon="-8.4962050">
        <ele>181.8</ele>
        <time>2019-08-18T09:50:26Z</time>
      </trkpt>
      <trkpt lat="42.8303580" lon="-8.4963290">
        <ele>181.3</ele>
        <time>2019-08-18T09:50:27Z</time>
      </trkpt>
      <trkpt lat="42.8303700" lon="-8.4964550">
        <ele>180.9</ele>
        <time>2019-08-18T09:50:28Z</time>
      </trkpt>
      <trkpt lat="42.8303810" lon="-8.4965840">
        <ele>180.3</ele>
        <time>2019-08-18T09:50:29Z</time>
      </trkpt>
      <trkpt lat="42.8303900" lon="-8.4967150">
        <ele>179.8</ele>
        <time>2019-08-18T09:50:30Z</time>
      </trkpt>
      <trkpt lat="42.8303970" lon="-8.4968490">
        <ele>179.2</ele>
        <time>2019-08-18T09:50:31Z</time>
      </trkpt>
      <trkpt lat="42.8304040" lon="-8.4969840">
        <ele>178.6</ele>
        <time>2019-08-18T09:50:32Z</time>
      </trkpt>
      <trkpt lat="42.8304100" lon="-8.4971210">
        <ele>178.1</ele>
        <time>2019-08-18T09:50:33Z</time>
      </trkpt>
      <trkpt lat="42.8304160" lon="-8.4972580">
        <ele>177.6</ele>
        <time>2019-08-18T09:50:34Z</time>
      </trkpt>
      <trkpt lat="42.8304210" lon="-8.4973960">
        <ele>177.2</ele>
        <time>2019-08-18T09:50:35Z</time>
      </trkpt>
      <trkpt lat="42.8304270" lon="-8.4975330">
        <ele>176.7</ele>
        <time>2019-08-18T09:50:36Z</time>
      </trkpt>
      <trkpt lat="42.8304330" lon="-8.4976700">
        <ele>176.2</ele>
        <time>2019-08-18T09:50:37Z</time>
      </trkpt>
      <trkpt lat="42.8304400" lon="-8.4978050">
        <ele>175.6</ele>
        <time>2019-08-18T09:50:38Z</time>
      </trkpt>
      <trkpt lat="42.8304480" lon="-8.4979380">
        <ele>175.2</ele>
        <time>2019-08-18T09:50:39Z</time>
      </trkpt>
      <trkpt lat="42.8304570" lon="-8.4980680">
        <ele>174.8</ele>
        <time>2019-08-18T09:50:40Z</time>
      </trkpt>
      <trkpt lat="42.8304670" lon="-8.4981960">
        <ele>174.3</ele>
        <time>2019-08-18T09:50:41Z</time>
      </trkpt>
      <trkpt lat="42.8304770" lon="-8.4983200">
        <ele>173.7</ele>
        <time>2019-08-18T09:50:42Z</time>
      </trkpt>
      <trkpt lat="42.8304890" lon="-8.4984420">
        <ele>173.3</ele>
        <time>2019-08-18T09:50:43Z</time>
      </trkpt>
      <trkpt lat="42.8305010" lon="-8.4985600">
        <ele>172.8</ele>
        <time>2019-08-18T09:50:44Z</time>
      </trkpt>
      <trkpt lat="42.8305130" lon="-8.4986750">
        <ele>172.4</ele>
        <time>2019-08-18T09:50:45Z</time>
      </trkpt>
      <trkpt lat="42.8305250" lon="-8.4987860">
        <ele>172.1</ele>
        <time>2019-08-18T09:50:46Z</time>
      </trkpt>
      <trkpt lat="42.8305370" lon="-8.4988930">
        <ele>171.8</ele>
        <time>2019-08-18T09:50:47Z</time>
      </trkpt>
      <trkpt lat="42.8305490" lon="-8.4989980">
        <ele>171.5</ele>
        <time>2019-08-18T09:50:48Z</time>
      </trkpt>
      <trkpt lat="42.8305610" lon="-8.4990990">
        <ele>171.3</ele>
        <time>2019-08-18T09:50:49Z</time>
      </trkpt>
      <trkpt lat="42.8305720" lon="-8.4991980">
        <ele>171.1</ele>
        <time>2019-08-18T09:50:50Z</time>
      </trkpt>
      <trkpt lat="42.8305840" lon="-8.4992940">
        <ele>170.9</ele>
        <time>2019-08-18T09:50:51Z</time>
      </trkpt>
      <trkpt lat="42.8305950" lon="-8.4993890">
        <ele>170.8</ele>
        <time>2019-08-18T09:50:52Z</time>
      </trkpt>
      <trkpt lat="42.8306060" lon="-8.4994830">
        <ele>170.6</ele>
        <time>2019-08-18T09:50:53Z</time>
      </trkpt>
      <trkpt lat="42.8306170" lon="-8.4995750">
        <ele>170.5</ele>
        <time>2019-08-18T09:50:54Z</time>
      </trkpt>
      <trkpt lat="42.8306270" lon="-8.4996670">
        <ele>170.4</ele>
        <time>2019-08-18T09:50:55Z</time>
      </trkpt>
      <trkpt lat="42.8306380" lon="-8.4997570">
        <ele>170.3</ele>
        <time>2019-08-18T09:50:56Z</time>
      </trkpt>
      <trkpt lat="42.8306480" lon="-8.4998470">
        <ele>170.2</ele>
        <time>2019-08-18T09:50:57Z</time>
      </trkpt>
      <trkpt lat="42.8306590" lon="-8.4999350">
        <ele>170.1</ele>
        <time>2019-08-18T09:50:58Z</time>
      </trkpt>
      <trkpt lat="42.8306690" lon="-8.5000210">
        <ele>170.1</ele>
        <time>2019-08-18T09:50:59Z</time>
      </trkpt>
      <trkpt lat="42.8306790" lon="-8.5001060">
        <ele>170.0</ele>
        <time>2019-08-18T09:51:00Z</time>
      </trkpt>
      <trkpt lat="42.8306890" lon="-8.5001890">
        <ele>169.9</ele>
        <time>2019-08-18T09:51:01Z</time>
      </trkpt>
      <trkpt lat="42.8307000" lon="-8.5002700">
        <ele>169.9</ele>
        <time>2019-08-18T09:51:02Z</time>
      </trkpt>
      <trkpt lat="42.8307100" lon="-8.5003500">
        <ele>169.8</ele>
        <time>2019-08-18T09:51:03Z</time>
      </trkpt>
      <trkpt lat="42.8307200" lon="-8.5004290">
        <ele>169.8</ele>
        <time>2019-08-18T09:51:04Z</time>
      </trkpt>
      <trkpt lat="42.8307310" lon="-8.5005070">
        <ele>169.7</ele>
        <time>2019-08-18T09:51:05Z</time>
      </trkpt>
      <trkpt lat="42.8307420" lon="-8.5005830">
        <ele>169.6</ele>
        <time>2019-08-18T09:51:06Z</time>
      </trkpt>
      <trkpt lat="42.8307530" lon="-8.5006590">
        <ele>169.6</ele>
        <time>2019-08-18T09:51:07Z</time>
      </trkpt>
      <trkpt lat="42.8307640" lon="-8.5007340">
        <ele>169.5</ele>
        <time>2019-08-18T09:51:08Z</time>
      </trkpt>
      <trkpt lat="42.8307750" lon="-8.5008090">
        <ele>169.5</ele>
        <time>2019-08-18T09:51:09Z</time>
      </trkpt>
      <trkpt lat="42.8307870" lon="-8.5008840">
        <ele>169.5</ele>
        <time>2019-08-18T09:51:10Z</time>
      </trkpt>
      <trkpt lat="42.8307990" lon="-8.5009580">
        <ele>169.5</ele>
        <time>2019-08-18T09:51:11Z</time>
      </trkpt>
      <trkpt lat="42.8308110" lon="-8.5010320">
        <ele>169.5</ele>
        <time>2019-08-18T09:51:12Z</time>
      </trkpt>
      <trkpt lat="42.8308240" lon="-8.5011050">
        <ele>169.5</ele>
        <time>2019-08-18T09:51:13Z</time>
      </trkpt>
      <trkpt lat="42.8308370" lon="-8.5011790">
        <ele>169.5</ele>
        <time>2019-08-18T09:51:14Z</time>
      </trkpt>
      <trkpt lat="42.8308510" lon="-8.5012530">
        <ele>169.5</ele>
        <time>2019-08-18T09:51:15Z</time>
      </trkpt>
      <trkpt lat="42.8308650" lon="-8.5013270">
        <ele>169.5</ele>
        <time>2019-08-18T09:51:16Z</time>
      </trkpt>
      <trkpt lat="42.8308800" lon="-8.5014010">
        <ele>169.5</ele>
        <time>2019-08-18T09:51:17Z</time>
      </trkpt>
      <trkpt lat="42.8308940" lon="-8.5014760">
        <ele>169.6</ele>
        <time>2019-08-18T09:51:18Z</time>
      </trkpt>
      <trkpt lat="42.8309100" lon="-8.5015500">
        <ele>169.6</ele>
        <time>2019-08-18T09:51:19Z</time>
      </trkpt>
      <trkpt lat="42.8309250" lon="-8.5016240">
        <ele>169.7</ele>
        <time>2019-08-18T09:51:20Z</time>
      </trkpt>
      <trkpt lat="42.8309410" lon="-8.5016970">
        <ele>169.7</ele>
        <time>2019-08-18T09:51:21Z</time>
      </trkpt>
      <trkpt lat="42.8309560" lon="-8.5017710">
        <ele>169.8</ele>
        <time>2019-08-18T09:51:22Z</time>
      </trkpt>
      <trkpt lat="42.8309720" lon="-8.5018440">
        <ele>169.8</ele>
        <time>2019-08-18T09:51:23Z</time>
      </trkpt>
      <trkpt lat="42.8309880" lon="-8.5019160">
        <ele>169.9</ele>
        <time>2019-08-18T09:51:24Z</time>
      </trkpt>
      <trkpt lat="42.8310050" lon="-8.5019880">
        <ele>169.9</ele>
        <time>2019-08-18T09:51:25Z</time>
      </trkpt>
      <trkpt lat="42.8310210" lon="-8.5020610">
        <ele>170.0</ele>
        <time>2019-08-18T09:51:26Z</time>
      </trkpt>
      <trkpt lat="42.8310370" lon="-8.5021330">
        <ele>170.0</ele>
        <time>2019-08-18T09:51:27Z</time>
      </trkpt>
      <trkpt lat="42.8310530" lon="-8.5022050">
        <ele>170.1</ele>
        <time>2019-08-18T09:51:28Z</time>
      </trkpt>
      <trkpt lat="42.8310700" lon="-8.5022790">
        <ele>170.1</ele>
        <time>2019-08-18T09:51:29Z</time>
      </trkpt>
      <trkpt lat="42.8310860" lon="-8.5023530">
        <ele>170.2</ele>
        <time>2019-08-18T09:51:30Z</time>
      </trkpt>
      <trkpt lat="42.8311030" lon="-8.5024280">
        <ele>170.2</ele>
        <time>2019-08-18T09:51:31Z</time>
      </trkpt>
      <trkpt lat="42.8311200" lon="-8.5025030">
        <ele>170.3</ele>
        <time>2019-08-18T09:51:32Z</time>
      </trkpt>
      <trkpt lat="42.8311370" lon="-8.5025800">
        <ele>170.4</ele>
        <time>2019-08-18T09:51:33Z</time>
      </trkpt>
      <trkpt lat="42.8311540" lon="-8.5026560">
        <ele>170.4</ele>
        <time>2019-08-18T09:51:34Z</time>
      </trkpt>
      <trkpt lat="42.8311710" lon="-8.5027330">
        <ele>170.5</ele>
        <time>2019-08-18T09:51:35Z</time>
      </trkpt>
      <trkpt lat="42.8311880" lon="-8.5028100">
        <ele>170.5</ele>
        <time>2019-08-18T09:51:36Z</time>
      </trkpt>
      <trkpt lat="42.8312050" lon="-8.5028860">
        <ele>170.5</ele>
        <time>2019-08-18T09:51:37Z</time>
      </trkpt>
      <trkpt lat="42.8312220" lon="-8.5029620">
        <ele>170.6</ele>
        <time>2019-08-18T09:51:38Z</time>
      </trkpt>
      <trkpt lat="42.8312390" lon="-8.5030370">
        <ele>170.6</ele>
        <time>2019-08-18T09:51:39Z</time>
      </trkpt>
      <trkpt lat="42.8312560" lon="-8.5031110">
        <ele>170.6</ele>
        <time>2019-08-18T09:51:40Z</time>
      </trkpt>
      <trkpt lat="42.8312730" lon="-8.5031850">
        <ele>170.7</ele>
        <time>2019-08-18T09:51:41Z</time>
      </trkpt>
      <trkpt lat="42.8312900" lon="-8.5032580">
        <ele>170.7</ele>
        <time>2019-08-18T09:51:42Z</time>
      </trkpt>
      <trkpt lat="42.8313070" lon="-8.5033300">
        <ele>170.7</ele>
        <time>2019-08-18T09:51:43Z</time>
      </trkpt>
      <trkpt lat="42.8313230" lon="-8.5034020">
        <ele>170.7</ele>
        <time>2019-08-18T09:51:44Z</time>
      </trkpt>
      <trkpt lat="42.8313390" lon="-8.5034730">
        <ele>170.8</ele>
        <time>2019-08-18T09:51:45Z</time>
      </trkpt>
      <trkpt lat="42.8313560" lon="-8.5035430">
        <ele>170.8</ele>
        <time>2019-08-18T09:51:46Z</time>
      </trkpt>
      <trkpt lat="42.8313720" lon="-8.5036140">
        <ele>170.8</ele>
        <time>2019-08-18T09:51:47Z</time>
      </trkpt>
      <trkpt lat="42.8313870" lon="-8.5036840">
        <ele>170.9</ele>
        <time>2019-08-18T09:51:48Z</time>
      </trkpt>
      <trkpt lat="42.8314030" lon="-8.5037530">
        <ele>170.9</ele>
        <time>2019-08-18T09:51:49Z</time>
      </trkpt>
      <trkpt lat="42.8314190" lon="-8.5038230">
        <ele>170.9</ele>
        <time>2019-08-18T09:51:50Z</time>
      </trkpt>
      <trkpt lat="42.8314340" lon="-8.5038930">
        <ele>170.9</ele>
        <time>2019-08-18T09:51:51Z</time>
      </trkpt>
      <trkpt lat="42.8314490" lon="-8.5039620">
        <ele>171.0</ele>
        <time>2019-08-18T09:51:52Z</time>
      </trkpt>
      <trkpt lat="42.8314650" lon="-8.5040320">
        <ele>171.0</ele>
        <time>2019-08-18T09:51:53Z</time>
      </trkpt>
      <trkpt lat="42.8314800" lon="-8.5041020">
        <ele>171.0</ele>
        <time>2019-08-18T09:51:54Z</time>
      </trkpt>
      <trkpt lat="42.8314960" lon="-8.5041730">
        <ele>171.0</ele>
        <time>2019-08-18T09:51:55Z</time>
      </trkpt>
      <trkpt lat="42.8315110" lon="-8.5042430">
        <ele>171.0</ele>
        <time>2019-08-18T09:51:56Z</time>
      </trkpt>
      <trkpt lat="42.8315280" lon="-8.5043130">
        <ele>171.0</ele>
        <time>2019-08-18T09:51:57Z</time>
      </trkpt>
      <trkpt lat="42.8315440" lon="-8.5043840">
        <ele>171.0</ele>
        <time>2019-08-18T09:51:58Z</time>
      </trkpt>
      <trkpt lat="42.8315620" lon="-8.5044540">
        <ele>171.0</ele>
        <time>2019-08-18T09:51:59Z</time>
      </trkpt>
      <trkpt lat="42.8315800" lon="-8.5045250">
        <ele>171.1</ele>
        <time>2019-08-18T09:52:00Z</time>
      </trkpt>
      <trkpt lat="42.8315980" lon="-8.5045950">
        <ele>171.1</ele>
        <time>2019-08-18T09:52:01Z</time>
      </trkpt>
      <trkpt lat="42.8316180" lon="-8.5046650">
        <ele>171.1</ele>
        <time>2019-08-18T09:52:02Z</time>
      </trkpt>
      <trkpt lat="42.8316380" lon="-8.5047360">
        <ele>171.1</ele>
        <time>2019-08-18T09:52:03Z</time>
      </trkpt>
      <trkpt lat="42.8316590" lon="-8.5048050">
        <ele>171.1</ele>
        <time>2019-08-18T09:52:04Z</time>
      </trkpt>
      <trkpt lat="42.8316810" lon="-8.5048750">
        <ele>171.1</ele>
        <time>2019-08-18T09:52:05Z</time>
      </trkpt>
      <trkpt lat="42.8317040" lon="-8.5049440">
        <ele>171.2</ele>
        <time>2019-08-18T09:52:06Z</time>
      </trkpt>
      <trkpt lat="42.8317280" lon="-8.5050130">
        <ele>171.2</ele>
        <time>2019-08-18T09:52:07Z</time>
      </trkpt>
      <trkpt lat="42.8317520" lon="-8.5050810">
        <ele>171.2</ele>
        <time>2019-08-18T09:52:08Z</time>
      </trkpt>
      <trkpt lat="42.8317780" lon="-8.5051480">
        <ele>171.2</ele>
        <time>2019-08-18T09:52:09Z</time>
      </trkpt>
      <trkpt lat="42.8318040" lon="-8.5052150">
        <ele>171.2</ele>
        <time>2019-08-18T09:52:10Z</time>
      </trkpt>
      <trkpt lat="42.8318310" lon="-8.5052810">
        <ele>171.2</ele>
        <time>2019-08-18T09:52:11Z</time>
      </trkpt>
      <trkpt lat="42.8318590" lon="-8.5053470">
        <ele>171.2</ele>
        <time>2019-08-18T09:52:12Z</time>
      </trkpt>
      <trkpt lat="42.8318880" lon="-8.5054110">
        <ele>171.2</ele>
        <time>2019-08-18T09:52:13Z</time>
      </trkpt>
      <trkpt lat="42.8319190" lon="-8.5054740">
        <ele>171.2</ele>
        <time>2019-08-18T09:52:14Z</time>
      </trkpt>
      <trkpt lat="42.8319500" lon="-8.5055370">
        <ele>171.2</ele>
        <time>2019-08-18T09:52:15Z</time>
      </trkpt>
      <trkpt lat="42.8319820" lon="-8.5055990">
        <ele>171.2</ele>
        <time>2019-08-18T09:52:16Z</time>
      </trkpt>
      <trkpt lat="42.8320140" lon="-8.5056600">
        <ele>171.2</ele>
        <time>2019-08-18T09:52:17Z</time>
      </trkpt>
      <trkpt lat="42.8320480" lon="-8.5057200">
        <ele>171.3</ele>
        <time>2019-08-18T09:52:18Z</time>
      </trkpt>
      <trkpt lat="42.8320820" lon="-8.5057790">
        <ele>171.3</ele>
        <time>2019-08-18T09:52:19Z</time>
      </trkpt>
      <trkpt lat="42.8321170" lon="-8.5058390">
        <ele>171.4</ele>
        <time>2019-08-18T09:52:20Z</time>
      </trkpt>
      <trkpt lat="42.8321520" lon="-8.5058970">
        <ele>171.4</ele>
        <time>2019-08-18T09:52:21Z</time>
      </trkpt>
      <trkpt lat="42.8321870" lon="-8.5059560">
        <ele>171.4</ele>
        <time>2019-08-18T09:52:22Z</time>
      </trkpt>
      <trkpt lat="42.8322230" lon="-8.5060140">
        <ele>171.4</ele>
        <time>2019-08-18T09:52:23Z</time>
      </trkpt>
      <trkpt lat="42.8322590" lon="-8.5060730">
        <ele>171.4</ele>
        <time>2019-08-18T09:52:24Z</time>
      </trkpt>
      <trkpt lat="42.8322950" lon="-8.5061310">
        <ele>171.4</ele>
        <time>2019-08-18T09:52:25Z</time>
      </trkpt>
      <trkpt lat="42.8323320" lon="-8.5061890">
        <ele>171.4</ele>
        <time>2019-08-18T09:52:26Z</time>
      </trkpt>
      <trkpt lat="42.8323690" lon="-8.5062470">
        <ele>171.4</ele>
        <time>2019-08-18T09:52:27Z</time>
      </trkpt>
      <trkpt lat="42.8324060" lon="-8.5063060">
        <ele>171.4</ele>
        <time>2019-08-18T09:52:28Z</time>
      </trkpt>
      <trkpt lat="42.8324430" lon="-8.5063640">
        <ele>171.3</ele>
        <time>2019-08-18T09:52:29Z</time>
      </trkpt>
      <trkpt lat="42.8324810" lon="-8.5064230">
        <ele>171.3</ele>
        <time>2019-08-18T09:52:30Z</time>
      </trkpt>
      <trkpt lat="42.8325190" lon="-8.5064810">
        <ele>171.3</ele>
        <time>2019-08-18T09:52:31Z</time>
      </trkpt>
      <trkpt lat="42.8325580" lon="-8.5065400">
        <ele>171.2</ele>
        <time>2019-08-18T09:52:32Z</time>
      </trkpt>
      <trkpt lat="42.8325970" lon="-8.5065990">
        <ele>171.1</ele>
        <time>2019-08-18T09:52:33Z</time>
      </trkpt>
      <trkpt lat="42.8326370" lon="-8.5066580">
        <ele>171.1</ele>
        <time>2019-08-18T09:52:34Z</time>
      </trkpt>
      <trkpt lat="42.8326770" lon="-8.5067170">
        <ele>171.0</ele>
        <time>2019-08-18T09:52:35Z</time>
      </trkpt>
      <trkpt lat="42.8327190" lon="-8.5067760">
        <ele>170.9</ele>
        <time>2019-08-18T09:52:36Z</time>
      </trkpt>
      <trkpt lat="42.8327610" lon="-8.5068340">
        <ele>170.8</ele>
        <time>2019-08-18T09:52:37Z</time>
      </trkpt>
      <trkpt lat="42.8328040" lon="-8.5068930">
        <ele>170.7</ele>
        <time>2019-08-18T09:52:38Z</time>
      </trkpt>
      <trkpt lat="42.8328470" lon="-8.5069510">
        <ele>170.6</ele>
        <time>2019-08-18T09:52:39Z</time>
      </trkpt>
      <trkpt lat="42.8328900" lon="-8.5070100">
        <ele>170.5</ele>
        <time>2019-08-18T09:52:40Z</time>
      </trkpt>
      <trkpt lat="42.8329320" lon="-8.5070680">
        <ele>170.3</ele>
        <time>2019-08-18T09:52:41Z</time>
      </trkpt>
      <trkpt lat="42.8329730" lon="-8.5071270">
        <ele>170.1</ele>
        <time>2019-08-18T09:52:42Z</time>
      </trkpt>
      <trkpt lat="42.8330130" lon="-8.5071860">
        <ele>169.9</ele>
        <time>2019-08-18T09:52:43Z</time>
      </trkpt>
      <trkpt lat="42.8330510" lon="-8.5072440">
        <ele>169.8</ele>
        <time>2019-08-18T09:52:44Z</time>
      </trkpt>
      <trkpt lat="42.8330870" lon="-8.5073030">
        <ele>169.8</ele>
        <time>2019-08-18T09:52:45Z</time>
      </trkpt>
      <trkpt lat="42.8331210" lon="-8.5073630">
        <ele>169.8</ele>
        <time>2019-08-18T09:52:46Z</time>
      </trkpt>
      <trkpt lat="42.8331540" lon="-8.5074230">
        <ele>169.8</ele>
        <time>2019-08-18T09:52:47Z</time>
      </trkpt>
      <trkpt lat="42.8331850" lon="-8.5074840">
        <ele>169.8</ele>
        <time>2019-08-18T09:52:48Z</time>
      </trkpt>
      <trkpt lat="42.8332150" lon="-8.5075460">
        <ele>169.9</ele>
        <time>2019-08-18T09:52:49Z</time>
      </trkpt>
      <trkpt lat="42.8332450" lon="-8.5076090">
        <ele>169.9</ele>
        <time>2019-08-18T09:52:50Z</time>
      </trkpt>
      <trkpt lat="42.8332760" lon="-8.5076730">
        <ele>170.0</ele>
        <time>2019-08-18T09:52:51Z</time>
      </trkpt>
      <trkpt lat="42.8333070" lon="-8.5077390">
        <ele>170.1</ele>
        <time>2019-08-18T09:52:52Z</time>
      </trkpt>
      <trkpt lat="42.8333390" lon="-8.5078060">
        <ele>170.2</ele>
        <time>2019-08-18T09:52:53Z</time>
      </trkpt>
      <trkpt lat="42.8333710" lon="-8.5078740">
        <ele>170.3</ele>
        <time>2019-08-18T09:52:54Z</time>
      </trkpt>
      <trkpt lat="42.8334030" lon="-8.5079440">
        <ele>170.4</ele>
        <time>2019-08-18T09:52:55Z</time>
      </trkpt>
      <trkpt lat="42.8334340" lon="-8.5080150">
        <ele>170.5</ele>
        <time>2019-08-18T09:52:56Z</time>
      </trkpt>
      <trkpt lat="42.8334640" lon="-8.5080880">
        <ele>170.6</ele>
        <time>2019-08-18T09:52:57Z</time>
      </trkpt>
      <trkpt lat="42.8334920" lon="-8.5081620">
        <ele>170.7</ele>
        <time>2019-08-18T09:52:58Z</time>
      </trkpt>
      <trkpt lat="42.8335200" lon="-8.5082380">
        <ele>170.7</ele>
        <time>2019-08-18T09:52:59Z</time>
      </trkpt>
      <trkpt lat="42.8335460" lon="-8.5083150">
        <ele>170.7</ele>
        <time>2019-08-18T09:53:00Z</time>
      </trkpt>
      <trkpt lat="42.8335720" lon="-8.5083920">
        <ele>170.7</ele>
        <time>2019-08-18T09:53:01Z</time>
      </trkpt>
      <trkpt lat="42.8335970" lon="-8.5084700">
        <ele>170.8</ele>
        <time>2019-08-18T09:53:02Z</time>
      </trkpt>
      <trkpt lat="42.8336220" lon="-8.5085470">
        <ele>170.8</ele>
        <time>2019-08-18T09:53:03Z</time>
      </trkpt>
      <trkpt lat="42.8336470" lon="-8.5086230">
        <ele>170.8</ele>
        <time>2019-08-18T09:53:04Z</time>
      </trkpt>
      <trkpt lat="42.8336710" lon="-8.5086980">
        <ele>170.8</ele>
        <time>2019-08-18T09:53:05Z</time>
      </trkpt>
      <trkpt lat="42.8336960" lon="-8.5087720">
        <ele>170.9</ele>
        <time>2019-08-18T09:53:06Z</time>
      </trkpt>
      <trkpt lat="42.8337220" lon="-8.5088450">
        <ele>171.0</ele>
        <time>2019-08-18T09:53:07Z</time>
      </trkpt>
      <trkpt lat="42.8337480" lon="-8.5089160">
        <ele>171.0</ele>
        <time>2019-08-18T09:53:08Z</time>
      </trkpt>
      <trkpt lat="42.8337760" lon="-8.5089870">
        <ele>171.0</ele>
        <time>2019-08-18T09:53:09Z</time>
      </trkpt>
      <trkpt lat="42.8338040" lon="-8.5090570">
        <ele>171.1</ele>
        <time>2019-08-18T09:53:10Z</time>
      </trkpt>
      <trkpt lat="42.8338340" lon="-8.5091260">
        <ele>171.0</ele>
        <time>2019-08-18T09:53:11Z</time>
      </trkpt>
      <trkpt lat="42.8338660" lon="-8.5091950">
        <ele>171.0</ele>
        <time>2019-08-18T09:53:12Z</time>
      </trkpt>
      <trkpt lat="42.8338990" lon="-8.5092640">
        <ele>171.0</ele>
        <time>2019-08-18T09:53:13Z</time>
      </trkpt>
      <trkpt lat="42.8339340" lon="-8.5093320">
        <ele>171.0</ele>
        <time>2019-08-18T09:53:14Z</time>
      </trkpt>
      <trkpt lat="42.8339710" lon="-8.5094000">
        <ele>171.0</ele>
        <time>2019-08-18T09:53:15Z</time>
      </trkpt>
      <trkpt lat="42.8340090" lon="-8.5094670">
        <ele>171.0</ele>
        <time>2019-08-18T09:53:16Z</time>
      </trkpt>
      <trkpt lat="42.8340480" lon="-8.5095330">
        <ele>171.0</ele>
        <time>2019-08-18T09:53:17Z</time>
      </trkpt>
      <trkpt lat="42.8340880" lon="-8.5095970">
        <ele>171.1</ele>
        <time>2019-08-18T09:53:18Z</time>
      </trkpt>
      <trkpt lat="42.8341300" lon="-8.5096590">
        <ele>171.1</ele>
        <time>2019-08-18T09:53:19Z</time>
      </trkpt>
      <trkpt lat="42.8341720" lon="-8.5097190">
        <ele>171.1</ele>
        <time>2019-08-18T09:53:20Z</time>
      </trkpt>
      <trkpt lat="42.8342150" lon="-8.5097770">
        <ele>171.1</ele>
        <time>2019-08-18T09:53:21Z</time>
      </trkpt>
      <trkpt lat="42.8342590" lon="-8.5098330">
        <ele>171.0</ele>
        <time>2019-08-18T09:53:22Z</time>
      </trkpt>
      <trkpt lat="42.8343030" lon="-8.5098870">
        <ele>170.9</ele>
        <time>2019-08-18T09:53:23Z</time>
      </trkpt>
      <trkpt lat="42.8343470" lon="-8.5099400">
        <ele>170.8</ele>
        <time>2019-08-18T09:53:24Z</time>
      </trkpt>
      <trkpt lat="42.8343910" lon="-8.5099930">
        <ele>170.7</ele>
        <time>2019-08-18T09:53:25Z</time>
      </trkpt>
      <trkpt lat="42.8344350" lon="-8.5100450">
        <ele>170.7</ele>
        <time>2019-08-18T09:53:26Z</time>
      </trkpt>
      <trkpt lat="42.8344790" lon="-8.5100970">
        <ele>170.6</ele>
        <time>2019-08-18T09:53:27Z</time>
      </trkpt>
      <trkpt lat="42.8345230" lon="-8.5101500">
        <ele>170.5</ele>
        <time>2019-08-18T09:53:28Z</time>
      </trkpt>
      <trkpt lat="42.8345670" lon="-8.5102030">
        <ele>170.4</ele>
        <time>2019-08-18T09:53:29Z</time>
      </trkpt>
      <trkpt lat="42.8346110" lon="-8.5102560">
        <ele>170.3</ele>
        <time>2019-08-18T09:53:30Z</time>
      </trkpt>
      <trkpt lat="42.8346550" lon="-8.5103090">
        <ele>170.2</ele>
        <time>2019-08-18T09:53:31Z</time>
      </trkpt>
      <trkpt lat="42.8346990" lon="-8.5103620">
        <ele>170.2</ele>
        <time>2019-08-18T09:53:32Z</time>
      </trkpt>
      <trkpt lat="42.8347440" lon="-8.5104140">
        <ele>170.1</ele>
        <time>2019-08-18T09:53:33Z</time>
      </trkpt>
      <trkpt lat="42.8347890" lon="-8.5104660">
        <ele>170.0</ele>
        <time>2019-08-18T09:53:34Z</time>
      </trkpt>
      <trkpt lat="42.8348360" lon="-8.5105170">
        <ele>169.9</ele>
        <time>2019-08-18T09:53:35Z</time>
      </trkpt>
      <trkpt lat="42.8348830" lon="-8.5105680">
        <ele>169.8</ele>
        <time>2019-08-18T09:53:36Z</time>
      </trkpt>
      <trkpt lat="42.8349310" lon="-8.5106180">
        <ele>169.7</ele>
        <time>2019-08-18T09:53:37Z</time>
      </trkpt>
      <trkpt lat="42.8349780" lon="-8.5106680">
        <ele>169.6</ele>
        <time>2019-08-18T09:53:38Z</time>
      </trkpt>
      <trkpt lat="42.8350250" lon="-8.5107190">
        <ele>169.5</ele>
        <time>2019-08-18T09:53:39Z</time>
      </trkpt>
      <trkpt lat="42.8350690" lon="-8.5107710">
        <ele>169.5</ele>
        <time>2019-08-18T09:53:40Z</time>
      </trkpt>
      <trkpt lat="42.8351130" lon="-8.5108250">
        <ele>169.4</ele>
        <time>2019-08-18T09:53:41Z</time>
      </trkpt>
      <trkpt lat="42.8351560" lon="-8.5108790">
        <ele>169.4</ele>
        <time>2019-08-18T09:53:42Z</time>
      </trkpt>
      <trkpt lat="42.8351990" lon="-8.5109340">
        <ele>169.3</ele>
        <time>2019-08-18T09:53:43Z</time>
      </trkpt>
      <trkpt lat="42.8352420" lon="-8.5109880">
        <ele>169.3</ele>
        <time>2019-08-18T09:53:44Z</time>
      </trkpt>
      <trkpt lat="42.8352850" lon="-8.5110430">
        <ele>169.1</ele>
        <time>2019-08-18T09:53:45Z</time>
      </trkpt>
      <trkpt lat="42.8353290" lon="-8.5110970">
        <ele>169.0</ele>
        <time>2019-08-18T09:53:46Z</time>
      </trkpt>
      <trkpt lat="42.8353720" lon="-8.5111510">
        <ele>168.8</ele>
        <time>2019-08-18T09:53:47Z</time>
      </trkpt>
      <trkpt lat="42.8354150" lon="-8.5112040">
        <ele>168.6</ele>
        <time>2019-08-18T09:53:48Z</time>
      </trkpt>
      <trkpt lat="42.8354590" lon="-8.5112560">
        <ele>168.4</ele>
        <time>2019-08-18T09:53:49Z</time>
      </trkpt>
      <trkpt lat="42.8355030" lon="-8.5113080">
        <ele>168.2</ele>
        <time>2019-08-18T09:53:50Z</time>
      </trkpt>
      <trkpt lat="42.8355460" lon="-8.5113580">
        <ele>168.0</ele>
        <time>2019-08-18T09:53:51Z</time>
      </trkpt>
      <trkpt lat="42.8355900" lon="-8.5114080">
        <ele>167.8</ele>
        <time>2019-08-18T09:53:52Z</time>
      </trkpt>
      <trkpt lat="42.8356340" lon="-8.5114580">
        <ele>167.5</ele>
        <time>2019-08-18T09:53:53Z</time>
      </trkpt>
      <trkpt lat="42.8356790" lon="-8.5115090">
        <ele>167.3</ele>
        <time>2019-08-18T09:53:54Z</time>
      </trkpt>
      <trkpt lat="42.8357240" lon="-8.5115590">
        <ele>167.1</ele>
        <time>2019-08-18T09:53:55Z</time>
      </trkpt>
      <trkpt lat="42.8357690" lon="-8.5116110">
        <ele>166.8</ele>
        <time>2019-08-18T09:53:56Z</time>
      </trkpt>
      <trkpt lat="42.8358140" lon="-8.5116630">
        <ele>166.6</ele>
        <time>2019-08-18T09:53:57Z</time>
      </trkpt>
      <trkpt lat="42.8358600" lon="-8.5117160">
        <ele>166.3</ele>
        <time>2019-08-18T09:53:58Z</time>
      </trkpt>
      <trkpt lat="42.8359060" lon="-8.5117700">
        <ele>166.1</ele>
        <time>2019-08-18T09:53:59Z</time>
      </trkpt>
      <trkpt lat="42.8359520" lon="-8.5118250">
        <ele>165.8</ele>
        <time>2019-08-18T09:54:00Z</time>
      </trkpt>
      <trkpt lat="42.8359980" lon="-8.5118790">
        <ele>165.5</ele>
        <time>2019-08-18T09:54:01Z</time>
      </trkpt>
      <trkpt lat="42.8360450" lon="-8.5119340">
        <ele>165.2</ele>
        <time>2019-08-18T09:54:02Z</time>
      </trkpt>
      <trkpt lat="42.8360920" lon="-8.5119890">
        <ele>164.9</ele>
        <time>2019-08-18T09:54:03Z</time>
      </trkpt>
      <trkpt lat="42.8361380" lon="-8.5120430">
        <ele>164.6</ele>
        <time>2019-08-18T09:54:04Z</time>
      </trkpt>
      <trkpt lat="42.8361850" lon="-8.5120970">
        <ele>164.3</ele>
        <time>2019-08-18T09:54:05Z</time>
      </trkpt>
      <trkpt lat="42.8362320" lon="-8.5121500">
        <ele>164.0</ele>
        <time>2019-08-18T09:54:06Z</time>
      </trkpt>
      <trkpt lat="42.8362790" lon="-8.5122030">
        <ele>163.8</ele>
        <time>2019-08-18T09:54:07Z</time>
      </trkpt>
      <trkpt lat="42.8363270" lon="-8.5122560">
        <ele>163.5</ele>
        <time>2019-08-18T09:54:08Z</time>
      </trkpt>
      <trkpt lat="42.8363750" lon="-8.5123090">
        <ele>163.2</ele>
        <time>2019-08-18T09:54:09Z</time>
      </trkpt>
      <trkpt lat="42.8364250" lon="-8.5123610">
        <ele>162.8</ele>
        <time>2019-08-18T09:54:10Z</time>
      </trkpt>
      <trkpt lat="42.8364760" lon="-8.5124140">
        <ele>162.5</ele>
        <time>2019-08-18T09:54:11Z</time>
      </trkpt>
      <trkpt lat="42.8365290" lon="-8.5124670">
        <ele>162.1</ele>
        <time>2019-08-18T09:54:12Z</time>
      </trkpt>
      <trkpt lat="42.8365830" lon="-8.5125190">
        <ele>161.8</ele>
        <time>2019-08-18T09:54:13Z</time>
      </trkpt>
      <trkpt lat="42.8366380" lon="-8.5125700">
        <ele>161.5</ele>
        <time>2019-08-18T09:54:14Z</time>
      </trkpt>
      <trkpt lat="42.8366960" lon="-8.5126210">
        <ele>161.3</ele>
        <time>2019-08-18T09:54:15Z</time>
      </trkpt>
      <trkpt lat="42.8367550" lon="-8.5126690">
        <ele>161.0</ele>
        <time>2019-08-18T09:54:16Z</time>
      </trkpt>
      <trkpt lat="42.8368170" lon="-8.5127150">
        <ele>160.7</ele>
        <time>2019-08-18T09:54:17Z</time>
      </trkpt>
      <trkpt lat="42.8368800" lon="-8.5127590">
        <ele>160.4</ele>
        <time>2019-08-18T09:54:18Z</time>
      </trkpt>
      <trkpt lat="42.8369460" lon="-8.5128000">
        <ele>160.0</ele>
        <time>2019-08-18T09:54:19Z</time>
      </trkpt>
      <trkpt lat="42.8370140" lon="-8.5128380">
        <ele>159.6</ele>
        <time>2019-08-18T09:54:20Z</time>
      </trkpt>
      <trkpt lat="42.8370840" lon="-8.5128720">
        <ele>159.1</ele>
        <time>2019-08-18T09:54:21Z</time>
      </trkpt>
      <trkpt lat="42.8371560" lon="-8.5129030">
        <ele>158.6</ele>
        <time>2019-08-18T09:54:22Z</time>
      </trkpt>
      <trkpt lat="42.8372290" lon="-8.5129310">
        <ele>158.2</ele>
        <time>2019-08-18T09:54:23Z</time>
      </trkpt>
      <trkpt lat="42.8373040" lon="-8.5129550">
        <ele>157.7</ele>
        <time>2019-08-18T09:54:24Z</time>
      </trkpt>
      <trkpt lat="42.8373790" lon="-8.5129750">
        <ele>157.4</ele>
        <time>2019-08-18T09:54:25Z</time>
      </trkpt>
      <trkpt lat="42.8374560" lon="-8.5129910">
        <ele>157.0</ele>
        <time>2019-08-18T09:54:26Z</time>
      </trkpt>
      <trkpt lat="42.8375330" lon="-8.5130050">
        <ele>156.7</ele>
        <time>2019-08-18T09:54:27Z</time>
      </trkpt>
      <trkpt lat="42.8376100" lon="-8.5130160">
        <ele>156.4</ele>
        <time>2019-08-18T09:54:28Z</time>
      </trkpt>
      <trkpt lat="42.8376870" lon="-8.5130260">
        <ele>156.1</ele>
        <time>2019-08-18T09:54:29Z</time>
      </trkpt>
      <trkpt lat="42.8377640" lon="-8.5130350">
        <ele>155.8</ele>
        <time>2019-08-18T09:54:30Z</time>
      </trkpt>
      <trkpt lat="42.8378400" lon="-8.5130430">
        <ele>155.5</ele>
        <time>2019-08-18T09:54:31Z</time>
      </trkpt>
      <trkpt lat="42.8379150" lon="-8.5130520">
        <ele>155.2</ele>
        <time>2019-08-18T09:54:32Z</time>
      </trkpt>
      <trkpt lat="42.8379910" lon="-8.5130590">
        <ele>155.0</ele>
        <time>2019-08-18T09:54:33Z</time>
      </trkpt>
      <trkpt lat="42.8380660" lon="-8.5130660">
        <ele>154.9</ele>
        <time>2019-08-18T09:54:34Z</time>
      </trkpt>
      <trkpt lat="42.8381410" lon="-8.5130720">
        <ele>154.7</ele>
        <time>2019-08-18T09:54:35Z</time>
      </trkpt>
      <trkpt lat="42.8382160" lon="-8.5130780">
        <ele>154.6</ele>
        <time>2019-08-18T09:54:36Z</time>
      </trkpt>
      <trkpt lat="42.8382900" lon="-8.5130840">
        <ele>154.4</ele>
        <time>2019-08-18T09:54:37Z</time>
      </trkpt>
      <trkpt lat="42.8383630" lon="-8.5130900">
        <ele>154.2</ele>
        <time>2019-08-18T09:54:38Z</time>
      </trkpt>
      <trkpt lat="42.8384350" lon="-8.5130960">
        <ele>154.1</ele>
        <time>2019-08-18T09:54:39Z</time>
      </trkpt>
      <trkpt lat="42.8385070" lon="-8.5131040">
        <ele>153.9</ele>
        <time>2019-08-18T09:54:40Z</time>
      </trkpt>
      <trkpt lat="42.8385780" lon="-8.5131130">
        <ele>153.8</ele>
        <time>2019-08-18T09:54:41Z</time>
      </trkpt>
      <trkpt lat="42.8386480" lon="-8.5131250">
        <ele>153.7</ele>
        <time>2019-08-18T09:54:42Z</time>
      </trkpt>
      <trkpt lat="42.8387180" lon="-8.5131380">
        <ele>153.7</ele>
        <time>2019-08-18T09:54:43Z</time>
      </trkpt>
      <trkpt lat="42.8387870" lon="-8.5131540">
        <ele>153.6</ele>
        <time>2019-08-18T09:54:44Z</time>
      </trkpt>
      <trkpt lat="42.8388560" lon="-8.5131730">
        <ele>153.5</ele>
        <time>2019-08-18T09:54:45Z</time>
      </trkpt>
      <trkpt lat="42.8389250" lon="-8.5131940">
        <ele>153.4</ele>
        <time>2019-08-18T09:54:46Z</time>
      </trkpt>
      <trkpt lat="42.8389930" lon="-8.5132170">
        <ele>153.4</ele>
        <time>2019-08-18T09:54:47Z</time>
      </trkpt>
      <trkpt lat="42.8390600" lon="-8.5132430">
        <ele>153.3</ele>
        <time>2019-08-18T09:54:48Z</time>
      </trkpt>
      <trkpt lat="42.8391270" lon="-8.5132720">
        <ele>153.2</ele>
        <time>2019-08-18T09:54:49Z</time>
      </trkpt>
      <trkpt lat="42.8391940" lon="-8.5133030">
        <ele>153.1</ele>
        <time>2019-08-18T09:54:50Z</time>
      </trkpt>
      <trkpt lat="42.8392590" lon="-8.5133370">
        <ele>153.0</ele>
        <time>2019-08-18T09:54:51Z</time>
      </trkpt>
      <trkpt lat="42.8393250" lon="-8.5133720">
        <ele>152.9</ele>
        <time>2019-08-18T09:54:52Z</time>
      </trkpt>
      <trkpt lat="42.8393890" lon="-8.5134100">
        <ele>152.8</ele>
        <time>2019-08-18T09:54:53Z</time>
      </trkpt>
      <trkpt lat="42.8394530" lon="-8.5134490">
        <ele>152.6</ele>
        <time>2019-08-18T09:54:54Z</time>
      </trkpt>
      <trkpt lat="42.8395160" lon="-8.5134910">
        <ele>152.5</ele>
        <time>2019-08-18T09:54:55Z</time>
      </trkpt>
      <trkpt lat="42.8395780" lon="-8.5135340">
        <ele>152.3</ele>
        <time>2019-08-18T09:54:56Z</time>
      </trkpt>
      <trkpt lat="42.8396390" lon="-8.5135790">
        <ele>152.1</ele>
        <time>2019-08-18T09:54:57Z</time>
      </trkpt>
      <trkpt lat="42.8396990" lon="-8.5136270">
        <ele>151.7</ele>
        <time>2019-08-18T09:54:58Z</time>
      </trkpt>
      <trkpt lat="42.8397580" lon="-8.5136760">
        <ele>151.5</ele>
        <time>2019-08-18T09:54:59Z</time>
      </trkpt>
      <trkpt lat="42.8398170" lon="-8.5137270">
        <ele>151.4</ele>
        <time>2019-08-18T09:55:00Z</time>
      </trkpt>
      <trkpt lat="42.8398740" lon="-8.5137810">
        <ele>151.2</ele>
        <time>2019-08-18T09:55:01Z</time>
      </trkpt>
      <trkpt lat="42.8399310" lon="-8.5138370">
        <ele>151.0</ele>
        <time>2019-08-18T09:55:02Z</time>
      </trkpt>
      <trkpt lat="42.8399860" lon="-8.5138950">
        <ele>150.8</ele>
        <time>2019-08-18T09:55:03Z</time>
      </trkpt>
      <trkpt lat="42.8400410" lon="-8.5139550">
        <ele>150.7</ele>
        <time>2019-08-18T09:55:04Z</time>
      </trkpt>
      <trkpt lat="42.8400950" lon="-8.5140180">
        <ele>150.5</ele>
        <time>2019-08-18T09:55:05Z</time>
      </trkpt>
      <trkpt lat="42.8401470" lon="-8.5140830">
        <ele>150.4</ele>
        <time>2019-08-18T09:55:06Z</time>
      </trkpt>
      <trkpt lat="42.8401990" lon="-8.5141500">
        <ele>150.2</ele>
        <time>2019-08-18T09:55:07Z</time>
      </trkpt>
      <trkpt lat="42.8402490" lon="-8.5142200">
        <ele>150.1</ele>
        <time>2019-08-18T09:55:08Z</time>
      </trkpt>
      <trkpt lat="42.8402980" lon="-8.5142910">
        <ele>150.0</ele>
        <time>2019-08-18T09:55:09Z</time>
      </trkpt>
      <trkpt lat="42.8403470" lon="-8.5143660">
        <ele>149.9</ele>
        <time>2019-08-18T09:55:10Z</time>
      </trkpt>
      <trkpt lat="42.8403940" lon="-8.5144420">
        <ele>149.8</ele>
        <time>2019-08-18T09:55:11Z</time>
      </trkpt>
      <trkpt lat="42.8404400" lon="-8.5145190">
        <ele>149.6</ele>
        <time>2019-08-18T09:55:12Z</time>
      </trkpt>
      <trkpt lat="42.8404850" lon="-8.5145990">
        <ele>149.5</ele>
        <time>2019-08-18T09:55:13Z</time>
      </trkpt>
      <trkpt lat="42.8405280" lon="-8.5146790">
        <ele>149.4</ele>
        <time>2019-08-18T09:55:14Z</time>
      </trkpt>
      <trkpt lat="42.8405700" lon="-8.5147600">
        <ele>149.2</ele>
        <time>2019-08-18T09:55:15Z</time>
      </trkpt>
      <trkpt lat="42.8406110" lon="-8.5148420">
        <ele>149.0</ele>
        <time>2019-08-18T09:55:16Z</time>
      </trkpt>
      <trkpt lat="42.8406510" lon="-8.5149240">
        <ele>148.9</ele>
        <time>2019-08-18T09:55:17Z</time>
      </trkpt>
      <trkpt lat="42.8406890" lon="-8.5150060">
        <ele>148.7</ele>
        <time>2019-08-18T09:55:18Z</time>
      </trkpt>
      <trkpt lat="42.8407260" lon="-8.5150890">
        <ele>148.6</ele>
        <time>2019-08-18T09:55:19Z</time>
      </trkpt>
      <trkpt lat="42.8407620" lon="-8.5151720">
        <ele>148.4</ele>
        <time>2019-08-18T09:55:20Z</time>
      </trkpt>
      <trkpt lat="42.8407980" lon="-8.5152570">
        <ele>148.2</ele>
        <time>2019-08-18T09:55:21Z</time>
      </trkpt>
      <trkpt lat="42.8408330" lon="-8.5153430">
        <ele>148.1</ele>
        <time>2019-08-18T09:55:22Z</time>
      </trkpt>
      <trkpt lat="42.8408670" lon="-8.5154300">
        <ele>148.0</ele>
        <time>2019-08-18T09:55:23Z</time>
      </trkpt>
      <trkpt lat="42.8409020" lon="-8.5155180">
        <ele>147.8</ele>
        <time>2019-08-18T09:55:24Z</time>
      </trkpt>
      <trkpt lat="42.8409370" lon="-8.5156070">
        <ele>147.7</ele>
        <time>2019-08-18T09:55:25Z</time>
      </trkpt>
      <trkpt lat="42.8409710" lon="-8.5156950">
        <ele>147.6</ele>
        <time>2019-08-18T09:55:26Z</time>
      </trkpt>
      <trkpt lat="42.8410060" lon="-8.5157840">
        <ele>147.5</ele>
        <time>2019-08-18T09:55:27Z</time>
      </trkpt>
      <trkpt lat="42.8410420" lon="-8.5158720">
        <ele>147.3</ele>
        <time>2019-08-18T09:55:28Z</time>
      </trkpt>
      <trkpt lat="42.8410770" lon="-8.5159610">
        <ele>147.3</ele>
        <time>2019-08-18T09:55:29Z</time>
      </trkpt>
      <trkpt lat="42.8411120" lon="-8.5160490">
        <ele>147.2</ele>
        <time>2019-08-18T09:55:30Z</time>
      </trkpt>
      <trkpt lat="42.8411470" lon="-8.5161380">
        <ele>147.0</ele>
        <time>2019-08-18T09:55:31Z</time>
      </trkpt>
      <trkpt lat="42.8411820" lon="-8.5162260">
        <ele>146.7</ele>
        <time>2019-08-18T09:55:32Z</time>
      </trkpt>
      <trkpt lat="42.8412180" lon="-8.5163150">
        <ele>146.4</ele>
        <time>2019-08-18T09:55:33Z</time>
      </trkpt>
      <trkpt lat="42.8412530" lon="-8.5164030">
        <ele>146.2</ele>
        <time>2019-08-18T09:55:34Z</time>
      </trkpt>
      <trkpt lat="42.8412880" lon="-8.5164910">
        <ele>145.9</ele>
        <time>2019-08-18T09:55:35Z</time>
      </trkpt>
      <trkpt lat="42.8413240" lon="-8.5165790">
        <ele>145.7</ele>
        <time>2019-08-18T09:55:36Z</time>
      </trkpt>
      <trkpt lat="42.8413600" lon="-8.5166680">
        <ele>145.4</ele>
        <time>2019-08-18T09:55:37Z</time>
      </trkpt>
      <trkpt lat="42.8413960" lon="-8.5167570">
        <ele>145.0</ele>
        <time>2019-08-18T09:55:38Z</time>
      </trkpt>
      <trkpt lat="42.8414330" lon="-8.5168460">
        <ele>144.6</ele>
        <time>2019-08-18T09:55:39Z</time>
      </trkpt>
      <trkpt lat="42.8414700" lon="-8.5169350">
        <ele>144.3</ele>
        <time>2019-08-18T09:55:40Z</time>
      </trkpt>
      <trkpt lat="42.8415070" lon="-8.5170260">
        <ele>143.9</ele>
        <time>2019-08-18T09:55:41Z</time>
      </trkpt>
      <trkpt lat="42.8415460" lon="-8.5171160">
        <ele>143.6</ele>
        <time>2019-08-18T09:55:42Z</time>
      </trkpt>
      <trkpt lat="42.8415840" lon="-8.5172070">
        <ele>143.2</ele>
        <time>2019-08-18T09:55:43Z</time>
      </trkpt>
      <trkpt lat="42.8416230" lon="-8.5172980">
        <ele>142.9</ele>
        <time>2019-08-18T09:55:44Z</time>
      </trkpt>
      <trkpt lat="42.8416630" lon="-8.5173890">
        <ele>142.5</ele>
        <time>2019-08-18T09:55:45Z</time>
      </trkpt>
      <trkpt lat="42.8417030" lon="-8.5174810">
        <ele>142.2</ele>
        <time>2019-08-18T09:55:46Z</time>
      </trkpt>
      <trkpt lat="42.8417440" lon="-8.5175720">
        <ele>141.8</ele>
        <time>2019-08-18T09:55:47Z</time>
      </trkpt>
      <trkpt lat="42.8417850" lon="-8.5176640">
        <ele>141.4</ele>
        <time>2019-08-18T09:55:48Z</time>
      </trkpt>
      <trkpt lat="42.8418270" lon="-8.5177560">
        <ele>141.0</ele>
        <time>2019-08-18T09:55:49Z</time>
      </trkpt>
      <trkpt lat="42.8418690" lon="-8.5178470">
        <ele>140.5</ele>
        <time>2019-08-18T09:55:50Z</time>
      </trkpt>
      <trkpt lat="42.8419120" lon="-8.5179390">
        <ele>140.1</ele>
        <time>2019-08-18T09:55:51Z</time>
      </trkpt>
      <trkpt lat="42.8419550" lon="-8.5180310">
        <ele>139.7</ele>
        <time>2019-08-18T09:55:52Z</time>
      </trkpt>
      <trkpt lat="42.8419990" lon="-8.5181220">
        <ele>139.2</ele>
        <time>2019-08-18T09:55:53Z</time>
      </trkpt>
      <trkpt lat="42.8420430" lon="-8.5182140">
        <ele>138.8</ele>
        <time>2019-08-18T09:55:54Z</time>
      </trkpt>
      <trkpt lat="42.8420890" lon="-8.5183050">
        <ele>138.4</ele>
        <time>2019-08-18T09:55:55Z</time>
      </trkpt>
      <trkpt lat="42.8421350" lon="-8.5183960">
        <ele>138.2</ele>
        <time>2019-08-18T09:55:56Z</time>
      </trkpt>
      <trkpt lat="42.8421830" lon="-8.5184860">
        <ele>138.1</ele>
        <time>2019-08-18T09:55:57Z</time>
      </trkpt>
      <trkpt lat="42.8422320" lon="-8.5185770">
        <ele>137.9</ele>
        <time>2019-08-18T09:55:58Z</time>
      </trkpt>
      <trkpt lat="42.8422830" lon="-8.5186670">
        <ele>137.8</ele>
        <time>2019-08-18T09:55:59Z</time>
      </trkpt>
      <trkpt lat="42.8423330" lon="-8.5187570">
        <ele>137.7</ele>
        <time>2019-08-18T09:56:00Z</time>
      </trkpt>
      <trkpt lat="42.8423830" lon="-8.5188470">
        <ele>137.6</ele>
        <time>2019-08-18T09:56:01Z</time>
      </trkpt>
      <trkpt lat="42.8424310" lon="-8.5189380">
        <ele>137.5</ele>
        <time>2019-08-18T09:56:02Z</time>
      </trkpt>
      <trkpt lat="42.8424780" lon="-8.5190280">
        <ele>136.8</ele>
        <time>2019-08-18T09:56:03Z</time>
      </trkpt>
      <trkpt lat="42.8425240" lon="-8.5191190">
        <ele>136.4</ele>
        <time>2019-08-18T09:56:04Z</time>
      </trkpt>
      <trkpt lat="42.8425690" lon="-8.5192100">
        <ele>136.1</ele>
        <time>2019-08-18T09:56:05Z</time>
      </trkpt>
      <trkpt lat="42.8426140" lon="-8.5193020">
        <ele>135.8</ele>
        <time>2019-08-18T09:56:06Z</time>
      </trkpt>
      <trkpt lat="42.8426570" lon="-8.5193940">
        <ele>135.4</ele>
        <time>2019-08-18T09:56:07Z</time>
      </trkpt>
      <trkpt lat="42.8427010" lon="-8.5194870">
        <ele>135.1</ele>
        <time>2019-08-18T09:56:08Z</time>
      </trkpt>
      <trkpt lat="42.8427450" lon="-8.5195800">
        <ele>134.8</ele>
        <time>2019-08-18T09:56:09Z</time>
      </trkpt>
      <trkpt lat="42.8427880" lon="-8.5196750">
        <ele>134.3</ele>
        <time>2019-08-18T09:56:10Z</time>
      </trkpt>
      <trkpt lat="42.8428310" lon="-8.5197700">
        <ele>133.8</ele>
        <time>2019-08-18T09:56:11Z</time>
      </trkpt>
      <trkpt lat="42.8428730" lon="-8.5198670">
        <ele>133.2</ele>
        <time>2019-08-18T09:56:12Z</time>
      </trkpt>
      <trkpt lat="42.8429140" lon="-8.5199650">
        <ele>132.7</ele>
        <time>2019-08-18T09:56:13Z</time>
      </trkpt>
      <trkpt lat="42.8429550" lon="-8.5200640">
        <ele>132.1</ele>
        <time>2019-08-18T09:56:14Z</time>
      </trkpt>
      <trkpt lat="42.8429940" lon="-8.5201650">
        <ele>131.6</ele>
        <time>2019-08-18T09:56:15Z</time>
      </trkpt>
      <trkpt lat="42.8430320" lon="-8.5202670">
        <ele>131.1</ele>
        <time>2019-08-18T09:56:16Z</time>
      </trkpt>
      <trkpt lat="42.8430680" lon="-8.5203710">
        <ele>130.6</ele>
        <time>2019-08-18T09:56:17Z</time>
      </trkpt>
      <trkpt lat="42.8431040" lon="-8.5204770">
        <ele>130.1</ele>
        <time>2019-08-18T09:56:18Z</time>
      </trkpt>
      <trkpt lat="42.8431380" lon="-8.5205850">
        <ele>129.5</ele>
        <time>2019-08-18T09:56:19Z</time>
      </trkpt>
      <trkpt lat="42.8431720" lon="-8.5206950">
        <ele>129.1</ele>
        <time>2019-08-18T09:56:20Z</time>
      </trkpt>
      <trkpt lat="42.8432060" lon="-8.5208070">
        <ele>128.6</ele>
        <time>2019-08-18T09:56:21Z</time>
      </trkpt>
      <trkpt lat="42.8432390" lon="-8.5209220">
        <ele>128.1</ele>
        <time>2019-08-18T09:56:22Z</time>
      </trkpt>
      <trkpt lat="42.8432720" lon="-8.5210390">
        <ele>127.6</ele>
        <time>2019-08-18T09:56:23Z</time>
      </trkpt>
      <trkpt lat="42.8433050" lon="-8.5211580">
        <ele>127.1</ele>
        <time>2019-08-18T09:56:24Z</time>
      </trkpt>
      <trkpt lat="42.8433390" lon="-8.5212770">
        <ele>126.5</ele>
        <time>2019-08-18T09:56:25Z</time>
      </trkpt>
      <trkpt lat="42.8433740" lon="-8.5213980">
        <ele>125.9</ele>
        <time>2019-08-18T09:56:26Z</time>
      </trkpt>
      <trkpt lat="42.8434100" lon="-8.5215180">
        <ele>125.3</ele>
        <time>2019-08-18T09:56:27Z</time>
      </trkpt>
      <trkpt lat="42.8434470" lon="-8.5216370">
        <ele>124.7</ele>
        <time>2019-08-18T09:56:28Z</time>
      </trkpt>
      <trkpt lat="42.8434840" lon="-8.5217540">
        <ele>124.2</ele>
        <time>2019-08-18T09:56:29Z</time>
      </trkpt>
      <trkpt lat="42.8435210" lon="-8.5218690">
        <ele>123.7</ele>
        <time>2019-08-18T09:56:30Z</time>
      </trkpt>
      <trkpt lat="42.8435570" lon="-8.5219810">
        <ele>123.3</ele>
        <time>2019-08-18T09:56:31Z</time>
      </trkpt>
      <trkpt lat="42.8435920" lon="-8.5220900">
        <ele>122.9</ele>
        <time>2019-08-18T09:56:32Z</time>
      </trkpt>
      <trkpt lat="42.8436250" lon="-8.5221960">
        <ele>122.6</ele>
        <time>2019-08-18T09:56:33Z</time>
      </trkpt>
      <trkpt lat="42.8436570" lon="-8.5222980">
        <ele>122.4</ele>
        <time>2019-08-18T09:56:34Z</time>
      </trkpt>
      <trkpt lat="42.8436890" lon="-8.5223980">
        <ele>122.2</ele>
        <time>2019-08-18T09:56:35Z</time>
      </trkpt>
      <trkpt lat="42.8437190" lon="-8.5224940">
        <ele>122.1</ele>
        <time>2019-08-18T09:56:36Z</time>
      </trkpt>
      <trkpt lat="42.8437480" lon="-8.5225870">
        <ele>122.0</ele>
        <time>2019-08-18T09:56:37Z</time>
      </trkpt>
      <trkpt lat="42.8437760" lon="-8.5226770">
        <ele>121.9</ele>
        <time>2019-08-18T09:56:38Z</time>
      </trkpt>
      <trkpt lat="42.8438030" lon="-8.5227640">
        <ele>121.8</ele>
        <time>2019-08-18T09:56:39Z</time>
      </trkpt>
      <trkpt lat="42.8438310" lon="-8.5228470">
        <ele>121.8</ele>
        <time>2019-08-18T09:56:40Z</time>
      </trkpt>
      <trkpt lat="42.8438600" lon="-8.5229270">
        <ele>121.7</ele>
        <time>2019-08-18T09:56:41Z</time>
      </trkpt>
      <trkpt lat="42.8438910" lon="-8.5230030">
        <ele>121.7</ele>
        <time>2019-08-18T09:56:42Z</time>
      </trkpt>
      <trkpt lat="42.8439240" lon="-8.5230740">
        <ele>121.7</ele>
        <time>2019-08-18T09:56:43Z</time>
      </trkpt>
      <trkpt lat="42.8439620" lon="-8.5231370">
        <ele>121.6</ele>
        <time>2019-08-18T09:56:44Z</time>
      </trkpt>
      <trkpt lat="42.8440040" lon="-8.5231910">
        <ele>121.6</ele>
        <time>2019-08-18T09:56:45Z</time>
      </trkpt>
      <trkpt lat="42.8440500" lon="-8.5232380">
        <ele>121.6</ele>
        <time>2019-08-18T09:56:46Z</time>
      </trkpt>
      <trkpt lat="42.8440960" lon="-8.5232800">
        <ele>121.6</ele>
        <time>2019-08-18T09:56:47Z</time>
      </trkpt>
      <trkpt lat="42.8441430" lon="-8.5233210">
        <ele>121.8</ele>
        <time>2019-08-18T09:56:48Z</time>
      </trkpt>
      <trkpt lat="42.8441870" lon="-8.5233630">
        <ele>121.9</ele>
        <time>2019-08-18T09:56:49Z</time>
      </trkpt>
      <trkpt lat="42.8442260" lon="-8.5234080">
        <ele>122.1</ele>
        <time>2019-08-18T09:56:50Z</time>
      </trkpt>
      <trkpt lat="42.8442600" lon="-8.5234590">
        <ele>122.3</ele>
        <time>2019-08-18T09:56:51Z</time>
      </trkpt>
      <trkpt lat="42.8442860" lon="-8.5235180">
        <ele>122.6</ele>
        <time>2019-08-18T09:56:52Z</time>
      </trkpt>
      <trkpt lat="42.8443060" lon="-8.5235840">
        <ele>122.9</ele>
        <time>2019-08-18T09:56:53Z</time>
      </trkpt>
      <trkpt lat="42.8443250" lon="-8.5236520">
        <ele>123.0</ele>
        <time>2019-08-18T09:56:54Z</time>
      </trkpt>
      <trkpt lat="42.8443430" lon="-8.5237210">
        <ele>123.4</ele>
        <time>2019-08-18T09:56:55Z</time>
      </trkpt>
      <trkpt lat="42.8443640" lon="-8.5237870">
        <ele>123.9</ele>
        <time>2019-08-18T09:56:56Z</time>
      </trkpt>
      <trkpt lat="42.8443880" lon="-8.5238520">
        <ele>124.4</ele>
        <time>2019-08-18T09:56:57Z</time>
      </trkpt>
      <trkpt lat="42.8444140" lon="-8.5239130">
        <ele>124.8</ele>
        <time>2019-08-18T09:56:58Z</time>
      </trkpt>
      <trkpt lat="42.8444420" lon="-8.5239720">
        <ele>125.2</ele>
        <time>2019-08-18T09:56:59Z</time>
      </trkpt>
      <trkpt lat="42.8444710" lon="-8.5240280">
        <ele>125.5</ele>
        <time>2019-08-18T09:57:00Z</time>
      </trkpt>
      <trkpt lat="42.8445000" lon="-8.5240800">
        <ele>125.9</ele>
        <time>2019-08-18T09:57:01Z</time>
      </trkpt>
      <trkpt lat="42.8445280" lon="-8.5241270">
        <ele>126.2</ele>
        <time>2019-08-18T09:57:02Z</time>
      </trkpt>
      <trkpt lat="42.8445530" lon="-8.5241680">
        <ele>126.5</ele>
        <time>2019-08-18T09:57:03Z</time>
      </trkpt>
      <trkpt lat="42.8445750" lon="-8.5242040">
        <ele>126.7</ele>
        <time>2019-08-18T09:57:04Z</time>
      </trkpt>
      <trkpt lat="42.8445950" lon="-8.5242350">
        <ele>126.9</ele>
        <time>2019-08-18T09:57:05Z</time>
      </trkpt>
      <trkpt lat="42.8446140" lon="-8.5242640">
        <ele>127.1</ele>
        <time>2019-08-18T09:57:06Z</time>
      </trkpt>
      <trkpt lat="42.8446350" lon="-8.5242910">
        <ele>127.3</ele>
        <time>2019-08-18T09:57:07Z</time>
      </trkpt>
      <trkpt lat="42.8446570" lon="-8.5243180">
        <ele>127.5</ele>
        <time>2019-08-18T09:57:08Z</time>
      </trkpt>
      <trkpt lat="42.8446800" lon="-8.5243440">
        <ele>127.7</ele>
        <time>2019-08-18T09:57:09Z</time>
      </trkpt>
      <trkpt lat="42.8447040" lon="-8.5243700">
        <ele>127.9</ele>
        <time>2019-08-18T09:57:10Z</time>
      </trkpt>
      <trkpt lat="42.8447290" lon="-8.5243950">
        <ele>128.1</ele>
        <time>2019-08-18T09:57:11Z</time>
      </trkpt>
      <trkpt lat="42.8447540" lon="-8.5244190">
        <ele>128.3</ele>
        <time>2019-08-18T09:57:12Z</time>
      </trkpt>
      <trkpt lat="42.8447810" lon="-8.5244420">
        <ele>128.5</ele>
        <time>2019-08-18T09:57:13Z</time>
      </trkpt>
      <trkpt lat="42.8448080" lon="-8.5244650">
        <ele>128.7</ele>
        <time>2019-08-18T09:57:14Z</time>
      </trkpt>
      <trkpt lat="42.8448350" lon="-8.5244870">
        <ele>129.0</ele>
        <time>2019-08-18T09:57:15Z</time>
      </trkpt>
      <trkpt lat="42.8448620" lon="-8.5245080">
        <ele>129.2</ele>
        <time>2019-08-18T09:57:16Z</time>
      </trkpt>
      <trkpt lat="42.8448900" lon="-8.5245280">
        <ele>129.4</ele>
        <time>2019-08-18T09:57:17Z</time>
      </trkpt>
      <trkpt lat="42.8449180" lon="-8.5245480">
        <ele>129.6</ele>
        <time>2019-08-18T09:57:18Z</time>
      </trkpt>
      <trkpt lat="42.8449460" lon="-8.5245680">
        <ele>129.8</ele>
        <time>2019-08-18T09:57:19Z</time>
      </trkpt>
      <trkpt lat="42.8449740" lon="-8.5245870">
        <ele>130.1</ele>
        <time>2019-08-18T09:57:20Z</time>
      </trkpt>
      <trkpt lat="42.8450020" lon="-8.5246050">
        <ele>130.3</ele>
        <time>2019-08-18T09:57:21Z</time>
      </trkpt>
      <trkpt lat="42.8450300" lon="-8.5246230">
        <ele>130.5</ele>
        <time>2019-08-18T09:57:22Z</time>
      </trkpt>
      <trkpt lat="42.8450580" lon="-8.5246410">
        <ele>130.8</ele>
        <time>2019-08-18T09:57:23Z</time>
      </trkpt>
      <trkpt lat="42.8450860" lon="-8.5246590">
        <ele>131.0</ele>
        <time>2019-08-18T09:57:24Z</time>
      </trkpt>
      <trkpt lat="42.8451140" lon="-8.5246760">
        <ele>131.2</ele>
        <time>2019-08-18T09:57:25Z</time>
      </trkpt>
      <trkpt lat="42.8451420" lon="-8.5246920">
        <ele>131.4</ele>
        <time>2019-08-18T09:57:26Z</time>
      </trkpt>
      <trkpt lat="42.8451700" lon="-8.5247080">
        <ele>131.7</ele>
        <time>2019-08-18T09:57:27Z</time>
      </trkpt>
      <trkpt lat="42.8451980" lon="-8.5247240">
        <ele>131.9</ele>
        <time>2019-08-18T09:57:28Z</time>
      </trkpt>
      <trkpt lat="42.8452260" lon="-8.5247380">
        <ele>132.1</ele>
        <time>2019-08-18T09:57:29Z</time>
      </trkpt>
      <trkpt lat="42.8452540" lon="-8.5247530">
        <ele>132.3</ele>
        <time>2019-08-18T09:57:30Z</time>
      </trkpt>
      <trkpt lat="42.8452820" lon="-8.5247670">
        <ele>132.6</ele>
        <time>2019-08-18T09:57:31Z</time>
      </trkpt>
      <trkpt lat="42.8453100" lon="-8.5247800">
        <ele>132.8</ele>
        <time>2019-08-18T09:57:32Z</time>
      </trkpt>
      <trkpt lat="42.8453370" lon="-8.5247920">
        <ele>133.0</ele>
        <time>2019-08-18T09:57:33Z</time>
      </trkpt>
      <trkpt lat="42.8453650" lon="-8.5248040">
        <ele>133.2</ele>
        <time>2019-08-18T09:57:34Z</time>
      </trkpt>
      <trkpt lat="42.8453930" lon="-8.5248150">
        <ele>133.5</ele>
        <time>2019-08-18T09:57:35Z</time>
      </trkpt>
      <trkpt lat="42.8454200" lon="-8.5248250">
        <ele>133.7</ele>
        <time>2019-08-18T09:57:36Z</time>
      </trkpt>
      <trkpt lat="42.8454480" lon="-8.5248350">
        <ele>134.0</ele>
        <time>2019-08-18T09:57:37Z</time>
      </trkpt>
      <trkpt lat="42.8454750" lon="-8.5248440">
        <ele>134.2</ele>
        <time>2019-08-18T09:57:38Z</time>
      </trkpt>
      <trkpt lat="42.8455030" lon="-8.5248520">
        <ele>134.4</ele>
        <time>2019-08-18T09:57:39Z</time>
      </trkpt>
      <trkpt lat="42.8455300" lon="-8.5248590">
        <ele>134.6</ele>
        <time>2019-08-18T09:57:40Z</time>
      </trkpt>
      <trkpt lat="42.8455570" lon="-8.5248660">
        <ele>134.8</ele>
        <time>2019-08-18T09:57:41Z</time>
      </trkpt>
      <trkpt lat="42.8455850" lon="-8.5248730">
        <ele>135.0</ele>
        <time>2019-08-18T09:57:42Z</time>
      </trkpt>
      <trkpt lat="42.8456120" lon="-8.5248790">
        <ele>135.2</ele>
        <time>2019-08-18T09:57:43Z</time>
      </trkpt>
      <trkpt lat="42.8456390" lon="-8.5248840">
        <ele>135.4</ele>
        <time>2019-08-18T09:57:44Z</time>
      </trkpt>
      <trkpt lat="42.8456670" lon="-8.5248900">
        <ele>135.6</ele>
        <time>2019-08-18T09:57:45Z</time>
      </trkpt>
      <trkpt lat="42.8456940" lon="-8.5248940">
        <ele>135.8</ele>
        <time>2019-08-18T09:57:46Z</time>
      </trkpt>
      <trkpt lat="42.8457220" lon="-8.5248970">
        <ele>136.0</ele>
        <time>2019-08-18T09:57:47Z</time>
      </trkpt>
      <trkpt lat="42.8457510" lon="-8.5249000">
        <ele>136.1</ele>
        <time>2019-08-18T09:57:48Z</time>
      </trkpt>
      <trkpt lat="42.8457800" lon="-8.5249010">
        <ele>136.3</ele>
        <time>2019-08-18T09:57:49Z</time>
      </trkpt>
      <trkpt lat="42.8458100" lon="-8.5249020">
        <ele>136.5</ele>
        <time>2019-08-18T09:57:50Z</time>
      </trkpt>
      <trkpt lat="42.8458400" lon="-8.5249010">
        <ele>136.7</ele>
        <time>2019-08-18T09:57:51Z</time>
      </trkpt>
      <trkpt lat="42.8458700" lon="-8.5248990">
        <ele>136.8</ele>
        <time>2019-08-18T09:57:52Z</time>
      </trkpt>
      <trkpt lat="42.8459000" lon="-8.5248970">
        <ele>137.0</ele>
        <time>2019-08-18T09:57:53Z</time>
      </trkpt>
      <trkpt lat="42.8459270" lon="-8.5248950">
        <ele>137.2</ele>
        <time>2019-08-18T09:57:54Z</time>
      </trkpt>
      <trkpt lat="42.8459530" lon="-8.5248940">
        <ele>137.4</ele>
        <time>2019-08-18T09:57:55Z</time>
      </trkpt>
      <trkpt lat="42.8459760" lon="-8.5248940">
        <ele>137.5</ele>
        <time>2019-08-18T09:57:56Z</time>
      </trkpt>
      <trkpt lat="42.8459970" lon="-8.5248940">
        <ele>137.6</ele>
        <time>2019-08-18T09:57:57Z</time>
      </trkpt>
      <trkpt lat="42.8460170" lon="-8.5248930">
        <ele>137.7</ele>
        <time>2019-08-18T09:57:58Z</time>
      </trkpt>
      <trkpt lat="42.8460360" lon="-8.5248920">
        <ele>137.9</ele>
        <time>2019-08-18T09:57:59Z</time>
      </trkpt>
      <trkpt lat="42.8460550" lon="-8.5248910">
        <ele>138.0</ele>
        <time>2019-08-18T09:58:00Z</time>
      </trkpt>
      <trkpt lat="42.8460740" lon="-8.5248910">
        <ele>138.1</ele>
        <time>2019-08-18T09:58:01Z</time>
      </trkpt>
      <trkpt lat="42.8460940" lon="-8.5248930">
        <ele>138.2</ele>
        <time>2019-08-18T09:58:02Z</time>
      </trkpt>
      <trkpt lat="42.8461150" lon="-8.5248970">
        <ele>138.4</ele>
        <time>2019-08-18T09:58:03Z</time>
      </trkpt>
      <trkpt lat="42.8461370" lon="-8.5249020">
        <ele>138.5</ele>
        <time>2019-08-18T09:58:04Z</time>
      </trkpt>
      <trkpt lat="42.8461590" lon="-8.5249080">
        <ele>139.0</ele>
        <time>2019-08-18T09:58:05Z</time>
      </trkpt>
      <trkpt lat="42.8461830" lon="-8.5249120">
        <ele>139.1</ele>
        <time>2019-08-18T09:58:06Z</time>
      </trkpt>
      <trkpt lat="42.8462070" lon="-8.5249160">
        <ele>139.1</ele>
        <time>2019-08-18T09:58:07Z</time>
      </trkpt>
      <trkpt lat="42.8462310" lon="-8.5249180">
        <ele>139.2</ele>
        <time>2019-08-18T09:58:08Z</time>
      </trkpt>
      <trkpt lat="42.8462560" lon="-8.5249200">
        <ele>139.6</ele>
        <time>2019-08-18T09:58:09Z</time>
      </trkpt>
      <trkpt lat="42.8462800" lon="-8.5249220">
        <ele>139.7</ele>
        <time>2019-08-18T09:58:10Z</time>
      </trkpt>
      <trkpt lat="42.8463050" lon="-8.5249220">
        <ele>139.8</ele>
        <time>2019-08-18T09:58:11Z</time>
      </trkpt>
      <trkpt lat="42.8463410" lon="-8.5249220">
        <ele>140.0</ele>
        <time>2019-08-18T09:58:12Z</time>
      </trkpt>
      <trkpt lat="42.8463530" lon="-8.5249220">
        <ele>140.0</ele>
        <time>2019-08-18T09:58:13Z</time>
      </trkpt>
      <trkpt lat="42.8463770" lon="-8.5249220">
        <ele>140.2</ele>
        <time>2019-08-18T09:58:14Z</time>
      </trkpt>
      <trkpt lat="42.8464000" lon="-8.5249210">
        <ele>140.3</ele>
        <time>2019-08-18T09:58:15Z</time>
      </trkpt>
      <trkpt lat="42.8464240" lon="-8.5249190">
        <ele>140.4</ele>
        <time>2019-08-18T09:58:16Z</time>
      </trkpt>
      <trkpt lat="42.8464470" lon="-8.5249180">
        <ele>140.6</ele>
        <time>2019-08-18T09:58:17Z</time>
      </trkpt>
      <trkpt lat="42.8464710" lon="-8.5249160">
        <ele>140.7</ele>
        <time>2019-08-18T09:58:18Z</time>
      </trkpt>
      <trkpt lat="42.8464960" lon="-8.5249140">
        <ele>140.9</ele>
        <time>2019-08-18T09:58:19Z</time>
      </trkpt>
      <trkpt lat="42.8465210" lon="-8.5249120">
        <ele>141.0</ele>
        <time>2019-08-18T09:58:20Z</time>
      </trkpt>
      <trkpt lat="42.8465470" lon="-8.5249100">
        <ele>141.1</ele>
        <time>2019-08-18T09:58:21Z</time>
      </trkpt>
      <trkpt lat="42.8465730" lon="-8.5249080">
        <ele>141.2</ele>
        <time>2019-08-18T09:58:22Z</time>
      </trkpt>
      <trkpt lat="42.8466000" lon="-8.5249050">
        <ele>141.3</ele>
        <time>2019-08-18T09:58:23Z</time>
      </trkpt>
      <trkpt lat="42.8466270" lon="-8.5249030">
        <ele>141.4</ele>
        <time>2019-08-18T09:58:24Z</time>
      </trkpt>
      <trkpt lat="42.8466540" lon="-8.5249000">
        <ele>141.6</ele>
        <time>2019-08-18T09:58:25Z</time>
      </trkpt>
      <trkpt lat="42.8466810" lon="-8.5248980">
        <ele>141.9</ele>
        <time>2019-08-18T09:58:26Z</time>
      </trkpt>
      <trkpt lat="42.8467090" lon="-8.5248950">
        <ele>142.1</ele>
        <time>2019-08-18T09:58:27Z</time>
      </trkpt>
      <trkpt lat="42.8467370" lon="-8.5248930">
        <ele>142.2</ele>
        <time>2019-08-18T09:58:28Z</time>
      </trkpt>
      <trkpt lat="42.8467650" lon="-8.5248910">
        <ele>142.4</ele>
        <time>2019-08-18T09:58:29Z</time>
      </trkpt>
      <trkpt lat="42.8467920" lon="-8.5248890">
        <ele>142.5</ele>
        <time>2019-08-18T09:58:30Z</time>
      </trkpt>
      <trkpt lat="42.8468200" lon="-8.5248870">
        <ele>142.6</ele>
        <time>2019-08-18T09:58:31Z</time>
      </trkpt>
      <trkpt lat="42.8468470" lon="-8.5248850">
        <ele>142.8</ele>
        <time>2019-08-18T09:58:32Z</time>
      </trkpt>
      <trkpt lat="42.8468740" lon="-8.5248830">
        <ele>142.9</ele>
        <time>2019-08-18T09:58:33Z</time>
      </trkpt>
      <trkpt lat="42.8469010" lon="-8.5248820">
        <ele>143.1</ele>
        <time>2019-08-18T09:58:34Z</time>
      </trkpt>
      <trkpt lat="42.8469270" lon="-8.5248810">
        <ele>143.2</ele>
        <time>2019-08-18T09:58:35Z</time>
      </trkpt>
      <trkpt lat="42.8469530" lon="-8.5248800">
        <ele>143.3</ele>
        <time>2019-08-18T09:58:36Z</time>
      </trkpt>
      <trkpt lat="42.8469780" lon="-8.5248790">
        <ele>143.5</ele>
        <time>2019-08-18T09:58:37Z</time>
      </trkpt>
      <trkpt lat="42.8470030" lon="-8.5248780">
        <ele>143.6</ele>
        <time>2019-08-18T09:58:38Z</time>
      </trkpt>
      <trkpt lat="42.8470280" lon="-8.5248780">
        <ele>143.7</ele>
        <time>2019-08-18T09:58:39Z</time>
      </trkpt>
      <trkpt lat="42.8470530" lon="-8.5248770">
        <ele>143.9</ele>
        <time>2019-08-18T09:58:40Z</time>
      </trkpt>
      <trkpt lat="42.8470780" lon="-8.5248760">
        <ele>144.0</ele>
        <time>2019-08-18T09:58:41Z</time>
      </trkpt>
      <trkpt lat="42.8471030" lon="-8.5248760">
        <ele>144.1</ele>
        <time>2019-08-18T09:58:42Z</time>
      </trkpt>
      <trkpt lat="42.8471280" lon="-8.5248750">
        <ele>144.3</ele>
        <time>2019-08-18T09:58:43Z</time>
      </trkpt>
      <trkpt lat="42.8471520" lon="-8.5248740">
        <ele>144.4</ele>
        <time>2019-08-18T09:58:44Z</time>
      </trkpt>
      <trkpt lat="42.8471770" lon="-8.5248730">
        <ele>144.5</ele>
        <time>2019-08-18T09:58:45Z</time>
      </trkpt>
      <trkpt lat="42.8472020" lon="-8.5248710">
        <ele>144.7</ele>
        <time>2019-08-18T09:58:46Z</time>
      </trkpt>
      <trkpt lat="42.8472280" lon="-8.5248700">
        <ele>144.8</ele>
        <time>2019-08-18T09:58:47Z</time>
      </trkpt>
      <trkpt lat="42.8472530" lon="-8.5248670">
        <ele>145.0</ele>
        <time>2019-08-18T09:58:48Z</time>
      </trkpt>
      <trkpt lat="42.8472790" lon="-8.5248650">
        <ele>145.1</ele>
        <time>2019-08-18T09:58:49Z</time>
      </trkpt>
      <trkpt lat="42.8473060" lon="-8.5248630">
        <ele>145.2</ele>
        <time>2019-08-18T09:58:50Z</time>
      </trkpt>
      <trkpt lat="42.8473320" lon="-8.5248610">
        <ele>145.4</ele>
        <time>2019-08-18T09:58:51Z</time>
      </trkpt>
      <trkpt lat="42.8473590" lon="-8.5248600">
        <ele>145.5</ele>
        <time>2019-08-18T09:58:52Z</time>
      </trkpt>
      <trkpt lat="42.8473850" lon="-8.5248610">
        <ele>145.6</ele>
        <time>2019-08-18T09:58:53Z</time>
      </trkpt>
      <trkpt lat="42.8474120" lon="-8.5248630">
        <ele>145.8</ele>
        <time>2019-08-18T09:58:54Z</time>
      </trkpt>
      <trkpt lat="42.8474520" lon="-8.5248660">
        <ele>146.0</ele>
        <time>2019-08-18T09:58:55Z</time>
      </trkpt>
      <trkpt lat="42.8474660" lon="-8.5248670">
        <ele>146.2</ele>
        <time>2019-08-18T09:58:56Z</time>
      </trkpt>
      <trkpt lat="42.8474930" lon="-8.5248680">
        <ele>146.3</ele>
        <time>2019-08-18T09:58:57Z</time>
      </trkpt>
      <trkpt lat="42.8475200" lon="-8.5248700">
        <ele>146.4</ele>
        <time>2019-08-18T09:58:58Z</time>
      </trkpt>
      <trkpt lat="42.8475460" lon="-8.5248710">
        <ele>146.5</ele>
        <time>2019-08-18T09:58:59Z</time>
      </trkpt>
      <trkpt lat="42.8475730" lon="-8.5248740">
        <ele>146.6</ele>
        <time>2019-08-18T09:59:00Z</time>
      </trkpt>
      <trkpt lat="42.8476000" lon="-8.5248780">
        <ele>146.7</ele>
        <time>2019-08-18T09:59:01Z</time>
      </trkpt>
      <trkpt lat="42.8476280" lon="-8.5248840">
        <ele>146.8</ele>
        <time>2019-08-18T09:59:02Z</time>
      </trkpt>
      <trkpt lat="42.8476550" lon="-8.5248930">
        <ele>146.9</ele>
        <time>2019-08-18T09:59:03Z</time>
      </trkpt>
      <trkpt lat="42.8476830" lon="-8.5249030">
        <ele>147.0</ele>
        <time>2019-08-18T09:59:04Z</time>
      </trkpt>
      <trkpt lat="42.8477120" lon="-8.5249080">
        <ele>147.2</ele>
        <time>2019-08-18T09:59:05Z</time>
      </trkpt>
      <trkpt lat="42.8477400" lon="-8.5249040">
        <ele>147.3</ele>
        <time>2019-08-18T09:59:06Z</time>
      </trkpt>
      <trkpt lat="42.8477680" lon="-8.5249000">
        <ele>147.4</ele>
        <time>2019-08-18T09:59:07Z</time>
      </trkpt>
      <trkpt lat="42.8477950" lon="-8.5249050">
        <ele>147.5</ele>
        <time>2019-08-18T09:59:08Z</time>
      </trkpt>
      <trkpt lat="42.8478200" lon="-8.5249160">
        <ele>147.6</ele>
        <time>2019-08-18T09:59:09Z</time>
      </trkpt>
      <trkpt lat="42.8478450" lon="-8.5249310">
        <ele>147.8</ele>
        <time>2019-08-18T09:59:10Z</time>
      </trkpt>
      <trkpt lat="42.8478700" lon="-8.5249450">
        <ele>147.9</ele>
        <time>2019-08-18T09:59:11Z</time>
      </trkpt>
      <trkpt lat="42.8478960" lon="-8.5249560">
        <ele>148.1</ele>
        <time>2019-08-18T09:59:12Z</time>
      </trkpt>
      <trkpt lat="42.8479220" lon="-8.5249620">
        <ele>148.3</ele>
        <time>2019-08-18T09:59:13Z</time>
      </trkpt>
      <trkpt lat="42.8479490" lon="-8.5249650">
        <ele>148.4</ele>
        <time>2019-08-18T09:59:14Z</time>
      </trkpt>
      <trkpt lat="42.8479760" lon="-8.5249650">
        <ele>148.6</ele>
        <time>2019-08-18T09:59:15Z</time>
      </trkpt>
      <trkpt lat="42.8480040" lon="-8.5249630">
        <ele>148.7</ele>
        <time>2019-08-18T09:59:16Z</time>
      </trkpt>
      <trkpt lat="42.8480320" lon="-8.5249610">
        <ele>148.9</ele>
        <time>2019-08-18T09:59:17Z</time>
      </trkpt>
      <trkpt lat="42.8480600" lon="-8.5249590">
        <ele>149.0</ele>
        <time>2019-08-18T09:59:18Z</time>
      </trkpt>
      <trkpt lat="42.8480870" lon="-8.5249600">
        <ele>149.2</ele>
        <time>2019-08-18T09:59:19Z</time>
      </trkpt>
      <trkpt lat="42.8481130" lon="-8.5249630">
        <ele>149.4</ele>
        <time>2019-08-18T09:59:20Z</time>
      </trkpt>
      <trkpt lat="42.8481390" lon="-8.5249690">
        <ele>149.5</ele>
        <time>2019-08-18T09:59:21Z</time>
      </trkpt>
      <trkpt lat="42.8481640" lon="-8.5249760">
        <ele>149.7</ele>
        <time>2019-08-18T09:59:22Z</time>
      </trkpt>
      <trkpt lat="42.8481880" lon="-8.5249840">
        <ele>149.8</ele>
        <time>2019-08-18T09:59:23Z</time>
      </trkpt>
      <trkpt lat="42.8482120" lon="-8.5249940">
        <ele>150.0</ele>
        <time>2019-08-18T09:59:24Z</time>
      </trkpt>
      <trkpt lat="42.8482350" lon="-8.5250050">
        <ele>150.1</ele>
        <time>2019-08-18T09:59:25Z</time>
      </trkpt>
      <trkpt lat="42.8482590" lon="-8.5250170">
        <ele>150.3</ele>
        <time>2019-08-18T09:59:26Z</time>
      </trkpt>
      <trkpt lat="42.8482820" lon="-8.5250290">
        <ele>150.4</ele>
        <time>2019-08-18T09:59:27Z</time>
      </trkpt>
      <trkpt lat="42.8483050" lon="-8.5250420">
        <ele>150.6</ele>
        <time>2019-08-18T09:59:28Z</time>
      </trkpt>
      <trkpt lat="42.8483270" lon="-8.5250540">
        <ele>150.7</ele>
        <time>2019-08-18T09:59:29Z</time>
      </trkpt>
      <trkpt lat="42.8483500" lon="-8.5250660">
        <ele>150.9</ele>
        <time>2019-08-18T09:59:30Z</time>
      </trkpt>
      <trkpt lat="42.8483730" lon="-8.5250780">
        <ele>151.1</ele>
        <time>2019-08-18T09:59:31Z</time>
      </trkpt>
      <trkpt lat="42.8483960" lon="-8.5250890">
        <ele>151.2</ele>
        <time>2019-08-18T09:59:32Z</time>
      </trkpt>
      <trkpt lat="42.8484200" lon="-8.5250990">
        <ele>151.4</ele>
        <time>2019-08-18T09:59:33Z</time>
      </trkpt>
      <trkpt lat="42.8484550" lon="-8.5251120">
        <ele>151.6</ele>
        <time>2019-08-18T09:59:34Z</time>
      </trkpt>
      <trkpt lat="42.8484670" lon="-8.5251160">
        <ele>151.7</ele>
        <time>2019-08-18T09:59:35Z</time>
      </trkpt>
      <trkpt lat="42.8484920" lon="-8.5251230">
        <ele>151.8</ele>
        <time>2019-08-18T09:59:36Z</time>
      </trkpt>
      <trkpt lat="42.8485160" lon="-8.5251290">
        <ele>152.0</ele>
        <time>2019-08-18T09:59:37Z</time>
      </trkpt>
      <trkpt lat="42.8485410" lon="-8.5251350">
        <ele>152.1</ele>
        <time>2019-08-18T09:59:38Z</time>
      </trkpt>
      <trkpt lat="42.8485660" lon="-8.5251410">
        <ele>152.3</ele>
        <time>2019-08-18T09:59:39Z</time>
      </trkpt>
      <trkpt lat="42.8485910" lon="-8.5251470">
        <ele>152.4</ele>
        <time>2019-08-18T09:59:40Z</time>
      </trkpt>
      <trkpt lat="42.8486170" lon="-8.5251530">
        <ele>152.6</ele>
        <time>2019-08-18T09:59:41Z</time>
      </trkpt>
      <trkpt lat="42.8486430" lon="-8.5251600">
        <ele>152.7</ele>
        <time>2019-08-18T09:59:42Z</time>
      </trkpt>
      <trkpt lat="42.8486690" lon="-8.5251660">
        <ele>152.8</ele>
        <time>2019-08-18T09:59:43Z</time>
      </trkpt>
      <trkpt lat="42.8486950" lon="-8.5251720">
        <ele>153.0</ele>
        <time>2019-08-18T09:59:44Z</time>
      </trkpt>
      <trkpt lat="42.8487220" lon="-8.5251790">
        <ele>153.1</ele>
        <time>2019-08-18T09:59:45Z</time>
      </trkpt>
      <trkpt lat="42.8487480" lon="-8.5251850">
        <ele>153.3</ele>
        <time>2019-08-18T09:59:46Z</time>
      </trkpt>
      <trkpt lat="42.8487750" lon="-8.5251920">
        <ele>153.4</ele>
        <time>2019-08-18T09:59:47Z</time>
      </trkpt>
      <trkpt lat="42.8488020" lon="-8.5251980">
        <ele>153.5</ele>
        <time>2019-08-18T09:59:48Z</time>
      </trkpt>
      <trkpt lat="42.8488290" lon="-8.5252040">
        <ele>153.7</ele>
        <time>2019-08-18T09:59:49Z</time>
      </trkpt>
      <trkpt lat="42.8488560" lon="-8.5252090">
        <ele>153.8</ele>
        <time>2019-08-18T09:59:50Z</time>
      </trkpt>
      <trkpt lat="42.8488830" lon="-8.5252150">
        <ele>153.9</ele>
        <time>2019-08-18T09:59:51Z</time>
      </trkpt>
      <trkpt lat="42.8489110" lon="-8.5252200">
        <ele>154.1</ele>
        <time>2019-08-18T09:59:52Z</time>
      </trkpt>
      <trkpt lat="42.8489380" lon="-8.5252250">
        <ele>154.2</ele>
        <time>2019-08-18T09:59:53Z</time>
      </trkpt>
      <trkpt lat="42.8489650" lon="-8.5252290">
        <ele>154.3</ele>
        <time>2019-08-18T09:59:54Z</time>
      </trkpt>
      <trkpt lat="42.8489930" lon="-8.5252330">
        <ele>154.6</ele>
        <time>2019-08-18T09:59:55Z</time>
      </trkpt>
      <trkpt lat="42.8490200" lon="-8.5252370">
        <ele>154.8</ele>
        <time>2019-08-18T09:59:56Z</time>
      </trkpt>
      <trkpt lat="42.8490480" lon="-8.5252400">
        <ele>155.1</ele>
        <time>2019-08-18T09:59:57Z</time>
      </trkpt>
      <trkpt lat="42.8490760" lon="-8.5252420">
        <ele>155.3</ele>
        <time>2019-08-18T09:59:58Z</time>
      </trkpt>
      <trkpt lat="42.8491030" lon="-8.5252450">
        <ele>155.4</ele>
        <time>2019-08-18T09:59:59Z</time>
      </trkpt>
      <trkpt lat="42.8491450" lon="-8.5252460">
        <ele>155.6</ele>
        <time>2019-08-18T10:00:00Z</time>
      </trkpt>
      <trkpt lat="42.8491580" lon="-8.5252470">
        <ele>155.7</ele>
        <time>2019-08-18T10:00:01Z</time>
      </trkpt>
      <trkpt lat="42.8491860" lon="-8.5252480">
        <ele>155.9</ele>
        <time>2019-08-18T10:00:02Z</time>
      </trkpt>
      <trkpt lat="42.8492130" lon="-8.5252470">
        <ele>156.0</ele>
        <time>2019-08-18T10:00:03Z</time>
      </trkpt>
      <trkpt lat="42.8492540" lon="-8.5252460">
        <ele>156.2</ele>
        <time>2019-08-18T10:00:04Z</time>
      </trkpt>
      <trkpt lat="42.8492680" lon="-8.5252450">
        <ele>156.3</ele>
        <time>2019-08-18T10:00:05Z</time>
      </trkpt>
      <trkpt lat="42.8492950" lon="-8.5252430">
        <ele>156.4</ele>
        <time>2019-08-18T10:00:06Z</time>
      </trkpt>
      <trkpt lat="42.8493220" lon="-8.5252410">
        <ele>156.6</ele>
        <time>2019-08-18T10:00:07Z</time>
      </trkpt>
      <trkpt lat="42.8493500" lon="-8.5252380">
        <ele>156.8</ele>
        <time>2019-08-18T10:00:08Z</time>
      </trkpt>
      <trkpt lat="42.8493770" lon="-8.5252340">
        <ele>157.0</ele>
        <time>2019-08-18T10:00:09Z</time>
      </trkpt>
      <trkpt lat="42.8494050" lon="-8.5252300">
        <ele>157.2</ele>
        <time>2019-08-18T10:00:10Z</time>
      </trkpt>
      <trkpt lat="42.8494330" lon="-8.5252250">
        <ele>157.5</ele>
        <time>2019-08-18T10:00:11Z</time>
      </trkpt>
      <trkpt lat="42.8494610" lon="-8.5252200">
        <ele>157.7</ele>
        <time>2019-08-18T10:00:12Z</time>
      </trkpt>
      <trkpt lat="42.8494890" lon="-8.5252140">
        <ele>157.9</ele>
        <time>2019-08-18T10:00:13Z</time>
      </trkpt>
      <trkpt lat="42.8495170" lon="-8.5252080">
        <ele>158.0</ele>
        <time>2019-08-18T10:00:14Z</time>
      </trkpt>
      <trkpt lat="42.8495460" lon="-8.5252020">
        <ele>158.2</ele>
        <time>2019-08-18T10:00:15Z</time>
      </trkpt>
      <trkpt lat="42.8495750" lon="-8.5251950">
        <ele>158.4</ele>
        <time>2019-08-18T10:00:16Z</time>
      </trkpt>
      <trkpt lat="42.8496040" lon="-8.5251880">
        <ele>158.6</ele>
        <time>2019-08-18T10:00:17Z</time>
      </trkpt>
      <trkpt lat="42.8496330" lon="-8.5251800">
        <ele>158.8</ele>
        <time>2019-08-18T10:00:18Z</time>
      </trkpt>
      <trkpt lat="42.8496620" lon="-8.5251730">
        <ele>159.0</ele>
        <time>2019-08-18T10:00:19Z</time>
      </trkpt>
      <trkpt lat="42.8496920" lon="-8.5251650">
        <ele>159.1</ele>
        <time>2019-08-18T10:00:20Z</time>
      </trkpt>
      <trkpt lat="42.8497210" lon="-8.5251580">
        <ele>159.3</ele>
        <time>2019-08-18T10:00:21Z</time>
      </trkpt>
      <trkpt lat="42.8497490" lon="-8.5251510">
        <ele>159.5</ele>
        <time>2019-08-18T10:00:22Z</time>
      </trkpt>
      <trkpt lat="42.8497770" lon="-8.5251440">
        <ele>159.7</ele>
        <time>2019-08-18T10:00:23Z</time>
      </trkpt>
      <trkpt lat="42.8498050" lon="-8.5251390">
        <ele>159.8</ele>
        <time>2019-08-18T10:00:24Z</time>
      </trkpt>
      <trkpt lat="42.8498320" lon="-8.5251340">
        <ele>160.0</ele>
        <time>2019-08-18T10:00:25Z</time>
      </trkpt>
      <trkpt lat="42.8498580" lon="-8.5251300">
        <ele>160.1</ele>
        <time>2019-08-18T10:00:26Z</time>
      </trkpt>
      <trkpt lat="42.8498840" lon="-8.5251260">
        <ele>160.4</ele>
        <time>2019-08-18T10:00:27Z</time>
      </trkpt>
      <trkpt lat="42.8499120" lon="-8.5251180">
        <ele>160.7</ele>
        <time>2019-08-18T10:00:28Z</time>
      </trkpt>
      <trkpt lat="42.8499360" lon="-8.5251110">
        <ele>160.9</ele>
        <time>2019-08-18T10:00:29Z</time>
      </trkpt>
      <trkpt lat="42.8499590" lon="-8.5251020">
        <ele>161.1</ele>
        <time>2019-08-18T10:00:30Z</time>
      </trkpt>
      <trkpt lat="42.8500360" lon="-8.5250300">
        <ele>161.6</ele>
        <time>2019-08-18T10:02:17Z</time>
      </trkpt>
      <trkpt lat="42.8500320" lon="-8.5250610">
        <ele>161.8</ele>
        <time>2019-08-18T10:02:18Z</time>
      </trkpt>
      <trkpt lat="42.8500390" lon="-8.5250890">
        <ele>161.9</ele>
        <time>2019-08-18T10:02:19Z</time>
      </trkpt>
      <trkpt lat="42.8500570" lon="-8.5250970">
        <ele>162.0</ele>
        <time>2019-08-18T10:02:20Z</time>
      </trkpt>
      <trkpt lat="42.8500770" lon="-8.5250970">
        <ele>162.1</ele>
        <time>2019-08-18T10:02:21Z</time>
      </trkpt>
      <trkpt lat="42.8501010" lon="-8.5250920">
        <ele>162.3</ele>
        <time>2019-08-18T10:02:22Z</time>
      </trkpt>
      <trkpt lat="42.8501280" lon="-8.5250840">
        <ele>162.5</ele>
        <time>2019-08-18T10:02:23Z</time>
      </trkpt>
      <trkpt lat="42.8501550" lon="-8.5250760">
        <ele>162.8</ele>
        <time>2019-08-18T10:02:24Z</time>
      </trkpt>
      <trkpt lat="42.8501820" lon="-8.5250680">
        <ele>163.0</ele>
        <time>2019-08-18T10:02:25Z</time>
      </trkpt>
      <trkpt lat="42.8502080" lon="-8.5250610">
        <ele>163.2</ele>
        <time>2019-08-18T10:02:26Z</time>
      </trkpt>
      <trkpt lat="42.8502350" lon="-8.5250540">
        <ele>163.5</ele>
        <time>2019-08-18T10:02:27Z</time>
      </trkpt>
      <trkpt lat="42.8502610" lon="-8.5250480">
        <ele>163.7</ele>
        <time>2019-08-18T10:02:28Z</time>
      </trkpt>
      <trkpt lat="42.8502870" lon="-8.5250420">
        <ele>163.8</ele>
        <time>2019-08-18T10:02:29Z</time>
      </trkpt>
      <trkpt lat="42.8503130" lon="-8.5250370">
        <ele>164.0</ele>
        <time>2019-08-18T10:02:30Z</time>
      </trkpt>
      <trkpt lat="42.8503390" lon="-8.5250320">
        <ele>164.1</ele>
        <time>2019-08-18T10:02:31Z</time>
      </trkpt>
      <trkpt lat="42.8503650" lon="-8.5250270">
        <ele>164.3</ele>
        <time>2019-08-18T10:02:32Z</time>
      </trkpt>
      <trkpt lat="42.8503910" lon="-8.5250230">
        <ele>164.4</ele>
        <time>2019-08-18T10:02:33Z</time>
      </trkpt>
      <trkpt lat="42.8504170" lon="-8.5250180">
        <ele>164.6</ele>
        <time>2019-08-18T10:02:34Z</time>
      </trkpt>
      <trkpt lat="42.8504440" lon="-8.5250140">
        <ele>164.7</ele>
        <time>2019-08-18T10:02:35Z</time>
      </trkpt>
      <trkpt lat="42.8504700" lon="-8.5250110">
        <ele>164.9</ele>
        <time>2019-08-18T10:02:36Z</time>
      </trkpt>
      <trkpt lat="42.8504960" lon="-8.5250080">
        <ele>165.0</ele>
        <time>2019-08-18T10:02:37Z</time>
      </trkpt>
      <trkpt lat="42.8505230" lon="-8.5250050">
        <ele>165.2</ele>
        <time>2019-08-18T10:02:38Z</time>
      </trkpt>
      <trkpt lat="42.8505490" lon="-8.5250030">
        <ele>165.3</ele>
        <time>2019-08-18T10:02:39Z</time>
      </trkpt>
      <trkpt lat="42.8505750" lon="-8.5250010">
        <ele>165.5</ele>
        <time>2019-08-18T10:02:40Z</time>
      </trkpt>
      <trkpt lat="42.8506020" lon="-8.5249990">
        <ele>165.6</ele>
        <time>2019-08-18T10:02:41Z</time>
      </trkpt>
      <trkpt lat="42.8506280" lon="-8.5249980">
        <ele>165.8</ele>
        <time>2019-08-18T10:02:42Z</time>
      </trkpt>
      <trkpt lat="42.8506540" lon="-8.5249980">
        <ele>165.9</ele>
        <time>2019-08-18T10:02:43Z</time>
      </trkpt>
      <trkpt lat="42.8506810" lon="-8.5249980">
        <ele>166.1</ele>
        <time>2019-08-18T10:02:44Z</time>
      </trkpt>
      <trkpt lat="42.8507070" lon="-8.5249980">
        <ele>166.2</ele>
        <time>2019-08-18T10:02:45Z</time>
      </trkpt>
      <trkpt lat="42.8507330" lon="-8.5249990">
        <ele>166.4</ele>
        <time>2019-08-18T10:02:46Z</time>
      </trkpt>
      <trkpt lat="42.8507590" lon="-8.5250010">
        <ele>166.5</ele>
        <time>2019-08-18T10:02:47Z</time>
      </trkpt>
      <trkpt lat="42.8507970" lon="-8.5250040">
        <ele>166.7</ele>
        <time>2019-08-18T10:02:48Z</time>
      </trkpt>
      <trkpt lat="42.8508100" lon="-8.5250060">
        <ele>166.8</ele>
        <time>2019-08-18T10:02:49Z</time>
      </trkpt>
      <trkpt lat="42.8508350" lon="-8.5250100">
        <ele>167.0</ele>
        <time>2019-08-18T10:02:50Z</time>
      </trkpt>
      <trkpt lat="42.8508610" lon="-8.5250140">
        <ele>167.1</ele>
        <time>2019-08-18T10:02:51Z</time>
      </trkpt>
      <trkpt lat="42.8508860" lon="-8.5250190">
        <ele>167.3</ele>
        <time>2019-08-18T10:02:52Z</time>
      </trkpt>
      <trkpt lat="42.8509120" lon="-8.5250240">
        <ele>167.4</ele>
        <time>2019-08-18T10:02:53Z</time>
      </trkpt>
      <trkpt lat="42.8509370" lon="-8.5250300">
        <ele>167.6</ele>
        <time>2019-08-18T10:02:54Z</time>
      </trkpt>
      <trkpt lat="42.8509620" lon="-8.5250360">
        <ele>167.9</ele>
        <time>2019-08-18T10:02:55Z</time>
      </trkpt>
      <trkpt lat="42.8509870" lon="-8.5250440">
        <ele>168.1</ele>
        <time>2019-08-18T10:02:56Z</time>
      </trkpt>
      <trkpt lat="42.8510120" lon="-8.5250520">
        <ele>168.3</ele>
        <time>2019-08-18T10:02:57Z</time>
      </trkpt>
      <trkpt lat="42.8510370" lon="-8.5250600">
        <ele>168.5</ele>
        <time>2019-08-18T10:02:58Z</time>
      </trkpt>
      <trkpt lat="42.8510620" lon="-8.5250690">
        <ele>168.7</ele>
        <time>2019-08-18T10:02:59Z</time>
      </trkpt>
      <trkpt lat="42.8510870" lon="-8.5250790">
        <ele>169.0</ele>
        <time>2019-08-18T10:03:00Z</time>
      </trkpt>
      <trkpt lat="42.8511120" lon="-8.5250900">
        <ele>169.2</ele>
        <time>2019-08-18T10:03:01Z</time>
      </trkpt>
      <trkpt lat="42.8511370" lon="-8.5251010">
        <ele>169.4</ele>
        <time>2019-08-18T10:03:02Z</time>
      </trkpt>
      <trkpt lat="42.8511620" lon="-8.5251130">
        <ele>169.7</ele>
        <time>2019-08-18T10:03:03Z</time>
      </trkpt>
      <trkpt lat="42.8511860" lon="-8.5251250">
        <ele>169.9</ele>
        <time>2019-08-18T10:03:04Z</time>
      </trkpt>
      <trkpt lat="42.8512110" lon="-8.5251390">
        <ele>170.2</ele>
        <time>2019-08-18T10:03:05Z</time>
      </trkpt>
      <trkpt lat="42.8512360" lon="-8.5251520">
        <ele>170.4</ele>
        <time>2019-08-18T10:03:06Z</time>
      </trkpt>
      <trkpt lat="42.8512610" lon="-8.5251670">
        <ele>170.7</ele>
        <time>2019-08-18T10:03:07Z</time>
      </trkpt>
      <trkpt lat="42.8512860" lon="-8.5251810">
        <ele>170.9</ele>
        <time>2019-08-18T10:03:08Z</time>
      </trkpt>
      <trkpt lat="42.8513100" lon="-8.5251970">
        <ele>171.2</ele>
        <time>2019-08-18T10:03:09Z</time>
      </trkpt>
      <trkpt lat="42.8513350" lon="-8.5252120">
        <ele>171.4</ele>
        <time>2019-08-18T10:03:10Z</time>
      </trkpt>
      <trkpt lat="42.8513600" lon="-8.5252290">
        <ele>171.7</ele>
        <time>2019-08-18T10:03:11Z</time>
      </trkpt>
      <trkpt lat="42.8513840" lon="-8.5252460">
        <ele>171.9</ele>
        <time>2019-08-18T10:03:12Z</time>
      </trkpt>
      <trkpt lat="42.8514090" lon="-8.5252630">
        <ele>172.1</ele>
        <time>2019-08-18T10:03:13Z</time>
      </trkpt>
      <trkpt lat="42.8514330" lon="-8.5252810">
        <ele>172.3</ele>
        <time>2019-08-18T10:03:14Z</time>
      </trkpt>
      <trkpt lat="42.8514570" lon="-8.5253000">
        <ele>172.5</ele>
        <time>2019-08-18T10:03:15Z</time>
      </trkpt>
      <trkpt lat="42.8514810" lon="-8.5253200">
        <ele>172.7</ele>
        <time>2019-08-18T10:03:16Z</time>
      </trkpt>
      <trkpt lat="42.8515050" lon="-8.5253410">
        <ele>172.9</ele>
        <time>2019-08-18T10:03:17Z</time>
      </trkpt>
      <trkpt lat="42.8515290" lon="-8.5253620">
        <ele>173.1</ele>
        <time>2019-08-18T10:03:18Z</time>
      </trkpt>
      <trkpt lat="42.8515520" lon="-8.5253840">
        <ele>173.3</ele>
        <time>2019-08-18T10:03:19Z</time>
      </trkpt>
      <trkpt lat="42.8515750" lon="-8.5254070">
        <ele>173.5</ele>
        <time>2019-08-18T10:03:20Z</time>
      </trkpt>
      <trkpt lat="42.8515970" lon="-8.5254300">
        <ele>173.7</ele>
        <time>2019-08-18T10:03:21Z</time>
      </trkpt>
      <trkpt lat="42.8516190" lon="-8.5254540">
        <ele>173.9</ele>
        <time>2019-08-18T10:03:22Z</time>
      </trkpt>
      <trkpt lat="42.8516410" lon="-8.5254770">
        <ele>174.1</ele>
        <time>2019-08-18T10:03:23Z</time>
      </trkpt>
      <trkpt lat="42.8516620" lon="-8.5255010">
        <ele>174.4</ele>
        <time>2019-08-18T10:03:24Z</time>
      </trkpt>
      <trkpt lat="42.8516820" lon="-8.5255240">
        <ele>174.6</ele>
        <time>2019-08-18T10:03:25Z</time>
      </trkpt>
      <trkpt lat="42.8517020" lon="-8.5255480">
        <ele>174.9</ele>
        <time>2019-08-18T10:03:26Z</time>
      </trkpt>
      <trkpt lat="42.8517210" lon="-8.5255720">
        <ele>175.1</ele>
        <time>2019-08-18T10:03:27Z</time>
      </trkpt>
      <trkpt lat="42.8517400" lon="-8.5255960">
        <ele>175.4</ele>
        <time>2019-08-18T10:03:28Z</time>
      </trkpt>
      <trkpt lat="42.8517590" lon="-8.5256200">
        <ele>175.6</ele>
        <time>2019-08-18T10:03:29Z</time>
      </trkpt>
      <trkpt lat="42.8517770" lon="-8.5256450">
        <ele>175.8</ele>
        <time>2019-08-18T10:03:30Z</time>
      </trkpt>
      <trkpt lat="42.8517940" lon="-8.5256700">
        <ele>176.1</ele>
        <time>2019-08-18T10:03:31Z</time>
      </trkpt>
      <trkpt lat="42.8518120" lon="-8.5256950">
        <ele>176.3</ele>
        <time>2019-08-18T10:03:32Z</time>
      </trkpt>
      <trkpt lat="42.8518290" lon="-8.5257210">
        <ele>176.5</ele>
        <time>2019-08-18T10:03:33Z</time>
      </trkpt>
      <trkpt lat="42.8518460" lon="-8.5257470">
        <ele>176.8</ele>
        <time>2019-08-18T10:03:34Z</time>
      </trkpt>
      <trkpt lat="42.8518620" lon="-8.5257730">
        <ele>177.0</ele>
        <time>2019-08-18T10:03:35Z</time>
      </trkpt>
      <trkpt lat="42.8518790" lon="-8.5258000">
        <ele>177.2</ele>
        <time>2019-08-18T10:03:36Z</time>
      </trkpt>
      <trkpt lat="42.8518950" lon="-8.5258280">
        <ele>177.4</ele>
        <time>2019-08-18T10:03:37Z</time>
      </trkpt>
      <trkpt lat="42.8519110" lon="-8.5258560">
        <ele>177.7</ele>
        <time>2019-08-18T10:03:38Z</time>
      </trkpt>
      <trkpt lat="42.8519270" lon="-8.5258850">
        <ele>177.9</ele>
        <time>2019-08-18T10:03:39Z</time>
      </trkpt>
      <trkpt lat="42.8519430" lon="-8.5259140">
        <ele>178.1</ele>
        <time>2019-08-18T10:03:40Z</time>
      </trkpt>
      <trkpt lat="42.8519590" lon="-8.5259430">
        <ele>178.3</ele>
        <time>2019-08-18T10:03:41Z</time>
      </trkpt>
      <trkpt lat="42.8519740" lon="-8.5259730">
        <ele>178.6</ele>
        <time>2019-08-18T10:03:42Z</time>
      </trkpt>
      <trkpt lat="42.8519890" lon="-8.5260030">
        <ele>178.8</ele>
        <time>2019-08-18T10:03:43Z</time>
      </trkpt>
      <trkpt lat="42.8520040" lon="-8.5260340">
        <ele>179.0</ele>
        <time>2019-08-18T10:03:44Z</time>
      </trkpt>
      <trkpt lat="42.8520190" lon="-8.5260640">
        <ele>179.3</ele>
        <time>2019-08-18T10:03:45Z</time>
      </trkpt>
      <trkpt lat="42.8520330" lon="-8.5260940">
        <ele>179.5</ele>
        <time>2019-08-18T10:03:46Z</time>
      </trkpt>
      <trkpt lat="42.8520470" lon="-8.5261250">
        <ele>179.7</ele>
        <time>2019-08-18T10:03:47Z</time>
      </trkpt>
      <trkpt lat="42.8520610" lon="-8.5261550">
        <ele>179.9</ele>
        <time>2019-08-18T10:03:48Z</time>
      </trkpt>
      <trkpt lat="42.8520750" lon="-8.5261860">
        <ele>180.1</ele>
        <time>2019-08-18T10:03:49Z</time>
      </trkpt>
      <trkpt lat="42.8520890" lon="-8.5262170">
        <ele>180.3</ele>
        <time>2019-08-18T10:03:50Z</time>
      </trkpt>
      <trkpt lat="42.8521020" lon="-8.5262490">
        <ele>180.4</ele>
        <time>2019-08-18T10:03:51Z</time>
      </trkpt>
      <trkpt lat="42.8521150" lon="-8.5262810">
        <ele>180.6</ele>
        <time>2019-08-18T10:03:52Z</time>
      </trkpt>
      <trkpt lat="42.8521280" lon="-8.5263140">
        <ele>180.8</ele>
        <time>2019-08-18T10:03:53Z</time>
      </trkpt>
      <trkpt lat="42.8521410" lon="-8.5263480">
        <ele>181.0</ele>
        <time>2019-08-18T10:03:54Z</time>
      </trkpt>
      <trkpt lat="42.8521540" lon="-8.5263820">
        <ele>181.1</ele>
        <time>2019-08-18T10:03:55Z</time>
      </trkpt>
      <trkpt lat="42.8521670" lon="-8.5264170">
        <ele>181.3</ele>
        <time>2019-08-18T10:03:56Z</time>
      </trkpt>
      <trkpt lat="42.8521790" lon="-8.5264510">
        <ele>181.8</ele>
        <time>2019-08-18T10:03:57Z</time>
      </trkpt>
      <trkpt lat="42.8521900" lon="-8.5264850">
        <ele>181.9</ele>
        <time>2019-08-18T10:03:58Z</time>
      </trkpt>
      <trkpt lat="42.8522010" lon="-8.5265200">
        <ele>182.1</ele>
        <time>2019-08-18T10:03:59Z</time>
      </trkpt>
      <trkpt lat="42.8522120" lon="-8.5265530">
        <ele>182.2</ele>
        <time>2019-08-18T10:04:00Z</time>
      </trkpt>
      <trkpt lat="42.8522220" lon="-8.5265860">
        <ele>182.4</ele>
        <time>2019-08-18T10:04:01Z</time>
      </trkpt>
      <trkpt lat="42.8522320" lon="-8.5266180">
        <ele>182.5</ele>
        <time>2019-08-18T10:04:02Z</time>
      </trkpt>
      <trkpt lat="42.8522430" lon="-8.5266490">
        <ele>182.7</ele>
        <time>2019-08-18T10:04:03Z</time>
      </trkpt>
      <trkpt lat="42.8522530" lon="-8.5266780">
        <ele>182.8</ele>
        <time>2019-08-18T10:04:04Z</time>
      </trkpt>
      <trkpt lat="42.8522640" lon="-8.5267070">
        <ele>182.9</ele>
        <time>2019-08-18T10:04:05Z</time>
      </trkpt>
      <trkpt lat="42.8522750" lon="-8.5267360">
        <ele>183.0</ele>
        <time>2019-08-18T10:04:06Z</time>
      </trkpt>
      <trkpt lat="42.8522860" lon="-8.5267660">
        <ele>183.2</ele>
        <time>2019-08-18T10:04:07Z</time>
      </trkpt>
      <trkpt lat="42.8522960" lon="-8.5267960">
        <ele>183.3</ele>
        <time>2019-08-18T10:04:08Z</time>
      </trkpt>
      <trkpt lat="42.8523050" lon="-8.5268280">
        <ele>183.4</ele>
        <time>2019-08-18T10:04:09Z</time>
      </trkpt>
      <trkpt lat="42.8523150" lon="-8.5268610">
        <ele>183.6</ele>
        <time>2019-08-18T10:04:10Z</time>
      </trkpt>
      <trkpt lat="42.8523240" lon="-8.5268940">
        <ele>183.7</ele>
        <time>2019-08-18T10:04:11Z</time>
      </trkpt>
      <trkpt lat="42.8523330" lon="-8.5269290">
        <ele>183.9</ele>
        <time>2019-08-18T10:04:12Z</time>
      </trkpt>
      <trkpt lat="42.8523420" lon="-8.5269630">
        <ele>184.0</ele>
        <time>2019-08-18T10:04:13Z</time>
      </trkpt>
      <trkpt lat="42.8523510" lon="-8.5269980">
        <ele>184.2</ele>
        <time>2019-08-18T10:04:14Z</time>
      </trkpt>
      <trkpt lat="42.8523600" lon="-8.5270330">
        <ele>184.3</ele>
        <time>2019-08-18T10:04:15Z</time>
      </trkpt>
      <trkpt lat="42.8523700" lon="-8.5270690">
        <ele>184.5</ele>
        <time>2019-08-18T10:04:16Z</time>
      </trkpt>
      <trkpt lat="42.8523790" lon="-8.5271040">
        <ele>184.7</ele>
        <time>2019-08-18T10:04:17Z</time>
      </trkpt>
      <trkpt lat="42.8523890" lon="-8.5271390">
        <ele>184.9</ele>
        <time>2019-08-18T10:04:18Z</time>
      </trkpt>
      <trkpt lat="42.8524000" lon="-8.5271740">
        <ele>185.1</ele>
        <time>2019-08-18T10:04:19Z</time>
      </trkpt>
      <trkpt lat="42.8524100" lon="-8.5272080">
        <ele>185.3</ele>
        <time>2019-08-18T10:04:20Z</time>
      </trkpt>
      <trkpt lat="42.8524210" lon="-8.5272420">
        <ele>185.5</ele>
        <time>2019-08-18T10:04:21Z</time>
      </trkpt>
      <trkpt lat="42.8524320" lon="-8.5272760">
        <ele>185.7</ele>
        <time>2019-08-18T10:04:22Z</time>
      </trkpt>
      <trkpt lat="42.8524440" lon="-8.5273090">
        <ele>185.9</ele>
        <time>2019-08-18T10:04:23Z</time>
      </trkpt>
      <trkpt lat="42.8524550" lon="-8.5273420">
        <ele>186.1</ele>
        <time>2019-08-18T10:04:24Z</time>
      </trkpt>
      <trkpt lat="42.8524670" lon="-8.5273740">
        <ele>186.3</ele>
        <time>2019-08-18T10:04:25Z</time>
      </trkpt>
      <trkpt lat="42.8524800" lon="-8.5274060">
        <ele>186.5</ele>
        <time>2019-08-18T10:04:26Z</time>
      </trkpt>
      <trkpt lat="42.8524920" lon="-8.5274380">
        <ele>186.8</ele>
        <time>2019-08-18T10:04:27Z</time>
      </trkpt>
      <trkpt lat="42.8525040" lon="-8.5274690">
        <ele>187.0</ele>
        <time>2019-08-18T10:04:28Z</time>
      </trkpt>
      <trkpt lat="42.8525170" lon="-8.5275000">
        <ele>187.2</ele>
        <time>2019-08-18T10:04:29Z</time>
      </trkpt>
      <trkpt lat="42.8525290" lon="-8.5275310">
        <ele>187.5</ele>
        <time>2019-08-18T10:04:30Z</time>
      </trkpt>
      <trkpt lat="42.8525420" lon="-8.5275620">
        <ele>187.7</ele>
        <time>2019-08-18T10:04:31Z</time>
      </trkpt>
      <trkpt lat="42.8525550" lon="-8.5275930">
        <ele>188.0</ele>
        <time>2019-08-18T10:04:32Z</time>
      </trkpt>
      <trkpt lat="42.8525690" lon="-8.5276230">
        <ele>188.2</ele>
        <time>2019-08-18T10:04:33Z</time>
      </trkpt>
      <trkpt lat="42.8525830" lon="-8.5276540">
        <ele>188.5</ele>
        <time>2019-08-18T10:04:34Z</time>
      </trkpt>
      <trkpt lat="42.8525970" lon="-8.5276840">
        <ele>188.7</ele>
        <time>2019-08-18T10:04:35Z</time>
      </trkpt>
      <trkpt lat="42.8526120" lon="-8.5277140">
        <ele>188.9</ele>
        <time>2019-08-18T10:04:36Z</time>
      </trkpt>
      <trkpt lat="42.8526270" lon="-8.5277450">
        <ele>189.2</ele>
        <time>2019-08-18T10:04:37Z</time>
      </trkpt>
      <trkpt lat="42.8526430" lon="-8.5277760">
        <ele>189.5</ele>
        <time>2019-08-18T10:04:38Z</time>
      </trkpt>
      <trkpt lat="42.8526600" lon="-8.5278060">
        <ele>189.7</ele>
        <time>2019-08-18T10:04:39Z</time>
      </trkpt>
      <trkpt lat="42.8526770" lon="-8.5278360">
        <ele>190.0</ele>
        <time>2019-08-18T10:04:40Z</time>
      </trkpt>
      <trkpt lat="42.8526940" lon="-8.5278660">
        <ele>190.3</ele>
        <time>2019-08-18T10:04:41Z</time>
      </trkpt>
      <trkpt lat="42.8527120" lon="-8.5278950">
        <ele>190.6</ele>
        <time>2019-08-18T10:04:42Z</time>
      </trkpt>
      <trkpt lat="42.8527310" lon="-8.5279230">
        <ele>190.9</ele>
        <time>2019-08-18T10:04:43Z</time>
      </trkpt>
      <trkpt lat="42.8527500" lon="-8.5279510">
        <ele>191.3</ele>
        <time>2019-08-18T10:04:44Z</time>
      </trkpt>
      <trkpt lat="42.8527690" lon="-8.5279780">
        <ele>191.7</ele>
        <time>2019-08-18T10:04:45Z</time>
      </trkpt>
      <trkpt lat="42.8527890" lon="-8.5280050">
        <ele>192.1</ele>
        <time>2019-08-18T10:04:46Z</time>
      </trkpt>
      <trkpt lat="42.8528090" lon="-8.5280310">
        <ele>192.5</ele>
        <time>2019-08-18T10:04:47Z</time>
      </trkpt>
      <trkpt lat="42.8528290" lon="-8.5280560">
        <ele>192.9</ele>
        <time>2019-08-18T10:04:48Z</time>
      </trkpt>
      <trkpt lat="42.8528500" lon="-8.5280820">
        <ele>193.3</ele>
        <time>2019-08-18T10:04:49Z</time>
      </trkpt>
      <trkpt lat="42.8528710" lon="-8.5281080">
        <ele>193.7</ele>
        <time>2019-08-18T10:04:50Z</time>
      </trkpt>
      <trkpt lat="42.8528920" lon="-8.5281330">
        <ele>194.0</ele>
        <time>2019-08-18T10:04:51Z</time>
      </trkpt>
      <trkpt lat="42.8529120" lon="-8.5281590">
        <ele>194.3</ele>
        <time>2019-08-18T10:04:52Z</time>
      </trkpt>
      <trkpt lat="42.8529340" lon="-8.5281850">
        <ele>194.7</ele>
        <time>2019-08-18T10:04:53Z</time>
      </trkpt>
      <trkpt lat="42.8529550" lon="-8.5282100">
        <ele>195.2</ele>
        <time>2019-08-18T10:04:54Z</time>
      </trkpt>
      <trkpt lat="42.8529760" lon="-8.5282360">
        <ele>195.4</ele>
        <time>2019-08-18T10:04:55Z</time>
      </trkpt>
      <trkpt lat="42.8529970" lon="-8.5282620">
        <ele>195.6</ele>
        <time>2019-08-18T10:04:56Z</time>
      </trkpt>
      <trkpt lat="42.8530180" lon="-8.5282880">
        <ele>195.8</ele>
        <time>2019-08-18T10:04:57Z</time>
      </trkpt>
      <trkpt lat="42.8530400" lon="-8.5283130">
        <ele>196.0</ele>
        <time>2019-08-18T10:04:58Z</time>
      </trkpt>
      <trkpt lat="42.8530610" lon="-8.5283390">
        <ele>196.2</ele>
        <time>2019-08-18T10:04:59Z</time>
      </trkpt>
      <trkpt lat="42.8530830" lon="-8.5283640">
        <ele>196.4</ele>
        <time>2019-08-18T10:05:00Z</time>
      </trkpt>
      <trkpt lat="42.8531040" lon="-8.5283890">
        <ele>196.6</ele>
        <time>2019-08-18T10:05:01Z</time>
      </trkpt>
      <trkpt lat="42.8531260" lon="-8.5284150">
        <ele>196.8</ele>
        <time>2019-08-18T10:05:02Z</time>
      </trkpt>
      <trkpt lat="42.8531470" lon="-8.5284390">
        <ele>197.0</ele>
        <time>2019-08-18T10:05:03Z</time>
      </trkpt>
      <trkpt lat="42.8531690" lon="-8.5284640">
        <ele>197.2</ele>
        <time>2019-08-18T10:05:04Z</time>
      </trkpt>
      <trkpt lat="42.8531900" lon="-8.5284890">
        <ele>197.4</ele>
        <time>2019-08-18T10:05:05Z</time>
      </trkpt>
      <trkpt lat="42.8532120" lon="-8.5285140">
        <ele>197.6</ele>
        <time>2019-08-18T10:05:06Z</time>
      </trkpt>
      <trkpt lat="42.8532340" lon="-8.5285380">
        <ele>197.9</ele>
        <time>2019-08-18T10:05:07Z</time>
      </trkpt>
      <trkpt lat="42.8532550" lon="-8.5285630">
        <ele>198.1</ele>
        <time>2019-08-18T10:05:08Z</time>
      </trkpt>
      <trkpt lat="42.8532770" lon="-8.5285870">
        <ele>198.3</ele>
        <time>2019-08-18T10:05:09Z</time>
      </trkpt>
      <trkpt lat="42.8532980" lon="-8.5286120">
        <ele>198.5</ele>
        <time>2019-08-18T10:05:10Z</time>
      </trkpt>
      <trkpt lat="42.8533200" lon="-8.5286360">
        <ele>198.7</ele>
        <time>2019-08-18T10:05:11Z</time>
      </trkpt>
      <trkpt lat="42.8533420" lon="-8.5286600">
        <ele>198.9</ele>
        <time>2019-08-18T10:05:12Z</time>
      </trkpt>
      <trkpt lat="42.8533630" lon="-8.5286840">
        <ele>199.1</ele>
        <time>2019-08-18T10:05:13Z</time>
      </trkpt>
      <trkpt lat="42.8533850" lon="-8.5287080">
        <ele>199.3</ele>
        <time>2019-08-18T10:05:14Z</time>
      </trkpt>
      <trkpt lat="42.8534060" lon="-8.5287320">
        <ele>199.5</ele>
        <time>2019-08-18T10:05:15Z</time>
      </trkpt>
      <trkpt lat="42.8534270" lon="-8.5287570">
        <ele>199.7</ele>
        <time>2019-08-18T10:05:16Z</time>
      </trkpt>
      <trkpt lat="42.8534480" lon="-8.5287810">
        <ele>199.9</ele>
        <time>2019-08-18T10:05:17Z</time>
      </trkpt>
      <trkpt lat="42.8534690" lon="-8.5288050">
        <ele>200.1</ele>
        <time>2019-08-18T10:05:18Z</time>
      </trkpt>
      <trkpt lat="42.8534900" lon="-8.5288300">
        <ele>200.4</ele>
        <time>2019-08-18T10:05:19Z</time>
      </trkpt>
      <trkpt lat="42.8535110" lon="-8.5288540">
        <ele>200.8</ele>
        <time>2019-08-18T10:05:20Z</time>
      </trkpt>
      <trkpt lat="42.8535310" lon="-8.5288790">
        <ele>201.1</ele>
        <time>2019-08-18T10:05:21Z</time>
      </trkpt>
      <trkpt lat="42.8535510" lon="-8.5289040">
        <ele>201.6</ele>
        <time>2019-08-18T10:05:22Z</time>
      </trkpt>
      <trkpt lat="42.8535710" lon="-8.5289300">
        <ele>202.2</ele>
        <time>2019-08-18T10:05:23Z</time>
      </trkpt>
      <trkpt lat="42.8535900" lon="-8.5289550">
        <ele>202.7</ele>
        <time>2019-08-18T10:05:24Z</time>
      </trkpt>
      <trkpt lat="42.8536090" lon="-8.5289810">
        <ele>203.1</ele>
        <time>2019-08-18T10:05:25Z</time>
      </trkpt>
      <trkpt lat="42.8536280" lon="-8.5290080">
        <ele>203.4</ele>
        <time>2019-08-18T10:05:26Z</time>
      </trkpt>
      <trkpt lat="42.8536460" lon="-8.5290350">
        <ele>203.8</ele>
        <time>2019-08-18T10:05:27Z</time>
      </trkpt>
      <trkpt lat="42.8536630" lon="-8.5290620">
        <ele>204.2</ele>
        <time>2019-08-18T10:05:28Z</time>
      </trkpt>
      <trkpt lat="42.8536810" lon="-8.5290890">
        <ele>204.6</ele>
        <time>2019-08-18T10:05:29Z</time>
      </trkpt>
      <trkpt lat="42.8536980" lon="-8.5291170">
        <ele>205.0</ele>
        <time>2019-08-18T10:05:30Z</time>
      </trkpt>
      <trkpt lat="42.8537150" lon="-8.5291450">
        <ele>205.5</ele>
        <time>2019-08-18T10:05:31Z</time>
      </trkpt>
      <trkpt lat="42.8537320" lon="-8.5291720">
        <ele>205.8</ele>
        <time>2019-08-18T10:05:32Z</time>
      </trkpt>
      <trkpt lat="42.8537490" lon="-8.5291980">
        <ele>206.1</ele>
        <time>2019-08-18T10:05:33Z</time>
      </trkpt>
      <trkpt lat="42.8537660" lon="-8.5292240">
        <ele>206.4</ele>
        <time>2019-08-18T10:05:34Z</time>
      </trkpt>
      <trkpt lat="42.8537840" lon="-8.5292490">
        <ele>206.7</ele>
        <time>2019-08-18T10:05:35Z</time>
      </trkpt>
      <trkpt lat="42.8538020" lon="-8.5292730">
        <ele>207.0</ele>
        <time>2019-08-18T10:05:36Z</time>
      </trkpt>
      <trkpt lat="42.8538200" lon="-8.5292970">
        <ele>207.3</ele>
        <time>2019-08-18T10:05:37Z</time>
      </trkpt>
      <trkpt lat="42.8538370" lon="-8.5293200">
        <ele>207.4</ele>
        <time>2019-08-18T10:05:38Z</time>
      </trkpt>
      <trkpt lat="42.8538520" lon="-8.5293440">
        <ele>207.5</ele>
        <time>2019-08-18T10:05:39Z</time>
      </trkpt>
      <trkpt lat="42.8538660" lon="-8.5293680">
        <ele>207.5</ele>
        <time>2019-08-18T10:05:40Z</time>
      </trkpt>
      <trkpt lat="42.8538790" lon="-8.5293920">
        <ele>207.6</ele>
        <time>2019-08-18T10:05:41Z</time>
      </trkpt>
      <trkpt lat="42.8538910" lon="-8.5294160">
        <ele>207.6</ele>
        <time>2019-08-18T10:05:42Z</time>
      </trkpt>
      <trkpt lat="42.8539030" lon="-8.5294390">
        <ele>207.7</ele>
        <time>2019-08-18T10:05:43Z</time>
      </trkpt>
      <trkpt lat="42.8539170" lon="-8.5294620">
        <ele>207.8</ele>
        <time>2019-08-18T10:05:44Z</time>
      </trkpt>
      <trkpt lat="42.8539310" lon="-8.5294850">
        <ele>207.8</ele>
        <time>2019-08-18T10:05:45Z</time>
      </trkpt>
      <trkpt lat="42.8539450" lon="-8.5295070">
        <ele>207.9</ele>
        <time>2019-08-18T10:05:46Z</time>
      </trkpt>
      <trkpt lat="42.8539600" lon="-8.5295300">
        <ele>207.9</ele>
        <time>2019-08-18T10:05:47Z</time>
      </trkpt>
      <trkpt lat="42.8539760" lon="-8.5295520">
        <ele>208.0</ele>
        <time>2019-08-18T10:05:48Z</time>
      </trkpt>
      <trkpt lat="42.8539930" lon="-8.5295740">
        <ele>208.0</ele>
        <time>2019-08-18T10:05:49Z</time>
      </trkpt>
      <trkpt lat="42.8540100" lon="-8.5295970">
        <ele>208.1</ele>
        <time>2019-08-18T10:05:50Z</time>
      </trkpt>
      <trkpt lat="42.8540280" lon="-8.5296200">
        <ele>208.1</ele>
        <time>2019-08-18T10:05:51Z</time>
      </trkpt>
      <trkpt lat="42.8540470" lon="-8.5296430">
        <ele>208.2</ele>
        <time>2019-08-18T10:05:52Z</time>
      </trkpt>
      <trkpt lat="42.8540660" lon="-8.5296650">
        <ele>208.2</ele>
        <time>2019-08-18T10:05:53Z</time>
      </trkpt>
      <trkpt lat="42.8540850" lon="-8.5296870">
        <ele>208.2</ele>
        <time>2019-08-18T10:05:54Z</time>
      </trkpt>
      <trkpt lat="42.8541050" lon="-8.5297070">
        <ele>208.3</ele>
        <time>2019-08-18T10:05:55Z</time>
      </trkpt>
      <trkpt lat="42.8541250" lon="-8.5297260">
        <ele>208.3</ele>
        <time>2019-08-18T10:05:56Z</time>
      </trkpt>
      <trkpt lat="42.8541450" lon="-8.5297430">
        <ele>208.4</ele>
        <time>2019-08-18T10:05:57Z</time>
      </trkpt>
      <trkpt lat="42.8541660" lon="-8.5297590">
        <ele>208.4</ele>
        <time>2019-08-18T10:05:58Z</time>
      </trkpt>
      <trkpt lat="42.8541870" lon="-8.5297740">
        <ele>208.5</ele>
        <time>2019-08-18T10:05:59Z</time>
      </trkpt>
      <trkpt lat="42.8542080" lon="-8.5297870">
        <ele>208.5</ele>
        <time>2019-08-18T10:06:00Z</time>
      </trkpt>
      <trkpt lat="42.8542290" lon="-8.5298000">
        <ele>208.6</ele>
        <time>2019-08-18T10:06:01Z</time>
      </trkpt>
      <trkpt lat="42.8542510" lon="-8.5298130">
        <ele>208.6</ele>
        <time>2019-08-18T10:06:02Z</time>
      </trkpt>
      <trkpt lat="42.8542730" lon="-8.5298250">
        <ele>208.7</ele>
        <time>2019-08-18T10:06:03Z</time>
      </trkpt>
      <trkpt lat="42.8542950" lon="-8.5298380">
        <ele>208.7</ele>
        <time>2019-08-18T10:06:04Z</time>
      </trkpt>
      <trkpt lat="42.8543180" lon="-8.5298510">
        <ele>208.7</ele>
        <time>2019-08-18T10:06:05Z</time>
      </trkpt>
      <trkpt lat="42.8543410" lon="-8.5298630">
        <ele>208.8</ele>
        <time>2019-08-18T10:06:06Z</time>
      </trkpt>
      <trkpt lat="42.8543650" lon="-8.5298760">
        <ele>208.8</ele>
        <time>2019-08-18T10:06:07Z</time>
      </trkpt>
      <trkpt lat="42.8543880" lon="-8.5298900">
        <ele>208.9</ele>
        <time>2019-08-18T10:06:08Z</time>
      </trkpt>
      <trkpt lat="42.8544120" lon="-8.5299030">
        <ele>208.9</ele>
        <time>2019-08-18T10:06:09Z</time>
      </trkpt>
      <trkpt lat="42.8544370" lon="-8.5299160">
        <ele>209.0</ele>
        <time>2019-08-18T10:06:10Z</time>
      </trkpt>
      <trkpt lat="42.8544610" lon="-8.5299300">
        <ele>209.0</ele>
        <time>2019-08-18T10:06:11Z</time>
      </trkpt>
      <trkpt lat="42.8544860" lon="-8.5299430">
        <ele>209.0</ele>
        <time>2019-08-18T10:06:12Z</time>
      </trkpt>
      <trkpt lat="42.8545110" lon="-8.5299560">
        <ele>209.1</ele>
        <time>2019-08-18T10:06:13Z</time>
      </trkpt>
      <trkpt lat="42.8545360" lon="-8.5299700">
        <ele>209.1</ele>
        <time>2019-08-18T10:06:14Z</time>
      </trkpt>
      <trkpt lat="42.8545610" lon="-8.5299830">
        <ele>209.2</ele>
        <time>2019-08-18T10:06:15Z</time>
      </trkpt>
      <trkpt lat="42.8545860" lon="-8.5299970">
        <ele>209.2</ele>
        <time>2019-08-18T10:06:16Z</time>
      </trkpt>
      <trkpt lat="42.8546110" lon="-8.5300110">
        <ele>209.3</ele>
        <time>2019-08-18T10:06:17Z</time>
      </trkpt>
      <trkpt lat="42.8546360" lon="-8.5300250">
        <ele>209.3</ele>
        <time>2019-08-18T10:06:18Z</time>
      </trkpt>
      <trkpt lat="42.8546610" lon="-8.5300400">
        <ele>209.3</ele>
        <time>2019-08-18T10:06:19Z</time>
      </trkpt>
      <trkpt lat="42.8546860" lon="-8.5300540">
        <ele>209.3</ele>
        <time>2019-08-18T10:06:20Z</time>
      </trkpt>
      <trkpt lat="42.8547100" lon="-8.5300700">
        <ele>209.4</ele>
        <time>2019-08-18T10:06:21Z</time>
      </trkpt>
      <trkpt lat="42.8547350" lon="-8.5300850">
        <ele>209.4</ele>
        <time>2019-08-18T10:06:22Z</time>
      </trkpt>
      <trkpt lat="42.8547590" lon="-8.5301020">
        <ele>209.4</ele>
        <time>2019-08-18T10:06:23Z</time>
      </trkpt>
      <trkpt lat="42.8547820" lon="-8.5301180">
        <ele>209.5</ele>
        <time>2019-08-18T10:06:24Z</time>
      </trkpt>
      <trkpt lat="42.8548060" lon="-8.5301360">
        <ele>209.5</ele>
        <time>2019-08-18T10:06:25Z</time>
      </trkpt>
      <trkpt lat="42.8548280" lon="-8.5301540">
        <ele>209.5</ele>
        <time>2019-08-18T10:06:26Z</time>
      </trkpt>
      <trkpt lat="42.8548510" lon="-8.5301730">
        <ele>209.6</ele>
        <time>2019-08-18T10:06:27Z</time>
      </trkpt>
      <trkpt lat="42.8548730" lon="-8.5301930">
        <ele>209.6</ele>
        <time>2019-08-18T10:06:28Z</time>
      </trkpt>
      <trkpt lat="42.8548950" lon="-8.5302150">
        <ele>209.6</ele>
        <time>2019-08-18T10:06:29Z</time>
      </trkpt>
      <trkpt lat="42.8549160" lon="-8.5302380">
        <ele>209.6</ele>
        <time>2019-08-18T10:06:30Z</time>
      </trkpt>
      <trkpt lat="42.8549370" lon="-8.5302620">
        <ele>209.7</ele>
        <time>2019-08-18T10:06:31Z</time>
      </trkpt>
      <trkpt lat="42.8549580" lon="-8.5302890">
        <ele>209.7</ele>
        <time>2019-08-18T10:06:32Z</time>
      </trkpt>
      <trkpt lat="42.8549780" lon="-8.5303190">
        <ele>209.7</ele>
        <time>2019-08-18T10:06:33Z</time>
      </trkpt>
      <trkpt lat="42.8549990" lon="-8.5303500">
        <ele>209.7</ele>
        <time>2019-08-18T10:06:34Z</time>
      </trkpt>
      <trkpt lat="42.8550200" lon="-8.5303830">
        <ele>209.7</ele>
        <time>2019-08-18T10:06:35Z</time>
      </trkpt>
      <trkpt lat="42.8550410" lon="-8.5304170">
        <ele>209.7</ele>
        <time>2019-08-18T10:06:36Z</time>
      </trkpt>
      <trkpt lat="42.8550630" lon="-8.5304500">
        <ele>209.7</ele>
        <time>2019-08-18T10:06:37Z</time>
      </trkpt>
      <trkpt lat="42.8550860" lon="-8.5304810">
        <ele>209.7</ele>
        <time>2019-08-18T10:06:38Z</time>
      </trkpt>
      <trkpt lat="42.8551100" lon="-8.5305110">
        <ele>209.6</ele>
        <time>2019-08-18T10:06:39Z</time>
      </trkpt>
      <trkpt lat="42.8551360" lon="-8.5305370">
        <ele>209.6</ele>
        <time>2019-08-18T10:06:40Z</time>
      </trkpt>
      <trkpt lat="42.8551640" lon="-8.5305590">
        <ele>209.5</ele>
        <time>2019-08-18T10:06:41Z</time>
      </trkpt>
      <trkpt lat="42.8551940" lon="-8.5305780">
        <ele>209.7</ele>
        <time>2019-08-18T10:06:42Z</time>
      </trkpt>
      <trkpt lat="42.8552250" lon="-8.5305950">
        <ele>209.9</ele>
        <time>2019-08-18T10:06:43Z</time>
      </trkpt>
      <trkpt lat="42.8552560" lon="-8.5306110">
        <ele>210.1</ele>
        <time>2019-08-18T10:06:44Z</time>
      </trkpt>
      <trkpt lat="42.8552880" lon="-8.5306270">
        <ele>210.4</ele>
        <time>2019-08-18T10:06:45Z</time>
      </trkpt>
      <trkpt lat="42.8553200" lon="-8.5306440">
        <ele>210.6</ele>
        <time>2019-08-18T10:06:46Z</time>
      </trkpt>
      <trkpt lat="42.8553510" lon="-8.5306630">
        <ele>210.7</ele>
        <time>2019-08-18T10:06:47Z</time>
      </trkpt>
      <trkpt lat="42.8553810" lon="-8.5306860">
        <ele>210.9</ele>
        <time>2019-08-18T10:06:48Z</time>
      </trkpt>
      <trkpt lat="42.8554090" lon="-8.5307130">
        <ele>211.1</ele>
        <time>2019-08-18T10:06:49Z</time>
      </trkpt>
      <trkpt lat="42.8554360" lon="-8.5307440">
        <ele>211.2</ele>
        <time>2019-08-18T10:06:50Z</time>
      </trkpt>
      <trkpt lat="42.8554610" lon="-8.5307790">
        <ele>211.4</ele>
        <time>2019-08-18T10:06:51Z</time>
      </trkpt>
      <trkpt lat="42.8554830" lon="-8.5308170">
        <ele>211.6</ele>
        <time>2019-08-18T10:06:52Z</time>
      </trkpt>
      <trkpt lat="42.8555030" lon="-8.5308580">
        <ele>211.7</ele>
        <time>2019-08-18T10:06:53Z</time>
      </trkpt>
      <trkpt lat="42.8555210" lon="-8.5309010">
        <ele>211.9</ele>
        <time>2019-08-18T10:06:54Z</time>
      </trkpt>
      <trkpt lat="42.8555360" lon="-8.5309460">
        <ele>212.1</ele>
        <time>2019-08-18T10:06:55Z</time>
      </trkpt>
      <trkpt lat="42.8555480" lon="-8.5309940">
        <ele>212.3</ele>
        <time>2019-08-18T10:06:56Z</time>
      </trkpt>
      <trkpt lat="42.8555580" lon="-8.5310430">
        <ele>212.4</ele>
        <time>2019-08-18T10:06:57Z</time>
      </trkpt>
      <trkpt lat="42.8555650" lon="-8.5310930">
        <ele>212.6</ele>
        <time>2019-08-18T10:06:58Z</time>
      </trkpt>
      <trkpt lat="42.8555690" lon="-8.5311460">
        <ele>213.0</ele>
        <time>2019-08-18T10:06:59Z</time>
      </trkpt>
      <trkpt lat="42.8555710" lon="-8.5311990">
        <ele>213.0</ele>
        <time>2019-08-18T10:07:00Z</time>
      </trkpt>
      <trkpt lat="42.8555730" lon="-8.5312530">
        <ele>213.0</ele>
        <time>2019-08-18T10:07:01Z</time>
      </trkpt>
      <trkpt lat="42.8555760" lon="-8.5313060">
        <ele>213.1</ele>
        <time>2019-08-18T10:07:02Z</time>
      </trkpt>
      <trkpt lat="42.8555820" lon="-8.5313550">
        <ele>213.1</ele>
        <time>2019-08-18T10:07:03Z</time>
      </trkpt>
      <trkpt lat="42.8555940" lon="-8.5314010">
        <ele>213.2</ele>
        <time>2019-08-18T10:07:04Z</time>
      </trkpt>
      <trkpt lat="42.8556100" lon="-8.5314420">
        <ele>213.2</ele>
        <time>2019-08-18T10:07:05Z</time>
      </trkpt>
      <trkpt lat="42.8556300" lon="-8.5314790">
        <ele>213.2</ele>
        <time>2019-08-18T10:07:06Z</time>
      </trkpt>
      <trkpt lat="42.8556520" lon="-8.5315130">
        <ele>213.3</ele>
        <time>2019-08-18T10:07:07Z</time>
      </trkpt>
      <trkpt lat="42.8556760" lon="-8.5315440">
        <ele>213.3</ele>
        <time>2019-08-18T10:07:08Z</time>
      </trkpt>
      <trkpt lat="42.8556990" lon="-8.5315720">
        <ele>213.4</ele>
        <time>2019-08-18T10:07:09Z</time>
      </trkpt>
      <trkpt lat="42.8557230" lon="-8.5315970">
        <ele>213.4</ele>
        <time>2019-08-18T10:07:10Z</time>
      </trkpt>
      <trkpt lat="42.8557450" lon="-8.5316180">
        <ele>213.5</ele>
        <time>2019-08-18T10:07:11Z</time>
      </trkpt>
      <trkpt lat="42.8557670" lon="-8.5316380">
        <ele>213.6</ele>
        <time>2019-08-18T10:07:12Z</time>
      </trkpt>
      <trkpt lat="42.8557880" lon="-8.5316560">
        <ele>213.6</ele>
        <time>2019-08-18T10:07:13Z</time>
      </trkpt>
      <trkpt lat="42.8558090" lon="-8.5316750">
        <ele>213.7</ele>
        <time>2019-08-18T10:07:14Z</time>
      </trkpt>
      <trkpt lat="42.8558300" lon="-8.5316960">
        <ele>213.8</ele>
        <time>2019-08-18T10:07:15Z</time>
      </trkpt>
      <trkpt lat="42.8558510" lon="-8.5317180">
        <ele>213.9</ele>
        <time>2019-08-18T10:07:16Z</time>
      </trkpt>
      <trkpt lat="42.8558710" lon="-8.5317380">
        <ele>214.0</ele>
        <time>2019-08-18T10:07:17Z</time>
      </trkpt>
      <trkpt lat="42.8558900" lon="-8.5317570">
        <ele>214.2</ele>
        <time>2019-08-18T10:07:18Z</time>
      </trkpt>
      <trkpt lat="42.8559090" lon="-8.5317730">
        <ele>214.3</ele>
        <time>2019-08-18T10:07:19Z</time>
      </trkpt>
      <trkpt lat="42.8559280" lon="-8.5317860">
        <ele>214.4</ele>
        <time>2019-08-18T10:07:20Z</time>
      </trkpt>
      <trkpt lat="42.8559480" lon="-8.5317970">
        <ele>214.5</ele>
        <time>2019-08-18T10:07:21Z</time>
      </trkpt>
      <trkpt lat="42.8559690" lon="-8.5318060">
        <ele>214.7</ele>
        <time>2019-08-18T10:07:22Z</time>
      </trkpt>
      <trkpt lat="42.8559920" lon="-8.5318120">
        <ele>214.8</ele>
        <time>2019-08-18T10:07:23Z</time>
      </trkpt>
      <trkpt lat="42.8560150" lon="-8.5318180">
        <ele>215.0</ele>
        <time>2019-08-18T10:07:24Z</time>
      </trkpt>
      <trkpt lat="42.8560390" lon="-8.5318230">
        <ele>215.2</ele>
        <time>2019-08-18T10:07:25Z</time>
      </trkpt>
      <trkpt lat="42.8560630" lon="-8.5318270">
        <ele>215.3</ele>
        <time>2019-08-18T10:07:26Z</time>
      </trkpt>
      <trkpt lat="42.8560880" lon="-8.5318310">
        <ele>215.5</ele>
        <time>2019-08-18T10:07:27Z</time>
      </trkpt>
      <trkpt lat="42.8561130" lon="-8.5318350">
        <ele>215.7</ele>
        <time>2019-08-18T10:07:28Z</time>
      </trkpt>
      <trkpt lat="42.8561380" lon="-8.5318390">
        <ele>215.9</ele>
        <time>2019-08-18T10:07:29Z</time>
      </trkpt>
      <trkpt lat="42.8561630" lon="-8.5318440">
        <ele>216.1</ele>
        <time>2019-08-18T10:07:30Z</time>
      </trkpt>
      <trkpt lat="42.8561880" lon="-8.5318490">
        <ele>216.3</ele>
        <time>2019-08-18T10:07:31Z</time>
      </trkpt>
      <trkpt lat="42.8562130" lon="-8.5318550">
        <ele>216.4</ele>
        <time>2019-08-18T10:07:32Z</time>
      </trkpt>
      <trkpt lat="42.8562380" lon="-8.5318620">
        <ele>216.6</ele>
        <time>2019-08-18T10:07:33Z</time>
      </trkpt>
      <trkpt lat="42.8562630" lon="-8.5318690">
        <ele>216.8</ele>
        <time>2019-08-18T10:07:34Z</time>
      </trkpt>
      <trkpt lat="42.8562880" lon="-8.5318780">
        <ele>217.0</ele>
        <time>2019-08-18T10:07:35Z</time>
      </trkpt>
      <trkpt lat="42.8563130" lon="-8.5318880">
        <ele>217.2</ele>
        <time>2019-08-18T10:07:36Z</time>
      </trkpt>
      <trkpt lat="42.8563370" lon="-8.5319000">
        <ele>217.2</ele>
        <time>2019-08-18T10:07:37Z</time>
      </trkpt>
      <trkpt lat="42.8563600" lon="-8.5319140">
        <ele>217.2</ele>
        <time>2019-08-18T10:07:38Z</time>
      </trkpt>
      <trkpt lat="42.8563830" lon="-8.5319290">
        <ele>217.3</ele>
        <time>2019-08-18T10:07:39Z</time>
      </trkpt>
      <trkpt lat="42.8564060" lon="-8.5319470">
        <ele>217.3</ele>
        <time>2019-08-18T10:07:40Z</time>
      </trkpt>
      <trkpt lat="42.8564270" lon="-8.5319670">
        <ele>217.4</ele>
        <time>2019-08-18T10:07:41Z</time>
      </trkpt>
      <trkpt lat="42.8564480" lon="-8.5319890">
        <ele>217.4</ele>
        <time>2019-08-18T10:07:42Z</time>
      </trkpt>
      <trkpt lat="42.8564660" lon="-8.5320150">
        <ele>217.5</ele>
        <time>2019-08-18T10:07:43Z</time>
      </trkpt>
      <trkpt lat="42.8564830" lon="-8.5320440">
        <ele>217.5</ele>
        <time>2019-08-18T10:07:44Z</time>
      </trkpt>
      <trkpt lat="42.8564980" lon="-8.5320740">
        <ele>217.6</ele>
        <time>2019-08-18T10:07:45Z</time>
      </trkpt>
      <trkpt lat="42.8565130" lon="-8.5321070">
        <ele>217.7</ele>
        <time>2019-08-18T10:07:46Z</time>
      </trkpt>
      <trkpt lat="42.8565280" lon="-8.5321390">
        <ele>217.7</ele>
        <time>2019-08-18T10:07:47Z</time>
      </trkpt>
      <trkpt lat="42.8565450" lon="-8.5321700">
        <ele>217.8</ele>
        <time>2019-08-18T10:07:48Z</time>
      </trkpt>
      <trkpt lat="42.8565630" lon="-8.5321990">
        <ele>217.8</ele>
        <time>2019-08-18T10:07:49Z</time>
      </trkpt>
      <trkpt lat="42.8565830" lon="-8.5322260">
        <ele>217.9</ele>
        <time>2019-08-18T10:07:50Z</time>
      </trkpt>
      <trkpt lat="42.8566070" lon="-8.5322490">
        <ele>217.9</ele>
        <time>2019-08-18T10:07:51Z</time>
      </trkpt>
      <trkpt lat="42.8566310" lon="-8.5322710">
        <ele>218.0</ele>
        <time>2019-08-18T10:07:52Z</time>
      </trkpt>
      <trkpt lat="42.8566560" lon="-8.5322920">
        <ele>218.1</ele>
        <time>2019-08-18T10:07:53Z</time>
      </trkpt>
      <trkpt lat="42.8566780" lon="-8.5323160">
        <ele>218.2</ele>
        <time>2019-08-18T10:07:54Z</time>
      </trkpt>
      <trkpt lat="42.8566990" lon="-8.5323410">
        <ele>218.2</ele>
        <time>2019-08-18T10:07:55Z</time>
      </trkpt>
      <trkpt lat="42.8567170" lon="-8.5323680">
        <ele>218.3</ele>
        <time>2019-08-18T10:07:56Z</time>
      </trkpt>
      <trkpt lat="42.8567340" lon="-8.5323940">
        <ele>218.4</ele>
        <time>2019-08-18T10:07:57Z</time>
      </trkpt>
      <trkpt lat="42.8567490" lon="-8.5324210">
        <ele>218.5</ele>
        <time>2019-08-18T10:07:58Z</time>
      </trkpt>
      <trkpt lat="42.8567640" lon="-8.5324470">
        <ele>218.6</ele>
        <time>2019-08-18T10:07:59Z</time>
      </trkpt>
      <trkpt lat="42.8567780" lon="-8.5324720">
        <ele>218.7</ele>
        <time>2019-08-18T10:08:00Z</time>
      </trkpt>
      <trkpt lat="42.8567920" lon="-8.5324980">
        <ele>218.8</ele>
        <time>2019-08-18T10:08:01Z</time>
      </trkpt>
      <trkpt lat="42.8568070" lon="-8.5325230">
        <ele>218.9</ele>
        <time>2019-08-18T10:08:02Z</time>
      </trkpt>
      <trkpt lat="42.8568230" lon="-8.5325480">
        <ele>219.0</ele>
        <time>2019-08-18T10:08:03Z</time>
      </trkpt>
      <trkpt lat="42.8568390" lon="-8.5325720">
        <ele>219.2</ele>
        <time>2019-08-18T10:08:04Z</time>
      </trkpt>
      <trkpt lat="42.8568570" lon="-8.5325970">
        <ele>219.3</ele>
        <time>2019-08-18T10:08:05Z</time>
      </trkpt>
      <trkpt lat="42.8568740" lon="-8.5326210">
        <ele>219.4</ele>
        <time>2019-08-18T10:08:06Z</time>
      </trkpt>
      <trkpt lat="42.8568920" lon="-8.5326450">
        <ele>219.6</ele>
        <time>2019-08-18T10:08:07Z</time>
      </trkpt>
      <trkpt lat="42.8569100" lon="-8.5326680">
        <ele>219.7</ele>
        <time>2019-08-18T10:08:08Z</time>
      </trkpt>
      <trkpt lat="42.8569280" lon="-8.5326910">
        <ele>219.8</ele>
        <time>2019-08-18T10:08:09Z</time>
      </trkpt>
      <trkpt lat="42.8569460" lon="-8.5327140">
        <ele>219.9</ele>
        <time>2019-08-18T10:08:10Z</time>
      </trkpt>
      <trkpt lat="42.8569640" lon="-8.5327370">
        <ele>220.0</ele>
        <time>2019-08-18T10:08:11Z</time>
      </trkpt>
      <trkpt lat="42.8569820" lon="-8.5327610">
        <ele>220.2</ele>
        <time>2019-08-18T10:08:12Z</time>
      </trkpt>
      <trkpt lat="42.8570000" lon="-8.5327840">
        <ele>220.3</ele>
        <time>2019-08-18T10:08:13Z</time>
      </trkpt>
      <trkpt lat="42.8570180" lon="-8.5328080">
        <ele>220.4</ele>
        <time>2019-08-18T10:08:14Z</time>
      </trkpt>
      <trkpt lat="42.8570360" lon="-8.5328320">
        <ele>220.5</ele>
        <time>2019-08-18T10:08:15Z</time>
      </trkpt>
      <trkpt lat="42.8570540" lon="-8.5328570">
        <ele>220.6</ele>
        <time>2019-08-18T10:08:16Z</time>
      </trkpt>
      <trkpt lat="42.8570720" lon="-8.5328830">
        <ele>220.7</ele>
        <time>2019-08-18T10:08:17Z</time>
      </trkpt>
      <trkpt lat="42.8570910" lon="-8.5329110">
        <ele>220.8</ele>
        <time>2019-08-18T10:08:18Z</time>
      </trkpt>
      <trkpt lat="42.8571100" lon="-8.5329400">
        <ele>220.9</ele>
        <time>2019-08-18T10:08:19Z</time>
      </trkpt>
      <trkpt lat="42.8571310" lon="-8.5329710">
        <ele>221.1</ele>
        <time>2019-08-18T10:08:20Z</time>
      </trkpt>
      <trkpt lat="42.8571520" lon="-8.5329990">
        <ele>221.2</ele>
        <time>2019-08-18T10:08:54Z</time>
      </trkpt>
      <trkpt lat="42.8571710" lon="-8.5330310">
        <ele>221.3</ele>
        <time>2019-08-18T10:08:55Z</time>
      </trkpt>
      <trkpt lat="42.8571900" lon="-8.5330630">
        <ele>221.4</ele>
        <time>2019-08-18T10:08:56Z</time>
      </trkpt>
      <trkpt lat="42.8572080" lon="-8.5330930">
        <ele>221.6</ele>
        <time>2019-08-18T10:08:57Z</time>
      </trkpt>
      <trkpt lat="42.8572260" lon="-8.5331230">
        <ele>221.7</ele>
        <time>2019-08-18T10:08:58Z</time>
      </trkpt>
      <trkpt lat="42.8572440" lon="-8.5331530">
        <ele>221.8</ele>
        <time>2019-08-18T10:08:59Z</time>
      </trkpt>
      <trkpt lat="42.8572610" lon="-8.5331810">
        <ele>221.9</ele>
        <time>2019-08-18T10:09:00Z</time>
      </trkpt>
      <trkpt lat="42.8572780" lon="-8.5332090">
        <ele>222.0</ele>
        <time>2019-08-18T10:09:01Z</time>
      </trkpt>
      <trkpt lat="42.8572950" lon="-8.5332360">
        <ele>222.6</ele>
        <time>2019-08-18T10:09:02Z</time>
      </trkpt>
      <trkpt lat="42.8573120" lon="-8.5332630">
        <ele>222.8</ele>
        <time>2019-08-18T10:09:03Z</time>
      </trkpt>
      <trkpt lat="42.8573280" lon="-8.5332900">
        <ele>223.0</ele>
        <time>2019-08-18T10:09:04Z</time>
      </trkpt>
      <trkpt lat="42.8573440" lon="-8.5333170">
        <ele>223.4</ele>
        <time>2019-08-18T10:09:05Z</time>
      </trkpt>
      <trkpt lat="42.8573600" lon="-8.5333430">
        <ele>223.6</ele>
        <time>2019-08-18T10:09:06Z</time>
      </trkpt>
      <trkpt lat="42.8573760" lon="-8.5333700">
        <ele>223.9</ele>
        <time>2019-08-18T10:09:07Z</time>
      </trkpt>
      <trkpt lat="42.8573910" lon="-8.5333970">
        <ele>224.2</ele>
        <time>2019-08-18T10:09:08Z</time>
      </trkpt>
      <trkpt lat="42.8574070" lon="-8.5334240">
        <ele>224.4</ele>
        <time>2019-08-18T10:09:09Z</time>
      </trkpt>
      <trkpt lat="42.8574220" lon="-8.5334520">
        <ele>224.7</ele>
        <time>2019-08-18T10:09:10Z</time>
      </trkpt>
      <trkpt lat="42.8574370" lon="-8.5334800">
        <ele>225.0</ele>
        <time>2019-08-18T10:09:11Z</time>
      </trkpt>
      <trkpt lat="42.8574530" lon="-8.5335090">
        <ele>225.2</ele>
        <time>2019-08-18T10:09:12Z</time>
      </trkpt>
      <trkpt lat="42.8574680" lon="-8.5335380">
        <ele>225.5</ele>
        <time>2019-08-18T10:09:13Z</time>
      </trkpt>
      <trkpt lat="42.8574820" lon="-8.5335680">
        <ele>225.8</ele>
        <time>2019-08-18T10:09:14Z</time>
      </trkpt>
      <trkpt lat="42.8574970" lon="-8.5335980">
        <ele>226.1</ele>
        <time>2019-08-18T10:09:15Z</time>
      </trkpt>
      <trkpt lat="42.8575120" lon="-8.5336290">
        <ele>226.3</ele>
        <time>2019-08-18T10:09:16Z</time>
      </trkpt>
      <trkpt lat="42.8575260" lon="-8.5336600">
        <ele>226.9</ele>
        <time>2019-08-18T10:09:17Z</time>
      </trkpt>
      <trkpt lat="42.8575410" lon="-8.5336910">
        <ele>227.1</ele>
        <time>2019-08-18T10:09:18Z</time>
      </trkpt>
      <trkpt lat="42.8575550" lon="-8.5337230">
        <ele>227.3</ele>
        <time>2019-08-18T10:09:19Z</time>
      </trkpt>
      <trkpt lat="42.8575690" lon="-8.5337540">
        <ele>227.5</ele>
        <time>2019-08-18T10:09:20Z</time>
      </trkpt>
      <trkpt lat="42.8575830" lon="-8.5337870">
        <ele>227.7</ele>
        <time>2019-08-18T10:09:21Z</time>
      </trkpt>
      <trkpt lat="42.8575960" lon="-8.5338190">
        <ele>227.9</ele>
        <time>2019-08-18T10:09:22Z</time>
      </trkpt>
      <trkpt lat="42.8576100" lon="-8.5338510">
        <ele>228.1</ele>
        <time>2019-08-18T10:09:23Z</time>
      </trkpt>
      <trkpt lat="42.8576240" lon="-8.5338840">
        <ele>228.3</ele>
        <time>2019-08-18T10:09:24Z</time>
      </trkpt>
      <trkpt lat="42.8576370" lon="-8.5339170">
        <ele>228.5</ele>
        <time>2019-08-18T10:09:25Z</time>
      </trkpt>
      <trkpt lat="42.8576500" lon="-8.5339490">
        <ele>228.7</ele>
        <time>2019-08-18T10:09:26Z</time>
      </trkpt>
      <trkpt lat="42.8576630" lon="-8.5339820">
        <ele>228.8</ele>
        <time>2019-08-18T10:09:27Z</time>
      </trkpt>
      <trkpt lat="42.8576760" lon="-8.5340150">
        <ele>229.0</ele>
        <time>2019-08-18T10:09:28Z</time>
      </trkpt>
      <trkpt lat="42.8576890" lon="-8.5340480">
        <ele>229.2</ele>
        <time>2019-08-18T10:09:29Z</time>
      </trkpt>
      <trkpt lat="42.8577010" lon="-8.5340810">
        <ele>229.3</ele>
        <time>2019-08-18T10:09:30Z</time>
      </trkpt>
      <trkpt lat="42.8577140" lon="-8.5341150">
        <ele>229.5</ele>
        <time>2019-08-18T10:09:31Z</time>
      </trkpt>
      <trkpt lat="42.8577260" lon="-8.5341480">
        <ele>229.6</ele>
        <time>2019-08-18T10:09:32Z</time>
      </trkpt>
      <trkpt lat="42.8577390" lon="-8.5341820">
        <ele>229.7</ele>
        <time>2019-08-18T10:09:33Z</time>
      </trkpt>
      <trkpt lat="42.8577510" lon="-8.5342160">
        <ele>229.9</ele>
        <time>2019-08-18T10:09:34Z</time>
      </trkpt>
      <trkpt lat="42.8577630" lon="-8.5342500">
        <ele>230.0</ele>
        <time>2019-08-18T10:09:35Z</time>
      </trkpt>
      <trkpt lat="42.8577750" lon="-8.5342840">
        <ele>230.1</ele>
        <time>2019-08-18T10:09:36Z</time>
      </trkpt>
      <trkpt lat="42.8577870" lon="-8.5343190">
        <ele>230.2</ele>
        <time>2019-08-18T10:09:37Z</time>
      </trkpt>
      <trkpt lat="42.8577990" lon="-8.5343540">
        <ele>230.4</ele>
        <time>2019-08-18T10:09:38Z</time>
      </trkpt>
      <trkpt lat="42.8578110" lon="-8.5343890">
        <ele>230.5</ele>
        <time>2019-08-18T10:09:39Z</time>
      </trkpt>
      <trkpt lat="42.8578230" lon="-8.5344240">
        <ele>230.6</ele>
        <time>2019-08-18T10:09:40Z</time>
      </trkpt>
      <trkpt lat="42.8578350" lon="-8.5344600">
        <ele>230.7</ele>
        <time>2019-08-18T10:09:41Z</time>
      </trkpt>
      <trkpt lat="42.8578470" lon="-8.5344960">
        <ele>230.8</ele>
        <time>2019-08-18T10:09:42Z</time>
      </trkpt>
      <trkpt lat="42.8578590" lon="-8.5345320">
        <ele>230.9</ele>
        <time>2019-08-18T10:09:43Z</time>
      </trkpt>
      <trkpt lat="42.8578710" lon="-8.5345680">
        <ele>231.1</ele>
        <time>2019-08-18T10:09:44Z</time>
      </trkpt>
      <trkpt lat="42.8578820" lon="-8.5346040">
        <ele>231.2</ele>
        <time>2019-08-18T10:09:45Z</time>
      </trkpt>
      <trkpt lat="42.8578940" lon="-8.5346400">
        <ele>231.3</ele>
        <time>2019-08-18T10:09:46Z</time>
      </trkpt>
      <trkpt lat="42.8579060" lon="-8.5346770">
        <ele>231.4</ele>
        <time>2019-08-18T10:09:47Z</time>
      </trkpt>
      <trkpt lat="42.8579190" lon="-8.5347150">
        <ele>231.5</ele>
        <time>2019-08-18T10:09:48Z</time>
      </trkpt>
      <trkpt lat="42.8579330" lon="-8.5347510">
        <ele>231.7</ele>
        <time>2019-08-18T10:09:49Z</time>
      </trkpt>
      <trkpt lat="42.8579480" lon="-8.5347850">
        <ele>231.8</ele>
        <time>2019-08-18T10:09:50Z</time>
      </trkpt>
      <trkpt lat="42.8579620" lon="-8.5348250">
        <ele>231.9</ele>
        <time>2019-08-18T10:09:51Z</time>
      </trkpt>
      <trkpt lat="42.8579690" lon="-8.5348630">
        <ele>232.0</ele>
        <time>2019-08-18T10:09:52Z</time>
      </trkpt>
      <trkpt lat="42.8579750" lon="-8.5349090">
        <ele>232.2</ele>
        <time>2019-08-18T10:09:53Z</time>
      </trkpt>
      <trkpt lat="42.8580140" lon="-8.5351530">
        <ele>232.9</ele>
        <time>2019-08-18T10:10:28Z</time>
      </trkpt>
      <trkpt lat="42.8580200" lon="-8.5351970">
        <ele>233.1</ele>
        <time>2019-08-18T10:10:29Z</time>
      </trkpt>
      <trkpt lat="42.8580250" lon="-8.5352390">
        <ele>233.2</ele>
        <time>2019-08-18T10:10:30Z</time>
      </trkpt>
      <trkpt lat="42.8580340" lon="-8.5352900">
        <ele>233.3</ele>
        <time>2019-08-18T10:10:31Z</time>
      </trkpt>
      <trkpt lat="42.8580440" lon="-8.5353380">
        <ele>233.4</ele>
        <time>2019-08-18T10:10:32Z</time>
      </trkpt>
      <trkpt lat="42.8580550" lon="-8.5353890">
        <ele>233.5</ele>
        <time>2019-08-18T10:10:33Z</time>
      </trkpt>
      <trkpt lat="42.8580660" lon="-8.5354430">
        <ele>233.5</ele>
        <time>2019-08-18T10:10:34Z</time>
      </trkpt>
      <trkpt lat="42.8580770" lon="-8.5354980">
        <ele>233.6</ele>
        <time>2019-08-18T10:10:35Z</time>
      </trkpt>
      <trkpt lat="42.8580890" lon="-8.5355540">
        <ele>233.7</ele>
        <time>2019-08-18T10:10:36Z</time>
      </trkpt>
      <trkpt lat="42.8581010" lon="-8.5356090">
        <ele>233.6</ele>
        <time>2019-08-18T10:10:37Z</time>
      </trkpt>
      <trkpt lat="42.8581200" lon="-8.5356990">
        <ele>233.6</ele>
        <time>2019-08-18T10:10:38Z</time>
      </trkpt>
      <trkpt lat="42.8581270" lon="-8.5357350">
        <ele>233.7</ele>
        <time>2019-08-18T10:10:39Z</time>
      </trkpt>
      <trkpt lat="42.8581350" lon="-8.5357710">
        <ele>233.7</ele>
        <time>2019-08-18T10:10:40Z</time>
      </trkpt>
      <trkpt lat="42.8581470" lon="-8.5358250">
        <ele>233.7</ele>
        <time>2019-08-18T10:10:41Z</time>
      </trkpt>
      <trkpt lat="42.8581580" lon="-8.5358810">
        <ele>233.8</ele>
        <time>2019-08-18T10:10:42Z</time>
      </trkpt>
      <trkpt lat="42.8581770" lon="-8.5359780">
        <ele>234.0</ele>
        <time>2019-08-18T10:10:43Z</time>
      </trkpt>
      <trkpt lat="42.8581850" lon="-8.5360170">
        <ele>234.0</ele>
        <time>2019-08-18T10:10:44Z</time>
      </trkpt>
      <trkpt lat="42.8581930" lon="-8.5360570">
        <ele>234.1</ele>
        <time>2019-08-18T10:10:45Z</time>
      </trkpt>
      <trkpt lat="42.8582050" lon="-8.5361190">
        <ele>234.1</ele>
        <time>2019-08-18T10:10:46Z</time>
      </trkpt>
      <trkpt lat="42.8582170" lon="-8.5361810">
        <ele>234.2</ele>
        <time>2019-08-18T10:10:47Z</time>
      </trkpt>
      <trkpt lat="42.8582380" lon="-8.5362860">
        <ele>234.3</ele>
        <time>2019-08-18T10:10:48Z</time>
      </trkpt>
      <trkpt lat="42.8582460" lon="-8.5363270">
        <ele>234.3</ele>
        <time>2019-08-18T10:10:49Z</time>
      </trkpt>
      <trkpt lat="42.8582550" lon="-8.5363690">
        <ele>234.3</ele>
        <time>2019-08-18T10:10:50Z</time>
      </trkpt>
      <trkpt lat="42.8582690" lon="-8.5364300">
        <ele>234.2</ele>
        <time>2019-08-18T10:10:51Z</time>
      </trkpt>
      <trkpt lat="42.8582830" lon="-8.5364910">
        <ele>234.2</ele>
        <time>2019-08-18T10:10:52Z</time>
      </trkpt>
      <trkpt lat="42.8582970" lon="-8.5365520">
        <ele>234.3</ele>
        <time>2019-08-18T10:10:53Z</time>
      </trkpt>
      <trkpt lat="42.8583120" lon="-8.5366120">
        <ele>234.4</ele>
        <time>2019-08-18T10:10:54Z</time>
      </trkpt>
      <trkpt lat="42.8583260" lon="-8.5366720">
        <ele>234.5</ele>
        <time>2019-08-18T10:10:55Z</time>
      </trkpt>
      <trkpt lat="42.8583400" lon="-8.5367320">
        <ele>234.6</ele>
        <time>2019-08-18T10:10:56Z</time>
      </trkpt>
      <trkpt lat="42.8583550" lon="-8.5367930">
        <ele>234.7</ele>
        <time>2019-08-18T10:10:57Z</time>
      </trkpt>
      <trkpt lat="42.8583680" lon="-8.5368540">
        <ele>234.7</ele>
        <time>2019-08-18T10:10:58Z</time>
      </trkpt>
      <trkpt lat="42.8583820" lon="-8.5369160">
        <ele>234.8</ele>
        <time>2019-08-18T10:10:59Z</time>
      </trkpt>
      <trkpt lat="42.8583960" lon="-8.5369780">
        <ele>234.9</ele>
        <time>2019-08-18T10:11:00Z</time>
      </trkpt>
      <trkpt lat="42.8584110" lon="-8.5370410">
        <ele>235.0</ele>
        <time>2019-08-18T10:11:01Z</time>
      </trkpt>
      <trkpt lat="42.8584250" lon="-8.5371040">
        <ele>235.1</ele>
        <time>2019-08-18T10:11:02Z</time>
      </trkpt>
      <trkpt lat="42.8584410" lon="-8.5371670">
        <ele>235.2</ele>
        <time>2019-08-18T10:11:03Z</time>
      </trkpt>
      <trkpt lat="42.8584570" lon="-8.5372310">
        <ele>235.3</ele>
        <time>2019-08-18T10:11:04Z</time>
      </trkpt>
      <trkpt lat="42.8584750" lon="-8.5372950">
        <ele>235.4</ele>
        <time>2019-08-18T10:11:05Z</time>
      </trkpt>
      <trkpt lat="42.8584940" lon="-8.5373600">
        <ele>235.5</ele>
        <time>2019-08-18T10:11:06Z</time>
      </trkpt>
      <trkpt lat="42.8585140" lon="-8.5374240">
        <ele>235.6</ele>
        <time>2019-08-18T10:11:07Z</time>
      </trkpt>
      <trkpt lat="42.8585350" lon="-8.5374880">
        <ele>235.7</ele>
        <time>2019-08-18T10:11:08Z</time>
      </trkpt>
      <trkpt lat="42.8585570" lon="-8.5375520">
        <ele>235.8</ele>
        <time>2019-08-18T10:11:09Z</time>
      </trkpt>
      <trkpt lat="42.8585800" lon="-8.5376150">
        <ele>236.0</ele>
        <time>2019-08-18T10:11:10Z</time>
      </trkpt>
      <trkpt lat="42.8586040" lon="-8.5376770">
        <ele>236.1</ele>
        <time>2019-08-18T10:11:11Z</time>
      </trkpt>
      <trkpt lat="42.8586290" lon="-8.5377390">
        <ele>236.3</ele>
        <time>2019-08-18T10:11:12Z</time>
      </trkpt>
      <trkpt lat="42.8586550" lon="-8.5377990">
        <ele>236.4</ele>
        <time>2019-08-18T10:11:13Z</time>
      </trkpt>
      <trkpt lat="42.8586810" lon="-8.5378570">
        <ele>236.5</ele>
        <time>2019-08-18T10:11:14Z</time>
      </trkpt>
      <trkpt lat="42.8587070" lon="-8.5379150">
        <ele>236.7</ele>
        <time>2019-08-18T10:11:15Z</time>
      </trkpt>
      <trkpt lat="42.8587340" lon="-8.5379720">
        <ele>236.8</ele>
        <time>2019-08-18T10:11:16Z</time>
      </trkpt>
      <trkpt lat="42.8587600" lon="-8.5380290">
        <ele>236.9</ele>
        <time>2019-08-18T10:11:17Z</time>
      </trkpt>
      <trkpt lat="42.8587860" lon="-8.5380840">
        <ele>237.0</ele>
        <time>2019-08-18T10:11:18Z</time>
      </trkpt>
      <trkpt lat="42.8588120" lon="-8.5381400">
        <ele>237.1</ele>
        <time>2019-08-18T10:11:19Z</time>
      </trkpt>
      <trkpt lat="42.8588370" lon="-8.5381950">
        <ele>237.2</ele>
        <time>2019-08-18T10:11:20Z</time>
      </trkpt>
      <trkpt lat="42.8588620" lon="-8.5382500">
        <ele>237.2</ele>
        <time>2019-08-18T10:11:21Z</time>
      </trkpt>
      <trkpt lat="42.8588860" lon="-8.5383050">
        <ele>237.3</ele>
        <time>2019-08-18T10:11:22Z</time>
      </trkpt>
      <trkpt lat="42.8589110" lon="-8.5383600">
        <ele>237.4</ele>
        <time>2019-08-18T10:11:23Z</time>
      </trkpt>
      <trkpt lat="42.8589350" lon="-8.5384140">
        <ele>237.5</ele>
        <time>2019-08-18T10:11:24Z</time>
      </trkpt>
      <trkpt lat="42.8589590" lon="-8.5384690">
        <ele>237.5</ele>
        <time>2019-08-18T10:11:25Z</time>
      </trkpt>
      <trkpt lat="42.8589830" lon="-8.5385240">
        <ele>237.6</ele>
        <time>2019-08-18T10:11:26Z</time>
      </trkpt>
      <trkpt lat="42.8590070" lon="-8.5385790">
        <ele>237.6</ele>
        <time>2019-08-18T10:11:27Z</time>
      </trkpt>
      <trkpt lat="42.8590320" lon="-8.5386340">
        <ele>237.7</ele>
        <time>2019-08-18T10:11:28Z</time>
      </trkpt>
      <trkpt lat="42.8590580" lon="-8.5386900">
        <ele>237.7</ele>
        <time>2019-08-18T10:11:29Z</time>
      </trkpt>
      <trkpt lat="42.8590830" lon="-8.5387450">
        <ele>237.7</ele>
        <time>2019-08-18T10:11:30Z</time>
      </trkpt>
      <trkpt lat="42.8591090" lon="-8.5388000">
        <ele>237.7</ele>
        <time>2019-08-18T10:11:31Z</time>
      </trkpt>
      <trkpt lat="42.8591360" lon="-8.5388560">
        <ele>237.8</ele>
        <time>2019-08-18T10:11:32Z</time>
      </trkpt>
      <trkpt lat="42.8591630" lon="-8.5389110">
        <ele>237.8</ele>
        <time>2019-08-18T10:11:33Z</time>
      </trkpt>
      <trkpt lat="42.8591900" lon="-8.5389660">
        <ele>237.8</ele>
        <time>2019-08-18T10:11:34Z</time>
      </trkpt>
      <trkpt lat="42.8592180" lon="-8.5390210">
        <ele>237.8</ele>
        <time>2019-08-18T10:11:35Z</time>
      </trkpt>
      <trkpt lat="42.8592460" lon="-8.5390760">
        <ele>237.8</ele>
        <time>2019-08-18T10:11:36Z</time>
      </trkpt>
      <trkpt lat="42.8592750" lon="-8.5391310">
        <ele>237.7</ele>
        <time>2019-08-18T10:11:37Z</time>
      </trkpt>
      <trkpt lat="42.8593050" lon="-8.5391860">
        <ele>237.6</ele>
        <time>2019-08-18T10:11:38Z</time>
      </trkpt>
      <trkpt lat="42.8593350" lon="-8.5392400">
        <ele>237.6</ele>
        <time>2019-08-18T10:11:39Z</time>
      </trkpt>
      <trkpt lat="42.8593650" lon="-8.5392940">
        <ele>237.5</ele>
        <time>2019-08-18T10:11:40Z</time>
      </trkpt>
      <trkpt lat="42.8593970" lon="-8.5393470">
        <ele>237.5</ele>
        <time>2019-08-18T10:11:41Z</time>
      </trkpt>
      <trkpt lat="42.8594280" lon="-8.5394010">
        <ele>237.4</ele>
        <time>2019-08-18T10:11:42Z</time>
      </trkpt>
      <trkpt lat="42.8594610" lon="-8.5394540">
        <ele>237.4</ele>
        <time>2019-08-18T10:11:43Z</time>
      </trkpt>
      <trkpt lat="42.8594930" lon="-8.5395060">
        <ele>237.3</ele>
        <time>2019-08-18T10:11:44Z</time>
      </trkpt>
      <trkpt lat="42.8595270" lon="-8.5395580">
        <ele>237.2</ele>
        <time>2019-08-18T10:11:45Z</time>
      </trkpt>
      <trkpt lat="42.8595600" lon="-8.5396100">
        <ele>237.2</ele>
        <time>2019-08-18T10:11:46Z</time>
      </trkpt>
      <trkpt lat="42.8595940" lon="-8.5396610">
        <ele>237.2</ele>
        <time>2019-08-18T10:11:47Z</time>
      </trkpt>
      <trkpt lat="42.8596270" lon="-8.5397120">
        <ele>237.1</ele>
        <time>2019-08-18T10:11:48Z</time>
      </trkpt>
      <trkpt lat="42.8596610" lon="-8.5397620">
        <ele>237.1</ele>
        <time>2019-08-18T10:11:49Z</time>
      </trkpt>
      <trkpt lat="42.8596950" lon="-8.5398120">
        <ele>237.1</ele>
        <time>2019-08-18T10:11:50Z</time>
      </trkpt>
      <trkpt lat="42.8597290" lon="-8.5398610">
        <ele>237.1</ele>
        <time>2019-08-18T10:11:51Z</time>
      </trkpt>
      <trkpt lat="42.8597630" lon="-8.5399110">
        <ele>237.0</ele>
        <time>2019-08-18T10:11:52Z</time>
      </trkpt>
      <trkpt lat="42.8597970" lon="-8.5399620">
        <ele>237.0</ele>
        <time>2019-08-18T10:11:53Z</time>
      </trkpt>
      <trkpt lat="42.8598310" lon="-8.5400140">
        <ele>236.9</ele>
        <time>2019-08-18T10:11:54Z</time>
      </trkpt>
      <trkpt lat="42.8598660" lon="-8.5400670">
        <ele>236.8</ele>
        <time>2019-08-18T10:11:55Z</time>
      </trkpt>
      <trkpt lat="42.8599010" lon="-8.5401230">
        <ele>236.7</ele>
        <time>2019-08-18T10:11:56Z</time>
      </trkpt>
      <trkpt lat="42.8599370" lon="-8.5401800">
        <ele>236.6</ele>
        <time>2019-08-18T10:11:57Z</time>
      </trkpt>
      <trkpt lat="42.8599740" lon="-8.5402370">
        <ele>236.5</ele>
        <time>2019-08-18T10:11:58Z</time>
      </trkpt>
      <trkpt lat="42.8600140" lon="-8.5402920">
        <ele>236.4</ele>
        <time>2019-08-18T10:11:59Z</time>
      </trkpt>
      <trkpt lat="42.8600570" lon="-8.5403420">
        <ele>236.2</ele>
        <time>2019-08-18T10:12:00Z</time>
      </trkpt>
      <trkpt lat="42.8601050" lon="-8.5403850">
        <ele>236.1</ele>
        <time>2019-08-18T10:12:01Z</time>
      </trkpt>
      <trkpt lat="42.8601530" lon="-8.5404200">
        <ele>235.9</ele>
        <time>2019-08-18T10:12:02Z</time>
      </trkpt>
      <trkpt lat="42.8601970" lon="-8.5404460">
        <ele>235.7</ele>
        <time>2019-08-18T10:12:03Z</time>
      </trkpt>
      <trkpt lat="42.8602360" lon="-8.5404720">
        <ele>235.6</ele>
        <time>2019-08-18T10:12:04Z</time>
      </trkpt>
      <trkpt lat="42.8602710" lon="-8.5405010">
        <ele>235.5</ele>
        <time>2019-08-18T10:12:05Z</time>
      </trkpt>
      <trkpt lat="42.8603020" lon="-8.5405320">
        <ele>235.5</ele>
        <time>2019-08-18T10:12:06Z</time>
      </trkpt>
      <trkpt lat="42.8603320" lon="-8.5405600">
        <ele>235.4</ele>
        <time>2019-08-18T10:12:07Z</time>
      </trkpt>
      <trkpt lat="42.8603610" lon="-8.5405790">
        <ele>235.3</ele>
        <time>2019-08-18T10:12:08Z</time>
      </trkpt>
      <trkpt lat="42.8603920" lon="-8.5405870">
        <ele>235.3</ele>
        <time>2019-08-18T10:12:09Z</time>
      </trkpt>
      <trkpt lat="42.8604230" lon="-8.5405880">
        <ele>235.2</ele>
        <time>2019-08-18T10:12:10Z</time>
      </trkpt>
      <trkpt lat="42.8604540" lon="-8.5405890">
        <ele>235.2</ele>
        <time>2019-08-18T10:12:11Z</time>
      </trkpt>
      <trkpt lat="42.8604840" lon="-8.5405940">
        <ele>235.1</ele>
        <time>2019-08-18T10:12:12Z</time>
      </trkpt>
      <trkpt lat="42.8605150" lon="-8.5406050">
        <ele>235.0</ele>
        <time>2019-08-18T10:12:13Z</time>
      </trkpt>
      <trkpt lat="42.8605480" lon="-8.5406200">
        <ele>235.0</ele>
        <time>2019-08-18T10:12:14Z</time>
      </trkpt>
      <trkpt lat="42.8605840" lon="-8.5406400">
        <ele>234.9</ele>
        <time>2019-08-18T10:12:15Z</time>
      </trkpt>
      <trkpt lat="42.8606240" lon="-8.5406630">
        <ele>234.9</ele>
        <time>2019-08-18T10:12:16Z</time>
      </trkpt>
      <trkpt lat="42.8606680" lon="-8.5406890">
        <ele>234.8</ele>
        <time>2019-08-18T10:12:17Z</time>
      </trkpt>
      <trkpt lat="42.8607480" lon="-8.5407340">
        <ele>234.7</ele>
        <time>2019-08-18T10:12:18Z</time>
      </trkpt>
      <trkpt lat="42.8607820" lon="-8.5407520">
        <ele>234.6</ele>
        <time>2019-08-18T10:12:19Z</time>
      </trkpt>
      <trkpt lat="42.8608150" lon="-8.5407710">
        <ele>234.6</ele>
        <time>2019-08-18T10:12:20Z</time>
      </trkpt>
      <trkpt lat="42.8608660" lon="-8.5407990">
        <ele>234.5</ele>
        <time>2019-08-18T10:12:21Z</time>
      </trkpt>
      <trkpt lat="42.8609190" lon="-8.5408280">
        <ele>234.4</ele>
        <time>2019-08-18T10:12:22Z</time>
      </trkpt>
      <trkpt lat="42.8610070" lon="-8.5408780">
        <ele>234.3</ele>
        <time>2019-08-18T10:12:23Z</time>
      </trkpt>
      <trkpt lat="42.8610430" lon="-8.5408980">
        <ele>234.2</ele>
        <time>2019-08-18T10:12:24Z</time>
      </trkpt>
      <trkpt lat="42.8610780" lon="-8.5409190">
        <ele>234.2</ele>
        <time>2019-08-18T10:12:25Z</time>
      </trkpt>
      <trkpt lat="42.8611310" lon="-8.5409510">
        <ele>234.1</ele>
        <time>2019-08-18T10:12:26Z</time>
      </trkpt>
      <trkpt lat="42.8611840" lon="-8.5409840">
        <ele>234.1</ele>
        <time>2019-08-18T10:12:27Z</time>
      </trkpt>
      <trkpt lat="42.8612620" lon="-8.5410350">
        <ele>234.0</ele>
        <time>2019-08-18T10:12:28Z</time>
      </trkpt>
      <trkpt lat="42.8612880" lon="-8.5410530">
        <ele>234.0</ele>
        <time>2019-08-18T10:12:29Z</time>
      </trkpt>
      <trkpt lat="42.8613410" lon="-8.5410870">
        <ele>233.9</ele>
        <time>2019-08-18T10:12:30Z</time>
      </trkpt>
      <trkpt lat="42.8613950" lon="-8.5411220">
        <ele>233.9</ele>
        <time>2019-08-18T10:12:31Z</time>
      </trkpt>
      <trkpt lat="42.8614480" lon="-8.5411580">
        <ele>233.8</ele>
        <time>2019-08-18T10:12:32Z</time>
      </trkpt>
      <trkpt lat="42.8615030" lon="-8.5411940">
        <ele>233.8</ele>
        <time>2019-08-18T10:12:33Z</time>
      </trkpt>
      <trkpt lat="42.8615590" lon="-8.5412290">
        <ele>233.7</ele>
        <time>2019-08-18T10:12:34Z</time>
      </trkpt>
      <trkpt lat="42.8616160" lon="-8.5412650">
        <ele>233.7</ele>
        <time>2019-08-18T10:12:35Z</time>
      </trkpt>
      <trkpt lat="42.8616730" lon="-8.5413010">
        <ele>233.6</ele>
        <time>2019-08-18T10:12:36Z</time>
      </trkpt>
      <trkpt lat="42.8617310" lon="-8.5413380">
        <ele>233.5</ele>
        <time>2019-08-18T10:12:37Z</time>
      </trkpt>
      <trkpt lat="42.8617900" lon="-8.5413760">
        <ele>233.4</ele>
        <time>2019-08-18T10:12:38Z</time>
      </trkpt>
      <trkpt lat="42.8618490" lon="-8.5414150">
        <ele>233.3</ele>
        <time>2019-08-18T10:12:39Z</time>
      </trkpt>
      <trkpt lat="42.8619080" lon="-8.5414550">
        <ele>233.3</ele>
        <time>2019-08-18T10:12:40Z</time>
      </trkpt>
      <trkpt lat="42.8620080" lon="-8.5415250">
        <ele>233.1</ele>
        <time>2019-08-18T10:12:41Z</time>
      </trkpt>
      <trkpt lat="42.8620470" lon="-8.5415540">
        <ele>233.0</ele>
        <time>2019-08-18T10:12:42Z</time>
      </trkpt>
      <trkpt lat="42.8620870" lon="-8.5415820">
        <ele>233.0</ele>
        <time>2019-08-18T10:12:43Z</time>
      </trkpt>
      <trkpt lat="42.8621470" lon="-8.5416250">
        <ele>232.9</ele>
        <time>2019-08-18T10:12:44Z</time>
      </trkpt>
      <trkpt lat="42.8622070" lon="-8.5416680">
        <ele>232.8</ele>
        <time>2019-08-18T10:12:45Z</time>
      </trkpt>
      <trkpt lat="42.8623080" lon="-8.5417410">
        <ele>232.6</ele>
        <time>2019-08-18T10:12:46Z</time>
      </trkpt>
      <trkpt lat="42.8623470" lon="-8.5417700">
        <ele>232.6</ele>
        <time>2019-08-18T10:12:47Z</time>
      </trkpt>
      <trkpt lat="42.8623870" lon="-8.5418000">
        <ele>232.5</ele>
        <time>2019-08-18T10:12:48Z</time>
      </trkpt>
      <trkpt lat="42.8624440" lon="-8.5418430">
        <ele>232.5</ele>
        <time>2019-08-18T10:12:49Z</time>
      </trkpt>
      <trkpt lat="42.8624970" lon="-8.5418820">
        <ele>232.4</ele>
        <time>2019-08-18T10:12:50Z</time>
      </trkpt>
      <trkpt lat="42.8625440" lon="-8.5419150">
        <ele>232.4</ele>
        <time>2019-08-18T10:12:51Z</time>
      </trkpt>
      <trkpt lat="42.8625870" lon="-8.5419390">
        <ele>232.4</ele>
        <time>2019-08-18T10:12:52Z</time>
      </trkpt>
      <trkpt lat="42.8626210" lon="-8.5419550">
        <ele>232.4</ele>
        <time>2019-08-18T10:12:53Z</time>
      </trkpt>
      <trkpt lat="42.8627540" lon="-8.5420220">
        <ele>232.1</ele>
        <time>2019-08-18T10:13:22Z</time>
      </trkpt>
      <trkpt lat="42.8628540" lon="-8.5420650">
        <ele>231.5</ele>
        <time>2019-08-18T10:13:23Z</time>
      </trkpt>
      <trkpt lat="42.8629080" lon="-8.5421020">
        <ele>231.1</ele>
        <time>2019-08-18T10:13:24Z</time>
      </trkpt>
      <trkpt lat="42.8629480" lon="-8.5421300">
        <ele>230.8</ele>
        <time>2019-08-18T10:13:25Z</time>
      </trkpt>
      <trkpt lat="42.8630110" lon="-8.5421630">
        <ele>230.3</ele>
        <time>2019-08-18T10:13:26Z</time>
      </trkpt>
      <trkpt lat="42.8630710" lon="-8.5421990">
        <ele>229.9</ele>
        <time>2019-08-18T10:13:27Z</time>
      </trkpt>
      <trkpt lat="42.8631260" lon="-8.5422370">
        <ele>229.5</ele>
        <time>2019-08-18T10:13:28Z</time>
      </trkpt>
      <trkpt lat="42.8631780" lon="-8.5422740">
        <ele>229.2</ele>
        <time>2019-08-18T10:13:29Z</time>
      </trkpt>
      <trkpt lat="42.8632310" lon="-8.5423100">
        <ele>228.8</ele>
        <time>2019-08-18T10:13:30Z</time>
      </trkpt>
      <trkpt lat="42.8633240" lon="-8.5423630">
        <ele>228.2</ele>
        <time>2019-08-18T10:13:31Z</time>
      </trkpt>
      <trkpt lat="42.8633620" lon="-8.5423830">
        <ele>228.0</ele>
        <time>2019-08-18T10:13:32Z</time>
      </trkpt>
      <trkpt lat="42.8634000" lon="-8.5424030">
        <ele>227.9</ele>
        <time>2019-08-18T10:13:33Z</time>
      </trkpt>
      <trkpt lat="42.8634560" lon="-8.5424310">
        <ele>227.7</ele>
        <time>2019-08-18T10:13:34Z</time>
      </trkpt>
      <trkpt lat="42.8635100" lon="-8.5424580">
        <ele>227.4</ele>
        <time>2019-08-18T10:13:35Z</time>
      </trkpt>
      <trkpt lat="42.8635630" lon="-8.5424840">
        <ele>227.1</ele>
        <time>2019-08-18T10:13:36Z</time>
      </trkpt>
      <trkpt lat="42.8636160" lon="-8.5425120">
        <ele>226.8</ele>
        <time>2019-08-18T10:13:37Z</time>
      </trkpt>
      <trkpt lat="42.8636690" lon="-8.5425400">
        <ele>226.6</ele>
        <time>2019-08-18T10:13:38Z</time>
      </trkpt>
      <trkpt lat="42.8637230" lon="-8.5425700">
        <ele>226.5</ele>
        <time>2019-08-18T10:13:39Z</time>
      </trkpt>
      <trkpt lat="42.8637760" lon="-8.5426020">
        <ele>226.3</ele>
        <time>2019-08-18T10:13:40Z</time>
      </trkpt>
      <trkpt lat="42.8638660" lon="-8.5426570">
        <ele>226.1</ele>
        <time>2019-08-18T10:13:41Z</time>
      </trkpt>
      <trkpt lat="42.8639010" lon="-8.5426790">
        <ele>226.0</ele>
        <time>2019-08-18T10:13:42Z</time>
      </trkpt>
      <trkpt lat="42.8639370" lon="-8.5427020">
        <ele>225.5</ele>
        <time>2019-08-18T10:13:43Z</time>
      </trkpt>
      <trkpt lat="42.8639890" lon="-8.5427370">
        <ele>225.2</ele>
        <time>2019-08-18T10:13:44Z</time>
      </trkpt>
      <trkpt lat="42.8640410" lon="-8.5427720">
        <ele>224.9</ele>
        <time>2019-08-18T10:13:45Z</time>
      </trkpt>
      <trkpt lat="42.8640930" lon="-8.5428080">
        <ele>224.5</ele>
        <time>2019-08-18T10:13:46Z</time>
      </trkpt>
      <trkpt lat="42.8641800" lon="-8.5428680">
        <ele>223.3</ele>
        <time>2019-08-18T10:13:47Z</time>
      </trkpt>
      <trkpt lat="42.8642160" lon="-8.5428930">
        <ele>222.7</ele>
        <time>2019-08-18T10:13:48Z</time>
      </trkpt>
      <trkpt lat="42.8642510" lon="-8.5429170">
        <ele>222.3</ele>
        <time>2019-08-18T10:13:49Z</time>
      </trkpt>
      <trkpt lat="42.8643050" lon="-8.5429550">
        <ele>221.7</ele>
        <time>2019-08-18T10:13:50Z</time>
      </trkpt>
      <trkpt lat="42.8643610" lon="-8.5429930">
        <ele>221.0</ele>
        <time>2019-08-18T10:13:51Z</time>
      </trkpt>
      <trkpt lat="42.8644600" lon="-8.5430570">
        <ele>220.0</ele>
        <time>2019-08-18T10:13:52Z</time>
      </trkpt>
      <trkpt lat="42.8645000" lon="-8.5430830">
        <ele>219.6</ele>
        <time>2019-08-18T10:13:53Z</time>
      </trkpt>
      <trkpt lat="42.8645410" lon="-8.5431090">
        <ele>219.3</ele>
        <time>2019-08-18T10:13:54Z</time>
      </trkpt>
      <trkpt lat="42.8646030" lon="-8.5431480">
        <ele>218.6</ele>
        <time>2019-08-18T10:13:55Z</time>
      </trkpt>
      <trkpt lat="42.8646670" lon="-8.5431880">
        <ele>217.9</ele>
        <time>2019-08-18T10:13:56Z</time>
      </trkpt>
      <trkpt lat="42.8647330" lon="-8.5432270">
        <ele>217.1</ele>
        <time>2019-08-18T10:13:57Z</time>
      </trkpt>
      <trkpt lat="42.8647990" lon="-8.5432670">
        <ele>216.4</ele>
        <time>2019-08-18T10:13:58Z</time>
      </trkpt>
      <trkpt lat="42.8648650" lon="-8.5433070">
        <ele>215.7</ele>
        <time>2019-08-18T10:13:59Z</time>
      </trkpt>
      <trkpt lat="42.8649320" lon="-8.5433470">
        <ele>215.0</ele>
        <time>2019-08-18T10:14:00Z</time>
      </trkpt>
      <trkpt lat="42.8650010" lon="-8.5433890">
        <ele>214.2</ele>
        <time>2019-08-18T10:14:01Z</time>
      </trkpt>
      <trkpt lat="42.8650710" lon="-8.5434340">
        <ele>213.7</ele>
        <time>2019-08-18T10:14:02Z</time>
      </trkpt>
      <trkpt lat="42.8651420" lon="-8.5434820">
        <ele>213.3</ele>
        <time>2019-08-18T10:14:03Z</time>
      </trkpt>
      <trkpt lat="42.8652130" lon="-8.5435290">
        <ele>212.8</ele>
        <time>2019-08-18T10:14:04Z</time>
      </trkpt>
      <trkpt lat="42.8652850" lon="-8.5435740">
        <ele>212.4</ele>
        <time>2019-08-18T10:14:05Z</time>
      </trkpt>
      <trkpt lat="42.8653590" lon="-8.5436160">
        <ele>211.9</ele>
        <time>2019-08-18T10:14:06Z</time>
      </trkpt>
      <trkpt lat="42.8654340" lon="-8.5436550">
        <ele>211.4</ele>
        <time>2019-08-18T10:14:07Z</time>
      </trkpt>
      <trkpt lat="42.8655100" lon="-8.5436890">
        <ele>211.0</ele>
        <time>2019-08-18T10:14:08Z</time>
      </trkpt>
      <trkpt lat="42.8655850" lon="-8.5437220">
        <ele>210.6</ele>
        <time>2019-08-18T10:14:09Z</time>
      </trkpt>
      <trkpt lat="42.8656560" lon="-8.5437530">
        <ele>210.2</ele>
        <time>2019-08-18T10:14:10Z</time>
      </trkpt>
      <trkpt lat="42.8657220" lon="-8.5437830">
        <ele>209.8</ele>
        <time>2019-08-18T10:14:11Z</time>
      </trkpt>
      <trkpt lat="42.8657840" lon="-8.5438140">
        <ele>209.4</ele>
        <time>2019-08-18T10:14:12Z</time>
      </trkpt>
      <trkpt lat="42.8658430" lon="-8.5438440">
        <ele>209.0</ele>
        <time>2019-08-18T10:14:13Z</time>
      </trkpt>
      <trkpt lat="42.8659010" lon="-8.5438750">
        <ele>208.6</ele>
        <time>2019-08-18T10:14:14Z</time>
      </trkpt>
      <trkpt lat="42.8659580" lon="-8.5439070">
        <ele>208.2</ele>
        <time>2019-08-18T10:14:15Z</time>
      </trkpt>
      <trkpt lat="42.8660150" lon="-8.5439390">
        <ele>207.8</ele>
        <time>2019-08-18T10:14:16Z</time>
      </trkpt>
      <trkpt lat="42.8660720" lon="-8.5439730">
        <ele>207.3</ele>
        <time>2019-08-18T10:14:17Z</time>
      </trkpt>
      <trkpt lat="42.8661280" lon="-8.5440060">
        <ele>206.9</ele>
        <time>2019-08-18T10:14:18Z</time>
      </trkpt>
      <trkpt lat="42.8661840" lon="-8.5440400">
        <ele>206.5</ele>
        <time>2019-08-18T10:14:19Z</time>
      </trkpt>
      <trkpt lat="42.8662390" lon="-8.5440740">
        <ele>206.1</ele>
        <time>2019-08-18T10:14:20Z</time>
      </trkpt>
      <trkpt lat="42.8662930" lon="-8.5441080">
        <ele>205.7</ele>
        <time>2019-08-18T10:14:21Z</time>
      </trkpt>
      <trkpt lat="42.8663470" lon="-8.5441430">
        <ele>205.3</ele>
        <time>2019-08-18T10:14:22Z</time>
      </trkpt>
      <trkpt lat="42.8663990" lon="-8.5441770">
        <ele>205.0</ele>
        <time>2019-08-18T10:14:23Z</time>
      </trkpt>
      <trkpt lat="42.8664510" lon="-8.5442110">
        <ele>204.7</ele>
        <time>2019-08-18T10:14:24Z</time>
      </trkpt>
      <trkpt lat="42.8665020" lon="-8.5442450">
        <ele>204.4</ele>
        <time>2019-08-18T10:14:25Z</time>
      </trkpt>
      <trkpt lat="42.8665530" lon="-8.5442780">
        <ele>204.1</ele>
        <time>2019-08-18T10:14:26Z</time>
      </trkpt>
      <trkpt lat="42.8666040" lon="-8.5443120">
        <ele>203.9</ele>
        <time>2019-08-18T10:14:27Z</time>
      </trkpt>
      <trkpt lat="42.8666560" lon="-8.5443450">
        <ele>203.7</ele>
        <time>2019-08-18T10:14:28Z</time>
      </trkpt>
      <trkpt lat="42.8667080" lon="-8.5443780">
        <ele>203.4</ele>
        <time>2019-08-18T10:14:29Z</time>
      </trkpt>
      <trkpt lat="42.8667600" lon="-8.5444110">
        <ele>203.2</ele>
        <time>2019-08-18T10:14:30Z</time>
      </trkpt>
      <trkpt lat="42.8668140" lon="-8.5444430">
        <ele>203.0</ele>
        <time>2019-08-18T10:14:31Z</time>
      </trkpt>
      <trkpt lat="42.8668680" lon="-8.5444730">
        <ele>203.1</ele>
        <time>2019-08-18T10:14:32Z</time>
      </trkpt>
      <trkpt lat="42.8669220" lon="-8.5445010">
        <ele>203.4</ele>
        <time>2019-08-18T10:14:33Z</time>
      </trkpt>
      <trkpt lat="42.8669770" lon="-8.5445270">
        <ele>203.7</ele>
        <time>2019-08-18T10:14:34Z</time>
      </trkpt>
      <trkpt lat="42.8670320" lon="-8.5445490">
        <ele>204.1</ele>
        <time>2019-08-18T10:14:35Z</time>
      </trkpt>
      <trkpt lat="42.8670880" lon="-8.5445670">
        <ele>204.4</ele>
        <time>2019-08-18T10:14:36Z</time>
      </trkpt>
      <trkpt lat="42.8671440" lon="-8.5445790">
        <ele>204.7</ele>
        <time>2019-08-18T10:14:37Z</time>
      </trkpt>
      <trkpt lat="42.8671980" lon="-8.5445810">
        <ele>205.0</ele>
        <time>2019-08-18T10:14:38Z</time>
      </trkpt>
      <trkpt lat="42.8672510" lon="-8.5445690">
        <ele>205.1</ele>
        <time>2019-08-18T10:14:39Z</time>
      </trkpt>
      <trkpt lat="42.8673020" lon="-8.5445590">
        <ele>205.2</ele>
        <time>2019-08-18T10:14:40Z</time>
      </trkpt>
      <trkpt lat="42.8673520" lon="-8.5445490">
        <ele>205.7</ele>
        <time>2019-08-18T10:14:41Z</time>
      </trkpt>
      <trkpt lat="42.8673990" lon="-8.5445610">
        <ele>206.0</ele>
        <time>2019-08-18T10:14:42Z</time>
      </trkpt>
      <trkpt lat="42.8674390" lon="-8.5445910">
        <ele>206.3</ele>
        <time>2019-08-18T10:14:43Z</time>
      </trkpt>
      <trkpt lat="42.8674730" lon="-8.5446290">
        <ele>206.6</ele>
        <time>2019-08-18T10:14:44Z</time>
      </trkpt>
      <trkpt lat="42.8674990" lon="-8.5446740">
        <ele>207.1</ele>
        <time>2019-08-18T10:14:45Z</time>
      </trkpt>
      <trkpt lat="42.8675190" lon="-8.5447240">
        <ele>207.3</ele>
        <time>2019-08-18T10:14:46Z</time>
      </trkpt>
      <trkpt lat="42.8675310" lon="-8.5447770">
        <ele>207.4</ele>
        <time>2019-08-18T10:14:47Z</time>
      </trkpt>
      <trkpt lat="42.8675360" lon="-8.5448330">
        <ele>207.6</ele>
        <time>2019-08-18T10:14:48Z</time>
      </trkpt>
      <trkpt lat="42.8675330" lon="-8.5448910">
        <ele>207.8</ele>
        <time>2019-08-18T10:14:49Z</time>
      </trkpt>
      <trkpt lat="42.8675230" lon="-8.5449500">
        <ele>208.0</ele>
        <time>2019-08-18T10:14:50Z</time>
      </trkpt>
      <trkpt lat="42.8675060" lon="-8.5450090">
        <ele>208.0</ele>
        <time>2019-08-18T10:14:51Z</time>
      </trkpt>
      <trkpt lat="42.8674860" lon="-8.5450680">
        <ele>208.1</ele>
        <time>2019-08-18T10:14:52Z</time>
      </trkpt>
      <trkpt lat="42.8674690" lon="-8.5451280">
        <ele>208.4</ele>
        <time>2019-08-18T10:14:53Z</time>
      </trkpt>
      <trkpt lat="42.8674600" lon="-8.5451890">
        <ele>208.6</ele>
        <time>2019-08-18T10:14:54Z</time>
      </trkpt>
      <trkpt lat="42.8674620" lon="-8.5452510">
        <ele>208.9</ele>
        <time>2019-08-18T10:14:55Z</time>
      </trkpt>
      <trkpt lat="42.8674760" lon="-8.5453120">
        <ele>209.5</ele>
        <time>2019-08-18T10:14:56Z</time>
      </trkpt>
      <trkpt lat="42.8674980" lon="-8.5453700">
        <ele>209.7</ele>
        <time>2019-08-18T10:14:57Z</time>
      </trkpt>
      <trkpt lat="42.8675250" lon="-8.5454210">
        <ele>210.0</ele>
        <time>2019-08-18T10:14:58Z</time>
      </trkpt>
      <trkpt lat="42.8675550" lon="-8.5454640">
        <ele>210.2</ele>
        <time>2019-08-18T10:14:59Z</time>
      </trkpt>
      <trkpt lat="42.8675850" lon="-8.5455010">
        <ele>210.4</ele>
        <time>2019-08-18T10:15:00Z</time>
      </trkpt>
      <trkpt lat="42.8676140" lon="-8.5455370">
        <ele>210.6</ele>
        <time>2019-08-18T10:15:01Z</time>
      </trkpt>
      <trkpt lat="42.8676380" lon="-8.5455740">
        <ele>210.8</ele>
        <time>2019-08-18T10:15:02Z</time>
      </trkpt>
      <trkpt lat="42.8676560" lon="-8.5456150">
        <ele>211.0</ele>
        <time>2019-08-18T10:15:03Z</time>
      </trkpt>
      <trkpt lat="42.8676710" lon="-8.5456600">
        <ele>211.1</ele>
        <time>2019-08-18T10:15:04Z</time>
      </trkpt>
      <trkpt lat="42.8677010" lon="-8.5457350">
        <ele>211.4</ele>
        <time>2019-08-18T10:15:05Z</time>
      </trkpt>
      <trkpt lat="42.8677160" lon="-8.5457660">
        <ele>211.6</ele>
        <time>2019-08-18T10:15:06Z</time>
      </trkpt>
      <trkpt lat="42.8677300" lon="-8.5457960">
        <ele>211.7</ele>
        <time>2019-08-18T10:15:07Z</time>
      </trkpt>
      <trkpt lat="42.8677550" lon="-8.5458410">
        <ele>211.9</ele>
        <time>2019-08-18T10:15:08Z</time>
      </trkpt>
      <trkpt lat="42.8677800" lon="-8.5458850">
        <ele>212.2</ele>
        <time>2019-08-18T10:15:09Z</time>
      </trkpt>
      <trkpt lat="42.8678170" lon="-8.5459530">
        <ele>212.5</ele>
        <time>2019-08-18T10:15:10Z</time>
      </trkpt>
      <trkpt lat="42.8678290" lon="-8.5459760">
        <ele>212.7</ele>
        <time>2019-08-18T10:15:11Z</time>
      </trkpt>
      <trkpt lat="42.8678520" lon="-8.5460220">
        <ele>213.1</ele>
        <time>2019-08-18T10:15:12Z</time>
      </trkpt>
      <trkpt lat="42.8678720" lon="-8.5460680">
        <ele>213.2</ele>
        <time>2019-08-18T10:15:13Z</time>
      </trkpt>
      <trkpt lat="42.8678910" lon="-8.5461150">
        <ele>213.4</ele>
        <time>2019-08-18T10:15:14Z</time>
      </trkpt>
      <trkpt lat="42.8679100" lon="-8.5461610">
        <ele>213.5</ele>
        <time>2019-08-18T10:15:15Z</time>
      </trkpt>
      <trkpt lat="42.8679270" lon="-8.5462080">
        <ele>213.6</ele>
        <time>2019-08-18T10:15:16Z</time>
      </trkpt>
      <trkpt lat="42.8679450" lon="-8.5462550">
        <ele>213.7</ele>
        <time>2019-08-18T10:15:17Z</time>
      </trkpt>
      <trkpt lat="42.8679620" lon="-8.5463020">
        <ele>213.9</ele>
        <time>2019-08-18T10:15:18Z</time>
      </trkpt>
      <trkpt lat="42.8679810" lon="-8.5463490">
        <ele>214.0</ele>
        <time>2019-08-18T10:15:19Z</time>
      </trkpt>
      <trkpt lat="42.8680130" lon="-8.5464270">
        <ele>214.2</ele>
        <time>2019-08-18T10:15:20Z</time>
      </trkpt>
      <trkpt lat="42.8680260" lon="-8.5464570">
        <ele>214.3</ele>
        <time>2019-08-18T10:15:21Z</time>
      </trkpt>
      <trkpt lat="42.8680390" lon="-8.5464880">
        <ele>214.3</ele>
        <time>2019-08-18T10:15:22Z</time>
      </trkpt>
      <trkpt lat="42.8680590" lon="-8.5465340">
        <ele>214.4</ele>
        <time>2019-08-18T10:15:23Z</time>
      </trkpt>
      <trkpt lat="42.8680790" lon="-8.5465790">
        <ele>214.4</ele>
        <time>2019-08-18T10:15:24Z</time>
      </trkpt>
      <trkpt lat="42.8680990" lon="-8.5466250">
        <ele>214.4</ele>
        <time>2019-08-18T10:15:25Z</time>
      </trkpt>
      <trkpt lat="42.8681180" lon="-8.5466700">
        <ele>214.5</ele>
        <time>2019-08-18T10:15:26Z</time>
      </trkpt>
      <trkpt lat="42.8681350" lon="-8.5467150">
        <ele>214.7</ele>
        <time>2019-08-18T10:15:27Z</time>
      </trkpt>
      <trkpt lat="42.8681520" lon="-8.5467610">
        <ele>214.9</ele>
        <time>2019-08-18T10:15:28Z</time>
      </trkpt>
      <trkpt lat="42.8681680" lon="-8.5468050">
        <ele>215.0</ele>
        <time>2019-08-18T10:15:29Z</time>
      </trkpt>
      <trkpt lat="42.8681850" lon="-8.5468480">
        <ele>215.1</ele>
        <time>2019-08-18T10:15:30Z</time>
      </trkpt>
      <trkpt lat="42.8682050" lon="-8.5468890">
        <ele>215.2</ele>
        <time>2019-08-18T10:15:31Z</time>
      </trkpt>
      <trkpt lat="42.8682270" lon="-8.5469290">
        <ele>215.3</ele>
        <time>2019-08-18T10:15:32Z</time>
      </trkpt>
      <trkpt lat="42.8682490" lon="-8.5469670">
        <ele>215.4</ele>
        <time>2019-08-18T10:15:33Z</time>
      </trkpt>
      <trkpt lat="42.8682700" lon="-8.5470070">
        <ele>215.5</ele>
        <time>2019-08-18T10:15:34Z</time>
      </trkpt>
      <trkpt lat="42.8682870" lon="-8.5470490">
        <ele>215.6</ele>
        <time>2019-08-18T10:15:35Z</time>
      </trkpt>
      <trkpt lat="42.8683020" lon="-8.5470930">
        <ele>215.7</ele>
        <time>2019-08-18T10:15:36Z</time>
      </trkpt>
      <trkpt lat="42.8683170" lon="-8.5471380">
        <ele>215.8</ele>
        <time>2019-08-18T10:15:37Z</time>
      </trkpt>
      <trkpt lat="42.8683340" lon="-8.5471850">
        <ele>215.8</ele>
        <time>2019-08-18T10:15:38Z</time>
      </trkpt>
      <trkpt lat="42.8683540" lon="-8.5472310">
        <ele>215.9</ele>
        <time>2019-08-18T10:15:39Z</time>
      </trkpt>
      <trkpt lat="42.8683770" lon="-8.5472770">
        <ele>216.0</ele>
        <time>2019-08-18T10:15:40Z</time>
      </trkpt>
      <trkpt lat="42.8684000" lon="-8.5473230">
        <ele>216.0</ele>
        <time>2019-08-18T10:15:41Z</time>
      </trkpt>
      <trkpt lat="42.8684220" lon="-8.5473690">
        <ele>216.1</ele>
        <time>2019-08-18T10:15:42Z</time>
      </trkpt>
      <trkpt lat="42.8684430" lon="-8.5474150">
        <ele>216.1</ele>
        <time>2019-08-18T10:15:43Z</time>
      </trkpt>
      <trkpt lat="42.8684640" lon="-8.5474610">
        <ele>216.2</ele>
        <time>2019-08-18T10:15:44Z</time>
      </trkpt>
      <trkpt lat="42.8684850" lon="-8.5475080">
        <ele>216.2</ele>
        <time>2019-08-18T10:15:45Z</time>
      </trkpt>
      <trkpt lat="42.8685060" lon="-8.5475560">
        <ele>216.2</ele>
        <time>2019-08-18T10:15:46Z</time>
      </trkpt>
      <trkpt lat="42.8685280" lon="-8.5476050">
        <ele>216.3</ele>
        <time>2019-08-18T10:15:47Z</time>
      </trkpt>
      <trkpt lat="42.8685510" lon="-8.5476560">
        <ele>216.3</ele>
        <time>2019-08-18T10:15:48Z</time>
      </trkpt>
      <trkpt lat="42.8685740" lon="-8.5477090">
        <ele>216.3</ele>
        <time>2019-08-18T10:15:49Z</time>
      </trkpt>
      <trkpt lat="42.8685990" lon="-8.5477630">
        <ele>216.3</ele>
        <time>2019-08-18T10:15:50Z</time>
      </trkpt>
      <trkpt lat="42.8686250" lon="-8.5478160">
        <ele>216.3</ele>
        <time>2019-08-18T10:15:51Z</time>
      </trkpt>
      <trkpt lat="42.8686520" lon="-8.5478690">
        <ele>216.3</ele>
        <time>2019-08-18T10:15:52Z</time>
      </trkpt>
      <trkpt lat="42.8686790" lon="-8.5479190">
        <ele>216.3</ele>
        <time>2019-08-18T10:15:53Z</time>
      </trkpt>
      <trkpt lat="42.8687060" lon="-8.5479670">
        <ele>216.3</ele>
        <time>2019-08-18T10:15:54Z</time>
      </trkpt>
      <trkpt lat="42.8687330" lon="-8.5480090">
        <ele>216.3</ele>
        <time>2019-08-18T10:15:55Z</time>
      </trkpt>
      <trkpt lat="42.8687600" lon="-8.5480470">
        <ele>216.3</ele>
        <time>2019-08-18T10:15:56Z</time>
      </trkpt>
      <trkpt lat="42.8687870" lon="-8.5480790">
        <ele>216.2</ele>
        <time>2019-08-18T10:15:57Z</time>
      </trkpt>
      <trkpt lat="42.8688150" lon="-8.5481070">
        <ele>216.2</ele>
        <time>2019-08-18T10:15:58Z</time>
      </trkpt>
      <trkpt lat="42.8688430" lon="-8.5481320">
        <ele>216.4</ele>
        <time>2019-08-18T10:15:59Z</time>
      </trkpt>
      <trkpt lat="42.8688720" lon="-8.5481580">
        <ele>216.6</ele>
        <time>2019-08-18T10:16:00Z</time>
      </trkpt>
      <trkpt lat="42.8689030" lon="-8.5481860">
        <ele>216.8</ele>
        <time>2019-08-18T10:16:01Z</time>
      </trkpt>
      <trkpt lat="42.8689340" lon="-8.5482170">
        <ele>217.0</ele>
        <time>2019-08-18T10:16:02Z</time>
      </trkpt>
      <trkpt lat="42.8689630" lon="-8.5482520">
        <ele>217.2</ele>
        <time>2019-08-18T10:16:03Z</time>
      </trkpt>
      <trkpt lat="42.8689890" lon="-8.5482940">
        <ele>217.4</ele>
        <time>2019-08-18T10:16:04Z</time>
      </trkpt>
      <trkpt lat="42.8690160" lon="-8.5483450">
        <ele>217.5</ele>
        <time>2019-08-18T10:16:05Z</time>
      </trkpt>
      <trkpt lat="42.8690460" lon="-8.5483800">
        <ele>217.5</ele>
        <time>2019-08-18T10:16:06Z</time>
      </trkpt>
      <trkpt lat="42.8690770" lon="-8.5483980">
        <ele>217.5</ele>
        <time>2019-08-18T10:16:07Z</time>
      </trkpt>
      <trkpt lat="42.8691070" lon="-8.5484050">
        <ele>217.5</ele>
        <time>2019-08-18T10:16:08Z</time>
      </trkpt>
      <trkpt lat="42.8691340" lon="-8.5484060">
        <ele>217.6</ele>
        <time>2019-08-18T10:16:09Z</time>
      </trkpt>
      <trkpt lat="42.8691570" lon="-8.5484050">
        <ele>217.6</ele>
        <time>2019-08-18T10:16:10Z</time>
      </trkpt>
      <trkpt lat="42.8691780" lon="-8.5484050">
        <ele>217.6</ele>
        <time>2019-08-18T10:16:11Z</time>
      </trkpt>
      <trkpt lat="42.8691970" lon="-8.5484050">
        <ele>217.7</ele>
        <time>2019-08-18T10:16:12Z</time>
      </trkpt>
      <trkpt lat="42.8692190" lon="-8.5484050">
        <ele>217.8</ele>
        <time>2019-08-18T10:16:13Z</time>
      </trkpt>
      <trkpt lat="42.8692410" lon="-8.5484060">
        <ele>217.8</ele>
        <time>2019-08-18T10:16:14Z</time>
      </trkpt>
      <trkpt lat="42.8692700" lon="-8.5484050">
        <ele>217.9</ele>
        <time>2019-08-18T10:16:15Z</time>
      </trkpt>
      <trkpt lat="42.8693040" lon="-8.5484030">
        <ele>218.1</ele>
        <time>2019-08-18T10:16:16Z</time>
      </trkpt>
      <trkpt lat="42.8693330" lon="-8.5483990">
        <ele>218.3</ele>
        <time>2019-08-18T10:16:17Z</time>
      </trkpt>
      <trkpt lat="42.8693470" lon="-8.5483960">
        <ele>218.4</ele>
        <time>2019-08-18T10:16:18Z</time>
      </trkpt>
      <trkpt lat="42.8693840" lon="-8.5483850">
        <ele>218.7</ele>
        <time>2019-08-18T10:16:19Z</time>
      </trkpt>
      <trkpt lat="42.8695440" lon="-8.5483460">
        <ele>219.7</ele>
        <time>2019-08-18T10:16:20Z</time>
      </trkpt>
      <trkpt lat="42.8695620" lon="-8.5483360">
        <ele>219.9</ele>
        <time>2019-08-18T10:17:23Z</time>
      </trkpt>
      <trkpt lat="42.8695860" lon="-8.5483240">
        <ele>220.0</ele>
        <time>2019-08-18T10:17:24Z</time>
      </trkpt>
      <trkpt lat="42.8696180" lon="-8.5483170">
        <ele>220.3</ele>
        <time>2019-08-18T10:17:25Z</time>
      </trkpt>
      <trkpt lat="42.8696490" lon="-8.5483200">
        <ele>220.4</ele>
        <time>2019-08-18T10:17:26Z</time>
      </trkpt>
      <trkpt lat="42.8696860" lon="-8.5483310">
        <ele>220.6</ele>
        <time>2019-08-18T10:17:27Z</time>
      </trkpt>
      <trkpt lat="42.8697240" lon="-8.5483510">
        <ele>220.8</ele>
        <time>2019-08-18T10:17:28Z</time>
      </trkpt>
      <trkpt lat="42.8697690" lon="-8.5484110">
        <ele>221.0</ele>
        <time>2019-08-18T10:17:29Z</time>
      </trkpt>
      <trkpt lat="42.8697820" lon="-8.5484400">
        <ele>220.9</ele>
        <time>2019-08-18T10:17:30Z</time>
      </trkpt>
      <trkpt lat="42.8697940" lon="-8.5484690">
        <ele>220.9</ele>
        <time>2019-08-18T10:17:31Z</time>
      </trkpt>
      <trkpt lat="42.8698050" lon="-8.5485180">
        <ele>220.9</ele>
        <time>2019-08-18T10:17:32Z</time>
      </trkpt>
      <trkpt lat="42.8698200" lon="-8.5485640">
        <ele>220.9</ele>
        <time>2019-08-18T10:17:33Z</time>
      </trkpt>
      <trkpt lat="42.8698400" lon="-8.5485990">
        <ele>220.9</ele>
        <time>2019-08-18T10:17:34Z</time>
      </trkpt>
      <trkpt lat="42.8698640" lon="-8.5486150">
        <ele>220.9</ele>
        <time>2019-08-18T10:17:35Z</time>
      </trkpt>
      <trkpt lat="42.8698900" lon="-8.5486060">
        <ele>220.9</ele>
        <time>2019-08-18T10:17:36Z</time>
      </trkpt>
      <trkpt lat="42.8699090" lon="-8.5485770">
        <ele>220.9</ele>
        <time>2019-08-18T10:17:37Z</time>
      </trkpt>
      <trkpt lat="42.8699140" lon="-8.5485380">
        <ele>220.9</ele>
        <time>2019-08-18T10:17:38Z</time>
      </trkpt>
      <trkpt lat="42.8699110" lon="-8.5484970">
        <ele>220.9</ele>
        <time>2019-08-18T10:17:39Z</time>
      </trkpt>
      <trkpt lat="42.8699060" lon="-8.5484630">
        <ele>220.9</ele>
        <time>2019-08-18T10:17:40Z</time>
      </trkpt>
      <trkpt lat="42.8699010" lon="-8.5484340">
        <ele>220.9</ele>
        <time>2019-08-18T10:17:41Z</time>
      </trkpt>
      <trkpt lat="42.8698960" lon="-8.5484060">
        <ele>221.1</ele>
        <time>2019-08-18T10:17:42Z</time>
      </trkpt>
      <trkpt lat="42.8698910" lon="-8.5483770">
        <ele>221.2</ele>
        <time>2019-08-18T10:17:43Z</time>
      </trkpt>
      <trkpt lat="42.8698870" lon="-8.5483470">
        <ele>221.3</ele>
        <time>2019-08-18T10:17:44Z</time>
      </trkpt>
      <trkpt lat="42.8698850" lon="-8.5483160">
        <ele>221.4</ele>
        <time>2019-08-18T10:17:45Z</time>
      </trkpt>
      <trkpt lat="42.8698860" lon="-8.5482870">
        <ele>221.5</ele>
        <time>2019-08-18T10:17:46Z</time>
      </trkpt>
      <trkpt lat="42.8698930" lon="-8.5482590">
        <ele>221.6</ele>
        <time>2019-08-18T10:17:47Z</time>
      </trkpt>
      <trkpt lat="42.8699010" lon="-8.5482300">
        <ele>221.8</ele>
        <time>2019-08-18T10:17:48Z</time>
      </trkpt>
      <trkpt lat="42.8699090" lon="-8.5481970">
        <ele>221.9</ele>
        <time>2019-08-18T10:17:49Z</time>
      </trkpt>
      <trkpt lat="42.8699140" lon="-8.5481600">
        <ele>222.1</ele>
        <time>2019-08-18T10:17:50Z</time>
      </trkpt>
      <trkpt lat="42.8699180" lon="-8.5481200">
        <ele>222.2</ele>
        <time>2019-08-18T10:17:51Z</time>
      </trkpt>
      <trkpt lat="42.8699200" lon="-8.5480790">
        <ele>222.4</ele>
        <time>2019-08-18T10:17:52Z</time>
      </trkpt>
      <trkpt lat="42.8699230" lon="-8.5480380">
        <ele>222.8</ele>
        <time>2019-08-18T10:17:53Z</time>
      </trkpt>
      <trkpt lat="42.8699270" lon="-8.5480010">
        <ele>223.2</ele>
        <time>2019-08-18T10:17:54Z</time>
      </trkpt>
      <trkpt lat="42.8699330" lon="-8.5479650">
        <ele>223.5</ele>
        <time>2019-08-18T10:17:55Z</time>
      </trkpt>
      <trkpt lat="42.8699400" lon="-8.5479320">
        <ele>223.8</ele>
        <time>2019-08-18T10:17:56Z</time>
      </trkpt>
      <trkpt lat="42.8699490" lon="-8.5478990">
        <ele>224.1</ele>
        <time>2019-08-18T10:17:57Z</time>
      </trkpt>
      <trkpt lat="42.8699600" lon="-8.5478650">
        <ele>224.4</ele>
        <time>2019-08-18T10:17:58Z</time>
      </trkpt>
      <trkpt lat="42.8699730" lon="-8.5478310">
        <ele>224.7</ele>
        <time>2019-08-18T10:17:59Z</time>
      </trkpt>
      <trkpt lat="42.8699870" lon="-8.5477960">
        <ele>225.0</ele>
        <time>2019-08-18T10:18:00Z</time>
      </trkpt>
      <trkpt lat="42.8700040" lon="-8.5477590">
        <ele>225.4</ele>
        <time>2019-08-18T10:18:01Z</time>
      </trkpt>
      <trkpt lat="42.8700220" lon="-8.5477200">
        <ele>225.8</ele>
        <time>2019-08-18T10:18:02Z</time>
      </trkpt>
      <trkpt lat="42.8700400" lon="-8.5476810">
        <ele>226.2</ele>
        <time>2019-08-18T10:18:03Z</time>
      </trkpt>
      <trkpt lat="42.8700590" lon="-8.5476450">
        <ele>226.6</ele>
        <time>2019-08-18T10:18:04Z</time>
      </trkpt>
      <trkpt lat="42.8700750" lon="-8.5476140">
        <ele>226.9</ele>
        <time>2019-08-18T10:18:05Z</time>
      </trkpt>
      <trkpt lat="42.8700910" lon="-8.5475880">
        <ele>227.2</ele>
        <time>2019-08-18T10:18:06Z</time>
      </trkpt>
      <trkpt lat="42.8701060" lon="-8.5475680">
        <ele>229.2</ele>
        <time>2019-08-18T10:18:07Z</time>
      </trkpt>
      <trkpt lat="42.8701210" lon="-8.5475530">
        <ele>229.3</ele>
        <time>2019-08-18T10:18:08Z</time>
      </trkpt>
      <trkpt lat="42.8701370" lon="-8.5475430">
        <ele>229.4</ele>
        <time>2019-08-18T10:18:09Z</time>
      </trkpt>
      <trkpt lat="42.8701540" lon="-8.5475390">
        <ele>229.5</ele>
        <time>2019-08-18T10:18:10Z</time>
      </trkpt>
      <trkpt lat="42.8701730" lon="-8.5475380">
        <ele>229.7</ele>
        <time>2019-08-18T10:18:11Z</time>
      </trkpt>
      <trkpt lat="42.8701940" lon="-8.5475430">
        <ele>229.8</ele>
        <time>2019-08-18T10:18:12Z</time>
      </trkpt>
      <trkpt lat="42.8702170" lon="-8.5475510">
        <ele>230.0</ele>
        <time>2019-08-18T10:18:13Z</time>
      </trkpt>
      <trkpt lat="42.8702420" lon="-8.5475630">
        <ele>230.2</ele>
        <time>2019-08-18T10:18:14Z</time>
      </trkpt>
      <trkpt lat="42.8702670" lon="-8.5475770">
        <ele>230.4</ele>
        <time>2019-08-18T10:18:15Z</time>
      </trkpt>
      <trkpt lat="42.8702930" lon="-8.5475940">
        <ele>230.6</ele>
        <time>2019-08-18T10:18:16Z</time>
      </trkpt>
      <trkpt lat="42.8703190" lon="-8.5476120">
        <ele>230.8</ele>
        <time>2019-08-18T10:18:17Z</time>
      </trkpt>
      <trkpt lat="42.8703440" lon="-8.5476320">
        <ele>231.0</ele>
        <time>2019-08-18T10:18:18Z</time>
      </trkpt>
      <trkpt lat="42.8703690" lon="-8.5476530">
        <ele>231.2</ele>
        <time>2019-08-18T10:18:19Z</time>
      </trkpt>
      <trkpt lat="42.8703930" lon="-8.5476740">
        <ele>231.4</ele>
        <time>2019-08-18T10:18:20Z</time>
      </trkpt>
      <trkpt lat="42.8704170" lon="-8.5476950">
        <ele>231.6</ele>
        <time>2019-08-18T10:18:21Z</time>
      </trkpt>
      <trkpt lat="42.8704420" lon="-8.5477160">
        <ele>231.8</ele>
        <time>2019-08-18T10:18:22Z</time>
      </trkpt>
      <trkpt lat="42.8704680" lon="-8.5477340">
        <ele>232.0</ele>
        <time>2019-08-18T10:18:23Z</time>
      </trkpt>
      <trkpt lat="42.8704940" lon="-8.5477520">
        <ele>232.2</ele>
        <time>2019-08-18T10:18:24Z</time>
      </trkpt>
      <trkpt lat="42.8705200" lon="-8.5477680">
        <ele>232.5</ele>
        <time>2019-08-18T10:18:25Z</time>
      </trkpt>
      <trkpt lat="42.8705450" lon="-8.5477840">
        <ele>232.7</ele>
        <time>2019-08-18T10:18:26Z</time>
      </trkpt>
      <trkpt lat="42.8705680" lon="-8.5477990">
        <ele>232.8</ele>
        <time>2019-08-18T10:18:27Z</time>
      </trkpt>
      <trkpt lat="42.8705910" lon="-8.5478150">
        <ele>233.0</ele>
        <time>2019-08-18T10:18:28Z</time>
      </trkpt>
      <trkpt lat="42.8706120" lon="-8.5478290">
        <ele>233.1</ele>
        <time>2019-08-18T10:18:29Z</time>
      </trkpt>
      <trkpt lat="42.8706330" lon="-8.5478440">
        <ele>233.2</ele>
        <time>2019-08-18T10:18:30Z</time>
      </trkpt>
      <trkpt lat="42.8706530" lon="-8.5478590">
        <ele>233.3</ele>
        <time>2019-08-18T10:18:31Z</time>
      </trkpt>
      <trkpt lat="42.8706740" lon="-8.5478730">
        <ele>233.4</ele>
        <time>2019-08-18T10:18:32Z</time>
      </trkpt>
      <trkpt lat="42.8706950" lon="-8.5478880">
        <ele>233.5</ele>
        <time>2019-08-18T10:18:33Z</time>
      </trkpt>
      <trkpt lat="42.8707180" lon="-8.5479020">
        <ele>233.6</ele>
        <time>2019-08-18T10:18:34Z</time>
      </trkpt>
      <trkpt lat="42.8707400" lon="-8.5479170">
        <ele>233.8</ele>
        <time>2019-08-18T10:18:35Z</time>
      </trkpt>
      <trkpt lat="42.8707640" lon="-8.5479310">
        <ele>234.0</ele>
        <time>2019-08-18T10:18:36Z</time>
      </trkpt>
      <trkpt lat="42.8707880" lon="-8.5479460">
        <ele>234.1</ele>
        <time>2019-08-18T10:18:37Z</time>
      </trkpt>
      <trkpt lat="42.8708120" lon="-8.5479610">
        <ele>234.3</ele>
        <time>2019-08-18T10:18:38Z</time>
      </trkpt>
      <trkpt lat="42.8708360" lon="-8.5479760">
        <ele>234.5</ele>
        <time>2019-08-18T10:18:39Z</time>
      </trkpt>
      <trkpt lat="42.8708590" lon="-8.5479920">
        <ele>234.7</ele>
        <time>2019-08-18T10:18:40Z</time>
      </trkpt>
      <trkpt lat="42.8708830" lon="-8.5480080">
        <ele>234.9</ele>
        <time>2019-08-18T10:18:41Z</time>
      </trkpt>
      <trkpt lat="42.8709060" lon="-8.5480250">
        <ele>235.1</ele>
        <time>2019-08-18T10:18:42Z</time>
      </trkpt>
      <trkpt lat="42.8709290" lon="-8.5480420">
        <ele>235.3</ele>
        <time>2019-08-18T10:18:43Z</time>
      </trkpt>
      <trkpt lat="42.8709510" lon="-8.5480590">
        <ele>235.5</ele>
        <time>2019-08-18T10:18:44Z</time>
      </trkpt>
      <trkpt lat="42.8709730" lon="-8.5480770">
        <ele>235.6</ele>
        <time>2019-08-18T10:18:45Z</time>
      </trkpt>
      <trkpt lat="42.8709950" lon="-8.5480940">
        <ele>235.8</ele>
        <time>2019-08-18T10:18:46Z</time>
      </trkpt>
      <trkpt lat="42.8710160" lon="-8.5481110">
        <ele>235.9</ele>
        <time>2019-08-18T10:18:47Z</time>
      </trkpt>
      <trkpt lat="42.8710370" lon="-8.5481270">
        <ele>236.1</ele>
        <time>2019-08-18T10:18:48Z</time>
      </trkpt>
      <trkpt lat="42.8710580" lon="-8.5481410">
        <ele>236.3</ele>
        <time>2019-08-18T10:18:49Z</time>
      </trkpt>
      <trkpt lat="42.8710800" lon="-8.5481490">
        <ele>236.5</ele>
        <time>2019-08-18T10:18:50Z</time>
      </trkpt>
      <trkpt lat="42.8711020" lon="-8.5481500">
        <ele>236.8</ele>
        <time>2019-08-18T10:18:51Z</time>
      </trkpt>
      <trkpt lat="42.8711250" lon="-8.5481410">
        <ele>237.1</ele>
        <time>2019-08-18T10:18:52Z</time>
      </trkpt>
      <trkpt lat="42.8711480" lon="-8.5481250">
        <ele>237.4</ele>
        <time>2019-08-18T10:18:53Z</time>
      </trkpt>
      <trkpt lat="42.8711700" lon="-8.5481050">
        <ele>239.5</ele>
        <time>2019-08-18T10:18:54Z</time>
      </trkpt>
      <trkpt lat="42.8711900" lon="-8.5480840">
        <ele>239.8</ele>
        <time>2019-08-18T10:18:55Z</time>
      </trkpt>
      <trkpt lat="42.8712080" lon="-8.5480650">
        <ele>240.0</ele>
        <time>2019-08-18T10:18:56Z</time>
      </trkpt>
      <trkpt lat="42.8712250" lon="-8.5480470">
        <ele>240.3</ele>
        <time>2019-08-18T10:18:57Z</time>
      </trkpt>
      <trkpt lat="42.8712400" lon="-8.5480290">
        <ele>240.5</ele>
        <time>2019-08-18T10:18:58Z</time>
      </trkpt>
      <trkpt lat="42.8712550" lon="-8.5480090">
        <ele>240.7</ele>
        <time>2019-08-18T10:18:59Z</time>
      </trkpt>
      <trkpt lat="42.8712700" lon="-8.5479860">
        <ele>241.0</ele>
        <time>2019-08-18T10:19:00Z</time>
      </trkpt>
      <trkpt lat="42.8712850" lon="-8.5479610">
        <ele>241.2</ele>
        <time>2019-08-18T10:19:01Z</time>
      </trkpt>
      <trkpt lat="42.8713000" lon="-8.5479350">
        <ele>241.5</ele>
        <time>2019-08-18T10:19:02Z</time>
      </trkpt>
      <trkpt lat="42.8713150" lon="-8.5479080">
        <ele>241.6</ele>
        <time>2019-08-18T10:19:03Z</time>
      </trkpt>
      <trkpt lat="42.8713300" lon="-8.5478820">
        <ele>241.7</ele>
        <time>2019-08-18T10:19:04Z</time>
      </trkpt>
      <trkpt lat="42.8713450" lon="-8.5478550">
        <ele>241.8</ele>
        <time>2019-08-18T10:19:05Z</time>
      </trkpt>
      <trkpt lat="42.8713590" lon="-8.5478300">
        <ele>241.8</ele>
        <time>2019-08-18T10:19:06Z</time>
      </trkpt>
      <trkpt lat="42.8713730" lon="-8.5478050">
        <ele>241.9</ele>
        <time>2019-08-18T10:19:07Z</time>
      </trkpt>
      <trkpt lat="42.8713870" lon="-8.5477810">
        <ele>242.0</ele>
        <time>2019-08-18T10:19:08Z</time>
      </trkpt>
      <trkpt lat="42.8714000" lon="-8.5477580">
        <ele>242.1</ele>
        <time>2019-08-18T10:19:09Z</time>
      </trkpt>
      <trkpt lat="42.8714130" lon="-8.5477370">
        <ele>242.2</ele>
        <time>2019-08-18T10:19:10Z</time>
      </trkpt>
      <trkpt lat="42.8714260" lon="-8.5477170">
        <ele>242.3</ele>
        <time>2019-08-18T10:19:11Z</time>
      </trkpt>
      <trkpt lat="42.8714380" lon="-8.5476980">
        <ele>242.4</ele>
        <time>2019-08-18T10:19:12Z</time>
      </trkpt>
      <trkpt lat="42.8714500" lon="-8.5476800">
        <ele>242.5</ele>
        <time>2019-08-18T10:19:13Z</time>
      </trkpt>
      <trkpt lat="42.8714610" lon="-8.5476630">
        <ele>242.6</ele>
        <time>2019-08-18T10:19:14Z</time>
      </trkpt>
      <trkpt lat="42.8714710" lon="-8.5476450">
        <ele>242.7</ele>
        <time>2019-08-18T10:19:15Z</time>
      </trkpt>
      <trkpt lat="42.8714800" lon="-8.5476270">
        <ele>242.8</ele>
        <time>2019-08-18T10:19:16Z</time>
      </trkpt>
      <trkpt lat="42.8714880" lon="-8.5476080">
        <ele>242.9</ele>
        <time>2019-08-18T10:19:17Z</time>
      </trkpt>
      <trkpt lat="42.8714950" lon="-8.5475880">
        <ele>243.0</ele>
        <time>2019-08-18T10:19:18Z</time>
      </trkpt>
      <trkpt lat="42.8715030" lon="-8.5475680">
        <ele>243.1</ele>
        <time>2019-08-18T10:19:19Z</time>
      </trkpt>
      <trkpt lat="42.8715140" lon="-8.5475490">
        <ele>243.2</ele>
        <time>2019-08-18T10:19:20Z</time>
      </trkpt>
      <trkpt lat="42.8715310" lon="-8.5475310">
        <ele>243.4</ele>
        <time>2019-08-18T10:19:21Z</time>
      </trkpt>
      <trkpt lat="42.8715540" lon="-8.5475170">
        <ele>243.8</ele>
        <time>2019-08-18T10:19:22Z</time>
      </trkpt>
      <trkpt lat="42.8715800" lon="-8.5475050">
        <ele>243.8</ele>
        <time>2019-08-18T10:19:23Z</time>
      </trkpt>
      <trkpt lat="42.8716070" lon="-8.5474960">
        <ele>243.8</ele>
        <time>2019-08-18T10:19:24Z</time>
      </trkpt>
      <trkpt lat="42.8716300" lon="-8.5474900">
        <ele>243.8</ele>
        <time>2019-08-18T10:19:25Z</time>
      </trkpt>
      <trkpt lat="42.8716460" lon="-8.5474870">
        <ele>243.8</ele>
        <time>2019-08-18T10:19:26Z</time>
      </trkpt>
      <trkpt lat="42.8716590" lon="-8.5474870">
        <ele>243.8</ele>
        <time>2019-08-18T10:19:27Z</time>
      </trkpt>
      <trkpt lat="42.8716700" lon="-8.5474910">
        <ele>243.8</ele>
        <time>2019-08-18T10:19:28Z</time>
      </trkpt>
      <trkpt lat="42.8716830" lon="-8.5475000">
        <ele>243.8</ele>
        <time>2019-08-18T10:19:29Z</time>
      </trkpt>
      <trkpt lat="42.8717010" lon="-8.5475150">
        <ele>243.8</ele>
        <time>2019-08-18T10:19:30Z</time>
      </trkpt>
      <trkpt lat="42.8717220" lon="-8.5475330">
        <ele>243.8</ele>
        <time>2019-08-18T10:19:31Z</time>
      </trkpt>
      <trkpt lat="42.8717450" lon="-8.5475520">
        <ele>243.7</ele>
        <time>2019-08-18T10:19:32Z</time>
      </trkpt>
      <trkpt lat="42.8717680" lon="-8.5475720">
        <ele>243.7</ele>
        <time>2019-08-18T10:19:33Z</time>
      </trkpt>
      <trkpt lat="42.8717900" lon="-8.5475900">
        <ele>243.7</ele>
        <time>2019-08-18T10:19:34Z</time>
      </trkpt>
      <trkpt lat="42.8718110" lon="-8.5476080">
        <ele>243.7</ele>
        <time>2019-08-18T10:19:35Z</time>
      </trkpt>
      <trkpt lat="42.8718330" lon="-8.5476250">
        <ele>243.7</ele>
        <time>2019-08-18T10:19:36Z</time>
      </trkpt>
      <trkpt lat="42.8718540" lon="-8.5476420">
        <ele>243.7</ele>
        <time>2019-08-18T10:19:37Z</time>
      </trkpt>
      <trkpt lat="42.8718740" lon="-8.5476580">
        <ele>243.6</ele>
        <time>2019-08-18T10:19:38Z</time>
      </trkpt>
      <trkpt lat="42.8718950" lon="-8.5476740">
        <ele>243.6</ele>
        <time>2019-08-18T10:19:39Z</time>
      </trkpt>
      <trkpt lat="42.8719150" lon="-8.5476900">
        <ele>243.6</ele>
        <time>2019-08-18T10:19:40Z</time>
      </trkpt>
      <trkpt lat="42.8719360" lon="-8.5477050">
        <ele>243.5</ele>
        <time>2019-08-18T10:19:41Z</time>
      </trkpt>
      <trkpt lat="42.8719560" lon="-8.5477200">
        <ele>243.5</ele>
        <time>2019-08-18T10:19:42Z</time>
      </trkpt>
      <trkpt lat="42.8719770" lon="-8.5477360">
        <ele>243.5</ele>
        <time>2019-08-18T10:19:43Z</time>
      </trkpt>
      <trkpt lat="42.8719970" lon="-8.5477510">
        <ele>243.4</ele>
        <time>2019-08-18T10:19:44Z</time>
      </trkpt>
      <trkpt lat="42.8720180" lon="-8.5477660">
        <ele>243.4</ele>
        <time>2019-08-18T10:19:45Z</time>
      </trkpt>
      <trkpt lat="42.8720390" lon="-8.5477810">
        <ele>243.4</ele>
        <time>2019-08-18T10:19:46Z</time>
      </trkpt>
      <trkpt lat="42.8720600" lon="-8.5477960">
        <ele>243.4</ele>
        <time>2019-08-18T10:19:47Z</time>
      </trkpt>
      <trkpt lat="42.8720820" lon="-8.5478120">
        <ele>243.3</ele>
        <time>2019-08-18T10:19:48Z</time>
      </trkpt>
      <trkpt lat="42.8721040" lon="-8.5478270">
        <ele>243.3</ele>
        <time>2019-08-18T10:19:49Z</time>
      </trkpt>
      <trkpt lat="42.8721260" lon="-8.5478430">
        <ele>243.3</ele>
        <time>2019-08-18T10:19:50Z</time>
      </trkpt>
      <trkpt lat="42.8721480" lon="-8.5478600">
        <ele>243.3</ele>
        <time>2019-08-18T10:19:51Z</time>
      </trkpt>
      <trkpt lat="42.8721700" lon="-8.5478770">
        <ele>243.3</ele>
        <time>2019-08-18T10:19:52Z</time>
      </trkpt>
      <trkpt lat="42.8721930" lon="-8.5478940">
        <ele>243.3</ele>
        <time>2019-08-18T10:19:53Z</time>
      </trkpt>
      <trkpt lat="42.8722160" lon="-8.5479110">
        <ele>243.3</ele>
        <time>2019-08-18T10:19:54Z</time>
      </trkpt>
      <trkpt lat="42.8722390" lon="-8.5479290">
        <ele>243.3</ele>
        <time>2019-08-18T10:19:55Z</time>
      </trkpt>
      <trkpt lat="42.8722620" lon="-8.5479480">
        <ele>243.3</ele>
        <time>2019-08-18T10:19:56Z</time>
      </trkpt>
      <trkpt lat="42.8722850" lon="-8.5479660">
        <ele>243.3</ele>
        <time>2019-08-18T10:19:57Z</time>
      </trkpt>
      <trkpt lat="42.8723070" lon="-8.5479840">
        <ele>243.4</ele>
        <time>2019-08-18T10:19:58Z</time>
      </trkpt>
      <trkpt lat="42.8723280" lon="-8.5480020">
        <ele>243.5</ele>
        <time>2019-08-18T10:19:59Z</time>
      </trkpt>
      <trkpt lat="42.8723480" lon="-8.5480190">
        <ele>243.6</ele>
        <time>2019-08-18T10:20:00Z</time>
      </trkpt>
      <trkpt lat="42.8723670" lon="-8.5480360">
        <ele>243.7</ele>
        <time>2019-08-18T10:20:01Z</time>
      </trkpt>
      <trkpt lat="42.8723850" lon="-8.5480510">
        <ele>243.8</ele>
        <time>2019-08-18T10:20:02Z</time>
      </trkpt>
      <trkpt lat="42.8724010" lon="-8.5480660">
        <ele>243.8</ele>
        <time>2019-08-18T10:20:03Z</time>
      </trkpt>
      <trkpt lat="42.8724170" lon="-8.5480800">
        <ele>243.9</ele>
        <time>2019-08-18T10:20:04Z</time>
      </trkpt>
      <trkpt lat="42.8724340" lon="-8.5480940">
        <ele>244.0</ele>
        <time>2019-08-18T10:20:05Z</time>
      </trkpt>
      <trkpt lat="42.8724510" lon="-8.5481080">
        <ele>244.1</ele>
        <time>2019-08-18T10:20:06Z</time>
      </trkpt>
      <trkpt lat="42.8724700" lon="-8.5481230">
        <ele>244.3</ele>
        <time>2019-08-18T10:20:07Z</time>
      </trkpt>
      <trkpt lat="42.8724900" lon="-8.5481380">
        <ele>244.4</ele>
        <time>2019-08-18T10:20:08Z</time>
      </trkpt>
      <trkpt lat="42.8725140" lon="-8.5481540">
        <ele>244.5</ele>
        <time>2019-08-18T10:20:09Z</time>
      </trkpt>
      <trkpt lat="42.8725380" lon="-8.5481710">
        <ele>244.5</ele>
        <time>2019-08-18T10:20:10Z</time>
      </trkpt>
      <trkpt lat="42.8725630" lon="-8.5481880">
        <ele>244.6</ele>
        <time>2019-08-18T10:20:11Z</time>
      </trkpt>
      <trkpt lat="42.8725870" lon="-8.5482040">
        <ele>244.6</ele>
        <time>2019-08-18T10:20:12Z</time>
      </trkpt>
      <trkpt lat="42.8726150" lon="-8.5482160">
        <ele>244.6</ele>
        <time>2019-08-18T10:20:13Z</time>
      </trkpt>
      <trkpt lat="42.8726800" lon="-8.5482140">
        <ele>244.3</ele>
        <time>2019-08-18T10:20:14Z</time>
      </trkpt>
      <trkpt lat="42.8727760" lon="-8.5481920">
        <ele>243.9</ele>
        <time>2019-08-18T10:20:15Z</time>
      </trkpt>
      <trkpt lat="42.8727830" lon="-8.5481600">
        <ele>244.1</ele>
        <time>2019-08-18T10:20:41Z</time>
      </trkpt>
      <trkpt lat="42.8727900" lon="-8.5481240">
        <ele>244.3</ele>
        <time>2019-08-18T10:20:42Z</time>
      </trkpt>
      <trkpt lat="42.8727990" lon="-8.5480880">
        <ele>244.5</ele>
        <time>2019-08-18T10:20:43Z</time>
      </trkpt>
      <trkpt lat="42.8728080" lon="-8.5480510">
        <ele>244.7</ele>
        <time>2019-08-18T10:20:44Z</time>
      </trkpt>
      <trkpt lat="42.8728190" lon="-8.5480100">
        <ele>244.9</ele>
        <time>2019-08-18T10:20:45Z</time>
      </trkpt>
      <trkpt lat="42.8728340" lon="-8.5479670">
        <ele>245.1</ele>
        <time>2019-08-18T10:20:46Z</time>
      </trkpt>
      <trkpt lat="42.8728620" lon="-8.5478900">
        <ele>245.7</ele>
        <time>2019-08-18T10:20:47Z</time>
      </trkpt>
      <trkpt lat="42.8728730" lon="-8.5478590">
        <ele>245.9</ele>
        <time>2019-08-18T10:20:48Z</time>
      </trkpt>
      <trkpt lat="42.8728840" lon="-8.5478280">
        <ele>246.1</ele>
        <time>2019-08-18T10:20:49Z</time>
      </trkpt>
      <trkpt lat="42.8729000" lon="-8.5477820">
        <ele>246.3</ele>
        <time>2019-08-18T10:20:50Z</time>
      </trkpt>
      <trkpt lat="42.8729150" lon="-8.5477370">
        <ele>246.6</ele>
        <time>2019-08-18T10:20:51Z</time>
      </trkpt>
      <trkpt lat="42.8729300" lon="-8.5476920">
        <ele>246.8</ele>
        <time>2019-08-18T10:20:52Z</time>
      </trkpt>
      <trkpt lat="42.8729460" lon="-8.5476480">
        <ele>247.0</ele>
        <time>2019-08-18T10:20:53Z</time>
      </trkpt>
      <trkpt lat="42.8729620" lon="-8.5476040">
        <ele>247.3</ele>
        <time>2019-08-18T10:20:54Z</time>
      </trkpt>
      <trkpt lat="42.8729790" lon="-8.5475600">
        <ele>247.5</ele>
        <time>2019-08-18T10:20:55Z</time>
      </trkpt>
      <trkpt lat="42.8729970" lon="-8.5475170">
        <ele>247.8</ele>
        <time>2019-08-18T10:20:56Z</time>
      </trkpt>
      <trkpt lat="42.8730160" lon="-8.5474740">
        <ele>248.1</ele>
        <time>2019-08-18T10:20:57Z</time>
      </trkpt>
      <trkpt lat="42.8730360" lon="-8.5474300">
        <ele>248.4</ele>
        <time>2019-08-18T10:20:58Z</time>
      </trkpt>
      <trkpt lat="42.8730560" lon="-8.5473870">
        <ele>248.7</ele>
        <time>2019-08-18T10:20:59Z</time>
      </trkpt>
      <trkpt lat="42.8730760" lon="-8.5473430">
        <ele>249.0</ele>
        <time>2019-08-18T10:21:00Z</time>
      </trkpt>
      <trkpt lat="42.8730950" lon="-8.5472980">
        <ele>249.4</ele>
        <time>2019-08-18T10:21:01Z</time>
      </trkpt>
      <trkpt lat="42.8731140" lon="-8.5472520">
        <ele>249.7</ele>
        <time>2019-08-18T10:21:02Z</time>
      </trkpt>
      <trkpt lat="42.8731310" lon="-8.5472060">
        <ele>250.0</ele>
        <time>2019-08-18T10:21:03Z</time>
      </trkpt>
      <trkpt lat="42.8731470" lon="-8.5471580">
        <ele>250.2</ele>
        <time>2019-08-18T10:21:04Z</time>
      </trkpt>
      <trkpt lat="42.8731620" lon="-8.5471090">
        <ele>250.4</ele>
        <time>2019-08-18T10:21:05Z</time>
      </trkpt>
      <trkpt lat="42.8731770" lon="-8.5470610">
        <ele>250.7</ele>
        <time>2019-08-18T10:21:06Z</time>
      </trkpt>
      <trkpt lat="42.8731900" lon="-8.5470110">
        <ele>250.9</ele>
        <time>2019-08-18T10:21:07Z</time>
      </trkpt>
      <trkpt lat="42.8732020" lon="-8.5469620">
        <ele>251.1</ele>
        <time>2019-08-18T10:21:08Z</time>
      </trkpt>
      <trkpt lat="42.8732150" lon="-8.5469130">
        <ele>251.4</ele>
        <time>2019-08-18T10:21:09Z</time>
      </trkpt>
      <trkpt lat="42.8732260" lon="-8.5468640">
        <ele>251.7</ele>
        <time>2019-08-18T10:21:10Z</time>
      </trkpt>
      <trkpt lat="42.8732370" lon="-8.5468150">
        <ele>252.0</ele>
        <time>2019-08-18T10:21:11Z</time>
      </trkpt>
      <trkpt lat="42.8732480" lon="-8.5467650">
        <ele>252.3</ele>
        <time>2019-08-18T10:21:12Z</time>
      </trkpt>
      <trkpt lat="42.8732580" lon="-8.5467160">
        <ele>252.7</ele>
        <time>2019-08-18T10:21:13Z</time>
      </trkpt>
      <trkpt lat="42.8732680" lon="-8.5466660">
        <ele>253.0</ele>
        <time>2019-08-18T10:21:14Z</time>
      </trkpt>
      <trkpt lat="42.8732780" lon="-8.5466160">
        <ele>253.4</ele>
        <time>2019-08-18T10:21:15Z</time>
      </trkpt>
      <trkpt lat="42.8732860" lon="-8.5465680">
        <ele>253.7</ele>
        <time>2019-08-18T10:21:16Z</time>
      </trkpt>
      <trkpt lat="42.8732940" lon="-8.5465220">
        <ele>254.0</ele>
        <time>2019-08-18T10:21:17Z</time>
      </trkpt>
      <trkpt lat="42.8733020" lon="-8.5464800">
        <ele>254.0</ele>
        <time>2019-08-18T10:21:18Z</time>
      </trkpt>
      <trkpt lat="42.8733190" lon="-8.5464480">
        <ele>254.1</ele>
        <time>2019-08-18T10:21:19Z</time>
      </trkpt>
      <trkpt lat="42.8733530" lon="-8.5464290">
        <ele>254.3</ele>
        <time>2019-08-18T10:21:20Z</time>
      </trkpt>
      <trkpt lat="42.8733960" lon="-8.5464170">
        <ele>254.4</ele>
        <time>2019-08-18T10:21:21Z</time>
      </trkpt>
      <trkpt lat="42.8734690" lon="-8.5463990">
        <ele>254.7</ele>
        <time>2019-08-18T10:21:22Z</time>
      </trkpt>
      <trkpt lat="42.8734980" lon="-8.5463910">
        <ele>254.8</ele>
        <time>2019-08-18T10:21:23Z</time>
      </trkpt>
      <trkpt lat="42.8735270" lon="-8.5463840">
        <ele>254.9</ele>
        <time>2019-08-18T10:21:24Z</time>
      </trkpt>
      <trkpt lat="42.8735710" lon="-8.5463740">
        <ele>255.1</ele>
        <time>2019-08-18T10:21:25Z</time>
      </trkpt>
      <trkpt lat="42.8736160" lon="-8.5463650">
        <ele>255.2</ele>
        <time>2019-08-18T10:21:26Z</time>
      </trkpt>
      <trkpt lat="42.8736610" lon="-8.5463560">
        <ele>255.3</ele>
        <time>2019-08-18T10:21:27Z</time>
      </trkpt>
      <trkpt lat="42.8737400" lon="-8.5463410">
        <ele>255.4</ele>
        <time>2019-08-18T10:21:28Z</time>
      </trkpt>
      <trkpt lat="42.8737710" lon="-8.5463340">
        <ele>255.5</ele>
        <time>2019-08-18T10:21:29Z</time>
      </trkpt>
      <trkpt lat="42.8738030" lon="-8.5463280">
        <ele>255.5</ele>
        <time>2019-08-18T10:21:30Z</time>
      </trkpt>
      <trkpt lat="42.8738510" lon="-8.5463180">
        <ele>255.6</ele>
        <time>2019-08-18T10:21:31Z</time>
      </trkpt>
      <trkpt lat="42.8739000" lon="-8.5463060">
        <ele>255.7</ele>
        <time>2019-08-18T10:21:32Z</time>
      </trkpt>
      <trkpt lat="42.8739500" lon="-8.5462940">
        <ele>255.7</ele>
        <time>2019-08-18T10:21:33Z</time>
      </trkpt>
      <trkpt lat="42.8740000" lon="-8.5462800">
        <ele>255.7</ele>
        <time>2019-08-18T10:21:34Z</time>
      </trkpt>
      <trkpt lat="42.8740510" lon="-8.5462660">
        <ele>255.8</ele>
        <time>2019-08-18T10:21:35Z</time>
      </trkpt>
      <trkpt lat="42.8741040" lon="-8.5462520">
        <ele>255.8</ele>
        <time>2019-08-18T10:21:36Z</time>
      </trkpt>
      <trkpt lat="42.8741580" lon="-8.5462380">
        <ele>255.8</ele>
        <time>2019-08-18T10:21:37Z</time>
      </trkpt>
      <trkpt lat="42.8742130" lon="-8.5462260">
        <ele>255.8</ele>
        <time>2019-08-18T10:21:38Z</time>
      </trkpt>
      <trkpt lat="42.8742710" lon="-8.5462160">
        <ele>255.8</ele>
        <time>2019-08-18T10:21:39Z</time>
      </trkpt>
      <trkpt lat="42.8743310" lon="-8.5462080">
        <ele>255.8</ele>
        <time>2019-08-18T10:21:40Z</time>
      </trkpt>
      <trkpt lat="42.8743880" lon="-8.5462020">
        <ele>255.9</ele>
        <time>2019-08-18T10:21:41Z</time>
      </trkpt>
      <trkpt lat="42.8744400" lon="-8.5462010">
        <ele>255.9</ele>
        <time>2019-08-18T10:21:42Z</time>
      </trkpt>
      <trkpt lat="42.8744810" lon="-8.5462040">
        <ele>256.0</ele>
        <time>2019-08-18T10:21:43Z</time>
      </trkpt>
      <trkpt lat="42.8745120" lon="-8.5462100">
        <ele>256.1</ele>
        <time>2019-08-18T10:21:44Z</time>
      </trkpt>
      <trkpt lat="42.8745440" lon="-8.5462110">
        <ele>256.3</ele>
        <time>2019-08-18T10:21:45Z</time>
      </trkpt>
      <trkpt lat="42.8745880" lon="-8.5461990">
        <ele>256.2</ele>
        <time>2019-08-18T10:21:46Z</time>
      </trkpt>
      <trkpt lat="42.8746840" lon="-8.5461750">
        <ele>256.1</ele>
        <time>2019-08-18T10:21:47Z</time>
      </trkpt>
      <trkpt lat="42.8747260" lon="-8.5461680">
        <ele>256.0</ele>
        <time>2019-08-18T10:21:48Z</time>
      </trkpt>
      <trkpt lat="42.8747680" lon="-8.5461610">
        <ele>255.9</ele>
        <time>2019-08-18T10:21:49Z</time>
      </trkpt>
      <trkpt lat="42.8748350" lon="-8.5461550">
        <ele>255.8</ele>
        <time>2019-08-18T10:21:50Z</time>
      </trkpt>
      <trkpt lat="42.8749050" lon="-8.5461500">
        <ele>255.6</ele>
        <time>2019-08-18T10:21:51Z</time>
      </trkpt>
      <trkpt lat="42.8750080" lon="-8.5461420">
        <ele>255.4</ele>
        <time>2019-08-18T10:21:52Z</time>
      </trkpt>
      <trkpt lat="42.8750410" lon="-8.5461390">
        <ele>255.4</ele>
        <time>2019-08-18T10:21:53Z</time>
      </trkpt>
      <trkpt lat="42.8751060" lon="-8.5461330">
        <ele>255.5</ele>
        <time>2019-08-18T10:21:54Z</time>
      </trkpt>
      <trkpt lat="42.8751650" lon="-8.5461280">
        <ele>255.6</ele>
        <time>2019-08-18T10:21:55Z</time>
      </trkpt>
      <trkpt lat="42.8752190" lon="-8.5461240">
        <ele>255.7</ele>
        <time>2019-08-18T10:21:56Z</time>
      </trkpt>
      <trkpt lat="42.8752690" lon="-8.5461210">
        <ele>255.8</ele>
        <time>2019-08-18T10:21:57Z</time>
      </trkpt>
      <trkpt lat="42.8753170" lon="-8.5461200">
        <ele>255.9</ele>
        <time>2019-08-18T10:21:58Z</time>
      </trkpt>
      <trkpt lat="42.8753880" lon="-8.5461220">
        <ele>256.0</ele>
        <time>2019-08-18T10:21:59Z</time>
      </trkpt>
      <trkpt lat="42.8754120" lon="-8.5461240">
        <ele>256.0</ele>
        <time>2019-08-18T10:22:00Z</time>
      </trkpt>
      <trkpt lat="42.8754600" lon="-8.5461280">
        <ele>256.1</ele>
        <time>2019-08-18T10:22:01Z</time>
      </trkpt>
      <trkpt lat="42.8755100" lon="-8.5461370">
        <ele>256.1</ele>
        <time>2019-08-18T10:22:02Z</time>
      </trkpt>
      <trkpt lat="42.8755590" lon="-8.5461460">
        <ele>256.2</ele>
        <time>2019-08-18T10:22:03Z</time>
      </trkpt>
      <trkpt lat="42.8756050" lon="-8.5461550">
        <ele>256.2</ele>
        <time>2019-08-18T10:22:04Z</time>
      </trkpt>
      <trkpt lat="42.8756450" lon="-8.5461610">
        <ele>256.2</ele>
        <time>2019-08-18T10:22:05Z</time>
      </trkpt>
      <trkpt lat="42.8756760" lon="-8.5461640">
        <ele>256.2</ele>
        <time>2019-08-18T10:22:06Z</time>
      </trkpt>
      <trkpt lat="42.8757020" lon="-8.5461670">
        <ele>256.2</ele>
        <time>2019-08-18T10:22:07Z</time>
      </trkpt>
      <trkpt lat="42.8757280" lon="-8.5461730">
        <ele>256.2</ele>
        <time>2019-08-18T10:22:08Z</time>
      </trkpt>
      <trkpt lat="42.8757550" lon="-8.5461840">
        <ele>256.2</ele>
        <time>2019-08-18T10:22:09Z</time>
      </trkpt>
      <trkpt lat="42.8757860" lon="-8.5462020">
        <ele>256.1</ele>
        <time>2019-08-18T10:22:10Z</time>
      </trkpt>
      <trkpt lat="42.8758200" lon="-8.5462240">
        <ele>256.0</ele>
        <time>2019-08-18T10:22:11Z</time>
      </trkpt>
      <trkpt lat="42.8758570" lon="-8.5462500">
        <ele>255.9</ele>
        <time>2019-08-18T10:22:12Z</time>
      </trkpt>
      <trkpt lat="42.8759240" lon="-8.5462970">
        <ele>255.4</ele>
        <time>2019-08-18T10:22:13Z</time>
      </trkpt>
      <trkpt lat="42.8759520" lon="-8.5463170">
        <ele>255.2</ele>
        <time>2019-08-18T10:22:14Z</time>
      </trkpt>
      <trkpt lat="42.8759800" lon="-8.5463360">
        <ele>255.1</ele>
        <time>2019-08-18T10:22:15Z</time>
      </trkpt>
      <trkpt lat="42.8760490" lon="-8.5463760">
        <ele>254.8</ele>
        <time>2019-08-18T10:22:16Z</time>
      </trkpt>
      <trkpt lat="42.8760720" lon="-8.5463880">
        <ele>254.8</ele>
        <time>2019-08-18T10:22:17Z</time>
      </trkpt>
      <trkpt lat="42.8761190" lon="-8.5464130">
        <ele>254.8</ele>
        <time>2019-08-18T10:22:18Z</time>
      </trkpt>
      <trkpt lat="42.8761670" lon="-8.5464340">
        <ele>254.8</ele>
        <time>2019-08-18T10:22:19Z</time>
      </trkpt>
      <trkpt lat="42.8762130" lon="-8.5464530">
        <ele>254.8</ele>
        <time>2019-08-18T10:22:20Z</time>
      </trkpt>
      <trkpt lat="42.8762580" lon="-8.5464690">
        <ele>254.9</ele>
        <time>2019-08-18T10:22:21Z</time>
      </trkpt>
      <trkpt lat="42.8763010" lon="-8.5464840">
        <ele>254.9</ele>
        <time>2019-08-18T10:22:22Z</time>
      </trkpt>
      <trkpt lat="42.8763410" lon="-8.5464960">
        <ele>254.9</ele>
        <time>2019-08-18T10:22:23Z</time>
      </trkpt>
      <trkpt lat="42.8763770" lon="-8.5465070">
        <ele>254.9</ele>
        <time>2019-08-18T10:22:24Z</time>
      </trkpt>
      <trkpt lat="42.8764120" lon="-8.5465160">
        <ele>254.9</ele>
        <time>2019-08-18T10:22:25Z</time>
      </trkpt>
      <trkpt lat="42.8764460" lon="-8.5465240">
        <ele>254.9</ele>
        <time>2019-08-18T10:22:26Z</time>
      </trkpt>
      <trkpt lat="42.8764830" lon="-8.5465300">
        <ele>254.8</ele>
        <time>2019-08-18T10:22:27Z</time>
      </trkpt>
      <trkpt lat="42.8765220" lon="-8.5465350">
        <ele>254.8</ele>
        <time>2019-08-18T10:22:28Z</time>
      </trkpt>
      <trkpt lat="42.8765620" lon="-8.5465340">
        <ele>254.8</ele>
        <time>2019-08-18T10:22:29Z</time>
      </trkpt>
      <trkpt lat="42.8765990" lon="-8.5465220">
        <ele>254.8</ele>
        <time>2019-08-18T10:22:30Z</time>
      </trkpt>
      <trkpt lat="42.8766300" lon="-8.5464950">
        <ele>254.8</ele>
        <time>2019-08-18T10:22:31Z</time>
      </trkpt>
      <trkpt lat="42.8766560" lon="-8.5464560">
        <ele>254.7</ele>
        <time>2019-08-18T10:22:32Z</time>
      </trkpt>
      <trkpt lat="42.8766770" lon="-8.5464090">
        <ele>254.9</ele>
        <time>2019-08-18T10:22:33Z</time>
      </trkpt>
      <trkpt lat="42.8766940" lon="-8.5463580">
        <ele>255.1</ele>
        <time>2019-08-18T10:22:34Z</time>
      </trkpt>
      <trkpt lat="42.8767080" lon="-8.5463090">
        <ele>255.2</ele>
        <time>2019-08-18T10:22:35Z</time>
      </trkpt>
      <trkpt lat="42.8767180" lon="-8.5462640">
        <ele>255.3</ele>
        <time>2019-08-18T10:22:36Z</time>
      </trkpt>
      <trkpt lat="42.8767220" lon="-8.5462270">
        <ele>255.4</ele>
        <time>2019-08-18T10:22:37Z</time>
      </trkpt>
      <trkpt lat="42.8767460" lon="-8.5461790">
        <ele>255.5</ele>
        <time>2019-08-18T10:22:38Z</time>
      </trkpt>
      <trkpt lat="42.8768480" lon="-8.5460830">
        <ele>256.1</ele>
        <time>2019-08-18T10:23:23Z</time>
      </trkpt>
      <trkpt lat="42.8768770" lon="-8.5460990">
        <ele>256.1</ele>
        <time>2019-08-18T10:23:24Z</time>
      </trkpt>
      <trkpt lat="42.8769100" lon="-8.5461260">
        <ele>256.0</ele>
        <time>2019-08-18T10:23:25Z</time>
      </trkpt>
      <trkpt lat="42.8769460" lon="-8.5461480">
        <ele>255.9</ele>
        <time>2019-08-18T10:23:26Z</time>
      </trkpt>
      <trkpt lat="42.8769780" lon="-8.5461700">
        <ele>255.8</ele>
        <time>2019-08-18T10:23:27Z</time>
      </trkpt>
      <trkpt lat="42.8770090" lon="-8.5461910">
        <ele>255.7</ele>
        <time>2019-08-18T10:23:28Z</time>
      </trkpt>
      <trkpt lat="42.8770410" lon="-8.5462070">
        <ele>255.7</ele>
        <time>2019-08-18T10:23:29Z</time>
      </trkpt>
      <trkpt lat="42.8770750" lon="-8.5462170">
        <ele>255.6</ele>
        <time>2019-08-18T10:23:30Z</time>
      </trkpt>
      <trkpt lat="42.8771110" lon="-8.5462220">
        <ele>255.5</ele>
        <time>2019-08-18T10:23:31Z</time>
      </trkpt>
      <trkpt lat="42.8771470" lon="-8.5462230">
        <ele>255.4</ele>
        <time>2019-08-18T10:23:32Z</time>
      </trkpt>
      <trkpt lat="42.8771810" lon="-8.5462210">
        <ele>255.4</ele>
        <time>2019-08-18T10:23:33Z</time>
      </trkpt>
      <trkpt lat="42.8772120" lon="-8.5462190">
        <ele>255.4</ele>
        <time>2019-08-18T10:23:34Z</time>
      </trkpt>
      <trkpt lat="42.8772390" lon="-8.5462170">
        <ele>255.4</ele>
        <time>2019-08-18T10:23:35Z</time>
      </trkpt>
      <trkpt lat="42.8772620" lon="-8.5462160">
        <ele>255.3</ele>
        <time>2019-08-18T10:23:36Z</time>
      </trkpt>
      <trkpt lat="42.8772820" lon="-8.5462170">
        <ele>255.3</ele>
        <time>2019-08-18T10:23:37Z</time>
      </trkpt>
      <trkpt lat="42.8773240" lon="-8.5462270">
        <ele>255.2</ele>
        <time>2019-08-18T10:23:38Z</time>
      </trkpt>
      <trkpt lat="42.8773480" lon="-8.5462340">
        <ele>255.1</ele>
        <time>2019-08-18T10:23:39Z</time>
      </trkpt>
      <trkpt lat="42.8773720" lon="-8.5462400">
        <ele>255.0</ele>
        <time>2019-08-18T10:23:40Z</time>
      </trkpt>
      <trkpt lat="42.8773950" lon="-8.5462470">
        <ele>254.9</ele>
        <time>2019-08-18T10:23:41Z</time>
      </trkpt>
      <trkpt lat="42.8774190" lon="-8.5462540">
        <ele>254.8</ele>
        <time>2019-08-18T10:23:42Z</time>
      </trkpt>
      <trkpt lat="42.8774430" lon="-8.5462610">
        <ele>254.7</ele>
        <time>2019-08-18T10:23:43Z</time>
      </trkpt>
      <trkpt lat="42.8774790" lon="-8.5462750">
        <ele>254.5</ele>
        <time>2019-08-18T10:23:44Z</time>
      </trkpt>
      <trkpt lat="42.8775120" lon="-8.5462840">
        <ele>254.4</ele>
        <time>2019-08-18T10:23:45Z</time>
      </trkpt>
      <trkpt lat="42.8775400" lon="-8.5462830">
        <ele>254.2</ele>
        <time>2019-08-18T10:23:46Z</time>
      </trkpt>
      <trkpt lat="42.8775660" lon="-8.5462760">
        <ele>254.1</ele>
        <time>2019-08-18T10:23:47Z</time>
      </trkpt>
      <trkpt lat="42.8776100" lon="-8.5462700">
        <ele>254.0</ele>
        <time>2019-08-18T10:23:48Z</time>
      </trkpt>
      <trkpt lat="42.8776250" lon="-8.5462690">
        <ele>253.9</ele>
        <time>2019-08-18T10:23:49Z</time>
      </trkpt>
      <trkpt lat="42.8776560" lon="-8.5462710">
        <ele>253.8</ele>
        <time>2019-08-18T10:23:50Z</time>
      </trkpt>
      <trkpt lat="42.8776880" lon="-8.5462770">
        <ele>253.7</ele>
        <time>2019-08-18T10:23:51Z</time>
      </trkpt>
      <trkpt lat="42.8777190" lon="-8.5462850">
        <ele>253.5</ele>
        <time>2019-08-18T10:23:52Z</time>
      </trkpt>
      <trkpt lat="42.8777490" lon="-8.5462930">
        <ele>253.4</ele>
        <time>2019-08-18T10:23:53Z</time>
      </trkpt>
      <trkpt lat="42.8777920" lon="-8.5463020">
        <ele>253.2</ele>
        <time>2019-08-18T10:23:54Z</time>
      </trkpt>
      <trkpt lat="42.8778050" lon="-8.5463040">
        <ele>253.1</ele>
        <time>2019-08-18T10:23:55Z</time>
      </trkpt>
      <trkpt lat="42.8778320" lon="-8.5463040">
        <ele>253.1</ele>
        <time>2019-08-18T10:23:56Z</time>
      </trkpt>
      <trkpt lat="42.8778580" lon="-8.5463010">
        <ele>253.0</ele>
        <time>2019-08-18T10:23:57Z</time>
      </trkpt>
      <trkpt lat="42.8778870" lon="-8.5462940">
        <ele>252.9</ele>
        <time>2019-08-18T10:23:58Z</time>
      </trkpt>
      <trkpt lat="42.8779330" lon="-8.5462770">
        <ele>252.8</ele>
        <time>2019-08-18T10:23:59Z</time>
      </trkpt>
      <trkpt lat="42.8779480" lon="-8.5462710">
        <ele>252.8</ele>
        <time>2019-08-18T10:24:00Z</time>
      </trkpt>
      <trkpt lat="42.8779780" lon="-8.5462570">
        <ele>252.7</ele>
        <time>2019-08-18T10:24:01Z</time>
      </trkpt>
      <trkpt lat="42.8780070" lon="-8.5462440">
        <ele>252.6</ele>
        <time>2019-08-18T10:24:02Z</time>
      </trkpt>
      <trkpt lat="42.8780340" lon="-8.5462340">
        <ele>252.5</ele>
        <time>2019-08-18T10:24:03Z</time>
      </trkpt>
      <trkpt lat="42.8780560" lon="-8.5462270">
        <ele>252.4</ele>
        <time>2019-08-18T10:24:04Z</time>
      </trkpt>
      <trkpt lat="42.8780730" lon="-8.5462260">
        <ele>252.4</ele>
        <time>2019-08-18T10:24:05Z</time>
      </trkpt>
      <trkpt lat="42.8780840" lon="-8.5462310">
        <ele>252.3</ele>
        <time>2019-08-18T10:24:06Z</time>
      </trkpt>
      <trkpt lat="42.8780920" lon="-8.5462390">
        <ele>252.3</ele>
        <time>2019-08-18T10:24:07Z</time>
      </trkpt>
      <trkpt lat="42.8781020" lon="-8.5462460">
        <ele>252.2</ele>
        <time>2019-08-18T10:24:08Z</time>
      </trkpt>
      <trkpt lat="42.8781180" lon="-8.5462480">
        <ele>252.2</ele>
        <time>2019-08-18T10:24:09Z</time>
      </trkpt>
      <trkpt lat="42.8781420" lon="-8.5462420">
        <ele>252.1</ele>
        <time>2019-08-18T10:24:10Z</time>
      </trkpt>
      <trkpt lat="42.8781720" lon="-8.5462300">
        <ele>252.0</ele>
        <time>2019-08-18T10:24:11Z</time>
      </trkpt>
      <trkpt lat="42.8782040" lon="-8.5462140">
        <ele>251.9</ele>
        <time>2019-08-18T10:24:12Z</time>
      </trkpt>
      <trkpt lat="42.8782350" lon="-8.5461960">
        <ele>251.7</ele>
        <time>2019-08-18T10:24:13Z</time>
      </trkpt>
      <trkpt lat="42.8782640" lon="-8.5461760">
        <ele>251.6</ele>
        <time>2019-08-18T10:24:14Z</time>
      </trkpt>
      <trkpt lat="42.8782890" lon="-8.5461510">
        <ele>251.5</ele>
        <time>2019-08-18T10:24:15Z</time>
      </trkpt>
      <trkpt lat="42.8783090" lon="-8.5461200">
        <ele>251.4</ele>
        <time>2019-08-18T10:24:16Z</time>
      </trkpt>
      <trkpt lat="42.8783230" lon="-8.5460840">
        <ele>251.3</ele>
        <time>2019-08-18T10:24:17Z</time>
      </trkpt>
      <trkpt lat="42.8783360" lon="-8.5460480">
        <ele>251.2</ele>
        <time>2019-08-18T10:24:18Z</time>
      </trkpt>
      <trkpt lat="42.8783550" lon="-8.5460190">
        <ele>251.8</ele>
        <time>2019-08-18T10:24:19Z</time>
      </trkpt>
      <trkpt lat="42.8783830" lon="-8.5460040">
        <ele>251.6</ele>
        <time>2019-08-18T10:24:20Z</time>
      </trkpt>
      <trkpt lat="42.8784180" lon="-8.5460010">
        <ele>251.4</ele>
        <time>2019-08-18T10:24:21Z</time>
      </trkpt>
      <trkpt lat="42.8784590" lon="-8.5460060">
        <ele>251.1</ele>
        <time>2019-08-18T10:24:22Z</time>
      </trkpt>
      <trkpt lat="42.8785020" lon="-8.5460160">
        <ele>250.9</ele>
        <time>2019-08-18T10:24:23Z</time>
      </trkpt>
      <trkpt lat="42.8785440" lon="-8.5460290">
        <ele>250.6</ele>
        <time>2019-08-18T10:24:24Z</time>
      </trkpt>
      <trkpt lat="42.8785870" lon="-8.5460420">
        <ele>250.2</ele>
        <time>2019-08-18T10:24:25Z</time>
      </trkpt>
      <trkpt lat="42.8786610" lon="-8.5460590">
        <ele>249.5</ele>
        <time>2019-08-18T10:24:26Z</time>
      </trkpt>
      <trkpt lat="42.8786930" lon="-8.5460650">
        <ele>249.3</ele>
        <time>2019-08-18T10:24:27Z</time>
      </trkpt>
      <trkpt lat="42.8787240" lon="-8.5460700">
        <ele>249.0</ele>
        <time>2019-08-18T10:24:28Z</time>
      </trkpt>
      <trkpt lat="42.8787720" lon="-8.5460750">
        <ele>248.6</ele>
        <time>2019-08-18T10:24:29Z</time>
      </trkpt>
      <trkpt lat="42.8788390" lon="-8.5460870">
        <ele>248.2</ele>
        <time>2019-08-18T10:24:30Z</time>
      </trkpt>
      <trkpt lat="42.8788590" lon="-8.5460920">
        <ele>248.1</ele>
        <time>2019-08-18T10:24:31Z</time>
      </trkpt>
      <trkpt lat="42.8788930" lon="-8.5461080">
        <ele>247.9</ele>
        <time>2019-08-18T10:24:32Z</time>
      </trkpt>
      <trkpt lat="42.8789220" lon="-8.5461250">
        <ele>247.8</ele>
        <time>2019-08-18T10:24:33Z</time>
      </trkpt>
      <trkpt lat="42.8789480" lon="-8.5461380">
        <ele>247.5</ele>
        <time>2019-08-18T10:24:34Z</time>
      </trkpt>
      <trkpt lat="42.8789720" lon="-8.5461430">
        <ele>247.4</ele>
        <time>2019-08-18T10:24:35Z</time>
      </trkpt>
      <trkpt lat="42.8789940" lon="-8.5461440">
        <ele>247.4</ele>
        <time>2019-08-18T10:24:36Z</time>
      </trkpt>
      <trkpt lat="42.8790130" lon="-8.5461460">
        <ele>247.4</ele>
        <time>2019-08-18T10:24:37Z</time>
      </trkpt>
      <trkpt lat="42.8790270" lon="-8.5461560">
        <ele>247.4</ele>
        <time>2019-08-18T10:24:38Z</time>
      </trkpt>
      <trkpt lat="42.8790370" lon="-8.5461760">
        <ele>246.9</ele>
        <time>2019-08-18T10:24:39Z</time>
      </trkpt>
      <trkpt lat="42.8790420" lon="-8.5462070">
        <ele>246.6</ele>
        <time>2019-08-18T10:24:40Z</time>
      </trkpt>
      <trkpt lat="42.8790460" lon="-8.5462490">
        <ele>246.2</ele>
        <time>2019-08-18T10:24:41Z</time>
      </trkpt>
      <trkpt lat="42.8790490" lon="-8.5462980">
        <ele>245.8</ele>
        <time>2019-08-18T10:24:42Z</time>
      </trkpt>
      <trkpt lat="42.8790520" lon="-8.5463570">
        <ele>245.3</ele>
        <time>2019-08-18T10:24:43Z</time>
      </trkpt>
      <trkpt lat="42.8790560" lon="-8.5464230">
        <ele>244.9</ele>
        <time>2019-08-18T10:24:44Z</time>
      </trkpt>
      <trkpt lat="42.8790590" lon="-8.5464970">
        <ele>244.5</ele>
        <time>2019-08-18T10:24:45Z</time>
      </trkpt>
      <trkpt lat="42.8790630" lon="-8.5465780">
        <ele>244.2</ele>
        <time>2019-08-18T10:24:46Z</time>
      </trkpt>
      <trkpt lat="42.8790660" lon="-8.5466580">
        <ele>244.1</ele>
        <time>2019-08-18T10:24:47Z</time>
      </trkpt>
      <trkpt lat="42.8790690" lon="-8.5467300">
        <ele>244.2</ele>
        <time>2019-08-18T10:24:48Z</time>
      </trkpt>
      <trkpt lat="42.8790720" lon="-8.5467880">
        <ele>244.3</ele>
        <time>2019-08-18T10:24:49Z</time>
      </trkpt>
      <trkpt lat="42.8790740" lon="-8.5468290">
        <ele>244.3</ele>
        <time>2019-08-18T10:24:50Z</time>
      </trkpt>
      <trkpt lat="42.8790740" lon="-8.5468570">
        <ele>244.3</ele>
        <time>2019-08-18T10:24:51Z</time>
      </trkpt>
      <trkpt lat="42.8790770" lon="-8.5468740">
        <ele>244.3</ele>
        <time>2019-08-18T10:24:52Z</time>
      </trkpt>
      <trkpt lat="42.8790880" lon="-8.5468820">
        <ele>244.3</ele>
        <time>2019-08-18T10:24:53Z</time>
      </trkpt>
      <trkpt lat="42.8791070" lon="-8.5468760">
        <ele>244.2</ele>
        <time>2019-08-18T10:24:54Z</time>
      </trkpt>
      <trkpt lat="42.8791310" lon="-8.5468520">
        <ele>244.2</ele>
        <time>2019-08-18T10:24:55Z</time>
      </trkpt>
      <trkpt lat="42.8791540" lon="-8.5468180">
        <ele>244.4</ele>
        <time>2019-08-18T10:24:56Z</time>
      </trkpt>
      <trkpt lat="42.8791670" lon="-8.5467790">
        <ele>244.5</ele>
        <time>2019-08-18T10:24:57Z</time>
      </trkpt>
      <trkpt lat="42.8791720" lon="-8.5467380">
        <ele>244.6</ele>
        <time>2019-08-18T10:24:58Z</time>
      </trkpt>
      <trkpt lat="42.8791710" lon="-8.5466960">
        <ele>244.7</ele>
        <time>2019-08-18T10:24:59Z</time>
      </trkpt>
      <trkpt lat="42.8791650" lon="-8.5466530">
        <ele>244.8</ele>
        <time>2019-08-18T10:25:00Z</time>
      </trkpt>
      <trkpt lat="42.8791580" lon="-8.5466110">
        <ele>244.9</ele>
        <time>2019-08-18T10:25:01Z</time>
      </trkpt>
      <trkpt lat="42.8791520" lon="-8.5465680">
        <ele>245.0</ele>
        <time>2019-08-18T10:25:02Z</time>
      </trkpt>
      <trkpt lat="42.8791480" lon="-8.5465230">
        <ele>245.4</ele>
        <time>2019-08-18T10:25:03Z</time>
      </trkpt>
      <trkpt lat="42.8791480" lon="-8.5464740">
        <ele>245.6</ele>
        <time>2019-08-18T10:25:04Z</time>
      </trkpt>
      <trkpt lat="42.8791510" lon="-8.5464250">
        <ele>245.8</ele>
        <time>2019-08-18T10:25:05Z</time>
      </trkpt>
      <trkpt lat="42.8791560" lon="-8.5463750">
        <ele>246.0</ele>
        <time>2019-08-18T10:25:06Z</time>
      </trkpt>
      <trkpt lat="42.8791610" lon="-8.5463270">
        <ele>246.2</ele>
        <time>2019-08-18T10:25:07Z</time>
      </trkpt>
      <trkpt lat="42.8791640" lon="-8.5462830">
        <ele>246.4</ele>
        <time>2019-08-18T10:25:08Z</time>
      </trkpt>
      <trkpt lat="42.8791700" lon="-8.5462450">
        <ele>246.6</ele>
        <time>2019-08-18T10:25:09Z</time>
      </trkpt>
      <trkpt lat="42.8791820" lon="-8.5462170">
        <ele>246.7</ele>
        <time>2019-08-18T10:25:10Z</time>
      </trkpt>
      <trkpt lat="42.8792020" lon="-8.5462020">
        <ele>246.8</ele>
        <time>2019-08-18T10:25:11Z</time>
      </trkpt>
      <trkpt lat="42.8792290" lon="-8.5461950">
        <ele>247.1</ele>
        <time>2019-08-18T10:25:12Z</time>
      </trkpt>
      <trkpt lat="42.8792580" lon="-8.5461950">
        <ele>247.1</ele>
        <time>2019-08-18T10:25:13Z</time>
      </trkpt>
      <trkpt lat="42.8792880" lon="-8.5461970">
        <ele>247.1</ele>
        <time>2019-08-18T10:25:14Z</time>
      </trkpt>
      <trkpt lat="42.8793160" lon="-8.5461990">
        <ele>247.1</ele>
        <time>2019-08-18T10:25:15Z</time>
      </trkpt>
      <trkpt lat="42.8793420" lon="-8.5462000">
        <ele>247.1</ele>
        <time>2019-08-18T10:25:16Z</time>
      </trkpt>
      <trkpt lat="42.8793690" lon="-8.5461990">
        <ele>247.1</ele>
        <time>2019-08-18T10:25:17Z</time>
      </trkpt>
      <trkpt lat="42.8793970" lon="-8.5461980">
        <ele>247.2</ele>
        <time>2019-08-18T10:25:18Z</time>
      </trkpt>
      <trkpt lat="42.8794280" lon="-8.5461970">
        <ele>247.2</ele>
        <time>2019-08-18T10:25:19Z</time>
      </trkpt>
      <trkpt lat="42.8794600" lon="-8.5461960">
        <ele>247.3</ele>
        <time>2019-08-18T10:25:20Z</time>
      </trkpt>
      <trkpt lat="42.8794930" lon="-8.5461960">
        <ele>247.4</ele>
        <time>2019-08-18T10:25:21Z</time>
      </trkpt>
      <trkpt lat="42.8795270" lon="-8.5461960">
        <ele>247.5</ele>
        <time>2019-08-18T10:25:22Z</time>
      </trkpt>
      <trkpt lat="42.8795620" lon="-8.5461970">
        <ele>247.6</ele>
        <time>2019-08-18T10:25:23Z</time>
      </trkpt>
      <trkpt lat="42.8795960" lon="-8.5461990">
        <ele>247.7</ele>
        <time>2019-08-18T10:25:24Z</time>
      </trkpt>
      <trkpt lat="42.8796290" lon="-8.5462030">
        <ele>247.8</ele>
        <time>2019-08-18T10:25:25Z</time>
      </trkpt>
      <trkpt lat="42.8796610" lon="-8.5462090">
        <ele>247.9</ele>
        <time>2019-08-18T10:25:26Z</time>
      </trkpt>
      <trkpt lat="42.8796930" lon="-8.5462150">
        <ele>248.1</ele>
        <time>2019-08-18T10:25:27Z</time>
      </trkpt>
      <trkpt lat="42.8797220" lon="-8.5462210">
        <ele>248.3</ele>
        <time>2019-08-18T10:25:28Z</time>
      </trkpt>
      <trkpt lat="42.8797490" lon="-8.5462260">
        <ele>248.5</ele>
        <time>2019-08-18T10:25:29Z</time>
      </trkpt>
      <trkpt lat="42.8797730" lon="-8.5462280">
        <ele>248.8</ele>
        <time>2019-08-18T10:25:30Z</time>
      </trkpt>
      <trkpt lat="42.8797950" lon="-8.5462260">
        <ele>249.0</ele>
        <time>2019-08-18T10:25:31Z</time>
      </trkpt>
      <trkpt lat="42.8798120" lon="-8.5462190">
        <ele>249.2</ele>
        <time>2019-08-18T10:25:32Z</time>
      </trkpt>
      <trkpt lat="42.8798260" lon="-8.5462060">
        <ele>249.3</ele>
        <time>2019-08-18T10:25:33Z</time>
      </trkpt>
      <trkpt lat="42.8798370" lon="-8.5461870">
        <ele>249.5</ele>
        <time>2019-08-18T10:25:34Z</time>
      </trkpt>
      <trkpt lat="42.8798440" lon="-8.5461640">
        <ele>249.7</ele>
        <time>2019-08-18T10:25:35Z</time>
      </trkpt>
      <trkpt lat="42.8798500" lon="-8.5461380">
        <ele>249.9</ele>
        <time>2019-08-18T10:25:36Z</time>
      </trkpt>
      <trkpt lat="42.8798540" lon="-8.5461080">
        <ele>250.1</ele>
        <time>2019-08-18T10:25:37Z</time>
      </trkpt>
      <trkpt lat="42.8798560" lon="-8.5460770">
        <ele>250.3</ele>
        <time>2019-08-18T10:25:38Z</time>
      </trkpt>
      <trkpt lat="42.8798590" lon="-8.5460440">
        <ele>250.5</ele>
        <time>2019-08-18T10:25:39Z</time>
      </trkpt>
      <trkpt lat="42.8798610" lon="-8.5460110">
        <ele>250.7</ele>
        <time>2019-08-18T10:25:40Z</time>
      </trkpt>
      <trkpt lat="42.8798640" lon="-8.5459790">
        <ele>250.9</ele>
        <time>2019-08-18T10:25:41Z</time>
      </trkpt>
      <trkpt lat="42.8798690" lon="-8.5459370">
        <ele>251.0</ele>
        <time>2019-08-18T10:25:42Z</time>
      </trkpt>
      <trkpt lat="42.8798710" lon="-8.5459230">
        <ele>251.1</ele>
        <time>2019-08-18T10:25:43Z</time>
      </trkpt>
      <trkpt lat="42.8798750" lon="-8.5459020">
        <ele>251.2</ele>
        <time>2019-08-18T10:25:44Z</time>
      </trkpt>
      <trkpt lat="42.8798810" lon="-8.5458860">
        <ele>251.3</ele>
        <time>2019-08-18T10:25:45Z</time>
      </trkpt>
      <trkpt lat="42.8798880" lon="-8.5458780">
        <ele>251.3</ele>
        <time>2019-08-18T10:25:46Z</time>
      </trkpt>
    </trkseg>
  </trk>
</gpx>
